<?xml version="1.0" encoding="UTF-8"?>
<TrainingCenterDatabase xmlns="http://www.garmin.com/xmlschemas/TrainingCenterDatabase/v2" xmlns:xsi="http://www.w3.org/2001/XMLSchema-instance" xsi:schemaLocation="http://www.garmin.com/xmlschemas/TrainingCenterDatabase/v2 http://www.garmin.com/xmlschemas/TrainingCenterDatabasev2.xsd">
  <Activities>
    <Activity Sport="Other">
      <Id>2021-08-09T07:38:47.000Z</Id>
      <Lap StartTime="2021-08-09T07:38:47.000Z">
        <TotalTimeSeconds>162089</TotalTimeSeconds>
        <DistanceMeters>219900</DistanceMeters>
        <Track>
          <Trackpoint>
            <Time>2021-08-09T07:38:47.000Z</Time>
            <Position>
              <LatitudeDegrees>42.91899112053215503692626953125</LatitudeDegrees>
              <LongitudeDegrees>-1.831272505223751068115234375</LongitudeDegrees>
            </Position>
            <AltitudeMeters>449.20001220703125</AltitudeMeters>
            <DistanceMeters>0</DistanceMeters>
          </Trackpoint>
          <Trackpoint>
            <Time>2021-08-09T07:41:15.000Z</Time>
            <Position>
              <LatitudeDegrees>42.91905306279659271240234375</LatitudeDegrees>
              <LongitudeDegrees>-1.83146771974861621856689453125</LongitudeDegrees>
            </Position>
            <AltitudeMeters>444.79998779296875</AltitudeMeters>
            <DistanceMeters>17.340748126418</DistanceMeters>
          </Trackpoint>
          <Trackpoint>
            <Time>2021-08-09T07:42:24.000Z</Time>
            <Position>
              <LatitudeDegrees>42.9190629534423351287841796875</LatitudeDegrees>
              <LongitudeDegrees>-1.83140267618000507354736328125</LongitudeDegrees>
            </Position>
            <AltitudeMeters>444.600006103515625</AltitudeMeters>
            <DistanceMeters>22.755603453527</DistanceMeters>
          </Trackpoint>
          <Trackpoint>
            <Time>2021-08-09T07:42:31.000Z</Time>
            <Position>
              <LatitudeDegrees>42.9190629534423351287841796875</LatitudeDegrees>
              <LongitudeDegrees>-1.83140267618000507354736328125</LongitudeDegrees>
            </Position>
            <AltitudeMeters>445</AltitudeMeters>
            <DistanceMeters>22.755603453527</DistanceMeters>
          </Trackpoint>
          <Trackpoint>
            <Time>2021-08-09T07:42:40.000Z</Time>
            <Position>
              <LatitudeDegrees>42.91904560290277004241943359375</LatitudeDegrees>
              <LongitudeDegrees>-1.8314252234995365142822265625</LongitudeDegrees>
            </Position>
            <AltitudeMeters>444.79998779296875</AltitudeMeters>
            <DistanceMeters>25.421437312077</DistanceMeters>
          </Trackpoint>
          <Trackpoint>
            <Time>2021-08-09T07:42:41.000Z</Time>
            <Position>
              <LatitudeDegrees>42.91903722099959850311279296875</LatitudeDegrees>
              <LongitudeDegrees>-1.83144575916230678558349609375</LongitudeDegrees>
            </Position>
            <AltitudeMeters>444.79998779296875</AltitudeMeters>
            <DistanceMeters>27.340882854189</DistanceMeters>
          </Trackpoint>
          <Trackpoint>
            <Time>2021-08-09T07:42:42.000Z</Time>
            <Position>
              <LatitudeDegrees>42.91903520934283733367919921875</LatitudeDegrees>
              <LongitudeDegrees>-1.83145782910287380218505859375</LongitudeDegrees>
            </Position>
            <AltitudeMeters>444.79998779296875</AltitudeMeters>
            <DistanceMeters>28.351030684047</DistanceMeters>
          </Trackpoint>
          <Trackpoint>
            <Time>2021-08-09T07:42:43.000Z</Time>
            <Position>
              <LatitudeDegrees>42.91903286240994930267333984375</LatitudeDegrees>
              <LongitudeDegrees>-1.83146554045379161834716796875</LongitudeDegrees>
            </Position>
            <AltitudeMeters>444.79998779296875</AltitudeMeters>
            <DistanceMeters>29.02965716352</DistanceMeters>
          </Trackpoint>
          <Trackpoint>
            <Time>2021-08-09T07:42:44.000Z</Time>
            <Position>
              <LatitudeDegrees>42.919029928743839263916015625</LatitudeDegrees>
              <LongitudeDegrees>-1.83147735893726348876953125</LongitudeDegrees>
            </Position>
            <AltitudeMeters>444.79998779296875</AltitudeMeters>
            <DistanceMeters>30.048705146225</DistanceMeters>
          </Trackpoint>
          <Trackpoint>
            <Time>2021-08-09T07:42:45.000Z</Time>
            <Position>
              <LatitudeDegrees>42.9190311022102832794189453125</LatitudeDegrees>
              <LongitudeDegrees>-1.83148942887783050537109375</LongitudeDegrees>
            </Position>
            <AltitudeMeters>444.600006103515625</AltitudeMeters>
            <DistanceMeters>31.040813170782</DistanceMeters>
          </Trackpoint>
          <Trackpoint>
            <Time>2021-08-09T07:42:46.000Z</Time>
            <Position>
              <LatitudeDegrees>42.919029258191585540771484375</LatitudeDegrees>
              <LongitudeDegrees>-1.831501834094524383544921875</LongitudeDegrees>
            </Position>
            <AltitudeMeters>444.79998779296875</AltitudeMeters>
            <DistanceMeters>32.073067509783</DistanceMeters>
          </Trackpoint>
          <Trackpoint>
            <Time>2021-08-09T07:42:47.000Z</Time>
            <Position>
              <LatitudeDegrees>42.9190223850309848785400390625</LatitudeDegrees>
              <LongitudeDegrees>-1.831517256796360015869140625</LongitudeDegrees>
            </Position>
            <AltitudeMeters>444.79998779296875</AltitudeMeters>
            <DistanceMeters>33.539068257962</DistanceMeters>
          </Trackpoint>
          <Trackpoint>
            <Time>2021-08-09T07:42:48.000Z</Time>
            <Position>
              <LatitudeDegrees>42.91901282966136932373046875</LatitudeDegrees>
              <LongitudeDegrees>-1.831527650356292724609375</LongitudeDegrees>
            </Position>
            <AltitudeMeters>444.79998779296875</AltitudeMeters>
            <DistanceMeters>34.896321216908</DistanceMeters>
          </Trackpoint>
          <Trackpoint>
            <Time>2021-08-09T07:42:49.000Z</Time>
            <Position>
              <LatitudeDegrees>42.9190062917768955230712890625</LatitudeDegrees>
              <LongitudeDegrees>-1.83152974583208560943603515625</LongitudeDegrees>
            </Position>
            <AltitudeMeters>444.79998779296875</AltitudeMeters>
            <DistanceMeters>35.638503582018</DistanceMeters>
          </Trackpoint>
          <Trackpoint>
            <Time>2021-08-09T07:42:50.000Z</Time>
            <Position>
              <LatitudeDegrees>42.9189995862543582916259765625</LatitudeDegrees>
              <LongitudeDegrees>-1.83153460733592510223388671875</LongitudeDegrees>
            </Position>
            <AltitudeMeters>444.79998779296875</AltitudeMeters>
            <DistanceMeters>36.477756799247</DistanceMeters>
          </Trackpoint>
          <Trackpoint>
            <Time>2021-08-09T07:42:51.000Z</Time>
            <Position>
              <LatitudeDegrees>42.91899329982697963714599609375</LatitudeDegrees>
              <LongitudeDegrees>-1.8315422348678112030029296875</LongitudeDegrees>
            </Position>
            <AltitudeMeters>444.79998779296875</AltitudeMeters>
            <DistanceMeters>37.418473276995</DistanceMeters>
          </Trackpoint>
          <Trackpoint>
            <Time>2021-08-09T07:42:52.000Z</Time>
            <Position>
              <LatitudeDegrees>42.91898475028574466705322265625</LatitudeDegrees>
              <LongitudeDegrees>-1.8315465934574604034423828125</LongitudeDegrees>
            </Position>
            <AltitudeMeters>444.79998779296875</AltitudeMeters>
            <DistanceMeters>38.4375212597</DistanceMeters>
          </Trackpoint>
          <Trackpoint>
            <Time>2021-08-09T07:42:54.000Z</Time>
            <Position>
              <LatitudeDegrees>42.91899162344634532928466796875</LatitudeDegrees>
              <LongitudeDegrees>-1.8315338529646396636962890625</LongitudeDegrees>
            </Position>
            <AltitudeMeters>445</AltitudeMeters>
            <DistanceMeters>39.726526327839</DistanceMeters>
          </Trackpoint>
          <Trackpoint>
            <Time>2021-08-09T07:42:55.000Z</Time>
            <Position>
              <LatitudeDegrees>42.9189848341047763824462890625</LatitudeDegrees>
              <LongitudeDegrees>-1.8315338529646396636962890625</LongitudeDegrees>
            </Position>
            <AltitudeMeters>445</AltitudeMeters>
            <DistanceMeters>40.486740042799</DistanceMeters>
          </Trackpoint>
          <Trackpoint>
            <Time>2021-08-09T07:42:56.000Z</Time>
            <Position>
              <LatitudeDegrees>42.91897720657289028167724609375</LatitudeDegrees>
              <LongitudeDegrees>-1.83154080994427204132080078125</LongitudeDegrees>
            </Position>
            <AltitudeMeters>445</AltitudeMeters>
            <DistanceMeters>41.505788025503</DistanceMeters>
          </Trackpoint>
          <Trackpoint>
            <Time>2021-08-09T07:42:57.000Z</Time>
            <Position>
              <LatitudeDegrees>42.91896681301295757293701171875</LatitudeDegrees>
              <LongitudeDegrees>-1.831549443304538726806640625</LongitudeDegrees>
            </Position>
            <AltitudeMeters>445</AltitudeMeters>
            <DistanceMeters>42.859710297321</DistanceMeters>
          </Trackpoint>
          <Trackpoint>
            <Time>2021-08-09T07:42:58.000Z</Time>
            <Position>
              <LatitudeDegrees>42.91895792819559574127197265625</LatitudeDegrees>
              <LongitudeDegrees>-1.831561513245105743408203125</LongitudeDegrees>
            </Position>
            <AltitudeMeters>445</AltitudeMeters>
            <DistanceMeters>44.256312070159</DistanceMeters>
          </Trackpoint>
          <Trackpoint>
            <Time>2021-08-09T07:43:00.000Z</Time>
            <Position>
              <LatitudeDegrees>42.91895449161529541015625</LatitudeDegrees>
              <LongitudeDegrees>-1.8316039256751537322998046875</LongitudeDegrees>
            </Position>
            <AltitudeMeters>445</AltitudeMeters>
            <DistanceMeters>47.734860968032</DistanceMeters>
          </Trackpoint>
          <Trackpoint>
            <Time>2021-08-09T07:43:01.000Z</Time>
            <Position>
              <LatitudeDegrees>42.91895382106304168701171875</LatitudeDegrees>
              <LongitudeDegrees>-1.831621862947940826416015625</LongitudeDegrees>
            </Position>
            <AltitudeMeters>445</AltitudeMeters>
            <DistanceMeters>49.200861716211</DistanceMeters>
          </Trackpoint>
          <Trackpoint>
            <Time>2021-08-09T07:43:02.000Z</Time>
            <Position>
              <LatitudeDegrees>42.91895390488207340240478515625</LatitudeDegrees>
              <LongitudeDegrees>-1.83163921348750591278076171875</LongitudeDegrees>
            </Position>
            <AltitudeMeters>445</AltitudeMeters>
            <DistanceMeters>50.6103356669</DistanceMeters>
          </Trackpoint>
          <Trackpoint>
            <Time>2021-08-09T07:43:06.000Z</Time>
            <Position>
              <LatitudeDegrees>42.91895725764334201812744140625</LatitudeDegrees>
              <LongitudeDegrees>-1.83167240582406520843505859375</LongitudeDegrees>
            </Position>
            <AltitudeMeters>444.79998779296875</AltitudeMeters>
            <DistanceMeters>53.341423937664</DistanceMeters>
          </Trackpoint>
          <Trackpoint>
            <Time>2021-08-09T07:43:24.000Z</Time>
            <Position>
              <LatitudeDegrees>42.91896496899425983428955078125</LatitudeDegrees>
              <LongitudeDegrees>-1.83169386349618434906005859375</LongitudeDegrees>
            </Position>
            <AltitudeMeters>444.600006103515625</AltitudeMeters>
            <DistanceMeters>55.288892064865</DistanceMeters>
          </Trackpoint>
          <Trackpoint>
            <Time>2021-08-09T07:43:30.000Z</Time>
            <Position>
              <LatitudeDegrees>42.9189546592533588409423828125</LatitudeDegrees>
              <LongitudeDegrees>-1.8319009803235530853271484375</LongitudeDegrees>
            </Position>
            <AltitudeMeters>444.399993896484375</AltitudeMeters>
            <DistanceMeters>72.209785475339</DistanceMeters>
          </Trackpoint>
          <Trackpoint>
            <Time>2021-08-09T07:43:35.000Z</Time>
            <Position>
              <LatitudeDegrees>42.91893295012414455413818359375</LatitudeDegrees>
              <LongitudeDegrees>-1.83212905190885066986083984375</LongitudeDegrees>
            </Position>
            <AltitudeMeters>444</AltitudeMeters>
            <DistanceMeters>90.956078041327</DistanceMeters>
          </Trackpoint>
          <Trackpoint>
            <Time>2021-08-09T07:43:41.000Z</Time>
            <Position>
              <LatitudeDegrees>42.91890956461429595947265625</LatitudeDegrees>
              <LongitudeDegrees>-1.832487545907497406005859375</LongitudeDegrees>
            </Position>
            <AltitudeMeters>443.399993896484375</AltitudeMeters>
            <DistanceMeters>120.29194985963</DistanceMeters>
          </Trackpoint>
          <Trackpoint>
            <Time>2021-08-09T07:43:43.000Z</Time>
            <Position>
              <LatitudeDegrees>42.91890126653015613555908203125</LatitudeDegrees>
              <LongitudeDegrees>-1.83262978680431842803955078125</LongitudeDegrees>
            </Position>
            <AltitudeMeters>443.20001220703125</AltitudeMeters>
            <DistanceMeters>131.92214826954</DistanceMeters>
          </Trackpoint>
          <Trackpoint>
            <Time>2021-08-09T07:43:46.000Z</Time>
            <Position>
              <LatitudeDegrees>42.9188782162964344024658203125</LatitudeDegrees>
              <LongitudeDegrees>-1.8328451178967952728271484375</LongitudeDegrees>
            </Position>
            <AltitudeMeters>443</AltitudeMeters>
            <DistanceMeters>149.65984607564</DistanceMeters>
          </Trackpoint>
          <Trackpoint>
            <Time>2021-08-09T07:43:47.000Z</Time>
            <Position>
              <LatitudeDegrees>42.91887176223099231719970703125</LatitudeDegrees>
              <LongitudeDegrees>-1.83290504850447177886962890625</LongitudeDegrees>
            </Position>
            <AltitudeMeters>442.79998779296875</AltitudeMeters>
            <DistanceMeters>154.5975789966</DistanceMeters>
          </Trackpoint>
          <Trackpoint>
            <Time>2021-08-09T07:43:48.000Z</Time>
            <Position>
              <LatitudeDegrees>42.9188597761094570159912109375</LatitudeDegrees>
              <LongitudeDegrees>-1.8329976685345172882080078125</LongitudeDegrees>
            </Position>
            <AltitudeMeters>442.600006103515625</AltitudeMeters>
            <DistanceMeters>162.2641797801</DistanceMeters>
          </Trackpoint>
          <Trackpoint>
            <Time>2021-08-09T07:43:51.000Z</Time>
            <Position>
              <LatitudeDegrees>42.91884141974151134490966796875</LatitudeDegrees>
              <LongitudeDegrees>-1.833235211670398712158203125</LongitudeDegrees>
            </Position>
            <AltitudeMeters>442</AltitudeMeters>
            <DistanceMeters>181.73329606235</DistanceMeters>
          </Trackpoint>
          <Trackpoint>
            <Time>2021-08-09T07:43:55.000Z</Time>
            <Position>
              <LatitudeDegrees>42.91881174780428409576416015625</LatitudeDegrees>
              <LongitudeDegrees>-1.8335703201591968536376953125</LongitudeDegrees>
            </Position>
            <AltitudeMeters>440.79998779296875</AltitudeMeters>
            <DistanceMeters>209.2464428861</DistanceMeters>
          </Trackpoint>
          <Trackpoint>
            <Time>2021-08-09T07:43:57.000Z</Time>
            <Position>
              <LatitudeDegrees>42.91879984550178050994873046875</LatitudeDegrees>
              <LongitudeDegrees>-1.833742149174213409423828125</LongitudeDegrees>
            </Position>
            <AltitudeMeters>440.399993896484375</AltitudeMeters>
            <DistanceMeters>223.31489040168</DistanceMeters>
          </Trackpoint>
          <Trackpoint>
            <Time>2021-08-09T07:44:00.000Z</Time>
            <Position>
              <LatitudeDegrees>42.91877671144902706146240234375</LatitudeDegrees>
              <LongitudeDegrees>-1.83399704284965991973876953125</LongitudeDegrees>
            </Position>
            <AltitudeMeters>439.79998779296875</AltitudeMeters>
            <DistanceMeters>244.24990318428</DistanceMeters>
          </Trackpoint>
          <Trackpoint>
            <Time>2021-08-09T07:44:05.000Z</Time>
            <Position>
              <LatitudeDegrees>42.918737567961215972900390625</LatitudeDegrees>
              <LongitudeDegrees>-1.834417395293712615966796875</LongitudeDegrees>
            </Position>
            <AltitudeMeters>438.600006103515625</AltitudeMeters>
            <DistanceMeters>278.78802890537</DistanceMeters>
          </Trackpoint>
          <Trackpoint>
            <Time>2021-08-09T07:44:06.000Z</Time>
            <Position>
              <LatitudeDegrees>42.9187313653528690338134765625</LatitudeDegrees>
              <LongitudeDegrees>-1.834495179355144500732421875</LongitudeDegrees>
            </Position>
            <AltitudeMeters>438.20001220703125</AltitudeMeters>
            <DistanceMeters>285.16544721559</DistanceMeters>
          </Trackpoint>
          <Trackpoint>
            <Time>2021-08-09T07:44:07.000Z</Time>
            <Position>
              <LatitudeDegrees>42.918727509677410125732421875</LatitudeDegrees>
              <LongitudeDegrees>-1.8345691077411174774169921875</LongitudeDegrees>
            </Position>
            <AltitudeMeters>438</AltitudeMeters>
            <DistanceMeters>291.20693453135</DistanceMeters>
          </Trackpoint>
          <Trackpoint>
            <Time>2021-08-09T07:44:08.000Z</Time>
            <Position>
              <LatitudeDegrees>42.9187286831438541412353515625</LatitudeDegrees>
              <LongitudeDegrees>-1.834643371403217315673828125</LongitudeDegrees>
            </Position>
            <AltitudeMeters>437.79998779296875</AltitudeMeters>
            <DistanceMeters>297.26185900342</DistanceMeters>
          </Trackpoint>
          <Trackpoint>
            <Time>2021-08-09T07:44:09.000Z</Time>
            <Position>
              <LatitudeDegrees>42.91874033398926258087158203125</LatitudeDegrees>
              <LongitudeDegrees>-1.83471553958952426910400390625</LongitudeDegrees>
            </Position>
            <AltitudeMeters>437.399993896484375</AltitudeMeters>
            <DistanceMeters>303.28538348265</DistanceMeters>
          </Trackpoint>
          <Trackpoint>
            <Time>2021-08-09T07:44:10.000Z</Time>
            <Position>
              <LatitudeDegrees>42.91876145638525485992431640625</LatitudeDegrees>
              <LongitudeDegrees>-1.83478326536715030670166015625</LongitudeDegrees>
            </Position>
            <AltitudeMeters>437.399993896484375</AltitudeMeters>
            <DistanceMeters>309.28487385314</DistanceMeters>
          </Trackpoint>
          <Trackpoint>
            <Time>2021-08-09T07:44:11.000Z</Time>
            <Position>
              <LatitudeDegrees>42.91877805255353450775146484375</LatitudeDegrees>
              <LongitudeDegrees>-1.8348514102399349212646484375</LongitudeDegrees>
            </Position>
            <AltitudeMeters>437</AltitudeMeters>
            <DistanceMeters>315.13963005483</DistanceMeters>
          </Trackpoint>
          <Trackpoint>
            <Time>2021-08-09T07:44:13.000Z</Time>
            <Position>
              <LatitudeDegrees>42.91879397816956043243408203125</LatitudeDegrees>
              <LongitudeDegrees>-1.83496825397014617919921875</LongitudeDegrees>
            </Position>
            <AltitudeMeters>436.79998779296875</AltitudeMeters>
            <DistanceMeters>324.82676350108</DistanceMeters>
          </Trackpoint>
          <Trackpoint>
            <Time>2021-08-09T07:44:14.000Z</Time>
            <Position>
              <LatitudeDegrees>42.9187949001789093017578125</LatitudeDegrees>
              <LongitudeDegrees>-1.8350163660943508148193359375</LongitudeDegrees>
            </Position>
            <AltitudeMeters>436.600006103515625</AltitudeMeters>
            <DistanceMeters>328.74942207156</DistanceMeters>
          </Trackpoint>
          <Trackpoint>
            <Time>2021-08-09T07:44:15.000Z</Time>
            <Position>
              <LatitudeDegrees>42.91878593154251575469970703125</LatitudeDegrees>
              <LongitudeDegrees>-1.8350622989237308502197265625</LongitudeDegrees>
            </Position>
            <AltitudeMeters>436.600006103515625</AltitudeMeters>
            <DistanceMeters>332.62343640424</DistanceMeters>
          </Trackpoint>
          <Trackpoint>
            <Time>2021-08-09T07:44:16.000Z</Time>
            <Position>
              <LatitudeDegrees>42.91876782663166522979736328125</LatitudeDegrees>
              <LongitudeDegrees>-1.8351025320589542388916015625</LongitudeDegrees>
            </Position>
            <AltitudeMeters>436.399993896484375</AltitudeMeters>
            <DistanceMeters>336.47172503272</DistanceMeters>
          </Trackpoint>
          <Trackpoint>
            <Time>2021-08-09T07:44:17.000Z</Time>
            <Position>
              <LatitudeDegrees>42.91874385438859462738037109375</LatitudeDegrees>
              <LongitudeDegrees>-1.8351397477090358734130859375</LongitudeDegrees>
            </Position>
            <AltitudeMeters>436.20001220703125</AltitudeMeters>
            <DistanceMeters>340.51008089344</DistanceMeters>
          </Trackpoint>
          <Trackpoint>
            <Time>2021-08-09T07:44:18.000Z</Time>
            <Position>
              <LatitudeDegrees>42.91871803812682628631591796875</LatitudeDegrees>
              <LongitudeDegrees>-1.83518107049167156219482421875</LongitudeDegrees>
            </Position>
            <AltitudeMeters>436.20001220703125</AltitudeMeters>
            <DistanceMeters>344.93877438433</DistanceMeters>
          </Trackpoint>
          <Trackpoint>
            <Time>2021-08-09T07:44:19.000Z</Time>
            <Position>
              <LatitudeDegrees>42.918695993721485137939453125</LatitudeDegrees>
              <LongitudeDegrees>-1.835228092968463897705078125</LongitudeDegrees>
            </Position>
            <AltitudeMeters>436.20001220703125</AltitudeMeters>
            <DistanceMeters>349.49014729395</DistanceMeters>
          </Trackpoint>
          <Trackpoint>
            <Time>2021-08-09T07:44:22.000Z</Time>
            <Position>
              <LatitudeDegrees>42.918656766414642333984375</LatitudeDegrees>
              <LongitudeDegrees>-1.83538961224257946014404296875</LongitudeDegrees>
            </Position>
            <AltitudeMeters>436</AltitudeMeters>
            <DistanceMeters>363.36079287067</DistanceMeters>
          </Trackpoint>
          <Trackpoint>
            <Time>2021-08-09T07:44:23.000Z</Time>
            <Position>
              <LatitudeDegrees>42.91865617968142032623291015625</LatitudeDegrees>
              <LongitudeDegrees>-1.8354394845664501190185546875</LongitudeDegrees>
            </Position>
            <AltitudeMeters>435.79998779296875</AltitudeMeters>
            <DistanceMeters>367.42589310221</DistanceMeters>
          </Trackpoint>
          <Trackpoint>
            <Time>2021-08-09T07:44:24.000Z</Time>
            <Position>
              <LatitudeDegrees>42.9186539165675640106201171875</LatitudeDegrees>
              <LongitudeDegrees>-1.83548315428197383880615234375</LongitudeDegrees>
            </Position>
            <AltitudeMeters>435.79998779296875</AltitudeMeters>
            <DistanceMeters>370.99414306346</DistanceMeters>
          </Trackpoint>
          <Trackpoint>
            <Time>2021-08-09T07:44:28.000Z</Time>
            <Position>
              <LatitudeDegrees>42.91864268481731414794921875</LatitudeDegrees>
              <LongitudeDegrees>-1.83565095998346805572509765625</LongitudeDegrees>
            </Position>
            <AltitudeMeters>435.600006103515625</AltitudeMeters>
            <DistanceMeters>384.72870883433</DistanceMeters>
          </Trackpoint>
          <Trackpoint>
            <Time>2021-08-09T07:44:29.000Z</Time>
            <Position>
              <LatitudeDegrees>42.91863958351314067840576171875</LatitudeDegrees>
              <LongitudeDegrees>-1.8356932885944843292236328125</LongitudeDegrees>
            </Position>
            <AltitudeMeters>435.600006103515625</AltitudeMeters>
            <DistanceMeters>388.19685845961</DistanceMeters>
          </Trackpoint>
          <Trackpoint>
            <Time>2021-08-09T07:44:30.000Z</Time>
            <Position>
              <LatitudeDegrees>42.91863958351314067840576171875</LatitudeDegrees>
              <LongitudeDegrees>-1.835733354091644287109375</LongitudeDegrees>
            </Position>
            <AltitudeMeters>435.600006103515625</AltitudeMeters>
            <DistanceMeters>391.46389845887</DistanceMeters>
          </Trackpoint>
          <Trackpoint>
            <Time>2021-08-09T07:44:31.000Z</Time>
            <Position>
              <LatitudeDegrees>42.9186411760747432708740234375</LatitudeDegrees>
              <LongitudeDegrees>-1.83577333576977252960205078125</LongitudeDegrees>
            </Position>
            <AltitudeMeters>435.600006103515625</AltitudeMeters>
            <DistanceMeters>394.7281732947</DistanceMeters>
          </Trackpoint>
          <Trackpoint>
            <Time>2021-08-09T07:44:32.000Z</Time>
            <Position>
              <LatitudeDegrees>42.9186405055224895477294921875</LatitudeDegrees>
              <LongitudeDegrees>-1.83581273071467876434326171875</LongitudeDegrees>
            </Position>
            <AltitudeMeters>435.399993896484375</AltitudeMeters>
            <DistanceMeters>397.94086334752</DistanceMeters>
          </Trackpoint>
          <Trackpoint>
            <Time>2021-08-09T07:44:33.000Z</Time>
            <Position>
              <LatitudeDegrees>42.91863740421831607818603515625</LatitudeDegrees>
              <LongitudeDegrees>-1.83585296384990215301513671875</LongitudeDegrees>
            </Position>
            <AltitudeMeters>435.399993896484375</AltitudeMeters>
            <DistanceMeters>401.23816710036</DistanceMeters>
          </Trackpoint>
          <Trackpoint>
            <Time>2021-08-09T07:44:34.000Z</Time>
            <Position>
              <LatitudeDegrees>42.91863539256155490875244140625</LatitudeDegrees>
              <LongitudeDegrees>-1.835892610251903533935546875</LongitudeDegrees>
            </Position>
            <AltitudeMeters>435.399993896484375</AltitudeMeters>
            <DistanceMeters>404.47744924736</DistanceMeters>
          </Trackpoint>
          <Trackpoint>
            <Time>2021-08-09T07:44:37.000Z</Time>
            <Position>
              <LatitudeDegrees>42.9186287708580493927001953125</LatitudeDegrees>
              <LongitudeDegrees>-1.83603309094905853271484375</LongitudeDegrees>
            </Position>
            <AltitudeMeters>435.399993896484375</AltitudeMeters>
            <DistanceMeters>415.95170366989</DistanceMeters>
          </Trackpoint>
          <Trackpoint>
            <Time>2021-08-09T07:44:45.000Z</Time>
            <Position>
              <LatitudeDegrees>42.91861049830913543701171875</LatitudeDegrees>
              <LongitudeDegrees>-1.83638404123485088348388671875</LongitudeDegrees>
            </Position>
            <AltitudeMeters>435.79998779296875</AltitudeMeters>
            <DistanceMeters>444.62946878739</DistanceMeters>
          </Trackpoint>
          <Trackpoint>
            <Time>2021-08-09T07:44:47.000Z</Time>
            <Position>
              <LatitudeDegrees>42.91860287077724933624267578125</LatitudeDegrees>
              <LongitudeDegrees>-1.83647624216973781585693359375</LongitudeDegrees>
            </Position>
            <AltitudeMeters>435.79998779296875</AltitudeMeters>
            <DistanceMeters>452.19170880735</DistanceMeters>
          </Trackpoint>
          <Trackpoint>
            <Time>2021-08-09T07:44:48.000Z</Time>
            <Position>
              <LatitudeDegrees>42.918597422540187835693359375</LatitudeDegrees>
              <LongitudeDegrees>-1.83652234263718128204345703125</LongitudeDegrees>
            </Position>
            <AltitudeMeters>435.79998779296875</AltitudeMeters>
            <DistanceMeters>455.99752575199</DistanceMeters>
          </Trackpoint>
          <Trackpoint>
            <Time>2021-08-09T07:44:51.000Z</Time>
            <Position>
              <LatitudeDegrees>42.9185845144093036651611328125</LatitudeDegrees>
              <LongitudeDegrees>-1.83665561489760875701904296875</LongitudeDegrees>
            </Position>
            <AltitudeMeters>436.20001220703125</AltitudeMeters>
            <DistanceMeters>466.95489297222</DistanceMeters>
          </Trackpoint>
          <Trackpoint>
            <Time>2021-08-09T07:44:52.000Z</Time>
            <Position>
              <LatitudeDegrees>42.918583340942859649658203125</LatitudeDegrees>
              <LongitudeDegrees>-1.83669400401413440704345703125</LongitudeDegrees>
            </Position>
            <AltitudeMeters>436.20001220703125</AltitudeMeters>
            <DistanceMeters>470.08645217142</DistanceMeters>
          </Trackpoint>
          <Trackpoint>
            <Time>2021-08-09T07:44:53.000Z</Time>
            <Position>
              <LatitudeDegrees>42.91858275420963764190673828125</LatitudeDegrees>
              <LongitudeDegrees>-1.8367296271026134490966796875</LongitudeDegrees>
            </Position>
            <AltitudeMeters>436.20001220703125</AltitudeMeters>
            <DistanceMeters>472.99215715905</DistanceMeters>
          </Trackpoint>
          <Trackpoint>
            <Time>2021-08-09T07:44:54.000Z</Time>
            <Position>
              <LatitudeDegrees>42.91858091019093990325927734375</LatitudeDegrees>
              <LongitudeDegrees>-1.8367675133049488067626953125</LongitudeDegrees>
            </Position>
            <AltitudeMeters>436.399993896484375</AltitudeMeters>
            <DistanceMeters>476.08746184632</DistanceMeters>
          </Trackpoint>
          <Trackpoint>
            <Time>2021-08-09T07:44:55.000Z</Time>
            <Position>
              <LatitudeDegrees>42.9185814969241619110107421875</LatitudeDegrees>
              <LongitudeDegrees>-1.83680648915469646453857421875</LongitudeDegrees>
            </Position>
            <AltitudeMeters>436.399993896484375</AltitudeMeters>
            <DistanceMeters>479.26482324602</DistanceMeters>
          </Trackpoint>
          <Trackpoint>
            <Time>2021-08-09T07:44:56.000Z</Time>
            <Position>
              <LatitudeDegrees>42.9185804910957813262939453125</LatitudeDegrees>
              <LongitudeDegrees>-1.836844123899936676025390625</LongitudeDegrees>
            </Position>
            <AltitudeMeters>436.600006103515625</AltitudeMeters>
            <DistanceMeters>482.33375950001</DistanceMeters>
          </Trackpoint>
          <Trackpoint>
            <Time>2021-08-09T07:44:57.000Z</Time>
            <Position>
              <LatitudeDegrees>42.91858367621898651123046875</LatitudeDegrees>
              <LongitudeDegrees>-1.83688142336905002593994140625</LongitudeDegrees>
            </Position>
            <AltitudeMeters>436.600006103515625</AltitudeMeters>
            <DistanceMeters>485.39533088556</DistanceMeters>
          </Trackpoint>
          <Trackpoint>
            <Time>2021-08-09T07:44:58.000Z</Time>
            <Position>
              <LatitudeDegrees>42.91858694516122341156005859375</LatitudeDegrees>
              <LongitudeDegrees>-1.8369157053530216217041015625</LongitudeDegrees>
            </Position>
            <AltitudeMeters>436.600006103515625</AltitudeMeters>
            <DistanceMeters>488.21267665671</DistanceMeters>
          </Trackpoint>
          <Trackpoint>
            <Time>2021-08-09T07:44:59.000Z</Time>
            <Position>
              <LatitudeDegrees>42.9185883700847625732421875</LatitudeDegrees>
              <LongitudeDegrees>-1.83694831095635890960693359375</LongitudeDegrees>
            </Position>
            <AltitudeMeters>436.600006103515625</AltitudeMeters>
            <DistanceMeters>490.87342465907</DistanceMeters>
          </Trackpoint>
          <Trackpoint>
            <Time>2021-08-09T07:45:00.000Z</Time>
            <Position>
              <LatitudeDegrees>42.91858929209411144256591796875</LatitudeDegrees>
              <LongitudeDegrees>-1.8369690142571926116943359375</LongitudeDegrees>
            </Position>
            <AltitudeMeters>436.79998779296875</AltitudeMeters>
            <DistanceMeters>492.56265648339</DistanceMeters>
          </Trackpoint>
          <Trackpoint>
            <Time>2021-08-09T07:45:01.000Z</Time>
            <Position>
              <LatitudeDegrees>42.9185918904840946197509765625</LatitudeDegrees>
              <LongitudeDegrees>-1.83699667453765869140625</LongitudeDegrees>
            </Position>
            <AltitudeMeters>436.79998779296875</AltitudeMeters>
            <DistanceMeters>494.83536493939</DistanceMeters>
          </Trackpoint>
          <Trackpoint>
            <Time>2021-08-09T07:45:02.000Z</Time>
            <Position>
              <LatitudeDegrees>42.9185918904840946197509765625</LatitudeDegrees>
              <LongitudeDegrees>-1.83700664900243282318115234375</LongitudeDegrees>
            </Position>
            <AltitudeMeters>436.79998779296875</AltitudeMeters>
            <DistanceMeters>495.65281564545</DistanceMeters>
          </Trackpoint>
          <Trackpoint>
            <Time>2021-08-09T07:45:03.000Z</Time>
            <Position>
              <LatitudeDegrees>42.9185918904840946197509765625</LatitudeDegrees>
              <LongitudeDegrees>-1.83700664900243282318115234375</LongitudeDegrees>
            </Position>
            <AltitudeMeters>436.79998779296875</AltitudeMeters>
            <DistanceMeters>495.65281564545</DistanceMeters>
          </Trackpoint>
          <Trackpoint>
            <Time>2021-08-09T07:45:22.000Z</Time>
            <Position>
              <LatitudeDegrees>42.9185918904840946197509765625</LatitudeDegrees>
              <LongitudeDegrees>-1.83700664900243282318115234375</LongitudeDegrees>
            </Position>
            <AltitudeMeters>437</AltitudeMeters>
            <DistanceMeters>495.65281564545</DistanceMeters>
          </Trackpoint>
          <Trackpoint>
            <Time>2021-08-09T07:45:45.000Z</Time>
            <Position>
              <LatitudeDegrees>42.9185814969241619110107421875</LatitudeDegrees>
              <LongitudeDegrees>-1.83703028596937656402587890625</LongitudeDegrees>
            </Position>
            <AltitudeMeters>437</AltitudeMeters>
            <DistanceMeters>497.89954943747</DistanceMeters>
          </Trackpoint>
          <Trackpoint>
            <Time>2021-08-09T07:45:47.000Z</Time>
            <Position>
              <LatitudeDegrees>42.91854738257825374603271484375</LatitudeDegrees>
              <LongitudeDegrees>-1.83704872615635395050048828125</LongitudeDegrees>
            </Position>
            <AltitudeMeters>437</AltitudeMeters>
            <DistanceMeters>501.9823819243</DistanceMeters>
          </Trackpoint>
          <Trackpoint>
            <Time>2021-08-09T07:45:49.000Z</Time>
            <Position>
              <LatitudeDegrees>42.91851662099361419677734375</LatitudeDegrees>
              <LongitudeDegrees>-1.83703933842480182647705078125</LongitudeDegrees>
            </Position>
            <AltitudeMeters>437</AltitudeMeters>
            <DistanceMeters>505.49194375871</DistanceMeters>
          </Trackpoint>
          <Trackpoint>
            <Time>2021-08-09T07:45:51.000Z</Time>
            <Position>
              <LatitudeDegrees>42.9185060597956180572509765625</LatitudeDegrees>
              <LongitudeDegrees>-1.8370062299072742462158203125</LongitudeDegrees>
            </Position>
            <AltitudeMeters>437</AltitudeMeters>
            <DistanceMeters>508.43777190418</DistanceMeters>
          </Trackpoint>
          <Trackpoint>
            <Time>2021-08-09T07:45:52.000Z</Time>
            <Position>
              <LatitudeDegrees>42.91850798763334751129150390625</LatitudeDegrees>
              <LongitudeDegrees>-1.8369934894144535064697265625</LongitudeDegrees>
            </Position>
            <AltitudeMeters>437</AltitudeMeters>
            <DistanceMeters>509.50020286923</DistanceMeters>
          </Trackpoint>
          <Trackpoint>
            <Time>2021-08-09T07:45:56.000Z</Time>
            <Position>
              <LatitudeDegrees>42.91850798763334751129150390625</LatitudeDegrees>
              <LongitudeDegrees>-1.83699131011962890625</LongitudeDegrees>
            </Position>
            <AltitudeMeters>437</AltitudeMeters>
            <DistanceMeters>509.69025629797</DistanceMeters>
          </Trackpoint>
          <Trackpoint>
            <Time>2021-08-09T07:46:01.000Z</Time>
            <Position>
              <LatitudeDegrees>42.91851184330880641937255859375</LatitudeDegrees>
              <LongitudeDegrees>-1.83693104423582553863525390625</LongitudeDegrees>
            </Position>
            <AltitudeMeters>437</AltitudeMeters>
            <DistanceMeters>514.62066863236</DistanceMeters>
          </Trackpoint>
          <Trackpoint>
            <Time>2021-08-09T07:46:02.000Z</Time>
            <Position>
              <LatitudeDegrees>42.9185092449188232421875</LatitudeDegrees>
              <LongitudeDegrees>-1.83689667843282222747802734375</LongitudeDegrees>
            </Position>
            <AltitudeMeters>437</AltitudeMeters>
            <DistanceMeters>517.43641136169</DistanceMeters>
          </Trackpoint>
          <Trackpoint>
            <Time>2021-08-09T07:46:03.000Z</Time>
            <Position>
              <LatitudeDegrees>42.91850589215755462646484375</LatitudeDegrees>
              <LongitudeDegrees>-1.8368553556501865386962890625</LongitudeDegrees>
            </Position>
            <AltitudeMeters>437</AltitudeMeters>
            <DistanceMeters>520.82554948764</DistanceMeters>
          </Trackpoint>
          <Trackpoint>
            <Time>2021-08-09T07:46:07.000Z</Time>
            <Position>
              <LatitudeDegrees>42.91850681416690349578857421875</LatitudeDegrees>
              <LongitudeDegrees>-1.836645305156707763671875</LongitudeDegrees>
            </Position>
            <AltitudeMeters>436.79998779296875</AltitudeMeters>
            <DistanceMeters>537.94724337804</DistanceMeters>
          </Trackpoint>
          <Trackpoint>
            <Time>2021-08-09T07:46:11.000Z</Time>
            <Position>
              <LatitudeDegrees>42.91850991547107696533203125</LatitudeDegrees>
              <LongitudeDegrees>-1.8364017270505428314208984375</LongitudeDegrees>
            </Position>
            <AltitudeMeters>436.600006103515625</AltitudeMeters>
            <DistanceMeters>557.80396158244</DistanceMeters>
          </Trackpoint>
          <Trackpoint>
            <Time>2021-08-09T07:46:15.000Z</Time>
            <Position>
              <LatitudeDegrees>42.918522655963897705078125</LatitudeDegrees>
              <LongitudeDegrees>-1.83613543398678302764892578125</LongitudeDegrees>
            </Position>
            <AltitudeMeters>436</AltitudeMeters>
            <DistanceMeters>579.55532533751</DistanceMeters>
          </Trackpoint>
          <Trackpoint>
            <Time>2021-08-09T07:46:23.000Z</Time>
            <Position>
              <LatitudeDegrees>42.91856951080262660980224609375</LatitudeDegrees>
              <LongitudeDegrees>-1.8356178514659404754638671875</LongitudeDegrees>
            </Position>
            <AltitudeMeters>435.600006103515625</AltitudeMeters>
            <DistanceMeters>622.06403664535</DistanceMeters>
          </Trackpoint>
          <Trackpoint>
            <Time>2021-08-09T07:46:25.000Z</Time>
            <Position>
              <LatitudeDegrees>42.91857956908643245697021484375</LatitudeDegrees>
              <LongitudeDegrees>-1.8354954756796360015869140625</LongitudeDegrees>
            </Position>
            <AltitudeMeters>435.399993896484375</AltitudeMeters>
            <DistanceMeters>632.10139500725</DistanceMeters>
          </Trackpoint>
          <Trackpoint>
            <Time>2021-08-09T07:46:26.000Z</Time>
            <Position>
              <LatitudeDegrees>42.91858459822833538055419921875</LatitudeDegrees>
              <LongitudeDegrees>-1.83543370105326175689697265625</LongitudeDegrees>
            </Position>
            <AltitudeMeters>435.399993896484375</AltitudeMeters>
            <DistanceMeters>637.16730827671</DistanceMeters>
          </Trackpoint>
          <Trackpoint>
            <Time>2021-08-09T07:46:27.000Z</Time>
            <Position>
              <LatitudeDegrees>42.9185895435512065887451171875</LatitudeDegrees>
              <LongitudeDegrees>-1.83537435717880725860595703125</LongitudeDegrees>
            </Position>
            <AltitudeMeters>435.399993896484375</AltitudeMeters>
            <DistanceMeters>642.03597859471</DistanceMeters>
          </Trackpoint>
          <Trackpoint>
            <Time>2021-08-09T07:46:28.000Z</Time>
            <Position>
              <LatitudeDegrees>42.91859080083668231964111328125</LatitudeDegrees>
              <LongitudeDegrees>-1.83531836606562137603759765625</LongitudeDegrees>
            </Position>
            <AltitudeMeters>435.399993896484375</AltitudeMeters>
            <DistanceMeters>646.6031961925</DistanceMeters>
          </Trackpoint>
          <Trackpoint>
            <Time>2021-08-09T07:46:29.000Z</Time>
            <Position>
              <LatitudeDegrees>42.91858828626573085784912109375</LatitudeDegrees>
              <LongitudeDegrees>-1.8352639675140380859375</LongitudeDegrees>
            </Position>
            <AltitudeMeters>435.399993896484375</AltitudeMeters>
            <DistanceMeters>651.04613971076</DistanceMeters>
          </Trackpoint>
          <Trackpoint>
            <Time>2021-08-09T07:46:30.000Z</Time>
            <Position>
              <LatitudeDegrees>42.91858023963868618011474609375</LatitudeDegrees>
              <LongitudeDegrees>-1.83520889841020107269287109375</LongitudeDegrees>
            </Position>
            <AltitudeMeters>435.399993896484375</AltitudeMeters>
            <DistanceMeters>655.62323238516</DistanceMeters>
          </Trackpoint>
          <Trackpoint>
            <Time>2021-08-09T07:46:31.000Z</Time>
            <Position>
              <LatitudeDegrees>42.91856951080262660980224609375</LatitudeDegrees>
              <LongitudeDegrees>-1.8351585231721401214599609375</LongitudeDegrees>
            </Position>
            <AltitudeMeters>435.20001220703125</AltitudeMeters>
            <DistanceMeters>659.90049025387</DistanceMeters>
          </Trackpoint>
          <Trackpoint>
            <Time>2021-08-09T07:46:32.000Z</Time>
            <Position>
              <LatitudeDegrees>42.9185540042817592620849609375</LatitudeDegrees>
              <LongitudeDegrees>-1.8351119197905063629150390625</LongitudeDegrees>
            </Position>
            <AltitudeMeters>435.20001220703125</AltitudeMeters>
            <DistanceMeters>664.07301795107</DistanceMeters>
          </Trackpoint>
          <Trackpoint>
            <Time>2021-08-09T07:46:33.000Z</Time>
            <Position>
              <LatitudeDegrees>42.91853916831314563751220703125</LatitudeDegrees>
              <LongitudeDegrees>-1.835071854293346405029296875</LongitudeDegrees>
            </Position>
            <AltitudeMeters>435.20001220703125</AltitudeMeters>
            <DistanceMeters>667.73247192214</DistanceMeters>
          </Trackpoint>
          <Trackpoint>
            <Time>2021-08-09T07:46:34.000Z</Time>
            <Position>
              <LatitudeDegrees>42.91852626018226146697998046875</LatitudeDegrees>
              <LongitudeDegrees>-1.83503740467131137847900390625</LongitudeDegrees>
            </Position>
            <AltitudeMeters>435.20001220703125</AltitudeMeters>
            <DistanceMeters>670.88701535048</DistanceMeters>
          </Trackpoint>
          <Trackpoint>
            <Time>2021-08-09T07:46:35.000Z</Time>
            <Position>
              <LatitudeDegrees>42.91851486079394817352294921875</LatitudeDegrees>
              <LongitudeDegrees>-1.835000775754451751708984375</LongitudeDegrees>
            </Position>
            <AltitudeMeters>435.20001220703125</AltitudeMeters>
            <DistanceMeters>674.13047631944</DistanceMeters>
          </Trackpoint>
          <Trackpoint>
            <Time>2021-08-09T07:46:36.000Z</Time>
            <Position>
              <LatitudeDegrees>42.918510250747203826904296875</LatitudeDegrees>
              <LongitudeDegrees>-1.83495794422924518585205078125</LongitudeDegrees>
            </Position>
            <AltitudeMeters>435.20001220703125</AltitudeMeters>
            <DistanceMeters>677.66056208223</DistanceMeters>
          </Trackpoint>
          <Trackpoint>
            <Time>2021-08-09T07:46:37.000Z</Time>
            <Position>
              <LatitudeDegrees>42.91851704008877277374267578125</LatitudeDegrees>
              <LongitudeDegrees>-1.83491326868534088134765625</LongitudeDegrees>
            </Position>
            <AltitudeMeters>435.399993896484375</AltitudeMeters>
            <DistanceMeters>681.37998100354</DistanceMeters>
          </Trackpoint>
          <Trackpoint>
            <Time>2021-08-09T07:46:38.000Z</Time>
            <Position>
              <LatitudeDegrees>42.91852466762065887451171875</LatitudeDegrees>
              <LongitudeDegrees>-1.83487513102591037750244140625</LongitudeDegrees>
            </Position>
            <AltitudeMeters>435.399993896484375</AltitudeMeters>
            <DistanceMeters>684.60249367388</DistanceMeters>
          </Trackpoint>
          <Trackpoint>
            <Time>2021-08-09T07:46:39.000Z</Time>
            <Position>
              <LatitudeDegrees>42.91853698901832103729248046875</LatitudeDegrees>
              <LongitudeDegrees>-1.83483992703258991241455078125</LongitudeDegrees>
            </Position>
            <AltitudeMeters>435.399993896484375</AltitudeMeters>
            <DistanceMeters>687.78269580853</DistanceMeters>
          </Trackpoint>
          <Trackpoint>
            <Time>2021-08-09T07:46:40.000Z</Time>
            <Position>
              <LatitudeDegrees>42.9185535013675689697265625</LatitudeDegrees>
              <LongitudeDegrees>-1.83480740524828433990478515625</LongitudeDegrees>
            </Position>
            <AltitudeMeters>435.600006103515625</AltitudeMeters>
            <DistanceMeters>691.00800944653</DistanceMeters>
          </Trackpoint>
          <Trackpoint>
            <Time>2021-08-09T07:46:41.000Z</Time>
            <Position>
              <LatitudeDegrees>42.91857554577291011810302734375</LatitudeDegrees>
              <LongitudeDegrees>-1.834779493510723114013671875</LongitudeDegrees>
            </Position>
            <AltitudeMeters>435.600006103515625</AltitudeMeters>
            <DistanceMeters>694.35424536028</DistanceMeters>
          </Trackpoint>
          <Trackpoint>
            <Time>2021-08-09T07:46:42.000Z</Time>
            <Position>
              <LatitudeDegrees>42.91859599761664867401123046875</LatitudeDegrees>
              <LongitudeDegrees>-1.83474990539252758026123046875</LongitudeDegrees>
            </Position>
            <AltitudeMeters>435.600006103515625</AltitudeMeters>
            <DistanceMeters>697.67066407762</DistanceMeters>
          </Trackpoint>
          <Trackpoint>
            <Time>2021-08-09T07:46:43.000Z</Time>
            <Position>
              <LatitudeDegrees>42.91861108504235744476318359375</LatitudeDegrees>
              <LongitudeDegrees>-1.834714449942111968994140625</LongitudeDegrees>
            </Position>
            <AltitudeMeters>435.600006103515625</AltitudeMeters>
            <DistanceMeters>701.01284967408</DistanceMeters>
          </Trackpoint>
          <Trackpoint>
            <Time>2021-08-09T07:46:44.000Z</Time>
            <Position>
              <LatitudeDegrees>42.91862466372549533843994140625</LatitudeDegrees>
              <LongitudeDegrees>-1.8346730433404445648193359375</LongitudeDegrees>
            </Position>
            <AltitudeMeters>435.600006103515625</AltitudeMeters>
            <DistanceMeters>704.71035366139</DistanceMeters>
          </Trackpoint>
          <Trackpoint>
            <Time>2021-08-09T07:46:46.000Z</Time>
            <Position>
              <LatitudeDegrees>42.9186418466269969940185546875</LatitudeDegrees>
              <LongitudeDegrees>-1.8345805071294307708740234375</LongitudeDegrees>
            </Position>
            <AltitudeMeters>435.600006103515625</AltitudeMeters>
            <DistanceMeters>712.49152725904</DistanceMeters>
          </Trackpoint>
          <Trackpoint>
            <Time>2021-08-09T07:46:47.000Z</Time>
            <Position>
              <LatitudeDegrees>42.9186428524553775787353515625</LatitudeDegrees>
              <LongitudeDegrees>-1.8345362506806850433349609375</LongitudeDegrees>
            </Position>
            <AltitudeMeters>435.79998779296875</AltitudeMeters>
            <DistanceMeters>716.10004083559</DistanceMeters>
          </Trackpoint>
          <Trackpoint>
            <Time>2021-08-09T07:46:49.000Z</Time>
            <Position>
              <LatitudeDegrees>42.91865031234920024871826171875</LatitudeDegrees>
              <LongitudeDegrees>-1.83444815687835216522216796875</LongitudeDegrees>
            </Position>
            <AltitudeMeters>435.79998779296875</AltitudeMeters>
            <DistanceMeters>723.32832018165</DistanceMeters>
          </Trackpoint>
          <Trackpoint>
            <Time>2021-08-09T07:46:58.000Z</Time>
            <Position>
              <LatitudeDegrees>42.91868291795253753662109375</LatitudeDegrees>
              <LongitudeDegrees>-1.83402889408171176910400390625</LongitudeDegrees>
            </Position>
            <AltitudeMeters>436.600006103515625</AltitudeMeters>
            <DistanceMeters>757.69411098882</DistanceMeters>
          </Trackpoint>
          <Trackpoint>
            <Time>2021-08-09T07:47:01.000Z</Time>
            <Position>
              <LatitudeDegrees>42.91868534870445728302001953125</LatitudeDegrees>
              <LongitudeDegrees>-1.83390878140926361083984375</LongitudeDegrees>
            </Position>
            <AltitudeMeters>437</AltitudeMeters>
            <DistanceMeters>767.48785756445</DistanceMeters>
          </Trackpoint>
          <Trackpoint>
            <Time>2021-08-09T07:47:03.000Z</Time>
            <Position>
              <LatitudeDegrees>42.9186941497027873992919921875</LatitudeDegrees>
              <LongitudeDegrees>-1.833821944892406463623046875</LongitudeDegrees>
            </Position>
            <AltitudeMeters>437</AltitudeMeters>
            <DistanceMeters>774.63320935524</DistanceMeters>
          </Trackpoint>
          <Trackpoint>
            <Time>2021-08-09T07:47:04.000Z</Time>
            <Position>
              <LatitudeDegrees>42.918695323169231414794921875</LatitudeDegrees>
              <LongitudeDegrees>-1.8337909318506717681884765625</LongitudeDegrees>
            </Position>
            <AltitudeMeters>437.20001220703125</AltitudeMeters>
            <DistanceMeters>777.16527457462</DistanceMeters>
          </Trackpoint>
          <Trackpoint>
            <Time>2021-08-09T07:47:05.000Z</Time>
            <Position>
              <LatitudeDegrees>42.918695323169231414794921875</LatitudeDegrees>
              <LongitudeDegrees>-1.83374709449708461761474609375</LongitudeDegrees>
            </Position>
            <AltitudeMeters>437.20001220703125</AltitudeMeters>
            <DistanceMeters>780.73858229881</DistanceMeters>
          </Trackpoint>
          <Trackpoint>
            <Time>2021-08-09T07:47:06.000Z</Time>
            <Position>
              <LatitudeDegrees>42.918698005378246307373046875</LatitudeDegrees>
              <LongitudeDegrees>-1.833712644875049591064453125</LongitudeDegrees>
            </Position>
            <AltitudeMeters>437.399993896484375</AltitudeMeters>
            <DistanceMeters>783.56233113679</DistanceMeters>
          </Trackpoint>
          <Trackpoint>
            <Time>2021-08-09T07:47:07.000Z</Time>
            <Position>
              <LatitudeDegrees>42.91870303452014923095703125</LatitudeDegrees>
              <LongitudeDegrees>-1.8336776085197925567626953125</LongitudeDegrees>
            </Position>
            <AltitudeMeters>437.600006103515625</AltitudeMeters>
            <DistanceMeters>786.47269394999</DistanceMeters>
          </Trackpoint>
          <Trackpoint>
            <Time>2021-08-09T07:47:08.000Z</Time>
            <Position>
              <LatitudeDegrees>42.9187089018523693084716796875</LatitudeDegrees>
              <LongitudeDegrees>-1.8336481042206287384033203125</LongitudeDegrees>
            </Position>
            <AltitudeMeters>437.600006103515625</AltitudeMeters>
            <DistanceMeters>788.96340921212</DistanceMeters>
          </Trackpoint>
          <Trackpoint>
            <Time>2021-08-09T07:47:09.000Z</Time>
            <Position>
              <LatitudeDegrees>42.91871921159327030181884765625</LatitudeDegrees>
              <LongitudeDegrees>-1.8336048536002635955810546875</LongitudeDegrees>
            </Position>
            <AltitudeMeters>437.79998779296875</AltitudeMeters>
            <DistanceMeters>792.66945107255</DistanceMeters>
          </Trackpoint>
          <Trackpoint>
            <Time>2021-08-09T07:47:10.000Z</Time>
            <Position>
              <LatitudeDegrees>42.91872658766806125640869140625</LatitudeDegrees>
              <LongitudeDegrees>-1.83356420136988162994384765625</LongitudeDegrees>
            </Position>
            <AltitudeMeters>437.79998779296875</AltitudeMeters>
            <DistanceMeters>796.08248471034</DistanceMeters>
          </Trackpoint>
          <Trackpoint>
            <Time>2021-08-09T07:47:12.000Z</Time>
            <Position>
              <LatitudeDegrees>42.91874469257891178131103515625</LatitudeDegrees>
              <LongitudeDegrees>-1.83348306454718112945556640625</LongitudeDegrees>
            </Position>
            <AltitudeMeters>438</AltitudeMeters>
            <DistanceMeters>802.99531079968</DistanceMeters>
          </Trackpoint>
          <Trackpoint>
            <Time>2021-08-09T07:47:17.000Z</Time>
            <Position>
              <LatitudeDegrees>42.918832786381244659423828125</LatitudeDegrees>
              <LongitudeDegrees>-1.83332942426204681396484375</LongitudeDegrees>
            </Position>
            <AltitudeMeters>438.600006103515625</AltitudeMeters>
            <DistanceMeters>818.90029622881</DistanceMeters>
          </Trackpoint>
          <Trackpoint>
            <Time>2021-08-09T07:47:18.000Z</Time>
            <Position>
              <LatitudeDegrees>42.91885231621563434600830078125</LatitudeDegrees>
              <LongitudeDegrees>-1.833319365978240966796875</LongitudeDegrees>
            </Position>
            <AltitudeMeters>438.600006103515625</AltitudeMeters>
            <DistanceMeters>821.22408316257</DistanceMeters>
          </Trackpoint>
          <Trackpoint>
            <Time>2021-08-09T07:47:19.000Z</Time>
            <Position>
              <LatitudeDegrees>42.918865643441677093505859375</LatitudeDegrees>
              <LongitudeDegrees>-1.83331492356956005096435546875</LongitudeDegrees>
            </Position>
            <AltitudeMeters>438.79998779296875</AltitudeMeters>
            <DistanceMeters>822.75043820729</DistanceMeters>
          </Trackpoint>
          <Trackpoint>
            <Time>2021-08-09T07:47:22.000Z</Time>
            <Position>
              <LatitudeDegrees>42.918865643441677093505859375</LatitudeDegrees>
              <LongitudeDegrees>-1.83331492356956005096435546875</LongitudeDegrees>
            </Position>
            <AltitudeMeters>439</AltitudeMeters>
            <DistanceMeters>822.75043820729</DistanceMeters>
          </Trackpoint>
          <Trackpoint>
            <Time>2021-08-09T07:47:28.000Z</Time>
            <Position>
              <LatitudeDegrees>42.918865643441677093505859375</LatitudeDegrees>
              <LongitudeDegrees>-1.83331492356956005096435546875</LongitudeDegrees>
            </Position>
            <AltitudeMeters>439.399993896484375</AltitudeMeters>
            <DistanceMeters>822.75043820729</DistanceMeters>
          </Trackpoint>
          <Trackpoint>
            <Time>2021-08-09T07:47:42.000Z</Time>
            <Position>
              <LatitudeDegrees>42.918865643441677093505859375</LatitudeDegrees>
              <LongitudeDegrees>-1.83331492356956005096435546875</LongitudeDegrees>
            </Position>
            <AltitudeMeters>439.399993896484375</AltitudeMeters>
            <DistanceMeters>822.75043820729</DistanceMeters>
          </Trackpoint>
          <Trackpoint>
            <Time>2021-08-09T07:49:35.000Z</Time>
            <Position>
              <LatitudeDegrees>42.9188808985054492950439453125</LatitudeDegrees>
              <LongitudeDegrees>-1.83331777341663837432861328125</LongitudeDegrees>
            </Position>
            <AltitudeMeters>439.600006103515625</AltitudeMeters>
            <DistanceMeters>824.46619020589</DistanceMeters>
          </Trackpoint>
          <Trackpoint>
            <Time>2021-08-09T07:49:37.000Z</Time>
            <Position>
              <LatitudeDegrees>42.9189070500433444976806640625</LatitudeDegrees>
              <LongitudeDegrees>-1.83331877924501895904541015625</LongitudeDegrees>
            </Position>
            <AltitudeMeters>439.600006103515625</AltitudeMeters>
            <DistanceMeters>827.37965409915</DistanceMeters>
          </Trackpoint>
          <Trackpoint>
            <Time>2021-08-09T07:49:38.000Z</Time>
            <Position>
              <LatitudeDegrees>42.918917275965213775634765625</LatitudeDegrees>
              <LongitudeDegrees>-1.8333295919001102447509765625</LongitudeDegrees>
            </Position>
            <AltitudeMeters>439.600006103515625</AltitudeMeters>
            <DistanceMeters>828.820805577</DistanceMeters>
          </Trackpoint>
          <Trackpoint>
            <Time>2021-08-09T07:49:40.000Z</Time>
            <Position>
              <LatitudeDegrees>42.91889741085469722747802734375</LatitudeDegrees>
              <LongitudeDegrees>-1.83335348032414913177490234375</LongitudeDegrees>
            </Position>
            <AltitudeMeters>439.600006103515625</AltitudeMeters>
            <DistanceMeters>831.76663372247</DistanceMeters>
          </Trackpoint>
          <Trackpoint>
            <Time>2021-08-09T07:49:43.000Z</Time>
            <Position>
              <LatitudeDegrees>42.9188517294824123382568359375</LatitudeDegrees>
              <LongitudeDegrees>-1.83335482142865657806396484375</LongitudeDegrees>
            </Position>
            <AltitudeMeters>439.600006103515625</AltitudeMeters>
            <DistanceMeters>836.85211687902</DistanceMeters>
          </Trackpoint>
          <Trackpoint>
            <Time>2021-08-09T07:49:44.000Z</Time>
            <Position>
              <LatitudeDegrees>42.918840162456035614013671875</LatitudeDegrees>
              <LongitudeDegrees>-1.83334610424935817718505859375</LongitudeDegrees>
            </Position>
            <AltitudeMeters>439.600006103515625</AltitudeMeters>
            <DistanceMeters>838.32119423236</DistanceMeters>
          </Trackpoint>
          <Trackpoint>
            <Time>2021-08-09T07:49:45.000Z</Time>
            <Position>
              <LatitudeDegrees>42.9188336245715618133544921875</LatitudeDegrees>
              <LongitudeDegrees>-1.83333084918558597564697265625</LongitudeDegrees>
            </Position>
            <AltitudeMeters>439.600006103515625</AltitudeMeters>
            <DistanceMeters>839.76234571021</DistanceMeters>
          </Trackpoint>
          <Trackpoint>
            <Time>2021-08-09T07:49:46.000Z</Time>
            <Position>
              <LatitudeDegrees>42.91882683522999286651611328125</LatitudeDegrees>
              <LongitudeDegrees>-1.83331224136054515838623046875</LongitudeDegrees>
            </Position>
            <AltitudeMeters>439.600006103515625</AltitudeMeters>
            <DistanceMeters>841.45691477318</DistanceMeters>
          </Trackpoint>
          <Trackpoint>
            <Time>2021-08-09T07:49:48.000Z</Time>
            <Position>
              <LatitudeDegrees>42.91881660930812358856201171875</LatitudeDegrees>
              <LongitudeDegrees>-1.83325834572315216064453125</LongitudeDegrees>
            </Position>
            <AltitudeMeters>439.600006103515625</AltitudeMeters>
            <DistanceMeters>845.99437819366</DistanceMeters>
          </Trackpoint>
          <Trackpoint>
            <Time>2021-08-09T07:49:49.000Z</Time>
            <Position>
              <LatitudeDegrees>42.9188155196607112884521484375</LatitudeDegrees>
              <LongitudeDegrees>-1.83323018252849578857421875</LongitudeDegrees>
            </Position>
            <AltitudeMeters>439.600006103515625</AltitudeMeters>
            <DistanceMeters>848.29276778634</DistanceMeters>
          </Trackpoint>
          <Trackpoint>
            <Time>2021-08-09T07:49:52.000Z</Time>
            <Position>
              <LatitudeDegrees>42.91882465593516826629638671875</LatitudeDegrees>
              <LongitudeDegrees>-1.8331267498433589935302734375</LongitudeDegrees>
            </Position>
            <AltitudeMeters>439.600006103515625</AltitudeMeters>
            <DistanceMeters>856.78424353587</DistanceMeters>
          </Trackpoint>
          <Trackpoint>
            <Time>2021-08-09T07:49:59.000Z</Time>
            <Position>
              <LatitudeDegrees>42.91884276084601879119873046875</LatitudeDegrees>
              <LongitudeDegrees>-1.83286112733185291290283203125</LongitudeDegrees>
            </Position>
            <AltitudeMeters>440</AltitudeMeters>
            <DistanceMeters>878.5281333087</DistanceMeters>
          </Trackpoint>
          <Trackpoint>
            <Time>2021-08-09T07:50:06.000Z</Time>
            <Position>
              <LatitudeDegrees>42.9188587702810764312744140625</LatitudeDegrees>
              <LongitudeDegrees>-1.83257513679563999176025390625</LongitudeDegrees>
            </Position>
            <AltitudeMeters>441</AltitudeMeters>
            <DistanceMeters>901.90663640123</DistanceMeters>
          </Trackpoint>
          <Trackpoint>
            <Time>2021-08-09T07:50:07.000Z</Time>
            <Position>
              <LatitudeDegrees>42.918864302337169647216796875</LatitudeDegrees>
              <LongitudeDegrees>-1.832531131803989410400390625</LongitudeDegrees>
            </Position>
            <AltitudeMeters>441.20001220703125</AltitudeMeters>
            <DistanceMeters>905.54753632017</DistanceMeters>
          </Trackpoint>
          <Trackpoint>
            <Time>2021-08-09T07:50:12.000Z</Time>
            <Position>
              <LatitudeDegrees>42.91888014413416385650634765625</LatitudeDegrees>
              <LongitudeDegrees>-1.83232854120433330535888671875</LongitudeDegrees>
            </Position>
            <AltitudeMeters>441.600006103515625</AltitudeMeters>
            <DistanceMeters>922.15411738307</DistanceMeters>
          </Trackpoint>
          <Trackpoint>
            <Time>2021-08-09T07:50:14.000Z</Time>
            <Position>
              <LatitudeDegrees>42.91888542473316192626953125</LatitudeDegrees>
              <LongitudeDegrees>-1.83225142769515514373779296875</LongitudeDegrees>
            </Position>
            <AltitudeMeters>441.79998779296875</AltitudeMeters>
            <DistanceMeters>928.46749662272</DistanceMeters>
          </Trackpoint>
          <Trackpoint>
            <Time>2021-08-09T07:50:15.000Z</Time>
            <Position>
              <LatitudeDegrees>42.91888802312314510345458984375</LatitudeDegrees>
              <LongitudeDegrees>-1.83221370913088321685791015625</LongitudeDegrees>
            </Position>
            <AltitudeMeters>441.79998779296875</AltitudeMeters>
            <DistanceMeters>931.55549933075</DistanceMeters>
          </Trackpoint>
          <Trackpoint>
            <Time>2021-08-09T07:50:16.000Z</Time>
            <Position>
              <LatitudeDegrees>42.9188892804086208343505859375</LatitudeDegrees>
              <LongitudeDegrees>-1.8321754038333892822265625</LongitudeDegrees>
            </Position>
            <AltitudeMeters>442.20001220703125</AltitudeMeters>
            <DistanceMeters>934.68128606569</DistanceMeters>
          </Trackpoint>
          <Trackpoint>
            <Time>2021-08-09T07:50:17.000Z</Time>
            <Position>
              <LatitudeDegrees>42.91889422573149204254150390625</LatitudeDegrees>
              <LongitudeDegrees>-1.83213424868881702423095703125</LongitudeDegrees>
            </Position>
            <AltitudeMeters>442.20001220703125</AltitudeMeters>
            <DistanceMeters>938.07973685566</DistanceMeters>
          </Trackpoint>
          <Trackpoint>
            <Time>2021-08-09T07:50:19.000Z</Time>
            <Position>
              <LatitudeDegrees>42.91892808862030506134033203125</LatitudeDegrees>
              <LongitudeDegrees>-1.832076497375965118408203125</LongitudeDegrees>
            </Position>
            <AltitudeMeters>442.399993896484375</AltitudeMeters>
            <DistanceMeters>944.11000366898</DistanceMeters>
          </Trackpoint>
          <Trackpoint>
            <Time>2021-08-09T07:50:23.000Z</Time>
            <Position>
              <LatitudeDegrees>42.919056750833988189697265625</LatitudeDegrees>
              <LongitudeDegrees>-1.83207037858664989471435546875</LongitudeDegrees>
            </Position>
            <AltitudeMeters>442.79998779296875</AltitudeMeters>
            <DistanceMeters>958.43888527594</DistanceMeters>
          </Trackpoint>
          <Trackpoint>
            <Time>2021-08-09T07:50:24.000Z</Time>
            <Position>
              <LatitudeDegrees>42.9190914519131183624267578125</LatitudeDegrees>
              <LongitudeDegrees>-1.8320723064243793487548828125</LongitudeDegrees>
            </Position>
            <AltitudeMeters>442.79998779296875</AltitudeMeters>
            <DistanceMeters>962.30590048035</DistanceMeters>
          </Trackpoint>
          <Trackpoint>
            <Time>2021-08-09T07:50:25.000Z</Time>
            <Position>
              <LatitudeDegrees>42.91912875138223171234130859375</LatitudeDegrees>
              <LongitudeDegrees>-1.83207213878631591796875</LongitudeDegrees>
            </Position>
            <AltitudeMeters>443</AltitudeMeters>
            <DistanceMeters>966.45673001854</DistanceMeters>
          </Trackpoint>
          <Trackpoint>
            <Time>2021-08-09T07:50:26.000Z</Time>
            <Position>
              <LatitudeDegrees>42.91916294954717159271240234375</LatitudeDegrees>
              <LongitudeDegrees>-1.832073144614696502685546875</LongitudeDegrees>
            </Position>
            <AltitudeMeters>443</AltitudeMeters>
            <DistanceMeters>970.26373313024</DistanceMeters>
          </Trackpoint>
          <Trackpoint>
            <Time>2021-08-09T07:50:27.000Z</Time>
            <Position>
              <LatitudeDegrees>42.9191990755498409271240234375</LatitudeDegrees>
              <LongitudeDegrees>-1.8320743180811405181884765625</LongitudeDegrees>
            </Position>
            <AltitudeMeters>443</AltitudeMeters>
            <DistanceMeters>974.28640599633</DistanceMeters>
          </Trackpoint>
          <Trackpoint>
            <Time>2021-08-09T07:50:28.000Z</Time>
            <Position>
              <LatitudeDegrees>42.9192362911999225616455078125</LatitudeDegrees>
              <LongitudeDegrees>-1.832080520689487457275390625</LongitudeDegrees>
            </Position>
            <AltitudeMeters>443</AltitudeMeters>
            <DistanceMeters>978.46001564032</DistanceMeters>
          </Trackpoint>
          <Trackpoint>
            <Time>2021-08-09T07:50:29.000Z</Time>
            <Position>
              <LatitudeDegrees>42.919273339211940765380859375</LatitudeDegrees>
              <LongitudeDegrees>-1.83208781294524669647216796875</LongitudeDegrees>
            </Position>
            <AltitudeMeters>443</AltitudeMeters>
            <DistanceMeters>982.62604575606</DistanceMeters>
          </Trackpoint>
          <Trackpoint>
            <Time>2021-08-09T07:50:33.000Z</Time>
            <Position>
              <LatitudeDegrees>42.91942094452679157257080078125</LatitudeDegrees>
              <LongitudeDegrees>-1.83211681433022022247314453125</LongitudeDegrees>
            </Position>
            <AltitudeMeters>443.20001220703125</AltitudeMeters>
            <DistanceMeters>999.22419632258</DistanceMeters>
          </Trackpoint>
          <Trackpoint>
            <Time>2021-08-09T07:50:38.000Z</Time>
            <Position>
              <LatitudeDegrees>42.919602580368518829345703125</LatitudeDegrees>
              <LongitudeDegrees>-1.83216643519699573516845703125</LongitudeDegrees>
            </Position>
            <AltitudeMeters>443</AltitudeMeters>
            <DistanceMeters>1019.8412707603</DistanceMeters>
          </Trackpoint>
          <Trackpoint>
            <Time>2021-08-09T07:50:42.000Z</Time>
            <Position>
              <LatitudeDegrees>42.91976074688136577606201171875</LatitudeDegrees>
              <LongitudeDegrees>-1.83218068443238735198974609375</LongitudeDegrees>
            </Position>
            <AltitudeMeters>443</AltitudeMeters>
            <DistanceMeters>1037.4840238058</DistanceMeters>
          </Trackpoint>
          <Trackpoint>
            <Time>2021-08-09T07:50:43.000Z</Time>
            <Position>
              <LatitudeDegrees>42.9197928495705127716064453125</LatitudeDegrees>
              <LongitudeDegrees>-1.83218588121235370635986328125</LongitudeDegrees>
            </Position>
            <AltitudeMeters>443</AltitudeMeters>
            <DistanceMeters>1041.0825137141</DistanceMeters>
          </Trackpoint>
          <Trackpoint>
            <Time>2021-08-09T07:50:44.000Z</Time>
            <Position>
              <LatitudeDegrees>42.91982327587902545928955078125</LatitudeDegrees>
              <LongitudeDegrees>-1.832190491259098052978515625</LongitudeDegrees>
            </Position>
            <AltitudeMeters>443</AltitudeMeters>
            <DistanceMeters>1044.4902517186</DistanceMeters>
          </Trackpoint>
          <Trackpoint>
            <Time>2021-08-09T07:50:51.000Z</Time>
            <Position>
              <LatitudeDegrees>42.92011731304228305816650390625</LatitudeDegrees>
              <LongitudeDegrees>-1.83222326450049877166748046875</LongitudeDegrees>
            </Position>
            <AltitudeMeters>443</AltitudeMeters>
            <DistanceMeters>1077.3259350118</DistanceMeters>
          </Trackpoint>
          <Trackpoint>
            <Time>2021-08-09T07:50:53.000Z</Time>
            <Position>
              <LatitudeDegrees>42.9201914928853511810302734375</LatitudeDegrees>
              <LongitudeDegrees>-1.83222946710884571075439453125</LongitudeDegrees>
            </Position>
            <AltitudeMeters>443</AltitudeMeters>
            <DistanceMeters>1085.5981728766</DistanceMeters>
          </Trackpoint>
          <Trackpoint>
            <Time>2021-08-09T07:50:56.000Z</Time>
            <Position>
              <LatitudeDegrees>42.9203061573207378387451171875</LatitudeDegrees>
              <LongitudeDegrees>-1.83223533444106578826904296875</LongitudeDegrees>
            </Position>
            <AltitudeMeters>442.79998779296875</AltitudeMeters>
            <DistanceMeters>1098.3696360194</DistanceMeters>
          </Trackpoint>
          <Trackpoint>
            <Time>2021-08-09T07:50:57.000Z</Time>
            <Position>
              <LatitudeDegrees>42.9203416965901851654052734375</LatitudeDegrees>
              <LongitudeDegrees>-1.8322386033833026885986328125</LongitudeDegrees>
            </Position>
            <AltitudeMeters>442.79998779296875</AltitudeMeters>
            <DistanceMeters>1102.3357919878</DistanceMeters>
          </Trackpoint>
          <Trackpoint>
            <Time>2021-08-09T07:50:58.000Z</Time>
            <Position>
              <LatitudeDegrees>42.9203747212886810302734375</LatitudeDegrees>
              <LongitudeDegrees>-1.83224338106811046600341796875</LongitudeDegrees>
            </Position>
            <AltitudeMeters>442.79998779296875</AltitudeMeters>
            <DistanceMeters>1106.0332959751</DistanceMeters>
          </Trackpoint>
          <Trackpoint>
            <Time>2021-08-09T07:50:59.000Z</Time>
            <Position>
              <LatitudeDegrees>42.92040447704493999481201171875</LatitudeDegrees>
              <LongitudeDegrees>-1.83224983513355255126953125</LongitudeDegrees>
            </Position>
            <AltitudeMeters>442.79998779296875</AltitudeMeters>
            <DistanceMeters>1109.3876178513</DistanceMeters>
          </Trackpoint>
          <Trackpoint>
            <Time>2021-08-09T07:51:00.000Z</Time>
            <Position>
              <LatitudeDegrees>42.920438759028911590576171875</LatitudeDegrees>
              <LongitudeDegrees>-1.8322493322193622589111328125</LongitudeDegrees>
            </Position>
            <AltitudeMeters>442.79998779296875</AltitudeMeters>
            <DistanceMeters>1113.2029138067</DistanceMeters>
          </Trackpoint>
          <Trackpoint>
            <Time>2021-08-09T07:51:01.000Z</Time>
            <Position>
              <LatitudeDegrees>42.92047471739351749420166015625</LatitudeDegrees>
              <LongitudeDegrees>-1.8322456441819667816162109375</LongitudeDegrees>
            </Position>
            <AltitudeMeters>442.79998779296875</AltitudeMeters>
            <DistanceMeters>1117.2165974485</DistanceMeters>
          </Trackpoint>
          <Trackpoint>
            <Time>2021-08-09T07:51:02.000Z</Time>
            <Position>
              <LatitudeDegrees>42.9205056466162204742431640625</LatitudeDegrees>
              <LongitudeDegrees>-1.83224237523972988128662109375</LongitudeDegrees>
            </Position>
            <AltitudeMeters>442.79998779296875</AltitudeMeters>
            <DistanceMeters>1120.6690894334</DistanceMeters>
          </Trackpoint>
          <Trackpoint>
            <Time>2021-08-09T07:51:03.000Z</Time>
            <Position>
              <LatitudeDegrees>42.92053892277181148529052734375</LatitudeDegrees>
              <LongitudeDegrees>-1.8322396092116832733154296875</LongitudeDegrees>
            </Position>
            <AltitudeMeters>442.79998779296875</AltitudeMeters>
            <DistanceMeters>1124.378784367</DistanceMeters>
          </Trackpoint>
          <Trackpoint>
            <Time>2021-08-09T07:51:04.000Z</Time>
            <Position>
              <LatitudeDegrees>42.9205743782222270965576171875</LatitudeDegrees>
              <LongitudeDegrees>-1.83223717845976352691650390625</LongitudeDegrees>
            </Position>
            <AltitudeMeters>442.79998779296875</AltitudeMeters>
            <DistanceMeters>1128.3289707038</DistanceMeters>
          </Trackpoint>
          <Trackpoint>
            <Time>2021-08-09T07:51:05.000Z</Time>
            <Position>
              <LatitudeDegrees>42.92061201296746730804443359375</LatitudeDegrees>
              <LongitudeDegrees>-1.83224438689649105072021484375</LongitudeDegrees>
            </Position>
            <AltitudeMeters>442.79998779296875</AltitudeMeters>
            <DistanceMeters>1132.5573925559</DistanceMeters>
          </Trackpoint>
          <Trackpoint>
            <Time>2021-08-09T07:51:09.000Z</Time>
            <Position>
              <LatitudeDegrees>42.9207617975771427154541015625</LatitudeDegrees>
              <LongitudeDegrees>-1.8322607316076755523681640625</LongitudeDegrees>
            </Position>
            <AltitudeMeters>442.600006103515625</AltitudeMeters>
            <DistanceMeters>1149.2818243206</DistanceMeters>
          </Trackpoint>
          <Trackpoint>
            <Time>2021-08-09T07:51:18.000Z</Time>
            <Position>
              <LatitudeDegrees>42.92110453359782695770263671875</LatitudeDegrees>
              <LongitudeDegrees>-1.83230875991284847259521484375</LongitudeDegrees>
            </Position>
            <AltitudeMeters>442.399993896484375</AltitudeMeters>
            <DistanceMeters>1187.6294307495</DistanceMeters>
          </Trackpoint>
          <Trackpoint>
            <Time>2021-08-09T07:51:23.000Z</Time>
            <Position>
              <LatitudeDegrees>42.92129195295274257659912109375</LatitudeDegrees>
              <LongitudeDegrees>-1.83232937939465045928955078125</LongitudeDegrees>
            </Position>
            <AltitudeMeters>442.20001220703125</AltitudeMeters>
            <DistanceMeters>1208.5573252371</DistanceMeters>
          </Trackpoint>
          <Trackpoint>
            <Time>2021-08-09T07:51:24.000Z</Time>
            <Position>
              <LatitudeDegrees>42.92132598347961902618408203125</LatitudeDegrees>
              <LongitudeDegrees>-1.8323321454226970672607421875</LongitudeDegrees>
            </Position>
            <AltitudeMeters>442.20001220703125</AltitudeMeters>
            <DistanceMeters>1212.3512601142</DistanceMeters>
          </Trackpoint>
          <Trackpoint>
            <Time>2021-08-09T07:51:26.000Z</Time>
            <Position>
              <LatitudeDegrees>42.92139454744756221771240234375</LatitudeDegrees>
              <LongitudeDegrees>-1.83233943767845630645751953125</LongitudeDegrees>
            </Position>
            <AltitudeMeters>442.20001220703125</AltitudeMeters>
            <DistanceMeters>1220.0054835214</DistanceMeters>
          </Trackpoint>
          <Trackpoint>
            <Time>2021-08-09T07:51:29.000Z</Time>
            <Position>
              <LatitudeDegrees>42.92150116525590419769287109375</LatitudeDegrees>
              <LongitudeDegrees>-1.83235980570316314697265625</LongitudeDegrees>
            </Position>
            <AltitudeMeters>442</AltitudeMeters>
            <DistanceMeters>1231.9878962776</DistanceMeters>
          </Trackpoint>
          <Trackpoint>
            <Time>2021-08-09T07:51:30.000Z</Time>
            <Position>
              <LatitudeDegrees>42.9215352796018123626708984375</LatitudeDegrees>
              <LongitudeDegrees>-1.83236190117895603179931640625</LongitudeDegrees>
            </Position>
            <AltitudeMeters>442</AltitudeMeters>
            <DistanceMeters>1235.7889648524</DistanceMeters>
          </Trackpoint>
          <Trackpoint>
            <Time>2021-08-09T07:51:31.000Z</Time>
            <Position>
              <LatitudeDegrees>42.92156822048127651214599609375</LatitudeDegrees>
              <LongitudeDegrees>-1.8323619849979877471923828125</LongitudeDegrees>
            </Position>
            <AltitudeMeters>442</AltitudeMeters>
            <DistanceMeters>1239.4558141573</DistanceMeters>
          </Trackpoint>
          <Trackpoint>
            <Time>2021-08-09T07:51:32.000Z</Time>
            <Position>
              <LatitudeDegrees>42.9216006584465503692626953125</LatitudeDegrees>
              <LongitudeDegrees>-1.8323596380650997161865234375</LongitudeDegrees>
            </Position>
            <AltitudeMeters>442</AltitudeMeters>
            <DistanceMeters>1243.0718272506</DistanceMeters>
          </Trackpoint>
          <Trackpoint>
            <Time>2021-08-09T07:51:33.000Z</Time>
            <Position>
              <LatitudeDegrees>42.9216298274695873260498046875</LatitudeDegrees>
              <LongitudeDegrees>-1.83235586620867252349853515625</LongitudeDegrees>
            </Position>
            <AltitudeMeters>442</AltitudeMeters>
            <DistanceMeters>1246.3333345787</DistanceMeters>
          </Trackpoint>
          <Trackpoint>
            <Time>2021-08-09T07:51:34.000Z</Time>
            <Position>
              <LatitudeDegrees>42.9216563142836093902587890625</LatitudeDegrees>
              <LongitudeDegrees>-1.8323411978781223297119140625</LongitudeDegrees>
            </Position>
            <AltitudeMeters>442</AltitudeMeters>
            <DistanceMeters>1249.5149561297</DistanceMeters>
          </Trackpoint>
          <Trackpoint>
            <Time>2021-08-09T07:51:35.000Z</Time>
            <Position>
              <LatitudeDegrees>42.921671569347381591796875</LatitudeDegrees>
              <LongitudeDegrees>-1.83232636190950870513916015625</LongitudeDegrees>
            </Position>
            <AltitudeMeters>442</AltitudeMeters>
            <DistanceMeters>1251.5990546805</DistanceMeters>
          </Trackpoint>
          <Trackpoint>
            <Time>2021-08-09T07:51:36.000Z</Time>
            <Position>
              <LatitudeDegrees>42.92168187908828258514404296875</LatitudeDegrees>
              <LongitudeDegrees>-1.8323073349893093109130859375</LongitudeDegrees>
            </Position>
            <AltitudeMeters>442</AltitudeMeters>
            <DistanceMeters>1253.5325622827</DistanceMeters>
          </Trackpoint>
          <Trackpoint>
            <Time>2021-08-09T07:51:37.000Z</Time>
            <Position>
              <LatitudeDegrees>42.921695373952388763427734375</LatitudeDegrees>
              <LongitudeDegrees>-1.832274980843067169189453125</LongitudeDegrees>
            </Position>
            <AltitudeMeters>442</AltitudeMeters>
            <DistanceMeters>1256.5674721616</DistanceMeters>
          </Trackpoint>
          <Trackpoint>
            <Time>2021-08-09T07:51:38.000Z</Time>
            <Position>
              <LatitudeDegrees>42.921705432236194610595703125</LatitudeDegrees>
              <LongitudeDegrees>-1.83223382569849491119384765625</LongitudeDegrees>
            </Position>
            <AltitudeMeters>442</AltitudeMeters>
            <DistanceMeters>1260.1026702887</DistanceMeters>
          </Trackpoint>
          <Trackpoint>
            <Time>2021-08-09T07:51:39.000Z</Time>
            <Position>
              <LatitudeDegrees>42.92171641252934932708740234375</LatitudeDegrees>
              <LongitudeDegrees>-1.83219376020133495330810546875</LongitudeDegrees>
            </Position>
            <AltitudeMeters>442</AltitudeMeters>
            <DistanceMeters>1263.5889982844</DistanceMeters>
          </Trackpoint>
          <Trackpoint>
            <Time>2021-08-09T07:51:40.000Z</Time>
            <Position>
              <LatitudeDegrees>42.92172663845121860504150390625</LatitudeDegrees>
              <LongitudeDegrees>-1.83215520344674587249755859375</LongitudeDegrees>
            </Position>
            <AltitudeMeters>442</AltitudeMeters>
            <DistanceMeters>1266.9298326839</DistanceMeters>
          </Trackpoint>
          <Trackpoint>
            <Time>2021-08-09T07:51:41.000Z</Time>
            <Position>
              <LatitudeDegrees>42.92173485271632671356201171875</LatitudeDegrees>
              <LongitudeDegrees>-1.8321155570447444915771484375</LongitudeDegrees>
            </Position>
            <AltitudeMeters>442.20001220703125</AltitudeMeters>
            <DistanceMeters>1270.2868455528</DistanceMeters>
          </Trackpoint>
          <Trackpoint>
            <Time>2021-08-09T07:51:48.000Z</Time>
            <Position>
              <LatitudeDegrees>42.92174356989562511444091796875</LatitudeDegrees>
              <LongitudeDegrees>-1.83184205554425716400146484375</LongitudeDegrees>
            </Position>
            <AltitudeMeters>443</AltitudeMeters>
            <DistanceMeters>1292.5993123485</DistanceMeters>
          </Trackpoint>
          <Trackpoint>
            <Time>2021-08-09T07:51:51.000Z</Time>
            <Position>
              <LatitudeDegrees>42.9217589087784290313720703125</LatitudeDegrees>
              <LongitudeDegrees>-1.83170492760837078094482421875</LongitudeDegrees>
            </Position>
            <AltitudeMeters>443.399993896484375</AltitudeMeters>
            <DistanceMeters>1303.9054948227</DistanceMeters>
          </Trackpoint>
          <Trackpoint>
            <Time>2021-08-09T07:51:52.000Z</Time>
            <Position>
              <LatitudeDegrees>42.9217669554054737091064453125</LatitudeDegrees>
              <LongitudeDegrees>-1.8316642753779888153076171875</LongitudeDegrees>
            </Position>
            <AltitudeMeters>443.600006103515625</AltitudeMeters>
            <DistanceMeters>1307.33699882</DistanceMeters>
          </Trackpoint>
          <Trackpoint>
            <Time>2021-08-09T07:51:53.000Z</Time>
            <Position>
              <LatitudeDegrees>42.92177148163318634033203125</LatitudeDegrees>
              <LongitudeDegrees>-1.83162345550954341888427734375</LongitudeDegrees>
            </Position>
            <AltitudeMeters>443.79998779296875</AltitudeMeters>
            <DistanceMeters>1310.7020717554</DistanceMeters>
          </Trackpoint>
          <Trackpoint>
            <Time>2021-08-09T07:51:54.000Z</Time>
            <Position>
              <LatitudeDegrees>42.92177760042250156402587890625</LatitudeDegrees>
              <LongitudeDegrees>-1.8315828032791614532470703125</LongitudeDegrees>
            </Position>
            <AltitudeMeters>443.79998779296875</AltitudeMeters>
            <DistanceMeters>1314.0832071827</DistanceMeters>
          </Trackpoint>
          <Trackpoint>
            <Time>2021-08-09T07:51:58.000Z</Time>
            <Position>
              <LatitudeDegrees>42.9218152351677417755126953125</LatitudeDegrees>
              <LongitudeDegrees>-1.831426732242107391357421875</LongitudeDegrees>
            </Position>
            <AltitudeMeters>444.399993896484375</AltitudeMeters>
            <DistanceMeters>1327.4752327298</DistanceMeters>
          </Trackpoint>
          <Trackpoint>
            <Time>2021-08-09T07:52:01.000Z</Time>
            <Position>
              <LatitudeDegrees>42.921830825507640838623046875</LatitudeDegrees>
              <LongitudeDegrees>-1.83131500147283077239990234375</LongitudeDegrees>
            </Position>
            <AltitudeMeters>444.79998779296875</AltitudeMeters>
            <DistanceMeters>1336.7450874989</DistanceMeters>
          </Trackpoint>
          <Trackpoint>
            <Time>2021-08-09T07:52:02.000Z</Time>
            <Position>
              <LatitudeDegrees>42.92182646691799163818359375</LatitudeDegrees>
              <LongitudeDegrees>-1.83128750883042812347412109375</LongitudeDegrees>
            </Position>
            <AltitudeMeters>445</AltitudeMeters>
            <DistanceMeters>1339.03757621</DistanceMeters>
          </Trackpoint>
          <Trackpoint>
            <Time>2021-08-09T07:52:03.000Z</Time>
            <Position>
              <LatitudeDegrees>42.9218159057199954986572265625</LatitudeDegrees>
              <LongitudeDegrees>-1.8312589265406131744384765625</LongitudeDegrees>
            </Position>
            <AltitudeMeters>445</AltitudeMeters>
            <DistanceMeters>1341.6469205029</DistanceMeters>
          </Trackpoint>
          <Trackpoint>
            <Time>2021-08-09T07:52:04.000Z</Time>
            <Position>
              <LatitudeDegrees>42.921807356178760528564453125</LatitudeDegrees>
              <LongitudeDegrees>-1.831226237118244171142578125</LongitudeDegrees>
            </Position>
            <AltitudeMeters>445.399993896484375</AltitudeMeters>
            <DistanceMeters>1344.4754621287</DistanceMeters>
          </Trackpoint>
          <Trackpoint>
            <Time>2021-08-09T07:52:05.000Z</Time>
            <Position>
              <LatitudeDegrees>42.9218031652271747589111328125</LatitudeDegrees>
              <LongitudeDegrees>-1.83119178749620914459228515625</LongitudeDegrees>
            </Position>
            <AltitudeMeters>445.399993896484375</AltitudeMeters>
            <DistanceMeters>1347.3199213909</DistanceMeters>
          </Trackpoint>
          <Trackpoint>
            <Time>2021-08-09T07:52:06.000Z</Time>
            <Position>
              <LatitudeDegrees>42.921802662312984466552734375</LatitudeDegrees>
              <LongitudeDegrees>-1.83115842752158641815185546875</LongitudeDegrees>
            </Position>
            <AltitudeMeters>445.600006103515625</AltitudeMeters>
            <DistanceMeters>1350.0394126314</DistanceMeters>
          </Trackpoint>
          <Trackpoint>
            <Time>2021-08-09T07:52:07.000Z</Time>
            <Position>
              <LatitudeDegrees>42.92180442251265048980712890625</LatitudeDegrees>
              <LongitudeDegrees>-1.8311258219182491302490234375</LongitudeDegrees>
            </Position>
            <AltitudeMeters>445.79998779296875</AltitudeMeters>
            <DistanceMeters>1352.7035522834</DistanceMeters>
          </Trackpoint>
          <Trackpoint>
            <Time>2021-08-09T07:52:08.000Z</Time>
            <Position>
              <LatitudeDegrees>42.92181037366390228271484375</LatitudeDegrees>
              <LongitudeDegrees>-1.83109640143811702728271484375</LongitudeDegrees>
            </Position>
            <AltitudeMeters>445.79998779296875</AltitudeMeters>
            <DistanceMeters>1355.1924541377</DistanceMeters>
          </Trackpoint>
          <Trackpoint>
            <Time>2021-08-09T07:52:09.000Z</Time>
            <Position>
              <LatitudeDegrees>42.9218155704438686370849609375</LatitudeDegrees>
              <LongitudeDegrees>-1.83107159100472927093505859375</LongitudeDegrees>
            </Position>
            <AltitudeMeters>446</AltitudeMeters>
            <DistanceMeters>1357.2959601295</DistanceMeters>
          </Trackpoint>
          <Trackpoint>
            <Time>2021-08-09T07:52:10.000Z</Time>
            <Position>
              <LatitudeDegrees>42.92182244360446929931640625</LatitudeDegrees>
              <LongitudeDegrees>-1.83104812167584896087646484375</LongitudeDegrees>
            </Position>
            <AltitudeMeters>446</AltitudeMeters>
            <DistanceMeters>1359.3538974104</DistanceMeters>
          </Trackpoint>
          <Trackpoint>
            <Time>2021-08-09T07:52:11.000Z</Time>
            <Position>
              <LatitudeDegrees>42.92182873003184795379638671875</LatitudeDegrees>
              <LongitudeDegrees>-1.8310265801846981048583984375</LongitudeDegrees>
            </Position>
            <AltitudeMeters>446.20001220703125</AltitudeMeters>
            <DistanceMeters>1361.2449051502</DistanceMeters>
          </Trackpoint>
          <Trackpoint>
            <Time>2021-08-09T07:52:12.000Z</Time>
            <Position>
              <LatitudeDegrees>42.9218360222876071929931640625</LatitudeDegrees>
              <LongitudeDegrees>-1.831004619598388671875</LongitudeDegrees>
            </Position>
            <AltitudeMeters>446.399993896484375</AltitudeMeters>
            <DistanceMeters>1363.2108331036</DistanceMeters>
          </Trackpoint>
          <Trackpoint>
            <Time>2021-08-09T07:52:13.000Z</Time>
            <Position>
              <LatitudeDegrees>42.921841554343700408935546875</LatitudeDegrees>
              <LongitudeDegrees>-1.8309816531836986541748046875</LongitudeDegrees>
            </Position>
            <AltitudeMeters>446.600006103515625</AltitudeMeters>
            <DistanceMeters>1365.1813489931</DistanceMeters>
          </Trackpoint>
          <Trackpoint>
            <Time>2021-08-09T07:52:14.000Z</Time>
            <Position>
              <LatitudeDegrees>42.92185236699879169464111328125</LatitudeDegrees>
              <LongitudeDegrees>-1.8309625424444675445556640625</LongitudeDegrees>
            </Position>
            <AltitudeMeters>446.79998779296875</AltitudeMeters>
            <DistanceMeters>1367.1495722514</DistanceMeters>
          </Trackpoint>
          <Trackpoint>
            <Time>2021-08-09T07:52:15.000Z</Time>
            <Position>
              <LatitudeDegrees>42.921867705881595611572265625</LatitudeDegrees>
              <LongitudeDegrees>-1.83094368316233158111572265625</LongitudeDegrees>
            </Position>
            <AltitudeMeters>447</AltitudeMeters>
            <DistanceMeters>1369.4459965683</DistanceMeters>
          </Trackpoint>
          <Trackpoint>
            <Time>2021-08-09T07:52:16.000Z</Time>
            <Position>
              <LatitudeDegrees>42.921884469687938690185546875</LatitudeDegrees>
              <LongitudeDegrees>-1.83092339895665645599365234375</LongitudeDegrees>
            </Position>
            <AltitudeMeters>447</AltitudeMeters>
            <DistanceMeters>1371.9385239189</DistanceMeters>
          </Trackpoint>
          <Trackpoint>
            <Time>2021-08-09T07:52:17.000Z</Time>
            <Position>
              <LatitudeDegrees>42.92190483771264553070068359375</LatitudeDegrees>
              <LongitudeDegrees>-1.83090747334063053131103515625</LongitudeDegrees>
            </Position>
            <AltitudeMeters>447.20001220703125</AltitudeMeters>
            <DistanceMeters>1374.5530540618</DistanceMeters>
          </Trackpoint>
          <Trackpoint>
            <Time>2021-08-09T07:52:18.000Z</Time>
            <Position>
              <LatitudeDegrees>42.9219277203083038330078125</LatitudeDegrees>
              <LongitudeDegrees>-1.83089909143745899200439453125</LongitudeDegrees>
            </Position>
            <AltitudeMeters>447.20001220703125</AltitudeMeters>
            <DistanceMeters>1377.1899383713</DistanceMeters>
          </Trackpoint>
          <Trackpoint>
            <Time>2021-08-09T07:52:19.000Z</Time>
            <Position>
              <LatitudeDegrees>42.9219537042081356048583984375</LatitudeDegrees>
              <LongitudeDegrees>-1.83089238591492176055908203125</LongitudeDegrees>
            </Position>
            <AltitudeMeters>447.399993896484375</AltitudeMeters>
            <DistanceMeters>1380.1326995424</DistanceMeters>
          </Trackpoint>
          <Trackpoint>
            <Time>2021-08-09T07:52:20.000Z</Time>
            <Position>
              <LatitudeDegrees>42.921982705593109130859375</LatitudeDegrees>
              <LongitudeDegrees>-1.8308924697339534759521484375</LongitudeDegrees>
            </Position>
            <AltitudeMeters>447.399993896484375</AltitudeMeters>
            <DistanceMeters>1383.3608117177</DistanceMeters>
          </Trackpoint>
          <Trackpoint>
            <Time>2021-08-09T07:52:21.000Z</Time>
            <Position>
              <LatitudeDegrees>42.922008521854877471923828125</LatitudeDegrees>
              <LongitudeDegrees>-1.83089707978069782257080078125</LongitudeDegrees>
            </Position>
            <AltitudeMeters>447.399993896484375</AltitudeMeters>
            <DistanceMeters>1386.258737026</DistanceMeters>
          </Trackpoint>
          <Trackpoint>
            <Time>2021-08-09T07:52:22.000Z</Time>
            <Position>
              <LatitudeDegrees>42.92203542776405811309814453125</LatitudeDegrees>
              <LongitudeDegrees>-1.83090328238904476165771484375</LongitudeDegrees>
            </Position>
            <AltitudeMeters>447.399993896484375</AltitudeMeters>
            <DistanceMeters>1389.2951342414</DistanceMeters>
          </Trackpoint>
          <Trackpoint>
            <Time>2021-08-09T07:52:23.000Z</Time>
            <Position>
              <LatitudeDegrees>42.9220663569867610931396484375</LatitudeDegrees>
              <LongitudeDegrees>-1.83091007173061370849609375</LongitudeDegrees>
            </Position>
            <AltitudeMeters>447.399993896484375</AltitudeMeters>
            <DistanceMeters>1392.7814622371</DistanceMeters>
          </Trackpoint>
          <Trackpoint>
            <Time>2021-08-09T07:52:24.000Z</Time>
            <Position>
              <LatitudeDegrees>42.922098375856876373291015625</LatitudeDegrees>
              <LongitudeDegrees>-1.8309072218835353851318359375</LongitudeDegrees>
            </Position>
            <AltitudeMeters>447.399993896484375</AltitudeMeters>
            <DistanceMeters>1396.3522419753</DistanceMeters>
          </Trackpoint>
          <Trackpoint>
            <Time>2021-08-09T07:52:25.000Z</Time>
            <Position>
              <LatitudeDegrees>42.9221277125179767608642578125</LatitudeDegrees>
              <LongitudeDegrees>-1.83089288882911205291748046875</LongitudeDegrees>
            </Position>
            <AltitudeMeters>447.399993896484375</AltitudeMeters>
            <DistanceMeters>1399.8203916006</DistanceMeters>
          </Trackpoint>
          <Trackpoint>
            <Time>2021-08-09T07:52:26.000Z</Time>
            <Position>
              <LatitudeDegrees>42.922155372798442840576171875</LatitudeDegrees>
              <LongitudeDegrees>-1.830872185528278350830078125</LongitudeDegrees>
            </Position>
            <AltitudeMeters>447.20001220703125</AltitudeMeters>
            <DistanceMeters>1403.329953435</DistanceMeters>
          </Trackpoint>
          <Trackpoint>
            <Time>2021-08-09T07:52:27.000Z</Time>
            <Position>
              <LatitudeDegrees>42.922175489366054534912109375</LatitudeDegrees>
              <LongitudeDegrees>-1.8308530747890472412109375</LongitudeDegrees>
            </Position>
            <AltitudeMeters>447</AltitudeMeters>
            <DistanceMeters>1406.0577332996</DistanceMeters>
          </Trackpoint>
          <Trackpoint>
            <Time>2021-08-09T07:52:28.000Z</Time>
            <Position>
              <LatitudeDegrees>42.92219351045787334442138671875</LatitudeDegrees>
              <LongitudeDegrees>-1.830840669572353363037109375</LongitudeDegrees>
            </Position>
            <AltitudeMeters>447</AltitudeMeters>
            <DistanceMeters>1408.3024565912</DistanceMeters>
          </Trackpoint>
          <Trackpoint>
            <Time>2021-08-09T07:52:29.000Z</Time>
            <Position>
              <LatitudeDegrees>42.9222098551690578460693359375</LatitudeDegrees>
              <LongitudeDegrees>-1.8308423459529876708984375</LongitudeDegrees>
            </Position>
            <AltitudeMeters>447</AltitudeMeters>
            <DistanceMeters>1410.1253850405</DistanceMeters>
          </Trackpoint>
          <Trackpoint>
            <Time>2021-08-09T07:52:30.000Z</Time>
            <Position>
              <LatitudeDegrees>42.92222569696605205535888671875</LatitudeDegrees>
              <LongitudeDegrees>-1.83084838092327117919921875</LongitudeDegrees>
            </Position>
            <AltitudeMeters>446.79998779296875</AltitudeMeters>
            <DistanceMeters>1411.9532603875</DistanceMeters>
          </Trackpoint>
          <Trackpoint>
            <Time>2021-08-09T07:52:31.000Z</Time>
            <Position>
              <LatitudeDegrees>42.92223961092531681060791015625</LatitudeDegrees>
              <LongitudeDegrees>-1.8308535777032375335693359375</LongitudeDegrees>
            </Position>
            <AltitudeMeters>446.79998779296875</AltitudeMeters>
            <DistanceMeters>1413.5603079484</DistanceMeters>
          </Trackpoint>
          <Trackpoint>
            <Time>2021-08-09T07:52:32.000Z</Time>
            <Position>
              <LatitudeDegrees>42.9222517646849155426025390625</LatitudeDegrees>
              <LongitudeDegrees>-1.83085885830223560333251953125</LongitudeDegrees>
            </Position>
            <AltitudeMeters>446.79998779296875</AltitudeMeters>
            <DistanceMeters>1414.976174104</DistanceMeters>
          </Trackpoint>
          <Trackpoint>
            <Time>2021-08-09T07:52:33.000Z</Time>
            <Position>
              <LatitudeDegrees>42.92226039804518222808837890625</LatitudeDegrees>
              <LongitudeDegrees>-1.83086975477635860443115234375</LongitudeDegrees>
            </Position>
            <AltitudeMeters>446.79998779296875</AltitudeMeters>
            <DistanceMeters>1416.2791147671</DistanceMeters>
          </Trackpoint>
          <Trackpoint>
            <Time>2021-08-09T07:52:34.000Z</Time>
            <Position>
              <LatitudeDegrees>42.9222651757299900054931640625</LatitudeDegrees>
              <LongitudeDegrees>-1.83088324964046478271484375</LongitudeDegrees>
            </Position>
            <AltitudeMeters>446.79998779296875</AltitudeMeters>
            <DistanceMeters>1417.5034483367</DistanceMeters>
          </Trackpoint>
          <Trackpoint>
            <Time>2021-08-09T07:52:35.000Z</Time>
            <Position>
              <LatitudeDegrees>42.92226634919643402099609375</LatitudeDegrees>
              <LongitudeDegrees>-1.83089406229555606842041015625</LongitudeDegrees>
            </Position>
            <AltitudeMeters>446.600006103515625</AltitudeMeters>
            <DistanceMeters>1418.3999285671</DistanceMeters>
          </Trackpoint>
          <Trackpoint>
            <Time>2021-08-09T07:52:41.000Z</Time>
            <Position>
              <LatitudeDegrees>42.922266013920307159423828125</LatitudeDegrees>
              <LongitudeDegrees>-1.8308991752564907073974609375</LongitudeDegrees>
            </Position>
            <AltitudeMeters>446.399993896484375</AltitudeMeters>
            <DistanceMeters>1418.8249009531</DistanceMeters>
          </Trackpoint>
          <Trackpoint>
            <Time>2021-08-09T07:53:09.000Z</Time>
            <Position>
              <LatitudeDegrees>42.922266013920307159423828125</LatitudeDegrees>
              <LongitudeDegrees>-1.8308991752564907073974609375</LongitudeDegrees>
            </Position>
            <AltitudeMeters>446.399993896484375</AltitudeMeters>
            <DistanceMeters>1418.9199276675</DistanceMeters>
          </Trackpoint>
          <Trackpoint>
            <Time>2021-08-09T07:53:14.000Z</Time>
            <Position>
              <LatitudeDegrees>42.922266013920307159423828125</LatitudeDegrees>
              <LongitudeDegrees>-1.8308991752564907073974609375</LongitudeDegrees>
            </Position>
            <AltitudeMeters>446.399993896484375</AltitudeMeters>
            <DistanceMeters>1419.0149543818</DistanceMeters>
          </Trackpoint>
          <Trackpoint>
            <Time>2021-08-09T07:54:28.000Z</Time>
            <Position>
              <LatitudeDegrees>42.92226475663483142852783203125</LatitudeDegrees>
              <LongitudeDegrees>-1.8308971635997295379638671875</LongitudeDegrees>
            </Position>
            <AltitudeMeters>446.399993896484375</AltitudeMeters>
            <DistanceMeters>1419.247721344</DistanceMeters>
          </Trackpoint>
          <Trackpoint>
            <Time>2021-08-09T07:54:31.000Z</Time>
            <Position>
              <LatitudeDegrees>42.9222675226628780364990234375</LatitudeDegrees>
              <LongitudeDegrees>-1.830982156097888946533203125</LongitudeDegrees>
            </Position>
            <AltitudeMeters>446.399993896484375</AltitudeMeters>
            <DistanceMeters>1426.1820675326</DistanceMeters>
          </Trackpoint>
          <Trackpoint>
            <Time>2021-08-09T07:54:35.000Z</Time>
            <Position>
              <LatitudeDegrees>42.92237942107021808624267578125</LatitudeDegrees>
              <LongitudeDegrees>-1.8310644663870334625244140625</LongitudeDegrees>
            </Position>
            <AltitudeMeters>446</AltitudeMeters>
            <DistanceMeters>1440.3286061252</DistanceMeters>
          </Trackpoint>
          <Trackpoint>
            <Time>2021-08-09T07:54:36.000Z</Time>
            <Position>
              <LatitudeDegrees>42.9224132001399993896484375</LatitudeDegrees>
              <LongitudeDegrees>-1.83108466677367687225341796875</LongitudeDegrees>
            </Position>
            <AltitudeMeters>446</AltitudeMeters>
            <DistanceMeters>1444.4334962144</DistanceMeters>
          </Trackpoint>
          <Trackpoint>
            <Time>2021-08-09T07:54:38.000Z</Time>
            <Position>
              <LatitudeDegrees>42.92246961034834384918212890625</LatitudeDegrees>
              <LongitudeDegrees>-1.83111534453928470611572265625</LongitudeDegrees>
            </Position>
            <AltitudeMeters>445.600006103515625</AltitudeMeters>
            <DistanceMeters>1451.1910916874</DistanceMeters>
          </Trackpoint>
          <Trackpoint>
            <Time>2021-08-09T07:54:39.000Z</Time>
            <Position>
              <LatitudeDegrees>42.92249173857271671295166015625</LatitudeDegrees>
              <LongitudeDegrees>-1.83112464845180511474609375</LongitudeDegrees>
            </Position>
            <AltitudeMeters>445.600006103515625</AltitudeMeters>
            <DistanceMeters>1453.7691018237</DistanceMeters>
          </Trackpoint>
          <Trackpoint>
            <Time>2021-08-09T07:54:40.000Z</Time>
            <Position>
              <LatitudeDegrees>42.92251118458807468414306640625</LatitudeDegrees>
              <LongitudeDegrees>-1.83113378472626209259033203125</LongitudeDegrees>
            </Position>
            <AltitudeMeters>445.399993896484375</AltitudeMeters>
            <DistanceMeters>1456.059620196</DistanceMeters>
          </Trackpoint>
          <Trackpoint>
            <Time>2021-08-09T07:54:41.000Z</Time>
            <Position>
              <LatitudeDegrees>42.9225285351276397705078125</LatitudeDegrees>
              <LongitudeDegrees>-1.83114032261073589324951171875</LongitudeDegrees>
            </Position>
            <AltitudeMeters>445.399993896484375</AltitudeMeters>
            <DistanceMeters>1458.0642109317</DistanceMeters>
          </Trackpoint>
          <Trackpoint>
            <Time>2021-08-09T07:54:42.000Z</Time>
            <Position>
              <LatitudeDegrees>42.92254555039107799530029296875</LatitudeDegrees>
              <LongitudeDegrees>-1.83114836923778057098388671875</LongitudeDegrees>
            </Position>
            <AltitudeMeters>445.20001220703125</AltitudeMeters>
            <DistanceMeters>1460.0710527526</DistanceMeters>
          </Trackpoint>
          <Trackpoint>
            <Time>2021-08-09T07:54:43.000Z</Time>
            <Position>
              <LatitudeDegrees>42.92256399057805538177490234375</LatitudeDegrees>
              <LongitudeDegrees>-1.8311543203890323638916015625</LongitudeDegrees>
            </Position>
            <AltitudeMeters>445.20001220703125</AltitudeMeters>
            <DistanceMeters>1462.1788472422</DistanceMeters>
          </Trackpoint>
          <Trackpoint>
            <Time>2021-08-09T07:54:44.000Z</Time>
            <Position>
              <LatitudeDegrees>42.92258360423147678375244140625</LatitudeDegrees>
              <LongitudeDegrees>-1.8311606906354427337646484375</LongitudeDegrees>
            </Position>
            <AltitudeMeters>445</AltitudeMeters>
            <DistanceMeters>1464.4235705338</DistanceMeters>
          </Trackpoint>
          <Trackpoint>
            <Time>2021-08-09T07:54:48.000Z</Time>
            <Position>
              <LatitudeDegrees>42.9226893000304698944091796875</LatitudeDegrees>
              <LongitudeDegrees>-1.83120511472225189208984375</LongitudeDegrees>
            </Position>
            <AltitudeMeters>444.79998779296875</AltitudeMeters>
            <DistanceMeters>1476.7323731797</DistanceMeters>
          </Trackpoint>
          <Trackpoint>
            <Time>2021-08-09T07:54:52.000Z</Time>
            <Position>
              <LatitudeDegrees>42.92280170135200023651123046875</LatitudeDegrees>
              <LongitudeDegrees>-1.83124065399169921875</LongitudeDegrees>
            </Position>
            <AltitudeMeters>444.79998779296875</AltitudeMeters>
            <DistanceMeters>1489.5739951964</DistanceMeters>
          </Trackpoint>
          <Trackpoint>
            <Time>2021-08-09T07:54:54.000Z</Time>
            <Position>
              <LatitudeDegrees>42.92286724783480167388916015625</LatitudeDegrees>
              <LongitudeDegrees>-1.83127493597567081451416015625</LongitudeDegrees>
            </Position>
            <AltitudeMeters>444.79998779296875</AltitudeMeters>
            <DistanceMeters>1497.3858615936</DistanceMeters>
          </Trackpoint>
          <Trackpoint>
            <Time>2021-08-09T07:55:01.000Z</Time>
            <Position>
              <LatitudeDegrees>42.923136055469512939453125</LatitudeDegrees>
              <LongitudeDegrees>-1.831377111375331878662109375</LongitudeDegrees>
            </Position>
            <AltitudeMeters>444.79998779296875</AltitudeMeters>
            <DistanceMeters>1528.4420108209</DistanceMeters>
          </Trackpoint>
          <Trackpoint>
            <Time>2021-08-09T07:55:04.000Z</Time>
            <Position>
              <LatitudeDegrees>42.923268489539623260498046875</LatitudeDegrees>
              <LongitudeDegrees>-1.8313997425138950347900390625</LongitudeDegrees>
            </Position>
            <AltitudeMeters>444.79998779296875</AltitudeMeters>
            <DistanceMeters>1543.2972122042</DistanceMeters>
          </Trackpoint>
          <Trackpoint>
            <Time>2021-08-09T07:55:05.000Z</Time>
            <Position>
              <LatitudeDegrees>42.92330302298069000244140625</LatitudeDegrees>
              <LongitudeDegrees>-1.83140225708484649658203125</LongitudeDegrees>
            </Position>
            <AltitudeMeters>444.79998779296875</AltitudeMeters>
            <DistanceMeters>1547.1466739126</DistanceMeters>
          </Trackpoint>
          <Trackpoint>
            <Time>2021-08-09T07:55:06.000Z</Time>
            <Position>
              <LatitudeDegrees>42.92335121892392635345458984375</LatitudeDegrees>
              <LongitudeDegrees>-1.8314087949693202972412109375</LongitudeDegrees>
            </Position>
            <AltitudeMeters>445</AltitudeMeters>
            <DistanceMeters>1552.5372940992</DistanceMeters>
          </Trackpoint>
          <Trackpoint>
            <Time>2021-08-09T07:55:07.000Z</Time>
            <Position>
              <LatitudeDegrees>42.923390530049800872802734375</LatitudeDegrees>
              <LongitudeDegrees>-1.8314168415963649749755859375</LongitudeDegrees>
            </Position>
            <AltitudeMeters>445</AltitudeMeters>
            <DistanceMeters>1556.9619077242</DistanceMeters>
          </Trackpoint>
          <Trackpoint>
            <Time>2021-08-09T07:55:10.000Z</Time>
            <Position>
              <LatitudeDegrees>42.92349572293460369110107421875</LatitudeDegrees>
              <LongitudeDegrees>-1.8314212001860141754150390625</LongitudeDegrees>
            </Position>
            <AltitudeMeters>445</AltitudeMeters>
            <DistanceMeters>1568.6752753651</DistanceMeters>
          </Trackpoint>
          <Trackpoint>
            <Time>2021-08-09T07:55:11.000Z</Time>
            <Position>
              <LatitudeDegrees>42.92352497577667236328125</LatitudeDegrees>
              <LongitudeDegrees>-1.83141692541539669036865234375</LongitudeDegrees>
            </Position>
            <AltitudeMeters>445</AltitudeMeters>
            <DistanceMeters>1571.9492180553</DistanceMeters>
          </Trackpoint>
          <Trackpoint>
            <Time>2021-08-09T07:55:12.000Z</Time>
            <Position>
              <LatitudeDegrees>42.92355020530521869659423828125</LatitudeDegrees>
              <LongitudeDegrees>-1.8314061127603054046630859375</LongitudeDegrees>
            </Position>
            <AltitudeMeters>445.20001220703125</AltitudeMeters>
            <DistanceMeters>1574.8919792264</DistanceMeters>
          </Trackpoint>
          <Trackpoint>
            <Time>2021-08-09T07:55:13.000Z</Time>
            <Position>
              <LatitudeDegrees>42.9235774464905261993408203125</LatitudeDegrees>
              <LongitudeDegrees>-1.831390522420406341552734375</LongitudeDegrees>
            </Position>
            <AltitudeMeters>445.20001220703125</AltitudeMeters>
            <DistanceMeters>1578.1783102241</DistanceMeters>
          </Trackpoint>
          <Trackpoint>
            <Time>2021-08-09T07:55:14.000Z</Time>
            <Position>
              <LatitudeDegrees>42.9235925339162349700927734375</LatitudeDegrees>
              <LongitudeDegrees>-1.8313789553940296173095703125</LongitudeDegrees>
            </Position>
            <AltitudeMeters>445.399993896484375</AltitudeMeters>
            <DistanceMeters>1580.107141864</DistanceMeters>
          </Trackpoint>
          <Trackpoint>
            <Time>2021-08-09T07:55:15.000Z</Time>
            <Position>
              <LatitudeDegrees>42.92360904626548290252685546875</LatitudeDegrees>
              <LongitudeDegrees>-1.831364370882511138916015625</LongitudeDegrees>
            </Position>
            <AltitudeMeters>445.600006103515625</AltitudeMeters>
            <DistanceMeters>1582.2989449273</DistanceMeters>
          </Trackpoint>
          <Trackpoint>
            <Time>2021-08-09T07:55:18.000Z</Time>
            <Position>
              <LatitudeDegrees>42.92365313507616519927978515625</LatitudeDegrees>
              <LongitudeDegrees>-1.8313028477132320404052734375</LongitudeDegrees>
            </Position>
            <AltitudeMeters>446</AltitudeMeters>
            <DistanceMeters>1589.3154951318</DistanceMeters>
          </Trackpoint>
          <Trackpoint>
            <Time>2021-08-09T07:55:19.000Z</Time>
            <Position>
              <LatitudeDegrees>42.92366445064544677734375</LatitudeDegrees>
              <LongitudeDegrees>-1.83128080330789089202880859375</LongitudeDegrees>
            </Position>
            <AltitudeMeters>446.20001220703125</AltitudeMeters>
            <DistanceMeters>1591.5114142608</DistanceMeters>
          </Trackpoint>
          <Trackpoint>
            <Time>2021-08-09T07:55:20.000Z</Time>
            <Position>
              <LatitudeDegrees>42.9236773587763309478759765625</LatitudeDegrees>
              <LongitudeDegrees>-1.83125800453126430511474609375</LongitudeDegrees>
            </Position>
            <AltitudeMeters>446.600006103515625</AltitudeMeters>
            <DistanceMeters>1593.8603239455</DistanceMeters>
          </Trackpoint>
          <Trackpoint>
            <Time>2021-08-09T07:55:21.000Z</Time>
            <Position>
              <LatitudeDegrees>42.92368699796497821807861328125</LatitudeDegrees>
              <LongitudeDegrees>-1.83123637922108173370361328125</LongitudeDegrees>
            </Position>
            <AltitudeMeters>446.79998779296875</AltitudeMeters>
            <DistanceMeters>1595.9248326236</DistanceMeters>
          </Trackpoint>
          <Trackpoint>
            <Time>2021-08-09T07:55:23.000Z</Time>
            <Position>
              <LatitudeDegrees>42.92371013201773166656494140625</LatitudeDegrees>
              <LongitudeDegrees>-1.83118776418268680572509765625</LongitudeDegrees>
            </Position>
            <AltitudeMeters>447.399993896484375</AltitudeMeters>
            <DistanceMeters>1600.6494859409</DistanceMeters>
          </Trackpoint>
          <Trackpoint>
            <Time>2021-08-09T07:55:27.000Z</Time>
            <Position>
              <LatitudeDegrees>42.92374852113425731658935546875</LatitudeDegrees>
              <LongitudeDegrees>-1.8310959823429584503173828125</LongitudeDegrees>
            </Position>
            <AltitudeMeters>448.399993896484375</AltitudeMeters>
            <DistanceMeters>1609.2639602845</DistanceMeters>
          </Trackpoint>
          <Trackpoint>
            <Time>2021-08-09T07:55:28.000Z</Time>
            <Position>
              <LatitudeDegrees>42.92376595549285411834716796875</LatitudeDegrees>
              <LongitudeDegrees>-1.83106572367250919342041015625</LongitudeDegrees>
            </Position>
            <AltitudeMeters>448.399993896484375</AltitudeMeters>
            <DistanceMeters>1612.4012813271</DistanceMeters>
          </Trackpoint>
          <Trackpoint>
            <Time>2021-08-09T07:55:29.000Z</Time>
            <Position>
              <LatitudeDegrees>42.923775427043437957763671875</LatitudeDegrees>
              <LongitudeDegrees>-1.83104778639972209930419921875</LongitudeDegrees>
            </Position>
            <AltitudeMeters>448.79998779296875</AltitudeMeters>
            <DistanceMeters>1614.1992711399</DistanceMeters>
          </Trackpoint>
          <Trackpoint>
            <Time>2021-08-09T07:55:30.000Z</Time>
            <Position>
              <LatitudeDegrees>42.92378590442240238189697265625</LatitudeDegrees>
              <LongitudeDegrees>-1.83102406561374664306640625</LongitudeDegrees>
            </Position>
            <AltitudeMeters>449</AltitudeMeters>
            <DistanceMeters>1616.4560305675</DistanceMeters>
          </Trackpoint>
          <Trackpoint>
            <Time>2021-08-09T07:55:31.000Z</Time>
            <Position>
              <LatitudeDegrees>42.9237997345626354217529296875</LatitudeDegrees>
              <LongitudeDegrees>-1.83099313639104366302490234375</LongitudeDegrees>
            </Position>
            <AltitudeMeters>449.399993896484375</AltitudeMeters>
            <DistanceMeters>1619.4095122155</DistanceMeters>
          </Trackpoint>
          <Trackpoint>
            <Time>2021-08-09T07:55:32.000Z</Time>
            <Position>
              <LatitudeDegrees>42.9238107986748218536376953125</LatitudeDegrees>
              <LongitudeDegrees>-1.830964721739292144775390625</LongitudeDegrees>
            </Position>
            <AltitudeMeters>449.600006103515625</AltitudeMeters>
            <DistanceMeters>1622.0326626592</DistanceMeters>
          </Trackpoint>
          <Trackpoint>
            <Time>2021-08-09T07:55:33.000Z</Time>
            <Position>
              <LatitudeDegrees>42.92382211424410343170166015625</LatitudeDegrees>
              <LongitudeDegrees>-1.8309367261826992034912109375</LongitudeDegrees>
            </Position>
            <AltitudeMeters>450</AltitudeMeters>
            <DistanceMeters>1624.6368107751</DistanceMeters>
          </Trackpoint>
          <Trackpoint>
            <Time>2021-08-09T07:55:34.000Z</Time>
            <Position>
              <LatitudeDegrees>42.92383267544209957122802734375</LatitudeDegrees>
              <LongitudeDegrees>-1.8309085629880428314208984375</LongitudeDegrees>
            </Position>
            <AltitudeMeters>450.20001220703125</AltitudeMeters>
            <DistanceMeters>1627.2148209114</DistanceMeters>
          </Trackpoint>
          <Trackpoint>
            <Time>2021-08-09T07:55:35.000Z</Time>
            <Position>
              <LatitudeDegrees>42.9238428175449371337890625</LatitudeDegrees>
              <LongitudeDegrees>-1.8308807350695133209228515625</LongitudeDegrees>
            </Position>
            <AltitudeMeters>450.399993896484375</AltitudeMeters>
            <DistanceMeters>1629.7468861307</DistanceMeters>
          </Trackpoint>
          <Trackpoint>
            <Time>2021-08-09T07:55:36.000Z</Time>
            <Position>
              <LatitudeDegrees>42.92385153472423553466796875</LatitudeDegrees>
              <LongitudeDegrees>-1.8308552540838718414306640625</LongitudeDegrees>
            </Position>
            <AltitudeMeters>450.600006103515625</AltitudeMeters>
            <DistanceMeters>1632.0393748418</DistanceMeters>
          </Trackpoint>
          <Trackpoint>
            <Time>2021-08-09T07:55:37.000Z</Time>
            <Position>
              <LatitudeDegrees>42.92385899461805820465087890625</LatitudeDegrees>
              <LongitudeDegrees>-1.8308311142027378082275390625</LongitudeDegrees>
            </Position>
            <AltitudeMeters>450.600006103515625</AltitudeMeters>
            <DistanceMeters>1634.1727192884</DistanceMeters>
          </Trackpoint>
          <Trackpoint>
            <Time>2021-08-09T07:55:38.000Z</Time>
            <Position>
              <LatitudeDegrees>42.92386888526380062103271484375</LatitudeDegrees>
              <LongitudeDegrees>-1.83080437593162059783935546875</LongitudeDegrees>
            </Position>
            <AltitudeMeters>451</AltitudeMeters>
            <DistanceMeters>1636.6139997829</DistanceMeters>
          </Trackpoint>
          <Trackpoint>
            <Time>2021-08-09T07:55:39.000Z</Time>
            <Position>
              <LatitudeDegrees>42.9238765127956867218017578125</LatitudeDegrees>
              <LongitudeDegrees>-1.8307778052985668182373046875</LongitudeDegrees>
            </Position>
            <AltitudeMeters>451.20001220703125</AltitudeMeters>
            <DistanceMeters>1638.9416694043</DistanceMeters>
          </Trackpoint>
          <Trackpoint>
            <Time>2021-08-09T07:55:40.000Z</Time>
            <Position>
              <LatitudeDegrees>42.923886068165302276611328125</LatitudeDegrees>
              <LongitudeDegrees>-1.83074922300875186920166015625</LongitudeDegrees>
            </Position>
            <AltitudeMeters>451.399993896484375</AltitudeMeters>
            <DistanceMeters>1641.5021059879</DistanceMeters>
          </Trackpoint>
          <Trackpoint>
            <Time>2021-08-09T07:55:41.000Z</Time>
            <Position>
              <LatitudeDegrees>42.92389688082039356231689453125</LatitudeDegrees>
              <LongitudeDegrees>-1.830721311271190643310546875</LongitudeDegrees>
            </Position>
            <AltitudeMeters>451.600006103515625</AltitudeMeters>
            <DistanceMeters>1644.0766110102</DistanceMeters>
          </Trackpoint>
          <Trackpoint>
            <Time>2021-08-09T07:55:42.000Z</Time>
            <Position>
              <LatitudeDegrees>42.9239080287516117095947265625</LatitudeDegrees>
              <LongitudeDegrees>-1.83069239370524883270263671875</LongitudeDegrees>
            </Position>
            <AltitudeMeters>451.79998779296875</AltitudeMeters>
            <DistanceMeters>1646.7407506621</DistanceMeters>
          </Trackpoint>
          <Trackpoint>
            <Time>2021-08-09T07:55:43.000Z</Time>
            <Position>
              <LatitudeDegrees>42.92391867376863956451416015625</LatitudeDegrees>
              <LongitudeDegrees>-1.830663979053497314453125</LongitudeDegrees>
            </Position>
            <AltitudeMeters>452</AltitudeMeters>
            <DistanceMeters>1649.3414288922</DistanceMeters>
          </Trackpoint>
          <Trackpoint>
            <Time>2021-08-09T07:55:44.000Z</Time>
            <Position>
              <LatitudeDegrees>42.9239314980804920196533203125</LatitudeDegrees>
              <LongitudeDegrees>-1.8306376598775386810302734375</LongitudeDegrees>
            </Position>
            <AltitudeMeters>452.20001220703125</AltitudeMeters>
            <DistanceMeters>1651.9159339145</DistanceMeters>
          </Trackpoint>
          <Trackpoint>
            <Time>2021-08-09T07:55:45.000Z</Time>
            <Position>
              <LatitudeDegrees>42.9239435680210590362548828125</LatitudeDegrees>
              <LongitudeDegrees>-1.8306105025112628936767578125</LongitudeDegrees>
            </Position>
            <AltitudeMeters>452.600006103515625</AltitudeMeters>
            <DistanceMeters>1654.5079171078</DistanceMeters>
          </Trackpoint>
          <Trackpoint>
            <Time>2021-08-09T07:55:46.000Z</Time>
            <Position>
              <LatitudeDegrees>42.92395890690386295318603515625</LatitudeDegrees>
              <LongitudeDegrees>-1.83058208785951137542724609375</LongitudeDegrees>
            </Position>
            <AltitudeMeters>453</AltitudeMeters>
            <DistanceMeters>1657.3855168192</DistanceMeters>
          </Trackpoint>
          <Trackpoint>
            <Time>2021-08-09T07:55:47.000Z</Time>
            <Position>
              <LatitudeDegrees>42.92397231794893741607666015625</LatitudeDegrees>
              <LongitudeDegrees>-1.83055845089256763458251953125</LongitudeDegrees>
            </Position>
            <AltitudeMeters>453</AltitudeMeters>
            <DistanceMeters>1659.8230955974</DistanceMeters>
          </Trackpoint>
          <Trackpoint>
            <Time>2021-08-09T07:55:48.000Z</Time>
            <Position>
              <LatitudeDegrees>42.92398153804242610931396484375</LatitudeDegrees>
              <LongitudeDegrees>-1.8305347301065921783447265625</LongitudeDegrees>
            </Position>
            <AltitudeMeters>453.399993896484375</AltitudeMeters>
            <DistanceMeters>1662.0128377265</DistanceMeters>
          </Trackpoint>
          <Trackpoint>
            <Time>2021-08-09T07:55:49.000Z</Time>
            <Position>
              <LatitudeDegrees>42.923992685973644256591796875</LatitudeDegrees>
              <LongitudeDegrees>-1.83050681836903095245361328125</LongitudeDegrees>
            </Position>
            <AltitudeMeters>453.600006103515625</AltitudeMeters>
            <DistanceMeters>1664.6048209198</DistanceMeters>
          </Trackpoint>
          <Trackpoint>
            <Time>2021-08-09T07:55:50.000Z</Time>
            <Position>
              <LatitudeDegrees>42.924004755914211273193359375</LatitudeDegrees>
              <LongitudeDegrees>-1.83047630824148654937744140625</LongitudeDegrees>
            </Position>
            <AltitudeMeters>453.79998779296875</AltitudeMeters>
            <DistanceMeters>1667.4333625456</DistanceMeters>
          </Trackpoint>
          <Trackpoint>
            <Time>2021-08-09T07:55:51.000Z</Time>
            <Position>
              <LatitudeDegrees>42.9240131378173828125</LatitudeDegrees>
              <LongitudeDegrees>-1.830449067056179046630859375</LongitudeDegrees>
            </Position>
            <AltitudeMeters>454</AltitudeMeters>
            <DistanceMeters>1669.8411227241</DistanceMeters>
          </Trackpoint>
          <Trackpoint>
            <Time>2021-08-09T07:55:52.000Z</Time>
            <Position>
              <LatitudeDegrees>42.92402210645377635955810546875</LatitudeDegrees>
              <LongitudeDegrees>-1.83042266406118869781494140625</LongitudeDegrees>
            </Position>
            <AltitudeMeters>454.20001220703125</AltitudeMeters>
            <DistanceMeters>1672.2129864691</DistanceMeters>
          </Trackpoint>
          <Trackpoint>
            <Time>2021-08-09T07:55:53.000Z</Time>
            <Position>
              <LatitudeDegrees>42.9240327514708042144775390625</LatitudeDegrees>
              <LongitudeDegrees>-1.8303970992565155029296875</LongitudeDegrees>
            </Position>
            <AltitudeMeters>454.399993896484375</AltitudeMeters>
            <DistanceMeters>1674.6094690203</DistanceMeters>
          </Trackpoint>
          <Trackpoint>
            <Time>2021-08-09T07:55:54.000Z</Time>
            <Position>
              <LatitudeDegrees>42.9240434803068637847900390625</LatitudeDegrees>
              <LongitudeDegrees>-1.83036834932863712310791015625</LongitudeDegrees>
            </Position>
            <AltitudeMeters>454.600006103515625</AltitudeMeters>
            <DistanceMeters>1677.2377780736</DistanceMeters>
          </Trackpoint>
          <Trackpoint>
            <Time>2021-08-09T07:55:55.000Z</Time>
            <Position>
              <LatitudeDegrees>42.9240532033145427703857421875</LatitudeDegrees>
              <LongitudeDegrees>-1.83033934794366359710693359375</LongitudeDegrees>
            </Position>
            <AltitudeMeters>455</AltitudeMeters>
            <DistanceMeters>1679.8367196235</DistanceMeters>
          </Trackpoint>
          <Trackpoint>
            <Time>2021-08-09T07:55:56.000Z</Time>
            <Position>
              <LatitudeDegrees>42.9240635968744754791259765625</LatitudeDegrees>
              <LongitudeDegrees>-1.8303107656538486480712890625</LongitudeDegrees>
            </Position>
            <AltitudeMeters>455.20001220703125</AltitudeMeters>
            <DistanceMeters>1682.4391333748</DistanceMeters>
          </Trackpoint>
          <Trackpoint>
            <Time>2021-08-09T07:55:57.000Z</Time>
            <Position>
              <LatitudeDegrees>42.92407474480569362640380859375</LatitudeDegrees>
              <LongitudeDegrees>-1.8302805908024311065673828125</LongitudeDegrees>
            </Position>
            <AltitudeMeters>455.399993896484375</AltitudeMeters>
            <DistanceMeters>1685.1965459964</DistanceMeters>
          </Trackpoint>
          <Trackpoint>
            <Time>2021-08-09T07:55:58.000Z</Time>
            <Position>
              <LatitudeDegrees>42.92408513836562633514404296875</LatitudeDegrees>
              <LongitudeDegrees>-1.8302500806748867034912109375</LongitudeDegrees>
            </Position>
            <AltitudeMeters>455.600006103515625</AltitudeMeters>
            <DistanceMeters>1687.9408280072</DistanceMeters>
          </Trackpoint>
          <Trackpoint>
            <Time>2021-08-09T07:55:59.000Z</Time>
            <Position>
              <LatitudeDegrees>42.9240964539349079132080078125</LatitudeDegrees>
              <LongitudeDegrees>-1.83022216893732547760009765625</LongitudeDegrees>
            </Position>
            <AltitudeMeters>456.20001220703125</AltitudeMeters>
            <DistanceMeters>1690.5415062373</DistanceMeters>
          </Trackpoint>
          <Trackpoint>
            <Time>2021-08-09T07:56:00.000Z</Time>
            <Position>
              <LatitudeDegrees>42.92410659603774547576904296875</LatitudeDegrees>
              <LongitudeDegrees>-1.83019467629492282867431640625</LongitudeDegrees>
            </Position>
            <AltitudeMeters>456.600006103515625</AltitudeMeters>
            <DistanceMeters>1693.0502834855</DistanceMeters>
          </Trackpoint>
          <Trackpoint>
            <Time>2021-08-09T07:56:01.000Z</Time>
            <Position>
              <LatitudeDegrees>42.9241165705025196075439453125</LatitudeDegrees>
              <LongitudeDegrees>-1.83016701601445674896240234375</LongitudeDegrees>
            </Position>
            <AltitudeMeters>456.600006103515625</AltitudeMeters>
            <DistanceMeters>1695.5644540268</DistanceMeters>
          </Trackpoint>
          <Trackpoint>
            <Time>2021-08-09T07:56:02.000Z</Time>
            <Position>
              <LatitudeDegrees>42.92412520386278629302978515625</LatitudeDegrees>
              <LongitudeDegrees>-1.830139942467212677001953125</LongitudeDegrees>
            </Position>
            <AltitudeMeters>456.79998779296875</AltitudeMeters>
            <DistanceMeters>1697.9703382719</DistanceMeters>
          </Trackpoint>
          <Trackpoint>
            <Time>2021-08-09T07:56:03.000Z</Time>
            <Position>
              <LatitudeDegrees>42.92413509450852870941162109375</LatitudeDegrees>
              <LongitudeDegrees>-1.8301154673099517822265625</LongitudeDegrees>
            </Position>
            <AltitudeMeters>457</AltitudeMeters>
            <DistanceMeters>1700.2509794168</DistanceMeters>
          </Trackpoint>
          <Trackpoint>
            <Time>2021-08-09T07:56:04.000Z</Time>
            <Position>
              <LatitudeDegrees>42.9241450689733028411865234375</LatitudeDegrees>
              <LongitudeDegrees>-1.830089651048183441162109375</LongitudeDegrees>
            </Position>
            <AltitudeMeters>457.20001220703125</AltitudeMeters>
            <DistanceMeters>1702.6304453086</DistanceMeters>
          </Trackpoint>
          <Trackpoint>
            <Time>2021-08-09T07:56:05.000Z</Time>
            <Position>
              <LatitudeDegrees>42.92415705509483814239501953125</LatitudeDegrees>
              <LongitudeDegrees>-1.83006274513900279998779296875</LongitudeDegrees>
            </Position>
            <AltitudeMeters>457.79998779296875</AltitudeMeters>
            <DistanceMeters>1705.1979257475</DistanceMeters>
          </Trackpoint>
          <Trackpoint>
            <Time>2021-08-09T07:56:06.000Z</Time>
            <Position>
              <LatitudeDegrees>42.92416946031153202056884765625</LatitudeDegrees>
              <LongitudeDegrees>-1.83003575541079044342041015625</LongitudeDegrees>
            </Position>
            <AltitudeMeters>457.79998779296875</AltitudeMeters>
            <DistanceMeters>1707.795129456</DistanceMeters>
          </Trackpoint>
          <Trackpoint>
            <Time>2021-08-09T07:56:07.000Z</Time>
            <Position>
              <LatitudeDegrees>42.92418069206178188323974609375</LatitudeDegrees>
              <LongitudeDegrees>-1.83000725694000720977783203125</LongitudeDegrees>
            </Position>
            <AltitudeMeters>458.20001220703125</AltitudeMeters>
            <DistanceMeters>1710.4337254725</DistanceMeters>
          </Trackpoint>
          <Trackpoint>
            <Time>2021-08-09T07:56:08.000Z</Time>
            <Position>
              <LatitudeDegrees>42.92419075034558773040771484375</LatitudeDegrees>
              <LongitudeDegrees>-1.82998077012598514556884765625</LongitudeDegrees>
            </Position>
            <AltitudeMeters>458.399993896484375</AltitudeMeters>
            <DistanceMeters>1712.8675969045</DistanceMeters>
          </Trackpoint>
          <Trackpoint>
            <Time>2021-08-09T07:56:09.000Z</Time>
            <Position>
              <LatitudeDegrees>42.92420156300067901611328125</LatitudeDegrees>
              <LongitudeDegrees>-1.82995378039777278900146484375</LongitudeDegrees>
            </Position>
            <AltitudeMeters>458.600006103515625</AltitudeMeters>
            <DistanceMeters>1715.37457381</DistanceMeters>
          </Trackpoint>
          <Trackpoint>
            <Time>2021-08-09T07:56:10.000Z</Time>
            <Position>
              <LatitudeDegrees>42.9242114536464214324951171875</LatitudeDegrees>
              <LongitudeDegrees>-1.82992528192698955535888671875</LongitudeDegrees>
            </Position>
            <AltitudeMeters>458.600006103515625</AltitudeMeters>
            <DistanceMeters>1717.9438121953</DistanceMeters>
          </Trackpoint>
          <Trackpoint>
            <Time>2021-08-09T07:56:11.000Z</Time>
            <Position>
              <LatitudeDegrees>42.92421958409249782562255859375</LatitudeDegrees>
              <LongitudeDegrees>-1.8298977054655551910400390625</LongitudeDegrees>
            </Position>
            <AltitudeMeters>459</AltitudeMeters>
            <DistanceMeters>1720.3646632052</DistanceMeters>
          </Trackpoint>
          <Trackpoint>
            <Time>2021-08-09T07:56:12.000Z</Time>
            <Position>
              <LatitudeDegrees>42.924229390919208526611328125</LatitudeDegrees>
              <LongitudeDegrees>-1.8298692069947719573974609375</LongitudeDegrees>
            </Position>
            <AltitudeMeters>459.20001220703125</AltitudeMeters>
            <DistanceMeters>1722.9303844932</DistanceMeters>
          </Trackpoint>
          <Trackpoint>
            <Time>2021-08-09T07:56:13.000Z</Time>
            <Position>
              <LatitudeDegrees>42.92423953302204608917236328125</LatitudeDegrees>
              <LongitudeDegrees>-1.8298410438001155853271484375</LongitudeDegrees>
            </Position>
            <AltitudeMeters>459.399993896484375</AltitudeMeters>
            <DistanceMeters>1725.489057083</DistanceMeters>
          </Trackpoint>
          <Trackpoint>
            <Time>2021-08-09T07:56:14.000Z</Time>
            <Position>
              <LatitudeDegrees>42.92424959130585193634033203125</LatitudeDegrees>
              <LongitudeDegrees>-1.82981170713901519775390625</LongitudeDegrees>
            </Position>
            <AltitudeMeters>459.79998779296875</AltitudeMeters>
            <DistanceMeters>1728.1293636968</DistanceMeters>
          </Trackpoint>
          <Trackpoint>
            <Time>2021-08-09T07:56:15.000Z</Time>
            <Position>
              <LatitudeDegrees>42.9242612421512603759765625</LatitudeDegrees>
              <LongitudeDegrees>-1.82978446595370769500732421875</LongitudeDegrees>
            </Position>
            <AltitudeMeters>460</AltitudeMeters>
            <DistanceMeters>1730.7003588265</DistanceMeters>
          </Trackpoint>
          <Trackpoint>
            <Time>2021-08-09T07:56:16.000Z</Time>
            <Position>
              <LatitudeDegrees>42.92427490465342998504638671875</LatitudeDegrees>
              <LongitudeDegrees>-1.8297572247684001922607421875</LongitudeDegrees>
            </Position>
            <AltitudeMeters>460.399993896484375</AltitudeMeters>
            <DistanceMeters>1733.391477796</DistanceMeters>
          </Trackpoint>
          <Trackpoint>
            <Time>2021-08-09T07:56:17.000Z</Time>
            <Position>
              <LatitudeDegrees>42.92428730987012386322021484375</LatitudeDegrees>
              <LongitudeDegrees>-1.82973266579210758209228515625</LongitudeDegrees>
            </Position>
            <AltitudeMeters>460.399993896484375</AltitudeMeters>
            <DistanceMeters>1735.8234934355</DistanceMeters>
          </Trackpoint>
          <Trackpoint>
            <Time>2021-08-09T07:56:18.000Z</Time>
            <Position>
              <LatitudeDegrees>42.92429921217262744903564453125</LatitudeDegrees>
              <LongitudeDegrees>-1.8297079391777515411376953125</LongitudeDegrees>
            </Position>
            <AltitudeMeters>460.399993896484375</AltitudeMeters>
            <DistanceMeters>1738.2350011029</DistanceMeters>
          </Trackpoint>
          <Trackpoint>
            <Time>2021-08-09T07:56:19.000Z</Time>
            <Position>
              <LatitudeDegrees>42.92430977337062358856201171875</LatitudeDegrees>
              <LongitudeDegrees>-1.82968153618276119232177734375</LongitudeDegrees>
            </Position>
            <AltitudeMeters>460.79998779296875</AltitudeMeters>
            <DistanceMeters>1740.6873532211</DistanceMeters>
          </Trackpoint>
          <Trackpoint>
            <Time>2021-08-09T07:56:20.000Z</Time>
            <Position>
              <LatitudeDegrees>42.92431949637830257415771484375</LatitudeDegrees>
              <LongitudeDegrees>-1.8296526186168193817138671875</LongitudeDegrees>
            </Position>
            <AltitudeMeters>460.79998779296875</AltitudeMeters>
            <DistanceMeters>1743.2810777537</DistanceMeters>
          </Trackpoint>
          <Trackpoint>
            <Time>2021-08-09T07:56:21.000Z</Time>
            <Position>
              <LatitudeDegrees>42.92432955466210842132568359375</LatitudeDegrees>
              <LongitudeDegrees>-1.82962487451732158660888671875</LongitudeDegrees>
            </Position>
            <AltitudeMeters>461.20001220703125</AltitudeMeters>
            <DistanceMeters>1745.8060003207</DistanceMeters>
          </Trackpoint>
          <Trackpoint>
            <Time>2021-08-09T07:56:22.000Z</Time>
            <Position>
              <LatitudeDegrees>42.924340032041072845458984375</LatitudeDegrees>
              <LongitudeDegrees>-1.829596124589443206787109375</LongitudeDegrees>
            </Position>
            <AltitudeMeters>461.399993896484375</AltitudeMeters>
            <DistanceMeters>1748.42398199</DistanceMeters>
          </Trackpoint>
          <Trackpoint>
            <Time>2021-08-09T07:56:23.000Z</Time>
            <Position>
              <LatitudeDegrees>42.92434967122972011566162109375</LatitudeDegrees>
              <LongitudeDegrees>-1.829568631947040557861328125</LongitudeDegrees>
            </Position>
            <AltitudeMeters>462</AltitudeMeters>
            <DistanceMeters>1750.9092530593</DistanceMeters>
          </Trackpoint>
          <Trackpoint>
            <Time>2021-08-09T07:56:24.000Z</Time>
            <Position>
              <LatitudeDegrees>42.92436207644641399383544921875</LatitudeDegrees>
              <LongitudeDegrees>-1.8295409716665744781494140625</LongitudeDegrees>
            </Position>
            <AltitudeMeters>461.79998779296875</AltitudeMeters>
            <DistanceMeters>1753.5529775471</DistanceMeters>
          </Trackpoint>
          <Trackpoint>
            <Time>2021-08-09T07:56:25.000Z</Time>
            <Position>
              <LatitudeDegrees>42.92437146417796611785888671875</LatitudeDegrees>
              <LongitudeDegrees>-1.82951389811933040618896484375</LongitudeDegrees>
            </Position>
            <AltitudeMeters>462.20001220703125</AltitudeMeters>
            <DistanceMeters>1755.9942580416</DistanceMeters>
          </Trackpoint>
          <Trackpoint>
            <Time>2021-08-09T07:56:26.000Z</Time>
            <Position>
              <LatitudeDegrees>42.9243841208517551422119140625</LatitudeDegrees>
              <LongitudeDegrees>-1.82948690839111804962158203125</LongitudeDegrees>
            </Position>
            <AltitudeMeters>462.399993896484375</AltitudeMeters>
            <DistanceMeters>1758.6070607115</DistanceMeters>
          </Trackpoint>
          <Trackpoint>
            <Time>2021-08-09T07:56:27.000Z</Time>
            <Position>
              <LatitudeDegrees>42.92439610697329044342041015625</LatitudeDegrees>
              <LongitudeDegrees>-1.82946008630096912384033203125</LongitudeDegrees>
            </Position>
            <AltitudeMeters>462.399993896484375</AltitudeMeters>
            <DistanceMeters>1761.167497295</DistanceMeters>
          </Trackpoint>
          <Trackpoint>
            <Time>2021-08-09T07:56:28.000Z</Time>
            <Position>
              <LatitudeDegrees>42.9244032315909862518310546875</LatitudeDegrees>
              <LongitudeDegrees>-1.8294353596866130828857421875</LongitudeDegrees>
            </Position>
            <AltitudeMeters>462.79998779296875</AltitudeMeters>
            <DistanceMeters>1763.3344397841</DistanceMeters>
          </Trackpoint>
          <Trackpoint>
            <Time>2021-08-09T07:56:29.000Z</Time>
            <Position>
              <LatitudeDegrees>42.92441337369382381439208984375</LatitudeDegrees>
              <LongitudeDegrees>-1.82941205799579620361328125</LongitudeDegrees>
            </Position>
            <AltitudeMeters>462.79998779296875</AltitudeMeters>
            <DistanceMeters>1765.5426610773</DistanceMeters>
          </Trackpoint>
          <Trackpoint>
            <Time>2021-08-09T07:56:30.000Z</Time>
            <Position>
              <LatitudeDegrees>42.92442494072020053863525390625</LatitudeDegrees>
              <LongitudeDegrees>-1.82938666082918643951416015625</LongitudeDegrees>
            </Position>
            <AltitudeMeters>463.20001220703125</AltitudeMeters>
            <DistanceMeters>1767.9820914158</DistanceMeters>
          </Trackpoint>
          <Trackpoint>
            <Time>2021-08-09T07:56:31.000Z</Time>
            <Position>
              <LatitudeDegrees>42.92443893849849700927734375</LatitudeDegrees>
              <LongitudeDegrees>-1.8293617665767669677734375</LongitudeDegrees>
            </Position>
            <AltitudeMeters>463.20001220703125</AltitudeMeters>
            <DistanceMeters>1770.5425279994</DistanceMeters>
          </Trackpoint>
          <Trackpoint>
            <Time>2021-08-09T07:56:32.000Z</Time>
            <Position>
              <LatitudeDegrees>42.92445410974323749542236328125</LatitudeDegrees>
              <LongitudeDegrees>-1.82933452539145946502685546875</LongitudeDegrees>
            </Position>
            <AltitudeMeters>463.399993896484375</AltitudeMeters>
            <DistanceMeters>1773.3324967975</DistanceMeters>
          </Trackpoint>
          <Trackpoint>
            <Time>2021-08-09T07:56:33.000Z</Time>
            <Position>
              <LatitudeDegrees>42.92446819134056568145751953125</LatitudeDegrees>
              <LongitudeDegrees>-1.82930820621550083160400390625</LongitudeDegrees>
            </Position>
            <AltitudeMeters>463.79998779296875</AltitudeMeters>
            <DistanceMeters>1775.9881492037</DistanceMeters>
          </Trackpoint>
          <Trackpoint>
            <Time>2021-08-09T07:56:34.000Z</Time>
            <Position>
              <LatitudeDegrees>42.92448093183338642120361328125</LatitudeDegrees>
              <LongitudeDegrees>-1.82928062975406646728515625</LongitudeDegrees>
            </Position>
            <AltitudeMeters>464</AltitudeMeters>
            <DistanceMeters>1778.6455012277</DistanceMeters>
          </Trackpoint>
          <Trackpoint>
            <Time>2021-08-09T07:56:35.000Z</Time>
            <Position>
              <LatitudeDegrees>42.9244930855929851531982421875</LatitudeDegrees>
              <LongitudeDegrees>-1.82925112545490264892578125</LongitudeDegrees>
            </Position>
            <AltitudeMeters>464.20001220703125</AltitudeMeters>
            <DistanceMeters>1781.4029138493</DistanceMeters>
          </Trackpoint>
          <Trackpoint>
            <Time>2021-08-09T07:56:36.000Z</Time>
            <Position>
              <LatitudeDegrees>42.9245071671903133392333984375</LatitudeDegrees>
              <LongitudeDegrees>-1.82922371663153171539306640625</LongitudeDegrees>
            </Position>
            <AltitudeMeters>464.20001220703125</AltitudeMeters>
            <DistanceMeters>1784.1323484183</DistanceMeters>
          </Trackpoint>
          <Trackpoint>
            <Time>2021-08-09T07:56:37.000Z</Time>
            <Position>
              <LatitudeDegrees>42.9245214164257049560546875</LatitudeDegrees>
              <LongitudeDegrees>-1.82919873856008052825927734375</LongitudeDegrees>
            </Position>
            <AltitudeMeters>464.399993896484375</AltitudeMeters>
            <DistanceMeters>1786.7138589094</DistanceMeters>
          </Trackpoint>
          <Trackpoint>
            <Time>2021-08-09T07:56:38.000Z</Time>
            <Position>
              <LatitudeDegrees>42.92453457601368427276611328125</LatitudeDegrees>
              <LongitudeDegrees>-1.8291766941547393798828125</LongitudeDegrees>
            </Position>
            <AltitudeMeters>464.600006103515625</AltitudeMeters>
            <DistanceMeters>1789.0337566572</DistanceMeters>
          </Trackpoint>
          <Trackpoint>
            <Time>2021-08-09T07:56:39.000Z</Time>
            <Position>
              <LatitudeDegrees>42.92455025017261505126953125</LatitudeDegrees>
              <LongitudeDegrees>-1.82914475910365581512451171875</LongitudeDegrees>
            </Position>
            <AltitudeMeters>465</AltitudeMeters>
            <DistanceMeters>1792.1653158564</DistanceMeters>
          </Trackpoint>
          <Trackpoint>
            <Time>2021-08-09T07:56:40.000Z</Time>
            <Position>
              <LatitudeDegrees>42.92456374503672122955322265625</LatitudeDegrees>
              <LongitudeDegrees>-1.82911776937544345855712890625</LongitudeDegrees>
            </Position>
            <AltitudeMeters>465.20001220703125</AltitudeMeters>
            <DistanceMeters>1794.8294555084</DistanceMeters>
          </Trackpoint>
          <Trackpoint>
            <Time>2021-08-09T07:56:41.000Z</Time>
            <Position>
              <LatitudeDegrees>42.9245769046247005462646484375</LatitudeDegrees>
              <LongitudeDegrees>-1.8290903605520725250244140625</LongitudeDegrees>
            </Position>
            <AltitudeMeters>465.20001220703125</AltitudeMeters>
            <DistanceMeters>1797.5020554536</DistanceMeters>
          </Trackpoint>
          <Trackpoint>
            <Time>2021-08-09T07:56:42.000Z</Time>
            <Position>
              <LatitudeDegrees>42.92459039948880672454833984375</LatitudeDegrees>
              <LongitudeDegrees>-1.82906328700482845306396484375</LongitudeDegrees>
            </Position>
            <AltitudeMeters>465.600006103515625</AltitudeMeters>
            <DistanceMeters>1800.1712744994</DistanceMeters>
          </Trackpoint>
          <Trackpoint>
            <Time>2021-08-09T07:56:43.000Z</Time>
            <Position>
              <LatitudeDegrees>42.92460448108613491058349609375</LatitudeDegrees>
              <LongitudeDegrees>-1.82903914712369441986083984375</LongitudeDegrees>
            </Position>
            <AltitudeMeters>465.79998779296875</AltitudeMeters>
            <DistanceMeters>1802.6854450407</DistanceMeters>
          </Trackpoint>
          <Trackpoint>
            <Time>2021-08-09T07:56:44.000Z</Time>
            <Position>
              <LatitudeDegrees>42.92461738921701908111572265625</LatitudeDegrees>
              <LongitudeDegrees>-1.82901115156710147857666015625</LongitudeDegrees>
            </Position>
            <AltitudeMeters>466</AltitudeMeters>
            <DistanceMeters>1805.3815925769</DistanceMeters>
          </Trackpoint>
          <Trackpoint>
            <Time>2021-08-09T07:56:45.000Z</Time>
            <Position>
              <LatitudeDegrees>42.92463130317628383636474609375</LatitudeDegrees>
              <LongitudeDegrees>-1.828989274799823760986328125</LongitudeDegrees>
            </Position>
            <AltitudeMeters>466.20001220703125</AltitudeMeters>
            <DistanceMeters>1807.7439192356</DistanceMeters>
          </Trackpoint>
          <Trackpoint>
            <Time>2021-08-09T07:56:46.000Z</Time>
            <Position>
              <LatitudeDegrees>42.9246447980403900146484375</LatitudeDegrees>
              <LongitudeDegrees>-1.828965805470943450927734375</LongitudeDegrees>
            </Position>
            <AltitudeMeters>466.399993896484375</AltitudeMeters>
            <DistanceMeters>1810.1740776655</DistanceMeters>
          </Trackpoint>
          <Trackpoint>
            <Time>2021-08-09T07:56:47.000Z</Time>
            <Position>
              <LatitudeDegrees>42.9246573708951473236083984375</LatitudeDegrees>
              <LongitudeDegrees>-1.828942000865936279296875</LongitudeDegrees>
            </Position>
            <AltitudeMeters>466.399993896484375</AltitudeMeters>
            <DistanceMeters>1812.5667891954</DistanceMeters>
          </Trackpoint>
          <Trackpoint>
            <Time>2021-08-09T07:56:48.000Z</Time>
            <Position>
              <LatitudeDegrees>42.92467237450182437896728515625</LatitudeDegrees>
              <LongitudeDegrees>-1.82891794480383396148681640625</LongitudeDegrees>
            </Position>
            <AltitudeMeters>466.600006103515625</AltitudeMeters>
            <DistanceMeters>1815.1447993317</DistanceMeters>
          </Trackpoint>
          <Trackpoint>
            <Time>2021-08-09T07:56:49.000Z</Time>
            <Position>
              <LatitudeDegrees>42.9246875457465648651123046875</LatitudeDegrees>
              <LongitudeDegrees>-1.828890703618526458740234375</LongitudeDegrees>
            </Position>
            <AltitudeMeters>467</AltitudeMeters>
            <DistanceMeters>1817.9347681299</DistanceMeters>
          </Trackpoint>
          <Trackpoint>
            <Time>2021-08-09T07:56:50.000Z</Time>
            <Position>
              <LatitudeDegrees>42.92469777166843414306640625</LatitudeDegrees>
              <LongitudeDegrees>-1.82886899448931217193603515625</LongitudeDegrees>
            </Position>
            <AltitudeMeters>467.20001220703125</AltitudeMeters>
            <DistanceMeters>1820.0382741217</DistanceMeters>
          </Trackpoint>
          <Trackpoint>
            <Time>2021-08-09T07:56:51.000Z</Time>
            <Position>
              <LatitudeDegrees>42.92471076361835002899169921875</LatitudeDegrees>
              <LongitudeDegrees>-1.82884653098881244659423828125</LongitudeDegrees>
            </Position>
            <AltitudeMeters>467.399993896484375</AltitudeMeters>
            <DistanceMeters>1822.3698199649</DistanceMeters>
          </Trackpoint>
          <Trackpoint>
            <Time>2021-08-09T07:56:52.000Z</Time>
            <Position>
              <LatitudeDegrees>42.92472434230148792266845703125</LatitudeDegrees>
              <LongitudeDegrees>-1.82882465422153472900390625</LongitudeDegrees>
            </Position>
            <AltitudeMeters>467.600006103515625</AltitudeMeters>
            <DistanceMeters>1824.7052355965</DistanceMeters>
          </Trackpoint>
          <Trackpoint>
            <Time>2021-08-09T07:56:53.000Z</Time>
            <Position>
              <LatitudeDegrees>42.92473607696592807769775390625</LatitudeDegrees>
              <LongitudeDegrees>-1.82880043052136898040771484375</LongitudeDegrees>
            </Position>
            <AltitudeMeters>467.79998779296875</AltitudeMeters>
            <DistanceMeters>1827.0713817026</DistanceMeters>
          </Trackpoint>
          <Trackpoint>
            <Time>2021-08-09T07:56:54.000Z</Time>
            <Position>
              <LatitudeDegrees>42.9247465543448925018310546875</LatitudeDegrees>
              <LongitudeDegrees>-1.82877897284924983978271484375</LongitudeDegrees>
            </Position>
            <AltitudeMeters>468</AltitudeMeters>
            <DistanceMeters>1829.1748876944</DistanceMeters>
          </Trackpoint>
          <Trackpoint>
            <Time>2021-08-09T07:56:55.000Z</Time>
            <Position>
              <LatitudeDegrees>42.92475971393287181854248046875</LatitudeDegrees>
              <LongitudeDegrees>-1.82875885628163814544677734375</LongitudeDegrees>
            </Position>
            <AltitudeMeters>468</AltitudeMeters>
            <DistanceMeters>1831.3749151883</DistanceMeters>
          </Trackpoint>
          <Trackpoint>
            <Time>2021-08-09T07:56:56.000Z</Time>
            <Position>
              <LatitudeDegrees>42.92477429844439029693603515625</LatitudeDegrees>
              <LongitudeDegrees>-1.8287426792085170745849609375</LongitudeDegrees>
            </Position>
            <AltitudeMeters>468.20001220703125</AltitudeMeters>
            <DistanceMeters>1833.4655029044</DistanceMeters>
          </Trackpoint>
          <Trackpoint>
            <Time>2021-08-09T07:56:57.000Z</Time>
            <Position>
              <LatitudeDegrees>42.92478888295590877532958984375</LatitudeDegrees>
              <LongitudeDegrees>-1.82872566394507884979248046875</LongitudeDegrees>
            </Position>
            <AltitudeMeters>468.20001220703125</AltitudeMeters>
            <DistanceMeters>1835.598847351</DistanceMeters>
          </Trackpoint>
          <Trackpoint>
            <Time>2021-08-09T07:56:58.000Z</Time>
            <Position>
              <LatitudeDegrees>42.92480279691517353057861328125</LatitudeDegrees>
              <LongitudeDegrees>-1.82870437391102313995361328125</LongitudeDegrees>
            </Position>
            <AltitudeMeters>468.600006103515625</AltitudeMeters>
            <DistanceMeters>1837.9245764388</DistanceMeters>
          </Trackpoint>
          <Trackpoint>
            <Time>2021-08-09T07:56:59.000Z</Time>
            <Position>
              <LatitudeDegrees>42.9248179681599140167236328125</LatitudeDegrees>
              <LongitudeDegrees>-1.82868249714374542236328125</LongitudeDegrees>
            </Position>
            <AltitudeMeters>468.79998779296875</AltitudeMeters>
            <DistanceMeters>1840.3806080071</DistanceMeters>
          </Trackpoint>
          <Trackpoint>
            <Time>2021-08-09T07:57:00.000Z</Time>
            <Position>
              <LatitudeDegrees>42.92483397759497165679931640625</LatitudeDegrees>
              <LongitudeDegrees>-1.82865777052938938140869140625</LongitudeDegrees>
            </Position>
            <AltitudeMeters>469</AltitudeMeters>
            <DistanceMeters>1843.0717269767</DistanceMeters>
          </Trackpoint>
          <Trackpoint>
            <Time>2021-08-09T07:57:01.000Z</Time>
            <Position>
              <LatitudeDegrees>42.92484872974455356597900390625</LatitudeDegrees>
              <LongitudeDegrees>-1.82863262481987476348876953125</LongitudeDegrees>
            </Position>
            <AltitudeMeters>469</AltitudeMeters>
            <DistanceMeters>1845.6983176191</DistanceMeters>
          </Trackpoint>
          <Trackpoint>
            <Time>2021-08-09T07:57:02.000Z</Time>
            <Position>
              <LatitudeDegrees>42.92486230842769145965576171875</LatitudeDegrees>
              <LongitudeDegrees>-1.82860999368131160736083984375</LongitudeDegrees>
            </Position>
            <AltitudeMeters>469.20001220703125</AltitudeMeters>
            <DistanceMeters>1848.0834692201</DistanceMeters>
          </Trackpoint>
          <Trackpoint>
            <Time>2021-08-09T07:57:03.000Z</Time>
            <Position>
              <LatitudeDegrees>42.9248756356537342071533203125</LatitudeDegrees>
              <LongitudeDegrees>-1.82858954183757305145263671875</LongitudeDegrees>
            </Position>
            <AltitudeMeters>469.399993896484375</AltitudeMeters>
            <DistanceMeters>1850.3160914894</DistanceMeters>
          </Trackpoint>
          <Trackpoint>
            <Time>2021-08-09T07:57:04.000Z</Time>
            <Position>
              <LatitudeDegrees>42.92489357292652130126953125</LatitudeDegrees>
              <LongitudeDegrees>-1.82857043109834194183349609375</LongitudeDegrees>
            </Position>
            <AltitudeMeters>469.399993896484375</AltitudeMeters>
            <DistanceMeters>1852.8481567087</DistanceMeters>
          </Trackpoint>
          <Trackpoint>
            <Time>2021-08-09T07:57:05.000Z</Time>
            <Position>
              <LatitudeDegrees>42.92490974999964237213134765625</LatitudeDegrees>
              <LongitudeDegrees>-1.82854997925460338592529296875</LongitudeDegrees>
            </Position>
            <AltitudeMeters>469.600006103515625</AltitudeMeters>
            <DistanceMeters>1855.3005088269</DistanceMeters>
          </Trackpoint>
          <Trackpoint>
            <Time>2021-08-09T07:57:06.000Z</Time>
            <Position>
              <LatitudeDegrees>42.92492198757827281951904296875</LatitudeDegrees>
              <LongitudeDegrees>-1.8285297788679599761962890625</LongitudeDegrees>
            </Position>
            <AltitudeMeters>469.79998779296875</AltitudeMeters>
            <DistanceMeters>1857.4359686379</DistanceMeters>
          </Trackpoint>
          <Trackpoint>
            <Time>2021-08-09T07:57:07.000Z</Time>
            <Position>
              <LatitudeDegrees>42.9249349795281887054443359375</LatitudeDegrees>
              <LongitudeDegrees>-1.82850991375744342803955078125</LongitudeDegrees>
            </Position>
            <AltitudeMeters>469.79998779296875</AltitudeMeters>
            <DistanceMeters>1859.6070743248</DistanceMeters>
          </Trackpoint>
          <Trackpoint>
            <Time>2021-08-09T07:57:08.000Z</Time>
            <Position>
              <LatitudeDegrees>42.92494830675423145294189453125</LatitudeDegrees>
              <LongitudeDegrees>-1.82848845608532428741455078125</LongitudeDegrees>
            </Position>
            <AltitudeMeters>470</AltitudeMeters>
            <DistanceMeters>1861.9015316826</DistanceMeters>
          </Trackpoint>
          <Trackpoint>
            <Time>2021-08-09T07:57:09.000Z</Time>
            <Position>
              <LatitudeDegrees>42.9249618016183376312255859375</LatitudeDegrees>
              <LongitudeDegrees>-1.8284633941948413848876953125</LongitudeDegrees>
            </Position>
            <AltitudeMeters>470.20001220703125</AltitudeMeters>
            <DistanceMeters>1864.4371606831</DistanceMeters>
          </Trackpoint>
          <Trackpoint>
            <Time>2021-08-09T07:57:10.000Z</Time>
            <Position>
              <LatitudeDegrees>42.92497345246374607086181640625</LatitudeDegrees>
              <LongitudeDegrees>-1.82844285853207111358642578125</LongitudeDegrees>
            </Position>
            <AltitudeMeters>470.399993896484375</AltitudeMeters>
            <DistanceMeters>1866.5535060982</DistanceMeters>
          </Trackpoint>
          <Trackpoint>
            <Time>2021-08-09T07:57:11.000Z</Time>
            <Position>
              <LatitudeDegrees>42.9249876178801059722900390625</LatitudeDegrees>
              <LongitudeDegrees>-1.8284201435744762420654296875</LongitudeDegrees>
            </Position>
            <AltitudeMeters>470.399993896484375</AltitudeMeters>
            <DistanceMeters>1868.9836645281</DistanceMeters>
          </Trackpoint>
          <Trackpoint>
            <Time>2021-08-09T07:57:12.000Z</Time>
            <Position>
              <LatitudeDegrees>42.9250033758580684661865234375</LatitudeDegrees>
              <LongitudeDegrees>-1.828397847712039947509765625</LongitudeDegrees>
            </Position>
            <AltitudeMeters>470.600006103515625</AltitudeMeters>
            <DistanceMeters>1871.5103746512</DistanceMeters>
          </Trackpoint>
          <Trackpoint>
            <Time>2021-08-09T07:57:13.000Z</Time>
            <Position>
              <LatitudeDegrees>42.92501829564571380615234375</LatitudeDegrees>
              <LongitudeDegrees>-1.82837664149701595306396484375</LongitudeDegrees>
            </Position>
            <AltitudeMeters>470.600006103515625</AltitudeMeters>
            <DistanceMeters>1873.9068572024</DistanceMeters>
          </Trackpoint>
          <Trackpoint>
            <Time>2021-08-09T07:57:14.000Z</Time>
            <Position>
              <LatitudeDegrees>42.92503145523369312286376953125</LatitudeDegrees>
              <LongitudeDegrees>-1.82835451327264308929443359375</LongitudeDegrees>
            </Position>
            <AltitudeMeters>470.79998779296875</AltitudeMeters>
            <DistanceMeters>1876.2306441362</DistanceMeters>
          </Trackpoint>
          <Trackpoint>
            <Time>2021-08-09T07:57:15.000Z</Time>
            <Position>
              <LatitudeDegrees>42.92504570446908473968505859375</LatitudeDegrees>
              <LongitudeDegrees>-1.82833422906696796417236328125</LongitudeDegrees>
            </Position>
            <AltitudeMeters>471</AltitudeMeters>
            <DistanceMeters>1878.5191904734</DistanceMeters>
          </Trackpoint>
          <Trackpoint>
            <Time>2021-08-09T07:57:16.000Z</Time>
            <Position>
              <LatitudeDegrees>42.92506045661866664886474609375</LatitudeDegrees>
              <LongitudeDegrees>-1.8283135257661342620849609375</LongitudeDegrees>
            </Position>
            <AltitudeMeters>471</AltitudeMeters>
            <DistanceMeters>1880.8738596511</DistanceMeters>
          </Trackpoint>
          <Trackpoint>
            <Time>2021-08-09T07:57:17.000Z</Time>
            <Position>
              <LatitudeDegrees>42.92507537640631198883056640625</LatitudeDegrees>
              <LongitudeDegrees>-1.82829131372272968292236328125</LongitudeDegrees>
            </Position>
            <AltitudeMeters>471.20001220703125</AltitudeMeters>
            <DistanceMeters>1883.3298912194</DistanceMeters>
          </Trackpoint>
          <Trackpoint>
            <Time>2021-08-09T07:57:18.000Z</Time>
            <Position>
              <LatitudeDegrees>42.92508945800364017486572265625</LatitudeDegrees>
              <LongitudeDegrees>-1.8282675929367542266845703125</LongitudeDegrees>
            </Position>
            <AltitudeMeters>471.399993896484375</AltitudeMeters>
            <DistanceMeters>1885.8187930738</DistanceMeters>
          </Trackpoint>
          <Trackpoint>
            <Time>2021-08-09T07:57:19.000Z</Time>
            <Position>
              <LatitudeDegrees>42.92510538361966609954833984375</LatitudeDegrees>
              <LongitudeDegrees>-1.82824320159852504730224609375</LongitudeDegrees>
            </Position>
            <AltitudeMeters>471.399993896484375</AltitudeMeters>
            <DistanceMeters>1888.4829327257</DistanceMeters>
          </Trackpoint>
          <Trackpoint>
            <Time>2021-08-09T07:57:20.000Z</Time>
            <Position>
              <LatitudeDegrees>42.92512047104537487030029296875</LatitudeDegrees>
              <LongitudeDegrees>-1.8282191455364227294921875</LongitudeDegrees>
            </Position>
            <AltitudeMeters>471.600006103515625</AltitudeMeters>
            <DistanceMeters>1891.0661916155</DistanceMeters>
          </Trackpoint>
          <Trackpoint>
            <Time>2021-08-09T07:57:21.000Z</Time>
            <Position>
              <LatitudeDegrees>42.9251348040997982025146484375</LatitudeDegrees>
              <LongitudeDegrees>-1.8281988613307476043701171875</LongitudeDegrees>
            </Position>
            <AltitudeMeters>471.600006103515625</AltitudeMeters>
            <DistanceMeters>1893.3645812082</DistanceMeters>
          </Trackpoint>
          <Trackpoint>
            <Time>2021-08-09T07:57:22.000Z</Time>
            <Position>
              <LatitudeDegrees>42.92515031062066555023193359375</LatitudeDegrees>
              <LongitudeDegrees>-1.8281787447631359100341796875</LongitudeDegrees>
            </Position>
            <AltitudeMeters>471.79998779296875</AltitudeMeters>
            <DistanceMeters>1895.74783908</DistanceMeters>
          </Trackpoint>
          <Trackpoint>
            <Time>2021-08-09T07:57:23.000Z</Time>
            <Position>
              <LatitudeDegrees>42.9251651465892791748046875</LatitudeDegrees>
              <LongitudeDegrees>-1.82816172949969768524169921875</LongitudeDegrees>
            </Position>
            <AltitudeMeters>472</AltitudeMeters>
            <DistanceMeters>1897.9064310852</DistanceMeters>
          </Trackpoint>
          <Trackpoint>
            <Time>2021-08-09T07:57:24.000Z</Time>
            <Position>
              <LatitudeDegrees>42.92517780326306819915771484375</LatitudeDegrees>
              <LongitudeDegrees>-1.82814312167465686798095703125</LongitudeDegrees>
            </Position>
            <AltitudeMeters>472</AltitudeMeters>
            <DistanceMeters>1899.9796692257</DistanceMeters>
          </Trackpoint>
          <Trackpoint>
            <Time>2021-08-09T07:57:25.000Z</Time>
            <Position>
              <LatitudeDegrees>42.925190292298793792724609375</LatitudeDegrees>
              <LongitudeDegrees>-1.82812736369669437408447265625</LongitudeDegrees>
            </Position>
            <AltitudeMeters>472.20001220703125</AltitudeMeters>
            <DistanceMeters>1901.8730630961</DistanceMeters>
          </Trackpoint>
          <Trackpoint>
            <Time>2021-08-09T07:57:26.000Z</Time>
            <Position>
              <LatitudeDegrees>42.92520663700997829437255859375</LatitudeDegrees>
              <LongitudeDegrees>-1.8281069956719875335693359375</LongitudeDegrees>
            </Position>
            <AltitudeMeters>472.20001220703125</AltitudeMeters>
            <DistanceMeters>1904.3364370771</DistanceMeters>
          </Trackpoint>
          <Trackpoint>
            <Time>2021-08-09T07:57:27.000Z</Time>
            <Position>
              <LatitudeDegrees>42.92522323317825794219970703125</LatitudeDegrees>
              <LongitudeDegrees>-1.82808679528534412384033203125</LongitudeDegrees>
            </Position>
            <AltitudeMeters>472.20001220703125</AltitudeMeters>
            <DistanceMeters>1906.810783825</DistanceMeters>
          </Trackpoint>
          <Trackpoint>
            <Time>2021-08-09T07:57:28.000Z</Time>
            <Position>
              <LatitudeDegrees>42.92524091899394989013671875</LatitudeDegrees>
              <LongitudeDegrees>-1.8280630744993686676025390625</LongitudeDegrees>
            </Position>
            <AltitudeMeters>472.399993896484375</AltitudeMeters>
            <DistanceMeters>1909.5714693411</DistanceMeters>
          </Trackpoint>
          <Trackpoint>
            <Time>2021-08-09T07:57:29.000Z</Time>
            <Position>
              <LatitudeDegrees>42.9252558387815952301025390625</LatitudeDegrees>
              <LongitudeDegrees>-1.82804438285529613494873046875</LongitudeDegrees>
            </Position>
            <AltitudeMeters>472.600006103515625</AltitudeMeters>
            <DistanceMeters>1911.8242238687</DistanceMeters>
          </Trackpoint>
          <Trackpoint>
            <Time>2021-08-09T07:57:30.000Z</Time>
            <Position>
              <LatitudeDegrees>42.9252719320356845855712890625</LatitudeDegrees>
              <LongitudeDegrees>-1.82802527211606502532958984375</LongitudeDegrees>
            </Position>
            <AltitudeMeters>472.600006103515625</AltitudeMeters>
            <DistanceMeters>1914.1979904328</DistanceMeters>
          </Trackpoint>
          <Trackpoint>
            <Time>2021-08-09T07:57:31.000Z</Time>
            <Position>
              <LatitudeDegrees>42.92529095895588397979736328125</LatitudeDegrees>
              <LongitudeDegrees>-1.82800482027232646942138671875</LongitudeDegrees>
            </Position>
            <AltitudeMeters>472.79998779296875</AltitudeMeters>
            <DistanceMeters>1916.8941379691</DistanceMeters>
          </Trackpoint>
          <Trackpoint>
            <Time>2021-08-09T07:57:32.000Z</Time>
            <Position>
              <LatitudeDegrees>42.92530822567641735076904296875</LatitudeDegrees>
              <LongitudeDegrees>-1.82798822410404682159423828125</LongitudeDegrees>
            </Position>
            <AltitudeMeters>473</AltitudeMeters>
            <DistanceMeters>1919.2449690527</DistanceMeters>
          </Trackpoint>
          <Trackpoint>
            <Time>2021-08-09T07:57:33.000Z</Time>
            <Position>
              <LatitudeDegrees>42.92532247491180896759033203125</LatitudeDegrees>
              <LongitudeDegrees>-1.82797363959252834320068359375</LongitudeDegrees>
            </Position>
            <AltitudeMeters>473</AltitudeMeters>
            <DistanceMeters>1921.2269083185</DistanceMeters>
          </Trackpoint>
          <Trackpoint>
            <Time>2021-08-09T07:57:34.000Z</Time>
            <Position>
              <LatitudeDegrees>42.92534150183200836181640625</LatitudeDegrees>
              <LongitudeDegrees>-1.82795721106231212615966796875</LongitudeDegrees>
            </Position>
            <AltitudeMeters>473.20001220703125</AltitudeMeters>
            <DistanceMeters>1923.7320835875</DistanceMeters>
          </Trackpoint>
          <Trackpoint>
            <Time>2021-08-09T07:57:35.000Z</Time>
            <Position>
              <LatitudeDegrees>42.9253604449331760406494140625</LatitudeDegrees>
              <LongitudeDegrees>-1.82793927378952503204345703125</LongitudeDegrees>
            </Position>
            <AltitudeMeters>473.399993896484375</AltitudeMeters>
            <DistanceMeters>1926.2978048755</DistanceMeters>
          </Trackpoint>
          <Trackpoint>
            <Time>2021-08-09T07:57:36.000Z</Time>
            <Position>
              <LatitudeDegrees>42.92537880130112171173095703125</LatitudeDegrees>
              <LongitudeDegrees>-1.8279219232499599456787109375</LongitudeDegrees>
            </Position>
            <AltitudeMeters>473.20001220703125</AltitudeMeters>
            <DistanceMeters>1928.7830759447</DistanceMeters>
          </Trackpoint>
          <Trackpoint>
            <Time>2021-08-09T07:57:37.000Z</Time>
            <Position>
              <LatitudeDegrees>42.92539916932582855224609375</LatitudeDegrees>
              <LongitudeDegrees>-1.82790541090071201324462890625</LongitudeDegrees>
            </Position>
            <AltitudeMeters>473.399993896484375</AltitudeMeters>
            <DistanceMeters>1931.4199602543</DistanceMeters>
          </Trackpoint>
          <Trackpoint>
            <Time>2021-08-09T07:57:38.000Z</Time>
            <Position>
              <LatitudeDegrees>42.92542054317891597747802734375</LatitudeDegrees>
              <LongitudeDegrees>-1.82788579724729061126708984375</LongitudeDegrees>
            </Position>
            <AltitudeMeters>473.399993896484375</AltitudeMeters>
            <DistanceMeters>1934.28655572</DistanceMeters>
          </Trackpoint>
          <Trackpoint>
            <Time>2021-08-09T07:57:39.000Z</Time>
            <Position>
              <LatitudeDegrees>42.92544032447040081024169921875</LatitudeDegrees>
              <LongitudeDegrees>-1.8278704583644866943359375</LongitudeDegrees>
            </Position>
            <AltitudeMeters>473.600006103515625</AltitudeMeters>
            <DistanceMeters>1936.8186209393</DistanceMeters>
          </Trackpoint>
          <Trackpoint>
            <Time>2021-08-09T07:57:40.000Z</Time>
            <Position>
              <LatitudeDegrees>42.92545893229544162750244140625</LatitudeDegrees>
              <LongitudeDegrees>-1.82785612531006336212158203125</LongitudeDegrees>
            </Position>
            <AltitudeMeters>473.600006103515625</AltitudeMeters>
            <DistanceMeters>1939.1961885733</DistanceMeters>
          </Trackpoint>
          <Trackpoint>
            <Time>2021-08-09T07:57:41.000Z</Time>
            <Position>
              <LatitudeDegrees>42.92547703720629215240478515625</LatitudeDegrees>
              <LongitudeDegrees>-1.8278409540653228759765625</LongitudeDegrees>
            </Position>
            <AltitudeMeters>473.79998779296875</AltitudeMeters>
            <DistanceMeters>1941.558515232</DistanceMeters>
          </Trackpoint>
          <Trackpoint>
            <Time>2021-08-09T07:57:42.000Z</Time>
            <Position>
              <LatitudeDegrees>42.9254938848316669464111328125</LatitudeDegrees>
              <LongitudeDegrees>-1.827825196087360382080078125</LongitudeDegrees>
            </Position>
            <AltitudeMeters>473.79998779296875</AltitudeMeters>
            <DistanceMeters>1943.831223688</DistanceMeters>
          </Trackpoint>
          <Trackpoint>
            <Time>2021-08-09T07:57:43.000Z</Time>
            <Position>
              <LatitudeDegrees>42.92551123537123203277587890625</LatitudeDegrees>
              <LongitudeDegrees>-1.8278112821280956268310546875</LongitudeDegrees>
            </Position>
            <AltitudeMeters>474</AltitudeMeters>
            <DistanceMeters>1946.0719205668</DistanceMeters>
          </Trackpoint>
          <Trackpoint>
            <Time>2021-08-09T07:57:44.000Z</Time>
            <Position>
              <LatitudeDegrees>42.9255294241011142730712890625</LatitudeDegrees>
              <LongitudeDegrees>-1.82779862545430660247802734375</LongitudeDegrees>
            </Position>
            <AltitudeMeters>474</AltitudeMeters>
            <DistanceMeters>1948.3446290228</DistanceMeters>
          </Trackpoint>
          <Trackpoint>
            <Time>2021-08-09T07:57:45.000Z</Time>
            <Position>
              <LatitudeDegrees>42.92554928921163082122802734375</LatitudeDegrees>
              <LongitudeDegrees>-1.82778638787567615509033203125</LongitudeDegrees>
            </Position>
            <AltitudeMeters>474.20001220703125</AltitudeMeters>
            <DistanceMeters>1950.7710687689</DistanceMeters>
          </Trackpoint>
          <Trackpoint>
            <Time>2021-08-09T07:57:46.000Z</Time>
            <Position>
              <LatitudeDegrees>42.92556806467473506927490234375</LatitudeDegrees>
              <LongitudeDegrees>-1.8277733959257602691650390625</LongitudeDegrees>
            </Position>
            <AltitudeMeters>474.20001220703125</AltitudeMeters>
            <DistanceMeters>1953.1142048038</DistanceMeters>
          </Trackpoint>
          <Trackpoint>
            <Time>2021-08-09T07:57:47.000Z</Time>
            <Position>
              <LatitudeDegrees>42.92558826506137847900390625</LatitudeDegrees>
              <LongitudeDegrees>-1.82776124216616153717041015625</LongitudeDegrees>
            </Position>
            <AltitudeMeters>474.20001220703125</AltitudeMeters>
            <DistanceMeters>1955.5702363721</DistanceMeters>
          </Trackpoint>
          <Trackpoint>
            <Time>2021-08-09T07:57:48.000Z</Time>
            <Position>
              <LatitudeDegrees>42.92560838162899017333984375</LatitudeDegrees>
              <LongitudeDegrees>-1.82774615474045276641845703125</LongitudeDegrees>
            </Position>
            <AltitudeMeters>474.399993896484375</AltitudeMeters>
            <DistanceMeters>1958.1236096688</DistanceMeters>
          </Trackpoint>
          <Trackpoint>
            <Time>2021-08-09T07:57:49.000Z</Time>
            <Position>
              <LatitudeDegrees>42.92562657035887241363525390625</LatitudeDegrees>
              <LongitudeDegrees>-1.82773341424763202667236328125</LongitudeDegrees>
            </Position>
            <AltitudeMeters>474.600006103515625</AltitudeMeters>
            <DistanceMeters>1960.4002879243</DistanceMeters>
          </Trackpoint>
          <Trackpoint>
            <Time>2021-08-09T07:57:50.000Z</Time>
            <Position>
              <LatitudeDegrees>42.9256464354693889617919921875</LatitudeDegrees>
              <LongitudeDegrees>-1.82772134430706501007080078125</LongitudeDegrees>
            </Position>
            <AltitudeMeters>474.79998779296875</AltitudeMeters>
            <DistanceMeters>1962.8192731528</DistanceMeters>
          </Trackpoint>
          <Trackpoint>
            <Time>2021-08-09T07:57:51.000Z</Time>
            <Position>
              <LatitudeDegrees>42.92566697113215923309326171875</LatitudeDegrees>
              <LongitudeDegrees>-1.8277095258235931396484375</LongitudeDegrees>
            </Position>
            <AltitudeMeters>474.79998779296875</AltitudeMeters>
            <DistanceMeters>1965.3009081249</DistanceMeters>
          </Trackpoint>
          <Trackpoint>
            <Time>2021-08-09T07:57:52.000Z</Time>
            <Position>
              <LatitudeDegrees>42.92568759061396121978759765625</LatitudeDegrees>
              <LongitudeDegrees>-1.82769871316850185394287109375</LongitudeDegrees>
            </Position>
            <AltitudeMeters>475</AltitudeMeters>
            <DistanceMeters>1967.7606136393</DistanceMeters>
          </Trackpoint>
          <Trackpoint>
            <Time>2021-08-09T07:57:53.000Z</Time>
            <Position>
              <LatitudeDegrees>42.92570435442030429840087890625</LatitudeDegrees>
              <LongitudeDegrees>-1.82768873870372772216796875</LongitudeDegrees>
            </Position>
            <AltitudeMeters>475</AltitudeMeters>
            <DistanceMeters>1969.7987096047</DistanceMeters>
          </Trackpoint>
          <Trackpoint>
            <Time>2021-08-09T07:57:54.000Z</Time>
            <Position>
              <LatitudeDegrees>42.92572262696921825408935546875</LatitudeDegrees>
              <LongitudeDegrees>-1.82767859660089015960693359375</LongitudeDegrees>
            </Position>
            <AltitudeMeters>475.20001220703125</AltitudeMeters>
            <DistanceMeters>1971.996683876</DistanceMeters>
          </Trackpoint>
          <Trackpoint>
            <Time>2021-08-09T07:57:55.000Z</Time>
            <Position>
              <LatitudeDegrees>42.92574073188006877899169921875</LatitudeDegrees>
              <LongitudeDegrees>-1.82767021469771862030029296875</LongitudeDegrees>
            </Position>
            <AltitudeMeters>475.399993896484375</AltitudeMeters>
            <DistanceMeters>1974.1215458061</DistanceMeters>
          </Trackpoint>
          <Trackpoint>
            <Time>2021-08-09T07:57:56.000Z</Time>
            <Position>
              <LatitudeDegrees>42.92575749568641185760498046875</LatitudeDegrees>
              <LongitudeDegrees>-1.82766132988035678863525390625</LongitudeDegrees>
            </Position>
            <AltitudeMeters>475.600006103515625</AltitudeMeters>
            <DistanceMeters>1976.1238829259</DistanceMeters>
          </Trackpoint>
          <Trackpoint>
            <Time>2021-08-09T07:57:57.000Z</Time>
            <Position>
              <LatitudeDegrees>42.92577375657856464385986328125</LatitudeDegrees>
              <LongitudeDegrees>-1.8276530317962169647216796875</LongitudeDegrees>
            </Position>
            <AltitudeMeters>475.79998779296875</AltitudeMeters>
            <DistanceMeters>1978.0573905281</DistanceMeters>
          </Trackpoint>
          <Trackpoint>
            <Time>2021-08-09T07:57:58.000Z</Time>
            <Position>
              <LatitudeDegrees>42.9257901012897491455078125</LatitudeDegrees>
              <LongitudeDegrees>-1.82764305733144283294677734375</LongitudeDegrees>
            </Position>
            <AltitudeMeters>475.79998779296875</AltitudeMeters>
            <DistanceMeters>1980.0484213061</DistanceMeters>
          </Trackpoint>
          <Trackpoint>
            <Time>2021-08-09T07:57:59.000Z</Time>
            <Position>
              <LatitudeDegrees>42.92580912820994853973388671875</LatitudeDegrees>
              <LongitudeDegrees>-1.82763299904763698577880859375</LongitudeDegrees>
            </Position>
            <AltitudeMeters>475.79998779296875</AltitudeMeters>
            <DistanceMeters>1982.321129762</DistanceMeters>
          </Trackpoint>
          <Trackpoint>
            <Time>2021-08-09T07:58:00.000Z</Time>
            <Position>
              <LatitudeDegrees>42.92582907713949680328369140625</LatitudeDegrees>
              <LongitudeDegrees>-1.82762361131608486175537109375</LongitudeDegrees>
            </Position>
            <AltitudeMeters>476</AltitudeMeters>
            <DistanceMeters>1984.668116475</DistanceMeters>
          </Trackpoint>
          <Trackpoint>
            <Time>2021-08-09T07:58:01.000Z</Time>
            <Position>
              <LatitudeDegrees>42.92584634386003017425537109375</LatitudeDegrees>
              <LongitudeDegrees>-1.8276154808700084686279296875</LongitudeDegrees>
            </Position>
            <AltitudeMeters>476</AltitudeMeters>
            <DistanceMeters>1986.7017769706</DistanceMeters>
          </Trackpoint>
          <Trackpoint>
            <Time>2021-08-09T07:58:02.000Z</Time>
            <Position>
              <LatitudeDegrees>42.92586696334183216094970703125</LatitudeDegrees>
              <LongitudeDegrees>-1.8276064284145832061767578125</LongitudeDegrees>
            </Position>
            <AltitudeMeters>476.20001220703125</AltitudeMeters>
            <DistanceMeters>1989.113284638</DistanceMeters>
          </Trackpoint>
          <Trackpoint>
            <Time>2021-08-09T07:58:03.000Z</Time>
            <Position>
              <LatitudeDegrees>42.9258871637284755706787109375</LatitudeDegrees>
              <LongitudeDegrees>-1.8275997228920459747314453125</LongitudeDegrees>
            </Position>
            <AltitudeMeters>476.20001220703125</AltitudeMeters>
            <DistanceMeters>1991.429286669</DistanceMeters>
          </Trackpoint>
          <Trackpoint>
            <Time>2021-08-09T07:58:04.000Z</Time>
            <Position>
              <LatitudeDegrees>42.92590677738189697265625</LatitudeDegrees>
              <LongitudeDegrees>-1.82759310118854045867919921875</LongitudeDegrees>
            </Position>
            <AltitudeMeters>476.399993896484375</AltitudeMeters>
            <DistanceMeters>1993.678029164</DistanceMeters>
          </Trackpoint>
          <Trackpoint>
            <Time>2021-08-09T07:58:05.000Z</Time>
            <Position>
              <LatitudeDegrees>42.925925888121128082275390625</LatitudeDegrees>
              <LongitudeDegrees>-1.82758438400924205780029296875</LongitudeDegrees>
            </Position>
            <AltitudeMeters>476.600006103515625</AltitudeMeters>
            <DistanceMeters>1995.9187260428</DistanceMeters>
          </Trackpoint>
          <Trackpoint>
            <Time>2021-08-09T07:58:06.000Z</Time>
            <Position>
              <LatitudeDegrees>42.92594592086970806121826171875</LatitudeDegrees>
              <LongitudeDegrees>-1.82757650502026081085205078125</LongitudeDegrees>
            </Position>
            <AltitudeMeters>476.600006103515625</AltitudeMeters>
            <DistanceMeters>1998.2386237907</DistanceMeters>
          </Trackpoint>
          <Trackpoint>
            <Time>2021-08-09T07:58:07.000Z</Time>
            <Position>
              <LatitudeDegrees>42.925967462360858917236328125</LatitudeDegrees>
              <LongitudeDegrees>-1.82756979949772357940673828125</LongitudeDegrees>
            </Position>
            <AltitudeMeters>476.79998779296875</AltitudeMeters>
            <DistanceMeters>2000.6983293051</DistanceMeters>
          </Trackpoint>
          <Trackpoint>
            <Time>2021-08-09T07:58:08.000Z</Time>
            <Position>
              <LatitudeDegrees>42.92598933912813663482666015625</LatitudeDegrees>
              <LongitudeDegrees>-1.8275635130703449249267578125</LongitudeDegrees>
            </Position>
            <AltitudeMeters>476.79998779296875</AltitudeMeters>
            <DistanceMeters>2003.1854164294</DistanceMeters>
          </Trackpoint>
          <Trackpoint>
            <Time>2021-08-09T07:58:09.000Z</Time>
            <Position>
              <LatitudeDegrees>42.926011718809604644775390625</LatitudeDegrees>
              <LongitudeDegrees>-1.82755462825298309326171875</LongitudeDegrees>
            </Position>
            <AltitudeMeters>477.20001220703125</AltitudeMeters>
            <DistanceMeters>2005.7808811329</DistanceMeters>
          </Trackpoint>
          <Trackpoint>
            <Time>2021-08-09T07:58:10.000Z</Time>
            <Position>
              <LatitudeDegrees>42.9260350205004215240478515625</LatitudeDegrees>
              <LongitudeDegrees>-1.82754599489271640777587890625</LongitudeDegrees>
            </Position>
            <AltitudeMeters>477.20001220703125</AltitudeMeters>
            <DistanceMeters>2008.4686424979</DistanceMeters>
          </Trackpoint>
          <Trackpoint>
            <Time>2021-08-09T07:58:11.000Z</Time>
            <Position>
              <LatitudeDegrees>42.92605622671544551849365234375</LatitudeDegrees>
              <LongitudeDegrees>-1.827538870275020599365234375</LongitudeDegrees>
            </Position>
            <AltitudeMeters>477.399993896484375</AltitudeMeters>
            <DistanceMeters>2010.9025139299</DistanceMeters>
          </Trackpoint>
          <Trackpoint>
            <Time>2021-08-09T07:58:12.000Z</Time>
            <Position>
              <LatitudeDegrees>42.926075421273708343505859375</LatitudeDegrees>
              <LongitudeDegrees>-1.82753258384764194488525390625</LongitudeDegrees>
            </Position>
            <AltitudeMeters>477.399993896484375</AltitudeMeters>
            <DistanceMeters>2013.1025414238</DistanceMeters>
          </Trackpoint>
          <Trackpoint>
            <Time>2021-08-09T07:58:13.000Z</Time>
            <Position>
              <LatitudeDegrees>42.92609252035617828369140625</LatitudeDegrees>
              <LongitudeDegrees>-1.827526800334453582763671875</LongitudeDegrees>
            </Position>
            <AltitudeMeters>477.600006103515625</AltitudeMeters>
            <DistanceMeters>2015.0684693772</DistanceMeters>
          </Trackpoint>
          <Trackpoint>
            <Time>2021-08-09T07:58:14.000Z</Time>
            <Position>
              <LatitudeDegrees>42.92610953561961650848388671875</LatitudeDegrees>
              <LongitudeDegrees>-1.82752235792577266693115234375</LongitudeDegrees>
            </Position>
            <AltitudeMeters>477.600006103515625</AltitudeMeters>
            <DistanceMeters>2016.997301017</DistanceMeters>
          </Trackpoint>
          <Trackpoint>
            <Time>2021-08-09T07:58:15.000Z</Time>
            <Position>
              <LatitudeDegrees>42.9261282272636890411376953125</LatitudeDegrees>
              <LongitudeDegrees>-1.827514730393886566162109375</LongitudeDegrees>
            </Position>
            <AltitudeMeters>477.600006103515625</AltitudeMeters>
            <DistanceMeters>2019.1704853121</DistanceMeters>
          </Trackpoint>
          <Trackpoint>
            <Time>2021-08-09T07:58:16.000Z</Time>
            <Position>
              <LatitudeDegrees>42.9261470027267932891845703125</LatitudeDegrees>
              <LongitudeDegrees>-1.82750861160457134246826171875</LongitudeDegrees>
            </Position>
            <AltitudeMeters>477.79998779296875</AltitudeMeters>
            <DistanceMeters>2021.3164906677</DistanceMeters>
          </Trackpoint>
          <Trackpoint>
            <Time>2021-08-09T07:58:17.000Z</Time>
            <Position>
              <LatitudeDegrees>42.9261698015034198760986328125</LatitudeDegrees>
              <LongitudeDegrees>-1.8275028280913829803466796875</LongitudeDegrees>
            </Position>
            <AltitudeMeters>477.79998779296875</AltitudeMeters>
            <DistanceMeters>2023.8980011588</DistanceMeters>
          </Trackpoint>
          <Trackpoint>
            <Time>2021-08-09T07:58:18.000Z</Time>
            <Position>
              <LatitudeDegrees>42.92619251646101474761962890625</LatitudeDegrees>
              <LongitudeDegrees>-1.82749536819756031036376953125</LongitudeDegrees>
            </Position>
            <AltitudeMeters>478</AltitudeMeters>
            <DistanceMeters>2026.4969427088</DistanceMeters>
          </Trackpoint>
          <Trackpoint>
            <Time>2021-08-09T07:58:19.000Z</Time>
            <Position>
              <LatitudeDegrees>42.92621380649507045745849609375</LatitudeDegrees>
              <LongitudeDegrees>-1.827486567199230194091796875</LongitudeDegrees>
            </Position>
            <AltitudeMeters>478</AltitudeMeters>
            <DistanceMeters>2028.9731135238</DistanceMeters>
          </Trackpoint>
          <Trackpoint>
            <Time>2021-08-09T07:58:20.000Z</Time>
            <Position>
              <LatitudeDegrees>42.92623526416718959808349609375</LatitudeDegrees>
              <LongitudeDegrees>-1.82748229242861270904541015625</LongitudeDegrees>
            </Position>
            <AltitudeMeters>478</AltitudeMeters>
            <DistanceMeters>2031.3846211912</DistanceMeters>
          </Trackpoint>
          <Trackpoint>
            <Time>2021-08-09T07:58:21.000Z</Time>
            <Position>
              <LatitudeDegrees>42.926255799829959869384765625</LatitudeDegrees>
              <LongitudeDegrees>-1.82747843675315380096435546875</LongitudeDegrees>
            </Position>
            <AltitudeMeters>478</AltitudeMeters>
            <DistanceMeters>2033.6928120633</DistanceMeters>
          </Trackpoint>
          <Trackpoint>
            <Time>2021-08-09T07:58:22.000Z</Time>
            <Position>
              <LatitudeDegrees>42.926272563636302947998046875</LatitudeDegrees>
              <LongitudeDegrees>-1.8274743296205997467041015625</LongitudeDegrees>
            </Position>
            <AltitudeMeters>478.20001220703125</AltitudeMeters>
            <DistanceMeters>2035.5885890609</DistanceMeters>
          </Trackpoint>
          <Trackpoint>
            <Time>2021-08-09T07:58:23.000Z</Time>
            <Position>
              <LatitudeDegrees>42.92629770934581756591796875</LatitudeDegrees>
              <LongitudeDegrees>-1.8274679593741893768310546875</LongitudeDegrees>
            </Position>
            <AltitudeMeters>478.20001220703125</AltitudeMeters>
            <DistanceMeters>2038.4362211732</DistanceMeters>
          </Trackpoint>
          <Trackpoint>
            <Time>2021-08-09T07:58:24.000Z</Time>
            <Position>
              <LatitudeDegrees>42.9263183288276195526123046875</LatitudeDegrees>
              <LongitudeDegrees>-1.82746184058487415313720703125</LongitudeDegrees>
            </Position>
            <AltitudeMeters>478.399993896484375</AltitudeMeters>
            <DistanceMeters>2040.785130858</DistanceMeters>
          </Trackpoint>
          <Trackpoint>
            <Time>2021-08-09T07:58:25.000Z</Time>
            <Position>
              <LatitudeDegrees>42.92633928358554840087890625</LatitudeDegrees>
              <LongitudeDegrees>-1.8274558894336223602294921875</LongitudeDegrees>
            </Position>
            <AltitudeMeters>478.399993896484375</AltitudeMeters>
            <DistanceMeters>2043.1664934945</DistanceMeters>
          </Trackpoint>
          <Trackpoint>
            <Time>2021-08-09T07:58:26.000Z</Time>
            <Position>
              <LatitudeDegrees>42.92636166326701641082763671875</LatitudeDegrees>
              <LongitudeDegrees>-1.8274520337581634521484375</LongitudeDegrees>
            </Position>
            <AltitudeMeters>478.600006103515625</AltitudeMeters>
            <DistanceMeters>2045.6770697945</DistanceMeters>
          </Trackpoint>
          <Trackpoint>
            <Time>2021-08-09T07:58:27.000Z</Time>
            <Position>
              <LatitudeDegrees>42.92638043873012065887451171875</LatitudeDegrees>
              <LongitudeDegrees>-1.8274485133588314056396484375</LongitudeDegrees>
            </Position>
            <AltitudeMeters>478.600006103515625</AltitudeMeters>
            <DistanceMeters>2047.7848642841</DistanceMeters>
          </Trackpoint>
          <Trackpoint>
            <Time>2021-08-09T07:58:28.000Z</Time>
            <Position>
              <LatitudeDegrees>42.9263987950980663299560546875</LatitudeDegrees>
              <LongitudeDegrees>-1.8274438194930553436279296875</LongitudeDegrees>
            </Position>
            <AltitudeMeters>478.600006103515625</AltitudeMeters>
            <DistanceMeters>2049.8624534013</DistanceMeters>
          </Trackpoint>
          <Trackpoint>
            <Time>2021-08-09T07:58:29.000Z</Time>
            <Position>
              <LatitudeDegrees>42.92641581036150455474853515625</LatitudeDegrees>
              <LongitudeDegrees>-1.8274386227130889892578125</LongitudeDegrees>
            </Position>
            <AltitudeMeters>478.600006103515625</AltitudeMeters>
            <DistanceMeters>2051.8029538206</DistanceMeters>
          </Trackpoint>
          <Trackpoint>
            <Time>2021-08-09T07:58:30.000Z</Time>
            <Position>
              <LatitudeDegrees>42.92643240652978420257568359375</LatitudeDegrees>
              <LongitudeDegrees>-1.82743451558053493499755859375</LongitudeDegrees>
            </Position>
            <AltitudeMeters>478.79998779296875</AltitudeMeters>
            <DistanceMeters>2053.6795810647</DistanceMeters>
          </Trackpoint>
          <Trackpoint>
            <Time>2021-08-09T07:58:31.000Z</Time>
            <Position>
              <LatitudeDegrees>42.92645134963095188140869140625</LatitudeDegrees>
              <LongitudeDegrees>-1.8274310790002346038818359375</LongitudeDegrees>
            </Position>
            <AltitudeMeters>479</AltitudeMeters>
            <DistanceMeters>2055.8065667953</DistanceMeters>
          </Trackpoint>
          <Trackpoint>
            <Time>2021-08-09T07:58:32.000Z</Time>
            <Position>
              <LatitudeDegrees>42.92647046037018299102783203125</LatitudeDegrees>
              <LongitudeDegrees>-1.8274283967912197113037109375</LongitudeDegrees>
            </Position>
            <AltitudeMeters>479</AltitudeMeters>
            <DistanceMeters>2057.9399112419</DistanceMeters>
          </Trackpoint>
          <Trackpoint>
            <Time>2021-08-09T07:58:33.000Z</Time>
            <Position>
              <LatitudeDegrees>42.9264903254806995391845703125</LatitudeDegrees>
              <LongitudeDegrees>-1.8274237029254436492919921875</LongitudeDegrees>
            </Position>
            <AltitudeMeters>479</AltitudeMeters>
            <DistanceMeters>2060.1826222307</DistanceMeters>
          </Trackpoint>
          <Trackpoint>
            <Time>2021-08-09T07:58:44.000Z</Time>
            <Position>
              <LatitudeDegrees>42.9267109371721744537353515625</LatitudeDegrees>
              <LongitudeDegrees>-1.82737969793379306793212890625</LongitudeDegrees>
            </Position>
            <AltitudeMeters>479.600006103515625</AltitudeMeters>
            <DistanceMeters>2084.9975164047</DistanceMeters>
          </Trackpoint>
          <Trackpoint>
            <Time>2021-08-09T07:58:45.000Z</Time>
            <Position>
              <LatitudeDegrees>42.9267300479114055633544921875</LatitudeDegrees>
              <LongitudeDegrees>-1.8273767642676830291748046875</LongitudeDegrees>
            </Position>
            <AltitudeMeters>479.600006103515625</AltitudeMeters>
            <DistanceMeters>2087.1350894866</DistanceMeters>
          </Trackpoint>
          <Trackpoint>
            <Time>2021-08-09T07:58:46.000Z</Time>
            <Position>
              <LatitudeDegrees>42.926748655736446380615234375</LatitudeDegrees>
              <LongitudeDegrees>-1.82737399823963642120361328125</LongitudeDegrees>
            </Position>
            <AltitudeMeters>479.600006103515625</AltitudeMeters>
            <DistanceMeters>2089.2191880375</DistanceMeters>
          </Trackpoint>
          <Trackpoint>
            <Time>2021-08-09T07:58:47.000Z</Time>
            <Position>
              <LatitudeDegrees>42.926762737333774566650390625</LatitudeDegrees>
              <LongitudeDegrees>-1.82736611925065517425537109375</LongitudeDegrees>
            </Position>
            <AltitudeMeters>479.600006103515625</AltitudeMeters>
            <DistanceMeters>2090.9137571004</DistanceMeters>
          </Trackpoint>
          <Trackpoint>
            <Time>2021-08-09T07:58:48.000Z</Time>
            <Position>
              <LatitudeDegrees>42.92677304707467555999755859375</LatitudeDegrees>
              <LongitudeDegrees>-1.8273559771478176116943359375</LongitudeDegrees>
            </Position>
            <AltitudeMeters>479.79998779296875</AltitudeMeters>
            <DistanceMeters>2092.329623256</DistanceMeters>
          </Trackpoint>
          <Trackpoint>
            <Time>2021-08-09T07:58:49.000Z</Time>
            <Position>
              <LatitudeDegrees>42.92677572928369045257568359375</LatitudeDegrees>
              <LongitudeDegrees>-1.82734734378755092620849609375</LongitudeDegrees>
            </Position>
            <AltitudeMeters>479.79998779296875</AltitudeMeters>
            <DistanceMeters>2093.089836971</DistanceMeters>
          </Trackpoint>
          <Trackpoint>
            <Time>2021-08-09T07:58:50.000Z</Time>
            <Position>
              <LatitudeDegrees>42.9267786629498004913330078125</LatitudeDegrees>
              <LongitudeDegrees>-1.82734063826501369476318359375</LongitudeDegrees>
            </Position>
            <AltitudeMeters>479.79998779296875</AltitudeMeters>
            <DistanceMeters>2093.7201728842</DistanceMeters>
          </Trackpoint>
          <Trackpoint>
            <Time>2021-08-09T07:58:51.000Z</Time>
            <Position>
              <LatitudeDegrees>42.92678612284362316131591796875</LatitudeDegrees>
              <LongitudeDegrees>-1.82733602821826934814453125</LongitudeDegrees>
            </Position>
            <AltitudeMeters>479.79998779296875</AltitudeMeters>
            <DistanceMeters>2094.6316371089</DistanceMeters>
          </Trackpoint>
          <Trackpoint>
            <Time>2021-08-09T07:58:52.000Z</Time>
            <Position>
              <LatitudeDegrees>42.92679986916482448577880859375</LatitudeDegrees>
              <LongitudeDegrees>-1.82733108289539813995361328125</LongitudeDegrees>
            </Position>
            <AltitudeMeters>479.79998779296875</AltitudeMeters>
            <DistanceMeters>2096.2160490665</DistanceMeters>
          </Trackpoint>
          <Trackpoint>
            <Time>2021-08-09T07:58:55.000Z</Time>
            <Position>
              <LatitudeDegrees>42.9268460534512996673583984375</LatitudeDegrees>
              <LongitudeDegrees>-1.82733443565666675567626953125</LongitudeDegrees>
            </Position>
            <AltitudeMeters>479.79998779296875</AltitudeMeters>
            <DistanceMeters>2101.3633050623</DistanceMeters>
          </Trackpoint>
          <Trackpoint>
            <Time>2021-08-09T07:58:56.000Z</Time>
            <Position>
              <LatitudeDegrees>42.9268597997725009918212890625</LatitudeDegrees>
              <LongitudeDegrees>-1.82733980007469654083251953125</LongitudeDegrees>
            </Position>
            <AltitudeMeters>480</AltitudeMeters>
            <DistanceMeters>2102.9562430651</DistanceMeters>
          </Trackpoint>
          <Trackpoint>
            <Time>2021-08-09T07:58:57.000Z</Time>
            <Position>
              <LatitudeDegrees>42.92687396518886089324951171875</LatitudeDegrees>
              <LongitudeDegrees>-1.8273375369608402252197265625</LongitudeDegrees>
            </Position>
            <AltitudeMeters>480</AltitudeMeters>
            <DistanceMeters>2104.5463441325</DistanceMeters>
          </Trackpoint>
          <Trackpoint>
            <Time>2021-08-09T07:59:02.000Z</Time>
            <Position>
              <LatitudeDegrees>42.9268966801464557647705078125</LatitudeDegrees>
              <LongitudeDegrees>-1.8273291550576686859130859375</LongitudeDegrees>
            </Position>
            <AltitudeMeters>480</AltitudeMeters>
            <DistanceMeters>2107.1626006078</DistanceMeters>
          </Trackpoint>
          <Trackpoint>
            <Time>2021-08-09T07:59:11.000Z</Time>
            <Position>
              <LatitudeDegrees>42.9268966801464557647705078125</LatitudeDegrees>
              <LongitudeDegrees>-1.8273291550576686859130859375</LongitudeDegrees>
            </Position>
            <AltitudeMeters>480</AltitudeMeters>
            <DistanceMeters>2107.1626006078</DistanceMeters>
          </Trackpoint>
          <Trackpoint>
            <Time>2021-08-09T07:59:29.000Z</Time>
            <Position>
              <LatitudeDegrees>42.92691595852375030517578125</LatitudeDegrees>
              <LongitudeDegrees>-1.82732605375349521636962890625</LongitudeDegrees>
            </Position>
            <AltitudeMeters>480</AltitudeMeters>
            <DistanceMeters>2109.321192613</DistanceMeters>
          </Trackpoint>
          <Trackpoint>
            <Time>2021-08-09T07:59:31.000Z</Time>
            <Position>
              <LatitudeDegrees>42.9269442893564701080322265625</LatitudeDegrees>
              <LongitudeDegrees>-1.82732186280190944671630859375</LongitudeDegrees>
            </Position>
            <AltitudeMeters>480</AltitudeMeters>
            <DistanceMeters>2112.4928649098</DistanceMeters>
          </Trackpoint>
          <Trackpoint>
            <Time>2021-08-09T07:59:32.000Z</Time>
            <Position>
              <LatitudeDegrees>42.92695778422057628631591796875</LatitudeDegrees>
              <LongitudeDegrees>-1.82732119224965572357177734375</LongitudeDegrees>
            </Position>
            <AltitudeMeters>479.79998779296875</AltitudeMeters>
            <DistanceMeters>2113.9953691897</DistanceMeters>
          </Trackpoint>
          <Trackpoint>
            <Time>2021-08-09T07:59:37.000Z</Time>
            <Position>
              <LatitudeDegrees>42.92696448974311351776123046875</LatitudeDegrees>
              <LongitudeDegrees>-1.82732102461159229278564453125</LongitudeDegrees>
            </Position>
            <AltitudeMeters>479.79998779296875</AltitudeMeters>
            <DistanceMeters>2114.7436102869</DistanceMeters>
          </Trackpoint>
          <Trackpoint>
            <Time>2021-08-09T07:59:43.000Z</Time>
            <Position>
              <LatitudeDegrees>42.9269647412002086639404296875</LatitudeDegrees>
              <LongitudeDegrees>-1.827321611344814300537109375</LongitudeDegrees>
            </Position>
            <AltitudeMeters>480</AltitudeMeters>
            <DistanceMeters>2114.7436102869</DistanceMeters>
          </Trackpoint>
          <Trackpoint>
            <Time>2021-08-09T08:00:36.000Z</Time>
            <Position>
              <LatitudeDegrees>42.92698477394878864288330078125</LatitudeDegrees>
              <LongitudeDegrees>-1.8273366987705230712890625</LongitudeDegrees>
            </Position>
            <AltitudeMeters>479.79998779296875</AltitudeMeters>
            <DistanceMeters>2117.2899007037</DistanceMeters>
          </Trackpoint>
          <Trackpoint>
            <Time>2021-08-09T08:00:38.000Z</Time>
            <Position>
              <LatitudeDegrees>42.92703020386397838592529296875</LatitudeDegrees>
              <LongitudeDegrees>-1.82734399102628231048583984375</LongitudeDegrees>
            </Position>
            <AltitudeMeters>479.79998779296875</AltitudeMeters>
            <DistanceMeters>2122.3807080458</DistanceMeters>
          </Trackpoint>
          <Trackpoint>
            <Time>2021-08-09T08:00:39.000Z</Time>
            <Position>
              <LatitudeDegrees>42.9270586185157299041748046875</LatitudeDegrees>
              <LongitudeDegrees>-1.8273576535284519195556640625</LongitudeDegrees>
            </Position>
            <AltitudeMeters>479.79998779296875</AltitudeMeters>
            <DistanceMeters>2125.7336836157</DistanceMeters>
          </Trackpoint>
          <Trackpoint>
            <Time>2021-08-09T08:00:41.000Z</Time>
            <Position>
              <LatitudeDegrees>42.92707932181656360626220703125</LatitudeDegrees>
              <LongitudeDegrees>-1.82738556526601314544677734375</LongitudeDegrees>
            </Position>
            <AltitudeMeters>479.79998779296875</AltitudeMeters>
            <DistanceMeters>2128.9715716236</DistanceMeters>
          </Trackpoint>
          <Trackpoint>
            <Time>2021-08-09T08:01:42.000Z</Time>
            <Position>
              <LatitudeDegrees>42.92947621084749698638916015625</LatitudeDegrees>
              <LongitudeDegrees>-1.8269880115985870361328125</LongitudeDegrees>
            </Position>
            <AltitudeMeters>475.20001220703125</AltitudeMeters>
            <DistanceMeters>2397.7102448581</DistanceMeters>
          </Trackpoint>
          <Trackpoint>
            <Time>2021-08-09T08:01:44.000Z</Time>
            <Position>
              <LatitudeDegrees>42.9296291805803775787353515625</LatitudeDegrees>
              <LongitudeDegrees>-1.8269338645040988922119140625</LongitudeDegrees>
            </Position>
            <AltitudeMeters>475.20001220703125</AltitudeMeters>
            <DistanceMeters>2415.2986603302</DistanceMeters>
          </Trackpoint>
          <Trackpoint>
            <Time>2021-08-09T08:02:07.000Z</Time>
            <Position>
              <LatitudeDegrees>42.9296392388641834259033203125</LatitudeDegrees>
              <LongitudeDegrees>-1.8269831500947475433349609375</LongitudeDegrees>
            </Position>
            <AltitudeMeters>474.79998779296875</AltitudeMeters>
            <DistanceMeters>2419.4668574318</DistanceMeters>
          </Trackpoint>
          <Trackpoint>
            <Time>2021-08-09T08:02:10.000Z</Time>
            <Position>
              <LatitudeDegrees>42.92974292300641536712646484375</LatitudeDegrees>
              <LongitudeDegrees>-1.826933361589908599853515625</LongitudeDegrees>
            </Position>
            <AltitudeMeters>474.79998779296875</AltitudeMeters>
            <DistanceMeters>2431.6998630653</DistanceMeters>
          </Trackpoint>
          <Trackpoint>
            <Time>2021-08-09T08:02:13.000Z</Time>
            <Position>
              <LatitudeDegrees>42.92985557578504085540771484375</LatitudeDegrees>
              <LongitudeDegrees>-1.826909892261028289794921875</LongitudeDegrees>
            </Position>
            <AltitudeMeters>474.79998779296875</AltitudeMeters>
            <DistanceMeters>2444.3837048305</DistanceMeters>
          </Trackpoint>
          <Trackpoint>
            <Time>2021-08-09T08:02:14.000Z</Time>
            <Position>
              <LatitudeDegrees>42.92987954802811145782470703125</LatitudeDegrees>
              <LongitudeDegrees>-1.82690980844199657440185546875</LongitudeDegrees>
            </Position>
            <AltitudeMeters>474.79998779296875</AltitudeMeters>
            <DistanceMeters>2447.0512318197</DistanceMeters>
          </Trackpoint>
          <Trackpoint>
            <Time>2021-08-09T08:02:17.000Z</Time>
            <Position>
              <LatitudeDegrees>42.9299668036401271820068359375</LatitudeDegrees>
              <LongitudeDegrees>-1.82694350369274616241455078125</LongitudeDegrees>
            </Position>
            <AltitudeMeters>474.600006103515625</AltitudeMeters>
            <DistanceMeters>2457.1433194239</DistanceMeters>
          </Trackpoint>
          <Trackpoint>
            <Time>2021-08-09T08:02:18.000Z</Time>
            <Position>
              <LatitudeDegrees>42.9300016723573207855224609375</LatitudeDegrees>
              <LongitudeDegrees>-1.82695725001394748687744140625</LongitudeDegrees>
            </Position>
            <AltitudeMeters>474.600006103515625</AltitudeMeters>
            <DistanceMeters>2461.1816752846</DistanceMeters>
          </Trackpoint>
          <Trackpoint>
            <Time>2021-08-09T08:02:22.000Z</Time>
            <Position>
              <LatitudeDegrees>42.93015849776566028594970703125</LatitudeDegrees>
              <LongitudeDegrees>-1.82702229358255863189697265625</LongitudeDegrees>
            </Position>
            <AltitudeMeters>474.399993896484375</AltitudeMeters>
            <DistanceMeters>2479.4235871098</DistanceMeters>
          </Trackpoint>
          <Trackpoint>
            <Time>2021-08-09T08:02:23.000Z</Time>
            <Position>
              <LatitudeDegrees>42.9302023351192474365234375</LatitudeDegrees>
              <LongitudeDegrees>-1.82704123668372631072998046875</LongitudeDegrees>
            </Position>
            <AltitudeMeters>474.600006103515625</AltitudeMeters>
            <DistanceMeters>2484.5409322894</DistanceMeters>
          </Trackpoint>
          <Trackpoint>
            <Time>2021-08-09T08:02:24.000Z</Time>
            <Position>
              <LatitudeDegrees>42.93023326434195041656494140625</LatitudeDegrees>
              <LongitudeDegrees>-1.8270604312419891357421875</LongitudeDegrees>
            </Position>
            <AltitudeMeters>474.20001220703125</AltitudeMeters>
            <DistanceMeters>2488.3205593787</DistanceMeters>
          </Trackpoint>
          <Trackpoint>
            <Time>2021-08-09T08:02:26.000Z</Time>
            <Position>
              <LatitudeDegrees>42.9303071089088916778564453125</LatitudeDegrees>
              <LongitudeDegrees>-1.82711499743163585662841796875</LongitudeDegrees>
            </Position>
            <AltitudeMeters>474.20001220703125</AltitudeMeters>
            <DistanceMeters>2497.6651213916</DistanceMeters>
          </Trackpoint>
          <Trackpoint>
            <Time>2021-08-09T08:02:27.000Z</Time>
            <Position>
              <LatitudeDegrees>42.93033979833126068115234375</LatitudeDegrees>
              <LongitudeDegrees>-1.8271534703671932220458984375</LongitudeDegrees>
            </Position>
            <AltitudeMeters>474.20001220703125</AltitudeMeters>
            <DistanceMeters>2502.4674973909</DistanceMeters>
          </Trackpoint>
          <Trackpoint>
            <Time>2021-08-09T08:02:28.000Z</Time>
            <Position>
              <LatitudeDegrees>42.930377013981342315673828125</LatitudeDegrees>
              <LongitudeDegrees>-1.82719060219824314117431640625</LongitudeDegrees>
            </Position>
            <AltitudeMeters>474</AltitudeMeters>
            <DistanceMeters>2507.597179911</DistanceMeters>
          </Trackpoint>
          <Trackpoint>
            <Time>2021-08-09T08:02:30.000Z</Time>
            <Position>
              <LatitudeDegrees>42.93047399260103702545166015625</LatitudeDegrees>
              <LongitudeDegrees>-1.827248521149158477783203125</LongitudeDegrees>
            </Position>
            <AltitudeMeters>473.79998779296875</AltitudeMeters>
            <DistanceMeters>2519.3778099819</DistanceMeters>
          </Trackpoint>
          <Trackpoint>
            <Time>2021-08-09T08:02:32.000Z</Time>
            <Position>
              <LatitudeDegrees>42.930576168000698089599609375</LatitudeDegrees>
              <LongitudeDegrees>-1.8273066915571689605712890625</LongitudeDegrees>
            </Position>
            <AltitudeMeters>473.399993896484375</AltitudeMeters>
            <DistanceMeters>2531.6987115357</DistanceMeters>
          </Trackpoint>
          <Trackpoint>
            <Time>2021-08-09T08:02:33.000Z</Time>
            <Position>
              <LatitudeDegrees>42.9306286387145519256591796875</LatitudeDegrees>
              <LongitudeDegrees>-1.827336363494396209716796875</LongitudeDegrees>
            </Position>
            <AltitudeMeters>473.20001220703125</AltitudeMeters>
            <DistanceMeters>2538.0192382692</DistanceMeters>
          </Trackpoint>
          <Trackpoint>
            <Time>2021-08-09T08:02:34.000Z</Time>
            <Position>
              <LatitudeDegrees>42.93068823404610157012939453125</LatitudeDegrees>
              <LongitudeDegrees>-1.827359162271022796630859375</LongitudeDegrees>
            </Position>
            <AltitudeMeters>473</AltitudeMeters>
            <DistanceMeters>2544.9072003507</DistanceMeters>
          </Trackpoint>
          <Trackpoint>
            <Time>2021-08-09T08:02:35.000Z</Time>
            <Position>
              <LatitudeDegrees>42.930749170482158660888671875</LatitudeDegrees>
              <LongitudeDegrees>-1.82737969793379306793212890625</LongitudeDegrees>
            </Position>
            <AltitudeMeters>472.600006103515625</AltitudeMeters>
            <DistanceMeters>2551.8927950357</DistanceMeters>
          </Trackpoint>
          <Trackpoint>
            <Time>2021-08-09T08:02:36.000Z</Time>
            <Position>
              <LatitudeDegrees>42.93080407194793224334716796875</LatitudeDegrees>
              <LongitudeDegrees>-1.82740501128137111663818359375</LongitudeDegrees>
            </Position>
            <AltitudeMeters>472.399993896484375</AltitudeMeters>
            <DistanceMeters>2558.3420222841</DistanceMeters>
          </Trackpoint>
          <Trackpoint>
            <Time>2021-08-09T08:02:38.000Z</Time>
            <Position>
              <LatitudeDegrees>42.93091404251754283905029296875</LatitudeDegrees>
              <LongitudeDegrees>-1.82746209204196929931640625</LongitudeDegrees>
            </Position>
            <AltitudeMeters>472</AltitudeMeters>
            <DistanceMeters>2571.436069078</DistanceMeters>
          </Trackpoint>
          <Trackpoint>
            <Time>2021-08-09T08:02:39.000Z</Time>
            <Position>
              <LatitudeDegrees>42.930967770516872406005859375</LatitudeDegrees>
              <LongitudeDegrees>-1.82749587111175060272216796875</LongitudeDegrees>
            </Position>
            <AltitudeMeters>471.79998779296875</AltitudeMeters>
            <DistanceMeters>2578.0190271406</DistanceMeters>
          </Trackpoint>
          <Trackpoint>
            <Time>2021-08-09T08:02:41.000Z</Time>
            <Position>
              <LatitudeDegrees>42.9310765676200389862060546875</LatitudeDegrees>
              <LongitudeDegrees>-1.8275725655257701873779296875</LongitudeDegrees>
            </Position>
            <AltitudeMeters>471.399993896484375</AltitudeMeters>
            <DistanceMeters>2591.6460037677</DistanceMeters>
          </Trackpoint>
          <Trackpoint>
            <Time>2021-08-09T08:02:43.000Z</Time>
            <Position>
              <LatitudeDegrees>42.93118561618030071258544921875</LatitudeDegrees>
              <LongitudeDegrees>-1.82765076868236064910888671875</LongitudeDegrees>
            </Position>
            <AltitudeMeters>471</AltitudeMeters>
            <DistanceMeters>2605.3542454783</DistanceMeters>
          </Trackpoint>
          <Trackpoint>
            <Time>2021-08-09T08:02:49.000Z</Time>
            <Position>
              <LatitudeDegrees>42.93154251761734485626220703125</LatitudeDegrees>
              <LongitudeDegrees>-1.82789929211139678955078125</LongitudeDegrees>
            </Position>
            <AltitudeMeters>469.79998779296875</AltitudeMeters>
            <DistanceMeters>2649.9428415607</DistanceMeters>
          </Trackpoint>
          <Trackpoint>
            <Time>2021-08-09T08:02:50.000Z</Time>
            <Position>
              <LatitudeDegrees>42.9315932281315326690673828125</LatitudeDegrees>
              <LongitudeDegrees>-1.82795117609202861785888671875</LongitudeDegrees>
            </Position>
            <AltitudeMeters>469.600006103515625</AltitudeMeters>
            <DistanceMeters>2656.9953348116</DistanceMeters>
          </Trackpoint>
          <Trackpoint>
            <Time>2021-08-09T08:02:52.000Z</Time>
            <Position>
              <LatitudeDegrees>42.93169741518795490264892578125</LatitudeDegrees>
              <LongitudeDegrees>-1.8280255235731601715087890625</LongitudeDegrees>
            </Position>
            <AltitudeMeters>469</AltitudeMeters>
            <DistanceMeters>2670.0790330329</DistanceMeters>
          </Trackpoint>
          <Trackpoint>
            <Time>2021-08-09T08:02:54.000Z</Time>
            <Position>
              <LatitudeDegrees>42.9318326152861118316650390625</LatitudeDegrees>
              <LongitudeDegrees>-1.82810590602457523345947265625</LongitudeDegrees>
            </Position>
            <AltitudeMeters>468.399993896484375</AltitudeMeters>
            <DistanceMeters>2686.491167271</DistanceMeters>
          </Trackpoint>
          <Trackpoint>
            <Time>2021-08-09T08:02:55.000Z</Time>
            <Position>
              <LatitudeDegrees>42.93188483454287052154541015625</LatitudeDegrees>
              <LongitudeDegrees>-1.82814395986497402191162109375</LongitudeDegrees>
            </Position>
            <AltitudeMeters>468.399993896484375</AltitudeMeters>
            <DistanceMeters>2693.0796099903</DistanceMeters>
          </Trackpoint>
          <Trackpoint>
            <Time>2021-08-09T08:02:56.000Z</Time>
            <Position>
              <LatitudeDegrees>42.9319405741989612579345703125</LatitudeDegrees>
              <LongitudeDegrees>-1.82817480526864528656005859375</LongitudeDegrees>
            </Position>
            <AltitudeMeters>468</AltitudeMeters>
            <DistanceMeters>2699.7741054449</DistanceMeters>
          </Trackpoint>
          <Trackpoint>
            <Time>2021-08-09T08:02:59.000Z</Time>
            <Position>
              <LatitudeDegrees>42.93211969546973705291748046875</LatitudeDegrees>
              <LongitudeDegrees>-1.82822945527732372283935546875</LongitudeDegrees>
            </Position>
            <AltitudeMeters>467.600006103515625</AltitudeMeters>
            <DistanceMeters>2720.2019759318</DistanceMeters>
          </Trackpoint>
          <Trackpoint>
            <Time>2021-08-09T08:03:00.000Z</Time>
            <Position>
              <LatitudeDegrees>42.93216881342232227325439453125</LatitudeDegrees>
              <LongitudeDegrees>-1.8282525055110454559326171875</LongitudeDegrees>
            </Position>
            <AltitudeMeters>467.600006103515625</AltitudeMeters>
            <DistanceMeters>2725.9822253072</DistanceMeters>
          </Trackpoint>
          <Trackpoint>
            <Time>2021-08-09T08:03:01.000Z</Time>
            <Position>
              <LatitudeDegrees>42.93222145177423954010009765625</LatitudeDegrees>
              <LongitudeDegrees>-1.82826834730803966522216796875</LongitudeDegrees>
            </Position>
            <AltitudeMeters>467.399993896484375</AltitudeMeters>
            <DistanceMeters>2731.9817156777</DistanceMeters>
          </Trackpoint>
          <Trackpoint>
            <Time>2021-08-09T08:03:02.000Z</Time>
            <Position>
              <LatitudeDegrees>42.9322724975645542144775390625</LatitudeDegrees>
              <LongitudeDegrees>-1.82828175835311412811279296875</LongitudeDegrees>
            </Position>
            <AltitudeMeters>467.20001220703125</AltitudeMeters>
            <DistanceMeters>2737.7666498434</DistanceMeters>
          </Trackpoint>
          <Trackpoint>
            <Time>2021-08-09T08:03:03.000Z</Time>
            <Position>
              <LatitudeDegrees>42.9323154129087924957275390625</LatitudeDegrees>
              <LongitudeDegrees>-1.82829969562590122222900390625</LongitudeDegrees>
            </Position>
            <AltitudeMeters>467.20001220703125</AltitudeMeters>
            <DistanceMeters>2742.7607534805</DistanceMeters>
          </Trackpoint>
          <Trackpoint>
            <Time>2021-08-09T08:03:04.000Z</Time>
            <Position>
              <LatitudeDegrees>42.93236084282398223876953125</LatitudeDegrees>
              <LongitudeDegrees>-1.82831394486129283905029296875</LongitudeDegrees>
            </Position>
            <AltitudeMeters>466.79998779296875</AltitudeMeters>
            <DistanceMeters>2747.9482025456</DistanceMeters>
          </Trackpoint>
          <Trackpoint>
            <Time>2021-08-09T08:03:05.000Z</Time>
            <Position>
              <LatitudeDegrees>42.93240602128207683563232421875</LatitudeDegrees>
              <LongitudeDegrees>-1.8283272720873355865478515625</LongitudeDegrees>
            </Position>
            <AltitudeMeters>466.79998779296875</AltitudeMeters>
            <DistanceMeters>2753.0928263469</DistanceMeters>
          </Trackpoint>
          <Trackpoint>
            <Time>2021-08-09T08:03:06.000Z</Time>
            <Position>
              <LatitudeDegrees>42.9324518702924251556396484375</LatitudeDegrees>
              <LongitudeDegrees>-1.82833649218082427978515625</LongitudeDegrees>
            </Position>
            <AltitudeMeters>466.79998779296875</AltitudeMeters>
            <DistanceMeters>2758.2523481617</DistanceMeters>
          </Trackpoint>
          <Trackpoint>
            <Time>2021-08-09T08:03:08.000Z</Time>
            <Position>
              <LatitudeDegrees>42.93253962881863117218017578125</LatitudeDegrees>
              <LongitudeDegrees>-1.8283571116626262664794921875</LongitudeDegrees>
            </Position>
            <AltitudeMeters>466.600006103515625</AltitudeMeters>
            <DistanceMeters>2768.1634112509</DistanceMeters>
          </Trackpoint>
          <Trackpoint>
            <Time>2021-08-09T08:03:09.000Z</Time>
            <Position>
              <LatitudeDegrees>42.9325822927057743072509765625</LatitudeDegrees>
              <LongitudeDegrees>-1.828371696174144744873046875</LongitudeDegrees>
            </Position>
            <AltitudeMeters>466.600006103515625</AltitudeMeters>
            <DistanceMeters>2773.0589013062</DistanceMeters>
          </Trackpoint>
          <Trackpoint>
            <Time>2021-08-09T08:03:10.000Z</Time>
            <Position>
              <LatitudeDegrees>42.932625375688076019287109375</LatitudeDegrees>
              <LongitudeDegrees>-1.8283812515437602996826171875</LongitudeDegrees>
            </Position>
            <AltitudeMeters>466.600006103515625</AltitudeMeters>
            <DistanceMeters>2777.9173598915</DistanceMeters>
          </Trackpoint>
          <Trackpoint>
            <Time>2021-08-09T08:03:11.000Z</Time>
            <Position>
              <LatitudeDegrees>42.9326721467077732086181640625</LatitudeDegrees>
              <LongitudeDegrees>-1.82838208973407745361328125</LongitudeDegrees>
            </Position>
            <AltitudeMeters>466.600006103515625</AltitudeMeters>
            <DistanceMeters>2783.1239220475</DistanceMeters>
          </Trackpoint>
          <Trackpoint>
            <Time>2021-08-09T08:03:12.000Z</Time>
            <Position>
              <LatitudeDegrees>42.93270525522530078887939453125</LatitudeDegrees>
              <LongitudeDegrees>-1.8283879570662975311279296875</LongitudeDegrees>
            </Position>
            <AltitudeMeters>466.600006103515625</AltitudeMeters>
            <DistanceMeters>2786.8409123568</DistanceMeters>
          </Trackpoint>
          <Trackpoint>
            <Time>2021-08-09T08:03:13.000Z</Time>
            <Position>
              <LatitudeDegrees>42.93274263851344585418701171875</LatitudeDegrees>
              <LongitudeDegrees>-1.8283996917307376861572265625</LongitudeDegrees>
            </Position>
            <AltitudeMeters>466.600006103515625</AltitudeMeters>
            <DistanceMeters>2791.1097171384</DistanceMeters>
          </Trackpoint>
          <Trackpoint>
            <Time>2021-08-09T08:03:14.000Z</Time>
            <Position>
              <LatitudeDegrees>42.9327807761728763580322265625</LatitudeDegrees>
              <LongitudeDegrees>-1.82841268368065357208251953125</LongitudeDegrees>
            </Position>
            <AltitudeMeters>466.600006103515625</AltitudeMeters>
            <DistanceMeters>2795.485075645</DistanceMeters>
          </Trackpoint>
          <Trackpoint>
            <Time>2021-08-09T08:03:15.000Z</Time>
            <Position>
              <LatitudeDegrees>42.9328230209648609161376953125</LatitudeDegrees>
              <LongitudeDegrees>-1.8284305371344089508056640625</LongitudeDegrees>
            </Position>
            <AltitudeMeters>466.600006103515625</AltitudeMeters>
            <DistanceMeters>2800.4063219326</DistanceMeters>
          </Trackpoint>
          <Trackpoint>
            <Time>2021-08-09T08:03:16.000Z</Time>
            <Position>
              <LatitudeDegrees>42.93285168707370758056640625</LatitudeDegrees>
              <LongitudeDegrees>-1.82843917049467563629150390625</LongitudeDegrees>
            </Position>
            <AltitudeMeters>466.600006103515625</AltitudeMeters>
            <DistanceMeters>2803.6747436363</DistanceMeters>
          </Trackpoint>
          <Trackpoint>
            <Time>2021-08-09T08:03:20.000Z</Time>
            <Position>
              <LatitudeDegrees>42.93303198181092739105224609375</LatitudeDegrees>
              <LongitudeDegrees>-1.82844453491270542144775390625</LongitudeDegrees>
            </Position>
            <AltitudeMeters>466.600006103515625</AltitudeMeters>
            <DistanceMeters>2823.7467612385</DistanceMeters>
          </Trackpoint>
          <Trackpoint>
            <Time>2021-08-09T08:03:21.000Z</Time>
            <Position>
              <LatitudeDegrees>42.93308369815349578857421875</LatitudeDegrees>
              <LongitudeDegrees>-1.82842676527798175811767578125</LongitudeDegrees>
            </Position>
            <AltitudeMeters>466.600006103515625</AltitudeMeters>
            <DistanceMeters>2829.682699099</DistanceMeters>
          </Trackpoint>
          <Trackpoint>
            <Time>2021-08-09T08:03:22.000Z</Time>
            <Position>
              <LatitudeDegrees>42.93311244808137416839599609375</LatitudeDegrees>
              <LongitudeDegrees>-1.828417293727397918701171875</LongitudeDegrees>
            </Position>
            <AltitudeMeters>466.600006103515625</AltitudeMeters>
            <DistanceMeters>2832.9745210463</DistanceMeters>
          </Trackpoint>
          <Trackpoint>
            <Time>2021-08-09T08:03:23.000Z</Time>
            <Position>
              <LatitudeDegrees>42.93315988965332508087158203125</LatitudeDegrees>
              <LongitudeDegrees>-1.82840966619551181793212890625</LongitudeDegrees>
            </Position>
            <AltitudeMeters>466.600006103515625</AltitudeMeters>
            <DistanceMeters>2838.2909238969</DistanceMeters>
          </Trackpoint>
          <Trackpoint>
            <Time>2021-08-09T08:03:31.000Z</Time>
            <Position>
              <LatitudeDegrees>42.93352500535547733306884765625</LatitudeDegrees>
              <LongitudeDegrees>-1.82831763289868831634521484375</LongitudeDegrees>
            </Position>
            <AltitudeMeters>466.600006103515625</AltitudeMeters>
            <DistanceMeters>2879.6152002545</DistanceMeters>
          </Trackpoint>
          <Trackpoint>
            <Time>2021-08-09T08:03:32.000Z</Time>
            <Position>
              <LatitudeDegrees>42.93356523849070072174072265625</LatitudeDegrees>
              <LongitudeDegrees>-1.8283138610422611236572265625</LongitudeDegrees>
            </Position>
            <AltitudeMeters>466.399993896484375</AltitudeMeters>
            <DistanceMeters>2884.1036410245</DistanceMeters>
          </Trackpoint>
          <Trackpoint>
            <Time>2021-08-09T08:03:34.000Z</Time>
            <Position>
              <LatitudeDegrees>42.93364939279854297637939453125</LatitudeDegrees>
              <LongitudeDegrees>-1.8283049762248992919921875</LongitudeDegrees>
            </Position>
            <AltitudeMeters>466.399993896484375</AltitudeMeters>
            <DistanceMeters>2893.4983186222</DistanceMeters>
          </Trackpoint>
          <Trackpoint>
            <Time>2021-08-09T08:03:37.000Z</Time>
            <Position>
              <LatitudeDegrees>42.933778055012226104736328125</LatitudeDegrees>
              <LongitudeDegrees>-1.82834227569401264190673828125</LongitudeDegrees>
            </Position>
            <AltitudeMeters>466</AltitudeMeters>
            <DistanceMeters>2908.1379850911</DistanceMeters>
          </Trackpoint>
          <Trackpoint>
            <Time>2021-08-09T08:03:39.000Z</Time>
            <Position>
              <LatitudeDegrees>42.93386950157582759857177734375</LatitudeDegrees>
              <LongitudeDegrees>-1.82836842723190784454345703125</LongitudeDegrees>
            </Position>
            <AltitudeMeters>465.600006103515625</AltitudeMeters>
            <DistanceMeters>2918.5372252312</DistanceMeters>
          </Trackpoint>
          <Trackpoint>
            <Time>2021-08-09T08:03:42.000Z</Time>
            <Position>
              <LatitudeDegrees>42.93398357927799224853515625</LatitudeDegrees>
              <LongitudeDegrees>-1.82839952409267425537109375</LongitudeDegrees>
            </Position>
            <AltitudeMeters>465.399993896484375</AltitudeMeters>
            <DistanceMeters>2931.484593269</DistanceMeters>
          </Trackpoint>
          <Trackpoint>
            <Time>2021-08-09T08:03:43.000Z</Time>
            <Position>
              <LatitudeDegrees>42.93399137444794178009033203125</LatitudeDegrees>
              <LongitudeDegrees>-1.82839457876980304718017578125</LongitudeDegrees>
            </Position>
            <AltitudeMeters>465.399993896484375</AltitudeMeters>
            <DistanceMeters>2932.4395999291</DistanceMeters>
          </Trackpoint>
          <Trackpoint>
            <Time>2021-08-09T08:03:46.000Z</Time>
            <Position>
              <LatitudeDegrees>42.93407267890870571136474609375</LatitudeDegrees>
              <LongitudeDegrees>-1.82838569395244121551513671875</LongitudeDegrees>
            </Position>
            <AltitudeMeters>465.20001220703125</AltitudeMeters>
            <DistanceMeters>2941.5175114526</DistanceMeters>
          </Trackpoint>
          <Trackpoint>
            <Time>2021-08-09T08:03:47.000Z</Time>
            <Position>
              <LatitudeDegrees>42.9341322742402553558349609375</LatitudeDegrees>
              <LongitudeDegrees>-1.82842089794576168060302734375</LongitudeDegrees>
            </Position>
            <AltitudeMeters>465.20001220703125</AltitudeMeters>
            <DistanceMeters>2948.7432918256</DistanceMeters>
          </Trackpoint>
          <Trackpoint>
            <Time>2021-08-09T08:03:48.000Z</Time>
            <Position>
              <LatitudeDegrees>42.934169657528400421142578125</LatitudeDegrees>
              <LongitudeDegrees>-1.82856590487062931060791015625</LongitudeDegrees>
            </Position>
            <AltitudeMeters>465.20001220703125</AltitudeMeters>
            <DistanceMeters>2961.2709703254</DistanceMeters>
          </Trackpoint>
          <Trackpoint>
            <Time>2021-08-09T08:03:49.000Z</Time>
            <Position>
              <LatitudeDegrees>42.934225313365459442138671875</LatitudeDegrees>
              <LongitudeDegrees>-1.8286347202956676483154296875</LongitudeDegrees>
            </Position>
            <AltitudeMeters>465</AltitudeMeters>
            <DistanceMeters>2969.6268395839</DistanceMeters>
          </Trackpoint>
          <Trackpoint>
            <Time>2021-08-09T08:03:50.000Z</Time>
            <Position>
              <LatitudeDegrees>42.93427585624158382415771484375</LatitudeDegrees>
              <LongitudeDegrees>-1.82867872528731822967529296875</LongitudeDegrees>
            </Position>
            <AltitudeMeters>465</AltitudeMeters>
            <DistanceMeters>2976.2976878595</DistanceMeters>
          </Trackpoint>
          <Trackpoint>
            <Time>2021-08-09T08:03:51.000Z</Time>
            <Position>
              <LatitudeDegrees>42.9343203641474246978759765625</LatitudeDegrees>
              <LongitudeDegrees>-1.82872247882187366485595703125</LongitudeDegrees>
            </Position>
            <AltitudeMeters>465</AltitudeMeters>
            <DistanceMeters>2982.401628833</DistanceMeters>
          </Trackpoint>
          <Trackpoint>
            <Time>2021-08-09T08:03:52.000Z</Time>
            <Position>
              <LatitudeDegrees>42.93435933999717235565185546875</LatitudeDegrees>
              <LongitudeDegrees>-1.8287718482315540313720703125</LongitudeDegrees>
            </Position>
            <AltitudeMeters>464.79998779296875</AltitudeMeters>
            <DistanceMeters>2988.3177573218</DistanceMeters>
          </Trackpoint>
          <Trackpoint>
            <Time>2021-08-09T08:03:53.000Z</Time>
            <Position>
              <LatitudeDegrees>42.93439789675176143646240234375</LatitudeDegrees>
              <LongitudeDegrees>-1.82880931533873081207275390625</LongitudeDegrees>
            </Position>
            <AltitudeMeters>464.79998779296875</AltitudeMeters>
            <DistanceMeters>2993.5846724375</DistanceMeters>
          </Trackpoint>
          <Trackpoint>
            <Time>2021-08-09T08:03:54.000Z</Time>
            <Position>
              <LatitudeDegrees>42.93444030918180942535400390625</LatitudeDegrees>
              <LongitudeDegrees>-1.8288392387330532073974609375</LongitudeDegrees>
            </Position>
            <AltitudeMeters>464.79998779296875</AltitudeMeters>
            <DistanceMeters>2998.8976771396</DistanceMeters>
          </Trackpoint>
          <Trackpoint>
            <Time>2021-08-09T08:03:55.000Z</Time>
            <Position>
              <LatitudeDegrees>42.9344789497554302215576171875</LatitudeDegrees>
              <LongitudeDegrees>-1.82885843329131603240966796875</LongitudeDegrees>
            </Position>
            <AltitudeMeters>464.79998779296875</AltitudeMeters>
            <DistanceMeters>3003.4737832652</DistanceMeters>
          </Trackpoint>
          <Trackpoint>
            <Time>2021-08-09T08:03:56.000Z</Time>
            <Position>
              <LatitudeDegrees>42.93451465666294097900390625</LatitudeDegrees>
              <LongitudeDegrees>-1.82887754403054714202880859375</LongitudeDegrees>
            </Position>
            <AltitudeMeters>464.79998779296875</AltitudeMeters>
            <DistanceMeters>3007.7425880469</DistanceMeters>
          </Trackpoint>
          <Trackpoint>
            <Time>2021-08-09T08:03:57.000Z</Time>
            <Position>
              <LatitudeDegrees>42.93455095030367374420166015625</LatitudeDegrees>
              <LongitudeDegrees>-1.8288969062268733978271484375</LongitudeDegrees>
            </Position>
            <AltitudeMeters>464.79998779296875</AltitudeMeters>
            <DistanceMeters>3012.0806382206</DistanceMeters>
          </Trackpoint>
          <Trackpoint>
            <Time>2021-08-09T08:03:58.000Z</Time>
            <Position>
              <LatitudeDegrees>42.93458481319248676300048828125</LatitudeDegrees>
              <LongitudeDegrees>-1.82891995646059513092041015625</LongitudeDegrees>
            </Position>
            <AltitudeMeters>464.79998779296875</AltitudeMeters>
            <DistanceMeters>3016.2919408855</DistanceMeters>
          </Trackpoint>
          <Trackpoint>
            <Time>2021-08-09T08:03:59.000Z</Time>
            <Position>
              <LatitudeDegrees>42.93462035246193408966064453125</LatitudeDegrees>
              <LongitudeDegrees>-1.82894426397979259490966796875</LongitudeDegrees>
            </Position>
            <AltitudeMeters>464.79998779296875</AltitudeMeters>
            <DistanceMeters>3020.7165545105</DistanceMeters>
          </Trackpoint>
          <Trackpoint>
            <Time>2021-08-09T08:04:02.000Z</Time>
            <Position>
              <LatitudeDegrees>42.93473836965858936309814453125</LatitudeDegrees>
              <LongitudeDegrees>-1.82900629006326198577880859375</LongitudeDegrees>
            </Position>
            <AltitudeMeters>465</AltitudeMeters>
            <DistanceMeters>3034.7907776463</DistanceMeters>
          </Trackpoint>
          <Trackpoint>
            <Time>2021-08-09T08:04:03.000Z</Time>
            <Position>
              <LatitudeDegrees>42.9347770102322101593017578125</LatitudeDegrees>
              <LongitudeDegrees>-1.82902623899281024932861328125</LongitudeDegrees>
            </Position>
            <AltitudeMeters>465</AltitudeMeters>
            <DistanceMeters>3039.3885389445</DistanceMeters>
          </Trackpoint>
          <Trackpoint>
            <Time>2021-08-09T08:04:04.000Z</Time>
            <Position>
              <LatitudeDegrees>42.93481414206326007843017578125</LatitudeDegrees>
              <LongitudeDegrees>-1.82905088178813457489013671875</LongitudeDegrees>
            </Position>
            <AltitudeMeters>465</AltitudeMeters>
            <DistanceMeters>3043.9833532743</DistanceMeters>
          </Trackpoint>
          <Trackpoint>
            <Time>2021-08-09T08:04:05.000Z</Time>
            <Position>
              <LatitudeDegrees>42.93484649620950222015380859375</LatitudeDegrees>
              <LongitudeDegrees>-1.82907518930733203887939453125</LongitudeDegrees>
            </Position>
            <AltitudeMeters>465</AltitudeMeters>
            <DistanceMeters>3048.0948375687</DistanceMeters>
          </Trackpoint>
          <Trackpoint>
            <Time>2021-08-09T08:04:06.000Z</Time>
            <Position>
              <LatitudeDegrees>42.9348728992044925689697265625</LatitudeDegrees>
              <LongitudeDegrees>-1.82909731753170490264892578125</LongitudeDegrees>
            </Position>
            <AltitudeMeters>465</AltitudeMeters>
            <DistanceMeters>3051.544713038</DistanceMeters>
          </Trackpoint>
          <Trackpoint>
            <Time>2021-08-09T08:04:07.000Z</Time>
            <Position>
              <LatitudeDegrees>42.9348940216004848480224609375</LatitudeDegrees>
              <LongitudeDegrees>-1.8291212059557437896728515625</LongitudeDegrees>
            </Position>
            <AltitudeMeters>465.20001220703125</AltitudeMeters>
            <DistanceMeters>3054.5974231274</DistanceMeters>
          </Trackpoint>
          <Trackpoint>
            <Time>2021-08-09T08:04:08.000Z</Time>
            <Position>
              <LatitudeDegrees>42.93491237796843051910400390625</LatitudeDegrees>
              <LongitudeDegrees>-1.8291460163891315460205078125</LongitudeDegrees>
            </Position>
            <AltitudeMeters>465.20001220703125</AltitudeMeters>
            <DistanceMeters>3057.4703118948</DistanceMeters>
          </Trackpoint>
          <Trackpoint>
            <Time>2021-08-09T08:04:09.000Z</Time>
            <Position>
              <LatitudeDegrees>42.93492914177477359771728515625</LatitudeDegrees>
              <LongitudeDegrees>-1.82917024008929729461669921875</LongitudeDegrees>
            </Position>
            <AltitudeMeters>465</AltitudeMeters>
            <DistanceMeters>3060.1848178127</DistanceMeters>
          </Trackpoint>
          <Trackpoint>
            <Time>2021-08-09T08:04:10.000Z</Time>
            <Position>
              <LatitudeDegrees>42.93495009653270244598388671875</LatitudeDegrees>
              <LongitudeDegrees>-1.82919479906558990478515625</LongitudeDegrees>
            </Position>
            <AltitudeMeters>464.79998779296875</AltitudeMeters>
            <DistanceMeters>3063.2552249204</DistanceMeters>
          </Trackpoint>
          <Trackpoint>
            <Time>2021-08-09T08:04:13.000Z</Time>
            <Position>
              <LatitudeDegrees>42.9350249469280242919921875</LatitudeDegrees>
              <LongitudeDegrees>-1.82925456203520298004150390625</LongitudeDegrees>
            </Position>
            <AltitudeMeters>464.79998779296875</AltitudeMeters>
            <DistanceMeters>3072.9049994406</DistanceMeters>
          </Trackpoint>
          <Trackpoint>
            <Time>2021-08-09T08:04:21.000Z</Time>
            <Position>
              <LatitudeDegrees>42.9352802596986293792724609375</LatitudeDegrees>
              <LongitudeDegrees>-1.82945539243519306182861328125</LongitudeDegrees>
            </Position>
            <AltitudeMeters>464.600006103515625</AltitudeMeters>
            <DistanceMeters>3105.6972026782</DistanceMeters>
          </Trackpoint>
          <Trackpoint>
            <Time>2021-08-09T08:04:22.000Z</Time>
            <Position>
              <LatitudeDegrees>42.9353104345500469207763671875</LatitudeDegrees>
              <LongitudeDegrees>-1.8294878304004669189453125</LongitudeDegrees>
            </Position>
            <AltitudeMeters>464.600006103515625</AltitudeMeters>
            <DistanceMeters>3109.9723488421</DistanceMeters>
          </Trackpoint>
          <Trackpoint>
            <Time>2021-08-09T08:04:23.000Z</Time>
            <Position>
              <LatitudeDegrees>42.93533968739211559295654296875</LatitudeDegrees>
              <LongitudeDegrees>-1.82951155118644237518310546875</LongitudeDegrees>
            </Position>
            <AltitudeMeters>464.600006103515625</AltitudeMeters>
            <DistanceMeters>3113.7591365828</DistanceMeters>
          </Trackpoint>
          <Trackpoint>
            <Time>2021-08-09T08:04:24.000Z</Time>
            <Position>
              <LatitudeDegrees>42.9353694431483745574951171875</LatitudeDegrees>
              <LongitudeDegrees>-1.8295295722782611846923828125</LongitudeDegrees>
            </Position>
            <AltitudeMeters>464.600006103515625</AltitudeMeters>
            <DistanceMeters>3117.3801407248</DistanceMeters>
          </Trackpoint>
          <Trackpoint>
            <Time>2021-08-09T08:04:26.000Z</Time>
            <Position>
              <LatitudeDegrees>42.93542920611798763275146484375</LatitudeDegrees>
              <LongitudeDegrees>-1.82958447374403476715087890625</LongitudeDegrees>
            </Position>
            <AltitudeMeters>464.600006103515625</AltitudeMeters>
            <DistanceMeters>3125.3956877367</DistanceMeters>
          </Trackpoint>
          <Trackpoint>
            <Time>2021-08-09T08:04:31.000Z</Time>
            <Position>
              <LatitudeDegrees>42.9355789907276630401611328125</LatitudeDegrees>
              <LongitudeDegrees>-1.82972311042249202728271484375</LongitudeDegrees>
            </Position>
            <AltitudeMeters>464.600006103515625</AltitudeMeters>
            <DistanceMeters>3145.5339538779</DistanceMeters>
          </Trackpoint>
          <Trackpoint>
            <Time>2021-08-09T08:04:32.000Z</Time>
            <Position>
              <LatitudeDegrees>42.93560740537941455841064453125</LatitudeDegrees>
              <LongitudeDegrees>-1.8297414667904376983642578125</LongitudeDegrees>
            </Position>
            <AltitudeMeters>464.399993896484375</AltitudeMeters>
            <DistanceMeters>3149.0332086068</DistanceMeters>
          </Trackpoint>
          <Trackpoint>
            <Time>2021-08-09T08:04:33.000Z</Time>
            <Position>
              <LatitudeDegrees>42.9356349818408489227294921875</LatitudeDegrees>
              <LongitudeDegrees>-1.8297562189400196075439453125</LongitudeDegrees>
            </Position>
            <AltitudeMeters>464.600006103515625</AltitudeMeters>
            <DistanceMeters>3152.3305123597</DistanceMeters>
          </Trackpoint>
          <Trackpoint>
            <Time>2021-08-09T08:04:35.000Z</Time>
            <Position>
              <LatitudeDegrees>42.935695163905620574951171875</LatitudeDegrees>
              <LongitudeDegrees>-1.829781867563724517822265625</LongitudeDegrees>
            </Position>
            <AltitudeMeters>464.600006103515625</AltitudeMeters>
            <DistanceMeters>3159.3470625642</DistanceMeters>
          </Trackpoint>
          <Trackpoint>
            <Time>2021-08-09T08:04:37.000Z</Time>
            <Position>
              <LatitudeDegrees>42.9357637278735637664794921875</LatitudeDegrees>
              <LongitudeDegrees>-1.829800307750701904296875</LongitudeDegrees>
            </Position>
            <AltitudeMeters>464.399993896484375</AltitudeMeters>
            <DistanceMeters>3167.1247538732</DistanceMeters>
          </Trackpoint>
          <Trackpoint>
            <Time>2021-08-09T08:04:38.000Z</Time>
            <Position>
              <LatitudeDegrees>42.93579407036304473876953125</LatitudeDegrees>
              <LongitudeDegrees>-1.8298101983964443206787109375</LongitudeDegrees>
            </Position>
            <AltitudeMeters>464.399993896484375</AltitudeMeters>
            <DistanceMeters>3170.5981070267</DistanceMeters>
          </Trackpoint>
          <Trackpoint>
            <Time>2021-08-09T08:04:39.000Z</Time>
            <Position>
              <LatitudeDegrees>42.93582399375736713409423828125</LatitudeDegrees>
              <LongitudeDegrees>-1.82981128804385662078857421875</LongitudeDegrees>
            </Position>
            <AltitudeMeters>464.399993896484375</AltitudeMeters>
            <DistanceMeters>3173.9308227401</DistanceMeters>
          </Trackpoint>
          <Trackpoint>
            <Time>2021-08-09T08:04:40.000Z</Time>
            <Position>
              <LatitudeDegrees>42.93586623854935169219970703125</LatitudeDegrees>
              <LongitudeDegrees>-1.82981682009994983673095703125</LongitudeDegrees>
            </Position>
            <AltitudeMeters>464.399993896484375</AltitudeMeters>
            <DistanceMeters>3178.6554760574</DistanceMeters>
          </Trackpoint>
          <Trackpoint>
            <Time>2021-08-09T08:04:41.000Z</Time>
            <Position>
              <LatitudeDegrees>42.93589943088591098785400390625</LatitudeDegrees>
              <LongitudeDegrees>-1.8298138864338397979736328125</LongitudeDegrees>
            </Position>
            <AltitudeMeters>464.399993896484375</AltitudeMeters>
            <DistanceMeters>3182.3566415449</DistanceMeters>
          </Trackpoint>
          <Trackpoint>
            <Time>2021-08-09T08:04:42.000Z</Time>
            <Position>
              <LatitudeDegrees>42.935935556888580322265625</LatitudeDegrees>
              <LongitudeDegrees>-1.82981346733868122100830078125</LongitudeDegrees>
            </Position>
            <AltitudeMeters>464.399993896484375</AltitudeMeters>
            <DistanceMeters>3186.3770689892</DistanceMeters>
          </Trackpoint>
          <Trackpoint>
            <Time>2021-08-09T08:04:43.000Z</Time>
            <Position>
              <LatitudeDegrees>42.93597352690994739532470703125</LatitudeDegrees>
              <LongitudeDegrees>-1.82981966994702816009521484375</LongitudeDegrees>
            </Position>
            <AltitudeMeters>464.399993896484375</AltitudeMeters>
            <DistanceMeters>3190.6321016882</DistanceMeters>
          </Trackpoint>
          <Trackpoint>
            <Time>2021-08-09T08:04:45.000Z</Time>
            <Position>
              <LatitudeDegrees>42.9360296018421649932861328125</LatitudeDegrees>
              <LongitudeDegrees>-1.82984313927590847015380859375</LongitudeDegrees>
            </Position>
            <AltitudeMeters>464.399993896484375</AltitudeMeters>
            <DistanceMeters>3197.1592680461</DistanceMeters>
          </Trackpoint>
          <Trackpoint>
            <Time>2021-08-09T08:04:46.000Z</Time>
            <Position>
              <LatitudeDegrees>42.93606455437839031219482421875</LatitudeDegrees>
              <LongitudeDegrees>-1.82983995415270328521728515625</LongitudeDegrees>
            </Position>
            <AltitudeMeters>464.399993896484375</AltitudeMeters>
            <DistanceMeters>3201.0588383726</DistanceMeters>
          </Trackpoint>
          <Trackpoint>
            <Time>2021-08-09T08:04:47.000Z</Time>
            <Position>
              <LatitudeDegrees>42.936097495257854461669921875</LatitudeDegrees>
              <LongitudeDegrees>-1.82982721365988254547119140625</LongitudeDegrees>
            </Position>
            <AltitudeMeters>464.399993896484375</AltitudeMeters>
            <DistanceMeters>3204.8693977701</DistanceMeters>
          </Trackpoint>
          <Trackpoint>
            <Time>2021-08-09T08:04:48.000Z</Time>
            <Position>
              <LatitudeDegrees>42.9361353814601898193359375</LatitudeDegrees>
              <LongitudeDegrees>-1.8298081867396831512451171875</LongitudeDegrees>
            </Position>
            <AltitudeMeters>464.399993896484375</AltitudeMeters>
            <DistanceMeters>3209.3618604413</DistanceMeters>
          </Trackpoint>
          <Trackpoint>
            <Time>2021-08-09T08:04:49.000Z</Time>
            <Position>
              <LatitudeDegrees>42.93617569841444492340087890625</LatitudeDegrees>
              <LongitudeDegrees>-1.82979335077106952667236328125</LongitudeDegrees>
            </Position>
            <AltitudeMeters>464.399993896484375</AltitudeMeters>
            <DistanceMeters>3214.0094343088</DistanceMeters>
          </Trackpoint>
          <Trackpoint>
            <Time>2021-08-09T08:04:51.000Z</Time>
            <Position>
              <LatitudeDegrees>42.93624476529657840728759765625</LatitudeDegrees>
              <LongitudeDegrees>-1.82977373711764812469482421875</LongitudeDegrees>
            </Position>
            <AltitudeMeters>464.399993896484375</AltitudeMeters>
            <DistanceMeters>3221.8616545018</DistanceMeters>
          </Trackpoint>
          <Trackpoint>
            <Time>2021-08-09T08:04:52.000Z</Time>
            <Position>
              <LatitudeDegrees>42.93627778999507427215576171875</LatitudeDegrees>
              <LongitudeDegrees>-1.82977591641247272491455078125</LongitudeDegrees>
            </Position>
            <AltitudeMeters>464.399993896484375</AltitudeMeters>
            <DistanceMeters>3225.5420233238</DistanceMeters>
          </Trackpoint>
          <Trackpoint>
            <Time>2021-08-09T08:04:53.000Z</Time>
            <Position>
              <LatitudeDegrees>42.93630746193230152130126953125</LatitudeDegrees>
              <LongitudeDegrees>-1.82975496165454387664794921875</LongitudeDegrees>
            </Position>
            <AltitudeMeters>464.399993896484375</AltitudeMeters>
            <DistanceMeters>3229.2590136331</DistanceMeters>
          </Trackpoint>
          <Trackpoint>
            <Time>2021-08-09T08:04:54.000Z</Time>
            <Position>
              <LatitudeDegrees>42.936337888240814208984375</LatitudeDegrees>
              <LongitudeDegrees>-1.82974020950496196746826171875</LongitudeDegrees>
            </Position>
            <AltitudeMeters>464.399993896484375</AltitudeMeters>
            <DistanceMeters>3232.8524812223</DistanceMeters>
          </Trackpoint>
          <Trackpoint>
            <Time>2021-08-09T08:04:55.000Z</Time>
            <Position>
              <LatitudeDegrees>42.93635909445583820343017578125</LatitudeDegrees>
              <LongitudeDegrees>-1.82973702438175678253173828125</LongitudeDegrees>
            </Position>
            <AltitudeMeters>464.20001220703125</AltitudeMeters>
            <DistanceMeters>3235.2262477865</DistanceMeters>
          </Trackpoint>
          <Trackpoint>
            <Time>2021-08-09T08:04:56.000Z</Time>
            <Position>
              <LatitudeDegrees>42.936377115547657012939453125</LatitudeDegrees>
              <LongitudeDegrees>-1.82972528971731662750244140625</LongitudeDegrees>
            </Position>
            <AltitudeMeters>464.20001220703125</AltitudeMeters>
            <DistanceMeters>3237.44873554</DistanceMeters>
          </Trackpoint>
          <Trackpoint>
            <Time>2021-08-09T08:04:57.000Z</Time>
            <Position>
              <LatitudeDegrees>42.93638071976602077484130859375</LatitudeDegrees>
              <LongitudeDegrees>-1.82972051203250885009765625</LongitudeDegrees>
            </Position>
            <AltitudeMeters>464</AltitudeMeters>
            <DistanceMeters>3238.0028317403</DistanceMeters>
          </Trackpoint>
          <Trackpoint>
            <Time>2021-08-09T08:04:58.000Z</Time>
            <Position>
              <LatitudeDegrees>42.93638071976602077484130859375</LatitudeDegrees>
              <LongitudeDegrees>-1.82972051203250885009765625</LongitudeDegrees>
            </Position>
            <AltitudeMeters>464</AltitudeMeters>
            <DistanceMeters>3238.0028317403</DistanceMeters>
          </Trackpoint>
          <Trackpoint>
            <Time>2021-08-09T08:05:03.000Z</Time>
            <Position>
              <LatitudeDegrees>42.93638071976602077484130859375</LatitudeDegrees>
              <LongitudeDegrees>-1.82972051203250885009765625</LongitudeDegrees>
            </Position>
            <AltitudeMeters>463.79998779296875</AltitudeMeters>
            <DistanceMeters>3238.0028317403</DistanceMeters>
          </Trackpoint>
          <Trackpoint>
            <Time>2021-08-09T08:05:15.000Z</Time>
            <Position>
              <LatitudeDegrees>42.936380803585052490234375</LatitudeDegrees>
              <LongitudeDegrees>-1.82972051203250885009765625</LongitudeDegrees>
            </Position>
            <AltitudeMeters>463.600006103515625</AltitudeMeters>
            <DistanceMeters>3238.0028317403</DistanceMeters>
          </Trackpoint>
          <Trackpoint>
            <Time>2021-08-09T08:05:23.000Z</Time>
            <Position>
              <LatitudeDegrees>42.93638071976602077484130859375</LatitudeDegrees>
              <LongitudeDegrees>-1.82972051203250885009765625</LongitudeDegrees>
            </Position>
            <AltitudeMeters>463.399993896484375</AltitudeMeters>
            <DistanceMeters>3238.0028317403</DistanceMeters>
          </Trackpoint>
          <Trackpoint>
            <Time>2021-08-09T08:05:55.000Z</Time>
            <Position>
              <LatitudeDegrees>42.93637921102344989776611328125</LatitudeDegrees>
              <LongitudeDegrees>-1.82972227223217487335205078125</LongitudeDegrees>
            </Position>
            <AltitudeMeters>463.600006103515625</AltitudeMeters>
            <DistanceMeters>3238.2153179333</DistanceMeters>
          </Trackpoint>
          <Trackpoint>
            <Time>2021-08-09T08:07:29.000Z</Time>
            <Position>
              <LatitudeDegrees>42.936389185488224029541015625</LatitudeDegrees>
              <LongitudeDegrees>-1.8297169916331768035888671875</LongitudeDegrees>
            </Position>
            <AltitudeMeters>463.20001220703125</AltitudeMeters>
            <DistanceMeters>3239.4022012153</DistanceMeters>
          </Trackpoint>
          <Trackpoint>
            <Time>2021-08-09T08:07:32.000Z</Time>
            <Position>
              <LatitudeDegrees>42.93644391931593418121337890625</LatitudeDegrees>
              <LongitudeDegrees>-1.82968321256339550018310546875</LongitudeDegrees>
            </Position>
            <AltitudeMeters>463.20001220703125</AltitudeMeters>
            <DistanceMeters>3246.0879231956</DistanceMeters>
          </Trackpoint>
          <Trackpoint>
            <Time>2021-08-09T08:07:35.000Z</Time>
            <Position>
              <LatitudeDegrees>42.93650762178003787994384765625</LatitudeDegrees>
              <LongitudeDegrees>-1.8296492658555507659912109375</LongitudeDegrees>
            </Position>
            <AltitudeMeters>463.20001220703125</AltitudeMeters>
            <DistanceMeters>3253.6983706405</DistanceMeters>
          </Trackpoint>
          <Trackpoint>
            <Time>2021-08-09T08:07:38.000Z</Time>
            <Position>
              <LatitudeDegrees>42.9365806281566619873046875</LatitudeDegrees>
              <LongitudeDegrees>-1.82957835495471954345703125</LongitudeDegrees>
            </Position>
            <AltitudeMeters>463</AltitudeMeters>
            <DistanceMeters>3263.6684800429</DistanceMeters>
          </Trackpoint>
          <Trackpoint>
            <Time>2021-08-09T08:07:41.000Z</Time>
            <Position>
              <LatitudeDegrees>42.9366495274007320404052734375</LatitudeDegrees>
              <LongitudeDegrees>-1.829503588378429412841796875</LongitudeDegrees>
            </Position>
            <AltitudeMeters>463</AltitudeMeters>
            <DistanceMeters>3273.4622266185</DistanceMeters>
          </Trackpoint>
          <Trackpoint>
            <Time>2021-08-09T08:07:42.000Z</Time>
            <Position>
              <LatitudeDegrees>42.93667090125381946563720703125</LatitudeDegrees>
              <LongitudeDegrees>-1.829474754631519317626953125</LongitudeDegrees>
            </Position>
            <AltitudeMeters>463</AltitudeMeters>
            <DistanceMeters>3276.8084625323</DistanceMeters>
          </Trackpoint>
          <Trackpoint>
            <Time>2021-08-09T08:07:43.000Z</Time>
            <Position>
              <LatitudeDegrees>42.93669235892593860626220703125</LatitudeDegrees>
              <LongitudeDegrees>-1.82944432832300662994384765625</LongitudeDegrees>
            </Position>
            <AltitudeMeters>463</AltitudeMeters>
            <DistanceMeters>3280.2517880137</DistanceMeters>
          </Trackpoint>
          <Trackpoint>
            <Time>2021-08-09T08:07:45.000Z</Time>
            <Position>
              <LatitudeDegrees>42.93674063868820667266845703125</LatitudeDegrees>
              <LongitudeDegrees>-1.82937744073569774627685546875</LongitudeDegrees>
            </Position>
            <AltitudeMeters>463</AltitudeMeters>
            <DistanceMeters>3287.9054215228</DistanceMeters>
          </Trackpoint>
          <Trackpoint>
            <Time>2021-08-09T08:07:52.000Z</Time>
            <Position>
              <LatitudeDegrees>42.93691179715096950531005859375</LatitudeDegrees>
              <LongitudeDegrees>-1.82909379713237285614013671875</LongitudeDegrees>
            </Position>
            <AltitudeMeters>462.399993896484375</AltitudeMeters>
            <DistanceMeters>3317.8570821513</DistanceMeters>
          </Trackpoint>
          <Trackpoint>
            <Time>2021-08-09T08:07:58.000Z</Time>
            <Position>
              <LatitudeDegrees>42.937041632831096649169921875</LatitudeDegrees>
              <LongitudeDegrees>-1.8287738598883152008056640625</LongitudeDegrees>
            </Position>
            <AltitudeMeters>462</AltitudeMeters>
            <DistanceMeters>3347.6642829813</DistanceMeters>
          </Trackpoint>
          <Trackpoint>
            <Time>2021-08-09T08:08:00.000Z</Time>
            <Position>
              <LatitudeDegrees>42.93708479963243007659912109375</LatitudeDegrees>
              <LongitudeDegrees>-1.8286625482141971588134765625</LongitudeDegrees>
            </Position>
            <AltitudeMeters>461.79998779296875</AltitudeMeters>
            <DistanceMeters>3357.9280479725</DistanceMeters>
          </Trackpoint>
          <Trackpoint>
            <Time>2021-08-09T08:08:04.000Z</Time>
            <Position>
              <LatitudeDegrees>42.93715805746614933013916015625</LatitudeDegrees>
              <LongitudeDegrees>-1.82847303338348865509033203125</LongitudeDegrees>
            </Position>
            <AltitudeMeters>461.79998779296875</AltitudeMeters>
            <DistanceMeters>3375.3907419661</DistanceMeters>
          </Trackpoint>
          <Trackpoint>
            <Time>2021-08-09T08:08:07.000Z</Time>
            <Position>
              <LatitudeDegrees>42.93723416514694690704345703125</LatitudeDegrees>
              <LongitudeDegrees>-1.82835686020553112030029296875</LongitudeDegrees>
            </Position>
            <AltitudeMeters>461.600006103515625</AltitudeMeters>
            <DistanceMeters>3388.0941468691</DistanceMeters>
          </Trackpoint>
          <Trackpoint>
            <Time>2021-08-09T08:08:09.000Z</Time>
            <Position>
              <LatitudeDegrees>42.93728613294661045074462890625</LatitudeDegrees>
              <LongitudeDegrees>-1.828264407813549041748046875</LongitudeDegrees>
            </Position>
            <AltitudeMeters>461.600006103515625</AltitudeMeters>
            <DistanceMeters>3397.5920657819</DistanceMeters>
          </Trackpoint>
          <Trackpoint>
            <Time>2021-08-09T08:08:11.000Z</Time>
            <Position>
              <LatitudeDegrees>42.93731153011322021484375</LatitudeDegrees>
              <LongitudeDegrees>-1.828165166079998016357421875</LongitudeDegrees>
            </Position>
            <AltitudeMeters>461.399993896484375</AltitudeMeters>
            <DistanceMeters>3406.1581851591</DistanceMeters>
          </Trackpoint>
          <Trackpoint>
            <Time>2021-08-09T08:08:12.000Z</Time>
            <Position>
              <LatitudeDegrees>42.93733097612857818603515625</LatitudeDegrees>
              <LongitudeDegrees>-1.8281210772693157196044921875</LongitudeDegrees>
            </Position>
            <AltitudeMeters>461.399993896484375</AltitudeMeters>
            <DistanceMeters>3410.3522987619</DistanceMeters>
          </Trackpoint>
          <Trackpoint>
            <Time>2021-08-09T08:08:18.000Z</Time>
            <Position>
              <LatitudeDegrees>42.93747137300670146942138671875</LatitudeDegrees>
              <LongitudeDegrees>-1.82786098681390285491943359375</LongitudeDegrees>
            </Position>
            <AltitudeMeters>461.20001220703125</AltitudeMeters>
            <DistanceMeters>3436.6834451358</DistanceMeters>
          </Trackpoint>
          <Trackpoint>
            <Time>2021-08-09T08:08:22.000Z</Time>
            <Position>
              <LatitudeDegrees>42.9375574551522731781005859375</LatitudeDegrees>
              <LongitudeDegrees>-1.82764842174947261810302734375</LongitudeDegrees>
            </Position>
            <AltitudeMeters>461</AltitudeMeters>
            <DistanceMeters>3456.4773067285</DistanceMeters>
          </Trackpoint>
          <Trackpoint>
            <Time>2021-08-09T08:08:25.000Z</Time>
            <Position>
              <LatitudeDegrees>42.93762392364442348480224609375</LatitudeDegrees>
              <LongitudeDegrees>-1.82750877924263477325439453125</LongitudeDegrees>
            </Position>
            <AltitudeMeters>460.600006103515625</AltitudeMeters>
            <DistanceMeters>3470.0491709816</DistanceMeters>
          </Trackpoint>
          <Trackpoint>
            <Time>2021-08-09T08:08:30.000Z</Time>
            <Position>
              <LatitudeDegrees>42.93776817619800567626953125</LatitudeDegrees>
              <LongitudeDegrees>-1.82725765742361545562744140625</LongitudeDegrees>
            </Position>
            <AltitudeMeters>460.600006103515625</AltitudeMeters>
            <DistanceMeters>3496.0583837095</DistanceMeters>
          </Trackpoint>
          <Trackpoint>
            <Time>2021-08-09T08:08:32.000Z</Time>
            <Position>
              <LatitudeDegrees>42.937849648296833038330078125</LatitudeDegrees>
              <LongitudeDegrees>-1.82716093026101589202880859375</LongitudeDegrees>
            </Position>
            <AltitudeMeters>460.600006103515625</AltitudeMeters>
            <DistanceMeters>3508.0724064279</DistanceMeters>
          </Trackpoint>
          <Trackpoint>
            <Time>2021-08-09T08:08:34.000Z</Time>
            <Position>
              <LatitudeDegrees>42.9379403404891490936279296875</LatitudeDegrees>
              <LongitudeDegrees>-1.82706638239324092864990234375</LongitudeDegrees>
            </Position>
            <AltitudeMeters>460.600006103515625</AltitudeMeters>
            <DistanceMeters>3520.7704789188</DistanceMeters>
          </Trackpoint>
          <Trackpoint>
            <Time>2021-08-09T08:08:35.000Z</Time>
            <Position>
              <LatitudeDegrees>42.93797629885375499725341796875</LatitudeDegrees>
              <LongitudeDegrees>-1.82702832855284214019775390625</LongitudeDegrees>
            </Position>
            <AltitudeMeters>460.600006103515625</AltitudeMeters>
            <DistanceMeters>3525.8337177068</DistanceMeters>
          </Trackpoint>
          <Trackpoint>
            <Time>2021-08-09T08:08:36.000Z</Time>
            <Position>
              <LatitudeDegrees>42.93801686726510524749755859375</LatitudeDegrees>
              <LongitudeDegrees>-1.8269868381321430206298828125</LongitudeDegrees>
            </Position>
            <AltitudeMeters>460.600006103515625</AltitudeMeters>
            <DistanceMeters>3531.4748159499</DistanceMeters>
          </Trackpoint>
          <Trackpoint>
            <Time>2021-08-09T08:08:37.000Z</Time>
            <Position>
              <LatitudeDegrees>42.93804938904941082000732421875</LatitudeDegrees>
              <LongitudeDegrees>-1.82694719173014163970947265625</LongitudeDegrees>
            </Position>
            <AltitudeMeters>460.600006103515625</AltitudeMeters>
            <DistanceMeters>3536.3267649696</DistanceMeters>
          </Trackpoint>
          <Trackpoint>
            <Time>2021-08-09T08:08:38.000Z</Time>
            <Position>
              <LatitudeDegrees>42.93808333575725555419921875</LatitudeDegrees>
              <LongitudeDegrees>-1.826909892261028289794921875</LongitudeDegrees>
            </Position>
            <AltitudeMeters>460.399993896484375</AltitudeMeters>
            <DistanceMeters>3541.1749903133</DistanceMeters>
          </Trackpoint>
          <Trackpoint>
            <Time>2021-08-09T08:08:40.000Z</Time>
            <Position>
              <LatitudeDegrees>42.938156425952911376953125</LatitudeDegrees>
              <LongitudeDegrees>-1.8268772028386592864990234375</LongitudeDegrees>
            </Position>
            <AltitudeMeters>460.399993896484375</AltitudeMeters>
            <DistanceMeters>3549.7347823824</DistanceMeters>
          </Trackpoint>
          <Trackpoint>
            <Time>2021-08-09T08:08:41.000Z</Time>
            <Position>
              <LatitudeDegrees>42.93820227496325969696044921875</LatitudeDegrees>
              <LongitudeDegrees>-1.82686974294483661651611328125</LongitudeDegrees>
            </Position>
            <AltitudeMeters>460.399993896484375</AltitudeMeters>
            <DistanceMeters>3554.8750161976</DistanceMeters>
          </Trackpoint>
          <Trackpoint>
            <Time>2021-08-09T08:08:42.000Z</Time>
            <Position>
              <LatitudeDegrees>42.93824535794556140899658203125</LatitudeDegrees>
              <LongitudeDegrees>-1.826852895319461822509765625</LongitudeDegrees>
            </Position>
            <AltitudeMeters>460.20001220703125</AltitudeMeters>
            <DistanceMeters>3559.8618819996</DistanceMeters>
          </Trackpoint>
          <Trackpoint>
            <Time>2021-08-09T08:08:43.000Z</Time>
            <Position>
              <LatitudeDegrees>42.93828626163303852081298828125</LatitudeDegrees>
              <LongitudeDegrees>-1.826838813722133636474609375</LongitudeDegrees>
            </Position>
            <AltitudeMeters>460.399993896484375</AltitudeMeters>
            <DistanceMeters>3564.5577787911</DistanceMeters>
          </Trackpoint>
          <Trackpoint>
            <Time>2021-08-09T08:08:44.000Z</Time>
            <Position>
              <LatitudeDegrees>42.93832473456859588623046875</LatitudeDegrees>
              <LongitudeDegrees>-1.826823391020298004150390625</LongitudeDegrees>
            </Position>
            <AltitudeMeters>460.399993896484375</AltitudeMeters>
            <DistanceMeters>3569.0210005686</DistanceMeters>
          </Trackpoint>
          <Trackpoint>
            <Time>2021-08-09T08:08:45.000Z</Time>
            <Position>
              <LatitudeDegrees>42.93836169876158237457275390625</LatitudeDegrees>
              <LongitudeDegrees>-1.826803945004940032958984375</LongitudeDegrees>
            </Position>
            <AltitudeMeters>460.399993896484375</AltitudeMeters>
            <DistanceMeters>3573.4302810749</DistanceMeters>
          </Trackpoint>
          <Trackpoint>
            <Time>2021-08-09T08:08:46.000Z</Time>
            <Position>
              <LatitudeDegrees>42.9383956454694271087646484375</LatitudeDegrees>
              <LongitudeDegrees>-1.82678625918924808502197265625</LongitudeDegrees>
            </Position>
            <AltitudeMeters>460.399993896484375</AltitudeMeters>
            <DistanceMeters>3577.4742232654</DistanceMeters>
          </Trackpoint>
          <Trackpoint>
            <Time>2021-08-09T08:08:47.000Z</Time>
            <Position>
              <LatitudeDegrees>42.938428334891796112060546875</LatitudeDegrees>
              <LongitudeDegrees>-1.82677368633449077606201171875</LongitudeDegrees>
            </Position>
            <AltitudeMeters>460.399993896484375</AltitudeMeters>
            <DistanceMeters>3581.2538503548</DistanceMeters>
          </Trackpoint>
          <Trackpoint>
            <Time>2021-08-09T08:08:49.000Z</Time>
            <Position>
              <LatitudeDegrees>42.9385025985538959503173828125</LatitudeDegrees>
              <LongitudeDegrees>-1.82675004936754703521728515625</LongitudeDegrees>
            </Position>
            <AltitudeMeters>460.79998779296875</AltitudeMeters>
            <DistanceMeters>3589.7416032888</DistanceMeters>
          </Trackpoint>
          <Trackpoint>
            <Time>2021-08-09T08:08:54.000Z</Time>
            <Position>
              <LatitudeDegrees>42.93871860019862651824951171875</LatitudeDegrees>
              <LongitudeDegrees>-1.82665080763399600982666015625</LongitudeDegrees>
            </Position>
            <AltitudeMeters>461.20001220703125</AltitudeMeters>
            <DistanceMeters>3615.1066169209</DistanceMeters>
          </Trackpoint>
          <Trackpoint>
            <Time>2021-08-09T08:08:56.000Z</Time>
            <Position>
              <LatitudeDegrees>42.93879009783267974853515625</LatitudeDegrees>
              <LongitudeDegrees>-1.82658945210278034210205078125</LongitudeDegrees>
            </Position>
            <AltitudeMeters>461</AltitudeMeters>
            <DistanceMeters>3624.5051384948</DistanceMeters>
          </Trackpoint>
          <Trackpoint>
            <Time>2021-08-09T08:08:57.000Z</Time>
            <Position>
              <LatitudeDegrees>42.9388244636356830596923828125</LatitudeDegrees>
              <LongitudeDegrees>-1.82655416429042816162109375</LongitudeDegrees>
            </Position>
            <AltitudeMeters>461</AltitudeMeters>
            <DistanceMeters>3629.2905615547</DistanceMeters>
          </Trackpoint>
          <Trackpoint>
            <Time>2021-08-09T08:08:58.000Z</Time>
            <Position>
              <LatitudeDegrees>42.9388613440096378326416015625</LatitudeDegrees>
              <LongitudeDegrees>-1.8265187926590442657470703125</LongitudeDegrees>
            </Position>
            <AltitudeMeters>460.79998779296875</AltitudeMeters>
            <DistanceMeters>3634.3063160316</DistanceMeters>
          </Trackpoint>
          <Trackpoint>
            <Time>2021-08-09T08:08:59.000Z</Time>
            <Position>
              <LatitudeDegrees>42.93890476226806640625</LatitudeDegrees>
              <LongitudeDegrees>-1.82648316957056522369384765625</LongitudeDegrees>
            </Position>
            <AltitudeMeters>460.600006103515625</AltitudeMeters>
            <DistanceMeters>3639.9442118344</DistanceMeters>
          </Trackpoint>
          <Trackpoint>
            <Time>2021-08-09T08:09:01.000Z</Time>
            <Position>
              <LatitudeDegrees>42.93900995515286922454833984375</LatitudeDegrees>
              <LongitudeDegrees>-1.8264282681047916412353515625</LongitudeDegrees>
            </Position>
            <AltitudeMeters>460.399993896484375</AltitudeMeters>
            <DistanceMeters>3652.4780157221</DistanceMeters>
          </Trackpoint>
          <Trackpoint>
            <Time>2021-08-09T08:09:03.000Z</Time>
            <Position>
              <LatitudeDegrees>42.93911841697990894317626953125</LatitudeDegrees>
              <LongitudeDegrees>-1.82638728059828281402587890625</LongitudeDegrees>
            </Position>
            <AltitudeMeters>459.79998779296875</AltitudeMeters>
            <DistanceMeters>3665.0035316051</DistanceMeters>
          </Trackpoint>
          <Trackpoint>
            <Time>2021-08-09T08:09:04.000Z</Time>
            <Position>
              <LatitudeDegrees>42.93917088769376277923583984375</LatitudeDegrees>
              <LongitudeDegrees>-1.8263692595064640045166015625</LongitudeDegrees>
            </Position>
            <AltitudeMeters>459.600006103515625</AltitudeMeters>
            <DistanceMeters>3671.0255567628</DistanceMeters>
          </Trackpoint>
          <Trackpoint>
            <Time>2021-08-09T08:09:05.000Z</Time>
            <Position>
              <LatitudeDegrees>42.9392221011221408843994140625</LatitudeDegrees>
              <LongitudeDegrees>-1.82634855620563030242919921875</LongitudeDegrees>
            </Position>
            <AltitudeMeters>459.20001220703125</AltitudeMeters>
            <DistanceMeters>3676.9698556386</DistanceMeters>
          </Trackpoint>
          <Trackpoint>
            <Time>2021-08-09T08:09:07.000Z</Time>
            <Position>
              <LatitudeDegrees>42.93932788074016571044921875</LatitudeDegrees>
              <LongitudeDegrees>-1.82630362920463085174560546875</LongitudeDegrees>
            </Position>
            <AltitudeMeters>459</AltitudeMeters>
            <DistanceMeters>3689.2991827434</DistanceMeters>
          </Trackpoint>
          <Trackpoint>
            <Time>2021-08-09T08:09:11.000Z</Time>
            <Position>
              <LatitudeDegrees>42.939525358378887176513671875</LatitudeDegrees>
              <LongitudeDegrees>-1.82617806829512119293212890625</LongitudeDegrees>
            </Position>
            <AltitudeMeters>458.79998779296875</AltitudeMeters>
            <DistanceMeters>3713.5434755953</DistanceMeters>
          </Trackpoint>
          <Trackpoint>
            <Time>2021-08-09T08:09:12.000Z</Time>
            <Position>
              <LatitudeDegrees>42.93957187794148921966552734375</LatitudeDegrees>
              <LongitudeDegrees>-1.82614378631114959716796875</LongitudeDegrees>
            </Position>
            <AltitudeMeters>458.600006103515625</AltitudeMeters>
            <DistanceMeters>3719.4259285644</DistanceMeters>
          </Trackpoint>
          <Trackpoint>
            <Time>2021-08-09T08:09:14.000Z</Time>
            <Position>
              <LatitudeDegrees>42.93966810218989849090576171875</LatitudeDegrees>
              <LongitudeDegrees>-1.82606642134487628936767578125</LongitudeDegrees>
            </Position>
            <AltitudeMeters>458.600006103515625</AltitudeMeters>
            <DistanceMeters>3731.8537372006</DistanceMeters>
          </Trackpoint>
          <Trackpoint>
            <Time>2021-08-09T08:09:15.000Z</Time>
            <Position>
              <LatitudeDegrees>42.939712107181549072265625</LatitudeDegrees>
              <LongitudeDegrees>-1.82603255845606327056884765625</LongitudeDegrees>
            </Position>
            <AltitudeMeters>458.600006103515625</AltitudeMeters>
            <DistanceMeters>3737.475593438</DistanceMeters>
          </Trackpoint>
          <Trackpoint>
            <Time>2021-08-09T08:09:16.000Z</Time>
            <Position>
              <LatitudeDegrees>42.93975426815450191497802734375</LatitudeDegrees>
              <LongitudeDegrees>-1.82599618099629878997802734375</LongitudeDegrees>
            </Position>
            <AltitudeMeters>458.600006103515625</AltitudeMeters>
            <DistanceMeters>3743.0263249958</DistanceMeters>
          </Trackpoint>
          <Trackpoint>
            <Time>2021-08-09T08:09:17.000Z</Time>
            <Position>
              <LatitudeDegrees>42.9398044757544994354248046875</LatitudeDegrees>
              <LongitudeDegrees>-1.8259464763104915618896484375</LongitudeDegrees>
            </Position>
            <AltitudeMeters>458.600006103515625</AltitudeMeters>
            <DistanceMeters>3749.9273845641</DistanceMeters>
          </Trackpoint>
          <Trackpoint>
            <Time>2021-08-09T08:09:18.000Z</Time>
            <Position>
              <LatitudeDegrees>42.939846552908420562744140625</LatitudeDegrees>
              <LongitudeDegrees>-1.82590682990849018096923828125</LongitudeDegrees>
            </Position>
            <AltitudeMeters>458.600006103515625</AltitudeMeters>
            <DistanceMeters>3755.6163030883</DistanceMeters>
          </Trackpoint>
          <Trackpoint>
            <Time>2021-08-09T08:09:19.000Z</Time>
            <Position>
              <LatitudeDegrees>42.9398903064429759979248046875</LatitudeDegrees>
              <LongitudeDegrees>-1.8258641660213470458984375</LongitudeDegrees>
            </Position>
            <AltitudeMeters>458.79998779296875</AltitudeMeters>
            <DistanceMeters>3761.5992140039</DistanceMeters>
          </Trackpoint>
          <Trackpoint>
            <Time>2021-08-09T08:09:20.000Z</Time>
            <Position>
              <LatitudeDegrees>42.93992810882627964019775390625</LatitudeDegrees>
              <LongitudeDegrees>-1.82583357207477092742919921875</LongitudeDegrees>
            </Position>
            <AltitudeMeters>458.79998779296875</AltitudeMeters>
            <DistanceMeters>3766.4891672167</DistanceMeters>
          </Trackpoint>
          <Trackpoint>
            <Time>2021-08-09T08:09:21.000Z</Time>
            <Position>
              <LatitudeDegrees>42.93996280990540981292724609375</LatitudeDegrees>
              <LongitudeDegrees>-1.82580641470849514007568359375</LongitudeDegrees>
            </Position>
            <AltitudeMeters>458.79998779296875</AltitudeMeters>
            <DistanceMeters>3770.9402331248</DistanceMeters>
          </Trackpoint>
          <Trackpoint>
            <Time>2021-08-09T08:09:22.000Z</Time>
            <Position>
              <LatitudeDegrees>42.93999373912811279296875</LatitudeDegrees>
              <LongitudeDegrees>-1.8257815204560756683349609375</LongitudeDegrees>
            </Position>
            <AltitudeMeters>458.79998779296875</AltitudeMeters>
            <DistanceMeters>3774.9370074779</DistanceMeters>
          </Trackpoint>
          <Trackpoint>
            <Time>2021-08-09T08:09:23.000Z</Time>
            <Position>
              <LatitudeDegrees>42.9400270991027355194091796875</LatitudeDegrees>
              <LongitudeDegrees>-1.82575863786041736602783203125</LongitudeDegrees>
            </Position>
            <AltitudeMeters>458.79998779296875</AltitudeMeters>
            <DistanceMeters>3779.0921857124</DistanceMeters>
          </Trackpoint>
          <Trackpoint>
            <Time>2021-08-09T08:09:24.000Z</Time>
            <Position>
              <LatitudeDegrees>42.94006808660924434661865234375</LatitudeDegrees>
              <LongitudeDegrees>-1.8257305584847927093505859375</LongitudeDegrees>
            </Position>
            <AltitudeMeters>459</AltitudeMeters>
            <DistanceMeters>3784.1962792206</DistanceMeters>
          </Trackpoint>
          <Trackpoint>
            <Time>2021-08-09T08:09:25.000Z</Time>
            <Position>
              <LatitudeDegrees>42.94009859673678874969482421875</LatitudeDegrees>
              <LongitudeDegrees>-1.82570432312786579132080078125</LongitudeDegrees>
            </Position>
            <AltitudeMeters>459.20001220703125</AltitudeMeters>
            <DistanceMeters>3788.2099628624</DistanceMeters>
          </Trackpoint>
          <Trackpoint>
            <Time>2021-08-09T08:09:26.000Z</Time>
            <Position>
              <LatitudeDegrees>42.9401296935975551605224609375</LatitudeDegrees>
              <LongitudeDegrees>-1.82568772695958614349365234375</LongitudeDegrees>
            </Position>
            <AltitudeMeters>459.399993896484375</AltitudeMeters>
            <DistanceMeters>3791.9269531717</DistanceMeters>
          </Trackpoint>
          <Trackpoint>
            <Time>2021-08-09T08:09:27.000Z</Time>
            <Position>
              <LatitudeDegrees>42.94011150486767292022705078125</LatitudeDegrees>
              <LongitudeDegrees>-1.82567750103771686553955078125</LongitudeDegrees>
            </Position>
            <AltitudeMeters>459.399993896484375</AltitudeMeters>
            <DistanceMeters>3794.1166953007</DistanceMeters>
          </Trackpoint>
          <Trackpoint>
            <Time>2021-08-09T08:09:31.000Z</Time>
            <Position>
              <LatitudeDegrees>42.9401793144643306732177734375</LatitudeDegrees>
              <LongitudeDegrees>-1.82562268339097499847412109375</LongitudeDegrees>
            </Position>
            <AltitudeMeters>459.600006103515625</AltitudeMeters>
            <DistanceMeters>3802.8869969574</DistanceMeters>
          </Trackpoint>
          <Trackpoint>
            <Time>2021-08-09T08:09:32.000Z</Time>
            <Position>
              <LatitudeDegrees>42.94020085595548152923583984375</LatitudeDegrees>
              <LongitudeDegrees>-1.82561145164072513580322265625</LongitudeDegrees>
            </Position>
            <AltitudeMeters>459.600006103515625</AltitudeMeters>
            <DistanceMeters>3805.4544773963</DistanceMeters>
          </Trackpoint>
          <Trackpoint>
            <Time>2021-08-09T08:09:33.000Z</Time>
            <Position>
              <LatitudeDegrees>42.94022348709404468536376953125</LatitudeDegrees>
              <LongitudeDegrees>-1.82559016160666942596435546875</LongitudeDegrees>
            </Position>
            <AltitudeMeters>459.600006103515625</AltitudeMeters>
            <DistanceMeters>3808.513097869</DistanceMeters>
          </Trackpoint>
          <Trackpoint>
            <Time>2021-08-09T08:09:35.000Z</Time>
            <Position>
              <LatitudeDegrees>42.94028065167367458343505859375</LatitudeDegrees>
              <LongitudeDegrees>-1.8254982121288776397705078125</LongitudeDegrees>
            </Position>
            <AltitudeMeters>459.600006103515625</AltitudeMeters>
            <DistanceMeters>3818.3427376361</DistanceMeters>
          </Trackpoint>
          <Trackpoint>
            <Time>2021-08-09T08:09:36.000Z</Time>
            <Position>
              <LatitudeDegrees>42.94030780903995037078857421875</LatitudeDegrees>
              <LongitudeDegrees>-1.82542922906577587127685546875</LongitudeDegrees>
            </Position>
            <AltitudeMeters>459.600006103515625</AltitudeMeters>
            <DistanceMeters>3824.7244023689</DistanceMeters>
          </Trackpoint>
          <Trackpoint>
            <Time>2021-08-09T08:09:37.000Z</Time>
            <Position>
              <LatitudeDegrees>42.9403291828930377960205078125</LatitudeDegrees>
              <LongitudeDegrees>-1.82535328902304172515869140625</LongitudeDegrees>
            </Position>
            <AltitudeMeters>459.600006103515625</AltitudeMeters>
            <DistanceMeters>3831.3538353803</DistanceMeters>
          </Trackpoint>
          <Trackpoint>
            <Time>2021-08-09T08:09:38.000Z</Time>
            <Position>
              <LatitudeDegrees>42.9403464496135711669921875</LatitudeDegrees>
              <LongitudeDegrees>-1.82527986355125904083251953125</LongitudeDegrees>
            </Position>
            <AltitudeMeters>459.600006103515625</AltitudeMeters>
            <DistanceMeters>3837.6385433581</DistanceMeters>
          </Trackpoint>
          <Trackpoint>
            <Time>2021-08-09T08:09:39.000Z</Time>
            <Position>
              <LatitudeDegrees>42.9403652250766754150390625</LatitudeDegrees>
              <LongitudeDegrees>-1.825222112238407135009765625</LongitudeDegrees>
            </Position>
            <AltitudeMeters>459.399993896484375</AltitudeMeters>
            <DistanceMeters>3842.786676453</DistanceMeters>
          </Trackpoint>
          <Trackpoint>
            <Time>2021-08-09T08:09:40.000Z</Time>
            <Position>
              <LatitudeDegrees>42.94038408435881137847900390625</LatitudeDegrees>
              <LongitudeDegrees>-1.82517726905643939971923828125</LongitudeDegrees>
            </Position>
            <AltitudeMeters>458.79998779296875</AltitudeMeters>
            <DistanceMeters>3847.0022654322</DistanceMeters>
          </Trackpoint>
          <Trackpoint>
            <Time>2021-08-09T08:09:41.000Z</Time>
            <Position>
              <LatitudeDegrees>42.94040285982191562652587890625</LatitudeDegrees>
              <LongitudeDegrees>-1.82513636536896228790283203125</LongitudeDegrees>
            </Position>
            <AltitudeMeters>458.600006103515625</AltitudeMeters>
            <DistanceMeters>3850.9364173135</DistanceMeters>
          </Trackpoint>
          <Trackpoint>
            <Time>2021-08-09T08:09:42.000Z</Time>
            <Position>
              <LatitudeDegrees>42.94042012654244899749755859375</LatitudeDegrees>
              <LongitudeDegrees>-1.82510049082338809967041015625</LongitudeDegrees>
            </Position>
            <AltitudeMeters>458.20001220703125</AltitudeMeters>
            <DistanceMeters>3854.4356720424</DistanceMeters>
          </Trackpoint>
          <Trackpoint>
            <Time>2021-08-09T08:09:43.000Z</Time>
            <Position>
              <LatitudeDegrees>42.94043303467333316802978515625</LatitudeDegrees>
              <LongitudeDegrees>-1.825075261294841766357421875</LongitudeDegrees>
            </Position>
            <AltitudeMeters>457.79998779296875</AltitudeMeters>
            <DistanceMeters>3856.9462483424</DistanceMeters>
          </Trackpoint>
          <Trackpoint>
            <Time>2021-08-09T08:09:44.000Z</Time>
            <Position>
              <LatitudeDegrees>42.9404465295374393463134765625</LatitudeDegrees>
              <LongitudeDegrees>-1.82505304925143718719482421875</LongitudeDegrees>
            </Position>
            <AltitudeMeters>457.79998779296875</AltitudeMeters>
            <DistanceMeters>3859.3009175201</DistanceMeters>
          </Trackpoint>
          <Trackpoint>
            <Time>2021-08-09T08:09:45.000Z</Time>
            <Position>
              <LatitudeDegrees>42.94046245515346527099609375</LatitudeDegrees>
              <LongitudeDegrees>-1.8250251375138759613037109375</LongitudeDegrees>
            </Position>
            <AltitudeMeters>457.79998779296875</AltitudeMeters>
            <DistanceMeters>3862.186351713</DistanceMeters>
          </Trackpoint>
          <Trackpoint>
            <Time>2021-08-09T08:09:46.000Z</Time>
            <Position>
              <LatitudeDegrees>42.94048483483493328094482421875</LatitudeDegrees>
              <LongitudeDegrees>-1.82499303482472896575927734375</LongitudeDegrees>
            </Position>
            <AltitudeMeters>457.79998779296875</AltitudeMeters>
            <DistanceMeters>3865.7998666967</DistanceMeters>
          </Trackpoint>
          <Trackpoint>
            <Time>2021-08-09T08:09:51.000Z</Time>
            <Position>
              <LatitudeDegrees>42.94061056338250637054443359375</LatitudeDegrees>
              <LongitudeDegrees>-1.82478415779769420623779296875</LongitudeDegrees>
            </Position>
            <AltitudeMeters>458</AltitudeMeters>
            <DistanceMeters>3887.833773067</DistanceMeters>
          </Trackpoint>
          <Trackpoint>
            <Time>2021-08-09T08:09:52.000Z</Time>
            <Position>
              <LatitudeDegrees>42.9406255669891834259033203125</LatitudeDegrees>
              <LongitudeDegrees>-1.82475398294627666473388671875</LongitudeDegrees>
            </Position>
            <AltitudeMeters>458</AltitudeMeters>
            <DistanceMeters>3890.8055427018</DistanceMeters>
          </Trackpoint>
          <Trackpoint>
            <Time>2021-08-09T08:09:53.000Z</Time>
            <Position>
              <LatitudeDegrees>42.94064073823392391204833984375</LatitudeDegrees>
              <LongitudeDegrees>-1.824723891913890838623046875</LongitudeDegrees>
            </Position>
            <AltitudeMeters>458.20001220703125</AltitudeMeters>
            <DistanceMeters>3893.7818667754</DistanceMeters>
          </Trackpoint>
          <Trackpoint>
            <Time>2021-08-09T08:09:55.000Z</Time>
            <Position>
              <LatitudeDegrees>42.94068901799619197845458984375</LatitudeDegrees>
              <LongitudeDegrees>-1.82465356774628162384033203125</LongitudeDegrees>
            </Position>
            <AltitudeMeters>458.600006103515625</AltitudeMeters>
            <DistanceMeters>3901.6375362197</DistanceMeters>
          </Trackpoint>
          <Trackpoint>
            <Time>2021-08-09T08:09:59.000Z</Time>
            <Position>
              <LatitudeDegrees>42.9408190213143825531005859375</LatitudeDegrees>
              <LongitudeDegrees>-1.82450101710855960845947265625</LongitudeDegrees>
            </Position>
            <AltitudeMeters>458.600006103515625</AltitudeMeters>
            <DistanceMeters>3920.7125958588</DistanceMeters>
          </Trackpoint>
          <Trackpoint>
            <Time>2021-08-09T08:10:00.000Z</Time>
            <Position>
              <LatitudeDegrees>42.94085665605962276458740234375</LatitudeDegrees>
              <LongitudeDegrees>-1.8244789727032184600830078125</LongitudeDegrees>
            </Position>
            <AltitudeMeters>458.600006103515625</AltitudeMeters>
            <DistanceMeters>3925.2699169821</DistanceMeters>
          </Trackpoint>
          <Trackpoint>
            <Time>2021-08-09T08:10:01.000Z</Time>
            <Position>
              <LatitudeDegrees>42.94089831411838531494140625</LatitudeDegrees>
              <LongitudeDegrees>-1.8244441039860248565673828125</LongitudeDegrees>
            </Position>
            <AltitudeMeters>458.79998779296875</AltitudeMeters>
            <DistanceMeters>3930.7072389587</DistanceMeters>
          </Trackpoint>
          <Trackpoint>
            <Time>2021-08-09T08:10:02.000Z</Time>
            <Position>
              <LatitudeDegrees>42.94093142263591289520263671875</LatitudeDegrees>
              <LongitudeDegrees>-1.8244104087352752685546875</LongitudeDegrees>
            </Position>
            <AltitudeMeters>458.79998779296875</AltitudeMeters>
            <DistanceMeters>3935.3030358213</DistanceMeters>
          </Trackpoint>
          <Trackpoint>
            <Time>2021-08-09T08:10:04.000Z</Time>
            <Position>
              <LatitudeDegrees>42.94099914841353893280029296875</LatitudeDegrees>
              <LongitudeDegrees>-1.82433036155998706817626953125</LongitudeDegrees>
            </Position>
            <AltitudeMeters>459</AltitudeMeters>
            <DistanceMeters>3945.2713336294</DistanceMeters>
          </Trackpoint>
          <Trackpoint>
            <Time>2021-08-09T08:10:05.000Z</Time>
            <Position>
              <LatitudeDegrees>42.94103234075009822845458984375</LatitudeDegrees>
              <LongitudeDegrees>-1.824287362396717071533203125</LongitudeDegrees>
            </Position>
            <AltitudeMeters>459</AltitudeMeters>
            <DistanceMeters>3950.3621409714</DistanceMeters>
          </Trackpoint>
          <Trackpoint>
            <Time>2021-08-09T08:10:09.000Z</Time>
            <Position>
              <LatitudeDegrees>42.94117449782788753509521484375</LatitudeDegrees>
              <LongitudeDegrees>-1.824142523109912872314453125</LongitudeDegrees>
            </Position>
            <AltitudeMeters>459.20001220703125</AltitudeMeters>
            <DistanceMeters>3970.1009532034</DistanceMeters>
          </Trackpoint>
          <Trackpoint>
            <Time>2021-08-09T08:10:11.000Z</Time>
            <Position>
              <LatitudeDegrees>42.94123467989265918731689453125</LatitudeDegrees>
              <LongitudeDegrees>-1.8240709416568279266357421875</LongitudeDegrees>
            </Position>
            <AltitudeMeters>459.399993896484375</AltitudeMeters>
            <DistanceMeters>3978.9827744026</DistanceMeters>
          </Trackpoint>
          <Trackpoint>
            <Time>2021-08-09T08:10:14.000Z</Time>
            <Position>
              <LatitudeDegrees>42.94132151640951633453369140625</LatitudeDegrees>
              <LongitudeDegrees>-1.8239824287593364715576171875</LongitudeDegrees>
            </Position>
            <AltitudeMeters>459.399993896484375</AltitudeMeters>
            <DistanceMeters>3991.0421848828</DistanceMeters>
          </Trackpoint>
          <Trackpoint>
            <Time>2021-08-09T08:10:16.000Z</Time>
            <Position>
              <LatitudeDegrees>42.94137817807495594024658203125</LatitudeDegrees>
              <LongitudeDegrees>-1.82392249815165996551513671875</LongitudeDegrees>
            </Position>
            <AltitudeMeters>459.399993896484375</AltitudeMeters>
            <DistanceMeters>3999.017638379</DistanceMeters>
          </Trackpoint>
          <Trackpoint>
            <Time>2021-08-09T08:10:17.000Z</Time>
            <Position>
              <LatitudeDegrees>42.941407598555088043212890625</LatitudeDegrees>
              <LongitudeDegrees>-1.82389718480408191680908203125</LongitudeDegrees>
            </Position>
            <AltitudeMeters>459.399993896484375</AltitudeMeters>
            <DistanceMeters>4002.8881547297</DistanceMeters>
          </Trackpoint>
          <Trackpoint>
            <Time>2021-08-09T08:10:18.000Z</Time>
            <Position>
              <LatitudeDegrees>42.941440455615520477294921875</LatitudeDegrees>
              <LongitudeDegrees>-1.8238699436187744140625</LongitudeDegrees>
            </Position>
            <AltitudeMeters>459.600006103515625</AltitudeMeters>
            <DistanceMeters>4007.1654125984</DistanceMeters>
          </Trackpoint>
          <Trackpoint>
            <Time>2021-08-09T08:10:21.000Z</Time>
            <Position>
              <LatitudeDegrees>42.94152569957077503204345703125</LatitudeDegrees>
              <LongitudeDegrees>-1.82378587312996387481689453125</LongitudeDegrees>
            </Position>
            <AltitudeMeters>459.600006103515625</AltitudeMeters>
            <DistanceMeters>4018.8675965515</DistanceMeters>
          </Trackpoint>
          <Trackpoint>
            <Time>2021-08-09T08:10:22.000Z</Time>
            <Position>
              <LatitudeDegrees>42.94155134819447994232177734375</LatitudeDegrees>
              <LongitudeDegrees>-1.8237648345530033111572265625</LongitudeDegrees>
            </Position>
            <AltitudeMeters>459.600006103515625</AltitudeMeters>
            <DistanceMeters>4022.1976016376</DistanceMeters>
          </Trackpoint>
          <Trackpoint>
            <Time>2021-08-09T08:10:23.000Z</Time>
            <Position>
              <LatitudeDegrees>42.941576577723026275634765625</LatitudeDegrees>
              <LongitudeDegrees>-1.8237423710525035858154296875</LongitudeDegrees>
            </Position>
            <AltitudeMeters>459.600006103515625</AltitudeMeters>
            <DistanceMeters>4025.5505772075</DistanceMeters>
          </Trackpoint>
          <Trackpoint>
            <Time>2021-08-09T08:10:24.000Z</Time>
            <Position>
              <LatitudeDegrees>42.9416012205183506011962890625</LatitudeDegrees>
              <LongitudeDegrees>-1.82371730916202068328857421875</LongitudeDegrees>
            </Position>
            <AltitudeMeters>459.600006103515625</AltitudeMeters>
            <DistanceMeters>4028.9702188547</DistanceMeters>
          </Trackpoint>
          <Trackpoint>
            <Time>2021-08-09T08:10:25.000Z</Time>
            <Position>
              <LatitudeDegrees>42.941626198589801788330078125</LatitudeDegrees>
              <LongitudeDegrees>-1.8236910738050937652587890625</LongitudeDegrees>
            </Position>
            <AltitudeMeters>459.79998779296875</AltitudeMeters>
            <DistanceMeters>4032.4772067527</DistanceMeters>
          </Trackpoint>
          <Trackpoint>
            <Time>2021-08-09T08:10:26.000Z</Time>
            <Position>
              <LatitudeDegrees>42.94165067374706268310546875</LatitudeDegrees>
              <LongitudeDegrees>-1.8236682750284671783447265625</LongitudeDegrees>
            </Position>
            <AltitudeMeters>459.79998779296875</AltitudeMeters>
            <DistanceMeters>4035.7745105055</DistanceMeters>
          </Trackpoint>
          <Trackpoint>
            <Time>2021-08-09T08:10:27.000Z</Time>
            <Position>
              <LatitudeDegrees>42.941675819456577301025390625</LatitudeDegrees>
              <LongitudeDegrees>-1.82365109212696552276611328125</LongitudeDegrees>
            </Position>
            <AltitudeMeters>459.79998779296875</AltitudeMeters>
            <DistanceMeters>4038.9031848039</DistanceMeters>
          </Trackpoint>
          <Trackpoint>
            <Time>2021-08-09T08:10:28.000Z</Time>
            <Position>
              <LatitudeDegrees>42.9417024739086627960205078125</LatitudeDegrees>
              <LongitudeDegrees>-1.823630221188068389892578125</LongitudeDegrees>
            </Position>
            <AltitudeMeters>459.79998779296875</AltitudeMeters>
            <DistanceMeters>4042.3215058711</DistanceMeters>
          </Trackpoint>
          <Trackpoint>
            <Time>2021-08-09T08:10:29.000Z</Time>
            <Position>
              <LatitudeDegrees>42.94172418303787708282470703125</LatitudeDegrees>
              <LongitudeDegrees>-1.823608763515949249267578125</LongitudeDegrees>
            </Position>
            <AltitudeMeters>459.79998779296875</AltitudeMeters>
            <DistanceMeters>4045.3054052282</DistanceMeters>
          </Trackpoint>
          <Trackpoint>
            <Time>2021-08-09T08:10:30.000Z</Time>
            <Position>
              <LatitudeDegrees>42.941750250756740570068359375</LatitudeDegrees>
              <LongitudeDegrees>-1.82358588092029094696044921875</LongitudeDegrees>
            </Position>
            <AltitudeMeters>459.79998779296875</AltitudeMeters>
            <DistanceMeters>4048.7539716951</DistanceMeters>
          </Trackpoint>
          <Trackpoint>
            <Time>2021-08-09T08:10:31.000Z</Time>
            <Position>
              <LatitudeDegrees>42.9417752288281917572021484375</LatitudeDegrees>
              <LongitudeDegrees>-1.8235643394291400909423828125</LongitudeDegrees>
            </Position>
            <AltitudeMeters>459.79998779296875</AltitudeMeters>
            <DistanceMeters>4052.0403026929</DistanceMeters>
          </Trackpoint>
          <Trackpoint>
            <Time>2021-08-09T08:10:32.000Z</Time>
            <Position>
              <LatitudeDegrees>42.94180012308061122894287109375</LatitudeDegrees>
              <LongitudeDegrees>-1.82355050928890705108642578125</LongitudeDegrees>
            </Position>
            <AltitudeMeters>459.79998779296875</AltitudeMeters>
            <DistanceMeters>4055.0302484582</DistanceMeters>
          </Trackpoint>
          <Trackpoint>
            <Time>2021-08-09T08:10:35.000Z</Time>
            <Position>
              <LatitudeDegrees>42.94188746251165866851806640625</LatitudeDegrees>
              <LongitudeDegrees>-1.82353491894900798797607421875</LongitudeDegrees>
            </Position>
            <AltitudeMeters>460.20001220703125</AltitudeMeters>
            <DistanceMeters>4064.8341320596</DistanceMeters>
          </Trackpoint>
          <Trackpoint>
            <Time>2021-08-09T08:10:36.000Z</Time>
            <Position>
              <LatitudeDegrees>42.94191763736307621002197265625</LatitudeDegrees>
              <LongitudeDegrees>-1.8235415406525135040283203125</LongitudeDegrees>
            </Position>
            <AltitudeMeters>460.20001220703125</AltitudeMeters>
            <DistanceMeters>4068.2352389272</DistanceMeters>
          </Trackpoint>
          <Trackpoint>
            <Time>2021-08-09T08:10:37.000Z</Time>
            <Position>
              <LatitudeDegrees>42.94194915331900119781494140625</LatitudeDegrees>
              <LongitudeDegrees>-1.82355017401278018951416015625</LongitudeDegrees>
            </Position>
            <AltitudeMeters>460.20001220703125</AltitudeMeters>
            <DistanceMeters>4071.8123352805</DistanceMeters>
          </Trackpoint>
          <Trackpoint>
            <Time>2021-08-09T08:10:41.000Z</Time>
            <Position>
              <LatitudeDegrees>42.94209281913936138153076171875</LatitudeDegrees>
              <LongitudeDegrees>-1.823609434068202972412109375</LongitudeDegrees>
            </Position>
            <AltitudeMeters>460.399993896484375</AltitudeMeters>
            <DistanceMeters>4088.5154260668</DistanceMeters>
          </Trackpoint>
          <Trackpoint>
            <Time>2021-08-09T08:10:46.000Z</Time>
            <Position>
              <LatitudeDegrees>42.9422590322792530059814453125</LatitudeDegrees>
              <LongitudeDegrees>-1.823769696056842803955078125</LongitudeDegrees>
            </Position>
            <AltitudeMeters>460.399993896484375</AltitudeMeters>
            <DistanceMeters>4111.1593170893</DistanceMeters>
          </Trackpoint>
          <Trackpoint>
            <Time>2021-08-09T08:10:52.000Z</Time>
            <Position>
              <LatitudeDegrees>42.94242809526622295379638671875</LatitudeDegrees>
              <LongitudeDegrees>-1.8240390904247760772705078125</LongitudeDegrees>
            </Position>
            <AltitudeMeters>460.20001220703125</AltitudeMeters>
            <DistanceMeters>4140.070560507</DistanceMeters>
          </Trackpoint>
          <Trackpoint>
            <Time>2021-08-09T08:10:58.000Z</Time>
            <Position>
              <LatitudeDegrees>42.942544184625148773193359375</LatitudeDegrees>
              <LongitudeDegrees>-1.8243267573416233062744140625</LongitudeDegrees>
            </Position>
            <AltitudeMeters>460.20001220703125</AltitudeMeters>
            <DistanceMeters>4166.8343753293</DistanceMeters>
          </Trackpoint>
          <Trackpoint>
            <Time>2021-08-09T08:10:59.000Z</Time>
            <Position>
              <LatitudeDegrees>42.94256874360144138336181640625</LatitudeDegrees>
              <LongitudeDegrees>-1.8243849277496337890625</LongitudeDegrees>
            </Position>
            <AltitudeMeters>460.20001220703125</AltitudeMeters>
            <DistanceMeters>4172.3056369217</DistanceMeters>
          </Trackpoint>
          <Trackpoint>
            <Time>2021-08-09T08:11:00.000Z</Time>
            <Position>
              <LatitudeDegrees>42.94258668087422847747802734375</LatitudeDegrees>
              <LongitudeDegrees>-1.8244367279112339019775390625</LongitudeDegrees>
            </Position>
            <AltitudeMeters>460.20001220703125</AltitudeMeters>
            <DistanceMeters>4176.9745344934</DistanceMeters>
          </Trackpoint>
          <Trackpoint>
            <Time>2021-08-09T08:11:01.000Z</Time>
            <Position>
              <LatitudeDegrees>42.94260210357606410980224609375</LatitudeDegrees>
              <LongitudeDegrees>-1.82447905652225017547607421875</LongitudeDegrees>
            </Position>
            <AltitudeMeters>460.20001220703125</AltitudeMeters>
            <DistanceMeters>4180.8251689244</DistanceMeters>
          </Trackpoint>
          <Trackpoint>
            <Time>2021-08-09T08:11:04.000Z</Time>
            <Position>
              <LatitudeDegrees>42.9426516406238079071044921875</LatitudeDegrees>
              <LongitudeDegrees>-1.82463772594928741455078125</LongitudeDegrees>
            </Position>
            <AltitudeMeters>460.20001220703125</AltitudeMeters>
            <DistanceMeters>4194.8798095179</DistanceMeters>
          </Trackpoint>
          <Trackpoint>
            <Time>2021-08-09T08:11:08.000Z</Time>
            <Position>
              <LatitudeDegrees>42.94271224178373813629150390625</LatitudeDegrees>
              <LongitudeDegrees>-1.8248521350324153900146484375</LongitudeDegrees>
            </Position>
            <AltitudeMeters>460.20001220703125</AltitudeMeters>
            <DistanceMeters>4213.6061008919</DistanceMeters>
          </Trackpoint>
          <Trackpoint>
            <Time>2021-08-09T08:11:11.000Z</Time>
            <Position>
              <LatitudeDegrees>42.9427552409470081329345703125</LatitudeDegrees>
              <LongitudeDegrees>-1.82500426657497882843017578125</LongitudeDegrees>
            </Position>
            <AltitudeMeters>460.399993896484375</AltitudeMeters>
            <DistanceMeters>4226.8932008221</DistanceMeters>
          </Trackpoint>
          <Trackpoint>
            <Time>2021-08-09T08:11:12.000Z</Time>
            <Position>
              <LatitudeDegrees>42.942768819630146026611328125</LatitudeDegrees>
              <LongitudeDegrees>-1.82505170814692974090576171875</LongitudeDegrees>
            </Position>
            <AltitudeMeters>460.399993896484375</AltitudeMeters>
            <DistanceMeters>4231.0440303603</DistanceMeters>
          </Trackpoint>
          <Trackpoint>
            <Time>2021-08-09T08:11:13.000Z</Time>
            <Position>
              <LatitudeDegrees>42.94277829118072986602783203125</LatitudeDegrees>
              <LongitudeDegrees>-1.82509772479534149169921875</LongitudeDegrees>
            </Position>
            <AltitudeMeters>460.399993896484375</AltitudeMeters>
            <DistanceMeters>4234.9389666147</DistanceMeters>
          </Trackpoint>
          <Trackpoint>
            <Time>2021-08-09T08:11:14.000Z</Time>
            <Position>
              <LatitudeDegrees>42.9427844099700450897216796875</LatitudeDegrees>
              <LongitudeDegrees>-1.82514357380568981170654296875</LongitudeDegrees>
            </Position>
            <AltitudeMeters>460.399993896484375</AltitudeMeters>
            <DistanceMeters>4238.7352808805</DistanceMeters>
          </Trackpoint>
          <Trackpoint>
            <Time>2021-08-09T08:11:15.000Z</Time>
            <Position>
              <LatitudeDegrees>42.94279186986386775970458984375</LatitudeDegrees>
              <LongitudeDegrees>-1.82518715970218181610107421875</LongitudeDegrees>
            </Position>
            <AltitudeMeters>460.600006103515625</AltitudeMeters>
            <DistanceMeters>4242.3811377791</DistanceMeters>
          </Trackpoint>
          <Trackpoint>
            <Time>2021-08-09T08:11:16.000Z</Time>
            <Position>
              <LatitudeDegrees>42.9427984915673732757568359375</LatitudeDegrees>
              <LongitudeDegrees>-1.82522806338965892791748046875</LongitudeDegrees>
            </Position>
            <AltitudeMeters>460.600006103515625</AltitudeMeters>
            <DistanceMeters>4245.7941714169</DistanceMeters>
          </Trackpoint>
          <Trackpoint>
            <Time>2021-08-09T08:11:17.000Z</Time>
            <Position>
              <LatitudeDegrees>42.94280779547989368438720703125</LatitudeDegrees>
              <LongitudeDegrees>-1.82527349330484867095947265625</LongitudeDegrees>
            </Position>
            <AltitudeMeters>460.600006103515625</AltitudeMeters>
            <DistanceMeters>4249.6377641454</DistanceMeters>
          </Trackpoint>
          <Trackpoint>
            <Time>2021-08-09T08:11:20.000Z</Time>
            <Position>
              <LatitudeDegrees>42.942838557064533233642578125</LatitudeDegrees>
              <LongitudeDegrees>-1.82541280053555965423583984375</LongitudeDegrees>
            </Position>
            <AltitudeMeters>460.79998779296875</AltitudeMeters>
            <DistanceMeters>4261.4936559266</DistanceMeters>
          </Trackpoint>
          <Trackpoint>
            <Time>2021-08-09T08:11:21.000Z</Time>
            <Position>
              <LatitudeDegrees>42.94285590760409832000732421875</LatitudeDegrees>
              <LongitudeDegrees>-1.82545320130884647369384765625</LongitudeDegrees>
            </Position>
            <AltitudeMeters>460.79998779296875</AltitudeMeters>
            <DistanceMeters>4265.308951882</DistanceMeters>
          </Trackpoint>
          <Trackpoint>
            <Time>2021-08-09T08:11:22.000Z</Time>
            <Position>
              <LatitudeDegrees>42.94287317432463169097900390625</LatitudeDegrees>
              <LongitudeDegrees>-1.82548354379832744598388671875</LongitudeDegrees>
            </Position>
            <AltitudeMeters>460.79998779296875</AltitudeMeters>
            <DistanceMeters>4268.4405110812</DistanceMeters>
          </Trackpoint>
          <Trackpoint>
            <Time>2021-08-09T08:11:23.000Z</Time>
            <Position>
              <LatitudeDegrees>42.94289077632129192352294921875</LatitudeDegrees>
              <LongitudeDegrees>-1.8255129642784595489501953125</LongitudeDegrees>
            </Position>
            <AltitudeMeters>461</AltitudeMeters>
            <DistanceMeters>4271.5372740982</DistanceMeters>
          </Trackpoint>
          <Trackpoint>
            <Time>2021-08-09T08:11:24.000Z</Time>
            <Position>
              <LatitudeDegrees>42.94290116988122463226318359375</LatitudeDegrees>
              <LongitudeDegrees>-1.8255491741001605987548828125</LongitudeDegrees>
            </Position>
            <AltitudeMeters>461</AltitudeMeters>
            <DistanceMeters>4274.7075225241</DistanceMeters>
          </Trackpoint>
          <Trackpoint>
            <Time>2021-08-09T08:11:25.000Z</Time>
            <Position>
              <LatitudeDegrees>42.94291072525084018707275390625</LatitudeDegrees>
              <LongitudeDegrees>-1.82559552602469921112060546875</LongitudeDegrees>
            </Position>
            <AltitudeMeters>461</AltitudeMeters>
            <DistanceMeters>4278.6313319406</DistanceMeters>
          </Trackpoint>
          <Trackpoint>
            <Time>2021-08-09T08:11:26.000Z</Time>
            <Position>
              <LatitudeDegrees>42.9429215379059314727783203125</LatitudeDegrees>
              <LongitudeDegrees>-1.82564900256693363189697265625</LongitudeDegrees>
            </Position>
            <AltitudeMeters>461</AltitudeMeters>
            <DistanceMeters>4283.1508488303</DistanceMeters>
          </Trackpoint>
          <Trackpoint>
            <Time>2021-08-09T08:11:30.000Z</Time>
            <Position>
              <LatitudeDegrees>42.9429574124515056610107421875</LatitudeDegrees>
              <LongitudeDegrees>-1.82586324401199817657470703125</LongitudeDegrees>
            </Position>
            <AltitudeMeters>460.79998779296875</AltitudeMeters>
            <DistanceMeters>4301.0572709847</DistanceMeters>
          </Trackpoint>
          <Trackpoint>
            <Time>2021-08-09T08:11:31.000Z</Time>
            <Position>
              <LatitudeDegrees>42.942969985306262969970703125</LatitudeDegrees>
              <LongitudeDegrees>-1.82589073665440082550048828125</LongitudeDegrees>
            </Position>
            <AltitudeMeters>460.79998779296875</AltitudeMeters>
            <DistanceMeters>4303.7009954726</DistanceMeters>
          </Trackpoint>
          <Trackpoint>
            <Time>2021-08-09T08:11:32.000Z</Time>
            <Position>
              <LatitudeDegrees>42.9429832287132740020751953125</LatitudeDegrees>
              <LongitudeDegrees>-1.825914122164249420166015625</LongitudeDegrees>
            </Position>
            <AltitudeMeters>460.79998779296875</AltitudeMeters>
            <DistanceMeters>4306.1087556511</DistanceMeters>
          </Trackpoint>
          <Trackpoint>
            <Time>2021-08-09T08:11:33.000Z</Time>
            <Position>
              <LatitudeDegrees>42.94299152679741382598876953125</LatitudeDegrees>
              <LongitudeDegrees>-1.8259419500827789306640625</LongitudeDegrees>
            </Position>
            <AltitudeMeters>461</AltitudeMeters>
            <DistanceMeters>4308.5574227903</DistanceMeters>
          </Trackpoint>
          <Trackpoint>
            <Time>2021-08-09T08:11:34.000Z</Time>
            <Position>
              <LatitudeDegrees>42.94299789704382419586181640625</LatitudeDegrees>
              <LongitudeDegrees>-1.82597254402935504913330078125</LongitudeDegrees>
            </Position>
            <AltitudeMeters>461</AltitudeMeters>
            <DistanceMeters>4311.1494059836</DistanceMeters>
          </Trackpoint>
          <Trackpoint>
            <Time>2021-08-09T08:11:35.000Z</Time>
            <Position>
              <LatitudeDegrees>42.943000830709934234619140625</LatitudeDegrees>
              <LongitudeDegrees>-1.825983859598636627197265625</LongitudeDegrees>
            </Position>
            <AltitudeMeters>461</AltitudeMeters>
            <DistanceMeters>4312.1277658883</DistanceMeters>
          </Trackpoint>
          <Trackpoint>
            <Time>2021-08-09T08:11:36.000Z</Time>
            <Position>
              <LatitudeDegrees>42.94300477020442485809326171875</LatitudeDegrees>
              <LongitudeDegrees>-1.82600758038461208343505859375</LongitudeDegrees>
            </Position>
            <AltitudeMeters>461</AltitudeMeters>
            <DistanceMeters>4314.1119819374</DistanceMeters>
          </Trackpoint>
          <Trackpoint>
            <Time>2021-08-09T08:11:37.000Z</Time>
            <Position>
              <LatitudeDegrees>42.94301700778305530548095703125</LatitudeDegrees>
              <LongitudeDegrees>-1.8260427005589008331298828125</LongitudeDegrees>
            </Position>
            <AltitudeMeters>461</AltitudeMeters>
            <DistanceMeters>4317.2836542342</DistanceMeters>
          </Trackpoint>
          <Trackpoint>
            <Time>2021-08-09T08:11:40.000Z</Time>
            <Position>
              <LatitudeDegrees>42.9430348612368106842041015625</LatitudeDegrees>
              <LongitudeDegrees>-1.8261489830911159515380859375</LongitudeDegrees>
            </Position>
            <AltitudeMeters>461.20001220703125</AltitudeMeters>
            <DistanceMeters>4326.1685249858</DistanceMeters>
          </Trackpoint>
          <Trackpoint>
            <Time>2021-08-09T08:11:43.000Z</Time>
            <Position>
              <LatitudeDegrees>42.943048439919948577880859375</LatitudeDegrees>
              <LongitudeDegrees>-1.8263095803558826446533203125</LongitudeDegrees>
            </Position>
            <AltitudeMeters>461.399993896484375</AltitudeMeters>
            <DistanceMeters>4339.3402696963</DistanceMeters>
          </Trackpoint>
          <Trackpoint>
            <Time>2021-08-09T08:11:45.000Z</Time>
            <Position>
              <LatitudeDegrees>42.94306394644081592559814453125</LatitudeDegrees>
              <LongitudeDegrees>-1.8264086544513702392578125</LongitudeDegrees>
            </Position>
            <AltitudeMeters>461.399993896484375</AltitudeMeters>
            <DistanceMeters>4347.5950232872</DistanceMeters>
          </Trackpoint>
          <Trackpoint>
            <Time>2021-08-09T08:11:48.000Z</Time>
            <Position>
              <LatitudeDegrees>42.94310334138572216033935546875</LatitudeDegrees>
              <LongitudeDegrees>-1.82657285593450069427490234375</LongitudeDegrees>
            </Position>
            <AltitudeMeters>461.20001220703125</AltitudeMeters>
            <DistanceMeters>4361.6737369338</DistanceMeters>
          </Trackpoint>
          <Trackpoint>
            <Time>2021-08-09T08:11:54.000Z</Time>
            <Position>
              <LatitudeDegrees>42.94316000305116176605224609375</LatitudeDegrees>
              <LongitudeDegrees>-1.8268487043678760528564453125</LongitudeDegrees>
            </Position>
            <AltitudeMeters>461.20001220703125</AltitudeMeters>
            <DistanceMeters>4385.0170643088</DistanceMeters>
          </Trackpoint>
          <Trackpoint>
            <Time>2021-08-09T08:12:01.000Z</Time>
            <Position>
              <LatitudeDegrees>42.9432413913309574127197265625</LatitudeDegrees>
              <LongitudeDegrees>-1.82720652781426906585693359375</LongitudeDegrees>
            </Position>
            <AltitudeMeters>461</AltitudeMeters>
            <DistanceMeters>4415.5463836619</DistanceMeters>
          </Trackpoint>
          <Trackpoint>
            <Time>2021-08-09T08:12:08.000Z</Time>
            <Position>
              <LatitudeDegrees>42.94332177378237247467041015625</LatitudeDegrees>
              <LongitudeDegrees>-1.82757734321057796478271484375</LongitudeDegrees>
            </Position>
            <AltitudeMeters>461.399993896484375</AltitudeMeters>
            <DistanceMeters>4447.0558723112</DistanceMeters>
          </Trackpoint>
          <Trackpoint>
            <Time>2021-08-09T08:12:10.000Z</Time>
            <Position>
              <LatitudeDegrees>42.9433748312294483184814453125</LatitudeDegrees>
              <LongitudeDegrees>-1.82767373509705066680908203125</LongitudeDegrees>
            </Position>
            <AltitudeMeters>461.399993896484375</AltitudeMeters>
            <DistanceMeters>4456.8818367595</DistanceMeters>
          </Trackpoint>
          <Trackpoint>
            <Time>2021-08-09T08:12:11.000Z</Time>
            <Position>
              <LatitudeDegrees>42.94338430278003215789794921875</LatitudeDegrees>
              <LongitudeDegrees>-1.82771178893744945526123046875</LongitudeDegrees>
            </Position>
            <AltitudeMeters>461.399993896484375</AltitudeMeters>
            <DistanceMeters>4460.1571582422</DistanceMeters>
          </Trackpoint>
          <Trackpoint>
            <Time>2021-08-09T08:12:12.000Z</Time>
            <Position>
              <LatitudeDegrees>42.9433838836848735809326171875</LatitudeDegrees>
              <LongitudeDegrees>-1.82775286026298999786376953125</LongitudeDegrees>
            </Position>
            <AltitudeMeters>461.399993896484375</AltitudeMeters>
            <DistanceMeters>4463.503394156</DistanceMeters>
          </Trackpoint>
          <Trackpoint>
            <Time>2021-08-09T08:12:13.000Z</Time>
            <Position>
              <LatitudeDegrees>42.943370305001735687255859375</LatitudeDegrees>
              <LongitudeDegrees>-1.82780139148235321044921875</LongitudeDegrees>
            </Position>
            <AltitudeMeters>461.399993896484375</AltitudeMeters>
            <DistanceMeters>4467.7360849863</DistanceMeters>
          </Trackpoint>
          <Trackpoint>
            <Time>2021-08-09T08:12:14.000Z</Time>
            <Position>
              <LatitudeDegrees>42.9433671198785305023193359375</LatitudeDegrees>
              <LongitudeDegrees>-1.8278329074382781982421875</LongitudeDegrees>
            </Position>
            <AltitudeMeters>461.399993896484375</AltitudeMeters>
            <DistanceMeters>4470.3280681796</DistanceMeters>
          </Trackpoint>
          <Trackpoint>
            <Time>2021-08-09T08:12:15.000Z</Time>
            <Position>
              <LatitudeDegrees>42.9433666169643402099609375</LatitudeDegrees>
              <LongitudeDegrees>-1.827874816954135894775390625</LongitudeDegrees>
            </Position>
            <AltitudeMeters>461.399993896484375</AltitudeMeters>
            <DistanceMeters>4473.7437465552</DistanceMeters>
          </Trackpoint>
          <Trackpoint>
            <Time>2021-08-09T08:12:17.000Z</Time>
            <Position>
              <LatitudeDegrees>42.943365611135959625244140625</LatitudeDegrees>
              <LongitudeDegrees>-1.827942542731761932373046875</LongitudeDegrees>
            </Position>
            <AltitudeMeters>461.399993896484375</AltitudeMeters>
            <DistanceMeters>4479.2634818678</DistanceMeters>
          </Trackpoint>
          <Trackpoint>
            <Time>2021-08-09T08:12:21.000Z</Time>
            <Position>
              <LatitudeDegrees>42.94338162057101726531982421875</LatitudeDegrees>
              <LongitudeDegrees>-1.82809232734143733978271484375</LongitudeDegrees>
            </Position>
            <AltitudeMeters>461.600006103515625</AltitudeMeters>
            <DistanceMeters>4491.5972026274</DistanceMeters>
          </Trackpoint>
          <Trackpoint>
            <Time>2021-08-09T08:12:22.000Z</Time>
            <Position>
              <LatitudeDegrees>42.94338648207485675811767578125</LatitudeDegrees>
              <LongitudeDegrees>-1.82812417857348918914794921875</LongitudeDegrees>
            </Position>
            <AltitudeMeters>461.600006103515625</AltitudeMeters>
            <DistanceMeters>4494.2494525308</DistanceMeters>
          </Trackpoint>
          <Trackpoint>
            <Time>2021-08-09T08:12:23.000Z</Time>
            <Position>
              <LatitudeDegrees>42.9433946125209331512451171875</LatitudeDegrees>
              <LongitudeDegrees>-1.8281525932252407073974609375</LongitudeDegrees>
            </Position>
            <AltitudeMeters>461.79998779296875</AltitudeMeters>
            <DistanceMeters>4496.7365396551</DistanceMeters>
          </Trackpoint>
          <Trackpoint>
            <Time>2021-08-09T08:12:24.000Z</Time>
            <Position>
              <LatitudeDegrees>42.943402826786041259765625</LatitudeDegrees>
              <LongitudeDegrees>-1.82818117551505565643310546875</LongitudeDegrees>
            </Position>
            <AltitudeMeters>461.79998779296875</AltitudeMeters>
            <DistanceMeters>4499.239911991</DistanceMeters>
          </Trackpoint>
          <Trackpoint>
            <Time>2021-08-09T08:12:25.000Z</Time>
            <Position>
              <LatitudeDegrees>42.94341112487018108367919921875</LatitudeDegrees>
              <LongitudeDegrees>-1.82820749469101428985595703125</LongitudeDegrees>
            </Position>
            <AltitudeMeters>461.79998779296875</AltitudeMeters>
            <DistanceMeters>4501.5753276226</DistanceMeters>
          </Trackpoint>
          <Trackpoint>
            <Time>2021-08-09T08:12:26.000Z</Time>
            <Position>
              <LatitudeDegrees>42.94342470355331897735595703125</LatitudeDegrees>
              <LongitudeDegrees>-1.8282370828092098236083984375</LongitudeDegrees>
            </Position>
            <AltitudeMeters>462</AltitudeMeters>
            <DistanceMeters>4504.4197868847</DistanceMeters>
          </Trackpoint>
          <Trackpoint>
            <Time>2021-08-09T08:12:27.000Z</Time>
            <Position>
              <LatitudeDegrees>42.94343995861709117889404296875</LatitudeDegrees>
              <LongitudeDegrees>-1.8282659165561199188232421875</LongitudeDegrees>
            </Position>
            <AltitudeMeters>461.79998779296875</AltitudeMeters>
            <DistanceMeters>4507.3161537496</DistanceMeters>
          </Trackpoint>
          <Trackpoint>
            <Time>2021-08-09T08:12:28.000Z</Time>
            <Position>
              <LatitudeDegrees>42.94345621950924396514892578125</LatitudeDegrees>
              <LongitudeDegrees>-1.82828930206596851348876953125</LongitudeDegrees>
            </Position>
            <AltitudeMeters>462</AltitudeMeters>
            <DistanceMeters>4509.9427443921</DistanceMeters>
          </Trackpoint>
          <Trackpoint>
            <Time>2021-08-09T08:12:30.000Z</Time>
            <Position>
              <LatitudeDegrees>42.943483628332614898681640625</LatitudeDegrees>
              <LongitudeDegrees>-1.8283881247043609619140625</LongitudeDegrees>
            </Position>
            <AltitudeMeters>462</AltitudeMeters>
            <DistanceMeters>4518.5530247363</DistanceMeters>
          </Trackpoint>
          <Trackpoint>
            <Time>2021-08-09T08:12:31.000Z</Time>
            <Position>
              <LatitudeDegrees>42.9434992186725139617919921875</LatitudeDegrees>
              <LongitudeDegrees>-1.82841955684125423431396484375</LongitudeDegrees>
            </Position>
            <AltitudeMeters>462.20001220703125</AltitudeMeters>
            <DistanceMeters>4521.6468704064</DistanceMeters>
          </Trackpoint>
          <Trackpoint>
            <Time>2021-08-09T08:12:32.000Z</Time>
            <Position>
              <LatitudeDegrees>42.94351891614496707916259765625</LatitudeDegrees>
              <LongitudeDegrees>-1.82844470255076885223388671875</LongitudeDegrees>
            </Position>
            <AltitudeMeters>462</AltitudeMeters>
            <DistanceMeters>4524.6473680675</DistanceMeters>
          </Trackpoint>
          <Trackpoint>
            <Time>2021-08-09T08:12:33.000Z</Time>
            <Position>
              <LatitudeDegrees>42.94353450648486614227294921875</LatitudeDegrees>
              <LongitudeDegrees>-1.8284712731838226318359375</LongitudeDegrees>
            </Position>
            <AltitudeMeters>462</AltitudeMeters>
            <DistanceMeters>4527.4227338465</DistanceMeters>
          </Trackpoint>
          <Trackpoint>
            <Time>2021-08-09T08:12:38.000Z</Time>
            <Position>
              <LatitudeDegrees>42.943633161485195159912109375</LatitudeDegrees>
              <LongitudeDegrees>-1.828684173524379730224609375</LongitudeDegrees>
            </Position>
            <AltitudeMeters>462.399993896484375</AltitudeMeters>
            <DistanceMeters>4547.952463215</DistanceMeters>
          </Trackpoint>
          <Trackpoint>
            <Time>2021-08-09T08:12:39.000Z</Time>
            <Position>
              <LatitudeDegrees>42.94365654699504375457763671875</LatitudeDegrees>
              <LongitudeDegrees>-1.8287252448499202728271484375</LongitudeDegrees>
            </Position>
            <AltitudeMeters>462.399993896484375</AltitudeMeters>
            <DistanceMeters>4552.1915494518</DistanceMeters>
          </Trackpoint>
          <Trackpoint>
            <Time>2021-08-09T08:12:40.000Z</Time>
            <Position>
              <LatitudeDegrees>42.943680100142955780029296875</LatitudeDegrees>
              <LongitudeDegrees>-1.82875332422554492950439453125</LongitudeDegrees>
            </Position>
            <AltitudeMeters>462.399993896484375</AltitudeMeters>
            <DistanceMeters>4555.6726933138</DistanceMeters>
          </Trackpoint>
          <Trackpoint>
            <Time>2021-08-09T08:12:41.000Z</Time>
            <Position>
              <LatitudeDegrees>42.94369962997734546661376953125</LatitudeDegrees>
              <LongitudeDegrees>-1.82878165505826473236083984375</LongitudeDegrees>
            </Position>
            <AltitudeMeters>462.399993896484375</AltitudeMeters>
            <DistanceMeters>4558.8443656107</DistanceMeters>
          </Trackpoint>
          <Trackpoint>
            <Time>2021-08-09T08:12:42.000Z</Time>
            <Position>
              <LatitudeDegrees>42.94372343458235263824462890625</LatitudeDegrees>
              <LongitudeDegrees>-1.82882733643054962158203125</LongitudeDegrees>
            </Position>
            <AltitudeMeters>462.399993896484375</AltitudeMeters>
            <DistanceMeters>4563.4115832085</DistanceMeters>
          </Trackpoint>
          <Trackpoint>
            <Time>2021-08-09T08:12:43.000Z</Time>
            <Position>
              <LatitudeDegrees>42.9437473230063915252685546875</LatitudeDegrees>
              <LongitudeDegrees>-1.82885910384356975555419921875</LongitudeDegrees>
            </Position>
            <AltitudeMeters>462.399993896484375</AltitudeMeters>
            <DistanceMeters>4567.1212781421</DistanceMeters>
          </Trackpoint>
          <Trackpoint>
            <Time>2021-08-09T08:12:48.000Z</Time>
            <Position>
              <LatitudeDegrees>42.94391714036464691162109375</LatitudeDegrees>
              <LongitudeDegrees>-1.82898835279047489166259765625</LongitudeDegrees>
            </Position>
            <AltitudeMeters>462.399993896484375</AltitudeMeters>
            <DistanceMeters>4588.7577571303</DistanceMeters>
          </Trackpoint>
          <Trackpoint>
            <Time>2021-08-09T08:12:53.000Z</Time>
            <Position>
              <LatitudeDegrees>42.94407245703041553497314453125</LatitudeDegrees>
              <LongitudeDegrees>-1.829052306711673736572265625</LongitudeDegrees>
            </Position>
            <AltitudeMeters>462.600006103515625</AltitudeMeters>
            <DistanceMeters>4606.8128328606</DistanceMeters>
          </Trackpoint>
          <Trackpoint>
            <Time>2021-08-09T08:12:54.000Z</Time>
            <Position>
              <LatitudeDegrees>42.94410464353859424591064453125</LatitudeDegrees>
              <LongitudeDegrees>-1.82905339635908603668212890625</LongitudeDegrees>
            </Position>
            <AltitudeMeters>462.600006103515625</AltitudeMeters>
            <DistanceMeters>4610.3962346945</DistanceMeters>
          </Trackpoint>
          <Trackpoint>
            <Time>2021-08-09T08:12:55.000Z</Time>
            <Position>
              <LatitudeDegrees>42.94414990581572055816650390625</LatitudeDegrees>
              <LongitudeDegrees>-1.829060018062591552734375</LongitudeDegrees>
            </Position>
            <AltitudeMeters>462.600006103515625</AltitudeMeters>
            <DistanceMeters>4615.4630391441</DistanceMeters>
          </Trackpoint>
          <Trackpoint>
            <Time>2021-08-09T08:12:57.000Z</Time>
            <Position>
              <LatitudeDegrees>42.94423053972423076629638671875</LatitudeDegrees>
              <LongitudeDegrees>-1.82908675633370876312255859375</LongitudeDegrees>
            </Position>
            <AltitudeMeters>462.600006103515625</AltitudeMeters>
            <DistanceMeters>4624.6987363073</DistanceMeters>
          </Trackpoint>
          <Trackpoint>
            <Time>2021-08-09T08:13:00.000Z</Time>
            <Position>
              <LatitudeDegrees>42.9443410970270633697509765625</LatitudeDegrees>
              <LongitudeDegrees>-1.8291024304926395416259765625</LongitudeDegrees>
            </Position>
            <AltitudeMeters>462.600006103515625</AltitudeMeters>
            <DistanceMeters>4637.0704700469</DistanceMeters>
          </Trackpoint>
          <Trackpoint>
            <Time>2021-08-09T08:13:01.000Z</Time>
            <Position>
              <LatitudeDegrees>42.94436884112656116485595703125</LatitudeDegrees>
              <LongitudeDegrees>-1.82910435833036899566650390625</LongitudeDegrees>
            </Position>
            <AltitudeMeters>462.79998779296875</AltitudeMeters>
            <DistanceMeters>4640.1628560115</DistanceMeters>
          </Trackpoint>
          <Trackpoint>
            <Time>2021-08-09T08:13:02.000Z</Time>
            <Position>
              <LatitudeDegrees>42.9443930648267269134521484375</LatitudeDegrees>
              <LongitudeDegrees>-1.82910720817744731903076171875</LongitudeDegrees>
            </Position>
            <AltitudeMeters>462.79998779296875</AltitudeMeters>
            <DistanceMeters>4642.8690326495</DistanceMeters>
          </Trackpoint>
          <Trackpoint>
            <Time>2021-08-09T08:13:03.000Z</Time>
            <Position>
              <LatitudeDegrees>42.94441812671720981597900390625</LatitudeDegrees>
              <LongitudeDegrees>-1.8291074596345424652099609375</LongitudeDegrees>
            </Position>
            <AltitudeMeters>462.79998779296875</AltitudeMeters>
            <DistanceMeters>4645.6590014477</DistanceMeters>
          </Trackpoint>
          <Trackpoint>
            <Time>2021-08-09T08:13:04.000Z</Time>
            <Position>
              <LatitudeDegrees>42.9444363154470920562744140625</LatitudeDegrees>
              <LongitudeDegrees>-1.82910762727260589599609375</LongitudeDegrees>
            </Position>
            <AltitudeMeters>462.79998779296875</AltitudeMeters>
            <DistanceMeters>4647.6837618546</DistanceMeters>
          </Trackpoint>
          <Trackpoint>
            <Time>2021-08-09T08:13:05.000Z</Time>
            <Position>
              <LatitudeDegrees>42.94445567764341831207275390625</LatitudeDegrees>
              <LongitudeDegrees>-1.82910201139748096466064453125</LongitudeDegrees>
            </Position>
            <AltitudeMeters>462.79998779296875</AltitudeMeters>
            <DistanceMeters>4649.8858406567</DistanceMeters>
          </Trackpoint>
          <Trackpoint>
            <Time>2021-08-09T08:13:06.000Z</Time>
            <Position>
              <LatitudeDegrees>42.94447562657296657562255859375</LatitudeDegrees>
              <LongitudeDegrees>-1.82910092175006866455078125</LongitudeDegrees>
            </Position>
            <AltitudeMeters>462.79998779296875</AltitudeMeters>
            <DistanceMeters>4652.1083284103</DistanceMeters>
          </Trackpoint>
          <Trackpoint>
            <Time>2021-08-09T08:13:10.000Z</Time>
            <Position>
              <LatitudeDegrees>42.9445667378604412078857421875</LatitudeDegrees>
              <LongitudeDegrees>-1.8291252292692661285400390625</LongitudeDegrees>
            </Position>
            <AltitudeMeters>462.79998779296875</AltitudeMeters>
            <DistanceMeters>4662.4413639697</DistanceMeters>
          </Trackpoint>
          <Trackpoint>
            <Time>2021-08-09T08:13:11.000Z</Time>
            <Position>
              <LatitudeDegrees>42.944586686789989471435546875</LatitudeDegrees>
              <LongitudeDegrees>-1.82913771830499172210693359375</LongitudeDegrees>
            </Position>
            <AltitudeMeters>462.79998779296875</AltitudeMeters>
            <DistanceMeters>4664.8844932192</DistanceMeters>
          </Trackpoint>
          <Trackpoint>
            <Time>2021-08-09T08:13:12.000Z</Time>
            <Position>
              <LatitudeDegrees>42.9446057975292205810546875</LatitudeDegrees>
              <LongitudeDegrees>-1.82914928533136844635009765625</LongitudeDegrees>
            </Position>
            <AltitudeMeters>462.79998779296875</AltitudeMeters>
            <DistanceMeters>4667.2121628406</DistanceMeters>
          </Trackpoint>
          <Trackpoint>
            <Time>2021-08-09T08:13:13.000Z</Time>
            <Position>
              <LatitudeDegrees>42.94462968595325946807861328125</LatitudeDegrees>
              <LongitudeDegrees>-1.82916068471968173980712890625</LongitudeDegrees>
            </Position>
            <AltitudeMeters>463</AltitudeMeters>
            <DistanceMeters>4670.0295086117</DistanceMeters>
          </Trackpoint>
          <Trackpoint>
            <Time>2021-08-09T08:13:16.000Z</Time>
            <Position>
              <LatitudeDegrees>42.94468333013355731964111328125</LatitudeDegrees>
              <LongitudeDegrees>-1.82919840328395366668701171875</LongitudeDegrees>
            </Position>
            <AltitudeMeters>462.79998779296875</AltitudeMeters>
            <DistanceMeters>4676.7448791719</DistanceMeters>
          </Trackpoint>
          <Trackpoint>
            <Time>2021-08-09T08:13:17.000Z</Time>
            <Position>
              <LatitudeDegrees>42.9446917958557605743408203125</LatitudeDegrees>
              <LongitudeDegrees>-1.82921357452869415283203125</LongitudeDegrees>
            </Position>
            <AltitudeMeters>462.79998779296875</AltitudeMeters>
            <DistanceMeters>4678.297628479</DistanceMeters>
          </Trackpoint>
          <Trackpoint>
            <Time>2021-08-09T08:13:18.000Z</Time>
            <Position>
              <LatitudeDegrees>42.94470109976828098297119140625</LatitudeDegrees>
              <LongitudeDegrees>-1.8292274884879589080810546875</LongitudeDegrees>
            </Position>
            <AltitudeMeters>462.79998779296875</AltitudeMeters>
            <DistanceMeters>4679.8357702242</DistanceMeters>
          </Trackpoint>
          <Trackpoint>
            <Time>2021-08-09T08:13:19.000Z</Time>
            <Position>
              <LatitudeDegrees>42.9447135888040065765380859375</LatitudeDegrees>
              <LongitudeDegrees>-1.82923628948628902435302734375</LongitudeDegrees>
            </Position>
            <AltitudeMeters>462.79998779296875</AltitudeMeters>
            <DistanceMeters>4681.4029909466</DistanceMeters>
          </Trackpoint>
          <Trackpoint>
            <Time>2021-08-09T08:13:20.000Z</Time>
            <Position>
              <LatitudeDegrees>42.944731526076793670654296875</LatitudeDegrees>
              <LongitudeDegrees>-1.82924064807593822479248046875</LongitudeDegrees>
            </Position>
            <AltitudeMeters>462.79998779296875</AltitudeMeters>
            <DistanceMeters>4683.4322062773</DistanceMeters>
          </Trackpoint>
          <Trackpoint>
            <Time>2021-08-09T08:13:21.000Z</Time>
            <Position>
              <LatitudeDegrees>42.9447531513869762420654296875</LatitudeDegrees>
              <LongitudeDegrees>-1.829243414103984832763671875</LongitudeDegrees>
            </Position>
            <AltitudeMeters>462.79998779296875</AltitudeMeters>
            <DistanceMeters>4685.8511915058</DistanceMeters>
          </Trackpoint>
          <Trackpoint>
            <Time>2021-08-09T08:13:22.000Z</Time>
            <Position>
              <LatitudeDegrees>42.94477703981101512908935546875</LatitudeDegrees>
              <LongitudeDegrees>-1.82924869470298290252685546875</LongitudeDegrees>
            </Position>
            <AltitudeMeters>462.79998779296875</AltitudeMeters>
            <DistanceMeters>4688.5439877076</DistanceMeters>
          </Trackpoint>
          <Trackpoint>
            <Time>2021-08-09T08:13:23.000Z</Time>
            <Position>
              <LatitudeDegrees>42.94480352662503719329833984375</LatitudeDegrees>
              <LongitudeDegrees>-1.8292499519884586334228515625</LongitudeDegrees>
            </Position>
            <AltitudeMeters>462.600006103515625</AltitudeMeters>
            <DistanceMeters>4691.494410337</DistanceMeters>
          </Trackpoint>
          <Trackpoint>
            <Time>2021-08-09T08:13:28.000Z</Time>
            <Position>
              <LatitudeDegrees>42.94494149275124073028564453125</LatitudeDegrees>
              <LongitudeDegrees>-1.8292351998388767242431640625</LongitudeDegrees>
            </Position>
            <AltitudeMeters>462.399993896484375</AltitudeMeters>
            <DistanceMeters>4706.8972411941</DistanceMeters>
          </Trackpoint>
          <Trackpoint>
            <Time>2021-08-09T08:13:32.000Z</Time>
            <Position>
              <LatitudeDegrees>42.9450733400881290435791015625</LatitudeDegrees>
              <LongitudeDegrees>-1.82920762337744235992431640625</LongitudeDegrees>
            </Position>
            <AltitudeMeters>462.399993896484375</AltitudeMeters>
            <DistanceMeters>4721.7433216817</DistanceMeters>
          </Trackpoint>
          <Trackpoint>
            <Time>2021-08-09T08:13:33.000Z</Time>
            <Position>
              <LatitudeDegrees>42.945096306502819061279296875</LatitudeDegrees>
              <LongitudeDegrees>-1.82920007966458797454833984375</LongitudeDegrees>
            </Position>
            <AltitudeMeters>462.399993896484375</AltitudeMeters>
            <DistanceMeters>4724.373348023</DistanceMeters>
          </Trackpoint>
          <Trackpoint>
            <Time>2021-08-09T08:13:41.000Z</Time>
            <Position>
              <LatitudeDegrees>42.9453512839972972869873046875</LatitudeDegrees>
              <LongitudeDegrees>-1.82913235388696193695068359375</LongitudeDegrees>
            </Position>
            <AltitudeMeters>462.600006103515625</AltitudeMeters>
            <DistanceMeters>4753.2841229301</DistanceMeters>
          </Trackpoint>
          <Trackpoint>
            <Time>2021-08-09T08:13:46.000Z</Time>
            <Position>
              <LatitudeDegrees>42.94551372528076171875</LatitudeDegrees>
              <LongitudeDegrees>-1.8290782906115055084228515625</LongitudeDegrees>
            </Position>
            <AltitudeMeters>462.79998779296875</AltitudeMeters>
            <DistanceMeters>4771.8931100479</DistanceMeters>
          </Trackpoint>
          <Trackpoint>
            <Time>2021-08-09T08:13:50.000Z</Time>
            <Position>
              <LatitudeDegrees>42.945631407201290130615234375</LatitudeDegrees>
              <LongitudeDegrees>-1.82904467917978763580322265625</LongitudeDegrees>
            </Position>
            <AltitudeMeters>463</AltitudeMeters>
            <DistanceMeters>4785.2746800561</DistanceMeters>
          </Trackpoint>
          <Trackpoint>
            <Time>2021-08-09T08:13:51.000Z</Time>
            <Position>
              <LatitudeDegrees>42.9456620849668979644775390625</LatitudeDegrees>
              <LongitudeDegrees>-1.82903495617210865020751953125</LongitudeDegrees>
            </Position>
            <AltitudeMeters>463</AltitudeMeters>
            <DistanceMeters>4788.7790921272</DistanceMeters>
          </Trackpoint>
          <Trackpoint>
            <Time>2021-08-09T08:13:52.000Z</Time>
            <Position>
              <LatitudeDegrees>42.94569812715053558349609375</LatitudeDegrees>
              <LongitudeDegrees>-1.8290233053267002105712890625</LongitudeDegrees>
            </Position>
            <AltitudeMeters>463</AltitudeMeters>
            <DistanceMeters>4792.9015433237</DistanceMeters>
          </Trackpoint>
          <Trackpoint>
            <Time>2021-08-09T08:13:53.000Z</Time>
            <Position>
              <LatitudeDegrees>42.94572168029844760894775390625</LatitudeDegrees>
              <LongitudeDegrees>-1.829017102718353271484375</LongitudeDegrees>
            </Position>
            <AltitudeMeters>463</AltitudeMeters>
            <DistanceMeters>4795.5707623694</DistanceMeters>
          </Trackpoint>
          <Trackpoint>
            <Time>2021-08-09T08:13:59.000Z</Time>
            <Position>
              <LatitudeDegrees>42.94591463170945644378662109375</LatitudeDegrees>
              <LongitudeDegrees>-1.8289572559297084808349609375</LongitudeDegrees>
            </Position>
            <AltitudeMeters>463.20001220703125</AltitudeMeters>
            <DistanceMeters>4817.5931906109</DistanceMeters>
          </Trackpoint>
          <Trackpoint>
            <Time>2021-08-09T08:14:07.000Z</Time>
            <Position>
              <LatitudeDegrees>42.946154773235321044921875</LatitudeDegrees>
              <LongitudeDegrees>-1.82887301780283451080322265625</LongitudeDegrees>
            </Position>
            <AltitudeMeters>463</AltitudeMeters>
            <DistanceMeters>4845.1885950566</DistanceMeters>
          </Trackpoint>
          <Trackpoint>
            <Time>2021-08-09T08:14:08.000Z</Time>
            <Position>
              <LatitudeDegrees>42.9461814276874065399169921875</LatitudeDegrees>
              <LongitudeDegrees>-1.82886212132871150970458984375</LongitudeDegrees>
            </Position>
            <AltitudeMeters>463</AltitudeMeters>
            <DistanceMeters>4848.2853580736</DistanceMeters>
          </Trackpoint>
          <Trackpoint>
            <Time>2021-08-09T08:14:09.000Z</Time>
            <Position>
              <LatitudeDegrees>42.9462099261581897735595703125</LatitudeDegrees>
              <LongitudeDegrees>-1.82884988375008106231689453125</LongitudeDegrees>
            </Position>
            <AltitudeMeters>463</AltitudeMeters>
            <DistanceMeters>4851.6099352749</DistanceMeters>
          </Trackpoint>
          <Trackpoint>
            <Time>2021-08-09T08:14:10.000Z</Time>
            <Position>
              <LatitudeDegrees>42.94623767025768756866455078125</LatitudeDegrees>
              <LongitudeDegrees>-1.82883898727595806121826171875</LongitudeDegrees>
            </Position>
            <AltitudeMeters>463</AltitudeMeters>
            <DistanceMeters>4854.8226253277</DistanceMeters>
          </Trackpoint>
          <Trackpoint>
            <Time>2021-08-09T08:14:11.000Z</Time>
            <Position>
              <LatitudeDegrees>42.9462679289281368255615234375</LatitudeDegrees>
              <LongitudeDegrees>-1.8288285098969936370849609375</LongitudeDegrees>
            </Position>
            <AltitudeMeters>463</AltitudeMeters>
            <DistanceMeters>4858.2972781457</DistanceMeters>
          </Trackpoint>
          <Trackpoint>
            <Time>2021-08-09T08:14:12.000Z</Time>
            <Position>
              <LatitudeDegrees>42.946299612522125244140625</LatitudeDegrees>
              <LongitudeDegrees>-1.8288177810609340667724609375</LongitudeDegrees>
            </Position>
            <AltitudeMeters>463</AltitudeMeters>
            <DistanceMeters>4861.9307299152</DistanceMeters>
          </Trackpoint>
          <Trackpoint>
            <Time>2021-08-09T08:14:15.000Z</Time>
            <Position>
              <LatitudeDegrees>42.94639441184699535369873046875</LatitudeDegrees>
              <LongitudeDegrees>-1.82880093343555927276611328125</LongitudeDegrees>
            </Position>
            <AltitudeMeters>463</AltitudeMeters>
            <DistanceMeters>4872.5707519254</DistanceMeters>
          </Trackpoint>
          <Trackpoint>
            <Time>2021-08-09T08:14:16.000Z</Time>
            <Position>
              <LatitudeDegrees>42.94642232358455657958984375</LatitudeDegrees>
              <LongitudeDegrees>-1.82879406027495861053466796875</LongitudeDegrees>
            </Position>
            <AltitudeMeters>463</AltitudeMeters>
            <DistanceMeters>4875.7281566182</DistanceMeters>
          </Trackpoint>
          <Trackpoint>
            <Time>2021-08-09T08:14:18.000Z</Time>
            <Position>
              <LatitudeDegrees>42.9464741237461566925048828125</LatitudeDegrees>
              <LongitudeDegrees>-1.828782744705677032470703125</LongitudeDegrees>
            </Position>
            <AltitudeMeters>463</AltitudeMeters>
            <DistanceMeters>4881.5666956971</DistanceMeters>
          </Trackpoint>
          <Trackpoint>
            <Time>2021-08-09T08:14:19.000Z</Time>
            <Position>
              <LatitudeDegrees>42.94649608433246612548828125</LatitudeDegrees>
              <LongitudeDegrees>-1.82877595536410808563232421875</LongitudeDegrees>
            </Position>
            <AltitudeMeters>463</AltitudeMeters>
            <DistanceMeters>4884.0736726026</DistanceMeters>
          </Trackpoint>
          <Trackpoint>
            <Time>2021-08-09T08:14:20.000Z</Time>
            <Position>
              <LatitudeDegrees>42.94652047567069530487060546875</LatitudeDegrees>
              <LongitudeDegrees>-1.828767322003841400146484375</LongitudeDegrees>
            </Position>
            <AltitudeMeters>463</AltitudeMeters>
            <DistanceMeters>4886.8781683831</DistanceMeters>
          </Trackpoint>
          <Trackpoint>
            <Time>2021-08-09T08:14:22.000Z</Time>
            <Position>
              <LatitudeDegrees>42.94657948426902294158935546875</LatitudeDegrees>
              <LongitudeDegrees>-1.828749887645244598388671875</LongitudeDegrees>
            </Position>
            <AltitudeMeters>462.79998779296875</AltitudeMeters>
            <DistanceMeters>4893.5975717956</DistanceMeters>
          </Trackpoint>
          <Trackpoint>
            <Time>2021-08-09T08:14:23.000Z</Time>
            <Position>
              <LatitudeDegrees>42.946608066558837890625</LatitudeDegrees>
              <LongitudeDegrees>-1.82874209247529506683349609375</LongitudeDegrees>
            </Position>
            <AltitudeMeters>462.79998779296875</AltitudeMeters>
            <DistanceMeters>4896.8410327646</DistanceMeters>
          </Trackpoint>
          <Trackpoint>
            <Time>2021-08-09T08:14:24.000Z</Time>
            <Position>
              <LatitudeDegrees>42.94663832522928714752197265625</LatitudeDegrees>
              <LongitudeDegrees>-1.82873186655342578887939453125</LongitudeDegrees>
            </Position>
            <AltitudeMeters>462.79998779296875</AltitudeMeters>
            <DistanceMeters>4900.3091823899</DistanceMeters>
          </Trackpoint>
          <Trackpoint>
            <Time>2021-08-09T08:14:32.000Z</Time>
            <Position>
              <LatitudeDegrees>42.94688810594379901885986328125</LatitudeDegrees>
              <LongitudeDegrees>-1.82865743525326251983642578125</LongitudeDegrees>
            </Position>
            <AltitudeMeters>463</AltitudeMeters>
            <DistanceMeters>4928.7639319806</DistanceMeters>
          </Trackpoint>
          <Trackpoint>
            <Time>2021-08-09T08:14:33.000Z</Time>
            <Position>
              <LatitudeDegrees>42.94692029245197772979736328125</LatitudeDegrees>
              <LongitudeDegrees>-1.82864570058882236480712890625</LongitudeDegrees>
            </Position>
            <AltitudeMeters>463</AltitudeMeters>
            <DistanceMeters>4932.472409623</DistanceMeters>
          </Trackpoint>
          <Trackpoint>
            <Time>2021-08-09T08:14:37.000Z</Time>
            <Position>
              <LatitudeDegrees>42.9470782913267612457275390625</LatitudeDegrees>
              <LongitudeDegrees>-1.82857680134475231170654296875</LongitudeDegrees>
            </Position>
            <AltitudeMeters>463</AltitudeMeters>
            <DistanceMeters>4950.932067385</DistanceMeters>
          </Trackpoint>
          <Trackpoint>
            <Time>2021-08-09T08:14:38.000Z</Time>
            <Position>
              <LatitudeDegrees>42.94711609371006488800048828125</LatitudeDegrees>
              <LongitudeDegrees>-1.82855953462421894073486328125</LongitudeDegrees>
            </Position>
            <AltitudeMeters>463</AltitudeMeters>
            <DistanceMeters>4955.3668736372</DistanceMeters>
          </Trackpoint>
          <Trackpoint>
            <Time>2021-08-09T08:14:39.000Z</Time>
            <Position>
              <LatitudeDegrees>42.947151549160480499267578125</LatitudeDegrees>
              <LongitudeDegrees>-1.82854964397847652435302734375</LongitudeDegrees>
            </Position>
            <AltitudeMeters>463</AltitudeMeters>
            <DistanceMeters>4959.394033591</DistanceMeters>
          </Trackpoint>
          <Trackpoint>
            <Time>2021-08-09T08:14:42.000Z</Time>
            <Position>
              <LatitudeDegrees>42.94724576175212860107421875</LatitudeDegrees>
              <LongitudeDegrees>-1.82852785103023052215576171875</LongitudeDegrees>
            </Position>
            <AltitudeMeters>463.20001220703125</AltitudeMeters>
            <DistanceMeters>4970.0289622443</DistanceMeters>
          </Trackpoint>
          <Trackpoint>
            <Time>2021-08-09T08:14:44.000Z</Time>
            <Position>
              <LatitudeDegrees>42.947302423417568206787109375</LatitudeDegrees>
              <LongitudeDegrees>-1.82850589044392108917236328125</LongitudeDegrees>
            </Position>
            <AltitudeMeters>463</AltitudeMeters>
            <DistanceMeters>4976.5844281924</DistanceMeters>
          </Trackpoint>
          <Trackpoint>
            <Time>2021-08-09T08:14:45.000Z</Time>
            <Position>
              <LatitudeDegrees>42.9473374597728252410888671875</LatitudeDegrees>
              <LongitudeDegrees>-1.82850144803524017333984375</LongitudeDegrees>
            </Position>
            <AltitudeMeters>463</AltitudeMeters>
            <DistanceMeters>4980.4978678111</DistanceMeters>
          </Trackpoint>
          <Trackpoint>
            <Time>2021-08-09T08:14:46.000Z</Time>
            <Position>
              <LatitudeDegrees>42.947364784777164459228515625</LatitudeDegrees>
              <LongitudeDegrees>-1.82849650271236896514892578125</LongitudeDegrees>
            </Position>
            <AltitudeMeters>463</AltitudeMeters>
            <DistanceMeters>4983.565332506</DistanceMeters>
          </Trackpoint>
          <Trackpoint>
            <Time>2021-08-09T08:14:47.000Z</Time>
            <Position>
              <LatitudeDegrees>42.94739889912307262420654296875</LatitudeDegrees>
              <LongitudeDegrees>-1.82848669588565826416015625</LongitudeDegrees>
            </Position>
            <AltitudeMeters>463</AltitudeMeters>
            <DistanceMeters>4987.4463333445</DistanceMeters>
          </Trackpoint>
          <Trackpoint>
            <Time>2021-08-09T08:14:48.000Z</Time>
            <Position>
              <LatitudeDegrees>42.9474301636219024658203125</LatitudeDegrees>
              <LongitudeDegrees>-1.82847873307764530181884765625</LongitudeDegrees>
            </Position>
            <AltitudeMeters>463.20001220703125</AltitudeMeters>
            <DistanceMeters>4990.9866364536</DistanceMeters>
          </Trackpoint>
          <Trackpoint>
            <Time>2021-08-09T08:14:49.000Z</Time>
            <Position>
              <LatitudeDegrees>42.947460003197193145751953125</LatitudeDegrees>
              <LongitudeDegrees>-1.82846616022288799285888671875</LongitudeDegrees>
            </Position>
            <AltitudeMeters>463.20001220703125</AltitudeMeters>
            <DistanceMeters>4994.4625884501</DistanceMeters>
          </Trackpoint>
          <Trackpoint>
            <Time>2021-08-09T08:14:50.000Z</Time>
            <Position>
              <LatitudeDegrees>42.9475000686943531036376953125</LatitudeDegrees>
              <LongitudeDegrees>-1.82844637893140316009521484375</LongitudeDegrees>
            </Position>
            <AltitudeMeters>463.20001220703125</AltitudeMeters>
            <DistanceMeters>4999.2044119754</DistanceMeters>
          </Trackpoint>
          <Trackpoint>
            <Time>2021-08-09T08:14:51.000Z</Time>
            <Position>
              <LatitudeDegrees>42.947541810572147369384765625</LatitudeDegrees>
              <LongitudeDegrees>-1.828426010906696319580078125</LongitudeDegrees>
            </Position>
            <AltitudeMeters>463.20001220703125</AltitudeMeters>
            <DistanceMeters>5004.1366554751</DistanceMeters>
          </Trackpoint>
          <Trackpoint>
            <Time>2021-08-09T08:14:54.000Z</Time>
            <Position>
              <LatitudeDegrees>42.94762671925127506256103515625</LatitudeDegrees>
              <LongitudeDegrees>-1.828407905995845794677734375</LongitudeDegrees>
            </Position>
            <AltitudeMeters>463.399993896484375</AltitudeMeters>
            <DistanceMeters>5013.7008948268</DistanceMeters>
          </Trackpoint>
          <Trackpoint>
            <Time>2021-08-09T08:14:55.000Z</Time>
            <Position>
              <LatitudeDegrees>42.94765722937881946563720703125</LatitudeDegrees>
              <LongitudeDegrees>-1.828402541577816009521484375</LongitudeDegrees>
            </Position>
            <AltitudeMeters>463.399993896484375</AltitudeMeters>
            <DistanceMeters>5017.1244951575</DistanceMeters>
          </Trackpoint>
          <Trackpoint>
            <Time>2021-08-09T08:14:57.000Z</Time>
            <Position>
              <LatitudeDegrees>42.94772931374609470367431640625</LatitudeDegrees>
              <LongitudeDegrees>-1.8283778987824916839599609375</LongitudeDegrees>
            </Position>
            <AltitudeMeters>463.600006103515625</AltitudeMeters>
            <DistanceMeters>5025.3945495096</DistanceMeters>
          </Trackpoint>
          <Trackpoint>
            <Time>2021-08-09T08:15:05.000Z</Time>
            <Position>
              <LatitudeDegrees>42.94798010028898715972900390625</LatitudeDegrees>
              <LongitudeDegrees>-1.82828360237181186676025390625</LongitudeDegrees>
            </Position>
            <AltitudeMeters>464.399993896484375</AltitudeMeters>
            <DistanceMeters>5054.3454326633</DistanceMeters>
          </Trackpoint>
          <Trackpoint>
            <Time>2021-08-09T08:15:06.000Z</Time>
            <Position>
              <LatitudeDegrees>42.9480122029781341552734375</LatitudeDegrees>
              <LongitudeDegrees>-1.82826943695545196533203125</LongitudeDegrees>
            </Position>
            <AltitudeMeters>464.399993896484375</AltitudeMeters>
            <DistanceMeters>5058.1010923131</DistanceMeters>
          </Trackpoint>
          <Trackpoint>
            <Time>2021-08-09T08:15:14.000Z</Time>
            <Position>
              <LatitudeDegrees>42.94827011413872241973876953125</LatitudeDegrees>
              <LongitudeDegrees>-1.8281891383230686187744140625</LongitudeDegrees>
            </Position>
            <AltitudeMeters>465.20001220703125</AltitudeMeters>
            <DistanceMeters>5087.5434294879</DistanceMeters>
          </Trackpoint>
          <Trackpoint>
            <Time>2021-08-09T08:15:16.000Z</Time>
            <Position>
              <LatitudeDegrees>42.94832409359514713287353515625</LatitudeDegrees>
              <LongitudeDegrees>-1.82816323824226856231689453125</LongitudeDegrees>
            </Position>
            <AltitudeMeters>465.20001220703125</AltitudeMeters>
            <DistanceMeters>5093.9109284658</DistanceMeters>
          </Trackpoint>
          <Trackpoint>
            <Time>2021-08-09T08:15:17.000Z</Time>
            <Position>
              <LatitudeDegrees>42.9483566991984844207763671875</LatitudeDegrees>
              <LongitudeDegrees>-1.8281535990536212921142578125</LongitudeDegrees>
            </Position>
            <AltitudeMeters>465.20001220703125</AltitudeMeters>
            <DistanceMeters>5097.6230567844</DistanceMeters>
          </Trackpoint>
          <Trackpoint>
            <Time>2021-08-09T08:15:19.000Z</Time>
            <Position>
              <LatitudeDegrees>42.9484224133193492889404296875</LatitudeDegrees>
              <LongitudeDegrees>-1.82813121937215328216552734375</LongitudeDegrees>
            </Position>
            <AltitudeMeters>465.600006103515625</AltitudeMeters>
            <DistanceMeters>5105.1607779908</DistanceMeters>
          </Trackpoint>
          <Trackpoint>
            <Time>2021-08-09T08:15:20.000Z</Time>
            <Position>
              <LatitudeDegrees>42.9484512470662593841552734375</LatitudeDegrees>
              <LongitudeDegrees>-1.8281244300305843353271484375</LongitudeDegrees>
            </Position>
            <AltitudeMeters>465.600006103515625</AltitudeMeters>
            <DistanceMeters>5108.4181296484</DistanceMeters>
          </Trackpoint>
          <Trackpoint>
            <Time>2021-08-09T08:15:21.000Z</Time>
            <Position>
              <LatitudeDegrees>42.9484735429286956787109375</LatitudeDegrees>
              <LongitudeDegrees>-1.82811898179352283477783203125</LongitudeDegrees>
            </Position>
            <AltitudeMeters>465.600006103515625</AltitudeMeters>
            <DistanceMeters>5110.9394733014</DistanceMeters>
          </Trackpoint>
          <Trackpoint>
            <Time>2021-08-09T08:15:22.000Z</Time>
            <Position>
              <LatitudeDegrees>42.94851101003587245941162109375</LatitudeDegrees>
              <LongitudeDegrees>-1.82810070924460887908935546875</LongitudeDegrees>
            </Position>
            <AltitudeMeters>465.600006103515625</AltitudeMeters>
            <DistanceMeters>5115.3661273294</DistanceMeters>
          </Trackpoint>
          <Trackpoint>
            <Time>2021-08-09T08:15:23.000Z</Time>
            <Position>
              <LatitudeDegrees>42.94854269362986087799072265625</LatitudeDegrees>
              <LongitudeDegrees>-1.8280801735818386077880859375</LongitudeDegrees>
            </Position>
            <AltitudeMeters>465.399993896484375</AltitudeMeters>
            <DistanceMeters>5119.2703262277</DistanceMeters>
          </Trackpoint>
          <Trackpoint>
            <Time>2021-08-09T08:15:24.000Z</Time>
            <Position>
              <LatitudeDegrees>42.94856968335807323455810546875</LatitudeDegrees>
              <LongitudeDegrees>-1.82806718163192272186279296875</LongitudeDegrees>
            </Position>
            <AltitudeMeters>465.399993896484375</AltitudeMeters>
            <DistanceMeters>5122.4547847133</DistanceMeters>
          </Trackpoint>
          <Trackpoint>
            <Time>2021-08-09T08:15:25.000Z</Time>
            <Position>
              <LatitudeDegrees>42.94859902001917362213134765625</LatitudeDegrees>
              <LongitudeDegrees>-1.828051842749118804931640625</LongitudeDegrees>
            </Position>
            <AltitudeMeters>465.399993896484375</AltitudeMeters>
            <DistanceMeters>5125.9514579186</DistanceMeters>
          </Trackpoint>
          <Trackpoint>
            <Time>2021-08-09T08:15:26.000Z</Time>
            <Position>
              <LatitudeDegrees>42.94862315990030765533447265625</LatitudeDegrees>
              <LongitudeDegrees>-1.82804052717983722686767578125</LongitudeDegrees>
            </Position>
            <AltitudeMeters>465.399993896484375</AltitudeMeters>
            <DistanceMeters>5128.7927407875</DistanceMeters>
          </Trackpoint>
          <Trackpoint>
            <Time>2021-08-09T08:15:27.000Z</Time>
            <Position>
              <LatitudeDegrees>42.9486540891230106353759765625</LatitudeDegrees>
              <LongitudeDegrees>-1.82802912779152393341064453125</LongitudeDegrees>
            </Position>
            <AltitudeMeters>465.399993896484375</AltitudeMeters>
            <DistanceMeters>5132.3571927169</DistanceMeters>
          </Trackpoint>
          <Trackpoint>
            <Time>2021-08-09T08:15:28.000Z</Time>
            <Position>
              <LatitudeDegrees>42.94868384487926959991455078125</LatitudeDegrees>
              <LongitudeDegrees>-1.82801621966063976287841796875</LongitudeDegrees>
            </Position>
            <AltitudeMeters>465.399993896484375</AltitudeMeters>
            <DistanceMeters>5135.8331447134</DistanceMeters>
          </Trackpoint>
          <Trackpoint>
            <Time>2021-08-09T08:15:30.000Z</Time>
            <Position>
              <LatitudeDegrees>42.948730699717998504638671875</LatitudeDegrees>
              <LongitudeDegrees>-1.82798939757049083709716796875</LongitudeDegrees>
            </Position>
            <AltitudeMeters>465.399993896484375</AltitudeMeters>
            <DistanceMeters>5141.4870345789</DistanceMeters>
          </Trackpoint>
          <Trackpoint>
            <Time>2021-08-09T08:15:32.000Z</Time>
            <Position>
              <LatitudeDegrees>42.94879138469696044921875</LatitudeDegrees>
              <LongitudeDegrees>-1.827964000403881072998046875</LongitudeDegrees>
            </Position>
            <AltitudeMeters>465.399993896484375</AltitudeMeters>
            <DistanceMeters>5148.5510421121</DistanceMeters>
          </Trackpoint>
          <Trackpoint>
            <Time>2021-08-09T08:15:33.000Z</Time>
            <Position>
              <LatitudeDegrees>42.9488230682909488677978515625</LatitudeDegrees>
              <LongitudeDegrees>-1.8279504217207431793212890625</LongitudeDegrees>
            </Position>
            <AltitudeMeters>465.399993896484375</AltitudeMeters>
            <DistanceMeters>5152.2485460994</DistanceMeters>
          </Trackpoint>
          <Trackpoint>
            <Time>2021-08-09T08:15:34.000Z</Time>
            <Position>
              <LatitudeDegrees>42.94885600917041301727294921875</LatitudeDegrees>
              <LongitudeDegrees>-1.82792552746832370758056640625</LongitudeDegrees>
            </Position>
            <AltitudeMeters>465.399993896484375</AltitudeMeters>
            <DistanceMeters>5156.4383514179</DistanceMeters>
          </Trackpoint>
          <Trackpoint>
            <Time>2021-08-09T08:15:40.000Z</Time>
            <Position>
              <LatitudeDegrees>42.949061281979084014892578125</LatitudeDegrees>
              <LongitudeDegrees>-1.82777901180088520050048828125</LongitudeDegrees>
            </Position>
            <AltitudeMeters>465.600006103515625</AltitudeMeters>
            <DistanceMeters>5182.2156504435</DistanceMeters>
          </Trackpoint>
          <Trackpoint>
            <Time>2021-08-09T08:15:47.000Z</Time>
            <Position>
              <LatitudeDegrees>42.9492783732712268829345703125</LatitudeDegrees>
              <LongitudeDegrees>-1.82764087803661823272705078125</LongitudeDegrees>
            </Position>
            <AltitudeMeters>465.600006103515625</AltitudeMeters>
            <DistanceMeters>5208.8706014772</DistanceMeters>
          </Trackpoint>
          <Trackpoint>
            <Time>2021-08-09T08:15:48.000Z</Time>
            <Position>
              <LatitudeDegrees>42.94930628500878810882568359375</LatitudeDegrees>
              <LongitudeDegrees>-1.82761992327868938446044921875</LongitudeDegrees>
            </Position>
            <AltitudeMeters>465.600006103515625</AltitudeMeters>
            <DistanceMeters>5212.4160022176</DistanceMeters>
          </Trackpoint>
          <Trackpoint>
            <Time>2021-08-09T08:15:49.000Z</Time>
            <Position>
              <LatitudeDegrees>42.9493283294141292572021484375</LatitudeDegrees>
              <LongitudeDegrees>-1.82760349474847316741943359375</LongitudeDegrees>
            </Position>
            <AltitudeMeters>465.600006103515625</AltitudeMeters>
            <DistanceMeters>5215.2092057633</DistanceMeters>
          </Trackpoint>
          <Trackpoint>
            <Time>2021-08-09T08:15:50.000Z</Time>
            <Position>
              <LatitudeDegrees>42.94935389421880245208740234375</LatitudeDegrees>
              <LongitudeDegrees>-1.82758547365665435791015625</LongitudeDegrees>
            </Position>
            <AltitudeMeters>465.600006103515625</AltitudeMeters>
            <DistanceMeters>5218.4120430742</DistanceMeters>
          </Trackpoint>
          <Trackpoint>
            <Time>2021-08-09T08:15:51.000Z</Time>
            <Position>
              <LatitudeDegrees>42.94937836937606334686279296875</LatitudeDegrees>
              <LongitudeDegrees>-1.8275700509548187255859375</LongitudeDegrees>
            </Position>
            <AltitudeMeters>465.600006103515625</AltitudeMeters>
            <DistanceMeters>5221.4110355948</DistanceMeters>
          </Trackpoint>
          <Trackpoint>
            <Time>2021-08-09T08:15:52.000Z</Time>
            <Position>
              <LatitudeDegrees>42.9494034312665462493896484375</LatitudeDegrees>
              <LongitudeDegrees>-1.8275521136820316314697265625</LongitudeDegrees>
            </Position>
            <AltitudeMeters>465.600006103515625</AltitudeMeters>
            <DistanceMeters>5224.5598486943</DistanceMeters>
          </Trackpoint>
          <Trackpoint>
            <Time>2021-08-09T08:15:53.000Z</Time>
            <Position>
              <LatitudeDegrees>42.9494315944612026214599609375</LatitudeDegrees>
              <LongitudeDegrees>-1.82753107510507106781005859375</LongitudeDegrees>
            </Position>
            <AltitudeMeters>465.79998779296875</AltitudeMeters>
            <DistanceMeters>5228.1306284325</DistanceMeters>
          </Trackpoint>
          <Trackpoint>
            <Time>2021-08-09T08:15:54.000Z</Time>
            <Position>
              <LatitudeDegrees>42.9494604282081127166748046875</LatitudeDegrees>
              <LongitudeDegrees>-1.82750676758587360382080078125</LongitudeDegrees>
            </Position>
            <AltitudeMeters>465.79998779296875</AltitudeMeters>
            <DistanceMeters>5231.9018842444</DistanceMeters>
          </Trackpoint>
          <Trackpoint>
            <Time>2021-08-09T08:15:56.000Z</Time>
            <Position>
              <LatitudeDegrees>42.94951231218874454498291015625</LatitudeDegrees>
              <LongitudeDegrees>-1.827461421489715576171875</LongitudeDegrees>
            </Position>
            <AltitudeMeters>466</AltitudeMeters>
            <DistanceMeters>5238.7569931286</DistanceMeters>
          </Trackpoint>
          <Trackpoint>
            <Time>2021-08-09T08:15:57.000Z</Time>
            <Position>
              <LatitudeDegrees>42.9495378769934177398681640625</LatitudeDegrees>
              <LongitudeDegrees>-1.82744675315916538238525390625</LongitudeDegrees>
            </Position>
            <AltitudeMeters>466</AltitudeMeters>
            <DistanceMeters>5241.8435333679</DistanceMeters>
          </Trackpoint>
          <Trackpoint>
            <Time>2021-08-09T08:16:01.000Z</Time>
            <Position>
              <LatitudeDegrees>42.94964365661144256591796875</LatitudeDegrees>
              <LongitudeDegrees>-1.8273760937154293060302734375</LongitudeDegrees>
            </Position>
            <AltitudeMeters>466.399993896484375</AltitudeMeters>
            <DistanceMeters>5254.9489541533</DistanceMeters>
          </Trackpoint>
          <Trackpoint>
            <Time>2021-08-09T08:16:03.000Z</Time>
            <Position>
              <LatitudeDegrees>42.94969285838305950164794921875</LatitudeDegrees>
              <LongitudeDegrees>-1.82733912952244281768798828125</LongitudeDegrees>
            </Position>
            <AltitudeMeters>467</AltitudeMeters>
            <DistanceMeters>5261.1983605747</DistanceMeters>
          </Trackpoint>
          <Trackpoint>
            <Time>2021-08-09T08:16:04.000Z</Time>
            <Position>
              <LatitudeDegrees>42.94971750117838382720947265625</LatitudeDegrees>
              <LongitudeDegrees>-1.82732018642127513885498046875</LongitudeDegrees>
            </Position>
            <AltitudeMeters>467.20001220703125</AltitudeMeters>
            <DistanceMeters>5264.3457394619</DistanceMeters>
          </Trackpoint>
          <Trackpoint>
            <Time>2021-08-09T08:16:05.000Z</Time>
            <Position>
              <LatitudeDegrees>42.94974155724048614501953125</LatitudeDegrees>
              <LongitudeDegrees>-1.8272999860346317291259765625</LongitudeDegrees>
            </Position>
            <AltitudeMeters>467.399993896484375</AltitudeMeters>
            <DistanceMeters>5267.4888117852</DistanceMeters>
          </Trackpoint>
          <Trackpoint>
            <Time>2021-08-09T08:16:06.000Z</Time>
            <Position>
              <LatitudeDegrees>42.9497635178267955780029296875</LatitudeDegrees>
              <LongitudeDegrees>-1.8272755108773708343505859375</LongitudeDegrees>
            </Position>
            <AltitudeMeters>467.399993896484375</AltitudeMeters>
            <DistanceMeters>5270.6433552135</DistanceMeters>
          </Trackpoint>
          <Trackpoint>
            <Time>2021-08-09T08:16:07.000Z</Time>
            <Position>
              <LatitudeDegrees>42.9497839696705341339111328125</LatitudeDegrees>
              <LongitudeDegrees>-1.82725648395717144012451171875</LongitudeDegrees>
            </Position>
            <AltitudeMeters>467.600006103515625</AltitudeMeters>
            <DistanceMeters>5273.3974910513</DistanceMeters>
          </Trackpoint>
          <Trackpoint>
            <Time>2021-08-09T08:16:08.000Z</Time>
            <Position>
              <LatitudeDegrees>42.949807606637477874755859375</LatitudeDegrees>
              <LongitudeDegrees>-1.82723787613213062286376953125</LongitudeDegrees>
            </Position>
            <AltitudeMeters>467.600006103515625</AltitudeMeters>
            <DistanceMeters>5276.4324009302</DistanceMeters>
          </Trackpoint>
          <Trackpoint>
            <Time>2021-08-09T08:16:09.000Z</Time>
            <Position>
              <LatitudeDegrees>42.94983266852796077728271484375</LatitudeDegrees>
              <LongitudeDegrees>-1.8272185139358043670654296875</LongitudeDegrees>
            </Position>
            <AltitudeMeters>467.600006103515625</AltitudeMeters>
            <DistanceMeters>5279.6352382411</DistanceMeters>
          </Trackpoint>
          <Trackpoint>
            <Time>2021-08-09T08:16:11.000Z</Time>
            <Position>
              <LatitudeDegrees>42.94988027773797512054443359375</LatitudeDegrees>
              <LongitudeDegrees>-1.82717777788639068603515625</LongitudeDegrees>
            </Position>
            <AltitudeMeters>467.600006103515625</AltitudeMeters>
            <DistanceMeters>5285.8882559927</DistanceMeters>
          </Trackpoint>
          <Trackpoint>
            <Time>2021-08-09T08:16:19.000Z</Time>
            <Position>
              <LatitudeDegrees>42.9500773362815380096435546875</LatitudeDegrees>
              <LongitudeDegrees>-1.827003099024295806884765625</LongitudeDegrees>
            </Position>
            <AltitudeMeters>467.79998779296875</AltitudeMeters>
            <DistanceMeters>5312.0332120389</DistanceMeters>
          </Trackpoint>
          <Trackpoint>
            <Time>2021-08-09T08:16:24.000Z</Time>
            <Position>
              <LatitudeDegrees>42.95022058300673961639404296875</LatitudeDegrees>
              <LongitudeDegrees>-1.8268673121929168701171875</LongitudeDegrees>
            </Position>
            <AltitudeMeters>467.79998779296875</AltitudeMeters>
            <DistanceMeters>5331.4386815737</DistanceMeters>
          </Trackpoint>
          <Trackpoint>
            <Time>2021-08-09T08:16:25.000Z</Time>
            <Position>
              <LatitudeDegrees>42.95024857856333255767822265625</LatitudeDegrees>
              <LongitudeDegrees>-1.82684157975018024444580078125</LongitudeDegrees>
            </Position>
            <AltitudeMeters>467.79998779296875</AltitudeMeters>
            <DistanceMeters>5335.1943412235</DistanceMeters>
          </Trackpoint>
          <Trackpoint>
            <Time>2021-08-09T08:16:26.000Z</Time>
            <Position>
              <LatitudeDegrees>42.950274981558322906494140625</LatitudeDegrees>
              <LongitudeDegrees>-1.8268135003745555877685546875</LongitudeDegrees>
            </Position>
            <AltitudeMeters>467.79998779296875</AltitudeMeters>
            <DistanceMeters>5338.9186126178</DistanceMeters>
          </Trackpoint>
          <Trackpoint>
            <Time>2021-08-09T08:16:27.000Z</Time>
            <Position>
              <LatitudeDegrees>42.9503002949059009552001953125</LatitudeDegrees>
              <LongitudeDegrees>-1.82679028250277042388916015625</LongitudeDegrees>
            </Position>
            <AltitudeMeters>467.79998779296875</AltitudeMeters>
            <DistanceMeters>5342.310414114</DistanceMeters>
          </Trackpoint>
          <Trackpoint>
            <Time>2021-08-09T08:16:28.000Z</Time>
            <Position>
              <LatitudeDegrees>42.95032535679638385772705078125</LatitudeDegrees>
              <LongitudeDegrees>-1.8267625384032726287841796875</LongitudeDegrees>
            </Position>
            <AltitudeMeters>467.79998779296875</AltitudeMeters>
            <DistanceMeters>5345.9013679095</DistanceMeters>
          </Trackpoint>
          <Trackpoint>
            <Time>2021-08-09T08:16:29.000Z</Time>
            <Position>
              <LatitudeDegrees>42.950345389544963836669921875</LatitudeDegrees>
              <LongitudeDegrees>-1.82673797942698001861572265625</LongitudeDegrees>
            </Position>
            <AltitudeMeters>467.79998779296875</AltitudeMeters>
            <DistanceMeters>5348.8973478803</DistanceMeters>
          </Trackpoint>
          <Trackpoint>
            <Time>2021-08-09T08:16:31.000Z</Time>
            <Position>
              <LatitudeDegrees>42.95038998126983642578125</LatitudeDegrees>
              <LongitudeDegrees>-1.82671300135552883148193359375</LongitudeDegrees>
            </Position>
            <AltitudeMeters>467.79998779296875</AltitudeMeters>
            <DistanceMeters>5354.2619404675</DistanceMeters>
          </Trackpoint>
          <Trackpoint>
            <Time>2021-08-09T08:16:32.000Z</Time>
            <Position>
              <LatitudeDegrees>42.950415797531604766845703125</LatitudeDegrees>
              <LongitudeDegrees>-1.826690621674060821533203125</LongitudeDegrees>
            </Position>
            <AltitudeMeters>467.79998779296875</AltitudeMeters>
            <DistanceMeters>5357.6643745964</DistanceMeters>
          </Trackpoint>
          <Trackpoint>
            <Time>2021-08-09T08:16:33.000Z</Time>
            <Position>
              <LatitudeDegrees>42.95043767429888248443603515625</LatitudeDegrees>
              <LongitudeDegrees>-1.82667176239192485809326171875</LongitudeDegrees>
            </Position>
            <AltitudeMeters>467.79998779296875</AltitudeMeters>
            <DistanceMeters>5360.5419743078</DistanceMeters>
          </Trackpoint>
          <Trackpoint>
            <Time>2021-08-09T08:16:34.000Z</Time>
            <Position>
              <LatitudeDegrees>42.950460724532604217529296875</LatitudeDegrees>
              <LongitudeDegrees>-1.82664711959660053253173828125</LongitudeDegrees>
            </Position>
            <AltitudeMeters>467.79998779296875</AltitudeMeters>
            <DistanceMeters>5363.8007117778</DistanceMeters>
          </Trackpoint>
          <Trackpoint>
            <Time>2021-08-09T08:16:35.000Z</Time>
            <Position>
              <LatitudeDegrees>42.95047941617667675018310546875</LatitudeDegrees>
              <LongitudeDegrees>-1.826628930866718292236328125</LongitudeDegrees>
            </Position>
            <AltitudeMeters>467.79998779296875</AltitudeMeters>
            <DistanceMeters>5366.3540850745</DistanceMeters>
          </Trackpoint>
          <Trackpoint>
            <Time>2021-08-09T08:16:36.000Z</Time>
            <Position>
              <LatitudeDegrees>42.95049416832625865936279296875</LatitudeDegrees>
              <LongitudeDegrees>-1.82660537771880626678466796875</LongitudeDegrees>
            </Position>
            <AltitudeMeters>467.79998779296875</AltitudeMeters>
            <DistanceMeters>5368.8790076415</DistanceMeters>
          </Trackpoint>
          <Trackpoint>
            <Time>2021-08-09T08:16:37.000Z</Time>
            <Position>
              <LatitudeDegrees>42.95050841756165027618408203125</LatitudeDegrees>
              <LongitudeDegrees>-1.8265915475785732269287109375</LongitudeDegrees>
            </Position>
            <AltitudeMeters>468</AltitudeMeters>
            <DistanceMeters>5370.8218334066</DistanceMeters>
          </Trackpoint>
          <Trackpoint>
            <Time>2021-08-09T08:16:38.000Z</Time>
            <Position>
              <LatitudeDegrees>42.950524426996707916259765625</LatitudeDegrees>
              <LongitudeDegrees>-1.82658207602798938751220703125</LongitudeDegrees>
            </Position>
            <AltitudeMeters>468</AltitudeMeters>
            <DistanceMeters>5372.7646591717</DistanceMeters>
          </Trackpoint>
          <Trackpoint>
            <Time>2021-08-09T08:16:39.000Z</Time>
            <Position>
              <LatitudeDegrees>42.950537167489528656005859375</LatitudeDegrees>
              <LongitudeDegrees>-1.82657436467707157135009765625</LongitudeDegrees>
            </Position>
            <AltitudeMeters>468</AltitudeMeters>
            <DistanceMeters>5374.3144979808</DistanceMeters>
          </Trackpoint>
          <Trackpoint>
            <Time>2021-08-09T08:16:40.000Z</Time>
            <Position>
              <LatitudeDegrees>42.95055560767650604248046875</LatitudeDegrees>
              <LongitudeDegrees>-1.826576292514801025390625</LongitudeDegrees>
            </Position>
            <AltitudeMeters>468</AltitudeMeters>
            <DistanceMeters>5376.3746280565</DistanceMeters>
          </Trackpoint>
          <Trackpoint>
            <Time>2021-08-09T08:16:41.000Z</Time>
            <Position>
              <LatitudeDegrees>42.950572706758975982666015625</LatitudeDegrees>
              <LongitudeDegrees>-1.82658844627439975738525390625</LongitudeDegrees>
            </Position>
            <AltitudeMeters>468</AltitudeMeters>
            <DistanceMeters>5378.5206334121</DistanceMeters>
          </Trackpoint>
          <Trackpoint>
            <Time>2021-08-09T08:16:42.000Z</Time>
            <Position>
              <LatitudeDegrees>42.950588800013065338134765625</LatitudeDegrees>
              <LongitudeDegrees>-1.8266032822430133819580078125</LongitudeDegrees>
            </Position>
            <AltitudeMeters>468</AltitudeMeters>
            <DistanceMeters>5380.6834046894</DistanceMeters>
          </Trackpoint>
          <Trackpoint>
            <Time>2021-08-09T08:16:43.000Z</Time>
            <Position>
              <LatitudeDegrees>42.95060330070555210113525390625</LatitudeDegrees>
              <LongitudeDegrees>-1.82661828584969043731689453125</LongitudeDegrees>
            </Position>
            <AltitudeMeters>468</AltitudeMeters>
            <DistanceMeters>5382.7103937821</DistanceMeters>
          </Trackpoint>
          <Trackpoint>
            <Time>2021-08-09T08:16:44.000Z</Time>
            <Position>
              <LatitudeDegrees>42.95061570592224597930908203125</LatitudeDegrees>
              <LongitudeDegrees>-1.8266381509602069854736328125</LongitudeDegrees>
            </Position>
            <AltitudeMeters>468</AltitudeMeters>
            <DistanceMeters>5384.8373795128</DistanceMeters>
          </Trackpoint>
          <Trackpoint>
            <Time>2021-08-09T08:16:45.000Z</Time>
            <Position>
              <LatitudeDegrees>42.95062894932925701141357421875</LatitudeDegrees>
              <LongitudeDegrees>-1.82666103355586528778076171875</LongitudeDegrees>
            </Position>
            <AltitudeMeters>468</AltitudeMeters>
            <DistanceMeters>5387.2149471467</DistanceMeters>
          </Trackpoint>
          <Trackpoint>
            <Time>2021-08-09T08:16:46.000Z</Time>
            <Position>
              <LatitudeDegrees>42.9506486468017101287841796875</LatitudeDegrees>
              <LongitudeDegrees>-1.826675869524478912353515625</LongitudeDegrees>
            </Position>
            <AltitudeMeters>468</AltitudeMeters>
            <DistanceMeters>5389.7183194826</DistanceMeters>
          </Trackpoint>
          <Trackpoint>
            <Time>2021-08-09T08:16:47.000Z</Time>
            <Position>
              <LatitudeDegrees>42.950666248798370361328125</LatitudeDegrees>
              <LongitudeDegrees>-1.8266730196774005889892578125</LongitudeDegrees>
            </Position>
            <AltitudeMeters>468</AltitudeMeters>
            <DistanceMeters>5391.693412651</DistanceMeters>
          </Trackpoint>
          <Trackpoint>
            <Time>2021-08-09T08:16:49.000Z</Time>
            <Position>
              <LatitudeDegrees>42.9506912268698215484619140625</LatitudeDegrees>
              <LongitudeDegrees>-1.826648376882076263427734375</LongitudeDegrees>
            </Position>
            <AltitudeMeters>468</AltitudeMeters>
            <DistanceMeters>5395.122284117</DistanceMeters>
          </Trackpoint>
          <Trackpoint>
            <Time>2021-08-09T08:16:50.000Z</Time>
            <Position>
              <LatitudeDegrees>42.9507022909820079803466796875</LatitudeDegrees>
              <LongitudeDegrees>-1.826635301113128662109375</LongitudeDegrees>
            </Position>
            <AltitudeMeters>468</AltitudeMeters>
            <DistanceMeters>5396.7516528519</DistanceMeters>
          </Trackpoint>
          <Trackpoint>
            <Time>2021-08-09T08:16:52.000Z</Time>
            <Position>
              <LatitudeDegrees>42.9507066495716571807861328125</LatitudeDegrees>
              <LongitudeDegrees>-1.826629601418972015380859375</LongitudeDegrees>
            </Position>
            <AltitudeMeters>468</AltitudeMeters>
            <DistanceMeters>5397.4235931932</DistanceMeters>
          </Trackpoint>
          <Trackpoint>
            <Time>2021-08-09T08:16:58.000Z</Time>
            <Position>
              <LatitudeDegrees>42.9507086612284183502197265625</LatitudeDegrees>
              <LongitudeDegrees>-1.82663454674184322357177734375</LongitudeDegrees>
            </Position>
            <AltitudeMeters>468.20001220703125</AltitudeMeters>
            <DistanceMeters>5397.8891271175</DistanceMeters>
          </Trackpoint>
          <Trackpoint>
            <Time>2021-08-09T08:16:59.000Z</Time>
            <Position>
              <LatitudeDegrees>42.9507086612284183502197265625</LatitudeDegrees>
              <LongitudeDegrees>-1.82663454674184322357177734375</LongitudeDegrees>
            </Position>
            <AltitudeMeters>468.399993896484375</AltitudeMeters>
            <DistanceMeters>5397.9841538318</DistanceMeters>
          </Trackpoint>
          <Trackpoint>
            <Time>2021-08-09T08:17:09.000Z</Time>
            <Position>
              <LatitudeDegrees>42.9507086612284183502197265625</LatitudeDegrees>
              <LongitudeDegrees>-1.82663454674184322357177734375</LongitudeDegrees>
            </Position>
            <AltitudeMeters>468.600006103515625</AltitudeMeters>
            <DistanceMeters>5398.0791805462</DistanceMeters>
          </Trackpoint>
          <Trackpoint>
            <Time>2021-08-09T08:18:08.000Z</Time>
            <Position>
              <LatitudeDegrees>42.9507086612284183502197265625</LatitudeDegrees>
              <LongitudeDegrees>-1.82663454674184322357177734375</LongitudeDegrees>
            </Position>
            <AltitudeMeters>468.600006103515625</AltitudeMeters>
            <DistanceMeters>5398.1742072606</DistanceMeters>
          </Trackpoint>
          <Trackpoint>
            <Time>2021-08-09T08:18:41.000Z</Time>
            <Position>
              <LatitudeDegrees>42.9507103376090526580810546875</LatitudeDegrees>
              <LongitudeDegrees>-1.8266321159899234771728515625</LongitudeDegrees>
            </Position>
            <AltitudeMeters>468.399993896484375</AltitudeMeters>
            <DistanceMeters>5398.4429833971</DistanceMeters>
          </Trackpoint>
          <Trackpoint>
            <Time>2021-08-09T08:18:43.000Z</Time>
            <Position>
              <LatitudeDegrees>42.95074813999235630035400390625</LatitudeDegrees>
              <LongitudeDegrees>-1.8265979178249835968017578125</LongitudeDegrees>
            </Position>
            <AltitudeMeters>468.600006103515625</AltitudeMeters>
            <DistanceMeters>5403.4892508862</DistanceMeters>
          </Trackpoint>
          <Trackpoint>
            <Time>2021-08-09T08:18:48.000Z</Time>
            <Position>
              <LatitudeDegrees>42.950878143310546875</LatitudeDegrees>
              <LongitudeDegrees>-1.826493479311466217041015625</LongitudeDegrees>
            </Position>
            <AltitudeMeters>468.79998779296875</AltitudeMeters>
            <DistanceMeters>5420.274853205</DistanceMeters>
          </Trackpoint>
          <Trackpoint>
            <Time>2021-08-09T08:18:49.000Z</Time>
            <Position>
              <LatitudeDegrees>42.950902283191680908203125</LatitudeDegrees>
              <LongitudeDegrees>-1.8264701776206493377685546875</LongitudeDegrees>
            </Position>
            <AltitudeMeters>468.79998779296875</AltitudeMeters>
            <DistanceMeters>5423.5639308234</DistanceMeters>
          </Trackpoint>
          <Trackpoint>
            <Time>2021-08-09T08:18:53.000Z</Time>
            <Position>
              <LatitudeDegrees>42.95100764371454715728759765625</LatitudeDegrees>
              <LongitudeDegrees>-1.82640270330011844635009765625</LongitudeDegrees>
            </Position>
            <AltitudeMeters>469.399993896484375</AltitudeMeters>
            <DistanceMeters>5436.5151342403</DistanceMeters>
          </Trackpoint>
          <Trackpoint>
            <Time>2021-08-09T08:18:56.000Z</Time>
            <Position>
              <LatitudeDegrees>42.951085008680820465087890625</LatitudeDegrees>
              <LongitudeDegrees>-1.82637713849544525146484375</LongitudeDegrees>
            </Position>
            <AltitudeMeters>470.600006103515625</AltitudeMeters>
            <DistanceMeters>5445.3745599808</DistanceMeters>
          </Trackpoint>
          <Trackpoint>
            <Time>2021-08-09T08:19:00.000Z</Time>
            <Position>
              <LatitudeDegrees>42.95121249742805957794189453125</LatitudeDegrees>
              <LongitudeDegrees>-1.8263474665582180023193359375</LongitudeDegrees>
            </Position>
            <AltitudeMeters>471.600006103515625</AltitudeMeters>
            <DistanceMeters>5459.7691469524</DistanceMeters>
          </Trackpoint>
          <Trackpoint>
            <Time>2021-08-09T08:19:02.000Z</Time>
            <Position>
              <LatitudeDegrees>42.9512818157672882080078125</LatitudeDegrees>
              <LongitudeDegrees>-1.82632911019027233123779296875</LongitudeDegrees>
            </Position>
            <AltitudeMeters>472</AltitudeMeters>
            <DistanceMeters>5467.6282641341</DistanceMeters>
          </Trackpoint>
          <Trackpoint>
            <Time>2021-08-09T08:19:03.000Z</Time>
            <Position>
              <LatitudeDegrees>42.95131391845643520355224609375</LatitudeDegrees>
              <LongitudeDegrees>-1.82632081210613250732421875</LongitudeDegrees>
            </Position>
            <AltitudeMeters>472</AltitudeMeters>
            <DistanceMeters>5471.2642003154</DistanceMeters>
          </Trackpoint>
          <Trackpoint>
            <Time>2021-08-09T08:19:04.000Z</Time>
            <Position>
              <LatitudeDegrees>42.9513446800410747528076171875</LatitudeDegrees>
              <LongitudeDegrees>-1.82631553150713443756103515625</LongitudeDegrees>
            </Position>
            <AltitudeMeters>472</AltitudeMeters>
            <DistanceMeters>5474.7140757846</DistanceMeters>
          </Trackpoint>
          <Trackpoint>
            <Time>2021-08-09T08:19:05.000Z</Time>
            <Position>
              <LatitudeDegrees>42.95136957429349422454833984375</LatitudeDegrees>
              <LongitudeDegrees>-1.82631335221230983734130859375</LongitudeDegrees>
            </Position>
            <AltitudeMeters>472.20001220703125</AltitudeMeters>
            <DistanceMeters>5477.4910679133</DistanceMeters>
          </Trackpoint>
          <Trackpoint>
            <Time>2021-08-09T08:19:06.000Z</Time>
            <Position>
              <LatitudeDegrees>42.95139270834624767303466796875</LatitudeDegrees>
              <LongitudeDegrees>-1.82631276547908782958984375</LongitudeDegrees>
            </Position>
            <AltitudeMeters>472.20001220703125</AltitudeMeters>
            <DistanceMeters>5480.0655729356</DistanceMeters>
          </Trackpoint>
          <Trackpoint>
            <Time>2021-08-09T08:19:07.000Z</Time>
            <Position>
              <LatitudeDegrees>42.9514150880277156829833984375</LatitudeDegrees>
              <LongitudeDegrees>-1.82631016708910465240478515625</LongitudeDegrees>
            </Position>
            <AltitudeMeters>472.399993896484375</AltitudeMeters>
            <DistanceMeters>5482.5653355042</DistanceMeters>
          </Trackpoint>
          <Trackpoint>
            <Time>2021-08-09T08:19:08.000Z</Time>
            <Position>
              <LatitudeDegrees>42.951435036957263946533203125</LatitudeDegrees>
              <LongitudeDegrees>-1.8263055570423603057861328125</LongitudeDegrees>
            </Position>
            <AltitudeMeters>472.600006103515625</AltitudeMeters>
            <DistanceMeters>5484.8180900318</DistanceMeters>
          </Trackpoint>
          <Trackpoint>
            <Time>2021-08-09T08:19:09.000Z</Time>
            <Position>
              <LatitudeDegrees>42.95145205222070217132568359375</LatitudeDegrees>
              <LongitudeDegrees>-1.8262948282063007354736328125</LongitudeDegrees>
            </Position>
            <AltitudeMeters>472.79998779296875</AltitudeMeters>
            <DistanceMeters>5486.9043538804</DistanceMeters>
          </Trackpoint>
          <Trackpoint>
            <Time>2021-08-09T08:19:10.000Z</Time>
            <Position>
              <LatitudeDegrees>42.95146479271352291107177734375</LatitudeDegrees>
              <LongitudeDegrees>-1.8262773938477039337158203125</LongitudeDegrees>
            </Position>
            <AltitudeMeters>473</AltitudeMeters>
            <DistanceMeters>5488.9089446161</DistanceMeters>
          </Trackpoint>
          <Trackpoint>
            <Time>2021-08-09T08:19:11.000Z</Time>
            <Position>
              <LatitudeDegrees>42.95147099532186985015869140625</LatitudeDegrees>
              <LongitudeDegrees>-1.826262138783931732177734375</LongitudeDegrees>
            </Position>
            <AltitudeMeters>473</AltitudeMeters>
            <DistanceMeters>5490.3311742471</DistanceMeters>
          </Trackpoint>
          <Trackpoint>
            <Time>2021-08-09T08:19:12.000Z</Time>
            <Position>
              <LatitudeDegrees>42.95147250406444072723388671875</LatitudeDegrees>
              <LongitudeDegrees>-1.82624327950179576873779296875</LongitudeDegrees>
            </Position>
            <AltitudeMeters>473.20001220703125</AltitudeMeters>
            <DistanceMeters>5491.8751756011</DistanceMeters>
          </Trackpoint>
          <Trackpoint>
            <Time>2021-08-09T08:19:13.000Z</Time>
            <Position>
              <LatitudeDegrees>42.95147568918764591217041015625</LatitudeDegrees>
              <LongitudeDegrees>-1.8262160383164882659912109375</LongitudeDegrees>
            </Position>
            <AltitudeMeters>473.20001220703125</AltitudeMeters>
            <DistanceMeters>5494.1198988927</DistanceMeters>
          </Trackpoint>
          <Trackpoint>
            <Time>2021-08-09T08:19:14.000Z</Time>
            <Position>
              <LatitudeDegrees>42.9514865018427371978759765625</LatitudeDegrees>
              <LongitudeDegrees>-1.8261835165321826934814453125</LongitudeDegrees>
            </Position>
            <AltitudeMeters>473.399993896484375</AltitudeMeters>
            <DistanceMeters>5497.0302617059</DistanceMeters>
          </Trackpoint>
          <Trackpoint>
            <Time>2021-08-09T08:19:15.000Z</Time>
            <Position>
              <LatitudeDegrees>42.95150452293455600738525390625</LatitudeDegrees>
              <LongitudeDegrees>-1.82615325786173343658447265625</LongitudeDegrees>
            </Position>
            <AltitudeMeters>473.399993896484375</AltitudeMeters>
            <DistanceMeters>5500.2104638406</DistanceMeters>
          </Trackpoint>
          <Trackpoint>
            <Time>2021-08-09T08:19:16.000Z</Time>
            <Position>
              <LatitudeDegrees>42.95152380131185054779052734375</LatitudeDegrees>
              <LongitudeDegrees>-1.82611830532550811767578125</LongitudeDegrees>
            </Position>
            <AltitudeMeters>473.600006103515625</AltitudeMeters>
            <DistanceMeters>5503.77618223</DistanceMeters>
          </Trackpoint>
          <Trackpoint>
            <Time>2021-08-09T08:19:17.000Z</Time>
            <Position>
              <LatitudeDegrees>42.9515384696424007415771484375</LatitudeDegrees>
              <LongitudeDegrees>-1.826083101332187652587890625</LongitudeDegrees>
            </Position>
            <AltitudeMeters>473.79998779296875</AltitudeMeters>
            <DistanceMeters>5507.0762234709</DistanceMeters>
          </Trackpoint>
          <Trackpoint>
            <Time>2021-08-09T08:19:18.000Z</Time>
            <Position>
              <LatitudeDegrees>42.951554395258426666259765625</LatitudeDegrees>
              <LongitudeDegrees>-1.82604630477726459503173828125</LongitudeDegrees>
            </Position>
            <AltitudeMeters>473.79998779296875</AltitudeMeters>
            <DistanceMeters>5510.5573673329</DistanceMeters>
          </Trackpoint>
          <Trackpoint>
            <Time>2021-08-09T08:19:19.000Z</Time>
            <Position>
              <LatitudeDegrees>42.95157593674957752227783203125</LatitudeDegrees>
              <LongitudeDegrees>-1.8260036408901214599609375</LongitudeDegrees>
            </Position>
            <AltitudeMeters>473.79998779296875</AltitudeMeters>
            <DistanceMeters>5514.7815158924</DistanceMeters>
          </Trackpoint>
          <Trackpoint>
            <Time>2021-08-09T08:19:20.000Z</Time>
            <Position>
              <LatitudeDegrees>42.951602675020694732666015625</LatitudeDegrees>
              <LongitudeDegrees>-1.8259553611278533935546875</LongitudeDegrees>
            </Position>
            <AltitudeMeters>474</AltitudeMeters>
            <DistanceMeters>5519.7137593921</DistanceMeters>
          </Trackpoint>
          <Trackpoint>
            <Time>2021-08-09T08:19:21.000Z</Time>
            <Position>
              <LatitudeDegrees>42.95163578353822231292724609375</LatitudeDegrees>
              <LongitudeDegrees>-1.82591420598328113555908203125</LongitudeDegrees>
            </Position>
            <AltitudeMeters>474</AltitudeMeters>
            <DistanceMeters>5524.6960962077</DistanceMeters>
          </Trackpoint>
          <Trackpoint>
            <Time>2021-08-09T08:19:22.000Z</Time>
            <Position>
              <LatitudeDegrees>42.95166947878897190093994140625</LatitudeDegrees>
              <LongitudeDegrees>-1.8258869647979736328125</LongitudeDegrees>
            </Position>
            <AltitudeMeters>474</AltitudeMeters>
            <DistanceMeters>5529.0528404836</DistanceMeters>
          </Trackpoint>
          <Trackpoint>
            <Time>2021-08-09T08:19:23.000Z</Time>
            <Position>
              <LatitudeDegrees>42.95171256177127361297607421875</LatitudeDegrees>
              <LongitudeDegrees>-1.82586911134421825408935546875</LongitudeDegrees>
            </Position>
            <AltitudeMeters>474</AltitudeMeters>
            <DistanceMeters>5534.0640920828</DistanceMeters>
          </Trackpoint>
          <Trackpoint>
            <Time>2021-08-09T08:19:24.000Z</Time>
            <Position>
              <LatitudeDegrees>42.95175229199230670928955078125</LatitudeDegrees>
              <LongitudeDegrees>-1.82585687376558780670166015625</LongitudeDegrees>
            </Position>
            <AltitudeMeters>474</AltitudeMeters>
            <DistanceMeters>5538.597573525</DistanceMeters>
          </Trackpoint>
          <Trackpoint>
            <Time>2021-08-09T08:19:25.000Z</Time>
            <Position>
              <LatitudeDegrees>42.95179286040365695953369140625</LatitudeDegrees>
              <LongitudeDegrees>-1.8258432112634181976318359375</LongitudeDegrees>
            </Position>
            <AltitudeMeters>474</AltitudeMeters>
            <DistanceMeters>5543.2480609277</DistanceMeters>
          </Trackpoint>
          <Trackpoint>
            <Time>2021-08-09T08:19:26.000Z</Time>
            <Position>
              <LatitudeDegrees>42.95183368027210235595703125</LatitudeDegrees>
              <LongitudeDegrees>-1.8258274532854557037353515625</LongitudeDegrees>
            </Position>
            <AltitudeMeters>474</AltitudeMeters>
            <DistanceMeters>5547.9698464735</DistanceMeters>
          </Trackpoint>
          <Trackpoint>
            <Time>2021-08-09T08:19:27.000Z</Time>
            <Position>
              <LatitudeDegrees>42.9518737457692623138427734375</LatitudeDegrees>
              <LongitudeDegrees>-1.82580909691751003265380859375</LongitudeDegrees>
            </Position>
            <AltitudeMeters>473.79998779296875</AltitudeMeters>
            <DistanceMeters>5552.6734288622</DistanceMeters>
          </Trackpoint>
          <Trackpoint>
            <Time>2021-08-09T08:19:28.000Z</Time>
            <Position>
              <LatitudeDegrees>42.95191339217126369476318359375</LatitudeDegrees>
              <LongitudeDegrees>-1.82578881271183490753173828125</LongitudeDegrees>
            </Position>
            <AltitudeMeters>473.79998779296875</AltitudeMeters>
            <DistanceMeters>5557.3846843106</DistanceMeters>
          </Trackpoint>
          <Trackpoint>
            <Time>2021-08-09T08:19:29.000Z</Time>
            <Position>
              <LatitudeDegrees>42.95194960199296474456787109375</LatitudeDegrees>
              <LongitudeDegrees>-1.8257674388587474822998046875</LongitudeDegrees>
            </Position>
            <AltitudeMeters>473.79998779296875</AltitudeMeters>
            <DistanceMeters>5561.7754943962</DistanceMeters>
          </Trackpoint>
          <Trackpoint>
            <Time>2021-08-09T08:19:31.000Z</Time>
            <Position>
              <LatitudeDegrees>42.9520118795335292816162109375</LatitudeDegrees>
              <LongitudeDegrees>-1.82571672834455966949462890625</LongitudeDegrees>
            </Position>
            <AltitudeMeters>473.600006103515625</AltitudeMeters>
            <DistanceMeters>5569.8443760511</DistanceMeters>
          </Trackpoint>
          <Trackpoint>
            <Time>2021-08-09T08:19:33.000Z</Time>
            <Position>
              <LatitudeDegrees>42.95206527225673198699951171875</LatitudeDegrees>
              <LongitudeDegrees>-1.8256631679832935333251953125</LongitudeDegrees>
            </Position>
            <AltitudeMeters>473.399993896484375</AltitudeMeters>
            <DistanceMeters>5577.2173713849</DistanceMeters>
          </Trackpoint>
          <Trackpoint>
            <Time>2021-08-09T08:19:34.000Z</Time>
            <Position>
              <LatitudeDegrees>42.952084131538867950439453125</LatitudeDegrees>
              <LongitudeDegrees>-1.82564062066376209259033203125</LongitudeDegrees>
            </Position>
            <AltitudeMeters>473.399993896484375</AltitudeMeters>
            <DistanceMeters>5580.0057214021</DistanceMeters>
          </Trackpoint>
          <Trackpoint>
            <Time>2021-08-09T08:19:35.000Z</Time>
            <Position>
              <LatitudeDegrees>42.95209796167910099029541015625</LatitudeDegrees>
              <LongitudeDegrees>-1.8256189115345478057861328125</LongitudeDegrees>
            </Position>
            <AltitudeMeters>473.399993896484375</AltitudeMeters>
            <DistanceMeters>5582.3488574369</DistanceMeters>
          </Trackpoint>
          <Trackpoint>
            <Time>2021-08-09T08:19:36.000Z</Time>
            <Position>
              <LatitudeDegrees>42.95211254619061946868896484375</LatitudeDegrees>
              <LongitudeDegrees>-1.82559586130082607269287109375</LongitudeDegrees>
            </Position>
            <AltitudeMeters>473.20001220703125</AltitudeMeters>
            <DistanceMeters>5584.830492409</DistanceMeters>
          </Trackpoint>
          <Trackpoint>
            <Time>2021-08-09T08:19:37.000Z</Time>
            <Position>
              <LatitudeDegrees>42.95212604105472564697265625</LatitudeDegrees>
              <LongitudeDegrees>-1.8255713023245334625244140625</LongitudeDegrees>
            </Position>
            <AltitudeMeters>473.20001220703125</AltitudeMeters>
            <DistanceMeters>5587.3320605124</DistanceMeters>
          </Trackpoint>
          <Trackpoint>
            <Time>2021-08-09T08:19:39.000Z</Time>
            <Position>
              <LatitudeDegrees>42.95215227641165256500244140625</LatitudeDegrees>
              <LongitudeDegrees>-1.8255122937262058258056640625</LongitudeDegrees>
            </Position>
            <AltitudeMeters>473.20001220703125</AltitudeMeters>
            <DistanceMeters>5592.9571283217</DistanceMeters>
          </Trackpoint>
          <Trackpoint>
            <Time>2021-08-09T08:19:43.000Z</Time>
            <Position>
              <LatitudeDegrees>42.952206842601299285888671875</LatitudeDegrees>
              <LongitudeDegrees>-1.82536737062036991119384765625</LongitudeDegrees>
            </Position>
            <AltitudeMeters>472.79998779296875</AltitudeMeters>
            <DistanceMeters>5606.2336900824</DistanceMeters>
          </Trackpoint>
          <Trackpoint>
            <Time>2021-08-09T08:19:45.000Z</Time>
            <Position>
              <LatitudeDegrees>42.95221463777124881744384765625</LatitudeDegrees>
              <LongitudeDegrees>-1.8252767622470855712890625</LongitudeDegrees>
            </Position>
            <AltitudeMeters>472.79998779296875</AltitudeMeters>
            <DistanceMeters>5613.666455899</DistanceMeters>
          </Trackpoint>
          <Trackpoint>
            <Time>2021-08-09T08:19:48.000Z</Time>
            <Position>
              <LatitudeDegrees>42.95223793946206569671630859375</LatitudeDegrees>
              <LongitudeDegrees>-1.82513938285410404205322265625</LongitudeDegrees>
            </Position>
            <AltitudeMeters>472.600006103515625</AltitudeMeters>
            <DistanceMeters>5625.1548673342</DistanceMeters>
          </Trackpoint>
          <Trackpoint>
            <Time>2021-08-09T08:19:49.000Z</Time>
            <Position>
              <LatitudeDegrees>42.95223592780530452728271484375</LatitudeDegrees>
              <LongitudeDegrees>-1.82511758990585803985595703125</LongitudeDegrees>
            </Position>
            <AltitudeMeters>472.600006103515625</AltitudeMeters>
            <DistanceMeters>5626.9427842957</DistanceMeters>
          </Trackpoint>
          <Trackpoint>
            <Time>2021-08-09T08:19:50.000Z</Time>
            <Position>
              <LatitudeDegrees>42.95224950648844242095947265625</LatitudeDegrees>
              <LongitudeDegrees>-1.82510199956595897674560546875</LongitudeDegrees>
            </Position>
            <AltitudeMeters>472.600006103515625</AltitudeMeters>
            <DistanceMeters>5628.9133001852</DistanceMeters>
          </Trackpoint>
          <Trackpoint>
            <Time>2021-08-09T08:19:54.000Z</Time>
            <Position>
              <LatitudeDegrees>42.95232360251247882843017578125</LatitudeDegrees>
              <LongitudeDegrees>-1.82493670843541622161865234375</LongitudeDegrees>
            </Position>
            <AltitudeMeters>472</AltitudeMeters>
            <DistanceMeters>5644.7031833583</DistanceMeters>
          </Trackpoint>
          <Trackpoint>
            <Time>2021-08-09T08:19:55.000Z</Time>
            <Position>
              <LatitudeDegrees>42.95231002382934093475341796875</LatitudeDegrees>
              <LongitudeDegrees>-1.82486026547849178314208984375</LongitudeDegrees>
            </Position>
            <AltitudeMeters>471.79998779296875</AltitudeMeters>
            <DistanceMeters>5651.111676759</DistanceMeters>
          </Trackpoint>
          <Trackpoint>
            <Time>2021-08-09T08:19:56.000Z</Time>
            <Position>
              <LatitudeDegrees>42.95234170742332935333251953125</LatitudeDegrees>
              <LongitudeDegrees>-1.8248028494417667388916015625</LongitudeDegrees>
            </Position>
            <AltitudeMeters>471.79998779296875</AltitudeMeters>
            <DistanceMeters>5656.9695168462</DistanceMeters>
          </Trackpoint>
          <Trackpoint>
            <Time>2021-08-09T08:19:57.000Z</Time>
            <Position>
              <LatitudeDegrees>42.95232946984469890594482421875</LatitudeDegrees>
              <LongitudeDegrees>-1.82476202957332134246826171875</LongitudeDegrees>
            </Position>
            <AltitudeMeters>471.600006103515625</AltitudeMeters>
            <DistanceMeters>5660.5629844354</DistanceMeters>
          </Trackpoint>
          <Trackpoint>
            <Time>2021-08-09T08:19:58.000Z</Time>
            <Position>
              <LatitudeDegrees>42.95233081094920635223388671875</LatitudeDegrees>
              <LongitudeDegrees>-1.8247579224407672882080078125</LongitudeDegrees>
            </Position>
            <AltitudeMeters>471.600006103515625</AltitudeMeters>
            <DistanceMeters>5660.9185418432</DistanceMeters>
          </Trackpoint>
          <Trackpoint>
            <Time>2021-08-09T08:19:59.000Z</Time>
            <Position>
              <LatitudeDegrees>42.952310107648372650146484375</LatitudeDegrees>
              <LongitudeDegrees>-1.8247123248875141143798828125</LongitudeDegrees>
            </Position>
            <AltitudeMeters>471.399993896484375</AltitudeMeters>
            <DistanceMeters>5665.2897707042</DistanceMeters>
          </Trackpoint>
          <Trackpoint>
            <Time>2021-08-09T08:20:02.000Z</Time>
            <Position>
              <LatitudeDegrees>42.9522385261952877044677734375</LatitudeDegrees>
              <LongitudeDegrees>-1.82459908537566661834716796875</LongitudeDegrees>
            </Position>
            <AltitudeMeters>471.20001220703125</AltitudeMeters>
            <DistanceMeters>5677.4791463161</DistanceMeters>
          </Trackpoint>
          <Trackpoint>
            <Time>2021-08-09T08:20:03.000Z</Time>
            <Position>
              <LatitudeDegrees>42.95225772075355052947998046875</LatitudeDegrees>
              <LongitudeDegrees>-1.8245839141309261322021484375</LongitudeDegrees>
            </Position>
            <AltitudeMeters>471.20001220703125</AltitudeMeters>
            <DistanceMeters>5679.9461833088</DistanceMeters>
          </Trackpoint>
          <Trackpoint>
            <Time>2021-08-09T08:20:06.000Z</Time>
            <Position>
              <LatitudeDegrees>42.9523035697638988494873046875</LatitudeDegrees>
              <LongitudeDegrees>-1.82452146895229816436767578125</LongitudeDegrees>
            </Position>
            <AltitudeMeters>470.79998779296875</AltitudeMeters>
            <DistanceMeters>5687.1519406981</DistanceMeters>
          </Trackpoint>
          <Trackpoint>
            <Time>2021-08-09T08:20:07.000Z</Time>
            <Position>
              <LatitudeDegrees>42.9523206688463687896728515625</LatitudeDegrees>
              <LongitudeDegrees>-1.824487186968326568603515625</LongitudeDegrees>
            </Position>
            <AltitudeMeters>470.600006103515625</AltitudeMeters>
            <DistanceMeters>5690.5330761254</DistanceMeters>
          </Trackpoint>
          <Trackpoint>
            <Time>2021-08-09T08:20:08.000Z</Time>
            <Position>
              <LatitudeDegrees>42.95233852230012416839599609375</LatitudeDegrees>
              <LongitudeDegrees>-1.82445374317467212677001953125</LongitudeDegrees>
            </Position>
            <AltitudeMeters>470.600006103515625</AltitudeMeters>
            <DistanceMeters>5693.9061898678</DistanceMeters>
          </Trackpoint>
          <Trackpoint>
            <Time>2021-08-09T08:20:09.000Z</Time>
            <Position>
              <LatitudeDegrees>42.95235914178192615509033203125</LatitudeDegrees>
              <LongitudeDegrees>-1.824419796466827392578125</LongitudeDegrees>
            </Position>
            <AltitudeMeters>470.399993896484375</AltitudeMeters>
            <DistanceMeters>5697.5009136947</DistanceMeters>
          </Trackpoint>
          <Trackpoint>
            <Time>2021-08-09T08:20:11.000Z</Time>
            <Position>
              <LatitudeDegrees>42.95241228304803371429443359375</LatitudeDegrees>
              <LongitudeDegrees>-1.8243800662457942962646484375</LongitudeDegrees>
            </Position>
            <AltitudeMeters>470.399993896484375</AltitudeMeters>
            <DistanceMeters>5704.2431243721</DistanceMeters>
          </Trackpoint>
          <Trackpoint>
            <Time>2021-08-09T08:20:12.000Z</Time>
            <Position>
              <LatitudeDegrees>42.95243390835821628570556640625</LatitudeDegrees>
              <LongitudeDegrees>-1.8243720196187496185302734375</LongitudeDegrees>
            </Position>
            <AltitudeMeters>470.20001220703125</AltitudeMeters>
            <DistanceMeters>5706.7392719531</DistanceMeters>
          </Trackpoint>
          <Trackpoint>
            <Time>2021-08-09T08:20:13.000Z</Time>
            <Position>
              <LatitudeDegrees>42.95245469547808170318603515625</LatitudeDegrees>
              <LongitudeDegrees>-1.8243669904768466949462890625</LongitudeDegrees>
            </Position>
            <AltitudeMeters>470</AltitudeMeters>
            <DistanceMeters>5709.0901030368</DistanceMeters>
          </Trackpoint>
          <Trackpoint>
            <Time>2021-08-09T08:20:14.000Z</Time>
            <Position>
              <LatitudeDegrees>42.95247296802699565887451171875</LatitudeDegrees>
              <LongitudeDegrees>-1.824359111487865447998046875</LongitudeDegrees>
            </Position>
            <AltitudeMeters>469.79998779296875</AltitudeMeters>
            <DistanceMeters>5711.2255628477</DistanceMeters>
          </Trackpoint>
          <Trackpoint>
            <Time>2021-08-09T08:20:15.000Z</Time>
            <Position>
              <LatitudeDegrees>42.952489145100116729736328125</LatitudeDegrees>
              <LongitudeDegrees>-1.82435207068920135498046875</LongitudeDegrees>
            </Position>
            <AltitudeMeters>469.79998779296875</AltitudeMeters>
            <DistanceMeters>5713.1141814422</DistanceMeters>
          </Trackpoint>
          <Trackpoint>
            <Time>2021-08-09T08:20:18.000Z</Time>
            <Position>
              <LatitudeDegrees>42.95253918506205081939697265625</LatitudeDegrees>
              <LongitudeDegrees>-1.82432130910456180572509765625</LongitudeDegrees>
            </Position>
            <AltitudeMeters>469.600006103515625</AltitudeMeters>
            <DistanceMeters>5719.2210804682</DistanceMeters>
          </Trackpoint>
          <Trackpoint>
            <Time>2021-08-09T08:20:19.000Z</Time>
            <Position>
              <LatitudeDegrees>42.952557541429996490478515625</LatitudeDegrees>
              <LongitudeDegrees>-1.82431854307651519775390625</LongitudeDegrees>
            </Position>
            <AltitudeMeters>469.600006103515625</AltitudeMeters>
            <DistanceMeters>5721.2768226154</DistanceMeters>
          </Trackpoint>
          <Trackpoint>
            <Time>2021-08-09T08:20:20.000Z</Time>
            <Position>
              <LatitudeDegrees>42.9525773227214813232421875</LatitudeDegrees>
              <LongitudeDegrees>-1.82432047091424465179443359375</LongitudeDegrees>
            </Position>
            <AltitudeMeters>469.600006103515625</AltitudeMeters>
            <DistanceMeters>5723.4850439086</DistanceMeters>
          </Trackpoint>
          <Trackpoint>
            <Time>2021-08-09T08:20:21.000Z</Time>
            <Position>
              <LatitudeDegrees>42.9525952599942684173583984375</LatitudeDegrees>
              <LongitudeDegrees>-1.8243245780467987060546875</LongitudeDegrees>
            </Position>
            <AltitudeMeters>469.600006103515625</AltitudeMeters>
            <DistanceMeters>5725.5075731739</DistanceMeters>
          </Trackpoint>
          <Trackpoint>
            <Time>2021-08-09T08:20:22.000Z</Time>
            <Position>
              <LatitudeDegrees>42.952612526714801788330078125</LatitudeDegrees>
              <LongitudeDegrees>-1.82433061301708221435546875</LongitudeDegrees>
            </Position>
            <AltitudeMeters>469.600006103515625</AltitudeMeters>
            <DistanceMeters>5727.491789223</DistanceMeters>
          </Trackpoint>
          <Trackpoint>
            <Time>2021-08-09T08:20:23.000Z</Time>
            <Position>
              <LatitudeDegrees>42.95262685976922512054443359375</LatitudeDegrees>
              <LongitudeDegrees>-1.8243374861776828765869140625</LongitudeDegrees>
            </Position>
            <AltitudeMeters>469.600006103515625</AltitudeMeters>
            <DistanceMeters>5729.1836917712</DistanceMeters>
          </Trackpoint>
          <Trackpoint>
            <Time>2021-08-09T08:20:24.000Z</Time>
            <Position>
              <LatitudeDegrees>42.9526415280997753143310546875</LatitudeDegrees>
              <LongitudeDegrees>-1.8243433535099029541015625</LongitudeDegrees>
            </Position>
            <AltitudeMeters>469.79998779296875</AltitudeMeters>
            <DistanceMeters>5730.8835813153</DistanceMeters>
          </Trackpoint>
          <Trackpoint>
            <Time>2021-08-09T08:20:25.000Z</Time>
            <Position>
              <LatitudeDegrees>42.9526539333164691925048828125</LatitudeDegrees>
              <LongitudeDegrees>-1.8243465386331081390380859375</LongitudeDegrees>
            </Position>
            <AltitudeMeters>469.79998779296875</AltitudeMeters>
            <DistanceMeters>5732.286633939</DistanceMeters>
          </Trackpoint>
          <Trackpoint>
            <Time>2021-08-09T08:20:26.000Z</Time>
            <Position>
              <LatitudeDegrees>42.9526658356189727783203125</LatitudeDegrees>
              <LongitudeDegrees>-1.824343018233776092529296875</LongitudeDegrees>
            </Position>
            <AltitudeMeters>469.79998779296875</AltitudeMeters>
            <DistanceMeters>5733.6405562108</DistanceMeters>
          </Trackpoint>
          <Trackpoint>
            <Time>2021-08-09T08:20:27.000Z</Time>
            <Position>
              <LatitudeDegrees>42.9526770673692226409912109375</LatitudeDegrees>
              <LongitudeDegrees>-1.824328601360321044921875</LongitudeDegrees>
            </Position>
            <AltitudeMeters>470</AltitudeMeters>
            <DistanceMeters>5735.3563082094</DistanceMeters>
          </Trackpoint>
          <Trackpoint>
            <Time>2021-08-09T08:20:28.000Z</Time>
            <Position>
              <LatitudeDegrees>42.95268301852047443389892578125</LatitudeDegrees>
              <LongitudeDegrees>-1.82431594468653202056884765625</LongitudeDegrees>
            </Position>
            <AltitudeMeters>470</AltitudeMeters>
            <DistanceMeters>5736.5879951999</DistanceMeters>
          </Trackpoint>
          <Trackpoint>
            <Time>2021-08-09T08:20:29.000Z</Time>
            <Position>
              <LatitudeDegrees>42.9526814259588718414306640625</LatitudeDegrees>
              <LongitudeDegrees>-1.8243029527366161346435546875</LongitudeDegrees>
            </Position>
            <AltitudeMeters>470.20001220703125</AltitudeMeters>
            <DistanceMeters>5737.6630997459</DistanceMeters>
          </Trackpoint>
          <Trackpoint>
            <Time>2021-08-09T08:20:30.000Z</Time>
            <Position>
              <LatitudeDegrees>42.9526787437498569488525390625</LatitudeDegrees>
              <LongitudeDegrees>-1.8242865242063999176025390625</LongitudeDegrees>
            </Position>
            <AltitudeMeters>470.20001220703125</AltitudeMeters>
            <DistanceMeters>5739.0335945107</DistanceMeters>
          </Trackpoint>
          <Trackpoint>
            <Time>2021-08-09T08:20:31.000Z</Time>
            <Position>
              <LatitudeDegrees>42.9526792466640472412109375</LatitudeDegrees>
              <LongitudeDegrees>-1.82426515035331249237060546875</LongitudeDegrees>
            </Position>
            <AltitudeMeters>470.20001220703125</AltitudeMeters>
            <DistanceMeters>5740.7728689597</DistanceMeters>
          </Trackpoint>
          <Trackpoint>
            <Time>2021-08-09T08:20:32.000Z</Time>
            <Position>
              <LatitudeDegrees>42.952685616910457611083984375</LatitudeDegrees>
              <LongitudeDegrees>-1.824243105947971343994140625</LongitudeDegrees>
            </Position>
            <AltitudeMeters>470.20001220703125</AltitudeMeters>
            <DistanceMeters>5742.7017005995</DistanceMeters>
          </Trackpoint>
          <Trackpoint>
            <Time>2021-08-09T08:20:35.000Z</Time>
            <Position>
              <LatitudeDegrees>42.9527300409972667694091796875</LatitudeDegrees>
              <LongitudeDegrees>-1.82417093776166439056396484375</LongitudeDegrees>
            </Position>
            <AltitudeMeters>470.399993896484375</AltitudeMeters>
            <DistanceMeters>5750.383598123</DistanceMeters>
          </Trackpoint>
          <Trackpoint>
            <Time>2021-08-09T08:20:36.000Z</Time>
            <Position>
              <LatitudeDegrees>42.95273892581462860107421875</LatitudeDegrees>
              <LongitudeDegrees>-1.8241571076214313507080078125</LongitudeDegrees>
            </Position>
            <AltitudeMeters>470.399993896484375</AltitudeMeters>
            <DistanceMeters>5751.8800803174</DistanceMeters>
          </Trackpoint>
          <Trackpoint>
            <Time>2021-08-09T08:20:37.000Z</Time>
            <Position>
              <LatitudeDegrees>42.95274831354618072509765625</LatitudeDegrees>
              <LongitudeDegrees>-1.82414528913795948028564453125</LongitudeDegrees>
            </Position>
            <AltitudeMeters>470.399993896484375</AltitudeMeters>
            <DistanceMeters>5753.3023099484</DistanceMeters>
          </Trackpoint>
          <Trackpoint>
            <Time>2021-08-09T08:20:38.000Z</Time>
            <Position>
              <LatitudeDegrees>42.9527612216770648956298828125</LatitudeDegrees>
              <LongitudeDegrees>-1.82414093054831027984619140625</LongitudeDegrees>
            </Position>
            <AltitudeMeters>470.79998779296875</AltitudeMeters>
            <DistanceMeters>5754.7805786992</DistanceMeters>
          </Trackpoint>
          <Trackpoint>
            <Time>2021-08-09T08:20:39.000Z</Time>
            <Position>
              <LatitudeDegrees>42.95277773402631282806396484375</LatitudeDegrees>
              <LongitudeDegrees>-1.82413280010223388671875</LongitudeDegrees>
            </Position>
            <AltitudeMeters>470.79998779296875</AltitudeMeters>
            <DistanceMeters>5756.7372985085</DistanceMeters>
          </Trackpoint>
          <Trackpoint>
            <Time>2021-08-09T08:20:40.000Z</Time>
            <Position>
              <LatitudeDegrees>42.9527981020510196685791015625</LatitudeDegrees>
              <LongitudeDegrees>-1.824119053781032562255859375</LongitudeDegrees>
            </Position>
            <AltitudeMeters>470.79998779296875</AltitudeMeters>
            <DistanceMeters>5759.2693637279</DistanceMeters>
          </Trackpoint>
          <Trackpoint>
            <Time>2021-08-09T08:20:43.000Z</Time>
            <Position>
              <LatitudeDegrees>42.952863983809947967529296875</LatitudeDegrees>
              <LongitudeDegrees>-1.8240709416568279266357421875</LongitudeDegrees>
            </Position>
            <AltitudeMeters>470.79998779296875</AltitudeMeters>
            <DistanceMeters>5767.5840654817</DistanceMeters>
          </Trackpoint>
          <Trackpoint>
            <Time>2021-08-09T08:20:44.000Z</Time>
            <Position>
              <LatitudeDegrees>42.9528782330453395843505859375</LatitudeDegrees>
              <LongitudeDegrees>-1.8240568600594997406005859375</LongitudeDegrees>
            </Position>
            <AltitudeMeters>470.79998779296875</AltitudeMeters>
            <DistanceMeters>5769.540785291</DistanceMeters>
          </Trackpoint>
          <Trackpoint>
            <Time>2021-08-09T08:20:45.000Z</Time>
            <Position>
              <LatitudeDegrees>42.95288871042430400848388671875</LatitudeDegrees>
              <LongitudeDegrees>-1.82404470629990100860595703125</LongitudeDegrees>
            </Position>
            <AltitudeMeters>470.600006103515625</AltitudeMeters>
            <DistanceMeters>5771.0730450195</DistanceMeters>
          </Trackpoint>
          <Trackpoint>
            <Time>2021-08-09T08:20:46.000Z</Time>
            <Position>
              <LatitudeDegrees>42.952900193631649017333984375</LatitudeDegrees>
              <LongitudeDegrees>-1.8240340612828731536865234375</LongitudeDegrees>
            </Position>
            <AltitudeMeters>471</AltitudeMeters>
            <DistanceMeters>5772.6170463735</DistanceMeters>
          </Trackpoint>
          <Trackpoint>
            <Time>2021-08-09T08:20:47.000Z</Time>
            <Position>
              <LatitudeDegrees>42.95290983282029628753662109375</LatitudeDegrees>
              <LongitudeDegrees>-1.82402207516133785247802734375</LongitudeDegrees>
            </Position>
            <AltitudeMeters>471</AltitudeMeters>
            <DistanceMeters>5774.0706755862</DistanceMeters>
          </Trackpoint>
          <Trackpoint>
            <Time>2021-08-09T08:20:48.000Z</Time>
            <Position>
              <LatitudeDegrees>42.9529179632663726806640625</LatitudeDegrees>
              <LongitudeDegrees>-1.8240159563720226287841796875</LongitudeDegrees>
            </Position>
            <AltitudeMeters>471</AltitudeMeters>
            <DistanceMeters>5775.1029299252</DistanceMeters>
          </Trackpoint>
          <Trackpoint>
            <Time>2021-08-09T08:20:50.000Z</Time>
            <Position>
              <LatitudeDegrees>42.952949143946170806884765625</LatitudeDegrees>
              <LongitudeDegrees>-1.823990978300571441650390625</LongitudeDegrees>
            </Position>
            <AltitudeMeters>471.399993896484375</AltitudeMeters>
            <DistanceMeters>5779.1256027913</DistanceMeters>
          </Trackpoint>
          <Trackpoint>
            <Time>2021-08-09T08:20:51.000Z</Time>
            <Position>
              <LatitudeDegrees>42.95296397991478443145751953125</LatitudeDegrees>
              <LongitudeDegrees>-1.8239780701696872711181640625</LongitudeDegrees>
            </Position>
            <AltitudeMeters>471.399993896484375</AltitudeMeters>
            <DistanceMeters>5781.0846286943</DistanceMeters>
          </Trackpoint>
          <Trackpoint>
            <Time>2021-08-09T08:20:52.000Z</Time>
            <Position>
              <LatitudeDegrees>42.9529781453311443328857421875</LatitudeDegrees>
              <LongitudeDegrees>-1.823966167867183685302734375</LongitudeDegrees>
            </Position>
            <AltitudeMeters>471.600006103515625</AltitudeMeters>
            <DistanceMeters>5782.9370403787</DistanceMeters>
          </Trackpoint>
          <Trackpoint>
            <Time>2021-08-09T08:20:54.000Z</Time>
            <Position>
              <LatitudeDegrees>42.9530187137424945831298828125</LatitudeDegrees>
              <LongitudeDegrees>-1.82392886839807033538818359375</LongitudeDegrees>
            </Position>
            <AltitudeMeters>471.79998779296875</AltitudeMeters>
            <DistanceMeters>5788.380171905</DistanceMeters>
          </Trackpoint>
          <Trackpoint>
            <Time>2021-08-09T08:20:56.000Z</Time>
            <Position>
              <LatitudeDegrees>42.95305232517421245574951171875</LatitudeDegrees>
              <LongitudeDegrees>-1.82388829998672008514404296875</LongitudeDegrees>
            </Position>
            <AltitudeMeters>471.79998779296875</AltitudeMeters>
            <DistanceMeters>5793.3724670671</DistanceMeters>
          </Trackpoint>
          <Trackpoint>
            <Time>2021-08-09T08:20:59.000Z</Time>
            <Position>
              <LatitudeDegrees>42.95310328714549541473388671875</LatitudeDegrees>
              <LongitudeDegrees>-1.82383532635867595672607421875</LongitudeDegrees>
            </Position>
            <AltitudeMeters>471.79998779296875</AltitudeMeters>
            <DistanceMeters>5800.5001041281</DistanceMeters>
          </Trackpoint>
          <Trackpoint>
            <Time>2021-08-09T08:21:05.000Z</Time>
            <Position>
              <LatitudeDegrees>42.95323438011109828948974609375</LatitudeDegrees>
              <LongitudeDegrees>-1.82370222173631191253662109375</LongitudeDegrees>
            </Position>
            <AltitudeMeters>471.79998779296875</AltitudeMeters>
            <DistanceMeters>5818.6787915819</DistanceMeters>
          </Trackpoint>
          <Trackpoint>
            <Time>2021-08-09T08:21:12.000Z</Time>
            <Position>
              <LatitudeDegrees>42.953418530523777008056640625</LatitudeDegrees>
              <LongitudeDegrees>-1.82355319149792194366455078125</LongitudeDegrees>
            </Position>
            <AltitudeMeters>471.600006103515625</AltitudeMeters>
            <DistanceMeters>5842.50075884</DistanceMeters>
          </Trackpoint>
          <Trackpoint>
            <Time>2021-08-09T08:21:18.000Z</Time>
            <Position>
              <LatitudeDegrees>42.953563034534454345703125</LatitudeDegrees>
              <LongitudeDegrees>-1.82346618734300136566162109375</LongitudeDegrees>
            </Position>
            <AltitudeMeters>471.600006103515625</AltitudeMeters>
            <DistanceMeters>5860.0768481419</DistanceMeters>
          </Trackpoint>
          <Trackpoint>
            <Time>2021-08-09T08:21:20.000Z</Time>
            <Position>
              <LatitudeDegrees>42.95361458323895931243896484375</LatitudeDegrees>
              <LongitudeDegrees>-1.82344322092831134796142578125</LongitudeDegrees>
            </Position>
            <AltitudeMeters>471.600006103515625</AltitudeMeters>
            <DistanceMeters>5866.1123537856</DistanceMeters>
          </Trackpoint>
          <Trackpoint>
            <Time>2021-08-09T08:21:26.000Z</Time>
            <Position>
              <LatitudeDegrees>42.95377819798886775970458984375</LatitudeDegrees>
              <LongitudeDegrees>-1.82338974438607692718505859375</LongitudeDegrees>
            </Position>
            <AltitudeMeters>471.399993896484375</AltitudeMeters>
            <DistanceMeters>5884.836716205</DistanceMeters>
          </Trackpoint>
          <Trackpoint>
            <Time>2021-08-09T08:21:27.000Z</Time>
            <Position>
              <LatitudeDegrees>42.9538029246032238006591796875</LatitudeDegrees>
              <LongitudeDegrees>-1.8233853019773960113525390625</LongitudeDegrees>
            </Position>
            <AltitudeMeters>471.399993896484375</AltitudeMeters>
            <DistanceMeters>5887.6137083337</DistanceMeters>
          </Trackpoint>
          <Trackpoint>
            <Time>2021-08-09T08:21:28.000Z</Time>
            <Position>
              <LatitudeDegrees>42.9538227058947086334228515625</LatitudeDegrees>
              <LongitudeDegrees>-1.8233829550445079803466796875</LongitudeDegrees>
            </Position>
            <AltitudeMeters>471.399993896484375</AltitudeMeters>
            <DistanceMeters>5889.8260151462</DistanceMeters>
          </Trackpoint>
          <Trackpoint>
            <Time>2021-08-09T08:21:29.000Z</Time>
            <Position>
              <LatitudeDegrees>42.95383972115814685821533203125</LatitudeDegrees>
              <LongitudeDegrees>-1.8233799375593662261962890625</LongitudeDegrees>
            </Position>
            <AltitudeMeters>471.399993896484375</AltitudeMeters>
            <DistanceMeters>5891.7336631239</DistanceMeters>
          </Trackpoint>
          <Trackpoint>
            <Time>2021-08-09T08:21:30.000Z</Time>
            <Position>
              <LatitudeDegrees>42.953856401145458221435546875</LatitudeDegrees>
              <LongitudeDegrees>-1.8233769200742244720458984375</LongitudeDegrees>
            </Position>
            <AltitudeMeters>471.20001220703125</AltitudeMeters>
            <DistanceMeters>5893.6054723183</DistanceMeters>
          </Trackpoint>
          <Trackpoint>
            <Time>2021-08-09T08:21:31.000Z</Time>
            <Position>
              <LatitudeDegrees>42.9538709856569766998291015625</LatitudeDegrees>
              <LongitudeDegrees>-1.8233759142458438873291015625</LongitudeDegrees>
            </Position>
            <AltitudeMeters>471.20001220703125</AltitudeMeters>
            <DistanceMeters>5895.2292895253</DistanceMeters>
          </Trackpoint>
          <Trackpoint>
            <Time>2021-08-09T08:21:32.000Z</Time>
            <Position>
              <LatitudeDegrees>42.95388900674879550933837890625</LatitudeDegrees>
              <LongitudeDegrees>-1.82337440550327301025390625</LongitudeDegrees>
            </Position>
            <AltitudeMeters>471.20001220703125</AltitudeMeters>
            <DistanceMeters>5897.2406259584</DistanceMeters>
          </Trackpoint>
          <Trackpoint>
            <Time>2021-08-09T08:21:38.000Z</Time>
            <Position>
              <LatitudeDegrees>42.9540191777050495147705078125</LatitudeDegrees>
              <LongitudeDegrees>-1.8234024010598659515380859375</LongitudeDegrees>
            </Position>
            <AltitudeMeters>471.20001220703125</AltitudeMeters>
            <DistanceMeters>5911.9074075088</DistanceMeters>
          </Trackpoint>
          <Trackpoint>
            <Time>2021-08-09T08:21:39.000Z</Time>
            <Position>
              <LatitudeDegrees>42.95404113829135894775390625</LatitudeDegrees>
              <LongitudeDegrees>-1.82342000305652618408203125</LongitudeDegrees>
            </Position>
            <AltitudeMeters>471</AltitudeMeters>
            <DistanceMeters>5914.7407338152</DistanceMeters>
          </Trackpoint>
          <Trackpoint>
            <Time>2021-08-09T08:21:43.000Z</Time>
            <Position>
              <LatitudeDegrees>42.9541596584022045135498046875</LatitudeDegrees>
              <LongitudeDegrees>-1.82346786372363567352294921875</LongitudeDegrees>
            </Position>
            <AltitudeMeters>471.20001220703125</AltitudeMeters>
            <DistanceMeters>5928.4963225633</DistanceMeters>
          </Trackpoint>
          <Trackpoint>
            <Time>2021-08-09T08:21:44.000Z</Time>
            <Position>
              <LatitudeDegrees>42.9541918449103832244873046875</LatitudeDegrees>
              <LongitudeDegrees>-1.823476664721965789794921875</LongitudeDegrees>
            </Position>
            <AltitudeMeters>471.20001220703125</AltitudeMeters>
            <DistanceMeters>5932.1496023205</DistanceMeters>
          </Trackpoint>
          <Trackpoint>
            <Time>2021-08-09T08:21:51.000Z</Time>
            <Position>
              <LatitudeDegrees>42.954390160739421844482421875</LatitudeDegrees>
              <LongitudeDegrees>-1.82353843934834003448486328125</LongitudeDegrees>
            </Position>
            <AltitudeMeters>471.399993896484375</AltitudeMeters>
            <DistanceMeters>5954.7887074001</DistanceMeters>
          </Trackpoint>
          <Trackpoint>
            <Time>2021-08-09T08:21:52.000Z</Time>
            <Position>
              <LatitudeDegrees>42.954418994486331939697265625</LatitudeDegrees>
              <LongitudeDegrees>-1.82354606688022613525390625</LongitudeDegrees>
            </Position>
            <AltitudeMeters>471.399993896484375</AltitudeMeters>
            <DistanceMeters>5958.0585102244</DistanceMeters>
          </Trackpoint>
          <Trackpoint>
            <Time>2021-08-09T08:21:55.000Z</Time>
            <Position>
              <LatitudeDegrees>42.9545073397457599639892578125</LatitudeDegrees>
              <LongitudeDegrees>-1.82356794364750385284423828125</LongitudeDegrees>
            </Position>
            <AltitudeMeters>471.399993896484375</AltitudeMeters>
            <DistanceMeters>5968.0521404692</DistanceMeters>
          </Trackpoint>
          <Trackpoint>
            <Time>2021-08-09T08:21:56.000Z</Time>
            <Position>
              <LatitudeDegrees>42.954537682235240936279296875</LatitudeDegrees>
              <LongitudeDegrees>-1.823581941425800323486328125</LongitudeDegrees>
            </Position>
            <AltitudeMeters>471.399993896484375</AltitudeMeters>
            <DistanceMeters>5971.6178588587</DistanceMeters>
          </Trackpoint>
          <Trackpoint>
            <Time>2021-08-09T08:22:01.000Z</Time>
            <Position>
              <LatitudeDegrees>42.95469953678548336029052734375</LatitudeDegrees>
              <LongitudeDegrees>-1.82366902939975261688232421875</LongitudeDegrees>
            </Position>
            <AltitudeMeters>471.399993896484375</AltitudeMeters>
            <DistanceMeters>5990.9793041409</DistanceMeters>
          </Trackpoint>
          <Trackpoint>
            <Time>2021-08-09T08:22:02.000Z</Time>
            <Position>
              <LatitudeDegrees>42.95472853817045688629150390625</LatitudeDegrees>
              <LongitudeDegrees>-1.8236826919019222259521484375</LongitudeDegrees>
            </Position>
            <AltitudeMeters>471.399993896484375</AltitudeMeters>
            <DistanceMeters>5994.3923377787</DistanceMeters>
          </Trackpoint>
          <Trackpoint>
            <Time>2021-08-09T08:22:03.000Z</Time>
            <Position>
              <LatitudeDegrees>42.95475670136511325836181640625</LatitudeDegrees>
              <LongitudeDegrees>-1.82369635440409183502197265625</LongitudeDegrees>
            </Position>
            <AltitudeMeters>471.399993896484375</AltitudeMeters>
            <DistanceMeters>5997.7196300292</DistanceMeters>
          </Trackpoint>
          <Trackpoint>
            <Time>2021-08-09T08:22:04.000Z</Time>
            <Position>
              <LatitudeDegrees>42.9547849483788013458251953125</LatitudeDegrees>
              <LongitudeDegrees>-1.8237071670591831207275390625</LongitudeDegrees>
            </Position>
            <AltitudeMeters>471.20001220703125</AltitudeMeters>
            <DistanceMeters>6000.9866700285</DistanceMeters>
          </Trackpoint>
          <Trackpoint>
            <Time>2021-08-09T08:22:05.000Z</Time>
            <Position>
              <LatitudeDegrees>42.95481361448764801025390625</LatitudeDegrees>
              <LongitudeDegrees>-1.823719404637813568115234375</LongitudeDegrees>
            </Position>
            <AltitudeMeters>471.20001220703125</AltitudeMeters>
            <DistanceMeters>6004.3302062759</DistanceMeters>
          </Trackpoint>
          <Trackpoint>
            <Time>2021-08-09T08:22:06.000Z</Time>
            <Position>
              <LatitudeDegrees>42.9548395983874797821044921875</LatitudeDegrees>
              <LongitudeDegrees>-1.82373424060642719268798828125</LongitudeDegrees>
            </Position>
            <AltitudeMeters>471.20001220703125</AltitudeMeters>
            <DistanceMeters>6007.4646477207</DistanceMeters>
          </Trackpoint>
          <Trackpoint>
            <Time>2021-08-09T08:22:09.000Z</Time>
            <Position>
              <LatitudeDegrees>42.95492802746593952178955078125</LatitudeDegrees>
              <LongitudeDegrees>-1.823762990534305572509765625</LongitudeDegrees>
            </Position>
            <AltitudeMeters>471.20001220703125</AltitudeMeters>
            <DistanceMeters>6017.5817578067</DistanceMeters>
          </Trackpoint>
          <Trackpoint>
            <Time>2021-08-09T08:22:19.000Z</Time>
            <Position>
              <LatitudeDegrees>42.9552308656275272369384765625</LatitudeDegrees>
              <LongitudeDegrees>-1.82382342405617237091064453125</LongitudeDegrees>
            </Position>
            <AltitudeMeters>471.600006103515625</AltitudeMeters>
            <DistanceMeters>6051.6458859043</DistanceMeters>
          </Trackpoint>
          <Trackpoint>
            <Time>2021-08-09T08:22:20.000Z</Time>
            <Position>
              <LatitudeDegrees>42.95525693334639072418212890625</LatitudeDegrees>
              <LongitudeDegrees>-1.82383180595934391021728515625</LongitudeDegrees>
            </Position>
            <AltitudeMeters>471.79998779296875</AltitudeMeters>
            <DistanceMeters>6054.6237265764</DistanceMeters>
          </Trackpoint>
          <Trackpoint>
            <Time>2021-08-09T08:22:21.000Z</Time>
            <Position>
              <LatitudeDegrees>42.955282665789127349853515625</LatitudeDegrees>
              <LongitudeDegrees>-1.82384186424314975738525390625</LongitudeDegrees>
            </Position>
            <AltitudeMeters>471.79998779296875</AltitudeMeters>
            <DistanceMeters>6057.6015672484</DistanceMeters>
          </Trackpoint>
          <Trackpoint>
            <Time>2021-08-09T08:22:22.000Z</Time>
            <Position>
              <LatitudeDegrees>42.95530672185122966766357421875</LatitudeDegrees>
              <LongitudeDegrees>-1.823850832879543304443359375</LongitudeDegrees>
            </Position>
            <AltitudeMeters>471.79998779296875</AltitudeMeters>
            <DistanceMeters>6060.3753057238</DistanceMeters>
          </Trackpoint>
          <Trackpoint>
            <Time>2021-08-09T08:22:23.000Z</Time>
            <Position>
              <LatitudeDegrees>42.9553306102752685546875</LatitudeDegrees>
              <LongitudeDegrees>-1.82385829277336597442626953125</LongitudeDegrees>
            </Position>
            <AltitudeMeters>471.79998779296875</AltitudeMeters>
            <DistanceMeters>6063.1030855885</DistanceMeters>
          </Trackpoint>
          <Trackpoint>
            <Time>2021-08-09T08:22:24.000Z</Time>
            <Position>
              <LatitudeDegrees>42.955351732671260833740234375</LatitudeDegrees>
              <LongitudeDegrees>-1.82386164553463459014892578125</LongitudeDegrees>
            </Position>
            <AltitudeMeters>471.79998779296875</AltitudeMeters>
            <DistanceMeters>6065.4692316945</DistanceMeters>
          </Trackpoint>
          <Trackpoint>
            <Time>2021-08-09T08:22:25.000Z</Time>
            <Position>
              <LatitudeDegrees>42.95537159778177738189697265625</LatitudeDegrees>
              <LongitudeDegrees>-1.8238627351820468902587890625</LongitudeDegrees>
            </Position>
            <AltitudeMeters>471.79998779296875</AltitudeMeters>
            <DistanceMeters>6067.681538507</DistanceMeters>
          </Trackpoint>
          <Trackpoint>
            <Time>2021-08-09T08:22:26.000Z</Time>
            <Position>
              <LatitudeDegrees>42.9553948156535625457763671875</LatitudeDegrees>
              <LongitudeDegrees>-1.82386030443012714385986328125</LongitudeDegrees>
            </Position>
            <AltitudeMeters>471.79998779296875</AltitudeMeters>
            <DistanceMeters>6070.2735217003</DistanceMeters>
          </Trackpoint>
          <Trackpoint>
            <Time>2021-08-09T08:22:27.000Z</Time>
            <Position>
              <LatitudeDegrees>42.9554177820682525634765625</LatitudeDegrees>
              <LongitudeDegrees>-1.8238577060401439666748046875</LongitudeDegrees>
            </Position>
            <AltitudeMeters>471.79998779296875</AltitudeMeters>
            <DistanceMeters>6072.8410021392</DistanceMeters>
          </Trackpoint>
          <Trackpoint>
            <Time>2021-08-09T08:22:29.000Z</Time>
            <Position>
              <LatitudeDegrees>42.95545332133769989013671875</LatitudeDegrees>
              <LongitudeDegrees>-1.82385778985917568206787109375</LongitudeDegrees>
            </Position>
            <AltitudeMeters>471.600006103515625</AltitudeMeters>
            <DistanceMeters>6076.7980404956</DistanceMeters>
          </Trackpoint>
          <Trackpoint>
            <Time>2021-08-09T08:22:30.000Z</Time>
            <Position>
              <LatitudeDegrees>42.95546664856374263763427734375</LatitudeDegrees>
              <LongitudeDegrees>-1.82386122643947601318359375</LongitudeDegrees>
            </Position>
            <AltitudeMeters>471.600006103515625</AltitudeMeters>
            <DistanceMeters>6078.3095329171</DistanceMeters>
          </Trackpoint>
          <Trackpoint>
            <Time>2021-08-09T08:22:31.000Z</Time>
            <Position>
              <LatitudeDegrees>42.95547771267592906951904296875</LatitudeDegrees>
              <LongitudeDegrees>-1.82386256754398345947265625</LongitudeDegrees>
            </Position>
            <AltitudeMeters>471.600006103515625</AltitudeMeters>
            <DistanceMeters>6079.5485296869</DistanceMeters>
          </Trackpoint>
          <Trackpoint>
            <Time>2021-08-09T08:22:32.000Z</Time>
            <Position>
              <LatitudeDegrees>42.95548676513135433197021484375</LatitudeDegrees>
              <LongitudeDegrees>-1.8238603882491588592529296875</LongitudeDegrees>
            </Position>
            <AltitudeMeters>471.600006103515625</AltitudeMeters>
            <DistanceMeters>6080.5719987228</DistanceMeters>
          </Trackpoint>
          <Trackpoint>
            <Time>2021-08-09T08:22:33.000Z</Time>
            <Position>
              <LatitudeDegrees>42.95549581758677959442138671875</LatitudeDegrees>
              <LongitudeDegrees>-1.82385376654565334320068359375</LongitudeDegrees>
            </Position>
            <AltitudeMeters>471.600006103515625</AltitudeMeters>
            <DistanceMeters>6081.7123192952</DistanceMeters>
          </Trackpoint>
          <Trackpoint>
            <Time>2021-08-09T08:22:34.000Z</Time>
            <Position>
              <LatitudeDegrees>42.95550436712801456451416015625</LatitudeDegrees>
              <LongitudeDegrees>-1.8238442949950695037841796875</LongitudeDegrees>
            </Position>
            <AltitudeMeters>471.79998779296875</AltitudeMeters>
            <DistanceMeters>6082.9366528649</DistanceMeters>
          </Trackpoint>
          <Trackpoint>
            <Time>2021-08-09T08:22:35.000Z</Time>
            <Position>
              <LatitudeDegrees>42.95551375485956668853759765625</LatitudeDegrees>
              <LongitudeDegrees>-1.823835410177707672119140625</LongitudeDegrees>
            </Position>
            <AltitudeMeters>471.79998779296875</AltitudeMeters>
            <DistanceMeters>6084.2115700229</DistanceMeters>
          </Trackpoint>
          <Trackpoint>
            <Time>2021-08-09T08:22:36.000Z</Time>
            <Position>
              <LatitudeDegrees>42.9555205442011356353759765625</LatitudeDegrees>
              <LongitudeDegrees>-1.82383012957870960235595703125</LongitudeDegrees>
            </Position>
            <AltitudeMeters>471.79998779296875</AltitudeMeters>
            <DistanceMeters>6085.0825042462</DistanceMeters>
          </Trackpoint>
          <Trackpoint>
            <Time>2021-08-09T08:22:37.000Z</Time>
            <Position>
              <LatitudeDegrees>42.95552439987659454345703125</LatitudeDegrees>
              <LongitudeDegrees>-1.8238278664648532867431640625</LongitudeDegrees>
            </Position>
            <AltitudeMeters>471.79998779296875</AltitudeMeters>
            <DistanceMeters>6085.557637818</DistanceMeters>
          </Trackpoint>
          <Trackpoint>
            <Time>2021-08-09T08:22:38.000Z</Time>
            <Position>
              <LatitudeDegrees>42.95552439987659454345703125</LatitudeDegrees>
              <LongitudeDegrees>-1.8238278664648532867431640625</LongitudeDegrees>
            </Position>
            <AltitudeMeters>471.79998779296875</AltitudeMeters>
            <DistanceMeters>6085.6526645324</DistanceMeters>
          </Trackpoint>
          <Trackpoint>
            <Time>2021-08-09T08:22:58.000Z</Time>
            <Position>
              <LatitudeDegrees>42.9555259086191654205322265625</LatitudeDegrees>
              <LongitudeDegrees>-1.823828034102916717529296875</LongitudeDegrees>
            </Position>
            <AltitudeMeters>472.20001220703125</AltitudeMeters>
            <DistanceMeters>6085.8427179612</DistanceMeters>
          </Trackpoint>
          <Trackpoint>
            <Time>2021-08-09T08:23:00.000Z</Time>
            <Position>
              <LatitudeDegrees>42.95555029995739459991455078125</LatitudeDegrees>
              <LongitudeDegrees>-1.8238644115626811981201171875</LongitudeDegrees>
            </Position>
            <AltitudeMeters>472</AltitudeMeters>
            <DistanceMeters>6089.8608987288</DistanceMeters>
          </Trackpoint>
          <Trackpoint>
            <Time>2021-08-09T08:23:01.000Z</Time>
            <Position>
              <LatitudeDegrees>42.955555580556392669677734375</LatitudeDegrees>
              <LongitudeDegrees>-1.82389073073863983154296875</LongitudeDegrees>
            </Position>
            <AltitudeMeters>472</AltitudeMeters>
            <DistanceMeters>6092.0854170792</DistanceMeters>
          </Trackpoint>
          <Trackpoint>
            <Time>2021-08-09T08:23:02.000Z</Time>
            <Position>
              <LatitudeDegrees>42.9555601067841053009033203125</LatitudeDegrees>
              <LongitudeDegrees>-1.8239079974591732025146484375</LongitudeDegrees>
            </Position>
            <AltitudeMeters>472</AltitudeMeters>
            <DistanceMeters>6093.5788791248</DistanceMeters>
          </Trackpoint>
          <Trackpoint>
            <Time>2021-08-09T08:23:03.000Z</Time>
            <Position>
              <LatitudeDegrees>42.955563962459564208984375</LatitudeDegrees>
              <LongitudeDegrees>-1.823920570313930511474609375</LongitudeDegrees>
            </Position>
            <AltitudeMeters>472</AltitudeMeters>
            <DistanceMeters>6094.6911383</DistanceMeters>
          </Trackpoint>
          <Trackpoint>
            <Time>2021-08-09T08:23:05.000Z</Time>
            <Position>
              <LatitudeDegrees>42.9555679857730865478515625</LatitudeDegrees>
              <LongitudeDegrees>-1.8239274434745311737060546875</LongitudeDegrees>
            </Position>
            <AltitudeMeters>472</AltitudeMeters>
            <DistanceMeters>6095.4148401957</DistanceMeters>
          </Trackpoint>
          <Trackpoint>
            <Time>2021-08-09T08:23:17.000Z</Time>
            <Position>
              <LatitudeDegrees>42.955571003258228302001953125</LatitudeDegrees>
              <LongitudeDegrees>-1.82392769493162631988525390625</LongitudeDegrees>
            </Position>
            <AltitudeMeters>472</AltitudeMeters>
            <DistanceMeters>6095.7440223904</DistanceMeters>
          </Trackpoint>
          <Trackpoint>
            <Time>2021-08-09T08:23:25.000Z</Time>
            <Position>
              <LatitudeDegrees>42.955571003258228302001953125</LatitudeDegrees>
              <LongitudeDegrees>-1.82392769493162631988525390625</LongitudeDegrees>
            </Position>
            <AltitudeMeters>472</AltitudeMeters>
            <DistanceMeters>6095.7440223904</DistanceMeters>
          </Trackpoint>
          <Trackpoint>
            <Time>2021-08-09T08:26:27.000Z</Time>
            <Position>
              <LatitudeDegrees>42.95557427220046520233154296875</LatitudeDegrees>
              <LongitudeDegrees>-1.8239381723105907440185546875</LongitudeDegrees>
            </Position>
            <AltitudeMeters>472.20001220703125</AltitudeMeters>
            <DistanceMeters>6096.675090239</DistanceMeters>
          </Trackpoint>
          <Trackpoint>
            <Time>2021-08-09T08:26:28.000Z</Time>
            <Position>
              <LatitudeDegrees>42.9555805586278438568115234375</LatitudeDegrees>
              <LongitudeDegrees>-1.82392291724681854248046875</LongitudeDegrees>
            </Position>
            <AltitudeMeters>472.20001220703125</AltitudeMeters>
            <DistanceMeters>6098.103655</DistanceMeters>
          </Trackpoint>
          <Trackpoint>
            <Time>2021-08-09T08:26:29.000Z</Time>
            <Position>
              <LatitudeDegrees>42.9555815644562244415283203125</LatitudeDegrees>
              <LongitudeDegrees>-1.8239086680114269256591796875</LongitudeDegrees>
            </Position>
            <AltitudeMeters>472.20001220703125</AltitudeMeters>
            <DistanceMeters>6099.2674898107</DistanceMeters>
          </Trackpoint>
          <Trackpoint>
            <Time>2021-08-09T08:26:30.000Z</Time>
            <Position>
              <LatitudeDegrees>42.9555755294859409332275390625</LatitudeDegrees>
              <LongitudeDegrees>-1.82388511486351490020751953125</LongitudeDegrees>
            </Position>
            <AltitudeMeters>472.20001220703125</AltitudeMeters>
            <DistanceMeters>6101.3011503063</DistanceMeters>
          </Trackpoint>
          <Trackpoint>
            <Time>2021-08-09T08:26:31.000Z</Time>
            <Position>
              <LatitudeDegrees>42.9555668123066425323486328125</LatitudeDegrees>
              <LongitudeDegrees>-1.82387505657970905303955078125</LongitudeDegrees>
            </Position>
            <AltitudeMeters>472.20001220703125</AltitudeMeters>
            <DistanceMeters>6102.5689648065</DistanceMeters>
          </Trackpoint>
          <Trackpoint>
            <Time>2021-08-09T08:26:32.000Z</Time>
            <Position>
              <LatitudeDegrees>42.95555599965155124664306640625</LatitudeDegrees>
              <LongitudeDegrees>-1.8238731287419795989990234375</LongitudeDegrees>
            </Position>
            <AltitudeMeters>472.20001220703125</AltitudeMeters>
            <DistanceMeters>6103.7859005225</DistanceMeters>
          </Trackpoint>
          <Trackpoint>
            <Time>2021-08-09T08:26:33.000Z</Time>
            <Position>
              <LatitudeDegrees>42.95554828830063343048095703125</LatitudeDegrees>
              <LongitudeDegrees>-1.82387421838939189910888671875</LongitudeDegrees>
            </Position>
            <AltitudeMeters>472.20001220703125</AltitudeMeters>
            <DistanceMeters>6104.6464040195</DistanceMeters>
          </Trackpoint>
          <Trackpoint>
            <Time>2021-08-09T08:26:34.000Z</Time>
            <Position>
              <LatitudeDegrees>42.95553621836006641387939453125</LatitudeDegrees>
              <LongitudeDegrees>-1.823876313865184783935546875</LongitudeDegrees>
            </Position>
            <AltitudeMeters>472.20001220703125</AltitudeMeters>
            <DistanceMeters>6106.0003262913</DistanceMeters>
          </Trackpoint>
          <Trackpoint>
            <Time>2021-08-09T08:26:35.000Z</Time>
            <Position>
              <LatitudeDegrees>42.9555245675146579742431640625</LatitudeDegrees>
              <LongitudeDegrees>-1.823878325521945953369140625</LongitudeDegrees>
            </Position>
            <AltitudeMeters>472.399993896484375</AltitudeMeters>
            <DistanceMeters>6107.3067276262</DistanceMeters>
          </Trackpoint>
          <Trackpoint>
            <Time>2021-08-09T08:26:36.000Z</Time>
            <Position>
              <LatitudeDegrees>42.9555171914398670196533203125</LatitudeDegrees>
              <LongitudeDegrees>-1.823879666626453399658203125</LongitudeDegrees>
            </Position>
            <AltitudeMeters>472.399993896484375</AltitudeMeters>
            <DistanceMeters>6108.135151316</DistanceMeters>
          </Trackpoint>
          <Trackpoint>
            <Time>2021-08-09T08:26:41.000Z</Time>
            <Position>
              <LatitudeDegrees>42.95543077401816844940185546875</LatitudeDegrees>
              <LongitudeDegrees>-1.8239012919366359710693359375</LongitudeDegrees>
            </Position>
            <AltitudeMeters>472.20001220703125</AltitudeMeters>
            <DistanceMeters>6117.9141343685</DistanceMeters>
          </Trackpoint>
          <Trackpoint>
            <Time>2021-08-09T08:26:42.000Z</Time>
            <Position>
              <LatitudeDegrees>42.95541199855506420135498046875</LatitudeDegrees>
              <LongitudeDegrees>-1.823897100985050201416015625</LongitudeDegrees>
            </Position>
            <AltitudeMeters>472.20001220703125</AltitudeMeters>
            <DistanceMeters>6120.0304797837</DistanceMeters>
          </Trackpoint>
          <Trackpoint>
            <Time>2021-08-09T08:26:48.000Z</Time>
            <Position>
              <LatitudeDegrees>42.955292053520679473876953125</LatitudeDegrees>
              <LongitudeDegrees>-1.8238778226077556610107421875</LongitudeDegrees>
            </Position>
            <AltitudeMeters>472.20001220703125</AltitudeMeters>
            <DistanceMeters>6133.4726458905</DistanceMeters>
          </Trackpoint>
          <Trackpoint>
            <Time>2021-08-09T08:26:51.000Z</Time>
            <Position>
              <LatitudeDegrees>42.95522977598011493682861328125</LatitudeDegrees>
              <LongitudeDegrees>-1.8238637410104274749755859375</LongitudeDegrees>
            </Position>
            <AltitudeMeters>472.20001220703125</AltitudeMeters>
            <DistanceMeters>6140.498841726</DistanceMeters>
          </Trackpoint>
          <Trackpoint>
            <Time>2021-08-09T08:26:54.000Z</Time>
            <Position>
              <LatitudeDegrees>42.955167330801486968994140625</LatitudeDegrees>
              <LongitudeDegrees>-1.823852173984050750732421875</LongitudeDegrees>
            </Position>
            <AltitudeMeters>472.399993896484375</AltitudeMeters>
            <DistanceMeters>6147.512817522</DistanceMeters>
          </Trackpoint>
          <Trackpoint>
            <Time>2021-08-09T08:27:02.000Z</Time>
            <Position>
              <LatitudeDegrees>42.95497228391468524932861328125</LatitudeDegrees>
              <LongitudeDegrees>-1.82383096776902675628662109375</LongitudeDegrees>
            </Position>
            <AltitudeMeters>472.399993896484375</AltitudeMeters>
            <DistanceMeters>6169.2907346628</DistanceMeters>
          </Trackpoint>
          <Trackpoint>
            <Time>2021-08-09T08:27:10.000Z</Time>
            <Position>
              <LatitudeDegrees>42.95474966056644916534423828125</LatitudeDegrees>
              <LongitudeDegrees>-1.8237309716641902923583984375</LongitudeDegrees>
            </Position>
            <AltitudeMeters>472.399993896484375</AltitudeMeters>
            <DistanceMeters>6195.3737935188</DistanceMeters>
          </Trackpoint>
          <Trackpoint>
            <Time>2021-08-09T08:27:17.000Z</Time>
            <Position>
              <LatitudeDegrees>42.95453977771103382110595703125</LatitudeDegrees>
              <LongitudeDegrees>-1.823605410754680633544921875</LongitudeDegrees>
            </Position>
            <AltitudeMeters>472.600006103515625</AltitudeMeters>
            <DistanceMeters>6220.8753237737</DistanceMeters>
          </Trackpoint>
          <Trackpoint>
            <Time>2021-08-09T08:27:22.000Z</Time>
            <Position>
              <LatitudeDegrees>42.95439460314810276031494140625</LatitudeDegrees>
              <LongitudeDegrees>-1.8235492520034313201904296875</LongitudeDegrees>
            </Position>
            <AltitudeMeters>472.79998779296875</AltitudeMeters>
            <DistanceMeters>6237.6687247819</DistanceMeters>
          </Trackpoint>
          <Trackpoint>
            <Time>2021-08-09T08:27:23.000Z</Time>
            <Position>
              <LatitudeDegrees>42.9543678648769855499267578125</LatitudeDegrees>
              <LongitudeDegrees>-1.82353424839675426483154296875</LongitudeDegrees>
            </Position>
            <AltitudeMeters>473</AltitudeMeters>
            <DistanceMeters>6240.88703143</DistanceMeters>
          </Trackpoint>
          <Trackpoint>
            <Time>2021-08-09T08:27:24.000Z</Time>
            <Position>
              <LatitudeDegrees>42.9543395340442657470703125</LatitudeDegrees>
              <LongitudeDegrees>-1.82352134026587009429931640625</LongitudeDegrees>
            </Position>
            <AltitudeMeters>473</AltitudeMeters>
            <DistanceMeters>6244.2116086313</DistanceMeters>
          </Trackpoint>
          <Trackpoint>
            <Time>2021-08-09T08:27:25.000Z</Time>
            <Position>
              <LatitudeDegrees>42.9543112032115459442138671875</LatitudeDegrees>
              <LongitudeDegrees>-1.82351253926753997802734375</LongitudeDegrees>
            </Position>
            <AltitudeMeters>473</AltitudeMeters>
            <DistanceMeters>6247.4453106154</DistanceMeters>
          </Trackpoint>
          <Trackpoint>
            <Time>2021-08-09T08:27:26.000Z</Time>
            <Position>
              <LatitudeDegrees>42.9542832076549530029296875</LatitudeDegrees>
              <LongitudeDegrees>-1.82350524701178073883056640625</LongitudeDegrees>
            </Position>
            <AltitudeMeters>473</AltitudeMeters>
            <DistanceMeters>6250.6169829123</DistanceMeters>
          </Trackpoint>
          <Trackpoint>
            <Time>2021-08-09T08:27:27.000Z</Time>
            <Position>
              <LatitudeDegrees>42.95425630174577236175537109375</LatitudeDegrees>
              <LongitudeDegrees>-1.8234989605844020843505859375</LongitudeDegrees>
            </Position>
            <AltitudeMeters>473</AltitudeMeters>
            <DistanceMeters>6253.6548667359</DistanceMeters>
          </Trackpoint>
          <Trackpoint>
            <Time>2021-08-09T08:27:28.000Z</Time>
            <Position>
              <LatitudeDegrees>42.95423015020787715911865234375</LatitudeDegrees>
              <LongitudeDegrees>-1.82349468581378459930419921875</LongitudeDegrees>
            </Position>
            <AltitudeMeters>473</AltitudeMeters>
            <DistanceMeters>6256.5868682322</DistanceMeters>
          </Trackpoint>
          <Trackpoint>
            <Time>2021-08-09T08:27:29.000Z</Time>
            <Position>
              <LatitudeDegrees>42.95420533977448940277099609375</LatitudeDegrees>
              <LongitudeDegrees>-1.82348839938640594482421875</LongitudeDegrees>
            </Position>
            <AltitudeMeters>473</AltitudeMeters>
            <DistanceMeters>6259.3961896471</DistanceMeters>
          </Trackpoint>
          <Trackpoint>
            <Time>2021-08-09T08:27:30.000Z</Time>
            <Position>
              <LatitudeDegrees>42.9541812837123870849609375</LatitudeDegrees>
              <LongitudeDegrees>-1.8234835378825664520263671875</LongitudeDegrees>
            </Position>
            <AltitudeMeters>473</AltitudeMeters>
            <DistanceMeters>6262.1023662851</DistanceMeters>
          </Trackpoint>
          <Trackpoint>
            <Time>2021-08-09T08:27:31.000Z</Time>
            <Position>
              <LatitudeDegrees>42.95415789820253849029541015625</LatitudeDegrees>
              <LongitudeDegrees>-1.82348244823515415191650390625</LongitudeDegrees>
            </Position>
            <AltitudeMeters>473.20001220703125</AltitudeMeters>
            <DistanceMeters>6264.706514401</DistanceMeters>
          </Trackpoint>
          <Trackpoint>
            <Time>2021-08-09T08:27:33.000Z</Time>
            <Position>
              <LatitudeDegrees>42.95412252657115459442138671875</LatitudeDegrees>
              <LongitudeDegrees>-1.8234691210091114044189453125</LongitudeDegrees>
            </Position>
            <AltitudeMeters>473.20001220703125</AltitudeMeters>
            <DistanceMeters>6268.7915580076</DistanceMeters>
          </Trackpoint>
          <Trackpoint>
            <Time>2021-08-09T08:27:34.000Z</Time>
            <Position>
              <LatitudeDegrees>42.954109199345111846923828125</LatitudeDegrees>
              <LongitudeDegrees>-1.823459230363368988037109375</LongitudeDegrees>
            </Position>
            <AltitudeMeters>473.20001220703125</AltitudeMeters>
            <DistanceMeters>6270.4754356764</DistanceMeters>
          </Trackpoint>
          <Trackpoint>
            <Time>2021-08-09T08:27:35.000Z</Time>
            <Position>
              <LatitudeDegrees>42.9540981352329254150390625</LatitudeDegrees>
              <LongitudeDegrees>-1.8234513513743877410888671875</LongitudeDegrees>
            </Position>
            <AltitudeMeters>473.20001220703125</AltitudeMeters>
            <DistanceMeters>6271.8655566636</DistanceMeters>
          </Trackpoint>
          <Trackpoint>
            <Time>2021-08-09T08:27:36.000Z</Time>
            <Position>
              <LatitudeDegrees>42.954089753329753875732421875</LatitudeDegrees>
              <LongitudeDegrees>-1.82344154454767704010009765625</LongitudeDegrees>
            </Position>
            <AltitudeMeters>473.20001220703125</AltitudeMeters>
            <DistanceMeters>6273.0898902332</DistanceMeters>
          </Trackpoint>
          <Trackpoint>
            <Time>2021-08-09T08:27:37.000Z</Time>
            <Position>
              <LatitudeDegrees>42.954079695045948028564453125</LatitudeDegrees>
              <LongitudeDegrees>-1.82343718595802783966064453125</LongitudeDegrees>
            </Position>
            <AltitudeMeters>473.20001220703125</AltitudeMeters>
            <DistanceMeters>6274.265305775</DistanceMeters>
          </Trackpoint>
          <Trackpoint>
            <Time>2021-08-09T08:27:38.000Z</Time>
            <Position>
              <LatitudeDegrees>42.9540708102285861968994140625</LatitudeDegrees>
              <LongitudeDegrees>-1.82343475520610809326171875</LongitudeDegrees>
            </Position>
            <AltitudeMeters>473.20001220703125</AltitudeMeters>
            <DistanceMeters>6275.2709739915</DistanceMeters>
          </Trackpoint>
          <Trackpoint>
            <Time>2021-08-09T08:27:39.000Z</Time>
            <Position>
              <LatitudeDegrees>42.9540641047060489654541015625</LatitudeDegrees>
              <LongitudeDegrees>-1.82343483902513980865478515625</LongitudeDegrees>
            </Position>
            <AltitudeMeters>473</AltitudeMeters>
            <DistanceMeters>6276.0192150887</DistanceMeters>
          </Trackpoint>
          <Trackpoint>
            <Time>2021-08-09T08:27:40.000Z</Time>
            <Position>
              <LatitudeDegrees>42.95405714772641658782958984375</LatitudeDegrees>
              <LongitudeDegrees>-1.8234379403293132781982421875</LongitudeDegrees>
            </Position>
            <AltitudeMeters>473</AltitudeMeters>
            <DistanceMeters>6276.8366657948</DistanceMeters>
          </Trackpoint>
          <Trackpoint>
            <Time>2021-08-09T08:27:41.000Z</Time>
            <Position>
              <LatitudeDegrees>42.95404558070003986358642578125</LatitudeDegrees>
              <LongitudeDegrees>-1.82344389148056507110595703125</LongitudeDegrees>
            </Position>
            <AltitudeMeters>473</AltitudeMeters>
            <DistanceMeters>6278.2137337137</DistanceMeters>
          </Trackpoint>
          <Trackpoint>
            <Time>2021-08-09T08:27:42.000Z</Time>
            <Position>
              <LatitudeDegrees>42.9540364444255828857421875</LatitudeDegrees>
              <LongitudeDegrees>-1.82344414293766021728515625</LongitudeDegrees>
            </Position>
            <AltitudeMeters>472.79998779296875</AltitudeMeters>
            <DistanceMeters>6279.2327816964</DistanceMeters>
          </Trackpoint>
          <Trackpoint>
            <Time>2021-08-09T08:27:43.000Z</Time>
            <Position>
              <LatitudeDegrees>42.9540221951901912689208984375</LatitudeDegrees>
              <LongitudeDegrees>-1.82344422675669193267822265625</LongitudeDegrees>
            </Position>
            <AltitudeMeters>472.600006103515625</AltitudeMeters>
            <DistanceMeters>6280.8200407577</DistanceMeters>
          </Trackpoint>
          <Trackpoint>
            <Time>2021-08-09T08:27:44.000Z</Time>
            <Position>
              <LatitudeDegrees>42.95400987379252910614013671875</LatitudeDegrees>
              <LongitudeDegrees>-1.82343299500644207000732421875</LongitudeDegrees>
            </Position>
            <AltitudeMeters>472.600006103515625</AltitudeMeters>
            <DistanceMeters>6282.4714289877</DistanceMeters>
          </Trackpoint>
          <Trackpoint>
            <Time>2021-08-09T08:27:46.000Z</Time>
            <Position>
              <LatitudeDegrees>42.954018674790859222412109375</LatitudeDegrees>
              <LongitudeDegrees>-1.8233950249850749969482421875</LongitudeDegrees>
            </Position>
            <AltitudeMeters>472.399993896484375</AltitudeMeters>
            <DistanceMeters>6285.7162817014</DistanceMeters>
          </Trackpoint>
          <Trackpoint>
            <Time>2021-08-09T08:27:48.000Z</Time>
            <Position>
              <LatitudeDegrees>42.95404851436614990234375</LatitudeDegrees>
              <LongitudeDegrees>-1.8233735673129558563232421875</LongitudeDegrees>
            </Position>
            <AltitudeMeters>472.399993896484375</AltitudeMeters>
            <DistanceMeters>6289.4719413513</DistanceMeters>
          </Trackpoint>
          <Trackpoint>
            <Time>2021-08-09T08:27:49.000Z</Time>
            <Position>
              <LatitudeDegrees>42.9540605843067169189453125</LatitudeDegrees>
              <LongitudeDegrees>-1.82336476631462574005126953125</LongitudeDegrees>
            </Position>
            <AltitudeMeters>472.399993896484375</AltitudeMeters>
            <DistanceMeters>6290.998296396</DistanceMeters>
          </Trackpoint>
          <Trackpoint>
            <Time>2021-08-09T08:27:50.000Z</Time>
            <Position>
              <LatitudeDegrees>42.95407592318952083587646484375</LatitudeDegrees>
              <LongitudeDegrees>-1.82335889898240566253662109375</LongitudeDegrees>
            </Position>
            <AltitudeMeters>472.399993896484375</AltitudeMeters>
            <DistanceMeters>6292.7709967662</DistanceMeters>
          </Trackpoint>
          <Trackpoint>
            <Time>2021-08-09T08:27:54.000Z</Time>
            <Position>
              <LatitudeDegrees>42.95413367450237274169921875</LatitudeDegrees>
              <LongitudeDegrees>-1.8233309872448444366455078125</LongitudeDegrees>
            </Position>
            <AltitudeMeters>472.600006103515625</AltitudeMeters>
            <DistanceMeters>6299.5897843131</DistanceMeters>
          </Trackpoint>
          <Trackpoint>
            <Time>2021-08-09T08:27:55.000Z</Time>
            <Position>
              <LatitudeDegrees>42.95413861982524394989013671875</LatitudeDegrees>
              <LongitudeDegrees>-1.823325790464878082275390625</LongitudeDegrees>
            </Position>
            <AltitudeMeters>472.79998779296875</AltitudeMeters>
            <DistanceMeters>6300.2880851995</DistanceMeters>
          </Trackpoint>
          <Trackpoint>
            <Time>2021-08-09T08:27:56.000Z</Time>
            <Position>
              <LatitudeDegrees>42.95414247550070285797119140625</LatitudeDegrees>
              <LongitudeDegrees>-1.82332503609359264373779296875</LongitudeDegrees>
            </Position>
            <AltitudeMeters>472.79998779296875</AltitudeMeters>
            <DistanceMeters>6300.7235523112</DistanceMeters>
          </Trackpoint>
          <Trackpoint>
            <Time>2021-08-09T08:28:01.000Z</Time>
            <Position>
              <LatitudeDegrees>42.95414247550070285797119140625</LatitudeDegrees>
              <LongitudeDegrees>-1.82332503609359264373779296875</LongitudeDegrees>
            </Position>
            <AltitudeMeters>473.79998779296875</AltitudeMeters>
            <DistanceMeters>6300.7235523112</DistanceMeters>
          </Trackpoint>
          <Trackpoint>
            <Time>2021-08-09T08:28:04.000Z</Time>
            <Position>
              <LatitudeDegrees>42.95414247550070285797119140625</LatitudeDegrees>
              <LongitudeDegrees>-1.82332503609359264373779296875</LongitudeDegrees>
            </Position>
            <AltitudeMeters>474.399993896484375</AltitudeMeters>
            <DistanceMeters>6300.7235523112</DistanceMeters>
          </Trackpoint>
          <Trackpoint>
            <Time>2021-08-09T08:28:19.000Z</Time>
            <Position>
              <LatitudeDegrees>42.95411397702991962432861328125</LatitudeDegrees>
              <LongitudeDegrees>-1.8233648501336574554443359375</LongitudeDegrees>
            </Position>
            <AltitudeMeters>474.399993896484375</AltitudeMeters>
            <DistanceMeters>6305.2610157316</DistanceMeters>
          </Trackpoint>
          <Trackpoint>
            <Time>2021-08-09T08:28:20.000Z</Time>
            <Position>
              <LatitudeDegrees>42.95411397702991962432861328125</LatitudeDegrees>
              <LongitudeDegrees>-1.8234003894031047821044921875</LongitudeDegrees>
            </Position>
            <AltitudeMeters>474.399993896484375</AltitudeMeters>
            <DistanceMeters>6308.1558233142</DistanceMeters>
          </Trackpoint>
          <Trackpoint>
            <Time>2021-08-09T08:28:22.000Z</Time>
            <Position>
              <LatitudeDegrees>42.95414817519485950469970703125</LatitudeDegrees>
              <LongitudeDegrees>-1.8234553746879100799560546875</LongitudeDegrees>
            </Position>
            <AltitudeMeters>474.399993896484375</AltitudeMeters>
            <DistanceMeters>6314.0336692185</DistanceMeters>
          </Trackpoint>
          <Trackpoint>
            <Time>2021-08-09T08:28:24.000Z</Time>
            <Position>
              <LatitudeDegrees>42.95421279966831207275390625</LatitudeDegrees>
              <LongitudeDegrees>-1.823476664721965789794921875</LongitudeDegrees>
            </Position>
            <AltitudeMeters>474</AltitudeMeters>
            <DistanceMeters>6321.4323395992</DistanceMeters>
          </Trackpoint>
          <Trackpoint>
            <Time>2021-08-09T08:28:25.000Z</Time>
            <Position>
              <LatitudeDegrees>42.95425160787999629974365234375</LatitudeDegrees>
              <LongitudeDegrees>-1.8234850466251373291015625</LongitudeDegrees>
            </Position>
            <AltitudeMeters>473.600006103515625</AltitudeMeters>
            <DistanceMeters>6325.8046012373</DistanceMeters>
          </Trackpoint>
          <Trackpoint>
            <Time>2021-08-09T08:28:26.000Z</Time>
            <Position>
              <LatitudeDegrees>42.95429301448166370391845703125</LatitudeDegrees>
              <LongitudeDegrees>-1.82349376380443572998046875</LongitudeDegrees>
            </Position>
            <AltitudeMeters>473.399993896484375</AltitudeMeters>
            <DistanceMeters>6330.4676929239</DistanceMeters>
          </Trackpoint>
          <Trackpoint>
            <Time>2021-08-09T08:28:27.000Z</Time>
            <Position>
              <LatitudeDegrees>42.9543363489210605621337890625</LatitudeDegrees>
              <LongitudeDegrees>-1.82350759394466876983642578125</LongitudeDegrees>
            </Position>
            <AltitudeMeters>473.399993896484375</AltitudeMeters>
            <DistanceMeters>6335.420034554</DistanceMeters>
          </Trackpoint>
          <Trackpoint>
            <Time>2021-08-09T08:28:28.000Z</Time>
            <Position>
              <LatitudeDegrees>42.9543802700936794281005859375</LatitudeDegrees>
              <LongitudeDegrees>-1.82352469302713871002197265625</LongitudeDegrees>
            </Position>
            <AltitudeMeters>473.20001220703125</AltitudeMeters>
            <DistanceMeters>6340.5037417429</DistanceMeters>
          </Trackpoint>
          <Trackpoint>
            <Time>2021-08-09T08:28:30.000Z</Time>
            <Position>
              <LatitudeDegrees>42.9544667713344097137451171875</LatitudeDegrees>
              <LongitudeDegrees>-1.8235547840595245361328125</LongitudeDegrees>
            </Position>
            <AltitudeMeters>473.20001220703125</AltitudeMeters>
            <DistanceMeters>6350.43846547</DistanceMeters>
          </Trackpoint>
          <Trackpoint>
            <Time>2021-08-09T08:28:31.000Z</Time>
            <Position>
              <LatitudeDegrees>42.95450826175510883331298828125</LatitudeDegrees>
              <LongitudeDegrees>-1.82357112877070903778076171875</LongitudeDegrees>
            </Position>
            <AltitudeMeters>473.20001220703125</AltitudeMeters>
            <DistanceMeters>6355.2436611441</DistanceMeters>
          </Trackpoint>
          <Trackpoint>
            <Time>2021-08-09T08:28:33.000Z</Time>
            <Position>
              <LatitudeDegrees>42.9545955173671245574951171875</LatitudeDegrees>
              <LongitudeDegrees>-1.82360817678272724151611328125</LongitudeDegrees>
            </Position>
            <AltitudeMeters>473</AltitudeMeters>
            <DistanceMeters>6365.4137395897</DistanceMeters>
          </Trackpoint>
          <Trackpoint>
            <Time>2021-08-09T08:28:34.000Z</Time>
            <Position>
              <LatitudeDegrees>42.95463851653039455413818359375</LatitudeDegrees>
              <LongitudeDegrees>-1.82363248430192470550537109375</LongitudeDegrees>
            </Position>
            <AltitudeMeters>473</AltitudeMeters>
            <DistanceMeters>6370.5933493352</DistanceMeters>
          </Trackpoint>
          <Trackpoint>
            <Time>2021-08-09T08:28:36.000Z</Time>
            <Position>
              <LatitudeDegrees>42.95472267083823680877685546875</LatitudeDegrees>
              <LongitudeDegrees>-1.82367875240743160247802734375</LongitudeDegrees>
            </Position>
            <AltitudeMeters>472.79998779296875</AltitudeMeters>
            <DistanceMeters>6380.6894625922</DistanceMeters>
          </Trackpoint>
          <Trackpoint>
            <Time>2021-08-09T08:28:38.000Z</Time>
            <Position>
              <LatitudeDegrees>42.95480732806026935577392578125</LatitudeDegrees>
              <LongitudeDegrees>-1.823722757399082183837890625</LongitudeDegrees>
            </Position>
            <AltitudeMeters>472.79998779296875</AltitudeMeters>
            <DistanceMeters>6390.7708072633</DistanceMeters>
          </Trackpoint>
          <Trackpoint>
            <Time>2021-08-09T08:28:41.000Z</Time>
            <Position>
              <LatitudeDegrees>42.95496440492570400238037109375</LatitudeDegrees>
              <LongitudeDegrees>-1.82375921867787837982177734375</LongitudeDegrees>
            </Position>
            <AltitudeMeters>472.600006103515625</AltitudeMeters>
            <DistanceMeters>6408.5044318854</DistanceMeters>
          </Trackpoint>
          <Trackpoint>
            <Time>2021-08-09T08:28:44.000Z</Time>
            <Position>
              <LatitudeDegrees>42.95512399636209011077880859375</LatitudeDegrees>
              <LongitudeDegrees>-1.82379819452762603759765625</LongitudeDegrees>
            </Position>
            <AltitudeMeters>472.600006103515625</AltitudeMeters>
            <DistanceMeters>6426.5487513887</DistanceMeters>
          </Trackpoint>
          <Trackpoint>
            <Time>2021-08-09T08:28:45.000Z</Time>
            <Position>
              <LatitudeDegrees>42.95517730526626110076904296875</LatitudeDegrees>
              <LongitudeDegrees>-1.82380716316401958465576171875</LongitudeDegrees>
            </Position>
            <AltitudeMeters>472.79998779296875</AltitudeMeters>
            <DistanceMeters>6432.527132655</DistanceMeters>
          </Trackpoint>
          <Trackpoint>
            <Time>2021-08-09T08:28:46.000Z</Time>
            <Position>
              <LatitudeDegrees>42.95522893778979778289794921875</LatitudeDegrees>
              <LongitudeDegrees>-1.82381722144782543182373046875</LongitudeDegrees>
            </Position>
            <AltitudeMeters>472.600006103515625</AltitudeMeters>
            <DistanceMeters>6438.3323238912</DistanceMeters>
          </Trackpoint>
          <Trackpoint>
            <Time>2021-08-09T08:28:47.000Z</Time>
            <Position>
              <LatitudeDegrees>42.95527604408562183380126953125</LatitudeDegrees>
              <LongitudeDegrees>-1.823828034102916717529296875</LongitudeDegrees>
            </Position>
            <AltitudeMeters>472.399993896484375</AltitudeMeters>
            <DistanceMeters>6443.6487267418</DistanceMeters>
          </Trackpoint>
          <Trackpoint>
            <Time>2021-08-09T08:28:50.000Z</Time>
            <Position>
              <LatitudeDegrees>42.95540546067059040069580078125</LatitudeDegrees>
              <LongitudeDegrees>-1.8238583765923976898193359375</LongitudeDegrees>
            </Position>
            <AltitudeMeters>472.399993896484375</AltitudeMeters>
            <DistanceMeters>6458.2636994823</DistanceMeters>
          </Trackpoint>
          <Trackpoint>
            <Time>2021-08-09T08:28:51.000Z</Time>
            <Position>
              <LatitudeDegrees>42.955442257225513458251953125</LatitudeDegrees>
              <LongitudeDegrees>-1.82386499829590320587158203125</LongitudeDegrees>
            </Position>
            <AltitudeMeters>472.399993896484375</AltitudeMeters>
            <DistanceMeters>6462.3938101833</DistanceMeters>
          </Trackpoint>
          <Trackpoint>
            <Time>2021-08-09T08:28:52.000Z</Time>
            <Position>
              <LatitudeDegrees>42.9554729349911212921142578125</LatitudeDegrees>
              <LongitudeDegrees>-1.823868937790393829345703125</LongitudeDegrees>
            </Position>
            <AltitudeMeters>472.399993896484375</AltitudeMeters>
            <DistanceMeters>6465.8226816493</DistanceMeters>
          </Trackpoint>
          <Trackpoint>
            <Time>2021-08-09T08:28:53.000Z</Time>
            <Position>
              <LatitudeDegrees>42.955495230853557586669921875</LatitudeDegrees>
              <LongitudeDegrees>-1.82387237437069416046142578125</LongitudeDegrees>
            </Position>
            <AltitudeMeters>472.399993896484375</AltitudeMeters>
            <DistanceMeters>6468.3224442178</DistanceMeters>
          </Trackpoint>
          <Trackpoint>
            <Time>2021-08-09T08:28:54.000Z</Time>
            <Position>
              <LatitudeDegrees>42.95550922863185405731201171875</LatitudeDegrees>
              <LongitudeDegrees>-1.82386499829590320587158203125</LongitudeDegrees>
            </Position>
            <AltitudeMeters>472.399993896484375</AltitudeMeters>
            <DistanceMeters>6469.9901562867</DistanceMeters>
          </Trackpoint>
          <Trackpoint>
            <Time>2021-08-09T08:28:55.000Z</Time>
            <Position>
              <LatitudeDegrees>42.95551828108727931976318359375</LatitudeDegrees>
              <LongitudeDegrees>-1.82385494001209735870361328125</LongitudeDegrees>
            </Position>
            <AltitudeMeters>472.399993896484375</AltitudeMeters>
            <DistanceMeters>6471.2861478834</DistanceMeters>
          </Trackpoint>
          <Trackpoint>
            <Time>2021-08-09T08:28:56.000Z</Time>
            <Position>
              <LatitudeDegrees>42.955530099570751190185546875</LatitudeDegrees>
              <LongitudeDegrees>-1.82384571991860866546630859375</LongitudeDegrees>
            </Position>
            <AltitudeMeters>472.399993896484375</AltitudeMeters>
            <DistanceMeters>6472.8006244982</DistanceMeters>
          </Trackpoint>
          <Trackpoint>
            <Time>2021-08-09T08:28:57.000Z</Time>
            <Position>
              <LatitudeDegrees>42.95554275624454021453857421875</LatitudeDegrees>
              <LongitudeDegrees>-1.82384521700441837310791015625</LongitudeDegrees>
            </Position>
            <AltitudeMeters>472.399993896484375</AltitudeMeters>
            <DistanceMeters>6474.2100984489</DistanceMeters>
          </Trackpoint>
          <Trackpoint>
            <Time>2021-08-09T08:28:58.000Z</Time>
            <Position>
              <LatitudeDegrees>42.95554711483418941497802734375</LatitudeDegrees>
              <LongitudeDegrees>-1.823856532573699951171875</LongitudeDegrees>
            </Position>
            <AltitudeMeters>472.399993896484375</AltitudeMeters>
            <DistanceMeters>6475.2510639494</DistanceMeters>
          </Trackpoint>
          <Trackpoint>
            <Time>2021-08-09T08:28:59.000Z</Time>
            <Position>
              <LatitudeDegrees>42.95554577372968196868896484375</LatitudeDegrees>
              <LongitudeDegrees>-1.82386868633329868316650390625</LongitudeDegrees>
            </Position>
            <AltitudeMeters>472.399993896484375</AltitudeMeters>
            <DistanceMeters>6476.2567321659</DistanceMeters>
          </Trackpoint>
          <Trackpoint>
            <Time>2021-08-09T08:29:01.000Z</Time>
            <Position>
              <LatitudeDegrees>42.9555396549403667449951171875</LatitudeDegrees>
              <LongitudeDegrees>-1.82388645596802234649658203125</LongitudeDegrees>
            </Position>
            <AltitudeMeters>472.600006103515625</AltitudeMeters>
            <DistanceMeters>6477.8581508214</DistanceMeters>
          </Trackpoint>
          <Trackpoint>
            <Time>2021-08-09T08:29:03.000Z</Time>
            <Position>
              <LatitudeDegrees>42.95551367104053497314453125</LatitudeDegrees>
              <LongitudeDegrees>-1.8238935805857181549072265625</LongitudeDegrees>
            </Position>
            <AltitudeMeters>472.600006103515625</AltitudeMeters>
            <DistanceMeters>6480.8085734508</DistanceMeters>
          </Trackpoint>
          <Trackpoint>
            <Time>2021-08-09T08:29:04.000Z</Time>
            <Position>
              <LatitudeDegrees>42.9555034451186656951904296875</LatitudeDegrees>
              <LongitudeDegrees>-1.82388595305383205413818359375</LongitudeDegrees>
            </Position>
            <AltitudeMeters>472.600006103515625</AltitudeMeters>
            <DistanceMeters>6482.1045650474</DistanceMeters>
          </Trackpoint>
          <Trackpoint>
            <Time>2021-08-09T08:29:05.000Z</Time>
            <Position>
              <LatitudeDegrees>42.95549833215773105621337890625</LatitudeDegrees>
              <LongitudeDegrees>-1.82387572713196277618408203125</LongitudeDegrees>
            </Position>
            <AltitudeMeters>472.600006103515625</AltitudeMeters>
            <DistanceMeters>6483.1102332639</DistanceMeters>
          </Trackpoint>
          <Trackpoint>
            <Time>2021-08-09T08:29:07.000Z</Time>
            <Position>
              <LatitudeDegrees>42.9555047862231731414794921875</LatitudeDegrees>
              <LongitudeDegrees>-1.82384571991860866546630859375</LongitudeDegrees>
            </Position>
            <AltitudeMeters>472.600006103515625</AltitudeMeters>
            <DistanceMeters>6485.66006758</DistanceMeters>
          </Trackpoint>
          <Trackpoint>
            <Time>2021-08-09T08:29:09.000Z</Time>
            <Position>
              <LatitudeDegrees>42.95552548952400684356689453125</LatitudeDegrees>
              <LongitudeDegrees>-1.8238463066518306732177734375</LongitudeDegrees>
            </Position>
            <AltitudeMeters>472.600006103515625</AltitudeMeters>
            <DistanceMeters>6487.9643429432</DistanceMeters>
          </Trackpoint>
          <Trackpoint>
            <Time>2021-08-09T08:29:10.000Z</Time>
            <Position>
              <LatitudeDegrees>42.95553110539913177490234375</LatitudeDegrees>
              <LongitudeDegrees>-1.82385913096368312835693359375</LongitudeDegrees>
            </Position>
            <AltitudeMeters>472.600006103515625</AltitudeMeters>
            <DistanceMeters>6489.1812786591</DistanceMeters>
          </Trackpoint>
          <Trackpoint>
            <Time>2021-08-09T08:29:13.000Z</Time>
            <Position>
              <LatitudeDegrees>42.9555047862231731414794921875</LatitudeDegrees>
              <LongitudeDegrees>-1.82388779707252979278564453125</LongitudeDegrees>
            </Position>
            <AltitudeMeters>472.600006103515625</AltitudeMeters>
            <DistanceMeters>6492.9273083966</DistanceMeters>
          </Trackpoint>
          <Trackpoint>
            <Time>2021-08-09T08:29:14.000Z</Time>
            <Position>
              <LatitudeDegrees>42.955497913062572479248046875</LatitudeDegrees>
              <LongitudeDegrees>-1.8238865397870540618896484375</LongitudeDegrees>
            </Position>
            <AltitudeMeters>472.600006103515625</AltitudeMeters>
            <DistanceMeters>6493.6993090736</DistanceMeters>
          </Trackpoint>
          <Trackpoint>
            <Time>2021-08-09T08:29:18.000Z</Time>
            <Position>
              <LatitudeDegrees>42.955497913062572479248046875</LatitudeDegrees>
              <LongitudeDegrees>-1.8238865397870540618896484375</LongitudeDegrees>
            </Position>
            <AltitudeMeters>472.600006103515625</AltitudeMeters>
            <DistanceMeters>6493.6993090736</DistanceMeters>
          </Trackpoint>
          <Trackpoint>
            <Time>2021-08-09T08:29:37.000Z</Time>
            <Position>
              <LatitudeDegrees>42.9554957337677478790283203125</LatitudeDegrees>
              <LongitudeDegrees>-1.8238858692348003387451171875</LongitudeDegrees>
            </Position>
            <AltitudeMeters>472.399993896484375</AltitudeMeters>
            <DistanceMeters>6493.9680852101</DistanceMeters>
          </Trackpoint>
          <Trackpoint>
            <Time>2021-08-09T08:29:40.000Z</Time>
            <Position>
              <LatitudeDegrees>42.95542775653302669525146484375</LatitudeDegrees>
              <LongitudeDegrees>-1.82386768050491809844970703125</LongitudeDegrees>
            </Position>
            <AltitudeMeters>472.20001220703125</AltitudeMeters>
            <DistanceMeters>6501.6775575107</DistanceMeters>
          </Trackpoint>
          <Trackpoint>
            <Time>2021-08-09T08:29:45.000Z</Time>
            <Position>
              <LatitudeDegrees>42.95527202077209949493408203125</LatitudeDegrees>
              <LongitudeDegrees>-1.82385963387787342071533203125</LongitudeDegrees>
            </Position>
            <AltitudeMeters>472.20001220703125</AltitudeMeters>
            <DistanceMeters>6519.0237725788</DistanceMeters>
          </Trackpoint>
          <Trackpoint>
            <Time>2021-08-09T08:29:47.000Z</Time>
            <Position>
              <LatitudeDegrees>42.955211587250232696533203125</LatitudeDegrees>
              <LongitudeDegrees>-1.82384404353797435760498046875</LongitudeDegrees>
            </Position>
            <AltitudeMeters>472.20001220703125</AltitudeMeters>
            <DistanceMeters>6525.8683351354</DistanceMeters>
          </Trackpoint>
          <Trackpoint>
            <Time>2021-08-09T08:29:54.000Z</Time>
            <Position>
              <LatitudeDegrees>42.95499424450099468231201171875</LatitudeDegrees>
              <LongitudeDegrees>-1.82381118647754192352294921875</LongitudeDegrees>
            </Position>
            <AltitudeMeters>472.20001220703125</AltitudeMeters>
            <DistanceMeters>6550.2066784351</DistanceMeters>
          </Trackpoint>
          <Trackpoint>
            <Time>2021-08-09T08:30:02.000Z</Time>
            <Position>
              <LatitudeDegrees>42.9547311365604400634765625</LatitudeDegrees>
              <LongitudeDegrees>-1.82369501329958438873291015625</LongitudeDegrees>
            </Position>
            <AltitudeMeters>472.399993896484375</AltitudeMeters>
            <DistanceMeters>6580.9822796149</DistanceMeters>
          </Trackpoint>
          <Trackpoint>
            <Time>2021-08-09T08:30:10.000Z</Time>
            <Position>
              <LatitudeDegrees>42.95444355346262454986572265625</LatitudeDegrees>
              <LongitudeDegrees>-1.8235549516975879669189453125</LongitudeDegrees>
            </Position>
            <AltitudeMeters>472.600006103515625</AltitudeMeters>
            <DistanceMeters>6614.9635988263</DistanceMeters>
          </Trackpoint>
          <Trackpoint>
            <Time>2021-08-09T08:30:13.000Z</Time>
            <Position>
              <LatitudeDegrees>42.95433056540787220001220703125</LatitudeDegrees>
              <LongitudeDegrees>-1.82352905161678791046142578125</LongitudeDegrees>
            </Position>
            <AltitudeMeters>472.600006103515625</AltitudeMeters>
            <DistanceMeters>6627.7148950918</DistanceMeters>
          </Trackpoint>
          <Trackpoint>
            <Time>2021-08-09T08:30:14.000Z</Time>
            <Position>
              <LatitudeDegrees>42.95429117046296596527099609375</LatitudeDegrees>
              <LongitudeDegrees>-1.823520921170711517333984375</LongitudeDegrees>
            </Position>
            <AltitudeMeters>472.600006103515625</AltitudeMeters>
            <DistanceMeters>6632.149701344</DistanceMeters>
          </Trackpoint>
          <Trackpoint>
            <Time>2021-08-09T08:30:15.000Z</Time>
            <Position>
              <LatitudeDegrees>42.95424976386129856109619140625</LatitudeDegrees>
              <LongitudeDegrees>-1.823518574237823486328125</LongitudeDegrees>
            </Position>
            <AltitudeMeters>472.600006103515625</AltitudeMeters>
            <DistanceMeters>6636.7621692412</DistanceMeters>
          </Trackpoint>
          <Trackpoint>
            <Time>2021-08-09T08:30:17.000Z</Time>
            <Position>
              <LatitudeDegrees>42.9541770927608013153076171875</LatitudeDegrees>
              <LongitudeDegrees>-1.82349904440343379974365234375</LongitudeDegrees>
            </Position>
            <AltitudeMeters>472.79998779296875</AltitudeMeters>
            <DistanceMeters>6645.0054286233</DistanceMeters>
          </Trackpoint>
          <Trackpoint>
            <Time>2021-08-09T08:30:18.000Z</Time>
            <Position>
              <LatitudeDegrees>42.95414247550070285797119140625</LatitudeDegrees>
              <LongitudeDegrees>-1.8234889023005962371826171875</LongitudeDegrees>
            </Position>
            <AltitudeMeters>472.79998779296875</AltitudeMeters>
            <DistanceMeters>6648.9464604023</DistanceMeters>
          </Trackpoint>
          <Trackpoint>
            <Time>2021-08-09T08:30:19.000Z</Time>
            <Position>
              <LatitudeDegrees>42.95411246828734874725341796875</LatitudeDegrees>
              <LongitudeDegrees>-1.82347892783582210540771484375</LongitudeDegrees>
            </Position>
            <AltitudeMeters>472.79998779296875</AltitudeMeters>
            <DistanceMeters>6652.3832234126</DistanceMeters>
          </Trackpoint>
          <Trackpoint>
            <Time>2021-08-09T08:30:20.000Z</Time>
            <Position>
              <LatitudeDegrees>42.9540860652923583984375</LatitudeDegrees>
              <LongitudeDegrees>-1.82346702553331851959228515625</LongitudeDegrees>
            </Position>
            <AltitudeMeters>472.79998779296875</AltitudeMeters>
            <DistanceMeters>6655.4770690827</DistanceMeters>
          </Trackpoint>
          <Trackpoint>
            <Time>2021-08-09T08:30:21.000Z</Time>
            <Position>
              <LatitudeDegrees>42.95406888239085674285888671875</LatitudeDegrees>
              <LongitudeDegrees>-1.82345763780176639556884765625</LongitudeDegrees>
            </Position>
            <AltitudeMeters>472.79998779296875</AltitudeMeters>
            <DistanceMeters>6657.5371991584</DistanceMeters>
          </Trackpoint>
          <Trackpoint>
            <Time>2021-08-09T08:30:22.000Z</Time>
            <Position>
              <LatitudeDegrees>42.95405597425997257232666015625</LatitudeDegrees>
              <LongitudeDegrees>-1.82344305329024791717529296875</LongitudeDegrees>
            </Position>
            <AltitudeMeters>472.600006103515625</AltitudeMeters>
            <DistanceMeters>6659.4017579349</DistanceMeters>
          </Trackpoint>
          <Trackpoint>
            <Time>2021-08-09T08:30:23.000Z</Time>
            <Position>
              <LatitudeDegrees>42.95404423959553241729736328125</LatitudeDegrees>
              <LongitudeDegrees>-1.82343316264450550079345703125</LongitudeDegrees>
            </Position>
            <AltitudeMeters>472.600006103515625</AltitudeMeters>
            <DistanceMeters>6660.9398996801</DistanceMeters>
          </Trackpoint>
          <Trackpoint>
            <Time>2021-08-09T08:30:24.000Z</Time>
            <Position>
              <LatitudeDegrees>42.954032421112060546875</LatitudeDegrees>
              <LongitudeDegrees>-1.82341438718140125274658203125</LongitudeDegrees>
            </Position>
            <AltitudeMeters>472.600006103515625</AltitudeMeters>
            <DistanceMeters>6662.957959262</DistanceMeters>
          </Trackpoint>
          <Trackpoint>
            <Time>2021-08-09T08:30:25.000Z</Time>
            <Position>
              <LatitudeDegrees>42.95403133146464824676513671875</LatitudeDegrees>
              <LongitudeDegrees>-1.82339795865118503570556640625</LongitudeDegrees>
            </Position>
            <AltitudeMeters>472.600006103515625</AltitudeMeters>
            <DistanceMeters>6664.2984760326</DistanceMeters>
          </Trackpoint>
          <Trackpoint>
            <Time>2021-08-09T08:30:26.000Z</Time>
            <Position>
              <LatitudeDegrees>42.95404122211039066314697265625</LatitudeDegrees>
              <LongitudeDegrees>-1.8233775906264781951904296875</LongitudeDegrees>
            </Position>
            <AltitudeMeters>472.399993896484375</AltitudeMeters>
            <DistanceMeters>6666.2917732095</DistanceMeters>
          </Trackpoint>
          <Trackpoint>
            <Time>2021-08-09T08:30:27.000Z</Time>
            <Position>
              <LatitudeDegrees>42.95406150631606578826904296875</LatitudeDegrees>
              <LongitudeDegrees>-1.823364682495594024658203125</LongitudeDegrees>
            </Position>
            <AltitudeMeters>472.399993896484375</AltitudeMeters>
            <DistanceMeters>6668.7843005601</DistanceMeters>
          </Trackpoint>
          <Trackpoint>
            <Time>2021-08-09T08:30:29.000Z</Time>
            <Position>
              <LatitudeDegrees>42.9541026614606380462646484375</LatitudeDegrees>
              <LongitudeDegrees>-1.8233428895473480224609375</LongitudeDegrees>
            </Position>
            <AltitudeMeters>472.399993896484375</AltitudeMeters>
            <DistanceMeters>6673.6963636967</DistanceMeters>
          </Trackpoint>
          <Trackpoint>
            <Time>2021-08-09T08:30:30.000Z</Time>
            <Position>
              <LatitudeDegrees>42.9541184194386005401611328125</LatitudeDegrees>
              <LongitudeDegrees>-1.8233356811106204986572265625</LongitudeDegrees>
            </Position>
            <AltitudeMeters>472.600006103515625</AltitudeMeters>
            <DistanceMeters>6675.5438941825</DistanceMeters>
          </Trackpoint>
          <Trackpoint>
            <Time>2021-08-09T08:30:31.000Z</Time>
            <Position>
              <LatitudeDegrees>42.95413308776915073394775390625</LatitudeDegrees>
              <LongitudeDegrees>-1.8233335018157958984375</LongitudeDegrees>
            </Position>
            <AltitudeMeters>472.600006103515625</AltitudeMeters>
            <DistanceMeters>6677.1898051561</DistanceMeters>
          </Trackpoint>
          <Trackpoint>
            <Time>2021-08-09T08:30:32.000Z</Time>
            <Position>
              <LatitudeDegrees>42.954146079719066619873046875</LatitudeDegrees>
              <LongitudeDegrees>-1.82333291508257389068603515625</LongitudeDegrees>
            </Position>
            <AltitudeMeters>472.600006103515625</AltitudeMeters>
            <DistanceMeters>6678.630956634</DistanceMeters>
          </Trackpoint>
          <Trackpoint>
            <Time>2021-08-09T08:30:33.000Z</Time>
            <Position>
              <LatitudeDegrees>42.95415890403091907501220703125</LatitudeDegrees>
              <LongitudeDegrees>-1.823330484330654144287109375</LongitudeDegrees>
            </Position>
            <AltitudeMeters>472.79998779296875</AltitudeMeters>
            <DistanceMeters>6680.0689717611</DistanceMeters>
          </Trackpoint>
          <Trackpoint>
            <Time>2021-08-09T08:30:34.000Z</Time>
            <Position>
              <LatitudeDegrees>42.95417432673275470733642578125</LatitudeDegrees>
              <LongitudeDegrees>-1.8233279697597026824951171875</LongitudeDegrees>
            </Position>
            <AltitudeMeters>472.79998779296875</AltitudeMeters>
            <DistanceMeters>6681.7978312993</DistanceMeters>
          </Trackpoint>
          <Trackpoint>
            <Time>2021-08-09T08:30:35.000Z</Time>
            <Position>
              <LatitudeDegrees>42.9541925154626369476318359375</LatitudeDegrees>
              <LongitudeDegrees>-1.8233219347894191741943359375</LongitudeDegrees>
            </Position>
            <AltitudeMeters>473</AltitudeMeters>
            <DistanceMeters>6683.8797623003</DistanceMeters>
          </Trackpoint>
          <Trackpoint>
            <Time>2021-08-09T08:30:38.000Z</Time>
            <Position>
              <LatitudeDegrees>42.95423786155879497528076171875</LatitudeDegrees>
              <LongitudeDegrees>-1.8233078531920909881591796875</LongitudeDegrees>
            </Position>
            <AltitudeMeters>473.399993896484375</AltitudeMeters>
            <DistanceMeters>6689.0550117371</DistanceMeters>
          </Trackpoint>
          <Trackpoint>
            <Time>2021-08-09T08:30:39.000Z</Time>
            <Position>
              <LatitudeDegrees>42.9542521946132183074951171875</LatitudeDegrees>
              <LongitudeDegrees>-1.823305003345012664794921875</LongitudeDegrees>
            </Position>
            <AltitudeMeters>473.600006103515625</AltitudeMeters>
            <DistanceMeters>6690.6676685561</DistanceMeters>
          </Trackpoint>
          <Trackpoint>
            <Time>2021-08-09T08:30:40.000Z</Time>
            <Position>
              <LatitudeDegrees>42.95426887460052967071533203125</LatitudeDegrees>
              <LongitudeDegrees>-1.82329955510795116424560546875</LongitudeDegrees>
            </Position>
            <AltitudeMeters>473.600006103515625</AltitudeMeters>
            <DistanceMeters>6692.5776818763</DistanceMeters>
          </Trackpoint>
          <Trackpoint>
            <Time>2021-08-09T08:30:41.000Z</Time>
            <Position>
              <LatitudeDegrees>42.95428521931171417236328125</LatitudeDegrees>
              <LongitudeDegrees>-1.82329402305185794830322265625</LongitudeDegrees>
            </Position>
            <AltitudeMeters>473.79998779296875</AltitudeMeters>
            <DistanceMeters>6694.4494910707</DistanceMeters>
          </Trackpoint>
          <Trackpoint>
            <Time>2021-08-09T08:30:44.000Z</Time>
            <Position>
              <LatitudeDegrees>42.95433752238750457763671875</LatitudeDegrees>
              <LongitudeDegrees>-1.82327516376972198486328125</LongitudeDegrees>
            </Position>
            <AltitudeMeters>474.20001220703125</AltitudeMeters>
            <DistanceMeters>6700.4700165333</DistanceMeters>
          </Trackpoint>
          <Trackpoint>
            <Time>2021-08-09T08:30:47.000Z</Time>
            <Position>
              <LatitudeDegrees>42.95438689179718494415283203125</LatitudeDegrees>
              <LongitudeDegrees>-1.82326711714267730712890625</LongitudeDegrees>
            </Position>
            <AltitudeMeters>474.600006103515625</AltitudeMeters>
            <DistanceMeters>6706.0044559176</DistanceMeters>
          </Trackpoint>
          <Trackpoint>
            <Time>2021-08-09T08:30:48.000Z</Time>
            <Position>
              <LatitudeDegrees>42.954402230679988861083984375</LatitudeDegrees>
              <LongitudeDegrees>-1.82326435111463069915771484375</LongitudeDegrees>
            </Position>
            <AltitudeMeters>474.79998779296875</AltitudeMeters>
            <DistanceMeters>6707.7228374227</DistanceMeters>
          </Trackpoint>
          <Trackpoint>
            <Time>2021-08-09T08:30:51.000Z</Time>
            <Position>
              <LatitudeDegrees>42.95447163283824920654296875</LatitudeDegrees>
              <LongitudeDegrees>-1.8232558853924274444580078125</LongitudeDegrees>
            </Position>
            <AltitudeMeters>475</AltitudeMeters>
            <DistanceMeters>6715.477855741</DistanceMeters>
          </Trackpoint>
          <Trackpoint>
            <Time>2021-08-09T08:30:52.000Z</Time>
            <Position>
              <LatitudeDegrees>42.9544962756335735321044921875</LatitudeDegrees>
              <LongitudeDegrees>-1.823252700269222259521484375</LongitudeDegrees>
            </Position>
            <AltitudeMeters>475.20001220703125</AltitudeMeters>
            <DistanceMeters>6718.2319915787</DistanceMeters>
          </Trackpoint>
          <Trackpoint>
            <Time>2021-08-09T08:30:53.000Z</Time>
            <Position>
              <LatitudeDegrees>42.95452150516211986541748046875</LatitudeDegrees>
              <LongitudeDegrees>-1.8232434801757335662841796875</LongitudeDegrees>
            </Position>
            <AltitudeMeters>475.399993896484375</AltitudeMeters>
            <DistanceMeters>6721.1392500041</DistanceMeters>
          </Trackpoint>
          <Trackpoint>
            <Time>2021-08-09T08:30:57.000Z</Time>
            <Position>
              <LatitudeDegrees>42.95461513102054595947265625</LatitudeDegrees>
              <LongitudeDegrees>-1.823228895664215087890625</LongitudeDegrees>
            </Position>
            <AltitudeMeters>476</AltitudeMeters>
            <DistanceMeters>6731.6275478278</DistanceMeters>
          </Trackpoint>
          <Trackpoint>
            <Time>2021-08-09T08:30:58.000Z</Time>
            <Position>
              <LatitudeDegrees>42.95463734306395053863525390625</LatitudeDegrees>
              <LongitudeDegrees>-1.82322965003550052642822265625</LongitudeDegrees>
            </Position>
            <AltitudeMeters>476</AltitudeMeters>
            <DistanceMeters>6734.1018945758</DistanceMeters>
          </Trackpoint>
          <Trackpoint>
            <Time>2021-08-09T08:30:59.000Z</Time>
            <Position>
              <LatitudeDegrees>42.9546592198312282562255859375</LatitudeDegrees>
              <LongitudeDegrees>-1.82323182933032512664794921875</LongitudeDegrees>
            </Position>
            <AltitudeMeters>476.20001220703125</AltitudeMeters>
            <DistanceMeters>6736.5431750703</DistanceMeters>
          </Trackpoint>
          <Trackpoint>
            <Time>2021-08-09T08:31:00.000Z</Time>
            <Position>
              <LatitudeDegrees>42.954678498208522796630859375</LatitudeDegrees>
              <LongitudeDegrees>-1.8232334218919277191162109375</LongitudeDegrees>
            </Position>
            <AltitudeMeters>476.399993896484375</AltitudeMeters>
            <DistanceMeters>6738.6933841623</DistanceMeters>
          </Trackpoint>
          <Trackpoint>
            <Time>2021-08-09T08:31:01.000Z</Time>
            <Position>
              <LatitudeDegrees>42.9546964354813098907470703125</LatitudeDegrees>
              <LongitudeDegrees>-1.82323987595736980438232421875</LongitudeDegrees>
            </Position>
            <AltitudeMeters>476.399993896484375</AltitudeMeters>
            <DistanceMeters>6740.7600786627</DistanceMeters>
          </Trackpoint>
          <Trackpoint>
            <Time>2021-08-09T08:31:02.000Z</Time>
            <Position>
              <LatitudeDegrees>42.95471613295376300811767578125</LatitudeDegrees>
              <LongitudeDegrees>-1.823239959776401519775390625</LongitudeDegrees>
            </Position>
            <AltitudeMeters>476.600006103515625</AltitudeMeters>
            <DistanceMeters>6742.9539407241</DistanceMeters>
          </Trackpoint>
          <Trackpoint>
            <Time>2021-08-09T08:31:03.000Z</Time>
            <Position>
              <LatitudeDegrees>42.95473742298781871795654296875</LatitudeDegrees>
              <LongitudeDegrees>-1.82324163615703582763671875</LongitudeDegrees>
            </Position>
            <AltitudeMeters>476.79998779296875</AltitudeMeters>
            <DistanceMeters>6745.3277072883</DistanceMeters>
          </Trackpoint>
          <Trackpoint>
            <Time>2021-08-09T08:31:04.000Z</Time>
            <Position>
              <LatitudeDegrees>42.95475703664124011993408203125</LatitudeDegrees>
              <LongitudeDegrees>-1.8232528679072856903076171875</LongitudeDegrees>
            </Position>
            <AltitudeMeters>477</AltitudeMeters>
            <DistanceMeters>6747.6938533943</DistanceMeters>
          </Trackpoint>
          <Trackpoint>
            <Time>2021-08-09T08:31:05.000Z</Time>
            <Position>
              <LatitudeDegrees>42.95477882958948612213134765625</LatitudeDegrees>
              <LongitudeDegrees>-1.823259405791759490966796875</LongitudeDegrees>
            </Position>
            <AltitudeMeters>477.20001220703125</AltitudeMeters>
            <DistanceMeters>6750.1791244636</DistanceMeters>
          </Trackpoint>
          <Trackpoint>
            <Time>2021-08-09T08:31:06.000Z</Time>
            <Position>
              <LatitudeDegrees>42.954804562032222747802734375</LatitudeDegrees>
              <LongitudeDegrees>-1.82325747795403003692626953125</LongitudeDegrees>
            </Position>
            <AltitudeMeters>477.600006103515625</AltitudeMeters>
            <DistanceMeters>6753.0457199293</DistanceMeters>
          </Trackpoint>
          <Trackpoint>
            <Time>2021-08-09T08:31:07.000Z</Time>
            <Position>
              <LatitudeDegrees>42.9548295401036739349365234375</LatitudeDegrees>
              <LongitudeDegrees>-1.8232475034892559051513671875</LongitudeDegrees>
            </Position>
            <AltitudeMeters>477.79998779296875</AltitudeMeters>
            <DistanceMeters>6755.9420867943</DistanceMeters>
          </Trackpoint>
          <Trackpoint>
            <Time>2021-08-09T08:31:08.000Z</Time>
            <Position>
              <LatitudeDegrees>42.95485041104257106781005859375</LatitudeDegrees>
              <LongitudeDegrees>-1.823223195970058441162109375</LongitudeDegrees>
            </Position>
            <AltitudeMeters>477.79998779296875</AltitudeMeters>
            <DistanceMeters>6758.9947968837</DistanceMeters>
          </Trackpoint>
          <Trackpoint>
            <Time>2021-08-09T08:31:09.000Z</Time>
            <Position>
              <LatitudeDegrees>42.95486315153539180755615234375</LatitudeDegrees>
              <LongitudeDegrees>-1.82318866252899169921875</LongitudeDegrees>
            </Position>
            <AltitudeMeters>478</AltitudeMeters>
            <DistanceMeters>6762.1450435426</DistanceMeters>
          </Trackpoint>
          <Trackpoint>
            <Time>2021-08-09T08:31:10.000Z</Time>
            <Position>
              <LatitudeDegrees>42.9548707790672779083251953125</LatitudeDegrees>
              <LongitudeDegrees>-1.8231539614498615264892578125</LongitudeDegrees>
            </Position>
            <AltitudeMeters>478</AltitudeMeters>
            <DistanceMeters>6765.0969960775</DistanceMeters>
          </Trackpoint>
          <Trackpoint>
            <Time>2021-08-09T08:31:11.000Z</Time>
            <Position>
              <LatitudeDegrees>42.954876981675624847412109375</LatitudeDegrees>
              <LongitudeDegrees>-1.82312018238008022308349609375</LongitudeDegrees>
            </Position>
            <AltitudeMeters>478.20001220703125</AltitudeMeters>
            <DistanceMeters>6767.9335076872</DistanceMeters>
          </Trackpoint>
          <Trackpoint>
            <Time>2021-08-09T08:31:12.000Z</Time>
            <Position>
              <LatitudeDegrees>42.95488142408430576324462890625</LatitudeDegrees>
              <LongitudeDegrees>-1.823091097176074981689453125</LongitudeDegrees>
            </Position>
            <AltitudeMeters>478.20001220703125</AltitudeMeters>
            <DistanceMeters>6770.3562230416</DistanceMeters>
          </Trackpoint>
          <Trackpoint>
            <Time>2021-08-09T08:31:13.000Z</Time>
            <Position>
              <LatitudeDegrees>42.9548872075974941253662109375</LatitudeDegrees>
              <LongitudeDegrees>-1.823066286742687225341796875</LongitudeDegrees>
            </Position>
            <AltitudeMeters>478.399993896484375</AltitudeMeters>
            <DistanceMeters>6772.4768309896</DistanceMeters>
          </Trackpoint>
          <Trackpoint>
            <Time>2021-08-09T08:31:14.000Z</Time>
            <Position>
              <LatitudeDegrees>42.95489181764423847198486328125</LatitudeDegrees>
              <LongitudeDegrees>-1.82304139249026775360107421875</LongitudeDegrees>
            </Position>
            <AltitudeMeters>478.79998779296875</AltitudeMeters>
            <DistanceMeters>6774.5695772894</DistanceMeters>
          </Trackpoint>
          <Trackpoint>
            <Time>2021-08-09T08:31:15.000Z</Time>
            <Position>
              <LatitudeDegrees>42.95488871634006500244140625</LatitudeDegrees>
              <LongitudeDegrees>-1.82301700115203857421875</LongitudeDegrees>
            </Position>
            <AltitudeMeters>479</AltitudeMeters>
            <DistanceMeters>6776.5898729491</DistanceMeters>
          </Trackpoint>
          <Trackpoint>
            <Time>2021-08-09T08:31:16.000Z</Time>
            <Position>
              <LatitudeDegrees>42.95488377101719379425048828125</LatitudeDegrees>
              <LongitudeDegrees>-1.822995878756046295166015625</LongitudeDegrees>
            </Position>
            <AltitudeMeters>479.399993896484375</AltitudeMeters>
            <DistanceMeters>6778.3978794957</DistanceMeters>
          </Trackpoint>
          <Trackpoint>
            <Time>2021-08-09T08:31:17.000Z</Time>
            <Position>
              <LatitudeDegrees>42.95487941242754459381103515625</LatitudeDegrees>
              <LongitudeDegrees>-1.8229739181697368621826171875</LongitudeDegrees>
            </Position>
            <AltitudeMeters>479.600006103515625</AltitudeMeters>
            <DistanceMeters>6780.2527269625</DistanceMeters>
          </Trackpoint>
          <Trackpoint>
            <Time>2021-08-09T08:31:18.000Z</Time>
            <Position>
              <LatitudeDegrees>42.95485946349799633026123046875</LatitudeDegrees>
              <LongitudeDegrees>-1.82295707054436206817626953125</LongitudeDegrees>
            </Position>
            <AltitudeMeters>479.79998779296875</AltitudeMeters>
            <DistanceMeters>6782.8620712554</DistanceMeters>
          </Trackpoint>
          <Trackpoint>
            <Time>2021-08-09T08:31:19.000Z</Time>
            <Position>
              <LatitudeDegrees>42.9548342339694499969482421875</LatitudeDegrees>
              <LongitudeDegrees>-1.82294248603284358978271484375</LongitudeDegrees>
            </Position>
            <AltitudeMeters>480</AltitudeMeters>
            <DistanceMeters>6785.9088594962</DistanceMeters>
          </Trackpoint>
          <Trackpoint>
            <Time>2021-08-09T08:31:20.000Z</Time>
            <Position>
              <LatitudeDegrees>42.9548144526779651641845703125</LatitudeDegrees>
              <LongitudeDegrees>-1.8229333497583866119384765625</LongitudeDegrees>
            </Position>
            <AltitudeMeters>480.20001220703125</AltitudeMeters>
            <DistanceMeters>6788.23264643</DistanceMeters>
          </Trackpoint>
          <Trackpoint>
            <Time>2021-08-09T08:31:21.000Z</Time>
            <Position>
              <LatitudeDegrees>42.9547960124909877777099609375</LatitudeDegrees>
              <LongitudeDegrees>-1.82292513549327850341796875</LongitudeDegrees>
            </Position>
            <AltitudeMeters>480.20001220703125</AltitudeMeters>
            <DistanceMeters>6790.3912384352</DistanceMeters>
          </Trackpoint>
          <Trackpoint>
            <Time>2021-08-09T08:31:22.000Z</Time>
            <Position>
              <LatitudeDegrees>42.9547805897891521453857421875</LatitudeDegrees>
              <LongitudeDegrees>-1.8229182623326778411865234375</LongitudeDegrees>
            </Position>
            <AltitudeMeters>480.399993896484375</AltitudeMeters>
            <DistanceMeters>6792.1967460083</DistanceMeters>
          </Trackpoint>
          <Trackpoint>
            <Time>2021-08-09T08:31:23.000Z</Time>
            <Position>
              <LatitudeDegrees>42.9547628201544284820556640625</LatitudeDegrees>
              <LongitudeDegrees>-1.82290962897241115570068359375</LongitudeDegrees>
            </Position>
            <AltitudeMeters>480.79998779296875</AltitudeMeters>
            <DistanceMeters>6794.2959547412</DistanceMeters>
          </Trackpoint>
          <Trackpoint>
            <Time>2021-08-09T08:31:24.000Z</Time>
            <Position>
              <LatitudeDegrees>42.95474253594875335693359375</LatitudeDegrees>
              <LongitudeDegrees>-1.82289839722216129302978515625</LongitudeDegrees>
            </Position>
            <AltitudeMeters>481</AltitudeMeters>
            <DistanceMeters>6796.7316805517</DistanceMeters>
          </Trackpoint>
          <Trackpoint>
            <Time>2021-08-09T08:31:25.000Z</Time>
            <Position>
              <LatitudeDegrees>42.95472451485693454742431640625</LatitudeDegrees>
              <LongitudeDegrees>-1.82288750074803829193115234375</LongitudeDegrees>
            </Position>
            <AltitudeMeters>481.20001220703125</AltitudeMeters>
            <DistanceMeters>6798.923483615</DistanceMeters>
          </Trackpoint>
          <Trackpoint>
            <Time>2021-08-09T08:31:26.000Z</Time>
            <Position>
              <LatitudeDegrees>42.95470523647964000701904296875</LatitudeDegrees>
              <LongitudeDegrees>-1.82288129813969135284423828125</LongitudeDegrees>
            </Position>
            <AltitudeMeters>481.600006103515625</AltitudeMeters>
            <DistanceMeters>6801.125562417</DistanceMeters>
          </Trackpoint>
          <Trackpoint>
            <Time>2021-08-09T08:31:27.000Z</Time>
            <Position>
              <LatitudeDegrees>42.954684197902679443359375</LatitudeDegrees>
              <LongitudeDegrees>-1.82287341915071010589599609375</LongitudeDegrees>
            </Position>
            <AltitudeMeters>481.600006103515625</AltitudeMeters>
            <DistanceMeters>6803.5520021631</DistanceMeters>
          </Trackpoint>
          <Trackpoint>
            <Time>2021-08-09T08:31:28.000Z</Time>
            <Position>
              <LatitudeDegrees>42.95466919429600238800048828125</LatitudeDegrees>
              <LongitudeDegrees>-1.82286922819912433624267578125</LongitudeDegrees>
            </Position>
            <AltitudeMeters>481.79998779296875</AltitudeMeters>
            <DistanceMeters>6805.2545457128</DistanceMeters>
          </Trackpoint>
          <Trackpoint>
            <Time>2021-08-09T08:31:29.000Z</Time>
            <Position>
              <LatitudeDegrees>42.95465611852705478668212890625</LatitudeDegrees>
              <LongitudeDegrees>-1.8228609301149845123291015625</LongitudeDegrees>
            </Position>
            <AltitudeMeters>482</AltitudeMeters>
            <DistanceMeters>6806.8587812898</DistanceMeters>
          </Trackpoint>
          <Trackpoint>
            <Time>2021-08-09T08:31:30.000Z</Time>
            <Position>
              <LatitudeDegrees>42.954637594521045684814453125</LatitudeDegrees>
              <LongitudeDegrees>-1.82285581715404987335205078125</LongitudeDegrees>
            </Position>
            <AltitudeMeters>482.20001220703125</AltitudeMeters>
            <DistanceMeters>6808.9622872816</DistanceMeters>
          </Trackpoint>
          <Trackpoint>
            <Time>2021-08-09T08:31:31.000Z</Time>
            <Position>
              <LatitudeDegrees>42.95461974106729030609130859375</LatitudeDegrees>
              <LongitudeDegrees>-1.82285313494503498077392578125</LongitudeDegrees>
            </Position>
            <AltitudeMeters>482.20001220703125</AltitudeMeters>
            <DistanceMeters>6810.9623682461</DistanceMeters>
          </Trackpoint>
          <Trackpoint>
            <Time>2021-08-09T08:31:32.000Z</Time>
            <Position>
              <LatitudeDegrees>42.9546012170612812042236328125</LatitudeDegrees>
              <LongitudeDegrees>-1.82285112328827381134033203125</LongitudeDegrees>
            </Position>
            <AltitudeMeters>482.399993896484375</AltitudeMeters>
            <DistanceMeters>6813.0312462595</DistanceMeters>
          </Trackpoint>
          <Trackpoint>
            <Time>2021-08-09T08:31:33.000Z</Time>
            <Position>
              <LatitudeDegrees>42.95458135195076465606689453125</LatitudeDegrees>
              <LongitudeDegrees>-1.8228512071073055267333984375</LongitudeDegrees>
            </Position>
            <AltitudeMeters>482.399993896484375</AltitudeMeters>
            <DistanceMeters>6815.2415112564</DistanceMeters>
          </Trackpoint>
          <Trackpoint>
            <Time>2021-08-09T08:31:34.000Z</Time>
            <Position>
              <LatitudeDegrees>42.95456416904926300048828125</LatitudeDegrees>
              <LongitudeDegrees>-1.8228478543460369110107421875</LongitudeDegrees>
            </Position>
            <AltitudeMeters>482.399993896484375</AltitudeMeters>
            <DistanceMeters>6817.1703428962</DistanceMeters>
          </Trackpoint>
          <Trackpoint>
            <Time>2021-08-09T08:31:35.000Z</Time>
            <Position>
              <LatitudeDegrees>42.9545487463474273681640625</LatitudeDegrees>
              <LongitudeDegrees>-1.82284441776573657989501953125</LongitudeDegrees>
            </Position>
            <AltitudeMeters>482.399993896484375</AltitudeMeters>
            <DistanceMeters>6818.9096173451</DistanceMeters>
          </Trackpoint>
          <Trackpoint>
            <Time>2021-08-09T08:31:36.000Z</Time>
            <Position>
              <LatitudeDegrees>42.954534329473972320556640625</LatitudeDegrees>
              <LongitudeDegrees>-1.822838969528675079345703125</LongitudeDegrees>
            </Position>
            <AltitudeMeters>482.399993896484375</AltitudeMeters>
            <DistanceMeters>6820.577329414</DistanceMeters>
          </Trackpoint>
          <Trackpoint>
            <Time>2021-08-09T08:31:37.000Z</Time>
            <Position>
              <LatitudeDegrees>42.95452083460986614227294921875</LatitudeDegrees>
              <LongitudeDegrees>-1.82283528149127960205078125</LongitudeDegrees>
            </Position>
            <AltitudeMeters>482.600006103515625</AltitudeMeters>
            <DistanceMeters>6822.1095891425</DistanceMeters>
          </Trackpoint>
          <Trackpoint>
            <Time>2021-08-09T08:31:38.000Z</Time>
            <Position>
              <LatitudeDegrees>42.95450775884091854095458984375</LatitudeDegrees>
              <LongitudeDegrees>-1.82283033616840839385986328125</LongitudeDegrees>
            </Position>
            <AltitudeMeters>482.600006103515625</AltitudeMeters>
            <DistanceMeters>6823.6180914673</DistanceMeters>
          </Trackpoint>
          <Trackpoint>
            <Time>2021-08-09T08:31:39.000Z</Time>
            <Position>
              <LatitudeDegrees>42.95449216850101947784423828125</LatitudeDegrees>
              <LongitudeDegrees>-1.8228253908455371856689453125</LongitudeDegrees>
            </Position>
            <AltitudeMeters>482.600006103515625</AltitudeMeters>
            <DistanceMeters>6825.400950662</DistanceMeters>
          </Trackpoint>
          <Trackpoint>
            <Time>2021-08-09T08:31:40.000Z</Time>
            <Position>
              <LatitudeDegrees>42.9544801823794841766357421875</LatitudeDegrees>
              <LongitudeDegrees>-1.82281910441815853118896484375</LongitudeDegrees>
            </Position>
            <AltitudeMeters>482.79998779296875</AltitudeMeters>
            <DistanceMeters>6826.829515423</DistanceMeters>
          </Trackpoint>
          <Trackpoint>
            <Time>2021-08-09T08:31:41.000Z</Time>
            <Position>
              <LatitudeDegrees>42.95447054319083690643310546875</LatitudeDegrees>
              <LongitudeDegrees>-1.8228156678378582000732421875</LongitudeDegrees>
            </Position>
            <AltitudeMeters>482.79998779296875</AltitudeMeters>
            <DistanceMeters>6827.9377078234</DistanceMeters>
          </Trackpoint>
          <Trackpoint>
            <Time>2021-08-09T08:31:42.000Z</Time>
            <Position>
              <LatitudeDegrees>42.95446048490703105926513671875</LatitudeDegrees>
              <LongitudeDegrees>-1.8228143267333507537841796875</LongitudeDegrees>
            </Position>
            <AltitudeMeters>483</AltitudeMeters>
            <DistanceMeters>6829.0620790709</DistanceMeters>
          </Trackpoint>
          <Trackpoint>
            <Time>2021-08-09T08:31:43.000Z</Time>
            <Position>
              <LatitudeDegrees>42.9544573836028575897216796875</LatitudeDegrees>
              <LongitudeDegrees>-1.8228118121623992919921875</LongitudeDegrees>
            </Position>
            <AltitudeMeters>483</AltitudeMeters>
            <DistanceMeters>6829.4762909158</DistanceMeters>
          </Trackpoint>
          <Trackpoint>
            <Time>2021-08-09T08:31:44.000Z</Time>
            <Position>
              <LatitudeDegrees>42.9544573836028575897216796875</LatitudeDegrees>
              <LongitudeDegrees>-1.8228118121623992919921875</LongitudeDegrees>
            </Position>
            <AltitudeMeters>483</AltitudeMeters>
            <DistanceMeters>6829.4762909158</DistanceMeters>
          </Trackpoint>
          <Trackpoint>
            <Time>2021-08-09T08:31:49.000Z</Time>
            <Position>
              <LatitudeDegrees>42.95443953014910221099853515625</LatitudeDegrees>
              <LongitudeDegrees>-1.82281248271465301513671875</LongitudeDegrees>
            </Position>
            <AltitudeMeters>483</AltitudeMeters>
            <DistanceMeters>6831.4650527121</DistanceMeters>
          </Trackpoint>
          <Trackpoint>
            <Time>2021-08-09T08:31:50.000Z</Time>
            <Position>
              <LatitudeDegrees>42.95443131588399410247802734375</LatitudeDegrees>
              <LongitudeDegrees>-1.822801418602466583251953125</LongitudeDegrees>
            </Position>
            <AltitudeMeters>483</AltitudeMeters>
            <DistanceMeters>6832.7505502769</DistanceMeters>
          </Trackpoint>
          <Trackpoint>
            <Time>2021-08-09T08:31:51.000Z</Time>
            <Position>
              <LatitudeDegrees>42.95441891066730022430419921875</LatitudeDegrees>
              <LongitudeDegrees>-1.8227932043373584747314453125</LongitudeDegrees>
            </Position>
            <AltitudeMeters>483</AltitudeMeters>
            <DistanceMeters>6834.2857538308</DistanceMeters>
          </Trackpoint>
          <Trackpoint>
            <Time>2021-08-09T08:31:52.000Z</Time>
            <Position>
              <LatitudeDegrees>42.95440114103257656097412109375</LatitudeDegrees>
              <LongitudeDegrees>-1.82278566062450408935546875</LongitudeDegrees>
            </Position>
            <AltitudeMeters>483</AltitudeMeters>
            <DistanceMeters>6836.3568130552</DistanceMeters>
          </Trackpoint>
          <Trackpoint>
            <Time>2021-08-09T08:31:53.000Z</Time>
            <Position>
              <LatitudeDegrees>42.9543842934072017669677734375</LatitudeDegrees>
              <LongitudeDegrees>-1.82277317158877849578857421875</LongitudeDegrees>
            </Position>
            <AltitudeMeters>483.20001220703125</AltitudeMeters>
            <DistanceMeters>6838.4901575018</DistanceMeters>
          </Trackpoint>
          <Trackpoint>
            <Time>2021-08-09T08:31:56.000Z</Time>
            <Position>
              <LatitudeDegrees>42.9543212614953517913818359375</LatitudeDegrees>
              <LongitudeDegrees>-1.82274081744253635406494140625</LongitudeDegrees>
            </Position>
            <AltitudeMeters>483.399993896484375</AltitudeMeters>
            <DistanceMeters>6845.9846271616</DistanceMeters>
          </Trackpoint>
          <Trackpoint>
            <Time>2021-08-09T08:31:57.000Z</Time>
            <Position>
              <LatitudeDegrees>42.95430340804159641265869140625</LatitudeDegrees>
              <LongitudeDegrees>-1.822731681168079376220703125</LongitudeDegrees>
            </Position>
            <AltitudeMeters>483.600006103515625</AltitudeMeters>
            <DistanceMeters>6848.1052351096</DistanceMeters>
          </Trackpoint>
          <Trackpoint>
            <Time>2021-08-09T08:31:58.000Z</Time>
            <Position>
              <LatitudeDegrees>42.9542832076549530029296875</LatitudeDegrees>
              <LongitudeDegrees>-1.82271935977041721343994140625</LongitudeDegrees>
            </Position>
            <AltitudeMeters>483.79998779296875</AltitudeMeters>
            <DistanceMeters>6850.5649406239</DistanceMeters>
          </Trackpoint>
          <Trackpoint>
            <Time>2021-08-09T08:32:02.000Z</Time>
            <Position>
              <LatitudeDegrees>42.9541992209851741790771484375</LatitudeDegrees>
              <LongitudeDegrees>-1.82267460040748119354248046875</LongitudeDegrees>
            </Position>
            <AltitudeMeters>484.20001220703125</AltitudeMeters>
            <DistanceMeters>6860.5982497589</DistanceMeters>
          </Trackpoint>
          <Trackpoint>
            <Time>2021-08-09T08:32:03.000Z</Time>
            <Position>
              <LatitudeDegrees>42.95417835004627704620361328125</LatitudeDegrees>
              <LongitudeDegrees>-1.82267057709395885467529296875</LongitudeDegrees>
            </Position>
            <AltitudeMeters>484.20001220703125</AltitudeMeters>
            <DistanceMeters>6862.9433119232</DistanceMeters>
          </Trackpoint>
          <Trackpoint>
            <Time>2021-08-09T08:32:05.000Z</Time>
            <Position>
              <LatitudeDegrees>42.95413878746330738067626953125</LatitudeDegrees>
              <LongitudeDegrees>-1.82265548966825008392333984375</LongitudeDegrees>
            </Position>
            <AltitudeMeters>484.20001220703125</AltitudeMeters>
            <DistanceMeters>6867.5144821116</DistanceMeters>
          </Trackpoint>
          <Trackpoint>
            <Time>2021-08-09T08:32:06.000Z</Time>
            <Position>
              <LatitudeDegrees>42.9541170783340930938720703125</LatitudeDegrees>
              <LongitudeDegrees>-1.82264895178377628326416015625</LongitudeDegrees>
            </Position>
            <AltitudeMeters>484.20001220703125</AltitudeMeters>
            <DistanceMeters>6869.9888288595</DistanceMeters>
          </Trackpoint>
          <Trackpoint>
            <Time>2021-08-09T08:32:09.000Z</Time>
            <Position>
              <LatitudeDegrees>42.954058237373828887939453125</LatitudeDegrees>
              <LongitudeDegrees>-1.8226339481770992279052734375</LongitudeDegrees>
            </Position>
            <AltitudeMeters>484.600006103515625</AltitudeMeters>
            <DistanceMeters>6876.6515502103</DistanceMeters>
          </Trackpoint>
          <Trackpoint>
            <Time>2021-08-09T08:32:11.000Z</Time>
            <Position>
              <LatitudeDegrees>42.9540185071527957916259765625</LatitudeDegrees>
              <LongitudeDegrees>-1.82261534035205841064453125</LongitudeDegrees>
            </Position>
            <AltitudeMeters>484.600006103515625</AltitudeMeters>
            <DistanceMeters>6881.3243143646</DistanceMeters>
          </Trackpoint>
          <Trackpoint>
            <Time>2021-08-09T08:32:12.000Z</Time>
            <Position>
              <LatitudeDegrees>42.95399964787065982818603515625</LatitudeDegrees>
              <LongitudeDegrees>-1.82260318659245967864990234375</LongitudeDegrees>
            </Position>
            <AltitudeMeters>484.79998779296875</AltitudeMeters>
            <DistanceMeters>6883.6442121125</DistanceMeters>
          </Trackpoint>
          <Trackpoint>
            <Time>2021-08-09T08:32:14.000Z</Time>
            <Position>
              <LatitudeDegrees>42.95395530760288238525390625</LatitudeDegrees>
              <LongitudeDegrees>-1.8225940503180027008056640625</LongitudeDegrees>
            </Position>
            <AltitudeMeters>485.20001220703125</AltitudeMeters>
            <DistanceMeters>6888.6365072745</DistanceMeters>
          </Trackpoint>
          <Trackpoint>
            <Time>2021-08-09T08:32:17.000Z</Time>
            <Position>
              <LatitudeDegrees>42.9538944549858570098876953125</LatitudeDegrees>
              <LongitudeDegrees>-1.82257301174104213714599609375</LongitudeDegrees>
            </Position>
            <AltitudeMeters>485.600006103515625</AltitudeMeters>
            <DistanceMeters>6895.6233945111</DistanceMeters>
          </Trackpoint>
          <Trackpoint>
            <Time>2021-08-09T08:32:20.000Z</Time>
            <Position>
              <LatitudeDegrees>42.95383636839687824249267578125</LatitudeDegrees>
              <LongitudeDegrees>-1.822558008134365081787109375</LongitudeDegrees>
            </Position>
            <AltitudeMeters>486.20001220703125</AltitudeMeters>
            <DistanceMeters>6902.204294649</DistanceMeters>
          </Trackpoint>
          <Trackpoint>
            <Time>2021-08-09T08:32:21.000Z</Time>
            <Position>
              <LatitudeDegrees>42.9538203589618206024169921875</LatitudeDegrees>
              <LongitudeDegrees>-1.8225514702498912811279296875</LongitudeDegrees>
            </Position>
            <AltitudeMeters>486.399993896484375</AltitudeMeters>
            <DistanceMeters>6904.0664303461</DistanceMeters>
          </Trackpoint>
          <Trackpoint>
            <Time>2021-08-09T08:32:22.000Z</Time>
            <Position>
              <LatitudeDegrees>42.95380602590739727020263671875</LatitudeDegrees>
              <LongitudeDegrees>-1.8225410766899585723876953125</LongitudeDegrees>
            </Position>
            <AltitudeMeters>486.399993896484375</AltitudeMeters>
            <DistanceMeters>6905.8719379191</DistanceMeters>
          </Trackpoint>
          <Trackpoint>
            <Time>2021-08-09T08:32:23.000Z</Time>
            <Position>
              <LatitudeDegrees>42.95379077084362506866455078125</LatitudeDegrees>
              <LongitudeDegrees>-1.82253160513937473297119140625</LongitudeDegrees>
            </Position>
            <AltitudeMeters>486.600006103515625</AltitudeMeters>
            <DistanceMeters>6907.7389166301</DistanceMeters>
          </Trackpoint>
          <Trackpoint>
            <Time>2021-08-09T08:32:24.000Z</Time>
            <Position>
              <LatitudeDegrees>42.95377836562693119049072265625</LatitudeDegrees>
              <LongitudeDegrees>-1.82251785881817340850830078125</LongitudeDegrees>
            </Position>
            <AltitudeMeters>486.600006103515625</AltitudeMeters>
            <DistanceMeters>6909.516703669</DistanceMeters>
          </Trackpoint>
          <Trackpoint>
            <Time>2021-08-09T08:32:25.000Z</Time>
            <Position>
              <LatitudeDegrees>42.9537690617144107818603515625</LatitudeDegrees>
              <LongitudeDegrees>-1.8224979937076568603515625</LongitudeDegrees>
            </Position>
            <AltitudeMeters>486.600006103515625</AltitudeMeters>
            <DistanceMeters>6911.4361492111</DistanceMeters>
          </Trackpoint>
          <Trackpoint>
            <Time>2021-08-09T08:32:26.000Z</Time>
            <Position>
              <LatitudeDegrees>42.95375472865998744964599609375</LatitudeDegrees>
              <LongitudeDegrees>-1.82249195873737335205078125</LongitudeDegrees>
            </Position>
            <AltitudeMeters>486.79998779296875</AltitudeMeters>
            <DistanceMeters>6913.1092671679</DistanceMeters>
          </Trackpoint>
          <Trackpoint>
            <Time>2021-08-09T08:32:27.000Z</Time>
            <Position>
              <LatitudeDegrees>42.9537412337958812713623046875</LatitudeDegrees>
              <LongitudeDegrees>-1.82248449884355068206787109375</LongitudeDegrees>
            </Position>
            <AltitudeMeters>486.79998779296875</AltitudeMeters>
            <DistanceMeters>6914.727513802</DistanceMeters>
          </Trackpoint>
          <Trackpoint>
            <Time>2021-08-09T08:32:28.000Z</Time>
            <Position>
              <LatitudeDegrees>42.95372807420790195465087890625</LatitudeDegrees>
              <LongitudeDegrees>-1.8224751949310302734375</LongitudeDegrees>
            </Position>
            <AltitudeMeters>487</AltitudeMeters>
            <DistanceMeters>6916.3734247757</DistanceMeters>
          </Trackpoint>
          <Trackpoint>
            <Time>2021-08-09T08:32:29.000Z</Time>
            <Position>
              <LatitudeDegrees>42.95371231622993946075439453125</LatitudeDegrees>
              <LongitudeDegrees>-1.82246773503720760345458984375</LongitudeDegrees>
            </Position>
            <AltitudeMeters>487</AltitudeMeters>
            <DistanceMeters>6918.2307048304</DistanceMeters>
          </Trackpoint>
          <Trackpoint>
            <Time>2021-08-09T08:32:30.000Z</Time>
            <Position>
              <LatitudeDegrees>42.95369722880423069000244140625</LatitudeDegrees>
              <LongitudeDegrees>-1.82246035896241664886474609375</LongitudeDegrees>
            </Position>
            <AltitudeMeters>487</AltitudeMeters>
            <DistanceMeters>6920.0135640251</DistanceMeters>
          </Trackpoint>
          <Trackpoint>
            <Time>2021-08-09T08:32:31.000Z</Time>
            <Position>
              <LatitudeDegrees>42.9536839015781879425048828125</LatitudeDegrees>
              <LongitudeDegrees>-1.82245415635406970977783203125</LongitudeDegrees>
            </Position>
            <AltitudeMeters>487.20001220703125</AltitudeMeters>
            <DistanceMeters>6921.5807847475</DistanceMeters>
          </Trackpoint>
          <Trackpoint>
            <Time>2021-08-09T08:32:32.000Z</Time>
            <Position>
              <LatitudeDegrees>42.95366873033344745635986328125</LatitudeDegrees>
              <LongitudeDegrees>-1.82244837284088134765625</LongitudeDegrees>
            </Position>
            <AltitudeMeters>487.20001220703125</AltitudeMeters>
            <DistanceMeters>6923.3355656647</DistanceMeters>
          </Trackpoint>
          <Trackpoint>
            <Time>2021-08-09T08:32:33.000Z</Time>
            <Position>
              <LatitudeDegrees>42.95365624129772186279296875</LatitudeDegrees>
              <LongitudeDegrees>-1.82243940420448780059814453125</LongitudeDegrees>
            </Position>
            <AltitudeMeters>487.600006103515625</AltitudeMeters>
            <DistanceMeters>6924.9056646646</DistanceMeters>
          </Trackpoint>
          <Trackpoint>
            <Time>2021-08-09T08:32:34.000Z</Time>
            <Position>
              <LatitudeDegrees>42.95364157296717166900634765625</LatitudeDegrees>
              <LongitudeDegrees>-1.82243001647293567657470703125</LongitudeDegrees>
            </Position>
            <AltitudeMeters>488</AltitudeMeters>
            <DistanceMeters>6926.7086698004</DistanceMeters>
          </Trackpoint>
          <Trackpoint>
            <Time>2021-08-09T08:32:35.000Z</Time>
            <Position>
              <LatitudeDegrees>42.95362807810306549072265625</LatitudeDegrees>
              <LongitudeDegrees>-1.8224228918552398681640625</LongitudeDegrees>
            </Position>
            <AltitudeMeters>488</AltitudeMeters>
            <DistanceMeters>6928.3157173613</DistanceMeters>
          </Trackpoint>
          <Trackpoint>
            <Time>2021-08-09T08:32:36.000Z</Time>
            <Position>
              <LatitudeDegrees>42.9536121524870395660400390625</LatitudeDegrees>
              <LongitudeDegrees>-1.82241291739046573638916015625</LongitudeDegrees>
            </Position>
            <AltitudeMeters>488.20001220703125</AltitudeMeters>
            <DistanceMeters>6930.2678168104</DistanceMeters>
          </Trackpoint>
          <Trackpoint>
            <Time>2021-08-09T08:32:37.000Z</Time>
            <Position>
              <LatitudeDegrees>42.953592874109745025634765625</LatitudeDegrees>
              <LongitudeDegrees>-1.82240017689764499664306640625</LongitudeDegrees>
            </Position>
            <AltitudeMeters>488.20001220703125</AltitudeMeters>
            <DistanceMeters>6932.649179447</DistanceMeters>
          </Trackpoint>
          <Trackpoint>
            <Time>2021-08-09T08:32:38.000Z</Time>
            <Position>
              <LatitudeDegrees>42.9535729251801967620849609375</LatitudeDegrees>
              <LongitudeDegrees>-1.82238726876676082611083984375</LongitudeDegrees>
            </Position>
            <AltitudeMeters>488.399993896484375</AltitudeMeters>
            <DistanceMeters>6935.1052110153</DistanceMeters>
          </Trackpoint>
          <Trackpoint>
            <Time>2021-08-09T08:32:39.000Z</Time>
            <Position>
              <LatitudeDegrees>42.95355473645031452178955078125</LatitudeDegrees>
              <LongitudeDegrees>-1.82237385772168636322021484375</LongitudeDegrees>
            </Position>
            <AltitudeMeters>488.600006103515625</AltitudeMeters>
            <DistanceMeters>6937.4055642047</DistanceMeters>
          </Trackpoint>
          <Trackpoint>
            <Time>2021-08-09T08:32:40.000Z</Time>
            <Position>
              <LatitudeDegrees>42.95353713445365428924560546875</LatitudeDegrees>
              <LongitudeDegrees>-1.82235960848629474639892578125</LongitudeDegrees>
            </Position>
            <AltitudeMeters>489</AltitudeMeters>
            <DistanceMeters>6939.6822424602</DistanceMeters>
          </Trackpoint>
          <Trackpoint>
            <Time>2021-08-09T08:32:41.000Z</Time>
            <Position>
              <LatitudeDegrees>42.9535192809998989105224609375</LatitudeDegrees>
              <LongitudeDegrees>-1.822347454726696014404296875</LongitudeDegrees>
            </Position>
            <AltitudeMeters>489.20001220703125</AltitudeMeters>
            <DistanceMeters>6941.90269776</DistanceMeters>
          </Trackpoint>
          <Trackpoint>
            <Time>2021-08-09T08:32:42.000Z</Time>
            <Position>
              <LatitudeDegrees>42.95350092463195323944091796875</LatitudeDegrees>
              <LongitudeDegrees>-1.82233278639614582061767578125</LongitudeDegrees>
            </Position>
            <AltitudeMeters>489.20001220703125</AltitudeMeters>
            <DistanceMeters>6944.268843866</DistanceMeters>
          </Trackpoint>
          <Trackpoint>
            <Time>2021-08-09T08:32:43.000Z</Time>
            <Position>
              <LatitudeDegrees>42.9534824006259441375732421875</LatitudeDegrees>
              <LongitudeDegrees>-1.82231501676142215728759765625</LongitudeDegrees>
            </Position>
            <AltitudeMeters>489.399993896484375</AltitudeMeters>
            <DistanceMeters>6946.7866035177</DistanceMeters>
          </Trackpoint>
          <Trackpoint>
            <Time>2021-08-09T08:32:44.000Z</Time>
            <Position>
              <LatitudeDegrees>42.953465469181537628173828125</LatitudeDegrees>
              <LongitudeDegrees>-1.82229640893638134002685546875</LongitudeDegrees>
            </Position>
            <AltitudeMeters>489.399993896484375</AltitudeMeters>
            <DistanceMeters>6949.2037215246</DistanceMeters>
          </Trackpoint>
          <Trackpoint>
            <Time>2021-08-09T08:32:45.000Z</Time>
            <Position>
              <LatitudeDegrees>42.95344962738454341888427734375</LatitudeDegrees>
              <LongitudeDegrees>-1.8222778849303722381591796875</LongitudeDegrees>
            </Position>
            <AltitudeMeters>489.399993896484375</AltitudeMeters>
            <DistanceMeters>6951.5236192725</DistanceMeters>
          </Trackpoint>
          <Trackpoint>
            <Time>2021-08-09T08:32:46.000Z</Time>
            <Position>
              <LatitudeDegrees>42.95343101955950260162353515625</LatitudeDegrees>
              <LongitudeDegrees>-1.822260953485965728759765625</LongitudeDegrees>
            </Position>
            <AltitudeMeters>489.600006103515625</AltitudeMeters>
            <DistanceMeters>6954.0125211268</DistanceMeters>
          </Trackpoint>
          <Trackpoint>
            <Time>2021-08-09T08:32:47.000Z</Time>
            <Position>
              <LatitudeDegrees>42.95341308228671550750732421875</LatitudeDegrees>
              <LongitudeDegrees>-1.82224385440349578857421875</LongitudeDegrees>
            </Position>
            <AltitudeMeters>489.600006103515625</AltitudeMeters>
            <DistanceMeters>6956.4463925588</DistanceMeters>
          </Trackpoint>
          <Trackpoint>
            <Time>2021-08-09T08:32:48.000Z</Time>
            <Position>
              <LatitudeDegrees>42.95339615084230899810791015625</LatitudeDegrees>
              <LongitudeDegrees>-1.82222600094974040985107421875</LongitudeDegrees>
            </Position>
            <AltitudeMeters>489.79998779296875</AltitudeMeters>
            <DistanceMeters>6958.8258584506</DistanceMeters>
          </Trackpoint>
          <Trackpoint>
            <Time>2021-08-09T08:32:49.000Z</Time>
            <Position>
              <LatitudeDegrees>42.95337838120758533477783203125</LatitudeDegrees>
              <LongitudeDegrees>-1.82220630347728729248046875</LongitudeDegrees>
            </Position>
            <AltitudeMeters>489.79998779296875</AltitudeMeters>
            <DistanceMeters>6961.3721488674</DistanceMeters>
          </Trackpoint>
          <Trackpoint>
            <Time>2021-08-09T08:32:50.000Z</Time>
            <Position>
              <LatitudeDegrees>42.95335943810641765594482421875</LatitudeDegrees>
              <LongitudeDegrees>-1.8221893720328807830810546875</LongitudeDegrees>
            </Position>
            <AltitudeMeters>490</AltitudeMeters>
            <DistanceMeters>6963.8934925204</DistanceMeters>
          </Trackpoint>
          <Trackpoint>
            <Time>2021-08-09T08:32:51.000Z</Time>
            <Position>
              <LatitudeDegrees>42.9533402435481548309326171875</LatitudeDegrees>
              <LongitudeDegrees>-1.8221759609878063201904296875</LongitudeDegrees>
            </Position>
            <AltitudeMeters>490.20001220703125</AltitudeMeters>
            <DistanceMeters>6966.2937401683</DistanceMeters>
          </Trackpoint>
          <Trackpoint>
            <Time>2021-08-09T08:32:52.000Z</Time>
            <Position>
              <LatitudeDegrees>42.9533204622566699981689453125</LatitudeDegrees>
              <LongitudeDegrees>-1.8221653997898101806640625</LongitudeDegrees>
            </Position>
            <AltitudeMeters>490.20001220703125</AltitudeMeters>
            <DistanceMeters>6968.656066827</DistanceMeters>
          </Trackpoint>
          <Trackpoint>
            <Time>2021-08-09T08:32:53.000Z</Time>
            <Position>
              <LatitudeDegrees>42.95330076478421688079833984375</LatitudeDegrees>
              <LongitudeDegrees>-1.82215173728764057159423828125</LongitudeDegrees>
            </Position>
            <AltitudeMeters>490.399993896484375</AltitudeMeters>
            <DistanceMeters>6971.1120983953</DistanceMeters>
          </Trackpoint>
          <Trackpoint>
            <Time>2021-08-09T08:32:54.000Z</Time>
            <Position>
              <LatitudeDegrees>42.95328014530241489410400390625</LatitudeDegrees>
              <LongitudeDegrees>-1.8221363984048366546630859375</LongitudeDegrees>
            </Position>
            <AltitudeMeters>490.600006103515625</AltitudeMeters>
            <DistanceMeters>6973.7249010652</DistanceMeters>
          </Trackpoint>
          <Trackpoint>
            <Time>2021-08-09T08:32:55.000Z</Time>
            <Position>
              <LatitudeDegrees>42.9532591067254543304443359375</LatitudeDegrees>
              <LongitudeDegrees>-1.8221270106732845306396484375</LongitudeDegrees>
            </Position>
            <AltitudeMeters>490.79998779296875</AltitudeMeters>
            <DistanceMeters>6976.1882750462</DistanceMeters>
          </Trackpoint>
          <Trackpoint>
            <Time>2021-08-09T08:32:56.000Z</Time>
            <Position>
              <LatitudeDegrees>42.9532398283481597900390625</LatitudeDegrees>
              <LongitudeDegrees>-1.82211510837078094482421875</LongitudeDegrees>
            </Position>
            <AltitudeMeters>491</AltitudeMeters>
            <DistanceMeters>6978.5448609269</DistanceMeters>
          </Trackpoint>
          <Trackpoint>
            <Time>2021-08-09T08:32:57.000Z</Time>
            <Position>
              <LatitudeDegrees>42.95322231017053127288818359375</LatitudeDegrees>
              <LongitudeDegrees>-1.8221025355160236358642578125</LongitudeDegrees>
            </Position>
            <AltitudeMeters>491.399993896484375</AltitudeMeters>
            <DistanceMeters>6980.748989128</DistanceMeters>
          </Trackpoint>
          <Trackpoint>
            <Time>2021-08-09T08:32:58.000Z</Time>
            <Position>
              <LatitudeDegrees>42.9532027803361415863037109375</LatitudeDegrees>
              <LongitudeDegrees>-1.82209155522286891937255859375</LongitudeDegrees>
            </Position>
            <AltitudeMeters>491.600006103515625</AltitudeMeters>
            <DistanceMeters>6983.0978988128</DistanceMeters>
          </Trackpoint>
          <Trackpoint>
            <Time>2021-08-09T08:32:59.000Z</Time>
            <Position>
              <LatitudeDegrees>42.9531823284924030303955078125</LatitudeDegrees>
              <LongitudeDegrees>-1.822081916034221649169921875</LongitudeDegrees>
            </Position>
            <AltitudeMeters>491.79998779296875</AltitudeMeters>
            <DistanceMeters>6985.5056589912</DistanceMeters>
          </Trackpoint>
          <Trackpoint>
            <Time>2021-08-09T08:33:00.000Z</Time>
            <Position>
              <LatitudeDegrees>42.95316003262996673583984375</LatitudeDegrees>
              <LongitudeDegrees>-1.82207546196877956390380859375</LongitudeDegrees>
            </Position>
            <AltitudeMeters>491.79998779296875</AltitudeMeters>
            <DistanceMeters>6988.044846771</DistanceMeters>
          </Trackpoint>
          <Trackpoint>
            <Time>2021-08-09T08:33:01.000Z</Time>
            <Position>
              <LatitudeDegrees>42.953133881092071533203125</LatitudeDegrees>
              <LongitudeDegrees>-1.82207244448363780975341796875</LongitudeDegrees>
            </Position>
            <AltitudeMeters>492</AltitudeMeters>
            <DistanceMeters>6990.9660489618</DistanceMeters>
          </Trackpoint>
          <Trackpoint>
            <Time>2021-08-09T08:33:02.000Z</Time>
            <Position>
              <LatitudeDegrees>42.953112088143825531005859375</LatitudeDegrees>
              <LongitudeDegrees>-1.82206708006560802459716796875</LongitudeDegrees>
            </Position>
            <AltitudeMeters>492.20001220703125</AltitudeMeters>
            <DistanceMeters>6993.4294229428</DistanceMeters>
          </Trackpoint>
          <Trackpoint>
            <Time>2021-08-09T08:33:03.000Z</Time>
            <Position>
              <LatitudeDegrees>42.9530923068523406982421875</LatitudeDegrees>
              <LongitudeDegrees>-1.8220582790672779083251953125</LongitudeDegrees>
            </Position>
            <AltitudeMeters>492.399993896484375</AltitudeMeters>
            <DistanceMeters>6995.7454249739</DistanceMeters>
          </Trackpoint>
          <Trackpoint>
            <Time>2021-08-09T08:33:04.000Z</Time>
            <Position>
              <LatitudeDegrees>42.95306959189474582672119140625</LatitudeDegrees>
              <LongitudeDegrees>-1.82205081917345523834228515625</LongitudeDegrees>
            </Position>
            <AltitudeMeters>492.79998779296875</AltitudeMeters>
            <DistanceMeters>6998.3443665238</DistanceMeters>
          </Trackpoint>
          <Trackpoint>
            <Time>2021-08-09T08:33:05.000Z</Time>
            <Position>
              <LatitudeDegrees>42.95305517502129077911376953125</LatitudeDegrees>
              <LongitudeDegrees>-1.82203598320484161376953125</LongitudeDegrees>
            </Position>
            <AltitudeMeters>492.79998779296875</AltitudeMeters>
            <DistanceMeters>7000.3512083447</DistanceMeters>
          </Trackpoint>
          <Trackpoint>
            <Time>2021-08-09T08:33:06.000Z</Time>
            <Position>
              <LatitudeDegrees>42.95303539372980594635009765625</LatitudeDegrees>
              <LongitudeDegrees>-1.82202994823455810546875</LongitudeDegrees>
            </Position>
            <AltitudeMeters>493</AltitudeMeters>
            <DistanceMeters>7002.6079677724</DistanceMeters>
          </Trackpoint>
          <Trackpoint>
            <Time>2021-08-09T08:33:07.000Z</Time>
            <Position>
              <LatitudeDegrees>42.9530126787722110748291015625</LatitudeDegrees>
              <LongitudeDegrees>-1.822026930749416351318359375</LongitudeDegrees>
            </Position>
            <AltitudeMeters>493.20001220703125</AltitudeMeters>
            <DistanceMeters>7005.1471555521</DistanceMeters>
          </Trackpoint>
          <Trackpoint>
            <Time>2021-08-09T08:33:08.000Z</Time>
            <Position>
              <LatitudeDegrees>42.95298811979591846466064453125</LatitudeDegrees>
              <LongitudeDegrees>-1.82202198542654514312744140625</LongitudeDegrees>
            </Position>
            <AltitudeMeters>493.399993896484375</AltitudeMeters>
            <DistanceMeters>7007.9094760613</DistanceMeters>
          </Trackpoint>
          <Trackpoint>
            <Time>2021-08-09T08:33:09.000Z</Time>
            <Position>
              <LatitudeDegrees>42.95296532101929187774658203125</LatitudeDegrees>
              <LongitudeDegrees>-1.82201477698981761932373046875</LongitudeDegrees>
            </Position>
            <AltitudeMeters>493.399993896484375</AltitudeMeters>
            <DistanceMeters>7010.5118898126</DistanceMeters>
          </Trackpoint>
          <Trackpoint>
            <Time>2021-08-09T08:33:10.000Z</Time>
            <Position>
              <LatitudeDegrees>42.9529446177184581756591796875</LatitudeDegrees>
              <LongitudeDegrees>-1.82200438342988491058349609375</LongitudeDegrees>
            </Position>
            <AltitudeMeters>493.399993896484375</AltitudeMeters>
            <DistanceMeters>7012.9660823454</DistanceMeters>
          </Trackpoint>
          <Trackpoint>
            <Time>2021-08-09T08:33:11.000Z</Time>
            <Position>
              <LatitudeDegrees>42.9529238305985927581787109375</LatitudeDegrees>
              <LongitudeDegrees>-1.8219945766031742095947265625</LongitudeDegrees>
            </Position>
            <AltitudeMeters>493.600006103515625</AltitudeMeters>
            <DistanceMeters>7015.412904914</DistanceMeters>
          </Trackpoint>
          <Trackpoint>
            <Time>2021-08-09T08:33:12.000Z</Time>
            <Position>
              <LatitudeDegrees>42.9529037140309810638427734375</LatitudeDegrees>
              <LongitudeDegrees>-1.82198627851903438568115234375</LongitudeDegrees>
            </Position>
            <AltitudeMeters>493.600006103515625</AltitudeMeters>
            <DistanceMeters>7017.7502530371</DistanceMeters>
          </Trackpoint>
          <Trackpoint>
            <Time>2021-08-09T08:33:13.000Z</Time>
            <Position>
              <LatitudeDegrees>42.95288217253983020782470703125</LatitudeDegrees>
              <LongitudeDegrees>-1.8219801597297191619873046875</LongitudeDegrees>
            </Position>
            <AltitudeMeters>493.79998779296875</AltitudeMeters>
            <DistanceMeters>7020.1989201763</DistanceMeters>
          </Trackpoint>
          <Trackpoint>
            <Time>2021-08-09T08:33:14.000Z</Time>
            <Position>
              <LatitudeDegrees>42.95285635627806186676025390625</LatitudeDegrees>
              <LongitudeDegrees>-1.82197370566427707672119140625</LongitudeDegrees>
            </Position>
            <AltitudeMeters>494</AltitudeMeters>
            <DistanceMeters>7023.1216675681</DistanceMeters>
          </Trackpoint>
          <Trackpoint>
            <Time>2021-08-09T08:33:15.000Z</Time>
            <Position>
              <LatitudeDegrees>42.95283255167305469512939453125</LatitudeDegrees>
              <LongitudeDegrees>-1.82196632958948612213134765625</LongitudeDegrees>
            </Position>
            <AltitudeMeters>494.20001220703125</AltitudeMeters>
            <DistanceMeters>7025.8394980505</DistanceMeters>
          </Trackpoint>
          <Trackpoint>
            <Time>2021-08-09T08:33:16.000Z</Time>
            <Position>
              <LatitudeDegrees>42.95281059108674526214599609375</LatitudeDegrees>
              <LongitudeDegrees>-1.8219603784382343292236328125</LongitudeDegrees>
            </Position>
            <AltitudeMeters>494.399993896484375</AltitudeMeters>
            <DistanceMeters>7028.3320254011</DistanceMeters>
          </Trackpoint>
          <Trackpoint>
            <Time>2021-08-09T08:33:17.000Z</Time>
            <Position>
              <LatitudeDegrees>42.95278527773916721343994140625</LatitudeDegrees>
              <LongitudeDegrees>-1.8219543434679508209228515625</LongitudeDegrees>
            </Position>
            <AltitudeMeters>494.399993896484375</AltitudeMeters>
            <DistanceMeters>7031.1923137184</DistanceMeters>
          </Trackpoint>
          <Trackpoint>
            <Time>2021-08-09T08:33:18.000Z</Time>
            <Position>
              <LatitudeDegrees>42.95276398770511150360107421875</LatitudeDegrees>
              <LongitudeDegrees>-1.82194839231669902801513671875</LongitudeDegrees>
            </Position>
            <AltitudeMeters>494.600006103515625</AltitudeMeters>
            <DistanceMeters>7033.6112989469</DistanceMeters>
          </Trackpoint>
          <Trackpoint>
            <Time>2021-08-09T08:33:19.000Z</Time>
            <Position>
              <LatitudeDegrees>42.9527431167662143707275390625</LatitudeDegrees>
              <LongitudeDegrees>-1.82194252498447895050048828125</LongitudeDegrees>
            </Position>
            <AltitudeMeters>494.600006103515625</AltitudeMeters>
            <DistanceMeters>7035.9812583449</DistanceMeters>
          </Trackpoint>
          <Trackpoint>
            <Time>2021-08-09T08:33:20.000Z</Time>
            <Position>
              <LatitudeDegrees>42.9527203179895877838134765625</LatitudeDegrees>
              <LongitudeDegrees>-1.8219365738332271575927734375</LongitudeDegrees>
            </Position>
            <AltitudeMeters>494.79998779296875</AltitudeMeters>
            <DistanceMeters>7038.562768836</DistanceMeters>
          </Trackpoint>
          <Trackpoint>
            <Time>2021-08-09T08:33:21.000Z</Time>
            <Position>
              <LatitudeDegrees>42.95269743539392948150634765625</LatitudeDegrees>
              <LongitudeDegrees>-1.82193162851035594940185546875</LongitudeDegrees>
            </Position>
            <AltitudeMeters>494.79998779296875</AltitudeMeters>
            <DistanceMeters>7041.1390270114</DistanceMeters>
          </Trackpoint>
          <Trackpoint>
            <Time>2021-08-09T08:33:22.000Z</Time>
            <Position>
              <LatitudeDegrees>42.95267463661730289459228515625</LatitudeDegrees>
              <LongitudeDegrees>-1.82192601263523101806640625</LongitudeDegrees>
            </Position>
            <AltitudeMeters>495</AltitudeMeters>
            <DistanceMeters>7043.7170371477</DistanceMeters>
          </Trackpoint>
          <Trackpoint>
            <Time>2021-08-09T08:33:23.000Z</Time>
            <Position>
              <LatitudeDegrees>42.95265351422131061553955078125</LatitudeDegrees>
              <LongitudeDegrees>-1.8219191394746303558349609375</LongitudeDegrees>
            </Position>
            <AltitudeMeters>495.20001220703125</AltitudeMeters>
            <DistanceMeters>7046.1360223762</DistanceMeters>
          </Trackpoint>
          <Trackpoint>
            <Time>2021-08-09T08:33:24.000Z</Time>
            <Position>
              <LatitudeDegrees>42.95262887142598628997802734375</LatitudeDegrees>
              <LongitudeDegrees>-1.82191721163690090179443359375</LongitudeDegrees>
            </Position>
            <AltitudeMeters>495.399993896484375</AltitudeMeters>
            <DistanceMeters>7048.8835929225</DistanceMeters>
          </Trackpoint>
          <Trackpoint>
            <Time>2021-08-09T08:33:25.000Z</Time>
            <Position>
              <LatitudeDegrees>42.95260506682097911834716796875</LatitudeDegrees>
              <LongitudeDegrees>-1.82191268540918827056884765625</LongitudeDegrees>
            </Position>
            <AltitudeMeters>495.600006103515625</AltitudeMeters>
            <DistanceMeters>7051.5578817146</DistanceMeters>
          </Trackpoint>
          <Trackpoint>
            <Time>2021-08-09T08:33:26.000Z</Time>
            <Position>
              <LatitudeDegrees>42.952581681311130523681640625</LatitudeDegrees>
              <LongitudeDegrees>-1.8219067342579364776611328125</LongitudeDegrees>
            </Position>
            <AltitudeMeters>495.79998779296875</AltitudeMeters>
            <DistanceMeters>7054.2050196635</DistanceMeters>
          </Trackpoint>
          <Trackpoint>
            <Time>2021-08-09T08:33:27.000Z</Time>
            <Position>
              <LatitudeDegrees>42.95255695469677448272705078125</LatitudeDegrees>
              <LongitudeDegrees>-1.8219025433063507080078125</LongitudeDegrees>
            </Position>
            <AltitudeMeters>495.79998779296875</AltitudeMeters>
            <DistanceMeters>7056.978758139</DistanceMeters>
          </Trackpoint>
          <Trackpoint>
            <Time>2021-08-09T08:33:28.000Z</Time>
            <Position>
              <LatitudeDegrees>42.95253247953951358795166015625</LatitudeDegrees>
              <LongitudeDegrees>-1.82189944200217723846435546875</LongitudeDegrees>
            </Position>
            <AltitudeMeters>496</AltitudeMeters>
            <DistanceMeters>7059.7148015181</DistanceMeters>
          </Trackpoint>
          <Trackpoint>
            <Time>2021-08-09T08:33:29.000Z</Time>
            <Position>
              <LatitudeDegrees>42.95250733382999897003173828125</LatitudeDegrees>
              <LongitudeDegrees>-1.82189944200217723846435546875</LongitudeDegrees>
            </Position>
            <AltitudeMeters>496</AltitudeMeters>
            <DistanceMeters>7062.5144633464</DistanceMeters>
          </Trackpoint>
          <Trackpoint>
            <Time>2021-08-09T08:33:30.000Z</Time>
            <Position>
              <LatitudeDegrees>42.95248419977724552154541015625</LatitudeDegrees>
              <LongitudeDegrees>-1.82189642451703548431396484375</LongitudeDegrees>
            </Position>
            <AltitudeMeters>496</AltitudeMeters>
            <DistanceMeters>7065.1012154886</DistanceMeters>
          </Trackpoint>
          <Trackpoint>
            <Time>2021-08-09T08:33:31.000Z</Time>
            <Position>
              <LatitudeDegrees>42.9524598084390163421630859375</LatitudeDegrees>
              <LongitudeDegrees>-1.82189290411770343780517578125</LongitudeDegrees>
            </Position>
            <AltitudeMeters>496.20001220703125</AltitudeMeters>
            <DistanceMeters>7067.8306500576</DistanceMeters>
          </Trackpoint>
          <Trackpoint>
            <Time>2021-08-09T08:33:32.000Z</Time>
            <Position>
              <LatitudeDegrees>42.9524376802146434783935546875</LatitudeDegrees>
              <LongitudeDegrees>-1.8218891322612762451171875</LongitudeDegrees>
            </Position>
            <AltitudeMeters>496.20001220703125</AltitudeMeters>
            <DistanceMeters>7070.3122850297</DistanceMeters>
          </Trackpoint>
          <Trackpoint>
            <Time>2021-08-09T08:33:33.000Z</Time>
            <Position>
              <LatitudeDegrees>42.95241706073284149169921875</LatitudeDegrees>
              <LongitudeDegrees>-1.8218849413096904754638671875</LongitudeDegrees>
            </Position>
            <AltitudeMeters>496.20001220703125</AltitudeMeters>
            <DistanceMeters>7072.6321827775</DistanceMeters>
          </Trackpoint>
          <Trackpoint>
            <Time>2021-08-09T08:33:34.000Z</Time>
            <Position>
              <LatitudeDegrees>42.95240071602165699005126953125</LatitudeDegrees>
              <LongitudeDegrees>-1.8218758888542652130126953125</LongitudeDegrees>
            </Position>
            <AltitudeMeters>496.399993896484375</AltitudeMeters>
            <DistanceMeters>7074.5935120628</DistanceMeters>
          </Trackpoint>
          <Trackpoint>
            <Time>2021-08-09T08:33:35.000Z</Time>
            <Position>
              <LatitudeDegrees>42.95237892307341098785400390625</LatitudeDegrees>
              <LongitudeDegrees>-1.82187312282621860504150390625</LongitudeDegrees>
            </Position>
            <AltitudeMeters>496.399993896484375</AltitudeMeters>
            <DistanceMeters>7077.0273834947</DistanceMeters>
          </Trackpoint>
          <Trackpoint>
            <Time>2021-08-09T08:33:36.000Z</Time>
            <Position>
              <LatitudeDegrees>42.95235612429678440093994140625</LatitudeDegrees>
              <LongitudeDegrees>-1.82187127880752086639404296875</LongitudeDegrees>
            </Position>
            <AltitudeMeters>496.600006103515625</AltitudeMeters>
            <DistanceMeters>7079.570125073</DistanceMeters>
          </Trackpoint>
          <Trackpoint>
            <Time>2021-08-09T08:33:37.000Z</Time>
            <Position>
              <LatitudeDegrees>42.952334247529506683349609375</LatitudeDegrees>
              <LongitudeDegrees>-1.8218691833317279815673828125</LongitudeDegrees>
            </Position>
            <AltitudeMeters>496.79998779296875</AltitudeMeters>
            <DistanceMeters>7082.0114055675</DistanceMeters>
          </Trackpoint>
          <Trackpoint>
            <Time>2021-08-09T08:33:38.000Z</Time>
            <Position>
              <LatitudeDegrees>42.95231170020997524261474609375</LatitudeDegrees>
              <LongitudeDegrees>-1.82187010534107685089111328125</LongitudeDegrees>
            </Position>
            <AltitudeMeters>496.79998779296875</AltitudeMeters>
            <DistanceMeters>7084.5219818675</DistanceMeters>
          </Trackpoint>
          <Trackpoint>
            <Time>2021-08-09T08:33:39.000Z</Time>
            <Position>
              <LatitudeDegrees>42.95228705741465091705322265625</LatitudeDegrees>
              <LongitudeDegrees>-1.82187178172171115875244140625</LongitudeDegrees>
            </Position>
            <AltitudeMeters>497</AltitudeMeters>
            <DistanceMeters>7087.2662638782</DistanceMeters>
          </Trackpoint>
          <Trackpoint>
            <Time>2021-08-09T08:33:40.000Z</Time>
            <Position>
              <LatitudeDegrees>42.9522653482854366302490234375</LatitudeDegrees>
              <LongitudeDegrees>-1.8218701891601085662841796875</LongitudeDegrees>
            </Position>
            <AltitudeMeters>497.20001220703125</AltitudeMeters>
            <DistanceMeters>7089.6852491067</DistanceMeters>
          </Trackpoint>
          <Trackpoint>
            <Time>2021-08-09T08:33:41.000Z</Time>
            <Position>
              <LatitudeDegrees>42.95224246568977832794189453125</LatitudeDegrees>
              <LongitudeDegrees>-1.8218661658465862274169921875</LongitudeDegrees>
            </Position>
            <AltitudeMeters>497.20001220703125</AltitudeMeters>
            <DistanceMeters>7092.2527295456</DistanceMeters>
          </Trackpoint>
          <Trackpoint>
            <Time>2021-08-09T08:33:42.000Z</Time>
            <Position>
              <LatitudeDegrees>42.95222016982734203338623046875</LatitudeDegrees>
              <LongitudeDegrees>-1.8218611367046833038330078125</LongitudeDegrees>
            </Position>
            <AltitudeMeters>497.399993896484375</AltitudeMeters>
            <DistanceMeters>7094.7704891973</DistanceMeters>
          </Trackpoint>
          <Trackpoint>
            <Time>2021-08-09T08:33:43.000Z</Time>
            <Position>
              <LatitudeDegrees>42.9521979577839374542236328125</LatitudeDegrees>
              <LongitudeDegrees>-1.82185619138181209564208984375</LongitudeDegrees>
            </Position>
            <AltitudeMeters>497.600006103515625</AltitudeMeters>
            <DistanceMeters>7097.2756644663</DistanceMeters>
          </Trackpoint>
          <Trackpoint>
            <Time>2021-08-09T08:33:44.000Z</Time>
            <Position>
              <LatitudeDegrees>42.9521761648356914520263671875</LatitudeDegrees>
              <LongitudeDegrees>-1.821852587163448333740234375</LongitudeDegrees>
            </Position>
            <AltitudeMeters>497.79998779296875</AltitudeMeters>
            <DistanceMeters>7099.7206410727</DistanceMeters>
          </Trackpoint>
          <Trackpoint>
            <Time>2021-08-09T08:33:45.000Z</Time>
            <Position>
              <LatitudeDegrees>42.9521543718874454498291015625</LatitudeDegrees>
              <LongitudeDegrees>-1.8218494020402431488037109375</LongitudeDegrees>
            </Position>
            <AltitudeMeters>498</AltitudeMeters>
            <DistanceMeters>7102.1600714112</DistanceMeters>
          </Trackpoint>
          <Trackpoint>
            <Time>2021-08-09T08:33:46.000Z</Time>
            <Position>
              <LatitudeDegrees>42.95213283039629459381103515625</LatitudeDegrees>
              <LongitudeDegrees>-1.8218460492789745330810546875</LongitudeDegrees>
            </Position>
            <AltitudeMeters>498</AltitudeMeters>
            <DistanceMeters>7104.5715790786</DistanceMeters>
          </Trackpoint>
          <Trackpoint>
            <Time>2021-08-09T08:33:47.000Z</Time>
            <Position>
              <LatitudeDegrees>42.952113635838031768798828125</LatitudeDegrees>
              <LongitudeDegrees>-1.82183993048965930938720703125</LongitudeDegrees>
            </Position>
            <AltitudeMeters>498.20001220703125</AltitudeMeters>
            <DistanceMeters>7106.7633821419</DistanceMeters>
          </Trackpoint>
          <Trackpoint>
            <Time>2021-08-09T08:33:48.000Z</Time>
            <Position>
              <LatitudeDegrees>42.952094189822673797607421875</LatitudeDegrees>
              <LongitudeDegrees>-1.8218386732041835784912109375</LongitudeDegrees>
            </Position>
            <AltitudeMeters>498.20001220703125</AltitudeMeters>
            <DistanceMeters>7108.930324631</DistanceMeters>
          </Trackpoint>
          <Trackpoint>
            <Time>2021-08-09T08:33:49.000Z</Time>
            <Position>
              <LatitudeDegrees>42.95207315124571323394775390625</LatitudeDegrees>
              <LongitudeDegrees>-1.82183557190001010894775390625</LongitudeDegrees>
            </Position>
            <AltitudeMeters>498.20001220703125</AltitudeMeters>
            <DistanceMeters>7111.2849938087</DistanceMeters>
          </Trackpoint>
          <Trackpoint>
            <Time>2021-08-09T08:33:50.000Z</Time>
            <Position>
              <LatitudeDegrees>42.95205202884972095489501953125</LatitudeDegrees>
              <LongitudeDegrees>-1.821827776730060577392578125</LongitudeDegrees>
            </Position>
            <AltitudeMeters>498.399993896484375</AltitudeMeters>
            <DistanceMeters>7113.7188652406</DistanceMeters>
          </Trackpoint>
          <Trackpoint>
            <Time>2021-08-09T08:33:51.000Z</Time>
            <Position>
              <LatitudeDegrees>42.9520309902727603912353515625</LatitudeDegrees>
              <LongitudeDegrees>-1.82182232849299907684326171875</LongitudeDegrees>
            </Position>
            <AltitudeMeters>498.600006103515625</AltitudeMeters>
            <DistanceMeters>7116.1021231124</DistanceMeters>
          </Trackpoint>
          <Trackpoint>
            <Time>2021-08-09T08:33:52.000Z</Time>
            <Position>
              <LatitudeDegrees>42.95200844295322895050048828125</LatitudeDegrees>
              <LongitudeDegrees>-1.82181964628398418426513671875</LongitudeDegrees>
            </Position>
            <AltitudeMeters>498.600006103515625</AltitudeMeters>
            <DistanceMeters>7118.621675402</DistanceMeters>
          </Trackpoint>
          <Trackpoint>
            <Time>2021-08-09T08:33:53.000Z</Time>
            <Position>
              <LatitudeDegrees>42.951987572014331817626953125</LatitudeDegrees>
              <LongitudeDegrees>-1.82181361131370067596435546875</LongitudeDegrees>
            </Position>
            <AltitudeMeters>498.600006103515625</AltitudeMeters>
            <DistanceMeters>7120.9954419661</DistanceMeters>
          </Trackpoint>
          <Trackpoint>
            <Time>2021-08-09T08:33:54.000Z</Time>
            <Position>
              <LatitudeDegrees>42.951967455446720123291015625</LatitudeDegrees>
              <LongitudeDegrees>-1.8218068219721317291259765625</LongitudeDegrees>
            </Position>
            <AltitudeMeters>498.79998779296875</AltitudeMeters>
            <DistanceMeters>7123.3016759147</DistanceMeters>
          </Trackpoint>
          <Trackpoint>
            <Time>2021-08-09T08:33:55.000Z</Time>
            <Position>
              <LatitudeDegrees>42.9519428126513957977294921875</LatitudeDegrees>
              <LongitudeDegrees>-1.82180204428732395172119140625</LongitudeDegrees>
            </Position>
            <AltitudeMeters>499</AltitudeMeters>
            <DistanceMeters>7126.0721569158</DistanceMeters>
          </Trackpoint>
          <Trackpoint>
            <Time>2021-08-09T08:33:56.000Z</Time>
            <Position>
              <LatitudeDegrees>42.95192026533186435699462890625</LatitudeDegrees>
              <LongitudeDegrees>-1.8217925727367401123046875</LongitudeDegrees>
            </Position>
            <AltitudeMeters>499.20001220703125</AltitudeMeters>
            <DistanceMeters>7128.6953073595</DistanceMeters>
          </Trackpoint>
          <Trackpoint>
            <Time>2021-08-09T08:33:57.000Z</Time>
            <Position>
              <LatitudeDegrees>42.95189729891717433929443359375</LatitudeDegrees>
              <LongitudeDegrees>-1.8217810057103633880615234375</LongitudeDegrees>
            </Position>
            <AltitudeMeters>499.20001220703125</AltitudeMeters>
            <DistanceMeters>7131.4197748005</DistanceMeters>
          </Trackpoint>
          <Trackpoint>
            <Time>2021-08-09T08:33:58.000Z</Time>
            <Position>
              <LatitudeDegrees>42.9518737457692623138427734375</LatitudeDegrees>
              <LongitudeDegrees>-1.8217722885310649871826171875</LongitudeDegrees>
            </Position>
            <AltitudeMeters>499.399993896484375</AltitudeMeters>
            <DistanceMeters>7134.1376052829</DistanceMeters>
          </Trackpoint>
          <Trackpoint>
            <Time>2021-08-09T08:33:59.000Z</Time>
            <Position>
              <LatitudeDegrees>42.95185203664004802703857421875</LatitudeDegrees>
              <LongitudeDegrees>-1.8217612244188785552978515625</LongitudeDegrees>
            </Position>
            <AltitudeMeters>499.399993896484375</AltitudeMeters>
            <DistanceMeters>7136.7173661902</DistanceMeters>
          </Trackpoint>
          <Trackpoint>
            <Time>2021-08-09T08:34:00.000Z</Time>
            <Position>
              <LatitudeDegrees>42.9518301598727703094482421875</LatitudeDegrees>
              <LongitudeDegrees>-1.82174923829734325408935546875</LongitudeDegrees>
            </Position>
            <AltitudeMeters>499.600006103515625</AltitudeMeters>
            <DistanceMeters>7139.3405166339</DistanceMeters>
          </Trackpoint>
          <Trackpoint>
            <Time>2021-08-09T08:34:01.000Z</Time>
            <Position>
              <LatitudeDegrees>42.95180962421000003814697265625</LatitudeDegrees>
              <LongitudeDegrees>-1.82173515670001506805419921875</LongitudeDegrees>
            </Position>
            <AltitudeMeters>499.600006103515625</AltitudeMeters>
            <DistanceMeters>7141.8974240131</DistanceMeters>
          </Trackpoint>
          <Trackpoint>
            <Time>2021-08-09T08:34:02.000Z</Time>
            <Position>
              <LatitudeDegrees>42.95178674161434173583984375</LatitudeDegrees>
              <LongitudeDegrees>-1.821725182235240936279296875</LongitudeDegrees>
            </Position>
            <AltitudeMeters>499.79998779296875</AltitudeMeters>
            <DistanceMeters>7144.5717128052</DistanceMeters>
          </Trackpoint>
          <Trackpoint>
            <Time>2021-08-09T08:34:03.000Z</Time>
            <Position>
              <LatitudeDegrees>42.95176528394222259521484375</LatitudeDegrees>
              <LongitudeDegrees>-1.82171185500919818878173828125</LongitudeDegrees>
            </Position>
            <AltitudeMeters>500</AltitudeMeters>
            <DistanceMeters>7147.1948632489</DistanceMeters>
          </Trackpoint>
          <Trackpoint>
            <Time>2021-08-09T08:34:04.000Z</Time>
            <Position>
              <LatitudeDegrees>42.95174491591751575469970703125</LatitudeDegrees>
              <LongitudeDegrees>-1.82169794104993343353271484375</LongitudeDegrees>
            </Position>
            <AltitudeMeters>500</AltitudeMeters>
            <DistanceMeters>7149.7287109854</DistanceMeters>
          </Trackpoint>
          <Trackpoint>
            <Time>2021-08-09T08:34:05.000Z</Time>
            <Position>
              <LatitudeDegrees>42.951725386083126068115234375</LatitudeDegrees>
              <LongitudeDegrees>-1.82168318890035152435302734375</LongitudeDegrees>
            </Position>
            <AltitudeMeters>500.20001220703125</AltitudeMeters>
            <DistanceMeters>7152.2103459575</DistanceMeters>
          </Trackpoint>
          <Trackpoint>
            <Time>2021-08-09T08:34:06.000Z</Time>
            <Position>
              <LatitudeDegrees>42.95170627534389495849609375</LatitudeDegrees>
              <LongitudeDegrees>-1.82166986167430877685546875</LongitudeDegrees>
            </Position>
            <AltitudeMeters>500.20001220703125</AltitudeMeters>
            <DistanceMeters>7154.5992805134</DistanceMeters>
          </Trackpoint>
          <Trackpoint>
            <Time>2021-08-09T08:34:07.000Z</Time>
            <Position>
              <LatitudeDegrees>42.95168540440499782562255859375</LatitudeDegrees>
              <LongitudeDegrees>-1.82165653444826602935791015625</LongitudeDegrees>
            </Position>
            <AltitudeMeters>500.399993896484375</AltitudeMeters>
            <DistanceMeters>7157.1632414435</DistanceMeters>
          </Trackpoint>
          <Trackpoint>
            <Time>2021-08-09T08:34:08.000Z</Time>
            <Position>
              <LatitudeDegrees>42.95166738331317901611328125</LatitudeDegrees>
              <LongitudeDegrees>-1.82164111174643039703369140625</LongitudeDegrees>
            </Position>
            <AltitudeMeters>500.600006103515625</AltitudeMeters>
            <DistanceMeters>7159.5312949631</DistanceMeters>
          </Trackpoint>
          <Trackpoint>
            <Time>2021-08-09T08:34:09.000Z</Time>
            <Position>
              <LatitudeDegrees>42.95164860785007476806640625</LatitudeDegrees>
              <LongitudeDegrees>-1.821624599397182464599609375</LongitudeDegrees>
            </Position>
            <AltitudeMeters>500.79998779296875</AltitudeMeters>
            <DistanceMeters>7162.0165660324</DistanceMeters>
          </Trackpoint>
          <Trackpoint>
            <Time>2021-08-09T08:34:10.000Z</Time>
            <Position>
              <LatitudeDegrees>42.95162974856793880462646484375</LatitudeDegrees>
              <LongitudeDegrees>-1.82160574011504650115966796875</LongitudeDegrees>
            </Position>
            <AltitudeMeters>500.79998779296875</AltitudeMeters>
            <DistanceMeters>7164.6155075823</DistanceMeters>
          </Trackpoint>
          <Trackpoint>
            <Time>2021-08-09T08:34:11.000Z</Time>
            <Position>
              <LatitudeDegrees>42.9516117274761199951171875</LatitudeDegrees>
              <LongitudeDegrees>-1.82158763520419597625732421875</LongitudeDegrees>
            </Position>
            <AltitudeMeters>500.79998779296875</AltitudeMeters>
            <DistanceMeters>7167.1044094367</DistanceMeters>
          </Trackpoint>
          <Trackpoint>
            <Time>2021-08-09T08:34:12.000Z</Time>
            <Position>
              <LatitudeDegrees>42.95159370638430118560791015625</LatitudeDegrees>
              <LongitudeDegrees>-1.82156785391271114349365234375</LongitudeDegrees>
            </Position>
            <AltitudeMeters>500.79998779296875</AltitudeMeters>
            <DistanceMeters>7169.678914459</DistanceMeters>
          </Trackpoint>
          <Trackpoint>
            <Time>2021-08-09T08:34:13.000Z</Time>
            <Position>
              <LatitudeDegrees>42.95157643966376781463623046875</LatitudeDegrees>
              <LongitudeDegrees>-1.821548156440258026123046875</LongitudeDegrees>
            </Position>
            <AltitudeMeters>500.79998779296875</AltitudeMeters>
            <DistanceMeters>7172.1822867949</DistanceMeters>
          </Trackpoint>
          <Trackpoint>
            <Time>2021-08-09T08:34:14.000Z</Time>
            <Position>
              <LatitudeDegrees>42.95156001113355159759521484375</LatitudeDegrees>
              <LongitudeDegrees>-1.82152896188199520111083984375</LongitudeDegrees>
            </Position>
            <AltitudeMeters>501</AltitudeMeters>
            <DistanceMeters>7174.5900469733</DistanceMeters>
          </Trackpoint>
          <Trackpoint>
            <Time>2021-08-09T08:34:15.000Z</Time>
            <Position>
              <LatitudeDegrees>42.95154140330851078033447265625</LatitudeDegrees>
              <LongitudeDegrees>-1.8215095996856689453125</LongitudeDegrees>
            </Position>
            <AltitudeMeters>501</AltitudeMeters>
            <DistanceMeters>7177.1941950892</DistanceMeters>
          </Trackpoint>
          <Trackpoint>
            <Time>2021-08-09T08:34:16.000Z</Time>
            <Position>
              <LatitudeDegrees>42.951524555683135986328125</LatitudeDegrees>
              <LongitudeDegrees>-1.82149057276546955108642578125</LongitudeDegrees>
            </Position>
            <AltitudeMeters>501.20001220703125</AltitudeMeters>
            <DistanceMeters>7179.6280665212</DistanceMeters>
          </Trackpoint>
          <Trackpoint>
            <Time>2021-08-09T08:34:17.000Z</Time>
            <Position>
              <LatitudeDegrees>42.9515103064477443695068359375</LatitudeDegrees>
              <LongitudeDegrees>-1.82146861217916011810302734375</LongitudeDegrees>
            </Position>
            <AltitudeMeters>501.399993896484375</AltitudeMeters>
            <DistanceMeters>7182.01889031</DistanceMeters>
          </Trackpoint>
          <Trackpoint>
            <Time>2021-08-09T08:34:18.000Z</Time>
            <Position>
              <LatitudeDegrees>42.9514965601265430450439453125</LatitudeDegrees>
              <LongitudeDegrees>-1.82144899852573871612548828125</LongitudeDegrees>
            </Position>
            <AltitudeMeters>501.399993896484375</AltitudeMeters>
            <DistanceMeters>7184.2311971225</DistanceMeters>
          </Trackpoint>
          <Trackpoint>
            <Time>2021-08-09T08:34:19.000Z</Time>
            <Position>
              <LatitudeDegrees>42.95148105360567569732666015625</LatitudeDegrees>
              <LongitudeDegrees>-1.82142913341522216796875</LongitudeDegrees>
            </Position>
            <AltitudeMeters>501.600006103515625</AltitudeMeters>
            <DistanceMeters>7186.5973432285</DistanceMeters>
          </Trackpoint>
          <Trackpoint>
            <Time>2021-08-09T08:34:20.000Z</Time>
            <Position>
              <LatitudeDegrees>42.951463870704174041748046875</LatitudeDegrees>
              <LongitudeDegrees>-1.82140700519084930419921875</LongitudeDegrees>
            </Position>
            <AltitudeMeters>501.600006103515625</AltitudeMeters>
            <DistanceMeters>7189.2273695698</DistanceMeters>
          </Trackpoint>
          <Trackpoint>
            <Time>2021-08-09T08:34:21.000Z</Time>
            <Position>
              <LatitudeDegrees>42.95144802890717983245849609375</LatitudeDegrees>
              <LongitudeDegrees>-1.82138420641422271728515625</LongitudeDegrees>
            </Position>
            <AltitudeMeters>501.600006103515625</AltitudeMeters>
            <DistanceMeters>7191.7895689326</DistanceMeters>
          </Trackpoint>
          <Trackpoint>
            <Time>2021-08-09T08:34:22.000Z</Time>
            <Position>
              <LatitudeDegrees>42.951432354748249053955078125</LatitudeDegrees>
              <LongitudeDegrees>-1.8213625811040401458740234375</LongitudeDegrees>
            </Position>
            <AltitudeMeters>501.600006103515625</AltitudeMeters>
            <DistanceMeters>7194.2675624722</DistanceMeters>
          </Trackpoint>
          <Trackpoint>
            <Time>2021-08-09T08:34:23.000Z</Time>
            <Position>
              <LatitudeDegrees>42.9514191113412380218505859375</LatitudeDegrees>
              <LongitudeDegrees>-1.8213407881557941436767578125</LongitudeDegrees>
            </Position>
            <AltitudeMeters>501.79998779296875</AltitudeMeters>
            <DistanceMeters>7196.5757533442</DistanceMeters>
          </Trackpoint>
          <Trackpoint>
            <Time>2021-08-09T08:34:24.000Z</Time>
            <Position>
              <LatitudeDegrees>42.95141014270484447479248046875</LatitudeDegrees>
              <LongitudeDegrees>-1.82132075540721416473388671875</LongitudeDegrees>
            </Position>
            <AltitudeMeters>502</AltitudeMeters>
            <DistanceMeters>7198.4904885834</DistanceMeters>
          </Trackpoint>
          <Trackpoint>
            <Time>2021-08-09T08:34:25.000Z</Time>
            <Position>
              <LatitudeDegrees>42.95140192843973636627197265625</LatitudeDegrees>
              <LongitudeDegrees>-1.82129711844027042388916015625</LongitudeDegrees>
            </Position>
            <AltitudeMeters>502</AltitudeMeters>
            <DistanceMeters>7200.6195959962</DistanceMeters>
          </Trackpoint>
          <Trackpoint>
            <Time>2021-08-09T08:34:26.000Z</Time>
            <Position>
              <LatitudeDegrees>42.95139086432754993438720703125</LatitudeDegrees>
              <LongitudeDegrees>-1.8212737329304218292236328125</LongitudeDegrees>
            </Position>
            <AltitudeMeters>502.20001220703125</AltitudeMeters>
            <DistanceMeters>7202.8883277064</DistanceMeters>
          </Trackpoint>
          <Trackpoint>
            <Time>2021-08-09T08:34:28.000Z</Time>
            <Position>
              <LatitudeDegrees>42.95136052183806896209716796875</LatitudeDegrees>
              <LongitudeDegrees>-1.82123207487165927886962890625</LongitudeDegrees>
            </Position>
            <AltitudeMeters>502.399993896484375</AltitudeMeters>
            <DistanceMeters>7207.6765804244</DistanceMeters>
          </Trackpoint>
          <Trackpoint>
            <Time>2021-08-09T08:34:29.000Z</Time>
            <Position>
              <LatitudeDegrees>42.9513483680784702301025390625</LatitudeDegrees>
              <LongitudeDegrees>-1.82120927609503269195556640625</LongitudeDegrees>
            </Position>
            <AltitudeMeters>502.399993896484375</AltitudeMeters>
            <DistanceMeters>7209.974970017</DistanceMeters>
          </Trackpoint>
          <Trackpoint>
            <Time>2021-08-09T08:34:35.000Z</Time>
            <Position>
              <LatitudeDegrees>42.9512632079422473907470703125</LatitudeDegrees>
              <LongitudeDegrees>-1.82107566855847835540771484375</LongitudeDegrees>
            </Position>
            <AltitudeMeters>502.79998779296875</AltitudeMeters>
            <DistanceMeters>7224.4077730507</DistanceMeters>
          </Trackpoint>
          <Trackpoint>
            <Time>2021-08-09T08:34:36.000Z</Time>
            <Position>
              <LatitudeDegrees>42.95125273056328296661376953125</LatitudeDegrees>
              <LongitudeDegrees>-1.82105186395347118377685546875</LongitudeDegrees>
            </Position>
            <AltitudeMeters>503</AltitudeMeters>
            <DistanceMeters>7226.6685302839</DistanceMeters>
          </Trackpoint>
          <Trackpoint>
            <Time>2021-08-09T08:34:46.000Z</Time>
            <Position>
              <LatitudeDegrees>42.95113085769116878509521484375</LatitudeDegrees>
              <LongitudeDegrees>-1.82080342434346675872802734375</LongitudeDegrees>
            </Position>
            <AltitudeMeters>503.79998779296875</AltitudeMeters>
            <DistanceMeters>7251.0332019506</DistanceMeters>
          </Trackpoint>
          <Trackpoint>
            <Time>2021-08-09T08:34:54.000Z</Time>
            <Position>
              <LatitudeDegrees>42.95105324126780033111572265625</LatitudeDegrees>
              <LongitudeDegrees>-1.82059320621192455291748046875</LongitudeDegrees>
            </Position>
            <AltitudeMeters>503.399993896484375</AltitudeMeters>
            <DistanceMeters>7270.2144801831</DistanceMeters>
          </Trackpoint>
          <Trackpoint>
            <Time>2021-08-09T08:34:55.000Z</Time>
            <Position>
              <LatitudeDegrees>42.95104720629751682281494140625</LatitudeDegrees>
              <LongitudeDegrees>-1.820563115179538726806640625</LongitudeDegrees>
            </Position>
            <AltitudeMeters>503.399993896484375</AltitudeMeters>
            <DistanceMeters>7272.7554454834</DistanceMeters>
          </Trackpoint>
          <Trackpoint>
            <Time>2021-08-09T08:34:56.000Z</Time>
            <Position>
              <LatitudeDegrees>42.9510389082133769989013671875</LatitudeDegrees>
              <LongitudeDegrees>-1.8205371312797069549560546875</LongitudeDegrees>
            </Position>
            <AltitudeMeters>503.600006103515625</AltitudeMeters>
            <DistanceMeters>7275.0655916213</DistanceMeters>
          </Trackpoint>
          <Trackpoint>
            <Time>2021-08-09T08:34:57.000Z</Time>
            <Position>
              <LatitudeDegrees>42.95103044249117374420166015625</LatitudeDegrees>
              <LongitudeDegrees>-1.820513494312763214111328125</LongitudeDegrees>
            </Position>
            <AltitudeMeters>503.399993896484375</AltitudeMeters>
            <DistanceMeters>7277.2115969769</DistanceMeters>
          </Trackpoint>
          <Trackpoint>
            <Time>2021-08-09T08:35:02.000Z</Time>
            <Position>
              <LatitudeDegrees>42.95100362040102481842041015625</LatitudeDegrees>
              <LongitudeDegrees>-1.8203748576343059539794921875</LongitudeDegrees>
            </Position>
            <AltitudeMeters>503.20001220703125</AltitudeMeters>
            <DistanceMeters>7288.8940870957</DistanceMeters>
          </Trackpoint>
          <Trackpoint>
            <Time>2021-08-09T08:35:04.000Z</Time>
            <Position>
              <LatitudeDegrees>42.95098803006112575531005859375</LatitudeDegrees>
              <LongitudeDegrees>-1.8203188665211200714111328125</LongitudeDegrees>
            </Position>
            <AltitudeMeters>503.20001220703125</AltitudeMeters>
            <DistanceMeters>7293.7747982794</DistanceMeters>
          </Trackpoint>
          <Trackpoint>
            <Time>2021-08-09T08:35:06.000Z</Time>
            <Position>
              <LatitudeDegrees>42.95097311027348041534423828125</LatitudeDegrees>
              <LongitudeDegrees>-1.8202685751020908355712890625</LongitudeDegrees>
            </Position>
            <AltitudeMeters>503.20001220703125</AltitudeMeters>
            <DistanceMeters>7298.1963495345</DistanceMeters>
          </Trackpoint>
          <Trackpoint>
            <Time>2021-08-09T08:35:07.000Z</Time>
            <Position>
              <LatitudeDegrees>42.9509674943983554840087890625</LatitudeDegrees>
              <LongitudeDegrees>-1.82024586014449596405029296875</LongitudeDegrees>
            </Position>
            <AltitudeMeters>503.20001220703125</AltitudeMeters>
            <DistanceMeters>7300.1507605291</DistanceMeters>
          </Trackpoint>
          <Trackpoint>
            <Time>2021-08-09T08:35:08.000Z</Time>
            <Position>
              <LatitudeDegrees>42.95095902867615222930908203125</LatitudeDegrees>
              <LongitudeDegrees>-1.8202213011682033538818359375</LongitudeDegrees>
            </Position>
            <AltitudeMeters>503.20001220703125</AltitudeMeters>
            <DistanceMeters>7302.3630673416</DistanceMeters>
          </Trackpoint>
          <Trackpoint>
            <Time>2021-08-09T08:35:09.000Z</Time>
            <Position>
              <LatitudeDegrees>42.9509527422487735748291015625</LatitudeDegrees>
              <LongitudeDegrees>-1.82019657455384731292724609375</LongitudeDegrees>
            </Position>
            <AltitudeMeters>503</AltitudeMeters>
            <DistanceMeters>7304.4942943241</DistanceMeters>
          </Trackpoint>
          <Trackpoint>
            <Time>2021-08-09T08:35:10.000Z</Time>
            <Position>
              <LatitudeDegrees>42.95094511471688747406005859375</LatitudeDegrees>
              <LongitudeDegrees>-1.82017528451979160308837890625</LongitudeDegrees>
            </Position>
            <AltitudeMeters>503</AltitudeMeters>
            <DistanceMeters>7306.4278019264</DistanceMeters>
          </Trackpoint>
          <Trackpoint>
            <Time>2021-08-09T08:35:11.000Z</Time>
            <Position>
              <LatitudeDegrees>42.95093388296663761138916015625</LatitudeDegrees>
              <LongitudeDegrees>-1.82015365920960903167724609375</LongitudeDegrees>
            </Position>
            <AltitudeMeters>503</AltitudeMeters>
            <DistanceMeters>7308.5905732037</DistanceMeters>
          </Trackpoint>
          <Trackpoint>
            <Time>2021-08-09T08:35:12.000Z</Time>
            <Position>
              <LatitudeDegrees>42.950924076139926910400390625</LatitudeDegrees>
              <LongitudeDegrees>-1.82013454847037792205810546875</LongitudeDegrees>
            </Position>
            <AltitudeMeters>503</AltitudeMeters>
            <DistanceMeters>7310.493481676</DistanceMeters>
          </Trackpoint>
          <Trackpoint>
            <Time>2021-08-09T08:35:13.000Z</Time>
            <Position>
              <LatitudeDegrees>42.95092063955962657928466796875</LatitudeDegrees>
              <LongitudeDegrees>-1.82011677883565425872802734375</LongitudeDegrees>
            </Position>
            <AltitudeMeters>502.79998779296875</AltitudeMeters>
            <DistanceMeters>7311.9929779363</DistanceMeters>
          </Trackpoint>
          <Trackpoint>
            <Time>2021-08-09T08:35:14.000Z</Time>
            <Position>
              <LatitudeDegrees>42.95091611333191394805908203125</LatitudeDegrees>
              <LongitudeDegrees>-1.82009113021194934844970703125</LongitudeDegrees>
            </Position>
            <AltitudeMeters>502.79998779296875</AltitudeMeters>
            <DistanceMeters>7314.1410861884</DistanceMeters>
          </Trackpoint>
          <Trackpoint>
            <Time>2021-08-09T08:35:15.000Z</Time>
            <Position>
              <LatitudeDegrees>42.95090974308550357818603515625</LatitudeDegrees>
              <LongitudeDegrees>-1.820069588720798492431640625</LongitudeDegrees>
            </Position>
            <AltitudeMeters>502.79998779296875</AltitudeMeters>
            <DistanceMeters>7316.036863186</DistanceMeters>
          </Trackpoint>
          <Trackpoint>
            <Time>2021-08-09T08:35:16.000Z</Time>
            <Position>
              <LatitudeDegrees>42.95090270228683948516845703125</LatitudeDegrees>
              <LongitudeDegrees>-1.82004201225936412811279296875</LongitudeDegrees>
            </Position>
            <AltitudeMeters>502.79998779296875</AltitudeMeters>
            <DistanceMeters>7318.4182258226</DistanceMeters>
          </Trackpoint>
          <Trackpoint>
            <Time>2021-08-09T08:35:19.000Z</Time>
            <Position>
              <LatitudeDegrees>42.95087613165378570556640625</LatitudeDegrees>
              <LongitudeDegrees>-1.81995752267539501190185546875</LongitudeDegrees>
            </Position>
            <AltitudeMeters>502.79998779296875</AltitudeMeters>
            <DistanceMeters>7325.9090799142</DistanceMeters>
          </Trackpoint>
          <Trackpoint>
            <Time>2021-08-09T08:35:21.000Z</Time>
            <Position>
              <LatitudeDegrees>42.95085811056196689605712890625</LatitudeDegrees>
              <LongitudeDegrees>-1.81989566422998905181884765625</LongitudeDegrees>
            </Position>
            <AltitudeMeters>502.600006103515625</AltitudeMeters>
            <DistanceMeters>7331.3330995542</DistanceMeters>
          </Trackpoint>
          <Trackpoint>
            <Time>2021-08-09T08:35:22.000Z</Time>
            <Position>
              <LatitudeDegrees>42.950846962630748748779296875</LatitudeDegrees>
              <LongitudeDegrees>-1.81986683048307895660400390625</LongitudeDegrees>
            </Position>
            <AltitudeMeters>502.600006103515625</AltitudeMeters>
            <DistanceMeters>7333.9887519604</DistanceMeters>
          </Trackpoint>
          <Trackpoint>
            <Time>2021-08-09T08:35:23.000Z</Time>
            <Position>
              <LatitudeDegrees>42.95084034092724323272705078125</LatitudeDegrees>
              <LongitudeDegrees>-1.819836907088756561279296875</LongitudeDegrees>
            </Position>
            <AltitudeMeters>502.600006103515625</AltitudeMeters>
            <DistanceMeters>7336.5350423772</DistanceMeters>
          </Trackpoint>
          <Trackpoint>
            <Time>2021-08-09T08:35:25.000Z</Time>
            <Position>
              <LatitudeDegrees>42.950837910175323486328125</LatitudeDegrees>
              <LongitudeDegrees>-1.81977060623466968536376953125</LongitudeDegrees>
            </Position>
            <AltitudeMeters>502.600006103515625</AltitudeMeters>
            <DistanceMeters>7341.9423880778</DistanceMeters>
          </Trackpoint>
          <Trackpoint>
            <Time>2021-08-09T08:35:26.000Z</Time>
            <Position>
              <LatitudeDegrees>42.95083682052791118621826171875</LatitudeDegrees>
              <LongitudeDegrees>-1.81973707862198352813720703125</LongitudeDegrees>
            </Position>
            <AltitudeMeters>502.600006103515625</AltitudeMeters>
            <DistanceMeters>7344.6767807518</DistanceMeters>
          </Trackpoint>
          <Trackpoint>
            <Time>2021-08-09T08:35:28.000Z</Time>
            <Position>
              <LatitudeDegrees>42.9508273489773273468017578125</LatitudeDegrees>
              <LongitudeDegrees>-1.81967773474752902984619140625</LongitudeDegrees>
            </Position>
            <AltitudeMeters>502.399993896484375</AltitudeMeters>
            <DistanceMeters>7349.6254742476</DistanceMeters>
          </Trackpoint>
          <Trackpoint>
            <Time>2021-08-09T08:35:29.000Z</Time>
            <Position>
              <LatitudeDegrees>42.95082022435963153839111328125</LatitudeDegrees>
              <LongitudeDegrees>-1.81965091265738010406494140625</LongitudeDegrees>
            </Position>
            <AltitudeMeters>502.399993896484375</AltitudeMeters>
            <DistanceMeters>7351.9512033355</DistanceMeters>
          </Trackpoint>
          <Trackpoint>
            <Time>2021-08-09T08:35:30.000Z</Time>
            <Position>
              <LatitudeDegrees>42.950816117227077484130859375</LatitudeDegrees>
              <LongitudeDegrees>-1.81962057016789913177490234375</LongitudeDegrees>
            </Position>
            <AltitudeMeters>502.399993896484375</AltitudeMeters>
            <DistanceMeters>7354.4653738768</DistanceMeters>
          </Trackpoint>
          <Trackpoint>
            <Time>2021-08-09T08:35:31.000Z</Time>
            <Position>
              <LatitudeDegrees>42.95081309974193572998046875</LatitudeDegrees>
              <LongitudeDegrees>-1.8195851147174835205078125</LongitudeDegrees>
            </Position>
            <AltitudeMeters>502.399993896484375</AltitudeMeters>
            <DistanceMeters>7357.37573669</DistanceMeters>
          </Trackpoint>
          <Trackpoint>
            <Time>2021-08-09T08:35:32.000Z</Time>
            <Position>
              <LatitudeDegrees>42.9508058913052082061767578125</LatitudeDegrees>
              <LongitudeDegrees>-1.8195453844964504241943359375</LongitudeDegrees>
            </Position>
            <AltitudeMeters>502.399993896484375</AltitudeMeters>
            <DistanceMeters>7360.7111608278</DistanceMeters>
          </Trackpoint>
          <Trackpoint>
            <Time>2021-08-09T08:35:33.000Z</Time>
            <Position>
              <LatitudeDegrees>42.95079625211656093597412109375</LatitudeDegrees>
              <LongitudeDegrees>-1.81951009668409824371337890625</LongitudeDegrees>
            </Position>
            <AltitudeMeters>502.399993896484375</AltitudeMeters>
            <DistanceMeters>7363.7800970817</DistanceMeters>
          </Trackpoint>
          <Trackpoint>
            <Time>2021-08-09T08:35:35.000Z</Time>
            <Position>
              <LatitudeDegrees>42.95077077113091945648193359375</LatitudeDegrees>
              <LongitudeDegrees>-1.81945435702800750732421875</LongitudeDegrees>
            </Position>
            <AltitudeMeters>502.399993896484375</AltitudeMeters>
            <DistanceMeters>7369.133737211</DistanceMeters>
          </Trackpoint>
          <Trackpoint>
            <Time>2021-08-09T08:35:36.000Z</Time>
            <Position>
              <LatitudeDegrees>42.95075920410454273223876953125</LatitudeDegrees>
              <LongitudeDegrees>-1.81942678056657314300537109375</LongitudeDegrees>
            </Position>
            <AltitudeMeters>502.399993896484375</AltitudeMeters>
            <DistanceMeters>7371.7239778943</DistanceMeters>
          </Trackpoint>
          <Trackpoint>
            <Time>2021-08-09T08:35:37.000Z</Time>
            <Position>
              <LatitudeDegrees>42.95075752772390842437744140625</LatitudeDegrees>
              <LongitudeDegrees>-1.81939040310680866241455078125</LongitudeDegrees>
            </Position>
            <AltitudeMeters>502.399993896484375</AltitudeMeters>
            <DistanceMeters>7374.6927073548</DistanceMeters>
          </Trackpoint>
          <Trackpoint>
            <Time>2021-08-09T08:35:39.000Z</Time>
            <Position>
              <LatitudeDegrees>42.950746715068817138671875</LatitudeDegrees>
              <LongitudeDegrees>-1.81931664235889911651611328125</LongitudeDegrees>
            </Position>
            <AltitudeMeters>502.20001220703125</AltitudeMeters>
            <DistanceMeters>7380.821009561</DistanceMeters>
          </Trackpoint>
          <Trackpoint>
            <Time>2021-08-09T08:35:40.000Z</Time>
            <Position>
              <LatitudeDegrees>42.9507401771843433380126953125</LatitudeDegrees>
              <LongitudeDegrees>-1.81928277947008609771728515625</LongitudeDegrees>
            </Position>
            <AltitudeMeters>502.20001220703125</AltitudeMeters>
            <DistanceMeters>7383.6749767914</DistanceMeters>
          </Trackpoint>
          <Trackpoint>
            <Time>2021-08-09T08:35:42.000Z</Time>
            <Position>
              <LatitudeDegrees>42.9507237486541271209716796875</LatitudeDegrees>
              <LongitudeDegrees>-1.81920482777059078216552734375</LongitudeDegrees>
            </Position>
            <AltitudeMeters>502.20001220703125</AltitudeMeters>
            <DistanceMeters>7390.2839464357</DistanceMeters>
          </Trackpoint>
          <Trackpoint>
            <Time>2021-08-09T08:35:44.000Z</Time>
            <Position>
              <LatitudeDegrees>42.95070908032357692718505859375</LatitudeDegrees>
              <LongitudeDegrees>-1.81913626380264759063720703125</LongitudeDegrees>
            </Position>
            <AltitudeMeters>502.20001220703125</AltitudeMeters>
            <DistanceMeters>7396.1031204892</DistanceMeters>
          </Trackpoint>
          <Trackpoint>
            <Time>2021-08-09T08:35:49.000Z</Time>
            <Position>
              <LatitudeDegrees>42.95068343169987201690673828125</LatitudeDegrees>
              <LongitudeDegrees>-1.81894649751484394073486328125</LongitudeDegrees>
            </Position>
            <AltitudeMeters>502</AltitudeMeters>
            <DistanceMeters>7411.8242270747</DistanceMeters>
          </Trackpoint>
          <Trackpoint>
            <Time>2021-08-09T08:35:51.000Z</Time>
            <Position>
              <LatitudeDegrees>42.95065887272357940673828125</LatitudeDegrees>
              <LongitudeDegrees>-1.8188919313251972198486328125</LongitudeDegrees>
            </Position>
            <AltitudeMeters>502</AltitudeMeters>
            <DistanceMeters>7417.0420504215</DistanceMeters>
          </Trackpoint>
          <Trackpoint>
            <Time>2021-08-09T08:35:52.000Z</Time>
            <Position>
              <LatitudeDegrees>42.950649820268154144287109375</LatitudeDegrees>
              <LongitudeDegrees>-1.81886100210249423980712890625</LongitudeDegrees>
            </Position>
            <AltitudeMeters>502</AltitudeMeters>
            <DistanceMeters>7419.7548925293</DistanceMeters>
          </Trackpoint>
          <Trackpoint>
            <Time>2021-08-09T08:35:53.000Z</Time>
            <Position>
              <LatitudeDegrees>42.95064277946949005126953125</LatitudeDegrees>
              <LongitudeDegrees>-1.8188262172043323516845703125</LongitudeDegrees>
            </Position>
            <AltitudeMeters>502</AltitudeMeters>
            <DistanceMeters>7422.6945835261</DistanceMeters>
          </Trackpoint>
          <Trackpoint>
            <Time>2021-08-09T08:35:54.000Z</Time>
            <Position>
              <LatitudeDegrees>42.95064009726047515869140625</LatitudeDegrees>
              <LongitudeDegrees>-1.8187849782407283782958984375</LongitudeDegrees>
            </Position>
            <AltitudeMeters>502</AltitudeMeters>
            <DistanceMeters>7426.0676972685</DistanceMeters>
          </Trackpoint>
          <Trackpoint>
            <Time>2021-08-09T08:35:55.000Z</Time>
            <Position>
              <LatitudeDegrees>42.95062157325446605682373046875</LatitudeDegrees>
              <LongitudeDegrees>-1.81874650530517101287841796875</LongitudeDegrees>
            </Position>
            <AltitudeMeters>502</AltitudeMeters>
            <DistanceMeters>7429.8185450527</DistanceMeters>
          </Trackpoint>
          <Trackpoint>
            <Time>2021-08-09T08:36:01.000Z</Time>
            <Position>
              <LatitudeDegrees>42.9505433700978755950927734375</LatitudeDegrees>
              <LongitudeDegrees>-1.8184906058013439178466796875</LongitudeDegrees>
            </Position>
            <AltitudeMeters>502</AltitudeMeters>
            <DistanceMeters>7452.4097349386</DistanceMeters>
          </Trackpoint>
          <Trackpoint>
            <Time>2021-08-09T08:36:03.000Z</Time>
            <Position>
              <LatitudeDegrees>42.950518392026424407958984375</LatitudeDegrees>
              <LongitudeDegrees>-1.818418018519878387451171875</LongitudeDegrees>
            </Position>
            <AltitudeMeters>501.600006103515625</AltitudeMeters>
            <DistanceMeters>7458.9438149371</DistanceMeters>
          </Trackpoint>
          <Trackpoint>
            <Time>2021-08-09T08:36:04.000Z</Time>
            <Position>
              <LatitudeDegrees>42.95049869455397129058837890625</LatitudeDegrees>
              <LongitudeDegrees>-1.818387843668460845947265625</LongitudeDegrees>
            </Position>
            <AltitudeMeters>501.600006103515625</AltitudeMeters>
            <DistanceMeters>7462.2370081912</DistanceMeters>
          </Trackpoint>
          <Trackpoint>
            <Time>2021-08-09T08:36:05.000Z</Time>
            <Position>
              <LatitudeDegrees>42.9504927434027194976806640625</LatitudeDegrees>
              <LongitudeDegrees>-1.81833948008716106414794921875</LongitudeDegrees>
            </Position>
            <AltitudeMeters>501.600006103515625</AltitudeMeters>
            <DistanceMeters>7466.2303920946</DistanceMeters>
          </Trackpoint>
          <Trackpoint>
            <Time>2021-08-09T08:36:07.000Z</Time>
            <Position>
              <LatitudeDegrees>42.95046843588352203369140625</LatitudeDegrees>
              <LongitudeDegrees>-1.81826370768249034881591796875</LongitudeDegrees>
            </Position>
            <AltitudeMeters>501.399993896484375</AltitudeMeters>
            <DistanceMeters>7472.9712633043</DistanceMeters>
          </Trackpoint>
          <Trackpoint>
            <Time>2021-08-09T08:36:08.000Z</Time>
            <Position>
              <LatitudeDegrees>42.95045636594295501708984375</LatitudeDegrees>
              <LongitudeDegrees>-1.81823370046913623809814453125</LongitudeDegrees>
            </Position>
            <AltitudeMeters>501.399993896484375</AltitudeMeters>
            <DistanceMeters>7475.7612321025</DistanceMeters>
          </Trackpoint>
          <Trackpoint>
            <Time>2021-08-09T08:36:09.000Z</Time>
            <Position>
              <LatitudeDegrees>42.950446642935276031494140625</LatitudeDegrees>
              <LongitudeDegrees>-1.81820578873157501220703125</LongitudeDegrees>
            </Position>
            <AltitudeMeters>501.399993896484375</AltitudeMeters>
            <DistanceMeters>7478.2807843921</DistanceMeters>
          </Trackpoint>
          <Trackpoint>
            <Time>2021-08-09T08:36:10.000Z</Time>
            <Position>
              <LatitudeDegrees>42.95043834485113620758056640625</LatitudeDegrees>
              <LongitudeDegrees>-1.81817938573658466339111328125</LongitudeDegrees>
            </Position>
            <AltitudeMeters>501.399993896484375</AltitudeMeters>
            <DistanceMeters>7480.6200634103</DistanceMeters>
          </Trackpoint>
          <Trackpoint>
            <Time>2021-08-09T08:36:11.000Z</Time>
            <Position>
              <LatitudeDegrees>42.950428538024425506591796875</LatitudeDegrees>
              <LongitudeDegrees>-1.818153820931911468505859375</LongitudeDegrees>
            </Position>
            <AltitudeMeters>501.399993896484375</AltitudeMeters>
            <DistanceMeters>7482.9747325881</DistanceMeters>
          </Trackpoint>
          <Trackpoint>
            <Time>2021-08-09T08:36:12.000Z</Time>
            <Position>
              <LatitudeDegrees>42.95041588135063648223876953125</LatitudeDegrees>
              <LongitudeDegrees>-1.81812657974660396575927734375</LongitudeDegrees>
            </Position>
            <AltitudeMeters>501.399993896484375</AltitudeMeters>
            <DistanceMeters>7485.6013232306</DistanceMeters>
          </Trackpoint>
          <Trackpoint>
            <Time>2021-08-09T08:36:13.000Z</Time>
            <Position>
              <LatitudeDegrees>42.95040582306683063507080078125</LatitudeDegrees>
              <LongitudeDegrees>-1.81809422560036182403564453125</LongitudeDegrees>
            </Position>
            <AltitudeMeters>501.399993896484375</AltitudeMeters>
            <DistanceMeters>7488.4647668586</DistanceMeters>
          </Trackpoint>
          <Trackpoint>
            <Time>2021-08-09T08:36:14.000Z</Time>
            <Position>
              <LatitudeDegrees>42.95039492659270763397216796875</LatitudeDegrees>
              <LongitudeDegrees>-1.8180584348738193511962890625</LongitudeDegrees>
            </Position>
            <AltitudeMeters>501.399993896484375</AltitudeMeters>
            <DistanceMeters>7491.6221715514</DistanceMeters>
          </Trackpoint>
          <Trackpoint>
            <Time>2021-08-09T08:36:15.000Z</Time>
            <Position>
              <LatitudeDegrees>42.95038537122309207916259765625</LatitudeDegrees>
              <LongitudeDegrees>-1.81801945902407169342041015625</LongitudeDegrees>
            </Position>
            <AltitudeMeters>501.399993896484375</AltitudeMeters>
            <DistanceMeters>7494.9711049553</DistanceMeters>
          </Trackpoint>
          <Trackpoint>
            <Time>2021-08-09T08:36:18.000Z</Time>
            <Position>
              <LatitudeDegrees>42.95035569928586483001708984375</LatitudeDegrees>
              <LongitudeDegrees>-1.8179186247289180755615234375</LongitudeDegrees>
            </Position>
            <AltitudeMeters>501.20001220703125</AltitudeMeters>
            <DistanceMeters>7503.8249229797</DistanceMeters>
          </Trackpoint>
          <Trackpoint>
            <Time>2021-08-09T08:36:21.000Z</Time>
            <Position>
              <LatitudeDegrees>42.950323931872844696044921875</LatitudeDegrees>
              <LongitudeDegrees>-1.81783254258334636688232421875</LongitudeDegrees>
            </Position>
            <AltitudeMeters>501</AltitudeMeters>
            <DistanceMeters>7511.6782930915</DistanceMeters>
          </Trackpoint>
          <Trackpoint>
            <Time>2021-08-09T08:36:25.000Z</Time>
            <Position>
              <LatitudeDegrees>42.95028512366116046905517578125</LatitudeDegrees>
              <LongitudeDegrees>-1.8176842667162418365478515625</LongitudeDegrees>
            </Position>
            <AltitudeMeters>500.600006103515625</AltitudeMeters>
            <DistanceMeters>7524.5065475758</DistanceMeters>
          </Trackpoint>
          <Trackpoint>
            <Time>2021-08-09T08:36:27.000Z</Time>
            <Position>
              <LatitudeDegrees>42.9502657614648342132568359375</LatitudeDegrees>
              <LongitudeDegrees>-1.8176031298935413360595703125</LongitudeDegrees>
            </Position>
            <AltitudeMeters>500.399993896484375</AltitudeMeters>
            <DistanceMeters>7531.4584515688</DistanceMeters>
          </Trackpoint>
          <Trackpoint>
            <Time>2021-08-09T08:36:34.000Z</Time>
            <Position>
              <LatitudeDegrees>42.9501943476498126983642578125</LatitudeDegrees>
              <LongitudeDegrees>-1.8172544427216053009033203125</LongitudeDegrees>
            </Position>
            <AltitudeMeters>499.79998779296875</AltitudeMeters>
            <DistanceMeters>7560.9559437645</DistanceMeters>
          </Trackpoint>
          <Trackpoint>
            <Time>2021-08-09T08:36:35.000Z</Time>
            <Position>
              <LatitudeDegrees>42.95017867349088191986083984375</LatitudeDegrees>
              <LongitudeDegrees>-1.81719736196100711822509765625</LongitudeDegrees>
            </Position>
            <AltitudeMeters>499.600006103515625</AltitudeMeters>
            <DistanceMeters>7565.9228511368</DistanceMeters>
          </Trackpoint>
          <Trackpoint>
            <Time>2021-08-09T08:36:38.000Z</Time>
            <Position>
              <LatitudeDegrees>42.95012419112026691436767578125</LatitudeDegrees>
              <LongitudeDegrees>-1.81703240610659122467041015625</LongitudeDegrees>
            </Position>
            <AltitudeMeters>499.20001220703125</AltitudeMeters>
            <DistanceMeters>7580.6660858593</DistanceMeters>
          </Trackpoint>
          <Trackpoint>
            <Time>2021-08-09T08:36:39.000Z</Time>
            <Position>
              <LatitudeDegrees>42.950103990733623504638671875</LatitudeDegrees>
              <LongitudeDegrees>-1.81698094122111797332763671875</LongitudeDegrees>
            </Position>
            <AltitudeMeters>499.20001220703125</AltitudeMeters>
            <DistanceMeters>7585.424068798</DistanceMeters>
          </Trackpoint>
          <Trackpoint>
            <Time>2021-08-09T08:36:40.000Z</Time>
            <Position>
              <LatitudeDegrees>42.95008664019405841827392578125</LatitudeDegrees>
              <LongitudeDegrees>-1.81692897342145442962646484375</LongitudeDegrees>
            </Position>
            <AltitudeMeters>499</AltitudeMeters>
            <DistanceMeters>7590.0774679118</DistanceMeters>
          </Trackpoint>
          <Trackpoint>
            <Time>2021-08-09T08:36:43.000Z</Time>
            <Position>
              <LatitudeDegrees>42.95003651641309261322021484375</LatitudeDegrees>
              <LongitudeDegrees>-1.81676250882446765899658203125</LongitudeDegrees>
            </Position>
            <AltitudeMeters>498.399993896484375</AltitudeMeters>
            <DistanceMeters>7604.7414786306</DistanceMeters>
          </Trackpoint>
          <Trackpoint>
            <Time>2021-08-09T08:36:48.000Z</Time>
            <Position>
              <LatitudeDegrees>42.949922271072864532470703125</LatitudeDegrees>
              <LongitudeDegrees>-1.816447935998439788818359375</LongitudeDegrees>
            </Position>
            <AltitudeMeters>497.399993896484375</AltitudeMeters>
            <DistanceMeters>7633.3500439315</DistanceMeters>
          </Trackpoint>
          <Trackpoint>
            <Time>2021-08-09T08:36:49.000Z</Time>
            <Position>
              <LatitudeDegrees>42.9499004781246185302734375</LatitudeDegrees>
              <LongitudeDegrees>-1.81638549081981182098388671875</LongitudeDegrees>
            </Position>
            <AltitudeMeters>497</AltitudeMeters>
            <DistanceMeters>7638.9863378317</DistanceMeters>
          </Trackpoint>
          <Trackpoint>
            <Time>2021-08-09T08:36:50.000Z</Time>
            <Position>
              <LatitudeDegrees>42.9498791880905628204345703125</LatitudeDegrees>
              <LongitudeDegrees>-1.81632212363183498382568359375</LongitudeDegrees>
            </Position>
            <AltitudeMeters>496.79998779296875</AltitudeMeters>
            <DistanceMeters>7644.6665194427</DistanceMeters>
          </Trackpoint>
          <Trackpoint>
            <Time>2021-08-09T08:36:51.000Z</Time>
            <Position>
              <LatitudeDegrees>42.94985395856201648712158203125</LatitudeDegrees>
              <LongitudeDegrees>-1.81626613251864910125732421875</LongitudeDegrees>
            </Position>
            <AltitudeMeters>496.600006103515625</AltitudeMeters>
            <DistanceMeters>7650.0226890501</DistanceMeters>
          </Trackpoint>
          <Trackpoint>
            <Time>2021-08-09T08:36:53.000Z</Time>
            <Position>
              <LatitudeDegrees>42.9498039186000823974609375</LatitudeDegrees>
              <LongitudeDegrees>-1.81616085581481456756591796875</LongitudeDegrees>
            </Position>
            <AltitudeMeters>496.399993896484375</AltitudeMeters>
            <DistanceMeters>7660.2494356184</DistanceMeters>
          </Trackpoint>
          <Trackpoint>
            <Time>2021-08-09T08:36:54.000Z</Time>
            <Position>
              <LatitudeDegrees>42.94977910816669464111328125</LatitudeDegrees>
              <LongitudeDegrees>-1.81611006148159503936767578125</LongitudeDegrees>
            </Position>
            <AltitudeMeters>496.399993896484375</AltitudeMeters>
            <DistanceMeters>7665.2254249281</DistanceMeters>
          </Trackpoint>
          <Trackpoint>
            <Time>2021-08-09T08:36:55.000Z</Time>
            <Position>
              <LatitudeDegrees>42.9497551359236240386962890625</LatitudeDegrees>
              <LongitudeDegrees>-1.8160635419189929962158203125</LongitudeDegrees>
            </Position>
            <AltitudeMeters>496.20001220703125</AltitudeMeters>
            <DistanceMeters>7669.8613263438</DistanceMeters>
          </Trackpoint>
          <Trackpoint>
            <Time>2021-08-09T08:36:56.000Z</Time>
            <Position>
              <LatitudeDegrees>42.9497333429753780364990234375</LatitudeDegrees>
              <LongitudeDegrees>-1.81601978838443756103515625</LongitudeDegrees>
            </Position>
            <AltitudeMeters>496.20001220703125</AltitudeMeters>
            <DistanceMeters>7674.1722308106</DistanceMeters>
          </Trackpoint>
          <Trackpoint>
            <Time>2021-08-09T08:36:57.000Z</Time>
            <Position>
              <LatitudeDegrees>42.94971196912229061126708984375</LatitudeDegrees>
              <LongitudeDegrees>-1.81597846560180187225341796875</LongitudeDegrees>
            </Position>
            <AltitudeMeters>496.20001220703125</AltitudeMeters>
            <DistanceMeters>7678.2946820071</DistanceMeters>
          </Trackpoint>
          <Trackpoint>
            <Time>2021-08-09T08:36:58.000Z</Time>
            <Position>
              <LatitudeDegrees>42.94969084672629833221435546875</LatitudeDegrees>
              <LongitudeDegrees>-1.81593823246657848358154296875</LongitudeDegrees>
            </Position>
            <AltitudeMeters>496.20001220703125</AltitudeMeters>
            <DistanceMeters>7682.3285632339</DistanceMeters>
          </Trackpoint>
          <Trackpoint>
            <Time>2021-08-09T08:36:59.000Z</Time>
            <Position>
              <LatitudeDegrees>42.94966737739741802215576171875</LatitudeDegrees>
              <LongitudeDegrees>-1.81589934043586254119873046875</LongitudeDegrees>
            </Position>
            <AltitudeMeters>496.20001220703125</AltitudeMeters>
            <DistanceMeters>7686.4345530927</DistanceMeters>
          </Trackpoint>
          <Trackpoint>
            <Time>2021-08-09T08:37:03.000Z</Time>
            <Position>
              <LatitudeDegrees>42.9495764337480068206787109375</LatitudeDegrees>
              <LongitudeDegrees>-1.815742515027523040771484375</LongitudeDegrees>
            </Position>
            <AltitudeMeters>496.20001220703125</AltitudeMeters>
            <DistanceMeters>7702.7343355801</DistanceMeters>
          </Trackpoint>
          <Trackpoint>
            <Time>2021-08-09T08:37:04.000Z</Time>
            <Position>
              <LatitudeDegrees>42.94955858029425144195556640625</LatitudeDegrees>
              <LongitudeDegrees>-1.8156990967690944671630859375</LongitudeDegrees>
            </Position>
            <AltitudeMeters>496.399993896484375</AltitudeMeters>
            <DistanceMeters>7706.7905406144</DistanceMeters>
          </Trackpoint>
          <Trackpoint>
            <Time>2021-08-09T08:37:06.000Z</Time>
            <Position>
              <LatitudeDegrees>42.9495177604258060455322265625</LatitudeDegrees>
              <LongitudeDegrees>-1.8156154453754425048828125</LongitudeDegrees>
            </Position>
            <AltitudeMeters>496.399993896484375</AltitudeMeters>
            <DistanceMeters>7714.980498357</DistanceMeters>
          </Trackpoint>
          <Trackpoint>
            <Time>2021-08-09T08:37:15.000Z</Time>
            <Position>
              <LatitudeDegrees>42.949372418224811553955078125</LatitudeDegrees>
              <LongitudeDegrees>-1.8151299655437469482421875</LongitudeDegrees>
            </Position>
            <AltitudeMeters>495.79998779296875</AltitudeMeters>
            <DistanceMeters>7757.7118891341</DistanceMeters>
          </Trackpoint>
          <Trackpoint>
            <Time>2021-08-09T08:37:16.000Z</Time>
            <Position>
              <LatitudeDegrees>42.94936093501746654510498046875</LatitudeDegrees>
              <LongitudeDegrees>-1.81506265886127948760986328125</LongitudeDegrees>
            </Position>
            <AltitudeMeters>495.600006103515625</AltitudeMeters>
            <DistanceMeters>7763.3425727866</DistanceMeters>
          </Trackpoint>
          <Trackpoint>
            <Time>2021-08-09T08:37:20.000Z</Time>
            <Position>
              <LatitudeDegrees>42.94930058531463146209716796875</LatitudeDegrees>
              <LongitudeDegrees>-1.81477122008800506591796875</LongitudeDegrees>
            </Position>
            <AltitudeMeters>495</AltitudeMeters>
            <DistanceMeters>7788.0173346731</DistanceMeters>
          </Trackpoint>
          <Trackpoint>
            <Time>2021-08-09T08:37:25.000Z</Time>
            <Position>
              <LatitudeDegrees>42.9492086358368396759033203125</LatitudeDegrees>
              <LongitudeDegrees>-1.81434399448335170745849609375</LongitudeDegrees>
            </Position>
            <AltitudeMeters>493.600006103515625</AltitudeMeters>
            <DistanceMeters>7824.2961398059</DistanceMeters>
          </Trackpoint>
          <Trackpoint>
            <Time>2021-08-09T08:37:26.000Z</Time>
            <Position>
              <LatitudeDegrees>42.94919036328792572021484375</LatitudeDegrees>
              <LongitudeDegrees>-1.814248524606227874755859375</LongitudeDegrees>
            </Position>
            <AltitudeMeters>493.399993896484375</AltitudeMeters>
            <DistanceMeters>7832.3358715916</DistanceMeters>
          </Trackpoint>
          <Trackpoint>
            <Time>2021-08-09T08:37:27.000Z</Time>
            <Position>
              <LatitudeDegrees>42.9491757787764072418212890625</LatitudeDegrees>
              <LongitudeDegrees>-1.8141477741301059722900390625</LongitudeDegrees>
            </Position>
            <AltitudeMeters>493</AltitudeMeters>
            <DistanceMeters>7840.7030803657</DistanceMeters>
          </Trackpoint>
          <Trackpoint>
            <Time>2021-08-09T08:37:29.000Z</Time>
            <Position>
              <LatitudeDegrees>42.94915507547557353973388671875</LatitudeDegrees>
              <LongitudeDegrees>-1.813938729465007781982421875</LongitudeDegrees>
            </Position>
            <AltitudeMeters>492.399993896484375</AltitudeMeters>
            <DistanceMeters>7857.8884718415</DistanceMeters>
          </Trackpoint>
          <Trackpoint>
            <Time>2021-08-09T08:37:31.000Z</Time>
            <Position>
              <LatitudeDegrees>42.949139736592769622802734375</LatitudeDegrees>
              <LongitudeDegrees>-1.81372825987637042999267578125</LongitudeDegrees>
            </Position>
            <AltitudeMeters>491.79998779296875</AltitudeMeters>
            <DistanceMeters>7875.120040941</DistanceMeters>
          </Trackpoint>
          <Trackpoint>
            <Time>2021-08-09T08:37:32.000Z</Time>
            <Position>
              <LatitudeDegrees>42.9491285048425197601318359375</LatitudeDegrees>
              <LongitudeDegrees>-1.81363019160926342010498046875</LongitudeDegrees>
            </Position>
            <AltitudeMeters>491.20001220703125</AltitudeMeters>
            <DistanceMeters>7883.2068087507</DistanceMeters>
          </Trackpoint>
          <Trackpoint>
            <Time>2021-08-09T08:37:33.000Z</Time>
            <Position>
              <LatitudeDegrees>42.94911484234035015106201171875</LatitudeDegrees>
              <LongitudeDegrees>-1.8135332129895687103271484375</LongitudeDegrees>
            </Position>
            <AltitudeMeters>491</AltitudeMeters>
            <DistanceMeters>7891.2521544828</DistanceMeters>
          </Trackpoint>
          <Trackpoint>
            <Time>2021-08-09T08:37:34.000Z</Time>
            <Position>
              <LatitudeDegrees>42.9491010122001171112060546875</LatitudeDegrees>
              <LongitudeDegrees>-1.8134420178830623626708984375</LongitudeDegrees>
            </Position>
            <AltitudeMeters>490.600006103515625</AltitudeMeters>
            <DistanceMeters>7898.840024237</DistanceMeters>
          </Trackpoint>
          <Trackpoint>
            <Time>2021-08-09T08:37:35.000Z</Time>
            <Position>
              <LatitudeDegrees>42.94908651150763034820556640625</LatitudeDegrees>
              <LongitudeDegrees>-1.81335325352847576141357421875</LongitudeDegrees>
            </Position>
            <AltitudeMeters>490.20001220703125</AltitudeMeters>
            <DistanceMeters>7906.2496709749</DistanceMeters>
          </Trackpoint>
          <Trackpoint>
            <Time>2021-08-09T08:37:36.000Z</Time>
            <Position>
              <LatitudeDegrees>42.9490751959383487701416015625</LatitudeDegrees>
              <LongitudeDegrees>-1.813267171382904052734375</LongitudeDegrees>
            </Position>
            <AltitudeMeters>490</AltitudeMeters>
            <DistanceMeters>7913.3754074171</DistanceMeters>
          </Trackpoint>
          <Trackpoint>
            <Time>2021-08-09T08:37:37.000Z</Time>
            <Position>
              <LatitudeDegrees>42.9490604437887668609619140625</LatitudeDegrees>
              <LongitudeDegrees>-1.81318460963666439056396484375</LongitudeDegrees>
            </Position>
            <AltitudeMeters>490</AltitudeMeters>
            <DistanceMeters>7920.2986758479</DistanceMeters>
          </Trackpoint>
          <Trackpoint>
            <Time>2021-08-09T08:37:38.000Z</Time>
            <Position>
              <LatitudeDegrees>42.94904829002916812896728515625</LatitudeDegrees>
              <LongitudeDegrees>-1.81310833431780338287353515625</LongitudeDegrees>
            </Position>
            <AltitudeMeters>490</AltitudeMeters>
            <DistanceMeters>7926.658370211</DistanceMeters>
          </Trackpoint>
          <Trackpoint>
            <Time>2021-08-09T08:37:39.000Z</Time>
            <Position>
              <LatitudeDegrees>42.949038483202457427978515625</LatitudeDegrees>
              <LongitudeDegrees>-1.8130363337695598602294921875</LongitudeDegrees>
            </Position>
            <AltitudeMeters>490</AltitudeMeters>
            <DistanceMeters>7932.6246555999</DistanceMeters>
          </Trackpoint>
          <Trackpoint>
            <Time>2021-08-09T08:37:40.000Z</Time>
            <Position>
              <LatitudeDegrees>42.949028424918651580810546875</LatitudeDegrees>
              <LongitudeDegrees>-1.81297087110579013824462890625</LongitudeDegrees>
            </Position>
            <AltitudeMeters>490</AltitudeMeters>
            <DistanceMeters>7938.0735904819</DistanceMeters>
          </Trackpoint>
          <Trackpoint>
            <Time>2021-08-09T08:37:41.000Z</Time>
            <Position>
              <LatitudeDegrees>42.9490180313587188720703125</LatitudeDegrees>
              <LongitudeDegrees>-1.81291068904101848602294921875</LongitudeDegrees>
            </Position>
            <AltitudeMeters>490</AltitudeMeters>
            <DistanceMeters>7943.1109027421</DistanceMeters>
          </Trackpoint>
          <Trackpoint>
            <Time>2021-08-09T08:37:42.000Z</Time>
            <Position>
              <LatitudeDegrees>42.94900587759912014007568359375</LatitudeDegrees>
              <LongitudeDegrees>-1.81285344064235687255859375</LongitudeDegrees>
            </Position>
            <AltitudeMeters>490</AltitudeMeters>
            <DistanceMeters>7947.9675023418</DistanceMeters>
          </Trackpoint>
          <Trackpoint>
            <Time>2021-08-09T08:37:43.000Z</Time>
            <Position>
              <LatitudeDegrees>42.94899229891598224639892578125</LatitudeDegrees>
              <LongitudeDegrees>-1.81279443204402923583984375</LongitudeDegrees>
            </Position>
            <AltitudeMeters>490</AltitudeMeters>
            <DistanceMeters>7953.0066069211</DistanceMeters>
          </Trackpoint>
          <Trackpoint>
            <Time>2021-08-09T08:37:44.000Z</Time>
            <Position>
              <LatitudeDegrees>42.9489826597273349761962890625</LatitudeDegrees>
              <LongitudeDegrees>-1.81273768655955791473388671875</LongitudeDegrees>
            </Position>
            <AltitudeMeters>490</AltitudeMeters>
            <DistanceMeters>7957.7522376116</DistanceMeters>
          </Trackpoint>
          <Trackpoint>
            <Time>2021-08-09T08:37:46.000Z</Time>
            <Position>
              <LatitudeDegrees>42.94896380044519901275634765625</LatitudeDegrees>
              <LongitudeDegrees>-1.8126209266483783721923828125</LongitudeDegrees>
            </Position>
            <AltitudeMeters>490</AltitudeMeters>
            <DistanceMeters>7967.4932870044</DistanceMeters>
          </Trackpoint>
          <Trackpoint>
            <Time>2021-08-09T08:37:47.000Z</Time>
            <Position>
              <LatitudeDegrees>42.94895458035171031951904296875</LatitudeDegrees>
              <LongitudeDegrees>-1.8125629238784313201904296875</LongitudeDegrees>
            </Position>
            <AltitudeMeters>490.20001220703125</AltitudeMeters>
            <DistanceMeters>7972.3275230182</DistanceMeters>
          </Trackpoint>
          <Trackpoint>
            <Time>2021-08-09T08:37:48.000Z</Time>
            <Position>
              <LatitudeDegrees>42.948947288095951080322265625</LatitudeDegrees>
              <LongitudeDegrees>-1.8125035800039768218994140625</LongitudeDegrees>
            </Position>
            <AltitudeMeters>490.20001220703125</AltitudeMeters>
            <DistanceMeters>7977.228543661</DistanceMeters>
          </Trackpoint>
          <Trackpoint>
            <Time>2021-08-09T08:37:49.000Z</Time>
            <Position>
              <LatitudeDegrees>42.948938906192779541015625</LatitudeDegrees>
              <LongitudeDegrees>-1.81244297884404659271240234375</LongitudeDegrees>
            </Position>
            <AltitudeMeters>490.399993896484375</AltitudeMeters>
            <DistanceMeters>7982.2532917877</DistanceMeters>
          </Trackpoint>
          <Trackpoint>
            <Time>2021-08-09T08:37:50.000Z</Time>
            <Position>
              <LatitudeDegrees>42.94893228448927402496337890625</LatitudeDegrees>
              <LongitudeDegrees>-1.8123842217028141021728515625</LongitudeDegrees>
            </Position>
            <AltitudeMeters>490.399993896484375</AltitudeMeters>
            <DistanceMeters>7987.095926249</DistanceMeters>
          </Trackpoint>
          <Trackpoint>
            <Time>2021-08-09T08:37:51.000Z</Time>
            <Position>
              <LatitudeDegrees>42.94892541132867336273193359375</LatitudeDegrees>
              <LongitudeDegrees>-1.812326721847057342529296875</LongitudeDegrees>
            </Position>
            <AltitudeMeters>490.600006103515625</AltitudeMeters>
            <DistanceMeters>7991.8415569395</DistanceMeters>
          </Trackpoint>
          <Trackpoint>
            <Time>2021-08-09T08:37:52.000Z</Time>
            <Position>
              <LatitudeDegrees>42.948916442692279815673828125</LatitudeDegrees>
              <LongitudeDegrees>-1.8122715689241886138916015625</LongitudeDegrees>
            </Position>
            <AltitudeMeters>490.79998779296875</AltitudeMeters>
            <DistanceMeters>7996.445206515</DistanceMeters>
          </Trackpoint>
          <Trackpoint>
            <Time>2021-08-09T08:37:53.000Z</Time>
            <Position>
              <LatitudeDegrees>42.9489102400839328765869140625</LatitudeDegrees>
              <LongitudeDegrees>-1.812215410172939300537109375</LongitudeDegrees>
            </Position>
            <AltitudeMeters>491.20001220703125</AltitudeMeters>
            <DistanceMeters>8001.0733099414</DistanceMeters>
          </Trackpoint>
          <Trackpoint>
            <Time>2021-08-09T08:37:54.000Z</Time>
            <Position>
              <LatitudeDegrees>42.94889959506690502166748046875</LatitudeDegrees>
              <LongitudeDegrees>-1.8121589161455631256103515625</LongitudeDegrees>
            </Position>
            <AltitudeMeters>491.399993896484375</AltitudeMeters>
            <DistanceMeters>8005.8265458142</DistanceMeters>
          </Trackpoint>
          <Trackpoint>
            <Time>2021-08-09T08:37:55.000Z</Time>
            <Position>
              <LatitudeDegrees>42.94888903386890888214111328125</LatitudeDegrees>
              <LongitudeDegrees>-1.8121035955846309661865234375</LongitudeDegrees>
            </Position>
            <AltitudeMeters>491.600006103515625</AltitudeMeters>
            <DistanceMeters>8010.4828548183</DistanceMeters>
          </Trackpoint>
          <Trackpoint>
            <Time>2021-08-09T08:37:56.000Z</Time>
            <Position>
              <LatitudeDegrees>42.94888434000313282012939453125</LatitudeDegrees>
              <LongitudeDegrees>-1.812047101557254791259765625</LongitudeDegrees>
            </Position>
            <AltitudeMeters>491.600006103515625</AltitudeMeters>
            <DistanceMeters>8015.1148588804</DistanceMeters>
          </Trackpoint>
          <Trackpoint>
            <Time>2021-08-09T08:37:57.000Z</Time>
            <Position>
              <LatitudeDegrees>42.94887847267091274261474609375</LatitudeDegrees>
              <LongitudeDegrees>-1.8119929544627666473388671875</LongitudeDegrees>
            </Position>
            <AltitudeMeters>491.79998779296875</AltitudeMeters>
            <DistanceMeters>8019.5740323834</DistanceMeters>
          </Trackpoint>
          <Trackpoint>
            <Time>2021-08-09T08:37:58.000Z</Time>
            <Position>
              <LatitudeDegrees>42.94887260533869266510009765625</LatitudeDegrees>
              <LongitudeDegrees>-1.81194257922470569610595703125</LongitudeDegrees>
            </Position>
            <AltitudeMeters>492</AltitudeMeters>
            <DistanceMeters>8023.7292106179</DistanceMeters>
          </Trackpoint>
          <Trackpoint>
            <Time>2021-08-09T08:37:59.000Z</Time>
            <Position>
              <LatitudeDegrees>42.948870174586772918701171875</LatitudeDegrees>
              <LongitudeDegrees>-1.8118943832814693450927734375</LongitudeDegrees>
            </Position>
            <AltitudeMeters>492</AltitudeMeters>
            <DistanceMeters>8027.6633624992</DistanceMeters>
          </Trackpoint>
          <Trackpoint>
            <Time>2021-08-09T08:38:00.000Z</Time>
            <Position>
              <LatitudeDegrees>42.94886824674904346466064453125</LatitudeDegrees>
              <LongitudeDegrees>-1.81184493005275726318359375</LongitudeDegrees>
            </Position>
            <AltitudeMeters>492.20001220703125</AltitudeMeters>
            <DistanceMeters>8031.6983628497</DistanceMeters>
          </Trackpoint>
          <Trackpoint>
            <Time>2021-08-09T08:38:01.000Z</Time>
            <Position>
              <LatitudeDegrees>42.94886489398777484893798828125</LatitudeDegrees>
              <LongitudeDegrees>-1.81179539300501346588134765625</LongitudeDegrees>
            </Position>
            <AltitudeMeters>492.20001220703125</AltitudeMeters>
            <DistanceMeters>8035.7501129623</DistanceMeters>
          </Trackpoint>
          <Trackpoint>
            <Time>2021-08-09T08:38:02.000Z</Time>
            <Position>
              <LatitudeDegrees>42.94885969720780849456787109375</LatitudeDegrees>
              <LongitudeDegrees>-1.81174912489950656890869140625</LongitudeDegrees>
            </Position>
            <AltitudeMeters>492.399993896484375</AltitudeMeters>
            <DistanceMeters>8039.5642253297</DistanceMeters>
          </Trackpoint>
          <Trackpoint>
            <Time>2021-08-09T08:38:03.000Z</Time>
            <Position>
              <LatitudeDegrees>42.9488515667617321014404296875</LatitudeDegrees>
              <LongitudeDegrees>-1.81170587427914142608642578125</LongitudeDegrees>
            </Position>
            <AltitudeMeters>492.600006103515625</AltitudeMeters>
            <DistanceMeters>8043.2026442263</DistanceMeters>
          </Trackpoint>
          <Trackpoint>
            <Time>2021-08-09T08:38:04.000Z</Time>
            <Position>
              <LatitudeDegrees>42.94884628616273403167724609375</LatitudeDegrees>
              <LongitudeDegrees>-1.81166044436395168304443359375</LongitudeDegrees>
            </Position>
            <AltitudeMeters>492.79998779296875</AltitudeMeters>
            <DistanceMeters>8046.9510837611</DistanceMeters>
          </Trackpoint>
          <Trackpoint>
            <Time>2021-08-09T08:38:05.000Z</Time>
            <Position>
              <LatitudeDegrees>42.94883807189762592315673828125</LatitudeDegrees>
              <LongitudeDegrees>-1.81161920540034770965576171875</LongitudeDegrees>
            </Position>
            <AltitudeMeters>493</AltitudeMeters>
            <DistanceMeters>8050.4322276231</DistanceMeters>
          </Trackpoint>
          <Trackpoint>
            <Time>2021-08-09T08:38:06.000Z</Time>
            <Position>
              <LatitudeDegrees>42.9488307796418666839599609375</LatitudeDegrees>
              <LongitudeDegrees>-1.81158282794058322906494140625</LongitudeDegrees>
            </Position>
            <AltitudeMeters>493</AltitudeMeters>
            <DistanceMeters>8053.5026347309</DistanceMeters>
          </Trackpoint>
          <Trackpoint>
            <Time>2021-08-09T08:38:07.000Z</Time>
            <Position>
              <LatitudeDegrees>42.948826588690280914306640625</LatitudeDegrees>
              <LongitudeDegrees>-1.8115396611392498016357421875</LongitudeDegrees>
            </Position>
            <AltitudeMeters>493.20001220703125</AltitudeMeters>
            <DistanceMeters>8057.0493087343</DistanceMeters>
          </Trackpoint>
          <Trackpoint>
            <Time>2021-08-09T08:38:10.000Z</Time>
            <Position>
              <LatitudeDegrees>42.94880957342684268951416015625</LatitudeDegrees>
              <LongitudeDegrees>-1.811374537646770477294921875</LongitudeDegrees>
            </Position>
            <AltitudeMeters>493.399993896484375</AltitudeMeters>
            <DistanceMeters>8070.6344735239</DistanceMeters>
          </Trackpoint>
          <Trackpoint>
            <Time>2021-08-09T08:38:11.000Z</Time>
            <Position>
              <LatitudeDegrees>42.94880186207592487335205078125</LatitudeDegrees>
              <LongitudeDegrees>-1.8113217316567897796630859375</LongitudeDegrees>
            </Position>
            <AltitudeMeters>493.600006103515625</AltitudeMeters>
            <DistanceMeters>8075.020139132</DistanceMeters>
          </Trackpoint>
          <Trackpoint>
            <Time>2021-08-09T08:38:12.000Z</Time>
            <Position>
              <LatitudeDegrees>42.94879876077175140380859375</LatitudeDegrees>
              <LongitudeDegrees>-1.8112660758197307586669921875</LongitudeDegrees>
            </Position>
            <AltitudeMeters>493.600006103515625</AltitudeMeters>
            <DistanceMeters>8079.5675422433</DistanceMeters>
          </Trackpoint>
          <Trackpoint>
            <Time>2021-08-09T08:38:13.000Z</Time>
            <Position>
              <LatitudeDegrees>42.94879163615405559539794921875</LatitudeDegrees>
              <LongitudeDegrees>-1.81121150963008403778076171875</LongitudeDegrees>
            </Position>
            <AltitudeMeters>493.600006103515625</AltitudeMeters>
            <DistanceMeters>8084.0830613287</DistanceMeters>
          </Trackpoint>
          <Trackpoint>
            <Time>2021-08-09T08:38:14.000Z</Time>
            <Position>
              <LatitudeDegrees>42.94878107495605945587158203125</LatitudeDegrees>
              <LongitudeDegrees>-1.81115970946848392486572265625</LongitudeDegrees>
            </Position>
            <AltitudeMeters>493.600006103515625</AltitudeMeters>
            <DistanceMeters>8088.4635764175</DistanceMeters>
          </Trackpoint>
          <Trackpoint>
            <Time>2021-08-09T08:38:15.000Z</Time>
            <Position>
              <LatitudeDegrees>42.9487717710435390472412109375</LatitudeDegrees>
              <LongitudeDegrees>-1.81110120378434658050537109375</LongitudeDegrees>
            </Position>
            <AltitudeMeters>493.600006103515625</AltitudeMeters>
            <DistanceMeters>8093.341511578</DistanceMeters>
          </Trackpoint>
          <Trackpoint>
            <Time>2021-08-09T08:38:16.000Z</Time>
            <Position>
              <LatitudeDegrees>42.94877059757709503173828125</LatitudeDegrees>
              <LongitudeDegrees>-1.81104303337633609771728515625</LongitudeDegrees>
            </Position>
            <AltitudeMeters>493.79998779296875</AltitudeMeters>
            <DistanceMeters>8098.0833351033</DistanceMeters>
          </Trackpoint>
          <Trackpoint>
            <Time>2021-08-09T08:38:17.000Z</Time>
            <Position>
              <LatitudeDegrees>42.94876917265355587005615234375</LatitudeDegrees>
              <LongitudeDegrees>-1.810987628996372222900390625</LongitudeDegrees>
            </Position>
            <AltitudeMeters>494</AltitudeMeters>
            <DistanceMeters>8102.5988541887</DistanceMeters>
          </Trackpoint>
          <Trackpoint>
            <Time>2021-08-09T08:38:18.000Z</Time>
            <Position>
              <LatitudeDegrees>42.94877001084387302398681640625</LatitudeDegrees>
              <LongitudeDegrees>-1.8109348230063915252685546875</LongitudeDegrees>
            </Position>
            <AltitudeMeters>494.20001220703125</AltitudeMeters>
            <DistanceMeters>8106.9013716739</DistanceMeters>
          </Trackpoint>
          <Trackpoint>
            <Time>2021-08-09T08:38:19.000Z</Time>
            <Position>
              <LatitudeDegrees>42.94876649044454097747802734375</LatitudeDegrees>
              <LongitudeDegrees>-1.8108805082738399505615234375</LongitudeDegrees>
            </Position>
            <AltitudeMeters>494.20001220703125</AltitudeMeters>
            <DistanceMeters>8111.3422822735</DistanceMeters>
          </Trackpoint>
          <Trackpoint>
            <Time>2021-08-09T08:38:20.000Z</Time>
            <Position>
              <LatitudeDegrees>42.94876255095005035400390625</LatitudeDegrees>
              <LongitudeDegrees>-1.810822673141956329345703125</LongitudeDegrees>
            </Position>
            <AltitudeMeters>494.20001220703125</AltitudeMeters>
            <DistanceMeters>8116.0745744856</DistanceMeters>
          </Trackpoint>
          <Trackpoint>
            <Time>2021-08-09T08:38:21.000Z</Time>
            <Position>
              <LatitudeDegrees>42.94876112602651119232177734375</LatitudeDegrees>
              <LongitudeDegrees>-1.81078403256833553314208984375</LongitudeDegrees>
            </Position>
            <AltitudeMeters>494.399993896484375</AltitudeMeters>
            <DistanceMeters>8119.2262540518</DistanceMeters>
          </Trackpoint>
          <Trackpoint>
            <Time>2021-08-09T08:38:22.000Z</Time>
            <Position>
              <LatitudeDegrees>42.94876313768327236175537109375</LatitudeDegrees>
              <LongitudeDegrees>-1.81073223240673542022705078125</LongitudeDegrees>
            </Position>
            <AltitudeMeters>494.399993896484375</AltitudeMeters>
            <DistanceMeters>8123.4525397978</DistanceMeters>
          </Trackpoint>
          <Trackpoint>
            <Time>2021-08-09T08:38:23.000Z</Time>
            <Position>
              <LatitudeDegrees>42.94876598753035068511962890625</LatitudeDegrees>
              <LongitudeDegrees>-1.810683868825435638427734375</LongitudeDegrees>
            </Position>
            <AltitudeMeters>494.399993896484375</AltitudeMeters>
            <DistanceMeters>8127.4050114609</DistanceMeters>
          </Trackpoint>
          <Trackpoint>
            <Time>2021-08-09T08:38:24.000Z</Time>
            <Position>
              <LatitudeDegrees>42.948766909539699554443359375</LatitudeDegrees>
              <LongitudeDegrees>-1.81064506061375141143798828125</LongitudeDegrees>
            </Position>
            <AltitudeMeters>494.600006103515625</AltitudeMeters>
            <DistanceMeters>8130.568130918</DistanceMeters>
          </Trackpoint>
          <Trackpoint>
            <Time>2021-08-09T08:38:25.000Z</Time>
            <Position>
              <LatitudeDegrees>42.948776967823505401611328125</LatitudeDegrees>
              <LongitudeDegrees>-1.81060365401208400726318359375</LongitudeDegrees>
            </Position>
            <AltitudeMeters>494.79998779296875</AltitudeMeters>
            <DistanceMeters>8134.1237049956</DistanceMeters>
          </Trackpoint>
          <Trackpoint>
            <Time>2021-08-09T08:38:26.000Z</Time>
            <Position>
              <LatitudeDegrees>42.94878794811666011810302734375</LatitudeDegrees>
              <LongitudeDegrees>-1.8105680309236049652099609375</LongitudeDegrees>
            </Position>
            <AltitudeMeters>494.79998779296875</AltitudeMeters>
            <DistanceMeters>8137.2753845619</DistanceMeters>
          </Trackpoint>
          <Trackpoint>
            <Time>2021-08-09T08:38:27.000Z</Time>
            <Position>
              <LatitudeDegrees>42.94880001805722713470458984375</LatitudeDegrees>
              <LongitudeDegrees>-1.8105284683406352996826171875</LongitudeDegrees>
            </Position>
            <AltitudeMeters>494.79998779296875</AltitudeMeters>
            <DistanceMeters>8140.766888994</DistanceMeters>
          </Trackpoint>
          <Trackpoint>
            <Time>2021-08-09T08:38:28.000Z</Time>
            <Position>
              <LatitudeDegrees>42.94880839996039867401123046875</LatitudeDegrees>
              <LongitudeDegrees>-1.8104815296828746795654296875</LongitudeDegrees>
            </Position>
            <AltitudeMeters>494.79998779296875</AltitudeMeters>
            <DistanceMeters>8144.7033355106</DistanceMeters>
          </Trackpoint>
          <Trackpoint>
            <Time>2021-08-09T08:38:30.000Z</Time>
            <Position>
              <LatitudeDegrees>42.948820888996124267578125</LatitudeDegrees>
              <LongitudeDegrees>-1.81036108173429965972900390625</LongitudeDegrees>
            </Position>
            <AltitudeMeters>494.79998779296875</AltitudeMeters>
            <DistanceMeters>8154.6139430339</DistanceMeters>
          </Trackpoint>
          <Trackpoint>
            <Time>2021-08-09T08:38:33.000Z</Time>
            <Position>
              <LatitudeDegrees>42.94883756898343563079833984375</LatitudeDegrees>
              <LongitudeDegrees>-1.81017282418906688690185546875</LongitudeDegrees>
            </Position>
            <AltitudeMeters>495</AltitudeMeters>
            <DistanceMeters>8170.0630190739</DistanceMeters>
          </Trackpoint>
          <Trackpoint>
            <Time>2021-08-09T08:38:34.000Z</Time>
            <Position>
              <LatitudeDegrees>42.94883756898343563079833984375</LatitudeDegrees>
              <LongitudeDegrees>-1.81011817418038845062255859375</LongitudeDegrees>
            </Position>
            <AltitudeMeters>495</AltitudeMeters>
            <DistanceMeters>8174.5150992388</DistanceMeters>
          </Trackpoint>
          <Trackpoint>
            <Time>2021-08-09T08:38:39.000Z</Time>
            <Position>
              <LatitudeDegrees>42.94881929643452167510986328125</LatitudeDegrees>
              <LongitudeDegrees>-1.8098025955259799957275390625</LongitudeDegrees>
            </Position>
            <AltitudeMeters>495.20001220703125</AltitudeMeters>
            <DistanceMeters>8200.3053565215</DistanceMeters>
          </Trackpoint>
          <Trackpoint>
            <Time>2021-08-09T08:38:49.000Z</Time>
            <Position>
              <LatitudeDegrees>42.948791049420833587646484375</LatitudeDegrees>
              <LongitudeDegrees>-1.8091990984976291656494140625</LongitudeDegrees>
            </Position>
            <AltitudeMeters>495.600006103515625</AltitudeMeters>
            <DistanceMeters>8249.5721029894</DistanceMeters>
          </Trackpoint>
          <Trackpoint>
            <Time>2021-08-09T08:38:50.000Z</Time>
            <Position>
              <LatitudeDegrees>42.94878995977342128753662109375</LatitudeDegrees>
              <LongitudeDegrees>-1.8091390840709209442138671875</LongitudeDegrees>
            </Position>
            <AltitudeMeters>495.79998779296875</AltitudeMeters>
            <DistanceMeters>8254.4620562023</DistanceMeters>
          </Trackpoint>
          <Trackpoint>
            <Time>2021-08-09T08:38:52.000Z</Time>
            <Position>
              <LatitudeDegrees>42.94879331253468990325927734375</LatitudeDegrees>
              <LongitudeDegrees>-1.80901075713336467742919921875</LongitudeDegrees>
            </Position>
            <AltitudeMeters>495.79998779296875</AltitudeMeters>
            <DistanceMeters>8264.9231984164</DistanceMeters>
          </Trackpoint>
          <Trackpoint>
            <Time>2021-08-09T08:38:55.000Z</Time>
            <Position>
              <LatitudeDegrees>42.94878945685923099517822265625</LatitudeDegrees>
              <LongitudeDegrees>-1.80886222980916500091552734375</LongitudeDegrees>
            </Position>
            <AltitudeMeters>496.20001220703125</AltitudeMeters>
            <DistanceMeters>8277.0311830161</DistanceMeters>
          </Trackpoint>
          <Trackpoint>
            <Time>2021-08-09T08:38:56.000Z</Time>
            <Position>
              <LatitudeDegrees>42.9487938992679119110107421875</LatitudeDegrees>
              <LongitudeDegrees>-1.80880305357277393341064453125</LongitudeDegrees>
            </Position>
            <AltitudeMeters>496.20001220703125</AltitudeMeters>
            <DistanceMeters>8281.876613725</DistanceMeters>
          </Trackpoint>
          <Trackpoint>
            <Time>2021-08-09T08:38:57.000Z</Time>
            <Position>
              <LatitudeDegrees>42.9487959109246730804443359375</LatitudeDegrees>
              <LongitudeDegrees>-1.808755360543727874755859375</LongitudeDegrees>
            </Position>
            <AltitudeMeters>496.399993896484375</AltitudeMeters>
            <DistanceMeters>8285.7680708038</DistanceMeters>
          </Trackpoint>
          <Trackpoint>
            <Time>2021-08-09T08:38:58.000Z</Time>
            <Position>
              <LatitudeDegrees>42.94879599474370479583740234375</LatitudeDegrees>
              <LongitudeDegrees>-1.80870733223855495452880859375</LongitudeDegrees>
            </Position>
            <AltitudeMeters>496.399993896484375</AltitudeMeters>
            <DistanceMeters>8289.6803565261</DistanceMeters>
          </Trackpoint>
          <Trackpoint>
            <Time>2021-08-09T08:38:59.000Z</Time>
            <Position>
              <LatitudeDegrees>42.94879733584821224212646484375</LatitudeDegrees>
              <LongitudeDegrees>-1.8086676858365535736083984375</LongitudeDegrees>
            </Position>
            <AltitudeMeters>496.600006103515625</AltitudeMeters>
            <DistanceMeters>8292.9140585102</DistanceMeters>
          </Trackpoint>
          <Trackpoint>
            <Time>2021-08-09T08:39:00.000Z</Time>
            <Position>
              <LatitudeDegrees>42.94880404137074947357177734375</LatitudeDegrees>
              <LongitudeDegrees>-1.80861881934106349945068359375</LongitudeDegrees>
            </Position>
            <AltitudeMeters>496.600006103515625</AltitudeMeters>
            <DistanceMeters>8296.9646941268</DistanceMeters>
          </Trackpoint>
          <Trackpoint>
            <Time>2021-08-09T08:39:01.000Z</Time>
            <Position>
              <LatitudeDegrees>42.94880957342684268951416015625</LatitudeDegrees>
              <LongitudeDegrees>-1.80855914019048213958740234375</LongitudeDegrees>
            </Position>
            <AltitudeMeters>496.600006103515625</AltitudeMeters>
            <DistanceMeters>8301.8657147696</DistanceMeters>
          </Trackpoint>
          <Trackpoint>
            <Time>2021-08-09T08:39:02.000Z</Time>
            <Position>
              <LatitudeDegrees>42.94881208799779415130615234375</LatitudeDegrees>
              <LongitudeDegrees>-1.80851002223789691925048828125</LongitudeDegrees>
            </Position>
            <AltitudeMeters>496.79998779296875</AltitudeMeters>
            <DistanceMeters>8305.8771479578</DistanceMeters>
          </Trackpoint>
          <Trackpoint>
            <Time>2021-08-09T08:39:03.000Z</Time>
            <Position>
              <LatitudeDegrees>42.94881477020680904388427734375</LatitudeDegrees>
              <LongitudeDegrees>-1.80845906026661396026611328125</LongitudeDegrees>
            </Position>
            <AltitudeMeters>496.79998779296875</AltitudeMeters>
            <DistanceMeters>8310.0399254796</DistanceMeters>
          </Trackpoint>
          <Trackpoint>
            <Time>2021-08-09T08:39:04.000Z</Time>
            <Position>
              <LatitudeDegrees>42.94881745241582393646240234375</LatitudeDegrees>
              <LongitudeDegrees>-1.80842000059783458709716796875</LongitudeDegrees>
            </Position>
            <AltitudeMeters>497</AltitudeMeters>
            <DistanceMeters>8313.2342933954</DistanceMeters>
          </Trackpoint>
          <Trackpoint>
            <Time>2021-08-09T08:39:07.000Z</Time>
            <Position>
              <LatitudeDegrees>42.94883438386023044586181640625</LatitudeDegrees>
              <LongitudeDegrees>-1.808270551264286041259765625</LongitudeDegrees>
            </Position>
            <AltitudeMeters>497.20001220703125</AltitudeMeters>
            <DistanceMeters>8325.5548284902</DistanceMeters>
          </Trackpoint>
          <Trackpoint>
            <Time>2021-08-09T08:39:08.000Z</Time>
            <Position>
              <LatitudeDegrees>42.948837988078594207763671875</LatitudeDegrees>
              <LongitudeDegrees>-1.80822185240685939788818359375</LongitudeDegrees>
            </Position>
            <AltitudeMeters>497.399993896484375</AltitudeMeters>
            <DistanceMeters>8329.5436873113</DistanceMeters>
          </Trackpoint>
          <Trackpoint>
            <Time>2021-08-09T08:39:10.000Z</Time>
            <Position>
              <LatitudeDegrees>42.94884008355438709259033203125</LatitudeDegrees>
              <LongitudeDegrees>-1.80813065730035305023193359375</LongitudeDegrees>
            </Position>
            <AltitudeMeters>497.600006103515625</AltitudeMeters>
            <DistanceMeters>8336.9776679298</DistanceMeters>
          </Trackpoint>
          <Trackpoint>
            <Time>2021-08-09T08:39:11.000Z</Time>
            <Position>
              <LatitudeDegrees>42.9488435201346874237060546875</LatitudeDegrees>
              <LongitudeDegrees>-1.8080866523087024688720703125</LongitudeDegrees>
            </Position>
            <AltitudeMeters>497.600006103515625</AltitudeMeters>
            <DistanceMeters>8340.5849300711</DistanceMeters>
          </Trackpoint>
          <Trackpoint>
            <Time>2021-08-09T08:39:12.000Z</Time>
            <Position>
              <LatitudeDegrees>42.94884444214403629302978515625</LatitudeDegrees>
              <LongitudeDegrees>-1.8080454133450984954833984375</LongitudeDegrees>
            </Position>
            <AltitudeMeters>497.600006103515625</AltitudeMeters>
            <DistanceMeters>8343.9473184644</DistanceMeters>
          </Trackpoint>
          <Trackpoint>
            <Time>2021-08-09T08:39:13.000Z</Time>
            <Position>
              <LatitudeDegrees>42.94884662143886089324951171875</LatitudeDegrees>
              <LongitudeDegrees>-1.80800509639084339141845703125</LongitudeDegrees>
            </Position>
            <AltitudeMeters>497.79998779296875</AltitudeMeters>
            <DistanceMeters>8347.2418824547</DistanceMeters>
          </Trackpoint>
          <Trackpoint>
            <Time>2021-08-09T08:39:14.000Z</Time>
            <Position>
              <LatitudeDegrees>42.94884980656206607818603515625</LatitudeDegrees>
              <LongitudeDegrees>-1.80796218104660511016845703125</LongitudeDegrees>
            </Position>
            <AltitudeMeters>497.79998779296875</AltitudeMeters>
            <DistanceMeters>8350.756586507</DistanceMeters>
          </Trackpoint>
          <Trackpoint>
            <Time>2021-08-09T08:39:15.000Z</Time>
            <Position>
              <LatitudeDegrees>42.94885030947625637054443359375</LatitudeDegrees>
              <LongitudeDegrees>-1.80792965926229953765869140625</LongitudeDegrees>
            </Position>
            <AltitudeMeters>497.79998779296875</AltitudeMeters>
            <DistanceMeters>8353.407133521</DistanceMeters>
          </Trackpoint>
          <Trackpoint>
            <Time>2021-08-09T08:39:16.000Z</Time>
            <Position>
              <LatitudeDegrees>42.9488525725901126861572265625</LatitudeDegrees>
              <LongitudeDegrees>-1.80788774974644184112548828125</LongitudeDegrees>
            </Position>
            <AltitudeMeters>497.79998779296875</AltitudeMeters>
            <DistanceMeters>8356.8307338516</DistanceMeters>
          </Trackpoint>
          <Trackpoint>
            <Time>2021-08-09T08:39:17.000Z</Time>
            <Position>
              <LatitudeDegrees>42.94885483570396900177001953125</LatitudeDegrees>
              <LongitudeDegrees>-1.807836703956127166748046875</LongitudeDegrees>
            </Position>
            <AltitudeMeters>498</AltitudeMeters>
            <DistanceMeters>8360.9967639674</DistanceMeters>
          </Trackpoint>
          <Trackpoint>
            <Time>2021-08-09T08:39:20.000Z</Time>
            <Position>
              <LatitudeDegrees>42.9488649778068065643310546875</LatitudeDegrees>
              <LongitudeDegrees>-1.8077165074646472930908203125</LongitudeDegrees>
            </Position>
            <AltitudeMeters>498.399993896484375</AltitudeMeters>
            <DistanceMeters>8370.8539249449</DistanceMeters>
          </Trackpoint>
          <Trackpoint>
            <Time>2021-08-09T08:39:25.000Z</Time>
            <Position>
              <LatitudeDegrees>42.9488777182996273040771484375</LatitudeDegrees>
              <LongitudeDegrees>-1.8074985779821872711181640625</LongitudeDegrees>
            </Position>
            <AltitudeMeters>498.79998779296875</AltitudeMeters>
            <DistanceMeters>8388.6647807771</DistanceMeters>
          </Trackpoint>
          <Trackpoint>
            <Time>2021-08-09T08:39:27.000Z</Time>
            <Position>
              <LatitudeDegrees>42.94888551346957683563232421875</LatitudeDegrees>
              <LongitudeDegrees>-1.807412914931774139404296875</LongitudeDegrees>
            </Position>
            <AltitudeMeters>499</AltitudeMeters>
            <DistanceMeters>8395.6980416681</DistanceMeters>
          </Trackpoint>
          <Trackpoint>
            <Time>2021-08-09T08:39:29.000Z</Time>
            <Position>
              <LatitudeDegrees>42.94889523647725582122802734375</LatitudeDegrees>
              <LongitudeDegrees>-1.80732884444296360015869140625</LongitudeDegrees>
            </Position>
            <AltitudeMeters>499.20001220703125</AltitudeMeters>
            <DistanceMeters>8402.6317367138</DistanceMeters>
          </Trackpoint>
          <Trackpoint>
            <Time>2021-08-09T08:39:30.000Z</Time>
            <Position>
              <LatitudeDegrees>42.94889842160046100616455078125</LatitudeDegrees>
              <LongitudeDegrees>-1.80728676728904247283935546875</LongitudeDegrees>
            </Position>
            <AltitudeMeters>499.20001220703125</AltitudeMeters>
            <DistanceMeters>8406.0776836844</DistanceMeters>
          </Trackpoint>
          <Trackpoint>
            <Time>2021-08-09T08:39:34.000Z</Time>
            <Position>
              <LatitudeDegrees>42.94892809353768825531005859375</LatitudeDegrees>
              <LongitudeDegrees>-1.80712080560624599456787109375</LongitudeDegrees>
            </Position>
            <AltitudeMeters>499.399993896484375</AltitudeMeters>
            <DistanceMeters>8419.9957726292</DistanceMeters>
          </Trackpoint>
          <Trackpoint>
            <Time>2021-08-09T08:39:38.000Z</Time>
            <Position>
              <LatitudeDegrees>42.9489555023610591888427734375</LatitudeDegrees>
              <LongitudeDegrees>-1.80695652030408382415771484375</LongitudeDegrees>
            </Position>
            <AltitudeMeters>499.600006103515625</AltitudeMeters>
            <DistanceMeters>8433.7231043157</DistanceMeters>
          </Trackpoint>
          <Trackpoint>
            <Time>2021-08-09T08:39:39.000Z</Time>
            <Position>
              <LatitudeDegrees>42.9489618726074695587158203125</LatitudeDegrees>
              <LongitudeDegrees>-1.80691746063530445098876953125</LongitudeDegrees>
            </Position>
            <AltitudeMeters>499.79998779296875</AltitudeMeters>
            <DistanceMeters>8436.9832270089</DistanceMeters>
          </Trackpoint>
          <Trackpoint>
            <Time>2021-08-09T08:39:40.000Z</Time>
            <Position>
              <LatitudeDegrees>42.94897017069160938262939453125</LatitudeDegrees>
              <LongitudeDegrees>-1.80687957443296909332275390625</LongitudeDegrees>
            </Position>
            <AltitudeMeters>499.79998779296875</AltitudeMeters>
            <DistanceMeters>8440.2057396793</DistanceMeters>
          </Trackpoint>
          <Trackpoint>
            <Time>2021-08-09T08:39:41.000Z</Time>
            <Position>
              <LatitudeDegrees>42.94897855259478092193603515625</LatitudeDegrees>
              <LongitudeDegrees>-1.80684369988739490509033203125</LongitudeDegrees>
            </Position>
            <AltitudeMeters>499.79998779296875</AltitudeMeters>
            <DistanceMeters>8443.2732043742</DistanceMeters>
          </Trackpoint>
          <Trackpoint>
            <Time>2021-08-09T08:39:42.000Z</Time>
            <Position>
              <LatitudeDegrees>42.9489898681640625</LatitudeDegrees>
              <LongitudeDegrees>-1.8068075738847255706787109375</LongitudeDegrees>
            </Position>
            <AltitudeMeters>500</AltitudeMeters>
            <DistanceMeters>8446.4746316752</DistanceMeters>
          </Trackpoint>
          <Trackpoint>
            <Time>2021-08-09T08:39:45.000Z</Time>
            <Position>
              <LatitudeDegrees>42.949025072157382965087890625</LatitudeDegrees>
              <LongitudeDegrees>-1.8066922388970851898193359375</LongitudeDegrees>
            </Position>
            <AltitudeMeters>500.20001220703125</AltitudeMeters>
            <DistanceMeters>8456.6553594205</DistanceMeters>
          </Trackpoint>
          <Trackpoint>
            <Time>2021-08-09T08:39:46.000Z</Time>
            <Position>
              <LatitudeDegrees>42.9490393213927745819091796875</LatitudeDegrees>
              <LongitudeDegrees>-1.8066597171127796173095703125</LongitudeDegrees>
            </Position>
            <AltitudeMeters>500.20001220703125</AltitudeMeters>
            <DistanceMeters>8459.7433621286</DistanceMeters>
          </Trackpoint>
          <Trackpoint>
            <Time>2021-08-09T08:39:47.000Z</Time>
            <Position>
              <LatitudeDegrees>42.94905784539878368377685546875</LatitudeDegrees>
              <LongitudeDegrees>-1.80662845261394977569580078125</LongitudeDegrees>
            </Position>
            <AltitudeMeters>500.399993896484375</AltitudeMeters>
            <DistanceMeters>8463.0186836113</DistanceMeters>
          </Trackpoint>
          <Trackpoint>
            <Time>2021-08-09T08:39:54.000Z</Time>
            <Position>
              <LatitudeDegrees>42.94921911321580410003662109375</LatitudeDegrees>
              <LongitudeDegrees>-1.80644421838223934173583984375</LongitudeDegrees>
            </Position>
            <AltitudeMeters>500.79998779296875</AltitudeMeters>
            <DistanceMeters>8486.4164915106</DistanceMeters>
          </Trackpoint>
          <Trackpoint>
            <Time>2021-08-09T08:39:55.000Z</Time>
            <Position>
              <LatitudeDegrees>42.9492433369159698486328125</LatitudeDegrees>
              <LongitudeDegrees>-1.80642326362431049346923828125</LongitudeDegrees>
            </Position>
            <AltitudeMeters>500.79998779296875</AltitudeMeters>
            <DistanceMeters>8489.6080313002</DistanceMeters>
          </Trackpoint>
          <Trackpoint>
            <Time>2021-08-09T08:40:02.000Z</Time>
            <Position>
              <LatitudeDegrees>42.94941793195903301239013671875</LatitudeDegrees>
              <LongitudeDegrees>-1.8062610737979412078857421875</LongitudeDegrees>
            </Position>
            <AltitudeMeters>500.79998779296875</AltitudeMeters>
            <DistanceMeters>8513.107505653</DistanceMeters>
          </Trackpoint>
          <Trackpoint>
            <Time>2021-08-09T08:40:03.000Z</Time>
            <Position>
              <LatitudeDegrees>42.94944408349692821502685546875</LatitudeDegrees>
              <LongitudeDegrees>-1.80623902939260005950927734375</LongitudeDegrees>
            </Position>
            <AltitudeMeters>500.79998779296875</AltitudeMeters>
            <DistanceMeters>8516.5271473001</DistanceMeters>
          </Trackpoint>
          <Trackpoint>
            <Time>2021-08-09T08:40:10.000Z</Time>
            <Position>
              <LatitudeDegrees>42.9496317543089389801025390625</LatitudeDegrees>
              <LongitudeDegrees>-1.806044988334178924560546875</LongitudeDegrees>
            </Position>
            <AltitudeMeters>500.600006103515625</AltitudeMeters>
            <DistanceMeters>8542.7228257439</DistanceMeters>
          </Trackpoint>
          <Trackpoint>
            <Time>2021-08-09T08:40:18.000Z</Time>
            <Position>
              <LatitudeDegrees>42.9498624242842197418212890625</LatitudeDegrees>
              <LongitudeDegrees>-1.8058141507208347320556640625</LongitudeDegrees>
            </Position>
            <AltitudeMeters>500.399993896484375</AltitudeMeters>
            <DistanceMeters>8574.5476965847</DistanceMeters>
          </Trackpoint>
          <Trackpoint>
            <Time>2021-08-09T08:40:19.000Z</Time>
            <Position>
              <LatitudeDegrees>42.949886061251163482666015625</LatitudeDegrees>
              <LongitudeDegrees>-1.80578875355422496795654296875</LongitudeDegrees>
            </Position>
            <AltitudeMeters>500.399993896484375</AltitudeMeters>
            <DistanceMeters>8577.8952815152</DistanceMeters>
          </Trackpoint>
          <Trackpoint>
            <Time>2021-08-09T08:40:20.000Z</Time>
            <Position>
              <LatitudeDegrees>42.94990927912294864654541015625</LatitudeDegrees>
              <LongitudeDegrees>-1.805763356387615203857421875</LongitudeDegrees>
            </Position>
            <AltitudeMeters>500.399993896484375</AltitudeMeters>
            <DistanceMeters>8581.2062500748</DistanceMeters>
          </Trackpoint>
          <Trackpoint>
            <Time>2021-08-09T08:40:21.000Z</Time>
            <Position>
              <LatitudeDegrees>42.9499314911663532257080078125</LatitudeDegrees>
              <LongitudeDegrees>-1.80574164725840091705322265625</LongitudeDegrees>
            </Position>
            <AltitudeMeters>500.399993896484375</AltitudeMeters>
            <DistanceMeters>8584.2485893647</DistanceMeters>
          </Trackpoint>
          <Trackpoint>
            <Time>2021-08-09T08:40:22.000Z</Time>
            <Position>
              <LatitudeDegrees>42.9499532841145992279052734375</LatitudeDegrees>
              <LongitudeDegrees>-1.80572287179529666900634765625</LongitudeDegrees>
            </Position>
            <AltitudeMeters>500.399993896484375</AltitudeMeters>
            <DistanceMeters>8587.1167594504</DistanceMeters>
          </Trackpoint>
          <Trackpoint>
            <Time>2021-08-09T08:40:23.000Z</Time>
            <Position>
              <LatitudeDegrees>42.949973903596401214599609375</LatitudeDegrees>
              <LongitudeDegrees>-1.80570275522768497467041015625</LongitudeDegrees>
            </Position>
            <AltitudeMeters>500.600006103515625</AltitudeMeters>
            <DistanceMeters>8589.9357073518</DistanceMeters>
          </Trackpoint>
          <Trackpoint>
            <Time>2021-08-09T08:40:24.000Z</Time>
            <Position>
              <LatitudeDegrees>42.94999326579272747039794921875</LatitudeDegrees>
              <LongitudeDegrees>-1.805677525699138641357421875</LongitudeDegrees>
            </Position>
            <AltitudeMeters>500.600006103515625</AltitudeMeters>
            <DistanceMeters>8592.9135480238</DistanceMeters>
          </Trackpoint>
          <Trackpoint>
            <Time>2021-08-09T08:40:25.000Z</Time>
            <Position>
              <LatitudeDegrees>42.95001271180808544158935546875</LatitudeDegrees>
              <LongitudeDegrees>-1.805658079683780670166015625</LongitudeDegrees>
            </Position>
            <AltitudeMeters>500.600006103515625</AltitudeMeters>
            <DistanceMeters>8595.5945815651</DistanceMeters>
          </Trackpoint>
          <Trackpoint>
            <Time>2021-08-09T08:40:26.000Z</Time>
            <Position>
              <LatitudeDegrees>42.9500330798327922821044921875</LatitudeDegrees>
              <LongitudeDegrees>-1.80564290843904018402099609375</LongitudeDegrees>
            </Position>
            <AltitudeMeters>500.79998779296875</AltitudeMeters>
            <DistanceMeters>8598.1760920562</DistanceMeters>
          </Trackpoint>
          <Trackpoint>
            <Time>2021-08-09T08:40:27.000Z</Time>
            <Position>
              <LatitudeDegrees>42.950054705142974853515625</LatitudeDegrees>
              <LongitudeDegrees>-1.80562413297593593597412109375</LongitudeDegrees>
            </Position>
            <AltitudeMeters>501</AltitudeMeters>
            <DistanceMeters>8601.0268934873</DistanceMeters>
          </Trackpoint>
          <Trackpoint>
            <Time>2021-08-09T08:40:28.000Z</Time>
            <Position>
              <LatitudeDegrees>42.9500753246247768402099609375</LatitudeDegrees>
              <LongitudeDegrees>-1.805603764951229095458984375</LongitudeDegrees>
            </Position>
            <AltitudeMeters>501.399993896484375</AltitudeMeters>
            <DistanceMeters>8603.8586257985</DistanceMeters>
          </Trackpoint>
          <Trackpoint>
            <Time>2021-08-09T08:40:29.000Z</Time>
            <Position>
              <LatitudeDegrees>42.950095273554325103759765625</LatitudeDegrees>
              <LongitudeDegrees>-1.80558792315423488616943359375</LongitudeDegrees>
            </Position>
            <AltitudeMeters>501.399993896484375</AltitudeMeters>
            <DistanceMeters>8606.4243470865</DistanceMeters>
          </Trackpoint>
          <Trackpoint>
            <Time>2021-08-09T08:40:30.000Z</Time>
            <Position>
              <LatitudeDegrees>42.95010994188487529754638671875</LatitudeDegrees>
              <LongitudeDegrees>-1.80557635612785816192626953125</LongitudeDegrees>
            </Position>
            <AltitudeMeters>501.600006103515625</AltitudeMeters>
            <DistanceMeters>8608.3105735095</DistanceMeters>
          </Trackpoint>
          <Trackpoint>
            <Time>2021-08-09T08:40:31.000Z</Time>
            <Position>
              <LatitudeDegrees>42.9501296393573284149169921875</LatitudeDegrees>
              <LongitudeDegrees>-1.80556344799697399139404296875</LongitudeDegrees>
            </Position>
            <AltitudeMeters>501.79998779296875</AltitudeMeters>
            <DistanceMeters>8610.7444449414</DistanceMeters>
          </Trackpoint>
          <Trackpoint>
            <Time>2021-08-09T08:40:32.000Z</Time>
            <Position>
              <LatitudeDegrees>42.95015403069555759429931640625</LatitudeDegrees>
              <LongitudeDegrees>-1.8055496178567409515380859375</LongitudeDegrees>
            </Position>
            <AltitudeMeters>501.79998779296875</AltitudeMeters>
            <DistanceMeters>8613.6841359383</DistanceMeters>
          </Trackpoint>
          <Trackpoint>
            <Time>2021-08-09T08:40:33.000Z</Time>
            <Position>
              <LatitudeDegrees>42.95017532072961330413818359375</LatitudeDegrees>
              <LongitudeDegrees>-1.805542744696140289306640625</LongitudeDegrees>
            </Position>
            <AltitudeMeters>501.79998779296875</AltitudeMeters>
            <DistanceMeters>8616.1198617487</DistanceMeters>
          </Trackpoint>
          <Trackpoint>
            <Time>2021-08-09T08:40:34.000Z</Time>
            <Position>
              <LatitudeDegrees>42.95019376091659069061279296875</LatitudeDegrees>
              <LongitudeDegrees>-1.80553763173520565032958984375</LongitudeDegrees>
            </Position>
            <AltitudeMeters>502</AltitudeMeters>
            <DistanceMeters>8618.214764408</DistanceMeters>
          </Trackpoint>
          <Trackpoint>
            <Time>2021-08-09T08:40:35.000Z</Time>
            <Position>
              <LatitudeDegrees>42.95020935125648975372314453125</LatitudeDegrees>
              <LongitudeDegrees>-1.80552908219397068023681640625</LongitudeDegrees>
            </Position>
            <AltitudeMeters>502</AltitudeMeters>
            <DistanceMeters>8620.0865736024</DistanceMeters>
          </Trackpoint>
          <Trackpoint>
            <Time>2021-08-09T08:40:37.000Z</Time>
            <Position>
              <LatitudeDegrees>42.95024036429822444915771484375</LatitudeDegrees>
              <LongitudeDegrees>-1.80551684461534023284912109375</LongitudeDegrees>
            </Position>
            <AltitudeMeters>502</AltitudeMeters>
            <DistanceMeters>8623.6800411916</DistanceMeters>
          </Trackpoint>
          <Trackpoint>
            <Time>2021-08-09T08:40:38.000Z</Time>
            <Position>
              <LatitudeDegrees>42.950254864990711212158203125</LatitudeDegrees>
              <LongitudeDegrees>-1.80551282130181789398193359375</LongitudeDegrees>
            </Position>
            <AltitudeMeters>502.20001220703125</AltitudeMeters>
            <DistanceMeters>8625.3259521653</DistanceMeters>
          </Trackpoint>
          <Trackpoint>
            <Time>2021-08-09T08:40:39.000Z</Time>
            <Position>
              <LatitudeDegrees>42.95027188025414943695068359375</LatitudeDegrees>
              <LongitudeDegrees>-1.80551248602569103240966796875</LongitudeDegrees>
            </Position>
            <AltitudeMeters>502.20001220703125</AltitudeMeters>
            <DistanceMeters>8627.2217291629</DistanceMeters>
          </Trackpoint>
          <Trackpoint>
            <Time>2021-08-09T08:40:40.000Z</Time>
            <Position>
              <LatitudeDegrees>42.9502892307937145233154296875</LatitudeDegrees>
              <LongitudeDegrees>-1.80551684461534023284912109375</LongitudeDegrees>
            </Position>
            <AltitudeMeters>502.20001220703125</AltitudeMeters>
            <DistanceMeters>8629.1876571163</DistanceMeters>
          </Trackpoint>
          <Trackpoint>
            <Time>2021-08-09T08:40:41.000Z</Time>
            <Position>
              <LatitudeDegrees>42.9502966068685054779052734375</LatitudeDegrees>
              <LongitudeDegrees>-1.80552757345139980316162109375</LongitudeDegrees>
            </Position>
            <AltitudeMeters>502.399993896484375</AltitudeMeters>
            <DistanceMeters>8630.3896605402</DistanceMeters>
          </Trackpoint>
          <Trackpoint>
            <Time>2021-08-09T08:40:42.000Z</Time>
            <Position>
              <LatitudeDegrees>42.95028713531792163848876953125</LatitudeDegrees>
              <LongitudeDegrees>-1.80553897283971309661865234375</LongitudeDegrees>
            </Position>
            <AltitudeMeters>502.399993896484375</AltitudeMeters>
            <DistanceMeters>8631.7927131639</DistanceMeters>
          </Trackpoint>
          <Trackpoint>
            <Time>2021-08-09T08:40:46.000Z</Time>
            <Position>
              <LatitudeDegrees>42.95019476674497127532958984375</LatitudeDegrees>
              <LongitudeDegrees>-1.805569566786289215087890625</LongitudeDegrees>
            </Position>
            <AltitudeMeters>502.600006103515625</AltitudeMeters>
            <DistanceMeters>8642.3710262285</DistanceMeters>
          </Trackpoint>
          <Trackpoint>
            <Time>2021-08-09T08:40:48.000Z</Time>
            <Position>
              <LatitudeDegrees>42.95015595853328704833984375</LatitudeDegrees>
              <LongitudeDegrees>-1.80559672415256500244140625</LongitudeDegrees>
            </Position>
            <AltitudeMeters>502.600006103515625</AltitudeMeters>
            <DistanceMeters>8647.2239057207</DistanceMeters>
          </Trackpoint>
          <Trackpoint>
            <Time>2021-08-09T08:40:50.000Z</Time>
            <Position>
              <LatitudeDegrees>42.95013223774731159210205078125</LatitudeDegrees>
              <LongitudeDegrees>-1.80561725981533527374267578125</LongitudeDegrees>
            </Position>
            <AltitudeMeters>502.399993896484375</AltitudeMeters>
            <DistanceMeters>8650.3496924556</DistanceMeters>
          </Trackpoint>
          <Trackpoint>
            <Time>2021-08-09T08:40:51.000Z</Time>
            <Position>
              <LatitudeDegrees>42.95012318529188632965087890625</LatitudeDegrees>
              <LongitudeDegrees>-1.80562530644237995147705078125</LongitudeDegrees>
            </Position>
            <AltitudeMeters>502.399993896484375</AltitudeMeters>
            <DistanceMeters>8651.5516958795</DistanceMeters>
          </Trackpoint>
          <Trackpoint>
            <Time>2021-08-09T08:40:52.000Z</Time>
            <Position>
              <LatitudeDegrees>42.9501115344464778900146484375</LatitudeDegrees>
              <LongitudeDegrees>-1.80563553236424922943115234375</LongitudeDegrees>
            </Position>
            <AltitudeMeters>502.20001220703125</AltitudeMeters>
            <DistanceMeters>8653.0956972335</DistanceMeters>
          </Trackpoint>
          <Trackpoint>
            <Time>2021-08-09T08:40:53.000Z</Time>
            <Position>
              <LatitudeDegrees>42.950101979076862335205078125</LatitudeDegrees>
              <LongitudeDegrees>-1.80564860813319683074951171875</LongitudeDegrees>
            </Position>
            <AltitudeMeters>502.20001220703125</AltitudeMeters>
            <DistanceMeters>8654.6041995583</DistanceMeters>
          </Trackpoint>
          <Trackpoint>
            <Time>2021-08-09T08:40:54.000Z</Time>
            <Position>
              <LatitudeDegrees>42.95010499656200408935546875</LatitudeDegrees>
              <LongitudeDegrees>-1.80566403083503246307373046875</LongitudeDegrees>
            </Position>
            <AltitudeMeters>502.20001220703125</AltitudeMeters>
            <DistanceMeters>8655.900191155</DistanceMeters>
          </Trackpoint>
          <Trackpoint>
            <Time>2021-08-09T08:40:56.000Z</Time>
            <Position>
              <LatitudeDegrees>42.9501239396631717681884765625</LatitudeDegrees>
              <LongitudeDegrees>-1.80568330921232700347900390625</LongitudeDegrees>
            </Position>
            <AltitudeMeters>502</AltitudeMeters>
            <DistanceMeters>8658.5302174963</DistanceMeters>
          </Trackpoint>
          <Trackpoint>
            <Time>2021-08-09T08:40:57.000Z</Time>
            <Position>
              <LatitudeDegrees>42.95013173483312129974365234375</LatitudeDegrees>
              <LongitudeDegrees>-1.80567861534655094146728515625</LongitudeDegrees>
            </Position>
            <AltitudeMeters>502</AltitudeMeters>
            <DistanceMeters>8659.48048464</DistanceMeters>
          </Trackpoint>
          <Trackpoint>
            <Time>2021-08-09T08:40:58.000Z</Time>
            <Position>
              <LatitudeDegrees>42.9501350037753582000732421875</LatitudeDegrees>
              <LongitudeDegrees>-1.80566654540598392486572265625</LongitudeDegrees>
            </Position>
            <AltitudeMeters>502</AltitudeMeters>
            <DistanceMeters>8660.5257784981</DistanceMeters>
          </Trackpoint>
          <Trackpoint>
            <Time>2021-08-09T08:40:59.000Z</Time>
            <Position>
              <LatitudeDegrees>42.9501365125179290771484375</LatitudeDegrees>
              <LongitudeDegrees>-1.805659420788288116455078125</LongitudeDegrees>
            </Position>
            <AltitudeMeters>502</AltitudeMeters>
            <DistanceMeters>8661.1416219933</DistanceMeters>
          </Trackpoint>
          <Trackpoint>
            <Time>2021-08-09T08:41:04.000Z</Time>
            <Position>
              <LatitudeDegrees>42.9501365125179290771484375</LatitudeDegrees>
              <LongitudeDegrees>-1.805659420788288116455078125</LongitudeDegrees>
            </Position>
            <AltitudeMeters>501.79998779296875</AltitudeMeters>
            <DistanceMeters>8661.2366487077</DistanceMeters>
          </Trackpoint>
          <Trackpoint>
            <Time>2021-08-09T08:41:21.000Z</Time>
            <Position>
              <LatitudeDegrees>42.9501365125179290771484375</LatitudeDegrees>
              <LongitudeDegrees>-1.805659420788288116455078125</LongitudeDegrees>
            </Position>
            <AltitudeMeters>501.79998779296875</AltitudeMeters>
            <DistanceMeters>8661.3316754221</DistanceMeters>
          </Trackpoint>
          <Trackpoint>
            <Time>2021-08-09T08:42:25.000Z</Time>
            <Position>
              <LatitudeDegrees>42.9501365125179290771484375</LatitudeDegrees>
              <LongitudeDegrees>-1.805659420788288116455078125</LongitudeDegrees>
            </Position>
            <AltitudeMeters>502.20001220703125</AltitudeMeters>
            <DistanceMeters>8661.4267021364</DistanceMeters>
          </Trackpoint>
          <Trackpoint>
            <Time>2021-08-09T08:43:22.000Z</Time>
            <Position>
              <LatitudeDegrees>42.9501393623650074005126953125</LatitudeDegrees>
              <LongitudeDegrees>-1.80565699003636837005615234375</LongitudeDegrees>
            </Position>
            <AltitudeMeters>502.20001220703125</AltitudeMeters>
            <DistanceMeters>8661.7947390186</DistanceMeters>
          </Trackpoint>
          <Trackpoint>
            <Time>2021-08-09T08:44:18.000Z</Time>
            <Position>
              <LatitudeDegrees>42.9501393623650074005126953125</LatitudeDegrees>
              <LongitudeDegrees>-1.80565699003636837005615234375</LongitudeDegrees>
            </Position>
            <AltitudeMeters>502.20001220703125</AltitudeMeters>
            <DistanceMeters>8661.7947390186</DistanceMeters>
          </Trackpoint>
          <Trackpoint>
            <Time>2021-08-09T08:46:15.000Z</Time>
            <Position>
              <LatitudeDegrees>42.9501393623650074005126953125</LatitudeDegrees>
              <LongitudeDegrees>-1.80565699003636837005615234375</LongitudeDegrees>
            </Position>
            <AltitudeMeters>502.20001220703125</AltitudeMeters>
            <DistanceMeters>8661.7947390186</DistanceMeters>
          </Trackpoint>
          <Trackpoint>
            <Time>2021-08-09T08:47:19.000Z</Time>
            <Position>
              <LatitudeDegrees>42.95013424940407276153564453125</LatitudeDegrees>
              <LongitudeDegrees>-1.80564098060131072998046875</LongitudeDegrees>
            </Position>
            <AltitudeMeters>502</AltitudeMeters>
            <DistanceMeters>8663.2169686497</DistanceMeters>
          </Trackpoint>
          <Trackpoint>
            <Time>2021-08-09T08:47:21.000Z</Time>
            <Position>
              <LatitudeDegrees>42.95013450086116790771484375</LatitudeDegrees>
              <LongitudeDegrees>-1.80560267530381679534912109375</LongitudeDegrees>
            </Position>
            <AltitudeMeters>502</AltitudeMeters>
            <DistanceMeters>8666.3369722405</DistanceMeters>
          </Trackpoint>
          <Trackpoint>
            <Time>2021-08-09T08:47:22.000Z</Time>
            <Position>
              <LatitudeDegrees>42.950142212212085723876953125</LatitudeDegrees>
              <LongitudeDegrees>-1.8055881746113300323486328125</LongitudeDegrees>
            </Position>
            <AltitudeMeters>502</AltitudeMeters>
            <DistanceMeters>8667.7968003265</DistanceMeters>
          </Trackpoint>
          <Trackpoint>
            <Time>2021-08-09T08:47:23.000Z</Time>
            <Position>
              <LatitudeDegrees>42.95015553943812847137451171875</LatitudeDegrees>
              <LongitudeDegrees>-1.80557518266141414642333984375</LongitudeDegrees>
            </Position>
            <AltitudeMeters>502</AltitudeMeters>
            <DistanceMeters>8669.6197287758</DistanceMeters>
          </Trackpoint>
          <Trackpoint>
            <Time>2021-08-09T08:47:25.000Z</Time>
            <Position>
              <LatitudeDegrees>42.95019107870757579803466796875</LatitudeDegrees>
              <LongitudeDegrees>-1.80554844439029693603515625</LongitudeDegrees>
            </Position>
            <AltitudeMeters>502</AltitudeMeters>
            <DistanceMeters>8674.1362476441</DistanceMeters>
          </Trackpoint>
          <Trackpoint>
            <Time>2021-08-09T08:47:26.000Z</Time>
            <Position>
              <LatitudeDegrees>42.9502164758741855621337890625</LatitudeDegrees>
              <LongitudeDegrees>-1.80553503334522247314453125</LongitudeDegrees>
            </Position>
            <AltitudeMeters>502</AltitudeMeters>
            <DistanceMeters>8677.1666911336</DistanceMeters>
          </Trackpoint>
          <Trackpoint>
            <Time>2021-08-09T08:47:27.000Z</Time>
            <Position>
              <LatitudeDegrees>42.950238771736621856689453125</LatitudeDegrees>
              <LongitudeDegrees>-1.80552438832819461822509765625</LongitudeDegrees>
            </Position>
            <AltitudeMeters>502</AltitudeMeters>
            <DistanceMeters>8679.7932817761</DistanceMeters>
          </Trackpoint>
          <Trackpoint>
            <Time>2021-08-09T08:47:30.000Z</Time>
            <Position>
              <LatitudeDegrees>42.95030524022877216339111328125</LatitudeDegrees>
              <LongitudeDegrees>-1.80549371056258678436279296875</LongitudeDegrees>
            </Position>
            <AltitudeMeters>502</AltitudeMeters>
            <DistanceMeters>8687.6016795727</DistanceMeters>
          </Trackpoint>
          <Trackpoint>
            <Time>2021-08-09T08:47:31.000Z</Time>
            <Position>
              <LatitudeDegrees>42.9503261111676692962646484375</LatitudeDegrees>
              <LongitudeDegrees>-1.8054808862507343292236328125</LongitudeDegrees>
            </Position>
            <AltitudeMeters>502</AltitudeMeters>
            <DistanceMeters>8690.1479699895</DistanceMeters>
          </Trackpoint>
          <Trackpoint>
            <Time>2021-08-09T08:47:34.000Z</Time>
            <Position>
              <LatitudeDegrees>42.95038838870823383331298828125</LatitudeDegrees>
              <LongitudeDegrees>-1.80542145855724811553955078125</LongitudeDegrees>
            </Position>
            <AltitudeMeters>502.600006103515625</AltitudeMeters>
            <DistanceMeters>8698.6026778573</DistanceMeters>
          </Trackpoint>
          <Trackpoint>
            <Time>2021-08-09T08:47:43.000Z</Time>
            <Position>
              <LatitudeDegrees>42.950555272400379180908203125</LatitudeDegrees>
              <LongitudeDegrees>-1.805144436657428741455078125</LongitudeDegrees>
            </Position>
            <AltitudeMeters>503.399993896484375</AltitudeMeters>
            <DistanceMeters>8727.8316965265</DistanceMeters>
          </Trackpoint>
          <Trackpoint>
            <Time>2021-08-09T08:47:51.000Z</Time>
            <Position>
              <LatitudeDegrees>42.9506747983396053314208984375</LatitudeDegrees>
              <LongitudeDegrees>-1.80493765510618686676025390625</LongitudeDegrees>
            </Position>
            <AltitudeMeters>503.399993896484375</AltitudeMeters>
            <DistanceMeters>8749.2972195956</DistanceMeters>
          </Trackpoint>
          <Trackpoint>
            <Time>2021-08-09T08:47:58.000Z</Time>
            <Position>
              <LatitudeDegrees>42.95079776085913181304931640625</LatitudeDegrees>
              <LongitudeDegrees>-1.80469416081905364990234375</LongitudeDegrees>
            </Position>
            <AltitudeMeters>503.399993896484375</AltitudeMeters>
            <DistanceMeters>8773.3971259606</DistanceMeters>
          </Trackpoint>
          <Trackpoint>
            <Time>2021-08-09T08:47:59.000Z</Time>
            <Position>
              <LatitudeDegrees>42.95081402175128459930419921875</LatitudeDegrees>
              <LongitudeDegrees>-1.80465635843575000762939453125</LongitudeDegrees>
            </Position>
            <AltitudeMeters>503.399993896484375</AltitudeMeters>
            <DistanceMeters>8776.9704336848</DistanceMeters>
          </Trackpoint>
          <Trackpoint>
            <Time>2021-08-09T08:48:00.000Z</Time>
            <Position>
              <LatitudeDegrees>42.95083145610988140106201171875</LatitudeDegrees>
              <LongitudeDegrees>-1.8046198971569538116455078125</LongitudeDegrees>
            </Position>
            <AltitudeMeters>503.399993896484375</AltitudeMeters>
            <DistanceMeters>8780.5196528439</DistanceMeters>
          </Trackpoint>
          <Trackpoint>
            <Time>2021-08-09T08:48:01.000Z</Time>
            <Position>
              <LatitudeDegrees>42.95084889046847820281982421875</LatitudeDegrees>
              <LongitudeDegrees>-1.80458544753491878509521484375</LongitudeDegrees>
            </Position>
            <AltitudeMeters>503.399993896484375</AltitudeMeters>
            <DistanceMeters>8783.9326864816</DistanceMeters>
          </Trackpoint>
          <Trackpoint>
            <Time>2021-08-09T08:48:02.000Z</Time>
            <Position>
              <LatitudeDegrees>42.95086540281772613525390625</LatitudeDegrees>
              <LongitudeDegrees>-1.80455091409385204315185546875</LongitudeDegrees>
            </Position>
            <AltitudeMeters>503.600006103515625</AltitudeMeters>
            <DistanceMeters>8787.2923881879</DistanceMeters>
          </Trackpoint>
          <Trackpoint>
            <Time>2021-08-09T08:48:05.000Z</Time>
            <Position>
              <LatitudeDegrees>42.95090940780937671661376953125</LatitudeDegrees>
              <LongitudeDegrees>-1.8044494092464447021484375</LongitudeDegrees>
            </Position>
            <AltitudeMeters>503.79998779296875</AltitudeMeters>
            <DistanceMeters>8796.9032493327</DistanceMeters>
          </Trackpoint>
          <Trackpoint>
            <Time>2021-08-09T08:48:06.000Z</Time>
            <Position>
              <LatitudeDegrees>42.9509235732257366180419921875</LatitudeDegrees>
              <LongitudeDegrees>-1.80441546253859996795654296875</LongitudeDegrees>
            </Position>
            <AltitudeMeters>503.79998779296875</AltitudeMeters>
            <DistanceMeters>8800.0862896671</DistanceMeters>
          </Trackpoint>
          <Trackpoint>
            <Time>2021-08-09T08:48:07.000Z</Time>
            <Position>
              <LatitudeDegrees>42.95093924738466739654541015625</LatitudeDegrees>
              <LongitudeDegrees>-1.804382018744945526123046875</LongitudeDegrees>
            </Position>
            <AltitudeMeters>503.79998779296875</AltitudeMeters>
            <DistanceMeters>8803.3227829353</DistanceMeters>
          </Trackpoint>
          <Trackpoint>
            <Time>2021-08-09T08:48:08.000Z</Time>
            <Position>
              <LatitudeDegrees>42.95095567591488361358642578125</LatitudeDegrees>
              <LongitudeDegrees>-1.8043476529419422149658203125</LongitudeDegrees>
            </Position>
            <AltitudeMeters>504</AltitudeMeters>
            <DistanceMeters>8806.6663191826</DistanceMeters>
          </Trackpoint>
          <Trackpoint>
            <Time>2021-08-09T08:48:09.000Z</Time>
            <Position>
              <LatitudeDegrees>42.95097009278833866119384765625</LatitudeDegrees>
              <LongitudeDegrees>-1.80431194603443145751953125</LongitudeDegrees>
            </Position>
            <AltitudeMeters>504</AltitudeMeters>
            <DistanceMeters>8809.9881791157</DistanceMeters>
          </Trackpoint>
          <Trackpoint>
            <Time>2021-08-09T08:48:10.000Z</Time>
            <Position>
              <LatitudeDegrees>42.95098467729985713958740234375</LatitudeDegrees>
              <LongitudeDegrees>-1.8042772449553012847900390625</LongitudeDegrees>
            </Position>
            <AltitudeMeters>504.20001220703125</AltitudeMeters>
            <DistanceMeters>8813.2469165856</DistanceMeters>
          </Trackpoint>
          <Trackpoint>
            <Time>2021-08-09T08:48:13.000Z</Time>
            <Position>
              <LatitudeDegrees>42.9510298557579517364501953125</LatitudeDegrees>
              <LongitudeDegrees>-1.80417607538402080535888671875</LongitudeDegrees>
            </Position>
            <AltitudeMeters>504.399993896484375</AltitudeMeters>
            <DistanceMeters>8822.9018365299</DistanceMeters>
          </Trackpoint>
          <Trackpoint>
            <Time>2021-08-09T08:48:16.000Z</Time>
            <Position>
              <LatitudeDegrees>42.95108391903340816497802734375</LatitudeDegrees>
              <LongitudeDegrees>-1.8040633387863636016845703125</LongitudeDegrees>
            </Position>
            <AltitudeMeters>504.600006103515625</AltitudeMeters>
            <DistanceMeters>8833.8814321749</DistanceMeters>
          </Trackpoint>
          <Trackpoint>
            <Time>2021-08-09T08:48:22.000Z</Time>
            <Position>
              <LatitudeDegrees>42.95117528177797794342041015625</LatitudeDegrees>
              <LongitudeDegrees>-1.8038695491850376129150390625</LongitudeDegrees>
            </Position>
            <AltitudeMeters>505.399993896484375</AltitudeMeters>
            <DistanceMeters>8852.6602112963</DistanceMeters>
          </Trackpoint>
          <Trackpoint>
            <Time>2021-08-09T08:48:24.000Z</Time>
            <Position>
              <LatitudeDegrees>42.9512068815529346466064453125</LatitudeDegrees>
              <LongitudeDegrees>-1.80379536934196949005126953125</LongitudeDegrees>
            </Position>
            <AltitudeMeters>505.600006103515625</AltitudeMeters>
            <DistanceMeters>8859.6516205813</DistanceMeters>
          </Trackpoint>
          <Trackpoint>
            <Time>2021-08-09T08:48:30.000Z</Time>
            <Position>
              <LatitudeDegrees>42.95130704529583454132080078125</LatitudeDegrees>
              <LongitudeDegrees>-1.80357006378471851348876953125</LongitudeDegrees>
            </Position>
            <AltitudeMeters>506.399993896484375</AltitudeMeters>
            <DistanceMeters>8881.1266068227</DistanceMeters>
          </Trackpoint>
          <Trackpoint>
            <Time>2021-08-09T08:48:34.000Z</Time>
            <Position>
              <LatitudeDegrees>42.95136605389416217803955078125</LatitudeDegrees>
              <LongitudeDegrees>-1.803421787917613983154296875</LongitudeDegrees>
            </Position>
            <AltitudeMeters>506.79998779296875</AltitudeMeters>
            <DistanceMeters>8894.8762861074</DistanceMeters>
          </Trackpoint>
          <Trackpoint>
            <Time>2021-08-09T08:48:35.000Z</Time>
            <Position>
              <LatitudeDegrees>42.95138130895793437957763671875</LatitudeDegrees>
              <LongitudeDegrees>-1.8033827282488346099853515625</LongitudeDegrees>
            </Position>
            <AltitudeMeters>506.79998779296875</AltitudeMeters>
            <DistanceMeters>8898.482296379</DistanceMeters>
          </Trackpoint>
          <Trackpoint>
            <Time>2021-08-09T08:48:36.000Z</Time>
            <Position>
              <LatitudeDegrees>42.95139287598431110382080078125</LatitudeDegrees>
              <LongitudeDegrees>-1.80334568023681640625</LongitudeDegrees>
            </Position>
            <AltitudeMeters>507</AltitudeMeters>
            <DistanceMeters>8901.7645031363</DistanceMeters>
          </Trackpoint>
          <Trackpoint>
            <Time>2021-08-09T08:48:37.000Z</Time>
            <Position>
              <LatitudeDegrees>42.9514033533632755279541015625</LatitudeDegrees>
              <LongitudeDegrees>-1.8033096380531787872314453125</LongitudeDegrees>
            </Position>
            <AltitudeMeters>507.20001220703125</AltitudeMeters>
            <DistanceMeters>8904.9247665031</DistanceMeters>
          </Trackpoint>
          <Trackpoint>
            <Time>2021-08-09T08:48:38.000Z</Time>
            <Position>
              <LatitudeDegrees>42.9514150880277156829833984375</LatitudeDegrees>
              <LongitudeDegrees>-1.8032720871269702911376953125</LongitudeDegrees>
            </Position>
            <AltitudeMeters>507.399993896484375</AltitudeMeters>
            <DistanceMeters>8908.2493437044</DistanceMeters>
          </Trackpoint>
          <Trackpoint>
            <Time>2021-08-09T08:48:39.000Z</Time>
            <Position>
              <LatitudeDegrees>42.95142707414925098419189453125</LatitudeDegrees>
              <LongitudeDegrees>-1.80323562584817409515380859375</LongitudeDegrees>
            </Position>
            <AltitudeMeters>507.399993896484375</AltitudeMeters>
            <DistanceMeters>8911.5053089599</DistanceMeters>
          </Trackpoint>
          <Trackpoint>
            <Time>2021-08-09T08:48:40.000Z</Time>
            <Position>
              <LatitudeDegrees>42.95144065283238887786865234375</LatitudeDegrees>
              <LongitudeDegrees>-1.8031973205506801605224609375</LongitudeDegrees>
            </Position>
            <AltitudeMeters>507.399993896484375</AltitudeMeters>
            <DistanceMeters>8914.9721564828</DistanceMeters>
          </Trackpoint>
          <Trackpoint>
            <Time>2021-08-09T08:48:41.000Z</Time>
            <Position>
              <LatitudeDegrees>42.9514563269913196563720703125</LatitudeDegrees>
              <LongitudeDegrees>-1.80315725505352020263671875</LongitudeDegrees>
            </Position>
            <AltitudeMeters>507.600006103515625</AltitudeMeters>
            <DistanceMeters>8918.6721018728</DistanceMeters>
          </Trackpoint>
          <Trackpoint>
            <Time>2021-08-09T08:48:42.000Z</Time>
            <Position>
              <LatitudeDegrees>42.95146965421736240386962890625</LatitudeDegrees>
              <LongitudeDegrees>-1.80311744101345539093017578125</LongitudeDegrees>
            </Position>
            <AltitudeMeters>507.600006103515625</AltitudeMeters>
            <DistanceMeters>8922.2378202623</DistanceMeters>
          </Trackpoint>
          <Trackpoint>
            <Time>2021-08-09T08:48:43.000Z</Time>
            <Position>
              <LatitudeDegrees>42.95148423872888088226318359375</LatitudeDegrees>
              <LongitudeDegrees>-1.803081147372722625732421875</LongitudeDegrees>
            </Position>
            <AltitudeMeters>507.79998779296875</AltitudeMeters>
            <DistanceMeters>8925.6109340047</DistanceMeters>
          </Trackpoint>
          <Trackpoint>
            <Time>2021-08-09T08:48:44.000Z</Time>
            <Position>
              <LatitudeDegrees>42.95149865560233592987060546875</LatitudeDegrees>
              <LongitudeDegrees>-1.80304803885519504547119140625</LongitudeDegrees>
            </Position>
            <AltitudeMeters>507.79998779296875</AltitudeMeters>
            <DistanceMeters>8928.7482550472</DistanceMeters>
          </Trackpoint>
          <Trackpoint>
            <Time>2021-08-09T08:48:45.000Z</Time>
            <Position>
              <LatitudeDegrees>42.95151089318096637725830078125</LatitudeDegrees>
              <LongitudeDegrees>-1.803014092147350311279296875</LongitudeDegrees>
            </Position>
            <AltitudeMeters>508</AltitudeMeters>
            <DistanceMeters>8931.8304037164</DistanceMeters>
          </Trackpoint>
          <Trackpoint>
            <Time>2021-08-09T08:48:46.000Z</Time>
            <Position>
              <LatitudeDegrees>42.95152296312153339385986328125</LatitudeDegrees>
              <LongitudeDegrees>-1.802981905639171600341796875</LongitudeDegrees>
            </Position>
            <AltitudeMeters>508</AltitudeMeters>
            <DistanceMeters>8934.7762318619</DistanceMeters>
          </Trackpoint>
          <Trackpoint>
            <Time>2021-08-09T08:48:47.000Z</Time>
            <Position>
              <LatitudeDegrees>42.95153603889048099517822265625</LatitudeDegrees>
              <LongitudeDegrees>-1.80294745601713657379150390625</LongitudeDegrees>
            </Position>
            <AltitudeMeters>508.20001220703125</AltitudeMeters>
            <DistanceMeters>8937.9364952286</DistanceMeters>
          </Trackpoint>
          <Trackpoint>
            <Time>2021-08-09T08:48:48.000Z</Time>
            <Position>
              <LatitudeDegrees>42.95154894702136516571044921875</LatitudeDegrees>
              <LongitudeDegrees>-1.80291644297540187835693359375</LongitudeDegrees>
            </Position>
            <AltitudeMeters>508.399993896484375</AltitudeMeters>
            <DistanceMeters>8940.8422002162</DistanceMeters>
          </Trackpoint>
          <Trackpoint>
            <Time>2021-08-09T08:48:49.000Z</Time>
            <Position>
              <LatitudeDegrees>42.9515646211802959442138671875</LatitudeDegrees>
              <LongitudeDegrees>-1.80288660340011119842529296875</LongitudeDegrees>
            </Position>
            <AltitudeMeters>508.399993896484375</AltitudeMeters>
            <DistanceMeters>8943.833655674</DistanceMeters>
          </Trackpoint>
          <Trackpoint>
            <Time>2021-08-09T08:48:50.000Z</Time>
            <Position>
              <LatitudeDegrees>42.95158348046243190765380859375</LatitudeDegrees>
              <LongitudeDegrees>-1.80285391397774219512939453125</LongitudeDegrees>
            </Position>
            <AltitudeMeters>508.600006103515625</AltitudeMeters>
            <DistanceMeters>8947.2241257466</DistanceMeters>
          </Trackpoint>
          <Trackpoint>
            <Time>2021-08-09T08:48:51.000Z</Time>
            <Position>
              <LatitudeDegrees>42.95159840025007724761962890625</LatitudeDegrees>
              <LongitudeDegrees>-1.80282600224018096923828125</LongitudeDegrees>
            </Position>
            <AltitudeMeters>508.79998779296875</AltitudeMeters>
            <DistanceMeters>8950.0398684759</DistanceMeters>
          </Trackpoint>
          <Trackpoint>
            <Time>2021-08-09T08:48:52.000Z</Time>
            <Position>
              <LatitudeDegrees>42.95161734335124492645263671875</LatitudeDegrees>
              <LongitudeDegrees>-1.80278786458075046539306640625</LongitudeDegrees>
            </Position>
            <AltitudeMeters>508.79998779296875</AltitudeMeters>
            <DistanceMeters>8953.7943257375</DistanceMeters>
          </Trackpoint>
          <Trackpoint>
            <Time>2021-08-09T08:48:53.000Z</Time>
            <Position>
              <LatitudeDegrees>42.95163385570049285888671875</LatitudeDegrees>
              <LongitudeDegrees>-1.80275970138609409332275390625</LongitudeDegrees>
            </Position>
            <AltitudeMeters>509.20001220703125</AltitudeMeters>
            <DistanceMeters>8956.7324804442</DistanceMeters>
          </Trackpoint>
          <Trackpoint>
            <Time>2021-08-09T08:48:54.000Z</Time>
            <Position>
              <LatitudeDegrees>42.95164617709815502166748046875</LatitudeDegrees>
              <LongitudeDegrees>-1.802729777991771697998046875</LongitudeDegrees>
            </Position>
            <AltitudeMeters>509.20001220703125</AltitudeMeters>
            <DistanceMeters>8959.5305290994</DistanceMeters>
          </Trackpoint>
          <Trackpoint>
            <Time>2021-08-09T08:48:55.000Z</Time>
            <Position>
              <LatitudeDegrees>42.95165724121034145355224609375</LatitudeDegrees>
              <LongitudeDegrees>-1.8026984296739101409912109375</LongitudeDegrees>
            </Position>
            <AltitudeMeters>509.399993896484375</AltitudeMeters>
            <DistanceMeters>8962.3654485048</DistanceMeters>
          </Trackpoint>
          <Trackpoint>
            <Time>2021-08-09T08:48:56.000Z</Time>
            <Position>
              <LatitudeDegrees>42.95167350210249423980712890625</LatitudeDegrees>
              <LongitudeDegrees>-1.80266900919377803802490234375</LongitudeDegrees>
            </Position>
            <AltitudeMeters>509.600006103515625</AltitudeMeters>
            <DistanceMeters>8965.367450552</DistanceMeters>
          </Trackpoint>
          <Trackpoint>
            <Time>2021-08-09T08:48:57.000Z</Time>
            <Position>
              <LatitudeDegrees>42.95169512741267681121826171875</LatitudeDegrees>
              <LongitudeDegrees>-1.80264092981815338134765625</LongitudeDegrees>
            </Position>
            <AltitudeMeters>510</AltitudeMeters>
            <DistanceMeters>8968.689310485</DistanceMeters>
          </Trackpoint>
          <Trackpoint>
            <Time>2021-08-09T08:48:58.000Z</Time>
            <Position>
              <LatitudeDegrees>42.95171298086643218994140625</LatitudeDegrees>
              <LongitudeDegrees>-1.80261167697608470916748046875</LongitudeDegrees>
            </Position>
            <AltitudeMeters>510.20001220703125</AltitudeMeters>
            <DistanceMeters>8971.7918999662</DistanceMeters>
          </Trackpoint>
          <Trackpoint>
            <Time>2021-08-09T08:48:59.000Z</Time>
            <Position>
              <LatitudeDegrees>42.9517297446727752685546875</LatitudeDegrees>
              <LongitudeDegrees>-1.80258016102015972137451171875</LongitudeDegrees>
            </Position>
            <AltitudeMeters>510.20001220703125</AltitudeMeters>
            <DistanceMeters>8974.9664180889</DistanceMeters>
          </Trackpoint>
          <Trackpoint>
            <Time>2021-08-09T08:49:00.000Z</Time>
            <Position>
              <LatitudeDegrees>42.95174491591751575469970703125</LatitudeDegrees>
              <LongitudeDegrees>-1.80254763923585414886474609375</LongitudeDegrees>
            </Position>
            <AltitudeMeters>510.399993896484375</AltitudeMeters>
            <DistanceMeters>8978.1066160886</DistanceMeters>
          </Trackpoint>
          <Trackpoint>
            <Time>2021-08-09T08:49:01.000Z</Time>
            <Position>
              <LatitudeDegrees>42.9517619311809539794921875</LatitudeDegrees>
              <LongitudeDegrees>-1.80251679383218288421630859375</LongitudeDegrees>
            </Position>
            <AltitudeMeters>510.600006103515625</AltitudeMeters>
            <DistanceMeters>8981.2525601095</DistanceMeters>
          </Trackpoint>
          <Trackpoint>
            <Time>2021-08-09T08:49:02.000Z</Time>
            <Position>
              <LatitudeDegrees>42.95178129337728023529052734375</LatitudeDegrees>
              <LongitudeDegrees>-1.80248846299946308135986328125</LongitudeDegrees>
            </Position>
            <AltitudeMeters>510.79998779296875</AltitudeMeters>
            <DistanceMeters>8984.4099648023</DistanceMeters>
          </Trackpoint>
          <Trackpoint>
            <Time>2021-08-09T08:49:03.000Z</Time>
            <Position>
              <LatitudeDegrees>42.95180073939263820648193359375</LatitudeDegrees>
              <LongitudeDegrees>-1.8024620600044727325439453125</LongitudeDegrees>
            </Position>
            <AltitudeMeters>511</AltitudeMeters>
            <DistanceMeters>8987.461195507</DistanceMeters>
          </Trackpoint>
          <Trackpoint>
            <Time>2021-08-09T08:49:04.000Z</Time>
            <Position>
              <LatitudeDegrees>42.9518221132457256317138671875</LatitudeDegrees>
              <LongitudeDegrees>-1.8024362437427043914794921875</LongitudeDegrees>
            </Position>
            <AltitudeMeters>511.20001220703125</AltitudeMeters>
            <DistanceMeters>8990.6357136297</DistanceMeters>
          </Trackpoint>
          <Trackpoint>
            <Time>2021-08-09T08:49:05.000Z</Time>
            <Position>
              <LatitudeDegrees>42.95184231363236904144287109375</LatitudeDegrees>
              <LongitudeDegrees>-1.8024100922048091888427734375</LongitudeDegrees>
            </Position>
            <AltitudeMeters>511</AltitudeMeters>
            <DistanceMeters>8993.7353912479</DistanceMeters>
          </Trackpoint>
          <Trackpoint>
            <Time>2021-08-09T08:49:06.000Z</Time>
            <Position>
              <LatitudeDegrees>42.95185941271483898162841796875</LatitudeDegrees>
              <LongitudeDegrees>-1.80238821543753147125244140625</LongitudeDegrees>
            </Position>
            <AltitudeMeters>511.20001220703125</AltitudeMeters>
            <DistanceMeters>8996.3430046322</DistanceMeters>
          </Trackpoint>
          <Trackpoint>
            <Time>2021-08-09T08:49:07.000Z</Time>
            <Position>
              <LatitudeDegrees>42.95188472606241703033447265625</LatitudeDegrees>
              <LongitudeDegrees>-1.802358292043209075927734375</LongitudeDegrees>
            </Position>
            <AltitudeMeters>511.20001220703125</AltitudeMeters>
            <DistanceMeters>9000.0696998936</DistanceMeters>
          </Trackpoint>
          <Trackpoint>
            <Time>2021-08-09T08:49:08.000Z</Time>
            <Position>
              <LatitudeDegrees>42.951905094087123870849609375</LatitudeDegrees>
              <LongitudeDegrees>-1.80233423598110675811767578125</LongitudeDegrees>
            </Position>
            <AltitudeMeters>511.20001220703125</AltitudeMeters>
            <DistanceMeters>9003.0656798643</DistanceMeters>
          </Trackpoint>
          <Trackpoint>
            <Time>2021-08-09T08:49:09.000Z</Time>
            <Position>
              <LatitudeDegrees>42.95192730613052845001220703125</LatitudeDegrees>
              <LongitudeDegrees>-1.80231261067092418670654296875</LongitudeDegrees>
            </Position>
            <AltitudeMeters>511.399993896484375</AltitudeMeters>
            <DistanceMeters>9006.1020770797</DistanceMeters>
          </Trackpoint>
          <Trackpoint>
            <Time>2021-08-09T08:49:10.000Z</Time>
            <Position>
              <LatitudeDegrees>42.951948009431362152099609375</LatitudeDegrees>
              <LongitudeDegrees>-1.8022907339036464691162109375</LongitudeDegrees>
            </Position>
            <AltitudeMeters>511.399993896484375</AltitudeMeters>
            <DistanceMeters>9009.0155409729</DistanceMeters>
          </Trackpoint>
          <Trackpoint>
            <Time>2021-08-09T08:49:11.000Z</Time>
            <Position>
              <LatitudeDegrees>42.95196837745606899261474609375</LatitudeDegrees>
              <LongitudeDegrees>-1.802269779145717620849609375</LongitudeDegrees>
            </Position>
            <AltitudeMeters>511.600006103515625</AltitudeMeters>
            <DistanceMeters>9011.8536438935</DistanceMeters>
          </Trackpoint>
          <Trackpoint>
            <Time>2021-08-09T08:49:12.000Z</Time>
            <Position>
              <LatitudeDegrees>42.95198866166174411773681640625</LatitudeDegrees>
              <LongitudeDegrees>-1.80225075222551822662353515625</LongitudeDegrees>
            </Position>
            <AltitudeMeters>511.79998779296875</AltitudeMeters>
            <DistanceMeters>9014.5913369824</DistanceMeters>
          </Trackpoint>
          <Trackpoint>
            <Time>2021-08-09T08:49:13.000Z</Time>
            <Position>
              <LatitudeDegrees>42.9520105384290218353271484375</LatitudeDegrees>
              <LongitudeDegrees>-1.80223197676241397857666015625</LongitudeDegrees>
            </Position>
            <AltitudeMeters>512</AltitudeMeters>
            <DistanceMeters>9017.4657969223</DistanceMeters>
          </Trackpoint>
          <Trackpoint>
            <Time>2021-08-09T08:49:14.000Z</Time>
            <Position>
              <LatitudeDegrees>42.9520323313772678375244140625</LatitudeDegrees>
              <LongitudeDegrees>-1.80221169255673885345458984375</LongitudeDegrees>
            </Position>
            <AltitudeMeters>512</AltitudeMeters>
            <DistanceMeters>9020.3993379312</DistanceMeters>
          </Trackpoint>
          <Trackpoint>
            <Time>2021-08-09T08:49:15.000Z</Time>
            <Position>
              <LatitudeDegrees>42.9520554654300212860107421875</LatitudeDegrees>
              <LongitudeDegrees>-1.80218872614204883575439453125</LongitudeDegrees>
            </Position>
            <AltitudeMeters>512.20001220703125</AltitudeMeters>
            <DistanceMeters>9023.5823782656</DistanceMeters>
          </Trackpoint>
          <Trackpoint>
            <Time>2021-08-09T08:49:16.000Z</Time>
            <Position>
              <LatitudeDegrees>42.95207952149212360382080078125</LatitudeDegrees>
              <LongitudeDegrees>-1.8021686933934688568115234375</LongitudeDegrees>
            </Position>
            <AltitudeMeters>512.20001220703125</AltitudeMeters>
            <DistanceMeters>9026.7182598398</DistanceMeters>
          </Trackpoint>
          <Trackpoint>
            <Time>2021-08-09T08:49:17.000Z</Time>
            <Position>
              <LatitudeDegrees>42.95210265554487705230712890625</LatitudeDegrees>
              <LongitudeDegrees>-1.80214715190231800079345703125</LongitudeDegrees>
            </Position>
            <AltitudeMeters>512.20001220703125</AltitudeMeters>
            <DistanceMeters>9029.835367835</DistanceMeters>
          </Trackpoint>
          <Trackpoint>
            <Time>2021-08-09T08:49:18.000Z</Time>
            <Position>
              <LatitudeDegrees>42.95212511904537677764892578125</LatitudeDegrees>
              <LongitudeDegrees>-1.80212938226759433746337890625</LongitudeDegrees>
            </Position>
            <AltitudeMeters>512.4000244140625</AltitudeMeters>
            <DistanceMeters>9032.7239298707</DistanceMeters>
          </Trackpoint>
          <Trackpoint>
            <Time>2021-08-09T08:49:19.000Z</Time>
            <Position>
              <LatitudeDegrees>42.95214540325105190277099609375</LatitudeDegrees>
              <LongitudeDegrees>-1.80211060680449008941650390625</LongitudeDegrees>
            </Position>
            <AltitudeMeters>512.5999755859375</AltitudeMeters>
            <DistanceMeters>9035.4483973117</DistanceMeters>
          </Trackpoint>
          <Trackpoint>
            <Time>2021-08-09T08:49:20.000Z</Time>
            <Position>
              <LatitudeDegrees>42.95216753147542476654052734375</LatitudeDegrees>
              <LongitudeDegrees>-1.8020952679216861724853515625</LongitudeDegrees>
            </Position>
            <AltitudeMeters>512.79998779296875</AltitudeMeters>
            <DistanceMeters>9038.2090828277</DistanceMeters>
          </Trackpoint>
          <Trackpoint>
            <Time>2021-08-09T08:49:21.000Z</Time>
            <Position>
              <LatitudeDegrees>42.9521878995001316070556640625</LatitudeDegrees>
              <LongitudeDegrees>-1.8020801804959774017333984375</LongitudeDegrees>
            </Position>
            <AltitudeMeters>513</AltitudeMeters>
            <DistanceMeters>9040.787092964</DistanceMeters>
          </Trackpoint>
          <Trackpoint>
            <Time>2021-08-09T08:49:22.000Z</Time>
            <Position>
              <LatitudeDegrees>42.952205836772918701171875</LatitudeDegrees>
              <LongitudeDegrees>-1.80206484161317348480224609375</LongitudeDegrees>
            </Position>
            <AltitudeMeters>513</AltitudeMeters>
            <DistanceMeters>9043.1417621418</DistanceMeters>
          </Trackpoint>
          <Trackpoint>
            <Time>2021-08-09T08:49:23.000Z</Time>
            <Position>
              <LatitudeDegrees>42.9522288031876087188720703125</LatitudeDegrees>
              <LongitudeDegrees>-1.8020469881594181060791015625</LongitudeDegrees>
            </Position>
            <AltitudeMeters>513.20001220703125</AltitudeMeters>
            <DistanceMeters>9046.0829886263</DistanceMeters>
          </Trackpoint>
          <Trackpoint>
            <Time>2021-08-09T08:49:24.000Z</Time>
            <Position>
              <LatitudeDegrees>42.95224648900330066680908203125</LatitudeDegrees>
              <LongitudeDegrees>-1.8020295538008213043212890625</LongitudeDegrees>
            </Position>
            <AltitudeMeters>513.20001220703125</AltitudeMeters>
            <DistanceMeters>9048.5094283724</DistanceMeters>
          </Trackpoint>
          <Trackpoint>
            <Time>2021-08-09T08:49:25.000Z</Time>
            <Position>
              <LatitudeDegrees>42.95227062888443470001220703125</LatitudeDegrees>
              <LongitudeDegrees>-1.80201195180416107177734375</LongitudeDegrees>
            </Position>
            <AltitudeMeters>513.4000244140625</AltitudeMeters>
            <DistanceMeters>9051.5547343517</DistanceMeters>
          </Trackpoint>
          <Trackpoint>
            <Time>2021-08-09T08:49:26.000Z</Time>
            <Position>
              <LatitudeDegrees>42.95229904353618621826171875</LatitudeDegrees>
              <LongitudeDegrees>-1.80199644528329372406005859375</LongitudeDegrees>
            </Position>
            <AltitudeMeters>513.79998779296875</AltitudeMeters>
            <DistanceMeters>9054.9598214511</DistanceMeters>
          </Trackpoint>
          <Trackpoint>
            <Time>2021-08-09T08:49:27.000Z</Time>
            <Position>
              <LatitudeDegrees>42.95231739990413188934326171875</LatitudeDegrees>
              <LongitudeDegrees>-1.8019886501133441925048828125</LongitudeDegrees>
            </Position>
            <AltitudeMeters>513.79998779296875</AltitudeMeters>
            <DistanceMeters>9057.097394533</DistanceMeters>
          </Trackpoint>
          <Trackpoint>
            <Time>2021-08-09T08:49:28.000Z</Time>
            <Position>
              <LatitudeDegrees>42.9523407854139804840087890625</LatitudeDegrees>
              <LongitudeDegrees>-1.80198152549564838409423828125</LongitudeDegrees>
            </Position>
            <AltitudeMeters>514</AltitudeMeters>
            <DistanceMeters>9059.7632283916</DistanceMeters>
          </Trackpoint>
          <Trackpoint>
            <Time>2021-08-09T08:49:29.000Z</Time>
            <Position>
              <LatitudeDegrees>42.9523681104183197021484375</LatitudeDegrees>
              <LongitudeDegrees>-1.801964007318019866943359375</LongitudeDegrees>
            </Position>
            <AltitudeMeters>514.20001220703125</AltitudeMeters>
            <DistanceMeters>9063.1229300978</DistanceMeters>
          </Trackpoint>
          <Trackpoint>
            <Time>2021-08-09T08:49:30.000Z</Time>
            <Position>
              <LatitudeDegrees>42.952400632202625274658203125</LatitudeDegrees>
              <LongitudeDegrees>-1.80194246582686901092529296875</LongitudeDegrees>
            </Position>
            <AltitudeMeters>514.4000244140625</AltitudeMeters>
            <DistanceMeters>9067.1456029639</DistanceMeters>
          </Trackpoint>
          <Trackpoint>
            <Time>2021-08-09T08:49:31.000Z</Time>
            <Position>
              <LatitudeDegrees>42.952425777912139892578125</LatitudeDegrees>
              <LongitudeDegrees>-1.8019269593060016632080078125</LongitudeDegrees>
            </Position>
            <AltitudeMeters>514.4000244140625</AltitudeMeters>
            <DistanceMeters>9070.2160100717</DistanceMeters>
          </Trackpoint>
          <Trackpoint>
            <Time>2021-08-09T08:49:32.000Z</Time>
            <Position>
              <LatitudeDegrees>42.95245855115354061126708984375</LatitudeDegrees>
              <LongitudeDegrees>-1.8019088543951511383056640625</LongitudeDegrees>
            </Position>
            <AltitudeMeters>514.5999755859375</AltitudeMeters>
            <DistanceMeters>9074.150161953</DistanceMeters>
          </Trackpoint>
          <Trackpoint>
            <Time>2021-08-09T08:49:33.000Z</Time>
            <Position>
              <LatitudeDegrees>42.95248738490045070648193359375</LatitudeDegrees>
              <LongitudeDegrees>-1.80189988575875759124755859375</LongitudeDegrees>
            </Position>
            <AltitudeMeters>514.79998779296875</AltitudeMeters>
            <DistanceMeters>9077.4419839003</DistanceMeters>
          </Trackpoint>
          <Trackpoint>
            <Time>2021-08-09T08:49:34.000Z</Time>
            <Position>
              <LatitudeDegrees>42.95251755975186824798583984375</LatitudeDegrees>
              <LongitudeDegrees>-1.80189033038914203643798828125</LongitudeDegrees>
            </Position>
            <AltitudeMeters>514.79998779296875</AltitudeMeters>
            <DistanceMeters>9080.8892408678</DistanceMeters>
          </Trackpoint>
          <Trackpoint>
            <Time>2021-08-09T08:49:35.000Z</Time>
            <Position>
              <LatitudeDegrees>42.95254874043166637420654296875</LatitudeDegrees>
              <LongitudeDegrees>-1.80188379250466823577880859375</LongitudeDegrees>
            </Position>
            <AltitudeMeters>515</AltitudeMeters>
            <DistanceMeters>9084.4013747523</DistanceMeters>
          </Trackpoint>
          <Trackpoint>
            <Time>2021-08-09T08:49:36.000Z</Time>
            <Position>
              <LatitudeDegrees>42.95257908292114734649658203125</LatitudeDegrees>
              <LongitudeDegrees>-1.8018743209540843963623046875</LongitudeDegrees>
            </Position>
            <AltitudeMeters>515.20001220703125</AltitudeMeters>
            <DistanceMeters>9087.8643130303</DistanceMeters>
          </Trackpoint>
          <Trackpoint>
            <Time>2021-08-09T08:49:37.000Z</Time>
            <Position>
              <LatitudeDegrees>42.95260774902999401092529296875</LatitudeDegrees>
              <LongitudeDegrees>-1.801867447793483734130859375</LongitudeDegrees>
            </Position>
            <AltitudeMeters>515.20001220703125</AltitudeMeters>
            <DistanceMeters>9091.1035951773</DistanceMeters>
          </Trackpoint>
          <Trackpoint>
            <Time>2021-08-09T08:49:38.000Z</Time>
            <Position>
              <LatitudeDegrees>42.9526371695101261138916015625</LatitudeDegrees>
              <LongitudeDegrees>-1.80186308920383453369140625</LongitudeDegrees>
            </Position>
            <AltitudeMeters>515.4000244140625</AltitudeMeters>
            <DistanceMeters>9094.3954171246</DistanceMeters>
          </Trackpoint>
          <Trackpoint>
            <Time>2021-08-09T08:49:39.000Z</Time>
            <Position>
              <LatitudeDegrees>42.95266650617122650146484375</LatitudeDegrees>
              <LongitudeDegrees>-1.801860742270946502685546875</LongitudeDegrees>
            </Position>
            <AltitudeMeters>515.4000244140625</AltitudeMeters>
            <DistanceMeters>9097.6652199489</DistanceMeters>
          </Trackpoint>
          <Trackpoint>
            <Time>2021-08-09T08:49:40.000Z</Time>
            <Position>
              <LatitudeDegrees>42.952700369060039520263671875</LatitudeDegrees>
              <LongitudeDegrees>-1.80185370147228240966796875</LongitudeDegrees>
            </Position>
            <AltitudeMeters>515.5999755859375</AltitudeMeters>
            <DistanceMeters>9101.4757793464</DistanceMeters>
          </Trackpoint>
          <Trackpoint>
            <Time>2021-08-09T08:49:41.000Z</Time>
            <Position>
              <LatitudeDegrees>42.95273465104401111602783203125</LatitudeDegrees>
              <LongitudeDegrees>-1.801854707300662994384765625</LongitudeDegrees>
            </Position>
            <AltitudeMeters>515.5999755859375</AltitudeMeters>
            <DistanceMeters>9105.2934413771</DistanceMeters>
          </Trackpoint>
          <Trackpoint>
            <Time>2021-08-09T08:49:42.000Z</Time>
            <Position>
              <LatitudeDegrees>42.952768765389919281005859375</LatitudeDegrees>
              <LongitudeDegrees>-1.80185914970934391021728515625</LongitudeDegrees>
            </Position>
            <AltitudeMeters>515.79998779296875</AltitudeMeters>
            <DistanceMeters>9109.106369789</DistanceMeters>
          </Trackpoint>
          <Trackpoint>
            <Time>2021-08-09T08:49:43.000Z</Time>
            <Position>
              <LatitudeDegrees>42.9528044722974300384521484375</LatitudeDegrees>
              <LongitudeDegrees>-1.801861412823200225830078125</LongitudeDegrees>
            </Position>
            <AltitudeMeters>515.79998779296875</AltitudeMeters>
            <DistanceMeters>9113.0850283577</DistanceMeters>
          </Trackpoint>
          <Trackpoint>
            <Time>2021-08-09T08:49:44.000Z</Time>
            <Position>
              <LatitudeDegrees>42.95283942483365535736083984375</LatitudeDegrees>
              <LongitudeDegrees>-1.8018659390509128570556640625</LongitudeDegrees>
            </Position>
            <AltitudeMeters>515.79998779296875</AltitudeMeters>
            <DistanceMeters>9116.9938503469</DistanceMeters>
          </Trackpoint>
          <Trackpoint>
            <Time>2021-08-09T08:49:45.000Z</Time>
            <Position>
              <LatitudeDegrees>42.952876053750514984130859375</LatitudeDegrees>
              <LongitudeDegrees>-1.80187675170600414276123046875</LongitudeDegrees>
            </Position>
            <AltitudeMeters>516</AltitudeMeters>
            <DistanceMeters>9121.1663780441</DistanceMeters>
          </Trackpoint>
          <Trackpoint>
            <Time>2021-08-09T08:49:46.000Z</Time>
            <Position>
              <LatitudeDegrees>42.95290949754416942596435546875</LatitudeDegrees>
              <LongitudeDegrees>-1.80189125239849090576171875</LongitudeDegrees>
            </Position>
            <AltitudeMeters>516</AltitudeMeters>
            <DistanceMeters>9125.0705769424</DistanceMeters>
          </Trackpoint>
          <Trackpoint>
            <Time>2021-08-09T08:49:47.000Z</Time>
            <Position>
              <LatitudeDegrees>42.95294235460460186004638671875</LatitudeDegrees>
              <LongitudeDegrees>-1.80190726183354854583740234375</LongitudeDegrees>
            </Position>
            <AltitudeMeters>516</AltitudeMeters>
            <DistanceMeters>9128.953903823</DistanceMeters>
          </Trackpoint>
          <Trackpoint>
            <Time>2021-08-09T08:49:48.000Z</Time>
            <Position>
              <LatitudeDegrees>42.95297202654182910919189453125</LatitudeDegrees>
              <LongitudeDegrees>-1.80192871950566768646240234375</LongitudeDegrees>
            </Position>
            <AltitudeMeters>516</AltitudeMeters>
            <DistanceMeters>9132.6926948489</DistanceMeters>
          </Trackpoint>
          <Trackpoint>
            <Time>2021-08-09T08:49:49.000Z</Time>
            <Position>
              <LatitudeDegrees>42.9530019499361515045166015625</LatitudeDegrees>
              <LongitudeDegrees>-1.80195026099681854248046875</LongitudeDegrees>
            </Position>
            <AltitudeMeters>516.20001220703125</AltitudeMeters>
            <DistanceMeters>9136.4579597821</DistanceMeters>
          </Trackpoint>
          <Trackpoint>
            <Time>2021-08-09T08:49:50.000Z</Time>
            <Position>
              <LatitudeDegrees>42.95303422026336193084716796875</LatitudeDegrees>
              <LongitudeDegrees>-1.8019624985754489898681640625</LongitudeDegrees>
            </Position>
            <AltitudeMeters>516.20001220703125</AltitudeMeters>
            <DistanceMeters>9140.1846550434</DistanceMeters>
          </Trackpoint>
          <Trackpoint>
            <Time>2021-08-09T08:49:51.000Z</Time>
            <Position>
              <LatitudeDegrees>42.95306288637220859527587890625</LatitudeDegrees>
              <LongitudeDegrees>-1.80198454298079013824462890625</LongitudeDegrees>
            </Position>
            <AltitudeMeters>516.20001220703125</AltitudeMeters>
            <DistanceMeters>9143.8453426076</DistanceMeters>
          </Trackpoint>
          <Trackpoint>
            <Time>2021-08-09T08:49:52.000Z</Time>
            <Position>
              <LatitudeDegrees>42.95308887027204036712646484375</LatitudeDegrees>
              <LongitudeDegrees>-1.8020087666809558868408203125</LongitudeDegrees>
            </Position>
            <AltitudeMeters>516.4000244140625</AltitudeMeters>
            <DistanceMeters>9147.3445973365</DistanceMeters>
          </Trackpoint>
          <Trackpoint>
            <Time>2021-08-09T08:49:53.000Z</Time>
            <Position>
              <LatitudeDegrees>42.95311443507671356201171875</LatitudeDegrees>
              <LongitudeDegrees>-1.80203282274305820465087890625</LongitudeDegrees>
            </Position>
            <AltitudeMeters>516.4000244140625</AltitudeMeters>
            <DistanceMeters>9150.7997038557</DistanceMeters>
          </Trackpoint>
          <Trackpoint>
            <Time>2021-08-09T08:49:54.000Z</Time>
            <Position>
              <LatitudeDegrees>42.95313782058656215667724609375</LatitudeDegrees>
              <LongitudeDegrees>-1.80205889046192169189453125</LongitudeDegrees>
            </Position>
            <AltitudeMeters>516.5999755859375</AltitudeMeters>
            <DistanceMeters>9154.1580614124</DistanceMeters>
          </Trackpoint>
          <Trackpoint>
            <Time>2021-08-09T08:49:55.000Z</Time>
            <Position>
              <LatitudeDegrees>42.953160703182220458984375</LatitudeDegrees>
              <LongitudeDegrees>-1.80208646692335605621337890625</LongitudeDegrees>
            </Position>
            <AltitudeMeters>516.5999755859375</AltitudeMeters>
            <DistanceMeters>9157.5551833848</DistanceMeters>
          </Trackpoint>
          <Trackpoint>
            <Time>2021-08-09T08:49:56.000Z</Time>
            <Position>
              <LatitudeDegrees>42.95318459160625934600830078125</LatitudeDegrees>
              <LongitudeDegrees>-1.8021120317280292510986328125</LongitudeDegrees>
            </Position>
            <AltitudeMeters>516.79998779296875</AltitudeMeters>
            <DistanceMeters>9160.9336470334</DistanceMeters>
          </Trackpoint>
          <Trackpoint>
            <Time>2021-08-09T08:49:58.000Z</Time>
            <Position>
              <LatitudeDegrees>42.953226082026958465576171875</LatitudeDegrees>
              <LongitudeDegrees>-1.802165843546390533447265625</LongitudeDegrees>
            </Position>
            <AltitudeMeters>517</AltitudeMeters>
            <DistanceMeters>9167.3011460113</DistanceMeters>
          </Trackpoint>
          <Trackpoint>
            <Time>2021-08-09T08:50:01.000Z</Time>
            <Position>
              <LatitudeDegrees>42.95328215695917606353759765625</LatitudeDegrees>
              <LongitudeDegrees>-1.802234910428524017333984375</LongitudeDegrees>
            </Position>
            <AltitudeMeters>517.4000244140625</AltitudeMeters>
            <DistanceMeters>9175.7044309519</DistanceMeters>
          </Trackpoint>
          <Trackpoint>
            <Time>2021-08-09T08:50:02.000Z</Time>
            <Position>
              <LatitudeDegrees>42.95329875312745571136474609375</LatitudeDegrees>
              <LongitudeDegrees>-1.80225460790097713470458984375</LongitudeDegrees>
            </Position>
            <AltitudeMeters>517.4000244140625</AltitudeMeters>
            <DistanceMeters>9178.1494075583</DistanceMeters>
          </Trackpoint>
          <Trackpoint>
            <Time>2021-08-09T08:50:03.000Z</Time>
            <Position>
              <LatitudeDegrees>42.9533194564282894134521484375</LatitudeDegrees>
              <LongitudeDegrees>-1.80228176526725292205810546875</LongitudeDegrees>
            </Position>
            <AltitudeMeters>517.5999755859375</AltitudeMeters>
            <DistanceMeters>9181.3423617241</DistanceMeters>
          </Trackpoint>
          <Trackpoint>
            <Time>2021-08-09T08:50:04.000Z</Time>
            <Position>
              <LatitudeDegrees>42.95334518887102603912353515625</LatitudeDegrees>
              <LongitudeDegrees>-1.80231093429028987884521484375</LongitudeDegrees>
            </Position>
            <AltitudeMeters>517.5999755859375</AltitudeMeters>
            <DistanceMeters>9185.062994357</DistanceMeters>
          </Trackpoint>
          <Trackpoint>
            <Time>2021-08-09T08:50:05.000Z</Time>
            <Position>
              <LatitudeDegrees>42.953363545238971710205078125</LatitudeDegrees>
              <LongitudeDegrees>-1.802335493266582489013671875</LongitudeDegrees>
            </Position>
            <AltitudeMeters>517.79998779296875</AltitudeMeters>
            <DistanceMeters>9187.9217037129</DistanceMeters>
          </Trackpoint>
          <Trackpoint>
            <Time>2021-08-09T08:50:06.000Z</Time>
            <Position>
              <LatitudeDegrees>42.95337670482695102691650390625</LatitudeDegrees>
              <LongitudeDegrees>-1.80235770530998706817626953125</LongitudeDegrees>
            </Position>
            <AltitudeMeters>517.79998779296875</AltitudeMeters>
            <DistanceMeters>9190.2493733343</DistanceMeters>
          </Trackpoint>
          <Trackpoint>
            <Time>2021-08-09T08:50:07.000Z</Time>
            <Position>
              <LatitudeDegrees>42.9533935524523258209228515625</LatitudeDegrees>
              <LongitudeDegrees>-1.802385784685611724853515625</LongitudeDegrees>
            </Position>
            <AltitudeMeters>517.79998779296875</AltitudeMeters>
            <DistanceMeters>9193.2089635341</DistanceMeters>
          </Trackpoint>
          <Trackpoint>
            <Time>2021-08-09T08:50:10.000Z</Time>
            <Position>
              <LatitudeDegrees>42.9534683190286159515380859375</LatitudeDegrees>
              <LongitudeDegrees>-1.8024538457393646240234375</LongitudeDegrees>
            </Position>
            <AltitudeMeters>518</AltitudeMeters>
            <DistanceMeters>9203.2080138084</DistanceMeters>
          </Trackpoint>
          <Trackpoint>
            <Time>2021-08-09T08:50:11.000Z</Time>
            <Position>
              <LatitudeDegrees>42.95349354855716228485107421875</LatitudeDegrees>
              <LongitudeDegrees>-1.8024828471243381500244140625</LongitudeDegrees>
            </Position>
            <AltitudeMeters>518.20001220703125</AltitudeMeters>
            <DistanceMeters>9206.8760942194</DistanceMeters>
          </Trackpoint>
          <Trackpoint>
            <Time>2021-08-09T08:50:12.000Z</Time>
            <Position>
              <LatitudeDegrees>42.953515760600566864013671875</LatitudeDegrees>
              <LongitudeDegrees>-1.80250606499612331390380859375</LongitudeDegrees>
            </Position>
            <AltitudeMeters>518.20001220703125</AltitudeMeters>
            <DistanceMeters>9209.9874029388</DistanceMeters>
          </Trackpoint>
          <Trackpoint>
            <Time>2021-08-09T08:50:15.000Z</Time>
            <Position>
              <LatitudeDegrees>42.95358717441558837890625</LatitudeDegrees>
              <LongitudeDegrees>-1.8025629781186580657958984375</LongitudeDegrees>
            </Position>
            <AltitudeMeters>518.4000244140625</AltitudeMeters>
            <DistanceMeters>9219.1897970236</DistanceMeters>
          </Trackpoint>
          <Trackpoint>
            <Time>2021-08-09T08:50:16.000Z</Time>
            <Position>
              <LatitudeDegrees>42.953600585460662841796875</LatitudeDegrees>
              <LongitudeDegrees>-1.80257395841181278228759765625</LongitudeDegrees>
            </Position>
            <AltitudeMeters>518.5999755859375</AltitudeMeters>
            <DistanceMeters>9220.9264736004</DistanceMeters>
          </Trackpoint>
          <Trackpoint>
            <Time>2021-08-09T08:50:17.000Z</Time>
            <Position>
              <LatitudeDegrees>42.95361458323895931243896484375</LatitudeDegrees>
              <LongitudeDegrees>-1.80258334614336490631103515625</LongitudeDegrees>
            </Position>
            <AltitudeMeters>518.5999755859375</AltitudeMeters>
            <DistanceMeters>9222.660548413</DistanceMeters>
          </Trackpoint>
          <Trackpoint>
            <Time>2021-08-09T08:50:18.000Z</Time>
            <Position>
              <LatitudeDegrees>42.953638471662998199462890625</LatitudeDegrees>
              <LongitudeDegrees>-1.80259265005588531494140625</LongitudeDegrees>
            </Position>
            <AltitudeMeters>518.4000244140625</AltitudeMeters>
            <DistanceMeters>9225.424502948</DistanceMeters>
          </Trackpoint>
          <Trackpoint>
            <Time>2021-08-09T08:50:20.000Z</Time>
            <Position>
              <LatitudeDegrees>42.953683398663997650146484375</LatitudeDegrees>
              <LongitudeDegrees>-1.802598349750041961669921875</LongitudeDegrees>
            </Position>
            <AltitudeMeters>518.5999755859375</AltitudeMeters>
            <DistanceMeters>9230.446554671</DistanceMeters>
          </Trackpoint>
          <Trackpoint>
            <Time>2021-08-09T08:50:21.000Z</Time>
            <Position>
              <LatitudeDegrees>42.9537046886980533599853515625</LatitudeDegrees>
              <LongitudeDegrees>-1.8026055581867694854736328125</LongitudeDegrees>
            </Position>
            <AltitudeMeters>518.5999755859375</AltitudeMeters>
            <DistanceMeters>9232.8878351655</DistanceMeters>
          </Trackpoint>
          <Trackpoint>
            <Time>2021-08-09T08:50:26.000Z</Time>
            <Position>
              <LatitudeDegrees>42.95384609140455722808837890625</LatitudeDegrees>
              <LongitudeDegrees>-1.80265174247324466705322265625</LongitudeDegrees>
            </Position>
            <AltitudeMeters>518.79998779296875</AltitudeMeters>
            <DistanceMeters>9249.0694644606</DistanceMeters>
          </Trackpoint>
          <Trackpoint>
            <Time>2021-08-09T08:50:33.000Z</Time>
            <Position>
              <LatitudeDegrees>42.9540671221911907196044921875</LatitudeDegrees>
              <LongitudeDegrees>-1.80264771915972232818603515625</LongitudeDegrees>
            </Position>
            <AltitudeMeters>519.20001220703125</AltitudeMeters>
            <DistanceMeters>9273.6727598567</DistanceMeters>
          </Trackpoint>
          <Trackpoint>
            <Time>2021-08-09T08:50:40.000Z</Time>
            <Position>
              <LatitudeDegrees>42.95429536141455173492431640625</LatitudeDegrees>
              <LongitudeDegrees>-1.80262441746890544891357421875</LongitudeDegrees>
            </Position>
            <AltitudeMeters>519.79998779296875</AltitudeMeters>
            <DistanceMeters>9299.1470098666</DistanceMeters>
          </Trackpoint>
          <Trackpoint>
            <Time>2021-08-09T08:50:44.000Z</Time>
            <Position>
              <LatitudeDegrees>42.9544087685644626617431640625</LatitudeDegrees>
              <LongitudeDegrees>-1.80260874330997467041015625</LongitudeDegrees>
            </Position>
            <AltitudeMeters>520.20001220703125</AltitudeMeters>
            <DistanceMeters>9311.833699054</DistanceMeters>
          </Trackpoint>
          <Trackpoint>
            <Time>2021-08-09T08:50:45.000Z</Time>
            <Position>
              <LatitudeDegrees>42.95443014241755008697509765625</LatitudeDegrees>
              <LongitudeDegrees>-1.80260337889194488525390625</LongitudeDegrees>
            </Position>
            <AltitudeMeters>520.4000244140625</AltitudeMeters>
            <DistanceMeters>9314.2526842825</DistanceMeters>
          </Trackpoint>
          <Trackpoint>
            <Time>2021-08-09T08:50:46.000Z</Time>
            <Position>
              <LatitudeDegrees>42.95445864088833332061767578125</LatitudeDegrees>
              <LongitudeDegrees>-1.80259424261748790740966796875</LongitudeDegrees>
            </Position>
            <AltitudeMeters>520.4000244140625</AltitudeMeters>
            <DistanceMeters>9317.5114217525</DistanceMeters>
          </Trackpoint>
          <Trackpoint>
            <Time>2021-08-09T08:50:48.000Z</Time>
            <Position>
              <LatitudeDegrees>42.9545220918953418731689453125</LatitudeDegrees>
              <LongitudeDegrees>-1.80257563479244709014892578125</LongitudeDegrees>
            </Position>
            <AltitudeMeters>520.5999755859375</AltitudeMeters>
            <DistanceMeters>9324.7340771933</DistanceMeters>
          </Trackpoint>
          <Trackpoint>
            <Time>2021-08-09T08:50:58.000Z</Time>
            <Position>
              <LatitudeDegrees>42.95483104884624481201171875</LatitudeDegrees>
              <LongitudeDegrees>-1.80243180133402347564697265625</LongitudeDegrees>
            </Position>
            <AltitudeMeters>521.20001220703125</AltitudeMeters>
            <DistanceMeters>9361.0628783377</DistanceMeters>
          </Trackpoint>
          <Trackpoint>
            <Time>2021-08-09T08:51:07.000Z</Time>
            <Position>
              <LatitudeDegrees>42.95509390532970428466796875</LatitudeDegrees>
              <LongitudeDegrees>-1.80223382078111171722412109375</LongitudeDegrees>
            </Position>
            <AltitudeMeters>521.5999755859375</AltitudeMeters>
            <DistanceMeters>9394.4701411389</DistanceMeters>
          </Trackpoint>
          <Trackpoint>
            <Time>2021-08-09T08:51:10.000Z</Time>
            <Position>
              <LatitudeDegrees>42.9551651515066623687744140625</LatitudeDegrees>
              <LongitudeDegrees>-1.8021757341921329498291015625</LongitudeDegrees>
            </Position>
            <AltitudeMeters>521.79998779296875</AltitudeMeters>
            <DistanceMeters>9403.704860514</DistanceMeters>
          </Trackpoint>
          <Trackpoint>
            <Time>2021-08-09T08:51:11.000Z</Time>
            <Position>
              <LatitudeDegrees>42.95519742183387279510498046875</LatitudeDegrees>
              <LongitudeDegrees>-1.80215008556842803955078125</LongitudeDegrees>
            </Position>
            <AltitudeMeters>521.79998779296875</AltitudeMeters>
            <DistanceMeters>9407.8600387485</DistanceMeters>
          </Trackpoint>
          <Trackpoint>
            <Time>2021-08-09T08:51:12.000Z</Time>
            <Position>
              <LatitudeDegrees>42.955225668847560882568359375</LatitudeDegrees>
              <LongitudeDegrees>-1.80212854407727718353271484375</LongitudeDegrees>
            </Position>
            <AltitudeMeters>522</AltitudeMeters>
            <DistanceMeters>9411.4610371897</DistanceMeters>
          </Trackpoint>
          <Trackpoint>
            <Time>2021-08-09T08:51:13.000Z</Time>
            <Position>
              <LatitudeDegrees>42.95524704270064830780029296875</LatitudeDegrees>
              <LongitudeDegrees>-1.80211664177477359771728515625</LongitudeDegrees>
            </Position>
            <AltitudeMeters>522</AltitudeMeters>
            <DistanceMeters>9414.0320323194</DistanceMeters>
          </Trackpoint>
          <Trackpoint>
            <Time>2021-08-09T08:51:14.000Z</Time>
            <Position>
              <LatitudeDegrees>42.9552757926285266876220703125</LatitudeDegrees>
              <LongitudeDegrees>-1.80210188962519168853759765625</LongitudeDegrees>
            </Position>
            <AltitudeMeters>522.20001220703125</AltitudeMeters>
            <DistanceMeters>9417.4503533866</DistanceMeters>
          </Trackpoint>
          <Trackpoint>
            <Time>2021-08-09T08:51:15.000Z</Time>
            <Position>
              <LatitudeDegrees>42.95530554838478565216064453125</LatitudeDegrees>
              <LongitudeDegrees>-1.802086718380451202392578125</LongitudeDegrees>
            </Position>
            <AltitudeMeters>522.20001220703125</AltitudeMeters>
            <DistanceMeters>9420.9855515138</DistanceMeters>
          </Trackpoint>
          <Trackpoint>
            <Time>2021-08-09T08:51:16.000Z</Time>
            <Position>
              <LatitudeDegrees>42.9553394950926303863525390625</LatitudeDegrees>
              <LongitudeDegrees>-1.80206685326993465423583984375</LongitudeDegrees>
            </Position>
            <AltitudeMeters>522.4000244140625</AltitudeMeters>
            <DistanceMeters>9425.0959375086</DistanceMeters>
          </Trackpoint>
          <Trackpoint>
            <Time>2021-08-09T08:51:17.000Z</Time>
            <Position>
              <LatitudeDegrees>42.9553673230111598968505859375</LatitudeDegrees>
              <LongitudeDegrees>-1.80204338394105434417724609375</LongitudeDegrees>
            </Position>
            <AltitudeMeters>522.4000244140625</AltitudeMeters>
            <DistanceMeters>9428.7355971278</DistanceMeters>
          </Trackpoint>
          <Trackpoint>
            <Time>2021-08-09T08:51:18.000Z</Time>
            <Position>
              <LatitudeDegrees>42.95539456419646739959716796875</LatitudeDegrees>
              <LongitudeDegrees>-1.80202058516442775726318359375</LongitudeDegrees>
            </Position>
            <AltitudeMeters>522.5999755859375</AltitudeMeters>
            <DistanceMeters>9432.2911712054</DistanceMeters>
          </Trackpoint>
          <Trackpoint>
            <Time>2021-08-09T08:51:19.000Z</Time>
            <Position>
              <LatitudeDegrees>42.955414094030857086181640625</LatitudeDegrees>
              <LongitudeDegrees>-1.802004911005496978759765625</LongitudeDegrees>
            </Position>
            <AltitudeMeters>522.5999755859375</AltitudeMeters>
            <DistanceMeters>9434.8125148584</DistanceMeters>
          </Trackpoint>
          <Trackpoint>
            <Time>2021-08-09T08:51:23.000Z</Time>
            <Position>
              <LatitudeDegrees>42.95552331022918224334716796875</LatitudeDegrees>
              <LongitudeDegrees>-1.80190457962453365325927734375</LongitudeDegrees>
            </Position>
            <AltitudeMeters>523</AltitudeMeters>
            <DistanceMeters>9449.4601978257</DistanceMeters>
          </Trackpoint>
          <Trackpoint>
            <Time>2021-08-09T08:51:25.000Z</Time>
            <Position>
              <LatitudeDegrees>42.95557125471532344818115234375</LatitudeDegrees>
              <LongitudeDegrees>-1.8018468283116817474365234375</LongitudeDegrees>
            </Position>
            <AltitudeMeters>523.4000244140625</AltitudeMeters>
            <DistanceMeters>9456.5745198923</DistanceMeters>
          </Trackpoint>
          <Trackpoint>
            <Time>2021-08-09T08:51:31.000Z</Time>
            <Position>
              <LatitudeDegrees>42.95573051087558269500732421875</LatitudeDegrees>
              <LongitudeDegrees>-1.80166904814541339874267578125</LongitudeDegrees>
            </Position>
            <AltitudeMeters>524.20001220703125</AltitudeMeters>
            <DistanceMeters>9479.4635341814</DistanceMeters>
          </Trackpoint>
          <Trackpoint>
            <Time>2021-08-09T08:51:32.000Z</Time>
            <Position>
              <LatitudeDegrees>42.9557559080421924591064453125</LatitudeDegrees>
              <LongitudeDegrees>-1.80164205841720104217529296875</LongitudeDegrees>
            </Position>
            <AltitudeMeters>524.4000244140625</AltitudeMeters>
            <DistanceMeters>9483.0431540598</DistanceMeters>
          </Trackpoint>
          <Trackpoint>
            <Time>2021-08-09T08:51:33.000Z</Time>
            <Position>
              <LatitudeDegrees>42.9557807184755802154541015625</LatitudeDegrees>
              <LongitudeDegrees>-1.80161573924124240875244140625</LongitudeDegrees>
            </Position>
            <AltitudeMeters>524.4000244140625</AltitudeMeters>
            <DistanceMeters>9486.5385357884</DistanceMeters>
          </Trackpoint>
          <Trackpoint>
            <Time>2021-08-09T08:51:34.000Z</Time>
            <Position>
              <LatitudeDegrees>42.95580728910863399505615234375</LatitudeDegrees>
              <LongitudeDegrees>-1.80159620940685272216796875</LongitudeDegrees>
            </Position>
            <AltitudeMeters>524.5999755859375</AltitudeMeters>
            <DistanceMeters>9489.8968933451</DistanceMeters>
          </Trackpoint>
          <Trackpoint>
            <Time>2021-08-09T08:51:35.000Z</Time>
            <Position>
              <LatitudeDegrees>42.95583578757941722869873046875</LatitudeDegrees>
              <LongitudeDegrees>-1.801583133637905120849609375</LongitudeDegrees>
            </Position>
            <AltitudeMeters>524.5999755859375</AltitudeMeters>
            <DistanceMeters>9493.2431292589</DistanceMeters>
          </Trackpoint>
          <Trackpoint>
            <Time>2021-08-09T08:51:36.000Z</Time>
            <Position>
              <LatitudeDegrees>42.9558571614325046539306640625</LatitudeDegrees>
              <LongitudeDegrees>-1.8015722371637821197509765625</LongitudeDegrees>
            </Position>
            <AltitudeMeters>525</AltitudeMeters>
            <DistanceMeters>9495.7823170387</DistanceMeters>
          </Trackpoint>
          <Trackpoint>
            <Time>2021-08-09T08:51:37.000Z</Time>
            <Position>
              <LatitudeDegrees>42.9558859951794147491455078125</LatitudeDegrees>
              <LongitudeDegrees>-1.80155840702354907989501953125</LongitudeDegrees>
            </Position>
            <AltitudeMeters>525</AltitudeMeters>
            <DistanceMeters>9499.1834239062</DistanceMeters>
          </Trackpoint>
          <Trackpoint>
            <Time>2021-08-09T08:51:38.000Z</Time>
            <Position>
              <LatitudeDegrees>42.9559128172695636749267578125</LatitudeDegrees>
              <LongitudeDegrees>-1.8015457503497600555419921875</LongitudeDegrees>
            </Position>
            <AltitudeMeters>525.20001220703125</AltitudeMeters>
            <DistanceMeters>9502.340828599</DistanceMeters>
          </Trackpoint>
          <Trackpoint>
            <Time>2021-08-09T08:51:39.000Z</Time>
            <Position>
              <LatitudeDegrees>42.9559403099119663238525390625</LatitudeDegrees>
              <LongitudeDegrees>-1.8015343509614467620849609375</LongitudeDegrees>
            </Position>
            <AltitudeMeters>525.20001220703125</AltitudeMeters>
            <DistanceMeters>9505.5380221394</DistanceMeters>
          </Trackpoint>
          <Trackpoint>
            <Time>2021-08-09T08:51:40.000Z</Time>
            <Position>
              <LatitudeDegrees>42.95597325079143047332763671875</LatitudeDegrees>
              <LongitudeDegrees>-1.8015209399163722991943359375</LongitudeDegrees>
            </Position>
            <AltitudeMeters>525.4000244140625</AltitudeMeters>
            <DistanceMeters>9509.3627736136</DistanceMeters>
          </Trackpoint>
          <Trackpoint>
            <Time>2021-08-09T08:51:41.000Z</Time>
            <Position>
              <LatitudeDegrees>42.9560025036334991455078125</LatitudeDegrees>
              <LongitudeDegrees>-1.8015128932893276214599609375</LongitudeDegrees>
            </Position>
            <AltitudeMeters>525.5999755859375</AltitudeMeters>
            <DistanceMeters>9512.6846335466</DistanceMeters>
          </Trackpoint>
          <Trackpoint>
            <Time>2021-08-09T08:51:42.000Z</Time>
            <Position>
              <LatitudeDegrees>42.95603024773299694061279296875</LatitudeDegrees>
              <LongitudeDegrees>-1.8015014939010143280029296875</LongitudeDegrees>
            </Position>
            <AltitudeMeters>525.5999755859375</AltitudeMeters>
            <DistanceMeters>9515.9085470049</DistanceMeters>
          </Trackpoint>
          <Trackpoint>
            <Time>2021-08-09T08:51:43.000Z</Time>
            <Position>
              <LatitudeDegrees>42.9560534656047821044921875</LatitudeDegrees>
              <LongitudeDegrees>-1.8014909327030181884765625</LongitudeDegrees>
            </Position>
            <AltitudeMeters>525.79998779296875</AltitudeMeters>
            <DistanceMeters>9518.631356723</DistanceMeters>
          </Trackpoint>
          <Trackpoint>
            <Time>2021-08-09T08:51:44.000Z</Time>
            <Position>
              <LatitudeDegrees>42.95608364045619964599609375</LatitudeDegrees>
              <LongitudeDegrees>-1.801477856934070587158203125</LongitudeDegrees>
            </Position>
            <AltitudeMeters>525.79998779296875</AltitudeMeters>
            <DistanceMeters>9522.1537600267</DistanceMeters>
          </Trackpoint>
          <Trackpoint>
            <Time>2021-08-09T08:51:45.000Z</Time>
            <Position>
              <LatitudeDegrees>42.95611792244017124176025390625</LatitudeDegrees>
              <LongitudeDegrees>-1.80146972648799419403076171875</LongitudeDegrees>
            </Position>
            <AltitudeMeters>526</AltitudeMeters>
            <DistanceMeters>9526.0254427225</DistanceMeters>
          </Trackpoint>
          <Trackpoint>
            <Time>2021-08-09T08:51:46.000Z</Time>
            <Position>
              <LatitudeDegrees>42.9561408050358295440673828125</LatitudeDegrees>
              <LongitudeDegrees>-1.801462434232234954833984375</LongitudeDegrees>
            </Position>
            <AltitudeMeters>526.20001220703125</AltitudeMeters>
            <DistanceMeters>9528.6399728654</DistanceMeters>
          </Trackpoint>
          <Trackpoint>
            <Time>2021-08-09T08:51:47.000Z</Time>
            <Position>
              <LatitudeDegrees>42.95617441646754741668701171875</LatitudeDegrees>
              <LongitudeDegrees>-1.801449358463287353515625</LongitudeDegrees>
            </Position>
            <AltitudeMeters>526.4000244140625</AltitudeMeters>
            <DistanceMeters>9532.5302695276</DistanceMeters>
          </Trackpoint>
          <Trackpoint>
            <Time>2021-08-09T08:51:48.000Z</Time>
            <Position>
              <LatitudeDegrees>42.956196628510951995849609375</LatitudeDegrees>
              <LongitudeDegrees>-1.8014377914369106292724609375</LongitudeDegrees>
            </Position>
            <AltitudeMeters>526.5999755859375</AltitudeMeters>
            <DistanceMeters>9535.1791125575</DistanceMeters>
          </Trackpoint>
          <Trackpoint>
            <Time>2021-08-09T08:51:49.000Z</Time>
            <Position>
              <LatitudeDegrees>42.95622487552464008331298828125</LatitudeDegrees>
              <LongitudeDegrees>-1.8014233745634555816650390625</LongitudeDegrees>
            </Position>
            <AltitudeMeters>526.5999755859375</AltitudeMeters>
            <DistanceMeters>9538.5361254264</DistanceMeters>
          </Trackpoint>
          <Trackpoint>
            <Time>2021-08-09T08:51:50.000Z</Time>
            <Position>
              <LatitudeDegrees>42.95625253580510616302490234375</LatitudeDegrees>
              <LongitudeDegrees>-1.8014113046228885650634765625</LongitudeDegrees>
            </Position>
            <AltitudeMeters>526.79998779296875</AltitudeMeters>
            <DistanceMeters>9541.7670337149</DistanceMeters>
          </Trackpoint>
          <Trackpoint>
            <Time>2021-08-09T08:51:51.000Z</Time>
            <Position>
              <LatitudeDegrees>42.956285811960697174072265625</LatitudeDegrees>
              <LongitudeDegrees>-1.80139646865427494049072265625</LongitudeDegrees>
            </Position>
            <AltitudeMeters>527</AltitudeMeters>
            <DistanceMeters>9545.6619699693</DistanceMeters>
          </Trackpoint>
          <Trackpoint>
            <Time>2021-08-09T08:51:52.000Z</Time>
            <Position>
              <LatitudeDegrees>42.95630819164216518402099609375</LatitudeDegrees>
              <LongitudeDegrees>-1.80138540454208850860595703125</LongitudeDegrees>
            </Position>
            <AltitudeMeters>527.20001220703125</AltitudeMeters>
            <DistanceMeters>9548.3091079182</DistanceMeters>
          </Trackpoint>
          <Trackpoint>
            <Time>2021-08-09T08:51:53.000Z</Time>
            <Position>
              <LatitudeDegrees>42.95633819885551929473876953125</LatitudeDegrees>
              <LongitudeDegrees>-1.8013653717935085296630859375</LongitudeDegrees>
            </Position>
            <AltitudeMeters>527.4000244140625</AltitudeMeters>
            <DistanceMeters>9552.0260982275</DistanceMeters>
          </Trackpoint>
          <Trackpoint>
            <Time>2021-08-09T08:51:54.000Z</Time>
            <Position>
              <LatitudeDegrees>42.95636753551661968231201171875</LatitudeDegrees>
              <LongitudeDegrees>-1.8013502843677997589111328125</LongitudeDegrees>
            </Position>
            <AltitudeMeters>527.4000244140625</AltitudeMeters>
            <DistanceMeters>9555.5150154014</DistanceMeters>
          </Trackpoint>
          <Trackpoint>
            <Time>2021-08-09T08:51:55.000Z</Time>
            <Position>
              <LatitudeDegrees>42.95639586634933948516845703125</LatitudeDegrees>
              <LongitudeDegrees>-1.80133947171270847320556640625</LongitudeDegrees>
            </Position>
            <AltitudeMeters>527.4000244140625</AltitudeMeters>
            <DistanceMeters>9558.7889580917</DistanceMeters>
          </Trackpoint>
          <Trackpoint>
            <Time>2021-08-09T08:51:56.000Z</Time>
            <Position>
              <LatitudeDegrees>42.95642453245818614959716796875</LatitudeDegrees>
              <LongitudeDegrees>-1.80132857523858547210693359375</LongitudeDegrees>
            </Position>
            <AltitudeMeters>527.79998779296875</AltitudeMeters>
            <DistanceMeters>9562.1012900315</DistanceMeters>
          </Trackpoint>
          <Trackpoint>
            <Time>2021-08-09T08:51:57.000Z</Time>
            <Position>
              <LatitudeDegrees>42.95645110309123992919921875</LatitudeDegrees>
              <LongitudeDegrees>-1.801318936049938201904296875</LongitudeDegrees>
            </Position>
            <AltitudeMeters>527.79998779296875</AltitudeMeters>
            <DistanceMeters>9565.1613863163</DistanceMeters>
          </Trackpoint>
          <Trackpoint>
            <Time>2021-08-09T08:51:58.000Z</Time>
            <Position>
              <LatitudeDegrees>42.95647733844816684722900390625</LatitudeDegrees>
              <LongitudeDegrees>-1.8013117276132106781005859375</LongitudeDegrees>
            </Position>
            <AltitudeMeters>528</AltitudeMeters>
            <DistanceMeters>9568.1407428147</DistanceMeters>
          </Trackpoint>
          <Trackpoint>
            <Time>2021-08-09T08:51:59.000Z</Time>
            <Position>
              <LatitudeDegrees>42.95651145279407501220703125</LatitudeDegrees>
              <LongitudeDegrees>-1.8013009987771511077880859375</LongitudeDegrees>
            </Position>
            <AltitudeMeters>528</AltitudeMeters>
            <DistanceMeters>9572.0368381038</DistanceMeters>
          </Trackpoint>
          <Trackpoint>
            <Time>2021-08-09T08:52:00.000Z</Time>
            <Position>
              <LatitudeDegrees>42.95653425157070159912109375</LatitudeDegrees>
              <LongitudeDegrees>-1.80128901265561580657958984375</LongitudeDegrees>
            </Position>
            <AltitudeMeters>528.4000244140625</AltitudeMeters>
            <DistanceMeters>9574.7546685863</DistanceMeters>
          </Trackpoint>
          <Trackpoint>
            <Time>2021-08-09T08:52:01.000Z</Time>
            <Position>
              <LatitudeDegrees>42.95656048692762851715087890625</LatitudeDegrees>
              <LongitudeDegrees>-1.8012745119631290435791015625</LongitudeDegrees>
            </Position>
            <AltitudeMeters>528.4000244140625</AltitudeMeters>
            <DistanceMeters>9577.9034816857</DistanceMeters>
          </Trackpoint>
          <Trackpoint>
            <Time>2021-08-09T08:52:02.000Z</Time>
            <Position>
              <LatitudeDegrees>42.95658898539841175079345703125</LatitudeDegrees>
              <LongitudeDegrees>-1.80125892162322998046875</LongitudeDegrees>
            </Position>
            <AltitudeMeters>528.5999755859375</AltitudeMeters>
            <DistanceMeters>9581.3191600613</DistanceMeters>
          </Trackpoint>
          <Trackpoint>
            <Time>2021-08-09T08:52:03.000Z</Time>
            <Position>
              <LatitudeDegrees>42.9566205851733684539794921875</LatitudeDegrees>
              <LongitudeDegrees>-1.8012456782162189483642578125</LongitudeDegrees>
            </Position>
            <AltitudeMeters>528.5999755859375</AltitudeMeters>
            <DistanceMeters>9584.9983018892</DistanceMeters>
          </Trackpoint>
          <Trackpoint>
            <Time>2021-08-09T08:52:04.000Z</Time>
            <Position>
              <LatitudeDegrees>42.956656627357006072998046875</LatitudeDegrees>
              <LongitudeDegrees>-1.8012334406375885009765625</LongitudeDegrees>
            </Position>
            <AltitudeMeters>528.5999755859375</AltitudeMeters>
            <DistanceMeters>9589.13169089</DistanceMeters>
          </Trackpoint>
          <Trackpoint>
            <Time>2021-08-09T08:52:05.000Z</Time>
            <Position>
              <LatitudeDegrees>42.95668487437069416046142578125</LatitudeDegrees>
              <LongitudeDegrees>-1.801225058734416961669921875</LongitudeDegrees>
            </Position>
            <AltitudeMeters>529.20001220703125</AltitudeMeters>
            <DistanceMeters>9592.3485943086</DistanceMeters>
          </Trackpoint>
          <Trackpoint>
            <Time>2021-08-09T08:52:06.000Z</Time>
            <Position>
              <LatitudeDegrees>42.95671303756535053253173828125</LatitudeDegrees>
              <LongitudeDegrees>-1.80121256969869136810302734375</LongitudeDegrees>
            </Position>
            <AltitudeMeters>529.20001220703125</AltitudeMeters>
            <DistanceMeters>9595.6458980615</DistanceMeters>
          </Trackpoint>
          <Trackpoint>
            <Time>2021-08-09T08:52:07.000Z</Time>
            <Position>
              <LatitudeDegrees>42.95673675835132598876953125</LatitudeDegrees>
              <LongitudeDegrees>-1.80120435543358325958251953125</LongitudeDegrees>
            </Position>
            <AltitudeMeters>529.20001220703125</AltitudeMeters>
            <DistanceMeters>9598.3703655025</DistanceMeters>
          </Trackpoint>
          <Trackpoint>
            <Time>2021-08-09T08:52:08.000Z</Time>
            <Position>
              <LatitudeDegrees>42.95676601119339466094970703125</LatitudeDegrees>
              <LongitudeDegrees>-1.80119379423558712005615234375</LongitudeDegrees>
            </Position>
            <AltitudeMeters>529.4000244140625</AltitudeMeters>
            <DistanceMeters>9601.73812084</DistanceMeters>
          </Trackpoint>
          <Trackpoint>
            <Time>2021-08-09T08:52:09.000Z</Time>
            <Position>
              <LatitudeDegrees>42.95680238865315914154052734375</LatitudeDegrees>
              <LongitudeDegrees>-1.80117870680987834930419921875</LongitudeDegrees>
            </Position>
            <AltitudeMeters>529.5999755859375</AltitudeMeters>
            <DistanceMeters>9605.9697448295</DistanceMeters>
          </Trackpoint>
          <Trackpoint>
            <Time>2021-08-09T08:52:10.000Z</Time>
            <Position>
              <LatitudeDegrees>42.9568341560661792755126953125</LatitudeDegrees>
              <LongitudeDegrees>-1.80116663686931133270263671875</LongitudeDegrees>
            </Position>
            <AltitudeMeters>529.5999755859375</AltitudeMeters>
            <DistanceMeters>9609.6390559335</DistanceMeters>
          </Trackpoint>
          <Trackpoint>
            <Time>2021-08-09T08:52:11.000Z</Time>
            <Position>
              <LatitudeDegrees>42.956864498555660247802734375</LatitudeDegrees>
              <LongitudeDegrees>-1.80114157497882843017578125</LongitudeDegrees>
            </Position>
            <AltitudeMeters>529.79998779296875</AltitudeMeters>
            <DistanceMeters>9613.586955621</DistanceMeters>
          </Trackpoint>
          <Trackpoint>
            <Time>2021-08-09T08:52:12.000Z</Time>
            <Position>
              <LatitudeDegrees>42.95689526014029979705810546875</LatitudeDegrees>
              <LongitudeDegrees>-1.8011035211384296417236328125</LongitudeDegrees>
            </Position>
            <AltitudeMeters>529.79998779296875</AltitudeMeters>
            <DistanceMeters>9618.2052930448</DistanceMeters>
          </Trackpoint>
          <Trackpoint>
            <Time>2021-08-09T08:52:13.000Z</Time>
            <Position>
              <LatitudeDegrees>42.9569183103740215301513671875</LatitudeDegrees>
              <LongitudeDegrees>-1.8010807223618030548095703125</LongitudeDegrees>
            </Position>
            <AltitudeMeters>530</AltitudeMeters>
            <DistanceMeters>9621.3726918087</DistanceMeters>
          </Trackpoint>
          <Trackpoint>
            <Time>2021-08-09T08:52:14.000Z</Time>
            <Position>
              <LatitudeDegrees>42.95695309527218341827392578125</LatitudeDegrees>
              <LongitudeDegrees>-1.80104275234043598175048828125</LongitudeDegrees>
            </Position>
            <AltitudeMeters>530</AltitudeMeters>
            <DistanceMeters>9626.3277677769</DistanceMeters>
          </Trackpoint>
          <Trackpoint>
            <Time>2021-08-09T08:52:15.000Z</Time>
            <Position>
              <LatitudeDegrees>42.9569786600768566131591796875</LatitudeDegrees>
              <LongitudeDegrees>-1.801009476184844970703125</LongitudeDegrees>
            </Position>
            <AltitudeMeters>530</AltitudeMeters>
            <DistanceMeters>9630.2584751936</DistanceMeters>
          </Trackpoint>
          <Trackpoint>
            <Time>2021-08-09T08:52:16.000Z</Time>
            <Position>
              <LatitudeDegrees>42.957001626491546630859375</LatitudeDegrees>
              <LongitudeDegrees>-1.80097796022891998291015625</LongitudeDegrees>
            </Position>
            <AltitudeMeters>530.20001220703125</AltitudeMeters>
            <DistanceMeters>9633.881972282</DistanceMeters>
          </Trackpoint>
          <Trackpoint>
            <Time>2021-08-09T08:52:17.000Z</Time>
            <Position>
              <LatitudeDegrees>42.95701973140239715576171875</LatitudeDegrees>
              <LongitudeDegrees>-1.80095189251005649566650390625</LongitudeDegrees>
            </Position>
            <AltitudeMeters>530.20001220703125</AltitudeMeters>
            <DistanceMeters>9636.8078076275</DistanceMeters>
          </Trackpoint>
          <Trackpoint>
            <Time>2021-08-09T08:52:18.000Z</Time>
            <Position>
              <LatitudeDegrees>42.95704144053161144256591796875</LatitudeDegrees>
              <LongitudeDegrees>-1.80091517977416515350341796875</LongitudeDegrees>
            </Position>
            <AltitudeMeters>530.20001220703125</AltitudeMeters>
            <DistanceMeters>9640.6514003559</DistanceMeters>
          </Trackpoint>
          <Trackpoint>
            <Time>2021-08-09T08:52:19.000Z</Time>
            <Position>
              <LatitudeDegrees>42.9570611380040645599365234375</LatitudeDegrees>
              <LongitudeDegrees>-1.80087528191506862640380859375</LongitudeDegrees>
            </Position>
            <AltitudeMeters>530.20001220703125</AltitudeMeters>
            <DistanceMeters>9644.5729077426</DistanceMeters>
          </Trackpoint>
          <Trackpoint>
            <Time>2021-08-09T08:52:20.000Z</Time>
            <Position>
              <LatitudeDegrees>42.957081757485866546630859375</LatitudeDegrees>
              <LongitudeDegrees>-1.80083672516047954559326171875</LongitudeDegrees>
            </Position>
            <AltitudeMeters>530.20001220703125</AltitudeMeters>
            <DistanceMeters>9648.4632044049</DistanceMeters>
          </Trackpoint>
          <Trackpoint>
            <Time>2021-08-09T08:52:21.000Z</Time>
            <Position>
              <LatitudeDegrees>42.95710614882409572601318359375</LatitudeDegrees>
              <LongitudeDegrees>-1.800792217254638671875</LongitudeDegrees>
            </Position>
            <AltitudeMeters>530.20001220703125</AltitudeMeters>
            <DistanceMeters>9652.9927003681</DistanceMeters>
          </Trackpoint>
          <Trackpoint>
            <Time>2021-08-09T08:52:22.000Z</Time>
            <Position>
              <LatitudeDegrees>42.95712308026850223541259765625</LatitudeDegrees>
              <LongitudeDegrees>-1.8007622100412845611572265625</LongitudeDegrees>
            </Position>
            <AltitudeMeters>530.20001220703125</AltitudeMeters>
            <DistanceMeters>9656.0792406073</DistanceMeters>
          </Trackpoint>
          <Trackpoint>
            <Time>2021-08-09T08:52:23.000Z</Time>
            <Position>
              <LatitudeDegrees>42.95714420266449451446533203125</LatitudeDegrees>
              <LongitudeDegrees>-1.80072641931474208831787109375</LongitudeDegrees>
            </Position>
            <AltitudeMeters>530.20001220703125</AltitudeMeters>
            <DistanceMeters>9659.8252703447</DistanceMeters>
          </Trackpoint>
          <Trackpoint>
            <Time>2021-08-09T08:52:24.000Z</Time>
            <Position>
              <LatitudeDegrees>42.95716725289821624755859375</LatitudeDegrees>
              <LongitudeDegrees>-1.800678558647632598876953125</LongitudeDegrees>
            </Position>
            <AltitudeMeters>530.20001220703125</AltitudeMeters>
            <DistanceMeters>9664.492233424</DistanceMeters>
          </Trackpoint>
          <Trackpoint>
            <Time>2021-08-09T08:52:25.000Z</Time>
            <Position>
              <LatitudeDegrees>42.95718577690422534942626953125</LatitudeDegrees>
              <LongitudeDegrees>-1.80063866078853607177734375</LongitudeDegrees>
            </Position>
            <AltitudeMeters>530</AltitudeMeters>
            <DistanceMeters>9668.3416951324</DistanceMeters>
          </Trackpoint>
          <Trackpoint>
            <Time>2021-08-09T08:52:26.000Z</Time>
            <Position>
              <LatitudeDegrees>42.95720086432993412017822265625</LatitudeDegrees>
              <LongitudeDegrees>-1.80060622282326221466064453125</LongitudeDegrees>
            </Position>
            <AltitudeMeters>530</AltitudeMeters>
            <DistanceMeters>9671.4703694307</DistanceMeters>
          </Trackpoint>
          <Trackpoint>
            <Time>2021-08-09T08:52:27.000Z</Time>
            <Position>
              <LatitudeDegrees>42.95722081325948238372802734375</LatitudeDegrees>
              <LongitudeDegrees>-1.80056699551641941070556640625</LongitudeDegrees>
            </Position>
            <AltitudeMeters>530.20001220703125</AltitudeMeters>
            <DistanceMeters>9675.360666093</DistanceMeters>
          </Trackpoint>
          <Trackpoint>
            <Time>2021-08-09T08:52:31.000Z</Time>
            <Position>
              <LatitudeDegrees>42.95728418044745922088623046875</LatitudeDegrees>
              <LongitudeDegrees>-1.80040069855749607086181640625</LongitudeDegrees>
            </Position>
            <AltitudeMeters>530.4000244140625</AltitudeMeters>
            <DistanceMeters>9690.6324968409</DistanceMeters>
          </Trackpoint>
          <Trackpoint>
            <Time>2021-08-09T08:52:32.000Z</Time>
            <Position>
              <LatitudeDegrees>42.95729524455964565277099609375</LatitudeDegrees>
              <LongitudeDegrees>-1.80035526864230632781982421875</LongitudeDegrees>
            </Position>
            <AltitudeMeters>530.4000244140625</AltitudeMeters>
            <DistanceMeters>9694.5297508202</DistanceMeters>
          </Trackpoint>
          <Trackpoint>
            <Time>2021-08-09T08:52:35.000Z</Time>
            <Position>
              <LatitudeDegrees>42.957340590655803680419921875</LatitudeDegrees>
              <LongitudeDegrees>-1.800212860107421875</LongitudeDegrees>
            </Position>
            <AltitudeMeters>530.5999755859375</AltitudeMeters>
            <DistanceMeters>9707.1800873667</DistanceMeters>
          </Trackpoint>
          <Trackpoint>
            <Time>2021-08-09T08:52:36.000Z</Time>
            <Position>
              <LatitudeDegrees>42.9573508165776729583740234375</LatitudeDegrees>
              <LongitudeDegrees>-1.8001801706850528717041015625</LongitudeDegrees>
            </Position>
            <AltitudeMeters>530.5999755859375</AltitudeMeters>
            <DistanceMeters>9710.0764542316</DistanceMeters>
          </Trackpoint>
          <Trackpoint>
            <Time>2021-08-09T08:52:38.000Z</Time>
            <Position>
              <LatitudeDegrees>42.95736950822174549102783203125</LatitudeDegrees>
              <LongitudeDegrees>-1.8001020513474941253662109375</LongitudeDegrees>
            </Position>
            <AltitudeMeters>530.5999755859375</AltitudeMeters>
            <DistanceMeters>9716.7716240926</DistanceMeters>
          </Trackpoint>
          <Trackpoint>
            <Time>2021-08-09T08:52:39.000Z</Time>
            <Position>
              <LatitudeDegrees>42.957383506000041961669921875</LatitudeDegrees>
              <LongitudeDegrees>-1.80005804635584354400634765625</LongitudeDegrees>
            </Position>
            <AltitudeMeters>530.5999755859375</AltitudeMeters>
            <DistanceMeters>9720.6804460818</DistanceMeters>
          </Trackpoint>
          <Trackpoint>
            <Time>2021-08-09T08:52:40.000Z</Time>
            <Position>
              <LatitudeDegrees>42.95739524066448211669921875</LatitudeDegrees>
              <LongitudeDegrees>-1.8000212498009204864501953125</LongitudeDegrees>
            </Position>
            <AltitudeMeters>530.5999755859375</AltitudeMeters>
            <DistanceMeters>9723.9502489061</DistanceMeters>
          </Trackpoint>
          <Trackpoint>
            <Time>2021-08-09T08:52:41.000Z</Time>
            <Position>
              <LatitudeDegrees>42.957404293119907379150390625</LatitudeDegrees>
              <LongitudeDegrees>-1.7999803461134433746337890625</LongitudeDegrees>
            </Position>
            <AltitudeMeters>530.79998779296875</AltitudeMeters>
            <DistanceMeters>9727.428797804</DistanceMeters>
          </Trackpoint>
          <Trackpoint>
            <Time>2021-08-09T08:52:43.000Z</Time>
            <Position>
              <LatitudeDegrees>42.9574202187359333038330078125</LatitudeDegrees>
              <LongitudeDegrees>-1.7999028973281383514404296875</LongitudeDegrees>
            </Position>
            <AltitudeMeters>530.79998779296875</AltitudeMeters>
            <DistanceMeters>9733.9821971942</DistanceMeters>
          </Trackpoint>
          <Trackpoint>
            <Time>2021-08-09T08:52:45.000Z</Time>
            <Position>
              <LatitudeDegrees>42.9574383236467838287353515625</LatitudeDegrees>
              <LongitudeDegrees>-1.79981614463031291961669921875</LongitudeDegrees>
            </Position>
            <AltitudeMeters>531</AltitudeMeters>
            <DistanceMeters>9741.3306567018</DistanceMeters>
          </Trackpoint>
          <Trackpoint>
            <Time>2021-08-09T08:52:51.000Z</Time>
            <Position>
              <LatitudeDegrees>42.95747411437332630157470703125</LatitudeDegrees>
              <LongitudeDegrees>-1.799565441906452178955078125</LongitudeDegrees>
            </Position>
            <AltitudeMeters>531.4000244140625</AltitudeMeters>
            <DistanceMeters>9762.1373845771</DistanceMeters>
          </Trackpoint>
          <Trackpoint>
            <Time>2021-08-09T08:52:53.000Z</Time>
            <Position>
              <LatitudeDegrees>42.95748249627649784088134765625</LatitudeDegrees>
              <LongitudeDegrees>-1.79947458207607269287109375</LongitudeDegrees>
            </Position>
            <AltitudeMeters>531.5999755859375</AltitudeMeters>
            <DistanceMeters>9769.5968303372</DistanceMeters>
          </Trackpoint>
          <Trackpoint>
            <Time>2021-08-09T08:52:54.000Z</Time>
            <Position>
              <LatitudeDegrees>42.957479394972324371337890625</LatitudeDegrees>
              <LongitudeDegrees>-1.79943837225437164306640625</LongitudeDegrees>
            </Position>
            <AltitudeMeters>531.79998779296875</AltitudeMeters>
            <DistanceMeters>9772.5655597976</DistanceMeters>
          </Trackpoint>
          <Trackpoint>
            <Time>2021-08-09T08:52:55.000Z</Time>
            <Position>
              <LatitudeDegrees>42.95748383738100528717041015625</LatitudeDegrees>
              <LongitudeDegrees>-1.7993929423391819000244140625</LongitudeDegrees>
            </Position>
            <AltitudeMeters>532</AltitudeMeters>
            <DistanceMeters>9776.2983078407</DistanceMeters>
          </Trackpoint>
          <Trackpoint>
            <Time>2021-08-09T08:52:57.000Z</Time>
            <Position>
              <LatitudeDegrees>42.95749674551188945770263671875</LatitudeDegrees>
              <LongitudeDegrees>-1.7993101291358470916748046875</LongitudeDegrees>
            </Position>
            <AltitudeMeters>532.20001220703125</AltitudeMeters>
            <DistanceMeters>9783.1954407745</DistanceMeters>
          </Trackpoint>
          <Trackpoint>
            <Time>2021-08-09T08:52:58.000Z</Time>
            <Position>
              <LatitudeDegrees>42.9575045406818389892578125</LatitudeDegrees>
              <LongitudeDegrees>-1.799274422228336334228515625</LongitudeDegrees>
            </Position>
            <AltitudeMeters>532.4000244140625</AltitudeMeters>
            <DistanceMeters>9786.2303506534</DistanceMeters>
          </Trackpoint>
          <Trackpoint>
            <Time>2021-08-09T08:52:59.000Z</Time>
            <Position>
              <LatitudeDegrees>42.95750965364277362823486328125</LatitudeDegrees>
              <LongitudeDegrees>-1.7992360331118106842041015625</LongitudeDegrees>
            </Position>
            <AltitudeMeters>532.20001220703125</AltitudeMeters>
            <DistanceMeters>9789.4091327379</DistanceMeters>
          </Trackpoint>
          <Trackpoint>
            <Time>2021-08-09T08:53:00.000Z</Time>
            <Position>
              <LatitudeDegrees>42.95751971192657947540283203125</LatitudeDegrees>
              <LongitudeDegrees>-1.79918867535889148712158203125</LongitudeDegrees>
            </Position>
            <AltitudeMeters>532.4000244140625</AltitudeMeters>
            <DistanceMeters>9793.4250655721</DistanceMeters>
          </Trackpoint>
          <Trackpoint>
            <Time>2021-08-09T08:53:01.000Z</Time>
            <Position>
              <LatitudeDegrees>42.95752398669719696044921875</LatitudeDegrees>
              <LongitudeDegrees>-1.79915430955588817596435546875</LongitudeDegrees>
            </Position>
            <AltitudeMeters>532.4000244140625</AltitudeMeters>
            <DistanceMeters>9796.2647589119</DistanceMeters>
          </Trackpoint>
          <Trackpoint>
            <Time>2021-08-09T08:53:03.000Z</Time>
            <Position>
              <LatitudeDegrees>42.95753949321806430816650390625</LatitudeDegrees>
              <LongitudeDegrees>-1.799071915447711944580078125</LongitudeDegrees>
            </Position>
            <AltitudeMeters>532.5999755859375</AltitudeMeters>
            <DistanceMeters>9803.1945458155</DistanceMeters>
          </Trackpoint>
          <Trackpoint>
            <Time>2021-08-09T08:53:06.000Z</Time>
            <Position>
              <LatitudeDegrees>42.9575643874704837799072265625</LatitudeDegrees>
              <LongitudeDegrees>-1.79894442670047283172607421875</LongitudeDegrees>
            </Position>
            <AltitudeMeters>532.79998779296875</AltitudeMeters>
            <DistanceMeters>9813.9430712039</DistanceMeters>
          </Trackpoint>
          <Trackpoint>
            <Time>2021-08-09T08:53:08.000Z</Time>
            <Position>
              <LatitudeDegrees>42.95757385902106761932373046875</LatitudeDegrees>
              <LongitudeDegrees>-1.798847615718841552734375</LongitudeDegrees>
            </Position>
            <AltitudeMeters>533.20001220703125</AltitudeMeters>
            <DistanceMeters>9821.8992534461</DistanceMeters>
          </Trackpoint>
          <Trackpoint>
            <Time>2021-08-09T08:53:14.000Z</Time>
            <Position>
              <LatitudeDegrees>42.95764192007482051849365234375</LatitudeDegrees>
              <LongitudeDegrees>-1.798603534698486328125</LongitudeDegrees>
            </Position>
            <AltitudeMeters>533.79998779296875</AltitudeMeters>
            <DistanceMeters>9843.1759024372</DistanceMeters>
          </Trackpoint>
          <Trackpoint>
            <Time>2021-08-09T08:53:15.000Z</Time>
            <Position>
              <LatitudeDegrees>42.9576599411666393280029296875</LatitudeDegrees>
              <LongitudeDegrees>-1.79856472648680210113525390625</LongitudeDegrees>
            </Position>
            <AltitudeMeters>533.79998779296875</AltitudeMeters>
            <DistanceMeters>9846.919520826</DistanceMeters>
          </Trackpoint>
          <Trackpoint>
            <Time>2021-08-09T08:53:16.000Z</Time>
            <Position>
              <LatitudeDegrees>42.95767142437398433685302734375</LatitudeDegrees>
              <LongitudeDegrees>-1.798523403704166412353515625</LongitudeDegrees>
            </Position>
            <AltitudeMeters>534</AltitudeMeters>
            <DistanceMeters>9850.5205192672</DistanceMeters>
          </Trackpoint>
          <Trackpoint>
            <Time>2021-08-09T08:53:17.000Z</Time>
            <Position>
              <LatitudeDegrees>42.95768491923809051513671875</LatitudeDegrees>
              <LongitudeDegrees>-1.79847721941769123077392578125</LongitudeDegrees>
            </Position>
            <AltitudeMeters>534</AltitudeMeters>
            <DistanceMeters>9854.5711548838</DistanceMeters>
          </Trackpoint>
          <Trackpoint>
            <Time>2021-08-09T08:53:18.000Z</Time>
            <Position>
              <LatitudeDegrees>42.95769304968416690826416015625</LatitudeDegrees>
              <LongitudeDegrees>-1.7984303645789623260498046875</LongitudeDegrees>
            </Position>
            <AltitudeMeters>534</AltitudeMeters>
            <DistanceMeters>9858.4938134543</DistanceMeters>
          </Trackpoint>
          <Trackpoint>
            <Time>2021-08-09T08:53:19.000Z</Time>
            <Position>
              <LatitudeDegrees>42.95771576464176177978515625</LatitudeDegrees>
              <LongitudeDegrees>-1.79838585667312145233154296875</LongitudeDegrees>
            </Position>
            <AltitudeMeters>534.20001220703125</AltitudeMeters>
            <DistanceMeters>9862.9143434479</DistanceMeters>
          </Trackpoint>
          <Trackpoint>
            <Time>2021-08-09T08:53:20.000Z</Time>
            <Position>
              <LatitudeDegrees>42.95773345045745372772216796875</LatitudeDegrees>
              <LongitudeDegrees>-1.79834067821502685546875</LongitudeDegrees>
            </Position>
            <AltitudeMeters>534.20001220703125</AltitudeMeters>
            <DistanceMeters>9867.0890347583</DistanceMeters>
          </Trackpoint>
          <Trackpoint>
            <Time>2021-08-09T08:53:21.000Z</Time>
            <Position>
              <LatitudeDegrees>42.9577534832060337066650390625</LatitudeDegrees>
              <LongitudeDegrees>-1.79828292690217494964599609375</LongitudeDegrees>
            </Position>
            <AltitudeMeters>534.20001220703125</AltitudeMeters>
            <DistanceMeters>9872.2938622609</DistanceMeters>
          </Trackpoint>
          <Trackpoint>
            <Time>2021-08-09T08:53:25.000Z</Time>
            <Position>
              <LatitudeDegrees>42.957833446562290191650390625</LatitudeDegrees>
              <LongitudeDegrees>-1.79813641123473644256591796875</LongitudeDegrees>
            </Position>
            <AltitudeMeters>534.4000244140625</AltitudeMeters>
            <DistanceMeters>9887.1818526019</DistanceMeters>
          </Trackpoint>
          <Trackpoint>
            <Time>2021-08-09T08:53:29.000Z</Time>
            <Position>
              <LatitudeDegrees>42.957951463758945465087890625</LatitudeDegrees>
              <LongitudeDegrees>-1.79804203100502490997314453125</LongitudeDegrees>
            </Position>
            <AltitudeMeters>534.20001220703125</AltitudeMeters>
            <DistanceMeters>9902.401857563</DistanceMeters>
          </Trackpoint>
          <Trackpoint>
            <Time>2021-08-09T08:53:30.000Z</Time>
            <Position>
              <LatitudeDegrees>42.9579846560955047607421875</LatitudeDegrees>
              <LongitudeDegrees>-1.7980389297008514404296875</LongitudeDegrees>
            </Position>
            <AltitudeMeters>534.20001220703125</AltitudeMeters>
            <DistanceMeters>9906.1066809319</DistanceMeters>
          </Trackpoint>
          <Trackpoint>
            <Time>2021-08-09T08:53:31.000Z</Time>
            <Position>
              <LatitudeDegrees>42.958023548126220703125</LatitudeDegrees>
              <LongitudeDegrees>-1.79804152809083461761474609375</LongitudeDegrees>
            </Position>
            <AltitudeMeters>534</AltitudeMeters>
            <DistanceMeters>9910.44056591</DistanceMeters>
          </Trackpoint>
          <Trackpoint>
            <Time>2021-08-09T08:53:32.000Z</Time>
            <Position>
              <LatitudeDegrees>42.9580599255859851837158203125</LatitudeDegrees>
              <LongitudeDegrees>-1.79804119281470775604248046875</LongitudeDegrees>
            </Position>
            <AltitudeMeters>534</AltitudeMeters>
            <DistanceMeters>9914.4889716142</DistanceMeters>
          </Trackpoint>
          <Trackpoint>
            <Time>2021-08-09T08:53:38.000Z</Time>
            <Position>
              <LatitudeDegrees>42.958283722400665283203125</LatitudeDegrees>
              <LongitudeDegrees>-1.7981001175940036773681640625</LongitudeDegrees>
            </Position>
            <AltitudeMeters>533.79998779296875</AltitudeMeters>
            <DistanceMeters>9939.8559431993</DistanceMeters>
          </Trackpoint>
          <Trackpoint>
            <Time>2021-08-09T08:53:44.000Z</Time>
            <Position>
              <LatitudeDegrees>42.95852369628846645355224609375</LatitudeDegrees>
              <LongitudeDegrees>-1.79814797826111316680908203125</LongitudeDegrees>
            </Position>
            <AltitudeMeters>533.79998779296875</AltitudeMeters>
            <DistanceMeters>9966.8485486304</DistanceMeters>
          </Trackpoint>
          <Trackpoint>
            <Time>2021-08-09T08:53:45.000Z</Time>
            <Position>
              <LatitudeDegrees>42.95856459997594356536865234375</LatitudeDegrees>
              <LongitudeDegrees>-1.79815049283206462860107421875</LongitudeDegrees>
            </Position>
            <AltitudeMeters>533.79998779296875</AltitudeMeters>
            <DistanceMeters>9971.4058697537</DistanceMeters>
          </Trackpoint>
          <Trackpoint>
            <Time>2021-08-09T08:53:47.000Z</Time>
            <Position>
              <LatitudeDegrees>42.95864456333220005035400390625</LatitudeDegrees>
              <LongitudeDegrees>-1.79814898408949375152587890625</LongitudeDegrees>
            </Position>
            <AltitudeMeters>533.79998779296875</AltitudeMeters>
            <DistanceMeters>9980.3069871397</DistanceMeters>
          </Trackpoint>
          <Trackpoint>
            <Time>2021-08-09T08:53:49.000Z</Time>
            <Position>
              <LatitudeDegrees>42.9587351717054843902587890625</LatitudeDegrees>
              <LongitudeDegrees>-1.79813389666378498077392578125</LongitudeDegrees>
            </Position>
            <AltitudeMeters>533.79998779296875</AltitudeMeters>
            <DistanceMeters>9990.4655162459</DistanceMeters>
          </Trackpoint>
          <Trackpoint>
            <Time>2021-08-09T08:53:54.000Z</Time>
            <Position>
              <LatitudeDegrees>42.95892653055489063262939453125</LatitudeDegrees>
              <LongitudeDegrees>-1.7980950884521007537841796875</LongitudeDegrees>
            </Position>
            <AltitudeMeters>533.79998779296875</AltitudeMeters>
            <DistanceMeters>10011.997403873</DistanceMeters>
          </Trackpoint>
          <Trackpoint>
            <Time>2021-08-09T08:53:58.000Z</Time>
            <Position>
              <LatitudeDegrees>42.95908779837191104888916015625</LatitudeDegrees>
              <LongitudeDegrees>-1.79803146980702877044677734375</LongitudeDegrees>
            </Position>
            <AltitudeMeters>533.5999755859375</AltitudeMeters>
            <DistanceMeters>10030.680003927</DistanceMeters>
          </Trackpoint>
          <Trackpoint>
            <Time>2021-08-09T08:53:59.000Z</Time>
            <Position>
              <LatitudeDegrees>42.9591247625648975372314453125</LatitudeDegrees>
              <LongitudeDegrees>-1.79800070822238922119140625</LongitudeDegrees>
            </Position>
            <AltitudeMeters>533.5999755859375</AltitudeMeters>
            <DistanceMeters>10035.497399122</DistanceMeters>
          </Trackpoint>
          <Trackpoint>
            <Time>2021-08-09T08:54:07.000Z</Time>
            <Position>
              <LatitudeDegrees>42.95945073477923870086669921875</LatitudeDegrees>
              <LongitudeDegrees>-1.7976848781108856201171875</LongitudeDegrees>
            </Position>
            <AltitudeMeters>533.20001220703125</AltitudeMeters>
            <DistanceMeters>10079.973962232</DistanceMeters>
          </Trackpoint>
          <Trackpoint>
            <Time>2021-08-09T08:54:14.000Z</Time>
            <Position>
              <LatitudeDegrees>42.9596320353448390960693359375</LatitudeDegrees>
              <LongitudeDegrees>-1.79738455452024936676025390625</LongitudeDegrees>
            </Position>
            <AltitudeMeters>532.79998779296875</AltitudeMeters>
            <DistanceMeters>10111.685560002</DistanceMeters>
          </Trackpoint>
          <Trackpoint>
            <Time>2021-08-09T08:54:15.000Z</Time>
            <Position>
              <LatitudeDegrees>42.95965173281729221343994140625</LatitudeDegrees>
              <LongitudeDegrees>-1.797340214252471923828125</LongitudeDegrees>
            </Position>
            <AltitudeMeters>532.79998779296875</AltitudeMeters>
            <DistanceMeters>10115.911845748</DistanceMeters>
          </Trackpoint>
          <Trackpoint>
            <Time>2021-08-09T08:54:16.000Z</Time>
            <Position>
              <LatitudeDegrees>42.95967578887939453125</LatitudeDegrees>
              <LongitudeDegrees>-1.7972932755947113037109375</LongitudeDegrees>
            </Position>
            <AltitudeMeters>532.5999755859375</AltitudeMeters>
            <DistanceMeters>10120.58074332</DistanceMeters>
          </Trackpoint>
          <Trackpoint>
            <Time>2021-08-09T08:54:17.000Z</Time>
            <Position>
              <LatitudeDegrees>42.9596994258463382720947265625</LatitudeDegrees>
              <LongitudeDegrees>-1.7972434870898723602294921875</LongitudeDegrees>
            </Position>
            <AltitudeMeters>532.4000244140625</AltitudeMeters>
            <DistanceMeters>10125.414979334</DistanceMeters>
          </Trackpoint>
          <Trackpoint>
            <Time>2021-08-09T08:54:20.000Z</Time>
            <Position>
              <LatitudeDegrees>42.95979355461895465850830078125</LatitudeDegrees>
              <LongitudeDegrees>-1.79711415432393550872802734375</LongitudeDegrees>
            </Position>
            <AltitudeMeters>532.20001220703125</AltitudeMeters>
            <DistanceMeters>10140.27230812</DistanceMeters>
          </Trackpoint>
          <Trackpoint>
            <Time>2021-08-09T08:54:26.000Z</Time>
            <Position>
              <LatitudeDegrees>42.95999027788639068603515625</LatitudeDegrees>
              <LongitudeDegrees>-1.796833612024784088134765625</LongitudeDegrees>
            </Position>
            <AltitudeMeters>531.4000244140625</AltitudeMeters>
            <DistanceMeters>10171.920341535</DistanceMeters>
          </Trackpoint>
          <Trackpoint>
            <Time>2021-08-09T08:54:29.000Z</Time>
            <Position>
              <LatitudeDegrees>42.96009245328605175018310546875</LatitudeDegrees>
              <LongitudeDegrees>-1.796701848506927490234375</LongitudeDegrees>
            </Position>
            <AltitudeMeters>531</AltitudeMeters>
            <DistanceMeters>10187.557362029</DistanceMeters>
          </Trackpoint>
          <Trackpoint>
            <Time>2021-08-09T08:54:30.000Z</Time>
            <Position>
              <LatitudeDegrees>42.96012950129806995391845703125</LatitudeDegrees>
              <LongitudeDegrees>-1.7966631241142749786376953125</LongitudeDegrees>
            </Position>
            <AltitudeMeters>530.79998779296875</AltitudeMeters>
            <DistanceMeters>10192.748291436</DistanceMeters>
          </Trackpoint>
          <Trackpoint>
            <Time>2021-08-09T08:54:33.000Z</Time>
            <Position>
              <LatitudeDegrees>42.9602784477174282073974609375</LatitudeDegrees>
              <LongitudeDegrees>-1.79659657180309295654296875</LongitudeDegrees>
            </Position>
            <AltitudeMeters>530.20001220703125</AltitudeMeters>
            <DistanceMeters>10210.190288896</DistanceMeters>
          </Trackpoint>
          <Trackpoint>
            <Time>2021-08-09T08:54:34.000Z</Time>
            <Position>
              <LatitudeDegrees>42.960331253707408905029296875</LatitudeDegrees>
              <LongitudeDegrees>-1.79658852517604827880859375</LongitudeDegrees>
            </Position>
            <AltitudeMeters>530</AltitudeMeters>
            <DistanceMeters>10216.104890839</DistanceMeters>
          </Trackpoint>
          <Trackpoint>
            <Time>2021-08-09T08:54:35.000Z</Time>
            <Position>
              <LatitudeDegrees>42.960386909544467926025390625</LatitudeDegrees>
              <LongitudeDegrees>-1.79658626206219196319580078125</LongitudeDegrees>
            </Position>
            <AltitudeMeters>529.79998779296875</AltitudeMeters>
            <DistanceMeters>10222.302789289</DistanceMeters>
          </Trackpoint>
          <Trackpoint>
            <Time>2021-08-09T08:54:36.000Z</Time>
            <Position>
              <LatitudeDegrees>42.9604407213628292083740234375</LatitudeDegrees>
              <LongitudeDegrees>-1.79659581743180751800537109375</LongitudeDegrees>
            </Position>
            <AltitudeMeters>529.4000244140625</AltitudeMeters>
            <DistanceMeters>10228.342781742</DistanceMeters>
          </Trackpoint>
          <Trackpoint>
            <Time>2021-08-09T08:54:37.000Z</Time>
            <Position>
              <LatitudeDegrees>42.96049478463828563690185546875</LatitudeDegrees>
              <LongitudeDegrees>-1.79661291651427745819091796875</LongitudeDegrees>
            </Position>
            <AltitudeMeters>529</AltitudeMeters>
            <DistanceMeters>10234.519518176</DistanceMeters>
          </Trackpoint>
          <Trackpoint>
            <Time>2021-08-09T08:54:38.000Z</Time>
            <Position>
              <LatitudeDegrees>42.96054909937083721160888671875</LatitudeDegrees>
              <LongitudeDegrees>-1.79663487710058689117431640625</LongitudeDegrees>
            </Position>
            <AltitudeMeters>528.79998779296875</AltitudeMeters>
            <DistanceMeters>10240.824309728</DistanceMeters>
          </Trackpoint>
          <Trackpoint>
            <Time>2021-08-09T08:54:39.000Z</Time>
            <Position>
              <LatitudeDegrees>42.960605509579181671142578125</LatitudeDegrees>
              <LongitudeDegrees>-1.79664929397404193878173828125</LongitudeDegrees>
            </Position>
            <AltitudeMeters>528.4000244140625</AltitudeMeters>
            <DistanceMeters>10247.211631966</DistanceMeters>
          </Trackpoint>
          <Trackpoint>
            <Time>2021-08-09T08:54:40.000Z</Time>
            <Position>
              <LatitudeDegrees>42.96066091395914554595947265625</LatitudeDegrees>
              <LongitudeDegrees>-1.7966473661363124847412109375</LongitudeDegrees>
            </Position>
            <AltitudeMeters>528</AltitudeMeters>
            <DistanceMeters>10253.379590466</DistanceMeters>
          </Trackpoint>
          <Trackpoint>
            <Time>2021-08-09T08:54:41.000Z</Time>
            <Position>
              <LatitudeDegrees>42.9607124626636505126953125</LatitudeDegrees>
              <LongitudeDegrees>-1.7966254055500030517578125</LongitudeDegrees>
            </Position>
            <AltitudeMeters>527.79998779296875</AltitudeMeters>
            <DistanceMeters>10259.389607585</DistanceMeters>
          </Trackpoint>
          <Trackpoint>
            <Time>2021-08-09T08:54:42.000Z</Time>
            <Position>
              <LatitudeDegrees>42.960761077702045440673828125</LatitudeDegrees>
              <LongitudeDegrees>-1.7965803109109401702880859375</LongitudeDegrees>
            </Position>
            <AltitudeMeters>527.5999755859375</AltitudeMeters>
            <DistanceMeters>10265.929213234</DistanceMeters>
          </Trackpoint>
          <Trackpoint>
            <Time>2021-08-09T08:54:43.000Z</Time>
            <Position>
              <LatitudeDegrees>42.96079888008534908294677734375</LatitudeDegrees>
              <LongitudeDegrees>-1.7965142615139484405517578125</LongitudeDegrees>
            </Position>
            <AltitudeMeters>527.4000244140625</AltitudeMeters>
            <DistanceMeters>10272.758586912</DistanceMeters>
          </Trackpoint>
          <Trackpoint>
            <Time>2021-08-09T08:54:44.000Z</Time>
            <Position>
              <LatitudeDegrees>42.960822097957134246826171875</LatitudeDegrees>
              <LongitudeDegrees>-1.7964324541389942169189453125</LongitudeDegrees>
            </Position>
            <AltitudeMeters>526.79998779296875</AltitudeMeters>
            <DistanceMeters>10279.90520236</DistanceMeters>
          </Trackpoint>
          <Trackpoint>
            <Time>2021-08-09T08:54:45.000Z</Time>
            <Position>
              <LatitudeDegrees>42.96083039604127407073974609375</LatitudeDegrees>
              <LongitudeDegrees>-1.79634821601212024688720703125</LongitudeDegrees>
            </Position>
            <AltitudeMeters>526.79998779296875</AltitudeMeters>
            <DistanceMeters>10286.829122914</DistanceMeters>
          </Trackpoint>
          <Trackpoint>
            <Time>2021-08-09T08:54:47.000Z</Time>
            <Position>
              <LatitudeDegrees>42.96079586260020732879638671875</LatitudeDegrees>
              <LongitudeDegrees>-1.79620589129626750946044921875</LongitudeDegrees>
            </Position>
            <AltitudeMeters>526.4000244140625</AltitudeMeters>
            <DistanceMeters>10299.042920966</DistanceMeters>
          </Trackpoint>
          <Trackpoint>
            <Time>2021-08-09T08:54:48.000Z</Time>
            <Position>
              <LatitudeDegrees>42.960762083530426025390625</LatitudeDegrees>
              <LongitudeDegrees>-1.7961466312408447265625</LongitudeDegrees>
            </Position>
            <AltitudeMeters>526.4000244140625</AltitudeMeters>
            <DistanceMeters>10305.161637902</DistanceMeters>
          </Trackpoint>
          <Trackpoint>
            <Time>2021-08-09T08:54:49.000Z</Time>
            <Position>
              <LatitudeDegrees>42.9607260413467884063720703125</LatitudeDegrees>
              <LongitudeDegrees>-1.796091981232166290283203125</LongitudeDegrees>
            </Position>
            <AltitudeMeters>526.4000244140625</AltitudeMeters>
            <DistanceMeters>10311.153597843</DistanceMeters>
          </Trackpoint>
          <Trackpoint>
            <Time>2021-08-09T08:54:50.000Z</Time>
            <Position>
              <LatitudeDegrees>42.960690669715404510498046875</LatitudeDegrees>
              <LongitudeDegrees>-1.79604261182248592376708984375</LongitudeDegrees>
            </Position>
            <AltitudeMeters>526.4000244140625</AltitudeMeters>
            <DistanceMeters>10316.781875392</DistanceMeters>
          </Trackpoint>
          <Trackpoint>
            <Time>2021-08-09T08:54:51.000Z</Time>
            <Position>
              <LatitudeDegrees>42.96065873466432094573974609375</LatitudeDegrees>
              <LongitudeDegrees>-1.795998103916645050048828125</LongitudeDegrees>
            </Position>
            <AltitudeMeters>526.4000244140625</AltitudeMeters>
            <DistanceMeters>10321.860250952</DistanceMeters>
          </Trackpoint>
          <Trackpoint>
            <Time>2021-08-09T08:54:52.000Z</Time>
            <Position>
              <LatitudeDegrees>42.96062587760388851165771484375</LatitudeDegrees>
              <LongitudeDegrees>-1.79595359601080417633056640625</LongitudeDegrees>
            </Position>
            <AltitudeMeters>526.4000244140625</AltitudeMeters>
            <DistanceMeters>10327.011014448</DistanceMeters>
          </Trackpoint>
          <Trackpoint>
            <Time>2021-08-09T08:54:53.000Z</Time>
            <Position>
              <LatitudeDegrees>42.960589416325092315673828125</LatitudeDegrees>
              <LongitudeDegrees>-1.79590984247624874114990234375</LongitudeDegrees>
            </Position>
            <AltitudeMeters>526.4000244140625</AltitudeMeters>
            <DistanceMeters>10332.411676158</DistanceMeters>
          </Trackpoint>
          <Trackpoint>
            <Time>2021-08-09T08:54:54.000Z</Time>
            <Position>
              <LatitudeDegrees>42.9605547152459621429443359375</LatitudeDegrees>
              <LongitudeDegrees>-1.7958644963800907135009765625</LongitudeDegrees>
            </Position>
            <AltitudeMeters>526.5999755859375</AltitudeMeters>
            <DistanceMeters>10337.756031292</DistanceMeters>
          </Trackpoint>
          <Trackpoint>
            <Time>2021-08-09T08:54:55.000Z</Time>
            <Position>
              <LatitudeDegrees>42.960520684719085693359375</LatitudeDegrees>
              <LongitudeDegrees>-1.79582275450229644775390625</LongitudeDegrees>
            </Position>
            <AltitudeMeters>526.79998779296875</AltitudeMeters>
            <DistanceMeters>10342.845064524</DistanceMeters>
          </Trackpoint>
          <Trackpoint>
            <Time>2021-08-09T08:54:58.000Z</Time>
            <Position>
              <LatitudeDegrees>42.96041197143495082855224609375</LatitudeDegrees>
              <LongitudeDegrees>-1.79572284221649169921875</LongitudeDegrees>
            </Position>
            <AltitudeMeters>527.20001220703125</AltitudeMeters>
            <DistanceMeters>10357.427253664</DistanceMeters>
          </Trackpoint>
          <Trackpoint>
            <Time>2021-08-09T08:54:59.000Z</Time>
            <Position>
              <LatitudeDegrees>42.96037517488002777099609375</LatitudeDegrees>
              <LongitudeDegrees>-1.7956891469657421112060546875</LongitudeDegrees>
            </Position>
            <AltitudeMeters>527.20001220703125</AltitudeMeters>
            <DistanceMeters>10362.357665998</DistanceMeters>
          </Trackpoint>
          <Trackpoint>
            <Time>2021-08-09T08:55:00.000Z</Time>
            <Position>
              <LatitudeDegrees>42.9603364504873752593994140625</LatitudeDegrees>
              <LongitudeDegrees>-1.7956643365323543548583984375</LongitudeDegrees>
            </Position>
            <AltitudeMeters>527.20001220703125</AltitudeMeters>
            <DistanceMeters>10367.118494905</DistanceMeters>
          </Trackpoint>
          <Trackpoint>
            <Time>2021-08-09T08:55:01.000Z</Time>
            <Position>
              <LatitudeDegrees>42.96030300669372081756591796875</LatitudeDegrees>
              <LongitudeDegrees>-1.795646063983440399169921875</LongitudeDegrees>
            </Position>
            <AltitudeMeters>527.20001220703125</AltitudeMeters>
            <DistanceMeters>10371.127676376</DistanceMeters>
          </Trackpoint>
          <Trackpoint>
            <Time>2021-08-09T08:55:02.000Z</Time>
            <Position>
              <LatitudeDegrees>42.960271574556827545166015625</LatitudeDegrees>
              <LongitudeDegrees>-1.7956241033971309661865234375</LongitudeDegrees>
            </Position>
            <AltitudeMeters>527.20001220703125</AltitudeMeters>
            <DistanceMeters>10375.058383793</DistanceMeters>
          </Trackpoint>
          <Trackpoint>
            <Time>2021-08-09T08:55:03.000Z</Time>
            <Position>
              <LatitudeDegrees>42.96024148352444171905517578125</LatitudeDegrees>
              <LongitudeDegrees>-1.79560239426791667938232421875</LongitudeDegrees>
            </Position>
            <AltitudeMeters>527.4000244140625</AltitudeMeters>
            <DistanceMeters>10378.84755541</DistanceMeters>
          </Trackpoint>
          <Trackpoint>
            <Time>2021-08-09T08:55:04.000Z</Time>
            <Position>
              <LatitudeDegrees>42.96021264977753162384033203125</LatitudeDegrees>
              <LongitudeDegrees>-1.79558227770030498504638671875</LongitudeDegrees>
            </Position>
            <AltitudeMeters>527.4000244140625</AltitudeMeters>
            <DistanceMeters>10382.451060638</DistanceMeters>
          </Trackpoint>
          <Trackpoint>
            <Time>2021-08-09T08:55:05.000Z</Time>
            <Position>
              <LatitudeDegrees>42.96018566004931926727294921875</LatitudeDegrees>
              <LongitudeDegrees>-1.7955624125897884368896484375</LongitudeDegrees>
            </Position>
            <AltitudeMeters>527.4000244140625</AltitudeMeters>
            <DistanceMeters>10385.864094276</DistanceMeters>
          </Trackpoint>
          <Trackpoint>
            <Time>2021-08-09T08:55:07.000Z</Time>
            <Position>
              <LatitudeDegrees>42.96013620682060718536376953125</LatitudeDegrees>
              <LongitudeDegrees>-1.79551321081817150115966796875</LongitudeDegrees>
            </Position>
            <AltitudeMeters>527.79998779296875</AltitudeMeters>
            <DistanceMeters>10392.672942377</DistanceMeters>
          </Trackpoint>
          <Trackpoint>
            <Time>2021-08-09T08:55:08.000Z</Time>
            <Position>
              <LatitudeDegrees>42.960111312568187713623046875</LatitudeDegrees>
              <LongitudeDegrees>-1.7954827845096588134765625</LongitudeDegrees>
            </Position>
            <AltitudeMeters>528</AltitudeMeters>
            <DistanceMeters>10396.389932686</DistanceMeters>
          </Trackpoint>
          <Trackpoint>
            <Time>2021-08-09T08:55:09.000Z</Time>
            <Position>
              <LatitudeDegrees>42.960096560418605804443359375</LatitudeDegrees>
              <LongitudeDegrees>-1.7954578064382076263427734375</LongitudeDegrees>
            </Position>
            <AltitudeMeters>528</AltitudeMeters>
            <DistanceMeters>10399.002735356</DistanceMeters>
          </Trackpoint>
          <Trackpoint>
            <Time>2021-08-09T08:55:10.000Z</Time>
            <Position>
              <LatitudeDegrees>42.96007736586034297943115234375</LatitudeDegrees>
              <LongitudeDegrees>-1.79542151279747486114501953125</LongitudeDegrees>
            </Position>
            <AltitudeMeters>528.20001220703125</AltitudeMeters>
            <DistanceMeters>10402.651068219</DistanceMeters>
          </Trackpoint>
          <Trackpoint>
            <Time>2021-08-09T08:55:16.000Z</Time>
            <Position>
              <LatitudeDegrees>42.9599602706730365753173828125</LatitudeDegrees>
              <LongitudeDegrees>-1.795201487839221954345703125</LongitudeDegrees>
            </Position>
            <AltitudeMeters>528.5999755859375</AltitudeMeters>
            <DistanceMeters>10424.811045364</DistanceMeters>
          </Trackpoint>
          <Trackpoint>
            <Time>2021-08-09T08:55:26.000Z</Time>
            <Position>
              <LatitudeDegrees>42.95980118215084075927734375</LatitudeDegrees>
              <LongitudeDegrees>-1.79474718868732452392578125</LongitudeDegrees>
            </Position>
            <AltitudeMeters>529</AltitudeMeters>
            <DistanceMeters>10465.833980003</DistanceMeters>
          </Trackpoint>
          <Trackpoint>
            <Time>2021-08-09T08:55:27.000Z</Time>
            <Position>
              <LatitudeDegrees>42.959786094725131988525390625</LatitudeDegrees>
              <LongitudeDegrees>-1.794705279171466827392578125</LongitudeDegrees>
            </Position>
            <AltitudeMeters>529</AltitudeMeters>
            <DistanceMeters>10469.639796948</DistanceMeters>
          </Trackpoint>
          <Trackpoint>
            <Time>2021-08-09T08:55:29.000Z</Time>
            <Position>
              <LatitudeDegrees>42.95975952409207820892333984375</LatitudeDegrees>
              <LongitudeDegrees>-1.79462648928165435791015625</LongitudeDegrees>
            </Position>
            <AltitudeMeters>529</AltitudeMeters>
            <DistanceMeters>10476.706360663</DistanceMeters>
          </Trackpoint>
          <Trackpoint>
            <Time>2021-08-09T08:55:30.000Z</Time>
            <Position>
              <LatitudeDegrees>42.95974158681929111480712890625</LatitudeDegrees>
              <LongitudeDegrees>-1.7945834062993526458740234375</LongitudeDegrees>
            </Position>
            <AltitudeMeters>529</AltitudeMeters>
            <DistanceMeters>10480.744716524</DistanceMeters>
          </Trackpoint>
          <Trackpoint>
            <Time>2021-08-09T08:55:33.000Z</Time>
            <Position>
              <LatitudeDegrees>42.95967352576553821563720703125</LatitudeDegrees>
              <LongitudeDegrees>-1.79444267414510250091552734375</LongitudeDegrees>
            </Position>
            <AltitudeMeters>529</AltitudeMeters>
            <DistanceMeters>10494.485198258</DistanceMeters>
          </Trackpoint>
          <Trackpoint>
            <Time>2021-08-09T08:55:40.000Z</Time>
            <Position>
              <LatitudeDegrees>42.959540002048015594482421875</LatitudeDegrees>
              <LongitudeDegrees>-1.79415551014244556427001953125</LongitudeDegrees>
            </Position>
            <AltitudeMeters>529.4000244140625</AltitudeMeters>
            <DistanceMeters>10522.197829699</DistanceMeters>
          </Trackpoint>
          <Trackpoint>
            <Time>2021-08-09T08:55:41.000Z</Time>
            <Position>
              <LatitudeDegrees>42.9595207236707210540771484375</LatitudeDegrees>
              <LongitudeDegrees>-1.79411661811172962188720703125</LongitudeDegrees>
            </Position>
            <AltitudeMeters>529.4000244140625</AltitudeMeters>
            <DistanceMeters>10526.02376147</DistanceMeters>
          </Trackpoint>
          <Trackpoint>
            <Time>2021-08-09T08:55:42.000Z</Time>
            <Position>
              <LatitudeDegrees>42.95950119383633136749267578125</LatitudeDegrees>
              <LongitudeDegrees>-1.79408426396548748016357421875</LongitudeDegrees>
            </Position>
            <AltitudeMeters>529.4000244140625</AltitudeMeters>
            <DistanceMeters>10529.439439846</DistanceMeters>
          </Trackpoint>
          <Trackpoint>
            <Time>2021-08-09T08:55:44.000Z</Time>
            <Position>
              <LatitudeDegrees>42.9594711028039455413818359375</LatitudeDegrees>
              <LongitudeDegrees>-1.7940087430179119110107421875</LongitudeDegrees>
            </Position>
            <AltitudeMeters>529.5999755859375</AltitudeMeters>
            <DistanceMeters>10536.443108545</DistanceMeters>
          </Trackpoint>
          <Trackpoint>
            <Time>2021-08-09T08:55:48.000Z</Time>
            <Position>
              <LatitudeDegrees>42.9593715257942676544189453125</LatitudeDegrees>
              <LongitudeDegrees>-1.7938709445297718048095703125</LongitudeDegrees>
            </Position>
            <AltitudeMeters>529.5999755859375</AltitudeMeters>
            <DistanceMeters>10552.21754313</DistanceMeters>
          </Trackpoint>
          <Trackpoint>
            <Time>2021-08-09T08:55:49.000Z</Time>
            <Position>
              <LatitudeDegrees>42.95934596098959445953369140625</LatitudeDegrees>
              <LongitudeDegrees>-1.7938380874693393707275390625</LongitudeDegrees>
            </Position>
            <AltitudeMeters>529.5999755859375</AltitudeMeters>
            <DistanceMeters>10556.124054258</DistanceMeters>
          </Trackpoint>
          <Trackpoint>
            <Time>2021-08-09T08:55:55.000Z</Time>
            <Position>
              <LatitudeDegrees>42.95918921940028667449951171875</LatitudeDegrees>
              <LongitudeDegrees>-1.79365024901926517486572265625</LongitudeDegrees>
            </Position>
            <AltitudeMeters>530</AltitudeMeters>
            <DistanceMeters>10579.328869671</DistanceMeters>
          </Trackpoint>
          <Trackpoint>
            <Time>2021-08-09T08:55:59.000Z</Time>
            <Position>
              <LatitudeDegrees>42.95908612199127674102783203125</LatitudeDegrees>
              <LongitudeDegrees>-1.79353139363229274749755859375</LongitudeDegrees>
            </Position>
            <AltitudeMeters>530.20001220703125</AltitudeMeters>
            <DistanceMeters>10594.342489094</DistanceMeters>
          </Trackpoint>
          <Trackpoint>
            <Time>2021-08-09T08:56:03.000Z</Time>
            <Position>
              <LatitudeDegrees>42.95897179283201694488525390625</LatitudeDegrees>
              <LongitudeDegrees>-1.7934277094900608062744140625</LongitudeDegrees>
            </Position>
            <AltitudeMeters>530.4000244140625</AltitudeMeters>
            <DistanceMeters>10609.615502376</DistanceMeters>
          </Trackpoint>
          <Trackpoint>
            <Time>2021-08-09T08:56:08.000Z</Time>
            <Position>
              <LatitudeDegrees>42.958839274942874908447265625</LatitudeDegrees>
              <LongitudeDegrees>-1.7932905815541744232177734375</LongitudeDegrees>
            </Position>
            <AltitudeMeters>530.5999755859375</AltitudeMeters>
            <DistanceMeters>10628.117181701</DistanceMeters>
          </Trackpoint>
          <Trackpoint>
            <Time>2021-08-09T08:56:14.000Z</Time>
            <Position>
              <LatitudeDegrees>42.9586580581963062286376953125</LatitudeDegrees>
              <LongitudeDegrees>-1.7930941097438335418701171875</LongitudeDegrees>
            </Position>
            <AltitudeMeters>530.79998779296875</AltitudeMeters>
            <DistanceMeters>10653.864687057</DistanceMeters>
          </Trackpoint>
          <Trackpoint>
            <Time>2021-08-09T08:56:23.000Z</Time>
            <Position>
              <LatitudeDegrees>42.9583747498691082000732421875</LatitudeDegrees>
              <LongitudeDegrees>-1.7927910201251506805419921875</LongitudeDegrees>
            </Position>
            <AltitudeMeters>530.79998779296875</AltitudeMeters>
            <DistanceMeters>10693.912556878</DistanceMeters>
          </Trackpoint>
          <Trackpoint>
            <Time>2021-08-09T08:56:28.000Z</Time>
            <Position>
              <LatitudeDegrees>42.95825933106243610382080078125</LatitudeDegrees>
              <LongitudeDegrees>-1.79257032461464405059814453125</LongitudeDegrees>
            </Position>
            <AltitudeMeters>530.5999755859375</AltitudeMeters>
            <DistanceMeters>10716.007851691</DistanceMeters>
          </Trackpoint>
          <Trackpoint>
            <Time>2021-08-09T08:56:29.000Z</Time>
            <Position>
              <LatitudeDegrees>42.958255894482135772705078125</LatitudeDegrees>
              <LongitudeDegrees>-1.79252824746072292327880859375</LongitudeDegrees>
            </Position>
            <AltitudeMeters>530.5999755859375</AltitudeMeters>
            <DistanceMeters>10719.45772716</DistanceMeters>
          </Trackpoint>
          <Trackpoint>
            <Time>2021-08-09T08:56:30.000Z</Time>
            <Position>
              <LatitudeDegrees>42.9582600854337215423583984375</LatitudeDegrees>
              <LongitudeDegrees>-1.79246454499661922454833984375</LongitudeDegrees>
            </Position>
            <AltitudeMeters>530.5999755859375</AltitudeMeters>
            <DistanceMeters>10724.66775689</DistanceMeters>
          </Trackpoint>
          <Trackpoint>
            <Time>2021-08-09T08:56:31.000Z</Time>
            <Position>
              <LatitudeDegrees>42.958275340497493743896484375</LatitudeDegrees>
              <LongitudeDegrees>-1.79241509176790714263916015625</LongitudeDegrees>
            </Position>
            <AltitudeMeters>530.4000244140625</AltitudeMeters>
            <DistanceMeters>10729.038985751</DistanceMeters>
          </Trackpoint>
          <Trackpoint>
            <Time>2021-08-09T08:56:32.000Z</Time>
            <Position>
              <LatitudeDegrees>42.95829637907445430755615234375</LatitudeDegrees>
              <LongitudeDegrees>-1.79238022305071353912353515625</LongitudeDegrees>
            </Position>
            <AltitudeMeters>530.4000244140625</AltitudeMeters>
            <DistanceMeters>10732.720581158</DistanceMeters>
          </Trackpoint>
          <Trackpoint>
            <Time>2021-08-09T08:56:35.000Z</Time>
            <Position>
              <LatitudeDegrees>42.9584069363772869110107421875</LatitudeDegrees>
              <LongitudeDegrees>-1.79231048561632633209228515625</LongitudeDegrees>
            </Position>
            <AltitudeMeters>530.4000244140625</AltitudeMeters>
            <DistanceMeters>10746.273802732</DistanceMeters>
          </Trackpoint>
          <Trackpoint>
            <Time>2021-08-09T08:56:36.000Z</Time>
            <Position>
              <LatitudeDegrees>42.9584562219679355621337890625</LatitudeDegrees>
              <LongitudeDegrees>-1.79229523055255413055419921875</LongitudeDegrees>
            </Position>
            <AltitudeMeters>530.4000244140625</AltitudeMeters>
            <DistanceMeters>10751.898870541</DistanceMeters>
          </Trackpoint>
          <Trackpoint>
            <Time>2021-08-09T08:56:37.000Z</Time>
            <Position>
              <LatitudeDegrees>42.958489246666431427001953125</LatitudeDegrees>
              <LongitudeDegrees>-1.79228869266808032989501953125</LongitudeDegrees>
            </Position>
            <AltitudeMeters>530.4000244140625</AltitudeMeters>
            <DistanceMeters>10755.613430651</DistanceMeters>
          </Trackpoint>
          <Trackpoint>
            <Time>2021-08-09T08:56:43.000Z</Time>
            <Position>
              <LatitudeDegrees>42.95873341150581836700439453125</LatitudeDegrees>
              <LongitudeDegrees>-1.79227209649980068206787109375</LongitudeDegrees>
            </Position>
            <AltitudeMeters>530.20001220703125</AltitudeMeters>
            <DistanceMeters>10782.822783407</DistanceMeters>
          </Trackpoint>
          <Trackpoint>
            <Time>2021-08-09T08:56:44.000Z</Time>
            <Position>
              <LatitudeDegrees>42.9587703756988048553466796875</LatitudeDegrees>
              <LongitudeDegrees>-1.79227410815656185150146484375</LongitudeDegrees>
            </Position>
            <AltitudeMeters>530</AltitudeMeters>
            <DistanceMeters>10786.939754804</DistanceMeters>
          </Trackpoint>
          <Trackpoint>
            <Time>2021-08-09T08:56:45.000Z</Time>
            <Position>
              <LatitudeDegrees>42.95880876481533050537109375</LatitudeDegrees>
              <LongitudeDegrees>-1.792276538908481597900390625</LongitudeDegrees>
            </Position>
            <AltitudeMeters>530</AltitudeMeters>
            <DistanceMeters>10791.217012673</DistanceMeters>
          </Trackpoint>
          <Trackpoint>
            <Time>2021-08-09T08:56:46.000Z</Time>
            <Position>
              <LatitudeDegrees>42.9588478244841098785400390625</LatitudeDegrees>
              <LongitudeDegrees>-1.79228282533586025238037109375</LongitudeDegrees>
            </Position>
            <AltitudeMeters>530</AltitudeMeters>
            <DistanceMeters>10795.594434541</DistanceMeters>
          </Trackpoint>
          <Trackpoint>
            <Time>2021-08-09T08:56:47.000Z</Time>
            <Position>
              <LatitudeDegrees>42.958886213600635528564453125</LatitudeDegrees>
              <LongitudeDegrees>-1.79229087196290493011474609375</LongitudeDegrees>
            </Position>
            <AltitudeMeters>529.79998779296875</AltitudeMeters>
            <DistanceMeters>10799.917888975</DistanceMeters>
          </Trackpoint>
          <Trackpoint>
            <Time>2021-08-09T08:56:48.000Z</Time>
            <Position>
              <LatitudeDegrees>42.958922423422336578369140625</LatitudeDegrees>
              <LongitudeDegrees>-1.79229523055255413055419921875</LongitudeDegrees>
            </Position>
            <AltitudeMeters>529.79998779296875</AltitudeMeters>
            <DistanceMeters>10803.962947506</DistanceMeters>
          </Trackpoint>
          <Trackpoint>
            <Time>2021-08-09T08:56:49.000Z</Time>
            <Position>
              <LatitudeDegrees>42.9589571245014667510986328125</LatitudeDegrees>
              <LongitudeDegrees>-1.7922988347709178924560546875</LongitudeDegrees>
            </Position>
            <AltitudeMeters>529.79998779296875</AltitudeMeters>
            <DistanceMeters>10807.836961838</DistanceMeters>
          </Trackpoint>
          <Trackpoint>
            <Time>2021-08-09T08:56:50.000Z</Time>
            <Position>
              <LatitudeDegrees>42.958990819752216339111328125</LatitudeDegrees>
              <LongitudeDegrees>-1.7923038639128208160400390625</LongitudeDegrees>
            </Position>
            <AltitudeMeters>529.5999755859375</AltitudeMeters>
            <DistanceMeters>10811.609414684</DistanceMeters>
          </Trackpoint>
          <Trackpoint>
            <Time>2021-08-09T08:56:51.000Z</Time>
            <Position>
              <LatitudeDegrees>42.959024347364902496337890625</LatitudeDegrees>
              <LongitudeDegrees>-1.7923052050173282623291015625</LongitudeDegrees>
            </Position>
            <AltitudeMeters>529.5999755859375</AltitudeMeters>
            <DistanceMeters>10815.343372106</DistanceMeters>
          </Trackpoint>
          <Trackpoint>
            <Time>2021-08-09T08:56:52.000Z</Time>
            <Position>
              <LatitudeDegrees>42.95905695296823978424072265625</LatitudeDegrees>
              <LongitudeDegrees>-1.792306713759899139404296875</LongitudeDegrees>
            </Position>
            <AltitudeMeters>529.5999755859375</AltitudeMeters>
            <DistanceMeters>10818.976823876</DistanceMeters>
          </Trackpoint>
          <Trackpoint>
            <Time>2021-08-09T08:56:53.000Z</Time>
            <Position>
              <LatitudeDegrees>42.95909106731414794921875</LatitudeDegrees>
              <LongitudeDegrees>-1.7923058755695819854736328125</LongitudeDegrees>
            </Position>
            <AltitudeMeters>529.5999755859375</AltitudeMeters>
            <DistanceMeters>10822.774327277</DistanceMeters>
          </Trackpoint>
          <Trackpoint>
            <Time>2021-08-09T08:56:54.000Z</Time>
            <Position>
              <LatitudeDegrees>42.9591274447739124298095703125</LatitudeDegrees>
              <LongitudeDegrees>-1.79230093024671077728271484375</LongitudeDegrees>
            </Position>
            <AltitudeMeters>529.5999755859375</AltitudeMeters>
            <DistanceMeters>10826.842758193</DistanceMeters>
          </Trackpoint>
          <Trackpoint>
            <Time>2021-08-09T08:56:57.000Z</Time>
            <Position>
              <LatitudeDegrees>42.9592303745448589324951171875</LatitudeDegrees>
              <LongitudeDegrees>-1.7922475375235080718994140625</LongitudeDegrees>
            </Position>
            <AltitudeMeters>529.5999755859375</AltitudeMeters>
            <DistanceMeters>10839.096415244</DistanceMeters>
          </Trackpoint>
          <Trackpoint>
            <Time>2021-08-09T08:56:58.000Z</Time>
            <Position>
              <LatitudeDegrees>42.95925862155854701995849609375</LatitudeDegrees>
              <LongitudeDegrees>-1.7922153510153293609619140625</LongitudeDegrees>
            </Position>
            <AltitudeMeters>529.79998779296875</AltitudeMeters>
            <DistanceMeters>10843.190291387</DistanceMeters>
          </Trackpoint>
          <Trackpoint>
            <Time>2021-08-09T08:56:59.000Z</Time>
            <Position>
              <LatitudeDegrees>42.95928359962999820709228515625</LatitudeDegrees>
              <LongitudeDegrees>-1.792179644107818603515625</LongitudeDegrees>
            </Position>
            <AltitudeMeters>529.79998779296875</AltitudeMeters>
            <DistanceMeters>10847.215208423</DistanceMeters>
          </Trackpoint>
          <Trackpoint>
            <Time>2021-08-09T08:57:00.000Z</Time>
            <Position>
              <LatitudeDegrees>42.95930488966405391693115234375</LatitudeDegrees>
              <LongitudeDegrees>-1.79214133881032466888427734375</LongitudeDegrees>
            </Position>
            <AltitudeMeters>529.79998779296875</AltitudeMeters>
            <DistanceMeters>10851.133260229</DistanceMeters>
          </Trackpoint>
          <Trackpoint>
            <Time>2021-08-09T08:57:01.000Z</Time>
            <Position>
              <LatitudeDegrees>42.95932215638458728790283203125</LatitudeDegrees>
              <LongitudeDegrees>-1.79210144095122814178466796875</LongitudeDegrees>
            </Position>
            <AltitudeMeters>529.79998779296875</AltitudeMeters>
            <DistanceMeters>10854.9093019</DistanceMeters>
          </Trackpoint>
          <Trackpoint>
            <Time>2021-08-09T08:57:02.000Z</Time>
            <Position>
              <LatitudeDegrees>42.95933590270578861236572265625</LatitudeDegrees>
              <LongitudeDegrees>-1.792059950530529022216796875</LongitudeDegrees>
            </Position>
            <AltitudeMeters>530</AltitudeMeters>
            <DistanceMeters>10858.618996834</DistanceMeters>
          </Trackpoint>
          <Trackpoint>
            <Time>2021-08-09T08:57:04.000Z</Time>
            <Position>
              <LatitudeDegrees>42.9593664966523647308349609375</LatitudeDegrees>
              <LongitudeDegrees>-1.7919729463756084442138671875</LongitudeDegrees>
            </Position>
            <AltitudeMeters>530.4000244140625</AltitudeMeters>
            <DistanceMeters>10866.481560241</DistanceMeters>
          </Trackpoint>
          <Trackpoint>
            <Time>2021-08-09T08:57:05.000Z</Time>
            <Position>
              <LatitudeDegrees>42.95938015915453433990478515625</LatitudeDegrees>
              <LongitudeDegrees>-1.79192944429814815521240234375</LongitudeDegrees>
            </Position>
            <AltitudeMeters>530.5999755859375</AltitudeMeters>
            <DistanceMeters>10870.336881995</DistanceMeters>
          </Trackpoint>
          <Trackpoint>
            <Time>2021-08-09T08:57:06.000Z</Time>
            <Position>
              <LatitudeDegrees>42.9593929834663867950439453125</LatitudeDegrees>
              <LongitudeDegrees>-1.7918864451348781585693359375</LongitudeDegrees>
            </Position>
            <AltitudeMeters>530.5999755859375</AltitudeMeters>
            <DistanceMeters>10874.118897475</DistanceMeters>
          </Trackpoint>
          <Trackpoint>
            <Time>2021-08-09T08:57:07.000Z</Time>
            <Position>
              <LatitudeDegrees>42.95940555632114410400390625</LatitudeDegrees>
              <LongitudeDegrees>-1.79184378124773502349853515625</LongitudeDegrees>
            </Position>
            <AltitudeMeters>530.79998779296875</AltitudeMeters>
            <DistanceMeters>10877.863721732</DistanceMeters>
          </Trackpoint>
          <Trackpoint>
            <Time>2021-08-09T08:57:09.000Z</Time>
            <Position>
              <LatitudeDegrees>42.95942709781229496002197265625</LatitudeDegrees>
              <LongitudeDegrees>-1.79175459779798984527587890625</LongitudeDegrees>
            </Position>
            <AltitudeMeters>530.79998779296875</AltitudeMeters>
            <DistanceMeters>10885.51322468</DistanceMeters>
          </Trackpoint>
          <Trackpoint>
            <Time>2021-08-09T08:57:10.000Z</Time>
            <Position>
              <LatitudeDegrees>42.959437407553195953369140625</LatitudeDegrees>
              <LongitudeDegrees>-1.79171361029148101806640625</LongitudeDegrees>
            </Position>
            <AltitudeMeters>531</AltitudeMeters>
            <DistanceMeters>10889.043310443</DistanceMeters>
          </Trackpoint>
          <Trackpoint>
            <Time>2021-08-09T08:57:11.000Z</Time>
            <Position>
              <LatitudeDegrees>42.95944922603666782379150390625</LatitudeDegrees>
              <LongitudeDegrees>-1.79167161695659160614013671875</LongitudeDegrees>
            </Position>
            <AltitudeMeters>531</AltitudeMeters>
            <DistanceMeters>10892.707696295</DistanceMeters>
          </Trackpoint>
          <Trackpoint>
            <Time>2021-08-09T08:57:12.000Z</Time>
            <Position>
              <LatitudeDegrees>42.95946129597723484039306640625</LatitudeDegrees>
              <LongitudeDegrees>-1.7916272766888141632080078125</LongitudeDegrees>
            </Position>
            <AltitudeMeters>531</AltitudeMeters>
            <DistanceMeters>10896.5606751</DistanceMeters>
          </Trackpoint>
          <Trackpoint>
            <Time>2021-08-09T08:57:17.000Z</Time>
            <Position>
              <LatitudeDegrees>42.9595213942229747772216796875</LatitudeDegrees>
              <LongitudeDegrees>-1.79142351262271404266357421875</LongitudeDegrees>
            </Position>
            <AltitudeMeters>531.4000244140625</AltitudeMeters>
            <DistanceMeters>10914.455494766</DistanceMeters>
          </Trackpoint>
          <Trackpoint>
            <Time>2021-08-09T08:57:18.000Z</Time>
            <Position>
              <LatitudeDegrees>42.95953203924000263214111328125</LatitudeDegrees>
              <LongitudeDegrees>-1.7913815192878246307373046875</LongitudeDegrees>
            </Position>
            <AltitudeMeters>531.79998779296875</AltitudeMeters>
            <DistanceMeters>10918.076498908</DistanceMeters>
          </Trackpoint>
          <Trackpoint>
            <Time>2021-08-09T08:57:23.000Z</Time>
            <Position>
              <LatitudeDegrees>42.95959222130477428436279296875</LatitudeDegrees>
              <LongitudeDegrees>-1.79117708466947078704833984375</LongitudeDegrees>
            </Position>
            <AltitudeMeters>532</AltitudeMeters>
            <DistanceMeters>10936.025483205</DistanceMeters>
          </Trackpoint>
          <Trackpoint>
            <Time>2021-08-09T08:57:24.000Z</Time>
            <Position>
              <LatitudeDegrees>42.95960496179759502410888671875</LatitudeDegrees>
              <LongitudeDegrees>-1.7911360971629619598388671875</LongitudeDegrees>
            </Position>
            <AltitudeMeters>532.5999755859375</AltitudeMeters>
            <DistanceMeters>10939.653961047</DistanceMeters>
          </Trackpoint>
          <Trackpoint>
            <Time>2021-08-09T08:57:31.000Z</Time>
            <Position>
              <LatitudeDegrees>42.95968827791512012481689453125</LatitudeDegrees>
              <LongitudeDegrees>-1.79084566421806812286376953125</LongitudeDegrees>
            </Position>
            <AltitudeMeters>533.20001220703125</AltitudeMeters>
            <DistanceMeters>10965.063614051</DistanceMeters>
          </Trackpoint>
          <Trackpoint>
            <Time>2021-08-09T08:57:33.000Z</Time>
            <Position>
              <LatitudeDegrees>42.9597068019211292266845703125</LatitudeDegrees>
              <LongitudeDegrees>-1.79077123291790485382080078125</LongitudeDegrees>
            </Position>
            <AltitudeMeters>533.4000244140625</AltitudeMeters>
            <DistanceMeters>10971.466468653</DistanceMeters>
          </Trackpoint>
          <Trackpoint>
            <Time>2021-08-09T08:57:34.000Z</Time>
            <Position>
              <LatitudeDegrees>42.9597187042236328125</LatitudeDegrees>
              <LongitudeDegrees>-1.79073418490588665008544921875</LongitudeDegrees>
            </Position>
            <AltitudeMeters>533.4000244140625</AltitudeMeters>
            <DistanceMeters>10974.761032643</DistanceMeters>
          </Trackpoint>
          <Trackpoint>
            <Time>2021-08-09T08:57:36.000Z</Time>
            <Position>
              <LatitudeDegrees>42.959742508828639984130859375</LatitudeDegrees>
              <LongitudeDegrees>-1.79066218435764312744140625</LongitudeDegrees>
            </Position>
            <AltitudeMeters>533.4000244140625</AltitudeMeters>
            <DistanceMeters>10981.196242863</DistanceMeters>
          </Trackpoint>
          <Trackpoint>
            <Time>2021-08-09T08:57:37.000Z</Time>
            <Position>
              <LatitudeDegrees>42.95975516550242900848388671875</LatitudeDegrees>
              <LongitudeDegrees>-1.790626309812068939208984375</LongitudeDegrees>
            </Position>
            <AltitudeMeters>533.5999755859375</AltitudeMeters>
            <DistanceMeters>10984.441095576</DistanceMeters>
          </Trackpoint>
          <Trackpoint>
            <Time>2021-08-09T08:57:38.000Z</Time>
            <Position>
              <LatitudeDegrees>42.95976555906236171722412109375</LatitudeDegrees>
              <LongitudeDegrees>-1.790590099990367889404296875</LongitudeDegrees>
            </Position>
            <AltitudeMeters>533.5999755859375</AltitudeMeters>
            <DistanceMeters>10987.609919492</DistanceMeters>
          </Trackpoint>
          <Trackpoint>
            <Time>2021-08-09T08:57:39.000Z</Time>
            <Position>
              <LatitudeDegrees>42.9597763717174530029296875</LatitudeDegrees>
              <LongitudeDegrees>-1.79055665619671344757080078125</LongitudeDegrees>
            </Position>
            <AltitudeMeters>533.79998779296875</AltitudeMeters>
            <DistanceMeters>10990.58927599</DistanceMeters>
          </Trackpoint>
          <Trackpoint>
            <Time>2021-08-09T08:57:40.000Z</Time>
            <Position>
              <LatitudeDegrees>42.95978936366736888885498046875</LatitudeDegrees>
              <LongitudeDegrees>-1.7905269004404544830322265625</LongitudeDegrees>
            </Position>
            <AltitudeMeters>533.79998779296875</AltitudeMeters>
            <DistanceMeters>10993.414623327</DistanceMeters>
          </Trackpoint>
          <Trackpoint>
            <Time>2021-08-09T08:57:41.000Z</Time>
            <Position>
              <LatitudeDegrees>42.9598047025501728057861328125</LatitudeDegrees>
              <LongitudeDegrees>-1.79050125181674957275390625</LongitudeDegrees>
            </Position>
            <AltitudeMeters>534</AltitudeMeters>
            <DistanceMeters>10996.11244497</DistanceMeters>
          </Trackpoint>
          <Trackpoint>
            <Time>2021-08-09T08:57:42.000Z</Time>
            <Position>
              <LatitudeDegrees>42.95982129871845245361328125</LatitudeDegrees>
              <LongitudeDegrees>-1.79047836922109127044677734375</LongitudeDegrees>
            </Position>
            <AltitudeMeters>534</AltitudeMeters>
            <DistanceMeters>10998.735595413</DistanceMeters>
          </Trackpoint>
          <Trackpoint>
            <Time>2021-08-09T08:57:43.000Z</Time>
            <Position>
              <LatitudeDegrees>42.95984099619090557098388671875</LatitudeDegrees>
              <LongitudeDegrees>-1.79045774973928928375244140625</LongitudeDegrees>
            </Position>
            <AltitudeMeters>534.20001220703125</AltitudeMeters>
            <DistanceMeters>11001.496280929</DistanceMeters>
          </Trackpoint>
          <Trackpoint>
            <Time>2021-08-09T08:57:44.000Z</Time>
            <Position>
              <LatitudeDegrees>42.95986077748239040374755859375</LatitudeDegrees>
              <LongitudeDegrees>-1.79044215939939022064208984375</LongitudeDegrees>
            </Position>
            <AltitudeMeters>534.20001220703125</AltitudeMeters>
            <DistanceMeters>11004.035468709</DistanceMeters>
          </Trackpoint>
          <Trackpoint>
            <Time>2021-08-09T08:57:45.000Z</Time>
            <Position>
              <LatitudeDegrees>42.95988223515450954437255859375</LatitudeDegrees>
              <LongitudeDegrees>-1.79043159820139408111572265625</LongitudeDegrees>
            </Position>
            <AltitudeMeters>534.20001220703125</AltitudeMeters>
            <DistanceMeters>11006.574656489</DistanceMeters>
          </Trackpoint>
          <Trackpoint>
            <Time>2021-08-09T08:57:46.000Z</Time>
            <Position>
              <LatitudeDegrees>42.9599049501121044158935546875</LatitudeDegrees>
              <LongitudeDegrees>-1.79042614996433258056640625</LongitudeDegrees>
            </Position>
            <AltitudeMeters>534.4000244140625</AltitudeMeters>
            <DistanceMeters>11009.142136928</DistanceMeters>
          </Trackpoint>
          <Trackpoint>
            <Time>2021-08-09T08:57:47.000Z</Time>
            <Position>
              <LatitudeDegrees>42.9599319398403167724609375</LatitudeDegrees>
              <LongitudeDegrees>-1.7904259823262691497802734375</LongitudeDegrees>
            </Position>
            <AltitudeMeters>534.5999755859375</AltitudeMeters>
            <DistanceMeters>11012.145642607</DistanceMeters>
          </Trackpoint>
          <Trackpoint>
            <Time>2021-08-09T08:57:48.000Z</Time>
            <Position>
              <LatitudeDegrees>42.9599606059491634368896484375</LatitudeDegrees>
              <LongitudeDegrees>-1.7904276587069034576416015625</LongitudeDegrees>
            </Position>
            <AltitudeMeters>534.5999755859375</AltitudeMeters>
            <DistanceMeters>11015.340010523</DistanceMeters>
          </Trackpoint>
          <Trackpoint>
            <Time>2021-08-09T08:57:49.000Z</Time>
            <Position>
              <LatitudeDegrees>42.95998952351510524749755859375</LatitudeDegrees>
              <LongitudeDegrees>-1.79043444804847240447998046875</LongitudeDegrees>
            </Position>
            <AltitudeMeters>534.5999755859375</AltitudeMeters>
            <DistanceMeters>11018.604285359</DistanceMeters>
          </Trackpoint>
          <Trackpoint>
            <Time>2021-08-09T08:57:53.000Z</Time>
            <Position>
              <LatitudeDegrees>42.9600997455418109893798828125</LatitudeDegrees>
              <LongitudeDegrees>-1.7904621921479701995849609375</LongitudeDegrees>
            </Position>
            <AltitudeMeters>534.79998779296875</AltitudeMeters>
            <DistanceMeters>11031.078509875</DistanceMeters>
          </Trackpoint>
          <Trackpoint>
            <Time>2021-08-09T08:57:58.000Z</Time>
            <Position>
              <LatitudeDegrees>42.96023209579288959503173828125</LatitudeDegrees>
              <LongitudeDegrees>-1.790521703660488128662109375</LongitudeDegrees>
            </Position>
            <AltitudeMeters>535.4000244140625</AltitudeMeters>
            <DistanceMeters>11046.586799788</DistanceMeters>
          </Trackpoint>
          <Trackpoint>
            <Time>2021-08-09T08:58:01.000Z</Time>
            <Position>
              <LatitudeDegrees>42.9603074491024017333984375</LatitudeDegrees>
              <LongitudeDegrees>-1.790578365325927734375</LongitudeDegrees>
            </Position>
            <AltitudeMeters>536</AltitudeMeters>
            <DistanceMeters>11056.160004363</DistanceMeters>
          </Trackpoint>
          <Trackpoint>
            <Time>2021-08-09T08:58:05.000Z</Time>
            <Position>
              <LatitudeDegrees>42.96040141023695468902587890625</LatitudeDegrees>
              <LongitudeDegrees>-1.790661849081516265869140625</LongitudeDegrees>
            </Position>
            <AltitudeMeters>536.5999755859375</AltitudeMeters>
            <DistanceMeters>11068.634590823</DistanceMeters>
          </Trackpoint>
          <Trackpoint>
            <Time>2021-08-09T08:58:06.000Z</Time>
            <Position>
              <LatitudeDegrees>42.960425801575183868408203125</LatitudeDegrees>
              <LongitudeDegrees>-1.7906816303730010986328125</LongitudeDegrees>
            </Position>
            <AltitudeMeters>536.79998779296875</AltitudeMeters>
            <DistanceMeters>11071.791995516</DistanceMeters>
          </Trackpoint>
          <Trackpoint>
            <Time>2021-08-09T08:58:07.000Z</Time>
            <Position>
              <LatitudeDegrees>42.9604504443705081939697265625</LatitudeDegrees>
              <LongitudeDegrees>-1.7907015793025493621826171875</LongitudeDegrees>
            </Position>
            <AltitudeMeters>536.79998779296875</AltitudeMeters>
            <DistanceMeters>11074.980704671</DistanceMeters>
          </Trackpoint>
          <Trackpoint>
            <Time>2021-08-09T08:58:08.000Z</Time>
            <Position>
              <LatitudeDegrees>42.96047315932810306549072265625</LatitudeDegrees>
              <LongitudeDegrees>-1.79072253406047821044921875</LongitudeDegrees>
            </Position>
            <AltitudeMeters>537</AltitudeMeters>
            <DistanceMeters>11078.030455273</DistanceMeters>
          </Trackpoint>
          <Trackpoint>
            <Time>2021-08-09T08:58:09.000Z</Time>
            <Position>
              <LatitudeDegrees>42.96049612574279308319091796875</LatitudeDegrees>
              <LongitudeDegrees>-1.7907411418855190277099609375</LongitudeDegrees>
            </Position>
            <AltitudeMeters>537</AltitudeMeters>
            <DistanceMeters>11081.002224908</DistanceMeters>
          </Trackpoint>
          <Trackpoint>
            <Time>2021-08-09T08:58:10.000Z</Time>
            <Position>
              <LatitudeDegrees>42.960518337786197662353515625</LatitudeDegrees>
              <LongitudeDegrees>-1.79075966589152812957763671875</LongitudeDegrees>
            </Position>
            <AltitudeMeters>537.4000244140625</AltitudeMeters>
            <DistanceMeters>11083.898591773</DistanceMeters>
          </Trackpoint>
          <Trackpoint>
            <Time>2021-08-09T08:58:11.000Z</Time>
            <Position>
              <LatitudeDegrees>42.96054138801991939544677734375</LatitudeDegrees>
              <LongitudeDegrees>-1.79078011773526668548583984375</LongitudeDegrees>
            </Position>
            <AltitudeMeters>537.4000244140625</AltitudeMeters>
            <DistanceMeters>11086.957212246</DistanceMeters>
          </Trackpoint>
          <Trackpoint>
            <Time>2021-08-09T08:58:12.000Z</Time>
            <Position>
              <LatitudeDegrees>42.96056485734879970550537109375</LatitudeDegrees>
              <LongitudeDegrees>-1.79079922847449779510498046875</LongitudeDegrees>
            </Position>
            <AltitudeMeters>537.5999755859375</AltitudeMeters>
            <DistanceMeters>11089.998067106</DistanceMeters>
          </Trackpoint>
          <Trackpoint>
            <Time>2021-08-09T08:58:13.000Z</Time>
            <Position>
              <LatitudeDegrees>42.9605892486870288848876953125</LatitudeDegrees>
              <LongitudeDegrees>-1.79081800393760204315185546875</LongitudeDegrees>
            </Position>
            <AltitudeMeters>537.79998779296875</AltitudeMeters>
            <DistanceMeters>11093.115175101</DistanceMeters>
          </Trackpoint>
          <Trackpoint>
            <Time>2021-08-09T08:58:14.000Z</Time>
            <Position>
              <LatitudeDegrees>42.96061548404395580291748046875</LatitudeDegrees>
              <LongitudeDegrees>-1.79083795286715030670166015625</LongitudeDegrees>
            </Position>
            <AltitudeMeters>537.79998779296875</AltitudeMeters>
            <DistanceMeters>11096.4560095</DistanceMeters>
          </Trackpoint>
          <Trackpoint>
            <Time>2021-08-09T08:58:15.000Z</Time>
            <Position>
              <LatitudeDegrees>42.9606405459344387054443359375</LatitudeDegrees>
              <LongitudeDegrees>-1.7908594943583011627197265625</LongitudeDegrees>
            </Position>
            <AltitudeMeters>538</AltitudeMeters>
            <DistanceMeters>11099.753313253</DistanceMeters>
          </Trackpoint>
          <Trackpoint>
            <Time>2021-08-09T08:58:16.000Z</Time>
            <Position>
              <LatitudeDegrees>42.96066510491073131561279296875</LatitudeDegrees>
              <LongitudeDegrees>-1.7908799462020397186279296875</LongitudeDegrees>
            </Position>
            <AltitudeMeters>538</AltitudeMeters>
            <DistanceMeters>11102.953329923</DistanceMeters>
          </Trackpoint>
          <Trackpoint>
            <Time>2021-08-09T08:58:17.000Z</Time>
            <Position>
              <LatitudeDegrees>42.96069075353443622589111328125</LatitudeDegrees>
              <LongitudeDegrees>-1.79090165533125400543212890625</LongitudeDegrees>
            </Position>
            <AltitudeMeters>538.20001220703125</AltitudeMeters>
            <DistanceMeters>11106.313031629</DistanceMeters>
          </Trackpoint>
          <Trackpoint>
            <Time>2021-08-09T08:58:18.000Z</Time>
            <Position>
              <LatitudeDegrees>42.9607193358242511749267578125</LatitudeDegrees>
              <LongitudeDegrees>-1.79092344827950000762939453125</LongitudeDegrees>
            </Position>
            <AltitudeMeters>538.20001220703125</AltitudeMeters>
            <DistanceMeters>11109.956410881</DistanceMeters>
          </Trackpoint>
          <Trackpoint>
            <Time>2021-08-09T08:58:19.000Z</Time>
            <Position>
              <LatitudeDegrees>42.96074674464762210845947265625</LatitudeDegrees>
              <LongitudeDegrees>-1.79094423539936542510986328125</LongitudeDegrees>
            </Position>
            <AltitudeMeters>538.4000244140625</AltitudeMeters>
            <DistanceMeters>11113.446621924</DistanceMeters>
          </Trackpoint>
          <Trackpoint>
            <Time>2021-08-09T08:58:20.000Z</Time>
            <Position>
              <LatitudeDegrees>42.96077624894678592681884765625</LatitudeDegrees>
              <LongitudeDegrees>-1.79096418432891368865966796875</LongitudeDegrees>
            </Position>
            <AltitudeMeters>538.5999755859375</AltitudeMeters>
            <DistanceMeters>11117.111007776</DistanceMeters>
          </Trackpoint>
          <Trackpoint>
            <Time>2021-08-09T08:58:21.000Z</Time>
            <Position>
              <LatitudeDegrees>42.9608044959604740142822265625</LatitudeDegrees>
              <LongitudeDegrees>-1.79098178632557392120361328125</LongitudeDegrees>
            </Position>
            <AltitudeMeters>538.5999755859375</AltitudeMeters>
            <DistanceMeters>11120.566114295</DistanceMeters>
          </Trackpoint>
          <Trackpoint>
            <Time>2021-08-09T08:58:22.000Z</Time>
            <Position>
              <LatitudeDegrees>42.96083190478384494781494140625</LatitudeDegrees>
              <LongitudeDegrees>-1.790997125208377838134765625</LongitudeDegrees>
            </Position>
            <AltitudeMeters>538.79998779296875</AltitudeMeters>
            <DistanceMeters>11123.863418048</DistanceMeters>
          </Trackpoint>
          <Trackpoint>
            <Time>2021-08-09T08:58:23.000Z</Time>
            <Position>
              <LatitudeDegrees>42.960864007472991943359375</LatitudeDegrees>
              <LongitudeDegrees>-1.7910133861005306243896484375</LongitudeDegrees>
            </Position>
            <AltitudeMeters>538.79998779296875</AltitudeMeters>
            <DistanceMeters>11127.673977445</DistanceMeters>
          </Trackpoint>
          <Trackpoint>
            <Time>2021-08-09T08:58:24.000Z</Time>
            <Position>
              <LatitudeDegrees>42.9608930088579654693603515625</LatitudeDegrees>
              <LongitudeDegrees>-1.79102721624076366424560546875</LongitudeDegrees>
            </Position>
            <AltitudeMeters>539</AltitudeMeters>
            <DistanceMeters>11131.092298512</DistanceMeters>
          </Trackpoint>
          <Trackpoint>
            <Time>2021-08-09T08:58:25.000Z</Time>
            <Position>
              <LatitudeDegrees>42.960922010242938995361328125</LatitudeDegrees>
              <LongitudeDegrees>-1.79103995673358440399169921875</LongitudeDegrees>
            </Position>
            <AltitudeMeters>539</AltitudeMeters>
            <DistanceMeters>11134.484100009</DistanceMeters>
          </Trackpoint>
          <Trackpoint>
            <Time>2021-08-09T08:58:26.000Z</Time>
            <Position>
              <LatitudeDegrees>42.96095126308500766754150390625</LatitudeDegrees>
              <LongitudeDegrees>-1.791058145463466644287109375</LongitudeDegrees>
            </Position>
            <AltitudeMeters>539.20001220703125</AltitudeMeters>
            <DistanceMeters>11138.059933932</DistanceMeters>
          </Trackpoint>
          <Trackpoint>
            <Time>2021-08-09T08:58:27.000Z</Time>
            <Position>
              <LatitudeDegrees>42.9609811864793300628662109375</LatitudeDegrees>
              <LongitudeDegrees>-1.79107231087982654571533203125</LongitudeDegrees>
            </Position>
            <AltitudeMeters>539.4000244140625</AltitudeMeters>
            <DistanceMeters>11141.582337235</DistanceMeters>
          </Trackpoint>
          <Trackpoint>
            <Time>2021-08-09T08:58:28.000Z</Time>
            <Position>
              <LatitudeDegrees>42.96100976876914501190185546875</LatitudeDegrees>
              <LongitudeDegrees>-1.79108421318233013153076171875</LongitudeDegrees>
            </Position>
            <AltitudeMeters>539.5999755859375</AltitudeMeters>
            <DistanceMeters>11144.906914437</DistanceMeters>
          </Trackpoint>
          <Trackpoint>
            <Time>2021-08-09T08:58:29.000Z</Time>
            <Position>
              <LatitudeDegrees>42.9610388539731502532958984375</LatitudeDegrees>
              <LongitudeDegrees>-1.79109846241772174835205078125</LongitudeDegrees>
            </Position>
            <AltitudeMeters>539.79998779296875</AltitudeMeters>
            <DistanceMeters>11148.344990943</DistanceMeters>
          </Trackpoint>
          <Trackpoint>
            <Time>2021-08-09T08:58:30.000Z</Time>
            <Position>
              <LatitudeDegrees>42.96106760390102863311767578125</LatitudeDegrees>
              <LongitudeDegrees>-1.79111254401504993438720703125</LongitudeDegrees>
            </Position>
            <AltitudeMeters>539.79998779296875</AltitudeMeters>
            <DistanceMeters>11151.744770031</DistanceMeters>
          </Trackpoint>
          <Trackpoint>
            <Time>2021-08-09T08:58:31.000Z</Time>
            <Position>
              <LatitudeDegrees>42.9610955156385898590087890625</LatitudeDegrees>
              <LongitudeDegrees>-1.79112863726913928985595703125</LongitudeDegrees>
            </Position>
            <AltitudeMeters>540</AltitudeMeters>
            <DistanceMeters>11155.116544971</DistanceMeters>
          </Trackpoint>
          <Trackpoint>
            <Time>2021-08-09T08:58:32.000Z</Time>
            <Position>
              <LatitudeDegrees>42.96112543903291225433349609375</LatitudeDegrees>
              <LongitudeDegrees>-1.79114364087581634521484375</LongitudeDegrees>
            </Position>
            <AltitudeMeters>540.20001220703125</AltitudeMeters>
            <DistanceMeters>11158.66449178</DistanceMeters>
          </Trackpoint>
          <Trackpoint>
            <Time>2021-08-09T08:58:33.000Z</Time>
            <Position>
              <LatitudeDegrees>42.9611551947891712188720703125</LatitudeDegrees>
              <LongitudeDegrees>-1.79115914739668369293212890625</LongitudeDegrees>
            </Position>
            <AltitudeMeters>540.20001220703125</AltitudeMeters>
            <DistanceMeters>11162.209892521</DistanceMeters>
          </Trackpoint>
          <Trackpoint>
            <Time>2021-08-09T08:58:34.000Z</Time>
            <Position>
              <LatitudeDegrees>42.961186878383159637451171875</LatitudeDegrees>
              <LongitudeDegrees>-1.7911743186414241790771484375</LongitudeDegrees>
            </Position>
            <AltitudeMeters>540.4000244140625</AltitudeMeters>
            <DistanceMeters>11165.946267526</DistanceMeters>
          </Trackpoint>
          <Trackpoint>
            <Time>2021-08-09T08:58:35.000Z</Time>
            <Position>
              <LatitudeDegrees>42.96121738851070404052734375</LatitudeDegrees>
              <LongitudeDegrees>-1.7911907471716403961181640625</LongitudeDegrees>
            </Position>
            <AltitudeMeters>540.5999755859375</AltitudeMeters>
            <DistanceMeters>11169.597074674</DistanceMeters>
          </Trackpoint>
          <Trackpoint>
            <Time>2021-08-09T08:58:36.000Z</Time>
            <Position>
              <LatitudeDegrees>42.9612467251718044281005859375</LatitudeDegrees>
              <LongitudeDegrees>-1.79120558314025402069091796875</LongitudeDegrees>
            </Position>
            <AltitudeMeters>540.79998779296875</AltitudeMeters>
            <DistanceMeters>11173.079515293</DistanceMeters>
          </Trackpoint>
          <Trackpoint>
            <Time>2021-08-09T08:58:37.000Z</Time>
            <Position>
              <LatitudeDegrees>42.96127413399517536163330078125</LatitudeDegrees>
              <LongitudeDegrees>-1.791223101317882537841796875</LongitudeDegrees>
            </Position>
            <AltitudeMeters>540.79998779296875</AltitudeMeters>
            <DistanceMeters>11176.447270631</DistanceMeters>
          </Trackpoint>
          <Trackpoint>
            <Time>2021-08-09T08:58:38.000Z</Time>
            <Position>
              <LatitudeDegrees>42.96130313538014888763427734375</LatitudeDegrees>
              <LongitudeDegrees>-1.79124212823808193206787109375</LongitudeDegrees>
            </Position>
            <AltitudeMeters>541</AltitudeMeters>
            <DistanceMeters>11180.028151605</DistanceMeters>
          </Trackpoint>
          <Trackpoint>
            <Time>2021-08-09T08:58:39.000Z</Time>
            <Position>
              <LatitudeDegrees>42.9613315500319004058837890625</LatitudeDegrees>
              <LongitudeDegrees>-1.79125704802572727203369140625</LongitudeDegrees>
            </Position>
            <AltitudeMeters>541.20001220703125</AltitudeMeters>
            <DistanceMeters>11183.414624266</DistanceMeters>
          </Trackpoint>
          <Trackpoint>
            <Time>2021-08-09T08:58:40.000Z</Time>
            <Position>
              <LatitudeDegrees>42.961360551416873931884765625</LatitudeDegrees>
              <LongitudeDegrees>-1.7912708781659603118896484375</LongitudeDegrees>
            </Position>
            <AltitudeMeters>541.20001220703125</AltitudeMeters>
            <DistanceMeters>11186.832945333</DistanceMeters>
          </Trackpoint>
          <Trackpoint>
            <Time>2021-08-09T08:58:41.000Z</Time>
            <Position>
              <LatitudeDegrees>42.96138997189700603485107421875</LatitudeDegrees>
              <LongitudeDegrees>-1.79128848016262054443359375</LongitudeDegrees>
            </Position>
            <AltitudeMeters>541.20001220703125</AltitudeMeters>
            <DistanceMeters>11190.408779256</DistanceMeters>
          </Trackpoint>
          <Trackpoint>
            <Time>2021-08-09T08:58:42.000Z</Time>
            <Position>
              <LatitudeDegrees>42.96141511760652065277099609375</LatitudeDegrees>
              <LongitudeDegrees>-1.7913087643682956695556640625</LongitudeDegrees>
            </Position>
            <AltitudeMeters>541.4000244140625</AltitudeMeters>
            <DistanceMeters>11193.65919299</DistanceMeters>
          </Trackpoint>
          <Trackpoint>
            <Time>2021-08-09T08:58:43.000Z</Time>
            <Position>
              <LatitudeDegrees>42.96144068241119384765625</LatitudeDegrees>
              <LongitudeDegrees>-1.79132695309817790985107421875</LongitudeDegrees>
            </Position>
            <AltitudeMeters>541.4000244140625</AltitudeMeters>
            <DistanceMeters>11196.867664144</DistanceMeters>
          </Trackpoint>
          <Trackpoint>
            <Time>2021-08-09T08:58:44.000Z</Time>
            <Position>
              <LatitudeDegrees>42.96146742068231105804443359375</LatitudeDegrees>
              <LongitudeDegrees>-1.79134740494191646575927734375</LongitudeDegrees>
            </Position>
            <AltitudeMeters>541.5999755859375</AltitudeMeters>
            <DistanceMeters>11200.278050993</DistanceMeters>
          </Trackpoint>
          <Trackpoint>
            <Time>2021-08-09T08:58:45.000Z</Time>
            <Position>
              <LatitudeDegrees>42.961493320763111114501953125</LatitudeDegrees>
              <LongitudeDegrees>-1.7913731373846530914306640625</LongitudeDegrees>
            </Position>
            <AltitudeMeters>541.5999755859375</AltitudeMeters>
            <DistanceMeters>11203.841236012</DistanceMeters>
          </Trackpoint>
          <Trackpoint>
            <Time>2021-08-09T08:58:46.000Z</Time>
            <Position>
              <LatitudeDegrees>42.96151938848197460174560546875</LatitudeDegrees>
              <LongitudeDegrees>-1.79140088148415088653564453125</LongitudeDegrees>
            </Position>
            <AltitudeMeters>541.79998779296875</AltitudeMeters>
            <DistanceMeters>11207.519150436</DistanceMeters>
          </Trackpoint>
          <Trackpoint>
            <Time>2021-08-09T08:58:47.000Z</Time>
            <Position>
              <LatitudeDegrees>42.961545288562774658203125</LatitudeDegrees>
              <LongitudeDegrees>-1.79143021814525127410888671875</LongitudeDegrees>
            </Position>
            <AltitudeMeters>541.79998779296875</AltitudeMeters>
            <DistanceMeters>11211.262768825</DistanceMeters>
          </Trackpoint>
          <Trackpoint>
            <Time>2021-08-09T08:58:48.000Z</Time>
            <Position>
              <LatitudeDegrees>42.96156783588230609893798828125</LatitudeDegrees>
              <LongitudeDegrees>-1.79146106354892253875732421875</LongitudeDegrees>
            </Position>
            <AltitudeMeters>542</AltitudeMeters>
            <DistanceMeters>11214.813259878</DistanceMeters>
          </Trackpoint>
          <Trackpoint>
            <Time>2021-08-09T08:58:49.000Z</Time>
            <Position>
              <LatitudeDegrees>42.96158912591636180877685546875</LatitudeDegrees>
              <LongitudeDegrees>-1.79149291478097438812255859375</LongitudeDegrees>
            </Position>
            <AltitudeMeters>542</AltitudeMeters>
            <DistanceMeters>11218.326679081</DistanceMeters>
          </Trackpoint>
          <Trackpoint>
            <Time>2021-08-09T08:58:50.000Z</Time>
            <Position>
              <LatitudeDegrees>42.96161158941686153411865234375</LatitudeDegrees>
              <LongitudeDegrees>-1.79152543656527996063232421875</LongitudeDegrees>
            </Position>
            <AltitudeMeters>542</AltitudeMeters>
            <DistanceMeters>11221.970058333</DistanceMeters>
          </Trackpoint>
          <Trackpoint>
            <Time>2021-08-09T08:58:51.000Z</Time>
            <Position>
              <LatitudeDegrees>42.96163489110767841339111328125</LatitudeDegrees>
              <LongitudeDegrees>-1.791556365787982940673828125</LongitudeDegrees>
            </Position>
            <AltitudeMeters>542.20001220703125</AltitudeMeters>
            <DistanceMeters>11225.586071426</DistanceMeters>
          </Trackpoint>
          <Trackpoint>
            <Time>2021-08-09T08:58:52.000Z</Time>
            <Position>
              <LatitudeDegrees>42.96165500767529010772705078125</LatitudeDegrees>
              <LongitudeDegrees>-1.79158612154424190521240234375</LongitudeDegrees>
            </Position>
            <AltitudeMeters>542.20001220703125</AltitudeMeters>
            <DistanceMeters>11228.886112667</DistanceMeters>
          </Trackpoint>
          <Trackpoint>
            <Time>2021-08-09T08:58:53.000Z</Time>
            <Position>
              <LatitudeDegrees>42.96167596243321895599365234375</LatitudeDegrees>
              <LongitudeDegrees>-1.7916155420243740081787109375</LongitudeDegrees>
            </Position>
            <AltitudeMeters>542.4000244140625</AltitudeMeters>
            <DistanceMeters>11232.23099902</DistanceMeters>
          </Trackpoint>
          <Trackpoint>
            <Time>2021-08-09T08:58:54.000Z</Time>
            <Position>
              <LatitudeDegrees>42.96170060522854328155517578125</LatitudeDegrees>
              <LongitudeDegrees>-1.79164630360901355743408203125</LongitudeDegrees>
            </Position>
            <AltitudeMeters>542.4000244140625</AltitudeMeters>
            <DistanceMeters>11235.945559129</DistanceMeters>
          </Trackpoint>
          <Trackpoint>
            <Time>2021-08-09T08:58:55.000Z</Time>
            <Position>
              <LatitudeDegrees>42.9617218114435672760009765625</LatitudeDegrees>
              <LongitudeDegrees>-1.79167698137462139129638671875</LongitudeDegrees>
            </Position>
            <AltitudeMeters>542.5999755859375</AltitudeMeters>
            <DistanceMeters>11239.38232214</DistanceMeters>
          </Trackpoint>
          <Trackpoint>
            <Time>2021-08-09T08:58:56.000Z</Time>
            <Position>
              <LatitudeDegrees>42.9617429338395595550537109375</LatitudeDegrees>
              <LongitudeDegrees>-1.79170832969248294830322265625</LongitudeDegrees>
            </Position>
            <AltitudeMeters>542.79998779296875</AltitudeMeters>
            <DistanceMeters>11242.853074504</DistanceMeters>
          </Trackpoint>
          <Trackpoint>
            <Time>2021-08-09T08:58:57.000Z</Time>
            <Position>
              <LatitudeDegrees>42.96176430769264698028564453125</LatitudeDegrees>
              <LongitudeDegrees>-1.79173951037228107452392578125</LongitudeDegrees>
            </Position>
            <AltitudeMeters>542.79998779296875</AltitudeMeters>
            <DistanceMeters>11246.331623402</DistanceMeters>
          </Trackpoint>
          <Trackpoint>
            <Time>2021-08-09T08:58:58.000Z</Time>
            <Position>
              <LatitudeDegrees>42.9617851786315441131591796875</LatitudeDegrees>
              <LongitudeDegrees>-1.79177219979465007781982421875</LongitudeDegrees>
            </Position>
            <AltitudeMeters>543</AltitudeMeters>
            <DistanceMeters>11249.864266272</DistanceMeters>
          </Trackpoint>
          <Trackpoint>
            <Time>2021-08-09T08:58:59.000Z</Time>
            <Position>
              <LatitudeDegrees>42.96180470846593379974365234375</LatitudeDegrees>
              <LongitudeDegrees>-1.79180589504539966583251953125</LongitudeDegrees>
            </Position>
            <AltitudeMeters>543.4000244140625</AltitudeMeters>
            <DistanceMeters>11253.363521001</DistanceMeters>
          </Trackpoint>
          <Trackpoint>
            <Time>2021-08-09T08:59:00.000Z</Time>
            <Position>
              <LatitudeDegrees>42.9618220590054988861083984375</LatitudeDegrees>
              <LongitudeDegrees>-1.79184101521968841552734375</LongitudeDegrees>
            </Position>
            <AltitudeMeters>543.5999755859375</AltitudeMeters>
            <DistanceMeters>11256.816012986</DistanceMeters>
          </Trackpoint>
          <Trackpoint>
            <Time>2021-08-09T08:59:01.000Z</Time>
            <Position>
              <LatitudeDegrees>42.96183555386960506439208984375</LatitudeDegrees>
              <LongitudeDegrees>-1.79187898524105548858642578125</LongitudeDegrees>
            </Position>
            <AltitudeMeters>543.79998779296875</AltitudeMeters>
            <DistanceMeters>11260.252775996</DistanceMeters>
          </Trackpoint>
          <Trackpoint>
            <Time>2021-08-09T08:59:02.000Z</Time>
            <Position>
              <LatitudeDegrees>42.96184795908629894256591796875</LatitudeDegrees>
              <LongitudeDegrees>-1.79191821254789829254150390625</LongitudeDegrees>
            </Position>
            <AltitudeMeters>544</AltitudeMeters>
            <DistanceMeters>11263.733919858</DistanceMeters>
          </Trackpoint>
          <Trackpoint>
            <Time>2021-08-09T08:59:03.000Z</Time>
            <Position>
              <LatitudeDegrees>42.9618686623871326446533203125</LatitudeDegrees>
              <LongitudeDegrees>-1.7919545061886310577392578125</LongitudeDegrees>
            </Position>
            <AltitudeMeters>544</AltitudeMeters>
            <DistanceMeters>11267.482359393</DistanceMeters>
          </Trackpoint>
          <Trackpoint>
            <Time>2021-08-09T08:59:04.000Z</Time>
            <Position>
              <LatitudeDegrees>42.96188601292669773101806640625</LatitudeDegrees>
              <LongitudeDegrees>-1.791993565857410430908203125</LongitudeDegrees>
            </Position>
            <AltitudeMeters>544.20001220703125</AltitudeMeters>
            <DistanceMeters>11271.204205341</DistanceMeters>
          </Trackpoint>
          <Trackpoint>
            <Time>2021-08-09T08:59:05.000Z</Time>
            <Position>
              <LatitudeDegrees>42.9619028605520725250244140625</LatitudeDegrees>
              <LongitudeDegrees>-1.7920312844216823577880859375</LongitudeDegrees>
            </Position>
            <AltitudeMeters>544.20001220703125</AltitudeMeters>
            <DistanceMeters>11274.80269525</DistanceMeters>
          </Trackpoint>
          <Trackpoint>
            <Time>2021-08-09T08:59:06.000Z</Time>
            <Position>
              <LatitudeDegrees>42.96192155219614505767822265625</LatitudeDegrees>
              <LongitudeDegrees>-1.7920671589672565460205078125</LongitudeDegrees>
            </Position>
            <AltitudeMeters>544.4000244140625</AltitudeMeters>
            <DistanceMeters>11278.391133491</DistanceMeters>
          </Trackpoint>
          <Trackpoint>
            <Time>2021-08-09T08:59:07.000Z</Time>
            <Position>
              <LatitudeDegrees>42.961937896907329559326171875</LatitudeDegrees>
              <LongitudeDegrees>-1.79210378788411617279052734375</LongitudeDegrees>
            </Position>
            <AltitudeMeters>544.5999755859375</AltitudeMeters>
            <DistanceMeters>11281.886515219</DistanceMeters>
          </Trackpoint>
          <Trackpoint>
            <Time>2021-08-09T08:59:08.000Z</Time>
            <Position>
              <LatitudeDegrees>42.96195373870432376861572265625</LatitudeDegrees>
              <LongitudeDegrees>-1.79213832132518291473388671875</LongitudeDegrees>
            </Position>
            <AltitudeMeters>544.5999755859375</AltitudeMeters>
            <DistanceMeters>11285.20565566</DistanceMeters>
          </Trackpoint>
          <Trackpoint>
            <Time>2021-08-09T08:59:09.000Z</Time>
            <Position>
              <LatitudeDegrees>42.96197117306292057037353515625</LatitudeDegrees>
              <LongitudeDegrees>-1.7921690829098224639892578125</LongitudeDegrees>
            </Position>
            <AltitudeMeters>544.79998779296875</AltitudeMeters>
            <DistanceMeters>11288.374479575</DistanceMeters>
          </Trackpoint>
          <Trackpoint>
            <Time>2021-08-09T08:59:10.000Z</Time>
            <Position>
              <LatitudeDegrees>42.96198986470699310302734375</LatitudeDegrees>
              <LongitudeDegrees>-1.79220152087509632110595703125</LongitudeDegrees>
            </Position>
            <AltitudeMeters>544.79998779296875</AltitudeMeters>
            <DistanceMeters>11291.736867968</DistanceMeters>
          </Trackpoint>
          <Trackpoint>
            <Time>2021-08-09T08:59:11.000Z</Time>
            <Position>
              <LatitudeDegrees>42.96200729906558990478515625</LatitudeDegrees>
              <LongitudeDegrees>-1.792234964668750762939453125</LongitudeDegrees>
            </Position>
            <AltitudeMeters>545</AltitudeMeters>
            <DistanceMeters>11295.081754321</DistanceMeters>
          </Trackpoint>
          <Trackpoint>
            <Time>2021-08-09T08:59:12.000Z</Time>
            <Position>
              <LatitudeDegrees>42.962024398148059844970703125</LatitudeDegrees>
              <LongitudeDegrees>-1.79226974956691265106201171875</LongitudeDegrees>
            </Position>
            <AltitudeMeters>545</AltitudeMeters>
            <DistanceMeters>11298.494787959</DistanceMeters>
          </Trackpoint>
          <Trackpoint>
            <Time>2021-08-09T08:59:13.000Z</Time>
            <Position>
              <LatitudeDegrees>42.96204308979213237762451171875</LatitudeDegrees>
              <LongitudeDegrees>-1.7923038639128208160400390625</LongitudeDegrees>
            </Position>
            <AltitudeMeters>545.4000244140625</AltitudeMeters>
            <DistanceMeters>11301.966840961</DistanceMeters>
          </Trackpoint>
          <Trackpoint>
            <Time>2021-08-09T08:59:14.000Z</Time>
            <Position>
              <LatitudeDegrees>42.962059266865253448486328125</LatitudeDegrees>
              <LongitudeDegrees>-1.792340576648712158203125</LongitudeDegrees>
            </Position>
            <AltitudeMeters>545.5999755859375</AltitudeMeters>
            <DistanceMeters>11305.458345394</DistanceMeters>
          </Trackpoint>
          <Trackpoint>
            <Time>2021-08-09T08:59:15.000Z</Time>
            <Position>
              <LatitudeDegrees>42.96207577921450138092041015625</LatitudeDegrees>
              <LongitudeDegrees>-1.79237569682300090789794921875</LongitudeDegrees>
            </Position>
            <AltitudeMeters>545.79998779296875</AltitudeMeters>
            <DistanceMeters>11308.858124482</DistanceMeters>
          </Trackpoint>
          <Trackpoint>
            <Time>2021-08-09T08:59:16.000Z</Time>
            <Position>
              <LatitudeDegrees>42.96209338121116161346435546875</LatitudeDegrees>
              <LongitudeDegrees>-1.7924071289598941802978515625</LongitudeDegrees>
            </Position>
            <AltitudeMeters>545.79998779296875</AltitudeMeters>
            <DistanceMeters>11312.080637152</DistanceMeters>
          </Trackpoint>
          <Trackpoint>
            <Time>2021-08-09T08:59:17.000Z</Time>
            <Position>
              <LatitudeDegrees>42.96211098320782184600830078125</LatitudeDegrees>
              <LongitudeDegrees>-1.7924393154680728912353515625</LongitudeDegrees>
            </Position>
            <AltitudeMeters>546</AltitudeMeters>
            <DistanceMeters>11315.353200469</DistanceMeters>
          </Trackpoint>
          <Trackpoint>
            <Time>2021-08-09T08:59:18.000Z</Time>
            <Position>
              <LatitudeDegrees>42.9621315188705921173095703125</LatitudeDegrees>
              <LongitudeDegrees>-1.792470328509807586669921875</LongitudeDegrees>
            </Position>
            <AltitudeMeters>546.20001220703125</AltitudeMeters>
            <DistanceMeters>11318.756961341</DistanceMeters>
          </Trackpoint>
          <Trackpoint>
            <Time>2021-08-09T08:59:19.000Z</Time>
            <Position>
              <LatitudeDegrees>42.9621519707143306732177734375</LatitudeDegrees>
              <LongitudeDegrees>-1.792499832808971405029296875</LongitudeDegrees>
            </Position>
            <AltitudeMeters>546.20001220703125</AltitudeMeters>
            <DistanceMeters>11322.067929901</DistanceMeters>
          </Trackpoint>
          <Trackpoint>
            <Time>2021-08-09T08:59:20.000Z</Time>
            <Position>
              <LatitudeDegrees>42.96217367984354496002197265625</LatitudeDegrees>
              <LongitudeDegrees>-1.79252724163234233856201171875</LongitudeDegrees>
            </Position>
            <AltitudeMeters>546.4000244140625</AltitudeMeters>
            <DistanceMeters>11325.357007519</DistanceMeters>
          </Trackpoint>
          <Trackpoint>
            <Time>2021-08-09T08:59:21.000Z</Time>
            <Position>
              <LatitudeDegrees>42.96219773590564727783203125</LatitudeDegrees>
              <LongitudeDegrees>-1.79255255497992038726806640625</LongitudeDegrees>
            </Position>
            <AltitudeMeters>546.5999755859375</AltitudeMeters>
            <DistanceMeters>11328.738142947</DistanceMeters>
          </Trackpoint>
          <Trackpoint>
            <Time>2021-08-09T08:59:22.000Z</Time>
            <Position>
              <LatitudeDegrees>42.96222397126257419586181640625</LatitudeDegrees>
              <LongitudeDegrees>-1.79257501848042011260986328125</LongitudeDegrees>
            </Position>
            <AltitudeMeters>546.5999755859375</AltitudeMeters>
            <DistanceMeters>11332.185399914</DistanceMeters>
          </Trackpoint>
          <Trackpoint>
            <Time>2021-08-09T08:59:23.000Z</Time>
            <Position>
              <LatitudeDegrees>42.9622525535523891448974609375</LatitudeDegrees>
              <LongitudeDegrees>-1.79258625023066997528076171875</LongitudeDegrees>
            </Position>
            <AltitudeMeters>546.79998779296875</AltitudeMeters>
            <DistanceMeters>11335.496368474</DistanceMeters>
          </Trackpoint>
          <Trackpoint>
            <Time>2021-08-09T08:59:24.000Z</Time>
            <Position>
              <LatitudeDegrees>42.962281219661235809326171875</LatitudeDegrees>
              <LongitudeDegrees>-1.79259144701063632965087890625</LongitudeDegrees>
            </Position>
            <AltitudeMeters>546.79998779296875</AltitudeMeters>
            <DistanceMeters>11338.71607774</DistanceMeters>
          </Trackpoint>
          <Trackpoint>
            <Time>2021-08-09T08:59:25.000Z</Time>
            <Position>
              <LatitudeDegrees>42.9623092152178287506103515625</LatitudeDegrees>
              <LongitudeDegrees>-1.79258876480162143707275390625</LongitudeDegrees>
            </Position>
            <AltitudeMeters>547</AltitudeMeters>
            <DistanceMeters>11341.838974242</DistanceMeters>
          </Trackpoint>
          <Trackpoint>
            <Time>2021-08-09T08:59:26.000Z</Time>
            <Position>
              <LatitudeDegrees>42.96233679167926311492919921875</LatitudeDegrees>
              <LongitudeDegrees>-1.7925774492323398590087890625</LongitudeDegrees>
            </Position>
            <AltitudeMeters>547</AltitudeMeters>
            <DistanceMeters>11345.043220942</DistanceMeters>
          </Trackpoint>
          <Trackpoint>
            <Time>2021-08-09T08:59:27.000Z</Time>
            <Position>
              <LatitudeDegrees>42.96236336231231689453125</LatitudeDegrees>
              <LongitudeDegrees>-1.79256043396890163421630859375</LongitudeDegrees>
            </Position>
            <AltitudeMeters>547</AltitudeMeters>
            <DistanceMeters>11348.310260941</DistanceMeters>
          </Trackpoint>
          <Trackpoint>
            <Time>2021-08-09T08:59:28.000Z</Time>
            <Position>
              <LatitudeDegrees>42.96238792128860950469970703125</LatitudeDegrees>
              <LongitudeDegrees>-1.79253947921097278594970703125</LongitudeDegrees>
            </Position>
            <AltitudeMeters>547.20001220703125</AltitudeMeters>
            <DistanceMeters>11351.532773612</DistanceMeters>
          </Trackpoint>
          <Trackpoint>
            <Time>2021-08-09T08:59:29.000Z</Time>
            <Position>
              <LatitudeDegrees>42.96240904368460178375244140625</LatitudeDegrees>
              <LongitudeDegrees>-1.79251651279628276824951171875</LongitudeDegrees>
            </Position>
            <AltitudeMeters>547.20001220703125</AltitudeMeters>
            <DistanceMeters>11354.537782171</DistanceMeters>
          </Trackpoint>
          <Trackpoint>
            <Time>2021-08-09T08:59:30.000Z</Time>
            <Position>
              <LatitudeDegrees>42.96242698095738887786865234375</LatitudeDegrees>
              <LongitudeDegrees>-1.79248767904937267303466796875</LongitudeDegrees>
            </Position>
            <AltitudeMeters>547.20001220703125</AltitudeMeters>
            <DistanceMeters>11357.621395392</DistanceMeters>
          </Trackpoint>
          <Trackpoint>
            <Time>2021-08-09T08:59:31.000Z</Time>
            <Position>
              <LatitudeDegrees>42.9624419845640659332275390625</LatitudeDegrees>
              <LongitudeDegrees>-1.7924567498266696929931640625</LongitudeDegrees>
            </Position>
            <AltitudeMeters>547.4000244140625</AltitudeMeters>
            <DistanceMeters>11360.645873436</DistanceMeters>
          </Trackpoint>
          <Trackpoint>
            <Time>2021-08-09T08:59:32.000Z</Time>
            <Position>
              <LatitudeDegrees>42.96245388686656951904296875</LatitudeDegrees>
              <LongitudeDegrees>-1.79242749698460102081298828125</LongitudeDegrees>
            </Position>
            <AltitudeMeters>547.4000244140625</AltitudeMeters>
            <DistanceMeters>11363.373653301</DistanceMeters>
          </Trackpoint>
          <Trackpoint>
            <Time>2021-08-09T08:59:33.000Z</Time>
            <Position>
              <LatitudeDegrees>42.96246863901615142822265625</LatitudeDegrees>
              <LongitudeDegrees>-1.792401932179927825927734375</LongitudeDegrees>
            </Position>
            <AltitudeMeters>547.5999755859375</AltitudeMeters>
            <DistanceMeters>11366.024200315</DistanceMeters>
          </Trackpoint>
          <Trackpoint>
            <Time>2021-08-09T08:59:34.000Z</Time>
            <Position>
              <LatitudeDegrees>42.96248531900346279144287109375</LatitudeDegrees>
              <LongitudeDegrees>-1.7923746071755886077880859375</LongitudeDegrees>
            </Position>
            <AltitudeMeters>548</AltitudeMeters>
            <DistanceMeters>11368.922125623</DistanceMeters>
          </Trackpoint>
          <Trackpoint>
            <Time>2021-08-09T08:59:35.000Z</Time>
            <Position>
              <LatitudeDegrees>42.96249814331531524658203125</LatitudeDegrees>
              <LongitudeDegrees>-1.79234585724771022796630859375</LongitudeDegrees>
            </Position>
            <AltitudeMeters>548</AltitudeMeters>
            <DistanceMeters>11371.663115152</DistanceMeters>
          </Trackpoint>
          <Trackpoint>
            <Time>2021-08-09T08:59:36.000Z</Time>
            <Position>
              <LatitudeDegrees>42.9625097103416919708251953125</LatitudeDegrees>
              <LongitudeDegrees>-1.79231467656791210174560546875</LongitudeDegrees>
            </Position>
            <AltitudeMeters>548.20001220703125</AltitudeMeters>
            <DistanceMeters>11374.510747265</DistanceMeters>
          </Trackpoint>
          <Trackpoint>
            <Time>2021-08-09T08:59:37.000Z</Time>
            <Position>
              <LatitudeDegrees>42.96252136118710041046142578125</LatitudeDegrees>
              <LongitudeDegrees>-1.7922834120690822601318359375</LongitudeDegrees>
            </Position>
            <AltitudeMeters>548.5999755859375</AltitudeMeters>
            <DistanceMeters>11377.369456621</DistanceMeters>
          </Trackpoint>
          <Trackpoint>
            <Time>2021-08-09T08:59:38.000Z</Time>
            <Position>
              <LatitudeDegrees>42.96253343112766742706298828125</LatitudeDegrees>
              <LongitudeDegrees>-1.79225197993218898773193359375</LongitudeDegrees>
            </Position>
            <AltitudeMeters>548.79998779296875</AltitudeMeters>
            <DistanceMeters>11380.261143116</DistanceMeters>
          </Trackpoint>
          <Trackpoint>
            <Time>2021-08-09T08:59:39.000Z</Time>
            <Position>
              <LatitudeDegrees>42.9625439085066318511962890625</LatitudeDegrees>
              <LongitudeDegrees>-1.792222224175930023193359375</LongitudeDegrees>
            </Position>
            <AltitudeMeters>549</AltitudeMeters>
            <DistanceMeters>11382.952262085</DistanceMeters>
          </Trackpoint>
          <Trackpoint>
            <Time>2021-08-09T08:59:40.000Z</Time>
            <Position>
              <LatitudeDegrees>42.9625576548278331756591796875</LatitudeDegrees>
              <LongitudeDegrees>-1.792191378772258758544921875</LongitudeDegrees>
            </Position>
            <AltitudeMeters>549.20001220703125</AltitudeMeters>
            <DistanceMeters>11385.89348857</DistanceMeters>
          </Trackpoint>
          <Trackpoint>
            <Time>2021-08-09T08:59:41.000Z</Time>
            <Position>
              <LatitudeDegrees>42.9625724069774150848388671875</LatitudeDegrees>
              <LongitudeDegrees>-1.7921622097492218017578125</LongitudeDegrees>
            </Position>
            <AltitudeMeters>549.20001220703125</AltitudeMeters>
            <DistanceMeters>11388.780487108</DistanceMeters>
          </Trackpoint>
          <Trackpoint>
            <Time>2021-08-09T08:59:42.000Z</Time>
            <Position>
              <LatitudeDegrees>42.962586320936679840087890625</LatitudeDegrees>
              <LongitudeDegrees>-1.79213471710681915283203125</LongitudeDegrees>
            </Position>
            <AltitudeMeters>549.5999755859375</AltitudeMeters>
            <DistanceMeters>11391.501638093</DistanceMeters>
          </Trackpoint>
          <Trackpoint>
            <Time>2021-08-09T08:59:43.000Z</Time>
            <Position>
              <LatitudeDegrees>42.9625995643436908721923828125</LatitudeDegrees>
              <LongitudeDegrees>-1.79210579954087734222412109375</LongitudeDegrees>
            </Position>
            <AltitudeMeters>549.79998779296875</AltitudeMeters>
            <DistanceMeters>11394.278630222</DistanceMeters>
          </Trackpoint>
          <Trackpoint>
            <Time>2021-08-09T08:59:44.000Z</Time>
            <Position>
              <LatitudeDegrees>42.96261155046522617340087890625</LatitudeDegrees>
              <LongitudeDegrees>-1.7920728586614131927490234375</LongitudeDegrees>
            </Position>
            <AltitudeMeters>550</AltitudeMeters>
            <DistanceMeters>11397.274610193</DistanceMeters>
          </Trackpoint>
          <Trackpoint>
            <Time>2021-08-09T08:59:45.000Z</Time>
            <Position>
              <LatitudeDegrees>42.96262345276772975921630859375</LatitudeDegrees>
              <LongitudeDegrees>-1.7920393310487270355224609375</LongitudeDegrees>
            </Position>
            <AltitudeMeters>550</AltitudeMeters>
            <DistanceMeters>11400.309520071</DistanceMeters>
          </Trackpoint>
          <Trackpoint>
            <Time>2021-08-09T08:59:46.000Z</Time>
            <Position>
              <LatitudeDegrees>42.96263686381280422210693359375</LatitudeDegrees>
              <LongitudeDegrees>-1.792007647454738616943359375</LongitudeDegrees>
            </Position>
            <AltitudeMeters>550.20001220703125</AltitudeMeters>
            <DistanceMeters>11403.28887657</DistanceMeters>
          </Trackpoint>
          <Trackpoint>
            <Time>2021-08-09T08:59:47.000Z</Time>
            <Position>
              <LatitudeDegrees>42.9626525379717350006103515625</LatitudeDegrees>
              <LongitudeDegrees>-1.791980154812335968017578125</LongitudeDegrees>
            </Position>
            <AltitudeMeters>550.4000244140625</AltitudeMeters>
            <DistanceMeters>11406.12697949</DistanceMeters>
          </Trackpoint>
          <Trackpoint>
            <Time>2021-08-09T08:59:48.000Z</Time>
            <Position>
              <LatitudeDegrees>42.96267089433968067169189453125</LatitudeDegrees>
              <LongitudeDegrees>-1.7919511534273624420166015625</LongitudeDegrees>
            </Position>
            <AltitudeMeters>550.5999755859375</AltitudeMeters>
            <DistanceMeters>11409.249875992</DistanceMeters>
          </Trackpoint>
          <Trackpoint>
            <Time>2021-08-09T08:59:49.000Z</Time>
            <Position>
              <LatitudeDegrees>42.9626887477934360504150390625</LatitudeDegrees>
              <LongitudeDegrees>-1.79191838018596172332763671875</LongitudeDegrees>
            </Position>
            <AltitudeMeters>550.79998779296875</AltitudeMeters>
            <DistanceMeters>11412.577168243</DistanceMeters>
          </Trackpoint>
          <Trackpoint>
            <Time>2021-08-09T08:59:50.000Z</Time>
            <Position>
              <LatitudeDegrees>42.962703667581081390380859375</LatitudeDegrees>
              <LongitudeDegrees>-1.79188636131584644317626953125</LongitudeDegrees>
            </Position>
            <AltitudeMeters>551</AltitudeMeters>
            <DistanceMeters>11415.668093812</DistanceMeters>
          </Trackpoint>
          <Trackpoint>
            <Time>2021-08-09T08:59:51.000Z</Time>
            <Position>
              <LatitudeDegrees>42.96271900646388530731201171875</LatitudeDegrees>
              <LongitudeDegrees>-1.791856773197650909423828125</LongitudeDegrees>
            </Position>
            <AltitudeMeters>551.20001220703125</AltitudeMeters>
            <DistanceMeters>11418.62157546</DistanceMeters>
          </Trackpoint>
          <Trackpoint>
            <Time>2021-08-09T08:59:52.000Z</Time>
            <Position>
              <LatitudeDegrees>42.9627380333840847015380859375</LatitudeDegrees>
              <LongitudeDegrees>-1.79182785563170909881591796875</LongitudeDegrees>
            </Position>
            <AltitudeMeters>551.4000244140625</AltitudeMeters>
            <DistanceMeters>11421.787548431</DistanceMeters>
          </Trackpoint>
          <Trackpoint>
            <Time>2021-08-09T08:59:53.000Z</Time>
            <Position>
              <LatitudeDegrees>42.96275706030428409576416015625</LatitudeDegrees>
              <LongitudeDegrees>-1.79180120117962360382080078125</LongitudeDegrees>
            </Position>
            <AltitudeMeters>551.79998779296875</AltitudeMeters>
            <DistanceMeters>11424.819481448</DistanceMeters>
          </Trackpoint>
          <Trackpoint>
            <Time>2021-08-09T08:59:54.000Z</Time>
            <Position>
              <LatitudeDegrees>42.962776087224483489990234375</LatitudeDegrees>
              <LongitudeDegrees>-1.79177421145141124725341796875</LongitudeDegrees>
            </Position>
            <AltitudeMeters>552</AltitudeMeters>
            <DistanceMeters>11427.870712153</DistanceMeters>
          </Trackpoint>
          <Trackpoint>
            <Time>2021-08-09T08:59:55.000Z</Time>
            <Position>
              <LatitudeDegrees>42.96279477886855602264404296875</LatitudeDegrees>
              <LongitudeDegrees>-1.79174805991351604461669921875</LongitudeDegrees>
            </Position>
            <AltitudeMeters>552.20001220703125</AltitudeMeters>
            <DistanceMeters>11430.845518855</DistanceMeters>
          </Trackpoint>
          <Trackpoint>
            <Time>2021-08-09T08:59:56.000Z</Time>
            <Position>
              <LatitudeDegrees>42.96281137503683567047119140625</LatitudeDegrees>
              <LongitudeDegrees>-1.7917224951088428497314453125</LongitudeDegrees>
            </Position>
            <AltitudeMeters>552.5999755859375</AltitudeMeters>
            <DistanceMeters>11433.627384329</DistanceMeters>
          </Trackpoint>
          <Trackpoint>
            <Time>2021-08-09T08:59:57.000Z</Time>
            <Position>
              <LatitudeDegrees>42.9628292284905910491943359375</LatitudeDegrees>
              <LongitudeDegrees>-1.79170145653188228607177734375</LongitudeDegrees>
            </Position>
            <AltitudeMeters>552.5999755859375</AltitudeMeters>
            <DistanceMeters>11436.250534772</DistanceMeters>
          </Trackpoint>
          <Trackpoint>
            <Time>2021-08-09T08:59:58.000Z</Time>
            <Position>
              <LatitudeDegrees>42.96284976415336132049560546875</LatitudeDegrees>
              <LongitudeDegrees>-1.79168201051652431488037109375</LongitudeDegrees>
            </Position>
            <AltitudeMeters>552.79998779296875</AltitudeMeters>
            <DistanceMeters>11439.030776747</DistanceMeters>
          </Trackpoint>
          <Trackpoint>
            <Time>2021-08-09T08:59:59.000Z</Time>
            <Position>
              <LatitudeDegrees>42.9628697969019412994384765625</LatitudeDegrees>
              <LongitudeDegrees>-1.79166155867278575897216796875</LongitudeDegrees>
            </Position>
            <AltitudeMeters>553</AltitudeMeters>
            <DistanceMeters>11441.814264772</DistanceMeters>
          </Trackpoint>
          <Trackpoint>
            <Time>2021-08-09T09:00:00.000Z</Time>
            <Position>
              <LatitudeDegrees>42.9628892429172992706298828125</LatitudeDegrees>
              <LongitudeDegrees>-1.7916403524577617645263671875</LongitudeDegrees>
            </Position>
            <AltitudeMeters>553.4000244140625</AltitudeMeters>
            <DistanceMeters>11444.584745773</DistanceMeters>
          </Trackpoint>
          <Trackpoint>
            <Time>2021-08-09T09:00:01.000Z</Time>
            <Position>
              <LatitudeDegrees>42.96290894038975238800048828125</LatitudeDegrees>
              <LongitudeDegrees>-1.79162107408046722412109375</LongitudeDegrees>
            </Position>
            <AltitudeMeters>553.5999755859375</AltitudeMeters>
            <DistanceMeters>11447.279218164</DistanceMeters>
          </Trackpoint>
          <Trackpoint>
            <Time>2021-08-09T09:00:02.000Z</Time>
            <Position>
              <LatitudeDegrees>42.9629294760525226593017578125</LatitudeDegrees>
              <LongitudeDegrees>-1.7916011251509189605712890625</LongitudeDegrees>
            </Position>
            <AltitudeMeters>553.79998779296875</AltitudeMeters>
            <DistanceMeters>11450.082103553</DistanceMeters>
          </Trackpoint>
          <Trackpoint>
            <Time>2021-08-09T09:00:03.000Z</Time>
            <Position>
              <LatitudeDegrees>42.9629526101052761077880859375</LatitudeDegrees>
              <LongitudeDegrees>-1.791580505669116973876953125</LongitudeDegrees>
            </Position>
            <AltitudeMeters>553.79998779296875</AltitudeMeters>
            <DistanceMeters>11453.155450257</DistanceMeters>
          </Trackpoint>
          <Trackpoint>
            <Time>2021-08-09T09:00:04.000Z</Time>
            <Position>
              <LatitudeDegrees>42.9629757441580295562744140625</LatitudeDegrees>
              <LongitudeDegrees>-1.791561730206012725830078125</LongitudeDegrees>
            </Position>
            <AltitudeMeters>554</AltitudeMeters>
            <DistanceMeters>11456.149922816</DistanceMeters>
          </Trackpoint>
          <Trackpoint>
            <Time>2021-08-09T09:00:05.000Z</Time>
            <Position>
              <LatitudeDegrees>42.962998040020465850830078125</LatitudeDegrees>
              <LongitudeDegrees>-1.79154303856194019317626953125</LongitudeDegrees>
            </Position>
            <AltitudeMeters>554.20001220703125</AltitudeMeters>
            <DistanceMeters>11459.060285629</DistanceMeters>
          </Trackpoint>
          <Trackpoint>
            <Time>2021-08-09T09:00:06.000Z</Time>
            <Position>
              <LatitudeDegrees>42.96302025206387042999267578125</LatitudeDegrees>
              <LongitudeDegrees>-1.791525185108184814453125</LongitudeDegrees>
            </Position>
            <AltitudeMeters>554.20001220703125</AltitudeMeters>
            <DistanceMeters>11461.926881095</DistanceMeters>
          </Trackpoint>
          <Trackpoint>
            <Time>2021-08-09T09:00:07.000Z</Time>
            <Position>
              <LatitudeDegrees>42.9630438052117824554443359375</LatitudeDegrees>
              <LongitudeDegrees>-1.7915069125592708587646484375</LongitudeDegrees>
            </Position>
            <AltitudeMeters>554.4000244140625</AltitudeMeters>
            <DistanceMeters>11464.940891198</DistanceMeters>
          </Trackpoint>
          <Trackpoint>
            <Time>2021-08-09T09:00:08.000Z</Time>
            <Position>
              <LatitudeDegrees>42.96306702308356761932373046875</LatitudeDegrees>
              <LongitudeDegrees>-1.79148755036294460296630859375</LongitudeDegrees>
            </Position>
            <AltitudeMeters>554.5999755859375</AltitudeMeters>
            <DistanceMeters>11467.966861706</DistanceMeters>
          </Trackpoint>
          <Trackpoint>
            <Time>2021-08-09T09:00:09.000Z</Time>
            <Position>
              <LatitudeDegrees>42.9630887322127819061279296875</LatitudeDegrees>
              <LongitudeDegrees>-1.7914656735956668853759765625</LongitudeDegrees>
            </Position>
            <AltitudeMeters>554.79998779296875</AltitudeMeters>
            <DistanceMeters>11470.970367385</DistanceMeters>
          </Trackpoint>
          <Trackpoint>
            <Time>2021-08-09T09:00:10.000Z</Time>
            <Position>
              <LatitudeDegrees>42.96311178244650363922119140625</LatitudeDegrees>
              <LongitudeDegrees>-1.79144765250384807586669921875</LongitudeDegrees>
            </Position>
            <AltitudeMeters>555</AltitudeMeters>
            <DistanceMeters>11473.926904887</DistanceMeters>
          </Trackpoint>
          <Trackpoint>
            <Time>2021-08-09T09:00:11.000Z</Time>
            <Position>
              <LatitudeDegrees>42.96313458122313022613525390625</LatitudeDegrees>
              <LongitudeDegrees>-1.79142837412655353546142578125</LongitudeDegrees>
            </Position>
            <AltitudeMeters>555</AltitudeMeters>
            <DistanceMeters>11476.910804244</DistanceMeters>
          </Trackpoint>
          <Trackpoint>
            <Time>2021-08-09T09:00:12.000Z</Time>
            <Position>
              <LatitudeDegrees>42.96315620653331279754638671875</LatitudeDegrees>
              <LongitudeDegrees>-1.791408844292163848876953125</LongitudeDegrees>
            </Position>
            <AltitudeMeters>555</AltitudeMeters>
            <DistanceMeters>11479.794673243</DistanceMeters>
          </Trackpoint>
          <Trackpoint>
            <Time>2021-08-09T09:00:13.000Z</Time>
            <Position>
              <LatitudeDegrees>42.96317950822412967681884765625</LatitudeDegrees>
              <LongitudeDegrees>-1.7913892306387424468994140625</LongitudeDegrees>
            </Position>
            <AltitudeMeters>555.20001220703125</AltitudeMeters>
            <DistanceMeters>11482.841461484</DistanceMeters>
          </Trackpoint>
          <Trackpoint>
            <Time>2021-08-09T09:00:14.000Z</Time>
            <Position>
              <LatitudeDegrees>42.96320180408656597137451171875</LatitudeDegrees>
              <LongitudeDegrees>-1.7913704551756381988525390625</LongitudeDegrees>
            </Position>
            <AltitudeMeters>555.4000244140625</AltitudeMeters>
            <DistanceMeters>11485.75647468</DistanceMeters>
          </Trackpoint>
          <Trackpoint>
            <Time>2021-08-09T09:00:15.000Z</Time>
            <Position>
              <LatitudeDegrees>42.9632245190441608428955078125</LatitudeDegrees>
              <LongitudeDegrees>-1.79135109297931194305419921875</LongitudeDegrees>
            </Position>
            <AltitudeMeters>555.4000244140625</AltitudeMeters>
            <DistanceMeters>11488.734315352</DistanceMeters>
          </Trackpoint>
          <Trackpoint>
            <Time>2021-08-09T09:00:16.000Z</Time>
            <Position>
              <LatitudeDegrees>42.9632469825446605682373046875</LatitudeDegrees>
              <LongitudeDegrees>-1.79132930003106594085693359375</LongitudeDegrees>
            </Position>
            <AltitudeMeters>555.5999755859375</AltitudeMeters>
            <DistanceMeters>11491.800307782</DistanceMeters>
          </Trackpoint>
          <Trackpoint>
            <Time>2021-08-09T09:00:17.000Z</Time>
            <Position>
              <LatitudeDegrees>42.96327020041644573211669921875</LatitudeDegrees>
              <LongitudeDegrees>-1.79131262004375457763671875</LongitudeDegrees>
            </Position>
            <AltitudeMeters>555.79998779296875</AltitudeMeters>
            <DistanceMeters>11494.719963954</DistanceMeters>
          </Trackpoint>
          <Trackpoint>
            <Time>2021-08-09T09:00:18.000Z</Time>
            <Position>
              <LatitudeDegrees>42.96329232864081859588623046875</LatitudeDegrees>
              <LongitudeDegrees>-1.7912985384464263916015625</LongitudeDegrees>
            </Position>
            <AltitudeMeters>556</AltitudeMeters>
            <DistanceMeters>11497.437794436</DistanceMeters>
          </Trackpoint>
          <Trackpoint>
            <Time>2021-08-09T09:00:19.000Z</Time>
            <Position>
              <LatitudeDegrees>42.963314540684223175048828125</LatitudeDegrees>
              <LongitudeDegrees>-1.79128387011587619781494140625</LongitudeDegrees>
            </Position>
            <AltitudeMeters>556.20001220703125</AltitudeMeters>
            <DistanceMeters>11500.183721207</DistanceMeters>
          </Trackpoint>
          <Trackpoint>
            <Time>2021-08-09T09:00:20.000Z</Time>
            <Position>
              <LatitudeDegrees>42.96333943493664264678955078125</LatitudeDegrees>
              <LongitudeDegrees>-1.7912658490240573883056640625</LongitudeDegrees>
            </Position>
            <AltitudeMeters>556.20001220703125</AltitudeMeters>
            <DistanceMeters>11503.32104225</DistanceMeters>
          </Trackpoint>
          <Trackpoint>
            <Time>2021-08-09T09:00:21.000Z</Time>
            <Position>
              <LatitudeDegrees>42.96336424537003040313720703125</LatitudeDegrees>
              <LongitudeDegrees>-1.79124564863741397857666015625</LongitudeDegrees>
            </Position>
            <AltitudeMeters>556.4000244140625</AltitudeMeters>
            <DistanceMeters>11506.535137372</DistanceMeters>
          </Trackpoint>
          <Trackpoint>
            <Time>2021-08-09T09:00:22.000Z</Time>
            <Position>
              <LatitudeDegrees>42.96338771469891071319580078125</LatitudeDegrees>
              <LongitudeDegrees>-1.7912282980978488922119140625</LongitudeDegrees>
            </Position>
            <AltitudeMeters>556.4000244140625</AltitudeMeters>
            <DistanceMeters>11509.503866832</DistanceMeters>
          </Trackpoint>
          <Trackpoint>
            <Time>2021-08-09T09:00:23.000Z</Time>
            <Position>
              <LatitudeDegrees>42.96341143548488616943359375</LatitudeDegrees>
              <LongitudeDegrees>-1.7912118695676326751708984375</LongitudeDegrees>
            </Position>
            <AltitudeMeters>556.5999755859375</AltitudeMeters>
            <DistanceMeters>11512.463457032</DistanceMeters>
          </Trackpoint>
          <Trackpoint>
            <Time>2021-08-09T09:00:24.000Z</Time>
            <Position>
              <LatitudeDegrees>42.9634347371757030487060546875</LatitudeDegrees>
              <LongitudeDegrees>-1.79119569249451160430908203125</LongitudeDegrees>
            </Position>
            <AltitudeMeters>556.79998779296875</AltitudeMeters>
            <DistanceMeters>11515.372268065</DistanceMeters>
          </Trackpoint>
          <Trackpoint>
            <Time>2021-08-09T09:00:25.000Z</Time>
            <Position>
              <LatitudeDegrees>42.96345778740942478179931640625</LatitudeDegrees>
              <LongitudeDegrees>-1.79117850959300994873046875</LongitudeDegrees>
            </Position>
            <AltitudeMeters>557</AltitudeMeters>
            <DistanceMeters>11518.295015457</DistanceMeters>
          </Trackpoint>
          <Trackpoint>
            <Time>2021-08-09T09:00:26.000Z</Time>
            <Position>
              <LatitudeDegrees>42.9634816758334636688232421875</LatitudeDegrees>
              <LongitudeDegrees>-1.79116199724376201629638671875</LongitudeDegrees>
            </Position>
            <AltitudeMeters>557.20001220703125</AltitudeMeters>
            <DistanceMeters>11521.274371955</DistanceMeters>
          </Trackpoint>
          <Trackpoint>
            <Time>2021-08-09T09:00:27.000Z</Time>
            <Position>
              <LatitudeDegrees>42.96350707300007343292236328125</LatitudeDegrees>
              <LongitudeDegrees>-1.79114498198032379150390625</LongitudeDegrees>
            </Position>
            <AltitudeMeters>557.4000244140625</AltitudeMeters>
            <DistanceMeters>11524.423185055</DistanceMeters>
          </Trackpoint>
          <Trackpoint>
            <Time>2021-08-09T09:00:28.000Z</Time>
            <Position>
              <LatitudeDegrees>42.96353406272828578948974609375</LatitudeDegrees>
              <LongitudeDegrees>-1.79113014601171016693115234375</LongitudeDegrees>
            </Position>
            <AltitudeMeters>557.79998779296875</AltitudeMeters>
            <DistanceMeters>11527.661073063</DistanceMeters>
          </Trackpoint>
          <Trackpoint>
            <Time>2021-08-09T09:00:29.000Z</Time>
            <Position>
              <LatitudeDegrees>42.96356189064681529998779296875</LatitudeDegrees>
              <LongitudeDegrees>-1.79111950099468231201171875</LongitudeDegrees>
            </Position>
            <AltitudeMeters>558</AltitudeMeters>
            <DistanceMeters>11530.876572639</DistanceMeters>
          </Trackpoint>
          <Trackpoint>
            <Time>2021-08-09T09:00:30.000Z</Time>
            <Position>
              <LatitudeDegrees>42.96358804218471050262451171875</LatitudeDegrees>
              <LongitudeDegrees>-1.79111422039568424224853515625</LongitudeDegrees>
            </Position>
            <AltitudeMeters>558.20001220703125</AltitudeMeters>
            <DistanceMeters>11533.817799124</DistanceMeters>
          </Trackpoint>
          <Trackpoint>
            <Time>2021-08-09T09:00:31.000Z</Time>
            <Position>
              <LatitudeDegrees>42.96361536718904972076416015625</LatitudeDegrees>
              <LongitudeDegrees>-1.79110600613057613372802734375</LongitudeDegrees>
            </Position>
            <AltitudeMeters>558.4000244140625</AltitudeMeters>
            <DistanceMeters>11536.933458312</DistanceMeters>
          </Trackpoint>
          <Trackpoint>
            <Time>2021-08-09T09:00:32.000Z</Time>
            <Position>
              <LatitudeDegrees>42.96364135108888149261474609375</LatitudeDegrees>
              <LongitudeDegrees>-1.79109611548483371734619140625</LongitudeDegrees>
            </Position>
            <AltitudeMeters>558.5999755859375</AltitudeMeters>
            <DistanceMeters>11539.936963992</DistanceMeters>
          </Trackpoint>
          <Trackpoint>
            <Time>2021-08-09T09:00:33.000Z</Time>
            <Position>
              <LatitudeDegrees>42.96366783790290355682373046875</LatitudeDegrees>
              <LongitudeDegrees>-1.791088320314884185791015625</LongitudeDegrees>
            </Position>
            <AltitudeMeters>558.79998779296875</AltitudeMeters>
            <DistanceMeters>11542.950974095</DistanceMeters>
          </Trackpoint>
          <Trackpoint>
            <Time>2021-08-09T09:00:34.000Z</Time>
            <Position>
              <LatitudeDegrees>42.96369650401175022125244140625</LatitudeDegrees>
              <LongitudeDegrees>-1.79108035750687122344970703125</LongitudeDegrees>
            </Position>
            <AltitudeMeters>559</AltitudeMeters>
            <DistanceMeters>11546.206939351</DistanceMeters>
          </Trackpoint>
          <Trackpoint>
            <Time>2021-08-09T09:00:35.000Z</Time>
            <Position>
              <LatitudeDegrees>42.9637254215776920318603515625</LatitudeDegrees>
              <LongitudeDegrees>-1.79107633419334888458251953125</LongitudeDegrees>
            </Position>
            <AltitudeMeters>559.20001220703125</AltitudeMeters>
            <DistanceMeters>11549.442037278</DistanceMeters>
          </Trackpoint>
          <Trackpoint>
            <Time>2021-08-09T09:00:36.000Z</Time>
            <Position>
              <LatitudeDegrees>42.96375366859138011932373046875</LatitudeDegrees>
              <LongitudeDegrees>-1.7910717241466045379638671875</LongitudeDegrees>
            </Position>
            <AltitudeMeters>559.4000244140625</AltitudeMeters>
            <DistanceMeters>11552.609436042</DistanceMeters>
          </Trackpoint>
          <Trackpoint>
            <Time>2021-08-09T09:00:37.000Z</Time>
            <Position>
              <LatitudeDegrees>42.96378015540540218353271484375</LatitudeDegrees>
              <LongitudeDegrees>-1.79106644354760646820068359375</LongitudeDegrees>
            </Position>
            <AltitudeMeters>559.79998779296875</AltitudeMeters>
            <DistanceMeters>11555.587276714</DistanceMeters>
          </Trackpoint>
          <Trackpoint>
            <Time>2021-08-09T09:00:38.000Z</Time>
            <Position>
              <LatitudeDegrees>42.96380882151424884796142578125</LatitudeDegrees>
              <LongitudeDegrees>-1.79106409661471843719482421875</LongitudeDegrees>
            </Position>
            <AltitudeMeters>560</AltitudeMeters>
            <DistanceMeters>11558.783057754</DistanceMeters>
          </Trackpoint>
          <Trackpoint>
            <Time>2021-08-09T09:00:39.000Z</Time>
            <Position>
              <LatitudeDegrees>42.96383849345147609710693359375</LatitudeDegrees>
              <LongitudeDegrees>-1.79106275551021099090576171875</LongitudeDegrees>
            </Position>
            <AltitudeMeters>560.20001220703125</AltitudeMeters>
            <DistanceMeters>11562.085834214</DistanceMeters>
          </Trackpoint>
          <Trackpoint>
            <Time>2021-08-09T09:00:40.000Z</Time>
            <Position>
              <LatitudeDegrees>42.963866405189037322998046875</LatitudeDegrees>
              <LongitudeDegrees>-1.7910640127956867218017578125</LongitudeDegrees>
            </Position>
            <AltitudeMeters>560.4000244140625</AltitudeMeters>
            <DistanceMeters>11565.194239238</DistanceMeters>
          </Trackpoint>
          <Trackpoint>
            <Time>2021-08-09T09:00:41.000Z</Time>
            <Position>
              <LatitudeDegrees>42.96389498747885227203369140625</LatitudeDegrees>
              <LongitudeDegrees>-1.791063845157623291015625</LongitudeDegrees>
            </Position>
            <AltitudeMeters>560.5999755859375</AltitudeMeters>
            <DistanceMeters>11568.374441373</DistanceMeters>
          </Trackpoint>
          <Trackpoint>
            <Time>2021-08-09T09:00:42.000Z</Time>
            <Position>
              <LatitudeDegrees>42.9639269225299358367919921875</LatitudeDegrees>
              <LongitudeDegrees>-1.7910606600344181060791015625</LongitudeDegrees>
            </Position>
            <AltitudeMeters>560.5999755859375</AltitudeMeters>
            <DistanceMeters>11571.937626392</DistanceMeters>
          </Trackpoint>
          <Trackpoint>
            <Time>2021-08-09T09:00:43.000Z</Time>
            <Position>
              <LatitudeDegrees>42.9639564268290996551513671875</LatitudeDegrees>
              <LongitudeDegrees>-1.7910583131015300750732421875</LongitudeDegrees>
            </Position>
            <AltitudeMeters>560.79998779296875</AltitudeMeters>
            <DistanceMeters>11575.22670401</DistanceMeters>
          </Trackpoint>
          <Trackpoint>
            <Time>2021-08-09T09:00:44.000Z</Time>
            <Position>
              <LatitudeDegrees>42.96398668549954891204833984375</LatitudeDegrees>
              <LongitudeDegrees>-1.79105688817799091339111328125</LongitudeDegrees>
            </Position>
            <AltitudeMeters>561</AltitudeMeters>
            <DistanceMeters>11578.597139615</DistanceMeters>
          </Trackpoint>
          <Trackpoint>
            <Time>2021-08-09T09:00:45.000Z</Time>
            <Position>
              <LatitudeDegrees>42.96401266939938068389892578125</LatitudeDegrees>
              <LongitudeDegrees>-1.79105839692056179046630859375</LongitudeDegrees>
            </Position>
            <AltitudeMeters>561.20001220703125</AltitudeMeters>
            <DistanceMeters>11581.491947198</DistanceMeters>
          </Trackpoint>
          <Trackpoint>
            <Time>2021-08-09T09:00:46.000Z</Time>
            <Position>
              <LatitudeDegrees>42.96403898857533931732177734375</LatitudeDegrees>
              <LongitudeDegrees>-1.79105739109218120574951171875</LongitudeDegrees>
            </Position>
            <AltitudeMeters>561.4000244140625</AltitudeMeters>
            <DistanceMeters>11584.423948694</DistanceMeters>
          </Trackpoint>
          <Trackpoint>
            <Time>2021-08-09T09:00:47.000Z</Time>
            <Position>
              <LatitudeDegrees>42.9640674032270908355712890625</LatitudeDegrees>
              <LongitudeDegrees>-1.79105822928249835968017578125</LongitudeDegrees>
            </Position>
            <AltitudeMeters>561.5999755859375</AltitudeMeters>
            <DistanceMeters>11587.587068151</DistanceMeters>
          </Trackpoint>
          <Trackpoint>
            <Time>2021-08-09T09:00:48.000Z</Time>
            <Position>
              <LatitudeDegrees>42.96409682370722293853759765625</LatitudeDegrees>
              <LongitudeDegrees>-1.79105889983475208282470703125</LongitudeDegrees>
            </Position>
            <AltitudeMeters>561.5999755859375</AltitudeMeters>
            <DistanceMeters>11590.862389634</DistanceMeters>
          </Trackpoint>
          <Trackpoint>
            <Time>2021-08-09T09:00:49.000Z</Time>
            <Position>
              <LatitudeDegrees>42.96412716619670391082763671875</LatitudeDegrees>
              <LongitudeDegrees>-1.79106040857732295989990234375</LongitudeDegrees>
            </Position>
            <AltitudeMeters>561.79998779296875</AltitudeMeters>
            <DistanceMeters>11594.240853283</DistanceMeters>
          </Trackpoint>
          <Trackpoint>
            <Time>2021-08-09T09:00:50.000Z</Time>
            <Position>
              <LatitudeDegrees>42.964157760143280029296875</LatitudeDegrees>
              <LongitudeDegrees>-1.7910625040531158447265625</LongitudeDegrees>
            </Position>
            <AltitudeMeters>562</AltitudeMeters>
            <DistanceMeters>11597.648591287</DistanceMeters>
          </Trackpoint>
          <Trackpoint>
            <Time>2021-08-09T09:00:51.000Z</Time>
            <Position>
              <LatitudeDegrees>42.96418935991823673248291015625</LatitudeDegrees>
              <LongitudeDegrees>-1.79106451570987701416015625</LongitudeDegrees>
            </Position>
            <AltitudeMeters>562.20001220703125</AltitudeMeters>
            <DistanceMeters>11601.169712551</DistanceMeters>
          </Trackpoint>
          <Trackpoint>
            <Time>2021-08-09T09:00:52.000Z</Time>
            <Position>
              <LatitudeDegrees>42.96422037295997142791748046875</LatitudeDegrees>
              <LongitudeDegrees>-1.79106979630887508392333984375</LongitudeDegrees>
            </Position>
            <AltitudeMeters>562.4000244140625</AltitudeMeters>
            <DistanceMeters>11604.646963241</DistanceMeters>
          </Trackpoint>
          <Trackpoint>
            <Time>2021-08-09T09:00:53.000Z</Time>
            <Position>
              <LatitudeDegrees>42.96424970962107181549072265625</LatitudeDegrees>
              <LongitudeDegrees>-1.79107499308884143829345703125</LongitudeDegrees>
            </Position>
            <AltitudeMeters>562.5999755859375</AltitudeMeters>
            <DistanceMeters>11607.940156495</DistanceMeters>
          </Trackpoint>
          <Trackpoint>
            <Time>2021-08-09T09:00:54.000Z</Time>
            <Position>
              <LatitudeDegrees>42.96428072266280651092529296875</LatitudeDegrees>
              <LongitudeDegrees>-1.79108060896396636962890625</LongitudeDegrees>
            </Position>
            <AltitudeMeters>562.79998779296875</AltitudeMeters>
            <DistanceMeters>11611.421300357</DistanceMeters>
          </Trackpoint>
          <Trackpoint>
            <Time>2021-08-09T09:00:55.000Z</Time>
            <Position>
              <LatitudeDegrees>42.96431039460003376007080078125</LatitudeDegrees>
              <LongitudeDegrees>-1.791090667247772216796875</LongitudeDegrees>
            </Position>
            <AltitudeMeters>563</AltitudeMeters>
            <DistanceMeters>11614.823734486</DistanceMeters>
          </Trackpoint>
          <Trackpoint>
            <Time>2021-08-09T09:00:56.000Z</Time>
            <Position>
              <LatitudeDegrees>42.96433989889919757843017578125</LatitudeDegrees>
              <LongitudeDegrees>-1.791101396083831787109375</LongitudeDegrees>
            </Position>
            <AltitudeMeters>563.20001220703125</AltitudeMeters>
            <DistanceMeters>11618.222185276</DistanceMeters>
          </Trackpoint>
          <Trackpoint>
            <Time>2021-08-09T09:00:57.000Z</Time>
            <Position>
              <LatitudeDegrees>42.96436839736998081207275390625</LatitudeDegrees>
              <LongitudeDegrees>-1.79111271165311336517333984375</LongitudeDegrees>
            </Position>
            <AltitudeMeters>563.20001220703125</AltitudeMeters>
            <DistanceMeters>11621.524961736</DistanceMeters>
          </Trackpoint>
          <Trackpoint>
            <Time>2021-08-09T09:00:58.000Z</Time>
            <Position>
              <LatitudeDegrees>42.96439714729785919189453125</LatitudeDegrees>
              <LongitudeDegrees>-1.79112327285110950469970703125</LongitudeDegrees>
            </Position>
            <AltitudeMeters>563.5999755859375</AltitudeMeters>
            <DistanceMeters>11624.838656495</DistanceMeters>
          </Trackpoint>
          <Trackpoint>
            <Time>2021-08-09T09:00:59.000Z</Time>
            <Position>
              <LatitudeDegrees>42.964425981044769287109375</LatitudeDegrees>
              <LongitudeDegrees>-1.791136264801025390625</LongitudeDegrees>
            </Position>
            <AltitudeMeters>563.5999755859375</AltitudeMeters>
            <DistanceMeters>11628.218456297</DistanceMeters>
          </Trackpoint>
          <Trackpoint>
            <Time>2021-08-09T09:01:00.000Z</Time>
            <Position>
              <LatitudeDegrees>42.96445473097264766693115234375</LatitudeDegrees>
              <LongitudeDegrees>-1.7911478318274021148681640625</LongitudeDegrees>
            </Position>
            <AltitudeMeters>563.79998779296875</AltitudeMeters>
            <DistanceMeters>11631.555233823</DistanceMeters>
          </Trackpoint>
          <Trackpoint>
            <Time>2021-08-09T09:01:01.000Z</Time>
            <Position>
              <LatitudeDegrees>42.96448557637631893157958984375</LatitudeDegrees>
              <LongitudeDegrees>-1.79116317071020603179931640625</LongitudeDegrees>
            </Position>
            <AltitudeMeters>564</AltitudeMeters>
            <DistanceMeters>11635.20851358</DistanceMeters>
          </Trackpoint>
          <Trackpoint>
            <Time>2021-08-09T09:01:02.000Z</Time>
            <Position>
              <LatitudeDegrees>42.9645131528377532958984375</LatitudeDegrees>
              <LongitudeDegrees>-1.79118345491588115692138671875</LongitudeDegrees>
            </Position>
            <AltitudeMeters>564</AltitudeMeters>
            <DistanceMeters>11638.694841575</DistanceMeters>
          </Trackpoint>
          <Trackpoint>
            <Time>2021-08-09T09:01:03.000Z</Time>
            <Position>
              <LatitudeDegrees>42.96453955583274364471435546875</LatitudeDegrees>
              <LongitudeDegrees>-1.79120340384542942047119140625</LongitudeDegrees>
            </Position>
            <AltitudeMeters>564.20001220703125</AltitudeMeters>
            <DistanceMeters>11642.051854444</DistanceMeters>
          </Trackpoint>
          <Trackpoint>
            <Time>2021-08-09T09:01:04.000Z</Time>
            <Position>
              <LatitudeDegrees>42.9645666293799877166748046875</LatitudeDegrees>
              <LongitudeDegrees>-1.79122569970786571502685546875</LongitudeDegrees>
            </Position>
            <AltitudeMeters>564.4000244140625</AltitudeMeters>
            <DistanceMeters>11645.569126786</DistanceMeters>
          </Trackpoint>
          <Trackpoint>
            <Time>2021-08-09T09:01:05.000Z</Time>
            <Position>
              <LatitudeDegrees>42.96459571458399295806884765625</LatitudeDegrees>
              <LongitudeDegrees>-1.7912601493299007415771484375</LongitudeDegrees>
            </Position>
            <AltitudeMeters>564.5999755859375</AltitudeMeters>
            <DistanceMeters>11649.852713523</DistanceMeters>
          </Trackpoint>
          <Trackpoint>
            <Time>2021-08-09T09:01:06.000Z</Time>
            <Position>
              <LatitudeDegrees>42.964621447026729583740234375</LatitudeDegrees>
              <LongitudeDegrees>-1.79129141382873058319091796875</LongitudeDegrees>
            </Position>
            <AltitudeMeters>564.79998779296875</AltitudeMeters>
            <DistanceMeters>11653.684541325</DistanceMeters>
          </Trackpoint>
          <Trackpoint>
            <Time>2021-08-09T09:01:07.000Z</Time>
            <Position>
              <LatitudeDegrees>42.96464298851788043975830078125</LatitudeDegrees>
              <LongitudeDegrees>-1.79132561199367046356201171875</LongitudeDegrees>
            </Position>
            <AltitudeMeters>564.79998779296875</AltitudeMeters>
            <DistanceMeters>11657.359999712</DistanceMeters>
          </Trackpoint>
          <Trackpoint>
            <Time>2021-08-09T09:01:08.000Z</Time>
            <Position>
              <LatitudeDegrees>42.9646615125238895416259765625</LatitudeDegrees>
              <LongitudeDegrees>-1.7913553677499294281005859375</LongitudeDegrees>
            </Position>
            <AltitudeMeters>565</AltitudeMeters>
            <DistanceMeters>11660.543040047</DistanceMeters>
          </Trackpoint>
          <Trackpoint>
            <Time>2021-08-09T09:01:09.000Z</Time>
            <Position>
              <LatitudeDegrees>42.964687831699848175048828125</LatitudeDegrees>
              <LongitudeDegrees>-1.79140054620802402496337890625</LongitudeDegrees>
            </Position>
            <AltitudeMeters>565.20001220703125</AltitudeMeters>
            <DistanceMeters>11665.245662423</DistanceMeters>
          </Trackpoint>
          <Trackpoint>
            <Time>2021-08-09T09:01:10.000Z</Time>
            <Position>
              <LatitudeDegrees>42.96470819972455501556396484375</LatitudeDegrees>
              <LongitudeDegrees>-1.79143759422004222869873046875</LongitudeDegrees>
            </Position>
            <AltitudeMeters>565.4000244140625</AltitudeMeters>
            <DistanceMeters>11669.019311923</DistanceMeters>
          </Trackpoint>
          <Trackpoint>
            <Time>2021-08-09T09:01:11.000Z</Time>
            <Position>
              <LatitudeDegrees>42.96472697518765926361083984375</LatitudeDegrees>
              <LongitudeDegrees>-1.79147698916494846343994140625</LongitudeDegrees>
            </Position>
            <AltitudeMeters>565.4000244140625</AltitudeMeters>
            <DistanceMeters>11672.848782402</DistanceMeters>
          </Trackpoint>
          <Trackpoint>
            <Time>2021-08-09T09:01:12.000Z</Time>
            <Position>
              <LatitudeDegrees>42.96474139206111431121826171875</LatitudeDegrees>
              <LongitudeDegrees>-1.7915085889399051666259765625</LongitudeDegrees>
            </Position>
            <AltitudeMeters>565.5999755859375</AltitudeMeters>
            <DistanceMeters>11675.880715419</DistanceMeters>
          </Trackpoint>
          <Trackpoint>
            <Time>2021-08-09T09:01:13.000Z</Time>
            <Position>
              <LatitudeDegrees>42.96475949697196483612060546875</LatitudeDegrees>
              <LongitudeDegrees>-1.791546978056430816650390625</LongitudeDegrees>
            </Position>
            <AltitudeMeters>565.79998779296875</AltitudeMeters>
            <DistanceMeters>11679.601348051</DistanceMeters>
          </Trackpoint>
          <Trackpoint>
            <Time>2021-08-09T09:01:14.000Z</Time>
            <Position>
              <LatitudeDegrees>42.9647781886160373687744140625</LatitudeDegrees>
              <LongitudeDegrees>-1.79159349761903285980224609375</LongitudeDegrees>
            </Position>
            <AltitudeMeters>565.79998779296875</AltitudeMeters>
            <DistanceMeters>11683.924802485</DistanceMeters>
          </Trackpoint>
          <Trackpoint>
            <Time>2021-08-09T09:01:15.000Z</Time>
            <Position>
              <LatitudeDegrees>42.96479277312755584716796875</LatitudeDegrees>
              <LongitudeDegrees>-1.791631467640399932861328125</LongitudeDegrees>
            </Position>
            <AltitudeMeters>566</AltitudeMeters>
            <DistanceMeters>11687.416306917</DistanceMeters>
          </Trackpoint>
          <Trackpoint>
            <Time>2021-08-09T09:01:16.000Z</Time>
            <Position>
              <LatitudeDegrees>42.96480794437229633331298828125</LatitudeDegrees>
              <LongitudeDegrees>-1.79167245514690876007080078125</LongitudeDegrees>
            </Position>
            <AltitudeMeters>566.20001220703125</AltitudeMeters>
            <DistanceMeters>11691.157512403</DistanceMeters>
          </Trackpoint>
          <Trackpoint>
            <Time>2021-08-09T09:01:17.000Z</Time>
            <Position>
              <LatitudeDegrees>42.96482319943606853485107421875</LatitudeDegrees>
              <LongitudeDegrees>-1.7917033843696117401123046875</LongitudeDegrees>
            </Position>
            <AltitudeMeters>566.4000244140625</AltitudeMeters>
            <DistanceMeters>11694.195396227</DistanceMeters>
          </Trackpoint>
          <Trackpoint>
            <Time>2021-08-09T09:01:18.000Z</Time>
            <Position>
              <LatitudeDegrees>42.96484029851853847503662109375</LatitudeDegrees>
              <LongitudeDegrees>-1.7917446233332157135009765625</LongitudeDegrees>
            </Position>
            <AltitudeMeters>566.5999755859375</AltitudeMeters>
            <DistanceMeters>11698.055399612</DistanceMeters>
          </Trackpoint>
          <Trackpoint>
            <Time>2021-08-09T09:01:19.000Z</Time>
            <Position>
              <LatitudeDegrees>42.9648589901626110076904296875</LatitudeDegrees>
              <LongitudeDegrees>-1.791797764599323272705078125</LongitudeDegrees>
            </Position>
            <AltitudeMeters>566.5999755859375</AltitudeMeters>
            <DistanceMeters>11702.856835351</DistanceMeters>
          </Trackpoint>
          <Trackpoint>
            <Time>2021-08-09T09:01:20.000Z</Time>
            <Position>
              <LatitudeDegrees>42.9648747481405735015869140625</LatitudeDegrees>
              <LongitudeDegrees>-1.7918405123054981231689453125</LongitudeDegrees>
            </Position>
            <AltitudeMeters>566.79998779296875</AltitudeMeters>
            <DistanceMeters>11706.754089331</DistanceMeters>
          </Trackpoint>
          <Trackpoint>
            <Time>2021-08-09T09:01:21.000Z</Time>
            <Position>
              <LatitudeDegrees>42.96489360742270946502685546875</LatitudeDegrees>
              <LongitudeDegrees>-1.7918794043362140655517578125</LongitudeDegrees>
            </Position>
            <AltitudeMeters>567</AltitudeMeters>
            <DistanceMeters>11710.555157905</DistanceMeters>
          </Trackpoint>
          <Trackpoint>
            <Time>2021-08-09T09:01:22.000Z</Time>
            <Position>
              <LatitudeDegrees>42.96491171233355998992919921875</LatitudeDegrees>
              <LongitudeDegrees>-1.79190698079764842987060546875</LongitudeDegrees>
            </Position>
            <AltitudeMeters>567</AltitudeMeters>
            <DistanceMeters>11713.573658714</DistanceMeters>
          </Trackpoint>
          <Trackpoint>
            <Time>2021-08-09T09:01:23.000Z</Time>
            <Position>
              <LatitudeDegrees>42.96493685804307460784912109375</LatitudeDegrees>
              <LongitudeDegrees>-1.791940592229366302490234375</LongitudeDegrees>
            </Position>
            <AltitudeMeters>567.20001220703125</AltitudeMeters>
            <DistanceMeters>11717.488251889</DistanceMeters>
          </Trackpoint>
          <Trackpoint>
            <Time>2021-08-09T09:01:24.000Z</Time>
            <Position>
              <LatitudeDegrees>42.9649639315903186798095703125</LatitudeDegrees>
              <LongitudeDegrees>-1.79196850396692752838134765625</LongitudeDegrees>
            </Position>
            <AltitudeMeters>567.20001220703125</AltitudeMeters>
            <DistanceMeters>11721.263097664</DistanceMeters>
          </Trackpoint>
          <Trackpoint>
            <Time>2021-08-09T09:01:25.000Z</Time>
            <Position>
              <LatitudeDegrees>42.96499821357429027557373046875</LatitudeDegrees>
              <LongitudeDegrees>-1.79199281148612499237060546875</LongitudeDegrees>
            </Position>
            <AltitudeMeters>567.4000244140625</AltitudeMeters>
            <DistanceMeters>11725.561415522</DistanceMeters>
          </Trackpoint>
          <Trackpoint>
            <Time>2021-08-09T09:01:26.000Z</Time>
            <Position>
              <LatitudeDegrees>42.96503123827278614044189453125</LatitudeDegrees>
              <LongitudeDegrees>-1.79200354032218456268310546875</LongitudeDegrees>
            </Position>
            <AltitudeMeters>567.4000244140625</AltitudeMeters>
            <DistanceMeters>11729.338652711</DistanceMeters>
          </Trackpoint>
          <Trackpoint>
            <Time>2021-08-09T09:01:27.000Z</Time>
            <Position>
              <LatitudeDegrees>42.96506459824740886688232421875</LatitudeDegrees>
              <LongitudeDegrees>-1.792004965245723724365234375</LongitudeDegrees>
            </Position>
            <AltitudeMeters>567.5999755859375</AltitudeMeters>
            <DistanceMeters>11733.05321282</DistanceMeters>
          </Trackpoint>
          <Trackpoint>
            <Time>2021-08-09T09:01:28.000Z</Time>
            <Position>
              <LatitudeDegrees>42.9650920070707798004150390625</LatitudeDegrees>
              <LongitudeDegrees>-1.7920017801225185394287109375</LongitudeDegrees>
            </Position>
            <AltitudeMeters>567.79998779296875</AltitudeMeters>
            <DistanceMeters>11736.114784206</DistanceMeters>
          </Trackpoint>
          <Trackpoint>
            <Time>2021-08-09T09:01:29.000Z</Time>
            <Position>
              <LatitudeDegrees>42.96512595377862453460693359375</LatitudeDegrees>
              <LongitudeDegrees>-1.791994906961917877197265625</LongitudeDegrees>
            </Position>
            <AltitudeMeters>568.20001220703125</AltitudeMeters>
            <DistanceMeters>11739.934810846</DistanceMeters>
          </Trackpoint>
          <Trackpoint>
            <Time>2021-08-09T09:01:30.000Z</Time>
            <Position>
              <LatitudeDegrees>42.96516501344740390777587890625</LatitudeDegrees>
              <LongitudeDegrees>-1.79198074154555797576904296875</LongitudeDegrees>
            </Position>
            <AltitudeMeters>568.20001220703125</AltitudeMeters>
            <DistanceMeters>11744.432295836</DistanceMeters>
          </Trackpoint>
          <Trackpoint>
            <Time>2021-08-09T09:01:31.000Z</Time>
            <Position>
              <LatitudeDegrees>42.96519569121301174163818359375</LatitudeDegrees>
              <LongitudeDegrees>-1.79196012206375598907470703125</LongitudeDegrees>
            </Position>
            <AltitudeMeters>568.4000244140625</AltitudeMeters>
            <DistanceMeters>11748.238112781</DistanceMeters>
          </Trackpoint>
          <Trackpoint>
            <Time>2021-08-09T09:01:32.000Z</Time>
            <Position>
              <LatitudeDegrees>42.9652225971221923828125</LatitudeDegrees>
              <LongitudeDegrees>-1.79193229414522647857666015625</LongitudeDegrees>
            </Position>
            <AltitudeMeters>568.5999755859375</AltitudeMeters>
            <DistanceMeters>11751.993772431</DistanceMeters>
          </Trackpoint>
          <Trackpoint>
            <Time>2021-08-09T09:01:33.000Z</Time>
            <Position>
              <LatitudeDegrees>42.9652432166039943695068359375</LatitudeDegrees>
              <LongitudeDegrees>-1.79190731607377529144287109375</LongitudeDegrees>
            </Position>
            <AltitudeMeters>568.5999755859375</AltitudeMeters>
            <DistanceMeters>11755.05976486</DistanceMeters>
          </Trackpoint>
          <Trackpoint>
            <Time>2021-08-09T09:01:34.000Z</Time>
            <Position>
              <LatitudeDegrees>42.96526727266609668731689453125</LatitudeDegrees>
              <LongitudeDegrees>-1.7918740399181842803955078125</LongitudeDegrees>
            </Position>
            <AltitudeMeters>568.79998779296875</AltitudeMeters>
            <DistanceMeters>11758.86795377</DistanceMeters>
          </Trackpoint>
          <Trackpoint>
            <Time>2021-08-09T09:01:35.000Z</Time>
            <Position>
              <LatitudeDegrees>42.96528898179531097412109375</LatitudeDegrees>
              <LongitudeDegrees>-1.7918405123054981231689453125</LongitudeDegrees>
            </Position>
            <AltitudeMeters>569</AltitudeMeters>
            <DistanceMeters>11762.51504886</DistanceMeters>
          </Trackpoint>
          <Trackpoint>
            <Time>2021-08-09T09:01:36.000Z</Time>
            <Position>
              <LatitudeDegrees>42.96530633233487606048583984375</LatitudeDegrees>
              <LongitudeDegrees>-1.7918056435883045196533203125</LongitudeDegrees>
            </Position>
            <AltitudeMeters>569.20001220703125</AltitudeMeters>
            <DistanceMeters>11765.949183371</DistanceMeters>
          </Trackpoint>
          <Trackpoint>
            <Time>2021-08-09T09:01:37.000Z</Time>
            <Position>
              <LatitudeDegrees>42.9653206653892993927001953125</LatitudeDegrees>
              <LongitudeDegrees>-1.79177018813788890838623046875</LongitudeDegrees>
            </Position>
            <AltitudeMeters>569.4000244140625</AltitudeMeters>
            <DistanceMeters>11769.249224612</DistanceMeters>
          </Trackpoint>
          <Trackpoint>
            <Time>2021-08-09T09:01:38.000Z</Time>
            <Position>
              <LatitudeDegrees>42.96533600427210330963134765625</LatitudeDegrees>
              <LongitudeDegrees>-1.7917362414300441741943359375</LongitudeDegrees>
            </Position>
            <AltitudeMeters>569.5999755859375</AltitudeMeters>
            <DistanceMeters>11772.499638345</DistanceMeters>
          </Trackpoint>
          <Trackpoint>
            <Time>2021-08-09T09:01:39.000Z</Time>
            <Position>
              <LatitudeDegrees>42.965352348983287811279296875</LatitudeDegrees>
              <LongitudeDegrees>-1.7916993610560894012451171875</LongitudeDegrees>
            </Position>
            <AltitudeMeters>569.79998779296875</AltitudeMeters>
            <DistanceMeters>11776.01177223</DistanceMeters>
          </Trackpoint>
          <Trackpoint>
            <Time>2021-08-09T09:01:40.000Z</Time>
            <Position>
              <LatitudeDegrees>42.96536936424672603607177734375</LatitudeDegrees>
              <LongitudeDegrees>-1.7916668392717838287353515625</LongitudeDegrees>
            </Position>
            <AltitudeMeters>569.79998779296875</AltitudeMeters>
            <DistanceMeters>11779.267737485</DistanceMeters>
          </Trackpoint>
          <Trackpoint>
            <Time>2021-08-09T09:01:41.000Z</Time>
            <Position>
              <LatitudeDegrees>42.965385206043720245361328125</LatitudeDegrees>
              <LongitudeDegrees>-1.79164110682904720306396484375</LongitudeDegrees>
            </Position>
            <AltitudeMeters>570</AltitudeMeters>
            <DistanceMeters>11782.005430574</DistanceMeters>
          </Trackpoint>
          <Trackpoint>
            <Time>2021-08-09T09:01:42.000Z</Time>
            <Position>
              <LatitudeDegrees>42.9654064960777759552001953125</LatitudeDegrees>
              <LongitudeDegrees>-1.7916095070540904998779296875</LongitudeDegrees>
            </Position>
            <AltitudeMeters>570.20001220703125</AltitudeMeters>
            <DistanceMeters>11785.503394779</DistanceMeters>
          </Trackpoint>
          <Trackpoint>
            <Time>2021-08-09T09:01:43.000Z</Time>
            <Position>
              <LatitudeDegrees>42.96542569063603878021240234375</LatitudeDegrees>
              <LongitudeDegrees>-1.79157639853656291961669921875</LongitudeDegrees>
            </Position>
            <AltitudeMeters>570.4000244140625</AltitudeMeters>
            <DistanceMeters>11788.942784281</DistanceMeters>
          </Trackpoint>
          <Trackpoint>
            <Time>2021-08-09T09:01:44.000Z</Time>
            <Position>
              <LatitudeDegrees>42.9654463939368724822998046875</LatitudeDegrees>
              <LongitudeDegrees>-1.79154354147613048553466796875</LongitudeDegrees>
            </Position>
            <AltitudeMeters>570.5999755859375</AltitudeMeters>
            <DistanceMeters>11792.472870043</DistanceMeters>
          </Trackpoint>
          <Trackpoint>
            <Time>2021-08-09T09:01:45.000Z</Time>
            <Position>
              <LatitudeDegrees>42.96547044999897480010986328125</LatitudeDegrees>
              <LongitudeDegrees>-1.79151034913957118988037109375</LongitudeDegrees>
            </Position>
            <AltitudeMeters>570.79998779296875</AltitudeMeters>
            <DistanceMeters>11796.277500451</DistanceMeters>
          </Trackpoint>
          <Trackpoint>
            <Time>2021-08-09T09:01:46.000Z</Time>
            <Position>
              <LatitudeDegrees>42.965495176613330841064453125</LatitudeDegrees>
              <LongitudeDegrees>-1.79147833026945590972900390625</LongitudeDegrees>
            </Position>
            <AltitudeMeters>571</AltitudeMeters>
            <DistanceMeters>11800.069054446</DistanceMeters>
          </Trackpoint>
          <Trackpoint>
            <Time>2021-08-09T09:01:47.000Z</Time>
            <Position>
              <LatitudeDegrees>42.9655208252370357513427734375</LatitudeDegrees>
              <LongitudeDegrees>-1.79145033471286296844482421875</LongitudeDegrees>
            </Position>
            <AltitudeMeters>571.20001220703125</AltitudeMeters>
            <DistanceMeters>11803.723569881</DistanceMeters>
          </Trackpoint>
          <Trackpoint>
            <Time>2021-08-09T09:01:48.000Z</Time>
            <Position>
              <LatitudeDegrees>42.96554454602301120758056640625</LatitudeDegrees>
              <LongitudeDegrees>-1.7914207465946674346923828125</LongitudeDegrees>
            </Position>
            <AltitudeMeters>571.5999755859375</AltitudeMeters>
            <DistanceMeters>11807.298140928</DistanceMeters>
          </Trackpoint>
          <Trackpoint>
            <Time>2021-08-09T09:01:49.000Z</Time>
            <Position>
              <LatitudeDegrees>42.9655704461038112640380859375</LatitudeDegrees>
              <LongitudeDegrees>-1.79139434359967708587646484375</LongitudeDegrees>
            </Position>
            <AltitudeMeters>571.79998779296875</AltitudeMeters>
            <DistanceMeters>11810.894120553</DistanceMeters>
          </Trackpoint>
          <Trackpoint>
            <Time>2021-08-09T09:01:50.000Z</Time>
            <Position>
              <LatitudeDegrees>42.96559475362300872802734375</LatitudeDegrees>
              <LongitudeDegrees>-1.79136852733790874481201171875</LongitudeDegrees>
            </Position>
            <AltitudeMeters>572</AltitudeMeters>
            <DistanceMeters>11814.320357465</DistanceMeters>
          </Trackpoint>
          <Trackpoint>
            <Time>2021-08-09T09:01:51.000Z</Time>
            <Position>
              <LatitudeDegrees>42.965621910989284515380859375</LatitudeDegrees>
              <LongitudeDegrees>-1.7913468182086944580078125</LongitudeDegrees>
            </Position>
            <AltitudeMeters>572.20001220703125</AltitudeMeters>
            <DistanceMeters>11817.822191815</DistanceMeters>
          </Trackpoint>
          <Trackpoint>
            <Time>2021-08-09T09:01:52.000Z</Time>
            <Position>
              <LatitudeDegrees>42.96565116383135318756103515625</LatitudeDegrees>
              <LongitudeDegrees>-1.79132762365043163299560546875</LongitudeDegrees>
            </Position>
            <AltitudeMeters>572.4000244140625</AltitudeMeters>
            <DistanceMeters>11821.433206961</DistanceMeters>
          </Trackpoint>
          <Trackpoint>
            <Time>2021-08-09T09:01:53.000Z</Time>
            <Position>
              <LatitudeDegrees>42.965681590139865875244140625</LatitudeDegrees>
              <LongitudeDegrees>-1.7913080938160419464111328125</LongitudeDegrees>
            </Position>
            <AltitudeMeters>572.5999755859375</AltitudeMeters>
            <DistanceMeters>11825.174412447</DistanceMeters>
          </Trackpoint>
          <Trackpoint>
            <Time>2021-08-09T09:01:54.000Z</Time>
            <Position>
              <LatitudeDegrees>42.9657102562487125396728515625</LatitudeDegrees>
              <LongitudeDegrees>-1.7912889830768108367919921875</LongitudeDegrees>
            </Position>
            <AltitudeMeters>572.79998779296875</AltitudeMeters>
            <DistanceMeters>11828.724903499</DistanceMeters>
          </Trackpoint>
          <Trackpoint>
            <Time>2021-08-09T09:01:55.000Z</Time>
            <Position>
              <LatitudeDegrees>42.9657404311001300811767578125</LatitudeDegrees>
              <LongitudeDegrees>-1.791274063289165496826171875</LongitudeDegrees>
            </Position>
            <AltitudeMeters>573</AltitudeMeters>
            <DistanceMeters>11832.295683238</DistanceMeters>
          </Trackpoint>
          <Trackpoint>
            <Time>2021-08-09T09:01:56.000Z</Time>
            <Position>
              <LatitudeDegrees>42.965770773589611053466796875</LatitudeDegrees>
              <LongitudeDegrees>-1.79126224480569362640380859375</LongitudeDegrees>
            </Position>
            <AltitudeMeters>573.20001220703125</AltitudeMeters>
            <DistanceMeters>11835.807817122</DistanceMeters>
          </Trackpoint>
          <Trackpoint>
            <Time>2021-08-09T09:01:57.000Z</Time>
            <Position>
              <LatitudeDegrees>42.9658007808029651641845703125</LatitudeDegrees>
              <LongitudeDegrees>-1.79125637747347354888916015625</LongitudeDegrees>
            </Position>
            <AltitudeMeters>573.5999755859375</AltitudeMeters>
            <DistanceMeters>11839.180930865</DistanceMeters>
          </Trackpoint>
          <Trackpoint>
            <Time>2021-08-09T09:01:58.000Z</Time>
            <Position>
              <LatitudeDegrees>42.96583238057792186737060546875</LatitudeDegrees>
              <LongitudeDegrees>-1.79125453345477581024169921875</LongitudeDegrees>
            </Position>
            <AltitudeMeters>573.5999755859375</AltitudeMeters>
            <DistanceMeters>11842.702052129</DistanceMeters>
          </Trackpoint>
          <Trackpoint>
            <Time>2021-08-09T09:01:59.000Z</Time>
            <Position>
              <LatitudeDegrees>42.96586372889578342437744140625</LatitudeDegrees>
              <LongitudeDegrees>-1.791255287826061248779296875</LongitudeDegrees>
            </Position>
            <AltitudeMeters>574</AltitudeMeters>
            <DistanceMeters>11846.190969303</DistanceMeters>
          </Trackpoint>
          <Trackpoint>
            <Time>2021-08-09T09:02:00.000Z</Time>
            <Position>
              <LatitudeDegrees>42.965894825756549835205078125</LatitudeDegrees>
              <LongitudeDegrees>-1.7912608198821544647216796875</LongitudeDegrees>
            </Position>
            <AltitudeMeters>574.20001220703125</AltitudeMeters>
            <DistanceMeters>11849.679886477</DistanceMeters>
          </Trackpoint>
          <Trackpoint>
            <Time>2021-08-09T09:02:01.000Z</Time>
            <Position>
              <LatitudeDegrees>42.96592491678893566131591796875</LatitudeDegrees>
              <LongitudeDegrees>-1.79126610048115253448486328125</LongitudeDegrees>
            </Position>
            <AltitudeMeters>574.20001220703125</AltitudeMeters>
            <DistanceMeters>11853.055676232</DistanceMeters>
          </Trackpoint>
          <Trackpoint>
            <Time>2021-08-09T09:02:02.000Z</Time>
            <Position>
              <LatitudeDegrees>42.96595375053584575653076171875</LatitudeDegrees>
              <LongitudeDegrees>-1.7912755720317363739013671875</LongitudeDegrees>
            </Position>
            <AltitudeMeters>574.4000244140625</AltitudeMeters>
            <DistanceMeters>11856.355717473</DistanceMeters>
          </Trackpoint>
          <Trackpoint>
            <Time>2021-08-09T09:02:03.000Z</Time>
            <Position>
              <LatitudeDegrees>42.96598308719694614410400390625</LatitudeDegrees>
              <LongitudeDegrees>-1.79128822870552539825439453125</LongitudeDegrees>
            </Position>
            <AltitudeMeters>574.5999755859375</AltitudeMeters>
            <DistanceMeters>11859.779317804</DistanceMeters>
          </Trackpoint>
          <Trackpoint>
            <Time>2021-08-09T09:02:04.000Z</Time>
            <Position>
              <LatitudeDegrees>42.966010831296443939208984375</LatitudeDegrees>
              <LongitudeDegrees>-1.79130935110151767730712890625</LongitudeDegrees>
            </Position>
            <AltitudeMeters>574.79998779296875</AltitudeMeters>
            <DistanceMeters>11863.314515931</DistanceMeters>
          </Trackpoint>
          <Trackpoint>
            <Time>2021-08-09T09:02:05.000Z</Time>
            <Position>
              <LatitudeDegrees>42.96603824011981487274169921875</LatitudeDegrees>
              <LongitudeDegrees>-1.7913352511823177337646484375</LongitudeDegrees>
            </Position>
            <AltitudeMeters>574.79998779296875</AltitudeMeters>
            <DistanceMeters>11867.021775882</DistanceMeters>
          </Trackpoint>
          <Trackpoint>
            <Time>2021-08-09T09:02:06.000Z</Time>
            <Position>
              <LatitudeDegrees>42.96606657095253467559814453125</LatitudeDegrees>
              <LongitudeDegrees>-1.79137171246111392974853515625</LongitudeDegrees>
            </Position>
            <AltitudeMeters>575</AltitudeMeters>
            <DistanceMeters>11871.352534335</DistanceMeters>
          </Trackpoint>
          <Trackpoint>
            <Time>2021-08-09T09:02:07.000Z</Time>
            <Position>
              <LatitudeDegrees>42.96608065254986286163330078125</LatitudeDegrees>
              <LongitudeDegrees>-1.791398786008358001708984375</LongitudeDegrees>
            </Position>
            <AltitudeMeters>575.20001220703125</AltitudeMeters>
            <DistanceMeters>11874.058710973</DistanceMeters>
          </Trackpoint>
          <Trackpoint>
            <Time>2021-08-09T09:02:08.000Z</Time>
            <Position>
              <LatitudeDegrees>42.96609557233750820159912109375</LatitudeDegrees>
              <LongitudeDegrees>-1.79143323563039302825927734375</LongitudeDegrees>
            </Position>
            <AltitudeMeters>575.20001220703125</AltitudeMeters>
            <DistanceMeters>11877.318833666</DistanceMeters>
          </Trackpoint>
          <Trackpoint>
            <Time>2021-08-09T09:02:09.000Z</Time>
            <Position>
              <LatitudeDegrees>42.966116778552532196044921875</LatitudeDegrees>
              <LongitudeDegrees>-1.791475899517536163330078125</LongitudeDegrees>
            </Position>
            <AltitudeMeters>575.4000244140625</AltitudeMeters>
            <DistanceMeters>11881.51940141</DistanceMeters>
          </Trackpoint>
          <Trackpoint>
            <Time>2021-08-09T09:02:10.000Z</Time>
            <Position>
              <LatitudeDegrees>42.96613530255854129791259765625</LatitudeDegrees>
              <LongitudeDegrees>-1.79151252843439579010009765625</LongitudeDegrees>
            </Position>
            <AltitudeMeters>575.4000244140625</AltitudeMeters>
            <DistanceMeters>11885.146634705</DistanceMeters>
          </Trackpoint>
          <Trackpoint>
            <Time>2021-08-09T09:02:11.000Z</Time>
            <Position>
              <LatitudeDegrees>42.9661501385271549224853515625</LatitudeDegrees>
              <LongitudeDegrees>-1.79155209101736545562744140625</LongitudeDegrees>
            </Position>
            <AltitudeMeters>575.5999755859375</AltitudeMeters>
            <DistanceMeters>11888.767638847</DistanceMeters>
          </Trackpoint>
          <Trackpoint>
            <Time>2021-08-09T09:02:12.000Z</Time>
            <Position>
              <LatitudeDegrees>42.9661653935909271240234375</LatitudeDegrees>
              <LongitudeDegrees>-1.791589893400669097900390625</LongitudeDegrees>
            </Position>
            <AltitudeMeters>575.5999755859375</AltitudeMeters>
            <DistanceMeters>11892.283627279</DistanceMeters>
          </Trackpoint>
          <Trackpoint>
            <Time>2021-08-09T09:02:13.000Z</Time>
            <Position>
              <LatitudeDegrees>42.966181822121143341064453125</LatitudeDegrees>
              <LongitudeDegrees>-1.79162736050784587860107421875</LongitudeDegrees>
            </Position>
            <AltitudeMeters>575.79998779296875</AltitudeMeters>
            <DistanceMeters>11895.839201357</DistanceMeters>
          </Trackpoint>
          <Trackpoint>
            <Time>2021-08-09T09:02:14.000Z</Time>
            <Position>
              <LatitudeDegrees>42.9661970771849155426025390625</LatitudeDegrees>
              <LongitudeDegrees>-1.79167069494724273681640625</LongitudeDegrees>
            </Position>
            <AltitudeMeters>576</AltitudeMeters>
            <DistanceMeters>11899.754947748</DistanceMeters>
          </Trackpoint>
          <Trackpoint>
            <Time>2021-08-09T09:02:15.000Z</Time>
            <Position>
              <LatitudeDegrees>42.9662088118493556976318359375</LatitudeDegrees>
              <LongitudeDegrees>-1.7917142808437347412109375</LongitudeDegrees>
            </Position>
            <AltitudeMeters>576.20001220703125</AltitudeMeters>
            <DistanceMeters>11903.535769221</DistanceMeters>
          </Trackpoint>
          <Trackpoint>
            <Time>2021-08-09T09:02:16.000Z</Time>
            <Position>
              <LatitudeDegrees>42.966226078569889068603515625</LatitudeDegrees>
              <LongitudeDegrees>-1.791751496493816375732421875</LongitudeDegrees>
            </Position>
            <AltitudeMeters>576.5999755859375</AltitudeMeters>
            <DistanceMeters>11907.124207462</DistanceMeters>
          </Trackpoint>
          <Trackpoint>
            <Time>2021-08-09T09:02:17.000Z</Time>
            <Position>
              <LatitudeDegrees>42.96624259091913700103759765625</LatitudeDegrees>
              <LongitudeDegrees>-1.7917840182781219482421875</LongitudeDegrees>
            </Position>
            <AltitudeMeters>576.79998779296875</AltitudeMeters>
            <DistanceMeters>11910.34812092</DistanceMeters>
          </Trackpoint>
          <Trackpoint>
            <Time>2021-08-09T09:02:18.000Z</Time>
            <Position>
              <LatitudeDegrees>42.96625918708741664886474609375</LatitudeDegrees>
              <LongitudeDegrees>-1.79182316176593303680419921875</LongitudeDegrees>
            </Position>
            <AltitudeMeters>577</AltitudeMeters>
            <DistanceMeters>11914.033393634</DistanceMeters>
          </Trackpoint>
          <Trackpoint>
            <Time>2021-08-09T09:02:19.000Z</Time>
            <Position>
              <LatitudeDegrees>42.96628005802631378173828125</LatitudeDegrees>
              <LongitudeDegrees>-1.79186574183404445648193359375</LongitudeDegrees>
            </Position>
            <AltitudeMeters>577.20001220703125</AltitudeMeters>
            <DistanceMeters>11918.208084944</DistanceMeters>
          </Trackpoint>
          <Trackpoint>
            <Time>2021-08-09T09:02:20.000Z</Time>
            <Position>
              <LatitudeDegrees>42.966301850974559783935546875</LatitudeDegrees>
              <LongitudeDegrees>-1.791897676885128021240234375</LongitudeDegrees>
            </Position>
            <AltitudeMeters>577.4000244140625</AltitudeMeters>
            <DistanceMeters>11921.763659022</DistanceMeters>
          </Trackpoint>
          <Trackpoint>
            <Time>2021-08-09T09:02:21.000Z</Time>
            <Position>
              <LatitudeDegrees>42.96632356010377407073974609375</LatitudeDegrees>
              <LongitudeDegrees>-1.7919288575649261474609375</LongitudeDegrees>
            </Position>
            <AltitudeMeters>577.5999755859375</AltitudeMeters>
            <DistanceMeters>11925.268071093</DistanceMeters>
          </Trackpoint>
          <Trackpoint>
            <Time>2021-08-09T09:02:22.000Z</Time>
            <Position>
              <LatitudeDegrees>42.96634334139525890350341796875</LatitudeDegrees>
              <LongitudeDegrees>-1.79195693694055080413818359375</LongitudeDegrees>
            </Position>
            <AltitudeMeters>577.79998779296875</AltitudeMeters>
            <DistanceMeters>11928.442589215</DistanceMeters>
          </Trackpoint>
          <Trackpoint>
            <Time>2021-08-09T09:02:23.000Z</Time>
            <Position>
              <LatitudeDegrees>42.9663657210767269134521484375</LatitudeDegrees>
              <LongitudeDegrees>-1.79198962636291980743408203125</LongitudeDegrees>
            </Position>
            <AltitudeMeters>578</AltitudeMeters>
            <DistanceMeters>11932.088446114</DistanceMeters>
          </Trackpoint>
          <Trackpoint>
            <Time>2021-08-09T09:02:24.000Z</Time>
            <Position>
              <LatitudeDegrees>42.96639346517622470855712890625</LatitudeDegrees>
              <LongitudeDegrees>-1.79202583618462085723876953125</LongitudeDegrees>
            </Position>
            <AltitudeMeters>578.20001220703125</AltitudeMeters>
            <DistanceMeters>11936.359365736</DistanceMeters>
          </Trackpoint>
          <Trackpoint>
            <Time>2021-08-09T09:02:25.000Z</Time>
            <Position>
              <LatitudeDegrees>42.96641592867672443389892578125</LatitudeDegrees>
              <LongitudeDegrees>-1.79205182008445262908935546875</LongitudeDegrees>
            </Position>
            <AltitudeMeters>578.5999755859375</AltitudeMeters>
            <DistanceMeters>11939.634687219</DistanceMeters>
          </Trackpoint>
          <Trackpoint>
            <Time>2021-08-09T09:02:26.000Z</Time>
            <Position>
              <LatitudeDegrees>42.96643738634884357452392578125</LatitudeDegrees>
              <LongitudeDegrees>-1.7920768819749355316162109375</LongitudeDegrees>
            </Position>
            <AltitudeMeters>578.79998779296875</AltitudeMeters>
            <DistanceMeters>11942.777759542</DistanceMeters>
          </Trackpoint>
          <Trackpoint>
            <Time>2021-08-09T09:02:27.000Z</Time>
            <Position>
              <LatitudeDegrees>42.96645314432680606842041015625</LatitudeDegrees>
              <LongitudeDegrees>-1.792099177837371826171875</LongitudeDegrees>
            </Position>
            <AltitudeMeters>579</AltitudeMeters>
            <DistanceMeters>11945.302682109</DistanceMeters>
          </Trackpoint>
          <Trackpoint>
            <Time>2021-08-09T09:02:28.000Z</Time>
            <Position>
              <LatitudeDegrees>42.96647560782730579376220703125</LatitudeDegrees>
              <LongitudeDegrees>-1.79212524555623531341552734375</LongitudeDegrees>
            </Position>
            <AltitudeMeters>579.4000244140625</AltitudeMeters>
            <DistanceMeters>11948.583512967</DistanceMeters>
          </Trackpoint>
          <Trackpoint>
            <Time>2021-08-09T09:02:29.000Z</Time>
            <Position>
              <LatitudeDegrees>42.9665068723261356353759765625</LatitudeDegrees>
              <LongitudeDegrees>-1.79215793497860431671142578125</LongitudeDegrees>
            </Position>
            <AltitudeMeters>579.5999755859375</AltitudeMeters>
            <DistanceMeters>11952.965058644</DistanceMeters>
          </Trackpoint>
          <Trackpoint>
            <Time>2021-08-09T09:02:30.000Z</Time>
            <Position>
              <LatitudeDegrees>42.96653444878756999969482421875</LatitudeDegrees>
              <LongitudeDegrees>-1.79218157194554805755615234375</LongitudeDegrees>
            </Position>
            <AltitudeMeters>580</AltitudeMeters>
            <DistanceMeters>11956.588555733</DistanceMeters>
          </Trackpoint>
          <Trackpoint>
            <Time>2021-08-09T09:02:31.000Z</Time>
            <Position>
              <LatitudeDegrees>42.966561019420623779296875</LatitudeDegrees>
              <LongitudeDegrees>-1.79220378398895263671875</LongitudeDegrees>
            </Position>
            <AltitudeMeters>580</AltitudeMeters>
            <DistanceMeters>11960.056705358</DistanceMeters>
          </Trackpoint>
          <Trackpoint>
            <Time>2021-08-09T09:02:32.000Z</Time>
            <Position>
              <LatitudeDegrees>42.96658289618790149688720703125</LatitudeDegrees>
              <LongitudeDegrees>-1.7922217212617397308349609375</LongitudeDegrees>
            </Position>
            <AltitudeMeters>580.20001220703125</AltitudeMeters>
            <DistanceMeters>11962.897988227</DistanceMeters>
          </Trackpoint>
          <Trackpoint>
            <Time>2021-08-09T09:02:33.000Z</Time>
            <Position>
              <LatitudeDegrees>42.9666121490299701690673828125</LatitudeDegrees>
              <LongitudeDegrees>-1.79224527440965175628662109375</LongitudeDegrees>
            </Position>
            <AltitudeMeters>580.4000244140625</AltitudeMeters>
            <DistanceMeters>11966.677615316</DistanceMeters>
          </Trackpoint>
          <Trackpoint>
            <Time>2021-08-09T09:02:34.000Z</Time>
            <Position>
              <LatitudeDegrees>42.96664676629006862640380859375</LatitudeDegrees>
              <LongitudeDegrees>-1.79227494634687900543212890625</LongitudeDegrees>
            </Position>
            <AltitudeMeters>580.5999755859375</AltitudeMeters>
            <DistanceMeters>11971.226011202</DistanceMeters>
          </Trackpoint>
          <Trackpoint>
            <Time>2021-08-09T09:02:35.000Z</Time>
            <Position>
              <LatitudeDegrees>42.96667509712278842926025390625</LatitudeDegrees>
              <LongitudeDegrees>-1.7922995053231716156005859375</LongitudeDegrees>
            </Position>
            <AltitudeMeters>580.79998779296875</AltitudeMeters>
            <DistanceMeters>11974.959968624</DistanceMeters>
          </Trackpoint>
          <Trackpoint>
            <Time>2021-08-09T09:02:36.000Z</Time>
            <Position>
              <LatitudeDegrees>42.9667046852409839630126953125</LatitudeDegrees>
              <LongitudeDegrees>-1.79232180118560791015625</LongitudeDegrees>
            </Position>
            <AltitudeMeters>580.79998779296875</AltitudeMeters>
            <DistanceMeters>11978.720433982</DistanceMeters>
          </Trackpoint>
          <Trackpoint>
            <Time>2021-08-09T09:02:37.000Z</Time>
            <Position>
              <LatitudeDegrees>42.9667286574840545654296875</LatitudeDegrees>
              <LongitudeDegrees>-1.7923387326300144195556640625</LongitudeDegrees>
            </Position>
            <AltitudeMeters>581</AltitudeMeters>
            <DistanceMeters>11981.72243603</DistanceMeters>
          </Trackpoint>
          <Trackpoint>
            <Time>2021-08-09T09:02:38.000Z</Time>
            <Position>
              <LatitudeDegrees>42.9667589999735355377197265625</LatitudeDegrees>
              <LongitudeDegrees>-1.79235893301665782928466796875</LongitudeDegrees>
            </Position>
            <AltitudeMeters>581</AltitudeMeters>
            <DistanceMeters>11985.479297683</DistanceMeters>
          </Trackpoint>
          <Trackpoint>
            <Time>2021-08-09T09:02:39.000Z</Time>
            <Position>
              <LatitudeDegrees>42.96679529361426830291748046875</LatitudeDegrees>
              <LongitudeDegrees>-1.7923803068697452545166015625</LongitudeDegrees>
            </Position>
            <AltitudeMeters>581.20001220703125</AltitudeMeters>
            <DistanceMeters>11989.878326419</DistanceMeters>
          </Trackpoint>
          <Trackpoint>
            <Time>2021-08-09T09:02:40.000Z</Time>
            <Position>
              <LatitudeDegrees>42.96682714484632015228271484375</LatitudeDegrees>
              <LongitudeDegrees>-1.79239279590547084808349609375</LongitudeDegrees>
            </Position>
            <AltitudeMeters>581.20001220703125</AltitudeMeters>
            <DistanceMeters>11993.567272772</DistanceMeters>
          </Trackpoint>
          <Trackpoint>
            <Time>2021-08-09T09:02:41.000Z</Time>
            <Position>
              <LatitudeDegrees>42.9668579064309597015380859375</LatitudeDegrees>
              <LongitudeDegrees>-1.79239698685705661773681640625</LongitudeDegrees>
            </Position>
            <AltitudeMeters>581.5999755859375</AltitudeMeters>
            <DistanceMeters>11997.006662274</DistanceMeters>
          </Trackpoint>
          <Trackpoint>
            <Time>2021-08-09T09:02:42.000Z</Time>
            <Position>
              <LatitudeDegrees>42.96688355505466461181640625</LatitudeDegrees>
              <LongitudeDegrees>-1.79239866323769092559814453125</LongitudeDegrees>
            </Position>
            <AltitudeMeters>581.79998779296875</AltitudeMeters>
            <DistanceMeters>11999.863791796</DistanceMeters>
          </Trackpoint>
          <Trackpoint>
            <Time>2021-08-09T09:02:43.000Z</Time>
            <Position>
              <LatitudeDegrees>42.9669164121150970458984375</LatitudeDegrees>
              <LongitudeDegrees>-1.7923994176089763641357421875</LongitudeDegrees>
            </Position>
            <AltitudeMeters>581.79998779296875</AltitudeMeters>
            <DistanceMeters>12003.522011758</DistanceMeters>
          </Trackpoint>
          <Trackpoint>
            <Time>2021-08-09T09:02:44.000Z</Time>
            <Position>
              <LatitudeDegrees>42.966954298317432403564453125</LatitudeDegrees>
              <LongitudeDegrees>-1.79240101017057895660400390625</LongitudeDegrees>
            </Position>
            <AltitudeMeters>582</AltitudeMeters>
            <DistanceMeters>12007.741882697</DistanceMeters>
          </Trackpoint>
          <Trackpoint>
            <Time>2021-08-09T09:02:45.000Z</Time>
            <Position>
              <LatitudeDegrees>42.96698757447302341461181640625</LatitudeDegrees>
              <LongitudeDegrees>-1.79239715449512004852294921875</LongitudeDegrees>
            </Position>
            <AltitudeMeters>582</AltitudeMeters>
            <DistanceMeters>12011.458873007</DistanceMeters>
          </Trackpoint>
          <Trackpoint>
            <Time>2021-08-09T09:02:46.000Z</Time>
            <Position>
              <LatitudeDegrees>42.96702059917151927947998046875</LatitudeDegrees>
              <LongitudeDegrees>-1.79238491691648960113525390625</LongitudeDegrees>
            </Position>
            <AltitudeMeters>582.20001220703125</AltitudeMeters>
            <DistanceMeters>12015.267061916</DistanceMeters>
          </Trackpoint>
          <Trackpoint>
            <Time>2021-08-09T09:02:47.000Z</Time>
            <Position>
              <LatitudeDegrees>42.96704574488103389739990234375</LatitudeDegrees>
              <LongitudeDegrees>-1.792369745671749114990234375</LongitudeDegrees>
            </Position>
            <AltitudeMeters>582.20001220703125</AltitudeMeters>
            <DistanceMeters>12018.325682389</DistanceMeters>
          </Trackpoint>
          <Trackpoint>
            <Time>2021-08-09T09:02:48.000Z</Time>
            <Position>
              <LatitudeDegrees>42.96707960776984691619873046875</LatitudeDegrees>
              <LongitudeDegrees>-1.792351305484771728515625</LongitudeDegrees>
            </Position>
            <AltitudeMeters>582.4000244140625</AltitudeMeters>
            <DistanceMeters>12022.383000389</DistanceMeters>
          </Trackpoint>
          <Trackpoint>
            <Time>2021-08-09T09:02:49.000Z</Time>
            <Position>
              <LatitudeDegrees>42.96711749397218227386474609375</LatitudeDegrees>
              <LongitudeDegrees>-1.79232875816524028778076171875</LongitudeDegrees>
            </Position>
            <AltitudeMeters>582.5999755859375</AltitudeMeters>
            <DistanceMeters>12026.98174359</DistanceMeters>
          </Trackpoint>
          <Trackpoint>
            <Time>2021-08-09T09:02:50.000Z</Time>
            <Position>
              <LatitudeDegrees>42.96714766882359981536865234375</LatitudeDegrees>
              <LongitudeDegrees>-1.792308054864406585693359375</LongitudeDegrees>
            </Position>
            <AltitudeMeters>582.79998779296875</AltitudeMeters>
            <DistanceMeters>12030.739806863</DistanceMeters>
          </Trackpoint>
          <Trackpoint>
            <Time>2021-08-09T09:02:51.000Z</Time>
            <Position>
              <LatitudeDegrees>42.96717734076082706451416015625</LatitudeDegrees>
              <LongitudeDegrees>-1.792286597192287445068359375</LongitudeDegrees>
            </Position>
            <AltitudeMeters>582.79998779296875</AltitudeMeters>
            <DistanceMeters>12034.476181868</DistanceMeters>
          </Trackpoint>
          <Trackpoint>
            <Time>2021-08-09T09:02:52.000Z</Time>
            <Position>
              <LatitudeDegrees>42.96720030717551708221435546875</LatitudeDegrees>
              <LongitudeDegrees>-1.79226840846240520477294921875</LongitudeDegrees>
            </Position>
            <AltitudeMeters>583</AltitudeMeters>
            <DistanceMeters>12037.43271937</DistanceMeters>
          </Trackpoint>
          <Trackpoint>
            <Time>2021-08-09T09:02:53.000Z</Time>
            <Position>
              <LatitudeDegrees>42.96723098494112491607666015625</LatitudeDegrees>
              <LongitudeDegrees>-1.79223638959228992462158203125</LongitudeDegrees>
            </Position>
            <AltitudeMeters>583</AltitudeMeters>
            <DistanceMeters>12041.729986679</DistanceMeters>
          </Trackpoint>
          <Trackpoint>
            <Time>2021-08-09T09:02:54.000Z</Time>
            <Position>
              <LatitudeDegrees>42.9672572202980518341064453125</LatitudeDegrees>
              <LongitudeDegrees>-1.79220822639763355255126953125</LongitudeDegrees>
            </Position>
            <AltitudeMeters>583</AltitudeMeters>
            <DistanceMeters>12045.444546789</DistanceMeters>
          </Trackpoint>
          <Trackpoint>
            <Time>2021-08-09T09:02:55.000Z</Time>
            <Position>
              <LatitudeDegrees>42.96728320419788360595703125</LatitudeDegrees>
              <LongitudeDegrees>-1.79217956028878688812255859375</LongitudeDegrees>
            </Position>
            <AltitudeMeters>583.20001220703125</AltitudeMeters>
            <DistanceMeters>12049.159106898</DistanceMeters>
          </Trackpoint>
          <Trackpoint>
            <Time>2021-08-09T09:02:56.000Z</Time>
            <Position>
              <LatitudeDegrees>42.967301309108734130859375</LatitudeDegrees>
              <LongitudeDegrees>-1.792155168950557708740234375</LongitudeDegrees>
            </Position>
            <AltitudeMeters>583.20001220703125</AltitudeMeters>
            <DistanceMeters>12051.987648524</DistanceMeters>
          </Trackpoint>
          <Trackpoint>
            <Time>2021-08-09T09:02:57.000Z</Time>
            <Position>
              <LatitudeDegrees>42.967325113713741302490234375</LatitudeDegrees>
              <LongitudeDegrees>-1.7921221442520618438720703125</LongitudeDegrees>
            </Position>
            <AltitudeMeters>583.20001220703125</AltitudeMeters>
            <DistanceMeters>12055.762494299</DistanceMeters>
          </Trackpoint>
          <Trackpoint>
            <Time>2021-08-09T09:02:58.000Z</Time>
            <Position>
              <LatitudeDegrees>42.96735336072742938995361328125</LatitudeDegrees>
              <LongitudeDegrees>-1.792078725993633270263671875</LongitudeDegrees>
            </Position>
            <AltitudeMeters>583.4000244140625</AltitudeMeters>
            <DistanceMeters>12060.494786511</DistanceMeters>
          </Trackpoint>
          <Trackpoint>
            <Time>2021-08-09T09:02:59.000Z</Time>
            <Position>
              <LatitudeDegrees>42.96737565658986568450927734375</LatitudeDegrees>
              <LongitudeDegrees>-1.792040169239044189453125</LongitudeDegrees>
            </Position>
            <AltitudeMeters>583.4000244140625</AltitudeMeters>
            <DistanceMeters>12064.497205232</DistanceMeters>
          </Trackpoint>
          <Trackpoint>
            <Time>2021-08-09T09:03:00.000Z</Time>
            <Position>
              <LatitudeDegrees>42.96739174984395503997802734375</LatitudeDegrees>
              <LongitudeDegrees>-1.79201007820665836334228515625</LongitudeDegrees>
            </Position>
            <AltitudeMeters>583.4000244140625</AltitudeMeters>
            <DistanceMeters>12067.53211511</DistanceMeters>
          </Trackpoint>
          <Trackpoint>
            <Time>2021-08-09T09:03:01.000Z</Time>
            <Position>
              <LatitudeDegrees>42.96740968711674213409423828125</LatitudeDegrees>
              <LongitudeDegrees>-1.7919726110994815826416015625</LongitudeDegrees>
            </Position>
            <AltitudeMeters>583.5999755859375</AltitudeMeters>
            <DistanceMeters>12071.179210201</DistanceMeters>
          </Trackpoint>
          <Trackpoint>
            <Time>2021-08-09T09:03:02.000Z</Time>
            <Position>
              <LatitudeDegrees>42.96742561273276805877685546875</LatitudeDegrees>
              <LongitudeDegrees>-1.79193556308746337890625</LongitudeDegrees>
            </Position>
            <AltitudeMeters>584</AltitudeMeters>
            <DistanceMeters>12074.67846493</DistanceMeters>
          </Trackpoint>
          <Trackpoint>
            <Time>2021-08-09T09:03:03.000Z</Time>
            <Position>
              <LatitudeDegrees>42.96744522638618946075439453125</LatitudeDegrees>
              <LongitudeDegrees>-1.79188904352486133575439453125</LongitudeDegrees>
            </Position>
            <AltitudeMeters>584.20001220703125</AltitudeMeters>
            <DistanceMeters>12079.050726568</DistanceMeters>
          </Trackpoint>
          <Trackpoint>
            <Time>2021-08-09T09:03:04.000Z</Time>
            <Position>
              <LatitudeDegrees>42.96746115200221538543701171875</LatitudeDegrees>
              <LongitudeDegrees>-1.791855432093143463134765625</LongitudeDegrees>
            </Position>
            <AltitudeMeters>584.4000244140625</AltitudeMeters>
            <DistanceMeters>12082.312233896</DistanceMeters>
          </Trackpoint>
          <Trackpoint>
            <Time>2021-08-09T09:03:05.000Z</Time>
            <Position>
              <LatitudeDegrees>42.9674768261611461639404296875</LatitudeDegrees>
              <LongitudeDegrees>-1.79182223975658416748046875</LongitudeDegrees>
            </Position>
            <AltitudeMeters>584.5999755859375</AltitudeMeters>
            <DistanceMeters>12085.529137315</DistanceMeters>
          </Trackpoint>
          <Trackpoint>
            <Time>2021-08-09T09:03:06.000Z</Time>
            <Position>
              <LatitudeDegrees>42.9674875549972057342529296875</LatitudeDegrees>
              <LongitudeDegrees>-1.79179583676159381866455078125</LongitudeDegrees>
            </Position>
            <AltitudeMeters>584.5999755859375</AltitudeMeters>
            <DistanceMeters>12087.988842829</DistanceMeters>
          </Trackpoint>
          <Trackpoint>
            <Time>2021-08-09T09:03:07.000Z</Time>
            <Position>
              <LatitudeDegrees>42.96750071458518505096435546875</LatitudeDegrees>
              <LongitudeDegrees>-1.7917652428150177001953125</LongitudeDegrees>
            </Position>
            <AltitudeMeters>585</AltitudeMeters>
            <DistanceMeters>12090.880529325</DistanceMeters>
          </Trackpoint>
          <Trackpoint>
            <Time>2021-08-09T09:03:08.000Z</Time>
            <Position>
              <LatitudeDegrees>42.96751881949603557586669921875</LatitudeDegrees>
              <LongitudeDegrees>-1.79173146374523639678955078125</LongitudeDegrees>
            </Position>
            <AltitudeMeters>585.20001220703125</AltitudeMeters>
            <DistanceMeters>12094.290916174</DistanceMeters>
          </Trackpoint>
          <Trackpoint>
            <Time>2021-08-09T09:03:09.000Z</Time>
            <Position>
              <LatitudeDegrees>42.9675385169684886932373046875</LatitudeDegrees>
              <LongitudeDegrees>-1.79170279763638973236083984375</LongitudeDegrees>
            </Position>
            <AltitudeMeters>585.4000244140625</AltitudeMeters>
            <DistanceMeters>12097.492343475</DistanceMeters>
          </Trackpoint>
          <Trackpoint>
            <Time>2021-08-09T09:03:10.000Z</Time>
            <Position>
              <LatitudeDegrees>42.96755754388868808746337890625</LatitudeDegrees>
              <LongitudeDegrees>-1.79168100468814373016357421875</LongitudeDegrees>
            </Position>
            <AltitudeMeters>585.79998779296875</AltitudeMeters>
            <DistanceMeters>12100.253028991</DistanceMeters>
          </Trackpoint>
          <Trackpoint>
            <Time>2021-08-09T09:03:11.000Z</Time>
            <Position>
              <LatitudeDegrees>42.96758369542658329010009765625</LatitudeDegrees>
              <LongitudeDegrees>-1.79165904410183429718017578125</LongitudeDegrees>
            </Position>
            <AltitudeMeters>585.79998779296875</AltitudeMeters>
            <DistanceMeters>12103.668707366</DistanceMeters>
          </Trackpoint>
          <Trackpoint>
            <Time>2021-08-09T09:03:12.000Z</Time>
            <Position>
              <LatitudeDegrees>42.96761102043092250823974609375</LatitudeDegrees>
              <LongitudeDegrees>-1.7916447110474109649658203125</LongitudeDegrees>
            </Position>
            <AltitudeMeters>586.20001220703125</AltitudeMeters>
            <DistanceMeters>12106.927444836</DistanceMeters>
          </Trackpoint>
          <Trackpoint>
            <Time>2021-08-09T09:03:13.000Z</Time>
            <Position>
              <LatitudeDegrees>42.96764605678617954254150390625</LatitudeDegrees>
              <LongitudeDegrees>-1.79163406603038311004638671875</LongitudeDegrees>
            </Position>
            <AltitudeMeters>586.20001220703125</AltitudeMeters>
            <DistanceMeters>12110.921959209</DistanceMeters>
          </Trackpoint>
          <Trackpoint>
            <Time>2021-08-09T09:03:14.000Z</Time>
            <Position>
              <LatitudeDegrees>42.96767606399953365325927734375</LatitudeDegrees>
              <LongitudeDegrees>-1.79162518121302127838134765625</LongitudeDegrees>
            </Position>
            <AltitudeMeters>586.5999755859375</AltitudeMeters>
            <DistanceMeters>12114.340280277</DistanceMeters>
          </Trackpoint>
          <Trackpoint>
            <Time>2021-08-09T09:03:15.000Z</Time>
            <Position>
              <LatitudeDegrees>42.9677061550319194793701171875</LatitudeDegrees>
              <LongitudeDegrees>-1.79161730222404003143310546875</LongitudeDegrees>
            </Position>
            <AltitudeMeters>586.5999755859375</AltitudeMeters>
            <DistanceMeters>12117.750667126</DistanceMeters>
          </Trackpoint>
          <Trackpoint>
            <Time>2021-08-09T09:03:16.000Z</Time>
            <Position>
              <LatitudeDegrees>42.96772979199886322021484375</LatitudeDegrees>
              <LongitudeDegrees>-1.79161629639565944671630859375</LongitudeDegrees>
            </Position>
            <AltitudeMeters>586.79998779296875</AltitudeMeters>
            <DistanceMeters>12120.384124684</DistanceMeters>
          </Trackpoint>
          <Trackpoint>
            <Time>2021-08-09T09:03:17.000Z</Time>
            <Position>
              <LatitudeDegrees>42.967757619917392730712890625</LatitudeDegrees>
              <LongitudeDegrees>-1.79161612875759601593017578125</LongitudeDegrees>
            </Position>
            <AltitudeMeters>587</AltitudeMeters>
            <DistanceMeters>12123.483802302</DistanceMeters>
          </Trackpoint>
          <Trackpoint>
            <Time>2021-08-09T09:03:18.000Z</Time>
            <Position>
              <LatitudeDegrees>42.96779206953942775726318359375</LatitudeDegrees>
              <LongitudeDegrees>-1.79161914624273777008056640625</LongitudeDegrees>
            </Position>
            <AltitudeMeters>587.20001220703125</AltitudeMeters>
            <DistanceMeters>12127.325044927</DistanceMeters>
          </Trackpoint>
          <Trackpoint>
            <Time>2021-08-09T09:03:19.000Z</Time>
            <Position>
              <LatitudeDegrees>42.96782073564827442169189453125</LatitudeDegrees>
              <LongitudeDegrees>-1.79162350483238697052001953125</LongitudeDegrees>
            </Position>
            <AltitudeMeters>587.4000244140625</AltitudeMeters>
            <DistanceMeters>12130.536329296</DistanceMeters>
          </Trackpoint>
          <Trackpoint>
            <Time>2021-08-09T09:03:20.000Z</Time>
            <Position>
              <LatitudeDegrees>42.96784856356680393218994140625</LatitudeDegrees>
              <LongitudeDegrees>-1.79162953980267047882080078125</LongitudeDegrees>
            </Position>
            <AltitudeMeters>587.4000244140625</AltitudeMeters>
            <DistanceMeters>12133.673650339</DistanceMeters>
          </Trackpoint>
          <Trackpoint>
            <Time>2021-08-09T09:03:21.000Z</Time>
            <Position>
              <LatitudeDegrees>42.9678721167147159576416015625</LatitudeDegrees>
              <LongitudeDegrees>-1.7916383408010005950927734375</LongitudeDegrees>
            </Position>
            <AltitudeMeters>587.79998779296875</AltitudeMeters>
            <DistanceMeters>12136.391480821</DistanceMeters>
          </Trackpoint>
          <Trackpoint>
            <Time>2021-08-09T09:03:22.000Z</Time>
            <Position>
              <LatitudeDegrees>42.96790421940386295318603515625</LatitudeDegrees>
              <LongitudeDegrees>-1.791653931140899658203125</LongitudeDegrees>
            </Position>
            <AltitudeMeters>587.79998779296875</AltitudeMeters>
            <DistanceMeters>12140.183034817</DistanceMeters>
          </Trackpoint>
          <Trackpoint>
            <Time>2021-08-09T09:03:23.000Z</Time>
            <Position>
              <LatitudeDegrees>42.96792584471404552459716796875</LatitudeDegrees>
              <LongitudeDegrees>-1.7916658334434032440185546875</LongitudeDegrees>
            </Position>
            <AltitudeMeters>588</AltitudeMeters>
            <DistanceMeters>12142.77849952</DistanceMeters>
          </Trackpoint>
          <Trackpoint>
            <Time>2021-08-09T09:03:24.000Z</Time>
            <Position>
              <LatitudeDegrees>42.96795769594609737396240234375</LatitudeDegrees>
              <LongitudeDegrees>-1.79168972186744213104248046875</LongitudeDegrees>
            </Position>
            <AltitudeMeters>588.5999755859375</AltitudeMeters>
            <DistanceMeters>12146.822441711</DistanceMeters>
          </Trackpoint>
          <Trackpoint>
            <Time>2021-08-09T09:03:25.000Z</Time>
            <Position>
              <LatitudeDegrees>42.9679824225604534149169921875</LatitudeDegrees>
              <LongitudeDegrees>-1.79171419702470302581787109375</LongitudeDegrees>
            </Position>
            <AltitudeMeters>588.5999755859375</AltitudeMeters>
            <DistanceMeters>12150.219563683</DistanceMeters>
          </Trackpoint>
          <Trackpoint>
            <Time>2021-08-09T09:03:26.000Z</Time>
            <Position>
              <LatitudeDegrees>42.96800203621387481689453125</LatitudeDegrees>
              <LongitudeDegrees>-1.79173649288713932037353515625</LongitudeDegrees>
            </Position>
            <AltitudeMeters>589</AltitudeMeters>
            <DistanceMeters>12153.059257023</DistanceMeters>
          </Trackpoint>
          <Trackpoint>
            <Time>2021-08-09T09:03:27.000Z</Time>
            <Position>
              <LatitudeDegrees>42.96802659519016742706298828125</LatitudeDegrees>
              <LongitudeDegrees>-1.7917640693485736846923828125</LongitudeDegrees>
            </Position>
            <AltitudeMeters>589</AltitudeMeters>
            <DistanceMeters>12156.597008562</DistanceMeters>
          </Trackpoint>
          <Trackpoint>
            <Time>2021-08-09T09:03:28.000Z</Time>
            <Position>
              <LatitudeDegrees>42.96805174089968204498291015625</LatitudeDegrees>
              <LongitudeDegrees>-1.7917935736477375030517578125</LongitudeDegrees>
            </Position>
            <AltitudeMeters>589.20001220703125</AltitudeMeters>
            <DistanceMeters>12160.284730775</DistanceMeters>
          </Trackpoint>
          <Trackpoint>
            <Time>2021-08-09T09:03:29.000Z</Time>
            <Position>
              <LatitudeDegrees>42.96807353384792804718017578125</LatitudeDegrees>
              <LongitudeDegrees>-1.79181997664272785186767578125</LongitudeDegrees>
            </Position>
            <AltitudeMeters>589.20001220703125</AltitudeMeters>
            <DistanceMeters>12163.526799402</DistanceMeters>
          </Trackpoint>
          <Trackpoint>
            <Time>2021-08-09T09:03:30.000Z</Time>
            <Position>
              <LatitudeDegrees>42.9680992662906646728515625</LatitudeDegrees>
              <LongitudeDegrees>-1.79185400716960430145263671875</LongitudeDegrees>
            </Position>
            <AltitudeMeters>589.4000244140625</AltitudeMeters>
            <DistanceMeters>12167.513393756</DistanceMeters>
          </Trackpoint>
          <Trackpoint>
            <Time>2021-08-09T09:03:31.000Z</Time>
            <Position>
              <LatitudeDegrees>42.96811980195343494415283203125</LatitudeDegrees>
              <LongitudeDegrees>-1.79188166745007038116455078125</LongitudeDegrees>
            </Position>
            <AltitudeMeters>589.5999755859375</AltitudeMeters>
            <DistanceMeters>12170.723271826</DistanceMeters>
          </Trackpoint>
          <Trackpoint>
            <Time>2021-08-09T09:03:32.000Z</Time>
            <Position>
              <LatitudeDegrees>42.96814545057713985443115234375</LatitudeDegrees>
              <LongitudeDegrees>-1.7919159494340419769287109375</LongitudeDegrees>
            </Position>
            <AltitudeMeters>589.5999755859375</AltitudeMeters>
            <DistanceMeters>12174.716655729</DistanceMeters>
          </Trackpoint>
          <Trackpoint>
            <Time>2021-08-09T09:03:33.000Z</Time>
            <Position>
              <LatitudeDegrees>42.96817746944725513458251953125</LatitudeDegrees>
              <LongitudeDegrees>-1.79195676930248737335205078125</LongitudeDegrees>
            </Position>
            <AltitudeMeters>589.79998779296875</AltitudeMeters>
            <DistanceMeters>12179.58996067</DistanceMeters>
          </Trackpoint>
          <Trackpoint>
            <Time>2021-08-09T09:03:34.000Z</Time>
            <Position>
              <LatitudeDegrees>42.96820345334708690643310546875</LatitudeDegrees>
              <LongitudeDegrees>-1.7919913865625858306884765625</LongitudeDegrees>
            </Position>
            <AltitudeMeters>589.79998779296875</AltitudeMeters>
            <DistanceMeters>12183.628316531</DistanceMeters>
          </Trackpoint>
          <Trackpoint>
            <Time>2021-08-09T09:03:35.000Z</Time>
            <Position>
              <LatitudeDegrees>42.9682241566479206085205078125</LatitudeDegrees>
              <LongitudeDegrees>-1.79202130995690822601318359375</LongitudeDegrees>
            </Position>
            <AltitudeMeters>590</AltitudeMeters>
            <DistanceMeters>12186.982638407</DistanceMeters>
          </Trackpoint>
          <Trackpoint>
            <Time>2021-08-09T09:03:36.000Z</Time>
            <Position>
              <LatitudeDegrees>42.968249805271625518798828125</LatitudeDegrees>
              <LongitudeDegrees>-1.79205651395022869110107421875</LongitudeDegrees>
            </Position>
            <AltitudeMeters>590</AltitudeMeters>
            <DistanceMeters>12191.027696938</DistanceMeters>
          </Trackpoint>
          <Trackpoint>
            <Time>2021-08-09T09:03:37.000Z</Time>
            <Position>
              <LatitudeDegrees>42.968272604048252105712890625</LatitudeDegrees>
              <LongitudeDegrees>-1.79209255613386631011962890625</LongitudeDegrees>
            </Position>
            <AltitudeMeters>590.20001220703125</AltitudeMeters>
            <DistanceMeters>12194.906370339</DistanceMeters>
          </Trackpoint>
          <Trackpoint>
            <Time>2021-08-09T09:03:38.000Z</Time>
            <Position>
              <LatitudeDegrees>42.96829766593873500823974609375</LatitudeDegrees>
              <LongitudeDegrees>-1.792127005755901336669921875</LongitudeDegrees>
            </Position>
            <AltitudeMeters>590.4000244140625</AltitudeMeters>
            <DistanceMeters>12198.863408695</DistanceMeters>
          </Trackpoint>
          <Trackpoint>
            <Time>2021-08-09T09:03:39.000Z</Time>
            <Position>
              <LatitudeDegrees>42.96832566149532794952392578125</LatitudeDegrees>
              <LongitudeDegrees>-1.79216514341533184051513671875</LongitudeDegrees>
            </Position>
            <AltitudeMeters>590.5999755859375</AltitudeMeters>
            <DistanceMeters>12203.263463683</DistanceMeters>
          </Trackpoint>
          <Trackpoint>
            <Time>2021-08-09T09:03:40.000Z</Time>
            <Position>
              <LatitudeDegrees>42.96835131011903285980224609375</LatitudeDegrees>
              <LongitudeDegrees>-1.7921959049999713897705078125</LongitudeDegrees>
            </Position>
            <AltitudeMeters>590.5999755859375</AltitudeMeters>
            <DistanceMeters>12207.060967084</DistanceMeters>
          </Trackpoint>
          <Trackpoint>
            <Time>2021-08-09T09:03:41.000Z</Time>
            <Position>
              <LatitudeDegrees>42.96837327070534229278564453125</LatitudeDegrees>
              <LongitudeDegrees>-1.79222113452851772308349609375</LongitudeDegrees>
            </Position>
            <AltitudeMeters>590.5999755859375</AltitudeMeters>
            <DistanceMeters>12210.25392125</DistanceMeters>
          </Trackpoint>
          <Trackpoint>
            <Time>2021-08-09T09:03:42.000Z</Time>
            <Position>
              <LatitudeDegrees>42.9683971591293811798095703125</LatitudeDegrees>
              <LongitudeDegrees>-1.7922525666654109954833984375</LongitudeDegrees>
            </Position>
            <AltitudeMeters>590.79998779296875</AltitudeMeters>
            <DistanceMeters>12213.945314667</DistanceMeters>
          </Trackpoint>
          <Trackpoint>
            <Time>2021-08-09T09:03:43.000Z</Time>
            <Position>
              <LatitudeDegrees>42.968421466648578643798828125</LatitudeDegrees>
              <LongitudeDegrees>-1.79229171015322208404541015625</LongitudeDegrees>
            </Position>
            <AltitudeMeters>590.79998779296875</AltitudeMeters>
            <DistanceMeters>12218.126490099</DistanceMeters>
          </Trackpoint>
          <Trackpoint>
            <Time>2021-08-09T09:03:44.000Z</Time>
            <Position>
              <LatitudeDegrees>42.96844133175909519195556640625</LatitudeDegrees>
              <LongitudeDegrees>-1.79232104681432247161865234375</LongitudeDegrees>
            </Position>
            <AltitudeMeters>591</AltitudeMeters>
            <DistanceMeters>12221.382455354</DistanceMeters>
          </Trackpoint>
          <Trackpoint>
            <Time>2021-08-09T09:03:45.000Z</Time>
            <Position>
              <LatitudeDegrees>42.96845776028931140899658203125</LatitudeDegrees>
              <LongitudeDegrees>-1.7923451028764247894287109375</LongitudeDegrees>
            </Position>
            <AltitudeMeters>591.20001220703125</AltitudeMeters>
            <DistanceMeters>12224.060118645</DistanceMeters>
          </Trackpoint>
          <Trackpoint>
            <Time>2021-08-09T09:03:46.000Z</Time>
            <Position>
              <LatitudeDegrees>42.9684793017804622650146484375</LatitudeDegrees>
              <LongitudeDegrees>-1.79237234406173229217529296875</LongitudeDegrees>
            </Position>
            <AltitudeMeters>591.20001220703125</AltitudeMeters>
            <DistanceMeters>12227.327158644</DistanceMeters>
          </Trackpoint>
          <Trackpoint>
            <Time>2021-08-09T09:03:47.000Z</Time>
            <Position>
              <LatitudeDegrees>42.96850268729031085968017578125</LatitudeDegrees>
              <LongitudeDegrees>-1.792404949665069580078125</LongitudeDegrees>
            </Position>
            <AltitudeMeters>591.20001220703125</AltitudeMeters>
            <DistanceMeters>12231.046577565</DistanceMeters>
          </Trackpoint>
          <Trackpoint>
            <Time>2021-08-09T09:03:48.000Z</Time>
            <Position>
              <LatitudeDegrees>42.96852104365825653076171875</LatitudeDegrees>
              <LongitudeDegrees>-1.79243034683167934417724609375</LongitudeDegrees>
            </Position>
            <AltitudeMeters>591.4000244140625</AltitudeMeters>
            <DistanceMeters>12233.953835991</DistanceMeters>
          </Trackpoint>
          <Trackpoint>
            <Time>2021-08-09T09:03:49.000Z</Time>
            <Position>
              <LatitudeDegrees>42.9685430042445659637451171875</LatitudeDegrees>
              <LongitudeDegrees>-1.79245079867541790008544921875</LongitudeDegrees>
            </Position>
            <AltitudeMeters>591.4000244140625</AltitudeMeters>
            <DistanceMeters>12236.91342619</DistanceMeters>
          </Trackpoint>
          <Trackpoint>
            <Time>2021-08-09T09:03:50.000Z</Time>
            <Position>
              <LatitudeDegrees>42.96856186352670192718505859375</LatitudeDegrees>
              <LongitudeDegrees>-1.79246370680630207061767578125</LongitudeDegrees>
            </Position>
            <AltitudeMeters>591.4000244140625</AltitudeMeters>
            <DistanceMeters>12239.262335875</DistanceMeters>
          </Trackpoint>
          <Trackpoint>
            <Time>2021-08-09T09:03:51.000Z</Time>
            <Position>
              <LatitudeDegrees>42.96858617104589939117431640625</LatitudeDegrees>
              <LongitudeDegrees>-1.79247963242232799530029296875</LongitudeDegrees>
            </Position>
            <AltitudeMeters>591.5999755859375</AltitudeMeters>
            <DistanceMeters>12242.262833536</DistanceMeters>
          </Trackpoint>
          <Trackpoint>
            <Time>2021-08-09T09:03:52.000Z</Time>
            <Position>
              <LatitudeDegrees>42.9686150886118412017822265625</LatitudeDegrees>
              <LongitudeDegrees>-1.79249346256256103515625</LongitudeDegrees>
            </Position>
            <AltitudeMeters>591.5999755859375</AltitudeMeters>
            <DistanceMeters>12245.673220385</DistanceMeters>
          </Trackpoint>
          <Trackpoint>
            <Time>2021-08-09T09:03:53.000Z</Time>
            <Position>
              <LatitudeDegrees>42.968639396131038665771484375</LatitudeDegrees>
              <LongitudeDegrees>-1.792501844465732574462890625</LongitudeDegrees>
            </Position>
            <AltitudeMeters>591.5999755859375</AltitudeMeters>
            <DistanceMeters>12248.463189183</DistanceMeters>
          </Trackpoint>
          <Trackpoint>
            <Time>2021-08-09T09:03:54.000Z</Time>
            <Position>
              <LatitudeDegrees>42.96865808777511119842529296875</LatitudeDegrees>
              <LongitudeDegrees>-1.79250461049377918243408203125</LongitudeDegrees>
            </Position>
            <AltitudeMeters>591.5999755859375</AltitudeMeters>
            <DistanceMeters>12250.5537769</DistanceMeters>
          </Trackpoint>
          <Trackpoint>
            <Time>2021-08-09T09:03:55.000Z</Time>
            <Position>
              <LatitudeDegrees>42.96868004836142063140869140625</LatitudeDegrees>
              <LongitudeDegrees>-1.79250846616923809051513671875</LongitudeDegrees>
            </Position>
            <AltitudeMeters>591.5999755859375</AltitudeMeters>
            <DistanceMeters>12253.017150881</DistanceMeters>
          </Trackpoint>
          <Trackpoint>
            <Time>2021-08-09T09:03:56.000Z</Time>
            <Position>
              <LatitudeDegrees>42.968702428042888641357421875</LatitudeDegrees>
              <LongitudeDegrees>-1.79251156747341156005859375</LongitudeDegrees>
            </Position>
            <AltitudeMeters>591.5999755859375</AltitudeMeters>
            <DistanceMeters>12255.520523216</DistanceMeters>
          </Trackpoint>
          <Trackpoint>
            <Time>2021-08-09T09:03:57.000Z</Time>
            <Position>
              <LatitudeDegrees>42.96873000450432300567626953125</LatitudeDegrees>
              <LongitudeDegrees>-1.7925124056637287139892578125</LongitudeDegrees>
            </Position>
            <AltitudeMeters>591.5999755859375</AltitudeMeters>
            <DistanceMeters>12258.590930324</DistanceMeters>
          </Trackpoint>
          <Trackpoint>
            <Time>2021-08-09T09:03:58.000Z</Time>
            <Position>
              <LatitudeDegrees>42.96875447966158390045166015625</LatitudeDegrees>
              <LongitudeDegrees>-1.79251081310212612152099609375</LongitudeDegrees>
            </Position>
            <AltitudeMeters>591.79998779296875</AltitudeMeters>
            <DistanceMeters>12261.318710189</DistanceMeters>
          </Trackpoint>
          <Trackpoint>
            <Time>2021-08-09T09:03:59.000Z</Time>
            <Position>
              <LatitudeDegrees>42.96877853572368621826171875</LatitudeDegrees>
              <LongitudeDegrees>-1.7925046943128108978271484375</LongitudeDegrees>
            </Position>
            <AltitudeMeters>591.79998779296875</AltitudeMeters>
            <DistanceMeters>12264.039861174</DistanceMeters>
          </Trackpoint>
          <Trackpoint>
            <Time>2021-08-09T09:04:00.000Z</Time>
            <Position>
              <LatitudeDegrees>42.9687964729964733123779296875</LatitudeDegrees>
              <LongitudeDegrees>-1.79249941371381282806396484375</LongitudeDegrees>
            </Position>
            <AltitudeMeters>591.79998779296875</AltitudeMeters>
            <DistanceMeters>12266.077957139</DistanceMeters>
          </Trackpoint>
          <Trackpoint>
            <Time>2021-08-09T09:04:01.000Z</Time>
            <Position>
              <LatitudeDegrees>42.96881600283086299896240234375</LatitudeDegrees>
              <LongitudeDegrees>-1.79249002598226070404052734375</LongitudeDegrees>
            </Position>
            <AltitudeMeters>592</AltitudeMeters>
            <DistanceMeters>12268.382232503</DistanceMeters>
          </Trackpoint>
          <Trackpoint>
            <Time>2021-08-09T09:04:02.000Z</Time>
            <Position>
              <LatitudeDegrees>42.9688357003033161163330078125</LatitudeDegrees>
              <LongitudeDegrees>-1.7924787104129791259765625</LongitudeDegrees>
            </Position>
            <AltitudeMeters>592</AltitudeMeters>
            <DistanceMeters>12270.761698394</DistanceMeters>
          </Trackpoint>
          <Trackpoint>
            <Time>2021-08-09T09:04:03.000Z</Time>
            <Position>
              <LatitudeDegrees>42.96885137446224689483642578125</LatitudeDegrees>
              <LongitudeDegrees>-1.79247393272817134857177734375</LongitudeDegrees>
            </Position>
            <AltitudeMeters>592</AltitudeMeters>
            <DistanceMeters>12272.549615356</DistanceMeters>
          </Trackpoint>
          <Trackpoint>
            <Time>2021-08-09T09:04:04.000Z</Time>
            <Position>
              <LatitudeDegrees>42.9688618518412113189697265625</LatitudeDegrees>
              <LongitudeDegrees>-1.79247091524302959442138671875</LongitudeDegrees>
            </Position>
            <AltitudeMeters>592</AltitudeMeters>
            <DistanceMeters>12273.736498638</DistanceMeters>
          </Trackpoint>
          <Trackpoint>
            <Time>2021-08-09T09:04:05.000Z</Time>
            <Position>
              <LatitudeDegrees>42.96887434087693691253662109375</LatitudeDegrees>
              <LongitudeDegrees>-1.792466975748538970947265625</LongitudeDegrees>
            </Position>
            <AltitudeMeters>592.20001220703125</AltitudeMeters>
            <DistanceMeters>12275.158728269</DistanceMeters>
          </Trackpoint>
          <Trackpoint>
            <Time>2021-08-09T09:04:06.000Z</Time>
            <Position>
              <LatitudeDegrees>42.968887500464916229248046875</LatitudeDegrees>
              <LongitudeDegrees>-1.7924679815769195556640625</LongitudeDegrees>
            </Position>
            <AltitudeMeters>592.20001220703125</AltitudeMeters>
            <DistanceMeters>12276.624729017</DistanceMeters>
          </Trackpoint>
          <Trackpoint>
            <Time>2021-08-09T09:04:07.000Z</Time>
            <Position>
              <LatitudeDegrees>42.96890183351933956146240234375</LatitudeDegrees>
              <LongitudeDegrees>-1.792467646300792694091796875</LongitudeDegrees>
            </Position>
            <AltitudeMeters>592.20001220703125</AltitudeMeters>
            <DistanceMeters>12278.220498912</DistanceMeters>
          </Trackpoint>
          <Trackpoint>
            <Time>2021-08-09T09:04:08.000Z</Time>
            <Position>
              <LatitudeDegrees>42.96891222707927227020263671875</LatitudeDegrees>
              <LongitudeDegrees>-1.79246999323368072509765625</LongitudeDegrees>
            </Position>
            <AltitudeMeters>592.20001220703125</AltitudeMeters>
            <DistanceMeters>12279.392066929</DistanceMeters>
          </Trackpoint>
          <Trackpoint>
            <Time>2021-08-09T09:04:09.000Z</Time>
            <Position>
              <LatitudeDegrees>42.96891926787793636322021484375</LatitudeDegrees>
              <LongitudeDegrees>-1.79248030297458171844482421875</LongitudeDegrees>
            </Position>
            <AltitudeMeters>592.4000244140625</AltitudeMeters>
            <DistanceMeters>12280.540279088</DistanceMeters>
          </Trackpoint>
          <Trackpoint>
            <Time>2021-08-09T09:04:10.000Z</Time>
            <Position>
              <LatitudeDegrees>42.9689215309917926788330078125</LatitudeDegrees>
              <LongitudeDegrees>-1.7924912832677364349365234375</LongitudeDegrees>
            </Position>
            <AltitudeMeters>592.4000244140625</AltitudeMeters>
            <DistanceMeters>12281.46648493</DistanceMeters>
          </Trackpoint>
          <Trackpoint>
            <Time>2021-08-09T09:04:11.000Z</Time>
            <Position>
              <LatitudeDegrees>42.96892262063920497894287109375</LatitudeDegrees>
              <LongitudeDegrees>-1.7925033532083034515380859375</LongitudeDegrees>
            </Position>
            <AltitudeMeters>592.4000244140625</AltitudeMeters>
            <DistanceMeters>12282.458592955</DistanceMeters>
          </Trackpoint>
          <Trackpoint>
            <Time>2021-08-09T09:04:12.000Z</Time>
            <Position>
              <LatitudeDegrees>42.9689248837530612945556640625</LatitudeDegrees>
              <LongitudeDegrees>-1.7925167642533779144287109375</LongitudeDegrees>
            </Position>
            <AltitudeMeters>592.5999755859375</AltitudeMeters>
            <DistanceMeters>12283.582964202</DistanceMeters>
          </Trackpoint>
          <Trackpoint>
            <Time>2021-08-09T09:04:13.000Z</Time>
            <Position>
              <LatitudeDegrees>42.9689242132008075714111328125</LatitudeDegrees>
              <LongitudeDegrees>-1.7925281636416912078857421875</LongitudeDegrees>
            </Position>
            <AltitudeMeters>592.5999755859375</AltitudeMeters>
            <DistanceMeters>12284.514032051</DistanceMeters>
          </Trackpoint>
          <Trackpoint>
            <Time>2021-08-09T09:04:14.000Z</Time>
            <Position>
              <LatitudeDegrees>42.96891725622117519378662109375</LatitudeDegrees>
              <LongitudeDegrees>-1.7925395630300045013427734375</LongitudeDegrees>
            </Position>
            <AltitudeMeters>592.5999755859375</AltitudeMeters>
            <DistanceMeters>12285.723524665</DistanceMeters>
          </Trackpoint>
          <Trackpoint>
            <Time>2021-08-09T09:04:15.000Z</Time>
            <Position>
              <LatitudeDegrees>42.96890669502317905426025390625</LatitudeDegrees>
              <LongitudeDegrees>-1.79254450835287570953369140625</LongitudeDegrees>
            </Position>
            <AltitudeMeters>592.5999755859375</AltitudeMeters>
            <DistanceMeters>12286.9661602</DistanceMeters>
          </Trackpoint>
          <Trackpoint>
            <Time>2021-08-09T09:04:16.000Z</Time>
            <Position>
              <LatitudeDegrees>42.9688923619687557220458984375</LatitudeDegrees>
              <LongitudeDegrees>-1.79254115559160709381103515625</LongitudeDegrees>
            </Position>
            <AltitudeMeters>592.5999755859375</AltitudeMeters>
            <DistanceMeters>12288.584406834</DistanceMeters>
          </Trackpoint>
          <Trackpoint>
            <Time>2021-08-09T09:04:17.000Z</Time>
            <Position>
              <LatitudeDegrees>42.96887719072401523590087890625</LatitudeDegrees>
              <LongitudeDegrees>-1.79253227077424526214599609375</LongitudeDegrees>
            </Position>
            <AltitudeMeters>592.4000244140625</AltitudeMeters>
            <DistanceMeters>12290.422136028</DistanceMeters>
          </Trackpoint>
          <Trackpoint>
            <Time>2021-08-09T09:04:24.000Z</Time>
            <Position>
              <LatitudeDegrees>42.9687823913991451263427734375</LatitudeDegrees>
              <LongitudeDegrees>-1.79249438457190990447998046875</LongitudeDegrees>
            </Position>
            <AltitudeMeters>592.20001220703125</AltitudeMeters>
            <DistanceMeters>12301.414882862</DistanceMeters>
          </Trackpoint>
          <Trackpoint>
            <Time>2021-08-09T09:04:30.000Z</Time>
            <Position>
              <LatitudeDegrees>42.96871759928762912750244140625</LatitudeDegrees>
              <LongitudeDegrees>-1.79249438457190990447998046875</LongitudeDegrees>
            </Position>
            <AltitudeMeters>592</AltitudeMeters>
            <DistanceMeters>12308.626903406</DistanceMeters>
          </Trackpoint>
          <Trackpoint>
            <Time>2021-08-09T09:04:48.000Z</Time>
            <Position>
              <LatitudeDegrees>42.968720532953739166259765625</LatitudeDegrees>
              <LongitudeDegrees>-1.7924921214580535888671875</LongitudeDegrees>
            </Position>
            <AltitudeMeters>592</AltitudeMeters>
            <DistanceMeters>12308.994940288</DistanceMeters>
          </Trackpoint>
          <Trackpoint>
            <Time>2021-08-09T09:04:50.000Z</Time>
            <Position>
              <LatitudeDegrees>42.9687569104135036468505859375</LatitudeDegrees>
              <LongitudeDegrees>-1.79250494576990604400634765625</LongitudeDegrees>
            </Position>
            <AltitudeMeters>592</AltitudeMeters>
            <DistanceMeters>12313.17611572</DistanceMeters>
          </Trackpoint>
          <Trackpoint>
            <Time>2021-08-09T09:04:51.000Z</Time>
            <Position>
              <LatitudeDegrees>42.96877308748662471771240234375</LatitudeDegrees>
              <LongitudeDegrees>-1.7925080470740795135498046875</LongitudeDegrees>
            </Position>
            <AltitudeMeters>592</AltitudeMeters>
            <DistanceMeters>12314.994083811</DistanceMeters>
          </Trackpoint>
          <Trackpoint>
            <Time>2021-08-09T09:04:52.000Z</Time>
            <Position>
              <LatitudeDegrees>42.96878884546458721160888671875</LatitudeDegrees>
              <LongitudeDegrees>-1.792500503361225128173828125</LongitudeDegrees>
            </Position>
            <AltitudeMeters>592</AltitudeMeters>
            <DistanceMeters>12316.851363865</DistanceMeters>
          </Trackpoint>
          <Trackpoint>
            <Time>2021-08-09T09:04:53.000Z</Time>
            <Position>
              <LatitudeDegrees>42.968794293701648712158203125</LatitudeDegrees>
              <LongitudeDegrees>-1.7924983240664005279541015625</LongitudeDegrees>
            </Position>
            <AltitudeMeters>592</AltitudeMeters>
            <DistanceMeters>12317.495866399</DistanceMeters>
          </Trackpoint>
          <Trackpoint>
            <Time>2021-08-09T09:04:54.000Z</Time>
            <Position>
              <LatitudeDegrees>42.96879722736775875091552734375</LatitudeDegrees>
              <LongitudeDegrees>-1.79249606095254421234130859375</LongitudeDegrees>
            </Position>
            <AltitudeMeters>592.20001220703125</AltitudeMeters>
            <DistanceMeters>12317.875973257</DistanceMeters>
          </Trackpoint>
          <Trackpoint>
            <Time>2021-08-09T09:05:21.000Z</Time>
            <Position>
              <LatitudeDegrees>42.968807704746723175048828125</LatitudeDegrees>
              <LongitudeDegrees>-1.7924899421632289886474609375</LongitudeDegrees>
            </Position>
            <AltitudeMeters>592.20001220703125</AltitudeMeters>
            <DistanceMeters>12319.143787757</DistanceMeters>
          </Trackpoint>
          <Trackpoint>
            <Time>2021-08-09T09:05:25.000Z</Time>
            <Position>
              <LatitudeDegrees>42.96885690651834011077880859375</LatitudeDegrees>
              <LongitudeDegrees>-1.7924815602600574493408203125</LongitudeDegrees>
            </Position>
            <AltitudeMeters>592</AltitudeMeters>
            <DistanceMeters>12324.661068581</DistanceMeters>
          </Trackpoint>
          <Trackpoint>
            <Time>2021-08-09T09:05:26.000Z</Time>
            <Position>
              <LatitudeDegrees>42.96886931173503398895263671875</LatitudeDegrees>
              <LongitudeDegrees>-1.7924899421632289886474609375</LongitudeDegrees>
            </Position>
            <AltitudeMeters>592</AltitudeMeters>
            <DistanceMeters>12326.199210327</DistanceMeters>
          </Trackpoint>
          <Trackpoint>
            <Time>2021-08-09T09:05:27.000Z</Time>
            <Position>
              <LatitudeDegrees>42.96887576580047607421875</LatitudeDegrees>
              <LongitudeDegrees>-1.79250561632215976715087890625</LongitudeDegrees>
            </Position>
            <AltitudeMeters>592</AltitudeMeters>
            <DistanceMeters>12327.665211075</DistanceMeters>
          </Trackpoint>
          <Trackpoint>
            <Time>2021-08-09T09:05:29.000Z</Time>
            <Position>
              <LatitudeDegrees>42.96886813826858997344970703125</LatitudeDegrees>
              <LongitudeDegrees>-1.7925251461565494537353515625</LongitudeDegrees>
            </Position>
            <AltitudeMeters>592</AltitudeMeters>
            <DistanceMeters>12329.468216211</DistanceMeters>
          </Trackpoint>
          <Trackpoint>
            <Time>2021-08-09T09:05:30.000Z</Time>
            <Position>
              <LatitudeDegrees>42.968862354755401611328125</LatitudeDegrees>
              <LongitudeDegrees>-1.7925194464623928070068359375</LongitudeDegrees>
            </Position>
            <AltitudeMeters>592</AltitudeMeters>
            <DistanceMeters>12330.263266744</DistanceMeters>
          </Trackpoint>
          <Trackpoint>
            <Time>2021-08-09T09:05:31.000Z</Time>
            <Position>
              <LatitudeDegrees>42.96885875053703784942626953125</LatitudeDegrees>
              <LongitudeDegrees>-1.79251366294920444488525390625</LongitudeDegrees>
            </Position>
            <AltitudeMeters>592</AltitudeMeters>
            <DistanceMeters>12330.879110239</DistanceMeters>
          </Trackpoint>
          <Trackpoint>
            <Time>2021-08-09T09:05:34.000Z</Time>
            <Position>
              <LatitudeDegrees>42.96885875053703784942626953125</LatitudeDegrees>
              <LongitudeDegrees>-1.79251366294920444488525390625</LongitudeDegrees>
            </Position>
            <AltitudeMeters>591.79998779296875</AltitudeMeters>
            <DistanceMeters>12330.879110239</DistanceMeters>
          </Trackpoint>
          <Trackpoint>
            <Time>2021-08-09T09:05:39.000Z</Time>
            <Position>
              <LatitudeDegrees>42.968857325613498687744140625</LatitudeDegrees>
              <LongitudeDegrees>-1.792511902749538421630859375</LongitudeDegrees>
            </Position>
            <AltitudeMeters>591.79998779296875</AltitudeMeters>
            <DistanceMeters>12331.091596432</DistanceMeters>
          </Trackpoint>
          <Trackpoint>
            <Time>2021-08-09T09:05:41.000Z</Time>
            <Position>
              <LatitudeDegrees>42.968857996165752410888671875</LatitudeDegrees>
              <LongitudeDegrees>-1.79247678257524967193603515625</LongitudeDegrees>
            </Position>
            <AltitudeMeters>591.79998779296875</AltitudeMeters>
            <DistanceMeters>12333.95346284</DistanceMeters>
          </Trackpoint>
          <Trackpoint>
            <Time>2021-08-09T09:05:42.000Z</Time>
            <Position>
              <LatitudeDegrees>42.968860678374767303466796875</LatitudeDegrees>
              <LongitudeDegrees>-1.792468987405300140380859375</LongitudeDegrees>
            </Position>
            <AltitudeMeters>591.79998779296875</AltitudeMeters>
            <DistanceMeters>12334.651763726</DistanceMeters>
          </Trackpoint>
          <Trackpoint>
            <Time>2021-08-09T09:05:46.000Z</Time>
            <Position>
              <LatitudeDegrees>42.968860678374767303466796875</LatitudeDegrees>
              <LongitudeDegrees>-1.792468987405300140380859375</LongitudeDegrees>
            </Position>
            <AltitudeMeters>591.79998779296875</AltitudeMeters>
            <DistanceMeters>12334.746790441</DistanceMeters>
          </Trackpoint>
          <Trackpoint>
            <Time>2021-08-09T09:05:55.000Z</Time>
            <Position>
              <LatitudeDegrees>42.96885623596608638763427734375</LatitudeDegrees>
              <LongitudeDegrees>-1.79246940650045871734619140625</LongitudeDegrees>
            </Position>
            <AltitudeMeters>591.5999755859375</AltitudeMeters>
            <DistanceMeters>12335.240563733</DistanceMeters>
          </Trackpoint>
          <Trackpoint>
            <Time>2021-08-09T09:05:58.000Z</Time>
            <Position>
              <LatitudeDegrees>42.96885020099580287933349609375</LatitudeDegrees>
              <LongitudeDegrees>-1.7925053648650646209716796875</LongitudeDegrees>
            </Position>
            <AltitudeMeters>591.5999755859375</AltitudeMeters>
            <DistanceMeters>12338.245572293</DistanceMeters>
          </Trackpoint>
          <Trackpoint>
            <Time>2021-08-09T09:06:04.000Z</Time>
            <Position>
              <LatitudeDegrees>42.9688489437103271484375</LatitudeDegrees>
              <LongitudeDegrees>-1.79251165129244327545166015625</LongitudeDegrees>
            </Position>
            <AltitudeMeters>591.5999755859375</AltitudeMeters>
            <DistanceMeters>12338.774658646</DistanceMeters>
          </Trackpoint>
          <Trackpoint>
            <Time>2021-08-09T09:06:56.000Z</Time>
            <Position>
              <LatitudeDegrees>42.96884651295840740203857421875</LatitudeDegrees>
              <LongitudeDegrees>-1.79253797046840190887451171875</LongitudeDegrees>
            </Position>
            <AltitudeMeters>591.5999755859375</AltitudeMeters>
            <DistanceMeters>12340.933250652</DistanceMeters>
          </Trackpoint>
          <Trackpoint>
            <Time>2021-08-09T09:06:57.000Z</Time>
            <Position>
              <LatitudeDegrees>42.9688234627246856689453125</LatitudeDegrees>
              <LongitudeDegrees>-1.79254509508609771728515625</LongitudeDegrees>
            </Position>
            <AltitudeMeters>591.5999755859375</AltitudeMeters>
            <DistanceMeters>12343.563276993</DistanceMeters>
          </Trackpoint>
          <Trackpoint>
            <Time>2021-08-09T09:06:59.000Z</Time>
            <Position>
              <LatitudeDegrees>42.9687805473804473876953125</LatitudeDegrees>
              <LongitudeDegrees>-1.79254643619060516357421875</LongitudeDegrees>
            </Position>
            <AltitudeMeters>591.4000244140625</AltitudeMeters>
            <DistanceMeters>12348.341146105</DistanceMeters>
          </Trackpoint>
          <Trackpoint>
            <Time>2021-08-09T09:07:00.000Z</Time>
            <Position>
              <LatitudeDegrees>42.96875976026058197021484375</LatitudeDegrees>
              <LongitudeDegrees>-1.7925486154854297637939453125</LongitudeDegrees>
            </Position>
            <AltitudeMeters>591.4000244140625</AltitudeMeters>
            <DistanceMeters>12350.66298926</DistanceMeters>
          </Trackpoint>
          <Trackpoint>
            <Time>2021-08-09T09:07:01.000Z</Time>
            <Position>
              <LatitudeDegrees>42.9687451757490634918212890625</LatitudeDegrees>
              <LongitudeDegrees>-1.7925489507615566253662109375</LongitudeDegrees>
            </Position>
            <AltitudeMeters>591.4000244140625</AltitudeMeters>
            <DistanceMeters>12352.286806467</DistanceMeters>
          </Trackpoint>
          <Trackpoint>
            <Time>2021-08-09T09:07:02.000Z</Time>
            <Position>
              <LatitudeDegrees>42.968739308416843414306640625</LatitudeDegrees>
              <LongitudeDegrees>-1.79255054332315921783447265625</LongitudeDegrees>
            </Position>
            <AltitudeMeters>591.4000244140625</AltitudeMeters>
            <DistanceMeters>12352.945170856</DistanceMeters>
          </Trackpoint>
          <Trackpoint>
            <Time>2021-08-09T09:07:03.000Z</Time>
            <Position>
              <LatitudeDegrees>42.96873838640749454498291015625</LatitudeDegrees>
              <LongitudeDegrees>-1.7925529740750789642333984375</LongitudeDegrees>
            </Position>
            <AltitudeMeters>591.5999755859375</AltitudeMeters>
            <DistanceMeters>12353.157657049</DistanceMeters>
          </Trackpoint>
          <Trackpoint>
            <Time>2021-08-09T09:07:06.000Z</Time>
            <Position>
              <LatitudeDegrees>42.96872078441083431243896484375</LatitudeDegrees>
              <LongitudeDegrees>-1.79255942814052104949951171875</LongitudeDegrees>
            </Position>
            <AltitudeMeters>591.4000244140625</AltitudeMeters>
            <DistanceMeters>12355.18687238</DistanceMeters>
          </Trackpoint>
          <Trackpoint>
            <Time>2021-08-09T09:07:07.000Z</Time>
            <Position>
              <LatitudeDegrees>42.96871407888829708099365234375</LatitudeDegrees>
              <LongitudeDegrees>-1.79255490191280841827392578125</LongitudeDegrees>
            </Position>
            <AltitudeMeters>591.4000244140625</AltitudeMeters>
            <DistanceMeters>12356.01529607</DistanceMeters>
          </Trackpoint>
          <Trackpoint>
            <Time>2021-08-09T09:07:09.000Z</Time>
            <Position>
              <LatitudeDegrees>42.96870586462318897247314453125</LatitudeDegrees>
              <LongitudeDegrees>-1.79254551418125629425048828125</LongitudeDegrees>
            </Position>
            <AltitudeMeters>591.4000244140625</AltitudeMeters>
            <DistanceMeters>12357.202179352</DistanceMeters>
          </Trackpoint>
          <Trackpoint>
            <Time>2021-08-09T09:07:10.000Z</Time>
            <Position>
              <LatitudeDegrees>42.96870670281350612640380859375</LatitudeDegrees>
              <LongitudeDegrees>-1.79253704845905303955078125</LongitudeDegrees>
            </Position>
            <AltitudeMeters>591.4000244140625</AltitudeMeters>
            <DistanceMeters>12357.887426734</DistanceMeters>
          </Trackpoint>
          <Trackpoint>
            <Time>2021-08-09T09:07:11.000Z</Time>
            <Position>
              <LatitudeDegrees>42.96870619989931583404541015625</LatitudeDegrees>
              <LongitudeDegrees>-1.7925335280597209930419921875</LongitudeDegrees>
            </Position>
            <AltitudeMeters>591.4000244140625</AltitudeMeters>
            <DistanceMeters>12358.18792759</DistanceMeters>
          </Trackpoint>
          <Trackpoint>
            <Time>2021-08-09T09:07:13.000Z</Time>
            <Position>
              <LatitudeDegrees>42.96870619989931583404541015625</LatitudeDegrees>
              <LongitudeDegrees>-1.7925335280597209930419921875</LongitudeDegrees>
            </Position>
            <AltitudeMeters>591.4000244140625</AltitudeMeters>
            <DistanceMeters>12358.18792759</DistanceMeters>
          </Trackpoint>
          <Trackpoint>
            <Time>2021-08-09T09:07:20.000Z</Time>
            <Position>
              <LatitudeDegrees>42.96870619989931583404541015625</LatitudeDegrees>
              <LongitudeDegrees>-1.7925335280597209930419921875</LongitudeDegrees>
            </Position>
            <AltitudeMeters>591.4000244140625</AltitudeMeters>
            <DistanceMeters>12358.18792759</DistanceMeters>
          </Trackpoint>
          <Trackpoint>
            <Time>2021-08-09T09:07:31.000Z</Time>
            <Position>
              <LatitudeDegrees>42.96870619989931583404541015625</LatitudeDegrees>
              <LongitudeDegrees>-1.7925335280597209930419921875</LongitudeDegrees>
            </Position>
            <AltitudeMeters>591.20001220703125</AltitudeMeters>
            <DistanceMeters>12358.18792759</DistanceMeters>
          </Trackpoint>
          <Trackpoint>
            <Time>2021-08-09T09:07:37.000Z</Time>
            <Position>
              <LatitudeDegrees>42.96870619989931583404541015625</LatitudeDegrees>
              <LongitudeDegrees>-1.7925335280597209930419921875</LongitudeDegrees>
            </Position>
            <AltitudeMeters>591.20001220703125</AltitudeMeters>
            <DistanceMeters>12358.18792759</DistanceMeters>
          </Trackpoint>
          <Trackpoint>
            <Time>2021-08-09T09:07:40.000Z</Time>
            <Position>
              <LatitudeDegrees>42.96870619989931583404541015625</LatitudeDegrees>
              <LongitudeDegrees>-1.7925335280597209930419921875</LongitudeDegrees>
            </Position>
            <AltitudeMeters>591.20001220703125</AltitudeMeters>
            <DistanceMeters>12358.18792759</DistanceMeters>
          </Trackpoint>
          <Trackpoint>
            <Time>2021-08-09T09:09:03.000Z</Time>
            <Position>
              <LatitudeDegrees>42.96870284713804721832275390625</LatitudeDegrees>
              <LongitudeDegrees>-1.79253193549811840057373046875</LongitudeDegrees>
            </Position>
            <AltitudeMeters>591.20001220703125</AltitudeMeters>
            <DistanceMeters>12358.591091795</DistanceMeters>
          </Trackpoint>
          <Trackpoint>
            <Time>2021-08-09T09:09:08.000Z</Time>
            <Position>
              <LatitudeDegrees>42.96870636753737926483154296875</LatitudeDegrees>
              <LongitudeDegrees>-1.79253428243100643157958984375</LongitudeDegrees>
            </Position>
            <AltitudeMeters>591.4000244140625</AltitudeMeters>
            <DistanceMeters>12359.036806594</DistanceMeters>
          </Trackpoint>
          <Trackpoint>
            <Time>2021-08-09T09:09:10.000Z</Time>
            <Position>
              <LatitudeDegrees>42.9687210358679294586181640625</LatitudeDegrees>
              <LongitudeDegrees>-1.79253101348876953125</LongitudeDegrees>
            </Position>
            <AltitudeMeters>591.4000244140625</AltitudeMeters>
            <DistanceMeters>12360.693653973</DistanceMeters>
          </Trackpoint>
          <Trackpoint>
            <Time>2021-08-09T09:09:13.000Z</Time>
            <Position>
              <LatitudeDegrees>42.9687210358679294586181640625</LatitudeDegrees>
              <LongitudeDegrees>-1.79253101348876953125</LongitudeDegrees>
            </Position>
            <AltitudeMeters>591.4000244140625</AltitudeMeters>
            <DistanceMeters>12360.693653973</DistanceMeters>
          </Trackpoint>
          <Trackpoint>
            <Time>2021-08-09T09:09:14.000Z</Time>
            <Position>
              <LatitudeDegrees>42.96872447244822978973388671875</LatitudeDegrees>
              <LongitudeDegrees>-1.792530678212642669677734375</LongitudeDegrees>
            </Position>
            <AltitudeMeters>591.4000244140625</AltitudeMeters>
            <DistanceMeters>12361.085459154</DistanceMeters>
          </Trackpoint>
          <Trackpoint>
            <Time>2021-08-09T09:09:16.000Z</Time>
            <Position>
              <LatitudeDegrees>42.96877208165824413299560546875</LatitudeDegrees>
              <LongitudeDegrees>-1.79253294132649898529052734375</LongitudeDegrees>
            </Position>
            <AltitudeMeters>591.4000244140625</AltitudeMeters>
            <DistanceMeters>12366.388256345</DistanceMeters>
          </Trackpoint>
          <Trackpoint>
            <Time>2021-08-09T09:09:22.000Z</Time>
            <Position>
              <LatitudeDegrees>42.96896754764020442962646484375</LatitudeDegrees>
              <LongitudeDegrees>-1.79261759854853153228759765625</LongitudeDegrees>
            </Position>
            <AltitudeMeters>591.4000244140625</AltitudeMeters>
            <DistanceMeters>12389.210500084</DistanceMeters>
          </Trackpoint>
          <Trackpoint>
            <Time>2021-08-09T09:09:23.000Z</Time>
            <Position>
              <LatitudeDegrees>42.9689949564635753631591796875</LatitudeDegrees>
              <LongitudeDegrees>-1.79263821803033351898193359375</LongitudeDegrees>
            </Position>
            <AltitudeMeters>591.4000244140625</AltitudeMeters>
            <DistanceMeters>12392.692940703</DistanceMeters>
          </Trackpoint>
          <Trackpoint>
            <Time>2021-08-09T09:09:24.000Z</Time>
            <Position>
              <LatitudeDegrees>42.969017587602138519287109375</LatitudeDegrees>
              <LongitudeDegrees>-1.79266101680696010589599609375</LongitudeDegrees>
            </Position>
            <AltitudeMeters>591.5999755859375</AltitudeMeters>
            <DistanceMeters>12395.821615001</DistanceMeters>
          </Trackpoint>
          <Trackpoint>
            <Time>2021-08-09T09:09:29.000Z</Time>
            <Position>
              <LatitudeDegrees>42.96913283877074718475341796875</LatitudeDegrees>
              <LongitudeDegrees>-1.79276847280561923980712890625</LongitudeDegrees>
            </Position>
            <AltitudeMeters>591.79998779296875</AltitudeMeters>
            <DistanceMeters>12411.350271136</DistanceMeters>
          </Trackpoint>
          <Trackpoint>
            <Time>2021-08-09T09:09:30.000Z</Time>
            <Position>
              <LatitudeDegrees>42.9691511951386928558349609375</LatitudeDegrees>
              <LongitudeDegrees>-1.79279160685837268829345703125</LongitudeDegrees>
            </Position>
            <AltitudeMeters>591.79998779296875</AltitudeMeters>
            <DistanceMeters>12414.128888663</DistanceMeters>
          </Trackpoint>
          <Trackpoint>
            <Time>2021-08-09T09:09:31.000Z</Time>
            <Position>
              <LatitudeDegrees>42.96917055733501911163330078125</LatitudeDegrees>
              <LongitudeDegrees>-1.7928124777972698211669921875</LongitudeDegrees>
            </Position>
            <AltitudeMeters>591.79998779296875</AltitudeMeters>
            <DistanceMeters>12416.873170673</DistanceMeters>
          </Trackpoint>
          <Trackpoint>
            <Time>2021-08-09T09:09:32.000Z</Time>
            <Position>
              <LatitudeDegrees>42.9691882431507110595703125</LatitudeDegrees>
              <LongitudeDegrees>-1.79283611476421356201171875</LongitudeDegrees>
            </Position>
            <AltitudeMeters>591.79998779296875</AltitudeMeters>
            <DistanceMeters>12419.624025824</DistanceMeters>
          </Trackpoint>
          <Trackpoint>
            <Time>2021-08-09T09:09:33.000Z</Time>
            <Position>
              <LatitudeDegrees>42.96920693479478359222412109375</LatitudeDegrees>
              <LongitudeDegrees>-1.79285966791212558746337890625</LongitudeDegrees>
            </Position>
            <AltitudeMeters>591.79998779296875</AltitudeMeters>
            <DistanceMeters>12422.45256745</DistanceMeters>
          </Trackpoint>
          <Trackpoint>
            <Time>2021-08-09T09:09:34.000Z</Time>
            <Position>
              <LatitudeDegrees>42.969227470457553863525390625</LatitudeDegrees>
              <LongitudeDegrees>-1.79288179613649845123291015625</LongitudeDegrees>
            </Position>
            <AltitudeMeters>591.79998779296875</AltitudeMeters>
            <DistanceMeters>12425.362930263</DistanceMeters>
          </Trackpoint>
          <Trackpoint>
            <Time>2021-08-09T09:09:35.000Z</Time>
            <Position>
              <LatitudeDegrees>42.96925102360546588897705078125</LatitudeDegrees>
              <LongitudeDegrees>-1.79290878586471080780029296875</LongitudeDegrees>
            </Position>
            <AltitudeMeters>591.79998779296875</AltitudeMeters>
            <DistanceMeters>12428.783891981</DistanceMeters>
          </Trackpoint>
          <Trackpoint>
            <Time>2021-08-09T09:09:39.000Z</Time>
            <Position>
              <LatitudeDegrees>42.96934154815971851348876953125</LatitudeDegrees>
              <LongitudeDegrees>-1.7930361069738864898681640625</LongitudeDegrees>
            </Position>
            <AltitudeMeters>591.79998779296875</AltitudeMeters>
            <DistanceMeters>12443.242012177</DistanceMeters>
          </Trackpoint>
          <Trackpoint>
            <Time>2021-08-09T09:09:40.000Z</Time>
            <Position>
              <LatitudeDegrees>42.9693657718598842620849609375</LatitudeDegrees>
              <LongitudeDegrees>-1.7930634319782257080078125</LongitudeDegrees>
            </Position>
            <AltitudeMeters>591.79998779296875</AltitudeMeters>
            <DistanceMeters>12446.737393905</DistanceMeters>
          </Trackpoint>
          <Trackpoint>
            <Time>2021-08-09T09:09:47.000Z</Time>
            <Position>
              <LatitudeDegrees>42.969539947807788848876953125</LatitudeDegrees>
              <LongitudeDegrees>-1.79328932426869869232177734375</LongitudeDegrees>
            </Position>
            <AltitudeMeters>592.20001220703125</AltitudeMeters>
            <DistanceMeters>12473.463393357</DistanceMeters>
          </Trackpoint>
          <Trackpoint>
            <Time>2021-08-09T09:09:53.000Z</Time>
            <Position>
              <LatitudeDegrees>42.96969191171228885650634765625</LatitudeDegrees>
              <LongitudeDegrees>-1.79348864592611789703369140625</LongitudeDegrees>
            </Position>
            <AltitudeMeters>592.20001220703125</AltitudeMeters>
            <DistanceMeters>12496.906697573</DistanceMeters>
          </Trackpoint>
          <Trackpoint>
            <Time>2021-08-09T09:10:01.000Z</Time>
            <Position>
              <LatitudeDegrees>42.96990615315735340118408203125</LatitudeDegrees>
              <LongitudeDegrees>-1.79375468753278255462646484375</LongitudeDegrees>
            </Position>
            <AltitudeMeters>591.79998779296875</AltitudeMeters>
            <DistanceMeters>12529.125658879</DistanceMeters>
          </Trackpoint>
          <Trackpoint>
            <Time>2021-08-09T09:10:07.000Z</Time>
            <Position>
              <LatitudeDegrees>42.97005635686218738555908203125</LatitudeDegrees>
              <LongitudeDegrees>-1.793945543467998504638671875</LongitudeDegrees>
            </Position>
            <AltitudeMeters>591.79998779296875</AltitudeMeters>
            <DistanceMeters>12551.953045749</DistanceMeters>
          </Trackpoint>
          <Trackpoint>
            <Time>2021-08-09T09:10:10.000Z</Time>
            <Position>
              <LatitudeDegrees>42.9701335541903972625732421875</LatitudeDegrees>
              <LongitudeDegrees>-1.79403598420321941375732421875</LongitudeDegrees>
            </Position>
            <AltitudeMeters>591.79998779296875</AltitudeMeters>
            <DistanceMeters>12563.270404287</DistanceMeters>
          </Trackpoint>
          <Trackpoint>
            <Time>2021-08-09T09:10:20.000Z</Time>
            <Position>
              <LatitudeDegrees>42.97042063437402248382568359375</LatitudeDegrees>
              <LongitudeDegrees>-1.7943701706826686859130859375</LongitudeDegrees>
            </Position>
            <AltitudeMeters>592</AltitudeMeters>
            <DistanceMeters>12605.243070436</DistanceMeters>
          </Trackpoint>
          <Trackpoint>
            <Time>2021-08-09T09:10:31.000Z</Time>
            <Position>
              <LatitudeDegrees>42.97074786387383937835693359375</LatitudeDegrees>
              <LongitudeDegrees>-1.794751547276973724365234375</LongitudeDegrees>
            </Position>
            <AltitudeMeters>592.20001220703125</AltitudeMeters>
            <DistanceMeters>12653.109564941</DistanceMeters>
          </Trackpoint>
          <Trackpoint>
            <Time>2021-08-09T09:10:37.000Z</Time>
            <Position>
              <LatitudeDegrees>42.97093947418034076690673828125</LatitudeDegrees>
              <LongitudeDegrees>-1.79493837989866733551025390625</LongitudeDegrees>
            </Position>
            <AltitudeMeters>592.20001220703125</AltitudeMeters>
            <DistanceMeters>12679.307656287</DistanceMeters>
          </Trackpoint>
          <Trackpoint>
            <Time>2021-08-09T09:10:44.000Z</Time>
            <Position>
              <LatitudeDegrees>42.9711993969976902008056640625</LatitudeDegrees>
              <LongitudeDegrees>-1.79507617838680744171142578125</LongitudeDegrees>
            </Position>
            <AltitudeMeters>592.4000244140625</AltitudeMeters>
            <DistanceMeters>12710.338062042</DistanceMeters>
          </Trackpoint>
          <Trackpoint>
            <Time>2021-08-09T09:10:45.000Z</Time>
            <Position>
              <LatitudeDegrees>42.97122747637331485748291015625</LatitudeDegrees>
              <LongitudeDegrees>-1.79508774541318416595458984375</LongitudeDegrees>
            </Position>
            <AltitudeMeters>592.4000244140625</AltitudeMeters>
            <DistanceMeters>12713.602336878</DistanceMeters>
          </Trackpoint>
          <Trackpoint>
            <Time>2021-08-09T09:10:46.000Z</Time>
            <Position>
              <LatitudeDegrees>42.9712634347379207611083984375</LatitudeDegrees>
              <LongitudeDegrees>-1.79510484449565410614013671875</LongitudeDegrees>
            </Position>
            <AltitudeMeters>592.4000244140625</AltitudeMeters>
            <DistanceMeters>12717.840357883</DistanceMeters>
          </Trackpoint>
          <Trackpoint>
            <Time>2021-08-09T09:10:56.000Z</Time>
            <Position>
              <LatitudeDegrees>42.97166534699499607086181640625</LatitudeDegrees>
              <LongitudeDegrees>-1.79527918808162212371826171875</LongitudeDegrees>
            </Position>
            <AltitudeMeters>592.4000244140625</AltitudeMeters>
            <DistanceMeters>12764.773358501</DistanceMeters>
          </Trackpoint>
          <Trackpoint>
            <Time>2021-08-09T09:10:59.000Z</Time>
            <Position>
              <LatitudeDegrees>42.97178017906844615936279296875</LatitudeDegrees>
              <LongitudeDegrees>-1.79534129798412322998046875</LongitudeDegrees>
            </Position>
            <AltitudeMeters>592.4000244140625</AltitudeMeters>
            <DistanceMeters>12778.51876826</DistanceMeters>
          </Trackpoint>
          <Trackpoint>
            <Time>2021-08-09T09:11:01.000Z</Time>
            <Position>
              <LatitudeDegrees>42.97185058705508708953857421875</LatitudeDegrees>
              <LongitudeDegrees>-1.7953996360301971435546875</LongitudeDegrees>
            </Position>
            <AltitudeMeters>592.5999755859375</AltitudeMeters>
            <DistanceMeters>12787.683305401</DistanceMeters>
          </Trackpoint>
          <Trackpoint>
            <Time>2021-08-09T09:11:02.000Z</Time>
            <Position>
              <LatitudeDegrees>42.97187380492687225341796875</LatitudeDegrees>
              <LongitudeDegrees>-1.79542838595807552337646484375</LongitudeDegrees>
            </Position>
            <AltitudeMeters>592.5999755859375</AltitudeMeters>
            <DistanceMeters>12791.169633397</DistanceMeters>
          </Trackpoint>
          <Trackpoint>
            <Time>2021-08-09T09:11:04.000Z</Time>
            <Position>
              <LatitudeDegrees>42.9719199053943157196044921875</LatitudeDegrees>
              <LongitudeDegrees>-1.795513294637203216552734375</LongitudeDegrees>
            </Position>
            <AltitudeMeters>592.5999755859375</AltitudeMeters>
            <DistanceMeters>12799.779913741</DistanceMeters>
          </Trackpoint>
          <Trackpoint>
            <Time>2021-08-09T09:11:05.000Z</Time>
            <Position>
              <LatitudeDegrees>42.97193549573421478271484375</LatitudeDegrees>
              <LongitudeDegrees>-1.7955630831420421600341796875</LongitudeDegrees>
            </Position>
            <AltitudeMeters>592.5999755859375</AltitudeMeters>
            <DistanceMeters>12804.190218113</DistanceMeters>
          </Trackpoint>
          <Trackpoint>
            <Time>2021-08-09T09:11:06.000Z</Time>
            <Position>
              <LatitudeDegrees>42.97194329090416431427001953125</LatitudeDegrees>
              <LongitudeDegrees>-1.7956157214939594268798828125</LongitudeDegrees>
            </Position>
            <AltitudeMeters>592.5999755859375</AltitudeMeters>
            <DistanceMeters>12808.563512285</DistanceMeters>
          </Trackpoint>
          <Trackpoint>
            <Time>2021-08-09T09:11:07.000Z</Time>
            <Position>
              <LatitudeDegrees>42.9719453863799571990966796875</LatitudeDegrees>
              <LongitudeDegrees>-1.79567079059779644012451171875</LongitudeDegrees>
            </Position>
            <AltitudeMeters>592.5999755859375</AltitudeMeters>
            <DistanceMeters>12813.054969818</DistanceMeters>
          </Trackpoint>
          <Trackpoint>
            <Time>2021-08-09T09:11:08.000Z</Time>
            <Position>
              <LatitudeDegrees>42.971941530704498291015625</LatitudeDegrees>
              <LongitudeDegrees>-1.79572493769228458404541015625</LongitudeDegrees>
            </Position>
            <AltitudeMeters>592.5999755859375</AltitudeMeters>
            <DistanceMeters>12817.484682688</DistanceMeters>
          </Trackpoint>
          <Trackpoint>
            <Time>2021-08-09T09:11:09.000Z</Time>
            <Position>
              <LatitudeDegrees>42.97193423844873905181884765625</LatitudeDegrees>
              <LongitudeDegrees>-1.7957920767366886138916015625</LongitudeDegrees>
            </Position>
            <AltitudeMeters>592.79998779296875</AltitudeMeters>
            <DistanceMeters>12823.011774927</DistanceMeters>
          </Trackpoint>
          <Trackpoint>
            <Time>2021-08-09T09:11:11.000Z</Time>
            <Position>
              <LatitudeDegrees>42.9719240963459014892578125</LatitudeDegrees>
              <LongitudeDegrees>-1.7958956770598888397216796875</LongitudeDegrees>
            </Position>
            <AltitudeMeters>592.79998779296875</AltitudeMeters>
            <DistanceMeters>12831.523962271</DistanceMeters>
          </Trackpoint>
          <Trackpoint>
            <Time>2021-08-09T09:11:20.000Z</Time>
            <Position>
              <LatitudeDegrees>42.97185896895825862884521484375</LatitudeDegrees>
              <LongitudeDegrees>-1.79644578136503696441650390625</LongitudeDegrees>
            </Position>
            <AltitudeMeters>593.4000244140625</AltitudeMeters>
            <DistanceMeters>12876.906158285</DistanceMeters>
          </Trackpoint>
          <Trackpoint>
            <Time>2021-08-09T09:11:21.000Z</Time>
            <Position>
              <LatitudeDegrees>42.97185578383505344390869140625</LatitudeDegrees>
              <LongitudeDegrees>-1.79649422876536846160888671875</LongitudeDegrees>
            </Position>
            <AltitudeMeters>593.5999755859375</AltitudeMeters>
            <DistanceMeters>12880.86775807</DistanceMeters>
          </Trackpoint>
          <Trackpoint>
            <Time>2021-08-09T09:11:22.000Z</Time>
            <Position>
              <LatitudeDegrees>42.971851341426372528076171875</LatitudeDegrees>
              <LongitudeDegrees>-1.7965551652014255523681640625</LongitudeDegrees>
            </Position>
            <AltitudeMeters>593.5999755859375</AltitudeMeters>
            <DistanceMeters>12885.854623872</DistanceMeters>
          </Trackpoint>
          <Trackpoint>
            <Time>2021-08-09T09:11:26.000Z</Time>
            <Position>
              <LatitudeDegrees>42.9718302190303802490234375</LatitudeDegrees>
              <LongitudeDegrees>-1.79678793065249919891357421875</LongitudeDegrees>
            </Position>
            <AltitudeMeters>594</AltitudeMeters>
            <DistanceMeters>12904.955702602</DistanceMeters>
          </Trackpoint>
          <Trackpoint>
            <Time>2021-08-09T09:11:29.000Z</Time>
            <Position>
              <LatitudeDegrees>42.9718323983252048492431640625</LatitudeDegrees>
              <LongitudeDegrees>-1.79696545936167240142822265625</LongitudeDegrees>
            </Position>
            <AltitudeMeters>594.20001220703125</AltitudeMeters>
            <DistanceMeters>12919.41569638</DistanceMeters>
          </Trackpoint>
          <Trackpoint>
            <Time>2021-08-09T09:11:30.000Z</Time>
            <Position>
              <LatitudeDegrees>42.9718323983252048492431640625</LatitudeDegrees>
              <LongitudeDegrees>-1.79696545936167240142822265625</LongitudeDegrees>
            </Position>
            <AltitudeMeters>594.20001220703125</AltitudeMeters>
            <DistanceMeters>12919.510723094</DistanceMeters>
          </Trackpoint>
          <Trackpoint>
            <Time>2021-08-09T09:11:31.000Z</Time>
            <Position>
              <LatitudeDegrees>42.971836589276790618896484375</LatitudeDegrees>
              <LongitudeDegrees>-1.79706604219973087310791015625</LongitudeDegrees>
            </Position>
            <AltitudeMeters>594.4000244140625</AltitudeMeters>
            <DistanceMeters>12927.715001845</DistanceMeters>
          </Trackpoint>
          <Trackpoint>
            <Time>2021-08-09T09:11:32.000Z</Time>
            <Position>
              <LatitudeDegrees>42.971842624247074127197265625</LatitudeDegrees>
              <LongitudeDegrees>-1.797122620046138763427734375</LongitudeDegrees>
            </Position>
            <AltitudeMeters>594.4000244140625</AltitudeMeters>
            <DistanceMeters>12932.370341088</DistanceMeters>
          </Trackpoint>
          <Trackpoint>
            <Time>2021-08-09T09:11:33.000Z</Time>
            <Position>
              <LatitudeDegrees>42.971852682530879974365234375</LatitudeDegrees>
              <LongitudeDegrees>-1.79717701859772205352783203125</LongitudeDegrees>
            </Position>
            <AltitudeMeters>594.5999755859375</AltitudeMeters>
            <DistanceMeters>12936.939535408</DistanceMeters>
          </Trackpoint>
          <Trackpoint>
            <Time>2021-08-09T09:11:40.000Z</Time>
            <Position>
              <LatitudeDegrees>42.9719286225736141204833984375</LatitudeDegrees>
              <LongitudeDegrees>-1.79753308184444904327392578125</LongitudeDegrees>
            </Position>
            <AltitudeMeters>595.4000244140625</AltitudeMeters>
            <DistanceMeters>12967.143384547</DistanceMeters>
          </Trackpoint>
          <Trackpoint>
            <Time>2021-08-09T09:11:41.000Z</Time>
            <Position>
              <LatitudeDegrees>42.971940524876117706298828125</LatitudeDegrees>
              <LongitudeDegrees>-1.79758203215897083282470703125</LongitudeDegrees>
            </Position>
            <AltitudeMeters>595.5999755859375</AltitudeMeters>
            <DistanceMeters>12971.343952291</DistanceMeters>
          </Trackpoint>
          <Trackpoint>
            <Time>2021-08-09T09:11:42.000Z</Time>
            <Position>
              <LatitudeDegrees>42.9719534330070018768310546875</LatitudeDegrees>
              <LongitudeDegrees>-1.7976293899118900299072265625</LongitudeDegrees>
            </Position>
            <AltitudeMeters>595.4000244140625</AltitudeMeters>
            <DistanceMeters>12975.459826853</DistanceMeters>
          </Trackpoint>
          <Trackpoint>
            <Time>2021-08-09T09:11:43.000Z</Time>
            <Position>
              <LatitudeDegrees>42.971962988376617431640625</LatitudeDegrees>
              <LongitudeDegrees>-1.79766870103776454925537109375</LongitudeDegrees>
            </Position>
            <AltitudeMeters>595.4000244140625</AltitudeMeters>
            <DistanceMeters>12978.832940596</DistanceMeters>
          </Trackpoint>
          <Trackpoint>
            <Time>2021-08-09T09:11:44.000Z</Time>
            <Position>
              <LatitudeDegrees>42.97197665087878704071044921875</LatitudeDegrees>
              <LongitudeDegrees>-1.7977269552648067474365234375</LongitudeDegrees>
            </Position>
            <AltitudeMeters>595.4000244140625</AltitudeMeters>
            <DistanceMeters>12983.815277411</DistanceMeters>
          </Trackpoint>
          <Trackpoint>
            <Time>2021-08-09T09:11:45.000Z</Time>
            <Position>
              <LatitudeDegrees>42.97198645770549774169921875</LatitudeDegrees>
              <LongitudeDegrees>-1.79777481593191623687744140625</LongitudeDegrees>
            </Position>
            <AltitudeMeters>595.5999755859375</AltitudeMeters>
            <DistanceMeters>12987.862567698</DistanceMeters>
          </Trackpoint>
          <Trackpoint>
            <Time>2021-08-09T09:11:46.000Z</Time>
            <Position>
              <LatitudeDegrees>42.9719950072467327117919921875</LatitudeDegrees>
              <LongitudeDegrees>-1.79782074876129627227783203125</LongitudeDegrees>
            </Position>
            <AltitudeMeters>595.5999755859375</AltitudeMeters>
            <DistanceMeters>12991.722571084</DistanceMeters>
          </Trackpoint>
          <Trackpoint>
            <Time>2021-08-09T09:11:49.000Z</Time>
            <Position>
              <LatitudeDegrees>42.97202057205140590667724609375</LatitudeDegrees>
              <LongitudeDegrees>-1.79793901741504669189453125</LongitudeDegrees>
            </Position>
            <AltitudeMeters>595.4000244140625</AltitudeMeters>
            <DistanceMeters>13001.765775447</DistanceMeters>
          </Trackpoint>
          <Trackpoint>
            <Time>2021-08-09T09:11:50.000Z</Time>
            <Position>
              <LatitudeDegrees>42.97202995978295803070068359375</LatitudeDegrees>
              <LongitudeDegrees>-1.79798520170152187347412109375</LongitudeDegrees>
            </Position>
            <AltitudeMeters>595.4000244140625</AltitudeMeters>
            <DistanceMeters>13005.669974345</DistanceMeters>
          </Trackpoint>
          <Trackpoint>
            <Time>2021-08-09T09:11:51.000Z</Time>
            <Position>
              <LatitudeDegrees>42.97203741967678070068359375</LatitudeDegrees>
              <LongitudeDegrees>-1.79802258498966693878173828125</LongitudeDegrees>
            </Position>
            <AltitudeMeters>595.4000244140625</AltitudeMeters>
            <DistanceMeters>13008.82594873</DistanceMeters>
          </Trackpoint>
          <Trackpoint>
            <Time>2021-08-09T09:11:52.000Z</Time>
            <Position>
              <LatitudeDegrees>42.97204144299030303955078125</LatitudeDegrees>
              <LongitudeDegrees>-1.7980488203465938568115234375</LongitudeDegrees>
            </Position>
            <AltitudeMeters>595.4000244140625</AltitudeMeters>
            <DistanceMeters>13011.009496385</DistanceMeters>
          </Trackpoint>
          <Trackpoint>
            <Time>2021-08-09T09:11:53.000Z</Time>
            <Position>
              <LatitudeDegrees>42.97204907052218914031982421875</LatitudeDegrees>
              <LongitudeDegrees>-1.79808025248348712921142578125</LongitudeDegrees>
            </Position>
            <AltitudeMeters>595.4000244140625</AltitudeMeters>
            <DistanceMeters>13013.707318027</DistanceMeters>
          </Trackpoint>
          <Trackpoint>
            <Time>2021-08-09T09:11:54.000Z</Time>
            <Position>
              <LatitudeDegrees>42.97206063754856586456298828125</LatitudeDegrees>
              <LongitudeDegrees>-1.79811109788715839385986328125</LongitudeDegrees>
            </Position>
            <AltitudeMeters>595.4000244140625</AltitudeMeters>
            <DistanceMeters>13016.531066865</DistanceMeters>
          </Trackpoint>
          <Trackpoint>
            <Time>2021-08-09T09:11:55.000Z</Time>
            <Position>
              <LatitudeDegrees>42.9720774851739406585693359375</LatitudeDegrees>
              <LongitudeDegrees>-1.798145882785320281982421875</LongitudeDegrees>
            </Position>
            <AltitudeMeters>595.4000244140625</AltitudeMeters>
            <DistanceMeters>13019.928188838</DistanceMeters>
          </Trackpoint>
          <Trackpoint>
            <Time>2021-08-09T09:11:56.000Z</Time>
            <Position>
              <LatitudeDegrees>42.9720892198383808135986328125</LatitudeDegrees>
              <LongitudeDegrees>-1.79817195050418376922607421875</LongitudeDegrees>
            </Position>
            <AltitudeMeters>595.4000244140625</AltitudeMeters>
            <DistanceMeters>13022.420716188</DistanceMeters>
          </Trackpoint>
          <Trackpoint>
            <Time>2021-08-09T09:11:57.000Z</Time>
            <Position>
              <LatitudeDegrees>42.97209349460899829864501953125</LatitudeDegrees>
              <LongitudeDegrees>-1.7981944978237152099609375</LongitudeDegrees>
            </Position>
            <AltitudeMeters>595.20001220703125</AltitudeMeters>
            <DistanceMeters>13024.316493186</DistanceMeters>
          </Trackpoint>
          <Trackpoint>
            <Time>2021-08-09T09:11:58.000Z</Time>
            <Position>
              <LatitudeDegrees>42.97209466807544231414794921875</LatitudeDegrees>
              <LongitudeDegrees>-1.798203550279140472412109375</LongitudeDegrees>
            </Position>
            <AltitudeMeters>595.20001220703125</AltitudeMeters>
            <DistanceMeters>13025.064734283</DistanceMeters>
          </Trackpoint>
          <Trackpoint>
            <Time>2021-08-09T09:11:59.000Z</Time>
            <Position>
              <LatitudeDegrees>42.97209500335156917572021484375</LatitudeDegrees>
              <LongitudeDegrees>-1.79820212535560131072998046875</LongitudeDegrees>
            </Position>
            <AltitudeMeters>595.20001220703125</AltitudeMeters>
            <DistanceMeters>13025.199122351</DistanceMeters>
          </Trackpoint>
          <Trackpoint>
            <Time>2021-08-09T09:12:00.000Z</Time>
            <Position>
              <LatitudeDegrees>42.97209600917994976043701171875</LatitudeDegrees>
              <LongitudeDegrees>-1.79819910787045955657958984375</LongitudeDegrees>
            </Position>
            <AltitudeMeters>595.20001220703125</AltitudeMeters>
            <DistanceMeters>13025.467898488</DistanceMeters>
          </Trackpoint>
          <Trackpoint>
            <Time>2021-08-09T09:12:11.000Z</Time>
            <Position>
              <LatitudeDegrees>42.97211310826241970062255859375</LatitudeDegrees>
              <LongitudeDegrees>-1.7983017861843109130859375</LongitudeDegrees>
            </Position>
            <AltitudeMeters>595</AltitudeMeters>
            <DistanceMeters>13034.044026556</DistanceMeters>
          </Trackpoint>
          <Trackpoint>
            <Time>2021-08-09T09:12:17.000Z</Time>
            <Position>
              <LatitudeDegrees>42.97215401194989681243896484375</LatitudeDegrees>
              <LongitudeDegrees>-1.79860529489815235137939453125</LongitudeDegrees>
            </Position>
            <AltitudeMeters>594.79998779296875</AltitudeMeters>
            <DistanceMeters>13059.176930831</DistanceMeters>
          </Trackpoint>
          <Trackpoint>
            <Time>2021-08-09T09:12:21.000Z</Time>
            <Position>
              <LatitudeDegrees>42.97218888066709041595458984375</LatitudeDegrees>
              <LongitudeDegrees>-1.79894593544304370880126953125</LongitudeDegrees>
            </Position>
            <AltitudeMeters>594.5999755859375</AltitudeMeters>
            <DistanceMeters>13087.188059731</DistanceMeters>
          </Trackpoint>
          <Trackpoint>
            <Time>2021-08-09T09:12:22.000Z</Time>
            <Position>
              <LatitudeDegrees>42.972198016941547393798828125</LatitudeDegrees>
              <LongitudeDegrees>-1.799036376178264617919921875</LongitudeDegrees>
            </Position>
            <AltitudeMeters>594.5999755859375</AltitudeMeters>
            <DistanceMeters>13094.623254953</DistanceMeters>
          </Trackpoint>
          <Trackpoint>
            <Time>2021-08-09T09:12:25.000Z</Time>
            <Position>
              <LatitudeDegrees>42.97225560061633586883544921875</LatitudeDegrees>
              <LongitudeDegrees>-1.79930023849010467529296875</LongitudeDegrees>
            </Position>
            <AltitudeMeters>594.20001220703125</AltitudeMeters>
            <DistanceMeters>13117.04714348</DistanceMeters>
          </Trackpoint>
          <Trackpoint>
            <Time>2021-08-09T09:12:26.000Z</Time>
            <Position>
              <LatitudeDegrees>42.97228795476257801055908203125</LatitudeDegrees>
              <LongitudeDegrees>-1.79938715882599353790283203125</LongitudeDegrees>
            </Position>
            <AltitudeMeters>594.20001220703125</AltitudeMeters>
            <DistanceMeters>13124.989694333</DistanceMeters>
          </Trackpoint>
          <Trackpoint>
            <Time>2021-08-09T09:12:27.000Z</Time>
            <Position>
              <LatitudeDegrees>42.97232869081199169158935546875</LatitudeDegrees>
              <LongitudeDegrees>-1.79947189986705780029296875</LongitudeDegrees>
            </Position>
            <AltitudeMeters>594</AltitudeMeters>
            <DistanceMeters>13133.247729045</DistanceMeters>
          </Trackpoint>
          <Trackpoint>
            <Time>2021-08-09T09:12:29.000Z</Time>
            <Position>
              <LatitudeDegrees>42.97242659144103527069091796875</LatitudeDegrees>
              <LongitudeDegrees>-1.7996169067919254302978515625</LongitudeDegrees>
            </Position>
            <AltitudeMeters>593.79998779296875</AltitudeMeters>
            <DistanceMeters>13149.315956877</DistanceMeters>
          </Trackpoint>
          <Trackpoint>
            <Time>2021-08-09T09:12:31.000Z</Time>
            <Position>
              <LatitudeDegrees>42.97257243655622005462646484375</LatitudeDegrees>
              <LongitudeDegrees>-1.79977540858089923858642578125</LongitudeDegrees>
            </Position>
            <AltitudeMeters>593.5999755859375</AltitudeMeters>
            <DistanceMeters>13170.055305979</DistanceMeters>
          </Trackpoint>
          <Trackpoint>
            <Time>2021-08-09T09:12:34.000Z</Time>
            <Position>
              <LatitudeDegrees>42.97277594916522502899169921875</LatitudeDegrees>
              <LongitudeDegrees>-1.79999618791043758392333984375</LongitudeDegrees>
            </Position>
            <AltitudeMeters>593.4000244140625</AltitudeMeters>
            <DistanceMeters>13198.975137413</DistanceMeters>
          </Trackpoint>
          <Trackpoint>
            <Time>2021-08-09T09:12:35.000Z</Time>
            <Position>
              <LatitudeDegrees>42.97283546067774295806884765625</LatitudeDegrees>
              <LongitudeDegrees>-1.80008151568472385406494140625</LongitudeDegrees>
            </Position>
            <AltitudeMeters>593.4000244140625</AltitudeMeters>
            <DistanceMeters>13208.575187423</DistanceMeters>
          </Trackpoint>
          <Trackpoint>
            <Time>2021-08-09T09:12:36.000Z</Time>
            <Position>
              <LatitudeDegrees>42.97288809902966022491455078125</LatitudeDegrees>
              <LongitudeDegrees>-1.80017237551510334014892578125</LongitudeDegrees>
            </Position>
            <AltitudeMeters>593.4000244140625</AltitudeMeters>
            <DistanceMeters>13218.013019486</DistanceMeters>
          </Trackpoint>
          <Trackpoint>
            <Time>2021-08-09T09:12:39.000Z</Time>
            <Position>
              <LatitudeDegrees>42.97300360165536403656005859375</LatitudeDegrees>
              <LongitudeDegrees>-1.80047730915248394012451171875</LongitudeDegrees>
            </Position>
            <AltitudeMeters>593.4000244140625</AltitudeMeters>
            <DistanceMeters>13245.976396241</DistanceMeters>
          </Trackpoint>
          <Trackpoint>
            <Time>2021-08-09T09:12:41.000Z</Time>
            <Position>
              <LatitudeDegrees>42.973065041005611419677734375</LatitudeDegrees>
              <LongitudeDegrees>-1.80067713372409343719482421875</LongitudeDegrees>
            </Position>
            <AltitudeMeters>593.4000244140625</AltitudeMeters>
            <DistanceMeters>13263.627848239</DistanceMeters>
          </Trackpoint>
          <Trackpoint>
            <Time>2021-08-09T09:12:42.000Z</Time>
            <Position>
              <LatitudeDegrees>42.97309244982898235321044921875</LatitudeDegrees>
              <LongitudeDegrees>-1.8007685802876949310302734375</LongitudeDegrees>
            </Position>
            <AltitudeMeters>593.4000244140625</AltitudeMeters>
            <DistanceMeters>13271.675438453</DistanceMeters>
          </Trackpoint>
          <Trackpoint>
            <Time>2021-08-09T09:12:43.000Z</Time>
            <Position>
              <LatitudeDegrees>42.973116338253021240234375</LatitudeDegrees>
              <LongitudeDegrees>-1.80084653198719024658203125</LongitudeDegrees>
            </Position>
            <AltitudeMeters>593.4000244140625</AltitudeMeters>
            <DistanceMeters>13278.556842443</DistanceMeters>
          </Trackpoint>
          <Trackpoint>
            <Time>2021-08-09T09:12:44.000Z</Time>
            <Position>
              <LatitudeDegrees>42.97313570044934749603271484375</LatitudeDegrees>
              <LongitudeDegrees>-1.80090361274778842926025390625</LongitudeDegrees>
            </Position>
            <AltitudeMeters>593.4000244140625</AltitudeMeters>
            <DistanceMeters>13283.681241169</DistanceMeters>
          </Trackpoint>
          <Trackpoint>
            <Time>2021-08-09T09:12:45.000Z</Time>
            <Position>
              <LatitudeDegrees>42.97315162606537342071533203125</LatitudeDegrees>
              <LongitudeDegrees>-1.80094082839787006378173828125</LongitudeDegrees>
            </Position>
            <AltitudeMeters>593.4000244140625</AltitudeMeters>
            <DistanceMeters>13287.192089264</DistanceMeters>
          </Trackpoint>
          <Trackpoint>
            <Time>2021-08-09T09:12:46.000Z</Time>
            <Position>
              <LatitudeDegrees>42.9731605947017669677734375</LatitudeDegrees>
              <LongitudeDegrees>-1.80096228606998920440673828125</LongitudeDegrees>
            </Position>
            <AltitudeMeters>593.4000244140625</AltitudeMeters>
            <DistanceMeters>13289.203425697</DistanceMeters>
          </Trackpoint>
          <Trackpoint>
            <Time>2021-08-09T09:12:47.000Z</Time>
            <Position>
              <LatitudeDegrees>42.973164953291416168212890625</LatitudeDegrees>
              <LongitudeDegrees>-1.80097050033509731292724609375</LongitudeDegrees>
            </Position>
            <AltitudeMeters>593.4000244140625</AltitudeMeters>
            <DistanceMeters>13290.031849386</DistanceMeters>
          </Trackpoint>
          <Trackpoint>
            <Time>2021-08-09T09:12:48.000Z</Time>
            <Position>
              <LatitudeDegrees>42.9731691442430019378662109375</LatitudeDegrees>
              <LongitudeDegrees>-1.80097837932407855987548828125</LongitudeDegrees>
            </Position>
            <AltitudeMeters>593.4000244140625</AltitudeMeters>
            <DistanceMeters>13290.82689992</DistanceMeters>
          </Trackpoint>
          <Trackpoint>
            <Time>2021-08-09T09:12:49.000Z</Time>
            <Position>
              <LatitudeDegrees>42.973175346851348876953125</LatitudeDegrees>
              <LongitudeDegrees>-1.80099070072174072265625</LongitudeDegrees>
            </Position>
            <AltitudeMeters>593.4000244140625</AltitudeMeters>
            <DistanceMeters>13292.040119793</DistanceMeters>
          </Trackpoint>
          <Trackpoint>
            <Time>2021-08-09T09:12:50.000Z</Time>
            <Position>
              <LatitudeDegrees>42.97318129800260066986083984375</LatitudeDegrees>
              <LongitudeDegrees>-1.80100344121456146240234375</LongitudeDegrees>
            </Position>
            <AltitudeMeters>593.4000244140625</AltitudeMeters>
            <DistanceMeters>13293.264453363</DistanceMeters>
          </Trackpoint>
          <Trackpoint>
            <Time>2021-08-09T09:12:52.000Z</Time>
            <Position>
              <LatitudeDegrees>42.97318683005869388580322265625</LatitudeDegrees>
              <LongitudeDegrees>-1.80101819336414337158203125</LongitudeDegrees>
            </Position>
            <AltitudeMeters>593.4000244140625</AltitudeMeters>
            <DistanceMeters>13294.608334045</DistanceMeters>
          </Trackpoint>
          <Trackpoint>
            <Time>2021-08-09T09:12:54.000Z</Time>
            <Position>
              <LatitudeDegrees>42.97318683005869388580322265625</LatitudeDegrees>
              <LongitudeDegrees>-1.80101819336414337158203125</LongitudeDegrees>
            </Position>
            <AltitudeMeters>593.4000244140625</AltitudeMeters>
            <DistanceMeters>NAN</DistanceMeters>
          </Trackpoint>
          <Trackpoint>
            <Time>2021-08-09T09:13:05.000Z</Time>
            <Position>
              <LatitudeDegrees>42.97318683005869388580322265625</LatitudeDegrees>
              <LongitudeDegrees>-1.80101819336414337158203125</LongitudeDegrees>
            </Position>
            <AltitudeMeters>593.4000244140625</AltitudeMeters>
            <DistanceMeters>NAN</DistanceMeters>
          </Trackpoint>
          <Trackpoint>
            <Time>2021-08-09T09:14:09.000Z</Time>
            <Position>
              <LatitudeDegrees>42.97320728190243244171142578125</LatitudeDegrees>
              <LongitudeDegrees>-1.80109337903559207916259765625</LongitudeDegrees>
            </Position>
            <AltitudeMeters>593.20001220703125</AltitudeMeters>
            <DistanceMeters>NAN</DistanceMeters>
          </Trackpoint>
          <Trackpoint>
            <Time>2021-08-09T09:14:14.000Z</Time>
            <Position>
              <LatitudeDegrees>42.97330065630376338958740234375</LatitudeDegrees>
              <LongitudeDegrees>-1.80133712477982044219970703125</LongitudeDegrees>
            </Position>
            <AltitudeMeters>593.4000244140625</AltitudeMeters>
            <DistanceMeters>NAN</DistanceMeters>
          </Trackpoint>
          <Trackpoint>
            <Time>2021-08-09T09:14:19.000Z</Time>
            <Position>
              <LatitudeDegrees>42.97346628271043300628662109375</LatitudeDegrees>
              <LongitudeDegrees>-1.80168329738080501556396484375</LongitudeDegrees>
            </Position>
            <AltitudeMeters>593.20001220703125</AltitudeMeters>
            <DistanceMeters>NAN</DistanceMeters>
          </Trackpoint>
          <Trackpoint>
            <Time>2021-08-09T09:14:24.000Z</Time>
            <Position>
              <LatitudeDegrees>42.9736670292913913726806640625</LatitudeDegrees>
              <LongitudeDegrees>-1.80209032259881496429443359375</LongitudeDegrees>
            </Position>
            <AltitudeMeters>593.20001220703125</AltitudeMeters>
            <DistanceMeters>NAN</DistanceMeters>
          </Trackpoint>
          <Trackpoint>
            <Time>2021-08-09T09:14:25.000Z</Time>
            <Position>
              <LatitudeDegrees>42.9737077653408050537109375</LatitudeDegrees>
              <LongitudeDegrees>-1.80216860957443714141845703125</LongitudeDegrees>
            </Position>
            <AltitudeMeters>593.20001220703125</AltitudeMeters>
            <DistanceMeters>NAN</DistanceMeters>
          </Trackpoint>
          <Trackpoint>
            <Time>2021-08-09T09:14:32.000Z</Time>
            <Position>
              <LatitudeDegrees>42.97398780472576618194580078125</LatitudeDegrees>
              <LongitudeDegrees>-1.80271678604185581207275390625</LongitudeDegrees>
            </Position>
            <AltitudeMeters>593.20001220703125</AltitudeMeters>
            <DistanceMeters>NAN</DistanceMeters>
          </Trackpoint>
          <Trackpoint>
            <Time>2021-08-09T09:14:33.000Z</Time>
            <Position>
              <LatitudeDegrees>42.97402468509972095489501953125</LatitudeDegrees>
              <LongitudeDegrees>-1.8027891218662261962890625</LongitudeDegrees>
            </Position>
            <AltitudeMeters>593.4000244140625</AltitudeMeters>
            <DistanceMeters>NAN</DistanceMeters>
          </Trackpoint>
          <Trackpoint>
            <Time>2021-08-09T09:14:34.000Z</Time>
            <Position>
              <LatitudeDegrees>42.9740613140165805816650390625</LatitudeDegrees>
              <LongitudeDegrees>-1.8028603680431842803955078125</LongitudeDegrees>
            </Position>
            <AltitudeMeters>593.4000244140625</AltitudeMeters>
            <DistanceMeters>NAN</DistanceMeters>
          </Trackpoint>
          <Trackpoint>
            <Time>2021-08-09T09:14:35.000Z</Time>
            <Position>
              <LatitudeDegrees>42.974094338715076446533203125</LatitudeDegrees>
              <LongitudeDegrees>-1.80293153040111064910888671875</LongitudeDegrees>
            </Position>
            <AltitudeMeters>593.5999755859375</AltitudeMeters>
            <DistanceMeters>NAN</DistanceMeters>
          </Trackpoint>
          <Trackpoint>
            <Time>2021-08-09T09:14:36.000Z</Time>
            <Position>
              <LatitudeDegrees>42.97412593849003314971923828125</LatitudeDegrees>
              <LongitudeDegrees>-1.80300076492130756378173828125</LongitudeDegrees>
            </Position>
            <AltitudeMeters>593.79998779296875</AltitudeMeters>
            <DistanceMeters>NAN</DistanceMeters>
          </Trackpoint>
          <Trackpoint>
            <Time>2021-08-09T09:14:37.000Z</Time>
            <Position>
              <LatitudeDegrees>42.9741561971604824066162109375</LatitudeDegrees>
              <LongitudeDegrees>-1.803069077432155609130859375</LongitudeDegrees>
            </Position>
            <AltitudeMeters>594.20001220703125</AltitudeMeters>
            <DistanceMeters>NAN</DistanceMeters>
          </Trackpoint>
          <Trackpoint>
            <Time>2021-08-09T09:14:38.000Z</Time>
            <Position>
              <LatitudeDegrees>42.974181510508060455322265625</LatitudeDegrees>
              <LongitudeDegrees>-1.8031409941613674163818359375</LongitudeDegrees>
            </Position>
            <AltitudeMeters>594.5999755859375</AltitudeMeters>
            <DistanceMeters>NAN</DistanceMeters>
          </Trackpoint>
          <Trackpoint>
            <Time>2021-08-09T09:14:39.000Z</Time>
            <Position>
              <LatitudeDegrees>42.97420196235179901123046875</LatitudeDegrees>
              <LongitudeDegrees>-1.80321249179542064666748046875</LongitudeDegrees>
            </Position>
            <AltitudeMeters>594.79998779296875</AltitudeMeters>
            <DistanceMeters>NAN</DistanceMeters>
          </Trackpoint>
          <Trackpoint>
            <Time>2021-08-09T09:14:40.000Z</Time>
            <Position>
              <LatitudeDegrees>42.97421646304428577423095703125</LatitudeDegrees>
              <LongitudeDegrees>-1.80328474380075931549072265625</LongitudeDegrees>
            </Position>
            <AltitudeMeters>594.79998779296875</AltitudeMeters>
            <DistanceMeters>NAN</DistanceMeters>
          </Trackpoint>
          <Trackpoint>
            <Time>2021-08-09T09:14:41.000Z</Time>
            <Position>
              <LatitudeDegrees>42.974229119718074798583984375</LatitudeDegrees>
              <LongitudeDegrees>-1.8033572472631931304931640625</LongitudeDegrees>
            </Position>
            <AltitudeMeters>595</AltitudeMeters>
            <DistanceMeters>NAN</DistanceMeters>
          </Trackpoint>
          <Trackpoint>
            <Time>2021-08-09T09:14:43.000Z</Time>
            <Position>
              <LatitudeDegrees>42.9742629826068878173828125</LatitudeDegrees>
              <LongitudeDegrees>-1.803504265844821929931640625</LongitudeDegrees>
            </Position>
            <AltitudeMeters>595.79998779296875</AltitudeMeters>
            <DistanceMeters>NAN</DistanceMeters>
          </Trackpoint>
          <Trackpoint>
            <Time>2021-08-09T09:14:44.000Z</Time>
            <Position>
              <LatitudeDegrees>42.974285781383514404296875</LatitudeDegrees>
              <LongitudeDegrees>-1.8035708181560039520263671875</LongitudeDegrees>
            </Position>
            <AltitudeMeters>595.79998779296875</AltitudeMeters>
            <DistanceMeters>NAN</DistanceMeters>
          </Trackpoint>
          <Trackpoint>
            <Time>2021-08-09T09:14:45.000Z</Time>
            <Position>
              <LatitudeDegrees>42.9743060655891895294189453125</LatitudeDegrees>
              <LongitudeDegrees>-1.80363661609590053558349609375</LongitudeDegrees>
            </Position>
            <AltitudeMeters>596.20001220703125</AltitudeMeters>
            <DistanceMeters>NAN</DistanceMeters>
          </Trackpoint>
          <Trackpoint>
            <Time>2021-08-09T09:14:46.000Z</Time>
            <Position>
              <LatitudeDegrees>42.9743218235671520233154296875</LatitudeDegrees>
              <LongitudeDegrees>-1.803704090416431427001953125</LongitudeDegrees>
            </Position>
            <AltitudeMeters>596.4000244140625</AltitudeMeters>
            <DistanceMeters>NAN</DistanceMeters>
          </Trackpoint>
          <Trackpoint>
            <Time>2021-08-09T09:14:47.000Z</Time>
            <Position>
              <LatitudeDegrees>42.97433531843125820159912109375</LatitudeDegrees>
              <LongitudeDegrees>-1.803773157298564910888671875</LongitudeDegrees>
            </Position>
            <AltitudeMeters>596.79998779296875</AltitudeMeters>
            <DistanceMeters>NAN</DistanceMeters>
          </Trackpoint>
          <Trackpoint>
            <Time>2021-08-09T09:14:48.000Z</Time>
            <Position>
              <LatitudeDegrees>42.97434805892407894134521484375</LatitudeDegrees>
              <LongitudeDegrees>-1.80384046398103237152099609375</LongitudeDegrees>
            </Position>
            <AltitudeMeters>596.79998779296875</AltitudeMeters>
            <DistanceMeters>NAN</DistanceMeters>
          </Trackpoint>
          <Trackpoint>
            <Time>2021-08-09T09:14:49.000Z</Time>
            <Position>
              <LatitudeDegrees>42.9743595421314239501953125</LatitudeDegrees>
              <LongitudeDegrees>-1.80390919558703899383544921875</LongitudeDegrees>
            </Position>
            <AltitudeMeters>597</AltitudeMeters>
            <DistanceMeters>NAN</DistanceMeters>
          </Trackpoint>
          <Trackpoint>
            <Time>2021-08-09T09:14:50.000Z</Time>
            <Position>
              <LatitudeDegrees>42.9743690975010395050048828125</LatitudeDegrees>
              <LongitudeDegrees>-1.8039768375456333160400390625</LongitudeDegrees>
            </Position>
            <AltitudeMeters>597.20001220703125</AltitudeMeters>
            <DistanceMeters>NAN</DistanceMeters>
          </Trackpoint>
          <Trackpoint>
            <Time>2021-08-09T09:14:51.000Z</Time>
            <Position>
              <LatitudeDegrees>42.97437898814678192138671875</LatitudeDegrees>
              <LongitudeDegrees>-1.80404012091457843780517578125</LongitudeDegrees>
            </Position>
            <AltitudeMeters>597.4000244140625</AltitudeMeters>
            <DistanceMeters>NAN</DistanceMeters>
          </Trackpoint>
          <Trackpoint>
            <Time>2021-08-09T09:14:52.000Z</Time>
            <Position>
              <LatitudeDegrees>42.97439114190638065338134765625</LatitudeDegrees>
              <LongitudeDegrees>-1.80409695021808147430419921875</LongitudeDegrees>
            </Position>
            <AltitudeMeters>598</AltitudeMeters>
            <DistanceMeters>NAN</DistanceMeters>
          </Trackpoint>
          <Trackpoint>
            <Time>2021-08-09T09:14:53.000Z</Time>
            <Position>
              <LatitudeDegrees>42.97440270893275737762451171875</LatitudeDegrees>
              <LongitudeDegrees>-1.80414967238903045654296875</LongitudeDegrees>
            </Position>
            <AltitudeMeters>598.20001220703125</AltitudeMeters>
            <DistanceMeters>NAN</DistanceMeters>
          </Trackpoint>
          <Trackpoint>
            <Time>2021-08-09T09:14:54.000Z</Time>
            <Position>
              <LatitudeDegrees>42.97441042028367519378662109375</LatitudeDegrees>
              <LongitudeDegrees>-1.80420507676899433135986328125</LongitudeDegrees>
            </Position>
            <AltitudeMeters>598.4000244140625</AltitudeMeters>
            <DistanceMeters>NAN</DistanceMeters>
          </Trackpoint>
          <Trackpoint>
            <Time>2021-08-09T09:14:55.000Z</Time>
            <Position>
              <LatitudeDegrees>42.97441712580621242523193359375</LatitudeDegrees>
              <LongitudeDegrees>-1.804261989891529083251953125</LongitudeDegrees>
            </Position>
            <AltitudeMeters>598.79998779296875</AltitudeMeters>
            <DistanceMeters>NAN</DistanceMeters>
          </Trackpoint>
          <Trackpoint>
            <Time>2021-08-09T09:14:56.000Z</Time>
            <Position>
              <LatitudeDegrees>42.97442466951906681060791015625</LatitudeDegrees>
              <LongitudeDegrees>-1.8043241836130619049072265625</LongitudeDegrees>
            </Position>
            <AltitudeMeters>598.79998779296875</AltitudeMeters>
            <DistanceMeters>NAN</DistanceMeters>
          </Trackpoint>
          <Trackpoint>
            <Time>2021-08-09T09:14:57.000Z</Time>
            <Position>
              <LatitudeDegrees>42.97443958930671215057373046875</LatitudeDegrees>
              <LongitudeDegrees>-1.80438796989619731903076171875</LongitudeDegrees>
            </Position>
            <AltitudeMeters>599</AltitudeMeters>
            <DistanceMeters>NAN</DistanceMeters>
          </Trackpoint>
          <Trackpoint>
            <Time>2021-08-09T09:14:58.000Z</Time>
            <Position>
              <LatitudeDegrees>42.9744663275778293609619140625</LatitudeDegrees>
              <LongitudeDegrees>-1.80444798432290554046630859375</LongitudeDegrees>
            </Position>
            <AltitudeMeters>599.20001220703125</AltitudeMeters>
            <DistanceMeters>NAN</DistanceMeters>
          </Trackpoint>
          <Trackpoint>
            <Time>2021-08-09T09:14:59.000Z</Time>
            <Position>
              <LatitudeDegrees>42.97450681217014789581298828125</LatitudeDegrees>
              <LongitudeDegrees>-1.8044923245906829833984375</LongitudeDegrees>
            </Position>
            <AltitudeMeters>599.5999755859375</AltitudeMeters>
            <DistanceMeters>NAN</DistanceMeters>
          </Trackpoint>
          <Trackpoint>
            <Time>2021-08-09T09:15:00.000Z</Time>
            <Position>
              <LatitudeDegrees>42.9745528288185596466064453125</LatitudeDegrees>
              <LongitudeDegrees>-1.80453012697398662567138671875</LongitudeDegrees>
            </Position>
            <AltitudeMeters>599.79998779296875</AltitudeMeters>
            <DistanceMeters>NAN</DistanceMeters>
          </Trackpoint>
          <Trackpoint>
            <Time>2021-08-09T09:15:01.000Z</Time>
            <Position>
              <LatitudeDegrees>42.974601276218891143798828125</LatitudeDegrees>
              <LongitudeDegrees>-1.80456541478633880615234375</LongitudeDegrees>
            </Position>
            <AltitudeMeters>600</AltitudeMeters>
            <DistanceMeters>NAN</DistanceMeters>
          </Trackpoint>
          <Trackpoint>
            <Time>2021-08-09T09:15:02.000Z</Time>
            <Position>
              <LatitudeDegrees>42.974650561809539794921875</LatitudeDegrees>
              <LongitudeDegrees>-1.80459651164710521697998046875</LongitudeDegrees>
            </Position>
            <AltitudeMeters>600</AltitudeMeters>
            <DistanceMeters>NAN</DistanceMeters>
          </Trackpoint>
          <Trackpoint>
            <Time>2021-08-09T09:15:03.000Z</Time>
            <Position>
              <LatitudeDegrees>42.97470948658883571624755859375</LatitudeDegrees>
              <LongitudeDegrees>-1.804625093936920166015625</LongitudeDegrees>
            </Position>
            <AltitudeMeters>600.20001220703125</AltitudeMeters>
            <DistanceMeters>NAN</DistanceMeters>
          </Trackpoint>
          <Trackpoint>
            <Time>2021-08-09T09:15:04.000Z</Time>
            <Position>
              <LatitudeDegrees>42.97474779188632965087890625</LatitudeDegrees>
              <LongitudeDegrees>-1.80463506840169429779052734375</LongitudeDegrees>
            </Position>
            <AltitudeMeters>600.20001220703125</AltitudeMeters>
            <DistanceMeters>NAN</DistanceMeters>
          </Trackpoint>
          <Trackpoint>
            <Time>2021-08-09T09:15:05.000Z</Time>
            <Position>
              <LatitudeDegrees>42.97479716129601001739501953125</LatitudeDegrees>
              <LongitudeDegrees>-1.80464345030486583709716796875</LongitudeDegrees>
            </Position>
            <AltitudeMeters>600.20001220703125</AltitudeMeters>
            <DistanceMeters>NAN</DistanceMeters>
          </Trackpoint>
          <Trackpoint>
            <Time>2021-08-09T09:15:06.000Z</Time>
            <Position>
              <LatitudeDegrees>42.97484611161053180694580078125</LatitudeDegrees>
              <LongitudeDegrees>-1.804650910198688507080078125</LongitudeDegrees>
            </Position>
            <AltitudeMeters>600.4000244140625</AltitudeMeters>
            <DistanceMeters>NAN</DistanceMeters>
          </Trackpoint>
          <Trackpoint>
            <Time>2021-08-09T09:15:07.000Z</Time>
            <Position>
              <LatitudeDegrees>42.9748938046395778656005859375</LatitudeDegrees>
              <LongitudeDegrees>-1.80465753190219402313232421875</LongitudeDegrees>
            </Position>
            <AltitudeMeters>600.4000244140625</AltitudeMeters>
            <DistanceMeters>NAN</DistanceMeters>
          </Trackpoint>
          <Trackpoint>
            <Time>2021-08-09T09:15:08.000Z</Time>
            <Position>
              <LatitudeDegrees>42.97493956983089447021484375</LatitudeDegrees>
              <LongitudeDegrees>-1.80466323159635066986083984375</LongitudeDegrees>
            </Position>
            <AltitudeMeters>600.4000244140625</AltitudeMeters>
            <DistanceMeters>NAN</DistanceMeters>
          </Trackpoint>
          <Trackpoint>
            <Time>2021-08-09T09:15:09.000Z</Time>
            <Position>
              <LatitudeDegrees>42.97498407773673534393310546875</LatitudeDegrees>
              <LongitudeDegrees>-1.8046678416430950164794921875</LongitudeDegrees>
            </Position>
            <AltitudeMeters>600.4000244140625</AltitudeMeters>
            <DistanceMeters>NAN</DistanceMeters>
          </Trackpoint>
          <Trackpoint>
            <Time>2021-08-09T09:15:10.000Z</Time>
            <Position>
              <LatitudeDegrees>42.97502917237579822540283203125</LatitudeDegrees>
              <LongitudeDegrees>-1.80467278696596622467041015625</LongitudeDegrees>
            </Position>
            <AltitudeMeters>600.4000244140625</AltitudeMeters>
            <DistanceMeters>NAN</DistanceMeters>
          </Trackpoint>
          <Trackpoint>
            <Time>2021-08-09T09:15:11.000Z</Time>
            <Position>
              <LatitudeDegrees>42.97507208772003650665283203125</LatitudeDegrees>
              <LongitudeDegrees>-1.8046809174120426177978515625</LongitudeDegrees>
            </Position>
            <AltitudeMeters>600.4000244140625</AltitudeMeters>
            <DistanceMeters>NAN</DistanceMeters>
          </Trackpoint>
          <Trackpoint>
            <Time>2021-08-09T09:15:12.000Z</Time>
            <Position>
              <LatitudeDegrees>42.975112237036228179931640625</LatitudeDegrees>
              <LongitudeDegrees>-1.80468787439167499542236328125</LongitudeDegrees>
            </Position>
            <AltitudeMeters>600.4000244140625</AltitudeMeters>
            <DistanceMeters>NAN</DistanceMeters>
          </Trackpoint>
          <Trackpoint>
            <Time>2021-08-09T09:15:13.000Z</Time>
            <Position>
              <LatitudeDegrees>42.97516076825559139251708984375</LatitudeDegrees>
              <LongitudeDegrees>-1.80469122715294361114501953125</LongitudeDegrees>
            </Position>
            <AltitudeMeters>600.4000244140625</AltitudeMeters>
            <DistanceMeters>NAN</DistanceMeters>
          </Trackpoint>
          <Trackpoint>
            <Time>2021-08-09T09:15:14.000Z</Time>
            <Position>
              <LatitudeDegrees>42.97519613988697528839111328125</LatitudeDegrees>
              <LongitudeDegrees>-1.8046943284571170806884765625</LongitudeDegrees>
            </Position>
            <AltitudeMeters>600.4000244140625</AltitudeMeters>
            <DistanceMeters>NAN</DistanceMeters>
          </Trackpoint>
          <Trackpoint>
            <Time>2021-08-09T09:15:15.000Z</Time>
            <Position>
              <LatitudeDegrees>42.97524006105959415435791015625</LatitudeDegrees>
              <LongitudeDegrees>-1.80469810031354427337646484375</LongitudeDegrees>
            </Position>
            <AltitudeMeters>600.4000244140625</AltitudeMeters>
            <DistanceMeters>NAN</DistanceMeters>
          </Trackpoint>
          <Trackpoint>
            <Time>2021-08-09T09:15:16.000Z</Time>
            <Position>
              <LatitudeDegrees>42.97528557479381561279296875</LatitudeDegrees>
              <LongitudeDegrees>-1.80470095016062259674072265625</LongitudeDegrees>
            </Position>
            <AltitudeMeters>600.4000244140625</AltitudeMeters>
            <DistanceMeters>NAN</DistanceMeters>
          </Trackpoint>
          <Trackpoint>
            <Time>2021-08-09T09:15:17.000Z</Time>
            <Position>
              <LatitudeDegrees>42.97533544711768627166748046875</LatitudeDegrees>
              <LongitudeDegrees>-1.8047050572931766510009765625</LongitudeDegrees>
            </Position>
            <AltitudeMeters>600.4000244140625</AltitudeMeters>
            <DistanceMeters>NAN</DistanceMeters>
          </Trackpoint>
          <Trackpoint>
            <Time>2021-08-09T09:15:18.000Z</Time>
            <Position>
              <LatitudeDegrees>42.9753868281841278076171875</LatitudeDegrees>
              <LongitudeDegrees>-1.8047100864350795745849609375</LongitudeDegrees>
            </Position>
            <AltitudeMeters>600.20001220703125</AltitudeMeters>
            <DistanceMeters>NAN</DistanceMeters>
          </Trackpoint>
          <Trackpoint>
            <Time>2021-08-09T09:15:19.000Z</Time>
            <Position>
              <LatitudeDegrees>42.9754523746669292449951171875</LatitudeDegrees>
              <LongitudeDegrees>-1.80471586994826793670654296875</LongitudeDegrees>
            </Position>
            <AltitudeMeters>600.20001220703125</AltitudeMeters>
            <DistanceMeters>NAN</DistanceMeters>
          </Trackpoint>
          <Trackpoint>
            <Time>2021-08-09T09:15:20.000Z</Time>
            <Position>
              <LatitudeDegrees>42.9754986427724361419677734375</LatitudeDegrees>
              <LongitudeDegrees>-1.80472190491855144500732421875</LongitudeDegrees>
            </Position>
            <AltitudeMeters>600</AltitudeMeters>
            <DistanceMeters>NAN</DistanceMeters>
          </Trackpoint>
          <Trackpoint>
            <Time>2021-08-09T09:15:21.000Z</Time>
            <Position>
              <LatitudeDegrees>42.9755589924752712249755859375</LatitudeDegrees>
              <LongitudeDegrees>-1.80472777225077152252197265625</LongitudeDegrees>
            </Position>
            <AltitudeMeters>599.79998779296875</AltitudeMeters>
            <DistanceMeters>NAN</DistanceMeters>
          </Trackpoint>
          <Trackpoint>
            <Time>2021-08-09T09:15:25.000Z</Time>
            <Position>
              <LatitudeDegrees>42.975830733776092529296875</LatitudeDegrees>
              <LongitudeDegrees>-1.804762892425060272216796875</LongitudeDegrees>
            </Position>
            <AltitudeMeters>599</AltitudeMeters>
            <DistanceMeters>NAN</DistanceMeters>
          </Trackpoint>
          <Trackpoint>
            <Time>2021-08-09T09:15:27.000Z</Time>
            <Position>
              <LatitudeDegrees>42.97597012482583522796630859375</LatitudeDegrees>
              <LongitudeDegrees>-1.8047804944217205047607421875</LongitudeDegrees>
            </Position>
            <AltitudeMeters>598.4000244140625</AltitudeMeters>
            <DistanceMeters>NAN</DistanceMeters>
          </Trackpoint>
          <Trackpoint>
            <Time>2021-08-09T09:15:28.000Z</Time>
            <Position>
              <LatitudeDegrees>42.9760562069714069366455078125</LatitudeDegrees>
              <LongitudeDegrees>-1.80479030124843120574951171875</LongitudeDegrees>
            </Position>
            <AltitudeMeters>597.79998779296875</AltitudeMeters>
            <DistanceMeters>NAN</DistanceMeters>
          </Trackpoint>
          <Trackpoint>
            <Time>2021-08-09T09:15:31.000Z</Time>
            <Position>
              <LatitudeDegrees>42.9762620665132999420166015625</LatitudeDegrees>
              <LongitudeDegrees>-1.80482315830886363983154296875</LongitudeDegrees>
            </Position>
            <AltitudeMeters>596.5999755859375</AltitudeMeters>
            <DistanceMeters>NAN</DistanceMeters>
          </Trackpoint>
          <Trackpoint>
            <Time>2021-08-09T09:15:35.000Z</Time>
            <Position>
              <LatitudeDegrees>42.976563312113285064697265625</LatitudeDegrees>
              <LongitudeDegrees>-1.80486221797764301300048828125</LongitudeDegrees>
            </Position>
            <AltitudeMeters>595.20001220703125</AltitudeMeters>
            <DistanceMeters>NAN</DistanceMeters>
          </Trackpoint>
          <Trackpoint>
            <Time>2021-08-09T09:15:36.000Z</Time>
            <Position>
              <LatitudeDegrees>42.97664419747889041900634765625</LatitudeDegrees>
              <LongitudeDegrees>-1.80486925877630710601806640625</LongitudeDegrees>
            </Position>
            <AltitudeMeters>594.79998779296875</AltitudeMeters>
            <DistanceMeters>NAN</DistanceMeters>
          </Trackpoint>
          <Trackpoint>
            <Time>2021-08-09T09:15:37.000Z</Time>
            <Position>
              <LatitudeDegrees>42.97672902233898639678955078125</LatitudeDegrees>
              <LongitudeDegrees>-1.80486909113824367523193359375</LongitudeDegrees>
            </Position>
            <AltitudeMeters>594.5999755859375</AltitudeMeters>
            <DistanceMeters>NAN</DistanceMeters>
          </Trackpoint>
          <Trackpoint>
            <Time>2021-08-09T09:15:38.000Z</Time>
            <Position>
              <LatitudeDegrees>42.97681435011327266693115234375</LatitudeDegrees>
              <LongitudeDegrees>-1.804855763912200927734375</LongitudeDegrees>
            </Position>
            <AltitudeMeters>594</AltitudeMeters>
            <DistanceMeters>NAN</DistanceMeters>
          </Trackpoint>
          <Trackpoint>
            <Time>2021-08-09T09:15:39.000Z</Time>
            <Position>
              <LatitudeDegrees>42.97689951024949550628662109375</LatitudeDegrees>
              <LongitudeDegrees>-1.80482835508882999420166015625</LongitudeDegrees>
            </Position>
            <AltitudeMeters>593.5999755859375</AltitudeMeters>
            <DistanceMeters>NAN</DistanceMeters>
          </Trackpoint>
          <Trackpoint>
            <Time>2021-08-09T09:15:40.000Z</Time>
            <Position>
              <LatitudeDegrees>42.9769827425479888916015625</LatitudeDegrees>
              <LongitudeDegrees>-1.8047868646681308746337890625</LongitudeDegrees>
            </Position>
            <AltitudeMeters>592.79998779296875</AltitudeMeters>
            <DistanceMeters>NAN</DistanceMeters>
          </Trackpoint>
          <Trackpoint>
            <Time>2021-08-09T09:15:41.000Z</Time>
            <Position>
              <LatitudeDegrees>42.97706111334264278411865234375</LatitudeDegrees>
              <LongitudeDegrees>-1.80473179556429386138916015625</LongitudeDegrees>
            </Position>
            <AltitudeMeters>592.5999755859375</AltitudeMeters>
            <DistanceMeters>NAN</DistanceMeters>
          </Trackpoint>
          <Trackpoint>
            <Time>2021-08-09T09:15:43.000Z</Time>
            <Position>
              <LatitudeDegrees>42.977205701172351837158203125</LatitudeDegrees>
              <LongitudeDegrees>-1.8046103417873382568359375</LongitudeDegrees>
            </Position>
            <AltitudeMeters>591.5999755859375</AltitudeMeters>
            <DistanceMeters>NAN</DistanceMeters>
          </Trackpoint>
          <Trackpoint>
            <Time>2021-08-09T09:15:45.000Z</Time>
            <Position>
              <LatitudeDegrees>42.97735665924847126007080078125</LatitudeDegrees>
              <LongitudeDegrees>-1.8045069091022014617919921875</LongitudeDegrees>
            </Position>
            <AltitudeMeters>590.5999755859375</AltitudeMeters>
            <DistanceMeters>NAN</DistanceMeters>
          </Trackpoint>
          <Trackpoint>
            <Time>2021-08-09T09:15:46.000Z</Time>
            <Position>
              <LatitudeDegrees>42.97744098119437694549560546875</LatitudeDegrees>
              <LongitudeDegrees>-1.804467178881168365478515625</LongitudeDegrees>
            </Position>
            <AltitudeMeters>590.4000244140625</AltitudeMeters>
            <DistanceMeters>NAN</DistanceMeters>
          </Trackpoint>
          <Trackpoint>
            <Time>2021-08-09T09:15:48.000Z</Time>
            <Position>
              <LatitudeDegrees>42.9776130616664886474609375</LatitudeDegrees>
              <LongitudeDegrees>-1.80442317388951778411865234375</LongitudeDegrees>
            </Position>
            <AltitudeMeters>589.5999755859375</AltitudeMeters>
            <DistanceMeters>NAN</DistanceMeters>
          </Trackpoint>
          <Trackpoint>
            <Time>2021-08-09T09:15:49.000Z</Time>
            <Position>
              <LatitudeDegrees>42.9776980541646480560302734375</LatitudeDegrees>
              <LongitudeDegrees>-1.80442132987082004547119140625</LongitudeDegrees>
            </Position>
            <AltitudeMeters>589.4000244140625</AltitudeMeters>
            <DistanceMeters>NAN</DistanceMeters>
          </Trackpoint>
          <Trackpoint>
            <Time>2021-08-09T09:15:52.000Z</Time>
            <Position>
              <LatitudeDegrees>42.97795378603041172027587890625</LatitudeDegrees>
              <LongitudeDegrees>-1.804481260478496551513671875</LongitudeDegrees>
            </Position>
            <AltitudeMeters>588</AltitudeMeters>
            <DistanceMeters>NAN</DistanceMeters>
          </Trackpoint>
          <Trackpoint>
            <Time>2021-08-09T09:15:53.000Z</Time>
            <Position>
              <LatitudeDegrees>42.97803609631955623626708984375</LatitudeDegrees>
              <LongitudeDegrees>-1.80452677421271800994873046875</LongitudeDegrees>
            </Position>
            <AltitudeMeters>587.79998779296875</AltitudeMeters>
            <DistanceMeters>NAN</DistanceMeters>
          </Trackpoint>
          <Trackpoint>
            <Time>2021-08-09T09:15:56.000Z</Time>
            <Position>
              <LatitudeDegrees>42.9782847873866558074951171875</LatitudeDegrees>
              <LongitudeDegrees>-1.8046990223228931427001953125</LongitudeDegrees>
            </Position>
            <AltitudeMeters>586.5999755859375</AltitudeMeters>
            <DistanceMeters>NAN</DistanceMeters>
          </Trackpoint>
          <Trackpoint>
            <Time>2021-08-09T09:15:59.000Z</Time>
            <Position>
              <LatitudeDegrees>42.97853507101535797119140625</LatitudeDegrees>
              <LongitudeDegrees>-1.80489088408648967742919921875</LongitudeDegrees>
            </Position>
            <AltitudeMeters>585</AltitudeMeters>
            <DistanceMeters>NAN</DistanceMeters>
          </Trackpoint>
          <Trackpoint>
            <Time>2021-08-09T09:16:00.000Z</Time>
            <Position>
              <LatitudeDegrees>42.97861930914223194122314453125</LatitudeDegrees>
              <LongitudeDegrees>-1.80495458655059337615966796875</LongitudeDegrees>
            </Position>
            <AltitudeMeters>584.5999755859375</AltitudeMeters>
            <DistanceMeters>NAN</DistanceMeters>
          </Trackpoint>
          <Trackpoint>
            <Time>2021-08-09T09:16:01.000Z</Time>
            <Position>
              <LatitudeDegrees>42.97870480455458164215087890625</LatitudeDegrees>
              <LongitudeDegrees>-1.80501795373857021331787109375</LongitudeDegrees>
            </Position>
            <AltitudeMeters>584</AltitudeMeters>
            <DistanceMeters>NAN</DistanceMeters>
          </Trackpoint>
          <Trackpoint>
            <Time>2021-08-09T09:16:03.000Z</Time>
            <Position>
              <LatitudeDegrees>42.9788772203028202056884765625</LatitudeDegrees>
              <LongitudeDegrees>-1.8051382340490818023681640625</LongitudeDegrees>
            </Position>
            <AltitudeMeters>583</AltitudeMeters>
            <DistanceMeters>NAN</DistanceMeters>
          </Trackpoint>
          <Trackpoint>
            <Time>2021-08-09T09:16:05.000Z</Time>
            <Position>
              <LatitudeDegrees>42.9790428467094898223876953125</LatitudeDegrees>
              <LongitudeDegrees>-1.8052632920444011688232421875</LongitudeDegrees>
            </Position>
            <AltitudeMeters>581.79998779296875</AltitudeMeters>
            <DistanceMeters>NAN</DistanceMeters>
          </Trackpoint>
          <Trackpoint>
            <Time>2021-08-09T09:16:07.000Z</Time>
            <Position>
              <LatitudeDegrees>42.97921341843903064727783203125</LatitudeDegrees>
              <LongitudeDegrees>-1.80537384934723377227783203125</LongitudeDegrees>
            </Position>
            <AltitudeMeters>581</AltitudeMeters>
            <DistanceMeters>NAN</DistanceMeters>
          </Trackpoint>
          <Trackpoint>
            <Time>2021-08-09T09:16:08.000Z</Time>
            <Position>
              <LatitudeDegrees>42.979301176965236663818359375</LatitudeDegrees>
              <LongitudeDegrees>-1.80541860871016979217529296875</LongitudeDegrees>
            </Position>
            <AltitudeMeters>580.5999755859375</AltitudeMeters>
            <DistanceMeters>NAN</DistanceMeters>
          </Trackpoint>
          <Trackpoint>
            <Time>2021-08-09T09:16:10.000Z</Time>
            <Position>
              <LatitudeDegrees>42.979482896625995635986328125</LatitudeDegrees>
              <LongitudeDegrees>-1.80550158955156803131103515625</LongitudeDegrees>
            </Position>
            <AltitudeMeters>579.4000244140625</AltitudeMeters>
            <DistanceMeters>NAN</DistanceMeters>
          </Trackpoint>
          <Trackpoint>
            <Time>2021-08-09T09:16:13.000Z</Time>
            <Position>
              <LatitudeDegrees>42.97975480556488037109375</LatitudeDegrees>
              <LongitudeDegrees>-1.80562010966241359710693359375</LongitudeDegrees>
            </Position>
            <AltitudeMeters>578</AltitudeMeters>
            <DistanceMeters>NAN</DistanceMeters>
          </Trackpoint>
          <Trackpoint>
            <Time>2021-08-09T09:16:14.000Z</Time>
            <Position>
              <LatitudeDegrees>42.97984776087105274200439453125</LatitudeDegrees>
              <LongitudeDegrees>-1.8056569062173366546630859375</LongitudeDegrees>
            </Position>
            <AltitudeMeters>577.79998779296875</AltitudeMeters>
            <DistanceMeters>NAN</DistanceMeters>
          </Trackpoint>
          <Trackpoint>
            <Time>2021-08-09T09:16:16.000Z</Time>
            <Position>
              <LatitudeDegrees>42.98002998344600200653076171875</LatitudeDegrees>
              <LongitudeDegrees>-1.80572815239429473876953125</LongitudeDegrees>
            </Position>
            <AltitudeMeters>577</AltitudeMeters>
            <DistanceMeters>NAN</DistanceMeters>
          </Trackpoint>
          <Trackpoint>
            <Time>2021-08-09T09:16:17.000Z</Time>
            <Position>
              <LatitudeDegrees>42.9801142215728759765625</LatitudeDegrees>
              <LongitudeDegrees>-1.80576461367309093475341796875</LongitudeDegrees>
            </Position>
            <AltitudeMeters>576.20001220703125</AltitudeMeters>
            <DistanceMeters>NAN</DistanceMeters>
          </Trackpoint>
          <Trackpoint>
            <Time>2021-08-09T09:16:18.000Z</Time>
            <Position>
              <LatitudeDegrees>42.9801960289478302001953125</LatitudeDegrees>
              <LongitudeDegrees>-1.80580317042768001556396484375</LongitudeDegrees>
            </Position>
            <AltitudeMeters>575.5999755859375</AltitudeMeters>
            <DistanceMeters>NAN</DistanceMeters>
          </Trackpoint>
          <Trackpoint>
            <Time>2021-08-09T09:16:19.000Z</Time>
            <Position>
              <LatitudeDegrees>42.98027657903730869293212890625</LatitudeDegrees>
              <LongitudeDegrees>-1.8058366142213344573974609375</LongitudeDegrees>
            </Position>
            <AltitudeMeters>575.20001220703125</AltitudeMeters>
            <DistanceMeters>NAN</DistanceMeters>
          </Trackpoint>
          <Trackpoint>
            <Time>2021-08-09T09:16:20.000Z</Time>
            <Position>
              <LatitudeDegrees>42.9803596436977386474609375</LatitudeDegrees>
              <LongitudeDegrees>-1.8058667890727519989013671875</LongitudeDegrees>
            </Position>
            <AltitudeMeters>574.79998779296875</AltitudeMeters>
            <DistanceMeters>NAN</DistanceMeters>
          </Trackpoint>
          <Trackpoint>
            <Time>2021-08-09T09:16:21.000Z</Time>
            <Position>
              <LatitudeDegrees>42.980445809662342071533203125</LatitudeDegrees>
              <LongitudeDegrees>-1.8058959580957889556884765625</LongitudeDegrees>
            </Position>
            <AltitudeMeters>574.5999755859375</AltitudeMeters>
            <DistanceMeters>NAN</DistanceMeters>
          </Trackpoint>
          <Trackpoint>
            <Time>2021-08-09T09:16:24.000Z</Time>
            <Position>
              <LatitudeDegrees>42.980697937309741973876953125</LatitudeDegrees>
              <LongitudeDegrees>-1.806002072989940643310546875</LongitudeDegrees>
            </Position>
            <AltitudeMeters>573.5999755859375</AltitudeMeters>
            <DistanceMeters>NAN</DistanceMeters>
          </Trackpoint>
          <Trackpoint>
            <Time>2021-08-09T09:16:26.000Z</Time>
            <Position>
              <LatitudeDegrees>42.98086498863995075225830078125</LatitudeDegrees>
              <LongitudeDegrees>-1.806074492633342742919921875</LongitudeDegrees>
            </Position>
            <AltitudeMeters>572.4000244140625</AltitudeMeters>
            <DistanceMeters>NAN</DistanceMeters>
          </Trackpoint>
          <Trackpoint>
            <Time>2021-08-09T09:16:28.000Z</Time>
            <Position>
              <LatitudeDegrees>42.98103396780788898468017578125</LatitudeDegrees>
              <LongitudeDegrees>-1.80613626725971698760986328125</LongitudeDegrees>
            </Position>
            <AltitudeMeters>571.79998779296875</AltitudeMeters>
            <DistanceMeters>NAN</DistanceMeters>
          </Trackpoint>
          <Trackpoint>
            <Time>2021-08-09T09:16:29.000Z</Time>
            <Position>
              <LatitudeDegrees>42.98112130723893642425537109375</LatitudeDegrees>
              <LongitudeDegrees>-1.80616174824535846710205078125</LongitudeDegrees>
            </Position>
            <AltitudeMeters>571.20001220703125</AltitudeMeters>
            <DistanceMeters>NAN</DistanceMeters>
          </Trackpoint>
          <Trackpoint>
            <Time>2021-08-09T09:16:32.000Z</Time>
            <Position>
              <LatitudeDegrees>42.98139003105461597442626953125</LatitudeDegrees>
              <LongitudeDegrees>-1.80621522478759288787841796875</LongitudeDegrees>
            </Position>
            <AltitudeMeters>570</AltitudeMeters>
            <DistanceMeters>NAN</DistanceMeters>
          </Trackpoint>
          <Trackpoint>
            <Time>2021-08-09T09:16:34.000Z</Time>
            <Position>
              <LatitudeDegrees>42.9815694876015186309814453125</LatitudeDegrees>
              <LongitudeDegrees>-1.8062459863722324371337890625</LongitudeDegrees>
            </Position>
            <AltitudeMeters>569</AltitudeMeters>
            <DistanceMeters>NAN</DistanceMeters>
          </Trackpoint>
          <Trackpoint>
            <Time>2021-08-09T09:16:35.000Z</Time>
            <Position>
              <LatitudeDegrees>42.98165959306061267852783203125</LatitudeDegrees>
              <LongitudeDegrees>-1.8062583915889263153076171875</LongitudeDegrees>
            </Position>
            <AltitudeMeters>568.79998779296875</AltitudeMeters>
            <DistanceMeters>NAN</DistanceMeters>
          </Trackpoint>
          <Trackpoint>
            <Time>2021-08-09T09:16:38.000Z</Time>
            <Position>
              <LatitudeDegrees>42.98192965798079967498779296875</LatitudeDegrees>
              <LongitudeDegrees>-1.80629820562899112701416015625</LongitudeDegrees>
            </Position>
            <AltitudeMeters>567.5999755859375</AltitudeMeters>
            <DistanceMeters>NAN</DistanceMeters>
          </Trackpoint>
          <Trackpoint>
            <Time>2021-08-09T09:16:41.000Z</Time>
            <Position>
              <LatitudeDegrees>42.98218212090432643890380859375</LatitudeDegrees>
              <LongitudeDegrees>-1.8063388578593730926513671875</LongitudeDegrees>
            </Position>
            <AltitudeMeters>566.4000244140625</AltitudeMeters>
            <DistanceMeters>NAN</DistanceMeters>
          </Trackpoint>
          <Trackpoint>
            <Time>2021-08-09T09:16:42.000Z</Time>
            <Position>
              <LatitudeDegrees>42.9822599887847900390625</LatitudeDegrees>
              <LongitudeDegrees>-1.806352436542510986328125</LongitudeDegrees>
            </Position>
            <AltitudeMeters>566.20001220703125</AltitudeMeters>
            <DistanceMeters>NAN</DistanceMeters>
          </Trackpoint>
          <Trackpoint>
            <Time>2021-08-09T09:16:43.000Z</Time>
            <Position>
              <LatitudeDegrees>42.98233710229396820068359375</LatitudeDegrees>
              <LongitudeDegrees>-1.80636517703533172607421875</LongitudeDegrees>
            </Position>
            <AltitudeMeters>565.79998779296875</AltitudeMeters>
            <DistanceMeters>NAN</DistanceMeters>
          </Trackpoint>
          <Trackpoint>
            <Time>2021-08-09T09:16:44.000Z</Time>
            <Position>
              <LatitudeDegrees>42.98241228796541690826416015625</LatitudeDegrees>
              <LongitudeDegrees>-1.8063764087855815887451171875</LongitudeDegrees>
            </Position>
            <AltitudeMeters>565.5999755859375</AltitudeMeters>
            <DistanceMeters>NAN</DistanceMeters>
          </Trackpoint>
          <Trackpoint>
            <Time>2021-08-09T09:16:45.000Z</Time>
            <Position>
              <LatitudeDegrees>42.98248638398945331573486328125</LatitudeDegrees>
              <LongitudeDegrees>-1.80638529360294342041015625</LongitudeDegrees>
            </Position>
            <AltitudeMeters>565.4000244140625</AltitudeMeters>
            <DistanceMeters>NAN</DistanceMeters>
          </Trackpoint>
          <Trackpoint>
            <Time>2021-08-09T09:16:46.000Z</Time>
            <Position>
              <LatitudeDegrees>42.98255712725222110748291015625</LatitudeDegrees>
              <LongitudeDegrees>-1.8063971959054470062255859375</LongitudeDegrees>
            </Position>
            <AltitudeMeters>565.20001220703125</AltitudeMeters>
            <DistanceMeters>NAN</DistanceMeters>
          </Trackpoint>
          <Trackpoint>
            <Time>2021-08-09T09:16:47.000Z</Time>
            <Position>
              <LatitudeDegrees>42.98264010809361934661865234375</LatitudeDegrees>
              <LongitudeDegrees>-1.80640834383666515350341796875</LongitudeDegrees>
            </Position>
            <AltitudeMeters>565</AltitudeMeters>
            <DistanceMeters>NAN</DistanceMeters>
          </Trackpoint>
          <Trackpoint>
            <Time>2021-08-09T09:16:48.000Z</Time>
            <Position>
              <LatitudeDegrees>42.98269475810229778289794921875</LatitudeDegrees>
              <LongitudeDegrees>-1.8064129538834095001220703125</LongitudeDegrees>
            </Position>
            <AltitudeMeters>564.79998779296875</AltitudeMeters>
            <DistanceMeters>NAN</DistanceMeters>
          </Trackpoint>
          <Trackpoint>
            <Time>2021-08-09T09:16:49.000Z</Time>
            <Position>
              <LatitudeDegrees>42.982762567698955535888671875</LatitudeDegrees>
              <LongitudeDegrees>-1.80641823448240756988525390625</LongitudeDegrees>
            </Position>
            <AltitudeMeters>564.79998779296875</AltitudeMeters>
            <DistanceMeters>NAN</DistanceMeters>
          </Trackpoint>
          <Trackpoint>
            <Time>2021-08-09T09:16:50.000Z</Time>
            <Position>
              <LatitudeDegrees>42.9828307963907718658447265625</LatitudeDegrees>
              <LongitudeDegrees>-1.80642284452915191650390625</LongitudeDegrees>
            </Position>
            <AltitudeMeters>564.5999755859375</AltitudeMeters>
            <DistanceMeters>NAN</DistanceMeters>
          </Trackpoint>
          <Trackpoint>
            <Time>2021-08-09T09:16:53.000Z</Time>
            <Position>
              <LatitudeDegrees>42.98304076306521892547607421875</LatitudeDegrees>
              <LongitudeDegrees>-1.806409098207950592041015625</LongitudeDegrees>
            </Position>
            <AltitudeMeters>564.20001220703125</AltitudeMeters>
            <DistanceMeters>NAN</DistanceMeters>
          </Trackpoint>
          <Trackpoint>
            <Time>2021-08-09T09:16:54.000Z</Time>
            <Position>
              <LatitudeDegrees>42.98310949467122554779052734375</LatitudeDegrees>
              <LongitudeDegrees>-1.80639895610511302947998046875</LongitudeDegrees>
            </Position>
            <AltitudeMeters>564.20001220703125</AltitudeMeters>
            <DistanceMeters>NAN</DistanceMeters>
          </Trackpoint>
          <Trackpoint>
            <Time>2021-08-09T09:16:57.000Z</Time>
            <Position>
              <LatitudeDegrees>42.98331619240343570709228515625</LatitudeDegrees>
              <LongitudeDegrees>-1.80636777542531490325927734375</LongitudeDegrees>
            </Position>
            <AltitudeMeters>564</AltitudeMeters>
            <DistanceMeters>NAN</DistanceMeters>
          </Trackpoint>
          <Trackpoint>
            <Time>2021-08-09T09:17:01.000Z</Time>
            <Position>
              <LatitudeDegrees>42.983586005866527557373046875</LatitudeDegrees>
              <LongitudeDegrees>-1.8063207529485225677490234375</LongitudeDegrees>
            </Position>
            <AltitudeMeters>563.79998779296875</AltitudeMeters>
            <DistanceMeters>NAN</DistanceMeters>
          </Trackpoint>
          <Trackpoint>
            <Time>2021-08-09T09:17:02.000Z</Time>
            <Position>
              <LatitudeDegrees>42.98364878632128238677978515625</LatitudeDegrees>
              <LongitudeDegrees>-1.8063093535602092742919921875</LongitudeDegrees>
            </Position>
            <AltitudeMeters>563.79998779296875</AltitudeMeters>
            <DistanceMeters>NAN</DistanceMeters>
          </Trackpoint>
          <Trackpoint>
            <Time>2021-08-09T09:17:03.000Z</Time>
            <Position>
              <LatitudeDegrees>42.983712069690227508544921875</LatitudeDegrees>
              <LongitudeDegrees>-1.8062961101531982421875</LongitudeDegrees>
            </Position>
            <AltitudeMeters>563.79998779296875</AltitudeMeters>
            <DistanceMeters>NAN</DistanceMeters>
          </Trackpoint>
          <Trackpoint>
            <Time>2021-08-09T09:17:04.000Z</Time>
            <Position>
              <LatitudeDegrees>42.9837749339640140533447265625</LatitudeDegrees>
              <LongitudeDegrees>-1.8062832020223140716552734375</LongitudeDegrees>
            </Position>
            <AltitudeMeters>563.79998779296875</AltitudeMeters>
            <DistanceMeters>NAN</DistanceMeters>
          </Trackpoint>
          <Trackpoint>
            <Time>2021-08-09T09:17:05.000Z</Time>
            <Position>
              <LatitudeDegrees>42.98383754678070545196533203125</LatitudeDegrees>
              <LongitudeDegrees>-1.80627356283366680145263671875</LongitudeDegrees>
            </Position>
            <AltitudeMeters>563.5999755859375</AltitudeMeters>
            <DistanceMeters>NAN</DistanceMeters>
          </Trackpoint>
          <Trackpoint>
            <Time>2021-08-09T09:17:06.000Z</Time>
            <Position>
              <LatitudeDegrees>42.98390141688287258148193359375</LatitudeDegrees>
              <LongitudeDegrees>-1.80626568384468555450439453125</LongitudeDegrees>
            </Position>
            <AltitudeMeters>563.5999755859375</AltitudeMeters>
            <DistanceMeters>NAN</DistanceMeters>
          </Trackpoint>
          <Trackpoint>
            <Time>2021-08-09T09:17:07.000Z</Time>
            <Position>
              <LatitudeDegrees>42.9839657060801982879638671875</LatitudeDegrees>
              <LongitudeDegrees>-1.806257553398609161376953125</LongitudeDegrees>
            </Position>
            <AltitudeMeters>563.5999755859375</AltitudeMeters>
            <DistanceMeters>NAN</DistanceMeters>
          </Trackpoint>
          <Trackpoint>
            <Time>2021-08-09T09:17:08.000Z</Time>
            <Position>
              <LatitudeDegrees>42.98402915708720684051513671875</LatitudeDegrees>
              <LongitudeDegrees>-1.80624640546739101409912109375</LongitudeDegrees>
            </Position>
            <AltitudeMeters>563.4000244140625</AltitudeMeters>
            <DistanceMeters>NAN</DistanceMeters>
          </Trackpoint>
          <Trackpoint>
            <Time>2021-08-09T09:17:12.000Z</Time>
            <Position>
              <LatitudeDegrees>42.9842812009155750274658203125</LatitudeDegrees>
              <LongitudeDegrees>-1.80619259364902973175048828125</LongitudeDegrees>
            </Position>
            <AltitudeMeters>563.20001220703125</AltitudeMeters>
            <DistanceMeters>NAN</DistanceMeters>
          </Trackpoint>
          <Trackpoint>
            <Time>2021-08-09T09:17:18.000Z</Time>
            <Position>
              <LatitudeDegrees>42.98465176485478878021240234375</LatitudeDegrees>
              <LongitudeDegrees>-1.8060917593538761138916015625</LongitudeDegrees>
            </Position>
            <AltitudeMeters>562.79998779296875</AltitudeMeters>
            <DistanceMeters>NAN</DistanceMeters>
          </Trackpoint>
          <Trackpoint>
            <Time>2021-08-09T09:17:20.000Z</Time>
            <Position>
              <LatitudeDegrees>42.98476156778633594512939453125</LatitudeDegrees>
              <LongitudeDegrees>-1.80604322813451290130615234375</LongitudeDegrees>
            </Position>
            <AltitudeMeters>562.5999755859375</AltitudeMeters>
            <DistanceMeters>NAN</DistanceMeters>
          </Trackpoint>
          <Trackpoint>
            <Time>2021-08-09T09:17:21.000Z</Time>
            <Position>
              <LatitudeDegrees>42.9848126135766506195068359375</LatitudeDegrees>
              <LongitudeDegrees>-1.80602193810045719146728515625</LongitudeDegrees>
            </Position>
            <AltitudeMeters>562.4000244140625</AltitudeMeters>
            <DistanceMeters>NAN</DistanceMeters>
          </Trackpoint>
          <Trackpoint>
            <Time>2021-08-09T09:17:22.000Z</Time>
            <Position>
              <LatitudeDegrees>42.984859384596347808837890625</LatitudeDegrees>
              <LongitudeDegrees>-1.80600651539862155914306640625</LongitudeDegrees>
            </Position>
            <AltitudeMeters>562.4000244140625</AltitudeMeters>
            <DistanceMeters>NAN</DistanceMeters>
          </Trackpoint>
          <Trackpoint>
            <Time>2021-08-09T09:17:23.000Z</Time>
            <Position>
              <LatitudeDegrees>42.98490540124475955963134765625</LatitudeDegrees>
              <LongitudeDegrees>-1.80599913932383060455322265625</LongitudeDegrees>
            </Position>
            <AltitudeMeters>562.20001220703125</AltitudeMeters>
            <DistanceMeters>NAN</DistanceMeters>
          </Trackpoint>
          <Trackpoint>
            <Time>2021-08-09T09:17:24.000Z</Time>
            <Position>
              <LatitudeDegrees>42.98495049588382244110107421875</LatitudeDegrees>
              <LongitudeDegrees>-1.806002072989940643310546875</LongitudeDegrees>
            </Position>
            <AltitudeMeters>562.4000244140625</AltitudeMeters>
            <DistanceMeters>NAN</DistanceMeters>
          </Trackpoint>
          <Trackpoint>
            <Time>2021-08-09T09:17:25.000Z</Time>
            <Position>
              <LatitudeDegrees>42.98499106429517269134521484375</LatitudeDegrees>
              <LongitudeDegrees>-1.806014813482761383056640625</LongitudeDegrees>
            </Position>
            <AltitudeMeters>562.4000244140625</AltitudeMeters>
            <DistanceMeters>NAN</DistanceMeters>
          </Trackpoint>
          <Trackpoint>
            <Time>2021-08-09T09:17:26.000Z</Time>
            <Position>
              <LatitudeDegrees>42.98502945341169834136962890625</LatitudeDegrees>
              <LongitudeDegrees>-1.8060297332704067230224609375</LongitudeDegrees>
            </Position>
            <AltitudeMeters>562.4000244140625</AltitudeMeters>
            <DistanceMeters>NAN</DistanceMeters>
          </Trackpoint>
          <Trackpoint>
            <Time>2021-08-09T09:17:27.000Z</Time>
            <Position>
              <LatitudeDegrees>42.98506549559533596038818359375</LatitudeDegrees>
              <LongitudeDegrees>-1.8060471676290035247802734375</LongitudeDegrees>
            </Position>
            <AltitudeMeters>562.4000244140625</AltitudeMeters>
            <DistanceMeters>NAN</DistanceMeters>
          </Trackpoint>
          <Trackpoint>
            <Time>2021-08-09T09:17:28.000Z</Time>
            <Position>
              <LatitudeDegrees>42.98509843647480010986328125</LatitudeDegrees>
              <LongitudeDegrees>-1.80606552399694919586181640625</LongitudeDegrees>
            </Position>
            <AltitudeMeters>562.4000244140625</AltitudeMeters>
            <DistanceMeters>NAN</DistanceMeters>
          </Trackpoint>
          <Trackpoint>
            <Time>2021-08-09T09:17:29.000Z</Time>
            <Position>
              <LatitudeDegrees>42.98513405956327915191650390625</LatitudeDegrees>
              <LongitudeDegrees>-1.806084215641021728515625</LongitudeDegrees>
            </Position>
            <AltitudeMeters>562.4000244140625</AltitudeMeters>
            <DistanceMeters>NAN</DistanceMeters>
          </Trackpoint>
          <Trackpoint>
            <Time>2021-08-09T09:17:32.000Z</Time>
            <Position>
              <LatitudeDegrees>42.98522911034524440765380859375</LatitudeDegrees>
              <LongitudeDegrees>-1.8061420507729053497314453125</LongitudeDegrees>
            </Position>
            <AltitudeMeters>562.79998779296875</AltitudeMeters>
            <DistanceMeters>NAN</DistanceMeters>
          </Trackpoint>
          <Trackpoint>
            <Time>2021-08-09T09:17:33.000Z</Time>
            <Position>
              <LatitudeDegrees>42.9852600395679473876953125</LatitudeDegrees>
              <LongitudeDegrees>-1.80616359226405620574951171875</LongitudeDegrees>
            </Position>
            <AltitudeMeters>562.79998779296875</AltitudeMeters>
            <DistanceMeters>NAN</DistanceMeters>
          </Trackpoint>
          <Trackpoint>
            <Time>2021-08-09T09:17:34.000Z</Time>
            <Position>
              <LatitudeDegrees>42.98529046587646007537841796875</LatitudeDegrees>
              <LongitudeDegrees>-1.80618605576455593109130859375</LongitudeDegrees>
            </Position>
            <AltitudeMeters>563</AltitudeMeters>
            <DistanceMeters>NAN</DistanceMeters>
          </Trackpoint>
          <Trackpoint>
            <Time>2021-08-09T09:17:35.000Z</Time>
            <Position>
              <LatitudeDegrees>42.985320053994655609130859375</LatitudeDegrees>
              <LongitudeDegrees>-1.806209944188594818115234375</LongitudeDegrees>
            </Position>
            <AltitudeMeters>563</AltitudeMeters>
            <DistanceMeters>NAN</DistanceMeters>
          </Trackpoint>
          <Trackpoint>
            <Time>2021-08-09T09:17:36.000Z</Time>
            <Position>
              <LatitudeDegrees>42.9853463731706142425537109375</LatitudeDegrees>
              <LongitudeDegrees>-1.8062312342226505279541015625</LongitudeDegrees>
            </Position>
            <AltitudeMeters>563</AltitudeMeters>
            <DistanceMeters>NAN</DistanceMeters>
          </Trackpoint>
          <Trackpoint>
            <Time>2021-08-09T09:17:37.000Z</Time>
            <Position>
              <LatitudeDegrees>42.985375039279460906982421875</LatitudeDegrees>
              <LongitudeDegrees>-1.80625193752348423004150390625</LongitudeDegrees>
            </Position>
            <AltitudeMeters>563</AltitudeMeters>
            <DistanceMeters>NAN</DistanceMeters>
          </Trackpoint>
          <Trackpoint>
            <Time>2021-08-09T09:17:38.000Z</Time>
            <Position>
              <LatitudeDegrees>42.985405214130878448486328125</LatitudeDegrees>
              <LongitudeDegrees>-1.80627322755753993988037109375</LongitudeDegrees>
            </Position>
            <AltitudeMeters>563</AltitudeMeters>
            <DistanceMeters>NAN</DistanceMeters>
          </Trackpoint>
          <Trackpoint>
            <Time>2021-08-09T09:17:39.000Z</Time>
            <Position>
              <LatitudeDegrees>42.9854357242584228515625</LatitudeDegrees>
              <LongitudeDegrees>-1.80629518814384937286376953125</LongitudeDegrees>
            </Position>
            <AltitudeMeters>563.20001220703125</AltitudeMeters>
            <DistanceMeters>NAN</DistanceMeters>
          </Trackpoint>
          <Trackpoint>
            <Time>2021-08-09T09:17:40.000Z</Time>
            <Position>
              <LatitudeDegrees>42.9854679107666015625</LatitudeDegrees>
              <LongitudeDegrees>-1.80631195195019245147705078125</LongitudeDegrees>
            </Position>
            <AltitudeMeters>563.20001220703125</AltitudeMeters>
            <DistanceMeters>NAN</DistanceMeters>
          </Trackpoint>
          <Trackpoint>
            <Time>2021-08-09T09:17:41.000Z</Time>
            <Position>
              <LatitudeDegrees>42.98549867235124111175537109375</LatitudeDegrees>
              <LongitudeDegrees>-1.806325279176235198974609375</LongitudeDegrees>
            </Position>
            <AltitudeMeters>563.20001220703125</AltitudeMeters>
            <DistanceMeters>NAN</DistanceMeters>
          </Trackpoint>
          <Trackpoint>
            <Time>2021-08-09T09:17:42.000Z</Time>
            <Position>
              <LatitudeDegrees>42.98553152941167354583740234375</LatitudeDegrees>
              <LongitudeDegrees>-1.80633659474551677703857421875</LongitudeDegrees>
            </Position>
            <AltitudeMeters>563.4000244140625</AltitudeMeters>
            <DistanceMeters>NAN</DistanceMeters>
          </Trackpoint>
          <Trackpoint>
            <Time>2021-08-09T09:17:45.000Z</Time>
            <Position>
              <LatitudeDegrees>42.9856387339532375335693359375</LatitudeDegrees>
              <LongitudeDegrees>-1.8063589744269847869873046875</LongitudeDegrees>
            </Position>
            <AltitudeMeters>563.5999755859375</AltitudeMeters>
            <DistanceMeters>NAN</DistanceMeters>
          </Trackpoint>
          <Trackpoint>
            <Time>2021-08-09T09:17:48.000Z</Time>
            <Position>
              <LatitudeDegrees>42.9857186973094940185546875</LatitudeDegrees>
              <LongitudeDegrees>-1.80637590587139129638671875</LongitudeDegrees>
            </Position>
            <AltitudeMeters>563.79998779296875</AltitudeMeters>
            <DistanceMeters>NAN</DistanceMeters>
          </Trackpoint>
          <Trackpoint>
            <Time>2021-08-09T09:17:49.000Z</Time>
            <Position>
              <LatitudeDegrees>42.9857406578958034515380859375</LatitudeDegrees>
              <LongitudeDegrees>-1.80638554506003856658935546875</LongitudeDegrees>
            </Position>
            <AltitudeMeters>564</AltitudeMeters>
            <DistanceMeters>NAN</DistanceMeters>
          </Trackpoint>
          <Trackpoint>
            <Time>2021-08-09T09:17:50.000Z</Time>
            <Position>
              <LatitudeDegrees>42.9857584275305271148681640625</LatitudeDegrees>
              <LongitudeDegrees>-1.806395016610622406005859375</LongitudeDegrees>
            </Position>
            <AltitudeMeters>564</AltitudeMeters>
            <DistanceMeters>NAN</DistanceMeters>
          </Trackpoint>
          <Trackpoint>
            <Time>2021-08-09T09:17:51.000Z</Time>
            <Position>
              <LatitudeDegrees>42.98577896319329738616943359375</LatitudeDegrees>
              <LongitudeDegrees>-1.8064005486667156219482421875</LongitudeDegrees>
            </Position>
            <AltitudeMeters>564</AltitudeMeters>
            <DistanceMeters>NAN</DistanceMeters>
          </Trackpoint>
          <Trackpoint>
            <Time>2021-08-09T09:17:54.000Z</Time>
            <Position>
              <LatitudeDegrees>42.9858486168086528778076171875</LatitudeDegrees>
              <LongitudeDegrees>-1.80639996193349361419677734375</LongitudeDegrees>
            </Position>
            <AltitudeMeters>564.20001220703125</AltitudeMeters>
            <DistanceMeters>NAN</DistanceMeters>
          </Trackpoint>
          <Trackpoint>
            <Time>2021-08-09T09:17:55.000Z</Time>
            <Position>
              <LatitudeDegrees>42.98587200231850147247314453125</LatitudeDegrees>
              <LongitudeDegrees>-1.80639744736254215240478515625</LongitudeDegrees>
            </Position>
            <AltitudeMeters>564.20001220703125</AltitudeMeters>
            <DistanceMeters>NAN</DistanceMeters>
          </Trackpoint>
          <Trackpoint>
            <Time>2021-08-09T09:17:56.000Z</Time>
            <Position>
              <LatitudeDegrees>42.9858925379812717437744140625</LatitudeDegrees>
              <LongitudeDegrees>-1.80639945901930332183837890625</LongitudeDegrees>
            </Position>
            <AltitudeMeters>564.20001220703125</AltitudeMeters>
            <DistanceMeters>NAN</DistanceMeters>
          </Trackpoint>
          <Trackpoint>
            <Time>2021-08-09T09:17:57.000Z</Time>
            <Position>
              <LatitudeDegrees>42.98591005615890026092529296875</LatitudeDegrees>
              <LongitudeDegrees>-1.80640163831412792205810546875</LongitudeDegrees>
            </Position>
            <AltitudeMeters>564.20001220703125</AltitudeMeters>
            <DistanceMeters>NAN</DistanceMeters>
          </Trackpoint>
          <Trackpoint>
            <Time>2021-08-09T09:17:58.000Z</Time>
            <Position>
              <LatitudeDegrees>42.985930256545543670654296875</LatitudeDegrees>
              <LongitudeDegrees>-1.806400381028652191162109375</LongitudeDegrees>
            </Position>
            <AltitudeMeters>564.20001220703125</AltitudeMeters>
            <DistanceMeters>NAN</DistanceMeters>
          </Trackpoint>
          <Trackpoint>
            <Time>2021-08-09T09:17:59.000Z</Time>
            <Position>
              <LatitudeDegrees>42.9859488643705844879150390625</LatitudeDegrees>
              <LongitudeDegrees>-1.80639426223933696746826171875</LongitudeDegrees>
            </Position>
            <AltitudeMeters>564.20001220703125</AltitudeMeters>
            <DistanceMeters>NAN</DistanceMeters>
          </Trackpoint>
          <Trackpoint>
            <Time>2021-08-09T09:18:01.000Z</Time>
            <Position>
              <LatitudeDegrees>42.98599136061966419219970703125</LatitudeDegrees>
              <LongitudeDegrees>-1.80637381039559841156005859375</LongitudeDegrees>
            </Position>
            <AltitudeMeters>564.20001220703125</AltitudeMeters>
            <DistanceMeters>NAN</DistanceMeters>
          </Trackpoint>
          <Trackpoint>
            <Time>2021-08-09T09:18:02.000Z</Time>
            <Position>
              <LatitudeDegrees>42.9860098846256732940673828125</LatitudeDegrees>
              <LongitudeDegrees>-1.80636358447372913360595703125</LongitudeDegrees>
            </Position>
            <AltitudeMeters>564.20001220703125</AltitudeMeters>
            <DistanceMeters>NAN</DistanceMeters>
          </Trackpoint>
          <Trackpoint>
            <Time>2021-08-09T09:18:03.000Z</Time>
            <Position>
              <LatitudeDegrees>42.986024804413318634033203125</LatitudeDegrees>
              <LongitudeDegrees>-1.80635268799960613250732421875</LongitudeDegrees>
            </Position>
            <AltitudeMeters>564.20001220703125</AltitudeMeters>
            <DistanceMeters>NAN</DistanceMeters>
          </Trackpoint>
          <Trackpoint>
            <Time>2021-08-09T09:18:04.000Z</Time>
            <Position>
              <LatitudeDegrees>42.9860434122383594512939453125</LatitudeDegrees>
              <LongitudeDegrees>-1.8063425458967685699462890625</LongitudeDegrees>
            </Position>
            <AltitudeMeters>564.20001220703125</AltitudeMeters>
            <DistanceMeters>NAN</DistanceMeters>
          </Trackpoint>
          <Trackpoint>
            <Time>2021-08-09T09:18:05.000Z</Time>
            <Position>
              <LatitudeDegrees>42.98606294207274913787841796875</LatitudeDegrees>
              <LongitudeDegrees>-1.80633273907005786895751953125</LongitudeDegrees>
            </Position>
            <AltitudeMeters>564.20001220703125</AltitudeMeters>
            <DistanceMeters>NAN</DistanceMeters>
          </Trackpoint>
          <Trackpoint>
            <Time>2021-08-09T09:18:06.000Z</Time>
            <Position>
              <LatitudeDegrees>42.9860836453735828399658203125</LatitudeDegrees>
              <LongitudeDegrees>-1.80631848983466625213623046875</LongitudeDegrees>
            </Position>
            <AltitudeMeters>564</AltitudeMeters>
            <DistanceMeters>NAN</DistanceMeters>
          </Trackpoint>
          <Trackpoint>
            <Time>2021-08-09T09:18:08.000Z</Time>
            <Position>
              <LatitudeDegrees>42.9861386306583881378173828125</LatitudeDegrees>
              <LongitudeDegrees>-1.80629141628742218017578125</LongitudeDegrees>
            </Position>
            <AltitudeMeters>563.79998779296875</AltitudeMeters>
            <DistanceMeters>NAN</DistanceMeters>
          </Trackpoint>
          <Trackpoint>
            <Time>2021-08-09T09:18:11.000Z</Time>
            <Position>
              <LatitudeDegrees>42.9862164147198200225830078125</LatitudeDegrees>
              <LongitudeDegrees>-1.806260906159877777099609375</LongitudeDegrees>
            </Position>
            <AltitudeMeters>563.4000244140625</AltitudeMeters>
            <DistanceMeters>NAN</DistanceMeters>
          </Trackpoint>
          <Trackpoint>
            <Time>2021-08-09T09:18:12.000Z</Time>
            <Position>
              <LatitudeDegrees>42.98623778857290744781494140625</LatitudeDegrees>
              <LongitudeDegrees>-1.80625746957957744598388671875</LongitudeDegrees>
            </Position>
            <AltitudeMeters>563.20001220703125</AltitudeMeters>
            <DistanceMeters>NAN</DistanceMeters>
          </Trackpoint>
          <Trackpoint>
            <Time>2021-08-09T09:18:13.000Z</Time>
            <Position>
              <LatitudeDegrees>42.98626058734953403472900390625</LatitudeDegrees>
              <LongitudeDegrees>-1.80625495500862598419189453125</LongitudeDegrees>
            </Position>
            <AltitudeMeters>563</AltitudeMeters>
            <DistanceMeters>NAN</DistanceMeters>
          </Trackpoint>
          <Trackpoint>
            <Time>2021-08-09T09:18:14.000Z</Time>
            <Position>
              <LatitudeDegrees>42.98628187738358974456787109375</LatitudeDegrees>
              <LongitudeDegrees>-1.8062543682754039764404296875</LongitudeDegrees>
            </Position>
            <AltitudeMeters>563</AltitudeMeters>
            <DistanceMeters>NAN</DistanceMeters>
          </Trackpoint>
          <Trackpoint>
            <Time>2021-08-09T09:18:15.000Z</Time>
            <Position>
              <LatitudeDegrees>42.98629998229444026947021484375</LatitudeDegrees>
              <LongitudeDegrees>-1.80625629611313343048095703125</LongitudeDegrees>
            </Position>
            <AltitudeMeters>562.5999755859375</AltitudeMeters>
            <DistanceMeters>NAN</DistanceMeters>
          </Trackpoint>
          <Trackpoint>
            <Time>2021-08-09T09:18:16.000Z</Time>
            <Position>
              <LatitudeDegrees>42.98631389625370502471923828125</LatitudeDegrees>
              <LongitudeDegrees>-1.8062580563127994537353515625</LongitudeDegrees>
            </Position>
            <AltitudeMeters>562.4000244140625</AltitudeMeters>
            <DistanceMeters>NAN</DistanceMeters>
          </Trackpoint>
          <Trackpoint>
            <Time>2021-08-09T09:18:17.000Z</Time>
            <Position>
              <LatitudeDegrees>42.98632018268108367919921875</LatitudeDegrees>
              <LongitudeDegrees>-1.80625763721764087677001953125</LongitudeDegrees>
            </Position>
            <AltitudeMeters>562.20001220703125</AltitudeMeters>
            <DistanceMeters>NAN</DistanceMeters>
          </Trackpoint>
          <Trackpoint>
            <Time>2021-08-09T09:18:18.000Z</Time>
            <Position>
              <LatitudeDegrees>42.98632018268108367919921875</LatitudeDegrees>
              <LongitudeDegrees>-1.80625763721764087677001953125</LongitudeDegrees>
            </Position>
            <AltitudeMeters>562</AltitudeMeters>
            <DistanceMeters>NAN</DistanceMeters>
          </Trackpoint>
          <Trackpoint>
            <Time>2021-08-09T09:18:34.000Z</Time>
            <Position>
              <LatitudeDegrees>42.98639268614351749420166015625</LatitudeDegrees>
              <LongitudeDegrees>-1.80626635439693927764892578125</LongitudeDegrees>
            </Position>
            <AltitudeMeters>561.20001220703125</AltitudeMeters>
            <DistanceMeters>NAN</DistanceMeters>
          </Trackpoint>
          <Trackpoint>
            <Time>2021-08-09T09:18:36.000Z</Time>
            <Position>
              <LatitudeDegrees>42.98645873554050922393798828125</LatitudeDegrees>
              <LongitudeDegrees>-1.8062815256416797637939453125</LongitudeDegrees>
            </Position>
            <AltitudeMeters>561.20001220703125</AltitudeMeters>
            <DistanceMeters>NAN</DistanceMeters>
          </Trackpoint>
          <Trackpoint>
            <Time>2021-08-09T09:18:39.000Z</Time>
            <Position>
              <LatitudeDegrees>42.98655579797923564910888671875</LatitudeDegrees>
              <LongitudeDegrees>-1.806328296661376953125</LongitudeDegrees>
            </Position>
            <AltitudeMeters>560.4000244140625</AltitudeMeters>
            <DistanceMeters>NAN</DistanceMeters>
          </Trackpoint>
          <Trackpoint>
            <Time>2021-08-09T09:18:41.000Z</Time>
            <Position>
              <LatitudeDegrees>42.986608184874057769775390625</LatitudeDegrees>
              <LongitudeDegrees>-1.806386299431324005126953125</LongitudeDegrees>
            </Position>
            <AltitudeMeters>560</AltitudeMeters>
            <DistanceMeters>NAN</DistanceMeters>
          </Trackpoint>
          <Trackpoint>
            <Time>2021-08-09T09:18:44.000Z</Time>
            <Position>
              <LatitudeDegrees>42.98666845075786113739013671875</LatitudeDegrees>
              <LongitudeDegrees>-1.8064702861011028289794921875</LongitudeDegrees>
            </Position>
            <AltitudeMeters>559.4000244140625</AltitudeMeters>
            <DistanceMeters>NAN</DistanceMeters>
          </Trackpoint>
          <Trackpoint>
            <Time>2021-08-09T09:18:45.000Z</Time>
            <Position>
              <LatitudeDegrees>42.98667364753782749176025390625</LatitudeDegrees>
              <LongitudeDegrees>-1.80650305934250354766845703125</LongitudeDegrees>
            </Position>
            <AltitudeMeters>559</AltitudeMeters>
            <DistanceMeters>NAN</DistanceMeters>
          </Trackpoint>
          <Trackpoint>
            <Time>2021-08-09T09:18:46.000Z</Time>
            <Position>
              <LatitudeDegrees>42.986677587032318115234375</LatitudeDegrees>
              <LongitudeDegrees>-1.80653440766036510467529296875</LongitudeDegrees>
            </Position>
            <AltitudeMeters>558.79998779296875</AltitudeMeters>
            <DistanceMeters>NAN</DistanceMeters>
          </Trackpoint>
          <Trackpoint>
            <Time>2021-08-09T09:18:47.000Z</Time>
            <Position>
              <LatitudeDegrees>42.986682616174221038818359375</LatitudeDegrees>
              <LongitudeDegrees>-1.8065688572824001312255859375</LongitudeDegrees>
            </Position>
            <AltitudeMeters>558.5999755859375</AltitudeMeters>
            <DistanceMeters>NAN</DistanceMeters>
          </Trackpoint>
          <Trackpoint>
            <Time>2021-08-09T09:18:48.000Z</Time>
            <Position>
              <LatitudeDegrees>42.9866869747638702392578125</LatitudeDegrees>
              <LongitudeDegrees>-1.80660347454249858856201171875</LongitudeDegrees>
            </Position>
            <AltitudeMeters>558.4000244140625</AltitudeMeters>
            <DistanceMeters>NAN</DistanceMeters>
          </Trackpoint>
          <Trackpoint>
            <Time>2021-08-09T09:18:49.000Z</Time>
            <Position>
              <LatitudeDegrees>42.986688651144504547119140625</LatitudeDegrees>
              <LongitudeDegrees>-1.80663683451712131500244140625</LongitudeDegrees>
            </Position>
            <AltitudeMeters>558.4000244140625</AltitudeMeters>
            <DistanceMeters>NAN</DistanceMeters>
          </Trackpoint>
          <Trackpoint>
            <Time>2021-08-09T09:18:50.000Z</Time>
            <Position>
              <LatitudeDegrees>42.986686639487743377685546875</LatitudeDegrees>
              <LongitudeDegrees>-1.8066694401204586029052734375</LongitudeDegrees>
            </Position>
            <AltitudeMeters>558.20001220703125</AltitudeMeters>
            <DistanceMeters>NAN</DistanceMeters>
          </Trackpoint>
          <Trackpoint>
            <Time>2021-08-09T09:18:51.000Z</Time>
            <Position>
              <LatitudeDegrees>42.986679263412952423095703125</LatitudeDegrees>
              <LongitudeDegrees>-1.80669986642897129058837890625</LongitudeDegrees>
            </Position>
            <AltitudeMeters>558</AltitudeMeters>
            <DistanceMeters>NAN</DistanceMeters>
          </Trackpoint>
          <Trackpoint>
            <Time>2021-08-09T09:18:52.000Z</Time>
            <Position>
              <LatitudeDegrees>42.98667046241462230682373046875</LatitudeDegrees>
              <LongitudeDegrees>-1.806725598871707916259765625</LongitudeDegrees>
            </Position>
            <AltitudeMeters>557.79998779296875</AltitudeMeters>
            <DistanceMeters>NAN</DistanceMeters>
          </Trackpoint>
          <Trackpoint>
            <Time>2021-08-09T09:18:53.000Z</Time>
            <Position>
              <LatitudeDegrees>42.98666409216821193695068359375</LatitudeDegrees>
              <LongitudeDegrees>-1.80674999020993709564208984375</LongitudeDegrees>
            </Position>
            <AltitudeMeters>557.4000244140625</AltitudeMeters>
            <DistanceMeters>NAN</DistanceMeters>
          </Trackpoint>
          <Trackpoint>
            <Time>2021-08-09T09:18:54.000Z</Time>
            <Position>
              <LatitudeDegrees>42.98666023649275302886962890625</LatitudeDegrees>
              <LongitudeDegrees>-1.80677580647170543670654296875</LongitudeDegrees>
            </Position>
            <AltitudeMeters>557.20001220703125</AltitudeMeters>
            <DistanceMeters>NAN</DistanceMeters>
          </Trackpoint>
          <Trackpoint>
            <Time>2021-08-09T09:18:55.000Z</Time>
            <Position>
              <LatitudeDegrees>42.98665470443665981292724609375</LatitudeDegrees>
              <LongitudeDegrees>-1.80679977871477603912353515625</LongitudeDegrees>
            </Position>
            <AltitudeMeters>557.20001220703125</AltitudeMeters>
            <DistanceMeters>NAN</DistanceMeters>
          </Trackpoint>
          <Trackpoint>
            <Time>2021-08-09T09:18:56.000Z</Time>
            <Position>
              <LatitudeDegrees>42.9866485856473445892333984375</LatitudeDegrees>
              <LongitudeDegrees>-1.806820146739482879638671875</LongitudeDegrees>
            </Position>
            <AltitudeMeters>557</AltitudeMeters>
            <DistanceMeters>NAN</DistanceMeters>
          </Trackpoint>
          <Trackpoint>
            <Time>2021-08-09T09:18:57.000Z</Time>
            <Position>
              <LatitudeDegrees>42.986640371382236480712890625</LatitudeDegrees>
              <LongitudeDegrees>-1.80684369988739490509033203125</LongitudeDegrees>
            </Position>
            <AltitudeMeters>557</AltitudeMeters>
            <DistanceMeters>NAN</DistanceMeters>
          </Trackpoint>
          <Trackpoint>
            <Time>2021-08-09T09:18:58.000Z</Time>
            <Position>
              <LatitudeDegrees>42.98663307912647724151611328125</LatitudeDegrees>
              <LongitudeDegrees>-1.806871108710765838623046875</LongitudeDegrees>
            </Position>
            <AltitudeMeters>556.79998779296875</AltitudeMeters>
            <DistanceMeters>NAN</DistanceMeters>
          </Trackpoint>
          <Trackpoint>
            <Time>2021-08-09T09:18:59.000Z</Time>
            <Position>
              <LatitudeDegrees>42.986627630889415740966796875</LatitudeDegrees>
              <LongitudeDegrees>-1.80690287612378597259521484375</LongitudeDegrees>
            </Position>
            <AltitudeMeters>556.4000244140625</AltitudeMeters>
            <DistanceMeters>NAN</DistanceMeters>
          </Trackpoint>
          <Trackpoint>
            <Time>2021-08-09T09:19:01.000Z</Time>
            <Position>
              <LatitudeDegrees>42.9866194166243076324462890625</LatitudeDegrees>
              <LongitudeDegrees>-1.80698183365166187286376953125</LongitudeDegrees>
            </Position>
            <AltitudeMeters>556.20001220703125</AltitudeMeters>
            <DistanceMeters>NAN</DistanceMeters>
          </Trackpoint>
          <Trackpoint>
            <Time>2021-08-09T09:19:02.000Z</Time>
            <Position>
              <LatitudeDegrees>42.986622266471385955810546875</LatitudeDegrees>
              <LongitudeDegrees>-1.80702877230942249298095703125</LongitudeDegrees>
            </Position>
            <AltitudeMeters>556</AltitudeMeters>
            <DistanceMeters>NAN</DistanceMeters>
          </Trackpoint>
          <Trackpoint>
            <Time>2021-08-09T09:19:03.000Z</Time>
            <Position>
              <LatitudeDegrees>42.98663341440260410308837890625</LatitudeDegrees>
              <LongitudeDegrees>-1.80707604624330997467041015625</LongitudeDegrees>
            </Position>
            <AltitudeMeters>556</AltitudeMeters>
            <DistanceMeters>NAN</DistanceMeters>
          </Trackpoint>
          <Trackpoint>
            <Time>2021-08-09T09:19:04.000Z</Time>
            <Position>
              <LatitudeDegrees>42.9866489209234714508056640625</LatitudeDegrees>
              <LongitudeDegrees>-1.80713119916617870330810546875</LongitudeDegrees>
            </Position>
            <AltitudeMeters>555.5999755859375</AltitudeMeters>
            <DistanceMeters>NAN</DistanceMeters>
          </Trackpoint>
          <Trackpoint>
            <Time>2021-08-09T09:19:05.000Z</Time>
            <Position>
              <LatitudeDegrees>42.9866708815097808837890625</LatitudeDegrees>
              <LongitudeDegrees>-1.80718685500323772430419921875</LongitudeDegrees>
            </Position>
            <AltitudeMeters>555.4000244140625</AltitudeMeters>
            <DistanceMeters>NAN</DistanceMeters>
          </Trackpoint>
          <Trackpoint>
            <Time>2021-08-09T09:19:06.000Z</Time>
            <Position>
              <LatitudeDegrees>42.98669728450477123260498046875</LatitudeDegrees>
              <LongitudeDegrees>-1.807241253554821014404296875</LongitudeDegrees>
            </Position>
            <AltitudeMeters>555.4000244140625</AltitudeMeters>
            <DistanceMeters>NAN</DistanceMeters>
          </Trackpoint>
          <Trackpoint>
            <Time>2021-08-09T09:19:08.000Z</Time>
            <Position>
              <LatitudeDegrees>42.9867521859705448150634765625</LatitudeDegrees>
              <LongitudeDegrees>-1.80732750333845615386962890625</LongitudeDegrees>
            </Position>
            <AltitudeMeters>554.79998779296875</AltitudeMeters>
            <DistanceMeters>NAN</DistanceMeters>
          </Trackpoint>
          <Trackpoint>
            <Time>2021-08-09T09:19:09.000Z</Time>
            <Position>
              <LatitudeDegrees>42.986775152385234832763671875</LatitudeDegrees>
              <LongitudeDegrees>-1.8073500506579875946044921875</LongitudeDegrees>
            </Position>
            <AltitudeMeters>554.20001220703125</AltitudeMeters>
            <DistanceMeters>NAN</DistanceMeters>
          </Trackpoint>
          <Trackpoint>
            <Time>2021-08-09T09:19:10.000Z</Time>
            <Position>
              <LatitudeDegrees>42.98678915016353130340576171875</LatitudeDegrees>
              <LongitudeDegrees>-1.80736505426466464996337890625</LongitudeDegrees>
            </Position>
            <AltitudeMeters>554</AltitudeMeters>
            <DistanceMeters>NAN</DistanceMeters>
          </Trackpoint>
          <Trackpoint>
            <Time>2021-08-09T09:19:11.000Z</Time>
            <Position>
              <LatitudeDegrees>42.98679484985768795013427734375</LatitudeDegrees>
              <LongitudeDegrees>-1.80736941285431385040283203125</LongitudeDegrees>
            </Position>
            <AltitudeMeters>553.79998779296875</AltitudeMeters>
            <DistanceMeters>NAN</DistanceMeters>
          </Trackpoint>
          <Trackpoint>
            <Time>2021-08-09T09:19:12.000Z</Time>
            <Position>
              <LatitudeDegrees>42.98679484985768795013427734375</LatitudeDegrees>
              <LongitudeDegrees>-1.80736941285431385040283203125</LongitudeDegrees>
            </Position>
            <AltitudeMeters>553.4000244140625</AltitudeMeters>
            <DistanceMeters>NAN</DistanceMeters>
          </Trackpoint>
          <Trackpoint>
            <Time>2021-08-09T09:19:13.000Z</Time>
            <Position>
              <LatitudeDegrees>42.98679484985768795013427734375</LatitudeDegrees>
              <LongitudeDegrees>-1.80736941285431385040283203125</LongitudeDegrees>
            </Position>
            <AltitudeMeters>553.20001220703125</AltitudeMeters>
            <DistanceMeters>NAN</DistanceMeters>
          </Trackpoint>
          <Trackpoint>
            <Time>2021-08-09T09:19:24.000Z</Time>
            <Position>
              <LatitudeDegrees>42.98679484985768795013427734375</LatitudeDegrees>
              <LongitudeDegrees>-1.80736941285431385040283203125</LongitudeDegrees>
            </Position>
            <AltitudeMeters>552.20001220703125</AltitudeMeters>
            <DistanceMeters>NAN</DistanceMeters>
          </Trackpoint>
          <Trackpoint>
            <Time>2021-08-09T09:19:36.000Z</Time>
            <Position>
              <LatitudeDegrees>42.98679484985768795013427734375</LatitudeDegrees>
              <LongitudeDegrees>-1.80736941285431385040283203125</LongitudeDegrees>
            </Position>
            <AltitudeMeters>552.20001220703125</AltitudeMeters>
            <DistanceMeters>NAN</DistanceMeters>
          </Trackpoint>
          <Trackpoint>
            <Time>2021-08-09T09:19:56.000Z</Time>
            <Position>
              <LatitudeDegrees>42.98677121289074420928955078125</LatitudeDegrees>
              <LongitudeDegrees>-1.80736723355948925018310546875</LongitudeDegrees>
            </Position>
            <AltitudeMeters>552</AltitudeMeters>
            <DistanceMeters>NAN</DistanceMeters>
          </Trackpoint>
          <Trackpoint>
            <Time>2021-08-09T09:19:57.000Z</Time>
            <Position>
              <LatitudeDegrees>42.986757047474384307861328125</LatitudeDegrees>
              <LongitudeDegrees>-1.80735700763761997222900390625</LongitudeDegrees>
            </Position>
            <AltitudeMeters>552</AltitudeMeters>
            <DistanceMeters>NAN</DistanceMeters>
          </Trackpoint>
          <Trackpoint>
            <Time>2021-08-09T09:20:01.000Z</Time>
            <Position>
              <LatitudeDegrees>42.98669225536286830902099609375</LatitudeDegrees>
              <LongitudeDegrees>-1.8072786368429660797119140625</LongitudeDegrees>
            </Position>
            <AltitudeMeters>552.20001220703125</AltitudeMeters>
            <DistanceMeters>NAN</DistanceMeters>
          </Trackpoint>
          <Trackpoint>
            <Time>2021-08-09T09:20:02.000Z</Time>
            <Position>
              <LatitudeDegrees>42.98667985014617443084716796875</LatitudeDegrees>
              <LongitudeDegrees>-1.80726614780724048614501953125</LongitudeDegrees>
            </Position>
            <AltitudeMeters>552.20001220703125</AltitudeMeters>
            <DistanceMeters>NAN</DistanceMeters>
          </Trackpoint>
          <Trackpoint>
            <Time>2021-08-09T09:20:03.000Z</Time>
            <Position>
              <LatitudeDegrees>42.9866700433194637298583984375</LatitudeDegrees>
              <LongitudeDegrees>-1.80724896490573883056640625</LongitudeDegrees>
            </Position>
            <AltitudeMeters>552.4000244140625</AltitudeMeters>
            <DistanceMeters>NAN</DistanceMeters>
          </Trackpoint>
          <Trackpoint>
            <Time>2021-08-09T09:20:04.000Z</Time>
            <Position>
              <LatitudeDegrees>42.98667163588106632232666015625</LatitudeDegrees>
              <LongitudeDegrees>-1.80723379366099834442138671875</LongitudeDegrees>
            </Position>
            <AltitudeMeters>552.4000244140625</AltitudeMeters>
            <DistanceMeters>NAN</DistanceMeters>
          </Trackpoint>
          <Trackpoint>
            <Time>2021-08-09T09:20:07.000Z</Time>
            <Position>
              <LatitudeDegrees>42.98672460950911045074462890625</LatitudeDegrees>
              <LongitudeDegrees>-1.80729380808770656585693359375</LongitudeDegrees>
            </Position>
            <AltitudeMeters>552.79998779296875</AltitudeMeters>
            <DistanceMeters>NAN</DistanceMeters>
          </Trackpoint>
          <Trackpoint>
            <Time>2021-08-09T09:20:09.000Z</Time>
            <Position>
              <LatitudeDegrees>42.98678747378289699554443359375</LatitudeDegrees>
              <LongitudeDegrees>-1.807390786707401275634765625</LongitudeDegrees>
            </Position>
            <AltitudeMeters>553</AltitudeMeters>
            <DistanceMeters>NAN</DistanceMeters>
          </Trackpoint>
          <Trackpoint>
            <Time>2021-08-09T09:20:11.000Z</Time>
            <Position>
              <LatitudeDegrees>42.98688638024032115936279296875</LatitudeDegrees>
              <LongitudeDegrees>-1.80748474784195423126220703125</LongitudeDegrees>
            </Position>
            <AltitudeMeters>553</AltitudeMeters>
            <DistanceMeters>NAN</DistanceMeters>
          </Trackpoint>
          <Trackpoint>
            <Time>2021-08-09T09:20:12.000Z</Time>
            <Position>
              <LatitudeDegrees>42.98694388009607791900634765625</LatitudeDegrees>
              <LongitudeDegrees>-1.80752095766365528106689453125</LongitudeDegrees>
            </Position>
            <AltitudeMeters>553</AltitudeMeters>
            <DistanceMeters>NAN</DistanceMeters>
          </Trackpoint>
          <Trackpoint>
            <Time>2021-08-09T09:20:13.000Z</Time>
            <Position>
              <LatitudeDegrees>42.98700557090342044830322265625</LatitudeDegrees>
              <LongitudeDegrees>-1.8075481988489627838134765625</LongitudeDegrees>
            </Position>
            <AltitudeMeters>552.5999755859375</AltitudeMeters>
            <DistanceMeters>NAN</DistanceMeters>
          </Trackpoint>
          <Trackpoint>
            <Time>2021-08-09T09:20:15.000Z</Time>
            <Position>
              <LatitudeDegrees>42.9871494881808757781982421875</LatitudeDegrees>
              <LongitudeDegrees>-1.80762112140655517578125</LongitudeDegrees>
            </Position>
            <AltitudeMeters>552</AltitudeMeters>
            <DistanceMeters>NAN</DistanceMeters>
          </Trackpoint>
          <Trackpoint>
            <Time>2021-08-09T09:20:16.000Z</Time>
            <Position>
              <LatitudeDegrees>42.98720531165599822998046875</LatitudeDegrees>
              <LongitudeDegrees>-1.807644255459308624267578125</LongitudeDegrees>
            </Position>
            <AltitudeMeters>551.79998779296875</AltitudeMeters>
            <DistanceMeters>NAN</DistanceMeters>
          </Trackpoint>
          <Trackpoint>
            <Time>2021-08-09T09:20:17.000Z</Time>
            <Position>
              <LatitudeDegrees>42.98727848567068576812744140625</LatitudeDegrees>
              <LongitudeDegrees>-1.80766378529369831085205078125</LongitudeDegrees>
            </Position>
            <AltitudeMeters>551.20001220703125</AltitudeMeters>
            <DistanceMeters>NAN</DistanceMeters>
          </Trackpoint>
          <Trackpoint>
            <Time>2021-08-09T09:20:18.000Z</Time>
            <Position>
              <LatitudeDegrees>42.98735073767602443695068359375</LatitudeDegrees>
              <LongitudeDegrees>-1.80766797624528408050537109375</LongitudeDegrees>
            </Position>
            <AltitudeMeters>550.79998779296875</AltitudeMeters>
            <DistanceMeters>NAN</DistanceMeters>
          </Trackpoint>
          <Trackpoint>
            <Time>2021-08-09T09:20:19.000Z</Time>
            <Position>
              <LatitudeDegrees>42.98742382787168025970458984375</LatitudeDegrees>
              <LongitudeDegrees>-1.80766043253242969512939453125</LongitudeDegrees>
            </Position>
            <AltitudeMeters>550.4000244140625</AltitudeMeters>
            <DistanceMeters>NAN</DistanceMeters>
          </Trackpoint>
          <Trackpoint>
            <Time>2021-08-09T09:20:20.000Z</Time>
            <Position>
              <LatitudeDegrees>42.98751435242593288421630859375</LatitudeDegrees>
              <LongitudeDegrees>-1.807646937668323516845703125</LongitudeDegrees>
            </Position>
            <AltitudeMeters>550</AltitudeMeters>
            <DistanceMeters>NAN</DistanceMeters>
          </Trackpoint>
          <Trackpoint>
            <Time>2021-08-09T09:20:21.000Z</Time>
            <Position>
              <LatitudeDegrees>42.98759314231574535369873046875</LatitudeDegrees>
              <LongitudeDegrees>-1.80762774311006069183349609375</LongitudeDegrees>
            </Position>
            <AltitudeMeters>549.79998779296875</AltitudeMeters>
            <DistanceMeters>NAN</DistanceMeters>
          </Trackpoint>
          <Trackpoint>
            <Time>2021-08-09T09:20:23.000Z</Time>
            <Position>
              <LatitudeDegrees>42.98773295246064662933349609375</LatitudeDegrees>
              <LongitudeDegrees>-1.8075535632669925689697265625</LongitudeDegrees>
            </Position>
            <AltitudeMeters>549.4000244140625</AltitudeMeters>
            <DistanceMeters>NAN</DistanceMeters>
          </Trackpoint>
          <Trackpoint>
            <Time>2021-08-09T09:20:24.000Z</Time>
            <Position>
              <LatitudeDegrees>42.98780017532408237457275390625</LatitudeDegrees>
              <LongitudeDegrees>-1.80748902261257171630859375</LongitudeDegrees>
            </Position>
            <AltitudeMeters>549</AltitudeMeters>
            <DistanceMeters>NAN</DistanceMeters>
          </Trackpoint>
          <Trackpoint>
            <Time>2021-08-09T09:20:25.000Z</Time>
            <Position>
              <LatitudeDegrees>42.98785080201923847198486328125</LatitudeDegrees>
              <LongitudeDegrees>-1.8073979951441287994384765625</LongitudeDegrees>
            </Position>
            <AltitudeMeters>548.4000244140625</AltitudeMeters>
            <DistanceMeters>NAN</DistanceMeters>
          </Trackpoint>
          <Trackpoint>
            <Time>2021-08-09T09:20:26.000Z</Time>
            <Position>
              <LatitudeDegrees>42.98788650892674922943115234375</LatitudeDegrees>
              <LongitudeDegrees>-1.80729414336383342742919921875</LongitudeDegrees>
            </Position>
            <AltitudeMeters>547.79998779296875</AltitudeMeters>
            <DistanceMeters>NAN</DistanceMeters>
          </Trackpoint>
          <Trackpoint>
            <Time>2021-08-09T09:20:27.000Z</Time>
            <Position>
              <LatitudeDegrees>42.98792137764394283294677734375</LatitudeDegrees>
              <LongitudeDegrees>-1.8071830831468105316162109375</LongitudeDegrees>
            </Position>
            <AltitudeMeters>547</AltitudeMeters>
            <DistanceMeters>NAN</DistanceMeters>
          </Trackpoint>
          <Trackpoint>
            <Time>2021-08-09T09:20:28.000Z</Time>
            <Position>
              <LatitudeDegrees>42.98796379007399082183837890625</LatitudeDegrees>
              <LongitudeDegrees>-1.80707395076751708984375</LongitudeDegrees>
            </Position>
            <AltitudeMeters>546.79998779296875</AltitudeMeters>
            <DistanceMeters>NAN</DistanceMeters>
          </Trackpoint>
          <Trackpoint>
            <Time>2021-08-09T09:20:29.000Z</Time>
            <Position>
              <LatitudeDegrees>42.9880227148532867431640625</LatitudeDegrees>
              <LongitudeDegrees>-1.80697915144264698028564453125</LongitudeDegrees>
            </Position>
            <AltitudeMeters>545.79998779296875</AltitudeMeters>
            <DistanceMeters>NAN</DistanceMeters>
          </Trackpoint>
          <Trackpoint>
            <Time>2021-08-09T09:20:30.000Z</Time>
            <Position>
              <LatitudeDegrees>42.98809982836246490478515625</LatitudeDegrees>
              <LongitudeDegrees>-1.80690874345600605010986328125</LongitudeDegrees>
            </Position>
            <AltitudeMeters>545.4000244140625</AltitudeMeters>
            <DistanceMeters>NAN</DistanceMeters>
          </Trackpoint>
          <Trackpoint>
            <Time>2021-08-09T09:20:31.000Z</Time>
            <Position>
              <LatitudeDegrees>42.98818574286997318267822265625</LatitudeDegrees>
              <LongitudeDegrees>-1.80686934851109981536865234375</LongitudeDegrees>
            </Position>
            <AltitudeMeters>544.79998779296875</AltitudeMeters>
            <DistanceMeters>NAN</DistanceMeters>
          </Trackpoint>
          <Trackpoint>
            <Time>2021-08-09T09:20:32.000Z</Time>
            <Position>
              <LatitudeDegrees>42.988279871642589569091796875</LatitudeDegrees>
              <LongitudeDegrees>-1.80686851032078266143798828125</LongitudeDegrees>
            </Position>
            <AltitudeMeters>543.79998779296875</AltitudeMeters>
            <DistanceMeters>NAN</DistanceMeters>
          </Trackpoint>
          <Trackpoint>
            <Time>2021-08-09T09:20:33.000Z</Time>
            <Position>
              <LatitudeDegrees>42.9883752577006816864013671875</LatitudeDegrees>
              <LongitudeDegrees>-1.806888878345489501953125</LongitudeDegrees>
            </Position>
            <AltitudeMeters>543.4000244140625</AltitudeMeters>
            <DistanceMeters>NAN</DistanceMeters>
          </Trackpoint>
          <Trackpoint>
            <Time>2021-08-09T09:20:34.000Z</Time>
            <Position>
              <LatitudeDegrees>42.98846838064491748809814453125</LatitudeDegrees>
              <LongitudeDegrees>-1.806921064853668212890625</LongitudeDegrees>
            </Position>
            <AltitudeMeters>542.79998779296875</AltitudeMeters>
            <DistanceMeters>NAN</DistanceMeters>
          </Trackpoint>
          <Trackpoint>
            <Time>2021-08-09T09:20:35.000Z</Time>
            <Position>
              <LatitudeDegrees>42.98855714499950408935546875</LatitudeDegrees>
              <LongitudeDegrees>-1.80697076953947544097900390625</LongitudeDegrees>
            </Position>
            <AltitudeMeters>542.20001220703125</AltitudeMeters>
            <DistanceMeters>NAN</DistanceMeters>
          </Trackpoint>
          <Trackpoint>
            <Time>2021-08-09T09:20:36.000Z</Time>
            <Position>
              <LatitudeDegrees>42.98863467760384082794189453125</LatitudeDegrees>
              <LongitudeDegrees>-1.8070399202406406402587890625</LongitudeDegrees>
            </Position>
            <AltitudeMeters>541.20001220703125</AltitudeMeters>
            <DistanceMeters>NAN</DistanceMeters>
          </Trackpoint>
          <Trackpoint>
            <Time>2021-08-09T09:20:37.000Z</Time>
            <Position>
              <LatitudeDegrees>42.988704331219196319580078125</LatitudeDegrees>
              <LongitudeDegrees>-1.807121224701404571533203125</LongitudeDegrees>
            </Position>
            <AltitudeMeters>540.79998779296875</AltitudeMeters>
            <DistanceMeters>NAN</DistanceMeters>
          </Trackpoint>
          <Trackpoint>
            <Time>2021-08-09T09:20:38.000Z</Time>
            <Position>
              <LatitudeDegrees>42.9887728951871395111083984375</LatitudeDegrees>
              <LongitudeDegrees>-1.80720194242894649505615234375</LongitudeDegrees>
            </Position>
            <AltitudeMeters>539.79998779296875</AltitudeMeters>
            <DistanceMeters>NAN</DistanceMeters>
          </Trackpoint>
          <Trackpoint>
            <Time>2021-08-09T09:20:39.000Z</Time>
            <Position>
              <LatitudeDegrees>42.98883198760449886322021484375</LatitudeDegrees>
              <LongitudeDegrees>-1.80727872066199779510498046875</LongitudeDegrees>
            </Position>
            <AltitudeMeters>538.5999755859375</AltitudeMeters>
            <DistanceMeters>NAN</DistanceMeters>
          </Trackpoint>
          <Trackpoint>
            <Time>2021-08-09T09:20:40.000Z</Time>
            <Position>
              <LatitudeDegrees>42.9888798482716083526611328125</LatitudeDegrees>
              <LongitudeDegrees>-1.80735466070473194122314453125</LongitudeDegrees>
            </Position>
            <AltitudeMeters>538.20001220703125</AltitudeMeters>
            <DistanceMeters>NAN</DistanceMeters>
          </Trackpoint>
          <Trackpoint>
            <Time>2021-08-09T09:20:41.000Z</Time>
            <Position>
              <LatitudeDegrees>42.98892234452068805694580078125</LatitudeDegrees>
              <LongitudeDegrees>-1.807424984872341156005859375</LongitudeDegrees>
            </Position>
            <AltitudeMeters>537.20001220703125</AltitudeMeters>
            <DistanceMeters>NAN</DistanceMeters>
          </Trackpoint>
          <Trackpoint>
            <Time>2021-08-09T09:20:42.000Z</Time>
            <Position>
              <LatitudeDegrees>42.98896215856075286865234375</LatitudeDegrees>
              <LongitudeDegrees>-1.80748826824128627777099609375</LongitudeDegrees>
            </Position>
            <AltitudeMeters>537</AltitudeMeters>
            <DistanceMeters>NAN</DistanceMeters>
          </Trackpoint>
          <Trackpoint>
            <Time>2021-08-09T09:20:43.000Z</Time>
            <Position>
              <LatitudeDegrees>42.9889995418488979339599609375</LatitudeDegrees>
              <LongitudeDegrees>-1.80754275061190128326416015625</LongitudeDegrees>
            </Position>
            <AltitudeMeters>536.20001220703125</AltitudeMeters>
            <DistanceMeters>NAN</DistanceMeters>
          </Trackpoint>
          <Trackpoint>
            <Time>2021-08-09T09:20:44.000Z</Time>
            <Position>
              <LatitudeDegrees>42.9890340752899646759033203125</LatitudeDegrees>
              <LongitudeDegrees>-1.8075884319841861724853515625</LongitudeDegrees>
            </Position>
            <AltitudeMeters>535.79998779296875</AltitudeMeters>
            <DistanceMeters>NAN</DistanceMeters>
          </Trackpoint>
          <Trackpoint>
            <Time>2021-08-09T09:20:45.000Z</Time>
            <Position>
              <LatitudeDegrees>42.9890660941600799560546875</LatitudeDegrees>
              <LongitudeDegrees>-1.80762874893844127655029296875</LongitudeDegrees>
            </Position>
            <AltitudeMeters>534.79998779296875</AltitudeMeters>
            <DistanceMeters>NAN</DistanceMeters>
          </Trackpoint>
          <Trackpoint>
            <Time>2021-08-09T09:20:46.000Z</Time>
            <Position>
              <LatitudeDegrees>42.9890944249927997589111328125</LatitudeDegrees>
              <LongitudeDegrees>-1.8076578341424465179443359375</LongitudeDegrees>
            </Position>
            <AltitudeMeters>534</AltitudeMeters>
            <DistanceMeters>NAN</DistanceMeters>
          </Trackpoint>
          <Trackpoint>
            <Time>2021-08-09T09:20:47.000Z</Time>
            <Position>
              <LatitudeDegrees>42.98911697231233119964599609375</LatitudeDegrees>
              <LongitudeDegrees>-1.80767551995813846588134765625</LongitudeDegrees>
            </Position>
            <AltitudeMeters>533.5999755859375</AltitudeMeters>
            <DistanceMeters>NAN</DistanceMeters>
          </Trackpoint>
          <Trackpoint>
            <Time>2021-08-09T09:20:48.000Z</Time>
            <Position>
              <LatitudeDegrees>42.98913516104221343994140625</LatitudeDegrees>
              <LongitudeDegrees>-1.8076843209564685821533203125</LongitudeDegrees>
            </Position>
            <AltitudeMeters>532.79998779296875</AltitudeMeters>
            <DistanceMeters>NAN</DistanceMeters>
          </Trackpoint>
          <Trackpoint>
            <Time>2021-08-09T09:20:49.000Z</Time>
            <Position>
              <LatitudeDegrees>42.98915100283920764923095703125</LatitudeDegrees>
              <LongitudeDegrees>-1.8076921999454498291015625</LongitudeDegrees>
            </Position>
            <AltitudeMeters>532.5999755859375</AltitudeMeters>
            <DistanceMeters>NAN</DistanceMeters>
          </Trackpoint>
          <Trackpoint>
            <Time>2021-08-09T09:20:50.000Z</Time>
            <Position>
              <LatitudeDegrees>42.98916273750364780426025390625</LatitudeDegrees>
              <LongitudeDegrees>-1.8076987378299236297607421875</LongitudeDegrees>
            </Position>
            <AltitudeMeters>532</AltitudeMeters>
            <DistanceMeters>NAN</DistanceMeters>
          </Trackpoint>
          <Trackpoint>
            <Time>2021-08-09T09:20:51.000Z</Time>
            <Position>
              <LatitudeDegrees>42.98916709609329700469970703125</LatitudeDegrees>
              <LongitudeDegrees>-1.80770033039152622222900390625</LongitudeDegrees>
            </Position>
            <AltitudeMeters>531.79998779296875</AltitudeMeters>
            <DistanceMeters>NAN</DistanceMeters>
          </Trackpoint>
          <Trackpoint>
            <Time>2021-08-09T09:20:53.000Z</Time>
            <Position>
              <LatitudeDegrees>42.98916709609329700469970703125</LatitudeDegrees>
              <LongitudeDegrees>-1.80770033039152622222900390625</LongitudeDegrees>
            </Position>
            <AltitudeMeters>531</AltitudeMeters>
            <DistanceMeters>NAN</DistanceMeters>
          </Trackpoint>
          <Trackpoint>
            <Time>2021-08-09T09:20:57.000Z</Time>
            <Position>
              <LatitudeDegrees>42.98916709609329700469970703125</LatitudeDegrees>
              <LongitudeDegrees>-1.80770033039152622222900390625</LongitudeDegrees>
            </Position>
            <AltitudeMeters>530.5999755859375</AltitudeMeters>
            <DistanceMeters>NAN</DistanceMeters>
          </Trackpoint>
          <Trackpoint>
            <Time>2021-08-09T09:21:06.000Z</Time>
            <Position>
              <LatitudeDegrees>42.989208586513996124267578125</LatitudeDegrees>
              <LongitudeDegrees>-1.80768943391740322113037109375</LongitudeDegrees>
            </Position>
            <AltitudeMeters>530.4000244140625</AltitudeMeters>
            <DistanceMeters>NAN</DistanceMeters>
          </Trackpoint>
          <Trackpoint>
            <Time>2021-08-09T09:21:07.000Z</Time>
            <Position>
              <LatitudeDegrees>42.989223338663578033447265625</LatitudeDegrees>
              <LongitudeDegrees>-1.8076890148222446441650390625</LongitudeDegrees>
            </Position>
            <AltitudeMeters>530.4000244140625</AltitudeMeters>
            <DistanceMeters>NAN</DistanceMeters>
          </Trackpoint>
          <Trackpoint>
            <Time>2021-08-09T09:21:12.000Z</Time>
            <Position>
              <LatitudeDegrees>42.989352084696292877197265625</LatitudeDegrees>
              <LongitudeDegrees>-1.80764785967767238616943359375</LongitudeDegrees>
            </Position>
            <AltitudeMeters>530.4000244140625</AltitudeMeters>
            <DistanceMeters>NAN</DistanceMeters>
          </Trackpoint>
          <Trackpoint>
            <Time>2021-08-09T09:21:16.000Z</Time>
            <Position>
              <LatitudeDegrees>42.98952450044453144073486328125</LatitudeDegrees>
              <LongitudeDegrees>-1.80761248804628849029541015625</LongitudeDegrees>
            </Position>
            <AltitudeMeters>530.20001220703125</AltitudeMeters>
            <DistanceMeters>NAN</DistanceMeters>
          </Trackpoint>
          <Trackpoint>
            <Time>2021-08-09T09:21:18.000Z</Time>
            <Position>
              <LatitudeDegrees>42.98963631503283977508544921875</LatitudeDegrees>
              <LongitudeDegrees>-1.80761902593076229095458984375</LongitudeDegrees>
            </Position>
            <AltitudeMeters>530</AltitudeMeters>
            <DistanceMeters>NAN</DistanceMeters>
          </Trackpoint>
          <Trackpoint>
            <Time>2021-08-09T09:21:22.000Z</Time>
            <Position>
              <LatitudeDegrees>42.989925406873226165771484375</LatitudeDegrees>
              <LongitudeDegrees>-1.8077111430466175079345703125</LongitudeDegrees>
            </Position>
            <AltitudeMeters>529</AltitudeMeters>
            <DistanceMeters>NAN</DistanceMeters>
          </Trackpoint>
          <Trackpoint>
            <Time>2021-08-09T09:21:25.000Z</Time>
            <Position>
              <LatitudeDegrees>42.9901523888111114501953125</LatitudeDegrees>
              <LongitudeDegrees>-1.80779806338250637054443359375</LongitudeDegrees>
            </Position>
            <AltitudeMeters>527.79998779296875</AltitudeMeters>
            <DistanceMeters>NAN</DistanceMeters>
          </Trackpoint>
          <Trackpoint>
            <Time>2021-08-09T09:21:26.000Z</Time>
            <Position>
              <LatitudeDegrees>42.99022740684449672698974609375</LatitudeDegrees>
              <LongitudeDegrees>-1.8078261427581310272216796875</LongitudeDegrees>
            </Position>
            <AltitudeMeters>527.4000244140625</AltitudeMeters>
            <DistanceMeters>NAN</DistanceMeters>
          </Trackpoint>
          <Trackpoint>
            <Time>2021-08-09T09:21:27.000Z</Time>
            <Position>
              <LatitudeDegrees>42.9902990721166133880615234375</LatitudeDegrees>
              <LongitudeDegrees>-1.80785246193408966064453125</LongitudeDegrees>
            </Position>
            <AltitudeMeters>527.20001220703125</AltitudeMeters>
            <DistanceMeters>NAN</DistanceMeters>
          </Trackpoint>
          <Trackpoint>
            <Time>2021-08-09T09:21:28.000Z</Time>
            <Position>
              <LatitudeDegrees>42.99037056975066661834716796875</LatitudeDegrees>
              <LongitudeDegrees>-1.80787651799619197845458984375</LongitudeDegrees>
            </Position>
            <AltitudeMeters>526.4000244140625</AltitudeMeters>
            <DistanceMeters>NAN</DistanceMeters>
          </Trackpoint>
          <Trackpoint>
            <Time>2021-08-09T09:21:30.000Z</Time>
            <Position>
              <LatitudeDegrees>42.9905129782855510711669921875</LatitudeDegrees>
              <LongitudeDegrees>-1.80792354047298431396484375</LongitudeDegrees>
            </Position>
            <AltitudeMeters>526.20001220703125</AltitudeMeters>
            <DistanceMeters>NAN</DistanceMeters>
          </Trackpoint>
          <Trackpoint>
            <Time>2021-08-09T09:21:31.000Z</Time>
            <Position>
              <LatitudeDegrees>42.99057953059673309326171875</LatitudeDegrees>
              <LongitudeDegrees>-1.80794709362089633941650390625</LongitudeDegrees>
            </Position>
            <AltitudeMeters>526</AltitudeMeters>
            <DistanceMeters>NAN</DistanceMeters>
          </Trackpoint>
          <Trackpoint>
            <Time>2021-08-09T09:21:33.000Z</Time>
            <Position>
              <LatitudeDegrees>42.99070500768721103668212890625</LatitudeDegrees>
              <LongitudeDegrees>-1.80800040252506732940673828125</LongitudeDegrees>
            </Position>
            <AltitudeMeters>526</AltitudeMeters>
            <DistanceMeters>NAN</DistanceMeters>
          </Trackpoint>
          <Trackpoint>
            <Time>2021-08-09T09:21:34.000Z</Time>
            <Position>
              <LatitudeDegrees>42.9907612502574920654296875</LatitudeDegrees>
              <LongitudeDegrees>-1.808025799691677093505859375</LongitudeDegrees>
            </Position>
            <AltitudeMeters>526</AltitudeMeters>
            <DistanceMeters>NAN</DistanceMeters>
          </Trackpoint>
          <Trackpoint>
            <Time>2021-08-09T09:21:35.000Z</Time>
            <Position>
              <LatitudeDegrees>42.990815900266170501708984375</LatitudeDegrees>
              <LongitudeDegrees>-1.80804717354476451873779296875</LongitudeDegrees>
            </Position>
            <AltitudeMeters>526.4000244140625</AltitudeMeters>
            <DistanceMeters>NAN</DistanceMeters>
          </Trackpoint>
          <Trackpoint>
            <Time>2021-08-09T09:21:36.000Z</Time>
            <Position>
              <LatitudeDegrees>42.99086677841842174530029296875</LatitudeDegrees>
              <LongitudeDegrees>-1.808068044483661651611328125</LongitudeDegrees>
            </Position>
            <AltitudeMeters>526.79998779296875</AltitudeMeters>
            <DistanceMeters>NAN</DistanceMeters>
          </Trackpoint>
          <Trackpoint>
            <Time>2021-08-09T09:21:37.000Z</Time>
            <Position>
              <LatitudeDegrees>42.99091639928519725799560546875</LatitudeDegrees>
              <LongitudeDegrees>-1.808092854917049407958984375</LongitudeDegrees>
            </Position>
            <AltitudeMeters>527</AltitudeMeters>
            <DistanceMeters>NAN</DistanceMeters>
          </Trackpoint>
          <Trackpoint>
            <Time>2021-08-09T09:21:38.000Z</Time>
            <Position>
              <LatitudeDegrees>42.9909639246761798858642578125</LatitudeDegrees>
              <LongitudeDegrees>-1.80811800062656402587890625</LongitudeDegrees>
            </Position>
            <AltitudeMeters>527.20001220703125</AltitudeMeters>
            <DistanceMeters>NAN</DistanceMeters>
          </Trackpoint>
          <Trackpoint>
            <Time>2021-08-09T09:21:39.000Z</Time>
            <Position>
              <LatitudeDegrees>42.99100759439170360565185546875</LatitudeDegrees>
              <LongitudeDegrees>-1.80814255960285663604736328125</LongitudeDegrees>
            </Position>
            <AltitudeMeters>527.4000244140625</AltitudeMeters>
            <DistanceMeters>NAN</DistanceMeters>
          </Trackpoint>
          <Trackpoint>
            <Time>2021-08-09T09:21:40.000Z</Time>
            <Position>
              <LatitudeDegrees>42.9910482466220855712890625</LatitudeDegrees>
              <LongitudeDegrees>-1.80816887877881526947021484375</LongitudeDegrees>
            </Position>
            <AltitudeMeters>528</AltitudeMeters>
            <DistanceMeters>NAN</DistanceMeters>
          </Trackpoint>
          <Trackpoint>
            <Time>2021-08-09T09:21:41.000Z</Time>
            <Position>
              <LatitudeDegrees>42.99108806066215038299560546875</LatitudeDegrees>
              <LongitudeDegrees>-1.8081952817738056182861328125</LongitudeDegrees>
            </Position>
            <AltitudeMeters>528.20001220703125</AltitudeMeters>
            <DistanceMeters>NAN</DistanceMeters>
          </Trackpoint>
          <Trackpoint>
            <Time>2021-08-09T09:21:42.000Z</Time>
            <Position>
              <LatitudeDegrees>42.9911261983215808868408203125</LatitudeDegrees>
              <LongitudeDegrees>-1.80822218768298625946044921875</LongitudeDegrees>
            </Position>
            <AltitudeMeters>528.4000244140625</AltitudeMeters>
            <DistanceMeters>NAN</DistanceMeters>
          </Trackpoint>
          <Trackpoint>
            <Time>2021-08-09T09:21:43.000Z</Time>
            <Position>
              <LatitudeDegrees>42.99116416834294795989990234375</LatitudeDegrees>
              <LongitudeDegrees>-1.80825211107730865478515625</LongitudeDegrees>
            </Position>
            <AltitudeMeters>528.79998779296875</AltitudeMeters>
            <DistanceMeters>NAN</DistanceMeters>
          </Trackpoint>
          <Trackpoint>
            <Time>2021-08-09T09:21:45.000Z</Time>
            <Position>
              <LatitudeDegrees>42.991240359842777252197265625</LatitudeDegrees>
              <LongitudeDegrees>-1.80831380188465118408203125</LongitudeDegrees>
            </Position>
            <AltitudeMeters>529.4000244140625</AltitudeMeters>
            <DistanceMeters>NAN</DistanceMeters>
          </Trackpoint>
          <Trackpoint>
            <Time>2021-08-09T09:21:46.000Z</Time>
            <Position>
              <LatitudeDegrees>42.9912740550935268402099609375</LatitudeDegrees>
              <LongitudeDegrees>-1.80834758095443248748779296875</LongitudeDegrees>
            </Position>
            <AltitudeMeters>529.79998779296875</AltitudeMeters>
            <DistanceMeters>NAN</DistanceMeters>
          </Trackpoint>
          <Trackpoint>
            <Time>2021-08-09T09:21:47.000Z</Time>
            <Position>
              <LatitudeDegrees>42.99130640923976898193359375</LatitudeDegrees>
              <LongitudeDegrees>-1.8083803541958332061767578125</LongitudeDegrees>
            </Position>
            <AltitudeMeters>530.20001220703125</AltitudeMeters>
            <DistanceMeters>NAN</DistanceMeters>
          </Trackpoint>
          <Trackpoint>
            <Time>2021-08-09T09:21:48.000Z</Time>
            <Position>
              <LatitudeDegrees>42.99133951775729656219482421875</LatitudeDegrees>
              <LongitudeDegrees>-1.8084095232188701629638671875</LongitudeDegrees>
            </Position>
            <AltitudeMeters>530.4000244140625</AltitudeMeters>
            <DistanceMeters>NAN</DistanceMeters>
          </Trackpoint>
          <Trackpoint>
            <Time>2021-08-09T09:21:49.000Z</Time>
            <Position>
              <LatitudeDegrees>42.991372458636760711669921875</LatitudeDegrees>
              <LongitudeDegrees>-1.8084393627941608428955078125</LongitudeDegrees>
            </Position>
            <AltitudeMeters>530.79998779296875</AltitudeMeters>
            <DistanceMeters>NAN</DistanceMeters>
          </Trackpoint>
          <Trackpoint>
            <Time>2021-08-09T09:21:50.000Z</Time>
            <Position>
              <LatitudeDegrees>42.99140389077365398406982421875</LatitudeDegrees>
              <LongitudeDegrees>-1.8084700405597686767578125</LongitudeDegrees>
            </Position>
            <AltitudeMeters>531</AltitudeMeters>
            <DistanceMeters>NAN</DistanceMeters>
          </Trackpoint>
          <Trackpoint>
            <Time>2021-08-09T09:21:51.000Z</Time>
            <Position>
              <LatitudeDegrees>42.9914416931569576263427734375</LatitudeDegrees>
              <LongitudeDegrees>-1.8085087649524211883544921875</LongitudeDegrees>
            </Position>
            <AltitudeMeters>531.4000244140625</AltitudeMeters>
            <DistanceMeters>NAN</DistanceMeters>
          </Trackpoint>
          <Trackpoint>
            <Time>2021-08-09T09:21:52.000Z</Time>
            <Position>
              <LatitudeDegrees>42.99146658740937709808349609375</LatitudeDegrees>
              <LongitudeDegrees>-1.8085318990051746368408203125</LongitudeDegrees>
            </Position>
            <AltitudeMeters>531.5999755859375</AltitudeMeters>
            <DistanceMeters>NAN</DistanceMeters>
          </Trackpoint>
          <Trackpoint>
            <Time>2021-08-09T09:21:53.000Z</Time>
            <Position>
              <LatitudeDegrees>42.99150397069752216339111328125</LatitudeDegrees>
              <LongitudeDegrees>-1.80857070721685886383056640625</LongitudeDegrees>
            </Position>
            <AltitudeMeters>532.20001220703125</AltitudeMeters>
            <DistanceMeters>NAN</DistanceMeters>
          </Trackpoint>
          <Trackpoint>
            <Time>2021-08-09T09:21:54.000Z</Time>
            <Position>
              <LatitudeDegrees>42.9915288649499416351318359375</LatitudeDegrees>
              <LongitudeDegrees>-1.80859551765024662017822265625</LongitudeDegrees>
            </Position>
            <AltitudeMeters>532.4000244140625</AltitudeMeters>
            <DistanceMeters>NAN</DistanceMeters>
          </Trackpoint>
          <Trackpoint>
            <Time>2021-08-09T09:21:55.000Z</Time>
            <Position>
              <LatitudeDegrees>42.9915623925626277923583984375</LatitudeDegrees>
              <LongitudeDegrees>-1.8086247704923152923583984375</LongitudeDegrees>
            </Position>
            <AltitudeMeters>532.4000244140625</AltitudeMeters>
            <DistanceMeters>NAN</DistanceMeters>
          </Trackpoint>
          <Trackpoint>
            <Time>2021-08-09T09:21:56.000Z</Time>
            <Position>
              <LatitudeDegrees>42.99159399233758449554443359375</LatitudeDegrees>
              <LongitudeDegrees>-1.808655448257923126220703125</LongitudeDegrees>
            </Position>
            <AltitudeMeters>532.5999755859375</AltitudeMeters>
            <DistanceMeters>NAN</DistanceMeters>
          </Trackpoint>
          <Trackpoint>
            <Time>2021-08-09T09:21:57.000Z</Time>
            <Position>
              <LatitudeDegrees>42.99163187853991985321044921875</LatitudeDegrees>
              <LongitudeDegrees>-1.80869224481284618377685546875</LongitudeDegrees>
            </Position>
            <AltitudeMeters>532.79998779296875</AltitudeMeters>
            <DistanceMeters>NAN</DistanceMeters>
          </Trackpoint>
          <Trackpoint>
            <Time>2021-08-09T09:21:58.000Z</Time>
            <Position>
              <LatitudeDegrees>42.9916639812290668487548828125</LatitudeDegrees>
              <LongitudeDegrees>-1.80872141383588314056396484375</LongitudeDegrees>
            </Position>
            <AltitudeMeters>533.20001220703125</AltitudeMeters>
            <DistanceMeters>NAN</DistanceMeters>
          </Trackpoint>
          <Trackpoint>
            <Time>2021-08-09T09:21:59.000Z</Time>
            <Position>
              <LatitudeDegrees>42.99168904311954975128173828125</LatitudeDegrees>
              <LongitudeDegrees>-1.808744966983795166015625</LongitudeDegrees>
            </Position>
            <AltitudeMeters>533.20001220703125</AltitudeMeters>
            <DistanceMeters>NAN</DistanceMeters>
          </Trackpoint>
          <Trackpoint>
            <Time>2021-08-09T09:22:00.000Z</Time>
            <Position>
              <LatitudeDegrees>42.99172039143741130828857421875</LatitudeDegrees>
              <LongitudeDegrees>-1.808774806559085845947265625</LongitudeDegrees>
            </Position>
            <AltitudeMeters>533.79998779296875</AltitudeMeters>
            <DistanceMeters>NAN</DistanceMeters>
          </Trackpoint>
          <Trackpoint>
            <Time>2021-08-09T09:22:01.000Z</Time>
            <Position>
              <LatitudeDegrees>42.99174989573657512664794921875</LatitudeDegrees>
              <LongitudeDegrees>-1.80880405940115451812744140625</LongitudeDegrees>
            </Position>
            <AltitudeMeters>534</AltitudeMeters>
            <DistanceMeters>NAN</DistanceMeters>
          </Trackpoint>
          <Trackpoint>
            <Time>2021-08-09T09:22:02.000Z</Time>
            <Position>
              <LatitudeDegrees>42.99177990294992923736572265625</LatitudeDegrees>
              <LongitudeDegrees>-1.808836162090301513671875</LongitudeDegrees>
            </Position>
            <AltitudeMeters>534.20001220703125</AltitudeMeters>
            <DistanceMeters>NAN</DistanceMeters>
          </Trackpoint>
          <Trackpoint>
            <Time>2021-08-09T09:22:03.000Z</Time>
            <Position>
              <LatitudeDegrees>42.991810999810695648193359375</LatitudeDegrees>
              <LongitudeDegrees>-1.8088681809604167938232421875</LongitudeDegrees>
            </Position>
            <AltitudeMeters>534.5999755859375</AltitudeMeters>
            <DistanceMeters>NAN</DistanceMeters>
          </Trackpoint>
          <Trackpoint>
            <Time>2021-08-09T09:22:04.000Z</Time>
            <Position>
              <LatitudeDegrees>42.99184092320501804351806640625</LatitudeDegrees>
              <LongitudeDegrees>-1.80889776907861232757568359375</LongitudeDegrees>
            </Position>
            <AltitudeMeters>534.79998779296875</AltitudeMeters>
            <DistanceMeters>NAN</DistanceMeters>
          </Trackpoint>
          <Trackpoint>
            <Time>2021-08-09T09:22:05.000Z</Time>
            <Position>
              <LatitudeDegrees>42.99187009222805500030517578125</LatitudeDegrees>
              <LongitudeDegrees>-1.8089278601109981536865234375</LongitudeDegrees>
            </Position>
            <AltitudeMeters>535</AltitudeMeters>
            <DistanceMeters>NAN</DistanceMeters>
          </Trackpoint>
          <Trackpoint>
            <Time>2021-08-09T09:22:06.000Z</Time>
            <Position>
              <LatitudeDegrees>42.99190110526978969573974609375</LatitudeDegrees>
              <LongitudeDegrees>-1.80895644240081310272216796875</LongitudeDegrees>
            </Position>
            <AltitudeMeters>535.20001220703125</AltitudeMeters>
            <DistanceMeters>NAN</DistanceMeters>
          </Trackpoint>
          <Trackpoint>
            <Time>2021-08-09T09:22:07.000Z</Time>
            <Position>
              <LatitudeDegrees>42.99193178303539752960205078125</LatitudeDegrees>
              <LongitudeDegrees>-1.80898368358612060546875</LongitudeDegrees>
            </Position>
            <AltitudeMeters>535.5999755859375</AltitudeMeters>
            <DistanceMeters>NAN</DistanceMeters>
          </Trackpoint>
          <Trackpoint>
            <Time>2021-08-09T09:22:08.000Z</Time>
            <Position>
              <LatitudeDegrees>42.99196480773389339447021484375</LatitudeDegrees>
              <LongitudeDegrees>-1.8090066500008106231689453125</LongitudeDegrees>
            </Position>
            <AltitudeMeters>535.79998779296875</AltitudeMeters>
            <DistanceMeters>NAN</DistanceMeters>
          </Trackpoint>
          <Trackpoint>
            <Time>2021-08-09T09:22:09.000Z</Time>
            <Position>
              <LatitudeDegrees>42.9919969104230403900146484375</LatitudeDegrees>
              <LongitudeDegrees>-1.809026934206485748291015625</LongitudeDegrees>
            </Position>
            <AltitudeMeters>536</AltitudeMeters>
            <DistanceMeters>NAN</DistanceMeters>
          </Trackpoint>
          <Trackpoint>
            <Time>2021-08-09T09:22:10.000Z</Time>
            <Position>
              <LatitudeDegrees>42.99202515743672847747802734375</LatitudeDegrees>
              <LongitudeDegrees>-1.8090413510799407958984375</LongitudeDegrees>
            </Position>
            <AltitudeMeters>536.20001220703125</AltitudeMeters>
            <DistanceMeters>NAN</DistanceMeters>
          </Trackpoint>
          <Trackpoint>
            <Time>2021-08-09T09:22:11.000Z</Time>
            <Position>
              <LatitudeDegrees>42.9920589365065097808837890625</LatitudeDegrees>
              <LongitudeDegrees>-1.8090512417256832122802734375</LongitudeDegrees>
            </Position>
            <AltitudeMeters>536.4000244140625</AltitudeMeters>
            <DistanceMeters>NAN</DistanceMeters>
          </Trackpoint>
          <Trackpoint>
            <Time>2021-08-09T09:22:12.000Z</Time>
            <Position>
              <LatitudeDegrees>42.9920874349772930145263671875</LatitudeDegrees>
              <LongitudeDegrees>-1.80905283428728580474853515625</LongitudeDegrees>
            </Position>
            <AltitudeMeters>536.5999755859375</AltitudeMeters>
            <DistanceMeters>NAN</DistanceMeters>
          </Trackpoint>
          <Trackpoint>
            <Time>2021-08-09T09:22:13.000Z</Time>
            <Position>
              <LatitudeDegrees>42.99211517907679080963134765625</LatitudeDegrees>
              <LongitudeDegrees>-1.80905417539179325103759765625</LongitudeDegrees>
            </Position>
            <AltitudeMeters>537</AltitudeMeters>
            <DistanceMeters>NAN</DistanceMeters>
          </Trackpoint>
          <Trackpoint>
            <Time>2021-08-09T09:22:14.000Z</Time>
            <Position>
              <LatitudeDegrees>42.9921380616724491119384765625</LatitudeDegrees>
              <LongitudeDegrees>-1.80905275046825408935546875</LongitudeDegrees>
            </Position>
            <AltitudeMeters>537.20001220703125</AltitudeMeters>
            <DistanceMeters>NAN</DistanceMeters>
          </Trackpoint>
          <Trackpoint>
            <Time>2021-08-09T09:22:15.000Z</Time>
            <Position>
              <LatitudeDegrees>42.992167063057422637939453125</LatitudeDegrees>
              <LongitudeDegrees>-1.80905350483953952789306640625</LongitudeDegrees>
            </Position>
            <AltitudeMeters>537.4000244140625</AltitudeMeters>
            <DistanceMeters>NAN</DistanceMeters>
          </Trackpoint>
          <Trackpoint>
            <Time>2021-08-09T09:22:16.000Z</Time>
            <Position>
              <LatitudeDegrees>42.99219480715692043304443359375</LatitudeDegrees>
              <LongitudeDegrees>-1.8090629763901233673095703125</LongitudeDegrees>
            </Position>
            <AltitudeMeters>537.4000244140625</AltitudeMeters>
            <DistanceMeters>NAN</DistanceMeters>
          </Trackpoint>
          <Trackpoint>
            <Time>2021-08-09T09:22:17.000Z</Time>
            <Position>
              <LatitudeDegrees>42.99222364090383052825927734375</LatitudeDegrees>
              <LongitudeDegrees>-1.80907513014972209930419921875</LongitudeDegrees>
            </Position>
            <AltitudeMeters>537.5999755859375</AltitudeMeters>
            <DistanceMeters>NAN</DistanceMeters>
          </Trackpoint>
          <Trackpoint>
            <Time>2021-08-09T09:22:18.000Z</Time>
            <Position>
              <LatitudeDegrees>42.9922570846974849700927734375</LatitudeDegrees>
              <LongitudeDegrees>-1.8090856075286865234375</LongitudeDegrees>
            </Position>
            <AltitudeMeters>537.5999755859375</AltitudeMeters>
            <DistanceMeters>NAN</DistanceMeters>
          </Trackpoint>
          <Trackpoint>
            <Time>2021-08-09T09:22:19.000Z</Time>
            <Position>
              <LatitudeDegrees>42.99227795563638210296630859375</LatitudeDegrees>
              <LongitudeDegrees>-1.8090938217937946319580078125</LongitudeDegrees>
            </Position>
            <AltitudeMeters>537.5999755859375</AltitudeMeters>
            <DistanceMeters>NAN</DistanceMeters>
          </Trackpoint>
          <Trackpoint>
            <Time>2021-08-09T09:22:20.000Z</Time>
            <Position>
              <LatitudeDegrees>42.99230243079364299774169921875</LatitudeDegrees>
              <LongitudeDegrees>-1.809109747409820556640625</LongitudeDegrees>
            </Position>
            <AltitudeMeters>537.5999755859375</AltitudeMeters>
            <DistanceMeters>NAN</DistanceMeters>
          </Trackpoint>
          <Trackpoint>
            <Time>2021-08-09T09:22:21.000Z</Time>
            <Position>
              <LatitudeDegrees>42.992328666150569915771484375</LatitudeDegrees>
              <LongitudeDegrees>-1.80913011543452739715576171875</LongitudeDegrees>
            </Position>
            <AltitudeMeters>537.5999755859375</AltitudeMeters>
            <DistanceMeters>NAN</DistanceMeters>
          </Trackpoint>
          <Trackpoint>
            <Time>2021-08-09T09:22:22.000Z</Time>
            <Position>
              <LatitudeDegrees>42.99236780963838100433349609375</LatitudeDegrees>
              <LongitudeDegrees>-1.8091514892876148223876953125</LongitudeDegrees>
            </Position>
            <AltitudeMeters>537.5999755859375</AltitudeMeters>
            <DistanceMeters>NAN</DistanceMeters>
          </Trackpoint>
          <Trackpoint>
            <Time>2021-08-09T09:22:23.000Z</Time>
            <Position>
              <LatitudeDegrees>42.9924081265926361083984375</LatitudeDegrees>
              <LongitudeDegrees>-1.80916934274137020111083984375</LongitudeDegrees>
            </Position>
            <AltitudeMeters>537.5999755859375</AltitudeMeters>
            <DistanceMeters>NAN</DistanceMeters>
          </Trackpoint>
          <Trackpoint>
            <Time>2021-08-09T09:22:24.000Z</Time>
            <Position>
              <LatitudeDegrees>42.99244098365306854248046875</LatitudeDegrees>
              <LongitudeDegrees>-1.8091866932809352874755859375</LongitudeDegrees>
            </Position>
            <AltitudeMeters>537.4000244140625</AltitudeMeters>
            <DistanceMeters>NAN</DistanceMeters>
          </Trackpoint>
          <Trackpoint>
            <Time>2021-08-09T09:22:25.000Z</Time>
            <Position>
              <LatitudeDegrees>42.9924850724637508392333984375</LatitudeDegrees>
              <LongitudeDegrees>-1.80921326391398906707763671875</LongitudeDegrees>
            </Position>
            <AltitudeMeters>537.4000244140625</AltitudeMeters>
            <DistanceMeters>NAN</DistanceMeters>
          </Trackpoint>
          <Trackpoint>
            <Time>2021-08-09T09:22:26.000Z</Time>
            <Position>
              <LatitudeDegrees>42.99254533834755420684814453125</LatitudeDegrees>
              <LongitudeDegrees>-1.8092400021851062774658203125</LongitudeDegrees>
            </Position>
            <AltitudeMeters>537.20001220703125</AltitudeMeters>
            <DistanceMeters>NAN</DistanceMeters>
          </Trackpoint>
          <Trackpoint>
            <Time>2021-08-09T09:22:27.000Z</Time>
            <Position>
              <LatitudeDegrees>42.99259227700531482696533203125</LatitudeDegrees>
              <LongitudeDegrees>-1.80925215594470500946044921875</LongitudeDegrees>
            </Position>
            <AltitudeMeters>536.79998779296875</AltitudeMeters>
            <DistanceMeters>NAN</DistanceMeters>
          </Trackpoint>
          <Trackpoint>
            <Time>2021-08-09T09:22:28.000Z</Time>
            <Position>
              <LatitudeDegrees>42.9926557280123233795166015625</LatitudeDegrees>
              <LongitudeDegrees>-1.80925651453435420989990234375</LongitudeDegrees>
            </Position>
            <AltitudeMeters>536.5999755859375</AltitudeMeters>
            <DistanceMeters>NAN</DistanceMeters>
          </Trackpoint>
          <Trackpoint>
            <Time>2021-08-09T09:22:29.000Z</Time>
            <Position>
              <LatitudeDegrees>42.992719598114490509033203125</LatitudeDegrees>
              <LongitudeDegrees>-1.80924427695572376251220703125</LongitudeDegrees>
            </Position>
            <AltitudeMeters>535.79998779296875</AltitudeMeters>
            <DistanceMeters>NAN</DistanceMeters>
          </Trackpoint>
          <Trackpoint>
            <Time>2021-08-09T09:22:30.000Z</Time>
            <Position>
              <LatitudeDegrees>42.99278120510280132293701171875</LatitudeDegrees>
              <LongitudeDegrees>-1.809207983314990997314453125</LongitudeDegrees>
            </Position>
            <AltitudeMeters>535.5999755859375</AltitudeMeters>
            <DistanceMeters>NAN</DistanceMeters>
          </Trackpoint>
          <Trackpoint>
            <Time>2021-08-09T09:22:31.000Z</Time>
            <Position>
              <LatitudeDegrees>42.99284490756690502166748046875</LatitudeDegrees>
              <LongitudeDegrees>-1.8091498129069805145263671875</LongitudeDegrees>
            </Position>
            <AltitudeMeters>535</AltitudeMeters>
            <DistanceMeters>NAN</DistanceMeters>
          </Trackpoint>
          <Trackpoint>
            <Time>2021-08-09T09:22:32.000Z</Time>
            <Position>
              <LatitudeDegrees>42.9929061792790889739990234375</LatitudeDegrees>
              <LongitudeDegrees>-1.80909323506057262420654296875</LongitudeDegrees>
            </Position>
            <AltitudeMeters>534.5999755859375</AltitudeMeters>
            <DistanceMeters>NAN</DistanceMeters>
          </Trackpoint>
          <Trackpoint>
            <Time>2021-08-09T09:22:33.000Z</Time>
            <Position>
              <LatitudeDegrees>42.99296728335320949554443359375</LatitudeDegrees>
              <LongitudeDegrees>-1.80904336273670196533203125</LongitudeDegrees>
            </Position>
            <AltitudeMeters>533.5999755859375</AltitudeMeters>
            <DistanceMeters>NAN</DistanceMeters>
          </Trackpoint>
          <Trackpoint>
            <Time>2021-08-09T09:22:34.000Z</Time>
            <Position>
              <LatitudeDegrees>42.99302696250379085540771484375</LatitudeDegrees>
              <LongitudeDegrees>-1.80899868719279766082763671875</LongitudeDegrees>
            </Position>
            <AltitudeMeters>533</AltitudeMeters>
            <DistanceMeters>NAN</DistanceMeters>
          </Trackpoint>
          <Trackpoint>
            <Time>2021-08-09T09:22:35.000Z</Time>
            <Position>
              <LatitudeDegrees>42.99308613874018192291259765625</LatitudeDegrees>
              <LongitudeDegrees>-1.80896583013236522674560546875</LongitudeDegrees>
            </Position>
            <AltitudeMeters>532.79998779296875</AltitudeMeters>
            <DistanceMeters>NAN</DistanceMeters>
          </Trackpoint>
          <Trackpoint>
            <Time>2021-08-09T09:22:36.000Z</Time>
            <Position>
              <LatitudeDegrees>42.99314816482365131378173828125</LatitudeDegrees>
              <LongitudeDegrees>-1.8089369125664234161376953125</LongitudeDegrees>
            </Position>
            <AltitudeMeters>532.5999755859375</AltitudeMeters>
            <DistanceMeters>NAN</DistanceMeters>
          </Trackpoint>
          <Trackpoint>
            <Time>2021-08-09T09:22:40.000Z</Time>
            <Position>
              <LatitudeDegrees>42.99342267215251922607421875</LatitudeDegrees>
              <LongitudeDegrees>-1.8088319711387157440185546875</LongitudeDegrees>
            </Position>
            <AltitudeMeters>531.79998779296875</AltitudeMeters>
            <DistanceMeters>NAN</DistanceMeters>
          </Trackpoint>
          <Trackpoint>
            <Time>2021-08-09T09:22:41.000Z</Time>
            <Position>
              <LatitudeDegrees>42.99349048174917697906494140625</LatitudeDegrees>
              <LongitudeDegrees>-1.80879936553537845611572265625</LongitudeDegrees>
            </Position>
            <AltitudeMeters>531.5999755859375</AltitudeMeters>
            <DistanceMeters>NAN</DistanceMeters>
          </Trackpoint>
          <Trackpoint>
            <Time>2021-08-09T09:22:42.000Z</Time>
            <Position>
              <LatitudeDegrees>42.99355116672813892364501953125</LatitudeDegrees>
              <LongitudeDegrees>-1.8087598867714405059814453125</LongitudeDegrees>
            </Position>
            <AltitudeMeters>531.5999755859375</AltitudeMeters>
            <DistanceMeters>NAN</DistanceMeters>
          </Trackpoint>
          <Trackpoint>
            <Time>2021-08-09T09:22:43.000Z</Time>
            <Position>
              <LatitudeDegrees>42.99359341152012348175048828125</LatitudeDegrees>
              <LongitudeDegrees>-1.80872074328362941741943359375</LongitudeDegrees>
            </Position>
            <AltitudeMeters>531.20001220703125</AltitudeMeters>
            <DistanceMeters>NAN</DistanceMeters>
          </Trackpoint>
          <Trackpoint>
            <Time>2021-08-09T09:22:44.000Z</Time>
            <Position>
              <LatitudeDegrees>42.99361939541995525360107421875</LatitudeDegrees>
              <LongitudeDegrees>-1.80869710631668567657470703125</LongitudeDegrees>
            </Position>
            <AltitudeMeters>531.20001220703125</AltitudeMeters>
            <DistanceMeters>NAN</DistanceMeters>
          </Trackpoint>
          <Trackpoint>
            <Time>2021-08-09T09:22:45.000Z</Time>
            <Position>
              <LatitudeDegrees>42.9936253465712070465087890625</LatitudeDegrees>
              <LongitudeDegrees>-1.8086851201951503753662109375</LongitudeDegrees>
            </Position>
            <AltitudeMeters>530.79998779296875</AltitudeMeters>
            <DistanceMeters>NAN</DistanceMeters>
          </Trackpoint>
          <Trackpoint>
            <Time>2021-08-09T09:22:46.000Z</Time>
            <Position>
              <LatitudeDegrees>42.993624508380889892578125</LatitudeDegrees>
              <LongitudeDegrees>-1.808681599795818328857421875</LongitudeDegrees>
            </Position>
            <AltitudeMeters>530.79998779296875</AltitudeMeters>
            <DistanceMeters>NAN</DistanceMeters>
          </Trackpoint>
          <Trackpoint>
            <Time>2021-08-09T09:22:47.000Z</Time>
            <Position>
              <LatitudeDegrees>42.99362073652446269989013671875</LatitudeDegrees>
              <LongitudeDegrees>-1.8086790852248668670654296875</LongitudeDegrees>
            </Position>
            <AltitudeMeters>530.4000244140625</AltitudeMeters>
            <DistanceMeters>NAN</DistanceMeters>
          </Trackpoint>
          <Trackpoint>
            <Time>2021-08-09T09:22:48.000Z</Time>
            <Position>
              <LatitudeDegrees>42.99361486919224262237548828125</LatitudeDegrees>
              <LongitudeDegrees>-1.8086720444262027740478515625</LongitudeDegrees>
            </Position>
            <AltitudeMeters>530.20001220703125</AltitudeMeters>
            <DistanceMeters>NAN</DistanceMeters>
          </Trackpoint>
          <Trackpoint>
            <Time>2021-08-09T09:22:49.000Z</Time>
            <Position>
              <LatitudeDegrees>42.99361352808773517608642578125</LatitudeDegrees>
              <LongitudeDegrees>-1.8086646683514118194580078125</LongitudeDegrees>
            </Position>
            <AltitudeMeters>530.20001220703125</AltitudeMeters>
            <DistanceMeters>NAN</DistanceMeters>
          </Trackpoint>
          <Trackpoint>
            <Time>2021-08-09T09:22:56.000Z</Time>
            <Position>
              <LatitudeDegrees>42.99361352808773517608642578125</LatitudeDegrees>
              <LongitudeDegrees>-1.8086646683514118194580078125</LongitudeDegrees>
            </Position>
            <AltitudeMeters>530</AltitudeMeters>
            <DistanceMeters>NAN</DistanceMeters>
          </Trackpoint>
          <Trackpoint>
            <Time>2021-08-09T09:24:11.000Z</Time>
            <Position>
              <LatitudeDegrees>42.99361352808773517608642578125</LatitudeDegrees>
              <LongitudeDegrees>-1.8086646683514118194580078125</LongitudeDegrees>
            </Position>
            <AltitudeMeters>529.4000244140625</AltitudeMeters>
            <DistanceMeters>NAN</DistanceMeters>
          </Trackpoint>
          <Trackpoint>
            <Time>2021-08-09T09:26:38.000Z</Time>
            <Position>
              <LatitudeDegrees>42.99361470155417919158935546875</LatitudeDegrees>
              <LongitudeDegrees>-1.80866718292236328125</LongitudeDegrees>
            </Position>
            <AltitudeMeters>529.4000244140625</AltitudeMeters>
            <DistanceMeters>NAN</DistanceMeters>
          </Trackpoint>
          <Trackpoint>
            <Time>2021-08-09T09:26:41.000Z</Time>
            <Position>
              <LatitudeDegrees>42.99363414756953716278076171875</LatitudeDegrees>
              <LongitudeDegrees>-1.80868118070065975189208984375</LongitudeDegrees>
            </Position>
            <AltitudeMeters>529.4000244140625</AltitudeMeters>
            <DistanceMeters>NAN</DistanceMeters>
          </Trackpoint>
          <Trackpoint>
            <Time>2021-08-09T09:26:47.000Z</Time>
            <Position>
              <LatitudeDegrees>42.99365526996552944183349609375</LatitudeDegrees>
              <LongitudeDegrees>-1.8086556158959865570068359375</LongitudeDegrees>
            </Position>
            <AltitudeMeters>529.5999755859375</AltitudeMeters>
            <DistanceMeters>NAN</DistanceMeters>
          </Trackpoint>
          <Trackpoint>
            <Time>2021-08-09T09:26:48.000Z</Time>
            <Position>
              <LatitudeDegrees>42.99367689527571201324462890625</LatitudeDegrees>
              <LongitudeDegrees>-1.80862971581518650054931640625</LongitudeDegrees>
            </Position>
            <AltitudeMeters>529.5999755859375</AltitudeMeters>
            <DistanceMeters>NAN</DistanceMeters>
          </Trackpoint>
          <Trackpoint>
            <Time>2021-08-09T09:26:49.000Z</Time>
            <Position>
              <LatitudeDegrees>42.9936991073191165924072265625</LatitudeDegrees>
              <LongitudeDegrees>-1.8086043186485767364501953125</LongitudeDegrees>
            </Position>
            <AltitudeMeters>529.4000244140625</AltitudeMeters>
            <DistanceMeters>NAN</DistanceMeters>
          </Trackpoint>
          <Trackpoint>
            <Time>2021-08-09T09:26:50.000Z</Time>
            <Position>
              <LatitudeDegrees>42.99372198991477489471435546875</LatitudeDegrees>
              <LongitudeDegrees>-1.80857892148196697235107421875</LongitudeDegrees>
            </Position>
            <AltitudeMeters>529.4000244140625</AltitudeMeters>
            <DistanceMeters>NAN</DistanceMeters>
          </Trackpoint>
          <Trackpoint>
            <Time>2021-08-09T09:26:52.000Z</Time>
            <Position>
              <LatitudeDegrees>42.99377672374248504638671875</LatitudeDegrees>
              <LongitudeDegrees>-1.8085137940943241119384765625</LongitudeDegrees>
            </Position>
            <AltitudeMeters>529.4000244140625</AltitudeMeters>
            <DistanceMeters>NAN</DistanceMeters>
          </Trackpoint>
          <Trackpoint>
            <Time>2021-08-09T09:26:55.000Z</Time>
            <Position>
              <LatitudeDegrees>42.993868254125118255615234375</LatitudeDegrees>
              <LongitudeDegrees>-1.8084162287414073944091796875</LongitudeDegrees>
            </Position>
            <AltitudeMeters>529.4000244140625</AltitudeMeters>
            <DistanceMeters>NAN</DistanceMeters>
          </Trackpoint>
          <Trackpoint>
            <Time>2021-08-09T09:26:56.000Z</Time>
            <Position>
              <LatitudeDegrees>42.99390773288905620574951171875</LatitudeDegrees>
              <LongitudeDegrees>-1.80838345550000667572021484375</LongitudeDegrees>
            </Position>
            <AltitudeMeters>529.20001220703125</AltitudeMeters>
            <DistanceMeters>NAN</DistanceMeters>
          </Trackpoint>
          <Trackpoint>
            <Time>2021-08-09T09:26:59.000Z</Time>
            <Position>
              <LatitudeDegrees>42.9940585233271121978759765625</LatitudeDegrees>
              <LongitudeDegrees>-1.80827097035944461822509765625</LongitudeDegrees>
            </Position>
            <AltitudeMeters>528.5999755859375</AltitudeMeters>
            <DistanceMeters>NAN</DistanceMeters>
          </Trackpoint>
          <Trackpoint>
            <Time>2021-08-09T09:27:01.000Z</Time>
            <Position>
              <LatitudeDegrees>42.994144521653652191162109375</LatitudeDegrees>
              <LongitudeDegrees>-1.808189414441585540771484375</LongitudeDegrees>
            </Position>
            <AltitudeMeters>528</AltitudeMeters>
            <DistanceMeters>NAN</DistanceMeters>
          </Trackpoint>
          <Trackpoint>
            <Time>2021-08-09T09:27:02.000Z</Time>
            <Position>
              <LatitudeDegrees>42.99418098293244838714599609375</LatitudeDegrees>
              <LongitudeDegrees>-1.808159239590167999267578125</LongitudeDegrees>
            </Position>
            <AltitudeMeters>527.5999755859375</AltitudeMeters>
            <DistanceMeters>NAN</DistanceMeters>
          </Trackpoint>
          <Trackpoint>
            <Time>2021-08-09T09:27:03.000Z</Time>
            <Position>
              <LatitudeDegrees>42.9942063800990581512451171875</LatitudeDegrees>
              <LongitudeDegrees>-1.8081433139741420745849609375</LongitudeDegrees>
            </Position>
            <AltitudeMeters>527.4000244140625</AltitudeMeters>
            <DistanceMeters>NAN</DistanceMeters>
          </Trackpoint>
          <Trackpoint>
            <Time>2021-08-09T09:27:04.000Z</Time>
            <Position>
              <LatitudeDegrees>42.99422599375247955322265625</LatitudeDegrees>
              <LongitudeDegrees>-1.8081386201083660125732421875</LongitudeDegrees>
            </Position>
            <AltitudeMeters>527.20001220703125</AltitudeMeters>
            <DistanceMeters>NAN</DistanceMeters>
          </Trackpoint>
          <Trackpoint>
            <Time>2021-08-09T09:27:05.000Z</Time>
            <Position>
              <LatitudeDegrees>42.99423965625464916229248046875</LatitudeDegrees>
              <LongitudeDegrees>-1.8081449903547763824462890625</LongitudeDegrees>
            </Position>
            <AltitudeMeters>526.79998779296875</AltitudeMeters>
            <DistanceMeters>NAN</DistanceMeters>
          </Trackpoint>
          <Trackpoint>
            <Time>2021-08-09T09:27:06.000Z</Time>
            <Position>
              <LatitudeDegrees>42.99424803815782070159912109375</LatitudeDegrees>
              <LongitudeDegrees>-1.80815814994275569915771484375</LongitudeDegrees>
            </Position>
            <AltitudeMeters>526.4000244140625</AltitudeMeters>
            <DistanceMeters>NAN</DistanceMeters>
          </Trackpoint>
          <Trackpoint>
            <Time>2021-08-09T09:27:07.000Z</Time>
            <Position>
              <LatitudeDegrees>42.994252145290374755859375</LatitudeDegrees>
              <LongitudeDegrees>-1.80817340500652790069580078125</LongitudeDegrees>
            </Position>
            <AltitudeMeters>526</AltitudeMeters>
            <DistanceMeters>NAN</DistanceMeters>
          </Trackpoint>
          <Trackpoint>
            <Time>2021-08-09T09:27:08.000Z</Time>
            <Position>
              <LatitudeDegrees>42.9942506365478038787841796875</LatitudeDegrees>
              <LongitudeDegrees>-1.8081949464976787567138671875</LongitudeDegrees>
            </Position>
            <AltitudeMeters>525.79998779296875</AltitudeMeters>
            <DistanceMeters>NAN</DistanceMeters>
          </Trackpoint>
          <Trackpoint>
            <Time>2021-08-09T09:27:12.000Z</Time>
            <Position>
              <LatitudeDegrees>42.9942020215094089508056640625</LatitudeDegrees>
              <LongitudeDegrees>-1.80832796730101108551025390625</LongitudeDegrees>
            </Position>
            <AltitudeMeters>525.4000244140625</AltitudeMeters>
            <DistanceMeters>NAN</DistanceMeters>
          </Trackpoint>
          <Trackpoint>
            <Time>2021-08-09T09:27:13.000Z</Time>
            <Position>
              <LatitudeDegrees>42.99418307840824127197265625</LatitudeDegrees>
              <LongitudeDegrees>-1.8083659373223781585693359375</LongitudeDegrees>
            </Position>
            <AltitudeMeters>525.4000244140625</AltitudeMeters>
            <DistanceMeters>NAN</DistanceMeters>
          </Trackpoint>
          <Trackpoint>
            <Time>2021-08-09T09:27:15.000Z</Time>
            <Position>
              <LatitudeDegrees>42.9941493831574916839599609375</LatitudeDegrees>
              <LongitudeDegrees>-1.80843374691903591156005859375</LongitudeDegrees>
            </Position>
            <AltitudeMeters>525.4000244140625</AltitudeMeters>
            <DistanceMeters>NAN</DistanceMeters>
          </Trackpoint>
          <Trackpoint>
            <Time>2021-08-09T09:27:16.000Z</Time>
            <Position>
              <LatitudeDegrees>42.9941339604556560516357421875</LatitudeDegrees>
              <LongitudeDegrees>-1.808462329208850860595703125</LongitudeDegrees>
            </Position>
            <AltitudeMeters>525.4000244140625</AltitudeMeters>
            <DistanceMeters>NAN</DistanceMeters>
          </Trackpoint>
          <Trackpoint>
            <Time>2021-08-09T09:27:17.000Z</Time>
            <Position>
              <LatitudeDegrees>42.994121722877025604248046875</LatitudeDegrees>
              <LongitudeDegrees>-1.8084923364222049713134765625</LongitudeDegrees>
            </Position>
            <AltitudeMeters>525.4000244140625</AltitudeMeters>
            <DistanceMeters>NAN</DistanceMeters>
          </Trackpoint>
          <Trackpoint>
            <Time>2021-08-09T09:27:18.000Z</Time>
            <Position>
              <LatitudeDegrees>42.99411795102059841156005859375</LatitudeDegrees>
              <LongitudeDegrees>-1.8085215054452419281005859375</LongitudeDegrees>
            </Position>
            <AltitudeMeters>525.4000244140625</AltitudeMeters>
            <DistanceMeters>NAN</DistanceMeters>
          </Trackpoint>
          <Trackpoint>
            <Time>2021-08-09T09:27:19.000Z</Time>
            <Position>
              <LatitudeDegrees>42.9941245727241039276123046875</LatitudeDegrees>
              <LongitudeDegrees>-1.80854975245893001556396484375</LongitudeDegrees>
            </Position>
            <AltitudeMeters>525.5999755859375</AltitudeMeters>
            <DistanceMeters>NAN</DistanceMeters>
          </Trackpoint>
          <Trackpoint>
            <Time>2021-08-09T09:27:20.000Z</Time>
            <Position>
              <LatitudeDegrees>42.99413085915148258209228515625</LatitudeDegrees>
              <LongitudeDegrees>-1.8085687793791294097900390625</LongitudeDegrees>
            </Position>
            <AltitudeMeters>525.5999755859375</AltitudeMeters>
            <DistanceMeters>NAN</DistanceMeters>
          </Trackpoint>
          <Trackpoint>
            <Time>2021-08-09T09:27:21.000Z</Time>
            <Position>
              <LatitudeDegrees>42.99414150416851043701171875</LatitudeDegrees>
              <LongitudeDegrees>-1.80857975967228412628173828125</LongitudeDegrees>
            </Position>
            <AltitudeMeters>525.5999755859375</AltitudeMeters>
            <DistanceMeters>NAN</DistanceMeters>
          </Trackpoint>
          <Trackpoint>
            <Time>2021-08-09T09:27:22.000Z</Time>
            <Position>
              <LatitudeDegrees>42.99414427019655704498291015625</LatitudeDegrees>
              <LongitudeDegrees>-1.808583028614521026611328125</LongitudeDegrees>
            </Position>
            <AltitudeMeters>525.5999755859375</AltitudeMeters>
            <DistanceMeters>NAN</DistanceMeters>
          </Trackpoint>
          <Trackpoint>
            <Time>2021-08-09T09:27:23.000Z</Time>
            <Position>
              <LatitudeDegrees>42.99414427019655704498291015625</LatitudeDegrees>
              <LongitudeDegrees>-1.808583028614521026611328125</LongitudeDegrees>
            </Position>
            <AltitudeMeters>525.5999755859375</AltitudeMeters>
            <DistanceMeters>NAN</DistanceMeters>
          </Trackpoint>
          <Trackpoint>
            <Time>2021-08-09T09:27:29.000Z</Time>
            <Position>
              <LatitudeDegrees>42.99414427019655704498291015625</LatitudeDegrees>
              <LongitudeDegrees>-1.808583028614521026611328125</LongitudeDegrees>
            </Position>
            <AltitudeMeters>525.20001220703125</AltitudeMeters>
            <DistanceMeters>NAN</DistanceMeters>
          </Trackpoint>
          <Trackpoint>
            <Time>2021-08-09T09:27:49.000Z</Time>
            <Position>
              <LatitudeDegrees>42.99414427019655704498291015625</LatitudeDegrees>
              <LongitudeDegrees>-1.808583028614521026611328125</LongitudeDegrees>
            </Position>
            <AltitudeMeters>524.5999755859375</AltitudeMeters>
            <DistanceMeters>NAN</DistanceMeters>
          </Trackpoint>
          <Trackpoint>
            <Time>2021-08-09T09:27:55.000Z</Time>
            <Position>
              <LatitudeDegrees>42.99422406591475009918212890625</LatitudeDegrees>
              <LongitudeDegrees>-1.8086314760148525238037109375</LongitudeDegrees>
            </Position>
            <AltitudeMeters>524.4000244140625</AltitudeMeters>
            <DistanceMeters>NAN</DistanceMeters>
          </Trackpoint>
          <Trackpoint>
            <Time>2021-08-09T09:28:00.000Z</Time>
            <Position>
              <LatitudeDegrees>42.99442489631474018096923828125</LatitudeDegrees>
              <LongitudeDegrees>-1.8087283708155155181884765625</LongitudeDegrees>
            </Position>
            <AltitudeMeters>524.4000244140625</AltitudeMeters>
            <DistanceMeters>NAN</DistanceMeters>
          </Trackpoint>
          <Trackpoint>
            <Time>2021-08-09T09:28:01.000Z</Time>
            <Position>
              <LatitudeDegrees>42.994459010660648345947265625</LatitudeDegrees>
              <LongitudeDegrees>-1.80874018929898738861083984375</LongitudeDegrees>
            </Position>
            <AltitudeMeters>524.4000244140625</AltitudeMeters>
            <DistanceMeters>NAN</DistanceMeters>
          </Trackpoint>
          <Trackpoint>
            <Time>2021-08-09T09:28:02.000Z</Time>
            <Position>
              <LatitudeDegrees>42.9944876767694950103759765625</LatitudeDegrees>
              <LongitudeDegrees>-1.80875125341117382049560546875</LongitudeDegrees>
            </Position>
            <AltitudeMeters>524.5999755859375</AltitudeMeters>
            <DistanceMeters>NAN</DistanceMeters>
          </Trackpoint>
          <Trackpoint>
            <Time>2021-08-09T09:28:03.000Z</Time>
            <Position>
              <LatitudeDegrees>42.99451407976448535919189453125</LatitudeDegrees>
              <LongitudeDegrees>-1.80875695310533046722412109375</LongitudeDegrees>
            </Position>
            <AltitudeMeters>524.5999755859375</AltitudeMeters>
            <DistanceMeters>NAN</DistanceMeters>
          </Trackpoint>
          <Trackpoint>
            <Time>2021-08-09T09:28:04.000Z</Time>
            <Position>
              <LatitudeDegrees>42.9945379681885242462158203125</LatitudeDegrees>
              <LongitudeDegrees>-1.808756701648235321044921875</LongitudeDegrees>
            </Position>
            <AltitudeMeters>524.5999755859375</AltitudeMeters>
            <DistanceMeters>NAN</DistanceMeters>
          </Trackpoint>
          <Trackpoint>
            <Time>2021-08-09T09:28:05.000Z</Time>
            <Position>
              <LatitudeDegrees>42.994557917118072509765625</LatitudeDegrees>
              <LongitudeDegrees>-1.80875980295240879058837890625</LongitudeDegrees>
            </Position>
            <AltitudeMeters>524.79998779296875</AltitudeMeters>
            <DistanceMeters>NAN</DistanceMeters>
          </Trackpoint>
          <Trackpoint>
            <Time>2021-08-09T09:28:06.000Z</Time>
            <Position>
              <LatitudeDegrees>42.99456956796348094940185546875</LatitudeDegrees>
              <LongitudeDegrees>-1.808761060237884521484375</LongitudeDegrees>
            </Position>
            <AltitudeMeters>524.79998779296875</AltitudeMeters>
            <DistanceMeters>NAN</DistanceMeters>
          </Trackpoint>
          <Trackpoint>
            <Time>2021-08-09T09:28:07.000Z</Time>
            <Position>
              <LatitudeDegrees>42.99458297900855541229248046875</LatitudeDegrees>
              <LongitudeDegrees>-1.8087582103908061981201171875</LongitudeDegrees>
            </Position>
            <AltitudeMeters>525</AltitudeMeters>
            <DistanceMeters>NAN</DistanceMeters>
          </Trackpoint>
          <Trackpoint>
            <Time>2021-08-09T09:28:08.000Z</Time>
            <Position>
              <LatitudeDegrees>42.99459504894912242889404296875</LatitudeDegrees>
              <LongitudeDegrees>-1.80874756537377834320068359375</LongitudeDegrees>
            </Position>
            <AltitudeMeters>525</AltitudeMeters>
            <DistanceMeters>NAN</DistanceMeters>
          </Trackpoint>
          <Trackpoint>
            <Time>2021-08-09T09:28:09.000Z</Time>
            <Position>
              <LatitudeDegrees>42.99459873698651790618896484375</LatitudeDegrees>
              <LongitudeDegrees>-1.80873985402286052703857421875</LongitudeDegrees>
            </Position>
            <AltitudeMeters>525</AltitudeMeters>
            <DistanceMeters>NAN</DistanceMeters>
          </Trackpoint>
          <Trackpoint>
            <Time>2021-08-09T09:28:21.000Z</Time>
            <Position>
              <LatitudeDegrees>42.99459873698651790618896484375</LatitudeDegrees>
              <LongitudeDegrees>-1.80873985402286052703857421875</LongitudeDegrees>
            </Position>
            <AltitudeMeters>525.4000244140625</AltitudeMeters>
            <DistanceMeters>NAN</DistanceMeters>
          </Trackpoint>
          <Trackpoint>
            <Time>2021-08-09T09:28:26.000Z</Time>
            <Position>
              <LatitudeDegrees>42.99459873698651790618896484375</LatitudeDegrees>
              <LongitudeDegrees>-1.80873985402286052703857421875</LongitudeDegrees>
            </Position>
            <AltitudeMeters>525.20001220703125</AltitudeMeters>
            <DistanceMeters>NAN</DistanceMeters>
          </Trackpoint>
          <Trackpoint>
            <Time>2021-08-09T09:29:05.000Z</Time>
            <Position>
              <LatitudeDegrees>42.99459873698651790618896484375</LatitudeDegrees>
              <LongitudeDegrees>-1.80873985402286052703857421875</LongitudeDegrees>
            </Position>
            <AltitudeMeters>525.5999755859375</AltitudeMeters>
            <DistanceMeters>NAN</DistanceMeters>
          </Trackpoint>
          <Trackpoint>
            <Time>2021-08-09T09:29:26.000Z</Time>
            <Position>
              <LatitudeDegrees>42.9946070350706577301025390625</LatitudeDegrees>
              <LongitudeDegrees>-1.8087208271026611328125</LongitudeDegrees>
            </Position>
            <AltitudeMeters>525.79998779296875</AltitudeMeters>
            <DistanceMeters>NAN</DistanceMeters>
          </Trackpoint>
          <Trackpoint>
            <Time>2021-08-09T09:29:27.000Z</Time>
            <Position>
              <LatitudeDegrees>42.99461550079286098480224609375</LatitudeDegrees>
              <LongitudeDegrees>-1.808696687221527099609375</LongitudeDegrees>
            </Position>
            <AltitudeMeters>525.79998779296875</AltitudeMeters>
            <DistanceMeters>NAN</DistanceMeters>
          </Trackpoint>
          <Trackpoint>
            <Time>2021-08-09T09:29:28.000Z</Time>
            <Position>
              <LatitudeDegrees>42.99462421797215938568115234375</LatitudeDegrees>
              <LongitudeDegrees>-1.8086685240268707275390625</LongitudeDegrees>
            </Position>
            <AltitudeMeters>525.79998779296875</AltitudeMeters>
            <DistanceMeters>NAN</DistanceMeters>
          </Trackpoint>
          <Trackpoint>
            <Time>2021-08-09T09:29:32.000Z</Time>
            <Position>
              <LatitudeDegrees>42.99465942196547985076904296875</LatitudeDegrees>
              <LongitudeDegrees>-1.80854757316410541534423828125</LongitudeDegrees>
            </Position>
            <AltitudeMeters>525.4000244140625</AltitudeMeters>
            <DistanceMeters>NAN</DistanceMeters>
          </Trackpoint>
          <Trackpoint>
            <Time>2021-08-09T09:29:35.000Z</Time>
            <Position>
              <LatitudeDegrees>42.9946933686733245849609375</LatitudeDegrees>
              <LongitudeDegrees>-1.80845403112471103668212890625</LongitudeDegrees>
            </Position>
            <AltitudeMeters>525.4000244140625</AltitudeMeters>
            <DistanceMeters>NAN</DistanceMeters>
          </Trackpoint>
          <Trackpoint>
            <Time>2021-08-09T09:29:41.000Z</Time>
            <Position>
              <LatitudeDegrees>42.99475011415779590606689453125</LatitudeDegrees>
              <LongitudeDegrees>-1.80825747549533843994140625</LongitudeDegrees>
            </Position>
            <AltitudeMeters>525.79998779296875</AltitudeMeters>
            <DistanceMeters>NAN</DistanceMeters>
          </Trackpoint>
          <Trackpoint>
            <Time>2021-08-09T09:29:42.000Z</Time>
            <Position>
              <LatitudeDegrees>42.99475480802357196807861328125</LatitudeDegrees>
              <LongitudeDegrees>-1.8082234449684619903564453125</LongitudeDegrees>
            </Position>
            <AltitudeMeters>525.79998779296875</AltitudeMeters>
            <DistanceMeters>NAN</DistanceMeters>
          </Trackpoint>
          <Trackpoint>
            <Time>2021-08-09T09:29:44.000Z</Time>
            <Position>
              <LatitudeDegrees>42.994759418070316314697265625</LatitudeDegrees>
              <LongitudeDegrees>-1.8081630952656269073486328125</LongitudeDegrees>
            </Position>
            <AltitudeMeters>526</AltitudeMeters>
            <DistanceMeters>NAN</DistanceMeters>
          </Trackpoint>
          <Trackpoint>
            <Time>2021-08-09T09:29:46.000Z</Time>
            <Position>
              <LatitudeDegrees>42.994759418070316314697265625</LatitudeDegrees>
              <LongitudeDegrees>-1.8081510253250598907470703125</LongitudeDegrees>
            </Position>
            <AltitudeMeters>526.4000244140625</AltitudeMeters>
            <DistanceMeters>NAN</DistanceMeters>
          </Trackpoint>
          <Trackpoint>
            <Time>2021-08-09T09:29:47.000Z</Time>
            <Position>
              <LatitudeDegrees>42.994759418070316314697265625</LatitudeDegrees>
              <LongitudeDegrees>-1.8081510253250598907470703125</LongitudeDegrees>
            </Position>
            <AltitudeMeters>526.5999755859375</AltitudeMeters>
            <DistanceMeters>NAN</DistanceMeters>
          </Trackpoint>
          <Trackpoint>
            <Time>2021-08-09T09:29:49.000Z</Time>
            <Position>
              <LatitudeDegrees>42.994759418070316314697265625</LatitudeDegrees>
              <LongitudeDegrees>-1.8081510253250598907470703125</LongitudeDegrees>
            </Position>
            <AltitudeMeters>526.79998779296875</AltitudeMeters>
            <DistanceMeters>NAN</DistanceMeters>
          </Trackpoint>
          <Trackpoint>
            <Time>2021-08-09T09:30:48.000Z</Time>
            <Position>
              <LatitudeDegrees>42.99477492459118366241455078125</LatitudeDegrees>
              <LongitudeDegrees>-1.80810651741921901702880859375</LongitudeDegrees>
            </Position>
            <AltitudeMeters>527</AltitudeMeters>
            <DistanceMeters>NAN</DistanceMeters>
          </Trackpoint>
          <Trackpoint>
            <Time>2021-08-09T09:30:49.000Z</Time>
            <Position>
              <LatitudeDegrees>42.99478590488433837890625</LatitudeDegrees>
              <LongitudeDegrees>-1.80808338336646556854248046875</LongitudeDegrees>
            </Position>
            <AltitudeMeters>527</AltitudeMeters>
            <DistanceMeters>NAN</DistanceMeters>
          </Trackpoint>
          <Trackpoint>
            <Time>2021-08-09T09:30:50.000Z</Time>
            <Position>
              <LatitudeDegrees>42.99479939974844455718994140625</LatitudeDegrees>
              <LongitudeDegrees>-1.80805974639952182769775390625</LongitudeDegrees>
            </Position>
            <AltitudeMeters>527</AltitudeMeters>
            <DistanceMeters>NAN</DistanceMeters>
          </Trackpoint>
          <Trackpoint>
            <Time>2021-08-09T09:30:53.000Z</Time>
            <Position>
              <LatitudeDegrees>42.99482706002891063690185546875</LatitudeDegrees>
              <LongitudeDegrees>-1.8079880811274051666259765625</LongitudeDegrees>
            </Position>
            <AltitudeMeters>527</AltitudeMeters>
            <DistanceMeters>NAN</DistanceMeters>
          </Trackpoint>
          <Trackpoint>
            <Time>2021-08-09T09:30:54.000Z</Time>
            <Position>
              <LatitudeDegrees>42.994832508265972137451171875</LatitudeDegrees>
              <LongitudeDegrees>-1.8079652823507785797119140625</LongitudeDegrees>
            </Position>
            <AltitudeMeters>527.20001220703125</AltitudeMeters>
            <DistanceMeters>NAN</DistanceMeters>
          </Trackpoint>
          <Trackpoint>
            <Time>2021-08-09T09:30:55.000Z</Time>
            <Position>
              <LatitudeDegrees>42.99484013579785823822021484375</LatitudeDegrees>
              <LongitudeDegrees>-1.80794097483158111572265625</LongitudeDegrees>
            </Position>
            <AltitudeMeters>527.20001220703125</AltitudeMeters>
            <DistanceMeters>NAN</DistanceMeters>
          </Trackpoint>
          <Trackpoint>
            <Time>2021-08-09T09:30:56.000Z</Time>
            <Position>
              <LatitudeDegrees>42.9948464222252368927001953125</LatitudeDegrees>
              <LongitudeDegrees>-1.80792798288166522979736328125</LongitudeDegrees>
            </Position>
            <AltitudeMeters>527.20001220703125</AltitudeMeters>
            <DistanceMeters>NAN</DistanceMeters>
          </Trackpoint>
          <Trackpoint>
            <Time>2021-08-09T09:30:57.000Z</Time>
            <Position>
              <LatitudeDegrees>42.99485673196613788604736328125</LatitudeDegrees>
              <LongitudeDegrees>-1.807908453047275543212890625</LongitudeDegrees>
            </Position>
            <AltitudeMeters>527.20001220703125</AltitudeMeters>
            <DistanceMeters>NAN</DistanceMeters>
          </Trackpoint>
          <Trackpoint>
            <Time>2021-08-09T09:30:58.000Z</Time>
            <Position>
              <LatitudeDegrees>42.99486645497381687164306640625</LatitudeDegrees>
              <LongitudeDegrees>-1.80788523517549037933349609375</LongitudeDegrees>
            </Position>
            <AltitudeMeters>527.20001220703125</AltitudeMeters>
            <DistanceMeters>NAN</DistanceMeters>
          </Trackpoint>
          <Trackpoint>
            <Time>2021-08-09T09:31:01.000Z</Time>
            <Position>
              <LatitudeDegrees>42.99490367062389850616455078125</LatitudeDegrees>
              <LongitudeDegrees>-1.8077538907527923583984375</LongitudeDegrees>
            </Position>
            <AltitudeMeters>527.20001220703125</AltitudeMeters>
            <DistanceMeters>NAN</DistanceMeters>
          </Trackpoint>
          <Trackpoint>
            <Time>2021-08-09T09:31:02.000Z</Time>
            <Position>
              <LatitudeDegrees>42.9949208535254001617431640625</LatitudeDegrees>
              <LongitudeDegrees>-1.8076890148222446441650390625</LongitudeDegrees>
            </Position>
            <AltitudeMeters>527.20001220703125</AltitudeMeters>
            <DistanceMeters>NAN</DistanceMeters>
          </Trackpoint>
          <Trackpoint>
            <Time>2021-08-09T09:31:04.000Z</Time>
            <Position>
              <LatitudeDegrees>42.9949803650379180908203125</LatitudeDegrees>
              <LongitudeDegrees>-1.80758197791874408721923828125</LongitudeDegrees>
            </Position>
            <AltitudeMeters>527</AltitudeMeters>
            <DistanceMeters>NAN</DistanceMeters>
          </Trackpoint>
          <Trackpoint>
            <Time>2021-08-09T09:31:05.000Z</Time>
            <Position>
              <LatitudeDegrees>42.9950147308409214019775390625</LatitudeDegrees>
              <LongitudeDegrees>-1.807543672621250152587890625</LongitudeDegrees>
            </Position>
            <AltitudeMeters>527</AltitudeMeters>
            <DistanceMeters>NAN</DistanceMeters>
          </Trackpoint>
          <Trackpoint>
            <Time>2021-08-09T09:31:06.000Z</Time>
            <Position>
              <LatitudeDegrees>42.995046414434909820556640625</LatitudeDegrees>
              <LongitudeDegrees>-1.8075069598853588104248046875</LongitudeDegrees>
            </Position>
            <AltitudeMeters>526.79998779296875</AltitudeMeters>
            <DistanceMeters>NAN</DistanceMeters>
          </Trackpoint>
          <Trackpoint>
            <Time>2021-08-09T09:31:07.000Z</Time>
            <Position>
              <LatitudeDegrees>42.99507181160151958465576171875</LatitudeDegrees>
              <LongitudeDegrees>-1.80747401900589466094970703125</LongitudeDegrees>
            </Position>
            <AltitudeMeters>526.79998779296875</AltitudeMeters>
            <DistanceMeters>NAN</DistanceMeters>
          </Trackpoint>
          <Trackpoint>
            <Time>2021-08-09T09:31:08.000Z</Time>
            <Position>
              <LatitudeDegrees>42.99509511329233646392822265625</LatitudeDegrees>
              <LongitudeDegrees>-1.807444095611572265625</LongitudeDegrees>
            </Position>
            <AltitudeMeters>526.5999755859375</AltitudeMeters>
            <DistanceMeters>NAN</DistanceMeters>
          </Trackpoint>
          <Trackpoint>
            <Time>2021-08-09T09:31:09.000Z</Time>
            <Position>
              <LatitudeDegrees>42.99511925317347049713134765625</LatitudeDegrees>
              <LongitudeDegrees>-1.80741199292242527008056640625</LongitudeDegrees>
            </Position>
            <AltitudeMeters>526.5999755859375</AltitudeMeters>
            <DistanceMeters>NAN</DistanceMeters>
          </Trackpoint>
          <Trackpoint>
            <Time>2021-08-09T09:31:10.000Z</Time>
            <Position>
              <LatitudeDegrees>42.99514205195009708404541015625</LatitudeDegrees>
              <LongitudeDegrees>-1.80737745948135852813720703125</LongitudeDegrees>
            </Position>
            <AltitudeMeters>526.4000244140625</AltitudeMeters>
            <DistanceMeters>NAN</DistanceMeters>
          </Trackpoint>
          <Trackpoint>
            <Time>2021-08-09T09:31:11.000Z</Time>
            <Position>
              <LatitudeDegrees>42.99516334198415279388427734375</LatitudeDegrees>
              <LongitudeDegrees>-1.8073423393070697784423828125</LongitudeDegrees>
            </Position>
            <AltitudeMeters>526.20001220703125</AltitudeMeters>
            <DistanceMeters>NAN</DistanceMeters>
          </Trackpoint>
          <Trackpoint>
            <Time>2021-08-09T09:31:13.000Z</Time>
            <Position>
              <LatitudeDegrees>42.99520055763423442840576171875</LatitudeDegrees>
              <LongitudeDegrees>-1.80728106759488582611083984375</LongitudeDegrees>
            </Position>
            <AltitudeMeters>526.4000244140625</AltitudeMeters>
            <DistanceMeters>NAN</DistanceMeters>
          </Trackpoint>
          <Trackpoint>
            <Time>2021-08-09T09:31:14.000Z</Time>
            <Position>
              <LatitudeDegrees>42.9952202551066875457763671875</LatitudeDegrees>
              <LongitudeDegrees>-1.807252652943134307861328125</LongitudeDegrees>
            </Position>
            <AltitudeMeters>526.4000244140625</AltitudeMeters>
            <DistanceMeters>NAN</DistanceMeters>
          </Trackpoint>
          <Trackpoint>
            <Time>2021-08-09T09:31:15.000Z</Time>
            <Position>
              <LatitudeDegrees>42.99524062313139438629150390625</LatitudeDegrees>
              <LongitudeDegrees>-1.8072199635207653045654296875</LongitudeDegrees>
            </Position>
            <AltitudeMeters>526.5999755859375</AltitudeMeters>
            <DistanceMeters>NAN</DistanceMeters>
          </Trackpoint>
          <Trackpoint>
            <Time>2021-08-09T09:31:16.000Z</Time>
            <Position>
              <LatitudeDegrees>42.9952614940702915191650390625</LatitudeDegrees>
              <LongitudeDegrees>-1.8071857653558254241943359375</LongitudeDegrees>
            </Position>
            <AltitudeMeters>526.79998779296875</AltitudeMeters>
            <DistanceMeters>NAN</DistanceMeters>
          </Trackpoint>
          <Trackpoint>
            <Time>2021-08-09T09:31:17.000Z</Time>
            <Position>
              <LatitudeDegrees>42.995283119380474090576171875</LatitudeDegrees>
              <LongitudeDegrees>-1.80715282447636127471923828125</LongitudeDegrees>
            </Position>
            <AltitudeMeters>526.79998779296875</AltitudeMeters>
            <DistanceMeters>NAN</DistanceMeters>
          </Trackpoint>
          <Trackpoint>
            <Time>2021-08-09T09:31:18.000Z</Time>
            <Position>
              <LatitudeDegrees>42.995306588709354400634765625</LatitudeDegrees>
              <LongitudeDegrees>-1.807121895253658294677734375</LongitudeDegrees>
            </Position>
            <AltitudeMeters>527</AltitudeMeters>
            <DistanceMeters>NAN</DistanceMeters>
          </Trackpoint>
          <Trackpoint>
            <Time>2021-08-09T09:31:19.000Z</Time>
            <Position>
              <LatitudeDegrees>42.99532829783856868743896484375</LatitudeDegrees>
              <LongitudeDegrees>-1.80709230713546276092529296875</LongitudeDegrees>
            </Position>
            <AltitudeMeters>527</AltitudeMeters>
            <DistanceMeters>NAN</DistanceMeters>
          </Trackpoint>
          <Trackpoint>
            <Time>2021-08-09T09:31:20.000Z</Time>
            <Position>
              <LatitudeDegrees>42.9953483305871486663818359375</LatitudeDegrees>
              <LongitudeDegrees>-1.807060204446315765380859375</LongitudeDegrees>
            </Position>
            <AltitudeMeters>527.20001220703125</AltitudeMeters>
            <DistanceMeters>NAN</DistanceMeters>
          </Trackpoint>
          <Trackpoint>
            <Time>2021-08-09T09:31:21.000Z</Time>
            <Position>
              <LatitudeDegrees>42.995369620621204376220703125</LatitudeDegrees>
              <LongitudeDegrees>-1.80703380145132541656494140625</LongitudeDegrees>
            </Position>
            <AltitudeMeters>527.20001220703125</AltitudeMeters>
            <DistanceMeters>NAN</DistanceMeters>
          </Trackpoint>
          <Trackpoint>
            <Time>2021-08-09T09:31:22.000Z</Time>
            <Position>
              <LatitudeDegrees>42.99539317376911640167236328125</LatitudeDegrees>
              <LongitudeDegrees>-1.8070057220757007598876953125</LongitudeDegrees>
            </Position>
            <AltitudeMeters>527.4000244140625</AltitudeMeters>
            <DistanceMeters>NAN</DistanceMeters>
          </Trackpoint>
          <Trackpoint>
            <Time>2021-08-09T09:31:23.000Z</Time>
            <Position>
              <LatitudeDegrees>42.99541379325091838836669921875</LatitudeDegrees>
              <LongitudeDegrees>-1.80697806179523468017578125</LongitudeDegrees>
            </Position>
            <AltitudeMeters>527.5999755859375</AltitudeMeters>
            <DistanceMeters>NAN</DistanceMeters>
          </Trackpoint>
          <Trackpoint>
            <Time>2021-08-09T09:31:24.000Z</Time>
            <Position>
              <LatitudeDegrees>42.99543055705726146697998046875</LatitudeDegrees>
              <LongitudeDegrees>-1.80694730021059513092041015625</LongitudeDegrees>
            </Position>
            <AltitudeMeters>527.5999755859375</AltitudeMeters>
            <DistanceMeters>NAN</DistanceMeters>
          </Trackpoint>
          <Trackpoint>
            <Time>2021-08-09T09:31:25.000Z</Time>
            <Position>
              <LatitudeDegrees>42.995440028607845306396484375</LatitudeDegrees>
              <LongitudeDegrees>-1.806928776204586029052734375</LongitudeDegrees>
            </Position>
            <AltitudeMeters>527.79998779296875</AltitudeMeters>
            <DistanceMeters>NAN</DistanceMeters>
          </Trackpoint>
          <Trackpoint>
            <Time>2021-08-09T09:31:27.000Z</Time>
            <Position>
              <LatitudeDegrees>42.99544413574039936065673828125</LatitudeDegrees>
              <LongitudeDegrees>-1.8069222383201122283935546875</LongitudeDegrees>
            </Position>
            <AltitudeMeters>528</AltitudeMeters>
            <DistanceMeters>NAN</DistanceMeters>
          </Trackpoint>
          <Trackpoint>
            <Time>2021-08-09T09:31:32.000Z</Time>
            <Position>
              <LatitudeDegrees>42.99544413574039936065673828125</LatitudeDegrees>
              <LongitudeDegrees>-1.8069222383201122283935546875</LongitudeDegrees>
            </Position>
            <AltitudeMeters>528.5999755859375</AltitudeMeters>
            <DistanceMeters>NAN</DistanceMeters>
          </Trackpoint>
          <Trackpoint>
            <Time>2021-08-09T09:31:45.000Z</Time>
            <Position>
              <LatitudeDegrees>42.99545503221452236175537109375</LatitudeDegrees>
              <LongitudeDegrees>-1.8069004453718662261962890625</LongitudeDegrees>
            </Position>
            <AltitudeMeters>528.79998779296875</AltitudeMeters>
            <DistanceMeters>NAN</DistanceMeters>
          </Trackpoint>
          <Trackpoint>
            <Time>2021-08-09T09:31:46.000Z</Time>
            <Position>
              <LatitudeDegrees>42.99546626396477222442626953125</LatitudeDegrees>
              <LongitudeDegrees>-1.8068729527294635772705078125</LongitudeDegrees>
            </Position>
            <AltitudeMeters>528.79998779296875</AltitudeMeters>
            <DistanceMeters>NAN</DistanceMeters>
          </Trackpoint>
          <Trackpoint>
            <Time>2021-08-09T09:31:47.000Z</Time>
            <Position>
              <LatitudeDegrees>42.9954779148101806640625</LatitudeDegrees>
              <LongitudeDegrees>-1.806846968829631805419921875</LongitudeDegrees>
            </Position>
            <AltitudeMeters>528.79998779296875</AltitudeMeters>
            <DistanceMeters>NAN</DistanceMeters>
          </Trackpoint>
          <Trackpoint>
            <Time>2021-08-09T09:31:48.000Z</Time>
            <Position>
              <LatitudeDegrees>42.995500378310680389404296875</LatitudeDegrees>
              <LongitudeDegrees>-1.806806065142154693603515625</LongitudeDegrees>
            </Position>
            <AltitudeMeters>528.79998779296875</AltitudeMeters>
            <DistanceMeters>NAN</DistanceMeters>
          </Trackpoint>
          <Trackpoint>
            <Time>2021-08-09T09:31:49.000Z</Time>
            <Position>
              <LatitudeDegrees>42.9955206625163555145263671875</LatitudeDegrees>
              <LongitudeDegrees>-1.8067643232643604278564453125</LongitudeDegrees>
            </Position>
            <AltitudeMeters>529</AltitudeMeters>
            <DistanceMeters>NAN</DistanceMeters>
          </Trackpoint>
          <Trackpoint>
            <Time>2021-08-09T09:31:55.000Z</Time>
            <Position>
              <LatitudeDegrees>42.9956621490418910980224609375</LatitudeDegrees>
              <LongitudeDegrees>-1.80649987421929836273193359375</LongitudeDegrees>
            </Position>
            <AltitudeMeters>529.4000244140625</AltitudeMeters>
            <DistanceMeters>NAN</DistanceMeters>
          </Trackpoint>
          <Trackpoint>
            <Time>2021-08-09T09:31:56.000Z</Time>
            <Position>
              <LatitudeDegrees>42.99568603746592998504638671875</LatitudeDegrees>
              <LongitudeDegrees>-1.806452013552188873291015625</LongitudeDegrees>
            </Position>
            <AltitudeMeters>529.4000244140625</AltitudeMeters>
            <DistanceMeters>NAN</DistanceMeters>
          </Trackpoint>
          <Trackpoint>
            <Time>2021-08-09T09:31:57.000Z</Time>
            <Position>
              <LatitudeDegrees>42.9957124404609203338623046875</LatitudeDegrees>
              <LongitudeDegrees>-1.80640532635152339935302734375</LongitudeDegrees>
            </Position>
            <AltitudeMeters>529.5999755859375</AltitudeMeters>
            <DistanceMeters>NAN</DistanceMeters>
          </Trackpoint>
          <Trackpoint>
            <Time>2021-08-09T09:31:58.000Z</Time>
            <Position>
              <LatitudeDegrees>42.99573699943721294403076171875</LatitudeDegrees>
              <LongitudeDegrees>-1.80635671131312847137451171875</LongitudeDegrees>
            </Position>
            <AltitudeMeters>529.79998779296875</AltitudeMeters>
            <DistanceMeters>NAN</DistanceMeters>
          </Trackpoint>
          <Trackpoint>
            <Time>2021-08-09T09:32:01.000Z</Time>
            <Position>
              <LatitudeDegrees>42.99581025727093219757080078125</LatitudeDegrees>
              <LongitudeDegrees>-1.8062040768563747406005859375</LongitudeDegrees>
            </Position>
            <AltitudeMeters>529.79998779296875</AltitudeMeters>
            <DistanceMeters>NAN</DistanceMeters>
          </Trackpoint>
          <Trackpoint>
            <Time>2021-08-09T09:32:03.000Z</Time>
            <Position>
              <LatitudeDegrees>42.995867840945720672607421875</LatitudeDegrees>
              <LongitudeDegrees>-1.806105673313140869140625</LongitudeDegrees>
            </Position>
            <AltitudeMeters>530</AltitudeMeters>
            <DistanceMeters>NAN</DistanceMeters>
          </Trackpoint>
          <Trackpoint>
            <Time>2021-08-09T09:32:05.000Z</Time>
            <Position>
              <LatitudeDegrees>42.99591972492635250091552734375</LatitudeDegrees>
              <LongitudeDegrees>-1.80599696002900600433349609375</LongitudeDegrees>
            </Position>
            <AltitudeMeters>530.5999755859375</AltitudeMeters>
            <DistanceMeters>NAN</DistanceMeters>
          </Trackpoint>
          <Trackpoint>
            <Time>2021-08-09T09:32:07.000Z</Time>
            <Position>
              <LatitudeDegrees>42.99596607685089111328125</LatitudeDegrees>
              <LongitudeDegrees>-1.805880703032016754150390625</LongitudeDegrees>
            </Position>
            <AltitudeMeters>530.5999755859375</AltitudeMeters>
            <DistanceMeters>NAN</DistanceMeters>
          </Trackpoint>
          <Trackpoint>
            <Time>2021-08-09T09:32:14.000Z</Time>
            <Position>
              <LatitudeDegrees>42.99613748677074909210205078125</LatitudeDegrees>
              <LongitudeDegrees>-1.80548365227878093719482421875</LongitudeDegrees>
            </Position>
            <AltitudeMeters>531</AltitudeMeters>
            <DistanceMeters>NAN</DistanceMeters>
          </Trackpoint>
          <Trackpoint>
            <Time>2021-08-09T09:32:15.000Z</Time>
            <Position>
              <LatitudeDegrees>42.9961632192134857177734375</LatitudeDegrees>
              <LongitudeDegrees>-1.80542866699397563934326171875</LongitudeDegrees>
            </Position>
            <AltitudeMeters>531</AltitudeMeters>
            <DistanceMeters>NAN</DistanceMeters>
          </Trackpoint>
          <Trackpoint>
            <Time>2021-08-09T09:32:20.000Z</Time>
            <Position>
              <LatitudeDegrees>42.99628752283751964569091796875</LatitudeDegrees>
              <LongitudeDegrees>-1.80513462983071804046630859375</LongitudeDegrees>
            </Position>
            <AltitudeMeters>531.20001220703125</AltitudeMeters>
            <DistanceMeters>NAN</DistanceMeters>
          </Trackpoint>
          <Trackpoint>
            <Time>2021-08-09T09:32:21.000Z</Time>
            <Position>
              <LatitudeDegrees>42.9963085614144802093505859375</LatitudeDegrees>
              <LongitudeDegrees>-1.80507394485175609588623046875</LongitudeDegrees>
            </Position>
            <AltitudeMeters>531.4000244140625</AltitudeMeters>
            <DistanceMeters>NAN</DistanceMeters>
          </Trackpoint>
          <Trackpoint>
            <Time>2021-08-09T09:32:22.000Z</Time>
            <Position>
              <LatitudeDegrees>42.9963295161724090576171875</LatitudeDegrees>
              <LongitudeDegrees>-1.8050171993672847747802734375</LongitudeDegrees>
            </Position>
            <AltitudeMeters>531.5999755859375</AltitudeMeters>
            <DistanceMeters>NAN</DistanceMeters>
          </Trackpoint>
          <Trackpoint>
            <Time>2021-08-09T09:32:23.000Z</Time>
            <Position>
              <LatitudeDegrees>42.99635089002549648284912109375</LatitudeDegrees>
              <LongitudeDegrees>-1.8049665726721286773681640625</LongitudeDegrees>
            </Position>
            <AltitudeMeters>531.79998779296875</AltitudeMeters>
            <DistanceMeters>NAN</DistanceMeters>
          </Trackpoint>
          <Trackpoint>
            <Time>2021-08-09T09:32:24.000Z</Time>
            <Position>
              <LatitudeDegrees>42.99636396579444408416748046875</LatitudeDegrees>
              <LongitudeDegrees>-1.80492407642304897308349609375</LongitudeDegrees>
            </Position>
            <AltitudeMeters>531.79998779296875</AltitudeMeters>
            <DistanceMeters>NAN</DistanceMeters>
          </Trackpoint>
          <Trackpoint>
            <Time>2021-08-09T09:32:25.000Z</Time>
            <Position>
              <LatitudeDegrees>42.99637938849627971649169921875</LatitudeDegrees>
              <LongitudeDegrees>-1.8048839271068572998046875</LongitudeDegrees>
            </Position>
            <AltitudeMeters>532.20001220703125</AltitudeMeters>
            <DistanceMeters>NAN</DistanceMeters>
          </Trackpoint>
          <Trackpoint>
            <Time>2021-08-09T09:32:26.000Z</Time>
            <Position>
              <LatitudeDegrees>42.9963943921029567718505859375</LatitudeDegrees>
              <LongitudeDegrees>-1.8048462085425853729248046875</LongitudeDegrees>
            </Position>
            <AltitudeMeters>532.4000244140625</AltitudeMeters>
            <DistanceMeters>NAN</DistanceMeters>
          </Trackpoint>
          <Trackpoint>
            <Time>2021-08-09T09:32:27.000Z</Time>
            <Position>
              <LatitudeDegrees>42.99640889279544353485107421875</LatitudeDegrees>
              <LongitudeDegrees>-1.80481108836829662322998046875</LongitudeDegrees>
            </Position>
            <AltitudeMeters>532.4000244140625</AltitudeMeters>
            <DistanceMeters>NAN</DistanceMeters>
          </Trackpoint>
          <Trackpoint>
            <Time>2021-08-09T09:32:28.000Z</Time>
            <Position>
              <LatitudeDegrees>42.9964202083647251129150390625</LatitudeDegrees>
              <LongitudeDegrees>-1.80478476919233798980712890625</LongitudeDegrees>
            </Position>
            <AltitudeMeters>532.5999755859375</AltitudeMeters>
            <DistanceMeters>NAN</DistanceMeters>
          </Trackpoint>
          <Trackpoint>
            <Time>2021-08-09T09:32:29.000Z</Time>
            <Position>
              <LatitudeDegrees>42.99643571488559246063232421875</LatitudeDegrees>
              <LongitudeDegrees>-1.80475442670285701751708984375</LongitudeDegrees>
            </Position>
            <AltitudeMeters>532.5999755859375</AltitudeMeters>
            <DistanceMeters>NAN</DistanceMeters>
          </Trackpoint>
          <Trackpoint>
            <Time>2021-08-09T09:32:30.000Z</Time>
            <Position>
              <LatitudeDegrees>42.9964500479400157928466796875</LatitudeDegrees>
              <LongitudeDegrees>-1.8047224916517734527587890625</LongitudeDegrees>
            </Position>
            <AltitudeMeters>533</AltitudeMeters>
            <DistanceMeters>NAN</DistanceMeters>
          </Trackpoint>
          <Trackpoint>
            <Time>2021-08-09T09:32:31.000Z</Time>
            <Position>
              <LatitudeDegrees>42.99646119587123394012451171875</LatitudeDegrees>
              <LongitudeDegrees>-1.8046990223228931427001953125</LongitudeDegrees>
            </Position>
            <AltitudeMeters>533.20001220703125</AltitudeMeters>
            <DistanceMeters>NAN</DistanceMeters>
          </Trackpoint>
          <Trackpoint>
            <Time>2021-08-09T09:32:32.000Z</Time>
            <Position>
              <LatitudeDegrees>42.99647192470729351043701171875</LatitudeDegrees>
              <LongitudeDegrees>-1.8046752177178859710693359375</LongitudeDegrees>
            </Position>
            <AltitudeMeters>533.5999755859375</AltitudeMeters>
            <DistanceMeters>NAN</DistanceMeters>
          </Trackpoint>
          <Trackpoint>
            <Time>2021-08-09T09:32:33.000Z</Time>
            <Position>
              <LatitudeDegrees>42.9964822344481945037841796875</LatitudeDegrees>
              <LongitudeDegrees>-1.80465216748416423797607421875</LongitudeDegrees>
            </Position>
            <AltitudeMeters>534.20001220703125</AltitudeMeters>
            <DistanceMeters>NAN</DistanceMeters>
          </Trackpoint>
          <Trackpoint>
            <Time>2021-08-09T09:32:34.000Z</Time>
            <Position>
              <LatitudeDegrees>42.9964904487133026123046875</LatitudeDegrees>
              <LongitudeDegrees>-1.80463355965912342071533203125</LongitudeDegrees>
            </Position>
            <AltitudeMeters>534.20001220703125</AltitudeMeters>
            <DistanceMeters>NAN</DistanceMeters>
          </Trackpoint>
          <Trackpoint>
            <Time>2021-08-09T09:32:35.000Z</Time>
            <Position>
              <LatitudeDegrees>42.9965043626725673675537109375</LatitudeDegrees>
              <LongitudeDegrees>-1.80460539646446704864501953125</LongitudeDegrees>
            </Position>
            <AltitudeMeters>534.5999755859375</AltitudeMeters>
            <DistanceMeters>NAN</DistanceMeters>
          </Trackpoint>
          <Trackpoint>
            <Time>2021-08-09T09:32:36.000Z</Time>
            <Position>
              <LatitudeDegrees>42.9965154267847537994384765625</LatitudeDegrees>
              <LongitudeDegrees>-1.80458008311688899993896484375</LongitudeDegrees>
            </Position>
            <AltitudeMeters>534.79998779296875</AltitudeMeters>
            <DistanceMeters>NAN</DistanceMeters>
          </Trackpoint>
          <Trackpoint>
            <Time>2021-08-09T09:32:37.000Z</Time>
            <Position>
              <LatitudeDegrees>42.99652598798274993896484375</LatitudeDegrees>
              <LongitudeDegrees>-1.80455468595027923583984375</LongitudeDegrees>
            </Position>
            <AltitudeMeters>535.20001220703125</AltitudeMeters>
            <DistanceMeters>NAN</DistanceMeters>
          </Trackpoint>
          <Trackpoint>
            <Time>2021-08-09T09:32:38.000Z</Time>
            <Position>
              <LatitudeDegrees>42.99653445370495319366455078125</LatitudeDegrees>
              <LongitudeDegrees>-1.80453465320169925689697265625</LongitudeDegrees>
            </Position>
            <AltitudeMeters>535.20001220703125</AltitudeMeters>
            <DistanceMeters>NAN</DistanceMeters>
          </Trackpoint>
          <Trackpoint>
            <Time>2021-08-09T09:32:39.000Z</Time>
            <Position>
              <LatitudeDegrees>42.99654467962682247161865234375</LatitudeDegrees>
              <LongitudeDegrees>-1.8045072443783283233642578125</LongitudeDegrees>
            </Position>
            <AltitudeMeters>535.4000244140625</AltitudeMeters>
            <DistanceMeters>NAN</DistanceMeters>
          </Trackpoint>
          <Trackpoint>
            <Time>2021-08-09T09:32:40.000Z</Time>
            <Position>
              <LatitudeDegrees>42.99655356444418430328369140625</LatitudeDegrees>
              <LongitudeDegrees>-1.804471202194690704345703125</LongitudeDegrees>
            </Position>
            <AltitudeMeters>535.79998779296875</AltitudeMeters>
            <DistanceMeters>NAN</DistanceMeters>
          </Trackpoint>
          <Trackpoint>
            <Time>2021-08-09T09:32:41.000Z</Time>
            <Position>
              <LatitudeDegrees>42.9965647123754024505615234375</LatitudeDegrees>
              <LongitudeDegrees>-1.8044438771903514862060546875</LongitudeDegrees>
            </Position>
            <AltitudeMeters>535.79998779296875</AltitudeMeters>
            <DistanceMeters>NAN</DistanceMeters>
          </Trackpoint>
          <Trackpoint>
            <Time>2021-08-09T09:32:42.000Z</Time>
            <Position>
              <LatitudeDegrees>42.99657686613500118255615234375</LatitudeDegrees>
              <LongitudeDegrees>-1.80441780947148799896240234375</LongitudeDegrees>
            </Position>
            <AltitudeMeters>536</AltitudeMeters>
            <DistanceMeters>NAN</DistanceMeters>
          </Trackpoint>
          <Trackpoint>
            <Time>2021-08-09T09:32:43.000Z</Time>
            <Position>
              <LatitudeDegrees>42.99658776260912418365478515625</LatitudeDegrees>
              <LongitudeDegrees>-1.80439098738133907318115234375</LongitudeDegrees>
            </Position>
            <AltitudeMeters>536</AltitudeMeters>
            <DistanceMeters>NAN</DistanceMeters>
          </Trackpoint>
          <Trackpoint>
            <Time>2021-08-09T09:32:44.000Z</Time>
            <Position>
              <LatitudeDegrees>42.9965965636074542999267578125</LatitudeDegrees>
              <LongitudeDegrees>-1.80437036789953708648681640625</LongitudeDegrees>
            </Position>
            <AltitudeMeters>536.20001220703125</AltitudeMeters>
            <DistanceMeters>NAN</DistanceMeters>
          </Trackpoint>
          <Trackpoint>
            <Time>2021-08-09T09:32:45.000Z</Time>
            <Position>
              <LatitudeDegrees>42.99660720862448215484619140625</LatitudeDegrees>
              <LongitudeDegrees>-1.8043399415910243988037109375</LongitudeDegrees>
            </Position>
            <AltitudeMeters>536.20001220703125</AltitudeMeters>
            <DistanceMeters>NAN</DistanceMeters>
          </Trackpoint>
          <Trackpoint>
            <Time>2021-08-09T09:32:46.000Z</Time>
            <Position>
              <LatitudeDegrees>42.99661676399409770965576171875</LatitudeDegrees>
              <LongitudeDegrees>-1.80431596934795379638671875</LongitudeDegrees>
            </Position>
            <AltitudeMeters>536.4000244140625</AltitudeMeters>
            <DistanceMeters>NAN</DistanceMeters>
          </Trackpoint>
          <Trackpoint>
            <Time>2021-08-09T09:32:47.000Z</Time>
            <Position>
              <LatitudeDegrees>42.99662816338241100311279296875</LatitudeDegrees>
              <LongitudeDegrees>-1.8042913265526294708251953125</LongitudeDegrees>
            </Position>
            <AltitudeMeters>536.5999755859375</AltitudeMeters>
            <DistanceMeters>NAN</DistanceMeters>
          </Trackpoint>
          <Trackpoint>
            <Time>2021-08-09T09:32:48.000Z</Time>
            <Position>
              <LatitudeDegrees>42.99663755111396312713623046875</LatitudeDegrees>
              <LongitudeDegrees>-1.80427263490855693817138671875</LongitudeDegrees>
            </Position>
            <AltitudeMeters>536.5999755859375</AltitudeMeters>
            <DistanceMeters>NAN</DistanceMeters>
          </Trackpoint>
          <Trackpoint>
            <Time>2021-08-09T09:32:49.000Z</Time>
            <Position>
              <LatitudeDegrees>42.99664895050227642059326171875</LatitudeDegrees>
              <LongitudeDegrees>-1.8042514286935329437255859375</LongitudeDegrees>
            </Position>
            <AltitudeMeters>537.20001220703125</AltitudeMeters>
            <DistanceMeters>NAN</DistanceMeters>
          </Trackpoint>
          <Trackpoint>
            <Time>2021-08-09T09:32:50.000Z</Time>
            <Position>
              <LatitudeDegrees>42.99666336737573146820068359375</LatitudeDegrees>
              <LongitudeDegrees>-1.8042215891182422637939453125</LongitudeDegrees>
            </Position>
            <AltitudeMeters>537.20001220703125</AltitudeMeters>
            <DistanceMeters>NAN</DistanceMeters>
          </Trackpoint>
          <Trackpoint>
            <Time>2021-08-09T09:32:51.000Z</Time>
            <Position>
              <LatitudeDegrees>42.99667241983115673065185546875</LatitudeDegrees>
              <LongitudeDegrees>-1.80419485084712505340576171875</LongitudeDegrees>
            </Position>
            <AltitudeMeters>537.4000244140625</AltitudeMeters>
            <DistanceMeters>NAN</DistanceMeters>
          </Trackpoint>
          <Trackpoint>
            <Time>2021-08-09T09:32:52.000Z</Time>
            <Position>
              <LatitudeDegrees>42.996684573590755462646484375</LatitudeDegrees>
              <LongitudeDegrees>-1.80417037568986415863037109375</LongitudeDegrees>
            </Position>
            <AltitudeMeters>537.4000244140625</AltitudeMeters>
            <DistanceMeters>NAN</DistanceMeters>
          </Trackpoint>
          <Trackpoint>
            <Time>2021-08-09T09:32:53.000Z</Time>
            <Position>
              <LatitudeDegrees>42.996699325740337371826171875</LatitudeDegrees>
              <LongitudeDegrees>-1.80414858274161815643310546875</LongitudeDegrees>
            </Position>
            <AltitudeMeters>537.5999755859375</AltitudeMeters>
            <DistanceMeters>NAN</DistanceMeters>
          </Trackpoint>
          <Trackpoint>
            <Time>2021-08-09T09:32:54.000Z</Time>
            <Position>
              <LatitudeDegrees>42.99671432934701442718505859375</LatitudeDegrees>
              <LongitudeDegrees>-1.8041263706982135772705078125</LongitudeDegrees>
            </Position>
            <AltitudeMeters>537.5999755859375</AltitudeMeters>
            <DistanceMeters>NAN</DistanceMeters>
          </Trackpoint>
          <Trackpoint>
            <Time>2021-08-09T09:32:55.000Z</Time>
            <Position>
              <LatitudeDegrees>42.99672941677272319793701171875</LatitudeDegrees>
              <LongitudeDegrees>-1.8041034042835235595703125</LongitudeDegrees>
            </Position>
            <AltitudeMeters>537.5999755859375</AltitudeMeters>
            <DistanceMeters>NAN</DistanceMeters>
          </Trackpoint>
          <Trackpoint>
            <Time>2021-08-09T09:32:56.000Z</Time>
            <Position>
              <LatitudeDegrees>42.99674400128424167633056640625</LatitudeDegrees>
              <LongitudeDegrees>-1.8040824495255947113037109375</LongitudeDegrees>
            </Position>
            <AltitudeMeters>537.5999755859375</AltitudeMeters>
            <DistanceMeters>NAN</DistanceMeters>
          </Trackpoint>
          <Trackpoint>
            <Time>2021-08-09T09:32:57.000Z</Time>
            <Position>
              <LatitudeDegrees>42.99675992690026760101318359375</LatitudeDegrees>
              <LongitudeDegrees>-1.8040578067302703857421875</LongitudeDegrees>
            </Position>
            <AltitudeMeters>537.79998779296875</AltitudeMeters>
            <DistanceMeters>NAN</DistanceMeters>
          </Trackpoint>
          <Trackpoint>
            <Time>2021-08-09T09:32:58.000Z</Time>
            <Position>
              <LatitudeDegrees>42.99677677452564239501953125</LatitudeDegrees>
              <LongitudeDegrees>-1.8040368519723415374755859375</LongitudeDegrees>
            </Position>
            <AltitudeMeters>537.79998779296875</AltitudeMeters>
            <DistanceMeters>NAN</DistanceMeters>
          </Trackpoint>
          <Trackpoint>
            <Time>2021-08-09T09:32:59.000Z</Time>
            <Position>
              <LatitudeDegrees>42.996789850294589996337890625</LatitudeDegrees>
              <LongitudeDegrees>-1.80402184836566448211669921875</LongitudeDegrees>
            </Position>
            <AltitudeMeters>537.79998779296875</AltitudeMeters>
            <DistanceMeters>NAN</DistanceMeters>
          </Trackpoint>
          <Trackpoint>
            <Time>2021-08-09T09:33:00.000Z</Time>
            <Position>
              <LatitudeDegrees>42.996807284653186798095703125</LatitudeDegrees>
              <LongitudeDegrees>-1.804002821445465087890625</LongitudeDegrees>
            </Position>
            <AltitudeMeters>538</AltitudeMeters>
            <DistanceMeters>NAN</DistanceMeters>
          </Trackpoint>
          <Trackpoint>
            <Time>2021-08-09T09:33:01.000Z</Time>
            <Position>
              <LatitudeDegrees>42.99682798795402050018310546875</LatitudeDegrees>
              <LongitudeDegrees>-1.8039771728217601776123046875</LongitudeDegrees>
            </Position>
            <AltitudeMeters>538</AltitudeMeters>
            <DistanceMeters>NAN</DistanceMeters>
          </Trackpoint>
          <Trackpoint>
            <Time>2021-08-09T09:33:02.000Z</Time>
            <Position>
              <LatitudeDegrees>42.99684575758874416351318359375</LatitudeDegrees>
              <LongitudeDegrees>-1.80395998992025852203369140625</LongitudeDegrees>
            </Position>
            <AltitudeMeters>538.20001220703125</AltitudeMeters>
            <DistanceMeters>NAN</DistanceMeters>
          </Trackpoint>
          <Trackpoint>
            <Time>2021-08-09T09:33:03.000Z</Time>
            <Position>
              <LatitudeDegrees>42.99685698933899402618408203125</LatitudeDegrees>
              <LongitudeDegrees>-1.80394582450389862060546875</LongitudeDegrees>
            </Position>
            <AltitudeMeters>538.4000244140625</AltitudeMeters>
            <DistanceMeters>NAN</DistanceMeters>
          </Trackpoint>
          <Trackpoint>
            <Time>2021-08-09T09:33:04.000Z</Time>
            <Position>
              <LatitudeDegrees>42.9968714900314807891845703125</LatitudeDegrees>
              <LongitudeDegrees>-1.80392864160239696502685546875</LongitudeDegrees>
            </Position>
            <AltitudeMeters>538.4000244140625</AltitudeMeters>
            <DistanceMeters>NAN</DistanceMeters>
          </Trackpoint>
          <Trackpoint>
            <Time>2021-08-09T09:33:05.000Z</Time>
            <Position>
              <LatitudeDegrees>42.99688381142914295196533203125</LatitudeDegrees>
              <LongitudeDegrees>-1.803911291062831878662109375</LongitudeDegrees>
            </Position>
            <AltitudeMeters>538.4000244140625</AltitudeMeters>
            <DistanceMeters>NAN</DistanceMeters>
          </Trackpoint>
          <Trackpoint>
            <Time>2021-08-09T09:33:06.000Z</Time>
            <Position>
              <LatitudeDegrees>42.99690023995935916900634765625</LatitudeDegrees>
              <LongitudeDegrees>-1.80389360524713993072509765625</LongitudeDegrees>
            </Position>
            <AltitudeMeters>538.5999755859375</AltitudeMeters>
            <DistanceMeters>NAN</DistanceMeters>
          </Trackpoint>
          <Trackpoint>
            <Time>2021-08-09T09:33:07.000Z</Time>
            <Position>
              <LatitudeDegrees>42.99691356718540191650390625</LatitudeDegrees>
              <LongitudeDegrees>-1.80387767963111400604248046875</LongitudeDegrees>
            </Position>
            <AltitudeMeters>538.5999755859375</AltitudeMeters>
            <DistanceMeters>NAN</DistanceMeters>
          </Trackpoint>
          <Trackpoint>
            <Time>2021-08-09T09:33:08.000Z</Time>
            <Position>
              <LatitudeDegrees>42.99692857079207897186279296875</LatitudeDegrees>
              <LongitudeDegrees>-1.8038621731102466583251953125</LongitudeDegrees>
            </Position>
            <AltitudeMeters>538.5999755859375</AltitudeMeters>
            <DistanceMeters>NAN</DistanceMeters>
          </Trackpoint>
          <Trackpoint>
            <Time>2021-08-09T09:33:09.000Z</Time>
            <Position>
              <LatitudeDegrees>42.99694332294166088104248046875</LatitudeDegrees>
              <LongitudeDegrees>-1.80385462939739227294921875</LongitudeDegrees>
            </Position>
            <AltitudeMeters>538.5999755859375</AltitudeMeters>
            <DistanceMeters>NAN</DistanceMeters>
          </Trackpoint>
          <Trackpoint>
            <Time>2021-08-09T09:33:10.000Z</Time>
            <Position>
              <LatitudeDegrees>42.9969625174999237060546875</LatitudeDegrees>
              <LongitudeDegrees>-1.80384448729455471038818359375</LongitudeDegrees>
            </Position>
            <AltitudeMeters>538.79998779296875</AltitudeMeters>
            <DistanceMeters>NAN</DistanceMeters>
          </Trackpoint>
          <Trackpoint>
            <Time>2021-08-09T09:33:11.000Z</Time>
            <Position>
              <LatitudeDegrees>42.9969866573810577392578125</LatitudeDegrees>
              <LongitudeDegrees>-1.80383191443979740142822265625</LongitudeDegrees>
            </Position>
            <AltitudeMeters>538.79998779296875</AltitudeMeters>
            <DistanceMeters>NAN</DistanceMeters>
          </Trackpoint>
          <Trackpoint>
            <Time>2021-08-09T09:33:12.000Z</Time>
            <Position>
              <LatitudeDegrees>42.99700819887220859527587890625</LatitudeDegrees>
              <LongitudeDegrees>-1.80382185615599155426025390625</LongitudeDegrees>
            </Position>
            <AltitudeMeters>538.79998779296875</AltitudeMeters>
            <DistanceMeters>NAN</DistanceMeters>
          </Trackpoint>
          <Trackpoint>
            <Time>2021-08-09T09:33:13.000Z</Time>
            <Position>
              <LatitudeDegrees>42.99702982418239116668701171875</LatitudeDegrees>
              <LongitudeDegrees>-1.8038110435009002685546875</LongitudeDegrees>
            </Position>
            <AltitudeMeters>538.79998779296875</AltitudeMeters>
            <DistanceMeters>NAN</DistanceMeters>
          </Trackpoint>
          <Trackpoint>
            <Time>2021-08-09T09:33:14.000Z</Time>
            <Position>
              <LatitudeDegrees>42.99705170094966888427734375</LatitudeDegrees>
              <LongitudeDegrees>-1.803800649940967559814453125</LongitudeDegrees>
            </Position>
            <AltitudeMeters>538.79998779296875</AltitudeMeters>
            <DistanceMeters>NAN</DistanceMeters>
          </Trackpoint>
          <Trackpoint>
            <Time>2021-08-09T09:33:15.000Z</Time>
            <Position>
              <LatitudeDegrees>42.9970659501850605010986328125</LatitudeDegrees>
              <LongitudeDegrees>-1.80379017256200313568115234375</LongitudeDegrees>
            </Position>
            <AltitudeMeters>538.79998779296875</AltitudeMeters>
            <DistanceMeters>NAN</DistanceMeters>
          </Trackpoint>
          <Trackpoint>
            <Time>2021-08-09T09:33:16.000Z</Time>
            <Position>
              <LatitudeDegrees>42.997088246047496795654296875</LatitudeDegrees>
              <LongitudeDegrees>-1.80377282202243804931640625</LongitudeDegrees>
            </Position>
            <AltitudeMeters>538.79998779296875</AltitudeMeters>
            <DistanceMeters>NAN</DistanceMeters>
          </Trackpoint>
          <Trackpoint>
            <Time>2021-08-09T09:33:23.000Z</Time>
            <Position>
              <LatitudeDegrees>42.997252531349658966064453125</LatitudeDegrees>
              <LongitudeDegrees>-1.80366930551826953887939453125</LongitudeDegrees>
            </Position>
            <AltitudeMeters>538.79998779296875</AltitudeMeters>
            <DistanceMeters>NAN</DistanceMeters>
          </Trackpoint>
          <Trackpoint>
            <Time>2021-08-09T09:33:24.000Z</Time>
            <Position>
              <LatitudeDegrees>42.9972790181636810302734375</LatitudeDegrees>
              <LongitudeDegrees>-1.803652457892894744873046875</LongitudeDegrees>
            </Position>
            <AltitudeMeters>538.79998779296875</AltitudeMeters>
            <DistanceMeters>NAN</DistanceMeters>
          </Trackpoint>
          <Trackpoint>
            <Time>2021-08-09T09:33:30.000Z</Time>
            <Position>
              <LatitudeDegrees>42.9974384419620037078857421875</LatitudeDegrees>
              <LongitudeDegrees>-1.80353653617203235626220703125</LongitudeDegrees>
            </Position>
            <AltitudeMeters>539</AltitudeMeters>
            <DistanceMeters>NAN</DistanceMeters>
          </Trackpoint>
          <Trackpoint>
            <Time>2021-08-09T09:33:35.000Z</Time>
            <Position>
              <LatitudeDegrees>42.9975792579352855682373046875</LatitudeDegrees>
              <LongitudeDegrees>-1.8034383840858936309814453125</LongitudeDegrees>
            </Position>
            <AltitudeMeters>539.20001220703125</AltitudeMeters>
            <DistanceMeters>NAN</DistanceMeters>
          </Trackpoint>
          <Trackpoint>
            <Time>2021-08-09T09:33:36.000Z</Time>
            <Position>
              <LatitudeDegrees>42.997606582939624786376953125</LatitudeDegrees>
              <LongitudeDegrees>-1.80342220701277256011962890625</LongitudeDegrees>
            </Position>
            <AltitudeMeters>539.5999755859375</AltitudeMeters>
            <DistanceMeters>NAN</DistanceMeters>
          </Trackpoint>
          <Trackpoint>
            <Time>2021-08-09T09:33:39.000Z</Time>
            <Position>
              <LatitudeDegrees>42.997693084180355072021484375</LatitudeDegrees>
              <LongitudeDegrees>-1.8033657968044281005859375</LongitudeDegrees>
            </Position>
            <AltitudeMeters>539.79998779296875</AltitudeMeters>
            <DistanceMeters>NAN</DistanceMeters>
          </Trackpoint>
          <Trackpoint>
            <Time>2021-08-09T09:33:43.000Z</Time>
            <Position>
              <LatitudeDegrees>42.9978168010711669921875</LatitudeDegrees>
              <LongitudeDegrees>-1.8032853305339813232421875</LongitudeDegrees>
            </Position>
            <AltitudeMeters>539.79998779296875</AltitudeMeters>
            <DistanceMeters>NAN</DistanceMeters>
          </Trackpoint>
          <Trackpoint>
            <Time>2021-08-09T09:33:44.000Z</Time>
            <Position>
              <LatitudeDegrees>42.99783918075263500213623046875</LatitudeDegrees>
              <LongitudeDegrees>-1.803268231451511383056640625</LongitudeDegrees>
            </Position>
            <AltitudeMeters>539.5999755859375</AltitudeMeters>
            <DistanceMeters>NAN</DistanceMeters>
          </Trackpoint>
          <Trackpoint>
            <Time>2021-08-09T09:33:48.000Z</Time>
            <Position>
              <LatitudeDegrees>42.9979571141302585601806640625</LatitudeDegrees>
              <LongitudeDegrees>-1.80318399332463741302490234375</LongitudeDegrees>
            </Position>
            <AltitudeMeters>539.79998779296875</AltitudeMeters>
            <DistanceMeters>NAN</DistanceMeters>
          </Trackpoint>
          <Trackpoint>
            <Time>2021-08-09T09:33:49.000Z</Time>
            <Position>
              <LatitudeDegrees>42.9979871213436126708984375</LatitudeDegrees>
              <LongitudeDegrees>-1.80316052399575710296630859375</LongitudeDegrees>
            </Position>
            <AltitudeMeters>539.79998779296875</AltitudeMeters>
            <DistanceMeters>NAN</DistanceMeters>
          </Trackpoint>
          <Trackpoint>
            <Time>2021-08-09T09:33:51.000Z</Time>
            <Position>
              <LatitudeDegrees>42.99804202280938625335693359375</LatitudeDegrees>
              <LongitudeDegrees>-1.80312029086053371429443359375</LongitudeDegrees>
            </Position>
            <AltitudeMeters>539.79998779296875</AltitudeMeters>
            <DistanceMeters>NAN</DistanceMeters>
          </Trackpoint>
          <Trackpoint>
            <Time>2021-08-09T09:33:52.000Z</Time>
            <Position>
              <LatitudeDegrees>42.9980747960507869720458984375</LatitudeDegrees>
              <LongitudeDegrees>-1.8030960671603679656982421875</LongitudeDegrees>
            </Position>
            <AltitudeMeters>539.5999755859375</AltitudeMeters>
            <DistanceMeters>NAN</DistanceMeters>
          </Trackpoint>
          <Trackpoint>
            <Time>2021-08-09T09:33:53.000Z</Time>
            <Position>
              <LatitudeDegrees>42.99810069613158702850341796875</LatitudeDegrees>
              <LongitudeDegrees>-1.803079135715961456298828125</LongitudeDegrees>
            </Position>
            <AltitudeMeters>539.5999755859375</AltitudeMeters>
            <DistanceMeters>NAN</DistanceMeters>
          </Trackpoint>
          <Trackpoint>
            <Time>2021-08-09T09:33:54.000Z</Time>
            <Position>
              <LatitudeDegrees>42.99812315963208675384521484375</LatitudeDegrees>
              <LongitudeDegrees>-1.80306480266153812408447265625</LongitudeDegrees>
            </Position>
            <AltitudeMeters>540</AltitudeMeters>
            <DistanceMeters>NAN</DistanceMeters>
          </Trackpoint>
          <Trackpoint>
            <Time>2021-08-09T09:33:55.000Z</Time>
            <Position>
              <LatitudeDegrees>42.99814310856163501739501953125</LatitudeDegrees>
              <LongitudeDegrees>-1.803052984178066253662109375</LongitudeDegrees>
            </Position>
            <AltitudeMeters>539.79998779296875</AltitudeMeters>
            <DistanceMeters>NAN</DistanceMeters>
          </Trackpoint>
          <Trackpoint>
            <Time>2021-08-09T09:33:56.000Z</Time>
            <Position>
              <LatitudeDegrees>42.998157776892185211181640625</LatitudeDegrees>
              <LongitudeDegrees>-1.80304116569459438323974609375</LongitudeDegrees>
            </Position>
            <AltitudeMeters>539.79998779296875</AltitudeMeters>
            <DistanceMeters>NAN</DistanceMeters>
          </Trackpoint>
          <Trackpoint>
            <Time>2021-08-09T09:33:57.000Z</Time>
            <Position>
              <LatitudeDegrees>42.99818501807749271392822265625</LatitudeDegrees>
              <LongitudeDegrees>-1.80302540771663188934326171875</LongitudeDegrees>
            </Position>
            <AltitudeMeters>539.5999755859375</AltitudeMeters>
            <DistanceMeters>NAN</DistanceMeters>
          </Trackpoint>
          <Trackpoint>
            <Time>2021-08-09T09:34:02.000Z</Time>
            <Position>
              <LatitudeDegrees>42.998306639492511749267578125</LatitudeDegrees>
              <LongitudeDegrees>-1.80293622426688671112060546875</LongitudeDegrees>
            </Position>
            <AltitudeMeters>539.20001220703125</AltitudeMeters>
            <DistanceMeters>NAN</DistanceMeters>
          </Trackpoint>
          <Trackpoint>
            <Time>2021-08-09T09:34:11.000Z</Time>
            <Position>
              <LatitudeDegrees>42.99856052733957767486572265625</LatitudeDegrees>
              <LongitudeDegrees>-1.80279222317039966583251953125</LongitudeDegrees>
            </Position>
            <AltitudeMeters>539</AltitudeMeters>
            <DistanceMeters>NAN</DistanceMeters>
          </Trackpoint>
          <Trackpoint>
            <Time>2021-08-09T09:34:18.000Z</Time>
            <Position>
              <LatitudeDegrees>42.99875766970217227935791015625</LatitudeDegrees>
              <LongitudeDegrees>-1.80266180075705051422119140625</LongitudeDegrees>
            </Position>
            <AltitudeMeters>538.79998779296875</AltitudeMeters>
            <DistanceMeters>NAN</DistanceMeters>
          </Trackpoint>
          <Trackpoint>
            <Time>2021-08-09T09:34:19.000Z</Time>
            <Position>
              <LatitudeDegrees>42.9987837374210357666015625</LatitudeDegrees>
              <LongitudeDegrees>-1.80264436639845371246337890625</LongitudeDegrees>
            </Position>
            <AltitudeMeters>538.5999755859375</AltitudeMeters>
            <DistanceMeters>NAN</DistanceMeters>
          </Trackpoint>
          <Trackpoint>
            <Time>2021-08-09T09:34:20.000Z</Time>
            <Position>
              <LatitudeDegrees>42.99880963750183582305908203125</LatitudeDegrees>
              <LongitudeDegrees>-1.8026255071163177490234375</LongitudeDegrees>
            </Position>
            <AltitudeMeters>538.5999755859375</AltitudeMeters>
            <DistanceMeters>NAN</DistanceMeters>
          </Trackpoint>
          <Trackpoint>
            <Time>2021-08-09T09:34:21.000Z</Time>
            <Position>
              <LatitudeDegrees>42.99883377738296985626220703125</LatitudeDegrees>
              <LongitudeDegrees>-1.80260748602449893951416015625</LongitudeDegrees>
            </Position>
            <AltitudeMeters>538.5999755859375</AltitudeMeters>
            <DistanceMeters>NAN</DistanceMeters>
          </Trackpoint>
          <Trackpoint>
            <Time>2021-08-09T09:34:22.000Z</Time>
            <Position>
              <LatitudeDegrees>42.99885959364473819732666015625</LatitudeDegrees>
              <LongitudeDegrees>-1.802588962018489837646484375</LongitudeDegrees>
            </Position>
            <AltitudeMeters>538.5999755859375</AltitudeMeters>
            <DistanceMeters>NAN</DistanceMeters>
          </Trackpoint>
          <Trackpoint>
            <Time>2021-08-09T09:34:23.000Z</Time>
            <Position>
              <LatitudeDegrees>42.9988901875913143157958984375</LatitudeDegrees>
              <LongitudeDegrees>-1.80256742052733898162841796875</LongitudeDegrees>
            </Position>
            <AltitudeMeters>538.5999755859375</AltitudeMeters>
            <DistanceMeters>NAN</DistanceMeters>
          </Trackpoint>
          <Trackpoint>
            <Time>2021-08-09T09:34:24.000Z</Time>
            <Position>
              <LatitudeDegrees>42.99891491420567035675048828125</LatitudeDegrees>
              <LongitudeDegrees>-1.80254998616874217987060546875</LongitudeDegrees>
            </Position>
            <AltitudeMeters>538.5999755859375</AltitudeMeters>
            <DistanceMeters>NAN</DistanceMeters>
          </Trackpoint>
          <Trackpoint>
            <Time>2021-08-09T09:34:25.000Z</Time>
            <Position>
              <LatitudeDegrees>42.998934946954250335693359375</LatitudeDegrees>
              <LongitudeDegrees>-1.8025369942188262939453125</LongitudeDegrees>
            </Position>
            <AltitudeMeters>538.5999755859375</AltitudeMeters>
            <DistanceMeters>NAN</DistanceMeters>
          </Trackpoint>
          <Trackpoint>
            <Time>2021-08-09T09:34:26.000Z</Time>
            <Position>
              <LatitudeDegrees>42.99896134994924068450927734375</LatitudeDegrees>
              <LongitudeDegrees>-1.802522242069244384765625</LongitudeDegrees>
            </Position>
            <AltitudeMeters>538.5999755859375</AltitudeMeters>
            <DistanceMeters>NAN</DistanceMeters>
          </Trackpoint>
          <Trackpoint>
            <Time>2021-08-09T09:34:27.000Z</Time>
            <Position>
              <LatitudeDegrees>42.9989867471158504486083984375</LatitudeDegrees>
              <LongitudeDegrees>-1.80250774137675762176513671875</LongitudeDegrees>
            </Position>
            <AltitudeMeters>538.79998779296875</AltitudeMeters>
            <DistanceMeters>NAN</DistanceMeters>
          </Trackpoint>
          <Trackpoint>
            <Time>2021-08-09T09:34:28.000Z</Time>
            <Position>
              <LatitudeDegrees>42.9990118928253650665283203125</LatitudeDegrees>
              <LongitudeDegrees>-1.8024932406842708587646484375</LongitudeDegrees>
            </Position>
            <AltitudeMeters>538.79998779296875</AltitudeMeters>
            <DistanceMeters>NAN</DistanceMeters>
          </Trackpoint>
          <Trackpoint>
            <Time>2021-08-09T09:34:29.000Z</Time>
            <Position>
              <LatitudeDegrees>42.99904047511518001556396484375</LatitudeDegrees>
              <LongitudeDegrees>-1.80247136391699314117431640625</LongitudeDegrees>
            </Position>
            <AltitudeMeters>538.79998779296875</AltitudeMeters>
            <DistanceMeters>NAN</DistanceMeters>
          </Trackpoint>
          <Trackpoint>
            <Time>2021-08-09T09:34:30.000Z</Time>
            <Position>
              <LatitudeDegrees>42.99906059168279170989990234375</LatitudeDegrees>
              <LongitudeDegrees>-1.8024587072432041168212890625</LongitudeDegrees>
            </Position>
            <AltitudeMeters>538.79998779296875</AltitudeMeters>
            <DistanceMeters>NAN</DistanceMeters>
          </Trackpoint>
          <Trackpoint>
            <Time>2021-08-09T09:34:31.000Z</Time>
            <Position>
              <LatitudeDegrees>42.999087162315845489501953125</LatitudeDegrees>
              <LongitudeDegrees>-1.8024456314742565155029296875</LongitudeDegrees>
            </Position>
            <AltitudeMeters>538.79998779296875</AltitudeMeters>
            <DistanceMeters>NAN</DistanceMeters>
          </Trackpoint>
          <Trackpoint>
            <Time>2021-08-09T09:34:32.000Z</Time>
            <Position>
              <LatitudeDegrees>42.9991107992827892303466796875</LatitudeDegrees>
              <LongitudeDegrees>-1.80243129841983318328857421875</LongitudeDegrees>
            </Position>
            <AltitudeMeters>538.4000244140625</AltitudeMeters>
            <DistanceMeters>NAN</DistanceMeters>
          </Trackpoint>
          <Trackpoint>
            <Time>2021-08-09T09:34:33.000Z</Time>
            <Position>
              <LatitudeDegrees>42.99913234077394008636474609375</LatitudeDegrees>
              <LongitudeDegrees>-1.80241436697542667388916015625</LongitudeDegrees>
            </Position>
            <AltitudeMeters>538.4000244140625</AltitudeMeters>
            <DistanceMeters>NAN</DistanceMeters>
          </Trackpoint>
          <Trackpoint>
            <Time>2021-08-09T09:34:34.000Z</Time>
            <Position>
              <LatitudeDegrees>42.99915245734155178070068359375</LatitudeDegrees>
              <LongitudeDegrees>-1.80239860899746417999267578125</LongitudeDegrees>
            </Position>
            <AltitudeMeters>538.4000244140625</AltitudeMeters>
            <DistanceMeters>NAN</DistanceMeters>
          </Trackpoint>
          <Trackpoint>
            <Time>2021-08-09T09:34:35.000Z</Time>
            <Position>
              <LatitudeDegrees>42.999171316623687744140625</LatitudeDegrees>
              <LongitudeDegrees>-1.80238704197108745574951171875</LongitudeDegrees>
            </Position>
            <AltitudeMeters>538.4000244140625</AltitudeMeters>
            <DistanceMeters>NAN</DistanceMeters>
          </Trackpoint>
          <Trackpoint>
            <Time>2021-08-09T09:34:36.000Z</Time>
            <Position>
              <LatitudeDegrees>42.99918497912585735321044921875</LatitudeDegrees>
              <LongitudeDegrees>-1.802375055849552154541015625</LongitudeDegrees>
            </Position>
            <AltitudeMeters>538.20001220703125</AltitudeMeters>
            <DistanceMeters>NAN</DistanceMeters>
          </Trackpoint>
          <Trackpoint>
            <Time>2021-08-09T09:34:37.000Z</Time>
            <Position>
              <LatitudeDegrees>42.999196462333202362060546875</LatitudeDegrees>
              <LongitudeDegrees>-1.80236541666090488433837890625</LongitudeDegrees>
            </Position>
            <AltitudeMeters>538.20001220703125</AltitudeMeters>
            <DistanceMeters>NAN</DistanceMeters>
          </Trackpoint>
          <Trackpoint>
            <Time>2021-08-09T09:34:38.000Z</Time>
            <Position>
              <LatitudeDegrees>42.9992086999118328094482421875</LatitudeDegrees>
              <LongitudeDegrees>-1.8023577891290187835693359375</LongitudeDegrees>
            </Position>
            <AltitudeMeters>538.20001220703125</AltitudeMeters>
            <DistanceMeters>NAN</DistanceMeters>
          </Trackpoint>
          <Trackpoint>
            <Time>2021-08-09T09:34:39.000Z</Time>
            <Position>
              <LatitudeDegrees>42.9992217756807804107666015625</LatitudeDegrees>
              <LongitudeDegrees>-1.8023554421961307525634765625</LongitudeDegrees>
            </Position>
            <AltitudeMeters>538.20001220703125</AltitudeMeters>
            <DistanceMeters>NAN</DistanceMeters>
          </Trackpoint>
          <Trackpoint>
            <Time>2021-08-09T09:34:40.000Z</Time>
            <Position>
              <LatitudeDegrees>42.9992361925542354583740234375</LatitudeDegrees>
              <LongitudeDegrees>-1.8023591302335262298583984375</LongitudeDegrees>
            </Position>
            <AltitudeMeters>538.20001220703125</AltitudeMeters>
            <DistanceMeters>NAN</DistanceMeters>
          </Trackpoint>
          <Trackpoint>
            <Time>2021-08-09T09:34:41.000Z</Time>
            <Position>
              <LatitudeDegrees>42.9992459155619144439697265625</LatitudeDegrees>
              <LongitudeDegrees>-1.80236424319446086883544921875</LongitudeDegrees>
            </Position>
            <AltitudeMeters>538.20001220703125</AltitudeMeters>
            <DistanceMeters>NAN</DistanceMeters>
          </Trackpoint>
          <Trackpoint>
            <Time>2021-08-09T09:34:43.000Z</Time>
            <Position>
              <LatitudeDegrees>42.99926762469112873077392578125</LatitudeDegrees>
              <LongitudeDegrees>-1.80238368920981884002685546875</LongitudeDegrees>
            </Position>
            <AltitudeMeters>538</AltitudeMeters>
            <DistanceMeters>NAN</DistanceMeters>
          </Trackpoint>
          <Trackpoint>
            <Time>2021-08-09T09:34:44.000Z</Time>
            <Position>
              <LatitudeDegrees>42.99928195774555206298828125</LatitudeDegrees>
              <LongitudeDegrees>-1.80239592678844928741455078125</LongitudeDegrees>
            </Position>
            <AltitudeMeters>538</AltitudeMeters>
            <DistanceMeters>NAN</DistanceMeters>
          </Trackpoint>
          <Trackpoint>
            <Time>2021-08-09T09:34:47.000Z</Time>
            <Position>
              <LatitudeDegrees>42.99932009540498256683349609375</LatitudeDegrees>
              <LongitudeDegrees>-1.80241922847926616668701171875</LongitudeDegrees>
            </Position>
            <AltitudeMeters>538.20001220703125</AltitudeMeters>
            <DistanceMeters>NAN</DistanceMeters>
          </Trackpoint>
          <Trackpoint>
            <Time>2021-08-09T09:34:48.000Z</Time>
            <Position>
              <LatitudeDegrees>42.99933216534554958343505859375</LatitudeDegrees>
              <LongitudeDegrees>-1.80243716575205326080322265625</LongitudeDegrees>
            </Position>
            <AltitudeMeters>538.20001220703125</AltitudeMeters>
            <DistanceMeters>NAN</DistanceMeters>
          </Trackpoint>
          <Trackpoint>
            <Time>2021-08-09T09:34:49.000Z</Time>
            <Position>
              <LatitudeDegrees>42.999339289963245391845703125</LatitudeDegrees>
              <LongitudeDegrees>-1.80246256291866302490234375</LongitudeDegrees>
            </Position>
            <AltitudeMeters>538.20001220703125</AltitudeMeters>
            <DistanceMeters>NAN</DistanceMeters>
          </Trackpoint>
          <Trackpoint>
            <Time>2021-08-09T09:34:50.000Z</Time>
            <Position>
              <LatitudeDegrees>42.99934255890548229217529296875</LatitudeDegrees>
              <LongitudeDegrees>-1.80248997174203395843505859375</LongitudeDegrees>
            </Position>
            <AltitudeMeters>538.20001220703125</AltitudeMeters>
            <DistanceMeters>NAN</DistanceMeters>
          </Trackpoint>
          <Trackpoint>
            <Time>2021-08-09T09:34:51.000Z</Time>
            <Position>
              <LatitudeDegrees>42.99933962523937225341796875</LatitudeDegrees>
              <LongitudeDegrees>-1.802511177957057952880859375</LongitudeDegrees>
            </Position>
            <AltitudeMeters>538.20001220703125</AltitudeMeters>
            <DistanceMeters>NAN</DistanceMeters>
          </Trackpoint>
          <Trackpoint>
            <Time>2021-08-09T09:34:52.000Z</Time>
            <Position>
              <LatitudeDegrees>42.99933652393519878387451171875</LatitudeDegrees>
              <LongitudeDegrees>-1.80251763202250003814697265625</LongitudeDegrees>
            </Position>
            <AltitudeMeters>538.4000244140625</AltitudeMeters>
            <DistanceMeters>NAN</DistanceMeters>
          </Trackpoint>
          <Trackpoint>
            <Time>2021-08-09T09:34:57.000Z</Time>
            <Position>
              <LatitudeDegrees>42.99933652393519878387451171875</LatitudeDegrees>
              <LongitudeDegrees>-1.80251763202250003814697265625</LongitudeDegrees>
            </Position>
            <AltitudeMeters>538.79998779296875</AltitudeMeters>
            <DistanceMeters>NAN</DistanceMeters>
          </Trackpoint>
          <Trackpoint>
            <Time>2021-08-09T09:34:58.000Z</Time>
            <Position>
              <LatitudeDegrees>42.9993287287652492523193359375</LatitudeDegrees>
              <LongitudeDegrees>-1.8025155365467071533203125</LongitudeDegrees>
            </Position>
            <AltitudeMeters>538.79998779296875</AltitudeMeters>
            <DistanceMeters>NAN</DistanceMeters>
          </Trackpoint>
          <Trackpoint>
            <Time>2021-08-09T09:34:59.000Z</Time>
            <Position>
              <LatitudeDegrees>42.9993290640413761138916015625</LatitudeDegrees>
              <LongitudeDegrees>-1.8025106750428676605224609375</LongitudeDegrees>
            </Position>
            <AltitudeMeters>539</AltitudeMeters>
            <DistanceMeters>NAN</DistanceMeters>
          </Trackpoint>
          <Trackpoint>
            <Time>2021-08-09T09:35:02.000Z</Time>
            <Position>
              <LatitudeDegrees>42.9993290640413761138916015625</LatitudeDegrees>
              <LongitudeDegrees>-1.8025106750428676605224609375</LongitudeDegrees>
            </Position>
            <AltitudeMeters>539</AltitudeMeters>
            <DistanceMeters>NAN</DistanceMeters>
          </Trackpoint>
          <Trackpoint>
            <Time>2021-08-09T09:35:11.000Z</Time>
            <Position>
              <LatitudeDegrees>42.9993290640413761138916015625</LatitudeDegrees>
              <LongitudeDegrees>-1.8025106750428676605224609375</LongitudeDegrees>
            </Position>
            <AltitudeMeters>539.4000244140625</AltitudeMeters>
            <DistanceMeters>NAN</DistanceMeters>
          </Trackpoint>
          <Trackpoint>
            <Time>2021-08-09T09:35:42.000Z</Time>
            <Position>
              <LatitudeDegrees>42.9993290640413761138916015625</LatitudeDegrees>
              <LongitudeDegrees>-1.8025106750428676605224609375</LongitudeDegrees>
            </Position>
            <AltitudeMeters>538.79998779296875</AltitudeMeters>
            <DistanceMeters>NAN</DistanceMeters>
          </Trackpoint>
          <Trackpoint>
            <Time>2021-08-09T09:35:55.000Z</Time>
            <Position>
              <LatitudeDegrees>42.99933132715523242950439453125</LatitudeDegrees>
              <LongitudeDegrees>-1.80251260288059711456298828125</LongitudeDegrees>
            </Position>
            <AltitudeMeters>538.79998779296875</AltitudeMeters>
            <DistanceMeters>NAN</DistanceMeters>
          </Trackpoint>
          <Trackpoint>
            <Time>2021-08-09T09:35:59.000Z</Time>
            <Position>
              <LatitudeDegrees>42.99933132715523242950439453125</LatitudeDegrees>
              <LongitudeDegrees>-1.8025101721286773681640625</LongitudeDegrees>
            </Position>
            <AltitudeMeters>538.79998779296875</AltitudeMeters>
            <DistanceMeters>NAN</DistanceMeters>
          </Trackpoint>
          <Trackpoint>
            <Time>2021-08-09T09:39:47.000Z</Time>
            <Position>
              <LatitudeDegrees>42.99921615980565547943115234375</LatitudeDegrees>
              <LongitudeDegrees>-1.80279959924519062042236328125</LongitudeDegrees>
            </Position>
            <AltitudeMeters>539.4000244140625</AltitudeMeters>
            <DistanceMeters>NAN</DistanceMeters>
          </Trackpoint>
          <Trackpoint>
            <Time>2021-08-09T09:39:50.000Z</Time>
            <Position>
              <LatitudeDegrees>42.99921615980565547943115234375</LatitudeDegrees>
              <LongitudeDegrees>-1.80279959924519062042236328125</LongitudeDegrees>
            </Position>
            <AltitudeMeters>539.4000244140625</AltitudeMeters>
            <DistanceMeters>NAN</DistanceMeters>
          </Trackpoint>
          <Trackpoint>
            <Time>2021-08-09T11:00:12.000Z</Time>
            <Position>
              <LatitudeDegrees>42.99931322224438190460205078125</LatitudeDegrees>
              <LongitudeDegrees>-1.80285416543483734130859375</LongitudeDegrees>
            </Position>
            <AltitudeMeters>541.79998779296875</AltitudeMeters>
            <DistanceMeters>NAN</DistanceMeters>
          </Trackpoint>
          <Trackpoint>
            <Time>2021-08-09T11:00:20.000Z</Time>
            <Position>
              <LatitudeDegrees>42.999317161738872528076171875</LatitudeDegrees>
              <LongitudeDegrees>-1.802851147949695587158203125</LongitudeDegrees>
            </Position>
            <AltitudeMeters>541.5999755859375</AltitudeMeters>
            <DistanceMeters>NAN</DistanceMeters>
          </Trackpoint>
          <Trackpoint>
            <Time>2021-08-09T11:00:24.000Z</Time>
            <Position>
              <LatitudeDegrees>42.99932596273720264434814453125</LatitudeDegrees>
              <LongitudeDegrees>-1.80277780629694461822509765625</LongitudeDegrees>
            </Position>
            <AltitudeMeters>541.4000244140625</AltitudeMeters>
            <DistanceMeters>NAN</DistanceMeters>
          </Trackpoint>
          <Trackpoint>
            <Time>2021-08-09T11:00:26.000Z</Time>
            <Position>
              <LatitudeDegrees>42.9993290640413761138916015625</LatitudeDegrees>
              <LongitudeDegrees>-1.80274344049394130706787109375</LongitudeDegrees>
            </Position>
            <AltitudeMeters>541.20001220703125</AltitudeMeters>
            <DistanceMeters>NAN</DistanceMeters>
          </Trackpoint>
          <Trackpoint>
            <Time>2021-08-09T11:00:27.000Z</Time>
            <Position>
              <LatitudeDegrees>42.9993324168026447296142578125</LatitudeDegrees>
              <LongitudeDegrees>-1.80272751487791538238525390625</LongitudeDegrees>
            </Position>
            <AltitudeMeters>541.20001220703125</AltitudeMeters>
            <DistanceMeters>NAN</DistanceMeters>
          </Trackpoint>
          <Trackpoint>
            <Time>2021-08-09T11:00:29.000Z</Time>
            <Position>
              <LatitudeDegrees>42.99935060553252696990966796875</LatitudeDegrees>
              <LongitudeDegrees>-1.80269834585487842559814453125</LongitudeDegrees>
            </Position>
            <AltitudeMeters>541.20001220703125</AltitudeMeters>
            <DistanceMeters>NAN</DistanceMeters>
          </Trackpoint>
          <Trackpoint>
            <Time>2021-08-09T11:00:30.000Z</Time>
            <Position>
              <LatitudeDegrees>42.9993523657321929931640625</LatitudeDegrees>
              <LongitudeDegrees>-1.80268384516239166259765625</LongitudeDegrees>
            </Position>
            <AltitudeMeters>541.20001220703125</AltitudeMeters>
            <DistanceMeters>NAN</DistanceMeters>
          </Trackpoint>
          <Trackpoint>
            <Time>2021-08-09T11:00:31.000Z</Time>
            <Position>
              <LatitudeDegrees>42.99935295246541500091552734375</LatitudeDegrees>
              <LongitudeDegrees>-1.8026685900986194610595703125</LongitudeDegrees>
            </Position>
            <AltitudeMeters>541.20001220703125</AltitudeMeters>
            <DistanceMeters>NAN</DistanceMeters>
          </Trackpoint>
          <Trackpoint>
            <Time>2021-08-09T11:00:32.000Z</Time>
            <Position>
              <LatitudeDegrees>42.9993496835231781005859375</LatitudeDegrees>
              <LongitudeDegrees>-1.80265744216740131378173828125</LongitudeDegrees>
            </Position>
            <AltitudeMeters>541.20001220703125</AltitudeMeters>
            <DistanceMeters>NAN</DistanceMeters>
          </Trackpoint>
          <Trackpoint>
            <Time>2021-08-09T11:00:35.000Z</Time>
            <Position>
              <LatitudeDegrees>42.9993389546871185302734375</LatitudeDegrees>
              <LongitudeDegrees>-1.8026172928512096405029296875</LongitudeDegrees>
            </Position>
            <AltitudeMeters>541.20001220703125</AltitudeMeters>
            <DistanceMeters>NAN</DistanceMeters>
          </Trackpoint>
          <Trackpoint>
            <Time>2021-08-09T11:00:36.000Z</Time>
            <Position>
              <LatitudeDegrees>42.99933752976357936859130859375</LatitudeDegrees>
              <LongitudeDegrees>-1.8026067316532135009765625</LongitudeDegrees>
            </Position>
            <AltitudeMeters>541.20001220703125</AltitudeMeters>
            <DistanceMeters>NAN</DistanceMeters>
          </Trackpoint>
          <Trackpoint>
            <Time>2021-08-09T11:00:37.000Z</Time>
            <Position>
              <LatitudeDegrees>42.9993340931832790374755859375</LatitudeDegrees>
              <LongitudeDegrees>-1.802594661712646484375</LongitudeDegrees>
            </Position>
            <AltitudeMeters>541.20001220703125</AltitudeMeters>
            <DistanceMeters>NAN</DistanceMeters>
          </Trackpoint>
          <Trackpoint>
            <Time>2021-08-09T11:00:38.000Z</Time>
            <Position>
              <LatitudeDegrees>42.9993283934891223907470703125</LatitudeDegrees>
              <LongitudeDegrees>-1.8025827594101428985595703125</LongitudeDegrees>
            </Position>
            <AltitudeMeters>541</AltitudeMeters>
            <DistanceMeters>NAN</DistanceMeters>
          </Trackpoint>
          <Trackpoint>
            <Time>2021-08-09T11:00:39.000Z</Time>
            <Position>
              <LatitudeDegrees>42.9993226937949657440185546875</LatitudeDegrees>
              <LongitudeDegrees>-1.8025693483650684356689453125</LongitudeDegrees>
            </Position>
            <AltitudeMeters>541</AltitudeMeters>
            <DistanceMeters>NAN</DistanceMeters>
          </Trackpoint>
          <Trackpoint>
            <Time>2021-08-09T11:00:40.000Z</Time>
            <Position>
              <LatitudeDegrees>42.99931590445339679718017578125</LatitudeDegrees>
              <LongitudeDegrees>-1.802548058331012725830078125</LongitudeDegrees>
            </Position>
            <AltitudeMeters>540.79998779296875</AltitudeMeters>
            <DistanceMeters>NAN</DistanceMeters>
          </Trackpoint>
          <Trackpoint>
            <Time>2021-08-09T11:00:41.000Z</Time>
            <Position>
              <LatitudeDegrees>42.99931607209146022796630859375</LatitudeDegrees>
              <LongitudeDegrees>-1.80253623984754085540771484375</LongitudeDegrees>
            </Position>
            <AltitudeMeters>540.79998779296875</AltitudeMeters>
            <DistanceMeters>NAN</DistanceMeters>
          </Trackpoint>
          <Trackpoint>
            <Time>2021-08-09T11:00:42.000Z</Time>
            <Position>
              <LatitudeDegrees>42.99930743873119354248046875</LatitudeDegrees>
              <LongitudeDegrees>-1.80252500809729099273681640625</LongitudeDegrees>
            </Position>
            <AltitudeMeters>540.79998779296875</AltitudeMeters>
            <DistanceMeters>NAN</DistanceMeters>
          </Trackpoint>
          <Trackpoint>
            <Time>2021-08-09T11:00:43.000Z</Time>
            <Position>
              <LatitudeDegrees>42.99930014647543430328369140625</LatitudeDegrees>
              <LongitudeDegrees>-1.8025136925280094146728515625</LongitudeDegrees>
            </Position>
            <AltitudeMeters>540.79998779296875</AltitudeMeters>
            <DistanceMeters>NAN</DistanceMeters>
          </Trackpoint>
          <Trackpoint>
            <Time>2021-08-09T11:00:45.000Z</Time>
            <Position>
              <LatitudeDegrees>42.999286651611328125</LatitudeDegrees>
              <LongitudeDegrees>-1.80248812772333621978759765625</LongitudeDegrees>
            </Position>
            <AltitudeMeters>540.79998779296875</AltitudeMeters>
            <DistanceMeters>NAN</DistanceMeters>
          </Trackpoint>
          <Trackpoint>
            <Time>2021-08-09T11:00:46.000Z</Time>
            <Position>
              <LatitudeDegrees>42.99928925000131130218505859375</LatitudeDegrees>
              <LongitudeDegrees>-1.8024771474301815032958984375</LongitudeDegrees>
            </Position>
            <AltitudeMeters>540.5999755859375</AltitudeMeters>
            <DistanceMeters>NAN</DistanceMeters>
          </Trackpoint>
          <Trackpoint>
            <Time>2021-08-09T11:00:47.000Z</Time>
            <Position>
              <LatitudeDegrees>42.99929679371416568756103515625</LatitudeDegrees>
              <LongitudeDegrees>-1.802474968135356903076171875</LongitudeDegrees>
            </Position>
            <AltitudeMeters>540.5999755859375</AltitudeMeters>
            <DistanceMeters>NAN</DistanceMeters>
          </Trackpoint>
          <Trackpoint>
            <Time>2021-08-09T11:00:58.000Z</Time>
            <Position>
              <LatitudeDegrees>42.999313808977603912353515625</LatitudeDegrees>
              <LongitudeDegrees>-1.80247555486857891082763671875</LongitudeDegrees>
            </Position>
            <AltitudeMeters>540.4000244140625</AltitudeMeters>
            <DistanceMeters>NAN</DistanceMeters>
          </Trackpoint>
          <Trackpoint>
            <Time>2021-08-09T11:01:37.000Z</Time>
            <Position>
              <LatitudeDegrees>42.999357394874095916748046875</LatitudeDegrees>
              <LongitudeDegrees>-1.80244705639779567718505859375</LongitudeDegrees>
            </Position>
            <AltitudeMeters>541</AltitudeMeters>
            <DistanceMeters>NAN</DistanceMeters>
          </Trackpoint>
          <Trackpoint>
            <Time>2021-08-09T11:01:42.000Z</Time>
            <Position>
              <LatitudeDegrees>42.999359071254730224609375</LatitudeDegrees>
              <LongitudeDegrees>-1.80244646966457366943359375</LongitudeDegrees>
            </Position>
            <AltitudeMeters>541</AltitudeMeters>
            <DistanceMeters>NAN</DistanceMeters>
          </Trackpoint>
          <Trackpoint>
            <Time>2021-08-09T11:01:52.000Z</Time>
            <Position>
              <LatitudeDegrees>42.9993550479412078857421875</LatitudeDegrees>
              <LongitudeDegrees>-1.80244353599846363067626953125</LongitudeDegrees>
            </Position>
            <AltitudeMeters>540.5999755859375</AltitudeMeters>
            <DistanceMeters>NAN</DistanceMeters>
          </Trackpoint>
          <Trackpoint>
            <Time>2021-08-09T11:03:03.000Z</Time>
            <Position>
              <LatitudeDegrees>42.99935697577893733978271484375</LatitudeDegrees>
              <LongitudeDegrees>-1.8024308793246746063232421875</LongitudeDegrees>
            </Position>
            <AltitudeMeters>540.79998779296875</AltitudeMeters>
            <DistanceMeters>NAN</DistanceMeters>
          </Trackpoint>
          <Trackpoint>
            <Time>2021-08-09T11:03:31.000Z</Time>
            <Position>
              <LatitudeDegrees>42.9993578977882862091064453125</LatitudeDegrees>
              <LongitudeDegrees>-1.80243850685656070709228515625</LongitudeDegrees>
            </Position>
            <AltitudeMeters>540.4000244140625</AltitudeMeters>
            <DistanceMeters>NAN</DistanceMeters>
          </Trackpoint>
          <Trackpoint>
            <Time>2021-08-09T11:03:51.000Z</Time>
            <Position>
              <LatitudeDegrees>42.9993599094450473785400390625</LatitudeDegrees>
              <LongitudeDegrees>-1.8024292029440402984619140625</LongitudeDegrees>
            </Position>
            <AltitudeMeters>540.4000244140625</AltitudeMeters>
            <DistanceMeters>NAN</DistanceMeters>
          </Trackpoint>
          <Trackpoint>
            <Time>2021-08-09T11:03:59.000Z</Time>
            <Position>
              <LatitudeDegrees>42.99936200492084026336669921875</LatitudeDegrees>
              <LongitudeDegrees>-1.80243171751499176025390625</LongitudeDegrees>
            </Position>
            <AltitudeMeters>540</AltitudeMeters>
            <DistanceMeters>NAN</DistanceMeters>
          </Trackpoint>
          <Trackpoint>
            <Time>2021-08-09T11:04:20.000Z</Time>
            <Position>
              <LatitudeDegrees>42.999403662979602813720703125</LatitudeDegrees>
              <LongitudeDegrees>-1.80238989181816577911376953125</LongitudeDegrees>
            </Position>
            <AltitudeMeters>540.5999755859375</AltitudeMeters>
            <DistanceMeters>NAN</DistanceMeters>
          </Trackpoint>
          <Trackpoint>
            <Time>2021-08-09T11:04:21.000Z</Time>
            <Position>
              <LatitudeDegrees>42.99942419864237308502197265625</LatitudeDegrees>
              <LongitudeDegrees>-1.8023708648979663848876953125</LongitudeDegrees>
            </Position>
            <AltitudeMeters>540.4000244140625</AltitudeMeters>
            <DistanceMeters>NAN</DistanceMeters>
          </Trackpoint>
          <Trackpoint>
            <Time>2021-08-09T11:04:22.000Z</Time>
            <Position>
              <LatitudeDegrees>42.99944163300096988677978515625</LatitudeDegrees>
              <LongitudeDegrees>-1.80235301144421100616455078125</LongitudeDegrees>
            </Position>
            <AltitudeMeters>540.4000244140625</AltitudeMeters>
            <DistanceMeters>NAN</DistanceMeters>
          </Trackpoint>
          <Trackpoint>
            <Time>2021-08-09T11:04:25.000Z</Time>
            <Position>
              <LatitudeDegrees>42.9995101131498813629150390625</LatitudeDegrees>
              <LongitudeDegrees>-1.802287884056568145751953125</LongitudeDegrees>
            </Position>
            <AltitudeMeters>540.4000244140625</AltitudeMeters>
            <DistanceMeters>NAN</DistanceMeters>
          </Trackpoint>
          <Trackpoint>
            <Time>2021-08-09T11:04:28.000Z</Time>
            <Position>
              <LatitudeDegrees>42.9995761625468730926513671875</LatitudeDegrees>
              <LongitudeDegrees>-1.80222946219146251678466796875</LongitudeDegrees>
            </Position>
            <AltitudeMeters>540.4000244140625</AltitudeMeters>
            <DistanceMeters>NAN</DistanceMeters>
          </Trackpoint>
          <Trackpoint>
            <Time>2021-08-09T11:04:35.000Z</Time>
            <Position>
              <LatitudeDegrees>42.99974656663835048675537109375</LatitudeDegrees>
              <LongitudeDegrees>-1.80211010389029979705810546875</LongitudeDegrees>
            </Position>
            <AltitudeMeters>540.20001220703125</AltitudeMeters>
            <DistanceMeters>NAN</DistanceMeters>
          </Trackpoint>
          <Trackpoint>
            <Time>2021-08-09T11:04:37.000Z</Time>
            <Position>
              <LatitudeDegrees>42.999823093414306640625</LatitudeDegrees>
              <LongitudeDegrees>-1.8020543642342090606689453125</LongitudeDegrees>
            </Position>
            <AltitudeMeters>540.20001220703125</AltitudeMeters>
            <DistanceMeters>NAN</DistanceMeters>
          </Trackpoint>
          <Trackpoint>
            <Time>2021-08-09T11:04:41.000Z</Time>
            <Position>
              <LatitudeDegrees>42.9999637417495250701904296875</LatitudeDegrees>
              <LongitudeDegrees>-1.801952607929706573486328125</LongitudeDegrees>
            </Position>
            <AltitudeMeters>540</AltitudeMeters>
            <DistanceMeters>NAN</DistanceMeters>
          </Trackpoint>
          <Trackpoint>
            <Time>2021-08-09T11:04:46.000Z</Time>
            <Position>
              <LatitudeDegrees>43.00014085136353969573974609375</LatitudeDegrees>
              <LongitudeDegrees>-1.8018065951764583587646484375</LongitudeDegrees>
            </Position>
            <AltitudeMeters>540</AltitudeMeters>
            <DistanceMeters>NAN</DistanceMeters>
          </Trackpoint>
          <Trackpoint>
            <Time>2021-08-09T11:04:53.000Z</Time>
            <Position>
              <LatitudeDegrees>43.000349141657352447509765625</LatitudeDegrees>
              <LongitudeDegrees>-1.80149495601654052734375</LongitudeDegrees>
            </Position>
            <AltitudeMeters>540.20001220703125</AltitudeMeters>
            <DistanceMeters>NAN</DistanceMeters>
          </Trackpoint>
          <Trackpoint>
            <Time>2021-08-09T11:04:54.000Z</Time>
            <Position>
              <LatitudeDegrees>43.00037227571010589599609375</LatitudeDegrees>
              <LongitudeDegrees>-1.80144810117781162261962890625</LongitudeDegrees>
            </Position>
            <AltitudeMeters>540.4000244140625</AltitudeMeters>
            <DistanceMeters>NAN</DistanceMeters>
          </Trackpoint>
          <Trackpoint>
            <Time>2021-08-09T11:05:00.000Z</Time>
            <Position>
              <LatitudeDegrees>43.00049724988639354705810546875</LatitudeDegrees>
              <LongitudeDegrees>-1.8011139146983623504638671875</LongitudeDegrees>
            </Position>
            <AltitudeMeters>540.5999755859375</AltitudeMeters>
            <DistanceMeters>NAN</DistanceMeters>
          </Trackpoint>
          <Trackpoint>
            <Time>2021-08-09T11:05:09.000Z</Time>
            <Position>
              <LatitudeDegrees>43.0006741918623447418212890625</LatitudeDegrees>
              <LongitudeDegrees>-1.800584010779857635498046875</LongitudeDegrees>
            </Position>
            <AltitudeMeters>541.5999755859375</AltitudeMeters>
            <DistanceMeters>NAN</DistanceMeters>
          </Trackpoint>
          <Trackpoint>
            <Time>2021-08-09T11:05:10.000Z</Time>
            <Position>
              <LatitudeDegrees>43.0006899498403072357177734375</LatitudeDegrees>
              <LongitudeDegrees>-1.8005379103124141693115234375</LongitudeDegrees>
            </Position>
            <AltitudeMeters>541.5999755859375</AltitudeMeters>
            <DistanceMeters>NAN</DistanceMeters>
          </Trackpoint>
          <Trackpoint>
            <Time>2021-08-09T11:05:19.000Z</Time>
            <Position>
              <LatitudeDegrees>43.00088181160390377044677734375</LatitudeDegrees>
              <LongitudeDegrees>-1.79997556842863559722900390625</LongitudeDegrees>
            </Position>
            <AltitudeMeters>542.20001220703125</AltitudeMeters>
            <DistanceMeters>NAN</DistanceMeters>
          </Trackpoint>
          <Trackpoint>
            <Time>2021-08-09T11:05:24.000Z</Time>
            <Position>
              <LatitudeDegrees>43.000986836850643157958984375</LatitudeDegrees>
              <LongitudeDegrees>-1.79966761730611324310302734375</LongitudeDegrees>
            </Position>
            <AltitudeMeters>542.20001220703125</AltitudeMeters>
            <DistanceMeters>NAN</DistanceMeters>
          </Trackpoint>
          <Trackpoint>
            <Time>2021-08-09T11:05:25.000Z</Time>
            <Position>
              <LatitudeDegrees>43.00099781714379787445068359375</LatitudeDegrees>
              <LongitudeDegrees>-1.79962336085736751556396484375</LongitudeDegrees>
            </Position>
            <AltitudeMeters>542.20001220703125</AltitudeMeters>
            <DistanceMeters>NAN</DistanceMeters>
          </Trackpoint>
          <Trackpoint>
            <Time>2021-08-09T11:05:26.000Z</Time>
            <Position>
              <LatitudeDegrees>43.00100301392376422882080078125</LatitudeDegrees>
              <LongitudeDegrees>-1.79959134198725223541259765625</LongitudeDegrees>
            </Position>
            <AltitudeMeters>542.4000244140625</AltitudeMeters>
            <DistanceMeters>NAN</DistanceMeters>
          </Trackpoint>
          <Trackpoint>
            <Time>2021-08-09T11:05:27.000Z</Time>
            <Position>
              <LatitudeDegrees>43.00100259482860565185546875</LatitudeDegrees>
              <LongitudeDegrees>-1.79957206360995769500732421875</LongitudeDegrees>
            </Position>
            <AltitudeMeters>542.4000244140625</AltitudeMeters>
            <DistanceMeters>NAN</DistanceMeters>
          </Trackpoint>
          <Trackpoint>
            <Time>2021-08-09T11:05:28.000Z</Time>
            <Position>
              <LatitudeDegrees>43.0009980686008930206298828125</LatitudeDegrees>
              <LongitudeDegrees>-1.79954834282398223876953125</LongitudeDegrees>
            </Position>
            <AltitudeMeters>542.4000244140625</AltitudeMeters>
            <DistanceMeters>NAN</DistanceMeters>
          </Trackpoint>
          <Trackpoint>
            <Time>2021-08-09T11:05:29.000Z</Time>
            <Position>
              <LatitudeDegrees>43.0009913630783557891845703125</LatitudeDegrees>
              <LongitudeDegrees>-1.79952193982899188995361328125</LongitudeDegrees>
            </Position>
            <AltitudeMeters>542.4000244140625</AltitudeMeters>
            <DistanceMeters>NAN</DistanceMeters>
          </Trackpoint>
          <Trackpoint>
            <Time>2021-08-09T11:05:30.000Z</Time>
            <Position>
              <LatitudeDegrees>43.00098557956516742706298828125</LatitudeDegrees>
              <LongitudeDegrees>-1.79950215853750705718994140625</LongitudeDegrees>
            </Position>
            <AltitudeMeters>542.4000244140625</AltitudeMeters>
            <DistanceMeters>NAN</DistanceMeters>
          </Trackpoint>
          <Trackpoint>
            <Time>2021-08-09T11:05:32.000Z</Time>
            <Position>
              <LatitudeDegrees>43.000972755253314971923828125</LatitudeDegrees>
              <LongitudeDegrees>-1.79946829564869403839111328125</LongitudeDegrees>
            </Position>
            <AltitudeMeters>542.4000244140625</AltitudeMeters>
            <DistanceMeters>NAN</DistanceMeters>
          </Trackpoint>
          <Trackpoint>
            <Time>2021-08-09T11:05:33.000Z</Time>
            <Position>
              <LatitudeDegrees>43.0009725876152515411376953125</LatitudeDegrees>
              <LongitudeDegrees>-1.79946376942098140716552734375</LongitudeDegrees>
            </Position>
            <AltitudeMeters>542.20001220703125</AltitudeMeters>
            <DistanceMeters>NAN</DistanceMeters>
          </Trackpoint>
          <Trackpoint>
            <Time>2021-08-09T11:05:35.000Z</Time>
            <Position>
              <LatitudeDegrees>43.0009725876152515411376953125</LatitudeDegrees>
              <LongitudeDegrees>-1.79946376942098140716552734375</LongitudeDegrees>
            </Position>
            <AltitudeMeters>542</AltitudeMeters>
            <DistanceMeters>NAN</DistanceMeters>
          </Trackpoint>
          <Trackpoint>
            <Time>2021-08-09T11:05:57.000Z</Time>
            <Position>
              <LatitudeDegrees>43.0009618587791919708251953125</LatitudeDegrees>
              <LongitudeDegrees>-1.79944147355854511260986328125</LongitudeDegrees>
            </Position>
            <AltitudeMeters>542</AltitudeMeters>
            <DistanceMeters>NAN</DistanceMeters>
          </Trackpoint>
          <Trackpoint>
            <Time>2021-08-09T11:05:58.000Z</Time>
            <Position>
              <LatitudeDegrees>43.00095071084797382354736328125</LatitudeDegrees>
              <LongitudeDegrees>-1.7994200997054576873779296875</LongitudeDegrees>
            </Position>
            <AltitudeMeters>542</AltitudeMeters>
            <DistanceMeters>NAN</DistanceMeters>
          </Trackpoint>
          <Trackpoint>
            <Time>2021-08-09T11:05:59.000Z</Time>
            <Position>
              <LatitudeDegrees>43.00093822181224822998046875</LatitudeDegrees>
              <LongitudeDegrees>-1.7993855662643909454345703125</LongitudeDegrees>
            </Position>
            <AltitudeMeters>542</AltitudeMeters>
            <DistanceMeters>NAN</DistanceMeters>
          </Trackpoint>
          <Trackpoint>
            <Time>2021-08-09T11:06:03.000Z</Time>
            <Position>
              <LatitudeDegrees>43.00088030286133289337158203125</LatitudeDegrees>
              <LongitudeDegrees>-1.79924433119595050811767578125</LongitudeDegrees>
            </Position>
            <AltitudeMeters>542</AltitudeMeters>
            <DistanceMeters>NAN</DistanceMeters>
          </Trackpoint>
          <Trackpoint>
            <Time>2021-08-09T11:06:04.000Z</Time>
            <Position>
              <LatitudeDegrees>43.00086555071175098419189453125</LatitudeDegrees>
              <LongitudeDegrees>-1.79921449162065982818603515625</LongitudeDegrees>
            </Position>
            <AltitudeMeters>542</AltitudeMeters>
            <DistanceMeters>NAN</DistanceMeters>
          </Trackpoint>
          <Trackpoint>
            <Time>2021-08-09T11:06:05.000Z</Time>
            <Position>
              <LatitudeDegrees>43.000852726399898529052734375</LatitudeDegrees>
              <LongitudeDegrees>-1.7991887591779232025146484375</LongitudeDegrees>
            </Position>
            <AltitudeMeters>542</AltitudeMeters>
            <DistanceMeters>NAN</DistanceMeters>
          </Trackpoint>
          <Trackpoint>
            <Time>2021-08-09T11:06:06.000Z</Time>
            <Position>
              <LatitudeDegrees>43.00083906389772891998291015625</LatitudeDegrees>
              <LongitudeDegrees>-1.79915581829845905303955078125</LongitudeDegrees>
            </Position>
            <AltitudeMeters>542</AltitudeMeters>
            <DistanceMeters>NAN</DistanceMeters>
          </Trackpoint>
          <Trackpoint>
            <Time>2021-08-09T11:06:08.000Z</Time>
            <Position>
              <LatitudeDegrees>43.00080033950507640838623046875</LatitudeDegrees>
              <LongitudeDegrees>-1.7990888468921184539794921875</LongitudeDegrees>
            </Position>
            <AltitudeMeters>542</AltitudeMeters>
            <DistanceMeters>NAN</DistanceMeters>
          </Trackpoint>
          <Trackpoint>
            <Time>2021-08-09T11:06:10.000Z</Time>
            <Position>
              <LatitudeDegrees>43.0007482878863811492919921875</LatitudeDegrees>
              <LongitudeDegrees>-1.799049787223339080810546875</LongitudeDegrees>
            </Position>
            <AltitudeMeters>542</AltitudeMeters>
            <DistanceMeters>NAN</DistanceMeters>
          </Trackpoint>
          <Trackpoint>
            <Time>2021-08-09T11:06:11.000Z</Time>
            <Position>
              <LatitudeDegrees>43.00071383826434612274169921875</LatitudeDegrees>
              <LongitudeDegrees>-1.79903226904571056365966796875</LongitudeDegrees>
            </Position>
            <AltitudeMeters>541.79998779296875</AltitudeMeters>
            <DistanceMeters>NAN</DistanceMeters>
          </Trackpoint>
          <Trackpoint>
            <Time>2021-08-09T11:06:13.000Z</Time>
            <Position>
              <LatitudeDegrees>43.00064678303897380828857421875</LatitudeDegrees>
              <LongitudeDegrees>-1.79897703230381011962890625</LongitudeDegrees>
            </Position>
            <AltitudeMeters>541.5999755859375</AltitudeMeters>
            <DistanceMeters>NAN</DistanceMeters>
          </Trackpoint>
          <Trackpoint>
            <Time>2021-08-09T11:06:15.000Z</Time>
            <Position>
              <LatitudeDegrees>43.00059196539223194122314453125</LatitudeDegrees>
              <LongitudeDegrees>-1.79888759739696979522705078125</LongitudeDegrees>
            </Position>
            <AltitudeMeters>541.5999755859375</AltitudeMeters>
            <DistanceMeters>NAN</DistanceMeters>
          </Trackpoint>
          <Trackpoint>
            <Time>2021-08-09T11:06:16.000Z</Time>
            <Position>
              <LatitudeDegrees>43.0005647242069244384765625</LatitudeDegrees>
              <LongitudeDegrees>-1.7988404072821140289306640625</LongitudeDegrees>
            </Position>
            <AltitudeMeters>541.5999755859375</AltitudeMeters>
            <DistanceMeters>NAN</DistanceMeters>
          </Trackpoint>
          <Trackpoint>
            <Time>2021-08-09T11:06:17.000Z</Time>
            <Position>
              <LatitudeDegrees>43.0005419254302978515625</LatitudeDegrees>
              <LongitudeDegrees>-1.79881551302969455718994140625</LongitudeDegrees>
            </Position>
            <AltitudeMeters>541.5999755859375</AltitudeMeters>
            <DistanceMeters>NAN</DistanceMeters>
          </Trackpoint>
          <Trackpoint>
            <Time>2021-08-09T11:06:23.000Z</Time>
            <Position>
              <LatitudeDegrees>43.00032558850944042205810546875</LatitudeDegrees>
              <LongitudeDegrees>-1.79864452220499515533447265625</LongitudeDegrees>
            </Position>
            <AltitudeMeters>541.20001220703125</AltitudeMeters>
            <DistanceMeters>NAN</DistanceMeters>
          </Trackpoint>
          <Trackpoint>
            <Time>2021-08-09T11:06:24.000Z</Time>
            <Position>
              <LatitudeDegrees>43.00029507838189601898193359375</LatitudeDegrees>
              <LongitudeDegrees>-1.7986110784113407135009765625</LongitudeDegrees>
            </Position>
            <AltitudeMeters>541.20001220703125</AltitudeMeters>
            <DistanceMeters>NAN</DistanceMeters>
          </Trackpoint>
          <Trackpoint>
            <Time>2021-08-09T11:06:25.000Z</Time>
            <Position>
              <LatitudeDegrees>43.0002514086663722991943359375</LatitudeDegrees>
              <LongitudeDegrees>-1.79856087081134319305419921875</LongitudeDegrees>
            </Position>
            <AltitudeMeters>541.20001220703125</AltitudeMeters>
            <DistanceMeters>NAN</DistanceMeters>
          </Trackpoint>
          <Trackpoint>
            <Time>2021-08-09T11:06:26.000Z</Time>
            <Position>
              <LatitudeDegrees>43.0002202279865741729736328125</LatitudeDegrees>
              <LongitudeDegrees>-1.79852130822837352752685546875</LongitudeDegrees>
            </Position>
            <AltitudeMeters>541</AltitudeMeters>
            <DistanceMeters>NAN</DistanceMeters>
          </Trackpoint>
          <Trackpoint>
            <Time>2021-08-09T11:06:27.000Z</Time>
            <Position>
              <LatitudeDegrees>43.0001789890229701995849609375</LatitudeDegrees>
              <LongitudeDegrees>-1.7984843440353870391845703125</LongitudeDegrees>
            </Position>
            <AltitudeMeters>540.79998779296875</AltitudeMeters>
            <DistanceMeters>NAN</DistanceMeters>
          </Trackpoint>
          <Trackpoint>
            <Time>2021-08-09T11:06:31.000Z</Time>
            <Position>
              <LatitudeDegrees>43.000076897442340850830078125</LatitudeDegrees>
              <LongitudeDegrees>-1.79833539761602878570556640625</LongitudeDegrees>
            </Position>
            <AltitudeMeters>540.4000244140625</AltitudeMeters>
            <DistanceMeters>NAN</DistanceMeters>
          </Trackpoint>
          <Trackpoint>
            <Time>2021-08-09T11:06:32.000Z</Time>
            <Position>
              <LatitudeDegrees>43.00004378892481327056884765625</LatitudeDegrees>
              <LongitudeDegrees>-1.79826281033456325531005859375</LongitudeDegrees>
            </Position>
            <AltitudeMeters>540.4000244140625</AltitudeMeters>
            <DistanceMeters>NAN</DistanceMeters>
          </Trackpoint>
          <Trackpoint>
            <Time>2021-08-09T11:06:33.000Z</Time>
            <Position>
              <LatitudeDegrees>43.0000309646129608154296875</LatitudeDegrees>
              <LongitudeDegrees>-1.798214614391326904296875</LongitudeDegrees>
            </Position>
            <AltitudeMeters>540.4000244140625</AltitudeMeters>
            <DistanceMeters>NAN</DistanceMeters>
          </Trackpoint>
          <Trackpoint>
            <Time>2021-08-09T11:06:34.000Z</Time>
            <Position>
              <LatitudeDegrees>43.0000304616987705230712890625</LatitudeDegrees>
              <LongitudeDegrees>-1.79817211814224720001220703125</LongitudeDegrees>
            </Position>
            <AltitudeMeters>540.20001220703125</AltitudeMeters>
            <DistanceMeters>NAN</DistanceMeters>
          </Trackpoint>
          <Trackpoint>
            <Time>2021-08-09T11:06:35.000Z</Time>
            <Position>
              <LatitudeDegrees>43.00002627074718475341796875</LatitudeDegrees>
              <LongitudeDegrees>-1.7981274425983428955078125</LongitudeDegrees>
            </Position>
            <AltitudeMeters>540.20001220703125</AltitudeMeters>
            <DistanceMeters>NAN</DistanceMeters>
          </Trackpoint>
          <Trackpoint>
            <Time>2021-08-09T11:06:36.000Z</Time>
            <Position>
              <LatitudeDegrees>43.00002685748040676116943359375</LatitudeDegrees>
              <LongitudeDegrees>-1.79808729328215122222900390625</LongitudeDegrees>
            </Position>
            <AltitudeMeters>540.20001220703125</AltitudeMeters>
            <DistanceMeters>NAN</DistanceMeters>
          </Trackpoint>
          <Trackpoint>
            <Time>2021-08-09T11:06:37.000Z</Time>
            <Position>
              <LatitudeDegrees>43.00003322772681713104248046875</LatitudeDegrees>
              <LongitudeDegrees>-1.798062063753604888916015625</LongitudeDegrees>
            </Position>
            <AltitudeMeters>540.20001220703125</AltitudeMeters>
            <DistanceMeters>NAN</DistanceMeters>
          </Trackpoint>
          <Trackpoint>
            <Time>2021-08-09T11:06:38.000Z</Time>
            <Position>
              <LatitudeDegrees>43.00003456883132457733154296875</LatitudeDegrees>
              <LongitudeDegrees>-1.79801252670586109161376953125</LongitudeDegrees>
            </Position>
            <AltitudeMeters>540.20001220703125</AltitudeMeters>
            <DistanceMeters>NAN</DistanceMeters>
          </Trackpoint>
          <Trackpoint>
            <Time>2021-08-09T11:06:39.000Z</Time>
            <Position>
              <LatitudeDegrees>43.00003431737422943115234375</LatitudeDegrees>
              <LongitudeDegrees>-1.79797212593257427215576171875</LongitudeDegrees>
            </Position>
            <AltitudeMeters>540.20001220703125</AltitudeMeters>
            <DistanceMeters>NAN</DistanceMeters>
          </Trackpoint>
          <Trackpoint>
            <Time>2021-08-09T11:06:41.000Z</Time>
            <Position>
              <LatitudeDegrees>43.000017218291759490966796875</LatitudeDegrees>
              <LongitudeDegrees>-1.7978922463953495025634765625</LongitudeDegrees>
            </Position>
            <AltitudeMeters>540.20001220703125</AltitudeMeters>
            <DistanceMeters>NAN</DistanceMeters>
          </Trackpoint>
          <Trackpoint>
            <Time>2021-08-09T11:06:42.000Z</Time>
            <Position>
              <LatitudeDegrees>43.00002568401396274566650390625</LatitudeDegrees>
              <LongitudeDegrees>-1.79786802269518375396728515625</LongitudeDegrees>
            </Position>
            <AltitudeMeters>540.20001220703125</AltitudeMeters>
            <DistanceMeters>NAN</DistanceMeters>
          </Trackpoint>
          <Trackpoint>
            <Time>2021-08-09T11:06:43.000Z</Time>
            <Position>
              <LatitudeDegrees>43.00003825686872005462646484375</LatitudeDegrees>
              <LongitudeDegrees>-1.79783281870186328887939453125</LongitudeDegrees>
            </Position>
            <AltitudeMeters>540.20001220703125</AltitudeMeters>
            <DistanceMeters>NAN</DistanceMeters>
          </Trackpoint>
          <Trackpoint>
            <Time>2021-08-09T11:06:44.000Z</Time>
            <Position>
              <LatitudeDegrees>43.00004395656287670135498046875</LatitudeDegrees>
              <LongitudeDegrees>-1.79779996164143085479736328125</LongitudeDegrees>
            </Position>
            <AltitudeMeters>540.20001220703125</AltitudeMeters>
            <DistanceMeters>NAN</DistanceMeters>
          </Trackpoint>
          <Trackpoint>
            <Time>2021-08-09T11:06:45.000Z</Time>
            <Position>
              <LatitudeDegrees>43.00005015917122364044189453125</LatitudeDegrees>
              <LongitudeDegrees>-1.7977567948400974273681640625</LongitudeDegrees>
            </Position>
            <AltitudeMeters>540.4000244140625</AltitudeMeters>
            <DistanceMeters>NAN</DistanceMeters>
          </Trackpoint>
          <Trackpoint>
            <Time>2021-08-09T11:06:46.000Z</Time>
            <Position>
              <LatitudeDegrees>43.00005049444735050201416015625</LatitudeDegrees>
              <LongitudeDegrees>-1.79770968854427337646484375</LongitudeDegrees>
            </Position>
            <AltitudeMeters>540.4000244140625</AltitudeMeters>
            <DistanceMeters>NAN</DistanceMeters>
          </Trackpoint>
          <Trackpoint>
            <Time>2021-08-09T11:06:47.000Z</Time>
            <Position>
              <LatitudeDegrees>43.00005619414150714874267578125</LatitudeDegrees>
              <LongitudeDegrees>-1.7976780049502849578857421875</LongitudeDegrees>
            </Position>
            <AltitudeMeters>540.4000244140625</AltitudeMeters>
            <DistanceMeters>NAN</DistanceMeters>
          </Trackpoint>
          <Trackpoint>
            <Time>2021-08-09T11:06:49.000Z</Time>
            <Position>
              <LatitudeDegrees>43.00004680640995502471923828125</LatitudeDegrees>
              <LongitudeDegrees>-1.7976156435906887054443359375</LongitudeDegrees>
            </Position>
            <AltitudeMeters>540.4000244140625</AltitudeMeters>
            <DistanceMeters>NAN</DistanceMeters>
          </Trackpoint>
          <Trackpoint>
            <Time>2021-08-09T11:06:50.000Z</Time>
            <Position>
              <LatitudeDegrees>43.000034652650356292724609375</LatitudeDegrees>
              <LongitudeDegrees>-1.79757968522608280181884765625</LongitudeDegrees>
            </Position>
            <AltitudeMeters>540.5999755859375</AltitudeMeters>
            <DistanceMeters>NAN</DistanceMeters>
          </Trackpoint>
          <Trackpoint>
            <Time>2021-08-09T11:06:51.000Z</Time>
            <Position>
              <LatitudeDegrees>43.00002534873783588409423828125</LatitudeDegrees>
              <LongitudeDegrees>-1.79754515178501605987548828125</LongitudeDegrees>
            </Position>
            <AltitudeMeters>540.5999755859375</AltitudeMeters>
            <DistanceMeters>NAN</DistanceMeters>
          </Trackpoint>
          <Trackpoint>
            <Time>2021-08-09T11:06:52.000Z</Time>
            <Position>
              <LatitudeDegrees>43.00001646392047405242919921875</LatitudeDegrees>
              <LongitudeDegrees>-1.7975083552300930023193359375</LongitudeDegrees>
            </Position>
            <AltitudeMeters>540.5999755859375</AltitudeMeters>
            <DistanceMeters>NAN</DistanceMeters>
          </Trackpoint>
          <Trackpoint>
            <Time>2021-08-09T11:06:53.000Z</Time>
            <Position>
              <LatitudeDegrees>43.0000046454370021820068359375</LatitudeDegrees>
              <LongitudeDegrees>-1.79746686480939388275146484375</LongitudeDegrees>
            </Position>
            <AltitudeMeters>540.5999755859375</AltitudeMeters>
            <DistanceMeters>NAN</DistanceMeters>
          </Trackpoint>
          <Trackpoint>
            <Time>2021-08-09T11:06:56.000Z</Time>
            <Position>
              <LatitudeDegrees>42.99996986053884029388427734375</LatitudeDegrees>
              <LongitudeDegrees>-1.79732202552258968353271484375</LongitudeDegrees>
            </Position>
            <AltitudeMeters>540.5999755859375</AltitudeMeters>
            <DistanceMeters>NAN</DistanceMeters>
          </Trackpoint>
          <Trackpoint>
            <Time>2021-08-09T11:06:58.000Z</Time>
            <Position>
              <LatitudeDegrees>42.9999630711972713470458984375</LatitudeDegrees>
              <LongitudeDegrees>-1.79722563363611698150634765625</LongitudeDegrees>
            </Position>
            <AltitudeMeters>540.5999755859375</AltitudeMeters>
            <DistanceMeters>NAN</DistanceMeters>
          </Trackpoint>
          <Trackpoint>
            <Time>2021-08-09T11:07:00.000Z</Time>
            <Position>
              <LatitudeDegrees>42.999949157238006591796875</LatitudeDegrees>
              <LongitudeDegrees>-1.79714852012693881988525390625</LongitudeDegrees>
            </Position>
            <AltitudeMeters>540.4000244140625</AltitudeMeters>
            <DistanceMeters>NAN</DistanceMeters>
          </Trackpoint>
          <Trackpoint>
            <Time>2021-08-09T11:07:01.000Z</Time>
            <Position>
              <LatitudeDegrees>42.9999563656747341156005859375</LatitudeDegrees>
              <LongitudeDegrees>-1.7971130646765232086181640625</LongitudeDegrees>
            </Position>
            <AltitudeMeters>540.4000244140625</AltitudeMeters>
            <DistanceMeters>NAN</DistanceMeters>
          </Trackpoint>
          <Trackpoint>
            <Time>2021-08-09T11:07:02.000Z</Time>
            <Position>
              <LatitudeDegrees>42.999967597424983978271484375</LatitudeDegrees>
              <LongitudeDegrees>-1.797072328627109527587890625</LongitudeDegrees>
            </Position>
            <AltitudeMeters>540.4000244140625</AltitudeMeters>
            <DistanceMeters>NAN</DistanceMeters>
          </Trackpoint>
          <Trackpoint>
            <Time>2021-08-09T11:07:03.000Z</Time>
            <Position>
              <LatitudeDegrees>42.99998226575553417205810546875</LatitudeDegrees>
              <LongitudeDegrees>-1.79703402332961559295654296875</LongitudeDegrees>
            </Position>
            <AltitudeMeters>540.4000244140625</AltitudeMeters>
            <DistanceMeters>NAN</DistanceMeters>
          </Trackpoint>
          <Trackpoint>
            <Time>2021-08-09T11:07:04.000Z</Time>
            <Position>
              <LatitudeDegrees>42.999990396201610565185546875</LatitudeDegrees>
              <LongitudeDegrees>-1.79699680767953395843505859375</LongitudeDegrees>
            </Position>
            <AltitudeMeters>540.4000244140625</AltitudeMeters>
            <DistanceMeters>NAN</DistanceMeters>
          </Trackpoint>
          <Trackpoint>
            <Time>2021-08-09T11:07:05.000Z</Time>
            <Position>
              <LatitudeDegrees>43.0000029690563678741455078125</LatitudeDegrees>
              <LongitudeDegrees>-1.79696193896234035491943359375</LongitudeDegrees>
            </Position>
            <AltitudeMeters>540.20001220703125</AltitudeMeters>
            <DistanceMeters>NAN</DistanceMeters>
          </Trackpoint>
          <Trackpoint>
            <Time>2021-08-09T11:07:07.000Z</Time>
            <Position>
              <LatitudeDegrees>42.99999433569610118865966796875</LatitudeDegrees>
              <LongitudeDegrees>-1.79686638526618480682373046875</LongitudeDegrees>
            </Position>
            <AltitudeMeters>540.20001220703125</AltitudeMeters>
            <DistanceMeters>NAN</DistanceMeters>
          </Trackpoint>
          <Trackpoint>
            <Time>2021-08-09T11:07:08.000Z</Time>
            <Position>
              <LatitudeDegrees>42.99997941590845584869384765625</LatitudeDegrees>
              <LongitudeDegrees>-1.796817518770694732666015625</LongitudeDegrees>
            </Position>
            <AltitudeMeters>540.20001220703125</AltitudeMeters>
            <DistanceMeters>NAN</DistanceMeters>
          </Trackpoint>
          <Trackpoint>
            <Time>2021-08-09T11:07:09.000Z</Time>
            <Position>
              <LatitudeDegrees>42.999974973499774932861328125</LatitudeDegrees>
              <LongitudeDegrees>-1.79677267558872699737548828125</LongitudeDegrees>
            </Position>
            <AltitudeMeters>540</AltitudeMeters>
            <DistanceMeters>NAN</DistanceMeters>
          </Trackpoint>
          <Trackpoint>
            <Time>2021-08-09T11:07:12.000Z</Time>
            <Position>
              <LatitudeDegrees>42.99995326437056064605712890625</LatitudeDegrees>
              <LongitudeDegrees>-1.79664309136569499969482421875</LongitudeDegrees>
            </Position>
            <AltitudeMeters>540</AltitudeMeters>
            <DistanceMeters>NAN</DistanceMeters>
          </Trackpoint>
          <Trackpoint>
            <Time>2021-08-09T11:07:13.000Z</Time>
            <Position>
              <LatitudeDegrees>42.99994044005870819091796875</LatitudeDegrees>
              <LongitudeDegrees>-1.79660906083881855010986328125</LongitudeDegrees>
            </Position>
            <AltitudeMeters>540</AltitudeMeters>
            <DistanceMeters>NAN</DistanceMeters>
          </Trackpoint>
          <Trackpoint>
            <Time>2021-08-09T11:07:14.000Z</Time>
            <Position>
              <LatitudeDegrees>42.99991370178759098052978515625</LatitudeDegrees>
              <LongitudeDegrees>-1.79657000117003917694091796875</LongitudeDegrees>
            </Position>
            <AltitudeMeters>540</AltitudeMeters>
            <DistanceMeters>NAN</DistanceMeters>
          </Trackpoint>
          <Trackpoint>
            <Time>2021-08-09T11:07:15.000Z</Time>
            <Position>
              <LatitudeDegrees>42.999904565513134002685546875</LatitudeDegrees>
              <LongitudeDegrees>-1.7965343780815601348876953125</LongitudeDegrees>
            </Position>
            <AltitudeMeters>540</AltitudeMeters>
            <DistanceMeters>NAN</DistanceMeters>
          </Trackpoint>
          <Trackpoint>
            <Time>2021-08-09T11:07:18.000Z</Time>
            <Position>
              <LatitudeDegrees>42.9998970218002796173095703125</LatitudeDegrees>
              <LongitudeDegrees>-1.7964478768408298492431640625</LongitudeDegrees>
            </Position>
            <AltitudeMeters>540.5999755859375</AltitudeMeters>
            <DistanceMeters>NAN</DistanceMeters>
          </Trackpoint>
          <Trackpoint>
            <Time>2021-08-09T11:07:19.000Z</Time>
            <Position>
              <LatitudeDegrees>42.99987606704235076904296875</LatitudeDegrees>
              <LongitudeDegrees>-1.79641359485685825347900390625</LongitudeDegrees>
            </Position>
            <AltitudeMeters>540.5999755859375</AltitudeMeters>
            <DistanceMeters>NAN</DistanceMeters>
          </Trackpoint>
          <Trackpoint>
            <Time>2021-08-09T11:07:20.000Z</Time>
            <Position>
              <LatitudeDegrees>42.99987346865236759185791015625</LatitudeDegrees>
              <LongitudeDegrees>-1.7963905446231365203857421875</LongitudeDegrees>
            </Position>
            <AltitudeMeters>540.79998779296875</AltitudeMeters>
            <DistanceMeters>NAN</DistanceMeters>
          </Trackpoint>
          <Trackpoint>
            <Time>2021-08-09T11:07:21.000Z</Time>
            <Position>
              <LatitudeDegrees>42.9998728819191455841064453125</LatitudeDegrees>
              <LongitudeDegrees>-1.7963625490665435791015625</LongitudeDegrees>
            </Position>
            <AltitudeMeters>541</AltitudeMeters>
            <DistanceMeters>NAN</DistanceMeters>
          </Trackpoint>
          <Trackpoint>
            <Time>2021-08-09T11:07:22.000Z</Time>
            <Position>
              <LatitudeDegrees>42.9998933337628841400146484375</LatitudeDegrees>
              <LongitudeDegrees>-1.7963171191513538360595703125</LongitudeDegrees>
            </Position>
            <AltitudeMeters>541</AltitudeMeters>
            <DistanceMeters>NAN</DistanceMeters>
          </Trackpoint>
          <Trackpoint>
            <Time>2021-08-09T11:07:23.000Z</Time>
            <Position>
              <LatitudeDegrees>42.9999049007892608642578125</LatitudeDegrees>
              <LongitudeDegrees>-1.796293817460536956787109375</LongitudeDegrees>
            </Position>
            <AltitudeMeters>541.20001220703125</AltitudeMeters>
            <DistanceMeters>NAN</DistanceMeters>
          </Trackpoint>
          <Trackpoint>
            <Time>2021-08-09T11:07:24.000Z</Time>
            <Position>
              <LatitudeDegrees>42.9999194853007793426513671875</LatitudeDegrees>
              <LongitudeDegrees>-1.796261630952358245849609375</LongitudeDegrees>
            </Position>
            <AltitudeMeters>541.20001220703125</AltitudeMeters>
            <DistanceMeters>NAN</DistanceMeters>
          </Trackpoint>
          <Trackpoint>
            <Time>2021-08-09T11:07:25.000Z</Time>
            <Position>
              <LatitudeDegrees>42.9999325610697269439697265625</LatitudeDegrees>
              <LongitudeDegrees>-1.79623338393867015838623046875</LongitudeDegrees>
            </Position>
            <AltitudeMeters>541.4000244140625</AltitudeMeters>
            <DistanceMeters>NAN</DistanceMeters>
          </Trackpoint>
          <Trackpoint>
            <Time>2021-08-09T11:07:26.000Z</Time>
            <Position>
              <LatitudeDegrees>42.99995058216154575347900390625</LatitudeDegrees>
              <LongitudeDegrees>-1.79620438255369663238525390625</LongitudeDegrees>
            </Position>
            <AltitudeMeters>541.5999755859375</AltitudeMeters>
            <DistanceMeters>NAN</DistanceMeters>
          </Trackpoint>
          <Trackpoint>
            <Time>2021-08-09T11:07:27.000Z</Time>
            <Position>
              <LatitudeDegrees>42.999969609081745147705078125</LatitudeDegrees>
              <LongitudeDegrees>-1.79617253132164478302001953125</LongitudeDegrees>
            </Position>
            <AltitudeMeters>541.5999755859375</AltitudeMeters>
            <DistanceMeters>NAN</DistanceMeters>
          </Trackpoint>
          <Trackpoint>
            <Time>2021-08-09T11:07:28.000Z</Time>
            <Position>
              <LatitudeDegrees>42.99998142756521701812744140625</LatitudeDegrees>
              <LongitudeDegrees>-1.7961471341550350189208984375</LongitudeDegrees>
            </Position>
            <AltitudeMeters>541.79998779296875</AltitudeMeters>
            <DistanceMeters>NAN</DistanceMeters>
          </Trackpoint>
          <Trackpoint>
            <Time>2021-08-09T11:07:29.000Z</Time>
            <Position>
              <LatitudeDegrees>42.99999835900962352752685546875</LatitudeDegrees>
              <LongitudeDegrees>-1.796117126941680908203125</LongitudeDegrees>
            </Position>
            <AltitudeMeters>541.79998779296875</AltitudeMeters>
            <DistanceMeters>NAN</DistanceMeters>
          </Trackpoint>
          <Trackpoint>
            <Time>2021-08-09T11:07:36.000Z</Time>
            <Position>
              <LatitudeDegrees>43.00005954690277576446533203125</LatitudeDegrees>
              <LongitudeDegrees>-1.7959074117243289947509765625</LongitudeDegrees>
            </Position>
            <AltitudeMeters>541.79998779296875</AltitudeMeters>
            <DistanceMeters>NAN</DistanceMeters>
          </Trackpoint>
          <Trackpoint>
            <Time>2021-08-09T11:07:37.000Z</Time>
            <Position>
              <LatitudeDegrees>43.000048063695430755615234375</LatitudeDegrees>
              <LongitudeDegrees>-1.795861981809139251708984375</LongitudeDegrees>
            </Position>
            <AltitudeMeters>541.79998779296875</AltitudeMeters>
            <DistanceMeters>NAN</DistanceMeters>
          </Trackpoint>
          <Trackpoint>
            <Time>2021-08-09T11:07:39.000Z</Time>
            <Position>
              <LatitudeDegrees>42.99995762296020984649658203125</LatitudeDegrees>
              <LongitudeDegrees>-1.79573818109929561614990234375</LongitudeDegrees>
            </Position>
            <AltitudeMeters>541.4000244140625</AltitudeMeters>
            <DistanceMeters>NAN</DistanceMeters>
          </Trackpoint>
          <Trackpoint>
            <Time>2021-08-09T11:07:40.000Z</Time>
            <Position>
              <LatitudeDegrees>42.9999107681214809417724609375</LatitudeDegrees>
              <LongitudeDegrees>-1.795651428401470184326171875</LongitudeDegrees>
            </Position>
            <AltitudeMeters>541.20001220703125</AltitudeMeters>
            <DistanceMeters>NAN</DistanceMeters>
          </Trackpoint>
          <Trackpoint>
            <Time>2021-08-09T11:07:41.000Z</Time>
            <Position>
              <LatitudeDegrees>42.99985972233116626739501953125</LatitudeDegrees>
              <LongitudeDegrees>-1.7955614067614078521728515625</LongitudeDegrees>
            </Position>
            <AltitudeMeters>540.4000244140625</AltitudeMeters>
            <DistanceMeters>NAN</DistanceMeters>
          </Trackpoint>
          <Trackpoint>
            <Time>2021-08-09T11:07:42.000Z</Time>
            <Position>
              <LatitudeDegrees>42.99982770346105098724365234375</LatitudeDegrees>
              <LongitudeDegrees>-1.79548119194805622100830078125</LongitudeDegrees>
            </Position>
            <AltitudeMeters>540</AltitudeMeters>
            <DistanceMeters>NAN</DistanceMeters>
          </Trackpoint>
          <Trackpoint>
            <Time>2021-08-09T11:07:43.000Z</Time>
            <Position>
              <LatitudeDegrees>42.9998028092086315155029296875</LatitudeDegrees>
              <LongitudeDegrees>-1.79539225995540618896484375</LongitudeDegrees>
            </Position>
            <AltitudeMeters>539.20001220703125</AltitudeMeters>
            <DistanceMeters>NAN</DistanceMeters>
          </Trackpoint>
          <Trackpoint>
            <Time>2021-08-09T11:07:44.000Z</Time>
            <Position>
              <LatitudeDegrees>42.99977548420429229736328125</LatitudeDegrees>
              <LongitudeDegrees>-1.79530114866793155670166015625</LongitudeDegrees>
            </Position>
            <AltitudeMeters>538.4000244140625</AltitudeMeters>
            <DistanceMeters>NAN</DistanceMeters>
          </Trackpoint>
          <Trackpoint>
            <Time>2021-08-09T11:07:45.000Z</Time>
            <Position>
              <LatitudeDegrees>42.99974556080996990203857421875</LatitudeDegrees>
              <LongitudeDegrees>-1.79521330632269382476806640625</LongitudeDegrees>
            </Position>
            <AltitudeMeters>538</AltitudeMeters>
            <DistanceMeters>NAN</DistanceMeters>
          </Trackpoint>
          <Trackpoint>
            <Time>2021-08-09T11:07:46.000Z</Time>
            <Position>
              <LatitudeDegrees>42.9997230134904384613037109375</LatitudeDegrees>
              <LongitudeDegrees>-1.79512211121618747711181640625</LongitudeDegrees>
            </Position>
            <AltitudeMeters>537.5999755859375</AltitudeMeters>
            <DistanceMeters>NAN</DistanceMeters>
          </Trackpoint>
          <Trackpoint>
            <Time>2021-08-09T11:07:47.000Z</Time>
            <Position>
              <LatitudeDegrees>42.9996995441615581512451171875</LatitudeDegrees>
              <LongitudeDegrees>-1.795078776776790618896484375</LongitudeDegrees>
            </Position>
            <AltitudeMeters>537.4000244140625</AltitudeMeters>
            <DistanceMeters>NAN</DistanceMeters>
          </Trackpoint>
          <Trackpoint>
            <Time>2021-08-09T11:07:48.000Z</Time>
            <Position>
              <LatitudeDegrees>42.999676577746868133544921875</LatitudeDegrees>
              <LongitudeDegrees>-1.795028150081634521484375</LongitudeDegrees>
            </Position>
            <AltitudeMeters>537</AltitudeMeters>
            <DistanceMeters>NAN</DistanceMeters>
          </Trackpoint>
          <Trackpoint>
            <Time>2021-08-09T11:07:49.000Z</Time>
            <Position>
              <LatitudeDegrees>42.99965889193117618560791015625</LatitudeDegrees>
              <LongitudeDegrees>-1.79498448036611080169677734375</LongitudeDegrees>
            </Position>
            <AltitudeMeters>536.5999755859375</AltitudeMeters>
            <DistanceMeters>NAN</DistanceMeters>
          </Trackpoint>
          <Trackpoint>
            <Time>2021-08-09T11:07:50.000Z</Time>
            <Position>
              <LatitudeDegrees>42.99964866600930690765380859375</LatitudeDegrees>
              <LongitudeDegrees>-1.7949490249156951904296875</LongitudeDegrees>
            </Position>
            <AltitudeMeters>536.4000244140625</AltitudeMeters>
            <DistanceMeters>NAN</DistanceMeters>
          </Trackpoint>
          <Trackpoint>
            <Time>2021-08-09T11:07:51.000Z</Time>
            <Position>
              <LatitudeDegrees>42.99963877536356449127197265625</LatitudeDegrees>
              <LongitudeDegrees>-1.7949190177023410797119140625</LongitudeDegrees>
            </Position>
            <AltitudeMeters>536.20001220703125</AltitudeMeters>
            <DistanceMeters>NAN</DistanceMeters>
          </Trackpoint>
          <Trackpoint>
            <Time>2021-08-09T11:07:52.000Z</Time>
            <Position>
              <LatitudeDegrees>42.99963332712650299072265625</LatitudeDegrees>
              <LongitudeDegrees>-1.79489479400217533111572265625</LongitudeDegrees>
            </Position>
            <AltitudeMeters>536</AltitudeMeters>
            <DistanceMeters>NAN</DistanceMeters>
          </Trackpoint>
          <Trackpoint>
            <Time>2021-08-09T11:07:53.000Z</Time>
            <Position>
              <LatitudeDegrees>42.99962536431849002838134765625</LatitudeDegrees>
              <LongitudeDegrees>-1.7948757670819759368896484375</LongitudeDegrees>
            </Position>
            <AltitudeMeters>535.79998779296875</AltitudeMeters>
            <DistanceMeters>NAN</DistanceMeters>
          </Trackpoint>
          <Trackpoint>
            <Time>2021-08-09T11:07:54.000Z</Time>
            <Position>
              <LatitudeDegrees>42.99962259829044342041015625</LatitudeDegrees>
              <LongitudeDegrees>-1.79486788809299468994140625</LongitudeDegrees>
            </Position>
            <AltitudeMeters>535.5999755859375</AltitudeMeters>
            <DistanceMeters>NAN</DistanceMeters>
          </Trackpoint>
          <Trackpoint>
            <Time>2021-08-09T11:07:56.000Z</Time>
            <Position>
              <LatitudeDegrees>42.99962259829044342041015625</LatitudeDegrees>
              <LongitudeDegrees>-1.79486788809299468994140625</LongitudeDegrees>
            </Position>
            <AltitudeMeters>535.4000244140625</AltitudeMeters>
            <DistanceMeters>NAN</DistanceMeters>
          </Trackpoint>
          <Trackpoint>
            <Time>2021-08-09T11:07:59.000Z</Time>
            <Position>
              <LatitudeDegrees>42.99962083809077739715576171875</LatitudeDegrees>
              <LongitudeDegrees>-1.79486193694174289703369140625</LongitudeDegrees>
            </Position>
            <AltitudeMeters>535.20001220703125</AltitudeMeters>
            <DistanceMeters>NAN</DistanceMeters>
          </Trackpoint>
          <Trackpoint>
            <Time>2021-08-09T11:08:03.000Z</Time>
            <Position>
              <LatitudeDegrees>42.99961052834987640380859375</LatitudeDegrees>
              <LongitudeDegrees>-1.79481952451169490814208984375</LongitudeDegrees>
            </Position>
            <AltitudeMeters>535.20001220703125</AltitudeMeters>
            <DistanceMeters>NAN</DistanceMeters>
          </Trackpoint>
          <Trackpoint>
            <Time>2021-08-09T11:08:04.000Z</Time>
            <Position>
              <LatitudeDegrees>42.999613545835018157958984375</LatitudeDegrees>
              <LongitudeDegrees>-1.79481248371303081512451171875</LongitudeDegrees>
            </Position>
            <AltitudeMeters>535</AltitudeMeters>
            <DistanceMeters>NAN</DistanceMeters>
          </Trackpoint>
          <Trackpoint>
            <Time>2021-08-09T11:08:05.000Z</Time>
            <Position>
              <LatitudeDegrees>42.99961388111114501953125</LatitudeDegrees>
              <LongitudeDegrees>-1.7948087118566036224365234375</LongitudeDegrees>
            </Position>
            <AltitudeMeters>535</AltitudeMeters>
            <DistanceMeters>NAN</DistanceMeters>
          </Trackpoint>
          <Trackpoint>
            <Time>2021-08-09T11:08:06.000Z</Time>
            <Position>
              <LatitudeDegrees>42.99961388111114501953125</LatitudeDegrees>
              <LongitudeDegrees>-1.7948087118566036224365234375</LongitudeDegrees>
            </Position>
            <AltitudeMeters>535</AltitudeMeters>
            <DistanceMeters>NAN</DistanceMeters>
          </Trackpoint>
          <Trackpoint>
            <Time>2021-08-09T11:08:07.000Z</Time>
            <Position>
              <LatitudeDegrees>42.99961388111114501953125</LatitudeDegrees>
              <LongitudeDegrees>-1.7948087118566036224365234375</LongitudeDegrees>
            </Position>
            <AltitudeMeters>535</AltitudeMeters>
            <DistanceMeters>NAN</DistanceMeters>
          </Trackpoint>
          <Trackpoint>
            <Time>2021-08-09T11:08:08.000Z</Time>
            <Position>
              <LatitudeDegrees>42.99961388111114501953125</LatitudeDegrees>
              <LongitudeDegrees>-1.7948087118566036224365234375</LongitudeDegrees>
            </Position>
            <AltitudeMeters>535</AltitudeMeters>
            <DistanceMeters>NAN</DistanceMeters>
          </Trackpoint>
          <Trackpoint>
            <Time>2021-08-09T11:08:10.000Z</Time>
            <Position>
              <LatitudeDegrees>42.99961388111114501953125</LatitudeDegrees>
              <LongitudeDegrees>-1.7948087118566036224365234375</LongitudeDegrees>
            </Position>
            <AltitudeMeters>535</AltitudeMeters>
            <DistanceMeters>NAN</DistanceMeters>
          </Trackpoint>
          <Trackpoint>
            <Time>2021-08-09T11:08:14.000Z</Time>
            <Position>
              <LatitudeDegrees>42.99961161799728870391845703125</LatitudeDegrees>
              <LongitudeDegrees>-1.7948055267333984375</LongitudeDegrees>
            </Position>
            <AltitudeMeters>535</AltitudeMeters>
            <DistanceMeters>NAN</DistanceMeters>
          </Trackpoint>
          <Trackpoint>
            <Time>2021-08-09T11:08:20.000Z</Time>
            <Position>
              <LatitudeDegrees>42.99961161799728870391845703125</LatitudeDegrees>
              <LongitudeDegrees>-1.79479907266795635223388671875</LongitudeDegrees>
            </Position>
            <AltitudeMeters>535.4000244140625</AltitudeMeters>
            <DistanceMeters>NAN</DistanceMeters>
          </Trackpoint>
          <Trackpoint>
            <Time>2021-08-09T11:08:24.000Z</Time>
            <Position>
              <LatitudeDegrees>42.999608851969242095947265625</LatitudeDegrees>
              <LongitudeDegrees>-1.7947880923748016357421875</LongitudeDegrees>
            </Position>
            <AltitudeMeters>535.79998779296875</AltitudeMeters>
            <DistanceMeters>NAN</DistanceMeters>
          </Trackpoint>
          <Trackpoint>
            <Time>2021-08-09T11:08:31.000Z</Time>
            <Position>
              <LatitudeDegrees>42.99960826523602008819580078125</LatitudeDegrees>
              <LongitudeDegrees>-1.794783063232898712158203125</LongitudeDegrees>
            </Position>
            <AltitudeMeters>535.79998779296875</AltitudeMeters>
            <DistanceMeters>NAN</DistanceMeters>
          </Trackpoint>
          <Trackpoint>
            <Time>2021-08-09T11:08:54.000Z</Time>
            <Position>
              <LatitudeDegrees>42.9996026493608951568603515625</LatitudeDegrees>
              <LongitudeDegrees>-1.79473838768899440765380859375</LongitudeDegrees>
            </Position>
            <AltitudeMeters>535.4000244140625</AltitudeMeters>
            <DistanceMeters>NAN</DistanceMeters>
          </Trackpoint>
          <Trackpoint>
            <Time>2021-08-09T11:09:02.000Z</Time>
            <Position>
              <LatitudeDegrees>42.99960943870246410369873046875</LatitudeDegrees>
              <LongitudeDegrees>-1.79467502050101757049560546875</LongitudeDegrees>
            </Position>
            <AltitudeMeters>535.4000244140625</AltitudeMeters>
            <DistanceMeters>NAN</DistanceMeters>
          </Trackpoint>
          <Trackpoint>
            <Time>2021-08-09T11:09:03.000Z</Time>
            <Position>
              <LatitudeDegrees>42.99961094744503498077392578125</LatitudeDegrees>
              <LongitudeDegrees>-1.79466278292238712310791015625</LongitudeDegrees>
            </Position>
            <AltitudeMeters>535.4000244140625</AltitudeMeters>
            <DistanceMeters>NAN</DistanceMeters>
          </Trackpoint>
          <Trackpoint>
            <Time>2021-08-09T11:09:04.000Z</Time>
            <Position>
              <LatitudeDegrees>42.99961094744503498077392578125</LatitudeDegrees>
              <LongitudeDegrees>-1.79466278292238712310791015625</LongitudeDegrees>
            </Position>
            <AltitudeMeters>535.4000244140625</AltitudeMeters>
            <DistanceMeters>NAN</DistanceMeters>
          </Trackpoint>
          <Trackpoint>
            <Time>2021-08-09T11:09:20.000Z</Time>
            <Position>
              <LatitudeDegrees>42.999617569148540496826171875</LatitudeDegrees>
              <LongitudeDegrees>-1.79463461972773075103759765625</LongitudeDegrees>
            </Position>
            <AltitudeMeters>536</AltitudeMeters>
            <DistanceMeters>NAN</DistanceMeters>
          </Trackpoint>
          <Trackpoint>
            <Time>2021-08-09T11:09:22.000Z</Time>
            <Position>
              <LatitudeDegrees>42.99962385557591915130615234375</LatitudeDegrees>
              <LongitudeDegrees>-1.7945867590606212615966796875</LongitudeDegrees>
            </Position>
            <AltitudeMeters>536.20001220703125</AltitudeMeters>
            <DistanceMeters>NAN</DistanceMeters>
          </Trackpoint>
          <Trackpoint>
            <Time>2021-08-09T11:09:23.000Z</Time>
            <Position>
              <LatitudeDegrees>42.9996271245181560516357421875</LatitudeDegrees>
              <LongitudeDegrees>-1.7945627868175506591796875</LongitudeDegrees>
            </Position>
            <AltitudeMeters>536.20001220703125</AltitudeMeters>
            <DistanceMeters>NAN</DistanceMeters>
          </Trackpoint>
          <Trackpoint>
            <Time>2021-08-09T11:09:24.000Z</Time>
            <Position>
              <LatitudeDegrees>42.9996286332607269287109375</LatitudeDegrees>
              <LongitudeDegrees>-1.79454241879284381866455078125</LongitudeDegrees>
            </Position>
            <AltitudeMeters>536.20001220703125</AltitudeMeters>
            <DistanceMeters>NAN</DistanceMeters>
          </Trackpoint>
          <Trackpoint>
            <Time>2021-08-09T11:09:27.000Z</Time>
            <Position>
              <LatitudeDegrees>42.99964816309511661529541015625</LatitudeDegrees>
              <LongitudeDegrees>-1.7944757826626300811767578125</LongitudeDegrees>
            </Position>
            <AltitudeMeters>536.4000244140625</AltitudeMeters>
            <DistanceMeters>NAN</DistanceMeters>
          </Trackpoint>
          <Trackpoint>
            <Time>2021-08-09T11:09:29.000Z</Time>
            <Position>
              <LatitudeDegrees>42.99966014921665191650390625</LatitudeDegrees>
              <LongitudeDegrees>-1.79441861808300018310546875</LongitudeDegrees>
            </Position>
            <AltitudeMeters>536.20001220703125</AltitudeMeters>
            <DistanceMeters>NAN</DistanceMeters>
          </Trackpoint>
          <Trackpoint>
            <Time>2021-08-09T11:09:31.000Z</Time>
            <Position>
              <LatitudeDegrees>42.9996777512133121490478515625</LatitudeDegrees>
              <LongitudeDegrees>-1.79439045488834381103515625</LongitudeDegrees>
            </Position>
            <AltitudeMeters>536.5999755859375</AltitudeMeters>
            <DistanceMeters>NAN</DistanceMeters>
          </Trackpoint>
          <Trackpoint>
            <Time>2021-08-09T11:09:32.000Z</Time>
            <Position>
              <LatitudeDegrees>42.9996831156313419342041015625</LatitudeDegrees>
              <LongitudeDegrees>-1.794365979731082916259765625</LongitudeDegrees>
            </Position>
            <AltitudeMeters>536.4000244140625</AltitudeMeters>
            <DistanceMeters>NAN</DistanceMeters>
          </Trackpoint>
          <Trackpoint>
            <Time>2021-08-09T11:09:33.000Z</Time>
            <Position>
              <LatitudeDegrees>42.9996876418590545654296875</LatitudeDegrees>
              <LongitudeDegrees>-1.79433991201221942901611328125</LongitudeDegrees>
            </Position>
            <AltitudeMeters>536.4000244140625</AltitudeMeters>
            <DistanceMeters>NAN</DistanceMeters>
          </Trackpoint>
          <Trackpoint>
            <Time>2021-08-09T11:09:34.000Z</Time>
            <Position>
              <LatitudeDegrees>42.99969409592449665069580078125</LatitudeDegrees>
              <LongitudeDegrees>-1.79432331584393978118896484375</LongitudeDegrees>
            </Position>
            <AltitudeMeters>536.4000244140625</AltitudeMeters>
            <DistanceMeters>NAN</DistanceMeters>
          </Trackpoint>
          <Trackpoint>
            <Time>2021-08-09T11:09:37.000Z</Time>
            <Position>
              <LatitudeDegrees>42.99970717169344425201416015625</LatitudeDegrees>
              <LongitudeDegrees>-1.79426967166364192962646484375</LongitudeDegrees>
            </Position>
            <AltitudeMeters>536.5999755859375</AltitudeMeters>
            <DistanceMeters>NAN</DistanceMeters>
          </Trackpoint>
          <Trackpoint>
            <Time>2021-08-09T11:09:38.000Z</Time>
            <Position>
              <LatitudeDegrees>42.9997052438557147979736328125</LatitudeDegrees>
              <LongitudeDegrees>-1.7942410893738269805908203125</LongitudeDegrees>
            </Position>
            <AltitudeMeters>536.5999755859375</AltitudeMeters>
            <DistanceMeters>NAN</DistanceMeters>
          </Trackpoint>
          <Trackpoint>
            <Time>2021-08-09T11:09:39.000Z</Time>
            <Position>
              <LatitudeDegrees>42.99970574676990509033203125</LatitudeDegrees>
              <LongitudeDegrees>-1.794226504862308502197265625</LongitudeDegrees>
            </Position>
            <AltitudeMeters>536.5999755859375</AltitudeMeters>
            <DistanceMeters>NAN</DistanceMeters>
          </Trackpoint>
          <Trackpoint>
            <Time>2021-08-09T11:09:42.000Z</Time>
            <Position>
              <LatitudeDegrees>42.9997072555124759674072265625</LatitudeDegrees>
              <LongitudeDegrees>-1.794213764369487762451171875</LongitudeDegrees>
            </Position>
            <AltitudeMeters>536.79998779296875</AltitudeMeters>
            <DistanceMeters>NAN</DistanceMeters>
          </Trackpoint>
          <Trackpoint>
            <Time>2021-08-09T11:10:00.000Z</Time>
            <Position>
              <LatitudeDegrees>42.99971044063568115234375</LatitudeDegrees>
              <LongitudeDegrees>-1.7941830866038799285888671875</LongitudeDegrees>
            </Position>
            <AltitudeMeters>537</AltitudeMeters>
            <DistanceMeters>NAN</DistanceMeters>
          </Trackpoint>
          <Trackpoint>
            <Time>2021-08-09T11:10:04.000Z</Time>
            <Position>
              <LatitudeDegrees>42.99970331601798534393310546875</LatitudeDegrees>
              <LongitudeDegrees>-1.794062554836273193359375</LongitudeDegrees>
            </Position>
            <AltitudeMeters>537</AltitudeMeters>
            <DistanceMeters>NAN</DistanceMeters>
          </Trackpoint>
          <Trackpoint>
            <Time>2021-08-09T11:10:07.000Z</Time>
            <Position>
              <LatitudeDegrees>42.9996871389448642730712890625</LatitudeDegrees>
              <LongitudeDegrees>-1.793987117707729339599609375</LongitudeDegrees>
            </Position>
            <AltitudeMeters>537</AltitudeMeters>
            <DistanceMeters>NAN</DistanceMeters>
          </Trackpoint>
          <Trackpoint>
            <Time>2021-08-09T11:10:09.000Z</Time>
            <Position>
              <LatitudeDegrees>42.9996715486049652099609375</LatitudeDegrees>
              <LongitudeDegrees>-1.79393389262259006500244140625</LongitudeDegrees>
            </Position>
            <AltitudeMeters>537</AltitudeMeters>
            <DistanceMeters>NAN</DistanceMeters>
          </Trackpoint>
          <Trackpoint>
            <Time>2021-08-09T11:10:13.000Z</Time>
            <Position>
              <LatitudeDegrees>42.99963257275521755218505859375</LatitudeDegrees>
              <LongitudeDegrees>-1.79382157512009143829345703125</LongitudeDegrees>
            </Position>
            <AltitudeMeters>537</AltitudeMeters>
            <DistanceMeters>NAN</DistanceMeters>
          </Trackpoint>
          <Trackpoint>
            <Time>2021-08-09T11:10:15.000Z</Time>
            <Position>
              <LatitudeDegrees>42.99960784614086151123046875</LatitudeDegrees>
              <LongitudeDegrees>-1.7937178909778594970703125</LongitudeDegrees>
            </Position>
            <AltitudeMeters>537</AltitudeMeters>
            <DistanceMeters>NAN</DistanceMeters>
          </Trackpoint>
          <Trackpoint>
            <Time>2021-08-09T11:10:17.000Z</Time>
            <Position>
              <LatitudeDegrees>42.99961195327341556549072265625</LatitudeDegrees>
              <LongitudeDegrees>-1.79366064257919788360595703125</LongitudeDegrees>
            </Position>
            <AltitudeMeters>537.20001220703125</AltitudeMeters>
            <DistanceMeters>NAN</DistanceMeters>
          </Trackpoint>
          <Trackpoint>
            <Time>2021-08-09T11:10:18.000Z</Time>
            <Position>
              <LatitudeDegrees>42.9996140487492084503173828125</LatitudeDegrees>
              <LongitudeDegrees>-1.7936298809945583343505859375</LongitudeDegrees>
            </Position>
            <AltitudeMeters>537.20001220703125</AltitudeMeters>
            <DistanceMeters>NAN</DistanceMeters>
          </Trackpoint>
          <Trackpoint>
            <Time>2021-08-09T11:10:19.000Z</Time>
            <Position>
              <LatitudeDegrees>42.99962083809077739715576171875</LatitudeDegrees>
              <LongitudeDegrees>-1.79359006695449352264404296875</LongitudeDegrees>
            </Position>
            <AltitudeMeters>537.4000244140625</AltitudeMeters>
            <DistanceMeters>NAN</DistanceMeters>
          </Trackpoint>
          <Trackpoint>
            <Time>2021-08-09T11:10:20.000Z</Time>
            <Position>
              <LatitudeDegrees>42.9996378533542156219482421875</LatitudeDegrees>
              <LongitudeDegrees>-1.79355670697987079620361328125</LongitudeDegrees>
            </Position>
            <AltitudeMeters>537.4000244140625</AltitudeMeters>
            <DistanceMeters>NAN</DistanceMeters>
          </Trackpoint>
          <Trackpoint>
            <Time>2021-08-09T11:10:21.000Z</Time>
            <Position>
              <LatitudeDegrees>42.999648414552211761474609375</LatitudeDegrees>
              <LongitudeDegrees>-1.7935138754546642303466796875</LongitudeDegrees>
            </Position>
            <AltitudeMeters>537.4000244140625</AltitudeMeters>
            <DistanceMeters>NAN</DistanceMeters>
          </Trackpoint>
          <Trackpoint>
            <Time>2021-08-09T11:10:24.000Z</Time>
            <Position>
              <LatitudeDegrees>42.9996643401682376861572265625</LatitudeDegrees>
              <LongitudeDegrees>-1.79339895956218242645263671875</LongitudeDegrees>
            </Position>
            <AltitudeMeters>537.5999755859375</AltitudeMeters>
            <DistanceMeters>NAN</DistanceMeters>
          </Trackpoint>
          <Trackpoint>
            <Time>2021-08-09T11:10:26.000Z</Time>
            <Position>
              <LatitudeDegrees>42.999689318239688873291015625</LatitudeDegrees>
              <LongitudeDegrees>-1.79334179498255252838134765625</LongitudeDegrees>
            </Position>
            <AltitudeMeters>537.79998779296875</AltitudeMeters>
            <DistanceMeters>NAN</DistanceMeters>
          </Trackpoint>
          <Trackpoint>
            <Time>2021-08-09T11:10:28.000Z</Time>
            <Position>
              <LatitudeDegrees>42.9997028969228267669677734375</LatitudeDegrees>
              <LongitudeDegrees>-1.7932967841625213623046875</LongitudeDegrees>
            </Position>
            <AltitudeMeters>537.79998779296875</AltitudeMeters>
            <DistanceMeters>NAN</DistanceMeters>
          </Trackpoint>
          <Trackpoint>
            <Time>2021-08-09T11:10:29.000Z</Time>
            <Position>
              <LatitudeDegrees>42.9997112788259983062744140625</LatitudeDegrees>
              <LongitudeDegrees>-1.79326468147337436676025390625</LongitudeDegrees>
            </Position>
            <AltitudeMeters>537.79998779296875</AltitudeMeters>
            <DistanceMeters>NAN</DistanceMeters>
          </Trackpoint>
          <Trackpoint>
            <Time>2021-08-09T11:10:30.000Z</Time>
            <Position>
              <LatitudeDegrees>42.99972586333751678466796875</LatitudeDegrees>
              <LongitudeDegrees>-1.7932245321571826934814453125</LongitudeDegrees>
            </Position>
            <AltitudeMeters>538</AltitudeMeters>
            <DistanceMeters>NAN</DistanceMeters>
          </Trackpoint>
          <Trackpoint>
            <Time>2021-08-09T11:10:31.000Z</Time>
            <Position>
              <LatitudeDegrees>42.9997387714684009552001953125</LatitudeDegrees>
              <LongitudeDegrees>-1.79318991489708423614501953125</LongitudeDegrees>
            </Position>
            <AltitudeMeters>538</AltitudeMeters>
            <DistanceMeters>NAN</DistanceMeters>
          </Trackpoint>
          <Trackpoint>
            <Time>2021-08-09T11:10:32.000Z</Time>
            <Position>
              <LatitudeDegrees>42.99975511617958545684814453125</LatitudeDegrees>
              <LongitudeDegrees>-1.7931645177304744720458984375</LongitudeDegrees>
            </Position>
            <AltitudeMeters>538.20001220703125</AltitudeMeters>
            <DistanceMeters>NAN</DistanceMeters>
          </Trackpoint>
          <Trackpoint>
            <Time>2021-08-09T11:10:33.000Z</Time>
            <Position>
              <LatitudeDegrees>42.9997665993869304656982421875</LatitudeDegrees>
              <LongitudeDegrees>-1.79314297623932361602783203125</LongitudeDegrees>
            </Position>
            <AltitudeMeters>538.20001220703125</AltitudeMeters>
            <DistanceMeters>NAN</DistanceMeters>
          </Trackpoint>
          <Trackpoint>
            <Time>2021-08-09T11:10:36.000Z</Time>
            <Position>
              <LatitudeDegrees>42.99978562630712985992431640625</LatitudeDegrees>
              <LongitudeDegrees>-1.79303300566971302032470703125</LongitudeDegrees>
            </Position>
            <AltitudeMeters>538.20001220703125</AltitudeMeters>
            <DistanceMeters>NAN</DistanceMeters>
          </Trackpoint>
          <Trackpoint>
            <Time>2021-08-09T11:10:37.000Z</Time>
            <Position>
              <LatitudeDegrees>42.9997847042977809906005859375</LatitudeDegrees>
              <LongitudeDegrees>-1.79300509393215179443359375</LongitudeDegrees>
            </Position>
            <AltitudeMeters>538.20001220703125</AltitudeMeters>
            <DistanceMeters>NAN</DistanceMeters>
          </Trackpoint>
          <Trackpoint>
            <Time>2021-08-09T11:10:38.000Z</Time>
            <Position>
              <LatitudeDegrees>42.99978076480329036712646484375</LatitudeDegrees>
              <LongitudeDegrees>-1.7929791100323200225830078125</LongitudeDegrees>
            </Position>
            <AltitudeMeters>538.4000244140625</AltitudeMeters>
            <DistanceMeters>NAN</DistanceMeters>
          </Trackpoint>
          <Trackpoint>
            <Time>2021-08-09T11:10:39.000Z</Time>
            <Position>
              <LatitudeDegrees>42.999777831137180328369140625</LatitudeDegrees>
              <LongitudeDegrees>-1.792940385639667510986328125</LongitudeDegrees>
            </Position>
            <AltitudeMeters>538.4000244140625</AltitudeMeters>
            <DistanceMeters>NAN</DistanceMeters>
          </Trackpoint>
          <Trackpoint>
            <Time>2021-08-09T11:10:40.000Z</Time>
            <Position>
              <LatitudeDegrees>42.999763078987598419189453125</LatitudeDegrees>
              <LongitudeDegrees>-1.792909540235996246337890625</LongitudeDegrees>
            </Position>
            <AltitudeMeters>538.4000244140625</AltitudeMeters>
            <DistanceMeters>NAN</DistanceMeters>
          </Trackpoint>
          <Trackpoint>
            <Time>2021-08-09T11:10:41.000Z</Time>
            <Position>
              <LatitudeDegrees>42.9997478239238262176513671875</LatitudeDegrees>
              <LongitudeDegrees>-1.792877018451690673828125</LongitudeDegrees>
            </Position>
            <AltitudeMeters>538.4000244140625</AltitudeMeters>
            <DistanceMeters>NAN</DistanceMeters>
          </Trackpoint>
          <Trackpoint>
            <Time>2021-08-09T11:10:42.000Z</Time>
            <Position>
              <LatitudeDegrees>42.99973818473517894744873046875</LatitudeDegrees>
              <LongitudeDegrees>-1.79285162128508090972900390625</LongitudeDegrees>
            </Position>
            <AltitudeMeters>538.4000244140625</AltitudeMeters>
            <DistanceMeters>NAN</DistanceMeters>
          </Trackpoint>
          <Trackpoint>
            <Time>2021-08-09T11:10:45.000Z</Time>
            <Position>
              <LatitudeDegrees>42.99969577230513095855712890625</LatitudeDegrees>
              <LongitudeDegrees>-1.79276143200695514678955078125</LongitudeDegrees>
            </Position>
            <AltitudeMeters>538.4000244140625</AltitudeMeters>
            <DistanceMeters>NAN</DistanceMeters>
          </Trackpoint>
          <Trackpoint>
            <Time>2021-08-09T11:10:48.000Z</Time>
            <Position>
              <LatitudeDegrees>42.9996532760560512542724609375</LatitudeDegrees>
              <LongitudeDegrees>-1.79269068874418735504150390625</LongitudeDegrees>
            </Position>
            <AltitudeMeters>538.5999755859375</AltitudeMeters>
            <DistanceMeters>NAN</DistanceMeters>
          </Trackpoint>
          <Trackpoint>
            <Time>2021-08-09T11:10:51.000Z</Time>
            <Position>
              <LatitudeDegrees>42.999632656574249267578125</LatitudeDegrees>
              <LongitudeDegrees>-1.79260418750345706939697265625</LongitudeDegrees>
            </Position>
            <AltitudeMeters>539</AltitudeMeters>
            <DistanceMeters>NAN</DistanceMeters>
          </Trackpoint>
          <Trackpoint>
            <Time>2021-08-09T11:10:52.000Z</Time>
            <Position>
              <LatitudeDegrees>42.9996331594884395599365234375</LatitudeDegrees>
              <LongitudeDegrees>-1.79257468320429325103759765625</LongitudeDegrees>
            </Position>
            <AltitudeMeters>539.20001220703125</AltitudeMeters>
            <DistanceMeters>NAN</DistanceMeters>
          </Trackpoint>
          <Trackpoint>
            <Time>2021-08-09T11:10:53.000Z</Time>
            <Position>
              <LatitudeDegrees>42.9996361769735813140869140625</LatitudeDegrees>
              <LongitudeDegrees>-1.79254241287708282470703125</LongitudeDegrees>
            </Position>
            <AltitudeMeters>539.20001220703125</AltitudeMeters>
            <DistanceMeters>NAN</DistanceMeters>
          </Trackpoint>
          <Trackpoint>
            <Time>2021-08-09T11:10:54.000Z</Time>
            <Position>
              <LatitudeDegrees>42.9996361769735813140869140625</LatitudeDegrees>
              <LongitudeDegrees>-1.7925093881785869598388671875</LongitudeDegrees>
            </Position>
            <AltitudeMeters>539.20001220703125</AltitudeMeters>
            <DistanceMeters>NAN</DistanceMeters>
          </Trackpoint>
          <Trackpoint>
            <Time>2021-08-09T11:10:58.000Z</Time>
            <Position>
              <LatitudeDegrees>42.9996271245181560516357421875</LatitudeDegrees>
              <LongitudeDegrees>-1.79237904958426952362060546875</LongitudeDegrees>
            </Position>
            <AltitudeMeters>539.5999755859375</AltitudeMeters>
            <DistanceMeters>NAN</DistanceMeters>
          </Trackpoint>
          <Trackpoint>
            <Time>2021-08-09T11:10:59.000Z</Time>
            <Position>
              <LatitudeDegrees>42.9996231012046337127685546875</LatitudeDegrees>
              <LongitudeDegrees>-1.79234870709478855133056640625</LongitudeDegrees>
            </Position>
            <AltitudeMeters>539.79998779296875</AltitudeMeters>
            <DistanceMeters>NAN</DistanceMeters>
          </Trackpoint>
          <Trackpoint>
            <Time>2021-08-09T11:11:01.000Z</Time>
            <Position>
              <LatitudeDegrees>42.99961396493017673492431640625</LatitudeDegrees>
              <LongitudeDegrees>-1.7922882735729217529296875</LongitudeDegrees>
            </Position>
            <AltitudeMeters>540</AltitudeMeters>
            <DistanceMeters>NAN</DistanceMeters>
          </Trackpoint>
          <Trackpoint>
            <Time>2021-08-09T11:11:05.000Z</Time>
            <Position>
              <LatitudeDegrees>42.9995842091739177703857421875</LatitudeDegrees>
              <LongitudeDegrees>-1.7921487987041473388671875</LongitudeDegrees>
            </Position>
            <AltitudeMeters>541</AltitudeMeters>
            <DistanceMeters>NAN</DistanceMeters>
          </Trackpoint>
          <Trackpoint>
            <Time>2021-08-09T11:11:09.000Z</Time>
            <Position>
              <LatitudeDegrees>42.99954322166740894317626953125</LatitudeDegrees>
              <LongitudeDegrees>-1.79201946593821048736572265625</LongitudeDegrees>
            </Position>
            <AltitudeMeters>541.4000244140625</AltitudeMeters>
            <DistanceMeters>NAN</DistanceMeters>
          </Trackpoint>
          <Trackpoint>
            <Time>2021-08-09T11:11:10.000Z</Time>
            <Position>
              <LatitudeDegrees>42.99953048117458820343017578125</LatitudeDegrees>
              <LongitudeDegrees>-1.791991554200649261474609375</LongitudeDegrees>
            </Position>
            <AltitudeMeters>541.5999755859375</AltitudeMeters>
            <DistanceMeters>NAN</DistanceMeters>
          </Trackpoint>
          <Trackpoint>
            <Time>2021-08-09T11:11:11.000Z</Time>
            <Position>
              <LatitudeDegrees>42.99951673485338687896728515625</LatitudeDegrees>
              <LongitudeDegrees>-1.7919575236737728118896484375</LongitudeDegrees>
            </Position>
            <AltitudeMeters>542</AltitudeMeters>
            <DistanceMeters>NAN</DistanceMeters>
          </Trackpoint>
          <Trackpoint>
            <Time>2021-08-09T11:11:12.000Z</Time>
            <Position>
              <LatitudeDegrees>42.9995070956647396087646484375</LatitudeDegrees>
              <LongitudeDegrees>-1.7919266782701015472412109375</LongitudeDegrees>
            </Position>
            <AltitudeMeters>542.4000244140625</AltitudeMeters>
            <DistanceMeters>NAN</DistanceMeters>
          </Trackpoint>
          <Trackpoint>
            <Time>2021-08-09T11:11:13.000Z</Time>
            <Position>
              <LatitudeDegrees>42.99949661828577518463134765625</LatitudeDegrees>
              <LongitudeDegrees>-1.79189868271350860595703125</LongitudeDegrees>
            </Position>
            <AltitudeMeters>542.4000244140625</AltitudeMeters>
            <DistanceMeters>NAN</DistanceMeters>
          </Trackpoint>
          <Trackpoint>
            <Time>2021-08-09T11:11:14.000Z</Time>
            <Position>
              <LatitudeDegrees>42.9994806088507175445556640625</LatitudeDegrees>
              <LongitudeDegrees>-1.79186440072953701019287109375</LongitudeDegrees>
            </Position>
            <AltitudeMeters>542.5999755859375</AltitudeMeters>
            <DistanceMeters>NAN</DistanceMeters>
          </Trackpoint>
          <Trackpoint>
            <Time>2021-08-09T11:11:15.000Z</Time>
            <Position>
              <LatitudeDegrees>42.9994678683578968048095703125</LatitudeDegrees>
              <LongitudeDegrees>-1.79184009321033954620361328125</LongitudeDegrees>
            </Position>
            <AltitudeMeters>542.5999755859375</AltitudeMeters>
            <DistanceMeters>NAN</DistanceMeters>
          </Trackpoint>
          <Trackpoint>
            <Time>2021-08-09T11:11:16.000Z</Time>
            <Position>
              <LatitudeDegrees>42.99944959580898284912109375</LatitudeDegrees>
              <LongitudeDegrees>-1.7918056435883045196533203125</LongitudeDegrees>
            </Position>
            <AltitudeMeters>542.79998779296875</AltitudeMeters>
            <DistanceMeters>NAN</DistanceMeters>
          </Trackpoint>
          <Trackpoint>
            <Time>2021-08-09T11:11:17.000Z</Time>
            <Position>
              <LatitudeDegrees>42.999435849487781524658203125</LatitudeDegrees>
              <LongitudeDegrees>-1.79177454672753810882568359375</LongitudeDegrees>
            </Position>
            <AltitudeMeters>542.79998779296875</AltitudeMeters>
            <DistanceMeters>NAN</DistanceMeters>
          </Trackpoint>
          <Trackpoint>
            <Time>2021-08-09T11:11:18.000Z</Time>
            <Position>
              <LatitudeDegrees>42.99942076206207275390625</LatitudeDegrees>
              <LongitudeDegrees>-1.79174219258129596710205078125</LongitudeDegrees>
            </Position>
            <AltitudeMeters>543</AltitudeMeters>
            <DistanceMeters>NAN</DistanceMeters>
          </Trackpoint>
          <Trackpoint>
            <Time>2021-08-09T11:11:19.000Z</Time>
            <Position>
              <LatitudeDegrees>42.9994102008640766143798828125</LatitudeDegrees>
              <LongitudeDegrees>-1.79171025753021240234375</LongitudeDegrees>
            </Position>
            <AltitudeMeters>543.20001220703125</AltitudeMeters>
            <DistanceMeters>NAN</DistanceMeters>
          </Trackpoint>
          <Trackpoint>
            <Time>2021-08-09T11:11:20.000Z</Time>
            <Position>
              <LatitudeDegrees>42.99939989112317562103271484375</LatitudeDegrees>
              <LongitudeDegrees>-1.7916718684136867523193359375</LongitudeDegrees>
            </Position>
            <AltitudeMeters>543.20001220703125</AltitudeMeters>
            <DistanceMeters>NAN</DistanceMeters>
          </Trackpoint>
          <Trackpoint>
            <Time>2021-08-09T11:11:21.000Z</Time>
            <Position>
              <LatitudeDegrees>42.99939469434320926666259765625</LatitudeDegrees>
              <LongitudeDegrees>-1.79164412431418895721435546875</LongitudeDegrees>
            </Position>
            <AltitudeMeters>543.20001220703125</AltitudeMeters>
            <DistanceMeters>NAN</DistanceMeters>
          </Trackpoint>
          <Trackpoint>
            <Time>2021-08-09T11:11:22.000Z</Time>
            <Position>
              <LatitudeDegrees>42.999390251934528350830078125</LatitudeDegrees>
              <LongitudeDegrees>-1.79160942323505878448486328125</LongitudeDegrees>
            </Position>
            <AltitudeMeters>543.4000244140625</AltitudeMeters>
            <DistanceMeters>NAN</DistanceMeters>
          </Trackpoint>
          <Trackpoint>
            <Time>2021-08-09T11:11:23.000Z</Time>
            <Position>
              <LatitudeDegrees>42.99938212148845195770263671875</LatitudeDegrees>
              <LongitudeDegrees>-1.79157455451786518096923828125</LongitudeDegrees>
            </Position>
            <AltitudeMeters>543.4000244140625</AltitudeMeters>
            <DistanceMeters>NAN</DistanceMeters>
          </Trackpoint>
          <Trackpoint>
            <Time>2021-08-09T11:11:24.000Z</Time>
            <Position>
              <LatitudeDegrees>42.99937340430915355682373046875</LatitudeDegrees>
              <LongitudeDegrees>-1.791547648608684539794921875</LongitudeDegrees>
            </Position>
            <AltitudeMeters>543.4000244140625</AltitudeMeters>
            <DistanceMeters>NAN</DistanceMeters>
          </Trackpoint>
          <Trackpoint>
            <Time>2021-08-09T11:11:25.000Z</Time>
            <Position>
              <LatitudeDegrees>42.9993646033108234405517578125</LatitudeDegrees>
              <LongitudeDegrees>-1.79152174852788448333740234375</LongitudeDegrees>
            </Position>
            <AltitudeMeters>543.5999755859375</AltitudeMeters>
            <DistanceMeters>NAN</DistanceMeters>
          </Trackpoint>
          <Trackpoint>
            <Time>2021-08-09T11:11:26.000Z</Time>
            <Position>
              <LatitudeDegrees>42.99935261718928813934326171875</LatitudeDegrees>
              <LongitudeDegrees>-1.7914971895515918731689453125</LongitudeDegrees>
            </Position>
            <AltitudeMeters>543.5999755859375</AltitudeMeters>
            <DistanceMeters>NAN</DistanceMeters>
          </Trackpoint>
          <Trackpoint>
            <Time>2021-08-09T11:11:27.000Z</Time>
            <Position>
              <LatitudeDegrees>42.9993461631238460540771484375</LatitudeDegrees>
              <LongitudeDegrees>-1.791470535099506378173828125</LongitudeDegrees>
            </Position>
            <AltitudeMeters>543.79998779296875</AltitudeMeters>
            <DistanceMeters>NAN</DistanceMeters>
          </Trackpoint>
          <Trackpoint>
            <Time>2021-08-09T11:11:28.000Z</Time>
            <Position>
              <LatitudeDegrees>42.99933350645005702972412109375</LatitudeDegrees>
              <LongitudeDegrees>-1.79143474437296390533447265625</LongitudeDegrees>
            </Position>
            <AltitudeMeters>544</AltitudeMeters>
            <DistanceMeters>NAN</DistanceMeters>
          </Trackpoint>
          <Trackpoint>
            <Time>2021-08-09T11:11:29.000Z</Time>
            <Position>
              <LatitudeDegrees>42.99933266825973987579345703125</LatitudeDegrees>
              <LongitudeDegrees>-1.79141278378665447235107421875</LongitudeDegrees>
            </Position>
            <AltitudeMeters>544</AltitudeMeters>
            <DistanceMeters>NAN</DistanceMeters>
          </Trackpoint>
          <Trackpoint>
            <Time>2021-08-09T11:11:30.000Z</Time>
            <Position>
              <LatitudeDegrees>42.9993334226310253143310546875</LatitudeDegrees>
              <LongitudeDegrees>-1.7913816869258880615234375</LongitudeDegrees>
            </Position>
            <AltitudeMeters>544</AltitudeMeters>
            <DistanceMeters>NAN</DistanceMeters>
          </Trackpoint>
          <Trackpoint>
            <Time>2021-08-09T11:11:31.000Z</Time>
            <Position>
              <LatitudeDegrees>42.9993317462503910064697265625</LatitudeDegrees>
              <LongitudeDegrees>-1.791351176798343658447265625</LongitudeDegrees>
            </Position>
            <AltitudeMeters>544</AltitudeMeters>
            <DistanceMeters>NAN</DistanceMeters>
          </Trackpoint>
          <Trackpoint>
            <Time>2021-08-09T11:11:32.000Z</Time>
            <Position>
              <LatitudeDegrees>42.99931548535823822021484375</LatitudeDegrees>
              <LongitudeDegrees>-1.79130415432155132293701171875</LongitudeDegrees>
            </Position>
            <AltitudeMeters>544</AltitudeMeters>
            <DistanceMeters>NAN</DistanceMeters>
          </Trackpoint>
          <Trackpoint>
            <Time>2021-08-09T11:11:33.000Z</Time>
            <Position>
              <LatitudeDegrees>42.9993002302944660186767578125</LatitudeDegrees>
              <LongitudeDegrees>-1.7912608198821544647216796875</LongitudeDegrees>
            </Position>
            <AltitudeMeters>544</AltitudeMeters>
            <DistanceMeters>NAN</DistanceMeters>
          </Trackpoint>
          <Trackpoint>
            <Time>2021-08-09T11:11:34.000Z</Time>
            <Position>
              <LatitudeDegrees>42.999291680753231048583984375</LatitudeDegrees>
              <LongitudeDegrees>-1.79121882654726505279541015625</LongitudeDegrees>
            </Position>
            <AltitudeMeters>544.20001220703125</AltitudeMeters>
            <DistanceMeters>NAN</DistanceMeters>
          </Trackpoint>
          <Trackpoint>
            <Time>2021-08-09T11:11:35.000Z</Time>
            <Position>
              <LatitudeDegrees>42.9992874898016452789306640625</LatitudeDegrees>
              <LongitudeDegrees>-1.7911783419549465179443359375</LongitudeDegrees>
            </Position>
            <AltitudeMeters>544.20001220703125</AltitudeMeters>
            <DistanceMeters>NAN</DistanceMeters>
          </Trackpoint>
          <Trackpoint>
            <Time>2021-08-09T11:11:36.000Z</Time>
            <Position>
              <LatitudeDegrees>42.99929126165807247161865234375</LatitudeDegrees>
              <LongitudeDegrees>-1.791133247315883636474609375</LongitudeDegrees>
            </Position>
            <AltitudeMeters>544.20001220703125</AltitudeMeters>
            <DistanceMeters>NAN</DistanceMeters>
          </Trackpoint>
          <Trackpoint>
            <Time>2021-08-09T11:11:37.000Z</Time>
            <Position>
              <LatitudeDegrees>42.9992992244660854339599609375</LatitudeDegrees>
              <LongitudeDegrees>-1.79110030643641948699951171875</LongitudeDegrees>
            </Position>
            <AltitudeMeters>544.20001220703125</AltitudeMeters>
            <DistanceMeters>NAN</DistanceMeters>
          </Trackpoint>
          <Trackpoint>
            <Time>2021-08-09T11:11:38.000Z</Time>
            <Position>
              <LatitudeDegrees>42.99930534325540065765380859375</LatitudeDegrees>
              <LongitudeDegrees>-1.7910512723028659820556640625</LongitudeDegrees>
            </Position>
            <AltitudeMeters>544.20001220703125</AltitudeMeters>
            <DistanceMeters>NAN</DistanceMeters>
          </Trackpoint>
          <Trackpoint>
            <Time>2021-08-09T11:11:42.000Z</Time>
            <Position>
              <LatitudeDegrees>42.9993411339819431304931640625</LatitudeDegrees>
              <LongitudeDegrees>-1.79087676107883453369140625</LongitudeDegrees>
            </Position>
            <AltitudeMeters>544.20001220703125</AltitudeMeters>
            <DistanceMeters>NAN</DistanceMeters>
          </Trackpoint>
          <Trackpoint>
            <Time>2021-08-09T11:11:43.000Z</Time>
            <Position>
              <LatitudeDegrees>42.99935060553252696990966796875</LatitudeDegrees>
              <LongitudeDegrees>-1.79083610884845256805419921875</LongitudeDegrees>
            </Position>
            <AltitudeMeters>544.4000244140625</AltitudeMeters>
            <DistanceMeters>NAN</DistanceMeters>
          </Trackpoint>
          <Trackpoint>
            <Time>2021-08-09T11:11:44.000Z</Time>
            <Position>
              <LatitudeDegrees>42.999363429844379425048828125</LatitudeDegrees>
              <LongitudeDegrees>-1.7908050119876861572265625</LongitudeDegrees>
            </Position>
            <AltitudeMeters>544.4000244140625</AltitudeMeters>
            <DistanceMeters>NAN</DistanceMeters>
          </Trackpoint>
          <Trackpoint>
            <Time>2021-08-09T11:11:45.000Z</Time>
            <Position>
              <LatitudeDegrees>42.99937491305172443389892578125</LatitudeDegrees>
              <LongitudeDegrees>-1.790775842964649200439453125</LongitudeDegrees>
            </Position>
            <AltitudeMeters>544.5999755859375</AltitudeMeters>
            <DistanceMeters>NAN</DistanceMeters>
          </Trackpoint>
          <Trackpoint>
            <Time>2021-08-09T11:11:46.000Z</Time>
            <Position>
              <LatitudeDegrees>42.99937583506107330322265625</LatitudeDegrees>
              <LongitudeDegrees>-1.790738962590694427490234375</LongitudeDegrees>
            </Position>
            <AltitudeMeters>544.4000244140625</AltitudeMeters>
            <DistanceMeters>NAN</DistanceMeters>
          </Trackpoint>
          <Trackpoint>
            <Time>2021-08-09T11:11:47.000Z</Time>
            <Position>
              <LatitudeDegrees>42.999389581382274627685546875</LatitudeDegrees>
              <LongitudeDegrees>-1.7907025851309299468994140625</LongitudeDegrees>
            </Position>
            <AltitudeMeters>544.4000244140625</AltitudeMeters>
            <DistanceMeters>NAN</DistanceMeters>
          </Trackpoint>
          <Trackpoint>
            <Time>2021-08-09T11:11:49.000Z</Time>
            <Position>
              <LatitudeDegrees>42.99943618476390838623046875</LatitudeDegrees>
              <LongitudeDegrees>-1.79065137170255184173583984375</LongitudeDegrees>
            </Position>
            <AltitudeMeters>544.79998779296875</AltitudeMeters>
            <DistanceMeters>NAN</DistanceMeters>
          </Trackpoint>
          <Trackpoint>
            <Time>2021-08-09T11:11:50.000Z</Time>
            <Position>
              <LatitudeDegrees>42.9994623363018035888671875</LatitudeDegrees>
              <LongitudeDegrees>-1.79063578136265277862548828125</LongitudeDegrees>
            </Position>
            <AltitudeMeters>544.79998779296875</AltitudeMeters>
            <DistanceMeters>NAN</DistanceMeters>
          </Trackpoint>
          <Trackpoint>
            <Time>2021-08-09T11:11:51.000Z</Time>
            <Position>
              <LatitudeDegrees>42.99949117004871368408203125</LatitudeDegrees>
              <LongitudeDegrees>-1.79059605114161968231201171875</LongitudeDegrees>
            </Position>
            <AltitudeMeters>545</AltitudeMeters>
            <DistanceMeters>NAN</DistanceMeters>
          </Trackpoint>
          <Trackpoint>
            <Time>2021-08-09T11:11:53.000Z</Time>
            <Position>
              <LatitudeDegrees>42.9995198361575603485107421875</LatitudeDegrees>
              <LongitudeDegrees>-1.7905180156230926513671875</LongitudeDegrees>
            </Position>
            <AltitudeMeters>545.4000244140625</AltitudeMeters>
            <DistanceMeters>NAN</DistanceMeters>
          </Trackpoint>
          <Trackpoint>
            <Time>2021-08-09T11:11:54.000Z</Time>
            <Position>
              <LatitudeDegrees>42.9995352588593959808349609375</LatitudeDegrees>
              <LongitudeDegrees>-1.7904806323349475860595703125</LongitudeDegrees>
            </Position>
            <AltitudeMeters>545.4000244140625</AltitudeMeters>
            <DistanceMeters>NAN</DistanceMeters>
          </Trackpoint>
          <Trackpoint>
            <Time>2021-08-09T11:11:55.000Z</Time>
            <Position>
              <LatitudeDegrees>42.99955009482800960540771484375</LatitudeDegrees>
              <LongitudeDegrees>-1.79043444804847240447998046875</LongitudeDegrees>
            </Position>
            <AltitudeMeters>545.5999755859375</AltitudeMeters>
            <DistanceMeters>NAN</DistanceMeters>
          </Trackpoint>
          <Trackpoint>
            <Time>2021-08-09T11:11:57.000Z</Time>
            <Position>
              <LatitudeDegrees>42.999590076506137847900390625</LatitudeDegrees>
              <LongitudeDegrees>-1.79035373032093048095703125</LongitudeDegrees>
            </Position>
            <AltitudeMeters>545.5999755859375</AltitudeMeters>
            <DistanceMeters>NAN</DistanceMeters>
          </Trackpoint>
          <Trackpoint>
            <Time>2021-08-09T11:12:05.000Z</Time>
            <Position>
              <LatitudeDegrees>42.99976265989243984222412109375</LatitudeDegrees>
              <LongitudeDegrees>-1.79010772146284580230712890625</LongitudeDegrees>
            </Position>
            <AltitudeMeters>545.79998779296875</AltitudeMeters>
            <DistanceMeters>NAN</DistanceMeters>
          </Trackpoint>
          <Trackpoint>
            <Time>2021-08-09T11:12:07.000Z</Time>
            <Position>
              <LatitudeDegrees>42.999815046787261962890625</LatitudeDegrees>
              <LongitudeDegrees>-1.7900209687650203704833984375</LongitudeDegrees>
            </Position>
            <AltitudeMeters>545.5999755859375</AltitudeMeters>
            <DistanceMeters>NAN</DistanceMeters>
          </Trackpoint>
          <Trackpoint>
            <Time>2021-08-09T11:12:08.000Z</Time>
            <Position>
              <LatitudeDegrees>42.99983625300228595733642578125</LatitudeDegrees>
              <LongitudeDegrees>-1.7899827472865581512451171875</LongitudeDegrees>
            </Position>
            <AltitudeMeters>545.5999755859375</AltitudeMeters>
            <DistanceMeters>NAN</DistanceMeters>
          </Trackpoint>
          <Trackpoint>
            <Time>2021-08-09T11:12:11.000Z</Time>
            <Position>
              <LatitudeDegrees>42.99986802041530609130859375</LatitudeDegrees>
              <LongitudeDegrees>-1.78985760547220706939697265625</LongitudeDegrees>
            </Position>
            <AltitudeMeters>545.5999755859375</AltitudeMeters>
            <DistanceMeters>NAN</DistanceMeters>
          </Trackpoint>
          <Trackpoint>
            <Time>2021-08-09T11:12:13.000Z</Time>
            <Position>
              <LatitudeDegrees>42.99987732432782649993896484375</LatitudeDegrees>
              <LongitudeDegrees>-1.78977848030626773834228515625</LongitudeDegrees>
            </Position>
            <AltitudeMeters>545.5999755859375</AltitudeMeters>
            <DistanceMeters>NAN</DistanceMeters>
          </Trackpoint>
          <Trackpoint>
            <Time>2021-08-09T11:12:14.000Z</Time>
            <Position>
              <LatitudeDegrees>42.99987849779427051544189453125</LatitudeDegrees>
              <LongitudeDegrees>-1.78974042646586894989013671875</LongitudeDegrees>
            </Position>
            <AltitudeMeters>545.5999755859375</AltitudeMeters>
            <DistanceMeters>NAN</DistanceMeters>
          </Trackpoint>
          <Trackpoint>
            <Time>2021-08-09T11:12:15.000Z</Time>
            <Position>
              <LatitudeDegrees>42.9998755641281604766845703125</LatitudeDegrees>
              <LongitudeDegrees>-1.78970865905284881591796875</LongitudeDegrees>
            </Position>
            <AltitudeMeters>545.79998779296875</AltitudeMeters>
            <DistanceMeters>NAN</DistanceMeters>
          </Trackpoint>
          <Trackpoint>
            <Time>2021-08-09T11:12:16.000Z</Time>
            <Position>
              <LatitudeDegrees>42.9998762346804141998291015625</LatitudeDegrees>
              <LongitudeDegrees>-1.78967219777405261993408203125</LongitudeDegrees>
            </Position>
            <AltitudeMeters>546</AltitudeMeters>
            <DistanceMeters>NAN</DistanceMeters>
          </Trackpoint>
          <Trackpoint>
            <Time>2021-08-09T11:12:17.000Z</Time>
            <Position>
              <LatitudeDegrees>42.9998752288520336151123046875</LatitudeDegrees>
              <LongitudeDegrees>-1.78962961770594120025634765625</LongitudeDegrees>
            </Position>
            <AltitudeMeters>546</AltitudeMeters>
            <DistanceMeters>NAN</DistanceMeters>
          </Trackpoint>
          <Trackpoint>
            <Time>2021-08-09T11:12:18.000Z</Time>
            <Position>
              <LatitudeDegrees>42.99987430684268474578857421875</LatitudeDegrees>
              <LongitudeDegrees>-1.78959508426487445831298828125</LongitudeDegrees>
            </Position>
            <AltitudeMeters>546.20001220703125</AltitudeMeters>
            <DistanceMeters>NAN</DistanceMeters>
          </Trackpoint>
          <Trackpoint>
            <Time>2021-08-09T11:12:19.000Z</Time>
            <Position>
              <LatitudeDegrees>42.99987078644335269927978515625</LatitudeDegrees>
              <LongitudeDegrees>-1.78956038318574428558349609375</LongitudeDegrees>
            </Position>
            <AltitudeMeters>546.4000244140625</AltitudeMeters>
            <DistanceMeters>NAN</DistanceMeters>
          </Trackpoint>
          <Trackpoint>
            <Time>2021-08-09T11:12:20.000Z</Time>
            <Position>
              <LatitudeDegrees>42.99986391328275203704833984375</LatitudeDegrees>
              <LongitudeDegrees>-1.78953171707689762115478515625</LongitudeDegrees>
            </Position>
            <AltitudeMeters>546.4000244140625</AltitudeMeters>
            <DistanceMeters>NAN</DistanceMeters>
          </Trackpoint>
          <Trackpoint>
            <Time>2021-08-09T11:12:21.000Z</Time>
            <Position>
              <LatitudeDegrees>42.999854274094104766845703125</LatitudeDegrees>
              <LongitudeDegrees>-1.7894945852458477020263671875</LongitudeDegrees>
            </Position>
            <AltitudeMeters>546.79998779296875</AltitudeMeters>
            <DistanceMeters>NAN</DistanceMeters>
          </Trackpoint>
          <Trackpoint>
            <Time>2021-08-09T11:12:22.000Z</Time>
            <Position>
              <LatitudeDegrees>42.99985150806605815887451171875</LatitudeDegrees>
              <LongitudeDegrees>-1.78944672457873821258544921875</LongitudeDegrees>
            </Position>
            <AltitudeMeters>546.79998779296875</AltitudeMeters>
            <DistanceMeters>NAN</DistanceMeters>
          </Trackpoint>
          <Trackpoint>
            <Time>2021-08-09T11:12:23.000Z</Time>
            <Position>
              <LatitudeDegrees>42.99984497018158435821533203125</LatitudeDegrees>
              <LongitudeDegrees>-1.7894117720425128936767578125</LongitudeDegrees>
            </Position>
            <AltitudeMeters>547.20001220703125</AltitudeMeters>
            <DistanceMeters>NAN</DistanceMeters>
          </Trackpoint>
          <Trackpoint>
            <Time>2021-08-09T11:12:24.000Z</Time>
            <Position>
              <LatitudeDegrees>42.9998353309929370880126953125</LatitudeDegrees>
              <LongitudeDegrees>-1.78937950171530246734619140625</LongitudeDegrees>
            </Position>
            <AltitudeMeters>547.20001220703125</AltitudeMeters>
            <DistanceMeters>NAN</DistanceMeters>
          </Trackpoint>
          <Trackpoint>
            <Time>2021-08-09T11:12:25.000Z</Time>
            <Position>
              <LatitudeDegrees>42.99983323551714420318603515625</LatitudeDegrees>
              <LongitudeDegrees>-1.7893557809293270111083984375</LongitudeDegrees>
            </Position>
            <AltitudeMeters>547.4000244140625</AltitudeMeters>
            <DistanceMeters>NAN</DistanceMeters>
          </Trackpoint>
          <Trackpoint>
            <Time>2021-08-09T11:12:26.000Z</Time>
            <Position>
              <LatitudeDegrees>42.999829463660717010498046875</LatitudeDegrees>
              <LongitudeDegrees>-1.7893279530107975006103515625</LongitudeDegrees>
            </Position>
            <AltitudeMeters>547.5999755859375</AltitudeMeters>
            <DistanceMeters>NAN</DistanceMeters>
          </Trackpoint>
          <Trackpoint>
            <Time>2021-08-09T11:12:27.000Z</Time>
            <Position>
              <LatitudeDegrees>42.99981965683400630950927734375</LatitudeDegrees>
              <LongitudeDegrees>-1.78928294219076633453369140625</LongitudeDegrees>
            </Position>
            <AltitudeMeters>547.79998779296875</AltitudeMeters>
            <DistanceMeters>NAN</DistanceMeters>
          </Trackpoint>
          <Trackpoint>
            <Time>2021-08-09T11:12:28.000Z</Time>
            <Position>
              <LatitudeDegrees>42.99981730990111827850341796875</LatitudeDegrees>
              <LongitudeDegrees>-1.78924522362649440765380859375</LongitudeDegrees>
            </Position>
            <AltitudeMeters>548.20001220703125</AltitudeMeters>
            <DistanceMeters>NAN</DistanceMeters>
          </Trackpoint>
          <Trackpoint>
            <Time>2021-08-09T11:12:29.000Z</Time>
            <Position>
              <LatitudeDegrees>42.999812029302120208740234375</LatitudeDegrees>
              <LongitudeDegrees>-1.78921471349895000457763671875</LongitudeDegrees>
            </Position>
            <AltitudeMeters>548.4000244140625</AltitudeMeters>
            <DistanceMeters>NAN</DistanceMeters>
          </Trackpoint>
          <Trackpoint>
            <Time>2021-08-09T11:12:30.000Z</Time>
            <Position>
              <LatitudeDegrees>42.999805994331836700439453125</LatitudeDegrees>
              <LongitudeDegrees>-1.78918319754302501678466796875</LongitudeDegrees>
            </Position>
            <AltitudeMeters>548.5999755859375</AltitudeMeters>
            <DistanceMeters>NAN</DistanceMeters>
          </Trackpoint>
          <Trackpoint>
            <Time>2021-08-09T11:12:31.000Z</Time>
            <Position>
              <LatitudeDegrees>42.9998044855892658233642578125</LatitudeDegrees>
              <LongitudeDegrees>-1.7891606502234935760498046875</LongitudeDegrees>
            </Position>
            <AltitudeMeters>548.79998779296875</AltitudeMeters>
            <DistanceMeters>NAN</DistanceMeters>
          </Trackpoint>
          <Trackpoint>
            <Time>2021-08-09T11:12:32.000Z</Time>
            <Position>
              <LatitudeDegrees>42.99979954026639461517333984375</LatitudeDegrees>
              <LongitudeDegrees>-1.7891311459243297576904296875</LongitudeDegrees>
            </Position>
            <AltitudeMeters>549</AltitudeMeters>
            <DistanceMeters>NAN</DistanceMeters>
          </Trackpoint>
          <Trackpoint>
            <Time>2021-08-09T11:12:33.000Z</Time>
            <Position>
              <LatitudeDegrees>42.9998024739325046539306640625</LatitudeDegrees>
              <LongitudeDegrees>-1.78908714093267917633056640625</LongitudeDegrees>
            </Position>
            <AltitudeMeters>549.20001220703125</AltitudeMeters>
            <DistanceMeters>NAN</DistanceMeters>
          </Trackpoint>
          <Trackpoint>
            <Time>2021-08-09T11:12:34.000Z</Time>
            <Position>
              <LatitudeDegrees>42.9998028092086315155029296875</LatitudeDegrees>
              <LongitudeDegrees>-1.78904883563518524169921875</LongitudeDegrees>
            </Position>
            <AltitudeMeters>549.4000244140625</AltitudeMeters>
            <DistanceMeters>NAN</DistanceMeters>
          </Trackpoint>
          <Trackpoint>
            <Time>2021-08-09T11:12:35.000Z</Time>
            <Position>
              <LatitudeDegrees>42.9998011328279972076416015625</LatitudeDegrees>
              <LongitudeDegrees>-1.78901539184153079986572265625</LongitudeDegrees>
            </Position>
            <AltitudeMeters>549.5999755859375</AltitudeMeters>
            <DistanceMeters>NAN</DistanceMeters>
          </Trackpoint>
          <Trackpoint>
            <Time>2021-08-09T11:12:36.000Z</Time>
            <Position>
              <LatitudeDegrees>42.99979266710579395294189453125</LatitudeDegrees>
              <LongitudeDegrees>-1.7889946885406970977783203125</LongitudeDegrees>
            </Position>
            <AltitudeMeters>549.79998779296875</AltitudeMeters>
            <DistanceMeters>NAN</DistanceMeters>
          </Trackpoint>
          <Trackpoint>
            <Time>2021-08-09T11:12:37.000Z</Time>
            <Position>
              <LatitudeDegrees>42.99978026188910007476806640625</LatitudeDegrees>
              <LongitudeDegrees>-1.7889648489654064178466796875</LongitudeDegrees>
            </Position>
            <AltitudeMeters>550</AltitudeMeters>
            <DistanceMeters>NAN</DistanceMeters>
          </Trackpoint>
          <Trackpoint>
            <Time>2021-08-09T11:12:38.000Z</Time>
            <Position>
              <LatitudeDegrees>42.999775819480419158935546875</LatitudeDegrees>
              <LongitudeDegrees>-1.7889182455837726593017578125</LongitudeDegrees>
            </Position>
            <AltitudeMeters>550</AltitudeMeters>
            <DistanceMeters>NAN</DistanceMeters>
          </Trackpoint>
          <Trackpoint>
            <Time>2021-08-09T11:12:39.000Z</Time>
            <Position>
              <LatitudeDegrees>42.9997709579765796661376953125</LatitudeDegrees>
              <LongitudeDegrees>-1.7888847179710865020751953125</LongitudeDegrees>
            </Position>
            <AltitudeMeters>550.4000244140625</AltitudeMeters>
            <DistanceMeters>NAN</DistanceMeters>
          </Trackpoint>
          <Trackpoint>
            <Time>2021-08-09T11:12:40.000Z</Time>
            <Position>
              <LatitudeDegrees>42.9997627437114715576171875</LatitudeDegrees>
              <LongitudeDegrees>-1.788849346339702606201171875</LongitudeDegrees>
            </Position>
            <AltitudeMeters>550.5999755859375</AltitudeMeters>
            <DistanceMeters>NAN</DistanceMeters>
          </Trackpoint>
          <Trackpoint>
            <Time>2021-08-09T11:12:41.000Z</Time>
            <Position>
              <LatitudeDegrees>42.99976131878793239593505859375</LatitudeDegrees>
              <LongitudeDegrees>-1.788819171488285064697265625</LongitudeDegrees>
            </Position>
            <AltitudeMeters>550.5999755859375</AltitudeMeters>
            <DistanceMeters>NAN</DistanceMeters>
          </Trackpoint>
          <Trackpoint>
            <Time>2021-08-09T11:12:42.000Z</Time>
            <Position>
              <LatitudeDegrees>42.99976400099694728851318359375</LatitudeDegrees>
              <LongitudeDegrees>-1.78878606297075748443603515625</LongitudeDegrees>
            </Position>
            <AltitudeMeters>551</AltitudeMeters>
            <DistanceMeters>NAN</DistanceMeters>
          </Trackpoint>
          <Trackpoint>
            <Time>2021-08-09T11:12:43.000Z</Time>
            <Position>
              <LatitudeDegrees>42.9997733049094676971435546875</LatitudeDegrees>
              <LongitudeDegrees>-1.78874566219747066497802734375</LongitudeDegrees>
            </Position>
            <AltitudeMeters>551.20001220703125</AltitudeMeters>
            <DistanceMeters>NAN</DistanceMeters>
          </Trackpoint>
          <Trackpoint>
            <Time>2021-08-09T11:12:44.000Z</Time>
            <Position>
              <LatitudeDegrees>42.99977640621364116668701171875</LatitudeDegrees>
              <LongitudeDegrees>-1.7887086980044841766357421875</LongitudeDegrees>
            </Position>
            <AltitudeMeters>551.4000244140625</AltitudeMeters>
            <DistanceMeters>NAN</DistanceMeters>
          </Trackpoint>
          <Trackpoint>
            <Time>2021-08-09T11:12:45.000Z</Time>
            <Position>
              <LatitudeDegrees>42.9997672699391841888427734375</LatitudeDegrees>
              <LongitudeDegrees>-1.7886671237647533416748046875</LongitudeDegrees>
            </Position>
            <AltitudeMeters>551.5999755859375</AltitudeMeters>
            <DistanceMeters>NAN</DistanceMeters>
          </Trackpoint>
          <Trackpoint>
            <Time>2021-08-09T11:12:46.000Z</Time>
            <Position>
              <LatitudeDegrees>42.99976819194853305816650390625</LatitudeDegrees>
              <LongitudeDegrees>-1.78863300941884517669677734375</LongitudeDegrees>
            </Position>
            <AltitudeMeters>552</AltitudeMeters>
            <DistanceMeters>NAN</DistanceMeters>
          </Trackpoint>
          <Trackpoint>
            <Time>2021-08-09T11:12:47.000Z</Time>
            <Position>
              <LatitudeDegrees>42.99977280199527740478515625</LatitudeDegrees>
              <LongitudeDegrees>-1.78862881846725940704345703125</LongitudeDegrees>
            </Position>
            <AltitudeMeters>552.20001220703125</AltitudeMeters>
            <DistanceMeters>NAN</DistanceMeters>
          </Trackpoint>
          <Trackpoint>
            <Time>2021-08-09T11:12:48.000Z</Time>
            <Position>
              <LatitudeDegrees>42.9997763223946094512939453125</LatitudeDegrees>
              <LongitudeDegrees>-1.7886134795844554901123046875</LongitudeDegrees>
            </Position>
            <AltitudeMeters>552.20001220703125</AltitudeMeters>
            <DistanceMeters>NAN</DistanceMeters>
          </Trackpoint>
          <Trackpoint>
            <Time>2021-08-09T11:12:49.000Z</Time>
            <Position>
              <LatitudeDegrees>42.99977774731814861297607421875</LatitudeDegrees>
              <LongitudeDegrees>-1.78857500664889812469482421875</LongitudeDegrees>
            </Position>
            <AltitudeMeters>552.4000244140625</AltitudeMeters>
            <DistanceMeters>NAN</DistanceMeters>
          </Trackpoint>
          <Trackpoint>
            <Time>2021-08-09T11:12:50.000Z</Time>
            <Position>
              <LatitudeDegrees>42.99977104179561138153076171875</LatitudeDegrees>
              <LongitudeDegrees>-1.7885464243590831756591796875</LongitudeDegrees>
            </Position>
            <AltitudeMeters>552.5999755859375</AltitudeMeters>
            <DistanceMeters>NAN</DistanceMeters>
          </Trackpoint>
          <Trackpoint>
            <Time>2021-08-09T11:12:51.000Z</Time>
            <Position>
              <LatitudeDegrees>42.99976400099694728851318359375</LatitudeDegrees>
              <LongitudeDegrees>-1.78851851262152194976806640625</LongitudeDegrees>
            </Position>
            <AltitudeMeters>553</AltitudeMeters>
            <DistanceMeters>NAN</DistanceMeters>
          </Trackpoint>
          <Trackpoint>
            <Time>2021-08-09T11:12:52.000Z</Time>
            <Position>
              <LatitudeDegrees>42.99975830130279064178466796875</LatitudeDegrees>
              <LongitudeDegrees>-1.7884917743504047393798828125</LongitudeDegrees>
            </Position>
            <AltitudeMeters>553.20001220703125</AltitudeMeters>
            <DistanceMeters>NAN</DistanceMeters>
          </Trackpoint>
          <Trackpoint>
            <Time>2021-08-09T11:12:53.000Z</Time>
            <Position>
              <LatitudeDegrees>42.99976165406405925750732421875</LatitudeDegrees>
              <LongitudeDegrees>-1.7884575761854648590087890625</LongitudeDegrees>
            </Position>
            <AltitudeMeters>553.4000244140625</AltitudeMeters>
            <DistanceMeters>NAN</DistanceMeters>
          </Trackpoint>
          <Trackpoint>
            <Time>2021-08-09T11:12:54.000Z</Time>
            <Position>
              <LatitudeDegrees>42.99976366572082042694091796875</LatitudeDegrees>
              <LongitudeDegrees>-1.788430251181125640869140625</LongitudeDegrees>
            </Position>
            <AltitudeMeters>553.5999755859375</AltitudeMeters>
            <DistanceMeters>NAN</DistanceMeters>
          </Trackpoint>
          <Trackpoint>
            <Time>2021-08-09T11:12:55.000Z</Time>
            <Position>
              <LatitudeDegrees>42.99976408481597900390625</LatitudeDegrees>
              <LongitudeDegrees>-1.78840401582419872283935546875</LongitudeDegrees>
            </Position>
            <AltitudeMeters>554</AltitudeMeters>
            <DistanceMeters>NAN</DistanceMeters>
          </Trackpoint>
          <Trackpoint>
            <Time>2021-08-09T11:12:56.000Z</Time>
            <Position>
              <LatitudeDegrees>42.99976341426372528076171875</LatitudeDegrees>
              <LongitudeDegrees>-1.7883720807731151580810546875</LongitudeDegrees>
            </Position>
            <AltitudeMeters>554.20001220703125</AltitudeMeters>
            <DistanceMeters>NAN</DistanceMeters>
          </Trackpoint>
          <Trackpoint>
            <Time>2021-08-09T11:12:57.000Z</Time>
            <Position>
              <LatitudeDegrees>42.9997632466256618499755859375</LatitudeDegrees>
              <LongitudeDegrees>-1.7883449234068393707275390625</LongitudeDegrees>
            </Position>
            <AltitudeMeters>554.20001220703125</AltitudeMeters>
            <DistanceMeters>NAN</DistanceMeters>
          </Trackpoint>
          <Trackpoint>
            <Time>2021-08-09T11:12:58.000Z</Time>
            <Position>
              <LatitudeDegrees>42.99976408481597900390625</LatitudeDegrees>
              <LongitudeDegrees>-1.78831818513572216033935546875</LongitudeDegrees>
            </Position>
            <AltitudeMeters>554.5999755859375</AltitudeMeters>
            <DistanceMeters>NAN</DistanceMeters>
          </Trackpoint>
          <Trackpoint>
            <Time>2021-08-09T11:12:59.000Z</Time>
            <Position>
              <LatitudeDegrees>42.99976366572082042694091796875</LatitudeDegrees>
              <LongitudeDegrees>-1.78828985430300235748291015625</LongitudeDegrees>
            </Position>
            <AltitudeMeters>554.79998779296875</AltitudeMeters>
            <DistanceMeters>NAN</DistanceMeters>
          </Trackpoint>
          <Trackpoint>
            <Time>2021-08-09T11:13:00.000Z</Time>
            <Position>
              <LatitudeDegrees>42.999761737883090972900390625</LatitudeDegrees>
              <LongitudeDegrees>-1.78826252929866313934326171875</LongitudeDegrees>
            </Position>
            <AltitudeMeters>555.20001220703125</AltitudeMeters>
            <DistanceMeters>NAN</DistanceMeters>
          </Trackpoint>
          <Trackpoint>
            <Time>2021-08-09T11:13:01.000Z</Time>
            <Position>
              <LatitudeDegrees>42.99975830130279064178466796875</LatitudeDegrees>
              <LongitudeDegrees>-1.7882352881133556365966796875</LongitudeDegrees>
            </Position>
            <AltitudeMeters>555.4000244140625</AltitudeMeters>
            <DistanceMeters>NAN</DistanceMeters>
          </Trackpoint>
          <Trackpoint>
            <Time>2021-08-09T11:13:02.000Z</Time>
            <Position>
              <LatitudeDegrees>42.99975427798926830291748046875</LatitudeDegrees>
              <LongitudeDegrees>-1.78821072913706302642822265625</LongitudeDegrees>
            </Position>
            <AltitudeMeters>555.79998779296875</AltitudeMeters>
            <DistanceMeters>NAN</DistanceMeters>
          </Trackpoint>
          <Trackpoint>
            <Time>2021-08-09T11:13:03.000Z</Time>
            <Position>
              <LatitudeDegrees>42.99974824301898479461669921875</LatitudeDegrees>
              <LongitudeDegrees>-1.78818457759916782379150390625</LongitudeDegrees>
            </Position>
            <AltitudeMeters>556</AltitudeMeters>
            <DistanceMeters>NAN</DistanceMeters>
          </Trackpoint>
          <Trackpoint>
            <Time>2021-08-09T11:13:04.000Z</Time>
            <Position>
              <LatitudeDegrees>42.999742962419986724853515625</LatitudeDegrees>
              <LongitudeDegrees>-1.78815255872905254364013671875</LongitudeDegrees>
            </Position>
            <AltitudeMeters>556.20001220703125</AltitudeMeters>
            <DistanceMeters>NAN</DistanceMeters>
          </Trackpoint>
          <Trackpoint>
            <Time>2021-08-09T11:13:05.000Z</Time>
            <Position>
              <LatitudeDegrees>42.9997411184012889862060546875</LatitudeDegrees>
              <LongitudeDegrees>-1.788120456039905548095703125</LongitudeDegrees>
            </Position>
            <AltitudeMeters>556.4000244140625</AltitudeMeters>
            <DistanceMeters>NAN</DistanceMeters>
          </Trackpoint>
          <Trackpoint>
            <Time>2021-08-09T11:13:06.000Z</Time>
            <Position>
              <LatitudeDegrees>42.99972854554653167724609375</LatitudeDegrees>
              <LongitudeDegrees>-1.78808868862688541412353515625</LongitudeDegrees>
            </Position>
            <AltitudeMeters>556.4000244140625</AltitudeMeters>
            <DistanceMeters>NAN</DistanceMeters>
          </Trackpoint>
          <Trackpoint>
            <Time>2021-08-09T11:13:07.000Z</Time>
            <Position>
              <LatitudeDegrees>42.999718487262725830078125</LatitudeDegrees>
              <LongitudeDegrees>-1.78805214352905750274658203125</LongitudeDegrees>
            </Position>
            <AltitudeMeters>557</AltitudeMeters>
            <DistanceMeters>NAN</DistanceMeters>
          </Trackpoint>
          <Trackpoint>
            <Time>2021-08-09T11:13:08.000Z</Time>
            <Position>
              <LatitudeDegrees>42.999709434807300567626953125</LatitudeDegrees>
              <LongitudeDegrees>-1.78802045993506908416748046875</LongitudeDegrees>
            </Position>
            <AltitudeMeters>557.20001220703125</AltitudeMeters>
            <DistanceMeters>NAN</DistanceMeters>
          </Trackpoint>
          <Trackpoint>
            <Time>2021-08-09T11:13:09.000Z</Time>
            <Position>
              <LatitudeDegrees>42.99970113672316074371337890625</LatitudeDegrees>
              <LongitudeDegrees>-1.78798743523657321929931640625</LongitudeDegrees>
            </Position>
            <AltitudeMeters>557.4000244140625</AltitudeMeters>
            <DistanceMeters>NAN</DistanceMeters>
          </Trackpoint>
          <Trackpoint>
            <Time>2021-08-09T11:13:10.000Z</Time>
            <Position>
              <LatitudeDegrees>42.99969158135354518890380859375</LatitudeDegrees>
              <LongitudeDegrees>-1.7879566736519336700439453125</LongitudeDegrees>
            </Position>
            <AltitudeMeters>557.79998779296875</AltitudeMeters>
            <DistanceMeters>NAN</DistanceMeters>
          </Trackpoint>
          <Trackpoint>
            <Time>2021-08-09T11:13:11.000Z</Time>
            <Position>
              <LatitudeDegrees>42.99968160688877105712890625</LatitudeDegrees>
              <LongitudeDegrees>-1.7879281751811504364013671875</LongitudeDegrees>
            </Position>
            <AltitudeMeters>557.79998779296875</AltitudeMeters>
            <DistanceMeters>NAN</DistanceMeters>
          </Trackpoint>
          <Trackpoint>
            <Time>2021-08-09T11:13:12.000Z</Time>
            <Position>
              <LatitudeDegrees>42.9996670223772525787353515625</LatitudeDegrees>
              <LongitudeDegrees>-1.78790546022355556488037109375</LongitudeDegrees>
            </Position>
            <AltitudeMeters>558</AltitudeMeters>
            <DistanceMeters>NAN</DistanceMeters>
          </Trackpoint>
          <Trackpoint>
            <Time>2021-08-09T11:13:13.000Z</Time>
            <Position>
              <LatitudeDegrees>42.99965151585638523101806640625</LatitudeDegrees>
              <LongitudeDegrees>-1.78788349963724613189697265625</LongitudeDegrees>
            </Position>
            <AltitudeMeters>558.20001220703125</AltitudeMeters>
            <DistanceMeters>NAN</DistanceMeters>
          </Trackpoint>
          <Trackpoint>
            <Time>2021-08-09T11:13:14.000Z</Time>
            <Position>
              <LatitudeDegrees>42.99964045174419879913330078125</LatitudeDegrees>
              <LongitudeDegrees>-1.78786103613674640655517578125</LongitudeDegrees>
            </Position>
            <AltitudeMeters>558.4000244140625</AltitudeMeters>
            <DistanceMeters>NAN</DistanceMeters>
          </Trackpoint>
          <Trackpoint>
            <Time>2021-08-09T11:13:15.000Z</Time>
            <Position>
              <LatitudeDegrees>42.9996247775852680206298828125</LatitudeDegrees>
              <LongitudeDegrees>-1.78783890791237354278564453125</LongitudeDegrees>
            </Position>
            <AltitudeMeters>558.5999755859375</AltitudeMeters>
            <DistanceMeters>NAN</DistanceMeters>
          </Trackpoint>
          <Trackpoint>
            <Time>2021-08-09T11:13:16.000Z</Time>
            <Position>
              <LatitudeDegrees>42.9996080137789249420166015625</LatitudeDegrees>
              <LongitudeDegrees>-1.78781795315444469451904296875</LongitudeDegrees>
            </Position>
            <AltitudeMeters>559</AltitudeMeters>
            <DistanceMeters>NAN</DistanceMeters>
          </Trackpoint>
          <Trackpoint>
            <Time>2021-08-09T11:13:17.000Z</Time>
            <Position>
              <LatitudeDegrees>42.9995895735919475555419921875</LatitudeDegrees>
              <LongitudeDegrees>-1.7877990938723087310791015625</LongitudeDegrees>
            </Position>
            <AltitudeMeters>559.20001220703125</AltitudeMeters>
            <DistanceMeters>NAN</DistanceMeters>
          </Trackpoint>
          <Trackpoint>
            <Time>2021-08-09T11:13:18.000Z</Time>
            <Position>
              <LatitudeDegrees>42.99957172013819217681884765625</LatitudeDegrees>
              <LongitudeDegrees>-1.78778006695210933685302734375</LongitudeDegrees>
            </Position>
            <AltitudeMeters>559.4000244140625</AltitudeMeters>
            <DistanceMeters>NAN</DistanceMeters>
          </Trackpoint>
          <Trackpoint>
            <Time>2021-08-09T11:13:19.000Z</Time>
            <Position>
              <LatitudeDegrees>42.9995557107031345367431640625</LatitudeDegrees>
              <LongitudeDegrees>-1.787755675613880157470703125</LongitudeDegrees>
            </Position>
            <AltitudeMeters>559.5999755859375</AltitudeMeters>
            <DistanceMeters>NAN</DistanceMeters>
          </Trackpoint>
          <Trackpoint>
            <Time>2021-08-09T11:13:20.000Z</Time>
            <Position>
              <LatitudeDegrees>42.999539785087108612060546875</LatitudeDegrees>
              <LongitudeDegrees>-1.78772608749568462371826171875</LongitudeDegrees>
            </Position>
            <AltitudeMeters>559.5999755859375</AltitudeMeters>
            <DistanceMeters>NAN</DistanceMeters>
          </Trackpoint>
          <Trackpoint>
            <Time>2021-08-09T11:13:21.000Z</Time>
            <Position>
              <LatitudeDegrees>42.9995268769562244415283203125</LatitudeDegrees>
              <LongitudeDegrees>-1.78769893012940883636474609375</LongitudeDegrees>
            </Position>
            <AltitudeMeters>559.79998779296875</AltitudeMeters>
            <DistanceMeters>NAN</DistanceMeters>
          </Trackpoint>
          <Trackpoint>
            <Time>2021-08-09T11:13:22.000Z</Time>
            <Position>
              <LatitudeDegrees>42.99951556138694286346435546875</LatitudeDegrees>
              <LongitudeDegrees>-1.787671186029911041259765625</LongitudeDegrees>
            </Position>
            <AltitudeMeters>560</AltitudeMeters>
            <DistanceMeters>NAN</DistanceMeters>
          </Trackpoint>
          <Trackpoint>
            <Time>2021-08-09T11:13:23.000Z</Time>
            <Position>
              <LatitudeDegrees>42.999506928026676177978515625</LatitudeDegrees>
              <LongitudeDegrees>-1.78763958625495433807373046875</LongitudeDegrees>
            </Position>
            <AltitudeMeters>560.4000244140625</AltitudeMeters>
            <DistanceMeters>NAN</DistanceMeters>
          </Trackpoint>
          <Trackpoint>
            <Time>2021-08-09T11:13:24.000Z</Time>
            <Position>
              <LatitudeDegrees>42.99949879758059978485107421875</LatitudeDegrees>
              <LongitudeDegrees>-1.787609495222568511962890625</LongitudeDegrees>
            </Position>
            <AltitudeMeters>560.5999755859375</AltitudeMeters>
            <DistanceMeters>NAN</DistanceMeters>
          </Trackpoint>
          <Trackpoint>
            <Time>2021-08-09T11:13:25.000Z</Time>
            <Position>
              <LatitudeDegrees>42.9994913376867771148681640625</LatitudeDegrees>
              <LongitudeDegrees>-1.78758091293275356292724609375</LongitudeDegrees>
            </Position>
            <AltitudeMeters>560.79998779296875</AltitudeMeters>
            <DistanceMeters>NAN</DistanceMeters>
          </Trackpoint>
          <Trackpoint>
            <Time>2021-08-09T11:13:26.000Z</Time>
            <Position>
              <LatitudeDegrees>42.99948438070714473724365234375</LatitudeDegrees>
              <LongitudeDegrees>-1.78755124099552631378173828125</LongitudeDegrees>
            </Position>
            <AltitudeMeters>561</AltitudeMeters>
            <DistanceMeters>NAN</DistanceMeters>
          </Trackpoint>
          <Trackpoint>
            <Time>2021-08-09T11:13:27.000Z</Time>
            <Position>
              <LatitudeDegrees>42.9994811117649078369140625</LatitudeDegrees>
              <LongitudeDegrees>-1.78751972503960132598876953125</LongitudeDegrees>
            </Position>
            <AltitudeMeters>561.20001220703125</AltitudeMeters>
            <DistanceMeters>NAN</DistanceMeters>
          </Trackpoint>
          <Trackpoint>
            <Time>2021-08-09T11:13:28.000Z</Time>
            <Position>
              <LatitudeDegrees>42.99948421306908130645751953125</LatitudeDegrees>
              <LongitudeDegrees>-1.78748502396047115325927734375</LongitudeDegrees>
            </Position>
            <AltitudeMeters>561.4000244140625</AltitudeMeters>
            <DistanceMeters>NAN</DistanceMeters>
          </Trackpoint>
          <Trackpoint>
            <Time>2021-08-09T11:13:29.000Z</Time>
            <Position>
              <LatitudeDegrees>42.99948873929679393768310546875</LatitudeDegrees>
              <LongitudeDegrees>-1.78745535202324390411376953125</LongitudeDegrees>
            </Position>
            <AltitudeMeters>561.4000244140625</AltitudeMeters>
            <DistanceMeters>NAN</DistanceMeters>
          </Trackpoint>
          <Trackpoint>
            <Time>2021-08-09T11:13:30.000Z</Time>
            <Position>
              <LatitudeDegrees>42.99949376843869686126708984375</LatitudeDegrees>
              <LongitudeDegrees>-1.7874286137521266937255859375</LongitudeDegrees>
            </Position>
            <AltitudeMeters>561.5999755859375</AltitudeMeters>
            <DistanceMeters>NAN</DistanceMeters>
          </Trackpoint>
          <Trackpoint>
            <Time>2021-08-09T11:13:31.000Z</Time>
            <Position>
              <LatitudeDegrees>42.99949678592383861541748046875</LatitudeDegrees>
              <LongitudeDegrees>-1.78739927709102630615234375</LongitudeDegrees>
            </Position>
            <AltitudeMeters>561.79998779296875</AltitudeMeters>
            <DistanceMeters>NAN</DistanceMeters>
          </Trackpoint>
          <Trackpoint>
            <Time>2021-08-09T11:13:32.000Z</Time>
            <Position>
              <LatitudeDegrees>42.9995003901422023773193359375</LatitudeDegrees>
              <LongitudeDegrees>-1.78736985661089420318603515625</LongitudeDegrees>
            </Position>
            <AltitudeMeters>562</AltitudeMeters>
            <DistanceMeters>NAN</DistanceMeters>
          </Trackpoint>
          <Trackpoint>
            <Time>2021-08-09T11:13:33.000Z</Time>
            <Position>
              <LatitudeDegrees>42.99950349144637584686279296875</LatitudeDegrees>
              <LongitudeDegrees>-1.787341274321079254150390625</LongitudeDegrees>
            </Position>
            <AltitudeMeters>562</AltitudeMeters>
            <DistanceMeters>NAN</DistanceMeters>
          </Trackpoint>
          <Trackpoint>
            <Time>2021-08-09T11:13:34.000Z</Time>
            <Position>
              <LatitudeDegrees>42.99950650893151760101318359375</LatitudeDegrees>
              <LongitudeDegrees>-1.787315793335437774658203125</LongitudeDegrees>
            </Position>
            <AltitudeMeters>562.20001220703125</AltitudeMeters>
            <DistanceMeters>NAN</DistanceMeters>
          </Trackpoint>
          <Trackpoint>
            <Time>2021-08-09T11:13:35.000Z</Time>
            <Position>
              <LatitudeDegrees>42.9995117895305156707763671875</LatitudeDegrees>
              <LongitudeDegrees>-1.78728972561657428741455078125</LongitudeDegrees>
            </Position>
            <AltitudeMeters>562.20001220703125</AltitudeMeters>
            <DistanceMeters>NAN</DistanceMeters>
          </Trackpoint>
          <Trackpoint>
            <Time>2021-08-09T11:13:36.000Z</Time>
            <Position>
              <LatitudeDegrees>42.9995178245007991790771484375</LatitudeDegrees>
              <LongitudeDegrees>-1.787253431975841522216796875</LongitudeDegrees>
            </Position>
            <AltitudeMeters>562.4000244140625</AltitudeMeters>
            <DistanceMeters>NAN</DistanceMeters>
          </Trackpoint>
          <Trackpoint>
            <Time>2021-08-09T11:13:37.000Z</Time>
            <Position>
              <LatitudeDegrees>42.999521009624004364013671875</LatitudeDegrees>
              <LongitudeDegrees>-1.78721864707767963409423828125</LongitudeDegrees>
            </Position>
            <AltitudeMeters>562.5999755859375</AltitudeMeters>
            <DistanceMeters>NAN</DistanceMeters>
          </Trackpoint>
          <Trackpoint>
            <Time>2021-08-09T11:13:38.000Z</Time>
            <Position>
              <LatitudeDegrees>42.999523021280765533447265625</LatitudeDegrees>
              <LongitudeDegrees>-1.7871865443885326385498046875</LongitudeDegrees>
            </Position>
            <AltitudeMeters>562.5999755859375</AltitudeMeters>
            <DistanceMeters>NAN</DistanceMeters>
          </Trackpoint>
          <Trackpoint>
            <Time>2021-08-09T11:13:39.000Z</Time>
            <Position>
              <LatitudeDegrees>42.999527715146541595458984375</LatitudeDegrees>
              <LongitudeDegrees>-1.78715377114713191986083984375</LongitudeDegrees>
            </Position>
            <AltitudeMeters>563</AltitudeMeters>
            <DistanceMeters>NAN</DistanceMeters>
          </Trackpoint>
          <Trackpoint>
            <Time>2021-08-09T11:13:40.000Z</Time>
            <Position>
              <LatitudeDegrees>42.9995325766503810882568359375</LatitudeDegrees>
              <LongitudeDegrees>-1.787122674286365509033203125</LongitudeDegrees>
            </Position>
            <AltitudeMeters>563.20001220703125</AltitudeMeters>
            <DistanceMeters>NAN</DistanceMeters>
          </Trackpoint>
          <Trackpoint>
            <Time>2021-08-09T11:13:41.000Z</Time>
            <Position>
              <LatitudeDegrees>42.99953651614487171173095703125</LatitudeDegrees>
              <LongitudeDegrees>-1.787091828882694244384765625</LongitudeDegrees>
            </Position>
            <AltitudeMeters>563.4000244140625</AltitudeMeters>
            <DistanceMeters>NAN</DistanceMeters>
          </Trackpoint>
          <Trackpoint>
            <Time>2021-08-09T11:13:42.000Z</Time>
            <Position>
              <LatitudeDegrees>42.99953869543969631195068359375</LatitudeDegrees>
              <LongitudeDegrees>-1.7870618216693401336669921875</LongitudeDegrees>
            </Position>
            <AltitudeMeters>563.4000244140625</AltitudeMeters>
            <DistanceMeters>NAN</DistanceMeters>
          </Trackpoint>
          <Trackpoint>
            <Time>2021-08-09T11:13:43.000Z</Time>
            <Position>
              <LatitudeDegrees>42.99954104237258434295654296875</LatitudeDegrees>
              <LongitudeDegrees>-1.78702988661825656890869140625</LongitudeDegrees>
            </Position>
            <AltitudeMeters>563.4000244140625</AltitudeMeters>
            <DistanceMeters>NAN</DistanceMeters>
          </Trackpoint>
          <Trackpoint>
            <Time>2021-08-09T11:13:44.000Z</Time>
            <Position>
              <LatitudeDegrees>42.99954322166740894317626953125</LatitudeDegrees>
              <LongitudeDegrees>-1.7869917489588260650634765625</LongitudeDegrees>
            </Position>
            <AltitudeMeters>563.5999755859375</AltitudeMeters>
            <DistanceMeters>NAN</DistanceMeters>
          </Trackpoint>
          <Trackpoint>
            <Time>2021-08-09T11:13:45.000Z</Time>
            <Position>
              <LatitudeDegrees>42.99954481422901153564453125</LatitudeDegrees>
              <LongitudeDegrees>-1.7869612388312816619873046875</LongitudeDegrees>
            </Position>
            <AltitudeMeters>563.5999755859375</AltitudeMeters>
            <DistanceMeters>NAN</DistanceMeters>
          </Trackpoint>
          <Trackpoint>
            <Time>2021-08-09T11:13:46.000Z</Time>
            <Position>
              <LatitudeDegrees>42.99954456277191638946533203125</LatitudeDegrees>
              <LongitudeDegrees>-1.78693634457886219024658203125</LongitudeDegrees>
            </Position>
            <AltitudeMeters>563.5999755859375</AltitudeMeters>
            <DistanceMeters>NAN</DistanceMeters>
          </Trackpoint>
          <Trackpoint>
            <Time>2021-08-09T11:13:47.000Z</Time>
            <Position>
              <LatitudeDegrees>42.999545820057392120361328125</LatitudeDegrees>
              <LongitudeDegrees>-1.786905415356159210205078125</LongitudeDegrees>
            </Position>
            <AltitudeMeters>563.79998779296875</AltitudeMeters>
            <DistanceMeters>NAN</DistanceMeters>
          </Trackpoint>
          <Trackpoint>
            <Time>2021-08-09T11:13:48.000Z</Time>
            <Position>
              <LatitudeDegrees>42.99954590387642383575439453125</LatitudeDegrees>
              <LongitudeDegrees>-1.7868710495531558990478515625</LongitudeDegrees>
            </Position>
            <AltitudeMeters>564</AltitudeMeters>
            <DistanceMeters>NAN</DistanceMeters>
          </Trackpoint>
          <Trackpoint>
            <Time>2021-08-09T11:13:49.000Z</Time>
            <Position>
              <LatitudeDegrees>42.9995456524193286895751953125</LatitudeDegrees>
              <LongitudeDegrees>-1.7868407070636749267578125</LongitudeDegrees>
            </Position>
            <AltitudeMeters>564</AltitudeMeters>
            <DistanceMeters>NAN</DistanceMeters>
          </Trackpoint>
          <Trackpoint>
            <Time>2021-08-09T11:13:50.000Z</Time>
            <Position>
              <LatitudeDegrees>42.9995479993522167205810546875</LatitudeDegrees>
              <LongitudeDegrees>-1.786816231906414031982421875</LongitudeDegrees>
            </Position>
            <AltitudeMeters>564</AltitudeMeters>
            <DistanceMeters>NAN</DistanceMeters>
          </Trackpoint>
          <Trackpoint>
            <Time>2021-08-09T11:13:51.000Z</Time>
            <Position>
              <LatitudeDegrees>42.9995496757328510284423828125</LatitudeDegrees>
              <LongitudeDegrees>-1.78678379394114017486572265625</LongitudeDegrees>
            </Position>
            <AltitudeMeters>564.20001220703125</AltitudeMeters>
            <DistanceMeters>NAN</DistanceMeters>
          </Trackpoint>
          <Trackpoint>
            <Time>2021-08-09T11:13:52.000Z</Time>
            <Position>
              <LatitudeDegrees>42.9995490051805973052978515625</LatitudeDegrees>
              <LongitudeDegrees>-1.786750853061676025390625</LongitudeDegrees>
            </Position>
            <AltitudeMeters>564.20001220703125</AltitudeMeters>
            <DistanceMeters>NAN</DistanceMeters>
          </Trackpoint>
          <Trackpoint>
            <Time>2021-08-09T11:13:53.000Z</Time>
            <Position>
              <LatitudeDegrees>42.9995500110089778900146484375</LatitudeDegrees>
              <LongitudeDegrees>-1.78671891801059246063232421875</LongitudeDegrees>
            </Position>
            <AltitudeMeters>564.4000244140625</AltitudeMeters>
            <DistanceMeters>NAN</DistanceMeters>
          </Trackpoint>
          <Trackpoint>
            <Time>2021-08-09T11:13:54.000Z</Time>
            <Position>
              <LatitudeDegrees>42.9995510168373584747314453125</LatitudeDegrees>
              <LongitudeDegrees>-1.78669008426368236541748046875</LongitudeDegrees>
            </Position>
            <AltitudeMeters>564.5999755859375</AltitudeMeters>
            <DistanceMeters>NAN</DistanceMeters>
          </Trackpoint>
          <Trackpoint>
            <Time>2021-08-09T11:13:55.000Z</Time>
            <Position>
              <LatitudeDegrees>42.99954950809478759765625</LatitudeDegrees>
              <LongitudeDegrees>-1.7866591550409793853759765625</LongitudeDegrees>
            </Position>
            <AltitudeMeters>564.5999755859375</AltitudeMeters>
            <DistanceMeters>NAN</DistanceMeters>
          </Trackpoint>
          <Trackpoint>
            <Time>2021-08-09T11:13:56.000Z</Time>
            <Position>
              <LatitudeDegrees>42.99954657442867755889892578125</LatitudeDegrees>
              <LongitudeDegrees>-1.7866269685328006744384765625</LongitudeDegrees>
            </Position>
            <AltitudeMeters>564.79998779296875</AltitudeMeters>
            <DistanceMeters>NAN</DistanceMeters>
          </Trackpoint>
          <Trackpoint>
            <Time>2021-08-09T11:13:57.000Z</Time>
            <Position>
              <LatitudeDegrees>42.999546490609645843505859375</LatitudeDegrees>
              <LongitudeDegrees>-1.7865966260433197021484375</LongitudeDegrees>
            </Position>
            <AltitudeMeters>564.79998779296875</AltitudeMeters>
            <DistanceMeters>NAN</DistanceMeters>
          </Trackpoint>
          <Trackpoint>
            <Time>2021-08-09T11:13:58.000Z</Time>
            <Position>
              <LatitudeDegrees>42.99954523332417011260986328125</LatitudeDegrees>
              <LongitudeDegrees>-1.7865644395351409912109375</LongitudeDegrees>
            </Position>
            <AltitudeMeters>565</AltitudeMeters>
            <DistanceMeters>NAN</DistanceMeters>
          </Trackpoint>
          <Trackpoint>
            <Time>2021-08-09T11:13:59.000Z</Time>
            <Position>
              <LatitudeDegrees>42.999543808400630950927734375</LatitudeDegrees>
              <LongitudeDegrees>-1.7865335941314697265625</LongitudeDegrees>
            </Position>
            <AltitudeMeters>565.20001220703125</AltitudeMeters>
            <DistanceMeters>NAN</DistanceMeters>
          </Trackpoint>
          <Trackpoint>
            <Time>2021-08-09T11:14:00.000Z</Time>
            <Position>
              <LatitudeDegrees>42.9995416291058063507080078125</LatitudeDegrees>
              <LongitudeDegrees>-1.78650434128940105438232421875</LongitudeDegrees>
            </Position>
            <AltitudeMeters>565.4000244140625</AltitudeMeters>
            <DistanceMeters>NAN</DistanceMeters>
          </Trackpoint>
          <Trackpoint>
            <Time>2021-08-09T11:14:01.000Z</Time>
            <Position>
              <LatitudeDegrees>42.99953886307775974273681640625</LatitudeDegrees>
              <LongitudeDegrees>-1.786473579704761505126953125</LongitudeDegrees>
            </Position>
            <AltitudeMeters>565.5999755859375</AltitudeMeters>
            <DistanceMeters>NAN</DistanceMeters>
          </Trackpoint>
          <Trackpoint>
            <Time>2021-08-09T11:14:02.000Z</Time>
            <Position>
              <LatitudeDegrees>42.999535761773586273193359375</LatitudeDegrees>
              <LongitudeDegrees>-1.7864439077675342559814453125</LongitudeDegrees>
            </Position>
            <AltitudeMeters>565.79998779296875</AltitudeMeters>
            <DistanceMeters>NAN</DistanceMeters>
          </Trackpoint>
          <Trackpoint>
            <Time>2021-08-09T11:14:03.000Z</Time>
            <Position>
              <LatitudeDegrees>42.99953383393585681915283203125</LatitudeDegrees>
              <LongitudeDegrees>-1.78641549311578273773193359375</LongitudeDegrees>
            </Position>
            <AltitudeMeters>565.79998779296875</AltitudeMeters>
            <DistanceMeters>NAN</DistanceMeters>
          </Trackpoint>
          <Trackpoint>
            <Time>2021-08-09T11:14:04.000Z</Time>
            <Position>
              <LatitudeDegrees>42.999533750116825103759765625</LatitudeDegrees>
              <LongitudeDegrees>-1.786389760673046112060546875</LongitudeDegrees>
            </Position>
            <AltitudeMeters>566</AltitudeMeters>
            <DistanceMeters>NAN</DistanceMeters>
          </Trackpoint>
          <Trackpoint>
            <Time>2021-08-09T11:14:05.000Z</Time>
            <Position>
              <LatitudeDegrees>42.999531067907810211181640625</LatitudeDegrees>
              <LongitudeDegrees>-1.78635857999324798583984375</LongitudeDegrees>
            </Position>
            <AltitudeMeters>566</AltitudeMeters>
            <DistanceMeters>NAN</DistanceMeters>
          </Trackpoint>
          <Trackpoint>
            <Time>2021-08-09T11:14:06.000Z</Time>
            <Position>
              <LatitudeDegrees>42.99952880479395389556884765625</LatitudeDegrees>
              <LongitudeDegrees>-1.786327399313449859619140625</LongitudeDegrees>
            </Position>
            <AltitudeMeters>566.20001220703125</AltitudeMeters>
            <DistanceMeters>NAN</DistanceMeters>
          </Trackpoint>
          <Trackpoint>
            <Time>2021-08-09T11:14:07.000Z</Time>
            <Position>
              <LatitudeDegrees>42.99952863715589046478271484375</LatitudeDegrees>
              <LongitudeDegrees>-1.78629596717655658721923828125</LongitudeDegrees>
            </Position>
            <AltitudeMeters>566.4000244140625</AltitudeMeters>
            <DistanceMeters>NAN</DistanceMeters>
          </Trackpoint>
          <Trackpoint>
            <Time>2021-08-09T11:14:08.000Z</Time>
            <Position>
              <LatitudeDegrees>42.99952679313719272613525390625</LatitudeDegrees>
              <LongitudeDegrees>-1.78626394830644130706787109375</LongitudeDegrees>
            </Position>
            <AltitudeMeters>566.4000244140625</AltitudeMeters>
            <DistanceMeters>NAN</DistanceMeters>
          </Trackpoint>
          <Trackpoint>
            <Time>2021-08-09T11:14:09.000Z</Time>
            <Position>
              <LatitudeDegrees>42.99952109344303607940673828125</LatitudeDegrees>
              <LongitudeDegrees>-1.78623327054083347320556640625</LongitudeDegrees>
            </Position>
            <AltitudeMeters>566.5999755859375</AltitudeMeters>
            <DistanceMeters>NAN</DistanceMeters>
          </Trackpoint>
          <Trackpoint>
            <Time>2021-08-09T11:14:10.000Z</Time>
            <Position>
              <LatitudeDegrees>42.99951539374887943267822265625</LatitudeDegrees>
              <LongitudeDegrees>-1.78620569407939910888671875</LongitudeDegrees>
            </Position>
            <AltitudeMeters>567</AltitudeMeters>
            <DistanceMeters>NAN</DistanceMeters>
          </Trackpoint>
          <Trackpoint>
            <Time>2021-08-09T11:14:11.000Z</Time>
            <Position>
              <LatitudeDegrees>42.9995127953588962554931640625</LatitudeDegrees>
              <LongitudeDegrees>-1.7861776985228061676025390625</LongitudeDegrees>
            </Position>
            <AltitudeMeters>567</AltitudeMeters>
            <DistanceMeters>NAN</DistanceMeters>
          </Trackpoint>
          <Trackpoint>
            <Time>2021-08-09T11:14:12.000Z</Time>
            <Position>
              <LatitudeDegrees>42.999511621892452239990234375</LatitudeDegrees>
              <LongitudeDegrees>-1.78615096025168895721435546875</LongitudeDegrees>
            </Position>
            <AltitudeMeters>567.20001220703125</AltitudeMeters>
            <DistanceMeters>NAN</DistanceMeters>
          </Trackpoint>
          <Trackpoint>
            <Time>2021-08-09T11:14:13.000Z</Time>
            <Position>
              <LatitudeDegrees>42.99950919114053249359130859375</LatitudeDegrees>
              <LongitudeDegrees>-1.786128915846347808837890625</LongitudeDegrees>
            </Position>
            <AltitudeMeters>567.4000244140625</AltitudeMeters>
            <DistanceMeters>NAN</DistanceMeters>
          </Trackpoint>
          <Trackpoint>
            <Time>2021-08-09T11:14:14.000Z</Time>
            <Position>
              <LatitudeDegrees>42.999504916369915008544921875</LatitudeDegrees>
              <LongitudeDegrees>-1.78610653616487979888916015625</LongitudeDegrees>
            </Position>
            <AltitudeMeters>567.4000244140625</AltitudeMeters>
            <DistanceMeters>NAN</DistanceMeters>
          </Trackpoint>
          <Trackpoint>
            <Time>2021-08-09T11:14:15.000Z</Time>
            <Position>
              <LatitudeDegrees>42.999498210847377777099609375</LatitudeDegrees>
              <LongitudeDegrees>-1.7860828153789043426513671875</LongitudeDegrees>
            </Position>
            <AltitudeMeters>567.5999755859375</AltitudeMeters>
            <DistanceMeters>NAN</DistanceMeters>
          </Trackpoint>
          <Trackpoint>
            <Time>2021-08-09T11:14:16.000Z</Time>
            <Position>
              <LatitudeDegrees>42.99949225969612598419189453125</LatitudeDegrees>
              <LongitudeDegrees>-1.7860576696693897247314453125</LongitudeDegrees>
            </Position>
            <AltitudeMeters>567.79998779296875</AltitudeMeters>
            <DistanceMeters>NAN</DistanceMeters>
          </Trackpoint>
          <Trackpoint>
            <Time>2021-08-09T11:14:17.000Z</Time>
            <Position>
              <LatitudeDegrees>42.99948639236390590667724609375</LatitudeDegrees>
              <LongitudeDegrees>-1.7860331945121288299560546875</LongitudeDegrees>
            </Position>
            <AltitudeMeters>567.79998779296875</AltitudeMeters>
            <DistanceMeters>NAN</DistanceMeters>
          </Trackpoint>
          <Trackpoint>
            <Time>2021-08-09T11:14:18.000Z</Time>
            <Position>
              <LatitudeDegrees>42.9994822852313518524169921875</LatitudeDegrees>
              <LongitudeDegrees>-1.78601123392581939697265625</LongitudeDegrees>
            </Position>
            <AltitudeMeters>567.79998779296875</AltitudeMeters>
            <DistanceMeters>NAN</DistanceMeters>
          </Trackpoint>
          <Trackpoint>
            <Time>2021-08-09T11:14:19.000Z</Time>
            <Position>
              <LatitudeDegrees>42.9994769208133220672607421875</LatitudeDegrees>
              <LongitudeDegrees>-1.78598935715854167938232421875</LongitudeDegrees>
            </Position>
            <AltitudeMeters>567.79998779296875</AltitudeMeters>
            <DistanceMeters>NAN</DistanceMeters>
          </Trackpoint>
          <Trackpoint>
            <Time>2021-08-09T11:14:20.000Z</Time>
            <Position>
              <LatitudeDegrees>42.999471724033355712890625</LatitudeDegrees>
              <LongitudeDegrees>-1.78597125224769115447998046875</LongitudeDegrees>
            </Position>
            <AltitudeMeters>567.79998779296875</AltitudeMeters>
            <DistanceMeters>NAN</DistanceMeters>
          </Trackpoint>
          <Trackpoint>
            <Time>2021-08-09T11:14:21.000Z</Time>
            <Position>
              <LatitudeDegrees>42.99946811981499195098876953125</LatitudeDegrees>
              <LongitudeDegrees>-1.785953231155872344970703125</LongitudeDegrees>
            </Position>
            <AltitudeMeters>567.79998779296875</AltitudeMeters>
            <DistanceMeters>NAN</DistanceMeters>
          </Trackpoint>
          <Trackpoint>
            <Time>2021-08-09T11:14:22.000Z</Time>
            <Position>
              <LatitudeDegrees>42.99946694634854793548583984375</LatitudeDegrees>
              <LongitudeDegrees>-1.78593839518725872039794921875</LongitudeDegrees>
            </Position>
            <AltitudeMeters>567.79998779296875</AltitudeMeters>
            <DistanceMeters>NAN</DistanceMeters>
          </Trackpoint>
          <Trackpoint>
            <Time>2021-08-09T11:14:23.000Z</Time>
            <Position>
              <LatitudeDegrees>42.99946443177759647369384765625</LatitudeDegrees>
              <LongitudeDegrees>-1.7859228886663913726806640625</LongitudeDegrees>
            </Position>
            <AltitudeMeters>567.5999755859375</AltitudeMeters>
            <DistanceMeters>NAN</DistanceMeters>
          </Trackpoint>
          <Trackpoint>
            <Time>2021-08-09T11:14:24.000Z</Time>
            <Position>
              <LatitudeDegrees>42.99946166574954986572265625</LatitudeDegrees>
              <LongitudeDegrees>-1.7859067954123020172119140625</LongitudeDegrees>
            </Position>
            <AltitudeMeters>567.5999755859375</AltitudeMeters>
            <DistanceMeters>NAN</DistanceMeters>
          </Trackpoint>
          <Trackpoint>
            <Time>2021-08-09T11:14:25.000Z</Time>
            <Position>
              <LatitudeDegrees>42.99945487640798091888427734375</LatitudeDegrees>
              <LongitudeDegrees>-1.785894222557544708251953125</LongitudeDegrees>
            </Position>
            <AltitudeMeters>567.79998779296875</AltitudeMeters>
            <DistanceMeters>NAN</DistanceMeters>
          </Trackpoint>
          <Trackpoint>
            <Time>2021-08-09T11:14:26.000Z</Time>
            <Position>
              <LatitudeDegrees>42.9994490928947925567626953125</LatitudeDegrees>
              <LongitudeDegrees>-1.78587519563734531402587890625</LongitudeDegrees>
            </Position>
            <AltitudeMeters>567.5999755859375</AltitudeMeters>
            <DistanceMeters>NAN</DistanceMeters>
          </Trackpoint>
          <Trackpoint>
            <Time>2021-08-09T11:14:27.000Z</Time>
            <Position>
              <LatitudeDegrees>42.99944431520998477935791015625</LatitudeDegrees>
              <LongitudeDegrees>-1.78585566580295562744140625</LongitudeDegrees>
            </Position>
            <AltitudeMeters>567.5999755859375</AltitudeMeters>
            <DistanceMeters>NAN</DistanceMeters>
          </Trackpoint>
          <Trackpoint>
            <Time>2021-08-09T11:14:28.000Z</Time>
            <Position>
              <LatitudeDegrees>42.99944230355322360992431640625</LatitudeDegrees>
              <LongitudeDegrees>-1.78583513014018535614013671875</LongitudeDegrees>
            </Position>
            <AltitudeMeters>567.5999755859375</AltitudeMeters>
            <DistanceMeters>NAN</DistanceMeters>
          </Trackpoint>
          <Trackpoint>
            <Time>2021-08-09T11:14:36.000Z</Time>
            <Position>
              <LatitudeDegrees>42.9994075186550617218017578125</LatitudeDegrees>
              <LongitudeDegrees>-1.78566028364002704620361328125</LongitudeDegrees>
            </Position>
            <AltitudeMeters>567.20001220703125</AltitudeMeters>
            <DistanceMeters>NAN</DistanceMeters>
          </Trackpoint>
          <Trackpoint>
            <Time>2021-08-09T11:14:44.000Z</Time>
            <Position>
              <LatitudeDegrees>42.99935848452150821685791015625</LatitudeDegrees>
              <LongitudeDegrees>-1.78539826534688472747802734375</LongitudeDegrees>
            </Position>
            <AltitudeMeters>566.5999755859375</AltitudeMeters>
            <DistanceMeters>NAN</DistanceMeters>
          </Trackpoint>
          <Trackpoint>
            <Time>2021-08-09T11:14:50.000Z</Time>
            <Position>
              <LatitudeDegrees>42.9992982186377048492431640625</LatitudeDegrees>
              <LongitudeDegrees>-1.7850991152226924896240234375</LongitudeDegrees>
            </Position>
            <AltitudeMeters>566</AltitudeMeters>
            <DistanceMeters>NAN</DistanceMeters>
          </Trackpoint>
          <Trackpoint>
            <Time>2021-08-09T11:14:51.000Z</Time>
            <Position>
              <LatitudeDegrees>42.9992884956300258636474609375</LatitudeDegrees>
              <LongitudeDegrees>-1.78504563868045806884765625</LongitudeDegrees>
            </Position>
            <AltitudeMeters>566</AltitudeMeters>
            <DistanceMeters>NAN</DistanceMeters>
          </Trackpoint>
          <Trackpoint>
            <Time>2021-08-09T11:14:54.000Z</Time>
            <Position>
              <LatitudeDegrees>42.99925102852284908294677734375</LatitudeDegrees>
              <LongitudeDegrees>-1.78485847078263759613037109375</LongitudeDegrees>
            </Position>
            <AltitudeMeters>565.4000244140625</AltitudeMeters>
            <DistanceMeters>NAN</DistanceMeters>
          </Trackpoint>
          <Trackpoint>
            <Time>2021-08-09T11:14:56.000Z</Time>
            <Position>
              <LatitudeDegrees>42.99920693971216678619384765625</LatitudeDegrees>
              <LongitudeDegrees>-1.784757636487483978271484375</LongitudeDegrees>
            </Position>
            <AltitudeMeters>565.20001220703125</AltitudeMeters>
            <DistanceMeters>NAN</DistanceMeters>
          </Trackpoint>
          <Trackpoint>
            <Time>2021-08-09T11:14:57.000Z</Time>
            <Position>
              <LatitudeDegrees>42.99916871823370456695556640625</LatitudeDegrees>
              <LongitudeDegrees>-1.784708686172962188720703125</LongitudeDegrees>
            </Position>
            <AltitudeMeters>565</AltitudeMeters>
            <DistanceMeters>NAN</DistanceMeters>
          </Trackpoint>
          <Trackpoint>
            <Time>2021-08-09T11:14:58.000Z</Time>
            <Position>
              <LatitudeDegrees>42.9991201870143413543701171875</LatitudeDegrees>
              <LongitudeDegrees>-1.7846652679145336151123046875</LongitudeDegrees>
            </Position>
            <AltitudeMeters>564.79998779296875</AltitudeMeters>
            <DistanceMeters>NAN</DistanceMeters>
          </Trackpoint>
          <Trackpoint>
            <Time>2021-08-09T11:14:59.000Z</Time>
            <Position>
              <LatitudeDegrees>42.99906595610082149505615234375</LatitudeDegrees>
              <LongitudeDegrees>-1.7846240289509296417236328125</LongitudeDegrees>
            </Position>
            <AltitudeMeters>564.5999755859375</AltitudeMeters>
            <DistanceMeters>NAN</DistanceMeters>
          </Trackpoint>
          <Trackpoint>
            <Time>2021-08-09T11:15:00.000Z</Time>
            <Position>
              <LatitudeDegrees>42.99901030026376247406005859375</LatitudeDegrees>
              <LongitudeDegrees>-1.78458555601537227630615234375</LongitudeDegrees>
            </Position>
            <AltitudeMeters>564.4000244140625</AltitudeMeters>
            <DistanceMeters>NAN</DistanceMeters>
          </Trackpoint>
          <Trackpoint>
            <Time>2021-08-09T11:15:01.000Z</Time>
            <Position>
              <LatitudeDegrees>42.99895665608346462249755859375</LatitudeDegrees>
              <LongitudeDegrees>-1.78454129956662654876708984375</LongitudeDegrees>
            </Position>
            <AltitudeMeters>564</AltitudeMeters>
            <DistanceMeters>NAN</DistanceMeters>
          </Trackpoint>
          <Trackpoint>
            <Time>2021-08-09T11:15:02.000Z</Time>
            <Position>
              <LatitudeDegrees>42.99890653230249881744384765625</LatitudeDegrees>
              <LongitudeDegrees>-1.78448497317731380462646484375</LongitudeDegrees>
            </Position>
            <AltitudeMeters>563.79998779296875</AltitudeMeters>
            <DistanceMeters>NAN</DistanceMeters>
          </Trackpoint>
          <Trackpoint>
            <Time>2021-08-09T11:15:03.000Z</Time>
            <Position>
              <LatitudeDegrees>42.99885959364473819732666015625</LatitudeDegrees>
              <LongitudeDegrees>-1.784400232136249542236328125</LongitudeDegrees>
            </Position>
            <AltitudeMeters>563</AltitudeMeters>
            <DistanceMeters>NAN</DistanceMeters>
          </Trackpoint>
          <Trackpoint>
            <Time>2021-08-09T11:15:04.000Z</Time>
            <Position>
              <LatitudeDegrees>42.998835705220699310302734375</LatitudeDegrees>
              <LongitudeDegrees>-1.78433443419635295867919921875</LongitudeDegrees>
            </Position>
            <AltitudeMeters>562.5999755859375</AltitudeMeters>
            <DistanceMeters>NAN</DistanceMeters>
          </Trackpoint>
          <Trackpoint>
            <Time>2021-08-09T11:15:05.000Z</Time>
            <Position>
              <LatitudeDegrees>42.9988050274550914764404296875</LatitudeDegrees>
              <LongitudeDegrees>-1.78423536010086536407470703125</LongitudeDegrees>
            </Position>
            <AltitudeMeters>561.5999755859375</AltitudeMeters>
            <DistanceMeters>NAN</DistanceMeters>
          </Trackpoint>
          <Trackpoint>
            <Time>2021-08-09T11:15:06.000Z</Time>
            <Position>
              <LatitudeDegrees>42.99878784455358982086181640625</LatitudeDegrees>
              <LongitudeDegrees>-1.78416931070387363433837890625</LongitudeDegrees>
            </Position>
            <AltitudeMeters>561.4000244140625</AltitudeMeters>
            <DistanceMeters>NAN</DistanceMeters>
          </Trackpoint>
          <Trackpoint>
            <Time>2021-08-09T11:15:07.000Z</Time>
            <Position>
              <LatitudeDegrees>42.99876403994858264923095703125</LatitudeDegrees>
              <LongitudeDegrees>-1.78408917970955371856689453125</LongitudeDegrees>
            </Position>
            <AltitudeMeters>560.79998779296875</AltitudeMeters>
            <DistanceMeters>NAN</DistanceMeters>
          </Trackpoint>
          <Trackpoint>
            <Time>2021-08-09T11:15:08.000Z</Time>
            <Position>
              <LatitudeDegrees>42.99873839132487773895263671875</LatitudeDegrees>
              <LongitudeDegrees>-1.78402128629386425018310546875</LongitudeDegrees>
            </Position>
            <AltitudeMeters>560.4000244140625</AltitudeMeters>
            <DistanceMeters>NAN</DistanceMeters>
          </Trackpoint>
          <Trackpoint>
            <Time>2021-08-09T11:15:09.000Z</Time>
            <Position>
              <LatitudeDegrees>42.99871106632053852081298828125</LatitudeDegrees>
              <LongitudeDegrees>-1.78396579809486865997314453125</LongitudeDegrees>
            </Position>
            <AltitudeMeters>560.20001220703125</AltitudeMeters>
            <DistanceMeters>NAN</DistanceMeters>
          </Trackpoint>
          <Trackpoint>
            <Time>2021-08-09T11:15:10.000Z</Time>
            <Position>
              <LatitudeDegrees>42.99868273548781871795654296875</LatitudeDegrees>
              <LongitudeDegrees>-1.783911399543285369873046875</LongitudeDegrees>
            </Position>
            <AltitudeMeters>560</AltitudeMeters>
            <DistanceMeters>NAN</DistanceMeters>
          </Trackpoint>
          <Trackpoint>
            <Time>2021-08-09T11:15:11.000Z</Time>
            <Position>
              <LatitudeDegrees>42.99866798333823680877685546875</LatitudeDegrees>
              <LongitudeDegrees>-1.78388147614896297454833984375</LongitudeDegrees>
            </Position>
            <AltitudeMeters>560</AltitudeMeters>
            <DistanceMeters>NAN</DistanceMeters>
          </Trackpoint>
          <Trackpoint>
            <Time>2021-08-09T11:15:12.000Z</Time>
            <Position>
              <LatitudeDegrees>42.99865029752254486083984375</LatitudeDegrees>
              <LongitudeDegrees>-1.78385146893560886383056640625</LongitudeDegrees>
            </Position>
            <AltitudeMeters>560</AltitudeMeters>
            <DistanceMeters>NAN</DistanceMeters>
          </Trackpoint>
          <Trackpoint>
            <Time>2021-08-09T11:15:13.000Z</Time>
            <Position>
              <LatitudeDegrees>42.99863755702972412109375</LatitudeDegrees>
              <LongitudeDegrees>-1.78382464684545993804931640625</LongitudeDegrees>
            </Position>
            <AltitudeMeters>559.79998779296875</AltitudeMeters>
            <DistanceMeters>NAN</DistanceMeters>
          </Trackpoint>
          <Trackpoint>
            <Time>2021-08-09T11:15:14.000Z</Time>
            <Position>
              <LatitudeDegrees>42.998624481260776519775390625</LatitudeDegrees>
              <LongitudeDegrees>-1.78379916585981845855712890625</LongitudeDegrees>
            </Position>
            <AltitudeMeters>559.79998779296875</AltitudeMeters>
            <DistanceMeters>NAN</DistanceMeters>
          </Trackpoint>
          <Trackpoint>
            <Time>2021-08-09T11:15:15.000Z</Time>
            <Position>
              <LatitudeDegrees>42.9986088909208774566650390625</LatitudeDegrees>
              <LongitudeDegrees>-1.78377435542643070220947265625</LongitudeDegrees>
            </Position>
            <AltitudeMeters>559.79998779296875</AltitudeMeters>
            <DistanceMeters>NAN</DistanceMeters>
          </Trackpoint>
          <Trackpoint>
            <Time>2021-08-09T11:15:16.000Z</Time>
            <Position>
              <LatitudeDegrees>42.99859455786645412445068359375</LatitudeDegrees>
              <LongitudeDegrees>-1.78374937735497951507568359375</LongitudeDegrees>
            </Position>
            <AltitudeMeters>560</AltitudeMeters>
            <DistanceMeters>NAN</DistanceMeters>
          </Trackpoint>
          <Trackpoint>
            <Time>2021-08-09T11:15:20.000Z</Time>
            <Position>
              <LatitudeDegrees>42.99854225479066371917724609375</LatitudeDegrees>
              <LongitudeDegrees>-1.783631108701229095458984375</LongitudeDegrees>
            </Position>
            <AltitudeMeters>560</AltitudeMeters>
            <DistanceMeters>NAN</DistanceMeters>
          </Trackpoint>
          <Trackpoint>
            <Time>2021-08-09T11:15:28.000Z</Time>
            <Position>
              <LatitudeDegrees>42.99842658452689647674560546875</LatitudeDegrees>
              <LongitudeDegrees>-1.78337168879806995391845703125</LongitudeDegrees>
            </Position>
            <AltitudeMeters>561.4000244140625</AltitudeMeters>
            <DistanceMeters>NAN</DistanceMeters>
          </Trackpoint>
          <Trackpoint>
            <Time>2021-08-09T11:15:30.000Z</Time>
            <Position>
              <LatitudeDegrees>42.99839791841804981231689453125</LatitudeDegrees>
              <LongitudeDegrees>-1.78330077789723873138427734375</LongitudeDegrees>
            </Position>
            <AltitudeMeters>561.5999755859375</AltitudeMeters>
            <DistanceMeters>NAN</DistanceMeters>
          </Trackpoint>
          <Trackpoint>
            <Time>2021-08-09T11:15:36.000Z</Time>
            <Position>
              <LatitudeDegrees>42.99832566641271114349365234375</LatitudeDegrees>
              <LongitudeDegrees>-1.7830971814692020416259765625</LongitudeDegrees>
            </Position>
            <AltitudeMeters>561.79998779296875</AltitudeMeters>
            <DistanceMeters>NAN</DistanceMeters>
          </Trackpoint>
          <Trackpoint>
            <Time>2021-08-09T11:15:37.000Z</Time>
            <Position>
              <LatitudeDegrees>42.99831611104309558868408203125</LatitudeDegrees>
              <LongitudeDegrees>-1.78306348621845245361328125</LongitudeDegrees>
            </Position>
            <AltitudeMeters>562</AltitudeMeters>
            <DistanceMeters>NAN</DistanceMeters>
          </Trackpoint>
          <Trackpoint>
            <Time>2021-08-09T11:15:38.000Z</Time>
            <Position>
              <LatitudeDegrees>42.9983081482350826263427734375</LatitudeDegrees>
              <LongitudeDegrees>-1.78302803076803684234619140625</LongitudeDegrees>
            </Position>
            <AltitudeMeters>562</AltitudeMeters>
            <DistanceMeters>NAN</DistanceMeters>
          </Trackpoint>
          <Trackpoint>
            <Time>2021-08-09T11:15:41.000Z</Time>
            <Position>
              <LatitudeDegrees>42.99828291870653629302978515625</LatitudeDegrees>
              <LongitudeDegrees>-1.78292644210159778594970703125</LongitudeDegrees>
            </Position>
            <AltitudeMeters>562.20001220703125</AltitudeMeters>
            <DistanceMeters>NAN</DistanceMeters>
          </Trackpoint>
          <Trackpoint>
            <Time>2021-08-09T11:15:42.000Z</Time>
            <Position>
              <LatitudeDegrees>42.99827705137431621551513671875</LatitudeDegrees>
              <LongitudeDegrees>-1.78289324976503849029541015625</LongitudeDegrees>
            </Position>
            <AltitudeMeters>562.4000244140625</AltitudeMeters>
            <DistanceMeters>NAN</DistanceMeters>
          </Trackpoint>
          <Trackpoint>
            <Time>2021-08-09T11:15:43.000Z</Time>
            <Position>
              <LatitudeDegrees>42.99827403388917446136474609375</LatitudeDegrees>
              <LongitudeDegrees>-1.7828576266765594482421875</LongitudeDegrees>
            </Position>
            <AltitudeMeters>562.4000244140625</AltitudeMeters>
            <DistanceMeters>NAN</DistanceMeters>
          </Trackpoint>
          <Trackpoint>
            <Time>2021-08-09T11:15:45.000Z</Time>
            <Position>
              <LatitudeDegrees>42.99827286042273044586181640625</LatitudeDegrees>
              <LongitudeDegrees>-1.7827883921563625335693359375</LongitudeDegrees>
            </Position>
            <AltitudeMeters>562.79998779296875</AltitudeMeters>
            <DistanceMeters>NAN</DistanceMeters>
          </Trackpoint>
          <Trackpoint>
            <Time>2021-08-09T11:15:52.000Z</Time>
            <Position>
              <LatitudeDegrees>42.99830487929284572601318359375</LatitudeDegrees>
              <LongitudeDegrees>-1.78251287899911403656005859375</LongitudeDegrees>
            </Position>
            <AltitudeMeters>563.5999755859375</AltitudeMeters>
            <DistanceMeters>NAN</DistanceMeters>
          </Trackpoint>
          <Trackpoint>
            <Time>2021-08-09T11:15:55.000Z</Time>
            <Position>
              <LatitudeDegrees>42.99831694923341274261474609375</LatitudeDegrees>
              <LongitudeDegrees>-1.782407350838184356689453125</LongitudeDegrees>
            </Position>
            <AltitudeMeters>563.79998779296875</AltitudeMeters>
            <DistanceMeters>NAN</DistanceMeters>
          </Trackpoint>
          <Trackpoint>
            <Time>2021-08-09T11:16:04.000Z</Time>
            <Position>
              <LatitudeDegrees>42.99832801334559917449951171875</LatitudeDegrees>
              <LongitudeDegrees>-1.78206210024654865264892578125</LongitudeDegrees>
            </Position>
            <AltitudeMeters>564.4000244140625</AltitudeMeters>
            <DistanceMeters>NAN</DistanceMeters>
          </Trackpoint>
          <Trackpoint>
            <Time>2021-08-09T11:16:06.000Z</Time>
            <Position>
              <LatitudeDegrees>42.99831368029117584228515625</LatitudeDegrees>
              <LongitudeDegrees>-1.781990267336368560791015625</LongitudeDegrees>
            </Position>
            <AltitudeMeters>564.5999755859375</AltitudeMeters>
            <DistanceMeters>NAN</DistanceMeters>
          </Trackpoint>
          <Trackpoint>
            <Time>2021-08-09T11:16:07.000Z</Time>
            <Position>
              <LatitudeDegrees>42.99830353818833827972412109375</LatitudeDegrees>
              <LongitudeDegrees>-1.7819538898766040802001953125</LongitudeDegrees>
            </Position>
            <AltitudeMeters>564.5999755859375</AltitudeMeters>
            <DistanceMeters>NAN</DistanceMeters>
          </Trackpoint>
          <Trackpoint>
            <Time>2021-08-09T11:16:08.000Z</Time>
            <Position>
              <LatitudeDegrees>42.99829431809484958648681640625</LatitudeDegrees>
              <LongitudeDegrees>-1.7819196917116641998291015625</LongitudeDegrees>
            </Position>
            <AltitudeMeters>564.79998779296875</AltitudeMeters>
            <DistanceMeters>NAN</DistanceMeters>
          </Trackpoint>
          <Trackpoint>
            <Time>2021-08-09T11:16:09.000Z</Time>
            <Position>
              <LatitudeDegrees>42.99828350543975830078125</LatitudeDegrees>
              <LongitudeDegrees>-1.78188691847026348114013671875</LongitudeDegrees>
            </Position>
            <AltitudeMeters>564.79998779296875</AltitudeMeters>
            <DistanceMeters>NAN</DistanceMeters>
          </Trackpoint>
          <Trackpoint>
            <Time>2021-08-09T11:16:12.000Z</Time>
            <Position>
              <LatitudeDegrees>42.998247630894184112548828125</LatitudeDegrees>
              <LongitudeDegrees>-1.7817899398505687713623046875</LongitudeDegrees>
            </Position>
            <AltitudeMeters>565.4000244140625</AltitudeMeters>
            <DistanceMeters>NAN</DistanceMeters>
          </Trackpoint>
          <Trackpoint>
            <Time>2021-08-09T11:16:14.000Z</Time>
            <Position>
              <LatitudeDegrees>42.998220808804035186767578125</LatitudeDegrees>
              <LongitudeDegrees>-1.7817275784909725189208984375</LongitudeDegrees>
            </Position>
            <AltitudeMeters>565.79998779296875</AltitudeMeters>
            <DistanceMeters>NAN</DistanceMeters>
          </Trackpoint>
          <Trackpoint>
            <Time>2021-08-09T11:16:17.000Z</Time>
            <Position>
              <LatitudeDegrees>42.99817479215562343597412109375</LatitudeDegrees>
              <LongitudeDegrees>-1.7816353775560855865478515625</LongitudeDegrees>
            </Position>
            <AltitudeMeters>566.4000244140625</AltitudeMeters>
            <DistanceMeters>NAN</DistanceMeters>
          </Trackpoint>
          <Trackpoint>
            <Time>2021-08-09T11:16:18.000Z</Time>
            <Position>
              <LatitudeDegrees>42.99816305749118328094482421875</LatitudeDegrees>
              <LongitudeDegrees>-1.7816132493317127227783203125</LongitudeDegrees>
            </Position>
            <AltitudeMeters>566.5999755859375</AltitudeMeters>
            <DistanceMeters>NAN</DistanceMeters>
          </Trackpoint>
          <Trackpoint>
            <Time>2021-08-09T11:16:19.000Z</Time>
            <Position>
              <LatitudeDegrees>42.99814797006547451019287109375</LatitudeDegrees>
              <LongitudeDegrees>-1.78158558905124664306640625</LongitudeDegrees>
            </Position>
            <AltitudeMeters>566.79998779296875</AltitudeMeters>
            <DistanceMeters>NAN</DistanceMeters>
          </Trackpoint>
          <Trackpoint>
            <Time>2021-08-09T11:16:20.000Z</Time>
            <Position>
              <LatitudeDegrees>42.99813372083008289337158203125</LatitudeDegrees>
              <LongitudeDegrees>-1.78155667148530483245849609375</LongitudeDegrees>
            </Position>
            <AltitudeMeters>566.79998779296875</AltitudeMeters>
            <DistanceMeters>NAN</DistanceMeters>
          </Trackpoint>
          <Trackpoint>
            <Time>2021-08-09T11:16:21.000Z</Time>
            <Position>
              <LatitudeDegrees>42.99811963923275470733642578125</LatitudeDegrees>
              <LongitudeDegrees>-1.78152917884290218353271484375</LongitudeDegrees>
            </Position>
            <AltitudeMeters>567</AltitudeMeters>
            <DistanceMeters>NAN</DistanceMeters>
          </Trackpoint>
          <Trackpoint>
            <Time>2021-08-09T11:16:22.000Z</Time>
            <Position>
              <LatitudeDegrees>42.9981036297976970672607421875</LatitudeDegrees>
              <LongitudeDegrees>-1.78150151856243610382080078125</LongitudeDegrees>
            </Position>
            <AltitudeMeters>567.4000244140625</AltitudeMeters>
            <DistanceMeters>NAN</DistanceMeters>
          </Trackpoint>
          <Trackpoint>
            <Time>2021-08-09T11:16:23.000Z</Time>
            <Position>
              <LatitudeDegrees>42.9980882070958614349365234375</LatitudeDegrees>
              <LongitudeDegrees>-1.7814710922539234161376953125</LongitudeDegrees>
            </Position>
            <AltitudeMeters>567.5999755859375</AltitudeMeters>
            <DistanceMeters>NAN</DistanceMeters>
          </Trackpoint>
          <Trackpoint>
            <Time>2021-08-09T11:16:24.000Z</Time>
            <Position>
              <LatitudeDegrees>42.9980721138417720794677734375</LatitudeDegrees>
              <LongitudeDegrees>-1.7814325354993343353271484375</LongitudeDegrees>
            </Position>
            <AltitudeMeters>567.79998779296875</AltitudeMeters>
            <DistanceMeters>NAN</DistanceMeters>
          </Trackpoint>
          <Trackpoint>
            <Time>2021-08-09T11:16:25.000Z</Time>
            <Position>
              <LatitudeDegrees>42.9980568587779998779296875</LatitudeDegrees>
              <LongitudeDegrees>-1.78140051662921905517578125</LongitudeDegrees>
            </Position>
            <AltitudeMeters>567.79998779296875</AltitudeMeters>
            <DistanceMeters>NAN</DistanceMeters>
          </Trackpoint>
          <Trackpoint>
            <Time>2021-08-09T11:16:26.000Z</Time>
            <Position>
              <LatitudeDegrees>42.9980449564754962921142578125</LatitudeDegrees>
              <LongitudeDegrees>-1.7813762091100215911865234375</LongitudeDegrees>
            </Position>
            <AltitudeMeters>568</AltitudeMeters>
            <DistanceMeters>NAN</DistanceMeters>
          </Trackpoint>
          <Trackpoint>
            <Time>2021-08-09T11:16:27.000Z</Time>
            <Position>
              <LatitudeDegrees>42.9980328865349292755126953125</LatitudeDegrees>
              <LongitudeDegrees>-1.78134611807763576507568359375</LongitudeDegrees>
            </Position>
            <AltitudeMeters>568.20001220703125</AltitudeMeters>
            <DistanceMeters>NAN</DistanceMeters>
          </Trackpoint>
          <Trackpoint>
            <Time>2021-08-09T11:16:28.000Z</Time>
            <Position>
              <LatitudeDegrees>42.99802022986114025115966796875</LatitudeDegrees>
              <LongitudeDegrees>-1.781308315694332122802734375</LongitudeDegrees>
            </Position>
            <AltitudeMeters>568.20001220703125</AltitudeMeters>
            <DistanceMeters>NAN</DistanceMeters>
          </Trackpoint>
          <Trackpoint>
            <Time>2021-08-09T11:16:29.000Z</Time>
            <Position>
              <LatitudeDegrees>42.99800966866314411163330078125</LatitudeDegrees>
              <LongitudeDegrees>-1.78127579391002655029296875</LongitudeDegrees>
            </Position>
            <AltitudeMeters>568.20001220703125</AltitudeMeters>
            <DistanceMeters>NAN</DistanceMeters>
          </Trackpoint>
          <Trackpoint>
            <Time>2021-08-09T11:16:30.000Z</Time>
            <Position>
              <LatitudeDegrees>42.9979976825416088104248046875</LatitudeDegrees>
              <LongitudeDegrees>-1.7812444455921649932861328125</LongitudeDegrees>
            </Position>
            <AltitudeMeters>568.4000244140625</AltitudeMeters>
            <DistanceMeters>NAN</DistanceMeters>
          </Trackpoint>
          <Trackpoint>
            <Time>2021-08-09T11:16:31.000Z</Time>
            <Position>
              <LatitudeDegrees>42.9979886300861835479736328125</LatitudeDegrees>
              <LongitudeDegrees>-1.78121946752071380615234375</LongitudeDegrees>
            </Position>
            <AltitudeMeters>568.5999755859375</AltitudeMeters>
            <DistanceMeters>NAN</DistanceMeters>
          </Trackpoint>
          <Trackpoint>
            <Time>2021-08-09T11:16:32.000Z</Time>
            <Position>
              <LatitudeDegrees>42.99797798506915569305419921875</LatitudeDegrees>
              <LongitudeDegrees>-1.78118904121220111846923828125</LongitudeDegrees>
            </Position>
            <AltitudeMeters>568.79998779296875</AltitudeMeters>
            <DistanceMeters>NAN</DistanceMeters>
          </Trackpoint>
          <Trackpoint>
            <Time>2021-08-09T11:16:33.000Z</Time>
            <Position>
              <LatitudeDegrees>42.99796767532825469970703125</LatitudeDegrees>
              <LongitudeDegrees>-1.7811582796275615692138671875</LongitudeDegrees>
            </Position>
            <AltitudeMeters>569</AltitudeMeters>
            <DistanceMeters>NAN</DistanceMeters>
          </Trackpoint>
          <Trackpoint>
            <Time>2021-08-09T11:16:34.000Z</Time>
            <Position>
              <LatitudeDegrees>42.99795904196798801422119140625</LatitudeDegrees>
              <LongitudeDegrees>-1.7811267636716365814208984375</LongitudeDegrees>
            </Position>
            <AltitudeMeters>569.20001220703125</AltitudeMeters>
            <DistanceMeters>NAN</DistanceMeters>
          </Trackpoint>
          <Trackpoint>
            <Time>2021-08-09T11:16:35.000Z</Time>
            <Position>
              <LatitudeDegrees>42.9979483969509601593017578125</LatitudeDegrees>
              <LongitudeDegrees>-1.7810872010886669158935546875</LongitudeDegrees>
            </Position>
            <AltitudeMeters>569.4000244140625</AltitudeMeters>
            <DistanceMeters>NAN</DistanceMeters>
          </Trackpoint>
          <Trackpoint>
            <Time>2021-08-09T11:16:36.000Z</Time>
            <Position>
              <LatitudeDegrees>42.99793859012424945831298828125</LatitudeDegrees>
              <LongitudeDegrees>-1.78105660714209079742431640625</LongitudeDegrees>
            </Position>
            <AltitudeMeters>569.4000244140625</AltitudeMeters>
            <DistanceMeters>NAN</DistanceMeters>
          </Trackpoint>
          <Trackpoint>
            <Time>2021-08-09T11:16:37.000Z</Time>
            <Position>
              <LatitudeDegrees>42.99792937003076076507568359375</LatitudeDegrees>
              <LongitudeDegrees>-1.78103196434676647186279296875</LongitudeDegrees>
            </Position>
            <AltitudeMeters>569.5999755859375</AltitudeMeters>
            <DistanceMeters>NAN</DistanceMeters>
          </Trackpoint>
          <Trackpoint>
            <Time>2021-08-09T11:16:38.000Z</Time>
            <Position>
              <LatitudeDegrees>42.99791880883276462554931640625</LatitudeDegrees>
              <LongitudeDegrees>-1.78100128658115863800048828125</LongitudeDegrees>
            </Position>
            <AltitudeMeters>570</AltitudeMeters>
            <DistanceMeters>NAN</DistanceMeters>
          </Trackpoint>
          <Trackpoint>
            <Time>2021-08-09T11:16:39.000Z</Time>
            <Position>
              <LatitudeDegrees>42.99790640361607074737548828125</LatitudeDegrees>
              <LongitudeDegrees>-1.7809718661010265350341796875</LongitudeDegrees>
            </Position>
            <AltitudeMeters>570</AltitudeMeters>
            <DistanceMeters>NAN</DistanceMeters>
          </Trackpoint>
          <Trackpoint>
            <Time>2021-08-09T11:16:40.000Z</Time>
            <Position>
              <LatitudeDegrees>42.99789668060839176177978515625</LatitudeDegrees>
              <LongitudeDegrees>-1.7809413559734821319580078125</LongitudeDegrees>
            </Position>
            <AltitudeMeters>570.20001220703125</AltitudeMeters>
            <DistanceMeters>NAN</DistanceMeters>
          </Trackpoint>
          <Trackpoint>
            <Time>2021-08-09T11:16:41.000Z</Time>
            <Position>
              <LatitudeDegrees>42.9978887178003787994384765625</LatitudeDegrees>
              <LongitudeDegrees>-1.7809111811220645904541015625</LongitudeDegrees>
            </Position>
            <AltitudeMeters>570.4000244140625</AltitudeMeters>
            <DistanceMeters>NAN</DistanceMeters>
          </Trackpoint>
          <Trackpoint>
            <Time>2021-08-09T11:16:42.000Z</Time>
            <Position>
              <LatitudeDegrees>42.99788184463977813720703125</LatitudeDegrees>
              <LongitudeDegrees>-1.7808793298900127410888671875</LongitudeDegrees>
            </Position>
            <AltitudeMeters>570.5999755859375</AltitudeMeters>
            <DistanceMeters>NAN</DistanceMeters>
          </Trackpoint>
          <Trackpoint>
            <Time>2021-08-09T11:16:43.000Z</Time>
            <Position>
              <LatitudeDegrees>42.99787337891757488250732421875</LatitudeDegrees>
              <LongitudeDegrees>-1.7808471433818340301513671875</LongitudeDegrees>
            </Position>
            <AltitudeMeters>570.5999755859375</AltitudeMeters>
            <DistanceMeters>NAN</DistanceMeters>
          </Trackpoint>
          <Trackpoint>
            <Time>2021-08-09T11:16:44.000Z</Time>
            <Position>
              <LatitudeDegrees>42.99786231480538845062255859375</LatitudeDegrees>
              <LongitudeDegrees>-1.7808105982840061187744140625</LongitudeDegrees>
            </Position>
            <AltitudeMeters>570.5999755859375</AltitudeMeters>
            <DistanceMeters>NAN</DistanceMeters>
          </Trackpoint>
          <Trackpoint>
            <Time>2021-08-09T11:16:45.000Z</Time>
            <Position>
              <LatitudeDegrees>42.99785435199737548828125</LatitudeDegrees>
              <LongitudeDegrees>-1.780783943831920623779296875</LongitudeDegrees>
            </Position>
            <AltitudeMeters>571</AltitudeMeters>
            <DistanceMeters>NAN</DistanceMeters>
          </Trackpoint>
          <Trackpoint>
            <Time>2021-08-09T11:16:46.000Z</Time>
            <Position>
              <LatitudeDegrees>42.9978421144187450408935546875</LatitudeDegrees>
              <LongitudeDegrees>-1.78074748255312442779541015625</LongitudeDegrees>
            </Position>
            <AltitudeMeters>571</AltitudeMeters>
            <DistanceMeters>NAN</DistanceMeters>
          </Trackpoint>
          <Trackpoint>
            <Time>2021-08-09T11:16:47.000Z</Time>
            <Position>
              <LatitudeDegrees>42.9978364147245883941650390625</LatitudeDegrees>
              <LongitudeDegrees>-1.78072325885295867919921875</LongitudeDegrees>
            </Position>
            <AltitudeMeters>571.20001220703125</AltitudeMeters>
            <DistanceMeters>NAN</DistanceMeters>
          </Trackpoint>
          <Trackpoint>
            <Time>2021-08-09T11:16:48.000Z</Time>
            <Position>
              <LatitudeDegrees>42.9978275299072265625</LatitudeDegrees>
              <LongitudeDegrees>-1.78069333545863628387451171875</LongitudeDegrees>
            </Position>
            <AltitudeMeters>571.20001220703125</AltitudeMeters>
            <DistanceMeters>NAN</DistanceMeters>
          </Trackpoint>
          <Trackpoint>
            <Time>2021-08-09T11:16:49.000Z</Time>
            <Position>
              <LatitudeDegrees>42.99781613051891326904296875</LatitudeDegrees>
              <LongitudeDegrees>-1.78066383115947246551513671875</LongitudeDegrees>
            </Position>
            <AltitudeMeters>571.4000244140625</AltitudeMeters>
            <DistanceMeters>NAN</DistanceMeters>
          </Trackpoint>
          <Trackpoint>
            <Time>2021-08-09T11:16:50.000Z</Time>
            <Position>
              <LatitudeDegrees>42.997805066406726837158203125</LatitudeDegrees>
              <LongitudeDegrees>-1.78063466213643550872802734375</LongitudeDegrees>
            </Position>
            <AltitudeMeters>571.4000244140625</AltitudeMeters>
            <DistanceMeters>NAN</DistanceMeters>
          </Trackpoint>
          <Trackpoint>
            <Time>2021-08-09T11:16:51.000Z</Time>
            <Position>
              <LatitudeDegrees>42.99779525958001613616943359375</LatitudeDegrees>
              <LongitudeDegrees>-1.7805992066860198974609375</LongitudeDegrees>
            </Position>
            <AltitudeMeters>571.79998779296875</AltitudeMeters>
            <DistanceMeters>NAN</DistanceMeters>
          </Trackpoint>
          <Trackpoint>
            <Time>2021-08-09T11:16:52.000Z</Time>
            <Position>
              <LatitudeDegrees>42.997788973152637481689453125</LatitudeDegrees>
              <LongitudeDegrees>-1.7805691994726657867431640625</LongitudeDegrees>
            </Position>
            <AltitudeMeters>572</AltitudeMeters>
            <DistanceMeters>NAN</DistanceMeters>
          </Trackpoint>
          <Trackpoint>
            <Time>2021-08-09T11:16:53.000Z</Time>
            <Position>
              <LatitudeDegrees>42.997782267630100250244140625</LatitudeDegrees>
              <LongitudeDegrees>-1.7805460654199123382568359375</LongitudeDegrees>
            </Position>
            <AltitudeMeters>572.20001220703125</AltitudeMeters>
            <DistanceMeters>NAN</DistanceMeters>
          </Trackpoint>
          <Trackpoint>
            <Time>2021-08-09T11:16:54.000Z</Time>
            <Position>
              <LatitudeDegrees>42.9977740533649921417236328125</LatitudeDegrees>
              <LongitudeDegrees>-1.7805179022252559661865234375</LongitudeDegrees>
            </Position>
            <AltitudeMeters>572.4000244140625</AltitudeMeters>
            <DistanceMeters>NAN</DistanceMeters>
          </Trackpoint>
          <Trackpoint>
            <Time>2021-08-09T11:16:55.000Z</Time>
            <Position>
              <LatitudeDegrees>42.997762151062488555908203125</LatitudeDegrees>
              <LongitudeDegrees>-1.78048445843160152435302734375</LongitudeDegrees>
            </Position>
            <AltitudeMeters>572.5999755859375</AltitudeMeters>
            <DistanceMeters>NAN</DistanceMeters>
          </Trackpoint>
          <Trackpoint>
            <Time>2021-08-09T11:16:56.000Z</Time>
            <Position>
              <LatitudeDegrees>42.9977532662451267242431640625</LatitudeDegrees>
              <LongitudeDegrees>-1.78045545704662799835205078125</LongitudeDegrees>
            </Position>
            <AltitudeMeters>572.79998779296875</AltitudeMeters>
            <DistanceMeters>NAN</DistanceMeters>
          </Trackpoint>
          <Trackpoint>
            <Time>2021-08-09T11:16:57.000Z</Time>
            <Position>
              <LatitudeDegrees>42.99774580635130405426025390625</LatitudeDegrees>
              <LongitudeDegrees>-1.7804290540516376495361328125</LongitudeDegrees>
            </Position>
            <AltitudeMeters>572.79998779296875</AltitudeMeters>
            <DistanceMeters>NAN</DistanceMeters>
          </Trackpoint>
          <Trackpoint>
            <Time>2021-08-09T11:16:58.000Z</Time>
            <Position>
              <LatitudeDegrees>42.99773876555263996124267578125</LatitudeDegrees>
              <LongitudeDegrees>-1.78040835075080394744873046875</LongitudeDegrees>
            </Position>
            <AltitudeMeters>573.4000244140625</AltitudeMeters>
            <DistanceMeters>NAN</DistanceMeters>
          </Trackpoint>
          <Trackpoint>
            <Time>2021-08-09T11:16:59.000Z</Time>
            <Position>
              <LatitudeDegrees>42.9977301321923732757568359375</LatitudeDegrees>
              <LongitudeDegrees>-1.78038169629871845245361328125</LongitudeDegrees>
            </Position>
            <AltitudeMeters>573.5999755859375</AltitudeMeters>
            <DistanceMeters>NAN</DistanceMeters>
          </Trackpoint>
          <Trackpoint>
            <Time>2021-08-09T11:17:00.000Z</Time>
            <Position>
              <LatitudeDegrees>42.9977194033563137054443359375</LatitudeDegrees>
              <LongitudeDegrees>-1.78034850396215915679931640625</LongitudeDegrees>
            </Position>
            <AltitudeMeters>573.79998779296875</AltitudeMeters>
            <DistanceMeters>NAN</DistanceMeters>
          </Trackpoint>
          <Trackpoint>
            <Time>2021-08-09T11:17:01.000Z</Time>
            <Position>
              <LatitudeDegrees>42.997707836329936981201171875</LatitudeDegrees>
              <LongitudeDegrees>-1.78032402880489826202392578125</LongitudeDegrees>
            </Position>
            <AltitudeMeters>574</AltitudeMeters>
            <DistanceMeters>NAN</DistanceMeters>
          </Trackpoint>
          <Trackpoint>
            <Time>2021-08-09T11:17:02.000Z</Time>
            <Position>
              <LatitudeDegrees>42.9976976104080677032470703125</LatitudeDegrees>
              <LongitudeDegrees>-1.7802982963621616363525390625</LongitudeDegrees>
            </Position>
            <AltitudeMeters>574.20001220703125</AltitudeMeters>
            <DistanceMeters>NAN</DistanceMeters>
          </Trackpoint>
          <Trackpoint>
            <Time>2021-08-09T11:17:03.000Z</Time>
            <Position>
              <LatitudeDegrees>42.99768797121942043304443359375</LatitudeDegrees>
              <LongitudeDegrees>-1.7802714742720127105712890625</LongitudeDegrees>
            </Position>
            <AltitudeMeters>574.5999755859375</AltitudeMeters>
            <DistanceMeters>NAN</DistanceMeters>
          </Trackpoint>
          <Trackpoint>
            <Time>2021-08-09T11:17:04.000Z</Time>
            <Position>
              <LatitudeDegrees>42.9976781643927097320556640625</LatitudeDegrees>
              <LongitudeDegrees>-1.78024942986667156219482421875</LongitudeDegrees>
            </Position>
            <AltitudeMeters>574.79998779296875</AltitudeMeters>
            <DistanceMeters>NAN</DistanceMeters>
          </Trackpoint>
          <Trackpoint>
            <Time>2021-08-09T11:17:05.000Z</Time>
            <Position>
              <LatitudeDegrees>42.9976681061089038848876953125</LatitudeDegrees>
              <LongitudeDegrees>-1.7802225239574909210205078125</LongitudeDegrees>
            </Position>
            <AltitudeMeters>575</AltitudeMeters>
            <DistanceMeters>NAN</DistanceMeters>
          </Trackpoint>
          <Trackpoint>
            <Time>2021-08-09T11:17:06.000Z</Time>
            <Position>
              <LatitudeDegrees>42.99766726791858673095703125</LatitudeDegrees>
              <LongitudeDegrees>-1.78019352257251739501953125</LongitudeDegrees>
            </Position>
            <AltitudeMeters>575.20001220703125</AltitudeMeters>
            <DistanceMeters>NAN</DistanceMeters>
          </Trackpoint>
          <Trackpoint>
            <Time>2021-08-09T11:17:07.000Z</Time>
            <Position>
              <LatitudeDegrees>42.99766500480473041534423828125</LatitudeDegrees>
              <LongitudeDegrees>-1.7801688797771930694580078125</LongitudeDegrees>
            </Position>
            <AltitudeMeters>575.4000244140625</AltitudeMeters>
            <DistanceMeters>NAN</DistanceMeters>
          </Trackpoint>
          <Trackpoint>
            <Time>2021-08-09T11:17:08.000Z</Time>
            <Position>
              <LatitudeDegrees>42.99766114912927150726318359375</LatitudeDegrees>
              <LongitudeDegrees>-1.78014230914413928985595703125</LongitudeDegrees>
            </Position>
            <AltitudeMeters>575.5999755859375</AltitudeMeters>
            <DistanceMeters>NAN</DistanceMeters>
          </Trackpoint>
          <Trackpoint>
            <Time>2021-08-09T11:17:09.000Z</Time>
            <Position>
              <LatitudeDegrees>42.99765662290155887603759765625</LatitudeDegrees>
              <LongitudeDegrees>-1.7801209352910518646240234375</LongitudeDegrees>
            </Position>
            <AltitudeMeters>575.79998779296875</AltitudeMeters>
            <DistanceMeters>NAN</DistanceMeters>
          </Trackpoint>
          <Trackpoint>
            <Time>2021-08-09T11:17:10.000Z</Time>
            <Position>
              <LatitudeDegrees>42.9976510070264339447021484375</LatitudeDegrees>
              <LongitudeDegrees>-1.78009369410574436187744140625</LongitudeDegrees>
            </Position>
            <AltitudeMeters>576</AltitudeMeters>
            <DistanceMeters>NAN</DistanceMeters>
          </Trackpoint>
          <Trackpoint>
            <Time>2021-08-09T11:17:11.000Z</Time>
            <Position>
              <LatitudeDegrees>42.99764304421842098236083984375</LatitudeDegrees>
              <LongitudeDegrees>-1.7800615914165973663330078125</LongitudeDegrees>
            </Position>
            <AltitudeMeters>576.20001220703125</AltitudeMeters>
            <DistanceMeters>NAN</DistanceMeters>
          </Trackpoint>
          <Trackpoint>
            <Time>2021-08-09T11:17:12.000Z</Time>
            <Position>
              <LatitudeDegrees>42.99763868562877178192138671875</LatitudeDegrees>
              <LongitudeDegrees>-1.78003535605967044830322265625</LongitudeDegrees>
            </Position>
            <AltitudeMeters>576.4000244140625</AltitudeMeters>
            <DistanceMeters>NAN</DistanceMeters>
          </Trackpoint>
          <Trackpoint>
            <Time>2021-08-09T11:17:13.000Z</Time>
            <Position>
              <LatitudeDegrees>42.99763642251491546630859375</LatitudeDegrees>
              <LongitudeDegrees>-1.7800104618072509765625</LongitudeDegrees>
            </Position>
            <AltitudeMeters>576.4000244140625</AltitudeMeters>
            <DistanceMeters>NAN</DistanceMeters>
          </Trackpoint>
          <Trackpoint>
            <Time>2021-08-09T11:17:14.000Z</Time>
            <Position>
              <LatitudeDegrees>42.9976384341716766357421875</LatitudeDegrees>
              <LongitudeDegrees>-1.77999143488705158233642578125</LongitudeDegrees>
            </Position>
            <AltitudeMeters>576.5999755859375</AltitudeMeters>
            <DistanceMeters>NAN</DistanceMeters>
          </Trackpoint>
          <Trackpoint>
            <Time>2021-08-09T11:17:15.000Z</Time>
            <Position>
              <LatitudeDegrees>42.99763969145715236663818359375</LatitudeDegrees>
              <LongitudeDegrees>-1.77996327169239521026611328125</LongitudeDegrees>
            </Position>
            <AltitudeMeters>576.5999755859375</AltitudeMeters>
            <DistanceMeters>NAN</DistanceMeters>
          </Trackpoint>
          <Trackpoint>
            <Time>2021-08-09T11:17:16.000Z</Time>
            <Position>
              <LatitudeDegrees>42.99764036200940608978271484375</LatitudeDegrees>
              <LongitudeDegrees>-1.779933013021945953369140625</LongitudeDegrees>
            </Position>
            <AltitudeMeters>576.5999755859375</AltitudeMeters>
            <DistanceMeters>NAN</DistanceMeters>
          </Trackpoint>
          <Trackpoint>
            <Time>2021-08-09T11:17:17.000Z</Time>
            <Position>
              <LatitudeDegrees>42.99764178693294525146484375</LatitudeDegrees>
              <LongitudeDegrees>-1.7798964679241180419921875</LongitudeDegrees>
            </Position>
            <AltitudeMeters>576.79998779296875</AltitudeMeters>
            <DistanceMeters>NAN</DistanceMeters>
          </Trackpoint>
          <Trackpoint>
            <Time>2021-08-09T11:17:18.000Z</Time>
            <Position>
              <LatitudeDegrees>42.997642457485198974609375</LatitudeDegrees>
              <LongitudeDegrees>-1.77986285649240016937255859375</LongitudeDegrees>
            </Position>
            <AltitudeMeters>576.79998779296875</AltitudeMeters>
            <DistanceMeters>NAN</DistanceMeters>
          </Trackpoint>
          <Trackpoint>
            <Time>2021-08-09T11:17:19.000Z</Time>
            <Position>
              <LatitudeDegrees>42.99764656461775302886962890625</LatitudeDegrees>
              <LongitudeDegrees>-1.7798265628516674041748046875</LongitudeDegrees>
            </Position>
            <AltitudeMeters>576.79998779296875</AltitudeMeters>
            <DistanceMeters>NAN</DistanceMeters>
          </Trackpoint>
          <Trackpoint>
            <Time>2021-08-09T11:17:20.000Z</Time>
            <Position>
              <LatitudeDegrees>42.99765109084546566009521484375</LatitudeDegrees>
              <LongitudeDegrees>-1.779796890914440155029296875</LongitudeDegrees>
            </Position>
            <AltitudeMeters>576.79998779296875</AltitudeMeters>
            <DistanceMeters>NAN</DistanceMeters>
          </Trackpoint>
          <Trackpoint>
            <Time>2021-08-09T11:17:21.000Z</Time>
            <Position>
              <LatitudeDegrees>42.99765796400606632232666015625</LatitudeDegrees>
              <LongitudeDegrees>-1.77975037135183811187744140625</LongitudeDegrees>
            </Position>
            <AltitudeMeters>577</AltitudeMeters>
            <DistanceMeters>NAN</DistanceMeters>
          </Trackpoint>
          <Trackpoint>
            <Time>2021-08-09T11:17:22.000Z</Time>
            <Position>
              <LatitudeDegrees>42.9976620711386203765869140625</LatitudeDegrees>
              <LongitudeDegrees>-1.77971164695918560028076171875</LongitudeDegrees>
            </Position>
            <AltitudeMeters>577</AltitudeMeters>
            <DistanceMeters>NAN</DistanceMeters>
          </Trackpoint>
          <Trackpoint>
            <Time>2021-08-09T11:17:23.000Z</Time>
            <Position>
              <LatitudeDegrees>42.99766592681407928466796875</LatitudeDegrees>
              <LongitudeDegrees>-1.77967342548072338104248046875</LongitudeDegrees>
            </Position>
            <AltitudeMeters>577.4000244140625</AltitudeMeters>
            <DistanceMeters>NAN</DistanceMeters>
          </Trackpoint>
          <Trackpoint>
            <Time>2021-08-09T11:17:24.000Z</Time>
            <Position>
              <LatitudeDegrees>42.997669614851474761962890625</LatitudeDegrees>
              <LongitudeDegrees>-1.779644005000591278076171875</LongitudeDegrees>
            </Position>
            <AltitudeMeters>577.4000244140625</AltitudeMeters>
            <DistanceMeters>NAN</DistanceMeters>
          </Trackpoint>
          <Trackpoint>
            <Time>2021-08-09T11:17:25.000Z</Time>
            <Position>
              <LatitudeDegrees>42.9976731352508068084716796875</LatitudeDegrees>
              <LongitudeDegrees>-1.77960745990276336669921875</LongitudeDegrees>
            </Position>
            <AltitudeMeters>577.4000244140625</AltitudeMeters>
            <DistanceMeters>NAN</DistanceMeters>
          </Trackpoint>
          <Trackpoint>
            <Time>2021-08-09T11:17:26.000Z</Time>
            <Position>
              <LatitudeDegrees>42.9976751469075679779052734375</LatitudeDegrees>
              <LongitudeDegrees>-1.779561527073383331298828125</LongitudeDegrees>
            </Position>
            <AltitudeMeters>577.4000244140625</AltitudeMeters>
            <DistanceMeters>NAN</DistanceMeters>
          </Trackpoint>
          <Trackpoint>
            <Time>2021-08-09T11:17:27.000Z</Time>
            <Position>
              <LatitudeDegrees>42.997677326202392578125</LatitudeDegrees>
              <LongitudeDegrees>-1.779521293938159942626953125</LongitudeDegrees>
            </Position>
            <AltitudeMeters>577.4000244140625</AltitudeMeters>
            <DistanceMeters>NAN</DistanceMeters>
          </Trackpoint>
          <Trackpoint>
            <Time>2021-08-09T11:17:28.000Z</Time>
            <Position>
              <LatitudeDegrees>42.99768126569688320159912109375</LatitudeDegrees>
              <LongitudeDegrees>-1.7794812284409999847412109375</LongitudeDegrees>
            </Position>
            <AltitudeMeters>577.5999755859375</AltitudeMeters>
            <DistanceMeters>NAN</DistanceMeters>
          </Trackpoint>
          <Trackpoint>
            <Time>2021-08-09T11:17:29.000Z</Time>
            <Position>
              <LatitudeDegrees>42.99768478609621524810791015625</LatitudeDegrees>
              <LongitudeDegrees>-1.7794477008283138275146484375</LongitudeDegrees>
            </Position>
            <AltitudeMeters>577.79998779296875</AltitudeMeters>
            <DistanceMeters>NAN</DistanceMeters>
          </Trackpoint>
          <Trackpoint>
            <Time>2021-08-09T11:17:30.000Z</Time>
            <Position>
              <LatitudeDegrees>42.99768746830523014068603515625</LatitudeDegrees>
              <LongitudeDegrees>-1.7793964035809040069580078125</LongitudeDegrees>
            </Position>
            <AltitudeMeters>577.79998779296875</AltitudeMeters>
            <DistanceMeters>NAN</DistanceMeters>
          </Trackpoint>
          <Trackpoint>
            <Time>2021-08-09T11:17:31.000Z</Time>
            <Position>
              <LatitudeDegrees>42.997691072523593902587890625</LatitudeDegrees>
              <LongitudeDegrees>-1.7793558351695537567138671875</LongitudeDegrees>
            </Position>
            <AltitudeMeters>578</AltitudeMeters>
            <DistanceMeters>NAN</DistanceMeters>
          </Trackpoint>
          <Trackpoint>
            <Time>2021-08-09T11:17:32.000Z</Time>
            <Position>
              <LatitudeDegrees>42.99769585020840167999267578125</LatitudeDegrees>
              <LongitudeDegrees>-1.77931451238691806793212890625</LongitudeDegrees>
            </Position>
            <AltitudeMeters>578</AltitudeMeters>
            <DistanceMeters>NAN</DistanceMeters>
          </Trackpoint>
          <Trackpoint>
            <Time>2021-08-09T11:17:33.000Z</Time>
            <Position>
              <LatitudeDegrees>42.99770171754062175750732421875</LatitudeDegrees>
              <LongitudeDegrees>-1.77927109412848949432373046875</LongitudeDegrees>
            </Position>
            <AltitudeMeters>578</AltitudeMeters>
            <DistanceMeters>NAN</DistanceMeters>
          </Trackpoint>
          <Trackpoint>
            <Time>2021-08-09T11:17:34.000Z</Time>
            <Position>
              <LatitudeDegrees>42.99770414829254150390625</LatitudeDegrees>
              <LongitudeDegrees>-1.7792341299355030059814453125</LongitudeDegrees>
            </Position>
            <AltitudeMeters>578</AltitudeMeters>
            <DistanceMeters>NAN</DistanceMeters>
          </Trackpoint>
          <Trackpoint>
            <Time>2021-08-09T11:17:35.000Z</Time>
            <Position>
              <LatitudeDegrees>42.99770792014896869659423828125</LatitudeDegrees>
              <LongitudeDegrees>-1.77917889319360256195068359375</LongitudeDegrees>
            </Position>
            <AltitudeMeters>578</AltitudeMeters>
            <DistanceMeters>NAN</DistanceMeters>
          </Trackpoint>
          <Trackpoint>
            <Time>2021-08-09T11:17:36.000Z</Time>
            <Position>
              <LatitudeDegrees>42.99770959652960300445556640625</LatitudeDegrees>
              <LongitudeDegrees>-1.77913044579327106475830078125</LongitudeDegrees>
            </Position>
            <AltitudeMeters>578</AltitudeMeters>
            <DistanceMeters>NAN</DistanceMeters>
          </Trackpoint>
          <Trackpoint>
            <Time>2021-08-09T11:17:37.000Z</Time>
            <Position>
              <LatitudeDegrees>42.99771227873861789703369140625</LatitudeDegrees>
              <LongitudeDegrees>-1.779080741107463836669921875</LongitudeDegrees>
            </Position>
            <AltitudeMeters>578</AltitudeMeters>
            <DistanceMeters>NAN</DistanceMeters>
          </Trackpoint>
          <Trackpoint>
            <Time>2021-08-09T11:17:40.000Z</Time>
            <Position>
              <LatitudeDegrees>42.99771764315664768218994140625</LatitudeDegrees>
              <LongitudeDegrees>-1.7789119295775890350341796875</LongitudeDegrees>
            </Position>
            <AltitudeMeters>577.5999755859375</AltitudeMeters>
            <DistanceMeters>NAN</DistanceMeters>
          </Trackpoint>
          <Trackpoint>
            <Time>2021-08-09T11:17:43.000Z</Time>
            <Position>
              <LatitudeDegrees>42.99770909361541271209716796875</LatitudeDegrees>
              <LongitudeDegrees>-1.7787270247936248779296875</LongitudeDegrees>
            </Position>
            <AltitudeMeters>577.4000244140625</AltitudeMeters>
            <DistanceMeters>NAN</DistanceMeters>
          </Trackpoint>
          <Trackpoint>
            <Time>2021-08-09T11:17:45.000Z</Time>
            <Position>
              <LatitudeDegrees>42.99769937060773372650146484375</LatitudeDegrees>
              <LongitudeDegrees>-1.77860163152217864990234375</LongitudeDegrees>
            </Position>
            <AltitudeMeters>577</AltitudeMeters>
            <DistanceMeters>NAN</DistanceMeters>
          </Trackpoint>
          <Trackpoint>
            <Time>2021-08-09T11:17:46.000Z</Time>
            <Position>
              <LatitudeDegrees>42.99769149161875247955322265625</LatitudeDegrees>
              <LongitudeDegrees>-1.77853968925774097442626953125</LongitudeDegrees>
            </Position>
            <AltitudeMeters>576.79998779296875</AltitudeMeters>
            <DistanceMeters>NAN</DistanceMeters>
          </Trackpoint>
          <Trackpoint>
            <Time>2021-08-09T11:17:47.000Z</Time>
            <Position>
              <LatitudeDegrees>42.997683025896549224853515625</LatitudeDegrees>
              <LongitudeDegrees>-1.778478920459747314453125</LongitudeDegrees>
            </Position>
            <AltitudeMeters>576.79998779296875</AltitudeMeters>
            <DistanceMeters>NAN</DistanceMeters>
          </Trackpoint>
          <Trackpoint>
            <Time>2021-08-09T11:17:52.000Z</Time>
            <Position>
              <LatitudeDegrees>42.99766483716666698455810546875</LatitudeDegrees>
              <LongitudeDegrees>-1.778198964893817901611328125</LongitudeDegrees>
            </Position>
            <AltitudeMeters>576.4000244140625</AltitudeMeters>
            <DistanceMeters>NAN</DistanceMeters>
          </Trackpoint>
          <Trackpoint>
            <Time>2021-08-09T11:17:53.000Z</Time>
            <Position>
              <LatitudeDegrees>42.99766668118536472320556640625</LatitudeDegrees>
              <LongitudeDegrees>-1.77815797738730907440185546875</LongitudeDegrees>
            </Position>
            <AltitudeMeters>576.4000244140625</AltitudeMeters>
            <DistanceMeters>NAN</DistanceMeters>
          </Trackpoint>
          <Trackpoint>
            <Time>2021-08-09T11:17:54.000Z</Time>
            <Position>
              <LatitudeDegrees>42.99767271615564823150634765625</LatitudeDegrees>
              <LongitudeDegrees>-1.7780975438654422760009765625</LongitudeDegrees>
            </Position>
            <AltitudeMeters>576.4000244140625</AltitudeMeters>
            <DistanceMeters>NAN</DistanceMeters>
          </Trackpoint>
          <Trackpoint>
            <Time>2021-08-09T11:17:55.000Z</Time>
            <Position>
              <LatitudeDegrees>42.99767891876399517059326171875</LatitudeDegrees>
              <LongitudeDegrees>-1.77804951556026935577392578125</LongitudeDegrees>
            </Position>
            <AltitudeMeters>576.4000244140625</AltitudeMeters>
            <DistanceMeters>NAN</DistanceMeters>
          </Trackpoint>
          <Trackpoint>
            <Time>2021-08-09T11:17:56.000Z</Time>
            <Position>
              <LatitudeDegrees>42.9976855404675006866455078125</LatitudeDegrees>
              <LongitudeDegrees>-1.77800022996962070465087890625</LongitudeDegrees>
            </Position>
            <AltitudeMeters>576.4000244140625</AltitudeMeters>
            <DistanceMeters>NAN</DistanceMeters>
          </Trackpoint>
          <Trackpoint>
            <Time>2021-08-09T11:17:57.000Z</Time>
            <Position>
              <LatitudeDegrees>42.99769048579037189483642578125</LatitudeDegrees>
              <LongitudeDegrees>-1.7779647745192050933837890625</LongitudeDegrees>
            </Position>
            <AltitudeMeters>576.4000244140625</AltitudeMeters>
            <DistanceMeters>NAN</DistanceMeters>
          </Trackpoint>
          <Trackpoint>
            <Time>2021-08-09T11:17:58.000Z</Time>
            <Position>
              <LatitudeDegrees>42.99770004115998744964599609375</LatitudeDegrees>
              <LongitudeDegrees>-1.77791054360568523406982421875</LongitudeDegrees>
            </Position>
            <AltitudeMeters>576.4000244140625</AltitudeMeters>
            <DistanceMeters>NAN</DistanceMeters>
          </Trackpoint>
          <Trackpoint>
            <Time>2021-08-09T11:17:59.000Z</Time>
            <Position>
              <LatitudeDegrees>42.9977113567292690277099609375</LatitudeDegrees>
              <LongitudeDegrees>-1.77786310203373432159423828125</LongitudeDegrees>
            </Position>
            <AltitudeMeters>576.4000244140625</AltitudeMeters>
            <DistanceMeters>NAN</DistanceMeters>
          </Trackpoint>
          <Trackpoint>
            <Time>2021-08-09T11:18:00.000Z</Time>
            <Position>
              <LatitudeDegrees>42.99772334285080432891845703125</LatitudeDegrees>
              <LongitudeDegrees>-1.77781549282371997833251953125</LongitudeDegrees>
            </Position>
            <AltitudeMeters>576.4000244140625</AltitudeMeters>
            <DistanceMeters>NAN</DistanceMeters>
          </Trackpoint>
          <Trackpoint>
            <Time>2021-08-09T11:18:01.000Z</Time>
            <Position>
              <LatitudeDegrees>42.99773055128753185272216796875</LatitudeDegrees>
              <LongitudeDegrees>-1.77776939235627651214599609375</LongitudeDegrees>
            </Position>
            <AltitudeMeters>576.4000244140625</AltitudeMeters>
            <DistanceMeters>NAN</DistanceMeters>
          </Trackpoint>
          <Trackpoint>
            <Time>2021-08-09T11:18:02.000Z</Time>
            <Position>
              <LatitudeDegrees>42.9977378435432910919189453125</LatitudeDegrees>
              <LongitudeDegrees>-1.77773284725844860076904296875</LongitudeDegrees>
            </Position>
            <AltitudeMeters>576.4000244140625</AltitudeMeters>
            <DistanceMeters>NAN</DistanceMeters>
          </Trackpoint>
          <Trackpoint>
            <Time>2021-08-09T11:18:03.000Z</Time>
            <Position>
              <LatitudeDegrees>42.99774647690355777740478515625</LatitudeDegrees>
              <LongitudeDegrees>-1.777690686285495758056640625</LongitudeDegrees>
            </Position>
            <AltitudeMeters>576.5999755859375</AltitudeMeters>
            <DistanceMeters>NAN</DistanceMeters>
          </Trackpoint>
          <Trackpoint>
            <Time>2021-08-09T11:18:04.000Z</Time>
            <Position>
              <LatitudeDegrees>42.99775318242609500885009765625</LatitudeDegrees>
              <LongitudeDegrees>-1.77764265798032283782958984375</LongitudeDegrees>
            </Position>
            <AltitudeMeters>576.5999755859375</AltitudeMeters>
            <DistanceMeters>NAN</DistanceMeters>
          </Trackpoint>
          <Trackpoint>
            <Time>2021-08-09T11:18:05.000Z</Time>
            <Position>
              <LatitudeDegrees>42.99775754101574420928955078125</LatitudeDegrees>
              <LongitudeDegrees>-1.777604855597019195556640625</LongitudeDegrees>
            </Position>
            <AltitudeMeters>576.5999755859375</AltitudeMeters>
            <DistanceMeters>NAN</DistanceMeters>
          </Trackpoint>
          <Trackpoint>
            <Time>2021-08-09T11:18:06.000Z</Time>
            <Position>
              <LatitudeDegrees>42.997763156890869140625</LatitudeDegrees>
              <LongitudeDegrees>-1.777563951909542083740234375</LongitudeDegrees>
            </Position>
            <AltitudeMeters>576.5999755859375</AltitudeMeters>
            <DistanceMeters>NAN</DistanceMeters>
          </Trackpoint>
          <Trackpoint>
            <Time>2021-08-09T11:18:07.000Z</Time>
            <Position>
              <LatitudeDegrees>42.99776508472859859466552734375</LatitudeDegrees>
              <LongitudeDegrees>-1.7775342799723148345947265625</LongitudeDegrees>
            </Position>
            <AltitudeMeters>576.5999755859375</AltitudeMeters>
            <DistanceMeters>NAN</DistanceMeters>
          </Trackpoint>
          <Trackpoint>
            <Time>2021-08-09T11:18:08.000Z</Time>
            <Position>
              <LatitudeDegrees>42.99776609055697917938232421875</LatitudeDegrees>
              <LongitudeDegrees>-1.7774880118668079376220703125</LongitudeDegrees>
            </Position>
            <AltitudeMeters>576.5999755859375</AltitudeMeters>
            <DistanceMeters>NAN</DistanceMeters>
          </Trackpoint>
          <Trackpoint>
            <Time>2021-08-09T11:18:09.000Z</Time>
            <Position>
              <LatitudeDegrees>42.99776542000472545623779296875</LatitudeDegrees>
              <LongitudeDegrees>-1.7774497903883457183837890625</LongitudeDegrees>
            </Position>
            <AltitudeMeters>576.5999755859375</AltitudeMeters>
            <DistanceMeters>NAN</DistanceMeters>
          </Trackpoint>
          <Trackpoint>
            <Time>2021-08-09T11:18:10.000Z</Time>
            <Position>
              <LatitudeDegrees>42.99776424653828144073486328125</LatitudeDegrees>
              <LongitudeDegrees>-1.7774108983576297760009765625</LongitudeDegrees>
            </Position>
            <AltitudeMeters>576.5999755859375</AltitudeMeters>
            <DistanceMeters>NAN</DistanceMeters>
          </Trackpoint>
          <Trackpoint>
            <Time>2021-08-09T11:18:11.000Z</Time>
            <Position>
              <LatitudeDegrees>42.99776642583310604095458984375</LatitudeDegrees>
              <LongitudeDegrees>-1.77737812511622905731201171875</LongitudeDegrees>
            </Position>
            <AltitudeMeters>576.79998779296875</AltitudeMeters>
            <DistanceMeters>NAN</DistanceMeters>
          </Trackpoint>
          <Trackpoint>
            <Time>2021-08-09T11:18:12.000Z</Time>
            <Position>
              <LatitudeDegrees>42.99777589738368988037109375</LatitudeDegrees>
              <LongitudeDegrees>-1.77732624113559722900390625</LongitudeDegrees>
            </Position>
            <AltitudeMeters>576.79998779296875</AltitudeMeters>
            <DistanceMeters>NAN</DistanceMeters>
          </Trackpoint>
          <Trackpoint>
            <Time>2021-08-09T11:18:20.000Z</Time>
            <Position>
              <LatitudeDegrees>42.99784429371356964111328125</LatitudeDegrees>
              <LongitudeDegrees>-1.77695131860673427581787109375</LongitudeDegrees>
            </Position>
            <AltitudeMeters>577.5999755859375</AltitudeMeters>
            <DistanceMeters>NAN</DistanceMeters>
          </Trackpoint>
          <Trackpoint>
            <Time>2021-08-09T11:18:21.000Z</Time>
            <Position>
              <LatitudeDegrees>42.9978530108928680419921875</LatitudeDegrees>
              <LongitudeDegrees>-1.7769036255776882171630859375</LongitudeDegrees>
            </Position>
            <AltitudeMeters>577.79998779296875</AltitudeMeters>
            <DistanceMeters>NAN</DistanceMeters>
          </Trackpoint>
          <Trackpoint>
            <Time>2021-08-09T11:18:25.000Z</Time>
            <Position>
              <LatitudeDegrees>42.997902967035770416259765625</LatitudeDegrees>
              <LongitudeDegrees>-1.7766991071403026580810546875</LongitudeDegrees>
            </Position>
            <AltitudeMeters>578</AltitudeMeters>
            <DistanceMeters>NAN</DistanceMeters>
          </Trackpoint>
          <Trackpoint>
            <Time>2021-08-09T11:18:33.000Z</Time>
            <Position>
              <LatitudeDegrees>42.99797479994595050811767578125</LatitudeDegrees>
              <LongitudeDegrees>-1.776318065822124481201171875</LongitudeDegrees>
            </Position>
            <AltitudeMeters>578.20001220703125</AltitudeMeters>
            <DistanceMeters>NAN</DistanceMeters>
          </Trackpoint>
          <Trackpoint>
            <Time>2021-08-09T11:18:34.000Z</Time>
            <Position>
              <LatitudeDegrees>42.99797764979302883148193359375</LatitudeDegrees>
              <LongitudeDegrees>-1.776267774403095245361328125</LongitudeDegrees>
            </Position>
            <AltitudeMeters>578.20001220703125</AltitudeMeters>
            <DistanceMeters>NAN</DistanceMeters>
          </Trackpoint>
          <Trackpoint>
            <Time>2021-08-09T11:18:35.000Z</Time>
            <Position>
              <LatitudeDegrees>42.99798334948718547821044921875</LatitudeDegrees>
              <LongitudeDegrees>-1.77623047493398189544677734375</LongitudeDegrees>
            </Position>
            <AltitudeMeters>578.20001220703125</AltitudeMeters>
            <DistanceMeters>NAN</DistanceMeters>
          </Trackpoint>
          <Trackpoint>
            <Time>2021-08-09T11:18:36.000Z</Time>
            <Position>
              <LatitudeDegrees>42.99799340777099132537841796875</LatitudeDegrees>
              <LongitudeDegrees>-1.77617347799241542816162109375</LongitudeDegrees>
            </Position>
            <AltitudeMeters>578.4000244140625</AltitudeMeters>
            <DistanceMeters>NAN</DistanceMeters>
          </Trackpoint>
          <Trackpoint>
            <Time>2021-08-09T11:18:37.000Z</Time>
            <Position>
              <LatitudeDegrees>42.99799374304711818695068359375</LatitudeDegrees>
              <LongitudeDegrees>-1.77612151019275188446044921875</LongitudeDegrees>
            </Position>
            <AltitudeMeters>578.4000244140625</AltitudeMeters>
            <DistanceMeters>NAN</DistanceMeters>
          </Trackpoint>
          <Trackpoint>
            <Time>2021-08-09T11:18:41.000Z</Time>
            <Position>
              <LatitudeDegrees>42.9980053938925266265869140625</LatitudeDegrees>
              <LongitudeDegrees>-1.7759269662201404571533203125</LongitudeDegrees>
            </Position>
            <AltitudeMeters>578.4000244140625</AltitudeMeters>
            <DistanceMeters>NAN</DistanceMeters>
          </Trackpoint>
          <Trackpoint>
            <Time>2021-08-09T11:18:48.000Z</Time>
            <Position>
              <LatitudeDegrees>42.998066246509552001953125</LatitudeDegrees>
              <LongitudeDegrees>-1.77559529431164264678955078125</LongitudeDegrees>
            </Position>
            <AltitudeMeters>578.5999755859375</AltitudeMeters>
            <DistanceMeters>NAN</DistanceMeters>
          </Trackpoint>
          <Trackpoint>
            <Time>2021-08-09T11:18:50.000Z</Time>
            <Position>
              <LatitudeDegrees>42.9980774782598018646240234375</LatitudeDegrees>
              <LongitudeDegrees>-1.77551985718309879302978515625</LongitudeDegrees>
            </Position>
            <AltitudeMeters>578.79998779296875</AltitudeMeters>
            <DistanceMeters>NAN</DistanceMeters>
          </Trackpoint>
          <Trackpoint>
            <Time>2021-08-09T11:18:51.000Z</Time>
            <Position>
              <LatitudeDegrees>42.99808762036263942718505859375</LatitudeDegrees>
              <LongitudeDegrees>-1.77546855993568897247314453125</LongitudeDegrees>
            </Position>
            <AltitudeMeters>578.79998779296875</AltitudeMeters>
            <DistanceMeters>NAN</DistanceMeters>
          </Trackpoint>
          <Trackpoint>
            <Time>2021-08-09T11:18:52.000Z</Time>
            <Position>
              <LatitudeDegrees>42.99809382297098636627197265625</LatitudeDegrees>
              <LongitudeDegrees>-1.7754294164478778839111328125</LongitudeDegrees>
            </Position>
            <AltitudeMeters>578.79998779296875</AltitudeMeters>
            <DistanceMeters>NAN</DistanceMeters>
          </Trackpoint>
          <Trackpoint>
            <Time>2021-08-09T11:18:53.000Z</Time>
            <Position>
              <LatitudeDegrees>42.99810203723609447479248046875</LatitudeDegrees>
              <LongitudeDegrees>-1.7753898538649082183837890625</LongitudeDegrees>
            </Position>
            <AltitudeMeters>579</AltitudeMeters>
            <DistanceMeters>NAN</DistanceMeters>
          </Trackpoint>
          <Trackpoint>
            <Time>2021-08-09T11:18:54.000Z</Time>
            <Position>
              <LatitudeDegrees>42.99811125732958316802978515625</LatitudeDegrees>
              <LongitudeDegrees>-1.77535171620547771453857421875</LongitudeDegrees>
            </Position>
            <AltitudeMeters>579</AltitudeMeters>
            <DistanceMeters>NAN</DistanceMeters>
          </Trackpoint>
          <Trackpoint>
            <Time>2021-08-09T11:18:55.000Z</Time>
            <Position>
              <LatitudeDegrees>42.99811913631856441497802734375</LatitudeDegrees>
              <LongitudeDegrees>-1.7753181047737598419189453125</LongitudeDegrees>
            </Position>
            <AltitudeMeters>579</AltitudeMeters>
            <DistanceMeters>NAN</DistanceMeters>
          </Trackpoint>
          <Trackpoint>
            <Time>2021-08-09T11:18:56.000Z</Time>
            <Position>
              <LatitudeDegrees>42.99812852405011653900146484375</LatitudeDegrees>
              <LongitudeDegrees>-1.7752688191831111907958984375</LongitudeDegrees>
            </Position>
            <AltitudeMeters>579</AltitudeMeters>
            <DistanceMeters>NAN</DistanceMeters>
          </Trackpoint>
          <Trackpoint>
            <Time>2021-08-09T11:18:57.000Z</Time>
            <Position>
              <LatitudeDegrees>42.998135648667812347412109375</LatitudeDegrees>
              <LongitudeDegrees>-1.77522917278110980987548828125</LongitudeDegrees>
            </Position>
            <AltitudeMeters>579.20001220703125</AltitudeMeters>
            <DistanceMeters>NAN</DistanceMeters>
          </Trackpoint>
          <Trackpoint>
            <Time>2021-08-09T11:18:58.000Z</Time>
            <Position>
              <LatitudeDegrees>42.99814092926681041717529296875</LatitudeDegrees>
              <LongitudeDegrees>-1.77519656717777252197265625</LongitudeDegrees>
            </Position>
            <AltitudeMeters>579.4000244140625</AltitudeMeters>
            <DistanceMeters>NAN</DistanceMeters>
          </Trackpoint>
          <Trackpoint>
            <Time>2021-08-09T11:18:59.000Z</Time>
            <Position>
              <LatitudeDegrees>42.99814662896096706390380859375</LatitudeDegrees>
              <LongitudeDegrees>-1.77515524439513683319091796875</LongitudeDegrees>
            </Position>
            <AltitudeMeters>579.5999755859375</AltitudeMeters>
            <DistanceMeters>NAN</DistanceMeters>
          </Trackpoint>
          <Trackpoint>
            <Time>2021-08-09T11:19:00.000Z</Time>
            <Position>
              <LatitudeDegrees>42.9981525801122188568115234375</LatitudeDegrees>
              <LongitudeDegrees>-1.7751025222241878509521484375</LongitudeDegrees>
            </Position>
            <AltitudeMeters>579.79998779296875</AltitudeMeters>
            <DistanceMeters>NAN</DistanceMeters>
          </Trackpoint>
          <Trackpoint>
            <Time>2021-08-09T11:19:04.000Z</Time>
            <Position>
              <LatitudeDegrees>42.9981566034257411956787109375</LatitudeDegrees>
              <LongitudeDegrees>-1.77493815310299396514892578125</LongitudeDegrees>
            </Position>
            <AltitudeMeters>580.4000244140625</AltitudeMeters>
            <DistanceMeters>NAN</DistanceMeters>
          </Trackpoint>
          <Trackpoint>
            <Time>2021-08-09T11:19:05.000Z</Time>
            <Position>
              <LatitudeDegrees>42.9981576092541217803955078125</LatitudeDegrees>
              <LongitudeDegrees>-1.77488945424556732177734375</LongitudeDegrees>
            </Position>
            <AltitudeMeters>580.4000244140625</AltitudeMeters>
            <DistanceMeters>NAN</DistanceMeters>
          </Trackpoint>
          <Trackpoint>
            <Time>2021-08-09T11:19:06.000Z</Time>
            <Position>
              <LatitudeDegrees>42.99815920181572437286376953125</LatitudeDegrees>
              <LongitudeDegrees>-1.7748503945767879486083984375</LongitudeDegrees>
            </Position>
            <AltitudeMeters>580.5999755859375</AltitudeMeters>
            <DistanceMeters>NAN</DistanceMeters>
          </Trackpoint>
          <Trackpoint>
            <Time>2021-08-09T11:19:07.000Z</Time>
            <Position>
              <LatitudeDegrees>42.9981629736721515655517578125</LatitudeDegrees>
              <LongitudeDegrees>-1.774815022945404052734375</LongitudeDegrees>
            </Position>
            <AltitudeMeters>580.5999755859375</AltitudeMeters>
            <DistanceMeters>NAN</DistanceMeters>
          </Trackpoint>
          <Trackpoint>
            <Time>2021-08-09T11:19:08.000Z</Time>
            <Position>
              <LatitudeDegrees>42.99816473387181758880615234375</LatitudeDegrees>
              <LongitudeDegrees>-1.77478292025625705718994140625</LongitudeDegrees>
            </Position>
            <AltitudeMeters>580.5999755859375</AltitudeMeters>
            <DistanceMeters>NAN</DistanceMeters>
          </Trackpoint>
          <Trackpoint>
            <Time>2021-08-09T11:19:10.000Z</Time>
            <Position>
              <LatitudeDegrees>42.99816657789051532745361328125</LatitudeDegrees>
              <LongitudeDegrees>-1.77471905015408992767333984375</LongitudeDegrees>
            </Position>
            <AltitudeMeters>580.5999755859375</AltitudeMeters>
            <DistanceMeters>NAN</DistanceMeters>
          </Trackpoint>
          <Trackpoint>
            <Time>2021-08-09T11:19:11.000Z</Time>
            <Position>
              <LatitudeDegrees>42.99816749989986419677734375</LatitudeDegrees>
              <LongitudeDegrees>-1.7746837623417377471923828125</LongitudeDegrees>
            </Position>
            <AltitudeMeters>580.5999755859375</AltitudeMeters>
            <DistanceMeters>NAN</DistanceMeters>
          </Trackpoint>
          <Trackpoint>
            <Time>2021-08-09T11:19:12.000Z</Time>
            <Position>
              <LatitudeDegrees>42.99816674552857875823974609375</LatitudeDegrees>
              <LongitudeDegrees>-1.77465207874774932861328125</LongitudeDegrees>
            </Position>
            <AltitudeMeters>580.79998779296875</AltitudeMeters>
            <DistanceMeters>NAN</DistanceMeters>
          </Trackpoint>
          <Trackpoint>
            <Time>2021-08-09T11:19:13.000Z</Time>
            <Position>
              <LatitudeDegrees>42.9981666617095470428466796875</LatitudeDegrees>
              <LongitudeDegrees>-1.77463456057012081146240234375</LongitudeDegrees>
            </Position>
            <AltitudeMeters>580.79998779296875</AltitudeMeters>
            <DistanceMeters>NAN</DistanceMeters>
          </Trackpoint>
          <Trackpoint>
            <Time>2021-08-09T11:19:14.000Z</Time>
            <Position>
              <LatitudeDegrees>42.9981668293476104736328125</LatitudeDegrees>
              <LongitudeDegrees>-1.774614192545413970947265625</LongitudeDegrees>
            </Position>
            <AltitudeMeters>580.79998779296875</AltitudeMeters>
            <DistanceMeters>NAN</DistanceMeters>
          </Trackpoint>
          <Trackpoint>
            <Time>2021-08-09T11:19:15.000Z</Time>
            <Position>
              <LatitudeDegrees>42.9981683380901813507080078125</LatitudeDegrees>
              <LongitudeDegrees>-1.77459365688264369964599609375</LongitudeDegrees>
            </Position>
            <AltitudeMeters>580.79998779296875</AltitudeMeters>
            <DistanceMeters>NAN</DistanceMeters>
          </Trackpoint>
          <Trackpoint>
            <Time>2021-08-09T11:19:16.000Z</Time>
            <Position>
              <LatitudeDegrees>42.99817093648016452789306640625</LatitudeDegrees>
              <LongitudeDegrees>-1.77457689307630062103271484375</LongitudeDegrees>
            </Position>
            <AltitudeMeters>581</AltitudeMeters>
            <DistanceMeters>NAN</DistanceMeters>
          </Trackpoint>
          <Trackpoint>
            <Time>2021-08-09T11:19:17.000Z</Time>
            <Position>
              <LatitudeDegrees>42.99817462451756000518798828125</LatitudeDegrees>
              <LongitudeDegrees>-1.77456264384090900421142578125</LongitudeDegrees>
            </Position>
            <AltitudeMeters>581</AltitudeMeters>
            <DistanceMeters>NAN</DistanceMeters>
          </Trackpoint>
          <Trackpoint>
            <Time>2021-08-09T11:19:18.000Z</Time>
            <Position>
              <LatitudeDegrees>42.99817797727882862091064453125</LatitudeDegrees>
              <LongitudeDegrees>-1.77455283701419830322265625</LongitudeDegrees>
            </Position>
            <AltitudeMeters>581</AltitudeMeters>
            <DistanceMeters>NAN</DistanceMeters>
          </Trackpoint>
          <Trackpoint>
            <Time>2021-08-09T11:19:19.000Z</Time>
            <Position>
              <LatitudeDegrees>42.998186610639095306396484375</LatitudeDegrees>
              <LongitudeDegrees>-1.77453850395977497100830078125</LongitudeDegrees>
            </Position>
            <AltitudeMeters>581</AltitudeMeters>
            <DistanceMeters>NAN</DistanceMeters>
          </Trackpoint>
          <Trackpoint>
            <Time>2021-08-09T11:19:20.000Z</Time>
            <Position>
              <LatitudeDegrees>42.99819474108517169952392578125</LatitudeDegrees>
              <LongitudeDegrees>-1.774528026580810546875</LongitudeDegrees>
            </Position>
            <AltitudeMeters>581.20001220703125</AltitudeMeters>
            <DistanceMeters>NAN</DistanceMeters>
          </Trackpoint>
          <Trackpoint>
            <Time>2021-08-09T11:19:21.000Z</Time>
            <Position>
              <LatitudeDegrees>42.99820194952189922332763671875</LatitudeDegrees>
              <LongitudeDegrees>-1.7745241709053516387939453125</LongitudeDegrees>
            </Position>
            <AltitudeMeters>581.20001220703125</AltitudeMeters>
            <DistanceMeters>NAN</DistanceMeters>
          </Trackpoint>
          <Trackpoint>
            <Time>2021-08-09T11:19:22.000Z</Time>
            <Position>
              <LatitudeDegrees>42.99821016378700733184814453125</LatitudeDegrees>
              <LongitudeDegrees>-1.77452291361987590789794921875</LongitudeDegrees>
            </Position>
            <AltitudeMeters>581.20001220703125</AltitudeMeters>
            <DistanceMeters>NAN</DistanceMeters>
          </Trackpoint>
          <Trackpoint>
            <Time>2021-08-09T11:19:23.000Z</Time>
            <Position>
              <LatitudeDegrees>42.99822038970887660980224609375</LatitudeDegrees>
              <LongitudeDegrees>-1.7745228298008441925048828125</LongitudeDegrees>
            </Position>
            <AltitudeMeters>581.20001220703125</AltitudeMeters>
            <DistanceMeters>NAN</DistanceMeters>
          </Trackpoint>
          <Trackpoint>
            <Time>2021-08-09T11:19:24.000Z</Time>
            <Position>
              <LatitudeDegrees>42.9982338845729827880859375</LatitudeDegrees>
              <LongitudeDegrees>-1.7745127715170383453369140625</LongitudeDegrees>
            </Position>
            <AltitudeMeters>581.4000244140625</AltitudeMeters>
            <DistanceMeters>NAN</DistanceMeters>
          </Trackpoint>
          <Trackpoint>
            <Time>2021-08-09T11:19:26.000Z</Time>
            <Position>
              <LatitudeDegrees>42.99824084155261516571044921875</LatitudeDegrees>
              <LongitudeDegrees>-1.77447102963924407958984375</LongitudeDegrees>
            </Position>
            <AltitudeMeters>581.4000244140625</AltitudeMeters>
            <DistanceMeters>NAN</DistanceMeters>
          </Trackpoint>
          <Trackpoint>
            <Time>2021-08-09T11:19:27.000Z</Time>
            <Position>
              <LatitudeDegrees>42.99823732115328311920166015625</LatitudeDegrees>
              <LongitudeDegrees>-1.77444580011069774627685546875</LongitudeDegrees>
            </Position>
            <AltitudeMeters>581.4000244140625</AltitudeMeters>
            <DistanceMeters>NAN</DistanceMeters>
          </Trackpoint>
          <Trackpoint>
            <Time>2021-08-09T11:19:28.000Z</Time>
            <Position>
              <LatitudeDegrees>42.9982380755245685577392578125</LatitudeDegrees>
              <LongitudeDegrees>-1.77442618645727634429931640625</LongitudeDegrees>
            </Position>
            <AltitudeMeters>581.4000244140625</AltitudeMeters>
            <DistanceMeters>NAN</DistanceMeters>
          </Trackpoint>
          <Trackpoint>
            <Time>2021-08-09T11:19:29.000Z</Time>
            <Position>
              <LatitudeDegrees>42.99825039692223072052001953125</LatitudeDegrees>
              <LongitudeDegrees>-1.7744081653654575347900390625</LongitudeDegrees>
            </Position>
            <AltitudeMeters>581.4000244140625</AltitudeMeters>
            <DistanceMeters>NAN</DistanceMeters>
          </Trackpoint>
          <Trackpoint>
            <Time>2021-08-09T11:19:30.000Z</Time>
            <Position>
              <LatitudeDegrees>42.9982578568160533905029296875</LatitudeDegrees>
              <LongitudeDegrees>-1.77441176958382129669189453125</LongitudeDegrees>
            </Position>
            <AltitudeMeters>581.4000244140625</AltitudeMeters>
            <DistanceMeters>NAN</DistanceMeters>
          </Trackpoint>
          <Trackpoint>
            <Time>2021-08-09T11:19:31.000Z</Time>
            <Position>
              <LatitudeDegrees>42.998259365558624267578125</LatitudeDegrees>
              <LongitudeDegrees>-1.77441964857280254364013671875</LongitudeDegrees>
            </Position>
            <AltitudeMeters>581.4000244140625</AltitudeMeters>
            <DistanceMeters>NAN</DistanceMeters>
          </Trackpoint>
          <Trackpoint>
            <Time>2021-08-09T11:19:32.000Z</Time>
            <Position>
              <LatitudeDegrees>42.99825869500637054443359375</LatitudeDegrees>
              <LongitudeDegrees>-1.77442434243857860565185546875</LongitudeDegrees>
            </Position>
            <AltitudeMeters>581.4000244140625</AltitudeMeters>
            <DistanceMeters>NAN</DistanceMeters>
          </Trackpoint>
          <Trackpoint>
            <Time>2021-08-09T11:19:34.000Z</Time>
            <Position>
              <LatitudeDegrees>42.99825869500637054443359375</LatitudeDegrees>
              <LongitudeDegrees>-1.77442434243857860565185546875</LongitudeDegrees>
            </Position>
            <AltitudeMeters>581.4000244140625</AltitudeMeters>
            <DistanceMeters>NAN</DistanceMeters>
          </Trackpoint>
          <Trackpoint>
            <Time>2021-08-09T11:20:11.000Z</Time>
            <Position>
              <LatitudeDegrees>42.998259365558624267578125</LatitudeDegrees>
              <LongitudeDegrees>-1.77442819811403751373291015625</LongitudeDegrees>
            </Position>
            <AltitudeMeters>581</AltitudeMeters>
            <DistanceMeters>NAN</DistanceMeters>
          </Trackpoint>
          <Trackpoint>
            <Time>2021-08-09T11:20:15.000Z</Time>
            <Position>
              <LatitudeDegrees>42.99829381518065929412841796875</LatitudeDegrees>
              <LongitudeDegrees>-1.77449005655944347381591796875</LongitudeDegrees>
            </Position>
            <AltitudeMeters>580.79998779296875</AltitudeMeters>
            <DistanceMeters>NAN</DistanceMeters>
          </Trackpoint>
          <Trackpoint>
            <Time>2021-08-09T11:20:16.000Z</Time>
            <Position>
              <LatitudeDegrees>42.998311333358287811279296875</LatitudeDegrees>
              <LongitudeDegrees>-1.7744983546435832977294921875</LongitudeDegrees>
            </Position>
            <AltitudeMeters>580.79998779296875</AltitudeMeters>
            <DistanceMeters>NAN</DistanceMeters>
          </Trackpoint>
          <Trackpoint>
            <Time>2021-08-09T11:20:17.000Z</Time>
            <Position>
              <LatitudeDegrees>42.99833890981972217559814453125</LatitudeDegrees>
              <LongitudeDegrees>-1.7745033837854862213134765625</LongitudeDegrees>
            </Position>
            <AltitudeMeters>580.5999755859375</AltitudeMeters>
            <DistanceMeters>NAN</DistanceMeters>
          </Trackpoint>
          <Trackpoint>
            <Time>2021-08-09T11:20:18.000Z</Time>
            <Position>
              <LatitudeDegrees>42.998371683061122894287109375</LatitudeDegrees>
              <LongitudeDegrees>-1.77451084367930889129638671875</LongitudeDegrees>
            </Position>
            <AltitudeMeters>580.5999755859375</AltitudeMeters>
            <DistanceMeters>NAN</DistanceMeters>
          </Trackpoint>
          <Trackpoint>
            <Time>2021-08-09T11:20:19.000Z</Time>
            <Position>
              <LatitudeDegrees>42.99840630032122135162353515625</LatitudeDegrees>
              <LongitudeDegrees>-1.77451905794441699981689453125</LongitudeDegrees>
            </Position>
            <AltitudeMeters>580.5999755859375</AltitudeMeters>
            <DistanceMeters>NAN</DistanceMeters>
          </Trackpoint>
          <Trackpoint>
            <Time>2021-08-09T11:20:22.000Z</Time>
            <Position>
              <LatitudeDegrees>42.998502440750598907470703125</LatitudeDegrees>
              <LongitudeDegrees>-1.7745110951364040374755859375</LongitudeDegrees>
            </Position>
            <AltitudeMeters>580.20001220703125</AltitudeMeters>
            <DistanceMeters>NAN</DistanceMeters>
          </Trackpoint>
          <Trackpoint>
            <Time>2021-08-09T11:20:23.000Z</Time>
            <Position>
              <LatitudeDegrees>42.99852767027914524078369140625</LatitudeDegrees>
              <LongitudeDegrees>-1.774503886699676513671875</LongitudeDegrees>
            </Position>
            <AltitudeMeters>580</AltitudeMeters>
            <DistanceMeters>NAN</DistanceMeters>
          </Trackpoint>
          <Trackpoint>
            <Time>2021-08-09T11:20:24.000Z</Time>
            <Position>
              <LatitudeDegrees>42.99854141660034656524658203125</LatitudeDegrees>
              <LongitudeDegrees>-1.77448536269366741180419921875</LongitudeDegrees>
            </Position>
            <AltitudeMeters>579.79998779296875</AltitudeMeters>
            <DistanceMeters>NAN</DistanceMeters>
          </Trackpoint>
          <Trackpoint>
            <Time>2021-08-09T11:20:25.000Z</Time>
            <Position>
              <LatitudeDegrees>42.99854795448482036590576171875</LatitudeDegrees>
              <LongitudeDegrees>-1.77445367909967899322509765625</LongitudeDegrees>
            </Position>
            <AltitudeMeters>579.5999755859375</AltitudeMeters>
            <DistanceMeters>NAN</DistanceMeters>
          </Trackpoint>
          <Trackpoint>
            <Time>2021-08-09T11:20:26.000Z</Time>
            <Position>
              <LatitudeDegrees>42.99854569137096405029296875</LatitudeDegrees>
              <LongitudeDegrees>-1.77442903630435466766357421875</LongitudeDegrees>
            </Position>
            <AltitudeMeters>579.4000244140625</AltitudeMeters>
            <DistanceMeters>NAN</DistanceMeters>
          </Trackpoint>
          <Trackpoint>
            <Time>2021-08-09T11:20:27.000Z</Time>
            <Position>
              <LatitudeDegrees>42.9985441826283931732177734375</LatitudeDegrees>
              <LongitudeDegrees>-1.77440925501286983489990234375</LongitudeDegrees>
            </Position>
            <AltitudeMeters>579.4000244140625</AltitudeMeters>
            <DistanceMeters>NAN</DistanceMeters>
          </Trackpoint>
          <Trackpoint>
            <Time>2021-08-09T11:20:28.000Z</Time>
            <Position>
              <LatitudeDegrees>42.9985411651432514190673828125</LatitudeDegrees>
              <LongitudeDegrees>-1.77439198829233646392822265625</LongitudeDegrees>
            </Position>
            <AltitudeMeters>579.20001220703125</AltitudeMeters>
            <DistanceMeters>NAN</DistanceMeters>
          </Trackpoint>
          <Trackpoint>
            <Time>2021-08-09T11:20:29.000Z</Time>
            <Position>
              <LatitudeDegrees>42.998539321124553680419921875</LatitudeDegrees>
              <LongitudeDegrees>-1.77437245845794677734375</LongitudeDegrees>
            </Position>
            <AltitudeMeters>579.20001220703125</AltitudeMeters>
            <DistanceMeters>NAN</DistanceMeters>
          </Trackpoint>
          <Trackpoint>
            <Time>2021-08-09T11:20:33.000Z</Time>
            <Position>
              <LatitudeDegrees>42.99851861782371997833251953125</LatitudeDegrees>
              <LongitudeDegrees>-1.7742871306836605072021484375</LongitudeDegrees>
            </Position>
            <AltitudeMeters>579.20001220703125</AltitudeMeters>
            <DistanceMeters>NAN</DistanceMeters>
          </Trackpoint>
          <Trackpoint>
            <Time>2021-08-09T11:20:35.000Z</Time>
            <Position>
              <LatitudeDegrees>42.99850353039801120758056640625</LatitudeDegrees>
              <LongitudeDegrees>-1.77424907684326171875</LongitudeDegrees>
            </Position>
            <AltitudeMeters>579.20001220703125</AltitudeMeters>
            <DistanceMeters>NAN</DistanceMeters>
          </Trackpoint>
          <Trackpoint>
            <Time>2021-08-09T11:20:36.000Z</Time>
            <Position>
              <LatitudeDegrees>42.9984995909035205841064453125</LatitudeDegrees>
              <LongitudeDegrees>-1.77423021756112575531005859375</LongitudeDegrees>
            </Position>
            <AltitudeMeters>579.5999755859375</AltitudeMeters>
            <DistanceMeters>NAN</DistanceMeters>
          </Trackpoint>
          <Trackpoint>
            <Time>2021-08-09T11:20:37.000Z</Time>
            <Position>
              <LatitudeDegrees>42.99849632196128368377685546875</LatitudeDegrees>
              <LongitudeDegrees>-1.774212531745433807373046875</LongitudeDegrees>
            </Position>
            <AltitudeMeters>579.5999755859375</AltitudeMeters>
            <DistanceMeters>NAN</DistanceMeters>
          </Trackpoint>
          <Trackpoint>
            <Time>2021-08-09T11:20:38.000Z</Time>
            <Position>
              <LatitudeDegrees>42.9984922148287296295166015625</LatitudeDegrees>
              <LongitudeDegrees>-1.77418730221688747406005859375</LongitudeDegrees>
            </Position>
            <AltitudeMeters>579.79998779296875</AltitudeMeters>
            <DistanceMeters>NAN</DistanceMeters>
          </Trackpoint>
          <Trackpoint>
            <Time>2021-08-09T11:20:39.000Z</Time>
            <Position>
              <LatitudeDegrees>42.998495064675807952880859375</LatitudeDegrees>
              <LongitudeDegrees>-1.7741645872592926025390625</LongitudeDegrees>
            </Position>
            <AltitudeMeters>579.79998779296875</AltitudeMeters>
            <DistanceMeters>NAN</DistanceMeters>
          </Trackpoint>
          <Trackpoint>
            <Time>2021-08-09T11:20:40.000Z</Time>
            <Position>
              <LatitudeDegrees>42.99849598668515682220458984375</LatitudeDegrees>
              <LongitudeDegrees>-1.77414245903491973876953125</LongitudeDegrees>
            </Position>
            <AltitudeMeters>579.79998779296875</AltitudeMeters>
            <DistanceMeters>NAN</DistanceMeters>
          </Trackpoint>
          <Trackpoint>
            <Time>2021-08-09T11:20:48.000Z</Time>
            <Position>
              <LatitudeDegrees>42.99848995171487331390380859375</LatitudeDegrees>
              <LongitudeDegrees>-1.7739786766469478607177734375</LongitudeDegrees>
            </Position>
            <AltitudeMeters>580.20001220703125</AltitudeMeters>
            <DistanceMeters>NAN</DistanceMeters>
          </Trackpoint>
          <Trackpoint>
            <Time>2021-08-09T11:20:49.000Z</Time>
            <Position>
              <LatitudeDegrees>42.99848861061036586761474609375</LatitudeDegrees>
              <LongitudeDegrees>-1.77396476268768310546875</LongitudeDegrees>
            </Position>
            <AltitudeMeters>580.4000244140625</AltitudeMeters>
            <DistanceMeters>NAN</DistanceMeters>
          </Trackpoint>
          <Trackpoint>
            <Time>2021-08-09T11:20:50.000Z</Time>
            <Position>
              <LatitudeDegrees>42.99848995171487331390380859375</LatitudeDegrees>
              <LongitudeDegrees>-1.77394825033843517303466796875</LongitudeDegrees>
            </Position>
            <AltitudeMeters>580.4000244140625</AltitudeMeters>
            <DistanceMeters>NAN</DistanceMeters>
          </Trackpoint>
          <Trackpoint>
            <Time>2021-08-09T11:20:51.000Z</Time>
            <Position>
              <LatitudeDegrees>42.99849347211420536041259765625</LatitudeDegrees>
              <LongitudeDegrees>-1.773935593664646148681640625</LongitudeDegrees>
            </Position>
            <AltitudeMeters>580.4000244140625</AltitudeMeters>
            <DistanceMeters>NAN</DistanceMeters>
          </Trackpoint>
          <Trackpoint>
            <Time>2021-08-09T11:20:52.000Z</Time>
            <Position>
              <LatitudeDegrees>42.99849498085677623748779296875</LatitudeDegrees>
              <LongitudeDegrees>-1.7739151418209075927734375</LongitudeDegrees>
            </Position>
            <AltitudeMeters>580.4000244140625</AltitudeMeters>
            <DistanceMeters>NAN</DistanceMeters>
          </Trackpoint>
          <Trackpoint>
            <Time>2021-08-09T11:20:53.000Z</Time>
            <Position>
              <LatitudeDegrees>42.998497746884822845458984375</LatitudeDegrees>
              <LongitudeDegrees>-1.77389837801456451416015625</LongitudeDegrees>
            </Position>
            <AltitudeMeters>580.4000244140625</AltitudeMeters>
            <DistanceMeters>NAN</DistanceMeters>
          </Trackpoint>
          <Trackpoint>
            <Time>2021-08-09T11:20:54.000Z</Time>
            <Position>
              <LatitudeDegrees>42.99850420095026493072509765625</LatitudeDegrees>
              <LongitudeDegrees>-1.77387666888535022735595703125</LongitudeDegrees>
            </Position>
            <AltitudeMeters>580.4000244140625</AltitudeMeters>
            <DistanceMeters>NAN</DistanceMeters>
          </Trackpoint>
          <Trackpoint>
            <Time>2021-08-09T11:20:55.000Z</Time>
            <Position>
              <LatitudeDegrees>42.99851627089083194732666015625</LatitudeDegrees>
              <LongitudeDegrees>-1.77385370247066020965576171875</LongitudeDegrees>
            </Position>
            <AltitudeMeters>580.4000244140625</AltitudeMeters>
            <DistanceMeters>NAN</DistanceMeters>
          </Trackpoint>
          <Trackpoint>
            <Time>2021-08-09T11:20:57.000Z</Time>
            <Position>
              <LatitudeDegrees>42.998552732169628143310546875</LatitudeDegrees>
              <LongitudeDegrees>-1.77382453344762325286865234375</LongitudeDegrees>
            </Position>
            <AltitudeMeters>580.20001220703125</AltitudeMeters>
            <DistanceMeters>NAN</DistanceMeters>
          </Trackpoint>
          <Trackpoint>
            <Time>2021-08-09T11:20:58.000Z</Time>
            <Position>
              <LatitudeDegrees>42.9985726810991764068603515625</LatitudeDegrees>
              <LongitudeDegrees>-1.77381430752575397491455078125</LongitudeDegrees>
            </Position>
            <AltitudeMeters>580.20001220703125</AltitudeMeters>
            <DistanceMeters>NAN</DistanceMeters>
          </Trackpoint>
          <Trackpoint>
            <Time>2021-08-09T11:20:59.000Z</Time>
            <Position>
              <LatitudeDegrees>42.99859204329550266265869140625</LatitudeDegrees>
              <LongitudeDegrees>-1.7738105356693267822265625</LongitudeDegrees>
            </Position>
            <AltitudeMeters>580</AltitudeMeters>
            <DistanceMeters>NAN</DistanceMeters>
          </Trackpoint>
          <Trackpoint>
            <Time>2021-08-09T11:21:00.000Z</Time>
            <Position>
              <LatitudeDegrees>42.99861115403473377227783203125</LatitudeDegrees>
              <LongitudeDegrees>-1.773809529840946197509765625</LongitudeDegrees>
            </Position>
            <AltitudeMeters>580</AltitudeMeters>
            <DistanceMeters>NAN</DistanceMeters>
          </Trackpoint>
          <Trackpoint>
            <Time>2021-08-09T11:21:04.000Z</Time>
            <Position>
              <LatitudeDegrees>42.99868240021169185638427734375</LatitudeDegrees>
              <LongitudeDegrees>-1.77378027699887752532958984375</LongitudeDegrees>
            </Position>
            <AltitudeMeters>579.5999755859375</AltitudeMeters>
            <DistanceMeters>NAN</DistanceMeters>
          </Trackpoint>
          <Trackpoint>
            <Time>2021-08-09T11:21:05.000Z</Time>
            <Position>
              <LatitudeDegrees>42.9986913688480854034423828125</LatitudeDegrees>
              <LongitudeDegrees>-1.77374524064362049102783203125</LongitudeDegrees>
            </Position>
            <AltitudeMeters>579.4000244140625</AltitudeMeters>
            <DistanceMeters>NAN</DistanceMeters>
          </Trackpoint>
          <Trackpoint>
            <Time>2021-08-09T11:21:07.000Z</Time>
            <Position>
              <LatitudeDegrees>42.9986923746764659881591796875</LatitudeDegrees>
              <LongitudeDegrees>-1.77367298863828182220458984375</LongitudeDegrees>
            </Position>
            <AltitudeMeters>579.4000244140625</AltitudeMeters>
            <DistanceMeters>NAN</DistanceMeters>
          </Trackpoint>
          <Trackpoint>
            <Time>2021-08-09T11:21:08.000Z</Time>
            <Position>
              <LatitudeDegrees>42.9986880160868167877197265625</LatitudeDegrees>
              <LongitudeDegrees>-1.773640215396881103515625</LongitudeDegrees>
            </Position>
            <AltitudeMeters>579.20001220703125</AltitudeMeters>
            <DistanceMeters>NAN</DistanceMeters>
          </Trackpoint>
          <Trackpoint>
            <Time>2021-08-09T11:21:09.000Z</Time>
            <Position>
              <LatitudeDegrees>42.99868776462972164154052734375</LatitudeDegrees>
              <LongitudeDegrees>-1.77360677160322666168212890625</LongitudeDegrees>
            </Position>
            <AltitudeMeters>579</AltitudeMeters>
            <DistanceMeters>NAN</DistanceMeters>
          </Trackpoint>
          <Trackpoint>
            <Time>2021-08-09T11:21:10.000Z</Time>
            <Position>
              <LatitudeDegrees>42.99868927337229251861572265625</LatitudeDegrees>
              <LongitudeDegrees>-1.7735691368579864501953125</LongitudeDegrees>
            </Position>
            <AltitudeMeters>579</AltitudeMeters>
            <DistanceMeters>NAN</DistanceMeters>
          </Trackpoint>
          <Trackpoint>
            <Time>2021-08-09T11:21:11.000Z</Time>
            <Position>
              <LatitudeDegrees>42.99869011156260967254638671875</LatitudeDegrees>
              <LongitudeDegrees>-1.77353384904563426971435546875</LongitudeDegrees>
            </Position>
            <AltitudeMeters>578.79998779296875</AltitudeMeters>
            <DistanceMeters>NAN</DistanceMeters>
          </Trackpoint>
          <Trackpoint>
            <Time>2021-08-09T11:21:17.000Z</Time>
            <Position>
              <LatitudeDegrees>42.998723722994327545166015625</LatitudeDegrees>
              <LongitudeDegrees>-1.773303933441638946533203125</LongitudeDegrees>
            </Position>
            <AltitudeMeters>578.4000244140625</AltitudeMeters>
            <DistanceMeters>NAN</DistanceMeters>
          </Trackpoint>
          <Trackpoint>
            <Time>2021-08-09T11:21:22.000Z</Time>
            <Position>
              <LatitudeDegrees>42.9987611062824726104736328125</LatitudeDegrees>
              <LongitudeDegrees>-1.773105449974536895751953125</LongitudeDegrees>
            </Position>
            <AltitudeMeters>577.79998779296875</AltitudeMeters>
            <DistanceMeters>NAN</DistanceMeters>
          </Trackpoint>
          <Trackpoint>
            <Time>2021-08-09T11:21:26.000Z</Time>
            <Position>
              <LatitudeDegrees>42.99877929501235485076904296875</LatitudeDegrees>
              <LongitudeDegrees>-1.77296170033514499664306640625</LongitudeDegrees>
            </Position>
            <AltitudeMeters>577.79998779296875</AltitudeMeters>
            <DistanceMeters>NAN</DistanceMeters>
          </Trackpoint>
          <Trackpoint>
            <Time>2021-08-09T11:21:35.000Z</Time>
            <Position>
              <LatitudeDegrees>42.99885188229382038116455078125</LatitudeDegrees>
              <LongitudeDegrees>-1.77251880057156085968017578125</LongitudeDegrees>
            </Position>
            <AltitudeMeters>577.20001220703125</AltitudeMeters>
            <DistanceMeters>NAN</DistanceMeters>
          </Trackpoint>
          <Trackpoint>
            <Time>2021-08-09T11:21:41.000Z</Time>
            <Position>
              <LatitudeDegrees>42.9989079572260379791259765625</LatitudeDegrees>
              <LongitudeDegrees>-1.77220732904970645904541015625</LongitudeDegrees>
            </Position>
            <AltitudeMeters>577.20001220703125</AltitudeMeters>
            <DistanceMeters>NAN</DistanceMeters>
          </Trackpoint>
          <Trackpoint>
            <Time>2021-08-09T11:21:42.000Z</Time>
            <Position>
              <LatitudeDegrees>42.9989173449575901031494140625</LatitudeDegrees>
              <LongitudeDegrees>-1.77216994576156139373779296875</LongitudeDegrees>
            </Position>
            <AltitudeMeters>577.4000244140625</AltitudeMeters>
            <DistanceMeters>NAN</DistanceMeters>
          </Trackpoint>
          <Trackpoint>
            <Time>2021-08-09T11:21:43.000Z</Time>
            <Position>
              <LatitudeDegrees>42.9989290796220302581787109375</LatitudeDegrees>
              <LongitudeDegrees>-1.7721354961395263671875</LongitudeDegrees>
            </Position>
            <AltitudeMeters>577.4000244140625</AltitudeMeters>
            <DistanceMeters>NAN</DistanceMeters>
          </Trackpoint>
          <Trackpoint>
            <Time>2021-08-09T11:21:44.000Z</Time>
            <Position>
              <LatitudeDegrees>42.99894223921000957489013671875</LatitudeDegrees>
              <LongitudeDegrees>-1.772100962698459625244140625</LongitudeDegrees>
            </Position>
            <AltitudeMeters>577.4000244140625</AltitudeMeters>
            <DistanceMeters>NAN</DistanceMeters>
          </Trackpoint>
          <Trackpoint>
            <Time>2021-08-09T11:21:50.000Z</Time>
            <Position>
              <LatitudeDegrees>42.99903242848813533782958984375</LatitudeDegrees>
              <LongitudeDegrees>-1.7718570493161678314208984375</LongitudeDegrees>
            </Position>
            <AltitudeMeters>577.5999755859375</AltitudeMeters>
            <DistanceMeters>NAN</DistanceMeters>
          </Trackpoint>
          <Trackpoint>
            <Time>2021-08-09T11:21:59.000Z</Time>
            <Position>
              <LatitudeDegrees>42.9992073588073253631591796875</LatitudeDegrees>
              <LongitudeDegrees>-1.77140417508780956268310546875</LongitudeDegrees>
            </Position>
            <AltitudeMeters>577</AltitudeMeters>
            <DistanceMeters>NAN</DistanceMeters>
          </Trackpoint>
          <Trackpoint>
            <Time>2021-08-09T11:22:08.000Z</Time>
            <Position>
              <LatitudeDegrees>42.9993925988674163818359375</LatitudeDegrees>
              <LongitudeDegrees>-1.770916767418384552001953125</LongitudeDegrees>
            </Position>
            <AltitudeMeters>576.79998779296875</AltitudeMeters>
            <DistanceMeters>NAN</DistanceMeters>
          </Trackpoint>
          <Trackpoint>
            <Time>2021-08-09T11:22:11.000Z</Time>
            <Position>
              <LatitudeDegrees>42.99945018254220485687255859375</LatitudeDegrees>
              <LongitudeDegrees>-1.77075658924877643585205078125</LongitudeDegrees>
            </Position>
            <AltitudeMeters>576.5999755859375</AltitudeMeters>
            <DistanceMeters>NAN</DistanceMeters>
          </Trackpoint>
          <Trackpoint>
            <Time>2021-08-09T11:22:12.000Z</Time>
            <Position>
              <LatitudeDegrees>42.99946711398661136627197265625</LatitudeDegrees>
              <LongitudeDegrees>-1.77070914767682552337646484375</LongitudeDegrees>
            </Position>
            <AltitudeMeters>576.4000244140625</AltitudeMeters>
            <DistanceMeters>NAN</DistanceMeters>
          </Trackpoint>
          <Trackpoint>
            <Time>2021-08-09T11:22:13.000Z</Time>
            <Position>
              <LatitudeDegrees>42.99948337487876415252685546875</LatitudeDegrees>
              <LongitudeDegrees>-1.77066254429519176483154296875</LongitudeDegrees>
            </Position>
            <AltitudeMeters>576.4000244140625</AltitudeMeters>
            <DistanceMeters>NAN</DistanceMeters>
          </Trackpoint>
          <Trackpoint>
            <Time>2021-08-09T11:22:14.000Z</Time>
            <Position>
              <LatitudeDegrees>42.9994980432093143463134765625</LatitudeDegrees>
              <LongitudeDegrees>-1.770617030560970306396484375</LongitudeDegrees>
            </Position>
            <AltitudeMeters>576.4000244140625</AltitudeMeters>
            <DistanceMeters>NAN</DistanceMeters>
          </Trackpoint>
          <Trackpoint>
            <Time>2021-08-09T11:22:15.000Z</Time>
            <Position>
              <LatitudeDegrees>42.999512292444705963134765625</LatitudeDegrees>
              <LongitudeDegrees>-1.77057034336030483245849609375</LongitudeDegrees>
            </Position>
            <AltitudeMeters>576.4000244140625</AltitudeMeters>
            <DistanceMeters>NAN</DistanceMeters>
          </Trackpoint>
          <Trackpoint>
            <Time>2021-08-09T11:22:16.000Z</Time>
            <Position>
              <LatitudeDegrees>42.99952603876590728759765625</LatitudeDegrees>
              <LongitudeDegrees>-1.77052709273993968963623046875</LongitudeDegrees>
            </Position>
            <AltitudeMeters>576.20001220703125</AltitudeMeters>
            <DistanceMeters>NAN</DistanceMeters>
          </Trackpoint>
          <Trackpoint>
            <Time>2021-08-09T11:22:17.000Z</Time>
            <Position>
              <LatitudeDegrees>42.999539114534854888916015625</LatitudeDegrees>
              <LongitudeDegrees>-1.77048618905246257781982421875</LongitudeDegrees>
            </Position>
            <AltitudeMeters>576.20001220703125</AltitudeMeters>
            <DistanceMeters>NAN</DistanceMeters>
          </Trackpoint>
          <Trackpoint>
            <Time>2021-08-09T11:22:18.000Z</Time>
            <Position>
              <LatitudeDegrees>42.999551855027675628662109375</LatitudeDegrees>
              <LongitudeDegrees>-1.77044679410755634307861328125</LongitudeDegrees>
            </Position>
            <AltitudeMeters>576.20001220703125</AltitudeMeters>
            <DistanceMeters>NAN</DistanceMeters>
          </Trackpoint>
          <Trackpoint>
            <Time>2021-08-09T11:22:19.000Z</Time>
            <Position>
              <LatitudeDegrees>42.99956484697759151458740234375</LatitudeDegrees>
              <LongitudeDegrees>-1.77041041664779186248779296875</LongitudeDegrees>
            </Position>
            <AltitudeMeters>576.20001220703125</AltitudeMeters>
            <DistanceMeters>NAN</DistanceMeters>
          </Trackpoint>
          <Trackpoint>
            <Time>2021-08-09T11:22:20.000Z</Time>
            <Position>
              <LatitudeDegrees>42.9995768330991268157958984375</LatitudeDegrees>
              <LongitudeDegrees>-1.7703808285295963287353515625</LongitudeDegrees>
            </Position>
            <AltitudeMeters>576.20001220703125</AltitudeMeters>
            <DistanceMeters>NAN</DistanceMeters>
          </Trackpoint>
          <Trackpoint>
            <Time>2021-08-09T11:22:21.000Z</Time>
            <Position>
              <LatitudeDegrees>42.9995868913829326629638671875</LatitudeDegrees>
              <LongitudeDegrees>-1.77035786211490631103515625</LongitudeDegrees>
            </Position>
            <AltitudeMeters>576.20001220703125</AltitudeMeters>
            <DistanceMeters>NAN</DistanceMeters>
          </Trackpoint>
          <Trackpoint>
            <Time>2021-08-09T11:22:22.000Z</Time>
            <Position>
              <LatitudeDegrees>42.9995910823345184326171875</LatitudeDegrees>
              <LongitudeDegrees>-1.770344115793704986572265625</LongitudeDegrees>
            </Position>
            <AltitudeMeters>576.20001220703125</AltitudeMeters>
            <DistanceMeters>NAN</DistanceMeters>
          </Trackpoint>
          <Trackpoint>
            <Time>2021-08-09T11:22:23.000Z</Time>
            <Position>
              <LatitudeDegrees>42.9995937645435333251953125</LatitudeDegrees>
              <LongitudeDegrees>-1.7703385837376117706298828125</LongitudeDegrees>
            </Position>
            <AltitudeMeters>576.20001220703125</AltitudeMeters>
            <DistanceMeters>NAN</DistanceMeters>
          </Trackpoint>
          <Trackpoint>
            <Time>2021-08-09T11:22:26.000Z</Time>
            <Position>
              <LatitudeDegrees>42.9995937645435333251953125</LatitudeDegrees>
              <LongitudeDegrees>-1.7703385837376117706298828125</LongitudeDegrees>
            </Position>
            <AltitudeMeters>576.4000244140625</AltitudeMeters>
            <DistanceMeters>NAN</DistanceMeters>
          </Trackpoint>
          <Trackpoint>
            <Time>2021-08-09T11:22:45.000Z</Time>
            <Position>
              <LatitudeDegrees>42.99960315227508544921875</LatitudeDegrees>
              <LongitudeDegrees>-1.77032140083611011505126953125</LongitudeDegrees>
            </Position>
            <AltitudeMeters>577.20001220703125</AltitudeMeters>
            <DistanceMeters>NAN</DistanceMeters>
          </Trackpoint>
          <Trackpoint>
            <Time>2021-08-09T11:22:46.000Z</Time>
            <Position>
              <LatitudeDegrees>42.9996100254356861114501953125</LatitudeDegrees>
              <LongitudeDegrees>-1.77030564285814762115478515625</LongitudeDegrees>
            </Position>
            <AltitudeMeters>577.20001220703125</AltitudeMeters>
            <DistanceMeters>NAN</DistanceMeters>
          </Trackpoint>
          <Trackpoint>
            <Time>2021-08-09T11:22:47.000Z</Time>
            <Position>
              <LatitudeDegrees>42.999618910253047943115234375</LatitudeDegrees>
              <LongitudeDegrees>-1.77028636448085308074951171875</LongitudeDegrees>
            </Position>
            <AltitudeMeters>577.20001220703125</AltitudeMeters>
            <DistanceMeters>NAN</DistanceMeters>
          </Trackpoint>
          <Trackpoint>
            <Time>2021-08-09T11:22:48.000Z</Time>
            <Position>
              <LatitudeDegrees>42.99962938763201236724853515625</LatitudeDegrees>
              <LongitudeDegrees>-1.77026105113327503204345703125</LongitudeDegrees>
            </Position>
            <AltitudeMeters>577.20001220703125</AltitudeMeters>
            <DistanceMeters>NAN</DistanceMeters>
          </Trackpoint>
          <Trackpoint>
            <Time>2021-08-09T11:22:53.000Z</Time>
            <Position>
              <LatitudeDegrees>42.99967263825237751007080078125</LatitudeDegrees>
              <LongitudeDegrees>-1.770047061145305633544921875</LongitudeDegrees>
            </Position>
            <AltitudeMeters>577.20001220703125</AltitudeMeters>
            <DistanceMeters>NAN</DistanceMeters>
          </Trackpoint>
          <Trackpoint>
            <Time>2021-08-09T11:23:00.000Z</Time>
            <Position>
              <LatitudeDegrees>42.99967850558459758758544921875</LatitudeDegrees>
              <LongitudeDegrees>-1.76971974782645702362060546875</LongitudeDegrees>
            </Position>
            <AltitudeMeters>577.20001220703125</AltitudeMeters>
            <DistanceMeters>NAN</DistanceMeters>
          </Trackpoint>
          <Trackpoint>
            <Time>2021-08-09T11:23:11.000Z</Time>
            <Position>
              <LatitudeDegrees>42.9996220953762531280517578125</LatitudeDegrees>
              <LongitudeDegrees>-1.7691059410572052001953125</LongitudeDegrees>
            </Position>
            <AltitudeMeters>577.4000244140625</AltitudeMeters>
            <DistanceMeters>NAN</DistanceMeters>
          </Trackpoint>
          <Trackpoint>
            <Time>2021-08-09T11:23:17.000Z</Time>
            <Position>
              <LatitudeDegrees>42.9996026493608951568603515625</LatitudeDegrees>
              <LongitudeDegrees>-1.76878935657441616058349609375</LongitudeDegrees>
            </Position>
            <AltitudeMeters>577.5999755859375</AltitudeMeters>
            <DistanceMeters>NAN</DistanceMeters>
          </Trackpoint>
          <Trackpoint>
            <Time>2021-08-09T11:23:18.000Z</Time>
            <Position>
              <LatitudeDegrees>42.99959736876189708709716796875</LatitudeDegrees>
              <LongitudeDegrees>-1.76873688586056232452392578125</LongitudeDegrees>
            </Position>
            <AltitudeMeters>577.5999755859375</AltitudeMeters>
            <DistanceMeters>NAN</DistanceMeters>
          </Trackpoint>
          <Trackpoint>
            <Time>2021-08-09T11:23:19.000Z</Time>
            <Position>
              <LatitudeDegrees>42.99959175288677215576171875</LatitudeDegrees>
              <LongitudeDegrees>-1.76868424750864505767822265625</LongitudeDegrees>
            </Position>
            <AltitudeMeters>577.79998779296875</AltitudeMeters>
            <DistanceMeters>NAN</DistanceMeters>
          </Trackpoint>
          <Trackpoint>
            <Time>2021-08-09T11:23:20.000Z</Time>
            <Position>
              <LatitudeDegrees>42.99958663992583751678466796875</LatitudeDegrees>
              <LongitudeDegrees>-1.76862758584320545196533203125</LongitudeDegrees>
            </Position>
            <AltitudeMeters>577.79998779296875</AltitudeMeters>
            <DistanceMeters>NAN</DistanceMeters>
          </Trackpoint>
          <Trackpoint>
            <Time>2021-08-09T11:23:26.000Z</Time>
            <Position>
              <LatitudeDegrees>42.999553866684436798095703125</LatitudeDegrees>
              <LongitudeDegrees>-1.76825811155140399932861328125</LongitudeDegrees>
            </Position>
            <AltitudeMeters>577.5999755859375</AltitudeMeters>
            <DistanceMeters>NAN</DistanceMeters>
          </Trackpoint>
          <Trackpoint>
            <Time>2021-08-09T11:23:32.000Z</Time>
            <Position>
              <LatitudeDegrees>42.999526374042034149169921875</LatitudeDegrees>
              <LongitudeDegrees>-1.76788511686027050018310546875</LongitudeDegrees>
            </Position>
            <AltitudeMeters>577.4000244140625</AltitudeMeters>
            <DistanceMeters>NAN</DistanceMeters>
          </Trackpoint>
          <Trackpoint>
            <Time>2021-08-09T11:23:34.000Z</Time>
            <Position>
              <LatitudeDegrees>42.99952863715589046478271484375</LatitudeDegrees>
              <LongitudeDegrees>-1.76776441745460033416748046875</LongitudeDegrees>
            </Position>
            <AltitudeMeters>577.4000244140625</AltitudeMeters>
            <DistanceMeters>NAN</DistanceMeters>
          </Trackpoint>
          <Trackpoint>
            <Time>2021-08-09T11:23:35.000Z</Time>
            <Position>
              <LatitudeDegrees>42.9995329119265079498291015625</LatitudeDegrees>
              <LongitudeDegrees>-1.767712198197841644287109375</LongitudeDegrees>
            </Position>
            <AltitudeMeters>577.4000244140625</AltitudeMeters>
            <DistanceMeters>NAN</DistanceMeters>
          </Trackpoint>
          <Trackpoint>
            <Time>2021-08-09T11:23:36.000Z</Time>
            <Position>
              <LatitudeDegrees>42.9995374381542205810546875</LatitudeDegrees>
              <LongitudeDegrees>-1.76766584627330303192138671875</LongitudeDegrees>
            </Position>
            <AltitudeMeters>577.5999755859375</AltitudeMeters>
            <DistanceMeters>NAN</DistanceMeters>
          </Trackpoint>
          <Trackpoint>
            <Time>2021-08-09T11:23:37.000Z</Time>
            <Position>
              <LatitudeDegrees>42.99954154528677463531494140625</LatitudeDegrees>
              <LongitudeDegrees>-1.76762343384325504302978515625</LongitudeDegrees>
            </Position>
            <AltitudeMeters>577.5999755859375</AltitudeMeters>
            <DistanceMeters>NAN</DistanceMeters>
          </Trackpoint>
          <Trackpoint>
            <Time>2021-08-09T11:23:38.000Z</Time>
            <Position>
              <LatitudeDegrees>42.999543808400630950927734375</LatitudeDegrees>
              <LongitudeDegrees>-1.76758152432739734649658203125</LongitudeDegrees>
            </Position>
            <AltitudeMeters>577.79998779296875</AltitudeMeters>
            <DistanceMeters>NAN</DistanceMeters>
          </Trackpoint>
          <Trackpoint>
            <Time>2021-08-09T11:23:39.000Z</Time>
            <Position>
              <LatitudeDegrees>42.9995473287999629974365234375</LatitudeDegrees>
              <LongitudeDegrees>-1.7675410397350788116455078125</LongitudeDegrees>
            </Position>
            <AltitudeMeters>577.79998779296875</AltitudeMeters>
            <DistanceMeters>NAN</DistanceMeters>
          </Trackpoint>
          <Trackpoint>
            <Time>2021-08-09T11:23:40.000Z</Time>
            <Position>
              <LatitudeDegrees>42.99955043010413646697998046875</LatitudeDegrees>
              <LongitudeDegrees>-1.767507009208202362060546875</LongitudeDegrees>
            </Position>
            <AltitudeMeters>578.20001220703125</AltitudeMeters>
            <DistanceMeters>NAN</DistanceMeters>
          </Trackpoint>
          <Trackpoint>
            <Time>2021-08-09T11:23:41.000Z</Time>
            <Position>
              <LatitudeDegrees>42.999553866684436798095703125</LatitudeDegrees>
              <LongitudeDegrees>-1.7674746550619602203369140625</LongitudeDegrees>
            </Position>
            <AltitudeMeters>578.20001220703125</AltitudeMeters>
            <DistanceMeters>NAN</DistanceMeters>
          </Trackpoint>
          <Trackpoint>
            <Time>2021-08-09T11:23:42.000Z</Time>
            <Position>
              <LatitudeDegrees>42.99955897964537143707275390625</LatitudeDegrees>
              <LongitudeDegrees>-1.767444647848606109619140625</LongitudeDegrees>
            </Position>
            <AltitudeMeters>578.4000244140625</AltitudeMeters>
            <DistanceMeters>NAN</DistanceMeters>
          </Trackpoint>
          <Trackpoint>
            <Time>2021-08-09T11:23:43.000Z</Time>
            <Position>
              <LatitudeDegrees>42.99956166185438632965087890625</LatitudeDegrees>
              <LongitudeDegrees>-1.76741606555879116058349609375</LongitudeDegrees>
            </Position>
            <AltitudeMeters>578.5999755859375</AltitudeMeters>
            <DistanceMeters>NAN</DistanceMeters>
          </Trackpoint>
          <Trackpoint>
            <Time>2021-08-09T11:23:44.000Z</Time>
            <Position>
              <LatitudeDegrees>42.99956627190113067626953125</LatitudeDegrees>
              <LongitudeDegrees>-1.7673868127167224884033203125</LongitudeDegrees>
            </Position>
            <AltitudeMeters>578.79998779296875</AltitudeMeters>
            <DistanceMeters>NAN</DistanceMeters>
          </Trackpoint>
          <Trackpoint>
            <Time>2021-08-09T11:23:45.000Z</Time>
            <Position>
              <LatitudeDegrees>42.99957004375755786895751953125</LatitudeDegrees>
              <LongitudeDegrees>-1.76735588349401950836181640625</LongitudeDegrees>
            </Position>
            <AltitudeMeters>579</AltitudeMeters>
            <DistanceMeters>NAN</DistanceMeters>
          </Trackpoint>
          <Trackpoint>
            <Time>2021-08-09T11:23:47.000Z</Time>
            <Position>
              <LatitudeDegrees>42.999578677117824554443359375</LatitudeDegrees>
              <LongitudeDegrees>-1.7672969587147235870361328125</LongitudeDegrees>
            </Position>
            <AltitudeMeters>579.20001220703125</AltitudeMeters>
            <DistanceMeters>NAN</DistanceMeters>
          </Trackpoint>
          <Trackpoint>
            <Time>2021-08-09T11:23:49.000Z</Time>
            <Position>
              <LatitudeDegrees>42.99958462826907634735107421875</LatitudeDegrees>
              <LongitudeDegrees>-1.76723484881222248077392578125</LongitudeDegrees>
            </Position>
            <AltitudeMeters>579.5999755859375</AltitudeMeters>
            <DistanceMeters>NAN</DistanceMeters>
          </Trackpoint>
          <Trackpoint>
            <Time>2021-08-09T11:23:50.000Z</Time>
            <Position>
              <LatitudeDegrees>42.99958781339228153228759765625</LatitudeDegrees>
              <LongitudeDegrees>-1.76720358431339263916015625</LongitudeDegrees>
            </Position>
            <AltitudeMeters>579.5999755859375</AltitudeMeters>
            <DistanceMeters>NAN</DistanceMeters>
          </Trackpoint>
          <Trackpoint>
            <Time>2021-08-09T11:23:53.000Z</Time>
            <Position>
              <LatitudeDegrees>42.9996019788086414337158203125</LatitudeDegrees>
              <LongitudeDegrees>-1.76711012609302997589111328125</LongitudeDegrees>
            </Position>
            <AltitudeMeters>579.79998779296875</AltitudeMeters>
            <DistanceMeters>NAN</DistanceMeters>
          </Trackpoint>
          <Trackpoint>
            <Time>2021-08-09T11:23:55.000Z</Time>
            <Position>
              <LatitudeDegrees>42.99961413256824016571044921875</LatitudeDegrees>
              <LongitudeDegrees>-1.767041981220245361328125</LongitudeDegrees>
            </Position>
            <AltitudeMeters>580</AltitudeMeters>
            <DistanceMeters>NAN</DistanceMeters>
          </Trackpoint>
          <Trackpoint>
            <Time>2021-08-09T11:24:04.000Z</Time>
            <Position>
              <LatitudeDegrees>42.99967624247074127197265625</LatitudeDegrees>
              <LongitudeDegrees>-1.7667856626212596893310546875</LongitudeDegrees>
            </Position>
            <AltitudeMeters>580.4000244140625</AltitudeMeters>
            <DistanceMeters>NAN</DistanceMeters>
          </Trackpoint>
          <Trackpoint>
            <Time>2021-08-09T11:24:05.000Z</Time>
            <Position>
              <LatitudeDegrees>42.9996849596500396728515625</LatitudeDegrees>
              <LongitudeDegrees>-1.766760013997554779052734375</LongitudeDegrees>
            </Position>
            <AltitudeMeters>580.4000244140625</AltitudeMeters>
            <DistanceMeters>NAN</DistanceMeters>
          </Trackpoint>
          <Trackpoint>
            <Time>2021-08-09T11:24:06.000Z</Time>
            <Position>
              <LatitudeDegrees>42.99969392828643321990966796875</LatitudeDegrees>
              <LongitudeDegrees>-1.766729168593883514404296875</LongitudeDegrees>
            </Position>
            <AltitudeMeters>580.4000244140625</AltitudeMeters>
            <DistanceMeters>NAN</DistanceMeters>
          </Trackpoint>
          <Trackpoint>
            <Time>2021-08-09T11:24:07.000Z</Time>
            <Position>
              <LatitudeDegrees>42.99969962798058986663818359375</LatitudeDegrees>
              <LongitudeDegrees>-1.76670058630406856536865234375</LongitudeDegrees>
            </Position>
            <AltitudeMeters>580.4000244140625</AltitudeMeters>
            <DistanceMeters>NAN</DistanceMeters>
          </Trackpoint>
          <Trackpoint>
            <Time>2021-08-09T11:24:08.000Z</Time>
            <Position>
              <LatitudeDegrees>42.99970113672316074371337890625</LatitudeDegrees>
              <LongitudeDegrees>-1.766670159995555877685546875</LongitudeDegrees>
            </Position>
            <AltitudeMeters>580.4000244140625</AltitudeMeters>
            <DistanceMeters>NAN</DistanceMeters>
          </Trackpoint>
          <Trackpoint>
            <Time>2021-08-09T11:24:09.000Z</Time>
            <Position>
              <LatitudeDegrees>42.99970633350312709808349609375</LatitudeDegrees>
              <LongitudeDegrees>-1.76664878614246845245361328125</LongitudeDegrees>
            </Position>
            <AltitudeMeters>580.4000244140625</AltitudeMeters>
            <DistanceMeters>NAN</DistanceMeters>
          </Trackpoint>
          <Trackpoint>
            <Time>2021-08-09T11:24:10.000Z</Time>
            <Position>
              <LatitudeDegrees>42.9997132904827594757080078125</LatitudeDegrees>
              <LongitudeDegrees>-1.76662146113812923431396484375</LongitudeDegrees>
            </Position>
            <AltitudeMeters>580.4000244140625</AltitudeMeters>
            <DistanceMeters>NAN</DistanceMeters>
          </Trackpoint>
          <Trackpoint>
            <Time>2021-08-09T11:24:11.000Z</Time>
            <Position>
              <LatitudeDegrees>42.99972326494753360748291015625</LatitudeDegrees>
              <LongitudeDegrees>-1.7665965668857097625732421875</LongitudeDegrees>
            </Position>
            <AltitudeMeters>580.4000244140625</AltitudeMeters>
            <DistanceMeters>NAN</DistanceMeters>
          </Trackpoint>
          <Trackpoint>
            <Time>2021-08-09T11:24:12.000Z</Time>
            <Position>
              <LatitudeDegrees>42.99973282031714916229248046875</LatitudeDegrees>
              <LongitudeDegrees>-1.76658131182193756103515625</LongitudeDegrees>
            </Position>
            <AltitudeMeters>580.20001220703125</AltitudeMeters>
            <DistanceMeters>NAN</DistanceMeters>
          </Trackpoint>
          <Trackpoint>
            <Time>2021-08-09T11:24:13.000Z</Time>
            <Position>
              <LatitudeDegrees>42.99973784945905208587646484375</LatitudeDegrees>
              <LongitudeDegrees>-1.766573600471019744873046875</LongitudeDegrees>
            </Position>
            <AltitudeMeters>580.20001220703125</AltitudeMeters>
            <DistanceMeters>NAN</DistanceMeters>
          </Trackpoint>
          <Trackpoint>
            <Time>2021-08-09T11:24:15.000Z</Time>
            <Position>
              <LatitudeDegrees>42.99973784945905208587646484375</LatitudeDegrees>
              <LongitudeDegrees>-1.766573600471019744873046875</LongitudeDegrees>
            </Position>
            <AltitudeMeters>580.20001220703125</AltitudeMeters>
            <DistanceMeters>NAN</DistanceMeters>
          </Trackpoint>
          <Trackpoint>
            <Time>2021-08-09T11:24:22.000Z</Time>
            <Position>
              <LatitudeDegrees>42.99975411035120487213134765625</LatitudeDegrees>
              <LongitudeDegrees>-1.7665388993918895721435546875</LongitudeDegrees>
            </Position>
            <AltitudeMeters>580</AltitudeMeters>
            <DistanceMeters>NAN</DistanceMeters>
          </Trackpoint>
          <Trackpoint>
            <Time>2021-08-09T11:24:27.000Z</Time>
            <Position>
              <LatitudeDegrees>42.99986039288341999053955078125</LatitudeDegrees>
              <LongitudeDegrees>-1.766427420079708099365234375</LongitudeDegrees>
            </Position>
            <AltitudeMeters>580</AltitudeMeters>
            <DistanceMeters>NAN</DistanceMeters>
          </Trackpoint>
          <Trackpoint>
            <Time>2021-08-09T11:24:28.000Z</Time>
            <Position>
              <LatitudeDegrees>42.999873049557209014892578125</LatitudeDegrees>
              <LongitudeDegrees>-1.76641426049172878265380859375</LongitudeDegrees>
            </Position>
            <AltitudeMeters>579.79998779296875</AltitudeMeters>
            <DistanceMeters>NAN</DistanceMeters>
          </Trackpoint>
          <Trackpoint>
            <Time>2021-08-09T11:24:29.000Z</Time>
            <Position>
              <LatitudeDegrees>42.9998872987926006317138671875</LatitudeDegrees>
              <LongitudeDegrees>-1.76640135236084461212158203125</LongitudeDegrees>
            </Position>
            <AltitudeMeters>579.5999755859375</AltitudeMeters>
            <DistanceMeters>NAN</DistanceMeters>
          </Trackpoint>
          <Trackpoint>
            <Time>2021-08-09T11:24:30.000Z</Time>
            <Position>
              <LatitudeDegrees>42.9998980276286602020263671875</LatitudeDegrees>
              <LongitudeDegrees>-1.7663943953812122344970703125</LongitudeDegrees>
            </Position>
            <AltitudeMeters>579.4000244140625</AltitudeMeters>
            <DistanceMeters>NAN</DistanceMeters>
          </Trackpoint>
          <Trackpoint>
            <Time>2021-08-09T11:24:31.000Z</Time>
            <Position>
              <LatitudeDegrees>42.99990079365670680999755859375</LatitudeDegrees>
              <LongitudeDegrees>-1.76639380864799022674560546875</LongitudeDegrees>
            </Position>
            <AltitudeMeters>579.4000244140625</AltitudeMeters>
            <DistanceMeters>NAN</DistanceMeters>
          </Trackpoint>
          <Trackpoint>
            <Time>2021-08-09T11:24:32.000Z</Time>
            <Position>
              <LatitudeDegrees>42.99990079365670680999755859375</LatitudeDegrees>
              <LongitudeDegrees>-1.76639380864799022674560546875</LongitudeDegrees>
            </Position>
            <AltitudeMeters>579.20001220703125</AltitudeMeters>
            <DistanceMeters>NAN</DistanceMeters>
          </Trackpoint>
          <Trackpoint>
            <Time>2021-08-09T11:24:35.000Z</Time>
            <Position>
              <LatitudeDegrees>42.99990079365670680999755859375</LatitudeDegrees>
              <LongitudeDegrees>-1.76639380864799022674560546875</LongitudeDegrees>
            </Position>
            <AltitudeMeters>578.79998779296875</AltitudeMeters>
            <DistanceMeters>NAN</DistanceMeters>
          </Trackpoint>
          <Trackpoint>
            <Time>2021-08-09T11:24:44.000Z</Time>
            <Position>
              <LatitudeDegrees>42.99990079365670680999755859375</LatitudeDegrees>
              <LongitudeDegrees>-1.76639380864799022674560546875</LongitudeDegrees>
            </Position>
            <AltitudeMeters>578.4000244140625</AltitudeMeters>
            <DistanceMeters>NAN</DistanceMeters>
          </Trackpoint>
          <Trackpoint>
            <Time>2021-08-09T11:24:52.000Z</Time>
            <Position>
              <LatitudeDegrees>42.999946139752864837646484375</LatitudeDegrees>
              <LongitudeDegrees>-1.76637670956552028656005859375</LongitudeDegrees>
            </Position>
            <AltitudeMeters>578.20001220703125</AltitudeMeters>
            <DistanceMeters>NAN</DistanceMeters>
          </Trackpoint>
          <Trackpoint>
            <Time>2021-08-09T11:24:56.000Z</Time>
            <Position>
              <LatitudeDegrees>43.00005443394184112548828125</LatitudeDegrees>
              <LongitudeDegrees>-1.7663357220590114593505859375</LongitudeDegrees>
            </Position>
            <AltitudeMeters>577.79998779296875</AltitudeMeters>
            <DistanceMeters>NAN</DistanceMeters>
          </Trackpoint>
          <Trackpoint>
            <Time>2021-08-09T11:24:57.000Z</Time>
            <Position>
              <LatitudeDegrees>43.00008050166070461273193359375</LatitudeDegrees>
              <LongitudeDegrees>-1.76632490940392017364501953125</LongitudeDegrees>
            </Position>
            <AltitudeMeters>577.5999755859375</AltitudeMeters>
            <DistanceMeters>NAN</DistanceMeters>
          </Trackpoint>
          <Trackpoint>
            <Time>2021-08-09T11:24:59.000Z</Time>
            <Position>
              <LatitudeDegrees>43.0001209862530231475830078125</LatitudeDegrees>
              <LongitudeDegrees>-1.76630663685500621795654296875</LongitudeDegrees>
            </Position>
            <AltitudeMeters>577.4000244140625</AltitudeMeters>
            <DistanceMeters>NAN</DistanceMeters>
          </Trackpoint>
          <Trackpoint>
            <Time>2021-08-09T11:25:00.000Z</Time>
            <Position>
              <LatitudeDegrees>43.00013146363198757171630859375</LatitudeDegrees>
              <LongitudeDegrees>-1.766293980181217193603515625</LongitudeDegrees>
            </Position>
            <AltitudeMeters>577.20001220703125</AltitudeMeters>
            <DistanceMeters>NAN</DistanceMeters>
          </Trackpoint>
          <Trackpoint>
            <Time>2021-08-09T11:25:01.000Z</Time>
            <Position>
              <LatitudeDegrees>43.00014303065836429595947265625</LatitudeDegrees>
              <LongitudeDegrees>-1.7662904597818851470947265625</LongitudeDegrees>
            </Position>
            <AltitudeMeters>577</AltitudeMeters>
            <DistanceMeters>NAN</DistanceMeters>
          </Trackpoint>
          <Trackpoint>
            <Time>2021-08-09T11:25:02.000Z</Time>
            <Position>
              <LatitudeDegrees>43.00015158019959926605224609375</LatitudeDegrees>
              <LongitudeDegrees>-1.7662867717444896697998046875</LongitudeDegrees>
            </Position>
            <AltitudeMeters>576.79998779296875</AltitudeMeters>
            <DistanceMeters>NAN</DistanceMeters>
          </Trackpoint>
          <Trackpoint>
            <Time>2021-08-09T11:25:03.000Z</Time>
            <Position>
              <LatitudeDegrees>43.00015158019959926605224609375</LatitudeDegrees>
              <LongitudeDegrees>-1.7662867717444896697998046875</LongitudeDegrees>
            </Position>
            <AltitudeMeters>576.5999755859375</AltitudeMeters>
            <DistanceMeters>NAN</DistanceMeters>
          </Trackpoint>
          <Trackpoint>
            <Time>2021-08-09T11:25:04.000Z</Time>
            <Position>
              <LatitudeDegrees>43.00015158019959926605224609375</LatitudeDegrees>
              <LongitudeDegrees>-1.7662867717444896697998046875</LongitudeDegrees>
            </Position>
            <AltitudeMeters>576.4000244140625</AltitudeMeters>
            <DistanceMeters>NAN</DistanceMeters>
          </Trackpoint>
          <Trackpoint>
            <Time>2021-08-09T11:25:23.000Z</Time>
            <Position>
              <LatitudeDegrees>43.00015325658023357391357421875</LatitudeDegrees>
              <LongitudeDegrees>-1.7662869393825531005859375</LongitudeDegrees>
            </Position>
            <AltitudeMeters>576</AltitudeMeters>
            <DistanceMeters>NAN</DistanceMeters>
          </Trackpoint>
          <Trackpoint>
            <Time>2021-08-09T11:25:26.000Z</Time>
            <Position>
              <LatitudeDegrees>43.000217042863368988037109375</LatitudeDegrees>
              <LongitudeDegrees>-1.76628735847771167755126953125</LongitudeDegrees>
            </Position>
            <AltitudeMeters>575.79998779296875</AltitudeMeters>
            <DistanceMeters>NAN</DistanceMeters>
          </Trackpoint>
          <Trackpoint>
            <Time>2021-08-09T11:25:30.000Z</Time>
            <Position>
              <LatitudeDegrees>43.000362217426300048828125</LatitudeDegrees>
              <LongitudeDegrees>-1.7662596143782138824462890625</LongitudeDegrees>
            </Position>
            <AltitudeMeters>575.5999755859375</AltitudeMeters>
            <DistanceMeters>NAN</DistanceMeters>
          </Trackpoint>
          <Trackpoint>
            <Time>2021-08-09T11:25:31.000Z</Time>
            <Position>
              <LatitudeDegrees>43.0003999359905719757080078125</LatitudeDegrees>
              <LongitudeDegrees>-1.766253076493740081787109375</LongitudeDegrees>
            </Position>
            <AltitudeMeters>575.4000244140625</AltitudeMeters>
            <DistanceMeters>NAN</DistanceMeters>
          </Trackpoint>
          <Trackpoint>
            <Time>2021-08-09T11:25:32.000Z</Time>
            <Position>
              <LatitudeDegrees>43.000430949032306671142578125</LatitudeDegrees>
              <LongitudeDegrees>-1.76624930463731288909912109375</LongitudeDegrees>
            </Position>
            <AltitudeMeters>575.4000244140625</AltitudeMeters>
            <DistanceMeters>NAN</DistanceMeters>
          </Trackpoint>
          <Trackpoint>
            <Time>2021-08-09T11:25:33.000Z</Time>
            <Position>
              <LatitudeDegrees>43.00044561736285686492919921875</LatitudeDegrees>
              <LongitudeDegrees>-1.7662488855421543121337890625</LongitudeDegrees>
            </Position>
            <AltitudeMeters>575</AltitudeMeters>
            <DistanceMeters>NAN</DistanceMeters>
          </Trackpoint>
          <Trackpoint>
            <Time>2021-08-09T11:25:34.000Z</Time>
            <Position>
              <LatitudeDegrees>43.00046481192111968994140625</LatitudeDegrees>
              <LongitudeDegrees>-1.7662475444376468658447265625</LongitudeDegrees>
            </Position>
            <AltitudeMeters>574.79998779296875</AltitudeMeters>
            <DistanceMeters>NAN</DistanceMeters>
          </Trackpoint>
          <Trackpoint>
            <Time>2021-08-09T11:25:35.000Z</Time>
            <Position>
              <LatitudeDegrees>43.00047948025166988372802734375</LatitudeDegrees>
              <LongitudeDegrees>-1.7662482149899005889892578125</LongitudeDegrees>
            </Position>
            <AltitudeMeters>574.5999755859375</AltitudeMeters>
            <DistanceMeters>NAN</DistanceMeters>
          </Trackpoint>
          <Trackpoint>
            <Time>2021-08-09T11:25:36.000Z</Time>
            <Position>
              <LatitudeDegrees>43.00049322657287120819091796875</LatitudeDegrees>
              <LongitudeDegrees>-1.7662465386092662811279296875</LongitudeDegrees>
            </Position>
            <AltitudeMeters>574.5999755859375</AltitudeMeters>
            <DistanceMeters>NAN</DistanceMeters>
          </Trackpoint>
          <Trackpoint>
            <Time>2021-08-09T11:25:37.000Z</Time>
            <Position>
              <LatitudeDegrees>43.00050864927470684051513671875</LatitudeDegrees>
              <LongitudeDegrees>-1.76624628715217113494873046875</LongitudeDegrees>
            </Position>
            <AltitudeMeters>574.4000244140625</AltitudeMeters>
            <DistanceMeters>NAN</DistanceMeters>
          </Trackpoint>
          <Trackpoint>
            <Time>2021-08-09T11:25:41.000Z</Time>
            <Position>
              <LatitudeDegrees>43.0005682446062564849853515625</LatitudeDegrees>
              <LongitudeDegrees>-1.7662508971989154815673828125</LongitudeDegrees>
            </Position>
            <AltitudeMeters>573.79998779296875</AltitudeMeters>
            <DistanceMeters>NAN</DistanceMeters>
          </Trackpoint>
          <Trackpoint>
            <Time>2021-08-09T11:25:42.000Z</Time>
            <Position>
              <LatitudeDegrees>43.0005741119384765625</LatitudeDegrees>
              <LongitudeDegrees>-1.7662522383034229278564453125</LongitudeDegrees>
            </Position>
            <AltitudeMeters>573.79998779296875</AltitudeMeters>
            <DistanceMeters>NAN</DistanceMeters>
          </Trackpoint>
          <Trackpoint>
            <Time>2021-08-09T11:25:44.000Z</Time>
            <Position>
              <LatitudeDegrees>43.0005741119384765625</LatitudeDegrees>
              <LongitudeDegrees>-1.7662522383034229278564453125</LongitudeDegrees>
            </Position>
            <AltitudeMeters>573.4000244140625</AltitudeMeters>
            <DistanceMeters>NAN</DistanceMeters>
          </Trackpoint>
          <Trackpoint>
            <Time>2021-08-09T11:25:47.000Z</Time>
            <Position>
              <LatitudeDegrees>43.0005741119384765625</LatitudeDegrees>
              <LongitudeDegrees>-1.7662522383034229278564453125</LongitudeDegrees>
            </Position>
            <AltitudeMeters>573</AltitudeMeters>
            <DistanceMeters>NAN</DistanceMeters>
          </Trackpoint>
          <Trackpoint>
            <Time>2021-08-09T11:26:01.000Z</Time>
            <Position>
              <LatitudeDegrees>43.00057620741426944732666015625</LatitudeDegrees>
              <LongitudeDegrees>-1.76625282503664493560791015625</LongitudeDegrees>
            </Position>
            <AltitudeMeters>573</AltitudeMeters>
            <DistanceMeters>NAN</DistanceMeters>
          </Trackpoint>
          <Trackpoint>
            <Time>2021-08-09T11:26:02.000Z</Time>
            <Position>
              <LatitudeDegrees>43.0005980841815471649169921875</LatitudeDegrees>
              <LongitudeDegrees>-1.7662502266466617584228515625</LongitudeDegrees>
            </Position>
            <AltitudeMeters>572.79998779296875</AltitudeMeters>
            <DistanceMeters>NAN</DistanceMeters>
          </Trackpoint>
          <Trackpoint>
            <Time>2021-08-09T11:26:06.000Z</Time>
            <Position>
              <LatitudeDegrees>43.00072255544364452362060546875</LatitudeDegrees>
              <LongitudeDegrees>-1.76619851030409336090087890625</LongitudeDegrees>
            </Position>
            <AltitudeMeters>572.5999755859375</AltitudeMeters>
            <DistanceMeters>NAN</DistanceMeters>
          </Trackpoint>
          <Trackpoint>
            <Time>2021-08-09T11:26:08.000Z</Time>
            <Position>
              <LatitudeDegrees>43.00081484019756317138671875</LatitudeDegrees>
              <LongitudeDegrees>-1.7661581933498382568359375</LongitudeDegrees>
            </Position>
            <AltitudeMeters>572.5999755859375</AltitudeMeters>
            <DistanceMeters>NAN</DistanceMeters>
          </Trackpoint>
          <Trackpoint>
            <Time>2021-08-09T11:26:10.000Z</Time>
            <Position>
              <LatitudeDegrees>43.00090561620891094207763671875</LatitudeDegrees>
              <LongitudeDegrees>-1.76608602516353130340576171875</LongitudeDegrees>
            </Position>
            <AltitudeMeters>572.4000244140625</AltitudeMeters>
            <DistanceMeters>NAN</DistanceMeters>
          </Trackpoint>
          <Trackpoint>
            <Time>2021-08-09T11:26:11.000Z</Time>
            <Position>
              <LatitudeDegrees>43.0009397305548191070556640625</LatitudeDegrees>
              <LongitudeDegrees>-1.76605484448373317718505859375</LongitudeDegrees>
            </Position>
            <AltitudeMeters>572.4000244140625</AltitudeMeters>
            <DistanceMeters>NAN</DistanceMeters>
          </Trackpoint>
          <Trackpoint>
            <Time>2021-08-09T11:26:14.000Z</Time>
            <Position>
              <LatitudeDegrees>43.0010748468339443206787109375</LatitudeDegrees>
              <LongitudeDegrees>-1.76593489944934844970703125</LongitudeDegrees>
            </Position>
            <AltitudeMeters>572</AltitudeMeters>
            <DistanceMeters>NAN</DistanceMeters>
          </Trackpoint>
          <Trackpoint>
            <Time>2021-08-09T11:26:17.000Z</Time>
            <Position>
              <LatitudeDegrees>43.00121189095079898834228515625</LatitudeDegrees>
              <LongitudeDegrees>-1.76580657251179218292236328125</LongitudeDegrees>
            </Position>
            <AltitudeMeters>571.20001220703125</AltitudeMeters>
            <DistanceMeters>NAN</DistanceMeters>
          </Trackpoint>
          <Trackpoint>
            <Time>2021-08-09T11:26:19.000Z</Time>
            <Position>
              <LatitudeDegrees>43.00130342133343219757080078125</LatitudeDegrees>
              <LongitudeDegrees>-1.76572526805102825164794921875</LongitudeDegrees>
            </Position>
            <AltitudeMeters>570.79998779296875</AltitudeMeters>
            <DistanceMeters>NAN</DistanceMeters>
          </Trackpoint>
          <Trackpoint>
            <Time>2021-08-09T11:26:23.000Z</Time>
            <Position>
              <LatitudeDegrees>43.00148312933743000030517578125</LatitudeDegrees>
              <LongitudeDegrees>-1.765563748776912689208984375</LongitudeDegrees>
            </Position>
            <AltitudeMeters>570.20001220703125</AltitudeMeters>
            <DistanceMeters>NAN</DistanceMeters>
          </Trackpoint>
          <Trackpoint>
            <Time>2021-08-09T11:26:27.000Z</Time>
            <Position>
              <LatitudeDegrees>43.0016632564365863800048828125</LatitudeDegrees>
              <LongitudeDegrees>-1.76540642045438289642333984375</LongitudeDegrees>
            </Position>
            <AltitudeMeters>569.4000244140625</AltitudeMeters>
            <DistanceMeters>NAN</DistanceMeters>
          </Trackpoint>
          <Trackpoint>
            <Time>2021-08-09T11:26:29.000Z</Time>
            <Position>
              <LatitudeDegrees>43.0017567984759807586669921875</LatitudeDegrees>
              <LongitudeDegrees>-1.7653231881558895111083984375</LongitudeDegrees>
            </Position>
            <AltitudeMeters>569.20001220703125</AltitudeMeters>
            <DistanceMeters>NAN</DistanceMeters>
          </Trackpoint>
          <Trackpoint>
            <Time>2021-08-09T11:26:34.000Z</Time>
            <Position>
              <LatitudeDegrees>43.0020089261233806610107421875</LatitudeDegrees>
              <LongitudeDegrees>-1.7651173286139965057373046875</LongitudeDegrees>
            </Position>
            <AltitudeMeters>568</AltitudeMeters>
            <DistanceMeters>NAN</DistanceMeters>
          </Trackpoint>
          <Trackpoint>
            <Time>2021-08-09T11:26:36.000Z</Time>
            <Position>
              <LatitudeDegrees>43.002132810652256011962890625</LatitudeDegrees>
              <LongitudeDegrees>-1.76501615904271602630615234375</LongitudeDegrees>
            </Position>
            <AltitudeMeters>567.4000244140625</AltitudeMeters>
            <DistanceMeters>NAN</DistanceMeters>
          </Trackpoint>
          <Trackpoint>
            <Time>2021-08-09T11:26:39.000Z</Time>
            <Position>
              <LatitudeDegrees>43.00229852087795734405517578125</LatitudeDegrees>
              <LongitudeDegrees>-1.7648796178400516510009765625</LongitudeDegrees>
            </Position>
            <AltitudeMeters>566.79998779296875</AltitudeMeters>
            <DistanceMeters>NAN</DistanceMeters>
          </Trackpoint>
          <Trackpoint>
            <Time>2021-08-09T11:26:42.000Z</Time>
            <Position>
              <LatitudeDegrees>43.00249968655407428741455078125</LatitudeDegrees>
              <LongitudeDegrees>-1.7647116445004940032958984375</LongitudeDegrees>
            </Position>
            <AltitudeMeters>565.5999755859375</AltitudeMeters>
            <DistanceMeters>NAN</DistanceMeters>
          </Trackpoint>
          <Trackpoint>
            <Time>2021-08-09T11:26:44.000Z</Time>
            <Position>
              <LatitudeDegrees>43.0026318691670894622802734375</LatitudeDegrees>
              <LongitudeDegrees>-1.76460494287312030792236328125</LongitudeDegrees>
            </Position>
            <AltitudeMeters>565.20001220703125</AltitudeMeters>
            <DistanceMeters>NAN</DistanceMeters>
          </Trackpoint>
          <Trackpoint>
            <Time>2021-08-09T11:26:47.000Z</Time>
            <Position>
              <LatitudeDegrees>43.00282926298677921295166015625</LatitudeDegrees>
              <LongitudeDegrees>-1.76443395204842090606689453125</LongitudeDegrees>
            </Position>
            <AltitudeMeters>564.20001220703125</AltitudeMeters>
            <DistanceMeters>NAN</DistanceMeters>
          </Trackpoint>
          <Trackpoint>
            <Time>2021-08-09T11:26:51.000Z</Time>
            <Position>
              <LatitudeDegrees>43.00311340950429439544677734375</LatitudeDegrees>
              <LongitudeDegrees>-1.76419205032289028167724609375</LongitudeDegrees>
            </Position>
            <AltitudeMeters>563</AltitudeMeters>
            <DistanceMeters>NAN</DistanceMeters>
          </Trackpoint>
          <Trackpoint>
            <Time>2021-08-09T11:26:54.000Z</Time>
            <Position>
              <LatitudeDegrees>43.00332111306488513946533203125</LatitudeDegrees>
              <LongitudeDegrees>-1.76402944140136241912841796875</LongitudeDegrees>
            </Position>
            <AltitudeMeters>562</AltitudeMeters>
            <DistanceMeters>NAN</DistanceMeters>
          </Trackpoint>
          <Trackpoint>
            <Time>2021-08-09T11:26:55.000Z</Time>
            <Position>
              <LatitudeDegrees>43.00339470617473125457763671875</LatitudeDegrees>
              <LongitudeDegrees>-1.76399205811321735382080078125</LongitudeDegrees>
            </Position>
            <AltitudeMeters>561.5999755859375</AltitudeMeters>
            <DistanceMeters>NAN</DistanceMeters>
          </Trackpoint>
          <Trackpoint>
            <Time>2021-08-09T11:26:56.000Z</Time>
            <Position>
              <LatitudeDegrees>43.003457151353359222412109375</LatitudeDegrees>
              <LongitudeDegrees>-1.76396992988884449005126953125</LongitudeDegrees>
            </Position>
            <AltitudeMeters>561.4000244140625</AltitudeMeters>
            <DistanceMeters>NAN</DistanceMeters>
          </Trackpoint>
          <Trackpoint>
            <Time>2021-08-09T11:26:58.000Z</Time>
            <Position>
              <LatitudeDegrees>43.00363593734800815582275390625</LatitudeDegrees>
              <LongitudeDegrees>-1.76391745917499065399169921875</LongitudeDegrees>
            </Position>
            <AltitudeMeters>561</AltitudeMeters>
            <DistanceMeters>NAN</DistanceMeters>
          </Trackpoint>
          <Trackpoint>
            <Time>2021-08-09T11:27:00.000Z</Time>
            <Position>
              <LatitudeDegrees>43.0037941038608551025390625</LatitudeDegrees>
              <LongitudeDegrees>-1.76387253217399120330810546875</LongitudeDegrees>
            </Position>
            <AltitudeMeters>560.4000244140625</AltitudeMeters>
            <DistanceMeters>NAN</DistanceMeters>
          </Trackpoint>
          <Trackpoint>
            <Time>2021-08-09T11:27:01.000Z</Time>
            <Position>
              <LatitudeDegrees>43.00386761315166950225830078125</LatitudeDegrees>
              <LongitudeDegrees>-1.7638436146080493927001953125</LongitudeDegrees>
            </Position>
            <AltitudeMeters>560</AltitudeMeters>
            <DistanceMeters>NAN</DistanceMeters>
          </Trackpoint>
          <Trackpoint>
            <Time>2021-08-09T11:27:02.000Z</Time>
            <Position>
              <LatitudeDegrees>43.0039233528077602386474609375</LatitudeDegrees>
              <LongitudeDegrees>-1.7638114280998706817626953125</LongitudeDegrees>
            </Position>
            <AltitudeMeters>559.5999755859375</AltitudeMeters>
            <DistanceMeters>NAN</DistanceMeters>
          </Trackpoint>
          <Trackpoint>
            <Time>2021-08-09T11:27:03.000Z</Time>
            <Position>
              <LatitudeDegrees>43.004000969231128692626953125</LatitudeDegrees>
              <LongitudeDegrees>-1.763746552169322967529296875</LongitudeDegrees>
            </Position>
            <AltitudeMeters>559.4000244140625</AltitudeMeters>
            <DistanceMeters>NAN</DistanceMeters>
          </Trackpoint>
          <Trackpoint>
            <Time>2021-08-09T11:27:04.000Z</Time>
            <Position>
              <LatitudeDegrees>43.00405561923980712890625</LatitudeDegrees>
              <LongitudeDegrees>-1.763676144182682037353515625</LongitudeDegrees>
            </Position>
            <AltitudeMeters>559.20001220703125</AltitudeMeters>
            <DistanceMeters>NAN</DistanceMeters>
          </Trackpoint>
          <Trackpoint>
            <Time>2021-08-09T11:27:05.000Z</Time>
            <Position>
              <LatitudeDegrees>43.00410247407853603363037109375</LatitudeDegrees>
              <LongitudeDegrees>-1.763602383434772491455078125</LongitudeDegrees>
            </Position>
            <AltitudeMeters>559</AltitudeMeters>
            <DistanceMeters>NAN</DistanceMeters>
          </Trackpoint>
          <Trackpoint>
            <Time>2021-08-09T11:27:06.000Z</Time>
            <Position>
              <LatitudeDegrees>43.0041429586708545684814453125</LatitudeDegrees>
              <LongitudeDegrees>-1.76352887414395809173583984375</LongitudeDegrees>
            </Position>
            <AltitudeMeters>558.79998779296875</AltitudeMeters>
            <DistanceMeters>NAN</DistanceMeters>
          </Trackpoint>
          <Trackpoint>
            <Time>2021-08-09T11:27:07.000Z</Time>
            <Position>
              <LatitudeDegrees>43.0041831918060779571533203125</LatitudeDegrees>
              <LongitudeDegrees>-1.7634545266628265380859375</LongitudeDegrees>
            </Position>
            <AltitudeMeters>558.5999755859375</AltitudeMeters>
            <DistanceMeters>NAN</DistanceMeters>
          </Trackpoint>
          <Trackpoint>
            <Time>2021-08-09T11:27:08.000Z</Time>
            <Position>
              <LatitudeDegrees>43.00422149710357189178466796875</LatitudeDegrees>
              <LongitudeDegrees>-1.7633794248104095458984375</LongitudeDegrees>
            </Position>
            <AltitudeMeters>558.4000244140625</AltitudeMeters>
            <DistanceMeters>NAN</DistanceMeters>
          </Trackpoint>
          <Trackpoint>
            <Time>2021-08-09T11:27:09.000Z</Time>
            <Position>
              <LatitudeDegrees>43.0042566172778606414794921875</LatitudeDegrees>
              <LongitudeDegrees>-1.76330499351024627685546875</LongitudeDegrees>
            </Position>
            <AltitudeMeters>558.4000244140625</AltitudeMeters>
            <DistanceMeters>NAN</DistanceMeters>
          </Trackpoint>
          <Trackpoint>
            <Time>2021-08-09T11:27:10.000Z</Time>
            <Position>
              <LatitudeDegrees>43.00428972579538822174072265625</LatitudeDegrees>
              <LongitudeDegrees>-1.7632310651242733001708984375</LongitudeDegrees>
            </Position>
            <AltitudeMeters>558.4000244140625</AltitudeMeters>
            <DistanceMeters>NAN</DistanceMeters>
          </Trackpoint>
          <Trackpoint>
            <Time>2021-08-09T11:27:11.000Z</Time>
            <Position>
              <LatitudeDegrees>43.00431939773261547088623046875</LatitudeDegrees>
              <LongitudeDegrees>-1.763155460357666015625</LongitudeDegrees>
            </Position>
            <AltitudeMeters>558.20001220703125</AltitudeMeters>
            <DistanceMeters>NAN</DistanceMeters>
          </Trackpoint>
          <Trackpoint>
            <Time>2021-08-09T11:27:13.000Z</Time>
            <Position>
              <LatitudeDegrees>43.0043573677539825439453125</LatitudeDegrees>
              <LongitudeDegrees>-1.762998215854167938232421875</LongitudeDegrees>
            </Position>
            <AltitudeMeters>558.20001220703125</AltitudeMeters>
            <DistanceMeters>NAN</DistanceMeters>
          </Trackpoint>
          <Trackpoint>
            <Time>2021-08-09T11:27:14.000Z</Time>
            <Position>
              <LatitudeDegrees>43.00436985678970813751220703125</LatitudeDegrees>
              <LongitudeDegrees>-1.76293023861944675445556640625</LongitudeDegrees>
            </Position>
            <AltitudeMeters>558</AltitudeMeters>
            <DistanceMeters>NAN</DistanceMeters>
          </Trackpoint>
          <Trackpoint>
            <Time>2021-08-09T11:27:15.000Z</Time>
            <Position>
              <LatitudeDegrees>43.00437949597835540771484375</LatitudeDegrees>
              <LongitudeDegrees>-1.7628823779523372650146484375</LongitudeDegrees>
            </Position>
            <AltitudeMeters>558</AltitudeMeters>
            <DistanceMeters>NAN</DistanceMeters>
          </Trackpoint>
          <Trackpoint>
            <Time>2021-08-09T11:27:16.000Z</Time>
            <Position>
              <LatitudeDegrees>43.00438930280506610870361328125</LatitudeDegrees>
              <LongitudeDegrees>-1.76281817257404327392578125</LongitudeDegrees>
            </Position>
            <AltitudeMeters>557.79998779296875</AltitudeMeters>
            <DistanceMeters>NAN</DistanceMeters>
          </Trackpoint>
          <Trackpoint>
            <Time>2021-08-09T11:27:17.000Z</Time>
            <Position>
              <LatitudeDegrees>43.0043897219002246856689453125</LatitudeDegrees>
              <LongitudeDegrees>-1.76277651451528072357177734375</LongitudeDegrees>
            </Position>
            <AltitudeMeters>557.79998779296875</AltitudeMeters>
            <DistanceMeters>NAN</DistanceMeters>
          </Trackpoint>
          <Trackpoint>
            <Time>2021-08-09T11:27:18.000Z</Time>
            <Position>
              <LatitudeDegrees>43.0043833516538143157958984375</LatitudeDegrees>
              <LongitudeDegrees>-1.76274348981678485870361328125</LongitudeDegrees>
            </Position>
            <AltitudeMeters>557.79998779296875</AltitudeMeters>
            <DistanceMeters>NAN</DistanceMeters>
          </Trackpoint>
          <Trackpoint>
            <Time>2021-08-09T11:27:19.000Z</Time>
            <Position>
              <LatitudeDegrees>43.00437337718904018402099609375</LatitudeDegrees>
              <LongitudeDegrees>-1.76272387616336345672607421875</LongitudeDegrees>
            </Position>
            <AltitudeMeters>557.5999755859375</AltitudeMeters>
            <DistanceMeters>NAN</DistanceMeters>
          </Trackpoint>
          <Trackpoint>
            <Time>2021-08-09T11:27:20.000Z</Time>
            <Position>
              <LatitudeDegrees>43.00436482764780521392822265625</LatitudeDegrees>
              <LongitudeDegrees>-1.76271230913698673248291015625</LongitudeDegrees>
            </Position>
            <AltitudeMeters>557.5999755859375</AltitudeMeters>
            <DistanceMeters>NAN</DistanceMeters>
          </Trackpoint>
          <Trackpoint>
            <Time>2021-08-09T11:27:21.000Z</Time>
            <Position>
              <LatitudeDegrees>43.00435275770723819732666015625</LatitudeDegrees>
              <LongitudeDegrees>-1.762691773474216461181640625</LongitudeDegrees>
            </Position>
            <AltitudeMeters>557.5999755859375</AltitudeMeters>
            <DistanceMeters>NAN</DistanceMeters>
          </Trackpoint>
          <Trackpoint>
            <Time>2021-08-09T11:27:22.000Z</Time>
            <Position>
              <LatitudeDegrees>43.00434923730790615081787109375</LatitudeDegrees>
              <LongitudeDegrees>-1.7626678012311458587646484375</LongitudeDegrees>
            </Position>
            <AltitudeMeters>557.5999755859375</AltitudeMeters>
            <DistanceMeters>NAN</DistanceMeters>
          </Trackpoint>
          <Trackpoint>
            <Time>2021-08-09T11:27:24.000Z</Time>
            <Position>
              <LatitudeDegrees>43.00435594283044338226318359375</LatitudeDegrees>
              <LongitudeDegrees>-1.762622706592082977294921875</LongitudeDegrees>
            </Position>
            <AltitudeMeters>557.5999755859375</AltitudeMeters>
            <DistanceMeters>NAN</DistanceMeters>
          </Trackpoint>
          <Trackpoint>
            <Time>2021-08-09T11:27:25.000Z</Time>
            <Position>
              <LatitudeDegrees>43.0043612234294414520263671875</LatitudeDegrees>
              <LongitudeDegrees>-1.76259747706353664398193359375</LongitudeDegrees>
            </Position>
            <AltitudeMeters>557.5999755859375</AltitudeMeters>
            <DistanceMeters>NAN</DistanceMeters>
          </Trackpoint>
          <Trackpoint>
            <Time>2021-08-09T11:27:26.000Z</Time>
            <Position>
              <LatitudeDegrees>43.0043654143810272216796875</LatitudeDegrees>
              <LongitudeDegrees>-1.76257073879241943359375</LongitudeDegrees>
            </Position>
            <AltitudeMeters>557.5999755859375</AltitudeMeters>
            <DistanceMeters>NAN</DistanceMeters>
          </Trackpoint>
          <Trackpoint>
            <Time>2021-08-09T11:27:31.000Z</Time>
            <Position>
              <LatitudeDegrees>43.00439818762242794036865234375</LatitudeDegrees>
              <LongitudeDegrees>-1.76243520341813564300537109375</LongitudeDegrees>
            </Position>
            <AltitudeMeters>558</AltitudeMeters>
            <DistanceMeters>NAN</DistanceMeters>
          </Trackpoint>
          <Trackpoint>
            <Time>2021-08-09T11:27:39.000Z</Time>
            <Position>
              <LatitudeDegrees>43.00445233471691608428955078125</LatitudeDegrees>
              <LongitudeDegrees>-1.7622061260044574737548828125</LongitudeDegrees>
            </Position>
            <AltitudeMeters>558.5999755859375</AltitudeMeters>
            <DistanceMeters>NAN</DistanceMeters>
          </Trackpoint>
          <Trackpoint>
            <Time>2021-08-09T11:27:40.000Z</Time>
            <Position>
              <LatitudeDegrees>43.004452250897884368896484375</LatitudeDegrees>
              <LongitudeDegrees>-1.76217000000178813934326171875</LongitudeDegrees>
            </Position>
            <AltitudeMeters>558.79998779296875</AltitudeMeters>
            <DistanceMeters>NAN</DistanceMeters>
          </Trackpoint>
          <Trackpoint>
            <Time>2021-08-09T11:27:41.000Z</Time>
            <Position>
              <LatitudeDegrees>43.00444847904145717620849609375</LatitudeDegrees>
              <LongitudeDegrees>-1.762129850685596466064453125</LongitudeDegrees>
            </Position>
            <AltitudeMeters>558.79998779296875</AltitudeMeters>
            <DistanceMeters>NAN</DistanceMeters>
          </Trackpoint>
          <Trackpoint>
            <Time>2021-08-09T11:27:42.000Z</Time>
            <Position>
              <LatitudeDegrees>43.00444579683244228363037109375</LatitudeDegrees>
              <LongitudeDegrees>-1.7620928026735782623291015625</LongitudeDegrees>
            </Position>
            <AltitudeMeters>559</AltitudeMeters>
            <DistanceMeters>NAN</DistanceMeters>
          </Trackpoint>
          <Trackpoint>
            <Time>2021-08-09T11:27:48.000Z</Time>
            <Position>
              <LatitudeDegrees>43.00441964529454708099365234375</LatitudeDegrees>
              <LongitudeDegrees>-1.761824749410152435302734375</LongitudeDegrees>
            </Position>
            <AltitudeMeters>559.4000244140625</AltitudeMeters>
            <DistanceMeters>NAN</DistanceMeters>
          </Trackpoint>
          <Trackpoint>
            <Time>2021-08-09T11:27:53.000Z</Time>
            <Position>
              <LatitudeDegrees>43.0043853633105754852294921875</LatitudeDegrees>
              <LongitudeDegrees>-1.7615332268178462982177734375</LongitudeDegrees>
            </Position>
            <AltitudeMeters>559.20001220703125</AltitudeMeters>
            <DistanceMeters>NAN</DistanceMeters>
          </Trackpoint>
          <Trackpoint>
            <Time>2021-08-09T11:27:54.000Z</Time>
            <Position>
              <LatitudeDegrees>43.004372119903564453125</LatitudeDegrees>
              <LongitudeDegrees>-1.761470027267932891845703125</LongitudeDegrees>
            </Position>
            <AltitudeMeters>559</AltitudeMeters>
            <DistanceMeters>NAN</DistanceMeters>
          </Trackpoint>
          <Trackpoint>
            <Time>2021-08-09T11:27:55.000Z</Time>
            <Position>
              <LatitudeDegrees>43.00436113961040973663330078125</LatitudeDegrees>
              <LongitudeDegrees>-1.7614185623824596405029296875</LongitudeDegrees>
            </Position>
            <AltitudeMeters>558.79998779296875</AltitudeMeters>
            <DistanceMeters>NAN</DistanceMeters>
          </Trackpoint>
          <Trackpoint>
            <Time>2021-08-09T11:27:56.000Z</Time>
            <Position>
              <LatitudeDegrees>43.0043511651456356048583984375</LatitudeDegrees>
              <LongitudeDegrees>-1.7613739706575870513916015625</LongitudeDegrees>
            </Position>
            <AltitudeMeters>558.79998779296875</AltitudeMeters>
            <DistanceMeters>NAN</DistanceMeters>
          </Trackpoint>
          <Trackpoint>
            <Time>2021-08-09T11:27:59.000Z</Time>
            <Position>
              <LatitudeDegrees>43.00430900417268276214599609375</LatitudeDegrees>
              <LongitudeDegrees>-1.7612445540726184844970703125</LongitudeDegrees>
            </Position>
            <AltitudeMeters>558.4000244140625</AltitudeMeters>
            <DistanceMeters>NAN</DistanceMeters>
          </Trackpoint>
          <Trackpoint>
            <Time>2021-08-09T11:28:00.000Z</Time>
            <Position>
              <LatitudeDegrees>43.00429458729922771453857421875</LatitudeDegrees>
              <LongitudeDegrees>-1.76120482385158538818359375</LongitudeDegrees>
            </Position>
            <AltitudeMeters>558.4000244140625</AltitudeMeters>
            <DistanceMeters>NAN</DistanceMeters>
          </Trackpoint>
          <Trackpoint>
            <Time>2021-08-09T11:28:02.000Z</Time>
            <Position>
              <LatitudeDegrees>43.00427430309355258941650390625</LatitudeDegrees>
              <LongitudeDegrees>-1.761138439178466796875</LongitudeDegrees>
            </Position>
            <AltitudeMeters>558.20001220703125</AltitudeMeters>
            <DistanceMeters>NAN</DistanceMeters>
          </Trackpoint>
          <Trackpoint>
            <Time>2021-08-09T11:28:03.000Z</Time>
            <Position>
              <LatitudeDegrees>43.00425946712493896484375</LatitudeDegrees>
              <LongitudeDegrees>-1.761105917394161224365234375</LongitudeDegrees>
            </Position>
            <AltitudeMeters>558.20001220703125</AltitudeMeters>
            <DistanceMeters>NAN</DistanceMeters>
          </Trackpoint>
          <Trackpoint>
            <Time>2021-08-09T11:28:04.000Z</Time>
            <Position>
              <LatitudeDegrees>43.00425074994564056396484375</LatitudeDegrees>
              <LongitudeDegrees>-1.76108253188431262969970703125</LongitudeDegrees>
            </Position>
            <AltitudeMeters>558.20001220703125</AltitudeMeters>
            <DistanceMeters>NAN</DistanceMeters>
          </Trackpoint>
          <Trackpoint>
            <Time>2021-08-09T11:28:05.000Z</Time>
            <Position>
              <LatitudeDegrees>43.00424915738403797149658203125</LatitudeDegrees>
              <LongitudeDegrees>-1.76106157712638378143310546875</LongitudeDegrees>
            </Position>
            <AltitudeMeters>558.4000244140625</AltitudeMeters>
            <DistanceMeters>NAN</DistanceMeters>
          </Trackpoint>
          <Trackpoint>
            <Time>2021-08-09T11:28:06.000Z</Time>
            <Position>
              <LatitudeDegrees>43.00425016321241855621337890625</LatitudeDegrees>
              <LongitudeDegrees>-1.76104682497680187225341796875</LongitudeDegrees>
            </Position>
            <AltitudeMeters>558.4000244140625</AltitudeMeters>
            <DistanceMeters>NAN</DistanceMeters>
          </Trackpoint>
          <Trackpoint>
            <Time>2021-08-09T11:28:07.000Z</Time>
            <Position>
              <LatitudeDegrees>43.0042556114494800567626953125</LatitudeDegrees>
              <LongitudeDegrees>-1.76102905534207820892333984375</LongitudeDegrees>
            </Position>
            <AltitudeMeters>558.4000244140625</AltitudeMeters>
            <DistanceMeters>NAN</DistanceMeters>
          </Trackpoint>
          <Trackpoint>
            <Time>2021-08-09T11:28:10.000Z</Time>
            <Position>
              <LatitudeDegrees>43.0042569525539875030517578125</LatitudeDegrees>
              <LongitudeDegrees>-1.7610252834856510162353515625</LongitudeDegrees>
            </Position>
            <AltitudeMeters>558.4000244140625</AltitudeMeters>
            <DistanceMeters>NAN</DistanceMeters>
          </Trackpoint>
          <Trackpoint>
            <Time>2021-08-09T11:28:23.000Z</Time>
            <Position>
              <LatitudeDegrees>43.00426407717168331146240234375</LatitudeDegrees>
              <LongitudeDegrees>-1.761012375354766845703125</LongitudeDegrees>
            </Position>
            <AltitudeMeters>558.5999755859375</AltitudeMeters>
            <DistanceMeters>NAN</DistanceMeters>
          </Trackpoint>
          <Trackpoint>
            <Time>2021-08-09T11:28:24.000Z</Time>
            <Position>
              <LatitudeDegrees>43.00427019596099853515625</LatitudeDegrees>
              <LongitudeDegrees>-1.7609998025000095367431640625</LongitudeDegrees>
            </Position>
            <AltitudeMeters>558.5999755859375</AltitudeMeters>
            <DistanceMeters>NAN</DistanceMeters>
          </Trackpoint>
          <Trackpoint>
            <Time>2021-08-09T11:28:25.000Z</Time>
            <Position>
              <LatitudeDegrees>43.0042763985693454742431640625</LatitudeDegrees>
              <LongitudeDegrees>-1.76098530180752277374267578125</LongitudeDegrees>
            </Position>
            <AltitudeMeters>558.4000244140625</AltitudeMeters>
            <DistanceMeters>NAN</DistanceMeters>
          </Trackpoint>
          <Trackpoint>
            <Time>2021-08-09T11:28:26.000Z</Time>
            <Position>
              <LatitudeDegrees>43.0042867921292781829833984375</LatitudeDegrees>
              <LongitudeDegrees>-1.7609654366970062255859375</LongitudeDegrees>
            </Position>
            <AltitudeMeters>558.4000244140625</AltitudeMeters>
            <DistanceMeters>NAN</DistanceMeters>
          </Trackpoint>
          <Trackpoint>
            <Time>2021-08-09T11:28:28.000Z</Time>
            <Position>
              <LatitudeDegrees>43.00432048738002777099609375</LatitudeDegrees>
              <LongitudeDegrees>-1.7609250359237194061279296875</LongitudeDegrees>
            </Position>
            <AltitudeMeters>558.4000244140625</AltitudeMeters>
            <DistanceMeters>NAN</DistanceMeters>
          </Trackpoint>
          <Trackpoint>
            <Time>2021-08-09T11:28:29.000Z</Time>
            <Position>
              <LatitudeDegrees>43.0043441243469715118408203125</LatitudeDegrees>
              <LongitudeDegrees>-1.76090969704091548919677734375</LongitudeDegrees>
            </Position>
            <AltitudeMeters>558.4000244140625</AltitudeMeters>
            <DistanceMeters>NAN</DistanceMeters>
          </Trackpoint>
          <Trackpoint>
            <Time>2021-08-09T11:28:30.000Z</Time>
            <Position>
              <LatitudeDegrees>43.00436700694262981414794921875</LatitudeDegrees>
              <LongitudeDegrees>-1.7608930170536041259765625</LongitudeDegrees>
            </Position>
            <AltitudeMeters>558.4000244140625</AltitudeMeters>
            <DistanceMeters>NAN</DistanceMeters>
          </Trackpoint>
          <Trackpoint>
            <Time>2021-08-09T11:28:31.000Z</Time>
            <Position>
              <LatitudeDegrees>43.004389218986034393310546875</LatitudeDegrees>
              <LongitudeDegrees>-1.7608769237995147705078125</LongitudeDegrees>
            </Position>
            <AltitudeMeters>558.5999755859375</AltitudeMeters>
            <DistanceMeters>NAN</DistanceMeters>
          </Trackpoint>
          <Trackpoint>
            <Time>2021-08-09T11:28:32.000Z</Time>
            <Position>
              <LatitudeDegrees>43.0044083297252655029296875</LatitudeDegrees>
              <LongitudeDegrees>-1.7608635127544403076171875</LongitudeDegrees>
            </Position>
            <AltitudeMeters>558.5999755859375</AltitudeMeters>
            <DistanceMeters>NAN</DistanceMeters>
          </Trackpoint>
          <Trackpoint>
            <Time>2021-08-09T11:28:33.000Z</Time>
            <Position>
              <LatitudeDegrees>43.00442534498870372772216796875</LatitudeDegrees>
              <LongitudeDegrees>-1.76085135899484157562255859375</LongitudeDegrees>
            </Position>
            <AltitudeMeters>558.5999755859375</AltitudeMeters>
            <DistanceMeters>NAN</DistanceMeters>
          </Trackpoint>
          <Trackpoint>
            <Time>2021-08-09T11:28:34.000Z</Time>
            <Position>
              <LatitudeDegrees>43.00443791784346103668212890625</LatitudeDegrees>
              <LongitudeDegrees>-1.76084364764392375946044921875</LongitudeDegrees>
            </Position>
            <AltitudeMeters>558.79998779296875</AltitudeMeters>
            <DistanceMeters>NAN</DistanceMeters>
          </Trackpoint>
          <Trackpoint>
            <Time>2021-08-09T11:28:37.000Z</Time>
            <Position>
              <LatitudeDegrees>43.00450597889721393585205078125</LatitudeDegrees>
              <LongitudeDegrees>-1.76079754717648029327392578125</LongitudeDegrees>
            </Position>
            <AltitudeMeters>559.5999755859375</AltitudeMeters>
            <DistanceMeters>NAN</DistanceMeters>
          </Trackpoint>
          <Trackpoint>
            <Time>2021-08-09T11:28:38.000Z</Time>
            <Position>
              <LatitudeDegrees>43.00452441908419132232666015625</LatitudeDegrees>
              <LongitudeDegrees>-1.7607902549207210540771484375</LongitudeDegrees>
            </Position>
            <AltitudeMeters>559.5999755859375</AltitudeMeters>
            <DistanceMeters>NAN</DistanceMeters>
          </Trackpoint>
          <Trackpoint>
            <Time>2021-08-09T11:28:39.000Z</Time>
            <Position>
              <LatitudeDegrees>43.00453850068151950836181640625</LatitudeDegrees>
              <LongitudeDegrees>-1.76078614778816699981689453125</LongitudeDegrees>
            </Position>
            <AltitudeMeters>560</AltitudeMeters>
            <DistanceMeters>NAN</DistanceMeters>
          </Trackpoint>
          <Trackpoint>
            <Time>2021-08-09T11:28:40.000Z</Time>
            <Position>
              <LatitudeDegrees>43.00455895252525806427001953125</LatitudeDegrees>
              <LongitudeDegrees>-1.760776005685329437255859375</LongitudeDegrees>
            </Position>
            <AltitudeMeters>560</AltitudeMeters>
            <DistanceMeters>NAN</DistanceMeters>
          </Trackpoint>
          <Trackpoint>
            <Time>2021-08-09T11:28:41.000Z</Time>
            <Position>
              <LatitudeDegrees>43.0045754648745059967041015625</LatitudeDegrees>
              <LongitudeDegrees>-1.76076536066830158233642578125</LongitudeDegrees>
            </Position>
            <AltitudeMeters>560.20001220703125</AltitudeMeters>
            <DistanceMeters>NAN</DistanceMeters>
          </Trackpoint>
          <Trackpoint>
            <Time>2021-08-09T11:28:42.000Z</Time>
            <Position>
              <LatitudeDegrees>43.00459273159503936767578125</LatitudeDegrees>
              <LongitudeDegrees>-1.76075731404125690460205078125</LongitudeDegrees>
            </Position>
            <AltitudeMeters>560.20001220703125</AltitudeMeters>
            <DistanceMeters>NAN</DistanceMeters>
          </Trackpoint>
          <Trackpoint>
            <Time>2021-08-09T11:28:43.000Z</Time>
            <Position>
              <LatitudeDegrees>43.00461351871490478515625</LatitudeDegrees>
              <LongitudeDegrees>-1.76074541173875331878662109375</LongitudeDegrees>
            </Position>
            <AltitudeMeters>560.4000244140625</AltitudeMeters>
            <DistanceMeters>NAN</DistanceMeters>
          </Trackpoint>
          <Trackpoint>
            <Time>2021-08-09T11:28:44.000Z</Time>
            <Position>
              <LatitudeDegrees>43.004635311663150787353515625</LatitudeDegrees>
              <LongitudeDegrees>-1.76073811948299407958984375</LongitudeDegrees>
            </Position>
            <AltitudeMeters>560.5999755859375</AltitudeMeters>
            <DistanceMeters>NAN</DistanceMeters>
          </Trackpoint>
          <Trackpoint>
            <Time>2021-08-09T11:28:46.000Z</Time>
            <Position>
              <LatitudeDegrees>43.00468803383409976959228515625</LatitudeDegrees>
              <LongitudeDegrees>-1.76071934401988983154296875</LongitudeDegrees>
            </Position>
            <AltitudeMeters>560.5999755859375</AltitudeMeters>
            <DistanceMeters>NAN</DistanceMeters>
          </Trackpoint>
          <Trackpoint>
            <Time>2021-08-09T11:28:52.000Z</Time>
            <Position>
              <LatitudeDegrees>43.00483681261539459228515625</LatitudeDegrees>
              <LongitudeDegrees>-1.7606953717768192291259765625</LongitudeDegrees>
            </Position>
            <AltitudeMeters>561.4000244140625</AltitudeMeters>
            <DistanceMeters>NAN</DistanceMeters>
          </Trackpoint>
          <Trackpoint>
            <Time>2021-08-09T11:28:53.000Z</Time>
            <Position>
              <LatitudeDegrees>43.00486522726714611053466796875</LatitudeDegrees>
              <LongitudeDegrees>-1.7606876604259014129638671875</LongitudeDegrees>
            </Position>
            <AltitudeMeters>561.4000244140625</AltitudeMeters>
            <DistanceMeters>NAN</DistanceMeters>
          </Trackpoint>
          <Trackpoint>
            <Time>2021-08-09T11:28:54.000Z</Time>
            <Position>
              <LatitudeDegrees>43.00489355809986591339111328125</LatitudeDegrees>
              <LongitudeDegrees>-1.76069126464426517486572265625</LongitudeDegrees>
            </Position>
            <AltitudeMeters>561.4000244140625</AltitudeMeters>
            <DistanceMeters>NAN</DistanceMeters>
          </Trackpoint>
          <Trackpoint>
            <Time>2021-08-09T11:28:55.000Z</Time>
            <Position>
              <LatitudeDegrees>43.00492155365645885467529296875</LatitudeDegrees>
              <LongitudeDegrees>-1.7606809549033641815185546875</LongitudeDegrees>
            </Position>
            <AltitudeMeters>561.5999755859375</AltitudeMeters>
            <DistanceMeters>NAN</DistanceMeters>
          </Trackpoint>
          <Trackpoint>
            <Time>2021-08-09T11:28:56.000Z</Time>
            <Position>
              <LatitudeDegrees>43.00494887866079807281494140625</LatitudeDegrees>
              <LongitudeDegrees>-1.76069092936813831329345703125</LongitudeDegrees>
            </Position>
            <AltitudeMeters>561.79998779296875</AltitudeMeters>
            <DistanceMeters>NAN</DistanceMeters>
          </Trackpoint>
          <Trackpoint>
            <Time>2021-08-09T11:28:57.000Z</Time>
            <Position>
              <LatitudeDegrees>43.00497855059802532196044921875</LatitudeDegrees>
              <LongitudeDegrees>-1.76070702262222766876220703125</LongitudeDegrees>
            </Position>
            <AltitudeMeters>561.79998779296875</AltitudeMeters>
            <DistanceMeters>NAN</DistanceMeters>
          </Trackpoint>
          <Trackpoint>
            <Time>2021-08-09T11:28:58.000Z</Time>
            <Position>
              <LatitudeDegrees>43.00501006655395030975341796875</LatitudeDegrees>
              <LongitudeDegrees>-1.7607240378856658935546875</LongitudeDegrees>
            </Position>
            <AltitudeMeters>562</AltitudeMeters>
            <DistanceMeters>NAN</DistanceMeters>
          </Trackpoint>
          <Trackpoint>
            <Time>2021-08-09T11:28:59.000Z</Time>
            <Position>
              <LatitudeDegrees>43.0050431750714778900146484375</LatitudeDegrees>
              <LongitudeDegrees>-1.76073099486529827117919921875</LongitudeDegrees>
            </Position>
            <AltitudeMeters>562</AltitudeMeters>
            <DistanceMeters>NAN</DistanceMeters>
          </Trackpoint>
          <Trackpoint>
            <Time>2021-08-09T11:29:00.000Z</Time>
            <Position>
              <LatitudeDegrees>43.00507762469351291656494140625</LatitudeDegrees>
              <LongitudeDegrees>-1.760739125311374664306640625</LongitudeDegrees>
            </Position>
            <AltitudeMeters>562</AltitudeMeters>
            <DistanceMeters>NAN</DistanceMeters>
          </Trackpoint>
          <Trackpoint>
            <Time>2021-08-09T11:29:01.000Z</Time>
            <Position>
              <LatitudeDegrees>43.00510511733591556549072265625</LatitudeDegrees>
              <LongitudeDegrees>-1.7607560567557811737060546875</LongitudeDegrees>
            </Position>
            <AltitudeMeters>562.20001220703125</AltitudeMeters>
            <DistanceMeters>NAN</DistanceMeters>
          </Trackpoint>
          <Trackpoint>
            <Time>2021-08-09T11:29:02.000Z</Time>
            <Position>
              <LatitudeDegrees>43.005136549472808837890625</LatitudeDegrees>
              <LongitudeDegrees>-1.76077173091471195220947265625</LongitudeDegrees>
            </Position>
            <AltitudeMeters>562.20001220703125</AltitudeMeters>
            <DistanceMeters>NAN</DistanceMeters>
          </Trackpoint>
          <Trackpoint>
            <Time>2021-08-09T11:29:03.000Z</Time>
            <Position>
              <LatitudeDegrees>43.00517099909484386444091796875</LatitudeDegrees>
              <LongitudeDegrees>-1.7607755027711391448974609375</LongitudeDegrees>
            </Position>
            <AltitudeMeters>562.20001220703125</AltitudeMeters>
            <DistanceMeters>NAN</DistanceMeters>
          </Trackpoint>
          <Trackpoint>
            <Time>2021-08-09T11:29:04.000Z</Time>
            <Position>
              <LatitudeDegrees>43.005205951631069183349609375</LatitudeDegrees>
              <LongitudeDegrees>-1.760765947401523590087890625</LongitudeDegrees>
            </Position>
            <AltitudeMeters>562.20001220703125</AltitudeMeters>
            <DistanceMeters>NAN</DistanceMeters>
          </Trackpoint>
          <Trackpoint>
            <Time>2021-08-09T11:29:05.000Z</Time>
            <Position>
              <LatitudeDegrees>43.00523855723440647125244140625</LatitudeDegrees>
              <LongitudeDegrees>-1.7607781849801540374755859375</LongitudeDegrees>
            </Position>
            <AltitudeMeters>562.4000244140625</AltitudeMeters>
            <DistanceMeters>NAN</DistanceMeters>
          </Trackpoint>
          <Trackpoint>
            <Time>2021-08-09T11:29:06.000Z</Time>
            <Position>
              <LatitudeDegrees>43.00525733269751071929931640625</LatitudeDegrees>
              <LongitudeDegrees>-1.76078832708299160003662109375</LongitudeDegrees>
            </Position>
            <AltitudeMeters>562.4000244140625</AltitudeMeters>
            <DistanceMeters>NAN</DistanceMeters>
          </Trackpoint>
          <Trackpoint>
            <Time>2021-08-09T11:29:08.000Z</Time>
            <Position>
              <LatitudeDegrees>43.0053030140697956085205078125</LatitudeDegrees>
              <LongitudeDegrees>-1.76081012003123760223388671875</LongitudeDegrees>
            </Position>
            <AltitudeMeters>562.5999755859375</AltitudeMeters>
            <DistanceMeters>NAN</DistanceMeters>
          </Trackpoint>
          <Trackpoint>
            <Time>2021-08-09T11:29:09.000Z</Time>
            <Position>
              <LatitudeDegrees>43.0053318478167057037353515625</LatitudeDegrees>
              <LongitudeDegrees>-1.76080861128866672515869140625</LongitudeDegrees>
            </Position>
            <AltitudeMeters>562.79998779296875</AltitudeMeters>
            <DistanceMeters>NAN</DistanceMeters>
          </Trackpoint>
          <Trackpoint>
            <Time>2021-08-09T11:29:12.000Z</Time>
            <Position>
              <LatitudeDegrees>43.00542999990284442901611328125</LatitudeDegrees>
              <LongitudeDegrees>-1.760867536067962646484375</LongitudeDegrees>
            </Position>
            <AltitudeMeters>563</AltitudeMeters>
            <DistanceMeters>NAN</DistanceMeters>
          </Trackpoint>
          <Trackpoint>
            <Time>2021-08-09T11:29:14.000Z</Time>
            <Position>
              <LatitudeDegrees>43.00550459884107112884521484375</LatitudeDegrees>
              <LongitudeDegrees>-1.76086208783090114593505859375</LongitudeDegrees>
            </Position>
            <AltitudeMeters>563.20001220703125</AltitudeMeters>
            <DistanceMeters>NAN</DistanceMeters>
          </Trackpoint>
          <Trackpoint>
            <Time>2021-08-09T11:29:15.000Z</Time>
            <Position>
              <LatitudeDegrees>43.005535863339900970458984375</LatitudeDegrees>
              <LongitudeDegrees>-1.76087558269500732421875</LongitudeDegrees>
            </Position>
            <AltitudeMeters>563.20001220703125</AltitudeMeters>
            <DistanceMeters>NAN</DistanceMeters>
          </Trackpoint>
          <Trackpoint>
            <Time>2021-08-09T11:29:18.000Z</Time>
            <Position>
              <LatitudeDegrees>43.00563116557896137237548828125</LatitudeDegrees>
              <LongitudeDegrees>-1.76089704036712646484375</LongitudeDegrees>
            </Position>
            <AltitudeMeters>563.5999755859375</AltitudeMeters>
            <DistanceMeters>NAN</DistanceMeters>
          </Trackpoint>
          <Trackpoint>
            <Time>2021-08-09T11:29:20.000Z</Time>
            <Position>
              <LatitudeDegrees>43.00568397156894207000732421875</LatitudeDegrees>
              <LongitudeDegrees>-1.76091640256345272064208984375</LongitudeDegrees>
            </Position>
            <AltitudeMeters>563.79998779296875</AltitudeMeters>
            <DistanceMeters>NAN</DistanceMeters>
          </Trackpoint>
          <Trackpoint>
            <Time>2021-08-09T11:29:26.000Z</Time>
            <Position>
              <LatitudeDegrees>43.00585814751684665679931640625</LatitudeDegrees>
              <LongitudeDegrees>-1.76098681055009365081787109375</LongitudeDegrees>
            </Position>
            <AltitudeMeters>564.5999755859375</AltitudeMeters>
            <DistanceMeters>NAN</DistanceMeters>
          </Trackpoint>
          <Trackpoint>
            <Time>2021-08-09T11:29:27.000Z</Time>
            <Position>
              <LatitudeDegrees>43.0058823712170124053955078125</LatitudeDegrees>
              <LongitudeDegrees>-1.76099971868097782135009765625</LongitudeDegrees>
            </Position>
            <AltitudeMeters>564.79998779296875</AltitudeMeters>
            <DistanceMeters>NAN</DistanceMeters>
          </Trackpoint>
          <Trackpoint>
            <Time>2021-08-09T11:29:28.000Z</Time>
            <Position>
              <LatitudeDegrees>43.0059125460684299468994140625</LatitudeDegrees>
              <LongitudeDegrees>-1.76101011224091053009033203125</LongitudeDegrees>
            </Position>
            <AltitudeMeters>565</AltitudeMeters>
            <DistanceMeters>NAN</DistanceMeters>
          </Trackpoint>
          <Trackpoint>
            <Time>2021-08-09T11:29:29.000Z</Time>
            <Position>
              <LatitudeDegrees>43.00594280473887920379638671875</LatitudeDegrees>
              <LongitudeDegrees>-1.7610055021941661834716796875</LongitudeDegrees>
            </Position>
            <AltitudeMeters>565</AltitudeMeters>
            <DistanceMeters>NAN</DistanceMeters>
          </Trackpoint>
          <Trackpoint>
            <Time>2021-08-09T11:29:30.000Z</Time>
            <Position>
              <LatitudeDegrees>43.005977757275104522705078125</LatitudeDegrees>
              <LongitudeDegrees>-1.76101715303957462310791015625</LongitudeDegrees>
            </Position>
            <AltitudeMeters>565.20001220703125</AltitudeMeters>
            <DistanceMeters>NAN</DistanceMeters>
          </Trackpoint>
          <Trackpoint>
            <Time>2021-08-09T11:29:31.000Z</Time>
            <Position>
              <LatitudeDegrees>43.00601606257259845733642578125</LatitudeDegrees>
              <LongitudeDegrees>-1.761038191616535186767578125</LongitudeDegrees>
            </Position>
            <AltitudeMeters>565.20001220703125</AltitudeMeters>
            <DistanceMeters>NAN</DistanceMeters>
          </Trackpoint>
          <Trackpoint>
            <Time>2021-08-09T11:29:32.000Z</Time>
            <Position>
              <LatitudeDegrees>43.00605478696525096893310546875</LatitudeDegrees>
              <LongitudeDegrees>-1.7610490880906581878662109375</LongitudeDegrees>
            </Position>
            <AltitudeMeters>565.4000244140625</AltitudeMeters>
            <DistanceMeters>NAN</DistanceMeters>
          </Trackpoint>
          <Trackpoint>
            <Time>2021-08-09T11:29:33.000Z</Time>
            <Position>
              <LatitudeDegrees>43.00609284080564975738525390625</LatitudeDegrees>
              <LongitudeDegrees>-1.7610512673854827880859375</LongitudeDegrees>
            </Position>
            <AltitudeMeters>565.4000244140625</AltitudeMeters>
            <DistanceMeters>NAN</DistanceMeters>
          </Trackpoint>
          <Trackpoint>
            <Time>2021-08-09T11:29:34.000Z</Time>
            <Position>
              <LatitudeDegrees>43.00612485967576503753662109375</LatitudeDegrees>
              <LongitudeDegrees>-1.761054955422878265380859375</LongitudeDegrees>
            </Position>
            <AltitudeMeters>565.4000244140625</AltitudeMeters>
            <DistanceMeters>NAN</DistanceMeters>
          </Trackpoint>
          <Trackpoint>
            <Time>2021-08-09T11:29:35.000Z</Time>
            <Position>
              <LatitudeDegrees>43.00615369342267513275146484375</LatitudeDegrees>
              <LongitudeDegrees>-1.76106803119182586669921875</LongitudeDegrees>
            </Position>
            <AltitudeMeters>565.4000244140625</AltitudeMeters>
            <DistanceMeters>NAN</DistanceMeters>
          </Trackpoint>
          <Trackpoint>
            <Time>2021-08-09T11:29:36.000Z</Time>
            <Position>
              <LatitudeDegrees>43.0061978660523891448974609375</LatitudeDegrees>
              <LongitudeDegrees>-1.7610993795096874237060546875</LongitudeDegrees>
            </Position>
            <AltitudeMeters>565.4000244140625</AltitudeMeters>
            <DistanceMeters>NAN</DistanceMeters>
          </Trackpoint>
          <Trackpoint>
            <Time>2021-08-09T11:29:37.000Z</Time>
            <Position>
              <LatitudeDegrees>43.0062377639114856719970703125</LatitudeDegrees>
              <LongitudeDegrees>-1.76111823879182338714599609375</LongitudeDegrees>
            </Position>
            <AltitudeMeters>565.5999755859375</AltitudeMeters>
            <DistanceMeters>NAN</DistanceMeters>
          </Trackpoint>
          <Trackpoint>
            <Time>2021-08-09T11:29:38.000Z</Time>
            <Position>
              <LatitudeDegrees>43.00627992488443851470947265625</LatitudeDegrees>
              <LongitudeDegrees>-1.761134080588817596435546875</LongitudeDegrees>
            </Position>
            <AltitudeMeters>565.5999755859375</AltitudeMeters>
            <DistanceMeters>NAN</DistanceMeters>
          </Trackpoint>
          <Trackpoint>
            <Time>2021-08-09T11:29:39.000Z</Time>
            <Position>
              <LatitudeDegrees>43.00632116384804248809814453125</LatitudeDegrees>
              <LongitudeDegrees>-1.76114472560584545135498046875</LongitudeDegrees>
            </Position>
            <AltitudeMeters>565.5999755859375</AltitudeMeters>
            <DistanceMeters>NAN</DistanceMeters>
          </Trackpoint>
          <Trackpoint>
            <Time>2021-08-09T11:29:40.000Z</Time>
            <Position>
              <LatitudeDegrees>43.006360642611980438232421875</LatitudeDegrees>
              <LongitudeDegrees>-1.76115578971803188323974609375</LongitudeDegrees>
            </Position>
            <AltitudeMeters>565.5999755859375</AltitudeMeters>
            <DistanceMeters>NAN</DistanceMeters>
          </Trackpoint>
          <Trackpoint>
            <Time>2021-08-09T11:29:41.000Z</Time>
            <Position>
              <LatitudeDegrees>43.00640598870813846588134765625</LatitudeDegrees>
              <LongitudeDegrees>-1.76114715635776519775390625</LongitudeDegrees>
            </Position>
            <AltitudeMeters>565.5999755859375</AltitudeMeters>
            <DistanceMeters>NAN</DistanceMeters>
          </Trackpoint>
          <Trackpoint>
            <Time>2021-08-09T11:29:44.000Z</Time>
            <Position>
              <LatitudeDegrees>43.0065165460109710693359375</LatitudeDegrees>
              <LongitudeDegrees>-1.76117666065692901611328125</LongitudeDegrees>
            </Position>
            <AltitudeMeters>565.20001220703125</AltitudeMeters>
            <DistanceMeters>NAN</DistanceMeters>
          </Trackpoint>
          <Trackpoint>
            <Time>2021-08-09T11:29:50.000Z</Time>
            <Position>
              <LatitudeDegrees>43.00674294121563434600830078125</LatitudeDegrees>
              <LongitudeDegrees>-1.76123726181685924530029296875</LongitudeDegrees>
            </Position>
            <AltitudeMeters>565.20001220703125</AltitudeMeters>
            <DistanceMeters>NAN</DistanceMeters>
          </Trackpoint>
          <Trackpoint>
            <Time>2021-08-09T11:29:51.000Z</Time>
            <Position>
              <LatitudeDegrees>43.00678015686571598052978515625</LatitudeDegrees>
              <LongitudeDegrees>-1.76124312914907932281494140625</LongitudeDegrees>
            </Position>
            <AltitudeMeters>565.20001220703125</AltitudeMeters>
            <DistanceMeters>NAN</DistanceMeters>
          </Trackpoint>
          <Trackpoint>
            <Time>2021-08-09T11:29:52.000Z</Time>
            <Position>
              <LatitudeDegrees>43.006815612316131591796875</LatitudeDegrees>
              <LongitudeDegrees>-1.7612435482442378997802734375</LongitudeDegrees>
            </Position>
            <AltitudeMeters>565</AltitudeMeters>
            <DistanceMeters>NAN</DistanceMeters>
          </Trackpoint>
          <Trackpoint>
            <Time>2021-08-09T11:29:53.000Z</Time>
            <Position>
              <LatitudeDegrees>43.00684486515820026397705078125</LatitudeDegrees>
              <LongitudeDegrees>-1.76124447025358676910400390625</LongitudeDegrees>
            </Position>
            <AltitudeMeters>565</AltitudeMeters>
            <DistanceMeters>NAN</DistanceMeters>
          </Trackpoint>
          <Trackpoint>
            <Time>2021-08-09T11:29:59.000Z</Time>
            <Position>
              <LatitudeDegrees>43.0071047879755496978759765625</LatitudeDegrees>
              <LongitudeDegrees>-1.76118579693138599395751953125</LongitudeDegrees>
            </Position>
            <AltitudeMeters>564.79998779296875</AltitudeMeters>
            <DistanceMeters>NAN</DistanceMeters>
          </Trackpoint>
          <Trackpoint>
            <Time>2021-08-09T11:30:05.000Z</Time>
            <Position>
              <LatitudeDegrees>43.00738968886435031890869140625</LatitudeDegrees>
              <LongitudeDegrees>-1.7611278779804706573486328125</LongitudeDegrees>
            </Position>
            <AltitudeMeters>564.4000244140625</AltitudeMeters>
            <DistanceMeters>NAN</DistanceMeters>
          </Trackpoint>
          <Trackpoint>
            <Time>2021-08-09T11:30:07.000Z</Time>
            <Position>
              <LatitudeDegrees>43.0074846558272838592529296875</LatitudeDegrees>
              <LongitudeDegrees>-1.761098206043243408203125</LongitudeDegrees>
            </Position>
            <AltitudeMeters>564.20001220703125</AltitudeMeters>
            <DistanceMeters>NAN</DistanceMeters>
          </Trackpoint>
          <Trackpoint>
            <Time>2021-08-09T11:30:08.000Z</Time>
            <Position>
              <LatitudeDegrees>43.00754123367369174957275390625</LatitudeDegrees>
              <LongitudeDegrees>-1.7610889859497547149658203125</LongitudeDegrees>
            </Position>
            <AltitudeMeters>564.20001220703125</AltitudeMeters>
            <DistanceMeters>NAN</DistanceMeters>
          </Trackpoint>
          <Trackpoint>
            <Time>2021-08-09T11:30:09.000Z</Time>
            <Position>
              <LatitudeDegrees>43.007589094340801239013671875</LatitudeDegrees>
              <LongitudeDegrees>-1.76108337007462978363037109375</LongitudeDegrees>
            </Position>
            <AltitudeMeters>564.20001220703125</AltitudeMeters>
            <DistanceMeters>NAN</DistanceMeters>
          </Trackpoint>
          <Trackpoint>
            <Time>2021-08-09T11:30:11.000Z</Time>
            <Position>
              <LatitudeDegrees>43.0076814629137516021728515625</LatitudeDegrees>
              <LongitudeDegrees>-1.76107917912304401397705078125</LongitudeDegrees>
            </Position>
            <AltitudeMeters>564.20001220703125</AltitudeMeters>
            <DistanceMeters>NAN</DistanceMeters>
          </Trackpoint>
          <Trackpoint>
            <Time>2021-08-09T11:30:13.000Z</Time>
            <Position>
              <LatitudeDegrees>43.007768131792545318603515625</LatitudeDegrees>
              <LongitudeDegrees>-1.76109560765326023101806640625</LongitudeDegrees>
            </Position>
            <AltitudeMeters>564.20001220703125</AltitudeMeters>
            <DistanceMeters>NAN</DistanceMeters>
          </Trackpoint>
          <Trackpoint>
            <Time>2021-08-09T11:30:14.000Z</Time>
            <Position>
              <LatitudeDegrees>43.00781213678419589996337890625</LatitudeDegrees>
              <LongitudeDegrees>-1.76111086271703243255615234375</LongitudeDegrees>
            </Position>
            <AltitudeMeters>564.20001220703125</AltitudeMeters>
            <DistanceMeters>NAN</DistanceMeters>
          </Trackpoint>
          <Trackpoint>
            <Time>2021-08-09T11:30:15.000Z</Time>
            <Position>
              <LatitudeDegrees>43.0078527890145778656005859375</LatitudeDegrees>
              <LongitudeDegrees>-1.76113332621753215789794921875</LongitudeDegrees>
            </Position>
            <AltitudeMeters>564.4000244140625</AltitudeMeters>
            <DistanceMeters>NAN</DistanceMeters>
          </Trackpoint>
          <Trackpoint>
            <Time>2021-08-09T11:30:16.000Z</Time>
            <Position>
              <LatitudeDegrees>43.0078952014446258544921875</LatitudeDegrees>
              <LongitudeDegrees>-1.7611513473093509674072265625</LongitudeDegrees>
            </Position>
            <AltitudeMeters>564.4000244140625</AltitudeMeters>
            <DistanceMeters>NAN</DistanceMeters>
          </Trackpoint>
          <Trackpoint>
            <Time>2021-08-09T11:30:17.000Z</Time>
            <Position>
              <LatitudeDegrees>43.00792562775313854217529296875</LatitudeDegrees>
              <LongitudeDegrees>-1.761168278753757476806640625</LongitudeDegrees>
            </Position>
            <AltitudeMeters>564.5999755859375</AltitudeMeters>
            <DistanceMeters>NAN</DistanceMeters>
          </Trackpoint>
          <Trackpoint>
            <Time>2021-08-09T11:30:18.000Z</Time>
            <Position>
              <LatitudeDegrees>43.00796736963093280792236328125</LatitudeDegrees>
              <LongitudeDegrees>-1.76119451411068439483642578125</LongitudeDegrees>
            </Position>
            <AltitudeMeters>564.79998779296875</AltitudeMeters>
            <DistanceMeters>NAN</DistanceMeters>
          </Trackpoint>
          <Trackpoint>
            <Time>2021-08-09T11:30:19.000Z</Time>
            <Position>
              <LatitudeDegrees>43.0079986341297626495361328125</LatitudeDegrees>
              <LongitudeDegrees>-1.76122217439115047454833984375</LongitudeDegrees>
            </Position>
            <AltitudeMeters>564.79998779296875</AltitudeMeters>
            <DistanceMeters>NAN</DistanceMeters>
          </Trackpoint>
          <Trackpoint>
            <Time>2021-08-09T11:30:20.000Z</Time>
            <Position>
              <LatitudeDegrees>43.00802855752408504486083984375</LatitudeDegrees>
              <LongitudeDegrees>-1.76124262623488903045654296875</LongitudeDegrees>
            </Position>
            <AltitudeMeters>565</AltitudeMeters>
            <DistanceMeters>NAN</DistanceMeters>
          </Trackpoint>
          <Trackpoint>
            <Time>2021-08-09T11:30:21.000Z</Time>
            <Position>
              <LatitudeDegrees>43.00806057639420032501220703125</LatitudeDegrees>
              <LongitudeDegrees>-1.76126207225024700164794921875</LongitudeDegrees>
            </Position>
            <AltitudeMeters>565</AltitudeMeters>
            <DistanceMeters>NAN</DistanceMeters>
          </Trackpoint>
          <Trackpoint>
            <Time>2021-08-09T11:30:22.000Z</Time>
            <Position>
              <LatitudeDegrees>43.0080921761691570281982421875</LatitudeDegrees>
              <LongitudeDegrees>-1.761282272636890411376953125</LongitudeDegrees>
            </Position>
            <AltitudeMeters>565.20001220703125</AltitudeMeters>
            <DistanceMeters>NAN</DistanceMeters>
          </Trackpoint>
          <Trackpoint>
            <Time>2021-08-09T11:30:23.000Z</Time>
            <Position>
              <LatitudeDegrees>43.00812545232474803924560546875</LatitudeDegrees>
              <LongitudeDegrees>-1.76130314357578754425048828125</LongitudeDegrees>
            </Position>
            <AltitudeMeters>565.4000244140625</AltitudeMeters>
            <DistanceMeters>NAN</DistanceMeters>
          </Trackpoint>
          <Trackpoint>
            <Time>2021-08-09T11:30:24.000Z</Time>
            <Position>
              <LatitudeDegrees>43.008157722651958465576171875</LatitudeDegrees>
              <LongitudeDegrees>-1.76132493652403354644775390625</LongitudeDegrees>
            </Position>
            <AltitudeMeters>565.4000244140625</AltitudeMeters>
            <DistanceMeters>NAN</DistanceMeters>
          </Trackpoint>
          <Trackpoint>
            <Time>2021-08-09T11:30:25.000Z</Time>
            <Position>
              <LatitudeDegrees>43.00818764604628086090087890625</LatitudeDegrees>
              <LongitudeDegrees>-1.76134069450199604034423828125</LongitudeDegrees>
            </Position>
            <AltitudeMeters>565.79998779296875</AltitudeMeters>
            <DistanceMeters>NAN</DistanceMeters>
          </Trackpoint>
          <Trackpoint>
            <Time>2021-08-09T11:30:26.000Z</Time>
            <Position>
              <LatitudeDegrees>43.00821497105062007904052734375</LatitudeDegrees>
              <LongitudeDegrees>-1.76134723238646984100341796875</LongitudeDegrees>
            </Position>
            <AltitudeMeters>565.79998779296875</AltitudeMeters>
            <DistanceMeters>NAN</DistanceMeters>
          </Trackpoint>
          <Trackpoint>
            <Time>2021-08-09T11:30:27.000Z</Time>
            <Position>
              <LatitudeDegrees>43.00825394690036773681640625</LatitudeDegrees>
              <LongitudeDegrees>-1.76135896705090999603271484375</LongitudeDegrees>
            </Position>
            <AltitudeMeters>566</AltitudeMeters>
            <DistanceMeters>NAN</DistanceMeters>
          </Trackpoint>
          <Trackpoint>
            <Time>2021-08-09T11:30:28.000Z</Time>
            <Position>
              <LatitudeDegrees>43.00829015672206878662109375</LatitudeDegrees>
              <LongitudeDegrees>-1.76136584021151065826416015625</LongitudeDegrees>
            </Position>
            <AltitudeMeters>566</AltitudeMeters>
            <DistanceMeters>NAN</DistanceMeters>
          </Trackpoint>
          <Trackpoint>
            <Time>2021-08-09T11:30:29.000Z</Time>
            <Position>
              <LatitudeDegrees>43.008326701819896697998046875</LatitudeDegrees>
              <LongitudeDegrees>-1.76137271337211132049560546875</LongitudeDegrees>
            </Position>
            <AltitudeMeters>566.20001220703125</AltitudeMeters>
            <DistanceMeters>NAN</DistanceMeters>
          </Trackpoint>
          <Trackpoint>
            <Time>2021-08-09T11:30:30.000Z</Time>
            <Position>
              <LatitudeDegrees>43.0083587206900119781494140625</LatitudeDegrees>
              <LongitudeDegrees>-1.76137103699147701263427734375</LongitudeDegrees>
            </Position>
            <AltitudeMeters>566.20001220703125</AltitudeMeters>
            <DistanceMeters>NAN</DistanceMeters>
          </Trackpoint>
          <Trackpoint>
            <Time>2021-08-09T11:30:31.000Z</Time>
            <Position>
              <LatitudeDegrees>43.00839216448366641998291015625</LatitudeDegrees>
              <LongitudeDegrees>-1.7613753117620944976806640625</LongitudeDegrees>
            </Position>
            <AltitudeMeters>566.20001220703125</AltitudeMeters>
            <DistanceMeters>NAN</DistanceMeters>
          </Trackpoint>
          <Trackpoint>
            <Time>2021-08-09T11:30:32.000Z</Time>
            <Position>
              <LatitudeDegrees>43.00843105651438236236572265625</LatitudeDegrees>
              <LongitudeDegrees>-1.76137958653271198272705078125</LongitudeDegrees>
            </Position>
            <AltitudeMeters>566.4000244140625</AltitudeMeters>
            <DistanceMeters>NAN</DistanceMeters>
          </Trackpoint>
          <Trackpoint>
            <Time>2021-08-09T11:30:33.000Z</Time>
            <Position>
              <LatitudeDegrees>43.00846441648900508880615234375</LatitudeDegrees>
              <LongitudeDegrees>-1.7613803409039974212646484375</LongitudeDegrees>
            </Position>
            <AltitudeMeters>566.4000244140625</AltitudeMeters>
            <DistanceMeters>NAN</DistanceMeters>
          </Trackpoint>
          <Trackpoint>
            <Time>2021-08-09T11:30:34.000Z</Time>
            <Position>
              <LatitudeDegrees>43.00849936902523040771484375</LatitudeDegrees>
              <LongitudeDegrees>-1.76137522794306278228759765625</LongitudeDegrees>
            </Position>
            <AltitudeMeters>566.5999755859375</AltitudeMeters>
            <DistanceMeters>NAN</DistanceMeters>
          </Trackpoint>
          <Trackpoint>
            <Time>2021-08-09T11:30:35.000Z</Time>
            <Position>
              <LatitudeDegrees>43.00852711312472820281982421875</LatitudeDegrees>
              <LongitudeDegrees>-1.76136667840182781219482421875</LongitudeDegrees>
            </Position>
            <AltitudeMeters>566.79998779296875</AltitudeMeters>
            <DistanceMeters>NAN</DistanceMeters>
          </Trackpoint>
          <Trackpoint>
            <Time>2021-08-09T11:30:37.000Z</Time>
            <Position>
              <LatitudeDegrees>43.00859819166362285614013671875</LatitudeDegrees>
              <LongitudeDegrees>-1.76133885048329830169677734375</LongitudeDegrees>
            </Position>
            <AltitudeMeters>567.20001220703125</AltitudeMeters>
            <DistanceMeters>NAN</DistanceMeters>
          </Trackpoint>
          <Trackpoint>
            <Time>2021-08-09T11:30:42.000Z</Time>
            <Position>
              <LatitudeDegrees>43.0087607167661190032958984375</LatitudeDegrees>
              <LongitudeDegrees>-1.7612784169614315032958984375</LongitudeDegrees>
            </Position>
            <AltitudeMeters>567.79998779296875</AltitudeMeters>
            <DistanceMeters>NAN</DistanceMeters>
          </Trackpoint>
          <Trackpoint>
            <Time>2021-08-09T11:30:43.000Z</Time>
            <Position>
              <LatitudeDegrees>43.0087922327220439910888671875</LatitudeDegrees>
              <LongitudeDegrees>-1.76126307807862758636474609375</LongitudeDegrees>
            </Position>
            <AltitudeMeters>567.79998779296875</AltitudeMeters>
            <DistanceMeters>NAN</DistanceMeters>
          </Trackpoint>
          <Trackpoint>
            <Time>2021-08-09T11:30:44.000Z</Time>
            <Position>
              <LatitudeDegrees>43.0088177137076854705810546875</LatitudeDegrees>
              <LongitudeDegrees>-1.76124949939548969268798828125</LongitudeDegrees>
            </Position>
            <AltitudeMeters>568</AltitudeMeters>
            <DistanceMeters>NAN</DistanceMeters>
          </Trackpoint>
          <Trackpoint>
            <Time>2021-08-09T11:30:45.000Z</Time>
            <Position>
              <LatitudeDegrees>43.00884897820651531219482421875</LatitudeDegrees>
              <LongitudeDegrees>-1.76123575307428836822509765625</LongitudeDegrees>
            </Position>
            <AltitudeMeters>568.20001220703125</AltitudeMeters>
            <DistanceMeters>NAN</DistanceMeters>
          </Trackpoint>
          <Trackpoint>
            <Time>2021-08-09T11:30:46.000Z</Time>
            <Position>
              <LatitudeDegrees>43.008886277675628662109375</LatitudeDegrees>
              <LongitudeDegrees>-1.76122183911502361297607421875</LongitudeDegrees>
            </Position>
            <AltitudeMeters>568.4000244140625</AltitudeMeters>
            <DistanceMeters>NAN</DistanceMeters>
          </Trackpoint>
          <Trackpoint>
            <Time>2021-08-09T11:30:47.000Z</Time>
            <Position>
              <LatitudeDegrees>43.00891653634607791900634765625</LatitudeDegrees>
              <LongitudeDegrees>-1.7612086795270442962646484375</LongitudeDegrees>
            </Position>
            <AltitudeMeters>568.4000244140625</AltitudeMeters>
            <DistanceMeters>NAN</DistanceMeters>
          </Trackpoint>
          <Trackpoint>
            <Time>2021-08-09T11:30:48.000Z</Time>
            <Position>
              <LatitudeDegrees>43.008948303759098052978515625</LatitudeDegrees>
              <LongitudeDegrees>-1.761197783052921295166015625</LongitudeDegrees>
            </Position>
            <AltitudeMeters>568.5999755859375</AltitudeMeters>
            <DistanceMeters>NAN</DistanceMeters>
          </Trackpoint>
          <Trackpoint>
            <Time>2021-08-09T11:30:49.000Z</Time>
            <Position>
              <LatitudeDegrees>43.00897370092570781707763671875</LatitudeDegrees>
              <LongitudeDegrees>-1.761189065873622894287109375</LongitudeDegrees>
            </Position>
            <AltitudeMeters>568.79998779296875</AltitudeMeters>
            <DistanceMeters>NAN</DistanceMeters>
          </Trackpoint>
          <Trackpoint>
            <Time>2021-08-09T11:30:50.000Z</Time>
            <Position>
              <LatitudeDegrees>43.009010665118694305419921875</LatitudeDegrees>
              <LongitudeDegrees>-1.761171631515026092529296875</LongitudeDegrees>
            </Position>
            <AltitudeMeters>568.79998779296875</AltitudeMeters>
            <DistanceMeters>NAN</DistanceMeters>
          </Trackpoint>
          <Trackpoint>
            <Time>2021-08-09T11:30:51.000Z</Time>
            <Position>
              <LatitudeDegrees>43.00903907977044582366943359375</LatitudeDegrees>
              <LongitudeDegrees>-1.76115679554641246795654296875</LongitudeDegrees>
            </Position>
            <AltitudeMeters>569</AltitudeMeters>
            <DistanceMeters>NAN</DistanceMeters>
          </Trackpoint>
          <Trackpoint>
            <Time>2021-08-09T11:30:52.000Z</Time>
            <Position>
              <LatitudeDegrees>43.00906841643154621124267578125</LatitudeDegrees>
              <LongitudeDegrees>-1.761143468320369720458984375</LongitudeDegrees>
            </Position>
            <AltitudeMeters>569.20001220703125</AltitudeMeters>
            <DistanceMeters>NAN</DistanceMeters>
          </Trackpoint>
          <Trackpoint>
            <Time>2021-08-09T11:30:53.000Z</Time>
            <Position>
              <LatitudeDegrees>43.0090933106839656829833984375</LatitudeDegrees>
              <LongitudeDegrees>-1.7611362598836421966552734375</LongitudeDegrees>
            </Position>
            <AltitudeMeters>569.4000244140625</AltitudeMeters>
            <DistanceMeters>NAN</DistanceMeters>
          </Trackpoint>
          <Trackpoint>
            <Time>2021-08-09T11:30:54.000Z</Time>
            <Position>
              <LatitudeDegrees>43.00912323407828807830810546875</LatitudeDegrees>
              <LongitudeDegrees>-1.761130057275295257568359375</LongitudeDegrees>
            </Position>
            <AltitudeMeters>569.4000244140625</AltitudeMeters>
            <DistanceMeters>NAN</DistanceMeters>
          </Trackpoint>
          <Trackpoint>
            <Time>2021-08-09T11:30:55.000Z</Time>
            <Position>
              <LatitudeDegrees>43.00915877334773540496826171875</LatitudeDegrees>
              <LongitudeDegrees>-1.76111991517245769500732421875</LongitudeDegrees>
            </Position>
            <AltitudeMeters>569.5999755859375</AltitudeMeters>
            <DistanceMeters>NAN</DistanceMeters>
          </Trackpoint>
          <Trackpoint>
            <Time>2021-08-09T11:30:56.000Z</Time>
            <Position>
              <LatitudeDegrees>43.009189032018184661865234375</LatitudeDegrees>
              <LongitudeDegrees>-1.7611111141741275787353515625</LongitudeDegrees>
            </Position>
            <AltitudeMeters>569.5999755859375</AltitudeMeters>
            <DistanceMeters>NAN</DistanceMeters>
          </Trackpoint>
          <Trackpoint>
            <Time>2021-08-09T11:30:57.000Z</Time>
            <Position>
              <LatitudeDegrees>43.0092180334031581878662109375</LatitudeDegrees>
              <LongitudeDegrees>-1.76110248081386089324951171875</LongitudeDegrees>
            </Position>
            <AltitudeMeters>569.79998779296875</AltitudeMeters>
            <DistanceMeters>NAN</DistanceMeters>
          </Trackpoint>
          <Trackpoint>
            <Time>2021-08-09T11:30:58.000Z</Time>
            <Position>
              <LatitudeDegrees>43.0092418380081653594970703125</LatitudeDegrees>
              <LongitudeDegrees>-1.7610953561961650848388671875</LongitudeDegrees>
            </Position>
            <AltitudeMeters>570</AltitudeMeters>
            <DistanceMeters>NAN</DistanceMeters>
          </Trackpoint>
          <Trackpoint>
            <Time>2021-08-09T11:30:59.000Z</Time>
            <Position>
              <LatitudeDegrees>43.00927930511534214019775390625</LatitudeDegrees>
              <LongitudeDegrees>-1.7610859684646129608154296875</LongitudeDegrees>
            </Position>
            <AltitudeMeters>570.20001220703125</AltitudeMeters>
            <DistanceMeters>NAN</DistanceMeters>
          </Trackpoint>
          <Trackpoint>
            <Time>2021-08-09T11:31:00.000Z</Time>
            <Position>
              <LatitudeDegrees>43.00930947996675968170166015625</LatitudeDegrees>
              <LongitudeDegrees>-1.7610792629420757293701171875</LongitudeDegrees>
            </Position>
            <AltitudeMeters>570.4000244140625</AltitudeMeters>
            <DistanceMeters>NAN</DistanceMeters>
          </Trackpoint>
          <Trackpoint>
            <Time>2021-08-09T11:31:01.000Z</Time>
            <Position>
              <LatitudeDegrees>43.0093394033610820770263671875</LatitudeDegrees>
              <LongitudeDegrees>-1.76107230596244335174560546875</LongitudeDegrees>
            </Position>
            <AltitudeMeters>570.4000244140625</AltitudeMeters>
            <DistanceMeters>NAN</DistanceMeters>
          </Trackpoint>
          <Trackpoint>
            <Time>2021-08-09T11:31:02.000Z</Time>
            <Position>
              <LatitudeDegrees>43.0093679018318653106689453125</LatitudeDegrees>
              <LongitudeDegrees>-1.7610700428485870361328125</LongitudeDegrees>
            </Position>
            <AltitudeMeters>570.4000244140625</AltitudeMeters>
            <DistanceMeters>NAN</DistanceMeters>
          </Trackpoint>
          <Trackpoint>
            <Time>2021-08-09T11:31:03.000Z</Time>
            <Position>
              <LatitudeDegrees>43.0093910358846187591552734375</LatitudeDegrees>
              <LongitudeDegrees>-1.76106878556311130523681640625</LongitudeDegrees>
            </Position>
            <AltitudeMeters>570.4000244140625</AltitudeMeters>
            <DistanceMeters>NAN</DistanceMeters>
          </Trackpoint>
          <Trackpoint>
            <Time>2021-08-09T11:31:04.000Z</Time>
            <Position>
              <LatitudeDegrees>43.00942179746925830841064453125</LatitudeDegrees>
              <LongitudeDegrees>-1.76106492988765239715576171875</LongitudeDegrees>
            </Position>
            <AltitudeMeters>570.5999755859375</AltitudeMeters>
            <DistanceMeters>NAN</DistanceMeters>
          </Trackpoint>
          <Trackpoint>
            <Time>2021-08-09T11:31:05.000Z</Time>
            <Position>
              <LatitudeDegrees>43.00945633091032505035400390625</LatitudeDegrees>
              <LongitudeDegrees>-1.7610614933073520660400390625</LongitudeDegrees>
            </Position>
            <AltitudeMeters>570.5999755859375</AltitudeMeters>
            <DistanceMeters>NAN</DistanceMeters>
          </Trackpoint>
          <Trackpoint>
            <Time>2021-08-09T11:31:06.000Z</Time>
            <Position>
              <LatitudeDegrees>43.00948633812367916107177734375</LatitudeDegrees>
              <LongitudeDegrees>-1.7610557936131954193115234375</LongitudeDegrees>
            </Position>
            <AltitudeMeters>570.5999755859375</AltitudeMeters>
            <DistanceMeters>NAN</DistanceMeters>
          </Trackpoint>
          <Trackpoint>
            <Time>2021-08-09T11:31:07.000Z</Time>
            <Position>
              <LatitudeDegrees>43.00951148383319377899169921875</LatitudeDegrees>
              <LongitudeDegrees>-1.7610524408519268035888671875</LongitudeDegrees>
            </Position>
            <AltitudeMeters>570.79998779296875</AltitudeMeters>
            <DistanceMeters>NAN</DistanceMeters>
          </Trackpoint>
          <Trackpoint>
            <Time>2021-08-09T11:31:08.000Z</Time>
            <Position>
              <LatitudeDegrees>43.0095425806939601898193359375</LatitudeDegrees>
              <LongitudeDegrees>-1.76104883663356304168701171875</LongitudeDegrees>
            </Position>
            <AltitudeMeters>570.79998779296875</AltitudeMeters>
            <DistanceMeters>NAN</DistanceMeters>
          </Trackpoint>
          <Trackpoint>
            <Time>2021-08-09T11:31:09.000Z</Time>
            <Position>
              <LatitudeDegrees>43.0095808021724224090576171875</LatitudeDegrees>
              <LongitudeDegrees>-1.76104699261486530303955078125</LongitudeDegrees>
            </Position>
            <AltitudeMeters>570.79998779296875</AltitudeMeters>
            <DistanceMeters>NAN</DistanceMeters>
          </Trackpoint>
          <Trackpoint>
            <Time>2021-08-09T11:31:10.000Z</Time>
            <Position>
              <LatitudeDegrees>43.0096113122999668121337890625</LatitudeDegrees>
              <LongitudeDegrees>-1.76104984246194362640380859375</LongitudeDegrees>
            </Position>
            <AltitudeMeters>570.79998779296875</AltitudeMeters>
            <DistanceMeters>NAN</DistanceMeters>
          </Trackpoint>
          <Trackpoint>
            <Time>2021-08-09T11:31:11.000Z</Time>
            <Position>
              <LatitudeDegrees>43.00963536836206912994384765625</LatitudeDegrees>
              <LongitudeDegrees>-1.76105285994708538055419921875</LongitudeDegrees>
            </Position>
            <AltitudeMeters>571</AltitudeMeters>
            <DistanceMeters>NAN</DistanceMeters>
          </Trackpoint>
          <Trackpoint>
            <Time>2021-08-09T11:31:12.000Z</Time>
            <Position>
              <LatitudeDegrees>43.009665124118328094482421875</LatitudeDegrees>
              <LongitudeDegrees>-1.761058308184146881103515625</LongitudeDegrees>
            </Position>
            <AltitudeMeters>571</AltitudeMeters>
            <DistanceMeters>NAN</DistanceMeters>
          </Trackpoint>
          <Trackpoint>
            <Time>2021-08-09T11:31:13.000Z</Time>
            <Position>
              <LatitudeDegrees>43.00969521515071392059326171875</LatitudeDegrees>
              <LongitudeDegrees>-1.76106534898281097412109375</LongitudeDegrees>
            </Position>
            <AltitudeMeters>571</AltitudeMeters>
            <DistanceMeters>NAN</DistanceMeters>
          </Trackpoint>
          <Trackpoint>
            <Time>2021-08-09T11:31:14.000Z</Time>
            <Position>
              <LatitudeDegrees>43.00972337834537029266357421875</LatitudeDegrees>
              <LongitudeDegrees>-1.76107012666761875152587890625</LongitudeDegrees>
            </Position>
            <AltitudeMeters>571.20001220703125</AltitudeMeters>
            <DistanceMeters>NAN</DistanceMeters>
          </Trackpoint>
          <Trackpoint>
            <Time>2021-08-09T11:31:15.000Z</Time>
            <Position>
              <LatitudeDegrees>43.00975061953067779541015625</LatitudeDegrees>
              <LongitudeDegrees>-1.761074401438236236572265625</LongitudeDegrees>
            </Position>
            <AltitudeMeters>571.20001220703125</AltitudeMeters>
            <DistanceMeters>NAN</DistanceMeters>
          </Trackpoint>
          <Trackpoint>
            <Time>2021-08-09T11:31:16.000Z</Time>
            <Position>
              <LatitudeDegrees>43.0097806267440319061279296875</LatitudeDegrees>
              <LongitudeDegrees>-1.76107934676110744476318359375</LongitudeDegrees>
            </Position>
            <AltitudeMeters>571.4000244140625</AltitudeMeters>
            <DistanceMeters>NAN</DistanceMeters>
          </Trackpoint>
          <Trackpoint>
            <Time>2021-08-09T11:31:19.000Z</Time>
            <Position>
              <LatitudeDegrees>43.00987073220312595367431640625</LatitudeDegrees>
              <LongitudeDegrees>-1.76108554936945438385009765625</LongitudeDegrees>
            </Position>
            <AltitudeMeters>571.5999755859375</AltitudeMeters>
            <DistanceMeters>NAN</DistanceMeters>
          </Trackpoint>
          <Trackpoint>
            <Time>2021-08-09T11:31:21.000Z</Time>
            <Position>
              <LatitudeDegrees>43.00993158482015132904052734375</LatitudeDegrees>
              <LongitudeDegrees>-1.7610980384051799774169921875</LongitudeDegrees>
            </Position>
            <AltitudeMeters>571.79998779296875</AltitudeMeters>
            <DistanceMeters>NAN</DistanceMeters>
          </Trackpoint>
          <Trackpoint>
            <Time>2021-08-09T11:31:23.000Z</Time>
            <Position>
              <LatitudeDegrees>43.009995035827159881591796875</LatitudeDegrees>
              <LongitudeDegrees>-1.76110365428030490875244140625</LongitudeDegrees>
            </Position>
            <AltitudeMeters>572</AltitudeMeters>
            <DistanceMeters>NAN</DistanceMeters>
          </Trackpoint>
          <Trackpoint>
            <Time>2021-08-09T11:31:25.000Z</Time>
            <Position>
              <LatitudeDegrees>43.010060079395771026611328125</LatitudeDegrees>
              <LongitudeDegrees>-1.76111622713506221771240234375</LongitudeDegrees>
            </Position>
            <AltitudeMeters>572.20001220703125</AltitudeMeters>
            <DistanceMeters>NAN</DistanceMeters>
          </Trackpoint>
          <Trackpoint>
            <Time>2021-08-09T11:31:30.000Z</Time>
            <Position>
              <LatitudeDegrees>43.01020366139709949493408203125</LatitudeDegrees>
              <LongitudeDegrees>-1.7611436359584331512451171875</LongitudeDegrees>
            </Position>
            <AltitudeMeters>572.79998779296875</AltitudeMeters>
            <DistanceMeters>NAN</DistanceMeters>
          </Trackpoint>
          <Trackpoint>
            <Time>2021-08-09T11:31:31.000Z</Time>
            <Position>
              <LatitudeDegrees>43.01022964529693126678466796875</LatitudeDegrees>
              <LongitudeDegrees>-1.76114874891936779022216796875</LongitudeDegrees>
            </Position>
            <AltitudeMeters>573</AltitudeMeters>
            <DistanceMeters>NAN</DistanceMeters>
          </Trackpoint>
          <Trackpoint>
            <Time>2021-08-09T11:31:32.000Z</Time>
            <Position>
              <LatitudeDegrees>43.010255880653858184814453125</LatitudeDegrees>
              <LongitudeDegrees>-1.76115327514708042144775390625</LongitudeDegrees>
            </Position>
            <AltitudeMeters>573</AltitudeMeters>
            <DistanceMeters>NAN</DistanceMeters>
          </Trackpoint>
          <Trackpoint>
            <Time>2021-08-09T11:31:33.000Z</Time>
            <Position>
              <LatitudeDegrees>43.01028278656303882598876953125</LatitudeDegrees>
              <LongitudeDegrees>-1.76115713082253932952880859375</LongitudeDegrees>
            </Position>
            <AltitudeMeters>573.20001220703125</AltitudeMeters>
            <DistanceMeters>NAN</DistanceMeters>
          </Trackpoint>
          <Trackpoint>
            <Time>2021-08-09T11:31:34.000Z</Time>
            <Position>
              <LatitudeDegrees>43.0103103630244731903076171875</LatitudeDegrees>
              <LongitudeDegrees>-1.76116148941218852996826171875</LongitudeDegrees>
            </Position>
            <AltitudeMeters>573.4000244140625</AltitudeMeters>
            <DistanceMeters>NAN</DistanceMeters>
          </Trackpoint>
          <Trackpoint>
            <Time>2021-08-09T11:31:35.000Z</Time>
            <Position>
              <LatitudeDegrees>43.01033810712397098541259765625</LatitudeDegrees>
              <LongitudeDegrees>-1.7611697874963283538818359375</LongitudeDegrees>
            </Position>
            <AltitudeMeters>573.4000244140625</AltitudeMeters>
            <DistanceMeters>NAN</DistanceMeters>
          </Trackpoint>
          <Trackpoint>
            <Time>2021-08-09T11:31:36.000Z</Time>
            <Position>
              <LatitudeDegrees>43.01036543212831020355224609375</LatitudeDegrees>
              <LongitudeDegrees>-1.76117389462888240814208984375</LongitudeDegrees>
            </Position>
            <AltitudeMeters>573.5999755859375</AltitudeMeters>
            <DistanceMeters>NAN</DistanceMeters>
          </Trackpoint>
          <Trackpoint>
            <Time>2021-08-09T11:31:37.000Z</Time>
            <Position>
              <LatitudeDegrees>43.01039074547588825225830078125</LatitudeDegrees>
              <LongitudeDegrees>-1.761177666485309600830078125</LongitudeDegrees>
            </Position>
            <AltitudeMeters>573.79998779296875</AltitudeMeters>
            <DistanceMeters>NAN</DistanceMeters>
          </Trackpoint>
          <Trackpoint>
            <Time>2021-08-09T11:31:38.000Z</Time>
            <Position>
              <LatitudeDegrees>43.01041622646152973175048828125</LatitudeDegrees>
              <LongitudeDegrees>-1.76118026487529277801513671875</LongitudeDegrees>
            </Position>
            <AltitudeMeters>573.79998779296875</AltitudeMeters>
            <DistanceMeters>NAN</DistanceMeters>
          </Trackpoint>
          <Trackpoint>
            <Time>2021-08-09T11:31:39.000Z</Time>
            <Position>
              <LatitudeDegrees>43.010444305837154388427734375</LatitudeDegrees>
              <LongitudeDegrees>-1.7611845396459102630615234375</LongitudeDegrees>
            </Position>
            <AltitudeMeters>573.79998779296875</AltitudeMeters>
            <DistanceMeters>NAN</DistanceMeters>
          </Trackpoint>
          <Trackpoint>
            <Time>2021-08-09T11:31:40.000Z</Time>
            <Position>
              <LatitudeDegrees>43.01047213375568389892578125</LatitudeDegrees>
              <LongitudeDegrees>-1.76119082607328891754150390625</LongitudeDegrees>
            </Position>
            <AltitudeMeters>574</AltitudeMeters>
            <DistanceMeters>NAN</DistanceMeters>
          </Trackpoint>
          <Trackpoint>
            <Time>2021-08-09T11:31:41.000Z</Time>
            <Position>
              <LatitudeDegrees>43.01049920730292797088623046875</LatitudeDegrees>
              <LongitudeDegrees>-1.761196441948413848876953125</LongitudeDegrees>
            </Position>
            <AltitudeMeters>574</AltitudeMeters>
            <DistanceMeters>NAN</DistanceMeters>
          </Trackpoint>
          <Trackpoint>
            <Time>2021-08-09T11:31:42.000Z</Time>
            <Position>
              <LatitudeDegrees>43.010523431003093719482421875</LatitudeDegrees>
              <LongitudeDegrees>-1.76120054908096790313720703125</LongitudeDegrees>
            </Position>
            <AltitudeMeters>574.20001220703125</AltitudeMeters>
            <DistanceMeters>NAN</DistanceMeters>
          </Trackpoint>
          <Trackpoint>
            <Time>2021-08-09T11:31:43.000Z</Time>
            <Position>
              <LatitudeDegrees>43.01054815761744976043701171875</LatitudeDegrees>
              <LongitudeDegrees>-1.76120591349899768829345703125</LongitudeDegrees>
            </Position>
            <AltitudeMeters>574.20001220703125</AltitudeMeters>
            <DistanceMeters>NAN</DistanceMeters>
          </Trackpoint>
          <Trackpoint>
            <Time>2021-08-09T11:31:44.000Z</Time>
            <Position>
              <LatitudeDegrees>43.010573051869869232177734375</LatitudeDegrees>
              <LongitudeDegrees>-1.761213205754756927490234375</LongitudeDegrees>
            </Position>
            <AltitudeMeters>574.5999755859375</AltitudeMeters>
            <DistanceMeters>NAN</DistanceMeters>
          </Trackpoint>
          <Trackpoint>
            <Time>2021-08-09T11:31:45.000Z</Time>
            <Position>
              <LatitudeDegrees>43.01059828139841556549072265625</LatitudeDegrees>
              <LongitudeDegrees>-1.761217229068279266357421875</LongitudeDegrees>
            </Position>
            <AltitudeMeters>574.79998779296875</AltitudeMeters>
            <DistanceMeters>NAN</DistanceMeters>
          </Trackpoint>
          <Trackpoint>
            <Time>2021-08-09T11:31:46.000Z</Time>
            <Position>
              <LatitudeDegrees>43.010623343288898468017578125</LatitudeDegrees>
              <LongitudeDegrees>-1.761219911277294158935546875</LongitudeDegrees>
            </Position>
            <AltitudeMeters>575</AltitudeMeters>
            <DistanceMeters>NAN</DistanceMeters>
          </Trackpoint>
          <Trackpoint>
            <Time>2021-08-09T11:31:47.000Z</Time>
            <Position>
              <LatitudeDegrees>43.01064513623714447021484375</LatitudeDegrees>
              <LongitudeDegrees>-1.76121949218213558197021484375</LongitudeDegrees>
            </Position>
            <AltitudeMeters>575</AltitudeMeters>
            <DistanceMeters>NAN</DistanceMeters>
          </Trackpoint>
          <Trackpoint>
            <Time>2021-08-09T11:31:48.000Z</Time>
            <Position>
              <LatitudeDegrees>43.0106667615473270416259765625</LatitudeDegrees>
              <LongitudeDegrees>-1.76121882162988185882568359375</LongitudeDegrees>
            </Position>
            <AltitudeMeters>575.20001220703125</AltitudeMeters>
            <DistanceMeters>NAN</DistanceMeters>
          </Trackpoint>
          <Trackpoint>
            <Time>2021-08-09T11:31:49.000Z</Time>
            <Position>
              <LatitudeDegrees>43.01069299690425395965576171875</LatitudeDegrees>
              <LongitudeDegrees>-1.7612227611243724822998046875</LongitudeDegrees>
            </Position>
            <AltitudeMeters>575.20001220703125</AltitudeMeters>
            <DistanceMeters>NAN</DistanceMeters>
          </Trackpoint>
          <Trackpoint>
            <Time>2021-08-09T11:31:50.000Z</Time>
            <Position>
              <LatitudeDegrees>43.01071847788989543914794921875</LatitudeDegrees>
              <LongitudeDegrees>-1.7612264491617679595947265625</LongitudeDegrees>
            </Position>
            <AltitudeMeters>575.4000244140625</AltitudeMeters>
            <DistanceMeters>NAN</DistanceMeters>
          </Trackpoint>
          <Trackpoint>
            <Time>2021-08-09T11:31:51.000Z</Time>
            <Position>
              <LatitudeDegrees>43.010741360485553741455078125</LatitudeDegrees>
              <LongitudeDegrees>-1.76123164594173431396484375</LongitudeDegrees>
            </Position>
            <AltitudeMeters>575.4000244140625</AltitudeMeters>
            <DistanceMeters>NAN</DistanceMeters>
          </Trackpoint>
          <Trackpoint>
            <Time>2021-08-09T11:31:52.000Z</Time>
            <Position>
              <LatitudeDegrees>43.01076608709990978240966796875</LatitudeDegrees>
              <LongitudeDegrees>-1.7612344957888126373291015625</LongitudeDegrees>
            </Position>
            <AltitudeMeters>575.5999755859375</AltitudeMeters>
            <DistanceMeters>NAN</DistanceMeters>
          </Trackpoint>
          <Trackpoint>
            <Time>2021-08-09T11:31:53.000Z</Time>
            <Position>
              <LatitudeDegrees>43.0107918195426464080810546875</LatitudeDegrees>
              <LongitudeDegrees>-1.76123843528330326080322265625</LongitudeDegrees>
            </Position>
            <AltitudeMeters>575.5999755859375</AltitudeMeters>
            <DistanceMeters>NAN</DistanceMeters>
          </Trackpoint>
          <Trackpoint>
            <Time>2021-08-09T11:31:54.000Z</Time>
            <Position>
              <LatitudeDegrees>43.010821156203746795654296875</LatitudeDegrees>
              <LongitudeDegrees>-1.76124899648129940032958984375</LongitudeDegrees>
            </Position>
            <AltitudeMeters>575.79998779296875</AltitudeMeters>
            <DistanceMeters>NAN</DistanceMeters>
          </Trackpoint>
          <Trackpoint>
            <Time>2021-08-09T11:31:55.000Z</Time>
            <Position>
              <LatitudeDegrees>43.01084990613162517547607421875</LatitudeDegrees>
              <LongitudeDegrees>-1.7612539418041706085205078125</LongitudeDegrees>
            </Position>
            <AltitudeMeters>576</AltitudeMeters>
            <DistanceMeters>NAN</DistanceMeters>
          </Trackpoint>
          <Trackpoint>
            <Time>2021-08-09T11:31:56.000Z</Time>
            <Position>
              <LatitudeDegrees>43.01087915897369384765625</LatitudeDegrees>
              <LongitudeDegrees>-1.76125369034707546234130859375</LongitudeDegrees>
            </Position>
            <AltitudeMeters>576</AltitudeMeters>
            <DistanceMeters>NAN</DistanceMeters>
          </Trackpoint>
          <Trackpoint>
            <Time>2021-08-09T11:31:57.000Z</Time>
            <Position>
              <LatitudeDegrees>43.01090774126350879669189453125</LatitudeDegrees>
              <LongitudeDegrees>-1.7612497508525848388671875</LongitudeDegrees>
            </Position>
            <AltitudeMeters>576.20001220703125</AltitudeMeters>
            <DistanceMeters>NAN</DistanceMeters>
          </Trackpoint>
          <Trackpoint>
            <Time>2021-08-09T11:31:58.000Z</Time>
            <Position>
              <LatitudeDegrees>43.01093389280140399932861328125</LatitudeDegrees>
              <LongitudeDegrees>-1.76125000230967998504638671875</LongitudeDegrees>
            </Position>
            <AltitudeMeters>576.20001220703125</AltitudeMeters>
            <DistanceMeters>NAN</DistanceMeters>
          </Trackpoint>
          <Trackpoint>
            <Time>2021-08-09T11:31:59.000Z</Time>
            <Position>
              <LatitudeDegrees>43.0109607987105846405029296875</LatitudeDegrees>
              <LongitudeDegrees>-1.76124866120517253875732421875</LongitudeDegrees>
            </Position>
            <AltitudeMeters>576.4000244140625</AltitudeMeters>
            <DistanceMeters>NAN</DistanceMeters>
          </Trackpoint>
          <Trackpoint>
            <Time>2021-08-09T11:32:00.000Z</Time>
            <Position>
              <LatitudeDegrees>43.01098854281008243560791015625</LatitudeDegrees>
              <LongitudeDegrees>-1.761244051158428192138671875</LongitudeDegrees>
            </Position>
            <AltitudeMeters>576.4000244140625</AltitudeMeters>
            <DistanceMeters>NAN</DistanceMeters>
          </Trackpoint>
          <Trackpoint>
            <Time>2021-08-09T11:32:01.000Z</Time>
            <Position>
              <LatitudeDegrees>43.0110144428908824920654296875</LatitudeDegrees>
              <LongitudeDegrees>-1.76123172976076602935791015625</LongitudeDegrees>
            </Position>
            <AltitudeMeters>576.5999755859375</AltitudeMeters>
            <DistanceMeters>NAN</DistanceMeters>
          </Trackpoint>
          <Trackpoint>
            <Time>2021-08-09T11:32:02.000Z</Time>
            <Position>
              <LatitudeDegrees>43.0110399238765239715576171875</LatitudeDegrees>
              <LongitudeDegrees>-1.76121915690600872039794921875</LongitudeDegrees>
            </Position>
            <AltitudeMeters>576.79998779296875</AltitudeMeters>
            <DistanceMeters>NAN</DistanceMeters>
          </Trackpoint>
          <Trackpoint>
            <Time>2021-08-09T11:32:03.000Z</Time>
            <Position>
              <LatitudeDegrees>43.011065907776355743408203125</LatitudeDegrees>
              <LongitudeDegrees>-1.7612066678702831268310546875</LongitudeDegrees>
            </Position>
            <AltitudeMeters>576.79998779296875</AltitudeMeters>
            <DistanceMeters>NAN</DistanceMeters>
          </Trackpoint>
          <Trackpoint>
            <Time>2021-08-09T11:32:04.000Z</Time>
            <Position>
              <LatitudeDegrees>43.01109314896166324615478515625</LatitudeDegrees>
              <LongitudeDegrees>-1.76118965260684490203857421875</LongitudeDegrees>
            </Position>
            <AltitudeMeters>576.79998779296875</AltitudeMeters>
            <DistanceMeters>NAN</DistanceMeters>
          </Trackpoint>
          <Trackpoint>
            <Time>2021-08-09T11:32:05.000Z</Time>
            <Position>
              <LatitudeDegrees>43.01112013868987560272216796875</LatitudeDegrees>
              <LongitudeDegrees>-1.76116802729666233062744140625</LongitudeDegrees>
            </Position>
            <AltitudeMeters>577</AltitudeMeters>
            <DistanceMeters>NAN</DistanceMeters>
          </Trackpoint>
          <Trackpoint>
            <Time>2021-08-09T11:32:06.000Z</Time>
            <Position>
              <LatitudeDegrees>43.01114696078002452850341796875</LatitudeDegrees>
              <LongitudeDegrees>-1.76114447414875030517578125</LongitudeDegrees>
            </Position>
            <AltitudeMeters>577</AltitudeMeters>
            <DistanceMeters>NAN</DistanceMeters>
          </Trackpoint>
          <Trackpoint>
            <Time>2021-08-09T11:32:07.000Z</Time>
            <Position>
              <LatitudeDegrees>43.01117227412760257720947265625</LatitudeDegrees>
              <LongitudeDegrees>-1.76111924462020397186279296875</LongitudeDegrees>
            </Position>
            <AltitudeMeters>577.20001220703125</AltitudeMeters>
            <DistanceMeters>NAN</DistanceMeters>
          </Trackpoint>
          <Trackpoint>
            <Time>2021-08-09T11:32:08.000Z</Time>
            <Position>
              <LatitudeDegrees>43.011196665465831756591796875</LatitudeDegrees>
              <LongitudeDegrees>-1.761095523834228515625</LongitudeDegrees>
            </Position>
            <AltitudeMeters>577.20001220703125</AltitudeMeters>
            <DistanceMeters>NAN</DistanceMeters>
          </Trackpoint>
          <Trackpoint>
            <Time>2021-08-09T11:32:09.000Z</Time>
            <Position>
              <LatitudeDegrees>43.01122122444212436676025390625</LatitudeDegrees>
              <LongitudeDegrees>-1.76107163541018962860107421875</LongitudeDegrees>
            </Position>
            <AltitudeMeters>577.5999755859375</AltitudeMeters>
            <DistanceMeters>NAN</DistanceMeters>
          </Trackpoint>
          <Trackpoint>
            <Time>2021-08-09T11:32:10.000Z</Time>
            <Position>
              <LatitudeDegrees>43.01124460995197296142578125</LatitudeDegrees>
              <LongitudeDegrees>-1.7610454000532627105712890625</LongitudeDegrees>
            </Position>
            <AltitudeMeters>577.79998779296875</AltitudeMeters>
            <DistanceMeters>NAN</DistanceMeters>
          </Trackpoint>
          <Trackpoint>
            <Time>2021-08-09T11:32:11.000Z</Time>
            <Position>
              <LatitudeDegrees>43.01126715727150440216064453125</LatitudeDegrees>
              <LongitudeDegrees>-1.761020757257938385009765625</LongitudeDegrees>
            </Position>
            <AltitudeMeters>577.79998779296875</AltitudeMeters>
            <DistanceMeters>NAN</DistanceMeters>
          </Trackpoint>
          <Trackpoint>
            <Time>2021-08-09T11:32:12.000Z</Time>
            <Position>
              <LatitudeDegrees>43.0112880282104015350341796875</LatitudeDegrees>
              <LongitudeDegrees>-1.7609976232051849365234375</LongitudeDegrees>
            </Position>
            <AltitudeMeters>578</AltitudeMeters>
            <DistanceMeters>NAN</DistanceMeters>
          </Trackpoint>
          <Trackpoint>
            <Time>2021-08-09T11:32:13.000Z</Time>
            <Position>
              <LatitudeDegrees>43.0113078095018863677978515625</LatitudeDegrees>
              <LongitudeDegrees>-1.76097490824759006500244140625</LongitudeDegrees>
            </Position>
            <AltitudeMeters>578.20001220703125</AltitudeMeters>
            <DistanceMeters>NAN</DistanceMeters>
          </Trackpoint>
          <Trackpoint>
            <Time>2021-08-09T11:32:14.000Z</Time>
            <Position>
              <LatitudeDegrees>43.01132784225046634674072265625</LatitudeDegrees>
              <LongitudeDegrees>-1.7609461583197116851806640625</LongitudeDegrees>
            </Position>
            <AltitudeMeters>578.4000244140625</AltitudeMeters>
            <DistanceMeters>NAN</DistanceMeters>
          </Trackpoint>
          <Trackpoint>
            <Time>2021-08-09T11:32:15.000Z</Time>
            <Position>
              <LatitudeDegrees>43.0113480426371097564697265625</LatitudeDegrees>
              <LongitudeDegrees>-1.76091774366796016693115234375</LongitudeDegrees>
            </Position>
            <AltitudeMeters>578.4000244140625</AltitudeMeters>
            <DistanceMeters>NAN</DistanceMeters>
          </Trackpoint>
          <Trackpoint>
            <Time>2021-08-09T11:32:16.000Z</Time>
            <Position>
              <LatitudeDegrees>43.0113681592047214508056640625</LatitudeDegrees>
              <LongitudeDegrees>-1.760894693434238433837890625</LongitudeDegrees>
            </Position>
            <AltitudeMeters>578.5999755859375</AltitudeMeters>
            <DistanceMeters>NAN</DistanceMeters>
          </Trackpoint>
          <Trackpoint>
            <Time>2021-08-09T11:32:17.000Z</Time>
            <Position>
              <LatitudeDegrees>43.011387102305889129638671875</LatitudeDegrees>
              <LongitudeDegrees>-1.760872565209865570068359375</LongitudeDegrees>
            </Position>
            <AltitudeMeters>578.79998779296875</AltitudeMeters>
            <DistanceMeters>NAN</DistanceMeters>
          </Trackpoint>
          <Trackpoint>
            <Time>2021-08-09T11:32:18.000Z</Time>
            <Position>
              <LatitudeDegrees>43.011404536664485931396484375</LatitudeDegrees>
              <LongitudeDegrees>-1.76084834150969982147216796875</LongitudeDegrees>
            </Position>
            <AltitudeMeters>579</AltitudeMeters>
            <DistanceMeters>NAN</DistanceMeters>
          </Trackpoint>
          <Trackpoint>
            <Time>2021-08-09T11:32:19.000Z</Time>
            <Position>
              <LatitudeDegrees>43.01142054609954357147216796875</LatitudeDegrees>
              <LongitudeDegrees>-1.7608207650482654571533203125</LongitudeDegrees>
            </Position>
            <AltitudeMeters>579.20001220703125</AltitudeMeters>
            <DistanceMeters>NAN</DistanceMeters>
          </Trackpoint>
          <Trackpoint>
            <Time>2021-08-09T11:32:20.000Z</Time>
            <Position>
              <LatitudeDegrees>43.011435382068157196044921875</LatitudeDegrees>
              <LongitudeDegrees>-1.76079603843390941619873046875</LongitudeDegrees>
            </Position>
            <AltitudeMeters>579.20001220703125</AltitudeMeters>
            <DistanceMeters>NAN</DistanceMeters>
          </Trackpoint>
          <Trackpoint>
            <Time>2021-08-09T11:32:21.000Z</Time>
            <Position>
              <LatitudeDegrees>43.0114518105983734130859375</LatitudeDegrees>
              <LongitudeDegrees>-1.76077340729534626007080078125</LongitudeDegrees>
            </Position>
            <AltitudeMeters>579.5999755859375</AltitudeMeters>
            <DistanceMeters>NAN</DistanceMeters>
          </Trackpoint>
          <Trackpoint>
            <Time>2021-08-09T11:32:22.000Z</Time>
            <Position>
              <LatitudeDegrees>43.011470250785350799560546875</LatitudeDegrees>
              <LongitudeDegrees>-1.7607506923377513885498046875</LongitudeDegrees>
            </Position>
            <AltitudeMeters>579.5999755859375</AltitudeMeters>
            <DistanceMeters>NAN</DistanceMeters>
          </Trackpoint>
          <Trackpoint>
            <Time>2021-08-09T11:32:23.000Z</Time>
            <Position>
              <LatitudeDegrees>43.0114912055432796478271484375</LatitudeDegrees>
              <LongitudeDegrees>-1.76072915084660053253173828125</LongitudeDegrees>
            </Position>
            <AltitudeMeters>579.79998779296875</AltitudeMeters>
            <DistanceMeters>NAN</DistanceMeters>
          </Trackpoint>
          <Trackpoint>
            <Time>2021-08-09T11:32:24.000Z</Time>
            <Position>
              <LatitudeDegrees>43.01150822080671787261962890625</LatitudeDegrees>
              <LongitudeDegrees>-1.76070333458483219146728515625</LongitudeDegrees>
            </Position>
            <AltitudeMeters>580</AltitudeMeters>
            <DistanceMeters>NAN</DistanceMeters>
          </Trackpoint>
          <Trackpoint>
            <Time>2021-08-09T11:32:25.000Z</Time>
            <Position>
              <LatitudeDegrees>43.01152448169887065887451171875</LatitudeDegrees>
              <LongitudeDegrees>-1.76067584194242954254150390625</LongitudeDegrees>
            </Position>
            <AltitudeMeters>580.20001220703125</AltitudeMeters>
            <DistanceMeters>NAN</DistanceMeters>
          </Trackpoint>
          <Trackpoint>
            <Time>2021-08-09T11:32:26.000Z</Time>
            <Position>
              <LatitudeDegrees>43.0115448497235774993896484375</LatitudeDegrees>
              <LongitudeDegrees>-1.76064969040453433990478515625</LongitudeDegrees>
            </Position>
            <AltitudeMeters>580.4000244140625</AltitudeMeters>
            <DistanceMeters>NAN</DistanceMeters>
          </Trackpoint>
          <Trackpoint>
            <Time>2021-08-09T11:32:27.000Z</Time>
            <Position>
              <LatitudeDegrees>43.011563457548618316650390625</LatitudeDegrees>
              <LongitudeDegrees>-1.7606219463050365447998046875</LongitudeDegrees>
            </Position>
            <AltitudeMeters>580.5999755859375</AltitudeMeters>
            <DistanceMeters>NAN</DistanceMeters>
          </Trackpoint>
          <Trackpoint>
            <Time>2021-08-09T11:32:28.000Z</Time>
            <Position>
              <LatitudeDegrees>43.011581562459468841552734375</LatitudeDegrees>
              <LongitudeDegrees>-1.760593950748443603515625</LongitudeDegrees>
            </Position>
            <AltitudeMeters>580.79998779296875</AltitudeMeters>
            <DistanceMeters>NAN</DistanceMeters>
          </Trackpoint>
          <Trackpoint>
            <Time>2021-08-09T11:32:29.000Z</Time>
            <Position>
              <LatitudeDegrees>43.01159975118935108184814453125</LatitudeDegrees>
              <LongitudeDegrees>-1.760567463934421539306640625</LongitudeDegrees>
            </Position>
            <AltitudeMeters>581</AltitudeMeters>
            <DistanceMeters>NAN</DistanceMeters>
          </Trackpoint>
          <Trackpoint>
            <Time>2021-08-09T11:32:30.000Z</Time>
            <Position>
              <LatitudeDegrees>43.0116176046431064605712890625</LatitudeDegrees>
              <LongitudeDegrees>-1.76054106093943119049072265625</LongitudeDegrees>
            </Position>
            <AltitudeMeters>581.20001220703125</AltitudeMeters>
            <DistanceMeters>NAN</DistanceMeters>
          </Trackpoint>
          <Trackpoint>
            <Time>2021-08-09T11:32:31.000Z</Time>
            <Position>
              <LatitudeDegrees>43.01163529045879840850830078125</LatitudeDegrees>
              <LongitudeDegrees>-1.7605176754295825958251953125</LongitudeDegrees>
            </Position>
            <AltitudeMeters>581.20001220703125</AltitudeMeters>
            <DistanceMeters>NAN</DistanceMeters>
          </Trackpoint>
          <Trackpoint>
            <Time>2021-08-09T11:32:32.000Z</Time>
            <Position>
              <LatitudeDegrees>43.0116521380841732025146484375</LatitudeDegrees>
              <LongitudeDegrees>-1.76049227826297283172607421875</LongitudeDegrees>
            </Position>
            <AltitudeMeters>581.4000244140625</AltitudeMeters>
            <DistanceMeters>NAN</DistanceMeters>
          </Trackpoint>
          <Trackpoint>
            <Time>2021-08-09T11:32:33.000Z</Time>
            <Position>
              <LatitudeDegrees>43.01166948862373828887939453125</LatitudeDegrees>
              <LongitudeDegrees>-1.76046587526798248291015625</LongitudeDegrees>
            </Position>
            <AltitudeMeters>581.5999755859375</AltitudeMeters>
            <DistanceMeters>NAN</DistanceMeters>
          </Trackpoint>
          <Trackpoint>
            <Time>2021-08-09T11:32:34.000Z</Time>
            <Position>
              <LatitudeDegrees>43.011686839163303375244140625</LatitudeDegrees>
              <LongitudeDegrees>-1.76043930463492870330810546875</LongitudeDegrees>
            </Position>
            <AltitudeMeters>581.79998779296875</AltitudeMeters>
            <DistanceMeters>NAN</DistanceMeters>
          </Trackpoint>
          <Trackpoint>
            <Time>2021-08-09T11:32:35.000Z</Time>
            <Position>
              <LatitudeDegrees>43.01170435734093189239501953125</LatitudeDegrees>
              <LongitudeDegrees>-1.76041281782090663909912109375</LongitudeDegrees>
            </Position>
            <AltitudeMeters>582.20001220703125</AltitudeMeters>
            <DistanceMeters>NAN</DistanceMeters>
          </Trackpoint>
          <Trackpoint>
            <Time>2021-08-09T11:32:36.000Z</Time>
            <Position>
              <LatitudeDegrees>43.01172765903174877166748046875</LatitudeDegrees>
              <LongitudeDegrees>-1.7603807151317596435546875</LongitudeDegrees>
            </Position>
            <AltitudeMeters>582.4000244140625</AltitudeMeters>
            <DistanceMeters>NAN</DistanceMeters>
          </Trackpoint>
          <Trackpoint>
            <Time>2021-08-09T11:32:37.000Z</Time>
            <Position>
              <LatitudeDegrees>43.0117416568100452423095703125</LatitudeDegrees>
              <LongitudeDegrees>-1.760360933840274810791015625</LongitudeDegrees>
            </Position>
            <AltitudeMeters>582.5999755859375</AltitudeMeters>
            <DistanceMeters>NAN</DistanceMeters>
          </Trackpoint>
          <Trackpoint>
            <Time>2021-08-09T11:32:38.000Z</Time>
            <Position>
              <LatitudeDegrees>43.0117584206163883209228515625</LatitudeDegrees>
              <LongitudeDegrees>-1.7603351175785064697265625</LongitudeDegrees>
            </Position>
            <AltitudeMeters>582.5999755859375</AltitudeMeters>
            <DistanceMeters>NAN</DistanceMeters>
          </Trackpoint>
          <Trackpoint>
            <Time>2021-08-09T11:32:39.000Z</Time>
            <Position>
              <LatitudeDegrees>43.01177510060369968414306640625</LatitudeDegrees>
              <LongitudeDegrees>-1.76030821166932582855224609375</LongitudeDegrees>
            </Position>
            <AltitudeMeters>582.79998779296875</AltitudeMeters>
            <DistanceMeters>NAN</DistanceMeters>
          </Trackpoint>
          <Trackpoint>
            <Time>2021-08-09T11:32:40.000Z</Time>
            <Position>
              <LatitudeDegrees>43.0117959715425968170166015625</LatitudeDegrees>
              <LongitudeDegrees>-1.760274432599544525146484375</LongitudeDegrees>
            </Position>
            <AltitudeMeters>583</AltitudeMeters>
            <DistanceMeters>NAN</DistanceMeters>
          </Trackpoint>
          <Trackpoint>
            <Time>2021-08-09T11:32:41.000Z</Time>
            <Position>
              <LatitudeDegrees>43.0118103884160518646240234375</LatitudeDegrees>
              <LongitudeDegrees>-1.76025222055613994598388671875</LongitudeDegrees>
            </Position>
            <AltitudeMeters>583.20001220703125</AltitudeMeters>
            <DistanceMeters>NAN</DistanceMeters>
          </Trackpoint>
          <Trackpoint>
            <Time>2021-08-09T11:32:42.000Z</Time>
            <Position>
              <LatitudeDegrees>43.0118294991552829742431640625</LatitudeDegrees>
              <LongitudeDegrees>-1.76022489555180072784423828125</LongitudeDegrees>
            </Position>
            <AltitudeMeters>583.4000244140625</AltitudeMeters>
            <DistanceMeters>NAN</DistanceMeters>
          </Trackpoint>
          <Trackpoint>
            <Time>2021-08-09T11:32:43.000Z</Time>
            <Position>
              <LatitudeDegrees>43.01184835843741893768310546875</LatitudeDegrees>
              <LongitudeDegrees>-1.7601974867284297943115234375</LongitudeDegrees>
            </Position>
            <AltitudeMeters>583.79998779296875</AltitudeMeters>
            <DistanceMeters>NAN</DistanceMeters>
          </Trackpoint>
          <Trackpoint>
            <Time>2021-08-09T11:32:44.000Z</Time>
            <Position>
              <LatitudeDegrees>43.01186512224376201629638671875</LatitudeDegrees>
              <LongitudeDegrees>-1.76017242483794689178466796875</LongitudeDegrees>
            </Position>
            <AltitudeMeters>584</AltitudeMeters>
            <DistanceMeters>NAN</DistanceMeters>
          </Trackpoint>
          <Trackpoint>
            <Time>2021-08-09T11:32:45.000Z</Time>
            <Position>
              <LatitudeDegrees>43.0118836462497711181640625</LatitudeDegrees>
              <LongitudeDegrees>-1.76014509983360767364501953125</LongitudeDegrees>
            </Position>
            <AltitudeMeters>584.20001220703125</AltitudeMeters>
            <DistanceMeters>NAN</DistanceMeters>
          </Trackpoint>
          <Trackpoint>
            <Time>2021-08-09T11:32:46.000Z</Time>
            <Position>
              <LatitudeDegrees>43.011905439198017120361328125</LatitudeDegrees>
              <LongitudeDegrees>-1.7601076327264308929443359375</LongitudeDegrees>
            </Position>
            <AltitudeMeters>584.5999755859375</AltitudeMeters>
            <DistanceMeters>NAN</DistanceMeters>
          </Trackpoint>
          <Trackpoint>
            <Time>2021-08-09T11:32:47.000Z</Time>
            <Position>
              <LatitudeDegrees>43.0119203589856624603271484375</LatitudeDegrees>
              <LongitudeDegrees>-1.7600831575691699981689453125</LongitudeDegrees>
            </Position>
            <AltitudeMeters>584.5999755859375</AltitudeMeters>
            <DistanceMeters>NAN</DistanceMeters>
          </Trackpoint>
          <Trackpoint>
            <Time>2021-08-09T11:32:48.000Z</Time>
            <Position>
              <LatitudeDegrees>43.0119374580681324005126953125</LatitudeDegrees>
              <LongitudeDegrees>-1.7600553296506404876708984375</LongitudeDegrees>
            </Position>
            <AltitudeMeters>584.5999755859375</AltitudeMeters>
            <DistanceMeters>NAN</DistanceMeters>
          </Trackpoint>
          <Trackpoint>
            <Time>2021-08-09T11:32:49.000Z</Time>
            <Position>
              <LatitudeDegrees>43.0119585804641246795654296875</LatitudeDegrees>
              <LongitudeDegrees>-1.76002121530473232269287109375</LongitudeDegrees>
            </Position>
            <AltitudeMeters>584.79998779296875</AltitudeMeters>
            <DistanceMeters>NAN</DistanceMeters>
          </Trackpoint>
          <Trackpoint>
            <Time>2021-08-09T11:32:50.000Z</Time>
            <Position>
              <LatitudeDegrees>43.01197626627981662750244140625</LatitudeDegrees>
              <LongitudeDegrees>-1.75999070517718791961669921875</LongitudeDegrees>
            </Position>
            <AltitudeMeters>585</AltitudeMeters>
            <DistanceMeters>NAN</DistanceMeters>
          </Trackpoint>
          <Trackpoint>
            <Time>2021-08-09T11:32:51.000Z</Time>
            <Position>
              <LatitudeDegrees>43.01199034787714481353759765625</LatitudeDegrees>
              <LongitudeDegrees>-1.75996874459087848663330078125</LongitudeDegrees>
            </Position>
            <AltitudeMeters>585.20001220703125</AltitudeMeters>
            <DistanceMeters>NAN</DistanceMeters>
          </Trackpoint>
          <Trackpoint>
            <Time>2021-08-09T11:32:52.000Z</Time>
            <Position>
              <LatitudeDegrees>43.01200543530285358428955078125</LatitudeDegrees>
              <LongitudeDegrees>-1.75993882119655609130859375</LongitudeDegrees>
            </Position>
            <AltitudeMeters>585.4000244140625</AltitudeMeters>
            <DistanceMeters>NAN</DistanceMeters>
          </Trackpoint>
          <Trackpoint>
            <Time>2021-08-09T11:32:53.000Z</Time>
            <Position>
              <LatitudeDegrees>43.01202110946178436279296875</LatitudeDegrees>
              <LongitudeDegrees>-1.7599061317741870880126953125</LongitudeDegrees>
            </Position>
            <AltitudeMeters>585.5999755859375</AltitudeMeters>
            <DistanceMeters>NAN</DistanceMeters>
          </Trackpoint>
          <Trackpoint>
            <Time>2021-08-09T11:32:54.000Z</Time>
            <Position>
              <LatitudeDegrees>43.01203644834458827972412109375</LatitudeDegrees>
              <LongitudeDegrees>-1.7598737776279449462890625</LongitudeDegrees>
            </Position>
            <AltitudeMeters>585.79998779296875</AltitudeMeters>
            <DistanceMeters>NAN</DistanceMeters>
          </Trackpoint>
          <Trackpoint>
            <Time>2021-08-09T11:32:55.000Z</Time>
            <Position>
              <LatitudeDegrees>43.0120554752647876739501953125</LatitudeDegrees>
              <LongitudeDegrees>-1.75984469242393970489501953125</LongitudeDegrees>
            </Position>
            <AltitudeMeters>586</AltitudeMeters>
            <DistanceMeters>NAN</DistanceMeters>
          </Trackpoint>
          <Trackpoint>
            <Time>2021-08-09T11:32:56.000Z</Time>
            <Position>
              <LatitudeDegrees>43.01206947304308414459228515625</LatitudeDegrees>
              <LongitudeDegrees>-1.75981317646801471710205078125</LongitudeDegrees>
            </Position>
            <AltitudeMeters>586</AltitudeMeters>
            <DistanceMeters>NAN</DistanceMeters>
          </Trackpoint>
          <Trackpoint>
            <Time>2021-08-09T11:32:57.000Z</Time>
            <Position>
              <LatitudeDegrees>43.01208372227847576141357421875</LatitudeDegrees>
              <LongitudeDegrees>-1.759784258902072906494140625</LongitudeDegrees>
            </Position>
            <AltitudeMeters>586.20001220703125</AltitudeMeters>
            <DistanceMeters>NAN</DistanceMeters>
          </Trackpoint>
          <Trackpoint>
            <Time>2021-08-09T11:32:58.000Z</Time>
            <Position>
              <LatitudeDegrees>43.01209629513323307037353515625</LatitudeDegrees>
              <LongitudeDegrees>-1.75975467078387737274169921875</LongitudeDegrees>
            </Position>
            <AltitudeMeters>586.4000244140625</AltitudeMeters>
            <DistanceMeters>NAN</DistanceMeters>
          </Trackpoint>
          <Trackpoint>
            <Time>2021-08-09T11:32:59.000Z</Time>
            <Position>
              <LatitudeDegrees>43.01211054436862468719482421875</LatitudeDegrees>
              <LongitudeDegrees>-1.75972265191376209259033203125</LongitudeDegrees>
            </Position>
            <AltitudeMeters>586.4000244140625</AltitudeMeters>
            <DistanceMeters>NAN</DistanceMeters>
          </Trackpoint>
          <Trackpoint>
            <Time>2021-08-09T11:33:00.000Z</Time>
            <Position>
              <LatitudeDegrees>43.01212278194725513458251953125</LatitudeDegrees>
              <LongitudeDegrees>-1.75969071686267852783203125</LongitudeDegrees>
            </Position>
            <AltitudeMeters>586.5999755859375</AltitudeMeters>
            <DistanceMeters>NAN</DistanceMeters>
          </Trackpoint>
          <Trackpoint>
            <Time>2021-08-09T11:33:01.000Z</Time>
            <Position>
              <LatitudeDegrees>43.012139797210693359375</LatitudeDegrees>
              <LongitudeDegrees>-1.7596533335745334625244140625</LongitudeDegrees>
            </Position>
            <AltitudeMeters>586.79998779296875</AltitudeMeters>
            <DistanceMeters>NAN</DistanceMeters>
          </Trackpoint>
          <Trackpoint>
            <Time>2021-08-09T11:33:02.000Z</Time>
            <Position>
              <LatitudeDegrees>43.012152872979640960693359375</LatitudeDegrees>
              <LongitudeDegrees>-1.759629361331462860107421875</LongitudeDegrees>
            </Position>
            <AltitudeMeters>587</AltitudeMeters>
            <DistanceMeters>NAN</DistanceMeters>
          </Trackpoint>
          <Trackpoint>
            <Time>2021-08-09T11:33:03.000Z</Time>
            <Position>
              <LatitudeDegrees>43.0121671222150325775146484375</LatitudeDegrees>
              <LongitudeDegrees>-1.75959809683263301849365234375</LongitudeDegrees>
            </Position>
            <AltitudeMeters>587</AltitudeMeters>
            <DistanceMeters>NAN</DistanceMeters>
          </Trackpoint>
          <Trackpoint>
            <Time>2021-08-09T11:33:04.000Z</Time>
            <Position>
              <LatitudeDegrees>43.01218346692621707916259765625</LatitudeDegrees>
              <LongitudeDegrees>-1.7595599591732025146484375</LongitudeDegrees>
            </Position>
            <AltitudeMeters>587.4000244140625</AltitudeMeters>
            <DistanceMeters>NAN</DistanceMeters>
          </Trackpoint>
          <Trackpoint>
            <Time>2021-08-09T11:33:05.000Z</Time>
            <Position>
              <LatitudeDegrees>43.01219369284808635711669921875</LatitudeDegrees>
              <LongitudeDegrees>-1.75953456200659275054931640625</LongitudeDegrees>
            </Position>
            <AltitudeMeters>587.4000244140625</AltitudeMeters>
            <DistanceMeters>NAN</DistanceMeters>
          </Trackpoint>
          <Trackpoint>
            <Time>2021-08-09T11:33:06.000Z</Time>
            <Position>
              <LatitudeDegrees>43.01220525987446308135986328125</LatitudeDegrees>
              <LongitudeDegrees>-1.75950304605066776275634765625</LongitudeDegrees>
            </Position>
            <AltitudeMeters>587.5999755859375</AltitudeMeters>
            <DistanceMeters>NAN</DistanceMeters>
          </Trackpoint>
          <Trackpoint>
            <Time>2021-08-09T11:33:07.000Z</Time>
            <Position>
              <LatitudeDegrees>43.0122177489101886749267578125</LatitudeDegrees>
              <LongitudeDegrees>-1.75946943461894989013671875</LongitudeDegrees>
            </Position>
            <AltitudeMeters>588</AltitudeMeters>
            <DistanceMeters>NAN</DistanceMeters>
          </Trackpoint>
          <Trackpoint>
            <Time>2021-08-09T11:33:08.000Z</Time>
            <Position>
              <LatitudeDegrees>43.01223208196461200714111328125</LatitudeDegrees>
              <LongitudeDegrees>-1.75943766720592975616455078125</LongitudeDegrees>
            </Position>
            <AltitudeMeters>588.20001220703125</AltitudeMeters>
            <DistanceMeters>NAN</DistanceMeters>
          </Trackpoint>
          <Trackpoint>
            <Time>2021-08-09T11:33:09.000Z</Time>
            <Position>
              <LatitudeDegrees>43.01224783994257450103759765625</LatitudeDegrees>
              <LongitudeDegrees>-1.7593985237181186676025390625</LongitudeDegrees>
            </Position>
            <AltitudeMeters>588.4000244140625</AltitudeMeters>
            <DistanceMeters>NAN</DistanceMeters>
          </Trackpoint>
          <Trackpoint>
            <Time>2021-08-09T11:33:10.000Z</Time>
            <Position>
              <LatitudeDegrees>43.0122596584260463714599609375</LatitudeDegrees>
              <LongitudeDegrees>-1.75936474464833736419677734375</LongitudeDegrees>
            </Position>
            <AltitudeMeters>588.5999755859375</AltitudeMeters>
            <DistanceMeters>NAN</DistanceMeters>
          </Trackpoint>
          <Trackpoint>
            <Time>2021-08-09T11:33:11.000Z</Time>
            <Position>
              <LatitudeDegrees>43.01226879470050334930419921875</LatitudeDegrees>
              <LongitudeDegrees>-1.7593388445675373077392578125</LongitudeDegrees>
            </Position>
            <AltitudeMeters>588.79998779296875</AltitudeMeters>
            <DistanceMeters>NAN</DistanceMeters>
          </Trackpoint>
          <Trackpoint>
            <Time>2021-08-09T11:33:12.000Z</Time>
            <Position>
              <LatitudeDegrees>43.01228128373622894287109375</LatitudeDegrees>
              <LongitudeDegrees>-1.75930774770677089691162109375</LongitudeDegrees>
            </Position>
            <AltitudeMeters>588.79998779296875</AltitudeMeters>
            <DistanceMeters>NAN</DistanceMeters>
          </Trackpoint>
          <Trackpoint>
            <Time>2021-08-09T11:33:13.000Z</Time>
            <Position>
              <LatitudeDegrees>43.01229377277195453643798828125</LatitudeDegrees>
              <LongitudeDegrees>-1.75927673466503620147705078125</LongitudeDegrees>
            </Position>
            <AltitudeMeters>589</AltitudeMeters>
            <DistanceMeters>NAN</DistanceMeters>
          </Trackpoint>
          <Trackpoint>
            <Time>2021-08-09T11:33:14.000Z</Time>
            <Position>
              <LatitudeDegrees>43.012306429445743560791015625</LatitudeDegrees>
              <LongitudeDegrees>-1.75924438051879405975341796875</LongitudeDegrees>
            </Position>
            <AltitudeMeters>589.20001220703125</AltitudeMeters>
            <DistanceMeters>NAN</DistanceMeters>
          </Trackpoint>
          <Trackpoint>
            <Time>2021-08-09T11:33:15.000Z</Time>
            <Position>
              <LatitudeDegrees>43.0123186670243740081787109375</LatitudeDegrees>
              <LongitudeDegrees>-1.7592137865722179412841796875</LongitudeDegrees>
            </Position>
            <AltitudeMeters>589.4000244140625</AltitudeMeters>
            <DistanceMeters>NAN</DistanceMeters>
          </Trackpoint>
          <Trackpoint>
            <Time>2021-08-09T11:33:16.000Z</Time>
            <Position>
              <LatitudeDegrees>43.01232931204140186309814453125</LatitudeDegrees>
              <LongitudeDegrees>-1.75918352790176868438720703125</LongitudeDegrees>
            </Position>
            <AltitudeMeters>589.5999755859375</AltitudeMeters>
            <DistanceMeters>NAN</DistanceMeters>
          </Trackpoint>
          <Trackpoint>
            <Time>2021-08-09T11:33:17.000Z</Time>
            <Position>
              <LatitudeDegrees>43.01234171725809574127197265625</LatitudeDegrees>
              <LongitudeDegrees>-1.759151928126811981201171875</LongitudeDegrees>
            </Position>
            <AltitudeMeters>589.79998779296875</AltitudeMeters>
            <DistanceMeters>NAN</DistanceMeters>
          </Trackpoint>
          <Trackpoint>
            <Time>2021-08-09T11:33:18.000Z</Time>
            <Position>
              <LatitudeDegrees>43.0123555473983287811279296875</LatitudeDegrees>
              <LongitudeDegrees>-1.75911865197122097015380859375</LongitudeDegrees>
            </Position>
            <AltitudeMeters>590.20001220703125</AltitudeMeters>
            <DistanceMeters>NAN</DistanceMeters>
          </Trackpoint>
          <Trackpoint>
            <Time>2021-08-09T11:33:19.000Z</Time>
            <Position>
              <LatitudeDegrees>43.01236853934824466705322265625</LatitudeDegrees>
              <LongitudeDegrees>-1.759086549282073974609375</LongitudeDegrees>
            </Position>
            <AltitudeMeters>590.4000244140625</AltitudeMeters>
            <DistanceMeters>NAN</DistanceMeters>
          </Trackpoint>
          <Trackpoint>
            <Time>2021-08-09T11:33:20.000Z</Time>
            <Position>
              <LatitudeDegrees>43.012382201850414276123046875</LatitudeDegrees>
              <LongitudeDegrees>-1.75905327312648296356201171875</LongitudeDegrees>
            </Position>
            <AltitudeMeters>590.5999755859375</AltitudeMeters>
            <DistanceMeters>NAN</DistanceMeters>
          </Trackpoint>
          <Trackpoint>
            <Time>2021-08-09T11:33:21.000Z</Time>
            <Position>
              <LatitudeDegrees>43.0123951099812984466552734375</LatitudeDegrees>
              <LongitudeDegrees>-1.7590216733515262603759765625</LongitudeDegrees>
            </Position>
            <AltitudeMeters>591</AltitudeMeters>
            <DistanceMeters>NAN</DistanceMeters>
          </Trackpoint>
          <Trackpoint>
            <Time>2021-08-09T11:33:22.000Z</Time>
            <Position>
              <LatitudeDegrees>43.0124061740934848785400390625</LatitudeDegrees>
              <LongitudeDegrees>-1.75899024121463298797607421875</LongitudeDegrees>
            </Position>
            <AltitudeMeters>591</AltitudeMeters>
            <DistanceMeters>NAN</DistanceMeters>
          </Trackpoint>
          <Trackpoint>
            <Time>2021-08-09T11:33:23.000Z</Time>
            <Position>
              <LatitudeDegrees>43.01241983659565448760986328125</LatitudeDegrees>
              <LongitudeDegrees>-1.75895654596388339996337890625</LongitudeDegrees>
            </Position>
            <AltitudeMeters>591.20001220703125</AltitudeMeters>
            <DistanceMeters>NAN</DistanceMeters>
          </Trackpoint>
          <Trackpoint>
            <Time>2021-08-09T11:33:24.000Z</Time>
            <Position>
              <LatitudeDegrees>43.0124350078403949737548828125</LatitudeDegrees>
              <LongitudeDegrees>-1.75892201252281665802001953125</LongitudeDegrees>
            </Position>
            <AltitudeMeters>591.20001220703125</AltitudeMeters>
            <DistanceMeters>NAN</DistanceMeters>
          </Trackpoint>
          <Trackpoint>
            <Time>2021-08-09T11:33:25.000Z</Time>
            <Position>
              <LatitudeDegrees>43.01245001144707202911376953125</LatitudeDegrees>
              <LongitudeDegrees>-1.75888680852949619293212890625</LongitudeDegrees>
            </Position>
            <AltitudeMeters>591.20001220703125</AltitudeMeters>
            <DistanceMeters>NAN</DistanceMeters>
          </Trackpoint>
          <Trackpoint>
            <Time>2021-08-09T11:33:26.000Z</Time>
            <Position>
              <LatitudeDegrees>43.01246099174022674560546875</LatitudeDegrees>
              <LongitudeDegrees>-1.7588526941835880279541015625</LongitudeDegrees>
            </Position>
            <AltitudeMeters>591.4000244140625</AltitudeMeters>
            <DistanceMeters>NAN</DistanceMeters>
          </Trackpoint>
          <Trackpoint>
            <Time>2021-08-09T11:33:27.000Z</Time>
            <Position>
              <LatitudeDegrees>43.012471385300159454345703125</LatitudeDegrees>
              <LongitudeDegrees>-1.75882411189377307891845703125</LongitudeDegrees>
            </Position>
            <AltitudeMeters>591.4000244140625</AltitudeMeters>
            <DistanceMeters>NAN</DistanceMeters>
          </Trackpoint>
          <Trackpoint>
            <Time>2021-08-09T11:33:28.000Z</Time>
            <Position>
              <LatitudeDegrees>43.0124832876026630401611328125</LatitudeDegrees>
              <LongitudeDegrees>-1.75879796035587787628173828125</LongitudeDegrees>
            </Position>
            <AltitudeMeters>591.5999755859375</AltitudeMeters>
            <DistanceMeters>NAN</DistanceMeters>
          </Trackpoint>
          <Trackpoint>
            <Time>2021-08-09T11:33:29.000Z</Time>
            <Position>
              <LatitudeDegrees>43.0124925076961517333984375</LatitudeDegrees>
              <LongitudeDegrees>-1.75877340137958526611328125</LongitudeDegrees>
            </Position>
            <AltitudeMeters>591.5999755859375</AltitudeMeters>
            <DistanceMeters>NAN</DistanceMeters>
          </Trackpoint>
          <Trackpoint>
            <Time>2021-08-09T11:33:30.000Z</Time>
            <Position>
              <LatitudeDegrees>43.01250214688479900360107421875</LatitudeDegrees>
              <LongitudeDegrees>-1.758749596774578094482421875</LongitudeDegrees>
            </Position>
            <AltitudeMeters>591.5999755859375</AltitudeMeters>
            <DistanceMeters>NAN</DistanceMeters>
          </Trackpoint>
          <Trackpoint>
            <Time>2021-08-09T11:33:31.000Z</Time>
            <Position>
              <LatitudeDegrees>43.01251337863504886627197265625</LatitudeDegrees>
              <LongitudeDegrees>-1.758727133274078369140625</LongitudeDegrees>
            </Position>
            <AltitudeMeters>591.79998779296875</AltitudeMeters>
            <DistanceMeters>NAN</DistanceMeters>
          </Trackpoint>
          <Trackpoint>
            <Time>2021-08-09T11:33:32.000Z</Time>
            <Position>
              <LatitudeDegrees>43.01252427510917186737060546875</LatitudeDegrees>
              <LongitudeDegrees>-1.758703999221324920654296875</LongitudeDegrees>
            </Position>
            <AltitudeMeters>591.79998779296875</AltitudeMeters>
            <DistanceMeters>NAN</DistanceMeters>
          </Trackpoint>
          <Trackpoint>
            <Time>2021-08-09T11:33:33.000Z</Time>
            <Position>
              <LatitudeDegrees>43.01253600977361202239990234375</LatitudeDegrees>
              <LongitudeDegrees>-1.7586760036647319793701171875</LongitudeDegrees>
            </Position>
            <AltitudeMeters>591.79998779296875</AltitudeMeters>
            <DistanceMeters>NAN</DistanceMeters>
          </Trackpoint>
          <Trackpoint>
            <Time>2021-08-09T11:33:34.000Z</Time>
            <Position>
              <LatitudeDegrees>43.0125479958951473236083984375</LatitudeDegrees>
              <LongitudeDegrees>-1.75864205695688724517822265625</LongitudeDegrees>
            </Position>
            <AltitudeMeters>591.79998779296875</AltitudeMeters>
            <DistanceMeters>NAN</DistanceMeters>
          </Trackpoint>
          <Trackpoint>
            <Time>2021-08-09T11:33:35.000Z</Time>
            <Position>
              <LatitudeDegrees>43.012563250958919525146484375</LatitudeDegrees>
              <LongitudeDegrees>-1.758608110249042510986328125</LongitudeDegrees>
            </Position>
            <AltitudeMeters>591.79998779296875</AltitudeMeters>
            <DistanceMeters>NAN</DistanceMeters>
          </Trackpoint>
          <Trackpoint>
            <Time>2021-08-09T11:33:36.000Z</Time>
            <Position>
              <LatitudeDegrees>43.0125791765749454498291015625</LatitudeDegrees>
              <LongitudeDegrees>-1.75857357680797576904296875</LongitudeDegrees>
            </Position>
            <AltitudeMeters>591.79998779296875</AltitudeMeters>
            <DistanceMeters>NAN</DistanceMeters>
          </Trackpoint>
          <Trackpoint>
            <Time>2021-08-09T11:33:37.000Z</Time>
            <Position>
              <LatitudeDegrees>43.01259183324873447418212890625</LatitudeDegrees>
              <LongitudeDegrees>-1.758539378643035888671875</LongitudeDegrees>
            </Position>
            <AltitudeMeters>592</AltitudeMeters>
            <DistanceMeters>NAN</DistanceMeters>
          </Trackpoint>
          <Trackpoint>
            <Time>2021-08-09T11:33:38.000Z</Time>
            <Position>
              <LatitudeDegrees>43.01260289736092090606689453125</LatitudeDegrees>
              <LongitudeDegrees>-1.758502833545207977294921875</LongitudeDegrees>
            </Position>
            <AltitudeMeters>592</AltitudeMeters>
            <DistanceMeters>NAN</DistanceMeters>
          </Trackpoint>
          <Trackpoint>
            <Time>2021-08-09T11:33:39.000Z</Time>
            <Position>
              <LatitudeDegrees>43.01261647604405879974365234375</LatitudeDegrees>
              <LongitudeDegrees>-1.7584651149809360504150390625</LongitudeDegrees>
            </Position>
            <AltitudeMeters>592</AltitudeMeters>
            <DistanceMeters>NAN</DistanceMeters>
          </Trackpoint>
          <Trackpoint>
            <Time>2021-08-09T11:33:40.000Z</Time>
            <Position>
              <LatitudeDegrees>43.0126291327178478240966796875</LatitudeDegrees>
              <LongitudeDegrees>-1.75842530094087123870849609375</LongitudeDegrees>
            </Position>
            <AltitudeMeters>592</AltitudeMeters>
            <DistanceMeters>NAN</DistanceMeters>
          </Trackpoint>
          <Trackpoint>
            <Time>2021-08-09T11:33:41.000Z</Time>
            <Position>
              <LatitudeDegrees>43.0126418732106685638427734375</LatitudeDegrees>
              <LongitudeDegrees>-1.75838674418628215789794921875</LongitudeDegrees>
            </Position>
            <AltitudeMeters>592.20001220703125</AltitudeMeters>
            <DistanceMeters>NAN</DistanceMeters>
          </Trackpoint>
          <Trackpoint>
            <Time>2021-08-09T11:33:42.000Z</Time>
            <Position>
              <LatitudeDegrees>43.0126546137034893035888671875</LatitudeDegrees>
              <LongitudeDegrees>-1.758351288735866546630859375</LongitudeDegrees>
            </Position>
            <AltitudeMeters>592.20001220703125</AltitudeMeters>
            <DistanceMeters>NAN</DistanceMeters>
          </Trackpoint>
          <Trackpoint>
            <Time>2021-08-09T11:33:43.000Z</Time>
            <Position>
              <LatitudeDegrees>43.01266727037727832794189453125</LatitudeDegrees>
              <LongitudeDegrees>-1.758317090570926666259765625</LongitudeDegrees>
            </Position>
            <AltitudeMeters>592.20001220703125</AltitudeMeters>
            <DistanceMeters>NAN</DistanceMeters>
          </Trackpoint>
          <Trackpoint>
            <Time>2021-08-09T11:33:44.000Z</Time>
            <Position>
              <LatitudeDegrees>43.01268118433654308319091796875</LatitudeDegrees>
              <LongitudeDegrees>-1.7582823894917964935302734375</LongitudeDegrees>
            </Position>
            <AltitudeMeters>592.20001220703125</AltitudeMeters>
            <DistanceMeters>NAN</DistanceMeters>
          </Trackpoint>
          <Trackpoint>
            <Time>2021-08-09T11:33:45.000Z</Time>
            <Position>
              <LatitudeDegrees>43.01269358955323696136474609375</LatitudeDegrees>
              <LongitudeDegrees>-1.7582485266029834747314453125</LongitudeDegrees>
            </Position>
            <AltitudeMeters>592.4000244140625</AltitudeMeters>
            <DistanceMeters>NAN</DistanceMeters>
          </Trackpoint>
          <Trackpoint>
            <Time>2021-08-09T11:33:48.000Z</Time>
            <Position>
              <LatitudeDegrees>43.01273331977427005767822265625</LatitudeDegrees>
              <LongitudeDegrees>-1.75814484246075153350830078125</LongitudeDegrees>
            </Position>
            <AltitudeMeters>592.5999755859375</AltitudeMeters>
            <DistanceMeters>NAN</DistanceMeters>
          </Trackpoint>
          <Trackpoint>
            <Time>2021-08-09T11:33:49.000Z</Time>
            <Position>
              <LatitudeDegrees>43.01274354569613933563232421875</LatitudeDegrees>
              <LongitudeDegrees>-1.75811852328479290008544921875</LongitudeDegrees>
            </Position>
            <AltitudeMeters>592.5999755859375</AltitudeMeters>
            <DistanceMeters>NAN</DistanceMeters>
          </Trackpoint>
          <Trackpoint>
            <Time>2021-08-09T11:33:50.000Z</Time>
            <Position>
              <LatitudeDegrees>43.01275444217026233673095703125</LatitudeDegrees>
              <LongitudeDegrees>-1.75808633677661418914794921875</LongitudeDegrees>
            </Position>
            <AltitudeMeters>592.79998779296875</AltitudeMeters>
            <DistanceMeters>NAN</DistanceMeters>
          </Trackpoint>
          <Trackpoint>
            <Time>2021-08-09T11:33:51.000Z</Time>
            <Position>
              <LatitudeDegrees>43.0127642489969730377197265625</LatitudeDegrees>
              <LongitudeDegrees>-1.75805322825908660888671875</LongitudeDegrees>
            </Position>
            <AltitudeMeters>592.79998779296875</AltitudeMeters>
            <DistanceMeters>NAN</DistanceMeters>
          </Trackpoint>
          <Trackpoint>
            <Time>2021-08-09T11:33:52.000Z</Time>
            <Position>
              <LatitudeDegrees>43.0127768218517303466796875</LatitudeDegrees>
              <LongitudeDegrees>-1.75802129320800304412841796875</LongitudeDegrees>
            </Position>
            <AltitudeMeters>593</AltitudeMeters>
            <DistanceMeters>NAN</DistanceMeters>
          </Trackpoint>
          <Trackpoint>
            <Time>2021-08-09T11:33:53.000Z</Time>
            <Position>
              <LatitudeDegrees>43.01279031671583652496337890625</LatitudeDegrees>
              <LongitudeDegrees>-1.7579881846904754638671875</LongitudeDegrees>
            </Position>
            <AltitudeMeters>593.20001220703125</AltitudeMeters>
            <DistanceMeters>NAN</DistanceMeters>
          </Trackpoint>
          <Trackpoint>
            <Time>2021-08-09T11:33:54.000Z</Time>
            <Position>
              <LatitudeDegrees>43.012801297008991241455078125</LatitudeDegrees>
              <LongitudeDegrees>-1.75795624963939189910888671875</LongitudeDegrees>
            </Position>
            <AltitudeMeters>593.20001220703125</AltitudeMeters>
            <DistanceMeters>NAN</DistanceMeters>
          </Trackpoint>
          <Trackpoint>
            <Time>2021-08-09T11:33:55.000Z</Time>
            <Position>
              <LatitudeDegrees>43.01280959509313106536865234375</LatitudeDegrees>
              <LongitudeDegrees>-1.7579226382076740264892578125</LongitudeDegrees>
            </Position>
            <AltitudeMeters>593.4000244140625</AltitudeMeters>
            <DistanceMeters>NAN</DistanceMeters>
          </Trackpoint>
          <Trackpoint>
            <Time>2021-08-09T11:33:59.000Z</Time>
            <Position>
              <LatitudeDegrees>43.01284630782902240753173828125</LatitudeDegrees>
              <LongitudeDegrees>-1.75778006203472614288330078125</LongitudeDegrees>
            </Position>
            <AltitudeMeters>594.20001220703125</AltitudeMeters>
            <DistanceMeters>NAN</DistanceMeters>
          </Trackpoint>
          <Trackpoint>
            <Time>2021-08-09T11:34:00.000Z</Time>
            <Position>
              <LatitudeDegrees>43.01285452209413051605224609375</LatitudeDegrees>
              <LongitudeDegrees>-1.75774955190718173980712890625</LongitudeDegrees>
            </Position>
            <AltitudeMeters>594.4000244140625</AltitudeMeters>
            <DistanceMeters>NAN</DistanceMeters>
          </Trackpoint>
          <Trackpoint>
            <Time>2021-08-09T11:34:01.000Z</Time>
            <Position>
              <LatitudeDegrees>43.01285921595990657806396484375</LatitudeDegrees>
              <LongitudeDegrees>-1.75772507674992084503173828125</LongitudeDegrees>
            </Position>
            <AltitudeMeters>594.5999755859375</AltitudeMeters>
            <DistanceMeters>NAN</DistanceMeters>
          </Trackpoint>
          <Trackpoint>
            <Time>2021-08-09T11:34:02.000Z</Time>
            <Position>
              <LatitudeDegrees>43.0128668434917926788330078125</LatitudeDegrees>
              <LongitudeDegrees>-1.7576929740607738494873046875</LongitudeDegrees>
            </Position>
            <AltitudeMeters>594.79998779296875</AltitudeMeters>
            <DistanceMeters>NAN</DistanceMeters>
          </Trackpoint>
          <Trackpoint>
            <Time>2021-08-09T11:34:03.000Z</Time>
            <Position>
              <LatitudeDegrees>43.01287732087075710296630859375</LatitudeDegrees>
              <LongitudeDegrees>-1.75765936262905597686767578125</LongitudeDegrees>
            </Position>
            <AltitudeMeters>595</AltitudeMeters>
            <DistanceMeters>NAN</DistanceMeters>
          </Trackpoint>
          <Trackpoint>
            <Time>2021-08-09T11:34:04.000Z</Time>
            <Position>
              <LatitudeDegrees>43.0128862895071506500244140625</LatitudeDegrees>
              <LongitudeDegrees>-1.75763254053890705108642578125</LongitudeDegrees>
            </Position>
            <AltitudeMeters>595.20001220703125</AltitudeMeters>
            <DistanceMeters>NAN</DistanceMeters>
          </Trackpoint>
          <Trackpoint>
            <Time>2021-08-09T11:34:05.000Z</Time>
            <Position>
              <LatitudeDegrees>43.01289458759129047393798828125</LatitudeDegrees>
              <LongitudeDegrees>-1.75761066377162933349609375</LongitudeDegrees>
            </Position>
            <AltitudeMeters>595.4000244140625</AltitudeMeters>
            <DistanceMeters>NAN</DistanceMeters>
          </Trackpoint>
          <Trackpoint>
            <Time>2021-08-09T11:34:06.000Z</Time>
            <Position>
              <LatitudeDegrees>43.01290665753185749053955078125</LatitudeDegrees>
              <LongitudeDegrees>-1.7575831711292266845703125</LongitudeDegrees>
            </Position>
            <AltitudeMeters>595.79998779296875</AltitudeMeters>
            <DistanceMeters>NAN</DistanceMeters>
          </Trackpoint>
          <Trackpoint>
            <Time>2021-08-09T11:34:07.000Z</Time>
            <Position>
              <LatitudeDegrees>43.012915961444377899169921875</LatitudeDegrees>
              <LongitudeDegrees>-1.75755433738231658935546875</LongitudeDegrees>
            </Position>
            <AltitudeMeters>596</AltitudeMeters>
            <DistanceMeters>NAN</DistanceMeters>
          </Trackpoint>
          <Trackpoint>
            <Time>2021-08-09T11:34:08.000Z</Time>
            <Position>
              <LatitudeDegrees>43.01291671581566333770751953125</LatitudeDegrees>
              <LongitudeDegrees>-1.75752793438732624053955078125</LongitudeDegrees>
            </Position>
            <AltitudeMeters>596.20001220703125</AltitudeMeters>
            <DistanceMeters>NAN</DistanceMeters>
          </Trackpoint>
          <Trackpoint>
            <Time>2021-08-09T11:34:09.000Z</Time>
            <Position>
              <LatitudeDegrees>43.01291604526340961456298828125</LatitudeDegrees>
              <LongitudeDegrees>-1.75750949420034885406494140625</LongitudeDegrees>
            </Position>
            <AltitudeMeters>596.4000244140625</AltitudeMeters>
            <DistanceMeters>NAN</DistanceMeters>
          </Trackpoint>
          <Trackpoint>
            <Time>2021-08-09T11:34:10.000Z</Time>
            <Position>
              <LatitudeDegrees>43.0129151232540607452392578125</LatitudeDegrees>
              <LongitudeDegrees>-1.75748786889016628265380859375</LongitudeDegrees>
            </Position>
            <AltitudeMeters>596.4000244140625</AltitudeMeters>
            <DistanceMeters>NAN</DistanceMeters>
          </Trackpoint>
          <Trackpoint>
            <Time>2021-08-09T11:34:11.000Z</Time>
            <Position>
              <LatitudeDegrees>43.01291202194988727569580078125</LatitudeDegrees>
              <LongitudeDegrees>-1.75746582448482513427734375</LongitudeDegrees>
            </Position>
            <AltitudeMeters>596.79998779296875</AltitudeMeters>
            <DistanceMeters>NAN</DistanceMeters>
          </Trackpoint>
          <Trackpoint>
            <Time>2021-08-09T11:34:12.000Z</Time>
            <Position>
              <LatitudeDegrees>43.01290079019963741302490234375</LatitudeDegrees>
              <LongitudeDegrees>-1.7574458755552768707275390625</LongitudeDegrees>
            </Position>
            <AltitudeMeters>597</AltitudeMeters>
            <DistanceMeters>NAN</DistanceMeters>
          </Trackpoint>
          <Trackpoint>
            <Time>2021-08-09T11:34:13.000Z</Time>
            <Position>
              <LatitudeDegrees>43.01288235001266002655029296875</LatitudeDegrees>
              <LongitudeDegrees>-1.7574277706444263458251953125</LongitudeDegrees>
            </Position>
            <AltitudeMeters>597.20001220703125</AltitudeMeters>
            <DistanceMeters>NAN</DistanceMeters>
          </Trackpoint>
          <Trackpoint>
            <Time>2021-08-09T11:34:14.000Z</Time>
            <Position>
              <LatitudeDegrees>43.0128648318350315093994140625</LatitudeDegrees>
              <LongitudeDegrees>-1.75741477869451045989990234375</LongitudeDegrees>
            </Position>
            <AltitudeMeters>597.20001220703125</AltitudeMeters>
            <DistanceMeters>NAN</DistanceMeters>
          </Trackpoint>
          <Trackpoint>
            <Time>2021-08-09T11:34:15.000Z</Time>
            <Position>
              <LatitudeDegrees>43.0128520913422107696533203125</LatitudeDegrees>
              <LongitudeDegrees>-1.75740622915327548980712890625</LongitudeDegrees>
            </Position>
            <AltitudeMeters>597.4000244140625</AltitudeMeters>
            <DistanceMeters>NAN</DistanceMeters>
          </Trackpoint>
          <Trackpoint>
            <Time>2021-08-09T11:34:16.000Z</Time>
            <Position>
              <LatitudeDegrees>43.01283784210681915283203125</LatitudeDegrees>
              <LongitudeDegrees>-1.75739474594593048095703125</LongitudeDegrees>
            </Position>
            <AltitudeMeters>597.5999755859375</AltitudeMeters>
            <DistanceMeters>NAN</DistanceMeters>
          </Trackpoint>
          <Trackpoint>
            <Time>2021-08-09T11:34:17.000Z</Time>
            <Position>
              <LatitudeDegrees>43.01282283850014209747314453125</LatitudeDegrees>
              <LongitudeDegrees>-1.75738309510052204132080078125</LongitudeDegrees>
            </Position>
            <AltitudeMeters>597.79998779296875</AltitudeMeters>
            <DistanceMeters>NAN</DistanceMeters>
          </Trackpoint>
          <Trackpoint>
            <Time>2021-08-09T11:34:18.000Z</Time>
            <Position>
              <LatitudeDegrees>43.01280624233186244964599609375</LatitudeDegrees>
              <LongitudeDegrees>-1.75736616365611553192138671875</LongitudeDegrees>
            </Position>
            <AltitudeMeters>597.79998779296875</AltitudeMeters>
            <DistanceMeters>NAN</DistanceMeters>
          </Trackpoint>
          <Trackpoint>
            <Time>2021-08-09T11:34:19.000Z</Time>
            <Position>
              <LatitudeDegrees>43.0127997882664203643798828125</LatitudeDegrees>
              <LongitudeDegrees>-1.7573533393442630767822265625</LongitudeDegrees>
            </Position>
            <AltitudeMeters>598</AltitudeMeters>
            <DistanceMeters>NAN</DistanceMeters>
          </Trackpoint>
          <Trackpoint>
            <Time>2021-08-09T11:34:20.000Z</Time>
            <Position>
              <LatitudeDegrees>43.01279249601066112518310546875</LatitudeDegrees>
              <LongitudeDegrees>-1.75733707845211029052734375</LongitudeDegrees>
            </Position>
            <AltitudeMeters>598.20001220703125</AltitudeMeters>
            <DistanceMeters>NAN</DistanceMeters>
          </Trackpoint>
          <Trackpoint>
            <Time>2021-08-09T11:34:21.000Z</Time>
            <Position>
              <LatitudeDegrees>43.0127863772213459014892578125</LatitudeDegrees>
              <LongitudeDegrees>-1.7573157884180545806884765625</LongitudeDegrees>
            </Position>
            <AltitudeMeters>598.20001220703125</AltitudeMeters>
            <DistanceMeters>NAN</DistanceMeters>
          </Trackpoint>
          <Trackpoint>
            <Time>2021-08-09T11:34:22.000Z</Time>
            <Position>
              <LatitudeDegrees>43.012786209583282470703125</LatitudeDegrees>
              <LongitudeDegrees>-1.7573050595819950103759765625</LongitudeDegrees>
            </Position>
            <AltitudeMeters>598.4000244140625</AltitudeMeters>
            <DistanceMeters>NAN</DistanceMeters>
          </Trackpoint>
          <Trackpoint>
            <Time>2021-08-09T11:34:23.000Z</Time>
            <Position>
              <LatitudeDegrees>43.01278964616358280181884765625</LatitudeDegrees>
              <LongitudeDegrees>-1.75729340873658657073974609375</LongitudeDegrees>
            </Position>
            <AltitudeMeters>598.4000244140625</AltitudeMeters>
            <DistanceMeters>NAN</DistanceMeters>
          </Trackpoint>
          <Trackpoint>
            <Time>2021-08-09T11:34:24.000Z</Time>
            <Position>
              <LatitudeDegrees>43.0127947591245174407958984375</LatitudeDegrees>
              <LongitudeDegrees>-1.7572854459285736083984375</LongitudeDegrees>
            </Position>
            <AltitudeMeters>598.5999755859375</AltitudeMeters>
            <DistanceMeters>NAN</DistanceMeters>
          </Trackpoint>
          <Trackpoint>
            <Time>2021-08-09T11:34:25.000Z</Time>
            <Position>
              <LatitudeDegrees>43.012797273695468902587890625</LatitudeDegrees>
              <LongitudeDegrees>-1.75728150643408298492431640625</LongitudeDegrees>
            </Position>
            <AltitudeMeters>598.5999755859375</AltitudeMeters>
            <DistanceMeters>NAN</DistanceMeters>
          </Trackpoint>
          <Trackpoint>
            <Time>2021-08-09T11:34:26.000Z</Time>
            <Position>
              <LatitudeDegrees>43.01280188374221324920654296875</LatitudeDegrees>
              <LongitudeDegrees>-1.75728033296763896942138671875</LongitudeDegrees>
            </Position>
            <AltitudeMeters>598.5999755859375</AltitudeMeters>
            <DistanceMeters>NAN</DistanceMeters>
          </Trackpoint>
          <Trackpoint>
            <Time>2021-08-09T11:34:27.000Z</Time>
            <Position>
              <LatitudeDegrees>43.0128108523786067962646484375</LatitudeDegrees>
              <LongitudeDegrees>-1.7572789080440998077392578125</LongitudeDegrees>
            </Position>
            <AltitudeMeters>598.5999755859375</AltitudeMeters>
            <DistanceMeters>NAN</DistanceMeters>
          </Trackpoint>
          <Trackpoint>
            <Time>2021-08-09T11:34:28.000Z</Time>
            <Position>
              <LatitudeDegrees>43.01282334141433238983154296875</LatitudeDegrees>
              <LongitudeDegrees>-1.75728603266179561614990234375</LongitudeDegrees>
            </Position>
            <AltitudeMeters>598.5999755859375</AltitudeMeters>
            <DistanceMeters>NAN</DistanceMeters>
          </Trackpoint>
          <Trackpoint>
            <Time>2021-08-09T11:34:29.000Z</Time>
            <Position>
              <LatitudeDegrees>43.01282585598528385162353515625</LatitudeDegrees>
              <LongitudeDegrees>-1.7573010362684726715087890625</LongitudeDegrees>
            </Position>
            <AltitudeMeters>598.5999755859375</AltitudeMeters>
            <DistanceMeters>NAN</DistanceMeters>
          </Trackpoint>
          <Trackpoint>
            <Time>2021-08-09T11:34:30.000Z</Time>
            <Position>
              <LatitudeDegrees>43.01282577216625213623046875</LatitudeDegrees>
              <LongitudeDegrees>-1.757320649921894073486328125</LongitudeDegrees>
            </Position>
            <AltitudeMeters>598.5999755859375</AltitudeMeters>
            <DistanceMeters>NAN</DistanceMeters>
          </Trackpoint>
          <Trackpoint>
            <Time>2021-08-09T11:34:31.000Z</Time>
            <Position>
              <LatitudeDegrees>43.0128259398043155670166015625</LatitudeDegrees>
              <LongitudeDegrees>-1.7573429457843303680419921875</LongitudeDegrees>
            </Position>
            <AltitudeMeters>598.5999755859375</AltitudeMeters>
            <DistanceMeters>NAN</DistanceMeters>
          </Trackpoint>
          <Trackpoint>
            <Time>2021-08-09T11:34:32.000Z</Time>
            <Position>
              <LatitudeDegrees>43.01282904110848903656005859375</LatitudeDegrees>
              <LongitudeDegrees>-1.75736264325678348541259765625</LongitudeDegrees>
            </Position>
            <AltitudeMeters>598.5999755859375</AltitudeMeters>
            <DistanceMeters>NAN</DistanceMeters>
          </Trackpoint>
          <Trackpoint>
            <Time>2021-08-09T11:34:33.000Z</Time>
            <Position>
              <LatitudeDegrees>43.01283490844070911407470703125</LatitudeDegrees>
              <LongitudeDegrees>-1.7573774792253971099853515625</LongitudeDegrees>
            </Position>
            <AltitudeMeters>598.5999755859375</AltitudeMeters>
            <DistanceMeters>NAN</DistanceMeters>
          </Trackpoint>
          <Trackpoint>
            <Time>2021-08-09T11:34:34.000Z</Time>
            <Position>
              <LatitudeDegrees>43.01284681074321269989013671875</LatitudeDegrees>
              <LongitudeDegrees>-1.7573952488601207733154296875</LongitudeDegrees>
            </Position>
            <AltitudeMeters>598.5999755859375</AltitudeMeters>
            <DistanceMeters>NAN</DistanceMeters>
          </Trackpoint>
          <Trackpoint>
            <Time>2021-08-09T11:34:35.000Z</Time>
            <Position>
              <LatitudeDegrees>43.01286466419696807861328125</LatitudeDegrees>
              <LongitudeDegrees>-1.75741125829517841339111328125</LongitudeDegrees>
            </Position>
            <AltitudeMeters>598.5999755859375</AltitudeMeters>
            <DistanceMeters>NAN</DistanceMeters>
          </Trackpoint>
          <Trackpoint>
            <Time>2021-08-09T11:34:36.000Z</Time>
            <Position>
              <LatitudeDegrees>43.01288209855556488037109375</LatitudeDegrees>
              <LongitudeDegrees>-1.7574287764728069305419921875</LongitudeDegrees>
            </Position>
            <AltitudeMeters>598.5999755859375</AltitudeMeters>
            <DistanceMeters>NAN</DistanceMeters>
          </Trackpoint>
          <Trackpoint>
            <Time>2021-08-09T11:34:37.000Z</Time>
            <Position>
              <LatitudeDegrees>43.012898527085781097412109375</LatitudeDegrees>
              <LongitudeDegrees>-1.75744696520268917083740234375</LongitudeDegrees>
            </Position>
            <AltitudeMeters>598.5999755859375</AltitudeMeters>
            <DistanceMeters>NAN</DistanceMeters>
          </Trackpoint>
          <Trackpoint>
            <Time>2021-08-09T11:34:39.000Z</Time>
            <Position>
              <LatitudeDegrees>43.01293264143168926239013671875</LatitudeDegrees>
              <LongitudeDegrees>-1.75747445784509181976318359375</LongitudeDegrees>
            </Position>
            <AltitudeMeters>598.4000244140625</AltitudeMeters>
            <DistanceMeters>NAN</DistanceMeters>
          </Trackpoint>
          <Trackpoint>
            <Time>2021-08-09T11:34:40.000Z</Time>
            <Position>
              <LatitudeDegrees>43.01294781267642974853515625</LatitudeDegrees>
              <LongitudeDegrees>-1.75748862326145172119140625</LongitudeDegrees>
            </Position>
            <AltitudeMeters>598.4000244140625</AltitudeMeters>
            <DistanceMeters>NAN</DistanceMeters>
          </Trackpoint>
          <Trackpoint>
            <Time>2021-08-09T11:34:41.000Z</Time>
            <Position>
              <LatitudeDegrees>43.012960217893123626708984375</LatitudeDegrees>
              <LongitudeDegrees>-1.75750463269650936126708984375</LongitudeDegrees>
            </Position>
            <AltitudeMeters>598.20001220703125</AltitudeMeters>
            <DistanceMeters>NAN</DistanceMeters>
          </Trackpoint>
          <Trackpoint>
            <Time>2021-08-09T11:34:42.000Z</Time>
            <Position>
              <LatitudeDegrees>43.0129647441208362579345703125</LatitudeDegrees>
              <LongitudeDegrees>-1.757509745657444000244140625</LongitudeDegrees>
            </Position>
            <AltitudeMeters>598.20001220703125</AltitudeMeters>
            <DistanceMeters>NAN</DistanceMeters>
          </Trackpoint>
          <Trackpoint>
            <Time>2021-08-09T11:34:43.000Z</Time>
            <Position>
              <LatitudeDegrees>43.0129647441208362579345703125</LatitudeDegrees>
              <LongitudeDegrees>-1.757509745657444000244140625</LongitudeDegrees>
            </Position>
            <AltitudeMeters>598.20001220703125</AltitudeMeters>
            <DistanceMeters>NAN</DistanceMeters>
          </Trackpoint>
          <Trackpoint>
            <Time>2021-08-09T11:34:45.000Z</Time>
            <Position>
              <LatitudeDegrees>43.0129647441208362579345703125</LatitudeDegrees>
              <LongitudeDegrees>-1.757509745657444000244140625</LongitudeDegrees>
            </Position>
            <AltitudeMeters>598</AltitudeMeters>
            <DistanceMeters>NAN</DistanceMeters>
          </Trackpoint>
          <Trackpoint>
            <Time>2021-08-09T11:34:55.000Z</Time>
            <Position>
              <LatitudeDegrees>43.0129647441208362579345703125</LatitudeDegrees>
              <LongitudeDegrees>-1.757509745657444000244140625</LongitudeDegrees>
            </Position>
            <AltitudeMeters>597.79998779296875</AltitudeMeters>
            <DistanceMeters>NAN</DistanceMeters>
          </Trackpoint>
          <Trackpoint>
            <Time>2021-08-09T11:35:11.000Z</Time>
            <Position>
              <LatitudeDegrees>43.0129637382924556732177734375</LatitudeDegrees>
              <LongitudeDegrees>-1.75751209259033203125</LongitudeDegrees>
            </Position>
            <AltitudeMeters>598</AltitudeMeters>
            <DistanceMeters>NAN</DistanceMeters>
          </Trackpoint>
          <Trackpoint>
            <Time>2021-08-09T11:35:13.000Z</Time>
            <Position>
              <LatitudeDegrees>43.0129288695752620697021484375</LatitudeDegrees>
              <LongitudeDegrees>-1.757529862225055694580078125</LongitudeDegrees>
            </Position>
            <AltitudeMeters>598</AltitudeMeters>
            <DistanceMeters>NAN</DistanceMeters>
          </Trackpoint>
          <Trackpoint>
            <Time>2021-08-09T11:35:17.000Z</Time>
            <Position>
              <LatitudeDegrees>43.012869022786617279052734375</LatitudeDegrees>
              <LongitudeDegrees>-1.75747454166412353515625</LongitudeDegrees>
            </Position>
            <AltitudeMeters>598.20001220703125</AltitudeMeters>
            <DistanceMeters>NAN</DistanceMeters>
          </Trackpoint>
          <Trackpoint>
            <Time>2021-08-09T11:35:18.000Z</Time>
            <Position>
              <LatitudeDegrees>43.01286173053085803985595703125</LatitudeDegrees>
              <LongitudeDegrees>-1.757462136447429656982421875</LongitudeDegrees>
            </Position>
            <AltitudeMeters>598.20001220703125</AltitudeMeters>
            <DistanceMeters>NAN</DistanceMeters>
          </Trackpoint>
          <Trackpoint>
            <Time>2021-08-09T11:35:19.000Z</Time>
            <Position>
              <LatitudeDegrees>43.0128554441034793853759765625</LatitudeDegrees>
              <LongitudeDegrees>-1.7574482224881649017333984375</LongitudeDegrees>
            </Position>
            <AltitudeMeters>598.20001220703125</AltitudeMeters>
            <DistanceMeters>NAN</DistanceMeters>
          </Trackpoint>
          <Trackpoint>
            <Time>2021-08-09T11:35:20.000Z</Time>
            <Position>
              <LatitudeDegrees>43.012846224009990692138671875</LatitudeDegrees>
              <LongitudeDegrees>-1.7574368230998516082763671875</LongitudeDegrees>
            </Position>
            <AltitudeMeters>598.20001220703125</AltitudeMeters>
            <DistanceMeters>NAN</DistanceMeters>
          </Trackpoint>
          <Trackpoint>
            <Time>2021-08-09T11:35:22.000Z</Time>
            <Position>
              <LatitudeDegrees>43.0128272809088230133056640625</LatitudeDegrees>
              <LongitudeDegrees>-1.75740706734359264373779296875</LongitudeDegrees>
            </Position>
            <AltitudeMeters>598.4000244140625</AltitudeMeters>
            <DistanceMeters>NAN</DistanceMeters>
          </Trackpoint>
          <Trackpoint>
            <Time>2021-08-09T11:35:24.000Z</Time>
            <Position>
              <LatitudeDegrees>43.0128135345876216888427734375</LatitudeDegrees>
              <LongitudeDegrees>-1.75736582837998867034912109375</LongitudeDegrees>
            </Position>
            <AltitudeMeters>598.4000244140625</AltitudeMeters>
            <DistanceMeters>NAN</DistanceMeters>
          </Trackpoint>
          <Trackpoint>
            <Time>2021-08-09T11:35:25.000Z</Time>
            <Position>
              <LatitudeDegrees>43.01280875690281391143798828125</LatitudeDegrees>
              <LongitudeDegrees>-1.75734202377498149871826171875</LongitudeDegrees>
            </Position>
            <AltitudeMeters>598.4000244140625</AltitudeMeters>
            <DistanceMeters>NAN</DistanceMeters>
          </Trackpoint>
          <Trackpoint>
            <Time>2021-08-09T11:35:26.000Z</Time>
            <Position>
              <LatitudeDegrees>43.01280607469379901885986328125</LatitudeDegrees>
              <LongitudeDegrees>-1.757317967712879180908203125</LongitudeDegrees>
            </Position>
            <AltitudeMeters>598.5999755859375</AltitudeMeters>
            <DistanceMeters>NAN</DistanceMeters>
          </Trackpoint>
          <Trackpoint>
            <Time>2021-08-09T11:35:27.000Z</Time>
            <Position>
              <LatitudeDegrees>43.012803979218006134033203125</LatitudeDegrees>
              <LongitudeDegrees>-1.75729659385979175567626953125</LongitudeDegrees>
            </Position>
            <AltitudeMeters>598.5999755859375</AltitudeMeters>
            <DistanceMeters>NAN</DistanceMeters>
          </Trackpoint>
          <Trackpoint>
            <Time>2021-08-09T11:35:29.000Z</Time>
            <Position>
              <LatitudeDegrees>43.01280607469379901885986328125</LatitudeDegrees>
              <LongitudeDegrees>-1.7572678439319133758544921875</LongitudeDegrees>
            </Position>
            <AltitudeMeters>598.79998779296875</AltitudeMeters>
            <DistanceMeters>NAN</DistanceMeters>
          </Trackpoint>
          <Trackpoint>
            <Time>2021-08-09T11:35:32.000Z</Time>
            <Position>
              <LatitudeDegrees>43.01280607469379901885986328125</LatitudeDegrees>
              <LongitudeDegrees>-1.7572678439319133758544921875</LongitudeDegrees>
            </Position>
            <AltitudeMeters>599</AltitudeMeters>
            <DistanceMeters>NAN</DistanceMeters>
          </Trackpoint>
          <Trackpoint>
            <Time>2021-08-09T11:36:13.000Z</Time>
            <Position>
              <LatitudeDegrees>43.01280607469379901885986328125</LatitudeDegrees>
              <LongitudeDegrees>-1.7572678439319133758544921875</LongitudeDegrees>
            </Position>
            <AltitudeMeters>598.4000244140625</AltitudeMeters>
            <DistanceMeters>NAN</DistanceMeters>
          </Trackpoint>
          <Trackpoint>
            <Time>2021-08-09T11:36:21.000Z</Time>
            <Position>
              <LatitudeDegrees>43.01281881518661975860595703125</LatitudeDegrees>
              <LongitudeDegrees>-1.757262647151947021484375</LongitudeDegrees>
            </Position>
            <AltitudeMeters>598.20001220703125</AltitudeMeters>
            <DistanceMeters>NAN</DistanceMeters>
          </Trackpoint>
          <Trackpoint>
            <Time>2021-08-09T11:36:23.000Z</Time>
            <Position>
              <LatitudeDegrees>43.012825436890125274658203125</LatitudeDegrees>
              <LongitudeDegrees>-1.757290475070476531982421875</LongitudeDegrees>
            </Position>
            <AltitudeMeters>598.20001220703125</AltitudeMeters>
            <DistanceMeters>NAN</DistanceMeters>
          </Trackpoint>
          <Trackpoint>
            <Time>2021-08-09T11:36:26.000Z</Time>
            <Position>
              <LatitudeDegrees>43.012816049158573150634765625</LatitudeDegrees>
              <LongitudeDegrees>-1.7573516629636287689208984375</LongitudeDegrees>
            </Position>
            <AltitudeMeters>598</AltitudeMeters>
            <DistanceMeters>NAN</DistanceMeters>
          </Trackpoint>
          <Trackpoint>
            <Time>2021-08-09T11:36:28.000Z</Time>
            <Position>
              <LatitudeDegrees>43.0128473974764347076416015625</LatitudeDegrees>
              <LongitudeDegrees>-1.7574034631252288818359375</LongitudeDegrees>
            </Position>
            <AltitudeMeters>598</AltitudeMeters>
            <DistanceMeters>NAN</DistanceMeters>
          </Trackpoint>
          <Trackpoint>
            <Time>2021-08-09T11:36:30.000Z</Time>
            <Position>
              <LatitudeDegrees>43.01289282739162445068359375</LatitudeDegrees>
              <LongitudeDegrees>-1.75745316781103610992431640625</LongitudeDegrees>
            </Position>
            <AltitudeMeters>598</AltitudeMeters>
            <DistanceMeters>NAN</DistanceMeters>
          </Trackpoint>
          <Trackpoint>
            <Time>2021-08-09T11:36:31.000Z</Time>
            <Position>
              <LatitudeDegrees>43.01292191259562969207763671875</LatitudeDegrees>
              <LongitudeDegrees>-1.75747881643474102020263671875</LongitudeDegrees>
            </Position>
            <AltitudeMeters>598</AltitudeMeters>
            <DistanceMeters>NAN</DistanceMeters>
          </Trackpoint>
          <Trackpoint>
            <Time>2021-08-09T11:36:34.000Z</Time>
            <Position>
              <LatitudeDegrees>43.01301260478794574737548828125</LatitudeDegrees>
              <LongitudeDegrees>-1.757549308240413665771484375</LongitudeDegrees>
            </Position>
            <AltitudeMeters>598</AltitudeMeters>
            <DistanceMeters>NAN</DistanceMeters>
          </Trackpoint>
          <Trackpoint>
            <Time>2021-08-09T11:36:35.000Z</Time>
            <Position>
              <LatitudeDegrees>43.0130395106971263885498046875</LatitudeDegrees>
              <LongitudeDegrees>-1.7575657367706298828125</LongitudeDegrees>
            </Position>
            <AltitudeMeters>598.20001220703125</AltitudeMeters>
            <DistanceMeters>NAN</DistanceMeters>
          </Trackpoint>
          <Trackpoint>
            <Time>2021-08-09T11:36:36.000Z</Time>
            <Position>
              <LatitudeDegrees>43.01306608133018016815185546875</LatitudeDegrees>
              <LongitudeDegrees>-1.7575789801776409149169921875</LongitudeDegrees>
            </Position>
            <AltitudeMeters>598.20001220703125</AltitudeMeters>
            <DistanceMeters>NAN</DistanceMeters>
          </Trackpoint>
          <Trackpoint>
            <Time>2021-08-09T11:36:37.000Z</Time>
            <Position>
              <LatitudeDegrees>43.013095669448375701904296875</LatitudeDegrees>
              <LongitudeDegrees>-1.75758945755660533905029296875</LongitudeDegrees>
            </Position>
            <AltitudeMeters>598.20001220703125</AltitudeMeters>
            <DistanceMeters>NAN</DistanceMeters>
          </Trackpoint>
          <Trackpoint>
            <Time>2021-08-09T11:36:40.000Z</Time>
            <Position>
              <LatitudeDegrees>43.01317714154720306396484375</LatitudeDegrees>
              <LongitudeDegrees>-1.75762516446411609649658203125</LongitudeDegrees>
            </Position>
            <AltitudeMeters>598.4000244140625</AltitudeMeters>
            <DistanceMeters>NAN</DistanceMeters>
          </Trackpoint>
          <Trackpoint>
            <Time>2021-08-09T11:36:41.000Z</Time>
            <Position>
              <LatitudeDegrees>43.01319600082933902740478515625</LatitudeDegrees>
              <LongitudeDegrees>-1.757638491690158843994140625</LongitudeDegrees>
            </Position>
            <AltitudeMeters>598.4000244140625</AltitudeMeters>
            <DistanceMeters>NAN</DistanceMeters>
          </Trackpoint>
          <Trackpoint>
            <Time>2021-08-09T11:36:42.000Z</Time>
            <Position>
              <LatitudeDegrees>43.01322139799594879150390625</LatitudeDegrees>
              <LongitudeDegrees>-1.75766564905643463134765625</LongitudeDegrees>
            </Position>
            <AltitudeMeters>598.5999755859375</AltitudeMeters>
            <DistanceMeters>NAN</DistanceMeters>
          </Trackpoint>
          <Trackpoint>
            <Time>2021-08-09T11:36:43.000Z</Time>
            <Position>
              <LatitudeDegrees>43.01323791034519672393798828125</LatitudeDegrees>
              <LongitudeDegrees>-1.75769473426043987274169921875</LongitudeDegrees>
            </Position>
            <AltitudeMeters>598.5999755859375</AltitudeMeters>
            <DistanceMeters>NAN</DistanceMeters>
          </Trackpoint>
          <Trackpoint>
            <Time>2021-08-09T11:36:44.000Z</Time>
            <Position>
              <LatitudeDegrees>43.01325400359928607940673828125</LatitudeDegrees>
              <LongitudeDegrees>-1.75772725604474544525146484375</LongitudeDegrees>
            </Position>
            <AltitudeMeters>598.79998779296875</AltitudeMeters>
            <DistanceMeters>NAN</DistanceMeters>
          </Trackpoint>
          <Trackpoint>
            <Time>2021-08-09T11:36:45.000Z</Time>
            <Position>
              <LatitudeDegrees>43.01326590590178966522216796875</LatitudeDegrees>
              <LongitudeDegrees>-1.7577548325061798095703125</LongitudeDegrees>
            </Position>
            <AltitudeMeters>599</AltitudeMeters>
            <DistanceMeters>NAN</DistanceMeters>
          </Trackpoint>
          <Trackpoint>
            <Time>2021-08-09T11:36:46.000Z</Time>
            <Position>
              <LatitudeDegrees>43.01328183151781558990478515625</LatitudeDegrees>
              <LongitudeDegrees>-1.75778877921402454376220703125</LongitudeDegrees>
            </Position>
            <AltitudeMeters>599</AltitudeMeters>
            <DistanceMeters>NAN</DistanceMeters>
          </Trackpoint>
          <Trackpoint>
            <Time>2021-08-09T11:36:47.000Z</Time>
            <Position>
              <LatitudeDegrees>43.01329876296222209930419921875</LatitudeDegrees>
              <LongitudeDegrees>-1.75782431848347187042236328125</LongitudeDegrees>
            </Position>
            <AltitudeMeters>599.4000244140625</AltitudeMeters>
            <DistanceMeters>NAN</DistanceMeters>
          </Trackpoint>
          <Trackpoint>
            <Time>2021-08-09T11:36:48.000Z</Time>
            <Position>
              <LatitudeDegrees>43.01330865360796451568603515625</LatitudeDegrees>
              <LongitudeDegrees>-1.75784401595592498779296875</LongitudeDegrees>
            </Position>
            <AltitudeMeters>599.5999755859375</AltitudeMeters>
            <DistanceMeters>NAN</DistanceMeters>
          </Trackpoint>
          <Trackpoint>
            <Time>2021-08-09T11:36:49.000Z</Time>
            <Position>
              <LatitudeDegrees>43.01331871189177036285400390625</LatitudeDegrees>
              <LongitudeDegrees>-1.75786413252353668212890625</LongitudeDegrees>
            </Position>
            <AltitudeMeters>599.79998779296875</AltitudeMeters>
            <DistanceMeters>NAN</DistanceMeters>
          </Trackpoint>
          <Trackpoint>
            <Time>2021-08-09T11:36:50.000Z</Time>
            <Position>
              <LatitudeDegrees>43.01332793198525905609130859375</LatitudeDegrees>
              <LongitudeDegrees>-1.75787796266376972198486328125</LongitudeDegrees>
            </Position>
            <AltitudeMeters>600</AltitudeMeters>
            <DistanceMeters>NAN</DistanceMeters>
          </Trackpoint>
          <Trackpoint>
            <Time>2021-08-09T11:36:51.000Z</Time>
            <Position>
              <LatitudeDegrees>43.0133399181067943572998046875</LatitudeDegrees>
              <LongitudeDegrees>-1.75789237953722476959228515625</LongitudeDegrees>
            </Position>
            <AltitudeMeters>600.20001220703125</AltitudeMeters>
            <DistanceMeters>NAN</DistanceMeters>
          </Trackpoint>
          <Trackpoint>
            <Time>2021-08-09T11:36:52.000Z</Time>
            <Position>
              <LatitudeDegrees>43.0133508145809173583984375</LatitudeDegrees>
              <LongitudeDegrees>-1.75790428183972835540771484375</LongitudeDegrees>
            </Position>
            <AltitudeMeters>600.4000244140625</AltitudeMeters>
            <DistanceMeters>NAN</DistanceMeters>
          </Trackpoint>
          <Trackpoint>
            <Time>2021-08-09T11:36:53.000Z</Time>
            <Position>
              <LatitudeDegrees>43.01336397416889667510986328125</LatitudeDegrees>
              <LongitudeDegrees>-1.7579105682671070098876953125</LongitudeDegrees>
            </Position>
            <AltitudeMeters>600.5999755859375</AltitudeMeters>
            <DistanceMeters>NAN</DistanceMeters>
          </Trackpoint>
          <Trackpoint>
            <Time>2021-08-09T11:36:54.000Z</Time>
            <Position>
              <LatitudeDegrees>43.0133814923465251922607421875</LatitudeDegrees>
              <LongitudeDegrees>-1.7579139210283756256103515625</LongitudeDegrees>
            </Position>
            <AltitudeMeters>600.79998779296875</AltitudeMeters>
            <DistanceMeters>NAN</DistanceMeters>
          </Trackpoint>
          <Trackpoint>
            <Time>2021-08-09T11:36:55.000Z</Time>
            <Position>
              <LatitudeDegrees>43.01339565776288509368896484375</LatitudeDegrees>
              <LongitudeDegrees>-1.75791903398931026458740234375</LongitudeDegrees>
            </Position>
            <AltitudeMeters>600.79998779296875</AltitudeMeters>
            <DistanceMeters>NAN</DistanceMeters>
          </Trackpoint>
          <Trackpoint>
            <Time>2021-08-09T11:36:56.000Z</Time>
            <Position>
              <LatitudeDegrees>43.01341292448341846466064453125</LatitudeDegrees>
              <LongitudeDegrees>-1.75792515277862548828125</LongitudeDegrees>
            </Position>
            <AltitudeMeters>601</AltitudeMeters>
            <DistanceMeters>NAN</DistanceMeters>
          </Trackpoint>
          <Trackpoint>
            <Time>2021-08-09T11:36:57.000Z</Time>
            <Position>
              <LatitudeDegrees>43.0134254135191440582275390625</LatitudeDegrees>
              <LongitudeDegrees>-1.7579337023198604583740234375</LongitudeDegrees>
            </Position>
            <AltitudeMeters>601</AltitudeMeters>
            <DistanceMeters>NAN</DistanceMeters>
          </Trackpoint>
          <Trackpoint>
            <Time>2021-08-09T11:36:58.000Z</Time>
            <Position>
              <LatitudeDegrees>43.01343790255486965179443359375</LatitudeDegrees>
              <LongitudeDegrees>-1.75793009810149669647216796875</LongitudeDegrees>
            </Position>
            <AltitudeMeters>601.20001220703125</AltitudeMeters>
            <DistanceMeters>NAN</DistanceMeters>
          </Trackpoint>
          <Trackpoint>
            <Time>2021-08-09T11:36:59.000Z</Time>
            <Position>
              <LatitudeDegrees>43.01344075240194797515869140625</LatitudeDegrees>
              <LongitudeDegrees>-1.75791635178029537200927734375</LongitudeDegrees>
            </Position>
            <AltitudeMeters>601.20001220703125</AltitudeMeters>
            <DistanceMeters>NAN</DistanceMeters>
          </Trackpoint>
          <Trackpoint>
            <Time>2021-08-09T11:37:00.000Z</Time>
            <Position>
              <LatitudeDegrees>43.01344226114451885223388671875</LatitudeDegrees>
              <LongitudeDegrees>-1.75790227018296718597412109375</LongitudeDegrees>
            </Position>
            <AltitudeMeters>601.4000244140625</AltitudeMeters>
            <DistanceMeters>NAN</DistanceMeters>
          </Trackpoint>
          <Trackpoint>
            <Time>2021-08-09T11:37:01.000Z</Time>
            <Position>
              <LatitudeDegrees>43.013445697724819183349609375</LatitudeDegrees>
              <LongitudeDegrees>-1.7578911222517490386962890625</LongitudeDegrees>
            </Position>
            <AltitudeMeters>601.5999755859375</AltitudeMeters>
            <DistanceMeters>NAN</DistanceMeters>
          </Trackpoint>
          <Trackpoint>
            <Time>2021-08-09T11:37:02.000Z</Time>
            <Position>
              <LatitudeDegrees>43.01344896666705608367919921875</LatitudeDegrees>
              <LongitudeDegrees>-1.7578756995499134063720703125</LongitudeDegrees>
            </Position>
            <AltitudeMeters>601.5999755859375</AltitudeMeters>
            <DistanceMeters>NAN</DistanceMeters>
          </Trackpoint>
          <Trackpoint>
            <Time>2021-08-09T11:37:03.000Z</Time>
            <Position>
              <LatitudeDegrees>43.01345097832381725311279296875</LatitudeDegrees>
              <LongitudeDegrees>-1.75786455161869525909423828125</LongitudeDegrees>
            </Position>
            <AltitudeMeters>601.5999755859375</AltitudeMeters>
            <DistanceMeters>NAN</DistanceMeters>
          </Trackpoint>
          <Trackpoint>
            <Time>2021-08-09T11:37:04.000Z</Time>
            <Position>
              <LatitudeDegrees>43.01346086896955966949462890625</LatitudeDegrees>
              <LongitudeDegrees>-1.7578582651913166046142578125</LongitudeDegrees>
            </Position>
            <AltitudeMeters>601.79998779296875</AltitudeMeters>
            <DistanceMeters>NAN</DistanceMeters>
          </Trackpoint>
          <Trackpoint>
            <Time>2021-08-09T11:37:05.000Z</Time>
            <Position>
              <LatitudeDegrees>43.0134715139865875244140625</LatitudeDegrees>
              <LongitudeDegrees>-1.7578602768480777740478515625</LongitudeDegrees>
            </Position>
            <AltitudeMeters>601.79998779296875</AltitudeMeters>
            <DistanceMeters>NAN</DistanceMeters>
          </Trackpoint>
          <Trackpoint>
            <Time>2021-08-09T11:37:06.000Z</Time>
            <Position>
              <LatitudeDegrees>43.01347930915653705596923828125</LatitudeDegrees>
              <LongitudeDegrees>-1.75787159241735935211181640625</LongitudeDegrees>
            </Position>
            <AltitudeMeters>601.79998779296875</AltitudeMeters>
            <DistanceMeters>NAN</DistanceMeters>
          </Trackpoint>
          <Trackpoint>
            <Time>2021-08-09T11:37:07.000Z</Time>
            <Position>
              <LatitudeDegrees>43.01348232664167881011962890625</LatitudeDegrees>
              <LongitudeDegrees>-1.75789623521268367767333984375</LongitudeDegrees>
            </Position>
            <AltitudeMeters>601.79998779296875</AltitudeMeters>
            <DistanceMeters>NAN</DistanceMeters>
          </Trackpoint>
          <Trackpoint>
            <Time>2021-08-09T11:37:08.000Z</Time>
            <Position>
              <LatitudeDegrees>43.0134773813188076019287109375</LatitudeDegrees>
              <LongitudeDegrees>-1.7579142563045024871826171875</LongitudeDegrees>
            </Position>
            <AltitudeMeters>602</AltitudeMeters>
            <DistanceMeters>NAN</DistanceMeters>
          </Trackpoint>
          <Trackpoint>
            <Time>2021-08-09T11:37:09.000Z</Time>
            <Position>
              <LatitudeDegrees>43.013471849262714385986328125</LatitudeDegrees>
              <LongitudeDegrees>-1.757922470569610595703125</LongitudeDegrees>
            </Position>
            <AltitudeMeters>602</AltitudeMeters>
            <DistanceMeters>NAN</DistanceMeters>
          </Trackpoint>
          <Trackpoint>
            <Time>2021-08-09T11:37:10.000Z</Time>
            <Position>
              <LatitudeDegrees>43.013461790978908538818359375</LatitudeDegrees>
              <LongitudeDegrees>-1.75792892463505268096923828125</LongitudeDegrees>
            </Position>
            <AltitudeMeters>602</AltitudeMeters>
            <DistanceMeters>NAN</DistanceMeters>
          </Trackpoint>
          <Trackpoint>
            <Time>2021-08-09T11:37:11.000Z</Time>
            <Position>
              <LatitudeDegrees>43.01345097832381725311279296875</LatitudeDegrees>
              <LongitudeDegrees>-1.75792741589248180389404296875</LongitudeDegrees>
            </Position>
            <AltitudeMeters>602</AltitudeMeters>
            <DistanceMeters>NAN</DistanceMeters>
          </Trackpoint>
          <Trackpoint>
            <Time>2021-08-09T11:37:12.000Z</Time>
            <Position>
              <LatitudeDegrees>43.01343438215553760528564453125</LatitudeDegrees>
              <LongitudeDegrees>-1.75792540423572063446044921875</LongitudeDegrees>
            </Position>
            <AltitudeMeters>602</AltitudeMeters>
            <DistanceMeters>NAN</DistanceMeters>
          </Trackpoint>
          <Trackpoint>
            <Time>2021-08-09T11:37:13.000Z</Time>
            <Position>
              <LatitudeDegrees>43.0134173668920993804931640625</LatitudeDegrees>
              <LongitudeDegrees>-1.75792104564607143402099609375</LongitudeDegrees>
            </Position>
            <AltitudeMeters>602</AltitudeMeters>
            <DistanceMeters>NAN</DistanceMeters>
          </Trackpoint>
          <Trackpoint>
            <Time>2021-08-09T11:37:14.000Z</Time>
            <Position>
              <LatitudeDegrees>43.01339632831513881683349609375</LatitudeDegrees>
              <LongitudeDegrees>-1.75791769288480281829833984375</LongitudeDegrees>
            </Position>
            <AltitudeMeters>602</AltitudeMeters>
            <DistanceMeters>NAN</DistanceMeters>
          </Trackpoint>
          <Trackpoint>
            <Time>2021-08-09T11:37:16.000Z</Time>
            <Position>
              <LatitudeDegrees>43.01335014402866363525390625</LatitudeDegrees>
              <LongitudeDegrees>-1.75790176726877689361572265625</LongitudeDegrees>
            </Position>
            <AltitudeMeters>601.79998779296875</AltitudeMeters>
            <DistanceMeters>NAN</DistanceMeters>
          </Trackpoint>
          <Trackpoint>
            <Time>2021-08-09T11:37:17.000Z</Time>
            <Position>
              <LatitudeDegrees>43.013332374393939971923828125</LatitudeDegrees>
              <LongitudeDegrees>-1.75786086358129978179931640625</LongitudeDegrees>
            </Position>
            <AltitudeMeters>601.79998779296875</AltitudeMeters>
            <DistanceMeters>NAN</DistanceMeters>
          </Trackpoint>
          <Trackpoint>
            <Time>2021-08-09T11:37:18.000Z</Time>
            <Position>
              <LatitudeDegrees>43.01332256756722927093505859375</LatitudeDegrees>
              <LongitudeDegrees>-1.75782146863639354705810546875</LongitudeDegrees>
            </Position>
            <AltitudeMeters>601.79998779296875</AltitudeMeters>
            <DistanceMeters>NAN</DistanceMeters>
          </Trackpoint>
          <Trackpoint>
            <Time>2021-08-09T11:37:20.000Z</Time>
            <Position>
              <LatitudeDegrees>43.0133224837481975555419921875</LatitudeDegrees>
              <LongitudeDegrees>-1.75775994546711444854736328125</LongitudeDegrees>
            </Position>
            <AltitudeMeters>601.79998779296875</AltitudeMeters>
            <DistanceMeters>NAN</DistanceMeters>
          </Trackpoint>
          <Trackpoint>
            <Time>2021-08-09T11:37:21.000Z</Time>
            <Position>
              <LatitudeDegrees>43.0133372358977794647216796875</LatitudeDegrees>
              <LongitudeDegrees>-1.75774049945175647735595703125</LongitudeDegrees>
            </Position>
            <AltitudeMeters>601.4000244140625</AltitudeMeters>
            <DistanceMeters>NAN</DistanceMeters>
          </Trackpoint>
          <Trackpoint>
            <Time>2021-08-09T11:37:22.000Z</Time>
            <Position>
              <LatitudeDegrees>43.0133521556854248046875</LatitudeDegrees>
              <LongitudeDegrees>-1.7577335424721240997314453125</LongitudeDegrees>
            </Position>
            <AltitudeMeters>601.4000244140625</AltitudeMeters>
            <DistanceMeters>NAN</DistanceMeters>
          </Trackpoint>
          <Trackpoint>
            <Time>2021-08-09T11:37:23.000Z</Time>
            <Position>
              <LatitudeDegrees>43.013369925320148468017578125</LatitudeDegrees>
              <LongitudeDegrees>-1.75773362629115581512451171875</LongitudeDegrees>
            </Position>
            <AltitudeMeters>601</AltitudeMeters>
            <DistanceMeters>NAN</DistanceMeters>
          </Trackpoint>
          <Trackpoint>
            <Time>2021-08-09T11:37:25.000Z</Time>
            <Position>
              <LatitudeDegrees>43.01340647041797637939453125</LatitudeDegrees>
              <LongitudeDegrees>-1.75774075090885162353515625</LongitudeDegrees>
            </Position>
            <AltitudeMeters>600.79998779296875</AltitudeMeters>
            <DistanceMeters>NAN</DistanceMeters>
          </Trackpoint>
          <Trackpoint>
            <Time>2021-08-09T11:37:26.000Z</Time>
            <Position>
              <LatitudeDegrees>43.013434298336505889892578125</LatitudeDegrees>
              <LongitudeDegrees>-1.75774770788848400115966796875</LongitudeDegrees>
            </Position>
            <AltitudeMeters>600.5999755859375</AltitudeMeters>
            <DistanceMeters>NAN</DistanceMeters>
          </Trackpoint>
          <Trackpoint>
            <Time>2021-08-09T11:37:27.000Z</Time>
            <Position>
              <LatitudeDegrees>43.0134549178183078765869140625</LatitudeDegrees>
              <LongitudeDegrees>-1.75775147974491119384765625</LongitudeDegrees>
            </Position>
            <AltitudeMeters>600.5999755859375</AltitudeMeters>
            <DistanceMeters>NAN</DistanceMeters>
          </Trackpoint>
          <Trackpoint>
            <Time>2021-08-09T11:37:28.000Z</Time>
            <Position>
              <LatitudeDegrees>43.01347159780561923980712890625</LatitudeDegrees>
              <LongitudeDegrees>-1.75776422023773193359375</LongitudeDegrees>
            </Position>
            <AltitudeMeters>600.5999755859375</AltitudeMeters>
            <DistanceMeters>NAN</DistanceMeters>
          </Trackpoint>
          <Trackpoint>
            <Time>2021-08-09T11:37:29.000Z</Time>
            <Position>
              <LatitudeDegrees>43.0134837515652179718017578125</LatitudeDegrees>
              <LongitudeDegrees>-1.75777385942637920379638671875</LongitudeDegrees>
            </Position>
            <AltitudeMeters>600.5999755859375</AltitudeMeters>
            <DistanceMeters>NAN</DistanceMeters>
          </Trackpoint>
          <Trackpoint>
            <Time>2021-08-09T11:37:30.000Z</Time>
            <Position>
              <LatitudeDegrees>43.0134971626102924346923828125</LatitudeDegrees>
              <LongitudeDegrees>-1.75777821801602840423583984375</LongitudeDegrees>
            </Position>
            <AltitudeMeters>600.5999755859375</AltitudeMeters>
            <DistanceMeters>NAN</DistanceMeters>
          </Trackpoint>
          <Trackpoint>
            <Time>2021-08-09T11:37:31.000Z</Time>
            <Position>
              <LatitudeDegrees>43.01351032219827175140380859375</LatitudeDegrees>
              <LongitudeDegrees>-1.7577803134918212890625</LongitudeDegrees>
            </Position>
            <AltitudeMeters>600.5999755859375</AltitudeMeters>
            <DistanceMeters>NAN</DistanceMeters>
          </Trackpoint>
          <Trackpoint>
            <Time>2021-08-09T11:37:34.000Z</Time>
            <Position>
              <LatitudeDegrees>43.01351266913115978240966796875</LatitudeDegrees>
              <LongitudeDegrees>-1.7577791400253772735595703125</LongitudeDegrees>
            </Position>
            <AltitudeMeters>600.5999755859375</AltitudeMeters>
            <DistanceMeters>NAN</DistanceMeters>
          </Trackpoint>
          <Trackpoint>
            <Time>2021-08-09T11:37:39.000Z</Time>
            <Position>
              <LatitudeDegrees>43.01351266913115978240966796875</LatitudeDegrees>
              <LongitudeDegrees>-1.7577791400253772735595703125</LongitudeDegrees>
            </Position>
            <AltitudeMeters>600.20001220703125</AltitudeMeters>
            <DistanceMeters>NAN</DistanceMeters>
          </Trackpoint>
          <Trackpoint>
            <Time>2021-08-09T11:38:12.000Z</Time>
            <Position>
              <LatitudeDegrees>43.013528175652027130126953125</LatitudeDegrees>
              <LongitudeDegrees>-1.75776346586644649505615234375</LongitudeDegrees>
            </Position>
            <AltitudeMeters>599.79998779296875</AltitudeMeters>
            <DistanceMeters>NAN</DistanceMeters>
          </Trackpoint>
          <Trackpoint>
            <Time>2021-08-09T11:38:14.000Z</Time>
            <Position>
              <LatitudeDegrees>43.0135544948279857635498046875</LatitudeDegrees>
              <LongitudeDegrees>-1.75775441341102123260498046875</LongitudeDegrees>
            </Position>
            <AltitudeMeters>600</AltitudeMeters>
            <DistanceMeters>NAN</DistanceMeters>
          </Trackpoint>
          <Trackpoint>
            <Time>2021-08-09T11:38:19.000Z</Time>
            <Position>
              <LatitudeDegrees>43.01364719867706298828125</LatitudeDegrees>
              <LongitudeDegrees>-1.75777754746377468109130859375</LongitudeDegrees>
            </Position>
            <AltitudeMeters>600.20001220703125</AltitudeMeters>
            <DistanceMeters>NAN</DistanceMeters>
          </Trackpoint>
          <Trackpoint>
            <Time>2021-08-09T11:38:20.000Z</Time>
            <Position>
              <LatitudeDegrees>43.01367410458624362945556640625</LatitudeDegrees>
              <LongitudeDegrees>-1.75779045559465885162353515625</LongitudeDegrees>
            </Position>
            <AltitudeMeters>600.20001220703125</AltitudeMeters>
            <DistanceMeters>NAN</DistanceMeters>
          </Trackpoint>
          <Trackpoint>
            <Time>2021-08-09T11:38:28.000Z</Time>
            <Position>
              <LatitudeDegrees>43.01386185921728610992431640625</LatitudeDegrees>
              <LongitudeDegrees>-1.75792037509381771087646484375</LongitudeDegrees>
            </Position>
            <AltitudeMeters>601</AltitudeMeters>
            <DistanceMeters>NAN</DistanceMeters>
          </Trackpoint>
          <Trackpoint>
            <Time>2021-08-09T11:38:34.000Z</Time>
            <Position>
              <LatitudeDegrees>43.01399680785834789276123046875</LatitudeDegrees>
              <LongitudeDegrees>-1.75803218968212604522705078125</LongitudeDegrees>
            </Position>
            <AltitudeMeters>601.4000244140625</AltitudeMeters>
            <DistanceMeters>NAN</DistanceMeters>
          </Trackpoint>
          <Trackpoint>
            <Time>2021-08-09T11:38:36.000Z</Time>
            <Position>
              <LatitudeDegrees>43.0140496976673603057861328125</LatitudeDegrees>
              <LongitudeDegrees>-1.7580751888453960418701171875</LongitudeDegrees>
            </Position>
            <AltitudeMeters>601.5999755859375</AltitudeMeters>
            <DistanceMeters>NAN</DistanceMeters>
          </Trackpoint>
          <Trackpoint>
            <Time>2021-08-09T11:38:37.000Z</Time>
            <Position>
              <LatitudeDegrees>43.014074005186557769775390625</LatitudeDegrees>
              <LongitudeDegrees>-1.758092455565929412841796875</LongitudeDegrees>
            </Position>
            <AltitudeMeters>601.79998779296875</AltitudeMeters>
            <DistanceMeters>NAN</DistanceMeters>
          </Trackpoint>
          <Trackpoint>
            <Time>2021-08-09T11:38:38.000Z</Time>
            <Position>
              <LatitudeDegrees>43.01409269683063030242919921875</LatitudeDegrees>
              <LongitudeDegrees>-1.75810511223971843719482421875</LongitudeDegrees>
            </Position>
            <AltitudeMeters>601.79998779296875</AltitudeMeters>
            <DistanceMeters>NAN</DistanceMeters>
          </Trackpoint>
          <Trackpoint>
            <Time>2021-08-09T11:38:46.000Z</Time>
            <Position>
              <LatitudeDegrees>43.01430442370474338531494140625</LatitudeDegrees>
              <LongitudeDegrees>-1.75826135091483592987060546875</LongitudeDegrees>
            </Position>
            <AltitudeMeters>602.5999755859375</AltitudeMeters>
            <DistanceMeters>NAN</DistanceMeters>
          </Trackpoint>
          <Trackpoint>
            <Time>2021-08-09T11:38:49.000Z</Time>
            <Position>
              <LatitudeDegrees>43.01438279449939727783203125</LatitudeDegrees>
              <LongitudeDegrees>-1.758303008973598480224609375</LongitudeDegrees>
            </Position>
            <AltitudeMeters>602.79998779296875</AltitudeMeters>
            <DistanceMeters>NAN</DistanceMeters>
          </Trackpoint>
          <Trackpoint>
            <Time>2021-08-09T11:38:56.000Z</Time>
            <Position>
              <LatitudeDegrees>43.014601059257984161376953125</LatitudeDegrees>
              <LongitudeDegrees>-1.75840820185840129852294921875</LongitudeDegrees>
            </Position>
            <AltitudeMeters>603.4000244140625</AltitudeMeters>
            <DistanceMeters>NAN</DistanceMeters>
          </Trackpoint>
          <Trackpoint>
            <Time>2021-08-09T11:39:02.000Z</Time>
            <Position>
              <LatitudeDegrees>43.0148050747811794281005859375</LatitudeDegrees>
              <LongitudeDegrees>-1.75850559957325458526611328125</LongitudeDegrees>
            </Position>
            <AltitudeMeters>603.79998779296875</AltitudeMeters>
            <DistanceMeters>NAN</DistanceMeters>
          </Trackpoint>
          <Trackpoint>
            <Time>2021-08-09T11:39:06.000Z</Time>
            <Position>
              <LatitudeDegrees>43.01497749052941799163818359375</LatitudeDegrees>
              <LongitudeDegrees>-1.758578605949878692626953125</LongitudeDegrees>
            </Position>
            <AltitudeMeters>604</AltitudeMeters>
            <DistanceMeters>NAN</DistanceMeters>
          </Trackpoint>
          <Trackpoint>
            <Time>2021-08-09T11:39:11.000Z</Time>
            <Position>
              <LatitudeDegrees>43.0152189731597900390625</LatitudeDegrees>
              <LongitudeDegrees>-1.7586894147098064422607421875</LongitudeDegrees>
            </Position>
            <AltitudeMeters>603.5999755859375</AltitudeMeters>
            <DistanceMeters>NAN</DistanceMeters>
          </Trackpoint>
          <Trackpoint>
            <Time>2021-08-09T11:39:14.000Z</Time>
            <Position>
              <LatitudeDegrees>43.01536758430302143096923828125</LatitudeDegrees>
              <LongitudeDegrees>-1.7587571404874324798583984375</LongitudeDegrees>
            </Position>
            <AltitudeMeters>603.4000244140625</AltitudeMeters>
            <DistanceMeters>NAN</DistanceMeters>
          </Trackpoint>
          <Trackpoint>
            <Time>2021-08-09T11:39:21.000Z</Time>
            <Position>
              <LatitudeDegrees>43.0157176963984966278076171875</LatitudeDegrees>
              <LongitudeDegrees>-1.7588599026203155517578125</LongitudeDegrees>
            </Position>
            <AltitudeMeters>602.79998779296875</AltitudeMeters>
            <DistanceMeters>NAN</DistanceMeters>
          </Trackpoint>
          <Trackpoint>
            <Time>2021-08-09T11:39:22.000Z</Time>
            <Position>
              <LatitudeDegrees>43.01576471887528896331787109375</LatitudeDegrees>
              <LongitudeDegrees>-1.75886786542832851409912109375</LongitudeDegrees>
            </Position>
            <AltitudeMeters>602.79998779296875</AltitudeMeters>
            <DistanceMeters>NAN</DistanceMeters>
          </Trackpoint>
          <Trackpoint>
            <Time>2021-08-09T11:39:23.000Z</Time>
            <Position>
              <LatitudeDegrees>43.015802018344402313232421875</LatitudeDegrees>
              <LongitudeDegrees>-1.7588724754750728607177734375</LongitudeDegrees>
            </Position>
            <AltitudeMeters>602.5999755859375</AltitudeMeters>
            <DistanceMeters>NAN</DistanceMeters>
          </Trackpoint>
          <Trackpoint>
            <Time>2021-08-09T11:39:24.000Z</Time>
            <Position>
              <LatitudeDegrees>43.01585775800049304962158203125</LatitudeDegrees>
              <LongitudeDegrees>-1.75887943245470523834228515625</LongitudeDegrees>
            </Position>
            <AltitudeMeters>602.5999755859375</AltitudeMeters>
            <DistanceMeters>NAN</DistanceMeters>
          </Trackpoint>
          <Trackpoint>
            <Time>2021-08-09T11:39:25.000Z</Time>
            <Position>
              <LatitudeDegrees>43.01590494811534881591796875</LatitudeDegrees>
              <LongitudeDegrees>-1.75888680852949619293212890625</LongitudeDegrees>
            </Position>
            <AltitudeMeters>602.5999755859375</AltitudeMeters>
            <DistanceMeters>NAN</DistanceMeters>
          </Trackpoint>
          <Trackpoint>
            <Time>2021-08-09T11:39:26.000Z</Time>
            <Position>
              <LatitudeDegrees>43.01595130003988742828369140625</LatitudeDegrees>
              <LongitudeDegrees>-1.7588947713375091552734375</LongitudeDegrees>
            </Position>
            <AltitudeMeters>602.5999755859375</AltitudeMeters>
            <DistanceMeters>NAN</DistanceMeters>
          </Trackpoint>
          <Trackpoint>
            <Time>2021-08-09T11:39:27.000Z</Time>
            <Position>
              <LatitudeDegrees>43.0159902758896350860595703125</LatitudeDegrees>
              <LongitudeDegrees>-1.75890256650745868682861328125</LongitudeDegrees>
            </Position>
            <AltitudeMeters>602.4000244140625</AltitudeMeters>
            <DistanceMeters>NAN</DistanceMeters>
          </Trackpoint>
          <Trackpoint>
            <Time>2021-08-09T11:39:28.000Z</Time>
            <Position>
              <LatitudeDegrees>43.016041405498981475830078125</LatitudeDegrees>
              <LongitudeDegrees>-1.75891463644802570343017578125</LongitudeDegrees>
            </Position>
            <AltitudeMeters>602.4000244140625</AltitudeMeters>
            <DistanceMeters>NAN</DistanceMeters>
          </Trackpoint>
          <Trackpoint>
            <Time>2021-08-09T11:39:30.000Z</Time>
            <Position>
              <LatitudeDegrees>43.01614366471767425537109375</LatitudeDegrees>
              <LongitudeDegrees>-1.75895084626972675323486328125</LongitudeDegrees>
            </Position>
            <AltitudeMeters>602.4000244140625</AltitudeMeters>
            <DistanceMeters>NAN</DistanceMeters>
          </Trackpoint>
          <Trackpoint>
            <Time>2021-08-09T11:39:37.000Z</Time>
            <Position>
              <LatitudeDegrees>43.01651422865688800811767578125</LatitudeDegrees>
              <LongitudeDegrees>-1.759060062468051910400390625</LongitudeDegrees>
            </Position>
            <AltitudeMeters>601.5999755859375</AltitudeMeters>
            <DistanceMeters>NAN</DistanceMeters>
          </Trackpoint>
          <Trackpoint>
            <Time>2021-08-09T11:39:38.000Z</Time>
            <Position>
              <LatitudeDegrees>43.01656636409461498260498046875</LatitudeDegrees>
              <LongitudeDegrees>-1.759068109095096588134765625</LongitudeDegrees>
            </Position>
            <AltitudeMeters>601.5999755859375</AltitudeMeters>
            <DistanceMeters>NAN</DistanceMeters>
          </Trackpoint>
          <Trackpoint>
            <Time>2021-08-09T11:39:44.000Z</Time>
            <Position>
              <LatitudeDegrees>43.016878925263881683349609375</LatitudeDegrees>
              <LongitudeDegrees>-1.75913910381495952606201171875</LongitudeDegrees>
            </Position>
            <AltitudeMeters>601.5999755859375</AltitudeMeters>
            <DistanceMeters>NAN</DistanceMeters>
          </Trackpoint>
          <Trackpoint>
            <Time>2021-08-09T11:39:48.000Z</Time>
            <Position>
              <LatitudeDegrees>43.0170795880258083343505859375</LatitudeDegrees>
              <LongitudeDegrees>-1.75921772606670856475830078125</LongitudeDegrees>
            </Position>
            <AltitudeMeters>602</AltitudeMeters>
            <DistanceMeters>NAN</DistanceMeters>
          </Trackpoint>
          <Trackpoint>
            <Time>2021-08-09T11:39:50.000Z</Time>
            <Position>
              <LatitudeDegrees>43.01717388443648815155029296875</LatitudeDegrees>
              <LongitudeDegrees>-1.75926365889608860015869140625</LongitudeDegrees>
            </Position>
            <AltitudeMeters>602.5999755859375</AltitudeMeters>
            <DistanceMeters>NAN</DistanceMeters>
          </Trackpoint>
          <Trackpoint>
            <Time>2021-08-09T11:39:51.000Z</Time>
            <Position>
              <LatitudeDegrees>43.01723104901611804962158203125</LatitudeDegrees>
              <LongitudeDegrees>-1.75928997807204723358154296875</LongitudeDegrees>
            </Position>
            <AltitudeMeters>602.79998779296875</AltitudeMeters>
            <DistanceMeters>NAN</DistanceMeters>
          </Trackpoint>
          <Trackpoint>
            <Time>2021-08-09T11:39:52.000Z</Time>
            <Position>
              <LatitudeDegrees>43.0172680132091045379638671875</LatitudeDegrees>
              <LongitudeDegrees>-1.75930791534483432769775390625</LongitudeDegrees>
            </Position>
            <AltitudeMeters>603.20001220703125</AltitudeMeters>
            <DistanceMeters>NAN</DistanceMeters>
          </Trackpoint>
          <Trackpoint>
            <Time>2021-08-09T11:39:53.000Z</Time>
            <Position>
              <LatitudeDegrees>43.01731335930526256561279296875</LatitudeDegrees>
              <LongitudeDegrees>-1.7593257687985897064208984375</LongitudeDegrees>
            </Position>
            <AltitudeMeters>603.4000244140625</AltitudeMeters>
            <DistanceMeters>NAN</DistanceMeters>
          </Trackpoint>
          <Trackpoint>
            <Time>2021-08-09T11:39:55.000Z</Time>
            <Position>
              <LatitudeDegrees>43.0174135230481624603271484375</LatitudeDegrees>
              <LongitudeDegrees>-1.75934848375618457794189453125</LongitudeDegrees>
            </Position>
            <AltitudeMeters>603.5999755859375</AltitudeMeters>
            <DistanceMeters>NAN</DistanceMeters>
          </Trackpoint>
          <Trackpoint>
            <Time>2021-08-09T11:39:56.000Z</Time>
            <Position>
              <LatitudeDegrees>43.017455600202083587646484375</LatitudeDegrees>
              <LongitudeDegrees>-1.75935736857354640960693359375</LongitudeDegrees>
            </Position>
            <AltitudeMeters>603.5999755859375</AltitudeMeters>
            <DistanceMeters>NAN</DistanceMeters>
          </Trackpoint>
          <Trackpoint>
            <Time>2021-08-09T11:39:57.000Z</Time>
            <Position>
              <LatitudeDegrees>43.0174976773560047149658203125</LatitudeDegrees>
              <LongitudeDegrees>-1.759365834295749664306640625</LongitudeDegrees>
            </Position>
            <AltitudeMeters>603.79998779296875</AltitudeMeters>
            <DistanceMeters>NAN</DistanceMeters>
          </Trackpoint>
          <Trackpoint>
            <Time>2021-08-09T11:39:58.000Z</Time>
            <Position>
              <LatitudeDegrees>43.0175389163196086883544921875</LatitudeDegrees>
              <LongitudeDegrees>-1.759375222027301788330078125</LongitudeDegrees>
            </Position>
            <AltitudeMeters>603.79998779296875</AltitudeMeters>
            <DistanceMeters>NAN</DistanceMeters>
          </Trackpoint>
          <Trackpoint>
            <Time>2021-08-09T11:40:03.000Z</Time>
            <Position>
              <LatitudeDegrees>43.01775760017335414886474609375</LatitudeDegrees>
              <LongitudeDegrees>-1.75942358560860157012939453125</LongitudeDegrees>
            </Position>
            <AltitudeMeters>604.20001220703125</AltitudeMeters>
            <DistanceMeters>NAN</DistanceMeters>
          </Trackpoint>
          <Trackpoint>
            <Time>2021-08-09T11:40:11.000Z</Time>
            <Position>
              <LatitudeDegrees>43.01816630177199840545654296875</LatitudeDegrees>
              <LongitudeDegrees>-1.75948628224432468414306640625</LongitudeDegrees>
            </Position>
            <AltitudeMeters>603.5999755859375</AltitudeMeters>
            <DistanceMeters>NAN</DistanceMeters>
          </Trackpoint>
          <Trackpoint>
            <Time>2021-08-09T11:40:18.000Z</Time>
            <Position>
              <LatitudeDegrees>43.0185816250741481781005859375</LatitudeDegrees>
              <LongitudeDegrees>-1.7594957537949085235595703125</LongitudeDegrees>
            </Position>
            <AltitudeMeters>602.5999755859375</AltitudeMeters>
            <DistanceMeters>NAN</DistanceMeters>
          </Trackpoint>
          <Trackpoint>
            <Time>2021-08-09T11:40:22.000Z</Time>
            <Position>
              <LatitudeDegrees>43.01880533806979656219482421875</LatitudeDegrees>
              <LongitudeDegrees>-1.75945024006068706512451171875</LongitudeDegrees>
            </Position>
            <AltitudeMeters>602</AltitudeMeters>
            <DistanceMeters>NAN</DistanceMeters>
          </Trackpoint>
          <Trackpoint>
            <Time>2021-08-09T11:40:23.000Z</Time>
            <Position>
              <LatitudeDegrees>43.01885512657463550567626953125</LatitudeDegrees>
              <LongitudeDegrees>-1.75944386981427669525146484375</LongitudeDegrees>
            </Position>
            <AltitudeMeters>601.79998779296875</AltitudeMeters>
            <DistanceMeters>NAN</DistanceMeters>
          </Trackpoint>
          <Trackpoint>
            <Time>2021-08-09T11:40:24.000Z</Time>
            <Position>
              <LatitudeDegrees>43.018901310861110687255859375</LatitudeDegrees>
              <LongitudeDegrees>-1.7594380863010883331298828125</LongitudeDegrees>
            </Position>
            <AltitudeMeters>601.79998779296875</AltitudeMeters>
            <DistanceMeters>NAN</DistanceMeters>
          </Trackpoint>
          <Trackpoint>
            <Time>2021-08-09T11:40:25.000Z</Time>
            <Position>
              <LatitudeDegrees>43.0189467407763004302978515625</LatitudeDegrees>
              <LongitudeDegrees>-1.75943347625434398651123046875</LongitudeDegrees>
            </Position>
            <AltitudeMeters>601.5999755859375</AltitudeMeters>
            <DistanceMeters>NAN</DistanceMeters>
          </Trackpoint>
          <Trackpoint>
            <Time>2021-08-09T11:40:26.000Z</Time>
            <Position>
              <LatitudeDegrees>43.01899024285376071929931640625</LatitudeDegrees>
              <LongitudeDegrees>-1.7594300396740436553955078125</LongitudeDegrees>
            </Position>
            <AltitudeMeters>601.5999755859375</AltitudeMeters>
            <DistanceMeters>NAN</DistanceMeters>
          </Trackpoint>
          <Trackpoint>
            <Time>2021-08-09T11:40:27.000Z</Time>
            <Position>
              <LatitudeDegrees>43.01903240382671356201171875</LatitudeDegrees>
              <LongitudeDegrees>-1.75942643545567989349365234375</LongitudeDegrees>
            </Position>
            <AltitudeMeters>601.5999755859375</AltitudeMeters>
            <DistanceMeters>NAN</DistanceMeters>
          </Trackpoint>
          <Trackpoint>
            <Time>2021-08-09T11:40:28.000Z</Time>
            <Position>
              <LatitudeDegrees>43.01907741464674472808837890625</LatitudeDegrees>
              <LongitudeDegrees>-1.75942249596118927001953125</LongitudeDegrees>
            </Position>
            <AltitudeMeters>601.5999755859375</AltitudeMeters>
            <DistanceMeters>NAN</DistanceMeters>
          </Trackpoint>
          <Trackpoint>
            <Time>2021-08-09T11:40:31.000Z</Time>
            <Position>
              <LatitudeDegrees>43.01921722479164600372314453125</LatitudeDegrees>
              <LongitudeDegrees>-1.75940665416419506072998046875</LongitudeDegrees>
            </Position>
            <AltitudeMeters>601.5999755859375</AltitudeMeters>
            <DistanceMeters>NAN</DistanceMeters>
          </Trackpoint>
          <Trackpoint>
            <Time>2021-08-09T11:40:37.000Z</Time>
            <Position>
              <LatitudeDegrees>43.01951377652585506439208984375</LatitudeDegrees>
              <LongitudeDegrees>-1.7593656666576862335205078125</LongitudeDegrees>
            </Position>
            <AltitudeMeters>602</AltitudeMeters>
            <DistanceMeters>NAN</DistanceMeters>
          </Trackpoint>
          <Trackpoint>
            <Time>2021-08-09T11:40:40.000Z</Time>
            <Position>
              <LatitudeDegrees>43.01966398023068904876708984375</LatitudeDegrees>
              <LongitudeDegrees>-1.75932518206536769866943359375</LongitudeDegrees>
            </Position>
            <AltitudeMeters>602</AltitudeMeters>
            <DistanceMeters>NAN</DistanceMeters>
          </Trackpoint>
          <Trackpoint>
            <Time>2021-08-09T11:40:49.000Z</Time>
            <Position>
              <LatitudeDegrees>43.02010687999427318572998046875</LatitudeDegrees>
              <LongitudeDegrees>-1.75925293006002902984619140625</LongitudeDegrees>
            </Position>
            <AltitudeMeters>602.20001220703125</AltitudeMeters>
            <DistanceMeters>NAN</DistanceMeters>
          </Trackpoint>
          <Trackpoint>
            <Time>2021-08-09T11:40:53.000Z</Time>
            <Position>
              <LatitudeDegrees>43.02028005011379718780517578125</LatitudeDegrees>
              <LongitudeDegrees>-1.75929651595652103424072265625</LongitudeDegrees>
            </Position>
            <AltitudeMeters>602.5999755859375</AltitudeMeters>
            <DistanceMeters>NAN</DistanceMeters>
          </Trackpoint>
          <Trackpoint>
            <Time>2021-08-09T11:40:55.000Z</Time>
            <Position>
              <LatitudeDegrees>43.0203579179942607879638671875</LatitudeDegrees>
              <LongitudeDegrees>-1.75932585261762142181396484375</LongitudeDegrees>
            </Position>
            <AltitudeMeters>603.20001220703125</AltitudeMeters>
            <DistanceMeters>NAN</DistanceMeters>
          </Trackpoint>
          <Trackpoint>
            <Time>2021-08-09T11:40:56.000Z</Time>
            <Position>
              <LatitudeDegrees>43.02039789967238903045654296875</LatitudeDegrees>
              <LongitudeDegrees>-1.759339682757854461669921875</LongitudeDegrees>
            </Position>
            <AltitudeMeters>603.20001220703125</AltitudeMeters>
            <DistanceMeters>NAN</DistanceMeters>
          </Trackpoint>
          <Trackpoint>
            <Time>2021-08-09T11:40:57.000Z</Time>
            <Position>
              <LatitudeDegrees>43.02043947391211986541748046875</LatitudeDegrees>
              <LongitudeDegrees>-1.75935233943164348602294921875</LongitudeDegrees>
            </Position>
            <AltitudeMeters>603.4000244140625</AltitudeMeters>
            <DistanceMeters>NAN</DistanceMeters>
          </Trackpoint>
          <Trackpoint>
            <Time>2021-08-09T11:40:58.000Z</Time>
            <Position>
              <LatitudeDegrees>43.020484149456024169921875</LatitudeDegrees>
              <LongitudeDegrees>-1.75936290062963962554931640625</LongitudeDegrees>
            </Position>
            <AltitudeMeters>603.5999755859375</AltitudeMeters>
            <DistanceMeters>NAN</DistanceMeters>
          </Trackpoint>
          <Trackpoint>
            <Time>2021-08-09T11:41:01.000Z</Time>
            <Position>
              <LatitudeDegrees>43.02062831819057464599609375</LatitudeDegrees>
              <LongitudeDegrees>-1.75937823951244354248046875</LongitudeDegrees>
            </Position>
            <AltitudeMeters>603.79998779296875</AltitudeMeters>
            <DistanceMeters>NAN</DistanceMeters>
          </Trackpoint>
          <Trackpoint>
            <Time>2021-08-09T11:41:04.000Z</Time>
            <Position>
              <LatitudeDegrees>43.02077441476285457611083984375</LatitudeDegrees>
              <LongitudeDegrees>-1.75936155952513217926025390625</LongitudeDegrees>
            </Position>
            <AltitudeMeters>604</AltitudeMeters>
            <DistanceMeters>NAN</DistanceMeters>
          </Trackpoint>
          <Trackpoint>
            <Time>2021-08-09T11:41:13.000Z</Time>
            <Position>
              <LatitudeDegrees>43.02126131951808929443359375</LatitudeDegrees>
              <LongitudeDegrees>-1.75933725200593471527099609375</LongitudeDegrees>
            </Position>
            <AltitudeMeters>603.5999755859375</AltitudeMeters>
            <DistanceMeters>NAN</DistanceMeters>
          </Trackpoint>
          <Trackpoint>
            <Time>2021-08-09T11:41:15.000Z</Time>
            <Position>
              <LatitudeDegrees>43.02134840749204158782958984375</LatitudeDegrees>
              <LongitudeDegrees>-1.75932149402797222137451171875</LongitudeDegrees>
            </Position>
            <AltitudeMeters>603.5999755859375</AltitudeMeters>
            <DistanceMeters>NAN</DistanceMeters>
          </Trackpoint>
          <Trackpoint>
            <Time>2021-08-09T11:41:18.000Z</Time>
            <Position>
              <LatitudeDegrees>43.02150447852909564971923828125</LatitudeDegrees>
              <LongitudeDegrees>-1.75928570330142974853515625</LongitudeDegrees>
            </Position>
            <AltitudeMeters>603.20001220703125</AltitudeMeters>
            <DistanceMeters>NAN</DistanceMeters>
          </Trackpoint>
          <Trackpoint>
            <Time>2021-08-09T11:41:19.000Z</Time>
            <Position>
              <LatitudeDegrees>43.0215521715581417083740234375</LatitudeDegrees>
              <LongitudeDegrees>-1.759268939495086669921875</LongitudeDegrees>
            </Position>
            <AltitudeMeters>603.20001220703125</AltitudeMeters>
            <DistanceMeters>NAN</DistanceMeters>
          </Trackpoint>
          <Trackpoint>
            <Time>2021-08-09T11:41:20.000Z</Time>
            <Position>
              <LatitudeDegrees>43.0216004513204097747802734375</LatitudeDegrees>
              <LongitudeDegrees>-1.75925158895552158355712890625</LongitudeDegrees>
            </Position>
            <AltitudeMeters>603.20001220703125</AltitudeMeters>
            <DistanceMeters>NAN</DistanceMeters>
          </Trackpoint>
          <Trackpoint>
            <Time>2021-08-09T11:41:21.000Z</Time>
            <Position>
              <LatitudeDegrees>43.02164814434945583343505859375</LatitudeDegrees>
              <LongitudeDegrees>-1.75923164002597332000732421875</LongitudeDegrees>
            </Position>
            <AltitudeMeters>603</AltitudeMeters>
            <DistanceMeters>NAN</DistanceMeters>
          </Trackpoint>
          <Trackpoint>
            <Time>2021-08-09T11:41:22.000Z</Time>
            <Position>
              <LatitudeDegrees>43.0216936580836772918701171875</LatitudeDegrees>
              <LongitudeDegrees>-1.7592107690870761871337890625</LongitudeDegrees>
            </Position>
            <AltitudeMeters>603</AltitudeMeters>
            <DistanceMeters>NAN</DistanceMeters>
          </Trackpoint>
          <Trackpoint>
            <Time>2021-08-09T11:41:23.000Z</Time>
            <Position>
              <LatitudeDegrees>43.02174009382724761962890625</LatitudeDegrees>
              <LongitudeDegrees>-1.75918738357722759246826171875</LongitudeDegrees>
            </Position>
            <AltitudeMeters>603</AltitudeMeters>
            <DistanceMeters>NAN</DistanceMeters>
          </Trackpoint>
          <Trackpoint>
            <Time>2021-08-09T11:41:24.000Z</Time>
            <Position>
              <LatitudeDegrees>43.0217855237424373626708984375</LatitudeDegrees>
              <LongitudeDegrees>-1.75916810519993305206298828125</LongitudeDegrees>
            </Position>
            <AltitudeMeters>602.79998779296875</AltitudeMeters>
            <DistanceMeters>NAN</DistanceMeters>
          </Trackpoint>
          <Trackpoint>
            <Time>2021-08-09T11:41:25.000Z</Time>
            <Position>
              <LatitudeDegrees>43.02183019928634166717529296875</LatitudeDegrees>
              <LongitudeDegrees>-1.7591470666229724884033203125</LongitudeDegrees>
            </Position>
            <AltitudeMeters>602.79998779296875</AltitudeMeters>
            <DistanceMeters>NAN</DistanceMeters>
          </Trackpoint>
          <Trackpoint>
            <Time>2021-08-09T11:41:26.000Z</Time>
            <Position>
              <LatitudeDegrees>43.0218737013638019561767578125</LatitudeDegrees>
              <LongitudeDegrees>-1.75912418402731418609619140625</LongitudeDegrees>
            </Position>
            <AltitudeMeters>603</AltitudeMeters>
            <DistanceMeters>NAN</DistanceMeters>
          </Trackpoint>
          <Trackpoint>
            <Time>2021-08-09T11:41:27.000Z</Time>
            <Position>
              <LatitudeDegrees>43.02191854454576969146728515625</LatitudeDegrees>
              <LongitudeDegrees>-1.75909669138491153717041015625</LongitudeDegrees>
            </Position>
            <AltitudeMeters>603</AltitudeMeters>
            <DistanceMeters>NAN</DistanceMeters>
          </Trackpoint>
          <Trackpoint>
            <Time>2021-08-09T11:41:32.000Z</Time>
            <Position>
              <LatitudeDegrees>43.02213580347597599029541015625</LatitudeDegrees>
              <LongitudeDegrees>-1.75899309106171131134033203125</LongitudeDegrees>
            </Position>
            <AltitudeMeters>603</AltitudeMeters>
            <DistanceMeters>NAN</DistanceMeters>
          </Trackpoint>
          <Trackpoint>
            <Time>2021-08-09T11:41:33.000Z</Time>
            <Position>
              <LatitudeDegrees>43.02217855118215084075927734375</LatitudeDegrees>
              <LongitudeDegrees>-1.75897657871246337890625</LongitudeDegrees>
            </Position>
            <AltitudeMeters>603.20001220703125</AltitudeMeters>
            <DistanceMeters>NAN</DistanceMeters>
          </Trackpoint>
          <Trackpoint>
            <Time>2021-08-09T11:41:36.000Z</Time>
            <Position>
              <LatitudeDegrees>43.02231349982321262359619140625</LatitudeDegrees>
              <LongitudeDegrees>-1.7589220963418483734130859375</LongitudeDegrees>
            </Position>
            <AltitudeMeters>603.4000244140625</AltitudeMeters>
            <DistanceMeters>NAN</DistanceMeters>
          </Trackpoint>
          <Trackpoint>
            <Time>2021-08-09T11:41:41.000Z</Time>
            <Position>
              <LatitudeDegrees>43.02253411151468753814697265625</LatitudeDegrees>
              <LongitudeDegrees>-1.7588309012353420257568359375</LongitudeDegrees>
            </Position>
            <AltitudeMeters>603.79998779296875</AltitudeMeters>
            <DistanceMeters>NAN</DistanceMeters>
          </Trackpoint>
          <Trackpoint>
            <Time>2021-08-09T11:41:43.000Z</Time>
            <Position>
              <LatitudeDegrees>43.0226223729550838470458984375</LatitudeDegrees>
              <LongitudeDegrees>-1.75880013965070247650146484375</LongitudeDegrees>
            </Position>
            <AltitudeMeters>603.79998779296875</AltitudeMeters>
            <DistanceMeters>NAN</DistanceMeters>
          </Trackpoint>
          <Trackpoint>
            <Time>2021-08-09T11:41:45.000Z</Time>
            <Position>
              <LatitudeDegrees>43.02270191721618175506591796875</LatitudeDegrees>
              <LongitudeDegrees>-1.75878505222499370574951171875</LongitudeDegrees>
            </Position>
            <AltitudeMeters>604</AltitudeMeters>
            <DistanceMeters>NAN</DistanceMeters>
          </Trackpoint>
          <Trackpoint>
            <Time>2021-08-09T11:41:46.000Z</Time>
            <Position>
              <LatitudeDegrees>43.02274147979915142059326171875</LatitudeDegrees>
              <LongitudeDegrees>-1.75877415575087070465087890625</LongitudeDegrees>
            </Position>
            <AltitudeMeters>604</AltitudeMeters>
            <DistanceMeters>NAN</DistanceMeters>
          </Trackpoint>
          <Trackpoint>
            <Time>2021-08-09T11:41:47.000Z</Time>
            <Position>
              <LatitudeDegrees>43.02278347313404083251953125</LatitudeDegrees>
              <LongitudeDegrees>-1.75876745022833347320556640625</LongitudeDegrees>
            </Position>
            <AltitudeMeters>604.20001220703125</AltitudeMeters>
            <DistanceMeters>NAN</DistanceMeters>
          </Trackpoint>
          <Trackpoint>
            <Time>2021-08-09T11:41:48.000Z</Time>
            <Position>
              <LatitudeDegrees>43.02282814867794513702392578125</LatitudeDegrees>
              <LongitudeDegrees>-1.758760325610637664794921875</LongitudeDegrees>
            </Position>
            <AltitudeMeters>604.4000244140625</AltitudeMeters>
            <DistanceMeters>NAN</DistanceMeters>
          </Trackpoint>
          <Trackpoint>
            <Time>2021-08-09T11:41:49.000Z</Time>
            <Position>
              <LatitudeDegrees>43.02287341095507144927978515625</LatitudeDegrees>
              <LongitudeDegrees>-1.75875102169811725616455078125</LongitudeDegrees>
            </Position>
            <AltitudeMeters>604.4000244140625</AltitudeMeters>
            <DistanceMeters>NAN</DistanceMeters>
          </Trackpoint>
          <Trackpoint>
            <Time>2021-08-09T11:41:50.000Z</Time>
            <Position>
              <LatitudeDegrees>43.02291884087026119232177734375</LatitudeDegrees>
              <LongitudeDegrees>-1.7587393708527088165283203125</LongitudeDegrees>
            </Position>
            <AltitudeMeters>604.4000244140625</AltitudeMeters>
            <DistanceMeters>NAN</DistanceMeters>
          </Trackpoint>
          <Trackpoint>
            <Time>2021-08-09T11:41:55.000Z</Time>
            <Position>
              <LatitudeDegrees>43.0231489241123199462890625</LatitudeDegrees>
              <LongitudeDegrees>-1.75868379883468151092529296875</LongitudeDegrees>
            </Position>
            <AltitudeMeters>604.79998779296875</AltitudeMeters>
            <DistanceMeters>NAN</DistanceMeters>
          </Trackpoint>
          <Trackpoint>
            <Time>2021-08-09T11:42:04.000Z</Time>
            <Position>
              <LatitudeDegrees>43.02357212640345096588134765625</LatitudeDegrees>
              <LongitudeDegrees>-1.7585998959839344024658203125</LongitudeDegrees>
            </Position>
            <AltitudeMeters>605.20001220703125</AltitudeMeters>
            <DistanceMeters>NAN</DistanceMeters>
          </Trackpoint>
          <Trackpoint>
            <Time>2021-08-09T11:42:06.000Z</Time>
            <Position>
              <LatitudeDegrees>43.02366315387189388275146484375</LatitudeDegrees>
              <LongitudeDegrees>-1.7585831321775913238525390625</LongitudeDegrees>
            </Position>
            <AltitudeMeters>605.20001220703125</AltitudeMeters>
            <DistanceMeters>NAN</DistanceMeters>
          </Trackpoint>
          <Trackpoint>
            <Time>2021-08-09T11:42:07.000Z</Time>
            <Position>
              <LatitudeDegrees>43.0237079970538616180419921875</LatitudeDegrees>
              <LongitudeDegrees>-1.75857282243669033050537109375</LongitudeDegrees>
            </Position>
            <AltitudeMeters>605.4000244140625</AltitudeMeters>
            <DistanceMeters>NAN</DistanceMeters>
          </Trackpoint>
          <Trackpoint>
            <Time>2021-08-09T11:42:08.000Z</Time>
            <Position>
              <LatitudeDegrees>43.02375099621713161468505859375</LatitudeDegrees>
              <LongitudeDegrees>-1.75856150686740875244140625</LongitudeDegrees>
            </Position>
            <AltitudeMeters>605.5999755859375</AltitudeMeters>
            <DistanceMeters>NAN</DistanceMeters>
          </Trackpoint>
          <Trackpoint>
            <Time>2021-08-09T11:42:10.000Z</Time>
            <Position>
              <LatitudeDegrees>43.02383624017238616943359375</LatitudeDegrees>
              <LongitudeDegrees>-1.75853602588176727294921875</LongitudeDegrees>
            </Position>
            <AltitudeMeters>605.79998779296875</AltitudeMeters>
            <DistanceMeters>NAN</DistanceMeters>
          </Trackpoint>
          <Trackpoint>
            <Time>2021-08-09T11:42:11.000Z</Time>
            <Position>
              <LatitudeDegrees>43.02387923933565616607666015625</LatitudeDegrees>
              <LongitudeDegrees>-1.75852454267442226409912109375</LongitudeDegrees>
            </Position>
            <AltitudeMeters>605.5999755859375</AltitudeMeters>
            <DistanceMeters>NAN</DistanceMeters>
          </Trackpoint>
          <Trackpoint>
            <Time>2021-08-09T11:42:13.000Z</Time>
            <Position>
              <LatitudeDegrees>43.02396171726286411285400390625</LatitudeDegrees>
              <LongitudeDegrees>-1.7584949545562267303466796875</LongitudeDegrees>
            </Position>
            <AltitudeMeters>605.79998779296875</AltitudeMeters>
            <DistanceMeters>NAN</DistanceMeters>
          </Trackpoint>
          <Trackpoint>
            <Time>2021-08-09T11:42:19.000Z</Time>
            <Position>
              <LatitudeDegrees>43.02421443164348602294921875</LatitudeDegrees>
              <LongitudeDegrees>-1.75838858820497989654541015625</LongitudeDegrees>
            </Position>
            <AltitudeMeters>606.20001220703125</AltitudeMeters>
            <DistanceMeters>NAN</DistanceMeters>
          </Trackpoint>
          <Trackpoint>
            <Time>2021-08-09T11:42:21.000Z</Time>
            <Position>
              <LatitudeDegrees>43.024293892085552215576171875</LatitudeDegrees>
              <LongitudeDegrees>-1.758349947631359100341796875</LongitudeDegrees>
            </Position>
            <AltitudeMeters>606.5999755859375</AltitudeMeters>
            <DistanceMeters>NAN</DistanceMeters>
          </Trackpoint>
          <Trackpoint>
            <Time>2021-08-09T11:42:25.000Z</Time>
            <Position>
              <LatitudeDegrees>43.0244578421115875244140625</LatitudeDegrees>
              <LongitudeDegrees>-1.7582874186336994171142578125</LongitudeDegrees>
            </Position>
            <AltitudeMeters>606.79998779296875</AltitudeMeters>
            <DistanceMeters>NAN</DistanceMeters>
          </Trackpoint>
          <Trackpoint>
            <Time>2021-08-09T11:42:27.000Z</Time>
            <Position>
              <LatitudeDegrees>43.0245394818484783172607421875</LatitudeDegrees>
              <LongitudeDegrees>-1.7582778632640838623046875</LongitudeDegrees>
            </Position>
            <AltitudeMeters>607</AltitudeMeters>
            <DistanceMeters>NAN</DistanceMeters>
          </Trackpoint>
          <Trackpoint>
            <Time>2021-08-09T11:42:28.000Z</Time>
            <Position>
              <LatitudeDegrees>43.02458097226917743682861328125</LatitudeDegrees>
              <LongitudeDegrees>-1.758275516331195831298828125</LongitudeDegrees>
            </Position>
            <AltitudeMeters>607</AltitudeMeters>
            <DistanceMeters>NAN</DistanceMeters>
          </Trackpoint>
          <Trackpoint>
            <Time>2021-08-09T11:42:29.000Z</Time>
            <Position>
              <LatitudeDegrees>43.0246199481189250946044921875</LatitudeDegrees>
              <LongitudeDegrees>-1.758280880749225616455078125</LongitudeDegrees>
            </Position>
            <AltitudeMeters>607.20001220703125</AltitudeMeters>
            <DistanceMeters>NAN</DistanceMeters>
          </Trackpoint>
          <Trackpoint>
            <Time>2021-08-09T11:42:30.000Z</Time>
            <Position>
              <LatitudeDegrees>43.02465691231191158294677734375</LatitudeDegrees>
              <LongitudeDegrees>-1.75829102285206317901611328125</LongitudeDegrees>
            </Position>
            <AltitudeMeters>607.20001220703125</AltitudeMeters>
            <DistanceMeters>NAN</DistanceMeters>
          </Trackpoint>
          <Trackpoint>
            <Time>2021-08-09T11:42:31.000Z</Time>
            <Position>
              <LatitudeDegrees>43.02469764836132526397705078125</LatitudeDegrees>
              <LongitudeDegrees>-1.75830242224037647247314453125</LongitudeDegrees>
            </Position>
            <AltitudeMeters>607.20001220703125</AltitudeMeters>
            <DistanceMeters>NAN</DistanceMeters>
          </Trackpoint>
          <Trackpoint>
            <Time>2021-08-09T11:42:32.000Z</Time>
            <Position>
              <LatitudeDegrees>43.02473746240139007568359375</LatitudeDegrees>
              <LongitudeDegrees>-1.75831717438995838165283203125</LongitudeDegrees>
            </Position>
            <AltitudeMeters>607.20001220703125</AltitudeMeters>
            <DistanceMeters>NAN</DistanceMeters>
          </Trackpoint>
          <Trackpoint>
            <Time>2021-08-09T11:42:34.000Z</Time>
            <Position>
              <LatitudeDegrees>43.02481465972959995269775390625</LatitudeDegrees>
              <LongitudeDegrees>-1.7583561502397060394287109375</LongitudeDegrees>
            </Position>
            <AltitudeMeters>607.4000244140625</AltitudeMeters>
            <DistanceMeters>NAN</DistanceMeters>
          </Trackpoint>
          <Trackpoint>
            <Time>2021-08-09T11:42:35.000Z</Time>
            <Position>
              <LatitudeDegrees>43.0248553119599819183349609375</LatitudeDegrees>
              <LongitudeDegrees>-1.7583742551505565643310546875</LongitudeDegrees>
            </Position>
            <AltitudeMeters>607.5999755859375</AltitudeMeters>
            <DistanceMeters>NAN</DistanceMeters>
          </Trackpoint>
          <Trackpoint>
            <Time>2021-08-09T11:42:41.000Z</Time>
            <Position>
              <LatitudeDegrees>43.02508288063108921051025390625</LatitudeDegrees>
              <LongitudeDegrees>-1.75849755294620990753173828125</LongitudeDegrees>
            </Position>
            <AltitudeMeters>608.20001220703125</AltitudeMeters>
            <DistanceMeters>NAN</DistanceMeters>
          </Trackpoint>
          <Trackpoint>
            <Time>2021-08-09T11:42:43.000Z</Time>
            <Position>
              <LatitudeDegrees>43.0251547135412693023681640625</LatitudeDegrees>
              <LongitudeDegrees>-1.75854139029979705810546875</LongitudeDegrees>
            </Position>
            <AltitudeMeters>608.4000244140625</AltitudeMeters>
            <DistanceMeters>NAN</DistanceMeters>
          </Trackpoint>
          <Trackpoint>
            <Time>2021-08-09T11:42:44.000Z</Time>
            <Position>
              <LatitudeDegrees>43.025192432105541229248046875</LatitudeDegrees>
              <LongitudeDegrees>-1.7585603334009647369384765625</LongitudeDegrees>
            </Position>
            <AltitudeMeters>608.4000244140625</AltitudeMeters>
            <DistanceMeters>NAN</DistanceMeters>
          </Trackpoint>
          <Trackpoint>
            <Time>2021-08-09T11:42:45.000Z</Time>
            <Position>
              <LatitudeDegrees>43.025229983031749725341796875</LatitudeDegrees>
              <LongitudeDegrees>-1.75857667811214923858642578125</LongitudeDegrees>
            </Position>
            <AltitudeMeters>608.5999755859375</AltitudeMeters>
            <DistanceMeters>NAN</DistanceMeters>
          </Trackpoint>
          <Trackpoint>
            <Time>2021-08-09T11:42:46.000Z</Time>
            <Position>
              <LatitudeDegrees>43.025266192853450775146484375</LatitudeDegrees>
              <LongitudeDegrees>-1.75859780050814151763916015625</LongitudeDegrees>
            </Position>
            <AltitudeMeters>608.5999755859375</AltitudeMeters>
            <DistanceMeters>NAN</DistanceMeters>
          </Trackpoint>
          <Trackpoint>
            <Time>2021-08-09T11:42:48.000Z</Time>
            <Position>
              <LatitudeDegrees>43.02534137852489948272705078125</LatitudeDegrees>
              <LongitudeDegrees>-1.758623532950878143310546875</LongitudeDegrees>
            </Position>
            <AltitudeMeters>608.79998779296875</AltitudeMeters>
            <DistanceMeters>NAN</DistanceMeters>
          </Trackpoint>
          <Trackpoint>
            <Time>2021-08-09T11:42:49.000Z</Time>
            <Position>
              <LatitudeDegrees>43.0253783427178859710693359375</LatitudeDegrees>
              <LongitudeDegrees>-1.75864063203334808349609375</LongitudeDegrees>
            </Position>
            <AltitudeMeters>609</AltitudeMeters>
            <DistanceMeters>NAN</DistanceMeters>
          </Trackpoint>
          <Trackpoint>
            <Time>2021-08-09T11:42:50.000Z</Time>
            <Position>
              <LatitudeDegrees>43.025414049625396728515625</LatitudeDegrees>
              <LongitudeDegrees>-1.75865664146840572357177734375</LongitudeDegrees>
            </Position>
            <AltitudeMeters>609.20001220703125</AltitudeMeters>
            <DistanceMeters>NAN</DistanceMeters>
          </Trackpoint>
          <Trackpoint>
            <Time>2021-08-09T11:42:51.000Z</Time>
            <Position>
              <LatitudeDegrees>43.02544615231454372406005859375</LatitudeDegrees>
              <LongitudeDegrees>-1.75867776386439800262451171875</LongitudeDegrees>
            </Position>
            <AltitudeMeters>609.4000244140625</AltitudeMeters>
            <DistanceMeters>NAN</DistanceMeters>
          </Trackpoint>
          <Trackpoint>
            <Time>2021-08-09T11:42:52.000Z</Time>
            <Position>
              <LatitudeDegrees>43.02547750063240528106689453125</LatitudeDegrees>
              <LongitudeDegrees>-1.7586984671652317047119140625</LongitudeDegrees>
            </Position>
            <AltitudeMeters>609.5999755859375</AltitudeMeters>
            <DistanceMeters>NAN</DistanceMeters>
          </Trackpoint>
          <Trackpoint>
            <Time>2021-08-09T11:42:53.000Z</Time>
            <Position>
              <LatitudeDegrees>43.02550725638866424560546875</LatitudeDegrees>
              <LongitudeDegrees>-1.7587182484567165374755859375</LongitudeDegrees>
            </Position>
            <AltitudeMeters>609.79998779296875</AltitudeMeters>
            <DistanceMeters>NAN</DistanceMeters>
          </Trackpoint>
          <Trackpoint>
            <Time>2021-08-09T11:42:54.000Z</Time>
            <Position>
              <LatitudeDegrees>43.02553885616362094879150390625</LatitudeDegrees>
              <LongitudeDegrees>-1.75873643718659877777099609375</LongitudeDegrees>
            </Position>
            <AltitudeMeters>610</AltitudeMeters>
            <DistanceMeters>NAN</DistanceMeters>
          </Trackpoint>
          <Trackpoint>
            <Time>2021-08-09T11:42:55.000Z</Time>
            <Position>
              <LatitudeDegrees>43.0255682766437530517578125</LatitudeDegrees>
              <LongitudeDegrees>-1.75875730812549591064453125</LongitudeDegrees>
            </Position>
            <AltitudeMeters>610.20001220703125</AltitudeMeters>
            <DistanceMeters>NAN</DistanceMeters>
          </Trackpoint>
          <Trackpoint>
            <Time>2021-08-09T11:42:56.000Z</Time>
            <Position>
              <LatitudeDegrees>43.02560088224709033966064453125</LatitudeDegrees>
              <LongitudeDegrees>-1.75877482630312442779541015625</LongitudeDegrees>
            </Position>
            <AltitudeMeters>610.4000244140625</AltitudeMeters>
            <DistanceMeters>NAN</DistanceMeters>
          </Trackpoint>
          <Trackpoint>
            <Time>2021-08-09T11:42:57.000Z</Time>
            <Position>
              <LatitudeDegrees>43.02563306875526905059814453125</LatitudeDegrees>
              <LongitudeDegrees>-1.75878622569143772125244140625</LongitudeDegrees>
            </Position>
            <AltitudeMeters>610.5999755859375</AltitudeMeters>
            <DistanceMeters>NAN</DistanceMeters>
          </Trackpoint>
          <Trackpoint>
            <Time>2021-08-09T11:42:58.000Z</Time>
            <Position>
              <LatitudeDegrees>43.02566693164408206939697265625</LatitudeDegrees>
              <LongitudeDegrees>-1.75879980437457561492919921875</LongitudeDegrees>
            </Position>
            <AltitudeMeters>610.79998779296875</AltitudeMeters>
            <DistanceMeters>NAN</DistanceMeters>
          </Trackpoint>
          <Trackpoint>
            <Time>2021-08-09T11:42:59.000Z</Time>
            <Position>
              <LatitudeDegrees>43.025696016848087310791015625</LatitudeDegrees>
              <LongitudeDegrees>-1.7588101141154766082763671875</LongitudeDegrees>
            </Position>
            <AltitudeMeters>611</AltitudeMeters>
            <DistanceMeters>NAN</DistanceMeters>
          </Trackpoint>
          <Trackpoint>
            <Time>2021-08-09T11:43:00.000Z</Time>
            <Position>
              <LatitudeDegrees>43.02573834545910358428955078125</LatitudeDegrees>
              <LongitudeDegrees>-1.75882461480796337127685546875</LongitudeDegrees>
            </Position>
            <AltitudeMeters>611</AltitudeMeters>
            <DistanceMeters>NAN</DistanceMeters>
          </Trackpoint>
          <Trackpoint>
            <Time>2021-08-09T11:43:01.000Z</Time>
            <Position>
              <LatitudeDegrees>43.02577145397663116455078125</LatitudeDegrees>
              <LongitudeDegrees>-1.75883634947240352630615234375</LongitudeDegrees>
            </Position>
            <AltitudeMeters>611</AltitudeMeters>
            <DistanceMeters>NAN</DistanceMeters>
          </Trackpoint>
          <Trackpoint>
            <Time>2021-08-09T11:43:02.000Z</Time>
            <Position>
              <LatitudeDegrees>43.02580322138965129852294921875</LatitudeDegrees>
              <LongitudeDegrees>-1.75884556956589221954345703125</LongitudeDegrees>
            </Position>
            <AltitudeMeters>611.20001220703125</AltitudeMeters>
            <DistanceMeters>NAN</DistanceMeters>
          </Trackpoint>
          <Trackpoint>
            <Time>2021-08-09T11:43:03.000Z</Time>
            <Position>
              <LatitudeDegrees>43.025836832821369171142578125</LatitudeDegrees>
              <LongitudeDegrees>-1.75885462202131748199462890625</LongitudeDegrees>
            </Position>
            <AltitudeMeters>611.20001220703125</AltitudeMeters>
            <DistanceMeters>NAN</DistanceMeters>
          </Trackpoint>
          <Trackpoint>
            <Time>2021-08-09T11:43:04.000Z</Time>
            <Position>
              <LatitudeDegrees>43.02587195299565792083740234375</LatitudeDegrees>
              <LongitudeDegrees>-1.75886057317256927490234375</LongitudeDegrees>
            </Position>
            <AltitudeMeters>611.20001220703125</AltitudeMeters>
            <DistanceMeters>NAN</DistanceMeters>
          </Trackpoint>
          <Trackpoint>
            <Time>2021-08-09T11:43:05.000Z</Time>
            <Position>
              <LatitudeDegrees>43.025904558598995208740234375</LatitudeDegrees>
              <LongitudeDegrees>-1.75886199809610843658447265625</LongitudeDegrees>
            </Position>
            <AltitudeMeters>611.4000244140625</AltitudeMeters>
            <DistanceMeters>NAN</DistanceMeters>
          </Trackpoint>
          <Trackpoint>
            <Time>2021-08-09T11:43:06.000Z</Time>
            <Position>
              <LatitudeDegrees>43.02593817003071308135986328125</LatitudeDegrees>
              <LongitudeDegrees>-1.75885646604001522064208984375</LongitudeDegrees>
            </Position>
            <AltitudeMeters>611.5999755859375</AltitudeMeters>
            <DistanceMeters>NAN</DistanceMeters>
          </Trackpoint>
          <Trackpoint>
            <Time>2021-08-09T11:43:07.000Z</Time>
            <Position>
              <LatitudeDegrees>43.02597203291952610015869140625</LatitudeDegrees>
              <LongitudeDegrees>-1.7588545382022857666015625</LongitudeDegrees>
            </Position>
            <AltitudeMeters>611.79998779296875</AltitudeMeters>
            <DistanceMeters>NAN</DistanceMeters>
          </Trackpoint>
          <Trackpoint>
            <Time>2021-08-09T11:43:08.000Z</Time>
            <Position>
              <LatitudeDegrees>43.02600480616092681884765625</LatitudeDegrees>
              <LongitudeDegrees>-1.75885076634585857391357421875</LongitudeDegrees>
            </Position>
            <AltitudeMeters>611.79998779296875</AltitudeMeters>
            <DistanceMeters>NAN</DistanceMeters>
          </Trackpoint>
          <Trackpoint>
            <Time>2021-08-09T11:43:09.000Z</Time>
            <Position>
              <LatitudeDegrees>43.0260388366878032684326171875</LatitudeDegrees>
              <LongitudeDegrees>-1.7588426358997821807861328125</LongitudeDegrees>
            </Position>
            <AltitudeMeters>612</AltitudeMeters>
            <DistanceMeters>NAN</DistanceMeters>
          </Trackpoint>
          <Trackpoint>
            <Time>2021-08-09T11:43:10.000Z</Time>
            <Position>
              <LatitudeDegrees>43.02607194520533084869384765625</LatitudeDegrees>
              <LongitudeDegrees>-1.758830733597278594970703125</LongitudeDegrees>
            </Position>
            <AltitudeMeters>612.20001220703125</AltitudeMeters>
            <DistanceMeters>NAN</DistanceMeters>
          </Trackpoint>
          <Trackpoint>
            <Time>2021-08-09T11:43:11.000Z</Time>
            <Position>
              <LatitudeDegrees>43.02610446698963642120361328125</LatitudeDegrees>
              <LongitudeDegrees>-1.75881774164736270904541015625</LongitudeDegrees>
            </Position>
            <AltitudeMeters>612.20001220703125</AltitudeMeters>
            <DistanceMeters>NAN</DistanceMeters>
          </Trackpoint>
          <Trackpoint>
            <Time>2021-08-09T11:43:12.000Z</Time>
            <Position>
              <LatitudeDegrees>43.0261370725929737091064453125</LatitudeDegrees>
              <LongitudeDegrees>-1.75880332477390766143798828125</LongitudeDegrees>
            </Position>
            <AltitudeMeters>612.4000244140625</AltitudeMeters>
            <DistanceMeters>NAN</DistanceMeters>
          </Trackpoint>
          <Trackpoint>
            <Time>2021-08-09T11:43:13.000Z</Time>
            <Position>
              <LatitudeDegrees>43.02616984583437442779541015625</LatitudeDegrees>
              <LongitudeDegrees>-1.75878672860562801361083984375</LongitudeDegrees>
            </Position>
            <AltitudeMeters>612.4000244140625</AltitudeMeters>
            <DistanceMeters>NAN</DistanceMeters>
          </Trackpoint>
          <Trackpoint>
            <Time>2021-08-09T11:43:14.000Z</Time>
            <Position>
              <LatitudeDegrees>43.02619985304772853851318359375</LatitudeDegrees>
              <LongitudeDegrees>-1.75876627676188945770263671875</LongitudeDegrees>
            </Position>
            <AltitudeMeters>612.5999755859375</AltitudeMeters>
            <DistanceMeters>NAN</DistanceMeters>
          </Trackpoint>
          <Trackpoint>
            <Time>2021-08-09T11:43:15.000Z</Time>
            <Position>
              <LatitudeDegrees>43.02622751332819461822509765625</LatitudeDegrees>
              <LongitudeDegrees>-1.758743226528167724609375</LongitudeDegrees>
            </Position>
            <AltitudeMeters>612.5999755859375</AltitudeMeters>
            <DistanceMeters>NAN</DistanceMeters>
          </Trackpoint>
          <Trackpoint>
            <Time>2021-08-09T11:43:16.000Z</Time>
            <Position>
              <LatitudeDegrees>43.02625567652285099029541015625</LatitudeDegrees>
              <LongitudeDegrees>-1.7587175779044628143310546875</LongitudeDegrees>
            </Position>
            <AltitudeMeters>612.5999755859375</AltitudeMeters>
            <DistanceMeters>NAN</DistanceMeters>
          </Trackpoint>
          <Trackpoint>
            <Time>2021-08-09T11:43:17.000Z</Time>
            <Position>
              <LatitudeDegrees>43.02628098987042903900146484375</LatitudeDegrees>
              <LongitudeDegrees>-1.75869335420429706573486328125</LongitudeDegrees>
            </Position>
            <AltitudeMeters>612.79998779296875</AltitudeMeters>
            <DistanceMeters>NAN</DistanceMeters>
          </Trackpoint>
          <Trackpoint>
            <Time>2021-08-09T11:43:18.000Z</Time>
            <Position>
              <LatitudeDegrees>43.02630722522735595703125</LatitudeDegrees>
              <LongitudeDegrees>-1.7586694657802581787109375</LongitudeDegrees>
            </Position>
            <AltitudeMeters>612.79998779296875</AltitudeMeters>
            <DistanceMeters>NAN</DistanceMeters>
          </Trackpoint>
          <Trackpoint>
            <Time>2021-08-09T11:43:19.000Z</Time>
            <Position>
              <LatitudeDegrees>43.0263335444033145904541015625</LatitudeDegrees>
              <LongitudeDegrees>-1.75864641554653644561767578125</LongitudeDegrees>
            </Position>
            <AltitudeMeters>613</AltitudeMeters>
            <DistanceMeters>NAN</DistanceMeters>
          </Trackpoint>
          <Trackpoint>
            <Time>2021-08-09T11:43:20.000Z</Time>
            <Position>
              <LatitudeDegrees>43.0263576842844486236572265625</LatitudeDegrees>
              <LongitudeDegrees>-1.758625209331512451171875</LongitudeDegrees>
            </Position>
            <AltitudeMeters>613</AltitudeMeters>
            <DistanceMeters>NAN</DistanceMeters>
          </Trackpoint>
          <Trackpoint>
            <Time>2021-08-09T11:43:21.000Z</Time>
            <Position>
              <LatitudeDegrees>43.0263821594417095184326171875</LatitudeDegrees>
              <LongitudeDegrees>-1.75859696231782436370849609375</LongitudeDegrees>
            </Position>
            <AltitudeMeters>613</AltitudeMeters>
            <DistanceMeters>NAN</DistanceMeters>
          </Trackpoint>
          <Trackpoint>
            <Time>2021-08-09T11:43:22.000Z</Time>
            <Position>
              <LatitudeDegrees>43.02640956826508045196533203125</LatitudeDegrees>
              <LongitudeDegrees>-1.75856729038059711456298828125</LongitudeDegrees>
            </Position>
            <AltitudeMeters>613</AltitudeMeters>
            <DistanceMeters>NAN</DistanceMeters>
          </Trackpoint>
          <Trackpoint>
            <Time>2021-08-09T11:43:23.000Z</Time>
            <Position>
              <LatitudeDegrees>43.0264373123645782470703125</LatitudeDegrees>
              <LongitudeDegrees>-1.75853895954787731170654296875</LongitudeDegrees>
            </Position>
            <AltitudeMeters>613.20001220703125</AltitudeMeters>
            <DistanceMeters>NAN</DistanceMeters>
          </Trackpoint>
          <Trackpoint>
            <Time>2021-08-09T11:43:24.000Z</Time>
            <Position>
              <LatitudeDegrees>43.02646438591182231903076171875</LatitudeDegrees>
              <LongitudeDegrees>-1.75851029343903064727783203125</LongitudeDegrees>
            </Position>
            <AltitudeMeters>613.20001220703125</AltitudeMeters>
            <DistanceMeters>NAN</DistanceMeters>
          </Trackpoint>
          <Trackpoint>
            <Time>2021-08-09T11:43:25.000Z</Time>
            <Position>
              <LatitudeDegrees>43.0264909565448760986328125</LatitudeDegrees>
              <LongitudeDegrees>-1.75847626291215419769287109375</LongitudeDegrees>
            </Position>
            <AltitudeMeters>613.20001220703125</AltitudeMeters>
            <DistanceMeters>NAN</DistanceMeters>
          </Trackpoint>
          <Trackpoint>
            <Time>2021-08-09T11:43:26.000Z</Time>
            <Position>
              <LatitudeDegrees>43.02651819773018360137939453125</LatitudeDegrees>
              <LongitudeDegrees>-1.75844139419496059417724609375</LongitudeDegrees>
            </Position>
            <AltitudeMeters>613.4000244140625</AltitudeMeters>
            <DistanceMeters>NAN</DistanceMeters>
          </Trackpoint>
          <Trackpoint>
            <Time>2021-08-09T11:43:27.000Z</Time>
            <Position>
              <LatitudeDegrees>43.0265434272587299346923828125</LatitudeDegrees>
              <LongitudeDegrees>-1.75841373391449451446533203125</LongitudeDegrees>
            </Position>
            <AltitudeMeters>613.20001220703125</AltitudeMeters>
            <DistanceMeters>NAN</DistanceMeters>
          </Trackpoint>
          <Trackpoint>
            <Time>2021-08-09T11:43:28.000Z</Time>
            <Position>
              <LatitudeDegrees>43.02656781859695911407470703125</LatitudeDegrees>
              <LongitudeDegrees>-1.7583823017776012420654296875</LongitudeDegrees>
            </Position>
            <AltitudeMeters>613.4000244140625</AltitudeMeters>
            <DistanceMeters>NAN</DistanceMeters>
          </Trackpoint>
          <Trackpoint>
            <Time>2021-08-09T11:43:29.000Z</Time>
            <Position>
              <LatitudeDegrees>43.0265937186777591705322265625</LatitudeDegrees>
              <LongitudeDegrees>-1.75834701396524906158447265625</LongitudeDegrees>
            </Position>
            <AltitudeMeters>613.5999755859375</AltitudeMeters>
            <DistanceMeters>NAN</DistanceMeters>
          </Trackpoint>
          <Trackpoint>
            <Time>2021-08-09T11:43:30.000Z</Time>
            <Position>
              <LatitudeDegrees>43.026621043682098388671875</LatitudeDegrees>
              <LongitudeDegrees>-1.75830393098294734954833984375</LongitudeDegrees>
            </Position>
            <AltitudeMeters>613.5999755859375</AltitudeMeters>
            <DistanceMeters>NAN</DistanceMeters>
          </Trackpoint>
          <Trackpoint>
            <Time>2021-08-09T11:43:31.000Z</Time>
            <Position>
              <LatitudeDegrees>43.02664853632450103759765625</LatitudeDegrees>
              <LongitudeDegrees>-1.7582602612674236297607421875</LongitudeDegrees>
            </Position>
            <AltitudeMeters>613.5999755859375</AltitudeMeters>
            <DistanceMeters>NAN</DistanceMeters>
          </Trackpoint>
          <Trackpoint>
            <Time>2021-08-09T11:43:36.000Z</Time>
            <Position>
              <LatitudeDegrees>43.02678398787975311279296875</LatitudeDegrees>
              <LongitudeDegrees>-1.75807627849280834197998046875</LongitudeDegrees>
            </Position>
            <AltitudeMeters>614</AltitudeMeters>
            <DistanceMeters>NAN</DistanceMeters>
          </Trackpoint>
          <Trackpoint>
            <Time>2021-08-09T11:43:37.000Z</Time>
            <Position>
              <LatitudeDegrees>43.0268096365034580230712890625</LatitudeDegrees>
              <LongitudeDegrees>-1.75804275088012218475341796875</LongitudeDegrees>
            </Position>
            <AltitudeMeters>614</AltitudeMeters>
            <DistanceMeters>NAN</DistanceMeters>
          </Trackpoint>
          <Trackpoint>
            <Time>2021-08-09T11:43:39.000Z</Time>
            <Position>
              <LatitudeDegrees>43.02686084993183612823486328125</LatitudeDegrees>
              <LongitudeDegrees>-1.75798080861568450927734375</LongitudeDegrees>
            </Position>
            <AltitudeMeters>614.20001220703125</AltitudeMeters>
            <DistanceMeters>NAN</DistanceMeters>
          </Trackpoint>
          <Trackpoint>
            <Time>2021-08-09T11:43:46.000Z</Time>
            <Position>
              <LatitudeDegrees>43.0270647816359996795654296875</LatitudeDegrees>
              <LongitudeDegrees>-1.75778391771018505096435546875</LongitudeDegrees>
            </Position>
            <AltitudeMeters>615</AltitudeMeters>
            <DistanceMeters>NAN</DistanceMeters>
          </Trackpoint>
          <Trackpoint>
            <Time>2021-08-09T11:43:48.000Z</Time>
            <Position>
              <LatitudeDegrees>43.02712186239659786224365234375</LatitudeDegrees>
              <LongitudeDegrees>-1.7577373981475830078125</LongitudeDegrees>
            </Position>
            <AltitudeMeters>615.20001220703125</AltitudeMeters>
            <DistanceMeters>NAN</DistanceMeters>
          </Trackpoint>
          <Trackpoint>
            <Time>2021-08-09T11:43:52.000Z</Time>
            <Position>
              <LatitudeDegrees>43.02723459899425506591796875</LatitudeDegrees>
              <LongitudeDegrees>-1.75767176784574985504150390625</LongitudeDegrees>
            </Position>
            <AltitudeMeters>615.79998779296875</AltitudeMeters>
            <DistanceMeters>NAN</DistanceMeters>
          </Trackpoint>
          <Trackpoint>
            <Time>2021-08-09T11:43:53.000Z</Time>
            <Position>
              <LatitudeDegrees>43.02726049907505512237548828125</LatitudeDegrees>
              <LongitudeDegrees>-1.757653914391994476318359375</LongitudeDegrees>
            </Position>
            <AltitudeMeters>616</AltitudeMeters>
            <DistanceMeters>NAN</DistanceMeters>
          </Trackpoint>
          <Trackpoint>
            <Time>2021-08-09T11:43:54.000Z</Time>
            <Position>
              <LatitudeDegrees>43.02728296257555484771728515625</LatitudeDegrees>
              <LongitudeDegrees>-1.75764041952788829803466796875</LongitudeDegrees>
            </Position>
            <AltitudeMeters>616</AltitudeMeters>
            <DistanceMeters>NAN</DistanceMeters>
          </Trackpoint>
          <Trackpoint>
            <Time>2021-08-09T11:43:55.000Z</Time>
            <Position>
              <LatitudeDegrees>43.02732135169208049774169921875</LatitudeDegrees>
              <LongitudeDegrees>-1.7576249130070209503173828125</LongitudeDegrees>
            </Position>
            <AltitudeMeters>616.20001220703125</AltitudeMeters>
            <DistanceMeters>NAN</DistanceMeters>
          </Trackpoint>
          <Trackpoint>
            <Time>2021-08-09T11:43:56.000Z</Time>
            <Position>
              <LatitudeDegrees>43.027356304228305816650390625</LatitudeDegrees>
              <LongitudeDegrees>-1.75761527381837368011474609375</LongitudeDegrees>
            </Position>
            <AltitudeMeters>616.4000244140625</AltitudeMeters>
            <DistanceMeters>NAN</DistanceMeters>
          </Trackpoint>
          <Trackpoint>
            <Time>2021-08-09T11:43:57.000Z</Time>
            <Position>
              <LatitudeDegrees>43.02738790400326251983642578125</LatitudeDegrees>
              <LongitudeDegrees>-1.7576175369322299957275390625</LongitudeDegrees>
            </Position>
            <AltitudeMeters>616.5999755859375</AltitudeMeters>
            <DistanceMeters>NAN</DistanceMeters>
          </Trackpoint>
          <Trackpoint>
            <Time>2021-08-09T11:43:58.000Z</Time>
            <Position>
              <LatitudeDegrees>43.02742344327270984649658203125</LatitudeDegrees>
              <LongitudeDegrees>-1.75761611200869083404541015625</LongitudeDegrees>
            </Position>
            <AltitudeMeters>616.5999755859375</AltitudeMeters>
            <DistanceMeters>NAN</DistanceMeters>
          </Trackpoint>
          <Trackpoint>
            <Time>2021-08-09T11:43:59.000Z</Time>
            <Position>
              <LatitudeDegrees>43.02744993008673191070556640625</LatitudeDegrees>
              <LongitudeDegrees>-1.75760798156261444091796875</LongitudeDegrees>
            </Position>
            <AltitudeMeters>616.79998779296875</AltitudeMeters>
            <DistanceMeters>NAN</DistanceMeters>
          </Trackpoint>
          <Trackpoint>
            <Time>2021-08-09T11:44:00.000Z</Time>
            <Position>
              <LatitudeDegrees>43.02748798392713069915771484375</LatitudeDegrees>
              <LongitudeDegrees>-1.75760488025844097137451171875</LongitudeDegrees>
            </Position>
            <AltitudeMeters>617</AltitudeMeters>
            <DistanceMeters>NAN</DistanceMeters>
          </Trackpoint>
          <Trackpoint>
            <Time>2021-08-09T11:44:01.000Z</Time>
            <Position>
              <LatitudeDegrees>43.027523271739482879638671875</LatitudeDegrees>
              <LongitudeDegrees>-1.75760622136294841766357421875</LongitudeDegrees>
            </Position>
            <AltitudeMeters>617</AltitudeMeters>
            <DistanceMeters>NAN</DistanceMeters>
          </Trackpoint>
          <Trackpoint>
            <Time>2021-08-09T11:44:02.000Z</Time>
            <Position>
              <LatitudeDegrees>43.0275546200573444366455078125</LatitudeDegrees>
              <LongitudeDegrees>-1.757606305181980133056640625</LongitudeDegrees>
            </Position>
            <AltitudeMeters>617.20001220703125</AltitudeMeters>
            <DistanceMeters>NAN</DistanceMeters>
          </Trackpoint>
          <Trackpoint>
            <Time>2021-08-09T11:44:03.000Z</Time>
            <Position>
              <LatitudeDegrees>43.02758722566068172454833984375</LatitudeDegrees>
              <LongitudeDegrees>-1.75761242397129535675048828125</LongitudeDegrees>
            </Position>
            <AltitudeMeters>617.4000244140625</AltitudeMeters>
            <DistanceMeters>NAN</DistanceMeters>
          </Trackpoint>
          <Trackpoint>
            <Time>2021-08-09T11:44:04.000Z</Time>
            <Position>
              <LatitudeDegrees>43.02762025035917758941650390625</LatitudeDegrees>
              <LongitudeDegrees>-1.75761594437062740325927734375</LongitudeDegrees>
            </Position>
            <AltitudeMeters>617.5999755859375</AltitudeMeters>
            <DistanceMeters>NAN</DistanceMeters>
          </Trackpoint>
          <Trackpoint>
            <Time>2021-08-09T11:44:05.000Z</Time>
            <Position>
              <LatitudeDegrees>43.02765361033380031585693359375</LatitudeDegrees>
              <LongitudeDegrees>-1.75761778838932514190673828125</LongitudeDegrees>
            </Position>
            <AltitudeMeters>617.79998779296875</AltitudeMeters>
            <DistanceMeters>NAN</DistanceMeters>
          </Trackpoint>
          <Trackpoint>
            <Time>2021-08-09T11:44:06.000Z</Time>
            <Position>
              <LatitudeDegrees>43.02768378518521785736083984375</LatitudeDegrees>
              <LongitudeDegrees>-1.757617704570293426513671875</LongitudeDegrees>
            </Position>
            <AltitudeMeters>618</AltitudeMeters>
            <DistanceMeters>NAN</DistanceMeters>
          </Trackpoint>
          <Trackpoint>
            <Time>2021-08-09T11:44:07.000Z</Time>
            <Position>
              <LatitudeDegrees>43.02771563641726970672607421875</LatitudeDegrees>
              <LongitudeDegrees>-1.75761812366545200347900390625</LongitudeDegrees>
            </Position>
            <AltitudeMeters>618.4000244140625</AltitudeMeters>
            <DistanceMeters>NAN</DistanceMeters>
          </Trackpoint>
          <Trackpoint>
            <Time>2021-08-09T11:44:08.000Z</Time>
            <Position>
              <LatitudeDegrees>43.02773348987102508544921875</LatitudeDegrees>
              <LongitudeDegrees>-1.7576108314096927642822265625</LongitudeDegrees>
            </Position>
            <AltitudeMeters>618.5999755859375</AltitudeMeters>
            <DistanceMeters>NAN</DistanceMeters>
          </Trackpoint>
          <Trackpoint>
            <Time>2021-08-09T11:44:09.000Z</Time>
            <Position>
              <LatitudeDegrees>43.02775804884731769561767578125</LatitudeDegrees>
              <LongitudeDegrees>-1.7575990967452526092529296875</LongitudeDegrees>
            </Position>
            <AltitudeMeters>618.5999755859375</AltitudeMeters>
            <DistanceMeters>NAN</DistanceMeters>
          </Trackpoint>
          <Trackpoint>
            <Time>2021-08-09T11:44:10.000Z</Time>
            <Position>
              <LatitudeDegrees>43.02777296863496303558349609375</LatitudeDegrees>
              <LongitudeDegrees>-1.757594235241413116455078125</LongitudeDegrees>
            </Position>
            <AltitudeMeters>618.79998779296875</AltitudeMeters>
            <DistanceMeters>NAN</DistanceMeters>
          </Trackpoint>
          <Trackpoint>
            <Time>2021-08-09T11:44:11.000Z</Time>
            <Position>
              <LatitudeDegrees>43.02779249846935272216796875</LatitudeDegrees>
              <LongitudeDegrees>-1.7575930617749691009521484375</LongitudeDegrees>
            </Position>
            <AltitudeMeters>619</AltitudeMeters>
            <DistanceMeters>NAN</DistanceMeters>
          </Trackpoint>
          <Trackpoint>
            <Time>2021-08-09T11:44:12.000Z</Time>
            <Position>
              <LatitudeDegrees>43.0278077535331249237060546875</LatitudeDegrees>
              <LongitudeDegrees>-1.7575984261929988861083984375</LongitudeDegrees>
            </Position>
            <AltitudeMeters>619</AltitudeMeters>
            <DistanceMeters>NAN</DistanceMeters>
          </Trackpoint>
          <Trackpoint>
            <Time>2021-08-09T11:44:13.000Z</Time>
            <Position>
              <LatitudeDegrees>43.02781672216951847076416015625</LatitudeDegrees>
              <LongitudeDegrees>-1.75761259160935878753662109375</LongitudeDegrees>
            </Position>
            <AltitudeMeters>619.20001220703125</AltitudeMeters>
            <DistanceMeters>NAN</DistanceMeters>
          </Trackpoint>
          <Trackpoint>
            <Time>2021-08-09T11:44:14.000Z</Time>
            <Position>
              <LatitudeDegrees>43.02782066166400909423828125</LatitudeDegrees>
              <LongitudeDegrees>-1.75762080587446689605712890625</LongitudeDegrees>
            </Position>
            <AltitudeMeters>619.20001220703125</AltitudeMeters>
            <DistanceMeters>NAN</DistanceMeters>
          </Trackpoint>
          <Trackpoint>
            <Time>2021-08-09T11:44:19.000Z</Time>
            <Position>
              <LatitudeDegrees>43.02782066166400909423828125</LatitudeDegrees>
              <LongitudeDegrees>-1.75762080587446689605712890625</LongitudeDegrees>
            </Position>
            <AltitudeMeters>619.4000244140625</AltitudeMeters>
            <DistanceMeters>NAN</DistanceMeters>
          </Trackpoint>
          <Trackpoint>
            <Time>2021-08-09T11:44:30.000Z</Time>
            <Position>
              <LatitudeDegrees>43.02782066166400909423828125</LatitudeDegrees>
              <LongitudeDegrees>-1.75762080587446689605712890625</LongitudeDegrees>
            </Position>
            <AltitudeMeters>619</AltitudeMeters>
            <DistanceMeters>NAN</DistanceMeters>
          </Trackpoint>
          <Trackpoint>
            <Time>2021-08-09T11:44:58.000Z</Time>
            <Position>
              <LatitudeDegrees>43.02782066166400909423828125</LatitudeDegrees>
              <LongitudeDegrees>-1.75762080587446689605712890625</LongitudeDegrees>
            </Position>
            <AltitudeMeters>619.4000244140625</AltitudeMeters>
            <DistanceMeters>NAN</DistanceMeters>
          </Trackpoint>
          <Trackpoint>
            <Time>2021-08-09T11:45:12.000Z</Time>
            <Position>
              <LatitudeDegrees>43.02782225422561168670654296875</LatitudeDegrees>
              <LongitudeDegrees>-1.75762097351253032684326171875</LongitudeDegrees>
            </Position>
            <AltitudeMeters>619.79998779296875</AltitudeMeters>
            <DistanceMeters>NAN</DistanceMeters>
          </Trackpoint>
          <Trackpoint>
            <Time>2021-08-09T11:45:14.000Z</Time>
            <Position>
              <LatitudeDegrees>43.02786081098020076751708984375</LatitudeDegrees>
              <LongitudeDegrees>-1.7576302774250507354736328125</LongitudeDegrees>
            </Position>
            <AltitudeMeters>620</AltitudeMeters>
            <DistanceMeters>NAN</DistanceMeters>
          </Trackpoint>
          <Trackpoint>
            <Time>2021-08-09T11:45:17.000Z</Time>
            <Position>
              <LatitudeDegrees>43.02792551927268505096435546875</LatitudeDegrees>
              <LongitudeDegrees>-1.75767260603606700897216796875</LongitudeDegrees>
            </Position>
            <AltitudeMeters>620.20001220703125</AltitudeMeters>
            <DistanceMeters>NAN</DistanceMeters>
          </Trackpoint>
          <Trackpoint>
            <Time>2021-08-09T11:45:20.000Z</Time>
            <Position>
              <LatitudeDegrees>43.02800078876316547393798828125</LatitudeDegrees>
              <LongitudeDegrees>-1.75769758410751819610595703125</LongitudeDegrees>
            </Position>
            <AltitudeMeters>620.20001220703125</AltitudeMeters>
            <DistanceMeters>NAN</DistanceMeters>
          </Trackpoint>
          <Trackpoint>
            <Time>2021-08-09T11:45:21.000Z</Time>
            <Position>
              <LatitudeDegrees>43.02802694030106067657470703125</LatitudeDegrees>
              <LongitudeDegrees>-1.75771786831319332122802734375</LongitudeDegrees>
            </Position>
            <AltitudeMeters>620.4000244140625</AltitudeMeters>
            <DistanceMeters>NAN</DistanceMeters>
          </Trackpoint>
          <Trackpoint>
            <Time>2021-08-09T11:45:22.000Z</Time>
            <Position>
              <LatitudeDegrees>43.02804655395448207855224609375</LatitudeDegrees>
              <LongitudeDegrees>-1.75773329101502895355224609375</LongitudeDegrees>
            </Position>
            <AltitudeMeters>620.4000244140625</AltitudeMeters>
            <DistanceMeters>NAN</DistanceMeters>
          </Trackpoint>
          <Trackpoint>
            <Time>2021-08-09T11:45:27.000Z</Time>
            <Position>
              <LatitudeDegrees>43.02814898081123828887939453125</LatitudeDegrees>
              <LongitudeDegrees>-1.75782230682671070098876953125</LongitudeDegrees>
            </Position>
            <AltitudeMeters>621.20001220703125</AltitudeMeters>
            <DistanceMeters>NAN</DistanceMeters>
          </Trackpoint>
          <Trackpoint>
            <Time>2021-08-09T11:45:30.000Z</Time>
            <Position>
              <LatitudeDegrees>43.028205223381519317626953125</LatitudeDegrees>
              <LongitudeDegrees>-1.75788500346243381500244140625</LongitudeDegrees>
            </Position>
            <AltitudeMeters>621.4000244140625</AltitudeMeters>
            <DistanceMeters>NAN</DistanceMeters>
          </Trackpoint>
          <Trackpoint>
            <Time>2021-08-09T11:45:36.000Z</Time>
            <Position>
              <LatitudeDegrees>43.028317205607891082763671875</LatitudeDegrees>
              <LongitudeDegrees>-1.75798893906176090240478515625</LongitudeDegrees>
            </Position>
            <AltitudeMeters>622.4000244140625</AltitudeMeters>
            <DistanceMeters>NAN</DistanceMeters>
          </Trackpoint>
          <Trackpoint>
            <Time>2021-08-09T11:45:37.000Z</Time>
            <Position>
              <LatitudeDegrees>43.02833707071840763092041015625</LatitudeDegrees>
              <LongitudeDegrees>-1.75800754688680171966552734375</LongitudeDegrees>
            </Position>
            <AltitudeMeters>622.5999755859375</AltitudeMeters>
            <DistanceMeters>NAN</DistanceMeters>
          </Trackpoint>
          <Trackpoint>
            <Time>2021-08-09T11:45:38.000Z</Time>
            <Position>
              <LatitudeDegrees>43.02835802547633647918701171875</LatitudeDegrees>
              <LongitudeDegrees>-1.75802866928279399871826171875</LongitudeDegrees>
            </Position>
            <AltitudeMeters>622.5999755859375</AltitudeMeters>
            <DistanceMeters>NAN</DistanceMeters>
          </Trackpoint>
          <Trackpoint>
            <Time>2021-08-09T11:45:39.000Z</Time>
            <Position>
              <LatitudeDegrees>43.028378896415233612060546875</LatitudeDegrees>
              <LongitudeDegrees>-1.758050881326198577880859375</LongitudeDegrees>
            </Position>
            <AltitudeMeters>622.79998779296875</AltitudeMeters>
            <DistanceMeters>NAN</DistanceMeters>
          </Trackpoint>
          <Trackpoint>
            <Time>2021-08-09T11:45:40.000Z</Time>
            <Position>
              <LatitudeDegrees>43.02840060554444789886474609375</LatitudeDegrees>
              <LongitudeDegrees>-1.75807041116058826446533203125</LongitudeDegrees>
            </Position>
            <AltitudeMeters>623.20001220703125</AltitudeMeters>
            <DistanceMeters>NAN</DistanceMeters>
          </Trackpoint>
          <Trackpoint>
            <Time>2021-08-09T11:45:41.000Z</Time>
            <Position>
              <LatitudeDegrees>43.02842088975012302398681640625</LatitudeDegrees>
              <LongitudeDegrees>-1.75808968953788280487060546875</LongitudeDegrees>
            </Position>
            <AltitudeMeters>623.20001220703125</AltitudeMeters>
            <DistanceMeters>NAN</DistanceMeters>
          </Trackpoint>
          <Trackpoint>
            <Time>2021-08-09T11:45:42.000Z</Time>
            <Position>
              <LatitudeDegrees>43.02844217978417873382568359375</LatitudeDegrees>
              <LongitudeDegrees>-1.75811248831450939178466796875</LongitudeDegrees>
            </Position>
            <AltitudeMeters>623.4000244140625</AltitudeMeters>
            <DistanceMeters>NAN</DistanceMeters>
          </Trackpoint>
          <Trackpoint>
            <Time>2021-08-09T11:45:43.000Z</Time>
            <Position>
              <LatitudeDegrees>43.028462715446949005126953125</LatitudeDegrees>
              <LongitudeDegrees>-1.7581357061862945556640625</LongitudeDegrees>
            </Position>
            <AltitudeMeters>623.4000244140625</AltitudeMeters>
            <DistanceMeters>NAN</DistanceMeters>
          </Trackpoint>
          <Trackpoint>
            <Time>2021-08-09T11:45:44.000Z</Time>
            <Position>
              <LatitudeDegrees>43.0284826643764972686767578125</LatitudeDegrees>
              <LongitudeDegrees>-1.758159510791301727294921875</LongitudeDegrees>
            </Position>
            <AltitudeMeters>623.5999755859375</AltitudeMeters>
            <DistanceMeters>NAN</DistanceMeters>
          </Trackpoint>
          <Trackpoint>
            <Time>2021-08-09T11:45:45.000Z</Time>
            <Position>
              <LatitudeDegrees>43.02850269712507724761962890625</LatitudeDegrees>
              <LongitudeDegrees>-1.75818440504372119903564453125</LongitudeDegrees>
            </Position>
            <AltitudeMeters>623.5999755859375</AltitudeMeters>
            <DistanceMeters>NAN</DistanceMeters>
          </Trackpoint>
          <Trackpoint>
            <Time>2021-08-09T11:45:46.000Z</Time>
            <Position>
              <LatitudeDegrees>43.02852432243525981903076171875</LatitudeDegrees>
              <LongitudeDegrees>-1.75820871256291866302490234375</LongitudeDegrees>
            </Position>
            <AltitudeMeters>623.79998779296875</AltitudeMeters>
            <DistanceMeters>NAN</DistanceMeters>
          </Trackpoint>
          <Trackpoint>
            <Time>2021-08-09T11:45:47.000Z</Time>
            <Position>
              <LatitudeDegrees>43.02854678593575954437255859375</LatitudeDegrees>
              <LongitudeDegrees>-1.75823561847209930419921875</LongitudeDegrees>
            </Position>
            <AltitudeMeters>624</AltitudeMeters>
            <DistanceMeters>NAN</DistanceMeters>
          </Trackpoint>
          <Trackpoint>
            <Time>2021-08-09T11:45:48.000Z</Time>
            <Position>
              <LatitudeDegrees>43.02856623195111751556396484375</LatitudeDegrees>
              <LongitudeDegrees>-1.75826101563870906829833984375</LongitudeDegrees>
            </Position>
            <AltitudeMeters>624</AltitudeMeters>
            <DistanceMeters>NAN</DistanceMeters>
          </Trackpoint>
          <Trackpoint>
            <Time>2021-08-09T11:45:49.000Z</Time>
            <Position>
              <LatitudeDegrees>43.02858618088066577911376953125</LatitudeDegrees>
              <LongitudeDegrees>-1.75828414969146251678466796875</LongitudeDegrees>
            </Position>
            <AltitudeMeters>624</AltitudeMeters>
            <DistanceMeters>NAN</DistanceMeters>
          </Trackpoint>
          <Trackpoint>
            <Time>2021-08-09T11:45:50.000Z</Time>
            <Position>
              <LatitudeDegrees>43.02860680036246776580810546875</LatitudeDegrees>
              <LongitudeDegrees>-1.7583073675632476806640625</LongitudeDegrees>
            </Position>
            <AltitudeMeters>624</AltitudeMeters>
            <DistanceMeters>NAN</DistanceMeters>
          </Trackpoint>
          <Trackpoint>
            <Time>2021-08-09T11:45:51.000Z</Time>
            <Position>
              <LatitudeDegrees>43.0286278389394283294677734375</LatitudeDegrees>
              <LongitudeDegrees>-1.758333183825016021728515625</LongitudeDegrees>
            </Position>
            <AltitudeMeters>624.20001220703125</AltitudeMeters>
            <DistanceMeters>NAN</DistanceMeters>
          </Trackpoint>
          <Trackpoint>
            <Time>2021-08-09T11:45:52.000Z</Time>
            <Position>
              <LatitudeDegrees>43.02865591831505298614501953125</LatitudeDegrees>
              <LongitudeDegrees>-1.75835858099162578582763671875</LongitudeDegrees>
            </Position>
            <AltitudeMeters>624.20001220703125</AltitudeMeters>
            <DistanceMeters>NAN</DistanceMeters>
          </Trackpoint>
          <Trackpoint>
            <Time>2021-08-09T11:45:53.000Z</Time>
            <Position>
              <LatitudeDegrees>43.02867184393107891082763671875</LatitudeDegrees>
              <LongitudeDegrees>-1.75838070921599864959716796875</LongitudeDegrees>
            </Position>
            <AltitudeMeters>624.4000244140625</AltitudeMeters>
            <DistanceMeters>NAN</DistanceMeters>
          </Trackpoint>
          <Trackpoint>
            <Time>2021-08-09T11:45:54.000Z</Time>
            <Position>
              <LatitudeDegrees>43.02868978120386600494384765625</LatitudeDegrees>
              <LongitudeDegrees>-1.7584097944200038909912109375</LongitudeDegrees>
            </Position>
            <AltitudeMeters>624.4000244140625</AltitudeMeters>
            <DistanceMeters>NAN</DistanceMeters>
          </Trackpoint>
          <Trackpoint>
            <Time>2021-08-09T11:45:55.000Z</Time>
            <Position>
              <LatitudeDegrees>43.02870939485728740692138671875</LatitudeDegrees>
              <LongitudeDegrees>-1.75843854434788227081298828125</LongitudeDegrees>
            </Position>
            <AltitudeMeters>624.4000244140625</AltitudeMeters>
            <DistanceMeters>NAN</DistanceMeters>
          </Trackpoint>
          <Trackpoint>
            <Time>2021-08-09T11:45:56.000Z</Time>
            <Position>
              <LatitudeDegrees>43.02873554639518260955810546875</LatitudeDegrees>
              <LongitudeDegrees>-1.75846888683736324310302734375</LongitudeDegrees>
            </Position>
            <AltitudeMeters>624.5999755859375</AltitudeMeters>
            <DistanceMeters>NAN</DistanceMeters>
          </Trackpoint>
          <Trackpoint>
            <Time>2021-08-09T11:45:57.000Z</Time>
            <Position>
              <LatitudeDegrees>43.0287522263824939727783203125</LatitudeDegrees>
              <LongitudeDegrees>-1.75849101506173610687255859375</LongitudeDegrees>
            </Position>
            <AltitudeMeters>624.5999755859375</AltitudeMeters>
            <DistanceMeters>NAN</DistanceMeters>
          </Trackpoint>
          <Trackpoint>
            <Time>2021-08-09T11:45:58.000Z</Time>
            <Position>
              <LatitudeDegrees>43.0287713371217250823974609375</LatitudeDegrees>
              <LongitudeDegrees>-1.75851984880864620208740234375</LongitudeDegrees>
            </Position>
            <AltitudeMeters>624.79998779296875</AltitudeMeters>
            <DistanceMeters>NAN</DistanceMeters>
          </Trackpoint>
          <Trackpoint>
            <Time>2021-08-09T11:45:59.000Z</Time>
            <Position>
              <LatitudeDegrees>43.0287958122789859771728515625</LatitudeDegrees>
              <LongitudeDegrees>-1.7585526220500469207763671875</LongitudeDegrees>
            </Position>
            <AltitudeMeters>624.79998779296875</AltitudeMeters>
            <DistanceMeters>NAN</DistanceMeters>
          </Trackpoint>
          <Trackpoint>
            <Time>2021-08-09T11:46:00.000Z</Time>
            <Position>
              <LatitudeDegrees>43.02881819196045398712158203125</LatitudeDegrees>
              <LongitudeDegrees>-1.75857885740697383880615234375</LongitudeDegrees>
            </Position>
            <AltitudeMeters>625</AltitudeMeters>
            <DistanceMeters>NAN</DistanceMeters>
          </Trackpoint>
          <Trackpoint>
            <Time>2021-08-09T11:46:01.000Z</Time>
            <Position>
              <LatitudeDegrees>43.028834201395511627197265625</LatitudeDegrees>
              <LongitudeDegrees>-1.7586032487452030181884765625</LongitudeDegrees>
            </Position>
            <AltitudeMeters>625</AltitudeMeters>
            <DistanceMeters>NAN</DistanceMeters>
          </Trackpoint>
          <Trackpoint>
            <Time>2021-08-09T11:46:02.000Z</Time>
            <Position>
              <LatitudeDegrees>43.02885574288666248321533203125</LatitudeDegrees>
              <LongitudeDegrees>-1.7586310766637325286865234375</LongitudeDegrees>
            </Position>
            <AltitudeMeters>625.20001220703125</AltitudeMeters>
            <DistanceMeters>NAN</DistanceMeters>
          </Trackpoint>
          <Trackpoint>
            <Time>2021-08-09T11:46:03.000Z</Time>
            <Position>
              <LatitudeDegrees>43.02888323552906513214111328125</LatitudeDegrees>
              <LongitudeDegrees>-1.7586635984480381011962890625</LongitudeDegrees>
            </Position>
            <AltitudeMeters>625.4000244140625</AltitudeMeters>
            <DistanceMeters>NAN</DistanceMeters>
          </Trackpoint>
          <Trackpoint>
            <Time>2021-08-09T11:46:04.000Z</Time>
            <Position>
              <LatitudeDegrees>43.0289076268672943115234375</LatitudeDegrees>
              <LongitudeDegrees>-1.75868949852883815765380859375</LongitudeDegrees>
            </Position>
            <AltitudeMeters>625.4000244140625</AltitudeMeters>
            <DistanceMeters>NAN</DistanceMeters>
          </Trackpoint>
          <Trackpoint>
            <Time>2021-08-09T11:46:05.000Z</Time>
            <Position>
              <LatitudeDegrees>43.0289305932819843292236328125</LatitudeDegrees>
              <LongitudeDegrees>-1.7587152309715747833251953125</LongitudeDegrees>
            </Position>
            <AltitudeMeters>625.4000244140625</AltitudeMeters>
            <DistanceMeters>NAN</DistanceMeters>
          </Trackpoint>
          <Trackpoint>
            <Time>2021-08-09T11:46:06.000Z</Time>
            <Position>
              <LatitudeDegrees>43.0289517156779766082763671875</LatitudeDegrees>
              <LongitudeDegrees>-1.75873811356723308563232421875</LongitudeDegrees>
            </Position>
            <AltitudeMeters>625.5999755859375</AltitudeMeters>
            <DistanceMeters>NAN</DistanceMeters>
          </Trackpoint>
          <Trackpoint>
            <Time>2021-08-09T11:46:07.000Z</Time>
            <Position>
              <LatitudeDegrees>43.02897660993039608001708984375</LatitudeDegrees>
              <LongitudeDegrees>-1.7587633430957794189453125</LongitudeDegrees>
            </Position>
            <AltitudeMeters>625.5999755859375</AltitudeMeters>
            <DistanceMeters>NAN</DistanceMeters>
          </Trackpoint>
          <Trackpoint>
            <Time>2021-08-09T11:46:08.000Z</Time>
            <Position>
              <LatitudeDegrees>43.02900175563991069793701171875</LatitudeDegrees>
              <LongitudeDegrees>-1.75878404639661312103271484375</LongitudeDegrees>
            </Position>
            <AltitudeMeters>625.5999755859375</AltitudeMeters>
            <DistanceMeters>NAN</DistanceMeters>
          </Trackpoint>
          <Trackpoint>
            <Time>2021-08-09T11:46:09.000Z</Time>
            <Position>
              <LatitudeDegrees>43.02903310395777225494384765625</LatitudeDegrees>
              <LongitudeDegrees>-1.758809275925159454345703125</LongitudeDegrees>
            </Position>
            <AltitudeMeters>625.79998779296875</AltitudeMeters>
            <DistanceMeters>NAN</DistanceMeters>
          </Trackpoint>
          <Trackpoint>
            <Time>2021-08-09T11:46:10.000Z</Time>
            <Position>
              <LatitudeDegrees>43.02905506454408168792724609375</LatitudeDegrees>
              <LongitudeDegrees>-1.7588265426456928253173828125</LongitudeDegrees>
            </Position>
            <AltitudeMeters>626</AltitudeMeters>
            <DistanceMeters>NAN</DistanceMeters>
          </Trackpoint>
          <Trackpoint>
            <Time>2021-08-09T11:46:11.000Z</Time>
            <Position>
              <LatitudeDegrees>43.02908339537680149078369140625</LatitudeDegrees>
              <LongitudeDegrees>-1.75884422846138477325439453125</LongitudeDegrees>
            </Position>
            <AltitudeMeters>626.20001220703125</AltitudeMeters>
            <DistanceMeters>NAN</DistanceMeters>
          </Trackpoint>
          <Trackpoint>
            <Time>2021-08-09T11:46:12.000Z</Time>
            <Position>
              <LatitudeDegrees>43.029111810028553009033203125</LatitudeDegrees>
              <LongitudeDegrees>-1.75885613076388835906982421875</LongitudeDegrees>
            </Position>
            <AltitudeMeters>626.4000244140625</AltitudeMeters>
            <DistanceMeters>NAN</DistanceMeters>
          </Trackpoint>
          <Trackpoint>
            <Time>2021-08-09T11:46:13.000Z</Time>
            <Position>
              <LatitudeDegrees>43.02914726547896862030029296875</LatitudeDegrees>
              <LongitudeDegrees>-1.75886568613350391387939453125</LongitudeDegrees>
            </Position>
            <AltitudeMeters>626.4000244140625</AltitudeMeters>
            <DistanceMeters>NAN</DistanceMeters>
          </Trackpoint>
          <Trackpoint>
            <Time>2021-08-09T11:46:14.000Z</Time>
            <Position>
              <LatitudeDegrees>43.0291743390262126922607421875</LatitudeDegrees>
              <LongitudeDegrees>-1.75887239165604114532470703125</LongitudeDegrees>
            </Position>
            <AltitudeMeters>626.5999755859375</AltitudeMeters>
            <DistanceMeters>NAN</DistanceMeters>
          </Trackpoint>
          <Trackpoint>
            <Time>2021-08-09T11:46:15.000Z</Time>
            <Position>
              <LatitudeDegrees>43.02919772453606128692626953125</LatitudeDegrees>
              <LongitudeDegrees>-1.75888429395854473114013671875</LongitudeDegrees>
            </Position>
            <AltitudeMeters>626.5999755859375</AltitudeMeters>
            <DistanceMeters>NAN</DistanceMeters>
          </Trackpoint>
          <Trackpoint>
            <Time>2021-08-09T11:46:16.000Z</Time>
            <Position>
              <LatitudeDegrees>43.02922454662621021270751953125</LatitudeDegrees>
              <LongitudeDegrees>-1.75889586098492145538330078125</LongitudeDegrees>
            </Position>
            <AltitudeMeters>626.79998779296875</AltitudeMeters>
            <DistanceMeters>NAN</DistanceMeters>
          </Trackpoint>
          <Trackpoint>
            <Time>2021-08-09T11:46:17.000Z</Time>
            <Position>
              <LatitudeDegrees>43.02925136871635913848876953125</LatitudeDegrees>
              <LongitudeDegrees>-1.7589028179645538330078125</LongitudeDegrees>
            </Position>
            <AltitudeMeters>626.79998779296875</AltitudeMeters>
            <DistanceMeters>NAN</DistanceMeters>
          </Trackpoint>
          <Trackpoint>
            <Time>2021-08-09T11:46:18.000Z</Time>
            <Position>
              <LatitudeDegrees>43.029293529689311981201171875</LatitudeDegrees>
              <LongitudeDegrees>-1.758915893733501434326171875</LongitudeDegrees>
            </Position>
            <AltitudeMeters>626.79998779296875</AltitudeMeters>
            <DistanceMeters>NAN</DistanceMeters>
          </Trackpoint>
          <Trackpoint>
            <Time>2021-08-09T11:46:19.000Z</Time>
            <Position>
              <LatitudeDegrees>43.02933275699615478515625</LatitudeDegrees>
              <LongitudeDegrees>-1.7589244432747364044189453125</LongitudeDegrees>
            </Position>
            <AltitudeMeters>626.79998779296875</AltitudeMeters>
            <DistanceMeters>NAN</DistanceMeters>
          </Trackpoint>
          <Trackpoint>
            <Time>2021-08-09T11:46:20.000Z</Time>
            <Position>
              <LatitudeDegrees>43.029373325407505035400390625</LatitudeDegrees>
              <LongitudeDegrees>-1.75893290899693965911865234375</LongitudeDegrees>
            </Position>
            <AltitudeMeters>626.79998779296875</AltitudeMeters>
            <DistanceMeters>NAN</DistanceMeters>
          </Trackpoint>
          <Trackpoint>
            <Time>2021-08-09T11:46:21.000Z</Time>
            <Position>
              <LatitudeDegrees>43.02941297180950641632080078125</LatitudeDegrees>
              <LongitudeDegrees>-1.758940033614635467529296875</LongitudeDegrees>
            </Position>
            <AltitudeMeters>627</AltitudeMeters>
            <DistanceMeters>NAN</DistanceMeters>
          </Trackpoint>
          <Trackpoint>
            <Time>2021-08-09T11:46:22.000Z</Time>
            <Position>
              <LatitudeDegrees>43.0294559709727764129638671875</LatitudeDegrees>
              <LongitudeDegrees>-1.75894782878458499908447265625</LongitudeDegrees>
            </Position>
            <AltitudeMeters>627</AltitudeMeters>
            <DistanceMeters>NAN</DistanceMeters>
          </Trackpoint>
          <Trackpoint>
            <Time>2021-08-09T11:46:23.000Z</Time>
            <Position>
              <LatitudeDegrees>43.02949125878512859344482421875</LatitudeDegrees>
              <LongitudeDegrees>-1.758954115211963653564453125</LongitudeDegrees>
            </Position>
            <AltitudeMeters>626.79998779296875</AltitudeMeters>
            <DistanceMeters>NAN</DistanceMeters>
          </Trackpoint>
          <Trackpoint>
            <Time>2021-08-09T11:46:24.000Z</Time>
            <Position>
              <LatitudeDegrees>43.029532916843891143798828125</LatitudeDegrees>
              <LongitudeDegrees>-1.75896442495286464691162109375</LongitudeDegrees>
            </Position>
            <AltitudeMeters>627</AltitudeMeters>
            <DistanceMeters>NAN</DistanceMeters>
          </Trackpoint>
          <Trackpoint>
            <Time>2021-08-09T11:46:25.000Z</Time>
            <Position>
              <LatitudeDegrees>43.0295726470649242401123046875</LatitudeDegrees>
              <LongitudeDegrees>-1.758972220122814178466796875</LongitudeDegrees>
            </Position>
            <AltitudeMeters>626.79998779296875</AltitudeMeters>
            <DistanceMeters>NAN</DistanceMeters>
          </Trackpoint>
          <Trackpoint>
            <Time>2021-08-09T11:46:26.000Z</Time>
            <Position>
              <LatitudeDegrees>43.02961195819079875946044921875</LatitudeDegrees>
              <LongitudeDegrees>-1.75897833891212940216064453125</LongitudeDegrees>
            </Position>
            <AltitudeMeters>626.79998779296875</AltitudeMeters>
            <DistanceMeters>NAN</DistanceMeters>
          </Trackpoint>
          <Trackpoint>
            <Time>2021-08-09T11:46:29.000Z</Time>
            <Position>
              <LatitudeDegrees>43.02971698343753814697265625</LatitudeDegrees>
              <LongitudeDegrees>-1.7589844577014446258544921875</LongitudeDegrees>
            </Position>
            <AltitudeMeters>626.79998779296875</AltitudeMeters>
            <DistanceMeters>NAN</DistanceMeters>
          </Trackpoint>
          <Trackpoint>
            <Time>2021-08-09T11:46:30.000Z</Time>
            <Position>
              <LatitudeDegrees>43.02975528873503208160400390625</LatitudeDegrees>
              <LongitudeDegrees>-1.75897900946438312530517578125</LongitudeDegrees>
            </Position>
            <AltitudeMeters>626.79998779296875</AltitudeMeters>
            <DistanceMeters>NAN</DistanceMeters>
          </Trackpoint>
          <Trackpoint>
            <Time>2021-08-09T11:46:31.000Z</Time>
            <Position>
              <LatitudeDegrees>43.0297932587563991546630859375</LatitudeDegrees>
              <LongitudeDegrees>-1.75897062756121158599853515625</LongitudeDegrees>
            </Position>
            <AltitudeMeters>626.79998779296875</AltitudeMeters>
            <DistanceMeters>NAN</DistanceMeters>
          </Trackpoint>
          <Trackpoint>
            <Time>2021-08-09T11:46:32.000Z</Time>
            <Position>
              <LatitudeDegrees>43.0298287980258464813232421875</LatitudeDegrees>
              <LongitudeDegrees>-1.758958809077739715576171875</LongitudeDegrees>
            </Position>
            <AltitudeMeters>626.79998779296875</AltitudeMeters>
            <DistanceMeters>NAN</DistanceMeters>
          </Trackpoint>
          <Trackpoint>
            <Time>2021-08-09T11:46:33.000Z</Time>
            <Position>
              <LatitudeDegrees>43.02986308000981807708740234375</LatitudeDegrees>
              <LongitudeDegrees>-1.75894145853817462921142578125</LongitudeDegrees>
            </Position>
            <AltitudeMeters>626.79998779296875</AltitudeMeters>
            <DistanceMeters>NAN</DistanceMeters>
          </Trackpoint>
          <Trackpoint>
            <Time>2021-08-09T11:46:34.000Z</Time>
            <Position>
              <LatitudeDegrees>43.0298978649079799652099609375</LatitudeDegrees>
              <LongitudeDegrees>-1.7589257843792438507080078125</LongitudeDegrees>
            </Position>
            <AltitudeMeters>626.79998779296875</AltitudeMeters>
            <DistanceMeters>NAN</DistanceMeters>
          </Trackpoint>
          <Trackpoint>
            <Time>2021-08-09T11:46:35.000Z</Time>
            <Position>
              <LatitudeDegrees>43.02993281744420528411865234375</LatitudeDegrees>
              <LongitudeDegrees>-1.75890675745904445648193359375</LongitudeDegrees>
            </Position>
            <AltitudeMeters>626.79998779296875</AltitudeMeters>
            <DistanceMeters>NAN</DistanceMeters>
          </Trackpoint>
          <Trackpoint>
            <Time>2021-08-09T11:46:36.000Z</Time>
            <Position>
              <LatitudeDegrees>43.02996651269495487213134765625</LatitudeDegrees>
              <LongitudeDegrees>-1.758885718882083892822265625</LongitudeDegrees>
            </Position>
            <AltitudeMeters>626.79998779296875</AltitudeMeters>
            <DistanceMeters>NAN</DistanceMeters>
          </Trackpoint>
          <Trackpoint>
            <Time>2021-08-09T11:46:37.000Z</Time>
            <Position>
              <LatitudeDegrees>43.02999853156507015228271484375</LatitudeDegrees>
              <LongitudeDegrees>-1.758862920105457305908203125</LongitudeDegrees>
            </Position>
            <AltitudeMeters>627</AltitudeMeters>
            <DistanceMeters>NAN</DistanceMeters>
          </Trackpoint>
          <Trackpoint>
            <Time>2021-08-09T11:46:38.000Z</Time>
            <Position>
              <LatitudeDegrees>43.0300299637019634246826171875</LatitudeDegrees>
              <LongitudeDegrees>-1.75883886404335498809814453125</LongitudeDegrees>
            </Position>
            <AltitudeMeters>627</AltitudeMeters>
            <DistanceMeters>NAN</DistanceMeters>
          </Trackpoint>
          <Trackpoint>
            <Time>2021-08-09T11:46:40.000Z</Time>
            <Position>
              <LatitudeDegrees>43.03009383380413055419921875</LatitudeDegrees>
              <LongitudeDegrees>-1.75879511050879955291748046875</LongitudeDegrees>
            </Position>
            <AltitudeMeters>627.4000244140625</AltitudeMeters>
            <DistanceMeters>NAN</DistanceMeters>
          </Trackpoint>
          <Trackpoint>
            <Time>2021-08-09T11:46:42.000Z</Time>
            <Position>
              <LatitudeDegrees>43.03015979938209056854248046875</LatitudeDegrees>
              <LongitudeDegrees>-1.75874632783234119415283203125</LongitudeDegrees>
            </Position>
            <AltitudeMeters>627.5999755859375</AltitudeMeters>
            <DistanceMeters>NAN</DistanceMeters>
          </Trackpoint>
          <Trackpoint>
            <Time>2021-08-09T11:46:45.000Z</Time>
            <Position>
              <LatitudeDegrees>43.03025317378342151641845703125</LatitudeDegrees>
              <LongitudeDegrees>-1.7586803622543811798095703125</LongitudeDegrees>
            </Position>
            <AltitudeMeters>628</AltitudeMeters>
            <DistanceMeters>NAN</DistanceMeters>
          </Trackpoint>
          <Trackpoint>
            <Time>2021-08-09T11:46:47.000Z</Time>
            <Position>
              <LatitudeDegrees>43.030314780771732330322265625</LatitudeDegrees>
              <LongitudeDegrees>-1.75863618962466716766357421875</LongitudeDegrees>
            </Position>
            <AltitudeMeters>628.20001220703125</AltitudeMeters>
            <DistanceMeters>NAN</DistanceMeters>
          </Trackpoint>
          <Trackpoint>
            <Time>2021-08-09T11:46:48.000Z</Time>
            <Position>
              <LatitudeDegrees>43.03034520708024501800537109375</LatitudeDegrees>
              <LongitudeDegrees>-1.7586153186857700347900390625</LongitudeDegrees>
            </Position>
            <AltitudeMeters>628.20001220703125</AltitudeMeters>
            <DistanceMeters>NAN</DistanceMeters>
          </Trackpoint>
          <Trackpoint>
            <Time>2021-08-09T11:46:51.000Z</Time>
            <Position>
              <LatitudeDegrees>43.03044159896671772003173828125</LatitudeDegrees>
              <LongitudeDegrees>-1.758557818830013275146484375</LongitudeDegrees>
            </Position>
            <AltitudeMeters>628.5999755859375</AltitudeMeters>
            <DistanceMeters>NAN</DistanceMeters>
          </Trackpoint>
          <Trackpoint>
            <Time>2021-08-09T11:46:52.000Z</Time>
            <Position>
              <LatitudeDegrees>43.03047395311295986175537109375</LatitudeDegrees>
              <LongitudeDegrees>-1.7585388757288455963134765625</LongitudeDegrees>
            </Position>
            <AltitudeMeters>628.79998779296875</AltitudeMeters>
            <DistanceMeters>NAN</DistanceMeters>
          </Trackpoint>
          <Trackpoint>
            <Time>2021-08-09T11:46:59.000Z</Time>
            <Position>
              <LatitudeDegrees>43.03071401081979274749755859375</LatitudeDegrees>
              <LongitudeDegrees>-1.75843385048210620880126953125</LongitudeDegrees>
            </Position>
            <AltitudeMeters>629.5999755859375</AltitudeMeters>
            <DistanceMeters>NAN</DistanceMeters>
          </Trackpoint>
          <Trackpoint>
            <Time>2021-08-09T11:47:02.000Z</Time>
            <Position>
              <LatitudeDegrees>43.0308074690401554107666015625</LatitudeDegrees>
              <LongitudeDegrees>-1.75840082578361034393310546875</LongitudeDegrees>
            </Position>
            <AltitudeMeters>629.79998779296875</AltitudeMeters>
            <DistanceMeters>NAN</DistanceMeters>
          </Trackpoint>
          <Trackpoint>
            <Time>2021-08-09T11:47:03.000Z</Time>
            <Position>
              <LatitudeDegrees>43.0308423377573490142822265625</LatitudeDegrees>
              <LongitudeDegrees>-1.75838892348110675811767578125</LongitudeDegrees>
            </Position>
            <AltitudeMeters>629.79998779296875</AltitudeMeters>
            <DistanceMeters>NAN</DistanceMeters>
          </Trackpoint>
          <Trackpoint>
            <Time>2021-08-09T11:47:04.000Z</Time>
            <Position>
              <LatitudeDegrees>43.030877374112606048583984375</LatitudeDegrees>
              <LongitudeDegrees>-1.7583819665014743804931640625</LongitudeDegrees>
            </Position>
            <AltitudeMeters>629.79998779296875</AltitudeMeters>
            <DistanceMeters>NAN</DistanceMeters>
          </Trackpoint>
          <Trackpoint>
            <Time>2021-08-09T11:47:05.000Z</Time>
            <Position>
              <LatitudeDegrees>43.03092171438038349151611328125</LatitudeDegrees>
              <LongitudeDegrees>-1.75837215967476367950439453125</LongitudeDegrees>
            </Position>
            <AltitudeMeters>629.79998779296875</AltitudeMeters>
            <DistanceMeters>NAN</DistanceMeters>
          </Trackpoint>
          <Trackpoint>
            <Time>2021-08-09T11:47:06.000Z</Time>
            <Position>
              <LatitudeDegrees>43.0309583432972431182861328125</LatitudeDegrees>
              <LongitudeDegrees>-1.7583621852099895477294921875</LongitudeDegrees>
            </Position>
            <AltitudeMeters>630</AltitudeMeters>
            <DistanceMeters>NAN</DistanceMeters>
          </Trackpoint>
          <Trackpoint>
            <Time>2021-08-09T11:47:11.000Z</Time>
            <Position>
              <LatitudeDegrees>43.03112003020942211151123046875</LatitudeDegrees>
              <LongitudeDegrees>-1.7583481036126613616943359375</LongitudeDegrees>
            </Position>
            <AltitudeMeters>630</AltitudeMeters>
            <DistanceMeters>NAN</DistanceMeters>
          </Trackpoint>
          <Trackpoint>
            <Time>2021-08-09T11:47:12.000Z</Time>
            <Position>
              <LatitudeDegrees>43.03114685229957103729248046875</LatitudeDegrees>
              <LongitudeDegrees>-1.758335195481777191162109375</LongitudeDegrees>
            </Position>
            <AltitudeMeters>630</AltitudeMeters>
            <DistanceMeters>NAN</DistanceMeters>
          </Trackpoint>
          <Trackpoint>
            <Time>2021-08-09T11:47:13.000Z</Time>
            <Position>
              <LatitudeDegrees>43.03116738796234130859375</LatitudeDegrees>
              <LongitudeDegrees>-1.75832756794989109039306640625</LongitudeDegrees>
            </Position>
            <AltitudeMeters>630</AltitudeMeters>
            <DistanceMeters>NAN</DistanceMeters>
          </Trackpoint>
          <Trackpoint>
            <Time>2021-08-09T11:47:14.000Z</Time>
            <Position>
              <LatitudeDegrees>43.03120049647986888885498046875</LatitudeDegrees>
              <LongitudeDegrees>-1.75831549800932407379150390625</LongitudeDegrees>
            </Position>
            <AltitudeMeters>630</AltitudeMeters>
            <DistanceMeters>NAN</DistanceMeters>
          </Trackpoint>
          <Trackpoint>
            <Time>2021-08-09T11:47:15.000Z</Time>
            <Position>
              <LatitudeDegrees>43.031229078769683837890625</LatitudeDegrees>
              <LongitudeDegrees>-1.7583065293729305267333984375</LongitudeDegrees>
            </Position>
            <AltitudeMeters>630</AltitudeMeters>
            <DistanceMeters>NAN</DistanceMeters>
          </Trackpoint>
          <Trackpoint>
            <Time>2021-08-09T11:47:16.000Z</Time>
            <Position>
              <LatitudeDegrees>43.0312614329159259796142578125</LatitudeDegrees>
              <LongitudeDegrees>-1.758296303451061248779296875</LongitudeDegrees>
            </Position>
            <AltitudeMeters>630</AltitudeMeters>
            <DistanceMeters>NAN</DistanceMeters>
          </Trackpoint>
          <Trackpoint>
            <Time>2021-08-09T11:47:17.000Z</Time>
            <Position>
              <LatitudeDegrees>43.03128683008253574371337890625</LatitudeDegrees>
              <LongitudeDegrees>-1.75828968174755573272705078125</LongitudeDegrees>
            </Position>
            <AltitudeMeters>630</AltitudeMeters>
            <DistanceMeters>NAN</DistanceMeters>
          </Trackpoint>
          <Trackpoint>
            <Time>2021-08-09T11:47:18.000Z</Time>
            <Position>
              <LatitudeDegrees>43.03131817840039730072021484375</LatitudeDegrees>
              <LongitudeDegrees>-1.75828197039663791656494140625</LongitudeDegrees>
            </Position>
            <AltitudeMeters>630</AltitudeMeters>
            <DistanceMeters>NAN</DistanceMeters>
          </Trackpoint>
          <Trackpoint>
            <Time>2021-08-09T11:47:26.000Z</Time>
            <Position>
              <LatitudeDegrees>43.03155940957367420196533203125</LatitudeDegrees>
              <LongitudeDegrees>-1.75822480581700801849365234375</LongitudeDegrees>
            </Position>
            <AltitudeMeters>630.20001220703125</AltitudeMeters>
            <DistanceMeters>NAN</DistanceMeters>
          </Trackpoint>
          <Trackpoint>
            <Time>2021-08-09T11:47:27.000Z</Time>
            <Position>
              <LatitudeDegrees>43.03158019669353961944580078125</LatitudeDegrees>
              <LongitudeDegrees>-1.7582186870276927947998046875</LongitudeDegrees>
            </Position>
            <AltitudeMeters>630.20001220703125</AltitudeMeters>
            <DistanceMeters>NAN</DistanceMeters>
          </Trackpoint>
          <Trackpoint>
            <Time>2021-08-09T11:47:28.000Z</Time>
            <Position>
              <LatitudeDegrees>43.03160651586949825286865234375</LatitudeDegrees>
              <LongitudeDegrees>-1.75820670090615749359130859375</LongitudeDegrees>
            </Position>
            <AltitudeMeters>630.20001220703125</AltitudeMeters>
            <DistanceMeters>NAN</DistanceMeters>
          </Trackpoint>
          <Trackpoint>
            <Time>2021-08-09T11:47:29.000Z</Time>
            <Position>
              <LatitudeDegrees>43.03162428550422191619873046875</LatitudeDegrees>
              <LongitudeDegrees>-1.758203767240047454833984375</LongitudeDegrees>
            </Position>
            <AltitudeMeters>630.20001220703125</AltitudeMeters>
            <DistanceMeters>NAN</DistanceMeters>
          </Trackpoint>
          <Trackpoint>
            <Time>2021-08-09T11:47:30.000Z</Time>
            <Position>
              <LatitudeDegrees>43.0316407978534698486328125</LatitudeDegrees>
              <LongitudeDegrees>-1.75820410251617431640625</LongitudeDegrees>
            </Position>
            <AltitudeMeters>630.20001220703125</AltitudeMeters>
            <DistanceMeters>NAN</DistanceMeters>
          </Trackpoint>
          <Trackpoint>
            <Time>2021-08-09T11:47:31.000Z</Time>
            <Position>
              <LatitudeDegrees>43.031655885279178619384765625</LatitudeDegrees>
              <LongitudeDegrees>-1.75820234231650829315185546875</LongitudeDegrees>
            </Position>
            <AltitudeMeters>630.20001220703125</AltitudeMeters>
            <DistanceMeters>NAN</DistanceMeters>
          </Trackpoint>
          <Trackpoint>
            <Time>2021-08-09T11:47:32.000Z</Time>
            <Position>
              <LatitudeDegrees>43.03166803903877735137939453125</LatitudeDegrees>
              <LongitudeDegrees>-1.75820284523069858551025390625</LongitudeDegrees>
            </Position>
            <AltitudeMeters>630.20001220703125</AltitudeMeters>
            <DistanceMeters>NAN</DistanceMeters>
          </Trackpoint>
          <Trackpoint>
            <Time>2021-08-09T11:47:33.000Z</Time>
            <Position>
              <LatitudeDegrees>43.0316885747015476226806640625</LatitudeDegrees>
              <LongitudeDegrees>-1.7581978999078273773193359375</LongitudeDegrees>
            </Position>
            <AltitudeMeters>630.20001220703125</AltitudeMeters>
            <DistanceMeters>NAN</DistanceMeters>
          </Trackpoint>
          <Trackpoint>
            <Time>2021-08-09T11:47:38.000Z</Time>
            <Position>
              <LatitudeDegrees>43.03180550225079059600830078125</LatitudeDegrees>
              <LongitudeDegrees>-1.7581678926944732666015625</LongitudeDegrees>
            </Position>
            <AltitudeMeters>630.4000244140625</AltitudeMeters>
            <DistanceMeters>NAN</DistanceMeters>
          </Trackpoint>
          <Trackpoint>
            <Time>2021-08-09T11:47:43.000Z</Time>
            <Position>
              <LatitudeDegrees>43.031925447285175323486328125</LatitudeDegrees>
              <LongitudeDegrees>-1.75813528709113597869873046875</LongitudeDegrees>
            </Position>
            <AltitudeMeters>630.4000244140625</AltitudeMeters>
            <DistanceMeters>NAN</DistanceMeters>
          </Trackpoint>
          <Trackpoint>
            <Time>2021-08-09T11:47:44.000Z</Time>
            <Position>
              <LatitudeDegrees>43.0319537781178951263427734375</LatitudeDegrees>
              <LongitudeDegrees>-1.7581274919211864471435546875</LongitudeDegrees>
            </Position>
            <AltitudeMeters>630.5999755859375</AltitudeMeters>
            <DistanceMeters>NAN</DistanceMeters>
          </Trackpoint>
          <Trackpoint>
            <Time>2021-08-09T11:47:49.000Z</Time>
            <Position>
              <LatitudeDegrees>43.03210641257464885711669921875</LatitudeDegrees>
              <LongitudeDegrees>-1.75810226239264011383056640625</LongitudeDegrees>
            </Position>
            <AltitudeMeters>630.79998779296875</AltitudeMeters>
            <DistanceMeters>NAN</DistanceMeters>
          </Trackpoint>
          <Trackpoint>
            <Time>2021-08-09T11:47:50.000Z</Time>
            <Position>
              <LatitudeDegrees>43.03212971426546573638916015625</LatitudeDegrees>
              <LongitudeDegrees>-1.75809907726943492889404296875</LongitudeDegrees>
            </Position>
            <AltitudeMeters>630.79998779296875</AltitudeMeters>
            <DistanceMeters>NAN</DistanceMeters>
          </Trackpoint>
          <Trackpoint>
            <Time>2021-08-09T11:47:53.000Z</Time>
            <Position>
              <LatitudeDegrees>43.0322159640491008758544921875</LatitudeDegrees>
              <LongitudeDegrees>-1.7580688185989856719970703125</LongitudeDegrees>
            </Position>
            <AltitudeMeters>631.5999755859375</AltitudeMeters>
            <DistanceMeters>NAN</DistanceMeters>
          </Trackpoint>
          <Trackpoint>
            <Time>2021-08-09T11:47:54.000Z</Time>
            <Position>
              <LatitudeDegrees>43.032241277396678924560546875</LatitudeDegrees>
              <LongitudeDegrees>-1.75806102342903614044189453125</LongitudeDegrees>
            </Position>
            <AltitudeMeters>631.5999755859375</AltitudeMeters>
            <DistanceMeters>NAN</DistanceMeters>
          </Trackpoint>
          <Trackpoint>
            <Time>2021-08-09T11:48:00.000Z</Time>
            <Position>
              <LatitudeDegrees>43.0324154533445835113525390625</LatitudeDegrees>
              <LongitudeDegrees>-1.75796949304640293121337890625</LongitudeDegrees>
            </Position>
            <AltitudeMeters>632</AltitudeMeters>
            <DistanceMeters>NAN</DistanceMeters>
          </Trackpoint>
          <Trackpoint>
            <Time>2021-08-09T11:48:08.000Z</Time>
            <Position>
              <LatitudeDegrees>43.03262692876160144805908203125</LatitudeDegrees>
              <LongitudeDegrees>-1.75779028795659542083740234375</LongitudeDegrees>
            </Position>
            <AltitudeMeters>632.4000244140625</AltitudeMeters>
            <DistanceMeters>NAN</DistanceMeters>
          </Trackpoint>
          <Trackpoint>
            <Time>2021-08-09T11:48:13.000Z</Time>
            <Position>
              <LatitudeDegrees>43.03275383077561855316162109375</LatitudeDegrees>
              <LongitudeDegrees>-1.75765215419232845306396484375</LongitudeDegrees>
            </Position>
            <AltitudeMeters>632.5999755859375</AltitudeMeters>
            <DistanceMeters>NAN</DistanceMeters>
          </Trackpoint>
          <Trackpoint>
            <Time>2021-08-09T11:48:17.000Z</Time>
            <Position>
              <LatitudeDegrees>43.0328546650707721710205078125</LatitudeDegrees>
              <LongitudeDegrees>-1.757511757314205169677734375</LongitudeDegrees>
            </Position>
            <AltitudeMeters>633.20001220703125</AltitudeMeters>
            <DistanceMeters>NAN</DistanceMeters>
          </Trackpoint>
          <Trackpoint>
            <Time>2021-08-09T11:48:18.000Z</Time>
            <Position>
              <LatitudeDegrees>43.03287218324840068817138671875</LatitudeDegrees>
              <LongitudeDegrees>-1.75747680477797985076904296875</LongitudeDegrees>
            </Position>
            <AltitudeMeters>633.4000244140625</AltitudeMeters>
            <DistanceMeters>NAN</DistanceMeters>
          </Trackpoint>
          <Trackpoint>
            <Time>2021-08-09T11:48:23.000Z</Time>
            <Position>
              <LatitudeDegrees>43.032990284264087677001953125</LatitudeDegrees>
              <LongitudeDegrees>-1.75730246119201183319091796875</LongitudeDegrees>
            </Position>
            <AltitudeMeters>634.20001220703125</AltitudeMeters>
            <DistanceMeters>NAN</DistanceMeters>
          </Trackpoint>
          <Trackpoint>
            <Time>2021-08-09T11:48:24.000Z</Time>
            <Position>
              <LatitudeDegrees>43.0330119095742702484130859375</LatitudeDegrees>
              <LongitudeDegrees>-1.7572665028274059295654296875</LongitudeDegrees>
            </Position>
            <AltitudeMeters>634.4000244140625</AltitudeMeters>
            <DistanceMeters>NAN</DistanceMeters>
          </Trackpoint>
          <Trackpoint>
            <Time>2021-08-09T11:48:25.000Z</Time>
            <Position>
              <LatitudeDegrees>43.0330326966941356658935546875</LatitudeDegrees>
              <LongitudeDegrees>-1.757227443158626556396484375</LongitudeDegrees>
            </Position>
            <AltitudeMeters>634.5999755859375</AltitudeMeters>
            <DistanceMeters>NAN</DistanceMeters>
          </Trackpoint>
          <Trackpoint>
            <Time>2021-08-09T11:48:26.000Z</Time>
            <Position>
              <LatitudeDegrees>43.03305507637560367584228515625</LatitudeDegrees>
              <LongitudeDegrees>-1.75718016922473907470703125</LongitudeDegrees>
            </Position>
            <AltitudeMeters>634.5999755859375</AltitudeMeters>
            <DistanceMeters>NAN</DistanceMeters>
          </Trackpoint>
          <Trackpoint>
            <Time>2021-08-09T11:48:27.000Z</Time>
            <Position>
              <LatitudeDegrees>43.03306999616324901580810546875</LatitudeDegrees>
              <LongitudeDegrees>-1.7571437917649745941162109375</LongitudeDegrees>
            </Position>
            <AltitudeMeters>634.79998779296875</AltitudeMeters>
            <DistanceMeters>NAN</DistanceMeters>
          </Trackpoint>
          <Trackpoint>
            <Time>2021-08-09T11:48:28.000Z</Time>
            <Position>
              <LatitudeDegrees>43.0330849997699260711669921875</LatitudeDegrees>
              <LongitudeDegrees>-1.7571122758090496063232421875</LongitudeDegrees>
            </Position>
            <AltitudeMeters>635</AltitudeMeters>
            <DistanceMeters>NAN</DistanceMeters>
          </Trackpoint>
          <Trackpoint>
            <Time>2021-08-09T11:48:29.000Z</Time>
            <Position>
              <LatitudeDegrees>43.0331071279942989349365234375</LatitudeDegrees>
              <LongitudeDegrees>-1.757072545588016510009765625</LongitudeDegrees>
            </Position>
            <AltitudeMeters>635</AltitudeMeters>
            <DistanceMeters>NAN</DistanceMeters>
          </Trackpoint>
          <Trackpoint>
            <Time>2021-08-09T11:48:30.000Z</Time>
            <Position>
              <LatitudeDegrees>43.03313545882701873779296875</LatitudeDegrees>
              <LongitudeDegrees>-1.75702728331089019775390625</LongitudeDegrees>
            </Position>
            <AltitudeMeters>635</AltitudeMeters>
            <DistanceMeters>NAN</DistanceMeters>
          </Trackpoint>
          <Trackpoint>
            <Time>2021-08-09T11:48:31.000Z</Time>
            <Position>
              <LatitudeDegrees>43.03316093981266021728515625</LatitudeDegrees>
              <LongitudeDegrees>-1.75698394887149333953857421875</LongitudeDegrees>
            </Position>
            <AltitudeMeters>635.20001220703125</AltitudeMeters>
            <DistanceMeters>NAN</DistanceMeters>
          </Trackpoint>
          <Trackpoint>
            <Time>2021-08-09T11:48:32.000Z</Time>
            <Position>
              <LatitudeDegrees>43.03317778743803501129150390625</LatitudeDegrees>
              <LongitudeDegrees>-1.75695477984845638275146484375</LongitudeDegrees>
            </Position>
            <AltitudeMeters>635.20001220703125</AltitudeMeters>
            <DistanceMeters>NAN</DistanceMeters>
          </Trackpoint>
          <Trackpoint>
            <Time>2021-08-09T11:48:33.000Z</Time>
            <Position>
              <LatitudeDegrees>43.03319756872951984405517578125</LatitudeDegrees>
              <LongitudeDegrees>-1.7569151334464550018310546875</LongitudeDegrees>
            </Position>
            <AltitudeMeters>635.20001220703125</AltitudeMeters>
            <DistanceMeters>NAN</DistanceMeters>
          </Trackpoint>
          <Trackpoint>
            <Time>2021-08-09T11:48:34.000Z</Time>
            <Position>
              <LatitudeDegrees>43.03321718238294124603271484375</LatitudeDegrees>
              <LongitudeDegrees>-1.7568702064454555511474609375</LongitudeDegrees>
            </Position>
            <AltitudeMeters>635.4000244140625</AltitudeMeters>
            <DistanceMeters>NAN</DistanceMeters>
          </Trackpoint>
          <Trackpoint>
            <Time>2021-08-09T11:48:35.000Z</Time>
            <Position>
              <LatitudeDegrees>43.03323864005506038665771484375</LatitudeDegrees>
              <LongitudeDegrees>-1.75681999884545803070068359375</LongitudeDegrees>
            </Position>
            <AltitudeMeters>635.4000244140625</AltitudeMeters>
            <DistanceMeters>NAN</DistanceMeters>
          </Trackpoint>
          <Trackpoint>
            <Time>2021-08-09T11:48:36.000Z</Time>
            <Position>
              <LatitudeDegrees>43.03325691260397434234619140625</LatitudeDegrees>
              <LongitudeDegrees>-1.75677658058702945709228515625</LongitudeDegrees>
            </Position>
            <AltitudeMeters>635.4000244140625</AltitudeMeters>
            <DistanceMeters>NAN</DistanceMeters>
          </Trackpoint>
          <Trackpoint>
            <Time>2021-08-09T11:48:37.000Z</Time>
            <Position>
              <LatitudeDegrees>43.033270575106143951416015625</LatitudeDegrees>
              <LongitudeDegrees>-1.75673735328018665313720703125</LongitudeDegrees>
            </Position>
            <AltitudeMeters>635.4000244140625</AltitudeMeters>
            <DistanceMeters>NAN</DistanceMeters>
          </Trackpoint>
          <Trackpoint>
            <Time>2021-08-09T11:48:38.000Z</Time>
            <Position>
              <LatitudeDegrees>43.033290021121501922607421875</LatitudeDegrees>
              <LongitudeDegrees>-1.7566992156207561492919921875</LongitudeDegrees>
            </Position>
            <AltitudeMeters>635.4000244140625</AltitudeMeters>
            <DistanceMeters>NAN</DistanceMeters>
          </Trackpoint>
          <Trackpoint>
            <Time>2021-08-09T11:48:39.000Z</Time>
            <Position>
              <LatitudeDegrees>43.0333072878420352935791015625</LatitudeDegrees>
              <LongitudeDegrees>-1.7566636763513088226318359375</LongitudeDegrees>
            </Position>
            <AltitudeMeters>635.5999755859375</AltitudeMeters>
            <DistanceMeters>NAN</DistanceMeters>
          </Trackpoint>
          <Trackpoint>
            <Time>2021-08-09T11:48:40.000Z</Time>
            <Position>
              <LatitudeDegrees>43.03332296200096607208251953125</LatitudeDegrees>
              <LongitudeDegrees>-1.75663031637668609619140625</LongitudeDegrees>
            </Position>
            <AltitudeMeters>635.5999755859375</AltitudeMeters>
            <DistanceMeters>NAN</DistanceMeters>
          </Trackpoint>
          <Trackpoint>
            <Time>2021-08-09T11:48:41.000Z</Time>
            <Position>
              <LatitudeDegrees>43.03334089927375316619873046875</LatitudeDegrees>
              <LongitudeDegrees>-1.7565882392227649688720703125</LongitudeDegrees>
            </Position>
            <AltitudeMeters>635.4000244140625</AltitudeMeters>
            <DistanceMeters>NAN</DistanceMeters>
          </Trackpoint>
          <Trackpoint>
            <Time>2021-08-09T11:48:42.000Z</Time>
            <Position>
              <LatitudeDegrees>43.0333572439849376678466796875</LatitudeDegrees>
              <LongitudeDegrees>-1.75655194558203220367431640625</LongitudeDegrees>
            </Position>
            <AltitudeMeters>635.5999755859375</AltitudeMeters>
            <DistanceMeters>NAN</DistanceMeters>
          </Trackpoint>
          <Trackpoint>
            <Time>2021-08-09T11:48:43.000Z</Time>
            <Position>
              <LatitudeDegrees>43.03337660618126392364501953125</LatitudeDegrees>
              <LongitudeDegrees>-1.7565148137509822845458984375</LongitudeDegrees>
            </Position>
            <AltitudeMeters>635.5999755859375</AltitudeMeters>
            <DistanceMeters>NAN</DistanceMeters>
          </Trackpoint>
          <Trackpoint>
            <Time>2021-08-09T11:48:44.000Z</Time>
            <Position>
              <LatitudeDegrees>43.033393956720829010009765625</LatitudeDegrees>
              <LongitudeDegrees>-1.75647298805415630340576171875</LongitudeDegrees>
            </Position>
            <AltitudeMeters>635.5999755859375</AltitudeMeters>
            <DistanceMeters>NAN</DistanceMeters>
          </Trackpoint>
          <Trackpoint>
            <Time>2021-08-09T11:48:45.000Z</Time>
            <Position>
              <LatitudeDegrees>43.033412396907806396484375</LatitudeDegrees>
              <LongitudeDegrees>-1.75643476657569408416748046875</LongitudeDegrees>
            </Position>
            <AltitudeMeters>635.5999755859375</AltitudeMeters>
            <DistanceMeters>NAN</DistanceMeters>
          </Trackpoint>
          <Trackpoint>
            <Time>2021-08-09T11:48:46.000Z</Time>
            <Position>
              <LatitudeDegrees>43.03343117237091064453125</LatitudeDegrees>
              <LongitudeDegrees>-1.756395958364009857177734375</LongitudeDegrees>
            </Position>
            <AltitudeMeters>635.5999755859375</AltitudeMeters>
            <DistanceMeters>NAN</DistanceMeters>
          </Trackpoint>
          <Trackpoint>
            <Time>2021-08-09T11:48:53.000Z</Time>
            <Position>
              <LatitudeDegrees>43.03358414210379123687744140625</LatitudeDegrees>
              <LongitudeDegrees>-1.7561396397650241851806640625</LongitudeDegrees>
            </Position>
            <AltitudeMeters>636.20001220703125</AltitudeMeters>
            <DistanceMeters>NAN</DistanceMeters>
          </Trackpoint>
          <Trackpoint>
            <Time>2021-08-09T11:48:54.000Z</Time>
            <Position>
              <LatitudeDegrees>43.0336043424904346466064453125</LatitudeDegrees>
              <LongitudeDegrees>-1.75610384903848171234130859375</LongitudeDegrees>
            </Position>
            <AltitudeMeters>636.5999755859375</AltitudeMeters>
            <DistanceMeters>NAN</DistanceMeters>
          </Trackpoint>
          <Trackpoint>
            <Time>2021-08-09T11:48:55.000Z</Time>
            <Position>
              <LatitudeDegrees>43.033630661666393280029296875</LatitudeDegrees>
              <LongitudeDegrees>-1.75606261007487773895263671875</LongitudeDegrees>
            </Position>
            <AltitudeMeters>636.5999755859375</AltitudeMeters>
            <DistanceMeters>NAN</DistanceMeters>
          </Trackpoint>
          <Trackpoint>
            <Time>2021-08-09T11:48:56.000Z</Time>
            <Position>
              <LatitudeDegrees>43.03365371190011501312255859375</LatitudeDegrees>
              <LongitudeDegrees>-1.7560320161283016204833984375</LongitudeDegrees>
            </Position>
            <AltitudeMeters>636.5999755859375</AltitudeMeters>
            <DistanceMeters>NAN</DistanceMeters>
          </Trackpoint>
          <Trackpoint>
            <Time>2021-08-09T11:48:57.000Z</Time>
            <Position>
              <LatitudeDegrees>43.033675588667392730712890625</LatitudeDegrees>
              <LongitudeDegrees>-1.7560025118291378021240234375</LongitudeDegrees>
            </Position>
            <AltitudeMeters>636.5999755859375</AltitudeMeters>
            <DistanceMeters>NAN</DistanceMeters>
          </Trackpoint>
          <Trackpoint>
            <Time>2021-08-09T11:48:58.000Z</Time>
            <Position>
              <LatitudeDegrees>43.0337005667388439178466796875</LatitudeDegrees>
              <LongitudeDegrees>-1.7559778690338134765625</LongitudeDegrees>
            </Position>
            <AltitudeMeters>636.79998779296875</AltitudeMeters>
            <DistanceMeters>NAN</DistanceMeters>
          </Trackpoint>
          <Trackpoint>
            <Time>2021-08-09T11:48:59.000Z</Time>
            <Position>
              <LatitudeDegrees>43.033725880086421966552734375</LatitudeDegrees>
              <LongitudeDegrees>-1.7559565789997577667236328125</LongitudeDegrees>
            </Position>
            <AltitudeMeters>636.79998779296875</AltitudeMeters>
            <DistanceMeters>NAN</DistanceMeters>
          </Trackpoint>
          <Trackpoint>
            <Time>2021-08-09T11:49:00.000Z</Time>
            <Position>
              <LatitudeDegrees>43.03374842740595340728759765625</LatitudeDegrees>
              <LongitudeDegrees>-1.75593319348990917205810546875</LongitudeDegrees>
            </Position>
            <AltitudeMeters>637</AltitudeMeters>
            <DistanceMeters>NAN</DistanceMeters>
          </Trackpoint>
          <Trackpoint>
            <Time>2021-08-09T11:49:01.000Z</Time>
            <Position>
              <LatitudeDegrees>43.03376837633550167083740234375</LatitudeDegrees>
              <LongitudeDegrees>-1.75591005943715572357177734375</LongitudeDegrees>
            </Position>
            <AltitudeMeters>637.20001220703125</AltitudeMeters>
            <DistanceMeters>NAN</DistanceMeters>
          </Trackpoint>
          <Trackpoint>
            <Time>2021-08-09T11:49:02.000Z</Time>
            <Position>
              <LatitudeDegrees>43.0337892472743988037109375</LatitudeDegrees>
              <LongitudeDegrees>-1.755885668098926544189453125</LongitudeDegrees>
            </Position>
            <AltitudeMeters>637.5999755859375</AltitudeMeters>
            <DistanceMeters>NAN</DistanceMeters>
          </Trackpoint>
          <Trackpoint>
            <Time>2021-08-09T11:49:03.000Z</Time>
            <Position>
              <LatitudeDegrees>43.0338122136890888214111328125</LatitudeDegrees>
              <LongitudeDegrees>-1.75586429424583911895751953125</LongitudeDegrees>
            </Position>
            <AltitudeMeters>637.5999755859375</AltitudeMeters>
            <DistanceMeters>NAN</DistanceMeters>
          </Trackpoint>
          <Trackpoint>
            <Time>2021-08-09T11:49:04.000Z</Time>
            <Position>
              <LatitudeDegrees>43.0338370241224765777587890625</LatitudeDegrees>
              <LongitudeDegrees>-1.75584401004016399383544921875</LongitudeDegrees>
            </Position>
            <AltitudeMeters>638</AltitudeMeters>
            <DistanceMeters>NAN</DistanceMeters>
          </Trackpoint>
          <Trackpoint>
            <Time>2021-08-09T11:49:05.000Z</Time>
            <Position>
              <LatitudeDegrees>43.0338604934513568878173828125</LatitudeDegrees>
              <LongitudeDegrees>-1.75582456402480602264404296875</LongitudeDegrees>
            </Position>
            <AltitudeMeters>638.20001220703125</AltitudeMeters>
            <DistanceMeters>NAN</DistanceMeters>
          </Trackpoint>
          <Trackpoint>
            <Time>2021-08-09T11:49:06.000Z</Time>
            <Position>
              <LatitudeDegrees>43.03388186730444431304931640625</LatitudeDegrees>
              <LongitudeDegrees>-1.75580243580043315887451171875</LongitudeDegrees>
            </Position>
            <AltitudeMeters>638.4000244140625</AltitudeMeters>
            <DistanceMeters>NAN</DistanceMeters>
          </Trackpoint>
          <Trackpoint>
            <Time>2021-08-09T11:49:07.000Z</Time>
            <Position>
              <LatitudeDegrees>43.0339013971388339996337890625</LatitudeDegrees>
              <LongitudeDegrees>-1.7557812295854091644287109375</LongitudeDegrees>
            </Position>
            <AltitudeMeters>638.5999755859375</AltitudeMeters>
            <DistanceMeters>NAN</DistanceMeters>
          </Trackpoint>
          <Trackpoint>
            <Time>2021-08-09T11:49:08.000Z</Time>
            <Position>
              <LatitudeDegrees>43.0339218489825725555419921875</LatitudeDegrees>
              <LongitudeDegrees>-1.75575935281813144683837890625</LongitudeDegrees>
            </Position>
            <AltitudeMeters>638.79998779296875</AltitudeMeters>
            <DistanceMeters>NAN</DistanceMeters>
          </Trackpoint>
          <Trackpoint>
            <Time>2021-08-09T11:49:09.000Z</Time>
            <Position>
              <LatitudeDegrees>43.033943139016628265380859375</LatitudeDegrees>
              <LongitudeDegrees>-1.755740828812122344970703125</LongitudeDegrees>
            </Position>
            <AltitudeMeters>638.79998779296875</AltitudeMeters>
            <DistanceMeters>NAN</DistanceMeters>
          </Trackpoint>
          <Trackpoint>
            <Time>2021-08-09T11:49:10.000Z</Time>
            <Position>
              <LatitudeDegrees>43.03396426141262054443359375</LatitudeDegrees>
              <LongitudeDegrees>-1.755722053349018096923828125</LongitudeDegrees>
            </Position>
            <AltitudeMeters>639</AltitudeMeters>
            <DistanceMeters>NAN</DistanceMeters>
          </Trackpoint>
          <Trackpoint>
            <Time>2021-08-09T11:49:11.000Z</Time>
            <Position>
              <LatitudeDegrees>43.03398496471345424652099609375</LatitudeDegrees>
              <LongitudeDegrees>-1.7557021044194698333740234375</LongitudeDegrees>
            </Position>
            <AltitudeMeters>639.20001220703125</AltitudeMeters>
            <DistanceMeters>NAN</DistanceMeters>
          </Trackpoint>
          <Trackpoint>
            <Time>2021-08-09T11:49:12.000Z</Time>
            <Position>
              <LatitudeDegrees>43.03400441072881221771240234375</LatitudeDegrees>
              <LongitudeDegrees>-1.75568081438541412353515625</LongitudeDegrees>
            </Position>
            <AltitudeMeters>639.4000244140625</AltitudeMeters>
            <DistanceMeters>NAN</DistanceMeters>
          </Trackpoint>
          <Trackpoint>
            <Time>2021-08-09T11:49:13.000Z</Time>
            <Position>
              <LatitudeDegrees>43.034022264182567596435546875</LatitudeDegrees>
              <LongitudeDegrees>-1.75565793178975582122802734375</LongitudeDegrees>
            </Position>
            <AltitudeMeters>639.5999755859375</AltitudeMeters>
            <DistanceMeters>NAN</DistanceMeters>
          </Trackpoint>
          <Trackpoint>
            <Time>2021-08-09T11:49:14.000Z</Time>
            <Position>
              <LatitudeDegrees>43.03404229693114757537841796875</LatitudeDegrees>
              <LongitudeDegrees>-1.75564066506922245025634765625</LongitudeDegrees>
            </Position>
            <AltitudeMeters>639.79998779296875</AltitudeMeters>
            <DistanceMeters>NAN</DistanceMeters>
          </Trackpoint>
          <Trackpoint>
            <Time>2021-08-09T11:49:15.000Z</Time>
            <Position>
              <LatitudeDegrees>43.03406417369842529296875</LatitudeDegrees>
              <LongitudeDegrees>-1.7556251585483551025390625</LongitudeDegrees>
            </Position>
            <AltitudeMeters>640</AltitudeMeters>
            <DistanceMeters>NAN</DistanceMeters>
          </Trackpoint>
          <Trackpoint>
            <Time>2021-08-09T11:49:16.000Z</Time>
            <Position>
              <LatitudeDegrees>43.03408361971378326416015625</LatitudeDegrees>
              <LongitudeDegrees>-1.75560378469526767730712890625</LongitudeDegrees>
            </Position>
            <AltitudeMeters>640.20001220703125</AltitudeMeters>
            <DistanceMeters>NAN</DistanceMeters>
          </Trackpoint>
          <Trackpoint>
            <Time>2021-08-09T11:49:17.000Z</Time>
            <Position>
              <LatitudeDegrees>43.0341030657291412353515625</LatitudeDegrees>
              <LongitudeDegrees>-1.7555822432041168212890625</LongitudeDegrees>
            </Position>
            <AltitudeMeters>640.20001220703125</AltitudeMeters>
            <DistanceMeters>NAN</DistanceMeters>
          </Trackpoint>
          <Trackpoint>
            <Time>2021-08-09T11:49:18.000Z</Time>
            <Position>
              <LatitudeDegrees>43.034124858677387237548828125</LatitudeDegrees>
              <LongitudeDegrees>-1.7555599473416805267333984375</LongitudeDegrees>
            </Position>
            <AltitudeMeters>640.20001220703125</AltitudeMeters>
            <DistanceMeters>NAN</DistanceMeters>
          </Trackpoint>
          <Trackpoint>
            <Time>2021-08-09T11:49:19.000Z</Time>
            <Position>
              <LatitudeDegrees>43.03414321504533290863037109375</LatitudeDegrees>
              <LongitudeDegrees>-1.7555428482592105865478515625</LongitudeDegrees>
            </Position>
            <AltitudeMeters>640.4000244140625</AltitudeMeters>
            <DistanceMeters>NAN</DistanceMeters>
          </Trackpoint>
          <Trackpoint>
            <Time>2021-08-09T11:49:20.000Z</Time>
            <Position>
              <LatitudeDegrees>43.034163080155849456787109375</LatitudeDegrees>
              <LongitudeDegrees>-1.75552382133901119232177734375</LongitudeDegrees>
            </Position>
            <AltitudeMeters>640.5999755859375</AltitudeMeters>
            <DistanceMeters>NAN</DistanceMeters>
          </Trackpoint>
          <Trackpoint>
            <Time>2021-08-09T11:49:21.000Z</Time>
            <Position>
              <LatitudeDegrees>43.03418931551277637481689453125</LatitudeDegrees>
              <LongitudeDegrees>-1.75549733452498912811279296875</LongitudeDegrees>
            </Position>
            <AltitudeMeters>641</AltitudeMeters>
            <DistanceMeters>NAN</DistanceMeters>
          </Trackpoint>
          <Trackpoint>
            <Time>2021-08-09T11:49:22.000Z</Time>
            <Position>
              <LatitudeDegrees>43.0342121981084346771240234375</LatitudeDegrees>
              <LongitudeDegrees>-1.755480654537677764892578125</LongitudeDegrees>
            </Position>
            <AltitudeMeters>641.20001220703125</AltitudeMeters>
            <DistanceMeters>NAN</DistanceMeters>
          </Trackpoint>
          <Trackpoint>
            <Time>2021-08-09T11:49:23.000Z</Time>
            <Position>
              <LatitudeDegrees>43.03423323668539524078369140625</LatitudeDegrees>
              <LongitudeDegrees>-1.755464561283588409423828125</LongitudeDegrees>
            </Position>
            <AltitudeMeters>641.20001220703125</AltitudeMeters>
            <DistanceMeters>NAN</DistanceMeters>
          </Trackpoint>
          <Trackpoint>
            <Time>2021-08-09T11:49:24.000Z</Time>
            <Position>
              <LatitudeDegrees>43.034256286919116973876953125</LatitudeDegrees>
              <LongitudeDegrees>-1.7554513178765773773193359375</LongitudeDegrees>
            </Position>
            <AltitudeMeters>641.20001220703125</AltitudeMeters>
            <DistanceMeters>NAN</DistanceMeters>
          </Trackpoint>
          <Trackpoint>
            <Time>2021-08-09T11:49:25.000Z</Time>
            <Position>
              <LatitudeDegrees>43.0342752300202846527099609375</LatitudeDegrees>
              <LongitudeDegrees>-1.75543363206088542938232421875</LongitudeDegrees>
            </Position>
            <AltitudeMeters>641.5999755859375</AltitudeMeters>
            <DistanceMeters>NAN</DistanceMeters>
          </Trackpoint>
          <Trackpoint>
            <Time>2021-08-09T11:49:26.000Z</Time>
            <Position>
              <LatitudeDegrees>43.034293167293071746826171875</LatitudeDegrees>
              <LongitudeDegrees>-1.7554154433310031890869140625</LongitudeDegrees>
            </Position>
            <AltitudeMeters>641.79998779296875</AltitudeMeters>
            <DistanceMeters>NAN</DistanceMeters>
          </Trackpoint>
          <Trackpoint>
            <Time>2021-08-09T11:49:27.000Z</Time>
            <Position>
              <LatitudeDegrees>43.0343134514987468719482421875</LatitudeDegrees>
              <LongitudeDegrees>-1.75539775751531124114990234375</LongitudeDegrees>
            </Position>
            <AltitudeMeters>642</AltitudeMeters>
            <DistanceMeters>NAN</DistanceMeters>
          </Trackpoint>
          <Trackpoint>
            <Time>2021-08-09T11:49:28.000Z</Time>
            <Position>
              <LatitudeDegrees>43.034337423741817474365234375</LatitudeDegrees>
              <LongitudeDegrees>-1.75538434647023677825927734375</LongitudeDegrees>
            </Position>
            <AltitudeMeters>642.20001220703125</AltitudeMeters>
            <DistanceMeters>NAN</DistanceMeters>
          </Trackpoint>
          <Trackpoint>
            <Time>2021-08-09T11:49:29.000Z</Time>
            <Position>
              <LatitudeDegrees>43.034352846443653106689453125</LatitudeDegrees>
              <LongitudeDegrees>-1.7553695105016231536865234375</LongitudeDegrees>
            </Position>
            <AltitudeMeters>642.4000244140625</AltitudeMeters>
            <DistanceMeters>NAN</DistanceMeters>
          </Trackpoint>
          <Trackpoint>
            <Time>2021-08-09T11:49:30.000Z</Time>
            <Position>
              <LatitudeDegrees>43.03437254391610622406005859375</LatitudeDegrees>
              <LongitudeDegrees>-1.75535534508526325225830078125</LongitudeDegrees>
            </Position>
            <AltitudeMeters>642.79998779296875</AltitudeMeters>
            <DistanceMeters>NAN</DistanceMeters>
          </Trackpoint>
          <Trackpoint>
            <Time>2021-08-09T11:49:31.000Z</Time>
            <Position>
              <LatitudeDegrees>43.03439668379724025726318359375</LatitudeDegrees>
              <LongitudeDegrees>-1.75534109584987163543701171875</LongitudeDegrees>
            </Position>
            <AltitudeMeters>642.79998779296875</AltitudeMeters>
            <DistanceMeters>NAN</DistanceMeters>
          </Trackpoint>
          <Trackpoint>
            <Time>2021-08-09T11:49:32.000Z</Time>
            <Position>
              <LatitudeDegrees>43.03441897965967655181884765625</LatitudeDegrees>
              <LongitudeDegrees>-1.75533053465187549591064453125</LongitudeDegrees>
            </Position>
            <AltitudeMeters>643.20001220703125</AltitudeMeters>
            <DistanceMeters>NAN</DistanceMeters>
          </Trackpoint>
          <Trackpoint>
            <Time>2021-08-09T11:49:33.000Z</Time>
            <Position>
              <LatitudeDegrees>43.0344438739120960235595703125</LatitudeDegrees>
              <LongitudeDegrees>-1.75531980581581592559814453125</LongitudeDegrees>
            </Position>
            <AltitudeMeters>643.4000244140625</AltitudeMeters>
            <DistanceMeters>NAN</DistanceMeters>
          </Trackpoint>
          <Trackpoint>
            <Time>2021-08-09T11:49:34.000Z</Time>
            <Position>
              <LatitudeDegrees>43.03446273319423198699951171875</LatitudeDegrees>
              <LongitudeDegrees>-1.75531427375972270965576171875</LongitudeDegrees>
            </Position>
            <AltitudeMeters>643.5999755859375</AltitudeMeters>
            <DistanceMeters>NAN</DistanceMeters>
          </Trackpoint>
          <Trackpoint>
            <Time>2021-08-09T11:49:35.000Z</Time>
            <Position>
              <LatitudeDegrees>43.034484945237636566162109375</LatitudeDegrees>
              <LongitudeDegrees>-1.7553081549704074859619140625</LongitudeDegrees>
            </Position>
            <AltitudeMeters>643.79998779296875</AltitudeMeters>
            <DistanceMeters>NAN</DistanceMeters>
          </Trackpoint>
          <Trackpoint>
            <Time>2021-08-09T11:49:36.000Z</Time>
            <Position>
              <LatitudeDegrees>43.03451168350875377655029296875</LatitudeDegrees>
              <LongitudeDegrees>-1.75529968924820423126220703125</LongitudeDegrees>
            </Position>
            <AltitudeMeters>644</AltitudeMeters>
            <DistanceMeters>NAN</DistanceMeters>
          </Trackpoint>
          <Trackpoint>
            <Time>2021-08-09T11:49:37.000Z</Time>
            <Position>
              <LatitudeDegrees>43.03452928550541400909423828125</LatitudeDegrees>
              <LongitudeDegrees>-1.75529415719211101531982421875</LongitudeDegrees>
            </Position>
            <AltitudeMeters>644.4000244140625</AltitudeMeters>
            <DistanceMeters>NAN</DistanceMeters>
          </Trackpoint>
          <Trackpoint>
            <Time>2021-08-09T11:49:38.000Z</Time>
            <Position>
              <LatitudeDegrees>43.03455275483429431915283203125</LatitudeDegrees>
              <LongitudeDegrees>-1.75528384745121002197265625</LongitudeDegrees>
            </Position>
            <AltitudeMeters>644.5999755859375</AltitudeMeters>
            <DistanceMeters>NAN</DistanceMeters>
          </Trackpoint>
          <Trackpoint>
            <Time>2021-08-09T11:49:39.000Z</Time>
            <Position>
              <LatitudeDegrees>43.03457622416317462921142578125</LatitudeDegrees>
              <LongitudeDegrees>-1.75528041087090969085693359375</LongitudeDegrees>
            </Position>
            <AltitudeMeters>644.79998779296875</AltitudeMeters>
            <DistanceMeters>NAN</DistanceMeters>
          </Trackpoint>
          <Trackpoint>
            <Time>2021-08-09T11:49:40.000Z</Time>
            <Position>
              <LatitudeDegrees>43.0345991067588329315185546875</LatitudeDegrees>
              <LongitudeDegrees>-1.7552799917757511138916015625</LongitudeDegrees>
            </Position>
            <AltitudeMeters>645</AltitudeMeters>
            <DistanceMeters>NAN</DistanceMeters>
          </Trackpoint>
          <Trackpoint>
            <Time>2021-08-09T11:49:41.000Z</Time>
            <Position>
              <LatitudeDegrees>43.03462148644030094146728515625</LatitudeDegrees>
              <LongitudeDegrees>-1.7552809976041316986083984375</LongitudeDegrees>
            </Position>
            <AltitudeMeters>645.20001220703125</AltitudeMeters>
            <DistanceMeters>NAN</DistanceMeters>
          </Trackpoint>
          <Trackpoint>
            <Time>2021-08-09T11:49:42.000Z</Time>
            <Position>
              <LatitudeDegrees>43.03464445285499095916748046875</LatitudeDegrees>
              <LongitudeDegrees>-1.7552836798131465911865234375</LongitudeDegrees>
            </Position>
            <AltitudeMeters>645.4000244140625</AltitudeMeters>
            <DistanceMeters>NAN</DistanceMeters>
          </Trackpoint>
          <Trackpoint>
            <Time>2021-08-09T11:49:43.000Z</Time>
            <Position>
              <LatitudeDegrees>43.0346636474132537841796875</LatitudeDegrees>
              <LongitudeDegrees>-1.75528326071798801422119140625</LongitudeDegrees>
            </Position>
            <AltitudeMeters>645.5999755859375</AltitudeMeters>
            <DistanceMeters>NAN</DistanceMeters>
          </Trackpoint>
          <Trackpoint>
            <Time>2021-08-09T11:49:44.000Z</Time>
            <Position>
              <LatitudeDegrees>43.03467965684831142425537109375</LatitudeDegrees>
              <LongitudeDegrees>-1.75528116524219512939453125</LongitudeDegrees>
            </Position>
            <AltitudeMeters>646</AltitudeMeters>
            <DistanceMeters>NAN</DistanceMeters>
          </Trackpoint>
          <Trackpoint>
            <Time>2021-08-09T11:49:45.000Z</Time>
            <Position>
              <LatitudeDegrees>43.03470882587134838104248046875</LatitudeDegrees>
              <LongitudeDegrees>-1.7552850209176540374755859375</LongitudeDegrees>
            </Position>
            <AltitudeMeters>646.20001220703125</AltitudeMeters>
            <DistanceMeters>NAN</DistanceMeters>
          </Trackpoint>
          <Trackpoint>
            <Time>2021-08-09T11:49:46.000Z</Time>
            <Position>
              <LatitudeDegrees>43.03473330102860927581787109375</LatitudeDegrees>
              <LongitudeDegrees>-1.75528845749795436859130859375</LongitudeDegrees>
            </Position>
            <AltitudeMeters>646.4000244140625</AltitudeMeters>
            <DistanceMeters>NAN</DistanceMeters>
          </Trackpoint>
          <Trackpoint>
            <Time>2021-08-09T11:49:47.000Z</Time>
            <Position>
              <LatitudeDegrees>43.0347575247287750244140625</LatitudeDegrees>
              <LongitudeDegrees>-1.75529063679277896881103515625</LongitudeDegrees>
            </Position>
            <AltitudeMeters>646.5999755859375</AltitudeMeters>
            <DistanceMeters>NAN</DistanceMeters>
          </Trackpoint>
          <Trackpoint>
            <Time>2021-08-09T11:49:48.000Z</Time>
            <Position>
              <LatitudeDegrees>43.034782670438289642333984375</LatitudeDegrees>
              <LongitudeDegrees>-1.7552952468395233154296875</LongitudeDegrees>
            </Position>
            <AltitudeMeters>647</AltitudeMeters>
            <DistanceMeters>NAN</DistanceMeters>
          </Trackpoint>
          <Trackpoint>
            <Time>2021-08-09T11:49:49.000Z</Time>
            <Position>
              <LatitudeDegrees>43.03480136208236217498779296875</LatitudeDegrees>
              <LongitudeDegrees>-1.7552984319627285003662109375</LongitudeDegrees>
            </Position>
            <AltitudeMeters>647</AltitudeMeters>
            <DistanceMeters>NAN</DistanceMeters>
          </Trackpoint>
          <Trackpoint>
            <Time>2021-08-09T11:49:50.000Z</Time>
            <Position>
              <LatitudeDegrees>43.0348254181444644927978515625</LatitudeDegrees>
              <LongitudeDegrees>-1.7552964203059673309326171875</LongitudeDegrees>
            </Position>
            <AltitudeMeters>647.20001220703125</AltitudeMeters>
            <DistanceMeters>NAN</DistanceMeters>
          </Trackpoint>
          <Trackpoint>
            <Time>2021-08-09T11:49:51.000Z</Time>
            <Position>
              <LatitudeDegrees>43.03485349752008914947509765625</LatitudeDegrees>
              <LongitudeDegrees>-1.755304634571075439453125</LongitudeDegrees>
            </Position>
            <AltitudeMeters>647.4000244140625</AltitudeMeters>
            <DistanceMeters>NAN</DistanceMeters>
          </Trackpoint>
          <Trackpoint>
            <Time>2021-08-09T11:49:52.000Z</Time>
            <Position>
              <LatitudeDegrees>43.03487621247768402099609375</LatitudeDegrees>
              <LongitudeDegrees>-1.7553115077316761016845703125</LongitudeDegrees>
            </Position>
            <AltitudeMeters>647.4000244140625</AltitudeMeters>
            <DistanceMeters>NAN</DistanceMeters>
          </Trackpoint>
          <Trackpoint>
            <Time>2021-08-09T11:49:53.000Z</Time>
            <Position>
              <LatitudeDegrees>43.0348988436162471771240234375</LatitudeDegrees>
              <LongitudeDegrees>-1.75531846471130847930908203125</LongitudeDegrees>
            </Position>
            <AltitudeMeters>647.5999755859375</AltitudeMeters>
            <DistanceMeters>NAN</DistanceMeters>
          </Trackpoint>
          <Trackpoint>
            <Time>2021-08-09T11:49:54.000Z</Time>
            <Position>
              <LatitudeDegrees>43.034916110336780548095703125</LatitudeDegrees>
              <LongitudeDegrees>-1.75532047636806964874267578125</LongitudeDegrees>
            </Position>
            <AltitudeMeters>647.79998779296875</AltitudeMeters>
            <DistanceMeters>NAN</DistanceMeters>
          </Trackpoint>
          <Trackpoint>
            <Time>2021-08-09T11:49:55.000Z</Time>
            <Position>
              <LatitudeDegrees>43.03493924438953399658203125</LatitudeDegrees>
              <LongitudeDegrees>-1.75532399676740169525146484375</LongitudeDegrees>
            </Position>
            <AltitudeMeters>648</AltitudeMeters>
            <DistanceMeters>NAN</DistanceMeters>
          </Trackpoint>
          <Trackpoint>
            <Time>2021-08-09T11:49:56.000Z</Time>
            <Position>
              <LatitudeDegrees>43.0349645577371120452880859375</LatitudeDegrees>
              <LongitudeDegrees>-1.7553239129483699798583984375</LongitudeDegrees>
            </Position>
            <AltitudeMeters>648</AltitudeMeters>
            <DistanceMeters>NAN</DistanceMeters>
          </Trackpoint>
          <Trackpoint>
            <Time>2021-08-09T11:49:57.000Z</Time>
            <Position>
              <LatitudeDegrees>43.03498056717216968536376953125</LatitudeDegrees>
              <LongitudeDegrees>-1.75532785244286060333251953125</LongitudeDegrees>
            </Position>
            <AltitudeMeters>648.20001220703125</AltitudeMeters>
            <DistanceMeters>NAN</DistanceMeters>
          </Trackpoint>
          <Trackpoint>
            <Time>2021-08-09T11:49:58.000Z</Time>
            <Position>
              <LatitudeDegrees>43.03500940091907978057861328125</LatitudeDegrees>
              <LongitudeDegrees>-1.755337826907634735107421875</LongitudeDegrees>
            </Position>
            <AltitudeMeters>648.4000244140625</AltitudeMeters>
            <DistanceMeters>NAN</DistanceMeters>
          </Trackpoint>
          <Trackpoint>
            <Time>2021-08-09T11:49:59.000Z</Time>
            <Position>
              <LatitudeDegrees>43.03502641618251800537109375</LatitudeDegrees>
              <LongitudeDegrees>-1.75534277223050594329833984375</LongitudeDegrees>
            </Position>
            <AltitudeMeters>648.5999755859375</AltitudeMeters>
            <DistanceMeters>NAN</DistanceMeters>
          </Trackpoint>
          <Trackpoint>
            <Time>2021-08-09T11:50:00.000Z</Time>
            <Position>
              <LatitudeDegrees>43.035050220787525177001953125</LatitudeDegrees>
              <LongitudeDegrees>-1.7553488910198211669921875</LongitudeDegrees>
            </Position>
            <AltitudeMeters>648.79998779296875</AltitudeMeters>
            <DistanceMeters>NAN</DistanceMeters>
          </Trackpoint>
          <Trackpoint>
            <Time>2021-08-09T11:50:01.000Z</Time>
            <Position>
              <LatitudeDegrees>43.03507461212575435638427734375</LatitudeDegrees>
              <LongitudeDegrees>-1.75535366870462894439697265625</LongitudeDegrees>
            </Position>
            <AltitudeMeters>648.79998779296875</AltitudeMeters>
            <DistanceMeters>NAN</DistanceMeters>
          </Trackpoint>
          <Trackpoint>
            <Time>2021-08-09T11:50:02.000Z</Time>
            <Position>
              <LatitudeDegrees>43.03509791381657123565673828125</LatitudeDegrees>
              <LongitudeDegrees>-1.75536372698843479156494140625</LongitudeDegrees>
            </Position>
            <AltitudeMeters>648.79998779296875</AltitudeMeters>
            <DistanceMeters>NAN</DistanceMeters>
          </Trackpoint>
          <Trackpoint>
            <Time>2021-08-09T11:50:03.000Z</Time>
            <Position>
              <LatitudeDegrees>43.0351207964122295379638671875</LatitudeDegrees>
              <LongitudeDegrees>-1.7553752101957798004150390625</LongitudeDegrees>
            </Position>
            <AltitudeMeters>649</AltitudeMeters>
            <DistanceMeters>NAN</DistanceMeters>
          </Trackpoint>
          <Trackpoint>
            <Time>2021-08-09T11:50:04.000Z</Time>
            <Position>
              <LatitudeDegrees>43.0351437628269195556640625</LatitudeDegrees>
              <LongitudeDegrees>-1.755386777222156524658203125</LongitudeDegrees>
            </Position>
            <AltitudeMeters>649.20001220703125</AltitudeMeters>
            <DistanceMeters>NAN</DistanceMeters>
          </Trackpoint>
          <Trackpoint>
            <Time>2021-08-09T11:50:05.000Z</Time>
            <Position>
              <LatitudeDegrees>43.03516463376581668853759765625</LatitudeDegrees>
              <LongitudeDegrees>-1.7553993500769138336181640625</LongitudeDegrees>
            </Position>
            <AltitudeMeters>649.20001220703125</AltitudeMeters>
            <DistanceMeters>NAN</DistanceMeters>
          </Trackpoint>
          <Trackpoint>
            <Time>2021-08-09T11:50:06.000Z</Time>
            <Position>
              <LatitudeDegrees>43.035185001790523529052734375</LatitudeDegrees>
              <LongitudeDegrees>-1.75541385076940059661865234375</LongitudeDegrees>
            </Position>
            <AltitudeMeters>649.4000244140625</AltitudeMeters>
            <DistanceMeters>NAN</DistanceMeters>
          </Trackpoint>
          <Trackpoint>
            <Time>2021-08-09T11:50:07.000Z</Time>
            <Position>
              <LatitudeDegrees>43.03520746529102325439453125</LatitudeDegrees>
              <LongitudeDegrees>-1.755430363118648529052734375</LongitudeDegrees>
            </Position>
            <AltitudeMeters>649.5999755859375</AltitudeMeters>
            <DistanceMeters>NAN</DistanceMeters>
          </Trackpoint>
          <Trackpoint>
            <Time>2021-08-09T11:50:08.000Z</Time>
            <Position>
              <LatitudeDegrees>43.0352307669818401336669921875</LatitudeDegrees>
              <LongitudeDegrees>-1.7554493062198162078857421875</LongitudeDegrees>
            </Position>
            <AltitudeMeters>649.5999755859375</AltitudeMeters>
            <DistanceMeters>NAN</DistanceMeters>
          </Trackpoint>
          <Trackpoint>
            <Time>2021-08-09T11:50:09.000Z</Time>
            <Position>
              <LatitudeDegrees>43.03525549359619617462158203125</LatitudeDegrees>
              <LongitudeDegrees>-1.75546129234135150909423828125</LongitudeDegrees>
            </Position>
            <AltitudeMeters>649.79998779296875</AltitudeMeters>
            <DistanceMeters>NAN</DistanceMeters>
          </Trackpoint>
          <Trackpoint>
            <Time>2021-08-09T11:50:10.000Z</Time>
            <Position>
              <LatitudeDegrees>43.03527795709669589996337890625</LatitudeDegrees>
              <LongitudeDegrees>-1.75547721795737743377685546875</LongitudeDegrees>
            </Position>
            <AltitudeMeters>649.79998779296875</AltitudeMeters>
            <DistanceMeters>NAN</DistanceMeters>
          </Trackpoint>
          <Trackpoint>
            <Time>2021-08-09T11:50:11.000Z</Time>
            <Position>
              <LatitudeDegrees>43.03530042059719562530517578125</LatitudeDegrees>
              <LongitudeDegrees>-1.75549984909594058990478515625</LongitudeDegrees>
            </Position>
            <AltitudeMeters>650.20001220703125</AltitudeMeters>
            <DistanceMeters>NAN</DistanceMeters>
          </Trackpoint>
          <Trackpoint>
            <Time>2021-08-09T11:50:12.000Z</Time>
            <Position>
              <LatitudeDegrees>43.03532171063125133514404296875</LatitudeDegrees>
              <LongitudeDegrees>-1.75552189350128173828125</LongitudeDegrees>
            </Position>
            <AltitudeMeters>650.4000244140625</AltitudeMeters>
            <DistanceMeters>NAN</DistanceMeters>
          </Trackpoint>
          <Trackpoint>
            <Time>2021-08-09T11:50:13.000Z</Time>
            <Position>
              <LatitudeDegrees>43.03534157574176788330078125</LatitudeDegrees>
              <LongitudeDegrees>-1.755547039210796356201171875</LongitudeDegrees>
            </Position>
            <AltitudeMeters>650.5999755859375</AltitudeMeters>
            <DistanceMeters>NAN</DistanceMeters>
          </Trackpoint>
          <Trackpoint>
            <Time>2021-08-09T11:50:14.000Z</Time>
            <Position>
              <LatitudeDegrees>43.03535926155745983123779296875</LatitudeDegrees>
              <LongitudeDegrees>-1.7555706761777400970458984375</LongitudeDegrees>
            </Position>
            <AltitudeMeters>651</AltitudeMeters>
            <DistanceMeters>NAN</DistanceMeters>
          </Trackpoint>
          <Trackpoint>
            <Time>2021-08-09T11:50:15.000Z</Time>
            <Position>
              <LatitudeDegrees>43.035380132496356964111328125</LatitudeDegrees>
              <LongitudeDegrees>-1.75559573806822299957275390625</LongitudeDegrees>
            </Position>
            <AltitudeMeters>651</AltitudeMeters>
            <DistanceMeters>NAN</DistanceMeters>
          </Trackpoint>
          <Trackpoint>
            <Time>2021-08-09T11:50:16.000Z</Time>
            <Position>
              <LatitudeDegrees>43.0353985726833343505859375</LatitudeDegrees>
              <LongitudeDegrees>-1.75562473945319652557373046875</LongitudeDegrees>
            </Position>
            <AltitudeMeters>651.20001220703125</AltitudeMeters>
            <DistanceMeters>NAN</DistanceMeters>
          </Trackpoint>
          <Trackpoint>
            <Time>2021-08-09T11:50:17.000Z</Time>
            <Position>
              <LatitudeDegrees>43.035413324832916259765625</LatitudeDegrees>
              <LongitudeDegrees>-1.7556518130004405975341796875</LongitudeDegrees>
            </Position>
            <AltitudeMeters>651.20001220703125</AltitudeMeters>
            <DistanceMeters>NAN</DistanceMeters>
          </Trackpoint>
          <Trackpoint>
            <Time>2021-08-09T11:50:18.000Z</Time>
            <Position>
              <LatitudeDegrees>43.03543034009635448455810546875</LatitudeDegrees>
              <LongitudeDegrees>-1.75567637197673320770263671875</LongitudeDegrees>
            </Position>
            <AltitudeMeters>651.20001220703125</AltitudeMeters>
            <DistanceMeters>NAN</DistanceMeters>
          </Trackpoint>
          <Trackpoint>
            <Time>2021-08-09T11:50:19.000Z</Time>
            <Position>
              <LatitudeDegrees>43.0354443378746509552001953125</LatitudeDegrees>
              <LongitudeDegrees>-1.75570202060043811798095703125</LongitudeDegrees>
            </Position>
            <AltitudeMeters>651.20001220703125</AltitudeMeters>
            <DistanceMeters>NAN</DistanceMeters>
          </Trackpoint>
          <Trackpoint>
            <Time>2021-08-09T11:50:20.000Z</Time>
            <Position>
              <LatitudeDegrees>43.03545800037682056427001953125</LatitudeDegrees>
              <LongitudeDegrees>-1.75573186017572879791259765625</LongitudeDegrees>
            </Position>
            <AltitudeMeters>651.4000244140625</AltitudeMeters>
            <DistanceMeters>NAN</DistanceMeters>
          </Trackpoint>
          <Trackpoint>
            <Time>2021-08-09T11:50:21.000Z</Time>
            <Position>
              <LatitudeDegrees>43.03547568619251251220703125</LatitudeDegrees>
              <LongitudeDegrees>-1.75576488487422466278076171875</LongitudeDegrees>
            </Position>
            <AltitudeMeters>651.4000244140625</AltitudeMeters>
            <DistanceMeters>NAN</DistanceMeters>
          </Trackpoint>
          <Trackpoint>
            <Time>2021-08-09T11:50:22.000Z</Time>
            <Position>
              <LatitudeDegrees>43.03548934869468212127685546875</LatitudeDegrees>
              <LongitudeDegrees>-1.75578533671796321868896484375</LongitudeDegrees>
            </Position>
            <AltitudeMeters>651.5999755859375</AltitudeMeters>
            <DistanceMeters>NAN</DistanceMeters>
          </Trackpoint>
          <Trackpoint>
            <Time>2021-08-09T11:50:23.000Z</Time>
            <Position>
              <LatitudeDegrees>43.03550778888165950775146484375</LatitudeDegrees>
              <LongitudeDegrees>-1.7558150924742221832275390625</LongitudeDegrees>
            </Position>
            <AltitudeMeters>651.79998779296875</AltitudeMeters>
            <DistanceMeters>NAN</DistanceMeters>
          </Trackpoint>
          <Trackpoint>
            <Time>2021-08-09T11:50:24.000Z</Time>
            <Position>
              <LatitudeDegrees>43.03552270866930484771728515625</LatitudeDegrees>
              <LongitudeDegrees>-1.75584535114467144012451171875</LongitudeDegrees>
            </Position>
            <AltitudeMeters>651.79998779296875</AltitudeMeters>
            <DistanceMeters>NAN</DistanceMeters>
          </Trackpoint>
          <Trackpoint>
            <Time>2021-08-09T11:50:25.000Z</Time>
            <Position>
              <LatitudeDegrees>43.03554081358015537261962890625</LatitudeDegrees>
              <LongitudeDegrees>-1.75587401725351810455322265625</LongitudeDegrees>
            </Position>
            <AltitudeMeters>652</AltitudeMeters>
            <DistanceMeters>NAN</DistanceMeters>
          </Trackpoint>
          <Trackpoint>
            <Time>2021-08-09T11:50:26.000Z</Time>
            <Position>
              <LatitudeDegrees>43.03555875085294246673583984375</LatitudeDegrees>
              <LongitudeDegrees>-1.755903773009777069091796875</LongitudeDegrees>
            </Position>
            <AltitudeMeters>652</AltitudeMeters>
            <DistanceMeters>NAN</DistanceMeters>
          </Trackpoint>
          <Trackpoint>
            <Time>2021-08-09T11:50:27.000Z</Time>
            <Position>
              <LatitudeDegrees>43.03557467646896839141845703125</LatitudeDegrees>
              <LongitudeDegrees>-1.7559388093650341033935546875</LongitudeDegrees>
            </Position>
            <AltitudeMeters>652</AltitudeMeters>
            <DistanceMeters>NAN</DistanceMeters>
          </Trackpoint>
          <Trackpoint>
            <Time>2021-08-09T11:50:28.000Z</Time>
            <Position>
              <LatitudeDegrees>43.03559110499918460845947265625</LatitudeDegrees>
              <LongitudeDegrees>-1.7559696547687053680419921875</LongitudeDegrees>
            </Position>
            <AltitudeMeters>652.20001220703125</AltitudeMeters>
            <DistanceMeters>NAN</DistanceMeters>
          </Trackpoint>
          <Trackpoint>
            <Time>2021-08-09T11:50:29.000Z</Time>
            <Position>
              <LatitudeDegrees>43.03560887463390827178955078125</LatitudeDegrees>
              <LongitudeDegrees>-1.75599974580109119415283203125</LongitudeDegrees>
            </Position>
            <AltitudeMeters>652.20001220703125</AltitudeMeters>
            <DistanceMeters>NAN</DistanceMeters>
          </Trackpoint>
          <Trackpoint>
            <Time>2021-08-09T11:50:30.000Z</Time>
            <Position>
              <LatitudeDegrees>43.03562630899250507354736328125</LatitudeDegrees>
              <LongitudeDegrees>-1.7560316808521747589111328125</LongitudeDegrees>
            </Position>
            <AltitudeMeters>652.4000244140625</AltitudeMeters>
            <DistanceMeters>NAN</DistanceMeters>
          </Trackpoint>
          <Trackpoint>
            <Time>2021-08-09T11:50:31.000Z</Time>
            <Position>
              <LatitudeDegrees>43.03564424626529216766357421875</LatitudeDegrees>
              <LongitudeDegrees>-1.756062023341655731201171875</LongitudeDegrees>
            </Position>
            <AltitudeMeters>652.5999755859375</AltitudeMeters>
            <DistanceMeters>NAN</DistanceMeters>
          </Trackpoint>
          <Trackpoint>
            <Time>2021-08-09T11:50:32.000Z</Time>
            <Position>
              <LatitudeDegrees>43.03566402755677700042724609375</LatitudeDegrees>
              <LongitudeDegrees>-1.75608842633664608001708984375</LongitudeDegrees>
            </Position>
            <AltitudeMeters>652.5999755859375</AltitudeMeters>
            <DistanceMeters>NAN</DistanceMeters>
          </Trackpoint>
          <Trackpoint>
            <Time>2021-08-09T11:50:33.000Z</Time>
            <Position>
              <LatitudeDegrees>43.035681545734405517578125</LatitudeDegrees>
              <LongitudeDegrees>-1.75611667335033416748046875</LongitudeDegrees>
            </Position>
            <AltitudeMeters>652.5999755859375</AltitudeMeters>
            <DistanceMeters>NAN</DistanceMeters>
          </Trackpoint>
          <Trackpoint>
            <Time>2021-08-09T11:50:34.000Z</Time>
            <Position>
              <LatitudeDegrees>43.03569906391203403472900390625</LatitudeDegrees>
              <LongitudeDegrees>-1.756149195134639739990234375</LongitudeDegrees>
            </Position>
            <AltitudeMeters>652.79998779296875</AltitudeMeters>
            <DistanceMeters>NAN</DistanceMeters>
          </Trackpoint>
          <Trackpoint>
            <Time>2021-08-09T11:50:35.000Z</Time>
            <Position>
              <LatitudeDegrees>43.03571708500385284423828125</LatitudeDegrees>
              <LongitudeDegrees>-1.7561792023479938507080078125</LongitudeDegrees>
            </Position>
            <AltitudeMeters>652.79998779296875</AltitudeMeters>
            <DistanceMeters>NAN</DistanceMeters>
          </Trackpoint>
          <Trackpoint>
            <Time>2021-08-09T11:50:36.000Z</Time>
            <Position>
              <LatitudeDegrees>43.035735525190830230712890625</LatitudeDegrees>
              <LongitudeDegrees>-1.7562066949903964996337890625</LongitudeDegrees>
            </Position>
            <AltitudeMeters>653</AltitudeMeters>
            <DistanceMeters>NAN</DistanceMeters>
          </Trackpoint>
          <Trackpoint>
            <Time>2021-08-09T11:50:37.000Z</Time>
            <Position>
              <LatitudeDegrees>43.0357553064823150634765625</LatitudeDegrees>
              <LongitudeDegrees>-1.7562308348715305328369140625</LongitudeDegrees>
            </Position>
            <AltitudeMeters>653</AltitudeMeters>
            <DistanceMeters>NAN</DistanceMeters>
          </Trackpoint>
          <Trackpoint>
            <Time>2021-08-09T11:50:38.000Z</Time>
            <Position>
              <LatitudeDegrees>43.03577332757413387298583984375</LatitudeDegrees>
              <LongitudeDegrees>-1.75624818541109561920166015625</LongitudeDegrees>
            </Position>
            <AltitudeMeters>653.20001220703125</AltitudeMeters>
            <DistanceMeters>NAN</DistanceMeters>
          </Trackpoint>
          <Trackpoint>
            <Time>2021-08-09T11:50:39.000Z</Time>
            <Position>
              <LatitudeDegrees>43.03579562343657016754150390625</LatitudeDegrees>
              <LongitudeDegrees>-1.75627316348254680633544921875</LongitudeDegrees>
            </Position>
            <AltitudeMeters>653.20001220703125</AltitudeMeters>
            <DistanceMeters>NAN</DistanceMeters>
          </Trackpoint>
          <Trackpoint>
            <Time>2021-08-09T11:50:40.000Z</Time>
            <Position>
              <LatitudeDegrees>43.03581791929900646209716796875</LatitudeDegrees>
              <LongitudeDegrees>-1.7562972195446491241455078125</LongitudeDegrees>
            </Position>
            <AltitudeMeters>653.4000244140625</AltitudeMeters>
            <DistanceMeters>NAN</DistanceMeters>
          </Trackpoint>
          <Trackpoint>
            <Time>2021-08-09T11:50:41.000Z</Time>
            <Position>
              <LatitudeDegrees>43.03584055043756961822509765625</LatitudeDegrees>
              <LongitudeDegrees>-1.7563196830451488494873046875</LongitudeDegrees>
            </Position>
            <AltitudeMeters>653.4000244140625</AltitudeMeters>
            <DistanceMeters>NAN</DistanceMeters>
          </Trackpoint>
          <Trackpoint>
            <Time>2021-08-09T11:50:42.000Z</Time>
            <Position>
              <LatitudeDegrees>43.03586460649967193603515625</LatitudeDegrees>
              <LongitudeDegrees>-1.75634197890758514404296875</LongitudeDegrees>
            </Position>
            <AltitudeMeters>653.5999755859375</AltitudeMeters>
            <DistanceMeters>NAN</DistanceMeters>
          </Trackpoint>
          <Trackpoint>
            <Time>2021-08-09T11:50:43.000Z</Time>
            <Position>
              <LatitudeDegrees>43.0358929373323917388916015625</LatitudeDegrees>
              <LongitudeDegrees>-1.75636821426451206207275390625</LongitudeDegrees>
            </Position>
            <AltitudeMeters>653.5999755859375</AltitudeMeters>
            <DistanceMeters>NAN</DistanceMeters>
          </Trackpoint>
          <Trackpoint>
            <Time>2021-08-09T11:50:44.000Z</Time>
            <Position>
              <LatitudeDegrees>43.03591732867062091827392578125</LatitudeDegrees>
              <LongitudeDegrees>-1.7563853971660137176513671875</LongitudeDegrees>
            </Position>
            <AltitudeMeters>653.4000244140625</AltitudeMeters>
            <DistanceMeters>NAN</DistanceMeters>
          </Trackpoint>
          <Trackpoint>
            <Time>2021-08-09T11:50:45.000Z</Time>
            <Position>
              <LatitudeDegrees>43.03594230674207210540771484375</LatitudeDegrees>
              <LongitudeDegrees>-1.75639956258237361907958984375</LongitudeDegrees>
            </Position>
            <AltitudeMeters>653.5999755859375</AltitudeMeters>
            <DistanceMeters>NAN</DistanceMeters>
          </Trackpoint>
          <Trackpoint>
            <Time>2021-08-09T11:50:46.000Z</Time>
            <Position>
              <LatitudeDegrees>43.03596745245158672332763671875</LatitudeDegrees>
              <LongitudeDegrees>-1.75641439855098724365234375</LongitudeDegrees>
            </Position>
            <AltitudeMeters>653.5999755859375</AltitudeMeters>
            <DistanceMeters>NAN</DistanceMeters>
          </Trackpoint>
          <Trackpoint>
            <Time>2021-08-09T11:50:47.000Z</Time>
            <Position>
              <LatitudeDegrees>43.035993687808513641357421875</LatitudeDegrees>
              <LongitudeDegrees>-1.75642806105315685272216796875</LongitudeDegrees>
            </Position>
            <AltitudeMeters>653.79998779296875</AltitudeMeters>
            <DistanceMeters>NAN</DistanceMeters>
          </Trackpoint>
          <Trackpoint>
            <Time>2021-08-09T11:50:48.000Z</Time>
            <Position>
              <LatitudeDegrees>43.0360210128128528594970703125</LatitudeDegrees>
              <LongitudeDegrees>-1.7564383707940578460693359375</LongitudeDegrees>
            </Position>
            <AltitudeMeters>653.79998779296875</AltitudeMeters>
            <DistanceMeters>NAN</DistanceMeters>
          </Trackpoint>
          <Trackpoint>
            <Time>2021-08-09T11:50:49.000Z</Time>
            <Position>
              <LatitudeDegrees>43.0360503494739532470703125</LatitudeDegrees>
              <LongitudeDegrees>-1.75645186565816402435302734375</LongitudeDegrees>
            </Position>
            <AltitudeMeters>653.79998779296875</AltitudeMeters>
            <DistanceMeters>NAN</DistanceMeters>
          </Trackpoint>
          <Trackpoint>
            <Time>2021-08-09T11:50:50.000Z</Time>
            <Position>
              <LatitudeDegrees>43.0360796861350536346435546875</LatitudeDegrees>
              <LongitudeDegrees>-1.756461001932621002197265625</LongitudeDegrees>
            </Position>
            <AltitudeMeters>654</AltitudeMeters>
            <DistanceMeters>NAN</DistanceMeters>
          </Trackpoint>
          <Trackpoint>
            <Time>2021-08-09T11:50:53.000Z</Time>
            <Position>
              <LatitudeDegrees>43.036166690289974212646484375</LatitudeDegrees>
              <LongitudeDegrees>-1.7564873211085796356201171875</LongitudeDegrees>
            </Position>
            <AltitudeMeters>654.20001220703125</AltitudeMeters>
            <DistanceMeters>NAN</DistanceMeters>
          </Trackpoint>
          <Trackpoint>
            <Time>2021-08-09T11:50:57.000Z</Time>
            <Position>
              <LatitudeDegrees>43.0362748168408870697021484375</LatitudeDegrees>
              <LongitudeDegrees>-1.7565208487212657928466796875</LongitudeDegrees>
            </Position>
            <AltitudeMeters>654.4000244140625</AltitudeMeters>
            <DistanceMeters>NAN</DistanceMeters>
          </Trackpoint>
          <Trackpoint>
            <Time>2021-08-09T11:51:01.000Z</Time>
            <Position>
              <LatitudeDegrees>43.0363780818879604339599609375</LatitudeDegrees>
              <LongitudeDegrees>-1.75655093975365161895751953125</LongitudeDegrees>
            </Position>
            <AltitudeMeters>654.5999755859375</AltitudeMeters>
            <DistanceMeters>NAN</DistanceMeters>
          </Trackpoint>
          <Trackpoint>
            <Time>2021-08-09T11:51:05.000Z</Time>
            <Position>
              <LatitudeDegrees>43.0364846996963024139404296875</LatitudeDegrees>
              <LongitudeDegrees>-1.756565608084201812744140625</LongitudeDegrees>
            </Position>
            <AltitudeMeters>655</AltitudeMeters>
            <DistanceMeters>NAN</DistanceMeters>
          </Trackpoint>
          <Trackpoint>
            <Time>2021-08-09T11:51:06.000Z</Time>
            <Position>
              <LatitudeDegrees>43.036510013043880462646484375</LatitudeDegrees>
              <LongitudeDegrees>-1.75657172687351703643798828125</LongitudeDegrees>
            </Position>
            <AltitudeMeters>655</AltitudeMeters>
            <DistanceMeters>NAN</DistanceMeters>
          </Trackpoint>
          <Trackpoint>
            <Time>2021-08-09T11:51:07.000Z</Time>
            <Position>
              <LatitudeDegrees>43.03653490729629993438720703125</LatitudeDegrees>
              <LongitudeDegrees>-1.7565778456628322601318359375</LongitudeDegrees>
            </Position>
            <AltitudeMeters>655</AltitudeMeters>
            <DistanceMeters>NAN</DistanceMeters>
          </Trackpoint>
          <Trackpoint>
            <Time>2021-08-09T11:51:08.000Z</Time>
            <Position>
              <LatitudeDegrees>43.0365598015487194061279296875</LatitudeDegrees>
              <LongitudeDegrees>-1.756581366062164306640625</LongitudeDegrees>
            </Position>
            <AltitudeMeters>655</AltitudeMeters>
            <DistanceMeters>NAN</DistanceMeters>
          </Trackpoint>
          <Trackpoint>
            <Time>2021-08-09T11:51:11.000Z</Time>
            <Position>
              <LatitudeDegrees>43.03664001636207103729248046875</LatitudeDegrees>
              <LongitudeDegrees>-1.75656862556934356689453125</LongitudeDegrees>
            </Position>
            <AltitudeMeters>655</AltitudeMeters>
            <DistanceMeters>NAN</DistanceMeters>
          </Trackpoint>
          <Trackpoint>
            <Time>2021-08-09T11:51:12.000Z</Time>
            <Position>
              <LatitudeDegrees>43.03666281513869762420654296875</LatitudeDegrees>
              <LongitudeDegrees>-1.7565687932074069976806640625</LongitudeDegrees>
            </Position>
            <AltitudeMeters>655</AltitudeMeters>
            <DistanceMeters>NAN</DistanceMeters>
          </Trackpoint>
          <Trackpoint>
            <Time>2021-08-09T11:51:13.000Z</Time>
            <Position>
              <LatitudeDegrees>43.036684691905975341796875</LatitudeDegrees>
              <LongitudeDegrees>-1.756577678024768829345703125</LongitudeDegrees>
            </Position>
            <AltitudeMeters>655</AltitudeMeters>
            <DistanceMeters>NAN</DistanceMeters>
          </Trackpoint>
          <Trackpoint>
            <Time>2021-08-09T11:51:16.000Z</Time>
            <Position>
              <LatitudeDegrees>43.0367616377770900726318359375</LatitudeDegrees>
              <LongitudeDegrees>-1.75658144988119602203369140625</LongitudeDegrees>
            </Position>
            <AltitudeMeters>655.20001220703125</AltitudeMeters>
            <DistanceMeters>NAN</DistanceMeters>
          </Trackpoint>
          <Trackpoint>
            <Time>2021-08-09T11:51:17.000Z</Time>
            <Position>
              <LatitudeDegrees>43.03678384982049465179443359375</LatitudeDegrees>
              <LongitudeDegrees>-1.75657608546316623687744140625</LongitudeDegrees>
            </Position>
            <AltitudeMeters>655.20001220703125</AltitudeMeters>
            <DistanceMeters>NAN</DistanceMeters>
          </Trackpoint>
          <Trackpoint>
            <Time>2021-08-09T11:51:18.000Z</Time>
            <Position>
              <LatitudeDegrees>43.03680597804486751556396484375</LatitudeDegrees>
              <LongitudeDegrees>-1.75657558254897594451904296875</LongitudeDegrees>
            </Position>
            <AltitudeMeters>655.20001220703125</AltitudeMeters>
            <DistanceMeters>NAN</DistanceMeters>
          </Trackpoint>
          <Trackpoint>
            <Time>2021-08-09T11:51:19.000Z</Time>
            <Position>
              <LatitudeDegrees>43.03683062084019184112548828125</LatitudeDegrees>
              <LongitudeDegrees>-1.756576336920261383056640625</LongitudeDegrees>
            </Position>
            <AltitudeMeters>655.20001220703125</AltitudeMeters>
            <DistanceMeters>NAN</DistanceMeters>
          </Trackpoint>
          <Trackpoint>
            <Time>2021-08-09T11:51:20.000Z</Time>
            <Position>
              <LatitudeDegrees>43.036854006350040435791015625</LatitudeDegrees>
              <LongitudeDegrees>-1.7565785162150859832763671875</LongitudeDegrees>
            </Position>
            <AltitudeMeters>655.4000244140625</AltitudeMeters>
            <DistanceMeters>NAN</DistanceMeters>
          </Trackpoint>
          <Trackpoint>
            <Time>2021-08-09T11:51:21.000Z</Time>
            <Position>
              <LatitudeDegrees>43.03688208572566509246826171875</LatitudeDegrees>
              <LongitudeDegrees>-1.75656921230256557464599609375</LongitudeDegrees>
            </Position>
            <AltitudeMeters>655.4000244140625</AltitudeMeters>
            <DistanceMeters>NAN</DistanceMeters>
          </Trackpoint>
          <Trackpoint>
            <Time>2021-08-09T11:51:26.000Z</Time>
            <Position>
              <LatitudeDegrees>43.03702508099377155303955078125</LatitudeDegrees>
              <LongitudeDegrees>-1.7565657757222652435302734375</LongitudeDegrees>
            </Position>
            <AltitudeMeters>655.5999755859375</AltitudeMeters>
            <DistanceMeters>NAN</DistanceMeters>
          </Trackpoint>
          <Trackpoint>
            <Time>2021-08-09T11:51:32.000Z</Time>
            <Position>
              <LatitudeDegrees>43.03717578761279582977294921875</LatitudeDegrees>
              <LongitudeDegrees>-1.756517998874187469482421875</LongitudeDegrees>
            </Position>
            <AltitudeMeters>656</AltitudeMeters>
            <DistanceMeters>NAN</DistanceMeters>
          </Trackpoint>
          <Trackpoint>
            <Time>2021-08-09T11:51:34.000Z</Time>
            <Position>
              <LatitudeDegrees>43.0372192896902561187744140625</LatitudeDegrees>
              <LongitudeDegrees>-1.75648572854697704315185546875</LongitudeDegrees>
            </Position>
            <AltitudeMeters>656.20001220703125</AltitudeMeters>
            <DistanceMeters>NAN</DistanceMeters>
          </Trackpoint>
          <Trackpoint>
            <Time>2021-08-09T11:51:35.000Z</Time>
            <Position>
              <LatitudeDegrees>43.03723462857306003570556640625</LatitudeDegrees>
              <LongitudeDegrees>-1.75646267831325531005859375</LongitudeDegrees>
            </Position>
            <AltitudeMeters>656.4000244140625</AltitudeMeters>
            <DistanceMeters>NAN</DistanceMeters>
          </Trackpoint>
          <Trackpoint>
            <Time>2021-08-09T11:51:36.000Z</Time>
            <Position>
              <LatitudeDegrees>43.037246279418468475341796875</LatitudeDegrees>
              <LongitudeDegrees>-1.7564383707940578460693359375</LongitudeDegrees>
            </Position>
            <AltitudeMeters>656.5999755859375</AltitudeMeters>
            <DistanceMeters>NAN</DistanceMeters>
          </Trackpoint>
          <Trackpoint>
            <Time>2021-08-09T11:51:37.000Z</Time>
            <Position>
              <LatitudeDegrees>43.03726027719676494598388671875</LatitudeDegrees>
              <LongitudeDegrees>-1.75641163252294063568115234375</LongitudeDegrees>
            </Position>
            <AltitudeMeters>656.4000244140625</AltitudeMeters>
            <DistanceMeters>NAN</DistanceMeters>
          </Trackpoint>
          <Trackpoint>
            <Time>2021-08-09T11:51:38.000Z</Time>
            <Position>
              <LatitudeDegrees>43.0372774600982666015625</LatitudeDegrees>
              <LongitudeDegrees>-1.75638087093830108642578125</LongitudeDegrees>
            </Position>
            <AltitudeMeters>656.5999755859375</AltitudeMeters>
            <DistanceMeters>NAN</DistanceMeters>
          </Trackpoint>
          <Trackpoint>
            <Time>2021-08-09T11:51:39.000Z</Time>
            <Position>
              <LatitudeDegrees>43.0372967384755611419677734375</LatitudeDegrees>
              <LongitudeDegrees>-1.756352372467517852783203125</LongitudeDegrees>
            </Position>
            <AltitudeMeters>656.79998779296875</AltitudeMeters>
            <DistanceMeters>NAN</DistanceMeters>
          </Trackpoint>
          <Trackpoint>
            <Time>2021-08-09T11:51:40.000Z</Time>
            <Position>
              <LatitudeDegrees>43.03731291554868221282958984375</LatitudeDegrees>
              <LongitudeDegrees>-1.7563267238438129425048828125</LongitudeDegrees>
            </Position>
            <AltitudeMeters>656.79998779296875</AltitudeMeters>
            <DistanceMeters>NAN</DistanceMeters>
          </Trackpoint>
          <Trackpoint>
            <Time>2021-08-09T11:51:41.000Z</Time>
            <Position>
              <LatitudeDegrees>43.03733621723949909210205078125</LatitudeDegrees>
              <LongitudeDegrees>-1.75629101693630218505859375</LongitudeDegrees>
            </Position>
            <AltitudeMeters>657.20001220703125</AltitudeMeters>
            <DistanceMeters>NAN</DistanceMeters>
          </Trackpoint>
          <Trackpoint>
            <Time>2021-08-09T11:51:42.000Z</Time>
            <Position>
              <LatitudeDegrees>43.03735851310193538665771484375</LatitudeDegrees>
              <LongitudeDegrees>-1.75626126118004322052001953125</LongitudeDegrees>
            </Position>
            <AltitudeMeters>657.20001220703125</AltitudeMeters>
            <DistanceMeters>NAN</DistanceMeters>
          </Trackpoint>
          <Trackpoint>
            <Time>2021-08-09T11:51:43.000Z</Time>
            <Position>
              <LatitudeDegrees>43.03737678565084934234619140625</LatitudeDegrees>
              <LongitudeDegrees>-1.756238043308258056640625</LongitudeDegrees>
            </Position>
            <AltitudeMeters>657.5999755859375</AltitudeMeters>
            <DistanceMeters>NAN</DistanceMeters>
          </Trackpoint>
          <Trackpoint>
            <Time>2021-08-09T11:51:44.000Z</Time>
            <Position>
              <LatitudeDegrees>43.0373969860374927520751953125</LatitudeDegrees>
              <LongitudeDegrees>-1.756214909255504608154296875</LongitudeDegrees>
            </Position>
            <AltitudeMeters>657.5999755859375</AltitudeMeters>
            <DistanceMeters>NAN</DistanceMeters>
          </Trackpoint>
          <Trackpoint>
            <Time>2021-08-09T11:51:47.000Z</Time>
            <Position>
              <LatitudeDegrees>43.0374566651880741119384765625</LatitudeDegrees>
              <LongitudeDegrees>-1.75615078769624233245849609375</LongitudeDegrees>
            </Position>
            <AltitudeMeters>658</AltitudeMeters>
            <DistanceMeters>NAN</DistanceMeters>
          </Trackpoint>
          <Trackpoint>
            <Time>2021-08-09T11:51:48.000Z</Time>
            <Position>
              <LatitudeDegrees>43.0374814756214618682861328125</LatitudeDegrees>
              <LongitudeDegrees>-1.75613067112863063812255859375</LongitudeDegrees>
            </Position>
            <AltitudeMeters>658.20001220703125</AltitudeMeters>
            <DistanceMeters>NAN</DistanceMeters>
          </Trackpoint>
          <Trackpoint>
            <Time>2021-08-09T11:51:49.000Z</Time>
            <Position>
              <LatitudeDegrees>43.037511147558689117431640625</LatitudeDegrees>
              <LongitudeDegrees>-1.75609848462045192718505859375</LongitudeDegrees>
            </Position>
            <AltitudeMeters>658.4000244140625</AltitudeMeters>
            <DistanceMeters>NAN</DistanceMeters>
          </Trackpoint>
          <Trackpoint>
            <Time>2021-08-09T11:51:50.000Z</Time>
            <Position>
              <LatitudeDegrees>43.03753755055367946624755859375</LatitudeDegrees>
              <LongitudeDegrees>-1.75605766475200653076171875</LongitudeDegrees>
            </Position>
            <AltitudeMeters>658.79998779296875</AltitudeMeters>
            <DistanceMeters>NAN</DistanceMeters>
          </Trackpoint>
          <Trackpoint>
            <Time>2021-08-09T11:51:51.000Z</Time>
            <Position>
              <LatitudeDegrees>43.03756110370159149169921875</LatitudeDegrees>
              <LongitudeDegrees>-1.75603008829057216644287109375</LongitudeDegrees>
            </Position>
            <AltitudeMeters>658.79998779296875</AltitudeMeters>
            <DistanceMeters>NAN</DistanceMeters>
          </Trackpoint>
          <Trackpoint>
            <Time>2021-08-09T11:51:52.000Z</Time>
            <Position>
              <LatitudeDegrees>43.037584908306598663330078125</LatitudeDegrees>
              <LongitudeDegrees>-1.75600460730493068695068359375</LongitudeDegrees>
            </Position>
            <AltitudeMeters>659</AltitudeMeters>
            <DistanceMeters>NAN</DistanceMeters>
          </Trackpoint>
          <Trackpoint>
            <Time>2021-08-09T11:51:53.000Z</Time>
            <Position>
              <LatitudeDegrees>43.03760804235935211181640625</LatitudeDegrees>
              <LongitudeDegrees>-1.75598256289958953857421875</LongitudeDegrees>
            </Position>
            <AltitudeMeters>659</AltitudeMeters>
            <DistanceMeters>NAN</DistanceMeters>
          </Trackpoint>
          <Trackpoint>
            <Time>2021-08-09T11:51:54.000Z</Time>
            <Position>
              <LatitudeDegrees>43.037627823650836944580078125</LatitudeDegrees>
              <LongitudeDegrees>-1.7559575848281383514404296875</LongitudeDegrees>
            </Position>
            <AltitudeMeters>659.20001220703125</AltitudeMeters>
            <DistanceMeters>NAN</DistanceMeters>
          </Trackpoint>
          <Trackpoint>
            <Time>2021-08-09T11:51:55.000Z</Time>
            <Position>
              <LatitudeDegrees>43.0376471020281314849853515625</LatitudeDegrees>
              <LongitudeDegrees>-1.7559364624321460723876953125</LongitudeDegrees>
            </Position>
            <AltitudeMeters>659.4000244140625</AltitudeMeters>
            <DistanceMeters>NAN</DistanceMeters>
          </Trackpoint>
          <Trackpoint>
            <Time>2021-08-09T11:51:56.000Z</Time>
            <Position>
              <LatitudeDegrees>43.03767115809023380279541015625</LatitudeDegrees>
              <LongitudeDegrees>-1.75591106526553630828857421875</LongitudeDegrees>
            </Position>
            <AltitudeMeters>659.4000244140625</AltitudeMeters>
            <DistanceMeters>NAN</DistanceMeters>
          </Trackpoint>
          <Trackpoint>
            <Time>2021-08-09T11:51:57.000Z</Time>
            <Position>
              <LatitudeDegrees>43.0376913584768772125244140625</LatitudeDegrees>
              <LongitudeDegrees>-1.75588608719408512115478515625</LongitudeDegrees>
            </Position>
            <AltitudeMeters>659.5999755859375</AltitudeMeters>
            <DistanceMeters>NAN</DistanceMeters>
          </Trackpoint>
          <Trackpoint>
            <Time>2021-08-09T11:51:58.000Z</Time>
            <Position>
              <LatitudeDegrees>43.03771424107253551483154296875</LatitudeDegrees>
              <LongitudeDegrees>-1.7558613605797290802001953125</LongitudeDegrees>
            </Position>
            <AltitudeMeters>659.5999755859375</AltitudeMeters>
            <DistanceMeters>NAN</DistanceMeters>
          </Trackpoint>
          <Trackpoint>
            <Time>2021-08-09T11:51:59.000Z</Time>
            <Position>
              <LatitudeDegrees>43.03774106316268444061279296875</LatitudeDegrees>
              <LongitudeDegrees>-1.75583177246153354644775390625</LongitudeDegrees>
            </Position>
            <AltitudeMeters>659.79998779296875</AltitudeMeters>
            <DistanceMeters>NAN</DistanceMeters>
          </Trackpoint>
          <Trackpoint>
            <Time>2021-08-09T11:52:00.000Z</Time>
            <Position>
              <LatitudeDegrees>43.0377701483666896820068359375</LatitudeDegrees>
              <LongitudeDegrees>-1.75579547882080078125</LongitudeDegrees>
            </Position>
            <AltitudeMeters>659.79998779296875</AltitudeMeters>
            <DistanceMeters>NAN</DistanceMeters>
          </Trackpoint>
          <Trackpoint>
            <Time>2021-08-09T11:52:01.000Z</Time>
            <Position>
              <LatitudeDegrees>43.03779856301844120025634765625</LatitudeDegrees>
              <LongitudeDegrees>-1.7557597719132900238037109375</LongitudeDegrees>
            </Position>
            <AltitudeMeters>660</AltitudeMeters>
            <DistanceMeters>NAN</DistanceMeters>
          </Trackpoint>
          <Trackpoint>
            <Time>2021-08-09T11:52:02.000Z</Time>
            <Position>
              <LatitudeDegrees>43.03782052360475063323974609375</LatitudeDegrees>
              <LongitudeDegrees>-1.755735464394092559814453125</LongitudeDegrees>
            </Position>
            <AltitudeMeters>660</AltitudeMeters>
            <DistanceMeters>NAN</DistanceMeters>
          </Trackpoint>
          <Trackpoint>
            <Time>2021-08-09T11:52:03.000Z</Time>
            <Position>
              <LatitudeDegrees>43.03784147836267948150634765625</LatitudeDegrees>
              <LongitudeDegrees>-1.755726747214794158935546875</LongitudeDegrees>
            </Position>
            <AltitudeMeters>660</AltitudeMeters>
            <DistanceMeters>NAN</DistanceMeters>
          </Trackpoint>
          <Trackpoint>
            <Time>2021-08-09T11:52:04.000Z</Time>
            <Position>
              <LatitudeDegrees>43.0378697253763675689697265625</LatitudeDegrees>
              <LongitudeDegrees>-1.75571040250360965728759765625</LongitudeDegrees>
            </Position>
            <AltitudeMeters>660.20001220703125</AltitudeMeters>
            <DistanceMeters>NAN</DistanceMeters>
          </Trackpoint>
          <Trackpoint>
            <Time>2021-08-09T11:52:05.000Z</Time>
            <Position>
              <LatitudeDegrees>43.03789772093296051025390625</LatitudeDegrees>
              <LongitudeDegrees>-1.75568911246955394744873046875</LongitudeDegrees>
            </Position>
            <AltitudeMeters>660.20001220703125</AltitudeMeters>
            <DistanceMeters>NAN</DistanceMeters>
          </Trackpoint>
          <Trackpoint>
            <Time>2021-08-09T11:52:06.000Z</Time>
            <Position>
              <LatitudeDegrees>43.037919513881206512451171875</LatitudeDegrees>
              <LongitudeDegrees>-1.755675785243511199951171875</LongitudeDegrees>
            </Position>
            <AltitudeMeters>660.4000244140625</AltitudeMeters>
            <DistanceMeters>NAN</DistanceMeters>
          </Trackpoint>
          <Trackpoint>
            <Time>2021-08-09T11:52:07.000Z</Time>
            <Position>
              <LatitudeDegrees>43.03794943727552890777587890625</LatitudeDegrees>
              <LongitudeDegrees>-1.755668409168720245361328125</LongitudeDegrees>
            </Position>
            <AltitudeMeters>660.4000244140625</AltitudeMeters>
            <DistanceMeters>NAN</DistanceMeters>
          </Trackpoint>
          <Trackpoint>
            <Time>2021-08-09T11:52:08.000Z</Time>
            <Position>
              <LatitudeDegrees>43.03797860629856586456298828125</LatitudeDegrees>
              <LongitudeDegrees>-1.7556560039520263671875</LongitudeDegrees>
            </Position>
            <AltitudeMeters>660.5999755859375</AltitudeMeters>
            <DistanceMeters>NAN</DistanceMeters>
          </Trackpoint>
          <Trackpoint>
            <Time>2021-08-09T11:52:09.000Z</Time>
            <Position>
              <LatitudeDegrees>43.03800358437001705169677734375</LatitudeDegrees>
              <LongitudeDegrees>-1.755636222660541534423828125</LongitudeDegrees>
            </Position>
            <AltitudeMeters>660.4000244140625</AltitudeMeters>
            <DistanceMeters>NAN</DistanceMeters>
          </Trackpoint>
          <Trackpoint>
            <Time>2021-08-09T11:52:10.000Z</Time>
            <Position>
              <LatitudeDegrees>43.038025461137294769287109375</LatitudeDegrees>
              <LongitudeDegrees>-1.7556139267981052398681640625</LongitudeDegrees>
            </Position>
            <AltitudeMeters>660.5999755859375</AltitudeMeters>
            <DistanceMeters>NAN</DistanceMeters>
          </Trackpoint>
          <Trackpoint>
            <Time>2021-08-09T11:52:11.000Z</Time>
            <Position>
              <LatitudeDegrees>43.038046248257160186767578125</LatitudeDegrees>
              <LongitudeDegrees>-1.75559070892632007598876953125</LongitudeDegrees>
            </Position>
            <AltitudeMeters>660.79998779296875</AltitudeMeters>
            <DistanceMeters>NAN</DistanceMeters>
          </Trackpoint>
          <Trackpoint>
            <Time>2021-08-09T11:52:12.000Z</Time>
            <Position>
              <LatitudeDegrees>43.0380673706531524658203125</LatitudeDegrees>
              <LongitudeDegrees>-1.755561791360378265380859375</LongitudeDegrees>
            </Position>
            <AltitudeMeters>660.79998779296875</AltitudeMeters>
            <DistanceMeters>NAN</DistanceMeters>
          </Trackpoint>
          <Trackpoint>
            <Time>2021-08-09T11:52:13.000Z</Time>
            <Position>
              <LatitudeDegrees>43.0380900017917156219482421875</LatitudeDegrees>
              <LongitudeDegrees>-1.755534298717975616455078125</LongitudeDegrees>
            </Position>
            <AltitudeMeters>661</AltitudeMeters>
            <DistanceMeters>NAN</DistanceMeters>
          </Trackpoint>
          <Trackpoint>
            <Time>2021-08-09T11:52:14.000Z</Time>
            <Position>
              <LatitudeDegrees>43.0381091125309467315673828125</LatitudeDegrees>
              <LongitudeDegrees>-1.7555103264749050140380859375</LongitudeDegrees>
            </Position>
            <AltitudeMeters>661</AltitudeMeters>
            <DistanceMeters>NAN</DistanceMeters>
          </Trackpoint>
          <Trackpoint>
            <Time>2021-08-09T11:52:15.000Z</Time>
            <Position>
              <LatitudeDegrees>43.03812562488019466400146484375</LatitudeDegrees>
              <LongitudeDegrees>-1.75547964870929718017578125</LongitudeDegrees>
            </Position>
            <AltitudeMeters>661.20001220703125</AltitudeMeters>
            <DistanceMeters>NAN</DistanceMeters>
          </Trackpoint>
          <Trackpoint>
            <Time>2021-08-09T11:52:16.000Z</Time>
            <Position>
              <LatitudeDegrees>43.038141466677188873291015625</LatitudeDegrees>
              <LongitudeDegrees>-1.75544737838208675384521484375</LongitudeDegrees>
            </Position>
            <AltitudeMeters>661.20001220703125</AltitudeMeters>
            <DistanceMeters>NAN</DistanceMeters>
          </Trackpoint>
          <Trackpoint>
            <Time>2021-08-09T11:52:17.000Z</Time>
            <Position>
              <LatitudeDegrees>43.03815714083611965179443359375</LatitudeDegrees>
              <LongitudeDegrees>-1.7554164491593837738037109375</LongitudeDegrees>
            </Position>
            <AltitudeMeters>661.20001220703125</AltitudeMeters>
            <DistanceMeters>NAN</DistanceMeters>
          </Trackpoint>
          <Trackpoint>
            <Time>2021-08-09T11:52:18.000Z</Time>
            <Position>
              <LatitudeDegrees>43.038170970976352691650390625</LatitudeDegrees>
              <LongitudeDegrees>-1.75538216717541217803955078125</LongitudeDegrees>
            </Position>
            <AltitudeMeters>661.20001220703125</AltitudeMeters>
            <DistanceMeters>NAN</DistanceMeters>
          </Trackpoint>
          <Trackpoint>
            <Time>2021-08-09T11:52:19.000Z</Time>
            <Position>
              <LatitudeDegrees>43.03818203508853912353515625</LatitudeDegrees>
              <LongitudeDegrees>-1.7553457058966159820556640625</LongitudeDegrees>
            </Position>
            <AltitudeMeters>661.4000244140625</AltitudeMeters>
            <DistanceMeters>NAN</DistanceMeters>
          </Trackpoint>
          <Trackpoint>
            <Time>2021-08-09T11:52:20.000Z</Time>
            <Position>
              <LatitudeDegrees>43.03819268010556697845458984375</LatitudeDegrees>
              <LongitudeDegrees>-1.75530941225588321685791015625</LongitudeDegrees>
            </Position>
            <AltitudeMeters>661.4000244140625</AltitudeMeters>
            <DistanceMeters>NAN</DistanceMeters>
          </Trackpoint>
          <Trackpoint>
            <Time>2021-08-09T11:52:21.000Z</Time>
            <Position>
              <LatitudeDegrees>43.03820223547518253326416015625</LatitudeDegrees>
              <LongitudeDegrees>-1.75527303479611873626708984375</LongitudeDegrees>
            </Position>
            <AltitudeMeters>661.4000244140625</AltitudeMeters>
            <DistanceMeters>NAN</DistanceMeters>
          </Trackpoint>
          <Trackpoint>
            <Time>2021-08-09T11:52:22.000Z</Time>
            <Position>
              <LatitudeDegrees>43.03821019828319549560546875</LatitudeDegrees>
              <LongitudeDegrees>-1.75523732788860797882080078125</LongitudeDegrees>
            </Position>
            <AltitudeMeters>661.5999755859375</AltitudeMeters>
            <DistanceMeters>NAN</DistanceMeters>
          </Trackpoint>
          <Trackpoint>
            <Time>2021-08-09T11:52:23.000Z</Time>
            <Position>
              <LatitudeDegrees>43.03821715526282787322998046875</LatitudeDegrees>
              <LongitudeDegrees>-1.7552038840949535369873046875</LongitudeDegrees>
            </Position>
            <AltitudeMeters>661.79998779296875</AltitudeMeters>
            <DistanceMeters>NAN</DistanceMeters>
          </Trackpoint>
          <Trackpoint>
            <Time>2021-08-09T11:52:24.000Z</Time>
            <Position>
              <LatitudeDegrees>43.0382231064140796661376953125</LatitudeDegrees>
              <LongitudeDegrees>-1.75516809336841106414794921875</LongitudeDegrees>
            </Position>
            <AltitudeMeters>662</AltitudeMeters>
            <DistanceMeters>NAN</DistanceMeters>
          </Trackpoint>
          <Trackpoint>
            <Time>2021-08-09T11:52:25.000Z</Time>
            <Position>
              <LatitudeDegrees>43.03822956047952175140380859375</LatitudeDegrees>
              <LongitudeDegrees>-1.75513020716607570648193359375</LongitudeDegrees>
            </Position>
            <AltitudeMeters>662</AltitudeMeters>
            <DistanceMeters>NAN</DistanceMeters>
          </Trackpoint>
          <Trackpoint>
            <Time>2021-08-09T11:52:26.000Z</Time>
            <Position>
              <LatitudeDegrees>43.03823391906917095184326171875</LatitudeDegrees>
              <LongitudeDegrees>-1.75509332679212093353271484375</LongitudeDegrees>
            </Position>
            <AltitudeMeters>662.20001220703125</AltitudeMeters>
            <DistanceMeters>NAN</DistanceMeters>
          </Trackpoint>
          <Trackpoint>
            <Time>2021-08-09T11:52:27.000Z</Time>
            <Position>
              <LatitudeDegrees>43.03823995403945446014404296875</LatitudeDegrees>
              <LongitudeDegrees>-1.7550556920468807220458984375</LongitudeDegrees>
            </Position>
            <AltitudeMeters>662.20001220703125</AltitudeMeters>
            <DistanceMeters>NAN</DistanceMeters>
          </Trackpoint>
          <Trackpoint>
            <Time>2021-08-09T11:52:28.000Z</Time>
            <Position>
              <LatitudeDegrees>43.03824397735297679901123046875</LatitudeDegrees>
              <LongitudeDegrees>-1.755019985139369964599609375</LongitudeDegrees>
            </Position>
            <AltitudeMeters>662.4000244140625</AltitudeMeters>
            <DistanceMeters>NAN</DistanceMeters>
          </Trackpoint>
          <Trackpoint>
            <Time>2021-08-09T11:52:29.000Z</Time>
            <Position>
              <LatitudeDegrees>43.0382455699145793914794921875</LatitudeDegrees>
              <LongitudeDegrees>-1.7549856193363666534423828125</LongitudeDegrees>
            </Position>
            <AltitudeMeters>662.4000244140625</AltitudeMeters>
            <DistanceMeters>NAN</DistanceMeters>
          </Trackpoint>
          <Trackpoint>
            <Time>2021-08-09T11:52:30.000Z</Time>
            <Position>
              <LatitudeDegrees>43.0382495932281017303466796875</LatitudeDegrees>
              <LongitudeDegrees>-1.75494731403887271881103515625</LongitudeDegrees>
            </Position>
            <AltitudeMeters>662.5999755859375</AltitudeMeters>
            <DistanceMeters>NAN</DistanceMeters>
          </Trackpoint>
          <Trackpoint>
            <Time>2021-08-09T11:52:31.000Z</Time>
            <Position>
              <LatitudeDegrees>43.038254119455814361572265625</LatitudeDegrees>
              <LongitudeDegrees>-1.7549014650285243988037109375</LongitudeDegrees>
            </Position>
            <AltitudeMeters>662.5999755859375</AltitudeMeters>
            <DistanceMeters>NAN</DistanceMeters>
          </Trackpoint>
          <Trackpoint>
            <Time>2021-08-09T11:52:32.000Z</Time>
            <Position>
              <LatitudeDegrees>43.0382566340267658233642578125</LatitudeDegrees>
              <LongitudeDegrees>-1.75486684776842594146728515625</LongitudeDegrees>
            </Position>
            <AltitudeMeters>662.5999755859375</AltitudeMeters>
            <DistanceMeters>NAN</DistanceMeters>
          </Trackpoint>
          <Trackpoint>
            <Time>2021-08-09T11:52:33.000Z</Time>
            <Position>
              <LatitudeDegrees>43.03826124407351016998291015625</LatitudeDegrees>
              <LongitudeDegrees>-1.754829548299312591552734375</LongitudeDegrees>
            </Position>
            <AltitudeMeters>662.79998779296875</AltitudeMeters>
            <DistanceMeters>NAN</DistanceMeters>
          </Trackpoint>
          <Trackpoint>
            <Time>2021-08-09T11:52:34.000Z</Time>
            <Position>
              <LatitudeDegrees>43.038266189396381378173828125</LatitudeDegrees>
              <LongitudeDegrees>-1.75479224883019924163818359375</LongitudeDegrees>
            </Position>
            <AltitudeMeters>663</AltitudeMeters>
            <DistanceMeters>NAN</DistanceMeters>
          </Trackpoint>
          <Trackpoint>
            <Time>2021-08-09T11:52:35.000Z</Time>
            <Position>
              <LatitudeDegrees>43.03826912306249141693115234375</LatitudeDegrees>
              <LongitudeDegrees>-1.7547552846372127532958984375</LongitudeDegrees>
            </Position>
            <AltitudeMeters>663.20001220703125</AltitudeMeters>
            <DistanceMeters>NAN</DistanceMeters>
          </Trackpoint>
          <Trackpoint>
            <Time>2021-08-09T11:52:36.000Z</Time>
            <Position>
              <LatitudeDegrees>43.03827214054763317108154296875</LatitudeDegrees>
              <LongitudeDegrees>-1.754716224968433380126953125</LongitudeDegrees>
            </Position>
            <AltitudeMeters>663.4000244140625</AltitudeMeters>
            <DistanceMeters>NAN</DistanceMeters>
          </Trackpoint>
          <Trackpoint>
            <Time>2021-08-09T11:52:37.000Z</Time>
            <Position>
              <LatitudeDegrees>43.0382767505943775177001953125</LatitudeDegrees>
              <LongitudeDegrees>-1.75467766821384429931640625</LongitudeDegrees>
            </Position>
            <AltitudeMeters>663.4000244140625</AltitudeMeters>
            <DistanceMeters>NAN</DistanceMeters>
          </Trackpoint>
          <Trackpoint>
            <Time>2021-08-09T11:52:38.000Z</Time>
            <Position>
              <LatitudeDegrees>43.038284964859485626220703125</LatitudeDegrees>
              <LongitudeDegrees>-1.75463877618312835693359375</LongitudeDegrees>
            </Position>
            <AltitudeMeters>663.4000244140625</AltitudeMeters>
            <DistanceMeters>NAN</DistanceMeters>
          </Trackpoint>
          <Trackpoint>
            <Time>2021-08-09T11:52:39.000Z</Time>
            <Position>
              <LatitudeDegrees>43.03829066455364227294921875</LatitudeDegrees>
              <LongitudeDegrees>-1.7546000517904758453369140625</LongitudeDegrees>
            </Position>
            <AltitudeMeters>663.4000244140625</AltitudeMeters>
            <DistanceMeters>NAN</DistanceMeters>
          </Trackpoint>
          <Trackpoint>
            <Time>2021-08-09T11:52:40.000Z</Time>
            <Position>
              <LatitudeDegrees>43.038296364247798919677734375</LatitudeDegrees>
              <LongitudeDegrees>-1.7545616626739501953125</LongitudeDegrees>
            </Position>
            <AltitudeMeters>663.5999755859375</AltitudeMeters>
            <DistanceMeters>NAN</DistanceMeters>
          </Trackpoint>
          <Trackpoint>
            <Time>2021-08-09T11:52:41.000Z</Time>
            <Position>
              <LatitudeDegrees>43.03830449469387531280517578125</LatitudeDegrees>
              <LongitudeDegrees>-1.7545256204903125762939453125</LongitudeDegrees>
            </Position>
            <AltitudeMeters>663.5999755859375</AltitudeMeters>
            <DistanceMeters>NAN</DistanceMeters>
          </Trackpoint>
          <Trackpoint>
            <Time>2021-08-09T11:52:42.000Z</Time>
            <Position>
              <LatitudeDegrees>43.0383129604160785675048828125</LatitudeDegrees>
              <LongitudeDegrees>-1.75448932684957981109619140625</LongitudeDegrees>
            </Position>
            <AltitudeMeters>663.79998779296875</AltitudeMeters>
            <DistanceMeters>NAN</DistanceMeters>
          </Trackpoint>
          <Trackpoint>
            <Time>2021-08-09T11:52:43.000Z</Time>
            <Position>
              <LatitudeDegrees>43.0383200012147426605224609375</LatitudeDegrees>
              <LongitudeDegrees>-1.7544545419514179229736328125</LongitudeDegrees>
            </Position>
            <AltitudeMeters>664</AltitudeMeters>
            <DistanceMeters>NAN</DistanceMeters>
          </Trackpoint>
          <Trackpoint>
            <Time>2021-08-09T11:52:44.000Z</Time>
            <Position>
              <LatitudeDegrees>43.038326203823089599609375</LatitudeDegrees>
              <LongitudeDegrees>-1.7544190026819705963134765625</LongitudeDegrees>
            </Position>
            <AltitudeMeters>664</AltitudeMeters>
            <DistanceMeters>NAN</DistanceMeters>
          </Trackpoint>
          <Trackpoint>
            <Time>2021-08-09T11:52:45.000Z</Time>
            <Position>
              <LatitudeDegrees>43.038333244621753692626953125</LatitudeDegrees>
              <LongitudeDegrees>-1.75438337959349155426025390625</LongitudeDegrees>
            </Position>
            <AltitudeMeters>664.20001220703125</AltitudeMeters>
            <DistanceMeters>NAN</DistanceMeters>
          </Trackpoint>
          <Trackpoint>
            <Time>2021-08-09T11:52:46.000Z</Time>
            <Position>
              <LatitudeDegrees>43.03833751939237117767333984375</LatitudeDegrees>
              <LongitudeDegrees>-1.7543499357998371124267578125</LongitudeDegrees>
            </Position>
            <AltitudeMeters>664.20001220703125</AltitudeMeters>
            <DistanceMeters>NAN</DistanceMeters>
          </Trackpoint>
          <Trackpoint>
            <Time>2021-08-09T11:52:47.000Z</Time>
            <Position>
              <LatitudeDegrees>43.03834338672459125518798828125</LatitudeDegrees>
              <LongitudeDegrees>-1.7543170787394046783447265625</LongitudeDegrees>
            </Position>
            <AltitudeMeters>664.4000244140625</AltitudeMeters>
            <DistanceMeters>NAN</DistanceMeters>
          </Trackpoint>
          <Trackpoint>
            <Time>2021-08-09T11:52:48.000Z</Time>
            <Position>
              <LatitudeDegrees>43.0383490025997161865234375</LatitudeDegrees>
              <LongitudeDegrees>-1.7542838864028453826904296875</LongitudeDegrees>
            </Position>
            <AltitudeMeters>664.5999755859375</AltitudeMeters>
            <DistanceMeters>NAN</DistanceMeters>
          </Trackpoint>
          <Trackpoint>
            <Time>2021-08-09T11:52:49.000Z</Time>
            <Position>
              <LatitudeDegrees>43.0383543670177459716796875</LatitudeDegrees>
              <LongitudeDegrees>-1.7542493529617786407470703125</LongitudeDegrees>
            </Position>
            <AltitudeMeters>664.79998779296875</AltitudeMeters>
            <DistanceMeters>NAN</DistanceMeters>
          </Trackpoint>
          <Trackpoint>
            <Time>2021-08-09T11:52:50.000Z</Time>
            <Position>
              <LatitudeDegrees>43.03835780359804630279541015625</LatitudeDegrees>
              <LongitudeDegrees>-1.7542143166065216064453125</LongitudeDegrees>
            </Position>
            <AltitudeMeters>665</AltitudeMeters>
            <DistanceMeters>NAN</DistanceMeters>
          </Trackpoint>
          <Trackpoint>
            <Time>2021-08-09T11:52:51.000Z</Time>
            <Position>
              <LatitudeDegrees>43.03836216218769550323486328125</LatitudeDegrees>
              <LongitudeDegrees>-1.75417634658515453338623046875</LongitudeDegrees>
            </Position>
            <AltitudeMeters>665.20001220703125</AltitudeMeters>
            <DistanceMeters>NAN</DistanceMeters>
          </Trackpoint>
          <Trackpoint>
            <Time>2021-08-09T11:52:52.000Z</Time>
            <Position>
              <LatitudeDegrees>43.0383712984621524810791015625</LatitudeDegrees>
              <LongitudeDegrees>-1.75414047203958034515380859375</LongitudeDegrees>
            </Position>
            <AltitudeMeters>665.4000244140625</AltitudeMeters>
            <DistanceMeters>NAN</DistanceMeters>
          </Trackpoint>
          <Trackpoint>
            <Time>2021-08-09T11:52:53.000Z</Time>
            <Position>
              <LatitudeDegrees>43.038379848003387451171875</LatitudeDegrees>
              <LongitudeDegrees>-1.75410811789333820343017578125</LongitudeDegrees>
            </Position>
            <AltitudeMeters>665.5999755859375</AltitudeMeters>
            <DistanceMeters>NAN</DistanceMeters>
          </Trackpoint>
          <Trackpoint>
            <Time>2021-08-09T11:52:54.000Z</Time>
            <Position>
              <LatitudeDegrees>43.03839082829654216766357421875</LatitudeDegrees>
              <LongitudeDegrees>-1.75407861359417438507080078125</LongitudeDegrees>
            </Position>
            <AltitudeMeters>665.79998779296875</AltitudeMeters>
            <DistanceMeters>NAN</DistanceMeters>
          </Trackpoint>
          <Trackpoint>
            <Time>2021-08-09T11:52:55.000Z</Time>
            <Position>
              <LatitudeDegrees>43.03840138949453830718994140625</LatitudeDegrees>
              <LongitudeDegrees>-1.754045002162456512451171875</LongitudeDegrees>
            </Position>
            <AltitudeMeters>665.79998779296875</AltitudeMeters>
            <DistanceMeters>NAN</DistanceMeters>
          </Trackpoint>
          <Trackpoint>
            <Time>2021-08-09T11:52:56.000Z</Time>
            <Position>
              <LatitudeDegrees>43.03841412998735904693603515625</LatitudeDegrees>
              <LongitudeDegrees>-1.7540149949491024017333984375</LongitudeDegrees>
            </Position>
            <AltitudeMeters>666</AltitudeMeters>
            <DistanceMeters>NAN</DistanceMeters>
          </Trackpoint>
          <Trackpoint>
            <Time>2021-08-09T11:52:57.000Z</Time>
            <Position>
              <LatitudeDegrees>43.0384272895753383636474609375</LatitudeDegrees>
              <LongitudeDegrees>-1.7539858259260654449462890625</LongitudeDegrees>
            </Position>
            <AltitudeMeters>666.4000244140625</AltitudeMeters>
            <DistanceMeters>NAN</DistanceMeters>
          </Trackpoint>
          <Trackpoint>
            <Time>2021-08-09T11:52:58.000Z</Time>
            <Position>
              <LatitudeDegrees>43.03844153881072998046875</LatitudeDegrees>
              <LongitudeDegrees>-1.75395959056913852691650390625</LongitudeDegrees>
            </Position>
            <AltitudeMeters>666.5999755859375</AltitudeMeters>
            <DistanceMeters>NAN</DistanceMeters>
          </Trackpoint>
          <Trackpoint>
            <Time>2021-08-09T11:52:59.000Z</Time>
            <Position>
              <LatitudeDegrees>43.03845771588385105133056640625</LatitudeDegrees>
              <LongitudeDegrees>-1.753929667174816131591796875</LongitudeDegrees>
            </Position>
            <AltitudeMeters>667</AltitudeMeters>
            <DistanceMeters>NAN</DistanceMeters>
          </Trackpoint>
          <Trackpoint>
            <Time>2021-08-09T11:53:00.000Z</Time>
            <Position>
              <LatitudeDegrees>43.03847582079470157623291015625</LatitudeDegrees>
              <LongitudeDegrees>-1.7539023421704769134521484375</LongitudeDegrees>
            </Position>
            <AltitudeMeters>667</AltitudeMeters>
            <DistanceMeters>NAN</DistanceMeters>
          </Trackpoint>
          <Trackpoint>
            <Time>2021-08-09T11:53:01.000Z</Time>
            <Position>
              <LatitudeDegrees>43.03849543444812297821044921875</LatitudeDegrees>
              <LongitudeDegrees>-1.753876693546772003173828125</LongitudeDegrees>
            </Position>
            <AltitudeMeters>667.4000244140625</AltitudeMeters>
            <DistanceMeters>NAN</DistanceMeters>
          </Trackpoint>
          <Trackpoint>
            <Time>2021-08-09T11:53:02.000Z</Time>
            <Position>
              <LatitudeDegrees>43.0385161377489566802978515625</LatitudeDegrees>
              <LongitudeDegrees>-1.7538547329604625701904296875</LongitudeDegrees>
            </Position>
            <AltitudeMeters>667.4000244140625</AltitudeMeters>
            <DistanceMeters>NAN</DistanceMeters>
          </Trackpoint>
          <Trackpoint>
            <Time>2021-08-09T11:53:03.000Z</Time>
            <Position>
              <LatitudeDegrees>43.03853868506848812103271484375</LatitudeDegrees>
              <LongitudeDegrees>-1.75383620895445346832275390625</LongitudeDegrees>
            </Position>
            <AltitudeMeters>667.5999755859375</AltitudeMeters>
            <DistanceMeters>NAN</DistanceMeters>
          </Trackpoint>
          <Trackpoint>
            <Time>2021-08-09T11:53:04.000Z</Time>
            <Position>
              <LatitudeDegrees>43.03855947218835353851318359375</LatitudeDegrees>
              <LongitudeDegrees>-1.7538128234446048736572265625</LongitudeDegrees>
            </Position>
            <AltitudeMeters>667.5999755859375</AltitudeMeters>
            <DistanceMeters>NAN</DistanceMeters>
          </Trackpoint>
          <Trackpoint>
            <Time>2021-08-09T11:53:05.000Z</Time>
            <Position>
              <LatitudeDegrees>43.0385795049369335174560546875</LatitudeDegrees>
              <LongitudeDegrees>-1.75379195250570774078369140625</LongitudeDegrees>
            </Position>
            <AltitudeMeters>668</AltitudeMeters>
            <DistanceMeters>NAN</DistanceMeters>
          </Trackpoint>
          <Trackpoint>
            <Time>2021-08-09T11:53:06.000Z</Time>
            <Position>
              <LatitudeDegrees>43.03859551437199115753173828125</LatitudeDegrees>
              <LongitudeDegrees>-1.75377854146063327789306640625</LongitudeDegrees>
            </Position>
            <AltitudeMeters>668</AltitudeMeters>
            <DistanceMeters>NAN</DistanceMeters>
          </Trackpoint>
          <Trackpoint>
            <Time>2021-08-09T11:53:07.000Z</Time>
            <Position>
              <LatitudeDegrees>43.03862300701439380645751953125</LatitudeDegrees>
              <LongitudeDegrees>-1.7537621967494487762451171875</LongitudeDegrees>
            </Position>
            <AltitudeMeters>668</AltitudeMeters>
            <DistanceMeters>NAN</DistanceMeters>
          </Trackpoint>
          <Trackpoint>
            <Time>2021-08-09T11:53:08.000Z</Time>
            <Position>
              <LatitudeDegrees>43.038642369210720062255859375</LatitudeDegrees>
              <LongitudeDegrees>-1.753748953342437744140625</LongitudeDegrees>
            </Position>
            <AltitudeMeters>668.20001220703125</AltitudeMeters>
            <DistanceMeters>NAN</DistanceMeters>
          </Trackpoint>
          <Trackpoint>
            <Time>2021-08-09T11:53:09.000Z</Time>
            <Position>
              <LatitudeDegrees>43.03866441361606121063232421875</LatitudeDegrees>
              <LongitudeDegrees>-1.75373646430671215057373046875</LongitudeDegrees>
            </Position>
            <AltitudeMeters>668.4000244140625</AltitudeMeters>
            <DistanceMeters>NAN</DistanceMeters>
          </Trackpoint>
          <Trackpoint>
            <Time>2021-08-09T11:53:10.000Z</Time>
            <Position>
              <LatitudeDegrees>43.03868888877332210540771484375</LatitudeDegrees>
              <LongitudeDegrees>-1.75372238270938396453857421875</LongitudeDegrees>
            </Position>
            <AltitudeMeters>668.4000244140625</AltitudeMeters>
            <DistanceMeters>NAN</DistanceMeters>
          </Trackpoint>
          <Trackpoint>
            <Time>2021-08-09T11:53:11.000Z</Time>
            <Position>
              <LatitudeDegrees>43.0387129448354244232177734375</LatitudeDegrees>
              <LongitudeDegrees>-1.75370939075946807861328125</LongitudeDegrees>
            </Position>
            <AltitudeMeters>668.5999755859375</AltitudeMeters>
            <DistanceMeters>NAN</DistanceMeters>
          </Trackpoint>
          <Trackpoint>
            <Time>2021-08-09T11:53:12.000Z</Time>
            <Position>
              <LatitudeDegrees>43.03873096592724323272705078125</LatitudeDegrees>
              <LongitudeDegrees>-1.75370327197015285491943359375</LongitudeDegrees>
            </Position>
            <AltitudeMeters>668.79998779296875</AltitudeMeters>
            <DistanceMeters>NAN</DistanceMeters>
          </Trackpoint>
          <Trackpoint>
            <Time>2021-08-09T11:53:13.000Z</Time>
            <Position>
              <LatitudeDegrees>43.03875544108450412750244140625</LatitudeDegrees>
              <LongitudeDegrees>-1.75369271077215671539306640625</LongitudeDegrees>
            </Position>
            <AltitudeMeters>669</AltitudeMeters>
            <DistanceMeters>NAN</DistanceMeters>
          </Trackpoint>
          <Trackpoint>
            <Time>2021-08-09T11:53:14.000Z</Time>
            <Position>
              <LatitudeDegrees>43.03877614438533782958984375</LatitudeDegrees>
              <LongitudeDegrees>-1.75368659198284149169921875</LongitudeDegrees>
            </Position>
            <AltitudeMeters>669</AltitudeMeters>
            <DistanceMeters>NAN</DistanceMeters>
          </Trackpoint>
          <Trackpoint>
            <Time>2021-08-09T11:53:15.000Z</Time>
            <Position>
              <LatitudeDegrees>43.03879952989518642425537109375</LatitudeDegrees>
              <LongitudeDegrees>-1.753679551184177398681640625</LongitudeDegrees>
            </Position>
            <AltitudeMeters>669.20001220703125</AltitudeMeters>
            <DistanceMeters>NAN</DistanceMeters>
          </Trackpoint>
          <Trackpoint>
            <Time>2021-08-09T11:53:16.000Z</Time>
            <Position>
              <LatitudeDegrees>43.03882517851889133453369140625</LatitudeDegrees>
              <LongitudeDegrees>-1.75366907380521297454833984375</LongitudeDegrees>
            </Position>
            <AltitudeMeters>669.4000244140625</AltitudeMeters>
            <DistanceMeters>NAN</DistanceMeters>
          </Trackpoint>
          <Trackpoint>
            <Time>2021-08-09T11:53:17.000Z</Time>
            <Position>
              <LatitudeDegrees>43.038848228752613067626953125</LatitudeDegrees>
              <LongitudeDegrees>-1.75365398637950420379638671875</LongitudeDegrees>
            </Position>
            <AltitudeMeters>669.5999755859375</AltitudeMeters>
            <DistanceMeters>NAN</DistanceMeters>
          </Trackpoint>
          <Trackpoint>
            <Time>2021-08-09T11:53:18.000Z</Time>
            <Position>
              <LatitudeDegrees>43.0388681776821613311767578125</LatitudeDegrees>
              <LongitudeDegrees>-1.75364308990538120269775390625</LongitudeDegrees>
            </Position>
            <AltitudeMeters>669.5999755859375</AltitudeMeters>
            <DistanceMeters>NAN</DistanceMeters>
          </Trackpoint>
          <Trackpoint>
            <Time>2021-08-09T11:53:19.000Z</Time>
            <Position>
              <LatitudeDegrees>43.038894496858119964599609375</LatitudeDegrees>
              <LongitudeDegrees>-1.75364024005830287933349609375</LongitudeDegrees>
            </Position>
            <AltitudeMeters>669.79998779296875</AltitudeMeters>
            <DistanceMeters>NAN</DistanceMeters>
          </Trackpoint>
          <Trackpoint>
            <Time>2021-08-09T11:53:20.000Z</Time>
            <Position>
              <LatitudeDegrees>43.03891972638666629791259765625</LatitudeDegrees>
              <LongitudeDegrees>-1.75363739021122455596923828125</LongitudeDegrees>
            </Position>
            <AltitudeMeters>670</AltitudeMeters>
            <DistanceMeters>NAN</DistanceMeters>
          </Trackpoint>
          <Trackpoint>
            <Time>2021-08-09T11:53:21.000Z</Time>
            <Position>
              <LatitudeDegrees>43.03894470445811748504638671875</LatitudeDegrees>
              <LongitudeDegrees>-1.75363336689770221710205078125</LongitudeDegrees>
            </Position>
            <AltitudeMeters>670</AltitudeMeters>
            <DistanceMeters>NAN</DistanceMeters>
          </Trackpoint>
          <Trackpoint>
            <Time>2021-08-09T11:53:22.000Z</Time>
            <Position>
              <LatitudeDegrees>43.0389664135873317718505859375</LatitudeDegrees>
              <LongitudeDegrees>-1.75362582318484783172607421875</LongitudeDegrees>
            </Position>
            <AltitudeMeters>670</AltitudeMeters>
            <DistanceMeters>NAN</DistanceMeters>
          </Trackpoint>
          <Trackpoint>
            <Time>2021-08-09T11:53:23.000Z</Time>
            <Position>
              <LatitudeDegrees>43.03898694925010204315185546875</LatitudeDegrees>
              <LongitudeDegrees>-1.7536143399775028228759765625</LongitudeDegrees>
            </Position>
            <AltitudeMeters>670.20001220703125</AltitudeMeters>
            <DistanceMeters>NAN</DistanceMeters>
          </Trackpoint>
          <Trackpoint>
            <Time>2021-08-09T11:53:24.000Z</Time>
            <Position>
              <LatitudeDegrees>43.03901695646345615386962890625</LatitudeDegrees>
              <LongitudeDegrees>-1.7536062933504581451416015625</LongitudeDegrees>
            </Position>
            <AltitudeMeters>670.20001220703125</AltitudeMeters>
            <DistanceMeters>NAN</DistanceMeters>
          </Trackpoint>
          <Trackpoint>
            <Time>2021-08-09T11:53:25.000Z</Time>
            <Position>
              <LatitudeDegrees>43.039046041667461395263671875</LatitudeDegrees>
              <LongitudeDegrees>-1.7535982467234134674072265625</LongitudeDegrees>
            </Position>
            <AltitudeMeters>670.4000244140625</AltitudeMeters>
            <DistanceMeters>NAN</DistanceMeters>
          </Trackpoint>
          <Trackpoint>
            <Time>2021-08-09T11:53:26.000Z</Time>
            <Position>
              <LatitudeDegrees>43.03907127119600772857666015625</LatitudeDegrees>
              <LongitudeDegrees>-1.7535918764770030975341796875</LongitudeDegrees>
            </Position>
            <AltitudeMeters>670.5999755859375</AltitudeMeters>
            <DistanceMeters>NAN</DistanceMeters>
          </Trackpoint>
          <Trackpoint>
            <Time>2021-08-09T11:53:27.000Z</Time>
            <Position>
              <LatitudeDegrees>43.039090298116207122802734375</LatitudeDegrees>
              <LongitudeDegrees>-1.75359045155346393585205078125</LongitudeDegrees>
            </Position>
            <AltitudeMeters>670.79998779296875</AltitudeMeters>
            <DistanceMeters>NAN</DistanceMeters>
          </Trackpoint>
          <Trackpoint>
            <Time>2021-08-09T11:53:28.000Z</Time>
            <Position>
              <LatitudeDegrees>43.0391186289489269256591796875</LatitudeDegrees>
              <LongitudeDegrees>-1.75358508713543415069580078125</LongitudeDegrees>
            </Position>
            <AltitudeMeters>671</AltitudeMeters>
            <DistanceMeters>NAN</DistanceMeters>
          </Trackpoint>
          <Trackpoint>
            <Time>2021-08-09T11:53:29.000Z</Time>
            <Position>
              <LatitudeDegrees>43.03914436139166355133056640625</LatitudeDegrees>
              <LongitudeDegrees>-1.7535878531634807586669921875</LongitudeDegrees>
            </Position>
            <AltitudeMeters>671.20001220703125</AltitudeMeters>
            <DistanceMeters>NAN</DistanceMeters>
          </Trackpoint>
          <Trackpoint>
            <Time>2021-08-09T11:53:30.000Z</Time>
            <Position>
              <LatitudeDegrees>43.0391705967485904693603515625</LatitudeDegrees>
              <LongitudeDegrees>-1.753591708838939666748046875</LongitudeDegrees>
            </Position>
            <AltitudeMeters>671.20001220703125</AltitudeMeters>
            <DistanceMeters>NAN</DistanceMeters>
          </Trackpoint>
          <Trackpoint>
            <Time>2021-08-09T11:53:31.000Z</Time>
            <Position>
              <LatitudeDegrees>43.0391980893909931182861328125</LatitudeDegrees>
              <LongitudeDegrees>-1.753597073256969451904296875</LongitudeDegrees>
            </Position>
            <AltitudeMeters>671.4000244140625</AltitudeMeters>
            <DistanceMeters>NAN</DistanceMeters>
          </Trackpoint>
          <Trackpoint>
            <Time>2021-08-09T11:53:32.000Z</Time>
            <Position>
              <LatitudeDegrees>43.03921896032989025115966796875</LatitudeDegrees>
              <LongitudeDegrees>-1.753606460988521575927734375</LongitudeDegrees>
            </Position>
            <AltitudeMeters>671.5999755859375</AltitudeMeters>
            <DistanceMeters>NAN</DistanceMeters>
          </Trackpoint>
          <Trackpoint>
            <Time>2021-08-09T11:53:33.000Z</Time>
            <Position>
              <LatitudeDegrees>43.0392473749816417694091796875</LatitudeDegrees>
              <LongitudeDegrees>-1.7536277510225772857666015625</LongitudeDegrees>
            </Position>
            <AltitudeMeters>671.5999755859375</AltitudeMeters>
            <DistanceMeters>NAN</DistanceMeters>
          </Trackpoint>
          <Trackpoint>
            <Time>2021-08-09T11:53:34.000Z</Time>
            <Position>
              <LatitudeDegrees>43.0392711795866489410400390625</LatitudeDegrees>
              <LongitudeDegrees>-1.75364208407700061798095703125</LongitudeDegrees>
            </Position>
            <AltitudeMeters>671.79998779296875</AltitudeMeters>
            <DistanceMeters>NAN</DistanceMeters>
          </Trackpoint>
          <Trackpoint>
            <Time>2021-08-09T11:53:35.000Z</Time>
            <Position>
              <LatitudeDegrees>43.039294816553592681884765625</LatitudeDegrees>
              <LongitudeDegrees>-1.75365499220788478851318359375</LongitudeDegrees>
            </Position>
            <AltitudeMeters>672</AltitudeMeters>
            <DistanceMeters>NAN</DistanceMeters>
          </Trackpoint>
          <Trackpoint>
            <Time>2021-08-09T11:53:36.000Z</Time>
            <Position>
              <LatitudeDegrees>43.03931317292153835296630859375</LatitudeDegrees>
              <LongitudeDegrees>-1.7536698281764984130859375</LongitudeDegrees>
            </Position>
            <AltitudeMeters>672.20001220703125</AltitudeMeters>
            <DistanceMeters>NAN</DistanceMeters>
          </Trackpoint>
          <Trackpoint>
            <Time>2021-08-09T11:53:37.000Z</Time>
            <Position>
              <LatitudeDegrees>43.0393360555171966552734375</LatitudeDegrees>
              <LongitudeDegrees>-1.7536844126880168914794921875</LongitudeDegrees>
            </Position>
            <AltitudeMeters>672.4000244140625</AltitudeMeters>
            <DistanceMeters>NAN</DistanceMeters>
          </Trackpoint>
          <Trackpoint>
            <Time>2021-08-09T11:53:38.000Z</Time>
            <Position>
              <LatitudeDegrees>43.03936329670250415802001953125</LatitudeDegrees>
              <LongitudeDegrees>-1.75370042212307453155517578125</LongitudeDegrees>
            </Position>
            <AltitudeMeters>672.4000244140625</AltitudeMeters>
            <DistanceMeters>NAN</DistanceMeters>
          </Trackpoint>
          <Trackpoint>
            <Time>2021-08-09T11:53:39.000Z</Time>
            <Position>
              <LatitudeDegrees>43.03938358090817928314208984375</LatitudeDegrees>
              <LongitudeDegrees>-1.75371433608233928680419921875</LongitudeDegrees>
            </Position>
            <AltitudeMeters>672.5999755859375</AltitudeMeters>
            <DistanceMeters>NAN</DistanceMeters>
          </Trackpoint>
          <Trackpoint>
            <Time>2021-08-09T11:53:40.000Z</Time>
            <Position>
              <LatitudeDegrees>43.03940705023705959320068359375</LatitudeDegrees>
              <LongitudeDegrees>-1.7537316866219043731689453125</LongitudeDegrees>
            </Position>
            <AltitudeMeters>672.79998779296875</AltitudeMeters>
            <DistanceMeters>NAN</DistanceMeters>
          </Trackpoint>
          <Trackpoint>
            <Time>2021-08-09T11:53:41.000Z</Time>
            <Position>
              <LatitudeDegrees>43.0394307710230350494384765625</LatitudeDegrees>
              <LongitudeDegrees>-1.7537450976669788360595703125</LongitudeDegrees>
            </Position>
            <AltitudeMeters>673</AltitudeMeters>
            <DistanceMeters>NAN</DistanceMeters>
          </Trackpoint>
          <Trackpoint>
            <Time>2021-08-09T11:53:42.000Z</Time>
            <Position>
              <LatitudeDegrees>43.0394569225609302520751953125</LatitudeDegrees>
              <LongitudeDegrees>-1.75376479513943195343017578125</LongitudeDegrees>
            </Position>
            <AltitudeMeters>673.20001220703125</AltitudeMeters>
            <DistanceMeters>NAN</DistanceMeters>
          </Trackpoint>
          <Trackpoint>
            <Time>2021-08-09T11:53:43.000Z</Time>
            <Position>
              <LatitudeDegrees>43.039480559527873992919921875</LatitudeDegrees>
              <LongitudeDegrees>-1.75378122366964817047119140625</LongitudeDegrees>
            </Position>
            <AltitudeMeters>673.20001220703125</AltitudeMeters>
            <DistanceMeters>NAN</DistanceMeters>
          </Trackpoint>
          <Trackpoint>
            <Time>2021-08-09T11:53:44.000Z</Time>
            <Position>
              <LatitudeDegrees>43.0395028553903102874755859375</LatitudeDegrees>
              <LongitudeDegrees>-1.75379580818116664886474609375</LongitudeDegrees>
            </Position>
            <AltitudeMeters>673.4000244140625</AltitudeMeters>
            <DistanceMeters>NAN</DistanceMeters>
          </Trackpoint>
          <Trackpoint>
            <Time>2021-08-09T11:53:45.000Z</Time>
            <Position>
              <LatitudeDegrees>43.0395209603011608123779296875</LatitudeDegrees>
              <LongitudeDegrees>-1.753799915313720703125</LongitudeDegrees>
            </Position>
            <AltitudeMeters>673.5999755859375</AltitudeMeters>
            <DistanceMeters>NAN</DistanceMeters>
          </Trackpoint>
          <Trackpoint>
            <Time>2021-08-09T11:53:46.000Z</Time>
            <Position>
              <LatitudeDegrees>43.0395461060106754302978515625</LatitudeDegrees>
              <LongitudeDegrees>-1.753814332187175750732421875</LongitudeDegrees>
            </Position>
            <AltitudeMeters>673.5999755859375</AltitudeMeters>
            <DistanceMeters>NAN</DistanceMeters>
          </Trackpoint>
          <Trackpoint>
            <Time>2021-08-09T11:53:47.000Z</Time>
            <Position>
              <LatitudeDegrees>43.03956982679665088653564453125</LatitudeDegrees>
              <LongitudeDegrees>-1.7538285814225673675537109375</LongitudeDegrees>
            </Position>
            <AltitudeMeters>673.79998779296875</AltitudeMeters>
            <DistanceMeters>NAN</DistanceMeters>
          </Trackpoint>
          <Trackpoint>
            <Time>2021-08-09T11:53:48.000Z</Time>
            <Position>
              <LatitudeDegrees>43.03959195502102375030517578125</LatitudeDegrees>
              <LongitudeDegrees>-1.753844507038593292236328125</LongitudeDegrees>
            </Position>
            <AltitudeMeters>673.79998779296875</AltitudeMeters>
            <DistanceMeters>NAN</DistanceMeters>
          </Trackpoint>
          <Trackpoint>
            <Time>2021-08-09T11:53:49.000Z</Time>
            <Position>
              <LatitudeDegrees>43.03961525671184062957763671875</LatitudeDegrees>
              <LongitudeDegrees>-1.75386386923491954803466796875</LongitudeDegrees>
            </Position>
            <AltitudeMeters>674</AltitudeMeters>
            <DistanceMeters>NAN</DistanceMeters>
          </Trackpoint>
          <Trackpoint>
            <Time>2021-08-09T11:53:50.000Z</Time>
            <Position>
              <LatitudeDegrees>43.03963788785040378570556640625</LatitudeDegrees>
              <LongitudeDegrees>-1.75388214178383350372314453125</LongitudeDegrees>
            </Position>
            <AltitudeMeters>674.20001220703125</AltitudeMeters>
            <DistanceMeters>NAN</DistanceMeters>
          </Trackpoint>
          <Trackpoint>
            <Time>2021-08-09T11:53:51.000Z</Time>
            <Position>
              <LatitudeDegrees>43.0396607704460620880126953125</LatitudeDegrees>
              <LongitudeDegrees>-1.7538999952375888824462890625</LongitudeDegrees>
            </Position>
            <AltitudeMeters>674.4000244140625</AltitudeMeters>
            <DistanceMeters>NAN</DistanceMeters>
          </Trackpoint>
          <Trackpoint>
            <Time>2021-08-09T11:53:52.000Z</Time>
            <Position>
              <LatitudeDegrees>43.0396832339465618133544921875</LatitudeDegrees>
              <LongitudeDegrees>-1.7539197765290737152099609375</LongitudeDegrees>
            </Position>
            <AltitudeMeters>674.5999755859375</AltitudeMeters>
            <DistanceMeters>NAN</DistanceMeters>
          </Trackpoint>
          <Trackpoint>
            <Time>2021-08-09T11:53:53.000Z</Time>
            <Position>
              <LatitudeDegrees>43.03970544598996639251708984375</LatitudeDegrees>
              <LongitudeDegrees>-1.75393964163959026336669921875</LongitudeDegrees>
            </Position>
            <AltitudeMeters>674.79998779296875</AltitudeMeters>
            <DistanceMeters>NAN</DistanceMeters>
          </Trackpoint>
          <Trackpoint>
            <Time>2021-08-09T11:53:54.000Z</Time>
            <Position>
              <LatitudeDegrees>43.03973511792719364166259765625</LatitudeDegrees>
              <LongitudeDegrees>-1.753963194787502288818359375</LongitudeDegrees>
            </Position>
            <AltitudeMeters>674.79998779296875</AltitudeMeters>
            <DistanceMeters>NAN</DistanceMeters>
          </Trackpoint>
          <Trackpoint>
            <Time>2021-08-09T11:53:55.000Z</Time>
            <Position>
              <LatitudeDegrees>43.03975540213286876678466796875</LatitudeDegrees>
              <LongitudeDegrees>-1.75398029386997222900390625</LongitudeDegrees>
            </Position>
            <AltitudeMeters>675</AltitudeMeters>
            <DistanceMeters>NAN</DistanceMeters>
          </Trackpoint>
          <Trackpoint>
            <Time>2021-08-09T11:53:56.000Z</Time>
            <Position>
              <LatitudeDegrees>43.039779961109161376953125</LatitudeDegrees>
              <LongitudeDegrees>-1.75400585867464542388916015625</LongitudeDegrees>
            </Position>
            <AltitudeMeters>675.20001220703125</AltitudeMeters>
            <DistanceMeters>NAN</DistanceMeters>
          </Trackpoint>
          <Trackpoint>
            <Time>2021-08-09T11:53:57.000Z</Time>
            <Position>
              <LatitudeDegrees>43.03980401717126369476318359375</LatitudeDegrees>
              <LongitudeDegrees>-1.754030250012874603271484375</LongitudeDegrees>
            </Position>
            <AltitudeMeters>675.4000244140625</AltitudeMeters>
            <DistanceMeters>NAN</DistanceMeters>
          </Trackpoint>
          <Trackpoint>
            <Time>2021-08-09T11:53:58.000Z</Time>
            <Position>
              <LatitudeDegrees>43.03982966579496860504150390625</LatitudeDegrees>
              <LongitudeDegrees>-1.75405271351337432861328125</LongitudeDegrees>
            </Position>
            <AltitudeMeters>675.20001220703125</AltitudeMeters>
            <DistanceMeters>NAN</DistanceMeters>
          </Trackpoint>
          <Trackpoint>
            <Time>2021-08-09T11:53:59.000Z</Time>
            <Position>
              <LatitudeDegrees>43.03985414095222949981689453125</LatitudeDegrees>
              <LongitudeDegrees>-1.75407375209033489227294921875</LongitudeDegrees>
            </Position>
            <AltitudeMeters>675.5999755859375</AltitudeMeters>
            <DistanceMeters>NAN</DistanceMeters>
          </Trackpoint>
          <Trackpoint>
            <Time>2021-08-09T11:54:00.000Z</Time>
            <Position>
              <LatitudeDegrees>43.0398783646523952484130859375</LatitudeDegrees>
              <LongitudeDegrees>-1.75409722141921520233154296875</LongitudeDegrees>
            </Position>
            <AltitudeMeters>675.4000244140625</AltitudeMeters>
            <DistanceMeters>NAN</DistanceMeters>
          </Trackpoint>
          <Trackpoint>
            <Time>2021-08-09T11:54:01.000Z</Time>
            <Position>
              <LatitudeDegrees>43.03989940322935581207275390625</LatitudeDegrees>
              <LongitudeDegrees>-1.75412538461387157440185546875</LongitudeDegrees>
            </Position>
            <AltitudeMeters>675.4000244140625</AltitudeMeters>
            <DistanceMeters>NAN</DistanceMeters>
          </Trackpoint>
          <Trackpoint>
            <Time>2021-08-09T11:54:02.000Z</Time>
            <Position>
              <LatitudeDegrees>43.03992278873920440673828125</LatitudeDegrees>
              <LongitudeDegrees>-1.75415505655109882354736328125</LongitudeDegrees>
            </Position>
            <AltitudeMeters>675.5999755859375</AltitudeMeters>
            <DistanceMeters>NAN</DistanceMeters>
          </Trackpoint>
          <Trackpoint>
            <Time>2021-08-09T11:54:03.000Z</Time>
            <Position>
              <LatitudeDegrees>43.0399440787732601165771484375</LatitudeDegrees>
              <LongitudeDegrees>-1.7541819624602794647216796875</LongitudeDegrees>
            </Position>
            <AltitudeMeters>675.5999755859375</AltitudeMeters>
            <DistanceMeters>NAN</DistanceMeters>
          </Trackpoint>
          <Trackpoint>
            <Time>2021-08-09T11:54:04.000Z</Time>
            <Position>
              <LatitudeDegrees>43.03996763192117214202880859375</LatitudeDegrees>
              <LongitudeDegrees>-1.75420618616044521331787109375</LongitudeDegrees>
            </Position>
            <AltitudeMeters>675.79998779296875</AltitudeMeters>
            <DistanceMeters>NAN</DistanceMeters>
          </Trackpoint>
          <Trackpoint>
            <Time>2021-08-09T11:54:05.000Z</Time>
            <Position>
              <LatitudeDegrees>43.03999981842935085296630859375</LatitudeDegrees>
              <LongitudeDegrees>-1.75424625165760517120361328125</LongitudeDegrees>
            </Position>
            <AltitudeMeters>675.79998779296875</AltitudeMeters>
            <DistanceMeters>NAN</DistanceMeters>
          </Trackpoint>
          <Trackpoint>
            <Time>2021-08-09T11:54:06.000Z</Time>
            <Position>
              <LatitudeDegrees>43.04002605378627777099609375</LatitudeDegrees>
              <LongitudeDegrees>-1.75426972098648548126220703125</LongitudeDegrees>
            </Position>
            <AltitudeMeters>675.79998779296875</AltitudeMeters>
            <DistanceMeters>NAN</DistanceMeters>
          </Trackpoint>
          <Trackpoint>
            <Time>2021-08-09T11:54:07.000Z</Time>
            <Position>
              <LatitudeDegrees>43.04004977457225322723388671875</LatitudeDegrees>
              <LongitudeDegrees>-1.7542832158505916595458984375</LongitudeDegrees>
            </Position>
            <AltitudeMeters>675.79998779296875</AltitudeMeters>
            <DistanceMeters>NAN</DistanceMeters>
          </Trackpoint>
          <Trackpoint>
            <Time>2021-08-09T11:54:08.000Z</Time>
            <Position>
              <LatitudeDegrees>43.0400812067091464996337890625</LatitudeDegrees>
              <LongitudeDegrees>-1.7543033324182033538818359375</LongitudeDegrees>
            </Position>
            <AltitudeMeters>676</AltitudeMeters>
            <DistanceMeters>NAN</DistanceMeters>
          </Trackpoint>
          <Trackpoint>
            <Time>2021-08-09T11:54:09.000Z</Time>
            <Position>
              <LatitudeDegrees>43.040116243064403533935546875</LatitudeDegrees>
              <LongitudeDegrees>-1.7543274722993373870849609375</LongitudeDegrees>
            </Position>
            <AltitudeMeters>676</AltitudeMeters>
            <DistanceMeters>NAN</DistanceMeters>
          </Trackpoint>
          <Trackpoint>
            <Time>2021-08-09T11:54:10.000Z</Time>
            <Position>
              <LatitudeDegrees>43.0401485972106456756591796875</LatitudeDegrees>
              <LongitudeDegrees>-1.75434784032404422760009765625</LongitudeDegrees>
            </Position>
            <AltitudeMeters>676</AltitudeMeters>
            <DistanceMeters>NAN</DistanceMeters>
          </Trackpoint>
          <Trackpoint>
            <Time>2021-08-09T11:54:11.000Z</Time>
            <Position>
              <LatitudeDegrees>43.0401710607111454010009765625</LatitudeDegrees>
              <LongitudeDegrees>-1.75436192192137241363525390625</LongitudeDegrees>
            </Position>
            <AltitudeMeters>676</AltitudeMeters>
            <DistanceMeters>NAN</DistanceMeters>
          </Trackpoint>
          <Trackpoint>
            <Time>2021-08-09T11:54:12.000Z</Time>
            <Position>
              <LatitudeDegrees>43.0401938594877719879150390625</LatitudeDegrees>
              <LongitudeDegrees>-1.75437499769032001495361328125</LongitudeDegrees>
            </Position>
            <AltitudeMeters>676</AltitudeMeters>
            <DistanceMeters>NAN</DistanceMeters>
          </Trackpoint>
          <Trackpoint>
            <Time>2021-08-09T11:54:13.000Z</Time>
            <Position>
              <LatitudeDegrees>43.0402206815779209136962890625</LatitudeDegrees>
              <LongitudeDegrees>-1.75438622944056987762451171875</LongitudeDegrees>
            </Position>
            <AltitudeMeters>676</AltitudeMeters>
            <DistanceMeters>NAN</DistanceMeters>
          </Trackpoint>
          <Trackpoint>
            <Time>2021-08-09T11:54:14.000Z</Time>
            <Position>
              <LatitudeDegrees>43.0402475036680698394775390625</LatitudeDegrees>
              <LongitudeDegrees>-1.7544042505323886871337890625</LongitudeDegrees>
            </Position>
            <AltitudeMeters>676</AltitudeMeters>
            <DistanceMeters>NAN</DistanceMeters>
          </Trackpoint>
          <Trackpoint>
            <Time>2021-08-09T11:54:15.000Z</Time>
            <Position>
              <LatitudeDegrees>43.04028161801397800445556640625</LatitudeDegrees>
              <LongitudeDegrees>-1.7544226907193660736083984375</LongitudeDegrees>
            </Position>
            <AltitudeMeters>676</AltitudeMeters>
            <DistanceMeters>NAN</DistanceMeters>
          </Trackpoint>
          <Trackpoint>
            <Time>2021-08-09T11:54:20.000Z</Time>
            <Position>
              <LatitudeDegrees>43.04043131880462169647216796875</LatitudeDegrees>
              <LongitudeDegrees>-1.75448211841285228729248046875</LongitudeDegrees>
            </Position>
            <AltitudeMeters>676.4000244140625</AltitudeMeters>
            <DistanceMeters>NAN</DistanceMeters>
          </Trackpoint>
          <Trackpoint>
            <Time>2021-08-09T11:54:26.000Z</Time>
            <Position>
              <LatitudeDegrees>43.04063198156654834747314453125</LatitudeDegrees>
              <LongitudeDegrees>-1.7545705474913120269775390625</LongitudeDegrees>
            </Position>
            <AltitudeMeters>676.5999755859375</AltitudeMeters>
            <DistanceMeters>NAN</DistanceMeters>
          </Trackpoint>
          <Trackpoint>
            <Time>2021-08-09T11:54:28.000Z</Time>
            <Position>
              <LatitudeDegrees>43.04068855941295623779296875</LatitudeDegrees>
              <LongitudeDegrees>-1.7545926757156848907470703125</LongitudeDegrees>
            </Position>
            <AltitudeMeters>676.79998779296875</AltitudeMeters>
            <DistanceMeters>NAN</DistanceMeters>
          </Trackpoint>
          <Trackpoint>
            <Time>2021-08-09T11:54:30.000Z</Time>
            <Position>
              <LatitudeDegrees>43.04074362851679325103759765625</LatitudeDegrees>
              <LongitudeDegrees>-1.75459829159080982208251953125</LongitudeDegrees>
            </Position>
            <AltitudeMeters>676.79998779296875</AltitudeMeters>
            <DistanceMeters>NAN</DistanceMeters>
          </Trackpoint>
          <Trackpoint>
            <Time>2021-08-09T11:54:31.000Z</Time>
            <Position>
              <LatitudeDegrees>43.040776066482067108154296875</LatitudeDegrees>
              <LongitudeDegrees>-1.7546017281711101531982421875</LongitudeDegrees>
            </Position>
            <AltitudeMeters>676.79998779296875</AltitudeMeters>
            <DistanceMeters>NAN</DistanceMeters>
          </Trackpoint>
          <Trackpoint>
            <Time>2021-08-09T11:54:32.000Z</Time>
            <Position>
              <LatitudeDegrees>43.0407976917922496795654296875</LatitudeDegrees>
              <LongitudeDegrees>-1.7546074278652667999267578125</LongitudeDegrees>
            </Position>
            <AltitudeMeters>676.79998779296875</AltitudeMeters>
            <DistanceMeters>NAN</DistanceMeters>
          </Trackpoint>
          <Trackpoint>
            <Time>2021-08-09T11:54:33.000Z</Time>
            <Position>
              <LatitudeDegrees>43.04082325659692287445068359375</LatitudeDegrees>
              <LongitudeDegrees>-1.75462259911000728607177734375</LongitudeDegrees>
            </Position>
            <AltitudeMeters>677</AltitudeMeters>
            <DistanceMeters>NAN</DistanceMeters>
          </Trackpoint>
          <Trackpoint>
            <Time>2021-08-09T11:54:34.000Z</Time>
            <Position>
              <LatitudeDegrees>43.04085695184767246246337890625</LatitudeDegrees>
              <LongitudeDegrees>-1.754644811153411865234375</LongitudeDegrees>
            </Position>
            <AltitudeMeters>677</AltitudeMeters>
            <DistanceMeters>NAN</DistanceMeters>
          </Trackpoint>
          <Trackpoint>
            <Time>2021-08-09T11:54:35.000Z</Time>
            <Position>
              <LatitudeDegrees>43.0408810079097747802734375</LatitudeDegrees>
              <LongitudeDegrees>-1.7546587251126766204833984375</LongitudeDegrees>
            </Position>
            <AltitudeMeters>677</AltitudeMeters>
            <DistanceMeters>NAN</DistanceMeters>
          </Trackpoint>
          <Trackpoint>
            <Time>2021-08-09T11:54:36.000Z</Time>
            <Position>
              <LatitudeDegrees>43.04090992547571659088134765625</LatitudeDegrees>
              <LongitudeDegrees>-1.754673309624195098876953125</LongitudeDegrees>
            </Position>
            <AltitudeMeters>677</AltitudeMeters>
            <DistanceMeters>NAN</DistanceMeters>
          </Trackpoint>
          <Trackpoint>
            <Time>2021-08-09T11:54:37.000Z</Time>
            <Position>
              <LatitudeDegrees>43.04094068706035614013671875</LatitudeDegrees>
              <LongitudeDegrees>-1.75468663685023784637451171875</LongitudeDegrees>
            </Position>
            <AltitudeMeters>677.20001220703125</AltitudeMeters>
            <DistanceMeters>NAN</DistanceMeters>
          </Trackpoint>
          <Trackpoint>
            <Time>2021-08-09T11:54:38.000Z</Time>
            <Position>
              <LatitudeDegrees>43.04097153246402740478515625</LatitudeDegrees>
              <LongitudeDegrees>-1.754703484475612640380859375</LongitudeDegrees>
            </Position>
            <AltitudeMeters>677.20001220703125</AltitudeMeters>
            <DistanceMeters>NAN</DistanceMeters>
          </Trackpoint>
          <Trackpoint>
            <Time>2021-08-09T11:54:42.000Z</Time>
            <Position>
              <LatitudeDegrees>43.04107454605400562286376953125</LatitudeDegrees>
              <LongitudeDegrees>-1.75476492382586002349853515625</LongitudeDegrees>
            </Position>
            <AltitudeMeters>677.4000244140625</AltitudeMeters>
            <DistanceMeters>NAN</DistanceMeters>
          </Trackpoint>
          <Trackpoint>
            <Time>2021-08-09T11:54:43.000Z</Time>
            <Position>
              <LatitudeDegrees>43.04108795709908008575439453125</LatitudeDegrees>
              <LongitudeDegrees>-1.75477095879614353179931640625</LongitudeDegrees>
            </Position>
            <AltitudeMeters>677.4000244140625</AltitudeMeters>
            <DistanceMeters>NAN</DistanceMeters>
          </Trackpoint>
          <Trackpoint>
            <Time>2021-08-09T11:54:44.000Z</Time>
            <Position>
              <LatitudeDegrees>43.04109223186969757080078125</LatitudeDegrees>
              <LongitudeDegrees>-1.75477129407227039337158203125</LongitudeDegrees>
            </Position>
            <AltitudeMeters>677.4000244140625</AltitudeMeters>
            <DistanceMeters>NAN</DistanceMeters>
          </Trackpoint>
          <Trackpoint>
            <Time>2021-08-09T11:54:48.000Z</Time>
            <Position>
              <LatitudeDegrees>43.04109223186969757080078125</LatitudeDegrees>
              <LongitudeDegrees>-1.75477129407227039337158203125</LongitudeDegrees>
            </Position>
            <AltitudeMeters>677.4000244140625</AltitudeMeters>
            <DistanceMeters>NAN</DistanceMeters>
          </Trackpoint>
          <Trackpoint>
            <Time>2021-08-09T11:54:49.000Z</Time>
            <Position>
              <LatitudeDegrees>43.04109223186969757080078125</LatitudeDegrees>
              <LongitudeDegrees>-1.75477129407227039337158203125</LongitudeDegrees>
            </Position>
            <AltitudeMeters>677.4000244140625</AltitudeMeters>
            <DistanceMeters>NAN</DistanceMeters>
          </Trackpoint>
          <Trackpoint>
            <Time>2021-08-09T11:54:54.000Z</Time>
            <Position>
              <LatitudeDegrees>43.04109223186969757080078125</LatitudeDegrees>
              <LongitudeDegrees>-1.75477129407227039337158203125</LongitudeDegrees>
            </Position>
            <AltitudeMeters>677.4000244140625</AltitudeMeters>
            <DistanceMeters>NAN</DistanceMeters>
          </Trackpoint>
          <Trackpoint>
            <Time>2021-08-09T11:54:57.000Z</Time>
            <Position>
              <LatitudeDegrees>43.04109223186969757080078125</LatitudeDegrees>
              <LongitudeDegrees>-1.75477129407227039337158203125</LongitudeDegrees>
            </Position>
            <AltitudeMeters>677.20001220703125</AltitudeMeters>
            <DistanceMeters>NAN</DistanceMeters>
          </Trackpoint>
          <Trackpoint>
            <Time>2021-08-09T11:55:03.000Z</Time>
            <Position>
              <LatitudeDegrees>43.04110606200993061065673828125</LatitudeDegrees>
              <LongitudeDegrees>-1.75478671677410602569580078125</LongitudeDegrees>
            </Position>
            <AltitudeMeters>677.20001220703125</AltitudeMeters>
            <DistanceMeters>NAN</DistanceMeters>
          </Trackpoint>
          <Trackpoint>
            <Time>2021-08-09T11:55:06.000Z</Time>
            <Position>
              <LatitudeDegrees>43.0411116778850555419921875</LatitudeDegrees>
              <LongitudeDegrees>-1.75479141063988208770751953125</LongitudeDegrees>
            </Position>
            <AltitudeMeters>677.20001220703125</AltitudeMeters>
            <DistanceMeters>NAN</DistanceMeters>
          </Trackpoint>
          <Trackpoint>
            <Time>2021-08-09T11:55:21.000Z</Time>
            <Position>
              <LatitudeDegrees>43.04112307727336883544921875</LatitudeDegrees>
              <LongitudeDegrees>-1.75480641424655914306640625</LongitudeDegrees>
            </Position>
            <AltitudeMeters>677.20001220703125</AltitudeMeters>
            <DistanceMeters>NAN</DistanceMeters>
          </Trackpoint>
          <Trackpoint>
            <Time>2021-08-09T11:55:56.000Z</Time>
            <Position>
              <LatitudeDegrees>43.0411259271204471588134765625</LatitudeDegrees>
              <LongitudeDegrees>-1.75481135956943035125732421875</LongitudeDegrees>
            </Position>
            <AltitudeMeters>676.79998779296875</AltitudeMeters>
            <DistanceMeters>NAN</DistanceMeters>
          </Trackpoint>
          <Trackpoint>
            <Time>2021-08-09T11:56:00.000Z</Time>
            <Position>
              <LatitudeDegrees>43.0411259271204471588134765625</LatitudeDegrees>
              <LongitudeDegrees>-1.75481135956943035125732421875</LongitudeDegrees>
            </Position>
            <AltitudeMeters>677.4000244140625</AltitudeMeters>
            <DistanceMeters>NAN</DistanceMeters>
          </Trackpoint>
          <Trackpoint>
            <Time>2021-08-09T11:56:51.000Z</Time>
            <Position>
              <LatitudeDegrees>43.0411259271204471588134765625</LatitudeDegrees>
              <LongitudeDegrees>-1.75481135956943035125732421875</LongitudeDegrees>
            </Position>
            <AltitudeMeters>677</AltitudeMeters>
            <DistanceMeters>NAN</DistanceMeters>
          </Trackpoint>
          <Trackpoint>
            <Time>2021-08-09T11:57:26.000Z</Time>
            <Position>
              <LatitudeDegrees>43.0411259271204471588134765625</LatitudeDegrees>
              <LongitudeDegrees>-1.75481135956943035125732421875</LongitudeDegrees>
            </Position>
            <AltitudeMeters>677</AltitudeMeters>
            <DistanceMeters>NAN</DistanceMeters>
          </Trackpoint>
          <Trackpoint>
            <Time>2021-08-09T11:58:33.000Z</Time>
            <Position>
              <LatitudeDegrees>43.0411259271204471588134765625</LatitudeDegrees>
              <LongitudeDegrees>-1.75481135956943035125732421875</LongitudeDegrees>
            </Position>
            <AltitudeMeters>676.5999755859375</AltitudeMeters>
            <DistanceMeters>NAN</DistanceMeters>
          </Trackpoint>
          <Trackpoint>
            <Time>2021-08-09T11:58:37.000Z</Time>
            <Position>
              <LatitudeDegrees>43.04112819023430347442626953125</LatitudeDegrees>
              <LongitudeDegrees>-1.754813455045223236083984375</LongitudeDegrees>
            </Position>
            <AltitudeMeters>676.79998779296875</AltitudeMeters>
            <DistanceMeters>NAN</DistanceMeters>
          </Trackpoint>
          <Trackpoint>
            <Time>2021-08-09T11:58:39.000Z</Time>
            <Position>
              <LatitudeDegrees>43.04116641171276569366455078125</LatitudeDegrees>
              <LongitudeDegrees>-1.75485008396208286285400390625</LongitudeDegrees>
            </Position>
            <AltitudeMeters>676.5999755859375</AltitudeMeters>
            <DistanceMeters>NAN</DistanceMeters>
          </Trackpoint>
          <Trackpoint>
            <Time>2021-08-09T11:58:40.000Z</Time>
            <Position>
              <LatitudeDegrees>43.0411889590322971343994140625</LatitudeDegrees>
              <LongitudeDegrees>-1.7548699490725994110107421875</LongitudeDegrees>
            </Position>
            <AltitudeMeters>676.5999755859375</AltitudeMeters>
            <DistanceMeters>NAN</DistanceMeters>
          </Trackpoint>
          <Trackpoint>
            <Time>2021-08-09T11:58:44.000Z</Time>
            <Position>
              <LatitudeDegrees>43.041292726993560791015625</LatitudeDegrees>
              <LongitudeDegrees>-1.75498017109930515289306640625</LongitudeDegrees>
            </Position>
            <AltitudeMeters>676.79998779296875</AltitudeMeters>
            <DistanceMeters>NAN</DistanceMeters>
          </Trackpoint>
          <Trackpoint>
            <Time>2021-08-09T11:58:47.000Z</Time>
            <Position>
              <LatitudeDegrees>43.04137445054948329925537109375</LatitudeDegrees>
              <LongitudeDegrees>-1.755056194961071014404296875</LongitudeDegrees>
            </Position>
            <AltitudeMeters>676.79998779296875</AltitudeMeters>
            <DistanceMeters>NAN</DistanceMeters>
          </Trackpoint>
          <Trackpoint>
            <Time>2021-08-09T11:58:48.000Z</Time>
            <Position>
              <LatitudeDegrees>43.04140093736350536346435546875</LatitudeDegrees>
              <LongitudeDegrees>-1.75507329404354095458984375</LongitudeDegrees>
            </Position>
            <AltitudeMeters>676.79998779296875</AltitudeMeters>
            <DistanceMeters>NAN</DistanceMeters>
          </Trackpoint>
          <Trackpoint>
            <Time>2021-08-09T11:58:49.000Z</Time>
            <Position>
              <LatitudeDegrees>43.041427172720432281494140625</LatitudeDegrees>
              <LongitudeDegrees>-1.75509600900113582611083984375</LongitudeDegrees>
            </Position>
            <AltitudeMeters>676.79998779296875</AltitudeMeters>
            <DistanceMeters>NAN</DistanceMeters>
          </Trackpoint>
          <Trackpoint>
            <Time>2021-08-09T11:58:50.000Z</Time>
            <Position>
              <LatitudeDegrees>43.0414494685828685760498046875</LatitudeDegrees>
              <LongitudeDegrees>-1.75511696375906467437744140625</LongitudeDegrees>
            </Position>
            <AltitudeMeters>676.79998779296875</AltitudeMeters>
            <DistanceMeters>NAN</DistanceMeters>
          </Trackpoint>
          <Trackpoint>
            <Time>2021-08-09T11:58:55.000Z</Time>
            <Position>
              <LatitudeDegrees>43.0415986664593219757080078125</LatitudeDegrees>
              <LongitudeDegrees>-1.7552595399320125579833984375</LongitudeDegrees>
            </Position>
            <AltitudeMeters>677</AltitudeMeters>
            <DistanceMeters>NAN</DistanceMeters>
          </Trackpoint>
          <Trackpoint>
            <Time>2021-08-09T11:58:58.000Z</Time>
            <Position>
              <LatitudeDegrees>43.04170503281056880950927734375</LatitudeDegrees>
              <LongitudeDegrees>-1.75531410612165927886962890625</LongitudeDegrees>
            </Position>
            <AltitudeMeters>677</AltitudeMeters>
            <DistanceMeters>NAN</DistanceMeters>
          </Trackpoint>
          <Trackpoint>
            <Time>2021-08-09T11:58:59.000Z</Time>
            <Position>
              <LatitudeDegrees>43.0417398177087306976318359375</LatitudeDegrees>
              <LongitudeDegrees>-1.7553279362618923187255859375</LongitudeDegrees>
            </Position>
            <AltitudeMeters>677</AltitudeMeters>
            <DistanceMeters>NAN</DistanceMeters>
          </Trackpoint>
          <Trackpoint>
            <Time>2021-08-09T11:59:01.000Z</Time>
            <Position>
              <LatitudeDegrees>43.04180913604795932769775390625</LatitudeDegrees>
              <LongitudeDegrees>-1.75535048358142375946044921875</LongitudeDegrees>
            </Position>
            <AltitudeMeters>677</AltitudeMeters>
            <DistanceMeters>NAN</DistanceMeters>
          </Trackpoint>
          <Trackpoint>
            <Time>2021-08-09T11:59:02.000Z</Time>
            <Position>
              <LatitudeDegrees>43.04184484295547008514404296875</LatitudeDegrees>
              <LongitudeDegrees>-1.75533757545053958892822265625</LongitudeDegrees>
            </Position>
            <AltitudeMeters>677</AltitudeMeters>
            <DistanceMeters>NAN</DistanceMeters>
          </Trackpoint>
          <Trackpoint>
            <Time>2021-08-09T11:59:03.000Z</Time>
            <Position>
              <LatitudeDegrees>43.04188205860555171966552734375</LatitudeDegrees>
              <LongitudeDegrees>-1.75531192682683467864990234375</LongitudeDegrees>
            </Position>
            <AltitudeMeters>677</AltitudeMeters>
            <DistanceMeters>NAN</DistanceMeters>
          </Trackpoint>
          <Trackpoint>
            <Time>2021-08-09T11:59:04.000Z</Time>
            <Position>
              <LatitudeDegrees>43.04191977716982364654541015625</LatitudeDegrees>
              <LongitudeDegrees>-1.75530354492366313934326171875</LongitudeDegrees>
            </Position>
            <AltitudeMeters>677</AltitudeMeters>
            <DistanceMeters>NAN</DistanceMeters>
          </Trackpoint>
          <Trackpoint>
            <Time>2021-08-09T11:59:07.000Z</Time>
            <Position>
              <LatitudeDegrees>43.04203175939619541168212890625</LatitudeDegrees>
              <LongitudeDegrees>-1.7552979290485382080078125</LongitudeDegrees>
            </Position>
            <AltitudeMeters>677.20001220703125</AltitudeMeters>
            <DistanceMeters>NAN</DistanceMeters>
          </Trackpoint>
          <Trackpoint>
            <Time>2021-08-09T11:59:08.000Z</Time>
            <Position>
              <LatitudeDegrees>43.04207132197916507720947265625</LatitudeDegrees>
              <LongitudeDegrees>-1.755312345921993255615234375</LongitudeDegrees>
            </Position>
            <AltitudeMeters>677.20001220703125</AltitudeMeters>
            <DistanceMeters>NAN</DistanceMeters>
          </Trackpoint>
          <Trackpoint>
            <Time>2021-08-09T11:59:14.000Z</Time>
            <Position>
              <LatitudeDegrees>43.042306602001190185546875</LatitudeDegrees>
              <LongitudeDegrees>-1.7553515732288360595703125</LongitudeDegrees>
            </Position>
            <AltitudeMeters>677</AltitudeMeters>
            <DistanceMeters>NAN</DistanceMeters>
          </Trackpoint>
          <Trackpoint>
            <Time>2021-08-09T11:59:21.000Z</Time>
            <Position>
              <LatitudeDegrees>43.04263760335743427276611328125</LatitudeDegrees>
              <LongitudeDegrees>-1.7554255016148090362548828125</LongitudeDegrees>
            </Position>
            <AltitudeMeters>677.20001220703125</AltitudeMeters>
            <DistanceMeters>NAN</DistanceMeters>
          </Trackpoint>
          <Trackpoint>
            <Time>2021-08-09T11:59:24.000Z</Time>
            <Position>
              <LatitudeDegrees>43.042782358825206756591796875</LatitudeDegrees>
              <LongitudeDegrees>-1.75547889433801174163818359375</LongitudeDegrees>
            </Position>
            <AltitudeMeters>677.20001220703125</AltitudeMeters>
            <DistanceMeters>NAN</DistanceMeters>
          </Trackpoint>
          <Trackpoint>
            <Time>2021-08-09T11:59:26.000Z</Time>
            <Position>
              <LatitudeDegrees>43.042872212827205657958984375</LatitudeDegrees>
              <LongitudeDegrees>-1.755499430000782012939453125</LongitudeDegrees>
            </Position>
            <AltitudeMeters>677.4000244140625</AltitudeMeters>
            <DistanceMeters>NAN</DistanceMeters>
          </Trackpoint>
          <Trackpoint>
            <Time>2021-08-09T11:59:27.000Z</Time>
            <Position>
              <LatitudeDegrees>43.0429032258689403533935546875</LatitudeDegrees>
              <LongitudeDegrees>-1.75551208667457103729248046875</LongitudeDegrees>
            </Position>
            <AltitudeMeters>677.5999755859375</AltitudeMeters>
            <DistanceMeters>NAN</DistanceMeters>
          </Trackpoint>
          <Trackpoint>
            <Time>2021-08-09T11:59:28.000Z</Time>
            <Position>
              <LatitudeDegrees>43.04294136352837085723876953125</LatitudeDegrees>
              <LongitudeDegrees>-1.7555314488708972930908203125</LongitudeDegrees>
            </Position>
            <AltitudeMeters>677.5999755859375</AltitudeMeters>
            <DistanceMeters>NAN</DistanceMeters>
          </Trackpoint>
          <Trackpoint>
            <Time>2021-08-09T11:59:31.000Z</Time>
            <Position>
              <LatitudeDegrees>43.04308000020682811737060546875</LatitudeDegrees>
              <LongitudeDegrees>-1.7555934749543666839599609375</LongitudeDegrees>
            </Position>
            <AltitudeMeters>678</AltitudeMeters>
            <DistanceMeters>NAN</DistanceMeters>
          </Trackpoint>
          <Trackpoint>
            <Time>2021-08-09T11:59:32.000Z</Time>
            <Position>
              <LatitudeDegrees>43.04313004016876220703125</LatitudeDegrees>
              <LongitudeDegrees>-1.7556266672909259796142578125</LongitudeDegrees>
            </Position>
            <AltitudeMeters>678.20001220703125</AltitudeMeters>
            <DistanceMeters>NAN</DistanceMeters>
          </Trackpoint>
          <Trackpoint>
            <Time>2021-08-09T11:59:33.000Z</Time>
            <Position>
              <LatitudeDegrees>43.043179996311664581298828125</LatitudeDegrees>
              <LongitudeDegrees>-1.75563949160277843475341796875</LongitudeDegrees>
            </Position>
            <AltitudeMeters>678.4000244140625</AltitudeMeters>
            <DistanceMeters>NAN</DistanceMeters>
          </Trackpoint>
          <Trackpoint>
            <Time>2021-08-09T11:59:34.000Z</Time>
            <Position>
              <LatitudeDegrees>43.0432170443236827850341796875</LatitudeDegrees>
              <LongitudeDegrees>-1.75564602948725223541259765625</LongitudeDegrees>
            </Position>
            <AltitudeMeters>678.4000244140625</AltitudeMeters>
            <DistanceMeters>NAN</DistanceMeters>
          </Trackpoint>
          <Trackpoint>
            <Time>2021-08-09T11:59:35.000Z</Time>
            <Position>
              <LatitudeDegrees>43.0432693473994731903076171875</LatitudeDegrees>
              <LongitudeDegrees>-1.75566229037940502166748046875</LongitudeDegrees>
            </Position>
            <AltitudeMeters>678.5999755859375</AltitudeMeters>
            <DistanceMeters>NAN</DistanceMeters>
          </Trackpoint>
          <Trackpoint>
            <Time>2021-08-09T11:59:37.000Z</Time>
            <Position>
              <LatitudeDegrees>43.043359704315662384033203125</LatitudeDegrees>
              <LongitudeDegrees>-1.7557017691433429718017578125</LongitudeDegrees>
            </Position>
            <AltitudeMeters>679</AltitudeMeters>
            <DistanceMeters>NAN</DistanceMeters>
          </Trackpoint>
          <Trackpoint>
            <Time>2021-08-09T11:59:39.000Z</Time>
            <Position>
              <LatitudeDegrees>43.043443523347377777099609375</LatitudeDegrees>
              <LongitudeDegrees>-1.75573454238474369049072265625</LongitudeDegrees>
            </Position>
            <AltitudeMeters>679.4000244140625</AltitudeMeters>
            <DistanceMeters>NAN</DistanceMeters>
          </Trackpoint>
          <Trackpoint>
            <Time>2021-08-09T11:59:41.000Z</Time>
            <Position>
              <LatitudeDegrees>43.0435446090996265411376953125</LatitudeDegrees>
              <LongitudeDegrees>-1.7558160983026027679443359375</LongitudeDegrees>
            </Position>
            <AltitudeMeters>679.79998779296875</AltitudeMeters>
            <DistanceMeters>NAN</DistanceMeters>
          </Trackpoint>
          <Trackpoint>
            <Time>2021-08-09T11:59:42.000Z</Time>
            <Position>
              <LatitudeDegrees>43.043583668768405914306640625</LatitudeDegrees>
              <LongitudeDegrees>-1.755883656442165374755859375</LongitudeDegrees>
            </Position>
            <AltitudeMeters>679.79998779296875</AltitudeMeters>
            <DistanceMeters>NAN</DistanceMeters>
          </Trackpoint>
          <Trackpoint>
            <Time>2021-08-09T11:59:43.000Z</Time>
            <Position>
              <LatitudeDegrees>43.0436237342655658721923828125</LatitudeDegrees>
              <LongitudeDegrees>-1.75591550767421722412109375</LongitudeDegrees>
            </Position>
            <AltitudeMeters>680</AltitudeMeters>
            <DistanceMeters>NAN</DistanceMeters>
          </Trackpoint>
          <Trackpoint>
            <Time>2021-08-09T11:59:44.000Z</Time>
            <Position>
              <LatitudeDegrees>43.0436518974602222442626953125</LatitudeDegrees>
              <LongitudeDegrees>-1.755938641726970672607421875</LongitudeDegrees>
            </Position>
            <AltitudeMeters>680</AltitudeMeters>
            <DistanceMeters>NAN</DistanceMeters>
          </Trackpoint>
          <Trackpoint>
            <Time>2021-08-09T11:59:45.000Z</Time>
            <Position>
              <LatitudeDegrees>43.0436933040618896484375</LatitudeDegrees>
              <LongitudeDegrees>-1.7559810541570186614990234375</LongitudeDegrees>
            </Position>
            <AltitudeMeters>680.20001220703125</AltitudeMeters>
            <DistanceMeters>NAN</DistanceMeters>
          </Trackpoint>
          <Trackpoint>
            <Time>2021-08-09T11:59:46.000Z</Time>
            <Position>
              <LatitudeDegrees>43.04374116472899913787841796875</LatitudeDegrees>
              <LongitudeDegrees>-1.756011061370372772216796875</LongitudeDegrees>
            </Position>
            <AltitudeMeters>680.4000244140625</AltitudeMeters>
            <DistanceMeters>NAN</DistanceMeters>
          </Trackpoint>
          <Trackpoint>
            <Time>2021-08-09T11:59:47.000Z</Time>
            <Position>
              <LatitudeDegrees>43.04379799403250217437744140625</LatitudeDegrees>
              <LongitudeDegrees>-1.75603042356669902801513671875</LongitudeDegrees>
            </Position>
            <AltitudeMeters>680.5999755859375</AltitudeMeters>
            <DistanceMeters>NAN</DistanceMeters>
          </Trackpoint>
          <Trackpoint>
            <Time>2021-08-09T11:59:48.000Z</Time>
            <Position>
              <LatitudeDegrees>43.04384208284318447113037109375</LatitudeDegrees>
              <LongitudeDegrees>-1.75604366697371006011962890625</LongitudeDegrees>
            </Position>
            <AltitudeMeters>680.79998779296875</AltitudeMeters>
            <DistanceMeters>NAN</DistanceMeters>
          </Trackpoint>
          <Trackpoint>
            <Time>2021-08-09T11:59:49.000Z</Time>
            <Position>
              <LatitudeDegrees>43.04390779696404933929443359375</LatitudeDegrees>
              <LongitudeDegrees>-1.75607367418706417083740234375</LongitudeDegrees>
            </Position>
            <AltitudeMeters>680.79998779296875</AltitudeMeters>
            <DistanceMeters>NAN</DistanceMeters>
          </Trackpoint>
          <Trackpoint>
            <Time>2021-08-09T11:59:50.000Z</Time>
            <Position>
              <LatitudeDegrees>43.043961189687252044677734375</LatitudeDegrees>
              <LongitudeDegrees>-1.75609529949724674224853515625</LongitudeDegrees>
            </Position>
            <AltitudeMeters>680.79998779296875</AltitudeMeters>
            <DistanceMeters>NAN</DistanceMeters>
          </Trackpoint>
          <Trackpoint>
            <Time>2021-08-09T11:59:51.000Z</Time>
            <Position>
              <LatitudeDegrees>43.04400552995502948760986328125</LatitudeDegrees>
              <LongitudeDegrees>-1.75611625425517559051513671875</LongitudeDegrees>
            </Position>
            <AltitudeMeters>681</AltitudeMeters>
            <DistanceMeters>NAN</DistanceMeters>
          </Trackpoint>
          <Trackpoint>
            <Time>2021-08-09T11:59:52.000Z</Time>
            <Position>
              <LatitudeDegrees>43.044050373136997222900390625</LatitudeDegrees>
              <LongitudeDegrees>-1.756145842373371124267578125</LongitudeDegrees>
            </Position>
            <AltitudeMeters>681</AltitudeMeters>
            <DistanceMeters>NAN</DistanceMeters>
          </Trackpoint>
          <Trackpoint>
            <Time>2021-08-09T11:59:53.000Z</Time>
            <Position>
              <LatitudeDegrees>43.04410108365118503570556640625</LatitudeDegrees>
              <LongitudeDegrees>-1.756162941455841064453125</LongitudeDegrees>
            </Position>
            <AltitudeMeters>681</AltitudeMeters>
            <DistanceMeters>NAN</DistanceMeters>
          </Trackpoint>
          <Trackpoint>
            <Time>2021-08-09T11:59:54.000Z</Time>
            <Position>
              <LatitudeDegrees>43.044150285422801971435546875</LatitudeDegrees>
              <LongitudeDegrees>-1.75618632696568965911865234375</LongitudeDegrees>
            </Position>
            <AltitudeMeters>681</AltitudeMeters>
            <DistanceMeters>NAN</DistanceMeters>
          </Trackpoint>
          <Trackpoint>
            <Time>2021-08-09T11:59:55.000Z</Time>
            <Position>
              <LatitudeDegrees>43.04419429041445255279541015625</LatitudeDegrees>
              <LongitudeDegrees>-1.75618506968021392822265625</LongitudeDegrees>
            </Position>
            <AltitudeMeters>681</AltitudeMeters>
            <DistanceMeters>NAN</DistanceMeters>
          </Trackpoint>
          <Trackpoint>
            <Time>2021-08-09T11:59:56.000Z</Time>
            <Position>
              <LatitudeDegrees>43.04423804394900798797607421875</LatitudeDegrees>
              <LongitudeDegrees>-1.75618666224181652069091796875</LongitudeDegrees>
            </Position>
            <AltitudeMeters>681</AltitudeMeters>
            <DistanceMeters>NAN</DistanceMeters>
          </Trackpoint>
          <Trackpoint>
            <Time>2021-08-09T11:59:57.000Z</Time>
            <Position>
              <LatitudeDegrees>43.04427978582680225372314453125</LatitudeDegrees>
              <LongitudeDegrees>-1.75618213601410388946533203125</LongitudeDegrees>
            </Position>
            <AltitudeMeters>681</AltitudeMeters>
            <DistanceMeters>NAN</DistanceMeters>
          </Trackpoint>
          <Trackpoint>
            <Time>2021-08-09T11:59:58.000Z</Time>
            <Position>
              <LatitudeDegrees>43.04432018660008907318115234375</LatitudeDegrees>
              <LongitudeDegrees>-1.7561832256615161895751953125</LongitudeDegrees>
            </Position>
            <AltitudeMeters>681</AltitudeMeters>
            <DistanceMeters>NAN</DistanceMeters>
          </Trackpoint>
          <Trackpoint>
            <Time>2021-08-09T11:59:59.000Z</Time>
            <Position>
              <LatitudeDegrees>43.0443616770207881927490234375</LatitudeDegrees>
              <LongitudeDegrees>-1.75618364475667476654052734375</LongitudeDegrees>
            </Position>
            <AltitudeMeters>681</AltitudeMeters>
            <DistanceMeters>NAN</DistanceMeters>
          </Trackpoint>
          <Trackpoint>
            <Time>2021-08-09T12:00:00.000Z</Time>
            <Position>
              <LatitudeDegrees>43.04440082050859928131103515625</LatitudeDegrees>
              <LongitudeDegrees>-1.75618649460375308990478515625</LongitudeDegrees>
            </Position>
            <AltitudeMeters>681</AltitudeMeters>
            <DistanceMeters>NAN</DistanceMeters>
          </Trackpoint>
          <Trackpoint>
            <Time>2021-08-09T12:00:01.000Z</Time>
            <Position>
              <LatitudeDegrees>43.04443937726318836212158203125</LatitudeDegrees>
              <LongitudeDegrees>-1.756188087165355682373046875</LongitudeDegrees>
            </Position>
            <AltitudeMeters>681</AltitudeMeters>
            <DistanceMeters>NAN</DistanceMeters>
          </Trackpoint>
          <Trackpoint>
            <Time>2021-08-09T12:00:02.000Z</Time>
            <Position>
              <LatitudeDegrees>43.04446737281978130340576171875</LatitudeDegrees>
              <LongitudeDegrees>-1.7561855725944042205810546875</LongitudeDegrees>
            </Position>
            <AltitudeMeters>681</AltitudeMeters>
            <DistanceMeters>NAN</DistanceMeters>
          </Trackpoint>
          <Trackpoint>
            <Time>2021-08-09T12:00:03.000Z</Time>
            <Position>
              <LatitudeDegrees>43.044509701430797576904296875</LatitudeDegrees>
              <LongitudeDegrees>-1.75617593340575695037841796875</LongitudeDegrees>
            </Position>
            <AltitudeMeters>681</AltitudeMeters>
            <DistanceMeters>NAN</DistanceMeters>
          </Trackpoint>
          <Trackpoint>
            <Time>2021-08-09T12:00:04.000Z</Time>
            <Position>
              <LatitudeDegrees>43.04454691708087921142578125</LatitudeDegrees>
              <LongitudeDegrees>-1.75617031753063201904296875</LongitudeDegrees>
            </Position>
            <AltitudeMeters>681</AltitudeMeters>
            <DistanceMeters>NAN</DistanceMeters>
          </Trackpoint>
          <Trackpoint>
            <Time>2021-08-09T12:00:05.000Z</Time>
            <Position>
              <LatitudeDegrees>43.044586144387722015380859375</LatitudeDegrees>
              <LongitudeDegrees>-1.75616520456969738006591796875</LongitudeDegrees>
            </Position>
            <AltitudeMeters>681</AltitudeMeters>
            <DistanceMeters>NAN</DistanceMeters>
          </Trackpoint>
          <Trackpoint>
            <Time>2021-08-09T12:00:06.000Z</Time>
            <Position>
              <LatitudeDegrees>43.04462470114231109619140625</LatitudeDegrees>
              <LongitudeDegrees>-1.75615548156201839447021484375</LongitudeDegrees>
            </Position>
            <AltitudeMeters>681.20001220703125</AltitudeMeters>
            <DistanceMeters>NAN</DistanceMeters>
          </Trackpoint>
          <Trackpoint>
            <Time>2021-08-09T12:00:07.000Z</Time>
            <Position>
              <LatitudeDegrees>43.0446550436317920684814453125</LatitudeDegrees>
              <LongitudeDegrees>-1.756145171821117401123046875</LongitudeDegrees>
            </Position>
            <AltitudeMeters>681.4000244140625</AltitudeMeters>
            <DistanceMeters>NAN</DistanceMeters>
          </Trackpoint>
          <Trackpoint>
            <Time>2021-08-09T12:00:08.000Z</Time>
            <Position>
              <LatitudeDegrees>43.04468798451125621795654296875</LatitudeDegrees>
              <LongitudeDegrees>-1.75613276660442352294921875</LongitudeDegrees>
            </Position>
            <AltitudeMeters>681.4000244140625</AltitudeMeters>
            <DistanceMeters>NAN</DistanceMeters>
          </Trackpoint>
          <Trackpoint>
            <Time>2021-08-09T12:00:09.000Z</Time>
            <Position>
              <LatitudeDegrees>43.0447291396558284759521484375</LatitudeDegrees>
              <LongitudeDegrees>-1.756147183477878570556640625</LongitudeDegrees>
            </Position>
            <AltitudeMeters>681.5999755859375</AltitudeMeters>
            <DistanceMeters>NAN</DistanceMeters>
          </Trackpoint>
          <Trackpoint>
            <Time>2021-08-09T12:00:12.000Z</Time>
            <Position>
              <LatitudeDegrees>43.0448345839977264404296875</LatitudeDegrees>
              <LongitudeDegrees>-1.756161935627460479736328125</LongitudeDegrees>
            </Position>
            <AltitudeMeters>681.79998779296875</AltitudeMeters>
            <DistanceMeters>NAN</DistanceMeters>
          </Trackpoint>
          <Trackpoint>
            <Time>2021-08-09T12:00:14.000Z</Time>
            <Position>
              <LatitudeDegrees>43.04490566253662109375</LatitudeDegrees>
              <LongitudeDegrees>-1.75616889260709285736083984375</LongitudeDegrees>
            </Position>
            <AltitudeMeters>682</AltitudeMeters>
            <DistanceMeters>NAN</DistanceMeters>
          </Trackpoint>
          <Trackpoint>
            <Time>2021-08-09T12:00:15.000Z</Time>
            <Position>
              <LatitudeDegrees>43.0449383519589900970458984375</LatitudeDegrees>
              <LongitudeDegrees>-1.75617677159607410430908203125</LongitudeDegrees>
            </Position>
            <AltitudeMeters>682</AltitudeMeters>
            <DistanceMeters>NAN</DistanceMeters>
          </Trackpoint>
          <Trackpoint>
            <Time>2021-08-09T12:00:16.000Z</Time>
            <Position>
              <LatitudeDegrees>43.0449718795716762542724609375</LatitudeDegrees>
              <LongitudeDegrees>-1.756186075508594512939453125</LongitudeDegrees>
            </Position>
            <AltitudeMeters>683</AltitudeMeters>
            <DistanceMeters>NAN</DistanceMeters>
          </Trackpoint>
          <Trackpoint>
            <Time>2021-08-09T12:00:17.000Z</Time>
            <Position>
              <LatitudeDegrees>43.04500414989888668060302734375</LatitudeDegrees>
              <LongitudeDegrees>-1.756200157105922698974609375</LongitudeDegrees>
            </Position>
            <AltitudeMeters>683.4000244140625</AltitudeMeters>
            <DistanceMeters>NAN</DistanceMeters>
          </Trackpoint>
          <Trackpoint>
            <Time>2021-08-09T12:00:18.000Z</Time>
            <Position>
              <LatitudeDegrees>43.045034743845462799072265625</LatitudeDegrees>
              <LongitudeDegrees>-1.7562127299606800079345703125</LongitudeDegrees>
            </Position>
            <AltitudeMeters>683.5999755859375</AltitudeMeters>
            <DistanceMeters>NAN</DistanceMeters>
          </Trackpoint>
          <Trackpoint>
            <Time>2021-08-09T12:00:19.000Z</Time>
            <Position>
              <LatitudeDegrees>43.04506382904946804046630859375</LatitudeDegrees>
              <LongitudeDegrees>-1.75622806884348392486572265625</LongitudeDegrees>
            </Position>
            <AltitudeMeters>683.79998779296875</AltitudeMeters>
            <DistanceMeters>NAN</DistanceMeters>
          </Trackpoint>
          <Trackpoint>
            <Time>2021-08-09T12:00:20.000Z</Time>
            <Position>
              <LatitudeDegrees>43.045092411339282989501953125</LatitudeDegrees>
              <LongitudeDegrees>-1.75624273717403411865234375</LongitudeDegrees>
            </Position>
            <AltitudeMeters>683.79998779296875</AltitudeMeters>
            <DistanceMeters>NAN</DistanceMeters>
          </Trackpoint>
          <Trackpoint>
            <Time>2021-08-09T12:00:21.000Z</Time>
            <Position>
              <LatitudeDegrees>43.0451220832765102386474609375</LatitudeDegrees>
              <LongitudeDegrees>-1.75626494921743869781494140625</LongitudeDegrees>
            </Position>
            <AltitudeMeters>683.79998779296875</AltitudeMeters>
            <DistanceMeters>NAN</DistanceMeters>
          </Trackpoint>
          <Trackpoint>
            <Time>2021-08-09T12:00:22.000Z</Time>
            <Position>
              <LatitudeDegrees>43.04514295421540737152099609375</LatitudeDegrees>
              <LongitudeDegrees>-1.75628121010959148406982421875</LongitudeDegrees>
            </Position>
            <AltitudeMeters>683.79998779296875</AltitudeMeters>
            <DistanceMeters>NAN</DistanceMeters>
          </Trackpoint>
          <Trackpoint>
            <Time>2021-08-09T12:00:23.000Z</Time>
            <Position>
              <LatitudeDegrees>43.045174889266490936279296875</LatitudeDegrees>
              <LongitudeDegrees>-1.75630618818104267120361328125</LongitudeDegrees>
            </Position>
            <AltitudeMeters>684</AltitudeMeters>
            <DistanceMeters>NAN</DistanceMeters>
          </Trackpoint>
          <Trackpoint>
            <Time>2021-08-09T12:00:24.000Z</Time>
            <Position>
              <LatitudeDegrees>43.04520347155630588531494140625</LatitudeDegrees>
              <LongitudeDegrees>-1.7563257180154323577880859375</LongitudeDegrees>
            </Position>
            <AltitudeMeters>684.20001220703125</AltitudeMeters>
            <DistanceMeters>NAN</DistanceMeters>
          </Trackpoint>
          <Trackpoint>
            <Time>2021-08-09T12:00:25.000Z</Time>
            <Position>
              <LatitudeDegrees>43.04522727616131305694580078125</LatitudeDegrees>
              <LongitudeDegrees>-1.75633837468922138214111328125</LongitudeDegrees>
            </Position>
            <AltitudeMeters>684.4000244140625</AltitudeMeters>
            <DistanceMeters>NAN</DistanceMeters>
          </Trackpoint>
          <Trackpoint>
            <Time>2021-08-09T12:00:26.000Z</Time>
            <Position>
              <LatitudeDegrees>43.04525543935596942901611328125</LatitudeDegrees>
              <LongitudeDegrees>-1.7563572339713573455810546875</LongitudeDegrees>
            </Position>
            <AltitudeMeters>684.5999755859375</AltitudeMeters>
            <DistanceMeters>NAN</DistanceMeters>
          </Trackpoint>
          <Trackpoint>
            <Time>2021-08-09T12:00:27.000Z</Time>
            <Position>
              <LatitudeDegrees>43.04528444074094295501708984375</LatitudeDegrees>
              <LongitudeDegrees>-1.756374500691890716552734375</LongitudeDegrees>
            </Position>
            <AltitudeMeters>684.79998779296875</AltitudeMeters>
            <DistanceMeters>NAN</DistanceMeters>
          </Trackpoint>
          <Trackpoint>
            <Time>2021-08-09T12:00:28.000Z</Time>
            <Position>
              <LatitudeDegrees>43.04531268775463104248046875</LatitudeDegrees>
              <LongitudeDegrees>-1.7563914321362972259521484375</LongitudeDegrees>
            </Position>
            <AltitudeMeters>685</AltitudeMeters>
            <DistanceMeters>NAN</DistanceMeters>
          </Trackpoint>
          <Trackpoint>
            <Time>2021-08-09T12:00:29.000Z</Time>
            <Position>
              <LatitudeDegrees>43.04533925838768482208251953125</LatitudeDegrees>
              <LongitudeDegrees>-1.75641439855098724365234375</LongitudeDegrees>
            </Position>
            <AltitudeMeters>685.20001220703125</AltitudeMeters>
            <DistanceMeters>NAN</DistanceMeters>
          </Trackpoint>
          <Trackpoint>
            <Time>2021-08-09T12:00:30.000Z</Time>
            <Position>
              <LatitudeDegrees>43.045364320278167724609375</LatitudeDegrees>
              <LongitudeDegrees>-1.756436526775360107421875</LongitudeDegrees>
            </Position>
            <AltitudeMeters>685.5999755859375</AltitudeMeters>
            <DistanceMeters>NAN</DistanceMeters>
          </Trackpoint>
          <Trackpoint>
            <Time>2021-08-09T12:00:31.000Z</Time>
            <Position>
              <LatitudeDegrees>43.04538913071155548095703125</LatitudeDegrees>
              <LongitudeDegrees>-1.75646041519939899444580078125</LongitudeDegrees>
            </Position>
            <AltitudeMeters>685.79998779296875</AltitudeMeters>
            <DistanceMeters>NAN</DistanceMeters>
          </Trackpoint>
          <Trackpoint>
            <Time>2021-08-09T12:00:32.000Z</Time>
            <Position>
              <LatitudeDegrees>43.04541536606848239898681640625</LatitudeDegrees>
              <LongitudeDegrees>-1.75648623146116733551025390625</LongitudeDegrees>
            </Position>
            <AltitudeMeters>685.79998779296875</AltitudeMeters>
            <DistanceMeters>NAN</DistanceMeters>
          </Trackpoint>
          <Trackpoint>
            <Time>2021-08-09T12:00:33.000Z</Time>
            <Position>
              <LatitudeDegrees>43.04544285871088504791259765625</LatitudeDegrees>
              <LongitudeDegrees>-1.75651322118937969207763671875</LongitudeDegrees>
            </Position>
            <AltitudeMeters>686</AltitudeMeters>
            <DistanceMeters>NAN</DistanceMeters>
          </Trackpoint>
          <Trackpoint>
            <Time>2021-08-09T12:00:34.000Z</Time>
            <Position>
              <LatitudeDegrees>43.04547035135328769683837890625</LatitudeDegrees>
              <LongitudeDegrees>-1.756538450717926025390625</LongitudeDegrees>
            </Position>
            <AltitudeMeters>686</AltitudeMeters>
            <DistanceMeters>NAN</DistanceMeters>
          </Trackpoint>
          <Trackpoint>
            <Time>2021-08-09T12:00:35.000Z</Time>
            <Position>
              <LatitudeDegrees>43.04549784399569034576416015625</LatitudeDegrees>
              <LongitudeDegrees>-1.7565624229609966278076171875</LongitudeDegrees>
            </Position>
            <AltitudeMeters>686.4000244140625</AltitudeMeters>
            <DistanceMeters>NAN</DistanceMeters>
          </Trackpoint>
          <Trackpoint>
            <Time>2021-08-09T12:00:36.000Z</Time>
            <Position>
              <LatitudeDegrees>43.04552433080971240997314453125</LatitudeDegrees>
              <LongitudeDegrees>-1.75658446736633777618408203125</LongitudeDegrees>
            </Position>
            <AltitudeMeters>686.4000244140625</AltitudeMeters>
            <DistanceMeters>NAN</DistanceMeters>
          </Trackpoint>
          <Trackpoint>
            <Time>2021-08-09T12:00:37.000Z</Time>
            <Position>
              <LatitudeDegrees>43.045551069080829620361328125</LatitudeDegrees>
              <LongitudeDegrees>-1.75660349428653717041015625</LongitudeDegrees>
            </Position>
            <AltitudeMeters>686.5999755859375</AltitudeMeters>
            <DistanceMeters>NAN</DistanceMeters>
          </Trackpoint>
          <Trackpoint>
            <Time>2021-08-09T12:00:38.000Z</Time>
            <Position>
              <LatitudeDegrees>43.04558283649384975433349609375</LatitudeDegrees>
              <LongitudeDegrees>-1.75662855617702007293701171875</LongitudeDegrees>
            </Position>
            <AltitudeMeters>686.79998779296875</AltitudeMeters>
            <DistanceMeters>NAN</DistanceMeters>
          </Trackpoint>
          <Trackpoint>
            <Time>2021-08-09T12:00:39.000Z</Time>
            <Position>
              <LatitudeDegrees>43.04561602883040904998779296875</LatitudeDegrees>
              <LongitudeDegrees>-1.75664909183979034423828125</LongitudeDegrees>
            </Position>
            <AltitudeMeters>686.79998779296875</AltitudeMeters>
            <DistanceMeters>NAN</DistanceMeters>
          </Trackpoint>
          <Trackpoint>
            <Time>2021-08-09T12:00:40.000Z</Time>
            <Position>
              <LatitudeDegrees>43.04564796388149261474609375</LatitudeDegrees>
              <LongitudeDegrees>-1.75666409544646739959716796875</LongitudeDegrees>
            </Position>
            <AltitudeMeters>687</AltitudeMeters>
            <DistanceMeters>NAN</DistanceMeters>
          </Trackpoint>
          <Trackpoint>
            <Time>2021-08-09T12:00:41.000Z</Time>
            <Position>
              <LatitudeDegrees>43.04567822255194187164306640625</LatitudeDegrees>
              <LongitudeDegrees>-1.75668370909988880157470703125</LongitudeDegrees>
            </Position>
            <AltitudeMeters>687.20001220703125</AltitudeMeters>
            <DistanceMeters>NAN</DistanceMeters>
          </Trackpoint>
          <Trackpoint>
            <Time>2021-08-09T12:00:42.000Z</Time>
            <Position>
              <LatitudeDegrees>43.0457108281552791595458984375</LatitudeDegrees>
              <LongitudeDegrees>-1.7567008920013904571533203125</LongitudeDegrees>
            </Position>
            <AltitudeMeters>687.20001220703125</AltitudeMeters>
            <DistanceMeters>NAN</DistanceMeters>
          </Trackpoint>
          <Trackpoint>
            <Time>2021-08-09T12:00:43.000Z</Time>
            <Position>
              <LatitudeDegrees>43.0457438528537750244140625</LatitudeDegrees>
              <LongitudeDegrees>-1.75671991892158985137939453125</LongitudeDegrees>
            </Position>
            <AltitudeMeters>687.4000244140625</AltitudeMeters>
            <DistanceMeters>NAN</DistanceMeters>
          </Trackpoint>
          <Trackpoint>
            <Time>2021-08-09T12:00:44.000Z</Time>
            <Position>
              <LatitudeDegrees>43.04577511735260486602783203125</LatitudeDegrees>
              <LongitudeDegrees>-1.75672310404479503631591796875</LongitudeDegrees>
            </Position>
            <AltitudeMeters>687.5999755859375</AltitudeMeters>
            <DistanceMeters>NAN</DistanceMeters>
          </Trackpoint>
          <Trackpoint>
            <Time>2021-08-09T12:00:45.000Z</Time>
            <Position>
              <LatitudeDegrees>43.04580646567046642303466796875</LatitudeDegrees>
              <LongitudeDegrees>-1.756745986640453338623046875</LongitudeDegrees>
            </Position>
            <AltitudeMeters>687.5999755859375</AltitudeMeters>
            <DistanceMeters>NAN</DistanceMeters>
          </Trackpoint>
          <Trackpoint>
            <Time>2021-08-09T12:00:46.000Z</Time>
            <Position>
              <LatitudeDegrees>43.0458402447402477264404296875</LatitudeDegrees>
              <LongitudeDegrees>-1.75678052008152008056640625</LongitudeDegrees>
            </Position>
            <AltitudeMeters>687.79998779296875</AltitudeMeters>
            <DistanceMeters>NAN</DistanceMeters>
          </Trackpoint>
          <Trackpoint>
            <Time>2021-08-09T12:00:47.000Z</Time>
            <Position>
              <LatitudeDegrees>43.0458596907556056976318359375</LatitudeDegrees>
              <LongitudeDegrees>-1.756804324686527252197265625</LongitudeDegrees>
            </Position>
            <AltitudeMeters>688.20001220703125</AltitudeMeters>
            <DistanceMeters>NAN</DistanceMeters>
          </Trackpoint>
          <Trackpoint>
            <Time>2021-08-09T12:00:48.000Z</Time>
            <Position>
              <LatitudeDegrees>43.04588072933256626129150390625</LatitudeDegrees>
              <LongitudeDegrees>-1.75683458335697650909423828125</LongitudeDegrees>
            </Position>
            <AltitudeMeters>688.20001220703125</AltitudeMeters>
            <DistanceMeters>NAN</DistanceMeters>
          </Trackpoint>
          <Trackpoint>
            <Time>2021-08-09T12:00:49.000Z</Time>
            <Position>
              <LatitudeDegrees>43.04590084590017795562744140625</LatitudeDegrees>
              <LongitudeDegrees>-1.756861992180347442626953125</LongitudeDegrees>
            </Position>
            <AltitudeMeters>688.4000244140625</AltitudeMeters>
            <DistanceMeters>NAN</DistanceMeters>
          </Trackpoint>
          <Trackpoint>
            <Time>2021-08-09T12:00:50.000Z</Time>
            <Position>
              <LatitudeDegrees>43.0459207110106945037841796875</LatitudeDegrees>
              <LongitudeDegrees>-1.75688873045146465301513671875</LongitudeDegrees>
            </Position>
            <AltitudeMeters>688.5999755859375</AltitudeMeters>
            <DistanceMeters>NAN</DistanceMeters>
          </Trackpoint>
          <Trackpoint>
            <Time>2021-08-09T12:00:51.000Z</Time>
            <Position>
              <LatitudeDegrees>43.0459361337125301361083984375</LatitudeDegrees>
              <LongitudeDegrees>-1.756921671330928802490234375</LongitudeDegrees>
            </Position>
            <AltitudeMeters>689</AltitudeMeters>
            <DistanceMeters>NAN</DistanceMeters>
          </Trackpoint>
          <Trackpoint>
            <Time>2021-08-09T12:00:52.000Z</Time>
            <Position>
              <LatitudeDegrees>43.04594996385276317596435546875</LatitudeDegrees>
              <LongitudeDegrees>-1.7569573782384395599365234375</LongitudeDegrees>
            </Position>
            <AltitudeMeters>689</AltitudeMeters>
            <DistanceMeters>NAN</DistanceMeters>
          </Trackpoint>
          <Trackpoint>
            <Time>2021-08-09T12:00:53.000Z</Time>
            <Position>
              <LatitudeDegrees>43.0459642969071865081787109375</LatitudeDegrees>
              <LongitudeDegrees>-1.75699685700237751007080078125</LongitudeDegrees>
            </Position>
            <AltitudeMeters>689.20001220703125</AltitudeMeters>
            <DistanceMeters>NAN</DistanceMeters>
          </Trackpoint>
          <Trackpoint>
            <Time>2021-08-09T12:00:54.000Z</Time>
            <Position>
              <LatitudeDegrees>43.04597712121903896331787109375</LatitudeDegrees>
              <LongitudeDegrees>-1.75703709013760089874267578125</LongitudeDegrees>
            </Position>
            <AltitudeMeters>689.4000244140625</AltitudeMeters>
            <DistanceMeters>NAN</DistanceMeters>
          </Trackpoint>
          <Trackpoint>
            <Time>2021-08-09T12:00:55.000Z</Time>
            <Position>
              <LatitudeDegrees>43.04599137045443058013916015625</LatitudeDegrees>
              <LongitudeDegrees>-1.75707799382507801055908203125</LongitudeDegrees>
            </Position>
            <AltitudeMeters>689.5999755859375</AltitudeMeters>
            <DistanceMeters>NAN</DistanceMeters>
          </Trackpoint>
          <Trackpoint>
            <Time>2021-08-09T12:00:56.000Z</Time>
            <Position>
              <LatitudeDegrees>43.04600067436695098876953125</LatitudeDegrees>
              <LongitudeDegrees>-1.75711847841739654541015625</LongitudeDegrees>
            </Position>
            <AltitudeMeters>689.5999755859375</AltitudeMeters>
            <DistanceMeters>NAN</DistanceMeters>
          </Trackpoint>
          <Trackpoint>
            <Time>2021-08-09T12:00:57.000Z</Time>
            <Position>
              <LatitudeDegrees>43.0460078828036785125732421875</LatitudeDegrees>
              <LongitudeDegrees>-1.75715644843876361846923828125</LongitudeDegrees>
            </Position>
            <AltitudeMeters>689.79998779296875</AltitudeMeters>
            <DistanceMeters>NAN</DistanceMeters>
          </Trackpoint>
          <Trackpoint>
            <Time>2021-08-09T12:00:58.000Z</Time>
            <Position>
              <LatitudeDegrees>43.04601668380200862884521484375</LatitudeDegrees>
              <LongitudeDegrees>-1.75719416700303554534912109375</LongitudeDegrees>
            </Position>
            <AltitudeMeters>689.79998779296875</AltitudeMeters>
            <DistanceMeters>NAN</DistanceMeters>
          </Trackpoint>
          <Trackpoint>
            <Time>2021-08-09T12:00:59.000Z</Time>
            <Position>
              <LatitudeDegrees>43.0460283346474170684814453125</LatitudeDegrees>
              <LongitudeDegrees>-1.75723540596663951873779296875</LongitudeDegrees>
            </Position>
            <AltitudeMeters>689.79998779296875</AltitudeMeters>
            <DistanceMeters>NAN</DistanceMeters>
          </Trackpoint>
          <Trackpoint>
            <Time>2021-08-09T12:01:00.000Z</Time>
            <Position>
              <LatitudeDegrees>43.04603998549282550811767578125</LatitudeDegrees>
              <LongitudeDegrees>-1.7572732083499431610107421875</LongitudeDegrees>
            </Position>
            <AltitudeMeters>690</AltitudeMeters>
            <DistanceMeters>NAN</DistanceMeters>
          </Trackpoint>
          <Trackpoint>
            <Time>2021-08-09T12:01:01.000Z</Time>
            <Position>
              <LatitudeDegrees>43.0460501275956630706787109375</LatitudeDegrees>
              <LongitudeDegrees>-1.7573151178658008575439453125</LongitudeDegrees>
            </Position>
            <AltitudeMeters>690</AltitudeMeters>
            <DistanceMeters>NAN</DistanceMeters>
          </Trackpoint>
          <Trackpoint>
            <Time>2021-08-09T12:01:02.000Z</Time>
            <Position>
              <LatitudeDegrees>43.0460615269839763641357421875</LatitudeDegrees>
              <LongitudeDegrees>-1.75735895521938800811767578125</LongitudeDegrees>
            </Position>
            <AltitudeMeters>690</AltitudeMeters>
            <DistanceMeters>NAN</DistanceMeters>
          </Trackpoint>
          <Trackpoint>
            <Time>2021-08-09T12:01:03.000Z</Time>
            <Position>
              <LatitudeDegrees>43.04607502184808254241943359375</LatitudeDegrees>
              <LongitudeDegrees>-1.7574002780020236968994140625</LongitudeDegrees>
            </Position>
            <AltitudeMeters>690.20001220703125</AltitudeMeters>
            <DistanceMeters>NAN</DistanceMeters>
          </Trackpoint>
          <Trackpoint>
            <Time>2021-08-09T12:01:04.000Z</Time>
            <Position>
              <LatitudeDegrees>43.04608876816928386688232421875</LatitudeDegrees>
              <LongitudeDegrees>-1.75744730047881603240966796875</LongitudeDegrees>
            </Position>
            <AltitudeMeters>690.20001220703125</AltitudeMeters>
            <DistanceMeters>NAN</DistanceMeters>
          </Trackpoint>
          <Trackpoint>
            <Time>2021-08-09T12:01:05.000Z</Time>
            <Position>
              <LatitudeDegrees>43.0461010895669460296630859375</LatitudeDegrees>
              <LongitudeDegrees>-1.75749038346111774444580078125</LongitudeDegrees>
            </Position>
            <AltitudeMeters>690.4000244140625</AltitudeMeters>
            <DistanceMeters>NAN</DistanceMeters>
          </Trackpoint>
          <Trackpoint>
            <Time>2021-08-09T12:01:06.000Z</Time>
            <Position>
              <LatitudeDegrees>43.04611374624073505401611328125</LatitudeDegrees>
              <LongitudeDegrees>-1.75752910785377025604248046875</LongitudeDegrees>
            </Position>
            <AltitudeMeters>690.4000244140625</AltitudeMeters>
            <DistanceMeters>NAN</DistanceMeters>
          </Trackpoint>
          <Trackpoint>
            <Time>2021-08-09T12:01:07.000Z</Time>
            <Position>
              <LatitudeDegrees>43.04612363688647747039794921875</LatitudeDegrees>
              <LongitudeDegrees>-1.75756649114191532135009765625</LongitudeDegrees>
            </Position>
            <AltitudeMeters>690.5999755859375</AltitudeMeters>
            <DistanceMeters>NAN</DistanceMeters>
          </Trackpoint>
          <Trackpoint>
            <Time>2021-08-09T12:01:08.000Z</Time>
            <Position>
              <LatitudeDegrees>43.0461327731609344482421875</LatitudeDegrees>
              <LongitudeDegrees>-1.75760538317263126373291015625</LongitudeDegrees>
            </Position>
            <AltitudeMeters>690.5999755859375</AltitudeMeters>
            <DistanceMeters>NAN</DistanceMeters>
          </Trackpoint>
          <Trackpoint>
            <Time>2021-08-09T12:01:09.000Z</Time>
            <Position>
              <LatitudeDegrees>43.04614241234958171844482421875</LatitudeDegrees>
              <LongitudeDegrees>-1.757646538317203521728515625</LongitudeDegrees>
            </Position>
            <AltitudeMeters>690.5999755859375</AltitudeMeters>
            <DistanceMeters>NAN</DistanceMeters>
          </Trackpoint>
          <Trackpoint>
            <Time>2021-08-09T12:01:10.000Z</Time>
            <Position>
              <LatitudeDegrees>43.04615397937595844268798828125</LatitudeDegrees>
              <LongitudeDegrees>-1.75768819637596607208251953125</LongitudeDegrees>
            </Position>
            <AltitudeMeters>690.79998779296875</AltitudeMeters>
            <DistanceMeters>NAN</DistanceMeters>
          </Trackpoint>
          <Trackpoint>
            <Time>2021-08-09T12:01:11.000Z</Time>
            <Position>
              <LatitudeDegrees>43.04616504348814487457275390625</LatitudeDegrees>
              <LongitudeDegrees>-1.7577295191586017608642578125</LongitudeDegrees>
            </Position>
            <AltitudeMeters>690.79998779296875</AltitudeMeters>
            <DistanceMeters>NAN</DistanceMeters>
          </Trackpoint>
          <Trackpoint>
            <Time>2021-08-09T12:01:12.000Z</Time>
            <Position>
              <LatitudeDegrees>43.0461771972477436065673828125</LatitudeDegrees>
              <LongitudeDegrees>-1.7577697522938251495361328125</LongitudeDegrees>
            </Position>
            <AltitudeMeters>691</AltitudeMeters>
            <DistanceMeters>NAN</DistanceMeters>
          </Trackpoint>
          <Trackpoint>
            <Time>2021-08-09T12:01:13.000Z</Time>
            <Position>
              <LatitudeDegrees>43.046188093721866607666015625</LatitudeDegrees>
              <LongitudeDegrees>-1.7578052915632724761962890625</LongitudeDegrees>
            </Position>
            <AltitudeMeters>691</AltitudeMeters>
            <DistanceMeters>NAN</DistanceMeters>
          </Trackpoint>
          <Trackpoint>
            <Time>2021-08-09T12:01:14.000Z</Time>
            <Position>
              <LatitudeDegrees>43.04619957692921161651611328125</LatitudeDegrees>
              <LongitudeDegrees>-1.75783856771886348724365234375</LongitudeDegrees>
            </Position>
            <AltitudeMeters>691.20001220703125</AltitudeMeters>
            <DistanceMeters>NAN</DistanceMeters>
          </Trackpoint>
          <Trackpoint>
            <Time>2021-08-09T12:01:15.000Z</Time>
            <Position>
              <LatitudeDegrees>43.04621449671685695648193359375</LatitudeDegrees>
              <LongitudeDegrees>-1.75787494517862796783447265625</LongitudeDegrees>
            </Position>
            <AltitudeMeters>691.20001220703125</AltitudeMeters>
            <DistanceMeters>NAN</DistanceMeters>
          </Trackpoint>
          <Trackpoint>
            <Time>2021-08-09T12:01:16.000Z</Time>
            <Position>
              <LatitudeDegrees>43.04623126052320003509521484375</LatitudeDegrees>
              <LongitudeDegrees>-1.7579130828380584716796875</LongitudeDegrees>
            </Position>
            <AltitudeMeters>691.4000244140625</AltitudeMeters>
            <DistanceMeters>NAN</DistanceMeters>
          </Trackpoint>
          <Trackpoint>
            <Time>2021-08-09T12:01:17.000Z</Time>
            <Position>
              <LatitudeDegrees>43.0462476052343845367431640625</LatitudeDegrees>
              <LongitudeDegrees>-1.75794920884072780609130859375</LongitudeDegrees>
            </Position>
            <AltitudeMeters>691.5999755859375</AltitudeMeters>
            <DistanceMeters>NAN</DistanceMeters>
          </Trackpoint>
          <Trackpoint>
            <Time>2021-08-09T12:01:18.000Z</Time>
            <Position>
              <LatitudeDegrees>43.04626294411718845367431640625</LatitudeDegrees>
              <LongitudeDegrees>-1.757980473339557647705078125</LongitudeDegrees>
            </Position>
            <AltitudeMeters>691.5999755859375</AltitudeMeters>
            <DistanceMeters>NAN</DistanceMeters>
          </Trackpoint>
          <Trackpoint>
            <Time>2021-08-09T12:01:19.000Z</Time>
            <Position>
              <LatitudeDegrees>43.0462771095335483551025390625</LatitudeDegrees>
              <LongitudeDegrees>-1.75801098346710205078125</LongitudeDegrees>
            </Position>
            <AltitudeMeters>691.79998779296875</AltitudeMeters>
            <DistanceMeters>NAN</DistanceMeters>
          </Trackpoint>
          <Trackpoint>
            <Time>2021-08-09T12:01:20.000Z</Time>
            <Position>
              <LatitudeDegrees>43.046292029321193695068359375</LatitudeDegrees>
              <LongitudeDegrees>-1.758045516908168792724609375</LongitudeDegrees>
            </Position>
            <AltitudeMeters>691.79998779296875</AltitudeMeters>
            <DistanceMeters>NAN</DistanceMeters>
          </Trackpoint>
          <Trackpoint>
            <Time>2021-08-09T12:01:21.000Z</Time>
            <Position>
              <LatitudeDegrees>43.046305440366268157958984375</LatitudeDegrees>
              <LongitudeDegrees>-1.75807929597795009613037109375</LongitudeDegrees>
            </Position>
            <AltitudeMeters>692</AltitudeMeters>
            <DistanceMeters>NAN</DistanceMeters>
          </Trackpoint>
          <Trackpoint>
            <Time>2021-08-09T12:01:22.000Z</Time>
            <Position>
              <LatitudeDegrees>43.04631977342069149017333984375</LatitudeDegrees>
              <LongitudeDegrees>-1.7581056989729404449462890625</LongitudeDegrees>
            </Position>
            <AltitudeMeters>692</AltitudeMeters>
            <DistanceMeters>NAN</DistanceMeters>
          </Trackpoint>
          <Trackpoint>
            <Time>2021-08-09T12:01:23.000Z</Time>
            <Position>
              <LatitudeDegrees>43.0463377945125102996826171875</LatitudeDegrees>
              <LongitudeDegrees>-1.7581355385482311248779296875</LongitudeDegrees>
            </Position>
            <AltitudeMeters>692</AltitudeMeters>
            <DistanceMeters>NAN</DistanceMeters>
          </Trackpoint>
          <Trackpoint>
            <Time>2021-08-09T12:01:24.000Z</Time>
            <Position>
              <LatitudeDegrees>43.04635799489915370941162109375</LatitudeDegrees>
              <LongitudeDegrees>-1.758166216313838958740234375</LongitudeDegrees>
            </Position>
            <AltitudeMeters>692</AltitudeMeters>
            <DistanceMeters>NAN</DistanceMeters>
          </Trackpoint>
          <Trackpoint>
            <Time>2021-08-09T12:01:25.000Z</Time>
            <Position>
              <LatitudeDegrees>43.04637962020933628082275390625</LatitudeDegrees>
              <LongitudeDegrees>-1.7581995762884616851806640625</LongitudeDegrees>
            </Position>
            <AltitudeMeters>692.20001220703125</AltitudeMeters>
            <DistanceMeters>NAN</DistanceMeters>
          </Trackpoint>
          <Trackpoint>
            <Time>2021-08-09T12:01:26.000Z</Time>
            <Position>
              <LatitudeDegrees>43.0464025028049945831298828125</LatitudeDegrees>
              <LongitudeDegrees>-1.7582337744534015655517578125</LongitudeDegrees>
            </Position>
            <AltitudeMeters>692.20001220703125</AltitudeMeters>
            <DistanceMeters>NAN</DistanceMeters>
          </Trackpoint>
          <Trackpoint>
            <Time>2021-08-09T12:01:31.000Z</Time>
            <Position>
              <LatitudeDegrees>43.04650434292852878570556640625</LatitudeDegrees>
              <LongitudeDegrees>-1.75841390155255794525146484375</LongitudeDegrees>
            </Position>
            <AltitudeMeters>692.79998779296875</AltitudeMeters>
            <DistanceMeters>NAN</DistanceMeters>
          </Trackpoint>
          <Trackpoint>
            <Time>2021-08-09T12:01:35.000Z</Time>
            <Position>
              <LatitudeDegrees>43.0465855635702610015869140625</LatitudeDegrees>
              <LongitudeDegrees>-1.75856745801866054534912109375</LongitudeDegrees>
            </Position>
            <AltitudeMeters>693.20001220703125</AltitudeMeters>
            <DistanceMeters>NAN</DistanceMeters>
          </Trackpoint>
          <Trackpoint>
            <Time>2021-08-09T12:01:36.000Z</Time>
            <Position>
              <LatitudeDegrees>43.0466110445559024810791015625</LatitudeDegrees>
              <LongitudeDegrees>-1.75860048271715641021728515625</LongitudeDegrees>
            </Position>
            <AltitudeMeters>693.4000244140625</AltitudeMeters>
            <DistanceMeters>NAN</DistanceMeters>
          </Trackpoint>
          <Trackpoint>
            <Time>2021-08-09T12:01:37.000Z</Time>
            <Position>
              <LatitudeDegrees>43.04664029739797115325927734375</LatitudeDegrees>
              <LongitudeDegrees>-1.75863401032984256744384765625</LongitudeDegrees>
            </Position>
            <AltitudeMeters>693.5999755859375</AltitudeMeters>
            <DistanceMeters>NAN</DistanceMeters>
          </Trackpoint>
          <Trackpoint>
            <Time>2021-08-09T12:01:38.000Z</Time>
            <Position>
              <LatitudeDegrees>43.04666996933519840240478515625</LatitudeDegrees>
              <LongitudeDegrees>-1.75865965895354747772216796875</LongitudeDegrees>
            </Position>
            <AltitudeMeters>693.5999755859375</AltitudeMeters>
            <DistanceMeters>NAN</DistanceMeters>
          </Trackpoint>
          <Trackpoint>
            <Time>2021-08-09T12:01:39.000Z</Time>
            <Position>
              <LatitudeDegrees>43.04670274257659912109375</LatitudeDegrees>
              <LongitudeDegrees>-1.758683882653713226318359375</LongitudeDegrees>
            </Position>
            <AltitudeMeters>693.79998779296875</AltitudeMeters>
            <DistanceMeters>NAN</DistanceMeters>
          </Trackpoint>
          <Trackpoint>
            <Time>2021-08-09T12:01:40.000Z</Time>
            <Position>
              <LatitudeDegrees>43.0467367731034755706787109375</LatitudeDegrees>
              <LongitudeDegrees>-1.75870140083134174346923828125</LongitudeDegrees>
            </Position>
            <AltitudeMeters>693.79998779296875</AltitudeMeters>
            <DistanceMeters>NAN</DistanceMeters>
          </Trackpoint>
          <Trackpoint>
            <Time>2021-08-09T12:01:41.000Z</Time>
            <Position>
              <LatitudeDegrees>43.0467786826193332672119140625</LatitudeDegrees>
              <LongitudeDegrees>-1.75872503779828548431396484375</LongitudeDegrees>
            </Position>
            <AltitudeMeters>694</AltitudeMeters>
            <DistanceMeters>NAN</DistanceMeters>
          </Trackpoint>
          <Trackpoint>
            <Time>2021-08-09T12:01:42.000Z</Time>
            <Position>
              <LatitudeDegrees>43.04680776782333850860595703125</LatitudeDegrees>
              <LongitudeDegrees>-1.75874113105237483978271484375</LongitudeDegrees>
            </Position>
            <AltitudeMeters>694</AltitudeMeters>
            <DistanceMeters>NAN</DistanceMeters>
          </Trackpoint>
          <Trackpoint>
            <Time>2021-08-09T12:01:43.000Z</Time>
            <Position>
              <LatitudeDegrees>43.0468531139194965362548828125</LatitudeDegrees>
              <LongitudeDegrees>-1.758772395551204681396484375</LongitudeDegrees>
            </Position>
            <AltitudeMeters>694.20001220703125</AltitudeMeters>
            <DistanceMeters>NAN</DistanceMeters>
          </Trackpoint>
          <Trackpoint>
            <Time>2021-08-09T12:01:44.000Z</Time>
            <Position>
              <LatitudeDegrees>43.04687976837158203125</LatitudeDegrees>
              <LongitudeDegrees>-1.75879091955721378326416015625</LongitudeDegrees>
            </Position>
            <AltitudeMeters>694.20001220703125</AltitudeMeters>
            <DistanceMeters>NAN</DistanceMeters>
          </Trackpoint>
          <Trackpoint>
            <Time>2021-08-09T12:01:45.000Z</Time>
            <Position>
              <LatitudeDegrees>43.04691539146006107330322265625</LatitudeDegrees>
              <LongitudeDegrees>-1.75880919210612773895263671875</LongitudeDegrees>
            </Position>
            <AltitudeMeters>694.20001220703125</AltitudeMeters>
            <DistanceMeters>NAN</DistanceMeters>
          </Trackpoint>
          <Trackpoint>
            <Time>2021-08-09T12:01:46.000Z</Time>
            <Position>
              <LatitudeDegrees>43.04694824852049350738525390625</LatitudeDegrees>
              <LongitudeDegrees>-1.7588174901902675628662109375</LongitudeDegrees>
            </Position>
            <AltitudeMeters>694.4000244140625</AltitudeMeters>
            <DistanceMeters>NAN</DistanceMeters>
          </Trackpoint>
          <Trackpoint>
            <Time>2021-08-09T12:01:47.000Z</Time>
            <Position>
              <LatitudeDegrees>43.04697641171514987945556640625</LatitudeDegrees>
              <LongitudeDegrees>-1.75882763229310512542724609375</LongitudeDegrees>
            </Position>
            <AltitudeMeters>694.5999755859375</AltitudeMeters>
            <DistanceMeters>NAN</DistanceMeters>
          </Trackpoint>
          <Trackpoint>
            <Time>2021-08-09T12:01:48.000Z</Time>
            <Position>
              <LatitudeDegrees>43.0470018088817596435546875</LatitudeDegrees>
              <LongitudeDegrees>-1.7588396184146404266357421875</LongitudeDegrees>
            </Position>
            <AltitudeMeters>694.79998779296875</AltitudeMeters>
            <DistanceMeters>NAN</DistanceMeters>
          </Trackpoint>
          <Trackpoint>
            <Time>2021-08-09T12:01:49.000Z</Time>
            <Position>
              <LatitudeDegrees>43.0470318160951137542724609375</LatitudeDegrees>
              <LongitudeDegrees>-1.758850514888763427734375</LongitudeDegrees>
            </Position>
            <AltitudeMeters>695</AltitudeMeters>
            <DistanceMeters>NAN</DistanceMeters>
          </Trackpoint>
          <Trackpoint>
            <Time>2021-08-09T12:01:50.000Z</Time>
            <Position>
              <LatitudeDegrees>43.04706576280295848846435546875</LatitudeDegrees>
              <LongitudeDegrees>-1.7588671110570430755615234375</LongitudeDegrees>
            </Position>
            <AltitudeMeters>695.20001220703125</AltitudeMeters>
            <DistanceMeters>NAN</DistanceMeters>
          </Trackpoint>
          <Trackpoint>
            <Time>2021-08-09T12:01:51.000Z</Time>
            <Position>
              <LatitudeDegrees>43.0470983684062957763671875</LatitudeDegrees>
              <LongitudeDegrees>-1.7588838748633861541748046875</LongitudeDegrees>
            </Position>
            <AltitudeMeters>695.4000244140625</AltitudeMeters>
            <DistanceMeters>NAN</DistanceMeters>
          </Trackpoint>
          <Trackpoint>
            <Time>2021-08-09T12:01:52.000Z</Time>
            <Position>
              <LatitudeDegrees>43.047128207981586456298828125</LatitudeDegrees>
              <LongitudeDegrees>-1.75889410078525543212890625</LongitudeDegrees>
            </Position>
            <AltitudeMeters>695.5999755859375</AltitudeMeters>
            <DistanceMeters>NAN</DistanceMeters>
          </Trackpoint>
          <Trackpoint>
            <Time>2021-08-09T12:01:53.000Z</Time>
            <Position>
              <LatitudeDegrees>43.0471598915755748748779296875</LatitudeDegrees>
              <LongitudeDegrees>-1.7589055001735687255859375</LongitudeDegrees>
            </Position>
            <AltitudeMeters>695.5999755859375</AltitudeMeters>
            <DistanceMeters>NAN</DistanceMeters>
          </Trackpoint>
          <Trackpoint>
            <Time>2021-08-09T12:01:54.000Z</Time>
            <Position>
              <LatitudeDegrees>43.0471922457218170166015625</LatitudeDegrees>
              <LongitudeDegrees>-1.75891958177089691162109375</LongitudeDegrees>
            </Position>
            <AltitudeMeters>695.79998779296875</AltitudeMeters>
            <DistanceMeters>NAN</DistanceMeters>
          </Trackpoint>
          <Trackpoint>
            <Time>2021-08-09T12:01:55.000Z</Time>
            <Position>
              <LatitudeDegrees>43.04722401313483715057373046875</LatitudeDegrees>
              <LongitudeDegrees>-1.75893156789243221282958984375</LongitudeDegrees>
            </Position>
            <AltitudeMeters>695.79998779296875</AltitudeMeters>
            <DistanceMeters>NAN</DistanceMeters>
          </Trackpoint>
          <Trackpoint>
            <Time>2021-08-09T12:01:56.000Z</Time>
            <Position>
              <LatitudeDegrees>43.047259636223316192626953125</LatitudeDegrees>
              <LongitudeDegrees>-1.75894179381430149078369140625</LongitudeDegrees>
            </Position>
            <AltitudeMeters>695.79998779296875</AltitudeMeters>
            <DistanceMeters>NAN</DistanceMeters>
          </Trackpoint>
          <Trackpoint>
            <Time>2021-08-09T12:01:57.000Z</Time>
            <Position>
              <LatitudeDegrees>43.0472956784069538116455078125</LatitudeDegrees>
              <LongitudeDegrees>-1.758945398032665252685546875</LongitudeDegrees>
            </Position>
            <AltitudeMeters>695.79998779296875</AltitudeMeters>
            <DistanceMeters>NAN</DistanceMeters>
          </Trackpoint>
          <Trackpoint>
            <Time>2021-08-09T12:01:58.000Z</Time>
            <Position>
              <LatitudeDegrees>43.047332726418972015380859375</LatitudeDegrees>
              <LongitudeDegrees>-1.75894196145236492156982421875</LongitudeDegrees>
            </Position>
            <AltitudeMeters>695.79998779296875</AltitudeMeters>
            <DistanceMeters>NAN</DistanceMeters>
          </Trackpoint>
          <Trackpoint>
            <Time>2021-08-09T12:01:59.000Z</Time>
            <Position>
              <LatitudeDegrees>43.04736818186938762664794921875</LatitudeDegrees>
              <LongitudeDegrees>-1.75893777050077915191650390625</LongitudeDegrees>
            </Position>
            <AltitudeMeters>696</AltitudeMeters>
            <DistanceMeters>NAN</DistanceMeters>
          </Trackpoint>
          <Trackpoint>
            <Time>2021-08-09T12:02:00.000Z</Time>
            <Position>
              <LatitudeDegrees>43.0474009551107883453369140625</LatitudeDegrees>
              <LongitudeDegrees>-1.7589298076927661895751953125</LongitudeDegrees>
            </Position>
            <AltitudeMeters>696</AltitudeMeters>
            <DistanceMeters>NAN</DistanceMeters>
          </Trackpoint>
          <Trackpoint>
            <Time>2021-08-09T12:02:01.000Z</Time>
            <Position>
              <LatitudeDegrees>43.04743221960961818695068359375</LatitudeDegrees>
              <LongitudeDegrees>-1.7589231021702289581298828125</LongitudeDegrees>
            </Position>
            <AltitudeMeters>696</AltitudeMeters>
            <DistanceMeters>NAN</DistanceMeters>
          </Trackpoint>
          <Trackpoint>
            <Time>2021-08-09T12:02:02.000Z</Time>
            <Position>
              <LatitudeDegrees>43.04746247828006744384765625</LatitudeDegrees>
              <LongitudeDegrees>-1.758911870419979095458984375</LongitudeDegrees>
            </Position>
            <AltitudeMeters>696</AltitudeMeters>
            <DistanceMeters>NAN</DistanceMeters>
          </Trackpoint>
          <Trackpoint>
            <Time>2021-08-09T12:02:03.000Z</Time>
            <Position>
              <LatitudeDegrees>43.0474938265979290008544921875</LatitudeDegrees>
              <LongitudeDegrees>-1.75890407525002956390380859375</LongitudeDegrees>
            </Position>
            <AltitudeMeters>696</AltitudeMeters>
            <DistanceMeters>NAN</DistanceMeters>
          </Trackpoint>
          <Trackpoint>
            <Time>2021-08-09T12:02:04.000Z</Time>
            <Position>
              <LatitudeDegrees>43.04752358235418796539306640625</LatitudeDegrees>
              <LongitudeDegrees>-1.758895106613636016845703125</LongitudeDegrees>
            </Position>
            <AltitudeMeters>696.20001220703125</AltitudeMeters>
            <DistanceMeters>NAN</DistanceMeters>
          </Trackpoint>
          <Trackpoint>
            <Time>2021-08-09T12:02:05.000Z</Time>
            <Position>
              <LatitudeDegrees>43.047555349767208099365234375</LatitudeDegrees>
              <LongitudeDegrees>-1.75889074802398681640625</LongitudeDegrees>
            </Position>
            <AltitudeMeters>696.20001220703125</AltitudeMeters>
            <DistanceMeters>NAN</DistanceMeters>
          </Trackpoint>
          <Trackpoint>
            <Time>2021-08-09T12:02:06.000Z</Time>
            <Position>
              <LatitudeDegrees>43.0475887097418308258056640625</LatitudeDegrees>
              <LongitudeDegrees>-1.75888865254819393157958984375</LongitudeDegrees>
            </Position>
            <AltitudeMeters>696.20001220703125</AltitudeMeters>
            <DistanceMeters>NAN</DistanceMeters>
          </Trackpoint>
          <Trackpoint>
            <Time>2021-08-09T12:02:07.000Z</Time>
            <Position>
              <LatitudeDegrees>43.04762131534516811370849609375</LatitudeDegrees>
              <LongitudeDegrees>-1.7588899098336696624755859375</LongitudeDegrees>
            </Position>
            <AltitudeMeters>696.20001220703125</AltitudeMeters>
            <DistanceMeters>NAN</DistanceMeters>
          </Trackpoint>
          <Trackpoint>
            <Time>2021-08-09T12:02:08.000Z</Time>
            <Position>
              <LatitudeDegrees>43.04765417240560054779052734375</LatitudeDegrees>
              <LongitudeDegrees>-1.75889804027974605560302734375</LongitudeDegrees>
            </Position>
            <AltitudeMeters>696.4000244140625</AltitudeMeters>
            <DistanceMeters>NAN</DistanceMeters>
          </Trackpoint>
          <Trackpoint>
            <Time>2021-08-09T12:02:09.000Z</Time>
            <Position>
              <LatitudeDegrees>43.0476805754005908966064453125</LatitudeDegrees>
              <LongitudeDegrees>-1.75890943966805934906005859375</LongitudeDegrees>
            </Position>
            <AltitudeMeters>696.5999755859375</AltitudeMeters>
            <DistanceMeters>NAN</DistanceMeters>
          </Trackpoint>
          <Trackpoint>
            <Time>2021-08-09T12:02:10.000Z</Time>
            <Position>
              <LatitudeDegrees>43.0477050505578517913818359375</LatitudeDegrees>
              <LongitudeDegrees>-1.7589288018643856048583984375</LongitudeDegrees>
            </Position>
            <AltitudeMeters>697</AltitudeMeters>
            <DistanceMeters>NAN</DistanceMeters>
          </Trackpoint>
          <Trackpoint>
            <Time>2021-08-09T12:02:11.000Z</Time>
            <Position>
              <LatitudeDegrees>43.04773765616118907928466796875</LatitudeDegrees>
              <LongitudeDegrees>-1.75895520485937595367431640625</LongitudeDegrees>
            </Position>
            <AltitudeMeters>697</AltitudeMeters>
            <DistanceMeters>NAN</DistanceMeters>
          </Trackpoint>
          <Trackpoint>
            <Time>2021-08-09T12:02:12.000Z</Time>
            <Position>
              <LatitudeDegrees>43.04775877855718135833740234375</LatitudeDegrees>
              <LongitudeDegrees>-1.7589700408279895782470703125</LongitudeDegrees>
            </Position>
            <AltitudeMeters>697.20001220703125</AltitudeMeters>
            <DistanceMeters>NAN</DistanceMeters>
          </Trackpoint>
          <Trackpoint>
            <Time>2021-08-09T12:02:13.000Z</Time>
            <Position>
              <LatitudeDegrees>43.0477754585444927215576171875</LatitudeDegrees>
              <LongitudeDegrees>-1.75898621790111064910888671875</LongitudeDegrees>
            </Position>
            <AltitudeMeters>697.20001220703125</AltitudeMeters>
            <DistanceMeters>NAN</DistanceMeters>
          </Trackpoint>
          <Trackpoint>
            <Time>2021-08-09T12:02:14.000Z</Time>
            <Position>
              <LatitudeDegrees>43.04778962396085262298583984375</LatitudeDegrees>
              <LongitudeDegrees>-1.7590049095451831817626953125</LongitudeDegrees>
            </Position>
            <AltitudeMeters>697.5999755859375</AltitudeMeters>
            <DistanceMeters>NAN</DistanceMeters>
          </Trackpoint>
          <Trackpoint>
            <Time>2021-08-09T12:02:15.000Z</Time>
            <Position>
              <LatitudeDegrees>43.04780781269073486328125</LatitudeDegrees>
              <LongitudeDegrees>-1.759031228721141815185546875</LongitudeDegrees>
            </Position>
            <AltitudeMeters>697.79998779296875</AltitudeMeters>
            <DistanceMeters>NAN</DistanceMeters>
          </Trackpoint>
          <Trackpoint>
            <Time>2021-08-09T12:02:17.000Z</Time>
            <Position>
              <LatitudeDegrees>43.04784947074949741363525390625</LatitudeDegrees>
              <LongitudeDegrees>-1.7590893991291522979736328125</LongitudeDegrees>
            </Position>
            <AltitudeMeters>698.20001220703125</AltitudeMeters>
            <DistanceMeters>NAN</DistanceMeters>
          </Trackpoint>
          <Trackpoint>
            <Time>2021-08-09T12:02:18.000Z</Time>
            <Position>
              <LatitudeDegrees>43.04786556400358676910400390625</LatitudeDegrees>
              <LongitudeDegrees>-1.7591173946857452392578125</LongitudeDegrees>
            </Position>
            <AltitudeMeters>698.20001220703125</AltitudeMeters>
            <DistanceMeters>NAN</DistanceMeters>
          </Trackpoint>
          <Trackpoint>
            <Time>2021-08-09T12:02:19.000Z</Time>
            <Position>
              <LatitudeDegrees>43.04788366891443729400634765625</LatitudeDegrees>
              <LongitudeDegrees>-1.75915419124066829681396484375</LongitudeDegrees>
            </Position>
            <AltitudeMeters>698.5999755859375</AltitudeMeters>
            <DistanceMeters>NAN</DistanceMeters>
          </Trackpoint>
          <Trackpoint>
            <Time>2021-08-09T12:02:20.000Z</Time>
            <Position>
              <LatitudeDegrees>43.04789657704532146453857421875</LatitudeDegrees>
              <LongitudeDegrees>-1.7591799236834049224853515625</LongitudeDegrees>
            </Position>
            <AltitudeMeters>698.5999755859375</AltitudeMeters>
            <DistanceMeters>NAN</DistanceMeters>
          </Trackpoint>
          <Trackpoint>
            <Time>2021-08-09T12:02:21.000Z</Time>
            <Position>
              <LatitudeDegrees>43.04791443049907684326171875</LatitudeDegrees>
              <LongitudeDegrees>-1.7592141218483448028564453125</LongitudeDegrees>
            </Position>
            <AltitudeMeters>698.79998779296875</AltitudeMeters>
            <DistanceMeters>NAN</DistanceMeters>
          </Trackpoint>
          <Trackpoint>
            <Time>2021-08-09T12:02:22.000Z</Time>
            <Position>
              <LatitudeDegrees>43.0479352176189422607421875</LatitudeDegrees>
              <LongitudeDegrees>-1.75924991257488727569580078125</LongitudeDegrees>
            </Position>
            <AltitudeMeters>698.79998779296875</AltitudeMeters>
            <DistanceMeters>NAN</DistanceMeters>
          </Trackpoint>
          <Trackpoint>
            <Time>2021-08-09T12:02:23.000Z</Time>
            <Position>
              <LatitudeDegrees>43.04795055650174617767333984375</LatitudeDegrees>
              <LongitudeDegrees>-1.75927522592246532440185546875</LongitudeDegrees>
            </Position>
            <AltitudeMeters>699</AltitudeMeters>
            <DistanceMeters>NAN</DistanceMeters>
          </Trackpoint>
          <Trackpoint>
            <Time>2021-08-09T12:02:24.000Z</Time>
            <Position>
              <LatitudeDegrees>43.047971762716770172119140625</LatitudeDegrees>
              <LongitudeDegrees>-1.759301461279392242431640625</LongitudeDegrees>
            </Position>
            <AltitudeMeters>699.20001220703125</AltitudeMeters>
            <DistanceMeters>NAN</DistanceMeters>
          </Trackpoint>
          <Trackpoint>
            <Time>2021-08-09T12:02:25.000Z</Time>
            <Position>
              <LatitudeDegrees>43.04799514822661876678466796875</LatitudeDegrees>
              <LongitudeDegrees>-1.7593264393508434295654296875</LongitudeDegrees>
            </Position>
            <AltitudeMeters>699.20001220703125</AltitudeMeters>
            <DistanceMeters>NAN</DistanceMeters>
          </Trackpoint>
          <Trackpoint>
            <Time>2021-08-09T12:02:26.000Z</Time>
            <Position>
              <LatitudeDegrees>43.04801761172711849212646484375</LatitudeDegrees>
              <LongitudeDegrees>-1.75935653038322925567626953125</LongitudeDegrees>
            </Position>
            <AltitudeMeters>699.4000244140625</AltitudeMeters>
            <DistanceMeters>NAN</DistanceMeters>
          </Trackpoint>
          <Trackpoint>
            <Time>2021-08-09T12:02:27.000Z</Time>
            <Position>
              <LatitudeDegrees>43.04804719984531402587890625</LatitudeDegrees>
              <LongitudeDegrees>-1.75938737578690052032470703125</LongitudeDegrees>
            </Position>
            <AltitudeMeters>699.5999755859375</AltitudeMeters>
            <DistanceMeters>NAN</DistanceMeters>
          </Trackpoint>
          <Trackpoint>
            <Time>2021-08-09T12:02:28.000Z</Time>
            <Position>
              <LatitudeDegrees>43.0480684898793697357177734375</LatitudeDegrees>
              <LongitudeDegrees>-1.7594124376773834228515625</LongitudeDegrees>
            </Position>
            <AltitudeMeters>699.79998779296875</AltitudeMeters>
            <DistanceMeters>NAN</DistanceMeters>
          </Trackpoint>
          <Trackpoint>
            <Time>2021-08-09T12:02:29.000Z</Time>
            <Position>
              <LatitudeDegrees>43.048095814883708953857421875</LatitudeDegrees>
              <LongitudeDegrees>-1.7594266869127750396728515625</LongitudeDegrees>
            </Position>
            <AltitudeMeters>700</AltitudeMeters>
            <DistanceMeters>NAN</DistanceMeters>
          </Trackpoint>
          <Trackpoint>
            <Time>2021-08-09T12:02:30.000Z</Time>
            <Position>
              <LatitudeDegrees>43.04811584763228893280029296875</LatitudeDegrees>
              <LongitudeDegrees>-1.7594417743384838104248046875</LongitudeDegrees>
            </Position>
            <AltitudeMeters>700</AltitudeMeters>
            <DistanceMeters>NAN</DistanceMeters>
          </Trackpoint>
          <Trackpoint>
            <Time>2021-08-09T12:02:31.000Z</Time>
            <Position>
              <LatitudeDegrees>43.0481388978660106658935546875</LatitudeDegrees>
              <LongitudeDegrees>-1.75946281291544437408447265625</LongitudeDegrees>
            </Position>
            <AltitudeMeters>700.20001220703125</AltitudeMeters>
            <DistanceMeters>NAN</DistanceMeters>
          </Trackpoint>
          <Trackpoint>
            <Time>2021-08-09T12:02:32.000Z</Time>
            <Position>
              <LatitudeDegrees>43.04816178046166896820068359375</LatitudeDegrees>
              <LongitudeDegrees>-1.75948510877788066864013671875</LongitudeDegrees>
            </Position>
            <AltitudeMeters>700.4000244140625</AltitudeMeters>
            <DistanceMeters>NAN</DistanceMeters>
          </Trackpoint>
          <Trackpoint>
            <Time>2021-08-09T12:02:33.000Z</Time>
            <Position>
              <LatitudeDegrees>43.04818977601826190948486328125</LatitudeDegrees>
              <LongitudeDegrees>-1.75951612181961536407470703125</LongitudeDegrees>
            </Position>
            <AltitudeMeters>700.5999755859375</AltitudeMeters>
            <DistanceMeters>NAN</DistanceMeters>
          </Trackpoint>
          <Trackpoint>
            <Time>2021-08-09T12:02:34.000Z</Time>
            <Position>
              <LatitudeDegrees>43.0482123233377933502197265625</LatitudeDegrees>
              <LongitudeDegrees>-1.7595369927585124969482421875</LongitudeDegrees>
            </Position>
            <AltitudeMeters>700.79998779296875</AltitudeMeters>
            <DistanceMeters>NAN</DistanceMeters>
          </Trackpoint>
          <Trackpoint>
            <Time>2021-08-09T12:02:35.000Z</Time>
            <Position>
              <LatitudeDegrees>43.0482357926666736602783203125</LatitudeDegrees>
              <LongitudeDegrees>-1.75955484621226787567138671875</LongitudeDegrees>
            </Position>
            <AltitudeMeters>701</AltitudeMeters>
            <DistanceMeters>NAN</DistanceMeters>
          </Trackpoint>
          <Trackpoint>
            <Time>2021-08-09T12:02:36.000Z</Time>
            <Position>
              <LatitudeDegrees>43.04825498722493648529052734375</LatitudeDegrees>
              <LongitudeDegrees>-1.75956859253346920013427734375</LongitudeDegrees>
            </Position>
            <AltitudeMeters>701.4000244140625</AltitudeMeters>
            <DistanceMeters>NAN</DistanceMeters>
          </Trackpoint>
          <Trackpoint>
            <Time>2021-08-09T12:02:37.000Z</Time>
            <Position>
              <LatitudeDegrees>43.0482780374586582183837890625</LatitudeDegrees>
              <LongitudeDegrees>-1.759583093225955963134765625</LongitudeDegrees>
            </Position>
            <AltitudeMeters>701.4000244140625</AltitudeMeters>
            <DistanceMeters>NAN</DistanceMeters>
          </Trackpoint>
          <Trackpoint>
            <Time>2021-08-09T12:02:38.000Z</Time>
            <Position>
              <LatitudeDegrees>43.04830326698720455169677734375</LatitudeDegrees>
              <LongitudeDegrees>-1.75959683954715728759765625</LongitudeDegrees>
            </Position>
            <AltitudeMeters>701.5999755859375</AltitudeMeters>
            <DistanceMeters>NAN</DistanceMeters>
          </Trackpoint>
          <Trackpoint>
            <Time>2021-08-09T12:02:39.000Z</Time>
            <Position>
              <LatitudeDegrees>43.04832505993545055389404296875</LatitudeDegrees>
              <LongitudeDegrees>-1.75960488617420196533203125</LongitudeDegrees>
            </Position>
            <AltitudeMeters>701.79998779296875</AltitudeMeters>
            <DistanceMeters>NAN</DistanceMeters>
          </Trackpoint>
          <Trackpoint>
            <Time>2021-08-09T12:02:40.000Z</Time>
            <Position>
              <LatitudeDegrees>43.04834299720823764801025390625</LatitudeDegrees>
              <LongitudeDegrees>-1.7596162855625152587890625</LongitudeDegrees>
            </Position>
            <AltitudeMeters>702</AltitudeMeters>
            <DistanceMeters>NAN</DistanceMeters>
          </Trackpoint>
          <Trackpoint>
            <Time>2021-08-09T12:02:41.000Z</Time>
            <Position>
              <LatitudeDegrees>43.048360347747802734375</LatitudeDegrees>
              <LongitudeDegrees>-1.75962257198989391326904296875</LongitudeDegrees>
            </Position>
            <AltitudeMeters>702.20001220703125</AltitudeMeters>
            <DistanceMeters>NAN</DistanceMeters>
          </Trackpoint>
          <Trackpoint>
            <Time>2021-08-09T12:02:42.000Z</Time>
            <Position>
              <LatitudeDegrees>43.048388175666332244873046875</LatitudeDegrees>
              <LongitudeDegrees>-1.75962634384632110595703125</LongitudeDegrees>
            </Position>
            <AltitudeMeters>702.4000244140625</AltitudeMeters>
            <DistanceMeters>NAN</DistanceMeters>
          </Trackpoint>
          <Trackpoint>
            <Time>2021-08-09T12:02:43.000Z</Time>
            <Position>
              <LatitudeDegrees>43.048425726592540740966796875</LatitudeDegrees>
              <LongitudeDegrees>-1.75963279791176319122314453125</LongitudeDegrees>
            </Position>
            <AltitudeMeters>702.79998779296875</AltitudeMeters>
            <DistanceMeters>NAN</DistanceMeters>
          </Trackpoint>
          <Trackpoint>
            <Time>2021-08-09T12:02:44.000Z</Time>
            <Position>
              <LatitudeDegrees>43.04845196194946765899658203125</LatitudeDegrees>
              <LongitudeDegrees>-1.7596355639398097991943359375</LongitudeDegrees>
            </Position>
            <AltitudeMeters>702.79998779296875</AltitudeMeters>
            <DistanceMeters>NAN</DistanceMeters>
          </Trackpoint>
          <Trackpoint>
            <Time>2021-08-09T12:02:45.000Z</Time>
            <Position>
              <LatitudeDegrees>43.04847610183060169219970703125</LatitudeDegrees>
              <LongitudeDegrees>-1.7596392519772052764892578125</LongitudeDegrees>
            </Position>
            <AltitudeMeters>703</AltitudeMeters>
            <DistanceMeters>NAN</DistanceMeters>
          </Trackpoint>
          <Trackpoint>
            <Time>2021-08-09T12:02:46.000Z</Time>
            <Position>
              <LatitudeDegrees>43.0484993197023868560791015625</LatitudeDegrees>
              <LongitudeDegrees>-1.7596426047384738922119140625</LongitudeDegrees>
            </Position>
            <AltitudeMeters>703</AltitudeMeters>
            <DistanceMeters>NAN</DistanceMeters>
          </Trackpoint>
          <Trackpoint>
            <Time>2021-08-09T12:02:47.000Z</Time>
            <Position>
              <LatitudeDegrees>43.0485291592776775360107421875</LatitudeDegrees>
              <LongitudeDegrees>-1.75964243710041046142578125</LongitudeDegrees>
            </Position>
            <AltitudeMeters>703.20001220703125</AltitudeMeters>
            <DistanceMeters>NAN</DistanceMeters>
          </Trackpoint>
          <Trackpoint>
            <Time>2021-08-09T12:02:48.000Z</Time>
            <Position>
              <LatitudeDegrees>43.04856545291841030120849609375</LatitudeDegrees>
              <LongitudeDegrees>-1.75964570604264736175537109375</LongitudeDegrees>
            </Position>
            <AltitudeMeters>703.4000244140625</AltitudeMeters>
            <DistanceMeters>NAN</DistanceMeters>
          </Trackpoint>
          <Trackpoint>
            <Time>2021-08-09T12:02:49.000Z</Time>
            <Position>
              <LatitudeDegrees>43.048591352999210357666015625</LatitudeDegrees>
              <LongitudeDegrees>-1.759654171764850616455078125</LongitudeDegrees>
            </Position>
            <AltitudeMeters>703.4000244140625</AltitudeMeters>
            <DistanceMeters>NAN</DistanceMeters>
          </Trackpoint>
          <Trackpoint>
            <Time>2021-08-09T12:02:50.000Z</Time>
            <Position>
              <LatitudeDegrees>43.04862747900187969207763671875</LatitudeDegrees>
              <LongitudeDegrees>-1.75966816954314708709716796875</LongitudeDegrees>
            </Position>
            <AltitudeMeters>703.5999755859375</AltitudeMeters>
            <DistanceMeters>NAN</DistanceMeters>
          </Trackpoint>
          <Trackpoint>
            <Time>2021-08-09T12:02:51.000Z</Time>
            <Position>
              <LatitudeDegrees>43.048657737672328948974609375</LatitudeDegrees>
              <LongitudeDegrees>-1.75967772491276264190673828125</LongitudeDegrees>
            </Position>
            <AltitudeMeters>703.5999755859375</AltitudeMeters>
            <DistanceMeters>NAN</DistanceMeters>
          </Trackpoint>
          <Trackpoint>
            <Time>2021-08-09T12:02:52.000Z</Time>
            <Position>
              <LatitudeDegrees>43.048683889210224151611328125</LatitudeDegrees>
              <LongitudeDegrees>-1.759681664407253265380859375</LongitudeDegrees>
            </Position>
            <AltitudeMeters>703.79998779296875</AltitudeMeters>
            <DistanceMeters>NAN</DistanceMeters>
          </Trackpoint>
          <Trackpoint>
            <Time>2021-08-09T12:02:53.000Z</Time>
            <Position>
              <LatitudeDegrees>43.04871884174644947052001953125</LatitudeDegrees>
              <LongitudeDegrees>-1.7596851848065853118896484375</LongitudeDegrees>
            </Position>
            <AltitudeMeters>704</AltitudeMeters>
            <DistanceMeters>NAN</DistanceMeters>
          </Trackpoint>
          <Trackpoint>
            <Time>2021-08-09T12:02:54.000Z</Time>
            <Position>
              <LatitudeDegrees>43.04876695387065410614013671875</LatitudeDegrees>
              <LongitudeDegrees>-1.75969515927135944366455078125</LongitudeDegrees>
            </Position>
            <AltitudeMeters>704.20001220703125</AltitudeMeters>
            <DistanceMeters>NAN</DistanceMeters>
          </Trackpoint>
          <Trackpoint>
            <Time>2021-08-09T12:02:55.000Z</Time>
            <Position>
              <LatitudeDegrees>43.04879880510270595550537109375</LatitudeDegrees>
              <LongitudeDegrees>-1.75969063304364681243896484375</LongitudeDegrees>
            </Position>
            <AltitudeMeters>704.20001220703125</AltitudeMeters>
            <DistanceMeters>NAN</DistanceMeters>
          </Trackpoint>
          <Trackpoint>
            <Time>2021-08-09T12:02:56.000Z</Time>
            <Position>
              <LatitudeDegrees>43.04883333854377269744873046875</LatitudeDegrees>
              <LongitudeDegrees>-1.75969817675650119781494140625</LongitudeDegrees>
            </Position>
            <AltitudeMeters>704.4000244140625</AltitudeMeters>
            <DistanceMeters>NAN</DistanceMeters>
          </Trackpoint>
          <Trackpoint>
            <Time>2021-08-09T12:02:57.000Z</Time>
            <Position>
              <LatitudeDegrees>43.04886217229068279266357421875</LatitudeDegrees>
              <LongitudeDegrees>-1.75970287062227725982666015625</LongitudeDegrees>
            </Position>
            <AltitudeMeters>704.5999755859375</AltitudeMeters>
            <DistanceMeters>NAN</DistanceMeters>
          </Trackpoint>
          <Trackpoint>
            <Time>2021-08-09T12:02:58.000Z</Time>
            <Position>
              <LatitudeDegrees>43.048894107341766357421875</LatitudeDegrees>
              <LongitudeDegrees>-1.7597069777548313140869140625</LongitudeDegrees>
            </Position>
            <AltitudeMeters>704.79998779296875</AltitudeMeters>
            <DistanceMeters>NAN</DistanceMeters>
          </Trackpoint>
          <Trackpoint>
            <Time>2021-08-09T12:02:59.000Z</Time>
            <Position>
              <LatitudeDegrees>43.04893006570637226104736328125</LatitudeDegrees>
              <LongitudeDegrees>-1.75971485674381256103515625</LongitudeDegrees>
            </Position>
            <AltitudeMeters>705</AltitudeMeters>
            <DistanceMeters>NAN</DistanceMeters>
          </Trackpoint>
          <Trackpoint>
            <Time>2021-08-09T12:03:00.000Z</Time>
            <Position>
              <LatitudeDegrees>43.0489599891006946563720703125</LatitudeDegrees>
              <LongitudeDegrees>-1.7597180418670177459716796875</LongitudeDegrees>
            </Position>
            <AltitudeMeters>705.20001220703125</AltitudeMeters>
            <DistanceMeters>NAN</DistanceMeters>
          </Trackpoint>
          <Trackpoint>
            <Time>2021-08-09T12:03:01.000Z</Time>
            <Position>
              <LatitudeDegrees>43.0489955283701419830322265625</LatitudeDegrees>
              <LongitudeDegrees>-1.75973069854080677032470703125</LongitudeDegrees>
            </Position>
            <AltitudeMeters>705.4000244140625</AltitudeMeters>
            <DistanceMeters>NAN</DistanceMeters>
          </Trackpoint>
          <Trackpoint>
            <Time>2021-08-09T12:03:02.000Z</Time>
            <Position>
              <LatitudeDegrees>43.04902377538383007049560546875</LatitudeDegrees>
              <LongitudeDegrees>-1.75974293611943721771240234375</LongitudeDegrees>
            </Position>
            <AltitudeMeters>705.4000244140625</AltitudeMeters>
            <DistanceMeters>NAN</DistanceMeters>
          </Trackpoint>
          <Trackpoint>
            <Time>2021-08-09T12:03:03.000Z</Time>
            <Position>
              <LatitudeDegrees>43.04905847646296024322509765625</LatitudeDegrees>
              <LongitudeDegrees>-1.75976288504898548126220703125</LongitudeDegrees>
            </Position>
            <AltitudeMeters>705.79998779296875</AltitudeMeters>
            <DistanceMeters>NAN</DistanceMeters>
          </Trackpoint>
          <Trackpoint>
            <Time>2021-08-09T12:03:04.000Z</Time>
            <Position>
              <LatitudeDegrees>43.04909971542656421661376953125</LatitudeDegrees>
              <LongitudeDegrees>-1.75977478735148906707763671875</LongitudeDegrees>
            </Position>
            <AltitudeMeters>705.79998779296875</AltitudeMeters>
            <DistanceMeters>NAN</DistanceMeters>
          </Trackpoint>
          <Trackpoint>
            <Time>2021-08-09T12:03:05.000Z</Time>
            <Position>
              <LatitudeDegrees>43.0491326563060283660888671875</LatitudeDegrees>
              <LongitudeDegrees>-1.75978199578821659088134765625</LongitudeDegrees>
            </Position>
            <AltitudeMeters>706</AltitudeMeters>
            <DistanceMeters>NAN</DistanceMeters>
          </Trackpoint>
          <Trackpoint>
            <Time>2021-08-09T12:03:06.000Z</Time>
            <Position>
              <LatitudeDegrees>43.04916442371904850006103515625</LatitudeDegrees>
              <LongitudeDegrees>-1.759798340499401092529296875</LongitudeDegrees>
            </Position>
            <AltitudeMeters>706</AltitudeMeters>
            <DistanceMeters>NAN</DistanceMeters>
          </Trackpoint>
          <Trackpoint>
            <Time>2021-08-09T12:03:07.000Z</Time>
            <Position>
              <LatitudeDegrees>43.0491973645985126495361328125</LatitudeDegrees>
              <LongitudeDegrees>-1.75981082953512668609619140625</LongitudeDegrees>
            </Position>
            <AltitudeMeters>706.20001220703125</AltitudeMeters>
            <DistanceMeters>NAN</DistanceMeters>
          </Trackpoint>
          <Trackpoint>
            <Time>2021-08-09T12:03:08.000Z</Time>
            <Position>
              <LatitudeDegrees>43.04922041483223438262939453125</LatitudeDegrees>
              <LongitudeDegrees>-1.7598142661154270172119140625</LongitudeDegrees>
            </Position>
            <AltitudeMeters>706.4000244140625</AltitudeMeters>
            <DistanceMeters>NAN</DistanceMeters>
          </Trackpoint>
          <Trackpoint>
            <Time>2021-08-09T12:03:09.000Z</Time>
            <Position>
              <LatitudeDegrees>43.0492523498833179473876953125</LatitudeDegrees>
              <LongitudeDegrees>-1.75984896719455718994140625</LongitudeDegrees>
            </Position>
            <AltitudeMeters>706.4000244140625</AltitudeMeters>
            <DistanceMeters>NAN</DistanceMeters>
          </Trackpoint>
          <Trackpoint>
            <Time>2021-08-09T12:03:10.000Z</Time>
            <Position>
              <LatitudeDegrees>43.04928562603890895843505859375</LatitudeDegrees>
              <LongitudeDegrees>-1.7598685808479785919189453125</LongitudeDegrees>
            </Position>
            <AltitudeMeters>706.5999755859375</AltitudeMeters>
            <DistanceMeters>NAN</DistanceMeters>
          </Trackpoint>
          <Trackpoint>
            <Time>2021-08-09T12:03:11.000Z</Time>
            <Position>
              <LatitudeDegrees>43.0493165552616119384765625</LatitudeDegrees>
              <LongitudeDegrees>-1.7598856799304485321044921875</LongitudeDegrees>
            </Position>
            <AltitudeMeters>706.79998779296875</AltitudeMeters>
            <DistanceMeters>NAN</DistanceMeters>
          </Trackpoint>
          <Trackpoint>
            <Time>2021-08-09T12:03:12.000Z</Time>
            <Position>
              <LatitudeDegrees>43.0493541061878204345703125</LatitudeDegrees>
              <LongitudeDegrees>-1.75991426222026348114013671875</LongitudeDegrees>
            </Position>
            <AltitudeMeters>707</AltitudeMeters>
            <DistanceMeters>NAN</DistanceMeters>
          </Trackpoint>
          <Trackpoint>
            <Time>2021-08-09T12:03:13.000Z</Time>
            <Position>
              <LatitudeDegrees>43.04938419722020626068115234375</LatitudeDegrees>
              <LongitudeDegrees>-1.7599373124539852142333984375</LongitudeDegrees>
            </Position>
            <AltitudeMeters>707</AltitudeMeters>
            <DistanceMeters>NAN</DistanceMeters>
          </Trackpoint>
          <Trackpoint>
            <Time>2021-08-09T12:03:14.000Z</Time>
            <Position>
              <LatitudeDegrees>43.04941856302320957183837890625</LatitudeDegrees>
              <LongitudeDegrees>-1.75996757112443447113037109375</LongitudeDegrees>
            </Position>
            <AltitudeMeters>707.20001220703125</AltitudeMeters>
            <DistanceMeters>NAN</DistanceMeters>
          </Trackpoint>
          <Trackpoint>
            <Time>2021-08-09T12:03:15.000Z</Time>
            <Position>
              <LatitudeDegrees>43.0494622327387332916259765625</LatitudeDegrees>
              <LongitudeDegrees>-1.76000646315515041351318359375</LongitudeDegrees>
            </Position>
            <AltitudeMeters>707.20001220703125</AltitudeMeters>
            <DistanceMeters>NAN</DistanceMeters>
          </Trackpoint>
          <Trackpoint>
            <Time>2021-08-09T12:03:16.000Z</Time>
            <Position>
              <LatitudeDegrees>43.04950632154941558837890625</LatitudeDegrees>
              <LongitudeDegrees>-1.760014258325099945068359375</LongitudeDegrees>
            </Position>
            <AltitudeMeters>707.4000244140625</AltitudeMeters>
            <DistanceMeters>NAN</DistanceMeters>
          </Trackpoint>
          <Trackpoint>
            <Time>2021-08-09T12:03:17.000Z</Time>
            <Position>
              <LatitudeDegrees>43.04954412393271923065185546875</LatitudeDegrees>
              <LongitudeDegrees>-1.760021634399890899658203125</LongitudeDegrees>
            </Position>
            <AltitudeMeters>707.5999755859375</AltitudeMeters>
            <DistanceMeters>NAN</DistanceMeters>
          </Trackpoint>
          <Trackpoint>
            <Time>2021-08-09T12:03:18.000Z</Time>
            <Position>
              <LatitudeDegrees>43.04956692270934581756591796875</LatitudeDegrees>
              <LongitudeDegrees>-1.76002071239054203033447265625</LongitudeDegrees>
            </Position>
            <AltitudeMeters>707.79998779296875</AltitudeMeters>
            <DistanceMeters>NAN</DistanceMeters>
          </Trackpoint>
          <Trackpoint>
            <Time>2021-08-09T12:03:19.000Z</Time>
            <Position>
              <LatitudeDegrees>43.04960832931101322174072265625</LatitudeDegrees>
              <LongitudeDegrees>-1.76000713370740413665771484375</LongitudeDegrees>
            </Position>
            <AltitudeMeters>707.5999755859375</AltitudeMeters>
            <DistanceMeters>NAN</DistanceMeters>
          </Trackpoint>
          <Trackpoint>
            <Time>2021-08-09T12:03:20.000Z</Time>
            <Position>
              <LatitudeDegrees>43.04965652525424957275390625</LatitudeDegrees>
              <LongitudeDegrees>-1.7600120790302753448486328125</LongitudeDegrees>
            </Position>
            <AltitudeMeters>707.79998779296875</AltitudeMeters>
            <DistanceMeters>NAN</DistanceMeters>
          </Trackpoint>
          <Trackpoint>
            <Time>2021-08-09T12:03:21.000Z</Time>
            <Position>
              <LatitudeDegrees>43.0496888794004917144775390625</LatitudeDegrees>
              <LongitudeDegrees>-1.76000629551708698272705078125</LongitudeDegrees>
            </Position>
            <AltitudeMeters>708</AltitudeMeters>
            <DistanceMeters>NAN</DistanceMeters>
          </Trackpoint>
          <Trackpoint>
            <Time>2021-08-09T12:03:22.000Z</Time>
            <Position>
              <LatitudeDegrees>43.0497170425951480865478515625</LatitudeDegrees>
              <LongitudeDegrees>-1.7600006796419620513916015625</LongitudeDegrees>
            </Position>
            <AltitudeMeters>708</AltitudeMeters>
            <DistanceMeters>NAN</DistanceMeters>
          </Trackpoint>
          <Trackpoint>
            <Time>2021-08-09T12:03:23.000Z</Time>
            <Position>
              <LatitudeDegrees>43.04974461905658245086669921875</LatitudeDegrees>
              <LongitudeDegrees>-1.75999925471842288970947265625</LongitudeDegrees>
            </Position>
            <AltitudeMeters>708.20001220703125</AltitudeMeters>
            <DistanceMeters>NAN</DistanceMeters>
          </Trackpoint>
          <Trackpoint>
            <Time>2021-08-09T12:03:24.000Z</Time>
            <Position>
              <LatitudeDegrees>43.049781583249568939208984375</LatitudeDegrees>
              <LongitudeDegrees>-1.7599973268806934356689453125</LongitudeDegrees>
            </Position>
            <AltitudeMeters>708.4000244140625</AltitudeMeters>
            <DistanceMeters>NAN</DistanceMeters>
          </Trackpoint>
          <Trackpoint>
            <Time>2021-08-09T12:03:25.000Z</Time>
            <Position>
              <LatitudeDegrees>43.04982156492769718170166015625</LatitudeDegrees>
              <LongitudeDegrees>-1.75999472849071025848388671875</LongitudeDegrees>
            </Position>
            <AltitudeMeters>708.5999755859375</AltitudeMeters>
            <DistanceMeters>NAN</DistanceMeters>
          </Trackpoint>
          <Trackpoint>
            <Time>2021-08-09T12:03:26.000Z</Time>
            <Position>
              <LatitudeDegrees>43.04985643364489078521728515625</LatitudeDegrees>
              <LongitudeDegrees>-1.75999187864363193511962890625</LongitudeDegrees>
            </Position>
            <AltitudeMeters>708.5999755859375</AltitudeMeters>
            <DistanceMeters>NAN</DistanceMeters>
          </Trackpoint>
          <Trackpoint>
            <Time>2021-08-09T12:03:27.000Z</Time>
            <Position>
              <LatitudeDegrees>43.04988853633403778076171875</LatitudeDegrees>
              <LongitudeDegrees>-1.75999053753912448883056640625</LongitudeDegrees>
            </Position>
            <AltitudeMeters>708.79998779296875</AltitudeMeters>
            <DistanceMeters>NAN</DistanceMeters>
          </Trackpoint>
          <Trackpoint>
            <Time>2021-08-09T12:03:28.000Z</Time>
            <Position>
              <LatitudeDegrees>43.04992114193737506866455078125</LatitudeDegrees>
              <LongitudeDegrees>-1.75998450256884098052978515625</LongitudeDegrees>
            </Position>
            <AltitudeMeters>708.79998779296875</AltitudeMeters>
            <DistanceMeters>NAN</DistanceMeters>
          </Trackpoint>
          <Trackpoint>
            <Time>2021-08-09T12:03:29.000Z</Time>
            <Position>
              <LatitudeDegrees>43.049954585731029510498046875</LatitudeDegrees>
              <LongitudeDegrees>-1.75998031161725521087646484375</LongitudeDegrees>
            </Position>
            <AltitudeMeters>708.79998779296875</AltitudeMeters>
            <DistanceMeters>NAN</DistanceMeters>
          </Trackpoint>
          <Trackpoint>
            <Time>2021-08-09T12:03:30.000Z</Time>
            <Position>
              <LatitudeDegrees>43.0499879457056522369384765625</LatitudeDegrees>
              <LongitudeDegrees>-1.75997712649405002593994140625</LongitudeDegrees>
            </Position>
            <AltitudeMeters>709</AltitudeMeters>
            <DistanceMeters>NAN</DistanceMeters>
          </Trackpoint>
          <Trackpoint>
            <Time>2021-08-09T12:03:31.000Z</Time>
            <Position>
              <LatitudeDegrees>43.0500214733183383941650390625</LatitudeDegrees>
              <LongitudeDegrees>-1.75997511483728885650634765625</LongitudeDegrees>
            </Position>
            <AltitudeMeters>709.20001220703125</AltitudeMeters>
            <DistanceMeters>NAN</DistanceMeters>
          </Trackpoint>
          <Trackpoint>
            <Time>2021-08-09T12:03:32.000Z</Time>
            <Position>
              <LatitudeDegrees>43.05005349218845367431640625</LatitudeDegrees>
              <LongitudeDegrees>-1.75996975041925907135009765625</LongitudeDegrees>
            </Position>
            <AltitudeMeters>709.20001220703125</AltitudeMeters>
            <DistanceMeters>NAN</DistanceMeters>
          </Trackpoint>
          <Trackpoint>
            <Time>2021-08-09T12:03:33.000Z</Time>
            <Position>
              <LatitudeDegrees>43.05008031427860260009765625</LatitudeDegrees>
              <LongitudeDegrees>-1.759967319667339324951171875</LongitudeDegrees>
            </Position>
            <AltitudeMeters>709.20001220703125</AltitudeMeters>
            <DistanceMeters>NAN</DistanceMeters>
          </Trackpoint>
          <Trackpoint>
            <Time>2021-08-09T12:03:34.000Z</Time>
            <Position>
              <LatitudeDegrees>43.050119541585445404052734375</LatitudeDegrees>
              <LongitudeDegrees>-1.75996371544897556304931640625</LongitudeDegrees>
            </Position>
            <AltitudeMeters>709.4000244140625</AltitudeMeters>
            <DistanceMeters>NAN</DistanceMeters>
          </Trackpoint>
          <Trackpoint>
            <Time>2021-08-09T12:03:35.000Z</Time>
            <Position>
              <LatitudeDegrees>43.0501525662839412689208984375</LatitudeDegrees>
              <LongitudeDegrees>-1.759961284697055816650390625</LongitudeDegrees>
            </Position>
            <AltitudeMeters>709.5999755859375</AltitudeMeters>
            <DistanceMeters>NAN</DistanceMeters>
          </Trackpoint>
          <Trackpoint>
            <Time>2021-08-09T12:03:36.000Z</Time>
            <Position>
              <LatitudeDegrees>43.0501842498779296875</LatitudeDegrees>
              <LongitudeDegrees>-1.75995491445064544677734375</LongitudeDegrees>
            </Position>
            <AltitudeMeters>709.79998779296875</AltitudeMeters>
            <DistanceMeters>NAN</DistanceMeters>
          </Trackpoint>
          <Trackpoint>
            <Time>2021-08-09T12:03:37.000Z</Time>
            <Position>
              <LatitudeDegrees>43.0502152629196643829345703125</LatitudeDegrees>
              <LongitudeDegrees>-1.75994544290006160736083984375</LongitudeDegrees>
            </Position>
            <AltitudeMeters>709.79998779296875</AltitudeMeters>
            <DistanceMeters>NAN</DistanceMeters>
          </Trackpoint>
          <Trackpoint>
            <Time>2021-08-09T12:03:38.000Z</Time>
            <Position>
              <LatitudeDegrees>43.05024703033268451690673828125</LatitudeDegrees>
              <LongitudeDegrees>-1.7599336244165897369384765625</LongitudeDegrees>
            </Position>
            <AltitudeMeters>710</AltitudeMeters>
            <DistanceMeters>NAN</DistanceMeters>
          </Trackpoint>
          <Trackpoint>
            <Time>2021-08-09T12:03:39.000Z</Time>
            <Position>
              <LatitudeDegrees>43.05027452297508716583251953125</LatitudeDegrees>
              <LongitudeDegrees>-1.75991174764931201934814453125</LongitudeDegrees>
            </Position>
            <AltitudeMeters>710</AltitudeMeters>
            <DistanceMeters>NAN</DistanceMeters>
          </Trackpoint>
          <Trackpoint>
            <Time>2021-08-09T12:03:40.000Z</Time>
            <Position>
              <LatitudeDegrees>43.0502984113991260528564453125</LatitudeDegrees>
              <LongitudeDegrees>-1.7598876915872097015380859375</LongitudeDegrees>
            </Position>
            <AltitudeMeters>710</AltitudeMeters>
            <DistanceMeters>NAN</DistanceMeters>
          </Trackpoint>
          <Trackpoint>
            <Time>2021-08-09T12:03:41.000Z</Time>
            <Position>
              <LatitudeDegrees>43.050320036709308624267578125</LatitudeDegrees>
              <LongitudeDegrees>-1.75986262969672679901123046875</LongitudeDegrees>
            </Position>
            <AltitudeMeters>710.20001220703125</AltitudeMeters>
            <DistanceMeters>NAN</DistanceMeters>
          </Trackpoint>
          <Trackpoint>
            <Time>2021-08-09T12:03:42.000Z</Time>
            <Position>
              <LatitudeDegrees>43.05033981800079345703125</LatitudeDegrees>
              <LongitudeDegrees>-1.7598430998623371124267578125</LongitudeDegrees>
            </Position>
            <AltitudeMeters>710.20001220703125</AltitudeMeters>
            <DistanceMeters>NAN</DistanceMeters>
          </Trackpoint>
          <Trackpoint>
            <Time>2021-08-09T12:03:43.000Z</Time>
            <Position>
              <LatitudeDegrees>43.0503678135573863983154296875</LatitudeDegrees>
              <LongitudeDegrees>-1.7598213069140911102294921875</LongitudeDegrees>
            </Position>
            <AltitudeMeters>710</AltitudeMeters>
            <DistanceMeters>NAN</DistanceMeters>
          </Trackpoint>
          <Trackpoint>
            <Time>2021-08-09T12:03:44.000Z</Time>
            <Position>
              <LatitudeDegrees>43.0503986589610576629638671875</LatitudeDegrees>
              <LongitudeDegrees>-1.759809069335460662841796875</LongitudeDegrees>
            </Position>
            <AltitudeMeters>710.20001220703125</AltitudeMeters>
            <DistanceMeters>NAN</DistanceMeters>
          </Trackpoint>
          <Trackpoint>
            <Time>2021-08-09T12:03:45.000Z</Time>
            <Position>
              <LatitudeDegrees>43.0504224635660648345947265625</LatitudeDegrees>
              <LongitudeDegrees>-1.7598040401935577392578125</LongitudeDegrees>
            </Position>
            <AltitudeMeters>710.20001220703125</AltitudeMeters>
            <DistanceMeters>NAN</DistanceMeters>
          </Trackpoint>
          <Trackpoint>
            <Time>2021-08-09T12:03:46.000Z</Time>
            <Position>
              <LatitudeDegrees>43.05044802837073802947998046875</LatitudeDegrees>
              <LongitudeDegrees>-1.759793646633625030517578125</LongitudeDegrees>
            </Position>
            <AltitudeMeters>710.20001220703125</AltitudeMeters>
            <DistanceMeters>NAN</DistanceMeters>
          </Trackpoint>
          <Trackpoint>
            <Time>2021-08-09T12:03:47.000Z</Time>
            <Position>
              <LatitudeDegrees>43.05047216825187206268310546875</LatitudeDegrees>
              <LongitudeDegrees>-1.75979423336684703826904296875</LongitudeDegrees>
            </Position>
            <AltitudeMeters>710.4000244140625</AltitudeMeters>
            <DistanceMeters>NAN</DistanceMeters>
          </Trackpoint>
          <Trackpoint>
            <Time>2021-08-09T12:03:48.000Z</Time>
            <Position>
              <LatitudeDegrees>43.0505093000829219818115234375</LatitudeDegrees>
              <LongitudeDegrees>-1.759785600006580352783203125</LongitudeDegrees>
            </Position>
            <AltitudeMeters>710.5999755859375</AltitudeMeters>
            <DistanceMeters>NAN</DistanceMeters>
          </Trackpoint>
          <Trackpoint>
            <Time>2021-08-09T12:03:49.000Z</Time>
            <Position>
              <LatitudeDegrees>43.0505391396582126617431640625</LatitudeDegrees>
              <LongitudeDegrees>-1.759776882827281951904296875</LongitudeDegrees>
            </Position>
            <AltitudeMeters>710.5999755859375</AltitudeMeters>
            <DistanceMeters>NAN</DistanceMeters>
          </Trackpoint>
          <Trackpoint>
            <Time>2021-08-09T12:03:50.000Z</Time>
            <Position>
              <LatitudeDegrees>43.05057325400412082672119140625</LatitudeDegrees>
              <LongitudeDegrees>-1.75977478735148906707763671875</LongitudeDegrees>
            </Position>
            <AltitudeMeters>710.79998779296875</AltitudeMeters>
            <DistanceMeters>NAN</DistanceMeters>
          </Trackpoint>
          <Trackpoint>
            <Time>2021-08-09T12:03:51.000Z</Time>
            <Position>
              <LatitudeDegrees>43.05059923790395259857177734375</LatitudeDegrees>
              <LongitudeDegrees>-1.759797669947147369384765625</LongitudeDegrees>
            </Position>
            <AltitudeMeters>711</AltitudeMeters>
            <DistanceMeters>NAN</DistanceMeters>
          </Trackpoint>
          <Trackpoint>
            <Time>2021-08-09T12:03:52.000Z</Time>
            <Position>
              <LatitudeDegrees>43.0506283231079578399658203125</LatitudeDegrees>
              <LongitudeDegrees>-1.7598327063024044036865234375</LongitudeDegrees>
            </Position>
            <AltitudeMeters>711.20001220703125</AltitudeMeters>
            <DistanceMeters>NAN</DistanceMeters>
          </Trackpoint>
          <Trackpoint>
            <Time>2021-08-09T12:03:53.000Z</Time>
            <Position>
              <LatitudeDegrees>43.05066210217773914337158203125</LatitudeDegrees>
              <LongitudeDegrees>-1.75984418950974941253662109375</LongitudeDegrees>
            </Position>
            <AltitudeMeters>711.20001220703125</AltitudeMeters>
            <DistanceMeters>NAN</DistanceMeters>
          </Trackpoint>
          <Trackpoint>
            <Time>2021-08-09T12:03:54.000Z</Time>
            <Position>
              <LatitudeDegrees>43.0506923608481884002685546875</LatitudeDegrees>
              <LongitudeDegrees>-1.7598601989448070526123046875</LongitudeDegrees>
            </Position>
            <AltitudeMeters>711.4000244140625</AltitudeMeters>
            <DistanceMeters>NAN</DistanceMeters>
          </Trackpoint>
          <Trackpoint>
            <Time>2021-08-09T12:03:55.000Z</Time>
            <Position>
              <LatitudeDegrees>43.050722368061542510986328125</LatitudeDegrees>
              <LongitudeDegrees>-1.7598585225641727447509765625</LongitudeDegrees>
            </Position>
            <AltitudeMeters>711.4000244140625</AltitudeMeters>
            <DistanceMeters>NAN</DistanceMeters>
          </Trackpoint>
          <Trackpoint>
            <Time>2021-08-09T12:03:56.000Z</Time>
            <Position>
              <LatitudeDegrees>43.05074608884751796722412109375</LatitudeDegrees>
              <LongitudeDegrees>-1.75986145623028278350830078125</LongitudeDegrees>
            </Position>
            <AltitudeMeters>711.5999755859375</AltitudeMeters>
            <DistanceMeters>NAN</DistanceMeters>
          </Trackpoint>
          <Trackpoint>
            <Time>2021-08-09T12:03:57.000Z</Time>
            <Position>
              <LatitudeDegrees>43.05077944882214069366455078125</LatitudeDegrees>
              <LongitudeDegrees>-1.7598684132099151611328125</LongitudeDegrees>
            </Position>
            <AltitudeMeters>711.79998779296875</AltitudeMeters>
            <DistanceMeters>NAN</DistanceMeters>
          </Trackpoint>
          <Trackpoint>
            <Time>2021-08-09T12:03:58.000Z</Time>
            <Position>
              <LatitudeDegrees>43.05080342106521129608154296875</LatitudeDegrees>
              <LongitudeDegrees>-1.75987042486667633056640625</LongitudeDegrees>
            </Position>
            <AltitudeMeters>711.79998779296875</AltitudeMeters>
            <DistanceMeters>NAN</DistanceMeters>
          </Trackpoint>
          <Trackpoint>
            <Time>2021-08-09T12:03:59.000Z</Time>
            <Position>
              <LatitudeDegrees>43.05083342827856540679931640625</LatitudeDegrees>
              <LongitudeDegrees>-1.7598779685795307159423828125</LongitudeDegrees>
            </Position>
            <AltitudeMeters>712.4000244140625</AltitudeMeters>
            <DistanceMeters>NAN</DistanceMeters>
          </Trackpoint>
          <Trackpoint>
            <Time>2021-08-09T12:04:00.000Z</Time>
            <Position>
              <LatitudeDegrees>43.0508620105683803558349609375</LatitudeDegrees>
              <LongitudeDegrees>-1.7599005997180938720703125</LongitudeDegrees>
            </Position>
            <AltitudeMeters>712.5999755859375</AltitudeMeters>
            <DistanceMeters>NAN</DistanceMeters>
          </Trackpoint>
          <Trackpoint>
            <Time>2021-08-09T12:04:01.000Z</Time>
            <Position>
              <LatitudeDegrees>43.05088908411562442779541015625</LatitudeDegrees>
              <LongitudeDegrees>-1.7599175311625003814697265625</LongitudeDegrees>
            </Position>
            <AltitudeMeters>712.79998779296875</AltitudeMeters>
            <DistanceMeters>NAN</DistanceMeters>
          </Trackpoint>
          <Trackpoint>
            <Time>2021-08-09T12:04:02.000Z</Time>
            <Position>
              <LatitudeDegrees>43.0509213544428348541259765625</LatitudeDegrees>
              <LongitudeDegrees>-1.75993588753044605255126953125</LongitudeDegrees>
            </Position>
            <AltitudeMeters>713</AltitudeMeters>
            <DistanceMeters>NAN</DistanceMeters>
          </Trackpoint>
          <Trackpoint>
            <Time>2021-08-09T12:04:03.000Z</Time>
            <Position>
              <LatitudeDegrees>43.05094758979976177215576171875</LatitudeDegrees>
              <LongitudeDegrees>-1.75993186421692371368408203125</LongitudeDegrees>
            </Position>
            <AltitudeMeters>713</AltitudeMeters>
            <DistanceMeters>NAN</DistanceMeters>
          </Trackpoint>
          <Trackpoint>
            <Time>2021-08-09T12:04:04.000Z</Time>
            <Position>
              <LatitudeDegrees>43.05097541771829128265380859375</LatitudeDegrees>
              <LongitudeDegrees>-1.75991375930607318878173828125</LongitudeDegrees>
            </Position>
            <AltitudeMeters>713.20001220703125</AltitudeMeters>
            <DistanceMeters>NAN</DistanceMeters>
          </Trackpoint>
          <Trackpoint>
            <Time>2021-08-09T12:04:05.000Z</Time>
            <Position>
              <LatitudeDegrees>43.0510055087506771087646484375</LatitudeDegrees>
              <LongitudeDegrees>-1.7599081434309482574462890625</LongitudeDegrees>
            </Position>
            <AltitudeMeters>713.4000244140625</AltitudeMeters>
            <DistanceMeters>NAN</DistanceMeters>
          </Trackpoint>
          <Trackpoint>
            <Time>2021-08-09T12:04:06.000Z</Time>
            <Position>
              <LatitudeDegrees>43.05103727616369724273681640625</LatitudeDegrees>
              <LongitudeDegrees>-1.75989925861358642578125</LongitudeDegrees>
            </Position>
            <AltitudeMeters>713.5999755859375</AltitudeMeters>
            <DistanceMeters>NAN</DistanceMeters>
          </Trackpoint>
          <Trackpoint>
            <Time>2021-08-09T12:04:07.000Z</Time>
            <Position>
              <LatitudeDegrees>43.05106946267187595367431640625</LatitudeDegrees>
              <LongitudeDegrees>-1.7599047906696796417236328125</LongitudeDegrees>
            </Position>
            <AltitudeMeters>713.5999755859375</AltitudeMeters>
            <DistanceMeters>NAN</DistanceMeters>
          </Trackpoint>
          <Trackpoint>
            <Time>2021-08-09T12:04:08.000Z</Time>
            <Position>
              <LatitudeDegrees>43.05109829641878604888916015625</LatitudeDegrees>
              <LongitudeDegrees>-1.75991459749639034271240234375</LongitudeDegrees>
            </Position>
            <AltitudeMeters>713.79998779296875</AltitudeMeters>
            <DistanceMeters>NAN</DistanceMeters>
          </Trackpoint>
          <Trackpoint>
            <Time>2021-08-09T12:04:09.000Z</Time>
            <Position>
              <LatitudeDegrees>43.05112713016569614410400390625</LatitudeDegrees>
              <LongitudeDegrees>-1.7599182017147541046142578125</LongitudeDegrees>
            </Position>
            <AltitudeMeters>714</AltitudeMeters>
            <DistanceMeters>NAN</DistanceMeters>
          </Trackpoint>
          <Trackpoint>
            <Time>2021-08-09T12:04:10.000Z</Time>
            <Position>
              <LatitudeDegrees>43.05115931667387485504150390625</LatitudeDegrees>
              <LongitudeDegrees>-1.759917028248310089111328125</LongitudeDegrees>
            </Position>
            <AltitudeMeters>714</AltitudeMeters>
            <DistanceMeters>NAN</DistanceMeters>
          </Trackpoint>
          <Trackpoint>
            <Time>2021-08-09T12:04:11.000Z</Time>
            <Position>
              <LatitudeDegrees>43.0511858873069286346435546875</LatitudeDegrees>
              <LongitudeDegrees>-1.75991535186767578125</LongitudeDegrees>
            </Position>
            <AltitudeMeters>714.20001220703125</AltitudeMeters>
            <DistanceMeters>NAN</DistanceMeters>
          </Trackpoint>
          <Trackpoint>
            <Time>2021-08-09T12:04:12.000Z</Time>
            <Position>
              <LatitudeDegrees>43.05121765471994876861572265625</LatitudeDegrees>
              <LongitudeDegrees>-1.75991727970540523529052734375</LongitudeDegrees>
            </Position>
            <AltitudeMeters>714.4000244140625</AltitudeMeters>
            <DistanceMeters>NAN</DistanceMeters>
          </Trackpoint>
          <Trackpoint>
            <Time>2021-08-09T12:04:13.000Z</Time>
            <Position>
              <LatitudeDegrees>43.05125403217971324920654296875</LatitudeDegrees>
              <LongitudeDegrees>-1.75993152894079685211181640625</LongitudeDegrees>
            </Position>
            <AltitudeMeters>714.79998779296875</AltitudeMeters>
            <DistanceMeters>NAN</DistanceMeters>
          </Trackpoint>
          <Trackpoint>
            <Time>2021-08-09T12:04:14.000Z</Time>
            <Position>
              <LatitudeDegrees>43.05128194391727447509765625</LatitudeDegrees>
              <LongitudeDegrees>-1.75993622280657291412353515625</LongitudeDegrees>
            </Position>
            <AltitudeMeters>714.79998779296875</AltitudeMeters>
            <DistanceMeters>NAN</DistanceMeters>
          </Trackpoint>
          <Trackpoint>
            <Time>2021-08-09T12:04:15.000Z</Time>
            <Position>
              <LatitudeDegrees>43.05131614208221435546875</LatitudeDegrees>
              <LongitudeDegrees>-1.7599554173648357391357421875</LongitudeDegrees>
            </Position>
            <AltitudeMeters>715</AltitudeMeters>
            <DistanceMeters>NAN</DistanceMeters>
          </Trackpoint>
          <Trackpoint>
            <Time>2021-08-09T12:04:16.000Z</Time>
            <Position>
              <LatitudeDegrees>43.05134422145783901214599609375</LatitudeDegrees>
              <LongitudeDegrees>-1.7599751986563205718994140625</LongitudeDegrees>
            </Position>
            <AltitudeMeters>715.20001220703125</AltitudeMeters>
            <DistanceMeters>NAN</DistanceMeters>
          </Trackpoint>
          <Trackpoint>
            <Time>2021-08-09T12:04:17.000Z</Time>
            <Position>
              <LatitudeDegrees>43.0513716302812099456787109375</LatitudeDegrees>
              <LongitudeDegrees>-1.7599775455892086029052734375</LongitudeDegrees>
            </Position>
            <AltitudeMeters>715.4000244140625</AltitudeMeters>
            <DistanceMeters>NAN</DistanceMeters>
          </Trackpoint>
          <Trackpoint>
            <Time>2021-08-09T12:04:18.000Z</Time>
            <Position>
              <LatitudeDegrees>43.05140809156000614166259765625</LatitudeDegrees>
              <LongitudeDegrees>-1.7599896155297756195068359375</LongitudeDegrees>
            </Position>
            <AltitudeMeters>715.5999755859375</AltitudeMeters>
            <DistanceMeters>NAN</DistanceMeters>
          </Trackpoint>
          <Trackpoint>
            <Time>2021-08-09T12:04:19.000Z</Time>
            <Position>
              <LatitudeDegrees>43.051433153450489044189453125</LatitudeDegrees>
              <LongitudeDegrees>-1.7599872685968875885009765625</LongitudeDegrees>
            </Position>
            <AltitudeMeters>715.79998779296875</AltitudeMeters>
            <DistanceMeters>NAN</DistanceMeters>
          </Trackpoint>
          <Trackpoint>
            <Time>2021-08-09T12:04:20.000Z</Time>
            <Position>
              <LatitudeDegrees>43.05145360529422760009765625</LatitudeDegrees>
              <LongitudeDegrees>-1.75999355502426624298095703125</LongitudeDegrees>
            </Position>
            <AltitudeMeters>716</AltitudeMeters>
            <DistanceMeters>NAN</DistanceMeters>
          </Trackpoint>
          <Trackpoint>
            <Time>2021-08-09T12:04:21.000Z</Time>
            <Position>
              <LatitudeDegrees>43.05148386396467685699462890625</LatitudeDegrees>
              <LongitudeDegrees>-1.7600040324032306671142578125</LongitudeDegrees>
            </Position>
            <AltitudeMeters>716</AltitudeMeters>
            <DistanceMeters>NAN</DistanceMeters>
          </Trackpoint>
          <Trackpoint>
            <Time>2021-08-09T12:04:22.000Z</Time>
            <Position>
              <LatitudeDegrees>43.05151906795799732208251953125</LatitudeDegrees>
              <LongitudeDegrees>-1.76001300103962421417236328125</LongitudeDegrees>
            </Position>
            <AltitudeMeters>716.20001220703125</AltitudeMeters>
            <DistanceMeters>NAN</DistanceMeters>
          </Trackpoint>
          <Trackpoint>
            <Time>2021-08-09T12:04:23.000Z</Time>
            <Position>
              <LatitudeDegrees>43.05154471658170223236083984375</LatitudeDegrees>
              <LongitudeDegrees>-1.7600212991237640380859375</LongitudeDegrees>
            </Position>
            <AltitudeMeters>716.4000244140625</AltitudeMeters>
            <DistanceMeters>NAN</DistanceMeters>
          </Trackpoint>
          <Trackpoint>
            <Time>2021-08-09T12:04:24.000Z</Time>
            <Position>
              <LatitudeDegrees>43.05157204158604145050048828125</LatitudeDegrees>
              <LongitudeDegrees>-1.7600335367023944854736328125</LongitudeDegrees>
            </Position>
            <AltitudeMeters>716.5999755859375</AltitudeMeters>
            <DistanceMeters>NAN</DistanceMeters>
          </Trackpoint>
          <Trackpoint>
            <Time>2021-08-09T12:04:25.000Z</Time>
            <Position>
              <LatitudeDegrees>43.05159903131425380706787109375</LatitudeDegrees>
              <LongitudeDegrees>-1.760041750967502593994140625</LongitudeDegrees>
            </Position>
            <AltitudeMeters>716.79998779296875</AltitudeMeters>
            <DistanceMeters>NAN</DistanceMeters>
          </Trackpoint>
          <Trackpoint>
            <Time>2021-08-09T12:04:26.000Z</Time>
            <Position>
              <LatitudeDegrees>43.05162928998470306396484375</LatitudeDegrees>
              <LongitudeDegrees>-1.76004988141357898712158203125</LongitudeDegrees>
            </Position>
            <AltitudeMeters>716.79998779296875</AltitudeMeters>
            <DistanceMeters>NAN</DistanceMeters>
          </Trackpoint>
          <Trackpoint>
            <Time>2021-08-09T12:04:27.000Z</Time>
            <Position>
              <LatitudeDegrees>43.05166072212159633636474609375</LatitudeDegrees>
              <LongitudeDegrees>-1.7600596882402896881103515625</LongitudeDegrees>
            </Position>
            <AltitudeMeters>717</AltitudeMeters>
            <DistanceMeters>NAN</DistanceMeters>
          </Trackpoint>
          <Trackpoint>
            <Time>2021-08-09T12:04:28.000Z</Time>
            <Position>
              <LatitudeDegrees>43.05169190280139446258544921875</LatitudeDegrees>
              <LongitudeDegrees>-1.76007284782826900482177734375</LongitudeDegrees>
            </Position>
            <AltitudeMeters>717.20001220703125</AltitudeMeters>
            <DistanceMeters>NAN</DistanceMeters>
          </Trackpoint>
          <Trackpoint>
            <Time>2021-08-09T12:04:29.000Z</Time>
            <Position>
              <LatitudeDegrees>43.0517213232815265655517578125</LatitudeDegrees>
              <LongitudeDegrees>-1.760084666311740875244140625</LongitudeDegrees>
            </Position>
            <AltitudeMeters>717.4000244140625</AltitudeMeters>
            <DistanceMeters>NAN</DistanceMeters>
          </Trackpoint>
          <Trackpoint>
            <Time>2021-08-09T12:04:30.000Z</Time>
            <Position>
              <LatitudeDegrees>43.0517464689910411834716796875</LatitudeDegrees>
              <LongitudeDegrees>-1.760090701282024383544921875</LongitudeDegrees>
            </Position>
            <AltitudeMeters>717.5999755859375</AltitudeMeters>
            <DistanceMeters>NAN</DistanceMeters>
          </Trackpoint>
          <Trackpoint>
            <Time>2021-08-09T12:04:31.000Z</Time>
            <Position>
              <LatitudeDegrees>43.0517806671559810638427734375</LatitudeDegrees>
              <LongitudeDegrees>-1.76009614951908588409423828125</LongitudeDegrees>
            </Position>
            <AltitudeMeters>717.5999755859375</AltitudeMeters>
            <DistanceMeters>NAN</DistanceMeters>
          </Trackpoint>
          <Trackpoint>
            <Time>2021-08-09T12:04:32.000Z</Time>
            <Position>
              <LatitudeDegrees>43.0518239177763462066650390625</LatitudeDegrees>
              <LongitudeDegrees>-1.76010310649871826171875</LongitudeDegrees>
            </Position>
            <AltitudeMeters>717.79998779296875</AltitudeMeters>
            <DistanceMeters>NAN</DistanceMeters>
          </Trackpoint>
          <Trackpoint>
            <Time>2021-08-09T12:04:33.000Z</Time>
            <Position>
              <LatitudeDegrees>43.05185836739838123321533203125</LatitudeDegrees>
              <LongitudeDegrees>-1.7601150088012218475341796875</LongitudeDegrees>
            </Position>
            <AltitudeMeters>718</AltitudeMeters>
            <DistanceMeters>NAN</DistanceMeters>
          </Trackpoint>
          <Trackpoint>
            <Time>2021-08-09T12:04:34.000Z</Time>
            <Position>
              <LatitudeDegrees>43.0518842674791812896728515625</LatitudeDegrees>
              <LongitudeDegrees>-1.7601277492940425872802734375</LongitudeDegrees>
            </Position>
            <AltitudeMeters>718</AltitudeMeters>
            <DistanceMeters>NAN</DistanceMeters>
          </Trackpoint>
          <Trackpoint>
            <Time>2021-08-09T12:04:35.000Z</Time>
            <Position>
              <LatitudeDegrees>43.0519157834351062774658203125</LatitudeDegrees>
              <LongitudeDegrees>-1.760133616626262664794921875</LongitudeDegrees>
            </Position>
            <AltitudeMeters>718</AltitudeMeters>
            <DistanceMeters>NAN</DistanceMeters>
          </Trackpoint>
          <Trackpoint>
            <Time>2021-08-09T12:04:36.000Z</Time>
            <Position>
              <LatitudeDegrees>43.05194176733493804931640625</LatitudeDegrees>
              <LongitudeDegrees>-1.7601368017494678497314453125</LongitudeDegrees>
            </Position>
            <AltitudeMeters>718.20001220703125</AltitudeMeters>
            <DistanceMeters>NAN</DistanceMeters>
          </Trackpoint>
          <Trackpoint>
            <Time>2021-08-09T12:04:37.000Z</Time>
            <Position>
              <LatitudeDegrees>43.0519768036901950836181640625</LatitudeDegrees>
              <LongitudeDegrees>-1.7601428367197513580322265625</LongitudeDegrees>
            </Position>
            <AltitudeMeters>718.20001220703125</AltitudeMeters>
            <DistanceMeters>NAN</DistanceMeters>
          </Trackpoint>
          <Trackpoint>
            <Time>2021-08-09T12:04:38.000Z</Time>
            <Position>
              <LatitudeDegrees>43.052005805075168609619140625</LatitudeDegrees>
              <LongitudeDegrees>-1.760155744850635528564453125</LongitudeDegrees>
            </Position>
            <AltitudeMeters>718.20001220703125</AltitudeMeters>
            <DistanceMeters>NAN</DistanceMeters>
          </Trackpoint>
          <Trackpoint>
            <Time>2021-08-09T12:04:39.000Z</Time>
            <Position>
              <LatitudeDegrees>43.052035309374332427978515625</LatitudeDegrees>
              <LongitudeDegrees>-1.76017527468502521514892578125</LongitudeDegrees>
            </Position>
            <AltitudeMeters>718.20001220703125</AltitudeMeters>
            <DistanceMeters>NAN</DistanceMeters>
          </Trackpoint>
          <Trackpoint>
            <Time>2021-08-09T12:04:40.000Z</Time>
            <Position>
              <LatitudeDegrees>43.052058108150959014892578125</LatitudeDegrees>
              <LongitudeDegrees>-1.76019304431974887847900390625</LongitudeDegrees>
            </Position>
            <AltitudeMeters>718.4000244140625</AltitudeMeters>
            <DistanceMeters>NAN</DistanceMeters>
          </Trackpoint>
          <Trackpoint>
            <Time>2021-08-09T12:04:41.000Z</Time>
            <Position>
              <LatitudeDegrees>43.05209322832524776458740234375</LatitudeDegrees>
              <LongitudeDegrees>-1.76021802239120006561279296875</LongitudeDegrees>
            </Position>
            <AltitudeMeters>718.4000244140625</AltitudeMeters>
            <DistanceMeters>NAN</DistanceMeters>
          </Trackpoint>
          <Trackpoint>
            <Time>2021-08-09T12:04:42.000Z</Time>
            <Position>
              <LatitudeDegrees>43.05212005041539669036865234375</LatitudeDegrees>
              <LongitudeDegrees>-1.76023922860622406005859375</LongitudeDegrees>
            </Position>
            <AltitudeMeters>718.4000244140625</AltitudeMeters>
            <DistanceMeters>NAN</DistanceMeters>
          </Trackpoint>
          <Trackpoint>
            <Time>2021-08-09T12:04:43.000Z</Time>
            <Position>
              <LatitudeDegrees>43.05214695632457733154296875</LatitudeDegrees>
              <LongitudeDegrees>-1.760263033211231231689453125</LongitudeDegrees>
            </Position>
            <AltitudeMeters>718.4000244140625</AltitudeMeters>
            <DistanceMeters>NAN</DistanceMeters>
          </Trackpoint>
          <Trackpoint>
            <Time>2021-08-09T12:04:44.000Z</Time>
            <Position>
              <LatitudeDegrees>43.05216782726347446441650390625</LatitudeDegrees>
              <LongitudeDegrees>-1.7602813057601451873779296875</LongitudeDegrees>
            </Position>
            <AltitudeMeters>718.4000244140625</AltitudeMeters>
            <DistanceMeters>NAN</DistanceMeters>
          </Trackpoint>
          <Trackpoint>
            <Time>2021-08-09T12:04:45.000Z</Time>
            <Position>
              <LatitudeDegrees>43.05219498462975025177001953125</LatitudeDegrees>
              <LongitudeDegrees>-1.76030519418418407440185546875</LongitudeDegrees>
            </Position>
            <AltitudeMeters>718.5999755859375</AltitudeMeters>
            <DistanceMeters>NAN</DistanceMeters>
          </Trackpoint>
          <Trackpoint>
            <Time>2021-08-09T12:04:46.000Z</Time>
            <Position>
              <LatitudeDegrees>43.05222800932824611663818359375</LatitudeDegrees>
              <LongitudeDegrees>-1.76033687777817249298095703125</LongitudeDegrees>
            </Position>
            <AltitudeMeters>718.5999755859375</AltitudeMeters>
            <DistanceMeters>NAN</DistanceMeters>
          </Trackpoint>
          <Trackpoint>
            <Time>2021-08-09T12:04:47.000Z</Time>
            <Position>
              <LatitudeDegrees>43.0522557534277439117431640625</LatitudeDegrees>
              <LongitudeDegrees>-1.76036235876381397247314453125</LongitudeDegrees>
            </Position>
            <AltitudeMeters>718.5999755859375</AltitudeMeters>
            <DistanceMeters>NAN</DistanceMeters>
          </Trackpoint>
          <Trackpoint>
            <Time>2021-08-09T12:04:48.000Z</Time>
            <Position>
              <LatitudeDegrees>43.05228349752724170684814453125</LatitudeDegrees>
              <LongitudeDegrees>-1.76039504818618297576904296875</LongitudeDegrees>
            </Position>
            <AltitudeMeters>718.5999755859375</AltitudeMeters>
            <DistanceMeters>NAN</DistanceMeters>
          </Trackpoint>
          <Trackpoint>
            <Time>2021-08-09T12:04:49.000Z</Time>
            <Position>
              <LatitudeDegrees>43.052312918007373809814453125</LatitudeDegrees>
              <LongitudeDegrees>-1.7604244686663150787353515625</LongitudeDegrees>
            </Position>
            <AltitudeMeters>718.5999755859375</AltitudeMeters>
            <DistanceMeters>NAN</DistanceMeters>
          </Trackpoint>
          <Trackpoint>
            <Time>2021-08-09T12:04:50.000Z</Time>
            <Position>
              <LatitudeDegrees>43.05234099738299846649169921875</LatitudeDegrees>
              <LongitudeDegrees>-1.76044584251940250396728515625</LongitudeDegrees>
            </Position>
            <AltitudeMeters>718.79998779296875</AltitudeMeters>
            <DistanceMeters>NAN</DistanceMeters>
          </Trackpoint>
          <Trackpoint>
            <Time>2021-08-09T12:04:51.000Z</Time>
            <Position>
              <LatitudeDegrees>43.05236614309251308441162109375</LatitudeDegrees>
              <LongitudeDegrees>-1.76047132350504398345947265625</LongitudeDegrees>
            </Position>
            <AltitudeMeters>719</AltitudeMeters>
            <DistanceMeters>NAN</DistanceMeters>
          </Trackpoint>
          <Trackpoint>
            <Time>2021-08-09T12:04:53.000Z</Time>
            <Position>
              <LatitudeDegrees>43.0524176917970180511474609375</LatitudeDegrees>
              <LongitudeDegrees>-1.76052153110504150390625</LongitudeDegrees>
            </Position>
            <AltitudeMeters>719.20001220703125</AltitudeMeters>
            <DistanceMeters>NAN</DistanceMeters>
          </Trackpoint>
          <Trackpoint>
            <Time>2021-08-09T12:04:58.000Z</Time>
            <Position>
              <LatitudeDegrees>43.05254149250686168670654296875</LatitudeDegrees>
              <LongitudeDegrees>-1.7606390453875064849853515625</LongitudeDegrees>
            </Position>
            <AltitudeMeters>719.79998779296875</AltitudeMeters>
            <DistanceMeters>NAN</DistanceMeters>
          </Trackpoint>
          <Trackpoint>
            <Time>2021-08-09T12:04:59.000Z</Time>
            <Position>
              <LatitudeDegrees>43.05256462655961513519287109375</LatitudeDegrees>
              <LongitudeDegrees>-1.76066301763057708740234375</LongitudeDegrees>
            </Position>
            <AltitudeMeters>720</AltitudeMeters>
            <DistanceMeters>NAN</DistanceMeters>
          </Trackpoint>
          <Trackpoint>
            <Time>2021-08-09T12:05:00.000Z</Time>
            <Position>
              <LatitudeDegrees>43.05259086191654205322265625</LatitudeDegrees>
              <LongitudeDegrees>-1.76068455912172794342041015625</LongitudeDegrees>
            </Position>
            <AltitudeMeters>720.20001220703125</AltitudeMeters>
            <DistanceMeters>NAN</DistanceMeters>
          </Trackpoint>
          <Trackpoint>
            <Time>2021-08-09T12:05:01.000Z</Time>
            <Position>
              <LatitudeDegrees>43.05261366069316864013671875</LatitudeDegrees>
              <LongitudeDegrees>-1.7607061006128787994384765625</LongitudeDegrees>
            </Position>
            <AltitudeMeters>720.4000244140625</AltitudeMeters>
            <DistanceMeters>NAN</DistanceMeters>
          </Trackpoint>
          <Trackpoint>
            <Time>2021-08-09T12:05:02.000Z</Time>
            <Position>
              <LatitudeDegrees>43.0526329390704631805419921875</LatitudeDegrees>
              <LongitudeDegrees>-1.760729067027568817138671875</LongitudeDegrees>
            </Position>
            <AltitudeMeters>720.79998779296875</AltitudeMeters>
            <DistanceMeters>NAN</DistanceMeters>
          </Trackpoint>
          <Trackpoint>
            <Time>2021-08-09T12:05:03.000Z</Time>
            <Position>
              <LatitudeDegrees>43.05265389382839202880859375</LatitudeDegrees>
              <LongitudeDegrees>-1.76074909977614879608154296875</LongitudeDegrees>
            </Position>
            <AltitudeMeters>720.79998779296875</AltitudeMeters>
            <DistanceMeters>NAN</DistanceMeters>
          </Trackpoint>
          <Trackpoint>
            <Time>2021-08-09T12:05:04.000Z</Time>
            <Position>
              <LatitudeDegrees>43.05267593823373317718505859375</LatitudeDegrees>
              <LongitudeDegrees>-1.7607698030769824981689453125</LongitudeDegrees>
            </Position>
            <AltitudeMeters>721.20001220703125</AltitudeMeters>
            <DistanceMeters>NAN</DistanceMeters>
          </Trackpoint>
          <Trackpoint>
            <Time>2021-08-09T12:05:05.000Z</Time>
            <Position>
              <LatitudeDegrees>43.05269789882004261016845703125</LatitudeDegrees>
              <LongitudeDegrees>-1.76078908145427703857421875</LongitudeDegrees>
            </Position>
            <AltitudeMeters>721.20001220703125</AltitudeMeters>
            <DistanceMeters>NAN</DistanceMeters>
          </Trackpoint>
          <Trackpoint>
            <Time>2021-08-09T12:05:06.000Z</Time>
            <Position>
              <LatitudeDegrees>43.05272052995860576629638671875</LatitudeDegrees>
              <LongitudeDegrees>-1.76080928184092044830322265625</LongitudeDegrees>
            </Position>
            <AltitudeMeters>721.4000244140625</AltitudeMeters>
            <DistanceMeters>NAN</DistanceMeters>
          </Trackpoint>
          <Trackpoint>
            <Time>2021-08-09T12:05:07.000Z</Time>
            <Position>
              <LatitudeDegrees>43.05274198763072490692138671875</LatitudeDegrees>
              <LongitudeDegrees>-1.76083191297948360443115234375</LongitudeDegrees>
            </Position>
            <AltitudeMeters>721.5999755859375</AltitudeMeters>
            <DistanceMeters>NAN</DistanceMeters>
          </Trackpoint>
          <Trackpoint>
            <Time>2021-08-09T12:05:08.000Z</Time>
            <Position>
              <LatitudeDegrees>43.05275908671319484710693359375</LatitudeDegrees>
              <LongitudeDegrees>-1.7608459107577800750732421875</LongitudeDegrees>
            </Position>
            <AltitudeMeters>721.79998779296875</AltitudeMeters>
            <DistanceMeters>NAN</DistanceMeters>
          </Trackpoint>
          <Trackpoint>
            <Time>2021-08-09T12:05:09.000Z</Time>
            <Position>
              <LatitudeDegrees>43.0527838133275508880615234375</LatitudeDegrees>
              <LongitudeDegrees>-1.7608633451163768768310546875</LongitudeDegrees>
            </Position>
            <AltitudeMeters>722</AltitudeMeters>
            <DistanceMeters>NAN</DistanceMeters>
          </Trackpoint>
          <Trackpoint>
            <Time>2021-08-09T12:05:10.000Z</Time>
            <Position>
              <LatitudeDegrees>43.05281071923673152923583984375</LatitudeDegrees>
              <LongitudeDegrees>-1.76088404841721057891845703125</LongitudeDegrees>
            </Position>
            <AltitudeMeters>722.20001220703125</AltitudeMeters>
            <DistanceMeters>NAN</DistanceMeters>
          </Trackpoint>
          <Trackpoint>
            <Time>2021-08-09T12:05:11.000Z</Time>
            <Position>
              <LatitudeDegrees>43.0528329312801361083984375</LatitudeDegrees>
              <LongitudeDegrees>-1.76090039312839508056640625</LongitudeDegrees>
            </Position>
            <AltitudeMeters>722.4000244140625</AltitudeMeters>
            <DistanceMeters>NAN</DistanceMeters>
          </Trackpoint>
          <Trackpoint>
            <Time>2021-08-09T12:05:12.000Z</Time>
            <Position>
              <LatitudeDegrees>43.05285505950450897216796875</LatitudeDegrees>
              <LongitudeDegrees>-1.76091841422021389007568359375</LongitudeDegrees>
            </Position>
            <AltitudeMeters>722.79998779296875</AltitudeMeters>
            <DistanceMeters>NAN</DistanceMeters>
          </Trackpoint>
          <Trackpoint>
            <Time>2021-08-09T12:05:13.000Z</Time>
            <Position>
              <LatitudeDegrees>43.0528726615011692047119140625</LatitudeDegrees>
              <LongitudeDegrees>-1.76093551330268383026123046875</LongitudeDegrees>
            </Position>
            <AltitudeMeters>723</AltitudeMeters>
            <DistanceMeters>NAN</DistanceMeters>
          </Trackpoint>
          <Trackpoint>
            <Time>2021-08-09T12:05:14.000Z</Time>
            <Position>
              <LatitudeDegrees>43.05289872922003269195556640625</LatitudeDegrees>
              <LongitudeDegrees>-1.76096200011670589447021484375</LongitudeDegrees>
            </Position>
            <AltitudeMeters>723.20001220703125</AltitudeMeters>
            <DistanceMeters>NAN</DistanceMeters>
          </Trackpoint>
          <Trackpoint>
            <Time>2021-08-09T12:05:15.000Z</Time>
            <Position>
              <LatitudeDegrees>43.05291985161602497100830078125</LatitudeDegrees>
              <LongitudeDegrees>-1.7609842121601104736328125</LongitudeDegrees>
            </Position>
            <AltitudeMeters>723.4000244140625</AltitudeMeters>
            <DistanceMeters>NAN</DistanceMeters>
          </Trackpoint>
          <Trackpoint>
            <Time>2021-08-09T12:05:16.000Z</Time>
            <Position>
              <LatitudeDegrees>43.05293812416493892669677734375</LatitudeDegrees>
              <LongitudeDegrees>-1.76100860349833965301513671875</LongitudeDegrees>
            </Position>
            <AltitudeMeters>723.79998779296875</AltitudeMeters>
            <DistanceMeters>NAN</DistanceMeters>
          </Trackpoint>
          <Trackpoint>
            <Time>2021-08-09T12:05:17.000Z</Time>
            <Position>
              <LatitudeDegrees>43.0529584921896457672119140625</LatitudeDegrees>
              <LongitudeDegrees>-1.76103039644658565521240234375</LongitudeDegrees>
            </Position>
            <AltitudeMeters>723.79998779296875</AltitudeMeters>
            <DistanceMeters>NAN</DistanceMeters>
          </Trackpoint>
          <Trackpoint>
            <Time>2021-08-09T12:05:18.000Z</Time>
            <Position>
              <LatitudeDegrees>43.05297818966209888458251953125</LatitudeDegrees>
              <LongitudeDegrees>-1.7610557936131954193115234375</LongitudeDegrees>
            </Position>
            <AltitudeMeters>724</AltitudeMeters>
            <DistanceMeters>NAN</DistanceMeters>
          </Trackpoint>
          <Trackpoint>
            <Time>2021-08-09T12:05:19.000Z</Time>
            <Position>
              <LatitudeDegrees>43.0529970489442348480224609375</LatitudeDegrees>
              <LongitudeDegrees>-1.7610812745988368988037109375</LongitudeDegrees>
            </Position>
            <AltitudeMeters>724.4000244140625</AltitudeMeters>
            <DistanceMeters>NAN</DistanceMeters>
          </Trackpoint>
          <Trackpoint>
            <Time>2021-08-09T12:05:20.000Z</Time>
            <Position>
              <LatitudeDegrees>43.053010292351245880126953125</LatitudeDegrees>
              <LongitudeDegrees>-1.7611070908606052398681640625</LongitudeDegrees>
            </Position>
            <AltitudeMeters>724.5999755859375</AltitudeMeters>
            <DistanceMeters>NAN</DistanceMeters>
          </Trackpoint>
          <Trackpoint>
            <Time>2021-08-09T12:05:21.000Z</Time>
            <Position>
              <LatitudeDegrees>43.05302479304373264312744140625</LatitudeDegrees>
              <LongitudeDegrees>-1.7611332423985004425048828125</LongitudeDegrees>
            </Position>
            <AltitudeMeters>725</AltitudeMeters>
            <DistanceMeters>NAN</DistanceMeters>
          </Trackpoint>
          <Trackpoint>
            <Time>2021-08-09T12:05:22.000Z</Time>
            <Position>
              <LatitudeDegrees>43.05303837172687053680419921875</LatitudeDegrees>
              <LongitudeDegrees>-1.76115796901285648345947265625</LongitudeDegrees>
            </Position>
            <AltitudeMeters>725</AltitudeMeters>
            <DistanceMeters>NAN</DistanceMeters>
          </Trackpoint>
          <Trackpoint>
            <Time>2021-08-09T12:05:23.000Z</Time>
            <Position>
              <LatitudeDegrees>43.05305622518062591552734375</LatitudeDegrees>
              <LongitudeDegrees>-1.76118596456944942474365234375</LongitudeDegrees>
            </Position>
            <AltitudeMeters>725.20001220703125</AltitudeMeters>
            <DistanceMeters>NAN</DistanceMeters>
          </Trackpoint>
          <Trackpoint>
            <Time>2021-08-09T12:05:24.000Z</Time>
            <Position>
              <LatitudeDegrees>43.053074665367603302001953125</LatitudeDegrees>
              <LongitudeDegrees>-1.76121161319315433502197265625</LongitudeDegrees>
            </Position>
            <AltitudeMeters>725.20001220703125</AltitudeMeters>
            <DistanceMeters>NAN</DistanceMeters>
          </Trackpoint>
          <Trackpoint>
            <Time>2021-08-09T12:05:25.000Z</Time>
            <Position>
              <LatitudeDegrees>43.05308916606009006500244140625</LatitudeDegrees>
              <LongitudeDegrees>-1.76122896373271942138671875</LongitudeDegrees>
            </Position>
            <AltitudeMeters>725.4000244140625</AltitudeMeters>
            <DistanceMeters>NAN</DistanceMeters>
          </Trackpoint>
          <Trackpoint>
            <Time>2021-08-09T12:05:26.000Z</Time>
            <Position>
              <LatitudeDegrees>43.0531110428273677825927734375</LatitudeDegrees>
              <LongitudeDegrees>-1.7612589709460735321044921875</LongitudeDegrees>
            </Position>
            <AltitudeMeters>725.5999755859375</AltitudeMeters>
            <DistanceMeters>NAN</DistanceMeters>
          </Trackpoint>
          <Trackpoint>
            <Time>2021-08-09T12:05:27.000Z</Time>
            <Position>
              <LatitudeDegrees>43.05312537588179111480712890625</LatitudeDegrees>
              <LongitudeDegrees>-1.76127917133271694183349609375</LongitudeDegrees>
            </Position>
            <AltitudeMeters>725.79998779296875</AltitudeMeters>
            <DistanceMeters>NAN</DistanceMeters>
          </Trackpoint>
          <Trackpoint>
            <Time>2021-08-09T12:05:28.000Z</Time>
            <Position>
              <LatitudeDegrees>43.05314733646810054779052734375</LatitudeDegrees>
              <LongitudeDegrees>-1.7613095976412296295166015625</LongitudeDegrees>
            </Position>
            <AltitudeMeters>726.20001220703125</AltitudeMeters>
            <DistanceMeters>NAN</DistanceMeters>
          </Trackpoint>
          <Trackpoint>
            <Time>2021-08-09T12:05:29.000Z</Time>
            <Position>
              <LatitudeDegrees>43.05316627956926822662353515625</LatitudeDegrees>
              <LongitudeDegrees>-1.7613303847610950469970703125</LongitudeDegrees>
            </Position>
            <AltitudeMeters>726.4000244140625</AltitudeMeters>
            <DistanceMeters>NAN</DistanceMeters>
          </Trackpoint>
          <Trackpoint>
            <Time>2021-08-09T12:05:30.000Z</Time>
            <Position>
              <LatitudeDegrees>43.05318455211818218231201171875</LatitudeDegrees>
              <LongitudeDegrees>-1.76135142333805561065673828125</LongitudeDegrees>
            </Position>
            <AltitudeMeters>726.5999755859375</AltitudeMeters>
            <DistanceMeters>NAN</DistanceMeters>
          </Trackpoint>
          <Trackpoint>
            <Time>2021-08-09T12:05:31.000Z</Time>
            <Position>
              <LatitudeDegrees>43.0532045848667621612548828125</LatitudeDegrees>
              <LongitudeDegrees>-1.76137522794306278228759765625</LongitudeDegrees>
            </Position>
            <AltitudeMeters>726.79998779296875</AltitudeMeters>
            <DistanceMeters>NAN</DistanceMeters>
          </Trackpoint>
          <Trackpoint>
            <Time>2021-08-09T12:05:32.000Z</Time>
            <Position>
              <LatitudeDegrees>43.053224869072437286376953125</LatitudeDegrees>
              <LongitudeDegrees>-1.76139920018613338470458984375</LongitudeDegrees>
            </Position>
            <AltitudeMeters>727.20001220703125</AltitudeMeters>
            <DistanceMeters>NAN</DistanceMeters>
          </Trackpoint>
          <Trackpoint>
            <Time>2021-08-09T12:05:33.000Z</Time>
            <Position>
              <LatitudeDegrees>43.0532391183078289031982421875</LatitudeDegrees>
              <LongitudeDegrees>-1.7614172212779521942138671875</LongitudeDegrees>
            </Position>
            <AltitudeMeters>727.20001220703125</AltitudeMeters>
            <DistanceMeters>NAN</DistanceMeters>
          </Trackpoint>
          <Trackpoint>
            <Time>2021-08-09T12:05:34.000Z</Time>
            <Position>
              <LatitudeDegrees>43.05326334200799465179443359375</LatitudeDegrees>
              <LongitudeDegrees>-1.7614359967410564422607421875</LongitudeDegrees>
            </Position>
            <AltitudeMeters>727.4000244140625</AltitudeMeters>
            <DistanceMeters>NAN</DistanceMeters>
          </Trackpoint>
          <Trackpoint>
            <Time>2021-08-09T12:05:35.000Z</Time>
            <Position>
              <LatitudeDegrees>43.0532897450029850006103515625</LatitudeDegrees>
              <LongitudeDegrees>-1.76144999451935291290283203125</LongitudeDegrees>
            </Position>
            <AltitudeMeters>727.79998779296875</AltitudeMeters>
            <DistanceMeters>NAN</DistanceMeters>
          </Trackpoint>
          <Trackpoint>
            <Time>2021-08-09T12:05:36.000Z</Time>
            <Position>
              <LatitudeDegrees>43.05331396870315074920654296875</LatitudeDegrees>
              <LongitudeDegrees>-1.76146357320249080657958984375</LongitudeDegrees>
            </Position>
            <AltitudeMeters>728</AltitudeMeters>
            <DistanceMeters>NAN</DistanceMeters>
          </Trackpoint>
          <Trackpoint>
            <Time>2021-08-09T12:05:37.000Z</Time>
            <Position>
              <LatitudeDegrees>43.05333274416625499725341796875</LatitudeDegrees>
              <LongitudeDegrees>-1.76147530786693096160888671875</LongitudeDegrees>
            </Position>
            <AltitudeMeters>728.20001220703125</AltitudeMeters>
            <DistanceMeters>NAN</DistanceMeters>
          </Trackpoint>
          <Trackpoint>
            <Time>2021-08-09T12:05:38.000Z</Time>
            <Position>
              <LatitudeDegrees>43.0533599853515625</LatitudeDegrees>
              <LongitudeDegrees>-1.761484108865261077880859375</LongitudeDegrees>
            </Position>
            <AltitudeMeters>728.4000244140625</AltitudeMeters>
            <DistanceMeters>NAN</DistanceMeters>
          </Trackpoint>
          <Trackpoint>
            <Time>2021-08-09T12:05:39.000Z</Time>
            <Position>
              <LatitudeDegrees>43.05338169448077678680419921875</LatitudeDegrees>
              <LongitudeDegrees>-1.76148754544556140899658203125</LongitudeDegrees>
            </Position>
            <AltitudeMeters>728.5999755859375</AltitudeMeters>
            <DistanceMeters>NAN</DistanceMeters>
          </Trackpoint>
          <Trackpoint>
            <Time>2021-08-09T12:05:40.000Z</Time>
            <Position>
              <LatitudeDegrees>43.053406588733196258544921875</LatitudeDegrees>
              <LongitudeDegrees>-1.76149425096809864044189453125</LongitudeDegrees>
            </Position>
            <AltitudeMeters>728.79998779296875</AltitudeMeters>
            <DistanceMeters>NAN</DistanceMeters>
          </Trackpoint>
          <Trackpoint>
            <Time>2021-08-09T12:05:41.000Z</Time>
            <Position>
              <LatitudeDegrees>43.05343173444271087646484375</LatitudeDegrees>
              <LongitudeDegrees>-1.7615003697574138641357421875</LongitudeDegrees>
            </Position>
            <AltitudeMeters>729.20001220703125</AltitudeMeters>
            <DistanceMeters>NAN</DistanceMeters>
          </Trackpoint>
          <Trackpoint>
            <Time>2021-08-09T12:05:42.000Z</Time>
            <Position>
              <LatitudeDegrees>43.0534557066857814788818359375</LatitudeDegrees>
              <LongitudeDegrees>-1.76150430925190448760986328125</LongitudeDegrees>
            </Position>
            <AltitudeMeters>729.20001220703125</AltitudeMeters>
            <DistanceMeters>NAN</DistanceMeters>
          </Trackpoint>
          <Trackpoint>
            <Time>2021-08-09T12:05:43.000Z</Time>
            <Position>
              <LatitudeDegrees>43.05347791872918605804443359375</LatitudeDegrees>
              <LongitudeDegrees>-1.76151017658412456512451171875</LongitudeDegrees>
            </Position>
            <AltitudeMeters>729.4000244140625</AltitudeMeters>
            <DistanceMeters>NAN</DistanceMeters>
          </Trackpoint>
          <Trackpoint>
            <Time>2021-08-09T12:05:44.000Z</Time>
            <Position>
              <LatitudeDegrees>43.053502142429351806640625</LatitudeDegrees>
              <LongitudeDegrees>-1.7615164630115032196044921875</LongitudeDegrees>
            </Position>
            <AltitudeMeters>729.5999755859375</AltitudeMeters>
            <DistanceMeters>NAN</DistanceMeters>
          </Trackpoint>
          <Trackpoint>
            <Time>2021-08-09T12:05:45.000Z</Time>
            <Position>
              <LatitudeDegrees>43.05352821014821529388427734375</LatitudeDegrees>
              <LongitudeDegrees>-1.76152132451534271240234375</LongitudeDegrees>
            </Position>
            <AltitudeMeters>729.79998779296875</AltitudeMeters>
            <DistanceMeters>NAN</DistanceMeters>
          </Trackpoint>
          <Trackpoint>
            <Time>2021-08-09T12:05:46.000Z</Time>
            <Position>
              <LatitudeDegrees>43.05354899726808071136474609375</LatitudeDegrees>
              <LongitudeDegrees>-1.76152777858078479766845703125</LongitudeDegrees>
            </Position>
            <AltitudeMeters>730.20001220703125</AltitudeMeters>
            <DistanceMeters>NAN</DistanceMeters>
          </Trackpoint>
          <Trackpoint>
            <Time>2021-08-09T12:05:47.000Z</Time>
            <Position>
              <LatitudeDegrees>43.05357229895889759063720703125</LatitudeDegrees>
              <LongitudeDegrees>-1.761537082493305206298828125</LongitudeDegrees>
            </Position>
            <AltitudeMeters>730.4000244140625</AltitudeMeters>
            <DistanceMeters>NAN</DistanceMeters>
          </Trackpoint>
          <Trackpoint>
            <Time>2021-08-09T12:05:48.000Z</Time>
            <Position>
              <LatitudeDegrees>43.0536032281816005706787109375</LatitudeDegrees>
              <LongitudeDegrees>-1.76153951324522495269775390625</LongitudeDegrees>
            </Position>
            <AltitudeMeters>730.79998779296875</AltitudeMeters>
            <DistanceMeters>NAN</DistanceMeters>
          </Trackpoint>
          <Trackpoint>
            <Time>2021-08-09T12:05:49.000Z</Time>
            <Position>
              <LatitudeDegrees>43.05362879298627376556396484375</LatitudeDegrees>
              <LongitudeDegrees>-1.7615419439971446990966796875</LongitudeDegrees>
            </Position>
            <AltitudeMeters>731</AltitudeMeters>
            <DistanceMeters>NAN</DistanceMeters>
          </Trackpoint>
          <Trackpoint>
            <Time>2021-08-09T12:05:50.000Z</Time>
            <Position>
              <LatitudeDegrees>43.05365192703902721405029296875</LatitudeDegrees>
              <LongitudeDegrees>-1.761547140777111053466796875</LongitudeDegrees>
            </Position>
            <AltitudeMeters>731.20001220703125</AltitudeMeters>
            <DistanceMeters>NAN</DistanceMeters>
          </Trackpoint>
          <Trackpoint>
            <Time>2021-08-09T12:05:51.000Z</Time>
            <Position>
              <LatitudeDegrees>43.0536776594817638397216796875</LatitudeDegrees>
              <LongitudeDegrees>-1.76155208609998226165771484375</LongitudeDegrees>
            </Position>
            <AltitudeMeters>731.5999755859375</AltitudeMeters>
            <DistanceMeters>NAN</DistanceMeters>
          </Trackpoint>
          <Trackpoint>
            <Time>2021-08-09T12:05:52.000Z</Time>
            <Position>
              <LatitudeDegrees>43.05370456539094448089599609375</LatitudeDegrees>
              <LongitudeDegrees>-1.76155677996575832366943359375</LongitudeDegrees>
            </Position>
            <AltitudeMeters>731.79998779296875</AltitudeMeters>
            <DistanceMeters>NAN</DistanceMeters>
          </Trackpoint>
          <Trackpoint>
            <Time>2021-08-09T12:05:53.000Z</Time>
            <Position>
              <LatitudeDegrees>43.0537302978336811065673828125</LatitudeDegrees>
              <LongitudeDegrees>-1.761565916240215301513671875</LongitudeDegrees>
            </Position>
            <AltitudeMeters>731.79998779296875</AltitudeMeters>
            <DistanceMeters>NAN</DistanceMeters>
          </Trackpoint>
          <Trackpoint>
            <Time>2021-08-09T12:05:54.000Z</Time>
            <Position>
              <LatitudeDegrees>43.05375896394252777099609375</LatitudeDegrees>
              <LongitudeDegrees>-1.76156566478312015533447265625</LongitudeDegrees>
            </Position>
            <AltitudeMeters>732</AltitudeMeters>
            <DistanceMeters>NAN</DistanceMeters>
          </Trackpoint>
          <Trackpoint>
            <Time>2021-08-09T12:05:55.000Z</Time>
            <Position>
              <LatitudeDegrees>43.0537795834243297576904296875</LatitudeDegrees>
              <LongitudeDegrees>-1.76156734116375446319580078125</LongitudeDegrees>
            </Position>
            <AltitudeMeters>732.20001220703125</AltitudeMeters>
            <DistanceMeters>NAN</DistanceMeters>
          </Trackpoint>
          <Trackpoint>
            <Time>2021-08-09T12:05:56.000Z</Time>
            <Position>
              <LatitudeDegrees>43.0538027174770832061767578125</LatitudeDegrees>
              <LongitudeDegrees>-1.76156767643988132476806640625</LongitudeDegrees>
            </Position>
            <AltitudeMeters>732.5999755859375</AltitudeMeters>
            <DistanceMeters>NAN</DistanceMeters>
          </Trackpoint>
          <Trackpoint>
            <Time>2021-08-09T12:05:57.000Z</Time>
            <Position>
              <LatitudeDegrees>43.05382710881531238555908203125</LatitudeDegrees>
              <LongitudeDegrees>-1.76156247965991497039794921875</LongitudeDegrees>
            </Position>
            <AltitudeMeters>732.79998779296875</AltitudeMeters>
            <DistanceMeters>NAN</DistanceMeters>
          </Trackpoint>
          <Trackpoint>
            <Time>2021-08-09T12:05:58.000Z</Time>
            <Position>
              <LatitudeDegrees>43.0538526736199855804443359375</LatitudeDegrees>
              <LongitudeDegrees>-1.76156155765056610107421875</LongitudeDegrees>
            </Position>
            <AltitudeMeters>733</AltitudeMeters>
            <DistanceMeters>NAN</DistanceMeters>
          </Trackpoint>
          <Trackpoint>
            <Time>2021-08-09T12:05:59.000Z</Time>
            <Position>
              <LatitudeDegrees>43.05388025008141994476318359375</LatitudeDegrees>
              <LongitudeDegrees>-1.7615644074976444244384765625</LongitudeDegrees>
            </Position>
            <AltitudeMeters>733.20001220703125</AltitudeMeters>
            <DistanceMeters>NAN</DistanceMeters>
          </Trackpoint>
          <Trackpoint>
            <Time>2021-08-09T12:06:00.000Z</Time>
            <Position>
              <LatitudeDegrees>43.05390858091413974761962890625</LatitudeDegrees>
              <LongitudeDegrees>-1.761569939553737640380859375</LongitudeDegrees>
            </Position>
            <AltitudeMeters>733.4000244140625</AltitudeMeters>
            <DistanceMeters>NAN</DistanceMeters>
          </Trackpoint>
          <Trackpoint>
            <Time>2021-08-09T12:06:01.000Z</Time>
            <Position>
              <LatitudeDegrees>43.053935654461383819580078125</LatitudeDegrees>
              <LongitudeDegrees>-1.7615783214569091796875</LongitudeDegrees>
            </Position>
            <AltitudeMeters>733.4000244140625</AltitudeMeters>
            <DistanceMeters>NAN</DistanceMeters>
          </Trackpoint>
          <Trackpoint>
            <Time>2021-08-09T12:06:02.000Z</Time>
            <Position>
              <LatitudeDegrees>43.053960464894771575927734375</LatitudeDegrees>
              <LongitudeDegrees>-1.7615818418562412261962890625</LongitudeDegrees>
            </Position>
            <AltitudeMeters>733.79998779296875</AltitudeMeters>
            <DistanceMeters>NAN</DistanceMeters>
          </Trackpoint>
          <Trackpoint>
            <Time>2021-08-09T12:06:03.000Z</Time>
            <Position>
              <LatitudeDegrees>43.0539844371378421783447265625</LatitudeDegrees>
              <LongitudeDegrees>-1.7615801654756069183349609375</LongitudeDegrees>
            </Position>
            <AltitudeMeters>734.20001220703125</AltitudeMeters>
            <DistanceMeters>NAN</DistanceMeters>
          </Trackpoint>
          <Trackpoint>
            <Time>2021-08-09T12:06:04.000Z</Time>
            <Position>
              <LatitudeDegrees>43.05401167832314968109130859375</LatitudeDegrees>
              <LongitudeDegrees>-1.7615851946175098419189453125</LongitudeDegrees>
            </Position>
            <AltitudeMeters>734.20001220703125</AltitudeMeters>
            <DistanceMeters>NAN</DistanceMeters>
          </Trackpoint>
          <Trackpoint>
            <Time>2021-08-09T12:06:05.000Z</Time>
            <Position>
              <LatitudeDegrees>43.05403925478458404541015625</LatitudeDegrees>
              <LongitudeDegrees>-1.7615855298936367034912109375</LongitudeDegrees>
            </Position>
            <AltitudeMeters>734.4000244140625</AltitudeMeters>
            <DistanceMeters>NAN</DistanceMeters>
          </Trackpoint>
          <Trackpoint>
            <Time>2021-08-09T12:06:06.000Z</Time>
            <Position>
              <LatitudeDegrees>43.05406616069376468658447265625</LatitudeDegrees>
              <LongitudeDegrees>-1.76158527843654155731201171875</LongitudeDegrees>
            </Position>
            <AltitudeMeters>734.5999755859375</AltitudeMeters>
            <DistanceMeters>NAN</DistanceMeters>
          </Trackpoint>
          <Trackpoint>
            <Time>2021-08-09T12:06:07.000Z</Time>
            <Position>
              <LatitudeDegrees>43.05409046821296215057373046875</LatitudeDegrees>
              <LongitudeDegrees>-1.7615885473787784576416015625</LongitudeDegrees>
            </Position>
            <AltitudeMeters>734.79998779296875</AltitudeMeters>
            <DistanceMeters>NAN</DistanceMeters>
          </Trackpoint>
          <Trackpoint>
            <Time>2021-08-09T12:06:08.000Z</Time>
            <Position>
              <LatitudeDegrees>43.05411427281796932220458984375</LatitudeDegrees>
              <LongitudeDegrees>-1.76159030757844448089599609375</LongitudeDegrees>
            </Position>
            <AltitudeMeters>735</AltitudeMeters>
            <DistanceMeters>NAN</DistanceMeters>
          </Trackpoint>
          <Trackpoint>
            <Time>2021-08-09T12:06:09.000Z</Time>
            <Position>
              <LatitudeDegrees>43.054140508174896240234375</LatitudeDegrees>
              <LongitudeDegrees>-1.761591732501983642578125</LongitudeDegrees>
            </Position>
            <AltitudeMeters>735.20001220703125</AltitudeMeters>
            <DistanceMeters>NAN</DistanceMeters>
          </Trackpoint>
          <Trackpoint>
            <Time>2021-08-09T12:06:10.000Z</Time>
            <Position>
              <LatitudeDegrees>43.05416540242731571197509765625</LatitudeDegrees>
              <LongitudeDegrees>-1.76159366033971309661865234375</LongitudeDegrees>
            </Position>
            <AltitudeMeters>735.5999755859375</AltitudeMeters>
            <DistanceMeters>NAN</DistanceMeters>
          </Trackpoint>
          <Trackpoint>
            <Time>2021-08-09T12:06:11.000Z</Time>
            <Position>
              <LatitudeDegrees>43.054185099899768829345703125</LatitudeDegrees>
              <LongitudeDegrees>-1.76160656847059726715087890625</LongitudeDegrees>
            </Position>
            <AltitudeMeters>735.5999755859375</AltitudeMeters>
            <DistanceMeters>NAN</DistanceMeters>
          </Trackpoint>
          <Trackpoint>
            <Time>2021-08-09T12:06:12.000Z</Time>
            <Position>
              <LatitudeDegrees>43.054216615855693817138671875</LatitudeDegrees>
              <LongitudeDegrees>-1.7616227455437183380126953125</LongitudeDegrees>
            </Position>
            <AltitudeMeters>735.5999755859375</AltitudeMeters>
            <DistanceMeters>NAN</DistanceMeters>
          </Trackpoint>
          <Trackpoint>
            <Time>2021-08-09T12:06:13.000Z</Time>
            <Position>
              <LatitudeDegrees>43.054242767393589019775390625</LatitudeDegrees>
              <LongitudeDegrees>-1.761632300913333892822265625</LongitudeDegrees>
            </Position>
            <AltitudeMeters>735.5999755859375</AltitudeMeters>
            <DistanceMeters>NAN</DistanceMeters>
          </Trackpoint>
          <Trackpoint>
            <Time>2021-08-09T12:06:14.000Z</Time>
            <Position>
              <LatitudeDegrees>43.05426858365535736083984375</LatitudeDegrees>
              <LongitudeDegrees>-1.7616442032158374786376953125</LongitudeDegrees>
            </Position>
            <AltitudeMeters>736</AltitudeMeters>
            <DistanceMeters>NAN</DistanceMeters>
          </Trackpoint>
          <Trackpoint>
            <Time>2021-08-09T12:06:15.000Z</Time>
            <Position>
              <LatitudeDegrees>43.054289706051349639892578125</LatitudeDegrees>
              <LongitudeDegrees>-1.761653758585453033447265625</LongitudeDegrees>
            </Position>
            <AltitudeMeters>736.4000244140625</AltitudeMeters>
            <DistanceMeters>NAN</DistanceMeters>
          </Trackpoint>
          <Trackpoint>
            <Time>2021-08-09T12:06:16.000Z</Time>
            <Position>
              <LatitudeDegrees>43.054322898387908935546875</LatitudeDegrees>
              <LongitudeDegrees>-1.761679239571094512939453125</LongitudeDegrees>
            </Position>
            <AltitudeMeters>736.4000244140625</AltitudeMeters>
            <DistanceMeters>NAN</DistanceMeters>
          </Trackpoint>
          <Trackpoint>
            <Time>2021-08-09T12:06:17.000Z</Time>
            <Position>
              <LatitudeDegrees>43.0543515644967555999755859375</LatitudeDegrees>
              <LongitudeDegrees>-1.76169089041650295257568359375</LongitudeDegrees>
            </Position>
            <AltitudeMeters>736.5999755859375</AltitudeMeters>
            <DistanceMeters>NAN</DistanceMeters>
          </Trackpoint>
          <Trackpoint>
            <Time>2021-08-09T12:06:18.000Z</Time>
            <Position>
              <LatitudeDegrees>43.05437721312046051025390625</LatitudeDegrees>
              <LongitudeDegrees>-1.76169441081583499908447265625</LongitudeDegrees>
            </Position>
            <AltitudeMeters>736.5999755859375</AltitudeMeters>
            <DistanceMeters>NAN</DistanceMeters>
          </Trackpoint>
          <Trackpoint>
            <Time>2021-08-09T12:06:19.000Z</Time>
            <Position>
              <LatitudeDegrees>43.05440294556319713592529296875</LatitudeDegrees>
              <LongitudeDegrees>-1.761702708899974822998046875</LongitudeDegrees>
            </Position>
            <AltitudeMeters>737</AltitudeMeters>
            <DistanceMeters>NAN</DistanceMeters>
          </Trackpoint>
          <Trackpoint>
            <Time>2021-08-09T12:06:20.000Z</Time>
            <Position>
              <LatitudeDegrees>43.05442775599658489227294921875</LatitudeDegrees>
              <LongitudeDegrees>-1.7617179639637470245361328125</LongitudeDegrees>
            </Position>
            <AltitudeMeters>737.20001220703125</AltitudeMeters>
            <DistanceMeters>NAN</DistanceMeters>
          </Trackpoint>
          <Trackpoint>
            <Time>2021-08-09T12:06:21.000Z</Time>
            <Position>
              <LatitudeDegrees>43.0544529855251312255859375</LatitudeDegrees>
              <LongitudeDegrees>-1.76173279993236064910888671875</LongitudeDegrees>
            </Position>
            <AltitudeMeters>737.5999755859375</AltitudeMeters>
            <DistanceMeters>NAN</DistanceMeters>
          </Trackpoint>
          <Trackpoint>
            <Time>2021-08-09T12:06:22.000Z</Time>
            <Position>
              <LatitudeDegrees>43.05447913706302642822265625</LatitudeDegrees>
              <LongitudeDegrees>-1.76174369640648365020751953125</LongitudeDegrees>
            </Position>
            <AltitudeMeters>737.79998779296875</AltitudeMeters>
            <DistanceMeters>NAN</DistanceMeters>
          </Trackpoint>
          <Trackpoint>
            <Time>2021-08-09T12:06:23.000Z</Time>
            <Position>
              <LatitudeDegrees>43.0545071326196193695068359375</LatitudeDegrees>
              <LongitudeDegrees>-1.76175526343286037445068359375</LongitudeDegrees>
            </Position>
            <AltitudeMeters>738</AltitudeMeters>
            <DistanceMeters>NAN</DistanceMeters>
          </Trackpoint>
          <Trackpoint>
            <Time>2021-08-09T12:06:24.000Z</Time>
            <Position>
              <LatitudeDegrees>43.05453135631978511810302734375</LatitudeDegrees>
              <LongitudeDegrees>-1.7617689259350299835205078125</LongitudeDegrees>
            </Position>
            <AltitudeMeters>738.20001220703125</AltitudeMeters>
            <DistanceMeters>NAN</DistanceMeters>
          </Trackpoint>
          <Trackpoint>
            <Time>2021-08-09T12:06:25.000Z</Time>
            <Position>
              <LatitudeDegrees>43.054553568363189697265625</LatitudeDegrees>
              <LongitudeDegrees>-1.76178527064621448516845703125</LongitudeDegrees>
            </Position>
            <AltitudeMeters>738.4000244140625</AltitudeMeters>
            <DistanceMeters>NAN</DistanceMeters>
          </Trackpoint>
          <Trackpoint>
            <Time>2021-08-09T12:06:26.000Z</Time>
            <Position>
              <LatitudeDegrees>43.0545745231211185455322265625</LatitudeDegrees>
              <LongitudeDegrees>-1.76180706359446048736572265625</LongitudeDegrees>
            </Position>
            <AltitudeMeters>738.5999755859375</AltitudeMeters>
            <DistanceMeters>NAN</DistanceMeters>
          </Trackpoint>
          <Trackpoint>
            <Time>2021-08-09T12:06:27.000Z</Time>
            <Position>
              <LatitudeDegrees>43.0545986630022525787353515625</LatitudeDegrees>
              <LongitudeDegrees>-1.76182818599045276641845703125</LongitudeDegrees>
            </Position>
            <AltitudeMeters>738.5999755859375</AltitudeMeters>
            <DistanceMeters>NAN</DistanceMeters>
          </Trackpoint>
          <Trackpoint>
            <Time>2021-08-09T12:06:28.000Z</Time>
            <Position>
              <LatitudeDegrees>43.05462087504565715789794921875</LatitudeDegrees>
              <LongitudeDegrees>-1.7618440277874469757080078125</LongitudeDegrees>
            </Position>
            <AltitudeMeters>738.79998779296875</AltitudeMeters>
            <DistanceMeters>NAN</DistanceMeters>
          </Trackpoint>
          <Trackpoint>
            <Time>2021-08-09T12:06:29.000Z</Time>
            <Position>
              <LatitudeDegrees>43.05464216507971286773681640625</LatitudeDegrees>
              <LongitudeDegrees>-1.7618571035563945770263671875</LongitudeDegrees>
            </Position>
            <AltitudeMeters>738.79998779296875</AltitudeMeters>
            <DistanceMeters>NAN</DistanceMeters>
          </Trackpoint>
          <Trackpoint>
            <Time>2021-08-09T12:06:30.000Z</Time>
            <Position>
              <LatitudeDegrees>43.05466018617153167724609375</LatitudeDegrees>
              <LongitudeDegrees>-1.7618688382208347320556640625</LongitudeDegrees>
            </Position>
            <AltitudeMeters>739</AltitudeMeters>
            <DistanceMeters>NAN</DistanceMeters>
          </Trackpoint>
          <Trackpoint>
            <Time>2021-08-09T12:06:31.000Z</Time>
            <Position>
              <LatitudeDegrees>43.05468776263296604156494140625</LatitudeDegrees>
              <LongitudeDegrees>-1.7618899606168270111083984375</LongitudeDegrees>
            </Position>
            <AltitudeMeters>739.5999755859375</AltitudeMeters>
            <DistanceMeters>NAN</DistanceMeters>
          </Trackpoint>
          <Trackpoint>
            <Time>2021-08-09T12:06:32.000Z</Time>
            <Position>
              <LatitudeDegrees>43.0547106452286243438720703125</LatitudeDegrees>
              <LongitudeDegrees>-1.76191183738410472869873046875</LongitudeDegrees>
            </Position>
            <AltitudeMeters>739.79998779296875</AltitudeMeters>
            <DistanceMeters>NAN</DistanceMeters>
          </Trackpoint>
          <Trackpoint>
            <Time>2021-08-09T12:06:33.000Z</Time>
            <Position>
              <LatitudeDegrees>43.0547361262142658233642578125</LatitudeDegrees>
              <LongitudeDegrees>-1.7619301937520503997802734375</LongitudeDegrees>
            </Position>
            <AltitudeMeters>740</AltitudeMeters>
            <DistanceMeters>NAN</DistanceMeters>
          </Trackpoint>
          <Trackpoint>
            <Time>2021-08-09T12:06:34.000Z</Time>
            <Position>
              <LatitudeDegrees>43.05475984700024127960205078125</LatitudeDegrees>
              <LongitudeDegrees>-1.7619503103196620941162109375</LongitudeDegrees>
            </Position>
            <AltitudeMeters>740</AltitudeMeters>
            <DistanceMeters>NAN</DistanceMeters>
          </Trackpoint>
          <Trackpoint>
            <Time>2021-08-09T12:06:35.000Z</Time>
            <Position>
              <LatitudeDegrees>43.05478222668170928955078125</LatitudeDegrees>
              <LongitudeDegrees>-1.76196464337408542633056640625</LongitudeDegrees>
            </Position>
            <AltitudeMeters>740.20001220703125</AltitudeMeters>
            <DistanceMeters>NAN</DistanceMeters>
          </Trackpoint>
          <Trackpoint>
            <Time>2021-08-09T12:06:36.000Z</Time>
            <Position>
              <LatitudeDegrees>43.0548025108873844146728515625</LatitudeDegrees>
              <LongitudeDegrees>-1.76198073662817478179931640625</LongitudeDegrees>
            </Position>
            <AltitudeMeters>740.4000244140625</AltitudeMeters>
            <DistanceMeters>NAN</DistanceMeters>
          </Trackpoint>
          <Trackpoint>
            <Time>2021-08-09T12:06:37.000Z</Time>
            <Position>
              <LatitudeDegrees>43.05482245981693267822265625</LatitudeDegrees>
              <LongitudeDegrees>-1.761999092996120452880859375</LongitudeDegrees>
            </Position>
            <AltitudeMeters>740.5999755859375</AltitudeMeters>
            <DistanceMeters>NAN</DistanceMeters>
          </Trackpoint>
          <Trackpoint>
            <Time>2021-08-09T12:06:38.000Z</Time>
            <Position>
              <LatitudeDegrees>43.0548454262316226959228515625</LatitudeDegrees>
              <LongitudeDegrees>-1.762016527354717254638671875</LongitudeDegrees>
            </Position>
            <AltitudeMeters>740.79998779296875</AltitudeMeters>
            <DistanceMeters>NAN</DistanceMeters>
          </Trackpoint>
          <Trackpoint>
            <Time>2021-08-09T12:06:39.000Z</Time>
            <Position>
              <LatitudeDegrees>43.05486738681793212890625</LatitudeDegrees>
              <LongitudeDegrees>-1.76202415488660335540771484375</LongitudeDegrees>
            </Position>
            <AltitudeMeters>741</AltitudeMeters>
            <DistanceMeters>NAN</DistanceMeters>
          </Trackpoint>
          <Trackpoint>
            <Time>2021-08-09T12:06:40.000Z</Time>
            <Position>
              <LatitudeDegrees>43.0548957176506519317626953125</LatitudeDegrees>
              <LongitudeDegrees>-1.76204376854002475738525390625</LongitudeDegrees>
            </Position>
            <AltitudeMeters>741</AltitudeMeters>
            <DistanceMeters>NAN</DistanceMeters>
          </Trackpoint>
          <Trackpoint>
            <Time>2021-08-09T12:06:41.000Z</Time>
            <Position>
              <LatitudeDegrees>43.0549191869795322418212890625</LatitudeDegrees>
              <LongitudeDegrees>-1.76205634139478206634521484375</LongitudeDegrees>
            </Position>
            <AltitudeMeters>741.20001220703125</AltitudeMeters>
            <DistanceMeters>NAN</DistanceMeters>
          </Trackpoint>
          <Trackpoint>
            <Time>2021-08-09T12:06:42.000Z</Time>
            <Position>
              <LatitudeDegrees>43.05494223721325397491455078125</LatitudeDegrees>
              <LongitudeDegrees>-1.762073524296283721923828125</LongitudeDegrees>
            </Position>
            <AltitudeMeters>741.20001220703125</AltitudeMeters>
            <DistanceMeters>NAN</DistanceMeters>
          </Trackpoint>
          <Trackpoint>
            <Time>2021-08-09T12:06:43.000Z</Time>
            <Position>
              <LatitudeDegrees>43.05496319197118282318115234375</LatitudeDegrees>
              <LongitudeDegrees>-1.7620941437780857086181640625</LongitudeDegrees>
            </Position>
            <AltitudeMeters>741.4000244140625</AltitudeMeters>
            <DistanceMeters>NAN</DistanceMeters>
          </Trackpoint>
          <Trackpoint>
            <Time>2021-08-09T12:06:44.000Z</Time>
            <Position>
              <LatitudeDegrees>43.05498146452009677886962890625</LatitudeDegrees>
              <LongitudeDegrees>-1.76210914738476276397705078125</LongitudeDegrees>
            </Position>
            <AltitudeMeters>741.79998779296875</AltitudeMeters>
            <DistanceMeters>NAN</DistanceMeters>
          </Trackpoint>
          <Trackpoint>
            <Time>2021-08-09T12:06:45.000Z</Time>
            <Position>
              <LatitudeDegrees>43.05500619113445281982421875</LatitudeDegrees>
              <LongitudeDegrees>-1.76213781349360942840576171875</LongitudeDegrees>
            </Position>
            <AltitudeMeters>742</AltitudeMeters>
            <DistanceMeters>NAN</DistanceMeters>
          </Trackpoint>
          <Trackpoint>
            <Time>2021-08-09T12:06:46.000Z</Time>
            <Position>
              <LatitudeDegrees>43.0550296604633331298828125</LatitudeDegrees>
              <LongitudeDegrees>-1.76216044463217258453369140625</LongitudeDegrees>
            </Position>
            <AltitudeMeters>742.20001220703125</AltitudeMeters>
            <DistanceMeters>NAN</DistanceMeters>
          </Trackpoint>
          <Trackpoint>
            <Time>2021-08-09T12:06:47.000Z</Time>
            <Position>
              <LatitudeDegrees>43.05505388416349887847900390625</LatitudeDegrees>
              <LongitudeDegrees>-1.76218391396105289459228515625</LongitudeDegrees>
            </Position>
            <AltitudeMeters>742.4000244140625</AltitudeMeters>
            <DistanceMeters>NAN</DistanceMeters>
          </Trackpoint>
          <Trackpoint>
            <Time>2021-08-09T12:06:48.000Z</Time>
            <Position>
              <LatitudeDegrees>43.0550744198262691497802734375</LatitudeDegrees>
              <LongitudeDegrees>-1.76220537163317203521728515625</LongitudeDegrees>
            </Position>
            <AltitudeMeters>742.5999755859375</AltitudeMeters>
            <DistanceMeters>NAN</DistanceMeters>
          </Trackpoint>
          <Trackpoint>
            <Time>2021-08-09T12:06:49.000Z</Time>
            <Position>
              <LatitudeDegrees>43.055090010166168212890625</LatitudeDegrees>
              <LongitudeDegrees>-1.7622262425720691680908203125</LongitudeDegrees>
            </Position>
            <AltitudeMeters>743</AltitudeMeters>
            <DistanceMeters>NAN</DistanceMeters>
          </Trackpoint>
          <Trackpoint>
            <Time>2021-08-09T12:06:50.000Z</Time>
            <Position>
              <LatitudeDegrees>43.05511155165731906890869140625</LatitudeDegrees>
              <LongitudeDegrees>-1.76225717179477214813232421875</LongitudeDegrees>
            </Position>
            <AltitudeMeters>743.20001220703125</AltitudeMeters>
            <DistanceMeters>NAN</DistanceMeters>
          </Trackpoint>
          <Trackpoint>
            <Time>2021-08-09T12:06:51.000Z</Time>
            <Position>
              <LatitudeDegrees>43.05513217113912105560302734375</LatitudeDegrees>
              <LongitudeDegrees>-1.76227410323917865753173828125</LongitudeDegrees>
            </Position>
            <AltitudeMeters>743.5999755859375</AltitudeMeters>
            <DistanceMeters>NAN</DistanceMeters>
          </Trackpoint>
          <Trackpoint>
            <Time>2021-08-09T12:06:52.000Z</Time>
            <Position>
              <LatitudeDegrees>43.05515262298285961151123046875</LatitudeDegrees>
              <LongitudeDegrees>-1.76229245960712432861328125</LongitudeDegrees>
            </Position>
            <AltitudeMeters>743.79998779296875</AltitudeMeters>
            <DistanceMeters>NAN</DistanceMeters>
          </Trackpoint>
          <Trackpoint>
            <Time>2021-08-09T12:06:53.000Z</Time>
            <Position>
              <LatitudeDegrees>43.05516838096082210540771484375</LatitudeDegrees>
              <LongitudeDegrees>-1.76230930723249912261962890625</LongitudeDegrees>
            </Position>
            <AltitudeMeters>744</AltitudeMeters>
            <DistanceMeters>NAN</DistanceMeters>
          </Trackpoint>
          <Trackpoint>
            <Time>2021-08-09T12:06:54.000Z</Time>
            <Position>
              <LatitudeDegrees>43.0551894195377826690673828125</LatitudeDegrees>
              <LongitudeDegrees>-1.762339733541011810302734375</LongitudeDegrees>
            </Position>
            <AltitudeMeters>744</AltitudeMeters>
            <DistanceMeters>NAN</DistanceMeters>
          </Trackpoint>
          <Trackpoint>
            <Time>2021-08-09T12:06:55.000Z</Time>
            <Position>
              <LatitudeDegrees>43.05520794354379177093505859375</LatitudeDegrees>
              <LongitudeDegrees>-1.7623593471944332122802734375</LongitudeDegrees>
            </Position>
            <AltitudeMeters>744.20001220703125</AltitudeMeters>
            <DistanceMeters>NAN</DistanceMeters>
          </Trackpoint>
          <Trackpoint>
            <Time>2021-08-09T12:06:56.000Z</Time>
            <Position>
              <LatitudeDegrees>43.0552289821207523345947265625</LatitudeDegrees>
              <LongitudeDegrees>-1.7623816430568695068359375</LongitudeDegrees>
            </Position>
            <AltitudeMeters>744.4000244140625</AltitudeMeters>
            <DistanceMeters>NAN</DistanceMeters>
          </Trackpoint>
          <Trackpoint>
            <Time>2021-08-09T12:06:57.000Z</Time>
            <Position>
              <LatitudeDegrees>43.055245578289031982421875</LatitudeDegrees>
              <LongitudeDegrees>-1.76239706575870513916015625</LongitudeDegrees>
            </Position>
            <AltitudeMeters>744.4000244140625</AltitudeMeters>
            <DistanceMeters>NAN</DistanceMeters>
          </Trackpoint>
          <Trackpoint>
            <Time>2021-08-09T12:06:58.000Z</Time>
            <Position>
              <LatitudeDegrees>43.05526343174278736114501953125</LatitudeDegrees>
              <LongitudeDegrees>-1.76241911016404628753662109375</LongitudeDegrees>
            </Position>
            <AltitudeMeters>744.5999755859375</AltitudeMeters>
            <DistanceMeters>NAN</DistanceMeters>
          </Trackpoint>
          <Trackpoint>
            <Time>2021-08-09T12:06:59.000Z</Time>
            <Position>
              <LatitudeDegrees>43.0552802793681621551513671875</LatitudeDegrees>
              <LongitudeDegrees>-1.762440986931324005126953125</LongitudeDegrees>
            </Position>
            <AltitudeMeters>745</AltitudeMeters>
            <DistanceMeters>NAN</DistanceMeters>
          </Trackpoint>
          <Trackpoint>
            <Time>2021-08-09T12:07:00.000Z</Time>
            <Position>
              <LatitudeDegrees>43.05529997684061527252197265625</LatitudeDegrees>
              <LongitudeDegrees>-1.7624626122415065765380859375</LongitudeDegrees>
            </Position>
            <AltitudeMeters>745</AltitudeMeters>
            <DistanceMeters>NAN</DistanceMeters>
          </Trackpoint>
          <Trackpoint>
            <Time>2021-08-09T12:07:01.000Z</Time>
            <Position>
              <LatitudeDegrees>43.055316992104053497314453125</LatitudeDegrees>
              <LongitudeDegrees>-1.7624787054955959320068359375</LongitudeDegrees>
            </Position>
            <AltitudeMeters>745.20001220703125</AltitudeMeters>
            <DistanceMeters>NAN</DistanceMeters>
          </Trackpoint>
          <Trackpoint>
            <Time>2021-08-09T12:07:02.000Z</Time>
            <Position>
              <LatitudeDegrees>43.05533652193844318389892578125</LatitudeDegrees>
              <LongitudeDegrees>-1.76249588839709758758544921875</LongitudeDegrees>
            </Position>
            <AltitudeMeters>745.4000244140625</AltitudeMeters>
            <DistanceMeters>NAN</DistanceMeters>
          </Trackpoint>
          <Trackpoint>
            <Time>2021-08-09T12:07:03.000Z</Time>
            <Position>
              <LatitudeDegrees>43.055349849164485931396484375</LatitudeDegrees>
              <LongitudeDegrees>-1.76251332275569438934326171875</LongitudeDegrees>
            </Position>
            <AltitudeMeters>745.5999755859375</AltitudeMeters>
            <DistanceMeters>NAN</DistanceMeters>
          </Trackpoint>
          <Trackpoint>
            <Time>2021-08-09T12:07:04.000Z</Time>
            <Position>
              <LatitudeDegrees>43.0553674511611461639404296875</LatitudeDegrees>
              <LongitudeDegrees>-1.76253746263682842254638671875</LongitudeDegrees>
            </Position>
            <AltitudeMeters>745.5999755859375</AltitudeMeters>
            <DistanceMeters>NAN</DistanceMeters>
          </Trackpoint>
          <Trackpoint>
            <Time>2021-08-09T12:07:05.000Z</Time>
            <Position>
              <LatitudeDegrees>43.0553902499377727508544921875</LatitudeDegrees>
              <LongitudeDegrees>-1.76256604492664337158203125</LongitudeDegrees>
            </Position>
            <AltitudeMeters>745.79998779296875</AltitudeMeters>
            <DistanceMeters>NAN</DistanceMeters>
          </Trackpoint>
          <Trackpoint>
            <Time>2021-08-09T12:07:06.000Z</Time>
            <Position>
              <LatitudeDegrees>43.0554086901247501373291015625</LatitudeDegrees>
              <LongitudeDegrees>-1.7625906877219676971435546875</LongitudeDegrees>
            </Position>
            <AltitudeMeters>746</AltitudeMeters>
            <DistanceMeters>NAN</DistanceMeters>
          </Trackpoint>
          <Trackpoint>
            <Time>2021-08-09T12:07:07.000Z</Time>
            <Position>
              <LatitudeDegrees>43.05542771704494953155517578125</LatitudeDegrees>
              <LongitudeDegrees>-1.762611977756023406982421875</LongitudeDegrees>
            </Position>
            <AltitudeMeters>746</AltitudeMeters>
            <DistanceMeters>NAN</DistanceMeters>
          </Trackpoint>
          <Trackpoint>
            <Time>2021-08-09T12:07:08.000Z</Time>
            <Position>
              <LatitudeDegrees>43.05544582195580005645751953125</LatitudeDegrees>
              <LongitudeDegrees>-1.76263469271361827850341796875</LongitudeDegrees>
            </Position>
            <AltitudeMeters>746.20001220703125</AltitudeMeters>
            <DistanceMeters>NAN</DistanceMeters>
          </Trackpoint>
          <Trackpoint>
            <Time>2021-08-09T12:07:09.000Z</Time>
            <Position>
              <LatitudeDegrees>43.05545889772474765777587890625</LatitudeDegrees>
              <LongitudeDegrees>-1.7626543901860713958740234375</LongitudeDegrees>
            </Position>
            <AltitudeMeters>746.4000244140625</AltitudeMeters>
            <DistanceMeters>NAN</DistanceMeters>
          </Trackpoint>
          <Trackpoint>
            <Time>2021-08-09T12:07:10.000Z</Time>
            <Position>
              <LatitudeDegrees>43.055476248264312744140625</LatitudeDegrees>
              <LongitudeDegrees>-1.762683391571044921875</LongitudeDegrees>
            </Position>
            <AltitudeMeters>746.5999755859375</AltitudeMeters>
            <DistanceMeters>NAN</DistanceMeters>
          </Trackpoint>
          <Trackpoint>
            <Time>2021-08-09T12:07:11.000Z</Time>
            <Position>
              <LatitudeDegrees>43.05549091659486293792724609375</LatitudeDegrees>
              <LongitudeDegrees>-1.76270778290927410125732421875</LongitudeDegrees>
            </Position>
            <AltitudeMeters>746.79998779296875</AltitudeMeters>
            <DistanceMeters>NAN</DistanceMeters>
          </Trackpoint>
          <Trackpoint>
            <Time>2021-08-09T12:07:12.000Z</Time>
            <Position>
              <LatitudeDegrees>43.05550533346831798553466796875</LatitudeDegrees>
              <LongitudeDegrees>-1.7627351917326450347900390625</LongitudeDegrees>
            </Position>
            <AltitudeMeters>747</AltitudeMeters>
            <DistanceMeters>NAN</DistanceMeters>
          </Trackpoint>
          <Trackpoint>
            <Time>2021-08-09T12:07:13.000Z</Time>
            <Position>
              <LatitudeDegrees>43.055518828332424163818359375</LatitudeDegrees>
              <LongitudeDegrees>-1.7627640254795551300048828125</LongitudeDegrees>
            </Position>
            <AltitudeMeters>747.20001220703125</AltitudeMeters>
            <DistanceMeters>NAN</DistanceMeters>
          </Trackpoint>
          <Trackpoint>
            <Time>2021-08-09T12:07:14.000Z</Time>
            <Position>
              <LatitudeDegrees>43.05552922189235687255859375</LatitudeDegrees>
              <LongitudeDegrees>-1.762786321341991424560546875</LongitudeDegrees>
            </Position>
            <AltitudeMeters>747.4000244140625</AltitudeMeters>
            <DistanceMeters>NAN</DistanceMeters>
          </Trackpoint>
          <Trackpoint>
            <Time>2021-08-09T12:07:15.000Z</Time>
            <Position>
              <LatitudeDegrees>43.05554338730871677398681640625</LatitudeDegrees>
              <LongitudeDegrees>-1.76280970685184001922607421875</LongitudeDegrees>
            </Position>
            <AltitudeMeters>747.5999755859375</AltitudeMeters>
            <DistanceMeters>NAN</DistanceMeters>
          </Trackpoint>
          <Trackpoint>
            <Time>2021-08-09T12:07:16.000Z</Time>
            <Position>
              <LatitudeDegrees>43.05555797182023525238037109375</LatitudeDegrees>
              <LongitudeDegrees>-1.7628351040184497833251953125</LongitudeDegrees>
            </Position>
            <AltitudeMeters>747.79998779296875</AltitudeMeters>
            <DistanceMeters>NAN</DistanceMeters>
          </Trackpoint>
          <Trackpoint>
            <Time>2021-08-09T12:07:17.000Z</Time>
            <Position>
              <LatitudeDegrees>43.05557087995111942291259765625</LatitudeDegrees>
              <LongitudeDegrees>-1.762867458164691925048828125</LongitudeDegrees>
            </Position>
            <AltitudeMeters>748</AltitudeMeters>
            <DistanceMeters>NAN</DistanceMeters>
          </Trackpoint>
          <Trackpoint>
            <Time>2021-08-09T12:07:18.000Z</Time>
            <Position>
              <LatitudeDegrees>43.05558160878717899322509765625</LatitudeDegrees>
              <LongitudeDegrees>-1.7628967948257923126220703125</LongitudeDegrees>
            </Position>
            <AltitudeMeters>748</AltitudeMeters>
            <DistanceMeters>NAN</DistanceMeters>
          </Trackpoint>
          <Trackpoint>
            <Time>2021-08-09T12:07:19.000Z</Time>
            <Position>
              <LatitudeDegrees>43.05559384636580944061279296875</LatitudeDegrees>
              <LongitudeDegrees>-1.76292738877236843109130859375</LongitudeDegrees>
            </Position>
            <AltitudeMeters>748.20001220703125</AltitudeMeters>
            <DistanceMeters>NAN</DistanceMeters>
          </Trackpoint>
          <Trackpoint>
            <Time>2021-08-09T12:07:20.000Z</Time>
            <Position>
              <LatitudeDegrees>43.05560541339218616485595703125</LatitudeDegrees>
              <LongitudeDegrees>-1.76294901408255100250244140625</LongitudeDegrees>
            </Position>
            <AltitudeMeters>748.20001220703125</AltitudeMeters>
            <DistanceMeters>NAN</DistanceMeters>
          </Trackpoint>
          <Trackpoint>
            <Time>2021-08-09T12:07:21.000Z</Time>
            <Position>
              <LatitudeDegrees>43.05562251247465610504150390625</LatitudeDegrees>
              <LongitudeDegrees>-1.76297667436301708221435546875</LongitudeDegrees>
            </Position>
            <AltitudeMeters>748.4000244140625</AltitudeMeters>
            <DistanceMeters>NAN</DistanceMeters>
          </Trackpoint>
          <Trackpoint>
            <Time>2021-08-09T12:07:22.000Z</Time>
            <Position>
              <LatitudeDegrees>43.055638857185840606689453125</LatitudeDegrees>
              <LongitudeDegrees>-1.76300131715834140777587890625</LongitudeDegrees>
            </Position>
            <AltitudeMeters>748.5999755859375</AltitudeMeters>
            <DistanceMeters>NAN</DistanceMeters>
          </Trackpoint>
          <Trackpoint>
            <Time>2021-08-09T12:07:23.000Z</Time>
            <Position>
              <LatitudeDegrees>43.05565251968801021575927734375</LatitudeDegrees>
              <LongitudeDegrees>-1.76302629522979259490966796875</LongitudeDegrees>
            </Position>
            <AltitudeMeters>748.79998779296875</AltitudeMeters>
            <DistanceMeters>NAN</DistanceMeters>
          </Trackpoint>
          <Trackpoint>
            <Time>2021-08-09T12:07:24.000Z</Time>
            <Position>
              <LatitudeDegrees>43.0556666851043701171875</LatitudeDegrees>
              <LongitudeDegrees>-1.76304993219673633575439453125</LongitudeDegrees>
            </Position>
            <AltitudeMeters>749</AltitudeMeters>
            <DistanceMeters>NAN</DistanceMeters>
          </Trackpoint>
          <Trackpoint>
            <Time>2021-08-09T12:07:25.000Z</Time>
            <Position>
              <LatitudeDegrees>43.05567850358784198760986328125</LatitudeDegrees>
              <LongitudeDegrees>-1.7630681209266185760498046875</LongitudeDegrees>
            </Position>
            <AltitudeMeters>749</AltitudeMeters>
            <DistanceMeters>NAN</DistanceMeters>
          </Trackpoint>
          <Trackpoint>
            <Time>2021-08-09T12:07:26.000Z</Time>
            <Position>
              <LatitudeDegrees>43.05569711141288280487060546875</LatitudeDegrees>
              <LongitudeDegrees>-1.76309871487319469451904296875</LongitudeDegrees>
            </Position>
            <AltitudeMeters>749.20001220703125</AltitudeMeters>
            <DistanceMeters>NAN</DistanceMeters>
          </Trackpoint>
          <Trackpoint>
            <Time>2021-08-09T12:07:27.000Z</Time>
            <Position>
              <LatitudeDegrees>43.05571689270436763763427734375</LatitudeDegrees>
              <LongitudeDegrees>-1.763118915259838104248046875</LongitudeDegrees>
            </Position>
            <AltitudeMeters>749.5999755859375</AltitudeMeters>
            <DistanceMeters>NAN</DistanceMeters>
          </Trackpoint>
          <Trackpoint>
            <Time>2021-08-09T12:07:28.000Z</Time>
            <Position>
              <LatitudeDegrees>43.05573709309101104736328125</LatitudeDegrees>
              <LongitudeDegrees>-1.763137690722942352294921875</LongitudeDegrees>
            </Position>
            <AltitudeMeters>749.5999755859375</AltitudeMeters>
            <DistanceMeters>NAN</DistanceMeters>
          </Trackpoint>
          <Trackpoint>
            <Time>2021-08-09T12:07:29.000Z</Time>
            <Position>
              <LatitudeDegrees>43.0557543598115444183349609375</LatitudeDegrees>
              <LongitudeDegrees>-1.76315118558704853057861328125</LongitudeDegrees>
            </Position>
            <AltitudeMeters>749.79998779296875</AltitudeMeters>
            <DistanceMeters>NAN</DistanceMeters>
          </Trackpoint>
          <Trackpoint>
            <Time>2021-08-09T12:07:30.000Z</Time>
            <Position>
              <LatitudeDegrees>43.05578059516847133636474609375</LatitudeDegrees>
              <LongitudeDegrees>-1.76317130215466022491455078125</LongitudeDegrees>
            </Position>
            <AltitudeMeters>750</AltitudeMeters>
            <DistanceMeters>NAN</DistanceMeters>
          </Trackpoint>
          <Trackpoint>
            <Time>2021-08-09T12:07:31.000Z</Time>
            <Position>
              <LatitudeDegrees>43.0558033101260662078857421875</LatitudeDegrees>
              <LongitudeDegrees>-1.76318555139005184173583984375</LongitudeDegrees>
            </Position>
            <AltitudeMeters>750.20001220703125</AltitudeMeters>
            <DistanceMeters>NAN</DistanceMeters>
          </Trackpoint>
          <Trackpoint>
            <Time>2021-08-09T12:07:32.000Z</Time>
            <Position>
              <LatitudeDegrees>43.05582686327397823333740234375</LatitudeDegrees>
              <LongitudeDegrees>-1.763198040425777435302734375</LongitudeDegrees>
            </Position>
            <AltitudeMeters>750.20001220703125</AltitudeMeters>
            <DistanceMeters>NAN</DistanceMeters>
          </Trackpoint>
          <Trackpoint>
            <Time>2021-08-09T12:07:33.000Z</Time>
            <Position>
              <LatitudeDegrees>43.0558499135076999664306640625</LatitudeDegrees>
              <LongitudeDegrees>-1.7632119543850421905517578125</LongitudeDegrees>
            </Position>
            <AltitudeMeters>750.5999755859375</AltitudeMeters>
            <DistanceMeters>NAN</DistanceMeters>
          </Trackpoint>
          <Trackpoint>
            <Time>2021-08-09T12:07:34.000Z</Time>
            <Position>
              <LatitudeDegrees>43.055871538817882537841796875</LatitudeDegrees>
              <LongitudeDegrees>-1.7632220126688480377197265625</LongitudeDegrees>
            </Position>
            <AltitudeMeters>750.5999755859375</AltitudeMeters>
            <DistanceMeters>NAN</DistanceMeters>
          </Trackpoint>
          <Trackpoint>
            <Time>2021-08-09T12:07:35.000Z</Time>
            <Position>
              <LatitudeDegrees>43.05589676834642887115478515625</LatitudeDegrees>
              <LongitudeDegrees>-1.76323265768587589263916015625</LongitudeDegrees>
            </Position>
            <AltitudeMeters>751</AltitudeMeters>
            <DistanceMeters>NAN</DistanceMeters>
          </Trackpoint>
          <Trackpoint>
            <Time>2021-08-09T12:07:36.000Z</Time>
            <Position>
              <LatitudeDegrees>43.05591939948499202728271484375</LatitudeDegrees>
              <LongitudeDegrees>-1.76324330270290374755859375</LongitudeDegrees>
            </Position>
            <AltitudeMeters>751.20001220703125</AltitudeMeters>
            <DistanceMeters>NAN</DistanceMeters>
          </Trackpoint>
          <Trackpoint>
            <Time>2021-08-09T12:07:37.000Z</Time>
            <Position>
              <LatitudeDegrees>43.05594102479517459869384765625</LatitudeDegrees>
              <LongitudeDegrees>-1.7632518522441387176513671875</LongitudeDegrees>
            </Position>
            <AltitudeMeters>751.5999755859375</AltitudeMeters>
            <DistanceMeters>NAN</DistanceMeters>
          </Trackpoint>
          <Trackpoint>
            <Time>2021-08-09T12:07:38.000Z</Time>
            <Position>
              <LatitudeDegrees>43.055960722267627716064453125</LatitudeDegrees>
              <LongitudeDegrees>-1.76326149143278598785400390625</LongitudeDegrees>
            </Position>
            <AltitudeMeters>751.5999755859375</AltitudeMeters>
            <DistanceMeters>NAN</DistanceMeters>
          </Trackpoint>
          <Trackpoint>
            <Time>2021-08-09T12:07:39.000Z</Time>
            <Position>
              <LatitudeDegrees>43.055978827178478240966796875</LatitudeDegrees>
              <LongitudeDegrees>-1.76326819695532321929931640625</LongitudeDegrees>
            </Position>
            <AltitudeMeters>751.79998779296875</AltitudeMeters>
            <DistanceMeters>NAN</DistanceMeters>
          </Trackpoint>
          <Trackpoint>
            <Time>2021-08-09T12:07:40.000Z</Time>
            <Position>
              <LatitudeDegrees>43.05600254796445369720458984375</LatitudeDegrees>
              <LongitudeDegrees>-1.76328144036233425140380859375</LongitudeDegrees>
            </Position>
            <AltitudeMeters>752</AltitudeMeters>
            <DistanceMeters>NAN</DistanceMeters>
          </Trackpoint>
          <Trackpoint>
            <Time>2021-08-09T12:07:41.000Z</Time>
            <Position>
              <LatitudeDegrees>43.0560198985040187835693359375</LatitudeDegrees>
              <LongitudeDegrees>-1.76328915171325206756591796875</LongitudeDegrees>
            </Position>
            <AltitudeMeters>752.20001220703125</AltitudeMeters>
            <DistanceMeters>NAN</DistanceMeters>
          </Trackpoint>
          <Trackpoint>
            <Time>2021-08-09T12:07:42.000Z</Time>
            <Position>
              <LatitudeDegrees>43.05604043416678905487060546875</LatitudeDegrees>
              <LongitudeDegrees>-1.76329367794096469879150390625</LongitudeDegrees>
            </Position>
            <AltitudeMeters>752.4000244140625</AltitudeMeters>
            <DistanceMeters>NAN</DistanceMeters>
          </Trackpoint>
          <Trackpoint>
            <Time>2021-08-09T12:07:43.000Z</Time>
            <Position>
              <LatitudeDegrees>43.0560596287250518798828125</LatitudeDegrees>
              <LongitudeDegrees>-1.763297617435455322265625</LongitudeDegrees>
            </Position>
            <AltitudeMeters>752.79998779296875</AltitudeMeters>
            <DistanceMeters>NAN</DistanceMeters>
          </Trackpoint>
          <Trackpoint>
            <Time>2021-08-09T12:07:44.000Z</Time>
            <Position>
              <LatitudeDegrees>43.05608301423490047454833984375</LatitudeDegrees>
              <LongitudeDegrees>-1.763302646577358245849609375</LongitudeDegrees>
            </Position>
            <AltitudeMeters>752.79998779296875</AltitudeMeters>
            <DistanceMeters>NAN</DistanceMeters>
          </Trackpoint>
          <Trackpoint>
            <Time>2021-08-09T12:07:45.000Z</Time>
            <Position>
              <LatitudeDegrees>43.0561077408492565155029296875</LatitudeDegrees>
              <LongitudeDegrees>-1.76330893300473690032958984375</LongitudeDegrees>
            </Position>
            <AltitudeMeters>753</AltitudeMeters>
            <DistanceMeters>NAN</DistanceMeters>
          </Trackpoint>
          <Trackpoint>
            <Time>2021-08-09T12:07:46.000Z</Time>
            <Position>
              <LatitudeDegrees>43.056128360331058502197265625</LatitudeDegrees>
              <LongitudeDegrees>-1.7633132077753543853759765625</LongitudeDegrees>
            </Position>
            <AltitudeMeters>753</AltitudeMeters>
            <DistanceMeters>NAN</DistanceMeters>
          </Trackpoint>
          <Trackpoint>
            <Time>2021-08-09T12:07:47.000Z</Time>
            <Position>
              <LatitudeDegrees>43.05615149438381195068359375</LatitudeDegrees>
              <LongitudeDegrees>-1.76331882365047931671142578125</LongitudeDegrees>
            </Position>
            <AltitudeMeters>753.20001220703125</AltitudeMeters>
            <DistanceMeters>NAN</DistanceMeters>
          </Trackpoint>
          <Trackpoint>
            <Time>2021-08-09T12:07:48.000Z</Time>
            <Position>
              <LatitudeDegrees>43.0561751313507556915283203125</LatitudeDegrees>
              <LongitudeDegrees>-1.76331840455532073974609375</LongitudeDegrees>
            </Position>
            <AltitudeMeters>753.4000244140625</AltitudeMeters>
            <DistanceMeters>NAN</DistanceMeters>
          </Trackpoint>
          <Trackpoint>
            <Time>2021-08-09T12:07:49.000Z</Time>
            <Position>
              <LatitudeDegrees>43.056196756660938262939453125</LatitudeDegrees>
              <LongitudeDegrees>-1.763305328786373138427734375</LongitudeDegrees>
            </Position>
            <AltitudeMeters>753.79998779296875</AltitudeMeters>
            <DistanceMeters>NAN</DistanceMeters>
          </Trackpoint>
          <Trackpoint>
            <Time>2021-08-09T12:07:50.000Z</Time>
            <Position>
              <LatitudeDegrees>43.05622567422688007354736328125</LatitudeDegrees>
              <LongitudeDegrees>-1.76330692134797573089599609375</LongitudeDegrees>
            </Position>
            <AltitudeMeters>754</AltitudeMeters>
            <DistanceMeters>NAN</DistanceMeters>
          </Trackpoint>
          <Trackpoint>
            <Time>2021-08-09T12:07:51.000Z</Time>
            <Position>
              <LatitudeDegrees>43.05624210275709629058837890625</LatitudeDegrees>
              <LongitudeDegrees>-1.7632917501032352447509765625</LongitudeDegrees>
            </Position>
            <AltitudeMeters>754.20001220703125</AltitudeMeters>
            <DistanceMeters>NAN</DistanceMeters>
          </Trackpoint>
          <Trackpoint>
            <Time>2021-08-09T12:07:52.000Z</Time>
            <Position>
              <LatitudeDegrees>43.0562726967036724090576171875</LatitudeDegrees>
              <LongitudeDegrees>-1.76328512839972972869873046875</LongitudeDegrees>
            </Position>
            <AltitudeMeters>754.4000244140625</AltitudeMeters>
            <DistanceMeters>NAN</DistanceMeters>
          </Trackpoint>
          <Trackpoint>
            <Time>2021-08-09T12:07:53.000Z</Time>
            <Position>
              <LatitudeDegrees>43.056295998394489288330078125</LatitudeDegrees>
              <LongitudeDegrees>-1.76328529603779315948486328125</LongitudeDegrees>
            </Position>
            <AltitudeMeters>754.5999755859375</AltitudeMeters>
            <DistanceMeters>NAN</DistanceMeters>
          </Trackpoint>
          <Trackpoint>
            <Time>2021-08-09T12:07:54.000Z</Time>
            <Position>
              <LatitudeDegrees>43.05632022209465503692626953125</LatitudeDegrees>
              <LongitudeDegrees>-1.7632775008678436279296875</LongitudeDegrees>
            </Position>
            <AltitudeMeters>754.79998779296875</AltitudeMeters>
            <DistanceMeters>NAN</DistanceMeters>
          </Trackpoint>
          <Trackpoint>
            <Time>2021-08-09T12:07:55.000Z</Time>
            <Position>
              <LatitudeDegrees>43.0563417635858058929443359375</LatitudeDegrees>
              <LongitudeDegrees>-1.7632733099162578582763671875</LongitudeDegrees>
            </Position>
            <AltitudeMeters>754.79998779296875</AltitudeMeters>
            <DistanceMeters>NAN</DistanceMeters>
          </Trackpoint>
          <Trackpoint>
            <Time>2021-08-09T12:07:56.000Z</Time>
            <Position>
              <LatitudeDegrees>43.05636347271502017974853515625</LatitudeDegrees>
              <LongitudeDegrees>-1.76327557303011417388916015625</LongitudeDegrees>
            </Position>
            <AltitudeMeters>755.20001220703125</AltitudeMeters>
            <DistanceMeters>NAN</DistanceMeters>
          </Trackpoint>
          <Trackpoint>
            <Time>2021-08-09T12:07:57.000Z</Time>
            <Position>
              <LatitudeDegrees>43.056385181844234466552734375</LatitudeDegrees>
              <LongitudeDegrees>-1.76327624358236789703369140625</LongitudeDegrees>
            </Position>
            <AltitudeMeters>755.4000244140625</AltitudeMeters>
            <DistanceMeters>NAN</DistanceMeters>
          </Trackpoint>
          <Trackpoint>
            <Time>2021-08-09T12:07:58.000Z</Time>
            <Position>
              <LatitudeDegrees>43.05640756152570247650146484375</LatitudeDegrees>
              <LongitudeDegrees>-1.76327741704881191253662109375</LongitudeDegrees>
            </Position>
            <AltitudeMeters>755.5999755859375</AltitudeMeters>
            <DistanceMeters>NAN</DistanceMeters>
          </Trackpoint>
          <Trackpoint>
            <Time>2021-08-09T12:07:59.000Z</Time>
            <Position>
              <LatitudeDegrees>43.05643304251134395599365234375</LatitudeDegrees>
              <LongitudeDegrees>-1.7632793448865413665771484375</LongitudeDegrees>
            </Position>
            <AltitudeMeters>755.79998779296875</AltitudeMeters>
            <DistanceMeters>NAN</DistanceMeters>
          </Trackpoint>
          <Trackpoint>
            <Time>2021-08-09T12:08:00.000Z</Time>
            <Position>
              <LatitudeDegrees>43.05645382963120937347412109375</LatitudeDegrees>
              <LongitudeDegrees>-1.76328278146684169769287109375</LongitudeDegrees>
            </Position>
            <AltitudeMeters>756</AltitudeMeters>
            <DistanceMeters>NAN</DistanceMeters>
          </Trackpoint>
          <Trackpoint>
            <Time>2021-08-09T12:08:01.000Z</Time>
            <Position>
              <LatitudeDegrees>43.05647746659815311431884765625</LatitudeDegrees>
              <LongitudeDegrees>-1.76327683031558990478515625</LongitudeDegrees>
            </Position>
            <AltitudeMeters>756</AltitudeMeters>
            <DistanceMeters>NAN</DistanceMeters>
          </Trackpoint>
          <Trackpoint>
            <Time>2021-08-09T12:08:02.000Z</Time>
            <Position>
              <LatitudeDegrees>43.05649993009865283966064453125</LatitudeDegrees>
              <LongitudeDegrees>-1.76328848116099834442138671875</LongitudeDegrees>
            </Position>
            <AltitudeMeters>756.20001220703125</AltitudeMeters>
            <DistanceMeters>NAN</DistanceMeters>
          </Trackpoint>
          <Trackpoint>
            <Time>2021-08-09T12:08:03.000Z</Time>
            <Position>
              <LatitudeDegrees>43.05652272887527942657470703125</LatitudeDegrees>
              <LongitudeDegrees>-1.76327976398169994354248046875</LongitudeDegrees>
            </Position>
            <AltitudeMeters>756.4000244140625</AltitudeMeters>
            <DistanceMeters>NAN</DistanceMeters>
          </Trackpoint>
          <Trackpoint>
            <Time>2021-08-09T12:08:04.000Z</Time>
            <Position>
              <LatitudeDegrees>43.05655072443187236785888671875</LatitudeDegrees>
              <LongitudeDegrees>-1.76326652057468891143798828125</LongitudeDegrees>
            </Position>
            <AltitudeMeters>756.5999755859375</AltitudeMeters>
            <DistanceMeters>NAN</DistanceMeters>
          </Trackpoint>
          <Trackpoint>
            <Time>2021-08-09T12:08:05.000Z</Time>
            <Position>
              <LatitudeDegrees>43.0565777979791164398193359375</LatitudeDegrees>
              <LongitudeDegrees>-1.763260066509246826171875</LongitudeDegrees>
            </Position>
            <AltitudeMeters>756.79998779296875</AltitudeMeters>
            <DistanceMeters>NAN</DistanceMeters>
          </Trackpoint>
          <Trackpoint>
            <Time>2021-08-09T12:08:06.000Z</Time>
            <Position>
              <LatitudeDegrees>43.05661224760115146636962890625</LatitudeDegrees>
              <LongitudeDegrees>-1.763249672949314117431640625</LongitudeDegrees>
            </Position>
            <AltitudeMeters>757</AltitudeMeters>
            <DistanceMeters>NAN</DistanceMeters>
          </Trackpoint>
          <Trackpoint>
            <Time>2021-08-09T12:08:07.000Z</Time>
            <Position>
              <LatitudeDegrees>43.05663521401584148406982421875</LatitudeDegrees>
              <LongitudeDegrees>-1.763245649635791778564453125</LongitudeDegrees>
            </Position>
            <AltitudeMeters>757</AltitudeMeters>
            <DistanceMeters>NAN</DistanceMeters>
          </Trackpoint>
          <Trackpoint>
            <Time>2021-08-09T12:08:08.000Z</Time>
            <Position>
              <LatitudeDegrees>43.0566559173166751861572265625</LatitudeDegrees>
              <LongitudeDegrees>-1.7632461525499820709228515625</LongitudeDegrees>
            </Position>
            <AltitudeMeters>757.20001220703125</AltitudeMeters>
            <DistanceMeters>NAN</DistanceMeters>
          </Trackpoint>
          <Trackpoint>
            <Time>2021-08-09T12:08:09.000Z</Time>
            <Position>
              <LatitudeDegrees>43.056676201522350311279296875</LatitudeDegrees>
              <LongitudeDegrees>-1.76325344480574131011962890625</LongitudeDegrees>
            </Position>
            <AltitudeMeters>757.4000244140625</AltitudeMeters>
            <DistanceMeters>NAN</DistanceMeters>
          </Trackpoint>
          <Trackpoint>
            <Time>2021-08-09T12:08:10.000Z</Time>
            <Position>
              <LatitudeDegrees>43.05669874884188175201416015625</LatitudeDegrees>
              <LongitudeDegrees>-1.763259060680866241455078125</LongitudeDegrees>
            </Position>
            <AltitudeMeters>757.4000244140625</AltitudeMeters>
            <DistanceMeters>NAN</DistanceMeters>
          </Trackpoint>
          <Trackpoint>
            <Time>2021-08-09T12:08:11.000Z</Time>
            <Position>
              <LatitudeDegrees>43.05672439746558666229248046875</LatitudeDegrees>
              <LongitudeDegrees>-1.76325864158570766448974609375</LongitudeDegrees>
            </Position>
            <AltitudeMeters>757.5999755859375</AltitudeMeters>
            <DistanceMeters>NAN</DistanceMeters>
          </Trackpoint>
          <Trackpoint>
            <Time>2021-08-09T12:08:12.000Z</Time>
            <Position>
              <LatitudeDegrees>43.05674962699413299560546875</LatitudeDegrees>
              <LongitudeDegrees>-1.763249672949314117431640625</LongitudeDegrees>
            </Position>
            <AltitudeMeters>757.79998779296875</AltitudeMeters>
            <DistanceMeters>NAN</DistanceMeters>
          </Trackpoint>
          <Trackpoint>
            <Time>2021-08-09T12:08:13.000Z</Time>
            <Position>
              <LatitudeDegrees>43.0567779578268527984619140625</LatitudeDegrees>
              <LongitudeDegrees>-1.76322075538337230682373046875</LongitudeDegrees>
            </Position>
            <AltitudeMeters>758</AltitudeMeters>
            <DistanceMeters>NAN</DistanceMeters>
          </Trackpoint>
          <Trackpoint>
            <Time>2021-08-09T12:08:14.000Z</Time>
            <Position>
              <LatitudeDegrees>43.0568037740886211395263671875</LatitudeDegrees>
              <LongitudeDegrees>-1.7632092721760272979736328125</LongitudeDegrees>
            </Position>
            <AltitudeMeters>758</AltitudeMeters>
            <DistanceMeters>NAN</DistanceMeters>
          </Trackpoint>
          <Trackpoint>
            <Time>2021-08-09T12:08:15.000Z</Time>
            <Position>
              <LatitudeDegrees>43.05682900361716747283935546875</LatitudeDegrees>
              <LongitudeDegrees>-1.76321321167051792144775390625</LongitudeDegrees>
            </Position>
            <AltitudeMeters>758.20001220703125</AltitudeMeters>
            <DistanceMeters>NAN</DistanceMeters>
          </Trackpoint>
          <Trackpoint>
            <Time>2021-08-09T12:08:16.000Z</Time>
            <Position>
              <LatitudeDegrees>43.05686336942017078399658203125</LatitudeDegrees>
              <LongitudeDegrees>-1.7632260359823703765869140625</LongitudeDegrees>
            </Position>
            <AltitudeMeters>758.4000244140625</AltitudeMeters>
            <DistanceMeters>NAN</DistanceMeters>
          </Trackpoint>
          <Trackpoint>
            <Time>2021-08-09T12:08:17.000Z</Time>
            <Position>
              <LatitudeDegrees>43.05688382126390933990478515625</LatitudeDegrees>
              <LongitudeDegrees>-1.76320935599505901336669921875</LongitudeDegrees>
            </Position>
            <AltitudeMeters>758.5999755859375</AltitudeMeters>
            <DistanceMeters>NAN</DistanceMeters>
          </Trackpoint>
          <Trackpoint>
            <Time>2021-08-09T12:08:18.000Z</Time>
            <Position>
              <LatitudeDegrees>43.05689907632768154144287109375</LatitudeDegrees>
              <LongitudeDegrees>-1.76320784725248813629150390625</LongitudeDegrees>
            </Position>
            <AltitudeMeters>759</AltitudeMeters>
            <DistanceMeters>NAN</DistanceMeters>
          </Trackpoint>
          <Trackpoint>
            <Time>2021-08-09T12:08:19.000Z</Time>
            <Position>
              <LatitudeDegrees>43.0569087155163288116455078125</LatitudeDegrees>
              <LongitudeDegrees>-1.76321086473762989044189453125</LongitudeDegrees>
            </Position>
            <AltitudeMeters>759.20001220703125</AltitudeMeters>
            <DistanceMeters>NAN</DistanceMeters>
          </Trackpoint>
          <Trackpoint>
            <Time>2021-08-09T12:08:20.000Z</Time>
            <Position>
              <LatitudeDegrees>43.0569231323897838592529296875</LatitudeDegrees>
              <LongitudeDegrees>-1.7632032372057437896728515625</LongitudeDegrees>
            </Position>
            <AltitudeMeters>759.20001220703125</AltitudeMeters>
            <DistanceMeters>NAN</DistanceMeters>
          </Trackpoint>
          <Trackpoint>
            <Time>2021-08-09T12:08:21.000Z</Time>
            <Position>
              <LatitudeDegrees>43.056951127946376800537109375</LatitudeDegrees>
              <LongitudeDegrees>-1.76318722777068614959716796875</LongitudeDegrees>
            </Position>
            <AltitudeMeters>759.4000244140625</AltitudeMeters>
            <DistanceMeters>NAN</DistanceMeters>
          </Trackpoint>
          <Trackpoint>
            <Time>2021-08-09T12:08:22.000Z</Time>
            <Position>
              <LatitudeDegrees>43.056979961693286895751953125</LatitudeDegrees>
              <LongitudeDegrees>-1.76317356526851654052734375</LongitudeDegrees>
            </Position>
            <AltitudeMeters>759.5999755859375</AltitudeMeters>
            <DistanceMeters>NAN</DistanceMeters>
          </Trackpoint>
          <Trackpoint>
            <Time>2021-08-09T12:08:23.000Z</Time>
            <Position>
              <LatitudeDegrees>43.05700485594570636749267578125</LatitudeDegrees>
              <LongitudeDegrees>-1.7631562985479831695556640625</LongitudeDegrees>
            </Position>
            <AltitudeMeters>759.79998779296875</AltitudeMeters>
            <DistanceMeters>NAN</DistanceMeters>
          </Trackpoint>
          <Trackpoint>
            <Time>2021-08-09T12:08:24.000Z</Time>
            <Position>
              <LatitudeDegrees>43.05702027864754199981689453125</LatitudeDegrees>
              <LongitudeDegrees>-1.7631549574434757232666015625</LongitudeDegrees>
            </Position>
            <AltitudeMeters>760</AltitudeMeters>
            <DistanceMeters>NAN</DistanceMeters>
          </Trackpoint>
          <Trackpoint>
            <Time>2021-08-09T12:08:25.000Z</Time>
            <Position>
              <LatitudeDegrees>43.0570421554148197174072265625</LatitudeDegrees>
              <LongitudeDegrees>-1.763153113424777984619140625</LongitudeDegrees>
            </Position>
            <AltitudeMeters>760.20001220703125</AltitudeMeters>
            <DistanceMeters>NAN</DistanceMeters>
          </Trackpoint>
          <Trackpoint>
            <Time>2021-08-09T12:08:26.000Z</Time>
            <Position>
              <LatitudeDegrees>43.0570689775049686431884765625</LatitudeDegrees>
              <LongitudeDegrees>-1.763145737349987030029296875</LongitudeDegrees>
            </Position>
            <AltitudeMeters>760.4000244140625</AltitudeMeters>
            <DistanceMeters>NAN</DistanceMeters>
          </Trackpoint>
          <Trackpoint>
            <Time>2021-08-09T12:08:27.000Z</Time>
            <Position>
              <LatitudeDegrees>43.05709571577608585357666015625</LatitudeDegrees>
              <LongitudeDegrees>-1.7631422169506549835205078125</LongitudeDegrees>
            </Position>
            <AltitudeMeters>760.79998779296875</AltitudeMeters>
            <DistanceMeters>NAN</DistanceMeters>
          </Trackpoint>
          <Trackpoint>
            <Time>2021-08-09T12:08:28.000Z</Time>
            <Position>
              <LatitudeDegrees>43.0571226216852664947509765625</LatitudeDegrees>
              <LongitudeDegrees>-1.76313693635165691375732421875</LongitudeDegrees>
            </Position>
            <AltitudeMeters>760.79998779296875</AltitudeMeters>
            <DistanceMeters>NAN</DistanceMeters>
          </Trackpoint>
          <Trackpoint>
            <Time>2021-08-09T12:08:29.000Z</Time>
            <Position>
              <LatitudeDegrees>43.0571521259844303131103515625</LatitudeDegrees>
              <LongitudeDegrees>-1.7631358467042446136474609375</LongitudeDegrees>
            </Position>
            <AltitudeMeters>761</AltitudeMeters>
            <DistanceMeters>NAN</DistanceMeters>
          </Trackpoint>
          <Trackpoint>
            <Time>2021-08-09T12:08:30.000Z</Time>
            <Position>
              <LatitudeDegrees>43.05717987008392810821533203125</LatitudeDegrees>
              <LongitudeDegrees>-1.7631278000771999359130859375</LongitudeDegrees>
            </Position>
            <AltitudeMeters>761.20001220703125</AltitudeMeters>
            <DistanceMeters>NAN</DistanceMeters>
          </Trackpoint>
          <Trackpoint>
            <Time>2021-08-09T12:08:31.000Z</Time>
            <Position>
              <LatitudeDegrees>43.05720887146890163421630859375</LatitudeDegrees>
              <LongitudeDegrees>-1.76312084309756755828857421875</LongitudeDegrees>
            </Position>
            <AltitudeMeters>761.4000244140625</AltitudeMeters>
            <DistanceMeters>NAN</DistanceMeters>
          </Trackpoint>
          <Trackpoint>
            <Time>2021-08-09T12:08:32.000Z</Time>
            <Position>
              <LatitudeDegrees>43.0572315864264965057373046875</LatitudeDegrees>
              <LongitudeDegrees>-1.7631153948605060577392578125</LongitudeDegrees>
            </Position>
            <AltitudeMeters>761.5999755859375</AltitudeMeters>
            <DistanceMeters>NAN</DistanceMeters>
          </Trackpoint>
          <Trackpoint>
            <Time>2021-08-09T12:08:33.000Z</Time>
            <Position>
              <LatitudeDegrees>43.05725530721247196197509765625</LatitudeDegrees>
              <LongitudeDegrees>-1.76311053335666656494140625</LongitudeDegrees>
            </Position>
            <AltitudeMeters>761.79998779296875</AltitudeMeters>
            <DistanceMeters>NAN</DistanceMeters>
          </Trackpoint>
          <Trackpoint>
            <Time>2021-08-09T12:08:34.000Z</Time>
            <Position>
              <LatitudeDegrees>43.05727609433233737945556640625</LatitudeDegrees>
              <LongitudeDegrees>-1.76310785114765167236328125</LongitudeDegrees>
            </Position>
            <AltitudeMeters>762.20001220703125</AltitudeMeters>
            <DistanceMeters>NAN</DistanceMeters>
          </Trackpoint>
          <Trackpoint>
            <Time>2021-08-09T12:08:35.000Z</Time>
            <Position>
              <LatitudeDegrees>43.05730090476572513580322265625</LatitudeDegrees>
              <LongitudeDegrees>-1.7631026543676853179931640625</LongitudeDegrees>
            </Position>
            <AltitudeMeters>762.4000244140625</AltitudeMeters>
            <DistanceMeters>NAN</DistanceMeters>
          </Trackpoint>
          <Trackpoint>
            <Time>2021-08-09T12:08:36.000Z</Time>
            <Position>
              <LatitudeDegrees>43.057325966656208038330078125</LatitudeDegrees>
              <LongitudeDegrees>-1.76309444010257720947265625</LongitudeDegrees>
            </Position>
            <AltitudeMeters>762.5999755859375</AltitudeMeters>
            <DistanceMeters>NAN</DistanceMeters>
          </Trackpoint>
          <Trackpoint>
            <Time>2021-08-09T12:08:37.000Z</Time>
            <Position>
              <LatitudeDegrees>43.05735178291797637939453125</LatitudeDegrees>
              <LongitudeDegrees>-1.76309167407453060150146484375</LongitudeDegrees>
            </Position>
            <AltitudeMeters>762.79998779296875</AltitudeMeters>
            <DistanceMeters>NAN</DistanceMeters>
          </Trackpoint>
          <Trackpoint>
            <Time>2021-08-09T12:08:38.000Z</Time>
            <Position>
              <LatitudeDegrees>43.0573784373700618743896484375</LatitudeDegrees>
              <LongitudeDegrees>-1.763088405132293701171875</LongitudeDegrees>
            </Position>
            <AltitudeMeters>763.20001220703125</AltitudeMeters>
            <DistanceMeters>NAN</DistanceMeters>
          </Trackpoint>
          <Trackpoint>
            <Time>2021-08-09T12:08:39.000Z</Time>
            <Position>
              <LatitudeDegrees>43.0574062652885913848876953125</LatitudeDegrees>
              <LongitudeDegrees>-1.7630868963897228240966796875</LongitudeDegrees>
            </Position>
            <AltitudeMeters>763.4000244140625</AltitudeMeters>
            <DistanceMeters>NAN</DistanceMeters>
          </Trackpoint>
          <Trackpoint>
            <Time>2021-08-09T12:08:40.000Z</Time>
            <Position>
              <LatitudeDegrees>43.05743786506354808807373046875</LatitudeDegrees>
              <LongitudeDegrees>-1.76310642622411251068115234375</LongitudeDegrees>
            </Position>
            <AltitudeMeters>763.5999755859375</AltitudeMeters>
            <DistanceMeters>NAN</DistanceMeters>
          </Trackpoint>
          <Trackpoint>
            <Time>2021-08-09T12:08:41.000Z</Time>
            <Position>
              <LatitudeDegrees>43.057458736002445220947265625</LatitudeDegrees>
              <LongitudeDegrees>-1.7631029896438121795654296875</LongitudeDegrees>
            </Position>
            <AltitudeMeters>763.79998779296875</AltitudeMeters>
            <DistanceMeters>NAN</DistanceMeters>
          </Trackpoint>
          <Trackpoint>
            <Time>2021-08-09T12:08:42.000Z</Time>
            <Position>
              <LatitudeDegrees>43.0574766732752323150634765625</LatitudeDegrees>
              <LongitudeDegrees>-1.763102822005748748779296875</LongitudeDegrees>
            </Position>
            <AltitudeMeters>764</AltitudeMeters>
            <DistanceMeters>NAN</DistanceMeters>
          </Trackpoint>
          <Trackpoint>
            <Time>2021-08-09T12:08:43.000Z</Time>
            <Position>
              <LatitudeDegrees>43.05749787949025630950927734375</LatitudeDegrees>
              <LongitudeDegrees>-1.76310114562511444091796875</LongitudeDegrees>
            </Position>
            <AltitudeMeters>764.20001220703125</AltitudeMeters>
            <DistanceMeters>NAN</DistanceMeters>
          </Trackpoint>
          <Trackpoint>
            <Time>2021-08-09T12:08:44.000Z</Time>
            <Position>
              <LatitudeDegrees>43.0575272999703884124755859375</LatitudeDegrees>
              <LongitudeDegrees>-1.7630969546735286712646484375</LongitudeDegrees>
            </Position>
            <AltitudeMeters>764.4000244140625</AltitudeMeters>
            <DistanceMeters>NAN</DistanceMeters>
          </Trackpoint>
          <Trackpoint>
            <Time>2021-08-09T12:08:45.000Z</Time>
            <Position>
              <LatitudeDegrees>43.05754397995769977569580078125</LatitudeDegrees>
              <LongitudeDegrees>-1.76309645175933837890625</LongitudeDegrees>
            </Position>
            <AltitudeMeters>764.5999755859375</AltitudeMeters>
            <DistanceMeters>NAN</DistanceMeters>
          </Trackpoint>
          <Trackpoint>
            <Time>2021-08-09T12:08:46.000Z</Time>
            <Position>
              <LatitudeDegrees>43.0575702153146266937255859375</LatitudeDegrees>
              <LongitudeDegrees>-1.763102151453495025634765625</LongitudeDegrees>
            </Position>
            <AltitudeMeters>764.79998779296875</AltitudeMeters>
            <DistanceMeters>NAN</DistanceMeters>
          </Trackpoint>
          <Trackpoint>
            <Time>2021-08-09T12:08:47.000Z</Time>
            <Position>
              <LatitudeDegrees>43.0576070956885814666748046875</LatitudeDegrees>
              <LongitudeDegrees>-1.76309569738805294036865234375</LongitudeDegrees>
            </Position>
            <AltitudeMeters>764.79998779296875</AltitudeMeters>
            <DistanceMeters>NAN</DistanceMeters>
          </Trackpoint>
          <Trackpoint>
            <Time>2021-08-09T12:08:48.000Z</Time>
            <Position>
              <LatitudeDegrees>43.0576278828084468841552734375</LatitudeDegrees>
              <LongitudeDegrees>-1.7630748264491558074951171875</LongitudeDegrees>
            </Position>
            <AltitudeMeters>765</AltitudeMeters>
            <DistanceMeters>NAN</DistanceMeters>
          </Trackpoint>
          <Trackpoint>
            <Time>2021-08-09T12:08:49.000Z</Time>
            <Position>
              <LatitudeDegrees>43.0576528608798980712890625</LatitudeDegrees>
              <LongitudeDegrees>-1.7630587331950664520263671875</LongitudeDegrees>
            </Position>
            <AltitudeMeters>765.20001220703125</AltitudeMeters>
            <DistanceMeters>NAN</DistanceMeters>
          </Trackpoint>
          <Trackpoint>
            <Time>2021-08-09T12:08:50.000Z</Time>
            <Position>
              <LatitudeDegrees>43.05768328718841075897216796875</LatitudeDegrees>
              <LongitudeDegrees>-1.763041801750659942626953125</LongitudeDegrees>
            </Position>
            <AltitudeMeters>765.4000244140625</AltitudeMeters>
            <DistanceMeters>NAN</DistanceMeters>
          </Trackpoint>
          <Trackpoint>
            <Time>2021-08-09T12:08:51.000Z</Time>
            <Position>
              <LatitudeDegrees>43.05771052837371826171875</LatitudeDegrees>
              <LongitudeDegrees>-1.76302411593496799468994140625</LongitudeDegrees>
            </Position>
            <AltitudeMeters>765.5999755859375</AltitudeMeters>
            <DistanceMeters>NAN</DistanceMeters>
          </Trackpoint>
          <Trackpoint>
            <Time>2021-08-09T12:08:52.000Z</Time>
            <Position>
              <LatitudeDegrees>43.05774045176804065704345703125</LatitudeDegrees>
              <LongitudeDegrees>-1.7630200088024139404296875</LongitudeDegrees>
            </Position>
            <AltitudeMeters>766</AltitudeMeters>
            <DistanceMeters>NAN</DistanceMeters>
          </Trackpoint>
          <Trackpoint>
            <Time>2021-08-09T12:08:53.000Z</Time>
            <Position>
              <LatitudeDegrees>43.05776509456336498260498046875</LatitudeDegrees>
              <LongitudeDegrees>-1.76303216256201267242431640625</LongitudeDegrees>
            </Position>
            <AltitudeMeters>766.20001220703125</AltitudeMeters>
            <DistanceMeters>NAN</DistanceMeters>
          </Trackpoint>
          <Trackpoint>
            <Time>2021-08-09T12:08:54.000Z</Time>
            <Position>
              <LatitudeDegrees>43.05778898298740386962890625</LatitudeDegrees>
              <LongitudeDegrees>-1.76300282590091228485107421875</LongitudeDegrees>
            </Position>
            <AltitudeMeters>766.4000244140625</AltitudeMeters>
            <DistanceMeters>NAN</DistanceMeters>
          </Trackpoint>
          <Trackpoint>
            <Time>2021-08-09T12:08:55.000Z</Time>
            <Position>
              <LatitudeDegrees>43.05780935101211071014404296875</LatitudeDegrees>
              <LongitudeDegrees>-1.76297382451593875885009765625</LongitudeDegrees>
            </Position>
            <AltitudeMeters>766.79998779296875</AltitudeMeters>
            <DistanceMeters>NAN</DistanceMeters>
          </Trackpoint>
          <Trackpoint>
            <Time>2021-08-09T12:08:56.000Z</Time>
            <Position>
              <LatitudeDegrees>43.057842962443828582763671875</LatitudeDegrees>
              <LongitudeDegrees>-1.76294549368321895599365234375</LongitudeDegrees>
            </Position>
            <AltitudeMeters>766.79998779296875</AltitudeMeters>
            <DistanceMeters>NAN</DistanceMeters>
          </Trackpoint>
          <Trackpoint>
            <Time>2021-08-09T12:08:57.000Z</Time>
            <Position>
              <LatitudeDegrees>43.0578793399035930633544921875</LatitudeDegrees>
              <LongitudeDegrees>-1.7629182524979114532470703125</LongitudeDegrees>
            </Position>
            <AltitudeMeters>767</AltitudeMeters>
            <DistanceMeters>NAN</DistanceMeters>
          </Trackpoint>
          <Trackpoint>
            <Time>2021-08-09T12:08:58.000Z</Time>
            <Position>
              <LatitudeDegrees>43.05790624581277370452880859375</LatitudeDegrees>
              <LongitudeDegrees>-1.76292202435433864593505859375</LongitudeDegrees>
            </Position>
            <AltitudeMeters>767</AltitudeMeters>
            <DistanceMeters>NAN</DistanceMeters>
          </Trackpoint>
          <Trackpoint>
            <Time>2021-08-09T12:08:59.000Z</Time>
            <Position>
              <LatitudeDegrees>43.0579286254942417144775390625</LatitudeDegrees>
              <LongitudeDegrees>-1.76292487420141696929931640625</LongitudeDegrees>
            </Position>
            <AltitudeMeters>767.4000244140625</AltitudeMeters>
            <DistanceMeters>NAN</DistanceMeters>
          </Trackpoint>
          <Trackpoint>
            <Time>2021-08-09T12:09:00.000Z</Time>
            <Position>
              <LatitudeDegrees>43.05793843232095241546630859375</LatitudeDegrees>
              <LongitudeDegrees>-1.76292277872562408447265625</LongitudeDegrees>
            </Position>
            <AltitudeMeters>767.4000244140625</AltitudeMeters>
            <DistanceMeters>NAN</DistanceMeters>
          </Trackpoint>
          <Trackpoint>
            <Time>2021-08-09T12:09:01.000Z</Time>
            <Position>
              <LatitudeDegrees>43.0579645000398159027099609375</LatitudeDegrees>
              <LongitudeDegrees>-1.7629046738147735595703125</LongitudeDegrees>
            </Position>
            <AltitudeMeters>767.79998779296875</AltitudeMeters>
            <DistanceMeters>NAN</DistanceMeters>
          </Trackpoint>
          <Trackpoint>
            <Time>2021-08-09T12:09:02.000Z</Time>
            <Position>
              <LatitudeDegrees>43.057984448969364166259765625</LatitudeDegrees>
              <LongitudeDegrees>-1.762887574732303619384765625</LongitudeDegrees>
            </Position>
            <AltitudeMeters>768</AltitudeMeters>
            <DistanceMeters>NAN</DistanceMeters>
          </Trackpoint>
          <Trackpoint>
            <Time>2021-08-09T12:09:03.000Z</Time>
            <Position>
              <LatitudeDegrees>43.05800682865083217620849609375</LatitudeDegrees>
              <LongitudeDegrees>-1.76287173293530941009521484375</LongitudeDegrees>
            </Position>
            <AltitudeMeters>768</AltitudeMeters>
            <DistanceMeters>NAN</DistanceMeters>
          </Trackpoint>
          <Trackpoint>
            <Time>2021-08-09T12:09:04.000Z</Time>
            <Position>
              <LatitudeDegrees>43.05801965296268463134765625</LatitudeDegrees>
              <LongitudeDegrees>-1.7628646083176136016845703125</LongitudeDegrees>
            </Position>
            <AltitudeMeters>768.20001220703125</AltitudeMeters>
            <DistanceMeters>NAN</DistanceMeters>
          </Trackpoint>
          <Trackpoint>
            <Time>2021-08-09T12:09:05.000Z</Time>
            <Position>
              <LatitudeDegrees>43.05803834460675716400146484375</LatitudeDegrees>
              <LongitudeDegrees>-1.76285999827086925506591796875</LongitudeDegrees>
            </Position>
            <AltitudeMeters>768.4000244140625</AltitudeMeters>
            <DistanceMeters>NAN</DistanceMeters>
          </Trackpoint>
          <Trackpoint>
            <Time>2021-08-09T12:09:06.000Z</Time>
            <Position>
              <LatitudeDegrees>43.05805142037570476531982421875</LatitudeDegrees>
              <LongitudeDegrees>-1.76285983063280582427978515625</LongitudeDegrees>
            </Position>
            <AltitudeMeters>768.5999755859375</AltitudeMeters>
            <DistanceMeters>NAN</DistanceMeters>
          </Trackpoint>
          <Trackpoint>
            <Time>2021-08-09T12:09:07.000Z</Time>
            <Position>
              <LatitudeDegrees>43.05805812589824199676513671875</LatitudeDegrees>
              <LongitudeDegrees>-1.762856058776378631591796875</LongitudeDegrees>
            </Position>
            <AltitudeMeters>768.79998779296875</AltitudeMeters>
            <DistanceMeters>NAN</DistanceMeters>
          </Trackpoint>
          <Trackpoint>
            <Time>2021-08-09T12:09:10.000Z</Time>
            <Position>
              <LatitudeDegrees>43.05805812589824199676513671875</LatitudeDegrees>
              <LongitudeDegrees>-1.762856058776378631591796875</LongitudeDegrees>
            </Position>
            <AltitudeMeters>769</AltitudeMeters>
            <DistanceMeters>NAN</DistanceMeters>
          </Trackpoint>
          <Trackpoint>
            <Time>2021-08-09T12:09:22.000Z</Time>
            <Position>
              <LatitudeDegrees>43.05805812589824199676513671875</LatitudeDegrees>
              <LongitudeDegrees>-1.762856058776378631591796875</LongitudeDegrees>
            </Position>
            <AltitudeMeters>769.4000244140625</AltitudeMeters>
            <DistanceMeters>NAN</DistanceMeters>
          </Trackpoint>
          <Trackpoint>
            <Time>2021-08-09T12:10:30.000Z</Time>
            <Position>
              <LatitudeDegrees>43.0580691061913967132568359375</LatitudeDegrees>
              <LongitudeDegrees>-1.76284926943480968475341796875</LongitudeDegrees>
            </Position>
            <AltitudeMeters>770</AltitudeMeters>
            <DistanceMeters>NAN</DistanceMeters>
          </Trackpoint>
          <Trackpoint>
            <Time>2021-08-09T12:13:16.000Z</Time>
            <Position>
              <LatitudeDegrees>43.0580691061913967132568359375</LatitudeDegrees>
              <LongitudeDegrees>-1.76284926943480968475341796875</LongitudeDegrees>
            </Position>
            <AltitudeMeters>770.20001220703125</AltitudeMeters>
            <DistanceMeters>NAN</DistanceMeters>
          </Trackpoint>
          <Trackpoint>
            <Time>2021-08-09T12:15:41.000Z</Time>
            <Position>
              <LatitudeDegrees>43.0580691061913967132568359375</LatitudeDegrees>
              <LongitudeDegrees>-1.76284926943480968475341796875</LongitudeDegrees>
            </Position>
            <AltitudeMeters>769.79998779296875</AltitudeMeters>
            <DistanceMeters>NAN</DistanceMeters>
          </Trackpoint>
          <Trackpoint>
            <Time>2021-08-09T12:15:59.000Z</Time>
            <Position>
              <LatitudeDegrees>43.0580691061913967132568359375</LatitudeDegrees>
              <LongitudeDegrees>-1.76284926943480968475341796875</LongitudeDegrees>
            </Position>
            <AltitudeMeters>770.20001220703125</AltitudeMeters>
            <DistanceMeters>NAN</DistanceMeters>
          </Trackpoint>
          <Trackpoint>
            <Time>2021-08-09T12:18:20.000Z</Time>
            <Position>
              <LatitudeDegrees>43.05804320611059665679931640625</LatitudeDegrees>
              <LongitudeDegrees>-1.7628739960491657257080078125</LongitudeDegrees>
            </Position>
            <AltitudeMeters>770.4000244140625</AltitudeMeters>
            <DistanceMeters>NAN</DistanceMeters>
          </Trackpoint>
          <Trackpoint>
            <Time>2021-08-09T12:18:21.000Z</Time>
            <Position>
              <LatitudeDegrees>43.05801504291594028472900390625</LatitudeDegrees>
              <LongitudeDegrees>-1.762896291911602020263671875</LongitudeDegrees>
            </Position>
            <AltitudeMeters>770.4000244140625</AltitudeMeters>
            <DistanceMeters>NAN</DistanceMeters>
          </Trackpoint>
          <Trackpoint>
            <Time>2021-08-09T12:18:25.000Z</Time>
            <Position>
              <LatitudeDegrees>43.05791026912629604339599609375</LatitudeDegrees>
              <LongitudeDegrees>-1.76299461163580417633056640625</LongitudeDegrees>
            </Position>
            <AltitudeMeters>770</AltitudeMeters>
            <DistanceMeters>NAN</DistanceMeters>
          </Trackpoint>
          <Trackpoint>
            <Time>2021-08-09T12:18:26.000Z</Time>
            <Position>
              <LatitudeDegrees>43.05789493024349212646484375</LatitudeDegrees>
              <LongitudeDegrees>-1.7630181647837162017822265625</LongitudeDegrees>
            </Position>
            <AltitudeMeters>769.79998779296875</AltitudeMeters>
            <DistanceMeters>NAN</DistanceMeters>
          </Trackpoint>
          <Trackpoint>
            <Time>2021-08-09T12:18:27.000Z</Time>
            <Position>
              <LatitudeDegrees>43.0578813515603542327880859375</LatitudeDegrees>
              <LongitudeDegrees>-1.76303149200975894927978515625</LongitudeDegrees>
            </Position>
            <AltitudeMeters>769.5999755859375</AltitudeMeters>
            <DistanceMeters>NAN</DistanceMeters>
          </Trackpoint>
          <Trackpoint>
            <Time>2021-08-09T12:18:28.000Z</Time>
            <Position>
              <LatitudeDegrees>43.0578746460378170013427734375</LatitudeDegrees>
              <LongitudeDegrees>-1.7630332522094249725341796875</LongitudeDegrees>
            </Position>
            <AltitudeMeters>769.5999755859375</AltitudeMeters>
            <DistanceMeters>NAN</DistanceMeters>
          </Trackpoint>
          <Trackpoint>
            <Time>2021-08-09T12:18:29.000Z</Time>
            <Position>
              <LatitudeDegrees>43.0578746460378170013427734375</LatitudeDegrees>
              <LongitudeDegrees>-1.7630332522094249725341796875</LongitudeDegrees>
            </Position>
            <AltitudeMeters>769.20001220703125</AltitudeMeters>
            <DistanceMeters>NAN</DistanceMeters>
          </Trackpoint>
          <Trackpoint>
            <Time>2021-08-09T12:18:31.000Z</Time>
            <Position>
              <LatitudeDegrees>43.05786835961043834686279296875</LatitudeDegrees>
              <LongitudeDegrees>-1.763034760951995849609375</LongitudeDegrees>
            </Position>
            <AltitudeMeters>769</AltitudeMeters>
            <DistanceMeters>NAN</DistanceMeters>
          </Trackpoint>
          <Trackpoint>
            <Time>2021-08-09T12:18:32.000Z</Time>
            <Position>
              <LatitudeDegrees>43.05786835961043834686279296875</LatitudeDegrees>
              <LongitudeDegrees>-1.763034760951995849609375</LongitudeDegrees>
            </Position>
            <AltitudeMeters>768.79998779296875</AltitudeMeters>
            <DistanceMeters>NAN</DistanceMeters>
          </Trackpoint>
          <Trackpoint>
            <Time>2021-08-09T12:19:09.000Z</Time>
            <Position>
              <LatitudeDegrees>43.05781169794499874114990234375</LatitudeDegrees>
              <LongitudeDegrees>-1.763054542243480682373046875</LongitudeDegrees>
            </Position>
            <AltitudeMeters>768</AltitudeMeters>
            <DistanceMeters>NAN</DistanceMeters>
          </Trackpoint>
          <Trackpoint>
            <Time>2021-08-09T12:19:11.000Z</Time>
            <Position>
              <LatitudeDegrees>43.05775470100343227386474609375</LatitudeDegrees>
              <LongitudeDegrees>-1.7630879022181034088134765625</LongitudeDegrees>
            </Position>
            <AltitudeMeters>767.79998779296875</AltitudeMeters>
            <DistanceMeters>NAN</DistanceMeters>
          </Trackpoint>
          <Trackpoint>
            <Time>2021-08-09T12:19:13.000Z</Time>
            <Position>
              <LatitudeDegrees>43.0576823651790618896484375</LatitudeDegrees>
              <LongitudeDegrees>-1.7631200887262821197509765625</LongitudeDegrees>
            </Position>
            <AltitudeMeters>767.79998779296875</AltitudeMeters>
            <DistanceMeters>NAN</DistanceMeters>
          </Trackpoint>
          <Trackpoint>
            <Time>2021-08-09T12:19:18.000Z</Time>
            <Position>
              <LatitudeDegrees>43.0574273876845836639404296875</LatitudeDegrees>
              <LongitudeDegrees>-1.7631807737052440643310546875</LongitudeDegrees>
            </Position>
            <AltitudeMeters>767</AltitudeMeters>
            <DistanceMeters>NAN</DistanceMeters>
          </Trackpoint>
          <Trackpoint>
            <Time>2021-08-09T12:19:19.000Z</Time>
            <Position>
              <LatitudeDegrees>43.05736117064952850341796875</LatitudeDegrees>
              <LongitudeDegrees>-1.76320038735866546630859375</LongitudeDegrees>
            </Position>
            <AltitudeMeters>766.79998779296875</AltitudeMeters>
            <DistanceMeters>NAN</DistanceMeters>
          </Trackpoint>
          <Trackpoint>
            <Time>2021-08-09T12:19:22.000Z</Time>
            <Position>
              <LatitudeDegrees>43.0572097934782505035400390625</LatitudeDegrees>
              <LongitudeDegrees>-1.76324673928320407867431640625</LongitudeDegrees>
            </Position>
            <AltitudeMeters>766</AltitudeMeters>
            <DistanceMeters>NAN</DistanceMeters>
          </Trackpoint>
          <Trackpoint>
            <Time>2021-08-09T12:19:23.000Z</Time>
            <Position>
              <LatitudeDegrees>43.0572097934782505035400390625</LatitudeDegrees>
              <LongitudeDegrees>-1.76324673928320407867431640625</LongitudeDegrees>
            </Position>
            <AltitudeMeters>765.4000244140625</AltitudeMeters>
            <DistanceMeters>NAN</DistanceMeters>
          </Trackpoint>
          <Trackpoint>
            <Time>2021-08-09T12:19:24.000Z</Time>
            <Position>
              <LatitudeDegrees>43.0570968054234981536865234375</LatitudeDegrees>
              <LongitudeDegrees>-1.76326065324246883392333984375</LongitudeDegrees>
            </Position>
            <AltitudeMeters>765.20001220703125</AltitudeMeters>
            <DistanceMeters>NAN</DistanceMeters>
          </Trackpoint>
          <Trackpoint>
            <Time>2021-08-09T12:19:26.000Z</Time>
            <Position>
              <LatitudeDegrees>43.0569828115403652191162109375</LatitudeDegrees>
              <LongitudeDegrees>-1.76328982226550579071044921875</LongitudeDegrees>
            </Position>
            <AltitudeMeters>764.20001220703125</AltitudeMeters>
            <DistanceMeters>NAN</DistanceMeters>
          </Trackpoint>
          <Trackpoint>
            <Time>2021-08-09T12:19:28.000Z</Time>
            <Position>
              <LatitudeDegrees>43.05688482709228992462158203125</LatitudeDegrees>
              <LongitudeDegrees>-1.76332217641174793243408203125</LongitudeDegrees>
            </Position>
            <AltitudeMeters>763.4000244140625</AltitudeMeters>
            <DistanceMeters>NAN</DistanceMeters>
          </Trackpoint>
          <Trackpoint>
            <Time>2021-08-09T12:19:29.000Z</Time>
            <Position>
              <LatitudeDegrees>43.0568468570709228515625</LatitudeDegrees>
              <LongitudeDegrees>-1.76334162242710590362548828125</LongitudeDegrees>
            </Position>
            <AltitudeMeters>762.5999755859375</AltitudeMeters>
            <DistanceMeters>NAN</DistanceMeters>
          </Trackpoint>
          <Trackpoint>
            <Time>2021-08-09T12:19:30.000Z</Time>
            <Position>
              <LatitudeDegrees>43.05681089870631694793701171875</LatitudeDegrees>
              <LongitudeDegrees>-1.76336006261408329010009765625</LongitudeDegrees>
            </Position>
            <AltitudeMeters>762.20001220703125</AltitudeMeters>
            <DistanceMeters>NAN</DistanceMeters>
          </Trackpoint>
          <Trackpoint>
            <Time>2021-08-09T12:19:31.000Z</Time>
            <Position>
              <LatitudeDegrees>43.05677452124655246734619140625</LatitudeDegrees>
              <LongitudeDegrees>-1.76337028853595256805419921875</LongitudeDegrees>
            </Position>
            <AltitudeMeters>762</AltitudeMeters>
            <DistanceMeters>NAN</DistanceMeters>
          </Trackpoint>
          <Trackpoint>
            <Time>2021-08-09T12:19:32.000Z</Time>
            <Position>
              <LatitudeDegrees>43.05674535222351551055908203125</LatitudeDegrees>
              <LongitudeDegrees>-1.763373725116252899169921875</LongitudeDegrees>
            </Position>
            <AltitudeMeters>761.5999755859375</AltitudeMeters>
            <DistanceMeters>NAN</DistanceMeters>
          </Trackpoint>
          <Trackpoint>
            <Time>2021-08-09T12:19:33.000Z</Time>
            <Position>
              <LatitudeDegrees>43.056726157665252685546875</LatitudeDegrees>
              <LongitudeDegrees>-1.76337464712560176849365234375</LongitudeDegrees>
            </Position>
            <AltitudeMeters>761.4000244140625</AltitudeMeters>
            <DistanceMeters>NAN</DistanceMeters>
          </Trackpoint>
          <Trackpoint>
            <Time>2021-08-09T12:19:34.000Z</Time>
            <Position>
              <LatitudeDegrees>43.0567212961614131927490234375</LatitudeDegrees>
              <LongitudeDegrees>-1.76337297074496746063232421875</LongitudeDegrees>
            </Position>
            <AltitudeMeters>761.20001220703125</AltitudeMeters>
            <DistanceMeters>NAN</DistanceMeters>
          </Trackpoint>
          <Trackpoint>
            <Time>2021-08-09T12:19:35.000Z</Time>
            <Position>
              <LatitudeDegrees>43.0567212961614131927490234375</LatitudeDegrees>
              <LongitudeDegrees>-1.76337297074496746063232421875</LongitudeDegrees>
            </Position>
            <AltitudeMeters>760.79998779296875</AltitudeMeters>
            <DistanceMeters>NAN</DistanceMeters>
          </Trackpoint>
          <Trackpoint>
            <Time>2021-08-09T12:19:36.000Z</Time>
            <Position>
              <LatitudeDegrees>43.0567212961614131927490234375</LatitudeDegrees>
              <LongitudeDegrees>-1.76337297074496746063232421875</LongitudeDegrees>
            </Position>
            <AltitudeMeters>760.4000244140625</AltitudeMeters>
            <DistanceMeters>NAN</DistanceMeters>
          </Trackpoint>
          <Trackpoint>
            <Time>2021-08-09T12:19:41.000Z</Time>
            <Position>
              <LatitudeDegrees>43.0567212961614131927490234375</LatitudeDegrees>
              <LongitudeDegrees>-1.76337297074496746063232421875</LongitudeDegrees>
            </Position>
            <AltitudeMeters>759.20001220703125</AltitudeMeters>
            <DistanceMeters>NAN</DistanceMeters>
          </Trackpoint>
          <Trackpoint>
            <Time>2021-08-09T12:20:07.000Z</Time>
            <Position>
              <LatitudeDegrees>43.0567212961614131927490234375</LatitudeDegrees>
              <LongitudeDegrees>-1.76337297074496746063232421875</LongitudeDegrees>
            </Position>
            <AltitudeMeters>758.79998779296875</AltitudeMeters>
            <DistanceMeters>NAN</DistanceMeters>
          </Trackpoint>
          <Trackpoint>
            <Time>2021-08-09T12:21:04.000Z</Time>
            <Position>
              <LatitudeDegrees>43.0567212961614131927490234375</LatitudeDegrees>
              <LongitudeDegrees>-1.76337297074496746063232421875</LongitudeDegrees>
            </Position>
            <AltitudeMeters>758.4000244140625</AltitudeMeters>
            <DistanceMeters>NAN</DistanceMeters>
          </Trackpoint>
          <Trackpoint>
            <Time>2021-08-09T12:21:14.000Z</Time>
            <Position>
              <LatitudeDegrees>43.0567212961614131927490234375</LatitudeDegrees>
              <LongitudeDegrees>-1.76337297074496746063232421875</LongitudeDegrees>
            </Position>
            <AltitudeMeters>758.20001220703125</AltitudeMeters>
            <DistanceMeters>NAN</DistanceMeters>
          </Trackpoint>
          <Trackpoint>
            <Time>2021-08-09T12:21:53.000Z</Time>
            <Position>
              <LatitudeDegrees>43.0567212961614131927490234375</LatitudeDegrees>
              <LongitudeDegrees>-1.7633728869259357452392578125</LongitudeDegrees>
            </Position>
            <AltitudeMeters>758.79998779296875</AltitudeMeters>
            <DistanceMeters>NAN</DistanceMeters>
          </Trackpoint>
          <Trackpoint>
            <Time>2021-08-09T12:22:46.000Z</Time>
            <Position>
              <LatitudeDegrees>43.05672121234238147735595703125</LatitudeDegrees>
              <LongitudeDegrees>-1.7633728869259357452392578125</LongitudeDegrees>
            </Position>
            <AltitudeMeters>758.5999755859375</AltitudeMeters>
            <DistanceMeters>NAN</DistanceMeters>
          </Trackpoint>
          <Trackpoint>
            <Time>2021-08-09T12:23:34.000Z</Time>
            <Position>
              <LatitudeDegrees>43.05672121234238147735595703125</LatitudeDegrees>
              <LongitudeDegrees>-1.7633728869259357452392578125</LongitudeDegrees>
            </Position>
            <AltitudeMeters>758.79998779296875</AltitudeMeters>
            <DistanceMeters>NAN</DistanceMeters>
          </Trackpoint>
          <Trackpoint>
            <Time>2021-08-09T12:24:12.000Z</Time>
            <Position>
              <LatitudeDegrees>43.05670897476375102996826171875</LatitudeDegrees>
              <LongitudeDegrees>-1.76333709619939327239990234375</LongitudeDegrees>
            </Position>
            <AltitudeMeters>758.20001220703125</AltitudeMeters>
            <DistanceMeters>NAN</DistanceMeters>
          </Trackpoint>
          <Trackpoint>
            <Time>2021-08-09T12:24:13.000Z</Time>
            <Position>
              <LatitudeDegrees>43.05670914240181446075439453125</LatitudeDegrees>
              <LongitudeDegrees>-1.7633236013352870941162109375</LongitudeDegrees>
            </Position>
            <AltitudeMeters>758.20001220703125</AltitudeMeters>
            <DistanceMeters>NAN</DistanceMeters>
          </Trackpoint>
          <Trackpoint>
            <Time>2021-08-09T12:24:14.000Z</Time>
            <Position>
              <LatitudeDegrees>43.0567105673253536224365234375</LatitudeDegrees>
              <LongitudeDegrees>-1.763322763144969940185546875</LongitudeDegrees>
            </Position>
            <AltitudeMeters>758.20001220703125</AltitudeMeters>
            <DistanceMeters>NAN</DistanceMeters>
          </Trackpoint>
          <Trackpoint>
            <Time>2021-08-09T12:24:15.000Z</Time>
            <Position>
              <LatitudeDegrees>43.0567105673253536224365234375</LatitudeDegrees>
              <LongitudeDegrees>-1.763322763144969940185546875</LongitudeDegrees>
            </Position>
            <AltitudeMeters>758.20001220703125</AltitudeMeters>
            <DistanceMeters>NAN</DistanceMeters>
          </Trackpoint>
          <Trackpoint>
            <Time>2021-08-09T12:24:19.000Z</Time>
            <Position>
              <LatitudeDegrees>43.0567105673253536224365234375</LatitudeDegrees>
              <LongitudeDegrees>-1.763322763144969940185546875</LongitudeDegrees>
            </Position>
            <AltitudeMeters>758.20001220703125</AltitudeMeters>
            <DistanceMeters>NAN</DistanceMeters>
          </Trackpoint>
          <Trackpoint>
            <Time>2021-08-09T12:24:42.000Z</Time>
            <Position>
              <LatitudeDegrees>43.0567015148699283599853515625</LatitudeDegrees>
              <LongitudeDegrees>-1.7633215896785259246826171875</LongitudeDegrees>
            </Position>
            <AltitudeMeters>758.20001220703125</AltitudeMeters>
            <DistanceMeters>NAN</DistanceMeters>
          </Trackpoint>
          <Trackpoint>
            <Time>2021-08-09T12:25:02.000Z</Time>
            <Position>
              <LatitudeDegrees>43.05670143105089664459228515625</LatitudeDegrees>
              <LongitudeDegrees>-1.7633215896785259246826171875</LongitudeDegrees>
            </Position>
            <AltitudeMeters>757.79998779296875</AltitudeMeters>
            <DistanceMeters>NAN</DistanceMeters>
          </Trackpoint>
          <Trackpoint>
            <Time>2021-08-09T12:25:21.000Z</Time>
            <Position>
              <LatitudeDegrees>43.05670143105089664459228515625</LatitudeDegrees>
              <LongitudeDegrees>-1.7633215896785259246826171875</LongitudeDegrees>
            </Position>
            <AltitudeMeters>758.20001220703125</AltitudeMeters>
            <DistanceMeters>NAN</DistanceMeters>
          </Trackpoint>
          <Trackpoint>
            <Time>2021-08-09T12:25:26.000Z</Time>
            <Position>
              <LatitudeDegrees>43.0567129142582416534423828125</LatitudeDegrees>
              <LongitudeDegrees>-1.76332033239305019378662109375</LongitudeDegrees>
            </Position>
            <AltitudeMeters>758.4000244140625</AltitudeMeters>
            <DistanceMeters>NAN</DistanceMeters>
          </Trackpoint>
          <Trackpoint>
            <Time>2021-08-09T12:25:28.000Z</Time>
            <Position>
              <LatitudeDegrees>43.05674099363386631011962890625</LatitudeDegrees>
              <LongitudeDegrees>-1.763313375413417816162109375</LongitudeDegrees>
            </Position>
            <AltitudeMeters>758.79998779296875</AltitudeMeters>
            <DistanceMeters>NAN</DistanceMeters>
          </Trackpoint>
          <Trackpoint>
            <Time>2021-08-09T12:25:30.000Z</Time>
            <Position>
              <LatitudeDegrees>43.05674702860414981842041015625</LatitudeDegrees>
              <LongitudeDegrees>-1.76331035792827606201171875</LongitudeDegrees>
            </Position>
            <AltitudeMeters>759</AltitudeMeters>
            <DistanceMeters>NAN</DistanceMeters>
          </Trackpoint>
          <Trackpoint>
            <Time>2021-08-09T12:25:32.000Z</Time>
            <Position>
              <LatitudeDegrees>43.05676463060081005096435546875</LatitudeDegrees>
              <LongitudeDegrees>-1.76330231130123138427734375</LongitudeDegrees>
            </Position>
            <AltitudeMeters>759</AltitudeMeters>
            <DistanceMeters>NAN</DistanceMeters>
          </Trackpoint>
          <Trackpoint>
            <Time>2021-08-09T12:25:33.000Z</Time>
            <Position>
              <LatitudeDegrees>43.0567806400358676910400390625</LatitudeDegrees>
              <LongitudeDegrees>-1.76329971291124820709228515625</LongitudeDegrees>
            </Position>
            <AltitudeMeters>759</AltitudeMeters>
            <DistanceMeters>NAN</DistanceMeters>
          </Trackpoint>
          <Trackpoint>
            <Time>2021-08-09T12:25:34.000Z</Time>
            <Position>
              <LatitudeDegrees>43.0567960627377033233642578125</LatitudeDegrees>
              <LongitudeDegrees>-1.7632981203496456146240234375</LongitudeDegrees>
            </Position>
            <AltitudeMeters>759.20001220703125</AltitudeMeters>
            <DistanceMeters>NAN</DistanceMeters>
          </Trackpoint>
          <Trackpoint>
            <Time>2021-08-09T12:25:36.000Z</Time>
            <Position>
              <LatitudeDegrees>43.056828081607818603515625</LatitudeDegrees>
              <LongitudeDegrees>-1.763301305472850799560546875</LongitudeDegrees>
            </Position>
            <AltitudeMeters>759.20001220703125</AltitudeMeters>
            <DistanceMeters>NAN</DistanceMeters>
          </Trackpoint>
          <Trackpoint>
            <Time>2021-08-09T12:25:37.000Z</Time>
            <Position>
              <LatitudeDegrees>43.05684308521449565887451171875</LatitudeDegrees>
              <LongitudeDegrees>-1.76330097019672393798828125</LongitudeDegrees>
            </Position>
            <AltitudeMeters>759.4000244140625</AltitudeMeters>
            <DistanceMeters>NAN</DistanceMeters>
          </Trackpoint>
          <Trackpoint>
            <Time>2021-08-09T12:25:39.000Z</Time>
            <Position>
              <LatitudeDegrees>43.05687426589429378509521484375</LatitudeDegrees>
              <LongitudeDegrees>-1.7632967792451381683349609375</LongitudeDegrees>
            </Position>
            <AltitudeMeters>759.5999755859375</AltitudeMeters>
            <DistanceMeters>NAN</DistanceMeters>
          </Trackpoint>
          <Trackpoint>
            <Time>2021-08-09T12:25:41.000Z</Time>
            <Position>
              <LatitudeDegrees>43.05690226145088672637939453125</LatitudeDegrees>
              <LongitudeDegrees>-1.76328076981008052825927734375</LongitudeDegrees>
            </Position>
            <AltitudeMeters>759.79998779296875</AltitudeMeters>
            <DistanceMeters>NAN</DistanceMeters>
          </Trackpoint>
          <Trackpoint>
            <Time>2021-08-09T12:25:42.000Z</Time>
            <Position>
              <LatitudeDegrees>43.05691349320113658905029296875</LatitudeDegrees>
              <LongitudeDegrees>-1.76327825523912906646728515625</LongitudeDegrees>
            </Position>
            <AltitudeMeters>759.79998779296875</AltitudeMeters>
            <DistanceMeters>NAN</DistanceMeters>
          </Trackpoint>
          <Trackpoint>
            <Time>2021-08-09T12:25:44.000Z</Time>
            <Position>
              <LatitudeDegrees>43.05693847127258777618408203125</LatitudeDegrees>
              <LongitudeDegrees>-1.76328227855265140533447265625</LongitudeDegrees>
            </Position>
            <AltitudeMeters>760</AltitudeMeters>
            <DistanceMeters>NAN</DistanceMeters>
          </Trackpoint>
          <Trackpoint>
            <Time>2021-08-09T12:25:45.000Z</Time>
            <Position>
              <LatitudeDegrees>43.05695087648928165435791015625</LatitudeDegrees>
              <LongitudeDegrees>-1.763280518352985382080078125</LongitudeDegrees>
            </Position>
            <AltitudeMeters>760.20001220703125</AltitudeMeters>
            <DistanceMeters>NAN</DistanceMeters>
          </Trackpoint>
          <Trackpoint>
            <Time>2021-08-09T12:25:46.000Z</Time>
            <Position>
              <LatitudeDegrees>43.0569620244204998016357421875</LatitudeDegrees>
              <LongitudeDegrees>-1.76327758468687534332275390625</LongitudeDegrees>
            </Position>
            <AltitudeMeters>760.5999755859375</AltitudeMeters>
            <DistanceMeters>NAN</DistanceMeters>
          </Trackpoint>
          <Trackpoint>
            <Time>2021-08-09T12:25:47.000Z</Time>
            <Position>
              <LatitudeDegrees>43.05697350762784481048583984375</LatitudeDegrees>
              <LongitudeDegrees>-1.76327875815331935882568359375</LongitudeDegrees>
            </Position>
            <AltitudeMeters>760.5999755859375</AltitudeMeters>
            <DistanceMeters>NAN</DistanceMeters>
          </Trackpoint>
          <Trackpoint>
            <Time>2021-08-09T12:25:48.000Z</Time>
            <Position>
              <LatitudeDegrees>43.0569841526448726654052734375</LatitudeDegrees>
              <LongitudeDegrees>-1.76327406428754329681396484375</LongitudeDegrees>
            </Position>
            <AltitudeMeters>760.79998779296875</AltitudeMeters>
            <DistanceMeters>NAN</DistanceMeters>
          </Trackpoint>
          <Trackpoint>
            <Time>2021-08-09T12:25:49.000Z</Time>
            <Position>
              <LatitudeDegrees>43.0569970607757568359375</LatitudeDegrees>
              <LongitudeDegrees>-1.763263754546642303466796875</LongitudeDegrees>
            </Position>
            <AltitudeMeters>761</AltitudeMeters>
            <DistanceMeters>NAN</DistanceMeters>
          </Trackpoint>
          <Trackpoint>
            <Time>2021-08-09T12:25:50.000Z</Time>
            <Position>
              <LatitudeDegrees>43.05701256729662418365478515625</LatitudeDegrees>
              <LongitudeDegrees>-1.7632505111396312713623046875</LongitudeDegrees>
            </Position>
            <AltitudeMeters>761</AltitudeMeters>
            <DistanceMeters>NAN</DistanceMeters>
          </Trackpoint>
          <Trackpoint>
            <Time>2021-08-09T12:25:52.000Z</Time>
            <Position>
              <LatitudeDegrees>43.057048358023166656494140625</LatitudeDegrees>
              <LongitudeDegrees>-1.7632520198822021484375</LongitudeDegrees>
            </Position>
            <AltitudeMeters>761.20001220703125</AltitudeMeters>
            <DistanceMeters>NAN</DistanceMeters>
          </Trackpoint>
          <Trackpoint>
            <Time>2021-08-09T12:25:53.000Z</Time>
            <Position>
              <LatitudeDegrees>43.05706855840981006622314453125</LatitudeDegrees>
              <LongitudeDegrees>-1.7632521875202655792236328125</LongitudeDegrees>
            </Position>
            <AltitudeMeters>761.5999755859375</AltitudeMeters>
            <DistanceMeters>NAN</DistanceMeters>
          </Trackpoint>
          <Trackpoint>
            <Time>2021-08-09T12:25:54.000Z</Time>
            <Position>
              <LatitudeDegrees>43.05708783678710460662841796875</LatitudeDegrees>
              <LongitudeDegrees>-1.76324908621609210968017578125</LongitudeDegrees>
            </Position>
            <AltitudeMeters>761.79998779296875</AltitudeMeters>
            <DistanceMeters>NAN</DistanceMeters>
          </Trackpoint>
          <Trackpoint>
            <Time>2021-08-09T12:25:55.000Z</Time>
            <Position>
              <LatitudeDegrees>43.05710828863084316253662109375</LatitudeDegrees>
              <LongitudeDegrees>-1.76324858330190181732177734375</LongitudeDegrees>
            </Position>
            <AltitudeMeters>762</AltitudeMeters>
            <DistanceMeters>NAN</DistanceMeters>
          </Trackpoint>
          <Trackpoint>
            <Time>2021-08-09T12:25:56.000Z</Time>
            <Position>
              <LatitudeDegrees>43.05713008157908916473388671875</LatitudeDegrees>
              <LongitudeDegrees>-1.76324036903679370880126953125</LongitudeDegrees>
            </Position>
            <AltitudeMeters>762</AltitudeMeters>
            <DistanceMeters>NAN</DistanceMeters>
          </Trackpoint>
          <Trackpoint>
            <Time>2021-08-09T12:25:57.000Z</Time>
            <Position>
              <LatitudeDegrees>43.05715019814670085906982421875</LatitudeDegrees>
              <LongitudeDegrees>-1.7632305622100830078125</LongitudeDegrees>
            </Position>
            <AltitudeMeters>762.20001220703125</AltitudeMeters>
            <DistanceMeters>NAN</DistanceMeters>
          </Trackpoint>
          <Trackpoint>
            <Time>2021-08-09T12:25:58.000Z</Time>
            <Position>
              <LatitudeDegrees>43.05717098526656627655029296875</LatitudeDegrees>
              <LongitudeDegrees>-1.7632270418107509613037109375</LongitudeDegrees>
            </Position>
            <AltitudeMeters>762.4000244140625</AltitudeMeters>
            <DistanceMeters>NAN</DistanceMeters>
          </Trackpoint>
          <Trackpoint>
            <Time>2021-08-09T12:25:59.000Z</Time>
            <Position>
              <LatitudeDegrees>43.05719696916639804840087890625</LatitudeDegrees>
              <LongitudeDegrees>-1.76322394050657749176025390625</LongitudeDegrees>
            </Position>
            <AltitudeMeters>762.4000244140625</AltitudeMeters>
            <DistanceMeters>NAN</DistanceMeters>
          </Trackpoint>
          <Trackpoint>
            <Time>2021-08-09T12:26:00.000Z</Time>
            <Position>
              <LatitudeDegrees>43.05721641518175601959228515625</LatitudeDegrees>
              <LongitudeDegrees>-1.7632186599075794219970703125</LongitudeDegrees>
            </Position>
            <AltitudeMeters>762.5999755859375</AltitudeMeters>
            <DistanceMeters>NAN</DistanceMeters>
          </Trackpoint>
          <Trackpoint>
            <Time>2021-08-09T12:26:01.000Z</Time>
            <Position>
              <LatitudeDegrees>43.05723150260746479034423828125</LatitudeDegrees>
              <LongitudeDegrees>-1.7632106132805347442626953125</LongitudeDegrees>
            </Position>
            <AltitudeMeters>762.5999755859375</AltitudeMeters>
            <DistanceMeters>NAN</DistanceMeters>
          </Trackpoint>
          <Trackpoint>
            <Time>2021-08-09T12:26:02.000Z</Time>
            <Position>
              <LatitudeDegrees>43.05725597776472568511962890625</LatitudeDegrees>
              <LongitudeDegrees>-1.76320038735866546630859375</LongitudeDegrees>
            </Position>
            <AltitudeMeters>762.79998779296875</AltitudeMeters>
            <DistanceMeters>NAN</DistanceMeters>
          </Trackpoint>
          <Trackpoint>
            <Time>2021-08-09T12:26:03.000Z</Time>
            <Position>
              <LatitudeDegrees>43.05727265775203704833984375</LatitudeDegrees>
              <LongitudeDegrees>-1.76318429410457611083984375</LongitudeDegrees>
            </Position>
            <AltitudeMeters>763</AltitudeMeters>
            <DistanceMeters>NAN</DistanceMeters>
          </Trackpoint>
          <Trackpoint>
            <Time>2021-08-09T12:26:04.000Z</Time>
            <Position>
              <LatitudeDegrees>43.05729034356772899627685546875</LatitudeDegrees>
              <LongitudeDegrees>-1.76317490637302398681640625</LongitudeDegrees>
            </Position>
            <AltitudeMeters>763.20001220703125</AltitudeMeters>
            <DistanceMeters>NAN</DistanceMeters>
          </Trackpoint>
          <Trackpoint>
            <Time>2021-08-09T12:26:05.000Z</Time>
            <Position>
              <LatitudeDegrees>43.05731020867824554443359375</LatitudeDegrees>
              <LongitudeDegrees>-1.76316526718437671661376953125</LongitudeDegrees>
            </Position>
            <AltitudeMeters>763.4000244140625</AltitudeMeters>
            <DistanceMeters>NAN</DistanceMeters>
          </Trackpoint>
          <Trackpoint>
            <Time>2021-08-09T12:26:06.000Z</Time>
            <Position>
              <LatitudeDegrees>43.057329319417476654052734375</LatitudeDegrees>
              <LongitudeDegrees>-1.7631422169506549835205078125</LongitudeDegrees>
            </Position>
            <AltitudeMeters>763.5999755859375</AltitudeMeters>
            <DistanceMeters>NAN</DistanceMeters>
          </Trackpoint>
          <Trackpoint>
            <Time>2021-08-09T12:26:07.000Z</Time>
            <Position>
              <LatitudeDegrees>43.05733962915837764739990234375</LatitudeDegrees>
              <LongitudeDegrees>-1.76313936710357666015625</LongitudeDegrees>
            </Position>
            <AltitudeMeters>763.79998779296875</AltitudeMeters>
            <DistanceMeters>NAN</DistanceMeters>
          </Trackpoint>
          <Trackpoint>
            <Time>2021-08-09T12:26:08.000Z</Time>
            <Position>
              <LatitudeDegrees>43.0573546327650547027587890625</LatitudeDegrees>
              <LongitudeDegrees>-1.76311866380274295806884765625</LongitudeDegrees>
            </Position>
            <AltitudeMeters>763.79998779296875</AltitudeMeters>
            <DistanceMeters>NAN</DistanceMeters>
          </Trackpoint>
          <Trackpoint>
            <Time>2021-08-09T12:26:09.000Z</Time>
            <Position>
              <LatitudeDegrees>43.0573693849146366119384765625</LatitudeDegrees>
              <LongitudeDegrees>-1.76311614923179149627685546875</LongitudeDegrees>
            </Position>
            <AltitudeMeters>764.20001220703125</AltitudeMeters>
            <DistanceMeters>NAN</DistanceMeters>
          </Trackpoint>
          <Trackpoint>
            <Time>2021-08-09T12:26:10.000Z</Time>
            <Position>
              <LatitudeDegrees>43.05738908238708972930908203125</LatitudeDegrees>
              <LongitudeDegrees>-1.7631123773753643035888671875</LongitudeDegrees>
            </Position>
            <AltitudeMeters>764.4000244140625</AltitudeMeters>
            <DistanceMeters>NAN</DistanceMeters>
          </Trackpoint>
          <Trackpoint>
            <Time>2021-08-09T12:26:11.000Z</Time>
            <Position>
              <LatitudeDegrees>43.05740601383149623870849609375</LatitudeDegrees>
              <LongitudeDegrees>-1.763098128139972686767578125</LongitudeDegrees>
            </Position>
            <AltitudeMeters>764.79998779296875</AltitudeMeters>
            <DistanceMeters>NAN</DistanceMeters>
          </Trackpoint>
          <Trackpoint>
            <Time>2021-08-09T12:26:12.000Z</Time>
            <Position>
              <LatitudeDegrees>43.05742378346621990203857421875</LatitudeDegrees>
              <LongitudeDegrees>-1.76309284754097461700439453125</LongitudeDegrees>
            </Position>
            <AltitudeMeters>765</AltitudeMeters>
            <DistanceMeters>NAN</DistanceMeters>
          </Trackpoint>
          <Trackpoint>
            <Time>2021-08-09T12:26:13.000Z</Time>
            <Position>
              <LatitudeDegrees>43.05744088254868984222412109375</LatitudeDegrees>
              <LongitudeDegrees>-1.76308379508554935455322265625</LongitudeDegrees>
            </Position>
            <AltitudeMeters>765</AltitudeMeters>
            <DistanceMeters>NAN</DistanceMeters>
          </Trackpoint>
          <Trackpoint>
            <Time>2021-08-09T12:26:14.000Z</Time>
            <Position>
              <LatitudeDegrees>43.0574605800211429595947265625</LatitudeDegrees>
              <LongitudeDegrees>-1.763074658811092376708984375</LongitudeDegrees>
            </Position>
            <AltitudeMeters>765.4000244140625</AltitudeMeters>
            <DistanceMeters>NAN</DistanceMeters>
          </Trackpoint>
          <Trackpoint>
            <Time>2021-08-09T12:26:15.000Z</Time>
            <Position>
              <LatitudeDegrees>43.0574803613126277923583984375</LatitudeDegrees>
              <LongitudeDegrees>-1.7630651034414768218994140625</LongitudeDegrees>
            </Position>
            <AltitudeMeters>765.4000244140625</AltitudeMeters>
            <DistanceMeters>NAN</DistanceMeters>
          </Trackpoint>
          <Trackpoint>
            <Time>2021-08-09T12:26:16.000Z</Time>
            <Position>
              <LatitudeDegrees>43.05749385617673397064208984375</LatitudeDegrees>
              <LongitudeDegrees>-1.7630801908671855926513671875</LongitudeDegrees>
            </Position>
            <AltitudeMeters>765.4000244140625</AltitudeMeters>
            <DistanceMeters>NAN</DistanceMeters>
          </Trackpoint>
          <Trackpoint>
            <Time>2021-08-09T12:26:17.000Z</Time>
            <Position>
              <LatitudeDegrees>43.05751564912497997283935546875</LatitudeDegrees>
              <LongitudeDegrees>-1.7630664445459842681884765625</LongitudeDegrees>
            </Position>
            <AltitudeMeters>765.5999755859375</AltitudeMeters>
            <DistanceMeters>NAN</DistanceMeters>
          </Trackpoint>
          <Trackpoint>
            <Time>2021-08-09T12:26:18.000Z</Time>
            <Position>
              <LatitudeDegrees>43.05753643624484539031982421875</LatitudeDegrees>
              <LongitudeDegrees>-1.76304523833096027374267578125</LongitudeDegrees>
            </Position>
            <AltitudeMeters>765.5999755859375</AltitudeMeters>
            <DistanceMeters>NAN</DistanceMeters>
          </Trackpoint>
          <Trackpoint>
            <Time>2021-08-09T12:26:19.000Z</Time>
            <Position>
              <LatitudeDegrees>43.0575625039637088775634765625</LatitudeDegrees>
              <LongitudeDegrees>-1.76304607652127742767333984375</LongitudeDegrees>
            </Position>
            <AltitudeMeters>765.5999755859375</AltitudeMeters>
            <DistanceMeters>NAN</DistanceMeters>
          </Trackpoint>
          <Trackpoint>
            <Time>2021-08-09T12:26:20.000Z</Time>
            <Position>
              <LatitudeDegrees>43.05758588947355747222900390625</LatitudeDegrees>
              <LongitudeDegrees>-1.763047836720943450927734375</LongitudeDegrees>
            </Position>
            <AltitudeMeters>765.79998779296875</AltitudeMeters>
            <DistanceMeters>NAN</DistanceMeters>
          </Trackpoint>
          <Trackpoint>
            <Time>2021-08-09T12:26:21.000Z</Time>
            <Position>
              <LatitudeDegrees>43.0576050840318202972412109375</LatitudeDegrees>
              <LongitudeDegrees>-1.7630503512918949127197265625</LongitudeDegrees>
            </Position>
            <AltitudeMeters>765.79998779296875</AltitudeMeters>
            <DistanceMeters>NAN</DistanceMeters>
          </Trackpoint>
          <Trackpoint>
            <Time>2021-08-09T12:26:22.000Z</Time>
            <Position>
              <LatitudeDegrees>43.0576319061219692230224609375</LatitudeDegrees>
              <LongitudeDegrees>-1.76305093802511692047119140625</LongitudeDegrees>
            </Position>
            <AltitudeMeters>766</AltitudeMeters>
            <DistanceMeters>NAN</DistanceMeters>
          </Trackpoint>
          <Trackpoint>
            <Time>2021-08-09T12:26:23.000Z</Time>
            <Position>
              <LatitudeDegrees>43.05765445344150066375732421875</LatitudeDegrees>
              <LongitudeDegrees>-1.763049848377704620361328125</LongitudeDegrees>
            </Position>
            <AltitudeMeters>766.20001220703125</AltitudeMeters>
            <DistanceMeters>NAN</DistanceMeters>
          </Trackpoint>
          <Trackpoint>
            <Time>2021-08-09T12:26:24.000Z</Time>
            <Position>
              <LatitudeDegrees>43.05768010206520557403564453125</LatitudeDegrees>
              <LongitudeDegrees>-1.76304389722645282745361328125</LongitudeDegrees>
            </Position>
            <AltitudeMeters>766.20001220703125</AltitudeMeters>
            <DistanceMeters>NAN</DistanceMeters>
          </Trackpoint>
          <Trackpoint>
            <Time>2021-08-09T12:26:25.000Z</Time>
            <Position>
              <LatitudeDegrees>43.05770357139408588409423828125</LatitudeDegrees>
              <LongitudeDegrees>-1.7630235292017459869384765625</LongitudeDegrees>
            </Position>
            <AltitudeMeters>766.4000244140625</AltitudeMeters>
            <DistanceMeters>NAN</DistanceMeters>
          </Trackpoint>
          <Trackpoint>
            <Time>2021-08-09T12:26:26.000Z</Time>
            <Position>
              <LatitudeDegrees>43.0577224306762218475341796875</LatitudeDegrees>
              <LongitudeDegrees>-1.7630067653954029083251953125</LongitudeDegrees>
            </Position>
            <AltitudeMeters>766.4000244140625</AltitudeMeters>
            <DistanceMeters>NAN</DistanceMeters>
          </Trackpoint>
          <Trackpoint>
            <Time>2021-08-09T12:26:27.000Z</Time>
            <Position>
              <LatitudeDegrees>43.05773911066353321075439453125</LatitudeDegrees>
              <LongitudeDegrees>-1.762999556958675384521484375</LongitudeDegrees>
            </Position>
            <AltitudeMeters>766.5999755859375</AltitudeMeters>
            <DistanceMeters>NAN</DistanceMeters>
          </Trackpoint>
          <Trackpoint>
            <Time>2021-08-09T12:26:28.000Z</Time>
            <Position>
              <LatitudeDegrees>43.05774900130927562713623046875</LatitudeDegrees>
              <LongitudeDegrees>-1.7629913426935672760009765625</LongitudeDegrees>
            </Position>
            <AltitudeMeters>766.5999755859375</AltitudeMeters>
            <DistanceMeters>NAN</DistanceMeters>
          </Trackpoint>
          <Trackpoint>
            <Time>2021-08-09T12:26:29.000Z</Time>
            <Position>
              <LatitudeDegrees>43.05777146480977535247802734375</LatitudeDegrees>
              <LongitudeDegrees>-1.76298505626618862152099609375</LongitudeDegrees>
            </Position>
            <AltitudeMeters>766.79998779296875</AltitudeMeters>
            <DistanceMeters>NAN</DistanceMeters>
          </Trackpoint>
          <Trackpoint>
            <Time>2021-08-09T12:26:30.000Z</Time>
            <Position>
              <LatitudeDegrees>43.057787306606769561767578125</LatitudeDegrees>
              <LongitudeDegrees>-1.762981116771697998046875</LongitudeDegrees>
            </Position>
            <AltitudeMeters>766.79998779296875</AltitudeMeters>
            <DistanceMeters>NAN</DistanceMeters>
          </Trackpoint>
          <Trackpoint>
            <Time>2021-08-09T12:26:31.000Z</Time>
            <Position>
              <LatitudeDegrees>43.057802058756351470947265625</LatitudeDegrees>
              <LongitudeDegrees>-1.76297164522111415863037109375</LongitudeDegrees>
            </Position>
            <AltitudeMeters>766.79998779296875</AltitudeMeters>
            <DistanceMeters>NAN</DistanceMeters>
          </Trackpoint>
          <Trackpoint>
            <Time>2021-08-09T12:26:32.000Z</Time>
            <Position>
              <LatitudeDegrees>43.0578199960291385650634765625</LatitudeDegrees>
              <LongitudeDegrees>-1.76297114230692386627197265625</LongitudeDegrees>
            </Position>
            <AltitudeMeters>767</AltitudeMeters>
            <DistanceMeters>NAN</DistanceMeters>
          </Trackpoint>
          <Trackpoint>
            <Time>2021-08-09T12:26:33.000Z</Time>
            <Position>
              <LatitudeDegrees>43.05783214978873729705810546875</LatitudeDegrees>
              <LongitudeDegrees>-1.76297063939273357391357421875</LongitudeDegrees>
            </Position>
            <AltitudeMeters>767.20001220703125</AltitudeMeters>
            <DistanceMeters>NAN</DistanceMeters>
          </Trackpoint>
          <Trackpoint>
            <Time>2021-08-09T12:26:34.000Z</Time>
            <Position>
              <LatitudeDegrees>43.05784421972930431365966796875</LatitudeDegrees>
              <LongitudeDegrees>-1.76297776401042938232421875</LongitudeDegrees>
            </Position>
            <AltitudeMeters>767.20001220703125</AltitudeMeters>
            <DistanceMeters>NAN</DistanceMeters>
          </Trackpoint>
          <Trackpoint>
            <Time>2021-08-09T12:26:35.000Z</Time>
            <Position>
              <LatitudeDegrees>43.05786098353564739227294921875</LatitudeDegrees>
              <LongitudeDegrees>-1.762965023517608642578125</LongitudeDegrees>
            </Position>
            <AltitudeMeters>767.4000244140625</AltitudeMeters>
            <DistanceMeters>NAN</DistanceMeters>
          </Trackpoint>
          <Trackpoint>
            <Time>2021-08-09T12:26:36.000Z</Time>
            <Position>
              <LatitudeDegrees>43.05787422694265842437744140625</LatitudeDegrees>
              <LongitudeDegrees>-1.7629615031182765960693359375</LongitudeDegrees>
            </Position>
            <AltitudeMeters>767.4000244140625</AltitudeMeters>
            <DistanceMeters>NAN</DistanceMeters>
          </Trackpoint>
          <Trackpoint>
            <Time>2021-08-09T12:26:37.000Z</Time>
            <Position>
              <LatitudeDegrees>43.05788428522646427154541015625</LatitudeDegrees>
              <LongitudeDegrees>-1.76296125166118144989013671875</LongitudeDegrees>
            </Position>
            <AltitudeMeters>767.5999755859375</AltitudeMeters>
            <DistanceMeters>NAN</DistanceMeters>
          </Trackpoint>
          <Trackpoint>
            <Time>2021-08-09T12:26:38.000Z</Time>
            <Position>
              <LatitudeDegrees>43.05789652280509471893310546875</LatitudeDegrees>
              <LongitudeDegrees>-1.76295337267220020294189453125</LongitudeDegrees>
            </Position>
            <AltitudeMeters>767.79998779296875</AltitudeMeters>
            <DistanceMeters>NAN</DistanceMeters>
          </Trackpoint>
          <Trackpoint>
            <Time>2021-08-09T12:26:39.000Z</Time>
            <Position>
              <LatitudeDegrees>43.05790842510759830474853515625</LatitudeDegrees>
              <LongitudeDegrees>-1.76293761469423770904541015625</LongitudeDegrees>
            </Position>
            <AltitudeMeters>768</AltitudeMeters>
            <DistanceMeters>NAN</DistanceMeters>
          </Trackpoint>
          <Trackpoint>
            <Time>2021-08-09T12:26:40.000Z</Time>
            <Position>
              <LatitudeDegrees>43.05792150087654590606689453125</LatitudeDegrees>
              <LongitudeDegrees>-1.76291833631694316864013671875</LongitudeDegrees>
            </Position>
            <AltitudeMeters>768.20001220703125</AltitudeMeters>
            <DistanceMeters>NAN</DistanceMeters>
          </Trackpoint>
          <Trackpoint>
            <Time>2021-08-09T12:26:41.000Z</Time>
            <Position>
              <LatitudeDegrees>43.05793424136936664581298828125</LatitudeDegrees>
              <LongitudeDegrees>-1.76290534436702728271484375</LongitudeDegrees>
            </Position>
            <AltitudeMeters>768.4000244140625</AltitudeMeters>
            <DistanceMeters>NAN</DistanceMeters>
          </Trackpoint>
          <Trackpoint>
            <Time>2021-08-09T12:26:42.000Z</Time>
            <Position>
              <LatitudeDegrees>43.0579479038715362548828125</LatitudeDegrees>
              <LongitudeDegrees>-1.76288916729390621185302734375</LongitudeDegrees>
            </Position>
            <AltitudeMeters>768.4000244140625</AltitudeMeters>
            <DistanceMeters>NAN</DistanceMeters>
          </Trackpoint>
          <Trackpoint>
            <Time>2021-08-09T12:26:43.000Z</Time>
            <Position>
              <LatitudeDegrees>43.0579645000398159027099609375</LatitudeDegrees>
              <LongitudeDegrees>-1.76286779344081878662109375</LongitudeDegrees>
            </Position>
            <AltitudeMeters>768.5999755859375</AltitudeMeters>
            <DistanceMeters>NAN</DistanceMeters>
          </Trackpoint>
          <Trackpoint>
            <Time>2021-08-09T12:26:44.000Z</Time>
            <Position>
              <LatitudeDegrees>43.0579815991222858428955078125</LatitudeDegrees>
              <LongitudeDegrees>-1.76284826360642910003662109375</LongitudeDegrees>
            </Position>
            <AltitudeMeters>768.79998779296875</AltitudeMeters>
            <DistanceMeters>NAN</DistanceMeters>
          </Trackpoint>
          <Trackpoint>
            <Time>2021-08-09T12:26:45.000Z</Time>
            <Position>
              <LatitudeDegrees>43.05799894966185092926025390625</LatitudeDegrees>
              <LongitudeDegrees>-1.762833930552005767822265625</LongitudeDegrees>
            </Position>
            <AltitudeMeters>768.79998779296875</AltitudeMeters>
            <DistanceMeters>NAN</DistanceMeters>
          </Trackpoint>
          <Trackpoint>
            <Time>2021-08-09T12:26:46.000Z</Time>
            <Position>
              <LatitudeDegrees>43.05802040733397006988525390625</LatitudeDegrees>
              <LongitudeDegrees>-1.76282227970659732818603515625</LongitudeDegrees>
            </Position>
            <AltitudeMeters>769.20001220703125</AltitudeMeters>
            <DistanceMeters>NAN</DistanceMeters>
          </Trackpoint>
          <Trackpoint>
            <Time>2021-08-09T12:26:47.000Z</Time>
            <Position>
              <LatitudeDegrees>43.05803767405450344085693359375</LatitudeDegrees>
              <LongitudeDegrees>-1.7628086172044277191162109375</LongitudeDegrees>
            </Position>
            <AltitudeMeters>769.20001220703125</AltitudeMeters>
            <DistanceMeters>NAN</DistanceMeters>
          </Trackpoint>
          <Trackpoint>
            <Time>2021-08-09T12:26:48.000Z</Time>
            <Position>
              <LatitudeDegrees>43.05805158801376819610595703125</LatitudeDegrees>
              <LongitudeDegrees>-1.7628002353012561798095703125</LongitudeDegrees>
            </Position>
            <AltitudeMeters>769.4000244140625</AltitudeMeters>
            <DistanceMeters>NAN</DistanceMeters>
          </Trackpoint>
          <Trackpoint>
            <Time>2021-08-09T12:26:49.000Z</Time>
            <Position>
              <LatitudeDegrees>43.058065585792064666748046875</LatitudeDegrees>
              <LongitudeDegrees>-1.7627942003309726715087890625</LongitudeDegrees>
            </Position>
            <AltitudeMeters>769.4000244140625</AltitudeMeters>
            <DistanceMeters>NAN</DistanceMeters>
          </Trackpoint>
          <Trackpoint>
            <Time>2021-08-09T12:26:50.000Z</Time>
            <Position>
              <LatitudeDegrees>43.05808226577937602996826171875</LatitudeDegrees>
              <LongitudeDegrees>-1.76279311068356037139892578125</LongitudeDegrees>
            </Position>
            <AltitudeMeters>769.79998779296875</AltitudeMeters>
            <DistanceMeters>NAN</DistanceMeters>
          </Trackpoint>
          <Trackpoint>
            <Time>2021-08-09T12:26:51.000Z</Time>
            <Position>
              <LatitudeDegrees>43.05810456164181232452392578125</LatitudeDegrees>
              <LongitudeDegrees>-1.76279596053063869476318359375</LongitudeDegrees>
            </Position>
            <AltitudeMeters>769.79998779296875</AltitudeMeters>
            <DistanceMeters>NAN</DistanceMeters>
          </Trackpoint>
          <Trackpoint>
            <Time>2021-08-09T12:26:52.000Z</Time>
            <Position>
              <LatitudeDegrees>43.05812434293329715728759765625</LatitudeDegrees>
              <LongitudeDegrees>-1.762804426252841949462890625</LongitudeDegrees>
            </Position>
            <AltitudeMeters>770</AltitudeMeters>
            <DistanceMeters>NAN</DistanceMeters>
          </Trackpoint>
          <Trackpoint>
            <Time>2021-08-09T12:26:53.000Z</Time>
            <Position>
              <LatitudeDegrees>43.0581442080438137054443359375</LatitudeDegrees>
              <LongitudeDegrees>-1.762805096805095672607421875</LongitudeDegrees>
            </Position>
            <AltitudeMeters>770</AltitudeMeters>
            <DistanceMeters>NAN</DistanceMeters>
          </Trackpoint>
          <Trackpoint>
            <Time>2021-08-09T12:26:54.000Z</Time>
            <Position>
              <LatitudeDegrees>43.0581643246114253997802734375</LatitudeDegrees>
              <LongitudeDegrees>-1.762799061834812164306640625</LongitudeDegrees>
            </Position>
            <AltitudeMeters>770.20001220703125</AltitudeMeters>
            <DistanceMeters>NAN</DistanceMeters>
          </Trackpoint>
          <Trackpoint>
            <Time>2021-08-09T12:26:55.000Z</Time>
            <Position>
              <LatitudeDegrees>43.058184944093227386474609375</LatitudeDegrees>
              <LongitudeDegrees>-1.762799732387065887451171875</LongitudeDegrees>
            </Position>
            <AltitudeMeters>770.20001220703125</AltitudeMeters>
            <DistanceMeters>NAN</DistanceMeters>
          </Trackpoint>
          <Trackpoint>
            <Time>2021-08-09T12:26:56.000Z</Time>
            <Position>
              <LatitudeDegrees>43.05820480920374393463134765625</LatitudeDegrees>
              <LongitudeDegrees>-1.76280400715768337249755859375</LongitudeDegrees>
            </Position>
            <AltitudeMeters>770.20001220703125</AltitudeMeters>
            <DistanceMeters>NAN</DistanceMeters>
          </Trackpoint>
          <Trackpoint>
            <Time>2021-08-09T12:26:57.000Z</Time>
            <Position>
              <LatitudeDegrees>43.05823381058871746063232421875</LatitudeDegrees>
              <LongitudeDegrees>-1.7627965472638607025146484375</LongitudeDegrees>
            </Position>
            <AltitudeMeters>770.4000244140625</AltitudeMeters>
            <DistanceMeters>NAN</DistanceMeters>
          </Trackpoint>
          <Trackpoint>
            <Time>2021-08-09T12:26:58.000Z</Time>
            <Position>
              <LatitudeDegrees>43.05825543589890003204345703125</LatitudeDegrees>
              <LongitudeDegrees>-1.76278724335134029388427734375</LongitudeDegrees>
            </Position>
            <AltitudeMeters>770.79998779296875</AltitudeMeters>
            <DistanceMeters>NAN</DistanceMeters>
          </Trackpoint>
          <Trackpoint>
            <Time>2021-08-09T12:26:59.000Z</Time>
            <Position>
              <LatitudeDegrees>43.05827538482844829559326171875</LatitudeDegrees>
              <LongitudeDegrees>-1.7627844773232936859130859375</LongitudeDegrees>
            </Position>
            <AltitudeMeters>770.79998779296875</AltitudeMeters>
            <DistanceMeters>NAN</DistanceMeters>
          </Trackpoint>
          <Trackpoint>
            <Time>2021-08-09T12:27:00.000Z</Time>
            <Position>
              <LatitudeDegrees>43.05829768069088459014892578125</LatitudeDegrees>
              <LongitudeDegrees>-1.76278732717037200927734375</LongitudeDegrees>
            </Position>
            <AltitudeMeters>771.20001220703125</AltitudeMeters>
            <DistanceMeters>NAN</DistanceMeters>
          </Trackpoint>
          <Trackpoint>
            <Time>2021-08-09T12:27:01.000Z</Time>
            <Position>
              <LatitudeDegrees>43.05831746198236942291259765625</LatitudeDegrees>
              <LongitudeDegrees>-1.7627928592264652252197265625</LongitudeDegrees>
            </Position>
            <AltitudeMeters>771.20001220703125</AltitudeMeters>
            <DistanceMeters>NAN</DistanceMeters>
          </Trackpoint>
          <Trackpoint>
            <Time>2021-08-09T12:27:02.000Z</Time>
            <Position>
              <LatitudeDegrees>43.058334477245807647705078125</LatitudeDegrees>
              <LongitudeDegrees>-1.76279805600643157958984375</LongitudeDegrees>
            </Position>
            <AltitudeMeters>771.4000244140625</AltitudeMeters>
            <DistanceMeters>NAN</DistanceMeters>
          </Trackpoint>
          <Trackpoint>
            <Time>2021-08-09T12:27:03.000Z</Time>
            <Position>
              <LatitudeDegrees>43.058351576328277587890625</LatitudeDegrees>
              <LongitudeDegrees>-1.76280702464282512664794921875</LongitudeDegrees>
            </Position>
            <AltitudeMeters>771.5999755859375</AltitudeMeters>
            <DistanceMeters>NAN</DistanceMeters>
          </Trackpoint>
          <Trackpoint>
            <Time>2021-08-09T12:27:04.000Z</Time>
            <Position>
              <LatitudeDegrees>43.05836607702076435089111328125</LatitudeDegrees>
              <LongitudeDegrees>-1.762797720730304718017578125</LongitudeDegrees>
            </Position>
            <AltitudeMeters>771.5999755859375</AltitudeMeters>
            <DistanceMeters>NAN</DistanceMeters>
          </Trackpoint>
          <Trackpoint>
            <Time>2021-08-09T12:27:05.000Z</Time>
            <Position>
              <LatitudeDegrees>43.05837999098002910614013671875</LatitudeDegrees>
              <LongitudeDegrees>-1.76280216313898563385009765625</LongitudeDegrees>
            </Position>
            <AltitudeMeters>771.79998779296875</AltitudeMeters>
            <DistanceMeters>NAN</DistanceMeters>
          </Trackpoint>
          <Trackpoint>
            <Time>2021-08-09T12:27:06.000Z</Time>
            <Position>
              <LatitudeDegrees>43.05839709006249904632568359375</LatitudeDegrees>
              <LongitudeDegrees>-1.762812472879886627197265625</LongitudeDegrees>
            </Position>
            <AltitudeMeters>771.79998779296875</AltitudeMeters>
            <DistanceMeters>NAN</DistanceMeters>
          </Trackpoint>
          <Trackpoint>
            <Time>2021-08-09T12:27:07.000Z</Time>
            <Position>
              <LatitudeDegrees>43.05840815417468547821044921875</LatitudeDegrees>
              <LongitudeDegrees>-1.7628304101526737213134765625</LongitudeDegrees>
            </Position>
            <AltitudeMeters>771.79998779296875</AltitudeMeters>
            <DistanceMeters>NAN</DistanceMeters>
          </Trackpoint>
          <Trackpoint>
            <Time>2021-08-09T12:27:08.000Z</Time>
            <Position>
              <LatitudeDegrees>43.058414272964000701904296875</LatitudeDegrees>
              <LongitudeDegrees>-1.7628703080117702484130859375</LongitudeDegrees>
            </Position>
            <AltitudeMeters>771.79998779296875</AltitudeMeters>
            <DistanceMeters>NAN</DistanceMeters>
          </Trackpoint>
          <Trackpoint>
            <Time>2021-08-09T12:27:09.000Z</Time>
            <Position>
              <LatitudeDegrees>43.05842910893261432647705078125</LatitudeDegrees>
              <LongitudeDegrees>-1.76289788447320461273193359375</LongitudeDegrees>
            </Position>
            <AltitudeMeters>772</AltitudeMeters>
            <DistanceMeters>NAN</DistanceMeters>
          </Trackpoint>
          <Trackpoint>
            <Time>2021-08-09T12:27:10.000Z</Time>
            <Position>
              <LatitudeDegrees>43.05844235233962535858154296875</LatitudeDegrees>
              <LongitudeDegrees>-1.76291397772729396820068359375</LongitudeDegrees>
            </Position>
            <AltitudeMeters>772</AltitudeMeters>
            <DistanceMeters>NAN</DistanceMeters>
          </Trackpoint>
          <Trackpoint>
            <Time>2021-08-09T12:27:11.000Z</Time>
            <Position>
              <LatitudeDegrees>43.05844746530055999755859375</LatitudeDegrees>
              <LongitudeDegrees>-1.7629288136959075927734375</LongitudeDegrees>
            </Position>
            <AltitudeMeters>772</AltitudeMeters>
            <DistanceMeters>NAN</DistanceMeters>
          </Trackpoint>
          <Trackpoint>
            <Time>2021-08-09T12:27:12.000Z</Time>
            <Position>
              <LatitudeDegrees>43.05845794267952442169189453125</LatitudeDegrees>
              <LongitudeDegrees>-1.7629256285727024078369140625</LongitudeDegrees>
            </Position>
            <AltitudeMeters>772.20001220703125</AltitudeMeters>
            <DistanceMeters>NAN</DistanceMeters>
          </Trackpoint>
          <Trackpoint>
            <Time>2021-08-09T12:27:13.000Z</Time>
            <Position>
              <LatitudeDegrees>43.05846649222075939178466796875</LatitudeDegrees>
              <LongitudeDegrees>-1.7629316635429859161376953125</LongitudeDegrees>
            </Position>
            <AltitudeMeters>772.20001220703125</AltitudeMeters>
            <DistanceMeters>NAN</DistanceMeters>
          </Trackpoint>
          <Trackpoint>
            <Time>2021-08-09T12:27:14.000Z</Time>
            <Position>
              <LatitudeDegrees>43.05847227573394775390625</LatitudeDegrees>
              <LongitudeDegrees>-1.7629537917673587799072265625</LongitudeDegrees>
            </Position>
            <AltitudeMeters>772.5999755859375</AltitudeMeters>
            <DistanceMeters>NAN</DistanceMeters>
          </Trackpoint>
          <Trackpoint>
            <Time>2021-08-09T12:27:15.000Z</Time>
            <Position>
              <LatitudeDegrees>43.05847789160907268524169921875</LatitudeDegrees>
              <LongitudeDegrees>-1.7629730701446533203125</LongitudeDegrees>
            </Position>
            <AltitudeMeters>772.5999755859375</AltitudeMeters>
            <DistanceMeters>NAN</DistanceMeters>
          </Trackpoint>
          <Trackpoint>
            <Time>2021-08-09T12:27:16.000Z</Time>
            <Position>
              <LatitudeDegrees>43.0584835074841976165771484375</LatitudeDegrees>
              <LongitudeDegrees>-1.76300634630024433135986328125</LongitudeDegrees>
            </Position>
            <AltitudeMeters>772.79998779296875</AltitudeMeters>
            <DistanceMeters>NAN</DistanceMeters>
          </Trackpoint>
          <Trackpoint>
            <Time>2021-08-09T12:27:17.000Z</Time>
            <Position>
              <LatitudeDegrees>43.05849515832960605621337890625</LatitudeDegrees>
              <LongitudeDegrees>-1.76304037682712078094482421875</LongitudeDegrees>
            </Position>
            <AltitudeMeters>773</AltitudeMeters>
            <DistanceMeters>NAN</DistanceMeters>
          </Trackpoint>
          <Trackpoint>
            <Time>2021-08-09T12:27:18.000Z</Time>
            <Position>
              <LatitudeDegrees>43.05850219912827014923095703125</LatitudeDegrees>
              <LongitudeDegrees>-1.76306895911693572998046875</LongitudeDegrees>
            </Position>
            <AltitudeMeters>773</AltitudeMeters>
            <DistanceMeters>NAN</DistanceMeters>
          </Trackpoint>
          <Trackpoint>
            <Time>2021-08-09T12:27:19.000Z</Time>
            <Position>
              <LatitudeDegrees>43.05850588716566562652587890625</LatitudeDegrees>
              <LongitudeDegrees>-1.7630925960838794708251953125</LongitudeDegrees>
            </Position>
            <AltitudeMeters>773.20001220703125</AltitudeMeters>
            <DistanceMeters>NAN</DistanceMeters>
          </Trackpoint>
          <Trackpoint>
            <Time>2021-08-09T12:27:20.000Z</Time>
            <Position>
              <LatitudeDegrees>43.0585093237459659576416015625</LatitudeDegrees>
              <LongitudeDegrees>-1.76311497576534748077392578125</LongitudeDegrees>
            </Position>
            <AltitudeMeters>773.4000244140625</AltitudeMeters>
            <DistanceMeters>NAN</DistanceMeters>
          </Trackpoint>
          <Trackpoint>
            <Time>2021-08-09T12:27:21.000Z</Time>
            <Position>
              <LatitudeDegrees>43.0585146881639957427978515625</LatitudeDegrees>
              <LongitudeDegrees>-1.7631353437900543212890625</LongitudeDegrees>
            </Position>
            <AltitudeMeters>773.5999755859375</AltitudeMeters>
            <DistanceMeters>NAN</DistanceMeters>
          </Trackpoint>
          <Trackpoint>
            <Time>2021-08-09T12:27:22.000Z</Time>
            <Position>
              <LatitudeDegrees>43.0585207231342792510986328125</LatitudeDegrees>
              <LongitudeDegrees>-1.7631546221673488616943359375</LongitudeDegrees>
            </Position>
            <AltitudeMeters>773.5999755859375</AltitudeMeters>
            <DistanceMeters>NAN</DistanceMeters>
          </Trackpoint>
          <Trackpoint>
            <Time>2021-08-09T12:27:23.000Z</Time>
            <Position>
              <LatitudeDegrees>43.05852751247584819793701171875</LatitudeDegrees>
              <LongitudeDegrees>-1.76317356526851654052734375</LongitudeDegrees>
            </Position>
            <AltitudeMeters>773.79998779296875</AltitudeMeters>
            <DistanceMeters>NAN</DistanceMeters>
          </Trackpoint>
          <Trackpoint>
            <Time>2021-08-09T12:27:24.000Z</Time>
            <Position>
              <LatitudeDegrees>43.05853622965514659881591796875</LatitudeDegrees>
              <LongitudeDegrees>-1.7631938494741916656494140625</LongitudeDegrees>
            </Position>
            <AltitudeMeters>774</AltitudeMeters>
            <DistanceMeters>NAN</DistanceMeters>
          </Trackpoint>
          <Trackpoint>
            <Time>2021-08-09T12:27:25.000Z</Time>
            <Position>
              <LatitudeDegrees>43.05854863487184047698974609375</LatitudeDegrees>
              <LongitudeDegrees>-1.7632126249372959136962890625</LongitudeDegrees>
            </Position>
            <AltitudeMeters>774.20001220703125</AltitudeMeters>
            <DistanceMeters>NAN</DistanceMeters>
          </Trackpoint>
          <Trackpoint>
            <Time>2021-08-09T12:27:26.000Z</Time>
            <Position>
              <LatitudeDegrees>43.0585576035082340240478515625</LatitudeDegrees>
              <LongitudeDegrees>-1.76323064602911472320556640625</LongitudeDegrees>
            </Position>
            <AltitudeMeters>774.20001220703125</AltitudeMeters>
            <DistanceMeters>NAN</DistanceMeters>
          </Trackpoint>
          <Trackpoint>
            <Time>2021-08-09T12:27:27.000Z</Time>
            <Position>
              <LatitudeDegrees>43.0585686676204204559326171875</LatitudeDegrees>
              <LongitudeDegrees>-1.7632498405873775482177734375</LongitudeDegrees>
            </Position>
            <AltitudeMeters>774.4000244140625</AltitudeMeters>
            <DistanceMeters>NAN</DistanceMeters>
          </Trackpoint>
          <Trackpoint>
            <Time>2021-08-09T12:27:28.000Z</Time>
            <Position>
              <LatitudeDegrees>43.05857897736132144927978515625</LatitudeDegrees>
              <LongitudeDegrees>-1.76327071152627468109130859375</LongitudeDegrees>
            </Position>
            <AltitudeMeters>774.5999755859375</AltitudeMeters>
            <DistanceMeters>NAN</DistanceMeters>
          </Trackpoint>
          <Trackpoint>
            <Time>2021-08-09T12:27:29.000Z</Time>
            <Position>
              <LatitudeDegrees>43.05859029293060302734375</LatitudeDegrees>
              <LongitudeDegrees>-1.7632907442748546600341796875</LongitudeDegrees>
            </Position>
            <AltitudeMeters>774.79998779296875</AltitudeMeters>
            <DistanceMeters>NAN</DistanceMeters>
          </Trackpoint>
          <Trackpoint>
            <Time>2021-08-09T12:27:30.000Z</Time>
            <Position>
              <LatitudeDegrees>43.05860177613794803619384765625</LatitudeDegrees>
              <LongitudeDegrees>-1.76330625079572200775146484375</LongitudeDegrees>
            </Position>
            <AltitudeMeters>774.79998779296875</AltitudeMeters>
            <DistanceMeters>NAN</DistanceMeters>
          </Trackpoint>
          <Trackpoint>
            <Time>2021-08-09T12:27:31.000Z</Time>
            <Position>
              <LatitudeDegrees>43.05861837230622768402099609375</LatitudeDegrees>
              <LongitudeDegrees>-1.76331580616533756256103515625</LongitudeDegrees>
            </Position>
            <AltitudeMeters>775</AltitudeMeters>
            <DistanceMeters>NAN</DistanceMeters>
          </Trackpoint>
          <Trackpoint>
            <Time>2021-08-09T12:27:32.000Z</Time>
            <Position>
              <LatitudeDegrees>43.058633543550968170166015625</LatitudeDegrees>
              <LongitudeDegrees>-1.76332586444914340972900390625</LongitudeDegrees>
            </Position>
            <AltitudeMeters>775.20001220703125</AltitudeMeters>
            <DistanceMeters>NAN</DistanceMeters>
          </Trackpoint>
          <Trackpoint>
            <Time>2021-08-09T12:27:33.000Z</Time>
            <Position>
              <LatitudeDegrees>43.058648966252803802490234375</LatitudeDegrees>
              <LongitudeDegrees>-1.7633391916751861572265625</LongitudeDegrees>
            </Position>
            <AltitudeMeters>775.20001220703125</AltitudeMeters>
            <DistanceMeters>NAN</DistanceMeters>
          </Trackpoint>
          <Trackpoint>
            <Time>2021-08-09T12:27:34.000Z</Time>
            <Position>
              <LatitudeDegrees>43.05866581387817859649658203125</LatitudeDegrees>
              <LongitudeDegrees>-1.76336039789021015167236328125</LongitudeDegrees>
            </Position>
            <AltitudeMeters>775.4000244140625</AltitudeMeters>
            <DistanceMeters>NAN</DistanceMeters>
          </Trackpoint>
          <Trackpoint>
            <Time>2021-08-09T12:27:35.000Z</Time>
            <Position>
              <LatitudeDegrees>43.05867972783744335174560546875</LatitudeDegrees>
              <LongitudeDegrees>-1.76338034681975841522216796875</LongitudeDegrees>
            </Position>
            <AltitudeMeters>775.5999755859375</AltitudeMeters>
            <DistanceMeters>NAN</DistanceMeters>
          </Trackpoint>
          <Trackpoint>
            <Time>2021-08-09T12:27:36.000Z</Time>
            <Position>
              <LatitudeDegrees>43.05868978612124919891357421875</LatitudeDegrees>
              <LongitudeDegrees>-1.76339191384613513946533203125</LongitudeDegrees>
            </Position>
            <AltitudeMeters>775.79998779296875</AltitudeMeters>
            <DistanceMeters>NAN</DistanceMeters>
          </Trackpoint>
          <Trackpoint>
            <Time>2021-08-09T12:27:37.000Z</Time>
            <Position>
              <LatitudeDegrees>43.05869984440505504608154296875</LatitudeDegrees>
              <LongitudeDegrees>-1.76340130157768726348876953125</LongitudeDegrees>
            </Position>
            <AltitudeMeters>775.79998779296875</AltitudeMeters>
            <DistanceMeters>NAN</DistanceMeters>
          </Trackpoint>
          <Trackpoint>
            <Time>2021-08-09T12:27:38.000Z</Time>
            <Position>
              <LatitudeDegrees>43.0587121658027172088623046875</LatitudeDegrees>
              <LongitudeDegrees>-1.76341655664145946502685546875</LongitudeDegrees>
            </Position>
            <AltitudeMeters>776</AltitudeMeters>
            <DistanceMeters>NAN</DistanceMeters>
          </Trackpoint>
          <Trackpoint>
            <Time>2021-08-09T12:27:39.000Z</Time>
            <Position>
              <LatitudeDegrees>43.05872364901006221771240234375</LatitudeDegrees>
              <LongitudeDegrees>-1.76342477090656757354736328125</LongitudeDegrees>
            </Position>
            <AltitudeMeters>776</AltitudeMeters>
            <DistanceMeters>NAN</DistanceMeters>
          </Trackpoint>
          <Trackpoint>
            <Time>2021-08-09T12:27:40.000Z</Time>
            <Position>
              <LatitudeDegrees>43.0587363056838512420654296875</LatitudeDegrees>
              <LongitudeDegrees>-1.763432063162326812744140625</LongitudeDegrees>
            </Position>
            <AltitudeMeters>776.20001220703125</AltitudeMeters>
            <DistanceMeters>NAN</DistanceMeters>
          </Trackpoint>
          <Trackpoint>
            <Time>2021-08-09T12:27:41.000Z</Time>
            <Position>
              <LatitudeDegrees>43.0587487109005451202392578125</LatitudeDegrees>
              <LongitudeDegrees>-1.7634429596364498138427734375</LongitudeDegrees>
            </Position>
            <AltitudeMeters>776.4000244140625</AltitudeMeters>
            <DistanceMeters>NAN</DistanceMeters>
          </Trackpoint>
          <Trackpoint>
            <Time>2021-08-09T12:27:42.000Z</Time>
            <Position>
              <LatitudeDegrees>43.05876337923109531402587890625</LatitudeDegrees>
              <LongitudeDegrees>-1.7634563706815242767333984375</LongitudeDegrees>
            </Position>
            <AltitudeMeters>776.4000244140625</AltitudeMeters>
            <DistanceMeters>NAN</DistanceMeters>
          </Trackpoint>
          <Trackpoint>
            <Time>2021-08-09T12:27:43.000Z</Time>
            <Position>
              <LatitudeDegrees>43.05878064595162868499755859375</LatitudeDegrees>
              <LongitudeDegrees>-1.76346969790756702423095703125</LongitudeDegrees>
            </Position>
            <AltitudeMeters>776.79998779296875</AltitudeMeters>
            <DistanceMeters>NAN</DistanceMeters>
          </Trackpoint>
          <Trackpoint>
            <Time>2021-08-09T12:27:44.000Z</Time>
            <Position>
              <LatitudeDegrees>43.0587949790060520172119140625</LatitudeDegrees>
              <LongitudeDegrees>-1.7634741403162479400634765625</LongitudeDegrees>
            </Position>
            <AltitudeMeters>777</AltitudeMeters>
            <DistanceMeters>NAN</DistanceMeters>
          </Trackpoint>
          <Trackpoint>
            <Time>2021-08-09T12:27:45.000Z</Time>
            <Position>
              <LatitudeDegrees>43.058816604316234588623046875</LatitudeDegrees>
              <LongitudeDegrees>-1.7634774930775165557861328125</LongitudeDegrees>
            </Position>
            <AltitudeMeters>777.4000244140625</AltitudeMeters>
            <DistanceMeters>NAN</DistanceMeters>
          </Trackpoint>
          <Trackpoint>
            <Time>2021-08-09T12:27:46.000Z</Time>
            <Position>
              <LatitudeDegrees>43.05883864872157573699951171875</LatitudeDegrees>
              <LongitudeDegrees>-1.76348897628486156463623046875</LongitudeDegrees>
            </Position>
            <AltitudeMeters>777.79998779296875</AltitudeMeters>
            <DistanceMeters>NAN</DistanceMeters>
          </Trackpoint>
          <Trackpoint>
            <Time>2021-08-09T12:27:47.000Z</Time>
            <Position>
              <LatitudeDegrees>43.05885708890855312347412109375</LatitudeDegrees>
              <LongitudeDegrees>-1.763504482805728912353515625</LongitudeDegrees>
            </Position>
            <AltitudeMeters>778</AltitudeMeters>
            <DistanceMeters>NAN</DistanceMeters>
          </Trackpoint>
          <Trackpoint>
            <Time>2021-08-09T12:27:48.000Z</Time>
            <Position>
              <LatitudeDegrees>43.05887385271489620208740234375</LatitudeDegrees>
              <LongitudeDegrees>-1.7635157145559787750244140625</LongitudeDegrees>
            </Position>
            <AltitudeMeters>778.20001220703125</AltitudeMeters>
            <DistanceMeters>NAN</DistanceMeters>
          </Trackpoint>
          <Trackpoint>
            <Time>2021-08-09T12:27:49.000Z</Time>
            <Position>
              <LatitudeDegrees>43.058893382549285888671875</LatitudeDegrees>
              <LongitudeDegrees>-1.76352602429687976837158203125</LongitudeDegrees>
            </Position>
            <AltitudeMeters>778.20001220703125</AltitudeMeters>
            <DistanceMeters>NAN</DistanceMeters>
          </Trackpoint>
          <Trackpoint>
            <Time>2021-08-09T12:27:50.000Z</Time>
            <Position>
              <LatitudeDegrees>43.05891291238367557525634765625</LatitudeDegrees>
              <LongitudeDegrees>-1.76353524439036846160888671875</LongitudeDegrees>
            </Position>
            <AltitudeMeters>778.4000244140625</AltitudeMeters>
            <DistanceMeters>NAN</DistanceMeters>
          </Trackpoint>
          <Trackpoint>
            <Time>2021-08-09T12:27:51.000Z</Time>
            <Position>
              <LatitudeDegrees>43.05892665870487689971923828125</LatitudeDegrees>
              <LongitudeDegrees>-1.76354211755096912384033203125</LongitudeDegrees>
            </Position>
            <AltitudeMeters>778.4000244140625</AltitudeMeters>
            <DistanceMeters>NAN</DistanceMeters>
          </Trackpoint>
          <Trackpoint>
            <Time>2021-08-09T12:27:52.000Z</Time>
            <Position>
              <LatitudeDegrees>43.0589488707482814788818359375</LatitudeDegrees>
              <LongitudeDegrees>-1.76354781724512577056884765625</LongitudeDegrees>
            </Position>
            <AltitudeMeters>778.4000244140625</AltitudeMeters>
            <DistanceMeters>NAN</DistanceMeters>
          </Trackpoint>
          <Trackpoint>
            <Time>2021-08-09T12:27:53.000Z</Time>
            <Position>
              <LatitudeDegrees>43.0589689873158931732177734375</LatitudeDegrees>
              <LongitudeDegrees>-1.76355200819671154022216796875</LongitudeDegrees>
            </Position>
            <AltitudeMeters>778.4000244140625</AltitudeMeters>
            <DistanceMeters>NAN</DistanceMeters>
          </Trackpoint>
          <Trackpoint>
            <Time>2021-08-09T12:27:54.000Z</Time>
            <Position>
              <LatitudeDegrees>43.0589840747416019439697265625</LatitudeDegrees>
              <LongitudeDegrees>-1.7635562829673290252685546875</LongitudeDegrees>
            </Position>
            <AltitudeMeters>778.5999755859375</AltitudeMeters>
            <DistanceMeters>NAN</DistanceMeters>
          </Trackpoint>
          <Trackpoint>
            <Time>2021-08-09T12:27:55.000Z</Time>
            <Position>
              <LatitudeDegrees>43.0590005032718181610107421875</LatitudeDegrees>
              <LongitudeDegrees>-1.763558797538280487060546875</LongitudeDegrees>
            </Position>
            <AltitudeMeters>778.5999755859375</AltitudeMeters>
            <DistanceMeters>NAN</DistanceMeters>
          </Trackpoint>
          <Trackpoint>
            <Time>2021-08-09T12:27:56.000Z</Time>
            <Position>
              <LatitudeDegrees>43.05901919491589069366455078125</LatitudeDegrees>
              <LongitudeDegrees>-1.76355787552893161773681640625</LongitudeDegrees>
            </Position>
            <AltitudeMeters>778.79998779296875</AltitudeMeters>
            <DistanceMeters>NAN</DistanceMeters>
          </Trackpoint>
          <Trackpoint>
            <Time>2021-08-09T12:27:57.000Z</Time>
            <Position>
              <LatitudeDegrees>43.0590343661606311798095703125</LatitudeDegrees>
              <LongitudeDegrees>-1.763562820851802825927734375</LongitudeDegrees>
            </Position>
            <AltitudeMeters>778.79998779296875</AltitudeMeters>
            <DistanceMeters>NAN</DistanceMeters>
          </Trackpoint>
          <Trackpoint>
            <Time>2021-08-09T12:27:58.000Z</Time>
            <Position>
              <LatitudeDegrees>43.059049956500530242919921875</LatitudeDegrees>
              <LongitudeDegrees>-1.7635676823556423187255859375</LongitudeDegrees>
            </Position>
            <AltitudeMeters>779.20001220703125</AltitudeMeters>
            <DistanceMeters>NAN</DistanceMeters>
          </Trackpoint>
          <Trackpoint>
            <Time>2021-08-09T12:27:59.000Z</Time>
            <Position>
              <LatitudeDegrees>43.05906831286847591400146484375</LatitudeDegrees>
              <LongitudeDegrees>-1.76356860436499118804931640625</LongitudeDegrees>
            </Position>
            <AltitudeMeters>779.5999755859375</AltitudeMeters>
            <DistanceMeters>NAN</DistanceMeters>
          </Trackpoint>
          <Trackpoint>
            <Time>2021-08-09T12:28:00.000Z</Time>
            <Position>
              <LatitudeDegrees>43.05908692069351673126220703125</LatitudeDegrees>
              <LongitudeDegrees>-1.76357128657400608062744140625</LongitudeDegrees>
            </Position>
            <AltitudeMeters>779.5999755859375</AltitudeMeters>
            <DistanceMeters>NAN</DistanceMeters>
          </Trackpoint>
          <Trackpoint>
            <Time>2021-08-09T12:28:01.000Z</Time>
            <Position>
              <LatitudeDegrees>43.059106282889842987060546875</LatitudeDegrees>
              <LongitudeDegrees>-1.7635743878781795501708984375</LongitudeDegrees>
            </Position>
            <AltitudeMeters>779.79998779296875</AltitudeMeters>
            <DistanceMeters>NAN</DistanceMeters>
          </Trackpoint>
          <Trackpoint>
            <Time>2021-08-09T12:28:02.000Z</Time>
            <Position>
              <LatitudeDegrees>43.0591262318193912506103515625</LatitudeDegrees>
              <LongitudeDegrees>-1.7635666765272617340087890625</LongitudeDegrees>
            </Position>
            <AltitudeMeters>779.79998779296875</AltitudeMeters>
            <DistanceMeters>NAN</DistanceMeters>
          </Trackpoint>
          <Trackpoint>
            <Time>2021-08-09T12:28:03.000Z</Time>
            <Position>
              <LatitudeDegrees>43.05914374999701976776123046875</LatitudeDegrees>
              <LongitudeDegrees>-1.7635596357285976409912109375</LongitudeDegrees>
            </Position>
            <AltitudeMeters>780</AltitudeMeters>
            <DistanceMeters>NAN</DistanceMeters>
          </Trackpoint>
          <Trackpoint>
            <Time>2021-08-09T12:28:04.000Z</Time>
            <Position>
              <LatitudeDegrees>43.0591621063649654388427734375</LatitudeDegrees>
              <LongitudeDegrees>-1.7635510861873626708984375</LongitudeDegrees>
            </Position>
            <AltitudeMeters>780</AltitudeMeters>
            <DistanceMeters>NAN</DistanceMeters>
          </Trackpoint>
          <Trackpoint>
            <Time>2021-08-09T12:28:05.000Z</Time>
            <Position>
              <LatitudeDegrees>43.05917979218065738677978515625</LatitudeDegrees>
              <LongitudeDegrees>-1.76354664377868175506591796875</LongitudeDegrees>
            </Position>
            <AltitudeMeters>780</AltitudeMeters>
            <DistanceMeters>NAN</DistanceMeters>
          </Trackpoint>
          <Trackpoint>
            <Time>2021-08-09T12:28:06.000Z</Time>
            <Position>
              <LatitudeDegrees>43.05919689126312732696533203125</LatitudeDegrees>
              <LongitudeDegrees>-1.76354513503611087799072265625</LongitudeDegrees>
            </Position>
            <AltitudeMeters>780</AltitudeMeters>
            <DistanceMeters>NAN</DistanceMeters>
          </Trackpoint>
          <Trackpoint>
            <Time>2021-08-09T12:28:07.000Z</Time>
            <Position>
              <LatitudeDegrees>43.059220612049102783203125</LatitudeDegrees>
              <LongitudeDegrees>-1.7635448835790157318115234375</LongitudeDegrees>
            </Position>
            <AltitudeMeters>780.20001220703125</AltitudeMeters>
            <DistanceMeters>NAN</DistanceMeters>
          </Trackpoint>
          <Trackpoint>
            <Time>2021-08-09T12:28:08.000Z</Time>
            <Position>
              <LatitudeDegrees>43.05924869142472743988037109375</LatitudeDegrees>
              <LongitudeDegrees>-1.76354681141674518585205078125</LongitudeDegrees>
            </Position>
            <AltitudeMeters>780.20001220703125</AltitudeMeters>
            <DistanceMeters>NAN</DistanceMeters>
          </Trackpoint>
          <Trackpoint>
            <Time>2021-08-09T12:28:09.000Z</Time>
            <Position>
              <LatitudeDegrees>43.05927333422005176544189453125</LatitudeDegrees>
              <LongitudeDegrees>-1.76355033181607723236083984375</LongitudeDegrees>
            </Position>
            <AltitudeMeters>780.4000244140625</AltitudeMeters>
            <DistanceMeters>NAN</DistanceMeters>
          </Trackpoint>
          <Trackpoint>
            <Time>2021-08-09T12:28:10.000Z</Time>
            <Position>
              <LatitudeDegrees>43.0592921935021877288818359375</LatitudeDegrees>
              <LongitudeDegrees>-1.76355217583477497100830078125</LongitudeDegrees>
            </Position>
            <AltitudeMeters>780.5999755859375</AltitudeMeters>
            <DistanceMeters>NAN</DistanceMeters>
          </Trackpoint>
          <Trackpoint>
            <Time>2021-08-09T12:28:11.000Z</Time>
            <Position>
              <LatitudeDegrees>43.0593113042414188385009765625</LatitudeDegrees>
              <LongitudeDegrees>-1.763551421463489532470703125</LongitudeDegrees>
            </Position>
            <AltitudeMeters>780.5999755859375</AltitudeMeters>
            <DistanceMeters>NAN</DistanceMeters>
          </Trackpoint>
          <Trackpoint>
            <Time>2021-08-09T12:28:12.000Z</Time>
            <Position>
              <LatitudeDegrees>43.05933368392288684844970703125</LatitudeDegrees>
              <LongitudeDegrees>-1.76355536095798015594482421875</LongitudeDegrees>
            </Position>
            <AltitudeMeters>780.79998779296875</AltitudeMeters>
            <DistanceMeters>NAN</DistanceMeters>
          </Trackpoint>
          <Trackpoint>
            <Time>2021-08-09T12:28:13.000Z</Time>
            <Position>
              <LatitudeDegrees>43.059358410537242889404296875</LatitudeDegrees>
              <LongitudeDegrees>-1.76355653442442417144775390625</LongitudeDegrees>
            </Position>
            <AltitudeMeters>780.79998779296875</AltitudeMeters>
            <DistanceMeters>NAN</DistanceMeters>
          </Trackpoint>
          <Trackpoint>
            <Time>2021-08-09T12:28:14.000Z</Time>
            <Position>
              <LatitudeDegrees>43.059381879866123199462890625</LatitudeDegrees>
              <LongitudeDegrees>-1.76355770789086818695068359375</LongitudeDegrees>
            </Position>
            <AltitudeMeters>781</AltitudeMeters>
            <DistanceMeters>NAN</DistanceMeters>
          </Trackpoint>
          <Trackpoint>
            <Time>2021-08-09T12:28:15.000Z</Time>
            <Position>
              <LatitudeDegrees>43.0594048462808132171630859375</LatitudeDegrees>
              <LongitudeDegrees>-1.7635510861873626708984375</LongitudeDegrees>
            </Position>
            <AltitudeMeters>781</AltitudeMeters>
            <DistanceMeters>NAN</DistanceMeters>
          </Trackpoint>
          <Trackpoint>
            <Time>2021-08-09T12:28:16.000Z</Time>
            <Position>
              <LatitudeDegrees>43.05942554958164691925048828125</LatitudeDegrees>
              <LongitudeDegrees>-1.76354463212192058563232421875</LongitudeDegrees>
            </Position>
            <AltitudeMeters>781.20001220703125</AltitudeMeters>
            <DistanceMeters>NAN</DistanceMeters>
          </Trackpoint>
          <Trackpoint>
            <Time>2021-08-09T12:28:17.000Z</Time>
            <Position>
              <LatitudeDegrees>43.059446252882480621337890625</LatitudeDegrees>
              <LongitudeDegrees>-1.76353926770389080047607421875</LongitudeDegrees>
            </Position>
            <AltitudeMeters>781.20001220703125</AltitudeMeters>
            <DistanceMeters>NAN</DistanceMeters>
          </Trackpoint>
          <Trackpoint>
            <Time>2021-08-09T12:28:18.000Z</Time>
            <Position>
              <LatitudeDegrees>43.05946628563106060028076171875</LatitudeDegrees>
              <LongitudeDegrees>-1.7635309696197509765625</LongitudeDegrees>
            </Position>
            <AltitudeMeters>781.5999755859375</AltitudeMeters>
            <DistanceMeters>NAN</DistanceMeters>
          </Trackpoint>
          <Trackpoint>
            <Time>2021-08-09T12:28:19.000Z</Time>
            <Position>
              <LatitudeDegrees>43.05948656983673572540283203125</LatitudeDegrees>
              <LongitudeDegrees>-1.7635297961533069610595703125</LongitudeDegrees>
            </Position>
            <AltitudeMeters>782</AltitudeMeters>
            <DistanceMeters>NAN</DistanceMeters>
          </Trackpoint>
          <Trackpoint>
            <Time>2021-08-09T12:28:20.000Z</Time>
            <Position>
              <LatitudeDegrees>43.059505932033061981201171875</LatitudeDegrees>
              <LongitudeDegrees>-1.763525269925594329833984375</LongitudeDegrees>
            </Position>
            <AltitudeMeters>782.4000244140625</AltitudeMeters>
            <DistanceMeters>NAN</DistanceMeters>
          </Trackpoint>
          <Trackpoint>
            <Time>2021-08-09T12:28:21.000Z</Time>
            <Position>
              <LatitudeDegrees>43.05952596478164196014404296875</LatitudeDegrees>
              <LongitudeDegrees>-1.76351931877434253692626953125</LongitudeDegrees>
            </Position>
            <AltitudeMeters>782.5999755859375</AltitudeMeters>
            <DistanceMeters>NAN</DistanceMeters>
          </Trackpoint>
          <Trackpoint>
            <Time>2021-08-09T12:28:22.000Z</Time>
            <Position>
              <LatitudeDegrees>43.05954448878765106201171875</LatitudeDegrees>
              <LongitudeDegrees>-1.76351563073694705963134765625</LongitudeDegrees>
            </Position>
            <AltitudeMeters>782.79998779296875</AltitudeMeters>
            <DistanceMeters>NAN</DistanceMeters>
          </Trackpoint>
          <Trackpoint>
            <Time>2021-08-09T12:28:23.000Z</Time>
            <Position>
              <LatitudeDegrees>43.05956326425075531005859375</LatitudeDegrees>
              <LongitudeDegrees>-1.76351663656532764434814453125</LongitudeDegrees>
            </Position>
            <AltitudeMeters>783</AltitudeMeters>
            <DistanceMeters>NAN</DistanceMeters>
          </Trackpoint>
          <Trackpoint>
            <Time>2021-08-09T12:28:24.000Z</Time>
            <Position>
              <LatitudeDegrees>43.05958463810384273529052734375</LatitudeDegrees>
              <LongitudeDegrees>-1.76350708119571208953857421875</LongitudeDegrees>
            </Position>
            <AltitudeMeters>783</AltitudeMeters>
            <DistanceMeters>NAN</DistanceMeters>
          </Trackpoint>
          <Trackpoint>
            <Time>2021-08-09T12:28:25.000Z</Time>
            <Position>
              <LatitudeDegrees>43.05961363948881626129150390625</LatitudeDegrees>
              <LongitudeDegrees>-1.763497777283191680908203125</LongitudeDegrees>
            </Position>
            <AltitudeMeters>783.20001220703125</AltitudeMeters>
            <DistanceMeters>NAN</DistanceMeters>
          </Trackpoint>
          <Trackpoint>
            <Time>2021-08-09T12:28:26.000Z</Time>
            <Position>
              <LatitudeDegrees>43.0596328340470790863037109375</LatitudeDegrees>
              <LongitudeDegrees>-1.7634840309619903564453125</LongitudeDegrees>
            </Position>
            <AltitudeMeters>783.20001220703125</AltitudeMeters>
            <DistanceMeters>NAN</DistanceMeters>
          </Trackpoint>
          <Trackpoint>
            <Time>2021-08-09T12:28:27.000Z</Time>
            <Position>
              <LatitudeDegrees>43.05965705774724483489990234375</LatitudeDegrees>
              <LongitudeDegrees>-1.76347187720239162445068359375</LongitudeDegrees>
            </Position>
            <AltitudeMeters>783.4000244140625</AltitudeMeters>
            <DistanceMeters>NAN</DistanceMeters>
          </Trackpoint>
          <Trackpoint>
            <Time>2021-08-09T12:28:28.000Z</Time>
            <Position>
              <LatitudeDegrees>43.059682957828044891357421875</LatitudeDegrees>
              <LongitudeDegrees>-1.76346265710890293121337890625</LongitudeDegrees>
            </Position>
            <AltitudeMeters>783.4000244140625</AltitudeMeters>
            <DistanceMeters>NAN</DistanceMeters>
          </Trackpoint>
          <Trackpoint>
            <Time>2021-08-09T12:28:29.000Z</Time>
            <Position>
              <LatitudeDegrees>43.05971120484173297882080078125</LatitudeDegrees>
              <LongitudeDegrees>-1.7634392715990543365478515625</LongitudeDegrees>
            </Position>
            <AltitudeMeters>783.5999755859375</AltitudeMeters>
            <DistanceMeters>NAN</DistanceMeters>
          </Trackpoint>
          <Trackpoint>
            <Time>2021-08-09T12:28:30.000Z</Time>
            <Position>
              <LatitudeDegrees>43.05974967777729034423828125</LatitudeDegrees>
              <LongitudeDegrees>-1.76340951584279537200927734375</LongitudeDegrees>
            </Position>
            <AltitudeMeters>783.79998779296875</AltitudeMeters>
            <DistanceMeters>NAN</DistanceMeters>
          </Trackpoint>
          <Trackpoint>
            <Time>2021-08-09T12:28:31.000Z</Time>
            <Position>
              <LatitudeDegrees>43.05978278629481792449951171875</LatitudeDegrees>
              <LongitudeDegrees>-1.76337934099137783050537109375</LongitudeDegrees>
            </Position>
            <AltitudeMeters>783.79998779296875</AltitudeMeters>
            <DistanceMeters>NAN</DistanceMeters>
          </Trackpoint>
          <Trackpoint>
            <Time>2021-08-09T12:28:32.000Z</Time>
            <Position>
              <LatitudeDegrees>43.05981882847845554351806640625</LatitudeDegrees>
              <LongitudeDegrees>-1.76333927549421787261962890625</LongitudeDegrees>
            </Position>
            <AltitudeMeters>784</AltitudeMeters>
            <DistanceMeters>NAN</DistanceMeters>
          </Trackpoint>
          <Trackpoint>
            <Time>2021-08-09T12:28:33.000Z</Time>
            <Position>
              <LatitudeDegrees>43.05984213016927242279052734375</LatitudeDegrees>
              <LongitudeDegrees>-1.763317398726940155029296875</LongitudeDegrees>
            </Position>
            <AltitudeMeters>784.20001220703125</AltitudeMeters>
            <DistanceMeters>NAN</DistanceMeters>
          </Trackpoint>
          <Trackpoint>
            <Time>2021-08-09T12:28:34.000Z</Time>
            <Position>
              <LatitudeDegrees>43.0598683655261993408203125</LatitudeDegrees>
              <LongitudeDegrees>-1.76329334266483783721923828125</LongitudeDegrees>
            </Position>
            <AltitudeMeters>784.20001220703125</AltitudeMeters>
            <DistanceMeters>NAN</DistanceMeters>
          </Trackpoint>
          <Trackpoint>
            <Time>2021-08-09T12:28:35.000Z</Time>
            <Position>
              <LatitudeDegrees>43.05990583263337612152099609375</LatitudeDegrees>
              <LongitudeDegrees>-1.7632904089987277984619140625</LongitudeDegrees>
            </Position>
            <AltitudeMeters>784.20001220703125</AltitudeMeters>
            <DistanceMeters>NAN</DistanceMeters>
          </Trackpoint>
          <Trackpoint>
            <Time>2021-08-09T12:28:36.000Z</Time>
            <Position>
              <LatitudeDegrees>43.05993466638028621673583984375</LatitudeDegrees>
              <LongitudeDegrees>-1.76328429020941257476806640625</LongitudeDegrees>
            </Position>
            <AltitudeMeters>784.20001220703125</AltitudeMeters>
            <DistanceMeters>NAN</DistanceMeters>
          </Trackpoint>
          <Trackpoint>
            <Time>2021-08-09T12:28:37.000Z</Time>
            <Position>
              <LatitudeDegrees>43.05996132083237171173095703125</LatitudeDegrees>
              <LongitudeDegrees>-1.76328814588487148284912109375</LongitudeDegrees>
            </Position>
            <AltitudeMeters>784.4000244140625</AltitudeMeters>
            <DistanceMeters>NAN</DistanceMeters>
          </Trackpoint>
          <Trackpoint>
            <Time>2021-08-09T12:28:38.000Z</Time>
            <Position>
              <LatitudeDegrees>43.05998546071350574493408203125</LatitudeDegrees>
              <LongitudeDegrees>-1.7632920853793621063232421875</LongitudeDegrees>
            </Position>
            <AltitudeMeters>784.5999755859375</AltitudeMeters>
            <DistanceMeters>NAN</DistanceMeters>
          </Trackpoint>
          <Trackpoint>
            <Time>2021-08-09T12:28:39.000Z</Time>
            <Position>
              <LatitudeDegrees>43.06001119315624237060546875</LatitudeDegrees>
              <LongitudeDegrees>-1.7632904089987277984619140625</LongitudeDegrees>
            </Position>
            <AltitudeMeters>784.79998779296875</AltitudeMeters>
            <DistanceMeters>NAN</DistanceMeters>
          </Trackpoint>
          <Trackpoint>
            <Time>2021-08-09T12:28:40.000Z</Time>
            <Position>
              <LatitudeDegrees>43.060038350522518157958984375</LatitudeDegrees>
              <LongitudeDegrees>-1.7632830329239368438720703125</LongitudeDegrees>
            </Position>
            <AltitudeMeters>785.4000244140625</AltitudeMeters>
            <DistanceMeters>NAN</DistanceMeters>
          </Trackpoint>
          <Trackpoint>
            <Time>2021-08-09T12:28:41.000Z</Time>
            <Position>
              <LatitudeDegrees>43.060076236724853515625</LatitudeDegrees>
              <LongitudeDegrees>-1.76328646950423717498779296875</LongitudeDegrees>
            </Position>
            <AltitudeMeters>786</AltitudeMeters>
            <DistanceMeters>NAN</DistanceMeters>
          </Trackpoint>
          <Trackpoint>
            <Time>2021-08-09T12:28:42.000Z</Time>
            <Position>
              <LatitudeDegrees>43.060110099613666534423828125</LatitudeDegrees>
              <LongitudeDegrees>-1.763284206390380859375</LongitudeDegrees>
            </Position>
            <AltitudeMeters>786.20001220703125</AltitudeMeters>
            <DistanceMeters>NAN</DistanceMeters>
          </Trackpoint>
          <Trackpoint>
            <Time>2021-08-09T12:28:43.000Z</Time>
            <Position>
              <LatitudeDegrees>43.060133568942546844482421875</LatitudeDegrees>
              <LongitudeDegrees>-1.7632716335356235504150390625</LongitudeDegrees>
            </Position>
            <AltitudeMeters>786.4000244140625</AltitudeMeters>
            <DistanceMeters>NAN</DistanceMeters>
          </Trackpoint>
          <Trackpoint>
            <Time>2021-08-09T12:28:44.000Z</Time>
            <Position>
              <LatitudeDegrees>43.06016634218394756317138671875</LatitudeDegrees>
              <LongitudeDegrees>-1.76324506290256977081298828125</LongitudeDegrees>
            </Position>
            <AltitudeMeters>786.5999755859375</AltitudeMeters>
            <DistanceMeters>NAN</DistanceMeters>
          </Trackpoint>
          <Trackpoint>
            <Time>2021-08-09T12:28:45.000Z</Time>
            <Position>
              <LatitudeDegrees>43.060182519257068634033203125</LatitudeDegrees>
              <LongitudeDegrees>-1.7632267065346240997314453125</LongitudeDegrees>
            </Position>
            <AltitudeMeters>786.5999755859375</AltitudeMeters>
            <DistanceMeters>NAN</DistanceMeters>
          </Trackpoint>
          <Trackpoint>
            <Time>2021-08-09T12:28:46.000Z</Time>
            <Position>
              <LatitudeDegrees>43.06020297110080718994140625</LatitudeDegrees>
              <LongitudeDegrees>-1.7632122896611690521240234375</LongitudeDegrees>
            </Position>
            <AltitudeMeters>786.79998779296875</AltitudeMeters>
            <DistanceMeters>NAN</DistanceMeters>
          </Trackpoint>
          <Trackpoint>
            <Time>2021-08-09T12:28:47.000Z</Time>
            <Position>
              <LatitudeDegrees>43.0602504126727581024169921875</LatitudeDegrees>
              <LongitudeDegrees>-1.7632307298481464385986328125</LongitudeDegrees>
            </Position>
            <AltitudeMeters>786.79998779296875</AltitudeMeters>
            <DistanceMeters>NAN</DistanceMeters>
          </Trackpoint>
          <Trackpoint>
            <Time>2021-08-09T12:28:48.000Z</Time>
            <Position>
              <LatitudeDegrees>43.06027597747743129730224609375</LatitudeDegrees>
              <LongitudeDegrees>-1.76321103237569332122802734375</LongitudeDegrees>
            </Position>
            <AltitudeMeters>786.79998779296875</AltitudeMeters>
            <DistanceMeters>NAN</DistanceMeters>
          </Trackpoint>
          <Trackpoint>
            <Time>2021-08-09T12:28:49.000Z</Time>
            <Position>
              <LatitudeDegrees>43.06029559113085269927978515625</LatitudeDegrees>
              <LongitudeDegrees>-1.7631801031529903411865234375</LongitudeDegrees>
            </Position>
            <AltitudeMeters>787</AltitudeMeters>
            <DistanceMeters>NAN</DistanceMeters>
          </Trackpoint>
          <Trackpoint>
            <Time>2021-08-09T12:28:50.000Z</Time>
            <Position>
              <LatitudeDegrees>43.06031956337392330169677734375</LatitudeDegrees>
              <LongitudeDegrees>-1.76316191442310810089111328125</LongitudeDegrees>
            </Position>
            <AltitudeMeters>787.20001220703125</AltitudeMeters>
            <DistanceMeters>NAN</DistanceMeters>
          </Trackpoint>
          <Trackpoint>
            <Time>2021-08-09T12:28:51.000Z</Time>
            <Position>
              <LatitudeDegrees>43.06034403853118419647216796875</LatitudeDegrees>
              <LongitudeDegrees>-1.76315076649188995361328125</LongitudeDegrees>
            </Position>
            <AltitudeMeters>787.20001220703125</AltitudeMeters>
            <DistanceMeters>NAN</DistanceMeters>
          </Trackpoint>
          <Trackpoint>
            <Time>2021-08-09T12:28:52.000Z</Time>
            <Position>
              <LatitudeDegrees>43.06036767549812793731689453125</LatitudeDegrees>
              <LongitudeDegrees>-1.76313324831426143646240234375</LongitudeDegrees>
            </Position>
            <AltitudeMeters>787.5999755859375</AltitudeMeters>
            <DistanceMeters>NAN</DistanceMeters>
          </Trackpoint>
          <Trackpoint>
            <Time>2021-08-09T12:28:53.000Z</Time>
            <Position>
              <LatitudeDegrees>43.0603885464370250701904296875</LatitudeDegrees>
              <LongitudeDegrees>-1.7631180770695209503173828125</LongitudeDegrees>
            </Position>
            <AltitudeMeters>787.79998779296875</AltitudeMeters>
            <DistanceMeters>NAN</DistanceMeters>
          </Trackpoint>
          <Trackpoint>
            <Time>2021-08-09T12:28:54.000Z</Time>
            <Position>
              <LatitudeDegrees>43.06040170602500438690185546875</LatitudeDegrees>
              <LongitudeDegrees>-1.7630979605019092559814453125</LongitudeDegrees>
            </Position>
            <AltitudeMeters>787.79998779296875</AltitudeMeters>
            <DistanceMeters>NAN</DistanceMeters>
          </Trackpoint>
          <Trackpoint>
            <Time>2021-08-09T12:28:55.000Z</Time>
            <Position>
              <LatitudeDegrees>43.0604120157659053802490234375</LatitudeDegrees>
              <LongitudeDegrees>-1.76307742483913898468017578125</LongitudeDegrees>
            </Position>
            <AltitudeMeters>788</AltitudeMeters>
            <DistanceMeters>NAN</DistanceMeters>
          </Trackpoint>
          <Trackpoint>
            <Time>2021-08-09T12:28:56.000Z</Time>
            <Position>
              <LatitudeDegrees>43.06042634882032871246337890625</LatitudeDegrees>
              <LongitudeDegrees>-1.76305831409990787506103515625</LongitudeDegrees>
            </Position>
            <AltitudeMeters>788</AltitudeMeters>
            <DistanceMeters>NAN</DistanceMeters>
          </Trackpoint>
          <Trackpoint>
            <Time>2021-08-09T12:28:57.000Z</Time>
            <Position>
              <LatitudeDegrees>43.0604401789605617523193359375</LatitudeDegrees>
              <LongitudeDegrees>-1.763043813407421112060546875</LongitudeDegrees>
            </Position>
            <AltitudeMeters>788.20001220703125</AltitudeMeters>
            <DistanceMeters>NAN</DistanceMeters>
          </Trackpoint>
          <Trackpoint>
            <Time>2021-08-09T12:28:58.000Z</Time>
            <Position>
              <LatitudeDegrees>43.06045300327241420745849609375</LatitudeDegrees>
              <LongitudeDegrees>-1.76302847452461719512939453125</LongitudeDegrees>
            </Position>
            <AltitudeMeters>788.4000244140625</AltitudeMeters>
            <DistanceMeters>NAN</DistanceMeters>
          </Trackpoint>
          <Trackpoint>
            <Time>2021-08-09T12:28:59.000Z</Time>
            <Position>
              <LatitudeDegrees>43.06046993471682071685791015625</LatitudeDegrees>
              <LongitudeDegrees>-1.76301120780408382415771484375</LongitudeDegrees>
            </Position>
            <AltitudeMeters>788.4000244140625</AltitudeMeters>
            <DistanceMeters>NAN</DistanceMeters>
          </Trackpoint>
          <Trackpoint>
            <Time>2021-08-09T12:29:00.000Z</Time>
            <Position>
              <LatitudeDegrees>43.06048728525638580322265625</LatitudeDegrees>
              <LongitudeDegrees>-1.762992180883884429931640625</LongitudeDegrees>
            </Position>
            <AltitudeMeters>788.5999755859375</AltitudeMeters>
            <DistanceMeters>NAN</DistanceMeters>
          </Trackpoint>
          <Trackpoint>
            <Time>2021-08-09T12:29:01.000Z</Time>
            <Position>
              <LatitudeDegrees>43.06050815619528293609619140625</LatitudeDegrees>
              <LongitudeDegrees>-1.762962006032466888427734375</LongitudeDegrees>
            </Position>
            <AltitudeMeters>788.5999755859375</AltitudeMeters>
            <DistanceMeters>NAN</DistanceMeters>
          </Trackpoint>
          <Trackpoint>
            <Time>2021-08-09T12:29:02.000Z</Time>
            <Position>
              <LatitudeDegrees>43.06052927859127521514892578125</LatitudeDegrees>
              <LongitudeDegrees>-1.76294281147420406341552734375</LongitudeDegrees>
            </Position>
            <AltitudeMeters>788.79998779296875</AltitudeMeters>
            <DistanceMeters>NAN</DistanceMeters>
          </Trackpoint>
          <Trackpoint>
            <Time>2021-08-09T12:29:03.000Z</Time>
            <Position>
              <LatitudeDegrees>43.060552664101123809814453125</LatitudeDegrees>
              <LongitudeDegrees>-1.76292470656335353851318359375</LongitudeDegrees>
            </Position>
            <AltitudeMeters>789</AltitudeMeters>
            <DistanceMeters>NAN</DistanceMeters>
          </Trackpoint>
          <Trackpoint>
            <Time>2021-08-09T12:29:04.000Z</Time>
            <Position>
              <LatitudeDegrees>43.06057621724903583526611328125</LatitudeDegrees>
              <LongitudeDegrees>-1.76290609873831272125244140625</LongitudeDegrees>
            </Position>
            <AltitudeMeters>789.20001220703125</AltitudeMeters>
            <DistanceMeters>NAN</DistanceMeters>
          </Trackpoint>
          <Trackpoint>
            <Time>2021-08-09T12:29:05.000Z</Time>
            <Position>
              <LatitudeDegrees>43.06059658527374267578125</LatitudeDegrees>
              <LongitudeDegrees>-1.76288816146552562713623046875</LongitudeDegrees>
            </Position>
            <AltitudeMeters>789.20001220703125</AltitudeMeters>
            <DistanceMeters>NAN</DistanceMeters>
          </Trackpoint>
          <Trackpoint>
            <Time>2021-08-09T12:29:06.000Z</Time>
            <Position>
              <LatitudeDegrees>43.0606185458600521087646484375</LatitudeDegrees>
              <LongitudeDegrees>-1.76286955364048480987548828125</LongitudeDegrees>
            </Position>
            <AltitudeMeters>789.4000244140625</AltitudeMeters>
            <DistanceMeters>NAN</DistanceMeters>
          </Trackpoint>
          <Trackpoint>
            <Time>2021-08-09T12:29:07.000Z</Time>
            <Position>
              <LatitudeDegrees>43.06063807569444179534912109375</LatitudeDegrees>
              <LongitudeDegrees>-1.76285614259541034698486328125</LongitudeDegrees>
            </Position>
            <AltitudeMeters>789.4000244140625</AltitudeMeters>
            <DistanceMeters>NAN</DistanceMeters>
          </Trackpoint>
          <Trackpoint>
            <Time>2021-08-09T12:29:08.000Z</Time>
            <Position>
              <LatitudeDegrees>43.06066188029944896697998046875</LatitudeDegrees>
              <LongitudeDegrees>-1.76283954642713069915771484375</LongitudeDegrees>
            </Position>
            <AltitudeMeters>789.4000244140625</AltitudeMeters>
            <DistanceMeters>NAN</DistanceMeters>
          </Trackpoint>
          <Trackpoint>
            <Time>2021-08-09T12:29:09.000Z</Time>
            <Position>
              <LatitudeDegrees>43.06068317033350467681884765625</LatitudeDegrees>
              <LongitudeDegrees>-1.76282756030559539794921875</LongitudeDegrees>
            </Position>
            <AltitudeMeters>789.5999755859375</AltitudeMeters>
            <DistanceMeters>NAN</DistanceMeters>
          </Trackpoint>
          <Trackpoint>
            <Time>2021-08-09T12:29:10.000Z</Time>
            <Position>
              <LatitudeDegrees>43.06070462800562381744384765625</LatitudeDegrees>
              <LongitudeDegrees>-1.762813813984394073486328125</LongitudeDegrees>
            </Position>
            <AltitudeMeters>789.79998779296875</AltitudeMeters>
            <DistanceMeters>NAN</DistanceMeters>
          </Trackpoint>
          <Trackpoint>
            <Time>2021-08-09T12:29:11.000Z</Time>
            <Position>
              <LatitudeDegrees>43.06072692386806011199951171875</LatitudeDegrees>
              <LongitudeDegrees>-1.762804090976715087890625</LongitudeDegrees>
            </Position>
            <AltitudeMeters>790</AltitudeMeters>
            <DistanceMeters>NAN</DistanceMeters>
          </Trackpoint>
          <Trackpoint>
            <Time>2021-08-09T12:29:12.000Z</Time>
            <Position>
              <LatitudeDegrees>43.06075416505336761474609375</LatitudeDegrees>
              <LongitudeDegrees>-1.76278841681778430938720703125</LongitudeDegrees>
            </Position>
            <AltitudeMeters>790</AltitudeMeters>
            <DistanceMeters>NAN</DistanceMeters>
          </Trackpoint>
          <Trackpoint>
            <Time>2021-08-09T12:29:13.000Z</Time>
            <Position>
              <LatitudeDegrees>43.0607784725725650787353515625</LatitudeDegrees>
              <LongitudeDegrees>-1.76277785561978816986083984375</LongitudeDegrees>
            </Position>
            <AltitudeMeters>790.20001220703125</AltitudeMeters>
            <DistanceMeters>NAN</DistanceMeters>
          </Trackpoint>
          <Trackpoint>
            <Time>2021-08-09T12:29:14.000Z</Time>
            <Position>
              <LatitudeDegrees>43.060802109539508819580078125</LatitudeDegrees>
              <LongitudeDegrees>-1.76275757141411304473876953125</LongitudeDegrees>
            </Position>
            <AltitudeMeters>790.20001220703125</AltitudeMeters>
            <DistanceMeters>NAN</DistanceMeters>
          </Trackpoint>
          <Trackpoint>
            <Time>2021-08-09T12:29:15.000Z</Time>
            <Position>
              <LatitudeDegrees>43.06082515977323055267333984375</LatitudeDegrees>
              <LongitudeDegrees>-1.762746088206768035888671875</LongitudeDegrees>
            </Position>
            <AltitudeMeters>790.4000244140625</AltitudeMeters>
            <DistanceMeters>NAN</DistanceMeters>
          </Trackpoint>
          <Trackpoint>
            <Time>2021-08-09T12:29:16.000Z</Time>
            <Position>
              <LatitudeDegrees>43.06084938347339630126953125</LatitudeDegrees>
              <LongitudeDegrees>-1.76274348981678485870361328125</LongitudeDegrees>
            </Position>
            <AltitudeMeters>790.5999755859375</AltitudeMeters>
            <DistanceMeters>NAN</DistanceMeters>
          </Trackpoint>
          <Trackpoint>
            <Time>2021-08-09T12:29:17.000Z</Time>
            <Position>
              <LatitudeDegrees>43.06087628938257694244384765625</LatitudeDegrees>
              <LongitudeDegrees>-1.76272722892463207244873046875</LongitudeDegrees>
            </Position>
            <AltitudeMeters>790.5999755859375</AltitudeMeters>
            <DistanceMeters>NAN</DistanceMeters>
          </Trackpoint>
          <Trackpoint>
            <Time>2021-08-09T12:29:18.000Z</Time>
            <Position>
              <LatitudeDegrees>43.06090042926371097564697265625</LatitudeDegrees>
              <LongitudeDegrees>-1.7626900970935821533203125</LongitudeDegrees>
            </Position>
            <AltitudeMeters>790.5999755859375</AltitudeMeters>
            <DistanceMeters>NAN</DistanceMeters>
          </Trackpoint>
          <Trackpoint>
            <Time>2021-08-09T12:29:19.000Z</Time>
            <Position>
              <LatitudeDegrees>43.06092909537255764007568359375</LatitudeDegrees>
              <LongitudeDegrees>-1.7626634426414966583251953125</LongitudeDegrees>
            </Position>
            <AltitudeMeters>790.79998779296875</AltitudeMeters>
            <DistanceMeters>NAN</DistanceMeters>
          </Trackpoint>
          <Trackpoint>
            <Time>2021-08-09T12:29:20.000Z</Time>
            <Position>
              <LatitudeDegrees>43.06095323525369167327880859375</LatitudeDegrees>
              <LongitudeDegrees>-1.76263871602714061737060546875</LongitudeDegrees>
            </Position>
            <AltitudeMeters>791</AltitudeMeters>
            <DistanceMeters>NAN</DistanceMeters>
          </Trackpoint>
          <Trackpoint>
            <Time>2021-08-09T12:29:21.000Z</Time>
            <Position>
              <LatitudeDegrees>43.06098860688507556915283203125</LatitudeDegrees>
              <LongitudeDegrees>-1.76262480206787586212158203125</LongitudeDegrees>
            </Position>
            <AltitudeMeters>791.20001220703125</AltitudeMeters>
            <DistanceMeters>NAN</DistanceMeters>
          </Trackpoint>
          <Trackpoint>
            <Time>2021-08-09T12:29:22.000Z</Time>
            <Position>
              <LatitudeDegrees>43.06102079339325428009033203125</LatitudeDegrees>
              <LongitudeDegrees>-1.76262195222079753875732421875</LongitudeDegrees>
            </Position>
            <AltitudeMeters>791.4000244140625</AltitudeMeters>
            <DistanceMeters>NAN</DistanceMeters>
          </Trackpoint>
          <Trackpoint>
            <Time>2021-08-09T12:29:23.000Z</Time>
            <Position>
              <LatitudeDegrees>43.06105549447238445281982421875</LatitudeDegrees>
              <LongitudeDegrees>-1.76263452507555484771728515625</LongitudeDegrees>
            </Position>
            <AltitudeMeters>791.5999755859375</AltitudeMeters>
            <DistanceMeters>NAN</DistanceMeters>
          </Trackpoint>
          <Trackpoint>
            <Time>2021-08-09T12:29:24.000Z</Time>
            <Position>
              <LatitudeDegrees>43.06108902208507061004638671875</LatitudeDegrees>
              <LongitudeDegrees>-1.76266218535602092742919921875</LongitudeDegrees>
            </Position>
            <AltitudeMeters>791.5999755859375</AltitudeMeters>
            <DistanceMeters>NAN</DistanceMeters>
          </Trackpoint>
          <Trackpoint>
            <Time>2021-08-09T12:29:25.000Z</Time>
            <Position>
              <LatitudeDegrees>43.06112003512680530548095703125</LatitudeDegrees>
              <LongitudeDegrees>-1.76268163137137889862060546875</LongitudeDegrees>
            </Position>
            <AltitudeMeters>791.79998779296875</AltitudeMeters>
            <DistanceMeters>NAN</DistanceMeters>
          </Trackpoint>
          <Trackpoint>
            <Time>2021-08-09T12:29:26.000Z</Time>
            <Position>
              <LatitudeDegrees>43.06114685721695423126220703125</LatitudeDegrees>
              <LongitudeDegrees>-1.7627073638141155242919921875</LongitudeDegrees>
            </Position>
            <AltitudeMeters>791.79998779296875</AltitudeMeters>
            <DistanceMeters>NAN</DistanceMeters>
          </Trackpoint>
          <Trackpoint>
            <Time>2021-08-09T12:29:27.000Z</Time>
            <Position>
              <LatitudeDegrees>43.06116546504199504852294921875</LatitudeDegrees>
              <LongitudeDegrees>-1.76272563636302947998046875</LongitudeDegrees>
            </Position>
            <AltitudeMeters>792</AltitudeMeters>
            <DistanceMeters>NAN</DistanceMeters>
          </Trackpoint>
          <Trackpoint>
            <Time>2021-08-09T12:29:28.000Z</Time>
            <Position>
              <LatitudeDegrees>43.0611858330667018890380859375</LatitudeDegrees>
              <LongitudeDegrees>-1.76273276098072528839111328125</LongitudeDegrees>
            </Position>
            <AltitudeMeters>792</AltitudeMeters>
            <DistanceMeters>NAN</DistanceMeters>
          </Trackpoint>
          <Trackpoint>
            <Time>2021-08-09T12:29:29.000Z</Time>
            <Position>
              <LatitudeDegrees>43.06119631044566631317138671875</LatitudeDegrees>
              <LongitudeDegrees>-1.762759499251842498779296875</LongitudeDegrees>
            </Position>
            <AltitudeMeters>792.20001220703125</AltitudeMeters>
            <DistanceMeters>NAN</DistanceMeters>
          </Trackpoint>
          <Trackpoint>
            <Time>2021-08-09T12:29:30.000Z</Time>
            <Position>
              <LatitudeDegrees>43.0612106435000896453857421875</LatitudeDegrees>
              <LongitudeDegrees>-1.76279394887387752532958984375</LongitudeDegrees>
            </Position>
            <AltitudeMeters>792.20001220703125</AltitudeMeters>
            <DistanceMeters>NAN</DistanceMeters>
          </Trackpoint>
          <Trackpoint>
            <Time>2021-08-09T12:29:31.000Z</Time>
            <Position>
              <LatitudeDegrees>43.0612270720303058624267578125</LatitudeDegrees>
              <LongitudeDegrees>-1.7628257162868976593017578125</LongitudeDegrees>
            </Position>
            <AltitudeMeters>792.4000244140625</AltitudeMeters>
            <DistanceMeters>NAN</DistanceMeters>
          </Trackpoint>
          <Trackpoint>
            <Time>2021-08-09T12:29:32.000Z</Time>
            <Position>
              <LatitudeDegrees>43.0612042732536792755126953125</LatitudeDegrees>
              <LongitudeDegrees>-1.76284675486385822296142578125</LongitudeDegrees>
            </Position>
            <AltitudeMeters>792.4000244140625</AltitudeMeters>
            <DistanceMeters>NAN</DistanceMeters>
          </Trackpoint>
          <Trackpoint>
            <Time>2021-08-09T12:29:33.000Z</Time>
            <Position>
              <LatitudeDegrees>43.06119279004633426666259765625</LatitudeDegrees>
              <LongitudeDegrees>-1.762876175343990325927734375</LongitudeDegrees>
            </Position>
            <AltitudeMeters>792.4000244140625</AltitudeMeters>
            <DistanceMeters>NAN</DistanceMeters>
          </Trackpoint>
          <Trackpoint>
            <Time>2021-08-09T12:29:34.000Z</Time>
            <Position>
              <LatitudeDegrees>43.061182983219623565673828125</LatitudeDegrees>
              <LongitudeDegrees>-1.762900650501251220703125</LongitudeDegrees>
            </Position>
            <AltitudeMeters>792.5999755859375</AltitudeMeters>
            <DistanceMeters>NAN</DistanceMeters>
          </Trackpoint>
          <Trackpoint>
            <Time>2021-08-09T12:29:35.000Z</Time>
            <Position>
              <LatitudeDegrees>43.0611719191074371337890625</LatitudeDegrees>
              <LongitudeDegrees>-1.7629341781139373779296875</LongitudeDegrees>
            </Position>
            <AltitudeMeters>792.5999755859375</AltitudeMeters>
            <DistanceMeters>NAN</DistanceMeters>
          </Trackpoint>
          <Trackpoint>
            <Time>2021-08-09T12:29:36.000Z</Time>
            <Position>
              <LatitudeDegrees>43.0611626990139484405517578125</LatitudeDegrees>
              <LongitudeDegrees>-1.7629708908498287200927734375</LongitudeDegrees>
            </Position>
            <AltitudeMeters>792.5999755859375</AltitudeMeters>
            <DistanceMeters>NAN</DistanceMeters>
          </Trackpoint>
          <Trackpoint>
            <Time>2021-08-09T12:29:37.000Z</Time>
            <Position>
              <LatitudeDegrees>43.06115004234015941619873046875</LatitudeDegrees>
              <LongitudeDegrees>-1.763003580272197723388671875</LongitudeDegrees>
            </Position>
            <AltitudeMeters>792.5999755859375</AltitudeMeters>
            <DistanceMeters>NAN</DistanceMeters>
          </Trackpoint>
          <Trackpoint>
            <Time>2021-08-09T12:29:38.000Z</Time>
            <Position>
              <LatitudeDegrees>43.0611358769237995147705078125</LatitudeDegrees>
              <LongitudeDegrees>-1.763036437332630157470703125</LongitudeDegrees>
            </Position>
            <AltitudeMeters>792.79998779296875</AltitudeMeters>
            <DistanceMeters>NAN</DistanceMeters>
          </Trackpoint>
          <Trackpoint>
            <Time>2021-08-09T12:29:39.000Z</Time>
            <Position>
              <LatitudeDegrees>43.0611221306025981903076171875</LatitudeDegrees>
              <LongitudeDegrees>-1.76306988112628459930419921875</LongitudeDegrees>
            </Position>
            <AltitudeMeters>793</AltitudeMeters>
            <DistanceMeters>NAN</DistanceMeters>
          </Trackpoint>
          <Trackpoint>
            <Time>2021-08-09T12:29:40.000Z</Time>
            <Position>
              <LatitudeDegrees>43.0611129105091094970703125</LatitudeDegrees>
              <LongitudeDegrees>-1.76310592330992221832275390625</LongitudeDegrees>
            </Position>
            <AltitudeMeters>793</AltitudeMeters>
            <DistanceMeters>NAN</DistanceMeters>
          </Trackpoint>
          <Trackpoint>
            <Time>2021-08-09T12:29:41.000Z</Time>
            <Position>
              <LatitudeDegrees>43.06110645644366741180419921875</LatitudeDegrees>
              <LongitudeDegrees>-1.76314364187419414520263671875</LongitudeDegrees>
            </Position>
            <AltitudeMeters>793.20001220703125</AltitudeMeters>
            <DistanceMeters>NAN</DistanceMeters>
          </Trackpoint>
          <Trackpoint>
            <Time>2021-08-09T12:29:42.000Z</Time>
            <Position>
              <LatitudeDegrees>43.061102516949176788330078125</LatitudeDegrees>
              <LongitudeDegrees>-1.76318228244781494140625</LongitudeDegrees>
            </Position>
            <AltitudeMeters>793.20001220703125</AltitudeMeters>
            <DistanceMeters>NAN</DistanceMeters>
          </Trackpoint>
          <Trackpoint>
            <Time>2021-08-09T12:29:43.000Z</Time>
            <Position>
              <LatitudeDegrees>43.0610969848930835723876953125</LatitudeDegrees>
              <LongitudeDegrees>-1.76322209648787975311279296875</LongitudeDegrees>
            </Position>
            <AltitudeMeters>793.20001220703125</AltitudeMeters>
            <DistanceMeters>NAN</DistanceMeters>
          </Trackpoint>
          <Trackpoint>
            <Time>2021-08-09T12:29:44.000Z</Time>
            <Position>
              <LatitudeDegrees>43.0610914528369903564453125</LatitudeDegrees>
              <LongitudeDegrees>-1.76326199434697628021240234375</LongitudeDegrees>
            </Position>
            <AltitudeMeters>793.4000244140625</AltitudeMeters>
            <DistanceMeters>NAN</DistanceMeters>
          </Trackpoint>
          <Trackpoint>
            <Time>2021-08-09T12:29:45.000Z</Time>
            <Position>
              <LatitudeDegrees>43.0610892735421657562255859375</LatitudeDegrees>
              <LongitudeDegrees>-1.76330231130123138427734375</LongitudeDegrees>
            </Position>
            <AltitudeMeters>793.5999755859375</AltitudeMeters>
            <DistanceMeters>NAN</DistanceMeters>
          </Trackpoint>
          <Trackpoint>
            <Time>2021-08-09T12:29:46.000Z</Time>
            <Position>
              <LatitudeDegrees>43.06108935736119747161865234375</LatitudeDegrees>
              <LongitudeDegrees>-1.76334447227418422698974609375</LongitudeDegrees>
            </Position>
            <AltitudeMeters>793.79998779296875</AltitudeMeters>
            <DistanceMeters>NAN</DistanceMeters>
          </Trackpoint>
          <Trackpoint>
            <Time>2021-08-09T12:29:47.000Z</Time>
            <Position>
              <LatitudeDegrees>43.06108566932380199432373046875</LatitudeDegrees>
              <LongitudeDegrees>-1.76338168792426586151123046875</LongitudeDegrees>
            </Position>
            <AltitudeMeters>793.79998779296875</AltitudeMeters>
            <DistanceMeters>NAN</DistanceMeters>
          </Trackpoint>
          <Trackpoint>
            <Time>2021-08-09T12:29:48.000Z</Time>
            <Position>
              <LatitudeDegrees>43.0610818974673748016357421875</LatitudeDegrees>
              <LongitudeDegrees>-1.76341831684112548828125</LongitudeDegrees>
            </Position>
            <AltitudeMeters>794</AltitudeMeters>
            <DistanceMeters>NAN</DistanceMeters>
          </Trackpoint>
          <Trackpoint>
            <Time>2021-08-09T12:29:49.000Z</Time>
            <Position>
              <LatitudeDegrees>43.0610792152583599090576171875</LatitudeDegrees>
              <LongitudeDegrees>-1.76345360465347766876220703125</LongitudeDegrees>
            </Position>
            <AltitudeMeters>794</AltitudeMeters>
            <DistanceMeters>NAN</DistanceMeters>
          </Trackpoint>
          <Trackpoint>
            <Time>2021-08-09T12:29:50.000Z</Time>
            <Position>
              <LatitudeDegrees>43.0610775388777256011962890625</LatitudeDegrees>
              <LongitudeDegrees>-1.76348914392292499542236328125</LongitudeDegrees>
            </Position>
            <AltitudeMeters>794</AltitudeMeters>
            <DistanceMeters>NAN</DistanceMeters>
          </Trackpoint>
          <Trackpoint>
            <Time>2021-08-09T12:29:51.000Z</Time>
            <Position>
              <LatitudeDegrees>43.06107544340193271636962890625</LatitudeDegrees>
              <LongitudeDegrees>-1.76352627575397491455078125</LongitudeDegrees>
            </Position>
            <AltitudeMeters>794.20001220703125</AltitudeMeters>
            <DistanceMeters>NAN</DistanceMeters>
          </Trackpoint>
          <Trackpoint>
            <Time>2021-08-09T12:29:52.000Z</Time>
            <Position>
              <LatitudeDegrees>43.06107142008841037750244140625</LatitudeDegrees>
              <LongitudeDegrees>-1.7635603062808513641357421875</LongitudeDegrees>
            </Position>
            <AltitudeMeters>794.4000244140625</AltitudeMeters>
            <DistanceMeters>NAN</DistanceMeters>
          </Trackpoint>
          <Trackpoint>
            <Time>2021-08-09T12:29:53.000Z</Time>
            <Position>
              <LatitudeDegrees>43.061068318784236907958984375</LatitudeDegrees>
              <LongitudeDegrees>-1.7635985277593135833740234375</LongitudeDegrees>
            </Position>
            <AltitudeMeters>794.4000244140625</AltitudeMeters>
            <DistanceMeters>NAN</DistanceMeters>
          </Trackpoint>
          <Trackpoint>
            <Time>2021-08-09T12:29:54.000Z</Time>
            <Position>
              <LatitudeDegrees>43.061065636575222015380859375</LatitudeDegrees>
              <LongitudeDegrees>-1.76363892853260040283203125</LongitudeDegrees>
            </Position>
            <AltitudeMeters>794.4000244140625</AltitudeMeters>
            <DistanceMeters>NAN</DistanceMeters>
          </Trackpoint>
          <Trackpoint>
            <Time>2021-08-09T12:29:55.000Z</Time>
            <Position>
              <LatitudeDegrees>43.06105993688106536865234375</LatitudeDegrees>
              <LongitudeDegrees>-1.7636776529252529144287109375</LongitudeDegrees>
            </Position>
            <AltitudeMeters>794.5999755859375</AltitudeMeters>
            <DistanceMeters>NAN</DistanceMeters>
          </Trackpoint>
          <Trackpoint>
            <Time>2021-08-09T12:29:56.000Z</Time>
            <Position>
              <LatitudeDegrees>43.06105398572981357574462890625</LatitudeDegrees>
              <LongitudeDegrees>-1.763716377317905426025390625</LongitudeDegrees>
            </Position>
            <AltitudeMeters>794.5999755859375</AltitudeMeters>
            <DistanceMeters>NAN</DistanceMeters>
          </Trackpoint>
          <Trackpoint>
            <Time>2021-08-09T12:29:57.000Z</Time>
            <Position>
              <LatitudeDegrees>43.0610490404069423675537109375</LatitudeDegrees>
              <LongitudeDegrees>-1.7637551017105579376220703125</LongitudeDegrees>
            </Position>
            <AltitudeMeters>794.79998779296875</AltitudeMeters>
            <DistanceMeters>NAN</DistanceMeters>
          </Trackpoint>
          <Trackpoint>
            <Time>2021-08-09T12:29:58.000Z</Time>
            <Position>
              <LatitudeDegrees>43.06104426272213459014892578125</LatitudeDegrees>
              <LongitudeDegrees>-1.76379240117967128753662109375</LongitudeDegrees>
            </Position>
            <AltitudeMeters>794.79998779296875</AltitudeMeters>
            <DistanceMeters>NAN</DistanceMeters>
          </Trackpoint>
          <Trackpoint>
            <Time>2021-08-09T12:29:59.000Z</Time>
            <Position>
              <LatitudeDegrees>43.06104023940861225128173828125</LatitudeDegrees>
              <LongitudeDegrees>-1.76383364014327526092529296875</LongitudeDegrees>
            </Position>
            <AltitudeMeters>795.20001220703125</AltitudeMeters>
            <DistanceMeters>NAN</DistanceMeters>
          </Trackpoint>
          <Trackpoint>
            <Time>2021-08-09T12:30:00.000Z</Time>
            <Position>
              <LatitudeDegrees>43.0610366351902484893798828125</LatitudeDegrees>
              <LongitudeDegrees>-1.7638702690601348876953125</LongitudeDegrees>
            </Position>
            <AltitudeMeters>795.20001220703125</AltitudeMeters>
            <DistanceMeters>NAN</DistanceMeters>
          </Trackpoint>
          <Trackpoint>
            <Time>2021-08-09T12:30:01.000Z</Time>
            <Position>
              <LatitudeDegrees>43.0610312707722187042236328125</LatitudeDegrees>
              <LongitudeDegrees>-1.7638999409973621368408203125</LongitudeDegrees>
            </Position>
            <AltitudeMeters>795.4000244140625</AltitudeMeters>
            <DistanceMeters>NAN</DistanceMeters>
          </Trackpoint>
          <Trackpoint>
            <Time>2021-08-09T12:30:02.000Z</Time>
            <Position>
              <LatitudeDegrees>43.0610243976116180419921875</LatitudeDegrees>
              <LongitudeDegrees>-1.763935983180999755859375</LongitudeDegrees>
            </Position>
            <AltitudeMeters>795.5999755859375</AltitudeMeters>
            <DistanceMeters>NAN</DistanceMeters>
          </Trackpoint>
          <Trackpoint>
            <Time>2021-08-09T12:30:03.000Z</Time>
            <Position>
              <LatitudeDegrees>43.06101593188941478729248046875</LatitudeDegrees>
              <LongitudeDegrees>-1.76397177390754222869873046875</LongitudeDegrees>
            </Position>
            <AltitudeMeters>795.5999755859375</AltitudeMeters>
            <DistanceMeters>NAN</DistanceMeters>
          </Trackpoint>
          <Trackpoint>
            <Time>2021-08-09T12:30:04.000Z</Time>
            <Position>
              <LatitudeDegrees>43.06100520305335521697998046875</LatitudeDegrees>
              <LongitudeDegrees>-1.7640089057385921478271484375</LongitudeDegrees>
            </Position>
            <AltitudeMeters>795.79998779296875</AltitudeMeters>
            <DistanceMeters>NAN</DistanceMeters>
          </Trackpoint>
          <Trackpoint>
            <Time>2021-08-09T12:30:05.000Z</Time>
            <Position>
              <LatitudeDegrees>43.0609977431595325469970703125</LatitudeDegrees>
              <LongitudeDegrees>-1.76404419355094432830810546875</LongitudeDegrees>
            </Position>
            <AltitudeMeters>796</AltitudeMeters>
            <DistanceMeters>NAN</DistanceMeters>
          </Trackpoint>
          <Trackpoint>
            <Time>2021-08-09T12:30:06.000Z</Time>
            <Position>
              <LatitudeDegrees>43.06099019944667816162109375</LatitudeDegrees>
              <LongitudeDegrees>-1.764081157743930816650390625</LongitudeDegrees>
            </Position>
            <AltitudeMeters>796.20001220703125</AltitudeMeters>
            <DistanceMeters>NAN</DistanceMeters>
          </Trackpoint>
          <Trackpoint>
            <Time>2021-08-09T12:30:07.000Z</Time>
            <Position>
              <LatitudeDegrees>43.06098005734384059906005859375</LatitudeDegrees>
              <LongitudeDegrees>-1.76411694847047328948974609375</LongitudeDegrees>
            </Position>
            <AltitudeMeters>796.20001220703125</AltitudeMeters>
            <DistanceMeters>NAN</DistanceMeters>
          </Trackpoint>
          <Trackpoint>
            <Time>2021-08-09T12:30:08.000Z</Time>
            <Position>
              <LatitudeDegrees>43.06096614338457584381103515625</LatitudeDegrees>
              <LongitudeDegrees>-1.764151565730571746826171875</LongitudeDegrees>
            </Position>
            <AltitudeMeters>796.5999755859375</AltitudeMeters>
            <DistanceMeters>NAN</DistanceMeters>
          </Trackpoint>
          <Trackpoint>
            <Time>2021-08-09T12:30:09.000Z</Time>
            <Position>
              <LatitudeDegrees>43.0609538219869136810302734375</LatitudeDegrees>
              <LongitudeDegrees>-1.76418635062873363494873046875</LongitudeDegrees>
            </Position>
            <AltitudeMeters>796.79998779296875</AltitudeMeters>
            <DistanceMeters>NAN</DistanceMeters>
          </Trackpoint>
          <Trackpoint>
            <Time>2021-08-09T12:30:10.000Z</Time>
            <Position>
              <LatitudeDegrees>43.06094183586537837982177734375</LatitudeDegrees>
              <LongitudeDegrees>-1.7642164416611194610595703125</LongitudeDegrees>
            </Position>
            <AltitudeMeters>797</AltitudeMeters>
            <DistanceMeters>NAN</DistanceMeters>
          </Trackpoint>
          <Trackpoint>
            <Time>2021-08-09T12:30:11.000Z</Time>
            <Position>
              <LatitudeDegrees>43.06092876009643077850341796875</LatitudeDegrees>
              <LongitudeDegrees>-1.76424913108348846435546875</LongitudeDegrees>
            </Position>
            <AltitudeMeters>797.20001220703125</AltitudeMeters>
            <DistanceMeters>NAN</DistanceMeters>
          </Trackpoint>
          <Trackpoint>
            <Time>2021-08-09T12:30:12.000Z</Time>
            <Position>
              <LatitudeDegrees>43.0609159357845783233642578125</LatitudeDegrees>
              <LongitudeDegrees>-1.7642855085432529449462890625</LongitudeDegrees>
            </Position>
            <AltitudeMeters>797.4000244140625</AltitudeMeters>
            <DistanceMeters>NAN</DistanceMeters>
          </Trackpoint>
          <Trackpoint>
            <Time>2021-08-09T12:30:13.000Z</Time>
            <Position>
              <LatitudeDegrees>43.060900010168552398681640625</LatitudeDegrees>
              <LongitudeDegrees>-1.76431643776595592498779296875</LongitudeDegrees>
            </Position>
            <AltitudeMeters>797.5999755859375</AltitudeMeters>
            <DistanceMeters>NAN</DistanceMeters>
          </Trackpoint>
          <Trackpoint>
            <Time>2021-08-09T12:30:14.000Z</Time>
            <Position>
              <LatitudeDegrees>43.06088031269609928131103515625</LatitudeDegrees>
              <LongitudeDegrees>-1.76434527151286602020263671875</LongitudeDegrees>
            </Position>
            <AltitudeMeters>797.79998779296875</AltitudeMeters>
            <DistanceMeters>NAN</DistanceMeters>
          </Trackpoint>
          <Trackpoint>
            <Time>2021-08-09T12:30:15.000Z</Time>
            <Position>
              <LatitudeDegrees>43.0608622916042804718017578125</LatitudeDegrees>
              <LongitudeDegrees>-1.76437326706945896148681640625</LongitudeDegrees>
            </Position>
            <AltitudeMeters>798.20001220703125</AltitudeMeters>
            <DistanceMeters>NAN</DistanceMeters>
          </Trackpoint>
          <Trackpoint>
            <Time>2021-08-09T12:30:16.000Z</Time>
            <Position>
              <LatitudeDegrees>43.0608418397605419158935546875</LatitudeDegrees>
              <LongitudeDegrees>-1.76439858041703701019287109375</LongitudeDegrees>
            </Position>
            <AltitudeMeters>798.4000244140625</AltitudeMeters>
            <DistanceMeters>NAN</DistanceMeters>
          </Trackpoint>
          <Trackpoint>
            <Time>2021-08-09T12:30:17.000Z</Time>
            <Position>
              <LatitudeDegrees>43.06082189083099365234375</LatitudeDegrees>
              <LongitudeDegrees>-1.76442640833556652069091796875</LongitudeDegrees>
            </Position>
            <AltitudeMeters>798.5999755859375</AltitudeMeters>
            <DistanceMeters>NAN</DistanceMeters>
          </Trackpoint>
          <Trackpoint>
            <Time>2021-08-09T12:30:18.000Z</Time>
            <Position>
              <LatitudeDegrees>43.0608036182820796966552734375</LatitudeDegrees>
              <LongitudeDegrees>-1.76445172168314456939697265625</LongitudeDegrees>
            </Position>
            <AltitudeMeters>798.79998779296875</AltitudeMeters>
            <DistanceMeters>NAN</DistanceMeters>
          </Trackpoint>
          <Trackpoint>
            <Time>2021-08-09T12:30:19.000Z</Time>
            <Position>
              <LatitudeDegrees>43.06078056804835796356201171875</LatitudeDegrees>
              <LongitudeDegrees>-1.76448122598230838775634765625</LongitudeDegrees>
            </Position>
            <AltitudeMeters>799</AltitudeMeters>
            <DistanceMeters>NAN</DistanceMeters>
          </Trackpoint>
          <Trackpoint>
            <Time>2021-08-09T12:30:20.000Z</Time>
            <Position>
              <LatitudeDegrees>43.06075843982398509979248046875</LatitudeDegrees>
              <LongitudeDegrees>-1.76450804807245731353759765625</LongitudeDegrees>
            </Position>
            <AltitudeMeters>799.4000244140625</AltitudeMeters>
            <DistanceMeters>NAN</DistanceMeters>
          </Trackpoint>
          <Trackpoint>
            <Time>2021-08-09T12:30:21.000Z</Time>
            <Position>
              <LatitudeDegrees>43.06073698215186595916748046875</LatitudeDegrees>
              <LongitudeDegrees>-1.76453537307679653167724609375</LongitudeDegrees>
            </Position>
            <AltitudeMeters>799.5999755859375</AltitudeMeters>
            <DistanceMeters>NAN</DistanceMeters>
          </Trackpoint>
          <Trackpoint>
            <Time>2021-08-09T12:30:22.000Z</Time>
            <Position>
              <LatitudeDegrees>43.06071468628942966461181640625</LatitudeDegrees>
              <LongitudeDegrees>-1.76455758512020111083984375</LongitudeDegrees>
            </Position>
            <AltitudeMeters>799.5999755859375</AltitudeMeters>
            <DistanceMeters>NAN</DistanceMeters>
          </Trackpoint>
          <Trackpoint>
            <Time>2021-08-09T12:30:23.000Z</Time>
            <Position>
              <LatitudeDegrees>43.06069104932248592376708984375</LatitudeDegrees>
              <LongitudeDegrees>-1.76458097063004970550537109375</LongitudeDegrees>
            </Position>
            <AltitudeMeters>799.79998779296875</AltitudeMeters>
            <DistanceMeters>NAN</DistanceMeters>
          </Trackpoint>
          <Trackpoint>
            <Time>2021-08-09T12:30:24.000Z</Time>
            <Position>
              <LatitudeDegrees>43.0606674961745738983154296875</LatitudeDegrees>
              <LongitudeDegrees>-1.7646023444831371307373046875</LongitudeDegrees>
            </Position>
            <AltitudeMeters>800</AltitudeMeters>
            <DistanceMeters>NAN</DistanceMeters>
          </Trackpoint>
          <Trackpoint>
            <Time>2021-08-09T12:30:25.000Z</Time>
            <Position>
              <LatitudeDegrees>43.06064276956021785736083984375</LatitudeDegrees>
              <LongitudeDegrees>-1.76462690345942974090576171875</LongitudeDegrees>
            </Position>
            <AltitudeMeters>800.20001220703125</AltitudeMeters>
            <DistanceMeters>NAN</DistanceMeters>
          </Trackpoint>
          <Trackpoint>
            <Time>2021-08-09T12:30:26.000Z</Time>
            <Position>
              <LatitudeDegrees>43.06061913259327411651611328125</LatitudeDegrees>
              <LongitudeDegrees>-1.7646519653499126434326171875</LongitudeDegrees>
            </Position>
            <AltitudeMeters>800.20001220703125</AltitudeMeters>
            <DistanceMeters>NAN</DistanceMeters>
          </Trackpoint>
          <Trackpoint>
            <Time>2021-08-09T12:30:27.000Z</Time>
            <Position>
              <LatitudeDegrees>43.06059801019728183746337890625</LatitudeDegrees>
              <LongitudeDegrees>-1.764676272869110107421875</LongitudeDegrees>
            </Position>
            <AltitudeMeters>800.4000244140625</AltitudeMeters>
            <DistanceMeters>NAN</DistanceMeters>
          </Trackpoint>
          <Trackpoint>
            <Time>2021-08-09T12:30:28.000Z</Time>
            <Position>
              <LatitudeDegrees>43.06057470850646495819091796875</LatitudeDegrees>
              <LongitudeDegrees>-1.7647029273211956024169921875</LongitudeDegrees>
            </Position>
            <AltitudeMeters>800.5999755859375</AltitudeMeters>
            <DistanceMeters>NAN</DistanceMeters>
          </Trackpoint>
          <Trackpoint>
            <Time>2021-08-09T12:30:29.000Z</Time>
            <Position>
              <LatitudeDegrees>43.06055190972983837127685546875</LatitudeDegrees>
              <LongitudeDegrees>-1.76472656428813934326171875</LongitudeDegrees>
            </Position>
            <AltitudeMeters>801</AltitudeMeters>
            <DistanceMeters>NAN</DistanceMeters>
          </Trackpoint>
          <Trackpoint>
            <Time>2021-08-09T12:30:30.000Z</Time>
            <Position>
              <LatitudeDegrees>43.06052860803902149200439453125</LatitudeDegrees>
              <LongitudeDegrees>-1.76475028507411479949951171875</LongitudeDegrees>
            </Position>
            <AltitudeMeters>801.20001220703125</AltitudeMeters>
            <DistanceMeters>NAN</DistanceMeters>
          </Trackpoint>
          <Trackpoint>
            <Time>2021-08-09T12:30:31.000Z</Time>
            <Position>
              <LatitudeDegrees>43.06050849147140979766845703125</LatitudeDegrees>
              <LongitudeDegrees>-1.7647756822407245635986328125</LongitudeDegrees>
            </Position>
            <AltitudeMeters>801.5999755859375</AltitudeMeters>
            <DistanceMeters>NAN</DistanceMeters>
          </Trackpoint>
          <Trackpoint>
            <Time>2021-08-09T12:30:32.000Z</Time>
            <Position>
              <LatitudeDegrees>43.06049005128443241119384765625</LatitudeDegrees>
              <LongitudeDegrees>-1.76480527035892009735107421875</LongitudeDegrees>
            </Position>
            <AltitudeMeters>801.79998779296875</AltitudeMeters>
            <DistanceMeters>NAN</DistanceMeters>
          </Trackpoint>
          <Trackpoint>
            <Time>2021-08-09T12:30:33.000Z</Time>
            <Position>
              <LatitudeDegrees>43.0604718625545501708984375</LatitudeDegrees>
              <LongitudeDegrees>-1.76483117043972015380859375</LongitudeDegrees>
            </Position>
            <AltitudeMeters>801.79998779296875</AltitudeMeters>
            <DistanceMeters>NAN</DistanceMeters>
          </Trackpoint>
          <Trackpoint>
            <Time>2021-08-09T12:30:34.000Z</Time>
            <Position>
              <LatitudeDegrees>43.0604545958340167999267578125</LatitudeDegrees>
              <LongitudeDegrees>-1.76486335694789886474609375</LongitudeDegrees>
            </Position>
            <AltitudeMeters>802</AltitudeMeters>
            <DistanceMeters>NAN</DistanceMeters>
          </Trackpoint>
          <Trackpoint>
            <Time>2021-08-09T12:30:35.000Z</Time>
            <Position>
              <LatitudeDegrees>43.0604369938373565673828125</LatitudeDegrees>
              <LongitudeDegrees>-1.76489763893187046051025390625</LongitudeDegrees>
            </Position>
            <AltitudeMeters>802.20001220703125</AltitudeMeters>
            <DistanceMeters>NAN</DistanceMeters>
          </Trackpoint>
          <Trackpoint>
            <Time>2021-08-09T12:30:36.000Z</Time>
            <Position>
              <LatitudeDegrees>43.06042433716356754302978515625</LatitudeDegrees>
              <LongitudeDegrees>-1.7649396322667598724365234375</LongitudeDegrees>
            </Position>
            <AltitudeMeters>802.5999755859375</AltitudeMeters>
            <DistanceMeters>NAN</DistanceMeters>
          </Trackpoint>
          <Trackpoint>
            <Time>2021-08-09T12:30:37.000Z</Time>
            <Position>
              <LatitudeDegrees>43.06041327305138111114501953125</LatitudeDegrees>
              <LongitudeDegrees>-1.76497911103069782257080078125</LongitudeDegrees>
            </Position>
            <AltitudeMeters>802.79998779296875</AltitudeMeters>
            <DistanceMeters>NAN</DistanceMeters>
          </Trackpoint>
          <Trackpoint>
            <Time>2021-08-09T12:30:38.000Z</Time>
            <Position>
              <LatitudeDegrees>43.06040405295789241790771484375</LatitudeDegrees>
              <LongitudeDegrees>-1.76501750014722347259521484375</LongitudeDegrees>
            </Position>
            <AltitudeMeters>803</AltitudeMeters>
            <DistanceMeters>NAN</DistanceMeters>
          </Trackpoint>
          <Trackpoint>
            <Time>2021-08-09T12:30:39.000Z</Time>
            <Position>
              <LatitudeDegrees>43.0603967607021331787109375</LatitudeDegrees>
              <LongitudeDegrees>-1.7650542967021465301513671875</LongitudeDegrees>
            </Position>
            <AltitudeMeters>803.20001220703125</AltitudeMeters>
            <DistanceMeters>NAN</DistanceMeters>
          </Trackpoint>
          <Trackpoint>
            <Time>2021-08-09T12:30:40.000Z</Time>
            <Position>
              <LatitudeDegrees>43.060389049351215362548828125</LatitudeDegrees>
              <LongitudeDegrees>-1.76509268581867218017578125</LongitudeDegrees>
            </Position>
            <AltitudeMeters>803.4000244140625</AltitudeMeters>
            <DistanceMeters>NAN</DistanceMeters>
          </Trackpoint>
          <Trackpoint>
            <Time>2021-08-09T12:30:41.000Z</Time>
            <Position>
              <LatitudeDegrees>43.0603872053325176239013671875</LatitudeDegrees>
              <LongitudeDegrees>-1.7651293985545635223388671875</LongitudeDegrees>
            </Position>
            <AltitudeMeters>803.5999755859375</AltitudeMeters>
            <DistanceMeters>NAN</DistanceMeters>
          </Trackpoint>
          <Trackpoint>
            <Time>2021-08-09T12:30:42.000Z</Time>
            <Position>
              <LatitudeDegrees>43.06038578040897846221923828125</LatitudeDegrees>
              <LongitudeDegrees>-1.7651676200330257415771484375</LongitudeDegrees>
            </Position>
            <AltitudeMeters>803.79998779296875</AltitudeMeters>
            <DistanceMeters>NAN</DistanceMeters>
          </Trackpoint>
          <Trackpoint>
            <Time>2021-08-09T12:30:43.000Z</Time>
            <Position>
              <LatitudeDegrees>43.06038494221866130828857421875</LatitudeDegrees>
              <LongitudeDegrees>-1.765205673873424530029296875</LongitudeDegrees>
            </Position>
            <AltitudeMeters>804.20001220703125</AltitudeMeters>
            <DistanceMeters>NAN</DistanceMeters>
          </Trackpoint>
          <Trackpoint>
            <Time>2021-08-09T12:30:44.000Z</Time>
            <Position>
              <LatitudeDegrees>43.06038494221866130828857421875</LatitudeDegrees>
              <LongitudeDegrees>-1.7652447335422039031982421875</LongitudeDegrees>
            </Position>
            <AltitudeMeters>804.20001220703125</AltitudeMeters>
            <DistanceMeters>NAN</DistanceMeters>
          </Trackpoint>
          <Trackpoint>
            <Time>2021-08-09T12:30:45.000Z</Time>
            <Position>
              <LatitudeDegrees>43.06038536131381988525390625</LatitudeDegrees>
              <LongitudeDegrees>-1.76528588868677616119384765625</LongitudeDegrees>
            </Position>
            <AltitudeMeters>804.4000244140625</AltitudeMeters>
            <DistanceMeters>NAN</DistanceMeters>
          </Trackpoint>
          <Trackpoint>
            <Time>2021-08-09T12:30:46.000Z</Time>
            <Position>
              <LatitudeDegrees>43.06038829497992992401123046875</LatitudeDegrees>
              <LongitudeDegrees>-1.76532779820263385772705078125</LongitudeDegrees>
            </Position>
            <AltitudeMeters>804.5999755859375</AltitudeMeters>
            <DistanceMeters>NAN</DistanceMeters>
          </Trackpoint>
          <Trackpoint>
            <Time>2021-08-09T12:30:47.000Z</Time>
            <Position>
              <LatitudeDegrees>43.060392402112483978271484375</LatitudeDegrees>
              <LongitudeDegrees>-1.7653701268136501312255859375</LongitudeDegrees>
            </Position>
            <AltitudeMeters>804.5999755859375</AltitudeMeters>
            <DistanceMeters>NAN</DistanceMeters>
          </Trackpoint>
          <Trackpoint>
            <Time>2021-08-09T12:30:48.000Z</Time>
            <Position>
              <LatitudeDegrees>43.060395419597625732421875</LatitudeDegrees>
              <LongitudeDegrees>-1.76540943793952465057373046875</LongitudeDegrees>
            </Position>
            <AltitudeMeters>804.79998779296875</AltitudeMeters>
            <DistanceMeters>NAN</DistanceMeters>
          </Trackpoint>
          <Trackpoint>
            <Time>2021-08-09T12:30:49.000Z</Time>
            <Position>
              <LatitudeDegrees>43.0604006163775920867919921875</LatitudeDegrees>
              <LongitudeDegrees>-1.7654500901699066162109375</LongitudeDegrees>
            </Position>
            <AltitudeMeters>804.79998779296875</AltitudeMeters>
            <DistanceMeters>NAN</DistanceMeters>
          </Trackpoint>
          <Trackpoint>
            <Time>2021-08-09T12:30:50.000Z</Time>
            <Position>
              <LatitudeDegrees>43.0604059807956218719482421875</LatitudeDegrees>
              <LongitudeDegrees>-1.7654868029057979583740234375</LongitudeDegrees>
            </Position>
            <AltitudeMeters>805</AltitudeMeters>
            <DistanceMeters>NAN</DistanceMeters>
          </Trackpoint>
          <Trackpoint>
            <Time>2021-08-09T12:30:51.000Z</Time>
            <Position>
              <LatitudeDegrees>43.06041092611849308013916015625</LatitudeDegrees>
              <LongitudeDegrees>-1.76552477292716503143310546875</LongitudeDegrees>
            </Position>
            <AltitudeMeters>805</AltitudeMeters>
            <DistanceMeters>NAN</DistanceMeters>
          </Trackpoint>
          <Trackpoint>
            <Time>2021-08-09T12:30:52.000Z</Time>
            <Position>
              <LatitudeDegrees>43.06041620671749114990234375</LatitudeDegrees>
              <LongitudeDegrees>-1.7655629105865955352783203125</LongitudeDegrees>
            </Position>
            <AltitudeMeters>805.20001220703125</AltitudeMeters>
            <DistanceMeters>NAN</DistanceMeters>
          </Trackpoint>
          <Trackpoint>
            <Time>2021-08-09T12:30:53.000Z</Time>
            <Position>
              <LatitudeDegrees>43.060422576963901519775390625</LatitudeDegrees>
              <LongitudeDegrees>-1.76560037769377231597900390625</LongitudeDegrees>
            </Position>
            <AltitudeMeters>805.4000244140625</AltitudeMeters>
            <DistanceMeters>NAN</DistanceMeters>
          </Trackpoint>
          <Trackpoint>
            <Time>2021-08-09T12:30:54.000Z</Time>
            <Position>
              <LatitudeDegrees>43.0604274384677410125732421875</LatitudeDegrees>
              <LongitudeDegrees>-1.76563809625804424285888671875</LongitudeDegrees>
            </Position>
            <AltitudeMeters>805.5999755859375</AltitudeMeters>
            <DistanceMeters>NAN</DistanceMeters>
          </Trackpoint>
          <Trackpoint>
            <Time>2021-08-09T12:30:55.000Z</Time>
            <Position>
              <LatitudeDegrees>43.06043104268610477447509765625</LatitudeDegrees>
              <LongitudeDegrees>-1.76567782647907733917236328125</LongitudeDegrees>
            </Position>
            <AltitudeMeters>805.79998779296875</AltitudeMeters>
            <DistanceMeters>NAN</DistanceMeters>
          </Trackpoint>
          <Trackpoint>
            <Time>2021-08-09T12:30:56.000Z</Time>
            <Position>
              <LatitudeDegrees>43.06043422780930995941162109375</LatitudeDegrees>
              <LongitudeDegrees>-1.765717305243015289306640625</LongitudeDegrees>
            </Position>
            <AltitudeMeters>806</AltitudeMeters>
            <DistanceMeters>NAN</DistanceMeters>
          </Trackpoint>
          <Trackpoint>
            <Time>2021-08-09T12:30:57.000Z</Time>
            <Position>
              <LatitudeDegrees>43.06043858639895915985107421875</LatitudeDegrees>
              <LongitudeDegrees>-1.76575787365436553955078125</LongitudeDegrees>
            </Position>
            <AltitudeMeters>806.4000244140625</AltitudeMeters>
            <DistanceMeters>NAN</DistanceMeters>
          </Trackpoint>
          <Trackpoint>
            <Time>2021-08-09T12:30:58.000Z</Time>
            <Position>
              <LatitudeDegrees>43.06044160388410091400146484375</LatitudeDegrees>
              <LongitudeDegrees>-1.765797771513462066650390625</LongitudeDegrees>
            </Position>
            <AltitudeMeters>806.20001220703125</AltitudeMeters>
            <DistanceMeters>NAN</DistanceMeters>
          </Trackpoint>
          <Trackpoint>
            <Time>2021-08-09T12:30:59.000Z</Time>
            <Position>
              <LatitudeDegrees>43.060445375740528106689453125</LatitudeDegrees>
              <LongitudeDegrees>-1.76583758555352687835693359375</LongitudeDegrees>
            </Position>
            <AltitudeMeters>806.4000244140625</AltitudeMeters>
            <DistanceMeters>NAN</DistanceMeters>
          </Trackpoint>
          <Trackpoint>
            <Time>2021-08-09T12:31:00.000Z</Time>
            <Position>
              <LatitudeDegrees>43.06044747121632099151611328125</LatitudeDegrees>
              <LongitudeDegrees>-1.765877567231655120849609375</LongitudeDegrees>
            </Position>
            <AltitudeMeters>806.5999755859375</AltitudeMeters>
            <DistanceMeters>NAN</DistanceMeters>
          </Trackpoint>
          <Trackpoint>
            <Time>2021-08-09T12:31:01.000Z</Time>
            <Position>
              <LatitudeDegrees>43.06044629774987697601318359375</LatitudeDegrees>
              <LongitudeDegrees>-1.76591352559626102447509765625</LongitudeDegrees>
            </Position>
            <AltitudeMeters>806.79998779296875</AltitudeMeters>
            <DistanceMeters>NAN</DistanceMeters>
          </Trackpoint>
          <Trackpoint>
            <Time>2021-08-09T12:31:02.000Z</Time>
            <Position>
              <LatitudeDegrees>43.06044193916022777557373046875</LatitudeDegrees>
              <LongitudeDegrees>-1.7659447900950908660888671875</LongitudeDegrees>
            </Position>
            <AltitudeMeters>807.20001220703125</AltitudeMeters>
            <DistanceMeters>NAN</DistanceMeters>
          </Trackpoint>
          <Trackpoint>
            <Time>2021-08-09T12:31:03.000Z</Time>
            <Position>
              <LatitudeDegrees>43.0604338087141513824462890625</LatitudeDegrees>
              <LongitudeDegrees>-1.76598108373582363128662109375</LongitudeDegrees>
            </Position>
            <AltitudeMeters>807.4000244140625</AltitudeMeters>
            <DistanceMeters>NAN</DistanceMeters>
          </Trackpoint>
          <Trackpoint>
            <Time>2021-08-09T12:31:04.000Z</Time>
            <Position>
              <LatitudeDegrees>43.06042634882032871246337890625</LatitudeDegrees>
              <LongitudeDegrees>-1.76601813174784183502197265625</LongitudeDegrees>
            </Position>
            <AltitudeMeters>807.4000244140625</AltitudeMeters>
            <DistanceMeters>NAN</DistanceMeters>
          </Trackpoint>
          <Trackpoint>
            <Time>2021-08-09T12:31:05.000Z</Time>
            <Position>
              <LatitudeDegrees>43.06042148731648921966552734375</LatitudeDegrees>
              <LongitudeDegrees>-1.766055934131145477294921875</LongitudeDegrees>
            </Position>
            <AltitudeMeters>807.5999755859375</AltitudeMeters>
            <DistanceMeters>NAN</DistanceMeters>
          </Trackpoint>
          <Trackpoint>
            <Time>2021-08-09T12:31:06.000Z</Time>
            <Position>
              <LatitudeDegrees>43.0604183860123157501220703125</LatitudeDegrees>
              <LongitudeDegrees>-1.7660963349044322967529296875</LongitudeDegrees>
            </Position>
            <AltitudeMeters>807.79998779296875</AltitudeMeters>
            <DistanceMeters>NAN</DistanceMeters>
          </Trackpoint>
          <Trackpoint>
            <Time>2021-08-09T12:31:07.000Z</Time>
            <Position>
              <LatitudeDegrees>43.06041478179395198822021484375</LatitudeDegrees>
              <LongitudeDegrees>-1.76613698713481426239013671875</LongitudeDegrees>
            </Position>
            <AltitudeMeters>807.79998779296875</AltitudeMeters>
            <DistanceMeters>NAN</DistanceMeters>
          </Trackpoint>
          <Trackpoint>
            <Time>2021-08-09T12:31:08.000Z</Time>
            <Position>
              <LatitudeDegrees>43.06041176430881023406982421875</LatitudeDegrees>
              <LongitudeDegrees>-1.76617738790810108184814453125</LongitudeDegrees>
            </Position>
            <AltitudeMeters>808</AltitudeMeters>
            <DistanceMeters>NAN</DistanceMeters>
          </Trackpoint>
          <Trackpoint>
            <Time>2021-08-09T12:31:09.000Z</Time>
            <Position>
              <LatitudeDegrees>43.0604086630046367645263671875</LatitudeDegrees>
              <LongitudeDegrees>-1.76621443592011928558349609375</LongitudeDegrees>
            </Position>
            <AltitudeMeters>808.20001220703125</AltitudeMeters>
            <DistanceMeters>NAN</DistanceMeters>
          </Trackpoint>
          <Trackpoint>
            <Time>2021-08-09T12:31:10.000Z</Time>
            <Position>
              <LatitudeDegrees>43.06040371768176555633544921875</LatitudeDegrees>
              <LongitudeDegrees>-1.76625483669340610504150390625</LongitudeDegrees>
            </Position>
            <AltitudeMeters>808.4000244140625</AltitudeMeters>
            <DistanceMeters>NAN</DistanceMeters>
          </Trackpoint>
          <Trackpoint>
            <Time>2021-08-09T12:31:11.000Z</Time>
            <Position>
              <LatitudeDegrees>43.06039952673017978668212890625</LatitudeDegrees>
              <LongitudeDegrees>-1.76629523746669292449951171875</LongitudeDegrees>
            </Position>
            <AltitudeMeters>808.5999755859375</AltitudeMeters>
            <DistanceMeters>NAN</DistanceMeters>
          </Trackpoint>
          <Trackpoint>
            <Time>2021-08-09T12:31:12.000Z</Time>
            <Position>
              <LatitudeDegrees>43.06039215065538883209228515625</LatitudeDegrees>
              <LongitudeDegrees>-1.766338907182216644287109375</LongitudeDegrees>
            </Position>
            <AltitudeMeters>808.5999755859375</AltitudeMeters>
            <DistanceMeters>NAN</DistanceMeters>
          </Trackpoint>
          <Trackpoint>
            <Time>2021-08-09T12:31:13.000Z</Time>
            <Position>
              <LatitudeDegrees>43.06038863025605678558349609375</LatitudeDegrees>
              <LongitudeDegrees>-1.76637620665132999420166015625</LongitudeDegrees>
            </Position>
            <AltitudeMeters>809</AltitudeMeters>
            <DistanceMeters>NAN</DistanceMeters>
          </Trackpoint>
          <Trackpoint>
            <Time>2021-08-09T12:31:14.000Z</Time>
            <Position>
              <LatitudeDegrees>43.06038728915154933929443359375</LatitudeDegrees>
              <LongitudeDegrees>-1.766414679586887359619140625</LongitudeDegrees>
            </Position>
            <AltitudeMeters>809</AltitudeMeters>
            <DistanceMeters>NAN</DistanceMeters>
          </Trackpoint>
          <Trackpoint>
            <Time>2021-08-09T12:31:15.000Z</Time>
            <Position>
              <LatitudeDegrees>43.0603878758847713470458984375</LatitudeDegrees>
              <LongitudeDegrees>-1.76645600236952304840087890625</LongitudeDegrees>
            </Position>
            <AltitudeMeters>809.20001220703125</AltitudeMeters>
            <DistanceMeters>NAN</DistanceMeters>
          </Trackpoint>
          <Trackpoint>
            <Time>2021-08-09T12:31:16.000Z</Time>
            <Position>
              <LatitudeDegrees>43.06038779206573963165283203125</LatitudeDegrees>
              <LongitudeDegrees>-1.76649690605700016021728515625</LongitudeDegrees>
            </Position>
            <AltitudeMeters>809.4000244140625</AltitudeMeters>
            <DistanceMeters>NAN</DistanceMeters>
          </Trackpoint>
          <Trackpoint>
            <Time>2021-08-09T12:31:17.000Z</Time>
            <Position>
              <LatitudeDegrees>43.06038678623735904693603515625</LatitudeDegrees>
              <LongitudeDegrees>-1.76653713919222354888916015625</LongitudeDegrees>
            </Position>
            <AltitudeMeters>809.4000244140625</AltitudeMeters>
            <DistanceMeters>NAN</DistanceMeters>
          </Trackpoint>
          <Trackpoint>
            <Time>2021-08-09T12:31:18.000Z</Time>
            <Position>
              <LatitudeDegrees>43.0603838525712490081787109375</LatitudeDegrees>
              <LongitudeDegrees>-1.7665791325271129608154296875</LongitudeDegrees>
            </Position>
            <AltitudeMeters>809.79998779296875</AltitudeMeters>
            <DistanceMeters>NAN</DistanceMeters>
          </Trackpoint>
          <Trackpoint>
            <Time>2021-08-09T12:31:19.000Z</Time>
            <Position>
              <LatitudeDegrees>43.06037806905806064605712890625</LatitudeDegrees>
              <LongitudeDegrees>-1.7666207067668437957763671875</LongitudeDegrees>
            </Position>
            <AltitudeMeters>809.79998779296875</AltitudeMeters>
            <DistanceMeters>NAN</DistanceMeters>
          </Trackpoint>
          <Trackpoint>
            <Time>2021-08-09T12:31:20.000Z</Time>
            <Position>
              <LatitudeDegrees>43.06037329137325286865234375</LatitudeDegrees>
              <LongitudeDegrees>-1.76666387356817722320556640625</LongitudeDegrees>
            </Position>
            <AltitudeMeters>810.20001220703125</AltitudeMeters>
            <DistanceMeters>NAN</DistanceMeters>
          </Trackpoint>
          <Trackpoint>
            <Time>2021-08-09T12:31:21.000Z</Time>
            <Position>
              <LatitudeDegrees>43.0603694356977939605712890625</LatitudeDegrees>
              <LongitudeDegrees>-1.7667025141417980194091796875</LongitudeDegrees>
            </Position>
            <AltitudeMeters>810.20001220703125</AltitudeMeters>
            <DistanceMeters>NAN</DistanceMeters>
          </Trackpoint>
          <Trackpoint>
            <Time>2021-08-09T12:31:22.000Z</Time>
            <Position>
              <LatitudeDegrees>43.0603677593171596527099609375</LatitudeDegrees>
              <LongitudeDegrees>-1.76674132235348224639892578125</LongitudeDegrees>
            </Position>
            <AltitudeMeters>810.4000244140625</AltitudeMeters>
            <DistanceMeters>NAN</DistanceMeters>
          </Trackpoint>
          <Trackpoint>
            <Time>2021-08-09T12:31:23.000Z</Time>
            <Position>
              <LatitudeDegrees>43.06036348454654216766357421875</LatitudeDegrees>
              <LongitudeDegrees>-1.766785494983196258544921875</LongitudeDegrees>
            </Position>
            <AltitudeMeters>810.5999755859375</AltitudeMeters>
            <DistanceMeters>NAN</DistanceMeters>
          </Trackpoint>
          <Trackpoint>
            <Time>2021-08-09T12:31:24.000Z</Time>
            <Position>
              <LatitudeDegrees>43.06035879068076610565185546875</LatitudeDegrees>
              <LongitudeDegrees>-1.766821704804897308349609375</LongitudeDegrees>
            </Position>
            <AltitudeMeters>810.79998779296875</AltitudeMeters>
            <DistanceMeters>NAN</DistanceMeters>
          </Trackpoint>
          <Trackpoint>
            <Time>2021-08-09T12:31:25.000Z</Time>
            <Position>
              <LatitudeDegrees>43.060354180634021759033203125</LatitudeDegrees>
              <LongitudeDegrees>-1.7668590880930423736572265625</LongitudeDegrees>
            </Position>
            <AltitudeMeters>811</AltitudeMeters>
            <DistanceMeters>NAN</DistanceMeters>
          </Trackpoint>
          <Trackpoint>
            <Time>2021-08-09T12:31:26.000Z</Time>
            <Position>
              <LatitudeDegrees>43.06035040877759456634521484375</LatitudeDegrees>
              <LongitudeDegrees>-1.7668956331908702850341796875</LongitudeDegrees>
            </Position>
            <AltitudeMeters>811.20001220703125</AltitudeMeters>
            <DistanceMeters>NAN</DistanceMeters>
          </Trackpoint>
          <Trackpoint>
            <Time>2021-08-09T12:31:27.000Z</Time>
            <Position>
              <LatitudeDegrees>43.06034554727375507354736328125</LatitudeDegrees>
              <LongitudeDegrees>-1.76693226210772991180419921875</LongitudeDegrees>
            </Position>
            <AltitudeMeters>811.4000244140625</AltitudeMeters>
            <DistanceMeters>NAN</DistanceMeters>
          </Trackpoint>
          <Trackpoint>
            <Time>2021-08-09T12:31:28.000Z</Time>
            <Position>
              <LatitudeDegrees>43.06033833883702754974365234375</LatitudeDegrees>
              <LongitudeDegrees>-1.766973920166492462158203125</LongitudeDegrees>
            </Position>
            <AltitudeMeters>811.4000244140625</AltitudeMeters>
            <DistanceMeters>NAN</DistanceMeters>
          </Trackpoint>
          <Trackpoint>
            <Time>2021-08-09T12:31:29.000Z</Time>
            <Position>
              <LatitudeDegrees>43.06032811291515827178955078125</LatitudeDegrees>
              <LongitudeDegrees>-1.76701440475881099700927734375</LongitudeDegrees>
            </Position>
            <AltitudeMeters>811.79998779296875</AltitudeMeters>
            <DistanceMeters>NAN</DistanceMeters>
          </Trackpoint>
          <Trackpoint>
            <Time>2021-08-09T12:31:30.000Z</Time>
            <Position>
              <LatitudeDegrees>43.0603161267936229705810546875</LatitudeDegrees>
              <LongitudeDegrees>-1.76705312915146350860595703125</LongitudeDegrees>
            </Position>
            <AltitudeMeters>812</AltitudeMeters>
            <DistanceMeters>NAN</DistanceMeters>
          </Trackpoint>
          <Trackpoint>
            <Time>2021-08-09T12:31:31.000Z</Time>
            <Position>
              <LatitudeDegrees>43.06030489504337310791015625</LatitudeDegrees>
              <LongitudeDegrees>-1.7670917697250843048095703125</LongitudeDegrees>
            </Position>
            <AltitudeMeters>812.20001220703125</AltitudeMeters>
            <DistanceMeters>NAN</DistanceMeters>
          </Trackpoint>
          <Trackpoint>
            <Time>2021-08-09T12:31:32.000Z</Time>
            <Position>
              <LatitudeDegrees>43.0602903105318546295166015625</LatitudeDegrees>
              <LongitudeDegrees>-1.76712722517549991607666015625</LongitudeDegrees>
            </Position>
            <AltitudeMeters>812.5999755859375</AltitudeMeters>
            <DistanceMeters>NAN</DistanceMeters>
          </Trackpoint>
          <Trackpoint>
            <Time>2021-08-09T12:31:33.000Z</Time>
            <Position>
              <LatitudeDegrees>43.060274384915828704833984375</LatitudeDegrees>
              <LongitudeDegrees>-1.76715756766498088836669921875</LongitudeDegrees>
            </Position>
            <AltitudeMeters>812.79998779296875</AltitudeMeters>
            <DistanceMeters>NAN</DistanceMeters>
          </Trackpoint>
          <Trackpoint>
            <Time>2021-08-09T12:31:34.000Z</Time>
            <Position>
              <LatitudeDegrees>43.06025837548077106475830078125</LatitudeDegrees>
              <LongitudeDegrees>-1.76719126291573047637939453125</LongitudeDegrees>
            </Position>
            <AltitudeMeters>813</AltitudeMeters>
            <DistanceMeters>NAN</DistanceMeters>
          </Trackpoint>
          <Trackpoint>
            <Time>2021-08-09T12:31:35.000Z</Time>
            <Position>
              <LatitudeDegrees>43.060241527855396270751953125</LatitudeDegrees>
              <LongitudeDegrees>-1.7672332562506198883056640625</LongitudeDegrees>
            </Position>
            <AltitudeMeters>813.20001220703125</AltitudeMeters>
            <DistanceMeters>NAN</DistanceMeters>
          </Trackpoint>
          <Trackpoint>
            <Time>2021-08-09T12:31:36.000Z</Time>
            <Position>
              <LatitudeDegrees>43.06022308766841888427734375</LatitudeDegrees>
              <LongitudeDegrees>-1.767266951501369476318359375</LongitudeDegrees>
            </Position>
            <AltitudeMeters>813.4000244140625</AltitudeMeters>
            <DistanceMeters>NAN</DistanceMeters>
          </Trackpoint>
          <Trackpoint>
            <Time>2021-08-09T12:31:37.000Z</Time>
            <Position>
              <LatitudeDegrees>43.06020473130047321319580078125</LatitudeDegrees>
              <LongitudeDegrees>-1.767296455800533294677734375</LongitudeDegrees>
            </Position>
            <AltitudeMeters>813.4000244140625</AltitudeMeters>
            <DistanceMeters>NAN</DistanceMeters>
          </Trackpoint>
          <Trackpoint>
            <Time>2021-08-09T12:31:38.000Z</Time>
            <Position>
              <LatitudeDegrees>43.06018947623670101165771484375</LatitudeDegrees>
              <LongitudeDegrees>-1.767330653965473175048828125</LongitudeDegrees>
            </Position>
            <AltitudeMeters>813.79998779296875</AltitudeMeters>
            <DistanceMeters>NAN</DistanceMeters>
          </Trackpoint>
          <Trackpoint>
            <Time>2021-08-09T12:31:39.000Z</Time>
            <Position>
              <LatitudeDegrees>43.0601776577532291412353515625</LatitudeDegrees>
              <LongitudeDegrees>-1.76736451685428619384765625</LongitudeDegrees>
            </Position>
            <AltitudeMeters>814.20001220703125</AltitudeMeters>
            <DistanceMeters>NAN</DistanceMeters>
          </Trackpoint>
          <Trackpoint>
            <Time>2021-08-09T12:31:40.000Z</Time>
            <Position>
              <LatitudeDegrees>43.0601689405739307403564453125</LatitudeDegrees>
              <LongitudeDegrees>-1.7673973739147186279296875</LongitudeDegrees>
            </Position>
            <AltitudeMeters>814.4000244140625</AltitudeMeters>
            <DistanceMeters>NAN</DistanceMeters>
          </Trackpoint>
          <Trackpoint>
            <Time>2021-08-09T12:31:41.000Z</Time>
            <Position>
              <LatitudeDegrees>43.0601649172604084014892578125</LatitudeDegrees>
              <LongitudeDegrees>-1.7674330808222293853759765625</LongitudeDegrees>
            </Position>
            <AltitudeMeters>814.79998779296875</AltitudeMeters>
            <DistanceMeters>NAN</DistanceMeters>
          </Trackpoint>
          <Trackpoint>
            <Time>2021-08-09T12:31:42.000Z</Time>
            <Position>
              <LatitudeDegrees>43.0601649172604084014892578125</LatitudeDegrees>
              <LongitudeDegrees>-1.7674330808222293853759765625</LongitudeDegrees>
            </Position>
            <AltitudeMeters>814.79998779296875</AltitudeMeters>
            <DistanceMeters>NAN</DistanceMeters>
          </Trackpoint>
          <Trackpoint>
            <Time>2021-08-09T12:31:43.000Z</Time>
            <Position>
              <LatitudeDegrees>43.06016885675489902496337890625</LatitudeDegrees>
              <LongitudeDegrees>-1.76751513965427875518798828125</LongitudeDegrees>
            </Position>
            <AltitudeMeters>815.20001220703125</AltitudeMeters>
            <DistanceMeters>NAN</DistanceMeters>
          </Trackpoint>
          <Trackpoint>
            <Time>2021-08-09T12:31:44.000Z</Time>
            <Position>
              <LatitudeDegrees>43.0601783283054828643798828125</LatitudeDegrees>
              <LongitudeDegrees>-1.7675544507801532745361328125</LongitudeDegrees>
            </Position>
            <AltitudeMeters>815.4000244140625</AltitudeMeters>
            <DistanceMeters>NAN</DistanceMeters>
          </Trackpoint>
          <Trackpoint>
            <Time>2021-08-09T12:31:45.000Z</Time>
            <Position>
              <LatitudeDegrees>43.06018888950347900390625</LatitudeDegrees>
              <LongitudeDegrees>-1.76759141497313976287841796875</LongitudeDegrees>
            </Position>
            <AltitudeMeters>815.79998779296875</AltitudeMeters>
            <DistanceMeters>NAN</DistanceMeters>
          </Trackpoint>
          <Trackpoint>
            <Time>2021-08-09T12:31:46.000Z</Time>
            <Position>
              <LatitudeDegrees>43.06020137853920459747314453125</LatitudeDegrees>
              <LongitudeDegrees>-1.76762158982455730438232421875</LongitudeDegrees>
            </Position>
            <AltitudeMeters>816</AltitudeMeters>
            <DistanceMeters>NAN</DistanceMeters>
          </Trackpoint>
          <Trackpoint>
            <Time>2021-08-09T12:31:47.000Z</Time>
            <Position>
              <LatitudeDegrees>43.06021512486040592193603515625</LatitudeDegrees>
              <LongitudeDegrees>-1.7676429636776447296142578125</LongitudeDegrees>
            </Position>
            <AltitudeMeters>816</AltitudeMeters>
            <DistanceMeters>NAN</DistanceMeters>
          </Trackpoint>
          <Trackpoint>
            <Time>2021-08-09T12:31:48.000Z</Time>
            <Position>
              <LatitudeDegrees>43.06021512486040592193603515625</LatitudeDegrees>
              <LongitudeDegrees>-1.7676429636776447296142578125</LongitudeDegrees>
            </Position>
            <AltitudeMeters>816.4000244140625</AltitudeMeters>
            <DistanceMeters>NAN</DistanceMeters>
          </Trackpoint>
          <Trackpoint>
            <Time>2021-08-09T12:31:49.000Z</Time>
            <Position>
              <LatitudeDegrees>43.0602380074560642242431640625</LatitudeDegrees>
              <LongitudeDegrees>-1.76767271943390369415283203125</LongitudeDegrees>
            </Position>
            <AltitudeMeters>816.5999755859375</AltitudeMeters>
            <DistanceMeters>NAN</DistanceMeters>
          </Trackpoint>
          <Trackpoint>
            <Time>2021-08-09T12:31:50.000Z</Time>
            <Position>
              <LatitudeDegrees>43.0602500773966312408447265625</LatitudeDegrees>
              <LongitudeDegrees>-1.76768596284091472625732421875</LongitudeDegrees>
            </Position>
            <AltitudeMeters>816.79998779296875</AltitudeMeters>
            <DistanceMeters>NAN</DistanceMeters>
          </Trackpoint>
          <Trackpoint>
            <Time>2021-08-09T12:31:51.000Z</Time>
            <Position>
              <LatitudeDegrees>43.06025938130915164947509765625</LatitudeDegrees>
              <LongitudeDegrees>-1.7676950991153717041015625</LongitudeDegrees>
            </Position>
            <AltitudeMeters>817</AltitudeMeters>
            <DistanceMeters>NAN</DistanceMeters>
          </Trackpoint>
          <Trackpoint>
            <Time>2021-08-09T12:31:52.000Z</Time>
            <Position>
              <LatitudeDegrees>43.06026994250714778900146484375</LatitudeDegrees>
              <LongitudeDegrees>-1.76769920624792575836181640625</LongitudeDegrees>
            </Position>
            <AltitudeMeters>817.20001220703125</AltitudeMeters>
            <DistanceMeters>NAN</DistanceMeters>
          </Trackpoint>
          <Trackpoint>
            <Time>2021-08-09T12:31:53.000Z</Time>
            <Position>
              <LatitudeDegrees>43.06028134189546108245849609375</LatitudeDegrees>
              <LongitudeDegrees>-1.7677033133804798126220703125</LongitudeDegrees>
            </Position>
            <AltitudeMeters>817.20001220703125</AltitudeMeters>
            <DistanceMeters>NAN</DistanceMeters>
          </Trackpoint>
          <Trackpoint>
            <Time>2021-08-09T12:31:54.000Z</Time>
            <Position>
              <LatitudeDegrees>43.0602921545505523681640625</LatitudeDegrees>
              <LongitudeDegrees>-1.76770943216979503631591796875</LongitudeDegrees>
            </Position>
            <AltitudeMeters>817.4000244140625</AltitudeMeters>
            <DistanceMeters>NAN</DistanceMeters>
          </Trackpoint>
          <Trackpoint>
            <Time>2021-08-09T12:31:55.000Z</Time>
            <Position>
              <LatitudeDegrees>43.060303218662738800048828125</LatitudeDegrees>
              <LongitudeDegrees>-1.7677127011120319366455078125</LongitudeDegrees>
            </Position>
            <AltitudeMeters>817.4000244140625</AltitudeMeters>
            <DistanceMeters>NAN</DistanceMeters>
          </Trackpoint>
          <Trackpoint>
            <Time>2021-08-09T12:31:56.000Z</Time>
            <Position>
              <LatitudeDegrees>43.0603131093084812164306640625</LatitudeDegrees>
              <LongitudeDegrees>-1.7677170597016811370849609375</LongitudeDegrees>
            </Position>
            <AltitudeMeters>817.4000244140625</AltitudeMeters>
            <DistanceMeters>NAN</DistanceMeters>
          </Trackpoint>
          <Trackpoint>
            <Time>2021-08-09T12:31:57.000Z</Time>
            <Position>
              <LatitudeDegrees>43.06031763553619384765625</LatitudeDegrees>
              <LongitudeDegrees>-1.767724268138408660888671875</LongitudeDegrees>
            </Position>
            <AltitudeMeters>817.4000244140625</AltitudeMeters>
            <DistanceMeters>NAN</DistanceMeters>
          </Trackpoint>
          <Trackpoint>
            <Time>2021-08-09T12:31:58.000Z</Time>
            <Position>
              <LatitudeDegrees>43.06032308377325534820556640625</LatitudeDegrees>
              <LongitudeDegrees>-1.76773625425994396209716796875</LongitudeDegrees>
            </Position>
            <AltitudeMeters>817.4000244140625</AltitudeMeters>
            <DistanceMeters>NAN</DistanceMeters>
          </Trackpoint>
          <Trackpoint>
            <Time>2021-08-09T12:31:59.000Z</Time>
            <Position>
              <LatitudeDegrees>43.06031989865005016326904296875</LatitudeDegrees>
              <LongitudeDegrees>-1.7677567899227142333984375</LongitudeDegrees>
            </Position>
            <AltitudeMeters>817.5999755859375</AltitudeMeters>
            <DistanceMeters>NAN</DistanceMeters>
          </Trackpoint>
          <Trackpoint>
            <Time>2021-08-09T12:32:00.000Z</Time>
            <Position>
              <LatitudeDegrees>43.06031294167041778564453125</LatitudeDegrees>
              <LongitudeDegrees>-1.7677723802626132965087890625</LongitudeDegrees>
            </Position>
            <AltitudeMeters>817.5999755859375</AltitudeMeters>
            <DistanceMeters>NAN</DistanceMeters>
          </Trackpoint>
          <Trackpoint>
            <Time>2021-08-09T12:32:01.000Z</Time>
            <Position>
              <LatitudeDegrees>43.06030296720564365386962890625</LatitudeDegrees>
              <LongitudeDegrees>-1.76777648739516735076904296875</LongitudeDegrees>
            </Position>
            <AltitudeMeters>817.5999755859375</AltitudeMeters>
            <DistanceMeters>NAN</DistanceMeters>
          </Trackpoint>
          <Trackpoint>
            <Time>2021-08-09T12:32:02.000Z</Time>
            <Position>
              <LatitudeDegrees>43.06028787977993488311767578125</LatitudeDegrees>
              <LongitudeDegrees>-1.76777246408164501190185546875</LongitudeDegrees>
            </Position>
            <AltitudeMeters>817.5999755859375</AltitudeMeters>
            <DistanceMeters>NAN</DistanceMeters>
          </Trackpoint>
          <Trackpoint>
            <Time>2021-08-09T12:32:03.000Z</Time>
            <Position>
              <LatitudeDegrees>43.06027631275355815887451171875</LatitudeDegrees>
              <LongitudeDegrees>-1.76776005886495113372802734375</LongitudeDegrees>
            </Position>
            <AltitudeMeters>817.5999755859375</AltitudeMeters>
            <DistanceMeters>NAN</DistanceMeters>
          </Trackpoint>
          <Trackpoint>
            <Time>2021-08-09T12:32:04.000Z</Time>
            <Position>
              <LatitudeDegrees>43.060270361602306365966796875</LatitudeDegrees>
              <LongitudeDegrees>-1.7677415348589420318603515625</LongitudeDegrees>
            </Position>
            <AltitudeMeters>817.5999755859375</AltitudeMeters>
            <DistanceMeters>NAN</DistanceMeters>
          </Trackpoint>
          <Trackpoint>
            <Time>2021-08-09T12:32:05.000Z</Time>
            <Position>
              <LatitudeDegrees>43.0602678470313549041748046875</LatitudeDegrees>
              <LongitudeDegrees>-1.7677207477390766143798828125</LongitudeDegrees>
            </Position>
            <AltitudeMeters>817.5999755859375</AltitudeMeters>
            <DistanceMeters>NAN</DistanceMeters>
          </Trackpoint>
          <Trackpoint>
            <Time>2021-08-09T12:32:06.000Z</Time>
            <Position>
              <LatitudeDegrees>43.06026658974587917327880859375</LatitudeDegrees>
              <LongitudeDegrees>-1.767702139914035797119140625</LongitudeDegrees>
            </Position>
            <AltitudeMeters>817.5999755859375</AltitudeMeters>
            <DistanceMeters>NAN</DistanceMeters>
          </Trackpoint>
          <Trackpoint>
            <Time>2021-08-09T12:32:07.000Z</Time>
            <Position>
              <LatitudeDegrees>43.0602648295462131500244140625</LatitudeDegrees>
              <LongitudeDegrees>-1.76768512465059757232666015625</LongitudeDegrees>
            </Position>
            <AltitudeMeters>817.5999755859375</AltitudeMeters>
            <DistanceMeters>NAN</DistanceMeters>
          </Trackpoint>
          <Trackpoint>
            <Time>2021-08-09T12:32:08.000Z</Time>
            <Position>
              <LatitudeDegrees>43.0602641589939594268798828125</LatitudeDegrees>
              <LongitudeDegrees>-1.76767573691904544830322265625</LongitudeDegrees>
            </Position>
            <AltitudeMeters>817.5999755859375</AltitudeMeters>
            <DistanceMeters>NAN</DistanceMeters>
          </Trackpoint>
          <Trackpoint>
            <Time>2021-08-09T12:32:09.000Z</Time>
            <Position>
              <LatitudeDegrees>43.0602641589939594268798828125</LatitudeDegrees>
              <LongitudeDegrees>-1.76767573691904544830322265625</LongitudeDegrees>
            </Position>
            <AltitudeMeters>817.79998779296875</AltitudeMeters>
            <DistanceMeters>NAN</DistanceMeters>
          </Trackpoint>
          <Trackpoint>
            <Time>2021-08-09T12:32:10.000Z</Time>
            <Position>
              <LatitudeDegrees>43.0602641589939594268798828125</LatitudeDegrees>
              <LongitudeDegrees>-1.76767573691904544830322265625</LongitudeDegrees>
            </Position>
            <AltitudeMeters>817.79998779296875</AltitudeMeters>
            <DistanceMeters>NAN</DistanceMeters>
          </Trackpoint>
          <Trackpoint>
            <Time>2021-08-09T12:32:39.000Z</Time>
            <Position>
              <LatitudeDegrees>43.06027413345873355865478515625</LatitudeDegrees>
              <LongitudeDegrees>-1.76766802556812763214111328125</LongitudeDegrees>
            </Position>
            <AltitudeMeters>817.20001220703125</AltitudeMeters>
            <DistanceMeters>NAN</DistanceMeters>
          </Trackpoint>
          <Trackpoint>
            <Time>2021-08-09T12:32:44.000Z</Time>
            <Position>
              <LatitudeDegrees>43.06027413345873355865478515625</LatitudeDegrees>
              <LongitudeDegrees>-1.76766802556812763214111328125</LongitudeDegrees>
            </Position>
            <AltitudeMeters>817.20001220703125</AltitudeMeters>
            <DistanceMeters>NAN</DistanceMeters>
          </Trackpoint>
          <Trackpoint>
            <Time>2021-08-09T12:33:09.000Z</Time>
            <Position>
              <LatitudeDegrees>43.06028000079095363616943359375</LatitudeDegrees>
              <LongitudeDegrees>-1.76766249351203441619873046875</LongitudeDegrees>
            </Position>
            <AltitudeMeters>817.4000244140625</AltitudeMeters>
            <DistanceMeters>NAN</DistanceMeters>
          </Trackpoint>
          <Trackpoint>
            <Time>2021-08-09T12:33:33.000Z</Time>
            <Position>
              <LatitudeDegrees>43.06028000079095363616943359375</LatitudeDegrees>
              <LongitudeDegrees>-1.76766249351203441619873046875</LongitudeDegrees>
            </Position>
            <AltitudeMeters>817.5999755859375</AltitudeMeters>
            <DistanceMeters>NAN</DistanceMeters>
          </Trackpoint>
          <Trackpoint>
            <Time>2021-08-09T12:33:56.000Z</Time>
            <Position>
              <LatitudeDegrees>43.06028000079095363616943359375</LatitudeDegrees>
              <LongitudeDegrees>-1.76766249351203441619873046875</LongitudeDegrees>
            </Position>
            <AltitudeMeters>817.4000244140625</AltitudeMeters>
            <DistanceMeters>NAN</DistanceMeters>
          </Trackpoint>
          <Trackpoint>
            <Time>2021-08-09T12:34:20.000Z</Time>
            <Position>
              <LatitudeDegrees>43.06028000079095363616943359375</LatitudeDegrees>
              <LongitudeDegrees>-1.76766249351203441619873046875</LongitudeDegrees>
            </Position>
            <AltitudeMeters>817</AltitudeMeters>
            <DistanceMeters>NAN</DistanceMeters>
          </Trackpoint>
          <Trackpoint>
            <Time>2021-08-09T12:34:47.000Z</Time>
            <Position>
              <LatitudeDegrees>43.06028000079095363616943359375</LatitudeDegrees>
              <LongitudeDegrees>-1.76766249351203441619873046875</LongitudeDegrees>
            </Position>
            <AltitudeMeters>817.20001220703125</AltitudeMeters>
            <DistanceMeters>NAN</DistanceMeters>
          </Trackpoint>
          <Trackpoint>
            <Time>2021-08-09T12:35:15.000Z</Time>
            <Position>
              <LatitudeDegrees>43.06028000079095363616943359375</LatitudeDegrees>
              <LongitudeDegrees>-1.76766249351203441619873046875</LongitudeDegrees>
            </Position>
            <AltitudeMeters>817.79998779296875</AltitudeMeters>
            <DistanceMeters>NAN</DistanceMeters>
          </Trackpoint>
          <Trackpoint>
            <Time>2021-08-09T12:35:52.000Z</Time>
            <Position>
              <LatitudeDegrees>43.06028000079095363616943359375</LatitudeDegrees>
              <LongitudeDegrees>-1.76766249351203441619873046875</LongitudeDegrees>
            </Position>
            <AltitudeMeters>817.79998779296875</AltitudeMeters>
            <DistanceMeters>NAN</DistanceMeters>
          </Trackpoint>
          <Trackpoint>
            <Time>2021-08-09T12:35:56.000Z</Time>
            <Position>
              <LatitudeDegrees>43.06028435938060283660888671875</LatitudeDegrees>
              <LongitudeDegrees>-1.76768462173640727996826171875</LongitudeDegrees>
            </Position>
            <AltitudeMeters>818</AltitudeMeters>
            <DistanceMeters>NAN</DistanceMeters>
          </Trackpoint>
          <Trackpoint>
            <Time>2021-08-09T12:35:58.000Z</Time>
            <Position>
              <LatitudeDegrees>43.060283772647380828857421875</LatitudeDegrees>
              <LongitudeDegrees>-1.7677204124629497528076171875</LongitudeDegrees>
            </Position>
            <AltitudeMeters>818.20001220703125</AltitudeMeters>
            <DistanceMeters>NAN</DistanceMeters>
          </Trackpoint>
          <Trackpoint>
            <Time>2021-08-09T12:35:59.000Z</Time>
            <Position>
              <LatitudeDegrees>43.06028301827609539031982421875</LatitudeDegrees>
              <LongitudeDegrees>-1.767737008631229400634765625</LongitudeDegrees>
            </Position>
            <AltitudeMeters>818.4000244140625</AltitudeMeters>
            <DistanceMeters>NAN</DistanceMeters>
          </Trackpoint>
          <Trackpoint>
            <Time>2021-08-09T12:36:00.000Z</Time>
            <Position>
              <LatitudeDegrees>43.06028586812317371368408203125</LatitudeDegrees>
              <LongitudeDegrees>-1.76775603555142879486083984375</LongitudeDegrees>
            </Position>
            <AltitudeMeters>818.4000244140625</AltitudeMeters>
            <DistanceMeters>NAN</DistanceMeters>
          </Trackpoint>
          <Trackpoint>
            <Time>2021-08-09T12:36:02.000Z</Time>
            <Position>
              <LatitudeDegrees>43.0602919869124889373779296875</LatitudeDegrees>
              <LongitudeDegrees>-1.7677782475948333740234375</LongitudeDegrees>
            </Position>
            <AltitudeMeters>818.4000244140625</AltitudeMeters>
            <DistanceMeters>NAN</DistanceMeters>
          </Trackpoint>
          <Trackpoint>
            <Time>2021-08-09T12:36:03.000Z</Time>
            <Position>
              <LatitudeDegrees>43.06029240600764751434326171875</LatitudeDegrees>
              <LongitudeDegrees>-1.76778386346995830535888671875</LongitudeDegrees>
            </Position>
            <AltitudeMeters>818.4000244140625</AltitudeMeters>
            <DistanceMeters>NAN</DistanceMeters>
          </Trackpoint>
          <Trackpoint>
            <Time>2021-08-09T12:36:23.000Z</Time>
            <Position>
              <LatitudeDegrees>43.06029374711215496063232421875</LatitudeDegrees>
              <LongitudeDegrees>-1.7677861265838146209716796875</LongitudeDegrees>
            </Position>
            <AltitudeMeters>818.79998779296875</AltitudeMeters>
            <DistanceMeters>NAN</DistanceMeters>
          </Trackpoint>
          <Trackpoint>
            <Time>2021-08-09T12:36:27.000Z</Time>
            <Position>
              <LatitudeDegrees>43.06029374711215496063232421875</LatitudeDegrees>
              <LongitudeDegrees>-1.7677861265838146209716796875</LongitudeDegrees>
            </Position>
            <AltitudeMeters>819</AltitudeMeters>
            <DistanceMeters>NAN</DistanceMeters>
          </Trackpoint>
          <Trackpoint>
            <Time>2021-08-09T12:37:08.000Z</Time>
            <Position>
              <LatitudeDegrees>43.06029374711215496063232421875</LatitudeDegrees>
              <LongitudeDegrees>-1.7677861265838146209716796875</LongitudeDegrees>
            </Position>
            <AltitudeMeters>819.20001220703125</AltitudeMeters>
            <DistanceMeters>NAN</DistanceMeters>
          </Trackpoint>
          <Trackpoint>
            <Time>2021-08-09T12:37:36.000Z</Time>
            <Position>
              <LatitudeDegrees>43.06029374711215496063232421875</LatitudeDegrees>
              <LongitudeDegrees>-1.7677861265838146209716796875</LongitudeDegrees>
            </Position>
            <AltitudeMeters>819.4000244140625</AltitudeMeters>
            <DistanceMeters>NAN</DistanceMeters>
          </Trackpoint>
          <Trackpoint>
            <Time>2021-08-09T12:38:05.000Z</Time>
            <Position>
              <LatitudeDegrees>43.06029374711215496063232421875</LatitudeDegrees>
              <LongitudeDegrees>-1.7677861265838146209716796875</LongitudeDegrees>
            </Position>
            <AltitudeMeters>819.4000244140625</AltitudeMeters>
            <DistanceMeters>NAN</DistanceMeters>
          </Trackpoint>
          <Trackpoint>
            <Time>2021-08-09T12:38:07.000Z</Time>
            <Position>
              <LatitudeDegrees>43.06029827333986759185791015625</LatitudeDegrees>
              <LongitudeDegrees>-1.76780884154140949249267578125</LongitudeDegrees>
            </Position>
            <AltitudeMeters>819.4000244140625</AltitudeMeters>
            <DistanceMeters>NAN</DistanceMeters>
          </Trackpoint>
          <Trackpoint>
            <Time>2021-08-09T12:38:09.000Z</Time>
            <Position>
              <LatitudeDegrees>43.06031503714621067047119140625</LatitudeDegrees>
              <LongitudeDegrees>-1.76785804331302642822265625</LongitudeDegrees>
            </Position>
            <AltitudeMeters>819.4000244140625</AltitudeMeters>
            <DistanceMeters>NAN</DistanceMeters>
          </Trackpoint>
          <Trackpoint>
            <Time>2021-08-09T12:38:15.000Z</Time>
            <Position>
              <LatitudeDegrees>43.06037723086774349212646484375</LatitudeDegrees>
              <LongitudeDegrees>-1.76806398667395114898681640625</LongitudeDegrees>
            </Position>
            <AltitudeMeters>818.79998779296875</AltitudeMeters>
            <DistanceMeters>NAN</DistanceMeters>
          </Trackpoint>
          <Trackpoint>
            <Time>2021-08-09T12:38:16.000Z</Time>
            <Position>
              <LatitudeDegrees>43.06038997136056423187255859375</LatitudeDegrees>
              <LongitudeDegrees>-1.7680986039340496063232421875</LongitudeDegrees>
            </Position>
            <AltitudeMeters>818.79998779296875</AltitudeMeters>
            <DistanceMeters>NAN</DistanceMeters>
          </Trackpoint>
          <Trackpoint>
            <Time>2021-08-09T12:38:17.000Z</Time>
            <Position>
              <LatitudeDegrees>43.0604006163775920867919921875</LatitudeDegrees>
              <LongitudeDegrees>-1.76814629696309566497802734375</LongitudeDegrees>
            </Position>
            <AltitudeMeters>818.79998779296875</AltitudeMeters>
            <DistanceMeters>NAN</DistanceMeters>
          </Trackpoint>
          <Trackpoint>
            <Time>2021-08-09T12:38:22.000Z</Time>
            <Position>
              <LatitudeDegrees>43.06048166938126087188720703125</LatitudeDegrees>
              <LongitudeDegrees>-1.76835383288562297821044921875</LongitudeDegrees>
            </Position>
            <AltitudeMeters>818.4000244140625</AltitudeMeters>
            <DistanceMeters>NAN</DistanceMeters>
          </Trackpoint>
          <Trackpoint>
            <Time>2021-08-09T12:38:28.000Z</Time>
            <Position>
              <LatitudeDegrees>43.06059381924569606781005859375</LatitudeDegrees>
              <LongitudeDegrees>-1.76862649619579315185546875</LongitudeDegrees>
            </Position>
            <AltitudeMeters>818</AltitudeMeters>
            <DistanceMeters>NAN</DistanceMeters>
          </Trackpoint>
          <Trackpoint>
            <Time>2021-08-09T12:38:30.000Z</Time>
            <Position>
              <LatitudeDegrees>43.0606463737785816192626953125</LatitudeDegrees>
              <LongitudeDegrees>-1.76871358416974544525146484375</LongitudeDegrees>
            </Position>
            <AltitudeMeters>818</AltitudeMeters>
            <DistanceMeters>NAN</DistanceMeters>
          </Trackpoint>
          <Trackpoint>
            <Time>2021-08-09T12:38:33.000Z</Time>
            <Position>
              <LatitudeDegrees>43.0607425980269908905029296875</LatitudeDegrees>
              <LongitudeDegrees>-1.768800504505634307861328125</LongitudeDegrees>
            </Position>
            <AltitudeMeters>817.5999755859375</AltitudeMeters>
            <DistanceMeters>NAN</DistanceMeters>
          </Trackpoint>
          <Trackpoint>
            <Time>2021-08-09T12:38:34.000Z</Time>
            <Position>
              <LatitudeDegrees>43.06078006513416767120361328125</LatitudeDegrees>
              <LongitudeDegrees>-1.768815256655216217041015625</LongitudeDegrees>
            </Position>
            <AltitudeMeters>817.5999755859375</AltitudeMeters>
            <DistanceMeters>NAN</DistanceMeters>
          </Trackpoint>
          <Trackpoint>
            <Time>2021-08-09T12:38:35.000Z</Time>
            <Position>
              <LatitudeDegrees>43.0608205497264862060546875</LatitudeDegrees>
              <LongitudeDegrees>-1.76883042789995670318603515625</LongitudeDegrees>
            </Position>
            <AltitudeMeters>817.4000244140625</AltitudeMeters>
            <DistanceMeters>NAN</DistanceMeters>
          </Trackpoint>
          <Trackpoint>
            <Time>2021-08-09T12:38:41.000Z</Time>
            <Position>
              <LatitudeDegrees>43.0611124075949192047119140625</LatitudeDegrees>
              <LongitudeDegrees>-1.76890167407691478729248046875</LongitudeDegrees>
            </Position>
            <AltitudeMeters>817.20001220703125</AltitudeMeters>
            <DistanceMeters>NAN</DistanceMeters>
          </Trackpoint>
          <Trackpoint>
            <Time>2021-08-09T12:38:43.000Z</Time>
            <Position>
              <LatitudeDegrees>43.06123285554349422454833984375</LatitudeDegrees>
              <LongitudeDegrees>-1.76894090138375759124755859375</LongitudeDegrees>
            </Position>
            <AltitudeMeters>817</AltitudeMeters>
            <DistanceMeters>NAN</DistanceMeters>
          </Trackpoint>
          <Trackpoint>
            <Time>2021-08-09T12:38:44.000Z</Time>
            <Position>
              <LatitudeDegrees>43.061296306550502777099609375</LatitudeDegrees>
              <LongitudeDegrees>-1.76895565353333950042724609375</LongitudeDegrees>
            </Position>
            <AltitudeMeters>817</AltitudeMeters>
            <DistanceMeters>NAN</DistanceMeters>
          </Trackpoint>
          <Trackpoint>
            <Time>2021-08-09T12:38:46.000Z</Time>
            <Position>
              <LatitudeDegrees>43.061433769762516021728515625</LatitudeDegrees>
              <LongitudeDegrees>-1.76899932324886322021484375</LongitudeDegrees>
            </Position>
            <AltitudeMeters>816.5999755859375</AltitudeMeters>
            <DistanceMeters>NAN</DistanceMeters>
          </Trackpoint>
          <Trackpoint>
            <Time>2021-08-09T12:38:49.000Z</Time>
            <Position>
              <LatitudeDegrees>43.06167148053646087646484375</LatitudeDegrees>
              <LongitudeDegrees>-1.76906428299844264984130859375</LongitudeDegrees>
            </Position>
            <AltitudeMeters>815.79998779296875</AltitudeMeters>
            <DistanceMeters>NAN</DistanceMeters>
          </Trackpoint>
          <Trackpoint>
            <Time>2021-08-09T12:38:51.000Z</Time>
            <Position>
              <LatitudeDegrees>43.06185043416917324066162109375</LatitudeDegrees>
              <LongitudeDegrees>-1.769094876945018768310546875</LongitudeDegrees>
            </Position>
            <AltitudeMeters>814.79998779296875</AltitudeMeters>
            <DistanceMeters>NAN</DistanceMeters>
          </Trackpoint>
          <Trackpoint>
            <Time>2021-08-09T12:38:52.000Z</Time>
            <Position>
              <LatitudeDegrees>43.06194464676082134246826171875</LatitudeDegrees>
              <LongitudeDegrees>-1.76911356858909130096435546875</LongitudeDegrees>
            </Position>
            <AltitudeMeters>814.5999755859375</AltitudeMeters>
            <DistanceMeters>NAN</DistanceMeters>
          </Trackpoint>
          <Trackpoint>
            <Time>2021-08-09T12:38:54.000Z</Time>
            <Position>
              <LatitudeDegrees>43.06214396841824054718017578125</LatitudeDegrees>
              <LongitudeDegrees>-1.76914122886955738067626953125</LongitudeDegrees>
            </Position>
            <AltitudeMeters>813.20001220703125</AltitudeMeters>
            <DistanceMeters>NAN</DistanceMeters>
          </Trackpoint>
          <Trackpoint>
            <Time>2021-08-09T12:38:56.000Z</Time>
            <Position>
              <LatitudeDegrees>43.062345050275325775146484375</LatitudeDegrees>
              <LongitudeDegrees>-1.76916436292231082916259765625</LongitudeDegrees>
            </Position>
            <AltitudeMeters>812.20001220703125</AltitudeMeters>
            <DistanceMeters>NAN</DistanceMeters>
          </Trackpoint>
          <Trackpoint>
            <Time>2021-08-09T12:38:57.000Z</Time>
            <Position>
              <LatitudeDegrees>43.062449656426906585693359375</LatitudeDegrees>
              <LongitudeDegrees>-1.76917794160544872283935546875</LongitudeDegrees>
            </Position>
            <AltitudeMeters>811.79998779296875</AltitudeMeters>
            <DistanceMeters>NAN</DistanceMeters>
          </Trackpoint>
          <Trackpoint>
            <Time>2021-08-09T12:38:58.000Z</Time>
            <Position>
              <LatitudeDegrees>43.06255652569234371185302734375</LatitudeDegrees>
              <LongitudeDegrees>-1.76919110119342803955078125</LongitudeDegrees>
            </Position>
            <AltitudeMeters>810.5999755859375</AltitudeMeters>
            <DistanceMeters>NAN</DistanceMeters>
          </Trackpoint>
          <Trackpoint>
            <Time>2021-08-09T12:39:00.000Z</Time>
            <Position>
              <LatitudeDegrees>43.06277076713740825653076171875</LatitudeDegrees>
              <LongitudeDegrees>-1.76922253333032131195068359375</LongitudeDegrees>
            </Position>
            <AltitudeMeters>809.4000244140625</AltitudeMeters>
            <DistanceMeters>NAN</DistanceMeters>
          </Trackpoint>
          <Trackpoint>
            <Time>2021-08-09T12:39:01.000Z</Time>
            <Position>
              <LatitudeDegrees>43.06288157589733600616455078125</LatitudeDegrees>
              <LongitudeDegrees>-1.769245080649852752685546875</LongitudeDegrees>
            </Position>
            <AltitudeMeters>808.4000244140625</AltitudeMeters>
            <DistanceMeters>NAN</DistanceMeters>
          </Trackpoint>
          <Trackpoint>
            <Time>2021-08-09T12:39:03.000Z</Time>
            <Position>
              <LatitudeDegrees>43.06310176849365234375</LatitudeDegrees>
              <LongitudeDegrees>-1.76927986554801464080810546875</LongitudeDegrees>
            </Position>
            <AltitudeMeters>807.20001220703125</AltitudeMeters>
            <DistanceMeters>NAN</DistanceMeters>
          </Trackpoint>
          <Trackpoint>
            <Time>2021-08-09T12:39:05.000Z</Time>
            <Position>
              <LatitudeDegrees>43.06332950480282306671142578125</LatitudeDegrees>
              <LongitudeDegrees>-1.76932764239609241485595703125</LongitudeDegrees>
            </Position>
            <AltitudeMeters>805.79998779296875</AltitudeMeters>
            <DistanceMeters>NAN</DistanceMeters>
          </Trackpoint>
          <Trackpoint>
            <Time>2021-08-09T12:39:08.000Z</Time>
            <Position>
              <LatitudeDegrees>43.06364550255239009857177734375</LatitudeDegrees>
              <LongitudeDegrees>-1.76937441341578960418701171875</LongitudeDegrees>
            </Position>
            <AltitudeMeters>803.79998779296875</AltitudeMeters>
            <DistanceMeters>NAN</DistanceMeters>
          </Trackpoint>
          <Trackpoint>
            <Time>2021-08-09T12:39:10.000Z</Time>
            <Position>
              <LatitudeDegrees>43.06386862881481647491455078125</LatitudeDegrees>
              <LongitudeDegrees>-1.76939017139375209808349609375</LongitudeDegrees>
            </Position>
            <AltitudeMeters>802.4000244140625</AltitudeMeters>
            <DistanceMeters>NAN</DistanceMeters>
          </Trackpoint>
          <Trackpoint>
            <Time>2021-08-09T12:39:12.000Z</Time>
            <Position>
              <LatitudeDegrees>43.064080774784088134765625</LatitudeDegrees>
              <LongitudeDegrees>-1.76941364072263240814208984375</LongitudeDegrees>
            </Position>
            <AltitudeMeters>801</AltitudeMeters>
            <DistanceMeters>NAN</DistanceMeters>
          </Trackpoint>
          <Trackpoint>
            <Time>2021-08-09T12:39:14.000Z</Time>
            <Position>
              <LatitudeDegrees>43.06428688578307628631591796875</LatitudeDegrees>
              <LongitudeDegrees>-1.76945454441010951995849609375</LongitudeDegrees>
            </Position>
            <AltitudeMeters>799.79998779296875</AltitudeMeters>
            <DistanceMeters>NAN</DistanceMeters>
          </Trackpoint>
          <Trackpoint>
            <Time>2021-08-09T12:39:15.000Z</Time>
            <Position>
              <LatitudeDegrees>43.0644011311233043670654296875</LatitudeDegrees>
              <LongitudeDegrees>-1.7695000581443309783935546875</LongitudeDegrees>
            </Position>
            <AltitudeMeters>799.5999755859375</AltitudeMeters>
            <DistanceMeters>NAN</DistanceMeters>
          </Trackpoint>
          <Trackpoint>
            <Time>2021-08-09T12:39:16.000Z</Time>
            <Position>
              <LatitudeDegrees>43.064474053680896759033203125</LatitudeDegrees>
              <LongitudeDegrees>-1.76953115500509738922119140625</LongitudeDegrees>
            </Position>
            <AltitudeMeters>798.5999755859375</AltitudeMeters>
            <DistanceMeters>NAN</DistanceMeters>
          </Trackpoint>
          <Trackpoint>
            <Time>2021-08-09T12:39:17.000Z</Time>
            <Position>
              <LatitudeDegrees>43.06456533260643482208251953125</LatitudeDegrees>
              <LongitudeDegrees>-1.76957725547254085540771484375</LongitudeDegrees>
            </Position>
            <AltitudeMeters>797.5999755859375</AltitudeMeters>
            <DistanceMeters>NAN</DistanceMeters>
          </Trackpoint>
          <Trackpoint>
            <Time>2021-08-09T12:39:18.000Z</Time>
            <Position>
              <LatitudeDegrees>43.0646532587707042694091796875</LatitudeDegrees>
              <LongitudeDegrees>-1.7696210928261280059814453125</LongitudeDegrees>
            </Position>
            <AltitudeMeters>797.4000244140625</AltitudeMeters>
            <DistanceMeters>NAN</DistanceMeters>
          </Trackpoint>
          <Trackpoint>
            <Time>2021-08-09T12:39:19.000Z</Time>
            <Position>
              <LatitudeDegrees>43.06473749689757823944091796875</LatitudeDegrees>
              <LongitudeDegrees>-1.76967230625450611114501953125</LongitudeDegrees>
            </Position>
            <AltitudeMeters>797</AltitudeMeters>
            <DistanceMeters>NAN</DistanceMeters>
          </Trackpoint>
          <Trackpoint>
            <Time>2021-08-09T12:39:20.000Z</Time>
            <Position>
              <LatitudeDegrees>43.064837493002414703369140625</LatitudeDegrees>
              <LongitudeDegrees>-1.76973986439406871795654296875</LongitudeDegrees>
            </Position>
            <AltitudeMeters>796.79998779296875</AltitudeMeters>
            <DistanceMeters>NAN</DistanceMeters>
          </Trackpoint>
          <Trackpoint>
            <Time>2021-08-09T12:39:21.000Z</Time>
            <Position>
              <LatitudeDegrees>43.06490044109523296356201171875</LatitudeDegrees>
              <LongitudeDegrees>-1.7697872221469879150390625</LongitudeDegrees>
            </Position>
            <AltitudeMeters>796.5999755859375</AltitudeMeters>
            <DistanceMeters>NAN</DistanceMeters>
          </Trackpoint>
          <Trackpoint>
            <Time>2021-08-09T12:39:22.000Z</Time>
            <Position>
              <LatitudeDegrees>43.064976297318935394287109375</LatitudeDegrees>
              <LongitudeDegrees>-1.76985268481075763702392578125</LongitudeDegrees>
            </Position>
            <AltitudeMeters>796.4000244140625</AltitudeMeters>
            <DistanceMeters>NAN</DistanceMeters>
          </Trackpoint>
          <Trackpoint>
            <Time>2021-08-09T12:39:24.000Z</Time>
            <Position>
              <LatitudeDegrees>43.065137900412082672119140625</LatitudeDegrees>
              <LongitudeDegrees>-1.7699821852147579193115234375</LongitudeDegrees>
            </Position>
            <AltitudeMeters>795.79998779296875</AltitudeMeters>
            <DistanceMeters>NAN</DistanceMeters>
          </Trackpoint>
          <Trackpoint>
            <Time>2021-08-09T12:39:25.000Z</Time>
            <Position>
              <LatitudeDegrees>43.06521660648286342620849609375</LatitudeDegrees>
              <LongitudeDegrees>-1.77004999481141567230224609375</LongitudeDegrees>
            </Position>
            <AltitudeMeters>795.5999755859375</AltitudeMeters>
            <DistanceMeters>NAN</DistanceMeters>
          </Trackpoint>
          <Trackpoint>
            <Time>2021-08-09T12:39:26.000Z</Time>
            <Position>
              <LatitudeDegrees>43.06530998088419437408447265625</LatitudeDegrees>
              <LongitudeDegrees>-1.77013113163411617279052734375</LongitudeDegrees>
            </Position>
            <AltitudeMeters>795.4000244140625</AltitudeMeters>
            <DistanceMeters>NAN</DistanceMeters>
          </Trackpoint>
          <Trackpoint>
            <Time>2021-08-09T12:39:27.000Z</Time>
            <Position>
              <LatitudeDegrees>43.065371252596378326416015625</LatitudeDegrees>
              <LongitudeDegrees>-1.77018410526216030120849609375</LongitudeDegrees>
            </Position>
            <AltitudeMeters>795.20001220703125</AltitudeMeters>
            <DistanceMeters>NAN</DistanceMeters>
          </Trackpoint>
          <Trackpoint>
            <Time>2021-08-09T12:39:30.000Z</Time>
            <Position>
              <LatitudeDegrees>43.0656108073890209197998046875</LatitudeDegrees>
              <LongitudeDegrees>-1.77041645161807537078857421875</LongitudeDegrees>
            </Position>
            <AltitudeMeters>794.20001220703125</AltitudeMeters>
            <DistanceMeters>NAN</DistanceMeters>
          </Trackpoint>
          <Trackpoint>
            <Time>2021-08-09T12:39:31.000Z</Time>
            <Position>
              <LatitudeDegrees>43.065673001110553741455078125</LatitudeDegrees>
              <LongitudeDegrees>-1.770507730543613433837890625</LongitudeDegrees>
            </Position>
            <AltitudeMeters>793.5999755859375</AltitudeMeters>
            <DistanceMeters>NAN</DistanceMeters>
          </Trackpoint>
          <Trackpoint>
            <Time>2021-08-09T12:39:32.000Z</Time>
            <Position>
              <LatitudeDegrees>43.06570686399936676025390625</LatitudeDegrees>
              <LongitudeDegrees>-1.7706044577062129974365234375</LongitudeDegrees>
            </Position>
            <AltitudeMeters>793.20001220703125</AltitudeMeters>
            <DistanceMeters>NAN</DistanceMeters>
          </Trackpoint>
          <Trackpoint>
            <Time>2021-08-09T12:39:33.000Z</Time>
            <Position>
              <LatitudeDegrees>43.06570015847682952880859375</LatitudeDegrees>
              <LongitudeDegrees>-1.77071820013225078582763671875</LongitudeDegrees>
            </Position>
            <AltitudeMeters>792.4000244140625</AltitudeMeters>
            <DistanceMeters>NAN</DistanceMeters>
          </Trackpoint>
          <Trackpoint>
            <Time>2021-08-09T12:39:34.000Z</Time>
            <Position>
              <LatitudeDegrees>43.065674006938934326171875</LatitudeDegrees>
              <LongitudeDegrees>-1.77080235444009304046630859375</LongitudeDegrees>
            </Position>
            <AltitudeMeters>792</AltitudeMeters>
            <DistanceMeters>NAN</DistanceMeters>
          </Trackpoint>
          <Trackpoint>
            <Time>2021-08-09T12:39:35.000Z</Time>
            <Position>
              <LatitudeDegrees>43.06563436053693294525146484375</LatitudeDegrees>
              <LongitudeDegrees>-1.77089187316596508026123046875</LongitudeDegrees>
            </Position>
            <AltitudeMeters>791.5999755859375</AltitudeMeters>
            <DistanceMeters>NAN</DistanceMeters>
          </Trackpoint>
          <Trackpoint>
            <Time>2021-08-09T12:39:36.000Z</Time>
            <Position>
              <LatitudeDegrees>43.0655906908214092254638671875</LatitudeDegrees>
              <LongitudeDegrees>-1.770974099636077880859375</LongitudeDegrees>
            </Position>
            <AltitudeMeters>791.5999755859375</AltitudeMeters>
            <DistanceMeters>NAN</DistanceMeters>
          </Trackpoint>
          <Trackpoint>
            <Time>2021-08-09T12:39:37.000Z</Time>
            <Position>
              <LatitudeDegrees>43.06553092785179615020751953125</LatitudeDegrees>
              <LongitudeDegrees>-1.77104794420301914215087890625</LongitudeDegrees>
            </Position>
            <AltitudeMeters>791.20001220703125</AltitudeMeters>
            <DistanceMeters>NAN</DistanceMeters>
          </Trackpoint>
          <Trackpoint>
            <Time>2021-08-09T12:39:38.000Z</Time>
            <Position>
              <LatitudeDegrees>43.06545666418969631195068359375</LatitudeDegrees>
              <LongitudeDegrees>-1.77111684344708919525146484375</LongitudeDegrees>
            </Position>
            <AltitudeMeters>790.79998779296875</AltitudeMeters>
            <DistanceMeters>NAN</DistanceMeters>
          </Trackpoint>
          <Trackpoint>
            <Time>2021-08-09T12:39:39.000Z</Time>
            <Position>
              <LatitudeDegrees>43.06538231670856475830078125</LatitudeDegrees>
              <LongitudeDegrees>-1.77118725143373012542724609375</LongitudeDegrees>
            </Position>
            <AltitudeMeters>790.4000244140625</AltitudeMeters>
            <DistanceMeters>NAN</DistanceMeters>
          </Trackpoint>
          <Trackpoint>
            <Time>2021-08-09T12:39:40.000Z</Time>
            <Position>
              <LatitudeDegrees>43.0653063766658306121826171875</LatitudeDegrees>
              <LongitudeDegrees>-1.77126042544841766357421875</LongitudeDegrees>
            </Position>
            <AltitudeMeters>789.79998779296875</AltitudeMeters>
            <DistanceMeters>NAN</DistanceMeters>
          </Trackpoint>
          <Trackpoint>
            <Time>2021-08-09T12:39:42.000Z</Time>
            <Position>
              <LatitudeDegrees>43.06513731367886066436767578125</LatitudeDegrees>
              <LongitudeDegrees>-1.77140618674457073211669921875</LongitudeDegrees>
            </Position>
            <AltitudeMeters>788.79998779296875</AltitudeMeters>
            <DistanceMeters>NAN</DistanceMeters>
          </Trackpoint>
          <Trackpoint>
            <Time>2021-08-09T12:39:43.000Z</Time>
            <Position>
              <LatitudeDegrees>43.0650475434958934783935546875</LatitudeDegrees>
              <LongitudeDegrees>-1.7714822106063365936279296875</LongitudeDegrees>
            </Position>
            <AltitudeMeters>788.4000244140625</AltitudeMeters>
            <DistanceMeters>NAN</DistanceMeters>
          </Trackpoint>
          <Trackpoint>
            <Time>2021-08-09T12:39:45.000Z</Time>
            <Position>
              <LatitudeDegrees>43.06488635949790477752685546875</LatitudeDegrees>
              <LongitudeDegrees>-1.7716448195278644561767578125</LongitudeDegrees>
            </Position>
            <AltitudeMeters>787.20001220703125</AltitudeMeters>
            <DistanceMeters>NAN</DistanceMeters>
          </Trackpoint>
          <Trackpoint>
            <Time>2021-08-09T12:39:47.000Z</Time>
            <Position>
              <LatitudeDegrees>43.064716123044490814208984375</LatitudeDegrees>
              <LongitudeDegrees>-1.771820001304149627685546875</LongitudeDegrees>
            </Position>
            <AltitudeMeters>785.79998779296875</AltitudeMeters>
            <DistanceMeters>NAN</DistanceMeters>
          </Trackpoint>
          <Trackpoint>
            <Time>2021-08-09T12:39:48.000Z</Time>
            <Position>
              <LatitudeDegrees>43.0646556057035923004150390625</LatitudeDegrees>
              <LongitudeDegrees>-1.77191630937159061431884765625</LongitudeDegrees>
            </Position>
            <AltitudeMeters>785.4000244140625</AltitudeMeters>
            <DistanceMeters>NAN</DistanceMeters>
          </Trackpoint>
          <Trackpoint>
            <Time>2021-08-09T12:39:49.000Z</Time>
            <Position>
              <LatitudeDegrees>43.064592070877552032470703125</LatitudeDegrees>
              <LongitudeDegrees>-1.772016473114490509033203125</LongitudeDegrees>
            </Position>
            <AltitudeMeters>784.5999755859375</AltitudeMeters>
            <DistanceMeters>NAN</DistanceMeters>
          </Trackpoint>
          <Trackpoint>
            <Time>2021-08-09T12:39:50.000Z</Time>
            <Position>
              <LatitudeDegrees>43.06453146971762180328369140625</LatitudeDegrees>
              <LongitudeDegrees>-1.7721292935311794281005859375</LongitudeDegrees>
            </Position>
            <AltitudeMeters>784.20001220703125</AltitudeMeters>
            <DistanceMeters>NAN</DistanceMeters>
          </Trackpoint>
          <Trackpoint>
            <Time>2021-08-09T12:39:51.000Z</Time>
            <Position>
              <LatitudeDegrees>43.06447950191795825958251953125</LatitudeDegrees>
              <LongitudeDegrees>-1.7722412757575511932373046875</LongitudeDegrees>
            </Position>
            <AltitudeMeters>783.5999755859375</AltitudeMeters>
            <DistanceMeters>NAN</DistanceMeters>
          </Trackpoint>
          <Trackpoint>
            <Time>2021-08-09T12:39:52.000Z</Time>
            <Position>
              <LatitudeDegrees>43.06442686356604099273681640625</LatitudeDegrees>
              <LongitudeDegrees>-1.77234730683267116546630859375</LongitudeDegrees>
            </Position>
            <AltitudeMeters>783.4000244140625</AltitudeMeters>
            <DistanceMeters>NAN</DistanceMeters>
          </Trackpoint>
          <Trackpoint>
            <Time>2021-08-09T12:39:54.000Z</Time>
            <Position>
              <LatitudeDegrees>43.06430406868457794189453125</LatitudeDegrees>
              <LongitudeDegrees>-1.77255216054618358612060546875</LongitudeDegrees>
            </Position>
            <AltitudeMeters>782.4000244140625</AltitudeMeters>
            <DistanceMeters>NAN</DistanceMeters>
          </Trackpoint>
          <Trackpoint>
            <Time>2021-08-09T12:39:55.000Z</Time>
            <Position>
              <LatitudeDegrees>43.0642207525670528411865234375</LatitudeDegrees>
              <LongitudeDegrees>-1.77265341393649578094482421875</LongitudeDegrees>
            </Position>
            <AltitudeMeters>782.20001220703125</AltitudeMeters>
            <DistanceMeters>NAN</DistanceMeters>
          </Trackpoint>
          <Trackpoint>
            <Time>2021-08-09T12:39:56.000Z</Time>
            <Position>
              <LatitudeDegrees>43.064142130315303802490234375</LatitudeDegrees>
              <LongitudeDegrees>-1.77274108864367008209228515625</LongitudeDegrees>
            </Position>
            <AltitudeMeters>782</AltitudeMeters>
            <DistanceMeters>NAN</DistanceMeters>
          </Trackpoint>
          <Trackpoint>
            <Time>2021-08-09T12:39:58.000Z</Time>
            <Position>
              <LatitudeDegrees>43.0639951117336750030517578125</LatitudeDegrees>
              <LongitudeDegrees>-1.7729091458022594451904296875</LongitudeDegrees>
            </Position>
            <AltitudeMeters>781.4000244140625</AltitudeMeters>
            <DistanceMeters>NAN</DistanceMeters>
          </Trackpoint>
          <Trackpoint>
            <Time>2021-08-09T12:39:59.000Z</Time>
            <Position>
              <LatitudeDegrees>43.0639163218438625335693359375</LatitudeDegrees>
              <LongitudeDegrees>-1.7729738540947437286376953125</LongitudeDegrees>
            </Position>
            <AltitudeMeters>781.4000244140625</AltitudeMeters>
            <DistanceMeters>NAN</DistanceMeters>
          </Trackpoint>
          <Trackpoint>
            <Time>2021-08-09T12:40:01.000Z</Time>
            <Position>
              <LatitudeDegrees>43.06375597603619098663330078125</LatitudeDegrees>
              <LongitudeDegrees>-1.77309514023363590240478515625</LongitudeDegrees>
            </Position>
            <AltitudeMeters>780.79998779296875</AltitudeMeters>
            <DistanceMeters>NAN</DistanceMeters>
          </Trackpoint>
          <Trackpoint>
            <Time>2021-08-09T12:40:02.000Z</Time>
            <Position>
              <LatitudeDegrees>43.06365841068327426910400390625</LatitudeDegrees>
              <LongitudeDegrees>-1.77311114966869354248046875</LongitudeDegrees>
            </Position>
            <AltitudeMeters>780.5999755859375</AltitudeMeters>
            <DistanceMeters>NAN</DistanceMeters>
          </Trackpoint>
          <Trackpoint>
            <Time>2021-08-09T12:40:03.000Z</Time>
            <Position>
              <LatitudeDegrees>43.06356403045356273651123046875</LatitudeDegrees>
              <LongitudeDegrees>-1.77312447689473628997802734375</LongitudeDegrees>
            </Position>
            <AltitudeMeters>780.20001220703125</AltitudeMeters>
            <DistanceMeters>NAN</DistanceMeters>
          </Trackpoint>
          <Trackpoint>
            <Time>2021-08-09T12:40:05.000Z</Time>
            <Position>
              <LatitudeDegrees>43.06338029913604259490966796875</LatitudeDegrees>
              <LongitudeDegrees>-1.77315364591777324676513671875</LongitudeDegrees>
            </Position>
            <AltitudeMeters>779.20001220703125</AltitudeMeters>
            <DistanceMeters>NAN</DistanceMeters>
          </Trackpoint>
          <Trackpoint>
            <Time>2021-08-09T12:40:08.000Z</Time>
            <Position>
              <LatitudeDegrees>43.0630965717136859893798828125</LatitudeDegrees>
              <LongitudeDegrees>-1.7731909453868865966796875</LongitudeDegrees>
            </Position>
            <AltitudeMeters>777.79998779296875</AltitudeMeters>
            <DistanceMeters>NAN</DistanceMeters>
          </Trackpoint>
          <Trackpoint>
            <Time>2021-08-09T12:40:11.000Z</Time>
            <Position>
              <LatitudeDegrees>43.06280605494976043701171875</LatitudeDegrees>
              <LongitudeDegrees>-1.77323260344564914703369140625</LongitudeDegrees>
            </Position>
            <AltitudeMeters>776.79998779296875</AltitudeMeters>
            <DistanceMeters>NAN</DistanceMeters>
          </Trackpoint>
          <Trackpoint>
            <Time>2021-08-09T12:40:12.000Z</Time>
            <Position>
              <LatitudeDegrees>43.062710501253604888916015625</LatitudeDegrees>
              <LongitudeDegrees>-1.77323721349239349365234375</LongitudeDegrees>
            </Position>
            <AltitudeMeters>776.20001220703125</AltitudeMeters>
            <DistanceMeters>NAN</DistanceMeters>
          </Trackpoint>
          <Trackpoint>
            <Time>2021-08-09T12:40:13.000Z</Time>
            <Position>
              <LatitudeDegrees>43.0626203119754791259765625</LatitudeDegrees>
              <LongitudeDegrees>-1.77324266172945499420166015625</LongitudeDegrees>
            </Position>
            <AltitudeMeters>775.79998779296875</AltitudeMeters>
            <DistanceMeters>NAN</DistanceMeters>
          </Trackpoint>
          <Trackpoint>
            <Time>2021-08-09T12:40:14.000Z</Time>
            <Position>
              <LatitudeDegrees>43.06253674440085887908935546875</LatitudeDegrees>
              <LongitudeDegrees>-1.773254983127117156982421875</LongitudeDegrees>
            </Position>
            <AltitudeMeters>775.20001220703125</AltitudeMeters>
            <DistanceMeters>NAN</DistanceMeters>
          </Trackpoint>
          <Trackpoint>
            <Time>2021-08-09T12:40:15.000Z</Time>
            <Position>
              <LatitudeDegrees>43.06246382184326648712158203125</LatitudeDegrees>
              <LongitudeDegrees>-1.77328289486467838287353515625</LongitudeDegrees>
            </Position>
            <AltitudeMeters>775</AltitudeMeters>
            <DistanceMeters>NAN</DistanceMeters>
          </Trackpoint>
          <Trackpoint>
            <Time>2021-08-09T12:40:16.000Z</Time>
            <Position>
              <LatitudeDegrees>43.06242786347866058349609375</LatitudeDegrees>
              <LongitudeDegrees>-1.7733406461775302886962890625</LongitudeDegrees>
            </Position>
            <AltitudeMeters>774.20001220703125</AltitudeMeters>
            <DistanceMeters>NAN</DistanceMeters>
          </Trackpoint>
          <Trackpoint>
            <Time>2021-08-09T12:40:17.000Z</Time>
            <Position>
              <LatitudeDegrees>43.06244194507598876953125</LatitudeDegrees>
              <LongitudeDegrees>-1.7734117247164249420166015625</LongitudeDegrees>
            </Position>
            <AltitudeMeters>773.5999755859375</AltitudeMeters>
            <DistanceMeters>NAN</DistanceMeters>
          </Trackpoint>
          <Trackpoint>
            <Time>2021-08-09T12:40:18.000Z</Time>
            <Position>
              <LatitudeDegrees>43.06248284876346588134765625</LatitudeDegrees>
              <LongitudeDegrees>-1.77346930839121341705322265625</LongitudeDegrees>
            </Position>
            <AltitudeMeters>773.20001220703125</AltitudeMeters>
            <DistanceMeters>NAN</DistanceMeters>
          </Trackpoint>
          <Trackpoint>
            <Time>2021-08-09T12:40:19.000Z</Time>
            <Position>
              <LatitudeDegrees>43.0625406838953495025634765625</LatitudeDegrees>
              <LongitudeDegrees>-1.773497052490711212158203125</LongitudeDegrees>
            </Position>
            <AltitudeMeters>772.5999755859375</AltitudeMeters>
            <DistanceMeters>NAN</DistanceMeters>
          </Trackpoint>
          <Trackpoint>
            <Time>2021-08-09T12:40:22.000Z</Time>
            <Position>
              <LatitudeDegrees>43.06275132112205028533935546875</LatitudeDegrees>
              <LongitudeDegrees>-1.7735273949801921844482421875</LongitudeDegrees>
            </Position>
            <AltitudeMeters>771.5999755859375</AltitudeMeters>
            <DistanceMeters>NAN</DistanceMeters>
          </Trackpoint>
          <Trackpoint>
            <Time>2021-08-09T12:40:23.000Z</Time>
            <Position>
              <LatitudeDegrees>43.0628260038793087005615234375</LatitudeDegrees>
              <LongitudeDegrees>-1.77353787235915660858154296875</LongitudeDegrees>
            </Position>
            <AltitudeMeters>771</AltitudeMeters>
            <DistanceMeters>NAN</DistanceMeters>
          </Trackpoint>
          <Trackpoint>
            <Time>2021-08-09T12:40:24.000Z</Time>
            <Position>
              <LatitudeDegrees>43.0629019439220428466796875</LatitudeDegrees>
              <LongitudeDegrees>-1.77354474551975727081298828125</LongitudeDegrees>
            </Position>
            <AltitudeMeters>770.4000244140625</AltitudeMeters>
            <DistanceMeters>NAN</DistanceMeters>
          </Trackpoint>
          <Trackpoint>
            <Time>2021-08-09T12:40:27.000Z</Time>
            <Position>
              <LatitudeDegrees>43.06314761750400066375732421875</LatitudeDegrees>
              <LongitudeDegrees>-1.77355765365064144134521484375</LongitudeDegrees>
            </Position>
            <AltitudeMeters>769</AltitudeMeters>
            <DistanceMeters>NAN</DistanceMeters>
          </Trackpoint>
          <Trackpoint>
            <Time>2021-08-09T12:40:29.000Z</Time>
            <Position>
              <LatitudeDegrees>43.06328809820115566253662109375</LatitudeDegrees>
              <LongitudeDegrees>-1.77358062006533145904541015625</LongitudeDegrees>
            </Position>
            <AltitudeMeters>768</AltitudeMeters>
            <DistanceMeters>NAN</DistanceMeters>
          </Trackpoint>
          <Trackpoint>
            <Time>2021-08-09T12:40:30.000Z</Time>
            <Position>
              <LatitudeDegrees>43.06336789391934871673583984375</LatitudeDegrees>
              <LongitudeDegrees>-1.77359503693878650665283203125</LongitudeDegrees>
            </Position>
            <AltitudeMeters>767.4000244140625</AltitudeMeters>
            <DistanceMeters>NAN</DistanceMeters>
          </Trackpoint>
          <Trackpoint>
            <Time>2021-08-09T12:40:31.000Z</Time>
            <Position>
              <LatitudeDegrees>43.06344836018979549407958984375</LatitudeDegrees>
              <LongitudeDegrees>-1.77360727451741695404052734375</LongitudeDegrees>
            </Position>
            <AltitudeMeters>766.79998779296875</AltitudeMeters>
            <DistanceMeters>NAN</DistanceMeters>
          </Trackpoint>
          <Trackpoint>
            <Time>2021-08-09T12:40:32.000Z</Time>
            <Position>
              <LatitudeDegrees>43.06353502906858921051025390625</LatitudeDegrees>
              <LongitudeDegrees>-1.77361808717250823974609375</LongitudeDegrees>
            </Position>
            <AltitudeMeters>766.5999755859375</AltitudeMeters>
            <DistanceMeters>NAN</DistanceMeters>
          </Trackpoint>
          <Trackpoint>
            <Time>2021-08-09T12:40:35.000Z</Time>
            <Position>
              <LatitudeDegrees>43.0637969635426998138427734375</LatitudeDegrees>
              <LongitudeDegrees>-1.77362387068569660186767578125</LongitudeDegrees>
            </Position>
            <AltitudeMeters>765.20001220703125</AltitudeMeters>
            <DistanceMeters>NAN</DistanceMeters>
          </Trackpoint>
          <Trackpoint>
            <Time>2021-08-09T12:40:37.000Z</Time>
            <Position>
              <LatitudeDegrees>43.0639726482331752777099609375</LatitudeDegrees>
              <LongitudeDegrees>-1.77359101362526416778564453125</LongitudeDegrees>
            </Position>
            <AltitudeMeters>764.5999755859375</AltitudeMeters>
            <DistanceMeters>NAN</DistanceMeters>
          </Trackpoint>
          <Trackpoint>
            <Time>2021-08-09T12:40:38.000Z</Time>
            <Position>
              <LatitudeDegrees>43.0640638433396816253662109375</LatitudeDegrees>
              <LongitudeDegrees>-1.77355715073645114898681640625</LongitudeDegrees>
            </Position>
            <AltitudeMeters>764</AltitudeMeters>
            <DistanceMeters>NAN</DistanceMeters>
          </Trackpoint>
          <Trackpoint>
            <Time>2021-08-09T12:40:39.000Z</Time>
            <Position>
              <LatitudeDegrees>43.06415948085486888885498046875</LatitudeDegrees>
              <LongitudeDegrees>-1.7735181748867034912109375</LongitudeDegrees>
            </Position>
            <AltitudeMeters>763.79998779296875</AltitudeMeters>
            <DistanceMeters>NAN</DistanceMeters>
          </Trackpoint>
          <Trackpoint>
            <Time>2021-08-09T12:40:42.000Z</Time>
            <Position>
              <LatitudeDegrees>43.064470700919628143310546875</LatitudeDegrees>
              <LongitudeDegrees>-1.7733661271631717681884765625</LongitudeDegrees>
            </Position>
            <AltitudeMeters>762.4000244140625</AltitudeMeters>
            <DistanceMeters>NAN</DistanceMeters>
          </Trackpoint>
          <Trackpoint>
            <Time>2021-08-09T12:40:43.000Z</Time>
            <Position>
              <LatitudeDegrees>43.06454873643815517425537109375</LatitudeDegrees>
              <LongitudeDegrees>-1.77331097424030303955078125</LongitudeDegrees>
            </Position>
            <AltitudeMeters>761.79998779296875</AltitudeMeters>
            <DistanceMeters>NAN</DistanceMeters>
          </Trackpoint>
          <Trackpoint>
            <Time>2021-08-09T12:40:44.000Z</Time>
            <Position>
              <LatitudeDegrees>43.0646338127553462982177734375</LatitudeDegrees>
              <LongitudeDegrees>-1.773254983127117156982421875</LongitudeDegrees>
            </Position>
            <AltitudeMeters>761.20001220703125</AltitudeMeters>
            <DistanceMeters>NAN</DistanceMeters>
          </Trackpoint>
          <Trackpoint>
            <Time>2021-08-09T12:40:46.000Z</Time>
            <Position>
              <LatitudeDegrees>43.0648265965282917022705078125</LatitudeDegrees>
              <LongitudeDegrees>-1.77309363149106502532958984375</LongitudeDegrees>
            </Position>
            <AltitudeMeters>760</AltitudeMeters>
            <DistanceMeters>NAN</DistanceMeters>
          </Trackpoint>
          <Trackpoint>
            <Time>2021-08-09T12:40:47.000Z</Time>
            <Position>
              <LatitudeDegrees>43.06489415466785430908203125</LatitudeDegrees>
              <LongitudeDegrees>-1.7730154283344745635986328125</LongitudeDegrees>
            </Position>
            <AltitudeMeters>759</AltitudeMeters>
            <DistanceMeters>NAN</DistanceMeters>
          </Trackpoint>
          <Trackpoint>
            <Time>2021-08-09T12:40:48.000Z</Time>
            <Position>
              <LatitudeDegrees>43.0649737827479839324951171875</LatitudeDegrees>
              <LongitudeDegrees>-1.7729265801608562469482421875</LongitudeDegrees>
            </Position>
            <AltitudeMeters>758.5999755859375</AltitudeMeters>
            <DistanceMeters>NAN</DistanceMeters>
          </Trackpoint>
          <Trackpoint>
            <Time>2021-08-09T12:40:49.000Z</Time>
            <Position>
              <LatitudeDegrees>43.0650596134364604949951171875</LatitudeDegrees>
              <LongitudeDegrees>-1.77282893098890781402587890625</LongitudeDegrees>
            </Position>
            <AltitudeMeters>758</AltitudeMeters>
            <DistanceMeters>NAN</DistanceMeters>
          </Trackpoint>
          <Trackpoint>
            <Time>2021-08-09T12:40:51.000Z</Time>
            <Position>
              <LatitudeDegrees>43.06520855985581874847412109375</LatitudeDegrees>
              <LongitudeDegrees>-1.77264704369008541107177734375</LongitudeDegrees>
            </Position>
            <AltitudeMeters>756.79998779296875</AltitudeMeters>
            <DistanceMeters>NAN</DistanceMeters>
          </Trackpoint>
          <Trackpoint>
            <Time>2021-08-09T12:40:53.000Z</Time>
            <Position>
              <LatitudeDegrees>43.0653566680848598480224609375</LatitudeDegrees>
              <LongitudeDegrees>-1.77248887717723846435546875</LongitudeDegrees>
            </Position>
            <AltitudeMeters>756.20001220703125</AltitudeMeters>
            <DistanceMeters>NAN</DistanceMeters>
          </Trackpoint>
          <Trackpoint>
            <Time>2021-08-09T12:40:54.000Z</Time>
            <Position>
              <LatitudeDegrees>43.06544132530689239501953125</LatitudeDegrees>
              <LongitudeDegrees>-1.772423498332500457763671875</LongitudeDegrees>
            </Position>
            <AltitudeMeters>755.5999755859375</AltitudeMeters>
            <DistanceMeters>NAN</DistanceMeters>
          </Trackpoint>
          <Trackpoint>
            <Time>2021-08-09T12:40:57.000Z</Time>
            <Position>
              <LatitudeDegrees>43.06573108769953250885009765625</LatitudeDegrees>
              <LongitudeDegrees>-1.77222912199795246124267578125</LongitudeDegrees>
            </Position>
            <AltitudeMeters>754.20001220703125</AltitudeMeters>
            <DistanceMeters>NAN</DistanceMeters>
          </Trackpoint>
          <Trackpoint>
            <Time>2021-08-09T12:40:58.000Z</Time>
            <Position>
              <LatitudeDegrees>43.0658471770584583282470703125</LatitudeDegrees>
              <LongitudeDegrees>-1.7721448838710784912109375</LongitudeDegrees>
            </Position>
            <AltitudeMeters>753.5999755859375</AltitudeMeters>
            <DistanceMeters>NAN</DistanceMeters>
          </Trackpoint>
          <Trackpoint>
            <Time>2021-08-09T12:40:59.000Z</Time>
            <Position>
              <LatitudeDegrees>43.0659370310604572296142578125</LatitudeDegrees>
              <LongitudeDegrees>-1.7720679379999637603759765625</LongitudeDegrees>
            </Position>
            <AltitudeMeters>753.20001220703125</AltitudeMeters>
            <DistanceMeters>NAN</DistanceMeters>
          </Trackpoint>
          <Trackpoint>
            <Time>2021-08-09T12:41:01.000Z</Time>
            <Position>
              <LatitudeDegrees>43.066113553941249847412109375</LatitudeDegrees>
              <LongitudeDegrees>-1.7719344981014728546142578125</LongitudeDegrees>
            </Position>
            <AltitudeMeters>751.4000244140625</AltitudeMeters>
            <DistanceMeters>NAN</DistanceMeters>
          </Trackpoint>
          <Trackpoint>
            <Time>2021-08-09T12:41:03.000Z</Time>
            <Position>
              <LatitudeDegrees>43.0663014762103557586669921875</LatitudeDegrees>
              <LongitudeDegrees>-1.7718536965548992156982421875</LongitudeDegrees>
            </Position>
            <AltitudeMeters>750</AltitudeMeters>
            <DistanceMeters>NAN</DistanceMeters>
          </Trackpoint>
          <Trackpoint>
            <Time>2021-08-09T12:41:05.000Z</Time>
            <Position>
              <LatitudeDegrees>43.06653507985174655914306640625</LatitudeDegrees>
              <LongitudeDegrees>-1.77178404293954372406005859375</LongitudeDegrees>
            </Position>
            <AltitudeMeters>748.79998779296875</AltitudeMeters>
            <DistanceMeters>NAN</DistanceMeters>
          </Trackpoint>
          <Trackpoint>
            <Time>2021-08-09T12:41:07.000Z</Time>
            <Position>
              <LatitudeDegrees>43.06674026884138584136962890625</LatitudeDegrees>
              <LongitudeDegrees>-1.7717467434704303741455078125</LongitudeDegrees>
            </Position>
            <AltitudeMeters>747.5999755859375</AltitudeMeters>
            <DistanceMeters>NAN</DistanceMeters>
          </Trackpoint>
          <Trackpoint>
            <Time>2021-08-09T12:41:08.000Z</Time>
            <Position>
              <LatitudeDegrees>43.0668513290584087371826171875</LatitudeDegrees>
              <LongitudeDegrees>-1.77172821946442127227783203125</LongitudeDegrees>
            </Position>
            <AltitudeMeters>746.5999755859375</AltitudeMeters>
            <DistanceMeters>NAN</DistanceMeters>
          </Trackpoint>
          <Trackpoint>
            <Time>2021-08-09T12:41:09.000Z</Time>
            <Position>
              <LatitudeDegrees>43.06696155108511447906494140625</LatitudeDegrees>
              <LongitudeDegrees>-1.77170709706842899322509765625</LongitudeDegrees>
            </Position>
            <AltitudeMeters>745.79998779296875</AltitudeMeters>
            <DistanceMeters>NAN</DistanceMeters>
          </Trackpoint>
          <Trackpoint>
            <Time>2021-08-09T12:41:10.000Z</Time>
            <Position>
              <LatitudeDegrees>43.0670742876827716827392578125</LatitudeDegrees>
              <LongitudeDegrees>-1.77168949507176876068115234375</LongitudeDegrees>
            </Position>
            <AltitudeMeters>744.5999755859375</AltitudeMeters>
            <DistanceMeters>NAN</DistanceMeters>
          </Trackpoint>
          <Trackpoint>
            <Time>2021-08-09T12:41:12.000Z</Time>
            <Position>
              <LatitudeDegrees>43.06730537675321102142333984375</LatitudeDegrees>
              <LongitudeDegrees>-1.77164607681334018707275390625</LongitudeDegrees>
            </Position>
            <AltitudeMeters>743</AltitudeMeters>
            <DistanceMeters>NAN</DistanceMeters>
          </Trackpoint>
          <Trackpoint>
            <Time>2021-08-09T12:41:14.000Z</Time>
            <Position>
              <LatitudeDegrees>43.06753034703433513641357421875</LatitudeDegrees>
              <LongitudeDegrees>-1.77162227220833301544189453125</LongitudeDegrees>
            </Position>
            <AltitudeMeters>741.20001220703125</AltitudeMeters>
            <DistanceMeters>NAN</DistanceMeters>
          </Trackpoint>
          <Trackpoint>
            <Time>2021-08-09T12:41:15.000Z</Time>
            <Position>
              <LatitudeDegrees>43.0676432512700557708740234375</LatitudeDegrees>
              <LongitudeDegrees>-1.7716136388480663299560546875</LongitudeDegrees>
            </Position>
            <AltitudeMeters>739.79998779296875</AltitudeMeters>
            <DistanceMeters>NAN</DistanceMeters>
          </Trackpoint>
          <Trackpoint>
            <Time>2021-08-09T12:41:17.000Z</Time>
            <Position>
              <LatitudeDegrees>43.0678625218570232391357421875</LatitudeDegrees>
              <LongitudeDegrees>-1.771594695746898651123046875</LongitudeDegrees>
            </Position>
            <AltitudeMeters>737.79998779296875</AltitudeMeters>
            <DistanceMeters>NAN</DistanceMeters>
          </Trackpoint>
          <Trackpoint>
            <Time>2021-08-09T12:41:18.000Z</Time>
            <Position>
              <LatitudeDegrees>43.06797475554049015045166015625</LatitudeDegrees>
              <LongitudeDegrees>-1.771599389612674713134765625</LongitudeDegrees>
            </Position>
            <AltitudeMeters>737.20001220703125</AltitudeMeters>
            <DistanceMeters>NAN</DistanceMeters>
          </Trackpoint>
          <Trackpoint>
            <Time>2021-08-09T12:41:19.000Z</Time>
            <Position>
              <LatitudeDegrees>43.0680898390710353851318359375</LatitudeDegrees>
              <LongitudeDegrees>-1.77161036990582942962646484375</LongitudeDegrees>
            </Position>
            <AltitudeMeters>735.79998779296875</AltitudeMeters>
            <DistanceMeters>NAN</DistanceMeters>
          </Trackpoint>
          <Trackpoint>
            <Time>2021-08-09T12:41:20.000Z</Time>
            <Position>
              <LatitudeDegrees>43.06820475496351718902587890625</LatitudeDegrees>
              <LongitudeDegrees>-1.7716377787292003631591796875</LongitudeDegrees>
            </Position>
            <AltitudeMeters>735.20001220703125</AltitudeMeters>
            <DistanceMeters>NAN</DistanceMeters>
          </Trackpoint>
          <Trackpoint>
            <Time>2021-08-09T12:41:21.000Z</Time>
            <Position>
              <LatitudeDegrees>43.06832394562661647796630859375</LatitudeDegrees>
              <LongitudeDegrees>-1.77168111316859722137451171875</LongitudeDegrees>
            </Position>
            <AltitudeMeters>733.79998779296875</AltitudeMeters>
            <DistanceMeters>NAN</DistanceMeters>
          </Trackpoint>
          <Trackpoint>
            <Time>2021-08-09T12:41:22.000Z</Time>
            <Position>
              <LatitudeDegrees>43.06844833306968212127685546875</LatitudeDegrees>
              <LongitudeDegrees>-1.77171665243804454803466796875</LongitudeDegrees>
            </Position>
            <AltitudeMeters>733.4000244140625</AltitudeMeters>
            <DistanceMeters>NAN</DistanceMeters>
          </Trackpoint>
          <Trackpoint>
            <Time>2021-08-09T12:41:23.000Z</Time>
            <Position>
              <LatitudeDegrees>43.068579845130443572998046875</LatitudeDegrees>
              <LongitudeDegrees>-1.7717517726123332977294921875</LongitudeDegrees>
            </Position>
            <AltitudeMeters>732.4000244140625</AltitudeMeters>
            <DistanceMeters>NAN</DistanceMeters>
          </Trackpoint>
          <Trackpoint>
            <Time>2021-08-09T12:41:25.000Z</Time>
            <Position>
              <LatitudeDegrees>43.0688267759978771209716796875</LatitudeDegrees>
              <LongitudeDegrees>-1.771832071244716644287109375</LongitudeDegrees>
            </Position>
            <AltitudeMeters>731</AltitudeMeters>
            <DistanceMeters>NAN</DistanceMeters>
          </Trackpoint>
          <Trackpoint>
            <Time>2021-08-09T12:41:26.000Z</Time>
            <Position>
              <LatitudeDegrees>43.068944625556468963623046875</LatitudeDegrees>
              <LongitudeDegrees>-1.7718724720180034637451171875</LongitudeDegrees>
            </Position>
            <AltitudeMeters>730</AltitudeMeters>
            <DistanceMeters>NAN</DistanceMeters>
          </Trackpoint>
          <Trackpoint>
            <Time>2021-08-09T12:41:27.000Z</Time>
            <Position>
              <LatitudeDegrees>43.0690621398389339447021484375</LatitudeDegrees>
              <LongitudeDegrees>-1.77190893329679965972900390625</LongitudeDegrees>
            </Position>
            <AltitudeMeters>729.5999755859375</AltitudeMeters>
            <DistanceMeters>NAN</DistanceMeters>
          </Trackpoint>
          <Trackpoint>
            <Time>2021-08-09T12:41:28.000Z</Time>
            <Position>
              <LatitudeDegrees>43.06917537935078144073486328125</LatitudeDegrees>
              <LongitudeDegrees>-1.7719462327659130096435546875</LongitudeDegrees>
            </Position>
            <AltitudeMeters>728.4000244140625</AltitudeMeters>
            <DistanceMeters>NAN</DistanceMeters>
          </Trackpoint>
          <Trackpoint>
            <Time>2021-08-09T12:41:30.000Z</Time>
            <Position>
              <LatitudeDegrees>43.0694078095257282257080078125</LatitudeDegrees>
              <LongitudeDegrees>-1.7720394395291805267333984375</LongitudeDegrees>
            </Position>
            <AltitudeMeters>726.79998779296875</AltitudeMeters>
            <DistanceMeters>NAN</DistanceMeters>
          </Trackpoint>
          <Trackpoint>
            <Time>2021-08-09T12:41:31.000Z</Time>
            <Position>
              <LatitudeDegrees>43.0695325322449207305908203125</LatitudeDegrees>
              <LongitudeDegrees>-1.77207388915121555328369140625</LongitudeDegrees>
            </Position>
            <AltitudeMeters>725.79998779296875</AltitudeMeters>
            <DistanceMeters>NAN</DistanceMeters>
          </Trackpoint>
          <Trackpoint>
            <Time>2021-08-09T12:41:32.000Z</Time>
            <Position>
              <LatitudeDegrees>43.06966044008731842041015625</LatitudeDegrees>
              <LongitudeDegrees>-1.772117726504802703857421875</LongitudeDegrees>
            </Position>
            <AltitudeMeters>725.4000244140625</AltitudeMeters>
            <DistanceMeters>NAN</DistanceMeters>
          </Trackpoint>
          <Trackpoint>
            <Time>2021-08-09T12:41:33.000Z</Time>
            <Position>
              <LatitudeDegrees>43.06978088803589344024658203125</LatitudeDegrees>
              <LongitudeDegrees>-1.77216256968677043914794921875</LongitudeDegrees>
            </Position>
            <AltitudeMeters>724.4000244140625</AltitudeMeters>
            <DistanceMeters>NAN</DistanceMeters>
          </Trackpoint>
          <Trackpoint>
            <Time>2021-08-09T12:41:35.000Z</Time>
            <Position>
              <LatitudeDegrees>43.07002262212336063385009765625</LatitudeDegrees>
              <LongitudeDegrees>-1.77224622108042240142822265625</LongitudeDegrees>
            </Position>
            <AltitudeMeters>722.79998779296875</AltitudeMeters>
            <DistanceMeters>NAN</DistanceMeters>
          </Trackpoint>
          <Trackpoint>
            <Time>2021-08-09T12:41:37.000Z</Time>
            <Position>
              <LatitudeDegrees>43.07025949470698833465576171875</LatitudeDegrees>
              <LongitudeDegrees>-1.77232786081731319427490234375</LongitudeDegrees>
            </Position>
            <AltitudeMeters>720.5999755859375</AltitudeMeters>
            <DistanceMeters>NAN</DistanceMeters>
          </Trackpoint>
          <Trackpoint>
            <Time>2021-08-09T12:41:38.000Z</Time>
            <Position>
              <LatitudeDegrees>43.0703737400472164154052734375</LatitudeDegrees>
              <LongitudeDegrees>-1.7723728716373443603515625</LongitudeDegrees>
            </Position>
            <AltitudeMeters>719</AltitudeMeters>
            <DistanceMeters>NAN</DistanceMeters>
          </Trackpoint>
          <Trackpoint>
            <Time>2021-08-09T12:41:40.000Z</Time>
            <Position>
              <LatitudeDegrees>43.07060533203184604644775390625</LatitudeDegrees>
              <LongitudeDegrees>-1.77245727740228176116943359375</LongitudeDegrees>
            </Position>
            <AltitudeMeters>717</AltitudeMeters>
            <DistanceMeters>NAN</DistanceMeters>
          </Trackpoint>
          <Trackpoint>
            <Time>2021-08-09T12:41:42.000Z</Time>
            <Position>
              <LatitudeDegrees>43.070841617882251739501953125</LatitudeDegrees>
              <LongitudeDegrees>-1.77253246307373046875</LongitudeDegrees>
            </Position>
            <AltitudeMeters>715</AltitudeMeters>
            <DistanceMeters>NAN</DistanceMeters>
          </Trackpoint>
          <Trackpoint>
            <Time>2021-08-09T12:41:43.000Z</Time>
            <Position>
              <LatitudeDegrees>43.0709604732692241668701171875</LatitudeDegrees>
              <LongitudeDegrees>-1.77256657741963863372802734375</LongitudeDegrees>
            </Position>
            <AltitudeMeters>714.4000244140625</AltitudeMeters>
            <DistanceMeters>NAN</DistanceMeters>
          </Trackpoint>
          <Trackpoint>
            <Time>2021-08-09T12:41:44.000Z</Time>
            <Position>
              <LatitudeDegrees>43.07107664644718170166015625</LatitudeDegrees>
              <LongitudeDegrees>-1.77260614000260829925537109375</LongitudeDegrees>
            </Position>
            <AltitudeMeters>713.20001220703125</AltitudeMeters>
            <DistanceMeters>NAN</DistanceMeters>
          </Trackpoint>
          <Trackpoint>
            <Time>2021-08-09T12:41:45.000Z</Time>
            <Position>
              <LatitudeDegrees>43.07119206525385379791259765625</LatitudeDegrees>
              <LongitudeDegrees>-1.7726543359458446502685546875</LongitudeDegrees>
            </Position>
            <AltitudeMeters>711.79998779296875</AltitudeMeters>
            <DistanceMeters>NAN</DistanceMeters>
          </Trackpoint>
          <Trackpoint>
            <Time>2021-08-09T12:41:46.000Z</Time>
            <Position>
              <LatitudeDegrees>43.07130220346152782440185546875</LatitudeDegrees>
              <LongitudeDegrees>-1.7727066390216350555419921875</LongitudeDegrees>
            </Position>
            <AltitudeMeters>711.4000244140625</AltitudeMeters>
            <DistanceMeters>NAN</DistanceMeters>
          </Trackpoint>
          <Trackpoint>
            <Time>2021-08-09T12:41:47.000Z</Time>
            <Position>
              <LatitudeDegrees>43.0714090727269649505615234375</LatitudeDegrees>
              <LongitudeDegrees>-1.77275567315518856048583984375</LongitudeDegrees>
            </Position>
            <AltitudeMeters>710.5999755859375</AltitudeMeters>
            <DistanceMeters>NAN</DistanceMeters>
          </Trackpoint>
          <Trackpoint>
            <Time>2021-08-09T12:41:48.000Z</Time>
            <Position>
              <LatitudeDegrees>43.07150940410792827606201171875</LatitudeDegrees>
              <LongitudeDegrees>-1.772803701460361480712890625</LongitudeDegrees>
            </Position>
            <AltitudeMeters>710</AltitudeMeters>
            <DistanceMeters>NAN</DistanceMeters>
          </Trackpoint>
          <Trackpoint>
            <Time>2021-08-09T12:41:49.000Z</Time>
            <Position>
              <LatitudeDegrees>43.07160437107086181640625</LatitudeDegrees>
              <LongitudeDegrees>-1.7728481255471706390380859375</LongitudeDegrees>
            </Position>
            <AltitudeMeters>709</AltitudeMeters>
            <DistanceMeters>NAN</DistanceMeters>
          </Trackpoint>
          <Trackpoint>
            <Time>2021-08-09T12:41:50.000Z</Time>
            <Position>
              <LatitudeDegrees>43.071698583662509918212890625</LatitudeDegrees>
              <LongitudeDegrees>-1.7728846706449985504150390625</LongitudeDegrees>
            </Position>
            <AltitudeMeters>708.20001220703125</AltitudeMeters>
            <DistanceMeters>NAN</DistanceMeters>
          </Trackpoint>
          <Trackpoint>
            <Time>2021-08-09T12:41:51.000Z</Time>
            <Position>
              <LatitudeDegrees>43.07179220952093601226806640625</LatitudeDegrees>
              <LongitudeDegrees>-1.7728886939585208892822265625</LongitudeDegrees>
            </Position>
            <AltitudeMeters>707.20001220703125</AltitudeMeters>
            <DistanceMeters>NAN</DistanceMeters>
          </Trackpoint>
          <Trackpoint>
            <Time>2021-08-09T12:41:52.000Z</Time>
            <Position>
              <LatitudeDegrees>43.07187234051525592803955078125</LatitudeDegrees>
              <LongitudeDegrees>-1.77284753881394863128662109375</LongitudeDegrees>
            </Position>
            <AltitudeMeters>706.20001220703125</AltitudeMeters>
            <DistanceMeters>NAN</DistanceMeters>
          </Trackpoint>
          <Trackpoint>
            <Time>2021-08-09T12:41:53.000Z</Time>
            <Position>
              <LatitudeDegrees>43.071931265294551849365234375</LatitudeDegrees>
              <LongitudeDegrees>-1.77276288159191608428955078125</LongitudeDegrees>
            </Position>
            <AltitudeMeters>705.5999755859375</AltitudeMeters>
            <DistanceMeters>NAN</DistanceMeters>
          </Trackpoint>
          <Trackpoint>
            <Time>2021-08-09T12:41:54.000Z</Time>
            <Position>
              <LatitudeDegrees>43.07196806184947490692138671875</LatitudeDegrees>
              <LongitudeDegrees>-1.7726415954530239105224609375</LongitudeDegrees>
            </Position>
            <AltitudeMeters>704</AltitudeMeters>
            <DistanceMeters>NAN</DistanceMeters>
          </Trackpoint>
          <Trackpoint>
            <Time>2021-08-09T12:41:56.000Z</Time>
            <Position>
              <LatitudeDegrees>43.07202137075364589691162109375</LatitudeDegrees>
              <LongitudeDegrees>-1.77240413613617420196533203125</LongitudeDegrees>
            </Position>
            <AltitudeMeters>702.4000244140625</AltitudeMeters>
            <DistanceMeters>NAN</DistanceMeters>
          </Trackpoint>
          <Trackpoint>
            <Time>2021-08-09T12:41:58.000Z</Time>
            <Position>
              <LatitudeDegrees>43.07207887060940265655517578125</LatitudeDegrees>
              <LongitudeDegrees>-1.7721609771251678466796875</LongitudeDegrees>
            </Position>
            <AltitudeMeters>701</AltitudeMeters>
            <DistanceMeters>NAN</DistanceMeters>
          </Trackpoint>
          <Trackpoint>
            <Time>2021-08-09T12:42:00.000Z</Time>
            <Position>
              <LatitudeDegrees>43.07213653810322284698486328125</LatitudeDegrees>
              <LongitudeDegrees>-1.771925278007984161376953125</LongitudeDegrees>
            </Position>
            <AltitudeMeters>700</AltitudeMeters>
            <DistanceMeters>NAN</DistanceMeters>
          </Trackpoint>
          <Trackpoint>
            <Time>2021-08-09T12:42:02.000Z</Time>
            <Position>
              <LatitudeDegrees>43.072200156748294830322265625</LatitudeDegrees>
              <LongitudeDegrees>-1.77167273126542568206787109375</LongitudeDegrees>
            </Position>
            <AltitudeMeters>699</AltitudeMeters>
            <DistanceMeters>NAN</DistanceMeters>
          </Trackpoint>
          <Trackpoint>
            <Time>2021-08-09T12:42:03.000Z</Time>
            <Position>
              <LatitudeDegrees>43.07221524417400360107421875</LatitudeDegrees>
              <LongitudeDegrees>-1.77152504213154315948486328125</LongitudeDegrees>
            </Position>
            <AltitudeMeters>698.20001220703125</AltitudeMeters>
            <DistanceMeters>NAN</DistanceMeters>
          </Trackpoint>
          <Trackpoint>
            <Time>2021-08-09T12:42:05.000Z</Time>
            <Position>
              <LatitudeDegrees>43.0722097121179103851318359375</LatitudeDegrees>
              <LongitudeDegrees>-1.77120745182037353515625</LongitudeDegrees>
            </Position>
            <AltitudeMeters>696.5999755859375</AltitudeMeters>
            <DistanceMeters>NAN</DistanceMeters>
          </Trackpoint>
          <Trackpoint>
            <Time>2021-08-09T12:42:08.000Z</Time>
            <Position>
              <LatitudeDegrees>43.072126396000385284423828125</LatitudeDegrees>
              <LongitudeDegrees>-1.7707372270524501800537109375</LongitudeDegrees>
            </Position>
            <AltitudeMeters>694</AltitudeMeters>
            <DistanceMeters>NAN</DistanceMeters>
          </Trackpoint>
          <Trackpoint>
            <Time>2021-08-09T12:42:10.000Z</Time>
            <Position>
              <LatitudeDegrees>43.07207836769521236419677734375</LatitudeDegrees>
              <LongitudeDegrees>-1.7704726941883563995361328125</LongitudeDegrees>
            </Position>
            <AltitudeMeters>692.5999755859375</AltitudeMeters>
            <DistanceMeters>NAN</DistanceMeters>
          </Trackpoint>
          <Trackpoint>
            <Time>2021-08-09T12:42:11.000Z</Time>
            <Position>
              <LatitudeDegrees>43.072050623595714569091796875</LatitudeDegrees>
              <LongitudeDegrees>-1.7703526653349399566650390625</LongitudeDegrees>
            </Position>
            <AltitudeMeters>692</AltitudeMeters>
            <DistanceMeters>NAN</DistanceMeters>
          </Trackpoint>
          <Trackpoint>
            <Time>2021-08-09T12:42:12.000Z</Time>
            <Position>
              <LatitudeDegrees>43.07200276292860507965087890625</LatitudeDegrees>
              <LongitudeDegrees>-1.770249567925930023193359375</LongitudeDegrees>
            </Position>
            <AltitudeMeters>691</AltitudeMeters>
            <DistanceMeters>NAN</DistanceMeters>
          </Trackpoint>
          <Trackpoint>
            <Time>2021-08-09T12:42:13.000Z</Time>
            <Position>
              <LatitudeDegrees>43.07193000800907611846923828125</LatitudeDegrees>
              <LongitudeDegrees>-1.77017019130289554595947265625</LongitudeDegrees>
            </Position>
            <AltitudeMeters>690.79998779296875</AltitudeMeters>
            <DistanceMeters>NAN</DistanceMeters>
          </Trackpoint>
          <Trackpoint>
            <Time>2021-08-09T12:42:14.000Z</Time>
            <Position>
              <LatitudeDegrees>43.0718194507062435150146484375</LatitudeDegrees>
              <LongitudeDegrees>-1.7701142840087413787841796875</LongitudeDegrees>
            </Position>
            <AltitudeMeters>690.20001220703125</AltitudeMeters>
            <DistanceMeters>NAN</DistanceMeters>
          </Trackpoint>
          <Trackpoint>
            <Time>2021-08-09T12:42:15.000Z</Time>
            <Position>
              <LatitudeDegrees>43.0716937221586704254150390625</LatitudeDegrees>
              <LongitudeDegrees>-1.77011621184647083282470703125</LongitudeDegrees>
            </Position>
            <AltitudeMeters>689.4000244140625</AltitudeMeters>
            <DistanceMeters>NAN</DistanceMeters>
          </Trackpoint>
          <Trackpoint>
            <Time>2021-08-09T12:42:16.000Z</Time>
            <Position>
              <LatitudeDegrees>43.0715827457606792449951171875</LatitudeDegrees>
              <LongitudeDegrees>-1.7701184749603271484375</LongitudeDegrees>
            </Position>
            <AltitudeMeters>689</AltitudeMeters>
            <DistanceMeters>NAN</DistanceMeters>
          </Trackpoint>
          <Trackpoint>
            <Time>2021-08-09T12:42:17.000Z</Time>
            <Position>
              <LatitudeDegrees>43.0714851804077625274658203125</LatitudeDegrees>
              <LongitudeDegrees>-1.7701136134564876556396484375</LongitudeDegrees>
            </Position>
            <AltitudeMeters>688.4000244140625</AltitudeMeters>
            <DistanceMeters>NAN</DistanceMeters>
          </Trackpoint>
          <Trackpoint>
            <Time>2021-08-09T12:42:18.000Z</Time>
            <Position>
              <LatitudeDegrees>43.071394152939319610595703125</LatitudeDegrees>
              <LongitudeDegrees>-1.77009006030857563018798828125</LongitudeDegrees>
            </Position>
            <AltitudeMeters>688</AltitudeMeters>
            <DistanceMeters>NAN</DistanceMeters>
          </Trackpoint>
          <Trackpoint>
            <Time>2021-08-09T12:42:19.000Z</Time>
            <Position>
              <LatitudeDegrees>43.071277141571044921875</LatitudeDegrees>
              <LongitudeDegrees>-1.770092658698558807373046875</LongitudeDegrees>
            </Position>
            <AltitudeMeters>687.20001220703125</AltitudeMeters>
            <DistanceMeters>NAN</DistanceMeters>
          </Trackpoint>
          <Trackpoint>
            <Time>2021-08-09T12:42:21.000Z</Time>
            <Position>
              <LatitudeDegrees>43.071116544306278228759765625</LatitudeDegrees>
              <LongitudeDegrees>-1.77005468867719173431396484375</LongitudeDegrees>
            </Position>
            <AltitudeMeters>686</AltitudeMeters>
            <DistanceMeters>NAN</DistanceMeters>
          </Trackpoint>
          <Trackpoint>
            <Time>2021-08-09T12:42:23.000Z</Time>
            <Position>
              <LatitudeDegrees>43.070915378630161285400390625</LatitudeDegrees>
              <LongitudeDegrees>-1.7700277827680110931396484375</LongitudeDegrees>
            </Position>
            <AltitudeMeters>684.5999755859375</AltitudeMeters>
            <DistanceMeters>NAN</DistanceMeters>
          </Trackpoint>
          <Trackpoint>
            <Time>2021-08-09T12:42:24.000Z</Time>
            <Position>
              <LatitudeDegrees>43.070915378630161285400390625</LatitudeDegrees>
              <LongitudeDegrees>-1.7700277827680110931396484375</LongitudeDegrees>
            </Position>
            <AltitudeMeters>683.5999755859375</AltitudeMeters>
            <DistanceMeters>NAN</DistanceMeters>
          </Trackpoint>
          <Trackpoint>
            <Time>2021-08-09T12:42:26.000Z</Time>
            <Position>
              <LatitudeDegrees>43.0706610716879367828369140625</LatitudeDegrees>
              <LongitudeDegrees>-1.769976317882537841796875</LongitudeDegrees>
            </Position>
            <AltitudeMeters>682.4000244140625</AltitudeMeters>
            <DistanceMeters>NAN</DistanceMeters>
          </Trackpoint>
          <Trackpoint>
            <Time>2021-08-09T12:42:27.000Z</Time>
            <Position>
              <LatitudeDegrees>43.0705725587904453277587890625</LatitudeDegrees>
              <LongitudeDegrees>-1.76995662041008472442626953125</LongitudeDegrees>
            </Position>
            <AltitudeMeters>682</AltitudeMeters>
            <DistanceMeters>NAN</DistanceMeters>
          </Trackpoint>
          <Trackpoint>
            <Time>2021-08-09T12:42:28.000Z</Time>
            <Position>
              <LatitudeDegrees>43.07046468369662761688232421875</LatitudeDegrees>
              <LongitudeDegrees>-1.7699292115867137908935546875</LongitudeDegrees>
            </Position>
            <AltitudeMeters>681.20001220703125</AltitudeMeters>
            <DistanceMeters>NAN</DistanceMeters>
          </Trackpoint>
          <Trackpoint>
            <Time>2021-08-09T12:42:29.000Z</Time>
            <Position>
              <LatitudeDegrees>43.07037818245589733123779296875</LatitudeDegrees>
              <LongitudeDegrees>-1.76990482024848461151123046875</LongitudeDegrees>
            </Position>
            <AltitudeMeters>680.4000244140625</AltitudeMeters>
            <DistanceMeters>NAN</DistanceMeters>
          </Trackpoint>
          <Trackpoint>
            <Time>2021-08-09T12:42:30.000Z</Time>
            <Position>
              <LatitudeDegrees>43.07030928321182727813720703125</LatitudeDegrees>
              <LongitudeDegrees>-1.76988805644214153289794921875</LongitudeDegrees>
            </Position>
            <AltitudeMeters>680.20001220703125</AltitudeMeters>
            <DistanceMeters>NAN</DistanceMeters>
          </Trackpoint>
          <Trackpoint>
            <Time>2021-08-09T12:42:33.000Z</Time>
            <Position>
              <LatitudeDegrees>43.07002312503755092620849609375</LatitudeDegrees>
              <LongitudeDegrees>-1.76981613971292972564697265625</LongitudeDegrees>
            </Position>
            <AltitudeMeters>679</AltitudeMeters>
            <DistanceMeters>NAN</DistanceMeters>
          </Trackpoint>
          <Trackpoint>
            <Time>2021-08-09T12:42:35.000Z</Time>
            <Position>
              <LatitudeDegrees>43.0698346160352230072021484375</LatitudeDegrees>
              <LongitudeDegrees>-1.76974095404148101806640625</LongitudeDegrees>
            </Position>
            <AltitudeMeters>677.79998779296875</AltitudeMeters>
            <DistanceMeters>NAN</DistanceMeters>
          </Trackpoint>
          <Trackpoint>
            <Time>2021-08-09T12:42:37.000Z</Time>
            <Position>
              <LatitudeDegrees>43.0696639604866504669189453125</LatitudeDegrees>
              <LongitudeDegrees>-1.76961648277938365936279296875</LongitudeDegrees>
            </Position>
            <AltitudeMeters>677.20001220703125</AltitudeMeters>
            <DistanceMeters>NAN</DistanceMeters>
          </Trackpoint>
          <Trackpoint>
            <Time>2021-08-09T12:42:38.000Z</Time>
            <Position>
              <LatitudeDegrees>43.06958676315844058990478515625</LatitudeDegrees>
              <LongitudeDegrees>-1.76954917609691619873046875</LongitudeDegrees>
            </Position>
            <AltitudeMeters>676.5999755859375</AltitudeMeters>
            <DistanceMeters>NAN</DistanceMeters>
          </Trackpoint>
          <Trackpoint>
            <Time>2021-08-09T12:42:39.000Z</Time>
            <Position>
              <LatitudeDegrees>43.06951828300952911376953125</LatitudeDegrees>
              <LongitudeDegrees>-1.769471056759357452392578125</LongitudeDegrees>
            </Position>
            <AltitudeMeters>676.4000244140625</AltitudeMeters>
            <DistanceMeters>NAN</DistanceMeters>
          </Trackpoint>
          <Trackpoint>
            <Time>2021-08-09T12:42:41.000Z</Time>
            <Position>
              <LatitudeDegrees>43.06939087808132171630859375</LatitudeDegrees>
              <LongitudeDegrees>-1.76927349530160427093505859375</LongitudeDegrees>
            </Position>
            <AltitudeMeters>675.4000244140625</AltitudeMeters>
            <DistanceMeters>NAN</DistanceMeters>
          </Trackpoint>
          <Trackpoint>
            <Time>2021-08-09T12:42:43.000Z</Time>
            <Position>
              <LatitudeDegrees>43.06929172016680240631103515625</LatitudeDegrees>
              <LongitudeDegrees>-1.7690330184996128082275390625</LongitudeDegrees>
            </Position>
            <AltitudeMeters>673.5999755859375</AltitudeMeters>
            <DistanceMeters>NAN</DistanceMeters>
          </Trackpoint>
          <Trackpoint>
            <Time>2021-08-09T12:42:44.000Z</Time>
            <Position>
              <LatitudeDegrees>43.06923204101622104644775390625</LatitudeDegrees>
              <LongitudeDegrees>-1.76892145536839962005615234375</LongitudeDegrees>
            </Position>
            <AltitudeMeters>673.4000244140625</AltitudeMeters>
            <DistanceMeters>NAN</DistanceMeters>
          </Trackpoint>
          <Trackpoint>
            <Time>2021-08-09T12:42:45.000Z</Time>
            <Position>
              <LatitudeDegrees>43.069166578352451324462890625</LatitudeDegrees>
              <LongitudeDegrees>-1.7688271589577198028564453125</LongitudeDegrees>
            </Position>
            <AltitudeMeters>672.5999755859375</AltitudeMeters>
            <DistanceMeters>NAN</DistanceMeters>
          </Trackpoint>
          <Trackpoint>
            <Time>2021-08-09T12:42:46.000Z</Time>
            <Position>
              <LatitudeDegrees>43.06908921338617801666259765625</LatitudeDegrees>
              <LongitudeDegrees>-1.7687567509710788726806640625</LongitudeDegrees>
            </Position>
            <AltitudeMeters>672.4000244140625</AltitudeMeters>
            <DistanceMeters>NAN</DistanceMeters>
          </Trackpoint>
          <Trackpoint>
            <Time>2021-08-09T12:42:47.000Z</Time>
            <Position>
              <LatitudeDegrees>43.06900723837316036224365234375</LatitudeDegrees>
              <LongitudeDegrees>-1.76870151422917842864990234375</LongitudeDegrees>
            </Position>
            <AltitudeMeters>671.20001220703125</AltitudeMeters>
            <DistanceMeters>NAN</DistanceMeters>
          </Trackpoint>
          <Trackpoint>
            <Time>2021-08-09T12:42:48.000Z</Time>
            <Position>
              <LatitudeDegrees>43.0689062364399433135986328125</LatitudeDegrees>
              <LongitudeDegrees>-1.76867343485355377197265625</LongitudeDegrees>
            </Position>
            <AltitudeMeters>671</AltitudeMeters>
            <DistanceMeters>NAN</DistanceMeters>
          </Trackpoint>
          <Trackpoint>
            <Time>2021-08-09T12:42:49.000Z</Time>
            <Position>
              <LatitudeDegrees>43.06880657561123371124267578125</LatitudeDegrees>
              <LongitudeDegrees>-1.76867335103452205657958984375</LongitudeDegrees>
            </Position>
            <AltitudeMeters>670</AltitudeMeters>
            <DistanceMeters>NAN</DistanceMeters>
          </Trackpoint>
          <Trackpoint>
            <Time>2021-08-09T12:42:50.000Z</Time>
            <Position>
              <LatitudeDegrees>43.06870817206799983978271484375</LatitudeDegrees>
              <LongitudeDegrees>-1.76868416368961334228515625</LongitudeDegrees>
            </Position>
            <AltitudeMeters>669.4000244140625</AltitudeMeters>
            <DistanceMeters>NAN</DistanceMeters>
          </Trackpoint>
          <Trackpoint>
            <Time>2021-08-09T12:42:51.000Z</Time>
            <Position>
              <LatitudeDegrees>43.06860499083995819091796875</LatitudeDegrees>
              <LongitudeDegrees>-1.76869413815438747406005859375</LongitudeDegrees>
            </Position>
            <AltitudeMeters>669</AltitudeMeters>
            <DistanceMeters>NAN</DistanceMeters>
          </Trackpoint>
          <Trackpoint>
            <Time>2021-08-09T12:42:52.000Z</Time>
            <Position>
              <LatitudeDegrees>43.06849912740290164947509765625</LatitudeDegrees>
              <LongitudeDegrees>-1.76869799382984638214111328125</LongitudeDegrees>
            </Position>
            <AltitudeMeters>668.4000244140625</AltitudeMeters>
            <DistanceMeters>NAN</DistanceMeters>
          </Trackpoint>
          <Trackpoint>
            <Time>2021-08-09T12:42:54.000Z</Time>
            <Position>
              <LatitudeDegrees>43.0683074332773685455322265625</LatitudeDegrees>
              <LongitudeDegrees>-1.768706627190113067626953125</LongitudeDegrees>
            </Position>
            <AltitudeMeters>667</AltitudeMeters>
            <DistanceMeters>NAN</DistanceMeters>
          </Trackpoint>
          <Trackpoint>
            <Time>2021-08-09T12:42:55.000Z</Time>
            <Position>
              <LatitudeDegrees>43.0682283081114292144775390625</LatitudeDegrees>
              <LongitudeDegrees>-1.7687138356268405914306640625</LongitudeDegrees>
            </Position>
            <AltitudeMeters>666.79998779296875</AltitudeMeters>
            <DistanceMeters>NAN</DistanceMeters>
          </Trackpoint>
          <Trackpoint>
            <Time>2021-08-09T12:42:56.000Z</Time>
            <Position>
              <LatitudeDegrees>43.06815915741026401519775390625</LatitudeDegrees>
              <LongitudeDegrees>-1.7687141709029674530029296875</LongitudeDegrees>
            </Position>
            <AltitudeMeters>665.79998779296875</AltitudeMeters>
            <DistanceMeters>NAN</DistanceMeters>
          </Trackpoint>
          <Trackpoint>
            <Time>2021-08-09T12:42:57.000Z</Time>
            <Position>
              <LatitudeDegrees>43.068103082478046417236328125</LatitudeDegrees>
              <LongitudeDegrees>-1.76868776790797710418701171875</LongitudeDegrees>
            </Position>
            <AltitudeMeters>664.5999755859375</AltitudeMeters>
            <DistanceMeters>NAN</DistanceMeters>
          </Trackpoint>
          <Trackpoint>
            <Time>2021-08-09T12:42:58.000Z</Time>
            <Position>
              <LatitudeDegrees>43.06807047687470912933349609375</LatitudeDegrees>
              <LongitudeDegrees>-1.76863831467926502227783203125</LongitudeDegrees>
            </Position>
            <AltitudeMeters>664.20001220703125</AltitudeMeters>
            <DistanceMeters>NAN</DistanceMeters>
          </Trackpoint>
          <Trackpoint>
            <Time>2021-08-09T12:42:59.000Z</Time>
            <Position>
              <LatitudeDegrees>43.0680670402944087982177734375</LatitudeDegrees>
              <LongitudeDegrees>-1.768569834530353546142578125</LongitudeDegrees>
            </Position>
            <AltitudeMeters>663.4000244140625</AltitudeMeters>
            <DistanceMeters>NAN</DistanceMeters>
          </Trackpoint>
          <Trackpoint>
            <Time>2021-08-09T12:43:00.000Z</Time>
            <Position>
              <LatitudeDegrees>43.0680834688246250152587890625</LatitudeDegrees>
              <LongitudeDegrees>-1.76850940100848674774169921875</LongitudeDegrees>
            </Position>
            <AltitudeMeters>663</AltitudeMeters>
            <DistanceMeters>NAN</DistanceMeters>
          </Trackpoint>
          <Trackpoint>
            <Time>2021-08-09T12:43:01.000Z</Time>
            <Position>
              <LatitudeDegrees>43.06811557151377201080322265625</LatitudeDegrees>
              <LongitudeDegrees>-1.76845827139914035797119140625</LongitudeDegrees>
            </Position>
            <AltitudeMeters>662.20001220703125</AltitudeMeters>
            <DistanceMeters>NAN</DistanceMeters>
          </Trackpoint>
          <Trackpoint>
            <Time>2021-08-09T12:43:02.000Z</Time>
            <Position>
              <LatitudeDegrees>43.0681501887738704681396484375</LatitudeDegrees>
              <LongitudeDegrees>-1.768409907817840576171875</LongitudeDegrees>
            </Position>
            <AltitudeMeters>661.79998779296875</AltitudeMeters>
            <DistanceMeters>NAN</DistanceMeters>
          </Trackpoint>
          <Trackpoint>
            <Time>2021-08-09T12:43:03.000Z</Time>
            <Position>
              <LatitudeDegrees>43.06818782351911067962646484375</LatitudeDegrees>
              <LongitudeDegrees>-1.7683594487607479095458984375</LongitudeDegrees>
            </Position>
            <AltitudeMeters>661.20001220703125</AltitudeMeters>
            <DistanceMeters>NAN</DistanceMeters>
          </Trackpoint>
          <Trackpoint>
            <Time>2021-08-09T12:43:04.000Z</Time>
            <Position>
              <LatitudeDegrees>43.0682306550443172454833984375</LatitudeDegrees>
              <LongitudeDegrees>-1.76830974407494068145751953125</LongitudeDegrees>
            </Position>
            <AltitudeMeters>660.79998779296875</AltitudeMeters>
            <DistanceMeters>NAN</DistanceMeters>
          </Trackpoint>
          <Trackpoint>
            <Time>2021-08-09T12:43:05.000Z</Time>
            <Position>
              <LatitudeDegrees>43.06828170083463191986083984375</LatitudeDegrees>
              <LongitudeDegrees>-1.7682602070271968841552734375</LongitudeDegrees>
            </Position>
            <AltitudeMeters>660.20001220703125</AltitudeMeters>
            <DistanceMeters>NAN</DistanceMeters>
          </Trackpoint>
          <Trackpoint>
            <Time>2021-08-09T12:43:06.000Z</Time>
            <Position>
              <LatitudeDegrees>43.0683366023004055023193359375</LatitudeDegrees>
              <LongitudeDegrees>-1.76821117289364337921142578125</LongitudeDegrees>
            </Position>
            <AltitudeMeters>659.79998779296875</AltitudeMeters>
            <DistanceMeters>NAN</DistanceMeters>
          </Trackpoint>
          <Trackpoint>
            <Time>2021-08-09T12:43:08.000Z</Time>
            <Position>
              <LatitudeDegrees>43.06845336221158504486083984375</LatitudeDegrees>
              <LongitudeDegrees>-1.768104471266269683837890625</LongitudeDegrees>
            </Position>
            <AltitudeMeters>659.4000244140625</AltitudeMeters>
            <DistanceMeters>NAN</DistanceMeters>
          </Trackpoint>
          <Trackpoint>
            <Time>2021-08-09T12:43:10.000Z</Time>
            <Position>
              <LatitudeDegrees>43.06855964474380016326904296875</LatitudeDegrees>
              <LongitudeDegrees>-1.767967678606510162353515625</LongitudeDegrees>
            </Position>
            <AltitudeMeters>658.79998779296875</AltitudeMeters>
            <DistanceMeters>NAN</DistanceMeters>
          </Trackpoint>
          <Trackpoint>
            <Time>2021-08-09T12:43:11.000Z</Time>
            <Position>
              <LatitudeDegrees>43.0686182342469692230224609375</LatitudeDegrees>
              <LongitudeDegrees>-1.76790121011435985565185546875</LongitudeDegrees>
            </Position>
            <AltitudeMeters>658.79998779296875</AltitudeMeters>
            <DistanceMeters>NAN</DistanceMeters>
          </Trackpoint>
          <Trackpoint>
            <Time>2021-08-09T12:43:13.000Z</Time>
            <Position>
              <LatitudeDegrees>43.06873977184295654296875</LatitudeDegrees>
              <LongitudeDegrees>-1.76776374690234661102294921875</LongitudeDegrees>
            </Position>
            <AltitudeMeters>657.5999755859375</AltitudeMeters>
            <DistanceMeters>NAN</DistanceMeters>
          </Trackpoint>
          <Trackpoint>
            <Time>2021-08-09T12:43:14.000Z</Time>
            <Position>
              <LatitudeDegrees>43.06880758143961429595947265625</LatitudeDegrees>
              <LongitudeDegrees>-1.767716892063617706298828125</LongitudeDegrees>
            </Position>
            <AltitudeMeters>657.20001220703125</AltitudeMeters>
            <DistanceMeters>NAN</DistanceMeters>
          </Trackpoint>
          <Trackpoint>
            <Time>2021-08-09T12:43:15.000Z</Time>
            <Position>
              <LatitudeDegrees>43.0688928253948688507080078125</LatitudeDegrees>
              <LongitudeDegrees>-1.7676972784101963043212890625</LongitudeDegrees>
            </Position>
            <AltitudeMeters>656.20001220703125</AltitudeMeters>
            <DistanceMeters>NAN</DistanceMeters>
          </Trackpoint>
          <Trackpoint>
            <Time>2021-08-09T12:43:16.000Z</Time>
            <Position>
              <LatitudeDegrees>43.0689669214189052581787109375</LatitudeDegrees>
              <LongitudeDegrees>-1.76769174635410308837890625</LongitudeDegrees>
            </Position>
            <AltitudeMeters>656</AltitudeMeters>
            <DistanceMeters>NAN</DistanceMeters>
          </Trackpoint>
          <Trackpoint>
            <Time>2021-08-09T12:43:17.000Z</Time>
            <Position>
              <LatitudeDegrees>43.0690410174429416656494140625</LatitudeDegrees>
              <LongitudeDegrees>-1.76768244244158267974853515625</LongitudeDegrees>
            </Position>
            <AltitudeMeters>655.4000244140625</AltitudeMeters>
            <DistanceMeters>NAN</DistanceMeters>
          </Trackpoint>
          <Trackpoint>
            <Time>2021-08-09T12:43:18.000Z</Time>
            <Position>
              <LatitudeDegrees>43.06911117397248744964599609375</LatitudeDegrees>
              <LongitudeDegrees>-1.76766484044492244720458984375</LongitudeDegrees>
            </Position>
            <AltitudeMeters>655.20001220703125</AltitudeMeters>
            <DistanceMeters>NAN</DistanceMeters>
          </Trackpoint>
          <Trackpoint>
            <Time>2021-08-09T12:43:20.000Z</Time>
            <Position>
              <LatitudeDegrees>43.06925551034510135650634765625</LatitudeDegrees>
              <LongitudeDegrees>-1.7676429636776447296142578125</LongitudeDegrees>
            </Position>
            <AltitudeMeters>654.20001220703125</AltitudeMeters>
            <DistanceMeters>NAN</DistanceMeters>
          </Trackpoint>
          <Trackpoint>
            <Time>2021-08-09T12:43:21.000Z</Time>
            <Position>
              <LatitudeDegrees>43.069312088191509246826171875</LatitudeDegrees>
              <LongitudeDegrees>-1.76763634197413921356201171875</LongitudeDegrees>
            </Position>
            <AltitudeMeters>653.79998779296875</AltitudeMeters>
            <DistanceMeters>NAN</DistanceMeters>
          </Trackpoint>
          <Trackpoint>
            <Time>2021-08-09T12:43:23.000Z</Time>
            <Position>
              <LatitudeDegrees>43.0694963224232196807861328125</LatitudeDegrees>
              <LongitudeDegrees>-1.76760667003691196441650390625</LongitudeDegrees>
            </Position>
            <AltitudeMeters>652.79998779296875</AltitudeMeters>
            <DistanceMeters>NAN</DistanceMeters>
          </Trackpoint>
          <Trackpoint>
            <Time>2021-08-09T12:43:24.000Z</Time>
            <Position>
              <LatitudeDegrees>43.06957771070301532745361328125</LatitudeDegrees>
              <LongitudeDegrees>-1.7676117829978466033935546875</LongitudeDegrees>
            </Position>
            <AltitudeMeters>652.4000244140625</AltitudeMeters>
            <DistanceMeters>NAN</DistanceMeters>
          </Trackpoint>
          <Trackpoint>
            <Time>2021-08-09T12:43:25.000Z</Time>
            <Position>
              <LatitudeDegrees>43.06964979507029056549072265625</LatitudeDegrees>
              <LongitudeDegrees>-1.76763734780251979827880859375</LongitudeDegrees>
            </Position>
            <AltitudeMeters>652.20001220703125</AltitudeMeters>
            <DistanceMeters>NAN</DistanceMeters>
          </Trackpoint>
          <Trackpoint>
            <Time>2021-08-09T12:43:26.000Z</Time>
            <Position>
              <LatitudeDegrees>43.06972925551235675811767578125</LatitudeDegrees>
              <LongitudeDegrees>-1.767698116600513458251953125</LongitudeDegrees>
            </Position>
            <AltitudeMeters>651.4000244140625</AltitudeMeters>
            <DistanceMeters>NAN</DistanceMeters>
          </Trackpoint>
          <Trackpoint>
            <Time>2021-08-09T12:43:27.000Z</Time>
            <Position>
              <LatitudeDegrees>43.06979413144290447235107421875</LatitudeDegrees>
              <LongitudeDegrees>-1.7677552811801433563232421875</LongitudeDegrees>
            </Position>
            <AltitudeMeters>651</AltitudeMeters>
            <DistanceMeters>NAN</DistanceMeters>
          </Trackpoint>
          <Trackpoint>
            <Time>2021-08-09T12:43:28.000Z</Time>
            <Position>
              <LatitudeDegrees>43.06989102624356746673583984375</LatitudeDegrees>
              <LongitudeDegrees>-1.76782258786261081695556640625</LongitudeDegrees>
            </Position>
            <AltitudeMeters>650.79998779296875</AltitudeMeters>
            <DistanceMeters>NAN</DistanceMeters>
          </Trackpoint>
          <Trackpoint>
            <Time>2021-08-09T12:43:29.000Z</Time>
            <Position>
              <LatitudeDegrees>43.06998138315975666046142578125</LatitudeDegrees>
              <LongitudeDegrees>-1.7678860388696193695068359375</LongitudeDegrees>
            </Position>
            <AltitudeMeters>650.20001220703125</AltitudeMeters>
            <DistanceMeters>NAN</DistanceMeters>
          </Trackpoint>
          <Trackpoint>
            <Time>2021-08-09T12:43:31.000Z</Time>
            <Position>
              <LatitudeDegrees>43.07012639008462429046630859375</LatitudeDegrees>
              <LongitudeDegrees>-1.76797966472804546356201171875</LongitudeDegrees>
            </Position>
            <AltitudeMeters>649</AltitudeMeters>
            <DistanceMeters>NAN</DistanceMeters>
          </Trackpoint>
          <Trackpoint>
            <Time>2021-08-09T12:43:33.000Z</Time>
            <Position>
              <LatitudeDegrees>43.07032286189496517181396484375</LatitudeDegrees>
              <LongitudeDegrees>-1.76807119511067867279052734375</LongitudeDegrees>
            </Position>
            <AltitudeMeters>648</AltitudeMeters>
            <DistanceMeters>NAN</DistanceMeters>
          </Trackpoint>
          <Trackpoint>
            <Time>2021-08-09T12:43:34.000Z</Time>
            <Position>
              <LatitudeDegrees>43.0704233609139919281005859375</LatitudeDegrees>
              <LongitudeDegrees>-1.76810807548463344573974609375</LongitudeDegrees>
            </Position>
            <AltitudeMeters>647.4000244140625</AltitudeMeters>
            <DistanceMeters>NAN</DistanceMeters>
          </Trackpoint>
          <Trackpoint>
            <Time>2021-08-09T12:43:37.000Z</Time>
            <Position>
              <LatitudeDegrees>43.07068143971264362335205078125</LatitudeDegrees>
              <LongitudeDegrees>-1.76818602718412876129150390625</LongitudeDegrees>
            </Position>
            <AltitudeMeters>646.20001220703125</AltitudeMeters>
            <DistanceMeters>NAN</DistanceMeters>
          </Trackpoint>
          <Trackpoint>
            <Time>2021-08-09T12:43:39.000Z</Time>
            <Position>
              <LatitudeDegrees>43.07090842165052890777587890625</LatitudeDegrees>
              <LongitudeDegrees>-1.76821452565491199493408203125</LongitudeDegrees>
            </Position>
            <AltitudeMeters>645</AltitudeMeters>
            <DistanceMeters>NAN</DistanceMeters>
          </Trackpoint>
          <Trackpoint>
            <Time>2021-08-09T12:43:41.000Z</Time>
            <Position>
              <LatitudeDegrees>43.07111285626888275146484375</LatitudeDegrees>
              <LongitudeDegrees>-1.7681767232716083526611328125</LongitudeDegrees>
            </Position>
            <AltitudeMeters>643.4000244140625</AltitudeMeters>
            <DistanceMeters>NAN</DistanceMeters>
          </Trackpoint>
          <Trackpoint>
            <Time>2021-08-09T12:43:43.000Z</Time>
            <Position>
              <LatitudeDegrees>43.0713426880538463592529296875</LatitudeDegrees>
              <LongitudeDegrees>-1.76817546598613262176513671875</LongitudeDegrees>
            </Position>
            <AltitudeMeters>641.79998779296875</AltitudeMeters>
            <DistanceMeters>NAN</DistanceMeters>
          </Trackpoint>
          <Trackpoint>
            <Time>2021-08-09T12:43:45.000Z</Time>
            <Position>
              <LatitudeDegrees>43.071577884256839752197265625</LatitudeDegrees>
              <LongitudeDegrees>-1.768144033849239349365234375</LongitudeDegrees>
            </Position>
            <AltitudeMeters>639.79998779296875</AltitudeMeters>
            <DistanceMeters>NAN</DistanceMeters>
          </Trackpoint>
          <Trackpoint>
            <Time>2021-08-09T12:43:46.000Z</Time>
            <Position>
              <LatitudeDegrees>43.07168642990291118621826171875</LatitudeDegrees>
              <LongitudeDegrees>-1.76811930723488330841064453125</LongitudeDegrees>
            </Position>
            <AltitudeMeters>639</AltitudeMeters>
            <DistanceMeters>NAN</DistanceMeters>
          </Trackpoint>
          <Trackpoint>
            <Time>2021-08-09T12:43:47.000Z</Time>
            <Position>
              <LatitudeDegrees>43.0717889405786991119384765625</LatitudeDegrees>
              <LongitudeDegrees>-1.76808997057378292083740234375</LongitudeDegrees>
            </Position>
            <AltitudeMeters>637.5999755859375</AltitudeMeters>
            <DistanceMeters>NAN</DistanceMeters>
          </Trackpoint>
          <Trackpoint>
            <Time>2021-08-09T12:43:48.000Z</Time>
            <Position>
              <LatitudeDegrees>43.07188390754163265228271484375</LatitudeDegrees>
              <LongitudeDegrees>-1.7680560238659381866455078125</LongitudeDegrees>
            </Position>
            <AltitudeMeters>636</AltitudeMeters>
            <DistanceMeters>NAN</DistanceMeters>
          </Trackpoint>
          <Trackpoint>
            <Time>2021-08-09T12:43:49.000Z</Time>
            <Position>
              <LatitudeDegrees>43.07197786867618560791015625</LatitudeDegrees>
              <LongitudeDegrees>-1.76802542991936206817626953125</LongitudeDegrees>
            </Position>
            <AltitudeMeters>635.20001220703125</AltitudeMeters>
            <DistanceMeters>NAN</DistanceMeters>
          </Trackpoint>
          <Trackpoint>
            <Time>2021-08-09T12:43:50.000Z</Time>
            <Position>
              <LatitudeDegrees>43.0720709078013896942138671875</LatitudeDegrees>
              <LongitudeDegrees>-1.76798142492771148681640625</LongitudeDegrees>
            </Position>
            <AltitudeMeters>634.20001220703125</AltitudeMeters>
            <DistanceMeters>NAN</DistanceMeters>
          </Trackpoint>
          <Trackpoint>
            <Time>2021-08-09T12:43:51.000Z</Time>
            <Position>
              <LatitudeDegrees>43.07215967215597629547119140625</LatitudeDegrees>
              <LongitudeDegrees>-1.7679257690906524658203125</LongitudeDegrees>
            </Position>
            <AltitudeMeters>633.5999755859375</AltitudeMeters>
            <DistanceMeters>NAN</DistanceMeters>
          </Trackpoint>
          <Trackpoint>
            <Time>2021-08-09T12:43:52.000Z</Time>
            <Position>
              <LatitudeDegrees>43.07222220115363597869873046875</LatitudeDegrees>
              <LongitudeDegrees>-1.76783666945993900299072265625</LongitudeDegrees>
            </Position>
            <AltitudeMeters>632.79998779296875</AltitudeMeters>
            <DistanceMeters>NAN</DistanceMeters>
          </Trackpoint>
          <Trackpoint>
            <Time>2021-08-09T12:43:53.000Z</Time>
            <Position>
              <LatitudeDegrees>43.07226344011723995208740234375</LatitudeDegrees>
              <LongitudeDegrees>-1.7677281238138675689697265625</LongitudeDegrees>
            </Position>
            <AltitudeMeters>632.4000244140625</AltitudeMeters>
            <DistanceMeters>NAN</DistanceMeters>
          </Trackpoint>
          <Trackpoint>
            <Time>2021-08-09T12:43:54.000Z</Time>
            <Position>
              <LatitudeDegrees>43.072292692959308624267578125</LatitudeDegrees>
              <LongitudeDegrees>-1.76762645132839679718017578125</LongitudeDegrees>
            </Position>
            <AltitudeMeters>631.5999755859375</AltitudeMeters>
            <DistanceMeters>NAN</DistanceMeters>
          </Trackpoint>
          <Trackpoint>
            <Time>2021-08-09T12:43:55.000Z</Time>
            <Position>
              <LatitudeDegrees>43.072292692959308624267578125</LatitudeDegrees>
              <LongitudeDegrees>-1.76762645132839679718017578125</LongitudeDegrees>
            </Position>
            <AltitudeMeters>631.4000244140625</AltitudeMeters>
            <DistanceMeters>NAN</DistanceMeters>
          </Trackpoint>
          <Trackpoint>
            <Time>2021-08-09T12:43:56.000Z</Time>
            <Position>
              <LatitudeDegrees>43.07232697494328022003173828125</LatitudeDegrees>
              <LongitudeDegrees>-1.76743232645094394683837890625</LongitudeDegrees>
            </Position>
            <AltitudeMeters>630.79998779296875</AltitudeMeters>
            <DistanceMeters>NAN</DistanceMeters>
          </Trackpoint>
          <Trackpoint>
            <Time>2021-08-09T12:43:57.000Z</Time>
            <Position>
              <LatitudeDegrees>43.0723418109118938446044921875</LatitudeDegrees>
              <LongitudeDegrees>-1.76733878441154956817626953125</LongitudeDegrees>
            </Position>
            <AltitudeMeters>630.5999755859375</AltitudeMeters>
            <DistanceMeters>NAN</DistanceMeters>
          </Trackpoint>
          <Trackpoint>
            <Time>2021-08-09T12:43:58.000Z</Time>
            <Position>
              <LatitudeDegrees>43.072356395423412322998046875</LatitudeDegrees>
              <LongitudeDegrees>-1.76724960096180438995361328125</LongitudeDegrees>
            </Position>
            <AltitudeMeters>630.5999755859375</AltitudeMeters>
            <DistanceMeters>NAN</DistanceMeters>
          </Trackpoint>
          <Trackpoint>
            <Time>2021-08-09T12:43:59.000Z</Time>
            <Position>
              <LatitudeDegrees>43.0723723210394382476806640625</LatitudeDegrees>
              <LongitudeDegrees>-1.76716242916882038116455078125</LongitudeDegrees>
            </Position>
            <AltitudeMeters>630.5999755859375</AltitudeMeters>
            <DistanceMeters>NAN</DistanceMeters>
          </Trackpoint>
          <Trackpoint>
            <Time>2021-08-09T12:44:00.000Z</Time>
            <Position>
              <LatitudeDegrees>43.07238346897065639495849609375</LatitudeDegrees>
              <LongitudeDegrees>-1.7670755088329315185546875</LongitudeDegrees>
            </Position>
            <AltitudeMeters>630.4000244140625</AltitudeMeters>
            <DistanceMeters>NAN</DistanceMeters>
          </Trackpoint>
          <Trackpoint>
            <Time>2021-08-09T12:44:01.000Z</Time>
            <Position>
              <LatitudeDegrees>43.0723874084651470184326171875</LatitudeDegrees>
              <LongitudeDegrees>-1.76698791794478893280029296875</LongitudeDegrees>
            </Position>
            <AltitudeMeters>630.4000244140625</AltitudeMeters>
            <DistanceMeters>NAN</DistanceMeters>
          </Trackpoint>
          <Trackpoint>
            <Time>2021-08-09T12:44:02.000Z</Time>
            <Position>
              <LatitudeDegrees>43.07238958775997161865234375</LatitudeDegrees>
              <LongitudeDegrees>-1.76690627820789813995361328125</LongitudeDegrees>
            </Position>
            <AltitudeMeters>630.5999755859375</AltitudeMeters>
            <DistanceMeters>NAN</DistanceMeters>
          </Trackpoint>
          <Trackpoint>
            <Time>2021-08-09T12:44:03.000Z</Time>
            <Position>
              <LatitudeDegrees>43.0723917670547962188720703125</LatitudeDegrees>
              <LongitudeDegrees>-1.76682815887033939361572265625</LongitudeDegrees>
            </Position>
            <AltitudeMeters>630.5999755859375</AltitudeMeters>
            <DistanceMeters>NAN</DistanceMeters>
          </Trackpoint>
          <Trackpoint>
            <Time>2021-08-09T12:44:04.000Z</Time>
            <Position>
              <LatitudeDegrees>43.072391264140605926513671875</LatitudeDegrees>
              <LongitudeDegrees>-1.76675104536116123199462890625</LongitudeDegrees>
            </Position>
            <AltitudeMeters>631</AltitudeMeters>
            <DistanceMeters>NAN</DistanceMeters>
          </Trackpoint>
          <Trackpoint>
            <Time>2021-08-09T12:44:05.000Z</Time>
            <Position>
              <LatitudeDegrees>43.072390593588352203369140625</LatitudeDegrees>
              <LongitudeDegrees>-1.76667845807969570159912109375</LongitudeDegrees>
            </Position>
            <AltitudeMeters>631.20001220703125</AltitudeMeters>
            <DistanceMeters>NAN</DistanceMeters>
          </Trackpoint>
          <Trackpoint>
            <Time>2021-08-09T12:44:06.000Z</Time>
            <Position>
              <LatitudeDegrees>43.0723843909800052642822265625</LatitudeDegrees>
              <LongitudeDegrees>-1.76660536788403987884521484375</LongitudeDegrees>
            </Position>
            <AltitudeMeters>631.4000244140625</AltitudeMeters>
            <DistanceMeters>NAN</DistanceMeters>
          </Trackpoint>
          <Trackpoint>
            <Time>2021-08-09T12:44:07.000Z</Time>
            <Position>
              <LatitudeDegrees>43.07238045148551464080810546875</LatitudeDegrees>
              <LongitudeDegrees>-1.7665365524590015411376953125</LongitudeDegrees>
            </Position>
            <AltitudeMeters>631.5999755859375</AltitudeMeters>
            <DistanceMeters>NAN</DistanceMeters>
          </Trackpoint>
          <Trackpoint>
            <Time>2021-08-09T12:44:08.000Z</Time>
            <Position>
              <LatitudeDegrees>43.0723793618381023406982421875</LatitudeDegrees>
              <LongitudeDegrees>-1.7664711736142635345458984375</LongitudeDegrees>
            </Position>
            <AltitudeMeters>632</AltitudeMeters>
            <DistanceMeters>NAN</DistanceMeters>
          </Trackpoint>
          <Trackpoint>
            <Time>2021-08-09T12:44:09.000Z</Time>
            <Position>
              <LatitudeDegrees>43.0723850615322589874267578125</LatitudeDegrees>
              <LongitudeDegrees>-1.76640671677887439727783203125</LongitudeDegrees>
            </Position>
            <AltitudeMeters>632.20001220703125</AltitudeMeters>
            <DistanceMeters>NAN</DistanceMeters>
          </Trackpoint>
          <Trackpoint>
            <Time>2021-08-09T12:44:10.000Z</Time>
            <Position>
              <LatitudeDegrees>43.0723880790174007415771484375</LatitudeDegrees>
              <LongitudeDegrees>-1.76634200848639011383056640625</LongitudeDegrees>
            </Position>
            <AltitudeMeters>632.5999755859375</AltitudeMeters>
            <DistanceMeters>NAN</DistanceMeters>
          </Trackpoint>
          <Trackpoint>
            <Time>2021-08-09T12:44:11.000Z</Time>
            <Position>
              <LatitudeDegrees>43.07238816283643245697021484375</LatitudeDegrees>
              <LongitudeDegrees>-1.76626875065267086029052734375</LongitudeDegrees>
            </Position>
            <AltitudeMeters>632.79998779296875</AltitudeMeters>
            <DistanceMeters>NAN</DistanceMeters>
          </Trackpoint>
          <Trackpoint>
            <Time>2021-08-09T12:44:14.000Z</Time>
            <Position>
              <LatitudeDegrees>43.07238279841840267181396484375</LatitudeDegrees>
              <LongitudeDegrees>-1.7660269327461719512939453125</LongitudeDegrees>
            </Position>
            <AltitudeMeters>633</AltitudeMeters>
            <DistanceMeters>NAN</DistanceMeters>
          </Trackpoint>
          <Trackpoint>
            <Time>2021-08-09T12:44:16.000Z</Time>
            <Position>
              <LatitudeDegrees>43.0723746679723262786865234375</LatitudeDegrees>
              <LongitudeDegrees>-1.765876226127147674560546875</LongitudeDegrees>
            </Position>
            <AltitudeMeters>633.20001220703125</AltitudeMeters>
            <DistanceMeters>NAN</DistanceMeters>
          </Trackpoint>
          <Trackpoint>
            <Time>2021-08-09T12:44:19.000Z</Time>
            <Position>
              <LatitudeDegrees>43.0723605863749980926513671875</LatitudeDegrees>
              <LongitudeDegrees>-1.76563977263867855072021484375</LongitudeDegrees>
            </Position>
            <AltitudeMeters>633.20001220703125</AltitudeMeters>
            <DistanceMeters>NAN</DistanceMeters>
          </Trackpoint>
          <Trackpoint>
            <Time>2021-08-09T12:44:20.000Z</Time>
            <Position>
              <LatitudeDegrees>43.0723766796290874481201171875</LatitudeDegrees>
              <LongitudeDegrees>-1.76556584425270557403564453125</LongitudeDegrees>
            </Position>
            <AltitudeMeters>633</AltitudeMeters>
            <DistanceMeters>NAN</DistanceMeters>
          </Trackpoint>
          <Trackpoint>
            <Time>2021-08-09T12:44:21.000Z</Time>
            <Position>
              <LatitudeDegrees>43.0724092014133930206298828125</LatitudeDegrees>
              <LongitudeDegrees>-1.76552326418459415435791015625</LongitudeDegrees>
            </Position>
            <AltitudeMeters>633</AltitudeMeters>
            <DistanceMeters>NAN</DistanceMeters>
          </Trackpoint>
          <Trackpoint>
            <Time>2021-08-09T12:44:22.000Z</Time>
            <Position>
              <LatitudeDegrees>43.072456978261470794677734375</LatitudeDegrees>
              <LongitudeDegrees>-1.765521503984928131103515625</LongitudeDegrees>
            </Position>
            <AltitudeMeters>632.79998779296875</AltitudeMeters>
            <DistanceMeters>NAN</DistanceMeters>
          </Trackpoint>
          <Trackpoint>
            <Time>2021-08-09T12:44:23.000Z</Time>
            <Position>
              <LatitudeDegrees>43.0725050903856754302978515625</LatitudeDegrees>
              <LongitudeDegrees>-1.76556047983467578887939453125</LongitudeDegrees>
            </Position>
            <AltitudeMeters>632.5999755859375</AltitudeMeters>
            <DistanceMeters>NAN</DistanceMeters>
          </Trackpoint>
          <Trackpoint>
            <Time>2021-08-09T12:44:24.000Z</Time>
            <Position>
              <LatitudeDegrees>43.0725486762821674346923828125</LatitudeDegrees>
              <LongitudeDegrees>-1.76561345346271991729736328125</LongitudeDegrees>
            </Position>
            <AltitudeMeters>632.20001220703125</AltitudeMeters>
            <DistanceMeters>NAN</DistanceMeters>
          </Trackpoint>
          <Trackpoint>
            <Time>2021-08-09T12:44:25.000Z</Time>
            <Position>
              <LatitudeDegrees>43.07258681394159793853759765625</LatitudeDegrees>
              <LongitudeDegrees>-1.76567296497523784637451171875</LongitudeDegrees>
            </Position>
            <AltitudeMeters>631.5999755859375</AltitudeMeters>
            <DistanceMeters>NAN</DistanceMeters>
          </Trackpoint>
          <Trackpoint>
            <Time>2021-08-09T12:44:26.000Z</Time>
            <Position>
              <LatitudeDegrees>43.07263140566647052764892578125</LatitudeDegrees>
              <LongitudeDegrees>-1.765744797885417938232421875</LongitudeDegrees>
            </Position>
            <AltitudeMeters>631.4000244140625</AltitudeMeters>
            <DistanceMeters>NAN</DistanceMeters>
          </Trackpoint>
          <Trackpoint>
            <Time>2021-08-09T12:44:27.000Z</Time>
            <Position>
              <LatitudeDegrees>43.07264649309217929840087890625</LatitudeDegrees>
              <LongitudeDegrees>-1.76581193692982196807861328125</LongitudeDegrees>
            </Position>
            <AltitudeMeters>631.20001220703125</AltitudeMeters>
            <DistanceMeters>NAN</DistanceMeters>
          </Trackpoint>
          <Trackpoint>
            <Time>2021-08-09T12:44:28.000Z</Time>
            <Position>
              <LatitudeDegrees>43.0726603232324123382568359375</LatitudeDegrees>
              <LongitudeDegrees>-1.76586625166237354278564453125</LongitudeDegrees>
            </Position>
            <AltitudeMeters>631</AltitudeMeters>
            <DistanceMeters>NAN</DistanceMeters>
          </Trackpoint>
          <Trackpoint>
            <Time>2021-08-09T12:44:29.000Z</Time>
            <Position>
              <LatitudeDegrees>43.07266895659267902374267578125</LatitudeDegrees>
              <LongitudeDegrees>-1.76592559553682804107666015625</LongitudeDegrees>
            </Position>
            <AltitudeMeters>630</AltitudeMeters>
            <DistanceMeters>NAN</DistanceMeters>
          </Trackpoint>
          <Trackpoint>
            <Time>2021-08-09T12:44:30.000Z</Time>
            <Position>
              <LatitudeDegrees>43.0726785957813262939453125</LatitudeDegrees>
              <LongitudeDegrees>-1.76598024554550647735595703125</LongitudeDegrees>
            </Position>
            <AltitudeMeters>629.4000244140625</AltitudeMeters>
            <DistanceMeters>NAN</DistanceMeters>
          </Trackpoint>
          <Trackpoint>
            <Time>2021-08-09T12:44:31.000Z</Time>
            <Position>
              <LatitudeDegrees>43.07268437929451465606689453125</LatitudeDegrees>
              <LongitudeDegrees>-1.766041852533817291259765625</LongitudeDegrees>
            </Position>
            <AltitudeMeters>628.5999755859375</AltitudeMeters>
            <DistanceMeters>NAN</DistanceMeters>
          </Trackpoint>
          <Trackpoint>
            <Time>2021-08-09T12:44:33.000Z</Time>
            <Position>
              <LatitudeDegrees>43.07268823496997356414794921875</LatitudeDegrees>
              <LongitudeDegrees>-1.76616800017654895782470703125</LongitudeDegrees>
            </Position>
            <AltitudeMeters>627.4000244140625</AltitudeMeters>
            <DistanceMeters>NAN</DistanceMeters>
          </Trackpoint>
          <Trackpoint>
            <Time>2021-08-09T12:44:35.000Z</Time>
            <Position>
              <LatitudeDegrees>43.07270516641438007354736328125</LatitudeDegrees>
              <LongitudeDegrees>-1.76634921692311763763427734375</LongitudeDegrees>
            </Position>
            <AltitudeMeters>626.20001220703125</AltitudeMeters>
            <DistanceMeters>NAN</DistanceMeters>
          </Trackpoint>
          <Trackpoint>
            <Time>2021-08-09T12:44:37.000Z</Time>
            <Position>
              <LatitudeDegrees>43.0727310664951801300048828125</LatitudeDegrees>
              <LongitudeDegrees>-1.76656781695783138275146484375</LongitudeDegrees>
            </Position>
            <AltitudeMeters>625.20001220703125</AltitudeMeters>
            <DistanceMeters>NAN</DistanceMeters>
          </Trackpoint>
          <Trackpoint>
            <Time>2021-08-09T12:44:39.000Z</Time>
            <Position>
              <LatitudeDegrees>43.07276652194559574127197265625</LatitudeDegrees>
              <LongitudeDegrees>-1.766822040081024169921875</LongitudeDegrees>
            </Position>
            <AltitudeMeters>623.20001220703125</AltitudeMeters>
            <DistanceMeters>NAN</DistanceMeters>
          </Trackpoint>
          <Trackpoint>
            <Time>2021-08-09T12:44:40.000Z</Time>
            <Position>
              <LatitudeDegrees>43.07278479449450969696044921875</LatitudeDegrees>
              <LongitudeDegrees>-1.7669536359608173370361328125</LongitudeDegrees>
            </Position>
            <AltitudeMeters>622.79998779296875</AltitudeMeters>
            <DistanceMeters>NAN</DistanceMeters>
          </Trackpoint>
          <Trackpoint>
            <Time>2021-08-09T12:44:41.000Z</Time>
            <Position>
              <LatitudeDegrees>43.072794936597347259521484375</LatitudeDegrees>
              <LongitudeDegrees>-1.7670837230980396270751953125</LongitudeDegrees>
            </Position>
            <AltitudeMeters>621.5999755859375</AltitudeMeters>
            <DistanceMeters>NAN</DistanceMeters>
          </Trackpoint>
          <Trackpoint>
            <Time>2021-08-09T12:44:43.000Z</Time>
            <Position>
              <LatitudeDegrees>43.072799630463123321533203125</LatitudeDegrees>
              <LongitudeDegrees>-1.76734984852373600006103515625</LongitudeDegrees>
            </Position>
            <AltitudeMeters>619.5999755859375</AltitudeMeters>
            <DistanceMeters>NAN</DistanceMeters>
          </Trackpoint>
          <Trackpoint>
            <Time>2021-08-09T12:44:44.000Z</Time>
            <Position>
              <LatitudeDegrees>43.072802983224391937255859375</LatitudeDegrees>
              <LongitudeDegrees>-1.7674823664128780364990234375</LongitudeDegrees>
            </Position>
            <AltitudeMeters>619</AltitudeMeters>
            <DistanceMeters>NAN</DistanceMeters>
          </Trackpoint>
          <Trackpoint>
            <Time>2021-08-09T12:44:45.000Z</Time>
            <Position>
              <LatitudeDegrees>43.0728071741759777069091796875</LatitudeDegrees>
              <LongitudeDegrees>-1.76761019043624401092529296875</LongitudeDegrees>
            </Position>
            <AltitudeMeters>618</AltitudeMeters>
            <DistanceMeters>NAN</DistanceMeters>
          </Trackpoint>
          <Trackpoint>
            <Time>2021-08-09T12:44:46.000Z</Time>
            <Position>
              <LatitudeDegrees>43.0728115327656269073486328125</LatitudeDegrees>
              <LongitudeDegrees>-1.767741031944751739501953125</LongitudeDegrees>
            </Position>
            <AltitudeMeters>617</AltitudeMeters>
            <DistanceMeters>NAN</DistanceMeters>
          </Trackpoint>
          <Trackpoint>
            <Time>2021-08-09T12:44:48.000Z</Time>
            <Position>
              <LatitudeDegrees>43.07282016612589359283447265625</LatitudeDegrees>
              <LongitudeDegrees>-1.76799072884023189544677734375</LongitudeDegrees>
            </Position>
            <AltitudeMeters>615.5999755859375</AltitudeMeters>
            <DistanceMeters>NAN</DistanceMeters>
          </Trackpoint>
          <Trackpoint>
            <Time>2021-08-09T12:44:50.000Z</Time>
            <Position>
              <LatitudeDegrees>43.07281748391687870025634765625</LatitudeDegrees>
              <LongitudeDegrees>-1.76822324283421039581298828125</LongitudeDegrees>
            </Position>
            <AltitudeMeters>614.5999755859375</AltitudeMeters>
            <DistanceMeters>NAN</DistanceMeters>
          </Trackpoint>
          <Trackpoint>
            <Time>2021-08-09T12:44:51.000Z</Time>
            <Position>
              <LatitudeDegrees>43.07283726520836353302001953125</LatitudeDegrees>
              <LongitudeDegrees>-1.768337823450565338134765625</LongitudeDegrees>
            </Position>
            <AltitudeMeters>614.20001220703125</AltitudeMeters>
            <DistanceMeters>NAN</DistanceMeters>
          </Trackpoint>
          <Trackpoint>
            <Time>2021-08-09T12:44:52.000Z</Time>
            <Position>
              <LatitudeDegrees>43.07287297211587429046630859375</LatitudeDegrees>
              <LongitudeDegrees>-1.7684425972402095794677734375</LongitudeDegrees>
            </Position>
            <AltitudeMeters>613.4000244140625</AltitudeMeters>
            <DistanceMeters>NAN</DistanceMeters>
          </Trackpoint>
          <Trackpoint>
            <Time>2021-08-09T12:44:53.000Z</Time>
            <Position>
              <LatitudeDegrees>43.0729255266487598419189453125</LatitudeDegrees>
              <LongitudeDegrees>-1.76854544319212436676025390625</LongitudeDegrees>
            </Position>
            <AltitudeMeters>613.20001220703125</AltitudeMeters>
            <DistanceMeters>NAN</DistanceMeters>
          </Trackpoint>
          <Trackpoint>
            <Time>2021-08-09T12:44:54.000Z</Time>
            <Position>
              <LatitudeDegrees>43.07298679836094379425048828125</LatitudeDegrees>
              <LongitudeDegrees>-1.768649630248546600341796875</LongitudeDegrees>
            </Position>
            <AltitudeMeters>612.5999755859375</AltitudeMeters>
            <DistanceMeters>NAN</DistanceMeters>
          </Trackpoint>
          <Trackpoint>
            <Time>2021-08-09T12:44:55.000Z</Time>
            <Position>
              <LatitudeDegrees>43.07304966263473033905029296875</LatitudeDegrees>
              <LongitudeDegrees>-1.76875599659979343414306640625</LongitudeDegrees>
            </Position>
            <AltitudeMeters>612.20001220703125</AltitudeMeters>
            <DistanceMeters>NAN</DistanceMeters>
          </Trackpoint>
          <Trackpoint>
            <Time>2021-08-09T12:44:56.000Z</Time>
            <Position>
              <LatitudeDegrees>43.07310171425342559814453125</LatitudeDegrees>
              <LongitudeDegrees>-1.76884551532566547393798828125</LongitudeDegrees>
            </Position>
            <AltitudeMeters>611.79998779296875</AltitudeMeters>
            <DistanceMeters>NAN</DistanceMeters>
          </Trackpoint>
          <Trackpoint>
            <Time>2021-08-09T12:44:59.000Z</Time>
            <Position>
              <LatitudeDegrees>43.073303885757923126220703125</LatitudeDegrees>
              <LongitudeDegrees>-1.7692105472087860107421875</LongitudeDegrees>
            </Position>
            <AltitudeMeters>610.4000244140625</AltitudeMeters>
            <DistanceMeters>NAN</DistanceMeters>
          </Trackpoint>
          <Trackpoint>
            <Time>2021-08-09T12:45:01.000Z</Time>
            <Position>
              <LatitudeDegrees>43.07346624322235584259033203125</LatitudeDegrees>
              <LongitudeDegrees>-1.76951698958873748779296875</LongitudeDegrees>
            </Position>
            <AltitudeMeters>609</AltitudeMeters>
            <DistanceMeters>NAN</DistanceMeters>
          </Trackpoint>
          <Trackpoint>
            <Time>2021-08-09T12:45:02.000Z</Time>
            <Position>
              <LatitudeDegrees>43.07353849522769451141357421875</LatitudeDegrees>
              <LongitudeDegrees>-1.76965721882879734039306640625</LongitudeDegrees>
            </Position>
            <AltitudeMeters>607.5999755859375</AltitudeMeters>
            <DistanceMeters>NAN</DistanceMeters>
          </Trackpoint>
          <Trackpoint>
            <Time>2021-08-09T12:45:04.000Z</Time>
            <Position>
              <LatitudeDegrees>43.0736889503896236419677734375</LatitudeDegrees>
              <LongitudeDegrees>-1.76994170062243938446044921875</LongitudeDegrees>
            </Position>
            <AltitudeMeters>605.5999755859375</AltitudeMeters>
            <DistanceMeters>NAN</DistanceMeters>
          </Trackpoint>
          <Trackpoint>
            <Time>2021-08-09T12:45:06.000Z</Time>
            <Position>
              <LatitudeDegrees>43.07383018545806407928466796875</LatitudeDegrees>
              <LongitudeDegrees>-1.7702235840260982513427734375</LongitudeDegrees>
            </Position>
            <AltitudeMeters>603</AltitudeMeters>
            <DistanceMeters>NAN</DistanceMeters>
          </Trackpoint>
          <Trackpoint>
            <Time>2021-08-09T12:45:08.000Z</Time>
            <Position>
              <LatitudeDegrees>43.07397871278226375579833984375</LatitudeDegrees>
              <LongitudeDegrees>-1.77050328813493251800537109375</LongitudeDegrees>
            </Position>
            <AltitudeMeters>601.20001220703125</AltitudeMeters>
            <DistanceMeters>NAN</DistanceMeters>
          </Trackpoint>
          <Trackpoint>
            <Time>2021-08-09T12:45:09.000Z</Time>
            <Position>
              <LatitudeDegrees>43.0740533955395221710205078125</LatitudeDegrees>
              <LongitudeDegrees>-1.77063806913793087005615234375</LongitudeDegrees>
            </Position>
            <AltitudeMeters>599.79998779296875</AltitudeMeters>
            <DistanceMeters>NAN</DistanceMeters>
          </Trackpoint>
          <Trackpoint>
            <Time>2021-08-09T12:45:11.000Z</Time>
            <Position>
              <LatitudeDegrees>43.07420007884502410888671875</LatitudeDegrees>
              <LongitudeDegrees>-1.77091266028583049774169921875</LongitudeDegrees>
            </Position>
            <AltitudeMeters>598</AltitudeMeters>
            <DistanceMeters>NAN</DistanceMeters>
          </Trackpoint>
          <Trackpoint>
            <Time>2021-08-09T12:45:13.000Z</Time>
            <Position>
              <LatitudeDegrees>43.0743316747248172760009765625</LatitudeDegrees>
              <LongitudeDegrees>-1.7711828090250492095947265625</LongitudeDegrees>
            </Position>
            <AltitudeMeters>596.20001220703125</AltitudeMeters>
            <DistanceMeters>NAN</DistanceMeters>
          </Trackpoint>
          <Trackpoint>
            <Time>2021-08-09T12:45:14.000Z</Time>
            <Position>
              <LatitudeDegrees>43.07439495809376239776611328125</LatitudeDegrees>
              <LongitudeDegrees>-1.77130862139165401458740234375</LongitudeDegrees>
            </Position>
            <AltitudeMeters>595.4000244140625</AltitudeMeters>
            <DistanceMeters>NAN</DistanceMeters>
          </Trackpoint>
          <Trackpoint>
            <Time>2021-08-09T12:45:15.000Z</Time>
            <Position>
              <LatitudeDegrees>43.07445396669209003448486328125</LatitudeDegrees>
              <LongitudeDegrees>-1.77143904380500316619873046875</LongitudeDegrees>
            </Position>
            <AltitudeMeters>594.4000244140625</AltitudeMeters>
            <DistanceMeters>NAN</DistanceMeters>
          </Trackpoint>
          <Trackpoint>
            <Time>2021-08-09T12:45:16.000Z</Time>
            <Position>
              <LatitudeDegrees>43.07450526393949985504150390625</LatitudeDegrees>
              <LongitudeDegrees>-1.77157692611217498779296875</LongitudeDegrees>
            </Position>
            <AltitudeMeters>593.4000244140625</AltitudeMeters>
            <DistanceMeters>NAN</DistanceMeters>
          </Trackpoint>
          <Trackpoint>
            <Time>2021-08-09T12:45:17.000Z</Time>
            <Position>
              <LatitudeDegrees>43.07454700581729412078857421875</LatitudeDegrees>
              <LongitudeDegrees>-1.77171514369547367095947265625</LongitudeDegrees>
            </Position>
            <AltitudeMeters>593</AltitudeMeters>
            <DistanceMeters>NAN</DistanceMeters>
          </Trackpoint>
          <Trackpoint>
            <Time>2021-08-09T12:45:19.000Z</Time>
            <Position>
              <LatitudeDegrees>43.0746096186339855194091796875</LatitudeDegrees>
              <LongitudeDegrees>-1.77199007011950016021728515625</LongitudeDegrees>
            </Position>
            <AltitudeMeters>592.20001220703125</AltitudeMeters>
            <DistanceMeters>NAN</DistanceMeters>
          </Trackpoint>
          <Trackpoint>
            <Time>2021-08-09T12:45:20.000Z</Time>
            <Position>
              <LatitudeDegrees>43.07462646625936031341552734375</LatitudeDegrees>
              <LongitudeDegrees>-1.77213214337825775146484375</LongitudeDegrees>
            </Position>
            <AltitudeMeters>591.4000244140625</AltitudeMeters>
            <DistanceMeters>NAN</DistanceMeters>
          </Trackpoint>
          <Trackpoint>
            <Time>2021-08-09T12:45:21.000Z</Time>
            <Position>
              <LatitudeDegrees>43.0746285617351531982421875</LatitudeDegrees>
              <LongitudeDegrees>-1.77226935513317584991455078125</LongitudeDegrees>
            </Position>
            <AltitudeMeters>591.20001220703125</AltitudeMeters>
            <DistanceMeters>NAN</DistanceMeters>
          </Trackpoint>
          <Trackpoint>
            <Time>2021-08-09T12:45:22.000Z</Time>
            <Position>
              <LatitudeDegrees>43.074616827070713043212890625</LatitudeDegrees>
              <LongitudeDegrees>-1.7724025435745716094970703125</LongitudeDegrees>
            </Position>
            <AltitudeMeters>590.4000244140625</AltitudeMeters>
            <DistanceMeters>NAN</DistanceMeters>
          </Trackpoint>
          <Trackpoint>
            <Time>2021-08-09T12:45:23.000Z</Time>
            <Position>
              <LatitudeDegrees>43.07459981180727481842041015625</LatitudeDegrees>
              <LongitudeDegrees>-1.77253724075853824615478515625</LongitudeDegrees>
            </Position>
            <AltitudeMeters>590</AltitudeMeters>
            <DistanceMeters>NAN</DistanceMeters>
          </Trackpoint>
          <Trackpoint>
            <Time>2021-08-09T12:45:24.000Z</Time>
            <Position>
              <LatitudeDegrees>43.07458958588540554046630859375</LatitudeDegrees>
              <LongitudeDegrees>-1.77267570979893207550048828125</LongitudeDegrees>
            </Position>
            <AltitudeMeters>589.5999755859375</AltitudeMeters>
            <DistanceMeters>NAN</DistanceMeters>
          </Trackpoint>
          <Trackpoint>
            <Time>2021-08-09T12:45:26.000Z</Time>
            <Position>
              <LatitudeDegrees>43.074612803757190704345703125</LatitudeDegrees>
              <LongitudeDegrees>-1.77294694818556308746337890625</LongitudeDegrees>
            </Position>
            <AltitudeMeters>588.5999755859375</AltitudeMeters>
            <DistanceMeters>NAN</DistanceMeters>
          </Trackpoint>
          <Trackpoint>
            <Time>2021-08-09T12:45:27.000Z</Time>
            <Position>
              <LatitudeDegrees>43.0746585689485073089599609375</LatitudeDegrees>
              <LongitudeDegrees>-1.77307762205600738525390625</LongitudeDegrees>
            </Position>
            <AltitudeMeters>588.20001220703125</AltitudeMeters>
            <DistanceMeters>NAN</DistanceMeters>
          </Trackpoint>
          <Trackpoint>
            <Time>2021-08-09T12:45:28.000Z</Time>
            <Position>
              <LatitudeDegrees>43.07471799664199352264404296875</LatitudeDegrees>
              <LongitudeDegrees>-1.7732102237641811370849609375</LongitudeDegrees>
            </Position>
            <AltitudeMeters>587.79998779296875</AltitudeMeters>
            <DistanceMeters>NAN</DistanceMeters>
          </Trackpoint>
          <Trackpoint>
            <Time>2021-08-09T12:45:29.000Z</Time>
            <Position>
              <LatitudeDegrees>43.0747822858393192291259765625</LatitudeDegrees>
              <LongitudeDegrees>-1.77333720959722995758056640625</LongitudeDegrees>
            </Position>
            <AltitudeMeters>587.20001220703125</AltitudeMeters>
            <DistanceMeters>NAN</DistanceMeters>
          </Trackpoint>
          <Trackpoint>
            <Time>2021-08-09T12:45:30.000Z</Time>
            <Position>
              <LatitudeDegrees>43.0748449824750423431396484375</LatitudeDegrees>
              <LongitudeDegrees>-1.7734573222696781158447265625</LongitudeDegrees>
            </Position>
            <AltitudeMeters>586.5999755859375</AltitudeMeters>
            <DistanceMeters>NAN</DistanceMeters>
          </Trackpoint>
          <Trackpoint>
            <Time>2021-08-09T12:45:31.000Z</Time>
            <Position>
              <LatitudeDegrees>43.0749083496630191802978515625</LatitudeDegrees>
              <LongitudeDegrees>-1.77356779575347900390625</LongitudeDegrees>
            </Position>
            <AltitudeMeters>586</AltitudeMeters>
            <DistanceMeters>NAN</DistanceMeters>
          </Trackpoint>
          <Trackpoint>
            <Time>2021-08-09T12:45:32.000Z</Time>
            <Position>
              <LatitudeDegrees>43.074970878660678863525390625</LatitudeDegrees>
              <LongitudeDegrees>-1.77363778464496135711669921875</LongitudeDegrees>
            </Position>
            <AltitudeMeters>585</AltitudeMeters>
            <DistanceMeters>NAN</DistanceMeters>
          </Trackpoint>
          <Trackpoint>
            <Time>2021-08-09T12:45:33.000Z</Time>
            <Position>
              <LatitudeDegrees>43.07506249286234378814697265625</LatitudeDegrees>
              <LongitudeDegrees>-1.77369796670973300933837890625</LongitudeDegrees>
            </Position>
            <AltitudeMeters>584.4000244140625</AltitudeMeters>
            <DistanceMeters>NAN</DistanceMeters>
          </Trackpoint>
          <Trackpoint>
            <Time>2021-08-09T12:45:34.000Z</Time>
            <Position>
              <LatitudeDegrees>43.07518101297318935394287109375</LatitudeDegrees>
              <LongitudeDegrees>-1.77375881932675838470458984375</LongitudeDegrees>
            </Position>
            <AltitudeMeters>583</AltitudeMeters>
            <DistanceMeters>NAN</DistanceMeters>
          </Trackpoint>
          <Trackpoint>
            <Time>2021-08-09T12:45:35.000Z</Time>
            <Position>
              <LatitudeDegrees>43.07526265271008014678955078125</LatitudeDegrees>
              <LongitudeDegrees>-1.773800812661647796630859375</LongitudeDegrees>
            </Position>
            <AltitudeMeters>582.5999755859375</AltitudeMeters>
            <DistanceMeters>NAN</DistanceMeters>
          </Trackpoint>
          <Trackpoint>
            <Time>2021-08-09T12:45:36.000Z</Time>
            <Position>
              <LatitudeDegrees>43.07536390610039234161376953125</LatitudeDegrees>
              <LongitudeDegrees>-1.77386141382157802581787109375</LongitudeDegrees>
            </Position>
            <AltitudeMeters>581.4000244140625</AltitudeMeters>
            <DistanceMeters>NAN</DistanceMeters>
          </Trackpoint>
          <Trackpoint>
            <Time>2021-08-09T12:45:37.000Z</Time>
            <Position>
              <LatitudeDegrees>43.07546432130038738250732421875</LatitudeDegrees>
              <LongitudeDegrees>-1.77393048070371150970458984375</LongitudeDegrees>
            </Position>
            <AltitudeMeters>580.20001220703125</AltitudeMeters>
            <DistanceMeters>NAN</DistanceMeters>
          </Trackpoint>
          <Trackpoint>
            <Time>2021-08-09T12:45:39.000Z</Time>
            <Position>
              <LatitudeDegrees>43.0756892077624797821044921875</LatitudeDegrees>
              <LongitudeDegrees>-1.774045564234256744384765625</LongitudeDegrees>
            </Position>
            <AltitudeMeters>578.79998779296875</AltitudeMeters>
            <DistanceMeters>NAN</DistanceMeters>
          </Trackpoint>
          <Trackpoint>
            <Time>2021-08-09T12:45:41.000Z</Time>
            <Position>
              <LatitudeDegrees>43.07587721385061740875244140625</LatitudeDegrees>
              <LongitudeDegrees>-1.77410222589969635009765625</LongitudeDegrees>
            </Position>
            <AltitudeMeters>577.20001220703125</AltitudeMeters>
            <DistanceMeters>NAN</DistanceMeters>
          </Trackpoint>
          <Trackpoint>
            <Time>2021-08-09T12:45:43.000Z</Time>
            <Position>
              <LatitudeDegrees>43.07607829570770263671875</LatitudeDegrees>
              <LongitudeDegrees>-1.7741533555090427398681640625</LongitudeDegrees>
            </Position>
            <AltitudeMeters>575.79998779296875</AltitudeMeters>
            <DistanceMeters>NAN</DistanceMeters>
          </Trackpoint>
          <Trackpoint>
            <Time>2021-08-09T12:45:45.000Z</Time>
            <Position>
              <LatitudeDegrees>43.07627853937447071075439453125</LatitudeDegrees>
              <LongitudeDegrees>-1.77416886202991008758544921875</LongitudeDegrees>
            </Position>
            <AltitudeMeters>574.79998779296875</AltitudeMeters>
            <DistanceMeters>NAN</DistanceMeters>
          </Trackpoint>
          <Trackpoint>
            <Time>2021-08-09T12:45:46.000Z</Time>
            <Position>
              <LatitudeDegrees>43.07637828402221202850341796875</LatitudeDegrees>
              <LongitudeDegrees>-1.7741699516773223876953125</LongitudeDegrees>
            </Position>
            <AltitudeMeters>574.20001220703125</AltitudeMeters>
            <DistanceMeters>NAN</DistanceMeters>
          </Trackpoint>
          <Trackpoint>
            <Time>2021-08-09T12:45:47.000Z</Time>
            <Position>
              <LatitudeDegrees>43.07649697177112102508544921875</LatitudeDegrees>
              <LongitudeDegrees>-1.77417757920920848846435546875</LongitudeDegrees>
            </Position>
            <AltitudeMeters>574</AltitudeMeters>
            <DistanceMeters>NAN</DistanceMeters>
          </Trackpoint>
          <Trackpoint>
            <Time>2021-08-09T12:45:48.000Z</Time>
            <Position>
              <LatitudeDegrees>43.0765726603567600250244140625</LatitudeDegrees>
              <LongitudeDegrees>-1.7741748131811618804931640625</LongitudeDegrees>
            </Position>
            <AltitudeMeters>573.5999755859375</AltitudeMeters>
            <DistanceMeters>NAN</DistanceMeters>
          </Trackpoint>
          <Trackpoint>
            <Time>2021-08-09T12:45:49.000Z</Time>
            <Position>
              <LatitudeDegrees>43.07668539695441722869873046875</LatitudeDegrees>
              <LongitudeDegrees>-1.77416794002056121826171875</LongitudeDegrees>
            </Position>
            <AltitudeMeters>573.4000244140625</AltitudeMeters>
            <DistanceMeters>NAN</DistanceMeters>
          </Trackpoint>
          <Trackpoint>
            <Time>2021-08-09T12:45:50.000Z</Time>
            <Position>
              <LatitudeDegrees>43.076778687536716461181640625</LatitudeDegrees>
              <LongitudeDegrees>-1.77416324615478515625</LongitudeDegrees>
            </Position>
            <AltitudeMeters>573</AltitudeMeters>
            <DistanceMeters>NAN</DistanceMeters>
          </Trackpoint>
          <Trackpoint>
            <Time>2021-08-09T12:45:51.000Z</Time>
            <Position>
              <LatitudeDegrees>43.07687021791934967041015625</LatitudeDegrees>
              <LongitudeDegrees>-1.7741540260612964630126953125</LongitudeDegrees>
            </Position>
            <AltitudeMeters>572.5999755859375</AltitudeMeters>
            <DistanceMeters>NAN</DistanceMeters>
          </Trackpoint>
          <Trackpoint>
            <Time>2021-08-09T12:45:52.000Z</Time>
            <Position>
              <LatitudeDegrees>43.076939284801483154296875</LatitudeDegrees>
              <LongitudeDegrees>-1.7741315625607967376708984375</LongitudeDegrees>
            </Position>
            <AltitudeMeters>572.5999755859375</AltitudeMeters>
            <DistanceMeters>NAN</DistanceMeters>
          </Trackpoint>
          <Trackpoint>
            <Time>2021-08-09T12:45:53.000Z</Time>
            <Position>
              <LatitudeDegrees>43.07703961618244647979736328125</LatitudeDegrees>
              <LongitudeDegrees>-1.77408319897949695587158203125</LongitudeDegrees>
            </Position>
            <AltitudeMeters>572.5999755859375</AltitudeMeters>
            <DistanceMeters>NAN</DistanceMeters>
          </Trackpoint>
          <Trackpoint>
            <Time>2021-08-09T12:45:54.000Z</Time>
            <Position>
              <LatitudeDegrees>43.077115975320339202880859375</LatitudeDegrees>
              <LongitudeDegrees>-1.77403307519853115081787109375</LongitudeDegrees>
            </Position>
            <AltitudeMeters>572.4000244140625</AltitudeMeters>
            <DistanceMeters>NAN</DistanceMeters>
          </Trackpoint>
          <Trackpoint>
            <Time>2021-08-09T12:45:55.000Z</Time>
            <Position>
              <LatitudeDegrees>43.07718227617442607879638671875</LatitudeDegrees>
              <LongitudeDegrees>-1.77395646460354328155517578125</LongitudeDegrees>
            </Position>
            <AltitudeMeters>572.4000244140625</AltitudeMeters>
            <DistanceMeters>NAN</DistanceMeters>
          </Trackpoint>
          <Trackpoint>
            <Time>2021-08-09T12:45:56.000Z</Time>
            <Position>
              <LatitudeDegrees>43.077234663069248199462890625</LatitudeDegrees>
              <LongitudeDegrees>-1.77385278046131134033203125</LongitudeDegrees>
            </Position>
            <AltitudeMeters>572.20001220703125</AltitudeMeters>
            <DistanceMeters>NAN</DistanceMeters>
          </Trackpoint>
          <Trackpoint>
            <Time>2021-08-09T12:45:57.000Z</Time>
            <Position>
              <LatitudeDegrees>43.0772703699767589569091796875</LatitudeDegrees>
              <LongitudeDegrees>-1.77376351319253444671630859375</LongitudeDegrees>
            </Position>
            <AltitudeMeters>572</AltitudeMeters>
            <DistanceMeters>NAN</DistanceMeters>
          </Trackpoint>
          <Trackpoint>
            <Time>2021-08-09T12:45:58.000Z</Time>
            <Position>
              <LatitudeDegrees>43.07732485234737396240234375</LatitudeDegrees>
              <LongitudeDegrees>-1.773659996688365936279296875</LongitudeDegrees>
            </Position>
            <AltitudeMeters>571.5999755859375</AltitudeMeters>
            <DistanceMeters>NAN</DistanceMeters>
          </Trackpoint>
          <Trackpoint>
            <Time>2021-08-09T12:45:59.000Z</Time>
            <Position>
              <LatitudeDegrees>43.0773786641657352447509765625</LatitudeDegrees>
              <LongitudeDegrees>-1.77360492758452892303466796875</LongitudeDegrees>
            </Position>
            <AltitudeMeters>571.4000244140625</AltitudeMeters>
            <DistanceMeters>NAN</DistanceMeters>
          </Trackpoint>
          <Trackpoint>
            <Time>2021-08-09T12:46:00.000Z</Time>
            <Position>
              <LatitudeDegrees>43.07744530029594898223876953125</LatitudeDegrees>
              <LongitudeDegrees>-1.77358313463628292083740234375</LongitudeDegrees>
            </Position>
            <AltitudeMeters>571.4000244140625</AltitudeMeters>
            <DistanceMeters>NAN</DistanceMeters>
          </Trackpoint>
          <Trackpoint>
            <Time>2021-08-09T12:46:01.000Z</Time>
            <Position>
              <LatitudeDegrees>43.0775070749223232269287109375</LatitudeDegrees>
              <LongitudeDegrees>-1.77359528839588165283203125</LongitudeDegrees>
            </Position>
            <AltitudeMeters>571.20001220703125</AltitudeMeters>
            <DistanceMeters>NAN</DistanceMeters>
          </Trackpoint>
          <Trackpoint>
            <Time>2021-08-09T12:46:02.000Z</Time>
            <Position>
              <LatitudeDegrees>43.07756214402616024017333984375</LatitudeDegrees>
              <LongitudeDegrees>-1.7736283130943775177001953125</LongitudeDegrees>
            </Position>
            <AltitudeMeters>571.20001220703125</AltitudeMeters>
            <DistanceMeters>NAN</DistanceMeters>
          </Trackpoint>
          <Trackpoint>
            <Time>2021-08-09T12:46:03.000Z</Time>
            <Position>
              <LatitudeDegrees>43.0775969289243221282958984375</LatitudeDegrees>
              <LongitudeDegrees>-1.773665361106395721435546875</LongitudeDegrees>
            </Position>
            <AltitudeMeters>571.20001220703125</AltitudeMeters>
            <DistanceMeters>NAN</DistanceMeters>
          </Trackpoint>
          <Trackpoint>
            <Time>2021-08-09T12:46:04.000Z</Time>
            <Position>
              <LatitudeDegrees>43.077630959451198577880859375</LatitudeDegrees>
              <LongitudeDegrees>-1.77370886318385601043701171875</LongitudeDegrees>
            </Position>
            <AltitudeMeters>571.20001220703125</AltitudeMeters>
            <DistanceMeters>NAN</DistanceMeters>
          </Trackpoint>
          <Trackpoint>
            <Time>2021-08-09T12:46:05.000Z</Time>
            <Position>
              <LatitudeDegrees>43.07766322977840900421142578125</LatitudeDegrees>
              <LongitudeDegrees>-1.77376032806932926177978515625</LongitudeDegrees>
            </Position>
            <AltitudeMeters>571.20001220703125</AltitudeMeters>
            <DistanceMeters>NAN</DistanceMeters>
          </Trackpoint>
          <Trackpoint>
            <Time>2021-08-09T12:46:06.000Z</Time>
            <Position>
              <LatitudeDegrees>43.0776827596127986907958984375</LatitudeDegrees>
              <LongitudeDegrees>-1.77380718290805816650390625</LongitudeDegrees>
            </Position>
            <AltitudeMeters>571.4000244140625</AltitudeMeters>
            <DistanceMeters>NAN</DistanceMeters>
          </Trackpoint>
          <Trackpoint>
            <Time>2021-08-09T12:46:07.000Z</Time>
            <Position>
              <LatitudeDegrees>43.077704049646854400634765625</LatitudeDegrees>
              <LongitudeDegrees>-1.773852445185184478759765625</LongitudeDegrees>
            </Position>
            <AltitudeMeters>571.79998779296875</AltitudeMeters>
            <DistanceMeters>NAN</DistanceMeters>
          </Trackpoint>
          <Trackpoint>
            <Time>2021-08-09T12:46:09.000Z</Time>
            <Position>
              <LatitudeDegrees>43.07774730026721954345703125</LatitudeDegrees>
              <LongitudeDegrees>-1.7739310674369335174560546875</LongitudeDegrees>
            </Position>
            <AltitudeMeters>572.20001220703125</AltitudeMeters>
            <DistanceMeters>NAN</DistanceMeters>
          </Trackpoint>
          <Trackpoint>
            <Time>2021-08-09T12:46:10.000Z</Time>
            <Position>
              <LatitudeDegrees>43.07777185924351215362548828125</LatitudeDegrees>
              <LongitudeDegrees>-1.77398093976080417633056640625</LongitudeDegrees>
            </Position>
            <AltitudeMeters>572.20001220703125</AltitudeMeters>
            <DistanceMeters>NAN</DistanceMeters>
          </Trackpoint>
          <Trackpoint>
            <Time>2021-08-09T12:46:11.000Z</Time>
            <Position>
              <LatitudeDegrees>43.07779029943048954010009765625</LatitudeDegrees>
              <LongitudeDegrees>-1.7740272916853427886962890625</LongitudeDegrees>
            </Position>
            <AltitudeMeters>572.4000244140625</AltitudeMeters>
            <DistanceMeters>NAN</DistanceMeters>
          </Trackpoint>
          <Trackpoint>
            <Time>2021-08-09T12:46:12.000Z</Time>
            <Position>
              <LatitudeDegrees>43.07781058363616466522216796875</LatitudeDegrees>
              <LongitudeDegrees>-1.77407448180019855499267578125</LongitudeDegrees>
            </Position>
            <AltitudeMeters>572.4000244140625</AltitudeMeters>
            <DistanceMeters>NAN</DistanceMeters>
          </Trackpoint>
          <Trackpoint>
            <Time>2021-08-09T12:46:13.000Z</Time>
            <Position>
              <LatitudeDegrees>43.07783002965152263641357421875</LatitudeDegrees>
              <LongitudeDegrees>-1.774104572832584381103515625</LongitudeDegrees>
            </Position>
            <AltitudeMeters>572.5999755859375</AltitudeMeters>
            <DistanceMeters>NAN</DistanceMeters>
          </Trackpoint>
          <Trackpoint>
            <Time>2021-08-09T12:46:14.000Z</Time>
            <Position>
              <LatitudeDegrees>43.07786263525485992431640625</LatitudeDegrees>
              <LongitudeDegrees>-1.77414924837648868560791015625</LongitudeDegrees>
            </Position>
            <AltitudeMeters>573</AltitudeMeters>
            <DistanceMeters>NAN</DistanceMeters>
          </Trackpoint>
          <Trackpoint>
            <Time>2021-08-09T12:46:15.000Z</Time>
            <Position>
              <LatitudeDegrees>43.07788870297372341156005859375</LatitudeDegrees>
              <LongitudeDegrees>-1.774171292781829833984375</LongitudeDegrees>
            </Position>
            <AltitudeMeters>573.20001220703125</AltitudeMeters>
            <DistanceMeters>NAN</DistanceMeters>
          </Trackpoint>
          <Trackpoint>
            <Time>2021-08-09T12:46:16.000Z</Time>
            <Position>
              <LatitudeDegrees>43.07792440988123416900634765625</LatitudeDegrees>
              <LongitudeDegrees>-1.77420222200453281402587890625</LongitudeDegrees>
            </Position>
            <AltitudeMeters>573.4000244140625</AltitudeMeters>
            <DistanceMeters>NAN</DistanceMeters>
          </Trackpoint>
          <Trackpoint>
            <Time>2021-08-09T12:46:18.000Z</Time>
            <Position>
              <LatitudeDegrees>43.0780002661049365997314453125</LatitudeDegrees>
              <LongitudeDegrees>-1.7742582969367504119873046875</LongitudeDegrees>
            </Position>
            <AltitudeMeters>573.5999755859375</AltitudeMeters>
            <DistanceMeters>NAN</DistanceMeters>
          </Trackpoint>
          <Trackpoint>
            <Time>2021-08-09T12:46:19.000Z</Time>
            <Position>
              <LatitudeDegrees>43.0780398286879062652587890625</LatitudeDegrees>
              <LongitudeDegrees>-1.7742814309895038604736328125</LongitudeDegrees>
            </Position>
            <AltitudeMeters>573.79998779296875</AltitudeMeters>
            <DistanceMeters>NAN</DistanceMeters>
          </Trackpoint>
          <Trackpoint>
            <Time>2021-08-09T12:46:20.000Z</Time>
            <Position>
              <LatitudeDegrees>43.07807796634733676910400390625</LatitudeDegrees>
              <LongitudeDegrees>-1.77430414594709873199462890625</LongitudeDegrees>
            </Position>
            <AltitudeMeters>573.79998779296875</AltitudeMeters>
            <DistanceMeters>NAN</DistanceMeters>
          </Trackpoint>
          <Trackpoint>
            <Time>2021-08-09T12:46:22.000Z</Time>
            <Position>
              <LatitudeDegrees>43.07816765271127223968505859375</LatitudeDegrees>
              <LongitudeDegrees>-1.77434806711971759796142578125</LongitudeDegrees>
            </Position>
            <AltitudeMeters>574</AltitudeMeters>
            <DistanceMeters>NAN</DistanceMeters>
          </Trackpoint>
          <Trackpoint>
            <Time>2021-08-09T12:46:25.000Z</Time>
            <Position>
              <LatitudeDegrees>43.07829472236335277557373046875</LatitudeDegrees>
              <LongitudeDegrees>-1.77439014427363872528076171875</LongitudeDegrees>
            </Position>
            <AltitudeMeters>574.5999755859375</AltitudeMeters>
            <DistanceMeters>NAN</DistanceMeters>
          </Trackpoint>
          <Trackpoint>
            <Time>2021-08-09T12:46:26.000Z</Time>
            <Position>
              <LatitudeDegrees>43.07833914645016193389892578125</LatitudeDegrees>
              <LongitudeDegrees>-1.77440657280385494232177734375</LongitudeDegrees>
            </Position>
            <AltitudeMeters>574.5999755859375</AltitudeMeters>
            <DistanceMeters>NAN</DistanceMeters>
          </Trackpoint>
          <Trackpoint>
            <Time>2021-08-09T12:46:28.000Z</Time>
            <Position>
              <LatitudeDegrees>43.07843218557536602020263671875</LatitudeDegrees>
              <LongitudeDegrees>-1.7744410224258899688720703125</LongitudeDegrees>
            </Position>
            <AltitudeMeters>574.79998779296875</AltitudeMeters>
            <DistanceMeters>NAN</DistanceMeters>
          </Trackpoint>
          <Trackpoint>
            <Time>2021-08-09T12:46:29.000Z</Time>
            <Position>
              <LatitudeDegrees>43.07847409509122371673583984375</LatitudeDegrees>
              <LongitudeDegrees>-1.77445627748966217041015625</LongitudeDegrees>
            </Position>
            <AltitudeMeters>575</AltitudeMeters>
            <DistanceMeters>NAN</DistanceMeters>
          </Trackpoint>
          <Trackpoint>
            <Time>2021-08-09T12:46:31.000Z</Time>
            <Position>
              <LatitudeDegrees>43.078558333218097686767578125</LatitudeDegrees>
              <LongitudeDegrees>-1.774482093751430511474609375</LongitudeDegrees>
            </Position>
            <AltitudeMeters>575</AltitudeMeters>
            <DistanceMeters>NAN</DistanceMeters>
          </Trackpoint>
          <Trackpoint>
            <Time>2021-08-09T12:46:33.000Z</Time>
            <Position>
              <LatitudeDegrees>43.07863201014697551727294921875</LatitudeDegrees>
              <LongitudeDegrees>-1.774506233632564544677734375</LongitudeDegrees>
            </Position>
            <AltitudeMeters>575.20001220703125</AltitudeMeters>
            <DistanceMeters>NAN</DistanceMeters>
          </Trackpoint>
          <Trackpoint>
            <Time>2021-08-09T12:46:34.000Z</Time>
            <Position>
              <LatitudeDegrees>43.0786818824708461761474609375</LatitudeDegrees>
              <LongitudeDegrees>-1.77452039904892444610595703125</LongitudeDegrees>
            </Position>
            <AltitudeMeters>575.20001220703125</AltitudeMeters>
            <DistanceMeters>NAN</DistanceMeters>
          </Trackpoint>
          <Trackpoint>
            <Time>2021-08-09T12:46:35.000Z</Time>
            <Position>
              <LatitudeDegrees>43.07871733792126178741455078125</LatitudeDegrees>
              <LongitudeDegrees>-1.774528361856937408447265625</LongitudeDegrees>
            </Position>
            <AltitudeMeters>575.4000244140625</AltitudeMeters>
            <DistanceMeters>NAN</DistanceMeters>
          </Trackpoint>
          <Trackpoint>
            <Time>2021-08-09T12:46:38.000Z</Time>
            <Position>
              <LatitudeDegrees>43.07884809561073780059814453125</LatitudeDegrees>
              <LongitudeDegrees>-1.7745617218315601348876953125</LongitudeDegrees>
            </Position>
            <AltitudeMeters>575.79998779296875</AltitudeMeters>
            <DistanceMeters>NAN</DistanceMeters>
          </Trackpoint>
          <Trackpoint>
            <Time>2021-08-09T12:46:39.000Z</Time>
            <Position>
              <LatitudeDegrees>43.07889084331691265106201171875</LatitudeDegrees>
              <LongitudeDegrees>-1.774563230574131011962890625</LongitudeDegrees>
            </Position>
            <AltitudeMeters>576</AltitudeMeters>
            <DistanceMeters>NAN</DistanceMeters>
          </Trackpoint>
          <Trackpoint>
            <Time>2021-08-09T12:46:40.000Z</Time>
            <Position>
              <LatitudeDegrees>43.078933842480182647705078125</LatitudeDegrees>
              <LongitudeDegrees>-1.7745610512793064117431640625</LongitudeDegrees>
            </Position>
            <AltitudeMeters>576.20001220703125</AltitudeMeters>
            <DistanceMeters>NAN</DistanceMeters>
          </Trackpoint>
          <Trackpoint>
            <Time>2021-08-09T12:46:41.000Z</Time>
            <Position>
              <LatitudeDegrees>43.07897508144378662109375</LatitudeDegrees>
              <LongitudeDegrees>-1.774551831185817718505859375</LongitudeDegrees>
            </Position>
            <AltitudeMeters>576.4000244140625</AltitudeMeters>
            <DistanceMeters>NAN</DistanceMeters>
          </Trackpoint>
          <Trackpoint>
            <Time>2021-08-09T12:46:42.000Z</Time>
            <Position>
              <LatitudeDegrees>43.0790166556835174560546875</LatitudeDegrees>
              <LongitudeDegrees>-1.774529032409191131591796875</LongitudeDegrees>
            </Position>
            <AltitudeMeters>576.79998779296875</AltitudeMeters>
            <DistanceMeters>NAN</DistanceMeters>
          </Trackpoint>
          <Trackpoint>
            <Time>2021-08-09T12:46:43.000Z</Time>
            <Position>
              <LatitudeDegrees>43.07905797846615314483642578125</LatitudeDegrees>
              <LongitudeDegrees>-1.7745037190616130828857421875</LongitudeDegrees>
            </Position>
            <AltitudeMeters>577</AltitudeMeters>
            <DistanceMeters>NAN</DistanceMeters>
          </Trackpoint>
          <Trackpoint>
            <Time>2021-08-09T12:46:44.000Z</Time>
            <Position>
              <LatitudeDegrees>43.07910022325813770294189453125</LatitudeDegrees>
              <LongitudeDegrees>-1.77447899244725704193115234375</LongitudeDegrees>
            </Position>
            <AltitudeMeters>577.20001220703125</AltitudeMeters>
            <DistanceMeters>NAN</DistanceMeters>
          </Trackpoint>
          <Trackpoint>
            <Time>2021-08-09T12:46:45.000Z</Time>
            <Position>
              <LatitudeDegrees>43.0791425518691539764404296875</LatitudeDegrees>
              <LongitudeDegrees>-1.77445485256612300872802734375</LongitudeDegrees>
            </Position>
            <AltitudeMeters>577.20001220703125</AltitudeMeters>
            <DistanceMeters>NAN</DistanceMeters>
          </Trackpoint>
          <Trackpoint>
            <Time>2021-08-09T12:46:46.000Z</Time>
            <Position>
              <LatitudeDegrees>43.07918496429920196533203125</LatitudeDegrees>
              <LongitudeDegrees>-1.7744316346943378448486328125</LongitudeDegrees>
            </Position>
            <AltitudeMeters>577.5999755859375</AltitudeMeters>
            <DistanceMeters>NAN</DistanceMeters>
          </Trackpoint>
          <Trackpoint>
            <Time>2021-08-09T12:46:47.000Z</Time>
            <Position>
              <LatitudeDegrees>43.07923500426113605499267578125</LatitudeDegrees>
              <LongitudeDegrees>-1.774402298033237457275390625</LongitudeDegrees>
            </Position>
            <AltitudeMeters>577.79998779296875</AltitudeMeters>
            <DistanceMeters>NAN</DistanceMeters>
          </Trackpoint>
          <Trackpoint>
            <Time>2021-08-09T12:46:48.000Z</Time>
            <Position>
              <LatitudeDegrees>43.079277165234088897705078125</LatitudeDegrees>
              <LongitudeDegrees>-1.77438251674175262451171875</LongitudeDegrees>
            </Position>
            <AltitudeMeters>578</AltitudeMeters>
            <DistanceMeters>NAN</DistanceMeters>
          </Trackpoint>
          <Trackpoint>
            <Time>2021-08-09T12:46:49.000Z</Time>
            <Position>
              <LatitudeDegrees>43.07931647635996341705322265625</LatitudeDegrees>
              <LongitudeDegrees>-1.77435996942222118377685546875</LongitudeDegrees>
            </Position>
            <AltitudeMeters>578.20001220703125</AltitudeMeters>
            <DistanceMeters>NAN</DistanceMeters>
          </Trackpoint>
          <Trackpoint>
            <Time>2021-08-09T12:46:50.000Z</Time>
            <Position>
              <LatitudeDegrees>43.07934933342039585113525390625</LatitudeDegrees>
              <LongitudeDegrees>-1.7743384279310703277587890625</LongitudeDegrees>
            </Position>
            <AltitudeMeters>578.20001220703125</AltitudeMeters>
            <DistanceMeters>NAN</DistanceMeters>
          </Trackpoint>
          <Trackpoint>
            <Time>2021-08-09T12:46:51.000Z</Time>
            <Position>
              <LatitudeDegrees>43.07940348051488399505615234375</LatitudeDegrees>
              <LongitudeDegrees>-1.77431705407798290252685546875</LongitudeDegrees>
            </Position>
            <AltitudeMeters>578.4000244140625</AltitudeMeters>
            <DistanceMeters>NAN</DistanceMeters>
          </Trackpoint>
          <Trackpoint>
            <Time>2021-08-09T12:46:52.000Z</Time>
            <Position>
              <LatitudeDegrees>43.07945092208683490753173828125</LatitudeDegrees>
              <LongitudeDegrees>-1.7743059061467647552490234375</LongitudeDegrees>
            </Position>
            <AltitudeMeters>578.5999755859375</AltitudeMeters>
            <DistanceMeters>NAN</DistanceMeters>
          </Trackpoint>
          <Trackpoint>
            <Time>2021-08-09T12:46:53.000Z</Time>
            <Position>
              <LatitudeDegrees>43.07949651964008808135986328125</LatitudeDegrees>
              <LongitudeDegrees>-1.7742988653481006622314453125</LongitudeDegrees>
            </Position>
            <AltitudeMeters>578.79998779296875</AltitudeMeters>
            <DistanceMeters>NAN</DistanceMeters>
          </Trackpoint>
          <Trackpoint>
            <Time>2021-08-09T12:46:54.000Z</Time>
            <Position>
              <LatitudeDegrees>43.079540692269802093505859375</LatitudeDegrees>
              <LongitudeDegrees>-1.774297021329402923583984375</LongitudeDegrees>
            </Position>
            <AltitudeMeters>579</AltitudeMeters>
            <DistanceMeters>NAN</DistanceMeters>
          </Trackpoint>
          <Trackpoint>
            <Time>2021-08-09T12:46:55.000Z</Time>
            <Position>
              <LatitudeDegrees>43.07958687655627727508544921875</LatitudeDegrees>
              <LongitudeDegrees>-1.77431001327931880950927734375</LongitudeDegrees>
            </Position>
            <AltitudeMeters>579.20001220703125</AltitudeMeters>
            <DistanceMeters>NAN</DistanceMeters>
          </Trackpoint>
          <Trackpoint>
            <Time>2021-08-09T12:46:56.000Z</Time>
            <Position>
              <LatitudeDegrees>43.07963297702372074127197265625</LatitudeDegrees>
              <LongitudeDegrees>-1.7743350751698017120361328125</LongitudeDegrees>
            </Position>
            <AltitudeMeters>579.5999755859375</AltitudeMeters>
            <DistanceMeters>NAN</DistanceMeters>
          </Trackpoint>
          <Trackpoint>
            <Time>2021-08-09T12:46:57.000Z</Time>
            <Position>
              <LatitudeDegrees>43.0796716175973415374755859375</LatitudeDegrees>
              <LongitudeDegrees>-1.77437991835176944732666015625</LongitudeDegrees>
            </Position>
            <AltitudeMeters>579.5999755859375</AltitudeMeters>
            <DistanceMeters>NAN</DistanceMeters>
          </Trackpoint>
          <Trackpoint>
            <Time>2021-08-09T12:46:58.000Z</Time>
            <Position>
              <LatitudeDegrees>43.0797061510384082794189453125</LatitudeDegrees>
              <LongitudeDegrees>-1.7744274437427520751953125</LongitudeDegrees>
            </Position>
            <AltitudeMeters>580</AltitudeMeters>
            <DistanceMeters>NAN</DistanceMeters>
          </Trackpoint>
          <Trackpoint>
            <Time>2021-08-09T12:46:59.000Z</Time>
            <Position>
              <LatitudeDegrees>43.0797255970537662506103515625</LatitudeDegrees>
              <LongitudeDegrees>-1.77446524612605571746826171875</LongitudeDegrees>
            </Position>
            <AltitudeMeters>580.20001220703125</AltitudeMeters>
            <DistanceMeters>NAN</DistanceMeters>
          </Trackpoint>
          <Trackpoint>
            <Time>2021-08-09T12:47:00.000Z</Time>
            <Position>
              <LatitudeDegrees>43.079747222363948822021484375</LatitudeDegrees>
              <LongitudeDegrees>-1.77451972849667072296142578125</LongitudeDegrees>
            </Position>
            <AltitudeMeters>580.20001220703125</AltitudeMeters>
            <DistanceMeters>NAN</DistanceMeters>
          </Trackpoint>
          <Trackpoint>
            <Time>2021-08-09T12:47:01.000Z</Time>
            <Position>
              <LatitudeDegrees>43.07976239360868930816650390625</LatitudeDegrees>
              <LongitudeDegrees>-1.77457639016211032867431640625</LongitudeDegrees>
            </Position>
            <AltitudeMeters>580.20001220703125</AltitudeMeters>
            <DistanceMeters>NAN</DistanceMeters>
          </Trackpoint>
          <Trackpoint>
            <Time>2021-08-09T12:47:02.000Z</Time>
            <Position>
              <LatitudeDegrees>43.07977060787379741668701171875</LatitudeDegrees>
              <LongitudeDegrees>-1.7746284417808055877685546875</LongitudeDegrees>
            </Position>
            <AltitudeMeters>580.4000244140625</AltitudeMeters>
            <DistanceMeters>NAN</DistanceMeters>
          </Trackpoint>
          <Trackpoint>
            <Time>2021-08-09T12:47:03.000Z</Time>
            <Position>
              <LatitudeDegrees>43.0797810852527618408203125</LatitudeDegrees>
              <LongitudeDegrees>-1.77468015812337398529052734375</LongitudeDegrees>
            </Position>
            <AltitudeMeters>580.4000244140625</AltitudeMeters>
            <DistanceMeters>NAN</DistanceMeters>
          </Trackpoint>
          <Trackpoint>
            <Time>2021-08-09T12:47:04.000Z</Time>
            <Position>
              <LatitudeDegrees>43.07978988625109195709228515625</LatitudeDegrees>
              <LongitudeDegrees>-1.77472156472504138946533203125</LongitudeDegrees>
            </Position>
            <AltitudeMeters>580.5999755859375</AltitudeMeters>
            <DistanceMeters>NAN</DistanceMeters>
          </Trackpoint>
          <Trackpoint>
            <Time>2021-08-09T12:47:05.000Z</Time>
            <Position>
              <LatitudeDegrees>43.079802207648754119873046875</LatitudeDegrees>
              <LongitudeDegrees>-1.77477403543889522552490234375</LongitudeDegrees>
            </Position>
            <AltitudeMeters>580.79998779296875</AltitudeMeters>
            <DistanceMeters>NAN</DistanceMeters>
          </Trackpoint>
          <Trackpoint>
            <Time>2021-08-09T12:47:06.000Z</Time>
            <Position>
              <LatitudeDegrees>43.07981603778898715972900390625</LatitudeDegrees>
              <LongitudeDegrees>-1.7748255841434001922607421875</LongitudeDegrees>
            </Position>
            <AltitudeMeters>580.79998779296875</AltitudeMeters>
            <DistanceMeters>NAN</DistanceMeters>
          </Trackpoint>
          <Trackpoint>
            <Time>2021-08-09T12:47:07.000Z</Time>
            <Position>
              <LatitudeDegrees>43.07983414269983768463134765625</LatitudeDegrees>
              <LongitudeDegrees>-1.77487445063889026641845703125</LongitudeDegrees>
            </Position>
            <AltitudeMeters>581</AltitudeMeters>
            <DistanceMeters>NAN</DistanceMeters>
          </Trackpoint>
          <Trackpoint>
            <Time>2021-08-09T12:47:08.000Z</Time>
            <Position>
              <LatitudeDegrees>43.07985710911452770233154296875</LatitudeDegrees>
              <LongitudeDegrees>-1.77491803653538227081298828125</LongitudeDegrees>
            </Position>
            <AltitudeMeters>581</AltitudeMeters>
            <DistanceMeters>NAN</DistanceMeters>
          </Trackpoint>
          <Trackpoint>
            <Time>2021-08-09T12:47:09.000Z</Time>
            <Position>
              <LatitudeDegrees>43.07988233864307403564453125</LatitudeDegrees>
              <LongitudeDegrees>-1.7749558389186859130859375</LongitudeDegrees>
            </Position>
            <AltitudeMeters>581.4000244140625</AltitudeMeters>
            <DistanceMeters>NAN</DistanceMeters>
          </Trackpoint>
          <Trackpoint>
            <Time>2021-08-09T12:47:10.000Z</Time>
            <Position>
              <LatitudeDegrees>43.079911507666110992431640625</LatitudeDegrees>
              <LongitudeDegrees>-1.77498810924589633941650390625</LongitudeDegrees>
            </Position>
            <AltitudeMeters>581.5999755859375</AltitudeMeters>
            <DistanceMeters>NAN</DistanceMeters>
          </Trackpoint>
          <Trackpoint>
            <Time>2021-08-09T12:47:11.000Z</Time>
            <Position>
              <LatitudeDegrees>43.0799447000026702880859375</LatitudeDegrees>
              <LongitudeDegrees>-1.77501359023153781890869140625</LongitudeDegrees>
            </Position>
            <AltitudeMeters>581.79998779296875</AltitudeMeters>
            <DistanceMeters>NAN</DistanceMeters>
          </Trackpoint>
          <Trackpoint>
            <Time>2021-08-09T12:47:12.000Z</Time>
            <Position>
              <LatitudeDegrees>43.0799780599772930145263671875</LatitudeDegrees>
              <LongitudeDegrees>-1.77503370679914951324462890625</LongitudeDegrees>
            </Position>
            <AltitudeMeters>582</AltitudeMeters>
            <DistanceMeters>NAN</DistanceMeters>
          </Trackpoint>
          <Trackpoint>
            <Time>2021-08-09T12:47:13.000Z</Time>
            <Position>
              <LatitudeDegrees>43.08001133613288402557373046875</LatitudeDegrees>
              <LongitudeDegrees>-1.77504912950098514556884765625</LongitudeDegrees>
            </Position>
            <AltitudeMeters>582</AltitudeMeters>
            <DistanceMeters>NAN</DistanceMeters>
          </Trackpoint>
          <Trackpoint>
            <Time>2021-08-09T12:47:14.000Z</Time>
            <Position>
              <LatitudeDegrees>43.08004452846944332122802734375</LatitudeDegrees>
              <LongitudeDegrees>-1.77506254054605960845947265625</LongitudeDegrees>
            </Position>
            <AltitudeMeters>582.20001220703125</AltitudeMeters>
            <DistanceMeters>NAN</DistanceMeters>
          </Trackpoint>
          <Trackpoint>
            <Time>2021-08-09T12:47:15.000Z</Time>
            <Position>
              <LatitudeDegrees>43.08007822372019290924072265625</LatitudeDegrees>
              <LongitudeDegrees>-1.7750711739063262939453125</LongitudeDegrees>
            </Position>
            <AltitudeMeters>582.20001220703125</AltitudeMeters>
            <DistanceMeters>NAN</DistanceMeters>
          </Trackpoint>
          <Trackpoint>
            <Time>2021-08-09T12:47:16.000Z</Time>
            <Position>
              <LatitudeDegrees>43.08011460117995738983154296875</LatitudeDegrees>
              <LongitudeDegrees>-1.77507452666759490966796875</LongitudeDegrees>
            </Position>
            <AltitudeMeters>582.4000244140625</AltitudeMeters>
            <DistanceMeters>NAN</DistanceMeters>
          </Trackpoint>
          <Trackpoint>
            <Time>2021-08-09T12:47:17.000Z</Time>
            <Position>
              <LatitudeDegrees>43.08014829643070697784423828125</LatitudeDegrees>
              <LongitudeDegrees>-1.7750824056565761566162109375</LongitudeDegrees>
            </Position>
            <AltitudeMeters>582.5999755859375</AltitudeMeters>
            <DistanceMeters>NAN</DistanceMeters>
          </Trackpoint>
          <Trackpoint>
            <Time>2021-08-09T12:47:18.000Z</Time>
            <Position>
              <LatitudeDegrees>43.0801788903772830963134765625</LatitudeDegrees>
              <LongitudeDegrees>-1.77509338594973087310791015625</LongitudeDegrees>
            </Position>
            <AltitudeMeters>583</AltitudeMeters>
            <DistanceMeters>NAN</DistanceMeters>
          </Trackpoint>
          <Trackpoint>
            <Time>2021-08-09T12:47:19.000Z</Time>
            <Position>
              <LatitudeDegrees>43.080204539000988006591796875</LatitudeDegrees>
              <LongitudeDegrees>-1.77510579116642475128173828125</LongitudeDegrees>
            </Position>
            <AltitudeMeters>583.20001220703125</AltitudeMeters>
            <DistanceMeters>NAN</DistanceMeters>
          </Trackpoint>
          <Trackpoint>
            <Time>2021-08-09T12:47:20.000Z</Time>
            <Position>
              <LatitudeDegrees>43.08022842742502689361572265625</LatitudeDegrees>
              <LongitudeDegrees>-1.775114424526691436767578125</LongitudeDegrees>
            </Position>
            <AltitudeMeters>583.4000244140625</AltitudeMeters>
            <DistanceMeters>NAN</DistanceMeters>
          </Trackpoint>
          <Trackpoint>
            <Time>2021-08-09T12:47:21.000Z</Time>
            <Position>
              <LatitudeDegrees>43.08025072328746318817138671875</LatitudeDegrees>
              <LongitudeDegrees>-1.77512406371533870697021484375</LongitudeDegrees>
            </Position>
            <AltitudeMeters>583.5999755859375</AltitudeMeters>
            <DistanceMeters>NAN</DistanceMeters>
          </Trackpoint>
          <Trackpoint>
            <Time>2021-08-09T12:47:22.000Z</Time>
            <Position>
              <LatitudeDegrees>43.08027134276926517486572265625</LatitudeDegrees>
              <LongitudeDegrees>-1.77513563074171543121337890625</LongitudeDegrees>
            </Position>
            <AltitudeMeters>583.5999755859375</AltitudeMeters>
            <DistanceMeters>NAN</DistanceMeters>
          </Trackpoint>
          <Trackpoint>
            <Time>2021-08-09T12:47:23.000Z</Time>
            <Position>
              <LatitudeDegrees>43.08029246516525745391845703125</LatitudeDegrees>
              <LongitudeDegrees>-1.775145940482616424560546875</LongitudeDegrees>
            </Position>
            <AltitudeMeters>583.5999755859375</AltitudeMeters>
            <DistanceMeters>NAN</DistanceMeters>
          </Trackpoint>
          <Trackpoint>
            <Time>2021-08-09T12:47:24.000Z</Time>
            <Position>
              <LatitudeDegrees>43.0803133361041545867919921875</LatitudeDegrees>
              <LongitudeDegrees>-1.7751585133373737335205078125</LongitudeDegrees>
            </Position>
            <AltitudeMeters>583.5999755859375</AltitudeMeters>
            <DistanceMeters>NAN</DistanceMeters>
          </Trackpoint>
          <Trackpoint>
            <Time>2021-08-09T12:47:25.000Z</Time>
            <Position>
              <LatitudeDegrees>43.08033186011016368865966796875</LatitudeDegrees>
              <LongitudeDegrees>-1.7751692421734333038330078125</LongitudeDegrees>
            </Position>
            <AltitudeMeters>583.5999755859375</AltitudeMeters>
            <DistanceMeters>NAN</DistanceMeters>
          </Trackpoint>
          <Trackpoint>
            <Time>2021-08-09T12:47:26.000Z</Time>
            <Position>
              <LatitudeDegrees>43.08034828864037990570068359375</LatitudeDegrees>
              <LongitudeDegrees>-1.77518039010465145111083984375</LongitudeDegrees>
            </Position>
            <AltitudeMeters>583.79998779296875</AltitudeMeters>
            <DistanceMeters>NAN</DistanceMeters>
          </Trackpoint>
          <Trackpoint>
            <Time>2021-08-09T12:47:27.000Z</Time>
            <Position>
              <LatitudeDegrees>43.08036119677126407623291015625</LatitudeDegrees>
              <LongitudeDegrees>-1.775195561349391937255859375</LongitudeDegrees>
            </Position>
            <AltitudeMeters>583.79998779296875</AltitudeMeters>
            <DistanceMeters>NAN</DistanceMeters>
          </Trackpoint>
          <Trackpoint>
            <Time>2021-08-09T12:47:28.000Z</Time>
            <Position>
              <LatitudeDegrees>43.0803763680160045623779296875</LatitudeDegrees>
              <LongitudeDegrees>-1.7752171866595745086669921875</LongitudeDegrees>
            </Position>
            <AltitudeMeters>583.79998779296875</AltitudeMeters>
            <DistanceMeters>NAN</DistanceMeters>
          </Trackpoint>
          <Trackpoint>
            <Time>2021-08-09T12:47:29.000Z</Time>
            <Position>
              <LatitudeDegrees>43.08039070107042789459228515625</LatitudeDegrees>
              <LongitudeDegrees>-1.7752359621226787567138671875</LongitudeDegrees>
            </Position>
            <AltitudeMeters>583.79998779296875</AltitudeMeters>
            <DistanceMeters>NAN</DistanceMeters>
          </Trackpoint>
          <Trackpoint>
            <Time>2021-08-09T12:47:30.000Z</Time>
            <Position>
              <LatitudeDegrees>43.0804073810577392578125</LatitudeDegrees>
              <LongitudeDegrees>-1.775257587432861328125</LongitudeDegrees>
            </Position>
            <AltitudeMeters>583.79998779296875</AltitudeMeters>
            <DistanceMeters>NAN</DistanceMeters>
          </Trackpoint>
          <Trackpoint>
            <Time>2021-08-09T12:47:31.000Z</Time>
            <Position>
              <LatitudeDegrees>43.08042556978762149810791015625</LatitudeDegrees>
              <LongitudeDegrees>-1.7752782069146633148193359375</LongitudeDegrees>
            </Position>
            <AltitudeMeters>583.79998779296875</AltitudeMeters>
            <DistanceMeters>NAN</DistanceMeters>
          </Trackpoint>
          <Trackpoint>
            <Time>2021-08-09T12:47:32.000Z</Time>
            <Position>
              <LatitudeDegrees>43.08044082485139369964599609375</LatitudeDegrees>
              <LongitudeDegrees>-1.775303520262241363525390625</LongitudeDegrees>
            </Position>
            <AltitudeMeters>583.79998779296875</AltitudeMeters>
            <DistanceMeters>NAN</DistanceMeters>
          </Trackpoint>
          <Trackpoint>
            <Time>2021-08-09T12:47:33.000Z</Time>
            <Position>
              <LatitudeDegrees>43.08045691810548305511474609375</LatitudeDegrees>
              <LongitudeDegrees>-1.77532221190631389617919921875</LongitudeDegrees>
            </Position>
            <AltitudeMeters>583.79998779296875</AltitudeMeters>
            <DistanceMeters>NAN</DistanceMeters>
          </Trackpoint>
          <Trackpoint>
            <Time>2021-08-09T12:47:34.000Z</Time>
            <Position>
              <LatitudeDegrees>43.0804705806076526641845703125</LatitudeDegrees>
              <LongitudeDegrees>-1.7753395624458789825439453125</LongitudeDegrees>
            </Position>
            <AltitudeMeters>583.79998779296875</AltitudeMeters>
            <DistanceMeters>NAN</DistanceMeters>
          </Trackpoint>
          <Trackpoint>
            <Time>2021-08-09T12:47:35.000Z</Time>
            <Position>
              <LatitudeDegrees>43.08048591949045658111572265625</LatitudeDegrees>
              <LongitudeDegrees>-1.77535557188093662261962890625</LongitudeDegrees>
            </Position>
            <AltitudeMeters>583.79998779296875</AltitudeMeters>
            <DistanceMeters>NAN</DistanceMeters>
          </Trackpoint>
          <Trackpoint>
            <Time>2021-08-09T12:47:36.000Z</Time>
            <Position>
              <LatitudeDegrees>43.08050016872584819793701171875</LatitudeDegrees>
              <LongitudeDegrees>-1.77537417970597743988037109375</LongitudeDegrees>
            </Position>
            <AltitudeMeters>583.79998779296875</AltitudeMeters>
            <DistanceMeters>NAN</DistanceMeters>
          </Trackpoint>
          <Trackpoint>
            <Time>2021-08-09T12:47:37.000Z</Time>
            <Position>
              <LatitudeDegrees>43.0805186927318572998046875</LatitudeDegrees>
              <LongitudeDegrees>-1.7753975652158260345458984375</LongitudeDegrees>
            </Position>
            <AltitudeMeters>584</AltitudeMeters>
            <DistanceMeters>NAN</DistanceMeters>
          </Trackpoint>
          <Trackpoint>
            <Time>2021-08-09T12:47:40.000Z</Time>
            <Position>
              <LatitudeDegrees>43.08055867440998554229736328125</LatitudeDegrees>
              <LongitudeDegrees>-1.7754502035677433013916015625</LongitudeDegrees>
            </Position>
            <AltitudeMeters>584.20001220703125</AltitudeMeters>
            <DistanceMeters>NAN</DistanceMeters>
          </Trackpoint>
          <Trackpoint>
            <Time>2021-08-09T12:47:41.000Z</Time>
            <Position>
              <LatitudeDegrees>43.08057610876858234405517578125</LatitudeDegrees>
              <LongitudeDegrees>-1.7754693143069744110107421875</LongitudeDegrees>
            </Position>
            <AltitudeMeters>584.20001220703125</AltitudeMeters>
            <DistanceMeters>NAN</DistanceMeters>
          </Trackpoint>
          <Trackpoint>
            <Time>2021-08-09T12:47:44.000Z</Time>
            <Position>
              <LatitudeDegrees>43.08062019757926464080810546875</LatitudeDegrees>
              <LongitudeDegrees>-1.7755263112485408782958984375</LongitudeDegrees>
            </Position>
            <AltitudeMeters>584.4000244140625</AltitudeMeters>
            <DistanceMeters>NAN</DistanceMeters>
          </Trackpoint>
          <Trackpoint>
            <Time>2021-08-09T12:47:50.000Z</Time>
            <Position>
              <LatitudeDegrees>43.0807171761989593505859375</LatitudeDegrees>
              <LongitudeDegrees>-1.775625385344028472900390625</LongitudeDegrees>
            </Position>
            <AltitudeMeters>584.4000244140625</AltitudeMeters>
            <DistanceMeters>NAN</DistanceMeters>
          </Trackpoint>
          <Trackpoint>
            <Time>2021-08-09T12:47:59.000Z</Time>
            <Position>
              <LatitudeDegrees>43.08088104240596294403076171875</LatitudeDegrees>
              <LongitudeDegrees>-1.7757551372051239013671875</LongitudeDegrees>
            </Position>
            <AltitudeMeters>584.20001220703125</AltitudeMeters>
            <DistanceMeters>NAN</DistanceMeters>
          </Trackpoint>
          <Trackpoint>
            <Time>2021-08-09T12:48:05.000Z</Time>
            <Position>
              <LatitudeDegrees>43.08099905960261821746826171875</LatitudeDegrees>
              <LongitudeDegrees>-1.77584239281713962554931640625</LongitudeDegrees>
            </Position>
            <AltitudeMeters>584.4000244140625</AltitudeMeters>
            <DistanceMeters>NAN</DistanceMeters>
          </Trackpoint>
          <Trackpoint>
            <Time>2021-08-09T12:48:06.000Z</Time>
            <Position>
              <LatitudeDegrees>43.081017918884754180908203125</LatitudeDegrees>
              <LongitudeDegrees>-1.77586175501346588134765625</LongitudeDegrees>
            </Position>
            <AltitudeMeters>584.4000244140625</AltitudeMeters>
            <DistanceMeters>NAN</DistanceMeters>
          </Trackpoint>
          <Trackpoint>
            <Time>2021-08-09T12:48:11.000Z</Time>
            <Position>
              <LatitudeDegrees>43.081102073192596435546875</LatitudeDegrees>
              <LongitudeDegrees>-1.77597264759242534637451171875</LongitudeDegrees>
            </Position>
            <AltitudeMeters>584.4000244140625</AltitudeMeters>
            <DistanceMeters>NAN</DistanceMeters>
          </Trackpoint>
          <Trackpoint>
            <Time>2021-08-09T12:48:12.000Z</Time>
            <Position>
              <LatitudeDegrees>43.08111749589443206787109375</LatitudeDegrees>
              <LongitudeDegrees>-1.77599460817873477935791015625</LongitudeDegrees>
            </Position>
            <AltitudeMeters>584.4000244140625</AltitudeMeters>
            <DistanceMeters>NAN</DistanceMeters>
          </Trackpoint>
          <Trackpoint>
            <Time>2021-08-09T12:48:14.000Z</Time>
            <Position>
              <LatitudeDegrees>43.081147335469722747802734375</LatitudeDegrees>
              <LongitudeDegrees>-1.776041127741336822509765625</LongitudeDegrees>
            </Position>
            <AltitudeMeters>584.4000244140625</AltitudeMeters>
            <DistanceMeters>NAN</DistanceMeters>
          </Trackpoint>
          <Trackpoint>
            <Time>2021-08-09T12:48:20.000Z</Time>
            <Position>
              <LatitudeDegrees>43.08122637681663036346435546875</LatitudeDegrees>
              <LongitudeDegrees>-1.77619342692196369171142578125</LongitudeDegrees>
            </Position>
            <AltitudeMeters>584.4000244140625</AltitudeMeters>
            <DistanceMeters>NAN</DistanceMeters>
          </Trackpoint>
          <Trackpoint>
            <Time>2021-08-09T12:48:21.000Z</Time>
            <Position>
              <LatitudeDegrees>43.08123710565268993377685546875</LatitudeDegrees>
              <LongitudeDegrees>-1.77621672861278057098388671875</LongitudeDegrees>
            </Position>
            <AltitudeMeters>584.4000244140625</AltitudeMeters>
            <DistanceMeters>NAN</DistanceMeters>
          </Trackpoint>
          <Trackpoint>
            <Time>2021-08-09T12:48:22.000Z</Time>
            <Position>
              <LatitudeDegrees>43.08124749921262264251708984375</LatitudeDegrees>
              <LongitudeDegrees>-1.77623868919909000396728515625</LongitudeDegrees>
            </Position>
            <AltitudeMeters>584.4000244140625</AltitudeMeters>
            <DistanceMeters>NAN</DistanceMeters>
          </Trackpoint>
          <Trackpoint>
            <Time>2021-08-09T12:48:23.000Z</Time>
            <Position>
              <LatitudeDegrees>43.08125588111579418182373046875</LatitudeDegrees>
              <LongitudeDegrees>-1.7762575484812259674072265625</LongitudeDegrees>
            </Position>
            <AltitudeMeters>584.4000244140625</AltitudeMeters>
            <DistanceMeters>NAN</DistanceMeters>
          </Trackpoint>
          <Trackpoint>
            <Time>2021-08-09T12:48:24.000Z</Time>
            <Position>
              <LatitudeDegrees>43.08127063326537609100341796875</LatitudeDegrees>
              <LongitudeDegrees>-1.7762873880565166473388671875</LongitudeDegrees>
            </Position>
            <AltitudeMeters>584.5999755859375</AltitudeMeters>
            <DistanceMeters>NAN</DistanceMeters>
          </Trackpoint>
          <Trackpoint>
            <Time>2021-08-09T12:48:25.000Z</Time>
            <Position>
              <LatitudeDegrees>43.08128521777689456939697265625</LatitudeDegrees>
              <LongitudeDegrees>-1.7763132043182849884033203125</LongitudeDegrees>
            </Position>
            <AltitudeMeters>584.5999755859375</AltitudeMeters>
            <DistanceMeters>NAN</DistanceMeters>
          </Trackpoint>
          <Trackpoint>
            <Time>2021-08-09T12:48:26.000Z</Time>
            <Position>
              <LatitudeDegrees>43.08129795826971530914306640625</LatitudeDegrees>
              <LongitudeDegrees>-1.7763383500277996063232421875</LongitudeDegrees>
            </Position>
            <AltitudeMeters>584.5999755859375</AltitudeMeters>
            <DistanceMeters>NAN</DistanceMeters>
          </Trackpoint>
          <Trackpoint>
            <Time>2021-08-09T12:48:27.000Z</Time>
            <Position>
              <LatitudeDegrees>43.08130885474383831024169921875</LatitudeDegrees>
              <LongitudeDegrees>-1.77636332809925079345703125</LongitudeDegrees>
            </Position>
            <AltitudeMeters>584.79998779296875</AltitudeMeters>
            <DistanceMeters>NAN</DistanceMeters>
          </Trackpoint>
          <Trackpoint>
            <Time>2021-08-09T12:48:29.000Z</Time>
            <Position>
              <LatitudeDegrees>43.08133299462497234344482421875</LatitudeDegrees>
              <LongitudeDegrees>-1.776411943137645721435546875</LongitudeDegrees>
            </Position>
            <AltitudeMeters>584.79998779296875</AltitudeMeters>
            <DistanceMeters>NAN</DistanceMeters>
          </Trackpoint>
          <Trackpoint>
            <Time>2021-08-09T12:48:30.000Z</Time>
            <Position>
              <LatitudeDegrees>43.08134623803198337554931640625</LatitudeDegrees>
              <LongitudeDegrees>-1.7764337360858917236328125</LongitudeDegrees>
            </Position>
            <AltitudeMeters>584.79998779296875</AltitudeMeters>
            <DistanceMeters>NAN</DistanceMeters>
          </Trackpoint>
          <Trackpoint>
            <Time>2021-08-09T12:48:31.000Z</Time>
            <Position>
              <LatitudeDegrees>43.0813587270677089691162109375</LatitudeDegrees>
              <LongitudeDegrees>-1.77645494230091571807861328125</LongitudeDegrees>
            </Position>
            <AltitudeMeters>584.79998779296875</AltitudeMeters>
            <DistanceMeters>NAN</DistanceMeters>
          </Trackpoint>
          <Trackpoint>
            <Time>2021-08-09T12:48:36.000Z</Time>
            <Position>
              <LatitudeDegrees>43.0814224295318126678466796875</LatitudeDegrees>
              <LongitudeDegrees>-1.77655736915767192840576171875</LongitudeDegrees>
            </Position>
            <AltitudeMeters>585</AltitudeMeters>
            <DistanceMeters>NAN</DistanceMeters>
          </Trackpoint>
          <Trackpoint>
            <Time>2021-08-09T12:48:44.000Z</Time>
            <Position>
              <LatitudeDegrees>43.08153466321527957916259765625</LatitudeDegrees>
              <LongitudeDegrees>-1.776749901473522186279296875</LongitudeDegrees>
            </Position>
            <AltitudeMeters>585.4000244140625</AltitudeMeters>
            <DistanceMeters>NAN</DistanceMeters>
          </Trackpoint>
          <Trackpoint>
            <Time>2021-08-09T12:48:47.000Z</Time>
            <Position>
              <LatitudeDegrees>43.0815915763378143310546875</LatitudeDegrees>
              <LongitudeDegrees>-1.7768006958067417144775390625</LongitudeDegrees>
            </Position>
            <AltitudeMeters>585.5999755859375</AltitudeMeters>
            <DistanceMeters>NAN</DistanceMeters>
          </Trackpoint>
          <Trackpoint>
            <Time>2021-08-09T12:48:52.000Z</Time>
            <Position>
              <LatitudeDegrees>43.08169341646134853363037109375</LatitudeDegrees>
              <LongitudeDegrees>-1.7768870294094085693359375</LongitudeDegrees>
            </Position>
            <AltitudeMeters>585.5999755859375</AltitudeMeters>
            <DistanceMeters>NAN</DistanceMeters>
          </Trackpoint>
          <Trackpoint>
            <Time>2021-08-09T12:48:58.000Z</Time>
            <Position>
              <LatitudeDegrees>43.0818757228553295135498046875</LatitudeDegrees>
              <LongitudeDegrees>-1.77693254314363002777099609375</LongitudeDegrees>
            </Position>
            <AltitudeMeters>585.4000244140625</AltitudeMeters>
            <DistanceMeters>NAN</DistanceMeters>
          </Trackpoint>
          <Trackpoint>
            <Time>2021-08-09T12:49:02.000Z</Time>
            <Position>
              <LatitudeDegrees>43.08203615248203277587890625</LatitudeDegrees>
              <LongitudeDegrees>-1.77695207297801971435546875</LongitudeDegrees>
            </Position>
            <AltitudeMeters>585</AltitudeMeters>
            <DistanceMeters>NAN</DistanceMeters>
          </Trackpoint>
          <Trackpoint>
            <Time>2021-08-09T12:49:04.000Z</Time>
            <Position>
              <LatitudeDegrees>43.08212734758853912353515625</LatitudeDegrees>
              <LongitudeDegrees>-1.7769478820264339447021484375</LongitudeDegrees>
            </Position>
            <AltitudeMeters>585.20001220703125</AltitudeMeters>
            <DistanceMeters>NAN</DistanceMeters>
          </Trackpoint>
          <Trackpoint>
            <Time>2021-08-09T12:49:07.000Z</Time>
            <Position>
              <LatitudeDegrees>43.08226891793310642242431640625</LatitudeDegrees>
              <LongitudeDegrees>-1.77694000303745269775390625</LongitudeDegrees>
            </Position>
            <AltitudeMeters>584.79998779296875</AltitudeMeters>
            <DistanceMeters>NAN</DistanceMeters>
          </Trackpoint>
          <Trackpoint>
            <Time>2021-08-09T12:49:11.000Z</Time>
            <Position>
              <LatitudeDegrees>43.0824537388980388641357421875</LatitudeDegrees>
              <LongitudeDegrees>-1.7769270949065685272216796875</LongitudeDegrees>
            </Position>
            <AltitudeMeters>584.4000244140625</AltitudeMeters>
            <DistanceMeters>NAN</DistanceMeters>
          </Trackpoint>
          <Trackpoint>
            <Time>2021-08-09T12:49:18.000Z</Time>
            <Position>
              <LatitudeDegrees>43.08277803473174571990966796875</LatitudeDegrees>
              <LongitudeDegrees>-1.7768747918307781219482421875</LongitudeDegrees>
            </Position>
            <AltitudeMeters>584.4000244140625</AltitudeMeters>
            <DistanceMeters>NAN</DistanceMeters>
          </Trackpoint>
          <Trackpoint>
            <Time>2021-08-09T12:49:20.000Z</Time>
            <Position>
              <LatitudeDegrees>43.082864284515380859375</LatitudeDegrees>
              <LongitudeDegrees>-1.77685149013996124267578125</LongitudeDegrees>
            </Position>
            <AltitudeMeters>584.4000244140625</AltitudeMeters>
            <DistanceMeters>NAN</DistanceMeters>
          </Trackpoint>
          <Trackpoint>
            <Time>2021-08-09T12:49:21.000Z</Time>
            <Position>
              <LatitudeDegrees>43.08290644548833370208740234375</LatitudeDegrees>
              <LongitudeDegrees>-1.77684118039906024932861328125</LongitudeDegrees>
            </Position>
            <AltitudeMeters>584.4000244140625</AltitudeMeters>
            <DistanceMeters>NAN</DistanceMeters>
          </Trackpoint>
          <Trackpoint>
            <Time>2021-08-09T12:49:24.000Z</Time>
            <Position>
              <LatitudeDegrees>43.08304860256612300872802734375</LatitudeDegrees>
              <LongitudeDegrees>-1.77679826505482196807861328125</LongitudeDegrees>
            </Position>
            <AltitudeMeters>584.4000244140625</AltitudeMeters>
            <DistanceMeters>NAN</DistanceMeters>
          </Trackpoint>
          <Trackpoint>
            <Time>2021-08-09T12:49:26.000Z</Time>
            <Position>
              <LatitudeDegrees>43.083148263394832611083984375</LatitudeDegrees>
              <LongitudeDegrees>-1.77673959173262119293212890625</LongitudeDegrees>
            </Position>
            <AltitudeMeters>584.20001220703125</AltitudeMeters>
            <DistanceMeters>NAN</DistanceMeters>
          </Trackpoint>
          <Trackpoint>
            <Time>2021-08-09T12:49:28.000Z</Time>
            <Position>
              <LatitudeDegrees>43.08324205689132213592529296875</LatitudeDegrees>
              <LongitudeDegrees>-1.77664789371192455291748046875</LongitudeDegrees>
            </Position>
            <AltitudeMeters>584.20001220703125</AltitudeMeters>
            <DistanceMeters>NAN</DistanceMeters>
          </Trackpoint>
          <Trackpoint>
            <Time>2021-08-09T12:49:30.000Z</Time>
            <Position>
              <LatitudeDegrees>43.0833162367343902587890625</LatitudeDegrees>
              <LongitudeDegrees>-1.776520907878875732421875</LongitudeDegrees>
            </Position>
            <AltitudeMeters>584.20001220703125</AltitudeMeters>
            <DistanceMeters>NAN</DistanceMeters>
          </Trackpoint>
          <Trackpoint>
            <Time>2021-08-09T12:49:31.000Z</Time>
            <Position>
              <LatitudeDegrees>43.08335118927061557769775390625</LatitudeDegrees>
              <LongitudeDegrees>-1.7764483205974102020263671875</LongitudeDegrees>
            </Position>
            <AltitudeMeters>584.20001220703125</AltitudeMeters>
            <DistanceMeters>NAN</DistanceMeters>
          </Trackpoint>
          <Trackpoint>
            <Time>2021-08-09T12:49:35.000Z</Time>
            <Position>
              <LatitudeDegrees>43.08349871076643466949462890625</LatitudeDegrees>
              <LongitudeDegrees>-1.77614715881645679473876953125</LongitudeDegrees>
            </Position>
            <AltitudeMeters>583.4000244140625</AltitudeMeters>
            <DistanceMeters>NAN</DistanceMeters>
          </Trackpoint>
          <Trackpoint>
            <Time>2021-08-09T12:49:37.000Z</Time>
            <Position>
              <LatitudeDegrees>43.08357548899948596954345703125</LatitudeDegrees>
              <LongitudeDegrees>-1.77599410526454448699951171875</LongitudeDegrees>
            </Position>
            <AltitudeMeters>583</AltitudeMeters>
            <DistanceMeters>NAN</DistanceMeters>
          </Trackpoint>
          <Trackpoint>
            <Time>2021-08-09T12:49:39.000Z</Time>
            <Position>
              <LatitudeDegrees>43.08364220894873142242431640625</LatitudeDegrees>
              <LongitudeDegrees>-1.7758354358375072479248046875</LongitudeDegrees>
            </Position>
            <AltitudeMeters>582.5999755859375</AltitudeMeters>
            <DistanceMeters>NAN</DistanceMeters>
          </Trackpoint>
          <Trackpoint>
            <Time>2021-08-09T12:49:40.000Z</Time>
            <Position>
              <LatitudeDegrees>43.08366961777210235595703125</LatitudeDegrees>
              <LongitudeDegrees>-1.77575178444385528564453125</LongitudeDegrees>
            </Position>
            <AltitudeMeters>582.4000244140625</AltitudeMeters>
            <DistanceMeters>NAN</DistanceMeters>
          </Trackpoint>
          <Trackpoint>
            <Time>2021-08-09T12:49:41.000Z</Time>
            <Position>
              <LatitudeDegrees>43.08369509875774383544921875</LatitudeDegrees>
              <LongitudeDegrees>-1.7756688036024570465087890625</LongitudeDegrees>
            </Position>
            <AltitudeMeters>582.20001220703125</AltitudeMeters>
            <DistanceMeters>NAN</DistanceMeters>
          </Trackpoint>
          <Trackpoint>
            <Time>2021-08-09T12:49:48.000Z</Time>
            <Position>
              <LatitudeDegrees>43.08387254364788532257080078125</LatitudeDegrees>
              <LongitudeDegrees>-1.77508919499814510345458984375</LongitudeDegrees>
            </Position>
            <AltitudeMeters>581.79998779296875</AltitudeMeters>
            <DistanceMeters>NAN</DistanceMeters>
          </Trackpoint>
          <Trackpoint>
            <Time>2021-08-09T12:49:49.000Z</Time>
            <Position>
              <LatitudeDegrees>43.083907328546047210693359375</LatitudeDegrees>
              <LongitudeDegrees>-1.775019206106662750244140625</LongitudeDegrees>
            </Position>
            <AltitudeMeters>581.79998779296875</AltitudeMeters>
            <DistanceMeters>NAN</DistanceMeters>
          </Trackpoint>
          <Trackpoint>
            <Time>2021-08-09T12:49:50.000Z</Time>
            <Position>
              <LatitudeDegrees>43.08394680730998516082763671875</LatitudeDegrees>
              <LongitudeDegrees>-1.7749566771090030670166015625</LongitudeDegrees>
            </Position>
            <AltitudeMeters>581.5999755859375</AltitudeMeters>
            <DistanceMeters>NAN</DistanceMeters>
          </Trackpoint>
          <Trackpoint>
            <Time>2021-08-09T12:49:52.000Z</Time>
            <Position>
              <LatitudeDegrees>43.08402911759912967681884765625</LatitudeDegrees>
              <LongitudeDegrees>-1.77484176121652126312255859375</LongitudeDegrees>
            </Position>
            <AltitudeMeters>581.79998779296875</AltitudeMeters>
            <DistanceMeters>NAN</DistanceMeters>
          </Trackpoint>
          <Trackpoint>
            <Time>2021-08-09T12:49:53.000Z</Time>
            <Position>
              <LatitudeDegrees>43.0840694345533847808837890625</LatitudeDegrees>
              <LongitudeDegrees>-1.77478996105492115020751953125</LongitudeDegrees>
            </Position>
            <AltitudeMeters>581.5999755859375</AltitudeMeters>
            <DistanceMeters>NAN</DistanceMeters>
          </Trackpoint>
          <Trackpoint>
            <Time>2021-08-09T12:49:54.000Z</Time>
            <Position>
              <LatitudeDegrees>43.084110505878925323486328125</LatitudeDegrees>
              <LongitudeDegrees>-1.7747466266155242919921875</LongitudeDegrees>
            </Position>
            <AltitudeMeters>581.5999755859375</AltitudeMeters>
            <DistanceMeters>NAN</DistanceMeters>
          </Trackpoint>
          <Trackpoint>
            <Time>2021-08-09T12:49:55.000Z</Time>
            <Position>
              <LatitudeDegrees>43.0841556005179882049560546875</LatitudeDegrees>
              <LongitudeDegrees>-1.7747085727751255035400390625</LongitudeDegrees>
            </Position>
            <AltitudeMeters>581.5999755859375</AltitudeMeters>
            <DistanceMeters>NAN</DistanceMeters>
          </Trackpoint>
          <Trackpoint>
            <Time>2021-08-09T12:49:57.000Z</Time>
            <Position>
              <LatitudeDegrees>43.08425433933734893798828125</LatitudeDegrees>
              <LongitudeDegrees>-1.7746250890195369720458984375</LongitudeDegrees>
            </Position>
            <AltitudeMeters>581.4000244140625</AltitudeMeters>
            <DistanceMeters>NAN</DistanceMeters>
          </Trackpoint>
          <Trackpoint>
            <Time>2021-08-09T12:49:58.000Z</Time>
            <Position>
              <LatitudeDegrees>43.0842994339764118194580078125</LatitudeDegrees>
              <LongitudeDegrees>-1.7745851911604404449462890625</LongitudeDegrees>
            </Position>
            <AltitudeMeters>581.4000244140625</AltitudeMeters>
            <DistanceMeters>NAN</DistanceMeters>
          </Trackpoint>
          <Trackpoint>
            <Time>2021-08-09T12:49:59.000Z</Time>
            <Position>
              <LatitudeDegrees>43.0843373201787471771240234375</LatitudeDegrees>
              <LongitudeDegrees>-1.7745543457567691802978515625</LongitudeDegrees>
            </Position>
            <AltitudeMeters>581.4000244140625</AltitudeMeters>
            <DistanceMeters>NAN</DistanceMeters>
          </Trackpoint>
          <Trackpoint>
            <Time>2021-08-09T12:50:00.000Z</Time>
            <Position>
              <LatitudeDegrees>43.0843839235603809356689453125</LatitudeDegrees>
              <LongitudeDegrees>-1.77451721392571926116943359375</LongitudeDegrees>
            </Position>
            <AltitudeMeters>581.5999755859375</AltitudeMeters>
            <DistanceMeters>NAN</DistanceMeters>
          </Trackpoint>
          <Trackpoint>
            <Time>2021-08-09T12:50:01.000Z</Time>
            <Position>
              <LatitudeDegrees>43.0844278447329998016357421875</LatitudeDegrees>
              <LongitudeDegrees>-1.77447832189500331878662109375</LongitudeDegrees>
            </Position>
            <AltitudeMeters>581.5999755859375</AltitudeMeters>
            <DistanceMeters>NAN</DistanceMeters>
          </Trackpoint>
          <Trackpoint>
            <Time>2021-08-09T12:50:04.000Z</Time>
            <Position>
              <LatitudeDegrees>43.08455131016671657562255859375</LatitudeDegrees>
              <LongitudeDegrees>-1.77434672601521015167236328125</LongitudeDegrees>
            </Position>
            <AltitudeMeters>582.20001220703125</AltitudeMeters>
            <DistanceMeters>NAN</DistanceMeters>
          </Trackpoint>
          <Trackpoint>
            <Time>2021-08-09T12:50:05.000Z</Time>
            <Position>
              <LatitudeDegrees>43.08459305204451084136962890625</LatitudeDegrees>
              <LongitudeDegrees>-1.774301044642925262451171875</LongitudeDegrees>
            </Position>
            <AltitudeMeters>582.20001220703125</AltitudeMeters>
            <DistanceMeters>NAN</DistanceMeters>
          </Trackpoint>
          <Trackpoint>
            <Time>2021-08-09T12:50:06.000Z</Time>
            <Position>
              <LatitudeDegrees>43.0846439301967620849609375</LatitudeDegrees>
              <LongitudeDegrees>-1.77424061112105846405029296875</LongitudeDegrees>
            </Position>
            <AltitudeMeters>582.20001220703125</AltitudeMeters>
            <DistanceMeters>NAN</DistanceMeters>
          </Trackpoint>
          <Trackpoint>
            <Time>2021-08-09T12:50:07.000Z</Time>
            <Position>
              <LatitudeDegrees>43.0846893601119518280029296875</LatitudeDegrees>
              <LongitudeDegrees>-1.77418562583625316619873046875</LongitudeDegrees>
            </Position>
            <AltitudeMeters>582.20001220703125</AltitudeMeters>
            <DistanceMeters>NAN</DistanceMeters>
          </Trackpoint>
          <Trackpoint>
            <Time>2021-08-09T12:50:12.000Z</Time>
            <Position>
              <LatitudeDegrees>43.08494341559708118438720703125</LatitudeDegrees>
              <LongitudeDegrees>-1.77392209880053997039794921875</LongitudeDegrees>
            </Position>
            <AltitudeMeters>582</AltitudeMeters>
            <DistanceMeters>NAN</DistanceMeters>
          </Trackpoint>
          <Trackpoint>
            <Time>2021-08-09T12:50:14.000Z</Time>
            <Position>
              <LatitudeDegrees>43.085065372288227081298828125</LatitudeDegrees>
              <LongitudeDegrees>-1.773887313902378082275390625</LongitudeDegrees>
            </Position>
            <AltitudeMeters>581.5999755859375</AltitudeMeters>
            <DistanceMeters>NAN</DistanceMeters>
          </Trackpoint>
          <Trackpoint>
            <Time>2021-08-09T12:50:15.000Z</Time>
            <Position>
              <LatitudeDegrees>43.08513267897069454193115234375</LatitudeDegrees>
              <LongitudeDegrees>-1.77389712072908878326416015625</LongitudeDegrees>
            </Position>
            <AltitudeMeters>581.4000244140625</AltitudeMeters>
            <DistanceMeters>NAN</DistanceMeters>
          </Trackpoint>
          <Trackpoint>
            <Time>2021-08-09T12:50:16.000Z</Time>
            <Position>
              <LatitudeDegrees>43.0852006562054157257080078125</LatitudeDegrees>
              <LongitudeDegrees>-1.7739283852279186248779296875</LongitudeDegrees>
            </Position>
            <AltitudeMeters>581.20001220703125</AltitudeMeters>
            <DistanceMeters>NAN</DistanceMeters>
          </Trackpoint>
          <Trackpoint>
            <Time>2021-08-09T12:50:17.000Z</Time>
            <Position>
              <LatitudeDegrees>43.08527852408587932586669921875</LatitudeDegrees>
              <LongitudeDegrees>-1.77399166859686374664306640625</LongitudeDegrees>
            </Position>
            <AltitudeMeters>581.20001220703125</AltitudeMeters>
            <DistanceMeters>NAN</DistanceMeters>
          </Trackpoint>
          <Trackpoint>
            <Time>2021-08-09T12:50:18.000Z</Time>
            <Position>
              <LatitudeDegrees>43.08533317409455776214599609375</LatitudeDegrees>
              <LongitudeDegrees>-1.77405855618417263031005859375</LongitudeDegrees>
            </Position>
            <AltitudeMeters>581.20001220703125</AltitudeMeters>
            <DistanceMeters>NAN</DistanceMeters>
          </Trackpoint>
          <Trackpoint>
            <Time>2021-08-09T12:50:19.000Z</Time>
            <Position>
              <LatitudeDegrees>43.0853736586868762969970703125</LatitudeDegrees>
              <LongitudeDegrees>-1.774114631116390228271484375</LongitudeDegrees>
            </Position>
            <AltitudeMeters>581</AltitudeMeters>
            <DistanceMeters>NAN</DistanceMeters>
          </Trackpoint>
          <Trackpoint>
            <Time>2021-08-09T12:50:20.000Z</Time>
            <Position>
              <LatitudeDegrees>43.0854298174381256103515625</LatitudeDegrees>
              <LongitudeDegrees>-1.774194426834583282470703125</LongitudeDegrees>
            </Position>
            <AltitudeMeters>580.79998779296875</AltitudeMeters>
            <DistanceMeters>NAN</DistanceMeters>
          </Trackpoint>
          <Trackpoint>
            <Time>2021-08-09T12:50:21.000Z</Time>
            <Position>
              <LatitudeDegrees>43.0854745768010616302490234375</LatitudeDegrees>
              <LongitudeDegrees>-1.77426223643124103546142578125</LongitudeDegrees>
            </Position>
            <AltitudeMeters>580.4000244140625</AltitudeMeters>
            <DistanceMeters>NAN</DistanceMeters>
          </Trackpoint>
          <Trackpoint>
            <Time>2021-08-09T12:50:23.000Z</Time>
            <Position>
              <LatitudeDegrees>43.08556862175464630126953125</LatitudeDegrees>
              <LongitudeDegrees>-1.77438662387430667877197265625</LongitudeDegrees>
            </Position>
            <AltitudeMeters>580</AltitudeMeters>
            <DistanceMeters>NAN</DistanceMeters>
          </Trackpoint>
          <Trackpoint>
            <Time>2021-08-09T12:50:24.000Z</Time>
            <Position>
              <LatitudeDegrees>43.08560550212860107421875</LatitudeDegrees>
              <LongitudeDegrees>-1.77443205378949642181396484375</LongitudeDegrees>
            </Position>
            <AltitudeMeters>579.79998779296875</AltitudeMeters>
            <DistanceMeters>NAN</DistanceMeters>
          </Trackpoint>
          <Trackpoint>
            <Time>2021-08-09T12:50:25.000Z</Time>
            <Position>
              <LatitudeDegrees>43.08564984239637851715087890625</LatitudeDegrees>
              <LongitudeDegrees>-1.77448972128331661224365234375</LongitudeDegrees>
            </Position>
            <AltitudeMeters>579.5999755859375</AltitudeMeters>
            <DistanceMeters>NAN</DistanceMeters>
          </Trackpoint>
          <Trackpoint>
            <Time>2021-08-09T12:50:26.000Z</Time>
            <Position>
              <LatitudeDegrees>43.08570331893861293792724609375</LatitudeDegrees>
              <LongitudeDegrees>-1.774559207260608673095703125</LongitudeDegrees>
            </Position>
            <AltitudeMeters>579.5999755859375</AltitudeMeters>
            <DistanceMeters>NAN</DistanceMeters>
          </Trackpoint>
          <Trackpoint>
            <Time>2021-08-09T12:50:27.000Z</Time>
            <Position>
              <LatitudeDegrees>43.085746653378009796142578125</LatitudeDegrees>
              <LongitudeDegrees>-1.77461477927863597869873046875</LongitudeDegrees>
            </Position>
            <AltitudeMeters>579.5999755859375</AltitudeMeters>
            <DistanceMeters>NAN</DistanceMeters>
          </Trackpoint>
          <Trackpoint>
            <Time>2021-08-09T12:50:28.000Z</Time>
            <Position>
              <LatitudeDegrees>43.0857800133526325225830078125</LatitudeDegrees>
              <LongitudeDegrees>-1.7746581137180328369140625</LongitudeDegrees>
            </Position>
            <AltitudeMeters>579.5999755859375</AltitudeMeters>
            <DistanceMeters>NAN</DistanceMeters>
          </Trackpoint>
          <Trackpoint>
            <Time>2021-08-09T12:50:29.000Z</Time>
            <Position>
              <LatitudeDegrees>43.08582234196364879608154296875</LatitudeDegrees>
              <LongitudeDegrees>-1.77471284754574298858642578125</LongitudeDegrees>
            </Position>
            <AltitudeMeters>579.4000244140625</AltitudeMeters>
            <DistanceMeters>NAN</DistanceMeters>
          </Trackpoint>
          <Trackpoint>
            <Time>2021-08-09T12:50:30.000Z</Time>
            <Position>
              <LatitudeDegrees>43.08586366474628448486328125</LatitudeDegrees>
              <LongitudeDegrees>-1.7747716046869754791259765625</LongitudeDegrees>
            </Position>
            <AltitudeMeters>579.4000244140625</AltitudeMeters>
            <DistanceMeters>NAN</DistanceMeters>
          </Trackpoint>
          <Trackpoint>
            <Time>2021-08-09T12:50:31.000Z</Time>
            <Position>
              <LatitudeDegrees>43.08589861728250980377197265625</LatitudeDegrees>
              <LongitudeDegrees>-1.77483673207461833953857421875</LongitudeDegrees>
            </Position>
            <AltitudeMeters>579.4000244140625</AltitudeMeters>
            <DistanceMeters>NAN</DistanceMeters>
          </Trackpoint>
          <Trackpoint>
            <Time>2021-08-09T12:50:32.000Z</Time>
            <Position>
              <LatitudeDegrees>43.0859313905239105224609375</LatitudeDegrees>
              <LongitudeDegrees>-1.7749249935150146484375</LongitudeDegrees>
            </Position>
            <AltitudeMeters>579.4000244140625</AltitudeMeters>
            <DistanceMeters>NAN</DistanceMeters>
          </Trackpoint>
          <Trackpoint>
            <Time>2021-08-09T12:50:33.000Z</Time>
            <Position>
              <LatitudeDegrees>43.085941113531589508056640625</LatitudeDegrees>
              <LongitudeDegrees>-1.77499330602586269378662109375</LongitudeDegrees>
            </Position>
            <AltitudeMeters>579.4000244140625</AltitudeMeters>
            <DistanceMeters>NAN</DistanceMeters>
          </Trackpoint>
          <Trackpoint>
            <Time>2021-08-09T12:50:34.000Z</Time>
            <Position>
              <LatitudeDegrees>43.08594413101673126220703125</LatitudeDegrees>
              <LongitudeDegrees>-1.7750751972198486328125</LongitudeDegrees>
            </Position>
            <AltitudeMeters>579.4000244140625</AltitudeMeters>
            <DistanceMeters>NAN</DistanceMeters>
          </Trackpoint>
          <Trackpoint>
            <Time>2021-08-09T12:50:35.000Z</Time>
            <Position>
              <LatitudeDegrees>43.08593717403709888458251953125</LatitudeDegrees>
              <LongitudeDegrees>-1.7751544900238513946533203125</LongitudeDegrees>
            </Position>
            <AltitudeMeters>579.4000244140625</AltitudeMeters>
            <DistanceMeters>NAN</DistanceMeters>
          </Trackpoint>
          <Trackpoint>
            <Time>2021-08-09T12:50:36.000Z</Time>
            <Position>
              <LatitudeDegrees>43.08592409826815128326416015625</LatitudeDegrees>
              <LongitudeDegrees>-1.7752235569059848785400390625</LongitudeDegrees>
            </Position>
            <AltitudeMeters>579.4000244140625</AltitudeMeters>
            <DistanceMeters>NAN</DistanceMeters>
          </Trackpoint>
          <Trackpoint>
            <Time>2021-08-09T12:50:37.000Z</Time>
            <Position>
              <LatitudeDegrees>43.08590649627149105072021484375</LatitudeDegrees>
              <LongitudeDegrees>-1.775292791426181793212890625</LongitudeDegrees>
            </Position>
            <AltitudeMeters>579.5999755859375</AltitudeMeters>
            <DistanceMeters>NAN</DistanceMeters>
          </Trackpoint>
          <Trackpoint>
            <Time>2021-08-09T12:50:38.000Z</Time>
            <Position>
              <LatitudeDegrees>43.08588956482708454132080078125</LatitudeDegrees>
              <LongitudeDegrees>-1.7753566615283489227294921875</LongitudeDegrees>
            </Position>
            <AltitudeMeters>579.5999755859375</AltitudeMeters>
            <DistanceMeters>NAN</DistanceMeters>
          </Trackpoint>
          <Trackpoint>
            <Time>2021-08-09T12:50:39.000Z</Time>
            <Position>
              <LatitudeDegrees>43.08587682433426380157470703125</LatitudeDegrees>
              <LongitudeDegrees>-1.77541525103151798248291015625</LongitudeDegrees>
            </Position>
            <AltitudeMeters>579.5999755859375</AltitudeMeters>
            <DistanceMeters>NAN</DistanceMeters>
          </Trackpoint>
          <Trackpoint>
            <Time>2021-08-09T12:50:40.000Z</Time>
            <Position>
              <LatitudeDegrees>43.08586475439369678497314453125</LatitudeDegrees>
              <LongitudeDegrees>-1.77547140978276729583740234375</LongitudeDegrees>
            </Position>
            <AltitudeMeters>579.5999755859375</AltitudeMeters>
            <DistanceMeters>NAN</DistanceMeters>
          </Trackpoint>
          <Trackpoint>
            <Time>2021-08-09T12:50:41.000Z</Time>
            <Position>
              <LatitudeDegrees>43.085853271186351776123046875</LatitudeDegrees>
              <LongitudeDegrees>-1.7755286581814289093017578125</LongitudeDegrees>
            </Position>
            <AltitudeMeters>579.5999755859375</AltitudeMeters>
            <DistanceMeters>NAN</DistanceMeters>
          </Trackpoint>
          <Trackpoint>
            <Time>2021-08-09T12:50:45.000Z</Time>
            <Position>
              <LatitudeDegrees>43.08580038137733936309814453125</LatitudeDegrees>
              <LongitudeDegrees>-1.7757660336792469024658203125</LongitudeDegrees>
            </Position>
            <AltitudeMeters>579.79998779296875</AltitudeMeters>
            <DistanceMeters>NAN</DistanceMeters>
          </Trackpoint>
          <Trackpoint>
            <Time>2021-08-09T12:50:48.000Z</Time>
            <Position>
              <LatitudeDegrees>43.08577238582074642181396484375</LatitudeDegrees>
              <LongitudeDegrees>-1.7759564705193042755126953125</LongitudeDegrees>
            </Position>
            <AltitudeMeters>579.79998779296875</AltitudeMeters>
            <DistanceMeters>NAN</DistanceMeters>
          </Trackpoint>
          <Trackpoint>
            <Time>2021-08-09T12:50:51.000Z</Time>
            <Position>
              <LatitudeDegrees>43.08572595007717609405517578125</LatitudeDegrees>
              <LongitudeDegrees>-1.77616023458540439605712890625</LongitudeDegrees>
            </Position>
            <AltitudeMeters>579.4000244140625</AltitudeMeters>
            <DistanceMeters>NAN</DistanceMeters>
          </Trackpoint>
          <Trackpoint>
            <Time>2021-08-09T12:50:53.000Z</Time>
            <Position>
              <LatitudeDegrees>43.08569259010255336761474609375</LatitudeDegrees>
              <LongitudeDegrees>-1.77630943246185779571533203125</LongitudeDegrees>
            </Position>
            <AltitudeMeters>579.4000244140625</AltitudeMeters>
            <DistanceMeters>NAN</DistanceMeters>
          </Trackpoint>
          <Trackpoint>
            <Time>2021-08-09T12:50:58.000Z</Time>
            <Position>
              <LatitudeDegrees>43.0856430530548095703125</LatitudeDegrees>
              <LongitudeDegrees>-1.7767011187970638275146484375</LongitudeDegrees>
            </Position>
            <AltitudeMeters>579</AltitudeMeters>
            <DistanceMeters>NAN</DistanceMeters>
          </Trackpoint>
          <Trackpoint>
            <Time>2021-08-09T12:51:00.000Z</Time>
            <Position>
              <LatitudeDegrees>43.0856497585773468017578125</LatitudeDegrees>
              <LongitudeDegrees>-1.77686230279505252838134765625</LongitudeDegrees>
            </Position>
            <AltitudeMeters>578.79998779296875</AltitudeMeters>
            <DistanceMeters>NAN</DistanceMeters>
          </Trackpoint>
          <Trackpoint>
            <Time>2021-08-09T12:51:01.000Z</Time>
            <Position>
              <LatitudeDegrees>43.0856687016785144805908203125</LatitudeDegrees>
              <LongitudeDegrees>-1.7769458703696727752685546875</LongitudeDegrees>
            </Position>
            <AltitudeMeters>578.5999755859375</AltitudeMeters>
            <DistanceMeters>NAN</DistanceMeters>
          </Trackpoint>
          <Trackpoint>
            <Time>2021-08-09T12:51:02.000Z</Time>
            <Position>
              <LatitudeDegrees>43.08570004999637603759765625</LatitudeDegrees>
              <LongitudeDegrees>-1.77702558226883411407470703125</LongitudeDegrees>
            </Position>
            <AltitudeMeters>578.4000244140625</AltitudeMeters>
            <DistanceMeters>NAN</DistanceMeters>
          </Trackpoint>
          <Trackpoint>
            <Time>2021-08-09T12:51:03.000Z</Time>
            <Position>
              <LatitudeDegrees>43.085735253989696502685546875</LatitudeDegrees>
              <LongitudeDegrees>-1.77710353396832942962646484375</LongitudeDegrees>
            </Position>
            <AltitudeMeters>578.20001220703125</AltitudeMeters>
            <DistanceMeters>NAN</DistanceMeters>
          </Trackpoint>
          <Trackpoint>
            <Time>2021-08-09T12:51:04.000Z</Time>
            <Position>
              <LatitudeDegrees>43.0857699550688266754150390625</LatitudeDegrees>
              <LongitudeDegrees>-1.77718349732458591461181640625</LongitudeDegrees>
            </Position>
            <AltitudeMeters>578</AltitudeMeters>
            <DistanceMeters>NAN</DistanceMeters>
          </Trackpoint>
          <Trackpoint>
            <Time>2021-08-09T12:51:05.000Z</Time>
            <Position>
              <LatitudeDegrees>43.08580591343343257904052734375</LatitudeDegrees>
              <LongitudeDegrees>-1.77726597525179386138916015625</LongitudeDegrees>
            </Position>
            <AltitudeMeters>578</AltitudeMeters>
            <DistanceMeters>NAN</DistanceMeters>
          </Trackpoint>
          <Trackpoint>
            <Time>2021-08-09T12:51:09.000Z</Time>
            <Position>
              <LatitudeDegrees>43.08597095310688018798828125</LatitudeDegrees>
              <LongitudeDegrees>-1.77759312093257904052734375</LongitudeDegrees>
            </Position>
            <AltitudeMeters>577</AltitudeMeters>
            <DistanceMeters>NAN</DistanceMeters>
          </Trackpoint>
          <Trackpoint>
            <Time>2021-08-09T12:51:11.000Z</Time>
            <Position>
              <LatitudeDegrees>43.08607581071555614471435546875</LatitudeDegrees>
              <LongitudeDegrees>-1.77775673568248748779296875</LongitudeDegrees>
            </Position>
            <AltitudeMeters>576.5999755859375</AltitudeMeters>
            <DistanceMeters>NAN</DistanceMeters>
          </Trackpoint>
          <Trackpoint>
            <Time>2021-08-09T12:51:13.000Z</Time>
            <Position>
              <LatitudeDegrees>43.08618963696062564849853515625</LatitudeDegrees>
              <LongitudeDegrees>-1.7779148183763027191162109375</LongitudeDegrees>
            </Position>
            <AltitudeMeters>576.20001220703125</AltitudeMeters>
            <DistanceMeters>NAN</DistanceMeters>
          </Trackpoint>
          <Trackpoint>
            <Time>2021-08-09T12:51:15.000Z</Time>
            <Position>
              <LatitudeDegrees>43.08630564250051975250244140625</LatitudeDegrees>
              <LongitudeDegrees>-1.77807399071753025054931640625</LongitudeDegrees>
            </Position>
            <AltitudeMeters>575.4000244140625</AltitudeMeters>
            <DistanceMeters>NAN</DistanceMeters>
          </Trackpoint>
          <Trackpoint>
            <Time>2021-08-09T12:51:16.000Z</Time>
            <Position>
              <LatitudeDegrees>43.0863721109926700592041015625</LatitudeDegrees>
              <LongitudeDegrees>-1.7781438119709491729736328125</LongitudeDegrees>
            </Position>
            <AltitudeMeters>574.79998779296875</AltitudeMeters>
            <DistanceMeters>NAN</DistanceMeters>
          </Trackpoint>
          <Trackpoint>
            <Time>2021-08-09T12:51:17.000Z</Time>
            <Position>
              <LatitudeDegrees>43.08644595555961132049560546875</LatitudeDegrees>
              <LongitudeDegrees>-1.77820064127445220947265625</LongitudeDegrees>
            </Position>
            <AltitudeMeters>574.5999755859375</AltitudeMeters>
            <DistanceMeters>NAN</DistanceMeters>
          </Trackpoint>
          <Trackpoint>
            <Time>2021-08-09T12:51:19.000Z</Time>
            <Position>
              <LatitudeDegrees>43.086619712412357330322265625</LatitudeDegrees>
              <LongitudeDegrees>-1.77826425991952419281005859375</LongitudeDegrees>
            </Position>
            <AltitudeMeters>574.20001220703125</AltitudeMeters>
            <DistanceMeters>NAN</DistanceMeters>
          </Trackpoint>
          <Trackpoint>
            <Time>2021-08-09T12:51:20.000Z</Time>
            <Position>
              <LatitudeDegrees>43.08669908903539180755615234375</LatitudeDegrees>
              <LongitudeDegrees>-1.77826342172920703887939453125</LongitudeDegrees>
            </Position>
            <AltitudeMeters>574</AltitudeMeters>
            <DistanceMeters>NAN</DistanceMeters>
          </Trackpoint>
          <Trackpoint>
            <Time>2021-08-09T12:51:21.000Z</Time>
            <Position>
              <LatitudeDegrees>43.08677670545876026153564453125</LatitudeDegrees>
              <LongitudeDegrees>-1.77825638093054294586181640625</LongitudeDegrees>
            </Position>
            <AltitudeMeters>573.4000244140625</AltitudeMeters>
            <DistanceMeters>NAN</DistanceMeters>
          </Trackpoint>
          <Trackpoint>
            <Time>2021-08-09T12:51:22.000Z</Time>
            <Position>
              <LatitudeDegrees>43.08685281313955783843994140625</LatitudeDegrees>
              <LongitudeDegrees>-1.77824556827545166015625</LongitudeDegrees>
            </Position>
            <AltitudeMeters>573.20001220703125</AltitudeMeters>
            <DistanceMeters>NAN</DistanceMeters>
          </Trackpoint>
          <Trackpoint>
            <Time>2021-08-09T12:51:23.000Z</Time>
            <Position>
              <LatitudeDegrees>43.08691182173788547515869140625</LatitudeDegrees>
              <LongitudeDegrees>-1.77823324687778949737548828125</LongitudeDegrees>
            </Position>
            <AltitudeMeters>573</AltitudeMeters>
            <DistanceMeters>NAN</DistanceMeters>
          </Trackpoint>
          <Trackpoint>
            <Time>2021-08-09T12:51:24.000Z</Time>
            <Position>
              <LatitudeDegrees>43.086983822286128997802734375</LatitudeDegrees>
              <LongitudeDegrees>-1.7782202549278736114501953125</LongitudeDegrees>
            </Position>
            <AltitudeMeters>572.79998779296875</AltitudeMeters>
            <DistanceMeters>NAN</DistanceMeters>
          </Trackpoint>
          <Trackpoint>
            <Time>2021-08-09T12:51:25.000Z</Time>
            <Position>
              <LatitudeDegrees>43.087067306041717529296875</LatitudeDegrees>
              <LongitudeDegrees>-1.77820256911218166351318359375</LongitudeDegrees>
            </Position>
            <AltitudeMeters>572.5999755859375</AltitudeMeters>
            <DistanceMeters>NAN</DistanceMeters>
          </Trackpoint>
          <Trackpoint>
            <Time>2021-08-09T12:51:26.000Z</Time>
            <Position>
              <LatitudeDegrees>43.087135367095470428466796875</LatitudeDegrees>
              <LongitudeDegrees>-1.7781863920390605926513671875</LongitudeDegrees>
            </Position>
            <AltitudeMeters>572.5999755859375</AltitudeMeters>
            <DistanceMeters>NAN</DistanceMeters>
          </Trackpoint>
          <Trackpoint>
            <Time>2021-08-09T12:51:27.000Z</Time>
            <Position>
              <LatitudeDegrees>43.08718741871416568756103515625</LatitudeDegrees>
              <LongitudeDegrees>-1.7781783454120159149169921875</LongitudeDegrees>
            </Position>
            <AltitudeMeters>572.5999755859375</AltitudeMeters>
            <DistanceMeters>NAN</DistanceMeters>
          </Trackpoint>
          <Trackpoint>
            <Time>2021-08-09T12:51:28.000Z</Time>
            <Position>
              <LatitudeDegrees>43.0872523784637451171875</LatitudeDegrees>
              <LongitudeDegrees>-1.77816987968981266021728515625</LongitudeDegrees>
            </Position>
            <AltitudeMeters>572.4000244140625</AltitudeMeters>
            <DistanceMeters>NAN</DistanceMeters>
          </Trackpoint>
          <Trackpoint>
            <Time>2021-08-09T12:51:29.000Z</Time>
            <Position>
              <LatitudeDegrees>43.08731650002300739288330078125</LatitudeDegrees>
              <LongitudeDegrees>-1.7781592346727848052978515625</LongitudeDegrees>
            </Position>
            <AltitudeMeters>572.4000244140625</AltitudeMeters>
            <DistanceMeters>NAN</DistanceMeters>
          </Trackpoint>
          <Trackpoint>
            <Time>2021-08-09T12:51:30.000Z</Time>
            <Position>
              <LatitudeDegrees>43.08738171122968196868896484375</LatitudeDegrees>
              <LongitudeDegrees>-1.778145320713520050048828125</LongitudeDegrees>
            </Position>
            <AltitudeMeters>572.4000244140625</AltitudeMeters>
            <DistanceMeters>NAN</DistanceMeters>
          </Trackpoint>
          <Trackpoint>
            <Time>2021-08-09T12:51:33.000Z</Time>
            <Position>
              <LatitudeDegrees>43.0875729024410247802734375</LatitudeDegrees>
              <LongitudeDegrees>-1.7781002260744571685791015625</LongitudeDegrees>
            </Position>
            <AltitudeMeters>572.20001220703125</AltitudeMeters>
            <DistanceMeters>NAN</DistanceMeters>
          </Trackpoint>
          <Trackpoint>
            <Time>2021-08-09T12:51:34.000Z</Time>
            <Position>
              <LatitudeDegrees>43.08763568289577960968017578125</LatitudeDegrees>
              <LongitudeDegrees>-1.77808891050517559051513671875</LongitudeDegrees>
            </Position>
            <AltitudeMeters>572.20001220703125</AltitudeMeters>
            <DistanceMeters>NAN</DistanceMeters>
          </Trackpoint>
          <Trackpoint>
            <Time>2021-08-09T12:51:35.000Z</Time>
            <Position>
              <LatitudeDegrees>43.087700642645359039306640625</LatitudeDegrees>
              <LongitudeDegrees>-1.77807591855525970458984375</LongitudeDegrees>
            </Position>
            <AltitudeMeters>572</AltitudeMeters>
            <DistanceMeters>NAN</DistanceMeters>
          </Trackpoint>
          <Trackpoint>
            <Time>2021-08-09T12:51:37.000Z</Time>
            <Position>
              <LatitudeDegrees>43.087832070887088775634765625</LatitudeDegrees>
              <LongitudeDegrees>-1.77804281003773212432861328125</LongitudeDegrees>
            </Position>
            <AltitudeMeters>571.5999755859375</AltitudeMeters>
            <DistanceMeters>NAN</DistanceMeters>
          </Trackpoint>
          <Trackpoint>
            <Time>2021-08-09T12:51:38.000Z</Time>
            <Position>
              <LatitudeDegrees>43.0878949351608753204345703125</LatitudeDegrees>
              <LongitudeDegrees>-1.77802026271820068359375</LongitudeDegrees>
            </Position>
            <AltitudeMeters>571.4000244140625</AltitudeMeters>
            <DistanceMeters>NAN</DistanceMeters>
          </Trackpoint>
          <Trackpoint>
            <Time>2021-08-09T12:51:40.000Z</Time>
            <Position>
              <LatitudeDegrees>43.08800850994884967803955078125</LatitudeDegrees>
              <LongitudeDegrees>-1.7779614217579364776611328125</LongitudeDegrees>
            </Position>
            <AltitudeMeters>571</AltitudeMeters>
            <DistanceMeters>NAN</DistanceMeters>
          </Trackpoint>
          <Trackpoint>
            <Time>2021-08-09T12:51:41.000Z</Time>
            <Position>
              <LatitudeDegrees>43.08805502951145172119140625</LatitudeDegrees>
              <LongitudeDegrees>-1.7779342643916606903076171875</LongitudeDegrees>
            </Position>
            <AltitudeMeters>570.79998779296875</AltitudeMeters>
            <DistanceMeters>NAN</DistanceMeters>
          </Trackpoint>
          <Trackpoint>
            <Time>2021-08-09T12:51:42.000Z</Time>
            <Position>
              <LatitudeDegrees>43.08809752576053142547607421875</LatitudeDegrees>
              <LongitudeDegrees>-1.77790903486311435699462890625</LongitudeDegrees>
            </Position>
            <AltitudeMeters>570.79998779296875</AltitudeMeters>
            <DistanceMeters>NAN</DistanceMeters>
          </Trackpoint>
          <Trackpoint>
            <Time>2021-08-09T12:51:43.000Z</Time>
            <Position>
              <LatitudeDegrees>43.0881363339722156524658203125</LatitudeDegrees>
              <LongitudeDegrees>-1.7778869904577732086181640625</LongitudeDegrees>
            </Position>
            <AltitudeMeters>570.5999755859375</AltitudeMeters>
            <DistanceMeters>NAN</DistanceMeters>
          </Trackpoint>
          <Trackpoint>
            <Time>2021-08-09T12:51:44.000Z</Time>
            <Position>
              <LatitudeDegrees>43.08817078359425067901611328125</LatitudeDegrees>
              <LongitudeDegrees>-1.77786746062338352203369140625</LongitudeDegrees>
            </Position>
            <AltitudeMeters>570.20001220703125</AltitudeMeters>
            <DistanceMeters>NAN</DistanceMeters>
          </Trackpoint>
          <Trackpoint>
            <Time>2021-08-09T12:51:45.000Z</Time>
            <Position>
              <LatitudeDegrees>43.08820062316954135894775390625</LatitudeDegrees>
              <LongitudeDegrees>-1.77785119973123073577880859375</LongitudeDegrees>
            </Position>
            <AltitudeMeters>570.20001220703125</AltitudeMeters>
            <DistanceMeters>NAN</DistanceMeters>
          </Trackpoint>
          <Trackpoint>
            <Time>2021-08-09T12:51:46.000Z</Time>
            <Position>
              <LatitudeDegrees>43.0882275290787220001220703125</LatitudeDegrees>
              <LongitudeDegrees>-1.7778343521058559417724609375</LongitudeDegrees>
            </Position>
            <AltitudeMeters>569.79998779296875</AltitudeMeters>
            <DistanceMeters>NAN</DistanceMeters>
          </Trackpoint>
          <Trackpoint>
            <Time>2021-08-09T12:51:47.000Z</Time>
            <Position>
              <LatitudeDegrees>43.08825259096920490264892578125</LatitudeDegrees>
              <LongitudeDegrees>-1.77782110869884490966796875</LongitudeDegrees>
            </Position>
            <AltitudeMeters>569.5999755859375</AltitudeMeters>
            <DistanceMeters>NAN</DistanceMeters>
          </Trackpoint>
          <Trackpoint>
            <Time>2021-08-09T12:51:48.000Z</Time>
            <Position>
              <LatitudeDegrees>43.08827907778322696685791015625</LatitudeDegrees>
              <LongitudeDegrees>-1.7778115533292293548583984375</LongitudeDegrees>
            </Position>
            <AltitudeMeters>569.4000244140625</AltitudeMeters>
            <DistanceMeters>NAN</DistanceMeters>
          </Trackpoint>
          <Trackpoint>
            <Time>2021-08-09T12:51:49.000Z</Time>
            <Position>
              <LatitudeDegrees>43.08830321766436100006103515625</LatitudeDegrees>
              <LongitudeDegrees>-1.7778115533292293548583984375</LongitudeDegrees>
            </Position>
            <AltitudeMeters>569.20001220703125</AltitudeMeters>
            <DistanceMeters>NAN</DistanceMeters>
          </Trackpoint>
          <Trackpoint>
            <Time>2021-08-09T12:51:50.000Z</Time>
            <Position>
              <LatitudeDegrees>43.0883257649838924407958984375</LatitudeDegrees>
              <LongitudeDegrees>-1.77781415171921253204345703125</LongitudeDegrees>
            </Position>
            <AltitudeMeters>568.79998779296875</AltitudeMeters>
            <DistanceMeters>NAN</DistanceMeters>
          </Trackpoint>
          <Trackpoint>
            <Time>2021-08-09T12:51:51.000Z</Time>
            <Position>
              <LatitudeDegrees>43.0883442051708698272705078125</LatitudeDegrees>
              <LongitudeDegrees>-1.77782169543206691741943359375</LongitudeDegrees>
            </Position>
            <AltitudeMeters>568.4000244140625</AltitudeMeters>
            <DistanceMeters>NAN</DistanceMeters>
          </Trackpoint>
          <Trackpoint>
            <Time>2021-08-09T12:51:52.000Z</Time>
            <Position>
              <LatitudeDegrees>43.0883587896823883056640625</LatitudeDegrees>
              <LongitudeDegrees>-1.77784013561904430389404296875</LongitudeDegrees>
            </Position>
            <AltitudeMeters>568.4000244140625</AltitudeMeters>
            <DistanceMeters>NAN</DistanceMeters>
          </Trackpoint>
          <Trackpoint>
            <Time>2021-08-09T12:51:53.000Z</Time>
            <Position>
              <LatitudeDegrees>43.08837077580392360687255859375</LatitudeDegrees>
              <LongitudeDegrees>-1.77785924635827541351318359375</LongitudeDegrees>
            </Position>
            <AltitudeMeters>568.20001220703125</AltitudeMeters>
            <DistanceMeters>NAN</DistanceMeters>
          </Trackpoint>
          <Trackpoint>
            <Time>2021-08-09T12:51:54.000Z</Time>
            <Position>
              <LatitudeDegrees>43.08838435448706150054931640625</LatitudeDegrees>
              <LongitudeDegrees>-1.77787617780268192291259765625</LongitudeDegrees>
            </Position>
            <AltitudeMeters>568</AltitudeMeters>
            <DistanceMeters>NAN</DistanceMeters>
          </Trackpoint>
          <Trackpoint>
            <Time>2021-08-09T12:51:55.000Z</Time>
            <Position>
              <LatitudeDegrees>43.08839441277086734771728515625</LatitudeDegrees>
              <LongitudeDegrees>-1.77789629437029361724853515625</LongitudeDegrees>
            </Position>
            <AltitudeMeters>567.79998779296875</AltitudeMeters>
            <DistanceMeters>NAN</DistanceMeters>
          </Trackpoint>
          <Trackpoint>
            <Time>2021-08-09T12:51:56.000Z</Time>
            <Position>
              <LatitudeDegrees>43.08839357458055019378662109375</LatitudeDegrees>
              <LongitudeDegrees>-1.777921020984649658203125</LongitudeDegrees>
            </Position>
            <AltitudeMeters>567.5999755859375</AltitudeMeters>
            <DistanceMeters>NAN</DistanceMeters>
          </Trackpoint>
          <Trackpoint>
            <Time>2021-08-09T12:51:57.000Z</Time>
            <Position>
              <LatitudeDegrees>43.08838033117353916168212890625</LatitudeDegrees>
              <LongitudeDegrees>-1.777937449514865875244140625</LongitudeDegrees>
            </Position>
            <AltitudeMeters>567.4000244140625</AltitudeMeters>
            <DistanceMeters>NAN</DistanceMeters>
          </Trackpoint>
          <Trackpoint>
            <Time>2021-08-09T12:51:58.000Z</Time>
            <Position>
              <LatitudeDegrees>43.088365830481052398681640625</LatitudeDegrees>
              <LongitudeDegrees>-1.77793200127780437469482421875</LongitudeDegrees>
            </Position>
            <AltitudeMeters>567</AltitudeMeters>
            <DistanceMeters>NAN</DistanceMeters>
          </Trackpoint>
          <Trackpoint>
            <Time>2021-08-09T12:51:59.000Z</Time>
            <Position>
              <LatitudeDegrees>43.08835585601627826690673828125</LatitudeDegrees>
              <LongitudeDegrees>-1.77791272290050983428955078125</LongitudeDegrees>
            </Position>
            <AltitudeMeters>567</AltitudeMeters>
            <DistanceMeters>NAN</DistanceMeters>
          </Trackpoint>
          <Trackpoint>
            <Time>2021-08-09T12:52:00.000Z</Time>
            <Position>
              <LatitudeDegrees>43.08835501782596111297607421875</LatitudeDegrees>
              <LongitudeDegrees>-1.77789411507546901702880859375</LongitudeDegrees>
            </Position>
            <AltitudeMeters>566.79998779296875</AltitudeMeters>
            <DistanceMeters>NAN</DistanceMeters>
          </Trackpoint>
          <Trackpoint>
            <Time>2021-08-09T12:52:01.000Z</Time>
            <Position>
              <LatitudeDegrees>43.0883562751114368438720703125</LatitudeDegrees>
              <LongitudeDegrees>-1.777873747050762176513671875</LongitudeDegrees>
            </Position>
            <AltitudeMeters>566.79998779296875</AltitudeMeters>
            <DistanceMeters>NAN</DistanceMeters>
          </Trackpoint>
          <Trackpoint>
            <Time>2021-08-09T12:52:02.000Z</Time>
            <Position>
              <LatitudeDegrees>43.08835736475884914398193359375</LatitudeDegrees>
              <LongitudeDegrees>-1.7778638564050197601318359375</LongitudeDegrees>
            </Position>
            <AltitudeMeters>566.79998779296875</AltitudeMeters>
            <DistanceMeters>NAN</DistanceMeters>
          </Trackpoint>
          <Trackpoint>
            <Time>2021-08-09T12:52:03.000Z</Time>
            <Position>
              <LatitudeDegrees>43.08835736475884914398193359375</LatitudeDegrees>
              <LongitudeDegrees>-1.7778638564050197601318359375</LongitudeDegrees>
            </Position>
            <AltitudeMeters>566.5999755859375</AltitudeMeters>
            <DistanceMeters>NAN</DistanceMeters>
          </Trackpoint>
          <Trackpoint>
            <Time>2021-08-09T12:52:04.000Z</Time>
            <Position>
              <LatitudeDegrees>43.0883569456636905670166015625</LatitudeDegrees>
              <LongitudeDegrees>-1.77785891108214855194091796875</LongitudeDegrees>
            </Position>
            <AltitudeMeters>566.5999755859375</AltitudeMeters>
            <DistanceMeters>NAN</DistanceMeters>
          </Trackpoint>
          <Trackpoint>
            <Time>2021-08-09T12:52:05.000Z</Time>
            <Position>
              <LatitudeDegrees>43.0883599631488323211669921875</LatitudeDegrees>
              <LongitudeDegrees>-1.7778467573225498199462890625</LongitudeDegrees>
            </Position>
            <AltitudeMeters>566.5999755859375</AltitudeMeters>
            <DistanceMeters>NAN</DistanceMeters>
          </Trackpoint>
          <Trackpoint>
            <Time>2021-08-09T12:52:11.000Z</Time>
            <Position>
              <LatitudeDegrees>43.08836021460592746734619140625</LatitudeDegrees>
              <LongitudeDegrees>-1.77784181199967861175537109375</LongitudeDegrees>
            </Position>
            <AltitudeMeters>566.4000244140625</AltitudeMeters>
            <DistanceMeters>NAN</DistanceMeters>
          </Trackpoint>
          <Trackpoint>
            <Time>2021-08-09T12:52:18.000Z</Time>
            <Position>
              <LatitudeDegrees>43.08836021460592746734619140625</LatitudeDegrees>
              <LongitudeDegrees>-1.77784181199967861175537109375</LongitudeDegrees>
            </Position>
            <AltitudeMeters>566.4000244140625</AltitudeMeters>
            <DistanceMeters>NAN</DistanceMeters>
          </Trackpoint>
          <Trackpoint>
            <Time>2021-08-09T12:52:21.000Z</Time>
            <Position>
              <LatitudeDegrees>43.0883505754172801971435546875</LatitudeDegrees>
              <LongitudeDegrees>-1.7778606712818145751953125</LongitudeDegrees>
            </Position>
            <AltitudeMeters>566.4000244140625</AltitudeMeters>
            <DistanceMeters>NAN</DistanceMeters>
          </Trackpoint>
          <Trackpoint>
            <Time>2021-08-09T12:52:23.000Z</Time>
            <Position>
              <LatitudeDegrees>43.08832953684031963348388671875</LatitudeDegrees>
              <LongitudeDegrees>-1.777886487543582916259765625</LongitudeDegrees>
            </Position>
            <AltitudeMeters>566.4000244140625</AltitudeMeters>
            <DistanceMeters>NAN</DistanceMeters>
          </Trackpoint>
          <Trackpoint>
            <Time>2021-08-09T12:52:24.000Z</Time>
            <Position>
              <LatitudeDegrees>43.08832048438489437103271484375</LatitudeDegrees>
              <LongitudeDegrees>-1.777895875275135040283203125</LongitudeDegrees>
            </Position>
            <AltitudeMeters>566.5999755859375</AltitudeMeters>
            <DistanceMeters>NAN</DistanceMeters>
          </Trackpoint>
          <Trackpoint>
            <Time>2021-08-09T12:52:25.000Z</Time>
            <Position>
              <LatitudeDegrees>43.0883158743381500244140625</LatitudeDegrees>
              <LongitudeDegrees>-1.7779047600924968719482421875</LongitudeDegrees>
            </Position>
            <AltitudeMeters>566.5999755859375</AltitudeMeters>
            <DistanceMeters>NAN</DistanceMeters>
          </Trackpoint>
          <Trackpoint>
            <Time>2021-08-09T12:52:28.000Z</Time>
            <Position>
              <LatitudeDegrees>43.088314197957515716552734375</LatitudeDegrees>
              <LongitudeDegrees>-1.77790652029216289520263671875</LongitudeDegrees>
            </Position>
            <AltitudeMeters>566.5999755859375</AltitudeMeters>
            <DistanceMeters>NAN</DistanceMeters>
          </Trackpoint>
          <Trackpoint>
            <Time>2021-08-09T12:52:33.000Z</Time>
            <Position>
              <LatitudeDegrees>43.088314197957515716552734375</LatitudeDegrees>
              <LongitudeDegrees>-1.77790652029216289520263671875</LongitudeDegrees>
            </Position>
            <AltitudeMeters>566.5999755859375</AltitudeMeters>
            <DistanceMeters>NAN</DistanceMeters>
          </Trackpoint>
          <Trackpoint>
            <Time>2021-08-09T12:53:04.000Z</Time>
            <Position>
              <LatitudeDegrees>43.088295422494411468505859375</LatitudeDegrees>
              <LongitudeDegrees>-1.77793149836361408233642578125</LongitudeDegrees>
            </Position>
            <AltitudeMeters>567.4000244140625</AltitudeMeters>
            <DistanceMeters>NAN</DistanceMeters>
          </Trackpoint>
          <Trackpoint>
            <Time>2021-08-09T12:53:07.000Z</Time>
            <Position>
              <LatitudeDegrees>43.08828595094382762908935546875</LatitudeDegrees>
              <LongitudeDegrees>-1.77793200127780437469482421875</LongitudeDegrees>
            </Position>
            <AltitudeMeters>567.4000244140625</AltitudeMeters>
            <DistanceMeters>NAN</DistanceMeters>
          </Trackpoint>
          <Trackpoint>
            <Time>2021-08-09T12:54:46.000Z</Time>
            <Position>
              <LatitudeDegrees>43.0882811732590198516845703125</LatitudeDegrees>
              <LongitudeDegrees>-1.77794876508414745330810546875</LongitudeDegrees>
            </Position>
            <AltitudeMeters>568.4000244140625</AltitudeMeters>
            <DistanceMeters>NAN</DistanceMeters>
          </Trackpoint>
          <Trackpoint>
            <Time>2021-08-09T12:55:51.000Z</Time>
            <Position>
              <LatitudeDegrees>43.08828058652579784393310546875</LatitudeDegrees>
              <LongitudeDegrees>-1.7779493518173694610595703125</LongitudeDegrees>
            </Position>
            <AltitudeMeters>568.20001220703125</AltitudeMeters>
            <DistanceMeters>NAN</DistanceMeters>
          </Trackpoint>
          <Trackpoint>
            <Time>2021-08-09T12:56:03.000Z</Time>
            <Position>
              <LatitudeDegrees>43.08827497065067291259765625</LatitudeDegrees>
              <LongitudeDegrees>-1.77795463241636753082275390625</LongitudeDegrees>
            </Position>
            <AltitudeMeters>568.5999755859375</AltitudeMeters>
            <DistanceMeters>NAN</DistanceMeters>
          </Trackpoint>
          <Trackpoint>
            <Time>2021-08-09T12:56:24.000Z</Time>
            <Position>
              <LatitudeDegrees>43.088271282613277435302734375</LatitudeDegrees>
              <LongitudeDegrees>-1.77795899100601673126220703125</LongitudeDegrees>
            </Position>
            <AltitudeMeters>568.4000244140625</AltitudeMeters>
            <DistanceMeters>NAN</DistanceMeters>
          </Trackpoint>
          <Trackpoint>
            <Time>2021-08-09T13:21:33.000Z</Time>
            <Position>
              <LatitudeDegrees>43.0884501524269580841064453125</LatitudeDegrees>
              <LongitudeDegrees>-1.77802135236561298370361328125</LongitudeDegrees>
            </Position>
            <AltitudeMeters>568.79998779296875</AltitudeMeters>
            <DistanceMeters>NAN</DistanceMeters>
          </Trackpoint>
          <Trackpoint>
            <Time>2021-08-09T13:21:36.000Z</Time>
            <Position>
              <LatitudeDegrees>43.0883261002600193023681640625</LatitudeDegrees>
              <LongitudeDegrees>-1.7777361162006855010986328125</LongitudeDegrees>
            </Position>
            <AltitudeMeters>568.5999755859375</AltitudeMeters>
            <DistanceMeters>NAN</DistanceMeters>
          </Trackpoint>
          <Trackpoint>
            <Time>2021-08-09T13:21:46.000Z</Time>
            <Position>
              <LatitudeDegrees>43.088305480778217315673828125</LatitudeDegrees>
              <LongitudeDegrees>-1.77786377258598804473876953125</LongitudeDegrees>
            </Position>
            <AltitudeMeters>568.5999755859375</AltitudeMeters>
            <DistanceMeters>NAN</DistanceMeters>
          </Trackpoint>
          <Trackpoint>
            <Time>2021-08-09T13:21:50.000Z</Time>
            <Position>
              <LatitudeDegrees>43.08829802088439464569091796875</LatitudeDegrees>
              <LongitudeDegrees>-1.77785237319767475128173828125</LongitudeDegrees>
            </Position>
            <AltitudeMeters>568.5999755859375</AltitudeMeters>
            <DistanceMeters>NAN</DistanceMeters>
          </Trackpoint>
          <Trackpoint>
            <Time>2021-08-09T13:21:57.000Z</Time>
            <Position>
              <LatitudeDegrees>43.08828569948673248291015625</LatitudeDegrees>
              <LongitudeDegrees>-1.77785337902605533599853515625</LongitudeDegrees>
            </Position>
            <AltitudeMeters>568</AltitudeMeters>
            <DistanceMeters>NAN</DistanceMeters>
          </Trackpoint>
          <Trackpoint>
            <Time>2021-08-09T13:22:06.000Z</Time>
            <Position>
              <LatitudeDegrees>43.08829768560826778411865234375</LatitudeDegrees>
              <LongitudeDegrees>-1.7778232879936695098876953125</LongitudeDegrees>
            </Position>
            <AltitudeMeters>567.79998779296875</AltitudeMeters>
            <DistanceMeters>NAN</DistanceMeters>
          </Trackpoint>
          <Trackpoint>
            <Time>2021-08-09T13:22:15.000Z</Time>
            <Position>
              <LatitudeDegrees>43.08829768560826778411865234375</LatitudeDegrees>
              <LongitudeDegrees>-1.77782504819333553314208984375</LongitudeDegrees>
            </Position>
            <AltitudeMeters>567.79998779296875</AltitudeMeters>
            <DistanceMeters>NAN</DistanceMeters>
          </Trackpoint>
          <Trackpoint>
            <Time>2021-08-09T13:22:17.000Z</Time>
            <Position>
              <LatitudeDegrees>43.08829165063798427581787109375</LatitudeDegrees>
              <LongitudeDegrees>-1.77778766490519046783447265625</LongitudeDegrees>
            </Position>
            <AltitudeMeters>567.79998779296875</AltitudeMeters>
            <DistanceMeters>NAN</DistanceMeters>
          </Trackpoint>
          <Trackpoint>
            <Time>2021-08-09T13:22:18.000Z</Time>
            <Position>
              <LatitudeDegrees>43.08829240500926971435546875</LatitudeDegrees>
              <LongitudeDegrees>-1.7777683027088642120361328125</LongitudeDegrees>
            </Position>
            <AltitudeMeters>567.79998779296875</AltitudeMeters>
            <DistanceMeters>NAN</DistanceMeters>
          </Trackpoint>
          <Trackpoint>
            <Time>2021-08-09T13:22:20.000Z</Time>
            <Position>
              <LatitudeDegrees>43.0882999487221240997314453125</LatitudeDegrees>
              <LongitudeDegrees>-1.777720861136913299560546875</LongitudeDegrees>
            </Position>
            <AltitudeMeters>567.79998779296875</AltitudeMeters>
            <DistanceMeters>NAN</DistanceMeters>
          </Trackpoint>
          <Trackpoint>
            <Time>2021-08-09T13:22:24.000Z</Time>
            <Position>
              <LatitudeDegrees>43.08833858929574489593505859375</LatitudeDegrees>
              <LongitudeDegrees>-1.7776164226233959197998046875</LongitudeDegrees>
            </Position>
            <AltitudeMeters>568</AltitudeMeters>
            <DistanceMeters>NAN</DistanceMeters>
          </Trackpoint>
          <Trackpoint>
            <Time>2021-08-09T13:22:25.000Z</Time>
            <Position>
              <LatitudeDegrees>43.0883462168276309967041015625</LatitudeDegrees>
              <LongitudeDegrees>-1.777596808969974517822265625</LongitudeDegrees>
            </Position>
            <AltitudeMeters>568</AltitudeMeters>
            <DistanceMeters>NAN</DistanceMeters>
          </Trackpoint>
          <Trackpoint>
            <Time>2021-08-09T13:22:29.000Z</Time>
            <Position>
              <LatitudeDegrees>43.08837865479290485382080078125</LatitudeDegrees>
              <LongitudeDegrees>-1.7775299213826656341552734375</LongitudeDegrees>
            </Position>
            <AltitudeMeters>568</AltitudeMeters>
            <DistanceMeters>NAN</DistanceMeters>
          </Trackpoint>
          <Trackpoint>
            <Time>2021-08-09T13:22:30.000Z</Time>
            <Position>
              <LatitudeDegrees>43.088385947048664093017578125</LatitudeDegrees>
              <LongitudeDegrees>-1.77752070128917694091796875</LongitudeDegrees>
            </Position>
            <AltitudeMeters>568</AltitudeMeters>
            <DistanceMeters>NAN</DistanceMeters>
          </Trackpoint>
          <Trackpoint>
            <Time>2021-08-09T13:22:31.000Z</Time>
            <Position>
              <LatitudeDegrees>43.0883941613137722015380859375</LatitudeDegrees>
              <LongitudeDegrees>-1.7775121517479419708251953125</LongitudeDegrees>
            </Position>
            <AltitudeMeters>568.20001220703125</AltitudeMeters>
            <DistanceMeters>NAN</DistanceMeters>
          </Trackpoint>
          <Trackpoint>
            <Time>2021-08-09T13:22:33.000Z</Time>
            <Position>
              <LatitudeDegrees>43.088412098586559295654296875</LatitudeDegrees>
              <LongitudeDegrees>-1.777492202818393707275390625</LongitudeDegrees>
            </Position>
            <AltitudeMeters>568.20001220703125</AltitudeMeters>
            <DistanceMeters>NAN</DistanceMeters>
          </Trackpoint>
          <Trackpoint>
            <Time>2021-08-09T13:22:35.000Z</Time>
            <Position>
              <LatitudeDegrees>43.08842676691710948944091796875</LatitudeDegrees>
              <LongitudeDegrees>-1.7774564959108829498291015625</LongitudeDegrees>
            </Position>
            <AltitudeMeters>568.20001220703125</AltitudeMeters>
            <DistanceMeters>NAN</DistanceMeters>
          </Trackpoint>
          <Trackpoint>
            <Time>2021-08-09T13:22:36.000Z</Time>
            <Position>
              <LatitudeDegrees>43.0884323827922344207763671875</LatitudeDegrees>
              <LongitudeDegrees>-1.77743696607649326324462890625</LongitudeDegrees>
            </Position>
            <AltitudeMeters>568.20001220703125</AltitudeMeters>
            <DistanceMeters>NAN</DistanceMeters>
          </Trackpoint>
          <Trackpoint>
            <Time>2021-08-09T13:22:37.000Z</Time>
            <Position>
              <LatitudeDegrees>43.0884427763521671295166015625</LatitudeDegrees>
              <LongitudeDegrees>-1.7774152569472789764404296875</LongitudeDegrees>
            </Position>
            <AltitudeMeters>568.20001220703125</AltitudeMeters>
            <DistanceMeters>NAN</DistanceMeters>
          </Trackpoint>
          <Trackpoint>
            <Time>2021-08-09T13:22:43.000Z</Time>
            <Position>
              <LatitudeDegrees>43.08852265588939189910888671875</LatitudeDegrees>
              <LongitudeDegrees>-1.7772694118320941925048828125</LongitudeDegrees>
            </Position>
            <AltitudeMeters>568.20001220703125</AltitudeMeters>
            <DistanceMeters>NAN</DistanceMeters>
          </Trackpoint>
          <Trackpoint>
            <Time>2021-08-09T13:22:51.000Z</Time>
            <Position>
              <LatitudeDegrees>43.08866783045232295989990234375</LatitudeDegrees>
              <LongitudeDegrees>-1.7770102433860301971435546875</LongitudeDegrees>
            </Position>
            <AltitudeMeters>568.5999755859375</AltitudeMeters>
            <DistanceMeters>NAN</DistanceMeters>
          </Trackpoint>
          <Trackpoint>
            <Time>2021-08-09T13:22:55.000Z</Time>
            <Position>
              <LatitudeDegrees>43.08875977993011474609375</LatitudeDegrees>
              <LongitudeDegrees>-1.77685283124446868896484375</LongitudeDegrees>
            </Position>
            <AltitudeMeters>568.79998779296875</AltitudeMeters>
            <DistanceMeters>NAN</DistanceMeters>
          </Trackpoint>
          <Trackpoint>
            <Time>2021-08-09T13:22:59.000Z</Time>
            <Position>
              <LatitudeDegrees>43.08885877020657062530517578125</LatitudeDegrees>
              <LongitudeDegrees>-1.77667337469756603240966796875</LongitudeDegrees>
            </Position>
            <AltitudeMeters>569</AltitudeMeters>
            <DistanceMeters>NAN</DistanceMeters>
          </Trackpoint>
          <Trackpoint>
            <Time>2021-08-09T13:23:02.000Z</Time>
            <Position>
              <LatitudeDegrees>43.088935799896717071533203125</LatitudeDegrees>
              <LongitudeDegrees>-1.7765472270548343658447265625</LongitudeDegrees>
            </Position>
            <AltitudeMeters>569</AltitudeMeters>
            <DistanceMeters>NAN</DistanceMeters>
          </Trackpoint>
          <Trackpoint>
            <Time>2021-08-09T13:23:07.000Z</Time>
            <Position>
              <LatitudeDegrees>43.089049793779850006103515625</LatitudeDegrees>
              <LongitudeDegrees>-1.77634455263614654541015625</LongitudeDegrees>
            </Position>
            <AltitudeMeters>569.4000244140625</AltitudeMeters>
            <DistanceMeters>NAN</DistanceMeters>
          </Trackpoint>
          <Trackpoint>
            <Time>2021-08-09T13:23:15.000Z</Time>
            <Position>
              <LatitudeDegrees>43.08928490616381168365478515625</LatitudeDegrees>
              <LongitudeDegrees>-1.7759209312498569488525390625</LongitudeDegrees>
            </Position>
            <AltitudeMeters>569.79998779296875</AltitudeMeters>
            <DistanceMeters>NAN</DistanceMeters>
          </Trackpoint>
          <Trackpoint>
            <Time>2021-08-09T13:23:18.000Z</Time>
            <Position>
              <LatitudeDegrees>43.08938884176313877105712890625</LatitudeDegrees>
              <LongitudeDegrees>-1.7757551372051239013671875</LongitudeDegrees>
            </Position>
            <AltitudeMeters>569.79998779296875</AltitudeMeters>
            <DistanceMeters>NAN</DistanceMeters>
          </Trackpoint>
          <Trackpoint>
            <Time>2021-08-09T13:23:21.000Z</Time>
            <Position>
              <LatitudeDegrees>43.089472241699695587158203125</LatitudeDegrees>
              <LongitudeDegrees>-1.775618009269237518310546875</LongitudeDegrees>
            </Position>
            <AltitudeMeters>570.20001220703125</AltitudeMeters>
            <DistanceMeters>NAN</DistanceMeters>
          </Trackpoint>
          <Trackpoint>
            <Time>2021-08-09T13:23:22.000Z</Time>
            <Position>
              <LatitudeDegrees>43.089512474834918975830078125</LatitudeDegrees>
              <LongitudeDegrees>-1.77556210197508335113525390625</LongitudeDegrees>
            </Position>
            <AltitudeMeters>570.20001220703125</AltitudeMeters>
            <DistanceMeters>NAN</DistanceMeters>
          </Trackpoint>
          <Trackpoint>
            <Time>2021-08-09T13:23:23.000Z</Time>
            <Position>
              <LatitudeDegrees>43.08953753672540187835693359375</LatitudeDegrees>
              <LongitudeDegrees>-1.77552471868693828582763671875</LongitudeDegrees>
            </Position>
            <AltitudeMeters>570.20001220703125</AltitudeMeters>
            <DistanceMeters>NAN</DistanceMeters>
          </Trackpoint>
          <Trackpoint>
            <Time>2021-08-09T13:23:24.000Z</Time>
            <Position>
              <LatitudeDegrees>43.089570142328739166259765625</LatitudeDegrees>
              <LongitudeDegrees>-1.77547610364854335784912109375</LongitudeDegrees>
            </Position>
            <AltitudeMeters>570.20001220703125</AltitudeMeters>
            <DistanceMeters>NAN</DistanceMeters>
          </Trackpoint>
          <Trackpoint>
            <Time>2021-08-09T13:23:25.000Z</Time>
            <Position>
              <LatitudeDegrees>43.08960626833140850067138671875</LatitudeDegrees>
              <LongitudeDegrees>-1.775425560772418975830078125</LongitudeDegrees>
            </Position>
            <AltitudeMeters>570.20001220703125</AltitudeMeters>
            <DistanceMeters>NAN</DistanceMeters>
          </Trackpoint>
          <Trackpoint>
            <Time>2021-08-09T13:23:26.000Z</Time>
            <Position>
              <LatitudeDegrees>43.0896413885056972503662109375</LatitudeDegrees>
              <LongitudeDegrees>-1.7753734253346920013427734375</LongitudeDegrees>
            </Position>
            <AltitudeMeters>570.4000244140625</AltitudeMeters>
            <DistanceMeters>NAN</DistanceMeters>
          </Trackpoint>
          <Trackpoint>
            <Time>2021-08-09T13:23:29.000Z</Time>
            <Position>
              <LatitudeDegrees>43.08975479565560817718505859375</LatitudeDegrees>
              <LongitudeDegrees>-1.77522338926792144775390625</LongitudeDegrees>
            </Position>
            <AltitudeMeters>570.4000244140625</AltitudeMeters>
            <DistanceMeters>NAN</DistanceMeters>
          </Trackpoint>
          <Trackpoint>
            <Time>2021-08-09T13:23:33.000Z</Time>
            <Position>
              <LatitudeDegrees>43.08990114368498325347900390625</LatitudeDegrees>
              <LongitudeDegrees>-1.7750108242034912109375</LongitudeDegrees>
            </Position>
            <AltitudeMeters>569.79998779296875</AltitudeMeters>
            <DistanceMeters>NAN</DistanceMeters>
          </Trackpoint>
          <Trackpoint>
            <Time>2021-08-09T13:23:35.000Z</Time>
            <Position>
              <LatitudeDegrees>43.08995596133172512054443359375</LatitudeDegrees>
              <LongitudeDegrees>-1.7748936451971530914306640625</LongitudeDegrees>
            </Position>
            <AltitudeMeters>569.5999755859375</AltitudeMeters>
            <DistanceMeters>NAN</DistanceMeters>
          </Trackpoint>
          <Trackpoint>
            <Time>2021-08-09T13:23:39.000Z</Time>
            <Position>
              <LatitudeDegrees>43.09004330076277256011962890625</LatitudeDegrees>
              <LongitudeDegrees>-1.77454336546361446380615234375</LongitudeDegrees>
            </Position>
            <AltitudeMeters>569.4000244140625</AltitudeMeters>
            <DistanceMeters>NAN</DistanceMeters>
          </Trackpoint>
          <Trackpoint>
            <Time>2021-08-09T13:23:41.000Z</Time>
            <Position>
              <LatitudeDegrees>43.0900995433330535888671875</LatitudeDegrees>
              <LongitudeDegrees>-1.7744001187384128570556640625</LongitudeDegrees>
            </Position>
            <AltitudeMeters>569.4000244140625</AltitudeMeters>
            <DistanceMeters>NAN</DistanceMeters>
          </Trackpoint>
          <Trackpoint>
            <Time>2021-08-09T13:23:43.000Z</Time>
            <Position>
              <LatitudeDegrees>43.0901934206485748291015625</LatitudeDegrees>
              <LongitudeDegrees>-1.774257458746433258056640625</LongitudeDegrees>
            </Position>
            <AltitudeMeters>569.20001220703125</AltitudeMeters>
            <DistanceMeters>NAN</DistanceMeters>
          </Trackpoint>
          <Trackpoint>
            <Time>2021-08-09T13:23:50.000Z</Time>
            <Position>
              <LatitudeDegrees>43.09054923243820667266845703125</LatitudeDegrees>
              <LongitudeDegrees>-1.7738599888980388641357421875</LongitudeDegrees>
            </Position>
            <AltitudeMeters>569</AltitudeMeters>
            <DistanceMeters>NAN</DistanceMeters>
          </Trackpoint>
          <Trackpoint>
            <Time>2021-08-09T13:23:51.000Z</Time>
            <Position>
              <LatitudeDegrees>43.09058108367025852203369140625</LatitudeDegrees>
              <LongitudeDegrees>-1.77381196059286594390869140625</LongitudeDegrees>
            </Position>
            <AltitudeMeters>569</AltitudeMeters>
            <DistanceMeters>NAN</DistanceMeters>
          </Trackpoint>
          <Trackpoint>
            <Time>2021-08-09T13:23:53.000Z</Time>
            <Position>
              <LatitudeDegrees>43.09065652079880237579345703125</LatitudeDegrees>
              <LongitudeDegrees>-1.77369796670973300933837890625</LongitudeDegrees>
            </Position>
            <AltitudeMeters>569</AltitudeMeters>
            <DistanceMeters>NAN</DistanceMeters>
          </Trackpoint>
          <Trackpoint>
            <Time>2021-08-09T13:23:54.000Z</Time>
            <Position>
              <LatitudeDegrees>43.09069340117275714874267578125</LatitudeDegrees>
              <LongitudeDegrees>-1.77363242022693157196044921875</LongitudeDegrees>
            </Position>
            <AltitudeMeters>569</AltitudeMeters>
            <DistanceMeters>NAN</DistanceMeters>
          </Trackpoint>
          <Trackpoint>
            <Time>2021-08-09T13:23:55.000Z</Time>
            <Position>
              <LatitudeDegrees>43.09071653522551059722900390625</LatitudeDegrees>
              <LongitudeDegrees>-1.7735887505114078521728515625</LongitudeDegrees>
            </Position>
            <AltitudeMeters>569.20001220703125</AltitudeMeters>
            <DistanceMeters>NAN</DistanceMeters>
          </Trackpoint>
          <Trackpoint>
            <Time>2021-08-09T13:23:56.000Z</Time>
            <Position>
              <LatitudeDegrees>43.0907447822391986846923828125</LatitudeDegrees>
              <LongitudeDegrees>-1.7735270597040653228759765625</LongitudeDegrees>
            </Position>
            <AltitudeMeters>569.4000244140625</AltitudeMeters>
            <DistanceMeters>NAN</DistanceMeters>
          </Trackpoint>
          <Trackpoint>
            <Time>2021-08-09T13:23:57.000Z</Time>
            <Position>
              <LatitudeDegrees>43.09075995348393917083740234375</LatitudeDegrees>
              <LongitudeDegrees>-1.773486994206905364990234375</LongitudeDegrees>
            </Position>
            <AltitudeMeters>569.5999755859375</AltitudeMeters>
            <DistanceMeters>NAN</DistanceMeters>
          </Trackpoint>
          <Trackpoint>
            <Time>2021-08-09T13:23:58.000Z</Time>
            <Position>
              <LatitudeDegrees>43.09077856130897998809814453125</LatitudeDegrees>
              <LongitudeDegrees>-1.77343863062560558319091796875</LongitudeDegrees>
            </Position>
            <AltitudeMeters>569.79998779296875</AltitudeMeters>
            <DistanceMeters>NAN</DistanceMeters>
          </Trackpoint>
          <Trackpoint>
            <Time>2021-08-09T13:23:59.000Z</Time>
            <Position>
              <LatitudeDegrees>43.09080136008560657501220703125</LatitudeDegrees>
              <LongitudeDegrees>-1.77337777800858020782470703125</LongitudeDegrees>
            </Position>
            <AltitudeMeters>570.4000244140625</AltitudeMeters>
            <DistanceMeters>NAN</DistanceMeters>
          </Trackpoint>
          <Trackpoint>
            <Time>2021-08-09T13:24:00.000Z</Time>
            <Position>
              <LatitudeDegrees>43.090822733938694000244140625</LatitudeDegrees>
              <LongitudeDegrees>-1.7733212001621723175048828125</LongitudeDegrees>
            </Position>
            <AltitudeMeters>570.5999755859375</AltitudeMeters>
            <DistanceMeters>NAN</DistanceMeters>
          </Trackpoint>
          <Trackpoint>
            <Time>2021-08-09T13:24:01.000Z</Time>
            <Position>
              <LatitudeDegrees>43.09084226377308368682861328125</LatitudeDegrees>
              <LongitudeDegrees>-1.77327719517052173614501953125</LongitudeDegrees>
            </Position>
            <AltitudeMeters>571</AltitudeMeters>
            <DistanceMeters>NAN</DistanceMeters>
          </Trackpoint>
          <Trackpoint>
            <Time>2021-08-09T13:24:03.000Z</Time>
            <Position>
              <LatitudeDegrees>43.090887106955051422119140625</LatitudeDegrees>
              <LongitudeDegrees>-1.77317946217954158782958984375</LongitudeDegrees>
            </Position>
            <AltitudeMeters>571.5999755859375</AltitudeMeters>
            <DistanceMeters>NAN</DistanceMeters>
          </Trackpoint>
          <Trackpoint>
            <Time>2021-08-09T13:24:04.000Z</Time>
            <Position>
              <LatitudeDegrees>43.09091468341648578643798828125</LatitudeDegrees>
              <LongitudeDegrees>-1.7731337808072566986083984375</LongitudeDegrees>
            </Position>
            <AltitudeMeters>571.79998779296875</AltitudeMeters>
            <DistanceMeters>NAN</DistanceMeters>
          </Trackpoint>
          <Trackpoint>
            <Time>2021-08-09T13:24:05.000Z</Time>
            <Position>
              <LatitudeDegrees>43.0909469537436962127685546875</LatitudeDegrees>
              <LongitudeDegrees>-1.7730878479778766632080078125</LongitudeDegrees>
            </Position>
            <AltitudeMeters>572</AltitudeMeters>
            <DistanceMeters>NAN</DistanceMeters>
          </Trackpoint>
          <Trackpoint>
            <Time>2021-08-09T13:24:06.000Z</Time>
            <Position>
              <LatitudeDegrees>43.09097520075738430023193359375</LatitudeDegrees>
              <LongitudeDegrees>-1.77305356599390506744384765625</LongitudeDegrees>
            </Position>
            <AltitudeMeters>572.20001220703125</AltitudeMeters>
            <DistanceMeters>NAN</DistanceMeters>
          </Trackpoint>
          <Trackpoint>
            <Time>2021-08-09T13:24:07.000Z</Time>
            <Position>
              <LatitudeDegrees>43.0910076387226581573486328125</LatitudeDegrees>
              <LongitudeDegrees>-1.7730219662189483642578125</LongitudeDegrees>
            </Position>
            <AltitudeMeters>572.4000244140625</AltitudeMeters>
            <DistanceMeters>NAN</DistanceMeters>
          </Trackpoint>
          <Trackpoint>
            <Time>2021-08-09T13:24:08.000Z</Time>
            <Position>
              <LatitudeDegrees>43.0910341255366802215576171875</LatitudeDegrees>
              <LongitudeDegrees>-1.7730023525655269622802734375</LongitudeDegrees>
            </Position>
            <AltitudeMeters>573</AltitudeMeters>
            <DistanceMeters>NAN</DistanceMeters>
          </Trackpoint>
          <Trackpoint>
            <Time>2021-08-09T13:24:09.000Z</Time>
            <Position>
              <LatitudeDegrees>43.09106958098709583282470703125</LatitudeDegrees>
              <LongitudeDegrees>-1.7729819007217884063720703125</LongitudeDegrees>
            </Position>
            <AltitudeMeters>573.20001220703125</AltitudeMeters>
            <DistanceMeters>NAN</DistanceMeters>
          </Trackpoint>
          <Trackpoint>
            <Time>2021-08-09T13:24:10.000Z</Time>
            <Position>
              <LatitudeDegrees>43.09111115522682666778564453125</LatitudeDegrees>
              <LongitudeDegrees>-1.772962622344493865966796875</LongitudeDegrees>
            </Position>
            <AltitudeMeters>573.20001220703125</AltitudeMeters>
            <DistanceMeters>NAN</DistanceMeters>
          </Trackpoint>
          <Trackpoint>
            <Time>2021-08-09T13:24:11.000Z</Time>
            <Position>
              <LatitudeDegrees>43.091146610677242279052734375</LatitudeDegrees>
              <LongitudeDegrees>-1.77294753491878509521484375</LongitudeDegrees>
            </Position>
            <AltitudeMeters>573.4000244140625</AltitudeMeters>
            <DistanceMeters>NAN</DistanceMeters>
          </Trackpoint>
          <Trackpoint>
            <Time>2021-08-09T13:24:12.000Z</Time>
            <Position>
              <LatitudeDegrees>43.09118139557540416717529296875</LatitudeDegrees>
              <LongitudeDegrees>-1.772930435836315155029296875</LongitudeDegrees>
            </Position>
            <AltitudeMeters>573.4000244140625</AltitudeMeters>
            <DistanceMeters>NAN</DistanceMeters>
          </Trackpoint>
          <Trackpoint>
            <Time>2021-08-09T13:24:13.000Z</Time>
            <Position>
              <LatitudeDegrees>43.09120905585587024688720703125</LatitudeDegrees>
              <LongitudeDegrees>-1.77291995845735073089599609375</LongitudeDegrees>
            </Position>
            <AltitudeMeters>573.79998779296875</AltitudeMeters>
            <DistanceMeters>NAN</DistanceMeters>
          </Trackpoint>
          <Trackpoint>
            <Time>2021-08-09T13:24:14.000Z</Time>
            <Position>
              <LatitudeDegrees>43.0912436731159687042236328125</LatitudeDegrees>
              <LongitudeDegrees>-1.77290805615484714508056640625</LongitudeDegrees>
            </Position>
            <AltitudeMeters>574.20001220703125</AltitudeMeters>
            <DistanceMeters>NAN</DistanceMeters>
          </Trackpoint>
          <Trackpoint>
            <Time>2021-08-09T13:24:15.000Z</Time>
            <Position>
              <LatitudeDegrees>43.09127661399543285369873046875</LatitudeDegrees>
              <LongitudeDegrees>-1.77289615385234355926513671875</LongitudeDegrees>
            </Position>
            <AltitudeMeters>574.5999755859375</AltitudeMeters>
            <DistanceMeters>NAN</DistanceMeters>
          </Trackpoint>
          <Trackpoint>
            <Time>2021-08-09T13:24:16.000Z</Time>
            <Position>
              <LatitudeDegrees>43.09130930341780185699462890625</LatitudeDegrees>
              <LongitudeDegrees>-1.7728873528540134429931640625</LongitudeDegrees>
            </Position>
            <AltitudeMeters>574.79998779296875</AltitudeMeters>
            <DistanceMeters>NAN</DistanceMeters>
          </Trackpoint>
          <Trackpoint>
            <Time>2021-08-09T13:24:17.000Z</Time>
            <Position>
              <LatitudeDegrees>43.09135071001946926116943359375</LatitudeDegrees>
              <LongitudeDegrees>-1.772873103618621826171875</LongitudeDegrees>
            </Position>
            <AltitudeMeters>575</AltitudeMeters>
            <DistanceMeters>NAN</DistanceMeters>
          </Trackpoint>
          <Trackpoint>
            <Time>2021-08-09T13:24:18.000Z</Time>
            <Position>
              <LatitudeDegrees>43.09138440527021884918212890625</LatitudeDegrees>
              <LongitudeDegrees>-1.77285742945969104766845703125</LongitudeDegrees>
            </Position>
            <AltitudeMeters>575.20001220703125</AltitudeMeters>
            <DistanceMeters>NAN</DistanceMeters>
          </Trackpoint>
          <Trackpoint>
            <Time>2021-08-09T13:24:19.000Z</Time>
            <Position>
              <LatitudeDegrees>43.09141206555068492889404296875</LatitudeDegrees>
              <LongitudeDegrees>-1.77284418605268001556396484375</LongitudeDegrees>
            </Position>
            <AltitudeMeters>575.79998779296875</AltitudeMeters>
            <DistanceMeters>NAN</DistanceMeters>
          </Trackpoint>
          <Trackpoint>
            <Time>2021-08-09T13:24:20.000Z</Time>
            <Position>
              <LatitudeDegrees>43.09144659899175167083740234375</LatitudeDegrees>
              <LongitudeDegrees>-1.77282742224633693695068359375</LongitudeDegrees>
            </Position>
            <AltitudeMeters>576</AltitudeMeters>
            <DistanceMeters>NAN</DistanceMeters>
          </Trackpoint>
          <Trackpoint>
            <Time>2021-08-09T13:24:21.000Z</Time>
            <Position>
              <LatitudeDegrees>43.0914857424795627593994140625</LatitudeDegrees>
              <LongitudeDegrees>-1.772809065878391265869140625</LongitudeDegrees>
            </Position>
            <AltitudeMeters>576.20001220703125</AltitudeMeters>
            <DistanceMeters>NAN</DistanceMeters>
          </Trackpoint>
          <Trackpoint>
            <Time>2021-08-09T13:24:22.000Z</Time>
            <Position>
              <LatitudeDegrees>43.0915199406445026397705078125</LatitudeDegrees>
              <LongitudeDegrees>-1.77279154770076274871826171875</LongitudeDegrees>
            </Position>
            <AltitudeMeters>576.5999755859375</AltitudeMeters>
            <DistanceMeters>NAN</DistanceMeters>
          </Trackpoint>
          <Trackpoint>
            <Time>2021-08-09T13:24:23.000Z</Time>
            <Position>
              <LatitudeDegrees>43.09155455790460109710693359375</LatitudeDegrees>
              <LongitudeDegrees>-1.7727753706276416778564453125</LongitudeDegrees>
            </Position>
            <AltitudeMeters>576.5999755859375</AltitudeMeters>
            <DistanceMeters>NAN</DistanceMeters>
          </Trackpoint>
          <Trackpoint>
            <Time>2021-08-09T13:24:24.000Z</Time>
            <Position>
              <LatitudeDegrees>43.09159043245017528533935546875</LatitudeDegrees>
              <LongitudeDegrees>-1.77275818772614002227783203125</LongitudeDegrees>
            </Position>
            <AltitudeMeters>576.79998779296875</AltitudeMeters>
            <DistanceMeters>NAN</DistanceMeters>
          </Trackpoint>
          <Trackpoint>
            <Time>2021-08-09T13:24:25.000Z</Time>
            <Position>
              <LatitudeDegrees>43.09162236750125885009765625</LatitudeDegrees>
              <LongitudeDegrees>-1.772745363414287567138671875</LongitudeDegrees>
            </Position>
            <AltitudeMeters>577</AltitudeMeters>
            <DistanceMeters>NAN</DistanceMeters>
          </Trackpoint>
          <Trackpoint>
            <Time>2021-08-09T13:24:26.000Z</Time>
            <Position>
              <LatitudeDegrees>43.09166151098906993865966796875</LatitudeDegrees>
              <LongitudeDegrees>-1.77273639477789402008056640625</LongitudeDegrees>
            </Position>
            <AltitudeMeters>577.4000244140625</AltitudeMeters>
            <DistanceMeters>NAN</DistanceMeters>
          </Trackpoint>
          <Trackpoint>
            <Time>2021-08-09T13:24:27.000Z</Time>
            <Position>
              <LatitudeDegrees>43.091704845428466796875</LatitudeDegrees>
              <LongitudeDegrees>-1.77273538894951343536376953125</LongitudeDegrees>
            </Position>
            <AltitudeMeters>577.4000244140625</AltitudeMeters>
            <DistanceMeters>NAN</DistanceMeters>
          </Trackpoint>
          <Trackpoint>
            <Time>2021-08-09T13:24:28.000Z</Time>
            <Position>
              <LatitudeDegrees>43.0917392112314701080322265625</LatitudeDegrees>
              <LongitudeDegrees>-1.7727465368807315826416015625</LongitudeDegrees>
            </Position>
            <AltitudeMeters>577.79998779296875</AltitudeMeters>
            <DistanceMeters>NAN</DistanceMeters>
          </Trackpoint>
          <Trackpoint>
            <Time>2021-08-09T13:24:29.000Z</Time>
            <Position>
              <LatitudeDegrees>43.0917680449783802032470703125</LatitudeDegrees>
              <LongitudeDegrees>-1.77276003174483776092529296875</LongitudeDegrees>
            </Position>
            <AltitudeMeters>578.20001220703125</AltitudeMeters>
            <DistanceMeters>NAN</DistanceMeters>
          </Trackpoint>
          <Trackpoint>
            <Time>2021-08-09T13:24:30.000Z</Time>
            <Position>
              <LatitudeDegrees>43.09180282987654209136962890625</LatitudeDegrees>
              <LongitudeDegrees>-1.77277830429375171661376953125</LongitudeDegrees>
            </Position>
            <AltitudeMeters>578.20001220703125</AltitudeMeters>
            <DistanceMeters>NAN</DistanceMeters>
          </Trackpoint>
          <Trackpoint>
            <Time>2021-08-09T13:24:31.000Z</Time>
            <Position>
              <LatitudeDegrees>43.0918402969837188720703125</LatitudeDegrees>
              <LongitudeDegrees>-1.77280847914516925811767578125</LongitudeDegrees>
            </Position>
            <AltitudeMeters>578.4000244140625</AltitudeMeters>
            <DistanceMeters>NAN</DistanceMeters>
          </Trackpoint>
          <Trackpoint>
            <Time>2021-08-09T13:24:32.000Z</Time>
            <Position>
              <LatitudeDegrees>43.0918676219880580902099609375</LatitudeDegrees>
              <LongitudeDegrees>-1.772843264043331146240234375</LongitudeDegrees>
            </Position>
            <AltitudeMeters>578.5999755859375</AltitudeMeters>
            <DistanceMeters>NAN</DistanceMeters>
          </Trackpoint>
          <Trackpoint>
            <Time>2021-08-09T13:24:33.000Z</Time>
            <Position>
              <LatitudeDegrees>43.09189327061176300048828125</LatitudeDegrees>
              <LongitudeDegrees>-1.7728771269321441650390625</LongitudeDegrees>
            </Position>
            <AltitudeMeters>578.5999755859375</AltitudeMeters>
            <DistanceMeters>NAN</DistanceMeters>
          </Trackpoint>
          <Trackpoint>
            <Time>2021-08-09T13:24:34.000Z</Time>
            <Position>
              <LatitudeDegrees>43.09191715903580188751220703125</LatitudeDegrees>
              <LongitudeDegrees>-1.77291342057287693023681640625</LongitudeDegrees>
            </Position>
            <AltitudeMeters>578.79998779296875</AltitudeMeters>
            <DistanceMeters>NAN</DistanceMeters>
          </Trackpoint>
          <Trackpoint>
            <Time>2021-08-09T13:24:35.000Z</Time>
            <Position>
              <LatitudeDegrees>43.09193861670792102813720703125</LatitudeDegrees>
              <LongitudeDegrees>-1.77294376306235790252685546875</LongitudeDegrees>
            </Position>
            <AltitudeMeters>579</AltitudeMeters>
            <DistanceMeters>NAN</DistanceMeters>
          </Trackpoint>
          <Trackpoint>
            <Time>2021-08-09T13:24:36.000Z</Time>
            <Position>
              <LatitudeDegrees>43.0919618345797061920166015625</LatitudeDegrees>
              <LongitudeDegrees>-1.7729812301695346832275390625</LongitudeDegrees>
            </Position>
            <AltitudeMeters>579.20001220703125</AltitudeMeters>
            <DistanceMeters>NAN</DistanceMeters>
          </Trackpoint>
          <Trackpoint>
            <Time>2021-08-09T13:24:37.000Z</Time>
            <Position>
              <LatitudeDegrees>43.09198689647018909454345703125</LatitudeDegrees>
              <LongitudeDegrees>-1.77301802672445774078369140625</LongitudeDegrees>
            </Position>
            <AltitudeMeters>579.4000244140625</AltitudeMeters>
            <DistanceMeters>NAN</DistanceMeters>
          </Trackpoint>
          <Trackpoint>
            <Time>2021-08-09T13:24:38.000Z</Time>
            <Position>
              <LatitudeDegrees>43.09201891534030437469482421875</LatitudeDegrees>
              <LongitudeDegrees>-1.773057840764522552490234375</LongitudeDegrees>
            </Position>
            <AltitudeMeters>579.5999755859375</AltitudeMeters>
            <DistanceMeters>NAN</DistanceMeters>
          </Trackpoint>
          <Trackpoint>
            <Time>2021-08-09T13:24:39.000Z</Time>
            <Position>
              <LatitudeDegrees>43.092048503458499908447265625</LatitudeDegrees>
              <LongitudeDegrees>-1.7730836570262908935546875</LongitudeDegrees>
            </Position>
            <AltitudeMeters>579.79998779296875</AltitudeMeters>
            <DistanceMeters>NAN</DistanceMeters>
          </Trackpoint>
          <Trackpoint>
            <Time>2021-08-09T13:24:40.000Z</Time>
            <Position>
              <LatitudeDegrees>43.0920795165002346038818359375</LatitudeDegrees>
              <LongitudeDegrees>-1.7730942182242870330810546875</LongitudeDegrees>
            </Position>
            <AltitudeMeters>580</AltitudeMeters>
            <DistanceMeters>NAN</DistanceMeters>
          </Trackpoint>
          <Trackpoint>
            <Time>2021-08-09T13:24:41.000Z</Time>
            <Position>
              <LatitudeDegrees>43.09211497195065021514892578125</LatitudeDegrees>
              <LongitudeDegrees>-1.7731156758964061737060546875</LongitudeDegrees>
            </Position>
            <AltitudeMeters>580</AltitudeMeters>
            <DistanceMeters>NAN</DistanceMeters>
          </Trackpoint>
          <Trackpoint>
            <Time>2021-08-09T13:24:42.000Z</Time>
            <Position>
              <LatitudeDegrees>43.09214279986917972564697265625</LatitudeDegrees>
              <LongitudeDegrees>-1.7731233872473239898681640625</LongitudeDegrees>
            </Position>
            <AltitudeMeters>580.4000244140625</AltitudeMeters>
            <DistanceMeters>NAN</DistanceMeters>
          </Trackpoint>
          <Trackpoint>
            <Time>2021-08-09T13:24:43.000Z</Time>
            <Position>
              <LatitudeDegrees>43.09217247180640697479248046875</LatitudeDegrees>
              <LongitudeDegrees>-1.773122884333133697509765625</LongitudeDegrees>
            </Position>
            <AltitudeMeters>580.5999755859375</AltitudeMeters>
            <DistanceMeters>NAN</DistanceMeters>
          </Trackpoint>
          <Trackpoint>
            <Time>2021-08-09T13:24:44.000Z</Time>
            <Position>
              <LatitudeDegrees>43.09220231138169765472412109375</LatitudeDegrees>
              <LongitudeDegrees>-1.77311575971543788909912109375</LongitudeDegrees>
            </Position>
            <AltitudeMeters>580.5999755859375</AltitudeMeters>
            <DistanceMeters>NAN</DistanceMeters>
          </Trackpoint>
          <Trackpoint>
            <Time>2021-08-09T13:24:45.000Z</Time>
            <Position>
              <LatitudeDegrees>43.092225529253482818603515625</LatitudeDegrees>
              <LongitudeDegrees>-1.7731056176126003265380859375</LongitudeDegrees>
            </Position>
            <AltitudeMeters>581</AltitudeMeters>
            <DistanceMeters>NAN</DistanceMeters>
          </Trackpoint>
          <Trackpoint>
            <Time>2021-08-09T13:24:46.000Z</Time>
            <Position>
              <LatitudeDegrees>43.092253692448139190673828125</LatitudeDegrees>
              <LongitudeDegrees>-1.77308977581560611724853515625</LongitudeDegrees>
            </Position>
            <AltitudeMeters>581.20001220703125</AltitudeMeters>
            <DistanceMeters>NAN</DistanceMeters>
          </Trackpoint>
          <Trackpoint>
            <Time>2021-08-09T13:24:47.000Z</Time>
            <Position>
              <LatitudeDegrees>43.09228193946182727813720703125</LatitudeDegrees>
              <LongitudeDegrees>-1.7730734311044216156005859375</LongitudeDegrees>
            </Position>
            <AltitudeMeters>581.5999755859375</AltitudeMeters>
            <DistanceMeters>NAN</DistanceMeters>
          </Trackpoint>
          <Trackpoint>
            <Time>2021-08-09T13:24:48.000Z</Time>
            <Position>
              <LatitudeDegrees>43.09231714345514774322509765625</LatitudeDegrees>
              <LongitudeDegrees>-1.77305054850876331329345703125</LongitudeDegrees>
            </Position>
            <AltitudeMeters>581.5999755859375</AltitudeMeters>
            <DistanceMeters>NAN</DistanceMeters>
          </Trackpoint>
          <Trackpoint>
            <Time>2021-08-09T13:24:49.000Z</Time>
            <Position>
              <LatitudeDegrees>43.0923447199165821075439453125</LatitudeDegrees>
              <LongitudeDegrees>-1.773028336465358734130859375</LongitudeDegrees>
            </Position>
            <AltitudeMeters>582.20001220703125</AltitudeMeters>
            <DistanceMeters>NAN</DistanceMeters>
          </Trackpoint>
          <Trackpoint>
            <Time>2021-08-09T13:24:50.000Z</Time>
            <Position>
              <LatitudeDegrees>43.0923671834170818328857421875</LatitudeDegrees>
              <LongitudeDegrees>-1.77300461567938327789306640625</LongitudeDegrees>
            </Position>
            <AltitudeMeters>582.4000244140625</AltitudeMeters>
            <DistanceMeters>NAN</DistanceMeters>
          </Trackpoint>
          <Trackpoint>
            <Time>2021-08-09T13:24:51.000Z</Time>
            <Position>
              <LatitudeDegrees>43.09238470159471035003662109375</LatitudeDegrees>
              <LongitudeDegrees>-1.772985756397247314453125</LongitudeDegrees>
            </Position>
            <AltitudeMeters>582.5999755859375</AltitudeMeters>
            <DistanceMeters>NAN</DistanceMeters>
          </Trackpoint>
          <Trackpoint>
            <Time>2021-08-09T13:24:52.000Z</Time>
            <Position>
              <LatitudeDegrees>43.0924087576568126678466796875</LatitudeDegrees>
              <LongitudeDegrees>-1.772958934307098388671875</LongitudeDegrees>
            </Position>
            <AltitudeMeters>583</AltitudeMeters>
            <DistanceMeters>NAN</DistanceMeters>
          </Trackpoint>
          <Trackpoint>
            <Time>2021-08-09T13:24:53.000Z</Time>
            <Position>
              <LatitudeDegrees>43.0924335680902004241943359375</LatitudeDegrees>
              <LongitudeDegrees>-1.7729307711124420166015625</LongitudeDegrees>
            </Position>
            <AltitudeMeters>583</AltitudeMeters>
            <DistanceMeters>NAN</DistanceMeters>
          </Trackpoint>
          <Trackpoint>
            <Time>2021-08-09T13:24:54.000Z</Time>
            <Position>
              <LatitudeDegrees>43.0924624018371105194091796875</LatitudeDegrees>
              <LongitudeDegrees>-1.7728959023952484130859375</LongitudeDegrees>
            </Position>
            <AltitudeMeters>583.4000244140625</AltitudeMeters>
            <DistanceMeters>NAN</DistanceMeters>
          </Trackpoint>
          <Trackpoint>
            <Time>2021-08-09T13:24:55.000Z</Time>
            <Position>
              <LatitudeDegrees>43.09248561970889568328857421875</LatitudeDegrees>
              <LongitudeDegrees>-1.77286706864833831787109375</LongitudeDegrees>
            </Position>
            <AltitudeMeters>583.4000244140625</AltitudeMeters>
            <DistanceMeters>NAN</DistanceMeters>
          </Trackpoint>
          <Trackpoint>
            <Time>2021-08-09T13:24:56.000Z</Time>
            <Position>
              <LatitudeDegrees>43.09250707738101482391357421875</LatitudeDegrees>
              <LongitudeDegrees>-1.7728422582149505615234375</LongitudeDegrees>
            </Position>
            <AltitudeMeters>583.79998779296875</AltitudeMeters>
            <DistanceMeters>NAN</DistanceMeters>
          </Trackpoint>
          <Trackpoint>
            <Time>2021-08-09T13:24:57.000Z</Time>
            <Position>
              <LatitudeDegrees>43.092531971633434295654296875</LatitudeDegrees>
              <LongitudeDegrees>-1.772811748087406158447265625</LongitudeDegrees>
            </Position>
            <AltitudeMeters>583.79998779296875</AltitudeMeters>
            <DistanceMeters>NAN</DistanceMeters>
          </Trackpoint>
          <Trackpoint>
            <Time>2021-08-09T13:24:58.000Z</Time>
            <Position>
              <LatitudeDegrees>43.0925619788467884063720703125</LatitudeDegrees>
              <LongitudeDegrees>-1.77277796901762485504150390625</LongitudeDegrees>
            </Position>
            <AltitudeMeters>584</AltitudeMeters>
            <DistanceMeters>NAN</DistanceMeters>
          </Trackpoint>
          <Trackpoint>
            <Time>2021-08-09T13:24:59.000Z</Time>
            <Position>
              <LatitudeDegrees>43.09258687309920787811279296875</LatitudeDegrees>
              <LongitudeDegrees>-1.7727508954703807830810546875</LongitudeDegrees>
            </Position>
            <AltitudeMeters>584.20001220703125</AltitudeMeters>
            <DistanceMeters>NAN</DistanceMeters>
          </Trackpoint>
          <Trackpoint>
            <Time>2021-08-09T13:25:00.000Z</Time>
            <Position>
              <LatitudeDegrees>43.0926100909709930419921875</LatitudeDegrees>
              <LongitudeDegrees>-1.77272197790443897247314453125</LongitudeDegrees>
            </Position>
            <AltitudeMeters>584.4000244140625</AltitudeMeters>
            <DistanceMeters>NAN</DistanceMeters>
          </Trackpoint>
          <Trackpoint>
            <Time>2021-08-09T13:25:01.000Z</Time>
            <Position>
              <LatitudeDegrees>43.0926286987960338592529296875</LatitudeDegrees>
              <LongitudeDegrees>-1.77269515581429004669189453125</LongitudeDegrees>
            </Position>
            <AltitudeMeters>584.79998779296875</AltitudeMeters>
            <DistanceMeters>NAN</DistanceMeters>
          </Trackpoint>
          <Trackpoint>
            <Time>2021-08-09T13:25:02.000Z</Time>
            <Position>
              <LatitudeDegrees>43.09265325777232646942138671875</LatitudeDegrees>
              <LongitudeDegrees>-1.7726633884012699127197265625</LongitudeDegrees>
            </Position>
            <AltitudeMeters>584.79998779296875</AltitudeMeters>
            <DistanceMeters>NAN</DistanceMeters>
          </Trackpoint>
          <Trackpoint>
            <Time>2021-08-09T13:25:03.000Z</Time>
            <Position>
              <LatitudeDegrees>43.09267890639603137969970703125</LatitudeDegrees>
              <LongitudeDegrees>-1.772632710635662078857421875</LongitudeDegrees>
            </Position>
            <AltitudeMeters>585</AltitudeMeters>
            <DistanceMeters>NAN</DistanceMeters>
          </Trackpoint>
          <Trackpoint>
            <Time>2021-08-09T13:25:04.000Z</Time>
            <Position>
              <LatitudeDegrees>43.09270874597132205963134765625</LatitudeDegrees>
              <LongitudeDegrees>-1.7726016975939273834228515625</LongitudeDegrees>
            </Position>
            <AltitudeMeters>585.20001220703125</AltitudeMeters>
            <DistanceMeters>NAN</DistanceMeters>
          </Trackpoint>
          <Trackpoint>
            <Time>2021-08-09T13:25:05.000Z</Time>
            <Position>
              <LatitudeDegrees>43.09273607097566127777099609375</LatitudeDegrees>
              <LongitudeDegrees>-1.7725788988173007965087890625</LongitudeDegrees>
            </Position>
            <AltitudeMeters>585.4000244140625</AltitudeMeters>
            <DistanceMeters>NAN</DistanceMeters>
          </Trackpoint>
          <Trackpoint>
            <Time>2021-08-09T13:25:06.000Z</Time>
            <Position>
              <LatitudeDegrees>43.09276498854160308837890625</LatitudeDegrees>
              <LongitudeDegrees>-1.7725557647645473480224609375</LongitudeDegrees>
            </Position>
            <AltitudeMeters>585.5999755859375</AltitudeMeters>
            <DistanceMeters>NAN</DistanceMeters>
          </Trackpoint>
          <Trackpoint>
            <Time>2021-08-09T13:25:07.000Z</Time>
            <Position>
              <LatitudeDegrees>43.09278954751789569854736328125</LatitudeDegrees>
              <LongitudeDegrees>-1.77253715693950653076171875</LongitudeDegrees>
            </Position>
            <AltitudeMeters>585.79998779296875</AltitudeMeters>
            <DistanceMeters>NAN</DistanceMeters>
          </Trackpoint>
          <Trackpoint>
            <Time>2021-08-09T13:25:08.000Z</Time>
            <Position>
              <LatitudeDegrees>43.09281838126480579376220703125</LatitudeDegrees>
              <LongitudeDegrees>-1.7725135199725627899169921875</LongitudeDegrees>
            </Position>
            <AltitudeMeters>585.79998779296875</AltitudeMeters>
            <DistanceMeters>NAN</DistanceMeters>
          </Trackpoint>
          <Trackpoint>
            <Time>2021-08-09T13:25:09.000Z</Time>
            <Position>
              <LatitudeDegrees>43.09285274706780910491943359375</LatitudeDegrees>
              <LongitudeDegrees>-1.77249147556722164154052734375</LongitudeDegrees>
            </Position>
            <AltitudeMeters>586</AltitudeMeters>
            <DistanceMeters>NAN</DistanceMeters>
          </Trackpoint>
          <Trackpoint>
            <Time>2021-08-09T13:25:10.000Z</Time>
            <Position>
              <LatitudeDegrees>43.09288376010954380035400390625</LatitudeDegrees>
              <LongitudeDegrees>-1.7724776454269886016845703125</LongitudeDegrees>
            </Position>
            <AltitudeMeters>586.20001220703125</AltitudeMeters>
            <DistanceMeters>NAN</DistanceMeters>
          </Trackpoint>
          <Trackpoint>
            <Time>2021-08-09T13:25:11.000Z</Time>
            <Position>
              <LatitudeDegrees>43.0929153598845005035400390625</LatitudeDegrees>
              <LongitudeDegrees>-1.77246565930545330047607421875</LongitudeDegrees>
            </Position>
            <AltitudeMeters>586.4000244140625</AltitudeMeters>
            <DistanceMeters>NAN</DistanceMeters>
          </Trackpoint>
          <Trackpoint>
            <Time>2021-08-09T13:25:12.000Z</Time>
            <Position>
              <LatitudeDegrees>43.0929415114223957061767578125</LatitudeDegrees>
              <LongitudeDegrees>-1.77246046252548694610595703125</LongitudeDegrees>
            </Position>
            <AltitudeMeters>586.5999755859375</AltitudeMeters>
            <DistanceMeters>NAN</DistanceMeters>
          </Trackpoint>
          <Trackpoint>
            <Time>2021-08-09T13:25:13.000Z</Time>
            <Position>
              <LatitudeDegrees>43.09297495521605014801025390625</LatitudeDegrees>
              <LongitudeDegrees>-1.77245669066905975341796875</LongitudeDegrees>
            </Position>
            <AltitudeMeters>586.79998779296875</AltitudeMeters>
            <DistanceMeters>NAN</DistanceMeters>
          </Trackpoint>
          <Trackpoint>
            <Time>2021-08-09T13:25:14.000Z</Time>
            <Position>
              <LatitudeDegrees>43.09301577508449554443359375</LatitudeDegrees>
              <LongitudeDegrees>-1.77245610393583774566650390625</LongitudeDegrees>
            </Position>
            <AltitudeMeters>586.79998779296875</AltitudeMeters>
            <DistanceMeters>NAN</DistanceMeters>
          </Trackpoint>
          <Trackpoint>
            <Time>2021-08-09T13:25:15.000Z</Time>
            <Position>
              <LatitudeDegrees>43.093050308525562286376953125</LatitudeDegrees>
              <LongitudeDegrees>-1.7724605463445186614990234375</LongitudeDegrees>
            </Position>
            <AltitudeMeters>587</AltitudeMeters>
            <DistanceMeters>NAN</DistanceMeters>
          </Trackpoint>
          <Trackpoint>
            <Time>2021-08-09T13:25:16.000Z</Time>
            <Position>
              <LatitudeDegrees>43.0930850096046924591064453125</LatitudeDegrees>
              <LongitudeDegrees>-1.77246884442865848541259765625</LongitudeDegrees>
            </Position>
            <AltitudeMeters>587</AltitudeMeters>
            <DistanceMeters>NAN</DistanceMeters>
          </Trackpoint>
          <Trackpoint>
            <Time>2021-08-09T13:25:17.000Z</Time>
            <Position>
              <LatitudeDegrees>43.09311778284609317779541015625</LatitudeDegrees>
              <LongitudeDegrees>-1.772483177483081817626953125</LongitudeDegrees>
            </Position>
            <AltitudeMeters>587.20001220703125</AltitudeMeters>
            <DistanceMeters>NAN</DistanceMeters>
          </Trackpoint>
          <Trackpoint>
            <Time>2021-08-09T13:25:18.000Z</Time>
            <Position>
              <LatitudeDegrees>43.09314410202205181121826171875</LatitudeDegrees>
              <LongitudeDegrees>-1.77249633707106113433837890625</LongitudeDegrees>
            </Position>
            <AltitudeMeters>587.20001220703125</AltitudeMeters>
            <DistanceMeters>NAN</DistanceMeters>
          </Trackpoint>
          <Trackpoint>
            <Time>2021-08-09T13:25:19.000Z</Time>
            <Position>
              <LatitudeDegrees>43.09317528270184993743896484375</LatitudeDegrees>
              <LongitudeDegrees>-1.7725151963531970977783203125</LongitudeDegrees>
            </Position>
            <AltitudeMeters>587.20001220703125</AltitudeMeters>
            <DistanceMeters>NAN</DistanceMeters>
          </Trackpoint>
          <Trackpoint>
            <Time>2021-08-09T13:25:20.000Z</Time>
            <Position>
              <LatitudeDegrees>43.093206882476806640625</LatitudeDegrees>
              <LongitudeDegrees>-1.7725366540253162384033203125</LongitudeDegrees>
            </Position>
            <AltitudeMeters>587.20001220703125</AltitudeMeters>
            <DistanceMeters>NAN</DistanceMeters>
          </Trackpoint>
          <Trackpoint>
            <Time>2021-08-09T13:25:21.000Z</Time>
            <Position>
              <LatitudeDegrees>43.09324485249817371368408203125</LatitudeDegrees>
              <LongitudeDegrees>-1.77256263792514801025390625</LongitudeDegrees>
            </Position>
            <AltitudeMeters>587.5999755859375</AltitudeMeters>
            <DistanceMeters>NAN</DistanceMeters>
          </Trackpoint>
          <Trackpoint>
            <Time>2021-08-09T13:25:22.000Z</Time>
            <Position>
              <LatitudeDegrees>43.09327326714992523193359375</LatitudeDegrees>
              <LongitudeDegrees>-1.7725889571011066436767578125</LongitudeDegrees>
            </Position>
            <AltitudeMeters>587.4000244140625</AltitudeMeters>
            <DistanceMeters>NAN</DistanceMeters>
          </Trackpoint>
          <Trackpoint>
            <Time>2021-08-09T13:25:23.000Z</Time>
            <Position>
              <LatitudeDegrees>43.09329581446945667266845703125</LatitudeDegrees>
              <LongitudeDegrees>-1.77261217497289180755615234375</LongitudeDegrees>
            </Position>
            <AltitudeMeters>587.5999755859375</AltitudeMeters>
            <DistanceMeters>NAN</DistanceMeters>
          </Trackpoint>
          <Trackpoint>
            <Time>2021-08-09T13:25:24.000Z</Time>
            <Position>
              <LatitudeDegrees>43.093324564397335052490234375</LatitudeDegrees>
              <LongitudeDegrees>-1.7726389132440090179443359375</LongitudeDegrees>
            </Position>
            <AltitudeMeters>587.5999755859375</AltitudeMeters>
            <DistanceMeters>NAN</DistanceMeters>
          </Trackpoint>
          <Trackpoint>
            <Time>2021-08-09T13:25:25.000Z</Time>
            <Position>
              <LatitudeDegrees>43.09335767291486263275146484375</LatitudeDegrees>
              <LongitudeDegrees>-1.77266858518123626708984375</LongitudeDegrees>
            </Position>
            <AltitudeMeters>587.79998779296875</AltitudeMeters>
            <DistanceMeters>NAN</DistanceMeters>
          </Trackpoint>
          <Trackpoint>
            <Time>2021-08-09T13:25:26.000Z</Time>
            <Position>
              <LatitudeDegrees>43.0933844111859798431396484375</LatitudeDegrees>
              <LongitudeDegrees>-1.77269515581429004669189453125</LongitudeDegrees>
            </Position>
            <AltitudeMeters>588</AltitudeMeters>
            <DistanceMeters>NAN</DistanceMeters>
          </Trackpoint>
          <Trackpoint>
            <Time>2021-08-09T13:25:27.000Z</Time>
            <Position>
              <LatitudeDegrees>43.0934098921716213226318359375</LatitudeDegrees>
              <LongitudeDegrees>-1.77272482775151729583740234375</LongitudeDegrees>
            </Position>
            <AltitudeMeters>588.20001220703125</AltitudeMeters>
            <DistanceMeters>NAN</DistanceMeters>
          </Trackpoint>
          <Trackpoint>
            <Time>2021-08-09T13:25:28.000Z</Time>
            <Position>
              <LatitudeDegrees>43.093429170548915863037109375</LatitudeDegrees>
              <LongitudeDegrees>-1.77274812944233417510986328125</LongitudeDegrees>
            </Position>
            <AltitudeMeters>588.20001220703125</AltitudeMeters>
            <DistanceMeters>NAN</DistanceMeters>
          </Trackpoint>
          <Trackpoint>
            <Time>2021-08-09T13:25:29.000Z</Time>
            <Position>
              <LatitudeDegrees>43.09345356188714504241943359375</LatitudeDegrees>
              <LongitudeDegrees>-1.77277763374149799346923828125</LongitudeDegrees>
            </Position>
            <AltitudeMeters>588.4000244140625</AltitudeMeters>
            <DistanceMeters>NAN</DistanceMeters>
          </Trackpoint>
          <Trackpoint>
            <Time>2021-08-09T13:25:30.000Z</Time>
            <Position>
              <LatitudeDegrees>43.0934762768447399139404296875</LatitudeDegrees>
              <LongitudeDegrees>-1.77280814386904239654541015625</LongitudeDegrees>
            </Position>
            <AltitudeMeters>588.4000244140625</AltitudeMeters>
            <DistanceMeters>NAN</DistanceMeters>
          </Trackpoint>
          <Trackpoint>
            <Time>2021-08-09T13:25:31.000Z</Time>
            <Position>
              <LatitudeDegrees>43.0935084633529186248779296875</LatitudeDegrees>
              <LongitudeDegrees>-1.7728424258530139923095703125</LongitudeDegrees>
            </Position>
            <AltitudeMeters>588.5999755859375</AltitudeMeters>
            <DistanceMeters>NAN</DistanceMeters>
          </Trackpoint>
          <Trackpoint>
            <Time>2021-08-09T13:25:32.000Z</Time>
            <Position>
              <LatitudeDegrees>43.09353402815759181976318359375</LatitudeDegrees>
              <LongitudeDegrees>-1.772867739200592041015625</LongitudeDegrees>
            </Position>
            <AltitudeMeters>588.5999755859375</AltitudeMeters>
            <DistanceMeters>NAN</DistanceMeters>
          </Trackpoint>
          <Trackpoint>
            <Time>2021-08-09T13:25:33.000Z</Time>
            <Position>
              <LatitudeDegrees>43.0935604311525821685791015625</LatitudeDegrees>
              <LongitudeDegrees>-1.7728917114436626434326171875</LongitudeDegrees>
            </Position>
            <AltitudeMeters>588.79998779296875</AltitudeMeters>
            <DistanceMeters>NAN</DistanceMeters>
          </Trackpoint>
          <Trackpoint>
            <Time>2021-08-09T13:25:34.000Z</Time>
            <Position>
              <LatitudeDegrees>43.09357878752052783966064453125</LatitudeDegrees>
              <LongitudeDegrees>-1.77290998399257659912109375</LongitudeDegrees>
            </Position>
            <AltitudeMeters>588.79998779296875</AltitudeMeters>
            <DistanceMeters>NAN</DistanceMeters>
          </Trackpoint>
          <Trackpoint>
            <Time>2021-08-09T13:25:35.000Z</Time>
            <Position>
              <LatitudeDegrees>43.09360451996326446533203125</LatitudeDegrees>
              <LongitudeDegrees>-1.77292800508439540863037109375</LongitudeDegrees>
            </Position>
            <AltitudeMeters>589</AltitudeMeters>
            <DistanceMeters>NAN</DistanceMeters>
          </Trackpoint>
          <Trackpoint>
            <Time>2021-08-09T13:25:36.000Z</Time>
            <Position>
              <LatitudeDegrees>43.09364031068980693817138671875</LatitudeDegrees>
              <LongitudeDegrees>-1.77294485270977020263671875</LongitudeDegrees>
            </Position>
            <AltitudeMeters>589.4000244140625</AltitudeMeters>
            <DistanceMeters>NAN</DistanceMeters>
          </Trackpoint>
          <Trackpoint>
            <Time>2021-08-09T13:25:37.000Z</Time>
            <Position>
              <LatitudeDegrees>43.0936695635318756103515625</LatitudeDegrees>
              <LongitudeDegrees>-1.7729584313929080963134765625</LongitudeDegrees>
            </Position>
            <AltitudeMeters>589.5999755859375</AltitudeMeters>
            <DistanceMeters>NAN</DistanceMeters>
          </Trackpoint>
          <Trackpoint>
            <Time>2021-08-09T13:25:38.000Z</Time>
            <Position>
              <LatitudeDegrees>43.09369948692619800567626953125</LatitudeDegrees>
              <LongitudeDegrees>-1.77296689711511135101318359375</LongitudeDegrees>
            </Position>
            <AltitudeMeters>589.79998779296875</AltitudeMeters>
            <DistanceMeters>NAN</DistanceMeters>
          </Trackpoint>
          <Trackpoint>
            <Time>2021-08-09T13:25:39.000Z</Time>
            <Position>
              <LatitudeDegrees>43.09372521936893463134765625</LatitudeDegrees>
              <LongitudeDegrees>-1.77296773530542850494384765625</LongitudeDegrees>
            </Position>
            <AltitudeMeters>589.79998779296875</AltitudeMeters>
            <DistanceMeters>NAN</DistanceMeters>
          </Trackpoint>
          <Trackpoint>
            <Time>2021-08-09T13:25:40.000Z</Time>
            <Position>
              <LatitudeDegrees>43.09375941753387451171875</LatitudeDegrees>
              <LongitudeDegrees>-1.77296354435384273529052734375</LongitudeDegrees>
            </Position>
            <AltitudeMeters>590</AltitudeMeters>
            <DistanceMeters>NAN</DistanceMeters>
          </Trackpoint>
          <Trackpoint>
            <Time>2021-08-09T13:25:41.000Z</Time>
            <Position>
              <LatitudeDegrees>43.0937929451465606689453125</LatitudeDegrees>
              <LongitudeDegrees>-1.77295432426035404205322265625</LongitudeDegrees>
            </Position>
            <AltitudeMeters>590.20001220703125</AltitudeMeters>
            <DistanceMeters>NAN</DistanceMeters>
          </Trackpoint>
          <Trackpoint>
            <Time>2021-08-09T13:25:42.000Z</Time>
            <Position>
              <LatitudeDegrees>43.09383141808211803436279296875</LatitudeDegrees>
              <LongitudeDegrees>-1.77293538115918636322021484375</LongitudeDegrees>
            </Position>
            <AltitudeMeters>590.4000244140625</AltitudeMeters>
            <DistanceMeters>NAN</DistanceMeters>
          </Trackpoint>
          <Trackpoint>
            <Time>2021-08-09T13:25:43.000Z</Time>
            <Position>
              <LatitudeDegrees>43.093860335648059844970703125</LatitudeDegrees>
              <LongitudeDegrees>-1.7729128338396549224853515625</LongitudeDegrees>
            </Position>
            <AltitudeMeters>590.5999755859375</AltitudeMeters>
            <DistanceMeters>NAN</DistanceMeters>
          </Trackpoint>
          <Trackpoint>
            <Time>2021-08-09T13:25:44.000Z</Time>
            <Position>
              <LatitudeDegrees>43.09388841502368450164794921875</LatitudeDegrees>
              <LongitudeDegrees>-1.7728843353688716888427734375</LongitudeDegrees>
            </Position>
            <AltitudeMeters>590.79998779296875</AltitudeMeters>
            <DistanceMeters>NAN</DistanceMeters>
          </Trackpoint>
          <Trackpoint>
            <Time>2021-08-09T13:25:45.000Z</Time>
            <Position>
              <LatitudeDegrees>43.0939094536006450653076171875</LatitudeDegrees>
              <LongitudeDegrees>-1.77285877056419849395751953125</LongitudeDegrees>
            </Position>
            <AltitudeMeters>591</AltitudeMeters>
            <DistanceMeters>NAN</DistanceMeters>
          </Trackpoint>
          <Trackpoint>
            <Time>2021-08-09T13:25:46.000Z</Time>
            <Position>
              <LatitudeDegrees>43.09393401257693767547607421875</LatitudeDegrees>
              <LongitudeDegrees>-1.772825159132480621337890625</LongitudeDegrees>
            </Position>
            <AltitudeMeters>591.20001220703125</AltitudeMeters>
            <DistanceMeters>NAN</DistanceMeters>
          </Trackpoint>
          <Trackpoint>
            <Time>2021-08-09T13:25:47.000Z</Time>
            <Position>
              <LatitudeDegrees>43.0939604155719280242919921875</LatitudeDegrees>
              <LongitudeDegrees>-1.77278199233114719390869140625</LongitudeDegrees>
            </Position>
            <AltitudeMeters>591.5999755859375</AltitudeMeters>
            <DistanceMeters>NAN</DistanceMeters>
          </Trackpoint>
          <Trackpoint>
            <Time>2021-08-09T13:25:48.000Z</Time>
            <Position>
              <LatitudeDegrees>43.09397726319730281829833984375</LatitudeDegrees>
              <LongitudeDegrees>-1.77273974753916263580322265625</LongitudeDegrees>
            </Position>
            <AltitudeMeters>591.4000244140625</AltitudeMeters>
            <DistanceMeters>NAN</DistanceMeters>
          </Trackpoint>
          <Trackpoint>
            <Time>2021-08-09T13:25:49.000Z</Time>
            <Position>
              <LatitudeDegrees>43.09399419464170932769775390625</LatitudeDegrees>
              <LongitudeDegrees>-1.77269834093749523162841796875</LongitudeDegrees>
            </Position>
            <AltitudeMeters>591.79998779296875</AltitudeMeters>
            <DistanceMeters>NAN</DistanceMeters>
          </Trackpoint>
          <Trackpoint>
            <Time>2021-08-09T13:25:50.000Z</Time>
            <Position>
              <LatitudeDegrees>43.0940080247819423675537109375</LatitudeDegrees>
              <LongitudeDegrees>-1.7726660706102848052978515625</LongitudeDegrees>
            </Position>
            <AltitudeMeters>592</AltitudeMeters>
            <DistanceMeters>NAN</DistanceMeters>
          </Trackpoint>
          <Trackpoint>
            <Time>2021-08-09T13:25:51.000Z</Time>
            <Position>
              <LatitudeDegrees>43.094021938741207122802734375</LatitudeDegrees>
              <LongitudeDegrees>-1.77262625657021999359130859375</LongitudeDegrees>
            </Position>
            <AltitudeMeters>592.20001220703125</AltitudeMeters>
            <DistanceMeters>NAN</DistanceMeters>
          </Trackpoint>
          <Trackpoint>
            <Time>2021-08-09T13:25:52.000Z</Time>
            <Position>
              <LatitudeDegrees>43.09403778053820133209228515625</LatitudeDegrees>
              <LongitudeDegrees>-1.77257512696087360382080078125</LongitudeDegrees>
            </Position>
            <AltitudeMeters>592.4000244140625</AltitudeMeters>
            <DistanceMeters>NAN</DistanceMeters>
          </Trackpoint>
          <Trackpoint>
            <Time>2021-08-09T13:25:53.000Z</Time>
            <Position>
              <LatitudeDegrees>43.09405035339295864105224609375</LatitudeDegrees>
              <LongitudeDegrees>-1.772530786693096160888671875</LongitudeDegrees>
            </Position>
            <AltitudeMeters>592.5999755859375</AltitudeMeters>
            <DistanceMeters>NAN</DistanceMeters>
          </Trackpoint>
          <Trackpoint>
            <Time>2021-08-09T13:25:54.000Z</Time>
            <Position>
              <LatitudeDegrees>43.09405957348644733428955078125</LatitudeDegrees>
              <LongitudeDegrees>-1.7724877037107944488525390625</LongitudeDegrees>
            </Position>
            <AltitudeMeters>592.79998779296875</AltitudeMeters>
            <DistanceMeters>NAN</DistanceMeters>
          </Trackpoint>
          <Trackpoint>
            <Time>2021-08-09T13:25:55.000Z</Time>
            <Position>
              <LatitudeDegrees>43.094068206846714019775390625</LatitudeDegrees>
              <LongitudeDegrees>-1.7724531702697277069091796875</LongitudeDegrees>
            </Position>
            <AltitudeMeters>592.79998779296875</AltitudeMeters>
            <DistanceMeters>NAN</DistanceMeters>
          </Trackpoint>
          <Trackpoint>
            <Time>2021-08-09T13:25:56.000Z</Time>
            <Position>
              <LatitudeDegrees>43.09408237226307392120361328125</LatitudeDegrees>
              <LongitudeDegrees>-1.772411763668060302734375</LongitudeDegrees>
            </Position>
            <AltitudeMeters>593</AltitudeMeters>
            <DistanceMeters>NAN</DistanceMeters>
          </Trackpoint>
          <Trackpoint>
            <Time>2021-08-09T13:25:57.000Z</Time>
            <Position>
              <LatitudeDegrees>43.09409578330814838409423828125</LatitudeDegrees>
              <LongitudeDegrees>-1.77237060852348804473876953125</LongitudeDegrees>
            </Position>
            <AltitudeMeters>593.20001220703125</AltitudeMeters>
            <DistanceMeters>NAN</DistanceMeters>
          </Trackpoint>
          <Trackpoint>
            <Time>2021-08-09T13:25:58.000Z</Time>
            <Position>
              <LatitudeDegrees>43.0941052548587322235107421875</LatitudeDegrees>
              <LongitudeDegrees>-1.77232802845537662506103515625</LongitudeDegrees>
            </Position>
            <AltitudeMeters>593.20001220703125</AltitudeMeters>
            <DistanceMeters>NAN</DistanceMeters>
          </Trackpoint>
          <Trackpoint>
            <Time>2021-08-09T13:25:59.000Z</Time>
            <Position>
              <LatitudeDegrees>43.09411573223769664764404296875</LatitudeDegrees>
              <LongitudeDegrees>-1.7722851969301700592041015625</LongitudeDegrees>
            </Position>
            <AltitudeMeters>593.4000244140625</AltitudeMeters>
            <DistanceMeters>NAN</DistanceMeters>
          </Trackpoint>
          <Trackpoint>
            <Time>2021-08-09T13:26:00.000Z</Time>
            <Position>
              <LatitudeDegrees>43.09412813745439052581787109375</LatitudeDegrees>
              <LongitudeDegrees>-1.77223968319594860076904296875</LongitudeDegrees>
            </Position>
            <AltitudeMeters>593.4000244140625</AltitudeMeters>
            <DistanceMeters>NAN</DistanceMeters>
          </Trackpoint>
          <Trackpoint>
            <Time>2021-08-09T13:26:01.000Z</Time>
            <Position>
              <LatitudeDegrees>43.09414339251816272735595703125</LatitudeDegrees>
              <LongitudeDegrees>-1.7721933312714099884033203125</LongitudeDegrees>
            </Position>
            <AltitudeMeters>593.5999755859375</AltitudeMeters>
            <DistanceMeters>NAN</DistanceMeters>
          </Trackpoint>
          <Trackpoint>
            <Time>2021-08-09T13:26:02.000Z</Time>
            <Position>
              <LatitudeDegrees>43.0941568873822689056396484375</LatitudeDegrees>
              <LongitudeDegrees>-1.772147230803966522216796875</LongitudeDegrees>
            </Position>
            <AltitudeMeters>593.5999755859375</AltitudeMeters>
            <DistanceMeters>NAN</DistanceMeters>
          </Trackpoint>
          <Trackpoint>
            <Time>2021-08-09T13:26:03.000Z</Time>
            <Position>
              <LatitudeDegrees>43.094166107475757598876953125</LatitudeDegrees>
              <LongitudeDegrees>-1.77209937013685703277587890625</LongitudeDegrees>
            </Position>
            <AltitudeMeters>593.79998779296875</AltitudeMeters>
            <DistanceMeters>NAN</DistanceMeters>
          </Trackpoint>
          <Trackpoint>
            <Time>2021-08-09T13:26:04.000Z</Time>
            <Position>
              <LatitudeDegrees>43.0941733159124851226806640625</LatitudeDegrees>
              <LongitudeDegrees>-1.77205243147909641265869140625</LongitudeDegrees>
            </Position>
            <AltitudeMeters>594</AltitudeMeters>
            <DistanceMeters>NAN</DistanceMeters>
          </Trackpoint>
          <Trackpoint>
            <Time>2021-08-09T13:26:05.000Z</Time>
            <Position>
              <LatitudeDegrees>43.09417809359729290008544921875</LatitudeDegrees>
              <LongitudeDegrees>-1.77200297825038433074951171875</LongitudeDegrees>
            </Position>
            <AltitudeMeters>594</AltitudeMeters>
            <DistanceMeters>NAN</DistanceMeters>
          </Trackpoint>
          <Trackpoint>
            <Time>2021-08-09T13:26:06.000Z</Time>
            <Position>
              <LatitudeDegrees>43.094180524349212646484375</LatitudeDegrees>
              <LongitudeDegrees>-1.77195302210748195648193359375</LongitudeDegrees>
            </Position>
            <AltitudeMeters>594.20001220703125</AltitudeMeters>
            <DistanceMeters>NAN</DistanceMeters>
          </Trackpoint>
          <Trackpoint>
            <Time>2021-08-09T13:26:07.000Z</Time>
            <Position>
              <LatitudeDegrees>43.094180189073085784912109375</LatitudeDegrees>
              <LongitudeDegrees>-1.771904490888118743896484375</LongitudeDegrees>
            </Position>
            <AltitudeMeters>594.4000244140625</AltitudeMeters>
            <DistanceMeters>NAN</DistanceMeters>
          </Trackpoint>
          <Trackpoint>
            <Time>2021-08-09T13:26:08.000Z</Time>
            <Position>
              <LatitudeDegrees>43.09417851269245147705078125</LatitudeDegrees>
              <LongitudeDegrees>-1.77185445092618465423583984375</LongitudeDegrees>
            </Position>
            <AltitudeMeters>594.5999755859375</AltitudeMeters>
            <DistanceMeters>NAN</DistanceMeters>
          </Trackpoint>
          <Trackpoint>
            <Time>2021-08-09T13:26:09.000Z</Time>
            <Position>
              <LatitudeDegrees>43.09417423792183399200439453125</LatitudeDegrees>
              <LongitudeDegrees>-1.77180382423102855682373046875</LongitudeDegrees>
            </Position>
            <AltitudeMeters>594.79998779296875</AltitudeMeters>
            <DistanceMeters>NAN</DistanceMeters>
          </Trackpoint>
          <Trackpoint>
            <Time>2021-08-09T13:26:10.000Z</Time>
            <Position>
              <LatitudeDegrees>43.09416887350380420684814453125</LatitudeDegrees>
              <LongitudeDegrees>-1.7717537842690944671630859375</LongitudeDegrees>
            </Position>
            <AltitudeMeters>595</AltitudeMeters>
            <DistanceMeters>NAN</DistanceMeters>
          </Trackpoint>
          <Trackpoint>
            <Time>2021-08-09T13:26:11.000Z</Time>
            <Position>
              <LatitudeDegrees>43.09416241943836212158203125</LatitudeDegrees>
              <LongitudeDegrees>-1.77170810289680957794189453125</LongitudeDegrees>
            </Position>
            <AltitudeMeters>595.20001220703125</AltitudeMeters>
            <DistanceMeters>NAN</DistanceMeters>
          </Trackpoint>
          <Trackpoint>
            <Time>2021-08-09T13:26:12.000Z</Time>
            <Position>
              <LatitudeDegrees>43.0941548757255077362060546875</LatitudeDegrees>
              <LongitudeDegrees>-1.7716632597148418426513671875</LongitudeDegrees>
            </Position>
            <AltitudeMeters>595.20001220703125</AltitudeMeters>
            <DistanceMeters>NAN</DistanceMeters>
          </Trackpoint>
          <Trackpoint>
            <Time>2021-08-09T13:26:13.000Z</Time>
            <Position>
              <LatitudeDegrees>43.09414498507976531982421875</LatitudeDegrees>
              <LongitudeDegrees>-1.77161808125674724578857421875</LongitudeDegrees>
            </Position>
            <AltitudeMeters>595.4000244140625</AltitudeMeters>
            <DistanceMeters>NAN</DistanceMeters>
          </Trackpoint>
          <Trackpoint>
            <Time>2021-08-09T13:26:14.000Z</Time>
            <Position>
              <LatitudeDegrees>43.09413651935756206512451171875</LatitudeDegrees>
              <LongitudeDegrees>-1.7715737409889698028564453125</LongitudeDegrees>
            </Position>
            <AltitudeMeters>595.4000244140625</AltitudeMeters>
            <DistanceMeters>NAN</DistanceMeters>
          </Trackpoint>
          <Trackpoint>
            <Time>2021-08-09T13:26:15.000Z</Time>
            <Position>
              <LatitudeDegrees>43.09412511996924877166748046875</LatitudeDegrees>
              <LongitudeDegrees>-1.77152940072119235992431640625</LongitudeDegrees>
            </Position>
            <AltitudeMeters>595.5999755859375</AltitudeMeters>
            <DistanceMeters>NAN</DistanceMeters>
          </Trackpoint>
          <Trackpoint>
            <Time>2021-08-09T13:26:16.000Z</Time>
            <Position>
              <LatitudeDegrees>43.09411606751382350921630859375</LatitudeDegrees>
              <LongitudeDegrees>-1.77148564718663692474365234375</LongitudeDegrees>
            </Position>
            <AltitudeMeters>595.79998779296875</AltitudeMeters>
            <DistanceMeters>NAN</DistanceMeters>
          </Trackpoint>
          <Trackpoint>
            <Time>2021-08-09T13:26:17.000Z</Time>
            <Position>
              <LatitudeDegrees>43.0941092781722545623779296875</LatitudeDegrees>
              <LongitudeDegrees>-1.77144281566143035888671875</LongitudeDegrees>
            </Position>
            <AltitudeMeters>596</AltitudeMeters>
            <DistanceMeters>NAN</DistanceMeters>
          </Trackpoint>
          <Trackpoint>
            <Time>2021-08-09T13:26:18.000Z</Time>
            <Position>
              <LatitudeDegrees>43.0941015668213367462158203125</LatitudeDegrees>
              <LongitudeDegrees>-1.77140392363071441650390625</LongitudeDegrees>
            </Position>
            <AltitudeMeters>596</AltitudeMeters>
            <DistanceMeters>NAN</DistanceMeters>
          </Trackpoint>
          <Trackpoint>
            <Time>2021-08-09T13:26:19.000Z</Time>
            <Position>
              <LatitudeDegrees>43.0940906703472137451171875</LatitudeDegrees>
              <LongitudeDegrees>-1.77135698497295379638671875</LongitudeDegrees>
            </Position>
            <AltitudeMeters>596.20001220703125</AltitudeMeters>
            <DistanceMeters>NAN</DistanceMeters>
          </Trackpoint>
          <Trackpoint>
            <Time>2021-08-09T13:26:20.000Z</Time>
            <Position>
              <LatitudeDegrees>43.0940844677388668060302734375</LatitudeDegrees>
              <LongitudeDegrees>-1.77130845375359058380126953125</LongitudeDegrees>
            </Position>
            <AltitudeMeters>596.4000244140625</AltitudeMeters>
            <DistanceMeters>NAN</DistanceMeters>
          </Trackpoint>
          <Trackpoint>
            <Time>2021-08-09T13:26:21.000Z</Time>
            <Position>
              <LatitudeDegrees>43.09408337809145450592041015625</LatitudeDegrees>
              <LongitudeDegrees>-1.7712615989148616790771484375</LongitudeDegrees>
            </Position>
            <AltitudeMeters>596.5999755859375</AltitudeMeters>
            <DistanceMeters>NAN</DistanceMeters>
          </Trackpoint>
          <Trackpoint>
            <Time>2021-08-09T13:26:22.000Z</Time>
            <Position>
              <LatitudeDegrees>43.094083629548549652099609375</LatitudeDegrees>
              <LongitudeDegrees>-1.7712092958390712738037109375</LongitudeDegrees>
            </Position>
            <AltitudeMeters>596.79998779296875</AltitudeMeters>
            <DistanceMeters>NAN</DistanceMeters>
          </Trackpoint>
          <Trackpoint>
            <Time>2021-08-09T13:26:23.000Z</Time>
            <Position>
              <LatitudeDegrees>43.09408002533018589019775390625</LatitudeDegrees>
              <LongitudeDegrees>-1.77115690894424915313720703125</LongitudeDegrees>
            </Position>
            <AltitudeMeters>597</AltitudeMeters>
            <DistanceMeters>NAN</DistanceMeters>
          </Trackpoint>
          <Trackpoint>
            <Time>2021-08-09T13:26:24.000Z</Time>
            <Position>
              <LatitudeDegrees>43.09407256543636322021484375</LatitudeDegrees>
              <LongitudeDegrees>-1.7711055278778076171875</LongitudeDegrees>
            </Position>
            <AltitudeMeters>597.20001220703125</AltitudeMeters>
            <DistanceMeters>NAN</DistanceMeters>
          </Trackpoint>
          <Trackpoint>
            <Time>2021-08-09T13:26:25.000Z</Time>
            <Position>
              <LatitudeDegrees>43.0940692126750946044921875</LatitudeDegrees>
              <LongitudeDegrees>-1.77105255424976348876953125</LongitudeDegrees>
            </Position>
            <AltitudeMeters>597.4000244140625</AltitudeMeters>
            <DistanceMeters>NAN</DistanceMeters>
          </Trackpoint>
          <Trackpoint>
            <Time>2021-08-09T13:26:26.000Z</Time>
            <Position>
              <LatitudeDegrees>43.09407214634120464324951171875</LatitudeDegrees>
              <LongitudeDegrees>-1.770996563136577606201171875</LongitudeDegrees>
            </Position>
            <AltitudeMeters>597.5999755859375</AltitudeMeters>
            <DistanceMeters>NAN</DistanceMeters>
          </Trackpoint>
          <Trackpoint>
            <Time>2021-08-09T13:26:27.000Z</Time>
            <Position>
              <LatitudeDegrees>43.094070889055728912353515625</LatitudeDegrees>
              <LongitudeDegrees>-1.770938225090503692626953125</LongitudeDegrees>
            </Position>
            <AltitudeMeters>597.79998779296875</AltitudeMeters>
            <DistanceMeters>NAN</DistanceMeters>
          </Trackpoint>
          <Trackpoint>
            <Time>2021-08-09T13:26:28.000Z</Time>
            <Position>
              <LatitudeDegrees>43.094064183533191680908203125</LatitudeDegrees>
              <LongitudeDegrees>-1.77088600583374500274658203125</LongitudeDegrees>
            </Position>
            <AltitudeMeters>597.79998779296875</AltitudeMeters>
            <DistanceMeters>NAN</DistanceMeters>
          </Trackpoint>
          <Trackpoint>
            <Time>2021-08-09T13:26:29.000Z</Time>
            <Position>
              <LatitudeDegrees>43.09405756182968616485595703125</LatitudeDegrees>
              <LongitudeDegrees>-1.77083487622439861297607421875</LongitudeDegrees>
            </Position>
            <AltitudeMeters>598</AltitudeMeters>
            <DistanceMeters>NAN</DistanceMeters>
          </Trackpoint>
          <Trackpoint>
            <Time>2021-08-09T13:26:30.000Z</Time>
            <Position>
              <LatitudeDegrees>43.09405270032584667205810546875</LatitudeDegrees>
              <LongitudeDegrees>-1.770783998072147369384765625</LongitudeDegrees>
            </Position>
            <AltitudeMeters>598.20001220703125</AltitudeMeters>
            <DistanceMeters>NAN</DistanceMeters>
          </Trackpoint>
          <Trackpoint>
            <Time>2021-08-09T13:26:31.000Z</Time>
            <Position>
              <LatitudeDegrees>43.09405169449746608734130859375</LatitudeDegrees>
              <LongitudeDegrees>-1.7707328684628009796142578125</LongitudeDegrees>
            </Position>
            <AltitudeMeters>598.20001220703125</AltitudeMeters>
            <DistanceMeters>NAN</DistanceMeters>
          </Trackpoint>
          <Trackpoint>
            <Time>2021-08-09T13:26:32.000Z</Time>
            <Position>
              <LatitudeDegrees>43.09404750354588031768798828125</LatitudeDegrees>
              <LongitudeDegrees>-1.7706822417676448822021484375</LongitudeDegrees>
            </Position>
            <AltitudeMeters>598.20001220703125</AltitudeMeters>
            <DistanceMeters>NAN</DistanceMeters>
          </Trackpoint>
          <Trackpoint>
            <Time>2021-08-09T13:26:33.000Z</Time>
            <Position>
              <LatitudeDegrees>43.0940422229468822479248046875</LatitudeDegrees>
              <LongitudeDegrees>-1.77062817849218845367431640625</LongitudeDegrees>
            </Position>
            <AltitudeMeters>598.4000244140625</AltitudeMeters>
            <DistanceMeters>NAN</DistanceMeters>
          </Trackpoint>
          <Trackpoint>
            <Time>2021-08-09T13:26:34.000Z</Time>
            <Position>
              <LatitudeDegrees>43.094040043652057647705078125</LatitudeDegrees>
              <LongitudeDegrees>-1.77056967280805110931396484375</LongitudeDegrees>
            </Position>
            <AltitudeMeters>598.5999755859375</AltitudeMeters>
            <DistanceMeters>NAN</DistanceMeters>
          </Trackpoint>
          <Trackpoint>
            <Time>2021-08-09T13:26:35.000Z</Time>
            <Position>
              <LatitudeDegrees>43.0940371938049793243408203125</LatitudeDegrees>
              <LongitudeDegrees>-1.7705114185810089111328125</LongitudeDegrees>
            </Position>
            <AltitudeMeters>598.79998779296875</AltitudeMeters>
            <DistanceMeters>NAN</DistanceMeters>
          </Trackpoint>
          <Trackpoint>
            <Time>2021-08-09T13:26:36.000Z</Time>
            <Position>
              <LatitudeDegrees>43.09403912164270877838134765625</LatitudeDegrees>
              <LongitudeDegrees>-1.77045098505914211273193359375</LongitudeDegrees>
            </Position>
            <AltitudeMeters>599</AltitudeMeters>
            <DistanceMeters>NAN</DistanceMeters>
          </Trackpoint>
          <Trackpoint>
            <Time>2021-08-09T13:26:37.000Z</Time>
            <Position>
              <LatitudeDegrees>43.09403836727142333984375</LatitudeDegrees>
              <LongitudeDegrees>-1.77039499394595623016357421875</LongitudeDegrees>
            </Position>
            <AltitudeMeters>599</AltitudeMeters>
            <DistanceMeters>NAN</DistanceMeters>
          </Trackpoint>
          <Trackpoint>
            <Time>2021-08-09T13:26:38.000Z</Time>
            <Position>
              <LatitudeDegrees>43.09403710998594760894775390625</LatitudeDegrees>
              <LongitudeDegrees>-1.77033849991858005523681640625</LongitudeDegrees>
            </Position>
            <AltitudeMeters>599.20001220703125</AltitudeMeters>
            <DistanceMeters>NAN</DistanceMeters>
          </Trackpoint>
          <Trackpoint>
            <Time>2021-08-09T13:26:39.000Z</Time>
            <Position>
              <LatitudeDegrees>43.09404867701232433319091796875</LatitudeDegrees>
              <LongitudeDegrees>-1.77027932368218898773193359375</LongitudeDegrees>
            </Position>
            <AltitudeMeters>599.4000244140625</AltitudeMeters>
            <DistanceMeters>NAN</DistanceMeters>
          </Trackpoint>
          <Trackpoint>
            <Time>2021-08-09T13:26:40.000Z</Time>
            <Position>
              <LatitudeDegrees>43.0940450727939605712890625</LatitudeDegrees>
              <LongitudeDegrees>-1.77022232674062252044677734375</LongitudeDegrees>
            </Position>
            <AltitudeMeters>599.4000244140625</AltitudeMeters>
            <DistanceMeters>NAN</DistanceMeters>
          </Trackpoint>
          <Trackpoint>
            <Time>2021-08-09T13:26:41.000Z</Time>
            <Position>
              <LatitudeDegrees>43.09403836727142333984375</LatitudeDegrees>
              <LongitudeDegrees>-1.77016432397067546844482421875</LongitudeDegrees>
            </Position>
            <AltitudeMeters>599.5999755859375</AltitudeMeters>
            <DistanceMeters>NAN</DistanceMeters>
          </Trackpoint>
          <Trackpoint>
            <Time>2021-08-09T13:26:42.000Z</Time>
            <Position>
              <LatitudeDegrees>43.0940472520887851715087890625</LatitudeDegrees>
              <LongitudeDegrees>-1.7701109312474727630615234375</LongitudeDegrees>
            </Position>
            <AltitudeMeters>599.5999755859375</AltitudeMeters>
            <DistanceMeters>NAN</DistanceMeters>
          </Trackpoint>
          <Trackpoint>
            <Time>2021-08-09T13:26:43.000Z</Time>
            <Position>
              <LatitudeDegrees>43.0940542928874492645263671875</LatitudeDegrees>
              <LongitudeDegrees>-1.7700586281716823577880859375</LongitudeDegrees>
            </Position>
            <AltitudeMeters>599.5999755859375</AltitudeMeters>
            <DistanceMeters>NAN</DistanceMeters>
          </Trackpoint>
          <Trackpoint>
            <Time>2021-08-09T13:26:44.000Z</Time>
            <Position>
              <LatitudeDegrees>43.0940673686563968658447265625</LatitudeDegrees>
              <LongitudeDegrees>-1.77000540308654308319091796875</LongitudeDegrees>
            </Position>
            <AltitudeMeters>599.79998779296875</AltitudeMeters>
            <DistanceMeters>NAN</DistanceMeters>
          </Trackpoint>
          <Trackpoint>
            <Time>2021-08-09T13:26:45.000Z</Time>
            <Position>
              <LatitudeDegrees>43.09408321045339107513427734375</LatitudeDegrees>
              <LongitudeDegrees>-1.769951842725276947021484375</LongitudeDegrees>
            </Position>
            <AltitudeMeters>599.79998779296875</AltitudeMeters>
            <DistanceMeters>NAN</DistanceMeters>
          </Trackpoint>
          <Trackpoint>
            <Time>2021-08-09T13:26:46.000Z</Time>
            <Position>
              <LatitudeDegrees>43.09409427456557750701904296875</LatitudeDegrees>
              <LongitudeDegrees>-1.76990448497235774993896484375</LongitudeDegrees>
            </Position>
            <AltitudeMeters>599.79998779296875</AltitudeMeters>
            <DistanceMeters>NAN</DistanceMeters>
          </Trackpoint>
          <Trackpoint>
            <Time>2021-08-09T13:26:47.000Z</Time>
            <Position>
              <LatitudeDegrees>43.094105757772922515869140625</LatitudeDegrees>
              <LongitudeDegrees>-1.76985754631459712982177734375</LongitudeDegrees>
            </Position>
            <AltitudeMeters>600</AltitudeMeters>
            <DistanceMeters>NAN</DistanceMeters>
          </Trackpoint>
          <Trackpoint>
            <Time>2021-08-09T13:26:48.000Z</Time>
            <Position>
              <LatitudeDegrees>43.0941206775605678558349609375</LatitudeDegrees>
              <LongitudeDegrees>-1.76981295458972454071044921875</LongitudeDegrees>
            </Position>
            <AltitudeMeters>600.20001220703125</AltitudeMeters>
            <DistanceMeters>NAN</DistanceMeters>
          </Trackpoint>
          <Trackpoint>
            <Time>2021-08-09T13:26:49.000Z</Time>
            <Position>
              <LatitudeDegrees>43.09413987211883068084716796875</LatitudeDegrees>
              <LongitudeDegrees>-1.7697739787399768829345703125</LongitudeDegrees>
            </Position>
            <AltitudeMeters>600.20001220703125</AltitudeMeters>
            <DistanceMeters>NAN</DistanceMeters>
          </Trackpoint>
          <Trackpoint>
            <Time>2021-08-09T13:26:50.000Z</Time>
            <Position>
              <LatitudeDegrees>43.0941602401435375213623046875</LatitudeDegrees>
              <LongitudeDegrees>-1.76973466761410236358642578125</LongitudeDegrees>
            </Position>
            <AltitudeMeters>600.4000244140625</AltitudeMeters>
            <DistanceMeters>NAN</DistanceMeters>
          </Trackpoint>
          <Trackpoint>
            <Time>2021-08-09T13:26:51.000Z</Time>
            <Position>
              <LatitudeDegrees>43.0941857211291790008544921875</LatitudeDegrees>
              <LongitudeDegrees>-1.76969376392662525177001953125</LongitudeDegrees>
            </Position>
            <AltitudeMeters>600.4000244140625</AltitudeMeters>
            <DistanceMeters>NAN</DistanceMeters>
          </Trackpoint>
          <Trackpoint>
            <Time>2021-08-09T13:26:52.000Z</Time>
            <Position>
              <LatitudeDegrees>43.0942138843238353729248046875</LatitudeDegrees>
              <LongitudeDegrees>-1.7696482501924037933349609375</LongitudeDegrees>
            </Position>
            <AltitudeMeters>600.5999755859375</AltitudeMeters>
            <DistanceMeters>NAN</DistanceMeters>
          </Trackpoint>
          <Trackpoint>
            <Time>2021-08-09T13:26:53.000Z</Time>
            <Position>
              <LatitudeDegrees>43.09423341415822505950927734375</LatitudeDegrees>
              <LongitudeDegrees>-1.76961111836135387420654296875</LongitudeDegrees>
            </Position>
            <AltitudeMeters>600.5999755859375</AltitudeMeters>
            <DistanceMeters>NAN</DistanceMeters>
          </Trackpoint>
          <Trackpoint>
            <Time>2021-08-09T13:26:54.000Z</Time>
            <Position>
              <LatitudeDegrees>43.0942588113248348236083984375</LatitudeDegrees>
              <LongitudeDegrees>-1.76955931819975376129150390625</LongitudeDegrees>
            </Position>
            <AltitudeMeters>600.79998779296875</AltitudeMeters>
            <DistanceMeters>NAN</DistanceMeters>
          </Trackpoint>
          <Trackpoint>
            <Time>2021-08-09T13:26:55.000Z</Time>
            <Position>
              <LatitudeDegrees>43.09427700005471706390380859375</LatitudeDegrees>
              <LongitudeDegrees>-1.76951053552329540252685546875</LongitudeDegrees>
            </Position>
            <AltitudeMeters>600.79998779296875</AltitudeMeters>
            <DistanceMeters>NAN</DistanceMeters>
          </Trackpoint>
          <Trackpoint>
            <Time>2021-08-09T13:26:56.000Z</Time>
            <Position>
              <LatitudeDegrees>43.09429611079394817352294921875</LatitudeDegrees>
              <LongitudeDegrees>-1.769461333751678466796875</LongitudeDegrees>
            </Position>
            <AltitudeMeters>600.79998779296875</AltitudeMeters>
            <DistanceMeters>NAN</DistanceMeters>
          </Trackpoint>
          <Trackpoint>
            <Time>2021-08-09T13:26:57.000Z</Time>
            <Position>
              <LatitudeDegrees>43.0943134613335132598876953125</LatitudeDegrees>
              <LongitudeDegrees>-1.769407354295253753662109375</LongitudeDegrees>
            </Position>
            <AltitudeMeters>601</AltitudeMeters>
            <DistanceMeters>NAN</DistanceMeters>
          </Trackpoint>
          <Trackpoint>
            <Time>2021-08-09T13:26:58.000Z</Time>
            <Position>
              <LatitudeDegrees>43.09432628564536571502685546875</LatitudeDegrees>
              <LongitudeDegrees>-1.769350357353687286376953125</LongitudeDegrees>
            </Position>
            <AltitudeMeters>601</AltitudeMeters>
            <DistanceMeters>NAN</DistanceMeters>
          </Trackpoint>
          <Trackpoint>
            <Time>2021-08-09T13:26:59.000Z</Time>
            <Position>
              <LatitudeDegrees>43.0943319015204906463623046875</LatitudeDegrees>
              <LongitudeDegrees>-1.76929109729826450347900390625</LongitudeDegrees>
            </Position>
            <AltitudeMeters>601</AltitudeMeters>
            <DistanceMeters>NAN</DistanceMeters>
          </Trackpoint>
          <Trackpoint>
            <Time>2021-08-09T13:27:00.000Z</Time>
            <Position>
              <LatitudeDegrees>43.09433064423501491546630859375</LatitudeDegrees>
              <LongitudeDegrees>-1.7692288197576999664306640625</LongitudeDegrees>
            </Position>
            <AltitudeMeters>601</AltitudeMeters>
            <DistanceMeters>NAN</DistanceMeters>
          </Trackpoint>
          <Trackpoint>
            <Time>2021-08-09T13:27:01.000Z</Time>
            <Position>
              <LatitudeDegrees>43.09432360343635082244873046875</LatitudeDegrees>
              <LongitudeDegrees>-1.76916469819843769073486328125</LongitudeDegrees>
            </Position>
            <AltitudeMeters>601</AltitudeMeters>
            <DistanceMeters>NAN</DistanceMeters>
          </Trackpoint>
          <Trackpoint>
            <Time>2021-08-09T13:27:02.000Z</Time>
            <Position>
              <LatitudeDegrees>43.09431253932416439056396484375</LatitudeDegrees>
              <LongitudeDegrees>-1.76909781061112880706787109375</LongitudeDegrees>
            </Position>
            <AltitudeMeters>601</AltitudeMeters>
            <DistanceMeters>NAN</DistanceMeters>
          </Trackpoint>
          <Trackpoint>
            <Time>2021-08-09T13:27:03.000Z</Time>
            <Position>
              <LatitudeDegrees>43.09429544024169445037841796875</LatitudeDegrees>
              <LongitudeDegrees>-1.76902656443417072296142578125</LongitudeDegrees>
            </Position>
            <AltitudeMeters>600.79998779296875</AltitudeMeters>
            <DistanceMeters>NAN</DistanceMeters>
          </Trackpoint>
          <Trackpoint>
            <Time>2021-08-09T13:27:08.000Z</Time>
            <Position>
              <LatitudeDegrees>43.09418261982500553131103515625</LatitudeDegrees>
              <LongitudeDegrees>-1.76863043569028377532958984375</LongitudeDegrees>
            </Position>
            <AltitudeMeters>600.4000244140625</AltitudeMeters>
            <DistanceMeters>NAN</DistanceMeters>
          </Trackpoint>
          <Trackpoint>
            <Time>2021-08-09T13:27:09.000Z</Time>
            <Position>
              <LatitudeDegrees>43.09416451491415500640869140625</LatitudeDegrees>
              <LongitudeDegrees>-1.7685337923467159271240234375</LongitudeDegrees>
            </Position>
            <AltitudeMeters>600.20001220703125</AltitudeMeters>
            <DistanceMeters>NAN</DistanceMeters>
          </Trackpoint>
          <Trackpoint>
            <Time>2021-08-09T13:27:12.000Z</Time>
            <Position>
              <LatitudeDegrees>43.09416635893285274505615234375</LatitudeDegrees>
              <LongitudeDegrees>-1.76821653731167316436767578125</LongitudeDegrees>
            </Position>
            <AltitudeMeters>599.20001220703125</AltitudeMeters>
            <DistanceMeters>NAN</DistanceMeters>
          </Trackpoint>
          <Trackpoint>
            <Time>2021-08-09T13:27:13.000Z</Time>
            <Position>
              <LatitudeDegrees>43.0941786803305149078369140625</LatitudeDegrees>
              <LongitudeDegrees>-1.76810774020850658416748046875</LongitudeDegrees>
            </Position>
            <AltitudeMeters>598.79998779296875</AltitudeMeters>
            <DistanceMeters>NAN</DistanceMeters>
          </Trackpoint>
          <Trackpoint>
            <Time>2021-08-09T13:27:15.000Z</Time>
            <Position>
              <LatitudeDegrees>43.094227127730846405029296875</LatitudeDegrees>
              <LongitudeDegrees>-1.7679064907133579254150390625</LongitudeDegrees>
            </Position>
            <AltitudeMeters>598</AltitudeMeters>
            <DistanceMeters>NAN</DistanceMeters>
          </Trackpoint>
          <Trackpoint>
            <Time>2021-08-09T13:27:17.000Z</Time>
            <Position>
              <LatitudeDegrees>43.0942789278924465179443359375</LatitudeDegrees>
              <LongitudeDegrees>-1.76769434474408626556396484375</LongitudeDegrees>
            </Position>
            <AltitudeMeters>597</AltitudeMeters>
            <DistanceMeters>NAN</DistanceMeters>
          </Trackpoint>
          <Trackpoint>
            <Time>2021-08-09T13:27:18.000Z</Time>
            <Position>
              <LatitudeDegrees>43.094309270381927490234375</LatitudeDegrees>
              <LongitudeDegrees>-1.7675832845270633697509765625</LongitudeDegrees>
            </Position>
            <AltitudeMeters>596.20001220703125</AltitudeMeters>
            <DistanceMeters>NAN</DistanceMeters>
          </Trackpoint>
          <Trackpoint>
            <Time>2021-08-09T13:27:20.000Z</Time>
            <Position>
              <LatitudeDegrees>43.09437121264636516571044921875</LatitudeDegrees>
              <LongitudeDegrees>-1.76735487766563892364501953125</LongitudeDegrees>
            </Position>
            <AltitudeMeters>595</AltitudeMeters>
            <DistanceMeters>NAN</DistanceMeters>
          </Trackpoint>
          <Trackpoint>
            <Time>2021-08-09T13:27:22.000Z</Time>
            <Position>
              <LatitudeDegrees>43.09442033059895038604736328125</LatitudeDegrees>
              <LongitudeDegrees>-1.7670837230980396270751953125</LongitudeDegrees>
            </Position>
            <AltitudeMeters>593.79998779296875</AltitudeMeters>
            <DistanceMeters>NAN</DistanceMeters>
          </Trackpoint>
          <Trackpoint>
            <Time>2021-08-09T13:27:23.000Z</Time>
            <Position>
              <LatitudeDegrees>43.0944445542991161346435546875</LatitudeDegrees>
              <LongitudeDegrees>-1.76695547997951507568359375</LongitudeDegrees>
            </Position>
            <AltitudeMeters>593.4000244140625</AltitudeMeters>
            <DistanceMeters>NAN</DistanceMeters>
          </Trackpoint>
          <Trackpoint>
            <Time>2021-08-09T13:27:24.000Z</Time>
            <Position>
              <LatitudeDegrees>43.0944720469415187835693359375</LatitudeDegrees>
              <LongitudeDegrees>-1.766829080879688262939453125</LongitudeDegrees>
            </Position>
            <AltitudeMeters>592.5999755859375</AltitudeMeters>
            <DistanceMeters>NAN</DistanceMeters>
          </Trackpoint>
          <Trackpoint>
            <Time>2021-08-09T13:27:26.000Z</Time>
            <Position>
              <LatitudeDegrees>43.09454262256622314453125</LatitudeDegrees>
              <LongitudeDegrees>-1.7666007578372955322265625</LongitudeDegrees>
            </Position>
            <AltitudeMeters>591.4000244140625</AltitudeMeters>
            <DistanceMeters>NAN</DistanceMeters>
          </Trackpoint>
          <Trackpoint>
            <Time>2021-08-09T13:27:27.000Z</Time>
            <Position>
              <LatitudeDegrees>43.09458553791046142578125</LatitudeDegrees>
              <LongitudeDegrees>-1.76647293381392955780029296875</LongitudeDegrees>
            </Position>
            <AltitudeMeters>591</AltitudeMeters>
            <DistanceMeters>NAN</DistanceMeters>
          </Trackpoint>
          <Trackpoint>
            <Time>2021-08-09T13:27:29.000Z</Time>
            <Position>
              <LatitudeDegrees>43.094682432711124420166015625</LatitudeDegrees>
              <LongitudeDegrees>-1.76621929742395877838134765625</LongitudeDegrees>
            </Position>
            <AltitudeMeters>589.79998779296875</AltitudeMeters>
            <DistanceMeters>NAN</DistanceMeters>
          </Trackpoint>
          <Trackpoint>
            <Time>2021-08-09T13:27:31.000Z</Time>
            <Position>
              <LatitudeDegrees>43.094771616160869598388671875</LatitudeDegrees>
              <LongitudeDegrees>-1.7659793235361576080322265625</LongitudeDegrees>
            </Position>
            <AltitudeMeters>588.5999755859375</AltitudeMeters>
            <DistanceMeters>NAN</DistanceMeters>
          </Trackpoint>
          <Trackpoint>
            <Time>2021-08-09T13:27:32.000Z</Time>
            <Position>
              <LatitudeDegrees>43.0948076583445072174072265625</LatitudeDegrees>
              <LongitudeDegrees>-1.76585770212113857269287109375</LongitudeDegrees>
            </Position>
            <AltitudeMeters>588.20001220703125</AltitudeMeters>
            <DistanceMeters>NAN</DistanceMeters>
          </Trackpoint>
          <Trackpoint>
            <Time>2021-08-09T13:27:33.000Z</Time>
            <Position>
              <LatitudeDegrees>43.09483724646270275115966796875</LatitudeDegrees>
              <LongitudeDegrees>-1.76570381037890911102294921875</LongitudeDegrees>
            </Position>
            <AltitudeMeters>587</AltitudeMeters>
            <DistanceMeters>NAN</DistanceMeters>
          </Trackpoint>
          <Trackpoint>
            <Time>2021-08-09T13:27:34.000Z</Time>
            <Position>
              <LatitudeDegrees>43.09485501609742641448974609375</LatitudeDegrees>
              <LongitudeDegrees>-1.7655689455568790435791015625</LongitudeDegrees>
            </Position>
            <AltitudeMeters>586.4000244140625</AltitudeMeters>
            <DistanceMeters>NAN</DistanceMeters>
          </Trackpoint>
          <Trackpoint>
            <Time>2021-08-09T13:27:35.000Z</Time>
            <Position>
              <LatitudeDegrees>43.0948629789054393768310546875</LatitudeDegrees>
              <LongitudeDegrees>-1.76545939408242702484130859375</LongitudeDegrees>
            </Position>
            <AltitudeMeters>586</AltitudeMeters>
            <DistanceMeters>NAN</DistanceMeters>
          </Trackpoint>
          <Trackpoint>
            <Time>2021-08-09T13:27:36.000Z</Time>
            <Position>
              <LatitudeDegrees>43.09488971717655658721923828125</LatitudeDegrees>
              <LongitudeDegrees>-1.76532679237425327301025390625</LongitudeDegrees>
            </Position>
            <AltitudeMeters>585.4000244140625</AltitudeMeters>
            <DistanceMeters>NAN</DistanceMeters>
          </Trackpoint>
          <Trackpoint>
            <Time>2021-08-09T13:27:37.000Z</Time>
            <Position>
              <LatitudeDegrees>43.0949461273849010467529296875</LatitudeDegrees>
              <LongitudeDegrees>-1.7651790194213390350341796875</LongitudeDegrees>
            </Position>
            <AltitudeMeters>585.20001220703125</AltitudeMeters>
            <DistanceMeters>NAN</DistanceMeters>
          </Trackpoint>
          <Trackpoint>
            <Time>2021-08-09T13:27:38.000Z</Time>
            <Position>
              <LatitudeDegrees>43.09500019066035747528076171875</LatitudeDegrees>
              <LongitudeDegrees>-1.76509092561900615692138671875</LongitudeDegrees>
            </Position>
            <AltitudeMeters>584.4000244140625</AltitudeMeters>
            <DistanceMeters>NAN</DistanceMeters>
          </Trackpoint>
          <Trackpoint>
            <Time>2021-08-09T13:27:39.000Z</Time>
            <Position>
              <LatitudeDegrees>43.09507093392312526702880859375</LatitudeDegrees>
              <LongitudeDegrees>-1.76498481072485446929931640625</LongitudeDegrees>
            </Position>
            <AltitudeMeters>584.20001220703125</AltitudeMeters>
            <DistanceMeters>NAN</DistanceMeters>
          </Trackpoint>
          <Trackpoint>
            <Time>2021-08-09T13:27:40.000Z</Time>
            <Position>
              <LatitudeDegrees>43.09515374712646007537841796875</LatitudeDegrees>
              <LongitudeDegrees>-1.7648652009665966033935546875</LongitudeDegrees>
            </Position>
            <AltitudeMeters>583.5999755859375</AltitudeMeters>
            <DistanceMeters>NAN</DistanceMeters>
          </Trackpoint>
          <Trackpoint>
            <Time>2021-08-09T13:27:41.000Z</Time>
            <Position>
              <LatitudeDegrees>43.09520940296351909637451171875</LatitudeDegrees>
              <LongitudeDegrees>-1.76478750072419643402099609375</LongitudeDegrees>
            </Position>
            <AltitudeMeters>583</AltitudeMeters>
            <DistanceMeters>NAN</DistanceMeters>
          </Trackpoint>
          <Trackpoint>
            <Time>2021-08-09T13:27:42.000Z</Time>
            <Position>
              <LatitudeDegrees>43.09529271908104419708251953125</LatitudeDegrees>
              <LongitudeDegrees>-1.764665208756923675537109375</LongitudeDegrees>
            </Position>
            <AltitudeMeters>583</AltitudeMeters>
            <DistanceMeters>NAN</DistanceMeters>
          </Trackpoint>
          <Trackpoint>
            <Time>2021-08-09T13:27:45.000Z</Time>
            <Position>
              <LatitudeDegrees>43.0954681523144245147705078125</LatitudeDegrees>
              <LongitudeDegrees>-1.7643311060965061187744140625</LongitudeDegrees>
            </Position>
            <AltitudeMeters>581.4000244140625</AltitudeMeters>
            <DistanceMeters>NAN</DistanceMeters>
          </Trackpoint>
          <Trackpoint>
            <Time>2021-08-09T13:27:46.000Z</Time>
            <Position>
              <LatitudeDegrees>43.0955067090690135955810546875</LatitudeDegrees>
              <LongitudeDegrees>-1.7642382346093654632568359375</LongitudeDegrees>
            </Position>
            <AltitudeMeters>581.20001220703125</AltitudeMeters>
            <DistanceMeters>NAN</DistanceMeters>
          </Trackpoint>
          <Trackpoint>
            <Time>2021-08-09T13:27:48.000Z</Time>
            <Position>
              <LatitudeDegrees>43.0955730937421321868896484375</LatitudeDegrees>
              <LongitudeDegrees>-1.7639944888651371002197265625</LongitudeDegrees>
            </Position>
            <AltitudeMeters>580</AltitudeMeters>
            <DistanceMeters>NAN</DistanceMeters>
          </Trackpoint>
          <Trackpoint>
            <Time>2021-08-09T13:27:49.000Z</Time>
            <Position>
              <LatitudeDegrees>43.09559949673712253570556640625</LatitudeDegrees>
              <LongitudeDegrees>-1.7638684250414371490478515625</LongitudeDegrees>
            </Position>
            <AltitudeMeters>579.79998779296875</AltitudeMeters>
            <DistanceMeters>NAN</DistanceMeters>
          </Trackpoint>
          <Trackpoint>
            <Time>2021-08-09T13:27:50.000Z</Time>
            <Position>
              <LatitudeDegrees>43.095623552799224853515625</LatitudeDegrees>
              <LongitudeDegrees>-1.7637158744037151336669921875</LongitudeDegrees>
            </Position>
            <AltitudeMeters>579.4000244140625</AltitudeMeters>
            <DistanceMeters>NAN</DistanceMeters>
          </Trackpoint>
          <Trackpoint>
            <Time>2021-08-09T13:27:51.000Z</Time>
            <Position>
              <LatitudeDegrees>43.09563763439655303955078125</LatitudeDegrees>
              <LongitudeDegrees>-1.7635844461619853973388671875</LongitudeDegrees>
            </Position>
            <AltitudeMeters>579.20001220703125</AltitudeMeters>
            <DistanceMeters>NAN</DistanceMeters>
          </Trackpoint>
          <Trackpoint>
            <Time>2021-08-09T13:27:52.000Z</Time>
            <Position>
              <LatitudeDegrees>43.09565565548837184906005859375</LatitudeDegrees>
              <LongitudeDegrees>-1.763450168073177337646484375</LongitudeDegrees>
            </Position>
            <AltitudeMeters>578.79998779296875</AltitudeMeters>
            <DistanceMeters>NAN</DistanceMeters>
          </Trackpoint>
          <Trackpoint>
            <Time>2021-08-09T13:27:54.000Z</Time>
            <Position>
              <LatitudeDegrees>43.0956850759685039520263671875</LatitudeDegrees>
              <LongitudeDegrees>-1.76321036182343959808349609375</LongitudeDegrees>
            </Position>
            <AltitudeMeters>578</AltitudeMeters>
            <DistanceMeters>NAN</DistanceMeters>
          </Trackpoint>
          <Trackpoint>
            <Time>2021-08-09T13:27:55.000Z</Time>
            <Position>
              <LatitudeDegrees>43.09570125304162502288818359375</LatitudeDegrees>
              <LongitudeDegrees>-1.7630748264491558074951171875</LongitudeDegrees>
            </Position>
            <AltitudeMeters>577.4000244140625</AltitudeMeters>
            <DistanceMeters>NAN</DistanceMeters>
          </Trackpoint>
          <Trackpoint>
            <Time>2021-08-09T13:27:58.000Z</Time>
            <Position>
              <LatitudeDegrees>43.09576780535280704498291015625</LatitudeDegrees>
              <LongitudeDegrees>-1.76267241127789020538330078125</LongitudeDegrees>
            </Position>
            <AltitudeMeters>576.4000244140625</AltitudeMeters>
            <DistanceMeters>NAN</DistanceMeters>
          </Trackpoint>
          <Trackpoint>
            <Time>2021-08-09T13:28:00.000Z</Time>
            <Position>
              <LatitudeDegrees>43.0958433263003826141357421875</LatitudeDegrees>
              <LongitudeDegrees>-1.7623945511877536773681640625</LongitudeDegrees>
            </Position>
            <AltitudeMeters>575.5999755859375</AltitudeMeters>
            <DistanceMeters>NAN</DistanceMeters>
          </Trackpoint>
          <Trackpoint>
            <Time>2021-08-09T13:28:01.000Z</Time>
            <Position>
              <LatitudeDegrees>43.095877356827259063720703125</LatitudeDegrees>
              <LongitudeDegrees>-1.76227058283984661102294921875</LongitudeDegrees>
            </Position>
            <AltitudeMeters>574.79998779296875</AltitudeMeters>
            <DistanceMeters>NAN</DistanceMeters>
          </Trackpoint>
          <Trackpoint>
            <Time>2021-08-09T13:28:03.000Z</Time>
            <Position>
              <LatitudeDegrees>43.095947764813899993896484375</LatitudeDegrees>
              <LongitudeDegrees>-1.7620289325714111328125</LongitudeDegrees>
            </Position>
            <AltitudeMeters>573.79998779296875</AltitudeMeters>
            <DistanceMeters>NAN</DistanceMeters>
          </Trackpoint>
          <Trackpoint>
            <Time>2021-08-09T13:28:04.000Z</Time>
            <Position>
              <LatitudeDegrees>43.0959750898182392120361328125</LatitudeDegrees>
              <LongitudeDegrees>-1.761935055255889892578125</LongitudeDegrees>
            </Position>
            <AltitudeMeters>573</AltitudeMeters>
            <DistanceMeters>NAN</DistanceMeters>
          </Trackpoint>
          <Trackpoint>
            <Time>2021-08-09T13:28:05.000Z</Time>
            <Position>
              <LatitudeDegrees>43.096005432307720184326171875</LatitudeDegrees>
              <LongitudeDegrees>-1.761814020574092864990234375</LongitudeDegrees>
            </Position>
            <AltitudeMeters>572.5999755859375</AltitudeMeters>
            <DistanceMeters>NAN</DistanceMeters>
          </Trackpoint>
          <Trackpoint>
            <Time>2021-08-09T13:28:06.000Z</Time>
            <Position>
              <LatitudeDegrees>43.0960424803197383880615234375</LatitudeDegrees>
              <LongitudeDegrees>-1.76166725344955921173095703125</LongitudeDegrees>
            </Position>
            <AltitudeMeters>571.79998779296875</AltitudeMeters>
            <DistanceMeters>NAN</DistanceMeters>
          </Trackpoint>
          <Trackpoint>
            <Time>2021-08-09T13:28:07.000Z</Time>
            <Position>
              <LatitudeDegrees>43.0960755050182342529296875</LatitudeDegrees>
              <LongitudeDegrees>-1.76154923625290393829345703125</LongitudeDegrees>
            </Position>
            <AltitudeMeters>571.5999755859375</AltitudeMeters>
            <DistanceMeters>NAN</DistanceMeters>
          </Trackpoint>
          <Trackpoint>
            <Time>2021-08-09T13:28:08.000Z</Time>
            <Position>
              <LatitudeDegrees>43.0961130559444427490234375</LatitudeDegrees>
              <LongitudeDegrees>-1.76143071614205837249755859375</LongitudeDegrees>
            </Position>
            <AltitudeMeters>571.20001220703125</AltitudeMeters>
            <DistanceMeters>NAN</DistanceMeters>
          </Trackpoint>
          <Trackpoint>
            <Time>2021-08-09T13:28:09.000Z</Time>
            <Position>
              <LatitudeDegrees>43.09614934958517551422119140625</LatitudeDegrees>
              <LongitudeDegrees>-1.761307753622531890869140625</LongitudeDegrees>
            </Position>
            <AltitudeMeters>570.5999755859375</AltitudeMeters>
            <DistanceMeters>NAN</DistanceMeters>
          </Trackpoint>
          <Trackpoint>
            <Time>2021-08-09T13:28:11.000Z</Time>
            <Position>
              <LatitudeDegrees>43.096206597983837127685546875</LatitudeDegrees>
              <LongitudeDegrees>-1.76106895320117473602294921875</LongitudeDegrees>
            </Position>
            <AltitudeMeters>570</AltitudeMeters>
            <DistanceMeters>NAN</DistanceMeters>
          </Trackpoint>
          <Trackpoint>
            <Time>2021-08-09T13:28:13.000Z</Time>
            <Position>
              <LatitudeDegrees>43.0962537042796611785888671875</LatitudeDegrees>
              <LongitudeDegrees>-1.760831661522388458251953125</LongitudeDegrees>
            </Position>
            <AltitudeMeters>569.20001220703125</AltitudeMeters>
            <DistanceMeters>NAN</DistanceMeters>
          </Trackpoint>
          <Trackpoint>
            <Time>2021-08-09T13:28:14.000Z</Time>
            <Position>
              <LatitudeDegrees>43.0962718091905117034912109375</LatitudeDegrees>
              <LongitudeDegrees>-1.76073250360786914825439453125</LongitudeDegrees>
            </Position>
            <AltitudeMeters>568.79998779296875</AltitudeMeters>
            <DistanceMeters>NAN</DistanceMeters>
          </Trackpoint>
          <Trackpoint>
            <Time>2021-08-09T13:28:16.000Z</Time>
            <Position>
              <LatitudeDegrees>43.09631614945828914642333984375</LatitudeDegrees>
              <LongitudeDegrees>-1.7604613490402698516845703125</LongitudeDegrees>
            </Position>
            <AltitudeMeters>567.5999755859375</AltitudeMeters>
            <DistanceMeters>NAN</DistanceMeters>
          </Trackpoint>
          <Trackpoint>
            <Time>2021-08-09T13:28:17.000Z</Time>
            <Position>
              <LatitudeDegrees>43.09632855467498302459716796875</LatitudeDegrees>
              <LongitudeDegrees>-1.76033847033977508544921875</LongitudeDegrees>
            </Position>
            <AltitudeMeters>567.4000244140625</AltitudeMeters>
            <DistanceMeters>NAN</DistanceMeters>
          </Trackpoint>
          <Trackpoint>
            <Time>2021-08-09T13:28:19.000Z</Time>
            <Position>
              <LatitudeDegrees>43.09634548611938953399658203125</LatitudeDegrees>
              <LongitudeDegrees>-1.7600992508232593536376953125</LongitudeDegrees>
            </Position>
            <AltitudeMeters>566.5999755859375</AltitudeMeters>
            <DistanceMeters>NAN</DistanceMeters>
          </Trackpoint>
          <Trackpoint>
            <Time>2021-08-09T13:28:20.000Z</Time>
            <Position>
              <LatitudeDegrees>43.09634582139551639556884765625</LatitudeDegrees>
              <LongitudeDegrees>-1.76000394858419895172119140625</LongitudeDegrees>
            </Position>
            <AltitudeMeters>566</AltitudeMeters>
            <DistanceMeters>NAN</DistanceMeters>
          </Trackpoint>
          <Trackpoint>
            <Time>2021-08-09T13:28:22.000Z</Time>
            <Position>
              <LatitudeDegrees>43.09635051526129245758056640625</LatitudeDegrees>
              <LongitudeDegrees>-1.7597388289868831634521484375</LongitudeDegrees>
            </Position>
            <AltitudeMeters>565.4000244140625</AltitudeMeters>
            <DistanceMeters>NAN</DistanceMeters>
          </Trackpoint>
          <Trackpoint>
            <Time>2021-08-09T13:28:24.000Z</Time>
            <Position>
              <LatitudeDegrees>43.0963244475424289703369140625</LatitudeDegrees>
              <LongitudeDegrees>-1.759512685239315032958984375</LongitudeDegrees>
            </Position>
            <AltitudeMeters>564.79998779296875</AltitudeMeters>
            <DistanceMeters>NAN</DistanceMeters>
          </Trackpoint>
          <Trackpoint>
            <Time>2021-08-09T13:28:26.000Z</Time>
            <Position>
              <LatitudeDegrees>43.09627189300954341888427734375</LatitudeDegrees>
              <LongitudeDegrees>-1.759267263114452362060546875</LongitudeDegrees>
            </Position>
            <AltitudeMeters>564.4000244140625</AltitudeMeters>
            <DistanceMeters>NAN</DistanceMeters>
          </Trackpoint>
          <Trackpoint>
            <Time>2021-08-09T13:28:27.000Z</Time>
            <Position>
              <LatitudeDegrees>43.0962409637868404388427734375</LatitudeDegrees>
              <LongitudeDegrees>-1.7591303028166294097900390625</LongitudeDegrees>
            </Position>
            <AltitudeMeters>563.79998779296875</AltitudeMeters>
            <DistanceMeters>NAN</DistanceMeters>
          </Trackpoint>
          <Trackpoint>
            <Time>2021-08-09T13:28:28.000Z</Time>
            <Position>
              <LatitudeDegrees>43.096210621297359466552734375</LatitudeDegrees>
              <LongitudeDegrees>-1.7590181529521942138671875</LongitudeDegrees>
            </Position>
            <AltitudeMeters>563.5999755859375</AltitudeMeters>
            <DistanceMeters>NAN</DistanceMeters>
          </Trackpoint>
          <Trackpoint>
            <Time>2021-08-09T13:28:29.000Z</Time>
            <Position>
              <LatitudeDegrees>43.096168041229248046875</LatitudeDegrees>
              <LongitudeDegrees>-1.75890239886939525604248046875</LongitudeDegrees>
            </Position>
            <AltitudeMeters>563.20001220703125</AltitudeMeters>
            <DistanceMeters>NAN</DistanceMeters>
          </Trackpoint>
          <Trackpoint>
            <Time>2021-08-09T13:28:30.000Z</Time>
            <Position>
              <LatitudeDegrees>43.0961554683744907379150390625</LatitudeDegrees>
              <LongitudeDegrees>-1.7588077671825885772705078125</LongitudeDegrees>
            </Position>
            <AltitudeMeters>563.20001220703125</AltitudeMeters>
            <DistanceMeters>NAN</DistanceMeters>
          </Trackpoint>
          <Trackpoint>
            <Time>2021-08-09T13:28:31.000Z</Time>
            <Position>
              <LatitudeDegrees>43.09615454636514186859130859375</LatitudeDegrees>
              <LongitudeDegrees>-1.75869653932750225067138671875</LongitudeDegrees>
            </Position>
            <AltitudeMeters>562.79998779296875</AltitudeMeters>
            <DistanceMeters>NAN</DistanceMeters>
          </Trackpoint>
          <Trackpoint>
            <Time>2021-08-09T13:28:32.000Z</Time>
            <Position>
              <LatitudeDegrees>43.0961786024272441864013671875</LatitudeDegrees>
              <LongitudeDegrees>-1.75856159068644046783447265625</LongitudeDegrees>
            </Position>
            <AltitudeMeters>562.4000244140625</AltitudeMeters>
            <DistanceMeters>NAN</DistanceMeters>
          </Trackpoint>
          <Trackpoint>
            <Time>2021-08-09T13:28:33.000Z</Time>
            <Position>
              <LatitudeDegrees>43.09620492160320281982421875</LatitudeDegrees>
              <LongitudeDegrees>-1.75847726874053478240966796875</LongitudeDegrees>
            </Position>
            <AltitudeMeters>562.4000244140625</AltitudeMeters>
            <DistanceMeters>NAN</DistanceMeters>
          </Trackpoint>
          <Trackpoint>
            <Time>2021-08-09T13:28:34.000Z</Time>
            <Position>
              <LatitudeDegrees>43.09624222107231616973876953125</LatitudeDegrees>
              <LongitudeDegrees>-1.75837651826441287994384765625</LongitudeDegrees>
            </Position>
            <AltitudeMeters>562</AltitudeMeters>
            <DistanceMeters>NAN</DistanceMeters>
          </Trackpoint>
          <Trackpoint>
            <Time>2021-08-09T13:28:35.000Z</Time>
            <Position>
              <LatitudeDegrees>43.09629284776747226715087890625</LatitudeDegrees>
              <LongitudeDegrees>-1.75827593542635440826416015625</LongitudeDegrees>
            </Position>
            <AltitudeMeters>562</AltitudeMeters>
            <DistanceMeters>NAN</DistanceMeters>
          </Trackpoint>
          <Trackpoint>
            <Time>2021-08-09T13:28:36.000Z</Time>
            <Position>
              <LatitudeDegrees>43.09632293879985809326171875</LatitudeDegrees>
              <LongitudeDegrees>-1.75817887298762798309326171875</LongitudeDegrees>
            </Position>
            <AltitudeMeters>561.79998779296875</AltitudeMeters>
            <DistanceMeters>NAN</DistanceMeters>
          </Trackpoint>
          <Trackpoint>
            <Time>2021-08-09T13:28:37.000Z</Time>
            <Position>
              <LatitudeDegrees>43.0963435582816600799560546875</LatitudeDegrees>
              <LongitudeDegrees>-1.7580792121589183807373046875</LongitudeDegrees>
            </Position>
            <AltitudeMeters>561.79998779296875</AltitudeMeters>
            <DistanceMeters>NAN</DistanceMeters>
          </Trackpoint>
          <Trackpoint>
            <Time>2021-08-09T13:28:38.000Z</Time>
            <Position>
              <LatitudeDegrees>43.096366189420223236083984375</LatitudeDegrees>
              <LongitudeDegrees>-1.7579806409776210784912109375</LongitudeDegrees>
            </Position>
            <AltitudeMeters>561.4000244140625</AltitudeMeters>
            <DistanceMeters>NAN</DistanceMeters>
          </Trackpoint>
          <Trackpoint>
            <Time>2021-08-09T13:28:39.000Z</Time>
            <Position>
              <LatitudeDegrees>43.09638890437781810760498046875</LatitudeDegrees>
              <LongitudeDegrees>-1.75787695683538913726806640625</LongitudeDegrees>
            </Position>
            <AltitudeMeters>561.20001220703125</AltitudeMeters>
            <DistanceMeters>NAN</DistanceMeters>
          </Trackpoint>
          <Trackpoint>
            <Time>2021-08-09T13:28:40.000Z</Time>
            <Position>
              <LatitudeDegrees>43.0964015610516071319580078125</LatitudeDegrees>
              <LongitudeDegrees>-1.7578056268393993377685546875</LongitudeDegrees>
            </Position>
            <AltitudeMeters>561.20001220703125</AltitudeMeters>
            <DistanceMeters>NAN</DistanceMeters>
          </Trackpoint>
          <Trackpoint>
            <Time>2021-08-09T13:28:41.000Z</Time>
            <Position>
              <LatitudeDegrees>43.0964246951043605804443359375</LatitudeDegrees>
              <LongitudeDegrees>-1.75771468318998813629150390625</LongitudeDegrees>
            </Position>
            <AltitudeMeters>561.20001220703125</AltitudeMeters>
            <DistanceMeters>NAN</DistanceMeters>
          </Trackpoint>
          <Trackpoint>
            <Time>2021-08-09T13:28:42.000Z</Time>
            <Position>
              <LatitudeDegrees>43.0964478291571140289306640625</LatitudeDegrees>
              <LongitudeDegrees>-1.75762315280735492706298828125</LongitudeDegrees>
            </Position>
            <AltitudeMeters>561.20001220703125</AltitudeMeters>
            <DistanceMeters>NAN</DistanceMeters>
          </Trackpoint>
          <Trackpoint>
            <Time>2021-08-09T13:28:43.000Z</Time>
            <Position>
              <LatitudeDegrees>43.0964639224112033843994140625</LatitudeDegrees>
              <LongitudeDegrees>-1.757516451179981231689453125</LongitudeDegrees>
            </Position>
            <AltitudeMeters>560.79998779296875</AltitudeMeters>
            <DistanceMeters>NAN</DistanceMeters>
          </Trackpoint>
          <Trackpoint>
            <Time>2021-08-09T13:28:44.000Z</Time>
            <Position>
              <LatitudeDegrees>43.09647389687597751617431640625</LatitudeDegrees>
              <LongitudeDegrees>-1.757427267730236053466796875</LongitudeDegrees>
            </Position>
            <AltitudeMeters>560.5999755859375</AltitudeMeters>
            <DistanceMeters>NAN</DistanceMeters>
          </Trackpoint>
          <Trackpoint>
            <Time>2021-08-09T13:28:45.000Z</Time>
            <Position>
              <LatitudeDegrees>43.09648127295076847076416015625</LatitudeDegrees>
              <LongitudeDegrees>-1.75733800046145915985107421875</LongitudeDegrees>
            </Position>
            <AltitudeMeters>560.4000244140625</AltitudeMeters>
            <DistanceMeters>NAN</DistanceMeters>
          </Trackpoint>
          <Trackpoint>
            <Time>2021-08-09T13:28:46.000Z</Time>
            <Position>
              <LatitudeDegrees>43.0964867211878299713134765625</LatitudeDegrees>
              <LongitudeDegrees>-1.75726608373224735260009765625</LongitudeDegrees>
            </Position>
            <AltitudeMeters>560.20001220703125</AltitudeMeters>
            <DistanceMeters>NAN</DistanceMeters>
          </Trackpoint>
          <Trackpoint>
            <Time>2021-08-09T13:28:47.000Z</Time>
            <Position>
              <LatitudeDegrees>43.09649300761520862579345703125</LatitudeDegrees>
              <LongitudeDegrees>-1.757176481187343597412109375</LongitudeDegrees>
            </Position>
            <AltitudeMeters>560</AltitudeMeters>
            <DistanceMeters>NAN</DistanceMeters>
          </Trackpoint>
          <Trackpoint>
            <Time>2021-08-09T13:28:48.000Z</Time>
            <Position>
              <LatitudeDegrees>43.09649527072906494140625</LatitudeDegrees>
              <LongitudeDegrees>-1.75707296468317508697509765625</LongitudeDegrees>
            </Position>
            <AltitudeMeters>559.79998779296875</AltitudeMeters>
            <DistanceMeters>NAN</DistanceMeters>
          </Trackpoint>
          <Trackpoint>
            <Time>2021-08-09T13:28:49.000Z</Time>
            <Position>
              <LatitudeDegrees>43.09649149887263774871826171875</LatitudeDegrees>
              <LongitudeDegrees>-1.756990067660808563232421875</LongitudeDegrees>
            </Position>
            <AltitudeMeters>559.79998779296875</AltitudeMeters>
            <DistanceMeters>NAN</DistanceMeters>
          </Trackpoint>
          <Trackpoint>
            <Time>2021-08-09T13:28:50.000Z</Time>
            <Position>
              <LatitudeDegrees>43.0964890681207180023193359375</LatitudeDegrees>
              <LongitudeDegrees>-1.75692309625446796417236328125</LongitudeDegrees>
            </Position>
            <AltitudeMeters>559.5999755859375</AltitudeMeters>
            <DistanceMeters>NAN</DistanceMeters>
          </Trackpoint>
          <Trackpoint>
            <Time>2021-08-09T13:28:51.000Z</Time>
            <Position>
              <LatitudeDegrees>43.0964793451130390167236328125</LatitudeDegrees>
              <LongitudeDegrees>-1.75682611763477325439453125</LongitudeDegrees>
            </Position>
            <AltitudeMeters>559.4000244140625</AltitudeMeters>
            <DistanceMeters>NAN</DistanceMeters>
          </Trackpoint>
          <Trackpoint>
            <Time>2021-08-09T13:28:52.000Z</Time>
            <Position>
              <LatitudeDegrees>43.09647423215210437774658203125</LatitudeDegrees>
              <LongitudeDegrees>-1.7567605711519718170166015625</LongitudeDegrees>
            </Position>
            <AltitudeMeters>559.4000244140625</AltitudeMeters>
            <DistanceMeters>NAN</DistanceMeters>
          </Trackpoint>
          <Trackpoint>
            <Time>2021-08-09T13:28:53.000Z</Time>
            <Position>
              <LatitudeDegrees>43.0964692868292331695556640625</LatitudeDegrees>
              <LongitudeDegrees>-1.75666518509387969970703125</LongitudeDegrees>
            </Position>
            <AltitudeMeters>559.20001220703125</AltitudeMeters>
            <DistanceMeters>NAN</DistanceMeters>
          </Trackpoint>
          <Trackpoint>
            <Time>2021-08-09T13:28:54.000Z</Time>
            <Position>
              <LatitudeDegrees>43.09646719135344028472900390625</LatitudeDegrees>
              <LongitudeDegrees>-1.7565879039466381072998046875</LongitudeDegrees>
            </Position>
            <AltitudeMeters>559.20001220703125</AltitudeMeters>
            <DistanceMeters>NAN</DistanceMeters>
          </Trackpoint>
          <Trackpoint>
            <Time>2021-08-09T13:28:55.000Z</Time>
            <Position>
              <LatitudeDegrees>43.096460066735744476318359375</LatitudeDegrees>
              <LongitudeDegrees>-1.75652847625315189361572265625</LongitudeDegrees>
            </Position>
            <AltitudeMeters>559</AltitudeMeters>
            <DistanceMeters>NAN</DistanceMeters>
          </Trackpoint>
          <Trackpoint>
            <Time>2021-08-09T13:28:56.000Z</Time>
            <Position>
              <LatitudeDegrees>43.09645495377480983734130859375</LatitudeDegrees>
              <LongitudeDegrees>-1.75645153038203716278076171875</LongitudeDegrees>
            </Position>
            <AltitudeMeters>558.79998779296875</AltitudeMeters>
            <DistanceMeters>NAN</DistanceMeters>
          </Trackpoint>
          <Trackpoint>
            <Time>2021-08-09T13:28:57.000Z</Time>
            <Position>
              <LatitudeDegrees>43.0964510142803192138671875</LatitudeDegrees>
              <LongitudeDegrees>-1.75636343657970428466796875</LongitudeDegrees>
            </Position>
            <AltitudeMeters>558.79998779296875</AltitudeMeters>
            <DistanceMeters>NAN</DistanceMeters>
          </Trackpoint>
          <Trackpoint>
            <Time>2021-08-09T13:28:59.000Z</Time>
            <Position>
              <LatitudeDegrees>43.09645679779350757598876953125</LatitudeDegrees>
              <LongitudeDegrees>-1.7562194354832172393798828125</LongitudeDegrees>
            </Position>
            <AltitudeMeters>558.5999755859375</AltitudeMeters>
            <DistanceMeters>NAN</DistanceMeters>
          </Trackpoint>
          <Trackpoint>
            <Time>2021-08-09T13:29:00.000Z</Time>
            <Position>
              <LatitudeDegrees>43.096467442810535430908203125</LatitudeDegrees>
              <LongitudeDegrees>-1.7561500333249568939208984375</LongitudeDegrees>
            </Position>
            <AltitudeMeters>558.4000244140625</AltitudeMeters>
            <DistanceMeters>NAN</DistanceMeters>
          </Trackpoint>
          <Trackpoint>
            <Time>2021-08-09T13:29:01.000Z</Time>
            <Position>
              <LatitudeDegrees>43.09648093767464160919189453125</LatitudeDegrees>
              <LongitudeDegrees>-1.75609546713531017303466796875</LongitudeDegrees>
            </Position>
            <AltitudeMeters>558.4000244140625</AltitudeMeters>
            <DistanceMeters>NAN</DistanceMeters>
          </Trackpoint>
          <Trackpoint>
            <Time>2021-08-09T13:29:02.000Z</Time>
            <Position>
              <LatitudeDegrees>43.09650155715644359588623046875</LatitudeDegrees>
              <LongitudeDegrees>-1.75603042356669902801513671875</LongitudeDegrees>
            </Position>
            <AltitudeMeters>558.4000244140625</AltitudeMeters>
            <DistanceMeters>NAN</DistanceMeters>
          </Trackpoint>
          <Trackpoint>
            <Time>2021-08-09T13:29:03.000Z</Time>
            <Position>
              <LatitudeDegrees>43.0965306423604488372802734375</LatitudeDegrees>
              <LongitudeDegrees>-1.75595297478139400482177734375</LongitudeDegrees>
            </Position>
            <AltitudeMeters>558.4000244140625</AltitudeMeters>
            <DistanceMeters>NAN</DistanceMeters>
          </Trackpoint>
          <Trackpoint>
            <Time>2021-08-09T13:29:04.000Z</Time>
            <Position>
              <LatitudeDegrees>43.09655536897480487823486328125</LatitudeDegrees>
              <LongitudeDegrees>-1.75588960759341716766357421875</LongitudeDegrees>
            </Position>
            <AltitudeMeters>558.4000244140625</AltitudeMeters>
            <DistanceMeters>NAN</DistanceMeters>
          </Trackpoint>
          <Trackpoint>
            <Time>2021-08-09T13:29:05.000Z</Time>
            <Position>
              <LatitudeDegrees>43.09657431207597255706787109375</LatitudeDegrees>
              <LongitudeDegrees>-1.755842082202434539794921875</LongitudeDegrees>
            </Position>
            <AltitudeMeters>558.20001220703125</AltitudeMeters>
            <DistanceMeters>NAN</DistanceMeters>
          </Trackpoint>
          <Trackpoint>
            <Time>2021-08-09T13:29:06.000Z</Time>
            <Position>
              <LatitudeDegrees>43.0965993739664554595947265625</LatitudeDegrees>
              <LongitudeDegrees>-1.75578583963215351104736328125</LongitudeDegrees>
            </Position>
            <AltitudeMeters>558.20001220703125</AltitudeMeters>
            <DistanceMeters>NAN</DistanceMeters>
          </Trackpoint>
          <Trackpoint>
            <Time>2021-08-09T13:29:07.000Z</Time>
            <Position>
              <LatitudeDegrees>43.096626363694667816162109375</LatitudeDegrees>
              <LongitudeDegrees>-1.75572012551128864288330078125</LongitudeDegrees>
            </Position>
            <AltitudeMeters>558</AltitudeMeters>
            <DistanceMeters>NAN</DistanceMeters>
          </Trackpoint>
          <Trackpoint>
            <Time>2021-08-09T13:29:08.000Z</Time>
            <Position>
              <LatitudeDegrees>43.0966456420719623565673828125</LatitudeDegrees>
              <LongitudeDegrees>-1.755678467452526092529296875</LongitudeDegrees>
            </Position>
            <AltitudeMeters>558</AltitudeMeters>
            <DistanceMeters>NAN</DistanceMeters>
          </Trackpoint>
          <Trackpoint>
            <Time>2021-08-09T13:29:09.000Z</Time>
            <Position>
              <LatitudeDegrees>43.0966711230576038360595703125</LatitudeDegrees>
              <LongitudeDegrees>-1.75561199896037578582763671875</LongitudeDegrees>
            </Position>
            <AltitudeMeters>558</AltitudeMeters>
            <DistanceMeters>NAN</DistanceMeters>
          </Trackpoint>
          <Trackpoint>
            <Time>2021-08-09T13:29:10.000Z</Time>
            <Position>
              <LatitudeDegrees>43.0966892279684543609619140625</LatitudeDegrees>
              <LongitudeDegrees>-1.75555751658976078033447265625</LongitudeDegrees>
            </Position>
            <AltitudeMeters>558</AltitudeMeters>
            <DistanceMeters>NAN</DistanceMeters>
          </Trackpoint>
          <Trackpoint>
            <Time>2021-08-09T13:29:11.000Z</Time>
            <Position>
              <LatitudeDegrees>43.0967033095657825469970703125</LatitudeDegrees>
              <LongitudeDegrees>-1.7555113323032855987548828125</LongitudeDegrees>
            </Position>
            <AltitudeMeters>557.79998779296875</AltitudeMeters>
            <DistanceMeters>NAN</DistanceMeters>
          </Trackpoint>
          <Trackpoint>
            <Time>2021-08-09T13:29:12.000Z</Time>
            <Position>
              <LatitudeDegrees>43.09671831317245960235595703125</LatitudeDegrees>
              <LongitudeDegrees>-1.7554519884288311004638671875</LongitudeDegrees>
            </Position>
            <AltitudeMeters>557.79998779296875</AltitudeMeters>
            <DistanceMeters>NAN</DistanceMeters>
          </Trackpoint>
          <Trackpoint>
            <Time>2021-08-09T13:29:13.000Z</Time>
            <Position>
              <LatitudeDegrees>43.0967294611036777496337890625</LatitudeDegrees>
              <LongitudeDegrees>-1.7553919740021228790283203125</LongitudeDegrees>
            </Position>
            <AltitudeMeters>557.79998779296875</AltitudeMeters>
            <DistanceMeters>NAN</DistanceMeters>
          </Trackpoint>
          <Trackpoint>
            <Time>2021-08-09T13:29:14.000Z</Time>
            <Position>
              <LatitudeDegrees>43.0967388488352298736572265625</LatitudeDegrees>
              <LongitudeDegrees>-1.75533254630863666534423828125</LongitudeDegrees>
            </Position>
            <AltitudeMeters>557.5999755859375</AltitudeMeters>
            <DistanceMeters>NAN</DistanceMeters>
          </Trackpoint>
          <Trackpoint>
            <Time>2021-08-09T13:29:15.000Z</Time>
            <Position>
              <LatitudeDegrees>43.0967482365667819976806640625</LatitudeDegrees>
              <LongitudeDegrees>-1.7552605457603931427001953125</LongitudeDegrees>
            </Position>
            <AltitudeMeters>557.5999755859375</AltitudeMeters>
            <DistanceMeters>NAN</DistanceMeters>
          </Trackpoint>
          <Trackpoint>
            <Time>2021-08-09T13:29:16.000Z</Time>
            <Position>
              <LatitudeDegrees>43.09675049968063831329345703125</LatitudeDegrees>
              <LongitudeDegrees>-1.7551968432962894439697265625</LongitudeDegrees>
            </Position>
            <AltitudeMeters>557.4000244140625</AltitudeMeters>
            <DistanceMeters>NAN</DistanceMeters>
          </Trackpoint>
          <Trackpoint>
            <Time>2021-08-09T13:29:17.000Z</Time>
            <Position>
              <LatitudeDegrees>43.09675251133739948272705078125</LatitudeDegrees>
              <LongitudeDegrees>-1.7551438696682453155517578125</LongitudeDegrees>
            </Position>
            <AltitudeMeters>557.4000244140625</AltitudeMeters>
            <DistanceMeters>NAN</DistanceMeters>
          </Trackpoint>
          <Trackpoint>
            <Time>2021-08-09T13:29:20.000Z</Time>
            <Position>
              <LatitudeDegrees>43.0967391841113567352294921875</LatitudeDegrees>
              <LongitudeDegrees>-1.7549520917236804962158203125</LongitudeDegrees>
            </Position>
            <AltitudeMeters>557.20001220703125</AltitudeMeters>
            <DistanceMeters>NAN</DistanceMeters>
          </Trackpoint>
          <Trackpoint>
            <Time>2021-08-09T13:29:22.000Z</Time>
            <Position>
              <LatitudeDegrees>43.09673138894140720367431640625</LatitudeDegrees>
              <LongitudeDegrees>-1.75479928962886333465576171875</LongitudeDegrees>
            </Position>
            <AltitudeMeters>557.20001220703125</AltitudeMeters>
            <DistanceMeters>NAN</DistanceMeters>
          </Trackpoint>
          <Trackpoint>
            <Time>2021-08-09T13:29:29.000Z</Time>
            <Position>
              <LatitudeDegrees>43.096700794994831085205078125</LatitudeDegrees>
              <LongitudeDegrees>-1.7543224431574344635009765625</LongitudeDegrees>
            </Position>
            <AltitudeMeters>556.5999755859375</AltitudeMeters>
            <DistanceMeters>NAN</DistanceMeters>
          </Trackpoint>
          <Trackpoint>
            <Time>2021-08-09T13:29:32.000Z</Time>
            <Position>
              <LatitudeDegrees>43.09669903479516506195068359375</LatitudeDegrees>
              <LongitudeDegrees>-1.754099987447261810302734375</LongitudeDegrees>
            </Position>
            <AltitudeMeters>556.20001220703125</AltitudeMeters>
            <DistanceMeters>NAN</DistanceMeters>
          </Trackpoint>
          <Trackpoint>
            <Time>2021-08-09T13:29:37.000Z</Time>
            <Position>
              <LatitudeDegrees>43.09667975641787052154541015625</LatitudeDegrees>
              <LongitudeDegrees>-1.75371450372040271759033203125</LongitudeDegrees>
            </Position>
            <AltitudeMeters>555.4000244140625</AltitudeMeters>
            <DistanceMeters>NAN</DistanceMeters>
          </Trackpoint>
          <Trackpoint>
            <Time>2021-08-09T13:29:39.000Z</Time>
            <Position>
              <LatitudeDegrees>43.09662594459950923919677734375</LatitudeDegrees>
              <LongitudeDegrees>-1.7535868473351001739501953125</LongitudeDegrees>
            </Position>
            <AltitudeMeters>555</AltitudeMeters>
            <DistanceMeters>NAN</DistanceMeters>
          </Trackpoint>
          <Trackpoint>
            <Time>2021-08-09T13:29:40.000Z</Time>
            <Position>
              <LatitudeDegrees>43.09658504091203212738037109375</LatitudeDegrees>
              <LongitudeDegrees>-1.75353814847767353057861328125</LongitudeDegrees>
            </Position>
            <AltitudeMeters>554.79998779296875</AltitudeMeters>
            <DistanceMeters>NAN</DistanceMeters>
          </Trackpoint>
          <Trackpoint>
            <Time>2021-08-09T13:29:41.000Z</Time>
            <Position>
              <LatitudeDegrees>43.096537850797176361083984375</LatitudeDegrees>
              <LongitudeDegrees>-1.753507554531097412109375</LongitudeDegrees>
            </Position>
            <AltitudeMeters>554.79998779296875</AltitudeMeters>
            <DistanceMeters>NAN</DistanceMeters>
          </Trackpoint>
          <Trackpoint>
            <Time>2021-08-09T13:29:43.000Z</Time>
            <Position>
              <LatitudeDegrees>43.09642754495143890380859375</LatitudeDegrees>
              <LongitudeDegrees>-1.753493137657642364501953125</LongitudeDegrees>
            </Position>
            <AltitudeMeters>554.4000244140625</AltitudeMeters>
            <DistanceMeters>NAN</DistanceMeters>
          </Trackpoint>
          <Trackpoint>
            <Time>2021-08-09T13:29:44.000Z</Time>
            <Position>
              <LatitudeDegrees>43.09636996127665042877197265625</LatitudeDegrees>
              <LongitudeDegrees>-1.753499843180179595947265625</LongitudeDegrees>
            </Position>
            <AltitudeMeters>554.20001220703125</AltitudeMeters>
            <DistanceMeters>NAN</DistanceMeters>
          </Trackpoint>
          <Trackpoint>
            <Time>2021-08-09T13:29:45.000Z</Time>
            <Position>
              <LatitudeDegrees>43.09631581418216228485107421875</LatitudeDegrees>
              <LongitudeDegrees>-1.75351216457784175872802734375</LongitudeDegrees>
            </Position>
            <AltitudeMeters>554.20001220703125</AltitudeMeters>
            <DistanceMeters>NAN</DistanceMeters>
          </Trackpoint>
          <Trackpoint>
            <Time>2021-08-09T13:29:46.000Z</Time>
            <Position>
              <LatitudeDegrees>43.0962644331157207489013671875</LatitudeDegrees>
              <LongitudeDegrees>-1.75352943129837512969970703125</LongitudeDegrees>
            </Position>
            <AltitudeMeters>554</AltitudeMeters>
            <DistanceMeters>NAN</DistanceMeters>
          </Trackpoint>
          <Trackpoint>
            <Time>2021-08-09T13:29:47.000Z</Time>
            <Position>
              <LatitudeDegrees>43.096214644610881805419921875</LatitudeDegrees>
              <LongitudeDegrees>-1.7535469494760036468505859375</LongitudeDegrees>
            </Position>
            <AltitudeMeters>553.79998779296875</AltitudeMeters>
            <DistanceMeters>NAN</DistanceMeters>
          </Trackpoint>
          <Trackpoint>
            <Time>2021-08-09T13:29:48.000Z</Time>
            <Position>
              <LatitudeDegrees>43.09616996906697750091552734375</LatitudeDegrees>
              <LongitudeDegrees>-1.75356077961623668670654296875</LongitudeDegrees>
            </Position>
            <AltitudeMeters>553.5999755859375</AltitudeMeters>
            <DistanceMeters>NAN</DistanceMeters>
          </Trackpoint>
          <Trackpoint>
            <Time>2021-08-09T13:29:49.000Z</Time>
            <Position>
              <LatitudeDegrees>43.096128813922405242919921875</LatitudeDegrees>
              <LongitudeDegrees>-1.75357536412775516510009765625</LongitudeDegrees>
            </Position>
            <AltitudeMeters>553.20001220703125</AltitudeMeters>
            <DistanceMeters>NAN</DistanceMeters>
          </Trackpoint>
          <Trackpoint>
            <Time>2021-08-09T13:29:50.000Z</Time>
            <Position>
              <LatitudeDegrees>43.09608967043459415435791015625</LatitudeDegrees>
              <LongitudeDegrees>-1.75358810462057590484619140625</LongitudeDegrees>
            </Position>
            <AltitudeMeters>553</AltitudeMeters>
            <DistanceMeters>NAN</DistanceMeters>
          </Trackpoint>
          <Trackpoint>
            <Time>2021-08-09T13:29:51.000Z</Time>
            <Position>
              <LatitudeDegrees>43.0960511974990367889404296875</LatitudeDegrees>
              <LongitudeDegrees>-1.7535995878279209136962890625</LongitudeDegrees>
            </Position>
            <AltitudeMeters>552.79998779296875</AltitudeMeters>
            <DistanceMeters>NAN</DistanceMeters>
          </Trackpoint>
          <Trackpoint>
            <Time>2021-08-09T13:29:52.000Z</Time>
            <Position>
              <LatitudeDegrees>43.0960159935057163238525390625</LatitudeDegrees>
              <LongitudeDegrees>-1.75360520370304584503173828125</LongitudeDegrees>
            </Position>
            <AltitudeMeters>552.5999755859375</AltitudeMeters>
            <DistanceMeters>NAN</DistanceMeters>
          </Trackpoint>
          <Trackpoint>
            <Time>2021-08-09T13:29:53.000Z</Time>
            <Position>
              <LatitudeDegrees>43.09598456136882305145263671875</LatitudeDegrees>
              <LongitudeDegrees>-1.7536062933504581451416015625</LongitudeDegrees>
            </Position>
            <AltitudeMeters>552.4000244140625</AltitudeMeters>
            <DistanceMeters>NAN</DistanceMeters>
          </Trackpoint>
          <Trackpoint>
            <Time>2021-08-09T13:29:54.000Z</Time>
            <Position>
              <LatitudeDegrees>43.0959589965641498565673828125</LatitudeDegrees>
              <LongitudeDegrees>-1.7536036111414432525634765625</LongitudeDegrees>
            </Position>
            <AltitudeMeters>552.4000244140625</AltitudeMeters>
            <DistanceMeters>NAN</DistanceMeters>
          </Trackpoint>
          <Trackpoint>
            <Time>2021-08-09T13:29:55.000Z</Time>
            <Position>
              <LatitudeDegrees>43.09593510814011096954345703125</LatitudeDegrees>
              <LongitudeDegrees>-1.75360143184661865234375</LongitudeDegrees>
            </Position>
            <AltitudeMeters>552.20001220703125</AltitudeMeters>
            <DistanceMeters>NAN</DistanceMeters>
          </Trackpoint>
          <Trackpoint>
            <Time>2021-08-09T13:29:56.000Z</Time>
            <Position>
              <LatitudeDegrees>43.095917589962482452392578125</LatitudeDegrees>
              <LongitudeDegrees>-1.75359833054244518280029296875</LongitudeDegrees>
            </Position>
            <AltitudeMeters>552</AltitudeMeters>
            <DistanceMeters>NAN</DistanceMeters>
          </Trackpoint>
          <Trackpoint>
            <Time>2021-08-09T13:29:57.000Z</Time>
            <Position>
              <LatitudeDegrees>43.0959050171077251434326171875</LatitudeDegrees>
              <LongitudeDegrees>-1.7535958997905254364013671875</LongitudeDegrees>
            </Position>
            <AltitudeMeters>552</AltitudeMeters>
            <DistanceMeters>NAN</DistanceMeters>
          </Trackpoint>
          <Trackpoint>
            <Time>2021-08-09T13:29:58.000Z</Time>
            <Position>
              <LatitudeDegrees>43.09589914977550506591796875</LatitudeDegrees>
              <LongitudeDegrees>-1.75359447486698627471923828125</LongitudeDegrees>
            </Position>
            <AltitudeMeters>551.79998779296875</AltitudeMeters>
            <DistanceMeters>NAN</DistanceMeters>
          </Trackpoint>
          <Trackpoint>
            <Time>2021-08-09T13:29:59.000Z</Time>
            <Position>
              <LatitudeDegrees>43.09589914977550506591796875</LatitudeDegrees>
              <LongitudeDegrees>-1.75359447486698627471923828125</LongitudeDegrees>
            </Position>
            <AltitudeMeters>551.79998779296875</AltitudeMeters>
            <DistanceMeters>NAN</DistanceMeters>
          </Trackpoint>
          <Trackpoint>
            <Time>2021-08-09T13:30:04.000Z</Time>
            <Position>
              <LatitudeDegrees>43.09589914977550506591796875</LatitudeDegrees>
              <LongitudeDegrees>-1.75359447486698627471923828125</LongitudeDegrees>
            </Position>
            <AltitudeMeters>551.5999755859375</AltitudeMeters>
            <DistanceMeters>NAN</DistanceMeters>
          </Trackpoint>
          <Trackpoint>
            <Time>2021-08-09T13:30:25.000Z</Time>
            <Position>
              <LatitudeDegrees>43.09589914977550506591796875</LatitudeDegrees>
              <LongitudeDegrees>-1.75359447486698627471923828125</LongitudeDegrees>
            </Position>
            <AltitudeMeters>552</AltitudeMeters>
            <DistanceMeters>NAN</DistanceMeters>
          </Trackpoint>
          <Trackpoint>
            <Time>2021-08-09T13:31:57.000Z</Time>
            <Position>
              <LatitudeDegrees>43.09589914977550506591796875</LatitudeDegrees>
              <LongitudeDegrees>-1.75359447486698627471923828125</LongitudeDegrees>
            </Position>
            <AltitudeMeters>552</AltitudeMeters>
            <DistanceMeters>NAN</DistanceMeters>
          </Trackpoint>
          <Trackpoint>
            <Time>2021-08-09T13:32:29.000Z</Time>
            <Position>
              <LatitudeDegrees>43.0958644486963748931884765625</LatitudeDegrees>
              <LongitudeDegrees>-1.75358642823994159698486328125</LongitudeDegrees>
            </Position>
            <AltitudeMeters>552.20001220703125</AltitudeMeters>
            <DistanceMeters>NAN</DistanceMeters>
          </Trackpoint>
          <Trackpoint>
            <Time>2021-08-09T13:32:30.000Z</Time>
            <Position>
              <LatitudeDegrees>43.09583402238786220550537109375</LatitudeDegrees>
              <LongitudeDegrees>-1.75356966443359851837158203125</LongitudeDegrees>
            </Position>
            <AltitudeMeters>552.20001220703125</AltitudeMeters>
            <DistanceMeters>NAN</DistanceMeters>
          </Trackpoint>
          <Trackpoint>
            <Time>2021-08-09T13:32:35.000Z</Time>
            <Position>
              <LatitudeDegrees>43.09565775096416473388671875</LatitudeDegrees>
              <LongitudeDegrees>-1.75347763113677501678466796875</LongitudeDegrees>
            </Position>
            <AltitudeMeters>551.79998779296875</AltitudeMeters>
            <DistanceMeters>NAN</DistanceMeters>
          </Trackpoint>
          <Trackpoint>
            <Time>2021-08-09T13:32:36.000Z</Time>
            <Position>
              <LatitudeDegrees>43.09561659581959247589111328125</LatitudeDegrees>
              <LongitudeDegrees>-1.753456927835941314697265625</LongitudeDegrees>
            </Position>
            <AltitudeMeters>551.79998779296875</AltitudeMeters>
            <DistanceMeters>NAN</DistanceMeters>
          </Trackpoint>
          <Trackpoint>
            <Time>2021-08-09T13:32:41.000Z</Time>
            <Position>
              <LatitudeDegrees>43.0954114906489849090576171875</LatitudeDegrees>
              <LongitudeDegrees>-1.7533417604863643646240234375</LongitudeDegrees>
            </Position>
            <AltitudeMeters>551.5999755859375</AltitudeMeters>
            <DistanceMeters>NAN</DistanceMeters>
          </Trackpoint>
          <Trackpoint>
            <Time>2021-08-09T13:32:42.000Z</Time>
            <Position>
              <LatitudeDegrees>43.09537268243730068206787109375</LatitudeDegrees>
              <LongitudeDegrees>-1.75331787206232547760009765625</LongitudeDegrees>
            </Position>
            <AltitudeMeters>551.5999755859375</AltitudeMeters>
            <DistanceMeters>NAN</DistanceMeters>
          </Trackpoint>
          <Trackpoint>
            <Time>2021-08-09T13:32:46.000Z</Time>
            <Position>
              <LatitudeDegrees>43.09520068578422069549560546875</LatitudeDegrees>
              <LongitudeDegrees>-1.753221563994884490966796875</LongitudeDegrees>
            </Position>
            <AltitudeMeters>551.5999755859375</AltitudeMeters>
            <DistanceMeters>NAN</DistanceMeters>
          </Trackpoint>
          <Trackpoint>
            <Time>2021-08-09T13:32:47.000Z</Time>
            <Position>
              <LatitudeDegrees>43.09515240602195262908935546875</LatitudeDegrees>
              <LongitudeDegrees>-1.75320454873144626617431640625</LongitudeDegrees>
            </Position>
            <AltitudeMeters>551.4000244140625</AltitudeMeters>
            <DistanceMeters>NAN</DistanceMeters>
          </Trackpoint>
          <Trackpoint>
            <Time>2021-08-09T13:32:49.000Z</Time>
            <Position>
              <LatitudeDegrees>43.0950436927378177642822265625</LatitudeDegrees>
              <LongitudeDegrees>-1.7531838454306125640869140625</LongitudeDegrees>
            </Position>
            <AltitudeMeters>551.20001220703125</AltitudeMeters>
            <DistanceMeters>NAN</DistanceMeters>
          </Trackpoint>
          <Trackpoint>
            <Time>2021-08-09T13:32:51.000Z</Time>
            <Position>
              <LatitudeDegrees>43.09493757784366607666015625</LatitudeDegrees>
              <LongitudeDegrees>-1.753203459084033966064453125</LongitudeDegrees>
            </Position>
            <AltitudeMeters>551</AltitudeMeters>
            <DistanceMeters>NAN</DistanceMeters>
          </Trackpoint>
          <Trackpoint>
            <Time>2021-08-09T13:32:55.000Z</Time>
            <Position>
              <LatitudeDegrees>43.09467094950377941131591796875</LatitudeDegrees>
              <LongitudeDegrees>-1.753325164318084716796875</LongitudeDegrees>
            </Position>
            <AltitudeMeters>550.20001220703125</AltitudeMeters>
            <DistanceMeters>NAN</DistanceMeters>
          </Trackpoint>
          <Trackpoint>
            <Time>2021-08-09T13:32:56.000Z</Time>
            <Position>
              <LatitudeDegrees>43.094597272574901580810546875</LatitudeDegrees>
              <LongitudeDegrees>-1.7533591948449611663818359375</LongitudeDegrees>
            </Position>
            <AltitudeMeters>550</AltitudeMeters>
            <DistanceMeters>NAN</DistanceMeters>
          </Trackpoint>
          <Trackpoint>
            <Time>2021-08-09T13:32:58.000Z</Time>
            <Position>
              <LatitudeDegrees>43.09444145299494266510009765625</LatitudeDegrees>
              <LongitudeDegrees>-1.75344795919954776763916015625</LongitudeDegrees>
            </Position>
            <AltitudeMeters>549</AltitudeMeters>
            <DistanceMeters>NAN</DistanceMeters>
          </Trackpoint>
          <Trackpoint>
            <Time>2021-08-09T13:32:59.000Z</Time>
            <Position>
              <LatitudeDegrees>43.094359226524829864501953125</LatitudeDegrees>
              <LongitudeDegrees>-1.75350680015981197357177734375</LongitudeDegrees>
            </Position>
            <AltitudeMeters>548.4000244140625</AltitudeMeters>
            <DistanceMeters>NAN</DistanceMeters>
          </Trackpoint>
          <Trackpoint>
            <Time>2021-08-09T13:33:00.000Z</Time>
            <Position>
              <LatitudeDegrees>43.09427783824503421783447265625</LatitudeDegrees>
              <LongitudeDegrees>-1.75358005799353122711181640625</LongitudeDegrees>
            </Position>
            <AltitudeMeters>548.20001220703125</AltitudeMeters>
            <DistanceMeters>NAN</DistanceMeters>
          </Trackpoint>
          <Trackpoint>
            <Time>2021-08-09T13:33:01.000Z</Time>
            <Position>
              <LatitudeDegrees>43.0942011438310146331787109375</LatitudeDegrees>
              <LongitudeDegrees>-1.753664799034595489501953125</LongitudeDegrees>
            </Position>
            <AltitudeMeters>547.5999755859375</AltitudeMeters>
            <DistanceMeters>NAN</DistanceMeters>
          </Trackpoint>
          <Trackpoint>
            <Time>2021-08-09T13:33:02.000Z</Time>
            <Position>
              <LatitudeDegrees>43.0941283889114856719970703125</LatitudeDegrees>
              <LongitudeDegrees>-1.7537583410739898681640625</LongitudeDegrees>
            </Position>
            <AltitudeMeters>546.79998779296875</AltitudeMeters>
            <DistanceMeters>NAN</DistanceMeters>
          </Trackpoint>
          <Trackpoint>
            <Time>2021-08-09T13:33:03.000Z</Time>
            <Position>
              <LatitudeDegrees>43.09406057931482791900634765625</LatitudeDegrees>
              <LongitudeDegrees>-1.75386688672006130218505859375</LongitudeDegrees>
            </Position>
            <AltitudeMeters>546.20001220703125</AltitudeMeters>
            <DistanceMeters>NAN</DistanceMeters>
          </Trackpoint>
          <Trackpoint>
            <Time>2021-08-09T13:33:04.000Z</Time>
            <Position>
              <LatitudeDegrees>43.093995116651058197021484375</LatitudeDegrees>
              <LongitudeDegrees>-1.75398590974509716033935546875</LongitudeDegrees>
            </Position>
            <AltitudeMeters>545.4000244140625</AltitudeMeters>
            <DistanceMeters>NAN</DistanceMeters>
          </Trackpoint>
          <Trackpoint>
            <Time>2021-08-09T13:33:05.000Z</Time>
            <Position>
              <LatitudeDegrees>43.09393443167209625244140625</LatitudeDegrees>
              <LongitudeDegrees>-1.754112727940082550048828125</LongitudeDegrees>
            </Position>
            <AltitudeMeters>545</AltitudeMeters>
            <DistanceMeters>NAN</DistanceMeters>
          </Trackpoint>
          <Trackpoint>
            <Time>2021-08-09T13:33:07.000Z</Time>
            <Position>
              <LatitudeDegrees>43.09381901286542415618896484375</LatitudeDegrees>
              <LongitudeDegrees>-1.754379607737064361572265625</LongitudeDegrees>
            </Position>
            <AltitudeMeters>543.4000244140625</AltitudeMeters>
            <DistanceMeters>NAN</DistanceMeters>
          </Trackpoint>
          <Trackpoint>
            <Time>2021-08-09T13:33:08.000Z</Time>
            <Position>
              <LatitudeDegrees>43.09375363402068614959716796875</LatitudeDegrees>
              <LongitudeDegrees>-1.754516400396823883056640625</LongitudeDegrees>
            </Position>
            <AltitudeMeters>542.20001220703125</AltitudeMeters>
            <DistanceMeters>NAN</DistanceMeters>
          </Trackpoint>
          <Trackpoint>
            <Time>2021-08-09T13:33:09.000Z</Time>
            <Position>
              <LatitudeDegrees>43.0936895124614238739013671875</LatitudeDegrees>
              <LongitudeDegrees>-1.754655539989471435546875</LongitudeDegrees>
            </Position>
            <AltitudeMeters>541.4000244140625</AltitudeMeters>
            <DistanceMeters>NAN</DistanceMeters>
          </Trackpoint>
          <Trackpoint>
            <Time>2021-08-09T13:33:10.000Z</Time>
            <Position>
              <LatitudeDegrees>43.0936251394450664520263671875</LatitudeDegrees>
              <LongitudeDegrees>-1.75479610450565814971923828125</LongitudeDegrees>
            </Position>
            <AltitudeMeters>540.79998779296875</AltitudeMeters>
            <DistanceMeters>NAN</DistanceMeters>
          </Trackpoint>
          <Trackpoint>
            <Time>2021-08-09T13:33:12.000Z</Time>
            <Position>
              <LatitudeDegrees>43.09350636787712574005126953125</LatitudeDegrees>
              <LongitudeDegrees>-1.75507865846157073974609375</LongitudeDegrees>
            </Position>
            <AltitudeMeters>539.20001220703125</AltitudeMeters>
            <DistanceMeters>NAN</DistanceMeters>
          </Trackpoint>
          <Trackpoint>
            <Time>2021-08-09T13:33:13.000Z</Time>
            <Position>
              <LatitudeDegrees>43.09344937093555927276611328125</LatitudeDegrees>
              <LongitudeDegrees>-1.7552129365503787994384765625</LongitudeDegrees>
            </Position>
            <AltitudeMeters>538.20001220703125</AltitudeMeters>
            <DistanceMeters>NAN</DistanceMeters>
          </Trackpoint>
          <Trackpoint>
            <Time>2021-08-09T13:33:14.000Z</Time>
            <Position>
              <LatitudeDegrees>43.09339103288948535919189453125</LatitudeDegrees>
              <LongitudeDegrees>-1.75533724017441272735595703125</LongitudeDegrees>
            </Position>
            <AltitudeMeters>537.5999755859375</AltitudeMeters>
            <DistanceMeters>NAN</DistanceMeters>
          </Trackpoint>
          <Trackpoint>
            <Time>2021-08-09T13:33:15.000Z</Time>
            <Position>
              <LatitudeDegrees>43.09333168901503086090087890625</LatitudeDegrees>
              <LongitudeDegrees>-1.75544788129627704620361328125</LongitudeDegrees>
            </Position>
            <AltitudeMeters>536.5999755859375</AltitudeMeters>
            <DistanceMeters>NAN</DistanceMeters>
          </Trackpoint>
          <Trackpoint>
            <Time>2021-08-09T13:33:16.000Z</Time>
            <Position>
              <LatitudeDegrees>43.093270249664783477783203125</LatitudeDegrees>
              <LongitudeDegrees>-1.75553538836538791656494140625</LongitudeDegrees>
            </Position>
            <AltitudeMeters>535.4000244140625</AltitudeMeters>
            <DistanceMeters>NAN</DistanceMeters>
          </Trackpoint>
          <Trackpoint>
            <Time>2021-08-09T13:33:17.000Z</Time>
            <Position>
              <LatitudeDegrees>43.09319774620234966278076171875</LatitudeDegrees>
              <LongitudeDegrees>-1.755588948726654052734375</LongitudeDegrees>
            </Position>
            <AltitudeMeters>535</AltitudeMeters>
            <DistanceMeters>NAN</DistanceMeters>
          </Trackpoint>
          <Trackpoint>
            <Time>2021-08-09T13:33:18.000Z</Time>
            <Position>
              <LatitudeDegrees>43.09311526827514171600341796875</LatitudeDegrees>
              <LongitudeDegrees>-1.75561736337840557098388671875</LongitudeDegrees>
            </Position>
            <AltitudeMeters>534.20001220703125</AltitudeMeters>
            <DistanceMeters>NAN</DistanceMeters>
          </Trackpoint>
          <Trackpoint>
            <Time>2021-08-09T13:33:19.000Z</Time>
            <Position>
              <LatitudeDegrees>43.09302776120603084564208984375</LatitudeDegrees>
              <LongitudeDegrees>-1.75563789904117584228515625</LongitudeDegrees>
            </Position>
            <AltitudeMeters>533.5999755859375</AltitudeMeters>
            <DistanceMeters>NAN</DistanceMeters>
          </Trackpoint>
          <Trackpoint>
            <Time>2021-08-09T13:33:20.000Z</Time>
            <Position>
              <LatitudeDegrees>43.09293338097631931304931640625</LatitudeDegrees>
              <LongitudeDegrees>-1.75565508194267749786376953125</LongitudeDegrees>
            </Position>
            <AltitudeMeters>532.79998779296875</AltitudeMeters>
            <DistanceMeters>NAN</DistanceMeters>
          </Trackpoint>
          <Trackpoint>
            <Time>2021-08-09T13:33:21.000Z</Time>
            <Position>
              <LatitudeDegrees>43.0928412638604640960693359375</LatitudeDegrees>
              <LongitudeDegrees>-1.755670420825481414794921875</LongitudeDegrees>
            </Position>
            <AltitudeMeters>532.5999755859375</AltitudeMeters>
            <DistanceMeters>NAN</DistanceMeters>
          </Trackpoint>
          <Trackpoint>
            <Time>2021-08-09T13:33:22.000Z</Time>
            <Position>
              <LatitudeDegrees>43.09274998493492603302001953125</LatitudeDegrees>
              <LongitudeDegrees>-1.75569632090628147125244140625</LongitudeDegrees>
            </Position>
            <AltitudeMeters>532</AltitudeMeters>
            <DistanceMeters>NAN</DistanceMeters>
          </Trackpoint>
          <Trackpoint>
            <Time>2021-08-09T13:33:23.000Z</Time>
            <Position>
              <LatitudeDegrees>43.09266281314194202423095703125</LatitudeDegrees>
              <LongitudeDegrees>-1.7557369731366634368896484375</LongitudeDegrees>
            </Position>
            <AltitudeMeters>531.20001220703125</AltitudeMeters>
            <DistanceMeters>NAN</DistanceMeters>
          </Trackpoint>
          <Trackpoint>
            <Time>2021-08-09T13:33:24.000Z</Time>
            <Position>
              <LatitudeDegrees>43.092578239738941192626953125</LatitudeDegrees>
              <LongitudeDegrees>-1.7558010108768939971923828125</LongitudeDegrees>
            </Position>
            <AltitudeMeters>531</AltitudeMeters>
            <DistanceMeters>NAN</DistanceMeters>
          </Trackpoint>
          <Trackpoint>
            <Time>2021-08-09T13:33:25.000Z</Time>
            <Position>
              <LatitudeDegrees>43.092500455677509307861328125</LatitudeDegrees>
              <LongitudeDegrees>-1.75588340498507022857666015625</LongitudeDegrees>
            </Position>
            <AltitudeMeters>530.20001220703125</AltitudeMeters>
            <DistanceMeters>NAN</DistanceMeters>
          </Trackpoint>
          <Trackpoint>
            <Time>2021-08-09T13:33:26.000Z</Time>
            <Position>
              <LatitudeDegrees>43.09242661111056804656982421875</LatitudeDegrees>
              <LongitudeDegrees>-1.75597594119608402252197265625</LongitudeDegrees>
            </Position>
            <AltitudeMeters>529.5999755859375</AltitudeMeters>
            <DistanceMeters>NAN</DistanceMeters>
          </Trackpoint>
          <Trackpoint>
            <Time>2021-08-09T13:33:27.000Z</Time>
            <Position>
              <LatitudeDegrees>43.09234664775431156158447265625</LatitudeDegrees>
              <LongitudeDegrees>-1.75608138553798198699951171875</LongitudeDegrees>
            </Position>
            <AltitudeMeters>528.79998779296875</AltitudeMeters>
            <DistanceMeters>NAN</DistanceMeters>
          </Trackpoint>
          <Trackpoint>
            <Time>2021-08-09T13:33:28.000Z</Time>
            <Position>
              <LatitudeDegrees>43.0922679416835308074951171875</LatitudeDegrees>
              <LongitudeDegrees>-1.7561838962137699127197265625</LongitudeDegrees>
            </Position>
            <AltitudeMeters>528.20001220703125</AltitudeMeters>
            <DistanceMeters>NAN</DistanceMeters>
          </Trackpoint>
          <Trackpoint>
            <Time>2021-08-09T13:33:29.000Z</Time>
            <Position>
              <LatitudeDegrees>43.09218722395598888397216796875</LatitudeDegrees>
              <LongitudeDegrees>-1.75628808327019214630126953125</LongitudeDegrees>
            </Position>
            <AltitudeMeters>527</AltitudeMeters>
            <DistanceMeters>NAN</DistanceMeters>
          </Trackpoint>
          <Trackpoint>
            <Time>2021-08-09T13:33:31.000Z</Time>
            <Position>
              <LatitudeDegrees>43.09202394448220729827880859375</LatitudeDegrees>
              <LongitudeDegrees>-1.7565044201910495758056640625</LongitudeDegrees>
            </Position>
            <AltitudeMeters>525.5999755859375</AltitudeMeters>
            <DistanceMeters>NAN</DistanceMeters>
          </Trackpoint>
          <Trackpoint>
            <Time>2021-08-09T13:33:32.000Z</Time>
            <Position>
              <LatitudeDegrees>43.0919301509857177734375</LatitudeDegrees>
              <LongitudeDegrees>-1.75663165748119354248046875</LongitudeDegrees>
            </Position>
            <AltitudeMeters>524.5999755859375</AltitudeMeters>
            <DistanceMeters>NAN</DistanceMeters>
          </Trackpoint>
          <Trackpoint>
            <Time>2021-08-09T13:33:33.000Z</Time>
            <Position>
              <LatitudeDegrees>43.0918679572641849517822265625</LatitudeDegrees>
              <LongitudeDegrees>-1.75671203993260860443115234375</LongitudeDegrees>
            </Position>
            <AltitudeMeters>524</AltitudeMeters>
            <DistanceMeters>NAN</DistanceMeters>
          </Trackpoint>
          <Trackpoint>
            <Time>2021-08-09T13:33:34.000Z</Time>
            <Position>
              <LatitudeDegrees>43.09178925119340419769287109375</LatitudeDegrees>
              <LongitudeDegrees>-1.75681195221841335296630859375</LongitudeDegrees>
            </Position>
            <AltitudeMeters>523</AltitudeMeters>
            <DistanceMeters>NAN</DistanceMeters>
          </Trackpoint>
          <Trackpoint>
            <Time>2021-08-09T13:33:36.000Z</Time>
            <Position>
              <LatitudeDegrees>43.0916258879005908966064453125</LatitudeDegrees>
              <LongitudeDegrees>-1.75701781176030635833740234375</LongitudeDegrees>
            </Position>
            <AltitudeMeters>521.4000244140625</AltitudeMeters>
            <DistanceMeters>NAN</DistanceMeters>
          </Trackpoint>
          <Trackpoint>
            <Time>2021-08-09T13:33:37.000Z</Time>
            <Position>
              <LatitudeDegrees>43.09154458343982696533203125</LatitudeDegrees>
              <LongitudeDegrees>-1.7571253515779972076416015625</LongitudeDegrees>
            </Position>
            <AltitudeMeters>520</AltitudeMeters>
            <DistanceMeters>NAN</DistanceMeters>
          </Trackpoint>
          <Trackpoint>
            <Time>2021-08-09T13:33:39.000Z</Time>
            <Position>
              <LatitudeDegrees>43.09138893149793148040771484375</LatitudeDegrees>
              <LongitudeDegrees>-1.75736297853291034698486328125</LongitudeDegrees>
            </Position>
            <AltitudeMeters>518</AltitudeMeters>
            <DistanceMeters>NAN</DistanceMeters>
          </Trackpoint>
          <Trackpoint>
            <Time>2021-08-09T13:33:40.000Z</Time>
            <Position>
              <LatitudeDegrees>43.0913207866251468658447265625</LatitudeDegrees>
              <LongitudeDegrees>-1.75748770125210285186767578125</LongitudeDegrees>
            </Position>
            <AltitudeMeters>517.4000244140625</AltitudeMeters>
            <DistanceMeters>NAN</DistanceMeters>
          </Trackpoint>
          <Trackpoint>
            <Time>2021-08-09T13:33:41.000Z</Time>
            <Position>
              <LatitudeDegrees>43.0912580899894237518310546875</LatitudeDegrees>
              <LongitudeDegrees>-1.75761946476995944976806640625</LongitudeDegrees>
            </Position>
            <AltitudeMeters>516.20001220703125</AltitudeMeters>
            <DistanceMeters>NAN</DistanceMeters>
          </Trackpoint>
          <Trackpoint>
            <Time>2021-08-09T13:33:43.000Z</Time>
            <Position>
              <LatitudeDegrees>43.0911521427333354949951171875</LatitudeDegrees>
              <LongitudeDegrees>-1.75790327601134777069091796875</LongitudeDegrees>
            </Position>
            <AltitudeMeters>514.79998779296875</AltitudeMeters>
            <DistanceMeters>NAN</DistanceMeters>
          </Trackpoint>
          <Trackpoint>
            <Time>2021-08-09T13:33:44.000Z</Time>
            <Position>
              <LatitudeDegrees>43.09111945331096649169921875</LatitudeDegrees>
              <LongitudeDegrees>-1.75805448554456233978271484375</LongitudeDegrees>
            </Position>
            <AltitudeMeters>513.79998779296875</AltitudeMeters>
            <DistanceMeters>NAN</DistanceMeters>
          </Trackpoint>
          <Trackpoint>
            <Time>2021-08-09T13:33:45.000Z</Time>
            <Position>
              <LatitudeDegrees>43.0911008454859256744384765625</LatitudeDegrees>
              <LongitudeDegrees>-1.75821223296225070953369140625</LongitudeDegrees>
            </Position>
            <AltitudeMeters>513.20001220703125</AltitudeMeters>
            <DistanceMeters>NAN</DistanceMeters>
          </Trackpoint>
          <Trackpoint>
            <Time>2021-08-09T13:33:46.000Z</Time>
            <Position>
              <LatitudeDegrees>43.091092966496944427490234375</LatitudeDegrees>
              <LongitudeDegrees>-1.75837107002735137939453125</LongitudeDegrees>
            </Position>
            <AltitudeMeters>512.4000244140625</AltitudeMeters>
            <DistanceMeters>NAN</DistanceMeters>
          </Trackpoint>
          <Trackpoint>
            <Time>2021-08-09T13:33:48.000Z</Time>
            <Position>
              <LatitudeDegrees>43.09108860790729522705078125</LatitudeDegrees>
              <LongitudeDegrees>-1.7586743272840976715087890625</LongitudeDegrees>
            </Position>
            <AltitudeMeters>510.600006103515625</AltitudeMeters>
            <DistanceMeters>NAN</DistanceMeters>
          </Trackpoint>
          <Trackpoint>
            <Time>2021-08-09T13:33:49.000Z</Time>
            <Position>
              <LatitudeDegrees>43.09109170921146869659423828125</LatitudeDegrees>
              <LongitudeDegrees>-1.75880961120128631591796875</LongitudeDegrees>
            </Position>
            <AltitudeMeters>510</AltitudeMeters>
            <DistanceMeters>NAN</DistanceMeters>
          </Trackpoint>
          <Trackpoint>
            <Time>2021-08-09T13:33:50.000Z</Time>
            <Position>
              <LatitudeDegrees>43.09109187684953212738037109375</LatitudeDegrees>
              <LongitudeDegrees>-1.7589345015585422515869140625</LongitudeDegrees>
            </Position>
            <AltitudeMeters>509</AltitudeMeters>
            <DistanceMeters>NAN</DistanceMeters>
          </Trackpoint>
          <Trackpoint>
            <Time>2021-08-09T13:33:51.000Z</Time>
            <Position>
              <LatitudeDegrees>43.09106823988258838653564453125</LatitudeDegrees>
              <LongitudeDegrees>-1.7590463161468505859375</LongitudeDegrees>
            </Position>
            <AltitudeMeters>508</AltitudeMeters>
            <DistanceMeters>NAN</DistanceMeters>
          </Trackpoint>
          <Trackpoint>
            <Time>2021-08-09T13:33:52.000Z</Time>
            <Position>
              <LatitudeDegrees>43.0910153500735759735107421875</LatitudeDegrees>
              <LongitudeDegrees>-1.7591450549662113189697265625</LongitudeDegrees>
            </Position>
            <AltitudeMeters>507.600006103515625</AltitudeMeters>
            <DistanceMeters>NAN</DistanceMeters>
          </Trackpoint>
          <Trackpoint>
            <Time>2021-08-09T13:33:53.000Z</Time>
            <Position>
              <LatitudeDegrees>43.0909550003707408905029296875</LatitudeDegrees>
              <LongitudeDegrees>-1.75922292284667491912841796875</LongitudeDegrees>
            </Position>
            <AltitudeMeters>506.399993896484375</AltitudeMeters>
            <DistanceMeters>NAN</DistanceMeters>
          </Trackpoint>
          <Trackpoint>
            <Time>2021-08-09T13:33:54.000Z</Time>
            <Position>
              <LatitudeDegrees>43.0908747017383575439453125</LatitudeDegrees>
              <LongitudeDegrees>-1.75926181487739086151123046875</LongitudeDegrees>
            </Position>
            <AltitudeMeters>506.20001220703125</AltitudeMeters>
            <DistanceMeters>NAN</DistanceMeters>
          </Trackpoint>
          <Trackpoint>
            <Time>2021-08-09T13:33:55.000Z</Time>
            <Position>
              <LatitudeDegrees>43.09077654965221881866455078125</LatitudeDegrees>
              <LongitudeDegrees>-1.759267263114452362060546875</LongitudeDegrees>
            </Position>
            <AltitudeMeters>505.600006103515625</AltitudeMeters>
            <DistanceMeters>NAN</DistanceMeters>
          </Trackpoint>
          <Trackpoint>
            <Time>2021-08-09T13:33:56.000Z</Time>
            <Position>
              <LatitudeDegrees>43.09067898429930210113525390625</LatitudeDegrees>
              <LongitudeDegrees>-1.75925829447805881500244140625</LongitudeDegrees>
            </Position>
            <AltitudeMeters>505.399993896484375</AltitudeMeters>
            <DistanceMeters>NAN</DistanceMeters>
          </Trackpoint>
          <Trackpoint>
            <Time>2021-08-09T13:33:57.000Z</Time>
            <Position>
              <LatitudeDegrees>43.09058393351733684539794921875</LatitudeDegrees>
              <LongitudeDegrees>-1.7592473141849040985107421875</LongitudeDegrees>
            </Position>
            <AltitudeMeters>504.600006103515625</AltitudeMeters>
            <DistanceMeters>NAN</DistanceMeters>
          </Trackpoint>
          <Trackpoint>
            <Time>2021-08-09T13:33:58.000Z</Time>
            <Position>
              <LatitudeDegrees>43.09049374423921108245849609375</LatitudeDegrees>
              <LongitudeDegrees>-1.75925293006002902984619140625</LongitudeDegrees>
            </Position>
            <AltitudeMeters>504</AltitudeMeters>
            <DistanceMeters>NAN</DistanceMeters>
          </Trackpoint>
          <Trackpoint>
            <Time>2021-08-09T13:33:59.000Z</Time>
            <Position>
              <LatitudeDegrees>43.0903863720595836639404296875</LatitudeDegrees>
              <LongitudeDegrees>-1.75927941687405109405517578125</LongitudeDegrees>
            </Position>
            <AltitudeMeters>503.79998779296875</AltitudeMeters>
            <DistanceMeters>NAN</DistanceMeters>
          </Trackpoint>
          <Trackpoint>
            <Time>2021-08-09T13:34:00.000Z</Time>
            <Position>
              <LatitudeDegrees>43.0903109349310398101806640625</LatitudeDegrees>
              <LongitudeDegrees>-1.75932249985635280609130859375</LongitudeDegrees>
            </Position>
            <AltitudeMeters>503.20001220703125</AltitudeMeters>
            <DistanceMeters>NAN</DistanceMeters>
          </Trackpoint>
          <Trackpoint>
            <Time>2021-08-09T13:34:01.000Z</Time>
            <Position>
              <LatitudeDegrees>43.0902234278619289398193359375</LatitudeDegrees>
              <LongitudeDegrees>-1.759396009147167205810546875</LongitudeDegrees>
            </Position>
            <AltitudeMeters>503</AltitudeMeters>
            <DistanceMeters>NAN</DistanceMeters>
          </Trackpoint>
          <Trackpoint>
            <Time>2021-08-09T13:34:02.000Z</Time>
            <Position>
              <LatitudeDegrees>43.0901456438004970550537109375</LatitudeDegrees>
              <LongitudeDegrees>-1.7594850249588489532470703125</LongitudeDegrees>
            </Position>
            <AltitudeMeters>502.399993896484375</AltitudeMeters>
            <DistanceMeters>NAN</DistanceMeters>
          </Trackpoint>
          <Trackpoint>
            <Time>2021-08-09T13:34:03.000Z</Time>
            <Position>
              <LatitudeDegrees>43.0900735594332218170166015625</LatitudeDegrees>
              <LongitudeDegrees>-1.7595778964459896087646484375</LongitudeDegrees>
            </Position>
            <AltitudeMeters>502</AltitudeMeters>
            <DistanceMeters>NAN</DistanceMeters>
          </Trackpoint>
          <Trackpoint>
            <Time>2021-08-09T13:34:04.000Z</Time>
            <Position>
              <LatitudeDegrees>43.0900021456182003021240234375</LatitudeDegrees>
              <LongitudeDegrees>-1.75967085175216197967529296875</LongitudeDegrees>
            </Position>
            <AltitudeMeters>501.20001220703125</AltitudeMeters>
            <DistanceMeters>NAN</DistanceMeters>
          </Trackpoint>
          <Trackpoint>
            <Time>2021-08-09T13:34:05.000Z</Time>
            <Position>
              <LatitudeDegrees>43.08993701823055744171142578125</LatitudeDegrees>
              <LongitudeDegrees>-1.7597602866590023040771484375</LongitudeDegrees>
            </Position>
            <AltitudeMeters>500.399993896484375</AltitudeMeters>
            <DistanceMeters>NAN</DistanceMeters>
          </Trackpoint>
          <Trackpoint>
            <Time>2021-08-09T13:34:06.000Z</Time>
            <Position>
              <LatitudeDegrees>43.0898757465183734893798828125</LatitudeDegrees>
              <LongitudeDegrees>-1.7598454467952251434326171875</LongitudeDegrees>
            </Position>
            <AltitudeMeters>500.20001220703125</AltitudeMeters>
            <DistanceMeters>NAN</DistanceMeters>
          </Trackpoint>
          <Trackpoint>
            <Time>2021-08-09T13:34:07.000Z</Time>
            <Position>
              <LatitudeDegrees>43.08981321752071380615234375</LatitudeDegrees>
              <LongitudeDegrees>-1.759919039905071258544921875</LongitudeDegrees>
            </Position>
            <AltitudeMeters>499.20001220703125</AltitudeMeters>
            <DistanceMeters>NAN</DistanceMeters>
          </Trackpoint>
          <Trackpoint>
            <Time>2021-08-09T13:34:08.000Z</Time>
            <Position>
              <LatitudeDegrees>43.0897282250225543975830078125</LatitudeDegrees>
              <LongitudeDegrees>-1.75997746177017688751220703125</LongitudeDegrees>
            </Position>
            <AltitudeMeters>498.79998779296875</AltitudeMeters>
            <DistanceMeters>NAN</DistanceMeters>
          </Trackpoint>
          <Trackpoint>
            <Time>2021-08-09T13:34:09.000Z</Time>
            <Position>
              <LatitudeDegrees>43.0896588228642940521240234375</LatitudeDegrees>
              <LongitudeDegrees>-1.75999070517718791961669921875</LongitudeDegrees>
            </Position>
            <AltitudeMeters>497.79998779296875</AltitudeMeters>
            <DistanceMeters>NAN</DistanceMeters>
          </Trackpoint>
          <Trackpoint>
            <Time>2021-08-09T13:34:10.000Z</Time>
            <Position>
              <LatitudeDegrees>43.089574836194515228271484375</LatitudeDegrees>
              <LongitudeDegrees>-1.75997494719922542572021484375</LongitudeDegrees>
            </Position>
            <AltitudeMeters>497.399993896484375</AltitudeMeters>
            <DistanceMeters>NAN</DistanceMeters>
          </Trackpoint>
          <Trackpoint>
            <Time>2021-08-09T13:34:11.000Z</Time>
            <Position>
              <LatitudeDegrees>43.08950032107532024383544921875</LatitudeDegrees>
              <LongitudeDegrees>-1.75993437878787517547607421875</LongitudeDegrees>
            </Position>
            <AltitudeMeters>496.399993896484375</AltitudeMeters>
            <DistanceMeters>NAN</DistanceMeters>
          </Trackpoint>
          <Trackpoint>
            <Time>2021-08-09T13:34:12.000Z</Time>
            <Position>
              <LatitudeDegrees>43.089429996907711029052734375</LatitudeDegrees>
              <LongitudeDegrees>-1.75988308154046535491943359375</LongitudeDegrees>
            </Position>
            <AltitudeMeters>495.600006103515625</AltitudeMeters>
            <DistanceMeters>NAN</DistanceMeters>
          </Trackpoint>
          <Trackpoint>
            <Time>2021-08-09T13:34:13.000Z</Time>
            <Position>
              <LatitudeDegrees>43.08936604298651218414306640625</LatitudeDegrees>
              <LongitudeDegrees>-1.75982415676116943359375</LongitudeDegrees>
            </Position>
            <AltitudeMeters>495.20001220703125</AltitudeMeters>
            <DistanceMeters>NAN</DistanceMeters>
          </Trackpoint>
          <Trackpoint>
            <Time>2021-08-09T13:34:14.000Z</Time>
            <Position>
              <LatitudeDegrees>43.08929831720888614654541015625</LatitudeDegrees>
              <LongitudeDegrees>-1.75973824225366115570068359375</LongitudeDegrees>
            </Position>
            <AltitudeMeters>495</AltitudeMeters>
            <DistanceMeters>NAN</DistanceMeters>
          </Trackpoint>
          <Trackpoint>
            <Time>2021-08-09T13:34:15.000Z</Time>
            <Position>
              <LatitudeDegrees>43.08926696889102458953857421875</LatitudeDegrees>
              <LongitudeDegrees>-1.759669594466686248779296875</LongitudeDegrees>
            </Position>
            <AltitudeMeters>494.79998779296875</AltitudeMeters>
            <DistanceMeters>NAN</DistanceMeters>
          </Trackpoint>
          <Trackpoint>
            <Time>2021-08-09T13:34:16.000Z</Time>
            <Position>
              <LatitudeDegrees>43.08923310600221157073974609375</LatitudeDegrees>
              <LongitudeDegrees>-1.759553588926792144775390625</LongitudeDegrees>
            </Position>
            <AltitudeMeters>494.79998779296875</AltitudeMeters>
            <DistanceMeters>NAN</DistanceMeters>
          </Trackpoint>
          <Trackpoint>
            <Time>2021-08-09T13:34:17.000Z</Time>
            <Position>
              <LatitudeDegrees>43.089223802089691162109375</LatitudeDegrees>
              <LongitudeDegrees>-1.7594685964286327362060546875</LongitudeDegrees>
            </Position>
            <AltitudeMeters>494.600006103515625</AltitudeMeters>
            <DistanceMeters>NAN</DistanceMeters>
          </Trackpoint>
          <Trackpoint>
            <Time>2021-08-09T13:34:18.000Z</Time>
            <Position>
              <LatitudeDegrees>43.089218102395534515380859375</LatitudeDegrees>
              <LongitudeDegrees>-1.75936340354382991790771484375</LongitudeDegrees>
            </Position>
            <AltitudeMeters>494.600006103515625</AltitudeMeters>
            <DistanceMeters>NAN</DistanceMeters>
          </Trackpoint>
          <Trackpoint>
            <Time>2021-08-09T13:34:19.000Z</Time>
            <Position>
              <LatitudeDegrees>43.0892152525484561920166015625</LatitudeDegrees>
              <LongitudeDegrees>-1.75925561226904392242431640625</LongitudeDegrees>
            </Position>
            <AltitudeMeters>494.399993896484375</AltitudeMeters>
            <DistanceMeters>NAN</DistanceMeters>
          </Trackpoint>
          <Trackpoint>
            <Time>2021-08-09T13:34:21.000Z</Time>
            <Position>
              <LatitudeDegrees>43.08920913375914096832275390625</LatitudeDegrees>
              <LongitudeDegrees>-1.759037934243679046630859375</LongitudeDegrees>
            </Position>
            <AltitudeMeters>494.20001220703125</AltitudeMeters>
            <DistanceMeters>NAN</DistanceMeters>
          </Trackpoint>
          <Trackpoint>
            <Time>2021-08-09T13:34:25.000Z</Time>
            <Position>
              <LatitudeDegrees>43.08921885676681995391845703125</LatitudeDegrees>
              <LongitudeDegrees>-1.75858296453952789306640625</LongitudeDegrees>
            </Position>
            <AltitudeMeters>493.399993896484375</AltitudeMeters>
            <DistanceMeters>NAN</DistanceMeters>
          </Trackpoint>
          <Trackpoint>
            <Time>2021-08-09T13:34:26.000Z</Time>
            <Position>
              <LatitudeDegrees>43.08923578821122646331787109375</LatitudeDegrees>
              <LongitudeDegrees>-1.75844055600464344024658203125</LongitudeDegrees>
            </Position>
            <AltitudeMeters>493.20001220703125</AltitudeMeters>
            <DistanceMeters>NAN</DistanceMeters>
          </Trackpoint>
          <Trackpoint>
            <Time>2021-08-09T13:34:27.000Z</Time>
            <Position>
              <LatitudeDegrees>43.08925506658852100372314453125</LatitudeDegrees>
              <LongitudeDegrees>-1.75834148190915584564208984375</LongitudeDegrees>
            </Position>
            <AltitudeMeters>493</AltitudeMeters>
            <DistanceMeters>NAN</DistanceMeters>
          </Trackpoint>
          <Trackpoint>
            <Time>2021-08-09T13:34:28.000Z</Time>
            <Position>
              <LatitudeDegrees>43.0892601795494556427001953125</LatitudeDegrees>
              <LongitudeDegrees>-1.75822514109313488006591796875</LongitudeDegrees>
            </Position>
            <AltitudeMeters>492.399993896484375</AltitudeMeters>
            <DistanceMeters>NAN</DistanceMeters>
          </Trackpoint>
          <Trackpoint>
            <Time>2021-08-09T13:34:29.000Z</Time>
            <Position>
              <LatitudeDegrees>43.08925204910337924957275390625</LatitudeDegrees>
              <LongitudeDegrees>-1.75811064429581165313720703125</LongitudeDegrees>
            </Position>
            <AltitudeMeters>492.20001220703125</AltitudeMeters>
            <DistanceMeters>NAN</DistanceMeters>
          </Trackpoint>
          <Trackpoint>
            <Time>2021-08-09T13:34:30.000Z</Time>
            <Position>
              <LatitudeDegrees>43.0892048589885234832763671875</LatitudeDegrees>
              <LongitudeDegrees>-1.75798223353922367095947265625</LongitudeDegrees>
            </Position>
            <AltitudeMeters>492</AltitudeMeters>
            <DistanceMeters>NAN</DistanceMeters>
          </Trackpoint>
          <Trackpoint>
            <Time>2021-08-09T13:34:31.000Z</Time>
            <Position>
              <LatitudeDegrees>43.0891448445618152618408203125</LatitudeDegrees>
              <LongitudeDegrees>-1.75790931098163127899169921875</LongitudeDegrees>
            </Position>
            <AltitudeMeters>491.600006103515625</AltitudeMeters>
            <DistanceMeters>NAN</DistanceMeters>
          </Trackpoint>
          <Trackpoint>
            <Time>2021-08-09T13:34:32.000Z</Time>
            <Position>
              <LatitudeDegrees>43.0890647135674953460693359375</LatitudeDegrees>
              <LongitudeDegrees>-1.7578334547579288482666015625</LongitudeDegrees>
            </Position>
            <AltitudeMeters>491</AltitudeMeters>
            <DistanceMeters>NAN</DistanceMeters>
          </Trackpoint>
          <Trackpoint>
            <Time>2021-08-09T13:34:34.000Z</Time>
            <Position>
              <LatitudeDegrees>43.08888140134513378143310546875</LatitudeDegrees>
              <LongitudeDegrees>-1.7577794753015041351318359375</LongitudeDegrees>
            </Position>
            <AltitudeMeters>490.20001220703125</AltitudeMeters>
            <DistanceMeters>NAN</DistanceMeters>
          </Trackpoint>
          <Trackpoint>
            <Time>2021-08-09T13:34:35.000Z</Time>
            <Position>
              <LatitudeDegrees>43.0887767113745212554931640625</LatitudeDegrees>
              <LongitudeDegrees>-1.7577870190143585205078125</LongitudeDegrees>
            </Position>
            <AltitudeMeters>489.399993896484375</AltitudeMeters>
            <DistanceMeters>NAN</DistanceMeters>
          </Trackpoint>
          <Trackpoint>
            <Time>2021-08-09T13:34:36.000Z</Time>
            <Position>
              <LatitudeDegrees>43.0887049622833728790283203125</LatitudeDegrees>
              <LongitudeDegrees>-1.7577923834323883056640625</LongitudeDegrees>
            </Position>
            <AltitudeMeters>489.20001220703125</AltitudeMeters>
            <DistanceMeters>NAN</DistanceMeters>
          </Trackpoint>
          <Trackpoint>
            <Time>2021-08-09T13:34:37.000Z</Time>
            <Position>
              <LatitudeDegrees>43.08861418627202510833740234375</LatitudeDegrees>
              <LongitudeDegrees>-1.757779978215694427490234375</LongitudeDegrees>
            </Position>
            <AltitudeMeters>488.600006103515625</AltitudeMeters>
            <DistanceMeters>NAN</DistanceMeters>
          </Trackpoint>
          <Trackpoint>
            <Time>2021-08-09T13:34:38.000Z</Time>
            <Position>
              <LatitudeDegrees>43.0885383300483226776123046875</LatitudeDegrees>
              <LongitudeDegrees>-1.75773832015693187713623046875</LongitudeDegrees>
            </Position>
            <AltitudeMeters>488.399993896484375</AltitudeMeters>
            <DistanceMeters>NAN</DistanceMeters>
          </Trackpoint>
          <Trackpoint>
            <Time>2021-08-09T13:34:39.000Z</Time>
            <Position>
              <LatitudeDegrees>43.08847823180258274078369140625</LatitudeDegrees>
              <LongitudeDegrees>-1.7576728574931621551513671875</LongitudeDegrees>
            </Position>
            <AltitudeMeters>487.79998779296875</AltitudeMeters>
            <DistanceMeters>NAN</DistanceMeters>
          </Trackpoint>
          <Trackpoint>
            <Time>2021-08-09T13:34:40.000Z</Time>
            <Position>
              <LatitudeDegrees>43.0884357355535030364990234375</LatitudeDegrees>
              <LongitudeDegrees>-1.75758895464241504669189453125</LongitudeDegrees>
            </Position>
            <AltitudeMeters>487.600006103515625</AltitudeMeters>
            <DistanceMeters>NAN</DistanceMeters>
          </Trackpoint>
          <Trackpoint>
            <Time>2021-08-09T13:34:41.000Z</Time>
            <Position>
              <LatitudeDegrees>43.0884146131575107574462890625</LatitudeDegrees>
              <LongitudeDegrees>-1.75749306567013263702392578125</LongitudeDegrees>
            </Position>
            <AltitudeMeters>487.399993896484375</AltitudeMeters>
            <DistanceMeters>NAN</DistanceMeters>
          </Trackpoint>
          <Trackpoint>
            <Time>2021-08-09T13:34:42.000Z</Time>
            <Position>
              <LatitudeDegrees>43.08840631507337093353271484375</LatitudeDegrees>
              <LongitudeDegrees>-1.75739281810820102691650390625</LongitudeDegrees>
            </Position>
            <AltitudeMeters>487.20001220703125</AltitudeMeters>
            <DistanceMeters>NAN</DistanceMeters>
          </Trackpoint>
          <Trackpoint>
            <Time>2021-08-09T13:34:43.000Z</Time>
            <Position>
              <LatitudeDegrees>43.08840212412178516387939453125</LatitudeDegrees>
              <LongitudeDegrees>-1.75729592330753803253173828125</LongitudeDegrees>
            </Position>
            <AltitudeMeters>487</AltitudeMeters>
            <DistanceMeters>NAN</DistanceMeters>
          </Trackpoint>
          <Trackpoint>
            <Time>2021-08-09T13:34:44.000Z</Time>
            <Position>
              <LatitudeDegrees>43.08839994482696056365966796875</LatitudeDegrees>
              <LongitudeDegrees>-1.75719534046947956085205078125</LongitudeDegrees>
            </Position>
            <AltitudeMeters>487</AltitudeMeters>
            <DistanceMeters>NAN</DistanceMeters>
          </Trackpoint>
          <Trackpoint>
            <Time>2021-08-09T13:34:45.000Z</Time>
            <Position>
              <LatitudeDegrees>43.0883978493511676788330078125</LatitudeDegrees>
              <LongitudeDegrees>-1.757094673812389373779296875</LongitudeDegrees>
            </Position>
            <AltitudeMeters>487</AltitudeMeters>
            <DistanceMeters>NAN</DistanceMeters>
          </Trackpoint>
          <Trackpoint>
            <Time>2021-08-09T13:34:46.000Z</Time>
            <Position>
              <LatitudeDegrees>43.08840178884565830230712890625</LatitudeDegrees>
              <LongitudeDegrees>-1.75699166022241115570068359375</LongitudeDegrees>
            </Position>
            <AltitudeMeters>487</AltitudeMeters>
            <DistanceMeters>NAN</DistanceMeters>
          </Trackpoint>
          <Trackpoint>
            <Time>2021-08-09T13:34:49.000Z</Time>
            <Position>
              <LatitudeDegrees>43.088424839079380035400390625</LatitudeDegrees>
              <LongitudeDegrees>-1.7566817812621593475341796875</LongitudeDegrees>
            </Position>
            <AltitudeMeters>486.399993896484375</AltitudeMeters>
            <DistanceMeters>NAN</DistanceMeters>
          </Trackpoint>
          <Trackpoint>
            <Time>2021-08-09T13:34:52.000Z</Time>
            <Position>
              <LatitudeDegrees>43.0884712748229503631591796875</LatitudeDegrees>
              <LongitudeDegrees>-1.756355054676532745361328125</LongitudeDegrees>
            </Position>
            <AltitudeMeters>486</AltitudeMeters>
            <DistanceMeters>NAN</DistanceMeters>
          </Trackpoint>
          <Trackpoint>
            <Time>2021-08-09T13:34:54.000Z</Time>
            <Position>
              <LatitudeDegrees>43.088515698909759521484375</LatitudeDegrees>
              <LongitudeDegrees>-1.7561285756528377532958984375</LongitudeDegrees>
            </Position>
            <AltitudeMeters>485.79998779296875</AltitudeMeters>
            <DistanceMeters>NAN</DistanceMeters>
          </Trackpoint>
          <Trackpoint>
            <Time>2021-08-09T13:34:55.000Z</Time>
            <Position>
              <LatitudeDegrees>43.08851947076618671417236328125</LatitudeDegrees>
              <LongitudeDegrees>-1.756017766892910003662109375</LongitudeDegrees>
            </Position>
            <AltitudeMeters>485.399993896484375</AltitudeMeters>
            <DistanceMeters>NAN</DistanceMeters>
          </Trackpoint>
          <Trackpoint>
            <Time>2021-08-09T13:34:56.000Z</Time>
            <Position>
              <LatitudeDegrees>43.08850136585533618927001953125</LatitudeDegrees>
              <LongitudeDegrees>-1.7559056170284748077392578125</LongitudeDegrees>
            </Position>
            <AltitudeMeters>485</AltitudeMeters>
            <DistanceMeters>NAN</DistanceMeters>
          </Trackpoint>
          <Trackpoint>
            <Time>2021-08-09T13:34:57.000Z</Time>
            <Position>
              <LatitudeDegrees>43.08846113272011280059814453125</LatitudeDegrees>
              <LongitudeDegrees>-1.75580277107656002044677734375</LongitudeDegrees>
            </Position>
            <AltitudeMeters>484.600006103515625</AltitudeMeters>
            <DistanceMeters>NAN</DistanceMeters>
          </Trackpoint>
          <Trackpoint>
            <Time>2021-08-09T13:34:58.000Z</Time>
            <Position>
              <LatitudeDegrees>43.08838770724833011627197265625</LatitudeDegrees>
              <LongitudeDegrees>-1.7557265795767307281494140625</LongitudeDegrees>
            </Position>
            <AltitudeMeters>484.20001220703125</AltitudeMeters>
            <DistanceMeters>NAN</DistanceMeters>
          </Trackpoint>
          <Trackpoint>
            <Time>2021-08-09T13:34:59.000Z</Time>
            <Position>
              <LatitudeDegrees>43.08830254711210727691650390625</LatitudeDegrees>
              <LongitudeDegrees>-1.7556816525757312774658203125</LongitudeDegrees>
            </Position>
            <AltitudeMeters>484</AltitudeMeters>
            <DistanceMeters>NAN</DistanceMeters>
          </Trackpoint>
          <Trackpoint>
            <Time>2021-08-09T13:35:00.000Z</Time>
            <Position>
              <LatitudeDegrees>43.0882054008543491363525390625</LatitudeDegrees>
              <LongitudeDegrees>-1.755665056407451629638671875</LongitudeDegrees>
            </Position>
            <AltitudeMeters>483.399993896484375</AltitudeMeters>
            <DistanceMeters>NAN</DistanceMeters>
          </Trackpoint>
          <Trackpoint>
            <Time>2021-08-09T13:35:01.000Z</Time>
            <Position>
              <LatitudeDegrees>43.088101632893085479736328125</LatitudeDegrees>
              <LongitudeDegrees>-1.75566078163683414459228515625</LongitudeDegrees>
            </Position>
            <AltitudeMeters>482.600006103515625</AltitudeMeters>
            <DistanceMeters>NAN</DistanceMeters>
          </Trackpoint>
          <Trackpoint>
            <Time>2021-08-09T13:35:02.000Z</Time>
            <Position>
              <LatitudeDegrees>43.08800004422664642333984375</LatitudeDegrees>
              <LongitudeDegrees>-1.755660362541675567626953125</LongitudeDegrees>
            </Position>
            <AltitudeMeters>482.20001220703125</AltitudeMeters>
            <DistanceMeters>NAN</DistanceMeters>
          </Trackpoint>
          <Trackpoint>
            <Time>2021-08-09T13:35:03.000Z</Time>
            <Position>
              <LatitudeDegrees>43.08789853937923908233642578125</LatitudeDegrees>
              <LongitudeDegrees>-1.755658350884914398193359375</LongitudeDegrees>
            </Position>
            <AltitudeMeters>481.399993896484375</AltitudeMeters>
            <DistanceMeters>NAN</DistanceMeters>
          </Trackpoint>
          <Trackpoint>
            <Time>2021-08-09T13:35:05.000Z</Time>
            <Position>
              <LatitudeDegrees>43.0876934342086315155029296875</LatitudeDegrees>
              <LongitudeDegrees>-1.75564854405820369720458984375</LongitudeDegrees>
            </Position>
            <AltitudeMeters>480</AltitudeMeters>
            <DistanceMeters>NAN</DistanceMeters>
          </Trackpoint>
          <Trackpoint>
            <Time>2021-08-09T13:35:06.000Z</Time>
            <Position>
              <LatitudeDegrees>43.08759209699928760528564453125</LatitudeDegrees>
              <LongitudeDegrees>-1.7556524835526943206787109375</LongitudeDegrees>
            </Position>
            <AltitudeMeters>479.600006103515625</AltitudeMeters>
            <DistanceMeters>NAN</DistanceMeters>
          </Trackpoint>
          <Trackpoint>
            <Time>2021-08-09T13:35:07.000Z</Time>
            <Position>
              <LatitudeDegrees>43.08749134652316570281982421875</LatitudeDegrees>
              <LongitudeDegrees>-1.75567737780511379241943359375</LongitudeDegrees>
            </Position>
            <AltitudeMeters>478.79998779296875</AltitudeMeters>
            <DistanceMeters>NAN</DistanceMeters>
          </Trackpoint>
          <Trackpoint>
            <Time>2021-08-09T13:35:08.000Z</Time>
            <Position>
              <LatitudeDegrees>43.0873916856944561004638671875</LatitudeDegrees>
              <LongitudeDegrees>-1.75573085434734821319580078125</LongitudeDegrees>
            </Position>
            <AltitudeMeters>477.79998779296875</AltitudeMeters>
            <DistanceMeters>NAN</DistanceMeters>
          </Trackpoint>
          <Trackpoint>
            <Time>2021-08-09T13:35:09.000Z</Time>
            <Position>
              <LatitudeDegrees>43.0872939527034759521484375</LatitudeDegrees>
              <LongitudeDegrees>-1.7557979933917522430419921875</LongitudeDegrees>
            </Position>
            <AltitudeMeters>477.399993896484375</AltitudeMeters>
            <DistanceMeters>NAN</DistanceMeters>
          </Trackpoint>
          <Trackpoint>
            <Time>2021-08-09T13:35:10.000Z</Time>
            <Position>
              <LatitudeDegrees>43.08719680644571781158447265625</LatitudeDegrees>
              <LongitudeDegrees>-1.7558727599680423736572265625</LongitudeDegrees>
            </Position>
            <AltitudeMeters>476.399993896484375</AltitudeMeters>
            <DistanceMeters>NAN</DistanceMeters>
          </Trackpoint>
          <Trackpoint>
            <Time>2021-08-09T13:35:11.000Z</Time>
            <Position>
              <LatitudeDegrees>43.087100498378276824951171875</LatitudeDegrees>
              <LongitudeDegrees>-1.75595104694366455078125</LongitudeDegrees>
            </Position>
            <AltitudeMeters>476</AltitudeMeters>
            <DistanceMeters>NAN</DistanceMeters>
          </Trackpoint>
          <Trackpoint>
            <Time>2021-08-09T13:35:13.000Z</Time>
            <Position>
              <LatitudeDegrees>43.08691048063337802886962890625</LatitudeDegrees>
              <LongitudeDegrees>-1.75610954873263835906982421875</LongitudeDegrees>
            </Position>
            <AltitudeMeters>474.600006103515625</AltitudeMeters>
            <DistanceMeters>NAN</DistanceMeters>
          </Trackpoint>
          <Trackpoint>
            <Time>2021-08-09T13:35:15.000Z</Time>
            <Position>
              <LatitudeDegrees>43.08670721948146820068359375</LatitudeDegrees>
              <LongitudeDegrees>-1.75628003664314746856689453125</LongitudeDegrees>
            </Position>
            <AltitudeMeters>473</AltitudeMeters>
            <DistanceMeters>NAN</DistanceMeters>
          </Trackpoint>
          <Trackpoint>
            <Time>2021-08-09T13:35:17.000Z</Time>
            <Position>
              <LatitudeDegrees>43.08652306906878948211669921875</LatitudeDegrees>
              <LongitudeDegrees>-1.756427474319934844970703125</LongitudeDegrees>
            </Position>
            <AltitudeMeters>471.600006103515625</AltitudeMeters>
            <DistanceMeters>NAN</DistanceMeters>
          </Trackpoint>
          <Trackpoint>
            <Time>2021-08-09T13:35:18.000Z</Time>
            <Position>
              <LatitudeDegrees>43.08644746430218219757080078125</LatitudeDegrees>
              <LongitudeDegrees>-1.75649025477468967437744140625</LongitudeDegrees>
            </Position>
            <AltitudeMeters>470.79998779296875</AltitudeMeters>
            <DistanceMeters>NAN</DistanceMeters>
          </Trackpoint>
          <Trackpoint>
            <Time>2021-08-09T13:35:19.000Z</Time>
            <Position>
              <LatitudeDegrees>43.086380325257778167724609375</LatitudeDegrees>
              <LongitudeDegrees>-1.75654205493628978729248046875</LongitudeDegrees>
            </Position>
            <AltitudeMeters>469.600006103515625</AltitudeMeters>
            <DistanceMeters>NAN</DistanceMeters>
          </Trackpoint>
          <Trackpoint>
            <Time>2021-08-09T13:35:20.000Z</Time>
            <Position>
              <LatitudeDegrees>43.08630681596696376800537109375</LatitudeDegrees>
              <LongitudeDegrees>-1.7565835453569889068603515625</LongitudeDegrees>
            </Position>
            <AltitudeMeters>468.79998779296875</AltitudeMeters>
            <DistanceMeters>NAN</DistanceMeters>
          </Trackpoint>
          <Trackpoint>
            <Time>2021-08-09T13:35:21.000Z</Time>
            <Position>
              <LatitudeDegrees>43.0862614698708057403564453125</LatitudeDegrees>
              <LongitudeDegrees>-1.756602488458156585693359375</LongitudeDegrees>
            </Position>
            <AltitudeMeters>467.399993896484375</AltitudeMeters>
            <DistanceMeters>NAN</DistanceMeters>
          </Trackpoint>
          <Trackpoint>
            <Time>2021-08-09T13:35:22.000Z</Time>
            <Position>
              <LatitudeDegrees>43.0862048082053661346435546875</LatitudeDegrees>
              <LongitudeDegrees>-1.75662151537835597991943359375</LongitudeDegrees>
            </Position>
            <AltitudeMeters>466.79998779296875</AltitudeMeters>
            <DistanceMeters>NAN</DistanceMeters>
          </Trackpoint>
          <Trackpoint>
            <Time>2021-08-09T13:35:23.000Z</Time>
            <Position>
              <LatitudeDegrees>43.08615208603441715240478515625</LatitudeDegrees>
              <LongitudeDegrees>-1.75661179237067699432373046875</LongitudeDegrees>
            </Position>
            <AltitudeMeters>466</AltitudeMeters>
            <DistanceMeters>NAN</DistanceMeters>
          </Trackpoint>
          <Trackpoint>
            <Time>2021-08-09T13:35:24.000Z</Time>
            <Position>
              <LatitudeDegrees>43.08609844185411930084228515625</LatitudeDegrees>
              <LongitudeDegrees>-1.75658647902309894561767578125</LongitudeDegrees>
            </Position>
            <AltitudeMeters>465</AltitudeMeters>
            <DistanceMeters>NAN</DistanceMeters>
          </Trackpoint>
          <Trackpoint>
            <Time>2021-08-09T13:35:25.000Z</Time>
            <Position>
              <LatitudeDegrees>43.08605435304343700408935546875</LatitudeDegrees>
              <LongitudeDegrees>-1.756542809307575225830078125</LongitudeDegrees>
            </Position>
            <AltitudeMeters>464.600006103515625</AltitudeMeters>
            <DistanceMeters>NAN</DistanceMeters>
          </Trackpoint>
          <Trackpoint>
            <Time>2021-08-09T13:35:26.000Z</Time>
            <Position>
              <LatitudeDegrees>43.0860163830220699310302734375</LatitudeDegrees>
              <LongitudeDegrees>-1.75647072494029998779296875</LongitudeDegrees>
            </Position>
            <AltitudeMeters>464</AltitudeMeters>
            <DistanceMeters>NAN</DistanceMeters>
          </Trackpoint>
          <Trackpoint>
            <Time>2021-08-09T13:35:27.000Z</Time>
            <Position>
              <LatitudeDegrees>43.0860093422234058380126953125</LatitudeDegrees>
              <LongitudeDegrees>-1.75641305744647979736328125</LongitudeDegrees>
            </Position>
            <AltitudeMeters>463.79998779296875</AltitudeMeters>
            <DistanceMeters>NAN</DistanceMeters>
          </Trackpoint>
          <Trackpoint>
            <Time>2021-08-09T13:35:28.000Z</Time>
            <Position>
              <LatitudeDegrees>43.086014874279499053955078125</LatitudeDegrees>
              <LongitudeDegrees>-1.75633502192795276641845703125</LongitudeDegrees>
            </Position>
            <AltitudeMeters>463.20001220703125</AltitudeMeters>
            <DistanceMeters>NAN</DistanceMeters>
          </Trackpoint>
          <Trackpoint>
            <Time>2021-08-09T13:35:30.000Z</Time>
            <Position>
              <LatitudeDegrees>43.08605317957699298858642578125</LatitudeDegrees>
              <LongitudeDegrees>-1.7561453394591808319091796875</LongitudeDegrees>
            </Position>
            <AltitudeMeters>462.600006103515625</AltitudeMeters>
            <DistanceMeters>NAN</DistanceMeters>
          </Trackpoint>
          <Trackpoint>
            <Time>2021-08-09T13:35:33.000Z</Time>
            <Position>
              <LatitudeDegrees>43.086115457117557525634765625</LatitudeDegrees>
              <LongitudeDegrees>-1.7558717541396617889404296875</LongitudeDegrees>
            </Position>
            <AltitudeMeters>461.79998779296875</AltitudeMeters>
            <DistanceMeters>NAN</DistanceMeters>
          </Trackpoint>
          <Trackpoint>
            <Time>2021-08-09T13:35:34.000Z</Time>
            <Position>
              <LatitudeDegrees>43.08614890091121196746826171875</LatitudeDegrees>
              <LongitudeDegrees>-1.75573940388858318328857421875</LongitudeDegrees>
            </Position>
            <AltitudeMeters>461.79998779296875</AltitudeMeters>
            <DistanceMeters>NAN</DistanceMeters>
          </Trackpoint>
          <Trackpoint>
            <Time>2021-08-09T13:35:35.000Z</Time>
            <Position>
              <LatitudeDegrees>43.0861806683242321014404296875</LatitudeDegrees>
              <LongitudeDegrees>-1.75562423653900623321533203125</LongitudeDegrees>
            </Position>
            <AltitudeMeters>461.399993896484375</AltitudeMeters>
            <DistanceMeters>NAN</DistanceMeters>
          </Trackpoint>
          <Trackpoint>
            <Time>2021-08-09T13:35:37.000Z</Time>
            <Position>
              <LatitudeDegrees>43.0862416885793209075927734375</LatitudeDegrees>
              <LongitudeDegrees>-1.75541569478809833526611328125</LongitudeDegrees>
            </Position>
            <AltitudeMeters>460.399993896484375</AltitudeMeters>
            <DistanceMeters>NAN</DistanceMeters>
          </Trackpoint>
          <Trackpoint>
            <Time>2021-08-09T13:35:38.000Z</Time>
            <Position>
              <LatitudeDegrees>43.08627605438232421875</LatitudeDegrees>
              <LongitudeDegrees>-1.7552934028208255767822265625</LongitudeDegrees>
            </Position>
            <AltitudeMeters>459.399993896484375</AltitudeMeters>
            <DistanceMeters>NAN</DistanceMeters>
          </Trackpoint>
          <Trackpoint>
            <Time>2021-08-09T13:35:39.000Z</Time>
            <Position>
              <LatitudeDegrees>43.08633715845644474029541015625</LatitudeDegrees>
              <LongitudeDegrees>-1.75511998124420642852783203125</LongitudeDegrees>
            </Position>
            <AltitudeMeters>459</AltitudeMeters>
            <DistanceMeters>NAN</DistanceMeters>
          </Trackpoint>
          <Trackpoint>
            <Time>2021-08-09T13:35:40.000Z</Time>
            <Position>
              <LatitudeDegrees>43.08635660447180271148681640625</LatitudeDegrees>
              <LongitudeDegrees>-1.75504622049629688262939453125</LongitudeDegrees>
            </Position>
            <AltitudeMeters>458.20001220703125</AltitudeMeters>
            <DistanceMeters>NAN</DistanceMeters>
          </Trackpoint>
          <Trackpoint>
            <Time>2021-08-09T13:35:41.000Z</Time>
            <Position>
              <LatitudeDegrees>43.086392395198345184326171875</LatitudeDegrees>
              <LongitudeDegrees>-1.75489618442952632904052734375</LongitudeDegrees>
            </Position>
            <AltitudeMeters>457.600006103515625</AltitudeMeters>
            <DistanceMeters>NAN</DistanceMeters>
          </Trackpoint>
          <Trackpoint>
            <Time>2021-08-09T13:35:42.000Z</Time>
            <Position>
              <LatitudeDegrees>43.08641762472689151763916015625</LatitudeDegrees>
              <LongitudeDegrees>-1.7547686956822872161865234375</LongitudeDegrees>
            </Position>
            <AltitudeMeters>457.20001220703125</AltitudeMeters>
            <DistanceMeters>NAN</DistanceMeters>
          </Trackpoint>
          <Trackpoint>
            <Time>2021-08-09T13:35:44.000Z</Time>
            <Position>
              <LatitudeDegrees>43.08643807657063007354736328125</LatitudeDegrees>
              <LongitudeDegrees>-1.7545172385871410369873046875</LongitudeDegrees>
            </Position>
            <AltitudeMeters>456.20001220703125</AltitudeMeters>
            <DistanceMeters>NAN</DistanceMeters>
          </Trackpoint>
          <Trackpoint>
            <Time>2021-08-09T13:35:45.000Z</Time>
            <Position>
              <LatitudeDegrees>43.0864351429045200347900390625</LatitudeDegrees>
              <LongitudeDegrees>-1.75435035489499568939208984375</LongitudeDegrees>
            </Position>
            <AltitudeMeters>455.20001220703125</AltitudeMeters>
            <DistanceMeters>NAN</DistanceMeters>
          </Trackpoint>
          <Trackpoint>
            <Time>2021-08-09T13:35:46.000Z</Time>
            <Position>
              <LatitudeDegrees>43.08642718009650707244873046875</LatitudeDegrees>
              <LongitudeDegrees>-1.75421188585460186004638671875</LongitudeDegrees>
            </Position>
            <AltitudeMeters>455</AltitudeMeters>
            <DistanceMeters>NAN</DistanceMeters>
          </Trackpoint>
          <Trackpoint>
            <Time>2021-08-09T13:35:48.000Z</Time>
            <Position>
              <LatitudeDegrees>43.0864195525646209716796875</LatitudeDegrees>
              <LongitudeDegrees>-1.75395757891237735748291015625</LongitudeDegrees>
            </Position>
            <AltitudeMeters>453.600006103515625</AltitudeMeters>
            <DistanceMeters>NAN</DistanceMeters>
          </Trackpoint>
          <Trackpoint>
            <Time>2021-08-09T13:35:50.000Z</Time>
            <Position>
              <LatitudeDegrees>43.0864066444337368011474609375</LatitudeDegrees>
              <LongitudeDegrees>-1.753682233393192291259765625</LongitudeDegrees>
            </Position>
            <AltitudeMeters>452.20001220703125</AltitudeMeters>
            <DistanceMeters>NAN</DistanceMeters>
          </Trackpoint>
          <Trackpoint>
            <Time>2021-08-09T13:35:52.000Z</Time>
            <Position>
              <LatitudeDegrees>43.0863793194293975830078125</LatitudeDegrees>
              <LongitudeDegrees>-1.75342264585196971893310546875</LongitudeDegrees>
            </Position>
            <AltitudeMeters>450.600006103515625</AltitudeMeters>
            <DistanceMeters>NAN</DistanceMeters>
          </Trackpoint>
          <Trackpoint>
            <Time>2021-08-09T13:35:53.000Z</Time>
            <Position>
              <LatitudeDegrees>43.08635040186345577239990234375</LatitudeDegrees>
              <LongitudeDegrees>-1.75329926423728466033935546875</LongitudeDegrees>
            </Position>
            <AltitudeMeters>450.20001220703125</AltitudeMeters>
            <DistanceMeters>NAN</DistanceMeters>
          </Trackpoint>
          <Trackpoint>
            <Time>2021-08-09T13:35:55.000Z</Time>
            <Position>
              <LatitudeDegrees>43.0862654931843280792236328125</LatitudeDegrees>
              <LongitudeDegrees>-1.75306272692978382110595703125</LongitudeDegrees>
            </Position>
            <AltitudeMeters>449.399993896484375</AltitudeMeters>
            <DistanceMeters>NAN</DistanceMeters>
          </Trackpoint>
          <Trackpoint>
            <Time>2021-08-09T13:35:56.000Z</Time>
            <Position>
              <LatitudeDegrees>43.0862224102020263671875</LatitudeDegrees>
              <LongitudeDegrees>-1.7529444582760334014892578125</LongitudeDegrees>
            </Position>
            <AltitudeMeters>449</AltitudeMeters>
            <DistanceMeters>NAN</DistanceMeters>
          </Trackpoint>
          <Trackpoint>
            <Time>2021-08-09T13:35:57.000Z</Time>
            <Position>
              <LatitudeDegrees>43.0861900560557842254638671875</LatitudeDegrees>
              <LongitudeDegrees>-1.75282266922295093536376953125</LongitudeDegrees>
            </Position>
            <AltitudeMeters>448.79998779296875</AltitudeMeters>
            <DistanceMeters>NAN</DistanceMeters>
          </Trackpoint>
          <Trackpoint>
            <Time>2021-08-09T13:35:58.000Z</Time>
            <Position>
              <LatitudeDegrees>43.08616650290787220001220703125</LatitudeDegrees>
              <LongitudeDegrees>-1.75269861705601215362548828125</LongitudeDegrees>
            </Position>
            <AltitudeMeters>448.20001220703125</AltitudeMeters>
            <DistanceMeters>NAN</DistanceMeters>
          </Trackpoint>
          <Trackpoint>
            <Time>2021-08-09T13:36:00.000Z</Time>
            <Position>
              <LatitudeDegrees>43.0861427821218967437744140625</LatitudeDegrees>
              <LongitudeDegrees>-1.7524529434740543365478515625</LongitudeDegrees>
            </Position>
            <AltitudeMeters>447.399993896484375</AltitudeMeters>
            <DistanceMeters>NAN</DistanceMeters>
          </Trackpoint>
          <Trackpoint>
            <Time>2021-08-09T13:36:01.000Z</Time>
            <Position>
              <LatitudeDegrees>43.08613322675228118896484375</LatitudeDegrees>
              <LongitudeDegrees>-1.75232780165970325469970703125</LongitudeDegrees>
            </Position>
            <AltitudeMeters>446.600006103515625</AltitudeMeters>
            <DistanceMeters>NAN</DistanceMeters>
          </Trackpoint>
          <Trackpoint>
            <Time>2021-08-09T13:36:02.000Z</Time>
            <Position>
              <LatitudeDegrees>43.08612492866814136505126953125</LatitudeDegrees>
              <LongitudeDegrees>-1.7522038333117961883544921875</LongitudeDegrees>
            </Position>
            <AltitudeMeters>446.20001220703125</AltitudeMeters>
            <DistanceMeters>NAN</DistanceMeters>
          </Trackpoint>
          <Trackpoint>
            <Time>2021-08-09T13:36:03.000Z</Time>
            <Position>
              <LatitudeDegrees>43.0861166305840015411376953125</LatitudeDegrees>
              <LongitudeDegrees>-1.75207860767841339111328125</LongitudeDegrees>
            </Position>
            <AltitudeMeters>445.399993896484375</AltitudeMeters>
            <DistanceMeters>NAN</DistanceMeters>
          </Trackpoint>
          <Trackpoint>
            <Time>2021-08-09T13:36:04.000Z</Time>
            <Position>
              <LatitudeDegrees>43.08610917069017887115478515625</LatitudeDegrees>
              <LongitudeDegrees>-1.75195564515888690948486328125</LongitudeDegrees>
            </Position>
            <AltitudeMeters>445</AltitudeMeters>
            <DistanceMeters>NAN</DistanceMeters>
          </Trackpoint>
          <Trackpoint>
            <Time>2021-08-09T13:36:05.000Z</Time>
            <Position>
              <LatitudeDegrees>43.086093328893184661865234375</LatitudeDegrees>
              <LongitudeDegrees>-1.7518320120871067047119140625</LongitudeDegrees>
            </Position>
            <AltitudeMeters>444.399993896484375</AltitudeMeters>
            <DistanceMeters>NAN</DistanceMeters>
          </Trackpoint>
          <Trackpoint>
            <Time>2021-08-09T13:36:06.000Z</Time>
            <Position>
              <LatitudeDegrees>43.08606407605111598968505859375</LatitudeDegrees>
              <LongitudeDegrees>-1.75171139650046825408935546875</LongitudeDegrees>
            </Position>
            <AltitudeMeters>444</AltitudeMeters>
            <DistanceMeters>NAN</DistanceMeters>
          </Trackpoint>
          <Trackpoint>
            <Time>2021-08-09T13:36:09.000Z</Time>
            <Position>
              <LatitudeDegrees>43.08593474328517913818359375</LatitudeDegrees>
              <LongitudeDegrees>-1.75138399936258792877197265625</LongitudeDegrees>
            </Position>
            <AltitudeMeters>442.79998779296875</AltitudeMeters>
            <DistanceMeters>NAN</DistanceMeters>
          </Trackpoint>
          <Trackpoint>
            <Time>2021-08-09T13:36:10.000Z</Time>
            <Position>
              <LatitudeDegrees>43.085890822112560272216796875</LatitudeDegrees>
              <LongitudeDegrees>-1.75128526054322719573974609375</LongitudeDegrees>
            </Position>
            <AltitudeMeters>441.79998779296875</AltitudeMeters>
            <DistanceMeters>NAN</DistanceMeters>
          </Trackpoint>
          <Trackpoint>
            <Time>2021-08-09T13:36:11.000Z</Time>
            <Position>
              <LatitudeDegrees>43.08585268445312976837158203125</LatitudeDegrees>
              <LongitudeDegrees>-1.75118601880967617034912109375</LongitudeDegrees>
            </Position>
            <AltitudeMeters>441.399993896484375</AltitudeMeters>
            <DistanceMeters>NAN</DistanceMeters>
          </Trackpoint>
          <Trackpoint>
            <Time>2021-08-09T13:36:12.000Z</Time>
            <Position>
              <LatitudeDegrees>43.0858175642788410186767578125</LatitudeDegrees>
              <LongitudeDegrees>-1.75108878873288631439208984375</LongitudeDegrees>
            </Position>
            <AltitudeMeters>440.600006103515625</AltitudeMeters>
            <DistanceMeters>NAN</DistanceMeters>
          </Trackpoint>
          <Trackpoint>
            <Time>2021-08-09T13:36:13.000Z</Time>
            <Position>
              <LatitudeDegrees>43.08578378520905971527099609375</LatitudeDegrees>
              <LongitudeDegrees>-1.7509914748370647430419921875</LongitudeDegrees>
            </Position>
            <AltitudeMeters>439.79998779296875</AltitudeMeters>
            <DistanceMeters>NAN</DistanceMeters>
          </Trackpoint>
          <Trackpoint>
            <Time>2021-08-09T13:36:14.000Z</Time>
            <Position>
              <LatitudeDegrees>43.085756041109561920166015625</LatitudeDegrees>
              <LongitudeDegrees>-1.75088963471353054046630859375</LongitudeDegrees>
            </Position>
            <AltitudeMeters>439.399993896484375</AltitudeMeters>
            <DistanceMeters>NAN</DistanceMeters>
          </Trackpoint>
          <Trackpoint>
            <Time>2021-08-09T13:36:16.000Z</Time>
            <Position>
              <LatitudeDegrees>43.08572460897266864776611328125</LatitudeDegrees>
              <LongitudeDegrees>-1.75066147930920124053955078125</LongitudeDegrees>
            </Position>
            <AltitudeMeters>438.399993896484375</AltitudeMeters>
            <DistanceMeters>NAN</DistanceMeters>
          </Trackpoint>
          <Trackpoint>
            <Time>2021-08-09T13:36:18.000Z</Time>
            <Position>
              <LatitudeDegrees>43.0857203342020511627197265625</LatitudeDegrees>
              <LongitudeDegrees>-1.7504225112497806549072265625</LongitudeDegrees>
            </Position>
            <AltitudeMeters>437.20001220703125</AltitudeMeters>
            <DistanceMeters>NAN</DistanceMeters>
          </Trackpoint>
          <Trackpoint>
            <Time>2021-08-09T13:36:19.000Z</Time>
            <Position>
              <LatitudeDegrees>43.08572058565914630889892578125</LatitudeDegrees>
              <LongitudeDegrees>-1.75028555095195770263671875</LongitudeDegrees>
            </Position>
            <AltitudeMeters>436.20001220703125</AltitudeMeters>
            <DistanceMeters>NAN</DistanceMeters>
          </Trackpoint>
          <Trackpoint>
            <Time>2021-08-09T13:36:20.000Z</Time>
            <Position>
              <LatitudeDegrees>43.08572343550622463226318359375</LatitudeDegrees>
              <LongitudeDegrees>-1.7501770891249179840087890625</LongitudeDegrees>
            </Position>
            <AltitudeMeters>435.600006103515625</AltitudeMeters>
            <DistanceMeters>NAN</DistanceMeters>
          </Trackpoint>
          <Trackpoint>
            <Time>2021-08-09T13:36:21.000Z</Time>
            <Position>
              <LatitudeDegrees>43.08572662062942981719970703125</LatitudeDegrees>
              <LongitudeDegrees>-1.75009519793093204498291015625</LongitudeDegrees>
            </Position>
            <AltitudeMeters>435.20001220703125</AltitudeMeters>
            <DistanceMeters>NAN</DistanceMeters>
          </Trackpoint>
          <Trackpoint>
            <Time>2021-08-09T13:36:22.000Z</Time>
            <Position>
              <LatitudeDegrees>43.08573198504745960235595703125</LatitudeDegrees>
              <LongitudeDegrees>-1.74999679438769817352294921875</LongitudeDegrees>
            </Position>
            <AltitudeMeters>434.399993896484375</AltitudeMeters>
            <DistanceMeters>NAN</DistanceMeters>
          </Trackpoint>
          <Trackpoint>
            <Time>2021-08-09T13:36:23.000Z</Time>
            <Position>
              <LatitudeDegrees>43.08573491871356964111328125</LatitudeDegrees>
              <LongitudeDegrees>-1.74990559928119182586669921875</LongitudeDegrees>
            </Position>
            <AltitudeMeters>434.20001220703125</AltitudeMeters>
            <DistanceMeters>NAN</DistanceMeters>
          </Trackpoint>
          <Trackpoint>
            <Time>2021-08-09T13:36:24.000Z</Time>
            <Position>
              <LatitudeDegrees>43.08573047630488872528076171875</LatitudeDegrees>
              <LongitudeDegrees>-1.7498260550200939178466796875</LongitudeDegrees>
            </Position>
            <AltitudeMeters>434</AltitudeMeters>
            <DistanceMeters>NAN</DistanceMeters>
          </Trackpoint>
          <Trackpoint>
            <Time>2021-08-09T13:36:25.000Z</Time>
            <Position>
              <LatitudeDegrees>43.08571874164044857025146484375</LatitudeDegrees>
              <LongitudeDegrees>-1.7497593350708484649658203125</LongitudeDegrees>
            </Position>
            <AltitudeMeters>433.79998779296875</AltitudeMeters>
            <DistanceMeters>NAN</DistanceMeters>
          </Trackpoint>
          <Trackpoint>
            <Time>2021-08-09T13:36:26.000Z</Time>
            <Position>
              <LatitudeDegrees>43.08570600114762783050537109375</LatitudeDegrees>
              <LongitudeDegrees>-1.74970342777669429779052734375</LongitudeDegrees>
            </Position>
            <AltitudeMeters>433.79998779296875</AltitudeMeters>
            <DistanceMeters>NAN</DistanceMeters>
          </Trackpoint>
          <Trackpoint>
            <Time>2021-08-09T13:36:27.000Z</Time>
            <Position>
              <LatitudeDegrees>43.08569879271090030670166015625</LatitudeDegrees>
              <LongitudeDegrees>-1.74965514801442623138427734375</LongitudeDegrees>
            </Position>
            <AltitudeMeters>433.79998779296875</AltitudeMeters>
            <DistanceMeters>NAN</DistanceMeters>
          </Trackpoint>
          <Trackpoint>
            <Time>2021-08-09T13:36:28.000Z</Time>
            <Position>
              <LatitudeDegrees>43.08569694869220256805419921875</LatitudeDegrees>
              <LongitudeDegrees>-1.74961240030825138092041015625</LongitudeDegrees>
            </Position>
            <AltitudeMeters>433.79998779296875</AltitudeMeters>
            <DistanceMeters>NAN</DistanceMeters>
          </Trackpoint>
          <Trackpoint>
            <Time>2021-08-09T13:36:29.000Z</Time>
            <Position>
              <LatitudeDegrees>43.08570264838635921478271484375</LatitudeDegrees>
              <LongitudeDegrees>-1.7495806328952312469482421875</LongitudeDegrees>
            </Position>
            <AltitudeMeters>433.79998779296875</AltitudeMeters>
            <DistanceMeters>NAN</DistanceMeters>
          </Trackpoint>
          <Trackpoint>
            <Time>2021-08-09T13:36:30.000Z</Time>
            <Position>
              <LatitudeDegrees>43.08571287430822849273681640625</LatitudeDegrees>
              <LongitudeDegrees>-1.74956462346017360687255859375</LongitudeDegrees>
            </Position>
            <AltitudeMeters>434</AltitudeMeters>
            <DistanceMeters>NAN</DistanceMeters>
          </Trackpoint>
          <Trackpoint>
            <Time>2021-08-09T13:36:31.000Z</Time>
            <Position>
              <LatitudeDegrees>43.085715472698211669921875</LatitudeDegrees>
              <LongitudeDegrees>-1.74956344999372959136962890625</LongitudeDegrees>
            </Position>
            <AltitudeMeters>434.20001220703125</AltitudeMeters>
            <DistanceMeters>NAN</DistanceMeters>
          </Trackpoint>
          <Trackpoint>
            <Time>2021-08-09T13:36:32.000Z</Time>
            <Position>
              <LatitudeDegrees>43.085715472698211669921875</LatitudeDegrees>
              <LongitudeDegrees>-1.74956344999372959136962890625</LongitudeDegrees>
            </Position>
            <AltitudeMeters>434.20001220703125</AltitudeMeters>
            <DistanceMeters>NAN</DistanceMeters>
          </Trackpoint>
          <Trackpoint>
            <Time>2021-08-09T13:36:42.000Z</Time>
            <Position>
              <LatitudeDegrees>43.085715472698211669921875</LatitudeDegrees>
              <LongitudeDegrees>-1.74956344999372959136962890625</LongitudeDegrees>
            </Position>
            <AltitudeMeters>434.399993896484375</AltitudeMeters>
            <DistanceMeters>NAN</DistanceMeters>
          </Trackpoint>
          <Trackpoint>
            <Time>2021-08-09T13:36:50.000Z</Time>
            <Position>
              <LatitudeDegrees>43.085715472698211669921875</LatitudeDegrees>
              <LongitudeDegrees>-1.74956344999372959136962890625</LongitudeDegrees>
            </Position>
            <AltitudeMeters>434.399993896484375</AltitudeMeters>
            <DistanceMeters>NAN</DistanceMeters>
          </Trackpoint>
          <Trackpoint>
            <Time>2021-08-09T13:37:08.000Z</Time>
            <Position>
              <LatitudeDegrees>43.085715472698211669921875</LatitudeDegrees>
              <LongitudeDegrees>-1.74956344999372959136962890625</LongitudeDegrees>
            </Position>
            <AltitudeMeters>434.20001220703125</AltitudeMeters>
            <DistanceMeters>NAN</DistanceMeters>
          </Trackpoint>
          <Trackpoint>
            <Time>2021-08-09T13:37:33.000Z</Time>
            <Position>
              <LatitudeDegrees>43.085715472698211669921875</LatitudeDegrees>
              <LongitudeDegrees>-1.74956344999372959136962890625</LongitudeDegrees>
            </Position>
            <AltitudeMeters>434.20001220703125</AltitudeMeters>
            <DistanceMeters>NAN</DistanceMeters>
          </Trackpoint>
          <Trackpoint>
            <Time>2021-08-09T13:37:57.000Z</Time>
            <Position>
              <LatitudeDegrees>43.085715472698211669921875</LatitudeDegrees>
              <LongitudeDegrees>-1.74956344999372959136962890625</LongitudeDegrees>
            </Position>
            <AltitudeMeters>433.79998779296875</AltitudeMeters>
            <DistanceMeters>NAN</DistanceMeters>
          </Trackpoint>
          <Trackpoint>
            <Time>2021-08-09T13:37:59.000Z</Time>
            <Position>
              <LatitudeDegrees>43.085715472698211669921875</LatitudeDegrees>
              <LongitudeDegrees>-1.74956344999372959136962890625</LongitudeDegrees>
            </Position>
            <AltitudeMeters>433.79998779296875</AltitudeMeters>
            <DistanceMeters>NAN</DistanceMeters>
          </Trackpoint>
          <Trackpoint>
            <Time>2021-08-09T13:38:17.000Z</Time>
            <Position>
              <LatitudeDegrees>43.085715472698211669921875</LatitudeDegrees>
              <LongitudeDegrees>-1.74956344999372959136962890625</LongitudeDegrees>
            </Position>
            <AltitudeMeters>433.399993896484375</AltitudeMeters>
            <DistanceMeters>NAN</DistanceMeters>
          </Trackpoint>
          <Trackpoint>
            <Time>2021-08-09T13:38:34.000Z</Time>
            <Position>
              <LatitudeDegrees>43.085715472698211669921875</LatitudeDegrees>
              <LongitudeDegrees>-1.74956344999372959136962890625</LongitudeDegrees>
            </Position>
            <AltitudeMeters>434</AltitudeMeters>
            <DistanceMeters>NAN</DistanceMeters>
          </Trackpoint>
          <Trackpoint>
            <Time>2021-08-09T13:38:46.000Z</Time>
            <Position>
              <LatitudeDegrees>43.08575428090989589691162109375</LatitudeDegrees>
              <LongitudeDegrees>-1.7495608516037464141845703125</LongitudeDegrees>
            </Position>
            <AltitudeMeters>434.20001220703125</AltitudeMeters>
            <DistanceMeters>NAN</DistanceMeters>
          </Trackpoint>
          <Trackpoint>
            <Time>2021-08-09T13:38:47.000Z</Time>
            <Position>
              <LatitudeDegrees>43.0857749842107295989990234375</LatitudeDegrees>
              <LongitudeDegrees>-1.74955540336668491363525390625</LongitudeDegrees>
            </Position>
            <AltitudeMeters>434.20001220703125</AltitudeMeters>
            <DistanceMeters>NAN</DistanceMeters>
          </Trackpoint>
          <Trackpoint>
            <Time>2021-08-09T13:38:48.000Z</Time>
            <Position>
              <LatitudeDegrees>43.0857934243977069854736328125</LatitudeDegrees>
              <LongitudeDegrees>-1.74955054186284542083740234375</LongitudeDegrees>
            </Position>
            <AltitudeMeters>434.20001220703125</AltitudeMeters>
            <DistanceMeters>NAN</DistanceMeters>
          </Trackpoint>
          <Trackpoint>
            <Time>2021-08-09T13:38:49.000Z</Time>
            <Position>
              <LatitudeDegrees>43.08581194840371608734130859375</LatitudeDegrees>
              <LongitudeDegrees>-1.7495501227676868438720703125</LongitudeDegrees>
            </Position>
            <AltitudeMeters>434.20001220703125</AltitudeMeters>
            <DistanceMeters>NAN</DistanceMeters>
          </Trackpoint>
          <Trackpoint>
            <Time>2021-08-09T13:38:50.000Z</Time>
            <Position>
              <LatitudeDegrees>43.085829801857471466064453125</LatitudeDegrees>
              <LongitudeDegrees>-1.749554313719272613525390625</LongitudeDegrees>
            </Position>
            <AltitudeMeters>434</AltitudeMeters>
            <DistanceMeters>NAN</DistanceMeters>
          </Trackpoint>
          <Trackpoint>
            <Time>2021-08-09T13:38:51.000Z</Time>
            <Position>
              <LatitudeDegrees>43.08584623038768768310546875</LatitudeDegrees>
              <LongitudeDegrees>-1.74955657683312892913818359375</LongitudeDegrees>
            </Position>
            <AltitudeMeters>434</AltitudeMeters>
            <DistanceMeters>NAN</DistanceMeters>
          </Trackpoint>
          <Trackpoint>
            <Time>2021-08-09T13:38:54.000Z</Time>
            <Position>
              <LatitudeDegrees>43.0858831107616424560546875</LatitudeDegrees>
              <LongitudeDegrees>-1.74956730566918849945068359375</LongitudeDegrees>
            </Position>
            <AltitudeMeters>433.600006103515625</AltitudeMeters>
            <DistanceMeters>NAN</DistanceMeters>
          </Trackpoint>
          <Trackpoint>
            <Time>2021-08-09T13:38:55.000Z</Time>
            <Position>
              <LatitudeDegrees>43.0858919955790042877197265625</LatitudeDegrees>
              <LongitudeDegrees>-1.74957074224948883056640625</LongitudeDegrees>
            </Position>
            <AltitudeMeters>433.399993896484375</AltitudeMeters>
            <DistanceMeters>NAN</DistanceMeters>
          </Trackpoint>
          <Trackpoint>
            <Time>2021-08-09T13:38:56.000Z</Time>
            <Position>
              <LatitudeDegrees>43.0858970247209072113037109375</LatitudeDegrees>
              <LongitudeDegrees>-1.749575436115264892578125</LongitudeDegrees>
            </Position>
            <AltitudeMeters>433.20001220703125</AltitudeMeters>
            <DistanceMeters>NAN</DistanceMeters>
          </Trackpoint>
          <Trackpoint>
            <Time>2021-08-09T13:38:57.000Z</Time>
            <Position>
              <LatitudeDegrees>43.08589945547282695770263671875</LatitudeDegrees>
              <LongitudeDegrees>-1.74957820214331150054931640625</LongitudeDegrees>
            </Position>
            <AltitudeMeters>433</AltitudeMeters>
            <DistanceMeters>NAN</DistanceMeters>
          </Trackpoint>
          <Trackpoint>
            <Time>2021-08-09T13:38:58.000Z</Time>
            <Position>
              <LatitudeDegrees>43.08590197004377841949462890625</LatitudeDegrees>
              <LongitudeDegrees>-1.7495809681713581085205078125</LongitudeDegrees>
            </Position>
            <AltitudeMeters>433</AltitudeMeters>
            <DistanceMeters>NAN</DistanceMeters>
          </Trackpoint>
          <Trackpoint>
            <Time>2021-08-09T13:38:59.000Z</Time>
            <Position>
              <LatitudeDegrees>43.0859101004898548126220703125</LatitudeDegrees>
              <LongitudeDegrees>-1.749585829675197601318359375</LongitudeDegrees>
            </Position>
            <AltitudeMeters>432.79998779296875</AltitudeMeters>
            <DistanceMeters>NAN</DistanceMeters>
          </Trackpoint>
          <Trackpoint>
            <Time>2021-08-09T13:39:00.000Z</Time>
            <Position>
              <LatitudeDegrees>43.08591940440237522125244140625</LatitudeDegrees>
              <LongitudeDegrees>-1.74958993680775165557861328125</LongitudeDegrees>
            </Position>
            <AltitudeMeters>432.600006103515625</AltitudeMeters>
            <DistanceMeters>NAN</DistanceMeters>
          </Trackpoint>
          <Trackpoint>
            <Time>2021-08-09T13:39:01.000Z</Time>
            <Position>
              <LatitudeDegrees>43.085921667516231536865234375</LatitudeDegrees>
              <LongitudeDegrees>-1.7495927028357982635498046875</LongitudeDegrees>
            </Position>
            <AltitudeMeters>432.600006103515625</AltitudeMeters>
            <DistanceMeters>NAN</DistanceMeters>
          </Trackpoint>
          <Trackpoint>
            <Time>2021-08-09T13:39:02.000Z</Time>
            <Position>
              <LatitudeDegrees>43.085926361382007598876953125</LatitudeDegrees>
              <LongitudeDegrees>-1.7495923675596714019775390625</LongitudeDegrees>
            </Position>
            <AltitudeMeters>432.399993896484375</AltitudeMeters>
            <DistanceMeters>NAN</DistanceMeters>
          </Trackpoint>
          <Trackpoint>
            <Time>2021-08-09T13:39:03.000Z</Time>
            <Position>
              <LatitudeDegrees>43.0859375931322574615478515625</LatitudeDegrees>
              <LongitudeDegrees>-1.74959664233028888702392578125</LongitudeDegrees>
            </Position>
            <AltitudeMeters>432.399993896484375</AltitudeMeters>
            <DistanceMeters>NAN</DistanceMeters>
          </Trackpoint>
          <Trackpoint>
            <Time>2021-08-09T13:39:04.000Z</Time>
            <Position>
              <LatitudeDegrees>43.0859533511102199554443359375</LatitudeDegrees>
              <LongitudeDegrees>-1.749598570168018341064453125</LongitudeDegrees>
            </Position>
            <AltitudeMeters>432.20001220703125</AltitudeMeters>
            <DistanceMeters>NAN</DistanceMeters>
          </Trackpoint>
          <Trackpoint>
            <Time>2021-08-09T13:39:05.000Z</Time>
            <Position>
              <LatitudeDegrees>43.08596919290721416473388671875</LatitudeDegrees>
              <LongitudeDegrees>-1.7496111430227756500244140625</LongitudeDegrees>
            </Position>
            <AltitudeMeters>432.20001220703125</AltitudeMeters>
            <DistanceMeters>NAN</DistanceMeters>
          </Trackpoint>
          <Trackpoint>
            <Time>2021-08-09T13:39:06.000Z</Time>
            <Position>
              <LatitudeDegrees>43.08597363531589508056640625</LatitudeDegrees>
              <LongitudeDegrees>-1.74962681718170642852783203125</LongitudeDegrees>
            </Position>
            <AltitudeMeters>432.20001220703125</AltitudeMeters>
            <DistanceMeters>NAN</DistanceMeters>
          </Trackpoint>
          <Trackpoint>
            <Time>2021-08-09T13:39:07.000Z</Time>
            <Position>
              <LatitudeDegrees>43.08597288094460964202880859375</LatitudeDegrees>
              <LongitudeDegrees>-1.7496362887322902679443359375</LongitudeDegrees>
            </Position>
            <AltitudeMeters>432</AltitudeMeters>
            <DistanceMeters>NAN</DistanceMeters>
          </Trackpoint>
          <Trackpoint>
            <Time>2021-08-09T13:39:08.000Z</Time>
            <Position>
              <LatitudeDegrees>43.08597288094460964202880859375</LatitudeDegrees>
              <LongitudeDegrees>-1.7496362887322902679443359375</LongitudeDegrees>
            </Position>
            <AltitudeMeters>432</AltitudeMeters>
            <DistanceMeters>NAN</DistanceMeters>
          </Trackpoint>
          <Trackpoint>
            <Time>2021-08-09T13:39:09.000Z</Time>
            <Position>
              <LatitudeDegrees>43.08597288094460964202880859375</LatitudeDegrees>
              <LongitudeDegrees>-1.7496362887322902679443359375</LongitudeDegrees>
            </Position>
            <AltitudeMeters>431.79998779296875</AltitudeMeters>
            <DistanceMeters>NAN</DistanceMeters>
          </Trackpoint>
          <Trackpoint>
            <Time>2021-08-09T13:39:16.000Z</Time>
            <Position>
              <LatitudeDegrees>43.08597288094460964202880859375</LatitudeDegrees>
              <LongitudeDegrees>-1.7496362887322902679443359375</LongitudeDegrees>
            </Position>
            <AltitudeMeters>431.399993896484375</AltitudeMeters>
            <DistanceMeters>NAN</DistanceMeters>
          </Trackpoint>
          <Trackpoint>
            <Time>2021-08-09T13:40:50.000Z</Time>
            <Position>
              <LatitudeDegrees>43.08597288094460964202880859375</LatitudeDegrees>
              <LongitudeDegrees>-1.7496362887322902679443359375</LongitudeDegrees>
            </Position>
            <AltitudeMeters>432</AltitudeMeters>
            <DistanceMeters>NAN</DistanceMeters>
          </Trackpoint>
          <Trackpoint>
            <Time>2021-08-10T08:14:12.000Z</Time>
            <Position>
              <LatitudeDegrees>43.08564598672091960906982421875</LatitudeDegrees>
              <LongitudeDegrees>-1.749420873820781707763671875</LongitudeDegrees>
            </Position>
            <AltitudeMeters>427</AltitudeMeters>
            <DistanceMeters>NAN</DistanceMeters>
          </Trackpoint>
          <Trackpoint>
            <Time>2021-08-10T08:14:36.000Z</Time>
            <Position>
              <LatitudeDegrees>43.085625953972339630126953125</LatitudeDegrees>
              <LongitudeDegrees>-1.74936681054532527923583984375</LongitudeDegrees>
            </Position>
            <AltitudeMeters>428.20001220703125</AltitudeMeters>
            <DistanceMeters>NAN</DistanceMeters>
          </Trackpoint>
          <Trackpoint>
            <Time>2021-08-10T08:14:37.000Z</Time>
            <Position>
              <LatitudeDegrees>43.0856103636324405670166015625</LatitudeDegrees>
              <LongitudeDegrees>-1.74934149719774723052978515625</LongitudeDegrees>
            </Position>
            <AltitudeMeters>428.20001220703125</AltitudeMeters>
            <DistanceMeters>NAN</DistanceMeters>
          </Trackpoint>
          <Trackpoint>
            <Time>2021-08-10T08:14:39.000Z</Time>
            <Position>
              <LatitudeDegrees>43.0855786800384521484375</LatitudeDegrees>
              <LongitudeDegrees>-1.74930780194699764251708984375</LongitudeDegrees>
            </Position>
            <AltitudeMeters>428.20001220703125</AltitudeMeters>
            <DistanceMeters>NAN</DistanceMeters>
          </Trackpoint>
          <Trackpoint>
            <Time>2021-08-10T08:14:40.000Z</Time>
            <Position>
              <LatitudeDegrees>43.0855600722134113311767578125</LatitudeDegrees>
              <LongitudeDegrees>-1.7493000067770481109619140625</LongitudeDegrees>
            </Position>
            <AltitudeMeters>428.20001220703125</AltitudeMeters>
            <DistanceMeters>NAN</DistanceMeters>
          </Trackpoint>
          <Trackpoint>
            <Time>2021-08-10T08:14:41.000Z</Time>
            <Position>
              <LatitudeDegrees>43.085546828806400299072265625</LatitudeDegrees>
              <LongitudeDegrees>-1.7492829076945781707763671875</LongitudeDegrees>
            </Position>
            <AltitudeMeters>428.20001220703125</AltitudeMeters>
            <DistanceMeters>NAN</DistanceMeters>
          </Trackpoint>
          <Trackpoint>
            <Time>2021-08-10T08:14:42.000Z</Time>
            <Position>
              <LatitudeDegrees>43.08553484268486499786376953125</LatitudeDegrees>
              <LongitudeDegrees>-1.74926002509891986846923828125</LongitudeDegrees>
            </Position>
            <AltitudeMeters>428.399993896484375</AltitudeMeters>
            <DistanceMeters>NAN</DistanceMeters>
          </Trackpoint>
          <Trackpoint>
            <Time>2021-08-10T08:14:44.000Z</Time>
            <Position>
              <LatitudeDegrees>43.08551271446049213409423828125</LatitudeDegrees>
              <LongitudeDegrees>-1.74922700040042400360107421875</LongitudeDegrees>
            </Position>
            <AltitudeMeters>428.600006103515625</AltitudeMeters>
            <DistanceMeters>NAN</DistanceMeters>
          </Trackpoint>
          <Trackpoint>
            <Time>2021-08-10T08:14:45.000Z</Time>
            <Position>
              <LatitudeDegrees>43.08550450019538402557373046875</LatitudeDegrees>
              <LongitudeDegrees>-1.749207638204097747802734375</LongitudeDegrees>
            </Position>
            <AltitudeMeters>428.79998779296875</AltitudeMeters>
            <DistanceMeters>NAN</DistanceMeters>
          </Trackpoint>
          <Trackpoint>
            <Time>2021-08-10T08:14:46.000Z</Time>
            <Position>
              <LatitudeDegrees>43.0854946933686733245849609375</LatitudeDegrees>
              <LongitudeDegrees>-1.7491897009313106536865234375</LongitudeDegrees>
            </Position>
            <AltitudeMeters>428.79998779296875</AltitudeMeters>
            <DistanceMeters>NAN</DistanceMeters>
          </Trackpoint>
          <Trackpoint>
            <Time>2021-08-10T08:14:47.000Z</Time>
            <Position>
              <LatitudeDegrees>43.085487149655818939208984375</LatitudeDegrees>
              <LongitudeDegrees>-1.74916564486920833587646484375</LongitudeDegrees>
            </Position>
            <AltitudeMeters>429</AltitudeMeters>
            <DistanceMeters>NAN</DistanceMeters>
          </Trackpoint>
          <Trackpoint>
            <Time>2021-08-10T08:14:48.000Z</Time>
            <Position>
              <LatitudeDegrees>43.0854834616184234619140625</LatitudeDegrees>
              <LongitudeDegrees>-1.74913966096937656402587890625</LongitudeDegrees>
            </Position>
            <AltitudeMeters>429</AltitudeMeters>
            <DistanceMeters>NAN</DistanceMeters>
          </Trackpoint>
          <Trackpoint>
            <Time>2021-08-10T08:14:50.000Z</Time>
            <Position>
              <LatitudeDegrees>43.085481785237789154052734375</LatitudeDegrees>
              <LongitudeDegrees>-1.7490837536752223968505859375</LongitudeDegrees>
            </Position>
            <AltitudeMeters>429.399993896484375</AltitudeMeters>
            <DistanceMeters>NAN</DistanceMeters>
          </Trackpoint>
          <Trackpoint>
            <Time>2021-08-10T08:14:51.000Z</Time>
            <Position>
              <LatitudeDegrees>43.08548270724713802337646484375</LatitudeDegrees>
              <LongitudeDegrees>-1.74906053580343723297119140625</LongitudeDegrees>
            </Position>
            <AltitudeMeters>429.600006103515625</AltitudeMeters>
            <DistanceMeters>NAN</DistanceMeters>
          </Trackpoint>
          <Trackpoint>
            <Time>2021-08-10T08:14:54.000Z</Time>
            <Position>
              <LatitudeDegrees>43.085491172969341278076171875</LatitudeDegrees>
              <LongitudeDegrees>-1.74899985082447528839111328125</LongitudeDegrees>
            </Position>
            <AltitudeMeters>429.79998779296875</AltitudeMeters>
            <DistanceMeters>NAN</DistanceMeters>
          </Trackpoint>
          <Trackpoint>
            <Time>2021-08-10T08:14:57.000Z</Time>
            <Position>
              <LatitudeDegrees>43.08553031645715236663818359375</LatitudeDegrees>
              <LongitudeDegrees>-1.7489073984324932098388671875</LongitudeDegrees>
            </Position>
            <AltitudeMeters>430.399993896484375</AltitudeMeters>
            <DistanceMeters>NAN</DistanceMeters>
          </Trackpoint>
          <Trackpoint>
            <Time>2021-08-10T08:15:00.000Z</Time>
            <Position>
              <LatitudeDegrees>43.08558580465614795684814453125</LatitudeDegrees>
              <LongitudeDegrees>-1.748797930777072906494140625</LongitudeDegrees>
            </Position>
            <AltitudeMeters>431</AltitudeMeters>
            <DistanceMeters>NAN</DistanceMeters>
          </Trackpoint>
          <Trackpoint>
            <Time>2021-08-10T08:15:02.000Z</Time>
            <Position>
              <LatitudeDegrees>43.08561430312693119049072265625</LatitudeDegrees>
              <LongitudeDegrees>-1.74871939234435558319091796875</LongitudeDegrees>
            </Position>
            <AltitudeMeters>431.20001220703125</AltitudeMeters>
            <DistanceMeters>NAN</DistanceMeters>
          </Trackpoint>
          <Trackpoint>
            <Time>2021-08-10T08:15:04.000Z</Time>
            <Position>
              <LatitudeDegrees>43.08563291095197200775146484375</LatitudeDegrees>
              <LongitudeDegrees>-1.74864613451063632965087890625</LongitudeDegrees>
            </Position>
            <AltitudeMeters>431.399993896484375</AltitudeMeters>
            <DistanceMeters>NAN</DistanceMeters>
          </Trackpoint>
          <Trackpoint>
            <Time>2021-08-10T08:15:05.000Z</Time>
            <Position>
              <LatitudeDegrees>43.0856378562748432159423828125</LatitudeDegrees>
              <LongitudeDegrees>-1.7486096732318401336669921875</LongitudeDegrees>
            </Position>
            <AltitudeMeters>431.399993896484375</AltitudeMeters>
            <DistanceMeters>NAN</DistanceMeters>
          </Trackpoint>
          <Trackpoint>
            <Time>2021-08-10T08:15:06.000Z</Time>
            <Position>
              <LatitudeDegrees>43.0856445617973804473876953125</LatitudeDegrees>
              <LongitudeDegrees>-1.74857220612466335296630859375</LongitudeDegrees>
            </Position>
            <AltitudeMeters>431.600006103515625</AltitudeMeters>
            <DistanceMeters>NAN</DistanceMeters>
          </Trackpoint>
          <Trackpoint>
            <Time>2021-08-10T08:15:07.000Z</Time>
            <Position>
              <LatitudeDegrees>43.085655458271503448486328125</LatitudeDegrees>
              <LongitudeDegrees>-1.74853649921715259552001953125</LongitudeDegrees>
            </Position>
            <AltitudeMeters>431.79998779296875</AltitudeMeters>
            <DistanceMeters>NAN</DistanceMeters>
          </Trackpoint>
          <Trackpoint>
            <Time>2021-08-10T08:15:08.000Z</Time>
            <Position>
              <LatitudeDegrees>43.08566643856465816497802734375</LatitudeDegrees>
              <LongitudeDegrees>-1.74849911592900753021240234375</LongitudeDegrees>
            </Position>
            <AltitudeMeters>432</AltitudeMeters>
            <DistanceMeters>NAN</DistanceMeters>
          </Trackpoint>
          <Trackpoint>
            <Time>2021-08-10T08:15:09.000Z</Time>
            <Position>
              <LatitudeDegrees>43.08567347936332225799560546875</LatitudeDegrees>
              <LongitudeDegrees>-1.748469360172748565673828125</LongitudeDegrees>
            </Position>
            <AltitudeMeters>432.20001220703125</AltitudeMeters>
            <DistanceMeters>NAN</DistanceMeters>
          </Trackpoint>
          <Trackpoint>
            <Time>2021-08-10T08:15:10.000Z</Time>
            <Position>
              <LatitudeDegrees>43.08568303473293781280517578125</LatitudeDegrees>
              <LongitudeDegrees>-1.74844362773001194000244140625</LongitudeDegrees>
            </Position>
            <AltitudeMeters>432.399993896484375</AltitudeMeters>
            <DistanceMeters>NAN</DistanceMeters>
          </Trackpoint>
          <Trackpoint>
            <Time>2021-08-10T08:15:11.000Z</Time>
            <Position>
              <LatitudeDegrees>43.08569393120706081390380859375</LatitudeDegrees>
              <LongitudeDegrees>-1.74841395579278469085693359375</LongitudeDegrees>
            </Position>
            <AltitudeMeters>432.600006103515625</AltitudeMeters>
            <DistanceMeters>NAN</DistanceMeters>
          </Trackpoint>
          <Trackpoint>
            <Time>2021-08-10T08:15:12.000Z</Time>
            <Position>
              <LatitudeDegrees>43.0857042409479618072509765625</LatitudeDegrees>
              <LongitudeDegrees>-1.74838160164654254913330078125</LongitudeDegrees>
            </Position>
            <AltitudeMeters>432.600006103515625</AltitudeMeters>
            <DistanceMeters>NAN</DistanceMeters>
          </Trackpoint>
          <Trackpoint>
            <Time>2021-08-10T08:15:13.000Z</Time>
            <Position>
              <LatitudeDegrees>43.08571237139403820037841796875</LatitudeDegrees>
              <LongitudeDegrees>-1.74834874458611011505126953125</LongitudeDegrees>
            </Position>
            <AltitudeMeters>432.79998779296875</AltitudeMeters>
            <DistanceMeters>NAN</DistanceMeters>
          </Trackpoint>
          <Trackpoint>
            <Time>2021-08-10T08:15:14.000Z</Time>
            <Position>
              <LatitudeDegrees>43.085721842944622039794921875</LatitudeDegrees>
              <LongitudeDegrees>-1.748315803706645965576171875</LongitudeDegrees>
            </Position>
            <AltitudeMeters>432.79998779296875</AltitudeMeters>
            <DistanceMeters>NAN</DistanceMeters>
          </Trackpoint>
          <Trackpoint>
            <Time>2021-08-10T08:15:15.000Z</Time>
            <Position>
              <LatitudeDegrees>43.08573198504745960235595703125</LatitudeDegrees>
              <LongitudeDegrees>-1.7482841201126575469970703125</LongitudeDegrees>
            </Position>
            <AltitudeMeters>433</AltitudeMeters>
            <DistanceMeters>NAN</DistanceMeters>
          </Trackpoint>
          <Trackpoint>
            <Time>2021-08-10T08:15:16.000Z</Time>
            <Position>
              <LatitudeDegrees>43.085738606750965118408203125</LatitudeDegrees>
              <LongitudeDegrees>-1.74825386144220829010009765625</LongitudeDegrees>
            </Position>
            <AltitudeMeters>433</AltitudeMeters>
            <DistanceMeters>NAN</DistanceMeters>
          </Trackpoint>
          <Trackpoint>
            <Time>2021-08-10T08:15:17.000Z</Time>
            <Position>
              <LatitudeDegrees>43.08574472554028034210205078125</LatitudeDegrees>
              <LongitudeDegrees>-1.7482234351336956024169921875</LongitudeDegrees>
            </Position>
            <AltitudeMeters>433.20001220703125</AltitudeMeters>
            <DistanceMeters>NAN</DistanceMeters>
          </Trackpoint>
          <Trackpoint>
            <Time>2021-08-10T08:15:18.000Z</Time>
            <Position>
              <LatitudeDegrees>43.08575059287250041961669921875</LatitudeDegrees>
              <LongitudeDegrees>-1.74818999134004116058349609375</LongitudeDegrees>
            </Position>
            <AltitudeMeters>433.20001220703125</AltitudeMeters>
            <DistanceMeters>NAN</DistanceMeters>
          </Trackpoint>
          <Trackpoint>
            <Time>2021-08-10T08:15:19.000Z</Time>
            <Position>
              <LatitudeDegrees>43.08575578965246677398681640625</LatitudeDegrees>
              <LongitudeDegrees>-1.7481552064418792724609375</LongitudeDegrees>
            </Position>
            <AltitudeMeters>433.399993896484375</AltitudeMeters>
            <DistanceMeters>NAN</DistanceMeters>
          </Trackpoint>
          <Trackpoint>
            <Time>2021-08-10T08:15:20.000Z</Time>
            <Position>
              <LatitudeDegrees>43.08575629256665706634521484375</LatitudeDegrees>
              <LongitudeDegrees>-1.7481235228478908538818359375</LongitudeDegrees>
            </Position>
            <AltitudeMeters>433.600006103515625</AltitudeMeters>
            <DistanceMeters>NAN</DistanceMeters>
          </Trackpoint>
          <Trackpoint>
            <Time>2021-08-10T08:15:21.000Z</Time>
            <Position>
              <LatitudeDegrees>43.0857615731656551361083984375</LatitudeDegrees>
              <LongitudeDegrees>-1.7480906657874584197998046875</LongitudeDegrees>
            </Position>
            <AltitudeMeters>433.600006103515625</AltitudeMeters>
            <DistanceMeters>NAN</DistanceMeters>
          </Trackpoint>
          <Trackpoint>
            <Time>2021-08-10T08:15:22.000Z</Time>
            <Position>
              <LatitudeDegrees>43.08576718904078006744384765625</LatitudeDegrees>
              <LongitudeDegrees>-1.7480561323463916778564453125</LongitudeDegrees>
            </Position>
            <AltitudeMeters>433.79998779296875</AltitudeMeters>
            <DistanceMeters>NAN</DistanceMeters>
          </Trackpoint>
          <Trackpoint>
            <Time>2021-08-10T08:15:23.000Z</Time>
            <Position>
              <LatitudeDegrees>43.08577339164912700653076171875</LatitudeDegrees>
              <LongitudeDegrees>-1.7480202578008174896240234375</LongitudeDegrees>
            </Position>
            <AltitudeMeters>433.79998779296875</AltitudeMeters>
            <DistanceMeters>NAN</DistanceMeters>
          </Trackpoint>
          <Trackpoint>
            <Time>2021-08-10T08:15:24.000Z</Time>
            <Position>
              <LatitudeDegrees>43.08578009717166423797607421875</LatitudeDegrees>
              <LongitudeDegrees>-1.74798631109297275543212890625</LongitudeDegrees>
            </Position>
            <AltitudeMeters>433.79998779296875</AltitudeMeters>
            <DistanceMeters>NAN</DistanceMeters>
          </Trackpoint>
          <Trackpoint>
            <Time>2021-08-10T08:15:25.000Z</Time>
            <Position>
              <LatitudeDegrees>43.08578512631356716156005859375</LatitudeDegrees>
              <LongitudeDegrees>-1.74795077182352542877197265625</LongitudeDegrees>
            </Position>
            <AltitudeMeters>434</AltitudeMeters>
            <DistanceMeters>NAN</DistanceMeters>
          </Trackpoint>
          <Trackpoint>
            <Time>2021-08-10T08:15:26.000Z</Time>
            <Position>
              <LatitudeDegrees>43.08578982017934322357177734375</LatitudeDegrees>
              <LongitudeDegrees>-1.7479166574776172637939453125</LongitudeDegrees>
            </Position>
            <AltitudeMeters>434.20001220703125</AltitudeMeters>
            <DistanceMeters>NAN</DistanceMeters>
          </Trackpoint>
          <Trackpoint>
            <Time>2021-08-10T08:15:27.000Z</Time>
            <Position>
              <LatitudeDegrees>43.08579317294061183929443359375</LatitudeDegrees>
              <LongitudeDegrees>-1.7478807829320430755615234375</LongitudeDegrees>
            </Position>
            <AltitudeMeters>434.399993896484375</AltitudeMeters>
            <DistanceMeters>NAN</DistanceMeters>
          </Trackpoint>
          <Trackpoint>
            <Time>2021-08-10T08:15:28.000Z</Time>
            <Position>
              <LatitudeDegrees>43.08579853735864162445068359375</LatitudeDegrees>
              <LongitudeDegrees>-1.74784834496676921844482421875</LongitudeDegrees>
            </Position>
            <AltitudeMeters>434.399993896484375</AltitudeMeters>
            <DistanceMeters>NAN</DistanceMeters>
          </Trackpoint>
          <Trackpoint>
            <Time>2021-08-10T08:15:29.000Z</Time>
            <Position>
              <LatitudeDegrees>43.0858026444911956787109375</LatitudeDegrees>
              <LongitudeDegrees>-1.74781532026827335357666015625</LongitudeDegrees>
            </Position>
            <AltitudeMeters>434.399993896484375</AltitudeMeters>
            <DistanceMeters>NAN</DistanceMeters>
          </Trackpoint>
          <Trackpoint>
            <Time>2021-08-10T08:15:30.000Z</Time>
            <Position>
              <LatitudeDegrees>43.08580842800438404083251953125</LatitudeDegrees>
              <LongitudeDegrees>-1.74778497777879238128662109375</LongitudeDegrees>
            </Position>
            <AltitudeMeters>434.600006103515625</AltitudeMeters>
            <DistanceMeters>NAN</DistanceMeters>
          </Trackpoint>
          <Trackpoint>
            <Time>2021-08-10T08:15:31.000Z</Time>
            <Position>
              <LatitudeDegrees>43.08581278659403324127197265625</LatitudeDegrees>
              <LongitudeDegrees>-1.74775564111769199371337890625</LongitudeDegrees>
            </Position>
            <AltitudeMeters>434.600006103515625</AltitudeMeters>
            <DistanceMeters>NAN</DistanceMeters>
          </Trackpoint>
          <Trackpoint>
            <Time>2021-08-10T08:15:32.000Z</Time>
            <Position>
              <LatitudeDegrees>43.085817396640777587890625</LatitudeDegrees>
              <LongitudeDegrees>-1.74772295169532299041748046875</LongitudeDegrees>
            </Position>
            <AltitudeMeters>434.79998779296875</AltitudeMeters>
            <DistanceMeters>NAN</DistanceMeters>
          </Trackpoint>
          <Trackpoint>
            <Time>2021-08-10T08:15:33.000Z</Time>
            <Position>
              <LatitudeDegrees>43.0858232639729976654052734375</LatitudeDegrees>
              <LongitudeDegrees>-1.74768657423555850982666015625</LongitudeDegrees>
            </Position>
            <AltitudeMeters>434.79998779296875</AltitudeMeters>
            <DistanceMeters>NAN</DistanceMeters>
          </Trackpoint>
          <Trackpoint>
            <Time>2021-08-10T08:15:34.000Z</Time>
            <Position>
              <LatitudeDegrees>43.0858262814581394195556640625</LatitudeDegrees>
              <LongitudeDegrees>-1.7476509511470794677734375</LongitudeDegrees>
            </Position>
            <AltitudeMeters>435</AltitudeMeters>
            <DistanceMeters>NAN</DistanceMeters>
          </Trackpoint>
          <Trackpoint>
            <Time>2021-08-10T08:15:35.000Z</Time>
            <Position>
              <LatitudeDegrees>43.085827119648456573486328125</LatitudeDegrees>
              <LongitudeDegrees>-1.74761784262955188751220703125</LongitudeDegrees>
            </Position>
            <AltitudeMeters>435</AltitudeMeters>
            <DistanceMeters>NAN</DistanceMeters>
          </Trackpoint>
          <Trackpoint>
            <Time>2021-08-10T08:15:36.000Z</Time>
            <Position>
              <LatitudeDegrees>43.08582686819136142730712890625</LatitudeDegrees>
              <LongitudeDegrees>-1.74758263863623142242431640625</LongitudeDegrees>
            </Position>
            <AltitudeMeters>435</AltitudeMeters>
            <DistanceMeters>NAN</DistanceMeters>
          </Trackpoint>
          <Trackpoint>
            <Time>2021-08-10T08:15:37.000Z</Time>
            <Position>
              <LatitudeDegrees>43.0858246050775051116943359375</LatitudeDegrees>
              <LongitudeDegrees>-1.74754810519516468048095703125</LongitudeDegrees>
            </Position>
            <AltitudeMeters>435</AltitudeMeters>
            <DistanceMeters>NAN</DistanceMeters>
          </Trackpoint>
          <Trackpoint>
            <Time>2021-08-10T08:15:38.000Z</Time>
            <Position>
              <LatitudeDegrees>43.08582100085914134979248046875</LatitudeDegrees>
              <LongitudeDegrees>-1.74751290120184421539306640625</LongitudeDegrees>
            </Position>
            <AltitudeMeters>435</AltitudeMeters>
            <DistanceMeters>NAN</DistanceMeters>
          </Trackpoint>
          <Trackpoint>
            <Time>2021-08-10T08:15:39.000Z</Time>
            <Position>
              <LatitudeDegrees>43.08581563644111156463623046875</LatitudeDegrees>
              <LongitudeDegrees>-1.7474766075611114501953125</LongitudeDegrees>
            </Position>
            <AltitudeMeters>435</AltitudeMeters>
            <DistanceMeters>NAN</DistanceMeters>
          </Trackpoint>
          <Trackpoint>
            <Time>2021-08-10T08:15:40.000Z</Time>
            <Position>
              <LatitudeDegrees>43.0858068354427814483642578125</LatitudeDegrees>
              <LongitudeDegrees>-1.747440062463283538818359375</LongitudeDegrees>
            </Position>
            <AltitudeMeters>435</AltitudeMeters>
            <DistanceMeters>NAN</DistanceMeters>
          </Trackpoint>
          <Trackpoint>
            <Time>2021-08-10T08:15:41.000Z</Time>
            <Position>
              <LatitudeDegrees>43.08579501695930957794189453125</LatitudeDegrees>
              <LongitudeDegrees>-1.74739949405193328857421875</LongitudeDegrees>
            </Position>
            <AltitudeMeters>435</AltitudeMeters>
            <DistanceMeters>NAN</DistanceMeters>
          </Trackpoint>
          <Trackpoint>
            <Time>2021-08-10T08:15:43.000Z</Time>
            <Position>
              <LatitudeDegrees>43.08576785959303379058837890625</LatitudeDegrees>
              <LongitudeDegrees>-1.74731425009667873382568359375</LongitudeDegrees>
            </Position>
            <AltitudeMeters>435</AltitudeMeters>
            <DistanceMeters>NAN</DistanceMeters>
          </Trackpoint>
          <Trackpoint>
            <Time>2021-08-10T08:15:48.000Z</Time>
            <Position>
              <LatitudeDegrees>43.08572192676365375518798828125</LatitudeDegrees>
              <LongitudeDegrees>-1.74705457873642444610595703125</LongitudeDegrees>
            </Position>
            <AltitudeMeters>434.600006103515625</AltitudeMeters>
            <DistanceMeters>NAN</DistanceMeters>
          </Trackpoint>
          <Trackpoint>
            <Time>2021-08-10T08:15:49.000Z</Time>
            <Position>
              <LatitudeDegrees>43.0857163108885288238525390625</LatitudeDegrees>
              <LongitudeDegrees>-1.74699573777616024017333984375</LongitudeDegrees>
            </Position>
            <AltitudeMeters>434.399993896484375</AltitudeMeters>
            <DistanceMeters>NAN</DistanceMeters>
          </Trackpoint>
          <Trackpoint>
            <Time>2021-08-10T08:15:52.000Z</Time>
            <Position>
              <LatitudeDegrees>43.0857075937092304229736328125</LatitudeDegrees>
              <LongitudeDegrees>-1.746805720031261444091796875</LongitudeDegrees>
            </Position>
            <AltitudeMeters>434</AltitudeMeters>
            <DistanceMeters>NAN</DistanceMeters>
          </Trackpoint>
          <Trackpoint>
            <Time>2021-08-10T08:15:54.000Z</Time>
            <Position>
              <LatitudeDegrees>43.08569359593093395233154296875</LatitudeDegrees>
              <LongitudeDegrees>-1.74667932093143463134765625</LongitudeDegrees>
            </Position>
            <AltitudeMeters>433.20001220703125</AltitudeMeters>
            <DistanceMeters>NAN</DistanceMeters>
          </Trackpoint>
          <Trackpoint>
            <Time>2021-08-10T08:15:55.000Z</Time>
            <Position>
              <LatitudeDegrees>43.08568001724779605865478515625</LatitudeDegrees>
              <LongitudeDegrees>-1.74662056379020214080810546875</LongitudeDegrees>
            </Position>
            <AltitudeMeters>432.79998779296875</AltitudeMeters>
            <DistanceMeters>NAN</DistanceMeters>
          </Trackpoint>
          <Trackpoint>
            <Time>2021-08-10T08:15:58.000Z</Time>
            <Position>
              <LatitudeDegrees>43.08562771417200565338134765625</LatitudeDegrees>
              <LongitudeDegrees>-1.74644923768937587738037109375</LongitudeDegrees>
            </Position>
            <AltitudeMeters>432</AltitudeMeters>
            <DistanceMeters>NAN</DistanceMeters>
          </Trackpoint>
          <Trackpoint>
            <Time>2021-08-10T08:16:00.000Z</Time>
            <Position>
              <LatitudeDegrees>43.08559234254062175750732421875</LatitudeDegrees>
              <LongitudeDegrees>-1.74632350914180278778076171875</LongitudeDegrees>
            </Position>
            <AltitudeMeters>431.399993896484375</AltitudeMeters>
            <DistanceMeters>NAN</DistanceMeters>
          </Trackpoint>
          <Trackpoint>
            <Time>2021-08-10T08:16:02.000Z</Time>
            <Position>
              <LatitudeDegrees>43.0855785124003887176513671875</LatitudeDegrees>
              <LongitudeDegrees>-1.746190823614597320556640625</LongitudeDegrees>
            </Position>
            <AltitudeMeters>430.79998779296875</AltitudeMeters>
            <DistanceMeters>NAN</DistanceMeters>
          </Trackpoint>
          <Trackpoint>
            <Time>2021-08-10T08:16:03.000Z</Time>
            <Position>
              <LatitudeDegrees>43.0855892412364482879638671875</LatitudeDegrees>
              <LongitudeDegrees>-1.74612401984632015228271484375</LongitudeDegrees>
            </Position>
            <AltitudeMeters>430.399993896484375</AltitudeMeters>
            <DistanceMeters>NAN</DistanceMeters>
          </Trackpoint>
          <Trackpoint>
            <Time>2021-08-10T08:16:04.000Z</Time>
            <Position>
              <LatitudeDegrees>43.0856110341846942901611328125</LatitudeDegrees>
              <LongitudeDegrees>-1.74606199376285076141357421875</LongitudeDegrees>
            </Position>
            <AltitudeMeters>430.20001220703125</AltitudeMeters>
            <DistanceMeters>NAN</DistanceMeters>
          </Trackpoint>
          <Trackpoint>
            <Time>2021-08-10T08:16:05.000Z</Time>
            <Position>
              <LatitudeDegrees>43.0856405384838581085205078125</LatitudeDegrees>
              <LongitudeDegrees>-1.74600784666836261749267578125</LongitudeDegrees>
            </Position>
            <AltitudeMeters>430</AltitudeMeters>
            <DistanceMeters>NAN</DistanceMeters>
          </Trackpoint>
          <Trackpoint>
            <Time>2021-08-10T08:16:06.000Z</Time>
            <Position>
              <LatitudeDegrees>43.085675574839115142822265625</LatitudeDegrees>
              <LongitudeDegrees>-1.74596006982028484344482421875</LongitudeDegrees>
            </Position>
            <AltitudeMeters>429.79998779296875</AltitudeMeters>
            <DistanceMeters>NAN</DistanceMeters>
          </Trackpoint>
          <Trackpoint>
            <Time>2021-08-10T08:16:07.000Z</Time>
            <Position>
              <LatitudeDegrees>43.08571035973727703094482421875</LatitudeDegrees>
              <LongitudeDegrees>-1.74591665156185626983642578125</LongitudeDegrees>
            </Position>
            <AltitudeMeters>429.600006103515625</AltitudeMeters>
            <DistanceMeters>NAN</DistanceMeters>
          </Trackpoint>
          <Trackpoint>
            <Time>2021-08-10T08:16:10.000Z</Time>
            <Position>
              <LatitudeDegrees>43.08582468889653682708740234375</LatitudeDegrees>
              <LongitudeDegrees>-1.7457876540720462799072265625</LongitudeDegrees>
            </Position>
            <AltitudeMeters>429.20001220703125</AltitudeMeters>
            <DistanceMeters>NAN</DistanceMeters>
          </Trackpoint>
          <Trackpoint>
            <Time>2021-08-10T08:16:11.000Z</Time>
            <Position>
              <LatitudeDegrees>43.085861988365650177001953125</LatitudeDegrees>
              <LongitudeDegrees>-1.7457480914890766143798828125</LongitudeDegrees>
            </Position>
            <AltitudeMeters>429.20001220703125</AltitudeMeters>
            <DistanceMeters>NAN</DistanceMeters>
          </Trackpoint>
          <Trackpoint>
            <Time>2021-08-10T08:16:12.000Z</Time>
            <Position>
              <LatitudeDegrees>43.08589928783476352691650390625</LatitudeDegrees>
              <LongitudeDegrees>-1.74571104347705841064453125</LongitudeDegrees>
            </Position>
            <AltitudeMeters>429</AltitudeMeters>
            <DistanceMeters>NAN</DistanceMeters>
          </Trackpoint>
          <Trackpoint>
            <Time>2021-08-10T08:16:15.000Z</Time>
            <Position>
              <LatitudeDegrees>43.0860069952905178070068359375</LatitudeDegrees>
              <LongitudeDegrees>-1.7456156574189662933349609375</LongitudeDegrees>
            </Position>
            <AltitudeMeters>428.79998779296875</AltitudeMeters>
            <DistanceMeters>NAN</DistanceMeters>
          </Trackpoint>
          <Trackpoint>
            <Time>2021-08-10T08:16:16.000Z</Time>
            <Position>
              <LatitudeDegrees>43.08604178018867969512939453125</LatitudeDegrees>
              <LongitudeDegrees>-1.74558766186237335205078125</LongitudeDegrees>
            </Position>
            <AltitudeMeters>428.79998779296875</AltitudeMeters>
            <DistanceMeters>NAN</DistanceMeters>
          </Trackpoint>
          <Trackpoint>
            <Time>2021-08-10T08:16:17.000Z</Time>
            <Position>
              <LatitudeDegrees>43.086075894534587860107421875</LatitudeDegrees>
              <LongitudeDegrees>-1.7455616779625415802001953125</LongitudeDegrees>
            </Position>
            <AltitudeMeters>428.79998779296875</AltitudeMeters>
            <DistanceMeters>NAN</DistanceMeters>
          </Trackpoint>
          <Trackpoint>
            <Time>2021-08-10T08:16:18.000Z</Time>
            <Position>
              <LatitudeDegrees>43.08610984124243259429931640625</LatitudeDegrees>
              <LongitudeDegrees>-1.74553267657756805419921875</LongitudeDegrees>
            </Position>
            <AltitudeMeters>428.600006103515625</AltitudeMeters>
            <DistanceMeters>NAN</DistanceMeters>
          </Trackpoint>
          <Trackpoint>
            <Time>2021-08-10T08:16:19.000Z</Time>
            <Position>
              <LatitudeDegrees>43.0861417762935161590576171875</LatitudeDegrees>
              <LongitudeDegrees>-1.745503842830657958984375</LongitudeDegrees>
            </Position>
            <AltitudeMeters>428.600006103515625</AltitudeMeters>
            <DistanceMeters>NAN</DistanceMeters>
          </Trackpoint>
          <Trackpoint>
            <Time>2021-08-10T08:16:20.000Z</Time>
            <Position>
              <LatitudeDegrees>43.08617237024009227752685546875</LatitudeDegrees>
              <LongitudeDegrees>-1.745476014912128448486328125</LongitudeDegrees>
            </Position>
            <AltitudeMeters>428.600006103515625</AltitudeMeters>
            <DistanceMeters>NAN</DistanceMeters>
          </Trackpoint>
          <Trackpoint>
            <Time>2021-08-10T08:16:21.000Z</Time>
            <Position>
              <LatitudeDegrees>43.08619969524443149566650390625</LatitudeDegrees>
              <LongitudeDegrees>-1.74544818699359893798828125</LongitudeDegrees>
            </Position>
            <AltitudeMeters>428.600006103515625</AltitudeMeters>
            <DistanceMeters>NAN</DistanceMeters>
          </Trackpoint>
          <Trackpoint>
            <Time>2021-08-10T08:16:22.000Z</Time>
            <Position>
              <LatitudeDegrees>43.08622484095394611358642578125</LatitudeDegrees>
              <LongitudeDegrees>-1.74541859887540340423583984375</LongitudeDegrees>
            </Position>
            <AltitudeMeters>428.600006103515625</AltitudeMeters>
            <DistanceMeters>NAN</DistanceMeters>
          </Trackpoint>
          <Trackpoint>
            <Time>2021-08-10T08:16:23.000Z</Time>
            <Position>
              <LatitudeDegrees>43.0862452089786529541015625</LatitudeDegrees>
              <LongitudeDegrees>-1.7453871667385101318359375</LongitudeDegrees>
            </Position>
            <AltitudeMeters>428.600006103515625</AltitudeMeters>
            <DistanceMeters>NAN</DistanceMeters>
          </Trackpoint>
          <Trackpoint>
            <Time>2021-08-10T08:16:24.000Z</Time>
            <Position>
              <LatitudeDegrees>43.0862639844417572021484375</LatitudeDegrees>
              <LongitudeDegrees>-1.74535489641129970550537109375</LongitudeDegrees>
            </Position>
            <AltitudeMeters>428.600006103515625</AltitudeMeters>
            <DistanceMeters>NAN</DistanceMeters>
          </Trackpoint>
          <Trackpoint>
            <Time>2021-08-10T08:16:25.000Z</Time>
            <Position>
              <LatitudeDegrees>43.0862849391996860504150390625</LatitudeDegrees>
              <LongitudeDegrees>-1.7453209497034549713134765625</LongitudeDegrees>
            </Position>
            <AltitudeMeters>428.600006103515625</AltitudeMeters>
            <DistanceMeters>NAN</DistanceMeters>
          </Trackpoint>
          <Trackpoint>
            <Time>2021-08-10T08:16:31.000Z</Time>
            <Position>
              <LatitudeDegrees>43.08641846291720867156982421875</LatitudeDegrees>
              <LongitudeDegrees>-1.74505063332617282867431640625</LongitudeDegrees>
            </Position>
            <AltitudeMeters>428.399993896484375</AltitudeMeters>
            <DistanceMeters>NAN</DistanceMeters>
          </Trackpoint>
          <Trackpoint>
            <Time>2021-08-10T08:16:37.000Z</Time>
            <Position>
              <LatitudeDegrees>43.08658643625676631927490234375</LatitudeDegrees>
              <LongitudeDegrees>-1.74468216486275196075439453125</LongitudeDegrees>
            </Position>
            <AltitudeMeters>427.600006103515625</AltitudeMeters>
            <DistanceMeters>NAN</DistanceMeters>
          </Trackpoint>
          <Trackpoint>
            <Time>2021-08-10T08:16:38.000Z</Time>
            <Position>
              <LatitudeDegrees>43.0866245739161968231201171875</LatitudeDegrees>
              <LongitudeDegrees>-1.74463321454823017120361328125</LongitudeDegrees>
            </Position>
            <AltitudeMeters>427.399993896484375</AltitudeMeters>
            <DistanceMeters>NAN</DistanceMeters>
          </Trackpoint>
          <Trackpoint>
            <Time>2021-08-10T08:16:39.000Z</Time>
            <Position>
              <LatitudeDegrees>43.08666539378464221954345703125</LatitudeDegrees>
              <LongitudeDegrees>-1.74459599889814853668212890625</LongitudeDegrees>
            </Position>
            <AltitudeMeters>427.20001220703125</AltitudeMeters>
            <DistanceMeters>NAN</DistanceMeters>
          </Trackpoint>
          <Trackpoint>
            <Time>2021-08-10T08:16:40.000Z</Time>
            <Position>
              <LatitudeDegrees>43.0867057107388973236083984375</LatitudeDegrees>
              <LongitudeDegrees>-1.74456917680799961090087890625</LongitudeDegrees>
            </Position>
            <AltitudeMeters>427.20001220703125</AltitudeMeters>
            <DistanceMeters>NAN</DistanceMeters>
          </Trackpoint>
          <Trackpoint>
            <Time>2021-08-10T08:16:41.000Z</Time>
            <Position>
              <LatitudeDegrees>43.08674619533121585845947265625</LatitudeDegrees>
              <LongitudeDegrees>-1.74454755149781703948974609375</LongitudeDegrees>
            </Position>
            <AltitudeMeters>427.20001220703125</AltitudeMeters>
            <DistanceMeters>NAN</DistanceMeters>
          </Trackpoint>
          <Trackpoint>
            <Time>2021-08-10T08:16:42.000Z</Time>
            <Position>
              <LatitudeDegrees>43.08678575791418552398681640625</LatitudeDegrees>
              <LongitudeDegrees>-1.7445364035665988922119140625</LongitudeDegrees>
            </Position>
            <AltitudeMeters>427</AltitudeMeters>
            <DistanceMeters>NAN</DistanceMeters>
          </Trackpoint>
          <Trackpoint>
            <Time>2021-08-10T08:16:43.000Z</Time>
            <Position>
              <LatitudeDegrees>43.08682146482169628143310546875</LatitudeDegrees>
              <LongitudeDegrees>-1.74453548155725002288818359375</LongitudeDegrees>
            </Position>
            <AltitudeMeters>427</AltitudeMeters>
            <DistanceMeters>NAN</DistanceMeters>
          </Trackpoint>
          <Trackpoint>
            <Time>2021-08-10T08:16:44.000Z</Time>
            <Position>
              <LatitudeDegrees>43.08685733936727046966552734375</LatitudeDegrees>
              <LongitudeDegrees>-1.74455056898295879364013671875</LongitudeDegrees>
            </Position>
            <AltitudeMeters>427</AltitudeMeters>
            <DistanceMeters>NAN</DistanceMeters>
          </Trackpoint>
          <Trackpoint>
            <Time>2021-08-10T08:16:45.000Z</Time>
            <Position>
              <LatitudeDegrees>43.08688935823738574981689453125</LatitudeDegrees>
              <LongitudeDegrees>-1.74457588233053684234619140625</LongitudeDegrees>
            </Position>
            <AltitudeMeters>427</AltitudeMeters>
            <DistanceMeters>NAN</DistanceMeters>
          </Trackpoint>
          <Trackpoint>
            <Time>2021-08-10T08:16:46.000Z</Time>
            <Position>
              <LatitudeDegrees>43.08691550977528095245361328125</LatitudeDegrees>
              <LongitudeDegrees>-1.7445944063365459442138671875</LongitudeDegrees>
            </Position>
            <AltitudeMeters>427</AltitudeMeters>
            <DistanceMeters>NAN</DistanceMeters>
          </Trackpoint>
          <Trackpoint>
            <Time>2021-08-10T08:16:47.000Z</Time>
            <Position>
              <LatitudeDegrees>43.086936883628368377685546875</LatitudeDegrees>
              <LongitudeDegrees>-1.7446175403892993927001953125</LongitudeDegrees>
            </Position>
            <AltitudeMeters>427.20001220703125</AltitudeMeters>
            <DistanceMeters>NAN</DistanceMeters>
          </Trackpoint>
          <Trackpoint>
            <Time>2021-08-10T08:16:48.000Z</Time>
            <Position>
              <LatitudeDegrees>43.086954653263092041015625</LatitudeDegrees>
              <LongitudeDegrees>-1.74464344047009944915771484375</LongitudeDegrees>
            </Position>
            <AltitudeMeters>427.20001220703125</AltitudeMeters>
            <DistanceMeters>NAN</DistanceMeters>
          </Trackpoint>
          <Trackpoint>
            <Time>2021-08-10T08:16:49.000Z</Time>
            <Position>
              <LatitudeDegrees>43.086970746517181396484375</LatitudeDegrees>
              <LongitudeDegrees>-1.74467110075056552886962890625</LongitudeDegrees>
            </Position>
            <AltitudeMeters>427.399993896484375</AltitudeMeters>
            <DistanceMeters>NAN</DistanceMeters>
          </Trackpoint>
          <Trackpoint>
            <Time>2021-08-10T08:16:50.000Z</Time>
            <Position>
              <LatitudeDegrees>43.086985163390636444091796875</LatitudeDegrees>
              <LongitudeDegrees>-1.74469490535557270050048828125</LongitudeDegrees>
            </Position>
            <AltitudeMeters>427.399993896484375</AltitudeMeters>
            <DistanceMeters>NAN</DistanceMeters>
          </Trackpoint>
          <Trackpoint>
            <Time>2021-08-10T08:16:53.000Z</Time>
            <Position>
              <LatitudeDegrees>43.08703185059130191802978515625</LatitudeDegrees>
              <LongitudeDegrees>-1.74475978128612041473388671875</LongitudeDegrees>
            </Position>
            <AltitudeMeters>428</AltitudeMeters>
            <DistanceMeters>NAN</DistanceMeters>
          </Trackpoint>
          <Trackpoint>
            <Time>2021-08-10T08:16:54.000Z</Time>
            <Position>
              <LatitudeDegrees>43.08704945258796215057373046875</LatitudeDegrees>
              <LongitudeDegrees>-1.7447764612734317779541015625</LongitudeDegrees>
            </Position>
            <AltitudeMeters>428</AltitudeMeters>
            <DistanceMeters>NAN</DistanceMeters>
          </Trackpoint>
          <Trackpoint>
            <Time>2021-08-10T08:16:55.000Z</Time>
            <Position>
              <LatitudeDegrees>43.0870657972991466522216796875</LatitudeDegrees>
              <LongitudeDegrees>-1.74479146488010883331298828125</LongitudeDegrees>
            </Position>
            <AltitudeMeters>428.399993896484375</AltitudeMeters>
            <DistanceMeters>NAN</DistanceMeters>
          </Trackpoint>
          <Trackpoint>
            <Time>2021-08-10T08:16:56.000Z</Time>
            <Position>
              <LatitudeDegrees>43.08708096854388713836669921875</LatitudeDegrees>
              <LongitudeDegrees>-1.74480755813419818878173828125</LongitudeDegrees>
            </Position>
            <AltitudeMeters>428.600006103515625</AltitudeMeters>
            <DistanceMeters>NAN</DistanceMeters>
          </Trackpoint>
          <Trackpoint>
            <Time>2021-08-10T08:16:57.000Z</Time>
            <Position>
              <LatitudeDegrees>43.08709722943603992462158203125</LatitudeDegrees>
              <LongitudeDegrees>-1.744824238121509552001953125</LongitudeDegrees>
            </Position>
            <AltitudeMeters>428.600006103515625</AltitudeMeters>
            <DistanceMeters>NAN</DistanceMeters>
          </Trackpoint>
          <Trackpoint>
            <Time>2021-08-10T08:16:58.000Z</Time>
            <Position>
              <LatitudeDegrees>43.08711357414722442626953125</LatitudeDegrees>
              <LongitudeDegrees>-1.7448431812226772308349609375</LongitudeDegrees>
            </Position>
            <AltitudeMeters>428.79998779296875</AltitudeMeters>
            <DistanceMeters>NAN</DistanceMeters>
          </Trackpoint>
          <Trackpoint>
            <Time>2021-08-10T08:16:59.000Z</Time>
            <Position>
              <LatitudeDegrees>43.08713100850582122802734375</LatitudeDegrees>
              <LongitudeDegrees>-1.74485969357192516326904296875</LongitudeDegrees>
            </Position>
            <AltitudeMeters>429</AltitudeMeters>
            <DistanceMeters>NAN</DistanceMeters>
          </Trackpoint>
          <Trackpoint>
            <Time>2021-08-10T08:17:00.000Z</Time>
            <Position>
              <LatitudeDegrees>43.08714844286441802978515625</LatitudeDegrees>
              <LongitudeDegrees>-1.74487444572150707244873046875</LongitudeDegrees>
            </Position>
            <AltitudeMeters>429</AltitudeMeters>
            <DistanceMeters>NAN</DistanceMeters>
          </Trackpoint>
          <Trackpoint>
            <Time>2021-08-10T08:17:01.000Z</Time>
            <Position>
              <LatitudeDegrees>43.0871657095849514007568359375</LatitudeDegrees>
              <LongitudeDegrees>-1.74488550983369350433349609375</LongitudeDegrees>
            </Position>
            <AltitudeMeters>429.20001220703125</AltitudeMeters>
            <DistanceMeters>NAN</DistanceMeters>
          </Trackpoint>
          <Trackpoint>
            <Time>2021-08-10T08:17:02.000Z</Time>
            <Position>
              <LatitudeDegrees>43.08718155138194561004638671875</LatitudeDegrees>
              <LongitudeDegrees>-1.7449001781642436981201171875</LongitudeDegrees>
            </Position>
            <AltitudeMeters>429.399993896484375</AltitudeMeters>
            <DistanceMeters>NAN</DistanceMeters>
          </Trackpoint>
          <Trackpoint>
            <Time>2021-08-10T08:17:03.000Z</Time>
            <Position>
              <LatitudeDegrees>43.08719848282635211944580078125</LatitudeDegrees>
              <LongitudeDegrees>-1.74491350539028644561767578125</LongitudeDegrees>
            </Position>
            <AltitudeMeters>429.79998779296875</AltitudeMeters>
            <DistanceMeters>NAN</DistanceMeters>
          </Trackpoint>
          <Trackpoint>
            <Time>2021-08-10T08:17:04.000Z</Time>
            <Position>
              <LatitudeDegrees>43.0872156657278537750244140625</LatitudeDegrees>
              <LongitudeDegrees>-1.74492515623569488525390625</LongitudeDegrees>
            </Position>
            <AltitudeMeters>430</AltitudeMeters>
            <DistanceMeters>NAN</DistanceMeters>
          </Trackpoint>
          <Trackpoint>
            <Time>2021-08-10T08:17:05.000Z</Time>
            <Position>
              <LatitudeDegrees>43.08723150752484798431396484375</LatitudeDegrees>
              <LongitudeDegrees>-1.74493856728076934814453125</LongitudeDegrees>
            </Position>
            <AltitudeMeters>430</AltitudeMeters>
            <DistanceMeters>NAN</DistanceMeters>
          </Trackpoint>
          <Trackpoint>
            <Time>2021-08-10T08:17:09.000Z</Time>
            <Position>
              <LatitudeDegrees>43.08729194104671478271484375</LatitudeDegrees>
              <LongitudeDegrees>-1.744999587535858154296875</LongitudeDegrees>
            </Position>
            <AltitudeMeters>430.79998779296875</AltitudeMeters>
            <DistanceMeters>NAN</DistanceMeters>
          </Trackpoint>
          <Trackpoint>
            <Time>2021-08-10T08:17:10.000Z</Time>
            <Position>
              <LatitudeDegrees>43.0873073637485504150390625</LatitudeDegrees>
              <LongitudeDegrees>-1.74501174129545688629150390625</LongitudeDegrees>
            </Position>
            <AltitudeMeters>431</AltitudeMeters>
            <DistanceMeters>NAN</DistanceMeters>
          </Trackpoint>
          <Trackpoint>
            <Time>2021-08-10T08:17:11.000Z</Time>
            <Position>
              <LatitudeDegrees>43.0873232893645763397216796875</LatitudeDegrees>
              <LongitudeDegrees>-1.74502708017826080322265625</LongitudeDegrees>
            </Position>
            <AltitudeMeters>431</AltitudeMeters>
            <DistanceMeters>NAN</DistanceMeters>
          </Trackpoint>
          <Trackpoint>
            <Time>2021-08-10T08:17:12.000Z</Time>
            <Position>
              <LatitudeDegrees>43.087340556085109710693359375</LatitudeDegrees>
              <LongitudeDegrees>-1.74503822810947895050048828125</LongitudeDegrees>
            </Position>
            <AltitudeMeters>431.20001220703125</AltitudeMeters>
            <DistanceMeters>NAN</DistanceMeters>
          </Trackpoint>
          <Trackpoint>
            <Time>2021-08-10T08:17:13.000Z</Time>
            <Position>
              <LatitudeDegrees>43.0873571522533893585205078125</LatitudeDegrees>
              <LongitudeDegrees>-1.74504862166941165924072265625</LongitudeDegrees>
            </Position>
            <AltitudeMeters>431.600006103515625</AltitudeMeters>
            <DistanceMeters>NAN</DistanceMeters>
          </Trackpoint>
          <Trackpoint>
            <Time>2021-08-10T08:17:14.000Z</Time>
            <Position>
              <LatitudeDegrees>43.0873744189739227294921875</LatitudeDegrees>
              <LongitudeDegrees>-1.7450557462871074676513671875</LongitudeDegrees>
            </Position>
            <AltitudeMeters>431.79998779296875</AltitudeMeters>
            <DistanceMeters>NAN</DistanceMeters>
          </Trackpoint>
          <Trackpoint>
            <Time>2021-08-10T08:17:15.000Z</Time>
            <Position>
              <LatitudeDegrees>43.0873923562467098236083984375</LatitudeDegrees>
              <LongitudeDegrees>-1.7450587637722492218017578125</LongitudeDegrees>
            </Position>
            <AltitudeMeters>432</AltitudeMeters>
            <DistanceMeters>NAN</DistanceMeters>
          </Trackpoint>
          <Trackpoint>
            <Time>2021-08-10T08:17:16.000Z</Time>
            <Position>
              <LatitudeDegrees>43.087411634624004364013671875</LatitudeDegrees>
              <LongitudeDegrees>-1.745055578649044036865234375</LongitudeDegrees>
            </Position>
            <AltitudeMeters>432.20001220703125</AltitudeMeters>
            <DistanceMeters>NAN</DistanceMeters>
          </Trackpoint>
          <Trackpoint>
            <Time>2021-08-10T08:17:17.000Z</Time>
            <Position>
              <LatitudeDegrees>43.087428398430347442626953125</LatitudeDegrees>
              <LongitudeDegrees>-1.7450416646897792816162109375</LongitudeDegrees>
            </Position>
            <AltitudeMeters>432.20001220703125</AltitudeMeters>
            <DistanceMeters>NAN</DistanceMeters>
          </Trackpoint>
          <Trackpoint>
            <Time>2021-08-10T08:17:18.000Z</Time>
            <Position>
              <LatitudeDegrees>43.08744013309478759765625</LatitudeDegrees>
              <LongitudeDegrees>-1.7450218833982944488525390625</LongitudeDegrees>
            </Position>
            <AltitudeMeters>432.399993896484375</AltitudeMeters>
            <DistanceMeters>NAN</DistanceMeters>
          </Trackpoint>
          <Trackpoint>
            <Time>2021-08-10T08:17:19.000Z</Time>
            <Position>
              <LatitudeDegrees>43.0874463357031345367431640625</LatitudeDegrees>
              <LongitudeDegrees>-1.74499799497425556182861328125</LongitudeDegrees>
            </Position>
            <AltitudeMeters>432.399993896484375</AltitudeMeters>
            <DistanceMeters>NAN</DistanceMeters>
          </Trackpoint>
          <Trackpoint>
            <Time>2021-08-10T08:17:20.000Z</Time>
            <Position>
              <LatitudeDegrees>43.087445162236690521240234375</LatitudeDegrees>
              <LongitudeDegrees>-1.74497284926474094390869140625</LongitudeDegrees>
            </Position>
            <AltitudeMeters>432.600006103515625</AltitudeMeters>
            <DistanceMeters>NAN</DistanceMeters>
          </Trackpoint>
          <Trackpoint>
            <Time>2021-08-10T08:17:21.000Z</Time>
            <Position>
              <LatitudeDegrees>43.08743887580931186676025390625</LatitudeDegrees>
              <LongitudeDegrees>-1.74494636245071887969970703125</LongitudeDegrees>
            </Position>
            <AltitudeMeters>432.79998779296875</AltitudeMeters>
            <DistanceMeters>NAN</DistanceMeters>
          </Trackpoint>
          <Trackpoint>
            <Time>2021-08-10T08:17:22.000Z</Time>
            <Position>
              <LatitudeDegrees>43.087427057325839996337890625</LatitudeDegrees>
              <LongitudeDegrees>-1.744924150407314300537109375</LongitudeDegrees>
            </Position>
            <AltitudeMeters>433</AltitudeMeters>
            <DistanceMeters>NAN</DistanceMeters>
          </Trackpoint>
          <Trackpoint>
            <Time>2021-08-10T08:17:23.000Z</Time>
            <Position>
              <LatitudeDegrees>43.08741264045238494873046875</LatitudeDegrees>
              <LongitudeDegrees>-1.74490730278193950653076171875</LongitudeDegrees>
            </Position>
            <AltitudeMeters>433</AltitudeMeters>
            <DistanceMeters>NAN</DistanceMeters>
          </Trackpoint>
          <Trackpoint>
            <Time>2021-08-10T08:17:24.000Z</Time>
            <Position>
              <LatitudeDegrees>43.08739830739796161651611328125</LatitudeDegrees>
              <LongitudeDegrees>-1.74489489756524562835693359375</LongitudeDegrees>
            </Position>
            <AltitudeMeters>433.399993896484375</AltitudeMeters>
            <DistanceMeters>NAN</DistanceMeters>
          </Trackpoint>
          <Trackpoint>
            <Time>2021-08-10T08:17:25.000Z</Time>
            <Position>
              <LatitudeDegrees>43.087379448115825653076171875</LatitudeDegrees>
              <LongitudeDegrees>-1.74488316290080547332763671875</LongitudeDegrees>
            </Position>
            <AltitudeMeters>433.600006103515625</AltitudeMeters>
            <DistanceMeters>NAN</DistanceMeters>
          </Trackpoint>
          <Trackpoint>
            <Time>2021-08-10T08:17:26.000Z</Time>
            <Position>
              <LatitudeDegrees>43.0873608402907848358154296875</LatitudeDegrees>
              <LongitudeDegrees>-1.74486874602735042572021484375</LongitudeDegrees>
            </Position>
            <AltitudeMeters>433.79998779296875</AltitudeMeters>
            <DistanceMeters>NAN</DistanceMeters>
          </Trackpoint>
          <Trackpoint>
            <Time>2021-08-10T08:17:27.000Z</Time>
            <Position>
              <LatitudeDegrees>43.08734357357025146484375</LatitudeDegrees>
              <LongitudeDegrees>-1.74485315568745136260986328125</LongitudeDegrees>
            </Position>
            <AltitudeMeters>434</AltitudeMeters>
            <DistanceMeters>NAN</DistanceMeters>
          </Trackpoint>
          <Trackpoint>
            <Time>2021-08-10T08:17:28.000Z</Time>
            <Position>
              <LatitudeDegrees>43.08732722885906696319580078125</LatitudeDegrees>
              <LongitudeDegrees>-1.744836978614330291748046875</LongitudeDegrees>
            </Position>
            <AltitudeMeters>434</AltitudeMeters>
            <DistanceMeters>NAN</DistanceMeters>
          </Trackpoint>
          <Trackpoint>
            <Time>2021-08-10T08:17:29.000Z</Time>
            <Position>
              <LatitudeDegrees>43.08731138706207275390625</LatitudeDegrees>
              <LongitudeDegrees>-1.74481979571282863616943359375</LongitudeDegrees>
            </Position>
            <AltitudeMeters>434.20001220703125</AltitudeMeters>
            <DistanceMeters>NAN</DistanceMeters>
          </Trackpoint>
          <Trackpoint>
            <Time>2021-08-10T08:17:30.000Z</Time>
            <Position>
              <LatitudeDegrees>43.0872937850654125213623046875</LatitudeDegrees>
              <LongitudeDegrees>-1.74480051733553409576416015625</LongitudeDegrees>
            </Position>
            <AltitudeMeters>434.20001220703125</AltitudeMeters>
            <DistanceMeters>NAN</DistanceMeters>
          </Trackpoint>
          <Trackpoint>
            <Time>2021-08-10T08:17:31.000Z</Time>
            <Position>
              <LatitudeDegrees>43.087276183068752288818359375</LatitudeDegrees>
              <LongitudeDegrees>-1.7447835020720958709716796875</LongitudeDegrees>
            </Position>
            <AltitudeMeters>434.20001220703125</AltitudeMeters>
            <DistanceMeters>NAN</DistanceMeters>
          </Trackpoint>
          <Trackpoint>
            <Time>2021-08-10T08:17:32.000Z</Time>
            <Position>
              <LatitudeDegrees>43.0872589163482189178466796875</LatitudeDegrees>
              <LongitudeDegrees>-1.74476464278995990753173828125</LongitudeDegrees>
            </Position>
            <AltitudeMeters>434.399993896484375</AltitudeMeters>
            <DistanceMeters>NAN</DistanceMeters>
          </Trackpoint>
          <Trackpoint>
            <Time>2021-08-10T08:17:33.000Z</Time>
            <Position>
              <LatitudeDegrees>43.08724366128444671630859375</LatitudeDegrees>
              <LongitudeDegrees>-1.74474553205072879791259765625</LongitudeDegrees>
            </Position>
            <AltitudeMeters>434.399993896484375</AltitudeMeters>
            <DistanceMeters>NAN</DistanceMeters>
          </Trackpoint>
          <Trackpoint>
            <Time>2021-08-10T08:17:34.000Z</Time>
            <Position>
              <LatitudeDegrees>43.087227903306484222412109375</LatitudeDegrees>
              <LongitudeDegrees>-1.74472793005406856536865234375</LongitudeDegrees>
            </Position>
            <AltitudeMeters>434.600006103515625</AltitudeMeters>
            <DistanceMeters>NAN</DistanceMeters>
          </Trackpoint>
          <Trackpoint>
            <Time>2021-08-10T08:17:35.000Z</Time>
            <Position>
              <LatitudeDegrees>43.08721222914755344390869140625</LatitudeDegrees>
              <LongitudeDegrees>-1.7447100766003131866455078125</LongitudeDegrees>
            </Position>
            <AltitudeMeters>434.600006103515625</AltitudeMeters>
            <DistanceMeters>NAN</DistanceMeters>
          </Trackpoint>
          <Trackpoint>
            <Time>2021-08-10T08:17:36.000Z</Time>
            <Position>
              <LatitudeDegrees>43.08719580061733722686767578125</LatitudeDegrees>
              <LongitudeDegrees>-1.7446911334991455078125</LongitudeDegrees>
            </Position>
            <AltitudeMeters>434.79998779296875</AltitudeMeters>
            <DistanceMeters>NAN</DistanceMeters>
          </Trackpoint>
          <Trackpoint>
            <Time>2021-08-10T08:17:37.000Z</Time>
            <Position>
              <LatitudeDegrees>43.087180294096469879150390625</LatitudeDegrees>
              <LongitudeDegrees>-1.744666993618011474609375</LongitudeDegrees>
            </Position>
            <AltitudeMeters>434.79998779296875</AltitudeMeters>
            <DistanceMeters>NAN</DistanceMeters>
          </Trackpoint>
          <Trackpoint>
            <Time>2021-08-10T08:17:38.000Z</Time>
            <Position>
              <LatitudeDegrees>43.087164871394634246826171875</LatitudeDegrees>
              <LongitudeDegrees>-1.74464377574622631072998046875</LongitudeDegrees>
            </Position>
            <AltitudeMeters>434.79998779296875</AltitudeMeters>
            <DistanceMeters>NAN</DistanceMeters>
          </Trackpoint>
          <Trackpoint>
            <Time>2021-08-10T08:17:39.000Z</Time>
            <Position>
              <LatitudeDegrees>43.08715154416859149932861328125</LatitudeDegrees>
              <LongitudeDegrees>-1.744621731340885162353515625</LongitudeDegrees>
            </Position>
            <AltitudeMeters>434.79998779296875</AltitudeMeters>
            <DistanceMeters>NAN</DistanceMeters>
          </Trackpoint>
          <Trackpoint>
            <Time>2021-08-10T08:17:40.000Z</Time>
            <Position>
              <LatitudeDegrees>43.087136037647724151611328125</LatitudeDegrees>
              <LongitudeDegrees>-1.74459700472652912139892578125</LongitudeDegrees>
            </Position>
            <AltitudeMeters>435</AltitudeMeters>
            <DistanceMeters>NAN</DistanceMeters>
          </Trackpoint>
          <Trackpoint>
            <Time>2021-08-10T08:17:41.000Z</Time>
            <Position>
              <LatitudeDegrees>43.08712488971650600433349609375</LatitudeDegrees>
              <LongitudeDegrees>-1.74456783570349216461181640625</LongitudeDegrees>
            </Position>
            <AltitudeMeters>435</AltitudeMeters>
            <DistanceMeters>NAN</DistanceMeters>
          </Trackpoint>
          <Trackpoint>
            <Time>2021-08-10T08:17:42.000Z</Time>
            <Position>
              <LatitudeDegrees>43.08711499907076358795166015625</LatitudeDegrees>
              <LongitudeDegrees>-1.74453916959464550018310546875</LongitudeDegrees>
            </Position>
            <AltitudeMeters>435.20001220703125</AltitudeMeters>
            <DistanceMeters>NAN</DistanceMeters>
          </Trackpoint>
          <Trackpoint>
            <Time>2021-08-10T08:17:43.000Z</Time>
            <Position>
              <LatitudeDegrees>43.08710728771984577178955078125</LatitudeDegrees>
              <LongitudeDegrees>-1.744510419666767120361328125</LongitudeDegrees>
            </Position>
            <AltitudeMeters>435.399993896484375</AltitudeMeters>
            <DistanceMeters>NAN</DistanceMeters>
          </Trackpoint>
          <Trackpoint>
            <Time>2021-08-10T08:17:44.000Z</Time>
            <Position>
              <LatitudeDegrees>43.0871010012924671173095703125</LatitudeDegrees>
              <LongitudeDegrees>-1.74448384903371334075927734375</LongitudeDegrees>
            </Position>
            <AltitudeMeters>435.399993896484375</AltitudeMeters>
            <DistanceMeters>NAN</DistanceMeters>
          </Trackpoint>
          <Trackpoint>
            <Time>2021-08-10T08:17:45.000Z</Time>
            <Position>
              <LatitudeDegrees>43.0870927870273590087890625</LatitudeDegrees>
              <LongitudeDegrees>-1.744457781314849853515625</LongitudeDegrees>
            </Position>
            <AltitudeMeters>435.600006103515625</AltitudeMeters>
            <DistanceMeters>NAN</DistanceMeters>
          </Trackpoint>
          <Trackpoint>
            <Time>2021-08-10T08:17:46.000Z</Time>
            <Position>
              <LatitudeDegrees>43.0870828963816165924072265625</LatitudeDegrees>
              <LongitudeDegrees>-1.74443104304373264312744140625</LongitudeDegrees>
            </Position>
            <AltitudeMeters>435.600006103515625</AltitudeMeters>
            <DistanceMeters>NAN</DistanceMeters>
          </Trackpoint>
          <Trackpoint>
            <Time>2021-08-10T08:17:47.000Z</Time>
            <Position>
              <LatitudeDegrees>43.08707426302134990692138671875</LatitudeDegrees>
              <LongitudeDegrees>-1.7444039694964885711669921875</LongitudeDegrees>
            </Position>
            <AltitudeMeters>435.600006103515625</AltitudeMeters>
            <DistanceMeters>NAN</DistanceMeters>
          </Trackpoint>
          <Trackpoint>
            <Time>2021-08-10T08:17:48.000Z</Time>
            <Position>
              <LatitudeDegrees>43.0870691500604152679443359375</LatitudeDegrees>
              <LongitudeDegrees>-1.74437656067311763763427734375</LongitudeDegrees>
            </Position>
            <AltitudeMeters>435.79998779296875</AltitudeMeters>
            <DistanceMeters>NAN</DistanceMeters>
          </Trackpoint>
          <Trackpoint>
            <Time>2021-08-10T08:17:49.000Z</Time>
            <Position>
              <LatitudeDegrees>43.08706621639430522918701171875</LatitudeDegrees>
              <LongitudeDegrees>-1.74434638582170009613037109375</LongitudeDegrees>
            </Position>
            <AltitudeMeters>435.79998779296875</AltitudeMeters>
            <DistanceMeters>NAN</DistanceMeters>
          </Trackpoint>
          <Trackpoint>
            <Time>2021-08-10T08:17:50.000Z</Time>
            <Position>
              <LatitudeDegrees>43.0870624445378780364990234375</LatitudeDegrees>
              <LongitudeDegrees>-1.74431763589382171630859375</LongitudeDegrees>
            </Position>
            <AltitudeMeters>436</AltitudeMeters>
            <DistanceMeters>NAN</DistanceMeters>
          </Trackpoint>
          <Trackpoint>
            <Time>2021-08-10T08:17:51.000Z</Time>
            <Position>
              <LatitudeDegrees>43.08705833740532398223876953125</LatitudeDegrees>
              <LongitudeDegrees>-1.74428754486143589019775390625</LongitudeDegrees>
            </Position>
            <AltitudeMeters>436.20001220703125</AltitudeMeters>
            <DistanceMeters>NAN</DistanceMeters>
          </Trackpoint>
          <Trackpoint>
            <Time>2021-08-10T08:17:52.000Z</Time>
            <Position>
              <LatitudeDegrees>43.0870552361011505126953125</LatitudeDegrees>
              <LongitudeDegrees>-1.74425686709582805633544921875</LongitudeDegrees>
            </Position>
            <AltitudeMeters>436.20001220703125</AltitudeMeters>
            <DistanceMeters>NAN</DistanceMeters>
          </Trackpoint>
          <Trackpoint>
            <Time>2021-08-10T08:17:53.000Z</Time>
            <Position>
              <LatitudeDegrees>43.08705548755824565887451171875</LatitudeDegrees>
              <LongitudeDegrees>-1.7442266084253787994384765625</LongitudeDegrees>
            </Position>
            <AltitudeMeters>436.20001220703125</AltitudeMeters>
            <DistanceMeters>NAN</DistanceMeters>
          </Trackpoint>
          <Trackpoint>
            <Time>2021-08-10T08:17:54.000Z</Time>
            <Position>
              <LatitudeDegrees>43.08705322444438934326171875</LatitudeDegrees>
              <LongitudeDegrees>-1.74419693648815155029296875</LongitudeDegrees>
            </Position>
            <AltitudeMeters>436.399993896484375</AltitudeMeters>
            <DistanceMeters>NAN</DistanceMeters>
          </Trackpoint>
          <Trackpoint>
            <Time>2021-08-10T08:17:55.000Z</Time>
            <Position>
              <LatitudeDegrees>43.08704945258796215057373046875</LatitudeDegrees>
              <LongitudeDegrees>-1.7441702820360660552978515625</LongitudeDegrees>
            </Position>
            <AltitudeMeters>436.600006103515625</AltitudeMeters>
            <DistanceMeters>NAN</DistanceMeters>
          </Trackpoint>
          <Trackpoint>
            <Time>2021-08-10T08:17:56.000Z</Time>
            <Position>
              <LatitudeDegrees>43.087046183645725250244140625</LatitudeDegrees>
              <LongitudeDegrees>-1.74414253793656826019287109375</LongitudeDegrees>
            </Position>
            <AltitudeMeters>436.600006103515625</AltitudeMeters>
            <DistanceMeters>NAN</DistanceMeters>
          </Trackpoint>
          <Trackpoint>
            <Time>2021-08-10T08:17:57.000Z</Time>
            <Position>
              <LatitudeDegrees>43.08704392053186893463134765625</LatitudeDegrees>
              <LongitudeDegrees>-1.7441126145422458648681640625</LongitudeDegrees>
            </Position>
            <AltitudeMeters>436.79998779296875</AltitudeMeters>
            <DistanceMeters>NAN</DistanceMeters>
          </Trackpoint>
          <Trackpoint>
            <Time>2021-08-10T08:17:58.000Z</Time>
            <Position>
              <LatitudeDegrees>43.08704023249447345733642578125</LatitudeDegrees>
              <LongitudeDegrees>-1.7440824396908283233642578125</LongitudeDegrees>
            </Position>
            <AltitudeMeters>436.79998779296875</AltitudeMeters>
            <DistanceMeters>NAN</DistanceMeters>
          </Trackpoint>
          <Trackpoint>
            <Time>2021-08-10T08:17:59.000Z</Time>
            <Position>
              <LatitudeDegrees>43.08703604154288768768310546875</LatitudeDegrees>
              <LongitudeDegrees>-1.7440559528768062591552734375</LongitudeDegrees>
            </Position>
            <AltitudeMeters>437</AltitudeMeters>
            <DistanceMeters>NAN</DistanceMeters>
          </Trackpoint>
          <Trackpoint>
            <Time>2021-08-10T08:18:00.000Z</Time>
            <Position>
              <LatitudeDegrees>43.0870329402387142181396484375</LatitudeDegrees>
              <LongitudeDegrees>-1.7440294660627841949462890625</LongitudeDegrees>
            </Position>
            <AltitudeMeters>437</AltitudeMeters>
            <DistanceMeters>NAN</DistanceMeters>
          </Trackpoint>
          <Trackpoint>
            <Time>2021-08-10T08:18:01.000Z</Time>
            <Position>
              <LatitudeDegrees>43.087030760943889617919921875</LatitudeDegrees>
              <LongitudeDegrees>-1.74400306306779384613037109375</LongitudeDegrees>
            </Position>
            <AltitudeMeters>437</AltitudeMeters>
            <DistanceMeters>NAN</DistanceMeters>
          </Trackpoint>
          <Trackpoint>
            <Time>2021-08-10T08:18:02.000Z</Time>
            <Position>
              <LatitudeDegrees>43.08702648617327213287353515625</LatitudeDegrees>
              <LongitudeDegrees>-1.74397741444408893585205078125</LongitudeDegrees>
            </Position>
            <AltitudeMeters>437.20001220703125</AltitudeMeters>
            <DistanceMeters>NAN</DistanceMeters>
          </Trackpoint>
          <Trackpoint>
            <Time>2021-08-10T08:18:03.000Z</Time>
            <Position>
              <LatitudeDegrees>43.087022714316844940185546875</LatitudeDegrees>
              <LongitudeDegrees>-1.74395092763006687164306640625</LongitudeDegrees>
            </Position>
            <AltitudeMeters>437.399993896484375</AltitudeMeters>
            <DistanceMeters>NAN</DistanceMeters>
          </Trackpoint>
          <Trackpoint>
            <Time>2021-08-10T08:18:04.000Z</Time>
            <Position>
              <LatitudeDegrees>43.08701944537460803985595703125</LatitudeDegrees>
              <LongitudeDegrees>-1.7439245246350765228271484375</LongitudeDegrees>
            </Position>
            <AltitudeMeters>437.399993896484375</AltitudeMeters>
            <DistanceMeters>NAN</DistanceMeters>
          </Trackpoint>
          <Trackpoint>
            <Time>2021-08-10T08:18:05.000Z</Time>
            <Position>
              <LatitudeDegrees>43.0870165117084980010986328125</LatitudeDegrees>
              <LongitudeDegrees>-1.74389577470719814300537109375</LongitudeDegrees>
            </Position>
            <AltitudeMeters>437.600006103515625</AltitudeMeters>
            <DistanceMeters>NAN</DistanceMeters>
          </Trackpoint>
          <Trackpoint>
            <Time>2021-08-10T08:18:06.000Z</Time>
            <Position>
              <LatitudeDegrees>43.08701341040432453155517578125</LatitudeDegrees>
              <LongitudeDegrees>-1.74386895261704921722412109375</LongitudeDegrees>
            </Position>
            <AltitudeMeters>437.79998779296875</AltitudeMeters>
            <DistanceMeters>NAN</DistanceMeters>
          </Trackpoint>
          <Trackpoint>
            <Time>2021-08-10T08:18:07.000Z</Time>
            <Position>
              <LatitudeDegrees>43.087010644376277923583984375</LatitudeDegrees>
              <LongitudeDegrees>-1.7438430525362491607666015625</LongitudeDegrees>
            </Position>
            <AltitudeMeters>438</AltitudeMeters>
            <DistanceMeters>NAN</DistanceMeters>
          </Trackpoint>
          <Trackpoint>
            <Time>2021-08-10T08:18:08.000Z</Time>
            <Position>
              <LatitudeDegrees>43.08700804598629474639892578125</LatitudeDegrees>
              <LongitudeDegrees>-1.74381648190319538116455078125</LongitudeDegrees>
            </Position>
            <AltitudeMeters>438</AltitudeMeters>
            <DistanceMeters>NAN</DistanceMeters>
          </Trackpoint>
          <Trackpoint>
            <Time>2021-08-10T08:18:09.000Z</Time>
            <Position>
              <LatitudeDegrees>43.087006621062755584716796875</LatitudeDegrees>
              <LongitudeDegrees>-1.74378999508917331695556640625</LongitudeDegrees>
            </Position>
            <AltitudeMeters>438.20001220703125</AltitudeMeters>
            <DistanceMeters>NAN</DistanceMeters>
          </Trackpoint>
          <Trackpoint>
            <Time>2021-08-10T08:18:10.000Z</Time>
            <Position>
              <LatitudeDegrees>43.08700150810182094573974609375</LatitudeDegrees>
              <LongitudeDegrees>-1.74376652576029300689697265625</LongitudeDegrees>
            </Position>
            <AltitudeMeters>438.399993896484375</AltitudeMeters>
            <DistanceMeters>NAN</DistanceMeters>
          </Trackpoint>
          <Trackpoint>
            <Time>2021-08-10T08:18:11.000Z</Time>
            <Position>
              <LatitudeDegrees>43.086997903883457183837890625</LatitudeDegrees>
              <LongitudeDegrees>-1.7437438108026981353759765625</LongitudeDegrees>
            </Position>
            <AltitudeMeters>438.600006103515625</AltitudeMeters>
            <DistanceMeters>NAN</DistanceMeters>
          </Trackpoint>
          <Trackpoint>
            <Time>2021-08-10T08:18:12.000Z</Time>
            <Position>
              <LatitudeDegrees>43.08699530549347400665283203125</LatitudeDegrees>
              <LongitudeDegrees>-1.74371841363608837127685546875</LongitudeDegrees>
            </Position>
            <AltitudeMeters>438.600006103515625</AltitudeMeters>
            <DistanceMeters>NAN</DistanceMeters>
          </Trackpoint>
          <Trackpoint>
            <Time>2021-08-10T08:18:13.000Z</Time>
            <Position>
              <LatitudeDegrees>43.0869930423796176910400390625</LatitudeDegrees>
              <LongitudeDegrees>-1.74369276501238346099853515625</LongitudeDegrees>
            </Position>
            <AltitudeMeters>438.79998779296875</AltitudeMeters>
            <DistanceMeters>NAN</DistanceMeters>
          </Trackpoint>
          <Trackpoint>
            <Time>2021-08-10T08:18:14.000Z</Time>
            <Position>
              <LatitudeDegrees>43.08698994107544422149658203125</LatitudeDegrees>
              <LongitudeDegrees>-1.743669211864471435546875</LongitudeDegrees>
            </Position>
            <AltitudeMeters>438.79998779296875</AltitudeMeters>
            <DistanceMeters>NAN</DistanceMeters>
          </Trackpoint>
          <Trackpoint>
            <Time>2021-08-10T08:18:15.000Z</Time>
            <Position>
              <LatitudeDegrees>43.08698751032352447509765625</LatitudeDegrees>
              <LongitudeDegrees>-1.74364565871655941009521484375</LongitudeDegrees>
            </Position>
            <AltitudeMeters>439</AltitudeMeters>
            <DistanceMeters>NAN</DistanceMeters>
          </Trackpoint>
          <Trackpoint>
            <Time>2021-08-10T08:18:16.000Z</Time>
            <Position>
              <LatitudeDegrees>43.08698357082903385162353515625</LatitudeDegrees>
              <LongitudeDegrees>-1.74362160265445709228515625</LongitudeDegrees>
            </Position>
            <AltitudeMeters>439.20001220703125</AltitudeMeters>
            <DistanceMeters>NAN</DistanceMeters>
          </Trackpoint>
          <Trackpoint>
            <Time>2021-08-10T08:18:17.000Z</Time>
            <Position>
              <LatitudeDegrees>43.08697879314422607421875</LatitudeDegrees>
              <LongitudeDegrees>-1.74359888769686222076416015625</LongitudeDegrees>
            </Position>
            <AltitudeMeters>439.20001220703125</AltitudeMeters>
            <DistanceMeters>NAN</DistanceMeters>
          </Trackpoint>
          <Trackpoint>
            <Time>2021-08-10T08:18:18.000Z</Time>
            <Position>
              <LatitudeDegrees>43.08697585947811603546142578125</LatitudeDegrees>
              <LongitudeDegrees>-1.743575669825077056884765625</LongitudeDegrees>
            </Position>
            <AltitudeMeters>439.399993896484375</AltitudeMeters>
            <DistanceMeters>NAN</DistanceMeters>
          </Trackpoint>
          <Trackpoint>
            <Time>2021-08-10T08:18:19.000Z</Time>
            <Position>
              <LatitudeDegrees>43.0869732610881328582763671875</LatitudeDegrees>
              <LongitudeDegrees>-1.74354993738234043121337890625</LongitudeDegrees>
            </Position>
            <AltitudeMeters>439.399993896484375</AltitudeMeters>
            <DistanceMeters>NAN</DistanceMeters>
          </Trackpoint>
          <Trackpoint>
            <Time>2021-08-10T08:18:20.000Z</Time>
            <Position>
              <LatitudeDegrees>43.0869720876216888427734375</LatitudeDegrees>
              <LongitudeDegrees>-1.7435230314731597900390625</LongitudeDegrees>
            </Position>
            <AltitudeMeters>439.600006103515625</AltitudeMeters>
            <DistanceMeters>NAN</DistanceMeters>
          </Trackpoint>
          <Trackpoint>
            <Time>2021-08-10T08:18:21.000Z</Time>
            <Position>
              <LatitudeDegrees>43.08696831576526165008544921875</LatitudeDegrees>
              <LongitudeDegrees>-1.74349964596331119537353515625</LongitudeDegrees>
            </Position>
            <AltitudeMeters>439.600006103515625</AltitudeMeters>
            <DistanceMeters>NAN</DistanceMeters>
          </Trackpoint>
          <Trackpoint>
            <Time>2021-08-10T08:18:22.000Z</Time>
            <Position>
              <LatitudeDegrees>43.0869672261178493499755859375</LatitudeDegrees>
              <LongitudeDegrees>-1.74347399733960628509521484375</LongitudeDegrees>
            </Position>
            <AltitudeMeters>439.79998779296875</AltitudeMeters>
            <DistanceMeters>NAN</DistanceMeters>
          </Trackpoint>
          <Trackpoint>
            <Time>2021-08-10T08:18:23.000Z</Time>
            <Position>
              <LatitudeDegrees>43.08696697466075420379638671875</LatitudeDegrees>
              <LongitudeDegrees>-1.7434497736394405364990234375</LongitudeDegrees>
            </Position>
            <AltitudeMeters>440.20001220703125</AltitudeMeters>
            <DistanceMeters>NAN</DistanceMeters>
          </Trackpoint>
          <Trackpoint>
            <Time>2021-08-10T08:18:24.000Z</Time>
            <Position>
              <LatitudeDegrees>43.0869648791849613189697265625</LatitudeDegrees>
              <LongitudeDegrees>-1.7434256337583065032958984375</LongitudeDegrees>
            </Position>
            <AltitudeMeters>440.20001220703125</AltitudeMeters>
            <DistanceMeters>NAN</DistanceMeters>
          </Trackpoint>
          <Trackpoint>
            <Time>2021-08-10T08:18:25.000Z</Time>
            <Position>
              <LatitudeDegrees>43.08696093969047069549560546875</LatitudeDegrees>
              <LongitudeDegrees>-1.74340107478201389312744140625</LongitudeDegrees>
            </Position>
            <AltitudeMeters>440.399993896484375</AltitudeMeters>
            <DistanceMeters>NAN</DistanceMeters>
          </Trackpoint>
          <Trackpoint>
            <Time>2021-08-10T08:18:26.000Z</Time>
            <Position>
              <LatitudeDegrees>43.08695406652987003326416015625</LatitudeDegrees>
              <LongitudeDegrees>-1.74337685108184814453125</LongitudeDegrees>
            </Position>
            <AltitudeMeters>440.399993896484375</AltitudeMeters>
            <DistanceMeters>NAN</DistanceMeters>
          </Trackpoint>
          <Trackpoint>
            <Time>2021-08-10T08:18:27.000Z</Time>
            <Position>
              <LatitudeDegrees>43.08695188723504543304443359375</LatitudeDegrees>
              <LongitudeDegrees>-1.7433505319058895111083984375</LongitudeDegrees>
            </Position>
            <AltitudeMeters>440.399993896484375</AltitudeMeters>
            <DistanceMeters>NAN</DistanceMeters>
          </Trackpoint>
          <Trackpoint>
            <Time>2021-08-10T08:18:28.000Z</Time>
            <Position>
              <LatitudeDegrees>43.08695222251117229461669921875</LatitudeDegrees>
              <LongitudeDegrees>-1.743324212729930877685546875</LongitudeDegrees>
            </Position>
            <AltitudeMeters>440.600006103515625</AltitudeMeters>
            <DistanceMeters>NAN</DistanceMeters>
          </Trackpoint>
          <Trackpoint>
            <Time>2021-08-10T08:18:29.000Z</Time>
            <Position>
              <LatitudeDegrees>43.0869491212069988250732421875</LatitudeDegrees>
              <LongitudeDegrees>-1.74330183304846286773681640625</LongitudeDegrees>
            </Position>
            <AltitudeMeters>440.600006103515625</AltitudeMeters>
            <DistanceMeters>NAN</DistanceMeters>
          </Trackpoint>
          <Trackpoint>
            <Time>2021-08-10T08:18:30.000Z</Time>
            <Position>
              <LatitudeDegrees>43.0869430862367153167724609375</LatitudeDegrees>
              <LongitudeDegrees>-1.743277944624423980712890625</LongitudeDegrees>
            </Position>
            <AltitudeMeters>440.79998779296875</AltitudeMeters>
            <DistanceMeters>NAN</DistanceMeters>
          </Trackpoint>
          <Trackpoint>
            <Time>2021-08-10T08:18:31.000Z</Time>
            <Position>
              <LatitudeDegrees>43.08693914674222469329833984375</LatitudeDegrees>
              <LongitudeDegrees>-1.7432516254484653472900390625</LongitudeDegrees>
            </Position>
            <AltitudeMeters>440.79998779296875</AltitudeMeters>
            <DistanceMeters>NAN</DistanceMeters>
          </Trackpoint>
          <Trackpoint>
            <Time>2021-08-10T08:18:32.000Z</Time>
            <Position>
              <LatitudeDegrees>43.0869305133819580078125</LatitudeDegrees>
              <LongitudeDegrees>-1.74322622828185558319091796875</LongitudeDegrees>
            </Position>
            <AltitudeMeters>441</AltitudeMeters>
            <DistanceMeters>NAN</DistanceMeters>
          </Trackpoint>
          <Trackpoint>
            <Time>2021-08-10T08:18:33.000Z</Time>
            <Position>
              <LatitudeDegrees>43.0869216285645961761474609375</LatitudeDegrees>
              <LongitudeDegrees>-1.7432023398578166961669921875</LongitudeDegrees>
            </Position>
            <AltitudeMeters>441</AltitudeMeters>
            <DistanceMeters>NAN</DistanceMeters>
          </Trackpoint>
          <Trackpoint>
            <Time>2021-08-10T08:18:34.000Z</Time>
            <Position>
              <LatitudeDegrees>43.0869115702807903289794921875</LatitudeDegrees>
              <LongitudeDegrees>-1.74318163655698299407958984375</LongitudeDegrees>
            </Position>
            <AltitudeMeters>441.20001220703125</AltitudeMeters>
            <DistanceMeters>NAN</DistanceMeters>
          </Trackpoint>
          <Trackpoint>
            <Time>2021-08-10T08:18:35.000Z</Time>
            <Position>
              <LatitudeDegrees>43.08690478093922138214111328125</LatitudeDegrees>
              <LongitudeDegrees>-1.7431574128568172454833984375</LongitudeDegrees>
            </Position>
            <AltitudeMeters>441.399993896484375</AltitudeMeters>
            <DistanceMeters>NAN</DistanceMeters>
          </Trackpoint>
          <Trackpoint>
            <Time>2021-08-10T08:18:36.000Z</Time>
            <Position>
              <LatitudeDegrees>43.0868974886834621429443359375</LatitudeDegrees>
              <LongitudeDegrees>-1.74313670955598354339599609375</LongitudeDegrees>
            </Position>
            <AltitudeMeters>441.399993896484375</AltitudeMeters>
            <DistanceMeters>NAN</DistanceMeters>
          </Trackpoint>
          <Trackpoint>
            <Time>2021-08-10T08:18:37.000Z</Time>
            <Position>
              <LatitudeDegrees>43.0868887715041637420654296875</LatitudeDegrees>
              <LongitudeDegrees>-1.74311575479805469512939453125</LongitudeDegrees>
            </Position>
            <AltitudeMeters>441.600006103515625</AltitudeMeters>
            <DistanceMeters>NAN</DistanceMeters>
          </Trackpoint>
          <Trackpoint>
            <Time>2021-08-10T08:18:38.000Z</Time>
            <Position>
              <LatitudeDegrees>43.0868807248771190643310546875</LatitudeDegrees>
              <LongitudeDegrees>-1.7430927045643329620361328125</LongitudeDegrees>
            </Position>
            <AltitudeMeters>441.600006103515625</AltitudeMeters>
            <DistanceMeters>NAN</DistanceMeters>
          </Trackpoint>
          <Trackpoint>
            <Time>2021-08-10T08:18:39.000Z</Time>
            <Position>
              <LatitudeDegrees>43.0868699960410594940185546875</LatitudeDegrees>
              <LongitudeDegrees>-1.74307468347251415252685546875</LongitudeDegrees>
            </Position>
            <AltitudeMeters>441.79998779296875</AltitudeMeters>
            <DistanceMeters>NAN</DistanceMeters>
          </Trackpoint>
          <Trackpoint>
            <Time>2021-08-10T08:18:40.000Z</Time>
            <Position>
              <LatitudeDegrees>43.08685901574790477752685546875</LatitudeDegrees>
              <LongitudeDegrees>-1.74305473454296588897705078125</LongitudeDegrees>
            </Position>
            <AltitudeMeters>441.79998779296875</AltitudeMeters>
            <DistanceMeters>NAN</DistanceMeters>
          </Trackpoint>
          <Trackpoint>
            <Time>2021-08-10T08:18:41.000Z</Time>
            <Position>
              <LatitudeDegrees>43.08684669435024261474609375</LatitudeDegrees>
              <LongitudeDegrees>-1.74303327687084674835205078125</LongitudeDegrees>
            </Position>
            <AltitudeMeters>442</AltitudeMeters>
            <DistanceMeters>NAN</DistanceMeters>
          </Trackpoint>
          <Trackpoint>
            <Time>2021-08-10T08:18:42.000Z</Time>
            <Position>
              <LatitudeDegrees>43.08683554641902446746826171875</LatitudeDegrees>
              <LongitudeDegrees>-1.7430132441222667694091796875</LongitudeDegrees>
            </Position>
            <AltitudeMeters>442.20001220703125</AltitudeMeters>
            <DistanceMeters>NAN</DistanceMeters>
          </Trackpoint>
          <Trackpoint>
            <Time>2021-08-10T08:18:43.000Z</Time>
            <Position>
              <LatitudeDegrees>43.08682464994490146636962890625</LatitudeDegrees>
              <LongitudeDegrees>-1.74299472011625766754150390625</LongitudeDegrees>
            </Position>
            <AltitudeMeters>442.20001220703125</AltitudeMeters>
            <DistanceMeters>NAN</DistanceMeters>
          </Trackpoint>
          <Trackpoint>
            <Time>2021-08-10T08:18:44.000Z</Time>
            <Position>
              <LatitudeDegrees>43.08681895025074481964111328125</LatitudeDegrees>
              <LongitudeDegrees>-1.742966137826442718505859375</LongitudeDegrees>
            </Position>
            <AltitudeMeters>442.399993896484375</AltitudeMeters>
            <DistanceMeters>NAN</DistanceMeters>
          </Trackpoint>
          <Trackpoint>
            <Time>2021-08-10T08:18:45.000Z</Time>
            <Position>
              <LatitudeDegrees>43.08681375347077846527099609375</LatitudeDegrees>
              <LongitudeDegrees>-1.74294208176434040069580078125</LongitudeDegrees>
            </Position>
            <AltitudeMeters>442.399993896484375</AltitudeMeters>
            <DistanceMeters>NAN</DistanceMeters>
          </Trackpoint>
          <Trackpoint>
            <Time>2021-08-10T08:18:46.000Z</Time>
            <Position>
              <LatitudeDegrees>43.08680604211986064910888671875</LatitudeDegrees>
              <LongitudeDegrees>-1.7429193668067455291748046875</LongitudeDegrees>
            </Position>
            <AltitudeMeters>442.600006103515625</AltitudeMeters>
            <DistanceMeters>NAN</DistanceMeters>
          </Trackpoint>
          <Trackpoint>
            <Time>2021-08-10T08:18:47.000Z</Time>
            <Position>
              <LatitudeDegrees>43.0868012644350528717041015625</LatitudeDegrees>
              <LongitudeDegrees>-1.74289547838270664215087890625</LongitudeDegrees>
            </Position>
            <AltitudeMeters>442.600006103515625</AltitudeMeters>
            <DistanceMeters>NAN</DistanceMeters>
          </Trackpoint>
          <Trackpoint>
            <Time>2021-08-10T08:18:48.000Z</Time>
            <Position>
              <LatitudeDegrees>43.086793720722198486328125</LatitudeDegrees>
              <LongitudeDegrees>-1.7428754456341266632080078125</LongitudeDegrees>
            </Position>
            <AltitudeMeters>442.600006103515625</AltitudeMeters>
            <DistanceMeters>NAN</DistanceMeters>
          </Trackpoint>
          <Trackpoint>
            <Time>2021-08-10T08:18:49.000Z</Time>
            <Position>
              <LatitudeDegrees>43.086785338819026947021484375</LatitudeDegrees>
              <LongitudeDegrees>-1.74285440705716609954833984375</LongitudeDegrees>
            </Position>
            <AltitudeMeters>442.79998779296875</AltitudeMeters>
            <DistanceMeters>NAN</DistanceMeters>
          </Trackpoint>
          <Trackpoint>
            <Time>2021-08-10T08:18:50.000Z</Time>
            <Position>
              <LatitudeDegrees>43.08677720837295055389404296875</LatitudeDegrees>
              <LongitudeDegrees>-1.74283261410892009735107421875</LongitudeDegrees>
            </Position>
            <AltitudeMeters>442.79998779296875</AltitudeMeters>
            <DistanceMeters>NAN</DistanceMeters>
          </Trackpoint>
          <Trackpoint>
            <Time>2021-08-10T08:18:51.000Z</Time>
            <Position>
              <LatitudeDegrees>43.08677117340266704559326171875</LatitudeDegrees>
              <LongitudeDegrees>-1.74281015060842037200927734375</LongitudeDegrees>
            </Position>
            <AltitudeMeters>443.20001220703125</AltitudeMeters>
            <DistanceMeters>NAN</DistanceMeters>
          </Trackpoint>
          <Trackpoint>
            <Time>2021-08-10T08:18:52.000Z</Time>
            <Position>
              <LatitudeDegrees>43.08676312677562236785888671875</LatitudeDegrees>
              <LongitudeDegrees>-1.7427859269082546234130859375</LongitudeDegrees>
            </Position>
            <AltitudeMeters>443.20001220703125</AltitudeMeters>
            <DistanceMeters>NAN</DistanceMeters>
          </Trackpoint>
          <Trackpoint>
            <Time>2021-08-10T08:18:53.000Z</Time>
            <Position>
              <LatitudeDegrees>43.08675742708146572113037109375</LatitudeDegrees>
              <LongitudeDegrees>-1.74276195466518402099609375</LongitudeDegrees>
            </Position>
            <AltitudeMeters>443.600006103515625</AltitudeMeters>
            <DistanceMeters>NAN</DistanceMeters>
          </Trackpoint>
          <Trackpoint>
            <Time>2021-08-10T08:18:54.000Z</Time>
            <Position>
              <LatitudeDegrees>43.08675558306276798248291015625</LatitudeDegrees>
              <LongitudeDegrees>-1.7427376471459865570068359375</LongitudeDegrees>
            </Position>
            <AltitudeMeters>443.600006103515625</AltitudeMeters>
            <DistanceMeters>NAN</DistanceMeters>
          </Trackpoint>
          <Trackpoint>
            <Time>2021-08-10T08:18:55.000Z</Time>
            <Position>
              <LatitudeDegrees>43.08675239793956279754638671875</LatitudeDegrees>
              <LongitudeDegrees>-1.74271442927420139312744140625</LongitudeDegrees>
            </Position>
            <AltitudeMeters>443.600006103515625</AltitudeMeters>
            <DistanceMeters>NAN</DistanceMeters>
          </Trackpoint>
          <Trackpoint>
            <Time>2021-08-10T08:18:56.000Z</Time>
            <Position>
              <LatitudeDegrees>43.086745440959930419921875</LatitudeDegrees>
              <LongitudeDegrees>-1.74269112758338451385498046875</LongitudeDegrees>
            </Position>
            <AltitudeMeters>443.79998779296875</AltitudeMeters>
            <DistanceMeters>NAN</DistanceMeters>
          </Trackpoint>
          <Trackpoint>
            <Time>2021-08-10T08:18:57.000Z</Time>
            <Position>
              <LatitudeDegrees>43.08674016036093235015869140625</LatitudeDegrees>
              <LongitudeDegrees>-1.7426685802638530731201171875</LongitudeDegrees>
            </Position>
            <AltitudeMeters>444</AltitudeMeters>
            <DistanceMeters>NAN</DistanceMeters>
          </Trackpoint>
          <Trackpoint>
            <Time>2021-08-10T08:18:58.000Z</Time>
            <Position>
              <LatitudeDegrees>43.08673663996160030364990234375</LatitudeDegrees>
              <LongitudeDegrees>-1.7426474578678607940673828125</LongitudeDegrees>
            </Position>
            <AltitudeMeters>444.20001220703125</AltitudeMeters>
            <DistanceMeters>NAN</DistanceMeters>
          </Trackpoint>
          <Trackpoint>
            <Time>2021-08-10T08:18:59.000Z</Time>
            <Position>
              <LatitudeDegrees>43.08673311956226825714111328125</LatitudeDegrees>
              <LongitudeDegrees>-1.742624826729297637939453125</LongitudeDegrees>
            </Position>
            <AltitudeMeters>444.20001220703125</AltitudeMeters>
            <DistanceMeters>NAN</DistanceMeters>
          </Trackpoint>
          <Trackpoint>
            <Time>2021-08-10T08:19:00.000Z</Time>
            <Position>
              <LatitudeDegrees>43.08673077262938022613525390625</LatitudeDegrees>
              <LongitudeDegrees>-1.74260814674198627471923828125</LongitudeDegrees>
            </Position>
            <AltitudeMeters>444.399993896484375</AltitudeMeters>
            <DistanceMeters>NAN</DistanceMeters>
          </Trackpoint>
          <Trackpoint>
            <Time>2021-08-10T08:19:01.000Z</Time>
            <Position>
              <LatitudeDegrees>43.08672892861068248748779296875</LatitudeDegrees>
              <LongitudeDegrees>-1.74258626997470855712890625</LongitudeDegrees>
            </Position>
            <AltitudeMeters>444.399993896484375</AltitudeMeters>
            <DistanceMeters>NAN</DistanceMeters>
          </Trackpoint>
          <Trackpoint>
            <Time>2021-08-10T08:19:02.000Z</Time>
            <Position>
              <LatitudeDegrees>43.0867298506200313568115234375</LatitudeDegrees>
              <LongitudeDegrees>-1.7425659857690334320068359375</LongitudeDegrees>
            </Position>
            <AltitudeMeters>444.79998779296875</AltitudeMeters>
            <DistanceMeters>NAN</DistanceMeters>
          </Trackpoint>
          <Trackpoint>
            <Time>2021-08-10T08:19:03.000Z</Time>
            <Position>
              <LatitudeDegrees>43.08673228137195110321044921875</LatitudeDegrees>
              <LongitudeDegrees>-1.7425441928207874298095703125</LongitudeDegrees>
            </Position>
            <AltitudeMeters>444.79998779296875</AltitudeMeters>
            <DistanceMeters>NAN</DistanceMeters>
          </Trackpoint>
          <Trackpoint>
            <Time>2021-08-10T08:19:04.000Z</Time>
            <Position>
              <LatitudeDegrees>43.08673630468547344207763671875</LatitudeDegrees>
              <LongitudeDegrees>-1.74252265132963657379150390625</LongitudeDegrees>
            </Position>
            <AltitudeMeters>445</AltitudeMeters>
            <DistanceMeters>NAN</DistanceMeters>
          </Trackpoint>
          <Trackpoint>
            <Time>2021-08-10T08:19:05.000Z</Time>
            <Position>
              <LatitudeDegrees>43.086739741265773773193359375</LatitudeDegrees>
              <LongitudeDegrees>-1.74250186420977115631103515625</LongitudeDegrees>
            </Position>
            <AltitudeMeters>445.20001220703125</AltitudeMeters>
            <DistanceMeters>NAN</DistanceMeters>
          </Trackpoint>
          <Trackpoint>
            <Time>2021-08-10T08:19:06.000Z</Time>
            <Position>
              <LatitudeDegrees>43.0867422558367252349853515625</LatitudeDegrees>
              <LongitudeDegrees>-1.74248208291828632354736328125</LongitudeDegrees>
            </Position>
            <AltitudeMeters>445.399993896484375</AltitudeMeters>
            <DistanceMeters>NAN</DistanceMeters>
          </Trackpoint>
          <Trackpoint>
            <Time>2021-08-10T08:19:07.000Z</Time>
            <Position>
              <LatitudeDegrees>43.0867432616651058197021484375</LatitudeDegrees>
              <LongitudeDegrees>-1.742461882531642913818359375</LongitudeDegrees>
            </Position>
            <AltitudeMeters>445.600006103515625</AltitudeMeters>
            <DistanceMeters>NAN</DistanceMeters>
          </Trackpoint>
          <Trackpoint>
            <Time>2021-08-10T08:19:08.000Z</Time>
            <Position>
              <LatitudeDegrees>43.086740411818027496337890625</LatitudeDegrees>
              <LongitudeDegrees>-1.7424415983259677886962890625</LongitudeDegrees>
            </Position>
            <AltitudeMeters>445.600006103515625</AltitudeMeters>
            <DistanceMeters>NAN</DistanceMeters>
          </Trackpoint>
          <Trackpoint>
            <Time>2021-08-10T08:19:09.000Z</Time>
            <Position>
              <LatitudeDegrees>43.08673932217061519622802734375</LatitudeDegrees>
              <LongitudeDegrees>-1.7424248345196247100830078125</LongitudeDegrees>
            </Position>
            <AltitudeMeters>445.79998779296875</AltitudeMeters>
            <DistanceMeters>NAN</DistanceMeters>
          </Trackpoint>
          <Trackpoint>
            <Time>2021-08-10T08:19:10.000Z</Time>
            <Position>
              <LatitudeDegrees>43.08674653060734272003173828125</LatitudeDegrees>
              <LongitudeDegrees>-1.742402873933315277099609375</LongitudeDegrees>
            </Position>
            <AltitudeMeters>446</AltitudeMeters>
            <DistanceMeters>NAN</DistanceMeters>
          </Trackpoint>
          <Trackpoint>
            <Time>2021-08-10T08:19:11.000Z</Time>
            <Position>
              <LatitudeDegrees>43.08675407432019710540771484375</LatitudeDegrees>
              <LongitudeDegrees>-1.74238300882279872894287109375</LongitudeDegrees>
            </Position>
            <AltitudeMeters>446.20001220703125</AltitudeMeters>
            <DistanceMeters>NAN</DistanceMeters>
          </Trackpoint>
          <Trackpoint>
            <Time>2021-08-10T08:19:12.000Z</Time>
            <Position>
              <LatitudeDegrees>43.0867575109004974365234375</LatitudeDegrees>
              <LongitudeDegrees>-1.74236222170293331146240234375</LongitudeDegrees>
            </Position>
            <AltitudeMeters>446.399993896484375</AltitudeMeters>
            <DistanceMeters>NAN</DistanceMeters>
          </Trackpoint>
          <Trackpoint>
            <Time>2021-08-10T08:19:13.000Z</Time>
            <Position>
              <LatitudeDegrees>43.08676228858530521392822265625</LatitudeDegrees>
              <LongitudeDegrees>-1.7423383332788944244384765625</LongitudeDegrees>
            </Position>
            <AltitudeMeters>446.600006103515625</AltitudeMeters>
            <DistanceMeters>NAN</DistanceMeters>
          </Trackpoint>
          <Trackpoint>
            <Time>2021-08-10T08:19:14.000Z</Time>
            <Position>
              <LatitudeDegrees>43.086765892803668975830078125</LatitudeDegrees>
              <LongitudeDegrees>-1.7423195578157901763916015625</LongitudeDegrees>
            </Position>
            <AltitudeMeters>446.600006103515625</AltitudeMeters>
            <DistanceMeters>NAN</DistanceMeters>
          </Trackpoint>
          <Trackpoint>
            <Time>2021-08-10T08:19:15.000Z</Time>
            <Position>
              <LatitudeDegrees>43.0867717601358890533447265625</LatitudeDegrees>
              <LongitudeDegrees>-1.74230002798140048980712890625</LongitudeDegrees>
            </Position>
            <AltitudeMeters>446.79998779296875</AltitudeMeters>
            <DistanceMeters>NAN</DistanceMeters>
          </Trackpoint>
          <Trackpoint>
            <Time>2021-08-10T08:19:16.000Z</Time>
            <Position>
              <LatitudeDegrees>43.08677695691585540771484375</LatitudeDegrees>
              <LongitudeDegrees>-1.74227873794734477996826171875</LongitudeDegrees>
            </Position>
            <AltitudeMeters>447</AltitudeMeters>
            <DistanceMeters>NAN</DistanceMeters>
          </Trackpoint>
          <Trackpoint>
            <Time>2021-08-10T08:19:17.000Z</Time>
            <Position>
              <LatitudeDegrees>43.08677854947745800018310546875</LatitudeDegrees>
              <LongitudeDegrees>-1.74225543625652790069580078125</LongitudeDegrees>
            </Position>
            <AltitudeMeters>447.20001220703125</AltitudeMeters>
            <DistanceMeters>NAN</DistanceMeters>
          </Trackpoint>
          <Trackpoint>
            <Time>2021-08-10T08:19:18.000Z</Time>
            <Position>
              <LatitudeDegrees>43.08677821420133113861083984375</LatitudeDegrees>
              <LongitudeDegrees>-1.7422320507466793060302734375</LongitudeDegrees>
            </Position>
            <AltitudeMeters>447.20001220703125</AltitudeMeters>
            <DistanceMeters>NAN</DistanceMeters>
          </Trackpoint>
          <Trackpoint>
            <Time>2021-08-10T08:19:19.000Z</Time>
            <Position>
              <LatitudeDegrees>43.08677553199231624603271484375</LatitudeDegrees>
              <LongitudeDegrees>-1.74220941960811614990234375</LongitudeDegrees>
            </Position>
            <AltitudeMeters>447.399993896484375</AltitudeMeters>
            <DistanceMeters>NAN</DistanceMeters>
          </Trackpoint>
          <Trackpoint>
            <Time>2021-08-10T08:19:20.000Z</Time>
            <Position>
              <LatitudeDegrees>43.0867751128971576690673828125</LatitudeDegrees>
              <LongitudeDegrees>-1.7421864531934261322021484375</LongitudeDegrees>
            </Position>
            <AltitudeMeters>447.600006103515625</AltitudeMeters>
            <DistanceMeters>NAN</DistanceMeters>
          </Trackpoint>
          <Trackpoint>
            <Time>2021-08-10T08:19:21.000Z</Time>
            <Position>
              <LatitudeDegrees>43.08677720837295055389404296875</LatitudeDegrees>
              <LongitudeDegrees>-1.74216256476938724517822265625</LongitudeDegrees>
            </Position>
            <AltitudeMeters>447.600006103515625</AltitudeMeters>
            <DistanceMeters>NAN</DistanceMeters>
          </Trackpoint>
          <Trackpoint>
            <Time>2021-08-10T08:19:22.000Z</Time>
            <Position>
              <LatitudeDegrees>43.08677586726844310760498046875</LatitudeDegrees>
              <LongitudeDegrees>-1.74214504659175872802734375</LongitudeDegrees>
            </Position>
            <AltitudeMeters>447.79998779296875</AltitudeMeters>
            <DistanceMeters>NAN</DistanceMeters>
          </Trackpoint>
          <Trackpoint>
            <Time>2021-08-10T08:19:23.000Z</Time>
            <Position>
              <LatitudeDegrees>43.08677553199231624603271484375</LatitudeDegrees>
              <LongitudeDegrees>-1.74212627112865447998046875</LongitudeDegrees>
            </Position>
            <AltitudeMeters>448</AltitudeMeters>
            <DistanceMeters>NAN</DistanceMeters>
          </Trackpoint>
          <Trackpoint>
            <Time>2021-08-10T08:19:24.000Z</Time>
            <Position>
              <LatitudeDegrees>43.08677754364907741546630859375</LatitudeDegrees>
              <LongitudeDegrees>-1.7421041429042816162109375</LongitudeDegrees>
            </Position>
            <AltitudeMeters>448</AltitudeMeters>
            <DistanceMeters>NAN</DistanceMeters>
          </Trackpoint>
          <Trackpoint>
            <Time>2021-08-10T08:19:25.000Z</Time>
            <Position>
              <LatitudeDegrees>43.086779974400997161865234375</LatitudeDegrees>
              <LongitudeDegrees>-1.742084026336669921875</LongitudeDegrees>
            </Position>
            <AltitudeMeters>448.399993896484375</AltitudeMeters>
            <DistanceMeters>NAN</DistanceMeters>
          </Trackpoint>
          <Trackpoint>
            <Time>2021-08-10T08:19:26.000Z</Time>
            <Position>
              <LatitudeDegrees>43.086781315505504608154296875</LatitudeDegrees>
              <LongitudeDegrees>-1.742060892283916473388671875</LongitudeDegrees>
            </Position>
            <AltitudeMeters>448.600006103515625</AltitudeMeters>
            <DistanceMeters>NAN</DistanceMeters>
          </Trackpoint>
          <Trackpoint>
            <Time>2021-08-10T08:19:27.000Z</Time>
            <Position>
              <LatitudeDegrees>43.08678072877228260040283203125</LatitudeDegrees>
              <LongitudeDegrees>-1.74204253591597080230712890625</LongitudeDegrees>
            </Position>
            <AltitudeMeters>448.79998779296875</AltitudeMeters>
            <DistanceMeters>NAN</DistanceMeters>
          </Trackpoint>
          <Trackpoint>
            <Time>2021-08-10T08:19:28.000Z</Time>
            <Position>
              <LatitudeDegrees>43.08678324334323406219482421875</LatitudeDegrees>
              <LongitudeDegrees>-1.74201973713934421539306640625</LongitudeDegrees>
            </Position>
            <AltitudeMeters>448.79998779296875</AltitudeMeters>
            <DistanceMeters>NAN</DistanceMeters>
          </Trackpoint>
          <Trackpoint>
            <Time>2021-08-10T08:19:29.000Z</Time>
            <Position>
              <LatitudeDegrees>43.08678232133388519287109375</LatitudeDegrees>
              <LongitudeDegrees>-1.741999201476573944091796875</LongitudeDegrees>
            </Position>
            <AltitudeMeters>448.79998779296875</AltitudeMeters>
            <DistanceMeters>NAN</DistanceMeters>
          </Trackpoint>
          <Trackpoint>
            <Time>2021-08-10T08:19:30.000Z</Time>
            <Position>
              <LatitudeDegrees>43.08677318505942821502685546875</LatitudeDegrees>
              <LongitudeDegrees>-1.74198335967957973480224609375</LongitudeDegrees>
            </Position>
            <AltitudeMeters>449</AltitudeMeters>
            <DistanceMeters>NAN</DistanceMeters>
          </Trackpoint>
          <Trackpoint>
            <Time>2021-08-10T08:19:31.000Z</Time>
            <Position>
              <LatitudeDegrees>43.08675759471952915191650390625</LatitudeDegrees>
              <LongitudeDegrees>-1.7419675178825855255126953125</LongitudeDegrees>
            </Position>
            <AltitudeMeters>449</AltitudeMeters>
            <DistanceMeters>NAN</DistanceMeters>
          </Trackpoint>
          <Trackpoint>
            <Time>2021-08-10T08:19:32.000Z</Time>
            <Position>
              <LatitudeDegrees>43.08674602769315242767333984375</LatitudeDegrees>
              <LongitudeDegrees>-1.74195167608559131622314453125</LongitudeDegrees>
            </Position>
            <AltitudeMeters>449.20001220703125</AltitudeMeters>
            <DistanceMeters>NAN</DistanceMeters>
          </Trackpoint>
          <Trackpoint>
            <Time>2021-08-10T08:19:33.000Z</Time>
            <Position>
              <LatitudeDegrees>43.0867368914186954498291015625</LatitudeDegrees>
              <LongitudeDegrees>-1.7419373430311679840087890625</LongitudeDegrees>
            </Position>
            <AltitudeMeters>449.20001220703125</AltitudeMeters>
            <DistanceMeters>NAN</DistanceMeters>
          </Trackpoint>
          <Trackpoint>
            <Time>2021-08-10T08:19:34.000Z</Time>
            <Position>
              <LatitudeDegrees>43.08673177845776081085205078125</LatitudeDegrees>
              <LongitudeDegrees>-1.74191814847290515899658203125</LongitudeDegrees>
            </Position>
            <AltitudeMeters>449.20001220703125</AltitudeMeters>
            <DistanceMeters>NAN</DistanceMeters>
          </Trackpoint>
          <Trackpoint>
            <Time>2021-08-10T08:19:35.000Z</Time>
            <Position>
              <LatitudeDegrees>43.08672741986811161041259765625</LatitudeDegrees>
              <LongitudeDegrees>-1.74189467914402484893798828125</LongitudeDegrees>
            </Position>
            <AltitudeMeters>449.20001220703125</AltitudeMeters>
            <DistanceMeters>NAN</DistanceMeters>
          </Trackpoint>
          <Trackpoint>
            <Time>2021-08-10T08:19:36.000Z</Time>
            <Position>
              <LatitudeDegrees>43.0867241509258747100830078125</LatitudeDegrees>
              <LongitudeDegrees>-1.74187338910996913909912109375</LongitudeDegrees>
            </Position>
            <AltitudeMeters>449.20001220703125</AltitudeMeters>
            <DistanceMeters>NAN</DistanceMeters>
          </Trackpoint>
          <Trackpoint>
            <Time>2021-08-10T08:19:37.000Z</Time>
            <Position>
              <LatitudeDegrees>43.0867181159555912017822265625</LatitudeDegrees>
              <LongitudeDegrees>-1.7418525181710720062255859375</LongitudeDegrees>
            </Position>
            <AltitudeMeters>449.20001220703125</AltitudeMeters>
            <DistanceMeters>NAN</DistanceMeters>
          </Trackpoint>
          <Trackpoint>
            <Time>2021-08-10T08:19:38.000Z</Time>
            <Position>
              <LatitudeDegrees>43.08671216480433940887451171875</LatitudeDegrees>
              <LongitudeDegrees>-1.74183525145053863525390625</LongitudeDegrees>
            </Position>
            <AltitudeMeters>449.20001220703125</AltitudeMeters>
            <DistanceMeters>NAN</DistanceMeters>
          </Trackpoint>
          <Trackpoint>
            <Time>2021-08-10T08:19:39.000Z</Time>
            <Position>
              <LatitudeDegrees>43.0867020227015018463134765625</LatitudeDegrees>
              <LongitudeDegrees>-1.7418216727674007415771484375</LongitudeDegrees>
            </Position>
            <AltitudeMeters>449.20001220703125</AltitudeMeters>
            <DistanceMeters>NAN</DistanceMeters>
          </Trackpoint>
          <Trackpoint>
            <Time>2021-08-10T08:19:40.000Z</Time>
            <Position>
              <LatitudeDegrees>43.08669188059866428375244140625</LatitudeDegrees>
              <LongitudeDegrees>-1.74181086011230945587158203125</LongitudeDegrees>
            </Position>
            <AltitudeMeters>449.20001220703125</AltitudeMeters>
            <DistanceMeters>NAN</DistanceMeters>
          </Trackpoint>
          <Trackpoint>
            <Time>2021-08-10T08:19:41.000Z</Time>
            <Position>
              <LatitudeDegrees>43.08668299578130245208740234375</LatitudeDegrees>
              <LongitudeDegrees>-1.74179627560079097747802734375</LongitudeDegrees>
            </Position>
            <AltitudeMeters>449.20001220703125</AltitudeMeters>
            <DistanceMeters>NAN</DistanceMeters>
          </Trackpoint>
          <Trackpoint>
            <Time>2021-08-10T08:19:42.000Z</Time>
            <Position>
              <LatitudeDegrees>43.08667779900133609771728515625</LatitudeDegrees>
              <LongitudeDegrees>-1.7417780868709087371826171875</LongitudeDegrees>
            </Position>
            <AltitudeMeters>449.20001220703125</AltitudeMeters>
            <DistanceMeters>NAN</DistanceMeters>
          </Trackpoint>
          <Trackpoint>
            <Time>2021-08-10T08:19:43.000Z</Time>
            <Position>
              <LatitudeDegrees>43.08667126111686229705810546875</LatitudeDegrees>
              <LongitudeDegrees>-1.741762496531009674072265625</LongitudeDegrees>
            </Position>
            <AltitudeMeters>449.20001220703125</AltitudeMeters>
            <DistanceMeters>NAN</DistanceMeters>
          </Trackpoint>
          <Trackpoint>
            <Time>2021-08-10T08:19:44.000Z</Time>
            <Position>
              <LatitudeDegrees>43.08666589669883251190185546875</LatitudeDegrees>
              <LongitudeDegrees>-1.74174782820045948028564453125</LongitudeDegrees>
            </Position>
            <AltitudeMeters>449.20001220703125</AltitudeMeters>
            <DistanceMeters>NAN</DistanceMeters>
          </Trackpoint>
          <Trackpoint>
            <Time>2021-08-10T08:19:45.000Z</Time>
            <Position>
              <LatitudeDegrees>43.08666019700467586517333984375</LatitudeDegrees>
              <LongitudeDegrees>-1.74172620289027690887451171875</LongitudeDegrees>
            </Position>
            <AltitudeMeters>449.20001220703125</AltitudeMeters>
            <DistanceMeters>NAN</DistanceMeters>
          </Trackpoint>
          <Trackpoint>
            <Time>2021-08-10T08:19:49.000Z</Time>
            <Position>
              <LatitudeDegrees>43.08664410375058650970458984375</LatitudeDegrees>
              <LongitudeDegrees>-1.74160500057041645050048828125</LongitudeDegrees>
            </Position>
            <AltitudeMeters>449</AltitudeMeters>
            <DistanceMeters>NAN</DistanceMeters>
          </Trackpoint>
          <Trackpoint>
            <Time>2021-08-10T08:19:50.000Z</Time>
            <Position>
              <LatitudeDegrees>43.08664150536060333251953125</LatitudeDegrees>
              <LongitudeDegrees>-1.74157750792801380157470703125</LongitudeDegrees>
            </Position>
            <AltitudeMeters>449</AltitudeMeters>
            <DistanceMeters>NAN</DistanceMeters>
          </Trackpoint>
          <Trackpoint>
            <Time>2021-08-10T08:19:51.000Z</Time>
            <Position>
              <LatitudeDegrees>43.08663940988481044769287109375</LatitudeDegrees>
              <LongitudeDegrees>-1.74155496060848236083984375</LongitudeDegrees>
            </Position>
            <AltitudeMeters>449</AltitudeMeters>
            <DistanceMeters>NAN</DistanceMeters>
          </Trackpoint>
          <Trackpoint>
            <Time>2021-08-10T08:19:52.000Z</Time>
            <Position>
              <LatitudeDegrees>43.08663555420935153961181640625</LatitudeDegrees>
              <LongitudeDegrees>-1.74153476022183895111083984375</LongitudeDegrees>
            </Position>
            <AltitudeMeters>449</AltitudeMeters>
            <DistanceMeters>NAN</DistanceMeters>
          </Trackpoint>
          <Trackpoint>
            <Time>2021-08-10T08:19:53.000Z</Time>
            <Position>
              <LatitudeDegrees>43.0866292677819728851318359375</LatitudeDegrees>
              <LongitudeDegrees>-1.74151548184454441070556640625</LongitudeDegrees>
            </Position>
            <AltitudeMeters>449</AltitudeMeters>
            <DistanceMeters>NAN</DistanceMeters>
          </Trackpoint>
          <Trackpoint>
            <Time>2021-08-10T08:19:54.000Z</Time>
            <Position>
              <LatitudeDegrees>43.08662348426878452301025390625</LatitudeDegrees>
              <LongitudeDegrees>-1.7414967902004718780517578125</LongitudeDegrees>
            </Position>
            <AltitudeMeters>449</AltitudeMeters>
            <DistanceMeters>NAN</DistanceMeters>
          </Trackpoint>
          <Trackpoint>
            <Time>2021-08-10T08:19:55.000Z</Time>
            <Position>
              <LatitudeDegrees>43.0866185389459133148193359375</LatitudeDegrees>
              <LongitudeDegrees>-1.7414766736328601837158203125</LongitudeDegrees>
            </Position>
            <AltitudeMeters>449</AltitudeMeters>
            <DistanceMeters>NAN</DistanceMeters>
          </Trackpoint>
          <Trackpoint>
            <Time>2021-08-10T08:19:56.000Z</Time>
            <Position>
              <LatitudeDegrees>43.086616359651088714599609375</LatitudeDegrees>
              <LongitudeDegrees>-1.7414592392742633819580078125</LongitudeDegrees>
            </Position>
            <AltitudeMeters>449</AltitudeMeters>
            <DistanceMeters>NAN</DistanceMeters>
          </Trackpoint>
          <Trackpoint>
            <Time>2021-08-10T08:19:57.000Z</Time>
            <Position>
              <LatitudeDegrees>43.08661602437496185302734375</LatitudeDegrees>
              <LongitudeDegrees>-1.74144566059112548828125</LongitudeDegrees>
            </Position>
            <AltitudeMeters>449</AltitudeMeters>
            <DistanceMeters>NAN</DistanceMeters>
          </Trackpoint>
          <Trackpoint>
            <Time>2021-08-10T08:19:58.000Z</Time>
            <Position>
              <LatitudeDegrees>43.0866131745278835296630859375</LatitudeDegrees>
              <LongitudeDegrees>-1.74143132753670215606689453125</LongitudeDegrees>
            </Position>
            <AltitudeMeters>449</AltitudeMeters>
            <DistanceMeters>NAN</DistanceMeters>
          </Trackpoint>
          <Trackpoint>
            <Time>2021-08-10T08:19:59.000Z</Time>
            <Position>
              <LatitudeDegrees>43.08660940267145633697509765625</LatitudeDegrees>
              <LongitudeDegrees>-1.74141489900648593902587890625</LongitudeDegrees>
            </Position>
            <AltitudeMeters>449</AltitudeMeters>
            <DistanceMeters>NAN</DistanceMeters>
          </Trackpoint>
          <Trackpoint>
            <Time>2021-08-10T08:20:00.000Z</Time>
            <Position>
              <LatitudeDegrees>43.0866037867963314056396484375</LatitudeDegrees>
              <LongitudeDegrees>-1.74139863811433315277099609375</LongitudeDegrees>
            </Position>
            <AltitudeMeters>449</AltitudeMeters>
            <DistanceMeters>NAN</DistanceMeters>
          </Trackpoint>
          <Trackpoint>
            <Time>2021-08-10T08:20:01.000Z</Time>
            <Position>
              <LatitudeDegrees>43.08660085313022136688232421875</LatitudeDegrees>
              <LongitudeDegrees>-1.74137718044221401214599609375</LongitudeDegrees>
            </Position>
            <AltitudeMeters>448.79998779296875</AltitudeMeters>
            <DistanceMeters>NAN</DistanceMeters>
          </Trackpoint>
          <Trackpoint>
            <Time>2021-08-10T08:20:03.000Z</Time>
            <Position>
              <LatitudeDegrees>43.08659833855926990509033203125</LatitudeDegrees>
              <LongitudeDegrees>-1.741327978670597076416015625</LongitudeDegrees>
            </Position>
            <AltitudeMeters>448.79998779296875</AltitudeMeters>
            <DistanceMeters>NAN</DistanceMeters>
          </Trackpoint>
          <Trackpoint>
            <Time>2021-08-10T08:20:05.000Z</Time>
            <Position>
              <LatitudeDegrees>43.086584173142910003662109375</LatitudeDegrees>
              <LongitudeDegrees>-1.74128078855574131011962890625</LongitudeDegrees>
            </Position>
            <AltitudeMeters>448.600006103515625</AltitudeMeters>
            <DistanceMeters>NAN</DistanceMeters>
          </Trackpoint>
          <Trackpoint>
            <Time>2021-08-10T08:20:06.000Z</Time>
            <Position>
              <LatitudeDegrees>43.08657302521169185638427734375</LatitudeDegrees>
              <LongitudeDegrees>-1.7412567324936389923095703125</LongitudeDegrees>
            </Position>
            <AltitudeMeters>448.600006103515625</AltitudeMeters>
            <DistanceMeters>NAN</DistanceMeters>
          </Trackpoint>
          <Trackpoint>
            <Time>2021-08-10T08:20:07.000Z</Time>
            <Position>
              <LatitudeDegrees>43.08656380511820316314697265625</LatitudeDegrees>
              <LongitudeDegrees>-1.7412278987467288970947265625</LongitudeDegrees>
            </Position>
            <AltitudeMeters>448.600006103515625</AltitudeMeters>
            <DistanceMeters>NAN</DistanceMeters>
          </Trackpoint>
          <Trackpoint>
            <Time>2021-08-10T08:20:09.000Z</Time>
            <Position>
              <LatitudeDegrees>43.08655341155827045440673828125</LatitudeDegrees>
              <LongitudeDegrees>-1.7411662079393863677978515625</LongitudeDegrees>
            </Position>
            <AltitudeMeters>448.600006103515625</AltitudeMeters>
            <DistanceMeters>NAN</DistanceMeters>
          </Trackpoint>
          <Trackpoint>
            <Time>2021-08-10T08:20:10.000Z</Time>
            <Position>
              <LatitudeDegrees>43.08654871769249439239501953125</LatitudeDegrees>
              <LongitudeDegrees>-1.741138212382793426513671875</LongitudeDegrees>
            </Position>
            <AltitudeMeters>448.600006103515625</AltitudeMeters>
            <DistanceMeters>NAN</DistanceMeters>
          </Trackpoint>
          <Trackpoint>
            <Time>2021-08-10T08:20:13.000Z</Time>
            <Position>
              <LatitudeDegrees>43.08652290143072605133056640625</LatitudeDegrees>
              <LongitudeDegrees>-1.7410471849143505096435546875</LongitudeDegrees>
            </Position>
            <AltitudeMeters>448.399993896484375</AltitudeMeters>
            <DistanceMeters>NAN</DistanceMeters>
          </Trackpoint>
          <Trackpoint>
            <Time>2021-08-10T08:20:14.000Z</Time>
            <Position>
              <LatitudeDegrees>43.08651267550885677337646484375</LatitudeDegrees>
              <LongitudeDegrees>-1.74100904725492000579833984375</LongitudeDegrees>
            </Position>
            <AltitudeMeters>448.399993896484375</AltitudeMeters>
            <DistanceMeters>NAN</DistanceMeters>
          </Trackpoint>
          <Trackpoint>
            <Time>2021-08-10T08:20:15.000Z</Time>
            <Position>
              <LatitudeDegrees>43.08650429360568523406982421875</LatitudeDegrees>
              <LongitudeDegrees>-1.74097116105258464813232421875</LongitudeDegrees>
            </Position>
            <AltitudeMeters>448.399993896484375</AltitudeMeters>
            <DistanceMeters>NAN</DistanceMeters>
          </Trackpoint>
          <Trackpoint>
            <Time>2021-08-10T08:20:16.000Z</Time>
            <Position>
              <LatitudeDegrees>43.08649792335927486419677734375</LatitudeDegrees>
              <LongitudeDegrees>-1.74093595705926418304443359375</LongitudeDegrees>
            </Position>
            <AltitudeMeters>448.399993896484375</AltitudeMeters>
            <DistanceMeters>NAN</DistanceMeters>
          </Trackpoint>
          <Trackpoint>
            <Time>2021-08-10T08:20:20.000Z</Time>
            <Position>
              <LatitudeDegrees>43.08648032136261463165283203125</LatitudeDegrees>
              <LongitudeDegrees>-1.74080922268331050872802734375</LongitudeDegrees>
            </Position>
            <AltitudeMeters>448.20001220703125</AltitudeMeters>
            <DistanceMeters>NAN</DistanceMeters>
          </Trackpoint>
          <Trackpoint>
            <Time>2021-08-10T08:20:21.000Z</Time>
            <Position>
              <LatitudeDegrees>43.0864790640771389007568359375</LatitudeDegrees>
              <LongitudeDegrees>-1.74078055657446384429931640625</LongitudeDegrees>
            </Position>
            <AltitudeMeters>448</AltitudeMeters>
            <DistanceMeters>NAN</DistanceMeters>
          </Trackpoint>
          <Trackpoint>
            <Time>2021-08-10T08:20:22.000Z</Time>
            <Position>
              <LatitudeDegrees>43.08648183010518550872802734375</LatitudeDegrees>
              <LongitudeDegrees>-1.74074937589466571807861328125</LongitudeDegrees>
            </Position>
            <AltitudeMeters>448</AltitudeMeters>
            <DistanceMeters>NAN</DistanceMeters>
          </Trackpoint>
          <Trackpoint>
            <Time>2021-08-10T08:20:23.000Z</Time>
            <Position>
              <LatitudeDegrees>43.08647177182137966156005859375</LatitudeDegrees>
              <LongitudeDegrees>-1.7407228052616119384765625</LongitudeDegrees>
            </Position>
            <AltitudeMeters>448</AltitudeMeters>
            <DistanceMeters>NAN</DistanceMeters>
          </Trackpoint>
          <Trackpoint>
            <Time>2021-08-10T08:20:24.000Z</Time>
            <Position>
              <LatitudeDegrees>43.08646020479500293731689453125</LatitudeDegrees>
              <LongitudeDegrees>-1.74069489352405071258544921875</LongitudeDegrees>
            </Position>
            <AltitudeMeters>448</AltitudeMeters>
            <DistanceMeters>NAN</DistanceMeters>
          </Trackpoint>
          <Trackpoint>
            <Time>2021-08-10T08:20:26.000Z</Time>
            <Position>
              <LatitudeDegrees>43.0864410102367401123046875</LatitudeDegrees>
              <LongitudeDegrees>-1.7406277544796466827392578125</LongitudeDegrees>
            </Position>
            <AltitudeMeters>448</AltitudeMeters>
            <DistanceMeters>NAN</DistanceMeters>
          </Trackpoint>
          <Trackpoint>
            <Time>2021-08-10T08:20:27.000Z</Time>
            <Position>
              <LatitudeDegrees>43.086429946124553680419921875</LatitudeDegrees>
              <LongitudeDegrees>-1.7405959032475948333740234375</LongitudeDegrees>
            </Position>
            <AltitudeMeters>448</AltitudeMeters>
            <DistanceMeters>NAN</DistanceMeters>
          </Trackpoint>
          <Trackpoint>
            <Time>2021-08-10T08:20:33.000Z</Time>
            <Position>
              <LatitudeDegrees>43.08640941046178340911865234375</LatitudeDegrees>
              <LongitudeDegrees>-1.740401275455951690673828125</LongitudeDegrees>
            </Position>
            <AltitudeMeters>448</AltitudeMeters>
            <DistanceMeters>NAN</DistanceMeters>
          </Trackpoint>
          <Trackpoint>
            <Time>2021-08-10T08:20:41.000Z</Time>
            <Position>
              <LatitudeDegrees>43.08644243516027927398681640625</LatitudeDegrees>
              <LongitudeDegrees>-1.7401114292442798614501953125</LongitudeDegrees>
            </Position>
            <AltitudeMeters>448</AltitudeMeters>
            <DistanceMeters>NAN</DistanceMeters>
          </Trackpoint>
          <Trackpoint>
            <Time>2021-08-10T08:20:47.000Z</Time>
            <Position>
              <LatitudeDegrees>43.086529858410358428955078125</LatitudeDegrees>
              <LongitudeDegrees>-1.739804483950138092041015625</LongitudeDegrees>
            </Position>
            <AltitudeMeters>448</AltitudeMeters>
            <DistanceMeters>NAN</DistanceMeters>
          </Trackpoint>
          <Trackpoint>
            <Time>2021-08-10T08:20:49.000Z</Time>
            <Position>
              <LatitudeDegrees>43.08657805435359477996826171875</LatitudeDegrees>
              <LongitudeDegrees>-1.73969677649438381195068359375</LongitudeDegrees>
            </Position>
            <AltitudeMeters>447.79998779296875</AltitudeMeters>
            <DistanceMeters>NAN</DistanceMeters>
          </Trackpoint>
          <Trackpoint>
            <Time>2021-08-10T08:20:51.000Z</Time>
            <Position>
              <LatitudeDegrees>43.0866368114948272705078125</LatitudeDegrees>
              <LongitudeDegrees>-1.73959217034280300140380859375</LongitudeDegrees>
            </Position>
            <AltitudeMeters>447.79998779296875</AltitudeMeters>
            <DistanceMeters>NAN</DistanceMeters>
          </Trackpoint>
          <Trackpoint>
            <Time>2021-08-10T08:20:52.000Z</Time>
            <Position>
              <LatitudeDegrees>43.0866671539843082427978515625</LatitudeDegrees>
              <LongitudeDegrees>-1.73953835852444171905517578125</LongitudeDegrees>
            </Position>
            <AltitudeMeters>447.399993896484375</AltitudeMeters>
            <DistanceMeters>NAN</DistanceMeters>
          </Trackpoint>
          <Trackpoint>
            <Time>2021-08-10T08:20:54.000Z</Time>
            <Position>
              <LatitudeDegrees>43.08672842569649219512939453125</LatitudeDegrees>
              <LongitudeDegrees>-1.73943542875349521636962890625</LongitudeDegrees>
            </Position>
            <AltitudeMeters>447.20001220703125</AltitudeMeters>
            <DistanceMeters>NAN</DistanceMeters>
          </Trackpoint>
          <Trackpoint>
            <Time>2021-08-10T08:21:00.000Z</Time>
            <Position>
              <LatitudeDegrees>43.08690779842436313629150390625</LatitudeDegrees>
              <LongitudeDegrees>-1.73912814818322658538818359375</LongitudeDegrees>
            </Position>
            <AltitudeMeters>446.600006103515625</AltitudeMeters>
            <DistanceMeters>NAN</DistanceMeters>
          </Trackpoint>
          <Trackpoint>
            <Time>2021-08-10T08:21:01.000Z</Time>
            <Position>
              <LatitudeDegrees>43.08692757971584796905517578125</LatitudeDegrees>
              <LongitudeDegrees>-1.73907400108873844146728515625</LongitudeDegrees>
            </Position>
            <AltitudeMeters>446.600006103515625</AltitudeMeters>
            <DistanceMeters>NAN</DistanceMeters>
          </Trackpoint>
          <Trackpoint>
            <Time>2021-08-10T08:21:02.000Z</Time>
            <Position>
              <LatitudeDegrees>43.08694518171250820159912109375</LatitudeDegrees>
              <LongitudeDegrees>-1.73901918344199657440185546875</LongitudeDegrees>
            </Position>
            <AltitudeMeters>446.399993896484375</AltitudeMeters>
            <DistanceMeters>NAN</DistanceMeters>
          </Trackpoint>
          <Trackpoint>
            <Time>2021-08-10T08:21:03.000Z</Time>
            <Position>
              <LatitudeDegrees>43.08696093969047069549560546875</LatitudeDegrees>
              <LongitudeDegrees>-1.7389605939388275146484375</LongitudeDegrees>
            </Position>
            <AltitudeMeters>446.399993896484375</AltitudeMeters>
            <DistanceMeters>NAN</DistanceMeters>
          </Trackpoint>
          <Trackpoint>
            <Time>2021-08-10T08:21:04.000Z</Time>
            <Position>
              <LatitudeDegrees>43.0869719199836254119873046875</LatitudeDegrees>
              <LongitudeDegrees>-1.73889680765569210052490234375</LongitudeDegrees>
            </Position>
            <AltitudeMeters>446.399993896484375</AltitudeMeters>
            <DistanceMeters>NAN</DistanceMeters>
          </Trackpoint>
          <Trackpoint>
            <Time>2021-08-10T08:21:06.000Z</Time>
            <Position>
              <LatitudeDegrees>43.086980469524860382080078125</LatitudeDegrees>
              <LongitudeDegrees>-1.73876554705202579498291015625</LongitudeDegrees>
            </Position>
            <AltitudeMeters>446.399993896484375</AltitudeMeters>
            <DistanceMeters>NAN</DistanceMeters>
          </Trackpoint>
          <Trackpoint>
            <Time>2021-08-10T08:21:07.000Z</Time>
            <Position>
              <LatitudeDegrees>43.08697552420198917388916015625</LatitudeDegrees>
              <LongitudeDegrees>-1.73870653845369815826416015625</LongitudeDegrees>
            </Position>
            <AltitudeMeters>446.20001220703125</AltitudeMeters>
            <DistanceMeters>NAN</DistanceMeters>
          </Trackpoint>
          <Trackpoint>
            <Time>2021-08-10T08:21:08.000Z</Time>
            <Position>
              <LatitudeDegrees>43.08696781285107135772705078125</LatitudeDegrees>
              <LongitudeDegrees>-1.73864870332181453704833984375</LongitudeDegrees>
            </Position>
            <AltitudeMeters>446.20001220703125</AltitudeMeters>
            <DistanceMeters>NAN</DistanceMeters>
          </Trackpoint>
          <Trackpoint>
            <Time>2021-08-10T08:21:11.000Z</Time>
            <Position>
              <LatitudeDegrees>43.0869310162961483001708984375</LatitudeDegrees>
              <LongitudeDegrees>-1.73847989179193973541259765625</LongitudeDegrees>
            </Position>
            <AltitudeMeters>446.399993896484375</AltitudeMeters>
            <DistanceMeters>NAN</DistanceMeters>
          </Trackpoint>
          <Trackpoint>
            <Time>2021-08-10T08:21:12.000Z</Time>
            <Position>
              <LatitudeDegrees>43.08691165409982204437255859375</LatitudeDegrees>
              <LongitudeDegrees>-1.7384263314306735992431640625</LongitudeDegrees>
            </Position>
            <AltitudeMeters>446.399993896484375</AltitudeMeters>
            <DistanceMeters>NAN</DistanceMeters>
          </Trackpoint>
          <Trackpoint>
            <Time>2021-08-10T08:21:13.000Z</Time>
            <Position>
              <LatitudeDegrees>43.0868897773325443267822265625</LatitudeDegrees>
              <LongitudeDegrees>-1.73837386071681976318359375</LongitudeDegrees>
            </Position>
            <AltitudeMeters>446.399993896484375</AltitudeMeters>
            <DistanceMeters>NAN</DistanceMeters>
          </Trackpoint>
          <Trackpoint>
            <Time>2021-08-10T08:21:14.000Z</Time>
            <Position>
              <LatitudeDegrees>43.08686723001301288604736328125</LatitudeDegrees>
              <LongitudeDegrees>-1.73832180909812450408935546875</LongitudeDegrees>
            </Position>
            <AltitudeMeters>446.399993896484375</AltitudeMeters>
            <DistanceMeters>NAN</DistanceMeters>
          </Trackpoint>
          <Trackpoint>
            <Time>2021-08-10T08:21:15.000Z</Time>
            <Position>
              <LatitudeDegrees>43.08684459887444972991943359375</LatitudeDegrees>
              <LongitudeDegrees>-1.73827252350747585296630859375</LongitudeDegrees>
            </Position>
            <AltitudeMeters>446.399993896484375</AltitudeMeters>
            <DistanceMeters>NAN</DistanceMeters>
          </Trackpoint>
          <Trackpoint>
            <Time>2021-08-10T08:21:16.000Z</Time>
            <Position>
              <LatitudeDegrees>43.0868220515549182891845703125</LatitudeDegrees>
              <LongitudeDegrees>-1.738223992288112640380859375</LongitudeDegrees>
            </Position>
            <AltitudeMeters>446.600006103515625</AltitudeMeters>
            <DistanceMeters>NAN</DistanceMeters>
          </Trackpoint>
          <Trackpoint>
            <Time>2021-08-10T08:21:17.000Z</Time>
            <Position>
              <LatitudeDegrees>43.08679933659732341766357421875</LatitudeDegrees>
              <LongitudeDegrees>-1.738176047801971435546875</LongitudeDegrees>
            </Position>
            <AltitudeMeters>446.600006103515625</AltitudeMeters>
            <DistanceMeters>NAN</DistanceMeters>
          </Trackpoint>
          <Trackpoint>
            <Time>2021-08-10T08:21:18.000Z</Time>
            <Position>
              <LatitudeDegrees>43.08677720837295055389404296875</LatitudeDegrees>
              <LongitudeDegrees>-1.7381286062300205230712890625</LongitudeDegrees>
            </Position>
            <AltitudeMeters>446.79998779296875</AltitudeMeters>
            <DistanceMeters>NAN</DistanceMeters>
          </Trackpoint>
          <Trackpoint>
            <Time>2021-08-10T08:21:19.000Z</Time>
            <Position>
              <LatitudeDegrees>43.08675357140600681304931640625</LatitudeDegrees>
              <LongitudeDegrees>-1.73808141611516475677490234375</LongitudeDegrees>
            </Position>
            <AltitudeMeters>446.79998779296875</AltitudeMeters>
            <DistanceMeters>NAN</DistanceMeters>
          </Trackpoint>
          <Trackpoint>
            <Time>2021-08-10T08:21:21.000Z</Time>
            <Position>
              <LatitudeDegrees>43.08670160360634326934814453125</LatitudeDegrees>
              <LongitudeDegrees>-1.737988628447055816650390625</LongitudeDegrees>
            </Position>
            <AltitudeMeters>447</AltitudeMeters>
            <DistanceMeters>NAN</DistanceMeters>
          </Trackpoint>
          <Trackpoint>
            <Time>2021-08-10T08:21:22.000Z</Time>
            <Position>
              <LatitudeDegrees>43.08667830191552639007568359375</LatitudeDegrees>
              <LongitudeDegrees>-1.73794227652251720428466796875</LongitudeDegrees>
            </Position>
            <AltitudeMeters>447.399993896484375</AltitudeMeters>
            <DistanceMeters>NAN</DistanceMeters>
          </Trackpoint>
          <Trackpoint>
            <Time>2021-08-10T08:21:23.000Z</Time>
            <Position>
              <LatitudeDegrees>43.08665835298597812652587890625</LatitudeDegrees>
              <LongitudeDegrees>-1.73790003173053264617919921875</LongitudeDegrees>
            </Position>
            <AltitudeMeters>447.600006103515625</AltitudeMeters>
            <DistanceMeters>NAN</DistanceMeters>
          </Trackpoint>
          <Trackpoint>
            <Time>2021-08-10T08:21:24.000Z</Time>
            <Position>
              <LatitudeDegrees>43.08664821088314056396484375</LatitudeDegrees>
              <LongitudeDegrees>-1.737851165235042572021484375</LongitudeDegrees>
            </Position>
            <AltitudeMeters>447.79998779296875</AltitudeMeters>
            <DistanceMeters>NAN</DistanceMeters>
          </Trackpoint>
          <Trackpoint>
            <Time>2021-08-10T08:21:25.000Z</Time>
            <Position>
              <LatitudeDegrees>43.086646534502506256103515625</LatitudeDegrees>
              <LongitudeDegrees>-1.7378023825585842132568359375</LongitudeDegrees>
            </Position>
            <AltitudeMeters>448</AltitudeMeters>
            <DistanceMeters>NAN</DistanceMeters>
          </Trackpoint>
          <Trackpoint>
            <Time>2021-08-10T08:21:26.000Z</Time>
            <Position>
              <LatitudeDegrees>43.0866555869579315185546875</LatitudeDegrees>
              <LongitudeDegrees>-1.73775502480566501617431640625</LongitudeDegrees>
            </Position>
            <AltitudeMeters>448</AltitudeMeters>
            <DistanceMeters>NAN</DistanceMeters>
          </Trackpoint>
          <Trackpoint>
            <Time>2021-08-10T08:21:27.000Z</Time>
            <Position>
              <LatitudeDegrees>43.086672015488147735595703125</LatitudeDegrees>
              <LongitudeDegrees>-1.73771261237561702728271484375</LongitudeDegrees>
            </Position>
            <AltitudeMeters>448.20001220703125</AltitudeMeters>
            <DistanceMeters>NAN</DistanceMeters>
          </Trackpoint>
          <Trackpoint>
            <Time>2021-08-10T08:21:28.000Z</Time>
            <Position>
              <LatitudeDegrees>43.0866931378841400146484375</LatitudeDegrees>
              <LongitudeDegrees>-1.7376833595335483551025390625</LongitudeDegrees>
            </Position>
            <AltitudeMeters>448.20001220703125</AltitudeMeters>
            <DistanceMeters>NAN</DistanceMeters>
          </Trackpoint>
          <Trackpoint>
            <Time>2021-08-10T08:21:29.000Z</Time>
            <Position>
              <LatitudeDegrees>43.0867130868136882781982421875</LatitudeDegrees>
              <LongitudeDegrees>-1.73765159212052822113037109375</LongitudeDegrees>
            </Position>
            <AltitudeMeters>448.399993896484375</AltitudeMeters>
            <DistanceMeters>NAN</DistanceMeters>
          </Trackpoint>
          <Trackpoint>
            <Time>2021-08-10T08:21:30.000Z</Time>
            <Position>
              <LatitudeDegrees>43.08673177845776081085205078125</LatitudeDegrees>
              <LongitudeDegrees>-1.7376216687262058258056640625</LongitudeDegrees>
            </Position>
            <AltitudeMeters>448.600006103515625</AltitudeMeters>
            <DistanceMeters>NAN</DistanceMeters>
          </Trackpoint>
          <Trackpoint>
            <Time>2021-08-10T08:21:31.000Z</Time>
            <Position>
              <LatitudeDegrees>43.08675122447311878204345703125</LatitudeDegrees>
              <LongitudeDegrees>-1.73759560100734233856201171875</LongitudeDegrees>
            </Position>
            <AltitudeMeters>448.79998779296875</AltitudeMeters>
            <DistanceMeters>NAN</DistanceMeters>
          </Trackpoint>
          <Trackpoint>
            <Time>2021-08-10T08:21:32.000Z</Time>
            <Position>
              <LatitudeDegrees>43.0867704190313816070556640625</LatitudeDegrees>
              <LongitudeDegrees>-1.7375727184116840362548828125</LongitudeDegrees>
            </Position>
            <AltitudeMeters>449</AltitudeMeters>
            <DistanceMeters>NAN</DistanceMeters>
          </Trackpoint>
          <Trackpoint>
            <Time>2021-08-10T08:21:33.000Z</Time>
            <Position>
              <LatitudeDegrees>43.08679263107478618621826171875</LatitudeDegrees>
              <LongitudeDegrees>-1.737549416720867156982421875</LongitudeDegrees>
            </Position>
            <AltitudeMeters>449</AltitudeMeters>
            <DistanceMeters>NAN</DistanceMeters>
          </Trackpoint>
          <Trackpoint>
            <Time>2021-08-10T08:21:35.000Z</Time>
            <Position>
              <LatitudeDegrees>43.0868341214954853057861328125</LatitudeDegrees>
              <LongitudeDegrees>-1.73750356771051883697509765625</LongitudeDegrees>
            </Position>
            <AltitudeMeters>449.20001220703125</AltitudeMeters>
            <DistanceMeters>NAN</DistanceMeters>
          </Trackpoint>
          <Trackpoint>
            <Time>2021-08-10T08:21:36.000Z</Time>
            <Position>
              <LatitudeDegrees>43.0868535675108432769775390625</LatitudeDegrees>
              <LongitudeDegrees>-1.73748043365776538848876953125</LongitudeDegrees>
            </Position>
            <AltitudeMeters>449.399993896484375</AltitudeMeters>
            <DistanceMeters>NAN</DistanceMeters>
          </Trackpoint>
          <Trackpoint>
            <Time>2021-08-10T08:21:37.000Z</Time>
            <Position>
              <LatitudeDegrees>43.08687393553555011749267578125</LatitudeDegrees>
              <LongitudeDegrees>-1.73745780251920223236083984375</LongitudeDegrees>
            </Position>
            <AltitudeMeters>449.600006103515625</AltitudeMeters>
            <DistanceMeters>NAN</DistanceMeters>
          </Trackpoint>
          <Trackpoint>
            <Time>2021-08-10T08:21:38.000Z</Time>
            <Position>
              <LatitudeDegrees>43.08689002878963947296142578125</LatitudeDegrees>
              <LongitudeDegrees>-1.7374379374086856842041015625</LongitudeDegrees>
            </Position>
            <AltitudeMeters>449.600006103515625</AltitudeMeters>
            <DistanceMeters>NAN</DistanceMeters>
          </Trackpoint>
          <Trackpoint>
            <Time>2021-08-10T08:21:39.000Z</Time>
            <Position>
              <LatitudeDegrees>43.0869108997285366058349609375</LatitudeDegrees>
              <LongitudeDegrees>-1.73741606064140796661376953125</LongitudeDegrees>
            </Position>
            <AltitudeMeters>449.79998779296875</AltitudeMeters>
            <DistanceMeters>NAN</DistanceMeters>
          </Trackpoint>
          <Trackpoint>
            <Time>2021-08-10T08:21:40.000Z</Time>
            <Position>
              <LatitudeDegrees>43.08693126775324344635009765625</LatitudeDegrees>
              <LongitudeDegrees>-1.73739477060735225677490234375</LongitudeDegrees>
            </Position>
            <AltitudeMeters>449.79998779296875</AltitudeMeters>
            <DistanceMeters>NAN</DistanceMeters>
          </Trackpoint>
          <Trackpoint>
            <Time>2021-08-10T08:21:41.000Z</Time>
            <Position>
              <LatitudeDegrees>43.08695021085441112518310546875</LatitudeDegrees>
              <LongitudeDegrees>-1.737372390925884246826171875</LongitudeDegrees>
            </Position>
            <AltitudeMeters>450</AltitudeMeters>
            <DistanceMeters>NAN</DistanceMeters>
          </Trackpoint>
          <Trackpoint>
            <Time>2021-08-10T08:21:42.000Z</Time>
            <Position>
              <LatitudeDegrees>43.08696806430816650390625</LatitudeDegrees>
              <LongitudeDegrees>-1.73735017888247966766357421875</LongitudeDegrees>
            </Position>
            <AltitudeMeters>450.20001220703125</AltitudeMeters>
            <DistanceMeters>NAN</DistanceMeters>
          </Trackpoint>
          <Trackpoint>
            <Time>2021-08-10T08:21:43.000Z</Time>
            <Position>
              <LatitudeDegrees>43.086985163390636444091796875</LatitudeDegrees>
              <LongitudeDegrees>-1.73732955940067768096923828125</LongitudeDegrees>
            </Position>
            <AltitudeMeters>450.399993896484375</AltitudeMeters>
            <DistanceMeters>NAN</DistanceMeters>
          </Trackpoint>
          <Trackpoint>
            <Time>2021-08-10T08:21:44.000Z</Time>
            <Position>
              <LatitudeDegrees>43.08700167573988437652587890625</LatitudeDegrees>
              <LongitudeDegrees>-1.73731028102338314056396484375</LongitudeDegrees>
            </Position>
            <AltitudeMeters>450.600006103515625</AltitudeMeters>
            <DistanceMeters>NAN</DistanceMeters>
          </Trackpoint>
          <Trackpoint>
            <Time>2021-08-10T08:21:45.000Z</Time>
            <Position>
              <LatitudeDegrees>43.08701978065073490142822265625</LatitudeDegrees>
              <LongitudeDegrees>-1.73729024827480316162109375</LongitudeDegrees>
            </Position>
            <AltitudeMeters>450.600006103515625</AltitudeMeters>
            <DistanceMeters>NAN</DistanceMeters>
          </Trackpoint>
          <Trackpoint>
            <Time>2021-08-10T08:21:46.000Z</Time>
            <Position>
              <LatitudeDegrees>43.08703838847577571868896484375</LatitudeDegrees>
              <LongitudeDegrees>-1.7372699640691280364990234375</LongitudeDegrees>
            </Position>
            <AltitudeMeters>450.79998779296875</AltitudeMeters>
            <DistanceMeters>NAN</DistanceMeters>
          </Trackpoint>
          <Trackpoint>
            <Time>2021-08-10T08:21:47.000Z</Time>
            <Position>
              <LatitudeDegrees>43.087056577205657958984375</LatitudeDegrees>
              <LongitudeDegrees>-1.73724758438766002655029296875</LongitudeDegrees>
            </Position>
            <AltitudeMeters>450.79998779296875</AltitudeMeters>
            <DistanceMeters>NAN</DistanceMeters>
          </Trackpoint>
          <Trackpoint>
            <Time>2021-08-10T08:21:48.000Z</Time>
            <Position>
              <LatitudeDegrees>43.08707526884973049163818359375</LatitudeDegrees>
              <LongitudeDegrees>-1.7372250370681285858154296875</LongitudeDegrees>
            </Position>
            <AltitudeMeters>451</AltitudeMeters>
            <DistanceMeters>NAN</DistanceMeters>
          </Trackpoint>
          <Trackpoint>
            <Time>2021-08-10T08:21:49.000Z</Time>
            <Position>
              <LatitudeDegrees>43.08709136210381984710693359375</LatitudeDegrees>
              <LongitudeDegrees>-1.737203411757946014404296875</LongitudeDegrees>
            </Position>
            <AltitudeMeters>451.20001220703125</AltitudeMeters>
            <DistanceMeters>NAN</DistanceMeters>
          </Trackpoint>
          <Trackpoint>
            <Time>2021-08-10T08:21:50.000Z</Time>
            <Position>
              <LatitudeDegrees>43.08710820972919464111328125</LatitudeDegrees>
              <LongitudeDegrees>-1.73718354664742946624755859375</LongitudeDegrees>
            </Position>
            <AltitudeMeters>451.399993896484375</AltitudeMeters>
            <DistanceMeters>NAN</DistanceMeters>
          </Trackpoint>
          <Trackpoint>
            <Time>2021-08-10T08:21:51.000Z</Time>
            <Position>
              <LatitudeDegrees>43.08712556026875972747802734375</LatitudeDegrees>
              <LongitudeDegrees>-1.73716594465076923370361328125</LongitudeDegrees>
            </Position>
            <AltitudeMeters>451.399993896484375</AltitudeMeters>
            <DistanceMeters>NAN</DistanceMeters>
          </Trackpoint>
          <Trackpoint>
            <Time>2021-08-10T08:21:52.000Z</Time>
            <Position>
              <LatitudeDegrees>43.0871435813605785369873046875</LatitudeDegrees>
              <LongitudeDegrees>-1.73714750446379184722900390625</LongitudeDegrees>
            </Position>
            <AltitudeMeters>451.600006103515625</AltitudeMeters>
            <DistanceMeters>NAN</DistanceMeters>
          </Trackpoint>
          <Trackpoint>
            <Time>2021-08-10T08:21:53.000Z</Time>
            <Position>
              <LatitudeDegrees>43.0871596746146678924560546875</LatitudeDegrees>
              <LongitudeDegrees>-1.73712872900068759918212890625</LongitudeDegrees>
            </Position>
            <AltitudeMeters>451.79998779296875</AltitudeMeters>
            <DistanceMeters>NAN</DistanceMeters>
          </Trackpoint>
          <Trackpoint>
            <Time>2021-08-10T08:21:54.000Z</Time>
            <Position>
              <LatitudeDegrees>43.08717484585940837860107421875</LatitudeDegrees>
              <LongitudeDegrees>-1.73710919916629791259765625</LongitudeDegrees>
            </Position>
            <AltitudeMeters>451.79998779296875</AltitudeMeters>
            <DistanceMeters>NAN</DistanceMeters>
          </Trackpoint>
          <Trackpoint>
            <Time>2021-08-10T08:21:55.000Z</Time>
            <Position>
              <LatitudeDegrees>43.087190352380275726318359375</LatitudeDegrees>
              <LongitudeDegrees>-1.73708916641771793365478515625</LongitudeDegrees>
            </Position>
            <AltitudeMeters>452</AltitudeMeters>
            <DistanceMeters>NAN</DistanceMeters>
          </Trackpoint>
          <Trackpoint>
            <Time>2021-08-10T08:21:56.000Z</Time>
            <Position>
              <LatitudeDegrees>43.0872076191008090972900390625</LatitudeDegrees>
              <LongitudeDegrees>-1.73706896603107452392578125</LongitudeDegrees>
            </Position>
            <AltitudeMeters>452</AltitudeMeters>
            <DistanceMeters>NAN</DistanceMeters>
          </Trackpoint>
          <Trackpoint>
            <Time>2021-08-10T08:21:57.000Z</Time>
            <Position>
              <LatitudeDegrees>43.087224550545215606689453125</LatitudeDegrees>
              <LongitudeDegrees>-1.73704558052122592926025390625</LongitudeDegrees>
            </Position>
            <AltitudeMeters>452</AltitudeMeters>
            <DistanceMeters>NAN</DistanceMeters>
          </Trackpoint>
          <Trackpoint>
            <Time>2021-08-10T08:21:58.000Z</Time>
            <Position>
              <LatitudeDegrees>43.08724240399897098541259765625</LatitudeDegrees>
              <LongitudeDegrees>-1.73702194355428218841552734375</LongitudeDegrees>
            </Position>
            <AltitudeMeters>452.20001220703125</AltitudeMeters>
            <DistanceMeters>NAN</DistanceMeters>
          </Trackpoint>
          <Trackpoint>
            <Time>2021-08-10T08:21:59.000Z</Time>
            <Position>
              <LatitudeDegrees>43.087260760366916656494140625</LatitudeDegrees>
              <LongitudeDegrees>-1.73699981532990932464599609375</LongitudeDegrees>
            </Position>
            <AltitudeMeters>452.20001220703125</AltitudeMeters>
            <DistanceMeters>NAN</DistanceMeters>
          </Trackpoint>
          <Trackpoint>
            <Time>2021-08-10T08:22:00.000Z</Time>
            <Position>
              <LatitudeDegrees>43.087279535830020904541015625</LatitudeDegrees>
              <LongitudeDegrees>-1.736978776752948760986328125</LongitudeDegrees>
            </Position>
            <AltitudeMeters>452.399993896484375</AltitudeMeters>
            <DistanceMeters>NAN</DistanceMeters>
          </Trackpoint>
          <Trackpoint>
            <Time>2021-08-10T08:22:01.000Z</Time>
            <Position>
              <LatitudeDegrees>43.08729688636958599090576171875</LatitudeDegrees>
              <LongitudeDegrees>-1.73695807345211505889892578125</LongitudeDegrees>
            </Position>
            <AltitudeMeters>452.399993896484375</AltitudeMeters>
            <DistanceMeters>NAN</DistanceMeters>
          </Trackpoint>
          <Trackpoint>
            <Time>2021-08-10T08:22:02.000Z</Time>
            <Position>
              <LatitudeDegrees>43.087313733994960784912109375</LatitudeDegrees>
              <LongitudeDegrees>-1.7369355261325836181640625</LongitudeDegrees>
            </Position>
            <AltitudeMeters>452.600006103515625</AltitudeMeters>
            <DistanceMeters>NAN</DistanceMeters>
          </Trackpoint>
          <Trackpoint>
            <Time>2021-08-10T08:22:03.000Z</Time>
            <Position>
              <LatitudeDegrees>43.08733209036290645599365234375</LatitudeDegrees>
              <LongitudeDegrees>-1.73691331408917903900146484375</LongitudeDegrees>
            </Position>
            <AltitudeMeters>452.79998779296875</AltitudeMeters>
            <DistanceMeters>NAN</DistanceMeters>
          </Trackpoint>
          <Trackpoint>
            <Time>2021-08-10T08:22:04.000Z</Time>
            <Position>
              <LatitudeDegrees>43.0873514525592327117919921875</LatitudeDegrees>
              <LongitudeDegrees>-1.73689302988350391387939453125</LongitudeDegrees>
            </Position>
            <AltitudeMeters>453</AltitudeMeters>
            <DistanceMeters>NAN</DistanceMeters>
          </Trackpoint>
          <Trackpoint>
            <Time>2021-08-10T08:22:05.000Z</Time>
            <Position>
              <LatitudeDegrees>43.08737081475555896759033203125</LatitudeDegrees>
              <LongitudeDegrees>-1.73687526024878025054931640625</LongitudeDegrees>
            </Position>
            <AltitudeMeters>453.20001220703125</AltitudeMeters>
            <DistanceMeters>NAN</DistanceMeters>
          </Trackpoint>
          <Trackpoint>
            <Time>2021-08-10T08:22:06.000Z</Time>
            <Position>
              <LatitudeDegrees>43.0873863212764263153076171875</LatitudeDegrees>
              <LongitudeDegrees>-1.73685598187148571014404296875</LongitudeDegrees>
            </Position>
            <AltitudeMeters>453.20001220703125</AltitudeMeters>
            <DistanceMeters>NAN</DistanceMeters>
          </Trackpoint>
          <Trackpoint>
            <Time>2021-08-10T08:22:07.000Z</Time>
            <Position>
              <LatitudeDegrees>43.08740048669278621673583984375</LatitudeDegrees>
              <LongitudeDegrees>-1.7368330992758274078369140625</LongitudeDegrees>
            </Position>
            <AltitudeMeters>453.20001220703125</AltitudeMeters>
            <DistanceMeters>NAN</DistanceMeters>
          </Trackpoint>
          <Trackpoint>
            <Time>2021-08-10T08:22:08.000Z</Time>
            <Position>
              <LatitudeDegrees>43.087419010698795318603515625</LatitudeDegrees>
              <LongitudeDegrees>-1.73681080341339111328125</LongitudeDegrees>
            </Position>
            <AltitudeMeters>453.399993896484375</AltitudeMeters>
            <DistanceMeters>NAN</DistanceMeters>
          </Trackpoint>
          <Trackpoint>
            <Time>2021-08-10T08:22:09.000Z</Time>
            <Position>
              <LatitudeDegrees>43.0874387919902801513671875</LatitudeDegrees>
              <LongitudeDegrees>-1.73678926192224025726318359375</LongitudeDegrees>
            </Position>
            <AltitudeMeters>453.600006103515625</AltitudeMeters>
            <DistanceMeters>NAN</DistanceMeters>
          </Trackpoint>
          <Trackpoint>
            <Time>2021-08-10T08:22:10.000Z</Time>
            <Position>
              <LatitudeDegrees>43.08745664544403553009033203125</LatitudeDegrees>
              <LongitudeDegrees>-1.73676847480237483978271484375</LongitudeDegrees>
            </Position>
            <AltitudeMeters>453.600006103515625</AltitudeMeters>
            <DistanceMeters>NAN</DistanceMeters>
          </Trackpoint>
          <Trackpoint>
            <Time>2021-08-10T08:22:11.000Z</Time>
            <Position>
              <LatitudeDegrees>43.08747458271682262420654296875</LatitudeDegrees>
              <LongitudeDegrees>-1.7367479391396045684814453125</LongitudeDegrees>
            </Position>
            <AltitudeMeters>453.79998779296875</AltitudeMeters>
            <DistanceMeters>NAN</DistanceMeters>
          </Trackpoint>
          <Trackpoint>
            <Time>2021-08-10T08:22:12.000Z</Time>
            <Position>
              <LatitudeDegrees>43.08749302290380001068115234375</LatitudeDegrees>
              <LongitudeDegrees>-1.73672907985746860504150390625</LongitudeDegrees>
            </Position>
            <AltitudeMeters>454</AltitudeMeters>
            <DistanceMeters>NAN</DistanceMeters>
          </Trackpoint>
          <Trackpoint>
            <Time>2021-08-10T08:22:13.000Z</Time>
            <Position>
              <LatitudeDegrees>43.08751213364303112030029296875</LatitudeDegrees>
              <LongitudeDegrees>-1.73671063967049121856689453125</LongitudeDegrees>
            </Position>
            <AltitudeMeters>454</AltitudeMeters>
            <DistanceMeters>NAN</DistanceMeters>
          </Trackpoint>
          <Trackpoint>
            <Time>2021-08-10T08:22:14.000Z</Time>
            <Position>
              <LatitudeDegrees>43.087530322372913360595703125</LatitudeDegrees>
              <LongitudeDegrees>-1.73669169656932353973388671875</LongitudeDegrees>
            </Position>
            <AltitudeMeters>454.20001220703125</AltitudeMeters>
            <DistanceMeters>NAN</DistanceMeters>
          </Trackpoint>
          <Trackpoint>
            <Time>2021-08-10T08:22:15.000Z</Time>
            <Position>
              <LatitudeDegrees>43.0875465832650661468505859375</LatitudeDegrees>
              <LongitudeDegrees>-1.736671663820743560791015625</LongitudeDegrees>
            </Position>
            <AltitudeMeters>454.20001220703125</AltitudeMeters>
            <DistanceMeters>NAN</DistanceMeters>
          </Trackpoint>
          <Trackpoint>
            <Time>2021-08-10T08:22:16.000Z</Time>
            <Position>
              <LatitudeDegrees>43.08756393380463123321533203125</LatitudeDegrees>
              <LongitudeDegrees>-1.736649535596370697021484375</LongitudeDegrees>
            </Position>
            <AltitudeMeters>454.600006103515625</AltitudeMeters>
            <DistanceMeters>NAN</DistanceMeters>
          </Trackpoint>
          <Trackpoint>
            <Time>2021-08-10T08:22:17.000Z</Time>
            <Position>
              <LatitudeDegrees>43.08757893741130828857421875</LatitudeDegrees>
              <LongitudeDegrees>-1.73662799410521984100341796875</LongitudeDegrees>
            </Position>
            <AltitudeMeters>454.600006103515625</AltitudeMeters>
            <DistanceMeters>NAN</DistanceMeters>
          </Trackpoint>
          <Trackpoint>
            <Time>2021-08-10T08:22:18.000Z</Time>
            <Position>
              <LatitudeDegrees>43.087596036493778228759765625</LatitudeDegrees>
              <LongitudeDegrees>-1.73660670407116413116455078125</LongitudeDegrees>
            </Position>
            <AltitudeMeters>454.79998779296875</AltitudeMeters>
            <DistanceMeters>NAN</DistanceMeters>
          </Trackpoint>
          <Trackpoint>
            <Time>2021-08-10T08:22:19.000Z</Time>
            <Position>
              <LatitudeDegrees>43.087615482509136199951171875</LatitudeDegrees>
              <LongitudeDegrees>-1.73658926971256732940673828125</LongitudeDegrees>
            </Position>
            <AltitudeMeters>455</AltitudeMeters>
            <DistanceMeters>NAN</DistanceMeters>
          </Trackpoint>
          <Trackpoint>
            <Time>2021-08-10T08:22:20.000Z</Time>
            <Position>
              <LatitudeDegrees>43.087634257972240447998046875</LatitudeDegrees>
              <LongitudeDegrees>-1.7365735955536365509033203125</LongitudeDegrees>
            </Position>
            <AltitudeMeters>455</AltitudeMeters>
            <DistanceMeters>NAN</DistanceMeters>
          </Trackpoint>
          <Trackpoint>
            <Time>2021-08-10T08:22:21.000Z</Time>
            <Position>
              <LatitudeDegrees>43.08765294961631298065185546875</LatitudeDegrees>
              <LongitudeDegrees>-1.7365554906427860260009765625</LongitudeDegrees>
            </Position>
            <AltitudeMeters>455.20001220703125</AltitudeMeters>
            <DistanceMeters>NAN</DistanceMeters>
          </Trackpoint>
          <Trackpoint>
            <Time>2021-08-10T08:22:22.000Z</Time>
            <Position>
              <LatitudeDegrees>43.087670803070068359375</LatitudeDegrees>
              <LongitudeDegrees>-1.7365353740751743316650390625</LongitudeDegrees>
            </Position>
            <AltitudeMeters>455.20001220703125</AltitudeMeters>
            <DistanceMeters>NAN</DistanceMeters>
          </Trackpoint>
          <Trackpoint>
            <Time>2021-08-10T08:22:23.000Z</Time>
            <Position>
              <LatitudeDegrees>43.08768932707607746124267578125</LatitudeDegrees>
              <LongitudeDegrees>-1.736516095697879791259765625</LongitudeDegrees>
            </Position>
            <AltitudeMeters>455.399993896484375</AltitudeMeters>
            <DistanceMeters>NAN</DistanceMeters>
          </Trackpoint>
          <Trackpoint>
            <Time>2021-08-10T08:22:24.000Z</Time>
            <Position>
              <LatitudeDegrees>43.08770634233951568603515625</LatitudeDegrees>
              <LongitudeDegrees>-1.73649857752025127410888671875</LongitudeDegrees>
            </Position>
            <AltitudeMeters>455.600006103515625</AltitudeMeters>
            <DistanceMeters>NAN</DistanceMeters>
          </Trackpoint>
          <Trackpoint>
            <Time>2021-08-10T08:22:25.000Z</Time>
            <Position>
              <LatitudeDegrees>43.08772654272615909576416015625</LatitudeDegrees>
              <LongitudeDegrees>-1.73648181371390819549560546875</LongitudeDegrees>
            </Position>
            <AltitudeMeters>455.600006103515625</AltitudeMeters>
            <DistanceMeters>NAN</DistanceMeters>
          </Trackpoint>
          <Trackpoint>
            <Time>2021-08-10T08:22:26.000Z</Time>
            <Position>
              <LatitudeDegrees>43.08774917386472225189208984375</LatitudeDegrees>
              <LongitudeDegrees>-1.73646756447851657867431640625</LongitudeDegrees>
            </Position>
            <AltitudeMeters>455.600006103515625</AltitudeMeters>
            <DistanceMeters>NAN</DistanceMeters>
          </Trackpoint>
          <Trackpoint>
            <Time>2021-08-10T08:22:27.000Z</Time>
            <Position>
              <LatitudeDegrees>43.08777205646038055419921875</LatitudeDegrees>
              <LongitudeDegrees>-1.73645784147083759307861328125</LongitudeDegrees>
            </Position>
            <AltitudeMeters>455.79998779296875</AltitudeMeters>
            <DistanceMeters>NAN</DistanceMeters>
          </Trackpoint>
          <Trackpoint>
            <Time>2021-08-10T08:22:28.000Z</Time>
            <Position>
              <LatitudeDegrees>43.08779426850378513336181640625</LatitudeDegrees>
              <LongitudeDegrees>-1.736453063786029815673828125</LongitudeDegrees>
            </Position>
            <AltitudeMeters>456</AltitudeMeters>
            <DistanceMeters>NAN</DistanceMeters>
          </Trackpoint>
          <Trackpoint>
            <Time>2021-08-10T08:22:29.000Z</Time>
            <Position>
              <LatitudeDegrees>43.0878154747188091278076171875</LatitudeDegrees>
              <LongitudeDegrees>-1.73644510097801685333251953125</LongitudeDegrees>
            </Position>
            <AltitudeMeters>456</AltitudeMeters>
            <DistanceMeters>NAN</DistanceMeters>
          </Trackpoint>
          <Trackpoint>
            <Time>2021-08-10T08:22:30.000Z</Time>
            <Position>
              <LatitudeDegrees>43.08783911168575286865234375</LatitudeDegrees>
              <LongitudeDegrees>-1.73643596470355987548828125</LongitudeDegrees>
            </Position>
            <AltitudeMeters>456.20001220703125</AltitudeMeters>
            <DistanceMeters>NAN</DistanceMeters>
          </Trackpoint>
          <Trackpoint>
            <Time>2021-08-10T08:22:31.000Z</Time>
            <Position>
              <LatitudeDegrees>43.087864257395267486572265625</LatitudeDegrees>
              <LongitudeDegrees>-1.736426241695880889892578125</LongitudeDegrees>
            </Position>
            <AltitudeMeters>456.399993896484375</AltitudeMeters>
            <DistanceMeters>NAN</DistanceMeters>
          </Trackpoint>
          <Trackpoint>
            <Time>2021-08-10T08:22:32.000Z</Time>
            <Position>
              <LatitudeDegrees>43.0878892354667186737060546875</LatitudeDegrees>
              <LongitudeDegrees>-1.73641693778336048126220703125</LongitudeDegrees>
            </Position>
            <AltitudeMeters>456.399993896484375</AltitudeMeters>
            <DistanceMeters>NAN</DistanceMeters>
          </Trackpoint>
          <Trackpoint>
            <Time>2021-08-10T08:22:33.000Z</Time>
            <Position>
              <LatitudeDegrees>43.08791429735720157623291015625</LatitudeDegrees>
              <LongitudeDegrees>-1.73640755005180835723876953125</LongitudeDegrees>
            </Position>
            <AltitudeMeters>456.399993896484375</AltitudeMeters>
            <DistanceMeters>NAN</DistanceMeters>
          </Trackpoint>
          <Trackpoint>
            <Time>2021-08-10T08:22:34.000Z</Time>
            <Position>
              <LatitudeDegrees>43.0879385210573673248291015625</LatitudeDegrees>
              <LongitudeDegrees>-1.7363982461392879486083984375</LongitudeDegrees>
            </Position>
            <AltitudeMeters>456.399993896484375</AltitudeMeters>
            <DistanceMeters>NAN</DistanceMeters>
          </Trackpoint>
          <Trackpoint>
            <Time>2021-08-10T08:22:35.000Z</Time>
            <Position>
              <LatitudeDegrees>43.08796123601496219635009765625</LatitudeDegrees>
              <LongitudeDegrees>-1.73638793639838695526123046875</LongitudeDegrees>
            </Position>
            <AltitudeMeters>456.600006103515625</AltitudeMeters>
            <DistanceMeters>NAN</DistanceMeters>
          </Trackpoint>
          <Trackpoint>
            <Time>2021-08-10T08:22:36.000Z</Time>
            <Position>
              <LatitudeDegrees>43.087982945144176483154296875</LatitudeDegrees>
              <LongitudeDegrees>-1.7363781295716762542724609375</LongitudeDegrees>
            </Position>
            <AltitudeMeters>456.600006103515625</AltitudeMeters>
            <DistanceMeters>NAN</DistanceMeters>
          </Trackpoint>
          <Trackpoint>
            <Time>2021-08-10T08:22:37.000Z</Time>
            <Position>
              <LatitudeDegrees>43.08800582773983478546142578125</LatitudeDegrees>
              <LongitudeDegrees>-1.7363674007356166839599609375</LongitudeDegrees>
            </Position>
            <AltitudeMeters>456.79998779296875</AltitudeMeters>
            <DistanceMeters>NAN</DistanceMeters>
          </Trackpoint>
          <Trackpoint>
            <Time>2021-08-10T08:22:38.000Z</Time>
            <Position>
              <LatitudeDegrees>43.0880250222980976104736328125</LatitudeDegrees>
              <LongitudeDegrees>-1.73635692335665225982666015625</LongitudeDegrees>
            </Position>
            <AltitudeMeters>457</AltitudeMeters>
            <DistanceMeters>NAN</DistanceMeters>
          </Trackpoint>
          <Trackpoint>
            <Time>2021-08-10T08:22:39.000Z</Time>
            <Position>
              <LatitudeDegrees>43.088047318160533905029296875</LatitudeDegrees>
              <LongitudeDegrees>-1.73634401522576808929443359375</LongitudeDegrees>
            </Position>
            <AltitudeMeters>457</AltitudeMeters>
            <DistanceMeters>NAN</DistanceMeters>
          </Trackpoint>
          <Trackpoint>
            <Time>2021-08-10T08:22:40.000Z</Time>
            <Position>
              <LatitudeDegrees>43.08806969784200191497802734375</LatitudeDegrees>
              <LongitudeDegrees>-1.73632775433361530303955078125</LongitudeDegrees>
            </Position>
            <AltitudeMeters>457.20001220703125</AltitudeMeters>
            <DistanceMeters>NAN</DistanceMeters>
          </Trackpoint>
          <Trackpoint>
            <Time>2021-08-10T08:22:41.000Z</Time>
            <Position>
              <LatitudeDegrees>43.0880924127995967864990234375</LatitudeDegrees>
              <LongitudeDegrees>-1.73630730248987674713134765625</LongitudeDegrees>
            </Position>
            <AltitudeMeters>457.20001220703125</AltitudeMeters>
            <DistanceMeters>NAN</DistanceMeters>
          </Trackpoint>
          <Trackpoint>
            <Time>2021-08-10T08:22:42.000Z</Time>
            <Position>
              <LatitudeDegrees>43.088112361729145050048828125</LatitudeDegrees>
              <LongitudeDegrees>-1.7362837493419647216796875</LongitudeDegrees>
            </Position>
            <AltitudeMeters>457.399993896484375</AltitudeMeters>
            <DistanceMeters>NAN</DistanceMeters>
          </Trackpoint>
          <Trackpoint>
            <Time>2021-08-10T08:22:43.000Z</Time>
            <Position>
              <LatitudeDegrees>43.08813013136386871337890625</LatitudeDegrees>
              <LongitudeDegrees>-1.73625784926116466522216796875</LongitudeDegrees>
            </Position>
            <AltitudeMeters>457.399993896484375</AltitudeMeters>
            <DistanceMeters>NAN</DistanceMeters>
          </Trackpoint>
          <Trackpoint>
            <Time>2021-08-10T08:22:44.000Z</Time>
            <Position>
              <LatitudeDegrees>43.08814865536987781524658203125</LatitudeDegrees>
              <LongitudeDegrees>-1.7362292669713497161865234375</LongitudeDegrees>
            </Position>
            <AltitudeMeters>457.600006103515625</AltitudeMeters>
            <DistanceMeters>NAN</DistanceMeters>
          </Trackpoint>
          <Trackpoint>
            <Time>2021-08-10T08:22:45.000Z</Time>
            <Position>
              <LatitudeDegrees>43.08816692791879177093505859375</LatitudeDegrees>
              <LongitudeDegrees>-1.7361997626721858978271484375</LongitudeDegrees>
            </Position>
            <AltitudeMeters>457.79998779296875</AltitudeMeters>
            <DistanceMeters>NAN</DistanceMeters>
          </Trackpoint>
          <Trackpoint>
            <Time>2021-08-10T08:22:46.000Z</Time>
            <Position>
              <LatitudeDegrees>43.088184781372547149658203125</LatitudeDegrees>
              <LongitudeDegrees>-1.73617176711559295654296875</LongitudeDegrees>
            </Position>
            <AltitudeMeters>457.79998779296875</AltitudeMeters>
            <DistanceMeters>NAN</DistanceMeters>
          </Trackpoint>
          <Trackpoint>
            <Time>2021-08-10T08:22:47.000Z</Time>
            <Position>
              <LatitudeDegrees>43.08820120990276336669921875</LatitudeDegrees>
              <LongitudeDegrees>-1.736143939197063446044921875</LongitudeDegrees>
            </Position>
            <AltitudeMeters>457.79998779296875</AltitudeMeters>
            <DistanceMeters>NAN</DistanceMeters>
          </Trackpoint>
          <Trackpoint>
            <Time>2021-08-10T08:22:48.000Z</Time>
            <Position>
              <LatitudeDegrees>43.0882191471755504608154296875</LatitudeDegrees>
              <LongitudeDegrees>-1.73611686564981937408447265625</LongitudeDegrees>
            </Position>
            <AltitudeMeters>458</AltitudeMeters>
            <DistanceMeters>NAN</DistanceMeters>
          </Trackpoint>
          <Trackpoint>
            <Time>2021-08-10T08:22:49.000Z</Time>
            <Position>
              <LatitudeDegrees>43.0882369168102741241455078125</LatitudeDegrees>
              <LongitudeDegrees>-1.73609104938805103302001953125</LongitudeDegrees>
            </Position>
            <AltitudeMeters>458</AltitudeMeters>
            <DistanceMeters>NAN</DistanceMeters>
          </Trackpoint>
          <Trackpoint>
            <Time>2021-08-10T08:22:50.000Z</Time>
            <Position>
              <LatitudeDegrees>43.08825544081628322601318359375</LatitudeDegrees>
              <LongitudeDegrees>-1.7360691726207733154296875</LongitudeDegrees>
            </Position>
            <AltitudeMeters>458</AltitudeMeters>
            <DistanceMeters>NAN</DistanceMeters>
          </Trackpoint>
          <Trackpoint>
            <Time>2021-08-10T08:22:51.000Z</Time>
            <Position>
              <LatitudeDegrees>43.08827538974583148956298828125</LatitudeDegrees>
              <LongitudeDegrees>-1.736046709120273590087890625</LongitudeDegrees>
            </Position>
            <AltitudeMeters>458.20001220703125</AltitudeMeters>
            <DistanceMeters>NAN</DistanceMeters>
          </Trackpoint>
          <Trackpoint>
            <Time>2021-08-10T08:22:52.000Z</Time>
            <Position>
              <LatitudeDegrees>43.0882982723414897918701171875</LatitudeDegrees>
              <LongitudeDegrees>-1.7360307835042476654052734375</LongitudeDegrees>
            </Position>
            <AltitudeMeters>458.399993896484375</AltitudeMeters>
            <DistanceMeters>NAN</DistanceMeters>
          </Trackpoint>
          <Trackpoint>
            <Time>2021-08-10T08:22:53.000Z</Time>
            <Position>
              <LatitudeDegrees>43.0883274413645267486572265625</LatitudeDegrees>
              <LongitudeDegrees>-1.7360182106494903564453125</LongitudeDegrees>
            </Position>
            <AltitudeMeters>458.399993896484375</AltitudeMeters>
            <DistanceMeters>NAN</DistanceMeters>
          </Trackpoint>
          <Trackpoint>
            <Time>2021-08-10T08:22:54.000Z</Time>
            <Position>
              <LatitudeDegrees>43.08834831230342388153076171875</LatitudeDegrees>
              <LongitudeDegrees>-1.7360150255262851715087890625</LongitudeDegrees>
            </Position>
            <AltitudeMeters>458.600006103515625</AltitudeMeters>
            <DistanceMeters>NAN</DistanceMeters>
          </Trackpoint>
          <Trackpoint>
            <Time>2021-08-10T08:22:55.000Z</Time>
            <Position>
              <LatitudeDegrees>43.0883748829364776611328125</LatitudeDegrees>
              <LongitudeDegrees>-1.7360120080411434173583984375</LongitudeDegrees>
            </Position>
            <AltitudeMeters>458.600006103515625</AltitudeMeters>
            <DistanceMeters>NAN</DistanceMeters>
          </Trackpoint>
          <Trackpoint>
            <Time>2021-08-10T08:22:56.000Z</Time>
            <Position>
              <LatitudeDegrees>43.08839860372245311737060546875</LatitudeDegrees>
              <LongitudeDegrees>-1.736015863716602325439453125</LongitudeDegrees>
            </Position>
            <AltitudeMeters>458.600006103515625</AltitudeMeters>
            <DistanceMeters>NAN</DistanceMeters>
          </Trackpoint>
          <Trackpoint>
            <Time>2021-08-10T08:22:57.000Z</Time>
            <Position>
              <LatitudeDegrees>43.08842207305133342742919921875</LatitudeDegrees>
              <LongitudeDegrees>-1.736027263104915618896484375</LongitudeDegrees>
            </Position>
            <AltitudeMeters>458.79998779296875</AltitudeMeters>
            <DistanceMeters>NAN</DistanceMeters>
          </Trackpoint>
          <Trackpoint>
            <Time>2021-08-10T08:22:58.000Z</Time>
            <Position>
              <LatitudeDegrees>43.0884441174566745758056640625</LatitudeDegrees>
              <LongitudeDegrees>-1.73604176379740238189697265625</LongitudeDegrees>
            </Position>
            <AltitudeMeters>458.79998779296875</AltitudeMeters>
            <DistanceMeters>NAN</DistanceMeters>
          </Trackpoint>
          <Trackpoint>
            <Time>2021-08-10T08:22:59.000Z</Time>
            <Position>
              <LatitudeDegrees>43.0884633958339691162109375</LatitudeDegrees>
              <LongitudeDegrees>-1.736056096851825714111328125</LongitudeDegrees>
            </Position>
            <AltitudeMeters>458.79998779296875</AltitudeMeters>
            <DistanceMeters>NAN</DistanceMeters>
          </Trackpoint>
          <Trackpoint>
            <Time>2021-08-10T08:23:00.000Z</Time>
            <Position>
              <LatitudeDegrees>43.08847789652645587921142578125</LatitudeDegrees>
              <LongitudeDegrees>-1.7360691726207733154296875</LongitudeDegrees>
            </Position>
            <AltitudeMeters>458.79998779296875</AltitudeMeters>
            <DistanceMeters>NAN</DistanceMeters>
          </Trackpoint>
          <Trackpoint>
            <Time>2021-08-10T08:23:01.000Z</Time>
            <Position>
              <LatitudeDegrees>43.08848963119089603424072265625</LatitudeDegrees>
              <LongitudeDegrees>-1.73608048819005489349365234375</LongitudeDegrees>
            </Position>
            <AltitudeMeters>459</AltitudeMeters>
            <DistanceMeters>NAN</DistanceMeters>
          </Trackpoint>
          <Trackpoint>
            <Time>2021-08-10T08:23:02.000Z</Time>
            <Position>
              <LatitudeDegrees>43.08849784545600414276123046875</LatitudeDegrees>
              <LongitudeDegrees>-1.73609356395900249481201171875</LongitudeDegrees>
            </Position>
            <AltitudeMeters>459</AltitudeMeters>
            <DistanceMeters>NAN</DistanceMeters>
          </Trackpoint>
          <Trackpoint>
            <Time>2021-08-10T08:23:03.000Z</Time>
            <Position>
              <LatitudeDegrees>43.088503293693065643310546875</LatitudeDegrees>
              <LongitudeDegrees>-1.73610605299472808837890625</LongitudeDegrees>
            </Position>
            <AltitudeMeters>459.20001220703125</AltitudeMeters>
            <DistanceMeters>NAN</DistanceMeters>
          </Trackpoint>
          <Trackpoint>
            <Time>2021-08-10T08:23:04.000Z</Time>
            <Position>
              <LatitudeDegrees>43.0885094963014125823974609375</LatitudeDegrees>
              <LongitudeDegrees>-1.7361196316778659820556640625</LongitudeDegrees>
            </Position>
            <AltitudeMeters>459.20001220703125</AltitudeMeters>
            <DistanceMeters>NAN</DistanceMeters>
          </Trackpoint>
          <Trackpoint>
            <Time>2021-08-10T08:23:06.000Z</Time>
            <Position>
              <LatitudeDegrees>43.0885309539735317230224609375</LatitudeDegrees>
              <LongitudeDegrees>-1.7361531592905521392822265625</LongitudeDegrees>
            </Position>
            <AltitudeMeters>459.399993896484375</AltitudeMeters>
            <DistanceMeters>NAN</DistanceMeters>
          </Trackpoint>
          <Trackpoint>
            <Time>2021-08-10T08:23:14.000Z</Time>
            <Position>
              <LatitudeDegrees>43.0885983444750308990478515625</LatitudeDegrees>
              <LongitudeDegrees>-1.73635206185281276702880859375</LongitudeDegrees>
            </Position>
            <AltitudeMeters>459.79998779296875</AltitudeMeters>
            <DistanceMeters>NAN</DistanceMeters>
          </Trackpoint>
          <Trackpoint>
            <Time>2021-08-10T08:23:17.000Z</Time>
            <Position>
              <LatitudeDegrees>43.088600523769855499267578125</LatitudeDegrees>
              <LongitudeDegrees>-1.7364482022821903228759765625</LongitudeDegrees>
            </Position>
            <AltitudeMeters>460.20001220703125</AltitudeMeters>
            <DistanceMeters>NAN</DistanceMeters>
          </Trackpoint>
          <Trackpoint>
            <Time>2021-08-10T08:23:21.000Z</Time>
            <Position>
              <LatitudeDegrees>43.08860831893980503082275390625</LatitudeDegrees>
              <LongitudeDegrees>-1.736573092639446258544921875</LongitudeDegrees>
            </Position>
            <AltitudeMeters>460.20001220703125</AltitudeMeters>
            <DistanceMeters>NAN</DistanceMeters>
          </Trackpoint>
          <Trackpoint>
            <Time>2021-08-10T08:23:31.000Z</Time>
            <Position>
              <LatitudeDegrees>43.0886580236256122589111328125</LatitudeDegrees>
              <LongitudeDegrees>-1.73689202405512332916259765625</LongitudeDegrees>
            </Position>
            <AltitudeMeters>460.79998779296875</AltitudeMeters>
            <DistanceMeters>NAN</DistanceMeters>
          </Trackpoint>
          <Trackpoint>
            <Time>2021-08-10T08:23:34.000Z</Time>
            <Position>
              <LatitudeDegrees>43.0887073092162609100341796875</LatitudeDegrees>
              <LongitudeDegrees>-1.73696796409785747528076171875</LongitudeDegrees>
            </Position>
            <AltitudeMeters>461.20001220703125</AltitudeMeters>
            <DistanceMeters>NAN</DistanceMeters>
          </Trackpoint>
          <Trackpoint>
            <Time>2021-08-10T08:23:35.000Z</Time>
            <Position>
              <LatitudeDegrees>43.0887274257838726043701171875</LatitudeDegrees>
              <LongitudeDegrees>-1.7369853146374225616455078125</LongitudeDegrees>
            </Position>
            <AltitudeMeters>461.20001220703125</AltitudeMeters>
            <DistanceMeters>NAN</DistanceMeters>
          </Trackpoint>
          <Trackpoint>
            <Time>2021-08-10T08:23:36.000Z</Time>
            <Position>
              <LatitudeDegrees>43.0887488834559917449951171875</LatitudeDegrees>
              <LongitudeDegrees>-1.7369990609586238861083984375</LongitudeDegrees>
            </Position>
            <AltitudeMeters>461.20001220703125</AltitudeMeters>
            <DistanceMeters>NAN</DistanceMeters>
          </Trackpoint>
          <Trackpoint>
            <Time>2021-08-10T08:23:37.000Z</Time>
            <Position>
              <LatitudeDegrees>43.0887703411281108856201171875</LatitudeDegrees>
              <LongitudeDegrees>-1.73700702376663684844970703125</LongitudeDegrees>
            </Position>
            <AltitudeMeters>461.399993896484375</AltitudeMeters>
            <DistanceMeters>NAN</DistanceMeters>
          </Trackpoint>
          <Trackpoint>
            <Time>2021-08-10T08:23:38.000Z</Time>
            <Position>
              <LatitudeDegrees>43.08879129588603973388671875</LatitudeDegrees>
              <LongitudeDegrees>-1.73701272346079349517822265625</LongitudeDegrees>
            </Position>
            <AltitudeMeters>461.399993896484375</AltitudeMeters>
            <DistanceMeters>NAN</DistanceMeters>
          </Trackpoint>
          <Trackpoint>
            <Time>2021-08-10T08:23:39.000Z</Time>
            <Position>
              <LatitudeDegrees>43.088811747729778289794921875</LatitudeDegrees>
              <LongitudeDegrees>-1.7370175011456012725830078125</LongitudeDegrees>
            </Position>
            <AltitudeMeters>461.399993896484375</AltitudeMeters>
            <DistanceMeters>NAN</DistanceMeters>
          </Trackpoint>
          <Trackpoint>
            <Time>2021-08-10T08:23:40.000Z</Time>
            <Position>
              <LatitudeDegrees>43.0888337083160877227783203125</LatitudeDegrees>
              <LongitudeDegrees>-1.73702043481171131134033203125</LongitudeDegrees>
            </Position>
            <AltitudeMeters>461.399993896484375</AltitudeMeters>
            <DistanceMeters>NAN</DistanceMeters>
          </Trackpoint>
          <Trackpoint>
            <Time>2021-08-10T08:23:41.000Z</Time>
            <Position>
              <LatitudeDegrees>43.088855333626270294189453125</LatitudeDegrees>
              <LongitudeDegrees>-1.73702361993491649627685546875</LongitudeDegrees>
            </Position>
            <AltitudeMeters>461.600006103515625</AltitudeMeters>
            <DistanceMeters>NAN</DistanceMeters>
          </Trackpoint>
          <Trackpoint>
            <Time>2021-08-10T08:23:42.000Z</Time>
            <Position>
              <LatitudeDegrees>43.08887620456516742706298828125</LatitudeDegrees>
              <LongitudeDegrees>-1.73702965490520000457763671875</LongitudeDegrees>
            </Position>
            <AltitudeMeters>461.600006103515625</AltitudeMeters>
            <DistanceMeters>NAN</DistanceMeters>
          </Trackpoint>
          <Trackpoint>
            <Time>2021-08-10T08:23:43.000Z</Time>
            <Position>
              <LatitudeDegrees>43.0888974107801914215087890625</LatitudeDegrees>
              <LongitudeDegrees>-1.737031079828739166259765625</LongitudeDegrees>
            </Position>
            <AltitudeMeters>461.79998779296875</AltitudeMeters>
            <DistanceMeters>NAN</DistanceMeters>
          </Trackpoint>
          <Trackpoint>
            <Time>2021-08-10T08:23:44.000Z</Time>
            <Position>
              <LatitudeDegrees>43.0889205448329448699951171875</LatitudeDegrees>
              <LongitudeDegrees>-1.73702646978199481964111328125</LongitudeDegrees>
            </Position>
            <AltitudeMeters>461.79998779296875</AltitudeMeters>
            <DistanceMeters>NAN</DistanceMeters>
          </Trackpoint>
          <Trackpoint>
            <Time>2021-08-10T08:23:45.000Z</Time>
            <Position>
              <LatitudeDegrees>43.08894418179988861083984375</LatitudeDegrees>
              <LongitudeDegrees>-1.73702328465878963470458984375</LongitudeDegrees>
            </Position>
            <AltitudeMeters>462</AltitudeMeters>
            <DistanceMeters>NAN</DistanceMeters>
          </Trackpoint>
          <Trackpoint>
            <Time>2021-08-10T08:23:47.000Z</Time>
            <Position>
              <LatitudeDegrees>43.08899606578052043914794921875</LatitudeDegrees>
              <LongitudeDegrees>-1.73701934516429901123046875</LongitudeDegrees>
            </Position>
            <AltitudeMeters>462.20001220703125</AltitudeMeters>
            <DistanceMeters>NAN</DistanceMeters>
          </Trackpoint>
          <Trackpoint>
            <Time>2021-08-10T08:23:53.000Z</Time>
            <Position>
              <LatitudeDegrees>43.0891314335167407989501953125</LatitudeDegrees>
              <LongitudeDegrees>-1.7370500229299068450927734375</LongitudeDegrees>
            </Position>
            <AltitudeMeters>462.600006103515625</AltitudeMeters>
            <DistanceMeters>NAN</DistanceMeters>
          </Trackpoint>
          <Trackpoint>
            <Time>2021-08-10T08:23:55.000Z</Time>
            <Position>
              <LatitudeDegrees>43.0891679786145687103271484375</LatitudeDegrees>
              <LongitudeDegrees>-1.73708497546613216400146484375</LongitudeDegrees>
            </Position>
            <AltitudeMeters>462.79998779296875</AltitudeMeters>
            <DistanceMeters>NAN</DistanceMeters>
          </Trackpoint>
          <Trackpoint>
            <Time>2021-08-10T08:23:56.000Z</Time>
            <Position>
              <LatitudeDegrees>43.0891850776970386505126953125</LatitudeDegrees>
              <LongitudeDegrees>-1.73710576258599758148193359375</LongitudeDegrees>
            </Position>
            <AltitudeMeters>462.79998779296875</AltitudeMeters>
            <DistanceMeters>NAN</DistanceMeters>
          </Trackpoint>
          <Trackpoint>
            <Time>2021-08-10T08:23:57.000Z</Time>
            <Position>
              <LatitudeDegrees>43.08920301496982574462890625</LatitudeDegrees>
              <LongitudeDegrees>-1.73712604679167270660400390625</LongitudeDegrees>
            </Position>
            <AltitudeMeters>462.79998779296875</AltitudeMeters>
            <DistanceMeters>NAN</DistanceMeters>
          </Trackpoint>
          <Trackpoint>
            <Time>2021-08-10T08:23:58.000Z</Time>
            <Position>
              <LatitudeDegrees>43.08921935968101024627685546875</LatitudeDegrees>
              <LongitudeDegrees>-1.73714448697865009307861328125</LongitudeDegrees>
            </Position>
            <AltitudeMeters>463</AltitudeMeters>
            <DistanceMeters>NAN</DistanceMeters>
          </Trackpoint>
          <Trackpoint>
            <Time>2021-08-10T08:23:59.000Z</Time>
            <Position>
              <LatitudeDegrees>43.0892340280115604400634765625</LatitudeDegrees>
              <LongitudeDegrees>-1.7371650226414203643798828125</LongitudeDegrees>
            </Position>
            <AltitudeMeters>463</AltitudeMeters>
            <DistanceMeters>NAN</DistanceMeters>
          </Trackpoint>
          <Trackpoint>
            <Time>2021-08-10T08:24:00.000Z</Time>
            <Position>
              <LatitudeDegrees>43.08924836106598377227783203125</LatitudeDegrees>
              <LongitudeDegrees>-1.73718505539000034332275390625</LongitudeDegrees>
            </Position>
            <AltitudeMeters>463.20001220703125</AltitudeMeters>
            <DistanceMeters>NAN</DistanceMeters>
          </Trackpoint>
          <Trackpoint>
            <Time>2021-08-10T08:24:01.000Z</Time>
            <Position>
              <LatitudeDegrees>43.08926143683493137359619140625</LatitudeDegrees>
              <LongitudeDegrees>-1.73720919527113437652587890625</LongitudeDegrees>
            </Position>
            <AltitudeMeters>463.20001220703125</AltitudeMeters>
            <DistanceMeters>NAN</DistanceMeters>
          </Trackpoint>
          <Trackpoint>
            <Time>2021-08-10T08:24:05.000Z</Time>
            <Position>
              <LatitudeDegrees>43.08931457810103893280029296875</LatitudeDegrees>
              <LongitudeDegrees>-1.73730256967246532440185546875</LongitudeDegrees>
            </Position>
            <AltitudeMeters>463.399993896484375</AltitudeMeters>
            <DistanceMeters>NAN</DistanceMeters>
          </Trackpoint>
          <Trackpoint>
            <Time>2021-08-10T08:24:11.000Z</Time>
            <Position>
              <LatitudeDegrees>43.08941096998751163482666015625</LatitudeDegrees>
              <LongitudeDegrees>-1.73743818886578083038330078125</LongitudeDegrees>
            </Position>
            <AltitudeMeters>464.20001220703125</AltitudeMeters>
            <DistanceMeters>NAN</DistanceMeters>
          </Trackpoint>
          <Trackpoint>
            <Time>2021-08-10T08:24:14.000Z</Time>
            <Position>
              <LatitudeDegrees>43.0894697271287441253662109375</LatitudeDegrees>
              <LongitudeDegrees>-1.73750214278697967529296875</LongitudeDegrees>
            </Position>
            <AltitudeMeters>464.399993896484375</AltitudeMeters>
            <DistanceMeters>NAN</DistanceMeters>
          </Trackpoint>
          <Trackpoint>
            <Time>2021-08-10T08:24:20.000Z</Time>
            <Position>
              <LatitudeDegrees>43.089591600000858306884765625</LatitudeDegrees>
              <LongitudeDegrees>-1.73761286772787570953369140625</LongitudeDegrees>
            </Position>
            <AltitudeMeters>465.20001220703125</AltitudeMeters>
            <DistanceMeters>NAN</DistanceMeters>
          </Trackpoint>
          <Trackpoint>
            <Time>2021-08-10T08:24:21.000Z</Time>
            <Position>
              <LatitudeDegrees>43.08961112983524799346923828125</LatitudeDegrees>
              <LongitudeDegrees>-1.73762527294456958770751953125</LongitudeDegrees>
            </Position>
            <AltitudeMeters>465.20001220703125</AltitudeMeters>
            <DistanceMeters>NAN</DistanceMeters>
          </Trackpoint>
          <Trackpoint>
            <Time>2021-08-10T08:24:22.000Z</Time>
            <Position>
              <LatitudeDegrees>43.0896316654980182647705078125</LatitudeDegrees>
              <LongitudeDegrees>-1.73763549886643886566162109375</LongitudeDegrees>
            </Position>
            <AltitudeMeters>465.20001220703125</AltitudeMeters>
            <DistanceMeters>NAN</DistanceMeters>
          </Trackpoint>
          <Trackpoint>
            <Time>2021-08-10T08:24:23.000Z</Time>
            <Position>
              <LatitudeDegrees>43.08965303935110569000244140625</LatitudeDegrees>
              <LongitudeDegrees>-1.73764287494122982025146484375</LongitudeDegrees>
            </Position>
            <AltitudeMeters>465.399993896484375</AltitudeMeters>
            <DistanceMeters>NAN</DistanceMeters>
          </Trackpoint>
          <Trackpoint>
            <Time>2021-08-10T08:24:24.000Z</Time>
            <Position>
              <LatitudeDegrees>43.089673407375812530517578125</LatitudeDegrees>
              <LongitudeDegrees>-1.73764840699732303619384765625</LongitudeDegrees>
            </Position>
            <AltitudeMeters>465.399993896484375</AltitudeMeters>
            <DistanceMeters>NAN</DistanceMeters>
          </Trackpoint>
          <Trackpoint>
            <Time>2021-08-10T08:24:25.000Z</Time>
            <Position>
              <LatitudeDegrees>43.08969494886696338653564453125</LatitudeDegrees>
              <LongitudeDegrees>-1.737653352320194244384765625</LongitudeDegrees>
            </Position>
            <AltitudeMeters>465.600006103515625</AltitudeMeters>
            <DistanceMeters>NAN</DistanceMeters>
          </Trackpoint>
          <Trackpoint>
            <Time>2021-08-10T08:24:26.000Z</Time>
            <Position>
              <LatitudeDegrees>43.08971825055778026580810546875</LatitudeDegrees>
              <LongitudeDegrees>-1.7376595549285411834716796875</LongitudeDegrees>
            </Position>
            <AltitudeMeters>465.79998779296875</AltitudeMeters>
            <DistanceMeters>NAN</DistanceMeters>
          </Trackpoint>
          <Trackpoint>
            <Time>2021-08-10T08:24:27.000Z</Time>
            <Position>
              <LatitudeDegrees>43.08974104933440685272216796875</LatitudeDegrees>
              <LongitudeDegrees>-1.7376655898988246917724609375</LongitudeDegrees>
            </Position>
            <AltitudeMeters>465.79998779296875</AltitudeMeters>
            <DistanceMeters>NAN</DistanceMeters>
          </Trackpoint>
          <Trackpoint>
            <Time>2021-08-10T08:24:28.000Z</Time>
            <Position>
              <LatitudeDegrees>43.0897664465010166168212890625</LatitudeDegrees>
              <LongitudeDegrees>-1.73766978085041046142578125</LongitudeDegrees>
            </Position>
            <AltitudeMeters>466.20001220703125</AltitudeMeters>
            <DistanceMeters>NAN</DistanceMeters>
          </Trackpoint>
          <Trackpoint>
            <Time>2021-08-10T08:24:30.000Z</Time>
            <Position>
              <LatitudeDegrees>43.0898170731961727142333984375</LatitudeDegrees>
              <LongitudeDegrees>-1.7376719601452350616455078125</LongitudeDegrees>
            </Position>
            <AltitudeMeters>466.399993896484375</AltitudeMeters>
            <DistanceMeters>NAN</DistanceMeters>
          </Trackpoint>
          <Trackpoint>
            <Time>2021-08-10T08:24:31.000Z</Time>
            <Position>
              <LatitudeDegrees>43.08984138071537017822265625</LatitudeDegrees>
              <LongitudeDegrees>-1.73767455853521823883056640625</LongitudeDegrees>
            </Position>
            <AltitudeMeters>466.600006103515625</AltitudeMeters>
            <DistanceMeters>NAN</DistanceMeters>
          </Trackpoint>
          <Trackpoint>
            <Time>2021-08-10T08:24:32.000Z</Time>
            <Position>
              <LatitudeDegrees>43.08986661024391651153564453125</LatitudeDegrees>
              <LongitudeDegrees>-1.73767103813588619232177734375</LongitudeDegrees>
            </Position>
            <AltitudeMeters>466.79998779296875</AltitudeMeters>
            <DistanceMeters>NAN</DistanceMeters>
          </Trackpoint>
          <Trackpoint>
            <Time>2021-08-10T08:24:33.000Z</Time>
            <Position>
              <LatitudeDegrees>43.089890666306018829345703125</LatitudeDegrees>
              <LongitudeDegrees>-1.73766684718430042266845703125</LongitudeDegrees>
            </Position>
            <AltitudeMeters>467</AltitudeMeters>
            <DistanceMeters>NAN</DistanceMeters>
          </Trackpoint>
          <Trackpoint>
            <Time>2021-08-10T08:24:34.000Z</Time>
            <Position>
              <LatitudeDegrees>43.089914135634899139404296875</LatitudeDegrees>
              <LongitudeDegrees>-1.7376645840704441070556640625</LongitudeDegrees>
            </Position>
            <AltitudeMeters>467.20001220703125</AltitudeMeters>
            <DistanceMeters>NAN</DistanceMeters>
          </Trackpoint>
          <Trackpoint>
            <Time>2021-08-10T08:24:35.000Z</Time>
            <Position>
              <LatitudeDegrees>43.08994003571569919586181640625</LatitudeDegrees>
              <LongitudeDegrees>-1.7376582138240337371826171875</LongitudeDegrees>
            </Position>
            <AltitudeMeters>467.399993896484375</AltitudeMeters>
            <DistanceMeters>NAN</DistanceMeters>
          </Trackpoint>
          <Trackpoint>
            <Time>2021-08-10T08:24:36.000Z</Time>
            <Position>
              <LatitudeDegrees>43.0899635888636112213134765625</LatitudeDegrees>
              <LongitudeDegrees>-1.737654693424701690673828125</LongitudeDegrees>
            </Position>
            <AltitudeMeters>467.399993896484375</AltitudeMeters>
            <DistanceMeters>NAN</DistanceMeters>
          </Trackpoint>
          <Trackpoint>
            <Time>2021-08-10T08:24:37.000Z</Time>
            <Position>
              <LatitudeDegrees>43.08998479507863521575927734375</LatitudeDegrees>
              <LongitudeDegrees>-1.73765025101602077484130859375</LongitudeDegrees>
            </Position>
            <AltitudeMeters>467.600006103515625</AltitudeMeters>
            <DistanceMeters>NAN</DistanceMeters>
          </Trackpoint>
          <Trackpoint>
            <Time>2021-08-10T08:24:38.000Z</Time>
            <Position>
              <LatitudeDegrees>43.09000440873205661773681640625</LatitudeDegrees>
              <LongitudeDegrees>-1.737647317349910736083984375</LongitudeDegrees>
            </Position>
            <AltitudeMeters>467.79998779296875</AltitudeMeters>
            <DistanceMeters>NAN</DistanceMeters>
          </Trackpoint>
          <Trackpoint>
            <Time>2021-08-10T08:24:39.000Z</Time>
            <Position>
              <LatitudeDegrees>43.09002871625125408172607421875</LatitudeDegrees>
              <LongitudeDegrees>-1.73764471895992755889892578125</LongitudeDegrees>
            </Position>
            <AltitudeMeters>467.79998779296875</AltitudeMeters>
            <DistanceMeters>NAN</DistanceMeters>
          </Trackpoint>
          <Trackpoint>
            <Time>2021-08-10T08:24:40.000Z</Time>
            <Position>
              <LatitudeDegrees>43.09005604125559329986572265625</LatitudeDegrees>
              <LongitudeDegrees>-1.73763415776193141937255859375</LongitudeDegrees>
            </Position>
            <AltitudeMeters>468</AltitudeMeters>
            <DistanceMeters>NAN</DistanceMeters>
          </Trackpoint>
          <Trackpoint>
            <Time>2021-08-10T08:24:41.000Z</Time>
            <Position>
              <LatitudeDegrees>43.0900826118886470794677734375</LatitudeDegrees>
              <LongitudeDegrees>-1.737623512744903564453125</LongitudeDegrees>
            </Position>
            <AltitudeMeters>468.20001220703125</AltitudeMeters>
            <DistanceMeters>NAN</DistanceMeters>
          </Trackpoint>
          <Trackpoint>
            <Time>2021-08-10T08:24:42.000Z</Time>
            <Position>
              <LatitudeDegrees>43.09010155498981475830078125</LatitudeDegrees>
              <LongitudeDegrees>-1.7376186512410640716552734375</LongitudeDegrees>
            </Position>
            <AltitudeMeters>468.399993896484375</AltitudeMeters>
            <DistanceMeters>NAN</DistanceMeters>
          </Trackpoint>
          <Trackpoint>
            <Time>2021-08-10T08:24:43.000Z</Time>
            <Position>
              <LatitudeDegrees>43.0901268683373928070068359375</LatitudeDegrees>
              <LongitudeDegrees>-1.7376132868230342864990234375</LongitudeDegrees>
            </Position>
            <AltitudeMeters>468.600006103515625</AltitudeMeters>
            <DistanceMeters>NAN</DistanceMeters>
          </Trackpoint>
          <Trackpoint>
            <Time>2021-08-10T08:24:44.000Z</Time>
            <Position>
              <LatitudeDegrees>43.0901496671140193939208984375</LatitudeDegrees>
              <LongitudeDegrees>-1.73760146833956241607666015625</LongitudeDegrees>
            </Position>
            <AltitudeMeters>468.79998779296875</AltitudeMeters>
            <DistanceMeters>NAN</DistanceMeters>
          </Trackpoint>
          <Trackpoint>
            <Time>2021-08-10T08:24:45.000Z</Time>
            <Position>
              <LatitudeDegrees>43.0901724658906459808349609375</LatitudeDegrees>
              <LongitudeDegrees>-1.73759358935058116912841796875</LongitudeDegrees>
            </Position>
            <AltitudeMeters>468.79998779296875</AltitudeMeters>
            <DistanceMeters>NAN</DistanceMeters>
          </Trackpoint>
          <Trackpoint>
            <Time>2021-08-10T08:24:46.000Z</Time>
            <Position>
              <LatitudeDegrees>43.09019484557211399078369140625</LatitudeDegrees>
              <LongitudeDegrees>-1.73758889548480510711669921875</LongitudeDegrees>
            </Position>
            <AltitudeMeters>469</AltitudeMeters>
            <DistanceMeters>NAN</DistanceMeters>
          </Trackpoint>
          <Trackpoint>
            <Time>2021-08-10T08:24:47.000Z</Time>
            <Position>
              <LatitudeDegrees>43.09021647088229656219482421875</LatitudeDegrees>
              <LongitudeDegrees>-1.73759174533188343048095703125</LongitudeDegrees>
            </Position>
            <AltitudeMeters>469.20001220703125</AltitudeMeters>
            <DistanceMeters>NAN</DistanceMeters>
          </Trackpoint>
          <Trackpoint>
            <Time>2021-08-10T08:24:48.000Z</Time>
            <Position>
              <LatitudeDegrees>43.0902361683547496795654296875</LatitudeDegrees>
              <LongitudeDegrees>-1.737585961818695068359375</LongitudeDegrees>
            </Position>
            <AltitudeMeters>469.20001220703125</AltitudeMeters>
            <DistanceMeters>NAN</DistanceMeters>
          </Trackpoint>
          <Trackpoint>
            <Time>2021-08-10T08:24:49.000Z</Time>
            <Position>
              <LatitudeDegrees>43.09025301598012447357177734375</LatitudeDegrees>
              <LongitudeDegrees>-1.73758235760033130645751953125</LongitudeDegrees>
            </Position>
            <AltitudeMeters>469.399993896484375</AltitudeMeters>
            <DistanceMeters>NAN</DistanceMeters>
          </Trackpoint>
          <Trackpoint>
            <Time>2021-08-10T08:24:50.000Z</Time>
            <Position>
              <LatitudeDegrees>43.0902680195868015289306640625</LatitudeDegrees>
              <LongitudeDegrees>-1.73757967539131641387939453125</LongitudeDegrees>
            </Position>
            <AltitudeMeters>469.600006103515625</AltitudeMeters>
            <DistanceMeters>NAN</DistanceMeters>
          </Trackpoint>
          <Trackpoint>
            <Time>2021-08-10T08:24:51.000Z</Time>
            <Position>
              <LatitudeDegrees>43.09028335846960544586181640625</LatitudeDegrees>
              <LongitudeDegrees>-1.73757581971585750579833984375</LongitudeDegrees>
            </Position>
            <AltitudeMeters>469.79998779296875</AltitudeMeters>
            <DistanceMeters>NAN</DistanceMeters>
          </Trackpoint>
          <Trackpoint>
            <Time>2021-08-10T08:24:52.000Z</Time>
            <Position>
              <LatitudeDegrees>43.090298362076282501220703125</LatitudeDegrees>
              <LongitudeDegrees>-1.73757129348814487457275390625</LongitudeDegrees>
            </Position>
            <AltitudeMeters>469.79998779296875</AltitudeMeters>
            <DistanceMeters>NAN</DistanceMeters>
          </Trackpoint>
          <Trackpoint>
            <Time>2021-08-10T08:24:53.000Z</Time>
            <Position>
              <LatitudeDegrees>43.09031344950199127197265625</LatitudeDegrees>
              <LongitudeDegrees>-1.737564839422702789306640625</LongitudeDegrees>
            </Position>
            <AltitudeMeters>470</AltitudeMeters>
            <DistanceMeters>NAN</DistanceMeters>
          </Trackpoint>
          <Trackpoint>
            <Time>2021-08-10T08:24:54.000Z</Time>
            <Position>
              <LatitudeDegrees>43.090328872203826904296875</LatitudeDegrees>
              <LongitudeDegrees>-1.7375589720904827117919921875</LongitudeDegrees>
            </Position>
            <AltitudeMeters>470.20001220703125</AltitudeMeters>
            <DistanceMeters>NAN</DistanceMeters>
          </Trackpoint>
          <Trackpoint>
            <Time>2021-08-10T08:24:55.000Z</Time>
            <Position>
              <LatitudeDegrees>43.0903437919914722442626953125</LatitudeDegrees>
              <LongitudeDegrees>-1.73755117692053318023681640625</LongitudeDegrees>
            </Position>
            <AltitudeMeters>470.20001220703125</AltitudeMeters>
            <DistanceMeters>NAN</DistanceMeters>
          </Trackpoint>
          <Trackpoint>
            <Time>2021-08-10T08:24:56.000Z</Time>
            <Position>
              <LatitudeDegrees>43.0903531797230243682861328125</LatitudeDegrees>
              <LongitudeDegrees>-1.7375479079782962799072265625</LongitudeDegrees>
            </Position>
            <AltitudeMeters>470.399993896484375</AltitudeMeters>
            <DistanceMeters>NAN</DistanceMeters>
          </Trackpoint>
          <Trackpoint>
            <Time>2021-08-10T08:24:57.000Z</Time>
            <Position>
              <LatitudeDegrees>43.09035695157945156097412109375</LatitudeDegrees>
              <LongitudeDegrees>-1.737548746168613433837890625</LongitudeDegrees>
            </Position>
            <AltitudeMeters>470.399993896484375</AltitudeMeters>
            <DistanceMeters>NAN</DistanceMeters>
          </Trackpoint>
          <Trackpoint>
            <Time>2021-08-10T08:25:17.000Z</Time>
            <Position>
              <LatitudeDegrees>43.09035695157945156097412109375</LatitudeDegrees>
              <LongitudeDegrees>-1.737548746168613433837890625</LongitudeDegrees>
            </Position>
            <AltitudeMeters>470.399993896484375</AltitudeMeters>
            <DistanceMeters>NAN</DistanceMeters>
          </Trackpoint>
          <Trackpoint>
            <Time>2021-08-10T08:25:20.000Z</Time>
            <Position>
              <LatitudeDegrees>43.09038184583187103271484375</LatitudeDegrees>
              <LongitudeDegrees>-1.737546063959598541259765625</LongitudeDegrees>
            </Position>
            <AltitudeMeters>470.399993896484375</AltitudeMeters>
            <DistanceMeters>NAN</DistanceMeters>
          </Trackpoint>
          <Trackpoint>
            <Time>2021-08-10T08:25:22.000Z</Time>
            <Position>
              <LatitudeDegrees>43.0904535949230194091796875</LatitudeDegrees>
              <LongitudeDegrees>-1.73755017109215259552001953125</LongitudeDegrees>
            </Position>
            <AltitudeMeters>470.399993896484375</AltitudeMeters>
            <DistanceMeters>NAN</DistanceMeters>
          </Trackpoint>
          <Trackpoint>
            <Time>2021-08-10T08:25:24.000Z</Time>
            <Position>
              <LatitudeDegrees>43.0905432812869548797607421875</LatitudeDegrees>
              <LongitudeDegrees>-1.737564168870449066162109375</LongitudeDegrees>
            </Position>
            <AltitudeMeters>470.20001220703125</AltitudeMeters>
            <DistanceMeters>NAN</DistanceMeters>
          </Trackpoint>
          <Trackpoint>
            <Time>2021-08-10T08:25:26.000Z</Time>
            <Position>
              <LatitudeDegrees>43.09063640423119068145751953125</LatitudeDegrees>
              <LongitudeDegrees>-1.7376055754721164703369140625</LongitudeDegrees>
            </Position>
            <AltitudeMeters>470.20001220703125</AltitudeMeters>
            <DistanceMeters>NAN</DistanceMeters>
          </Trackpoint>
          <Trackpoint>
            <Time>2021-08-10T08:25:27.000Z</Time>
            <Position>
              <LatitudeDegrees>43.0906864441931247711181640625</LatitudeDegrees>
              <LongitudeDegrees>-1.73763600178062915802001953125</LongitudeDegrees>
            </Position>
            <AltitudeMeters>470</AltitudeMeters>
            <DistanceMeters>NAN</DistanceMeters>
          </Trackpoint>
          <Trackpoint>
            <Time>2021-08-10T08:25:30.000Z</Time>
            <Position>
              <LatitudeDegrees>43.09085919521749019622802734375</LatitudeDegrees>
              <LongitudeDegrees>-1.7377375066280364990234375</LongitudeDegrees>
            </Position>
            <AltitudeMeters>469.600006103515625</AltitudeMeters>
            <DistanceMeters>NAN</DistanceMeters>
          </Trackpoint>
          <Trackpoint>
            <Time>2021-08-10T08:25:31.000Z</Time>
            <Position>
              <LatitudeDegrees>43.0909283459186553955078125</LatitudeDegrees>
              <LongitudeDegrees>-1.7377601377665996551513671875</LongitudeDegrees>
            </Position>
            <AltitudeMeters>469.20001220703125</AltitudeMeters>
            <DistanceMeters>NAN</DistanceMeters>
          </Trackpoint>
          <Trackpoint>
            <Time>2021-08-10T08:25:32.000Z</Time>
            <Position>
              <LatitudeDegrees>43.09100009500980377197265625</LatitudeDegrees>
              <LongitudeDegrees>-1.7377715371549129486083984375</LongitudeDegrees>
            </Position>
            <AltitudeMeters>469.20001220703125</AltitudeMeters>
            <DistanceMeters>NAN</DistanceMeters>
          </Trackpoint>
          <Trackpoint>
            <Time>2021-08-10T08:25:33.000Z</Time>
            <Position>
              <LatitudeDegrees>43.0910746939480304718017578125</LatitudeDegrees>
              <LongitudeDegrees>-1.737771369516849517822265625</LongitudeDegrees>
            </Position>
            <AltitudeMeters>468.600006103515625</AltitudeMeters>
            <DistanceMeters>NAN</DistanceMeters>
          </Trackpoint>
          <Trackpoint>
            <Time>2021-08-10T08:25:34.000Z</Time>
            <Position>
              <LatitudeDegrees>43.0911491252481937408447265625</LatitudeDegrees>
              <LongitudeDegrees>-1.73775837756693363189697265625</LongitudeDegrees>
            </Position>
            <AltitudeMeters>468.399993896484375</AltitudeMeters>
            <DistanceMeters>NAN</DistanceMeters>
          </Trackpoint>
          <Trackpoint>
            <Time>2021-08-10T08:25:35.000Z</Time>
            <Position>
              <LatitudeDegrees>43.0912195332348346710205078125</LatitudeDegrees>
              <LongitudeDegrees>-1.73773817718029022216796875</LongitudeDegrees>
            </Position>
            <AltitudeMeters>467.79998779296875</AltitudeMeters>
            <DistanceMeters>NAN</DistanceMeters>
          </Trackpoint>
          <Trackpoint>
            <Time>2021-08-10T08:25:36.000Z</Time>
            <Position>
              <LatitudeDegrees>43.09129019267857074737548828125</LatitudeDegrees>
              <LongitudeDegrees>-1.73771512694656848907470703125</LongitudeDegrees>
            </Position>
            <AltitudeMeters>467.399993896484375</AltitudeMeters>
            <DistanceMeters>NAN</DistanceMeters>
          </Trackpoint>
          <Trackpoint>
            <Time>2021-08-10T08:25:37.000Z</Time>
            <Position>
              <LatitudeDegrees>43.0913601815700531005859375</LatitudeDegrees>
              <LongitudeDegrees>-1.73768847249448299407958984375</LongitudeDegrees>
            </Position>
            <AltitudeMeters>467</AltitudeMeters>
            <DistanceMeters>NAN</DistanceMeters>
          </Trackpoint>
          <Trackpoint>
            <Time>2021-08-10T08:25:40.000Z</Time>
            <Position>
              <LatitudeDegrees>43.09157517738640308380126953125</LatitudeDegrees>
              <LongitudeDegrees>-1.73757179640233516693115234375</LongitudeDegrees>
            </Position>
            <AltitudeMeters>466</AltitudeMeters>
            <DistanceMeters>NAN</DistanceMeters>
          </Trackpoint>
          <Trackpoint>
            <Time>2021-08-10T08:25:43.000Z</Time>
            <Position>
              <LatitudeDegrees>43.0917569808661937713623046875</LatitudeDegrees>
              <LongitudeDegrees>-1.73735017888247966766357421875</LongitudeDegrees>
            </Position>
            <AltitudeMeters>465</AltitudeMeters>
            <DistanceMeters>NAN</DistanceMeters>
          </Trackpoint>
          <Trackpoint>
            <Time>2021-08-10T08:25:44.000Z</Time>
            <Position>
              <LatitudeDegrees>43.091805092990398406982421875</LatitudeDegrees>
              <LongitudeDegrees>-1.737255714833736419677734375</LongitudeDegrees>
            </Position>
            <AltitudeMeters>464.79998779296875</AltitudeMeters>
            <DistanceMeters>NAN</DistanceMeters>
          </Trackpoint>
          <Trackpoint>
            <Time>2021-08-10T08:25:45.000Z</Time>
            <Position>
              <LatitudeDegrees>43.0918431468307971954345703125</LatitudeDegrees>
              <LongitudeDegrees>-1.7371499352157115936279296875</LongitudeDegrees>
            </Position>
            <AltitudeMeters>464.20001220703125</AltitudeMeters>
            <DistanceMeters>NAN</DistanceMeters>
          </Trackpoint>
          <Trackpoint>
            <Time>2021-08-10T08:25:46.000Z</Time>
            <Position>
              <LatitudeDegrees>43.09186510741710662841796875</LatitudeDegrees>
              <LongitudeDegrees>-1.737037785351276397705078125</LongitudeDegrees>
            </Position>
            <AltitudeMeters>464</AltitudeMeters>
            <DistanceMeters>NAN</DistanceMeters>
          </Trackpoint>
          <Trackpoint>
            <Time>2021-08-10T08:25:47.000Z</Time>
            <Position>
              <LatitudeDegrees>43.0918773449957370758056640625</LatitudeDegrees>
              <LongitudeDegrees>-1.73692437820136547088623046875</LongitudeDegrees>
            </Position>
            <AltitudeMeters>463.399993896484375</AltitudeMeters>
            <DistanceMeters>NAN</DistanceMeters>
          </Trackpoint>
          <Trackpoint>
            <Time>2021-08-10T08:25:48.000Z</Time>
            <Position>
              <LatitudeDegrees>43.0918843857944011688232421875</LatitudeDegrees>
              <LongitudeDegrees>-1.73681080341339111328125</LongitudeDegrees>
            </Position>
            <AltitudeMeters>462.79998779296875</AltitudeMeters>
            <DistanceMeters>NAN</DistanceMeters>
          </Trackpoint>
          <Trackpoint>
            <Time>2021-08-10T08:25:49.000Z</Time>
            <Position>
              <LatitudeDegrees>43.0918917618691921234130859375</LatitudeDegrees>
              <LongitudeDegrees>-1.73669873736798763275146484375</LongitudeDegrees>
            </Position>
            <AltitudeMeters>462.399993896484375</AltitudeMeters>
            <DistanceMeters>NAN</DistanceMeters>
          </Trackpoint>
          <Trackpoint>
            <Time>2021-08-10T08:25:50.000Z</Time>
            <Position>
              <LatitudeDegrees>43.0919061787426471710205078125</LatitudeDegrees>
              <LongitudeDegrees>-1.7365913651883602142333984375</LongitudeDegrees>
            </Position>
            <AltitudeMeters>461.79998779296875</AltitudeMeters>
            <DistanceMeters>NAN</DistanceMeters>
          </Trackpoint>
          <Trackpoint>
            <Time>2021-08-10T08:25:51.000Z</Time>
            <Position>
              <LatitudeDegrees>43.09193350374698638916015625</LatitudeDegrees>
              <LongitudeDegrees>-1.7364937998354434967041015625</LongitudeDegrees>
            </Position>
            <AltitudeMeters>461.600006103515625</AltitudeMeters>
            <DistanceMeters>NAN</DistanceMeters>
          </Trackpoint>
          <Trackpoint>
            <Time>2021-08-10T08:25:52.000Z</Time>
            <Position>
              <LatitudeDegrees>43.09197851456701755523681640625</LatitudeDegrees>
              <LongitudeDegrees>-1.73641039989888668060302734375</LongitudeDegrees>
            </Position>
            <AltitudeMeters>461.399993896484375</AltitudeMeters>
            <DistanceMeters>NAN</DistanceMeters>
          </Trackpoint>
          <Trackpoint>
            <Time>2021-08-10T08:25:53.000Z</Time>
            <Position>
              <LatitudeDegrees>43.09203551150858402252197265625</LatitudeDegrees>
              <LongitudeDegrees>-1.736344434320926666259765625</LongitudeDegrees>
            </Position>
            <AltitudeMeters>461.20001220703125</AltitudeMeters>
            <DistanceMeters>NAN</DistanceMeters>
          </Trackpoint>
          <Trackpoint>
            <Time>2021-08-10T08:25:54.000Z</Time>
            <Position>
              <LatitudeDegrees>43.09210239909589290618896484375</LatitudeDegrees>
              <LongitudeDegrees>-1.73630646429955959320068359375</LongitudeDegrees>
            </Position>
            <AltitudeMeters>461.20001220703125</AltitudeMeters>
            <DistanceMeters>NAN</DistanceMeters>
          </Trackpoint>
          <Trackpoint>
            <Time>2021-08-10T08:25:55.000Z</Time>
            <Position>
              <LatitudeDegrees>43.0921728909015655517578125</LatitudeDegrees>
              <LongitudeDegrees>-1.73628634773194789886474609375</LongitudeDegrees>
            </Position>
            <AltitudeMeters>461</AltitudeMeters>
            <DistanceMeters>NAN</DistanceMeters>
          </Trackpoint>
          <Trackpoint>
            <Time>2021-08-10T08:25:56.000Z</Time>
            <Position>
              <LatitudeDegrees>43.09224304743111133575439453125</LatitudeDegrees>
              <LongitudeDegrees>-1.736271679401397705078125</LongitudeDegrees>
            </Position>
            <AltitudeMeters>461</AltitudeMeters>
            <DistanceMeters>NAN</DistanceMeters>
          </Trackpoint>
          <Trackpoint>
            <Time>2021-08-10T08:25:57.000Z</Time>
            <Position>
              <LatitudeDegrees>43.0923111923038959503173828125</LatitudeDegrees>
              <LongitudeDegrees>-1.73625566996634006500244140625</LongitudeDegrees>
            </Position>
            <AltitudeMeters>460.79998779296875</AltitudeMeters>
            <DistanceMeters>NAN</DistanceMeters>
          </Trackpoint>
          <Trackpoint>
            <Time>2021-08-10T08:25:58.000Z</Time>
            <Position>
              <LatitudeDegrees>43.09237615205347537994384765625</LatitudeDegrees>
              <LongitudeDegrees>-1.73623354174196720123291015625</LongitudeDegrees>
            </Position>
            <AltitudeMeters>460.79998779296875</AltitudeMeters>
            <DistanceMeters>NAN</DistanceMeters>
          </Trackpoint>
          <Trackpoint>
            <Time>2021-08-10T08:25:59.000Z</Time>
            <Position>
              <LatitudeDegrees>43.09243700467050075531005859375</LatitudeDegrees>
              <LongitudeDegrees>-1.73620236106216907501220703125</LongitudeDegrees>
            </Position>
            <AltitudeMeters>460.600006103515625</AltitudeMeters>
            <DistanceMeters>NAN</DistanceMeters>
          </Trackpoint>
          <Trackpoint>
            <Time>2021-08-10T08:26:00.000Z</Time>
            <Position>
              <LatitudeDegrees>43.0924925766885280609130859375</LatitudeDegrees>
              <LongitudeDegrees>-1.73615626059472560882568359375</LongitudeDegrees>
            </Position>
            <AltitudeMeters>460.600006103515625</AltitudeMeters>
            <DistanceMeters>NAN</DistanceMeters>
          </Trackpoint>
          <Trackpoint>
            <Time>2021-08-10T08:26:01.000Z</Time>
            <Position>
              <LatitudeDegrees>43.09254169464111328125</LatitudeDegrees>
              <LongitudeDegrees>-1.7361058853566646575927734375</LongitudeDegrees>
            </Position>
            <AltitudeMeters>460.399993896484375</AltitudeMeters>
            <DistanceMeters>NAN</DistanceMeters>
          </Trackpoint>
          <Trackpoint>
            <Time>2021-08-10T08:26:02.000Z</Time>
            <Position>
              <LatitudeDegrees>43.09258603490889072418212890625</LatitudeDegrees>
              <LongitudeDegrees>-1.736058108508586883544921875</LongitudeDegrees>
            </Position>
            <AltitudeMeters>460.399993896484375</AltitudeMeters>
            <DistanceMeters>NAN</DistanceMeters>
          </Trackpoint>
          <Trackpoint>
            <Time>2021-08-10T08:26:03.000Z</Time>
            <Position>
              <LatitudeDegrees>43.09262459166347980499267578125</LatitudeDegrees>
              <LongitudeDegrees>-1.736011840403079986572265625</LongitudeDegrees>
            </Position>
            <AltitudeMeters>460.399993896484375</AltitudeMeters>
            <DistanceMeters>NAN</DistanceMeters>
          </Trackpoint>
          <Trackpoint>
            <Time>2021-08-10T08:26:04.000Z</Time>
            <Position>
              <LatitudeDegrees>43.0926598794758319854736328125</LatitudeDegrees>
              <LongitudeDegrees>-1.7359690926969051361083984375</LongitudeDegrees>
            </Position>
            <AltitudeMeters>460.20001220703125</AltitudeMeters>
            <DistanceMeters>NAN</DistanceMeters>
          </Trackpoint>
          <Trackpoint>
            <Time>2021-08-10T08:26:05.000Z</Time>
            <Position>
              <LatitudeDegrees>43.09269315563142299652099609375</LatitudeDegrees>
              <LongitudeDegrees>-1.7359308712184429168701171875</LongitudeDegrees>
            </Position>
            <AltitudeMeters>460.20001220703125</AltitudeMeters>
            <DistanceMeters>NAN</DistanceMeters>
          </Trackpoint>
          <Trackpoint>
            <Time>2021-08-10T08:26:06.000Z</Time>
            <Position>
              <LatitudeDegrees>43.0927254259586334228515625</LatitudeDegrees>
              <LongitudeDegrees>-1.73589658923447132110595703125</LongitudeDegrees>
            </Position>
            <AltitudeMeters>460.20001220703125</AltitudeMeters>
            <DistanceMeters>NAN</DistanceMeters>
          </Trackpoint>
          <Trackpoint>
            <Time>2021-08-10T08:26:07.000Z</Time>
            <Position>
              <LatitudeDegrees>43.0927549302577972412109375</LatitudeDegrees>
              <LongitudeDegrees>-1.73586373217403888702392578125</LongitudeDegrees>
            </Position>
            <AltitudeMeters>460.20001220703125</AltitudeMeters>
            <DistanceMeters>NAN</DistanceMeters>
          </Trackpoint>
          <Trackpoint>
            <Time>2021-08-10T08:26:08.000Z</Time>
            <Position>
              <LatitudeDegrees>43.09278083033859729766845703125</LatitudeDegrees>
              <LongitudeDegrees>-1.73583305440843105316162109375</LongitudeDegrees>
            </Position>
            <AltitudeMeters>460.20001220703125</AltitudeMeters>
            <DistanceMeters>NAN</DistanceMeters>
          </Trackpoint>
          <Trackpoint>
            <Time>2021-08-10T08:26:09.000Z</Time>
            <Position>
              <LatitudeDegrees>43.09280480258166790008544921875</LatitudeDegrees>
              <LongitudeDegrees>-1.735804975032806396484375</LongitudeDegrees>
            </Position>
            <AltitudeMeters>460.20001220703125</AltitudeMeters>
            <DistanceMeters>NAN</DistanceMeters>
          </Trackpoint>
          <Trackpoint>
            <Time>2021-08-10T08:26:10.000Z</Time>
            <Position>
              <LatitudeDegrees>43.092828691005706787109375</LatitudeDegrees>
              <LongitudeDegrees>-1.73577337525784969329833984375</LongitudeDegrees>
            </Position>
            <AltitudeMeters>460.20001220703125</AltitudeMeters>
            <DistanceMeters>NAN</DistanceMeters>
          </Trackpoint>
          <Trackpoint>
            <Time>2021-08-10T08:26:11.000Z</Time>
            <Position>
              <LatitudeDegrees>43.0928536690771579742431640625</LatitudeDegrees>
              <LongitudeDegrees>-1.73573951236903667449951171875</LongitudeDegrees>
            </Position>
            <AltitudeMeters>460.20001220703125</AltitudeMeters>
            <DistanceMeters>NAN</DistanceMeters>
          </Trackpoint>
          <Trackpoint>
            <Time>2021-08-10T08:26:15.000Z</Time>
            <Position>
              <LatitudeDegrees>43.09294947423040866851806640625</LatitudeDegrees>
              <LongitudeDegrees>-1.73562166281044483184814453125</LongitudeDegrees>
            </Position>
            <AltitudeMeters>460.399993896484375</AltitudeMeters>
            <DistanceMeters>NAN</DistanceMeters>
          </Trackpoint>
          <Trackpoint>
            <Time>2021-08-10T08:26:17.000Z</Time>
            <Position>
              <LatitudeDegrees>43.0930021964013576507568359375</LatitudeDegrees>
              <LongitudeDegrees>-1.73555578105151653289794921875</LongitudeDegrees>
            </Position>
            <AltitudeMeters>460.399993896484375</AltitudeMeters>
            <DistanceMeters>NAN</DistanceMeters>
          </Trackpoint>
          <Trackpoint>
            <Time>2021-08-10T08:26:18.000Z</Time>
            <Position>
              <LatitudeDegrees>43.0930263362824916839599609375</LatitudeDegrees>
              <LongitudeDegrees>-1.73552644439041614532470703125</LongitudeDegrees>
            </Position>
            <AltitudeMeters>460.399993896484375</AltitudeMeters>
            <DistanceMeters>NAN</DistanceMeters>
          </Trackpoint>
          <Trackpoint>
            <Time>2021-08-10T08:26:19.000Z</Time>
            <Position>
              <LatitudeDegrees>43.09305173344910144805908203125</LatitudeDegrees>
              <LongitudeDegrees>-1.73549442552030086517333984375</LongitudeDegrees>
            </Position>
            <AltitudeMeters>460.399993896484375</AltitudeMeters>
            <DistanceMeters>NAN</DistanceMeters>
          </Trackpoint>
          <Trackpoint>
            <Time>2021-08-10T08:26:23.000Z</Time>
            <Position>
              <LatitudeDegrees>43.09316354803740978240966796875</LatitudeDegrees>
              <LongitudeDegrees>-1.73534824512898921966552734375</LongitudeDegrees>
            </Position>
            <AltitudeMeters>460.600006103515625</AltitudeMeters>
            <DistanceMeters>NAN</DistanceMeters>
          </Trackpoint>
          <Trackpoint>
            <Time>2021-08-10T08:26:24.000Z</Time>
            <Position>
              <LatitudeDegrees>43.09319037012755870819091796875</LatitudeDegrees>
              <LongitudeDegrees>-1.735311448574066162109375</LongitudeDegrees>
            </Position>
            <AltitudeMeters>460.600006103515625</AltitudeMeters>
            <DistanceMeters>NAN</DistanceMeters>
          </Trackpoint>
          <Trackpoint>
            <Time>2021-08-10T08:26:28.000Z</Time>
            <Position>
              <LatitudeDegrees>43.09331241063773632049560546875</LatitudeDegrees>
              <LongitudeDegrees>-1.73514339141547679901123046875</LongitudeDegrees>
            </Position>
            <AltitudeMeters>460.79998779296875</AltitudeMeters>
            <DistanceMeters>NAN</DistanceMeters>
          </Trackpoint>
          <Trackpoint>
            <Time>2021-08-10T08:26:35.000Z</Time>
            <Position>
              <LatitudeDegrees>43.09349429793655872344970703125</LatitudeDegrees>
              <LongitudeDegrees>-1.7347711510956287384033203125</LongitudeDegrees>
            </Position>
            <AltitudeMeters>460.79998779296875</AltitudeMeters>
            <DistanceMeters>NAN</DistanceMeters>
          </Trackpoint>
          <Trackpoint>
            <Time>2021-08-10T08:26:37.000Z</Time>
            <Position>
              <LatitudeDegrees>43.093550205230712890625</LatitudeDegrees>
              <LongitudeDegrees>-1.73467098735272884368896484375</LongitudeDegrees>
            </Position>
            <AltitudeMeters>460.79998779296875</AltitudeMeters>
            <DistanceMeters>NAN</DistanceMeters>
          </Trackpoint>
          <Trackpoint>
            <Time>2021-08-10T08:26:40.000Z</Time>
            <Position>
              <LatitudeDegrees>43.09360183775424957275390625</LatitudeDegrees>
              <LongitudeDegrees>-1.734521202743053436279296875</LongitudeDegrees>
            </Position>
            <AltitudeMeters>460.79998779296875</AltitudeMeters>
            <DistanceMeters>NAN</DistanceMeters>
          </Trackpoint>
          <Trackpoint>
            <Time>2021-08-10T08:26:41.000Z</Time>
            <Position>
              <LatitudeDegrees>43.09361583553254604339599609375</LatitudeDegrees>
              <LongitudeDegrees>-1.734463535249233245849609375</LongitudeDegrees>
            </Position>
            <AltitudeMeters>460.79998779296875</AltitudeMeters>
            <DistanceMeters>NAN</DistanceMeters>
          </Trackpoint>
          <Trackpoint>
            <Time>2021-08-10T08:26:45.000Z</Time>
            <Position>
              <LatitudeDegrees>43.09366025961935520172119140625</LatitudeDegrees>
              <LongitudeDegrees>-1.73422758467495441436767578125</LongitudeDegrees>
            </Position>
            <AltitudeMeters>460.600006103515625</AltitudeMeters>
            <DistanceMeters>NAN</DistanceMeters>
          </Trackpoint>
          <Trackpoint>
            <Time>2021-08-10T08:26:46.000Z</Time>
            <Position>
              <LatitudeDegrees>43.09365891851484775543212890625</LatitudeDegrees>
              <LongitudeDegrees>-1.73416924662888050079345703125</LongitudeDegrees>
            </Position>
            <AltitudeMeters>460.399993896484375</AltitudeMeters>
            <DistanceMeters>NAN</DistanceMeters>
          </Trackpoint>
          <Trackpoint>
            <Time>2021-08-10T08:26:47.000Z</Time>
            <Position>
              <LatitudeDegrees>43.09365556575357913970947265625</LatitudeDegrees>
              <LongitudeDegrees>-1.734108142554759979248046875</LongitudeDegrees>
            </Position>
            <AltitudeMeters>460.399993896484375</AltitudeMeters>
            <DistanceMeters>NAN</DistanceMeters>
          </Trackpoint>
          <Trackpoint>
            <Time>2021-08-10T08:26:52.000Z</Time>
            <Position>
              <LatitudeDegrees>43.093615584075450897216796875</LatitudeDegrees>
              <LongitudeDegrees>-1.733797006309032440185546875</LongitudeDegrees>
            </Position>
            <AltitudeMeters>459.79998779296875</AltitudeMeters>
            <DistanceMeters>NAN</DistanceMeters>
          </Trackpoint>
          <Trackpoint>
            <Time>2021-08-10T08:26:54.000Z</Time>
            <Position>
              <LatitudeDegrees>43.0936184339225292205810546875</LatitudeDegrees>
              <LongitudeDegrees>-1.73366658389568328857421875</LongitudeDegrees>
            </Position>
            <AltitudeMeters>459.600006103515625</AltitudeMeters>
            <DistanceMeters>NAN</DistanceMeters>
          </Trackpoint>
          <Trackpoint>
            <Time>2021-08-10T08:26:56.000Z</Time>
            <Position>
              <LatitudeDegrees>43.09367434121668338775634765625</LatitudeDegrees>
              <LongitudeDegrees>-1.73356105573475360870361328125</LongitudeDegrees>
            </Position>
            <AltitudeMeters>459.399993896484375</AltitudeMeters>
            <DistanceMeters>NAN</DistanceMeters>
          </Trackpoint>
          <Trackpoint>
            <Time>2021-08-10T08:26:57.000Z</Time>
            <Position>
              <LatitudeDegrees>43.0937151610851287841796875</LatitudeDegrees>
              <LongitudeDegrees>-1.733532138168811798095703125</LongitudeDegrees>
            </Position>
            <AltitudeMeters>459.20001220703125</AltitudeMeters>
            <DistanceMeters>NAN</DistanceMeters>
          </Trackpoint>
          <Trackpoint>
            <Time>2021-08-10T08:26:58.000Z</Time>
            <Position>
              <LatitudeDegrees>43.093755729496479034423828125</LatitudeDegrees>
              <LongitudeDegrees>-1.733520068228244781494140625</LongitudeDegrees>
            </Position>
            <AltitudeMeters>459</AltitudeMeters>
            <DistanceMeters>NAN</DistanceMeters>
          </Trackpoint>
          <Trackpoint>
            <Time>2021-08-10T08:26:59.000Z</Time>
            <Position>
              <LatitudeDegrees>43.09379369951784610748291015625</LatitudeDegrees>
              <LongitudeDegrees>-1.73351948149502277374267578125</LongitudeDegrees>
            </Position>
            <AltitudeMeters>459</AltitudeMeters>
            <DistanceMeters>NAN</DistanceMeters>
          </Trackpoint>
          <Trackpoint>
            <Time>2021-08-10T08:27:00.000Z</Time>
            <Position>
              <LatitudeDegrees>43.0938299931585788726806640625</LatitudeDegrees>
              <LongitudeDegrees>-1.73353113234043121337890625</LongitudeDegrees>
            </Position>
            <AltitudeMeters>458.79998779296875</AltitudeMeters>
            <DistanceMeters>NAN</DistanceMeters>
          </Trackpoint>
          <Trackpoint>
            <Time>2021-08-10T08:27:01.000Z</Time>
            <Position>
              <LatitudeDegrees>43.09386469423770904541015625</LatitudeDegrees>
              <LongitudeDegrees>-1.733543872833251953125</LongitudeDegrees>
            </Position>
            <AltitudeMeters>458.79998779296875</AltitudeMeters>
            <DistanceMeters>NAN</DistanceMeters>
          </Trackpoint>
          <Trackpoint>
            <Time>2021-08-10T08:27:02.000Z</Time>
            <Position>
              <LatitudeDegrees>43.09389679692685604095458984375</LatitudeDegrees>
              <LongitudeDegrees>-1.733553595840930938720703125</LongitudeDegrees>
            </Position>
            <AltitudeMeters>458.79998779296875</AltitudeMeters>
            <DistanceMeters>NAN</DistanceMeters>
          </Trackpoint>
          <Trackpoint>
            <Time>2021-08-10T08:27:03.000Z</Time>
            <Position>
              <LatitudeDegrees>43.0939255468547344207763671875</LatitudeDegrees>
              <LongitudeDegrees>-1.7335634864866733551025390625</LongitudeDegrees>
            </Position>
            <AltitudeMeters>458.79998779296875</AltitudeMeters>
            <DistanceMeters>NAN</DistanceMeters>
          </Trackpoint>
          <Trackpoint>
            <Time>2021-08-10T08:27:04.000Z</Time>
            <Position>
              <LatitudeDegrees>43.093949854373931884765625</LatitudeDegrees>
              <LongitudeDegrees>-1.73357882536947727203369140625</LongitudeDegrees>
            </Position>
            <AltitudeMeters>458.79998779296875</AltitudeMeters>
            <DistanceMeters>NAN</DistanceMeters>
          </Trackpoint>
          <Trackpoint>
            <Time>2021-08-10T08:27:05.000Z</Time>
            <Position>
              <LatitudeDegrees>43.0939687974750995635986328125</LatitudeDegrees>
              <LongitudeDegrees>-1.73359776847064495086669921875</LongitudeDegrees>
            </Position>
            <AltitudeMeters>458.79998779296875</AltitudeMeters>
            <DistanceMeters>NAN</DistanceMeters>
          </Trackpoint>
          <Trackpoint>
            <Time>2021-08-10T08:27:06.000Z</Time>
            <Position>
              <LatitudeDegrees>43.09399209916591644287109375</LatitudeDegrees>
              <LongitudeDegrees>-1.73361352644860744476318359375</LongitudeDegrees>
            </Position>
            <AltitudeMeters>458.79998779296875</AltitudeMeters>
            <DistanceMeters>NAN</DistanceMeters>
          </Trackpoint>
          <Trackpoint>
            <Time>2021-08-10T08:27:11.000Z</Time>
            <Position>
              <LatitudeDegrees>43.09412813745439052581787109375</LatitudeDegrees>
              <LongitudeDegrees>-1.7336845211684703826904296875</LongitudeDegrees>
            </Position>
            <AltitudeMeters>459.399993896484375</AltitudeMeters>
            <DistanceMeters>NAN</DistanceMeters>
          </Trackpoint>
          <Trackpoint>
            <Time>2021-08-10T08:27:12.000Z</Time>
            <Position>
              <LatitudeDegrees>43.09415596537292003631591796875</LatitudeDegrees>
              <LongitudeDegrees>-1.73369164578616619110107421875</LongitudeDegrees>
            </Position>
            <AltitudeMeters>459.600006103515625</AltitudeMeters>
            <DistanceMeters>NAN</DistanceMeters>
          </Trackpoint>
          <Trackpoint>
            <Time>2021-08-10T08:27:13.000Z</Time>
            <Position>
              <LatitudeDegrees>43.09418345801532268524169921875</LatitudeDegrees>
              <LongitudeDegrees>-1.73370069824159145355224609375</LongitudeDegrees>
            </Position>
            <AltitudeMeters>459.600006103515625</AltitudeMeters>
            <DistanceMeters>NAN</DistanceMeters>
          </Trackpoint>
          <Trackpoint>
            <Time>2021-08-10T08:27:16.000Z</Time>
            <Position>
              <LatitudeDegrees>43.09426627121865749359130859375</LatitudeDegrees>
              <LongitudeDegrees>-1.73371494747698307037353515625</LongitudeDegrees>
            </Position>
            <AltitudeMeters>460</AltitudeMeters>
            <DistanceMeters>NAN</DistanceMeters>
          </Trackpoint>
          <Trackpoint>
            <Time>2021-08-10T08:27:19.000Z</Time>
            <Position>
              <LatitudeDegrees>43.0943567119538784027099609375</LatitudeDegrees>
              <LongitudeDegrees>-1.73369248397648334503173828125</LongitudeDegrees>
            </Position>
            <AltitudeMeters>460.600006103515625</AltitudeMeters>
            <DistanceMeters>NAN</DistanceMeters>
          </Trackpoint>
          <Trackpoint>
            <Time>2021-08-10T08:27:24.000Z</Time>
            <Position>
              <LatitudeDegrees>43.094470538198947906494140625</LatitudeDegrees>
              <LongitudeDegrees>-1.7335792444646358489990234375</LongitudeDegrees>
            </Position>
            <AltitudeMeters>461.20001220703125</AltitudeMeters>
            <DistanceMeters>NAN</DistanceMeters>
          </Trackpoint>
          <Trackpoint>
            <Time>2021-08-10T08:27:25.000Z</Time>
            <Position>
              <LatitudeDegrees>43.0944797582924365997314453125</LatitudeDegrees>
              <LongitudeDegrees>-1.73354881815612316131591796875</LongitudeDegrees>
            </Position>
            <AltitudeMeters>461.399993896484375</AltitudeMeters>
            <DistanceMeters>NAN</DistanceMeters>
          </Trackpoint>
          <Trackpoint>
            <Time>2021-08-10T08:27:26.000Z</Time>
            <Position>
              <LatitudeDegrees>43.09448939748108386993408203125</LatitudeDegrees>
              <LongitudeDegrees>-1.73351679928600788116455078125</LongitudeDegrees>
            </Position>
            <AltitudeMeters>461.600006103515625</AltitudeMeters>
            <DistanceMeters>NAN</DistanceMeters>
          </Trackpoint>
          <Trackpoint>
            <Time>2021-08-10T08:27:27.000Z</Time>
            <Position>
              <LatitudeDegrees>43.094496689736843109130859375</LatitudeDegrees>
              <LongitudeDegrees>-1.73348151147365570068359375</LongitudeDegrees>
            </Position>
            <AltitudeMeters>461.600006103515625</AltitudeMeters>
            <DistanceMeters>NAN</DistanceMeters>
          </Trackpoint>
          <Trackpoint>
            <Time>2021-08-10T08:27:28.000Z</Time>
            <Position>
              <LatitudeDegrees>43.094501383602619171142578125</LatitudeDegrees>
              <LongitudeDegrees>-1.7334471456706523895263671875</LongitudeDegrees>
            </Position>
            <AltitudeMeters>461.79998779296875</AltitudeMeters>
            <DistanceMeters>NAN</DistanceMeters>
          </Trackpoint>
          <Trackpoint>
            <Time>2021-08-10T08:27:29.000Z</Time>
            <Position>
              <LatitudeDegrees>43.094502054154872894287109375</LatitudeDegrees>
              <LongitudeDegrees>-1.7334116064012050628662109375</LongitudeDegrees>
            </Position>
            <AltitudeMeters>462</AltitudeMeters>
            <DistanceMeters>NAN</DistanceMeters>
          </Trackpoint>
          <Trackpoint>
            <Time>2021-08-10T08:27:30.000Z</Time>
            <Position>
              <LatitudeDegrees>43.09450062923133373260498046875</LatitudeDegrees>
              <LongitudeDegrees>-1.73337556421756744384765625</LongitudeDegrees>
            </Position>
            <AltitudeMeters>462</AltitudeMeters>
            <DistanceMeters>NAN</DistanceMeters>
          </Trackpoint>
          <Trackpoint>
            <Time>2021-08-10T08:27:31.000Z</Time>
            <Position>
              <LatitudeDegrees>43.0944961868226528167724609375</LatitudeDegrees>
              <LongitudeDegrees>-1.73333927057683467864990234375</LongitudeDegrees>
            </Position>
            <AltitudeMeters>462.20001220703125</AltitudeMeters>
            <DistanceMeters>NAN</DistanceMeters>
          </Trackpoint>
          <Trackpoint>
            <Time>2021-08-10T08:27:32.000Z</Time>
            <Position>
              <LatitudeDegrees>43.094489984214305877685546875</LatitudeDegrees>
              <LongitudeDegrees>-1.73330741934478282928466796875</LongitudeDegrees>
            </Position>
            <AltitudeMeters>462.20001220703125</AltitudeMeters>
            <DistanceMeters>NAN</DistanceMeters>
          </Trackpoint>
          <Trackpoint>
            <Time>2021-08-10T08:27:33.000Z</Time>
            <Position>
              <LatitudeDegrees>43.0944854579865932464599609375</LatitudeDegrees>
              <LongitudeDegrees>-1.73327120952308177947998046875</LongitudeDegrees>
            </Position>
            <AltitudeMeters>462.399993896484375</AltitudeMeters>
            <DistanceMeters>NAN</DistanceMeters>
          </Trackpoint>
          <Trackpoint>
            <Time>2021-08-10T08:27:34.000Z</Time>
            <Position>
              <LatitudeDegrees>43.094480931758880615234375</LatitudeDegrees>
              <LongitudeDegrees>-1.73324204050004482269287109375</LongitudeDegrees>
            </Position>
            <AltitudeMeters>462.600006103515625</AltitudeMeters>
            <DistanceMeters>NAN</DistanceMeters>
          </Trackpoint>
          <Trackpoint>
            <Time>2021-08-10T08:27:35.000Z</Time>
            <Position>
              <LatitudeDegrees>43.09446819126605987548828125</LatitudeDegrees>
              <LongitudeDegrees>-1.733202226459980010986328125</LongitudeDegrees>
            </Position>
            <AltitudeMeters>462.79998779296875</AltitudeMeters>
            <DistanceMeters>NAN</DistanceMeters>
          </Trackpoint>
          <Trackpoint>
            <Time>2021-08-10T08:27:36.000Z</Time>
            <Position>
              <LatitudeDegrees>43.09445721097290515899658203125</LatitudeDegrees>
              <LongitudeDegrees>-1.73316895030438899993896484375</LongitudeDegrees>
            </Position>
            <AltitudeMeters>462.79998779296875</AltitudeMeters>
            <DistanceMeters>NAN</DistanceMeters>
          </Trackpoint>
          <Trackpoint>
            <Time>2021-08-10T08:27:37.000Z</Time>
            <Position>
              <LatitudeDegrees>43.09444564394652843475341796875</LatitudeDegrees>
              <LongitudeDegrees>-1.73313307575881481170654296875</LongitudeDegrees>
            </Position>
            <AltitudeMeters>463</AltitudeMeters>
            <DistanceMeters>NAN</DistanceMeters>
          </Trackpoint>
          <Trackpoint>
            <Time>2021-08-10T08:27:38.000Z</Time>
            <Position>
              <LatitudeDegrees>43.094434328377246856689453125</LatitudeDegrees>
              <LongitudeDegrees>-1.7330910824239253997802734375</LongitudeDegrees>
            </Position>
            <AltitudeMeters>463</AltitudeMeters>
            <DistanceMeters>NAN</DistanceMeters>
          </Trackpoint>
          <Trackpoint>
            <Time>2021-08-10T08:27:39.000Z</Time>
            <Position>
              <LatitudeDegrees>43.09442334808409214019775390625</LatitudeDegrees>
              <LongitudeDegrees>-1.73303936608135700225830078125</LongitudeDegrees>
            </Position>
            <AltitudeMeters>463</AltitudeMeters>
            <DistanceMeters>NAN</DistanceMeters>
          </Trackpoint>
          <Trackpoint>
            <Time>2021-08-10T08:27:40.000Z</Time>
            <Position>
              <LatitudeDegrees>43.0944125354290008544921875</LatitudeDegrees>
              <LongitudeDegrees>-1.73299075104296207427978515625</LongitudeDegrees>
            </Position>
            <AltitudeMeters>463</AltitudeMeters>
            <DistanceMeters>NAN</DistanceMeters>
          </Trackpoint>
          <Trackpoint>
            <Time>2021-08-10T08:27:41.000Z</Time>
            <Position>
              <LatitudeDegrees>43.0944016389548778533935546875</LatitudeDegrees>
              <LongitudeDegrees>-1.73294381238520145416259765625</LongitudeDegrees>
            </Position>
            <AltitudeMeters>463</AltitudeMeters>
            <DistanceMeters>NAN</DistanceMeters>
          </Trackpoint>
          <Trackpoint>
            <Time>2021-08-10T08:27:42.000Z</Time>
            <Position>
              <LatitudeDegrees>43.09438948519527912139892578125</LatitudeDegrees>
              <LongitudeDegrees>-1.73289704136550426483154296875</LongitudeDegrees>
            </Position>
            <AltitudeMeters>463</AltitudeMeters>
            <DistanceMeters>NAN</DistanceMeters>
          </Trackpoint>
          <Trackpoint>
            <Time>2021-08-10T08:27:43.000Z</Time>
            <Position>
              <LatitudeDegrees>43.09437741525471210479736328125</LatitudeDegrees>
              <LongitudeDegrees>-1.73285479657351970672607421875</LongitudeDegrees>
            </Position>
            <AltitudeMeters>463</AltitudeMeters>
            <DistanceMeters>NAN</DistanceMeters>
          </Trackpoint>
          <Trackpoint>
            <Time>2021-08-10T08:27:44.000Z</Time>
            <Position>
              <LatitudeDegrees>43.09436400420963764190673828125</LatitudeDegrees>
              <LongitudeDegrees>-1.7328138090670108795166015625</LongitudeDegrees>
            </Position>
            <AltitudeMeters>462.79998779296875</AltitudeMeters>
            <DistanceMeters>NAN</DistanceMeters>
          </Trackpoint>
          <Trackpoint>
            <Time>2021-08-10T08:27:45.000Z</Time>
            <Position>
              <LatitudeDegrees>43.094349838793277740478515625</LatitudeDegrees>
              <LongitudeDegrees>-1.73277399502694606781005859375</LongitudeDegrees>
            </Position>
            <AltitudeMeters>462.79998779296875</AltitudeMeters>
            <DistanceMeters>NAN</DistanceMeters>
          </Trackpoint>
          <Trackpoint>
            <Time>2021-08-10T08:27:46.000Z</Time>
            <Position>
              <LatitudeDegrees>43.094337098300457000732421875</LatitudeDegrees>
              <LongitudeDegrees>-1.7327303253114223480224609375</LongitudeDegrees>
            </Position>
            <AltitudeMeters>462.79998779296875</AltitudeMeters>
            <DistanceMeters>NAN</DistanceMeters>
          </Trackpoint>
          <Trackpoint>
            <Time>2021-08-10T08:27:49.000Z</Time>
            <Position>
              <LatitudeDegrees>43.09429611079394817352294921875</LatitudeDegrees>
              <LongitudeDegrees>-1.7326146550476551055908203125</LongitudeDegrees>
            </Position>
            <AltitudeMeters>462.79998779296875</AltitudeMeters>
            <DistanceMeters>NAN</DistanceMeters>
          </Trackpoint>
          <Trackpoint>
            <Time>2021-08-10T08:27:50.000Z</Time>
            <Position>
              <LatitudeDegrees>43.094285465776920318603515625</LatitudeDegrees>
              <LongitudeDegrees>-1.73257450573146343231201171875</LongitudeDegrees>
            </Position>
            <AltitudeMeters>462.600006103515625</AltitudeMeters>
            <DistanceMeters>NAN</DistanceMeters>
          </Trackpoint>
          <Trackpoint>
            <Time>2021-08-10T08:27:52.000Z</Time>
            <Position>
              <LatitudeDegrees>43.09427381493151187896728515625</LatitudeDegrees>
              <LongitudeDegrees>-1.73247224651277065277099609375</LongitudeDegrees>
            </Position>
            <AltitudeMeters>462.600006103515625</AltitudeMeters>
            <DistanceMeters>NAN</DistanceMeters>
          </Trackpoint>
          <Trackpoint>
            <Time>2021-08-10T08:27:53.000Z</Time>
            <Position>
              <LatitudeDegrees>43.09427431784570217132568359375</LatitudeDegrees>
              <LongitudeDegrees>-1.732412315905094146728515625</LongitudeDegrees>
            </Position>
            <AltitudeMeters>462.600006103515625</AltitudeMeters>
            <DistanceMeters>NAN</DistanceMeters>
          </Trackpoint>
          <Trackpoint>
            <Time>2021-08-10T08:27:54.000Z</Time>
            <Position>
              <LatitudeDegrees>43.094276748597621917724609375</LatitudeDegrees>
              <LongitudeDegrees>-1.73235154710710048675537109375</LongitudeDegrees>
            </Position>
            <AltitudeMeters>462.600006103515625</AltitudeMeters>
            <DistanceMeters>NAN</DistanceMeters>
          </Trackpoint>
          <Trackpoint>
            <Time>2021-08-10T08:27:55.000Z</Time>
            <Position>
              <LatitudeDegrees>43.094281442463397979736328125</LatitudeDegrees>
              <LongitudeDegrees>-1.73228935338556766510009765625</LongitudeDegrees>
            </Position>
            <AltitudeMeters>462.600006103515625</AltitudeMeters>
            <DistanceMeters>NAN</DistanceMeters>
          </Trackpoint>
          <Trackpoint>
            <Time>2021-08-10T08:27:57.000Z</Time>
            <Position>
              <LatitudeDegrees>43.0942956916987895965576171875</LatitudeDegrees>
              <LongitudeDegrees>-1.732177622616291046142578125</LongitudeDegrees>
            </Position>
            <AltitudeMeters>462.600006103515625</AltitudeMeters>
            <DistanceMeters>NAN</DistanceMeters>
          </Trackpoint>
          <Trackpoint>
            <Time>2021-08-10T08:27:58.000Z</Time>
            <Position>
              <LatitudeDegrees>43.09430248104035854339599609375</LatitudeDegrees>
              <LongitudeDegrees>-1.73212640918791294097900390625</LongitudeDegrees>
            </Position>
            <AltitudeMeters>462.399993896484375</AltitudeMeters>
            <DistanceMeters>NAN</DistanceMeters>
          </Trackpoint>
          <Trackpoint>
            <Time>2021-08-10T08:27:59.000Z</Time>
            <Position>
              <LatitudeDegrees>43.09431237168610095977783203125</LatitudeDegrees>
              <LongitudeDegrees>-1.7320738546550273895263671875</LongitudeDegrees>
            </Position>
            <AltitudeMeters>462.399993896484375</AltitudeMeters>
            <DistanceMeters>NAN</DistanceMeters>
          </Trackpoint>
          <Trackpoint>
            <Time>2021-08-10T08:28:00.000Z</Time>
            <Position>
              <LatitudeDegrees>43.09432427398860454559326171875</LatitudeDegrees>
              <LongitudeDegrees>-1.7320202104747295379638671875</LongitudeDegrees>
            </Position>
            <AltitudeMeters>462.399993896484375</AltitudeMeters>
            <DistanceMeters>NAN</DistanceMeters>
          </Trackpoint>
          <Trackpoint>
            <Time>2021-08-10T08:28:04.000Z</Time>
            <Position>
              <LatitudeDegrees>43.0943830311298370361328125</LatitudeDegrees>
              <LongitudeDegrees>-1.73181041143834590911865234375</LongitudeDegrees>
            </Position>
            <AltitudeMeters>462.600006103515625</AltitudeMeters>
            <DistanceMeters>NAN</DistanceMeters>
          </Trackpoint>
          <Trackpoint>
            <Time>2021-08-10T08:28:05.000Z</Time>
            <Position>
              <LatitudeDegrees>43.09440155513584613800048828125</LatitudeDegrees>
              <LongitudeDegrees>-1.731757856905460357666015625</LongitudeDegrees>
            </Position>
            <AltitudeMeters>462.600006103515625</AltitudeMeters>
            <DistanceMeters>NAN</DistanceMeters>
          </Trackpoint>
          <Trackpoint>
            <Time>2021-08-10T08:28:06.000Z</Time>
            <Position>
              <LatitudeDegrees>43.09442125260829925537109375</LatitudeDegrees>
              <LongitudeDegrees>-1.73170723021030426025390625</LongitudeDegrees>
            </Position>
            <AltitudeMeters>462.600006103515625</AltitudeMeters>
            <DistanceMeters>NAN</DistanceMeters>
          </Trackpoint>
          <Trackpoint>
            <Time>2021-08-10T08:28:07.000Z</Time>
            <Position>
              <LatitudeDegrees>43.09443810023367404937744140625</LatitudeDegrees>
              <LongitudeDegrees>-1.73166272230446338653564453125</LongitudeDegrees>
            </Position>
            <AltitudeMeters>462.600006103515625</AltitudeMeters>
            <DistanceMeters>NAN</DistanceMeters>
          </Trackpoint>
          <Trackpoint>
            <Time>2021-08-10T08:28:08.000Z</Time>
            <Position>
              <LatitudeDegrees>43.09445855207741260528564453125</LatitudeDegrees>
              <LongitudeDegrees>-1.731615699827671051025390625</LongitudeDegrees>
            </Position>
            <AltitudeMeters>462.79998779296875</AltitudeMeters>
            <DistanceMeters>NAN</DistanceMeters>
          </Trackpoint>
          <Trackpoint>
            <Time>2021-08-10T08:28:11.000Z</Time>
            <Position>
              <LatitudeDegrees>43.0945230089128017425537109375</LatitudeDegrees>
              <LongitudeDegrees>-1.7314794100821018218994140625</LongitudeDegrees>
            </Position>
            <AltitudeMeters>463</AltitudeMeters>
            <DistanceMeters>NAN</DistanceMeters>
          </Trackpoint>
          <Trackpoint>
            <Time>2021-08-10T08:28:12.000Z</Time>
            <Position>
              <LatitudeDegrees>43.09454555623233318328857421875</LatitudeDegrees>
              <LongitudeDegrees>-1.73143674619495868682861328125</LongitudeDegrees>
            </Position>
            <AltitudeMeters>463</AltitudeMeters>
            <DistanceMeters>NAN</DistanceMeters>
          </Trackpoint>
          <Trackpoint>
            <Time>2021-08-10T08:28:16.000Z</Time>
            <Position>
              <LatitudeDegrees>43.09463088400661945343017578125</LatitudeDegrees>
              <LongitudeDegrees>-1.73125837929546833038330078125</LongitudeDegrees>
            </Position>
            <AltitudeMeters>463.20001220703125</AltitudeMeters>
            <DistanceMeters>NAN</DistanceMeters>
          </Trackpoint>
          <Trackpoint>
            <Time>2021-08-10T08:28:17.000Z</Time>
            <Position>
              <LatitudeDegrees>43.0946485698223114013671875</LatitudeDegrees>
              <LongitudeDegrees>-1.73121613450348377227783203125</LongitudeDegrees>
            </Position>
            <AltitudeMeters>463.20001220703125</AltitudeMeters>
            <DistanceMeters>NAN</DistanceMeters>
          </Trackpoint>
          <Trackpoint>
            <Time>2021-08-10T08:28:25.000Z</Time>
            <Position>
              <LatitudeDegrees>43.09478745795786380767822265625</LatitudeDegrees>
              <LongitudeDegrees>-1.73084221780300140380859375</LongitudeDegrees>
            </Position>
            <AltitudeMeters>463.600006103515625</AltitudeMeters>
            <DistanceMeters>NAN</DistanceMeters>
          </Trackpoint>
          <Trackpoint>
            <Time>2021-08-10T08:28:29.000Z</Time>
            <Position>
              <LatitudeDegrees>43.09483674354851245880126953125</LatitudeDegrees>
              <LongitudeDegrees>-1.73063761554658412933349609375</LongitudeDegrees>
            </Position>
            <AltitudeMeters>463.600006103515625</AltitudeMeters>
            <DistanceMeters>NAN</DistanceMeters>
          </Trackpoint>
          <Trackpoint>
            <Time>2021-08-10T08:28:30.000Z</Time>
            <Position>
              <LatitudeDegrees>43.09485149569809436798095703125</LatitudeDegrees>
              <LongitudeDegrees>-1.730587072670459747314453125</LongitudeDegrees>
            </Position>
            <AltitudeMeters>463.600006103515625</AltitudeMeters>
            <DistanceMeters>NAN</DistanceMeters>
          </Trackpoint>
          <Trackpoint>
            <Time>2021-08-10T08:28:31.000Z</Time>
            <Position>
              <LatitudeDegrees>43.09486306272447109222412109375</LatitudeDegrees>
              <LongitudeDegrees>-1.7305406369268894195556640625</LongitudeDegrees>
            </Position>
            <AltitudeMeters>463.600006103515625</AltitudeMeters>
            <DistanceMeters>NAN</DistanceMeters>
          </Trackpoint>
          <Trackpoint>
            <Time>2021-08-10T08:28:32.000Z</Time>
            <Position>
              <LatitudeDegrees>43.09487186372280120849609375</LatitudeDegrees>
              <LongitudeDegrees>-1.73049755394458770751953125</LongitudeDegrees>
            </Position>
            <AltitudeMeters>463.600006103515625</AltitudeMeters>
            <DistanceMeters>NAN</DistanceMeters>
          </Trackpoint>
          <Trackpoint>
            <Time>2021-08-10T08:28:33.000Z</Time>
            <Position>
              <LatitudeDegrees>43.09487747959792613983154296875</LatitudeDegrees>
              <LongitudeDegrees>-1.73045572824776172637939453125</LongitudeDegrees>
            </Position>
            <AltitudeMeters>463.600006103515625</AltitudeMeters>
            <DistanceMeters>NAN</DistanceMeters>
          </Trackpoint>
          <Trackpoint>
            <Time>2021-08-10T08:28:34.000Z</Time>
            <Position>
              <LatitudeDegrees>43.09488259255886077880859375</LatitudeDegrees>
              <LongitudeDegrees>-1.730411387979984283447265625</LongitudeDegrees>
            </Position>
            <AltitudeMeters>463.79998779296875</AltitudeMeters>
            <DistanceMeters>NAN</DistanceMeters>
          </Trackpoint>
          <Trackpoint>
            <Time>2021-08-10T08:28:35.000Z</Time>
            <Position>
              <LatitudeDegrees>43.09488636441528797149658203125</LatitudeDegrees>
              <LongitudeDegrees>-1.73036587424576282501220703125</LongitudeDegrees>
            </Position>
            <AltitudeMeters>463.79998779296875</AltitudeMeters>
            <DistanceMeters>NAN</DistanceMeters>
          </Trackpoint>
          <Trackpoint>
            <Time>2021-08-10T08:28:38.000Z</Time>
            <Position>
              <LatitudeDegrees>43.09490396641194820404052734375</LatitudeDegrees>
              <LongitudeDegrees>-1.73022271133959293365478515625</LongitudeDegrees>
            </Position>
            <AltitudeMeters>463.79998779296875</AltitudeMeters>
            <DistanceMeters>NAN</DistanceMeters>
          </Trackpoint>
          <Trackpoint>
            <Time>2021-08-10T08:28:42.000Z</Time>
            <Position>
              <LatitudeDegrees>43.09492014348506927490234375</LatitudeDegrees>
              <LongitudeDegrees>-1.73000629059970378875732421875</LongitudeDegrees>
            </Position>
            <AltitudeMeters>463.79998779296875</AltitudeMeters>
            <DistanceMeters>NAN</DistanceMeters>
          </Trackpoint>
          <Trackpoint>
            <Time>2021-08-10T08:28:47.000Z</Time>
            <Position>
              <LatitudeDegrees>43.09496280737221240997314453125</LatitudeDegrees>
              <LongitudeDegrees>-1.729752905666828155517578125</LongitudeDegrees>
            </Position>
            <AltitudeMeters>463.79998779296875</AltitudeMeters>
            <DistanceMeters>NAN</DistanceMeters>
          </Trackpoint>
          <Trackpoint>
            <Time>2021-08-10T08:28:48.000Z</Time>
            <Position>
              <LatitudeDegrees>43.09498527087271213531494140625</LatitudeDegrees>
              <LongitudeDegrees>-1.72971107997000217437744140625</LongitudeDegrees>
            </Position>
            <AltitudeMeters>463.79998779296875</AltitudeMeters>
            <DistanceMeters>NAN</DistanceMeters>
          </Trackpoint>
          <Trackpoint>
            <Time>2021-08-10T08:28:54.000Z</Time>
            <Position>
              <LatitudeDegrees>43.09504260309040546417236328125</LatitudeDegrees>
              <LongitudeDegrees>-1.7294379137456417083740234375</LongitudeDegrees>
            </Position>
            <AltitudeMeters>463.79998779296875</AltitudeMeters>
            <DistanceMeters>NAN</DistanceMeters>
          </Trackpoint>
          <Trackpoint>
            <Time>2021-08-10T08:28:55.000Z</Time>
            <Position>
              <LatitudeDegrees>43.09505232609808444976806640625</LatitudeDegrees>
              <LongitudeDegrees>-1.72941033728420734405517578125</LongitudeDegrees>
            </Position>
            <AltitudeMeters>463.79998779296875</AltitudeMeters>
            <DistanceMeters>NAN</DistanceMeters>
          </Trackpoint>
          <Trackpoint>
            <Time>2021-08-10T08:28:56.000Z</Time>
            <Position>
              <LatitudeDegrees>43.09506607241928577423095703125</LatitudeDegrees>
              <LongitudeDegrees>-1.7293772287666797637939453125</LongitudeDegrees>
            </Position>
            <AltitudeMeters>463.79998779296875</AltitudeMeters>
            <DistanceMeters>NAN</DistanceMeters>
          </Trackpoint>
          <Trackpoint>
            <Time>2021-08-10T08:28:57.000Z</Time>
            <Position>
              <LatitudeDegrees>43.09508132748305797576904296875</LatitudeDegrees>
              <LongitudeDegrees>-1.72934898175299167633056640625</LongitudeDegrees>
            </Position>
            <AltitudeMeters>463.79998779296875</AltitudeMeters>
            <DistanceMeters>NAN</DistanceMeters>
          </Trackpoint>
          <Trackpoint>
            <Time>2021-08-10T08:28:58.000Z</Time>
            <Position>
              <LatitudeDegrees>43.09509356506168842315673828125</LatitudeDegrees>
              <LongitudeDegrees>-1.72932383604347705841064453125</LongitudeDegrees>
            </Position>
            <AltitudeMeters>463.79998779296875</AltitudeMeters>
            <DistanceMeters>NAN</DistanceMeters>
          </Trackpoint>
          <Trackpoint>
            <Time>2021-08-10T08:28:59.000Z</Time>
            <Position>
              <LatitudeDegrees>43.09510697610676288604736328125</LatitudeDegrees>
              <LongitudeDegrees>-1.72930757515132427215576171875</LongitudeDegrees>
            </Position>
            <AltitudeMeters>464</AltitudeMeters>
            <DistanceMeters>NAN</DistanceMeters>
          </Trackpoint>
          <Trackpoint>
            <Time>2021-08-10T08:29:00.000Z</Time>
            <Position>
              <LatitudeDegrees>43.09511016122996807098388671875</LatitudeDegrees>
              <LongitudeDegrees>-1.729307658970355987548828125</LongitudeDegrees>
            </Position>
            <AltitudeMeters>464</AltitudeMeters>
            <DistanceMeters>NAN</DistanceMeters>
          </Trackpoint>
          <Trackpoint>
            <Time>2021-08-10T08:29:04.000Z</Time>
            <Position>
              <LatitudeDegrees>43.095110245048999786376953125</LatitudeDegrees>
              <LongitudeDegrees>-1.729307658970355987548828125</LongitudeDegrees>
            </Position>
            <AltitudeMeters>464.20001220703125</AltitudeMeters>
            <DistanceMeters>NAN</DistanceMeters>
          </Trackpoint>
          <Trackpoint>
            <Time>2021-08-10T08:29:10.000Z</Time>
            <Position>
              <LatitudeDegrees>43.0950654856860637664794921875</LatitudeDegrees>
              <LongitudeDegrees>-1.72932383604347705841064453125</LongitudeDegrees>
            </Position>
            <AltitudeMeters>464</AltitudeMeters>
            <DistanceMeters>NAN</DistanceMeters>
          </Trackpoint>
          <Trackpoint>
            <Time>2021-08-10T08:29:11.000Z</Time>
            <Position>
              <LatitudeDegrees>43.0950621329247951507568359375</LatitudeDegrees>
              <LongitudeDegrees>-1.72932811081409454345703125</LongitudeDegrees>
            </Position>
            <AltitudeMeters>464</AltitudeMeters>
            <DistanceMeters>NAN</DistanceMeters>
          </Trackpoint>
          <Trackpoint>
            <Time>2021-08-10T08:29:16.000Z</Time>
            <Position>
              <LatitudeDegrees>43.0950621329247951507568359375</LatitudeDegrees>
              <LongitudeDegrees>-1.72932811081409454345703125</LongitudeDegrees>
            </Position>
            <AltitudeMeters>463.600006103515625</AltitudeMeters>
            <DistanceMeters>NAN</DistanceMeters>
          </Trackpoint>
          <Trackpoint>
            <Time>2021-08-10T08:29:42.000Z</Time>
            <Position>
              <LatitudeDegrees>43.0950621329247951507568359375</LatitudeDegrees>
              <LongitudeDegrees>-1.72932811081409454345703125</LongitudeDegrees>
            </Position>
            <AltitudeMeters>463.79998779296875</AltitudeMeters>
            <DistanceMeters>NAN</DistanceMeters>
          </Trackpoint>
          <Trackpoint>
            <Time>2021-08-10T08:30:24.000Z</Time>
            <Position>
              <LatitudeDegrees>43.09506121091544628143310546875</LatitudeDegrees>
              <LongitudeDegrees>-1.72930321656167507171630859375</LongitudeDegrees>
            </Position>
            <AltitudeMeters>463.600006103515625</AltitudeMeters>
            <DistanceMeters>NAN</DistanceMeters>
          </Trackpoint>
          <Trackpoint>
            <Time>2021-08-10T08:30:26.000Z</Time>
            <Position>
              <LatitudeDegrees>43.09507043100893497467041015625</LatitudeDegrees>
              <LongitudeDegrees>-1.7292297072708606719970703125</LongitudeDegrees>
            </Position>
            <AltitudeMeters>463.600006103515625</AltitudeMeters>
            <DistanceMeters>NAN</DistanceMeters>
          </Trackpoint>
          <Trackpoint>
            <Time>2021-08-10T08:30:27.000Z</Time>
            <Position>
              <LatitudeDegrees>43.095081746578216552734375</LatitudeDegrees>
              <LongitudeDegrees>-1.729183606803417205810546875</LongitudeDegrees>
            </Position>
            <AltitudeMeters>463.600006103515625</AltitudeMeters>
            <DistanceMeters>NAN</DistanceMeters>
          </Trackpoint>
          <Trackpoint>
            <Time>2021-08-10T08:30:28.000Z</Time>
            <Position>
              <LatitudeDegrees>43.09508769772946834564208984375</LatitudeDegrees>
              <LongitudeDegrees>-1.72914295457303524017333984375</LongitudeDegrees>
            </Position>
            <AltitudeMeters>463.600006103515625</AltitudeMeters>
            <DistanceMeters>NAN</DistanceMeters>
          </Trackpoint>
          <Trackpoint>
            <Time>2021-08-10T08:30:30.000Z</Time>
            <Position>
              <LatitudeDegrees>43.095104880630970001220703125</LatitudeDegrees>
              <LongitudeDegrees>-1.72906097956001758575439453125</LongitudeDegrees>
            </Position>
            <AltitudeMeters>463.79998779296875</AltitudeMeters>
            <DistanceMeters>NAN</DistanceMeters>
          </Trackpoint>
          <Trackpoint>
            <Time>2021-08-10T08:30:31.000Z</Time>
            <Position>
              <LatitudeDegrees>43.09510898776352405548095703125</LatitudeDegrees>
              <LongitudeDegrees>-1.729013286530971527099609375</LongitudeDegrees>
            </Position>
            <AltitudeMeters>463.79998779296875</AltitudeMeters>
            <DistanceMeters>NAN</DistanceMeters>
          </Trackpoint>
          <Trackpoint>
            <Time>2021-08-10T08:30:32.000Z</Time>
            <Position>
              <LatitudeDegrees>43.09511594474315643310546875</LatitudeDegrees>
              <LongitudeDegrees>-1.7289666831493377685546875</LongitudeDegrees>
            </Position>
            <AltitudeMeters>463.79998779296875</AltitudeMeters>
            <DistanceMeters>NAN</DistanceMeters>
          </Trackpoint>
          <Trackpoint>
            <Time>2021-08-10T08:30:36.000Z</Time>
            <Position>
              <LatitudeDegrees>43.0951608717441558837890625</LatitudeDegrees>
              <LongitudeDegrees>-1.72877348028123378753662109375</LongitudeDegrees>
            </Position>
            <AltitudeMeters>464</AltitudeMeters>
            <DistanceMeters>NAN</DistanceMeters>
          </Trackpoint>
          <Trackpoint>
            <Time>2021-08-10T08:30:37.000Z</Time>
            <Position>
              <LatitudeDegrees>43.09519196860492229461669921875</LatitudeDegrees>
              <LongitudeDegrees>-1.72871313057839870452880859375</LongitudeDegrees>
            </Position>
            <AltitudeMeters>464</AltitudeMeters>
            <DistanceMeters>NAN</DistanceMeters>
          </Trackpoint>
          <Trackpoint>
            <Time>2021-08-10T08:30:40.000Z</Time>
            <Position>
              <LatitudeDegrees>43.0952656455338001251220703125</LatitudeDegrees>
              <LongitudeDegrees>-1.7285393737256526947021484375</LongitudeDegrees>
            </Position>
            <AltitudeMeters>464</AltitudeMeters>
            <DistanceMeters>NAN</DistanceMeters>
          </Trackpoint>
          <Trackpoint>
            <Time>2021-08-10T08:30:42.000Z</Time>
            <Position>
              <LatitudeDegrees>43.095317445695400238037109375</LatitudeDegrees>
              <LongitudeDegrees>-1.72842110507190227508544921875</LongitudeDegrees>
            </Position>
            <AltitudeMeters>464</AltitudeMeters>
            <DistanceMeters>NAN</DistanceMeters>
          </Trackpoint>
          <Trackpoint>
            <Time>2021-08-10T08:30:46.000Z</Time>
            <Position>
              <LatitudeDegrees>43.09544895775616168975830078125</LatitudeDegrees>
              <LongitudeDegrees>-1.72817920334637165069580078125</LongitudeDegrees>
            </Position>
            <AltitudeMeters>463.79998779296875</AltitudeMeters>
            <DistanceMeters>NAN</DistanceMeters>
          </Trackpoint>
          <Trackpoint>
            <Time>2021-08-10T08:30:48.000Z</Time>
            <Position>
              <LatitudeDegrees>43.0955149233341217041015625</LatitudeDegrees>
              <LongitudeDegrees>-1.72805800102651119232177734375</LongitudeDegrees>
            </Position>
            <AltitudeMeters>463.600006103515625</AltitudeMeters>
            <DistanceMeters>NAN</DistanceMeters>
          </Trackpoint>
          <Trackpoint>
            <Time>2021-08-10T08:30:49.000Z</Time>
            <Position>
              <LatitudeDegrees>43.095542751252651214599609375</LatitudeDegrees>
              <LongitudeDegrees>-1.72800184227526187896728515625</LongitudeDegrees>
            </Position>
            <AltitudeMeters>463.600006103515625</AltitudeMeters>
            <DistanceMeters>NAN</DistanceMeters>
          </Trackpoint>
          <Trackpoint>
            <Time>2021-08-10T08:30:50.000Z</Time>
            <Position>
              <LatitudeDegrees>43.0955734290182590484619140625</LatitudeDegrees>
              <LongitudeDegrees>-1.72794182784855365753173828125</LongitudeDegrees>
            </Position>
            <AltitudeMeters>463.399993896484375</AltitudeMeters>
            <DistanceMeters>NAN</DistanceMeters>
          </Trackpoint>
          <Trackpoint>
            <Time>2021-08-10T08:30:53.000Z</Time>
            <Position>
              <LatitudeDegrees>43.09564677067101001739501953125</LatitudeDegrees>
              <LongitudeDegrees>-1.72778123058378696441650390625</LongitudeDegrees>
            </Position>
            <AltitudeMeters>463.20001220703125</AltitudeMeters>
            <DistanceMeters>NAN</DistanceMeters>
          </Trackpoint>
          <Trackpoint>
            <Time>2021-08-10T08:30:57.000Z</Time>
            <Position>
              <LatitudeDegrees>43.09574685059487819671630859375</LatitudeDegrees>
              <LongitudeDegrees>-1.72753916122019290924072265625</LongitudeDegrees>
            </Position>
            <AltitudeMeters>462.79998779296875</AltitudeMeters>
            <DistanceMeters>NAN</DistanceMeters>
          </Trackpoint>
          <Trackpoint>
            <Time>2021-08-10T08:31:00.000Z</Time>
            <Position>
              <LatitudeDegrees>43.09580401517450809478759765625</LatitudeDegrees>
              <LongitudeDegrees>-1.727321483194828033447265625</LongitudeDegrees>
            </Position>
            <AltitudeMeters>462.399993896484375</AltitudeMeters>
            <DistanceMeters>NAN</DistanceMeters>
          </Trackpoint>
          <Trackpoint>
            <Time>2021-08-10T08:31:02.000Z</Time>
            <Position>
              <LatitudeDegrees>43.09583888389170169830322265625</LatitudeDegrees>
              <LongitudeDegrees>-1.72715242020785808563232421875</LongitudeDegrees>
            </Position>
            <AltitudeMeters>462.20001220703125</AltitudeMeters>
            <DistanceMeters>NAN</DistanceMeters>
          </Trackpoint>
          <Trackpoint>
            <Time>2021-08-10T08:31:03.000Z</Time>
            <Position>
              <LatitudeDegrees>43.09585548005998134613037109375</LatitudeDegrees>
              <LongitudeDegrees>-1.7270661704242229461669921875</LongitudeDegrees>
            </Position>
            <AltitudeMeters>462.20001220703125</AltitudeMeters>
            <DistanceMeters>NAN</DistanceMeters>
          </Trackpoint>
          <Trackpoint>
            <Time>2021-08-10T08:31:04.000Z</Time>
            <Position>
              <LatitudeDegrees>43.0958792008459568023681640625</LatitudeDegrees>
              <LongitudeDegrees>-1.72698260284960269927978515625</LongitudeDegrees>
            </Position>
            <AltitudeMeters>462</AltitudeMeters>
            <DistanceMeters>NAN</DistanceMeters>
          </Trackpoint>
          <Trackpoint>
            <Time>2021-08-10T08:31:05.000Z</Time>
            <Position>
              <LatitudeDegrees>43.0959053523838520050048828125</LatitudeDegrees>
              <LongitudeDegrees>-1.7268985323607921600341796875</LongitudeDegrees>
            </Position>
            <AltitudeMeters>461.79998779296875</AltitudeMeters>
            <DistanceMeters>NAN</DistanceMeters>
          </Trackpoint>
          <Trackpoint>
            <Time>2021-08-10T08:31:09.000Z</Time>
            <Position>
              <LatitudeDegrees>43.09602043591439723968505859375</LatitudeDegrees>
              <LongitudeDegrees>-1.7265714704990386962890625</LongitudeDegrees>
            </Position>
            <AltitudeMeters>461.20001220703125</AltitudeMeters>
            <DistanceMeters>NAN</DistanceMeters>
          </Trackpoint>
          <Trackpoint>
            <Time>2021-08-10T08:31:10.000Z</Time>
            <Position>
              <LatitudeDegrees>43.0960528738796710968017578125</LatitudeDegrees>
              <LongitudeDegrees>-1.726487986743450164794921875</LongitudeDegrees>
            </Position>
            <AltitudeMeters>461</AltitudeMeters>
            <DistanceMeters>NAN</DistanceMeters>
          </Trackpoint>
          <Trackpoint>
            <Time>2021-08-10T08:31:12.000Z</Time>
            <Position>
              <LatitudeDegrees>43.09611330740153789520263671875</LatitudeDegrees>
              <LongitudeDegrees>-1.72632344998419284820556640625</LongitudeDegrees>
            </Position>
            <AltitudeMeters>460.600006103515625</AltitudeMeters>
            <DistanceMeters>NAN</DistanceMeters>
          </Trackpoint>
          <Trackpoint>
            <Time>2021-08-10T08:31:14.000Z</Time>
            <Position>
              <LatitudeDegrees>43.0961484275758266448974609375</LatitudeDegrees>
              <LongitudeDegrees>-1.7261476814746856689453125</LongitudeDegrees>
            </Position>
            <AltitudeMeters>460.20001220703125</AltitudeMeters>
            <DistanceMeters>NAN</DistanceMeters>
          </Trackpoint>
          <Trackpoint>
            <Time>2021-08-10T08:31:15.000Z</Time>
            <Position>
              <LatitudeDegrees>43.0961507745087146759033203125</LatitudeDegrees>
              <LongitudeDegrees>-1.726059503853321075439453125</LongitudeDegrees>
            </Position>
            <AltitudeMeters>460.20001220703125</AltitudeMeters>
            <DistanceMeters>NAN</DistanceMeters>
          </Trackpoint>
          <Trackpoint>
            <Time>2021-08-10T08:31:16.000Z</Time>
            <Position>
              <LatitudeDegrees>43.0961430631577968597412109375</LatitudeDegrees>
              <LongitudeDegrees>-1.725972332060337066650390625</LongitudeDegrees>
            </Position>
            <AltitudeMeters>460</AltitudeMeters>
            <DistanceMeters>NAN</DistanceMeters>
          </Trackpoint>
          <Trackpoint>
            <Time>2021-08-10T08:31:17.000Z</Time>
            <Position>
              <LatitudeDegrees>43.0961326695978641510009765625</LatitudeDegrees>
              <LongitudeDegrees>-1.72589044086635112762451171875</LongitudeDegrees>
            </Position>
            <AltitudeMeters>460</AltitudeMeters>
            <DistanceMeters>NAN</DistanceMeters>
          </Trackpoint>
          <Trackpoint>
            <Time>2021-08-10T08:31:18.000Z</Time>
            <Position>
              <LatitudeDegrees>43.09612085111439228057861328125</LatitudeDegrees>
              <LongitudeDegrees>-1.72581047751009464263916015625</LongitudeDegrees>
            </Position>
            <AltitudeMeters>459.79998779296875</AltitudeMeters>
            <DistanceMeters>NAN</DistanceMeters>
          </Trackpoint>
          <Trackpoint>
            <Time>2021-08-10T08:31:19.000Z</Time>
            <Position>
              <LatitudeDegrees>43.09610526077449321746826171875</LatitudeDegrees>
              <LongitudeDegrees>-1.7257394827902317047119140625</LongitudeDegrees>
            </Position>
            <AltitudeMeters>459.600006103515625</AltitudeMeters>
            <DistanceMeters>NAN</DistanceMeters>
          </Trackpoint>
          <Trackpoint>
            <Time>2021-08-10T08:31:20.000Z</Time>
            <Position>
              <LatitudeDegrees>43.09608556330204010009765625</LatitudeDegrees>
              <LongitudeDegrees>-1.725667901337146759033203125</LongitudeDegrees>
            </Position>
            <AltitudeMeters>459.399993896484375</AltitudeMeters>
            <DistanceMeters>NAN</DistanceMeters>
          </Trackpoint>
          <Trackpoint>
            <Time>2021-08-10T08:31:21.000Z</Time>
            <Position>
              <LatitudeDegrees>43.096074163913726806640625</LatitudeDegrees>
              <LongitudeDegrees>-1.725588105618953704833984375</LongitudeDegrees>
            </Position>
            <AltitudeMeters>459.20001220703125</AltitudeMeters>
            <DistanceMeters>NAN</DistanceMeters>
          </Trackpoint>
          <Trackpoint>
            <Time>2021-08-10T08:31:22.000Z</Time>
            <Position>
              <LatitudeDegrees>43.0960835516452789306640625</LatitudeDegrees>
              <LongitudeDegrees>-1.72550537623465061187744140625</LongitudeDegrees>
            </Position>
            <AltitudeMeters>459</AltitudeMeters>
            <DistanceMeters>NAN</DistanceMeters>
          </Trackpoint>
          <Trackpoint>
            <Time>2021-08-10T08:31:23.000Z</Time>
            <Position>
              <LatitudeDegrees>43.0961159057915210723876953125</LatitudeDegrees>
              <LongitudeDegrees>-1.7254296876490116119384765625</LongitudeDegrees>
            </Position>
            <AltitudeMeters>458.600006103515625</AltitudeMeters>
            <DistanceMeters>NAN</DistanceMeters>
          </Trackpoint>
          <Trackpoint>
            <Time>2021-08-10T08:31:25.000Z</Time>
            <Position>
              <LatitudeDegrees>43.0962151475250720977783203125</LatitudeDegrees>
              <LongitudeDegrees>-1.72531745396554470062255859375</LongitudeDegrees>
            </Position>
            <AltitudeMeters>458.20001220703125</AltitudeMeters>
            <DistanceMeters>NAN</DistanceMeters>
          </Trackpoint>
          <Trackpoint>
            <Time>2021-08-10T08:31:26.000Z</Time>
            <Position>
              <LatitudeDegrees>43.09625932015478610992431640625</LatitudeDegrees>
              <LongitudeDegrees>-1.72529348172247409820556640625</LongitudeDegrees>
            </Position>
            <AltitudeMeters>458</AltitudeMeters>
            <DistanceMeters>NAN</DistanceMeters>
          </Trackpoint>
          <Trackpoint>
            <Time>2021-08-10T08:31:27.000Z</Time>
            <Position>
              <LatitudeDegrees>43.0963241122663021087646484375</LatitudeDegrees>
              <LongitudeDegrees>-1.72526582144200801849365234375</LongitudeDegrees>
            </Position>
            <AltitudeMeters>457.79998779296875</AltitudeMeters>
            <DistanceMeters>NAN</DistanceMeters>
          </Trackpoint>
          <Trackpoint>
            <Time>2021-08-10T08:31:28.000Z</Time>
            <Position>
              <LatitudeDegrees>43.09638370759785175323486328125</LatitudeDegrees>
              <LongitudeDegrees>-1.7252399213612079620361328125</LongitudeDegrees>
            </Position>
            <AltitudeMeters>457.600006103515625</AltitudeMeters>
            <DistanceMeters>NAN</DistanceMeters>
          </Trackpoint>
          <Trackpoint>
            <Time>2021-08-10T08:31:29.000Z</Time>
            <Position>
              <LatitudeDegrees>43.09644573368132114410400390625</LatitudeDegrees>
              <LongitudeDegrees>-1.725209243595600128173828125</LongitudeDegrees>
            </Position>
            <AltitudeMeters>457.399993896484375</AltitudeMeters>
            <DistanceMeters>NAN</DistanceMeters>
          </Trackpoint>
          <Trackpoint>
            <Time>2021-08-10T08:31:30.000Z</Time>
            <Position>
              <LatitudeDegrees>43.0965101905167102813720703125</LatitudeDegrees>
              <LongitudeDegrees>-1.72516959719359874725341796875</LongitudeDegrees>
            </Position>
            <AltitudeMeters>457</AltitudeMeters>
            <DistanceMeters>NAN</DistanceMeters>
          </Trackpoint>
          <Trackpoint>
            <Time>2021-08-10T08:31:31.000Z</Time>
            <Position>
              <LatitudeDegrees>43.096572719514369964599609375</LatitudeDegrees>
              <LongitudeDegrees>-1.72511947341263294219970703125</LongitudeDegrees>
            </Position>
            <AltitudeMeters>456.600006103515625</AltitudeMeters>
            <DistanceMeters>NAN</DistanceMeters>
          </Trackpoint>
          <Trackpoint>
            <Time>2021-08-10T08:31:32.000Z</Time>
            <Position>
              <LatitudeDegrees>43.0966355837881565093994140625</LatitudeDegrees>
              <LongitudeDegrees>-1.72505828551948070526123046875</LongitudeDegrees>
            </Position>
            <AltitudeMeters>456.20001220703125</AltitudeMeters>
            <DistanceMeters>NAN</DistanceMeters>
          </Trackpoint>
          <Trackpoint>
            <Time>2021-08-10T08:31:33.000Z</Time>
            <Position>
              <LatitudeDegrees>43.0966885574162006378173828125</LatitudeDegrees>
              <LongitudeDegrees>-1.72498988918960094451904296875</LongitudeDegrees>
            </Position>
            <AltitudeMeters>455.79998779296875</AltitudeMeters>
            <DistanceMeters>NAN</DistanceMeters>
          </Trackpoint>
          <Trackpoint>
            <Time>2021-08-10T08:31:36.000Z</Time>
            <Position>
              <LatitudeDegrees>43.0968112684786319732666015625</LatitudeDegrees>
              <LongitudeDegrees>-1.72477883286774158477783203125</LongitudeDegrees>
            </Position>
            <AltitudeMeters>455.20001220703125</AltitudeMeters>
            <DistanceMeters>NAN</DistanceMeters>
          </Trackpoint>
          <Trackpoint>
            <Time>2021-08-10T08:31:37.000Z</Time>
            <Position>
              <LatitudeDegrees>43.09683716855943202972412109375</LatitudeDegrees>
              <LongitudeDegrees>-1.724719069898128509521484375</LongitudeDegrees>
            </Position>
            <AltitudeMeters>454.79998779296875</AltitudeMeters>
            <DistanceMeters>NAN</DistanceMeters>
          </Trackpoint>
          <Trackpoint>
            <Time>2021-08-10T08:31:38.000Z</Time>
            <Position>
              <LatitudeDegrees>43.09686382301151752471923828125</LatitudeDegrees>
              <LongitudeDegrees>-1.72466198913753032684326171875</LongitudeDegrees>
            </Position>
            <AltitudeMeters>454.399993896484375</AltitudeMeters>
            <DistanceMeters>NAN</DistanceMeters>
          </Trackpoint>
          <Trackpoint>
            <Time>2021-08-10T08:31:39.000Z</Time>
            <Position>
              <LatitudeDegrees>43.09689098037779331207275390625</LatitudeDegrees>
              <LongitudeDegrees>-1.72460901550948619842529296875</LongitudeDegrees>
            </Position>
            <AltitudeMeters>454.20001220703125</AltitudeMeters>
            <DistanceMeters>NAN</DistanceMeters>
          </Trackpoint>
          <Trackpoint>
            <Time>2021-08-10T08:31:40.000Z</Time>
            <Position>
              <LatitudeDegrees>43.09691126458346843719482421875</LatitudeDegrees>
              <LongitudeDegrees>-1.7245609872043132781982421875</LongitudeDegrees>
            </Position>
            <AltitudeMeters>453.79998779296875</AltitudeMeters>
            <DistanceMeters>NAN</DistanceMeters>
          </Trackpoint>
          <Trackpoint>
            <Time>2021-08-10T08:31:42.000Z</Time>
            <Position>
              <LatitudeDegrees>43.09695853851735591888427734375</LatitudeDegrees>
              <LongitudeDegrees>-1.7244248650968074798583984375</LongitudeDegrees>
            </Position>
            <AltitudeMeters>453.20001220703125</AltitudeMeters>
            <DistanceMeters>NAN</DistanceMeters>
          </Trackpoint>
          <Trackpoint>
            <Time>2021-08-10T08:31:44.000Z</Time>
            <Position>
              <LatitudeDegrees>43.096996843814849853515625</LatitudeDegrees>
              <LongitudeDegrees>-1.7242927663028240203857421875</LongitudeDegrees>
            </Position>
            <AltitudeMeters>452.79998779296875</AltitudeMeters>
            <DistanceMeters>NAN</DistanceMeters>
          </Trackpoint>
          <Trackpoint>
            <Time>2021-08-10T08:31:46.000Z</Time>
            <Position>
              <LatitudeDegrees>43.09700866229832172393798828125</LatitudeDegrees>
              <LongitudeDegrees>-1.7241636849939823150634765625</LongitudeDegrees>
            </Position>
            <AltitudeMeters>452.600006103515625</AltitudeMeters>
            <DistanceMeters>NAN</DistanceMeters>
          </Trackpoint>
          <Trackpoint>
            <Time>2021-08-10T08:31:47.000Z</Time>
            <Position>
              <LatitudeDegrees>43.0970037169754505157470703125</LatitudeDegrees>
              <LongitudeDegrees>-1.72408564947545528411865234375</LongitudeDegrees>
            </Position>
            <AltitudeMeters>452.399993896484375</AltitudeMeters>
            <DistanceMeters>NAN</DistanceMeters>
          </Trackpoint>
          <Trackpoint>
            <Time>2021-08-10T08:31:48.000Z</Time>
            <Position>
              <LatitudeDegrees>43.09698904864490032196044921875</LatitudeDegrees>
              <LongitudeDegrees>-1.72399344854056835174560546875</LongitudeDegrees>
            </Position>
            <AltitudeMeters>452.20001220703125</AltitudeMeters>
            <DistanceMeters>NAN</DistanceMeters>
          </Trackpoint>
          <Trackpoint>
            <Time>2021-08-10T08:31:49.000Z</Time>
            <Position>
              <LatitudeDegrees>43.09696457348763942718505859375</LatitudeDegrees>
              <LongitudeDegrees>-1.72391633503139019012451171875</LongitudeDegrees>
            </Position>
            <AltitudeMeters>452</AltitudeMeters>
            <DistanceMeters>NAN</DistanceMeters>
          </Trackpoint>
          <Trackpoint>
            <Time>2021-08-10T08:31:50.000Z</Time>
            <Position>
              <LatitudeDegrees>43.09693339280784130096435546875</LatitudeDegrees>
              <LongitudeDegrees>-1.72383871860802173614501953125</LongitudeDegrees>
            </Position>
            <AltitudeMeters>451.79998779296875</AltitudeMeters>
            <DistanceMeters>NAN</DistanceMeters>
          </Trackpoint>
          <Trackpoint>
            <Time>2021-08-10T08:31:51.000Z</Time>
            <Position>
              <LatitudeDegrees>43.0968987755477428436279296875</LatitudeDegrees>
              <LongitudeDegrees>-1.723765544593334197998046875</LongitudeDegrees>
            </Position>
            <AltitudeMeters>451.600006103515625</AltitudeMeters>
            <DistanceMeters>NAN</DistanceMeters>
          </Trackpoint>
          <Trackpoint>
            <Time>2021-08-10T08:31:53.000Z</Time>
            <Position>
              <LatitudeDegrees>43.096821494400501251220703125</LatitudeDegrees>
              <LongitudeDegrees>-1.72361425124108791351318359375</LongitudeDegrees>
            </Position>
            <AltitudeMeters>451</AltitudeMeters>
            <DistanceMeters>NAN</DistanceMeters>
          </Trackpoint>
          <Trackpoint>
            <Time>2021-08-10T08:31:54.000Z</Time>
            <Position>
              <LatitudeDegrees>43.09677916578948497772216796875</LatitudeDegrees>
              <LongitudeDegrees>-1.72353747300803661346435546875</LongitudeDegrees>
            </Position>
            <AltitudeMeters>450.600006103515625</AltitudeMeters>
            <DistanceMeters>NAN</DistanceMeters>
          </Trackpoint>
          <Trackpoint>
            <Time>2021-08-10T08:31:55.000Z</Time>
            <Position>
              <LatitudeDegrees>43.09673876501619815826416015625</LatitudeDegrees>
              <LongitudeDegrees>-1.7234602756798267364501953125</LongitudeDegrees>
            </Position>
            <AltitudeMeters>450.600006103515625</AltitudeMeters>
            <DistanceMeters>NAN</DistanceMeters>
          </Trackpoint>
          <Trackpoint>
            <Time>2021-08-10T08:31:57.000Z</Time>
            <Position>
              <LatitudeDegrees>43.0966684408485889434814453125</LatitudeDegrees>
              <LongitudeDegrees>-1.7233037017285823822021484375</LongitudeDegrees>
            </Position>
            <AltitudeMeters>450</AltitudeMeters>
            <DistanceMeters>NAN</DistanceMeters>
          </Trackpoint>
          <Trackpoint>
            <Time>2021-08-10T08:31:59.000Z</Time>
            <Position>
              <LatitudeDegrees>43.09661538340151309967041015625</LatitudeDegrees>
              <LongitudeDegrees>-1.72313497401773929595947265625</LongitudeDegrees>
            </Position>
            <AltitudeMeters>449</AltitudeMeters>
            <DistanceMeters>NAN</DistanceMeters>
          </Trackpoint>
          <Trackpoint>
            <Time>2021-08-10T08:32:00.000Z</Time>
            <Position>
              <LatitudeDegrees>43.09660331346094608306884765625</LatitudeDegrees>
              <LongitudeDegrees>-1.7230411805212497711181640625</LongitudeDegrees>
            </Position>
            <AltitudeMeters>448.79998779296875</AltitudeMeters>
            <DistanceMeters>NAN</DistanceMeters>
          </Trackpoint>
          <Trackpoint>
            <Time>2021-08-10T08:32:03.000Z</Time>
            <Position>
              <LatitudeDegrees>43.09656878001987934112548828125</LatitudeDegrees>
              <LongitudeDegrees>-1.72273389995098114013671875</LongitudeDegrees>
            </Position>
            <AltitudeMeters>447.600006103515625</AltitudeMeters>
            <DistanceMeters>NAN</DistanceMeters>
          </Trackpoint>
          <Trackpoint>
            <Time>2021-08-10T08:32:04.000Z</Time>
            <Position>
              <LatitudeDegrees>43.09655251912772655487060546875</LatitudeDegrees>
              <LongitudeDegrees>-1.72262451611459255218505859375</LongitudeDegrees>
            </Position>
            <AltitudeMeters>447</AltitudeMeters>
            <DistanceMeters>NAN</DistanceMeters>
          </Trackpoint>
          <Trackpoint>
            <Time>2021-08-10T08:32:05.000Z</Time>
            <Position>
              <LatitudeDegrees>43.09653080999851226806640625</LatitudeDegrees>
              <LongitudeDegrees>-1.722539104521274566650390625</LongitudeDegrees>
            </Position>
            <AltitudeMeters>446.79998779296875</AltitudeMeters>
            <DistanceMeters>NAN</DistanceMeters>
          </Trackpoint>
          <Trackpoint>
            <Time>2021-08-10T08:32:06.000Z</Time>
            <Position>
              <LatitudeDegrees>43.09649099595844745635986328125</LatitudeDegrees>
              <LongitudeDegrees>-1.72241547144949436187744140625</LongitudeDegrees>
            </Position>
            <AltitudeMeters>446.399993896484375</AltitudeMeters>
            <DistanceMeters>NAN</DistanceMeters>
          </Trackpoint>
          <Trackpoint>
            <Time>2021-08-10T08:32:07.000Z</Time>
            <Position>
              <LatitudeDegrees>43.09645160101354122161865234375</LatitudeDegrees>
              <LongitudeDegrees>-1.72231438569724559783935546875</LongitudeDegrees>
            </Position>
            <AltitudeMeters>446.20001220703125</AltitudeMeters>
            <DistanceMeters>NAN</DistanceMeters>
          </Trackpoint>
          <Trackpoint>
            <Time>2021-08-10T08:32:08.000Z</Time>
            <Position>
              <LatitudeDegrees>43.09640667401254177093505859375</LatitudeDegrees>
              <LongitudeDegrees>-1.7222153954207897186279296875</LongitudeDegrees>
            </Position>
            <AltitudeMeters>445.20001220703125</AltitudeMeters>
            <DistanceMeters>NAN</DistanceMeters>
          </Trackpoint>
          <Trackpoint>
            <Time>2021-08-10T08:32:10.000Z</Time>
            <Position>
              <LatitudeDegrees>43.09631824493408203125</LatitudeDegrees>
              <LongitudeDegrees>-1.7220132239162921905517578125</LongitudeDegrees>
            </Position>
            <AltitudeMeters>444.399993896484375</AltitudeMeters>
            <DistanceMeters>NAN</DistanceMeters>
          </Trackpoint>
          <Trackpoint>
            <Time>2021-08-10T08:32:11.000Z</Time>
            <Position>
              <LatitudeDegrees>43.09628630988299846649169921875</LatitudeDegrees>
              <LongitudeDegrees>-1.72190350480377674102783203125</LongitudeDegrees>
            </Position>
            <AltitudeMeters>443.79998779296875</AltitudeMeters>
            <DistanceMeters>NAN</DistanceMeters>
          </Trackpoint>
          <Trackpoint>
            <Time>2021-08-10T08:32:14.000Z</Time>
            <Position>
              <LatitudeDegrees>43.09621028602123260498046875</LatitudeDegrees>
              <LongitudeDegrees>-1.72157359309494495391845703125</LongitudeDegrees>
            </Position>
            <AltitudeMeters>443</AltitudeMeters>
            <DistanceMeters>NAN</DistanceMeters>
          </Trackpoint>
          <Trackpoint>
            <Time>2021-08-10T08:32:15.000Z</Time>
            <Position>
              <LatitudeDegrees>43.09618857689201831817626953125</LatitudeDegrees>
              <LongitudeDegrees>-1.72146521508693695068359375</LongitudeDegrees>
            </Position>
            <AltitudeMeters>442.20001220703125</AltitudeMeters>
            <DistanceMeters>NAN</DistanceMeters>
          </Trackpoint>
          <Trackpoint>
            <Time>2021-08-10T08:32:19.000Z</Time>
            <Position>
              <LatitudeDegrees>43.096124790608882904052734375</LatitudeDegrees>
              <LongitudeDegrees>-1.72100898809731006622314453125</LongitudeDegrees>
            </Position>
            <AltitudeMeters>441</AltitudeMeters>
            <DistanceMeters>NAN</DistanceMeters>
          </Trackpoint>
          <Trackpoint>
            <Time>2021-08-10T08:32:22.000Z</Time>
            <Position>
              <LatitudeDegrees>43.09606276452541351318359375</LatitudeDegrees>
              <LongitudeDegrees>-1.72065921127796173095703125</LongitudeDegrees>
            </Position>
            <AltitudeMeters>439.600006103515625</AltitudeMeters>
            <DistanceMeters>NAN</DistanceMeters>
          </Trackpoint>
          <Trackpoint>
            <Time>2021-08-10T08:32:25.000Z</Time>
            <Position>
              <LatitudeDegrees>43.09596075676381587982177734375</LatitudeDegrees>
              <LongitudeDegrees>-1.72032686881721019744873046875</LongitudeDegrees>
            </Position>
            <AltitudeMeters>438.600006103515625</AltitudeMeters>
            <DistanceMeters>NAN</DistanceMeters>
          </Trackpoint>
          <Trackpoint>
            <Time>2021-08-10T08:32:27.000Z</Time>
            <Position>
              <LatitudeDegrees>43.09586587361991405487060546875</LatitudeDegrees>
              <LongitudeDegrees>-1.720119751989841461181640625</LongitudeDegrees>
            </Position>
            <AltitudeMeters>437.79998779296875</AltitudeMeters>
            <DistanceMeters>NAN</DistanceMeters>
          </Trackpoint>
          <Trackpoint>
            <Time>2021-08-10T08:32:28.000Z</Time>
            <Position>
              <LatitudeDegrees>43.09579990804195404052734375</LatitudeDegrees>
              <LongitudeDegrees>-1.72003735788166522979736328125</LongitudeDegrees>
            </Position>
            <AltitudeMeters>437.399993896484375</AltitudeMeters>
            <DistanceMeters>NAN</DistanceMeters>
          </Trackpoint>
          <Trackpoint>
            <Time>2021-08-10T08:32:29.000Z</Time>
            <Position>
              <LatitudeDegrees>43.095715083181858062744140625</LatitudeDegrees>
              <LongitudeDegrees>-1.71998337842524051666259765625</LongitudeDegrees>
            </Position>
            <AltitudeMeters>437</AltitudeMeters>
            <DistanceMeters>NAN</DistanceMeters>
          </Trackpoint>
          <Trackpoint>
            <Time>2021-08-10T08:32:31.000Z</Time>
            <Position>
              <LatitudeDegrees>43.095540739595890045166015625</LatitudeDegrees>
              <LongitudeDegrees>-1.71993996016681194305419921875</LongitudeDegrees>
            </Position>
            <AltitudeMeters>436.399993896484375</AltitudeMeters>
            <DistanceMeters>NAN</DistanceMeters>
          </Trackpoint>
          <Trackpoint>
            <Time>2021-08-10T08:32:32.000Z</Time>
            <Position>
              <LatitudeDegrees>43.09544761665165424346923828125</LatitudeDegrees>
              <LongitudeDegrees>-1.71991825103759765625</LongitudeDegrees>
            </Position>
            <AltitudeMeters>435.79998779296875</AltitudeMeters>
            <DistanceMeters>NAN</DistanceMeters>
          </Trackpoint>
          <Trackpoint>
            <Time>2021-08-10T08:32:33.000Z</Time>
            <Position>
              <LatitudeDegrees>43.09535977430641651153564453125</LatitudeDegrees>
              <LongitudeDegrees>-1.7198694683611392974853515625</LongitudeDegrees>
            </Position>
            <AltitudeMeters>435.600006103515625</AltitudeMeters>
            <DistanceMeters>NAN</DistanceMeters>
          </Trackpoint>
          <Trackpoint>
            <Time>2021-08-10T08:32:34.000Z</Time>
            <Position>
              <LatitudeDegrees>43.09528517536818981170654296875</LatitudeDegrees>
              <LongitudeDegrees>-1.71978623606264591217041015625</LongitudeDegrees>
            </Position>
            <AltitudeMeters>434.79998779296875</AltitudeMeters>
            <DistanceMeters>NAN</DistanceMeters>
          </Trackpoint>
          <Trackpoint>
            <Time>2021-08-10T08:32:35.000Z</Time>
            <Position>
              <LatitudeDegrees>43.09522449038922786712646484375</LatitudeDegrees>
              <LongitudeDegrees>-1.7196929454803466796875</LongitudeDegrees>
            </Position>
            <AltitudeMeters>434.600006103515625</AltitudeMeters>
            <DistanceMeters>NAN</DistanceMeters>
          </Trackpoint>
          <Trackpoint>
            <Time>2021-08-10T08:32:36.000Z</Time>
            <Position>
              <LatitudeDegrees>43.09517704881727695465087890625</LatitudeDegrees>
              <LongitudeDegrees>-1.719585992395877838134765625</LongitudeDegrees>
            </Position>
            <AltitudeMeters>434</AltitudeMeters>
            <DistanceMeters>NAN</DistanceMeters>
          </Trackpoint>
          <Trackpoint>
            <Time>2021-08-10T08:32:37.000Z</Time>
            <Position>
              <LatitudeDegrees>43.0951394140720367431640625</LatitudeDegrees>
              <LongitudeDegrees>-1.719469316303730010986328125</LongitudeDegrees>
            </Position>
            <AltitudeMeters>433.600006103515625</AltitudeMeters>
            <DistanceMeters>NAN</DistanceMeters>
          </Trackpoint>
          <Trackpoint>
            <Time>2021-08-10T08:32:38.000Z</Time>
            <Position>
              <LatitudeDegrees>43.09510429389774799346923828125</LatitudeDegrees>
              <LongitudeDegrees>-1.71935372985899448394775390625</LongitudeDegrees>
            </Position>
            <AltitudeMeters>433.399993896484375</AltitudeMeters>
            <DistanceMeters>NAN</DistanceMeters>
          </Trackpoint>
          <Trackpoint>
            <Time>2021-08-10T08:32:41.000Z</Time>
            <Position>
              <LatitudeDegrees>43.0949887074530124664306640625</LatitudeDegrees>
              <LongitudeDegrees>-1.71899330802261829376220703125</LongitudeDegrees>
            </Position>
            <AltitudeMeters>432</AltitudeMeters>
            <DistanceMeters>NAN</DistanceMeters>
          </Trackpoint>
          <Trackpoint>
            <Time>2021-08-10T08:32:43.000Z</Time>
            <Position>
              <LatitudeDegrees>43.094924502074718475341796875</LatitudeDegrees>
              <LongitudeDegrees>-1.71876666136085987091064453125</LongitudeDegrees>
            </Position>
            <AltitudeMeters>431</AltitudeMeters>
            <DistanceMeters>NAN</DistanceMeters>
          </Trackpoint>
          <Trackpoint>
            <Time>2021-08-10T08:32:44.000Z</Time>
            <Position>
              <LatitudeDegrees>43.09489608742296695709228515625</LatitudeDegrees>
              <LongitudeDegrees>-1.71864847652614116668701171875</LongitudeDegrees>
            </Position>
            <AltitudeMeters>430.399993896484375</AltitudeMeters>
            <DistanceMeters>NAN</DistanceMeters>
          </Trackpoint>
          <Trackpoint>
            <Time>2021-08-10T08:32:45.000Z</Time>
            <Position>
              <LatitudeDegrees>43.0949079059064388275146484375</LatitudeDegrees>
              <LongitudeDegrees>-1.7185275256633758544921875</LongitudeDegrees>
            </Position>
            <AltitudeMeters>429.79998779296875</AltitudeMeters>
            <DistanceMeters>NAN</DistanceMeters>
          </Trackpoint>
          <Trackpoint>
            <Time>2021-08-10T08:32:46.000Z</Time>
            <Position>
              <LatitudeDegrees>43.09494562447071075439453125</LatitudeDegrees>
              <LongitudeDegrees>-1.71840892173349857330322265625</LongitudeDegrees>
            </Position>
            <AltitudeMeters>429.20001220703125</AltitudeMeters>
            <DistanceMeters>NAN</DistanceMeters>
          </Trackpoint>
          <Trackpoint>
            <Time>2021-08-10T08:32:47.000Z</Time>
            <Position>
              <LatitudeDegrees>43.0949930660426616668701171875</LatitudeDegrees>
              <LongitudeDegrees>-1.71830582432448863983154296875</LongitudeDegrees>
            </Position>
            <AltitudeMeters>428.79998779296875</AltitudeMeters>
            <DistanceMeters>NAN</DistanceMeters>
          </Trackpoint>
          <Trackpoint>
            <Time>2021-08-10T08:32:48.000Z</Time>
            <Position>
              <LatitudeDegrees>43.095043860375881195068359375</LatitudeDegrees>
              <LongitudeDegrees>-1.71821345575153827667236328125</LongitudeDegrees>
            </Position>
            <AltitudeMeters>428.399993896484375</AltitudeMeters>
            <DistanceMeters>NAN</DistanceMeters>
          </Trackpoint>
          <Trackpoint>
            <Time>2021-08-10T08:32:49.000Z</Time>
            <Position>
              <LatitudeDegrees>43.0951000191271305084228515625</LatitudeDegrees>
              <LongitudeDegrees>-1.7181159742176532745361328125</LongitudeDegrees>
            </Position>
            <AltitudeMeters>428</AltitudeMeters>
            <DistanceMeters>NAN</DistanceMeters>
          </Trackpoint>
          <Trackpoint>
            <Time>2021-08-10T08:32:51.000Z</Time>
            <Position>
              <LatitudeDegrees>43.0952029488980770111083984375</LatitudeDegrees>
              <LongitudeDegrees>-1.7179111205041408538818359375</LongitudeDegrees>
            </Position>
            <AltitudeMeters>427.399993896484375</AltitudeMeters>
            <DistanceMeters>NAN</DistanceMeters>
          </Trackpoint>
          <Trackpoint>
            <Time>2021-08-10T08:32:52.000Z</Time>
            <Position>
              <LatitudeDegrees>43.09525852091610431671142578125</LatitudeDegrees>
              <LongitudeDegrees>-1.71780441887676715850830078125</LongitudeDegrees>
            </Position>
            <AltitudeMeters>427</AltitudeMeters>
            <DistanceMeters>NAN</DistanceMeters>
          </Trackpoint>
          <Trackpoint>
            <Time>2021-08-10T08:32:54.000Z</Time>
            <Position>
              <LatitudeDegrees>43.0953628756105899810791015625</LatitudeDegrees>
              <LongitudeDegrees>-1.7175845615565776824951171875</LongitudeDegrees>
            </Position>
            <AltitudeMeters>425.79998779296875</AltitudeMeters>
            <DistanceMeters>NAN</DistanceMeters>
          </Trackpoint>
          <Trackpoint>
            <Time>2021-08-10T08:32:56.000Z</Time>
            <Position>
              <LatitudeDegrees>43.0954359658062458038330078125</LatitudeDegrees>
              <LongitudeDegrees>-1.7173445038497447967529296875</LongitudeDegrees>
            </Position>
            <AltitudeMeters>424.79998779296875</AltitudeMeters>
            <DistanceMeters>NAN</DistanceMeters>
          </Trackpoint>
          <Trackpoint>
            <Time>2021-08-10T08:32:57.000Z</Time>
            <Position>
              <LatitudeDegrees>43.09543336741626262664794921875</LatitudeDegrees>
              <LongitudeDegrees>-1.71721148304641246795654296875</LongitudeDegrees>
            </Position>
            <AltitudeMeters>424.20001220703125</AltitudeMeters>
            <DistanceMeters>NAN</DistanceMeters>
          </Trackpoint>
          <Trackpoint>
            <Time>2021-08-10T08:32:58.000Z</Time>
            <Position>
              <LatitudeDegrees>43.09540419839322566986083984375</LatitudeDegrees>
              <LongitudeDegrees>-1.71708558686077594757080078125</LongitudeDegrees>
            </Position>
            <AltitudeMeters>423.399993896484375</AltitudeMeters>
            <DistanceMeters>NAN</DistanceMeters>
          </Trackpoint>
          <Trackpoint>
            <Time>2021-08-10T08:32:59.000Z</Time>
            <Position>
              <LatitudeDegrees>43.0953682400286197662353515625</LatitudeDegrees>
              <LongitudeDegrees>-1.71696321107447147369384765625</LongitudeDegrees>
            </Position>
            <AltitudeMeters>423.20001220703125</AltitudeMeters>
            <DistanceMeters>NAN</DistanceMeters>
          </Trackpoint>
          <Trackpoint>
            <Time>2021-08-10T08:33:00.000Z</Time>
            <Position>
              <LatitudeDegrees>43.095318116247653961181640625</LatitudeDegrees>
              <LongitudeDegrees>-1.7168189585208892822265625</LongitudeDegrees>
            </Position>
            <AltitudeMeters>422.20001220703125</AltitudeMeters>
            <DistanceMeters>NAN</DistanceMeters>
          </Trackpoint>
          <Trackpoint>
            <Time>2021-08-10T08:33:01.000Z</Time>
            <Position>
              <LatitudeDegrees>43.0952790565788745880126953125</LatitudeDegrees>
              <LongitudeDegrees>-1.71672550030052661895751953125</LongitudeDegrees>
            </Position>
            <AltitudeMeters>421.79998779296875</AltitudeMeters>
            <DistanceMeters>NAN</DistanceMeters>
          </Trackpoint>
          <Trackpoint>
            <Time>2021-08-10T08:33:03.000Z</Time>
            <Position>
              <LatitudeDegrees>43.09518031775951385498046875</LatitudeDegrees>
              <LongitudeDegrees>-1.7165051400661468505859375</LongitudeDegrees>
            </Position>
            <AltitudeMeters>420.79998779296875</AltitudeMeters>
            <DistanceMeters>NAN</DistanceMeters>
          </Trackpoint>
          <Trackpoint>
            <Time>2021-08-10T08:33:04.000Z</Time>
            <Position>
              <LatitudeDegrees>43.0951286852359771728515625</LatitudeDegrees>
              <LongitudeDegrees>-1.71640397049486637115478515625</LongitudeDegrees>
            </Position>
            <AltitudeMeters>420</AltitudeMeters>
            <DistanceMeters>NAN</DistanceMeters>
          </Trackpoint>
          <Trackpoint>
            <Time>2021-08-10T08:33:05.000Z</Time>
            <Position>
              <LatitudeDegrees>43.09508250094950199127197265625</LatitudeDegrees>
              <LongitudeDegrees>-1.716296933591365814208984375</LongitudeDegrees>
            </Position>
            <AltitudeMeters>419</AltitudeMeters>
            <DistanceMeters>NAN</DistanceMeters>
          </Trackpoint>
          <Trackpoint>
            <Time>2021-08-10T08:33:06.000Z</Time>
            <Position>
              <LatitudeDegrees>43.095042519271373748779296875</LatitudeDegrees>
              <LongitudeDegrees>-1.71618654392659664154052734375</LongitudeDegrees>
            </Position>
            <AltitudeMeters>418.600006103515625</AltitudeMeters>
            <DistanceMeters>NAN</DistanceMeters>
          </Trackpoint>
          <Trackpoint>
            <Time>2021-08-10T08:33:07.000Z</Time>
            <Position>
              <LatitudeDegrees>43.095021732151508331298828125</LatitudeDegrees>
              <LongitudeDegrees>-1.71606970019638538360595703125</LongitudeDegrees>
            </Position>
            <AltitudeMeters>417.79998779296875</AltitudeMeters>
            <DistanceMeters>NAN</DistanceMeters>
          </Trackpoint>
          <Trackpoint>
            <Time>2021-08-10T08:33:08.000Z</Time>
            <Position>
              <LatitudeDegrees>43.095022402703762054443359375</LatitudeDegrees>
              <LongitudeDegrees>-1.7159507609903812408447265625</LongitudeDegrees>
            </Position>
            <AltitudeMeters>417.399993896484375</AltitudeMeters>
            <DistanceMeters>NAN</DistanceMeters>
          </Trackpoint>
          <Trackpoint>
            <Time>2021-08-10T08:33:09.000Z</Time>
            <Position>
              <LatitudeDegrees>43.0950430221855640411376953125</LatitudeDegrees>
              <LongitudeDegrees>-1.71584305353462696075439453125</LongitudeDegrees>
            </Position>
            <AltitudeMeters>416.600006103515625</AltitudeMeters>
            <DistanceMeters>NAN</DistanceMeters>
          </Trackpoint>
          <Trackpoint>
            <Time>2021-08-10T08:33:10.000Z</Time>
            <Position>
              <LatitudeDegrees>43.09508912265300750732421875</LatitudeDegrees>
              <LongitudeDegrees>-1.715749762952327728271484375</LongitudeDegrees>
            </Position>
            <AltitudeMeters>416</AltitudeMeters>
            <DistanceMeters>NAN</DistanceMeters>
          </Trackpoint>
          <Trackpoint>
            <Time>2021-08-10T08:33:11.000Z</Time>
            <Position>
              <LatitudeDegrees>43.095158524811267852783203125</LatitudeDegrees>
              <LongitudeDegrees>-1.7156656086444854736328125</LongitudeDegrees>
            </Position>
            <AltitudeMeters>415.600006103515625</AltitudeMeters>
            <DistanceMeters>NAN</DistanceMeters>
          </Trackpoint>
          <Trackpoint>
            <Time>2021-08-10T08:33:12.000Z</Time>
            <Position>
              <LatitudeDegrees>43.0952317826449871063232421875</LatitudeDegrees>
              <LongitudeDegrees>-1.7156356014311313629150390625</LongitudeDegrees>
            </Position>
            <AltitudeMeters>414.79998779296875</AltitudeMeters>
            <DistanceMeters>NAN</DistanceMeters>
          </Trackpoint>
          <Trackpoint>
            <Time>2021-08-10T08:33:13.000Z</Time>
            <Position>
              <LatitudeDegrees>43.09530763886868953704833984375</LatitudeDegrees>
              <LongitudeDegrees>-1.715621687471866607666015625</LongitudeDegrees>
            </Position>
            <AltitudeMeters>414.399993896484375</AltitudeMeters>
            <DistanceMeters>NAN</DistanceMeters>
          </Trackpoint>
          <Trackpoint>
            <Time>2021-08-10T08:33:14.000Z</Time>
            <Position>
              <LatitudeDegrees>43.0953826569020748138427734375</LatitudeDegrees>
              <LongitudeDegrees>-1.71562965027987957000732421875</LongitudeDegrees>
            </Position>
            <AltitudeMeters>414</AltitudeMeters>
            <DistanceMeters>NAN</DistanceMeters>
          </Trackpoint>
          <Trackpoint>
            <Time>2021-08-10T08:33:15.000Z</Time>
            <Position>
              <LatitudeDegrees>43.0954564176499843597412109375</LatitudeDegrees>
              <LongitudeDegrees>-1.715647839009761810302734375</LongitudeDegrees>
            </Position>
            <AltitudeMeters>413.79998779296875</AltitudeMeters>
            <DistanceMeters>NAN</DistanceMeters>
          </Trackpoint>
          <Trackpoint>
            <Time>2021-08-10T08:33:16.000Z</Time>
            <Position>
              <LatitudeDegrees>43.095540069043636322021484375</LatitudeDegrees>
              <LongitudeDegrees>-1.71568379737436771392822265625</LongitudeDegrees>
            </Position>
            <AltitudeMeters>413.399993896484375</AltitudeMeters>
            <DistanceMeters>NAN</DistanceMeters>
          </Trackpoint>
          <Trackpoint>
            <Time>2021-08-10T08:33:19.000Z</Time>
            <Position>
              <LatitudeDegrees>43.09578892774879932403564453125</LatitudeDegrees>
              <LongitudeDegrees>-1.715793348848819732666015625</LongitudeDegrees>
            </Position>
            <AltitudeMeters>412.399993896484375</AltitudeMeters>
            <DistanceMeters>NAN</DistanceMeters>
          </Trackpoint>
          <Trackpoint>
            <Time>2021-08-10T08:33:20.000Z</Time>
            <Position>
              <LatitudeDegrees>43.09588213451206684112548828125</LatitudeDegrees>
              <LongitudeDegrees>-1.7158008925616741180419921875</LongitudeDegrees>
            </Position>
            <AltitudeMeters>412</AltitudeMeters>
            <DistanceMeters>NAN</DistanceMeters>
          </Trackpoint>
          <Trackpoint>
            <Time>2021-08-10T08:33:21.000Z</Time>
            <Position>
              <LatitudeDegrees>43.09597400017082691192626953125</LatitudeDegrees>
              <LongitudeDegrees>-1.71577281318604946136474609375</LongitudeDegrees>
            </Position>
            <AltitudeMeters>411.399993896484375</AltitudeMeters>
            <DistanceMeters>NAN</DistanceMeters>
          </Trackpoint>
          <Trackpoint>
            <Time>2021-08-10T08:33:22.000Z</Time>
            <Position>
              <LatitudeDegrees>43.0960662849247455596923828125</LatitudeDegrees>
              <LongitudeDegrees>-1.71572034247219562530517578125</LongitudeDegrees>
            </Position>
            <AltitudeMeters>410.79998779296875</AltitudeMeters>
            <DistanceMeters>NAN</DistanceMeters>
          </Trackpoint>
          <Trackpoint>
            <Time>2021-08-10T08:33:23.000Z</Time>
            <Position>
              <LatitudeDegrees>43.09615186415612697601318359375</LatitudeDegrees>
              <LongitudeDegrees>-1.71565026976168155670166015625</LongitudeDegrees>
            </Position>
            <AltitudeMeters>410.20001220703125</AltitudeMeters>
            <DistanceMeters>NAN</DistanceMeters>
          </Trackpoint>
          <Trackpoint>
            <Time>2021-08-10T08:33:24.000Z</Time>
            <Position>
              <LatitudeDegrees>43.09624222107231616973876953125</LatitudeDegrees>
              <LongitudeDegrees>-1.71556645072996616363525390625</LongitudeDegrees>
            </Position>
            <AltitudeMeters>409.399993896484375</AltitudeMeters>
            <DistanceMeters>NAN</DistanceMeters>
          </Trackpoint>
          <Trackpoint>
            <Time>2021-08-10T08:33:25.000Z</Time>
            <Position>
              <LatitudeDegrees>43.0963278003036975860595703125</LatitudeDegrees>
              <LongitudeDegrees>-1.7154751718044281005859375</LongitudeDegrees>
            </Position>
            <AltitudeMeters>409</AltitudeMeters>
            <DistanceMeters>NAN</DistanceMeters>
          </Trackpoint>
          <Trackpoint>
            <Time>2021-08-10T08:33:26.000Z</Time>
            <Position>
              <LatitudeDegrees>43.0964065901935100555419921875</LatitudeDegrees>
              <LongitudeDegrees>-1.71536595560610294342041015625</LongitudeDegrees>
            </Position>
            <AltitudeMeters>408.399993896484375</AltitudeMeters>
            <DistanceMeters>NAN</DistanceMeters>
          </Trackpoint>
          <Trackpoint>
            <Time>2021-08-10T08:33:27.000Z</Time>
            <Position>
              <LatitudeDegrees>43.096481524407863616943359375</LatitudeDegrees>
              <LongitudeDegrees>-1.715251542627811431884765625</LongitudeDegrees>
            </Position>
            <AltitudeMeters>408</AltitudeMeters>
            <DistanceMeters>NAN</DistanceMeters>
          </Trackpoint>
          <Trackpoint>
            <Time>2021-08-10T08:33:28.000Z</Time>
            <Position>
              <LatitudeDegrees>43.09655134566128253936767578125</LatitudeDegrees>
              <LongitudeDegrees>-1.71513293869793415069580078125</LongitudeDegrees>
            </Position>
            <AltitudeMeters>407.20001220703125</AltitudeMeters>
            <DistanceMeters>NAN</DistanceMeters>
          </Trackpoint>
          <Trackpoint>
            <Time>2021-08-10T08:33:30.000Z</Time>
            <Position>
              <LatitudeDegrees>43.09668369591236114501953125</LatitudeDegrees>
              <LongitudeDegrees>-1.71490847133100032806396484375</LongitudeDegrees>
            </Position>
            <AltitudeMeters>406</AltitudeMeters>
            <DistanceMeters>NAN</DistanceMeters>
          </Trackpoint>
          <Trackpoint>
            <Time>2021-08-10T08:33:31.000Z</Time>
            <Position>
              <LatitudeDegrees>43.096722252666950225830078125</LatitudeDegrees>
              <LongitudeDegrees>-1.7148047871887683868408203125</LongitudeDegrees>
            </Position>
            <AltitudeMeters>405</AltitudeMeters>
            <DistanceMeters>NAN</DistanceMeters>
          </Trackpoint>
          <Trackpoint>
            <Time>2021-08-10T08:33:32.000Z</Time>
            <Position>
              <LatitudeDegrees>43.09677422046661376953125</LatitudeDegrees>
              <LongitudeDegrees>-1.71469339169561862945556640625</LongitudeDegrees>
            </Position>
            <AltitudeMeters>404.600006103515625</AltitudeMeters>
            <DistanceMeters>NAN</DistanceMeters>
          </Trackpoint>
          <Trackpoint>
            <Time>2021-08-10T08:33:33.000Z</Time>
            <Position>
              <LatitudeDegrees>43.0968411080539226531982421875</LatitudeDegrees>
              <LongitudeDegrees>-1.71457503922283649444580078125</LongitudeDegrees>
            </Position>
            <AltitudeMeters>403.79998779296875</AltitudeMeters>
            <DistanceMeters>NAN</DistanceMeters>
          </Trackpoint>
          <Trackpoint>
            <Time>2021-08-10T08:33:34.000Z</Time>
            <Position>
              <LatitudeDegrees>43.09690020047128200531005859375</LatitudeDegrees>
              <LongitudeDegrees>-1.7144493944942951202392578125</LongitudeDegrees>
            </Position>
            <AltitudeMeters>403.399993896484375</AltitudeMeters>
            <DistanceMeters>NAN</DistanceMeters>
          </Trackpoint>
          <Trackpoint>
            <Time>2021-08-10T08:33:35.000Z</Time>
            <Position>
              <LatitudeDegrees>43.09694596566259860992431640625</LatitudeDegrees>
              <LongitudeDegrees>-1.71432157047092914581298828125</LongitudeDegrees>
            </Position>
            <AltitudeMeters>402.79998779296875</AltitudeMeters>
            <DistanceMeters>NAN</DistanceMeters>
          </Trackpoint>
          <Trackpoint>
            <Time>2021-08-10T08:33:36.000Z</Time>
            <Position>
              <LatitudeDegrees>43.09698318131268024444580078125</LatitudeDegrees>
              <LongitudeDegrees>-1.71419441699981689453125</LongitudeDegrees>
            </Position>
            <AltitudeMeters>402.20001220703125</AltitudeMeters>
            <DistanceMeters>NAN</DistanceMeters>
          </Trackpoint>
          <Trackpoint>
            <Time>2021-08-10T08:33:38.000Z</Time>
            <Position>
              <LatitudeDegrees>43.0970627255737781524658203125</LatitudeDegrees>
              <LongitudeDegrees>-1.71393231488764286041259765625</LongitudeDegrees>
            </Position>
            <AltitudeMeters>400.399993896484375</AltitudeMeters>
            <DistanceMeters>NAN</DistanceMeters>
          </Trackpoint>
          <Trackpoint>
            <Time>2021-08-10T08:33:40.000Z</Time>
            <Position>
              <LatitudeDegrees>43.09715442359447479248046875</LatitudeDegrees>
              <LongitudeDegrees>-1.71366493217647075653076171875</LongitudeDegrees>
            </Position>
            <AltitudeMeters>399.20001220703125</AltitudeMeters>
            <DistanceMeters>NAN</DistanceMeters>
          </Trackpoint>
          <Trackpoint>
            <Time>2021-08-10T08:33:41.000Z</Time>
            <Position>
              <LatitudeDegrees>43.09719826094806194305419921875</LatitudeDegrees>
              <LongitudeDegrees>-1.71353450976312160491943359375</LongitudeDegrees>
            </Position>
            <AltitudeMeters>398.79998779296875</AltitudeMeters>
            <DistanceMeters>NAN</DistanceMeters>
          </Trackpoint>
          <Trackpoint>
            <Time>2021-08-10T08:33:42.000Z</Time>
            <Position>
              <LatitudeDegrees>43.09723882935941219329833984375</LatitudeDegrees>
              <LongitudeDegrees>-1.71340643428266048431396484375</LongitudeDegrees>
            </Position>
            <AltitudeMeters>398</AltitudeMeters>
            <DistanceMeters>NAN</DistanceMeters>
          </Trackpoint>
          <Trackpoint>
            <Time>2021-08-10T08:33:44.000Z</Time>
            <Position>
              <LatitudeDegrees>43.0973178707063198089599609375</LatitudeDegrees>
              <LongitudeDegrees>-1.713143996894359588623046875</LongitudeDegrees>
            </Position>
            <AltitudeMeters>396.79998779296875</AltitudeMeters>
            <DistanceMeters>NAN</DistanceMeters>
          </Trackpoint>
          <Trackpoint>
            <Time>2021-08-10T08:33:45.000Z</Time>
            <Position>
              <LatitudeDegrees>43.09735827147960662841796875</LatitudeDegrees>
              <LongitudeDegrees>-1.71300846152007579803466796875</LongitudeDegrees>
            </Position>
            <AltitudeMeters>395.600006103515625</AltitudeMeters>
            <DistanceMeters>NAN</DistanceMeters>
          </Trackpoint>
          <Trackpoint>
            <Time>2021-08-10T08:33:47.000Z</Time>
            <Position>
              <LatitudeDegrees>43.09743278659880161285400390625</LatitudeDegrees>
              <LongitudeDegrees>-1.71273588202893733978271484375</LongitudeDegrees>
            </Position>
            <AltitudeMeters>394.600006103515625</AltitudeMeters>
            <DistanceMeters>NAN</DistanceMeters>
          </Trackpoint>
          <Trackpoint>
            <Time>2021-08-10T08:33:49.000Z</Time>
            <Position>
              <LatitudeDegrees>43.097503446042537689208984375</LatitudeDegrees>
              <LongitudeDegrees>-1.7124675773084163665771484375</LongitudeDegrees>
            </Position>
            <AltitudeMeters>393.20001220703125</AltitudeMeters>
            <DistanceMeters>NAN</DistanceMeters>
          </Trackpoint>
          <Trackpoint>
            <Time>2021-08-10T08:33:51.000Z</Time>
            <Position>
              <LatitudeDegrees>43.09758584015071392059326171875</LatitudeDegrees>
              <LongitudeDegrees>-1.71221620403230190277099609375</LongitudeDegrees>
            </Position>
            <AltitudeMeters>392</AltitudeMeters>
            <DistanceMeters>NAN</DistanceMeters>
          </Trackpoint>
          <Trackpoint>
            <Time>2021-08-10T08:33:52.000Z</Time>
            <Position>
              <LatitudeDegrees>43.0976417474448680877685546875</LatitudeDegrees>
              <LongitudeDegrees>-1.71209416352212429046630859375</LongitudeDegrees>
            </Position>
            <AltitudeMeters>391.20001220703125</AltitudeMeters>
            <DistanceMeters>NAN</DistanceMeters>
          </Trackpoint>
          <Trackpoint>
            <Time>2021-08-10T08:33:53.000Z</Time>
            <Position>
              <LatitudeDegrees>43.09770838357508182525634765625</LatitudeDegrees>
              <LongitudeDegrees>-1.71197145245969295501708984375</LongitudeDegrees>
            </Position>
            <AltitudeMeters>390.79998779296875</AltitudeMeters>
            <DistanceMeters>NAN</DistanceMeters>
          </Trackpoint>
          <Trackpoint>
            <Time>2021-08-10T08:33:54.000Z</Time>
            <Position>
              <LatitudeDegrees>43.09775414876639842987060546875</LatitudeDegrees>
              <LongitudeDegrees>-1.7118439637124538421630859375</LongitudeDegrees>
            </Position>
            <AltitudeMeters>390</AltitudeMeters>
            <DistanceMeters>NAN</DistanceMeters>
          </Trackpoint>
          <Trackpoint>
            <Time>2021-08-10T08:33:55.000Z</Time>
            <Position>
              <LatitudeDegrees>43.0977735109627246856689453125</LatitudeDegrees>
              <LongitudeDegrees>-1.71171127818524837493896484375</LongitudeDegrees>
            </Position>
            <AltitudeMeters>389.600006103515625</AltitudeMeters>
            <DistanceMeters>NAN</DistanceMeters>
          </Trackpoint>
          <Trackpoint>
            <Time>2021-08-10T08:33:56.000Z</Time>
            <Position>
              <LatitudeDegrees>43.09777912683784961700439453125</LatitudeDegrees>
              <LongitudeDegrees>-1.71157725155353546142578125</LongitudeDegrees>
            </Position>
            <AltitudeMeters>388.79998779296875</AltitudeMeters>
            <DistanceMeters>NAN</DistanceMeters>
          </Trackpoint>
          <Trackpoint>
            <Time>2021-08-10T08:33:57.000Z</Time>
            <Position>
              <LatitudeDegrees>43.097781054675579071044921875</LatitudeDegrees>
              <LongitudeDegrees>-1.7114734835922718048095703125</LongitudeDegrees>
            </Position>
            <AltitudeMeters>387.79998779296875</AltitudeMeters>
            <DistanceMeters>NAN</DistanceMeters>
          </Trackpoint>
          <Trackpoint>
            <Time>2021-08-10T08:33:58.000Z</Time>
            <Position>
              <LatitudeDegrees>43.09777795337140560150146484375</LatitudeDegrees>
              <LongitudeDegrees>-1.7113236151635646820068359375</LongitudeDegrees>
            </Position>
            <AltitudeMeters>387.20001220703125</AltitudeMeters>
            <DistanceMeters>NAN</DistanceMeters>
          </Trackpoint>
          <Trackpoint>
            <Time>2021-08-10T08:33:59.000Z</Time>
            <Position>
              <LatitudeDegrees>43.09778516180813312530517578125</LatitudeDegrees>
              <LongitudeDegrees>-1.7112019099295139312744140625</LongitudeDegrees>
            </Position>
            <AltitudeMeters>386.399993896484375</AltitudeMeters>
            <DistanceMeters>NAN</DistanceMeters>
          </Trackpoint>
          <Trackpoint>
            <Time>2021-08-10T08:34:00.000Z</Time>
            <Position>
              <LatitudeDegrees>43.0978046916425228118896484375</LatitudeDegrees>
              <LongitudeDegrees>-1.7110843956470489501953125</LongitudeDegrees>
            </Position>
            <AltitudeMeters>386.20001220703125</AltitudeMeters>
            <DistanceMeters>NAN</DistanceMeters>
          </Trackpoint>
          <Trackpoint>
            <Time>2021-08-10T08:34:01.000Z</Time>
            <Position>
              <LatitudeDegrees>43.09784249402582645416259765625</LatitudeDegrees>
              <LongitudeDegrees>-1.71097534708678722381591796875</LongitudeDegrees>
            </Position>
            <AltitudeMeters>385.399993896484375</AltitudeMeters>
            <DistanceMeters>NAN</DistanceMeters>
          </Trackpoint>
          <Trackpoint>
            <Time>2021-08-10T08:34:02.000Z</Time>
            <Position>
              <LatitudeDegrees>43.0978932045400142669677734375</LatitudeDegrees>
              <LongitudeDegrees>-1.71090275980532169342041015625</LongitudeDegrees>
            </Position>
            <AltitudeMeters>385</AltitudeMeters>
            <DistanceMeters>NAN</DistanceMeters>
          </Trackpoint>
          <Trackpoint>
            <Time>2021-08-10T08:34:03.000Z</Time>
            <Position>
              <LatitudeDegrees>43.09796788729727268218994140625</LatitudeDegrees>
              <LongitudeDegrees>-1.71083821915090084075927734375</LongitudeDegrees>
            </Position>
            <AltitudeMeters>384.399993896484375</AltitudeMeters>
            <DistanceMeters>NAN</DistanceMeters>
          </Trackpoint>
          <Trackpoint>
            <Time>2021-08-10T08:34:05.000Z</Time>
            <Position>
              <LatitudeDegrees>43.0981372855603694915771484375</LatitudeDegrees>
              <LongitudeDegrees>-1.7107472755014896392822265625</LongitudeDegrees>
            </Position>
            <AltitudeMeters>383.399993896484375</AltitudeMeters>
            <DistanceMeters>NAN</DistanceMeters>
          </Trackpoint>
          <Trackpoint>
            <Time>2021-08-10T08:34:06.000Z</Time>
            <Position>
              <LatitudeDegrees>43.09822202660143375396728515625</LatitudeDegrees>
              <LongitudeDegrees>-1.7107137478888034820556640625</LongitudeDegrees>
            </Position>
            <AltitudeMeters>382.600006103515625</AltitudeMeters>
            <DistanceMeters>NAN</DistanceMeters>
          </Trackpoint>
          <Trackpoint>
            <Time>2021-08-10T08:34:07.000Z</Time>
            <Position>
              <LatitudeDegrees>43.09830232523381710052490234375</LatitudeDegrees>
              <LongitudeDegrees>-1.71068281866610050201416015625</LongitudeDegrees>
            </Position>
            <AltitudeMeters>382.20001220703125</AltitudeMeters>
            <DistanceMeters>NAN</DistanceMeters>
          </Trackpoint>
          <Trackpoint>
            <Time>2021-08-10T08:34:08.000Z</Time>
            <Position>
              <LatitudeDegrees>43.0983941070735454559326171875</LatitudeDegrees>
              <LongitudeDegrees>-1.710655577480792999267578125</LongitudeDegrees>
            </Position>
            <AltitudeMeters>381.399993896484375</AltitudeMeters>
            <DistanceMeters>NAN</DistanceMeters>
          </Trackpoint>
          <Trackpoint>
            <Time>2021-08-10T08:34:09.000Z</Time>
            <Position>
              <LatitudeDegrees>43.098469041287899017333984375</LatitudeDegrees>
              <LongitudeDegrees>-1.7106503807008266448974609375</LongitudeDegrees>
            </Position>
            <AltitudeMeters>381.20001220703125</AltitudeMeters>
            <DistanceMeters>NAN</DistanceMeters>
          </Trackpoint>
          <Trackpoint>
            <Time>2021-08-10T08:34:10.000Z</Time>
            <Position>
              <LatitudeDegrees>43.0985265411436557769775390625</LatitudeDegrees>
              <LongitudeDegrees>-1.7106624506413936614990234375</LongitudeDegrees>
            </Position>
            <AltitudeMeters>380.399993896484375</AltitudeMeters>
            <DistanceMeters>NAN</DistanceMeters>
          </Trackpoint>
          <Trackpoint>
            <Time>2021-08-10T08:34:11.000Z</Time>
            <Position>
              <LatitudeDegrees>43.09859418310225009918212890625</LatitudeDegrees>
              <LongitudeDegrees>-1.7107006721198558807373046875</LongitudeDegrees>
            </Position>
            <AltitudeMeters>379.600006103515625</AltitudeMeters>
            <DistanceMeters>NAN</DistanceMeters>
          </Trackpoint>
          <Trackpoint>
            <Time>2021-08-10T08:34:12.000Z</Time>
            <Position>
              <LatitudeDegrees>43.098650090396404266357421875</LatitudeDegrees>
              <LongitudeDegrees>-1.71076797880232334136962890625</LongitudeDegrees>
            </Position>
            <AltitudeMeters>379.399993896484375</AltitudeMeters>
            <DistanceMeters>NAN</DistanceMeters>
          </Trackpoint>
          <Trackpoint>
            <Time>2021-08-10T08:34:14.000Z</Time>
            <Position>
              <LatitudeDegrees>43.09870884753763675689697265625</LatitudeDegrees>
              <LongitudeDegrees>-1.71098104678094387054443359375</LongitudeDegrees>
            </Position>
            <AltitudeMeters>378.399993896484375</AltitudeMeters>
            <DistanceMeters>NAN</DistanceMeters>
          </Trackpoint>
          <Trackpoint>
            <Time>2021-08-10T08:34:15.000Z</Time>
            <Position>
              <LatitudeDegrees>43.09871546924114227294921875</LatitudeDegrees>
              <LongitudeDegrees>-1.7110885865986347198486328125</LongitudeDegrees>
            </Position>
            <AltitudeMeters>378</AltitudeMeters>
            <DistanceMeters>NAN</DistanceMeters>
          </Trackpoint>
          <Trackpoint>
            <Time>2021-08-10T08:34:16.000Z</Time>
            <Position>
              <LatitudeDegrees>43.09871320612728595733642578125</LatitudeDegrees>
              <LongitudeDegrees>-1.71117961406707763671875</LongitudeDegrees>
            </Position>
            <AltitudeMeters>377.20001220703125</AltitudeMeters>
            <DistanceMeters>NAN</DistanceMeters>
          </Trackpoint>
          <Trackpoint>
            <Time>2021-08-10T08:34:17.000Z</Time>
            <Position>
              <LatitudeDegrees>43.0987119488418102264404296875</LatitudeDegrees>
              <LongitudeDegrees>-1.71129436232149600982666015625</LongitudeDegrees>
            </Position>
            <AltitudeMeters>377</AltitudeMeters>
            <DistanceMeters>NAN</DistanceMeters>
          </Trackpoint>
          <Trackpoint>
            <Time>2021-08-10T08:34:18.000Z</Time>
            <Position>
              <LatitudeDegrees>43.09871186502277851104736328125</LatitudeDegrees>
              <LongitudeDegrees>-1.711431406438350677490234375</LongitudeDegrees>
            </Position>
            <AltitudeMeters>376.399993896484375</AltitudeMeters>
            <DistanceMeters>NAN</DistanceMeters>
          </Trackpoint>
          <Trackpoint>
            <Time>2021-08-10T08:34:21.000Z</Time>
            <Position>
              <LatitudeDegrees>43.09869761578738689422607421875</LatitudeDegrees>
              <LongitudeDegrees>-1.7117765732109546661376953125</LongitudeDegrees>
            </Position>
            <AltitudeMeters>375.20001220703125</AltitudeMeters>
            <DistanceMeters>NAN</DistanceMeters>
          </Trackpoint>
          <Trackpoint>
            <Time>2021-08-10T08:34:23.000Z</Time>
            <Position>
              <LatitudeDegrees>43.098687641322612762451171875</LatitudeDegrees>
              <LongitudeDegrees>-1.71201285906136035919189453125</LongitudeDegrees>
            </Position>
            <AltitudeMeters>374.20001220703125</AltitudeMeters>
            <DistanceMeters>NAN</DistanceMeters>
          </Trackpoint>
          <Trackpoint>
            <Time>2021-08-10T08:34:26.000Z</Time>
            <Position>
              <LatitudeDegrees>43.098676241934299468994140625</LatitudeDegrees>
              <LongitudeDegrees>-1.7123544216156005859375</LongitudeDegrees>
            </Position>
            <AltitudeMeters>373.399993896484375</AltitudeMeters>
            <DistanceMeters>NAN</DistanceMeters>
          </Trackpoint>
          <Trackpoint>
            <Time>2021-08-10T08:34:27.000Z</Time>
            <Position>
              <LatitudeDegrees>43.0986717157065868377685546875</LatitudeDegrees>
              <LongitudeDegrees>-1.71247906051576137542724609375</LongitudeDegrees>
            </Position>
            <AltitudeMeters>373</AltitudeMeters>
            <DistanceMeters>NAN</DistanceMeters>
          </Trackpoint>
          <Trackpoint>
            <Time>2021-08-10T08:34:30.000Z</Time>
            <Position>
              <LatitudeDegrees>43.0986676923930644989013671875</LatitudeDegrees>
              <LongitudeDegrees>-1.7128866724669933319091796875</LongitudeDegrees>
            </Position>
            <AltitudeMeters>371.600006103515625</AltitudeMeters>
            <DistanceMeters>NAN</DistanceMeters>
          </Trackpoint>
          <Trackpoint>
            <Time>2021-08-10T08:34:31.000Z</Time>
            <Position>
              <LatitudeDegrees>43.09867531992495059967041015625</LatitudeDegrees>
              <LongitudeDegrees>-1.7129892669618129730224609375</LongitudeDegrees>
            </Position>
            <AltitudeMeters>371.20001220703125</AltitudeMeters>
            <DistanceMeters>NAN</DistanceMeters>
          </Trackpoint>
          <Trackpoint>
            <Time>2021-08-10T08:34:32.000Z</Time>
            <Position>
              <LatitudeDegrees>43.09869208373129367828369140625</LatitudeDegrees>
              <LongitudeDegrees>-1.713138632476329803466796875</LongitudeDegrees>
            </Position>
            <AltitudeMeters>370.399993896484375</AltitudeMeters>
            <DistanceMeters>NAN</DistanceMeters>
          </Trackpoint>
          <Trackpoint>
            <Time>2021-08-10T08:34:35.000Z</Time>
            <Position>
              <LatitudeDegrees>43.09875846840441226959228515625</LatitudeDegrees>
              <LongitudeDegrees>-1.7135091125965118408203125</LongitudeDegrees>
            </Position>
            <AltitudeMeters>369.20001220703125</AltitudeMeters>
            <DistanceMeters>NAN</DistanceMeters>
          </Trackpoint>
          <Trackpoint>
            <Time>2021-08-10T08:34:37.000Z</Time>
            <Position>
              <LatitudeDegrees>43.09880104847252368927001953125</LatitudeDegrees>
              <LongitudeDegrees>-1.713723354041576385498046875</LongitudeDegrees>
            </Position>
            <AltitudeMeters>367.600006103515625</AltitudeMeters>
            <DistanceMeters>NAN</DistanceMeters>
          </Trackpoint>
          <Trackpoint>
            <Time>2021-08-10T08:34:38.000Z</Time>
            <Position>
              <LatitudeDegrees>43.0988286249339580535888671875</LatitudeDegrees>
              <LongitudeDegrees>-1.71384581364691257476806640625</LongitudeDegrees>
            </Position>
            <AltitudeMeters>367</AltitudeMeters>
            <DistanceMeters>NAN</DistanceMeters>
          </Trackpoint>
          <Trackpoint>
            <Time>2021-08-10T08:34:39.000Z</Time>
            <Position>
              <LatitudeDegrees>43.0988655053079128265380859375</LatitudeDegrees>
              <LongitudeDegrees>-1.71398495323956012725830078125</LongitudeDegrees>
            </Position>
            <AltitudeMeters>366.20001220703125</AltitudeMeters>
            <DistanceMeters>NAN</DistanceMeters>
          </Trackpoint>
          <Trackpoint>
            <Time>2021-08-10T08:34:42.000Z</Time>
            <Position>
              <LatitudeDegrees>43.0989607237279415130615234375</LatitudeDegrees>
              <LongitudeDegrees>-1.71431117691099643707275390625</LongitudeDegrees>
            </Position>
            <AltitudeMeters>365.20001220703125</AltitudeMeters>
            <DistanceMeters>NAN</DistanceMeters>
          </Trackpoint>
          <Trackpoint>
            <Time>2021-08-10T08:34:44.000Z</Time>
            <Position>
              <LatitudeDegrees>43.09904563240706920623779296875</LatitudeDegrees>
              <LongitudeDegrees>-1.71457118354737758636474609375</LongitudeDegrees>
            </Position>
            <AltitudeMeters>364</AltitudeMeters>
            <DistanceMeters>NAN</DistanceMeters>
          </Trackpoint>
          <Trackpoint>
            <Time>2021-08-10T08:34:45.000Z</Time>
            <Position>
              <LatitudeDegrees>43.09908963739871978759765625</LatitudeDegrees>
              <LongitudeDegrees>-1.7146850936114788055419921875</LongitudeDegrees>
            </Position>
            <AltitudeMeters>363.79998779296875</AltitudeMeters>
            <DistanceMeters>NAN</DistanceMeters>
          </Trackpoint>
          <Trackpoint>
            <Time>2021-08-10T08:34:46.000Z</Time>
            <Position>
              <LatitudeDegrees>43.0991394259035587310791015625</LatitudeDegrees>
              <LongitudeDegrees>-1.71479447744786739349365234375</LongitudeDegrees>
            </Position>
            <AltitudeMeters>363</AltitudeMeters>
            <DistanceMeters>NAN</DistanceMeters>
          </Trackpoint>
          <Trackpoint>
            <Time>2021-08-10T08:34:47.000Z</Time>
            <Position>
              <LatitudeDegrees>43.09919692575931549072265625</LatitudeDegrees>
              <LongitudeDegrees>-1.7148936353623867034912109375</LongitudeDegrees>
            </Position>
            <AltitudeMeters>362.600006103515625</AltitudeMeters>
            <DistanceMeters>NAN</DistanceMeters>
          </Trackpoint>
          <Trackpoint>
            <Time>2021-08-10T08:34:48.000Z</Time>
            <Position>
              <LatitudeDegrees>43.0992601253092288970947265625</LatitudeDegrees>
              <LongitudeDegrees>-1.71498156152665615081787109375</LongitudeDegrees>
            </Position>
            <AltitudeMeters>362</AltitudeMeters>
            <DistanceMeters>NAN</DistanceMeters>
          </Trackpoint>
          <Trackpoint>
            <Time>2021-08-10T08:34:49.000Z</Time>
            <Position>
              <LatitudeDegrees>43.0993275158107280731201171875</LatitudeDegrees>
              <LongitudeDegrees>-1.71505817212164402008056640625</LongitudeDegrees>
            </Position>
            <AltitudeMeters>361.20001220703125</AltitudeMeters>
            <DistanceMeters>NAN</DistanceMeters>
          </Trackpoint>
          <Trackpoint>
            <Time>2021-08-10T08:34:50.000Z</Time>
            <Position>
              <LatitudeDegrees>43.09940370731055736541748046875</LatitudeDegrees>
              <LongitudeDegrees>-1.71511516906321048736572265625</LongitudeDegrees>
            </Position>
            <AltitudeMeters>360.79998779296875</AltitudeMeters>
            <DistanceMeters>NAN</DistanceMeters>
          </Trackpoint>
          <Trackpoint>
            <Time>2021-08-10T08:34:51.000Z</Time>
            <Position>
              <LatitudeDegrees>43.09948660433292388916015625</LatitudeDegrees>
              <LongitudeDegrees>-1.71514819376170635223388671875</LongitudeDegrees>
            </Position>
            <AltitudeMeters>360</AltitudeMeters>
            <DistanceMeters>NAN</DistanceMeters>
          </Trackpoint>
          <Trackpoint>
            <Time>2021-08-10T08:34:52.000Z</Time>
            <Position>
              <LatitudeDegrees>43.09957570396363735198974609375</LatitudeDegrees>
              <LongitudeDegrees>-1.71515992842614650726318359375</LongitudeDegrees>
            </Position>
            <AltitudeMeters>359.79998779296875</AltitudeMeters>
            <DistanceMeters>NAN</DistanceMeters>
          </Trackpoint>
          <Trackpoint>
            <Time>2021-08-10T08:34:53.000Z</Time>
            <Position>
              <LatitudeDegrees>43.0996674858033657073974609375</LatitudeDegrees>
              <LongitudeDegrees>-1.71514886431396007537841796875</LongitudeDegrees>
            </Position>
            <AltitudeMeters>359.20001220703125</AltitudeMeters>
            <DistanceMeters>NAN</DistanceMeters>
          </Trackpoint>
          <Trackpoint>
            <Time>2021-08-10T08:34:54.000Z</Time>
            <Position>
              <LatitudeDegrees>43.09975541196763515472412109375</LatitudeDegrees>
              <LongitudeDegrees>-1.715132854878902435302734375</LongitudeDegrees>
            </Position>
            <AltitudeMeters>358.79998779296875</AltitudeMeters>
            <DistanceMeters>NAN</DistanceMeters>
          </Trackpoint>
          <Trackpoint>
            <Time>2021-08-10T08:34:55.000Z</Time>
            <Position>
              <LatitudeDegrees>43.09984694235026836395263671875</LatitudeDegrees>
              <LongitudeDegrees>-1.7151157557964324951171875</LongitudeDegrees>
            </Position>
            <AltitudeMeters>358.20001220703125</AltitudeMeters>
            <DistanceMeters>NAN</DistanceMeters>
          </Trackpoint>
          <Trackpoint>
            <Time>2021-08-10T08:34:56.000Z</Time>
            <Position>
              <LatitudeDegrees>43.09993931092321872711181640625</LatitudeDegrees>
              <LongitudeDegrees>-1.7151088826358318328857421875</LongitudeDegrees>
            </Position>
            <AltitudeMeters>357.600006103515625</AltitudeMeters>
            <DistanceMeters>NAN</DistanceMeters>
          </Trackpoint>
          <Trackpoint>
            <Time>2021-08-10T08:34:58.000Z</Time>
            <Position>
              <LatitudeDegrees>43.10012002475559711456298828125</LatitudeDegrees>
              <LongitudeDegrees>-1.71514383517205715179443359375</LongitudeDegrees>
            </Position>
            <AltitudeMeters>357.20001220703125</AltitudeMeters>
            <DistanceMeters>NAN</DistanceMeters>
          </Trackpoint>
          <Trackpoint>
            <Time>2021-08-10T08:35:00.000Z</Time>
            <Position>
              <LatitudeDegrees>43.10029738582670688629150390625</LatitudeDegrees>
              <LongitudeDegrees>-1.71521323733031749725341796875</LongitudeDegrees>
            </Position>
            <AltitudeMeters>356</AltitudeMeters>
            <DistanceMeters>NAN</DistanceMeters>
          </Trackpoint>
          <Trackpoint>
            <Time>2021-08-10T08:35:02.000Z</Time>
            <Position>
              <LatitudeDegrees>43.10046804137527942657470703125</LatitudeDegrees>
              <LongitudeDegrees>-1.71527802944183349609375</LongitudeDegrees>
            </Position>
            <AltitudeMeters>355.20001220703125</AltitudeMeters>
            <DistanceMeters>NAN</DistanceMeters>
          </Trackpoint>
          <Trackpoint>
            <Time>2021-08-10T08:35:03.000Z</Time>
            <Position>
              <LatitudeDegrees>43.10055437497794628143310546875</LatitudeDegrees>
              <LongitudeDegrees>-1.7152919434010982513427734375</LongitudeDegrees>
            </Position>
            <AltitudeMeters>354.79998779296875</AltitudeMeters>
            <DistanceMeters>NAN</DistanceMeters>
          </Trackpoint>
          <Trackpoint>
            <Time>2021-08-10T08:35:04.000Z</Time>
            <Position>
              <LatitudeDegrees>43.10064557008445262908935546875</LatitudeDegrees>
              <LongitudeDegrees>-1.7152822203934192657470703125</LongitudeDegrees>
            </Position>
            <AltitudeMeters>354.399993896484375</AltitudeMeters>
            <DistanceMeters>NAN</DistanceMeters>
          </Trackpoint>
          <Trackpoint>
            <Time>2021-08-10T08:35:05.000Z</Time>
            <Position>
              <LatitudeDegrees>43.10073844157159328460693359375</LatitudeDegrees>
              <LongitudeDegrees>-1.71524290926754474639892578125</LongitudeDegrees>
            </Position>
            <AltitudeMeters>353.600006103515625</AltitudeMeters>
            <DistanceMeters>NAN</DistanceMeters>
          </Trackpoint>
          <Trackpoint>
            <Time>2021-08-10T08:35:06.000Z</Time>
            <Position>
              <LatitudeDegrees>43.10082511045038700103759765625</LatitudeDegrees>
              <LongitudeDegrees>-1.71518507413566112518310546875</LongitudeDegrees>
            </Position>
            <AltitudeMeters>353.20001220703125</AltitudeMeters>
            <DistanceMeters>NAN</DistanceMeters>
          </Trackpoint>
          <Trackpoint>
            <Time>2021-08-10T08:35:07.000Z</Time>
            <Position>
              <LatitudeDegrees>43.10089820064604282379150390625</LatitudeDegrees>
              <LongitudeDegrees>-1.715109385550022125244140625</LongitudeDegrees>
            </Position>
            <AltitudeMeters>352.399993896484375</AltitudeMeters>
            <DistanceMeters>NAN</DistanceMeters>
          </Trackpoint>
          <Trackpoint>
            <Time>2021-08-10T08:35:08.000Z</Time>
            <Position>
              <LatitudeDegrees>43.10096793808043003082275390625</LatitudeDegrees>
              <LongitudeDegrees>-1.71501760371029376983642578125</LongitudeDegrees>
            </Position>
            <AltitudeMeters>352</AltitudeMeters>
            <DistanceMeters>NAN</DistanceMeters>
          </Trackpoint>
          <Trackpoint>
            <Time>2021-08-10T08:35:09.000Z</Time>
            <Position>
              <LatitudeDegrees>43.101036585867404937744140625</LatitudeDegrees>
              <LongitudeDegrees>-1.714922301471233367919921875</LongitudeDegrees>
            </Position>
            <AltitudeMeters>351.399993896484375</AltitudeMeters>
            <DistanceMeters>NAN</DistanceMeters>
          </Trackpoint>
          <Trackpoint>
            <Time>2021-08-10T08:35:12.000Z</Time>
            <Position>
              <LatitudeDegrees>43.10122610069811344146728515625</LatitudeDegrees>
              <LongitudeDegrees>-1.71462968923151493072509765625</LongitudeDegrees>
            </Position>
            <AltitudeMeters>349.600006103515625</AltitudeMeters>
            <DistanceMeters>NAN</DistanceMeters>
          </Trackpoint>
          <Trackpoint>
            <Time>2021-08-10T08:35:14.000Z</Time>
            <Position>
              <LatitudeDegrees>43.10135082341730594635009765625</LatitudeDegrees>
              <LongitudeDegrees>-1.71442634426057338714599609375</LongitudeDegrees>
            </Position>
            <AltitudeMeters>348.399993896484375</AltitudeMeters>
            <DistanceMeters>NAN</DistanceMeters>
          </Trackpoint>
          <Trackpoint>
            <Time>2021-08-10T08:35:16.000Z</Time>
            <Position>
              <LatitudeDegrees>43.101471103727817535400390625</LatitudeDegrees>
              <LongitudeDegrees>-1.71423154883086681365966796875</LongitudeDegrees>
            </Position>
            <AltitudeMeters>347.399993896484375</AltitudeMeters>
            <DistanceMeters>NAN</DistanceMeters>
          </Trackpoint>
          <Trackpoint>
            <Time>2021-08-10T08:35:18.000Z</Time>
            <Position>
              <LatitudeDegrees>43.10157596133649349212646484375</LatitudeDegrees>
              <LongitudeDegrees>-1.71403340063989162445068359375</LongitudeDegrees>
            </Position>
            <AltitudeMeters>346.20001220703125</AltitudeMeters>
            <DistanceMeters>NAN</DistanceMeters>
          </Trackpoint>
          <Trackpoint>
            <Time>2021-08-10T08:35:19.000Z</Time>
            <Position>
              <LatitudeDegrees>43.1016301922500133514404296875</LatitudeDegrees>
              <LongitudeDegrees>-1.7139290459454059600830078125</LongitudeDegrees>
            </Position>
            <AltitudeMeters>345.600006103515625</AltitudeMeters>
            <DistanceMeters>NAN</DistanceMeters>
          </Trackpoint>
          <Trackpoint>
            <Time>2021-08-10T08:35:20.000Z</Time>
            <Position>
              <LatitudeDegrees>43.1016826629638671875</LatitudeDegrees>
              <LongitudeDegrees>-1.7138173989951610565185546875</LongitudeDegrees>
            </Position>
            <AltitudeMeters>345.20001220703125</AltitudeMeters>
            <DistanceMeters>NAN</DistanceMeters>
          </Trackpoint>
          <Trackpoint>
            <Time>2021-08-10T08:35:21.000Z</Time>
            <Position>
              <LatitudeDegrees>43.10172557830810546875</LatitudeDegrees>
              <LongitudeDegrees>-1.7137037403881549835205078125</LongitudeDegrees>
            </Position>
            <AltitudeMeters>344.399993896484375</AltitudeMeters>
            <DistanceMeters>NAN</DistanceMeters>
          </Trackpoint>
          <Trackpoint>
            <Time>2021-08-10T08:35:22.000Z</Time>
            <Position>
              <LatitudeDegrees>43.10176379978656768798828125</LatitudeDegrees>
              <LongitudeDegrees>-1.7135815322399139404296875</LongitudeDegrees>
            </Position>
            <AltitudeMeters>344</AltitudeMeters>
            <DistanceMeters>NAN</DistanceMeters>
          </Trackpoint>
          <Trackpoint>
            <Time>2021-08-10T08:35:23.000Z</Time>
            <Position>
              <LatitudeDegrees>43.1017921306192874908447265625</LatitudeDegrees>
              <LongitudeDegrees>-1.71345840208232402801513671875</LongitudeDegrees>
            </Position>
            <AltitudeMeters>343.20001220703125</AltitudeMeters>
            <DistanceMeters>NAN</DistanceMeters>
          </Trackpoint>
          <Trackpoint>
            <Time>2021-08-10T08:35:24.000Z</Time>
            <Position>
              <LatitudeDegrees>43.10182088054716587066650390625</LatitudeDegrees>
              <LongitudeDegrees>-1.713327728211879730224609375</LongitudeDegrees>
            </Position>
            <AltitudeMeters>342.600006103515625</AltitudeMeters>
            <DistanceMeters>NAN</DistanceMeters>
          </Trackpoint>
          <Trackpoint>
            <Time>2021-08-10T08:35:26.000Z</Time>
            <Position>
              <LatitudeDegrees>43.10185843147337436676025390625</LatitudeDegrees>
              <LongitudeDegrees>-1.71306327916681766510009765625</LongitudeDegrees>
            </Position>
            <AltitudeMeters>341.600006103515625</AltitudeMeters>
            <DistanceMeters>NAN</DistanceMeters>
          </Trackpoint>
          <Trackpoint>
            <Time>2021-08-10T08:35:27.000Z</Time>
            <Position>
              <LatitudeDegrees>43.1018622033298015594482421875</LatitudeDegrees>
              <LongitudeDegrees>-1.71293185092508792877197265625</LongitudeDegrees>
            </Position>
            <AltitudeMeters>341.20001220703125</AltitudeMeters>
            <DistanceMeters>NAN</DistanceMeters>
          </Trackpoint>
          <Trackpoint>
            <Time>2021-08-10T08:35:29.000Z</Time>
            <Position>
              <LatitudeDegrees>43.1018417514860630035400390625</LatitudeDegrees>
              <LongitudeDegrees>-1.7126747779548168182373046875</LongitudeDegrees>
            </Position>
            <AltitudeMeters>339.600006103515625</AltitudeMeters>
            <DistanceMeters>NAN</DistanceMeters>
          </Trackpoint>
          <Trackpoint>
            <Time>2021-08-10T08:35:30.000Z</Time>
            <Position>
              <LatitudeDegrees>43.101821132004261016845703125</LatitudeDegrees>
              <LongitudeDegrees>-1.7125453613698482513427734375</LongitudeDegrees>
            </Position>
            <AltitudeMeters>339.399993896484375</AltitudeMeters>
            <DistanceMeters>NAN</DistanceMeters>
          </Trackpoint>
          <Trackpoint>
            <Time>2021-08-10T08:35:31.000Z</Time>
            <Position>
              <LatitudeDegrees>43.101785592734813690185546875</LatitudeDegrees>
              <LongitudeDegrees>-1.7124263383448123931884765625</LongitudeDegrees>
            </Position>
            <AltitudeMeters>338.600006103515625</AltitudeMeters>
            <DistanceMeters>NAN</DistanceMeters>
          </Trackpoint>
          <Trackpoint>
            <Time>2021-08-10T08:35:32.000Z</Time>
            <Position>
              <LatitudeDegrees>43.1017403304576873779296875</LatitudeDegrees>
              <LongitudeDegrees>-1.71231192536652088165283203125</LongitudeDegrees>
            </Position>
            <AltitudeMeters>338</AltitudeMeters>
            <DistanceMeters>NAN</DistanceMeters>
          </Trackpoint>
          <Trackpoint>
            <Time>2021-08-10T08:35:33.000Z</Time>
            <Position>
              <LatitudeDegrees>43.10169431380927562713623046875</LatitudeDegrees>
              <LongitudeDegrees>-1.71220161952078342437744140625</LongitudeDegrees>
            </Position>
            <AltitudeMeters>337.20001220703125</AltitudeMeters>
            <DistanceMeters>NAN</DistanceMeters>
          </Trackpoint>
          <Trackpoint>
            <Time>2021-08-10T08:35:34.000Z</Time>
            <Position>
              <LatitudeDegrees>43.1016580201685428619384765625</LatitudeDegrees>
              <LongitudeDegrees>-1.712118722498416900634765625</LongitudeDegrees>
            </Position>
            <AltitudeMeters>337</AltitudeMeters>
            <DistanceMeters>NAN</DistanceMeters>
          </Trackpoint>
          <Trackpoint>
            <Time>2021-08-10T08:35:35.000Z</Time>
            <Position>
              <LatitudeDegrees>43.10162558220326900482177734375</LatitudeDegrees>
              <LongitudeDegrees>-1.7120122723281383514404296875</LongitudeDegrees>
            </Position>
            <AltitudeMeters>336.399993896484375</AltitudeMeters>
            <DistanceMeters>NAN</DistanceMeters>
          </Trackpoint>
          <Trackpoint>
            <Time>2021-08-10T08:35:36.000Z</Time>
            <Position>
              <LatitudeDegrees>43.10162709094583988189697265625</LatitudeDegrees>
              <LongitudeDegrees>-1.71189065091311931610107421875</LongitudeDegrees>
            </Position>
            <AltitudeMeters>335.600006103515625</AltitudeMeters>
            <DistanceMeters>NAN</DistanceMeters>
          </Trackpoint>
          <Trackpoint>
            <Time>2021-08-10T08:35:37.000Z</Time>
            <Position>
              <LatitudeDegrees>43.10164737515151500701904296875</LatitudeDegrees>
              <LongitudeDegrees>-1.7117621563374996185302734375</LongitudeDegrees>
            </Position>
            <AltitudeMeters>335.20001220703125</AltitudeMeters>
            <DistanceMeters>NAN</DistanceMeters>
          </Trackpoint>
          <Trackpoint>
            <Time>2021-08-10T08:35:38.000Z</Time>
            <Position>
              <LatitudeDegrees>43.1016858480870723724365234375</LatitudeDegrees>
              <LongitudeDegrees>-1.71165595762431621551513671875</LongitudeDegrees>
            </Position>
            <AltitudeMeters>334.600006103515625</AltitudeMeters>
            <DistanceMeters>NAN</DistanceMeters>
          </Trackpoint>
          <Trackpoint>
            <Time>2021-08-10T08:35:39.000Z</Time>
            <Position>
              <LatitudeDegrees>43.10174368321895599365234375</LatitudeDegrees>
              <LongitudeDegrees>-1.7115274630486965179443359375</LongitudeDegrees>
            </Position>
            <AltitudeMeters>334.399993896484375</AltitudeMeters>
            <DistanceMeters>NAN</DistanceMeters>
          </Trackpoint>
          <Trackpoint>
            <Time>2021-08-10T08:35:40.000Z</Time>
            <Position>
              <LatitudeDegrees>43.10179104097187519073486328125</LatitudeDegrees>
              <LongitudeDegrees>-1.71141724102199077606201171875</LongitudeDegrees>
            </Position>
            <AltitudeMeters>333.79998779296875</AltitudeMeters>
            <DistanceMeters>NAN</DistanceMeters>
          </Trackpoint>
          <Trackpoint>
            <Time>2021-08-10T08:35:41.000Z</Time>
            <Position>
              <LatitudeDegrees>43.10182440094649791717529296875</LatitudeDegrees>
              <LongitudeDegrees>-1.71132537536323070526123046875</LongitudeDegrees>
            </Position>
            <AltitudeMeters>333.600006103515625</AltitudeMeters>
            <DistanceMeters>NAN</DistanceMeters>
          </Trackpoint>
          <Trackpoint>
            <Time>2021-08-10T08:35:42.000Z</Time>
            <Position>
              <LatitudeDegrees>43.1018668971955776214599609375</LatitudeDegrees>
              <LongitudeDegrees>-1.71118556521832942962646484375</LongitudeDegrees>
            </Position>
            <AltitudeMeters>332.399993896484375</AltitudeMeters>
            <DistanceMeters>NAN</DistanceMeters>
          </Trackpoint>
          <Trackpoint>
            <Time>2021-08-10T08:35:44.000Z</Time>
            <Position>
              <LatitudeDegrees>43.10191425494849681854248046875</LatitudeDegrees>
              <LongitudeDegrees>-1.71094181947410106658935546875</LongitudeDegrees>
            </Position>
            <AltitudeMeters>331.600006103515625</AltitudeMeters>
            <DistanceMeters>NAN</DistanceMeters>
          </Trackpoint>
          <Trackpoint>
            <Time>2021-08-10T08:35:45.000Z</Time>
            <Position>
              <LatitudeDegrees>43.10192816890776157379150390625</LatitudeDegrees>
              <LongitudeDegrees>-1.71081743203103542327880859375</LongitudeDegrees>
            </Position>
            <AltitudeMeters>330.79998779296875</AltitudeMeters>
            <DistanceMeters>NAN</DistanceMeters>
          </Trackpoint>
          <Trackpoint>
            <Time>2021-08-10T08:35:47.000Z</Time>
            <Position>
              <LatitudeDegrees>43.1019280850887298583984375</LatitudeDegrees>
              <LongitudeDegrees>-1.71056128107011318206787109375</LongitudeDegrees>
            </Position>
            <AltitudeMeters>329.79998779296875</AltitudeMeters>
            <DistanceMeters>NAN</DistanceMeters>
          </Trackpoint>
          <Trackpoint>
            <Time>2021-08-10T08:35:48.000Z</Time>
            <Position>
              <LatitudeDegrees>43.10191928409039974212646484375</LatitudeDegrees>
              <LongitudeDegrees>-1.7104331217706203460693359375</LongitudeDegrees>
            </Position>
            <AltitudeMeters>329.20001220703125</AltitudeMeters>
            <DistanceMeters>NAN</DistanceMeters>
          </Trackpoint>
          <Trackpoint>
            <Time>2021-08-10T08:35:49.000Z</Time>
            <Position>
              <LatitudeDegrees>43.10190134681761264801025390625</LatitudeDegrees>
              <LongitudeDegrees>-1.7103047110140323638916015625</LongitudeDegrees>
            </Position>
            <AltitudeMeters>328.600006103515625</AltitudeMeters>
            <DistanceMeters>NAN</DistanceMeters>
          </Trackpoint>
          <Trackpoint>
            <Time>2021-08-10T08:35:51.000Z</Time>
            <Position>
              <LatitudeDegrees>43.1018323637545108795166015625</LatitudeDegrees>
              <LongitudeDegrees>-1.71006138436496257781982421875</LongitudeDegrees>
            </Position>
            <AltitudeMeters>327.399993896484375</AltitudeMeters>
            <DistanceMeters>NAN</DistanceMeters>
          </Trackpoint>
          <Trackpoint>
            <Time>2021-08-10T08:35:53.000Z</Time>
            <Position>
              <LatitudeDegrees>43.10172515921294689178466796875</LatitudeDegrees>
              <LongitudeDegrees>-1.70985661447048187255859375</LongitudeDegrees>
            </Position>
            <AltitudeMeters>326.20001220703125</AltitudeMeters>
            <DistanceMeters>NAN</DistanceMeters>
          </Trackpoint>
          <Trackpoint>
            <Time>2021-08-10T08:35:55.000Z</Time>
            <Position>
              <LatitudeDegrees>43.10160630382597446441650390625</LatitudeDegrees>
              <LongitudeDegrees>-1.7096670158207416534423828125</LongitudeDegrees>
            </Position>
            <AltitudeMeters>325</AltitudeMeters>
            <DistanceMeters>NAN</DistanceMeters>
          </Trackpoint>
          <Trackpoint>
            <Time>2021-08-10T08:35:56.000Z</Time>
            <Position>
              <LatitudeDegrees>43.1015433557331562042236328125</LatitudeDegrees>
              <LongitudeDegrees>-1.70957305468618869781494140625</LongitudeDegrees>
            </Position>
            <AltitudeMeters>324.399993896484375</AltitudeMeters>
            <DistanceMeters>NAN</DistanceMeters>
          </Trackpoint>
          <Trackpoint>
            <Time>2021-08-10T08:35:57.000Z</Time>
            <Position>
              <LatitudeDegrees>43.10148409567773342132568359375</LatitudeDegrees>
              <LongitudeDegrees>-1.7094759084284305572509765625</LongitudeDegrees>
            </Position>
            <AltitudeMeters>323.600006103515625</AltitudeMeters>
            <DistanceMeters>NAN</DistanceMeters>
          </Trackpoint>
          <Trackpoint>
            <Time>2021-08-10T08:35:59.000Z</Time>
            <Position>
              <LatitudeDegrees>43.10136037878692150115966796875</LatitudeDegrees>
              <LongitudeDegrees>-1.7092834599316120147705078125</LongitudeDegrees>
            </Position>
            <AltitudeMeters>322.399993896484375</AltitudeMeters>
            <DistanceMeters>NAN</DistanceMeters>
          </Trackpoint>
          <Trackpoint>
            <Time>2021-08-10T08:36:02.000Z</Time>
            <Position>
              <LatitudeDegrees>43.10119525529444217681884765625</LatitudeDegrees>
              <LongitudeDegrees>-1.7089941166341304779052734375</LongitudeDegrees>
            </Position>
            <AltitudeMeters>321</AltitudeMeters>
            <DistanceMeters>NAN</DistanceMeters>
          </Trackpoint>
          <Trackpoint>
            <Time>2021-08-10T08:36:03.000Z</Time>
            <Position>
              <LatitudeDegrees>43.1011403538286685943603515625</LatitudeDegrees>
              <LongitudeDegrees>-1.70891172252595424652099609375</LongitudeDegrees>
            </Position>
            <AltitudeMeters>320.399993896484375</AltitudeMeters>
            <DistanceMeters>NAN</DistanceMeters>
          </Trackpoint>
          <Trackpoint>
            <Time>2021-08-10T08:36:04.000Z</Time>
            <Position>
              <LatitudeDegrees>43.10108461417257785797119140625</LatitudeDegrees>
              <LongitudeDegrees>-1.70884408056735992431640625</LongitudeDegrees>
            </Position>
            <AltitudeMeters>319.79998779296875</AltitudeMeters>
            <DistanceMeters>NAN</DistanceMeters>
          </Trackpoint>
          <Trackpoint>
            <Time>2021-08-10T08:36:05.000Z</Time>
            <Position>
              <LatitudeDegrees>43.10102158226072788238525390625</LatitudeDegrees>
              <LongitudeDegrees>-1.7087926156818866729736328125</LongitudeDegrees>
            </Position>
            <AltitudeMeters>319.600006103515625</AltitudeMeters>
            <DistanceMeters>NAN</DistanceMeters>
          </Trackpoint>
          <Trackpoint>
            <Time>2021-08-10T08:36:06.000Z</Time>
            <Position>
              <LatitudeDegrees>43.10095184482634067535400390625</LatitudeDegrees>
              <LongitudeDegrees>-1.70875959098339080810546875</LongitudeDegrees>
            </Position>
            <AltitudeMeters>319</AltitudeMeters>
            <DistanceMeters>NAN</DistanceMeters>
          </Trackpoint>
          <Trackpoint>
            <Time>2021-08-10T08:36:07.000Z</Time>
            <Position>
              <LatitudeDegrees>43.1008862145245075225830078125</LatitudeDegrees>
              <LongitudeDegrees>-1.70874056406319141387939453125</LongitudeDegrees>
            </Position>
            <AltitudeMeters>318.79998779296875</AltitudeMeters>
            <DistanceMeters>NAN</DistanceMeters>
          </Trackpoint>
          <Trackpoint>
            <Time>2021-08-10T08:36:08.000Z</Time>
            <Position>
              <LatitudeDegrees>43.10082125477492809295654296875</LatitudeDegrees>
              <LongitudeDegrees>-1.708724386990070343017578125</LongitudeDegrees>
            </Position>
            <AltitudeMeters>318</AltitudeMeters>
            <DistanceMeters>NAN</DistanceMeters>
          </Trackpoint>
          <Trackpoint>
            <Time>2021-08-10T08:36:09.000Z</Time>
            <Position>
              <LatitudeDegrees>43.1007551215589046478271484375</LatitudeDegrees>
              <LongitudeDegrees>-1.70871022157371044158935546875</LongitudeDegrees>
            </Position>
            <AltitudeMeters>317.399993896484375</AltitudeMeters>
            <DistanceMeters>NAN</DistanceMeters>
          </Trackpoint>
          <Trackpoint>
            <Time>2021-08-10T08:36:10.000Z</Time>
            <Position>
              <LatitudeDegrees>43.1006920896470546722412109375</LatitudeDegrees>
              <LongitudeDegrees>-1.70870217494666576385498046875</LongitudeDegrees>
            </Position>
            <AltitudeMeters>317.20001220703125</AltitudeMeters>
            <DistanceMeters>NAN</DistanceMeters>
          </Trackpoint>
          <Trackpoint>
            <Time>2021-08-10T08:36:11.000Z</Time>
            <Position>
              <LatitudeDegrees>43.100644983351230621337890625</LatitudeDegrees>
              <LongitudeDegrees>-1.7086900211870670318603515625</LongitudeDegrees>
            </Position>
            <AltitudeMeters>316.399993896484375</AltitudeMeters>
            <DistanceMeters>NAN</DistanceMeters>
          </Trackpoint>
          <Trackpoint>
            <Time>2021-08-10T08:36:12.000Z</Time>
            <Position>
              <LatitudeDegrees>43.10060215182602405548095703125</LatitudeDegrees>
              <LongitudeDegrees>-1.70867702923715114593505859375</LongitudeDegrees>
            </Position>
            <AltitudeMeters>316.20001220703125</AltitudeMeters>
            <DistanceMeters>NAN</DistanceMeters>
          </Trackpoint>
          <Trackpoint>
            <Time>2021-08-10T08:36:13.000Z</Time>
            <Position>
              <LatitudeDegrees>43.10056342743337154388427734375</LatitudeDegrees>
              <LongitudeDegrees>-1.7086608521640300750732421875</LongitudeDegrees>
            </Position>
            <AltitudeMeters>315.600006103515625</AltitudeMeters>
            <DistanceMeters>NAN</DistanceMeters>
          </Trackpoint>
          <Trackpoint>
            <Time>2021-08-10T08:36:14.000Z</Time>
            <Position>
              <LatitudeDegrees>43.1005346775054931640625</LatitudeDegrees>
              <LongitudeDegrees>-1.708645932376384735107421875</LongitudeDegrees>
            </Position>
            <AltitudeMeters>315.399993896484375</AltitudeMeters>
            <DistanceMeters>NAN</DistanceMeters>
          </Trackpoint>
          <Trackpoint>
            <Time>2021-08-10T08:36:15.000Z</Time>
            <Position>
              <LatitudeDegrees>43.1005123816430568695068359375</LatitudeDegrees>
              <LongitudeDegrees>-1.70862816274166107177734375</LongitudeDegrees>
            </Position>
            <AltitudeMeters>315</AltitudeMeters>
            <DistanceMeters>NAN</DistanceMeters>
          </Trackpoint>
          <Trackpoint>
            <Time>2021-08-10T08:36:16.000Z</Time>
            <Position>
              <LatitudeDegrees>43.10050039552152156829833984375</LatitudeDegrees>
              <LongitudeDegrees>-1.708616428077220916748046875</LongitudeDegrees>
            </Position>
            <AltitudeMeters>314.79998779296875</AltitudeMeters>
            <DistanceMeters>NAN</DistanceMeters>
          </Trackpoint>
          <Trackpoint>
            <Time>2021-08-10T08:36:17.000Z</Time>
            <Position>
              <LatitudeDegrees>43.1004899181425571441650390625</LatitudeDegrees>
              <LongitudeDegrees>-1.70860108919441699981689453125</LongitudeDegrees>
            </Position>
            <AltitudeMeters>314.600006103515625</AltitudeMeters>
            <DistanceMeters>NAN</DistanceMeters>
          </Trackpoint>
          <Trackpoint>
            <Time>2021-08-10T08:36:18.000Z</Time>
            <Position>
              <LatitudeDegrees>43.1004875712096691131591796875</LatitudeDegrees>
              <LongitudeDegrees>-1.7085968144237995147705078125</LongitudeDegrees>
            </Position>
            <AltitudeMeters>314.20001220703125</AltitudeMeters>
            <DistanceMeters>NAN</DistanceMeters>
          </Trackpoint>
          <Trackpoint>
            <Time>2021-08-10T08:36:19.000Z</Time>
            <Position>
              <LatitudeDegrees>43.10048648156225681304931640625</LatitudeDegrees>
              <LongitudeDegrees>-1.70859555713832378387451171875</LongitudeDegrees>
            </Position>
            <AltitudeMeters>314.20001220703125</AltitudeMeters>
            <DistanceMeters>NAN</DistanceMeters>
          </Trackpoint>
          <Trackpoint>
            <Time>2021-08-10T08:36:20.000Z</Time>
            <Position>
              <LatitudeDegrees>43.10048497281968593597412109375</LatitudeDegrees>
              <LongitudeDegrees>-1.7085981555283069610595703125</LongitudeDegrees>
            </Position>
            <AltitudeMeters>314</AltitudeMeters>
            <DistanceMeters>NAN</DistanceMeters>
          </Trackpoint>
          <Trackpoint>
            <Time>2021-08-10T08:36:21.000Z</Time>
            <Position>
              <LatitudeDegrees>43.10048497281968593597412109375</LatitudeDegrees>
              <LongitudeDegrees>-1.7085981555283069610595703125</LongitudeDegrees>
            </Position>
            <AltitudeMeters>314</AltitudeMeters>
            <DistanceMeters>NAN</DistanceMeters>
          </Trackpoint>
          <Trackpoint>
            <Time>2021-08-10T08:38:51.000Z</Time>
            <Position>
              <LatitudeDegrees>43.10048497281968593597412109375</LatitudeDegrees>
              <LongitudeDegrees>-1.7085981555283069610595703125</LongitudeDegrees>
            </Position>
            <AltitudeMeters>313.600006103515625</AltitudeMeters>
            <DistanceMeters>NAN</DistanceMeters>
          </Trackpoint>
          <Trackpoint>
            <Time>2021-08-10T08:40:30.000Z</Time>
            <Position>
              <LatitudeDegrees>43.10048497281968593597412109375</LatitudeDegrees>
              <LongitudeDegrees>-1.7085981555283069610595703125</LongitudeDegrees>
            </Position>
            <AltitudeMeters>313.399993896484375</AltitudeMeters>
            <DistanceMeters>NAN</DistanceMeters>
          </Trackpoint>
          <Trackpoint>
            <Time>2021-08-10T08:41:40.000Z</Time>
            <Position>
              <LatitudeDegrees>43.1004850566387176513671875</LatitudeDegrees>
              <LongitudeDegrees>-1.7085649631917476654052734375</LongitudeDegrees>
            </Position>
            <AltitudeMeters>314</AltitudeMeters>
            <DistanceMeters>NAN</DistanceMeters>
          </Trackpoint>
          <Trackpoint>
            <Time>2021-08-10T08:41:44.000Z</Time>
            <Position>
              <LatitudeDegrees>43.1005180813372135162353515625</LatitudeDegrees>
              <LongitudeDegrees>-1.70840562321245670318603515625</LongitudeDegrees>
            </Position>
            <AltitudeMeters>314</AltitudeMeters>
            <DistanceMeters>NAN</DistanceMeters>
          </Trackpoint>
          <Trackpoint>
            <Time>2021-08-10T08:41:45.000Z</Time>
            <Position>
              <LatitudeDegrees>43.10054331086575984954833984375</LatitudeDegrees>
              <LongitudeDegrees>-1.70836773701012134552001953125</LongitudeDegrees>
            </Position>
            <AltitudeMeters>313.79998779296875</AltitudeMeters>
            <DistanceMeters>NAN</DistanceMeters>
          </Trackpoint>
          <Trackpoint>
            <Time>2021-08-10T08:41:46.000Z</Time>
            <Position>
              <LatitudeDegrees>43.1005703844130039215087890625</LatitudeDegrees>
              <LongitudeDegrees>-1.70833806507289409637451171875</LongitudeDegrees>
            </Position>
            <AltitudeMeters>313.600006103515625</AltitudeMeters>
            <DistanceMeters>NAN</DistanceMeters>
          </Trackpoint>
          <Trackpoint>
            <Time>2021-08-10T08:41:47.000Z</Time>
            <Position>
              <LatitudeDegrees>43.10060097835958003997802734375</LatitudeDegrees>
              <LongitudeDegrees>-1.70831300318241119384765625</LongitudeDegrees>
            </Position>
            <AltitudeMeters>313.600006103515625</AltitudeMeters>
            <DistanceMeters>NAN</DistanceMeters>
          </Trackpoint>
          <Trackpoint>
            <Time>2021-08-10T08:41:48.000Z</Time>
            <Position>
              <LatitudeDegrees>43.10063903219997882843017578125</LatitudeDegrees>
              <LongitudeDegrees>-1.70828752219676971435546875</LongitudeDegrees>
            </Position>
            <AltitudeMeters>313.399993896484375</AltitudeMeters>
            <DistanceMeters>NAN</DistanceMeters>
          </Trackpoint>
          <Trackpoint>
            <Time>2021-08-10T08:41:53.000Z</Time>
            <Position>
              <LatitudeDegrees>43.10085092671215534210205078125</LatitudeDegrees>
              <LongitudeDegrees>-1.70818132348358631134033203125</LongitudeDegrees>
            </Position>
            <AltitudeMeters>312.600006103515625</AltitudeMeters>
            <DistanceMeters>NAN</DistanceMeters>
          </Trackpoint>
          <Trackpoint>
            <Time>2021-08-10T08:41:55.000Z</Time>
            <Position>
              <LatitudeDegrees>43.1009458936750888824462890625</LatitudeDegrees>
              <LongitudeDegrees>-1.7081177048385143280029296875</LongitudeDegrees>
            </Position>
            <AltitudeMeters>312.20001220703125</AltitudeMeters>
            <DistanceMeters>NAN</DistanceMeters>
          </Trackpoint>
          <Trackpoint>
            <Time>2021-08-10T08:41:57.000Z</Time>
            <Position>
              <LatitudeDegrees>43.10103247873485088348388671875</LatitudeDegrees>
              <LongitudeDegrees>-1.70803673565387725830078125</LongitudeDegrees>
            </Position>
            <AltitudeMeters>312</AltitudeMeters>
            <DistanceMeters>NAN</DistanceMeters>
          </Trackpoint>
          <Trackpoint>
            <Time>2021-08-10T08:41:58.000Z</Time>
            <Position>
              <LatitudeDegrees>43.101069442927837371826171875</LatitudeDegrees>
              <LongitudeDegrees>-1.70798334293067455291748046875</LongitudeDegrees>
            </Position>
            <AltitudeMeters>312</AltitudeMeters>
            <DistanceMeters>NAN</DistanceMeters>
          </Trackpoint>
          <Trackpoint>
            <Time>2021-08-10T08:41:59.000Z</Time>
            <Position>
              <LatitudeDegrees>43.10109148733317852020263671875</LatitudeDegrees>
              <LongitudeDegrees>-1.7079101689159870147705078125</LongitudeDegrees>
            </Position>
            <AltitudeMeters>311.79998779296875</AltitudeMeters>
            <DistanceMeters>NAN</DistanceMeters>
          </Trackpoint>
          <Trackpoint>
            <Time>2021-08-10T08:42:00.000Z</Time>
            <Position>
              <LatitudeDegrees>43.1010947562754154205322265625</LatitudeDegrees>
              <LongitudeDegrees>-1.70782148838043212890625</LongitudeDegrees>
            </Position>
            <AltitudeMeters>311.399993896484375</AltitudeMeters>
            <DistanceMeters>NAN</DistanceMeters>
          </Trackpoint>
          <Trackpoint>
            <Time>2021-08-10T08:42:02.000Z</Time>
            <Position>
              <LatitudeDegrees>43.10108411125838756561279296875</LatitudeDegrees>
              <LongitudeDegrees>-1.70763582922518253326416015625</LongitudeDegrees>
            </Position>
            <AltitudeMeters>311</AltitudeMeters>
            <DistanceMeters>NAN</DistanceMeters>
          </Trackpoint>
          <Trackpoint>
            <Time>2021-08-10T08:42:04.000Z</Time>
            <Position>
              <LatitudeDegrees>43.10111797414720058441162109375</LatitudeDegrees>
              <LongitudeDegrees>-1.7074642516672611236572265625</LongitudeDegrees>
            </Position>
            <AltitudeMeters>310.600006103515625</AltitudeMeters>
            <DistanceMeters>NAN</DistanceMeters>
          </Trackpoint>
          <Trackpoint>
            <Time>2021-08-10T08:42:05.000Z</Time>
            <Position>
              <LatitudeDegrees>43.1011608056724071502685546875</LatitudeDegrees>
              <LongitudeDegrees>-1.70741756446659564971923828125</LongitudeDegrees>
            </Position>
            <AltitudeMeters>310.399993896484375</AltitudeMeters>
            <DistanceMeters>NAN</DistanceMeters>
          </Trackpoint>
          <Trackpoint>
            <Time>2021-08-10T08:42:06.000Z</Time>
            <Position>
              <LatitudeDegrees>43.101218640804290771484375</LatitudeDegrees>
              <LongitudeDegrees>-1.7074032314121723175048828125</LongitudeDegrees>
            </Position>
            <AltitudeMeters>310</AltitudeMeters>
            <DistanceMeters>NAN</DistanceMeters>
          </Trackpoint>
          <Trackpoint>
            <Time>2021-08-10T08:42:08.000Z</Time>
            <Position>
              <LatitudeDegrees>43.1013378314673900604248046875</LatitudeDegrees>
              <LongitudeDegrees>-1.70745871961116790771484375</LongitudeDegrees>
            </Position>
            <AltitudeMeters>309.20001220703125</AltitudeMeters>
            <DistanceMeters>NAN</DistanceMeters>
          </Trackpoint>
          <Trackpoint>
            <Time>2021-08-10T08:42:09.000Z</Time>
            <Position>
              <LatitudeDegrees>43.1013911403715610504150390625</LatitudeDegrees>
              <LongitudeDegrees>-1.7075229249894618988037109375</LongitudeDegrees>
            </Position>
            <AltitudeMeters>309</AltitudeMeters>
            <DistanceMeters>NAN</DistanceMeters>
          </Trackpoint>
          <Trackpoint>
            <Time>2021-08-10T08:42:10.000Z</Time>
            <Position>
              <LatitudeDegrees>43.10144201852381229400634765625</LatitudeDegrees>
              <LongitudeDegrees>-1.70759945176541805267333984375</LongitudeDegrees>
            </Position>
            <AltitudeMeters>308.600006103515625</AltitudeMeters>
            <DistanceMeters>NAN</DistanceMeters>
          </Trackpoint>
          <Trackpoint>
            <Time>2021-08-10T08:42:11.000Z</Time>
            <Position>
              <LatitudeDegrees>43.10149180702865123748779296875</LatitudeDegrees>
              <LongitudeDegrees>-1.70767975039780139923095703125</LongitudeDegrees>
            </Position>
            <AltitudeMeters>308.20001220703125</AltitudeMeters>
            <DistanceMeters>NAN</DistanceMeters>
          </Trackpoint>
          <Trackpoint>
            <Time>2021-08-10T08:42:13.000Z</Time>
            <Position>
              <LatitudeDegrees>43.10160311870276927947998046875</LatitudeDegrees>
              <LongitudeDegrees>-1.70783146284520626068115234375</LongitudeDegrees>
            </Position>
            <AltitudeMeters>307.399993896484375</AltitudeMeters>
            <DistanceMeters>NAN</DistanceMeters>
          </Trackpoint>
          <Trackpoint>
            <Time>2021-08-10T08:42:14.000Z</Time>
            <Position>
              <LatitudeDegrees>43.101670257747173309326171875</LatitudeDegrees>
              <LongitudeDegrees>-1.70790086500346660614013671875</LongitudeDegrees>
            </Position>
            <AltitudeMeters>306.600006103515625</AltitudeMeters>
            <DistanceMeters>NAN</DistanceMeters>
          </Trackpoint>
          <Trackpoint>
            <Time>2021-08-10T08:42:17.000Z</Time>
            <Position>
              <LatitudeDegrees>43.10189313255250453948974609375</LatitudeDegrees>
              <LongitudeDegrees>-1.7080861888825893402099609375</LongitudeDegrees>
            </Position>
            <AltitudeMeters>305.399993896484375</AltitudeMeters>
            <DistanceMeters>NAN</DistanceMeters>
          </Trackpoint>
          <Trackpoint>
            <Time>2021-08-10T08:42:19.000Z</Time>
            <Position>
              <LatitudeDegrees>43.10204685665667057037353515625</LatitudeDegrees>
              <LongitudeDegrees>-1.70819993130862712860107421875</LongitudeDegrees>
            </Position>
            <AltitudeMeters>304.20001220703125</AltitudeMeters>
            <DistanceMeters>NAN</DistanceMeters>
          </Trackpoint>
          <Trackpoint>
            <Time>2021-08-10T08:42:20.000Z</Time>
            <Position>
              <LatitudeDegrees>43.10212782584130764007568359375</LatitudeDegrees>
              <LongitudeDegrees>-1.7082565091550350189208984375</LongitudeDegrees>
            </Position>
            <AltitudeMeters>303.600006103515625</AltitudeMeters>
            <DistanceMeters>NAN</DistanceMeters>
          </Trackpoint>
          <Trackpoint>
            <Time>2021-08-10T08:42:21.000Z</Time>
            <Position>
              <LatitudeDegrees>43.10220896266400814056396484375</LatitudeDegrees>
              <LongitudeDegrees>-1.708303280174732208251953125</LongitudeDegrees>
            </Position>
            <AltitudeMeters>302.79998779296875</AltitudeMeters>
            <DistanceMeters>NAN</DistanceMeters>
          </Trackpoint>
          <Trackpoint>
            <Time>2021-08-10T08:42:23.000Z</Time>
            <Position>
              <LatitudeDegrees>43.10237743891775608062744140625</LatitudeDegrees>
              <LongitudeDegrees>-1.70837737619876861572265625</LongitudeDegrees>
            </Position>
            <AltitudeMeters>301.600006103515625</AltitudeMeters>
            <DistanceMeters>NAN</DistanceMeters>
          </Trackpoint>
          <Trackpoint>
            <Time>2021-08-10T08:42:24.000Z</Time>
            <Position>
              <LatitudeDegrees>43.1024657003581523895263671875</LatitudeDegrees>
              <LongitudeDegrees>-1.70839481055736541748046875</LongitudeDegrees>
            </Position>
            <AltitudeMeters>301.20001220703125</AltitudeMeters>
            <DistanceMeters>NAN</DistanceMeters>
          </Trackpoint>
          <Trackpoint>
            <Time>2021-08-10T08:42:25.000Z</Time>
            <Position>
              <LatitudeDegrees>43.1025562249124050140380859375</LatitudeDegrees>
              <LongitudeDegrees>-1.70839858241379261016845703125</LongitudeDegrees>
            </Position>
            <AltitudeMeters>300.399993896484375</AltitudeMeters>
            <DistanceMeters>NAN</DistanceMeters>
          </Trackpoint>
          <Trackpoint>
            <Time>2021-08-10T08:42:27.000Z</Time>
            <Position>
              <LatitudeDegrees>43.102745823562145233154296875</LatitudeDegrees>
              <LongitudeDegrees>-1.70837025158107280731201171875</LongitudeDegrees>
            </Position>
            <AltitudeMeters>299.399993896484375</AltitudeMeters>
            <DistanceMeters>NAN</DistanceMeters>
          </Trackpoint>
          <Trackpoint>
            <Time>2021-08-10T08:42:28.000Z</Time>
            <Position>
              <LatitudeDegrees>43.10284070670604705810546875</LatitudeDegrees>
              <LongitudeDegrees>-1.70834829099476337432861328125</LongitudeDegrees>
            </Position>
            <AltitudeMeters>298.600006103515625</AltitudeMeters>
            <DistanceMeters>NAN</DistanceMeters>
          </Trackpoint>
          <Trackpoint>
            <Time>2021-08-10T08:42:29.000Z</Time>
            <Position>
              <LatitudeDegrees>43.10293952934443950653076171875</LatitudeDegrees>
              <LongitudeDegrees>-1.70832079835236072540283203125</LongitudeDegrees>
            </Position>
            <AltitudeMeters>298</AltitudeMeters>
            <DistanceMeters>NAN</DistanceMeters>
          </Trackpoint>
          <Trackpoint>
            <Time>2021-08-10T08:42:32.000Z</Time>
            <Position>
              <LatitudeDegrees>43.10323725454509258270263671875</LatitudeDegrees>
              <LongitudeDegrees>-1.70824033208191394805908203125</LongitudeDegrees>
            </Position>
            <AltitudeMeters>296.20001220703125</AltitudeMeters>
            <DistanceMeters>NAN</DistanceMeters>
          </Trackpoint>
          <Trackpoint>
            <Time>2021-08-10T08:42:34.000Z</Time>
            <Position>
              <LatitudeDegrees>43.10343992896378040313720703125</LatitudeDegrees>
              <LongitudeDegrees>-1.70818853192031383514404296875</LongitudeDegrees>
            </Position>
            <AltitudeMeters>295.20001220703125</AltitudeMeters>
            <DistanceMeters>NAN</DistanceMeters>
          </Trackpoint>
          <Trackpoint>
            <Time>2021-08-10T08:42:35.000Z</Time>
            <Position>
              <LatitudeDegrees>43.1035389192402362823486328125</LatitudeDegrees>
              <LongitudeDegrees>-1.7081622965633869171142578125</LongitudeDegrees>
            </Position>
            <AltitudeMeters>294.399993896484375</AltitudeMeters>
            <DistanceMeters>NAN</DistanceMeters>
          </Trackpoint>
          <Trackpoint>
            <Time>2021-08-10T08:42:38.000Z</Time>
            <Position>
              <LatitudeDegrees>43.10384385287761688232421875</LatitudeDegrees>
              <LongitudeDegrees>-1.7080784775316715240478515625</LongitudeDegrees>
            </Position>
            <AltitudeMeters>293</AltitudeMeters>
            <DistanceMeters>NAN</DistanceMeters>
          </Trackpoint>
          <Trackpoint>
            <Time>2021-08-10T08:42:40.000Z</Time>
            <Position>
              <LatitudeDegrees>43.10404174961149692535400390625</LatitudeDegrees>
              <LongitudeDegrees>-1.708025000989437103271484375</LongitudeDegrees>
            </Position>
            <AltitudeMeters>291.399993896484375</AltitudeMeters>
            <DistanceMeters>NAN</DistanceMeters>
          </Trackpoint>
          <Trackpoint>
            <Time>2021-08-10T08:42:42.000Z</Time>
            <Position>
              <LatitudeDegrees>43.104237802326679229736328125</LatitudeDegrees>
              <LongitudeDegrees>-1.70796859078109264373779296875</LongitudeDegrees>
            </Position>
            <AltitudeMeters>290</AltitudeMeters>
            <DistanceMeters>NAN</DistanceMeters>
          </Trackpoint>
          <Trackpoint>
            <Time>2021-08-10T08:42:44.000Z</Time>
            <Position>
              <LatitudeDegrees>43.10443318448960781097412109375</LatitudeDegrees>
              <LongitudeDegrees>-1.707911677658557891845703125</LongitudeDegrees>
            </Position>
            <AltitudeMeters>288.79998779296875</AltitudeMeters>
            <DistanceMeters>NAN</DistanceMeters>
          </Trackpoint>
          <Trackpoint>
            <Time>2021-08-10T08:42:46.000Z</Time>
            <Position>
              <LatitudeDegrees>43.104626052081584930419921875</LatitudeDegrees>
              <LongitudeDegrees>-1.70781947672367095947265625</LongitudeDegrees>
            </Position>
            <AltitudeMeters>287.600006103515625</AltitudeMeters>
            <DistanceMeters>NAN</DistanceMeters>
          </Trackpoint>
          <Trackpoint>
            <Time>2021-08-10T08:42:47.000Z</Time>
            <Position>
              <LatitudeDegrees>43.1047167442739009857177734375</LatitudeDegrees>
              <LongitudeDegrees>-1.70776172541081905364990234375</LongitudeDegrees>
            </Position>
            <AltitudeMeters>286.399993896484375</AltitudeMeters>
            <DistanceMeters>NAN</DistanceMeters>
          </Trackpoint>
          <Trackpoint>
            <Time>2021-08-10T08:42:48.000Z</Time>
            <Position>
              <LatitudeDegrees>43.10479930602014064788818359375</LatitudeDegrees>
              <LongitudeDegrees>-1.7076888866722583770751953125</LongitudeDegrees>
            </Position>
            <AltitudeMeters>285.79998779296875</AltitudeMeters>
            <DistanceMeters>NAN</DistanceMeters>
          </Trackpoint>
          <Trackpoint>
            <Time>2021-08-10T08:42:49.000Z</Time>
            <Position>
              <LatitudeDegrees>43.10487507842481136322021484375</LatitudeDegrees>
              <LongitudeDegrees>-1.70759459026157855987548828125</LongitudeDegrees>
            </Position>
            <AltitudeMeters>285.20001220703125</AltitudeMeters>
            <DistanceMeters>NAN</DistanceMeters>
          </Trackpoint>
          <Trackpoint>
            <Time>2021-08-10T08:42:50.000Z</Time>
            <Position>
              <LatitudeDegrees>43.10494112782180309295654296875</LatitudeDegrees>
              <LongitudeDegrees>-1.7074850387871265411376953125</LongitudeDegrees>
            </Position>
            <AltitudeMeters>284.79998779296875</AltitudeMeters>
            <DistanceMeters>NAN</DistanceMeters>
          </Trackpoint>
          <Trackpoint>
            <Time>2021-08-10T08:42:51.000Z</Time>
            <Position>
              <LatitudeDegrees>43.1049993820488452911376953125</LatitudeDegrees>
              <LongitudeDegrees>-1.70737062580883502960205078125</LongitudeDegrees>
            </Position>
            <AltitudeMeters>284.20001220703125</AltitudeMeters>
            <DistanceMeters>NAN</DistanceMeters>
          </Trackpoint>
          <Trackpoint>
            <Time>2021-08-10T08:42:52.000Z</Time>
            <Position>
              <LatitudeDegrees>43.10505487024784088134765625</LatitudeDegrees>
              <LongitudeDegrees>-1.70725076459348201751708984375</LongitudeDegrees>
            </Position>
            <AltitudeMeters>283.79998779296875</AltitudeMeters>
            <DistanceMeters>NAN</DistanceMeters>
          </Trackpoint>
          <Trackpoint>
            <Time>2021-08-10T08:42:53.000Z</Time>
            <Position>
              <LatitudeDegrees>43.1051177345216274261474609375</LatitudeDegrees>
              <LongitudeDegrees>-1.70713526196777820587158203125</LongitudeDegrees>
            </Position>
            <AltitudeMeters>283</AltitudeMeters>
            <DistanceMeters>NAN</DistanceMeters>
          </Trackpoint>
          <Trackpoint>
            <Time>2021-08-10T08:42:54.000Z</Time>
            <Position>
              <LatitudeDegrees>43.10519090853631496429443359375</LatitudeDegrees>
              <LongitudeDegrees>-1.7070307396352291107177734375</LongitudeDegrees>
            </Position>
            <AltitudeMeters>282.399993896484375</AltitudeMeters>
            <DistanceMeters>NAN</DistanceMeters>
          </Trackpoint>
          <Trackpoint>
            <Time>2021-08-10T08:42:55.000Z</Time>
            <Position>
              <LatitudeDegrees>43.10526810586452484130859375</LatitudeDegrees>
              <LongitudeDegrees>-1.7069321684539318084716796875</LongitudeDegrees>
            </Position>
            <AltitudeMeters>282</AltitudeMeters>
            <DistanceMeters>NAN</DistanceMeters>
          </Trackpoint>
          <Trackpoint>
            <Time>2021-08-10T08:42:56.000Z</Time>
            <Position>
              <LatitudeDegrees>43.1053413636982440948486328125</LatitudeDegrees>
              <LongitudeDegrees>-1.7068302445113658905029296875</LongitudeDegrees>
            </Position>
            <AltitudeMeters>281</AltitudeMeters>
            <DistanceMeters>NAN</DistanceMeters>
          </Trackpoint>
          <Trackpoint>
            <Time>2021-08-10T08:42:58.000Z</Time>
            <Position>
              <LatitudeDegrees>43.10547807253897190093994140625</LatitudeDegrees>
              <LongitudeDegrees>-1.70661172829568386077880859375</LongitudeDegrees>
            </Position>
            <AltitudeMeters>280</AltitudeMeters>
            <DistanceMeters>NAN</DistanceMeters>
          </Trackpoint>
          <Trackpoint>
            <Time>2021-08-10T08:43:00.000Z</Time>
            <Position>
              <LatitudeDegrees>43.10560799203813076019287109375</LatitudeDegrees>
              <LongitudeDegrees>-1.7063853330910205841064453125</LongitudeDegrees>
            </Position>
            <AltitudeMeters>278.600006103515625</AltitudeMeters>
            <DistanceMeters>NAN</DistanceMeters>
          </Trackpoint>
          <Trackpoint>
            <Time>2021-08-10T08:43:01.000Z</Time>
            <Position>
              <LatitudeDegrees>43.1056697666645050048828125</LatitudeDegrees>
              <LongitudeDegrees>-1.7062699981033802032470703125</LongitudeDegrees>
            </Position>
            <AltitudeMeters>277.600006103515625</AltitudeMeters>
            <DistanceMeters>NAN</DistanceMeters>
          </Trackpoint>
          <Trackpoint>
            <Time>2021-08-10T08:43:03.000Z</Time>
            <Position>
              <LatitudeDegrees>43.10579004697501659393310546875</LatitudeDegrees>
              <LongitudeDegrees>-1.7060366459190845489501953125</LongitudeDegrees>
            </Position>
            <AltitudeMeters>276.399993896484375</AltitudeMeters>
            <DistanceMeters>NAN</DistanceMeters>
          </Trackpoint>
          <Trackpoint>
            <Time>2021-08-10T08:43:05.000Z</Time>
            <Position>
              <LatitudeDegrees>43.1058878637850284576416015625</LatitudeDegrees>
              <LongitudeDegrees>-1.70578057877719402313232421875</LongitudeDegrees>
            </Position>
            <AltitudeMeters>275.20001220703125</AltitudeMeters>
            <DistanceMeters>NAN</DistanceMeters>
          </Trackpoint>
          <Trackpoint>
            <Time>2021-08-10T08:43:06.000Z</Time>
            <Position>
              <LatitudeDegrees>43.10591661371290683746337890625</LatitudeDegrees>
              <LongitudeDegrees>-1.705644540488719940185546875</LongitudeDegrees>
            </Position>
            <AltitudeMeters>275</AltitudeMeters>
            <DistanceMeters>NAN</DistanceMeters>
          </Trackpoint>
          <Trackpoint>
            <Time>2021-08-10T08:43:07.000Z</Time>
            <Position>
              <LatitudeDegrees>43.10593941248953342437744140625</LatitudeDegrees>
              <LongitudeDegrees>-1.7055069096386432647705078125</LongitudeDegrees>
            </Position>
            <AltitudeMeters>274.20001220703125</AltitudeMeters>
            <DistanceMeters>NAN</DistanceMeters>
          </Trackpoint>
          <Trackpoint>
            <Time>2021-08-10T08:43:09.000Z</Time>
            <Position>
              <LatitudeDegrees>43.1059824116528034210205078125</LatitudeDegrees>
              <LongitudeDegrees>-1.7052262835204601287841796875</LongitudeDegrees>
            </Position>
            <AltitudeMeters>272.600006103515625</AltitudeMeters>
            <DistanceMeters>NAN</DistanceMeters>
          </Trackpoint>
          <Trackpoint>
            <Time>2021-08-10T08:43:12.000Z</Time>
            <Position>
              <LatitudeDegrees>43.106024824082851409912109375</LatitudeDegrees>
              <LongitudeDegrees>-1.70481230132281780242919921875</LongitudeDegrees>
            </Position>
            <AltitudeMeters>271</AltitudeMeters>
            <DistanceMeters>NAN</DistanceMeters>
          </Trackpoint>
          <Trackpoint>
            <Time>2021-08-10T08:43:14.000Z</Time>
            <Position>
              <LatitudeDegrees>43.10606681741774082183837890625</LatitudeDegrees>
              <LongitudeDegrees>-1.704546511173248291015625</LongitudeDegrees>
            </Position>
            <AltitudeMeters>270</AltitudeMeters>
            <DistanceMeters>NAN</DistanceMeters>
          </Trackpoint>
          <Trackpoint>
            <Time>2021-08-10T08:43:15.000Z</Time>
            <Position>
              <LatitudeDegrees>43.10611677356064319610595703125</LatitudeDegrees>
              <LongitudeDegrees>-1.70442438684403896331787109375</LongitudeDegrees>
            </Position>
            <AltitudeMeters>269.399993896484375</AltitudeMeters>
            <DistanceMeters>NAN</DistanceMeters>
          </Trackpoint>
          <Trackpoint>
            <Time>2021-08-10T08:43:16.000Z</Time>
            <Position>
              <LatitudeDegrees>43.10618047602474689483642578125</LatitudeDegrees>
              <LongitudeDegrees>-1.70431726612150669097900390625</LongitudeDegrees>
            </Position>
            <AltitudeMeters>268.79998779296875</AltitudeMeters>
            <DistanceMeters>NAN</DistanceMeters>
          </Trackpoint>
          <Trackpoint>
            <Time>2021-08-10T08:43:17.000Z</Time>
            <Position>
              <LatitudeDegrees>43.10623847879469394683837890625</LatitudeDegrees>
              <LongitudeDegrees>-1.704241745173931121826171875</LongitudeDegrees>
            </Position>
            <AltitudeMeters>267.79998779296875</AltitudeMeters>
            <DistanceMeters>NAN</DistanceMeters>
          </Trackpoint>
          <Trackpoint>
            <Time>2021-08-10T08:43:18.000Z</Time>
            <Position>
              <LatitudeDegrees>43.10632095672190189361572265625</LatitudeDegrees>
              <LongitudeDegrees>-1.70415147207677364349365234375</LongitudeDegrees>
            </Position>
            <AltitudeMeters>267.399993896484375</AltitudeMeters>
            <DistanceMeters>NAN</DistanceMeters>
          </Trackpoint>
          <Trackpoint>
            <Time>2021-08-10T08:43:19.000Z</Time>
            <Position>
              <LatitudeDegrees>43.10641500167548656463623046875</LatitudeDegrees>
              <LongitudeDegrees>-1.70403965748846530914306640625</LongitudeDegrees>
            </Position>
            <AltitudeMeters>267</AltitudeMeters>
            <DistanceMeters>NAN</DistanceMeters>
          </Trackpoint>
          <Trackpoint>
            <Time>2021-08-10T08:43:20.000Z</Time>
            <Position>
              <LatitudeDegrees>43.10649429447948932647705078125</LatitudeDegrees>
              <LongitudeDegrees>-1.70394527725875377655029296875</LongitudeDegrees>
            </Position>
            <AltitudeMeters>266.600006103515625</AltitudeMeters>
            <DistanceMeters>NAN</DistanceMeters>
          </Trackpoint>
          <Trackpoint>
            <Time>2021-08-10T08:43:22.000Z</Time>
            <Position>
              <LatitudeDegrees>43.106651119887828826904296875</LatitudeDegrees>
              <LongitudeDegrees>-1.70375098474323749542236328125</LongitudeDegrees>
            </Position>
            <AltitudeMeters>264.79998779296875</AltitudeMeters>
            <DistanceMeters>NAN</DistanceMeters>
          </Trackpoint>
          <Trackpoint>
            <Time>2021-08-10T08:43:24.000Z</Time>
            <Position>
              <LatitudeDegrees>43.1068018265068531036376953125</LatitudeDegrees>
              <LongitudeDegrees>-1.70354596339166164398193359375</LongitudeDegrees>
            </Position>
            <AltitudeMeters>263.399993896484375</AltitudeMeters>
            <DistanceMeters>NAN</DistanceMeters>
          </Trackpoint>
          <Trackpoint>
            <Time>2021-08-10T08:43:25.000Z</Time>
            <Position>
              <LatitudeDegrees>43.1068705581128597259521484375</LatitudeDegrees>
              <LongitudeDegrees>-1.703437082469463348388671875</LongitudeDegrees>
            </Position>
            <AltitudeMeters>262.79998779296875</AltitudeMeters>
            <DistanceMeters>NAN</DistanceMeters>
          </Trackpoint>
          <Trackpoint>
            <Time>2021-08-10T08:43:26.000Z</Time>
            <Position>
              <LatitudeDegrees>43.10692973434925079345703125</LatitudeDegrees>
              <LongitudeDegrees>-1.7033229209482669830322265625</LongitudeDegrees>
            </Position>
            <AltitudeMeters>262.20001220703125</AltitudeMeters>
            <DistanceMeters>NAN</DistanceMeters>
          </Trackpoint>
          <Trackpoint>
            <Time>2021-08-10T08:43:28.000Z</Time>
            <Position>
              <LatitudeDegrees>43.1069999746978282928466796875</LatitudeDegrees>
              <LongitudeDegrees>-1.7031002976000308990478515625</LongitudeDegrees>
            </Position>
            <AltitudeMeters>260.600006103515625</AltitudeMeters>
            <DistanceMeters>NAN</DistanceMeters>
          </Trackpoint>
          <Trackpoint>
            <Time>2021-08-10T08:43:30.000Z</Time>
            <Position>
              <LatitudeDegrees>43.10704582370817661285400390625</LatitudeDegrees>
              <LongitudeDegrees>-1.70281045138835906982421875</LongitudeDegrees>
            </Position>
            <AltitudeMeters>259.399993896484375</AltitudeMeters>
            <DistanceMeters>NAN</DistanceMeters>
          </Trackpoint>
          <Trackpoint>
            <Time>2021-08-10T08:43:31.000Z</Time>
            <Position>
              <LatitudeDegrees>43.107049763202667236328125</LatitudeDegrees>
              <LongitudeDegrees>-1.70267709530889987945556640625</LongitudeDegrees>
            </Position>
            <AltitudeMeters>258.600006103515625</AltitudeMeters>
            <DistanceMeters>NAN</DistanceMeters>
          </Trackpoint>
          <Trackpoint>
            <Time>2021-08-10T08:43:32.000Z</Time>
            <Position>
              <LatitudeDegrees>43.107047416269779205322265625</LatitudeDegrees>
              <LongitudeDegrees>-1.7025417275726795196533203125</LongitudeDegrees>
            </Position>
            <AltitudeMeters>258</AltitudeMeters>
            <DistanceMeters>NAN</DistanceMeters>
          </Trackpoint>
          <Trackpoint>
            <Time>2021-08-10T08:43:34.000Z</Time>
            <Position>
              <LatitudeDegrees>43.10702218674123287200927734375</LatitudeDegrees>
              <LongitudeDegrees>-1.70227593742311000823974609375</LongitudeDegrees>
            </Position>
            <AltitudeMeters>256.20001220703125</AltitudeMeters>
            <DistanceMeters>NAN</DistanceMeters>
          </Trackpoint>
          <Trackpoint>
            <Time>2021-08-10T08:43:35.000Z</Time>
            <Position>
              <LatitudeDegrees>43.107007853686809539794921875</LatitudeDegrees>
              <LongitudeDegrees>-1.7021407373249530792236328125</LongitudeDegrees>
            </Position>
            <AltitudeMeters>256</AltitudeMeters>
            <DistanceMeters>NAN</DistanceMeters>
          </Trackpoint>
          <Trackpoint>
            <Time>2021-08-10T08:43:36.000Z</Time>
            <Position>
              <LatitudeDegrees>43.10699368827044963836669921875</LatitudeDegrees>
              <LongitudeDegrees>-1.70200587250292301177978515625</LongitudeDegrees>
            </Position>
            <AltitudeMeters>255.600006103515625</AltitudeMeters>
            <DistanceMeters>NAN</DistanceMeters>
          </Trackpoint>
          <Trackpoint>
            <Time>2021-08-10T08:43:37.000Z</Time>
            <Position>
              <LatitudeDegrees>43.1069781817495822906494140625</LatitudeDegrees>
              <LongitudeDegrees>-1.7018939740955829620361328125</LongitudeDegrees>
            </Position>
            <AltitudeMeters>255</AltitudeMeters>
            <DistanceMeters>NAN</DistanceMeters>
          </Trackpoint>
          <Trackpoint>
            <Time>2021-08-10T08:43:38.000Z</Time>
            <Position>
              <LatitudeDegrees>43.1069791875779628753662109375</LatitudeDegrees>
              <LongitudeDegrees>-1.70172675512731075286865234375</LongitudeDegrees>
            </Position>
            <AltitudeMeters>254.8000030517578125</AltitudeMeters>
            <DistanceMeters>NAN</DistanceMeters>
          </Trackpoint>
          <Trackpoint>
            <Time>2021-08-10T08:43:40.000Z</Time>
            <Position>
              <LatitudeDegrees>43.10701967217028141021728515625</LatitudeDegrees>
              <LongitudeDegrees>-1.7014510743319988250732421875</LongitudeDegrees>
            </Position>
            <AltitudeMeters>254</AltitudeMeters>
            <DistanceMeters>NAN</DistanceMeters>
          </Trackpoint>
          <Trackpoint>
            <Time>2021-08-10T08:43:41.000Z</Time>
            <Position>
              <LatitudeDegrees>43.10705454088747501373291015625</LatitudeDegrees>
              <LongitudeDegrees>-1.70132291503250598907470703125</LongitudeDegrees>
            </Position>
            <AltitudeMeters>253.1999969482421875</AltitudeMeters>
            <DistanceMeters>NAN</DistanceMeters>
          </Trackpoint>
          <Trackpoint>
            <Time>2021-08-10T08:43:42.000Z</Time>
            <Position>
              <LatitudeDegrees>43.10708664357662200927734375</LatitudeDegrees>
              <LongitudeDegrees>-1.70122283510863780975341796875</LongitudeDegrees>
            </Position>
            <AltitudeMeters>252.8000030517578125</AltitudeMeters>
            <DistanceMeters>NAN</DistanceMeters>
          </Trackpoint>
          <Trackpoint>
            <Time>2021-08-10T08:43:44.000Z</Time>
            <Position>
              <LatitudeDegrees>43.10717725194990634918212890625</LatitudeDegrees>
              <LongitudeDegrees>-1.700945980846881866455078125</LongitudeDegrees>
            </Position>
            <AltitudeMeters>251.8000030517578125</AltitudeMeters>
            <DistanceMeters>NAN</DistanceMeters>
          </Trackpoint>
          <Trackpoint>
            <Time>2021-08-10T08:43:46.000Z</Time>
            <Position>
              <LatitudeDegrees>43.10724581591784954071044921875</LatitudeDegrees>
              <LongitudeDegrees>-1.7006854712963104248046875</LongitudeDegrees>
            </Position>
            <AltitudeMeters>250.600006103515625</AltitudeMeters>
            <DistanceMeters>NAN</DistanceMeters>
          </Trackpoint>
          <Trackpoint>
            <Time>2021-08-10T08:43:48.000Z</Time>
            <Position>
              <LatitudeDegrees>43.10728378593921661376953125</LatitudeDegrees>
              <LongitudeDegrees>-1.7004056833684444427490234375</LongitudeDegrees>
            </Position>
            <AltitudeMeters>249</AltitudeMeters>
            <DistanceMeters>NAN</DistanceMeters>
          </Trackpoint>
          <Trackpoint>
            <Time>2021-08-10T08:43:50.000Z</Time>
            <Position>
              <LatitudeDegrees>43.10728454031050205230712890625</LatitudeDegrees>
              <LongitudeDegrees>-1.70011751353740692138671875</LongitudeDegrees>
            </Position>
            <AltitudeMeters>248</AltitudeMeters>
            <DistanceMeters>NAN</DistanceMeters>
          </Trackpoint>
          <Trackpoint>
            <Time>2021-08-10T08:43:51.000Z</Time>
            <Position>
              <LatitudeDegrees>43.107273392379283905029296875</LatitudeDegrees>
              <LongitudeDegrees>-1.6999718360602855682373046875</LongitudeDegrees>
            </Position>
            <AltitudeMeters>247.600006103515625</AltitudeMeters>
            <DistanceMeters>NAN</DistanceMeters>
          </Trackpoint>
          <Trackpoint>
            <Time>2021-08-10T08:43:52.000Z</Time>
            <Position>
              <LatitudeDegrees>43.107253275811672210693359375</LatitudeDegrees>
              <LongitudeDegrees>-1.69983110390603542327880859375</LongitudeDegrees>
            </Position>
            <AltitudeMeters>246.399993896484375</AltitudeMeters>
            <DistanceMeters>NAN</DistanceMeters>
          </Trackpoint>
          <Trackpoint>
            <Time>2021-08-10T08:43:54.000Z</Time>
            <Position>
              <LatitudeDegrees>43.10719921253621578216552734375</LatitudeDegrees>
              <LongitudeDegrees>-1.69955483637750148773193359375</LongitudeDegrees>
            </Position>
            <AltitudeMeters>245.1999969482421875</AltitudeMeters>
            <DistanceMeters>NAN</DistanceMeters>
          </Trackpoint>
          <Trackpoint>
            <Time>2021-08-10T08:43:56.000Z</Time>
            <Position>
              <LatitudeDegrees>43.10714037157595157623291015625</LatitudeDegrees>
              <LongitudeDegrees>-1.6992872022092342376708984375</LongitudeDegrees>
            </Position>
            <AltitudeMeters>244</AltitudeMeters>
            <DistanceMeters>NAN</DistanceMeters>
          </Trackpoint>
          <Trackpoint>
            <Time>2021-08-10T08:43:57.000Z</Time>
            <Position>
              <LatitudeDegrees>43.10712176375091075897216796875</LatitudeDegrees>
              <LongitudeDegrees>-1.69915585778653621673583984375</LongitudeDegrees>
            </Position>
            <AltitudeMeters>243.1999969482421875</AltitudeMeters>
            <DistanceMeters>NAN</DistanceMeters>
          </Trackpoint>
          <Trackpoint>
            <Time>2021-08-10T08:43:58.000Z</Time>
            <Position>
              <LatitudeDegrees>43.1071240268647670745849609375</LatitudeDegrees>
              <LongitudeDegrees>-1.69902049005031585693359375</LongitudeDegrees>
            </Position>
            <AltitudeMeters>242.600006103515625</AltitudeMeters>
            <DistanceMeters>NAN</DistanceMeters>
          </Trackpoint>
          <Trackpoint>
            <Time>2021-08-10T08:43:59.000Z</Time>
            <Position>
              <LatitudeDegrees>43.10715026222169399261474609375</LatitudeDegrees>
              <LongitudeDegrees>-1.69888847507536411285400390625</LongitudeDegrees>
            </Position>
            <AltitudeMeters>242</AltitudeMeters>
            <DistanceMeters>NAN</DistanceMeters>
          </Trackpoint>
          <Trackpoint>
            <Time>2021-08-10T08:44:00.000Z</Time>
            <Position>
              <LatitudeDegrees>43.10718596912920475006103515625</LatitudeDegrees>
              <LongitudeDegrees>-1.69876433908939361572265625</LongitudeDegrees>
            </Position>
            <AltitudeMeters>241.600006103515625</AltitudeMeters>
            <DistanceMeters>NAN</DistanceMeters>
          </Trackpoint>
          <Trackpoint>
            <Time>2021-08-10T08:44:01.000Z</Time>
            <Position>
              <LatitudeDegrees>43.10722888447344303131103515625</LatitudeDegrees>
              <LongitudeDegrees>-1.69864674098789691925048828125</LongitudeDegrees>
            </Position>
            <AltitudeMeters>241</AltitudeMeters>
            <DistanceMeters>NAN</DistanceMeters>
          </Trackpoint>
          <Trackpoint>
            <Time>2021-08-10T08:44:02.000Z</Time>
            <Position>
              <LatitudeDegrees>43.10728353448212146759033203125</LatitudeDegrees>
              <LongitudeDegrees>-1.69852964580059051513671875</LongitudeDegrees>
            </Position>
            <AltitudeMeters>240.1999969482421875</AltitudeMeters>
            <DistanceMeters>NAN</DistanceMeters>
          </Trackpoint>
          <Trackpoint>
            <Time>2021-08-10T08:44:03.000Z</Time>
            <Position>
              <LatitudeDegrees>43.10734271071851253509521484375</LatitudeDegrees>
              <LongitudeDegrees>-1.69842009432613849639892578125</LongitudeDegrees>
            </Position>
            <AltitudeMeters>239.8000030517578125</AltitudeMeters>
            <DistanceMeters>NAN</DistanceMeters>
          </Trackpoint>
          <Trackpoint>
            <Time>2021-08-10T08:44:05.000Z</Time>
            <Position>
              <LatitudeDegrees>43.10746910981833934783935546875</LatitudeDegrees>
              <LongitudeDegrees>-1.6982076130807399749755859375</LongitudeDegrees>
            </Position>
            <AltitudeMeters>239</AltitudeMeters>
            <DistanceMeters>NAN</DistanceMeters>
          </Trackpoint>
          <Trackpoint>
            <Time>2021-08-10T08:44:06.000Z</Time>
            <Position>
              <LatitudeDegrees>43.10753666795790195465087890625</LatitudeDegrees>
              <LongitudeDegrees>-1.6981023363769054412841796875</LongitudeDegrees>
            </Position>
            <AltitudeMeters>238.1999969482421875</AltitudeMeters>
            <DistanceMeters>NAN</DistanceMeters>
          </Trackpoint>
          <Trackpoint>
            <Time>2021-08-10T08:44:07.000Z</Time>
            <Position>
              <LatitudeDegrees>43.1075914017856121063232421875</LatitudeDegrees>
              <LongitudeDegrees>-1.69801943935453891754150390625</LongitudeDegrees>
            </Position>
            <AltitudeMeters>238</AltitudeMeters>
            <DistanceMeters>NAN</DistanceMeters>
          </Trackpoint>
          <Trackpoint>
            <Time>2021-08-10T08:44:09.000Z</Time>
            <Position>
              <LatitudeDegrees>43.107732050120830535888671875</LatitudeDegrees>
              <LongitudeDegrees>-1.6977999173104763031005859375</LongitudeDegrees>
            </Position>
            <AltitudeMeters>236.8000030517578125</AltitudeMeters>
            <DistanceMeters>NAN</DistanceMeters>
          </Trackpoint>
          <Trackpoint>
            <Time>2021-08-10T08:44:11.000Z</Time>
            <Position>
              <LatitudeDegrees>43.1078348122537136077880859375</LatitudeDegrees>
              <LongitudeDegrees>-1.69756849296391010284423828125</LongitudeDegrees>
            </Position>
            <AltitudeMeters>235.8000030517578125</AltitudeMeters>
            <DistanceMeters>NAN</DistanceMeters>
          </Trackpoint>
          <Trackpoint>
            <Time>2021-08-10T08:44:12.000Z</Time>
            <Position>
              <LatitudeDegrees>43.1078690104186534881591796875</LatitudeDegrees>
              <LongitudeDegrees>-1.697439663112163543701171875</LongitudeDegrees>
            </Position>
            <AltitudeMeters>235.399993896484375</AltitudeMeters>
            <DistanceMeters>NAN</DistanceMeters>
          </Trackpoint>
          <Trackpoint>
            <Time>2021-08-10T08:44:13.000Z</Time>
            <Position>
              <LatitudeDegrees>43.1078817509114742279052734375</LatitudeDegrees>
              <LongitudeDegrees>-1.6973043791949748992919921875</LongitudeDegrees>
            </Position>
            <AltitudeMeters>234.399993896484375</AltitudeMeters>
            <DistanceMeters>NAN</DistanceMeters>
          </Trackpoint>
          <Trackpoint>
            <Time>2021-08-10T08:44:14.000Z</Time>
            <Position>
              <LatitudeDegrees>43.107876218855381011962890625</LatitudeDegrees>
              <LongitudeDegrees>-1.69716599397361278533935546875</LongitudeDegrees>
            </Position>
            <AltitudeMeters>233.600006103515625</AltitudeMeters>
            <DistanceMeters>NAN</DistanceMeters>
          </Trackpoint>
          <Trackpoint>
            <Time>2021-08-10T08:44:15.000Z</Time>
            <Position>
              <LatitudeDegrees>43.1078441999852657318115234375</LatitudeDegrees>
              <LongitudeDegrees>-1.69703791849315166473388671875</LongitudeDegrees>
            </Position>
            <AltitudeMeters>233.1999969482421875</AltitudeMeters>
            <DistanceMeters>NAN</DistanceMeters>
          </Trackpoint>
          <Trackpoint>
            <Time>2021-08-10T08:44:16.000Z</Time>
            <Position>
              <LatitudeDegrees>43.10779432766139507293701171875</LatitudeDegrees>
              <LongitudeDegrees>-1.6969201527535915374755859375</LongitudeDegrees>
            </Position>
            <AltitudeMeters>232.399993896484375</AltitudeMeters>
            <DistanceMeters>NAN</DistanceMeters>
          </Trackpoint>
          <Trackpoint>
            <Time>2021-08-10T08:44:18.000Z</Time>
            <Position>
              <LatitudeDegrees>43.10768452472984790802001953125</LatitudeDegrees>
              <LongitudeDegrees>-1.69668738730251789093017578125</LongitudeDegrees>
            </Position>
            <AltitudeMeters>231.1999969482421875</AltitudeMeters>
            <DistanceMeters>NAN</DistanceMeters>
          </Trackpoint>
          <Trackpoint>
            <Time>2021-08-10T08:44:19.000Z</Time>
            <Position>
              <LatitudeDegrees>43.10764093883335590362548828125</LatitudeDegrees>
              <LongitudeDegrees>-1.6965682804584503173828125</LongitudeDegrees>
            </Position>
            <AltitudeMeters>231</AltitudeMeters>
            <DistanceMeters>NAN</DistanceMeters>
          </Trackpoint>
          <Trackpoint>
            <Time>2021-08-10T08:44:20.000Z</Time>
            <Position>
              <LatitudeDegrees>43.1076071597635746002197265625</LatitudeDegrees>
              <LongitudeDegrees>-1.69645235873758792877197265625</LongitudeDegrees>
            </Position>
            <AltitudeMeters>230.1999969482421875</AltitudeMeters>
            <DistanceMeters>NAN</DistanceMeters>
          </Trackpoint>
          <Trackpoint>
            <Time>2021-08-10T08:44:21.000Z</Time>
            <Position>
              <LatitudeDegrees>43.107589893043041229248046875</LatitudeDegrees>
              <LongitudeDegrees>-1.69634104706346988677978515625</LongitudeDegrees>
            </Position>
            <AltitudeMeters>229.399993896484375</AltitudeMeters>
            <DistanceMeters>NAN</DistanceMeters>
          </Trackpoint>
          <Trackpoint>
            <Time>2021-08-10T08:44:22.000Z</Time>
            <Position>
              <LatitudeDegrees>43.10759986750781536102294921875</LatitudeDegrees>
              <LongitudeDegrees>-1.69623392634093761444091796875</LongitudeDegrees>
            </Position>
            <AltitudeMeters>229</AltitudeMeters>
            <DistanceMeters>NAN</DistanceMeters>
          </Trackpoint>
          <Trackpoint>
            <Time>2021-08-10T08:44:23.000Z</Time>
            <Position>
              <LatitudeDegrees>43.10763993300497531890869140625</LatitudeDegrees>
              <LongitudeDegrees>-1.6961470060050487518310546875</LongitudeDegrees>
            </Position>
            <AltitudeMeters>228.1999969482421875</AltitudeMeters>
            <DistanceMeters>NAN</DistanceMeters>
          </Trackpoint>
          <Trackpoint>
            <Time>2021-08-10T08:44:24.000Z</Time>
            <Position>
              <LatitudeDegrees>43.10769458301365375518798828125</LatitudeDegrees>
              <LongitudeDegrees>-1.6960967145860195159912109375</LongitudeDegrees>
            </Position>
            <AltitudeMeters>228</AltitudeMeters>
            <DistanceMeters>NAN</DistanceMeters>
          </Trackpoint>
          <Trackpoint>
            <Time>2021-08-10T08:44:25.000Z</Time>
            <Position>
              <LatitudeDegrees>43.10778594575822353363037109375</LatitudeDegrees>
              <LongitudeDegrees>-1.6960434056818485260009765625</LongitudeDegrees>
            </Position>
            <AltitudeMeters>227.399993896484375</AltitudeMeters>
            <DistanceMeters>NAN</DistanceMeters>
          </Trackpoint>
          <Trackpoint>
            <Time>2021-08-10T08:44:26.000Z</Time>
            <Position>
              <LatitudeDegrees>43.1078626401722431182861328125</LatitudeDegrees>
              <LongitudeDegrees>-1.69599940069019794464111328125</LongitudeDegrees>
            </Position>
            <AltitudeMeters>227.1999969482421875</AltitudeMeters>
            <DistanceMeters>NAN</DistanceMeters>
          </Trackpoint>
          <Trackpoint>
            <Time>2021-08-10T08:44:27.000Z</Time>
            <Position>
              <LatitudeDegrees>43.107934892177581787109375</LatitudeDegrees>
              <LongitudeDegrees>-1.69594776816666126251220703125</LongitudeDegrees>
            </Position>
            <AltitudeMeters>227</AltitudeMeters>
            <DistanceMeters>NAN</DistanceMeters>
          </Trackpoint>
          <Trackpoint>
            <Time>2021-08-10T08:44:28.000Z</Time>
            <Position>
              <LatitudeDegrees>43.1079952418804168701171875</LatitudeDegrees>
              <LongitudeDegrees>-1.695870570838451385498046875</LongitudeDegrees>
            </Position>
            <AltitudeMeters>226.399993896484375</AltitudeMeters>
            <DistanceMeters>NAN</DistanceMeters>
          </Trackpoint>
          <Trackpoint>
            <Time>2021-08-10T08:44:29.000Z</Time>
            <Position>
              <LatitudeDegrees>43.10803874395787715911865234375</LatitudeDegrees>
              <LongitudeDegrees>-1.6957708261907100677490234375</LongitudeDegrees>
            </Position>
            <AltitudeMeters>226</AltitudeMeters>
            <DistanceMeters>NAN</DistanceMeters>
          </Trackpoint>
          <Trackpoint>
            <Time>2021-08-10T08:44:30.000Z</Time>
            <Position>
              <LatitudeDegrees>43.10807294212281703948974609375</LatitudeDegrees>
              <LongitudeDegrees>-1.69566102325916290283203125</LongitudeDegrees>
            </Position>
            <AltitudeMeters>225.600006103515625</AltitudeMeters>
            <DistanceMeters>NAN</DistanceMeters>
          </Trackpoint>
          <Trackpoint>
            <Time>2021-08-10T08:44:31.000Z</Time>
            <Position>
              <LatitudeDegrees>43.1081023626029491424560546875</LatitudeDegrees>
              <LongitudeDegrees>-1.69554711319506168365478515625</LongitudeDegrees>
            </Position>
            <AltitudeMeters>225.1999969482421875</AltitudeMeters>
            <DistanceMeters>NAN</DistanceMeters>
          </Trackpoint>
          <Trackpoint>
            <Time>2021-08-10T08:44:32.000Z</Time>
            <Position>
              <LatitudeDegrees>43.1081278435885906219482421875</LatitudeDegrees>
              <LongitudeDegrees>-1.69542373158037662506103515625</LongitudeDegrees>
            </Position>
            <AltitudeMeters>224.399993896484375</AltitudeMeters>
            <DistanceMeters>NAN</DistanceMeters>
          </Trackpoint>
          <Trackpoint>
            <Time>2021-08-10T08:44:33.000Z</Time>
            <Position>
              <LatitudeDegrees>43.108143098652362823486328125</LatitudeDegrees>
              <LongitudeDegrees>-1.6952974162995815277099609375</LongitudeDegrees>
            </Position>
            <AltitudeMeters>224</AltitudeMeters>
            <DistanceMeters>NAN</DistanceMeters>
          </Trackpoint>
          <Trackpoint>
            <Time>2021-08-10T08:44:34.000Z</Time>
            <Position>
              <LatitudeDegrees>43.10816145502030849456787109375</LatitudeDegrees>
              <LongitudeDegrees>-1.695170514285564422607421875</LongitudeDegrees>
            </Position>
            <AltitudeMeters>223.1999969482421875</AltitudeMeters>
            <DistanceMeters>NAN</DistanceMeters>
          </Trackpoint>
          <Trackpoint>
            <Time>2021-08-10T08:44:35.000Z</Time>
            <Position>
              <LatitudeDegrees>43.1081777997314929962158203125</LatitudeDegrees>
              <LongitudeDegrees>-1.69504554010927677154541015625</LongitudeDegrees>
            </Position>
            <AltitudeMeters>222.399993896484375</AltitudeMeters>
            <DistanceMeters>NAN</DistanceMeters>
          </Trackpoint>
          <Trackpoint>
            <Time>2021-08-10T08:44:38.000Z</Time>
            <Position>
              <LatitudeDegrees>43.10825432650744915008544921875</LatitudeDegrees>
              <LongitudeDegrees>-1.694676987826824188232421875</LongitudeDegrees>
            </Position>
            <AltitudeMeters>221.1999969482421875</AltitudeMeters>
            <DistanceMeters>NAN</DistanceMeters>
          </Trackpoint>
          <Trackpoint>
            <Time>2021-08-10T08:44:40.000Z</Time>
            <Position>
              <LatitudeDegrees>43.1083253212273120880126953125</LatitudeDegrees>
              <LongitudeDegrees>-1.6944439709186553955078125</LongitudeDegrees>
            </Position>
            <AltitudeMeters>220.399993896484375</AltitudeMeters>
            <DistanceMeters>NAN</DistanceMeters>
          </Trackpoint>
          <Trackpoint>
            <Time>2021-08-10T08:44:41.000Z</Time>
            <Position>
              <LatitudeDegrees>43.10836781747639179229736328125</LatitudeDegrees>
              <LongitudeDegrees>-1.69433391653001308441162109375</LongitudeDegrees>
            </Position>
            <AltitudeMeters>220</AltitudeMeters>
            <DistanceMeters>NAN</DistanceMeters>
          </Trackpoint>
          <Trackpoint>
            <Time>2021-08-10T08:44:42.000Z</Time>
            <Position>
              <LatitudeDegrees>43.10842037200927734375</LatitudeDegrees>
              <LongitudeDegrees>-1.6942288912832736968994140625</LongitudeDegrees>
            </Position>
            <AltitudeMeters>219.399993896484375</AltitudeMeters>
            <DistanceMeters>NAN</DistanceMeters>
          </Trackpoint>
          <Trackpoint>
            <Time>2021-08-10T08:44:44.000Z</Time>
            <Position>
              <LatitudeDegrees>43.108546435832977294921875</LatitudeDegrees>
              <LongitudeDegrees>-1.6940424777567386627197265625</LongitudeDegrees>
            </Position>
            <AltitudeMeters>218.600006103515625</AltitudeMeters>
            <DistanceMeters>NAN</DistanceMeters>
          </Trackpoint>
          <Trackpoint>
            <Time>2021-08-10T08:44:47.000Z</Time>
            <Position>
              <LatitudeDegrees>43.10879680328071117401123046875</LatitudeDegrees>
              <LongitudeDegrees>-1.69382127933204174041748046875</LongitudeDegrees>
            </Position>
            <AltitudeMeters>217.399993896484375</AltitudeMeters>
            <DistanceMeters>NAN</DistanceMeters>
          </Trackpoint>
          <Trackpoint>
            <Time>2021-08-10T08:44:48.000Z</Time>
            <Position>
              <LatitudeDegrees>43.10887441970407962799072265625</LatitudeDegrees>
              <LongitudeDegrees>-1.69373896904289722442626953125</LongitudeDegrees>
            </Position>
            <AltitudeMeters>217</AltitudeMeters>
            <DistanceMeters>NAN</DistanceMeters>
          </Trackpoint>
          <Trackpoint>
            <Time>2021-08-10T08:44:49.000Z</Time>
            <Position>
              <LatitudeDegrees>43.10894331894814968109130859375</LatitudeDegrees>
              <LongitudeDegrees>-1.6936401464045047760009765625</LongitudeDegrees>
            </Position>
            <AltitudeMeters>216.399993896484375</AltitudeMeters>
            <DistanceMeters>NAN</DistanceMeters>
          </Trackpoint>
          <Trackpoint>
            <Time>2021-08-10T08:44:50.000Z</Time>
            <Position>
              <LatitudeDegrees>43.108997382223606109619140625</LatitudeDegrees>
              <LongitudeDegrees>-1.6935321874916553497314453125</LongitudeDegrees>
            </Position>
            <AltitudeMeters>215.8000030517578125</AltitudeMeters>
            <DistanceMeters>NAN</DistanceMeters>
          </Trackpoint>
          <Trackpoint>
            <Time>2021-08-10T08:44:51.000Z</Time>
            <Position>
              <LatitudeDegrees>43.10903132893145084381103515625</LatitudeDegrees>
              <LongitudeDegrees>-1.69341676868498325347900390625</LongitudeDegrees>
            </Position>
            <AltitudeMeters>215.399993896484375</AltitudeMeters>
            <DistanceMeters>NAN</DistanceMeters>
          </Trackpoint>
          <Trackpoint>
            <Time>2021-08-10T08:44:52.000Z</Time>
            <Position>
              <LatitudeDegrees>43.10904574580490589141845703125</LatitudeDegrees>
              <LongitudeDegrees>-1.6932907886803150177001953125</LongitudeDegrees>
            </Position>
            <AltitudeMeters>214.8000030517578125</AltitudeMeters>
            <DistanceMeters>NAN</DistanceMeters>
          </Trackpoint>
          <Trackpoint>
            <Time>2021-08-10T08:44:53.000Z</Time>
            <Position>
              <LatitudeDegrees>43.1090451590716838836669921875</LatitudeDegrees>
              <LongitudeDegrees>-1.69316095300018787384033203125</LongitudeDegrees>
            </Position>
            <AltitudeMeters>214</AltitudeMeters>
            <DistanceMeters>NAN</DistanceMeters>
          </Trackpoint>
          <Trackpoint>
            <Time>2021-08-10T08:44:54.000Z</Time>
            <Position>
              <LatitudeDegrees>43.10904138721525669097900390625</LatitudeDegrees>
              <LongitudeDegrees>-1.6930286027491092681884765625</LongitudeDegrees>
            </Position>
            <AltitudeMeters>213.1999969482421875</AltitudeMeters>
            <DistanceMeters>NAN</DistanceMeters>
          </Trackpoint>
          <Trackpoint>
            <Time>2021-08-10T08:44:55.000Z</Time>
            <Position>
              <LatitudeDegrees>43.1090404652059078216552734375</LatitudeDegrees>
              <LongitudeDegrees>-1.69289968907833099365234375</LongitudeDegrees>
            </Position>
            <AltitudeMeters>212.8000030517578125</AltitudeMeters>
            <DistanceMeters>NAN</DistanceMeters>
          </Trackpoint>
          <Trackpoint>
            <Time>2021-08-10T08:44:57.000Z</Time>
            <Position>
              <LatitudeDegrees>43.10903669334948062896728515625</LatitudeDegrees>
              <LongitudeDegrees>-1.692639850080013275146484375</LongitudeDegrees>
            </Position>
            <AltitudeMeters>211.8000030517578125</AltitudeMeters>
            <DistanceMeters>NAN</DistanceMeters>
          </Trackpoint>
          <Trackpoint>
            <Time>2021-08-10T08:44:59.000Z</Time>
            <Position>
              <LatitudeDegrees>43.10903283767402172088623046875</LatitudeDegrees>
              <LongitudeDegrees>-1.69240624643862247467041015625</LongitudeDegrees>
            </Position>
            <AltitudeMeters>210.399993896484375</AltitudeMeters>
            <DistanceMeters>NAN</DistanceMeters>
          </Trackpoint>
          <Trackpoint>
            <Time>2021-08-10T08:45:00.000Z</Time>
            <Position>
              <LatitudeDegrees>43.109032921493053436279296875</LatitudeDegrees>
              <LongitudeDegrees>-1.692252270877361297607421875</LongitudeDegrees>
            </Position>
            <AltitudeMeters>209.8000030517578125</AltitudeMeters>
            <DistanceMeters>NAN</DistanceMeters>
          </Trackpoint>
          <Trackpoint>
            <Time>2021-08-10T08:45:01.000Z</Time>
            <Position>
              <LatitudeDegrees>43.10903836973011493682861328125</LatitudeDegrees>
              <LongitudeDegrees>-1.692122519016265869140625</LongitudeDegrees>
            </Position>
            <AltitudeMeters>209</AltitudeMeters>
            <DistanceMeters>NAN</DistanceMeters>
          </Trackpoint>
          <Trackpoint>
            <Time>2021-08-10T08:45:04.000Z</Time>
            <Position>
              <LatitudeDegrees>43.10902479104697704315185546875</LatitudeDegrees>
              <LongitudeDegrees>-1.6917277313768863677978515625</LongitudeDegrees>
            </Position>
            <AltitudeMeters>208</AltitudeMeters>
            <DistanceMeters>NAN</DistanceMeters>
          </Trackpoint>
          <Trackpoint>
            <Time>2021-08-10T08:45:05.000Z</Time>
            <Position>
              <LatitudeDegrees>43.10899176634848117828369140625</LatitudeDegrees>
              <LongitudeDegrees>-1.6915973089635372161865234375</LongitudeDegrees>
            </Position>
            <AltitudeMeters>207.1999969482421875</AltitudeMeters>
            <DistanceMeters>NAN</DistanceMeters>
          </Trackpoint>
          <Trackpoint>
            <Time>2021-08-10T08:45:06.000Z</Time>
            <Position>
              <LatitudeDegrees>43.108948431909084320068359375</LatitudeDegrees>
              <LongitudeDegrees>-1.69147166423499584197998046875</LongitudeDegrees>
            </Position>
            <AltitudeMeters>207</AltitudeMeters>
            <DistanceMeters>NAN</DistanceMeters>
          </Trackpoint>
          <Trackpoint>
            <Time>2021-08-10T08:45:08.000Z</Time>
            <Position>
              <LatitudeDegrees>43.10883552767336368560791015625</LatitudeDegrees>
              <LongitudeDegrees>-1.69123814441263675689697265625</LongitudeDegrees>
            </Position>
            <AltitudeMeters>205.399993896484375</AltitudeMeters>
            <DistanceMeters>NAN</DistanceMeters>
          </Trackpoint>
          <Trackpoint>
            <Time>2021-08-10T08:45:09.000Z</Time>
            <Position>
              <LatitudeDegrees>43.1087641976773738861083984375</LatitudeDegrees>
              <LongitudeDegrees>-1.69113521464169025421142578125</LongitudeDegrees>
            </Position>
            <AltitudeMeters>205</AltitudeMeters>
            <DistanceMeters>NAN</DistanceMeters>
          </Trackpoint>
          <Trackpoint>
            <Time>2021-08-10T08:45:10.000Z</Time>
            <Position>
              <LatitudeDegrees>43.108673505485057830810546875</LatitudeDegrees>
              <LongitudeDegrees>-1.69106304645538330078125</LongitudeDegrees>
            </Position>
            <AltitudeMeters>204.1999969482421875</AltitudeMeters>
            <DistanceMeters>NAN</DistanceMeters>
          </Trackpoint>
          <Trackpoint>
            <Time>2021-08-10T08:45:11.000Z</Time>
            <Position>
              <LatitudeDegrees>43.10857401229441165924072265625</LatitudeDegrees>
              <LongitudeDegrees>-1.69101770035922527313232421875</LongitudeDegrees>
            </Position>
            <AltitudeMeters>203.8000030517578125</AltitudeMeters>
            <DistanceMeters>NAN</DistanceMeters>
          </Trackpoint>
          <Trackpoint>
            <Time>2021-08-10T08:45:12.000Z</Time>
            <Position>
              <LatitudeDegrees>43.10847141779959201812744140625</LatitudeDegrees>
              <LongitudeDegrees>-1.690988279879093170166015625</LongitudeDegrees>
            </Position>
            <AltitudeMeters>202.600006103515625</AltitudeMeters>
            <DistanceMeters>NAN</DistanceMeters>
          </Trackpoint>
          <Trackpoint>
            <Time>2021-08-10T08:45:13.000Z</Time>
            <Position>
              <LatitudeDegrees>43.1083668954670429229736328125</LatitudeDegrees>
              <LongitudeDegrees>-1.6909703426063060760498046875</LongitudeDegrees>
            </Position>
            <AltitudeMeters>202.1999969482421875</AltitudeMeters>
            <DistanceMeters>NAN</DistanceMeters>
          </Trackpoint>
          <Trackpoint>
            <Time>2021-08-10T08:45:14.000Z</Time>
            <Position>
              <LatitudeDegrees>43.1082822382450103759765625</LatitudeDegrees>
              <LongitudeDegrees>-1.6909596137702465057373046875</LongitudeDegrees>
            </Position>
            <AltitudeMeters>201.399993896484375</AltitudeMeters>
            <DistanceMeters>NAN</DistanceMeters>
          </Trackpoint>
          <Trackpoint>
            <Time>2021-08-10T08:45:15.000Z</Time>
            <Position>
              <LatitudeDegrees>43.10816212557256221771240234375</LatitudeDegrees>
              <LongitudeDegrees>-1.69094108976423740386962890625</LongitudeDegrees>
            </Position>
            <AltitudeMeters>200.399993896484375</AltitudeMeters>
            <DistanceMeters>NAN</DistanceMeters>
          </Trackpoint>
          <Trackpoint>
            <Time>2021-08-10T08:45:16.000Z</Time>
            <Position>
              <LatitudeDegrees>43.10806154273450374603271484375</LatitudeDegrees>
              <LongitudeDegrees>-1.69092600233852863311767578125</LongitudeDegrees>
            </Position>
            <AltitudeMeters>200</AltitudeMeters>
            <DistanceMeters>NAN</DistanceMeters>
          </Trackpoint>
          <Trackpoint>
            <Time>2021-08-10T08:45:18.000Z</Time>
            <Position>
              <LatitudeDegrees>43.1078616343438625335693359375</LatitudeDegrees>
              <LongitudeDegrees>-1.6909009404480457305908203125</LongitudeDegrees>
            </Position>
            <AltitudeMeters>198.8000030517578125</AltitudeMeters>
            <DistanceMeters>NAN</DistanceMeters>
          </Trackpoint>
          <Trackpoint>
            <Time>2021-08-10T08:45:20.000Z</Time>
            <Position>
              <LatitudeDegrees>43.10766734182834625244140625</LatitudeDegrees>
              <LongitudeDegrees>-1.69089381583034992218017578125</LongitudeDegrees>
            </Position>
            <AltitudeMeters>198</AltitudeMeters>
            <DistanceMeters>NAN</DistanceMeters>
          </Trackpoint>
          <Trackpoint>
            <Time>2021-08-10T08:45:21.000Z</Time>
            <Position>
              <LatitudeDegrees>43.10756885446608066558837890625</LatitudeDegrees>
              <LongitudeDegrees>-1.69088627211749553680419921875</LongitudeDegrees>
            </Position>
            <AltitudeMeters>197.600006103515625</AltitudeMeters>
            <DistanceMeters>NAN</DistanceMeters>
          </Trackpoint>
          <Trackpoint>
            <Time>2021-08-10T08:45:22.000Z</Time>
            <Position>
              <LatitudeDegrees>43.10746751725673675537109375</LatitudeDegrees>
              <LongitudeDegrees>-1.6908677481114864349365234375</LongitudeDegrees>
            </Position>
            <AltitudeMeters>197.1999969482421875</AltitudeMeters>
            <DistanceMeters>NAN</DistanceMeters>
          </Trackpoint>
          <Trackpoint>
            <Time>2021-08-10T08:45:24.000Z</Time>
            <Position>
              <LatitudeDegrees>43.10726157389581203460693359375</LatitudeDegrees>
              <LongitudeDegrees>-1.69080161489546298980712890625</LongitudeDegrees>
            </Position>
            <AltitudeMeters>196.600006103515625</AltitudeMeters>
            <DistanceMeters>NAN</DistanceMeters>
          </Trackpoint>
          <Trackpoint>
            <Time>2021-08-10T08:45:26.000Z</Time>
            <Position>
              <LatitudeDegrees>43.10708639211952686309814453125</LatitudeDegrees>
              <LongitudeDegrees>-1.69068259187042713165283203125</LongitudeDegrees>
            </Position>
            <AltitudeMeters>195.600006103515625</AltitudeMeters>
            <DistanceMeters>NAN</DistanceMeters>
          </Trackpoint>
          <Trackpoint>
            <Time>2021-08-10T08:45:28.000Z</Time>
            <Position>
              <LatitudeDegrees>43.10692931525409221649169921875</LatitudeDegrees>
              <LongitudeDegrees>-1.690508835017681121826171875</LongitudeDegrees>
            </Position>
            <AltitudeMeters>194.399993896484375</AltitudeMeters>
            <DistanceMeters>NAN</DistanceMeters>
          </Trackpoint>
          <Trackpoint>
            <Time>2021-08-10T08:45:30.000Z</Time>
            <Position>
              <LatitudeDegrees>43.10679503716528415679931640625</LatitudeDegrees>
              <LongitudeDegrees>-1.6903121955692768096923828125</LongitudeDegrees>
            </Position>
            <AltitudeMeters>193.399993896484375</AltitudeMeters>
            <DistanceMeters>NAN</DistanceMeters>
          </Trackpoint>
          <Trackpoint>
            <Time>2021-08-10T08:45:31.000Z</Time>
            <Position>
              <LatitudeDegrees>43.1067421473562717437744140625</LatitudeDegrees>
              <LongitudeDegrees>-1.69020063243806362152099609375</LongitudeDegrees>
            </Position>
            <AltitudeMeters>192.600006103515625</AltitudeMeters>
            <DistanceMeters>NAN</DistanceMeters>
          </Trackpoint>
          <Trackpoint>
            <Time>2021-08-10T08:45:33.000Z</Time>
            <Position>
              <LatitudeDegrees>43.10665975324809551239013671875</LatitudeDegrees>
              <LongitudeDegrees>-1.6899541206657886505126953125</LongitudeDegrees>
            </Position>
            <AltitudeMeters>191.399993896484375</AltitudeMeters>
            <DistanceMeters>NAN</DistanceMeters>
          </Trackpoint>
          <Trackpoint>
            <Time>2021-08-10T08:45:36.000Z</Time>
            <Position>
              <LatitudeDegrees>43.1065332703292369842529296875</LatitudeDegrees>
              <LongitudeDegrees>-1.68960593640804290771484375</LongitudeDegrees>
            </Position>
            <AltitudeMeters>189.8000030517578125</AltitudeMeters>
            <DistanceMeters>NAN</DistanceMeters>
          </Trackpoint>
          <Trackpoint>
            <Time>2021-08-10T08:45:38.000Z</Time>
            <Position>
              <LatitudeDegrees>43.10644987039268016815185546875</LatitudeDegrees>
              <LongitudeDegrees>-1.689368896186351776123046875</LongitudeDegrees>
            </Position>
            <AltitudeMeters>189</AltitudeMeters>
            <DistanceMeters>NAN</DistanceMeters>
          </Trackpoint>
          <Trackpoint>
            <Time>2021-08-10T08:45:39.000Z</Time>
            <Position>
              <LatitudeDegrees>43.10641299001872539520263671875</LatitudeDegrees>
              <LongitudeDegrees>-1.6892436705529689788818359375</LongitudeDegrees>
            </Position>
            <AltitudeMeters>188.600006103515625</AltitudeMeters>
            <DistanceMeters>NAN</DistanceMeters>
          </Trackpoint>
          <Trackpoint>
            <Time>2021-08-10T08:45:40.000Z</Time>
            <Position>
              <LatitudeDegrees>43.1063787080347537994384765625</LatitudeDegrees>
              <LongitudeDegrees>-1.68911953456699848175048828125</LongitudeDegrees>
            </Position>
            <AltitudeMeters>188</AltitudeMeters>
            <DistanceMeters>NAN</DistanceMeters>
          </Trackpoint>
          <Trackpoint>
            <Time>2021-08-10T08:45:41.000Z</Time>
            <Position>
              <LatitudeDegrees>43.10635129921138286590576171875</LatitudeDegrees>
              <LongitudeDegrees>-1.6889955662190914154052734375</LongitudeDegrees>
            </Position>
            <AltitudeMeters>187.399993896484375</AltitudeMeters>
            <DistanceMeters>NAN</DistanceMeters>
          </Trackpoint>
          <Trackpoint>
            <Time>2021-08-10T08:45:43.000Z</Time>
            <Position>
              <LatitudeDegrees>43.106311149895191192626953125</LatitudeDegrees>
              <LongitudeDegrees>-1.6887333802878856658935546875</LongitudeDegrees>
            </Position>
            <AltitudeMeters>186.399993896484375</AltitudeMeters>
            <DistanceMeters>NAN</DistanceMeters>
          </Trackpoint>
          <Trackpoint>
            <Time>2021-08-10T08:45:45.000Z</Time>
            <Position>
              <LatitudeDegrees>43.10628424398601055145263671875</LatitudeDegrees>
              <LongitudeDegrees>-1.68846021406352519989013671875</LongitudeDegrees>
            </Position>
            <AltitudeMeters>185.1999969482421875</AltitudeMeters>
            <DistanceMeters>NAN</DistanceMeters>
          </Trackpoint>
          <Trackpoint>
            <Time>2021-08-10T08:45:47.000Z</Time>
            <Position>
              <LatitudeDegrees>43.10625792481005191802978515625</LatitudeDegrees>
              <LongitudeDegrees>-1.68819132260978221893310546875</LongitudeDegrees>
            </Position>
            <AltitudeMeters>184.1999969482421875</AltitudeMeters>
            <DistanceMeters>NAN</DistanceMeters>
          </Trackpoint>
          <Trackpoint>
            <Time>2021-08-10T08:45:49.000Z</Time>
            <Position>
              <LatitudeDegrees>43.10622976161539554595947265625</LatitudeDegrees>
              <LongitudeDegrees>-1.68792762793600559234619140625</LongitudeDegrees>
            </Position>
            <AltitudeMeters>182.8000030517578125</AltitudeMeters>
            <DistanceMeters>NAN</DistanceMeters>
          </Trackpoint>
          <Trackpoint>
            <Time>2021-08-10T08:45:51.000Z</Time>
            <Position>
              <LatitudeDegrees>43.1062016822397708892822265625</LatitudeDegrees>
              <LongitudeDegrees>-1.68767633847892284393310546875</LongitudeDegrees>
            </Position>
            <AltitudeMeters>181.8000030517578125</AltitudeMeters>
            <DistanceMeters>NAN</DistanceMeters>
          </Trackpoint>
          <Trackpoint>
            <Time>2021-08-10T08:45:52.000Z</Time>
            <Position>
              <LatitudeDegrees>43.10618869028985500335693359375</LatitudeDegrees>
              <LongitudeDegrees>-1.68755832128226757049560546875</LongitudeDegrees>
            </Position>
            <AltitudeMeters>181</AltitudeMeters>
            <DistanceMeters>NAN</DistanceMeters>
          </Trackpoint>
          <Trackpoint>
            <Time>2021-08-10T08:45:53.000Z</Time>
            <Position>
              <LatitudeDegrees>43.10618030838668346405029296875</LatitudeDegrees>
              <LongitudeDegrees>-1.6874378733336925506591796875</LongitudeDegrees>
            </Position>
            <AltitudeMeters>180.8000030517578125</AltitudeMeters>
            <DistanceMeters>NAN</DistanceMeters>
          </Trackpoint>
          <Trackpoint>
            <Time>2021-08-10T08:45:54.000Z</Time>
            <Position>
              <LatitudeDegrees>43.10617201030254364013671875</LatitudeDegrees>
              <LongitudeDegrees>-1.68731893412768840789794921875</LongitudeDegrees>
            </Position>
            <AltitudeMeters>180.399993896484375</AltitudeMeters>
            <DistanceMeters>NAN</DistanceMeters>
          </Trackpoint>
          <Trackpoint>
            <Time>2021-08-10T08:45:55.000Z</Time>
            <Position>
              <LatitudeDegrees>43.10616220347583293914794921875</LatitudeDegrees>
              <LongitudeDegrees>-1.6872021742165088653564453125</LongitudeDegrees>
            </Position>
            <AltitudeMeters>180.399993896484375</AltitudeMeters>
            <DistanceMeters>NAN</DistanceMeters>
          </Trackpoint>
          <Trackpoint>
            <Time>2021-08-10T08:45:58.000Z</Time>
            <Position>
              <LatitudeDegrees>43.106123395264148712158203125</LatitudeDegrees>
              <LongitudeDegrees>-1.686857677996158599853515625</LongitudeDegrees>
            </Position>
            <AltitudeMeters>179.600006103515625</AltitudeMeters>
            <DistanceMeters>NAN</DistanceMeters>
          </Trackpoint>
          <Trackpoint>
            <Time>2021-08-10T08:45:59.000Z</Time>
            <Position>
              <LatitudeDegrees>43.10611040331423282623291015625</LatitudeDegrees>
              <LongitudeDegrees>-1.68674468994140625</LongitudeDegrees>
            </Position>
            <AltitudeMeters>179.1999969482421875</AltitudeMeters>
            <DistanceMeters>NAN</DistanceMeters>
          </Trackpoint>
          <Trackpoint>
            <Time>2021-08-10T08:46:00.000Z</Time>
            <Position>
              <LatitudeDegrees>43.10609598644077777862548828125</LatitudeDegrees>
              <LongitudeDegrees>-1.6866436041891574859619140625</LongitudeDegrees>
            </Position>
            <AltitudeMeters>179</AltitudeMeters>
            <DistanceMeters>NAN</DistanceMeters>
          </Trackpoint>
          <Trackpoint>
            <Time>2021-08-10T08:46:01.000Z</Time>
            <Position>
              <LatitudeDegrees>43.10607654042541980743408203125</LatitudeDegrees>
              <LongitudeDegrees>-1.6865582764148712158203125</LongitudeDegrees>
            </Position>
            <AltitudeMeters>178.600006103515625</AltitudeMeters>
            <DistanceMeters>NAN</DistanceMeters>
          </Trackpoint>
          <Trackpoint>
            <Time>2021-08-10T08:46:02.000Z</Time>
            <Position>
              <LatitudeDegrees>43.1060541607439517974853515625</LatitudeDegrees>
              <LongitudeDegrees>-1.68648342601954936981201171875</LongitudeDegrees>
            </Position>
            <AltitudeMeters>178.399993896484375</AltitudeMeters>
            <DistanceMeters>NAN</DistanceMeters>
          </Trackpoint>
          <Trackpoint>
            <Time>2021-08-10T08:46:03.000Z</Time>
            <Position>
              <LatitudeDegrees>43.10602591373026371002197265625</LatitudeDegrees>
              <LongitudeDegrees>-1.6864186339080333709716796875</LongitudeDegrees>
            </Position>
            <AltitudeMeters>178.1999969482421875</AltitudeMeters>
            <DistanceMeters>NAN</DistanceMeters>
          </Trackpoint>
          <Trackpoint>
            <Time>2021-08-10T08:46:04.000Z</Time>
            <Position>
              <LatitudeDegrees>43.1059941463172435760498046875</LatitudeDegrees>
              <LongitudeDegrees>-1.68636892922222614288330078125</LongitudeDegrees>
            </Position>
            <AltitudeMeters>177.8000030517578125</AltitudeMeters>
            <DistanceMeters>NAN</DistanceMeters>
          </Trackpoint>
          <Trackpoint>
            <Time>2021-08-10T08:46:05.000Z</Time>
            <Position>
              <LatitudeDegrees>43.10596640221774578094482421875</LatitudeDegrees>
              <LongitudeDegrees>-1.68632584623992443084716796875</LongitudeDegrees>
            </Position>
            <AltitudeMeters>177.600006103515625</AltitudeMeters>
            <DistanceMeters>NAN</DistanceMeters>
          </Trackpoint>
          <Trackpoint>
            <Time>2021-08-10T08:46:06.000Z</Time>
            <Position>
              <LatitudeDegrees>43.10594611801207065582275390625</LatitudeDegrees>
              <LongitudeDegrees>-1.68628678657114505767822265625</LongitudeDegrees>
            </Position>
            <AltitudeMeters>177.1999969482421875</AltitudeMeters>
            <DistanceMeters>NAN</DistanceMeters>
          </Trackpoint>
          <Trackpoint>
            <Time>2021-08-10T08:46:07.000Z</Time>
            <Position>
              <LatitudeDegrees>43.10593597590923309326171875</LatitudeDegrees>
              <LongitudeDegrees>-1.68625258840620517730712890625</LongitudeDegrees>
            </Position>
            <AltitudeMeters>177.399993896484375</AltitudeMeters>
            <DistanceMeters>NAN</DistanceMeters>
          </Trackpoint>
          <Trackpoint>
            <Time>2021-08-10T08:46:08.000Z</Time>
            <Position>
              <LatitudeDegrees>43.10593974776566028594970703125</LatitudeDegrees>
              <LongitudeDegrees>-1.686228699982166290283203125</LongitudeDegrees>
            </Position>
            <AltitudeMeters>176.8000030517578125</AltitudeMeters>
            <DistanceMeters>NAN</DistanceMeters>
          </Trackpoint>
          <Trackpoint>
            <Time>2021-08-10T08:46:09.000Z</Time>
            <Position>
              <LatitudeDegrees>43.10595366172492504119873046875</LatitudeDegrees>
              <LongitudeDegrees>-1.68621889315545558929443359375</LongitudeDegrees>
            </Position>
            <AltitudeMeters>176.399993896484375</AltitudeMeters>
            <DistanceMeters>NAN</DistanceMeters>
          </Trackpoint>
          <Trackpoint>
            <Time>2021-08-10T08:46:10.000Z</Time>
            <Position>
              <LatitudeDegrees>43.1059686653316020965576171875</LatitudeDegrees>
              <LongitudeDegrees>-1.6862201504409313201904296875</LongitudeDegrees>
            </Position>
            <AltitudeMeters>176.1999969482421875</AltitudeMeters>
            <DistanceMeters>NAN</DistanceMeters>
          </Trackpoint>
          <Trackpoint>
            <Time>2021-08-10T08:46:11.000Z</Time>
            <Position>
              <LatitudeDegrees>43.10597478412091732025146484375</LatitudeDegrees>
              <LongitudeDegrees>-1.6862198151648044586181640625</LongitudeDegrees>
            </Position>
            <AltitudeMeters>176</AltitudeMeters>
            <DistanceMeters>NAN</DistanceMeters>
          </Trackpoint>
          <Trackpoint>
            <Time>2021-08-10T08:46:16.000Z</Time>
            <Position>
              <LatitudeDegrees>43.10597478412091732025146484375</LatitudeDegrees>
              <LongitudeDegrees>-1.6862198151648044586181640625</LongitudeDegrees>
            </Position>
            <AltitudeMeters>175.1999969482421875</AltitudeMeters>
            <DistanceMeters>NAN</DistanceMeters>
          </Trackpoint>
          <Trackpoint>
            <Time>2021-08-10T08:46:26.000Z</Time>
            <Position>
              <LatitudeDegrees>43.10597478412091732025146484375</LatitudeDegrees>
              <LongitudeDegrees>-1.6862198151648044586181640625</LongitudeDegrees>
            </Position>
            <AltitudeMeters>174.8000030517578125</AltitudeMeters>
            <DistanceMeters>NAN</DistanceMeters>
          </Trackpoint>
          <Trackpoint>
            <Time>2021-08-10T08:47:09.000Z</Time>
            <Position>
              <LatitudeDegrees>43.10597478412091732025146484375</LatitudeDegrees>
              <LongitudeDegrees>-1.6862198151648044586181640625</LongitudeDegrees>
            </Position>
            <AltitudeMeters>174.600006103515625</AltitudeMeters>
            <DistanceMeters>NAN</DistanceMeters>
          </Trackpoint>
          <Trackpoint>
            <Time>2021-08-10T08:47:28.000Z</Time>
            <Position>
              <LatitudeDegrees>43.10597478412091732025146484375</LatitudeDegrees>
              <LongitudeDegrees>-1.6862198151648044586181640625</LongitudeDegrees>
            </Position>
            <AltitudeMeters>174.399993896484375</AltitudeMeters>
            <DistanceMeters>NAN</DistanceMeters>
          </Trackpoint>
          <Trackpoint>
            <Time>2021-08-10T08:47:30.000Z</Time>
            <Position>
              <LatitudeDegrees>43.10597478412091732025146484375</LatitudeDegrees>
              <LongitudeDegrees>-1.6862198151648044586181640625</LongitudeDegrees>
            </Position>
            <AltitudeMeters>174.399993896484375</AltitudeMeters>
            <DistanceMeters>NAN</DistanceMeters>
          </Trackpoint>
          <Trackpoint>
            <Time>2021-08-10T08:47:49.000Z</Time>
            <Position>
              <LatitudeDegrees>43.10597478412091732025146484375</LatitudeDegrees>
              <LongitudeDegrees>-1.6862198151648044586181640625</LongitudeDegrees>
            </Position>
            <AltitudeMeters>174.399993896484375</AltitudeMeters>
            <DistanceMeters>NAN</DistanceMeters>
          </Trackpoint>
          <Trackpoint>
            <Time>2021-08-10T08:48:09.000Z</Time>
            <Position>
              <LatitudeDegrees>43.10597478412091732025146484375</LatitudeDegrees>
              <LongitudeDegrees>-1.6862198151648044586181640625</LongitudeDegrees>
            </Position>
            <AltitudeMeters>174.1999969482421875</AltitudeMeters>
            <DistanceMeters>NAN</DistanceMeters>
          </Trackpoint>
          <Trackpoint>
            <Time>2021-08-10T08:48:27.000Z</Time>
            <Position>
              <LatitudeDegrees>43.10597478412091732025146484375</LatitudeDegrees>
              <LongitudeDegrees>-1.6862198151648044586181640625</LongitudeDegrees>
            </Position>
            <AltitudeMeters>174.399993896484375</AltitudeMeters>
            <DistanceMeters>NAN</DistanceMeters>
          </Trackpoint>
          <Trackpoint>
            <Time>2021-08-10T08:48:46.000Z</Time>
            <Position>
              <LatitudeDegrees>43.10597478412091732025146484375</LatitudeDegrees>
              <LongitudeDegrees>-1.6862198151648044586181640625</LongitudeDegrees>
            </Position>
            <AltitudeMeters>174.399993896484375</AltitudeMeters>
            <DistanceMeters>NAN</DistanceMeters>
          </Trackpoint>
          <Trackpoint>
            <Time>2021-08-10T08:49:05.000Z</Time>
            <Position>
              <LatitudeDegrees>43.10597478412091732025146484375</LatitudeDegrees>
              <LongitudeDegrees>-1.6862198151648044586181640625</LongitudeDegrees>
            </Position>
            <AltitudeMeters>174.1999969482421875</AltitudeMeters>
            <DistanceMeters>NAN</DistanceMeters>
          </Trackpoint>
          <Trackpoint>
            <Time>2021-08-10T08:49:30.000Z</Time>
            <Position>
              <LatitudeDegrees>43.10597478412091732025146484375</LatitudeDegrees>
              <LongitudeDegrees>-1.6862198151648044586181640625</LongitudeDegrees>
            </Position>
            <AltitudeMeters>174.399993896484375</AltitudeMeters>
            <DistanceMeters>NAN</DistanceMeters>
          </Trackpoint>
          <Trackpoint>
            <Time>2021-08-10T08:49:52.000Z</Time>
            <Position>
              <LatitudeDegrees>43.10597478412091732025146484375</LatitudeDegrees>
              <LongitudeDegrees>-1.6862198151648044586181640625</LongitudeDegrees>
            </Position>
            <AltitudeMeters>174.600006103515625</AltitudeMeters>
            <DistanceMeters>NAN</DistanceMeters>
          </Trackpoint>
          <Trackpoint>
            <Time>2021-08-10T08:50:17.000Z</Time>
            <Position>
              <LatitudeDegrees>43.10597478412091732025146484375</LatitudeDegrees>
              <LongitudeDegrees>-1.6862198151648044586181640625</LongitudeDegrees>
            </Position>
            <AltitudeMeters>174.399993896484375</AltitudeMeters>
            <DistanceMeters>NAN</DistanceMeters>
          </Trackpoint>
          <Trackpoint>
            <Time>2021-08-10T08:50:40.000Z</Time>
            <Position>
              <LatitudeDegrees>43.10597478412091732025146484375</LatitudeDegrees>
              <LongitudeDegrees>-1.6862198151648044586181640625</LongitudeDegrees>
            </Position>
            <AltitudeMeters>174.600006103515625</AltitudeMeters>
            <DistanceMeters>NAN</DistanceMeters>
          </Trackpoint>
          <Trackpoint>
            <Time>2021-08-10T08:51:09.000Z</Time>
            <Position>
              <LatitudeDegrees>43.10597478412091732025146484375</LatitudeDegrees>
              <LongitudeDegrees>-1.6862198151648044586181640625</LongitudeDegrees>
            </Position>
            <AltitudeMeters>174.399993896484375</AltitudeMeters>
            <DistanceMeters>NAN</DistanceMeters>
          </Trackpoint>
          <Trackpoint>
            <Time>2021-08-10T08:51:35.000Z</Time>
            <Position>
              <LatitudeDegrees>43.10597478412091732025146484375</LatitudeDegrees>
              <LongitudeDegrees>-1.6862198151648044586181640625</LongitudeDegrees>
            </Position>
            <AltitudeMeters>174.600006103515625</AltitudeMeters>
            <DistanceMeters>NAN</DistanceMeters>
          </Trackpoint>
          <Trackpoint>
            <Time>2021-08-10T08:52:09.000Z</Time>
            <Position>
              <LatitudeDegrees>43.10597478412091732025146484375</LatitudeDegrees>
              <LongitudeDegrees>-1.6862198151648044586181640625</LongitudeDegrees>
            </Position>
            <AltitudeMeters>174.399993896484375</AltitudeMeters>
            <DistanceMeters>NAN</DistanceMeters>
          </Trackpoint>
          <Trackpoint>
            <Time>2021-08-10T08:52:44.000Z</Time>
            <Position>
              <LatitudeDegrees>43.10597478412091732025146484375</LatitudeDegrees>
              <LongitudeDegrees>-1.6862198151648044586181640625</LongitudeDegrees>
            </Position>
            <AltitudeMeters>174.600006103515625</AltitudeMeters>
            <DistanceMeters>NAN</DistanceMeters>
          </Trackpoint>
          <Trackpoint>
            <Time>2021-08-10T08:53:23.000Z</Time>
            <Position>
              <LatitudeDegrees>43.10597478412091732025146484375</LatitudeDegrees>
              <LongitudeDegrees>-1.6862198151648044586181640625</LongitudeDegrees>
            </Position>
            <AltitudeMeters>174.8000030517578125</AltitudeMeters>
            <DistanceMeters>NAN</DistanceMeters>
          </Trackpoint>
          <Trackpoint>
            <Time>2021-08-10T08:54:22.000Z</Time>
            <Position>
              <LatitudeDegrees>43.10597478412091732025146484375</LatitudeDegrees>
              <LongitudeDegrees>-1.6862198151648044586181640625</LongitudeDegrees>
            </Position>
            <AltitudeMeters>175</AltitudeMeters>
            <DistanceMeters>NAN</DistanceMeters>
          </Trackpoint>
          <Trackpoint>
            <Time>2021-08-10T08:54:45.000Z</Time>
            <Position>
              <LatitudeDegrees>43.106011413037776947021484375</LatitudeDegrees>
              <LongitudeDegrees>-1.6862271912395954132080078125</LongitudeDegrees>
            </Position>
            <AltitudeMeters>175</AltitudeMeters>
            <DistanceMeters>NAN</DistanceMeters>
          </Trackpoint>
          <Trackpoint>
            <Time>2021-08-10T08:54:46.000Z</Time>
            <Position>
              <LatitudeDegrees>43.1060278415679931640625</LatitudeDegrees>
              <LongitudeDegrees>-1.686237417161464691162109375</LongitudeDegrees>
            </Position>
            <AltitudeMeters>174.8000030517578125</AltitudeMeters>
            <DistanceMeters>NAN</DistanceMeters>
          </Trackpoint>
          <Trackpoint>
            <Time>2021-08-10T08:54:47.000Z</Time>
            <Position>
              <LatitudeDegrees>43.1060451082885265350341796875</LatitudeDegrees>
              <LongitudeDegrees>-1.68624906800687313079833984375</LongitudeDegrees>
            </Position>
            <AltitudeMeters>174.8000030517578125</AltitudeMeters>
            <DistanceMeters>NAN</DistanceMeters>
          </Trackpoint>
          <Trackpoint>
            <Time>2021-08-10T08:54:48.000Z</Time>
            <Position>
              <LatitudeDegrees>43.10606564395129680633544921875</LatitudeDegrees>
              <LongitudeDegrees>-1.6862530075013637542724609375</LongitudeDegrees>
            </Position>
            <AltitudeMeters>174.8000030517578125</AltitudeMeters>
            <DistanceMeters>NAN</DistanceMeters>
          </Trackpoint>
          <Trackpoint>
            <Time>2021-08-10T08:54:49.000Z</Time>
            <Position>
              <LatitudeDegrees>43.10608810745179653167724609375</LatitudeDegrees>
              <LongitudeDegrees>-1.6862520016729831695556640625</LongitudeDegrees>
            </Position>
            <AltitudeMeters>174.8000030517578125</AltitudeMeters>
            <DistanceMeters>NAN</DistanceMeters>
          </Trackpoint>
          <Trackpoint>
            <Time>2021-08-10T08:54:50.000Z</Time>
            <Position>
              <LatitudeDegrees>43.10611593537032604217529296875</LatitudeDegrees>
              <LongitudeDegrees>-1.6862530075013637542724609375</LongitudeDegrees>
            </Position>
            <AltitudeMeters>174.600006103515625</AltitudeMeters>
            <DistanceMeters>NAN</DistanceMeters>
          </Trackpoint>
          <Trackpoint>
            <Time>2021-08-10T08:54:51.000Z</Time>
            <Position>
              <LatitudeDegrees>43.10614761896431446075439453125</LatitudeDegrees>
              <LongitudeDegrees>-1.68625510297715663909912109375</LongitudeDegrees>
            </Position>
            <AltitudeMeters>174.600006103515625</AltitudeMeters>
            <DistanceMeters>NAN</DistanceMeters>
          </Trackpoint>
          <Trackpoint>
            <Time>2021-08-10T08:54:54.000Z</Time>
            <Position>
              <LatitudeDegrees>43.1062509678304195404052734375</LatitudeDegrees>
              <LongitudeDegrees>-1.68627890758216381072998046875</LongitudeDegrees>
            </Position>
            <AltitudeMeters>174.399993896484375</AltitudeMeters>
            <DistanceMeters>NAN</DistanceMeters>
          </Trackpoint>
          <Trackpoint>
            <Time>2021-08-10T08:54:57.000Z</Time>
            <Position>
              <LatitudeDegrees>43.10638398863375186920166015625</LatitudeDegrees>
              <LongitudeDegrees>-1.6862882114946842193603515625</LongitudeDegrees>
            </Position>
            <AltitudeMeters>174</AltitudeMeters>
            <DistanceMeters>NAN</DistanceMeters>
          </Trackpoint>
          <Trackpoint>
            <Time>2021-08-10T08:55:01.000Z</Time>
            <Position>
              <LatitudeDegrees>43.10659219510853290557861328125</LatitudeDegrees>
              <LongitudeDegrees>-1.68631092645227909088134765625</LongitudeDegrees>
            </Position>
            <AltitudeMeters>173</AltitudeMeters>
            <DistanceMeters>NAN</DistanceMeters>
          </Trackpoint>
          <Trackpoint>
            <Time>2021-08-10T08:55:02.000Z</Time>
            <Position>
              <LatitudeDegrees>43.1066459231078624725341796875</LatitudeDegrees>
              <LongitudeDegrees>-1.68631696142256259918212890625</LongitudeDegrees>
            </Position>
            <AltitudeMeters>173</AltitudeMeters>
            <DistanceMeters>NAN</DistanceMeters>
          </Trackpoint>
          <Trackpoint>
            <Time>2021-08-10T08:55:04.000Z</Time>
            <Position>
              <LatitudeDegrees>43.1067538820207118988037109375</LatitudeDegrees>
              <LongitudeDegrees>-1.6863304562866687774658203125</LongitudeDegrees>
            </Position>
            <AltitudeMeters>172.600006103515625</AltitudeMeters>
            <DistanceMeters>NAN</DistanceMeters>
          </Trackpoint>
          <Trackpoint>
            <Time>2021-08-10T08:55:11.000Z</Time>
            <Position>
              <LatitudeDegrees>43.10712260194122791290283203125</LatitudeDegrees>
              <LongitudeDegrees>-1.686368845403194427490234375</LongitudeDegrees>
            </Position>
            <AltitudeMeters>172</AltitudeMeters>
            <DistanceMeters>NAN</DistanceMeters>
          </Trackpoint>
          <Trackpoint>
            <Time>2021-08-10T08:55:13.000Z</Time>
            <Position>
              <LatitudeDegrees>43.107221424579620361328125</LatitudeDegrees>
              <LongitudeDegrees>-1.68638686649501323699951171875</LongitudeDegrees>
            </Position>
            <AltitudeMeters>172</AltitudeMeters>
            <DistanceMeters>NAN</DistanceMeters>
          </Trackpoint>
          <Trackpoint>
            <Time>2021-08-10T08:55:15.000Z</Time>
            <Position>
              <LatitudeDegrees>43.10731538571417331695556640625</LatitudeDegrees>
              <LongitudeDegrees>-1.68640731833875179290771484375</LongitudeDegrees>
            </Position>
            <AltitudeMeters>171.8000030517578125</AltitudeMeters>
            <DistanceMeters>NAN</DistanceMeters>
          </Trackpoint>
          <Trackpoint>
            <Time>2021-08-10T08:55:16.000Z</Time>
            <Position>
              <LatitudeDegrees>43.10736048035323619842529296875</LatitudeDegrees>
              <LongitudeDegrees>-1.686421819031238555908203125</LongitudeDegrees>
            </Position>
            <AltitudeMeters>171.8000030517578125</AltitudeMeters>
            <DistanceMeters>NAN</DistanceMeters>
          </Trackpoint>
          <Trackpoint>
            <Time>2021-08-10T08:55:17.000Z</Time>
            <Position>
              <LatitudeDegrees>43.10740322805941104888916015625</LatitudeDegrees>
              <LongitudeDegrees>-1.68643782846629619598388671875</LongitudeDegrees>
            </Position>
            <AltitudeMeters>171.8000030517578125</AltitudeMeters>
            <DistanceMeters>NAN</DistanceMeters>
          </Trackpoint>
          <Trackpoint>
            <Time>2021-08-10T08:55:18.000Z</Time>
            <Position>
              <LatitudeDegrees>43.10744597576558589935302734375</LatitudeDegrees>
              <LongitudeDegrees>-1.686452329158782958984375</LongitudeDegrees>
            </Position>
            <AltitudeMeters>172</AltitudeMeters>
            <DistanceMeters>NAN</DistanceMeters>
          </Trackpoint>
          <Trackpoint>
            <Time>2021-08-10T08:55:19.000Z</Time>
            <Position>
              <LatitudeDegrees>43.1074874661862850189208984375</LatitudeDegrees>
              <LongitudeDegrees>-1.68646800331771373748779296875</LongitudeDegrees>
            </Position>
            <AltitudeMeters>172</AltitudeMeters>
            <DistanceMeters>NAN</DistanceMeters>
          </Trackpoint>
          <Trackpoint>
            <Time>2021-08-10T08:55:20.000Z</Time>
            <Position>
              <LatitudeDegrees>43.107528202235698699951171875</LatitudeDegrees>
              <LongitudeDegrees>-1.68648627586662769317626953125</LongitudeDegrees>
            </Position>
            <AltitudeMeters>172</AltitudeMeters>
            <DistanceMeters>NAN</DistanceMeters>
          </Trackpoint>
          <Trackpoint>
            <Time>2021-08-10T08:55:21.000Z</Time>
            <Position>
              <LatitudeDegrees>43.107565082609653472900390625</LatitudeDegrees>
              <LongitudeDegrees>-1.68650337494909763336181640625</LongitudeDegrees>
            </Position>
            <AltitudeMeters>172</AltitudeMeters>
            <DistanceMeters>NAN</DistanceMeters>
          </Trackpoint>
          <Trackpoint>
            <Time>2021-08-10T08:55:23.000Z</Time>
            <Position>
              <LatitudeDegrees>43.1076292879879474639892578125</LatitudeDegrees>
              <LongitudeDegrees>-1.68654193170368671417236328125</LongitudeDegrees>
            </Position>
            <AltitudeMeters>172</AltitudeMeters>
            <DistanceMeters>NAN</DistanceMeters>
          </Trackpoint>
          <Trackpoint>
            <Time>2021-08-10T08:55:24.000Z</Time>
            <Position>
              <LatitudeDegrees>43.10765602625906467437744140625</LatitudeDegrees>
              <LongitudeDegrees>-1.68656523339450359344482421875</LongitudeDegrees>
            </Position>
            <AltitudeMeters>172</AltitudeMeters>
            <DistanceMeters>NAN</DistanceMeters>
          </Trackpoint>
          <Trackpoint>
            <Time>2021-08-10T08:55:25.000Z</Time>
            <Position>
              <LatitudeDegrees>43.10768301598727703094482421875</LatitudeDegrees>
              <LongitudeDegrees>-1.68658769689500331878662109375</LongitudeDegrees>
            </Position>
            <AltitudeMeters>172</AltitudeMeters>
            <DistanceMeters>NAN</DistanceMeters>
          </Trackpoint>
          <Trackpoint>
            <Time>2021-08-10T08:55:26.000Z</Time>
            <Position>
              <LatitudeDegrees>43.1077124364674091339111328125</LatitudeDegrees>
              <LongitudeDegrees>-1.68661384843289852142333984375</LongitudeDegrees>
            </Position>
            <AltitudeMeters>172</AltitudeMeters>
            <DistanceMeters>NAN</DistanceMeters>
          </Trackpoint>
          <Trackpoint>
            <Time>2021-08-10T08:55:33.000Z</Time>
            <Position>
              <LatitudeDegrees>43.1079290248453617095947265625</LatitudeDegrees>
              <LongitudeDegrees>-1.686787270009517669677734375</LongitudeDegrees>
            </Position>
            <AltitudeMeters>172</AltitudeMeters>
            <DistanceMeters>NAN</DistanceMeters>
          </Trackpoint>
          <Trackpoint>
            <Time>2021-08-10T08:55:34.000Z</Time>
            <Position>
              <LatitudeDegrees>43.107961378991603851318359375</LatitudeDegrees>
              <LongitudeDegrees>-1.68681467883288860321044921875</LongitudeDegrees>
            </Position>
            <AltitudeMeters>172</AltitudeMeters>
            <DistanceMeters>NAN</DistanceMeters>
          </Trackpoint>
          <Trackpoint>
            <Time>2021-08-10T08:55:36.000Z</Time>
            <Position>
              <LatitudeDegrees>43.10802541673183441162109375</LatitudeDegrees>
              <LongitudeDegrees>-1.6868414171040058135986328125</LongitudeDegrees>
            </Position>
            <AltitudeMeters>172</AltitudeMeters>
            <DistanceMeters>NAN</DistanceMeters>
          </Trackpoint>
          <Trackpoint>
            <Time>2021-08-10T08:55:37.000Z</Time>
            <Position>
              <LatitudeDegrees>43.1080614589154720306396484375</LatitudeDegrees>
              <LongitudeDegrees>-1.68684133328497409820556640625</LongitudeDegrees>
            </Position>
            <AltitudeMeters>172</AltitudeMeters>
            <DistanceMeters>NAN</DistanceMeters>
          </Trackpoint>
          <Trackpoint>
            <Time>2021-08-10T08:55:38.000Z</Time>
            <Position>
              <LatitudeDegrees>43.10808082111179828643798828125</LatitudeDegrees>
              <LongitudeDegrees>-1.68683563359081745147705078125</LongitudeDegrees>
            </Position>
            <AltitudeMeters>172.1999969482421875</AltitudeMeters>
            <DistanceMeters>NAN</DistanceMeters>
          </Trackpoint>
          <Trackpoint>
            <Time>2021-08-10T08:55:39.000Z</Time>
            <Position>
              <LatitudeDegrees>43.108100183308124542236328125</LatitudeDegrees>
              <LongitudeDegrees>-1.68682448565959930419921875</LongitudeDegrees>
            </Position>
            <AltitudeMeters>172.1999969482421875</AltitudeMeters>
            <DistanceMeters>NAN</DistanceMeters>
          </Trackpoint>
          <Trackpoint>
            <Time>2021-08-10T08:55:40.000Z</Time>
            <Position>
              <LatitudeDegrees>43.1081228144466876983642578125</LatitudeDegrees>
              <LongitudeDegrees>-1.68681048788130283355712890625</LongitudeDegrees>
            </Position>
            <AltitudeMeters>172.399993896484375</AltitudeMeters>
            <DistanceMeters>NAN</DistanceMeters>
          </Trackpoint>
          <Trackpoint>
            <Time>2021-08-10T08:55:41.000Z</Time>
            <Position>
              <LatitudeDegrees>43.10813647694885730743408203125</LatitudeDegrees>
              <LongitudeDegrees>-1.686801016330718994140625</LongitudeDegrees>
            </Position>
            <AltitudeMeters>172.600006103515625</AltitudeMeters>
            <DistanceMeters>NAN</DistanceMeters>
          </Trackpoint>
          <Trackpoint>
            <Time>2021-08-10T08:55:42.000Z</Time>
            <Position>
              <LatitudeDegrees>43.108151815831661224365234375</LatitudeDegrees>
              <LongitudeDegrees>-1.68678333051502704620361328125</LongitudeDegrees>
            </Position>
            <AltitudeMeters>172.8000030517578125</AltitudeMeters>
            <DistanceMeters>NAN</DistanceMeters>
          </Trackpoint>
          <Trackpoint>
            <Time>2021-08-10T08:55:43.000Z</Time>
            <Position>
              <LatitudeDegrees>43.108165897428989410400390625</LatitudeDegrees>
              <LongitudeDegrees>-1.68676547706127166748046875</LongitudeDegrees>
            </Position>
            <AltitudeMeters>172.8000030517578125</AltitudeMeters>
            <DistanceMeters>NAN</DistanceMeters>
          </Trackpoint>
          <Trackpoint>
            <Time>2021-08-10T08:55:45.000Z</Time>
            <Position>
              <LatitudeDegrees>43.10819347389042377471923828125</LatitudeDegrees>
              <LongitudeDegrees>-1.68673471547663211822509765625</LongitudeDegrees>
            </Position>
            <AltitudeMeters>173.1999969482421875</AltitudeMeters>
            <DistanceMeters>NAN</DistanceMeters>
          </Trackpoint>
          <Trackpoint>
            <Time>2021-08-10T08:55:46.000Z</Time>
            <Position>
              <LatitudeDegrees>43.108210153877735137939453125</LatitudeDegrees>
              <LongitudeDegrees>-1.686721555888652801513671875</LongitudeDegrees>
            </Position>
            <AltitudeMeters>173.1999969482421875</AltitudeMeters>
            <DistanceMeters>NAN</DistanceMeters>
          </Trackpoint>
          <Trackpoint>
            <Time>2021-08-10T08:55:47.000Z</Time>
            <Position>
              <LatitudeDegrees>43.10822465457022190093994140625</LatitudeDegrees>
              <LongitudeDegrees>-1.68670487590134143829345703125</LongitudeDegrees>
            </Position>
            <AltitudeMeters>173.600006103515625</AltitudeMeters>
            <DistanceMeters>NAN</DistanceMeters>
          </Trackpoint>
          <Trackpoint>
            <Time>2021-08-10T08:55:48.000Z</Time>
            <Position>
              <LatitudeDegrees>43.10823731124401092529296875</LatitudeDegrees>
              <LongitudeDegrees>-1.6866875253617763519287109375</LongitudeDegrees>
            </Position>
            <AltitudeMeters>173.8000030517578125</AltitudeMeters>
            <DistanceMeters>NAN</DistanceMeters>
          </Trackpoint>
          <Trackpoint>
            <Time>2021-08-10T08:55:49.000Z</Time>
            <Position>
              <LatitudeDegrees>43.1082512252032756805419921875</LatitudeDegrees>
              <LongitudeDegrees>-1.68666715733706951141357421875</LongitudeDegrees>
            </Position>
            <AltitudeMeters>173.8000030517578125</AltitudeMeters>
            <DistanceMeters>NAN</DistanceMeters>
          </Trackpoint>
          <Trackpoint>
            <Time>2021-08-10T08:55:50.000Z</Time>
            <Position>
              <LatitudeDegrees>43.10826279222965240478515625</LatitudeDegrees>
              <LongitudeDegrees>-1.68665056116878986358642578125</LongitudeDegrees>
            </Position>
            <AltitudeMeters>174.1999969482421875</AltitudeMeters>
            <DistanceMeters>NAN</DistanceMeters>
          </Trackpoint>
          <Trackpoint>
            <Time>2021-08-10T08:55:51.000Z</Time>
            <Position>
              <LatitudeDegrees>43.108275197446346282958984375</LatitudeDegrees>
              <LongitudeDegrees>-1.68663564138114452362060546875</LongitudeDegrees>
            </Position>
            <AltitudeMeters>174.399993896484375</AltitudeMeters>
            <DistanceMeters>NAN</DistanceMeters>
          </Trackpoint>
          <Trackpoint>
            <Time>2021-08-10T08:55:52.000Z</Time>
            <Position>
              <LatitudeDegrees>43.108288608491420745849609375</LatitudeDegrees>
              <LongitudeDegrees>-1.68662290088832378387451171875</LongitudeDegrees>
            </Position>
            <AltitudeMeters>174.600006103515625</AltitudeMeters>
            <DistanceMeters>NAN</DistanceMeters>
          </Trackpoint>
          <Trackpoint>
            <Time>2021-08-10T08:55:53.000Z</Time>
            <Position>
              <LatitudeDegrees>43.108305372297763824462890625</LatitudeDegrees>
              <LongitudeDegrees>-1.68661602772772312164306640625</LongitudeDegrees>
            </Position>
            <AltitudeMeters>174.8000030517578125</AltitudeMeters>
            <DistanceMeters>NAN</DistanceMeters>
          </Trackpoint>
          <Trackpoint>
            <Time>2021-08-10T08:55:54.000Z</Time>
            <Position>
              <LatitudeDegrees>43.10831937007606029510498046875</LatitudeDegrees>
              <LongitudeDegrees>-1.68660999275743961334228515625</LongitudeDegrees>
            </Position>
            <AltitudeMeters>175</AltitudeMeters>
            <DistanceMeters>NAN</DistanceMeters>
          </Trackpoint>
          <Trackpoint>
            <Time>2021-08-10T08:55:55.000Z</Time>
            <Position>
              <LatitudeDegrees>43.108331523835659027099609375</LatitudeDegrees>
              <LongitudeDegrees>-1.68659649789333343505859375</LongitudeDegrees>
            </Position>
            <AltitudeMeters>175.1999969482421875</AltitudeMeters>
            <DistanceMeters>NAN</DistanceMeters>
          </Trackpoint>
          <Trackpoint>
            <Time>2021-08-10T08:55:56.000Z</Time>
            <Position>
              <LatitudeDegrees>43.10833747498691082000732421875</LatitudeDegrees>
              <LongitudeDegrees>-1.68657747097313404083251953125</LongitudeDegrees>
            </Position>
            <AltitudeMeters>175.1999969482421875</AltitudeMeters>
            <DistanceMeters>NAN</DistanceMeters>
          </Trackpoint>
          <Trackpoint>
            <Time>2021-08-10T08:55:57.000Z</Time>
            <Position>
              <LatitudeDegrees>43.10834283940494060516357421875</LatitudeDegrees>
              <LongitudeDegrees>-1.6865604557096958160400390625</LongitudeDegrees>
            </Position>
            <AltitudeMeters>175.600006103515625</AltitudeMeters>
            <DistanceMeters>NAN</DistanceMeters>
          </Trackpoint>
          <Trackpoint>
            <Time>2021-08-10T08:55:58.000Z</Time>
            <Position>
              <LatitudeDegrees>43.10835004784166812896728515625</LatitudeDegrees>
              <LongitudeDegrees>-1.68654285371303558349609375</LongitudeDegrees>
            </Position>
            <AltitudeMeters>175.8000030517578125</AltitudeMeters>
            <DistanceMeters>NAN</DistanceMeters>
          </Trackpoint>
          <Trackpoint>
            <Time>2021-08-10T08:55:59.000Z</Time>
            <Position>
              <LatitudeDegrees>43.10836127959191799163818359375</LatitudeDegrees>
              <LongitudeDegrees>-1.68652617372572422027587890625</LongitudeDegrees>
            </Position>
            <AltitudeMeters>176.1999969482421875</AltitudeMeters>
            <DistanceMeters>NAN</DistanceMeters>
          </Trackpoint>
          <Trackpoint>
            <Time>2021-08-10T08:56:00.000Z</Time>
            <Position>
              <LatitudeDegrees>43.10837544500827789306640625</LatitudeDegrees>
              <LongitudeDegrees>-1.68651326559484004974365234375</LongitudeDegrees>
            </Position>
            <AltitudeMeters>176.1999969482421875</AltitudeMeters>
            <DistanceMeters>NAN</DistanceMeters>
          </Trackpoint>
          <Trackpoint>
            <Time>2021-08-10T08:56:01.000Z</Time>
            <Position>
              <LatitudeDegrees>43.10839153826236724853515625</LatitudeDegrees>
              <LongitudeDegrees>-1.6864991001784801483154296875</LongitudeDegrees>
            </Position>
            <AltitudeMeters>176.399993896484375</AltitudeMeters>
            <DistanceMeters>NAN</DistanceMeters>
          </Trackpoint>
          <Trackpoint>
            <Time>2021-08-10T08:56:02.000Z</Time>
            <Position>
              <LatitudeDegrees>43.10839832760393619537353515625</LatitudeDegrees>
              <LongitudeDegrees>-1.68648694641888141632080078125</LongitudeDegrees>
            </Position>
            <AltitudeMeters>176.399993896484375</AltitudeMeters>
            <DistanceMeters>NAN</DistanceMeters>
          </Trackpoint>
          <Trackpoint>
            <Time>2021-08-10T08:56:03.000Z</Time>
            <Position>
              <LatitudeDegrees>43.10840939171612262725830078125</LatitudeDegrees>
              <LongitudeDegrees>-1.686469428241252899169921875</LongitudeDegrees>
            </Position>
            <AltitudeMeters>176.600006103515625</AltitudeMeters>
            <DistanceMeters>NAN</DistanceMeters>
          </Trackpoint>
          <Trackpoint>
            <Time>2021-08-10T08:56:04.000Z</Time>
            <Position>
              <LatitudeDegrees>43.10842062346637248992919921875</LatitudeDegrees>
              <LongitudeDegrees>-1.6864511556923389434814453125</LongitudeDegrees>
            </Position>
            <AltitudeMeters>177</AltitudeMeters>
            <DistanceMeters>NAN</DistanceMeters>
          </Trackpoint>
          <Trackpoint>
            <Time>2021-08-10T08:56:05.000Z</Time>
            <Position>
              <LatitudeDegrees>43.10843646526336669921875</LatitudeDegrees>
              <LongitudeDegrees>-1.686435230076313018798828125</LongitudeDegrees>
            </Position>
            <AltitudeMeters>177.1999969482421875</AltitudeMeters>
            <DistanceMeters>NAN</DistanceMeters>
          </Trackpoint>
          <Trackpoint>
            <Time>2021-08-10T08:56:06.000Z</Time>
            <Position>
              <LatitudeDegrees>43.1084525585174560546875</LatitudeDegrees>
              <LongitudeDegrees>-1.6864199750125408172607421875</LongitudeDegrees>
            </Position>
            <AltitudeMeters>177.600006103515625</AltitudeMeters>
            <DistanceMeters>NAN</DistanceMeters>
          </Trackpoint>
          <Trackpoint>
            <Time>2021-08-10T08:56:07.000Z</Time>
            <Position>
              <LatitudeDegrees>43.108462952077388763427734375</LatitudeDegrees>
              <LongitudeDegrees>-1.6864102520048618316650390625</LongitudeDegrees>
            </Position>
            <AltitudeMeters>177.8000030517578125</AltitudeMeters>
            <DistanceMeters>NAN</DistanceMeters>
          </Trackpoint>
          <Trackpoint>
            <Time>2021-08-10T08:56:08.000Z</Time>
            <Position>
              <LatitudeDegrees>43.108476698398590087890625</LatitudeDegrees>
              <LongitudeDegrees>-1.68639608658850193023681640625</LongitudeDegrees>
            </Position>
            <AltitudeMeters>178</AltitudeMeters>
            <DistanceMeters>NAN</DistanceMeters>
          </Trackpoint>
          <Trackpoint>
            <Time>2021-08-10T08:56:09.000Z</Time>
            <Position>
              <LatitudeDegrees>43.1084886007010936737060546875</LatitudeDegrees>
              <LongitudeDegrees>-1.68638326227664947509765625</LongitudeDegrees>
            </Position>
            <AltitudeMeters>178.1999969482421875</AltitudeMeters>
            <DistanceMeters>NAN</DistanceMeters>
          </Trackpoint>
          <Trackpoint>
            <Time>2021-08-10T08:56:10.000Z</Time>
            <Position>
              <LatitudeDegrees>43.1084983237087726593017578125</LatitudeDegrees>
              <LongitudeDegrees>-1.6863691806793212890625</LongitudeDegrees>
            </Position>
            <AltitudeMeters>178.399993896484375</AltitudeMeters>
            <DistanceMeters>NAN</DistanceMeters>
          </Trackpoint>
          <Trackpoint>
            <Time>2021-08-10T08:56:11.000Z</Time>
            <Position>
              <LatitudeDegrees>43.108511231839656829833984375</LatitudeDegrees>
              <LongitudeDegrees>-1.68635551817715167999267578125</LongitudeDegrees>
            </Position>
            <AltitudeMeters>178.600006103515625</AltitudeMeters>
            <DistanceMeters>NAN</DistanceMeters>
          </Trackpoint>
          <Trackpoint>
            <Time>2021-08-10T08:56:12.000Z</Time>
            <Position>
              <LatitudeDegrees>43.10852254740893840789794921875</LatitudeDegrees>
              <LongitudeDegrees>-1.6863455437123775482177734375</LongitudeDegrees>
            </Position>
            <AltitudeMeters>178.8000030517578125</AltitudeMeters>
            <DistanceMeters>NAN</DistanceMeters>
          </Trackpoint>
          <Trackpoint>
            <Time>2021-08-10T08:56:13.000Z</Time>
            <Position>
              <LatitudeDegrees>43.108534030616283416748046875</LatitudeDegrees>
              <LongitudeDegrees>-1.68633540160953998565673828125</LongitudeDegrees>
            </Position>
            <AltitudeMeters>179.1999969482421875</AltitudeMeters>
            <DistanceMeters>NAN</DistanceMeters>
          </Trackpoint>
          <Trackpoint>
            <Time>2021-08-10T08:56:14.000Z</Time>
            <Position>
              <LatitudeDegrees>43.1085450947284698486328125</LatitudeDegrees>
              <LongitudeDegrees>-1.6863244213163852691650390625</LongitudeDegrees>
            </Position>
            <AltitudeMeters>179.399993896484375</AltitudeMeters>
            <DistanceMeters>NAN</DistanceMeters>
          </Trackpoint>
          <Trackpoint>
            <Time>2021-08-10T08:56:15.000Z</Time>
            <Position>
              <LatitudeDegrees>43.10855657793581485748291015625</LatitudeDegrees>
              <LongitudeDegrees>-1.68631059117615222930908203125</LongitudeDegrees>
            </Position>
            <AltitudeMeters>179.8000030517578125</AltitudeMeters>
            <DistanceMeters>NAN</DistanceMeters>
          </Trackpoint>
          <Trackpoint>
            <Time>2021-08-10T08:56:16.000Z</Time>
            <Position>
              <LatitudeDegrees>43.10856848023831844329833984375</LatitudeDegrees>
              <LongitudeDegrees>-1.68629718013107776641845703125</LongitudeDegrees>
            </Position>
            <AltitudeMeters>180</AltitudeMeters>
            <DistanceMeters>NAN</DistanceMeters>
          </Trackpoint>
          <Trackpoint>
            <Time>2021-08-10T08:56:17.000Z</Time>
            <Position>
              <LatitudeDegrees>43.10857526957988739013671875</LatitudeDegrees>
              <LongitudeDegrees>-1.6862892173230648040771484375</LongitudeDegrees>
            </Position>
            <AltitudeMeters>180</AltitudeMeters>
            <DistanceMeters>NAN</DistanceMeters>
          </Trackpoint>
          <Trackpoint>
            <Time>2021-08-10T08:56:18.000Z</Time>
            <Position>
              <LatitudeDegrees>43.10858239419758319854736328125</LatitudeDegrees>
              <LongitudeDegrees>-1.68627756647765636444091796875</LongitudeDegrees>
            </Position>
            <AltitudeMeters>180.399993896484375</AltitudeMeters>
            <DistanceMeters>NAN</DistanceMeters>
          </Trackpoint>
          <Trackpoint>
            <Time>2021-08-10T08:56:19.000Z</Time>
            <Position>
              <LatitudeDegrees>43.108590357005596160888671875</LatitudeDegrees>
              <LongitudeDegrees>-1.68626298196613788604736328125</LongitudeDegrees>
            </Position>
            <AltitudeMeters>180.399993896484375</AltitudeMeters>
            <DistanceMeters>NAN</DistanceMeters>
          </Trackpoint>
          <Trackpoint>
            <Time>2021-08-10T08:56:20.000Z</Time>
            <Position>
              <LatitudeDegrees>43.108601756393909454345703125</LatitudeDegrees>
              <LongitudeDegrees>-1.6862483136355876922607421875</LongitudeDegrees>
            </Position>
            <AltitudeMeters>180.600006103515625</AltitudeMeters>
            <DistanceMeters>NAN</DistanceMeters>
          </Trackpoint>
          <Trackpoint>
            <Time>2021-08-10T08:56:21.000Z</Time>
            <Position>
              <LatitudeDegrees>43.1086166761815547943115234375</LatitudeDegrees>
              <LongitudeDegrees>-1.686232052743434906005859375</LongitudeDegrees>
            </Position>
            <AltitudeMeters>180.8000030517578125</AltitudeMeters>
            <DistanceMeters>NAN</DistanceMeters>
          </Trackpoint>
          <Trackpoint>
            <Time>2021-08-10T08:56:22.000Z</Time>
            <Position>
              <LatitudeDegrees>43.10863025486469268798828125</LatitudeDegrees>
              <LongitudeDegrees>-1.68621906079351902008056640625</LongitudeDegrees>
            </Position>
            <AltitudeMeters>181.1999969482421875</AltitudeMeters>
            <DistanceMeters>NAN</DistanceMeters>
          </Trackpoint>
          <Trackpoint>
            <Time>2021-08-10T08:56:23.000Z</Time>
            <Position>
              <LatitudeDegrees>43.1086455099284648895263671875</LatitudeDegrees>
              <LongitudeDegrees>-1.6862060688436031341552734375</LongitudeDegrees>
            </Position>
            <AltitudeMeters>181.399993896484375</AltitudeMeters>
            <DistanceMeters>NAN</DistanceMeters>
          </Trackpoint>
          <Trackpoint>
            <Time>2021-08-10T08:56:24.000Z</Time>
            <Position>
              <LatitudeDegrees>43.1086599268019199371337890625</LatitudeDegrees>
              <LongitudeDegrees>-1.686197854578495025634765625</LongitudeDegrees>
            </Position>
            <AltitudeMeters>181.600006103515625</AltitudeMeters>
            <DistanceMeters>NAN</DistanceMeters>
          </Trackpoint>
          <Trackpoint>
            <Time>2021-08-10T08:56:25.000Z</Time>
            <Position>
              <LatitudeDegrees>43.10867124237120151519775390625</LatitudeDegrees>
              <LongitudeDegrees>-1.68619014322757720947265625</LongitudeDegrees>
            </Position>
            <AltitudeMeters>181.600006103515625</AltitudeMeters>
            <DistanceMeters>NAN</DistanceMeters>
          </Trackpoint>
          <Trackpoint>
            <Time>2021-08-10T08:56:26.000Z</Time>
            <Position>
              <LatitudeDegrees>43.10868700034916400909423828125</LatitudeDegrees>
              <LongitudeDegrees>-1.68617815710604190826416015625</LongitudeDegrees>
            </Position>
            <AltitudeMeters>181.8000030517578125</AltitudeMeters>
            <DistanceMeters>NAN</DistanceMeters>
          </Trackpoint>
          <Trackpoint>
            <Time>2021-08-10T08:56:27.000Z</Time>
            <Position>
              <LatitudeDegrees>43.10870208777487277984619140625</LatitudeDegrees>
              <LongitudeDegrees>-1.6861698590219020843505859375</LongitudeDegrees>
            </Position>
            <AltitudeMeters>182</AltitudeMeters>
            <DistanceMeters>NAN</DistanceMeters>
          </Trackpoint>
          <Trackpoint>
            <Time>2021-08-10T08:56:28.000Z</Time>
            <Position>
              <LatitudeDegrees>43.10871281661093235015869140625</LatitudeDegrees>
              <LongitudeDegrees>-1.68616139329969882965087890625</LongitudeDegrees>
            </Position>
            <AltitudeMeters>182.1999969482421875</AltitudeMeters>
            <DistanceMeters>NAN</DistanceMeters>
          </Trackpoint>
          <Trackpoint>
            <Time>2021-08-10T08:56:29.000Z</Time>
            <Position>
              <LatitudeDegrees>43.10872488655149936676025390625</LatitudeDegrees>
              <LongitudeDegrees>-1.68614991009235382080078125</LongitudeDegrees>
            </Position>
            <AltitudeMeters>182.399993896484375</AltitudeMeters>
            <DistanceMeters>NAN</DistanceMeters>
          </Trackpoint>
          <Trackpoint>
            <Time>2021-08-10T08:56:30.000Z</Time>
            <Position>
              <LatitudeDegrees>43.10873846523463726043701171875</LatitudeDegrees>
              <LongitudeDegrees>-1.6861380077898502349853515625</LongitudeDegrees>
            </Position>
            <AltitudeMeters>182.8000030517578125</AltitudeMeters>
            <DistanceMeters>NAN</DistanceMeters>
          </Trackpoint>
          <Trackpoint>
            <Time>2021-08-10T08:56:31.000Z</Time>
            <Position>
              <LatitudeDegrees>43.10874885879456996917724609375</LatitudeDegrees>
              <LongitudeDegrees>-1.6861323080956935882568359375</LongitudeDegrees>
            </Position>
            <AltitudeMeters>183</AltitudeMeters>
            <DistanceMeters>NAN</DistanceMeters>
          </Trackpoint>
          <Trackpoint>
            <Time>2021-08-10T08:56:32.000Z</Time>
            <Position>
              <LatitudeDegrees>43.108760006725788116455078125</LatitudeDegrees>
              <LongitudeDegrees>-1.68612836860120296478271484375</LongitudeDegrees>
            </Position>
            <AltitudeMeters>183.1999969482421875</AltitudeMeters>
            <DistanceMeters>NAN</DistanceMeters>
          </Trackpoint>
          <Trackpoint>
            <Time>2021-08-10T08:56:33.000Z</Time>
            <Position>
              <LatitudeDegrees>43.1087725795805454254150390625</LatitudeDegrees>
              <LongitudeDegrees>-1.68612116016447544097900390625</LongitudeDegrees>
            </Position>
            <AltitudeMeters>183.1999969482421875</AltitudeMeters>
            <DistanceMeters>NAN</DistanceMeters>
          </Trackpoint>
          <Trackpoint>
            <Time>2021-08-10T08:56:34.000Z</Time>
            <Position>
              <LatitudeDegrees>43.10878724791109561920166015625</LatitudeDegrees>
              <LongitudeDegrees>-1.68611512519419193267822265625</LongitudeDegrees>
            </Position>
            <AltitudeMeters>183.399993896484375</AltitudeMeters>
            <DistanceMeters>NAN</DistanceMeters>
          </Trackpoint>
          <Trackpoint>
            <Time>2021-08-10T08:56:35.000Z</Time>
            <Position>
              <LatitudeDegrees>43.10880300588905811309814453125</LatitudeDegrees>
              <LongitudeDegrees>-1.68611495755612850189208984375</LongitudeDegrees>
            </Position>
            <AltitudeMeters>183.399993896484375</AltitudeMeters>
            <DistanceMeters>NAN</DistanceMeters>
          </Trackpoint>
          <Trackpoint>
            <Time>2021-08-10T08:56:36.000Z</Time>
            <Position>
              <LatitudeDegrees>43.10881826095283031463623046875</LatitudeDegrees>
              <LongitudeDegrees>-1.68611546047031879425048828125</LongitudeDegrees>
            </Position>
            <AltitudeMeters>183.600006103515625</AltitudeMeters>
            <DistanceMeters>NAN</DistanceMeters>
          </Trackpoint>
          <Trackpoint>
            <Time>2021-08-10T08:56:37.000Z</Time>
            <Position>
              <LatitudeDegrees>43.1088309176266193389892578125</LatitudeDegrees>
              <LongitudeDegrees>-1.6861128620803356170654296875</LongitudeDegrees>
            </Position>
            <AltitudeMeters>183.8000030517578125</AltitudeMeters>
            <DistanceMeters>NAN</DistanceMeters>
          </Trackpoint>
          <Trackpoint>
            <Time>2021-08-10T08:56:38.000Z</Time>
            <Position>
              <LatitudeDegrees>43.10884407721459865570068359375</LatitudeDegrees>
              <LongitudeDegrees>-1.68610707856714725494384765625</LongitudeDegrees>
            </Position>
            <AltitudeMeters>184.1999969482421875</AltitudeMeters>
            <DistanceMeters>NAN</DistanceMeters>
          </Trackpoint>
          <Trackpoint>
            <Time>2021-08-10T08:56:39.000Z</Time>
            <Position>
              <LatitudeDegrees>43.10884944163262844085693359375</LatitudeDegrees>
              <LongitudeDegrees>-1.686105988919734954833984375</LongitudeDegrees>
            </Position>
            <AltitudeMeters>184.399993896484375</AltitudeMeters>
            <DistanceMeters>NAN</DistanceMeters>
          </Trackpoint>
          <Trackpoint>
            <Time>2021-08-10T08:56:40.000Z</Time>
            <Position>
              <LatitudeDegrees>43.10885287821292877197265625</LatitudeDegrees>
              <LongitudeDegrees>-1.6861041449010372161865234375</LongitudeDegrees>
            </Position>
            <AltitudeMeters>184.600006103515625</AltitudeMeters>
            <DistanceMeters>NAN</DistanceMeters>
          </Trackpoint>
          <Trackpoint>
            <Time>2021-08-10T08:56:41.000Z</Time>
            <Position>
              <LatitudeDegrees>43.10886905528604984283447265625</LatitudeDegrees>
              <LongitudeDegrees>-1.68609903194010257720947265625</LongitudeDegrees>
            </Position>
            <AltitudeMeters>184.600006103515625</AltitudeMeters>
            <DistanceMeters>NAN</DistanceMeters>
          </Trackpoint>
          <Trackpoint>
            <Time>2021-08-10T08:56:42.000Z</Time>
            <Position>
              <LatitudeDegrees>43.10888431034982204437255859375</LatitudeDegrees>
              <LongitudeDegrees>-1.68609785847365856170654296875</LongitudeDegrees>
            </Position>
            <AltitudeMeters>184.8000030517578125</AltitudeMeters>
            <DistanceMeters>NAN</DistanceMeters>
          </Trackpoint>
          <Trackpoint>
            <Time>2021-08-10T08:56:43.000Z</Time>
            <Position>
              <LatitudeDegrees>43.10889353044331073760986328125</LatitudeDegrees>
              <LongitudeDegrees>-1.686091907322406768798828125</LongitudeDegrees>
            </Position>
            <AltitudeMeters>185</AltitudeMeters>
            <DistanceMeters>NAN</DistanceMeters>
          </Trackpoint>
          <Trackpoint>
            <Time>2021-08-10T08:56:44.000Z</Time>
            <Position>
              <LatitudeDegrees>43.10890895314514636993408203125</LatitudeDegrees>
              <LongitudeDegrees>-1.68608461506664752960205078125</LongitudeDegrees>
            </Position>
            <AltitudeMeters>185.1999969482421875</AltitudeMeters>
            <DistanceMeters>NAN</DistanceMeters>
          </Trackpoint>
          <Trackpoint>
            <Time>2021-08-10T08:56:45.000Z</Time>
            <Position>
              <LatitudeDegrees>43.10892404057085514068603515625</LatitudeDegrees>
              <LongitudeDegrees>-1.6860776580870151519775390625</LongitudeDegrees>
            </Position>
            <AltitudeMeters>185.399993896484375</AltitudeMeters>
            <DistanceMeters>NAN</DistanceMeters>
          </Trackpoint>
          <Trackpoint>
            <Time>2021-08-10T08:56:46.000Z</Time>
            <Position>
              <LatitudeDegrees>43.1089422293007373809814453125</LatitudeDegrees>
              <LongitudeDegrees>-1.6860716231167316436767578125</LongitudeDegrees>
            </Position>
            <AltitudeMeters>185.8000030517578125</AltitudeMeters>
            <DistanceMeters>NAN</DistanceMeters>
          </Trackpoint>
          <Trackpoint>
            <Time>2021-08-10T08:56:47.000Z</Time>
            <Position>
              <LatitudeDegrees>43.10895488597452640533447265625</LatitudeDegrees>
              <LongitudeDegrees>-1.68607120402157306671142578125</LongitudeDegrees>
            </Position>
            <AltitudeMeters>186</AltitudeMeters>
            <DistanceMeters>NAN</DistanceMeters>
          </Trackpoint>
          <Trackpoint>
            <Time>2021-08-10T08:56:48.000Z</Time>
            <Position>
              <LatitudeDegrees>43.10896553099155426025390625</LatitudeDegrees>
              <LongitudeDegrees>-1.68607556261122226715087890625</LongitudeDegrees>
            </Position>
            <AltitudeMeters>186</AltitudeMeters>
            <DistanceMeters>NAN</DistanceMeters>
          </Trackpoint>
          <Trackpoint>
            <Time>2021-08-10T08:56:49.000Z</Time>
            <Position>
              <LatitudeDegrees>43.10897852294147014617919921875</LatitudeDegrees>
              <LongitudeDegrees>-1.6860813461244106292724609375</LongitudeDegrees>
            </Position>
            <AltitudeMeters>186.1999969482421875</AltitudeMeters>
            <DistanceMeters>NAN</DistanceMeters>
          </Trackpoint>
          <Trackpoint>
            <Time>2021-08-10T08:56:50.000Z</Time>
            <Position>
              <LatitudeDegrees>43.1089901737868785858154296875</LatitudeDegrees>
              <LongitudeDegrees>-1.68609685264527797698974609375</LongitudeDegrees>
            </Position>
            <AltitudeMeters>186.600006103515625</AltitudeMeters>
            <DistanceMeters>NAN</DistanceMeters>
          </Trackpoint>
          <Trackpoint>
            <Time>2021-08-10T08:56:51.000Z</Time>
            <Position>
              <LatitudeDegrees>43.1089930236339569091796875</LatitudeDegrees>
              <LongitudeDegrees>-1.68611378408968448638916015625</LongitudeDegrees>
            </Position>
            <AltitudeMeters>186.600006103515625</AltitudeMeters>
            <DistanceMeters>NAN</DistanceMeters>
          </Trackpoint>
          <Trackpoint>
            <Time>2021-08-10T08:56:52.000Z</Time>
            <Position>
              <LatitudeDegrees>43.108991682529449462890625</LatitudeDegrees>
              <LongitudeDegrees>-1.6861289553344249725341796875</LongitudeDegrees>
            </Position>
            <AltitudeMeters>186.8000030517578125</AltitudeMeters>
            <DistanceMeters>NAN</DistanceMeters>
          </Trackpoint>
          <Trackpoint>
            <Time>2021-08-10T08:56:53.000Z</Time>
            <Position>
              <LatitudeDegrees>43.10898757539689540863037109375</LatitudeDegrees>
              <LongitudeDegrees>-1.68614362366497516632080078125</LongitudeDegrees>
            </Position>
            <AltitudeMeters>187.1999969482421875</AltitudeMeters>
            <DistanceMeters>NAN</DistanceMeters>
          </Trackpoint>
          <Trackpoint>
            <Time>2021-08-10T08:56:54.000Z</Time>
            <Position>
              <LatitudeDegrees>43.108981288969516754150390625</LatitudeDegrees>
              <LongitudeDegrees>-1.6861574538052082061767578125</LongitudeDegrees>
            </Position>
            <AltitudeMeters>187.1999969482421875</AltitudeMeters>
            <DistanceMeters>NAN</DistanceMeters>
          </Trackpoint>
          <Trackpoint>
            <Time>2021-08-10T08:56:55.000Z</Time>
            <Position>
              <LatitudeDegrees>43.1089750863611698150634765625</LatitudeDegrees>
              <LongitudeDegrees>-1.686174385249614715576171875</LongitudeDegrees>
            </Position>
            <AltitudeMeters>187.399993896484375</AltitudeMeters>
            <DistanceMeters>NAN</DistanceMeters>
          </Trackpoint>
          <Trackpoint>
            <Time>2021-08-10T08:56:56.000Z</Time>
            <Position>
              <LatitudeDegrees>43.10896955430507659912109375</LatitudeDegrees>
              <LongitudeDegrees>-1.68618754483759403228759765625</LongitudeDegrees>
            </Position>
            <AltitudeMeters>187.600006103515625</AltitudeMeters>
            <DistanceMeters>NAN</DistanceMeters>
          </Trackpoint>
          <Trackpoint>
            <Time>2021-08-10T08:56:57.000Z</Time>
            <Position>
              <LatitudeDegrees>43.10896192677319049835205078125</LatitudeDegrees>
              <LongitudeDegrees>-1.68620313517749309539794921875</LongitudeDegrees>
            </Position>
            <AltitudeMeters>187.600006103515625</AltitudeMeters>
            <DistanceMeters>NAN</DistanceMeters>
          </Trackpoint>
          <Trackpoint>
            <Time>2021-08-10T08:56:58.000Z</Time>
            <Position>
              <LatitudeDegrees>43.1089542992413043975830078125</LatitudeDegrees>
              <LongitudeDegrees>-1.6862204857170581817626953125</LongitudeDegrees>
            </Position>
            <AltitudeMeters>187.8000030517578125</AltitudeMeters>
            <DistanceMeters>NAN</DistanceMeters>
          </Trackpoint>
          <Trackpoint>
            <Time>2021-08-10T08:56:59.000Z</Time>
            <Position>
              <LatitudeDegrees>43.10895203612744808197021484375</LatitudeDegrees>
              <LongitudeDegrees>-1.68623129837214946746826171875</LongitudeDegrees>
            </Position>
            <AltitudeMeters>187.8000030517578125</AltitudeMeters>
            <DistanceMeters>NAN</DistanceMeters>
          </Trackpoint>
          <Trackpoint>
            <Time>2021-08-10T08:57:00.000Z</Time>
            <Position>
              <LatitudeDegrees>43.1089512817561626434326171875</LatitudeDegrees>
              <LongitudeDegrees>-1.68624605052173137664794921875</LongitudeDegrees>
            </Position>
            <AltitudeMeters>187.8000030517578125</AltitudeMeters>
            <DistanceMeters>NAN</DistanceMeters>
          </Trackpoint>
          <Trackpoint>
            <Time>2021-08-10T08:57:01.000Z</Time>
            <Position>
              <LatitudeDegrees>43.108946420252323150634765625</LatitudeDegrees>
              <LongitudeDegrees>-1.68626130558550357818603515625</LongitudeDegrees>
            </Position>
            <AltitudeMeters>188</AltitudeMeters>
            <DistanceMeters>NAN</DistanceMeters>
          </Trackpoint>
          <Trackpoint>
            <Time>2021-08-10T08:57:02.000Z</Time>
            <Position>
              <LatitudeDegrees>43.1089398823678493499755859375</LatitudeDegrees>
              <LongitudeDegrees>-1.68627873994410037994384765625</LongitudeDegrees>
            </Position>
            <AltitudeMeters>188</AltitudeMeters>
            <DistanceMeters>NAN</DistanceMeters>
          </Trackpoint>
          <Trackpoint>
            <Time>2021-08-10T08:57:03.000Z</Time>
            <Position>
              <LatitudeDegrees>43.1089340150356292724609375</LatitudeDegrees>
              <LongitudeDegrees>-1.6862908937036991119384765625</LongitudeDegrees>
            </Position>
            <AltitudeMeters>188.1999969482421875</AltitudeMeters>
            <DistanceMeters>NAN</DistanceMeters>
          </Trackpoint>
          <Trackpoint>
            <Time>2021-08-10T08:57:04.000Z</Time>
            <Position>
              <LatitudeDegrees>43.10892806388437747955322265625</LatitudeDegrees>
              <LongitudeDegrees>-1.6863083280622959136962890625</LongitudeDegrees>
            </Position>
            <AltitudeMeters>188.1999969482421875</AltitudeMeters>
            <DistanceMeters>NAN</DistanceMeters>
          </Trackpoint>
          <Trackpoint>
            <Time>2021-08-10T08:57:05.000Z</Time>
            <Position>
              <LatitudeDegrees>43.1089259684085845947265625</LatitudeDegrees>
              <LongitudeDegrees>-1.68632936663925647735595703125</LongitudeDegrees>
            </Position>
            <AltitudeMeters>188.1999969482421875</AltitudeMeters>
            <DistanceMeters>NAN</DistanceMeters>
          </Trackpoint>
          <Trackpoint>
            <Time>2021-08-10T08:57:06.000Z</Time>
            <Position>
              <LatitudeDegrees>43.10891968198120594024658203125</LatitudeDegrees>
              <LongitudeDegrees>-1.6863589547574520111083984375</LongitudeDegrees>
            </Position>
            <AltitudeMeters>188.399993896484375</AltitudeMeters>
            <DistanceMeters>NAN</DistanceMeters>
          </Trackpoint>
          <Trackpoint>
            <Time>2021-08-10T08:57:07.000Z</Time>
            <Position>
              <LatitudeDegrees>43.10891968198120594024658203125</LatitudeDegrees>
              <LongitudeDegrees>-1.68637312017381191253662109375</LongitudeDegrees>
            </Position>
            <AltitudeMeters>188.600006103515625</AltitudeMeters>
            <DistanceMeters>NAN</DistanceMeters>
          </Trackpoint>
          <Trackpoint>
            <Time>2021-08-10T08:57:08.000Z</Time>
            <Position>
              <LatitudeDegrees>43.108920939266681671142578125</LatitudeDegrees>
              <LongitudeDegrees>-1.686389632523059844970703125</LongitudeDegrees>
            </Position>
            <AltitudeMeters>188.600006103515625</AltitudeMeters>
            <DistanceMeters>NAN</DistanceMeters>
          </Trackpoint>
          <Trackpoint>
            <Time>2021-08-10T08:57:09.000Z</Time>
            <Position>
              <LatitudeDegrees>43.10892102308571338653564453125</LatitudeDegrees>
              <LongitudeDegrees>-1.68640564195811748504638671875</LongitudeDegrees>
            </Position>
            <AltitudeMeters>189</AltitudeMeters>
            <DistanceMeters>NAN</DistanceMeters>
          </Trackpoint>
          <Trackpoint>
            <Time>2021-08-10T08:57:10.000Z</Time>
            <Position>
              <LatitudeDegrees>43.10892135836184024810791015625</LatitudeDegrees>
              <LongitudeDegrees>-1.68642483651638031005859375</LongitudeDegrees>
            </Position>
            <AltitudeMeters>189.1999969482421875</AltitudeMeters>
            <DistanceMeters>NAN</DistanceMeters>
          </Trackpoint>
          <Trackpoint>
            <Time>2021-08-10T08:57:11.000Z</Time>
            <Position>
              <LatitudeDegrees>43.10891850851476192474365234375</LatitudeDegrees>
              <LongitudeDegrees>-1.68643933720886707305908203125</LongitudeDegrees>
            </Position>
            <AltitudeMeters>189.399993896484375</AltitudeMeters>
            <DistanceMeters>NAN</DistanceMeters>
          </Trackpoint>
          <Trackpoint>
            <Time>2021-08-10T08:57:12.000Z</Time>
            <Position>
              <LatitudeDegrees>43.1089140661060810089111328125</LatitudeDegrees>
              <LongitudeDegrees>-1.6864545084536075592041015625</LongitudeDegrees>
            </Position>
            <AltitudeMeters>189.600006103515625</AltitudeMeters>
            <DistanceMeters>NAN</DistanceMeters>
          </Trackpoint>
          <Trackpoint>
            <Time>2021-08-10T08:57:13.000Z</Time>
            <Position>
              <LatitudeDegrees>43.1089157424867153167724609375</LatitudeDegrees>
              <LongitudeDegrees>-1.68647403828799724578857421875</LongitudeDegrees>
            </Position>
            <AltitudeMeters>189.8000030517578125</AltitudeMeters>
            <DistanceMeters>NAN</DistanceMeters>
          </Trackpoint>
          <Trackpoint>
            <Time>2021-08-10T08:57:14.000Z</Time>
            <Position>
              <LatitudeDegrees>43.10891783796250820159912109375</LatitudeDegrees>
              <LongitudeDegrees>-1.6864880360662937164306640625</LongitudeDegrees>
            </Position>
            <AltitudeMeters>190</AltitudeMeters>
            <DistanceMeters>NAN</DistanceMeters>
          </Trackpoint>
          <Trackpoint>
            <Time>2021-08-10T08:57:15.000Z</Time>
            <Position>
              <LatitudeDegrees>43.10892337001860141754150390625</LatitudeDegrees>
              <LongitudeDegrees>-1.68650530278682708740234375</LongitudeDegrees>
            </Position>
            <AltitudeMeters>190.1999969482421875</AltitudeMeters>
            <DistanceMeters>NAN</DistanceMeters>
          </Trackpoint>
          <Trackpoint>
            <Time>2021-08-10T08:57:16.000Z</Time>
            <Position>
              <LatitudeDegrees>43.10892621986567974090576171875</LatitudeDegrees>
              <LongitudeDegrees>-1.68652332387864589691162109375</LongitudeDegrees>
            </Position>
            <AltitudeMeters>190.399993896484375</AltitudeMeters>
            <DistanceMeters>NAN</DistanceMeters>
          </Trackpoint>
          <Trackpoint>
            <Time>2021-08-10T08:57:17.000Z</Time>
            <Position>
              <LatitudeDegrees>43.10892689041793346405029296875</LatitudeDegrees>
              <LongitudeDegrees>-1.68654092587530612945556640625</LongitudeDegrees>
            </Position>
            <AltitudeMeters>190.600006103515625</AltitudeMeters>
            <DistanceMeters>NAN</DistanceMeters>
          </Trackpoint>
          <Trackpoint>
            <Time>2021-08-10T08:57:18.000Z</Time>
            <Position>
              <LatitudeDegrees>43.10892663896083831787109375</LatitudeDegrees>
              <LongitudeDegrees>-1.6865547560155391693115234375</LongitudeDegrees>
            </Position>
            <AltitudeMeters>190.8000030517578125</AltitudeMeters>
            <DistanceMeters>NAN</DistanceMeters>
          </Trackpoint>
          <Trackpoint>
            <Time>2021-08-10T08:57:19.000Z</Time>
            <Position>
              <LatitudeDegrees>43.10892269946634769439697265625</LatitudeDegrees>
              <LongitudeDegrees>-1.68657235801219940185546875</LongitudeDegrees>
            </Position>
            <AltitudeMeters>190.8000030517578125</AltitudeMeters>
            <DistanceMeters>NAN</DistanceMeters>
          </Trackpoint>
          <Trackpoint>
            <Time>2021-08-10T08:57:20.000Z</Time>
            <Position>
              <LatitudeDegrees>43.1089174188673496246337890625</LatitudeDegrees>
              <LongitudeDegrees>-1.686588115990161895751953125</LongitudeDegrees>
            </Position>
            <AltitudeMeters>191</AltitudeMeters>
            <DistanceMeters>NAN</DistanceMeters>
          </Trackpoint>
          <Trackpoint>
            <Time>2021-08-10T08:57:21.000Z</Time>
            <Position>
              <LatitudeDegrees>43.10891046188771724700927734375</LatitudeDegrees>
              <LongitudeDegrees>-1.68660596944391727447509765625</LongitudeDegrees>
            </Position>
            <AltitudeMeters>191</AltitudeMeters>
            <DistanceMeters>NAN</DistanceMeters>
          </Trackpoint>
          <Trackpoint>
            <Time>2021-08-10T08:57:22.000Z</Time>
            <Position>
              <LatitudeDegrees>43.1089040078222751617431640625</LatitudeDegrees>
              <LongitudeDegrees>-1.6866234876215457916259765625</LongitudeDegrees>
            </Position>
            <AltitudeMeters>191.399993896484375</AltitudeMeters>
            <DistanceMeters>NAN</DistanceMeters>
          </Trackpoint>
          <Trackpoint>
            <Time>2021-08-10T08:57:23.000Z</Time>
            <Position>
              <LatitudeDegrees>43.10890308581292629241943359375</LatitudeDegrees>
              <LongitudeDegrees>-1.68663807213306427001953125</LongitudeDegrees>
            </Position>
            <AltitudeMeters>191.600006103515625</AltitudeMeters>
            <DistanceMeters>NAN</DistanceMeters>
          </Trackpoint>
          <Trackpoint>
            <Time>2021-08-10T08:57:24.000Z</Time>
            <Position>
              <LatitudeDegrees>43.10890526510775089263916015625</LatitudeDegrees>
              <LongitudeDegrees>-1.68665307573974132537841796875</LongitudeDegrees>
            </Position>
            <AltitudeMeters>191.8000030517578125</AltitudeMeters>
            <DistanceMeters>NAN</DistanceMeters>
          </Trackpoint>
          <Trackpoint>
            <Time>2021-08-10T08:57:25.000Z</Time>
            <Position>
              <LatitudeDegrees>43.10890920460224151611328125</LatitudeDegrees>
              <LongitudeDegrees>-1.68666648678481578826904296875</LongitudeDegrees>
            </Position>
            <AltitudeMeters>192</AltitudeMeters>
            <DistanceMeters>NAN</DistanceMeters>
          </Trackpoint>
          <Trackpoint>
            <Time>2021-08-10T08:57:26.000Z</Time>
            <Position>
              <LatitudeDegrees>43.10891381464898586273193359375</LatitudeDegrees>
              <LongitudeDegrees>-1.686679981648921966552734375</LongitudeDegrees>
            </Position>
            <AltitudeMeters>192.1999969482421875</AltitudeMeters>
            <DistanceMeters>NAN</DistanceMeters>
          </Trackpoint>
          <Trackpoint>
            <Time>2021-08-10T08:57:27.000Z</Time>
            <Position>
              <LatitudeDegrees>43.10891968198120594024658203125</LatitudeDegrees>
              <LongitudeDegrees>-1.686690039932727813720703125</LongitudeDegrees>
            </Position>
            <AltitudeMeters>192.1999969482421875</AltitudeMeters>
            <DistanceMeters>NAN</DistanceMeters>
          </Trackpoint>
          <Trackpoint>
            <Time>2021-08-10T08:57:28.000Z</Time>
            <Position>
              <LatitudeDegrees>43.10892974026501178741455078125</LatitudeDegrees>
              <LongitudeDegrees>-1.68669347651302814483642578125</LongitudeDegrees>
            </Position>
            <AltitudeMeters>192.399993896484375</AltitudeMeters>
            <DistanceMeters>NAN</DistanceMeters>
          </Trackpoint>
          <Trackpoint>
            <Time>2021-08-10T08:57:29.000Z</Time>
            <Position>
              <LatitudeDegrees>43.1089447438716888427734375</LatitudeDegrees>
              <LongitudeDegrees>-1.686692051589488983154296875</LongitudeDegrees>
            </Position>
            <AltitudeMeters>192.600006103515625</AltitudeMeters>
            <DistanceMeters>NAN</DistanceMeters>
          </Trackpoint>
          <Trackpoint>
            <Time>2021-08-10T08:57:30.000Z</Time>
            <Position>
              <LatitudeDegrees>43.10895304195582866668701171875</LatitudeDegrees>
              <LongitudeDegrees>-1.68669532053172588348388671875</LongitudeDegrees>
            </Position>
            <AltitudeMeters>192.600006103515625</AltitudeMeters>
            <DistanceMeters>NAN</DistanceMeters>
          </Trackpoint>
          <Trackpoint>
            <Time>2021-08-10T08:57:31.000Z</Time>
            <Position>
              <LatitudeDegrees>43.10895991511642932891845703125</LatitudeDegrees>
              <LongitudeDegrees>-1.686706803739070892333984375</LongitudeDegrees>
            </Position>
            <AltitudeMeters>192.600006103515625</AltitudeMeters>
            <DistanceMeters>NAN</DistanceMeters>
          </Trackpoint>
          <Trackpoint>
            <Time>2021-08-10T08:57:32.000Z</Time>
            <Position>
              <LatitudeDegrees>43.10896687209606170654296875</LatitudeDegrees>
              <LongitudeDegrees>-1.68671895749866962432861328125</LongitudeDegrees>
            </Position>
            <AltitudeMeters>193</AltitudeMeters>
            <DistanceMeters>NAN</DistanceMeters>
          </Trackpoint>
          <Trackpoint>
            <Time>2021-08-10T08:57:33.000Z</Time>
            <Position>
              <LatitudeDegrees>43.10897500254213809967041015625</LatitudeDegrees>
              <LongitudeDegrees>-1.68672700412571430206298828125</LongitudeDegrees>
            </Position>
            <AltitudeMeters>193</AltitudeMeters>
            <DistanceMeters>NAN</DistanceMeters>
          </Trackpoint>
          <Trackpoint>
            <Time>2021-08-10T08:57:34.000Z</Time>
            <Position>
              <LatitudeDegrees>43.10899059288203716278076171875</LatitudeDegrees>
              <LongitudeDegrees>-1.68673119507730007171630859375</LongitudeDegrees>
            </Position>
            <AltitudeMeters>193.1999969482421875</AltitudeMeters>
            <DistanceMeters>NAN</DistanceMeters>
          </Trackpoint>
          <Trackpoint>
            <Time>2021-08-10T08:57:35.000Z</Time>
            <Position>
              <LatitudeDegrees>43.1089992262423038482666015625</LatitudeDegrees>
              <LongitudeDegrees>-1.68673538602888584136962890625</LongitudeDegrees>
            </Position>
            <AltitudeMeters>193.1999969482421875</AltitudeMeters>
            <DistanceMeters>NAN</DistanceMeters>
          </Trackpoint>
          <Trackpoint>
            <Time>2021-08-10T08:57:36.000Z</Time>
            <Position>
              <LatitudeDegrees>43.1090123020112514495849609375</LatitudeDegrees>
              <LongitudeDegrees>-1.6867406666278839111328125</LongitudeDegrees>
            </Position>
            <AltitudeMeters>193.399993896484375</AltitudeMeters>
            <DistanceMeters>NAN</DistanceMeters>
          </Trackpoint>
          <Trackpoint>
            <Time>2021-08-10T08:57:37.000Z</Time>
            <Position>
              <LatitudeDegrees>43.10902613215148448944091796875</LatitudeDegrees>
              <LongitudeDegrees>-1.6867441870272159576416015625</LongitudeDegrees>
            </Position>
            <AltitudeMeters>193.399993896484375</AltitudeMeters>
            <DistanceMeters>NAN</DistanceMeters>
          </Trackpoint>
          <Trackpoint>
            <Time>2021-08-10T08:57:38.000Z</Time>
            <Position>
              <LatitudeDegrees>43.1090371124446392059326171875</LatitudeDegrees>
              <LongitudeDegrees>-1.6867472045123577117919921875</LongitudeDegrees>
            </Position>
            <AltitudeMeters>193.600006103515625</AltitudeMeters>
            <DistanceMeters>NAN</DistanceMeters>
          </Trackpoint>
          <Trackpoint>
            <Time>2021-08-10T08:57:39.000Z</Time>
            <Position>
              <LatitudeDegrees>43.10904557816684246063232421875</LatitudeDegrees>
              <LongitudeDegrees>-1.68674862943589687347412109375</LongitudeDegrees>
            </Position>
            <AltitudeMeters>193.8000030517578125</AltitudeMeters>
            <DistanceMeters>NAN</DistanceMeters>
          </Trackpoint>
          <Trackpoint>
            <Time>2021-08-10T08:57:40.000Z</Time>
            <Position>
              <LatitudeDegrees>43.10905806720256805419921875</LatitudeDegrees>
              <LongitudeDegrees>-1.68674762360751628875732421875</LongitudeDegrees>
            </Position>
            <AltitudeMeters>193.8000030517578125</AltitudeMeters>
            <DistanceMeters>NAN</DistanceMeters>
          </Trackpoint>
          <Trackpoint>
            <Time>2021-08-10T08:57:41.000Z</Time>
            <Position>
              <LatitudeDegrees>43.10906904749572277069091796875</LatitudeDegrees>
              <LongitudeDegrees>-1.68674267828464508056640625</LongitudeDegrees>
            </Position>
            <AltitudeMeters>194.1999969482421875</AltitudeMeters>
            <DistanceMeters>NAN</DistanceMeters>
          </Trackpoint>
          <Trackpoint>
            <Time>2021-08-10T08:57:42.000Z</Time>
            <Position>
              <LatitudeDegrees>43.109081871807575225830078125</LatitudeDegrees>
              <LongitudeDegrees>-1.68673370964825153350830078125</LongitudeDegrees>
            </Position>
            <AltitudeMeters>194.399993896484375</AltitudeMeters>
            <DistanceMeters>NAN</DistanceMeters>
          </Trackpoint>
          <Trackpoint>
            <Time>2021-08-10T08:57:43.000Z</Time>
            <Position>
              <LatitudeDegrees>43.1090931035578250885009765625</LatitudeDegrees>
              <LongitudeDegrees>-1.686722896993160247802734375</LongitudeDegrees>
            </Position>
            <AltitudeMeters>194.600006103515625</AltitudeMeters>
            <DistanceMeters>NAN</DistanceMeters>
          </Trackpoint>
          <Trackpoint>
            <Time>2021-08-10T08:57:44.000Z</Time>
            <Position>
              <LatitudeDegrees>43.10910609550774097442626953125</LatitudeDegrees>
              <LongitudeDegrees>-1.6867099888622760772705078125</LongitudeDegrees>
            </Position>
            <AltitudeMeters>194.8000030517578125</AltitudeMeters>
            <DistanceMeters>NAN</DistanceMeters>
          </Trackpoint>
          <Trackpoint>
            <Time>2021-08-10T08:57:45.000Z</Time>
            <Position>
              <LatitudeDegrees>43.10911707580089569091796875</LatitudeDegrees>
              <LongitudeDegrees>-1.68669817037880420684814453125</LongitudeDegrees>
            </Position>
            <AltitudeMeters>195</AltitudeMeters>
            <DistanceMeters>NAN</DistanceMeters>
          </Trackpoint>
          <Trackpoint>
            <Time>2021-08-10T08:57:46.000Z</Time>
            <Position>
              <LatitudeDegrees>43.10912646353244781494140625</LatitudeDegrees>
              <LongitudeDegrees>-1.6866870224475860595703125</LongitudeDegrees>
            </Position>
            <AltitudeMeters>195.1999969482421875</AltitudeMeters>
            <DistanceMeters>NAN</DistanceMeters>
          </Trackpoint>
          <Trackpoint>
            <Time>2021-08-10T08:57:47.000Z</Time>
            <Position>
              <LatitudeDegrees>43.1091363541781902313232421875</LatitudeDegrees>
              <LongitudeDegrees>-1.68667721562087535858154296875</LongitudeDegrees>
            </Position>
            <AltitudeMeters>195.1999969482421875</AltitudeMeters>
            <DistanceMeters>NAN</DistanceMeters>
          </Trackpoint>
          <Trackpoint>
            <Time>2021-08-10T08:57:48.000Z</Time>
            <Position>
              <LatitudeDegrees>43.10914792120456695556640625</LatitudeDegrees>
              <LongitudeDegrees>-1.6866664029657840728759765625</LongitudeDegrees>
            </Position>
            <AltitudeMeters>195.399993896484375</AltitudeMeters>
            <DistanceMeters>NAN</DistanceMeters>
          </Trackpoint>
          <Trackpoint>
            <Time>2021-08-10T08:57:49.000Z</Time>
            <Position>
              <LatitudeDegrees>43.1091584824025630950927734375</LatitudeDegrees>
              <LongitudeDegrees>-1.68665542267262935638427734375</LongitudeDegrees>
            </Position>
            <AltitudeMeters>195.399993896484375</AltitudeMeters>
            <DistanceMeters>NAN</DistanceMeters>
          </Trackpoint>
          <Trackpoint>
            <Time>2021-08-10T08:57:50.000Z</Time>
            <Position>
              <LatitudeDegrees>43.1091685406863689422607421875</LatitudeDegrees>
              <LongitudeDegrees>-1.68664502911269664764404296875</LongitudeDegrees>
            </Position>
            <AltitudeMeters>195.600006103515625</AltitudeMeters>
            <DistanceMeters>NAN</DistanceMeters>
          </Trackpoint>
          <Trackpoint>
            <Time>2021-08-10T08:57:51.000Z</Time>
            <Position>
              <LatitudeDegrees>43.10917566530406475067138671875</LatitudeDegrees>
              <LongitudeDegrees>-1.68663480319082736968994140625</LongitudeDegrees>
            </Position>
            <AltitudeMeters>195.600006103515625</AltitudeMeters>
            <DistanceMeters>NAN</DistanceMeters>
          </Trackpoint>
          <Trackpoint>
            <Time>2021-08-10T08:57:52.000Z</Time>
            <Position>
              <LatitudeDegrees>43.10918102972209453582763671875</LatitudeDegrees>
              <LongitudeDegrees>-1.68663094751536846160888671875</LongitudeDegrees>
            </Position>
            <AltitudeMeters>195.600006103515625</AltitudeMeters>
            <DistanceMeters>NAN</DistanceMeters>
          </Trackpoint>
          <Trackpoint>
            <Time>2021-08-10T08:57:53.000Z</Time>
            <Position>
              <LatitudeDegrees>43.10918840579688549041748046875</LatitudeDegrees>
              <LongitudeDegrees>-1.6866172850131988525390625</LongitudeDegrees>
            </Position>
            <AltitudeMeters>195.600006103515625</AltitudeMeters>
            <DistanceMeters>NAN</DistanceMeters>
          </Trackpoint>
          <Trackpoint>
            <Time>2021-08-10T08:57:54.000Z</Time>
            <Position>
              <LatitudeDegrees>43.1091916747391223907470703125</LatitudeDegrees>
              <LongitudeDegrees>-1.6866065561771392822265625</LongitudeDegrees>
            </Position>
            <AltitudeMeters>195.600006103515625</AltitudeMeters>
            <DistanceMeters>NAN</DistanceMeters>
          </Trackpoint>
          <Trackpoint>
            <Time>2021-08-10T08:57:55.000Z</Time>
            <Position>
              <LatitudeDegrees>43.1092013977468013763427734375</LatitudeDegrees>
              <LongitudeDegrees>-1.68660814873874187469482421875</LongitudeDegrees>
            </Position>
            <AltitudeMeters>195.600006103515625</AltitudeMeters>
            <DistanceMeters>NAN</DistanceMeters>
          </Trackpoint>
          <Trackpoint>
            <Time>2021-08-10T08:57:56.000Z</Time>
            <Position>
              <LatitudeDegrees>43.109213300049304962158203125</LatitudeDegrees>
              <LongitudeDegrees>-1.68661586008965969085693359375</LongitudeDegrees>
            </Position>
            <AltitudeMeters>195.600006103515625</AltitudeMeters>
            <DistanceMeters>NAN</DistanceMeters>
          </Trackpoint>
          <Trackpoint>
            <Time>2021-08-10T08:57:57.000Z</Time>
            <Position>
              <LatitudeDegrees>43.10922704637050628662109375</LatitudeDegrees>
              <LongitudeDegrees>-1.68661586008965969085693359375</LongitudeDegrees>
            </Position>
            <AltitudeMeters>195.8000030517578125</AltitudeMeters>
            <DistanceMeters>NAN</DistanceMeters>
          </Trackpoint>
          <Trackpoint>
            <Time>2021-08-10T08:57:58.000Z</Time>
            <Position>
              <LatitudeDegrees>43.10924288816750049591064453125</LatitudeDegrees>
              <LongitudeDegrees>-1.6866120882332324981689453125</LongitudeDegrees>
            </Position>
            <AltitudeMeters>195.8000030517578125</AltitudeMeters>
            <DistanceMeters>NAN</DistanceMeters>
          </Trackpoint>
          <Trackpoint>
            <Time>2021-08-10T08:57:59.000Z</Time>
            <Position>
              <LatitudeDegrees>43.10926325619220733642578125</LatitudeDegrees>
              <LongitudeDegrees>-1.68660362251102924346923828125</LongitudeDegrees>
            </Position>
            <AltitudeMeters>195.8000030517578125</AltitudeMeters>
            <DistanceMeters>NAN</DistanceMeters>
          </Trackpoint>
          <Trackpoint>
            <Time>2021-08-10T08:58:00.000Z</Time>
            <Position>
              <LatitudeDegrees>43.10927423648536205291748046875</LatitudeDegrees>
              <LongitudeDegrees>-1.686594486236572265625</LongitudeDegrees>
            </Position>
            <AltitudeMeters>195.8000030517578125</AltitudeMeters>
            <DistanceMeters>NAN</DistanceMeters>
          </Trackpoint>
          <Trackpoint>
            <Time>2021-08-10T08:58:01.000Z</Time>
            <Position>
              <LatitudeDegrees>43.109280355274677276611328125</LatitudeDegrees>
              <LongitudeDegrees>-1.6865819133818149566650390625</LongitudeDegrees>
            </Position>
            <AltitudeMeters>195.8000030517578125</AltitudeMeters>
            <DistanceMeters>NAN</DistanceMeters>
          </Trackpoint>
          <Trackpoint>
            <Time>2021-08-10T08:58:02.000Z</Time>
            <Position>
              <LatitudeDegrees>43.109289743006229400634765625</LatitudeDegrees>
              <LongitudeDegrees>-1.68656607158482074737548828125</LongitudeDegrees>
            </Position>
            <AltitudeMeters>195.8000030517578125</AltitudeMeters>
            <DistanceMeters>NAN</DistanceMeters>
          </Trackpoint>
          <Trackpoint>
            <Time>2021-08-10T08:58:03.000Z</Time>
            <Position>
              <LatitudeDegrees>43.10929854400455951690673828125</LatitudeDegrees>
              <LongitudeDegrees>-1.68654729612171649932861328125</LongitudeDegrees>
            </Position>
            <AltitudeMeters>195.8000030517578125</AltitudeMeters>
            <DistanceMeters>NAN</DistanceMeters>
          </Trackpoint>
          <Trackpoint>
            <Time>2021-08-10T08:58:04.000Z</Time>
            <Position>
              <LatitudeDegrees>43.10931094922125339508056640625</LatitudeDegrees>
              <LongitudeDegrees>-1.6865262575447559356689453125</LongitudeDegrees>
            </Position>
            <AltitudeMeters>195.8000030517578125</AltitudeMeters>
            <DistanceMeters>NAN</DistanceMeters>
          </Trackpoint>
          <Trackpoint>
            <Time>2021-08-10T08:58:05.000Z</Time>
            <Position>
              <LatitudeDegrees>43.1093224324285984039306640625</LatitudeDegrees>
              <LongitudeDegrees>-1.68651125393807888031005859375</LongitudeDegrees>
            </Position>
            <AltitudeMeters>195.8000030517578125</AltitudeMeters>
            <DistanceMeters>NAN</DistanceMeters>
          </Trackpoint>
          <Trackpoint>
            <Time>2021-08-10T08:58:06.000Z</Time>
            <Position>
              <LatitudeDegrees>43.10933223925530910491943359375</LatitudeDegrees>
              <LongitudeDegrees>-1.6865027882158756256103515625</LongitudeDegrees>
            </Position>
            <AltitudeMeters>195.8000030517578125</AltitudeMeters>
            <DistanceMeters>NAN</DistanceMeters>
          </Trackpoint>
          <Trackpoint>
            <Time>2021-08-10T08:58:09.000Z</Time>
            <Position>
              <LatitudeDegrees>43.10936694033443927764892578125</LatitudeDegrees>
              <LongitudeDegrees>-1.68646733276546001434326171875</LongitudeDegrees>
            </Position>
            <AltitudeMeters>195.8000030517578125</AltitudeMeters>
            <DistanceMeters>NAN</DistanceMeters>
          </Trackpoint>
          <Trackpoint>
            <Time>2021-08-10T08:58:10.000Z</Time>
            <Position>
              <LatitudeDegrees>43.1093800999224185943603515625</LatitudeDegrees>
              <LongitudeDegrees>-1.68646582402288913726806640625</LongitudeDegrees>
            </Position>
            <AltitudeMeters>195.600006103515625</AltitudeMeters>
            <DistanceMeters>NAN</DistanceMeters>
          </Trackpoint>
          <Trackpoint>
            <Time>2021-08-10T08:58:11.000Z</Time>
            <Position>
              <LatitudeDegrees>43.1093911640346050262451171875</LatitudeDegrees>
              <LongitudeDegrees>-1.68647018261253833770751953125</LongitudeDegrees>
            </Position>
            <AltitudeMeters>195.600006103515625</AltitudeMeters>
            <DistanceMeters>NAN</DistanceMeters>
          </Trackpoint>
          <Trackpoint>
            <Time>2021-08-10T08:58:12.000Z</Time>
            <Position>
              <LatitudeDegrees>43.10940013267099857330322265625</LatitudeDegrees>
              <LongitudeDegrees>-1.68647873215377330780029296875</LongitudeDegrees>
            </Position>
            <AltitudeMeters>195.600006103515625</AltitudeMeters>
            <DistanceMeters>NAN</DistanceMeters>
          </Trackpoint>
          <Trackpoint>
            <Time>2021-08-10T08:58:13.000Z</Time>
            <Position>
              <LatitudeDegrees>43.1094060838222503662109375</LatitudeDegrees>
              <LongitudeDegrees>-1.68649415485560894012451171875</LongitudeDegrees>
            </Position>
            <AltitudeMeters>195.600006103515625</AltitudeMeters>
            <DistanceMeters>NAN</DistanceMeters>
          </Trackpoint>
          <Trackpoint>
            <Time>2021-08-10T08:58:14.000Z</Time>
            <Position>
              <LatitudeDegrees>43.1094034016132354736328125</LatitudeDegrees>
              <LongitudeDegrees>-1.68650639243423938751220703125</LongitudeDegrees>
            </Position>
            <AltitudeMeters>195.8000030517578125</AltitudeMeters>
            <DistanceMeters>NAN</DistanceMeters>
          </Trackpoint>
          <Trackpoint>
            <Time>2021-08-10T08:58:15.000Z</Time>
            <Position>
              <LatitudeDegrees>43.10939158312976360321044921875</LatitudeDegrees>
              <LongitudeDegrees>-1.68651360087096691131591796875</LongitudeDegrees>
            </Position>
            <AltitudeMeters>195.8000030517578125</AltitudeMeters>
            <DistanceMeters>NAN</DistanceMeters>
          </Trackpoint>
          <Trackpoint>
            <Time>2021-08-10T08:58:16.000Z</Time>
            <Position>
              <LatitudeDegrees>43.10937683098018169403076171875</LatitudeDegrees>
              <LongitudeDegrees>-1.68652013875544071197509765625</LongitudeDegrees>
            </Position>
            <AltitudeMeters>195.600006103515625</AltitudeMeters>
            <DistanceMeters>NAN</DistanceMeters>
          </Trackpoint>
          <Trackpoint>
            <Time>2021-08-10T08:58:18.000Z</Time>
            <Position>
              <LatitudeDegrees>43.109350092709064483642578125</LatitudeDegrees>
              <LongitudeDegrees>-1.686512343585491180419921875</LongitudeDegrees>
            </Position>
            <AltitudeMeters>195.600006103515625</AltitudeMeters>
            <DistanceMeters>NAN</DistanceMeters>
          </Trackpoint>
          <Trackpoint>
            <Time>2021-08-10T08:58:19.000Z</Time>
            <Position>
              <LatitudeDegrees>43.10933969914913177490234375</LatitudeDegrees>
              <LongitudeDegrees>-1.68650018982589244842529296875</LongitudeDegrees>
            </Position>
            <AltitudeMeters>195.600006103515625</AltitudeMeters>
            <DistanceMeters>NAN</DistanceMeters>
          </Trackpoint>
          <Trackpoint>
            <Time>2021-08-10T08:58:20.000Z</Time>
            <Position>
              <LatitudeDegrees>43.1093318201601505279541015625</LatitudeDegrees>
              <LongitudeDegrees>-1.6864885389804840087890625</LongitudeDegrees>
            </Position>
            <AltitudeMeters>195.8000030517578125</AltitudeMeters>
            <DistanceMeters>NAN</DistanceMeters>
          </Trackpoint>
          <Trackpoint>
            <Time>2021-08-10T08:58:21.000Z</Time>
            <Position>
              <LatitudeDegrees>43.10932955704629421234130859375</LatitudeDegrees>
              <LongitudeDegrees>-1.68648183345794677734375</LongitudeDegrees>
            </Position>
            <AltitudeMeters>195.600006103515625</AltitudeMeters>
            <DistanceMeters>NAN</DistanceMeters>
          </Trackpoint>
          <Trackpoint>
            <Time>2021-08-10T08:58:25.000Z</Time>
            <Position>
              <LatitudeDegrees>43.10932955704629421234130859375</LatitudeDegrees>
              <LongitudeDegrees>-1.68648183345794677734375</LongitudeDegrees>
            </Position>
            <AltitudeMeters>195.600006103515625</AltitudeMeters>
            <DistanceMeters>NAN</DistanceMeters>
          </Trackpoint>
          <Trackpoint>
            <Time>2021-08-10T08:58:47.000Z</Time>
            <Position>
              <LatitudeDegrees>43.10932955704629421234130859375</LatitudeDegrees>
              <LongitudeDegrees>-1.68648183345794677734375</LongitudeDegrees>
            </Position>
            <AltitudeMeters>195.600006103515625</AltitudeMeters>
            <DistanceMeters>NAN</DistanceMeters>
          </Trackpoint>
          <Trackpoint>
            <Time>2021-08-10T08:58:49.000Z</Time>
            <Position>
              <LatitudeDegrees>43.10933777131140232086181640625</LatitudeDegrees>
              <LongitudeDegrees>-1.68646599166095256805419921875</LongitudeDegrees>
            </Position>
            <AltitudeMeters>195.600006103515625</AltitudeMeters>
            <DistanceMeters>NAN</DistanceMeters>
          </Trackpoint>
          <Trackpoint>
            <Time>2021-08-10T08:58:50.000Z</Time>
            <Position>
              <LatitudeDegrees>43.1093479134142398834228515625</LatitudeDegrees>
              <LongitudeDegrees>-1.68645191006362438201904296875</LongitudeDegrees>
            </Position>
            <AltitudeMeters>195.600006103515625</AltitudeMeters>
            <DistanceMeters>NAN</DistanceMeters>
          </Trackpoint>
          <Trackpoint>
            <Time>2021-08-10T08:58:51.000Z</Time>
            <Position>
              <LatitudeDegrees>43.10936291702091693878173828125</LatitudeDegrees>
              <LongitudeDegrees>-1.686436235904693603515625</LongitudeDegrees>
            </Position>
            <AltitudeMeters>195.600006103515625</AltitudeMeters>
            <DistanceMeters>NAN</DistanceMeters>
          </Trackpoint>
          <Trackpoint>
            <Time>2021-08-10T08:58:57.000Z</Time>
            <Position>
              <LatitudeDegrees>43.109484203159809112548828125</LatitudeDegrees>
              <LongitudeDegrees>-1.6862945817410945892333984375</LongitudeDegrees>
            </Position>
            <AltitudeMeters>195.600006103515625</AltitudeMeters>
            <DistanceMeters>NAN</DistanceMeters>
          </Trackpoint>
          <Trackpoint>
            <Time>2021-08-10T08:59:00.000Z</Time>
            <Position>
              <LatitudeDegrees>43.10956559143960475921630859375</LatitudeDegrees>
              <LongitudeDegrees>-1.68623297475278377532958984375</LongitudeDegrees>
            </Position>
            <AltitudeMeters>195.600006103515625</AltitudeMeters>
            <DistanceMeters>NAN</DistanceMeters>
          </Trackpoint>
          <Trackpoint>
            <Time>2021-08-10T08:59:01.000Z</Time>
            <Position>
              <LatitudeDegrees>43.1095926649868488311767578125</LatitudeDegrees>
              <LongitudeDegrees>-1.6862114332616329193115234375</LongitudeDegrees>
            </Position>
            <AltitudeMeters>195.600006103515625</AltitudeMeters>
            <DistanceMeters>NAN</DistanceMeters>
          </Trackpoint>
          <Trackpoint>
            <Time>2021-08-10T08:59:02.000Z</Time>
            <Position>
              <LatitudeDegrees>43.1096218340098857879638671875</LatitudeDegrees>
              <LongitudeDegrees>-1.6861876286566257476806640625</LongitudeDegrees>
            </Position>
            <AltitudeMeters>195.600006103515625</AltitudeMeters>
            <DistanceMeters>NAN</DistanceMeters>
          </Trackpoint>
          <Trackpoint>
            <Time>2021-08-10T08:59:04.000Z</Time>
            <Position>
              <LatitudeDegrees>43.10965695418417453765869140625</LatitudeDegrees>
              <LongitudeDegrees>-1.6861494071781635284423828125</LongitudeDegrees>
            </Position>
            <AltitudeMeters>195.600006103515625</AltitudeMeters>
            <DistanceMeters>NAN</DistanceMeters>
          </Trackpoint>
          <Trackpoint>
            <Time>2021-08-10T08:59:06.000Z</Time>
            <Position>
              <LatitudeDegrees>43.10969911515712738037109375</LatitudeDegrees>
              <LongitudeDegrees>-1.68611646629869937896728515625</LongitudeDegrees>
            </Position>
            <AltitudeMeters>195.600006103515625</AltitudeMeters>
            <DistanceMeters>NAN</DistanceMeters>
          </Trackpoint>
          <Trackpoint>
            <Time>2021-08-10T08:59:07.000Z</Time>
            <Position>
              <LatitudeDegrees>43.1097172200679779052734375</LatitudeDegrees>
              <LongitudeDegrees>-1.68609903194010257720947265625</LongitudeDegrees>
            </Position>
            <AltitudeMeters>195.600006103515625</AltitudeMeters>
            <DistanceMeters>NAN</DistanceMeters>
          </Trackpoint>
          <Trackpoint>
            <Time>2021-08-10T08:59:08.000Z</Time>
            <Position>
              <LatitudeDegrees>43.1097334809601306915283203125</LatitudeDegrees>
              <LongitudeDegrees>-1.68608419597148895263671875</LongitudeDegrees>
            </Position>
            <AltitudeMeters>195.600006103515625</AltitudeMeters>
            <DistanceMeters>NAN</DistanceMeters>
          </Trackpoint>
          <Trackpoint>
            <Time>2021-08-10T08:59:09.000Z</Time>
            <Position>
              <LatitudeDegrees>43.10974312014877796173095703125</LatitudeDegrees>
              <LongitudeDegrees>-1.6860702820122241973876953125</LongitudeDegrees>
            </Position>
            <AltitudeMeters>195.600006103515625</AltitudeMeters>
            <DistanceMeters>NAN</DistanceMeters>
          </Trackpoint>
          <Trackpoint>
            <Time>2021-08-10T08:59:10.000Z</Time>
            <Position>
              <LatitudeDegrees>43.10974345542490482330322265625</LatitudeDegrees>
              <LongitudeDegrees>-1.68606366030871868133544921875</LongitudeDegrees>
            </Position>
            <AltitudeMeters>195.600006103515625</AltitudeMeters>
            <DistanceMeters>NAN</DistanceMeters>
          </Trackpoint>
          <Trackpoint>
            <Time>2021-08-10T08:59:11.000Z</Time>
            <Position>
              <LatitudeDegrees>43.10974345542490482330322265625</LatitudeDegrees>
              <LongitudeDegrees>-1.68606366030871868133544921875</LongitudeDegrees>
            </Position>
            <AltitudeMeters>195.8000030517578125</AltitudeMeters>
            <DistanceMeters>NAN</DistanceMeters>
          </Trackpoint>
          <Trackpoint>
            <Time>2021-08-10T08:59:12.000Z</Time>
            <Position>
              <LatitudeDegrees>43.10974781401455402374267578125</LatitudeDegrees>
              <LongitudeDegrees>-1.68606005609035491943359375</LongitudeDegrees>
            </Position>
            <AltitudeMeters>195.8000030517578125</AltitudeMeters>
            <DistanceMeters>NAN</DistanceMeters>
          </Trackpoint>
          <Trackpoint>
            <Time>2021-08-10T08:59:13.000Z</Time>
            <Position>
              <LatitudeDegrees>43.109754435718059539794921875</LatitudeDegrees>
              <LongitudeDegrees>-1.6860511712729930877685546875</LongitudeDegrees>
            </Position>
            <AltitudeMeters>195.8000030517578125</AltitudeMeters>
            <DistanceMeters>NAN</DistanceMeters>
          </Trackpoint>
          <Trackpoint>
            <Time>2021-08-10T08:59:14.000Z</Time>
            <Position>
              <LatitudeDegrees>43.10975569300353527069091796875</LatitudeDegrees>
              <LongitudeDegrees>-1.6860417835414409637451171875</LongitudeDegrees>
            </Position>
            <AltitudeMeters>195.8000030517578125</AltitudeMeters>
            <DistanceMeters>NAN</DistanceMeters>
          </Trackpoint>
          <Trackpoint>
            <Time>2021-08-10T08:59:15.000Z</Time>
            <Position>
              <LatitudeDegrees>43.1097599677741527557373046875</LatitudeDegrees>
              <LongitudeDegrees>-1.68603231199085712432861328125</LongitudeDegrees>
            </Position>
            <AltitudeMeters>195.8000030517578125</AltitudeMeters>
            <DistanceMeters>NAN</DistanceMeters>
          </Trackpoint>
          <Trackpoint>
            <Time>2021-08-10T08:59:17.000Z</Time>
            <Position>
              <LatitudeDegrees>43.10977932997047901153564453125</LatitudeDegrees>
              <LongitudeDegrees>-1.68602610938251018524169921875</LongitudeDegrees>
            </Position>
            <AltitudeMeters>195.8000030517578125</AltitudeMeters>
            <DistanceMeters>NAN</DistanceMeters>
          </Trackpoint>
          <Trackpoint>
            <Time>2021-08-10T08:59:19.000Z</Time>
            <Position>
              <LatitudeDegrees>43.10979240573942661285400390625</LatitudeDegrees>
              <LongitudeDegrees>-1.68605041690170764923095703125</LongitudeDegrees>
            </Position>
            <AltitudeMeters>195.8000030517578125</AltitudeMeters>
            <DistanceMeters>NAN</DistanceMeters>
          </Trackpoint>
          <Trackpoint>
            <Time>2021-08-10T08:59:20.000Z</Time>
            <Position>
              <LatitudeDegrees>43.1097884662449359893798828125</LatitudeDegrees>
              <LongitudeDegrees>-1.68606399558484554290771484375</LongitudeDegrees>
            </Position>
            <AltitudeMeters>195.8000030517578125</AltitudeMeters>
            <DistanceMeters>NAN</DistanceMeters>
          </Trackpoint>
          <Trackpoint>
            <Time>2021-08-10T08:59:21.000Z</Time>
            <Position>
              <LatitudeDegrees>43.10977916233241558074951171875</LatitudeDegrees>
              <LongitudeDegrees>-1.68607271276414394378662109375</LongitudeDegrees>
            </Position>
            <AltitudeMeters>195.8000030517578125</AltitudeMeters>
            <DistanceMeters>NAN</DistanceMeters>
          </Trackpoint>
          <Trackpoint>
            <Time>2021-08-10T08:59:23.000Z</Time>
            <Position>
              <LatitudeDegrees>43.109743036329746246337890625</LatitudeDegrees>
              <LongitudeDegrees>-1.68608796782791614532470703125</LongitudeDegrees>
            </Position>
            <AltitudeMeters>195.8000030517578125</AltitudeMeters>
            <DistanceMeters>NAN</DistanceMeters>
          </Trackpoint>
          <Trackpoint>
            <Time>2021-08-10T08:59:25.000Z</Time>
            <Position>
              <LatitudeDegrees>43.10970623977482318878173828125</LatitudeDegrees>
              <LongitudeDegrees>-1.68611059896647930145263671875</LongitudeDegrees>
            </Position>
            <AltitudeMeters>195.8000030517578125</AltitudeMeters>
            <DistanceMeters>NAN</DistanceMeters>
          </Trackpoint>
          <Trackpoint>
            <Time>2021-08-10T08:59:26.000Z</Time>
            <Position>
              <LatitudeDegrees>43.10968947596848011016845703125</LatitudeDegrees>
              <LongitudeDegrees>-1.68613440357148647308349609375</LongitudeDegrees>
            </Position>
            <AltitudeMeters>195.8000030517578125</AltitudeMeters>
            <DistanceMeters>NAN</DistanceMeters>
          </Trackpoint>
          <Trackpoint>
            <Time>2021-08-10T08:59:27.000Z</Time>
            <Position>
              <LatitudeDegrees>43.109681345522403717041015625</LatitudeDegrees>
              <LongitudeDegrees>-1.6861487366259098052978515625</LongitudeDegrees>
            </Position>
            <AltitudeMeters>195.8000030517578125</AltitudeMeters>
            <DistanceMeters>NAN</DistanceMeters>
          </Trackpoint>
          <Trackpoint>
            <Time>2021-08-10T08:59:29.000Z</Time>
            <Position>
              <LatitudeDegrees>43.10961789451539516448974609375</LatitudeDegrees>
              <LongitudeDegrees>-1.6862164624035358428955078125</LongitudeDegrees>
            </Position>
            <AltitudeMeters>195.600006103515625</AltitudeMeters>
            <DistanceMeters>NAN</DistanceMeters>
          </Trackpoint>
          <Trackpoint>
            <Time>2021-08-10T08:59:30.000Z</Time>
            <Position>
              <LatitudeDegrees>43.10961789451539516448974609375</LatitudeDegrees>
              <LongitudeDegrees>-1.6862164624035358428955078125</LongitudeDegrees>
            </Position>
            <AltitudeMeters>195.600006103515625</AltitudeMeters>
            <DistanceMeters>NAN</DistanceMeters>
          </Trackpoint>
          <Trackpoint>
            <Time>2021-08-10T08:59:31.000Z</Time>
            <Position>
              <LatitudeDegrees>43.1095859594643115997314453125</LatitudeDegrees>
              <LongitudeDegrees>-1.686240769922733306884765625</LongitudeDegrees>
            </Position>
            <AltitudeMeters>195.600006103515625</AltitudeMeters>
            <DistanceMeters>NAN</DistanceMeters>
          </Trackpoint>
          <Trackpoint>
            <Time>2021-08-10T08:59:32.000Z</Time>
            <Position>
              <LatitudeDegrees>43.109564669430255889892578125</LatitudeDegrees>
              <LongitudeDegrees>-1.68625812046229839324951171875</LongitudeDegrees>
            </Position>
            <AltitudeMeters>195.399993896484375</AltitudeMeters>
            <DistanceMeters>NAN</DistanceMeters>
          </Trackpoint>
          <Trackpoint>
            <Time>2021-08-10T08:59:36.000Z</Time>
            <Position>
              <LatitudeDegrees>43.10947942547500133514404296875</LatitudeDegrees>
              <LongitudeDegrees>-1.686321236193180084228515625</LongitudeDegrees>
            </Position>
            <AltitudeMeters>195.399993896484375</AltitudeMeters>
            <DistanceMeters>NAN</DistanceMeters>
          </Trackpoint>
          <Trackpoint>
            <Time>2021-08-10T08:59:37.000Z</Time>
            <Position>
              <LatitudeDegrees>43.10945863835513591766357421875</LatitudeDegrees>
              <LongitudeDegrees>-1.68636859394609928131103515625</LongitudeDegrees>
            </Position>
            <AltitudeMeters>195.399993896484375</AltitudeMeters>
            <DistanceMeters>NAN</DistanceMeters>
          </Trackpoint>
          <Trackpoint>
            <Time>2021-08-10T08:59:38.000Z</Time>
            <Position>
              <LatitudeDegrees>43.10944539494812488555908203125</LatitudeDegrees>
              <LongitudeDegrees>-1.6863851062953472137451171875</LongitudeDegrees>
            </Position>
            <AltitudeMeters>195.399993896484375</AltitudeMeters>
            <DistanceMeters>NAN</DistanceMeters>
          </Trackpoint>
          <Trackpoint>
            <Time>2021-08-10T08:59:39.000Z</Time>
            <Position>
              <LatitudeDegrees>43.10944539494812488555908203125</LatitudeDegrees>
              <LongitudeDegrees>-1.6863851062953472137451171875</LongitudeDegrees>
            </Position>
            <AltitudeMeters>195.399993896484375</AltitudeMeters>
            <DistanceMeters>NAN</DistanceMeters>
          </Trackpoint>
          <Trackpoint>
            <Time>2021-08-10T08:59:40.000Z</Time>
            <Position>
              <LatitudeDegrees>43.10942611657083034515380859375</LatitudeDegrees>
              <LongitudeDegrees>-1.68640145100653171539306640625</LongitudeDegrees>
            </Position>
            <AltitudeMeters>195.399993896484375</AltitudeMeters>
            <DistanceMeters>NAN</DistanceMeters>
          </Trackpoint>
          <Trackpoint>
            <Time>2021-08-10T08:59:41.000Z</Time>
            <Position>
              <LatitudeDegrees>43.10941656120121479034423828125</LatitudeDegrees>
              <LongitudeDegrees>-1.68643447570502758026123046875</LongitudeDegrees>
            </Position>
            <AltitudeMeters>195.399993896484375</AltitudeMeters>
            <DistanceMeters>NAN</DistanceMeters>
          </Trackpoint>
          <Trackpoint>
            <Time>2021-08-10T08:59:42.000Z</Time>
            <Position>
              <LatitudeDegrees>43.10941656120121479034423828125</LatitudeDegrees>
              <LongitudeDegrees>-1.68643447570502758026123046875</LongitudeDegrees>
            </Position>
            <AltitudeMeters>195.399993896484375</AltitudeMeters>
            <DistanceMeters>NAN</DistanceMeters>
          </Trackpoint>
          <Trackpoint>
            <Time>2021-08-10T08:59:45.000Z</Time>
            <Position>
              <LatitudeDegrees>43.10940834693610668182373046875</LatitudeDegrees>
              <LongitudeDegrees>-1.68647848069667816162109375</LongitudeDegrees>
            </Position>
            <AltitudeMeters>195.399993896484375</AltitudeMeters>
            <DistanceMeters>NAN</DistanceMeters>
          </Trackpoint>
          <Trackpoint>
            <Time>2021-08-10T08:59:46.000Z</Time>
            <Position>
              <LatitudeDegrees>43.1094035692512989044189453125</LatitudeDegrees>
              <LongitudeDegrees>-1.68651008047163486480712890625</LongitudeDegrees>
            </Position>
            <AltitudeMeters>195.399993896484375</AltitudeMeters>
            <DistanceMeters>NAN</DistanceMeters>
          </Trackpoint>
          <Trackpoint>
            <Time>2021-08-10T08:59:47.000Z</Time>
            <Position>
              <LatitudeDegrees>43.1094035692512989044189453125</LatitudeDegrees>
              <LongitudeDegrees>-1.68651008047163486480712890625</LongitudeDegrees>
            </Position>
            <AltitudeMeters>195.399993896484375</AltitudeMeters>
            <DistanceMeters>NAN</DistanceMeters>
          </Trackpoint>
          <Trackpoint>
            <Time>2021-08-10T08:59:48.000Z</Time>
            <Position>
              <LatitudeDegrees>43.109402395784854888916015625</LatitudeDegrees>
              <LongitudeDegrees>-1.68653187341988086700439453125</LongitudeDegrees>
            </Position>
            <AltitudeMeters>195.399993896484375</AltitudeMeters>
            <DistanceMeters>NAN</DistanceMeters>
          </Trackpoint>
          <Trackpoint>
            <Time>2021-08-10T08:59:49.000Z</Time>
            <Position>
              <LatitudeDegrees>43.10939745046198368072509765625</LatitudeDegrees>
              <LongitudeDegrees>-1.686542518436908721923828125</LongitudeDegrees>
            </Position>
            <AltitudeMeters>195.399993896484375</AltitudeMeters>
            <DistanceMeters>NAN</DistanceMeters>
          </Trackpoint>
          <Trackpoint>
            <Time>2021-08-10T08:59:50.000Z</Time>
            <Position>
              <LatitudeDegrees>43.10938739217817783355712890625</LatitudeDegrees>
              <LongitudeDegrees>-1.6865520738065242767333984375</LongitudeDegrees>
            </Position>
            <AltitudeMeters>195.399993896484375</AltitudeMeters>
            <DistanceMeters>NAN</DistanceMeters>
          </Trackpoint>
          <Trackpoint>
            <Time>2021-08-10T08:59:51.000Z</Time>
            <Position>
              <LatitudeDegrees>43.10937146656215190887451171875</LatitudeDegrees>
              <LongitudeDegrees>-1.68655651621520519256591796875</LongitudeDegrees>
            </Position>
            <AltitudeMeters>195.399993896484375</AltitudeMeters>
            <DistanceMeters>NAN</DistanceMeters>
          </Trackpoint>
          <Trackpoint>
            <Time>2021-08-10T08:59:52.000Z</Time>
            <Position>
              <LatitudeDegrees>43.1093566305935382843017578125</LatitudeDegrees>
              <LongitudeDegrees>-1.686548888683319091796875</LongitudeDegrees>
            </Position>
            <AltitudeMeters>195.600006103515625</AltitudeMeters>
            <DistanceMeters>NAN</DistanceMeters>
          </Trackpoint>
          <Trackpoint>
            <Time>2021-08-10T08:59:54.000Z</Time>
            <Position>
              <LatitudeDegrees>43.10933659784495830535888671875</LatitudeDegrees>
              <LongitudeDegrees>-1.6865259222686290740966796875</LongitudeDegrees>
            </Position>
            <AltitudeMeters>195.8000030517578125</AltitudeMeters>
            <DistanceMeters>NAN</DistanceMeters>
          </Trackpoint>
          <Trackpoint>
            <Time>2021-08-10T08:59:56.000Z</Time>
            <Position>
              <LatitudeDegrees>43.1093391962349414825439453125</LatitudeDegrees>
              <LongitudeDegrees>-1.68648652732372283935546875</LongitudeDegrees>
            </Position>
            <AltitudeMeters>195.8000030517578125</AltitudeMeters>
            <DistanceMeters>NAN</DistanceMeters>
          </Trackpoint>
          <Trackpoint>
            <Time>2021-08-10T08:59:57.000Z</Time>
            <Position>
              <LatitudeDegrees>43.1093492545187473297119140625</LatitudeDegrees>
              <LongitudeDegrees>-1.6864712722599506378173828125</LongitudeDegrees>
            </Position>
            <AltitudeMeters>195.8000030517578125</AltitudeMeters>
            <DistanceMeters>NAN</DistanceMeters>
          </Trackpoint>
          <Trackpoint>
            <Time>2021-08-10T08:59:59.000Z</Time>
            <Position>
              <LatitudeDegrees>43.10937079600989818572998046875</LatitudeDegrees>
              <LongitudeDegrees>-1.68646833859384059906005859375</LongitudeDegrees>
            </Position>
            <AltitudeMeters>195.8000030517578125</AltitudeMeters>
            <DistanceMeters>NAN</DistanceMeters>
          </Trackpoint>
          <Trackpoint>
            <Time>2021-08-10T09:00:01.000Z</Time>
            <Position>
              <LatitudeDegrees>43.1093921698629856109619140625</LatitudeDegrees>
              <LongitudeDegrees>-1.68649516068398952484130859375</LongitudeDegrees>
            </Position>
            <AltitudeMeters>195.8000030517578125</AltitudeMeters>
            <DistanceMeters>NAN</DistanceMeters>
          </Trackpoint>
          <Trackpoint>
            <Time>2021-08-10T09:00:04.000Z</Time>
            <Position>
              <LatitudeDegrees>43.10936928726732730865478515625</LatitudeDegrees>
              <LongitudeDegrees>-1.6865356452763080596923828125</LongitudeDegrees>
            </Position>
            <AltitudeMeters>195.8000030517578125</AltitudeMeters>
            <DistanceMeters>NAN</DistanceMeters>
          </Trackpoint>
          <Trackpoint>
            <Time>2021-08-10T09:00:05.000Z</Time>
            <Position>
              <LatitudeDegrees>43.10935470275580883026123046875</LatitudeDegrees>
              <LongitudeDegrees>-1.68653422035276889801025390625</LongitudeDegrees>
            </Position>
            <AltitudeMeters>196</AltitudeMeters>
            <DistanceMeters>NAN</DistanceMeters>
          </Trackpoint>
          <Trackpoint>
            <Time>2021-08-10T09:00:07.000Z</Time>
            <Position>
              <LatitudeDegrees>43.1093321554362773895263671875</LatitudeDegrees>
              <LongitudeDegrees>-1.6865195520222187042236328125</LongitudeDegrees>
            </Position>
            <AltitudeMeters>196</AltitudeMeters>
            <DistanceMeters>NAN</DistanceMeters>
          </Trackpoint>
          <Trackpoint>
            <Time>2021-08-10T09:00:08.000Z</Time>
            <Position>
              <LatitudeDegrees>43.1093321554362773895263671875</LatitudeDegrees>
              <LongitudeDegrees>-1.6865195520222187042236328125</LongitudeDegrees>
            </Position>
            <AltitudeMeters>196</AltitudeMeters>
            <DistanceMeters>NAN</DistanceMeters>
          </Trackpoint>
          <Trackpoint>
            <Time>2021-08-10T09:00:10.000Z</Time>
            <Position>
              <LatitudeDegrees>43.10932821594178676605224609375</LatitudeDegrees>
              <LongitudeDegrees>-1.6865175403654575347900390625</LongitudeDegrees>
            </Position>
            <AltitudeMeters>196</AltitudeMeters>
            <DistanceMeters>NAN</DistanceMeters>
          </Trackpoint>
          <Trackpoint>
            <Time>2021-08-10T09:01:27.000Z</Time>
            <Position>
              <LatitudeDegrees>43.10932821594178676605224609375</LatitudeDegrees>
              <LongitudeDegrees>-1.6865175403654575347900390625</LongitudeDegrees>
            </Position>
            <AltitudeMeters>196</AltitudeMeters>
            <DistanceMeters>NAN</DistanceMeters>
          </Trackpoint>
          <Trackpoint>
            <Time>2021-08-10T09:02:54.000Z</Time>
            <Position>
              <LatitudeDegrees>43.10935403220355510711669921875</LatitudeDegrees>
              <LongitudeDegrees>-1.686459369957447052001953125</LongitudeDegrees>
            </Position>
            <AltitudeMeters>195.600006103515625</AltitudeMeters>
            <DistanceMeters>NAN</DistanceMeters>
          </Trackpoint>
          <Trackpoint>
            <Time>2021-08-10T09:02:55.000Z</Time>
            <Position>
              <LatitudeDegrees>43.109368197619915008544921875</LatitudeDegrees>
              <LongitudeDegrees>-1.68643648736178874969482421875</LongitudeDegrees>
            </Position>
            <AltitudeMeters>195.600006103515625</AltitudeMeters>
            <DistanceMeters>NAN</DistanceMeters>
          </Trackpoint>
          <Trackpoint>
            <Time>2021-08-10T09:02:59.000Z</Time>
            <Position>
              <LatitudeDegrees>43.109436929225921630859375</LatitudeDegrees>
              <LongitudeDegrees>-1.68635216541588306427001953125</LongitudeDegrees>
            </Position>
            <AltitudeMeters>195.8000030517578125</AltitudeMeters>
            <DistanceMeters>NAN</DistanceMeters>
          </Trackpoint>
          <Trackpoint>
            <Time>2021-08-10T09:03:00.000Z</Time>
            <Position>
              <LatitudeDegrees>43.10945595614612102508544921875</LatitudeDegrees>
              <LongitudeDegrees>-1.68632693588733673095703125</LongitudeDegrees>
            </Position>
            <AltitudeMeters>195.8000030517578125</AltitudeMeters>
            <DistanceMeters>NAN</DistanceMeters>
          </Trackpoint>
          <Trackpoint>
            <Time>2021-08-10T09:03:07.000Z</Time>
            <Position>
              <LatitudeDegrees>43.10961856506764888763427734375</LatitudeDegrees>
              <LongitudeDegrees>-1.6861916519701480865478515625</LongitudeDegrees>
            </Position>
            <AltitudeMeters>195.8000030517578125</AltitudeMeters>
            <DistanceMeters>NAN</DistanceMeters>
          </Trackpoint>
          <Trackpoint>
            <Time>2021-08-10T09:03:12.000Z</Time>
            <Position>
              <LatitudeDegrees>43.10971110127866268157958984375</LatitudeDegrees>
              <LongitudeDegrees>-1.68611462228000164031982421875</LongitudeDegrees>
            </Position>
            <AltitudeMeters>195.600006103515625</AltitudeMeters>
            <DistanceMeters>NAN</DistanceMeters>
          </Trackpoint>
          <Trackpoint>
            <Time>2021-08-10T09:03:13.000Z</Time>
            <Position>
              <LatitudeDegrees>43.1097185611724853515625</LatitudeDegrees>
              <LongitudeDegrees>-1.686096601188182830810546875</LongitudeDegrees>
            </Position>
            <AltitudeMeters>195.600006103515625</AltitudeMeters>
            <DistanceMeters>NAN</DistanceMeters>
          </Trackpoint>
          <Trackpoint>
            <Time>2021-08-10T09:03:14.000Z</Time>
            <Position>
              <LatitudeDegrees>43.1097225844860076904296875</LatitudeDegrees>
              <LongitudeDegrees>-1.686075814068317413330078125</LongitudeDegrees>
            </Position>
            <AltitudeMeters>195.600006103515625</AltitudeMeters>
            <DistanceMeters>NAN</DistanceMeters>
          </Trackpoint>
          <Trackpoint>
            <Time>2021-08-10T09:03:15.000Z</Time>
            <Position>
              <LatitudeDegrees>43.1097333133220672607421875</LatitudeDegrees>
              <LongitudeDegrees>-1.6860518418252468109130859375</LongitudeDegrees>
            </Position>
            <AltitudeMeters>195.8000030517578125</AltitudeMeters>
            <DistanceMeters>NAN</DistanceMeters>
          </Trackpoint>
          <Trackpoint>
            <Time>2021-08-10T09:03:16.000Z</Time>
            <Position>
              <LatitudeDegrees>43.10973926447331905364990234375</LatitudeDegrees>
              <LongitudeDegrees>-1.6860277019441127777099609375</LongitudeDegrees>
            </Position>
            <AltitudeMeters>195.8000030517578125</AltitudeMeters>
            <DistanceMeters>NAN</DistanceMeters>
          </Trackpoint>
          <Trackpoint>
            <Time>2021-08-10T09:03:21.000Z</Time>
            <Position>
              <LatitudeDegrees>43.10977094806730747222900390625</LatitudeDegrees>
              <LongitudeDegrees>-1.685901470482349395751953125</LongitudeDegrees>
            </Position>
            <AltitudeMeters>195.8000030517578125</AltitudeMeters>
            <DistanceMeters>NAN</DistanceMeters>
          </Trackpoint>
          <Trackpoint>
            <Time>2021-08-10T09:03:24.000Z</Time>
            <Position>
              <LatitudeDegrees>43.10983113013207912445068359375</LatitudeDegrees>
              <LongitudeDegrees>-1.68576610274612903594970703125</LongitudeDegrees>
            </Position>
            <AltitudeMeters>195.8000030517578125</AltitudeMeters>
            <DistanceMeters>NAN</DistanceMeters>
          </Trackpoint>
          <Trackpoint>
            <Time>2021-08-10T09:03:25.000Z</Time>
            <Position>
              <LatitudeDegrees>43.10984873212873935699462890625</LatitudeDegrees>
              <LongitudeDegrees>-1.685728468000888824462890625</LongitudeDegrees>
            </Position>
            <AltitudeMeters>195.8000030517578125</AltitudeMeters>
            <DistanceMeters>NAN</DistanceMeters>
          </Trackpoint>
          <Trackpoint>
            <Time>2021-08-10T09:03:26.000Z</Time>
            <Position>
              <LatitudeDegrees>43.10984873212873935699462890625</LatitudeDegrees>
              <LongitudeDegrees>-1.685728468000888824462890625</LongitudeDegrees>
            </Position>
            <AltitudeMeters>195.600006103515625</AltitudeMeters>
            <DistanceMeters>NAN</DistanceMeters>
          </Trackpoint>
          <Trackpoint>
            <Time>2021-08-10T09:03:34.000Z</Time>
            <Position>
              <LatitudeDegrees>43.11004101298749446868896484375</LatitudeDegrees>
              <LongitudeDegrees>-1.68541708029806613922119140625</LongitudeDegrees>
            </Position>
            <AltitudeMeters>195.1999969482421875</AltitudeMeters>
            <DistanceMeters>NAN</DistanceMeters>
          </Trackpoint>
          <Trackpoint>
            <Time>2021-08-10T09:03:39.000Z</Time>
            <Position>
              <LatitudeDegrees>43.110137321054935455322265625</LatitudeDegrees>
              <LongitudeDegrees>-1.6852830536663532257080078125</LongitudeDegrees>
            </Position>
            <AltitudeMeters>194.8000030517578125</AltitudeMeters>
            <DistanceMeters>NAN</DistanceMeters>
          </Trackpoint>
          <Trackpoint>
            <Time>2021-08-10T09:03:41.000Z</Time>
            <Position>
              <LatitudeDegrees>43.1101636402308940887451171875</LatitudeDegrees>
              <LongitudeDegrees>-1.68523234315216541290283203125</LongitudeDegrees>
            </Position>
            <AltitudeMeters>194.600006103515625</AltitudeMeters>
            <DistanceMeters>NAN</DistanceMeters>
          </Trackpoint>
          <Trackpoint>
            <Time>2021-08-10T09:03:42.000Z</Time>
            <Position>
              <LatitudeDegrees>43.11017126776278018951416015625</LatitudeDegrees>
              <LongitudeDegrees>-1.6852104663848876953125</LongitudeDegrees>
            </Position>
            <AltitudeMeters>194.600006103515625</AltitudeMeters>
            <DistanceMeters>NAN</DistanceMeters>
          </Trackpoint>
          <Trackpoint>
            <Time>2021-08-10T09:03:43.000Z</Time>
            <Position>
              <LatitudeDegrees>43.110184259712696075439453125</LatitudeDegrees>
              <LongitudeDegrees>-1.6851931996643543243408203125</LongitudeDegrees>
            </Position>
            <AltitudeMeters>194.399993896484375</AltitudeMeters>
            <DistanceMeters>NAN</DistanceMeters>
          </Trackpoint>
          <Trackpoint>
            <Time>2021-08-10T09:03:44.000Z</Time>
            <Position>
              <LatitudeDegrees>43.11019473709166049957275390625</LatitudeDegrees>
              <LongitudeDegrees>-1.68518004007637500762939453125</LongitudeDegrees>
            </Position>
            <AltitudeMeters>194.399993896484375</AltitudeMeters>
            <DistanceMeters>NAN</DistanceMeters>
          </Trackpoint>
          <Trackpoint>
            <Time>2021-08-10T09:03:45.000Z</Time>
            <Position>
              <LatitudeDegrees>43.11019473709166049957275390625</LatitudeDegrees>
              <LongitudeDegrees>-1.68518004007637500762939453125</LongitudeDegrees>
            </Position>
            <AltitudeMeters>194.399993896484375</AltitudeMeters>
            <DistanceMeters>NAN</DistanceMeters>
          </Trackpoint>
          <Trackpoint>
            <Time>2021-08-10T09:03:46.000Z</Time>
            <Position>
              <LatitudeDegrees>43.11021300964057445526123046875</LatitudeDegrees>
              <LongitudeDegrees>-1.68514634482562541961669921875</LongitudeDegrees>
            </Position>
            <AltitudeMeters>194.399993896484375</AltitudeMeters>
            <DistanceMeters>NAN</DistanceMeters>
          </Trackpoint>
          <Trackpoint>
            <Time>2021-08-10T09:03:48.000Z</Time>
            <Position>
              <LatitudeDegrees>43.1102310307323932647705078125</LatitudeDegrees>
              <LongitudeDegrees>-1.6851140744984149932861328125</LongitudeDegrees>
            </Position>
            <AltitudeMeters>194.1999969482421875</AltitudeMeters>
            <DistanceMeters>NAN</DistanceMeters>
          </Trackpoint>
          <Trackpoint>
            <Time>2021-08-10T09:03:49.000Z</Time>
            <Position>
              <LatitudeDegrees>43.11024050228297710418701171875</LatitudeDegrees>
              <LongitudeDegrees>-1.68510594405233860015869140625</LongitudeDegrees>
            </Position>
            <AltitudeMeters>194.399993896484375</AltitudeMeters>
            <DistanceMeters>NAN</DistanceMeters>
          </Trackpoint>
          <Trackpoint>
            <Time>2021-08-10T09:03:50.000Z</Time>
            <Position>
              <LatitudeDegrees>43.11025106348097324371337890625</LatitudeDegrees>
              <LongitudeDegrees>-1.68509219773113727569580078125</LongitudeDegrees>
            </Position>
            <AltitudeMeters>194.1999969482421875</AltitudeMeters>
            <DistanceMeters>NAN</DistanceMeters>
          </Trackpoint>
          <Trackpoint>
            <Time>2021-08-10T09:03:51.000Z</Time>
            <Position>
              <LatitudeDegrees>43.11025659553706645965576171875</LatitudeDegrees>
              <LongitudeDegrees>-1.68508515693247318267822265625</LongitudeDegrees>
            </Position>
            <AltitudeMeters>194.1999969482421875</AltitudeMeters>
            <DistanceMeters>NAN</DistanceMeters>
          </Trackpoint>
          <Trackpoint>
            <Time>2021-08-10T09:03:52.000Z</Time>
            <Position>
              <LatitudeDegrees>43.11025877483189105987548828125</LatitudeDegrees>
              <LongitudeDegrees>-1.6850825585424900054931640625</LongitudeDegrees>
            </Position>
            <AltitudeMeters>194</AltitudeMeters>
            <DistanceMeters>NAN</DistanceMeters>
          </Trackpoint>
          <Trackpoint>
            <Time>2021-08-10T09:03:53.000Z</Time>
            <Position>
              <LatitudeDegrees>43.11025877483189105987548828125</LatitudeDegrees>
              <LongitudeDegrees>-1.6850825585424900054931640625</LongitudeDegrees>
            </Position>
            <AltitudeMeters>194</AltitudeMeters>
            <DistanceMeters>NAN</DistanceMeters>
          </Trackpoint>
          <Trackpoint>
            <Time>2021-08-10T09:03:57.000Z</Time>
            <Position>
              <LatitudeDegrees>43.11025877483189105987548828125</LatitudeDegrees>
              <LongitudeDegrees>-1.6850825585424900054931640625</LongitudeDegrees>
            </Position>
            <AltitudeMeters>193.8000030517578125</AltitudeMeters>
            <DistanceMeters>NAN</DistanceMeters>
          </Trackpoint>
          <Trackpoint>
            <Time>2021-08-10T09:03:58.000Z</Time>
            <Position>
              <LatitudeDegrees>43.11025877483189105987548828125</LatitudeDegrees>
              <LongitudeDegrees>-1.6850825585424900054931640625</LongitudeDegrees>
            </Position>
            <AltitudeMeters>193.8000030517578125</AltitudeMeters>
            <DistanceMeters>NAN</DistanceMeters>
          </Trackpoint>
          <Trackpoint>
            <Time>2021-08-10T09:05:10.000Z</Time>
            <Position>
              <LatitudeDegrees>43.110325075685977935791015625</LatitudeDegrees>
              <LongitudeDegrees>-1.68501340784132480621337890625</LongitudeDegrees>
            </Position>
            <AltitudeMeters>193.1999969482421875</AltitudeMeters>
            <DistanceMeters>NAN</DistanceMeters>
          </Trackpoint>
          <Trackpoint>
            <Time>2021-08-10T09:05:11.000Z</Time>
            <Position>
              <LatitudeDegrees>43.11035332269966602325439453125</LatitudeDegrees>
              <LongitudeDegrees>-1.68497887440025806427001953125</LongitudeDegrees>
            </Position>
            <AltitudeMeters>193.1999969482421875</AltitudeMeters>
            <DistanceMeters>NAN</DistanceMeters>
          </Trackpoint>
          <Trackpoint>
            <Time>2021-08-10T09:05:12.000Z</Time>
            <Position>
              <LatitudeDegrees>43.1103859283030033111572265625</LatitudeDegrees>
              <LongitudeDegrees>-1.6849353723227977752685546875</LongitudeDegrees>
            </Position>
            <AltitudeMeters>193.1999969482421875</AltitudeMeters>
            <DistanceMeters>NAN</DistanceMeters>
          </Trackpoint>
          <Trackpoint>
            <Time>2021-08-10T09:05:14.000Z</Time>
            <Position>
              <LatitudeDegrees>43.11045926995575428009033203125</LatitudeDegrees>
              <LongitudeDegrees>-1.6848255693912506103515625</LongitudeDegrees>
            </Position>
            <AltitudeMeters>193.1999969482421875</AltitudeMeters>
            <DistanceMeters>NAN</DistanceMeters>
          </Trackpoint>
          <Trackpoint>
            <Time>2021-08-10T09:05:15.000Z</Time>
            <Position>
              <LatitudeDegrees>43.11050335876643657684326171875</LatitudeDegrees>
              <LongitudeDegrees>-1.684762872755527496337890625</LongitudeDegrees>
            </Position>
            <AltitudeMeters>193</AltitudeMeters>
            <DistanceMeters>NAN</DistanceMeters>
          </Trackpoint>
          <Trackpoint>
            <Time>2021-08-10T09:05:17.000Z</Time>
            <Position>
              <LatitudeDegrees>43.1106072105467319488525390625</LatitudeDegrees>
              <LongitudeDegrees>-1.6846185363829135894775390625</LongitudeDegrees>
            </Position>
            <AltitudeMeters>192.600006103515625</AltitudeMeters>
            <DistanceMeters>NAN</DistanceMeters>
          </Trackpoint>
          <Trackpoint>
            <Time>2021-08-10T09:05:18.000Z</Time>
            <Position>
              <LatitudeDegrees>43.11067099682986736297607421875</LatitudeDegrees>
              <LongitudeDegrees>-1.68454720638692378997802734375</LongitudeDegrees>
            </Position>
            <AltitudeMeters>192.399993896484375</AltitudeMeters>
            <DistanceMeters>NAN</DistanceMeters>
          </Trackpoint>
          <Trackpoint>
            <Time>2021-08-10T09:05:20.000Z</Time>
            <Position>
              <LatitudeDegrees>43.1108137406408786773681640625</LatitudeDegrees>
              <LongitudeDegrees>-1.68442533351480960845947265625</LongitudeDegrees>
            </Position>
            <AltitudeMeters>191.8000030517578125</AltitudeMeters>
            <DistanceMeters>NAN</DistanceMeters>
          </Trackpoint>
          <Trackpoint>
            <Time>2021-08-10T09:05:22.000Z</Time>
            <Position>
              <LatitudeDegrees>43.11096486635506153106689453125</LatitudeDegrees>
              <LongitudeDegrees>-1.6843342222273349761962890625</LongitudeDegrees>
            </Position>
            <AltitudeMeters>190.8000030517578125</AltitudeMeters>
            <DistanceMeters>NAN</DistanceMeters>
          </Trackpoint>
          <Trackpoint>
            <Time>2021-08-10T09:05:24.000Z</Time>
            <Position>
              <LatitudeDegrees>43.11111926101148128509521484375</LatitudeDegrees>
              <LongitudeDegrees>-1.6842919774353504180908203125</LongitudeDegrees>
            </Position>
            <AltitudeMeters>189.399993896484375</AltitudeMeters>
            <DistanceMeters>NAN</DistanceMeters>
          </Trackpoint>
          <Trackpoint>
            <Time>2021-08-10T09:05:26.000Z</Time>
            <Position>
              <LatitudeDegrees>43.1112801097333431243896484375</LatitudeDegrees>
              <LongitudeDegrees>-1.68427362106740474700927734375</LongitudeDegrees>
            </Position>
            <AltitudeMeters>187.8000030517578125</AltitudeMeters>
            <DistanceMeters>NAN</DistanceMeters>
          </Trackpoint>
          <Trackpoint>
            <Time>2021-08-10T09:05:28.000Z</Time>
            <Position>
              <LatitudeDegrees>43.1114095263183116912841796875</LatitudeDegrees>
              <LongitudeDegrees>-1.68420103378593921661376953125</LongitudeDegrees>
            </Position>
            <AltitudeMeters>186.399993896484375</AltitudeMeters>
            <DistanceMeters>NAN</DistanceMeters>
          </Trackpoint>
          <Trackpoint>
            <Time>2021-08-10T09:05:29.000Z</Time>
            <Position>
              <LatitudeDegrees>43.11146224848926067352294921875</LatitudeDegrees>
              <LongitudeDegrees>-1.6841434501111507415771484375</LongitudeDegrees>
            </Position>
            <AltitudeMeters>185.8000030517578125</AltitudeMeters>
            <DistanceMeters>NAN</DistanceMeters>
          </Trackpoint>
          <Trackpoint>
            <Time>2021-08-10T09:05:30.000Z</Time>
            <Position>
              <LatitudeDegrees>43.11151237227022647857666015625</LatitudeDegrees>
              <LongitudeDegrees>-1.6840820945799350738525390625</LongitudeDegrees>
            </Position>
            <AltitudeMeters>184.600006103515625</AltitudeMeters>
            <DistanceMeters>NAN</DistanceMeters>
          </Trackpoint>
          <Trackpoint>
            <Time>2021-08-10T09:05:31.000Z</Time>
            <Position>
              <LatitudeDegrees>43.111561238765716552734375</LatitudeDegrees>
              <LongitudeDegrees>-1.68402417562901973724365234375</LongitudeDegrees>
            </Position>
            <AltitudeMeters>184.1999969482421875</AltitudeMeters>
            <DistanceMeters>NAN</DistanceMeters>
          </Trackpoint>
          <Trackpoint>
            <Time>2021-08-10T09:05:32.000Z</Time>
            <Position>
              <LatitudeDegrees>43.1116127036511898040771484375</LatitudeDegrees>
              <LongitudeDegrees>-1.68397639878094196319580078125</LongitudeDegrees>
            </Position>
            <AltitudeMeters>183.8000030517578125</AltitudeMeters>
            <DistanceMeters>NAN</DistanceMeters>
          </Trackpoint>
          <Trackpoint>
            <Time>2021-08-10T09:05:33.000Z</Time>
            <Position>
              <LatitudeDegrees>43.111663497984409332275390625</LatitudeDegrees>
              <LongitudeDegrees>-1.6839323937892913818359375</LongitudeDegrees>
            </Position>
            <AltitudeMeters>183.600006103515625</AltitudeMeters>
            <DistanceMeters>NAN</DistanceMeters>
          </Trackpoint>
          <Trackpoint>
            <Time>2021-08-10T09:05:34.000Z</Time>
            <Position>
              <LatitudeDegrees>43.11171479523181915283203125</LatitudeDegrees>
              <LongitudeDegrees>-1.68388838879764080047607421875</LongitudeDegrees>
            </Position>
            <AltitudeMeters>183.399993896484375</AltitudeMeters>
            <DistanceMeters>NAN</DistanceMeters>
          </Trackpoint>
          <Trackpoint>
            <Time>2021-08-10T09:05:35.000Z</Time>
            <Position>
              <LatitudeDegrees>43.11175745911896228790283203125</LatitudeDegrees>
              <LongitudeDegrees>-1.68384882621467113494873046875</LongitudeDegrees>
            </Position>
            <AltitudeMeters>183</AltitudeMeters>
            <DistanceMeters>NAN</DistanceMeters>
          </Trackpoint>
          <Trackpoint>
            <Time>2021-08-10T09:05:36.000Z</Time>
            <Position>
              <LatitudeDegrees>43.1118192337453365325927734375</LatitudeDegrees>
              <LongitudeDegrees>-1.683783195912837982177734375</LongitudeDegrees>
            </Position>
            <AltitudeMeters>182.8000030517578125</AltitudeMeters>
            <DistanceMeters>NAN</DistanceMeters>
          </Trackpoint>
          <Trackpoint>
            <Time>2021-08-10T09:05:37.000Z</Time>
            <Position>
              <LatitudeDegrees>43.1118671782314777374267578125</LatitudeDegrees>
              <LongitudeDegrees>-1.6837253607809543609619140625</LongitudeDegrees>
            </Position>
            <AltitudeMeters>182.1999969482421875</AltitudeMeters>
            <DistanceMeters>NAN</DistanceMeters>
          </Trackpoint>
          <Trackpoint>
            <Time>2021-08-10T09:05:39.000Z</Time>
            <Position>
              <LatitudeDegrees>43.11195527203381061553955078125</LatitudeDegrees>
              <LongitudeDegrees>-1.683625280857086181640625</LongitudeDegrees>
            </Position>
            <AltitudeMeters>181.600006103515625</AltitudeMeters>
            <DistanceMeters>NAN</DistanceMeters>
          </Trackpoint>
          <Trackpoint>
            <Time>2021-08-10T09:05:40.000Z</Time>
            <Position>
              <LatitudeDegrees>43.112002797424793243408203125</LatitudeDegrees>
              <LongitudeDegrees>-1.68356970883905887603759765625</LongitudeDegrees>
            </Position>
            <AltitudeMeters>180.600006103515625</AltitudeMeters>
            <DistanceMeters>NAN</DistanceMeters>
          </Trackpoint>
          <Trackpoint>
            <Time>2021-08-10T09:05:41.000Z</Time>
            <Position>
              <LatitudeDegrees>43.112002797424793243408203125</LatitudeDegrees>
              <LongitudeDegrees>-1.68356970883905887603759765625</LongitudeDegrees>
            </Position>
            <AltitudeMeters>180.1999969482421875</AltitudeMeters>
            <DistanceMeters>NAN</DistanceMeters>
          </Trackpoint>
          <Trackpoint>
            <Time>2021-08-10T09:05:42.000Z</Time>
            <Position>
              <LatitudeDegrees>43.11212643049657344818115234375</LatitudeDegrees>
              <LongitudeDegrees>-1.683437190949916839599609375</LongitudeDegrees>
            </Position>
            <AltitudeMeters>179.1999969482421875</AltitudeMeters>
            <DistanceMeters>NAN</DistanceMeters>
          </Trackpoint>
          <Trackpoint>
            <Time>2021-08-10T09:05:44.000Z</Time>
            <Position>
              <LatitudeDegrees>43.11225081793963909149169921875</LatitudeDegrees>
              <LongitudeDegrees>-1.68333618901669979095458984375</LongitudeDegrees>
            </Position>
            <AltitudeMeters>177.1999969482421875</AltitudeMeters>
            <DistanceMeters>NAN</DistanceMeters>
          </Trackpoint>
          <Trackpoint>
            <Time>2021-08-10T09:05:46.000Z</Time>
            <Position>
              <LatitudeDegrees>43.1124155223369598388671875</LatitudeDegrees>
              <LongitudeDegrees>-1.68321347795426845550537109375</LongitudeDegrees>
            </Position>
            <AltitudeMeters>175.1999969482421875</AltitudeMeters>
            <DistanceMeters>NAN</DistanceMeters>
          </Trackpoint>
          <Trackpoint>
            <Time>2021-08-10T09:05:47.000Z</Time>
            <Position>
              <LatitudeDegrees>43.11247729696333408355712890625</LatitudeDegrees>
              <LongitudeDegrees>-1.68315949849784374237060546875</LongitudeDegrees>
            </Position>
            <AltitudeMeters>173</AltitudeMeters>
            <DistanceMeters>NAN</DistanceMeters>
          </Trackpoint>
          <Trackpoint>
            <Time>2021-08-10T09:05:49.000Z</Time>
            <Position>
              <LatitudeDegrees>43.11256312765181064605712890625</LatitudeDegrees>
              <LongitudeDegrees>-1.683032512664794921875</LongitudeDegrees>
            </Position>
            <AltitudeMeters>171</AltitudeMeters>
            <DistanceMeters>NAN</DistanceMeters>
          </Trackpoint>
          <Trackpoint>
            <Time>2021-08-10T09:05:50.000Z</Time>
            <Position>
              <LatitudeDegrees>43.11256312765181064605712890625</LatitudeDegrees>
              <LongitudeDegrees>-1.683032512664794921875</LongitudeDegrees>
            </Position>
            <AltitudeMeters>170.600006103515625</AltitudeMeters>
            <DistanceMeters>NAN</DistanceMeters>
          </Trackpoint>
          <Trackpoint>
            <Time>2021-08-10T09:05:51.000Z</Time>
            <Position>
              <LatitudeDegrees>43.1125618703663349151611328125</LatitudeDegrees>
              <LongitudeDegrees>-1.68288909830152988433837890625</LongitudeDegrees>
            </Position>
            <AltitudeMeters>169.600006103515625</AltitudeMeters>
            <DistanceMeters>NAN</DistanceMeters>
          </Trackpoint>
          <Trackpoint>
            <Time>2021-08-10T09:05:52.000Z</Time>
            <Position>
              <LatitudeDegrees>43.1125427596271038055419921875</LatitudeDegrees>
              <LongitudeDegrees>-1.68281860649585723876953125</LongitudeDegrees>
            </Position>
            <AltitudeMeters>169.1999969482421875</AltitudeMeters>
            <DistanceMeters>NAN</DistanceMeters>
          </Trackpoint>
          <Trackpoint>
            <Time>2021-08-10T09:05:53.000Z</Time>
            <Position>
              <LatitudeDegrees>43.1125243194401264190673828125</LatitudeDegrees>
              <LongitudeDegrees>-1.68274258263409137725830078125</LongitudeDegrees>
            </Position>
            <AltitudeMeters>168.399993896484375</AltitudeMeters>
            <DistanceMeters>NAN</DistanceMeters>
          </Trackpoint>
          <Trackpoint>
            <Time>2021-08-10T09:05:54.000Z</Time>
            <Position>
              <LatitudeDegrees>43.11251082457602024078369140625</LatitudeDegrees>
              <LongitudeDegrees>-1.68265792541205883026123046875</LongitudeDegrees>
            </Position>
            <AltitudeMeters>167.8000030517578125</AltitudeMeters>
            <DistanceMeters>NAN</DistanceMeters>
          </Trackpoint>
          <Trackpoint>
            <Time>2021-08-10T09:05:55.000Z</Time>
            <Position>
              <LatitudeDegrees>43.11250143684446811676025390625</LatitudeDegrees>
              <LongitudeDegrees>-1.68256513774394989013671875</LongitudeDegrees>
            </Position>
            <AltitudeMeters>167.600006103515625</AltitudeMeters>
            <DistanceMeters>NAN</DistanceMeters>
          </Trackpoint>
          <Trackpoint>
            <Time>2021-08-10T09:05:56.000Z</Time>
            <Position>
              <LatitudeDegrees>43.1124961562454700469970703125</LatitudeDegrees>
              <LongitudeDegrees>-1.68246547691524028778076171875</LongitudeDegrees>
            </Position>
            <AltitudeMeters>167.1999969482421875</AltitudeMeters>
            <DistanceMeters>NAN</DistanceMeters>
          </Trackpoint>
          <Trackpoint>
            <Time>2021-08-10T09:06:00.000Z</Time>
            <Position>
              <LatitudeDegrees>43.112490959465503692626953125</LatitudeDegrees>
              <LongitudeDegrees>-1.6820992715656757354736328125</LongitudeDegrees>
            </Position>
            <AltitudeMeters>166</AltitudeMeters>
            <DistanceMeters>NAN</DistanceMeters>
          </Trackpoint>
          <Trackpoint>
            <Time>2021-08-10T09:06:01.000Z</Time>
            <Position>
              <LatitudeDegrees>43.11249531805515289306640625</LatitudeDegrees>
              <LongitudeDegrees>-1.6820204816758632659912109375</LongitudeDegrees>
            </Position>
            <AltitudeMeters>165.600006103515625</AltitudeMeters>
            <DistanceMeters>NAN</DistanceMeters>
          </Trackpoint>
          <Trackpoint>
            <Time>2021-08-10T09:06:02.000Z</Time>
            <Position>
              <LatitudeDegrees>43.1124911271035671234130859375</LatitudeDegrees>
              <LongitudeDegrees>-1.6819556057453155517578125</LongitudeDegrees>
            </Position>
            <AltitudeMeters>165.399993896484375</AltitudeMeters>
            <DistanceMeters>NAN</DistanceMeters>
          </Trackpoint>
          <Trackpoint>
            <Time>2021-08-10T09:06:03.000Z</Time>
            <Position>
              <LatitudeDegrees>43.11249389313161373138427734375</LatitudeDegrees>
              <LongitudeDegrees>-1.68190489523112773895263671875</LongitudeDegrees>
            </Position>
            <AltitudeMeters>165.1999969482421875</AltitudeMeters>
            <DistanceMeters>NAN</DistanceMeters>
          </Trackpoint>
          <Trackpoint>
            <Time>2021-08-10T09:06:04.000Z</Time>
            <Position>
              <LatitudeDegrees>43.1124964915215969085693359375</LatitudeDegrees>
              <LongitudeDegrees>-1.68184806592762470245361328125</LongitudeDegrees>
            </Position>
            <AltitudeMeters>165.1999969482421875</AltitudeMeters>
            <DistanceMeters>NAN</DistanceMeters>
          </Trackpoint>
          <Trackpoint>
            <Time>2021-08-10T09:06:05.000Z</Time>
            <Position>
              <LatitudeDegrees>43.11251015402376651763916015625</LatitudeDegrees>
              <LongitudeDegrees>-1.68181789107620716094970703125</LongitudeDegrees>
            </Position>
            <AltitudeMeters>165.1999969482421875</AltitudeMeters>
            <DistanceMeters>NAN</DistanceMeters>
          </Trackpoint>
          <Trackpoint>
            <Time>2021-08-10T09:06:06.000Z</Time>
            <Position>
              <LatitudeDegrees>43.11251501552760601043701171875</LatitudeDegrees>
              <LongitudeDegrees>-1.6817673482000827789306640625</LongitudeDegrees>
            </Position>
            <AltitudeMeters>165</AltitudeMeters>
            <DistanceMeters>NAN</DistanceMeters>
          </Trackpoint>
          <Trackpoint>
            <Time>2021-08-10T09:06:07.000Z</Time>
            <Position>
              <LatitudeDegrees>43.11251736246049404144287109375</LatitudeDegrees>
              <LongitudeDegrees>-1.68172803707420825958251953125</LongitudeDegrees>
            </Position>
            <AltitudeMeters>165.1999969482421875</AltitudeMeters>
            <DistanceMeters>NAN</DistanceMeters>
          </Trackpoint>
          <Trackpoint>
            <Time>2021-08-10T09:06:08.000Z</Time>
            <Position>
              <LatitudeDegrees>43.1125172786414623260498046875</LatitudeDegrees>
              <LongitudeDegrees>-1.6816954314708709716796875</LongitudeDegrees>
            </Position>
            <AltitudeMeters>165.1999969482421875</AltitudeMeters>
            <DistanceMeters>NAN</DistanceMeters>
          </Trackpoint>
          <Trackpoint>
            <Time>2021-08-10T09:06:09.000Z</Time>
            <Position>
              <LatitudeDegrees>43.11251702718436717987060546875</LatitudeDegrees>
              <LongitudeDegrees>-1.6816553659737110137939453125</LongitudeDegrees>
            </Position>
            <AltitudeMeters>165.1999969482421875</AltitudeMeters>
            <DistanceMeters>NAN</DistanceMeters>
          </Trackpoint>
          <Trackpoint>
            <Time>2021-08-10T09:06:10.000Z</Time>
            <Position>
              <LatitudeDegrees>43.1125176139175891876220703125</LatitudeDegrees>
              <LongitudeDegrees>-1.681612618267536163330078125</LongitudeDegrees>
            </Position>
            <AltitudeMeters>165.399993896484375</AltitudeMeters>
            <DistanceMeters>NAN</DistanceMeters>
          </Trackpoint>
          <Trackpoint>
            <Time>2021-08-10T09:06:11.000Z</Time>
            <Position>
              <LatitudeDegrees>43.112518787384033203125</LatitudeDegrees>
              <LongitudeDegrees>-1.68158403597772121429443359375</LongitudeDegrees>
            </Position>
            <AltitudeMeters>165.600006103515625</AltitudeMeters>
            <DistanceMeters>NAN</DistanceMeters>
          </Trackpoint>
          <Trackpoint>
            <Time>2021-08-10T09:06:13.000Z</Time>
            <Position>
              <LatitudeDegrees>43.112522475421428680419921875</LatitudeDegrees>
              <LongitudeDegrees>-1.6815222613513469696044921875</LongitudeDegrees>
            </Position>
            <AltitudeMeters>165.8000030517578125</AltitudeMeters>
            <DistanceMeters>NAN</DistanceMeters>
          </Trackpoint>
          <Trackpoint>
            <Time>2021-08-10T09:06:14.000Z</Time>
            <Position>
              <LatitudeDegrees>43.11252616345882415771484375</LatitudeDegrees>
              <LongitudeDegrees>-1.68149401433765888214111328125</LongitudeDegrees>
            </Position>
            <AltitudeMeters>166</AltitudeMeters>
            <DistanceMeters>NAN</DistanceMeters>
          </Trackpoint>
          <Trackpoint>
            <Time>2021-08-10T09:06:15.000Z</Time>
            <Position>
              <LatitudeDegrees>43.11252616345882415771484375</LatitudeDegrees>
              <LongitudeDegrees>-1.68149401433765888214111328125</LongitudeDegrees>
            </Position>
            <AltitudeMeters>166.399993896484375</AltitudeMeters>
            <DistanceMeters>NAN</DistanceMeters>
          </Trackpoint>
          <Trackpoint>
            <Time>2021-08-10T09:06:17.000Z</Time>
            <Position>
              <LatitudeDegrees>43.112518452107906341552734375</LatitudeDegrees>
              <LongitudeDegrees>-1.68140717782080173492431640625</LongitudeDegrees>
            </Position>
            <AltitudeMeters>166.8000030517578125</AltitudeMeters>
            <DistanceMeters>NAN</DistanceMeters>
          </Trackpoint>
          <Trackpoint>
            <Time>2021-08-10T09:06:18.000Z</Time>
            <Position>
              <LatitudeDegrees>43.11252188868820667266845703125</LatitudeDegrees>
              <LongitudeDegrees>-1.681389324367046356201171875</LongitudeDegrees>
            </Position>
            <AltitudeMeters>167</AltitudeMeters>
            <DistanceMeters>NAN</DistanceMeters>
          </Trackpoint>
          <Trackpoint>
            <Time>2021-08-10T09:06:19.000Z</Time>
            <Position>
              <LatitudeDegrees>43.112523816525936126708984375</LatitudeDegrees>
              <LongitudeDegrees>-1.6813646815717220306396484375</LongitudeDegrees>
            </Position>
            <AltitudeMeters>167.1999969482421875</AltitudeMeters>
            <DistanceMeters>NAN</DistanceMeters>
          </Trackpoint>
          <Trackpoint>
            <Time>2021-08-10T09:06:20.000Z</Time>
            <Position>
              <LatitudeDegrees>43.11252540908753871917724609375</LatitudeDegrees>
              <LongitudeDegrees>-1.68133174069225788116455078125</LongitudeDegrees>
            </Position>
            <AltitudeMeters>167.1999969482421875</AltitudeMeters>
            <DistanceMeters>NAN</DistanceMeters>
          </Trackpoint>
          <Trackpoint>
            <Time>2021-08-10T09:06:21.000Z</Time>
            <Position>
              <LatitudeDegrees>43.11252742074429988861083984375</LatitudeDegrees>
              <LongitudeDegrees>-1.68131246231496334075927734375</LongitudeDegrees>
            </Position>
            <AltitudeMeters>167.399993896484375</AltitudeMeters>
            <DistanceMeters>NAN</DistanceMeters>
          </Trackpoint>
          <Trackpoint>
            <Time>2021-08-10T09:06:22.000Z</Time>
            <Position>
              <LatitudeDegrees>43.11253194697201251983642578125</LatitudeDegrees>
              <LongitudeDegrees>-1.6812892444431781768798828125</LongitudeDegrees>
            </Position>
            <AltitudeMeters>167.399993896484375</AltitudeMeters>
            <DistanceMeters>NAN</DistanceMeters>
          </Trackpoint>
          <Trackpoint>
            <Time>2021-08-10T09:06:23.000Z</Time>
            <Position>
              <LatitudeDegrees>43.112540580332279205322265625</LatitudeDegrees>
              <LongitudeDegrees>-1.68126937933266162872314453125</LongitudeDegrees>
            </Position>
            <AltitudeMeters>167.399993896484375</AltitudeMeters>
            <DistanceMeters>NAN</DistanceMeters>
          </Trackpoint>
          <Trackpoint>
            <Time>2021-08-10T09:06:24.000Z</Time>
            <Position>
              <LatitudeDegrees>43.11254820786416530609130859375</LatitudeDegrees>
              <LongitudeDegrees>-1.6812516935169696807861328125</LongitudeDegrees>
            </Position>
            <AltitudeMeters>167.600006103515625</AltitudeMeters>
            <DistanceMeters>NAN</DistanceMeters>
          </Trackpoint>
          <Trackpoint>
            <Time>2021-08-10T09:06:25.000Z</Time>
            <Position>
              <LatitudeDegrees>43.1125534884631633758544921875</LatitudeDegrees>
              <LongitudeDegrees>-1.68123149313032627105712890625</LongitudeDegrees>
            </Position>
            <AltitudeMeters>167.600006103515625</AltitudeMeters>
            <DistanceMeters>NAN</DistanceMeters>
          </Trackpoint>
          <Trackpoint>
            <Time>2021-08-10T09:06:26.000Z</Time>
            <Position>
              <LatitudeDegrees>43.112553320825099945068359375</LatitudeDegrees>
              <LongitudeDegrees>-1.68120902962982654571533203125</LongitudeDegrees>
            </Position>
            <AltitudeMeters>167.600006103515625</AltitudeMeters>
            <DistanceMeters>NAN</DistanceMeters>
          </Trackpoint>
          <Trackpoint>
            <Time>2021-08-10T09:06:27.000Z</Time>
            <Position>
              <LatitudeDegrees>43.112557344138622283935546875</LatitudeDegrees>
              <LongitudeDegrees>-1.68118405155837535858154296875</LongitudeDegrees>
            </Position>
            <AltitudeMeters>167.600006103515625</AltitudeMeters>
            <DistanceMeters>NAN</DistanceMeters>
          </Trackpoint>
          <Trackpoint>
            <Time>2021-08-10T09:06:28.000Z</Time>
            <Position>
              <LatitudeDegrees>43.112561367452144622802734375</LatitudeDegrees>
              <LongitudeDegrees>-1.68115639127790927886962890625</LongitudeDegrees>
            </Position>
            <AltitudeMeters>167.600006103515625</AltitudeMeters>
            <DistanceMeters>NAN</DistanceMeters>
          </Trackpoint>
          <Trackpoint>
            <Time>2021-08-10T09:06:34.000Z</Time>
            <Position>
              <LatitudeDegrees>43.11257469467818737030029296875</LatitudeDegrees>
              <LongitudeDegrees>-1.68099336326122283935546875</LongitudeDegrees>
            </Position>
            <AltitudeMeters>168</AltitudeMeters>
            <DistanceMeters>NAN</DistanceMeters>
          </Trackpoint>
          <Trackpoint>
            <Time>2021-08-10T09:06:37.000Z</Time>
            <Position>
              <LatitudeDegrees>43.11257570050656795501708984375</LatitudeDegrees>
              <LongitudeDegrees>-1.68094952590763568878173828125</LongitudeDegrees>
            </Position>
            <AltitudeMeters>168.1999969482421875</AltitudeMeters>
            <DistanceMeters>NAN</DistanceMeters>
          </Trackpoint>
          <Trackpoint>
            <Time>2021-08-10T09:06:42.000Z</Time>
            <Position>
              <LatitudeDegrees>43.11257712543010711669921875</LatitudeDegrees>
              <LongitudeDegrees>-1.680776774883270263671875</LongitudeDegrees>
            </Position>
            <AltitudeMeters>168.399993896484375</AltitudeMeters>
            <DistanceMeters>NAN</DistanceMeters>
          </Trackpoint>
          <Trackpoint>
            <Time>2021-08-10T09:06:47.000Z</Time>
            <Position>
              <LatitudeDegrees>43.11256715096533298492431640625</LatitudeDegrees>
              <LongitudeDegrees>-1.68063369579613208770751953125</LongitudeDegrees>
            </Position>
            <AltitudeMeters>169.1999969482421875</AltitudeMeters>
            <DistanceMeters>NAN</DistanceMeters>
          </Trackpoint>
          <Trackpoint>
            <Time>2021-08-10T09:06:50.000Z</Time>
            <Position>
              <LatitudeDegrees>43.11254804022610187530517578125</LatitudeDegrees>
              <LongitudeDegrees>-1.68055624701082706451416015625</LongitudeDegrees>
            </Position>
            <AltitudeMeters>169.600006103515625</AltitudeMeters>
            <DistanceMeters>NAN</DistanceMeters>
          </Trackpoint>
          <Trackpoint>
            <Time>2021-08-10T09:06:51.000Z</Time>
            <Position>
              <LatitudeDegrees>43.1125397421419620513916015625</LatitudeDegrees>
              <LongitudeDegrees>-1.6805308498442173004150390625</LongitudeDegrees>
            </Position>
            <AltitudeMeters>169.600006103515625</AltitudeMeters>
            <DistanceMeters>NAN</DistanceMeters>
          </Trackpoint>
          <Trackpoint>
            <Time>2021-08-10T09:06:58.000Z</Time>
            <Position>
              <LatitudeDegrees>43.1124475412070751190185546875</LatitudeDegrees>
              <LongitudeDegrees>-1.6803461126983165740966796875</LongitudeDegrees>
            </Position>
            <AltitudeMeters>170.1999969482421875</AltitudeMeters>
            <DistanceMeters>NAN</DistanceMeters>
          </Trackpoint>
          <Trackpoint>
            <Time>2021-08-10T09:07:05.000Z</Time>
            <Position>
              <LatitudeDegrees>43.112353496253490447998046875</LatitudeDegrees>
              <LongitudeDegrees>-1.68017637915909290313720703125</LongitudeDegrees>
            </Position>
            <AltitudeMeters>170.600006103515625</AltitudeMeters>
            <DistanceMeters>NAN</DistanceMeters>
          </Trackpoint>
          <Trackpoint>
            <Time>2021-08-10T09:07:06.000Z</Time>
            <Position>
              <LatitudeDegrees>43.11233933083713054656982421875</LatitudeDegrees>
              <LongitudeDegrees>-1.68014955706894397735595703125</LongitudeDegrees>
            </Position>
            <AltitudeMeters>170.600006103515625</AltitudeMeters>
            <DistanceMeters>NAN</DistanceMeters>
          </Trackpoint>
          <Trackpoint>
            <Time>2021-08-10T09:07:07.000Z</Time>
            <Position>
              <LatitudeDegrees>43.11232357285916805267333984375</LatitudeDegrees>
              <LongitudeDegrees>-1.68012524954974651336669921875</LongitudeDegrees>
            </Position>
            <AltitudeMeters>170.600006103515625</AltitudeMeters>
            <DistanceMeters>NAN</DistanceMeters>
          </Trackpoint>
          <Trackpoint>
            <Time>2021-08-10T09:07:08.000Z</Time>
            <Position>
              <LatitudeDegrees>43.112308569252490997314453125</LatitudeDegrees>
              <LongitudeDegrees>-1.68010043911635875701904296875</LongitudeDegrees>
            </Position>
            <AltitudeMeters>170.600006103515625</AltitudeMeters>
            <DistanceMeters>NAN</DistanceMeters>
          </Trackpoint>
          <Trackpoint>
            <Time>2021-08-10T09:07:12.000Z</Time>
            <Position>
              <LatitudeDegrees>43.11226054094731807708740234375</LatitudeDegrees>
              <LongitudeDegrees>-1.67997487820684909820556640625</LongitudeDegrees>
            </Position>
            <AltitudeMeters>170.600006103515625</AltitudeMeters>
            <DistanceMeters>NAN</DistanceMeters>
          </Trackpoint>
          <Trackpoint>
            <Time>2021-08-10T09:07:21.000Z</Time>
            <Position>
              <LatitudeDegrees>43.11221477575600147247314453125</LatitudeDegrees>
              <LongitudeDegrees>-1.679654605686664581298828125</LongitudeDegrees>
            </Position>
            <AltitudeMeters>170.8000030517578125</AltitudeMeters>
            <DistanceMeters>NAN</DistanceMeters>
          </Trackpoint>
          <Trackpoint>
            <Time>2021-08-10T09:07:28.000Z</Time>
            <Position>
              <LatitudeDegrees>43.112226091325283050537109375</LatitudeDegrees>
              <LongitudeDegrees>-1.679410524666309356689453125</LongitudeDegrees>
            </Position>
            <AltitudeMeters>171.1999969482421875</AltitudeMeters>
            <DistanceMeters>NAN</DistanceMeters>
          </Trackpoint>
          <Trackpoint>
            <Time>2021-08-10T09:07:29.000Z</Time>
            <Position>
              <LatitudeDegrees>43.11222332529723644256591796875</LatitudeDegrees>
              <LongitudeDegrees>-1.679383702576160430908203125</LongitudeDegrees>
            </Position>
            <AltitudeMeters>171.399993896484375</AltitudeMeters>
            <DistanceMeters>NAN</DistanceMeters>
          </Trackpoint>
          <Trackpoint>
            <Time>2021-08-10T09:07:30.000Z</Time>
            <Position>
              <LatitudeDegrees>43.11222315765917301177978515625</LatitudeDegrees>
              <LongitudeDegrees>-1.679354868829250335693359375</LongitudeDegrees>
            </Position>
            <AltitudeMeters>171.600006103515625</AltitudeMeters>
            <DistanceMeters>NAN</DistanceMeters>
          </Trackpoint>
          <Trackpoint>
            <Time>2021-08-10T09:07:31.000Z</Time>
            <Position>
              <LatitudeDegrees>43.11222307384014129638671875</LatitudeDegrees>
              <LongitudeDegrees>-1.67932377196848392486572265625</LongitudeDegrees>
            </Position>
            <AltitudeMeters>171.600006103515625</AltitudeMeters>
            <DistanceMeters>NAN</DistanceMeters>
          </Trackpoint>
          <Trackpoint>
            <Time>2021-08-10T09:07:32.000Z</Time>
            <Position>
              <LatitudeDegrees>43.1122224032878875732421875</LatitudeDegrees>
              <LongitudeDegrees>-1.6792983748018741607666015625</LongitudeDegrees>
            </Position>
            <AltitudeMeters>171.8000030517578125</AltitudeMeters>
            <DistanceMeters>NAN</DistanceMeters>
          </Trackpoint>
          <Trackpoint>
            <Time>2021-08-10T09:07:33.000Z</Time>
            <Position>
              <LatitudeDegrees>43.11222097836434841156005859375</LatitudeDegrees>
              <LongitudeDegrees>-1.67926124297082424163818359375</LongitudeDegrees>
            </Position>
            <AltitudeMeters>172</AltitudeMeters>
            <DistanceMeters>NAN</DistanceMeters>
          </Trackpoint>
          <Trackpoint>
            <Time>2021-08-10T09:07:34.000Z</Time>
            <Position>
              <LatitudeDegrees>43.11222131364047527313232421875</LatitudeDegrees>
              <LongitudeDegrees>-1.6792358458042144775390625</LongitudeDegrees>
            </Position>
            <AltitudeMeters>172.1999969482421875</AltitudeMeters>
            <DistanceMeters>NAN</DistanceMeters>
          </Trackpoint>
          <Trackpoint>
            <Time>2021-08-10T09:07:35.000Z</Time>
            <Position>
              <LatitudeDegrees>43.112222068011760711669921875</LatitudeDegrees>
              <LongitudeDegrees>-1.679204665124416351318359375</LongitudeDegrees>
            </Position>
            <AltitudeMeters>172.1999969482421875</AltitudeMeters>
            <DistanceMeters>NAN</DistanceMeters>
          </Trackpoint>
          <Trackpoint>
            <Time>2021-08-10T09:07:36.000Z</Time>
            <Position>
              <LatitudeDegrees>43.11222307384014129638671875</LatitudeDegrees>
              <LongitudeDegrees>-1.67917289771139621734619140625</LongitudeDegrees>
            </Position>
            <AltitudeMeters>172.399993896484375</AltitudeMeters>
            <DistanceMeters>NAN</DistanceMeters>
          </Trackpoint>
          <Trackpoint>
            <Time>2021-08-10T09:07:38.000Z</Time>
            <Position>
              <LatitudeDegrees>43.11222533695399761199951171875</LatitudeDegrees>
              <LongitudeDegrees>-1.67910215444862842559814453125</LongitudeDegrees>
            </Position>
            <AltitudeMeters>172.8000030517578125</AltitudeMeters>
            <DistanceMeters>NAN</DistanceMeters>
          </Trackpoint>
          <Trackpoint>
            <Time>2021-08-10T09:07:43.000Z</Time>
            <Position>
              <LatitudeDegrees>43.1122319586575031280517578125</LatitudeDegrees>
              <LongitudeDegrees>-1.67895614169538021087646484375</LongitudeDegrees>
            </Position>
            <AltitudeMeters>173.600006103515625</AltitudeMeters>
            <DistanceMeters>NAN</DistanceMeters>
          </Trackpoint>
          <Trackpoint>
            <Time>2021-08-10T09:07:45.000Z</Time>
            <Position>
              <LatitudeDegrees>43.11222818680107593536376953125</LatitudeDegrees>
              <LongitudeDegrees>-1.6789107955992221832275390625</LongitudeDegrees>
            </Position>
            <AltitudeMeters>173.8000030517578125</AltitudeMeters>
            <DistanceMeters>NAN</DistanceMeters>
          </Trackpoint>
          <Trackpoint>
            <Time>2021-08-10T09:07:46.000Z</Time>
            <Position>
              <LatitudeDegrees>43.11222399584949016571044921875</LatitudeDegrees>
              <LongitudeDegrees>-1.67888774536550045013427734375</LongitudeDegrees>
            </Position>
            <AltitudeMeters>173.8000030517578125</AltitudeMeters>
            <DistanceMeters>NAN</DistanceMeters>
          </Trackpoint>
          <Trackpoint>
            <Time>2021-08-10T09:07:47.000Z</Time>
            <Position>
              <LatitudeDegrees>43.11221829615533351898193359375</LatitudeDegrees>
              <LongitudeDegrees>-1.678858660161495208740234375</LongitudeDegrees>
            </Position>
            <AltitudeMeters>174</AltitudeMeters>
            <DistanceMeters>NAN</DistanceMeters>
          </Trackpoint>
          <Trackpoint>
            <Time>2021-08-10T09:07:48.000Z</Time>
            <Position>
              <LatitudeDegrees>43.1122138537466526031494140625</LatitudeDegrees>
              <LongitudeDegrees>-1.6788316704332828521728515625</LongitudeDegrees>
            </Position>
            <AltitudeMeters>174.1999969482421875</AltitudeMeters>
            <DistanceMeters>NAN</DistanceMeters>
          </Trackpoint>
          <Trackpoint>
            <Time>2021-08-10T09:07:49.000Z</Time>
            <Position>
              <LatitudeDegrees>43.11221209354698657989501953125</LatitudeDegrees>
              <LongitudeDegrees>-1.67880141176283359527587890625</LongitudeDegrees>
            </Position>
            <AltitudeMeters>174.1999969482421875</AltitudeMeters>
            <DistanceMeters>NAN</DistanceMeters>
          </Trackpoint>
          <Trackpoint>
            <Time>2021-08-10T09:07:50.000Z</Time>
            <Position>
              <LatitudeDegrees>43.1122128479182720184326171875</LatitudeDegrees>
              <LongitudeDegrees>-1.678776182234287261962890625</LongitudeDegrees>
            </Position>
            <AltitudeMeters>174.399993896484375</AltitudeMeters>
            <DistanceMeters>NAN</DistanceMeters>
          </Trackpoint>
          <Trackpoint>
            <Time>2021-08-10T09:07:51.000Z</Time>
            <Position>
              <LatitudeDegrees>43.11221360228955745697021484375</LatitudeDegrees>
              <LongitudeDegrees>-1.6787448339164257049560546875</LongitudeDegrees>
            </Position>
            <AltitudeMeters>174.399993896484375</AltitudeMeters>
            <DistanceMeters>NAN</DistanceMeters>
          </Trackpoint>
          <Trackpoint>
            <Time>2021-08-10T09:07:52.000Z</Time>
            <Position>
              <LatitudeDegrees>43.11221502721309661865234375</LatitudeDegrees>
              <LongitudeDegrees>-1.67871139012277126312255859375</LongitudeDegrees>
            </Position>
            <AltitudeMeters>174.399993896484375</AltitudeMeters>
            <DistanceMeters>NAN</DistanceMeters>
          </Trackpoint>
          <Trackpoint>
            <Time>2021-08-10T09:07:53.000Z</Time>
            <Position>
              <LatitudeDegrees>43.112218044698238372802734375</LatitudeDegrees>
              <LongitudeDegrees>-1.6786698997020721435546875</LongitudeDegrees>
            </Position>
            <AltitudeMeters>174.600006103515625</AltitudeMeters>
            <DistanceMeters>NAN</DistanceMeters>
          </Trackpoint>
          <Trackpoint>
            <Time>2021-08-10T09:07:54.000Z</Time>
            <Position>
              <LatitudeDegrees>43.11221729032695293426513671875</LatitudeDegrees>
              <LongitudeDegrees>-1.67863436043262481689453125</LongitudeDegrees>
            </Position>
            <AltitudeMeters>174.600006103515625</AltitudeMeters>
            <DistanceMeters>NAN</DistanceMeters>
          </Trackpoint>
          <Trackpoint>
            <Time>2021-08-10T09:07:55.000Z</Time>
            <Position>
              <LatitudeDegrees>43.11221796087920665740966796875</LatitudeDegrees>
              <LongitudeDegrees>-1.67860611341893672943115234375</LongitudeDegrees>
            </Position>
            <AltitudeMeters>174.8000030517578125</AltitudeMeters>
            <DistanceMeters>NAN</DistanceMeters>
          </Trackpoint>
          <Trackpoint>
            <Time>2021-08-10T09:07:56.000Z</Time>
            <Position>
              <LatitudeDegrees>43.11222081072628498077392578125</LatitudeDegrees>
              <LongitudeDegrees>-1.678570322692394256591796875</LongitudeDegrees>
            </Position>
            <AltitudeMeters>175</AltitudeMeters>
            <DistanceMeters>NAN</DistanceMeters>
          </Trackpoint>
          <Trackpoint>
            <Time>2021-08-10T09:07:57.000Z</Time>
            <Position>
              <LatitudeDegrees>43.11222081072628498077392578125</LatitudeDegrees>
              <LongitudeDegrees>-1.678570322692394256591796875</LongitudeDegrees>
            </Position>
            <AltitudeMeters>175</AltitudeMeters>
            <DistanceMeters>NAN</DistanceMeters>
          </Trackpoint>
          <Trackpoint>
            <Time>2021-08-10T09:07:58.000Z</Time>
            <Position>
              <LatitudeDegrees>43.11222299002110958099365234375</LatitudeDegrees>
              <LongitudeDegrees>-1.67849027551710605621337890625</LongitudeDegrees>
            </Position>
            <AltitudeMeters>175</AltitudeMeters>
            <DistanceMeters>NAN</DistanceMeters>
          </Trackpoint>
          <Trackpoint>
            <Time>2021-08-10T09:07:59.000Z</Time>
            <Position>
              <LatitudeDegrees>43.112224750220775604248046875</LatitudeDegrees>
              <LongitudeDegrees>-1.678453646600246429443359375</LongitudeDegrees>
            </Position>
            <AltitudeMeters>175.1999969482421875</AltitudeMeters>
            <DistanceMeters>NAN</DistanceMeters>
          </Trackpoint>
          <Trackpoint>
            <Time>2021-08-10T09:08:00.000Z</Time>
            <Position>
              <LatitudeDegrees>43.112224750220775604248046875</LatitudeDegrees>
              <LongitudeDegrees>-1.678453646600246429443359375</LongitudeDegrees>
            </Position>
            <AltitudeMeters>175.399993896484375</AltitudeMeters>
            <DistanceMeters>NAN</DistanceMeters>
          </Trackpoint>
          <Trackpoint>
            <Time>2021-08-10T09:08:01.000Z</Time>
            <Position>
              <LatitudeDegrees>43.1122277677059173583984375</LatitudeDegrees>
              <LongitudeDegrees>-1.67838818393647670745849609375</LongitudeDegrees>
            </Position>
            <AltitudeMeters>175.399993896484375</AltitudeMeters>
            <DistanceMeters>NAN</DistanceMeters>
          </Trackpoint>
          <Trackpoint>
            <Time>2021-08-10T09:08:02.000Z</Time>
            <Position>
              <LatitudeDegrees>43.11223271302878856658935546875</LatitudeDegrees>
              <LongitudeDegrees>-1.67834677733480930328369140625</LongitudeDegrees>
            </Position>
            <AltitudeMeters>175.600006103515625</AltitudeMeters>
            <DistanceMeters>NAN</DistanceMeters>
          </Trackpoint>
          <Trackpoint>
            <Time>2021-08-10T09:08:03.000Z</Time>
            <Position>
              <LatitudeDegrees>43.1122339703142642974853515625</LatitudeDegrees>
              <LongitudeDegrees>-1.6783123277127742767333984375</LongitudeDegrees>
            </Position>
            <AltitudeMeters>175.600006103515625</AltitudeMeters>
            <DistanceMeters>NAN</DistanceMeters>
          </Trackpoint>
          <Trackpoint>
            <Time>2021-08-10T09:08:04.000Z</Time>
            <Position>
              <LatitudeDegrees>43.1122349761426448822021484375</LatitudeDegrees>
              <LongitudeDegrees>-1.67827896773815155029296875</LongitudeDegrees>
            </Position>
            <AltitudeMeters>175.8000030517578125</AltitudeMeters>
            <DistanceMeters>NAN</DistanceMeters>
          </Trackpoint>
          <Trackpoint>
            <Time>2021-08-10T09:08:05.000Z</Time>
            <Position>
              <LatitudeDegrees>43.11223623342812061309814453125</LatitudeDegrees>
              <LongitudeDegrees>-1.6782533191144466400146484375</LongitudeDegrees>
            </Position>
            <AltitudeMeters>175.8000030517578125</AltitudeMeters>
            <DistanceMeters>NAN</DistanceMeters>
          </Trackpoint>
          <Trackpoint>
            <Time>2021-08-10T09:08:06.000Z</Time>
            <Position>
              <LatitudeDegrees>43.112235479056835174560546875</LatitudeDegrees>
              <LongitudeDegrees>-1.678222306072711944580078125</LongitudeDegrees>
            </Position>
            <AltitudeMeters>176</AltitudeMeters>
            <DistanceMeters>NAN</DistanceMeters>
          </Trackpoint>
          <Trackpoint>
            <Time>2021-08-10T09:08:07.000Z</Time>
            <Position>
              <LatitudeDegrees>43.11223422177135944366455078125</LatitudeDegrees>
              <LongitudeDegrees>-1.67819053865969181060791015625</LongitudeDegrees>
            </Position>
            <AltitudeMeters>176</AltitudeMeters>
            <DistanceMeters>NAN</DistanceMeters>
          </Trackpoint>
          <Trackpoint>
            <Time>2021-08-10T09:08:08.000Z</Time>
            <Position>
              <LatitudeDegrees>43.112236149609088897705078125</LatitudeDegrees>
              <LongitudeDegrees>-1.678151227533817291259765625</LongitudeDegrees>
            </Position>
            <AltitudeMeters>176</AltitudeMeters>
            <DistanceMeters>NAN</DistanceMeters>
          </Trackpoint>
          <Trackpoint>
            <Time>2021-08-10T09:08:09.000Z</Time>
            <Position>
              <LatitudeDegrees>43.11223908327519893646240234375</LatitudeDegrees>
              <LongitudeDegrees>-1.67811929248273372650146484375</LongitudeDegrees>
            </Position>
            <AltitudeMeters>176.1999969482421875</AltitudeMeters>
            <DistanceMeters>NAN</DistanceMeters>
          </Trackpoint>
          <Trackpoint>
            <Time>2021-08-10T09:08:10.000Z</Time>
            <Position>
              <LatitudeDegrees>43.11223908327519893646240234375</LatitudeDegrees>
              <LongitudeDegrees>-1.67811929248273372650146484375</LongitudeDegrees>
            </Position>
            <AltitudeMeters>176.1999969482421875</AltitudeMeters>
            <DistanceMeters>NAN</DistanceMeters>
          </Trackpoint>
          <Trackpoint>
            <Time>2021-08-10T09:08:11.000Z</Time>
            <Position>
              <LatitudeDegrees>43.112244196236133575439453125</LatitudeDegrees>
              <LongitudeDegrees>-1.67806975543498992919921875</LongitudeDegrees>
            </Position>
            <AltitudeMeters>176.1999969482421875</AltitudeMeters>
            <DistanceMeters>NAN</DistanceMeters>
          </Trackpoint>
          <Trackpoint>
            <Time>2021-08-10T09:08:12.000Z</Time>
            <Position>
              <LatitudeDegrees>43.11224830336868762969970703125</LatitudeDegrees>
              <LongitudeDegrees>-1.6780310310423374176025390625</LongitudeDegrees>
            </Position>
            <AltitudeMeters>176.1999969482421875</AltitudeMeters>
            <DistanceMeters>NAN</DistanceMeters>
          </Trackpoint>
          <Trackpoint>
            <Time>2021-08-10T09:08:13.000Z</Time>
            <Position>
              <LatitudeDegrees>43.11225098557770252227783203125</LatitudeDegrees>
              <LongitudeDegrees>-1.67800462804734706878662109375</LongitudeDegrees>
            </Position>
            <AltitudeMeters>176.1999969482421875</AltitudeMeters>
            <DistanceMeters>NAN</DistanceMeters>
          </Trackpoint>
          <Trackpoint>
            <Time>2021-08-10T09:08:14.000Z</Time>
            <Position>
              <LatitudeDegrees>43.11225391924381256103515625</LatitudeDegrees>
              <LongitudeDegrees>-1.67797177098691463470458984375</LongitudeDegrees>
            </Position>
            <AltitudeMeters>176.1999969482421875</AltitudeMeters>
            <DistanceMeters>NAN</DistanceMeters>
          </Trackpoint>
          <Trackpoint>
            <Time>2021-08-10T09:08:15.000Z</Time>
            <Position>
              <LatitudeDegrees>43.11225836165249347686767578125</LatitudeDegrees>
              <LongitudeDegrees>-1.67793824337422847747802734375</LongitudeDegrees>
            </Position>
            <AltitudeMeters>176.399993896484375</AltitudeMeters>
            <DistanceMeters>NAN</DistanceMeters>
          </Trackpoint>
          <Trackpoint>
            <Time>2021-08-10T09:08:21.000Z</Time>
            <Position>
              <LatitudeDegrees>43.11228744685649871826171875</LatitudeDegrees>
              <LongitudeDegrees>-1.67772366665303707122802734375</LongitudeDegrees>
            </Position>
            <AltitudeMeters>176.399993896484375</AltitudeMeters>
            <DistanceMeters>NAN</DistanceMeters>
          </Trackpoint>
          <Trackpoint>
            <Time>2021-08-10T09:08:30.000Z</Time>
            <Position>
              <LatitudeDegrees>43.11236565001308917999267578125</LatitudeDegrees>
              <LongitudeDegrees>-1.6773529350757598876953125</LongitudeDegrees>
            </Position>
            <AltitudeMeters>176.1999969482421875</AltitudeMeters>
            <DistanceMeters>NAN</DistanceMeters>
          </Trackpoint>
          <Trackpoint>
            <Time>2021-08-10T09:08:41.000Z</Time>
            <Position>
              <LatitudeDegrees>43.11246891506016254425048828125</LatitudeDegrees>
              <LongitudeDegrees>-1.6768629290163516998291015625</LongitudeDegrees>
            </Position>
            <AltitudeMeters>175.8000030517578125</AltitudeMeters>
            <DistanceMeters>NAN</DistanceMeters>
          </Trackpoint>
          <Trackpoint>
            <Time>2021-08-10T09:08:48.000Z</Time>
            <Position>
              <LatitudeDegrees>43.11252482235431671142578125</LatitudeDegrees>
              <LongitudeDegrees>-1.676509380340576171875</LongitudeDegrees>
            </Position>
            <AltitudeMeters>175.399993896484375</AltitudeMeters>
            <DistanceMeters>NAN</DistanceMeters>
          </Trackpoint>
          <Trackpoint>
            <Time>2021-08-10T09:08:51.000Z</Time>
            <Position>
              <LatitudeDegrees>43.1125280074775218963623046875</LatitudeDegrees>
              <LongitudeDegrees>-1.67634400539100170135498046875</LongitudeDegrees>
            </Position>
            <AltitudeMeters>175.1999969482421875</AltitudeMeters>
            <DistanceMeters>NAN</DistanceMeters>
          </Trackpoint>
          <Trackpoint>
            <Time>2021-08-10T09:08:58.000Z</Time>
            <Position>
              <LatitudeDegrees>43.1125095672905445098876953125</LatitudeDegrees>
              <LongitudeDegrees>-1.6760468669235706329345703125</LongitudeDegrees>
            </Position>
            <AltitudeMeters>175</AltitudeMeters>
            <DistanceMeters>NAN</DistanceMeters>
          </Trackpoint>
          <Trackpoint>
            <Time>2021-08-10T09:08:59.000Z</Time>
            <Position>
              <LatitudeDegrees>43.11249875463545322418212890625</LatitudeDegrees>
              <LongitudeDegrees>-1.67595994658768177032470703125</LongitudeDegrees>
            </Position>
            <AltitudeMeters>175</AltitudeMeters>
            <DistanceMeters>NAN</DistanceMeters>
          </Trackpoint>
          <Trackpoint>
            <Time>2021-08-10T09:09:00.000Z</Time>
            <Position>
              <LatitudeDegrees>43.11249263584613800048828125</LatitudeDegrees>
              <LongitudeDegrees>-1.67591954581439495086669921875</LongitudeDegrees>
            </Position>
            <AltitudeMeters>175</AltitudeMeters>
            <DistanceMeters>NAN</DistanceMeters>
          </Trackpoint>
          <Trackpoint>
            <Time>2021-08-10T09:09:01.000Z</Time>
            <Position>
              <LatitudeDegrees>43.1124850921332836151123046875</LatitudeDegrees>
              <LongitudeDegrees>-1.67588350363075733184814453125</LongitudeDegrees>
            </Position>
            <AltitudeMeters>175</AltitudeMeters>
            <DistanceMeters>NAN</DistanceMeters>
          </Trackpoint>
          <Trackpoint>
            <Time>2021-08-10T09:09:02.000Z</Time>
            <Position>
              <LatitudeDegrees>43.11247788369655609130859375</LatitudeDegrees>
              <LongitudeDegrees>-1.67585835792124271392822265625</LongitudeDegrees>
            </Position>
            <AltitudeMeters>175</AltitudeMeters>
            <DistanceMeters>NAN</DistanceMeters>
          </Trackpoint>
          <Trackpoint>
            <Time>2021-08-10T09:09:04.000Z</Time>
            <Position>
              <LatitudeDegrees>43.1124646402895450592041015625</LatitudeDegrees>
              <LongitudeDegrees>-1.67578191496431827545166015625</LongitudeDegrees>
            </Position>
            <AltitudeMeters>175.1999969482421875</AltitudeMeters>
            <DistanceMeters>NAN</DistanceMeters>
          </Trackpoint>
          <Trackpoint>
            <Time>2021-08-10T09:09:06.000Z</Time>
            <Position>
              <LatitudeDegrees>43.11245374381542205810546875</LatitudeDegrees>
              <LongitudeDegrees>-1.67572257108986377716064453125</LongitudeDegrees>
            </Position>
            <AltitudeMeters>175.1999969482421875</AltitudeMeters>
            <DistanceMeters>NAN</DistanceMeters>
          </Trackpoint>
          <Trackpoint>
            <Time>2021-08-10T09:09:07.000Z</Time>
            <Position>
              <LatitudeDegrees>43.11244796030223369598388671875</LatitudeDegrees>
              <LongitudeDegrees>-1.67569155804812908172607421875</LongitudeDegrees>
            </Position>
            <AltitudeMeters>175.399993896484375</AltitudeMeters>
            <DistanceMeters>NAN</DistanceMeters>
          </Trackpoint>
          <Trackpoint>
            <Time>2021-08-10T09:09:08.000Z</Time>
            <Position>
              <LatitudeDegrees>43.11244360171258449554443359375</LatitudeDegrees>
              <LongitudeDegrees>-1.675653420388698577880859375</LongitudeDegrees>
            </Position>
            <AltitudeMeters>175.399993896484375</AltitudeMeters>
            <DistanceMeters>NAN</DistanceMeters>
          </Trackpoint>
          <Trackpoint>
            <Time>2021-08-10T09:09:09.000Z</Time>
            <Position>
              <LatitudeDegrees>43.11243907548487186431884765625</LatitudeDegrees>
              <LongitudeDegrees>-1.67562366463243961334228515625</LongitudeDegrees>
            </Position>
            <AltitudeMeters>175.600006103515625</AltitudeMeters>
            <DistanceMeters>NAN</DistanceMeters>
          </Trackpoint>
          <Trackpoint>
            <Time>2021-08-10T09:09:10.000Z</Time>
            <Position>
              <LatitudeDegrees>43.1124334596097469329833984375</LatitudeDegrees>
              <LongitudeDegrees>-1.6755959205329418182373046875</LongitudeDegrees>
            </Position>
            <AltitudeMeters>175.600006103515625</AltitudeMeters>
            <DistanceMeters>NAN</DistanceMeters>
          </Trackpoint>
          <Trackpoint>
            <Time>2021-08-10T09:09:11.000Z</Time>
            <Position>
              <LatitudeDegrees>43.112430274486541748046875</LatitudeDegrees>
              <LongitudeDegrees>-1.67557722888886928558349609375</LongitudeDegrees>
            </Position>
            <AltitudeMeters>175.8000030517578125</AltitudeMeters>
            <DistanceMeters>NAN</DistanceMeters>
          </Trackpoint>
          <Trackpoint>
            <Time>2021-08-10T09:09:12.000Z</Time>
            <Position>
              <LatitudeDegrees>43.11242633499205112457275390625</LatitudeDegrees>
              <LongitudeDegrees>-1.6755563579499721527099609375</LongitudeDegrees>
            </Position>
            <AltitudeMeters>175.8000030517578125</AltitudeMeters>
            <DistanceMeters>NAN</DistanceMeters>
          </Trackpoint>
          <Trackpoint>
            <Time>2021-08-10T09:09:13.000Z</Time>
            <Position>
              <LatitudeDegrees>43.11242298223078250885009765625</LatitudeDegrees>
              <LongitudeDegrees>-1.675530038774013519287109375</LongitudeDegrees>
            </Position>
            <AltitudeMeters>175.8000030517578125</AltitudeMeters>
            <DistanceMeters>NAN</DistanceMeters>
          </Trackpoint>
          <Trackpoint>
            <Time>2021-08-10T09:09:14.000Z</Time>
            <Position>
              <LatitudeDegrees>43.11242247931659221649169921875</LatitudeDegrees>
              <LongitudeDegrees>-1.67550749145448207855224609375</LongitudeDegrees>
            </Position>
            <AltitudeMeters>176</AltitudeMeters>
            <DistanceMeters>NAN</DistanceMeters>
          </Trackpoint>
          <Trackpoint>
            <Time>2021-08-10T09:09:15.000Z</Time>
            <Position>
              <LatitudeDegrees>43.1124210543930530548095703125</LatitudeDegrees>
              <LongitudeDegrees>-1.67548754252493381500244140625</LongitudeDegrees>
            </Position>
            <AltitudeMeters>176</AltitudeMeters>
            <DistanceMeters>NAN</DistanceMeters>
          </Trackpoint>
          <Trackpoint>
            <Time>2021-08-10T09:09:16.000Z</Time>
            <Position>
              <LatitudeDegrees>43.11241812072694301605224609375</LatitudeDegrees>
              <LongitudeDegrees>-1.67547614313662052154541015625</LongitudeDegrees>
            </Position>
            <AltitudeMeters>176.1999969482421875</AltitudeMeters>
            <DistanceMeters>NAN</DistanceMeters>
          </Trackpoint>
          <Trackpoint>
            <Time>2021-08-10T09:09:17.000Z</Time>
            <Position>
              <LatitudeDegrees>43.1124114990234375</LatitudeDegrees>
              <LongitudeDegrees>-1.6754614748060703277587890625</LongitudeDegrees>
            </Position>
            <AltitudeMeters>176.1999969482421875</AltitudeMeters>
            <DistanceMeters>NAN</DistanceMeters>
          </Trackpoint>
          <Trackpoint>
            <Time>2021-08-10T09:09:18.000Z</Time>
            <Position>
              <LatitudeDegrees>43.1124063022434711456298828125</LatitudeDegrees>
              <LongitudeDegrees>-1.675444543361663818359375</LongitudeDegrees>
            </Position>
            <AltitudeMeters>176.1999969482421875</AltitudeMeters>
            <DistanceMeters>NAN</DistanceMeters>
          </Trackpoint>
          <Trackpoint>
            <Time>2021-08-10T09:09:19.000Z</Time>
            <Position>
              <LatitudeDegrees>43.1124032847583293914794921875</LatitudeDegrees>
              <LongitudeDegrees>-1.67542484588921070098876953125</LongitudeDegrees>
            </Position>
            <AltitudeMeters>176.399993896484375</AltitudeMeters>
            <DistanceMeters>NAN</DistanceMeters>
          </Trackpoint>
          <Trackpoint>
            <Time>2021-08-10T09:09:20.000Z</Time>
            <Position>
              <LatitudeDegrees>43.1124049611389636993408203125</LatitudeDegrees>
              <LongitudeDegrees>-1.67540363967418670654296875</LongitudeDegrees>
            </Position>
            <AltitudeMeters>176.399993896484375</AltitudeMeters>
            <DistanceMeters>NAN</DistanceMeters>
          </Trackpoint>
          <Trackpoint>
            <Time>2021-08-10T09:09:21.000Z</Time>
            <Position>
              <LatitudeDegrees>43.11240655370056629180908203125</LatitudeDegrees>
              <LongitudeDegrees>-1.67538176290690898895263671875</LongitudeDegrees>
            </Position>
            <AltitudeMeters>176.600006103515625</AltitudeMeters>
            <DistanceMeters>NAN</DistanceMeters>
          </Trackpoint>
          <Trackpoint>
            <Time>2021-08-10T09:09:22.000Z</Time>
            <Position>
              <LatitudeDegrees>43.112408816814422607421875</LatitudeDegrees>
              <LongitudeDegrees>-1.6753600537776947021484375</LongitudeDegrees>
            </Position>
            <AltitudeMeters>176.600006103515625</AltitudeMeters>
            <DistanceMeters>NAN</DistanceMeters>
          </Trackpoint>
          <Trackpoint>
            <Time>2021-08-10T09:09:23.000Z</Time>
            <Position>
              <LatitudeDegrees>43.11241191811859607696533203125</LatitudeDegrees>
              <LongitudeDegrees>-1.67533264495432376861572265625</LongitudeDegrees>
            </Position>
            <AltitudeMeters>176.8000030517578125</AltitudeMeters>
            <DistanceMeters>NAN</DistanceMeters>
          </Trackpoint>
          <Trackpoint>
            <Time>2021-08-10T09:09:28.000Z</Time>
            <Position>
              <LatitudeDegrees>43.11243236996233463287353515625</LatitudeDegrees>
              <LongitudeDegrees>-1.67518612928688526153564453125</LongitudeDegrees>
            </Position>
            <AltitudeMeters>177.399993896484375</AltitudeMeters>
            <DistanceMeters>NAN</DistanceMeters>
          </Trackpoint>
          <Trackpoint>
            <Time>2021-08-10T09:09:29.000Z</Time>
            <Position>
              <LatitudeDegrees>43.1124394945800304412841796875</LatitudeDegrees>
              <LongitudeDegrees>-1.67516224086284637451171875</LongitudeDegrees>
            </Position>
            <AltitudeMeters>177.600006103515625</AltitudeMeters>
            <DistanceMeters>NAN</DistanceMeters>
          </Trackpoint>
          <Trackpoint>
            <Time>2021-08-10T09:09:34.000Z</Time>
            <Position>
              <LatitudeDegrees>43.112455420196056365966796875</LatitudeDegrees>
              <LongitudeDegrees>-1.67507096193730831146240234375</LongitudeDegrees>
            </Position>
            <AltitudeMeters>178</AltitudeMeters>
            <DistanceMeters>NAN</DistanceMeters>
          </Trackpoint>
          <Trackpoint>
            <Time>2021-08-10T09:09:44.000Z</Time>
            <Position>
              <LatitudeDegrees>43.112455420196056365966796875</LatitudeDegrees>
              <LongitudeDegrees>-1.67507096193730831146240234375</LongitudeDegrees>
            </Position>
            <AltitudeMeters>178.399993896484375</AltitudeMeters>
            <DistanceMeters>NAN</DistanceMeters>
          </Trackpoint>
          <Trackpoint>
            <Time>2021-08-10T09:10:27.000Z</Time>
            <Position>
              <LatitudeDegrees>43.112455420196056365966796875</LatitudeDegrees>
              <LongitudeDegrees>-1.67507096193730831146240234375</LongitudeDegrees>
            </Position>
            <AltitudeMeters>178.1999969482421875</AltitudeMeters>
            <DistanceMeters>NAN</DistanceMeters>
          </Trackpoint>
          <Trackpoint>
            <Time>2021-08-10T09:11:07.000Z</Time>
            <Position>
              <LatitudeDegrees>43.112455420196056365966796875</LatitudeDegrees>
              <LongitudeDegrees>-1.67507096193730831146240234375</LongitudeDegrees>
            </Position>
            <AltitudeMeters>178.399993896484375</AltitudeMeters>
            <DistanceMeters>NAN</DistanceMeters>
          </Trackpoint>
          <Trackpoint>
            <Time>2021-08-10T09:11:38.000Z</Time>
            <Position>
              <LatitudeDegrees>43.112455420196056365966796875</LatitudeDegrees>
              <LongitudeDegrees>-1.67507096193730831146240234375</LongitudeDegrees>
            </Position>
            <AltitudeMeters>178.399993896484375</AltitudeMeters>
            <DistanceMeters>NAN</DistanceMeters>
          </Trackpoint>
          <Trackpoint>
            <Time>2021-08-10T09:18:25.000Z</Time>
            <Position>
              <LatitudeDegrees>43.112455420196056365966796875</LatitudeDegrees>
              <LongitudeDegrees>-1.67507096193730831146240234375</LongitudeDegrees>
            </Position>
            <AltitudeMeters>178.8000030517578125</AltitudeMeters>
            <DistanceMeters>NAN</DistanceMeters>
          </Trackpoint>
          <Trackpoint>
            <Time>2021-08-10T09:26:50.000Z</Time>
            <Position>
              <LatitudeDegrees>43.11246740631759166717529296875</LatitudeDegrees>
              <LongitudeDegrees>-1.67499351315200328826904296875</LongitudeDegrees>
            </Position>
            <AltitudeMeters>179.1999969482421875</AltitudeMeters>
            <DistanceMeters>NAN</DistanceMeters>
          </Trackpoint>
          <Trackpoint>
            <Time>2021-08-10T09:26:51.000Z</Time>
            <Position>
              <LatitudeDegrees>43.11247394420206546783447265625</LatitudeDegrees>
              <LongitudeDegrees>-1.67496333830058574676513671875</LongitudeDegrees>
            </Position>
            <AltitudeMeters>179.1999969482421875</AltitudeMeters>
            <DistanceMeters>NAN</DistanceMeters>
          </Trackpoint>
          <Trackpoint>
            <Time>2021-08-10T09:26:52.000Z</Time>
            <Position>
              <LatitudeDegrees>43.11247645877301692962646484375</LatitudeDegrees>
              <LongitudeDegrees>-1.67493416927754878997802734375</LongitudeDegrees>
            </Position>
            <AltitudeMeters>179.1999969482421875</AltitudeMeters>
            <DistanceMeters>NAN</DistanceMeters>
          </Trackpoint>
          <Trackpoint>
            <Time>2021-08-10T09:26:53.000Z</Time>
            <Position>
              <LatitudeDegrees>43.11248115263879299163818359375</LatitudeDegrees>
              <LongitudeDegrees>-1.67490919120609760284423828125</LongitudeDegrees>
            </Position>
            <AltitudeMeters>179.1999969482421875</AltitudeMeters>
            <DistanceMeters>NAN</DistanceMeters>
          </Trackpoint>
          <Trackpoint>
            <Time>2021-08-10T09:26:54.000Z</Time>
            <Position>
              <LatitudeDegrees>43.1124850921332836151123046875</LatitudeDegrees>
              <LongitudeDegrees>-1.67488840408623218536376953125</LongitudeDegrees>
            </Position>
            <AltitudeMeters>179.1999969482421875</AltitudeMeters>
            <DistanceMeters>NAN</DistanceMeters>
          </Trackpoint>
          <Trackpoint>
            <Time>2021-08-10T09:26:55.000Z</Time>
            <Position>
              <LatitudeDegrees>43.11248701997101306915283203125</LatitudeDegrees>
              <LongitudeDegrees>-1.67487046681344509124755859375</LongitudeDegrees>
            </Position>
            <AltitudeMeters>179.1999969482421875</AltitudeMeters>
            <DistanceMeters>NAN</DistanceMeters>
          </Trackpoint>
          <Trackpoint>
            <Time>2021-08-10T09:26:56.000Z</Time>
            <Position>
              <LatitudeDegrees>43.11249087564647197723388671875</LatitudeDegrees>
              <LongitudeDegrees>-1.67484917677938938140869140625</LongitudeDegrees>
            </Position>
            <AltitudeMeters>179.1999969482421875</AltitudeMeters>
            <DistanceMeters>NAN</DistanceMeters>
          </Trackpoint>
          <Trackpoint>
            <Time>2021-08-10T09:26:57.000Z</Time>
            <Position>
              <LatitudeDegrees>43.11249121092259883880615234375</LatitudeDegrees>
              <LongitudeDegrees>-1.6748281382024288177490234375</LongitudeDegrees>
            </Position>
            <AltitudeMeters>179.399993896484375</AltitudeMeters>
            <DistanceMeters>NAN</DistanceMeters>
          </Trackpoint>
          <Trackpoint>
            <Time>2021-08-10T09:26:58.000Z</Time>
            <Position>
              <LatitudeDegrees>43.112493641674518585205078125</LatitudeDegrees>
              <LongitudeDegrees>-1.67480684816837310791015625</LongitudeDegrees>
            </Position>
            <AltitudeMeters>179.399993896484375</AltitudeMeters>
            <DistanceMeters>NAN</DistanceMeters>
          </Trackpoint>
          <Trackpoint>
            <Time>2021-08-10T09:27:03.000Z</Time>
            <Position>
              <LatitudeDegrees>43.1125219725072383880615234375</LatitudeDegrees>
              <LongitudeDegrees>-1.67469955980777740478515625</LongitudeDegrees>
            </Position>
            <AltitudeMeters>179.8000030517578125</AltitudeMeters>
            <DistanceMeters>NAN</DistanceMeters>
          </Trackpoint>
          <Trackpoint>
            <Time>2021-08-10T09:27:04.000Z</Time>
            <Position>
              <LatitudeDegrees>43.112529851496219635009765625</LatitudeDegrees>
              <LongitudeDegrees>-1.67468011379241943359375</LongitudeDegrees>
            </Position>
            <AltitudeMeters>179.8000030517578125</AltitudeMeters>
            <DistanceMeters>NAN</DistanceMeters>
          </Trackpoint>
          <Trackpoint>
            <Time>2021-08-10T09:27:10.000Z</Time>
            <Position>
              <LatitudeDegrees>43.11258039437234401702880859375</LatitudeDegrees>
              <LongitudeDegrees>-1.67455329559743404388427734375</LongitudeDegrees>
            </Position>
            <AltitudeMeters>180</AltitudeMeters>
            <DistanceMeters>NAN</DistanceMeters>
          </Trackpoint>
          <Trackpoint>
            <Time>2021-08-10T09:27:12.000Z</Time>
            <Position>
              <LatitudeDegrees>43.11259380541741847991943359375</LatitudeDegrees>
              <LongitudeDegrees>-1.67451574467122554779052734375</LongitudeDegrees>
            </Position>
            <AltitudeMeters>180</AltitudeMeters>
            <DistanceMeters>NAN</DistanceMeters>
          </Trackpoint>
          <Trackpoint>
            <Time>2021-08-10T09:27:15.000Z</Time>
            <Position>
              <LatitudeDegrees>43.112612999975681304931640625</LatitudeDegrees>
              <LongitudeDegrees>-1.674461849033832550048828125</LongitudeDegrees>
            </Position>
            <AltitudeMeters>180.1999969482421875</AltitudeMeters>
            <DistanceMeters>NAN</DistanceMeters>
          </Trackpoint>
          <Trackpoint>
            <Time>2021-08-10T09:27:16.000Z</Time>
            <Position>
              <LatitudeDegrees>43.11261660419404506683349609375</LatitudeDegrees>
              <LongitudeDegrees>-1.67444248683750629425048828125</LongitudeDegrees>
            </Position>
            <AltitudeMeters>180.399993896484375</AltitudeMeters>
            <DistanceMeters>NAN</DistanceMeters>
          </Trackpoint>
          <Trackpoint>
            <Time>2021-08-10T09:27:17.000Z</Time>
            <Position>
              <LatitudeDegrees>43.11262230388820171356201171875</LatitudeDegrees>
              <LongitudeDegrees>-1.67442329227924346923828125</LongitudeDegrees>
            </Position>
            <AltitudeMeters>180.399993896484375</AltitudeMeters>
            <DistanceMeters>NAN</DistanceMeters>
          </Trackpoint>
          <Trackpoint>
            <Time>2021-08-10T09:27:18.000Z</Time>
            <Position>
              <LatitudeDegrees>43.11263269744813442230224609375</LatitudeDegrees>
              <LongitudeDegrees>-1.67440108023583889007568359375</LongitudeDegrees>
            </Position>
            <AltitudeMeters>180.399993896484375</AltitudeMeters>
            <DistanceMeters>NAN</DistanceMeters>
          </Trackpoint>
          <Trackpoint>
            <Time>2021-08-10T09:27:21.000Z</Time>
            <Position>
              <LatitudeDegrees>43.112662620842456817626953125</LatitudeDegrees>
              <LongitudeDegrees>-1.67434416711330413818359375</LongitudeDegrees>
            </Position>
            <AltitudeMeters>180.600006103515625</AltitudeMeters>
            <DistanceMeters>NAN</DistanceMeters>
          </Trackpoint>
          <Trackpoint>
            <Time>2021-08-10T09:27:29.000Z</Time>
            <Position>
              <LatitudeDegrees>43.1127382256090641021728515625</LatitudeDegrees>
              <LongitudeDegrees>-1.67415180243551731109619140625</LongitudeDegrees>
            </Position>
            <AltitudeMeters>180.8000030517578125</AltitudeMeters>
            <DistanceMeters>NAN</DistanceMeters>
          </Trackpoint>
          <Trackpoint>
            <Time>2021-08-10T09:27:32.000Z</Time>
            <Position>
              <LatitudeDegrees>43.1127717532217502593994140625</LatitudeDegrees>
              <LongitudeDegrees>-1.67410503141582012176513671875</LongitudeDegrees>
            </Position>
            <AltitudeMeters>180.8000030517578125</AltitudeMeters>
            <DistanceMeters>NAN</DistanceMeters>
          </Trackpoint>
          <Trackpoint>
            <Time>2021-08-10T09:27:33.000Z</Time>
            <Position>
              <LatitudeDegrees>43.1127854995429515838623046875</LatitudeDegrees>
              <LongitudeDegrees>-1.67408541776239871978759765625</LongitudeDegrees>
            </Position>
            <AltitudeMeters>180.8000030517578125</AltitudeMeters>
            <DistanceMeters>NAN</DistanceMeters>
          </Trackpoint>
          <Trackpoint>
            <Time>2021-08-10T09:27:34.000Z</Time>
            <Position>
              <LatitudeDegrees>43.11280377209186553955078125</LatitudeDegrees>
              <LongitudeDegrees>-1.67406027205288410186767578125</LongitudeDegrees>
            </Position>
            <AltitudeMeters>180.8000030517578125</AltitudeMeters>
            <DistanceMeters>NAN</DistanceMeters>
          </Trackpoint>
          <Trackpoint>
            <Time>2021-08-10T09:27:40.000Z</Time>
            <Position>
              <LatitudeDegrees>43.1129048578441143035888671875</LatitudeDegrees>
              <LongitudeDegrees>-1.67395264841616153717041015625</LongitudeDegrees>
            </Position>
            <AltitudeMeters>181</AltitudeMeters>
            <DistanceMeters>NAN</DistanceMeters>
          </Trackpoint>
          <Trackpoint>
            <Time>2021-08-10T09:27:44.000Z</Time>
            <Position>
              <LatitudeDegrees>43.11295556835830211639404296875</LatitudeDegrees>
              <LongitudeDegrees>-1.673881150782108306884765625</LongitudeDegrees>
            </Position>
            <AltitudeMeters>181</AltitudeMeters>
            <DistanceMeters>NAN</DistanceMeters>
          </Trackpoint>
          <Trackpoint>
            <Time>2021-08-10T09:27:45.000Z</Time>
            <Position>
              <LatitudeDegrees>43.1129712425172328948974609375</LatitudeDegrees>
              <LongitudeDegrees>-1.67385826818645000457763671875</LongitudeDegrees>
            </Position>
            <AltitudeMeters>181</AltitudeMeters>
            <DistanceMeters>NAN</DistanceMeters>
          </Trackpoint>
          <Trackpoint>
            <Time>2021-08-10T09:27:47.000Z</Time>
            <Position>
              <LatitudeDegrees>43.11300150118768215179443359375</LatitudeDegrees>
              <LongitudeDegrees>-1.67382256127893924713134765625</LongitudeDegrees>
            </Position>
            <AltitudeMeters>181.1999969482421875</AltitudeMeters>
            <DistanceMeters>NAN</DistanceMeters>
          </Trackpoint>
          <Trackpoint>
            <Time>2021-08-10T09:27:48.000Z</Time>
            <Position>
              <LatitudeDegrees>43.11301088891923427581787109375</LatitudeDegrees>
              <LongitudeDegrees>-1.67380495928227901458740234375</LongitudeDegrees>
            </Position>
            <AltitudeMeters>181.1999969482421875</AltitudeMeters>
            <DistanceMeters>NAN</DistanceMeters>
          </Trackpoint>
          <Trackpoint>
            <Time>2021-08-10T09:27:49.000Z</Time>
            <Position>
              <LatitudeDegrees>43.11302212066948413848876953125</LatitudeDegrees>
              <LongitudeDegrees>-1.6737814061343669891357421875</LongitudeDegrees>
            </Position>
            <AltitudeMeters>181.399993896484375</AltitudeMeters>
            <DistanceMeters>NAN</DistanceMeters>
          </Trackpoint>
          <Trackpoint>
            <Time>2021-08-10T09:27:50.000Z</Time>
            <Position>
              <LatitudeDegrees>43.113036118447780609130859375</LatitudeDegrees>
              <LongitudeDegrees>-1.6737560927867889404296875</LongitudeDegrees>
            </Position>
            <AltitudeMeters>181.399993896484375</AltitudeMeters>
            <DistanceMeters>NAN</DistanceMeters>
          </Trackpoint>
          <Trackpoint>
            <Time>2021-08-10T09:27:51.000Z</Time>
            <Position>
              <LatitudeDegrees>43.11304810456931591033935546875</LatitudeDegrees>
              <LongitudeDegrees>-1.67373823933303356170654296875</LongitudeDegrees>
            </Position>
            <AltitudeMeters>181.8000030517578125</AltitudeMeters>
            <DistanceMeters>NAN</DistanceMeters>
          </Trackpoint>
          <Trackpoint>
            <Time>2021-08-10T09:27:53.000Z</Time>
            <Position>
              <LatitudeDegrees>43.11307559721171855926513671875</LatitudeDegrees>
              <LongitudeDegrees>-1.6737029515206813812255859375</LongitudeDegrees>
            </Position>
            <AltitudeMeters>182.1999969482421875</AltitudeMeters>
            <DistanceMeters>NAN</DistanceMeters>
          </Trackpoint>
          <Trackpoint>
            <Time>2021-08-10T09:27:54.000Z</Time>
            <Position>
              <LatitudeDegrees>43.11308406293392181396484375</LatitudeDegrees>
              <LongitudeDegrees>-1.6736875288188457489013671875</LongitudeDegrees>
            </Position>
            <AltitudeMeters>182.600006103515625</AltitudeMeters>
            <DistanceMeters>NAN</DistanceMeters>
          </Trackpoint>
          <Trackpoint>
            <Time>2021-08-10T09:27:55.000Z</Time>
            <Position>
              <LatitudeDegrees>43.113097138702869415283203125</LatitudeDegrees>
              <LongitudeDegrees>-1.67366766370832920074462890625</LongitudeDegrees>
            </Position>
            <AltitudeMeters>183.1999969482421875</AltitudeMeters>
            <DistanceMeters>NAN</DistanceMeters>
          </Trackpoint>
          <Trackpoint>
            <Time>2021-08-10T09:27:56.000Z</Time>
            <Position>
              <LatitudeDegrees>43.11311063356697559356689453125</LatitudeDegrees>
              <LongitudeDegrees>-1.6736516542732715606689453125</LongitudeDegrees>
            </Position>
            <AltitudeMeters>183.399993896484375</AltitudeMeters>
            <DistanceMeters>NAN</DistanceMeters>
          </Trackpoint>
          <Trackpoint>
            <Time>2021-08-10T09:27:57.000Z</Time>
            <Position>
              <LatitudeDegrees>43.11312639154493808746337890625</LatitudeDegrees>
              <LongitudeDegrees>-1.6736362315714359283447265625</LongitudeDegrees>
            </Position>
            <AltitudeMeters>183.8000030517578125</AltitudeMeters>
            <DistanceMeters>NAN</DistanceMeters>
          </Trackpoint>
          <Trackpoint>
            <Time>2021-08-10T09:28:00.000Z</Time>
            <Position>
              <LatitudeDegrees>43.1131680496037006378173828125</LatitudeDegrees>
              <LongitudeDegrees>-1.67357881553471088409423828125</LongitudeDegrees>
            </Position>
            <AltitudeMeters>184</AltitudeMeters>
            <DistanceMeters>NAN</DistanceMeters>
          </Trackpoint>
          <Trackpoint>
            <Time>2021-08-10T09:28:01.000Z</Time>
            <Position>
              <LatitudeDegrees>43.11318137682974338531494140625</LatitudeDegrees>
              <LongitudeDegrees>-1.6735597886145114898681640625</LongitudeDegrees>
            </Position>
            <AltitudeMeters>184</AltitudeMeters>
            <DistanceMeters>NAN</DistanceMeters>
          </Trackpoint>
          <Trackpoint>
            <Time>2021-08-10T09:28:02.000Z</Time>
            <Position>
              <LatitudeDegrees>43.11319537460803985595703125</LatitudeDegrees>
              <LongitudeDegrees>-1.67354176752269268035888671875</LongitudeDegrees>
            </Position>
            <AltitudeMeters>184.1999969482421875</AltitudeMeters>
            <DistanceMeters>NAN</DistanceMeters>
          </Trackpoint>
          <Trackpoint>
            <Time>2021-08-10T09:28:03.000Z</Time>
            <Position>
              <LatitudeDegrees>43.1132096238434314727783203125</LatitudeDegrees>
              <LongitudeDegrees>-1.67352181859314441680908203125</LongitudeDegrees>
            </Position>
            <AltitudeMeters>184.1999969482421875</AltitudeMeters>
            <DistanceMeters>NAN</DistanceMeters>
          </Trackpoint>
          <Trackpoint>
            <Time>2021-08-10T09:28:04.000Z</Time>
            <Position>
              <LatitudeDegrees>43.1132243759930133819580078125</LatitudeDegrees>
              <LongitudeDegrees>-1.67350220493972301483154296875</LongitudeDegrees>
            </Position>
            <AltitudeMeters>184.1999969482421875</AltitudeMeters>
            <DistanceMeters>NAN</DistanceMeters>
          </Trackpoint>
          <Trackpoint>
            <Time>2021-08-10T09:28:05.000Z</Time>
            <Position>
              <LatitudeDegrees>43.11323552392423152923583984375</LatitudeDegrees>
              <LongitudeDegrees>-1.6734840162098407745361328125</LongitudeDegrees>
            </Position>
            <AltitudeMeters>184.399993896484375</AltitudeMeters>
            <DistanceMeters>NAN</DistanceMeters>
          </Trackpoint>
          <Trackpoint>
            <Time>2021-08-10T09:28:06.000Z</Time>
            <Position>
              <LatitudeDegrees>43.1132523715496063232421875</LatitudeDegrees>
              <LongitudeDegrees>-1.67345727793872356414794921875</LongitudeDegrees>
            </Position>
            <AltitudeMeters>184.399993896484375</AltitudeMeters>
            <DistanceMeters>NAN</DistanceMeters>
          </Trackpoint>
          <Trackpoint>
            <Time>2021-08-10T09:28:07.000Z</Time>
            <Position>
              <LatitudeDegrees>43.11326687224209308624267578125</LatitudeDegrees>
              <LongitudeDegrees>-1.67343665845692157745361328125</LongitudeDegrees>
            </Position>
            <AltitudeMeters>184.600006103515625</AltitudeMeters>
            <DistanceMeters>NAN</DistanceMeters>
          </Trackpoint>
          <Trackpoint>
            <Time>2021-08-10T09:28:08.000Z</Time>
            <Position>
              <LatitudeDegrees>43.1132817082107067108154296875</LatitudeDegrees>
              <LongitudeDegrees>-1.67341670952737331390380859375</LongitudeDegrees>
            </Position>
            <AltitudeMeters>184.600006103515625</AltitudeMeters>
            <DistanceMeters>NAN</DistanceMeters>
          </Trackpoint>
          <Trackpoint>
            <Time>2021-08-10T09:28:09.000Z</Time>
            <Position>
              <LatitudeDegrees>43.11329587362706661224365234375</LatitudeDegrees>
              <LongitudeDegrees>-1.67339776642620563507080078125</LongitudeDegrees>
            </Position>
            <AltitudeMeters>184.8000030517578125</AltitudeMeters>
            <DistanceMeters>NAN</DistanceMeters>
          </Trackpoint>
          <Trackpoint>
            <Time>2021-08-10T09:28:10.000Z</Time>
            <Position>
              <LatitudeDegrees>43.11331012286245822906494140625</LatitudeDegrees>
              <LongitudeDegrees>-1.67337966151535511016845703125</LongitudeDegrees>
            </Position>
            <AltitudeMeters>185</AltitudeMeters>
            <DistanceMeters>NAN</DistanceMeters>
          </Trackpoint>
          <Trackpoint>
            <Time>2021-08-10T09:28:11.000Z</Time>
            <Position>
              <LatitudeDegrees>43.113323785364627838134765625</LatitudeDegrees>
              <LongitudeDegrees>-1.6733591258525848388671875</LongitudeDegrees>
            </Position>
            <AltitudeMeters>185.1999969482421875</AltitudeMeters>
            <DistanceMeters>NAN</DistanceMeters>
          </Trackpoint>
          <Trackpoint>
            <Time>2021-08-10T09:28:12.000Z</Time>
            <Position>
              <LatitudeDegrees>43.11333292163908481597900390625</LatitudeDegrees>
              <LongitudeDegrees>-1.67333758436143398284912109375</LongitudeDegrees>
            </Position>
            <AltitudeMeters>185.1999969482421875</AltitudeMeters>
            <DistanceMeters>NAN</DistanceMeters>
          </Trackpoint>
          <Trackpoint>
            <Time>2021-08-10T09:28:13.000Z</Time>
            <Position>
              <LatitudeDegrees>43.11334784142673015594482421875</LatitudeDegrees>
              <LongitudeDegrees>-1.6733177192509174346923828125</LongitudeDegrees>
            </Position>
            <AltitudeMeters>185.1999969482421875</AltitudeMeters>
            <DistanceMeters>NAN</DistanceMeters>
          </Trackpoint>
          <Trackpoint>
            <Time>2021-08-10T09:28:14.000Z</Time>
            <Position>
              <LatitudeDegrees>43.1133618392050266265869140625</LatitudeDegrees>
              <LongitudeDegrees>-1.67329567484557628631591796875</LongitudeDegrees>
            </Position>
            <AltitudeMeters>185.399993896484375</AltitudeMeters>
            <DistanceMeters>NAN</DistanceMeters>
          </Trackpoint>
          <Trackpoint>
            <Time>2021-08-10T09:28:15.000Z</Time>
            <Position>
              <LatitudeDegrees>43.11337566934525966644287109375</LatitudeDegrees>
              <LongitudeDegrees>-1.67327505536377429962158203125</LongitudeDegrees>
            </Position>
            <AltitudeMeters>185.399993896484375</AltitudeMeters>
            <DistanceMeters>NAN</DistanceMeters>
          </Trackpoint>
          <Trackpoint>
            <Time>2021-08-10T09:28:16.000Z</Time>
            <Position>
              <LatitudeDegrees>43.11339142732322216033935546875</LatitudeDegrees>
              <LongitudeDegrees>-1.67325384914875030517578125</LongitudeDegrees>
            </Position>
            <AltitudeMeters>185.600006103515625</AltitudeMeters>
            <DistanceMeters>NAN</DistanceMeters>
          </Trackpoint>
          <Trackpoint>
            <Time>2021-08-10T09:28:17.000Z</Time>
            <Position>
              <LatitudeDegrees>43.11340534128248691558837890625</LatitudeDegrees>
              <LongitudeDegrees>-1.67323029600083827972412109375</LongitudeDegrees>
            </Position>
            <AltitudeMeters>185.600006103515625</AltitudeMeters>
            <DistanceMeters>NAN</DistanceMeters>
          </Trackpoint>
          <Trackpoint>
            <Time>2021-08-10T09:28:18.000Z</Time>
            <Position>
              <LatitudeDegrees>43.11342210508882999420166015625</LatitudeDegrees>
              <LongitudeDegrees>-1.67320816777646541595458984375</LongitudeDegrees>
            </Position>
            <AltitudeMeters>185.8000030517578125</AltitudeMeters>
            <DistanceMeters>NAN</DistanceMeters>
          </Trackpoint>
          <Trackpoint>
            <Time>2021-08-10T09:28:19.000Z</Time>
            <Position>
              <LatitudeDegrees>43.11343903653323650360107421875</LatitudeDegrees>
              <LongitudeDegrees>-1.673186123371124267578125</LongitudeDegrees>
            </Position>
            <AltitudeMeters>186</AltitudeMeters>
            <DistanceMeters>NAN</DistanceMeters>
          </Trackpoint>
          <Trackpoint>
            <Time>2021-08-10T09:28:20.000Z</Time>
            <Position>
              <LatitudeDegrees>43.11345018446445465087890625</LatitudeDegrees>
              <LongitudeDegrees>-1.6731671802699565887451171875</LongitudeDegrees>
            </Position>
            <AltitudeMeters>186</AltitudeMeters>
            <DistanceMeters>NAN</DistanceMeters>
          </Trackpoint>
          <Trackpoint>
            <Time>2021-08-10T09:28:21.000Z</Time>
            <Position>
              <LatitudeDegrees>43.11346434988081455230712890625</LatitudeDegrees>
              <LongitudeDegrees>-1.67314656078815460205078125</LongitudeDegrees>
            </Position>
            <AltitudeMeters>186.399993896484375</AltitudeMeters>
            <DistanceMeters>NAN</DistanceMeters>
          </Trackpoint>
          <Trackpoint>
            <Time>2021-08-10T09:28:22.000Z</Time>
            <Position>
              <LatitudeDegrees>43.1134808622300624847412109375</LatitudeDegrees>
              <LongitudeDegrees>-1.6731202416121959686279296875</LongitudeDegrees>
            </Position>
            <AltitudeMeters>186.600006103515625</AltitudeMeters>
            <DistanceMeters>NAN</DistanceMeters>
          </Trackpoint>
          <Trackpoint>
            <Time>2021-08-10T09:28:23.000Z</Time>
            <Position>
              <LatitudeDegrees>43.1134949438273906707763671875</LatitudeDegrees>
              <LongitudeDegrees>-1.673100627958774566650390625</LongitudeDegrees>
            </Position>
            <AltitudeMeters>186.8000030517578125</AltitudeMeters>
            <DistanceMeters>NAN</DistanceMeters>
          </Trackpoint>
          <Trackpoint>
            <Time>2021-08-10T09:28:24.000Z</Time>
            <Position>
              <LatitudeDegrees>43.11350391246378421783447265625</LatitudeDegrees>
              <LongitudeDegrees>-1.67308428324759006500244140625</LongitudeDegrees>
            </Position>
            <AltitudeMeters>186.8000030517578125</AltitudeMeters>
            <DistanceMeters>NAN</DistanceMeters>
          </Trackpoint>
          <Trackpoint>
            <Time>2021-08-10T09:28:25.000Z</Time>
            <Position>
              <LatitudeDegrees>43.1135197542607784271240234375</LatitudeDegrees>
              <LongitudeDegrees>-1.67305846698582172393798828125</LongitudeDegrees>
            </Position>
            <AltitudeMeters>187</AltitudeMeters>
            <DistanceMeters>NAN</DistanceMeters>
          </Trackpoint>
          <Trackpoint>
            <Time>2021-08-10T09:28:26.000Z</Time>
            <Position>
              <LatitudeDegrees>43.11353224329650402069091796875</LatitudeDegrees>
              <LongitudeDegrees>-1.67303499765694141387939453125</LongitudeDegrees>
            </Position>
            <AltitudeMeters>187.1999969482421875</AltitudeMeters>
            <DistanceMeters>NAN</DistanceMeters>
          </Trackpoint>
          <Trackpoint>
            <Time>2021-08-10T09:28:27.000Z</Time>
            <Position>
              <LatitudeDegrees>43.11354431323707103729248046875</LatitudeDegrees>
              <LongitudeDegrees>-1.6730102710425853729248046875</LongitudeDegrees>
            </Position>
            <AltitudeMeters>187.1999969482421875</AltitudeMeters>
            <DistanceMeters>NAN</DistanceMeters>
          </Trackpoint>
          <Trackpoint>
            <Time>2021-08-10T09:28:28.000Z</Time>
            <Position>
              <LatitudeDegrees>43.11355571262538433074951171875</LatitudeDegrees>
              <LongitudeDegrees>-1.67298638261854648590087890625</LongitudeDegrees>
            </Position>
            <AltitudeMeters>187.600006103515625</AltitudeMeters>
            <DistanceMeters>NAN</DistanceMeters>
          </Trackpoint>
          <Trackpoint>
            <Time>2021-08-10T09:28:29.000Z</Time>
            <Position>
              <LatitudeDegrees>43.11356593854725360870361328125</LatitudeDegrees>
              <LongitudeDegrees>-1.67296391911804676055908203125</LongitudeDegrees>
            </Position>
            <AltitudeMeters>187.600006103515625</AltitudeMeters>
            <DistanceMeters>NAN</DistanceMeters>
          </Trackpoint>
          <Trackpoint>
            <Time>2021-08-10T09:28:30.000Z</Time>
            <Position>
              <LatitudeDegrees>43.113580606877803802490234375</LatitudeDegrees>
              <LongitudeDegrees>-1.67294539511203765869140625</LongitudeDegrees>
            </Position>
            <AltitudeMeters>188</AltitudeMeters>
            <DistanceMeters>NAN</DistanceMeters>
          </Trackpoint>
          <Trackpoint>
            <Time>2021-08-10T09:28:31.000Z</Time>
            <Position>
              <LatitudeDegrees>43.113594353199005126953125</LatitudeDegrees>
              <LongitudeDegrees>-1.67292351834475994110107421875</LongitudeDegrees>
            </Position>
            <AltitudeMeters>188.1999969482421875</AltitudeMeters>
            <DistanceMeters>NAN</DistanceMeters>
          </Trackpoint>
          <Trackpoint>
            <Time>2021-08-10T09:28:32.000Z</Time>
            <Position>
              <LatitudeDegrees>43.1136075966060161590576171875</LatitudeDegrees>
              <LongitudeDegrees>-1.67289870791137218475341796875</LongitudeDegrees>
            </Position>
            <AltitudeMeters>188.399993896484375</AltitudeMeters>
            <DistanceMeters>NAN</DistanceMeters>
          </Trackpoint>
          <Trackpoint>
            <Time>2021-08-10T09:28:33.000Z</Time>
            <Position>
              <LatitudeDegrees>43.1136156432330608367919921875</LatitudeDegrees>
              <LongitudeDegrees>-1.672874987125396728515625</LongitudeDegrees>
            </Position>
            <AltitudeMeters>188.600006103515625</AltitudeMeters>
            <DistanceMeters>NAN</DistanceMeters>
          </Trackpoint>
          <Trackpoint>
            <Time>2021-08-10T09:28:34.000Z</Time>
            <Position>
              <LatitudeDegrees>43.11362930573523044586181640625</LatitudeDegrees>
              <LongitudeDegrees>-1.672851182520389556884765625</LongitudeDegrees>
            </Position>
            <AltitudeMeters>188.600006103515625</AltitudeMeters>
            <DistanceMeters>NAN</DistanceMeters>
          </Trackpoint>
          <Trackpoint>
            <Time>2021-08-10T09:28:35.000Z</Time>
            <Position>
              <LatitudeDegrees>43.11364204622805118560791015625</LatitudeDegrees>
              <LongitudeDegrees>-1.672826372087001800537109375</LongitudeDegrees>
            </Position>
            <AltitudeMeters>189</AltitudeMeters>
            <DistanceMeters>NAN</DistanceMeters>
          </Trackpoint>
          <Trackpoint>
            <Time>2021-08-10T09:28:36.000Z</Time>
            <Position>
              <LatitudeDegrees>43.11365461908280849456787109375</LatitudeDegrees>
              <LongitudeDegrees>-1.67279745452105998992919921875</LongitudeDegrees>
            </Position>
            <AltitudeMeters>189.1999969482421875</AltitudeMeters>
            <DistanceMeters>NAN</DistanceMeters>
          </Trackpoint>
          <Trackpoint>
            <Time>2021-08-10T09:28:37.000Z</Time>
            <Position>
              <LatitudeDegrees>43.11366551555693149566650390625</LatitudeDegrees>
              <LongitudeDegrees>-1.672770716249942779541015625</LongitudeDegrees>
            </Position>
            <AltitudeMeters>189.399993896484375</AltitudeMeters>
            <DistanceMeters>NAN</DistanceMeters>
          </Trackpoint>
          <Trackpoint>
            <Time>2021-08-10T09:28:38.000Z</Time>
            <Position>
              <LatitudeDegrees>43.11367280781269073486328125</LatitudeDegrees>
              <LongitudeDegrees>-1.67274900712072849273681640625</LongitudeDegrees>
            </Position>
            <AltitudeMeters>189.600006103515625</AltitudeMeters>
            <DistanceMeters>NAN</DistanceMeters>
          </Trackpoint>
          <Trackpoint>
            <Time>2021-08-10T09:28:39.000Z</Time>
            <Position>
              <LatitudeDegrees>43.11368563212454319000244140625</LatitudeDegrees>
              <LongitudeDegrees>-1.6727249510586261749267578125</LongitudeDegrees>
            </Position>
            <AltitudeMeters>189.8000030517578125</AltitudeMeters>
            <DistanceMeters>NAN</DistanceMeters>
          </Trackpoint>
          <Trackpoint>
            <Time>2021-08-10T09:28:40.000Z</Time>
            <Position>
              <LatitudeDegrees>43.11369904316961765289306640625</LatitudeDegrees>
              <LongitudeDegrees>-1.67270005680620670318603515625</LongitudeDegrees>
            </Position>
            <AltitudeMeters>190</AltitudeMeters>
            <DistanceMeters>NAN</DistanceMeters>
          </Trackpoint>
          <Trackpoint>
            <Time>2021-08-10T09:28:41.000Z</Time>
            <Position>
              <LatitudeDegrees>43.11371111311018466949462890625</LatitudeDegrees>
              <LongitudeDegrees>-1.67267180979251861572265625</LongitudeDegrees>
            </Position>
            <AltitudeMeters>190</AltitudeMeters>
            <DistanceMeters>NAN</DistanceMeters>
          </Trackpoint>
          <Trackpoint>
            <Time>2021-08-10T09:28:42.000Z</Time>
            <Position>
              <LatitudeDegrees>43.1137212552130222320556640625</LatitudeDegrees>
              <LongitudeDegrees>-1.6726344265043735504150390625</LongitudeDegrees>
            </Position>
            <AltitudeMeters>190</AltitudeMeters>
            <DistanceMeters>NAN</DistanceMeters>
          </Trackpoint>
          <Trackpoint>
            <Time>2021-08-10T09:28:43.000Z</Time>
            <Position>
              <LatitudeDegrees>43.113730810582637786865234375</LatitudeDegrees>
              <LongitudeDegrees>-1.67260416783392429351806640625</LongitudeDegrees>
            </Position>
            <AltitudeMeters>190</AltitudeMeters>
            <DistanceMeters>NAN</DistanceMeters>
          </Trackpoint>
          <Trackpoint>
            <Time>2021-08-10T09:28:44.000Z</Time>
            <Position>
              <LatitudeDegrees>43.11374095268547534942626953125</LatitudeDegrees>
              <LongitudeDegrees>-1.672576926648616790771484375</LongitudeDegrees>
            </Position>
            <AltitudeMeters>190</AltitudeMeters>
            <DistanceMeters>NAN</DistanceMeters>
          </Trackpoint>
          <Trackpoint>
            <Time>2021-08-10T09:28:45.000Z</Time>
            <Position>
              <LatitudeDegrees>43.11375050805509090423583984375</LatitudeDegrees>
              <LongitudeDegrees>-1.6725464165210723876953125</LongitudeDegrees>
            </Position>
            <AltitudeMeters>190.1999969482421875</AltitudeMeters>
            <DistanceMeters>NAN</DistanceMeters>
          </Trackpoint>
          <Trackpoint>
            <Time>2021-08-10T09:28:46.000Z</Time>
            <Position>
              <LatitudeDegrees>43.1137614883482456207275390625</LatitudeDegrees>
              <LongitudeDegrees>-1.672515906393527984619140625</LongitudeDegrees>
            </Position>
            <AltitudeMeters>190.1999969482421875</AltitudeMeters>
            <DistanceMeters>NAN</DistanceMeters>
          </Trackpoint>
          <Trackpoint>
            <Time>2021-08-10T09:28:47.000Z</Time>
            <Position>
              <LatitudeDegrees>43.113771043717861175537109375</LatitudeDegrees>
              <LongitudeDegrees>-1.67248447425663471221923828125</LongitudeDegrees>
            </Position>
            <AltitudeMeters>190.1999969482421875</AltitudeMeters>
            <DistanceMeters>NAN</DistanceMeters>
          </Trackpoint>
          <Trackpoint>
            <Time>2021-08-10T09:28:48.000Z</Time>
            <Position>
              <LatitudeDegrees>43.11377967707812786102294921875</LatitudeDegrees>
              <LongitudeDegrees>-1.67245212011039257049560546875</LongitudeDegrees>
            </Position>
            <AltitudeMeters>190.399993896484375</AltitudeMeters>
            <DistanceMeters>NAN</DistanceMeters>
          </Trackpoint>
          <Trackpoint>
            <Time>2021-08-10T09:28:49.000Z</Time>
            <Position>
              <LatitudeDegrees>43.113788478076457977294921875</LatitudeDegrees>
              <LongitudeDegrees>-1.67242529802024364471435546875</LongitudeDegrees>
            </Position>
            <AltitudeMeters>190.399993896484375</AltitudeMeters>
            <DistanceMeters>NAN</DistanceMeters>
          </Trackpoint>
          <Trackpoint>
            <Time>2021-08-10T09:28:50.000Z</Time>
            <Position>
              <LatitudeDegrees>43.11380096711218357086181640625</LatitudeDegrees>
              <LongitudeDegrees>-1.6723890043795108795166015625</LongitudeDegrees>
            </Position>
            <AltitudeMeters>190.399993896484375</AltitudeMeters>
            <DistanceMeters>NAN</DistanceMeters>
          </Trackpoint>
          <Trackpoint>
            <Time>2021-08-10T09:28:51.000Z</Time>
            <Position>
              <LatitudeDegrees>43.11381136067211627960205078125</LatitudeDegrees>
              <LongitudeDegrees>-1.67236008681356906890869140625</LongitudeDegrees>
            </Position>
            <AltitudeMeters>190.600006103515625</AltitudeMeters>
            <DistanceMeters>NAN</DistanceMeters>
          </Trackpoint>
          <Trackpoint>
            <Time>2021-08-10T09:28:52.000Z</Time>
            <Position>
              <LatitudeDegrees>43.11382175423204898834228515625</LatitudeDegrees>
              <LongitudeDegrees>-1.6723289899528026580810546875</LongitudeDegrees>
            </Position>
            <AltitudeMeters>190.600006103515625</AltitudeMeters>
            <DistanceMeters>NAN</DistanceMeters>
          </Trackpoint>
          <Trackpoint>
            <Time>2021-08-10T09:28:53.000Z</Time>
            <Position>
              <LatitudeDegrees>43.11382971704006195068359375</LatitudeDegrees>
              <LongitudeDegrees>-1.67229873128235340118408203125</LongitudeDegrees>
            </Position>
            <AltitudeMeters>190.8000030517578125</AltitudeMeters>
            <DistanceMeters>NAN</DistanceMeters>
          </Trackpoint>
          <Trackpoint>
            <Time>2021-08-10T09:28:54.000Z</Time>
            <Position>
              <LatitudeDegrees>43.11383734457194805145263671875</LatitudeDegrees>
              <LongitudeDegrees>-1.6722672991454601287841796875</LongitudeDegrees>
            </Position>
            <AltitudeMeters>191</AltitudeMeters>
            <DistanceMeters>NAN</DistanceMeters>
          </Trackpoint>
          <Trackpoint>
            <Time>2021-08-10T09:28:55.000Z</Time>
            <Position>
              <LatitudeDegrees>43.1138439662754535675048828125</LatitudeDegrees>
              <LongitudeDegrees>-1.672242321074008941650390625</LongitudeDegrees>
            </Position>
            <AltitudeMeters>191</AltitudeMeters>
            <DistanceMeters>NAN</DistanceMeters>
          </Trackpoint>
          <Trackpoint>
            <Time>2021-08-10T09:28:56.000Z</Time>
            <Position>
              <LatitudeDegrees>43.11385117471218109130859375</LatitudeDegrees>
              <LongitudeDegrees>-1.6722042672336101531982421875</LongitudeDegrees>
            </Position>
            <AltitudeMeters>191</AltitudeMeters>
            <DistanceMeters>NAN</DistanceMeters>
          </Trackpoint>
          <Trackpoint>
            <Time>2021-08-10T09:28:57.000Z</Time>
            <Position>
              <LatitudeDegrees>43.11385880224406719207763671875</LatitudeDegrees>
              <LongitudeDegrees>-1.67217048816382884979248046875</LongitudeDegrees>
            </Position>
            <AltitudeMeters>191</AltitudeMeters>
            <DistanceMeters>NAN</DistanceMeters>
          </Trackpoint>
          <Trackpoint>
            <Time>2021-08-10T09:28:58.000Z</Time>
            <Position>
              <LatitudeDegrees>43.1138692796230316162109375</LatitudeDegrees>
              <LongitudeDegrees>-1.67213696055114269256591796875</LongitudeDegrees>
            </Position>
            <AltitudeMeters>191.1999969482421875</AltitudeMeters>
            <DistanceMeters>NAN</DistanceMeters>
          </Trackpoint>
          <Trackpoint>
            <Time>2021-08-10T09:28:59.000Z</Time>
            <Position>
              <LatitudeDegrees>43.11388193629682064056396484375</LatitudeDegrees>
              <LongitudeDegrees>-1.67210175655782222747802734375</LongitudeDegrees>
            </Position>
            <AltitudeMeters>191.1999969482421875</AltitudeMeters>
            <DistanceMeters>NAN</DistanceMeters>
          </Trackpoint>
          <Trackpoint>
            <Time>2021-08-10T09:29:00.000Z</Time>
            <Position>
              <LatitudeDegrees>43.1138907372951507568359375</LatitudeDegrees>
              <LongitudeDegrees>-1.672072000801563262939453125</LongitudeDegrees>
            </Position>
            <AltitudeMeters>191.1999969482421875</AltitudeMeters>
            <DistanceMeters>NAN</DistanceMeters>
          </Trackpoint>
          <Trackpoint>
            <Time>2021-08-10T09:29:01.000Z</Time>
            <Position>
              <LatitudeDegrees>43.1138996221125125885009765625</LatitudeDegrees>
              <LongitudeDegrees>-1.6720289178192615509033203125</LongitudeDegrees>
            </Position>
            <AltitudeMeters>191.399993896484375</AltitudeMeters>
            <DistanceMeters>NAN</DistanceMeters>
          </Trackpoint>
          <Trackpoint>
            <Time>2021-08-10T09:29:02.000Z</Time>
            <Position>
              <LatitudeDegrees>43.11390708200633525848388671875</LatitudeDegrees>
              <LongitudeDegrees>-1.67199321091175079345703125</LongitudeDegrees>
            </Position>
            <AltitudeMeters>191.399993896484375</AltitudeMeters>
            <DistanceMeters>NAN</DistanceMeters>
          </Trackpoint>
          <Trackpoint>
            <Time>2021-08-10T09:29:03.000Z</Time>
            <Position>
              <LatitudeDegrees>43.11391697265207767486572265625</LatitudeDegrees>
              <LongitudeDegrees>-1.67196060530841350555419921875</LongitudeDegrees>
            </Position>
            <AltitudeMeters>191.399993896484375</AltitudeMeters>
            <DistanceMeters>NAN</DistanceMeters>
          </Trackpoint>
          <Trackpoint>
            <Time>2021-08-10T09:29:13.000Z</Time>
            <Position>
              <LatitudeDegrees>43.1139998696744441986083984375</LatitudeDegrees>
              <LongitudeDegrees>-1.6715913824737071990966796875</LongitudeDegrees>
            </Position>
            <AltitudeMeters>191.600006103515625</AltitudeMeters>
            <DistanceMeters>NAN</DistanceMeters>
          </Trackpoint>
          <Trackpoint>
            <Time>2021-08-10T09:29:22.000Z</Time>
            <Position>
              <LatitudeDegrees>43.11411059461534023284912109375</LatitudeDegrees>
              <LongitudeDegrees>-1.6712272725999355316162109375</LongitudeDegrees>
            </Position>
            <AltitudeMeters>191.8000030517578125</AltitudeMeters>
            <DistanceMeters>NAN</DistanceMeters>
          </Trackpoint>
          <Trackpoint>
            <Time>2021-08-10T09:29:28.000Z</Time>
            <Position>
              <LatitudeDegrees>43.1141886301338672637939453125</LatitudeDegrees>
              <LongitudeDegrees>-1.67101881466805934906005859375</LongitudeDegrees>
            </Position>
            <AltitudeMeters>192</AltitudeMeters>
            <DistanceMeters>NAN</DistanceMeters>
          </Trackpoint>
          <Trackpoint>
            <Time>2021-08-10T09:29:29.000Z</Time>
            <Position>
              <LatitudeDegrees>43.11420128680765628814697265625</LatitudeDegrees>
              <LongitudeDegrees>-1.670980341732501983642578125</LongitudeDegrees>
            </Position>
            <AltitudeMeters>192</AltitudeMeters>
            <DistanceMeters>NAN</DistanceMeters>
          </Trackpoint>
          <Trackpoint>
            <Time>2021-08-10T09:29:30.000Z</Time>
            <Position>
              <LatitudeDegrees>43.114218302071094512939453125</LatitudeDegrees>
              <LongitudeDegrees>-1.670934073626995086669921875</LongitudeDegrees>
            </Position>
            <AltitudeMeters>192</AltitudeMeters>
            <DistanceMeters>NAN</DistanceMeters>
          </Trackpoint>
          <Trackpoint>
            <Time>2021-08-10T09:29:31.000Z</Time>
            <Position>
              <LatitudeDegrees>43.11423380859196186065673828125</LatitudeDegrees>
              <LongitudeDegrees>-1.67089710943400859832763671875</LongitudeDegrees>
            </Position>
            <AltitudeMeters>192</AltitudeMeters>
            <DistanceMeters>NAN</DistanceMeters>
          </Trackpoint>
          <Trackpoint>
            <Time>2021-08-10T09:29:32.000Z</Time>
            <Position>
              <LatitudeDegrees>43.11425157822668552398681640625</LatitudeDegrees>
              <LongitudeDegrees>-1.670859642326831817626953125</LongitudeDegrees>
            </Position>
            <AltitudeMeters>192.1999969482421875</AltitudeMeters>
            <DistanceMeters>NAN</DistanceMeters>
          </Trackpoint>
          <Trackpoint>
            <Time>2021-08-10T09:29:39.000Z</Time>
            <Position>
              <LatitudeDegrees>43.11438300646841526031494140625</LatitudeDegrees>
              <LongitudeDegrees>-1.67060650885105133056640625</LongitudeDegrees>
            </Position>
            <AltitudeMeters>192.399993896484375</AltitudeMeters>
            <DistanceMeters>NAN</DistanceMeters>
          </Trackpoint>
          <Trackpoint>
            <Time>2021-08-10T09:29:42.000Z</Time>
            <Position>
              <LatitudeDegrees>43.1144333817064762115478515625</LatitudeDegrees>
              <LongitudeDegrees>-1.67050064541399478912353515625</LongitudeDegrees>
            </Position>
            <AltitudeMeters>192.399993896484375</AltitudeMeters>
            <DistanceMeters>NAN</DistanceMeters>
          </Trackpoint>
          <Trackpoint>
            <Time>2021-08-10T09:29:43.000Z</Time>
            <Position>
              <LatitudeDegrees>43.1144518218934535980224609375</LatitudeDegrees>
              <LongitudeDegrees>-1.67046611197292804718017578125</LongitudeDegrees>
            </Position>
            <AltitudeMeters>192.399993896484375</AltitudeMeters>
            <DistanceMeters>NAN</DistanceMeters>
          </Trackpoint>
          <Trackpoint>
            <Time>2021-08-10T09:29:46.000Z</Time>
            <Position>
              <LatitudeDegrees>43.11450605280697345733642578125</LatitudeDegrees>
              <LongitudeDegrees>-1.67035966180264949798583984375</LongitudeDegrees>
            </Position>
            <AltitudeMeters>192.600006103515625</AltitudeMeters>
            <DistanceMeters>NAN</DistanceMeters>
          </Trackpoint>
          <Trackpoint>
            <Time>2021-08-10T09:29:47.000Z</Time>
            <Position>
              <LatitudeDegrees>43.114522062242031097412109375</LatitudeDegrees>
              <LongitudeDegrees>-1.67032487690448760986328125</LongitudeDegrees>
            </Position>
            <AltitudeMeters>192.600006103515625</AltitudeMeters>
            <DistanceMeters>NAN</DistanceMeters>
          </Trackpoint>
          <Trackpoint>
            <Time>2021-08-10T09:29:48.000Z</Time>
            <Position>
              <LatitudeDegrees>43.11453916132450103759765625</LatitudeDegrees>
              <LongitudeDegrees>-1.67029537260532379150390625</LongitudeDegrees>
            </Position>
            <AltitudeMeters>192.600006103515625</AltitudeMeters>
            <DistanceMeters>NAN</DistanceMeters>
          </Trackpoint>
          <Trackpoint>
            <Time>2021-08-10T09:29:49.000Z</Time>
            <Position>
              <LatitudeDegrees>43.1145544163882732391357421875</LatitudeDegrees>
              <LongitudeDegrees>-1.67026595212519168853759765625</LongitudeDegrees>
            </Position>
            <AltitudeMeters>192.8000030517578125</AltitudeMeters>
            <DistanceMeters>NAN</DistanceMeters>
          </Trackpoint>
          <Trackpoint>
            <Time>2021-08-10T09:29:50.000Z</Time>
            <Position>
              <LatitudeDegrees>43.11456858180463314056396484375</LatitudeDegrees>
              <LongitudeDegrees>-1.6702365316450595855712890625</LongitudeDegrees>
            </Position>
            <AltitudeMeters>192.8000030517578125</AltitudeMeters>
            <DistanceMeters>NAN</DistanceMeters>
          </Trackpoint>
          <Trackpoint>
            <Time>2021-08-10T09:29:51.000Z</Time>
            <Position>
              <LatitudeDegrees>43.1145849265158176422119140625</LatitudeDegrees>
              <LongitudeDegrees>-1.67020694352686405181884765625</LongitudeDegrees>
            </Position>
            <AltitudeMeters>193</AltitudeMeters>
            <DistanceMeters>NAN</DistanceMeters>
          </Trackpoint>
          <Trackpoint>
            <Time>2021-08-10T09:29:52.000Z</Time>
            <Position>
              <LatitudeDegrees>43.11460076831281185150146484375</LatitudeDegrees>
              <LongitudeDegrees>-1.670177020132541656494140625</LongitudeDegrees>
            </Position>
            <AltitudeMeters>193.1999969482421875</AltitudeMeters>
            <DistanceMeters>NAN</DistanceMeters>
          </Trackpoint>
          <Trackpoint>
            <Time>2021-08-10T09:29:53.000Z</Time>
            <Position>
              <LatitudeDegrees>43.114613592624664306640625</LatitudeDegrees>
              <LongitudeDegrees>-1.6701446659862995147705078125</LongitudeDegrees>
            </Position>
            <AltitudeMeters>193.1999969482421875</AltitudeMeters>
            <DistanceMeters>NAN</DistanceMeters>
          </Trackpoint>
          <Trackpoint>
            <Time>2021-08-10T09:29:54.000Z</Time>
            <Position>
              <LatitudeDegrees>43.1146258302032947540283203125</LatitudeDegrees>
              <LongitudeDegrees>-1.6701195202767848968505859375</LongitudeDegrees>
            </Position>
            <AltitudeMeters>194</AltitudeMeters>
            <DistanceMeters>NAN</DistanceMeters>
          </Trackpoint>
          <Trackpoint>
            <Time>2021-08-10T09:29:55.000Z</Time>
            <Position>
              <LatitudeDegrees>43.114640749990940093994140625</LatitudeDegrees>
              <LongitudeDegrees>-1.67008808813989162445068359375</LongitudeDegrees>
            </Position>
            <AltitudeMeters>194.1999969482421875</AltitudeMeters>
            <DistanceMeters>NAN</DistanceMeters>
          </Trackpoint>
          <Trackpoint>
            <Time>2021-08-10T09:29:56.000Z</Time>
            <Position>
              <LatitudeDegrees>43.11465919017791748046875</LatitudeDegrees>
              <LongitudeDegrees>-1.67005053721368312835693359375</LongitudeDegrees>
            </Position>
            <AltitudeMeters>194.399993896484375</AltitudeMeters>
            <DistanceMeters>NAN</DistanceMeters>
          </Trackpoint>
          <Trackpoint>
            <Time>2021-08-10T09:29:57.000Z</Time>
            <Position>
              <LatitudeDegrees>43.11467352323234081268310546875</LatitudeDegrees>
              <LongitudeDegrees>-1.67001935653388500213623046875</LongitudeDegrees>
            </Position>
            <AltitudeMeters>194.600006103515625</AltitudeMeters>
            <DistanceMeters>NAN</DistanceMeters>
          </Trackpoint>
          <Trackpoint>
            <Time>2021-08-10T09:29:58.000Z</Time>
            <Position>
              <LatitudeDegrees>43.11468710191547870635986328125</LatitudeDegrees>
              <LongitudeDegrees>-1.66998884640634059906005859375</LongitudeDegrees>
            </Position>
            <AltitudeMeters>194.600006103515625</AltitudeMeters>
            <DistanceMeters>NAN</DistanceMeters>
          </Trackpoint>
          <Trackpoint>
            <Time>2021-08-10T09:30:01.000Z</Time>
            <Position>
              <LatitudeDegrees>43.114729933440685272216796875</LatitudeDegrees>
              <LongitudeDegrees>-1.66990268044173717498779296875</LongitudeDegrees>
            </Position>
            <AltitudeMeters>194.8000030517578125</AltitudeMeters>
            <DistanceMeters>NAN</DistanceMeters>
          </Trackpoint>
          <Trackpoint>
            <Time>2021-08-10T09:30:03.000Z</Time>
            <Position>
              <LatitudeDegrees>43.11475717462599277496337890625</LatitudeDegrees>
              <LongitudeDegrees>-1.6698449291288852691650390625</LongitudeDegrees>
            </Position>
            <AltitudeMeters>194.8000030517578125</AltitudeMeters>
            <DistanceMeters>NAN</DistanceMeters>
          </Trackpoint>
          <Trackpoint>
            <Time>2021-08-10T09:30:04.000Z</Time>
            <Position>
              <LatitudeDegrees>43.11477611772716045379638671875</LatitudeDegrees>
              <LongitudeDegrees>-1.66980762965977191925048828125</LongitudeDegrees>
            </Position>
            <AltitudeMeters>195</AltitudeMeters>
            <DistanceMeters>NAN</DistanceMeters>
          </Trackpoint>
          <Trackpoint>
            <Time>2021-08-10T09:30:05.000Z</Time>
            <Position>
              <LatitudeDegrees>43.1147894449532032012939453125</LatitudeDegrees>
              <LongitudeDegrees>-1.66978416033089160919189453125</LongitudeDegrees>
            </Position>
            <AltitudeMeters>195.1999969482421875</AltitudeMeters>
            <DistanceMeters>NAN</DistanceMeters>
          </Trackpoint>
          <Trackpoint>
            <Time>2021-08-10T09:30:06.000Z</Time>
            <Position>
              <LatitudeDegrees>43.1148055382072925567626953125</LatitudeDegrees>
              <LongitudeDegrees>-1.66974677704274654388427734375</LongitudeDegrees>
            </Position>
            <AltitudeMeters>195.399993896484375</AltitudeMeters>
            <DistanceMeters>NAN</DistanceMeters>
          </Trackpoint>
          <Trackpoint>
            <Time>2021-08-10T09:30:07.000Z</Time>
            <Position>
              <LatitudeDegrees>43.11481953598558902740478515625</LatitudeDegrees>
              <LongitudeDegrees>-1.66971777565777301788330078125</LongitudeDegrees>
            </Position>
            <AltitudeMeters>196</AltitudeMeters>
            <DistanceMeters>NAN</DistanceMeters>
          </Trackpoint>
          <Trackpoint>
            <Time>2021-08-10T09:30:08.000Z</Time>
            <Position>
              <LatitudeDegrees>43.11483085155487060546875</LatitudeDegrees>
              <LongitudeDegrees>-1.66969648562371730804443359375</LongitudeDegrees>
            </Position>
            <AltitudeMeters>196.600006103515625</AltitudeMeters>
            <DistanceMeters>NAN</DistanceMeters>
          </Trackpoint>
          <Trackpoint>
            <Time>2021-08-10T09:30:09.000Z</Time>
            <Position>
              <LatitudeDegrees>43.11483085155487060546875</LatitudeDegrees>
              <LongitudeDegrees>-1.66969648562371730804443359375</LongitudeDegrees>
            </Position>
            <AltitudeMeters>196.8000030517578125</AltitudeMeters>
            <DistanceMeters>NAN</DistanceMeters>
          </Trackpoint>
          <Trackpoint>
            <Time>2021-08-10T09:30:10.000Z</Time>
            <Position>
              <LatitudeDegrees>43.1148558296263217926025390625</LatitudeDegrees>
              <LongitudeDegrees>-1.669645942747592926025390625</LongitudeDegrees>
            </Position>
            <AltitudeMeters>197</AltitudeMeters>
            <DistanceMeters>NAN</DistanceMeters>
          </Trackpoint>
          <Trackpoint>
            <Time>2021-08-10T09:30:11.000Z</Time>
            <Position>
              <LatitudeDegrees>43.11486882157623767852783203125</LatitudeDegrees>
              <LongitudeDegrees>-1.669619791209697723388671875</LongitudeDegrees>
            </Position>
            <AltitudeMeters>197</AltitudeMeters>
            <DistanceMeters>NAN</DistanceMeters>
          </Trackpoint>
          <Trackpoint>
            <Time>2021-08-10T09:30:12.000Z</Time>
            <Position>
              <LatitudeDegrees>43.114882148802280426025390625</LatitudeDegrees>
              <LongitudeDegrees>-1.6695928014814853668212890625</LongitudeDegrees>
            </Position>
            <AltitudeMeters>197.1999969482421875</AltitudeMeters>
            <DistanceMeters>NAN</DistanceMeters>
          </Trackpoint>
          <Trackpoint>
            <Time>2021-08-10T09:30:13.000Z</Time>
            <Position>
              <LatitudeDegrees>43.1148957274854183197021484375</LatitudeDegrees>
              <LongitudeDegrees>-1.66956539265811443328857421875</LongitudeDegrees>
            </Position>
            <AltitudeMeters>197.1999969482421875</AltitudeMeters>
            <DistanceMeters>NAN</DistanceMeters>
          </Trackpoint>
          <Trackpoint>
            <Time>2021-08-10T09:30:14.000Z</Time>
            <Position>
              <LatitudeDegrees>43.11490385793149471282958984375</LatitudeDegrees>
              <LongitudeDegrees>-1.66953521780669689178466796875</LongitudeDegrees>
            </Position>
            <AltitudeMeters>197.1999969482421875</AltitudeMeters>
            <DistanceMeters>NAN</DistanceMeters>
          </Trackpoint>
          <Trackpoint>
            <Time>2021-08-10T09:30:15.000Z</Time>
            <Position>
              <LatitudeDegrees>43.1149158440530300140380859375</LatitudeDegrees>
              <LongitudeDegrees>-1.669507138431072235107421875</LongitudeDegrees>
            </Position>
            <AltitudeMeters>197.399993896484375</AltitudeMeters>
            <DistanceMeters>NAN</DistanceMeters>
          </Trackpoint>
          <Trackpoint>
            <Time>2021-08-10T09:30:16.000Z</Time>
            <Position>
              <LatitudeDegrees>43.1149326078593730926513671875</LatitudeDegrees>
              <LongitudeDegrees>-1.66947662830352783203125</LongitudeDegrees>
            </Position>
            <AltitudeMeters>197.600006103515625</AltitudeMeters>
            <DistanceMeters>NAN</DistanceMeters>
          </Trackpoint>
          <Trackpoint>
            <Time>2021-08-10T09:30:17.000Z</Time>
            <Position>
              <LatitudeDegrees>43.11494350433349609375</LatitudeDegrees>
              <LongitudeDegrees>-1.6694576852023601531982421875</LongitudeDegrees>
            </Position>
            <AltitudeMeters>197.8000030517578125</AltitudeMeters>
            <DistanceMeters>NAN</DistanceMeters>
          </Trackpoint>
          <Trackpoint>
            <Time>2021-08-10T09:30:18.000Z</Time>
            <Position>
              <LatitudeDegrees>43.11495666392147541046142578125</LatitudeDegrees>
              <LongitudeDegrees>-1.66943212039768695831298828125</LongitudeDegrees>
            </Position>
            <AltitudeMeters>198</AltitudeMeters>
            <DistanceMeters>NAN</DistanceMeters>
          </Trackpoint>
          <Trackpoint>
            <Time>2021-08-10T09:30:19.000Z</Time>
            <Position>
              <LatitudeDegrees>43.11497041024267673492431640625</LatitudeDegrees>
              <LongitudeDegrees>-1.66940596885979175567626953125</LongitudeDegrees>
            </Position>
            <AltitudeMeters>198</AltitudeMeters>
            <DistanceMeters>NAN</DistanceMeters>
          </Trackpoint>
          <Trackpoint>
            <Time>2021-08-10T09:30:20.000Z</Time>
            <Position>
              <LatitudeDegrees>43.1149842403829097747802734375</LatitudeDegrees>
              <LongitudeDegrees>-1.669381745159626007080078125</LongitudeDegrees>
            </Position>
            <AltitudeMeters>198.1999969482421875</AltitudeMeters>
            <DistanceMeters>NAN</DistanceMeters>
          </Trackpoint>
          <Trackpoint>
            <Time>2021-08-10T09:30:21.000Z</Time>
            <Position>
              <LatitudeDegrees>43.11499941162765026092529296875</LatitudeDegrees>
              <LongitudeDegrees>-1.669358275830745697021484375</LongitudeDegrees>
            </Position>
            <AltitudeMeters>198.1999969482421875</AltitudeMeters>
            <DistanceMeters>NAN</DistanceMeters>
          </Trackpoint>
          <Trackpoint>
            <Time>2021-08-10T09:30:22.000Z</Time>
            <Position>
              <LatitudeDegrees>43.115012235939502716064453125</LatitudeDegrees>
              <LongitudeDegrees>-1.66933220811188220977783203125</LongitudeDegrees>
            </Position>
            <AltitudeMeters>198.399993896484375</AltitudeMeters>
            <DistanceMeters>NAN</DistanceMeters>
          </Trackpoint>
          <Trackpoint>
            <Time>2021-08-10T09:30:23.000Z</Time>
            <Position>
              <LatitudeDegrees>43.11502288095653057098388671875</LatitudeDegrees>
              <LongitudeDegrees>-1.66930320672690868377685546875</LongitudeDegrees>
            </Position>
            <AltitudeMeters>198.399993896484375</AltitudeMeters>
            <DistanceMeters>NAN</DistanceMeters>
          </Trackpoint>
          <Trackpoint>
            <Time>2021-08-10T09:30:24.000Z</Time>
            <Position>
              <LatitudeDegrees>43.11503360979259014129638671875</LatitudeDegrees>
              <LongitudeDegrees>-1.66927336715161800384521484375</LongitudeDegrees>
            </Position>
            <AltitudeMeters>198.600006103515625</AltitudeMeters>
            <DistanceMeters>NAN</DistanceMeters>
          </Trackpoint>
          <Trackpoint>
            <Time>2021-08-10T09:30:25.000Z</Time>
            <Position>
              <LatitudeDegrees>43.11504500918090343475341796875</LatitudeDegrees>
              <LongitudeDegrees>-1.66924436576664447784423828125</LongitudeDegrees>
            </Position>
            <AltitudeMeters>198.8000030517578125</AltitudeMeters>
            <DistanceMeters>NAN</DistanceMeters>
          </Trackpoint>
          <Trackpoint>
            <Time>2021-08-10T09:30:26.000Z</Time>
            <Position>
              <LatitudeDegrees>43.115059174597263336181640625</LatitudeDegrees>
              <LongitudeDegrees>-1.66921737603843212127685546875</LongitudeDegrees>
            </Position>
            <AltitudeMeters>199</AltitudeMeters>
            <DistanceMeters>NAN</DistanceMeters>
          </Trackpoint>
          <Trackpoint>
            <Time>2021-08-10T09:30:27.000Z</Time>
            <Position>
              <LatitudeDegrees>43.1150737591087818145751953125</LatitudeDegrees>
              <LongitudeDegrees>-1.66919273324310779571533203125</LongitudeDegrees>
            </Position>
            <AltitudeMeters>199</AltitudeMeters>
            <DistanceMeters>NAN</DistanceMeters>
          </Trackpoint>
          <Trackpoint>
            <Time>2021-08-10T09:30:28.000Z</Time>
            <Position>
              <LatitudeDegrees>43.11509110964834690093994140625</LatitudeDegrees>
              <LongitudeDegrees>-1.669163815677165985107421875</LongitudeDegrees>
            </Position>
            <AltitudeMeters>199</AltitudeMeters>
            <DistanceMeters>NAN</DistanceMeters>
          </Trackpoint>
          <Trackpoint>
            <Time>2021-08-10T09:30:29.000Z</Time>
            <Position>
              <LatitudeDegrees>43.1151030957698822021484375</LatitudeDegrees>
              <LongitudeDegrees>-1.66914478875696659088134765625</LongitudeDegrees>
            </Position>
            <AltitudeMeters>199.399993896484375</AltitudeMeters>
            <DistanceMeters>NAN</DistanceMeters>
          </Trackpoint>
          <Trackpoint>
            <Time>2021-08-10T09:30:30.000Z</Time>
            <Position>
              <LatitudeDegrees>43.115115500986576080322265625</LatitudeDegrees>
              <LongitudeDegrees>-1.669119559228420257568359375</LongitudeDegrees>
            </Position>
            <AltitudeMeters>199.399993896484375</AltitudeMeters>
            <DistanceMeters>NAN</DistanceMeters>
          </Trackpoint>
          <Trackpoint>
            <Time>2021-08-10T09:30:31.000Z</Time>
            <Position>
              <LatitudeDegrees>43.11512832529842853546142578125</LatitudeDegrees>
              <LongitudeDegrees>-1.6690944135189056396484375</LongitudeDegrees>
            </Position>
            <AltitudeMeters>199.600006103515625</AltitudeMeters>
            <DistanceMeters>NAN</DistanceMeters>
          </Trackpoint>
          <Trackpoint>
            <Time>2021-08-10T09:30:32.000Z</Time>
            <Position>
              <LatitudeDegrees>43.11514374800026416778564453125</LatitudeDegrees>
              <LongitudeDegrees>-1.66906289756298065185546875</LongitudeDegrees>
            </Position>
            <AltitudeMeters>199.600006103515625</AltitudeMeters>
            <DistanceMeters>NAN</DistanceMeters>
          </Trackpoint>
          <Trackpoint>
            <Time>2021-08-10T09:30:33.000Z</Time>
            <Position>
              <LatitudeDegrees>43.11515615321695804595947265625</LatitudeDegrees>
              <LongitudeDegrees>-1.66904336772859096527099609375</LongitudeDegrees>
            </Position>
            <AltitudeMeters>199.8000030517578125</AltitudeMeters>
            <DistanceMeters>NAN</DistanceMeters>
          </Trackpoint>
          <Trackpoint>
            <Time>2021-08-10T09:30:34.000Z</Time>
            <Position>
              <LatitudeDegrees>43.11516872607171535491943359375</LatitudeDegrees>
              <LongitudeDegrees>-1.669018305838108062744140625</LongitudeDegrees>
            </Position>
            <AltitudeMeters>200</AltitudeMeters>
            <DistanceMeters>NAN</DistanceMeters>
          </Trackpoint>
          <Trackpoint>
            <Time>2021-08-10T09:30:35.000Z</Time>
            <Position>
              <LatitudeDegrees>43.11518012546002864837646484375</LatitudeDegrees>
              <LongitudeDegrees>-1.6689909808337688446044921875</LongitudeDegrees>
            </Position>
            <AltitudeMeters>200.1999969482421875</AltitudeMeters>
            <DistanceMeters>NAN</DistanceMeters>
          </Trackpoint>
          <Trackpoint>
            <Time>2021-08-10T09:30:36.000Z</Time>
            <Position>
              <LatitudeDegrees>43.11519068665802478790283203125</LatitudeDegrees>
              <LongitudeDegrees>-1.66896457783877849578857421875</LongitudeDegrees>
            </Position>
            <AltitudeMeters>200.399993896484375</AltitudeMeters>
            <DistanceMeters>NAN</DistanceMeters>
          </Trackpoint>
          <Trackpoint>
            <Time>2021-08-10T09:30:37.000Z</Time>
            <Position>
              <LatitudeDegrees>43.1152045167982578277587890625</LatitudeDegrees>
              <LongitudeDegrees>-1.66893683373928070068359375</LongitudeDegrees>
            </Position>
            <AltitudeMeters>200.399993896484375</AltitudeMeters>
            <DistanceMeters>NAN</DistanceMeters>
          </Trackpoint>
          <Trackpoint>
            <Time>2021-08-10T09:30:38.000Z</Time>
            <Position>
              <LatitudeDegrees>43.1152152456343173980712890625</LatitudeDegrees>
              <LongitudeDegrees>-1.66891462169587612152099609375</LongitudeDegrees>
            </Position>
            <AltitudeMeters>200.600006103515625</AltitudeMeters>
            <DistanceMeters>NAN</DistanceMeters>
          </Trackpoint>
          <Trackpoint>
            <Time>2021-08-10T09:30:39.000Z</Time>
            <Position>
              <LatitudeDegrees>43.11522320844233036041259765625</LatitudeDegrees>
              <LongitudeDegrees>-1.6688986122608184814453125</LongitudeDegrees>
            </Position>
            <AltitudeMeters>200.600006103515625</AltitudeMeters>
            <DistanceMeters>NAN</DistanceMeters>
          </Trackpoint>
          <Trackpoint>
            <Time>2021-08-10T09:30:40.000Z</Time>
            <Position>
              <LatitudeDegrees>43.11523393727838993072509765625</LatitudeDegrees>
              <LongitudeDegrees>-1.66887623257935047149658203125</LongitudeDegrees>
            </Position>
            <AltitudeMeters>200.8000030517578125</AltitudeMeters>
            <DistanceMeters>NAN</DistanceMeters>
          </Trackpoint>
          <Trackpoint>
            <Time>2021-08-10T09:30:41.000Z</Time>
            <Position>
              <LatitudeDegrees>43.115243576467037200927734375</LatitudeDegrees>
              <LongitudeDegrees>-1.66886047460138797760009765625</LongitudeDegrees>
            </Position>
            <AltitudeMeters>201.1999969482421875</AltitudeMeters>
            <DistanceMeters>NAN</DistanceMeters>
          </Trackpoint>
          <Trackpoint>
            <Time>2021-08-10T09:30:42.000Z</Time>
            <Position>
              <LatitudeDegrees>43.11525220982730388641357421875</LatitudeDegrees>
              <LongitudeDegrees>-1.66883398778736591339111328125</LongitudeDegrees>
            </Position>
            <AltitudeMeters>201.1999969482421875</AltitudeMeters>
            <DistanceMeters>NAN</DistanceMeters>
          </Trackpoint>
          <Trackpoint>
            <Time>2021-08-10T09:30:43.000Z</Time>
            <Position>
              <LatitudeDegrees>43.11526159755885601043701171875</LatitudeDegrees>
              <LongitudeDegrees>-1.66880481876432895660400390625</LongitudeDegrees>
            </Position>
            <AltitudeMeters>201.399993896484375</AltitudeMeters>
            <DistanceMeters>NAN</DistanceMeters>
          </Trackpoint>
          <Trackpoint>
            <Time>2021-08-10T09:30:44.000Z</Time>
            <Position>
              <LatitudeDegrees>43.115273080766201019287109375</LatitudeDegrees>
              <LongitudeDegrees>-1.66877598501741886138916015625</LongitudeDegrees>
            </Position>
            <AltitudeMeters>201.399993896484375</AltitudeMeters>
            <DistanceMeters>NAN</DistanceMeters>
          </Trackpoint>
          <Trackpoint>
            <Time>2021-08-10T09:30:45.000Z</Time>
            <Position>
              <LatitudeDegrees>43.115282468497753143310546875</LatitudeDegrees>
              <LongitudeDegrees>-1.66874505579471588134765625</LongitudeDegrees>
            </Position>
            <AltitudeMeters>201.399993896484375</AltitudeMeters>
            <DistanceMeters>NAN</DistanceMeters>
          </Trackpoint>
          <Trackpoint>
            <Time>2021-08-10T09:30:46.000Z</Time>
            <Position>
              <LatitudeDegrees>43.1152926944196224212646484375</LatitudeDegrees>
              <LongitudeDegrees>-1.66871630586683750152587890625</LongitudeDegrees>
            </Position>
            <AltitudeMeters>201.399993896484375</AltitudeMeters>
            <DistanceMeters>NAN</DistanceMeters>
          </Trackpoint>
          <Trackpoint>
            <Time>2021-08-10T09:30:47.000Z</Time>
            <Position>
              <LatitudeDegrees>43.11530250124633312225341796875</LatitudeDegrees>
              <LongitudeDegrees>-1.66868763975799083709716796875</LongitudeDegrees>
            </Position>
            <AltitudeMeters>201.600006103515625</AltitudeMeters>
            <DistanceMeters>NAN</DistanceMeters>
          </Trackpoint>
          <Trackpoint>
            <Time>2021-08-10T09:30:48.000Z</Time>
            <Position>
              <LatitudeDegrees>43.1153118051588535308837890625</LatitudeDegrees>
              <LongitudeDegrees>-1.66866215877234935760498046875</LongitudeDegrees>
            </Position>
            <AltitudeMeters>201.600006103515625</AltitudeMeters>
            <DistanceMeters>NAN</DistanceMeters>
          </Trackpoint>
          <Trackpoint>
            <Time>2021-08-10T09:30:49.000Z</Time>
            <Position>
              <LatitudeDegrees>43.11532228253781795501708984375</LatitudeDegrees>
              <LongitudeDegrees>-1.66864120401442050933837890625</LongitudeDegrees>
            </Position>
            <AltitudeMeters>201.600006103515625</AltitudeMeters>
            <DistanceMeters>NAN</DistanceMeters>
          </Trackpoint>
          <Trackpoint>
            <Time>2021-08-10T09:30:50.000Z</Time>
            <Position>
              <LatitudeDegrees>43.11532781459391117095947265625</LatitudeDegrees>
              <LongitudeDegrees>-1.6686161421239376068115234375</LongitudeDegrees>
            </Position>
            <AltitudeMeters>201.8000030517578125</AltitudeMeters>
            <DistanceMeters>NAN</DistanceMeters>
          </Trackpoint>
          <Trackpoint>
            <Time>2021-08-10T09:30:51.000Z</Time>
            <Position>
              <LatitudeDegrees>43.11533267609775066375732421875</LatitudeDegrees>
              <LongitudeDegrees>-1.6685886494815349578857421875</LongitudeDegrees>
            </Position>
            <AltitudeMeters>201.8000030517578125</AltitudeMeters>
            <DistanceMeters>NAN</DistanceMeters>
          </Trackpoint>
          <Trackpoint>
            <Time>2021-08-10T09:30:52.000Z</Time>
            <Position>
              <LatitudeDegrees>43.115337453782558441162109375</LatitudeDegrees>
              <LongitudeDegrees>-1.6685614921152591705322265625</LongitudeDegrees>
            </Position>
            <AltitudeMeters>201.8000030517578125</AltitudeMeters>
            <DistanceMeters>NAN</DistanceMeters>
          </Trackpoint>
          <Trackpoint>
            <Time>2021-08-10T09:30:53.000Z</Time>
            <Position>
              <LatitudeDegrees>43.1153418123722076416015625</LatitudeDegrees>
              <LongitudeDegrees>-1.66853575967252254486083984375</LongitudeDegrees>
            </Position>
            <AltitudeMeters>202</AltitudeMeters>
            <DistanceMeters>NAN</DistanceMeters>
          </Trackpoint>
          <Trackpoint>
            <Time>2021-08-10T09:30:54.000Z</Time>
            <Position>
              <LatitudeDegrees>43.11534390784800052642822265625</LatitudeDegrees>
              <LongitudeDegrees>-1.66851170361042022705078125</LongitudeDegrees>
            </Position>
            <AltitudeMeters>202</AltitudeMeters>
            <DistanceMeters>NAN</DistanceMeters>
          </Trackpoint>
          <Trackpoint>
            <Time>2021-08-10T09:30:55.000Z</Time>
            <Position>
              <LatitudeDegrees>43.11534893698990345001220703125</LatitudeDegrees>
              <LongitudeDegrees>-1.66849032975733280181884765625</LongitudeDegrees>
            </Position>
            <AltitudeMeters>202</AltitudeMeters>
            <DistanceMeters>NAN</DistanceMeters>
          </Trackpoint>
          <Trackpoint>
            <Time>2021-08-10T09:30:56.000Z</Time>
            <Position>
              <LatitudeDegrees>43.11535363085567951202392578125</LatitudeDegrees>
              <LongitudeDegrees>-1.66846987791359424591064453125</LongitudeDegrees>
            </Position>
            <AltitudeMeters>202</AltitudeMeters>
            <DistanceMeters>NAN</DistanceMeters>
          </Trackpoint>
          <Trackpoint>
            <Time>2021-08-10T09:30:57.000Z</Time>
            <Position>
              <LatitudeDegrees>43.11535731889307498931884765625</LatitudeDegrees>
              <LongitudeDegrees>-1.66844598948955535888671875</LongitudeDegrees>
            </Position>
            <AltitudeMeters>202.1999969482421875</AltitudeMeters>
            <DistanceMeters>NAN</DistanceMeters>
          </Trackpoint>
          <Trackpoint>
            <Time>2021-08-10T09:30:58.000Z</Time>
            <Position>
              <LatitudeDegrees>43.1153594143688678741455078125</LatitudeDegrees>
              <LongitudeDegrees>-1.6684193350374698638916015625</LongitudeDegrees>
            </Position>
            <AltitudeMeters>202.1999969482421875</AltitudeMeters>
            <DistanceMeters>NAN</DistanceMeters>
          </Trackpoint>
          <Trackpoint>
            <Time>2021-08-10T09:30:59.000Z</Time>
            <Position>
              <LatitudeDegrees>43.1153617613017559051513671875</LatitudeDegrees>
              <LongitudeDegrees>-1.66838957928121089935302734375</LongitudeDegrees>
            </Position>
            <AltitudeMeters>202.1999969482421875</AltitudeMeters>
            <DistanceMeters>NAN</DistanceMeters>
          </Trackpoint>
          <Trackpoint>
            <Time>2021-08-10T09:31:00.000Z</Time>
            <Position>
              <LatitudeDegrees>43.1153659522533416748046875</LatitudeDegrees>
              <LongitudeDegrees>-1.66837356984615325927734375</LongitudeDegrees>
            </Position>
            <AltitudeMeters>202.1999969482421875</AltitudeMeters>
            <DistanceMeters>NAN</DistanceMeters>
          </Trackpoint>
          <Trackpoint>
            <Time>2021-08-10T09:31:01.000Z</Time>
            <Position>
              <LatitudeDegrees>43.11536955647170543670654296875</LatitudeDegrees>
              <LongitudeDegrees>-1.66835219599306583404541015625</LongitudeDegrees>
            </Position>
            <AltitudeMeters>202.1999969482421875</AltitudeMeters>
            <DistanceMeters>NAN</DistanceMeters>
          </Trackpoint>
          <Trackpoint>
            <Time>2021-08-10T09:31:02.000Z</Time>
            <Position>
              <LatitudeDegrees>43.1153711490333080291748046875</LatitudeDegrees>
              <LongitudeDegrees>-1.6683291457593441009521484375</LongitudeDegrees>
            </Position>
            <AltitudeMeters>202.1999969482421875</AltitudeMeters>
            <DistanceMeters>NAN</DistanceMeters>
          </Trackpoint>
          <Trackpoint>
            <Time>2021-08-10T09:31:03.000Z</Time>
            <Position>
              <LatitudeDegrees>43.115373663604259490966796875</LatitudeDegrees>
              <LongitudeDegrees>-1.66830718517303466796875</LongitudeDegrees>
            </Position>
            <AltitudeMeters>202.1999969482421875</AltitudeMeters>
            <DistanceMeters>NAN</DistanceMeters>
          </Trackpoint>
          <Trackpoint>
            <Time>2021-08-10T09:31:04.000Z</Time>
            <Position>
              <LatitudeDegrees>43.11537760309875011444091796875</LatitudeDegrees>
              <LongitudeDegrees>-1.66827960871160030364990234375</LongitudeDegrees>
            </Position>
            <AltitudeMeters>202.1999969482421875</AltitudeMeters>
            <DistanceMeters>NAN</DistanceMeters>
          </Trackpoint>
          <Trackpoint>
            <Time>2021-08-10T09:31:05.000Z</Time>
            <Position>
              <LatitudeDegrees>43.11537995003163814544677734375</LatitudeDegrees>
              <LongitudeDegrees>-1.6682573966681957244873046875</LongitudeDegrees>
            </Position>
            <AltitudeMeters>202.1999969482421875</AltitudeMeters>
            <DistanceMeters>NAN</DistanceMeters>
          </Trackpoint>
          <Trackpoint>
            <Time>2021-08-10T09:31:14.000Z</Time>
            <Position>
              <LatitudeDegrees>43.11540425755083560943603515625</LatitudeDegrees>
              <LongitudeDegrees>-1.668043993413448333740234375</LongitudeDegrees>
            </Position>
            <AltitudeMeters>202.399993896484375</AltitudeMeters>
            <DistanceMeters>NAN</DistanceMeters>
          </Trackpoint>
          <Trackpoint>
            <Time>2021-08-10T09:31:20.000Z</Time>
            <Position>
              <LatitudeDegrees>43.11542420648038387298583984375</LatitudeDegrees>
              <LongitudeDegrees>-1.66785045526921749114990234375</LongitudeDegrees>
            </Position>
            <AltitudeMeters>202.399993896484375</AltitudeMeters>
            <DistanceMeters>NAN</DistanceMeters>
          </Trackpoint>
          <Trackpoint>
            <Time>2021-08-10T09:31:21.000Z</Time>
            <Position>
              <LatitudeDegrees>43.1154274754226207733154296875</LatitudeDegrees>
              <LongitudeDegrees>-1.6678252257406711578369140625</LongitudeDegrees>
            </Position>
            <AltitudeMeters>202.399993896484375</AltitudeMeters>
            <DistanceMeters>NAN</DistanceMeters>
          </Trackpoint>
          <Trackpoint>
            <Time>2021-08-10T09:31:22.000Z</Time>
            <Position>
              <LatitudeDegrees>43.115431331098079681396484375</LatitudeDegrees>
              <LongitudeDegrees>-1.66779915802180767059326171875</LongitudeDegrees>
            </Position>
            <AltitudeMeters>202.399993896484375</AltitudeMeters>
            <DistanceMeters>NAN</DistanceMeters>
          </Trackpoint>
          <Trackpoint>
            <Time>2021-08-10T09:31:23.000Z</Time>
            <Position>
              <LatitudeDegrees>43.115438036620616912841796875</LatitudeDegrees>
              <LongitudeDegrees>-1.667769737541675567626953125</LongitudeDegrees>
            </Position>
            <AltitudeMeters>202.399993896484375</AltitudeMeters>
            <DistanceMeters>NAN</DistanceMeters>
          </Trackpoint>
          <Trackpoint>
            <Time>2021-08-10T09:31:24.000Z</Time>
            <Position>
              <LatitudeDegrees>43.11544482596218585968017578125</LatitudeDegrees>
              <LongitudeDegrees>-1.66773964650928974151611328125</LongitudeDegrees>
            </Position>
            <AltitudeMeters>202.399993896484375</AltitudeMeters>
            <DistanceMeters>NAN</DistanceMeters>
          </Trackpoint>
          <Trackpoint>
            <Time>2021-08-10T09:31:25.000Z</Time>
            <Position>
              <LatitudeDegrees>43.1154502741992473602294921875</LatitudeDegrees>
              <LongitudeDegrees>-1.66771952994167804718017578125</LongitudeDegrees>
            </Position>
            <AltitudeMeters>202.399993896484375</AltitudeMeters>
            <DistanceMeters>NAN</DistanceMeters>
          </Trackpoint>
          <Trackpoint>
            <Time>2021-08-10T09:31:26.000Z</Time>
            <Position>
              <LatitudeDegrees>43.115455806255340576171875</LatitudeDegrees>
              <LongitudeDegrees>-1.66769270785152912139892578125</LongitudeDegrees>
            </Position>
            <AltitudeMeters>202.399993896484375</AltitudeMeters>
            <DistanceMeters>NAN</DistanceMeters>
          </Trackpoint>
          <Trackpoint>
            <Time>2021-08-10T09:31:27.000Z</Time>
            <Position>
              <LatitudeDegrees>43.1154589913785457611083984375</LatitudeDegrees>
              <LongitudeDegrees>-1.66766655631363391876220703125</LongitudeDegrees>
            </Position>
            <AltitudeMeters>202.399993896484375</AltitudeMeters>
            <DistanceMeters>NAN</DistanceMeters>
          </Trackpoint>
          <Trackpoint>
            <Time>2021-08-10T09:31:28.000Z</Time>
            <Position>
              <LatitudeDegrees>43.11546050012111663818359375</LatitudeDegrees>
              <LongitudeDegrees>-1.66763738729059696197509765625</LongitudeDegrees>
            </Position>
            <AltitudeMeters>202.399993896484375</AltitudeMeters>
            <DistanceMeters>NAN</DistanceMeters>
          </Trackpoint>
          <Trackpoint>
            <Time>2021-08-10T09:31:29.000Z</Time>
            <Position>
              <LatitudeDegrees>43.11546192504465579986572265625</LatitudeDegrees>
              <LongitudeDegrees>-1.66761492379009723663330078125</LongitudeDegrees>
            </Position>
            <AltitudeMeters>202.399993896484375</AltitudeMeters>
            <DistanceMeters>NAN</DistanceMeters>
          </Trackpoint>
          <Trackpoint>
            <Time>2021-08-10T09:31:33.000Z</Time>
            <Position>
              <LatitudeDegrees>43.115467540919780731201171875</LatitudeDegrees>
              <LongitudeDegrees>-1.66753428988158702850341796875</LongitudeDegrees>
            </Position>
            <AltitudeMeters>202.399993896484375</AltitudeMeters>
            <DistanceMeters>NAN</DistanceMeters>
          </Trackpoint>
          <Trackpoint>
            <Time>2021-08-10T09:31:34.000Z</Time>
            <Position>
              <LatitudeDegrees>43.1154653616249561309814453125</LatitudeDegrees>
              <LongitudeDegrees>-1.6675057075917720794677734375</LongitudeDegrees>
            </Position>
            <AltitudeMeters>202.1999969482421875</AltitudeMeters>
            <DistanceMeters>NAN</DistanceMeters>
          </Trackpoint>
          <Trackpoint>
            <Time>2021-08-10T09:31:43.000Z</Time>
            <Position>
              <LatitudeDegrees>43.115509785711765289306640625</LatitudeDegrees>
              <LongitudeDegrees>-1.6672321222722530364990234375</LongitudeDegrees>
            </Position>
            <AltitudeMeters>202.600006103515625</AltitudeMeters>
            <DistanceMeters>NAN</DistanceMeters>
          </Trackpoint>
          <Trackpoint>
            <Time>2021-08-10T09:31:45.000Z</Time>
            <Position>
              <LatitudeDegrees>43.11552445404231548309326171875</LatitudeDegrees>
              <LongitudeDegrees>-1.66717940010130405426025390625</LongitudeDegrees>
            </Position>
            <AltitudeMeters>202.600006103515625</AltitudeMeters>
            <DistanceMeters>NAN</DistanceMeters>
          </Trackpoint>
          <Trackpoint>
            <Time>2021-08-10T09:31:46.000Z</Time>
            <Position>
              <LatitudeDegrees>43.115524537861347198486328125</LatitudeDegrees>
              <LongitudeDegrees>-1.66715316474437713623046875</LongitudeDegrees>
            </Position>
            <AltitudeMeters>202.8000030517578125</AltitudeMeters>
            <DistanceMeters>NAN</DistanceMeters>
          </Trackpoint>
          <Trackpoint>
            <Time>2021-08-10T09:31:49.000Z</Time>
            <Position>
              <LatitudeDegrees>43.11552596278488636016845703125</LatitudeDegrees>
              <LongitudeDegrees>-1.66709792800247669219970703125</LongitudeDegrees>
            </Position>
            <AltitudeMeters>203</AltitudeMeters>
            <DistanceMeters>NAN</DistanceMeters>
          </Trackpoint>
          <Trackpoint>
            <Time>2021-08-10T09:31:57.000Z</Time>
            <Position>
              <LatitudeDegrees>43.11554373241961002349853515625</LatitudeDegrees>
              <LongitudeDegrees>-1.66681445203721523284912109375</LongitudeDegrees>
            </Position>
            <AltitudeMeters>203.399993896484375</AltitudeMeters>
            <DistanceMeters>NAN</DistanceMeters>
          </Trackpoint>
          <Trackpoint>
            <Time>2021-08-10T09:32:00.000Z</Time>
            <Position>
              <LatitudeDegrees>43.11555630527436733245849609375</LatitudeDegrees>
              <LongitudeDegrees>-1.66672878898680210113525390625</LongitudeDegrees>
            </Position>
            <AltitudeMeters>203.600006103515625</AltitudeMeters>
            <DistanceMeters>NAN</DistanceMeters>
          </Trackpoint>
          <Trackpoint>
            <Time>2021-08-10T09:32:02.000Z</Time>
            <Position>
              <LatitudeDegrees>43.11556242406368255615234375</LatitudeDegrees>
              <LongitudeDegrees>-1.6666718758642673492431640625</LongitudeDegrees>
            </Position>
            <AltitudeMeters>203.600006103515625</AltitudeMeters>
            <DistanceMeters>NAN</DistanceMeters>
          </Trackpoint>
          <Trackpoint>
            <Time>2021-08-10T09:32:03.000Z</Time>
            <Position>
              <LatitudeDegrees>43.115563429892063140869140625</LatitudeDegrees>
              <LongitudeDegrees>-1.66664463467895984649658203125</LongitudeDegrees>
            </Position>
            <AltitudeMeters>203.8000030517578125</AltitudeMeters>
            <DistanceMeters>NAN</DistanceMeters>
          </Trackpoint>
          <Trackpoint>
            <Time>2021-08-10T09:32:04.000Z</Time>
            <Position>
              <LatitudeDegrees>43.11556267552077770233154296875</LatitudeDegrees>
              <LongitudeDegrees>-1.66661697439849376678466796875</LongitudeDegrees>
            </Position>
            <AltitudeMeters>203.8000030517578125</AltitudeMeters>
            <DistanceMeters>NAN</DistanceMeters>
          </Trackpoint>
          <Trackpoint>
            <Time>2021-08-10T09:32:05.000Z</Time>
            <Position>
              <LatitudeDegrees>43.11556418426334857940673828125</LatitudeDegrees>
              <LongitudeDegrees>-1.6665877215564250946044921875</LongitudeDegrees>
            </Position>
            <AltitudeMeters>203.8000030517578125</AltitudeMeters>
            <DistanceMeters>NAN</DistanceMeters>
          </Trackpoint>
          <Trackpoint>
            <Time>2021-08-10T09:32:08.000Z</Time>
            <Position>
              <LatitudeDegrees>43.1155590713024139404296875</LatitudeDegrees>
              <LongitudeDegrees>-1.666490323841571807861328125</LongitudeDegrees>
            </Position>
            <AltitudeMeters>204.1999969482421875</AltitudeMeters>
            <DistanceMeters>NAN</DistanceMeters>
          </Trackpoint>
          <Trackpoint>
            <Time>2021-08-10T09:32:10.000Z</Time>
            <Position>
              <LatitudeDegrees>43.11555446125566959381103515625</LatitudeDegrees>
              <LongitudeDegrees>-1.66645889170467853546142578125</LongitudeDegrees>
            </Position>
            <AltitudeMeters>204.1999969482421875</AltitudeMeters>
            <DistanceMeters>NAN</DistanceMeters>
          </Trackpoint>
          <Trackpoint>
            <Time>2021-08-10T09:32:11.000Z</Time>
            <Position>
              <LatitudeDegrees>43.115547336637973785400390625</LatitudeDegrees>
              <LongitudeDegrees>-1.6664026491343975067138671875</LongitudeDegrees>
            </Position>
            <AltitudeMeters>204.399993896484375</AltitudeMeters>
            <DistanceMeters>NAN</DistanceMeters>
          </Trackpoint>
          <Trackpoint>
            <Time>2021-08-10T09:32:17.000Z</Time>
            <Position>
              <LatitudeDegrees>43.11553602106869220733642578125</LatitudeDegrees>
              <LongitudeDegrees>-1.66623048484325408935546875</LongitudeDegrees>
            </Position>
            <AltitudeMeters>205</AltitudeMeters>
            <DistanceMeters>NAN</DistanceMeters>
          </Trackpoint>
          <Trackpoint>
            <Time>2021-08-10T09:32:19.000Z</Time>
            <Position>
              <LatitudeDegrees>43.11553400941193103790283203125</LatitudeDegrees>
              <LongitudeDegrees>-1.66616921313107013702392578125</LongitudeDegrees>
            </Position>
            <AltitudeMeters>205.1999969482421875</AltitudeMeters>
            <DistanceMeters>NAN</DistanceMeters>
          </Trackpoint>
          <Trackpoint>
            <Time>2021-08-10T09:32:24.000Z</Time>
            <Position>
              <LatitudeDegrees>43.11552210710942745208740234375</LatitudeDegrees>
              <LongitudeDegrees>-1.6660170815885066986083984375</LongitudeDegrees>
            </Position>
            <AltitudeMeters>206</AltitudeMeters>
            <DistanceMeters>NAN</DistanceMeters>
          </Trackpoint>
          <Trackpoint>
            <Time>2021-08-10T09:32:27.000Z</Time>
            <Position>
              <LatitudeDegrees>43.11551724560558795928955078125</LatitudeDegrees>
              <LongitudeDegrees>-1.665927059948444366455078125</LongitudeDegrees>
            </Position>
            <AltitudeMeters>206</AltitudeMeters>
            <DistanceMeters>NAN</DistanceMeters>
          </Trackpoint>
          <Trackpoint>
            <Time>2021-08-10T09:32:35.000Z</Time>
            <Position>
              <LatitudeDegrees>43.11552462168037891387939453125</LatitudeDegrees>
              <LongitudeDegrees>-1.66569278575479984283447265625</LongitudeDegrees>
            </Position>
            <AltitudeMeters>207.1999969482421875</AltitudeMeters>
            <DistanceMeters>NAN</DistanceMeters>
          </Trackpoint>
          <Trackpoint>
            <Time>2021-08-10T09:32:36.000Z</Time>
            <Position>
              <LatitudeDegrees>43.11552747152745723724365234375</LatitudeDegrees>
              <LongitudeDegrees>-1.66566395200788974761962890625</LongitudeDegrees>
            </Position>
            <AltitudeMeters>207.399993896484375</AltitudeMeters>
            <DistanceMeters>NAN</DistanceMeters>
          </Trackpoint>
          <Trackpoint>
            <Time>2021-08-10T09:32:37.000Z</Time>
            <Position>
              <LatitudeDegrees>43.11552814207971096038818359375</LatitudeDegrees>
              <LongitudeDegrees>-1.66563478298485279083251953125</LongitudeDegrees>
            </Position>
            <AltitudeMeters>207.399993896484375</AltitudeMeters>
            <DistanceMeters>NAN</DistanceMeters>
          </Trackpoint>
          <Trackpoint>
            <Time>2021-08-10T09:32:38.000Z</Time>
            <Position>
              <LatitudeDegrees>43.11552814207971096038818359375</LatitudeDegrees>
              <LongitudeDegrees>-1.66563478298485279083251953125</LongitudeDegrees>
            </Position>
            <AltitudeMeters>207.399993896484375</AltitudeMeters>
            <DistanceMeters>NAN</DistanceMeters>
          </Trackpoint>
          <Trackpoint>
            <Time>2021-08-10T09:32:39.000Z</Time>
            <Position>
              <LatitudeDegrees>43.11553048901259899139404296875</LatitudeDegrees>
              <LongitudeDegrees>-1.66557577438652515411376953125</LongitudeDegrees>
            </Position>
            <AltitudeMeters>207.8000030517578125</AltitudeMeters>
            <DistanceMeters>NAN</DistanceMeters>
          </Trackpoint>
          <Trackpoint>
            <Time>2021-08-10T09:32:40.000Z</Time>
            <Position>
              <LatitudeDegrees>43.11553467996418476104736328125</LatitudeDegrees>
              <LongitudeDegrees>-1.66554526425898075103759765625</LongitudeDegrees>
            </Position>
            <AltitudeMeters>207.8000030517578125</AltitudeMeters>
            <DistanceMeters>NAN</DistanceMeters>
          </Trackpoint>
          <Trackpoint>
            <Time>2021-08-10T09:32:41.000Z</Time>
            <Position>
              <LatitudeDegrees>43.11553669162094593048095703125</LatitudeDegrees>
              <LongitudeDegrees>-1.66551441885530948638916015625</LongitudeDegrees>
            </Position>
            <AltitudeMeters>208.1999969482421875</AltitudeMeters>
            <DistanceMeters>NAN</DistanceMeters>
          </Trackpoint>
          <Trackpoint>
            <Time>2021-08-10T09:32:42.000Z</Time>
            <Position>
              <LatitudeDegrees>43.11553803272545337677001953125</LatitudeDegrees>
              <LongitudeDegrees>-1.6654853336513042449951171875</LongitudeDegrees>
            </Position>
            <AltitudeMeters>208.1999969482421875</AltitudeMeters>
            <DistanceMeters>NAN</DistanceMeters>
          </Trackpoint>
          <Trackpoint>
            <Time>2021-08-10T09:32:43.000Z</Time>
            <Position>
              <LatitudeDegrees>43.1155407987534999847412109375</LatitudeDegrees>
              <LongitudeDegrees>-1.6654588468372821807861328125</LongitudeDegrees>
            </Position>
            <AltitudeMeters>208.399993896484375</AltitudeMeters>
            <DistanceMeters>NAN</DistanceMeters>
          </Trackpoint>
          <Trackpoint>
            <Time>2021-08-10T09:32:44.000Z</Time>
            <Position>
              <LatitudeDegrees>43.11554507352411746978759765625</LatitudeDegrees>
              <LongitudeDegrees>-1.6654323600232601165771484375</LongitudeDegrees>
            </Position>
            <AltitudeMeters>208.600006103515625</AltitudeMeters>
            <DistanceMeters>NAN</DistanceMeters>
          </Trackpoint>
          <Trackpoint>
            <Time>2021-08-10T09:32:45.000Z</Time>
            <Position>
              <LatitudeDegrees>43.115550018846988677978515625</LatitudeDegrees>
              <LongitudeDegrees>-1.665405370295047760009765625</LongitudeDegrees>
            </Position>
            <AltitudeMeters>208.600006103515625</AltitudeMeters>
            <DistanceMeters>NAN</DistanceMeters>
          </Trackpoint>
          <Trackpoint>
            <Time>2021-08-10T09:32:46.000Z</Time>
            <Position>
              <LatitudeDegrees>43.11555664055049419403076171875</LatitudeDegrees>
              <LongitudeDegrees>-1.66537712328135967254638671875</LongitudeDegrees>
            </Position>
            <AltitudeMeters>208.8000030517578125</AltitudeMeters>
            <DistanceMeters>NAN</DistanceMeters>
          </Trackpoint>
          <Trackpoint>
            <Time>2021-08-10T09:32:47.000Z</Time>
            <Position>
              <LatitudeDegrees>43.1155646033585071563720703125</LatitudeDegrees>
              <LongitudeDegrees>-1.66534912772476673126220703125</LongitudeDegrees>
            </Position>
            <AltitudeMeters>209</AltitudeMeters>
            <DistanceMeters>NAN</DistanceMeters>
          </Trackpoint>
          <Trackpoint>
            <Time>2021-08-10T09:32:48.000Z</Time>
            <Position>
              <LatitudeDegrees>43.11557239852845668792724609375</LatitudeDegrees>
              <LongitudeDegrees>-1.665322892367839813232421875</LongitudeDegrees>
            </Position>
            <AltitudeMeters>209.1999969482421875</AltitudeMeters>
            <DistanceMeters>NAN</DistanceMeters>
          </Trackpoint>
          <Trackpoint>
            <Time>2021-08-10T09:32:49.000Z</Time>
            <Position>
              <LatitudeDegrees>43.1155796907842159271240234375</LatitudeDegrees>
              <LongitudeDegrees>-1.6652972437441349029541015625</LongitudeDegrees>
            </Position>
            <AltitudeMeters>209.1999969482421875</AltitudeMeters>
            <DistanceMeters>NAN</DistanceMeters>
          </Trackpoint>
          <Trackpoint>
            <Time>2021-08-10T09:32:50.000Z</Time>
            <Position>
              <LatitudeDegrees>43.115590251982212066650390625</LatitudeDegrees>
              <LongitudeDegrees>-1.66527561843395233154296875</LongitudeDegrees>
            </Position>
            <AltitudeMeters>209.399993896484375</AltitudeMeters>
            <DistanceMeters>NAN</DistanceMeters>
          </Trackpoint>
          <Trackpoint>
            <Time>2021-08-10T09:32:51.000Z</Time>
            <Position>
              <LatitudeDegrees>43.11560441739857196807861328125</LatitudeDegrees>
              <LongitudeDegrees>-1.66525818407535552978515625</LongitudeDegrees>
            </Position>
            <AltitudeMeters>209.399993896484375</AltitudeMeters>
            <DistanceMeters>NAN</DistanceMeters>
          </Trackpoint>
          <Trackpoint>
            <Time>2021-08-10T09:32:52.000Z</Time>
            <Position>
              <LatitudeDegrees>43.11562235467135906219482421875</LatitudeDegrees>
              <LongitudeDegrees>-1.66524670086801052093505859375</LongitudeDegrees>
            </Position>
            <AltitudeMeters>209.600006103515625</AltitudeMeters>
            <DistanceMeters>NAN</DistanceMeters>
          </Trackpoint>
          <Trackpoint>
            <Time>2021-08-10T09:32:53.000Z</Time>
            <Position>
              <LatitudeDegrees>43.115637861192226409912109375</LatitudeDegrees>
              <LongitudeDegrees>-1.66523345746099948883056640625</LongitudeDegrees>
            </Position>
            <AltitudeMeters>209.600006103515625</AltitudeMeters>
            <DistanceMeters>NAN</DistanceMeters>
          </Trackpoint>
          <Trackpoint>
            <Time>2021-08-10T09:32:54.000Z</Time>
            <Position>
              <LatitudeDegrees>43.115637861192226409912109375</LatitudeDegrees>
              <LongitudeDegrees>-1.66523345746099948883056640625</LongitudeDegrees>
            </Position>
            <AltitudeMeters>209.8000030517578125</AltitudeMeters>
            <DistanceMeters>NAN</DistanceMeters>
          </Trackpoint>
          <Trackpoint>
            <Time>2021-08-10T09:32:55.000Z</Time>
            <Position>
              <LatitudeDegrees>43.11566703021526336669921875</LatitudeDegrees>
              <LongitudeDegrees>-1.66519381105899810791015625</LongitudeDegrees>
            </Position>
            <AltitudeMeters>210</AltitudeMeters>
            <DistanceMeters>NAN</DistanceMeters>
          </Trackpoint>
          <Trackpoint>
            <Time>2021-08-10T09:32:56.000Z</Time>
            <Position>
              <LatitudeDegrees>43.11568086035549640655517578125</LatitudeDegrees>
              <LongitudeDegrees>-1.66517109610140323638916015625</LongitudeDegrees>
            </Position>
            <AltitudeMeters>210</AltitudeMeters>
            <DistanceMeters>NAN</DistanceMeters>
          </Trackpoint>
          <Trackpoint>
            <Time>2021-08-10T09:32:57.000Z</Time>
            <Position>
              <LatitudeDegrees>43.11569561250507831573486328125</LatitudeDegrees>
              <LongitudeDegrees>-1.6651490516960620880126953125</LongitudeDegrees>
            </Position>
            <AltitudeMeters>210.1999969482421875</AltitudeMeters>
            <DistanceMeters>NAN</DistanceMeters>
          </Trackpoint>
          <Trackpoint>
            <Time>2021-08-10T09:32:58.000Z</Time>
            <Position>
              <LatitudeDegrees>43.1157097779214382171630859375</LatitudeDegrees>
              <LongitudeDegrees>-1.6651269234716892242431640625</LongitudeDegrees>
            </Position>
            <AltitudeMeters>210.399993896484375</AltitudeMeters>
            <DistanceMeters>NAN</DistanceMeters>
          </Trackpoint>
          <Trackpoint>
            <Time>2021-08-10T09:32:59.000Z</Time>
            <Position>
              <LatitudeDegrees>43.11572344042360782623291015625</LatitudeDegrees>
              <LongitudeDegrees>-1.665108315646648406982421875</LongitudeDegrees>
            </Position>
            <AltitudeMeters>210.600006103515625</AltitudeMeters>
            <DistanceMeters>NAN</DistanceMeters>
          </Trackpoint>
          <Trackpoint>
            <Time>2021-08-10T09:33:00.000Z</Time>
            <Position>
              <LatitudeDegrees>43.1157416291534900665283203125</LatitudeDegrees>
              <LongitudeDegrees>-1.66509213857352733612060546875</LongitudeDegrees>
            </Position>
            <AltitudeMeters>210.8000030517578125</AltitudeMeters>
            <DistanceMeters>NAN</DistanceMeters>
          </Trackpoint>
          <Trackpoint>
            <Time>2021-08-10T09:33:01.000Z</Time>
            <Position>
              <LatitudeDegrees>43.11575730331242084503173828125</LatitudeDegrees>
              <LongitudeDegrees>-1.66507420130074024200439453125</LongitudeDegrees>
            </Position>
            <AltitudeMeters>211</AltitudeMeters>
            <DistanceMeters>NAN</DistanceMeters>
          </Trackpoint>
          <Trackpoint>
            <Time>2021-08-10T09:33:02.000Z</Time>
            <Position>
              <LatitudeDegrees>43.1157738156616687774658203125</LatitudeDegrees>
              <LongitudeDegrees>-1.66505324654281139373779296875</LongitudeDegrees>
            </Position>
            <AltitudeMeters>211.1999969482421875</AltitudeMeters>
            <DistanceMeters>NAN</DistanceMeters>
          </Trackpoint>
          <Trackpoint>
            <Time>2021-08-10T09:33:03.000Z</Time>
            <Position>
              <LatitudeDegrees>43.11578865163028240203857421875</LatitudeDegrees>
              <LongitudeDegrees>-1.66502910666167736053466796875</LongitudeDegrees>
            </Position>
            <AltitudeMeters>211.1999969482421875</AltitudeMeters>
            <DistanceMeters>NAN</DistanceMeters>
          </Trackpoint>
          <Trackpoint>
            <Time>2021-08-10T09:33:04.000Z</Time>
            <Position>
              <LatitudeDegrees>43.11580491252243518829345703125</LatitudeDegrees>
              <LongitudeDegrees>-1.66500848717987537384033203125</LongitudeDegrees>
            </Position>
            <AltitudeMeters>211.399993896484375</AltitudeMeters>
            <DistanceMeters>NAN</DistanceMeters>
          </Trackpoint>
          <Trackpoint>
            <Time>2021-08-10T09:33:05.000Z</Time>
            <Position>
              <LatitudeDegrees>43.11582150869071483612060546875</LatitudeDegrees>
              <LongitudeDegrees>-1.664988957345485687255859375</LongitudeDegrees>
            </Position>
            <AltitudeMeters>211.600006103515625</AltitudeMeters>
            <DistanceMeters>NAN</DistanceMeters>
          </Trackpoint>
          <Trackpoint>
            <Time>2021-08-10T09:33:06.000Z</Time>
            <Position>
              <LatitudeDegrees>43.11583894304931163787841796875</LatitudeDegrees>
              <LongitudeDegrees>-1.66496858932077884674072265625</LongitudeDegrees>
            </Position>
            <AltitudeMeters>211.600006103515625</AltitudeMeters>
            <DistanceMeters>NAN</DistanceMeters>
          </Trackpoint>
          <Trackpoint>
            <Time>2021-08-10T09:33:07.000Z</Time>
            <Position>
              <LatitudeDegrees>43.1158559583127498626708984375</LatitudeDegrees>
              <LongitudeDegrees>-1.6649504005908966064453125</LongitudeDegrees>
            </Position>
            <AltitudeMeters>211.8000030517578125</AltitudeMeters>
            <DistanceMeters>NAN</DistanceMeters>
          </Trackpoint>
          <Trackpoint>
            <Time>2021-08-10T09:33:08.000Z</Time>
            <Position>
              <LatitudeDegrees>43.1158559583127498626708984375</LatitudeDegrees>
              <LongitudeDegrees>-1.6649504005908966064453125</LongitudeDegrees>
            </Position>
            <AltitudeMeters>212</AltitudeMeters>
            <DistanceMeters>NAN</DistanceMeters>
          </Trackpoint>
          <Trackpoint>
            <Time>2021-08-10T09:33:09.000Z</Time>
            <Position>
              <LatitudeDegrees>43.11588336713612079620361328125</LatitudeDegrees>
              <LongitudeDegrees>-1.664914526045322418212890625</LongitudeDegrees>
            </Position>
            <AltitudeMeters>212.1999969482421875</AltitudeMeters>
            <DistanceMeters>NAN</DistanceMeters>
          </Trackpoint>
          <Trackpoint>
            <Time>2021-08-10T09:33:10.000Z</Time>
            <Position>
              <LatitudeDegrees>43.11589677818119525909423828125</LatitudeDegrees>
              <LongitudeDegrees>-1.6648959182202816009521484375</LongitudeDegrees>
            </Position>
            <AltitudeMeters>212.1999969482421875</AltitudeMeters>
            <DistanceMeters>NAN</DistanceMeters>
          </Trackpoint>
          <Trackpoint>
            <Time>2021-08-10T09:33:11.000Z</Time>
            <Position>
              <LatitudeDegrees>43.11591236852109432220458984375</LatitudeDegrees>
              <LongitudeDegrees>-1.66487789712846279144287109375</LongitudeDegrees>
            </Position>
            <AltitudeMeters>212.600006103515625</AltitudeMeters>
            <DistanceMeters>NAN</DistanceMeters>
          </Trackpoint>
          <Trackpoint>
            <Time>2021-08-10T09:33:12.000Z</Time>
            <Position>
              <LatitudeDegrees>43.1159277074038982391357421875</LatitudeDegrees>
              <LongitudeDegrees>-1.664858870208263397216796875</LongitudeDegrees>
            </Position>
            <AltitudeMeters>213</AltitudeMeters>
            <DistanceMeters>NAN</DistanceMeters>
          </Trackpoint>
          <Trackpoint>
            <Time>2021-08-10T09:33:13.000Z</Time>
            <Position>
              <LatitudeDegrees>43.11594187282025814056396484375</LatitudeDegrees>
              <LongitudeDegrees>-1.6648416034877300262451171875</LongitudeDegrees>
            </Position>
            <AltitudeMeters>213.1999969482421875</AltitudeMeters>
            <DistanceMeters>NAN</DistanceMeters>
          </Trackpoint>
          <Trackpoint>
            <Time>2021-08-10T09:33:14.000Z</Time>
            <Position>
              <LatitudeDegrees>43.11595427803695201873779296875</LatitudeDegrees>
              <LongitudeDegrees>-1.66482073254883289337158203125</LongitudeDegrees>
            </Position>
            <AltitudeMeters>213.1999969482421875</AltitudeMeters>
            <DistanceMeters>NAN</DistanceMeters>
          </Trackpoint>
          <Trackpoint>
            <Time>2021-08-10T09:33:15.000Z</Time>
            <Position>
              <LatitudeDegrees>43.11596785672008991241455078125</LatitudeDegrees>
              <LongitudeDegrees>-1.66480078361928462982177734375</LongitudeDegrees>
            </Position>
            <AltitudeMeters>213.399993896484375</AltitudeMeters>
            <DistanceMeters>NAN</DistanceMeters>
          </Trackpoint>
          <Trackpoint>
            <Time>2021-08-10T09:33:16.000Z</Time>
            <Position>
              <LatitudeDegrees>43.1159828603267669677734375</LatitudeDegrees>
              <LongitudeDegrees>-1.6647812537848949432373046875</LongitudeDegrees>
            </Position>
            <AltitudeMeters>213.600006103515625</AltitudeMeters>
            <DistanceMeters>NAN</DistanceMeters>
          </Trackpoint>
          <Trackpoint>
            <Time>2021-08-10T09:33:17.000Z</Time>
            <Position>
              <LatitudeDegrees>43.1159962713718414306640625</LatitudeDegrees>
              <LongitudeDegrees>-1.6647626459598541259765625</LongitudeDegrees>
            </Position>
            <AltitudeMeters>213.600006103515625</AltitudeMeters>
            <DistanceMeters>NAN</DistanceMeters>
          </Trackpoint>
          <Trackpoint>
            <Time>2021-08-10T09:33:18.000Z</Time>
            <Position>
              <LatitudeDegrees>43.11601378954946994781494140625</LatitudeDegrees>
              <LongitudeDegrees>-1.66474529542028903961181640625</LongitudeDegrees>
            </Position>
            <AltitudeMeters>213.8000030517578125</AltitudeMeters>
            <DistanceMeters>NAN</DistanceMeters>
          </Trackpoint>
          <Trackpoint>
            <Time>2021-08-10T09:33:19.000Z</Time>
            <Position>
              <LatitudeDegrees>43.11603055335581302642822265625</LatitudeDegrees>
              <LongitudeDegrees>-1.6647250950336456298828125</LongitudeDegrees>
            </Position>
            <AltitudeMeters>214.1999969482421875</AltitudeMeters>
            <DistanceMeters>NAN</DistanceMeters>
          </Trackpoint>
          <Trackpoint>
            <Time>2021-08-10T09:33:20.000Z</Time>
            <Position>
              <LatitudeDegrees>43.1160477362573146820068359375</LatitudeDegrees>
              <LongitudeDegrees>-1.6647081635892391204833984375</LongitudeDegrees>
            </Position>
            <AltitudeMeters>214.399993896484375</AltitudeMeters>
            <DistanceMeters>NAN</DistanceMeters>
          </Trackpoint>
          <Trackpoint>
            <Time>2021-08-10T09:33:21.000Z</Time>
            <Position>
              <LatitudeDegrees>43.116063661873340606689453125</LatitudeDegrees>
              <LongitudeDegrees>-1.6646890528500080108642578125</LongitudeDegrees>
            </Position>
            <AltitudeMeters>214.600006103515625</AltitudeMeters>
            <DistanceMeters>NAN</DistanceMeters>
          </Trackpoint>
          <Trackpoint>
            <Time>2021-08-10T09:33:22.000Z</Time>
            <Position>
              <LatitudeDegrees>43.116063661873340606689453125</LatitudeDegrees>
              <LongitudeDegrees>-1.6646890528500080108642578125</LongitudeDegrees>
            </Position>
            <AltitudeMeters>214.600006103515625</AltitudeMeters>
            <DistanceMeters>NAN</DistanceMeters>
          </Trackpoint>
          <Trackpoint>
            <Time>2021-08-10T09:33:23.000Z</Time>
            <Position>
              <LatitudeDegrees>43.116092495620250701904296875</LatitudeDegrees>
              <LongitudeDegrees>-1.66465259157121181488037109375</LongitudeDegrees>
            </Position>
            <AltitudeMeters>214.8000030517578125</AltitudeMeters>
            <DistanceMeters>NAN</DistanceMeters>
          </Trackpoint>
          <Trackpoint>
            <Time>2021-08-10T09:33:24.000Z</Time>
            <Position>
              <LatitudeDegrees>43.1161054037511348724365234375</LatitudeDegrees>
              <LongitudeDegrees>-1.6646364144980907440185546875</LongitudeDegrees>
            </Position>
            <AltitudeMeters>215</AltitudeMeters>
            <DistanceMeters>NAN</DistanceMeters>
          </Trackpoint>
          <Trackpoint>
            <Time>2021-08-10T09:33:25.000Z</Time>
            <Position>
              <LatitudeDegrees>43.11611990444362163543701171875</LatitudeDegrees>
              <LongitudeDegrees>-1.6646178066730499267578125</LongitudeDegrees>
            </Position>
            <AltitudeMeters>215.1999969482421875</AltitudeMeters>
            <DistanceMeters>NAN</DistanceMeters>
          </Trackpoint>
          <Trackpoint>
            <Time>2021-08-10T09:33:26.000Z</Time>
            <Position>
              <LatitudeDegrees>43.1161355786025524139404296875</LatitudeDegrees>
              <LongitudeDegrees>-1.66459609754383563995361328125</LongitudeDegrees>
            </Position>
            <AltitudeMeters>215.399993896484375</AltitudeMeters>
            <DistanceMeters>NAN</DistanceMeters>
          </Trackpoint>
          <Trackpoint>
            <Time>2021-08-10T09:33:27.000Z</Time>
            <Position>
              <LatitudeDegrees>43.1161533482372760772705078125</LatitudeDegrees>
              <LongitudeDegrees>-1.66457715444266796112060546875</LongitudeDegrees>
            </Position>
            <AltitudeMeters>215.600006103515625</AltitudeMeters>
            <DistanceMeters>NAN</DistanceMeters>
          </Trackpoint>
          <Trackpoint>
            <Time>2021-08-10T09:33:28.000Z</Time>
            <Position>
              <LatitudeDegrees>43.116168268024921417236328125</LatitudeDegrees>
              <LongitudeDegrees>-1.66455603204667568206787109375</LongitudeDegrees>
            </Position>
            <AltitudeMeters>215.8000030517578125</AltitudeMeters>
            <DistanceMeters>NAN</DistanceMeters>
          </Trackpoint>
          <Trackpoint>
            <Time>2021-08-10T09:33:29.000Z</Time>
            <Position>
              <LatitudeDegrees>43.1161818467080593109130859375</LatitudeDegrees>
              <LongitudeDegrees>-1.664536334574222564697265625</LongitudeDegrees>
            </Position>
            <AltitudeMeters>215.8000030517578125</AltitudeMeters>
            <DistanceMeters>NAN</DistanceMeters>
          </Trackpoint>
          <Trackpoint>
            <Time>2021-08-10T09:33:30.000Z</Time>
            <Position>
              <LatitudeDegrees>43.11619735322892665863037109375</LatitudeDegrees>
              <LongitudeDegrees>-1.66451915167272090911865234375</LongitudeDegrees>
            </Position>
            <AltitudeMeters>216.1999969482421875</AltitudeMeters>
            <DistanceMeters>NAN</DistanceMeters>
          </Trackpoint>
          <Trackpoint>
            <Time>2021-08-10T09:33:31.000Z</Time>
            <Position>
              <LatitudeDegrees>43.11621495522558689117431640625</LatitudeDegrees>
              <LongitudeDegrees>-1.66450020857155323028564453125</LongitudeDegrees>
            </Position>
            <AltitudeMeters>216.1999969482421875</AltitudeMeters>
            <DistanceMeters>NAN</DistanceMeters>
          </Trackpoint>
          <Trackpoint>
            <Time>2021-08-10T09:33:32.000Z</Time>
            <Position>
              <LatitudeDegrees>43.116230629384517669677734375</LatitudeDegrees>
              <LongitudeDegrees>-1.6644810140132904052734375</LongitudeDegrees>
            </Position>
            <AltitudeMeters>216.399993896484375</AltitudeMeters>
            <DistanceMeters>NAN</DistanceMeters>
          </Trackpoint>
          <Trackpoint>
            <Time>2021-08-10T09:33:33.000Z</Time>
            <Position>
              <LatitudeDegrees>43.1162448786199092864990234375</LatitudeDegrees>
              <LongitudeDegrees>-1.66446165181696414947509765625</LongitudeDegrees>
            </Position>
            <AltitudeMeters>216.600006103515625</AltitudeMeters>
            <DistanceMeters>NAN</DistanceMeters>
          </Trackpoint>
          <Trackpoint>
            <Time>2021-08-10T09:33:34.000Z</Time>
            <Position>
              <LatitudeDegrees>43.11626382172107696533203125</LatitudeDegrees>
              <LongitudeDegrees>-1.66443902067840099334716796875</LongitudeDegrees>
            </Position>
            <AltitudeMeters>216.8000030517578125</AltitudeMeters>
            <DistanceMeters>NAN</DistanceMeters>
          </Trackpoint>
          <Trackpoint>
            <Time>2021-08-10T09:33:35.000Z</Time>
            <Position>
              <LatitudeDegrees>43.11627924442291259765625</LatitudeDegrees>
              <LongitudeDegrees>-1.6644179821014404296875</LongitudeDegrees>
            </Position>
            <AltitudeMeters>217.1999969482421875</AltitudeMeters>
            <DistanceMeters>NAN</DistanceMeters>
          </Trackpoint>
          <Trackpoint>
            <Time>2021-08-10T09:33:36.000Z</Time>
            <Position>
              <LatitudeDegrees>43.11629408039152622222900390625</LatitudeDegrees>
              <LongitudeDegrees>-1.66440012864768505096435546875</LongitudeDegrees>
            </Position>
            <AltitudeMeters>217.1999969482421875</AltitudeMeters>
            <DistanceMeters>NAN</DistanceMeters>
          </Trackpoint>
          <Trackpoint>
            <Time>2021-08-10T09:33:37.000Z</Time>
            <Position>
              <LatitudeDegrees>43.116307072341442108154296875</LatitudeDegrees>
              <LongitudeDegrees>-1.66438705287873744964599609375</LongitudeDegrees>
            </Position>
            <AltitudeMeters>217.399993896484375</AltitudeMeters>
            <DistanceMeters>NAN</DistanceMeters>
          </Trackpoint>
          <Trackpoint>
            <Time>2021-08-10T09:33:38.000Z</Time>
            <Position>
              <LatitudeDegrees>43.11631956137716770172119140625</LatitudeDegrees>
              <LongitudeDegrees>-1.66436542756855487823486328125</LongitudeDegrees>
            </Position>
            <AltitudeMeters>217.600006103515625</AltitudeMeters>
            <DistanceMeters>NAN</DistanceMeters>
          </Trackpoint>
          <Trackpoint>
            <Time>2021-08-10T09:33:39.000Z</Time>
            <Position>
              <LatitudeDegrees>43.11632911674678325653076171875</LatitudeDegrees>
              <LongitudeDegrees>-1.6643440537154674530029296875</LongitudeDegrees>
            </Position>
            <AltitudeMeters>217.8000030517578125</AltitudeMeters>
            <DistanceMeters>NAN</DistanceMeters>
          </Trackpoint>
          <Trackpoint>
            <Time>2021-08-10T09:33:40.000Z</Time>
            <Position>
              <LatitudeDegrees>43.11634873040020465850830078125</LatitudeDegrees>
              <LongitudeDegrees>-1.66432075202465057373046875</LongitudeDegrees>
            </Position>
            <AltitudeMeters>218</AltitudeMeters>
            <DistanceMeters>NAN</DistanceMeters>
          </Trackpoint>
          <Trackpoint>
            <Time>2021-08-10T09:33:41.000Z</Time>
            <Position>
              <LatitudeDegrees>43.11636197380721569061279296875</LatitudeDegrees>
              <LongitudeDegrees>-1.664304994046688079833984375</LongitudeDegrees>
            </Position>
            <AltitudeMeters>218.1999969482421875</AltitudeMeters>
            <DistanceMeters>NAN</DistanceMeters>
          </Trackpoint>
          <Trackpoint>
            <Time>2021-08-10T09:33:42.000Z</Time>
            <Position>
              <LatitudeDegrees>43.11637890525162220001220703125</LatitudeDegrees>
              <LongitudeDegrees>-1.66428596712648868560791015625</LongitudeDegrees>
            </Position>
            <AltitudeMeters>218.600006103515625</AltitudeMeters>
            <DistanceMeters>NAN</DistanceMeters>
          </Trackpoint>
          <Trackpoint>
            <Time>2021-08-10T09:33:43.000Z</Time>
            <Position>
              <LatitudeDegrees>43.11639969237148761749267578125</LatitudeDegrees>
              <LongitudeDegrees>-1.66426652111113071441650390625</LongitudeDegrees>
            </Position>
            <AltitudeMeters>218.600006103515625</AltitudeMeters>
            <DistanceMeters>NAN</DistanceMeters>
          </Trackpoint>
          <Trackpoint>
            <Time>2021-08-10T09:33:44.000Z</Time>
            <Position>
              <LatitudeDegrees>43.116414360702037811279296875</LatitudeDegrees>
              <LongitudeDegrees>-1.66424824856221675872802734375</LongitudeDegrees>
            </Position>
            <AltitudeMeters>218.8000030517578125</AltitudeMeters>
            <DistanceMeters>NAN</DistanceMeters>
          </Trackpoint>
          <Trackpoint>
            <Time>2021-08-10T09:33:45.000Z</Time>
            <Position>
              <LatitudeDegrees>43.11642752029001712799072265625</LatitudeDegrees>
              <LongitudeDegrees>-1.6642273776233196258544921875</LongitudeDegrees>
            </Position>
            <AltitudeMeters>219</AltitudeMeters>
            <DistanceMeters>NAN</DistanceMeters>
          </Trackpoint>
          <Trackpoint>
            <Time>2021-08-10T09:33:46.000Z</Time>
            <Position>
              <LatitudeDegrees>43.1164390034973621368408203125</LatitudeDegrees>
              <LongitudeDegrees>-1.66420399211347103118896484375</LongitudeDegrees>
            </Position>
            <AltitudeMeters>219.1999969482421875</AltitudeMeters>
            <DistanceMeters>NAN</DistanceMeters>
          </Trackpoint>
          <Trackpoint>
            <Time>2021-08-10T09:33:47.000Z</Time>
            <Position>
              <LatitudeDegrees>43.11644830740988254547119140625</LatitudeDegrees>
              <LongitudeDegrees>-1.66418437846004962921142578125</LongitudeDegrees>
            </Position>
            <AltitudeMeters>219.1999969482421875</AltitudeMeters>
            <DistanceMeters>NAN</DistanceMeters>
          </Trackpoint>
          <Trackpoint>
            <Time>2021-08-10T09:33:48.000Z</Time>
            <Position>
              <LatitudeDegrees>43.11646507121622562408447265625</LatitudeDegrees>
              <LongitudeDegrees>-1.6641586460173130035400390625</LongitudeDegrees>
            </Position>
            <AltitudeMeters>219.600006103515625</AltitudeMeters>
            <DistanceMeters>NAN</DistanceMeters>
          </Trackpoint>
          <Trackpoint>
            <Time>2021-08-10T09:33:49.000Z</Time>
            <Position>
              <LatitudeDegrees>43.11647973954677581787109375</LatitudeDegrees>
              <LongitudeDegrees>-1.6641376912593841552734375</LongitudeDegrees>
            </Position>
            <AltitudeMeters>219.8000030517578125</AltitudeMeters>
            <DistanceMeters>NAN</DistanceMeters>
          </Trackpoint>
          <Trackpoint>
            <Time>2021-08-10T09:33:50.000Z</Time>
            <Position>
              <LatitudeDegrees>43.1164916418492794036865234375</LatitudeDegrees>
              <LongitudeDegrees>-1.66411698795855045318603515625</LongitudeDegrees>
            </Position>
            <AltitudeMeters>220</AltitudeMeters>
            <DistanceMeters>NAN</DistanceMeters>
          </Trackpoint>
          <Trackpoint>
            <Time>2021-08-10T09:33:51.000Z</Time>
            <Position>
              <LatitudeDegrees>43.11650379560887813568115234375</LatitudeDegrees>
              <LongitudeDegrees>-1.6640947759151458740234375</LongitudeDegrees>
            </Position>
            <AltitudeMeters>220.399993896484375</AltitudeMeters>
            <DistanceMeters>NAN</DistanceMeters>
          </Trackpoint>
          <Trackpoint>
            <Time>2021-08-10T09:33:52.000Z</Time>
            <Position>
              <LatitudeDegrees>43.11651737429201602935791015625</LatitudeDegrees>
              <LongitudeDegrees>-1.66407172568142414093017578125</LongitudeDegrees>
            </Position>
            <AltitudeMeters>220.399993896484375</AltitudeMeters>
            <DistanceMeters>NAN</DistanceMeters>
          </Trackpoint>
          <Trackpoint>
            <Time>2021-08-10T09:33:53.000Z</Time>
            <Position>
              <LatitudeDegrees>43.11652877368032932281494140625</LatitudeDegrees>
              <LongitudeDegrees>-1.66405244730412960052490234375</LongitudeDegrees>
            </Position>
            <AltitudeMeters>220.8000030517578125</AltitudeMeters>
            <DistanceMeters>NAN</DistanceMeters>
          </Trackpoint>
          <Trackpoint>
            <Time>2021-08-10T09:33:54.000Z</Time>
            <Position>
              <LatitudeDegrees>43.11654201708734035491943359375</LatitudeDegrees>
              <LongitudeDegrees>-1.66402839124202728271484375</LongitudeDegrees>
            </Position>
            <AltitudeMeters>220.8000030517578125</AltitudeMeters>
            <DistanceMeters>NAN</DistanceMeters>
          </Trackpoint>
          <Trackpoint>
            <Time>2021-08-10T09:33:55.000Z</Time>
            <Position>
              <LatitudeDegrees>43.1165541708469390869140625</LatitudeDegrees>
              <LongitudeDegrees>-1.66400433517992496490478515625</LongitudeDegrees>
            </Position>
            <AltitudeMeters>221.1999969482421875</AltitudeMeters>
            <DistanceMeters>NAN</DistanceMeters>
          </Trackpoint>
          <Trackpoint>
            <Time>2021-08-10T09:33:56.000Z</Time>
            <Position>
              <LatitudeDegrees>43.1165697611868381500244140625</LatitudeDegrees>
              <LongitudeDegrees>-1.66397633962333202362060546875</LongitudeDegrees>
            </Position>
            <AltitudeMeters>221.399993896484375</AltitudeMeters>
            <DistanceMeters>NAN</DistanceMeters>
          </Trackpoint>
          <Trackpoint>
            <Time>2021-08-10T09:33:57.000Z</Time>
            <Position>
              <LatitudeDegrees>43.116584680974483489990234375</LatitudeDegrees>
              <LongitudeDegrees>-1.6639547981321811676025390625</LongitudeDegrees>
            </Position>
            <AltitudeMeters>221.600006103515625</AltitudeMeters>
            <DistanceMeters>NAN</DistanceMeters>
          </Trackpoint>
          <Trackpoint>
            <Time>2021-08-10T09:33:58.000Z</Time>
            <Position>
              <LatitudeDegrees>43.1165969185531139373779296875</LatitudeDegrees>
              <LongitudeDegrees>-1.66393660940229892730712890625</LongitudeDegrees>
            </Position>
            <AltitudeMeters>221.8000030517578125</AltitudeMeters>
            <DistanceMeters>NAN</DistanceMeters>
          </Trackpoint>
          <Trackpoint>
            <Time>2021-08-10T09:33:59.000Z</Time>
            <Position>
              <LatitudeDegrees>43.1166089884936809539794921875</LatitudeDegrees>
              <LongitudeDegrees>-1.66391263715922832489013671875</LongitudeDegrees>
            </Position>
            <AltitudeMeters>221.8000030517578125</AltitudeMeters>
            <DistanceMeters>NAN</DistanceMeters>
          </Trackpoint>
          <Trackpoint>
            <Time>2021-08-10T09:34:00.000Z</Time>
            <Position>
              <LatitudeDegrees>43.1166210584342479705810546875</LatitudeDegrees>
              <LongitudeDegrees>-1.66388095356523990631103515625</LongitudeDegrees>
            </Position>
            <AltitudeMeters>222</AltitudeMeters>
            <DistanceMeters>NAN</DistanceMeters>
          </Trackpoint>
          <Trackpoint>
            <Time>2021-08-10T09:34:01.000Z</Time>
            <Position>
              <LatitudeDegrees>43.11663354746997356414794921875</LatitudeDegrees>
              <LongitudeDegrees>-1.663856394588947296142578125</LongitudeDegrees>
            </Position>
            <AltitudeMeters>222.1999969482421875</AltitudeMeters>
            <DistanceMeters>NAN</DistanceMeters>
          </Trackpoint>
          <Trackpoint>
            <Time>2021-08-10T09:34:02.000Z</Time>
            <Position>
              <LatitudeDegrees>43.1166428513824939727783203125</LatitudeDegrees>
              <LongitudeDegrees>-1.663838289678096771240234375</LongitudeDegrees>
            </Position>
            <AltitudeMeters>222.399993896484375</AltitudeMeters>
            <DistanceMeters>NAN</DistanceMeters>
          </Trackpoint>
          <Trackpoint>
            <Time>2021-08-10T09:34:03.000Z</Time>
            <Position>
              <LatitudeDegrees>43.1166535802185535430908203125</LatitudeDegrees>
              <LongitudeDegrees>-1.66381590999662876129150390625</LongitudeDegrees>
            </Position>
            <AltitudeMeters>222.600006103515625</AltitudeMeters>
            <DistanceMeters>NAN</DistanceMeters>
          </Trackpoint>
          <Trackpoint>
            <Time>2021-08-10T09:34:04.000Z</Time>
            <Position>
              <LatitudeDegrees>43.11666506342589855194091796875</LatitudeDegrees>
              <LongitudeDegrees>-1.66378707624971866607666015625</LongitudeDegrees>
            </Position>
            <AltitudeMeters>222.8000030517578125</AltitudeMeters>
            <DistanceMeters>NAN</DistanceMeters>
          </Trackpoint>
          <Trackpoint>
            <Time>2021-08-10T09:34:05.000Z</Time>
            <Position>
              <LatitudeDegrees>43.11667579226195812225341796875</LatitudeDegrees>
              <LongitudeDegrees>-1.663762517273426055908203125</LongitudeDegrees>
            </Position>
            <AltitudeMeters>223</AltitudeMeters>
            <DistanceMeters>NAN</DistanceMeters>
          </Trackpoint>
          <Trackpoint>
            <Time>2021-08-10T09:34:06.000Z</Time>
            <Position>
              <LatitudeDegrees>43.1166864372789859771728515625</LatitudeDegrees>
              <LongitudeDegrees>-1.663739718496799468994140625</LongitudeDegrees>
            </Position>
            <AltitudeMeters>223.1999969482421875</AltitudeMeters>
            <DistanceMeters>NAN</DistanceMeters>
          </Trackpoint>
          <Trackpoint>
            <Time>2021-08-10T09:34:07.000Z</Time>
            <Position>
              <LatitudeDegrees>43.1166981719434261322021484375</LatitudeDegrees>
              <LongitudeDegrees>-1.66371499188244342803955078125</LongitudeDegrees>
            </Position>
            <AltitudeMeters>223.1999969482421875</AltitudeMeters>
            <DistanceMeters>NAN</DistanceMeters>
          </Trackpoint>
          <Trackpoint>
            <Time>2021-08-10T09:34:08.000Z</Time>
            <Position>
              <LatitudeDegrees>43.11670747585594654083251953125</LatitudeDegrees>
              <LongitudeDegrees>-1.66369470767676830291748046875</LongitudeDegrees>
            </Position>
            <AltitudeMeters>223.399993896484375</AltitudeMeters>
            <DistanceMeters>NAN</DistanceMeters>
          </Trackpoint>
          <Trackpoint>
            <Time>2021-08-10T09:34:09.000Z</Time>
            <Position>
              <LatitudeDegrees>43.11672155745327472686767578125</LatitudeDegrees>
              <LongitudeDegrees>-1.66366788558661937713623046875</LongitudeDegrees>
            </Position>
            <AltitudeMeters>223.600006103515625</AltitudeMeters>
            <DistanceMeters>NAN</DistanceMeters>
          </Trackpoint>
          <Trackpoint>
            <Time>2021-08-10T09:34:10.000Z</Time>
            <Position>
              <LatitudeDegrees>43.116738237440586090087890625</LatitudeDegrees>
              <LongitudeDegrees>-1.66363569907844066619873046875</LongitudeDegrees>
            </Position>
            <AltitudeMeters>223.8000030517578125</AltitudeMeters>
            <DistanceMeters>NAN</DistanceMeters>
          </Trackpoint>
          <Trackpoint>
            <Time>2021-08-10T09:34:11.000Z</Time>
            <Position>
              <LatitudeDegrees>43.116753660142421722412109375</LatitudeDegrees>
              <LongitudeDegrees>-1.6636074520647525787353515625</LongitudeDegrees>
            </Position>
            <AltitudeMeters>223.8000030517578125</AltitudeMeters>
            <DistanceMeters>NAN</DistanceMeters>
          </Trackpoint>
          <Trackpoint>
            <Time>2021-08-10T09:34:12.000Z</Time>
            <Position>
              <LatitudeDegrees>43.11676782555878162384033203125</LatitudeDegrees>
              <LongitudeDegrees>-1.6635856591165065765380859375</LongitudeDegrees>
            </Position>
            <AltitudeMeters>224</AltitudeMeters>
            <DistanceMeters>NAN</DistanceMeters>
          </Trackpoint>
          <Trackpoint>
            <Time>2021-08-10T09:34:13.000Z</Time>
            <Position>
              <LatitudeDegrees>43.11678391881287097930908203125</LatitudeDegrees>
              <LongitudeDegrees>-1.66355942375957965850830078125</LongitudeDegrees>
            </Position>
            <AltitudeMeters>224.1999969482421875</AltitudeMeters>
            <DistanceMeters>NAN</DistanceMeters>
          </Trackpoint>
          <Trackpoint>
            <Time>2021-08-10T09:34:14.000Z</Time>
            <Position>
              <LatitudeDegrees>43.1168004311621189117431640625</LatitudeDegrees>
              <LongitudeDegrees>-1.663531847298145294189453125</LongitudeDegrees>
            </Position>
            <AltitudeMeters>224.600006103515625</AltitudeMeters>
            <DistanceMeters>NAN</DistanceMeters>
          </Trackpoint>
          <Trackpoint>
            <Time>2021-08-10T09:34:15.000Z</Time>
            <Position>
              <LatitudeDegrees>43.11681744642555713653564453125</LatitudeDegrees>
              <LongitudeDegrees>-1.6635035164654254913330078125</LongitudeDegrees>
            </Position>
            <AltitudeMeters>224.399993896484375</AltitudeMeters>
            <DistanceMeters>NAN</DistanceMeters>
          </Trackpoint>
          <Trackpoint>
            <Time>2021-08-10T09:34:16.000Z</Time>
            <Position>
              <LatitudeDegrees>43.116838149726390838623046875</LatitudeDegrees>
              <LongitudeDegrees>-1.66346822865307331085205078125</LongitudeDegrees>
            </Position>
            <AltitudeMeters>224.8000030517578125</AltitudeMeters>
            <DistanceMeters>NAN</DistanceMeters>
          </Trackpoint>
          <Trackpoint>
            <Time>2021-08-10T09:34:17.000Z</Time>
            <Position>
              <LatitudeDegrees>43.116853572428226470947265625</LatitudeDegrees>
              <LongitudeDegrees>-1.663444340229034423828125</LongitudeDegrees>
            </Position>
            <AltitudeMeters>225</AltitudeMeters>
            <DistanceMeters>NAN</DistanceMeters>
          </Trackpoint>
          <Trackpoint>
            <Time>2021-08-10T09:34:18.000Z</Time>
            <Position>
              <LatitudeDegrees>43.11687595210969448089599609375</LatitudeDegrees>
              <LongitudeDegrees>-1.66341290809214115142822265625</LongitudeDegrees>
            </Position>
            <AltitudeMeters>225</AltitudeMeters>
            <DistanceMeters>NAN</DistanceMeters>
          </Trackpoint>
          <Trackpoint>
            <Time>2021-08-10T09:34:19.000Z</Time>
            <Position>
              <LatitudeDegrees>43.11689791269600391387939453125</LatitudeDegrees>
              <LongitudeDegrees>-1.66338105686008930206298828125</LongitudeDegrees>
            </Position>
            <AltitudeMeters>225</AltitudeMeters>
            <DistanceMeters>NAN</DistanceMeters>
          </Trackpoint>
          <Trackpoint>
            <Time>2021-08-10T09:34:20.000Z</Time>
            <Position>
              <LatitudeDegrees>43.11692540533840656280517578125</LatitudeDegrees>
              <LongitudeDegrees>-1.66334182955324649810791015625</LongitudeDegrees>
            </Position>
            <AltitudeMeters>225.1999969482421875</AltitudeMeters>
            <DistanceMeters>NAN</DistanceMeters>
          </Trackpoint>
          <Trackpoint>
            <Time>2021-08-10T09:34:21.000Z</Time>
            <Position>
              <LatitudeDegrees>43.11694971285760402679443359375</LatitudeDegrees>
              <LongitudeDegrees>-1.66330981068313121795654296875</LongitudeDegrees>
            </Position>
            <AltitudeMeters>225.1999969482421875</AltitudeMeters>
            <DistanceMeters>NAN</DistanceMeters>
          </Trackpoint>
          <Trackpoint>
            <Time>2021-08-10T09:34:22.000Z</Time>
            <Position>
              <LatitudeDegrees>43.11694971285760402679443359375</LatitudeDegrees>
              <LongitudeDegrees>-1.66330981068313121795654296875</LongitudeDegrees>
            </Position>
            <AltitudeMeters>225.1999969482421875</AltitudeMeters>
            <DistanceMeters>NAN</DistanceMeters>
          </Trackpoint>
          <Trackpoint>
            <Time>2021-08-10T09:34:23.000Z</Time>
            <Position>
              <LatitudeDegrees>43.11699447222054004669189453125</LatitudeDegrees>
              <LongitudeDegrees>-1.6632487066090106964111328125</LongitudeDegrees>
            </Position>
            <AltitudeMeters>225.1999969482421875</AltitudeMeters>
            <DistanceMeters>NAN</DistanceMeters>
          </Trackpoint>
          <Trackpoint>
            <Time>2021-08-10T09:34:24.000Z</Time>
            <Position>
              <LatitudeDegrees>43.1170197017490863800048828125</LatitudeDegrees>
              <LongitudeDegrees>-1.66321274824440479278564453125</LongitudeDegrees>
            </Position>
            <AltitudeMeters>225.1999969482421875</AltitudeMeters>
            <DistanceMeters>NAN</DistanceMeters>
          </Trackpoint>
          <Trackpoint>
            <Time>2021-08-10T09:34:25.000Z</Time>
            <Position>
              <LatitudeDegrees>43.1170448474586009979248046875</LatitudeDegrees>
              <LongitudeDegrees>-1.66317117400467395782470703125</LongitudeDegrees>
            </Position>
            <AltitudeMeters>225.1999969482421875</AltitudeMeters>
            <DistanceMeters>NAN</DistanceMeters>
          </Trackpoint>
          <Trackpoint>
            <Time>2021-08-10T09:34:26.000Z</Time>
            <Position>
              <LatitudeDegrees>43.11707141809165477752685546875</LatitudeDegrees>
              <LongitudeDegrees>-1.66312876157462596893310546875</LongitudeDegrees>
            </Position>
            <AltitudeMeters>225.1999969482421875</AltitudeMeters>
            <DistanceMeters>NAN</DistanceMeters>
          </Trackpoint>
          <Trackpoint>
            <Time>2021-08-10T09:34:27.000Z</Time>
            <Position>
              <LatitudeDegrees>43.11707141809165477752685546875</LatitudeDegrees>
              <LongitudeDegrees>-1.66312876157462596893310546875</LongitudeDegrees>
            </Position>
            <AltitudeMeters>225.1999969482421875</AltitudeMeters>
            <DistanceMeters>NAN</DistanceMeters>
          </Trackpoint>
          <Trackpoint>
            <Time>2021-08-10T09:34:28.000Z</Time>
            <Position>
              <LatitudeDegrees>43.1170998327434062957763671875</LatitudeDegrees>
              <LongitudeDegrees>-1.66308668442070484161376953125</LongitudeDegrees>
            </Position>
            <AltitudeMeters>225.1999969482421875</AltitudeMeters>
            <DistanceMeters>NAN</DistanceMeters>
          </Trackpoint>
          <Trackpoint>
            <Time>2021-08-10T09:34:29.000Z</Time>
            <Position>
              <LatitudeDegrees>43.11715255491435527801513671875</LatitudeDegrees>
              <LongitudeDegrees>-1.6630073077976703643798828125</LongitudeDegrees>
            </Position>
            <AltitudeMeters>225.1999969482421875</AltitudeMeters>
            <DistanceMeters>NAN</DistanceMeters>
          </Trackpoint>
          <Trackpoint>
            <Time>2021-08-10T09:34:30.000Z</Time>
            <Position>
              <LatitudeDegrees>43.11717845499515533447265625</LatitudeDegrees>
              <LongitudeDegrees>-1.66296732611954212188720703125</LongitudeDegrees>
            </Position>
            <AltitudeMeters>225.1999969482421875</AltitudeMeters>
            <DistanceMeters>NAN</DistanceMeters>
          </Trackpoint>
          <Trackpoint>
            <Time>2021-08-10T09:34:31.000Z</Time>
            <Position>
              <LatitudeDegrees>43.11717845499515533447265625</LatitudeDegrees>
              <LongitudeDegrees>-1.66296732611954212188720703125</LongitudeDegrees>
            </Position>
            <AltitudeMeters>225.1999969482421875</AltitudeMeters>
            <DistanceMeters>NAN</DistanceMeters>
          </Trackpoint>
          <Trackpoint>
            <Time>2021-08-10T09:34:32.000Z</Time>
            <Position>
              <LatitudeDegrees>43.11722849495708942413330078125</LatitudeDegrees>
              <LongitudeDegrees>-1.66288702748715877532958984375</LongitudeDegrees>
            </Position>
            <AltitudeMeters>225.1999969482421875</AltitudeMeters>
            <DistanceMeters>NAN</DistanceMeters>
          </Trackpoint>
          <Trackpoint>
            <Time>2021-08-10T09:34:36.000Z</Time>
            <Position>
              <LatitudeDegrees>43.1173452548682689666748046875</LatitudeDegrees>
              <LongitudeDegrees>-1.66271368972957134246826171875</LongitudeDegrees>
            </Position>
            <AltitudeMeters>225.1999969482421875</AltitudeMeters>
            <DistanceMeters>NAN</DistanceMeters>
          </Trackpoint>
          <Trackpoint>
            <Time>2021-08-10T09:34:42.000Z</Time>
            <Position>
              <LatitudeDegrees>43.1175385415554046630859375</LatitudeDegrees>
              <LongitudeDegrees>-1.66243323124945163726806640625</LongitudeDegrees>
            </Position>
            <AltitudeMeters>225.399993896484375</AltitudeMeters>
            <DistanceMeters>NAN</DistanceMeters>
          </Trackpoint>
          <Trackpoint>
            <Time>2021-08-10T09:34:45.000Z</Time>
            <Position>
              <LatitudeDegrees>43.11763317324221134185791015625</LatitudeDegrees>
              <LongitudeDegrees>-1.6622988693416118621826171875</LongitudeDegrees>
            </Position>
            <AltitudeMeters>225.399993896484375</AltitudeMeters>
            <DistanceMeters>NAN</DistanceMeters>
          </Trackpoint>
          <Trackpoint>
            <Time>2021-08-10T09:34:49.000Z</Time>
            <Position>
              <LatitudeDegrees>43.117749430239200592041015625</LatitudeDegrees>
              <LongitudeDegrees>-1.66212595067918300628662109375</LongitudeDegrees>
            </Position>
            <AltitudeMeters>225.600006103515625</AltitudeMeters>
            <DistanceMeters>NAN</DistanceMeters>
          </Trackpoint>
          <Trackpoint>
            <Time>2021-08-10T09:34:50.000Z</Time>
            <Position>
              <LatitudeDegrees>43.11777633614838123321533203125</LatitudeDegrees>
              <LongitudeDegrees>-1.66208705864846706390380859375</LongitudeDegrees>
            </Position>
            <AltitudeMeters>225.600006103515625</AltitudeMeters>
            <DistanceMeters>NAN</DistanceMeters>
          </Trackpoint>
          <Trackpoint>
            <Time>2021-08-10T09:34:51.000Z</Time>
            <Position>
              <LatitudeDegrees>43.1178029067814350128173828125</LatitudeDegrees>
              <LongitudeDegrees>-1.6620467416942119598388671875</LongitudeDegrees>
            </Position>
            <AltitudeMeters>225.600006103515625</AltitudeMeters>
            <DistanceMeters>NAN</DistanceMeters>
          </Trackpoint>
          <Trackpoint>
            <Time>2021-08-10T09:34:52.000Z</Time>
            <Position>
              <LatitudeDegrees>43.117830567061901092529296875</LatitudeDegrees>
              <LongitudeDegrees>-1.6620044969022274017333984375</LongitudeDegrees>
            </Position>
            <AltitudeMeters>225.600006103515625</AltitudeMeters>
            <DistanceMeters>NAN</DistanceMeters>
          </Trackpoint>
          <Trackpoint>
            <Time>2021-08-10T09:34:53.000Z</Time>
            <Position>
              <LatitudeDegrees>43.1178599037230014801025390625</LatitudeDegrees>
              <LongitudeDegrees>-1.66196200065314769744873046875</LongitudeDegrees>
            </Position>
            <AltitudeMeters>225.600006103515625</AltitudeMeters>
            <DistanceMeters>NAN</DistanceMeters>
          </Trackpoint>
          <Trackpoint>
            <Time>2021-08-10T09:34:54.000Z</Time>
            <Position>
              <LatitudeDegrees>43.11788965947926044464111328125</LatitudeDegrees>
              <LongitudeDegrees>-1.66192017495632171630859375</LongitudeDegrees>
            </Position>
            <AltitudeMeters>225.600006103515625</AltitudeMeters>
            <DistanceMeters>NAN</DistanceMeters>
          </Trackpoint>
          <Trackpoint>
            <Time>2021-08-10T09:34:55.000Z</Time>
            <Position>
              <LatitudeDegrees>43.1179194152355194091796875</LatitudeDegrees>
              <LongitudeDegrees>-1.66187449358403682708740234375</LongitudeDegrees>
            </Position>
            <AltitudeMeters>225.600006103515625</AltitudeMeters>
            <DistanceMeters>NAN</DistanceMeters>
          </Trackpoint>
          <Trackpoint>
            <Time>2021-08-10T09:35:04.000Z</Time>
            <Position>
              <LatitudeDegrees>43.11819643713533878326416015625</LatitudeDegrees>
              <LongitudeDegrees>-1.66145489551126956939697265625</LongitudeDegrees>
            </Position>
            <AltitudeMeters>226</AltitudeMeters>
            <DistanceMeters>NAN</DistanceMeters>
          </Trackpoint>
          <Trackpoint>
            <Time>2021-08-10T09:35:06.000Z</Time>
            <Position>
              <LatitudeDegrees>43.11825695447623729705810546875</LatitudeDegrees>
              <LongitudeDegrees>-1.66136571206152439117431640625</LongitudeDegrees>
            </Position>
            <AltitudeMeters>226</AltitudeMeters>
            <DistanceMeters>NAN</DistanceMeters>
          </Trackpoint>
          <Trackpoint>
            <Time>2021-08-10T09:35:09.000Z</Time>
            <Position>
              <LatitudeDegrees>43.1183485686779022216796875</LatitudeDegrees>
              <LongitudeDegrees>-1.66123294271528720855712890625</LongitudeDegrees>
            </Position>
            <AltitudeMeters>226.1999969482421875</AltitudeMeters>
            <DistanceMeters>NAN</DistanceMeters>
          </Trackpoint>
          <Trackpoint>
            <Time>2021-08-10T09:35:10.000Z</Time>
            <Position>
              <LatitudeDegrees>43.11838452704250812530517578125</LatitudeDegrees>
              <LongitudeDegrees>-1.661179549992084503173828125</LongitudeDegrees>
            </Position>
            <AltitudeMeters>226.1999969482421875</AltitudeMeters>
            <DistanceMeters>NAN</DistanceMeters>
          </Trackpoint>
          <Trackpoint>
            <Time>2021-08-10T09:35:11.000Z</Time>
            <Position>
              <LatitudeDegrees>43.1184070743620395660400390625</LatitudeDegrees>
              <LongitudeDegrees>-1.6611443459987640380859375</LongitudeDegrees>
            </Position>
            <AltitudeMeters>226.399993896484375</AltitudeMeters>
            <DistanceMeters>NAN</DistanceMeters>
          </Trackpoint>
          <Trackpoint>
            <Time>2021-08-10T09:35:12.000Z</Time>
            <Position>
              <LatitudeDegrees>43.1184362433850765228271484375</LatitudeDegrees>
              <LongitudeDegrees>-1.6611005924642086029052734375</LongitudeDegrees>
            </Position>
            <AltitudeMeters>226.600006103515625</AltitudeMeters>
            <DistanceMeters>NAN</DistanceMeters>
          </Trackpoint>
          <Trackpoint>
            <Time>2021-08-10T09:35:13.000Z</Time>
            <Position>
              <LatitudeDegrees>43.11846532858908176422119140625</LatitudeDegrees>
              <LongitudeDegrees>-1.6610583476722240447998046875</LongitudeDegrees>
            </Position>
            <AltitudeMeters>226.600006103515625</AltitudeMeters>
            <DistanceMeters>NAN</DistanceMeters>
          </Trackpoint>
          <Trackpoint>
            <Time>2021-08-10T09:35:14.000Z</Time>
            <Position>
              <LatitudeDegrees>43.1184942461550235748291015625</LatitudeDegrees>
              <LongitudeDegrees>-1.66101484559476375579833984375</LongitudeDegrees>
            </Position>
            <AltitudeMeters>226.8000030517578125</AltitudeMeters>
            <DistanceMeters>NAN</DistanceMeters>
          </Trackpoint>
          <Trackpoint>
            <Time>2021-08-10T09:35:15.000Z</Time>
            <Position>
              <LatitudeDegrees>43.11852282844483852386474609375</LatitudeDegrees>
              <LongitudeDegrees>-1.6609725169837474822998046875</LongitudeDegrees>
            </Position>
            <AltitudeMeters>226.8000030517578125</AltitudeMeters>
            <DistanceMeters>NAN</DistanceMeters>
          </Trackpoint>
          <Trackpoint>
            <Time>2021-08-10T09:35:16.000Z</Time>
            <Position>
              <LatitudeDegrees>43.118551410734653472900390625</LatitudeDegrees>
              <LongitudeDegrees>-1.660930775105953216552734375</LongitudeDegrees>
            </Position>
            <AltitudeMeters>227</AltitudeMeters>
            <DistanceMeters>NAN</DistanceMeters>
          </Trackpoint>
          <Trackpoint>
            <Time>2021-08-10T09:35:17.000Z</Time>
            <Position>
              <LatitudeDegrees>43.1185804121196269989013671875</LatitudeDegrees>
              <LongitudeDegrees>-1.6608880273997783660888671875</LongitudeDegrees>
            </Position>
            <AltitudeMeters>227</AltitudeMeters>
            <DistanceMeters>NAN</DistanceMeters>
          </Trackpoint>
          <Trackpoint>
            <Time>2021-08-10T09:35:18.000Z</Time>
            <Position>
              <LatitudeDegrees>43.11860966496169567108154296875</LatitudeDegrees>
              <LongitudeDegrees>-1.66084703989326953887939453125</LongitudeDegrees>
            </Position>
            <AltitudeMeters>227.1999969482421875</AltitudeMeters>
            <DistanceMeters>NAN</DistanceMeters>
          </Trackpoint>
          <Trackpoint>
            <Time>2021-08-10T09:35:21.000Z</Time>
            <Position>
              <LatitudeDegrees>43.11869549565017223358154296875</LatitudeDegrees>
              <LongitudeDegrees>-1.6607224009931087493896484375</LongitudeDegrees>
            </Position>
            <AltitudeMeters>227.8000030517578125</AltitudeMeters>
            <DistanceMeters>NAN</DistanceMeters>
          </Trackpoint>
          <Trackpoint>
            <Time>2021-08-10T09:35:24.000Z</Time>
            <Position>
              <LatitudeDegrees>43.1187765486538410186767578125</LatitudeDegrees>
              <LongitudeDegrees>-1.66059591807425022125244140625</LongitudeDegrees>
            </Position>
            <AltitudeMeters>228.1999969482421875</AltitudeMeters>
            <DistanceMeters>NAN</DistanceMeters>
          </Trackpoint>
          <Trackpoint>
            <Time>2021-08-10T09:35:28.000Z</Time>
            <Position>
              <LatitudeDegrees>43.1188930571079254150390625</LatitudeDegrees>
              <LongitudeDegrees>-1.66043062694370746612548828125</LongitudeDegrees>
            </Position>
            <AltitudeMeters>229</AltitudeMeters>
            <DistanceMeters>NAN</DistanceMeters>
          </Trackpoint>
          <Trackpoint>
            <Time>2021-08-10T09:35:29.000Z</Time>
            <Position>
              <LatitudeDegrees>43.1189213879406452178955078125</LatitudeDegrees>
              <LongitudeDegrees>-1.660388298332691192626953125</LongitudeDegrees>
            </Position>
            <AltitudeMeters>229.1999969482421875</AltitudeMeters>
            <DistanceMeters>NAN</DistanceMeters>
          </Trackpoint>
          <Trackpoint>
            <Time>2021-08-10T09:35:30.000Z</Time>
            <Position>
              <LatitudeDegrees>43.11895566992461681365966796875</LatitudeDegrees>
              <LongitudeDegrees>-1.660337336361408233642578125</LongitudeDegrees>
            </Position>
            <AltitudeMeters>229.1999969482421875</AltitudeMeters>
            <DistanceMeters>NAN</DistanceMeters>
          </Trackpoint>
          <Trackpoint>
            <Time>2021-08-10T09:35:31.000Z</Time>
            <Position>
              <LatitudeDegrees>43.11897813342511653900146484375</LatitudeDegrees>
              <LongitudeDegrees>-1.6603021323680877685546875</LongitudeDegrees>
            </Position>
            <AltitudeMeters>229.600006103515625</AltitudeMeters>
            <DistanceMeters>NAN</DistanceMeters>
          </Trackpoint>
          <Trackpoint>
            <Time>2021-08-10T09:35:32.000Z</Time>
            <Position>
              <LatitudeDegrees>43.11900428496301174163818359375</LatitudeDegrees>
              <LongitudeDegrees>-1.66025795973837375640869140625</LongitudeDegrees>
            </Position>
            <AltitudeMeters>229.600006103515625</AltitudeMeters>
            <DistanceMeters>NAN</DistanceMeters>
          </Trackpoint>
          <Trackpoint>
            <Time>2021-08-10T09:35:33.000Z</Time>
            <Position>
              <LatitudeDegrees>43.11903244815766811370849609375</LatitudeDegrees>
              <LongitudeDegrees>-1.66021454147994518280029296875</LongitudeDegrees>
            </Position>
            <AltitudeMeters>229.8000030517578125</AltitudeMeters>
            <DistanceMeters>NAN</DistanceMeters>
          </Trackpoint>
          <Trackpoint>
            <Time>2021-08-10T09:35:34.000Z</Time>
            <Position>
              <LatitudeDegrees>43.11906061135232448577880859375</LatitudeDegrees>
              <LongitudeDegrees>-1.66017078794538974761962890625</LongitudeDegrees>
            </Position>
            <AltitudeMeters>230</AltitudeMeters>
            <DistanceMeters>NAN</DistanceMeters>
          </Trackpoint>
          <Trackpoint>
            <Time>2021-08-10T09:35:35.000Z</Time>
            <Position>
              <LatitudeDegrees>43.11908726580440998077392578125</LatitudeDegrees>
              <LongitudeDegrees>-1.66012669913470745086669921875</LongitudeDegrees>
            </Position>
            <AltitudeMeters>230.399993896484375</AltitudeMeters>
            <DistanceMeters>NAN</DistanceMeters>
          </Trackpoint>
          <Trackpoint>
            <Time>2021-08-10T09:35:36.000Z</Time>
            <Position>
              <LatitudeDegrees>43.11911769211292266845703125</LatitudeDegrees>
              <LongitudeDegrees>-1.66007489897310733795166015625</LongitudeDegrees>
            </Position>
            <AltitudeMeters>230.600006103515625</AltitudeMeters>
            <DistanceMeters>NAN</DistanceMeters>
          </Trackpoint>
          <Trackpoint>
            <Time>2021-08-10T09:35:37.000Z</Time>
            <Position>
              <LatitudeDegrees>43.119145520031452178955078125</LatitudeDegrees>
              <LongitudeDegrees>-1.660034246742725372314453125</LongitudeDegrees>
            </Position>
            <AltitudeMeters>230.600006103515625</AltitudeMeters>
            <DistanceMeters>NAN</DistanceMeters>
          </Trackpoint>
          <Trackpoint>
            <Time>2021-08-10T09:35:38.000Z</Time>
            <Position>
              <LatitudeDegrees>43.119167983531951904296875</LatitudeDegrees>
              <LongitudeDegrees>-1.6600017249584197998046875</LongitudeDegrees>
            </Position>
            <AltitudeMeters>230.8000030517578125</AltitudeMeters>
            <DistanceMeters>NAN</DistanceMeters>
          </Trackpoint>
          <Trackpoint>
            <Time>2021-08-10T09:35:39.000Z</Time>
            <Position>
              <LatitudeDegrees>43.11919681727886199951171875</LatitudeDegrees>
              <LongitudeDegrees>-1.65996241383254528045654296875</LongitudeDegrees>
            </Position>
            <AltitudeMeters>230.8000030517578125</AltitudeMeters>
            <DistanceMeters>NAN</DistanceMeters>
          </Trackpoint>
          <Trackpoint>
            <Time>2021-08-10T09:35:40.000Z</Time>
            <Position>
              <LatitudeDegrees>43.11922632157802581787109375</LatitudeDegrees>
              <LongitudeDegrees>-1.65992201305925846099853515625</LongitudeDegrees>
            </Position>
            <AltitudeMeters>231</AltitudeMeters>
            <DistanceMeters>NAN</DistanceMeters>
          </Trackpoint>
          <Trackpoint>
            <Time>2021-08-10T09:35:41.000Z</Time>
            <Position>
              <LatitudeDegrees>43.11925507150590419769287109375</LatitudeDegrees>
              <LongitudeDegrees>-1.65987876243889331817626953125</LongitudeDegrees>
            </Position>
            <AltitudeMeters>231</AltitudeMeters>
            <DistanceMeters>NAN</DistanceMeters>
          </Trackpoint>
          <Trackpoint>
            <Time>2021-08-10T09:35:42.000Z</Time>
            <Position>
              <LatitudeDegrees>43.119287006556987762451171875</LatitudeDegrees>
              <LongitudeDegrees>-1.65982897393405437469482421875</LongitudeDegrees>
            </Position>
            <AltitudeMeters>231.1999969482421875</AltitudeMeters>
            <DistanceMeters>NAN</DistanceMeters>
          </Trackpoint>
          <Trackpoint>
            <Time>2021-08-10T09:35:43.000Z</Time>
            <Position>
              <LatitudeDegrees>43.1193086318671703338623046875</LatitudeDegrees>
              <LongitudeDegrees>-1.659796871244907379150390625</LongitudeDegrees>
            </Position>
            <AltitudeMeters>231.399993896484375</AltitudeMeters>
            <DistanceMeters>NAN</DistanceMeters>
          </Trackpoint>
          <Trackpoint>
            <Time>2021-08-10T09:35:44.000Z</Time>
            <Position>
              <LatitudeDegrees>43.11933469958603382110595703125</LatitudeDegrees>
              <LongitudeDegrees>-1.6597578115761280059814453125</LongitudeDegrees>
            </Position>
            <AltitudeMeters>231.399993896484375</AltitudeMeters>
            <DistanceMeters>NAN</DistanceMeters>
          </Trackpoint>
          <Trackpoint>
            <Time>2021-08-10T09:35:45.000Z</Time>
            <Position>
              <LatitudeDegrees>43.1193609349429607391357421875</LatitudeDegrees>
              <LongitudeDegrees>-1.65971933864057064056396484375</LongitudeDegrees>
            </Position>
            <AltitudeMeters>231.8000030517578125</AltitudeMeters>
            <DistanceMeters>NAN</DistanceMeters>
          </Trackpoint>
          <Trackpoint>
            <Time>2021-08-10T09:35:46.000Z</Time>
            <Position>
              <LatitudeDegrees>43.11939136125147342681884765625</LatitudeDegrees>
              <LongitudeDegrees>-1.6596758365631103515625</LongitudeDegrees>
            </Position>
            <AltitudeMeters>232</AltitudeMeters>
            <DistanceMeters>NAN</DistanceMeters>
          </Trackpoint>
          <Trackpoint>
            <Time>2021-08-10T09:35:47.000Z</Time>
            <Position>
              <LatitudeDegrees>43.119417093694210052490234375</LatitudeDegrees>
              <LongitudeDegrees>-1.65963719598948955535888671875</LongitudeDegrees>
            </Position>
            <AltitudeMeters>232.1999969482421875</AltitudeMeters>
            <DistanceMeters>NAN</DistanceMeters>
          </Trackpoint>
          <Trackpoint>
            <Time>2021-08-10T09:35:48.000Z</Time>
            <Position>
              <LatitudeDegrees>43.119441904127597808837890625</LatitudeDegrees>
              <LongitudeDegrees>-1.65960148908197879791259765625</LongitudeDegrees>
            </Position>
            <AltitudeMeters>232.1999969482421875</AltitudeMeters>
            <DistanceMeters>NAN</DistanceMeters>
          </Trackpoint>
          <Trackpoint>
            <Time>2021-08-10T09:35:49.000Z</Time>
            <Position>
              <LatitudeDegrees>43.11946076340973377227783203125</LatitudeDegrees>
              <LongitudeDegrees>-1.659574247896671295166015625</LongitudeDegrees>
            </Position>
            <AltitudeMeters>232.600006103515625</AltitudeMeters>
            <DistanceMeters>NAN</DistanceMeters>
          </Trackpoint>
          <Trackpoint>
            <Time>2021-08-10T09:35:50.000Z</Time>
            <Position>
              <LatitudeDegrees>43.11948523856699466705322265625</LatitudeDegrees>
              <LongitudeDegrees>-1.6595395468175411224365234375</LongitudeDegrees>
            </Position>
            <AltitudeMeters>232.8000030517578125</AltitudeMeters>
            <DistanceMeters>NAN</DistanceMeters>
          </Trackpoint>
          <Trackpoint>
            <Time>2021-08-10T09:35:51.000Z</Time>
            <Position>
              <LatitudeDegrees>43.119506277143955230712890625</LatitudeDegrees>
              <LongitudeDegrees>-1.65950492955744266510009765625</LongitudeDegrees>
            </Position>
            <AltitudeMeters>233</AltitudeMeters>
            <DistanceMeters>NAN</DistanceMeters>
          </Trackpoint>
          <Trackpoint>
            <Time>2021-08-10T09:35:52.000Z</Time>
            <Position>
              <LatitudeDegrees>43.11953402124345302581787109375</LatitudeDegrees>
              <LongitudeDegrees>-1.6594620980322360992431640625</LongitudeDegrees>
            </Position>
            <AltitudeMeters>233.1999969482421875</AltitudeMeters>
            <DistanceMeters>NAN</DistanceMeters>
          </Trackpoint>
          <Trackpoint>
            <Time>2021-08-10T09:35:53.000Z</Time>
            <Position>
              <LatitudeDegrees>43.1195582449436187744140625</LatitudeDegrees>
              <LongitudeDegrees>-1.65942714549601078033447265625</LongitudeDegrees>
            </Position>
            <AltitudeMeters>233.1999969482421875</AltitudeMeters>
            <DistanceMeters>NAN</DistanceMeters>
          </Trackpoint>
          <Trackpoint>
            <Time>2021-08-10T09:35:54.000Z</Time>
            <Position>
              <LatitudeDegrees>43.11957542784512042999267578125</LatitudeDegrees>
              <LongitudeDegrees>-1.65939864702522754669189453125</LongitudeDegrees>
            </Position>
            <AltitudeMeters>233.600006103515625</AltitudeMeters>
            <DistanceMeters>NAN</DistanceMeters>
          </Trackpoint>
          <Trackpoint>
            <Time>2021-08-10T09:35:55.000Z</Time>
            <Position>
              <LatitudeDegrees>43.1195962987840175628662109375</LatitudeDegrees>
              <LongitudeDegrees>-1.65936411358416080474853515625</LongitudeDegrees>
            </Position>
            <AltitudeMeters>233.8000030517578125</AltitudeMeters>
            <DistanceMeters>NAN</DistanceMeters>
          </Trackpoint>
          <Trackpoint>
            <Time>2021-08-10T09:35:56.000Z</Time>
            <Position>
              <LatitudeDegrees>43.11961733736097812652587890625</LatitudeDegrees>
              <LongitudeDegrees>-1.65933184325695037841796875</LongitudeDegrees>
            </Position>
            <AltitudeMeters>234</AltitudeMeters>
            <DistanceMeters>NAN</DistanceMeters>
          </Trackpoint>
          <Trackpoint>
            <Time>2021-08-10T09:35:57.000Z</Time>
            <Position>
              <LatitudeDegrees>43.11964365653693675994873046875</LatitudeDegrees>
              <LongitudeDegrees>-1.65929269976913928985595703125</LongitudeDegrees>
            </Position>
            <AltitudeMeters>234.399993896484375</AltitudeMeters>
            <DistanceMeters>NAN</DistanceMeters>
          </Trackpoint>
          <Trackpoint>
            <Time>2021-08-10T09:35:58.000Z</Time>
            <Position>
              <LatitudeDegrees>43.11966612003743648529052734375</LatitudeDegrees>
              <LongitudeDegrees>-1.659261770546436309814453125</LongitudeDegrees>
            </Position>
            <AltitudeMeters>234.399993896484375</AltitudeMeters>
            <DistanceMeters>NAN</DistanceMeters>
          </Trackpoint>
          <Trackpoint>
            <Time>2021-08-10T09:35:59.000Z</Time>
            <Position>
              <LatitudeDegrees>43.1196869909763336181640625</LatitudeDegrees>
              <LongitudeDegrees>-1.65923017077147960662841796875</LongitudeDegrees>
            </Position>
            <AltitudeMeters>234.600006103515625</AltitudeMeters>
            <DistanceMeters>NAN</DistanceMeters>
          </Trackpoint>
          <Trackpoint>
            <Time>2021-08-10T09:36:00.000Z</Time>
            <Position>
              <LatitudeDegrees>43.11970450915396213531494140625</LatitudeDegrees>
              <LongitudeDegrees>-1.65920502506196498870849609375</LongitudeDegrees>
            </Position>
            <AltitudeMeters>234.8000030517578125</AltitudeMeters>
            <DistanceMeters>NAN</DistanceMeters>
          </Trackpoint>
          <Trackpoint>
            <Time>2021-08-10T09:36:01.000Z</Time>
            <Position>
              <LatitudeDegrees>43.1197257153689861297607421875</LatitudeDegrees>
              <LongitudeDegrees>-1.6591744311153888702392578125</LongitudeDegrees>
            </Position>
            <AltitudeMeters>235.1999969482421875</AltitudeMeters>
            <DistanceMeters>NAN</DistanceMeters>
          </Trackpoint>
          <Trackpoint>
            <Time>2021-08-10T09:36:02.000Z</Time>
            <Position>
              <LatitudeDegrees>43.1197515316307544708251953125</LatitudeDegrees>
              <LongitudeDegrees>-1.65913864038884639739990234375</LongitudeDegrees>
            </Position>
            <AltitudeMeters>235.399993896484375</AltitudeMeters>
            <DistanceMeters>NAN</DistanceMeters>
          </Trackpoint>
          <Trackpoint>
            <Time>2021-08-10T09:36:03.000Z</Time>
            <Position>
              <LatitudeDegrees>43.11977206729352474212646484375</LatitudeDegrees>
              <LongitudeDegrees>-1.65910787880420684814453125</LongitudeDegrees>
            </Position>
            <AltitudeMeters>235.399993896484375</AltitudeMeters>
            <DistanceMeters>NAN</DistanceMeters>
          </Trackpoint>
          <Trackpoint>
            <Time>2021-08-10T09:36:04.000Z</Time>
            <Position>
              <LatitudeDegrees>43.11978966929018497467041015625</LatitudeDegrees>
              <LongitudeDegrees>-1.659083068370819091796875</LongitudeDegrees>
            </Position>
            <AltitudeMeters>235.600006103515625</AltitudeMeters>
            <DistanceMeters>NAN</DistanceMeters>
          </Trackpoint>
          <Trackpoint>
            <Time>2021-08-10T09:36:05.000Z</Time>
            <Position>
              <LatitudeDegrees>43.11981079168617725372314453125</LatitudeDegrees>
              <LongitudeDegrees>-1.659051217138767242431640625</LongitudeDegrees>
            </Position>
            <AltitudeMeters>235.8000030517578125</AltitudeMeters>
            <DistanceMeters>NAN</DistanceMeters>
          </Trackpoint>
          <Trackpoint>
            <Time>2021-08-10T09:36:06.000Z</Time>
            <Position>
              <LatitudeDegrees>43.11983157880604267120361328125</LatitudeDegrees>
              <LongitudeDegrees>-1.659023724496364593505859375</LongitudeDegrees>
            </Position>
            <AltitudeMeters>236</AltitudeMeters>
            <DistanceMeters>NAN</DistanceMeters>
          </Trackpoint>
          <Trackpoint>
            <Time>2021-08-10T09:36:07.000Z</Time>
            <Position>
              <LatitudeDegrees>43.1198531202971935272216796875</LatitudeDegrees>
              <LongitudeDegrees>-1.65899916552007198333740234375</LongitudeDegrees>
            </Position>
            <AltitudeMeters>236</AltitudeMeters>
            <DistanceMeters>NAN</DistanceMeters>
          </Trackpoint>
          <Trackpoint>
            <Time>2021-08-10T09:36:08.000Z</Time>
            <Position>
              <LatitudeDegrees>43.119878433644771575927734375</LatitudeDegrees>
              <LongitudeDegrees>-1.65897033177316188812255859375</LongitudeDegrees>
            </Position>
            <AltitudeMeters>236.1999969482421875</AltitudeMeters>
            <DistanceMeters>NAN</DistanceMeters>
          </Trackpoint>
          <Trackpoint>
            <Time>2021-08-10T09:36:09.000Z</Time>
            <Position>
              <LatitudeDegrees>43.11989779584109783172607421875</LatitudeDegrees>
              <LongitudeDegrees>-1.65894602425396442413330078125</LongitudeDegrees>
            </Position>
            <AltitudeMeters>236.399993896484375</AltitudeMeters>
            <DistanceMeters>NAN</DistanceMeters>
          </Trackpoint>
          <Trackpoint>
            <Time>2021-08-10T09:36:10.000Z</Time>
            <Position>
              <LatitudeDegrees>43.1199138052761554718017578125</LatitudeDegrees>
              <LongitudeDegrees>-1.65892959572374820709228515625</LongitudeDegrees>
            </Position>
            <AltitudeMeters>236.600006103515625</AltitudeMeters>
            <DistanceMeters>NAN</DistanceMeters>
          </Trackpoint>
          <Trackpoint>
            <Time>2021-08-10T09:36:11.000Z</Time>
            <Position>
              <LatitudeDegrees>43.1199324131011962890625</LatitudeDegrees>
              <LongitudeDegrees>-1.6589115746319293975830078125</LongitudeDegrees>
            </Position>
            <AltitudeMeters>237</AltitudeMeters>
            <DistanceMeters>NAN</DistanceMeters>
          </Trackpoint>
          <Trackpoint>
            <Time>2021-08-10T09:36:12.000Z</Time>
            <Position>
              <LatitudeDegrees>43.11995177529752254486083984375</LatitudeDegrees>
              <LongitudeDegrees>-1.65890126489102840423583984375</LongitudeDegrees>
            </Position>
            <AltitudeMeters>237</AltitudeMeters>
            <DistanceMeters>NAN</DistanceMeters>
          </Trackpoint>
          <Trackpoint>
            <Time>2021-08-10T09:36:13.000Z</Time>
            <Position>
              <LatitudeDegrees>43.11997138895094394683837890625</LatitudeDegrees>
              <LongitudeDegrees>-1.658902354538440704345703125</LongitudeDegrees>
            </Position>
            <AltitudeMeters>237.399993896484375</AltitudeMeters>
            <DistanceMeters>NAN</DistanceMeters>
          </Trackpoint>
          <Trackpoint>
            <Time>2021-08-10T09:36:14.000Z</Time>
            <Position>
              <LatitudeDegrees>43.1199847161769866943359375</LatitudeDegrees>
              <LongitudeDegrees>-1.658913083374500274658203125</LongitudeDegrees>
            </Position>
            <AltitudeMeters>237.399993896484375</AltitudeMeters>
            <DistanceMeters>NAN</DistanceMeters>
          </Trackpoint>
          <Trackpoint>
            <Time>2021-08-10T09:36:15.000Z</Time>
            <Position>
              <LatitudeDegrees>43.1199872307479381561279296875</LatitudeDegrees>
              <LongitudeDegrees>-1.6589263267815113067626953125</LongitudeDegrees>
            </Position>
            <AltitudeMeters>237.8000030517578125</AltitudeMeters>
            <DistanceMeters>NAN</DistanceMeters>
          </Trackpoint>
          <Trackpoint>
            <Time>2021-08-10T09:36:16.000Z</Time>
            <Position>
              <LatitudeDegrees>43.11998748220503330230712890625</LatitudeDegrees>
              <LongitudeDegrees>-1.65894568897783756256103515625</LongitudeDegrees>
            </Position>
            <AltitudeMeters>238</AltitudeMeters>
            <DistanceMeters>NAN</DistanceMeters>
          </Trackpoint>
          <Trackpoint>
            <Time>2021-08-10T09:36:17.000Z</Time>
            <Position>
              <LatitudeDegrees>43.11998463235795497894287109375</LatitudeDegrees>
              <LongitudeDegrees>-1.6589702479541301727294921875</LongitudeDegrees>
            </Position>
            <AltitudeMeters>238</AltitudeMeters>
            <DistanceMeters>NAN</DistanceMeters>
          </Trackpoint>
          <Trackpoint>
            <Time>2021-08-10T09:36:18.000Z</Time>
            <Position>
              <LatitudeDegrees>43.11998329125344753265380859375</LatitudeDegrees>
              <LongitudeDegrees>-1.65900721214711666107177734375</LongitudeDegrees>
            </Position>
            <AltitudeMeters>238.1999969482421875</AltitudeMeters>
            <DistanceMeters>NAN</DistanceMeters>
          </Trackpoint>
          <Trackpoint>
            <Time>2021-08-10T09:36:19.000Z</Time>
            <Position>
              <LatitudeDegrees>43.11998270452022552490234375</LatitudeDegrees>
              <LongitudeDegrees>-1.65903721936047077178955078125</LongitudeDegrees>
            </Position>
            <AltitudeMeters>238.399993896484375</AltitudeMeters>
            <DistanceMeters>NAN</DistanceMeters>
          </Trackpoint>
          <Trackpoint>
            <Time>2021-08-10T09:36:20.000Z</Time>
            <Position>
              <LatitudeDegrees>43.11998329125344753265380859375</LatitudeDegrees>
              <LongitudeDegrees>-1.65905767120420932769775390625</LongitudeDegrees>
            </Position>
            <AltitudeMeters>238.399993896484375</AltitudeMeters>
            <DistanceMeters>NAN</DistanceMeters>
          </Trackpoint>
          <Trackpoint>
            <Time>2021-08-10T09:36:21.000Z</Time>
            <Position>
              <LatitudeDegrees>43.1199847161769866943359375</LatitudeDegrees>
              <LongitudeDegrees>-1.65908105671405792236328125</LongitudeDegrees>
            </Position>
            <AltitudeMeters>238.600006103515625</AltitudeMeters>
            <DistanceMeters>NAN</DistanceMeters>
          </Trackpoint>
          <Trackpoint>
            <Time>2021-08-10T09:36:22.000Z</Time>
            <Position>
              <LatitudeDegrees>43.11998412944376468658447265625</LatitudeDegrees>
              <LongitudeDegrees>-1.6590999998152256011962890625</LongitudeDegrees>
            </Position>
            <AltitudeMeters>238.600006103515625</AltitudeMeters>
            <DistanceMeters>NAN</DistanceMeters>
          </Trackpoint>
          <Trackpoint>
            <Time>2021-08-10T09:36:23.000Z</Time>
            <Position>
              <LatitudeDegrees>43.119983039796352386474609375</LatitudeDegrees>
              <LongitudeDegrees>-1.6591043584048748016357421875</LongitudeDegrees>
            </Position>
            <AltitudeMeters>238.600006103515625</AltitudeMeters>
            <DistanceMeters>NAN</DistanceMeters>
          </Trackpoint>
          <Trackpoint>
            <Time>2021-08-10T09:36:26.000Z</Time>
            <Position>
              <LatitudeDegrees>43.119983039796352386474609375</LatitudeDegrees>
              <LongitudeDegrees>-1.6591043584048748016357421875</LongitudeDegrees>
            </Position>
            <AltitudeMeters>238.8000030517578125</AltitudeMeters>
            <DistanceMeters>NAN</DistanceMeters>
          </Trackpoint>
          <Trackpoint>
            <Time>2021-08-10T09:36:49.000Z</Time>
            <Position>
              <LatitudeDegrees>43.119988404214382171630859375</LatitudeDegrees>
              <LongitudeDegrees>-1.65911131538450717926025390625</LongitudeDegrees>
            </Position>
            <AltitudeMeters>238.8000030517578125</AltitudeMeters>
            <DistanceMeters>NAN</DistanceMeters>
          </Trackpoint>
          <Trackpoint>
            <Time>2021-08-10T09:36:55.000Z</Time>
            <Position>
              <LatitudeDegrees>43.119988404214382171630859375</LatitudeDegrees>
              <LongitudeDegrees>-1.65911131538450717926025390625</LongitudeDegrees>
            </Position>
            <AltitudeMeters>238.600006103515625</AltitudeMeters>
            <DistanceMeters>NAN</DistanceMeters>
          </Trackpoint>
          <Trackpoint>
            <Time>2021-08-10T09:36:59.000Z</Time>
            <Position>
              <LatitudeDegrees>43.119988404214382171630859375</LatitudeDegrees>
              <LongitudeDegrees>-1.65911131538450717926025390625</LongitudeDegrees>
            </Position>
            <AltitudeMeters>238.600006103515625</AltitudeMeters>
            <DistanceMeters>NAN</DistanceMeters>
          </Trackpoint>
          <Trackpoint>
            <Time>2021-08-10T09:37:31.000Z</Time>
            <Position>
              <LatitudeDegrees>43.11999921686947345733642578125</LatitudeDegrees>
              <LongitudeDegrees>-1.65911600925028324127197265625</LongitudeDegrees>
            </Position>
            <AltitudeMeters>238.399993896484375</AltitudeMeters>
            <DistanceMeters>NAN</DistanceMeters>
          </Trackpoint>
          <Trackpoint>
            <Time>2021-08-10T09:37:53.000Z</Time>
            <Position>
              <LatitudeDegrees>43.11999921686947345733642578125</LatitudeDegrees>
              <LongitudeDegrees>-1.65911600925028324127197265625</LongitudeDegrees>
            </Position>
            <AltitudeMeters>238</AltitudeMeters>
            <DistanceMeters>NAN</DistanceMeters>
          </Trackpoint>
          <Trackpoint>
            <Time>2021-08-10T09:38:08.000Z</Time>
            <Position>
              <LatitudeDegrees>43.1199989654123783111572265625</LatitudeDegrees>
              <LongitudeDegrees>-1.6591191105544567108154296875</LongitudeDegrees>
            </Position>
            <AltitudeMeters>238.399993896484375</AltitudeMeters>
            <DistanceMeters>NAN</DistanceMeters>
          </Trackpoint>
          <Trackpoint>
            <Time>2021-08-10T09:38:11.000Z</Time>
            <Position>
              <LatitudeDegrees>43.12001715414226055145263671875</LatitudeDegrees>
              <LongitudeDegrees>-1.6592119820415973663330078125</LongitudeDegrees>
            </Position>
            <AltitudeMeters>238.8000030517578125</AltitudeMeters>
            <DistanceMeters>NAN</DistanceMeters>
          </Trackpoint>
          <Trackpoint>
            <Time>2021-08-10T09:38:14.000Z</Time>
            <Position>
              <LatitudeDegrees>43.12004313804209232330322265625</LatitudeDegrees>
              <LongitudeDegrees>-1.65930577553808689117431640625</LongitudeDegrees>
            </Position>
            <AltitudeMeters>238.8000030517578125</AltitudeMeters>
            <DistanceMeters>NAN</DistanceMeters>
          </Trackpoint>
          <Trackpoint>
            <Time>2021-08-10T09:38:18.000Z</Time>
            <Position>
              <LatitudeDegrees>43.1200951896607875823974609375</LatitudeDegrees>
              <LongitudeDegrees>-1.65942731313407421112060546875</LongitudeDegrees>
            </Position>
            <AltitudeMeters>239</AltitudeMeters>
            <DistanceMeters>NAN</DistanceMeters>
          </Trackpoint>
          <Trackpoint>
            <Time>2021-08-10T09:38:24.000Z</Time>
            <Position>
              <LatitudeDegrees>43.1202034838497638702392578125</LatitudeDegrees>
              <LongitudeDegrees>-1.659645996987819671630859375</LongitudeDegrees>
            </Position>
            <AltitudeMeters>239</AltitudeMeters>
            <DistanceMeters>NAN</DistanceMeters>
          </Trackpoint>
          <Trackpoint>
            <Time>2021-08-10T09:38:28.000Z</Time>
            <Position>
              <LatitudeDegrees>43.1202349998056888580322265625</LatitudeDegrees>
              <LongitudeDegrees>-1.65983936749398708343505859375</LongitudeDegrees>
            </Position>
            <AltitudeMeters>239.1999969482421875</AltitudeMeters>
            <DistanceMeters>NAN</DistanceMeters>
          </Trackpoint>
          <Trackpoint>
            <Time>2021-08-10T09:38:30.000Z</Time>
            <Position>
              <LatitudeDegrees>43.1202396936714649200439453125</LatitudeDegrees>
              <LongitudeDegrees>-1.65994942188262939453125</LongitudeDegrees>
            </Position>
            <AltitudeMeters>239.1999969482421875</AltitudeMeters>
            <DistanceMeters>NAN</DistanceMeters>
          </Trackpoint>
          <Trackpoint>
            <Time>2021-08-10T09:38:33.000Z</Time>
            <Position>
              <LatitudeDegrees>43.12023726291954517364501953125</LatitudeDegrees>
              <LongitudeDegrees>-1.6600917465984821319580078125</LongitudeDegrees>
            </Position>
            <AltitudeMeters>239.600006103515625</AltitudeMeters>
            <DistanceMeters>NAN</DistanceMeters>
          </Trackpoint>
          <Trackpoint>
            <Time>2021-08-10T09:38:35.000Z</Time>
            <Position>
              <LatitudeDegrees>43.12023927457630634307861328125</LatitudeDegrees>
              <LongitudeDegrees>-1.6602010466158390045166015625</LongitudeDegrees>
            </Position>
            <AltitudeMeters>239.8000030517578125</AltitudeMeters>
            <DistanceMeters>NAN</DistanceMeters>
          </Trackpoint>
          <Trackpoint>
            <Time>2021-08-10T09:38:36.000Z</Time>
            <Position>
              <LatitudeDegrees>43.1202437169849872589111328125</LatitudeDegrees>
              <LongitudeDegrees>-1.66025008074939250946044921875</LongitudeDegrees>
            </Position>
            <AltitudeMeters>240</AltitudeMeters>
            <DistanceMeters>NAN</DistanceMeters>
          </Trackpoint>
          <Trackpoint>
            <Time>2021-08-10T09:38:38.000Z</Time>
            <Position>
              <LatitudeDegrees>43.12025897204875946044921875</LatitudeDegrees>
              <LongitudeDegrees>-1.66034177877008914947509765625</LongitudeDegrees>
            </Position>
            <AltitudeMeters>240.1999969482421875</AltitudeMeters>
            <DistanceMeters>NAN</DistanceMeters>
          </Trackpoint>
          <Trackpoint>
            <Time>2021-08-10T09:38:40.000Z</Time>
            <Position>
              <LatitudeDegrees>43.12027967534959316253662109375</LatitudeDegrees>
              <LongitudeDegrees>-1.6604183055460453033447265625</LongitudeDegrees>
            </Position>
            <AltitudeMeters>240.399993896484375</AltitudeMeters>
            <DistanceMeters>NAN</DistanceMeters>
          </Trackpoint>
          <Trackpoint>
            <Time>2021-08-10T09:38:41.000Z</Time>
            <Position>
              <LatitudeDegrees>43.120289146900177001953125</LatitudeDegrees>
              <LongitudeDegrees>-1.6604535095393657684326171875</LongitudeDegrees>
            </Position>
            <AltitudeMeters>240.600006103515625</AltitudeMeters>
            <DistanceMeters>NAN</DistanceMeters>
          </Trackpoint>
          <Trackpoint>
            <Time>2021-08-10T09:38:42.000Z</Time>
            <Position>
              <LatitudeDegrees>43.12029744498431682586669921875</LatitudeDegrees>
              <LongitudeDegrees>-1.66048125363886356353759765625</LongitudeDegrees>
            </Position>
            <AltitudeMeters>240.8000030517578125</AltitudeMeters>
            <DistanceMeters>NAN</DistanceMeters>
          </Trackpoint>
          <Trackpoint>
            <Time>2021-08-10T09:38:43.000Z</Time>
            <Position>
              <LatitudeDegrees>43.12030733563005924224853515625</LatitudeDegrees>
              <LongitudeDegrees>-1.66051109321415424346923828125</LongitudeDegrees>
            </Position>
            <AltitudeMeters>241.1999969482421875</AltitudeMeters>
            <DistanceMeters>NAN</DistanceMeters>
          </Trackpoint>
          <Trackpoint>
            <Time>2021-08-10T09:38:44.000Z</Time>
            <Position>
              <LatitudeDegrees>43.12031219713389873504638671875</LatitudeDegrees>
              <LongitudeDegrees>-1.66054076515138149261474609375</LongitudeDegrees>
            </Position>
            <AltitudeMeters>241.600006103515625</AltitudeMeters>
            <DistanceMeters>NAN</DistanceMeters>
          </Trackpoint>
          <Trackpoint>
            <Time>2021-08-10T09:38:45.000Z</Time>
            <Position>
              <LatitudeDegrees>43.12032108195126056671142578125</LatitudeDegrees>
              <LongitudeDegrees>-1.66057731024920940399169921875</LongitudeDegrees>
            </Position>
            <AltitudeMeters>241.600006103515625</AltitudeMeters>
            <DistanceMeters>NAN</DistanceMeters>
          </Trackpoint>
          <Trackpoint>
            <Time>2021-08-10T09:38:46.000Z</Time>
            <Position>
              <LatitudeDegrees>43.12032896094024181365966796875</LatitudeDegrees>
              <LongitudeDegrees>-1.660611592233180999755859375</LongitudeDegrees>
            </Position>
            <AltitudeMeters>242</AltitudeMeters>
            <DistanceMeters>NAN</DistanceMeters>
          </Trackpoint>
          <Trackpoint>
            <Time>2021-08-10T09:38:47.000Z</Time>
            <Position>
              <LatitudeDegrees>43.12033533118665218353271484375</LatitudeDegrees>
              <LongitudeDegrees>-1.66063833050429821014404296875</LongitudeDegrees>
            </Position>
            <AltitudeMeters>242.1999969482421875</AltitudeMeters>
            <DistanceMeters>NAN</DistanceMeters>
          </Trackpoint>
          <Trackpoint>
            <Time>2021-08-10T09:38:48.000Z</Time>
            <Position>
              <LatitudeDegrees>43.12034488655626773834228515625</LatitudeDegrees>
              <LongitudeDegrees>-1.66067621670663356781005859375</LongitudeDegrees>
            </Position>
            <AltitudeMeters>242.600006103515625</AltitudeMeters>
            <DistanceMeters>NAN</DistanceMeters>
          </Trackpoint>
          <Trackpoint>
            <Time>2021-08-10T09:38:49.000Z</Time>
            <Position>
              <LatitudeDegrees>43.12035025097429752349853515625</LatitudeDegrees>
              <LongitudeDegrees>-1.66070287115871906280517578125</LongitudeDegrees>
            </Position>
            <AltitudeMeters>242.600006103515625</AltitudeMeters>
            <DistanceMeters>NAN</DistanceMeters>
          </Trackpoint>
          <Trackpoint>
            <Time>2021-08-10T09:38:50.000Z</Time>
            <Position>
              <LatitudeDegrees>43.1203573755919933319091796875</LatitudeDegrees>
              <LongitudeDegrees>-1.66074176318943500518798828125</LongitudeDegrees>
            </Position>
            <AltitudeMeters>243</AltitudeMeters>
            <DistanceMeters>NAN</DistanceMeters>
          </Trackpoint>
          <Trackpoint>
            <Time>2021-08-10T09:38:51.000Z</Time>
            <Position>
              <LatitudeDegrees>43.12036265619099140167236328125</LatitudeDegrees>
              <LongitudeDegrees>-1.66077294386923313140869140625</LongitudeDegrees>
            </Position>
            <AltitudeMeters>243.600006103515625</AltitudeMeters>
            <DistanceMeters>NAN</DistanceMeters>
          </Trackpoint>
          <Trackpoint>
            <Time>2021-08-10T09:38:52.000Z</Time>
            <Position>
              <LatitudeDegrees>43.12036718241870403289794921875</LatitudeDegrees>
              <LongitudeDegrees>-1.6607978381216526031494140625</LongitudeDegrees>
            </Position>
            <AltitudeMeters>243.8000030517578125</AltitudeMeters>
            <DistanceMeters>NAN</DistanceMeters>
          </Trackpoint>
          <Trackpoint>
            <Time>2021-08-10T09:38:53.000Z</Time>
            <Position>
              <LatitudeDegrees>43.120375312864780426025390625</LatitudeDegrees>
              <LongitudeDegrees>-1.66082742623984813690185546875</LongitudeDegrees>
            </Position>
            <AltitudeMeters>243.8000030517578125</AltitudeMeters>
            <DistanceMeters>NAN</DistanceMeters>
          </Trackpoint>
          <Trackpoint>
            <Time>2021-08-10T09:38:54.000Z</Time>
            <Position>
              <LatitudeDegrees>43.12038159929215908050537109375</LatitudeDegrees>
              <LongitudeDegrees>-1.6608615405857563018798828125</LongitudeDegrees>
            </Position>
            <AltitudeMeters>244</AltitudeMeters>
            <DistanceMeters>NAN</DistanceMeters>
          </Trackpoint>
          <Trackpoint>
            <Time>2021-08-10T09:38:55.000Z</Time>
            <Position>
              <LatitudeDegrees>43.120388723909854888916015625</LatitudeDegrees>
              <LongitudeDegrees>-1.6608947329223155975341796875</LongitudeDegrees>
            </Position>
            <AltitudeMeters>244.399993896484375</AltitudeMeters>
            <DistanceMeters>NAN</DistanceMeters>
          </Trackpoint>
          <Trackpoint>
            <Time>2021-08-10T09:38:56.000Z</Time>
            <Position>
              <LatitudeDegrees>43.12039752490818500518798828125</LatitudeDegrees>
              <LongitudeDegrees>-1.6609242372214794158935546875</LongitudeDegrees>
            </Position>
            <AltitudeMeters>244.600006103515625</AltitudeMeters>
            <DistanceMeters>NAN</DistanceMeters>
          </Trackpoint>
          <Trackpoint>
            <Time>2021-08-10T09:38:57.000Z</Time>
            <Position>
              <LatitudeDegrees>43.12040389515459537506103515625</LatitudeDegrees>
              <LongitudeDegrees>-1.6609473712742328643798828125</LongitudeDegrees>
            </Position>
            <AltitudeMeters>244.8000030517578125</AltitudeMeters>
            <DistanceMeters>NAN</DistanceMeters>
          </Trackpoint>
          <Trackpoint>
            <Time>2021-08-10T09:38:58.000Z</Time>
            <Position>
              <LatitudeDegrees>43.12041512690484523773193359375</LatitudeDegrees>
              <LongitudeDegrees>-1.66098140180110931396484375</LongitudeDegrees>
            </Position>
            <AltitudeMeters>245.1999969482421875</AltitudeMeters>
            <DistanceMeters>NAN</DistanceMeters>
          </Trackpoint>
          <Trackpoint>
            <Time>2021-08-10T09:38:59.000Z</Time>
            <Position>
              <LatitudeDegrees>43.12042216770350933074951171875</LatitudeDegrees>
              <LongitudeDegrees>-1.66100361384451389312744140625</LongitudeDegrees>
            </Position>
            <AltitudeMeters>245.1999969482421875</AltitudeMeters>
            <DistanceMeters>NAN</DistanceMeters>
          </Trackpoint>
          <Trackpoint>
            <Time>2021-08-10T09:39:00.000Z</Time>
            <Position>
              <LatitudeDegrees>43.120433650910854339599609375</LatitudeDegrees>
              <LongitudeDegrees>-1.66103412397205829620361328125</LongitudeDegrees>
            </Position>
            <AltitudeMeters>245.600006103515625</AltitudeMeters>
            <DistanceMeters>NAN</DistanceMeters>
          </Trackpoint>
          <Trackpoint>
            <Time>2021-08-10T09:39:01.000Z</Time>
            <Position>
              <LatitudeDegrees>43.1204445473849773406982421875</LatitudeDegrees>
              <LongitudeDegrees>-1.661061532795429229736328125</LongitudeDegrees>
            </Position>
            <AltitudeMeters>245.8000030517578125</AltitudeMeters>
            <DistanceMeters>NAN</DistanceMeters>
          </Trackpoint>
          <Trackpoint>
            <Time>2021-08-10T09:39:02.000Z</Time>
            <Position>
              <LatitudeDegrees>43.12045234255492687225341796875</LatitudeDegrees>
              <LongitudeDegrees>-1.66108173318207263946533203125</LongitudeDegrees>
            </Position>
            <AltitudeMeters>246.1999969482421875</AltitudeMeters>
            <DistanceMeters>NAN</DistanceMeters>
          </Trackpoint>
          <Trackpoint>
            <Time>2021-08-10T09:39:03.000Z</Time>
            <Position>
              <LatitudeDegrees>43.12046357430517673492431640625</LatitudeDegrees>
              <LongitudeDegrees>-1.661105789244174957275390625</LongitudeDegrees>
            </Position>
            <AltitudeMeters>246.399993896484375</AltitudeMeters>
            <DistanceMeters>NAN</DistanceMeters>
          </Trackpoint>
          <Trackpoint>
            <Time>2021-08-10T09:39:04.000Z</Time>
            <Position>
              <LatitudeDegrees>43.12047145329415798187255859375</LatitudeDegrees>
              <LongitudeDegrees>-1.66113101877272129058837890625</LongitudeDegrees>
            </Position>
            <AltitudeMeters>246.600006103515625</AltitudeMeters>
            <DistanceMeters>NAN</DistanceMeters>
          </Trackpoint>
          <Trackpoint>
            <Time>2021-08-10T09:39:05.000Z</Time>
            <Position>
              <LatitudeDegrees>43.1204827688634395599365234375</LatitudeDegrees>
              <LongitudeDegrees>-1.661163456737995147705078125</LongitudeDegrees>
            </Position>
            <AltitudeMeters>246.8000030517578125</AltitudeMeters>
            <DistanceMeters>NAN</DistanceMeters>
          </Trackpoint>
          <Trackpoint>
            <Time>2021-08-10T09:39:06.000Z</Time>
            <Position>
              <LatitudeDegrees>43.12049039639532566070556640625</LatitudeDegrees>
              <LongitudeDegrees>-1.66119136847555637359619140625</LongitudeDegrees>
            </Position>
            <AltitudeMeters>247</AltitudeMeters>
            <DistanceMeters>NAN</DistanceMeters>
          </Trackpoint>
          <Trackpoint>
            <Time>2021-08-10T09:39:07.000Z</Time>
            <Position>
              <LatitudeDegrees>43.12049810774624347686767578125</LatitudeDegrees>
              <LongitudeDegrees>-1.661212742328643798828125</LongitudeDegrees>
            </Position>
            <AltitudeMeters>247.1999969482421875</AltitudeMeters>
            <DistanceMeters>NAN</DistanceMeters>
          </Trackpoint>
          <Trackpoint>
            <Time>2021-08-10T09:39:08.000Z</Time>
            <Position>
              <LatitudeDegrees>43.12050565145909786224365234375</LatitudeDegrees>
              <LongitudeDegrees>-1.66123847477138042449951171875</LongitudeDegrees>
            </Position>
            <AltitudeMeters>247.399993896484375</AltitudeMeters>
            <DistanceMeters>NAN</DistanceMeters>
          </Trackpoint>
          <Trackpoint>
            <Time>2021-08-10T09:39:09.000Z</Time>
            <Position>
              <LatitudeDegrees>43.1205112673342227935791015625</LatitudeDegrees>
              <LongitudeDegrees>-1.6612642072141170501708984375</LongitudeDegrees>
            </Position>
            <AltitudeMeters>247.600006103515625</AltitudeMeters>
            <DistanceMeters>NAN</DistanceMeters>
          </Trackpoint>
          <Trackpoint>
            <Time>2021-08-10T09:39:10.000Z</Time>
            <Position>
              <LatitudeDegrees>43.12051780521869659423828125</LatitudeDegrees>
              <LongitudeDegrees>-1.661292873322963714599609375</LongitudeDegrees>
            </Position>
            <AltitudeMeters>247.8000030517578125</AltitudeMeters>
            <DistanceMeters>NAN</DistanceMeters>
          </Trackpoint>
          <Trackpoint>
            <Time>2021-08-10T09:39:11.000Z</Time>
            <Position>
              <LatitudeDegrees>43.12052694149315357208251953125</LatitudeDegrees>
              <LongitudeDegrees>-1.661317683756351470947265625</LongitudeDegrees>
            </Position>
            <AltitudeMeters>248</AltitudeMeters>
            <DistanceMeters>NAN</DistanceMeters>
          </Trackpoint>
          <Trackpoint>
            <Time>2021-08-10T09:39:12.000Z</Time>
            <Position>
              <LatitudeDegrees>43.12053523957729339599609375</LatitudeDegrees>
              <LongitudeDegrees>-1.6613455116748809814453125</LongitudeDegrees>
            </Position>
            <AltitudeMeters>248.399993896484375</AltitudeMeters>
            <DistanceMeters>NAN</DistanceMeters>
          </Trackpoint>
          <Trackpoint>
            <Time>2021-08-10T09:39:13.000Z</Time>
            <Position>
              <LatitudeDegrees>43.120542950928211212158203125</LatitudeDegrees>
              <LongitudeDegrees>-1.66136940009891986846923828125</LongitudeDegrees>
            </Position>
            <AltitudeMeters>248.600006103515625</AltitudeMeters>
            <DistanceMeters>NAN</DistanceMeters>
          </Trackpoint>
          <Trackpoint>
            <Time>2021-08-10T09:39:14.000Z</Time>
            <Position>
              <LatitudeDegrees>43.12055342830717563629150390625</LatitudeDegrees>
              <LongitudeDegrees>-1.66139848530292510986328125</LongitudeDegrees>
            </Position>
            <AltitudeMeters>248.8000030517578125</AltitudeMeters>
            <DistanceMeters>NAN</DistanceMeters>
          </Trackpoint>
          <Trackpoint>
            <Time>2021-08-10T09:39:15.000Z</Time>
            <Position>
              <LatitudeDegrees>43.12055912800133228302001953125</LatitudeDegrees>
              <LongitudeDegrees>-1.66142530739307403564453125</LongitudeDegrees>
            </Position>
            <AltitudeMeters>249</AltitudeMeters>
            <DistanceMeters>NAN</DistanceMeters>
          </Trackpoint>
          <Trackpoint>
            <Time>2021-08-10T09:39:16.000Z</Time>
            <Position>
              <LatitudeDegrees>43.12056616879999637603759765625</LatitudeDegrees>
              <LongitudeDegrees>-1.661452464759349822998046875</LongitudeDegrees>
            </Position>
            <AltitudeMeters>249.399993896484375</AltitudeMeters>
            <DistanceMeters>NAN</DistanceMeters>
          </Trackpoint>
          <Trackpoint>
            <Time>2021-08-10T09:39:17.000Z</Time>
            <Position>
              <LatitudeDegrees>43.12057337723672389984130859375</LatitudeDegrees>
              <LongitudeDegrees>-1.6614794544875621795654296875</LongitudeDegrees>
            </Position>
            <AltitudeMeters>249.399993896484375</AltitudeMeters>
            <DistanceMeters>NAN</DistanceMeters>
          </Trackpoint>
          <Trackpoint>
            <Time>2021-08-10T09:39:18.000Z</Time>
            <Position>
              <LatitudeDegrees>43.12057924456894397735595703125</LatitudeDegrees>
              <LongitudeDegrees>-1.6615082882344722747802734375</LongitudeDegrees>
            </Position>
            <AltitudeMeters>249.8000030517578125</AltitudeMeters>
            <DistanceMeters>NAN</DistanceMeters>
          </Trackpoint>
          <Trackpoint>
            <Time>2021-08-10T09:39:19.000Z</Time>
            <Position>
              <LatitudeDegrees>43.120582513511180877685546875</LatitudeDegrees>
              <LongitudeDegrees>-1.66153066791594028472900390625</LongitudeDegrees>
            </Position>
            <AltitudeMeters>250</AltitudeMeters>
            <DistanceMeters>NAN</DistanceMeters>
          </Trackpoint>
          <Trackpoint>
            <Time>2021-08-10T09:39:20.000Z</Time>
            <Position>
              <LatitudeDegrees>43.12058888375759124755859375</LatitudeDegrees>
              <LongitudeDegrees>-1.66156436316668987274169921875</LongitudeDegrees>
            </Position>
            <AltitudeMeters>250.399993896484375</AltitudeMeters>
            <DistanceMeters>NAN</DistanceMeters>
          </Trackpoint>
          <Trackpoint>
            <Time>2021-08-10T09:39:21.000Z</Time>
            <Position>
              <LatitudeDegrees>43.12059156596660614013671875</LatitudeDegrees>
              <LongitudeDegrees>-1.6615964658558368682861328125</LongitudeDegrees>
            </Position>
            <AltitudeMeters>250.600006103515625</AltitudeMeters>
            <DistanceMeters>NAN</DistanceMeters>
          </Trackpoint>
          <Trackpoint>
            <Time>2021-08-10T09:39:22.000Z</Time>
            <Position>
              <LatitudeDegrees>43.1205967627465724945068359375</LatitudeDegrees>
              <LongitudeDegrees>-1.66162513196468353271484375</LongitudeDegrees>
            </Position>
            <AltitudeMeters>250.8000030517578125</AltitudeMeters>
            <DistanceMeters>NAN</DistanceMeters>
          </Trackpoint>
          <Trackpoint>
            <Time>2021-08-10T09:39:23.000Z</Time>
            <Position>
              <LatitudeDegrees>43.12060103751718997955322265625</LatitudeDegrees>
              <LongitudeDegrees>-1.66164793074131011962890625</LongitudeDegrees>
            </Position>
            <AltitudeMeters>251</AltitudeMeters>
            <DistanceMeters>NAN</DistanceMeters>
          </Trackpoint>
          <Trackpoint>
            <Time>2021-08-10T09:39:24.000Z</Time>
            <Position>
              <LatitudeDegrees>43.12060656957328319549560546875</LatitudeDegrees>
              <LongitudeDegrees>-1.66168170981109142303466796875</LongitudeDegrees>
            </Position>
            <AltitudeMeters>251</AltitudeMeters>
            <DistanceMeters>NAN</DistanceMeters>
          </Trackpoint>
          <Trackpoint>
            <Time>2021-08-10T09:39:25.000Z</Time>
            <Position>
              <LatitudeDegrees>43.1206098385155200958251953125</LatitudeDegrees>
              <LongitudeDegrees>-1.66171104647219181060791015625</LongitudeDegrees>
            </Position>
            <AltitudeMeters>251.399993896484375</AltitudeMeters>
            <DistanceMeters>NAN</DistanceMeters>
          </Trackpoint>
          <Trackpoint>
            <Time>2021-08-10T09:39:26.000Z</Time>
            <Position>
              <LatitudeDegrees>43.12061528675258159637451171875</LatitudeDegrees>
              <LongitudeDegrees>-1.66174038313329219818115234375</LongitudeDegrees>
            </Position>
            <AltitudeMeters>251.399993896484375</AltitudeMeters>
            <DistanceMeters>NAN</DistanceMeters>
          </Trackpoint>
          <Trackpoint>
            <Time>2021-08-10T09:39:27.000Z</Time>
            <Position>
              <LatitudeDegrees>43.12061796896159648895263671875</LatitudeDegrees>
              <LongitudeDegrees>-1.66176469065248966217041015625</LongitudeDegrees>
            </Position>
            <AltitudeMeters>251.600006103515625</AltitudeMeters>
            <DistanceMeters>NAN</DistanceMeters>
          </Trackpoint>
          <Trackpoint>
            <Time>2021-08-10T09:39:28.000Z</Time>
            <Position>
              <LatitudeDegrees>43.12062215991318225860595703125</LatitudeDegrees>
              <LongitudeDegrees>-1.66179369203746318817138671875</LongitudeDegrees>
            </Position>
            <AltitudeMeters>251.600006103515625</AltitudeMeters>
            <DistanceMeters>NAN</DistanceMeters>
          </Trackpoint>
          <Trackpoint>
            <Time>2021-08-10T09:39:29.000Z</Time>
            <Position>
              <LatitudeDegrees>43.12062584795057773590087890625</LatitudeDegrees>
              <LongitudeDegrees>-1.66182671673595905303955078125</LongitudeDegrees>
            </Position>
            <AltitudeMeters>251.8000030517578125</AltitudeMeters>
            <DistanceMeters>NAN</DistanceMeters>
          </Trackpoint>
          <Trackpoint>
            <Time>2021-08-10T09:39:30.000Z</Time>
            <Position>
              <LatitudeDegrees>43.120630793273448944091796875</LatitudeDegrees>
              <LongitudeDegrees>-1.66186694987118244171142578125</LongitudeDegrees>
            </Position>
            <AltitudeMeters>252</AltitudeMeters>
            <DistanceMeters>NAN</DistanceMeters>
          </Trackpoint>
          <Trackpoint>
            <Time>2021-08-10T09:39:31.000Z</Time>
            <Position>
              <LatitudeDegrees>43.1206343136727809906005859375</LatitudeDegrees>
              <LongitudeDegrees>-1.66189863346517086029052734375</LongitudeDegrees>
            </Position>
            <AltitudeMeters>252</AltitudeMeters>
            <DistanceMeters>NAN</DistanceMeters>
          </Trackpoint>
          <Trackpoint>
            <Time>2021-08-10T09:39:32.000Z</Time>
            <Position>
              <LatitudeDegrees>43.12063791789114475250244140625</LatitudeDegrees>
              <LongitudeDegrees>-1.66193115524947643280029296875</LongitudeDegrees>
            </Position>
            <AltitudeMeters>252</AltitudeMeters>
            <DistanceMeters>NAN</DistanceMeters>
          </Trackpoint>
          <Trackpoint>
            <Time>2021-08-10T09:39:33.000Z</Time>
            <Position>
              <LatitudeDegrees>43.12064328230917453765869140625</LatitudeDegrees>
              <LongitudeDegrees>-1.66196434758603572845458984375</LongitudeDegrees>
            </Position>
            <AltitudeMeters>252.1999969482421875</AltitudeMeters>
            <DistanceMeters>NAN</DistanceMeters>
          </Trackpoint>
          <Trackpoint>
            <Time>2021-08-10T09:39:34.000Z</Time>
            <Position>
              <LatitudeDegrees>43.1206499040126800537109375</LatitudeDegrees>
              <LongitudeDegrees>-1.66199603118002414703369140625</LongitudeDegrees>
            </Position>
            <AltitudeMeters>252.1999969482421875</AltitudeMeters>
            <DistanceMeters>NAN</DistanceMeters>
          </Trackpoint>
          <Trackpoint>
            <Time>2021-08-10T09:39:35.000Z</Time>
            <Position>
              <LatitudeDegrees>43.12065769918262958526611328125</LatitudeDegrees>
              <LongitudeDegrees>-1.66202620603144168853759765625</LongitudeDegrees>
            </Position>
            <AltitudeMeters>252.399993896484375</AltitudeMeters>
            <DistanceMeters>NAN</DistanceMeters>
          </Trackpoint>
          <Trackpoint>
            <Time>2021-08-10T09:39:36.000Z</Time>
            <Position>
              <LatitudeDegrees>43.1206624768674373626708984375</LatitudeDegrees>
              <LongitudeDegrees>-1.662056632339954376220703125</LongitudeDegrees>
            </Position>
            <AltitudeMeters>252.399993896484375</AltitudeMeters>
            <DistanceMeters>NAN</DistanceMeters>
          </Trackpoint>
          <Trackpoint>
            <Time>2021-08-10T09:39:37.000Z</Time>
            <Position>
              <LatitudeDegrees>43.12066725455224514007568359375</LatitudeDegrees>
              <LongitudeDegrees>-1.6620883159339427947998046875</LongitudeDegrees>
            </Position>
            <AltitudeMeters>252.600006103515625</AltitudeMeters>
            <DistanceMeters>NAN</DistanceMeters>
          </Trackpoint>
          <Trackpoint>
            <Time>2021-08-10T09:39:38.000Z</Time>
            <Position>
              <LatitudeDegrees>43.1206735409796237945556640625</LatitudeDegrees>
              <LongitudeDegrees>-1.662117652595043182373046875</LongitudeDegrees>
            </Position>
            <AltitudeMeters>252.8000030517578125</AltitudeMeters>
            <DistanceMeters>NAN</DistanceMeters>
          </Trackpoint>
          <Trackpoint>
            <Time>2021-08-10T09:39:39.000Z</Time>
            <Position>
              <LatitudeDegrees>43.1206792406737804412841796875</LatitudeDegrees>
              <LongitudeDegrees>-1.66214137338101863861083984375</LongitudeDegrees>
            </Position>
            <AltitudeMeters>252.8000030517578125</AltitudeMeters>
            <DistanceMeters>NAN</DistanceMeters>
          </Trackpoint>
          <Trackpoint>
            <Time>2021-08-10T09:39:40.000Z</Time>
            <Position>
              <LatitudeDegrees>43.120689131319522857666015625</LatitudeDegrees>
              <LongitudeDegrees>-1.662180013954639434814453125</LongitudeDegrees>
            </Position>
            <AltitudeMeters>253</AltitudeMeters>
            <DistanceMeters>NAN</DistanceMeters>
          </Trackpoint>
          <Trackpoint>
            <Time>2021-08-10T09:39:41.000Z</Time>
            <Position>
              <LatitudeDegrees>43.1206963397562503814697265625</LatitudeDegrees>
              <LongitudeDegrees>-1.66221345774829387664794921875</LongitudeDegrees>
            </Position>
            <AltitudeMeters>253</AltitudeMeters>
            <DistanceMeters>NAN</DistanceMeters>
          </Trackpoint>
          <Trackpoint>
            <Time>2021-08-10T09:39:42.000Z</Time>
            <Position>
              <LatitudeDegrees>43.12070195563137531280517578125</LatitudeDegrees>
              <LongitudeDegrees>-1.6622494161128997802734375</LongitudeDegrees>
            </Position>
            <AltitudeMeters>253.1999969482421875</AltitudeMeters>
            <DistanceMeters>NAN</DistanceMeters>
          </Trackpoint>
          <Trackpoint>
            <Time>2021-08-10T09:39:43.000Z</Time>
            <Position>
              <LatitudeDegrees>43.12070447020232677459716796875</LatitudeDegrees>
              <LongitudeDegrees>-1.66227766312658786773681640625</LongitudeDegrees>
            </Position>
            <AltitudeMeters>253.1999969482421875</AltitudeMeters>
            <DistanceMeters>NAN</DistanceMeters>
          </Trackpoint>
          <Trackpoint>
            <Time>2021-08-10T09:39:44.000Z</Time>
            <Position>
              <LatitudeDegrees>43.1207084096968173980712890625</LatitudeDegrees>
              <LongitudeDegrees>-1.66231588460505008697509765625</LongitudeDegrees>
            </Position>
            <AltitudeMeters>253.399993896484375</AltitudeMeters>
            <DistanceMeters>NAN</DistanceMeters>
          </Trackpoint>
          <Trackpoint>
            <Time>2021-08-10T09:39:45.000Z</Time>
            <Position>
              <LatitudeDegrees>43.12071385793387889862060546875</LatitudeDegrees>
              <LongitudeDegrees>-1.6623608954250812530517578125</LongitudeDegrees>
            </Position>
            <AltitudeMeters>253.399993896484375</AltitudeMeters>
            <DistanceMeters>NAN</DistanceMeters>
          </Trackpoint>
          <Trackpoint>
            <Time>2021-08-10T09:39:46.000Z</Time>
            <Position>
              <LatitudeDegrees>43.12071628868579864501953125</LatitudeDegrees>
              <LongitudeDegrees>-1.66240037418901920318603515625</LongitudeDegrees>
            </Position>
            <AltitudeMeters>253.399993896484375</AltitudeMeters>
            <DistanceMeters>NAN</DistanceMeters>
          </Trackpoint>
          <Trackpoint>
            <Time>2021-08-10T09:39:47.000Z</Time>
            <Position>
              <LatitudeDegrees>43.1207167915999889373779296875</LatitudeDegrees>
              <LongitudeDegrees>-1.662438847124576568603515625</LongitudeDegrees>
            </Position>
            <AltitudeMeters>253.399993896484375</AltitudeMeters>
            <DistanceMeters>NAN</DistanceMeters>
          </Trackpoint>
          <Trackpoint>
            <Time>2021-08-10T09:39:48.000Z</Time>
            <Position>
              <LatitudeDegrees>43.1207181327044963836669921875</LatitudeDegrees>
              <LongitudeDegrees>-1.66247430257499217987060546875</LongitudeDegrees>
            </Position>
            <AltitudeMeters>253.399993896484375</AltitudeMeters>
            <DistanceMeters>NAN</DistanceMeters>
          </Trackpoint>
          <Trackpoint>
            <Time>2021-08-10T09:39:49.000Z</Time>
            <Position>
              <LatitudeDegrees>43.12071855179965496063232421875</LatitudeDegrees>
              <LongitudeDegrees>-1.6625020466744899749755859375</LongitudeDegrees>
            </Position>
            <AltitudeMeters>253.399993896484375</AltitudeMeters>
            <DistanceMeters>NAN</DistanceMeters>
          </Trackpoint>
          <Trackpoint>
            <Time>2021-08-10T09:39:50.000Z</Time>
            <Position>
              <LatitudeDegrees>43.12071804888546466827392578125</LatitudeDegrees>
              <LongitudeDegrees>-1.662541441619396209716796875</LongitudeDegrees>
            </Position>
            <AltitudeMeters>253.399993896484375</AltitudeMeters>
            <DistanceMeters>NAN</DistanceMeters>
          </Trackpoint>
          <Trackpoint>
            <Time>2021-08-10T09:39:51.000Z</Time>
            <Position>
              <LatitudeDegrees>43.12071503140032291412353515625</LatitudeDegrees>
              <LongitudeDegrees>-1.66257253848016262054443359375</LongitudeDegrees>
            </Position>
            <AltitudeMeters>253.399993896484375</AltitudeMeters>
            <DistanceMeters>NAN</DistanceMeters>
          </Trackpoint>
          <Trackpoint>
            <Time>2021-08-10T09:39:52.000Z</Time>
            <Position>
              <LatitudeDegrees>43.12071402557194232940673828125</LatitudeDegrees>
              <LongitudeDegrees>-1.66260371915996074676513671875</LongitudeDegrees>
            </Position>
            <AltitudeMeters>253.399993896484375</AltitudeMeters>
            <DistanceMeters>NAN</DistanceMeters>
          </Trackpoint>
          <Trackpoint>
            <Time>2021-08-10T09:39:53.000Z</Time>
            <Position>
              <LatitudeDegrees>43.1207147799432277679443359375</LatitudeDegrees>
              <LongitudeDegrees>-1.66262936778366565704345703125</LongitudeDegrees>
            </Position>
            <AltitudeMeters>253.600006103515625</AltitudeMeters>
            <DistanceMeters>NAN</DistanceMeters>
          </Trackpoint>
          <Trackpoint>
            <Time>2021-08-10T09:39:54.000Z</Time>
            <Position>
              <LatitudeDegrees>43.1207181327044963836669921875</LatitudeDegrees>
              <LongitudeDegrees>-1.66265778243541717529296875</LongitudeDegrees>
            </Position>
            <AltitudeMeters>253.600006103515625</AltitudeMeters>
            <DistanceMeters>NAN</DistanceMeters>
          </Trackpoint>
          <Trackpoint>
            <Time>2021-08-10T09:39:55.000Z</Time>
            <Position>
              <LatitudeDegrees>43.1207191385328769683837890625</LatitudeDegrees>
              <LongitudeDegrees>-1.6626847721636295318603515625</LongitudeDegrees>
            </Position>
            <AltitudeMeters>253.600006103515625</AltitudeMeters>
            <DistanceMeters>NAN</DistanceMeters>
          </Trackpoint>
          <Trackpoint>
            <Time>2021-08-10T09:39:56.000Z</Time>
            <Position>
              <LatitudeDegrees>43.12071721069514751434326171875</LatitudeDegrees>
              <LongitudeDegrees>-1.66271402500569820404052734375</LongitudeDegrees>
            </Position>
            <AltitudeMeters>254</AltitudeMeters>
            <DistanceMeters>NAN</DistanceMeters>
          </Trackpoint>
          <Trackpoint>
            <Time>2021-08-10T09:39:57.000Z</Time>
            <Position>
              <LatitudeDegrees>43.12071737833321094512939453125</LatitudeDegrees>
              <LongitudeDegrees>-1.66274269111454486846923828125</LongitudeDegrees>
            </Position>
            <AltitudeMeters>254</AltitudeMeters>
            <DistanceMeters>NAN</DistanceMeters>
          </Trackpoint>
          <Trackpoint>
            <Time>2021-08-10T09:39:58.000Z</Time>
            <Position>
              <LatitudeDegrees>43.1207141093909740447998046875</LatitudeDegrees>
              <LongitudeDegrees>-1.66276641190052032470703125</LongitudeDegrees>
            </Position>
            <AltitudeMeters>254.1999969482421875</AltitudeMeters>
            <DistanceMeters>NAN</DistanceMeters>
          </Trackpoint>
          <Trackpoint>
            <Time>2021-08-10T09:39:59.000Z</Time>
            <Position>
              <LatitudeDegrees>43.12071092426776885986328125</LatitudeDegrees>
              <LongitudeDegrees>-1.66279532946646213531494140625</LongitudeDegrees>
            </Position>
            <AltitudeMeters>254.1999969482421875</AltitudeMeters>
            <DistanceMeters>NAN</DistanceMeters>
          </Trackpoint>
          <Trackpoint>
            <Time>2021-08-10T09:40:00.000Z</Time>
            <Position>
              <LatitudeDegrees>43.12070732004940509796142578125</LatitudeDegrees>
              <LongitudeDegrees>-1.6628356464207172393798828125</LongitudeDegrees>
            </Position>
            <AltitudeMeters>254.399993896484375</AltitudeMeters>
            <DistanceMeters>NAN</DistanceMeters>
          </Trackpoint>
          <Trackpoint>
            <Time>2021-08-10T09:40:03.000Z</Time>
            <Position>
              <LatitudeDegrees>43.12070279382169246673583984375</LatitudeDegrees>
              <LongitudeDegrees>-1.66294167749583721160888671875</LongitudeDegrees>
            </Position>
            <AltitudeMeters>254.399993896484375</AltitudeMeters>
            <DistanceMeters>NAN</DistanceMeters>
          </Trackpoint>
          <Trackpoint>
            <Time>2021-08-10T09:40:05.000Z</Time>
            <Position>
              <LatitudeDegrees>43.12070153653621673583984375</LatitudeDegrees>
              <LongitudeDegrees>-1.66299984790384769439697265625</LongitudeDegrees>
            </Position>
            <AltitudeMeters>254.399993896484375</AltitudeMeters>
            <DistanceMeters>NAN</DistanceMeters>
          </Trackpoint>
          <Trackpoint>
            <Time>2021-08-10T09:40:06.000Z</Time>
            <Position>
              <LatitudeDegrees>43.12070329673588275909423828125</LatitudeDegrees>
              <LongitudeDegrees>-1.6630160249769687652587890625</LongitudeDegrees>
            </Position>
            <AltitudeMeters>254.399993896484375</AltitudeMeters>
            <DistanceMeters>NAN</DistanceMeters>
          </Trackpoint>
          <Trackpoint>
            <Time>2021-08-10T09:40:07.000Z</Time>
            <Position>
              <LatitudeDegrees>43.12070597894489765167236328125</LatitudeDegrees>
              <LongitudeDegrees>-1.66303035803139209747314453125</LongitudeDegrees>
            </Position>
            <AltitudeMeters>254.399993896484375</AltitudeMeters>
            <DistanceMeters>NAN</DistanceMeters>
          </Trackpoint>
          <Trackpoint>
            <Time>2021-08-10T09:40:08.000Z</Time>
            <Position>
              <LatitudeDegrees>43.1207020394504070281982421875</LatitudeDegrees>
              <LongitudeDegrees>-1.6630384884774684906005859375</LongitudeDegrees>
            </Position>
            <AltitudeMeters>254.399993896484375</AltitudeMeters>
            <DistanceMeters>NAN</DistanceMeters>
          </Trackpoint>
          <Trackpoint>
            <Time>2021-08-10T09:40:09.000Z</Time>
            <Position>
              <LatitudeDegrees>43.12069491483271121978759765625</LatitudeDegrees>
              <LongitudeDegrees>-1.663047373294830322265625</LongitudeDegrees>
            </Position>
            <AltitudeMeters>254.399993896484375</AltitudeMeters>
            <DistanceMeters>NAN</DistanceMeters>
          </Trackpoint>
          <Trackpoint>
            <Time>2021-08-10T09:40:10.000Z</Time>
            <Position>
              <LatitudeDegrees>43.12068938277661800384521484375</LatitudeDegrees>
              <LongitudeDegrees>-1.6630643047392368316650390625</LongitudeDegrees>
            </Position>
            <AltitudeMeters>254.399993896484375</AltitudeMeters>
            <DistanceMeters>NAN</DistanceMeters>
          </Trackpoint>
          <Trackpoint>
            <Time>2021-08-10T09:40:11.000Z</Time>
            <Position>
              <LatitudeDegrees>43.1206899695098400115966796875</LatitudeDegrees>
              <LongitudeDegrees>-1.6630840860307216644287109375</LongitudeDegrees>
            </Position>
            <AltitudeMeters>254.399993896484375</AltitudeMeters>
            <DistanceMeters>NAN</DistanceMeters>
          </Trackpoint>
          <Trackpoint>
            <Time>2021-08-10T09:40:12.000Z</Time>
            <Position>
              <LatitudeDegrees>43.12069089151918888092041015625</LatitudeDegrees>
              <LongitudeDegrees>-1.663104705512523651123046875</LongitudeDegrees>
            </Position>
            <AltitudeMeters>254.399993896484375</AltitudeMeters>
            <DistanceMeters>NAN</DistanceMeters>
          </Trackpoint>
          <Trackpoint>
            <Time>2021-08-10T09:40:13.000Z</Time>
            <Position>
              <LatitudeDegrees>43.12069240026175975799560546875</LatitudeDegrees>
              <LongitudeDegrees>-1.66312473826110363006591796875</LongitudeDegrees>
            </Position>
            <AltitudeMeters>254.399993896484375</AltitudeMeters>
            <DistanceMeters>NAN</DistanceMeters>
          </Trackpoint>
          <Trackpoint>
            <Time>2021-08-10T09:40:15.000Z</Time>
            <Position>
              <LatitudeDegrees>43.12069558538496494293212890625</LatitudeDegrees>
              <LongitudeDegrees>-1.66316044516861438751220703125</LongitudeDegrees>
            </Position>
            <AltitudeMeters>254.600006103515625</AltitudeMeters>
            <DistanceMeters>NAN</DistanceMeters>
          </Trackpoint>
          <Trackpoint>
            <Time>2021-08-10T09:40:16.000Z</Time>
            <Position>
              <LatitudeDegrees>43.12069809995591640472412109375</LatitudeDegrees>
              <LongitudeDegrees>-1.663180477917194366455078125</LongitudeDegrees>
            </Position>
            <AltitudeMeters>254.600006103515625</AltitudeMeters>
            <DistanceMeters>NAN</DistanceMeters>
          </Trackpoint>
          <Trackpoint>
            <Time>2021-08-10T09:40:22.000Z</Time>
            <Position>
              <LatitudeDegrees>43.12068804167211055755615234375</LatitudeDegrees>
              <LongitudeDegrees>-1.66329790838062763214111328125</LongitudeDegrees>
            </Position>
            <AltitudeMeters>254.399993896484375</AltitudeMeters>
            <DistanceMeters>NAN</DistanceMeters>
          </Trackpoint>
          <Trackpoint>
            <Time>2021-08-10T09:40:23.000Z</Time>
            <Position>
              <LatitudeDegrees>43.120685778558254241943359375</LatitudeDegrees>
              <LongitudeDegrees>-1.66330796666443347930908203125</LongitudeDegrees>
            </Position>
            <AltitudeMeters>254.600006103515625</AltitudeMeters>
            <DistanceMeters>NAN</DistanceMeters>
          </Trackpoint>
          <Trackpoint>
            <Time>2021-08-10T09:40:24.000Z</Time>
            <Position>
              <LatitudeDegrees>43.12068301253020763397216796875</LatitudeDegrees>
              <LongitudeDegrees>-1.663323305547237396240234375</LongitudeDegrees>
            </Position>
            <AltitudeMeters>254.399993896484375</AltitudeMeters>
            <DistanceMeters>NAN</DistanceMeters>
          </Trackpoint>
          <Trackpoint>
            <Time>2021-08-10T09:40:25.000Z</Time>
            <Position>
              <LatitudeDegrees>43.12068519182503223419189453125</LatitudeDegrees>
              <LongitudeDegrees>-1.6633415780961513519287109375</LongitudeDegrees>
            </Position>
            <AltitudeMeters>254.600006103515625</AltitudeMeters>
            <DistanceMeters>NAN</DistanceMeters>
          </Trackpoint>
          <Trackpoint>
            <Time>2021-08-10T09:40:26.000Z</Time>
            <Position>
              <LatitudeDegrees>43.12068267725408077239990234375</LatitudeDegrees>
              <LongitudeDegrees>-1.6633593477308750152587890625</LongitudeDegrees>
            </Position>
            <AltitudeMeters>254.600006103515625</AltitudeMeters>
            <DistanceMeters>NAN</DistanceMeters>
          </Trackpoint>
          <Trackpoint>
            <Time>2021-08-10T09:40:27.000Z</Time>
            <Position>
              <LatitudeDegrees>43.12067664228379726409912109375</LatitudeDegrees>
              <LongitudeDegrees>-1.6633811406791210174560546875</LongitudeDegrees>
            </Position>
            <AltitudeMeters>254.600006103515625</AltitudeMeters>
            <DistanceMeters>NAN</DistanceMeters>
          </Trackpoint>
          <Trackpoint>
            <Time>2021-08-10T09:40:29.000Z</Time>
            <Position>
              <LatitudeDegrees>43.1206735409796237945556640625</LatitudeDegrees>
              <LongitudeDegrees>-1.6634203679859638214111328125</LongitudeDegrees>
            </Position>
            <AltitudeMeters>254.600006103515625</AltitudeMeters>
            <DistanceMeters>NAN</DistanceMeters>
          </Trackpoint>
          <Trackpoint>
            <Time>2021-08-10T09:40:30.000Z</Time>
            <Position>
              <LatitudeDegrees>43.12066708691418170928955078125</LatitudeDegrees>
              <LongitudeDegrees>-1.6634485311806201934814453125</LongitudeDegrees>
            </Position>
            <AltitudeMeters>254.600006103515625</AltitudeMeters>
            <DistanceMeters>NAN</DistanceMeters>
          </Trackpoint>
          <Trackpoint>
            <Time>2021-08-10T09:40:31.000Z</Time>
            <Position>
              <LatitudeDegrees>43.12066071666777133941650390625</LatitudeDegrees>
              <LongitudeDegrees>-1.6634773649275302886962890625</LongitudeDegrees>
            </Position>
            <AltitudeMeters>254.600006103515625</AltitudeMeters>
            <DistanceMeters>NAN</DistanceMeters>
          </Trackpoint>
          <Trackpoint>
            <Time>2021-08-10T09:40:32.000Z</Time>
            <Position>
              <LatitudeDegrees>43.12065199948847293853759765625</LatitudeDegrees>
              <LongitudeDegrees>-1.6635041870176792144775390625</LongitudeDegrees>
            </Position>
            <AltitudeMeters>254.600006103515625</AltitudeMeters>
            <DistanceMeters>NAN</DistanceMeters>
          </Trackpoint>
          <Trackpoint>
            <Time>2021-08-10T09:40:34.000Z</Time>
            <Position>
              <LatitudeDegrees>43.12064428813755512237548828125</LatitudeDegrees>
              <LongitudeDegrees>-1.6635346971452236175537109375</LongitudeDegrees>
            </Position>
            <AltitudeMeters>254.399993896484375</AltitudeMeters>
            <DistanceMeters>NAN</DistanceMeters>
          </Trackpoint>
          <Trackpoint>
            <Time>2021-08-10T09:40:41.000Z</Time>
            <Position>
              <LatitudeDegrees>43.12061763368546962738037109375</LatitudeDegrees>
              <LongitudeDegrees>-1.6637299954891204833984375</LongitudeDegrees>
            </Position>
            <AltitudeMeters>254.399993896484375</AltitudeMeters>
            <DistanceMeters>NAN</DistanceMeters>
          </Trackpoint>
          <Trackpoint>
            <Time>2021-08-10T09:40:45.000Z</Time>
            <Position>
              <LatitudeDegrees>43.120589219033718109130859375</LatitudeDegrees>
              <LongitudeDegrees>-1.66390609927475452423095703125</LongitudeDegrees>
            </Position>
            <AltitudeMeters>254</AltitudeMeters>
            <DistanceMeters>NAN</DistanceMeters>
          </Trackpoint>
          <Trackpoint>
            <Time>2021-08-10T09:40:49.000Z</Time>
            <Position>
              <LatitudeDegrees>43.1205853633582592010498046875</LatitudeDegrees>
              <LongitudeDegrees>-1.66411648504436016082763671875</LongitudeDegrees>
            </Position>
            <AltitudeMeters>253.399993896484375</AltitudeMeters>
            <DistanceMeters>NAN</DistanceMeters>
          </Trackpoint>
          <Trackpoint>
            <Time>2021-08-10T09:40:50.000Z</Time>
            <Position>
              <LatitudeDegrees>43.12058460898697376251220703125</LatitudeDegrees>
              <LongitudeDegrees>-1.66416040621697902679443359375</LongitudeDegrees>
            </Position>
            <AltitudeMeters>253.399993896484375</AltitudeMeters>
            <DistanceMeters>NAN</DistanceMeters>
          </Trackpoint>
          <Trackpoint>
            <Time>2021-08-10T09:40:52.000Z</Time>
            <Position>
              <LatitudeDegrees>43.12058888375759124755859375</LatitudeDegrees>
              <LongitudeDegrees>-1.664268113672733306884765625</LongitudeDegrees>
            </Position>
            <AltitudeMeters>253</AltitudeMeters>
            <DistanceMeters>NAN</DistanceMeters>
          </Trackpoint>
          <Trackpoint>
            <Time>2021-08-10T09:40:58.000Z</Time>
            <Position>
              <LatitudeDegrees>43.12063557095825672149658203125</LatitudeDegrees>
              <LongitudeDegrees>-1.6645294614136219024658203125</LongitudeDegrees>
            </Position>
            <AltitudeMeters>252.399993896484375</AltitudeMeters>
            <DistanceMeters>NAN</DistanceMeters>
          </Trackpoint>
          <Trackpoint>
            <Time>2021-08-10T09:40:59.000Z</Time>
            <Position>
              <LatitudeDegrees>43.120644204318523406982421875</LatitudeDegrees>
              <LongitudeDegrees>-1.66456609033048152923583984375</LongitudeDegrees>
            </Position>
            <AltitudeMeters>252.399993896484375</AltitudeMeters>
            <DistanceMeters>NAN</DistanceMeters>
          </Trackpoint>
          <Trackpoint>
            <Time>2021-08-10T09:41:02.000Z</Time>
            <Position>
              <LatitudeDegrees>43.1206648238003253936767578125</LatitudeDegrees>
              <LongitudeDegrees>-1.664664410054683685302734375</LongitudeDegrees>
            </Position>
            <AltitudeMeters>252.1999969482421875</AltitudeMeters>
            <DistanceMeters>NAN</DistanceMeters>
          </Trackpoint>
          <Trackpoint>
            <Time>2021-08-10T09:41:03.000Z</Time>
            <Position>
              <LatitudeDegrees>43.1206705234944820404052734375</LatitudeDegrees>
              <LongitudeDegrees>-1.66469047777354717254638671875</LongitudeDegrees>
            </Position>
            <AltitudeMeters>252</AltitudeMeters>
            <DistanceMeters>NAN</DistanceMeters>
          </Trackpoint>
          <Trackpoint>
            <Time>2021-08-10T09:41:04.000Z</Time>
            <Position>
              <LatitudeDegrees>43.12067597173154354095458984375</LatitudeDegrees>
              <LongitudeDegrees>-1.66471637785434722900390625</LongitudeDegrees>
            </Position>
            <AltitudeMeters>252</AltitudeMeters>
            <DistanceMeters>NAN</DistanceMeters>
          </Trackpoint>
          <Trackpoint>
            <Time>2021-08-10T09:41:05.000Z</Time>
            <Position>
              <LatitudeDegrees>43.12068234197795391082763671875</LatitudeDegrees>
              <LongitudeDegrees>-1.66473590768873691558837890625</LongitudeDegrees>
            </Position>
            <AltitudeMeters>252</AltitudeMeters>
            <DistanceMeters>NAN</DistanceMeters>
          </Trackpoint>
          <Trackpoint>
            <Time>2021-08-10T09:41:06.000Z</Time>
            <Position>
              <LatitudeDegrees>43.12068703584372997283935546875</LatitudeDegrees>
              <LongitudeDegrees>-1.664762310683727264404296875</LongitudeDegrees>
            </Position>
            <AltitudeMeters>252</AltitudeMeters>
            <DistanceMeters>NAN</DistanceMeters>
          </Trackpoint>
          <Trackpoint>
            <Time>2021-08-10T09:41:07.000Z</Time>
            <Position>
              <LatitudeDegrees>43.1206901371479034423828125</LatitudeDegrees>
              <LongitudeDegrees>-1.66478066705167293548583984375</LongitudeDegrees>
            </Position>
            <AltitudeMeters>251.8000030517578125</AltitudeMeters>
            <DistanceMeters>NAN</DistanceMeters>
          </Trackpoint>
          <Trackpoint>
            <Time>2021-08-10T09:41:08.000Z</Time>
            <Position>
              <LatitudeDegrees>43.12069826759397983551025390625</LatitudeDegrees>
              <LongitudeDegrees>-1.6647990234196186065673828125</LongitudeDegrees>
            </Position>
            <AltitudeMeters>251.8000030517578125</AltitudeMeters>
            <DistanceMeters>NAN</DistanceMeters>
          </Trackpoint>
          <Trackpoint>
            <Time>2021-08-10T09:41:09.000Z</Time>
            <Position>
              <LatitudeDegrees>43.1207040511071681976318359375</LatitudeDegrees>
              <LongitudeDegrees>-1.66481469757854938507080078125</LongitudeDegrees>
            </Position>
            <AltitudeMeters>251.8000030517578125</AltitudeMeters>
            <DistanceMeters>NAN</DistanceMeters>
          </Trackpoint>
          <Trackpoint>
            <Time>2021-08-10T09:41:10.000Z</Time>
            <Position>
              <LatitudeDegrees>43.120707906782627105712890625</LatitudeDegrees>
              <LongitudeDegrees>-1.66484001092612743377685546875</LongitudeDegrees>
            </Position>
            <AltitudeMeters>251.600006103515625</AltitudeMeters>
            <DistanceMeters>NAN</DistanceMeters>
          </Trackpoint>
          <Trackpoint>
            <Time>2021-08-10T09:41:11.000Z</Time>
            <Position>
              <LatitudeDegrees>43.12071218155324459075927734375</LatitudeDegrees>
              <LongitudeDegrees>-1.6648645699024200439453125</LongitudeDegrees>
            </Position>
            <AltitudeMeters>251.600006103515625</AltitudeMeters>
            <DistanceMeters>NAN</DistanceMeters>
          </Trackpoint>
          <Trackpoint>
            <Time>2021-08-10T09:41:12.000Z</Time>
            <Position>
              <LatitudeDegrees>43.12071670778095722198486328125</LatitudeDegrees>
              <LongitudeDegrees>-1.664885692298412322998046875</LongitudeDegrees>
            </Position>
            <AltitudeMeters>251.600006103515625</AltitudeMeters>
            <DistanceMeters>NAN</DistanceMeters>
          </Trackpoint>
          <Trackpoint>
            <Time>2021-08-10T09:41:13.000Z</Time>
            <Position>
              <LatitudeDegrees>43.12071888707578182220458984375</LatitudeDegrees>
              <LongitudeDegrees>-1.66490656323730945587158203125</LongitudeDegrees>
            </Position>
            <AltitudeMeters>251.600006103515625</AltitudeMeters>
            <DistanceMeters>NAN</DistanceMeters>
          </Trackpoint>
          <Trackpoint>
            <Time>2021-08-10T09:41:14.000Z</Time>
            <Position>
              <LatitudeDegrees>43.12072374857962131500244140625</LatitudeDegrees>
              <LongitudeDegrees>-1.66492667980492115020751953125</LongitudeDegrees>
            </Position>
            <AltitudeMeters>251.399993896484375</AltitudeMeters>
            <DistanceMeters>NAN</DistanceMeters>
          </Trackpoint>
          <Trackpoint>
            <Time>2021-08-10T09:41:18.000Z</Time>
            <Position>
              <LatitudeDegrees>43.1207221560180187225341796875</LatitudeDegrees>
              <LongitudeDegrees>-1.6650394164025783538818359375</LongitudeDegrees>
            </Position>
            <AltitudeMeters>251.1999969482421875</AltitudeMeters>
            <DistanceMeters>NAN</DistanceMeters>
          </Trackpoint>
          <Trackpoint>
            <Time>2021-08-10T09:41:23.000Z</Time>
            <Position>
              <LatitudeDegrees>43.120756186544895172119140625</LatitudeDegrees>
              <LongitudeDegrees>-1.66518098674714565277099609375</LongitudeDegrees>
            </Position>
            <AltitudeMeters>251</AltitudeMeters>
            <DistanceMeters>NAN</DistanceMeters>
          </Trackpoint>
          <Trackpoint>
            <Time>2021-08-10T09:41:25.000Z</Time>
            <Position>
              <LatitudeDegrees>43.12076322734355926513671875</LatitudeDegrees>
              <LongitudeDegrees>-1.66521619074046611785888671875</LongitudeDegrees>
            </Position>
            <AltitudeMeters>251</AltitudeMeters>
            <DistanceMeters>NAN</DistanceMeters>
          </Trackpoint>
          <Trackpoint>
            <Time>2021-08-10T09:41:31.000Z</Time>
            <Position>
              <LatitudeDegrees>43.1208331324160099029541015625</LatitudeDegrees>
              <LongitudeDegrees>-1.66540930978953838348388671875</LongitudeDegrees>
            </Position>
            <AltitudeMeters>250.8000030517578125</AltitudeMeters>
            <DistanceMeters>NAN</DistanceMeters>
          </Trackpoint>
          <Trackpoint>
            <Time>2021-08-10T09:41:35.000Z</Time>
            <Position>
              <LatitudeDegrees>43.12086372636258602142333984375</LatitudeDegrees>
              <LongitudeDegrees>-1.66548105888068675994873046875</LongitudeDegrees>
            </Position>
            <AltitudeMeters>251</AltitudeMeters>
            <DistanceMeters>NAN</DistanceMeters>
          </Trackpoint>
          <Trackpoint>
            <Time>2021-08-10T09:41:36.000Z</Time>
            <Position>
              <LatitudeDegrees>43.1208832561969757080078125</LatitudeDegrees>
              <LongitudeDegrees>-1.66552774608135223388671875</LongitudeDegrees>
            </Position>
            <AltitudeMeters>251</AltitudeMeters>
            <DistanceMeters>NAN</DistanceMeters>
          </Trackpoint>
          <Trackpoint>
            <Time>2021-08-10T09:41:37.000Z</Time>
            <Position>
              <LatitudeDegrees>43.1208832561969757080078125</LatitudeDegrees>
              <LongitudeDegrees>-1.66552774608135223388671875</LongitudeDegrees>
            </Position>
            <AltitudeMeters>250.8000030517578125</AltitudeMeters>
            <DistanceMeters>NAN</DistanceMeters>
          </Trackpoint>
          <Trackpoint>
            <Time>2021-08-10T09:41:39.000Z</Time>
            <Position>
              <LatitudeDegrees>43.12091770581901073455810546875</LatitudeDegrees>
              <LongitudeDegrees>-1.6655993275344371795654296875</LongitudeDegrees>
            </Position>
            <AltitudeMeters>251</AltitudeMeters>
            <DistanceMeters>NAN</DistanceMeters>
          </Trackpoint>
          <Trackpoint>
            <Time>2021-08-10T09:41:40.000Z</Time>
            <Position>
              <LatitudeDegrees>43.1209283508360385894775390625</LatitudeDegrees>
              <LongitudeDegrees>-1.6656234674155712127685546875</LongitudeDegrees>
            </Position>
            <AltitudeMeters>251</AltitudeMeters>
            <DistanceMeters>NAN</DistanceMeters>
          </Trackpoint>
          <Trackpoint>
            <Time>2021-08-10T09:41:42.000Z</Time>
            <Position>
              <LatitudeDegrees>43.1209447793662548065185546875</LatitudeDegrees>
              <LongitudeDegrees>-1.6656673885881900787353515625</LongitudeDegrees>
            </Position>
            <AltitudeMeters>251</AltitudeMeters>
            <DistanceMeters>NAN</DistanceMeters>
          </Trackpoint>
          <Trackpoint>
            <Time>2021-08-10T09:41:43.000Z</Time>
            <Position>
              <LatitudeDegrees>43.1209561787545680999755859375</LatitudeDegrees>
              <LongitudeDegrees>-1.6656888462603092193603515625</LongitudeDegrees>
            </Position>
            <AltitudeMeters>251</AltitudeMeters>
            <DistanceMeters>NAN</DistanceMeters>
          </Trackpoint>
          <Trackpoint>
            <Time>2021-08-10T09:41:44.000Z</Time>
            <Position>
              <LatitudeDegrees>43.1209561787545680999755859375</LatitudeDegrees>
              <LongitudeDegrees>-1.6656888462603092193603515625</LongitudeDegrees>
            </Position>
            <AltitudeMeters>251</AltitudeMeters>
            <DistanceMeters>NAN</DistanceMeters>
          </Trackpoint>
          <Trackpoint>
            <Time>2021-08-10T09:41:45.000Z</Time>
            <Position>
              <LatitudeDegrees>43.120967410504817962646484375</LatitudeDegrees>
              <LongitudeDegrees>-1.66571089066565036773681640625</LongitudeDegrees>
            </Position>
            <AltitudeMeters>251</AltitudeMeters>
            <DistanceMeters>NAN</DistanceMeters>
          </Trackpoint>
          <Trackpoint>
            <Time>2021-08-10T09:41:46.000Z</Time>
            <Position>
              <LatitudeDegrees>43.12097973190248012542724609375</LatitudeDegrees>
              <LongitudeDegrees>-1.665733270347118377685546875</LongitudeDegrees>
            </Position>
            <AltitudeMeters>251</AltitudeMeters>
            <DistanceMeters>NAN</DistanceMeters>
          </Trackpoint>
          <Trackpoint>
            <Time>2021-08-10T09:41:51.000Z</Time>
            <Position>
              <LatitudeDegrees>43.12103454954922199249267578125</LatitudeDegrees>
              <LongitudeDegrees>-1.6658809594810009002685546875</LongitudeDegrees>
            </Position>
            <AltitudeMeters>250.8000030517578125</AltitudeMeters>
            <DistanceMeters>NAN</DistanceMeters>
          </Trackpoint>
          <Trackpoint>
            <Time>2021-08-10T09:41:55.000Z</Time>
            <Position>
              <LatitudeDegrees>43.1211112439632415771484375</LatitudeDegrees>
              <LongitudeDegrees>-1.66601699776947498321533203125</LongitudeDegrees>
            </Position>
            <AltitudeMeters>250.600006103515625</AltitudeMeters>
            <DistanceMeters>NAN</DistanceMeters>
          </Trackpoint>
          <Trackpoint>
            <Time>2021-08-10T09:41:56.000Z</Time>
            <Position>
              <LatitudeDegrees>43.12113345600664615631103515625</LatitudeDegrees>
              <LongitudeDegrees>-1.66605169884860515594482421875</LongitudeDegrees>
            </Position>
            <AltitudeMeters>250.600006103515625</AltitudeMeters>
            <DistanceMeters>NAN</DistanceMeters>
          </Trackpoint>
          <Trackpoint>
            <Time>2021-08-10T09:41:58.000Z</Time>
            <Position>
              <LatitudeDegrees>43.121200762689113616943359375</LatitudeDegrees>
              <LongitudeDegrees>-1.66616250760853290557861328125</LongitudeDegrees>
            </Position>
            <AltitudeMeters>250.399993896484375</AltitudeMeters>
            <DistanceMeters>NAN</DistanceMeters>
          </Trackpoint>
          <Trackpoint>
            <Time>2021-08-10T09:42:03.000Z</Time>
            <Position>
              <LatitudeDegrees>43.1213179416954517364501953125</LatitudeDegrees>
              <LongitudeDegrees>-1.66635780595242977142333984375</LongitudeDegrees>
            </Position>
            <AltitudeMeters>250.1999969482421875</AltitudeMeters>
            <DistanceMeters>NAN</DistanceMeters>
          </Trackpoint>
          <Trackpoint>
            <Time>2021-08-10T09:42:06.000Z</Time>
            <Position>
              <LatitudeDegrees>43.12135959975421428680419921875</LatitudeDegrees>
              <LongitudeDegrees>-1.6664435528218746185302734375</LongitudeDegrees>
            </Position>
            <AltitudeMeters>249.8000030517578125</AltitudeMeters>
            <DistanceMeters>NAN</DistanceMeters>
          </Trackpoint>
          <Trackpoint>
            <Time>2021-08-10T09:42:15.000Z</Time>
            <Position>
              <LatitudeDegrees>43.12153025530278682708740234375</LatitudeDegrees>
              <LongitudeDegrees>-1.6668411903083324432373046875</LongitudeDegrees>
            </Position>
            <AltitudeMeters>249.1999969482421875</AltitudeMeters>
            <DistanceMeters>NAN</DistanceMeters>
          </Trackpoint>
          <Trackpoint>
            <Time>2021-08-10T09:42:16.000Z</Time>
            <Position>
              <LatitudeDegrees>43.121559508144855499267578125</LatitudeDegrees>
              <LongitudeDegrees>-1.6669367440044879913330078125</LongitudeDegrees>
            </Position>
            <AltitudeMeters>249.1999969482421875</AltitudeMeters>
            <DistanceMeters>NAN</DistanceMeters>
          </Trackpoint>
          <Trackpoint>
            <Time>2021-08-10T09:42:19.000Z</Time>
            <Position>
              <LatitudeDegrees>43.12159471213817596435546875</LatitudeDegrees>
              <LongitudeDegrees>-1.6670827567577362060546875</LongitudeDegrees>
            </Position>
            <AltitudeMeters>249.1999969482421875</AltitudeMeters>
            <DistanceMeters>NAN</DistanceMeters>
          </Trackpoint>
          <Trackpoint>
            <Time>2021-08-10T09:42:24.000Z</Time>
            <Position>
              <LatitudeDegrees>43.1216220371425151824951171875</LatitudeDegrees>
              <LongitudeDegrees>-1.66731099598109722137451171875</LongitudeDegrees>
            </Position>
            <AltitudeMeters>249.600006103515625</AltitudeMeters>
            <DistanceMeters>NAN</DistanceMeters>
          </Trackpoint>
          <Trackpoint>
            <Time>2021-08-10T09:42:25.000Z</Time>
            <Position>
              <LatitudeDegrees>43.12162865884602069854736328125</LatitudeDegrees>
              <LongitudeDegrees>-1.66735340841114521026611328125</LongitudeDegrees>
            </Position>
            <AltitudeMeters>249.600006103515625</AltitudeMeters>
            <DistanceMeters>NAN</DistanceMeters>
          </Trackpoint>
          <Trackpoint>
            <Time>2021-08-10T09:42:26.000Z</Time>
            <Position>
              <LatitudeDegrees>43.12162865884602069854736328125</LatitudeDegrees>
              <LongitudeDegrees>-1.66735340841114521026611328125</LongitudeDegrees>
            </Position>
            <AltitudeMeters>249.8000030517578125</AltitudeMeters>
            <DistanceMeters>NAN</DistanceMeters>
          </Trackpoint>
          <Trackpoint>
            <Time>2021-08-10T09:42:27.000Z</Time>
            <Position>
              <LatitudeDegrees>43.12163050286471843719482421875</LatitudeDegrees>
              <LongitudeDegrees>-1.66739816777408123016357421875</LongitudeDegrees>
            </Position>
            <AltitudeMeters>249.8000030517578125</AltitudeMeters>
            <DistanceMeters>NAN</DistanceMeters>
          </Trackpoint>
          <Trackpoint>
            <Time>2021-08-10T09:42:28.000Z</Time>
            <Position>
              <LatitudeDegrees>43.1216320954263210296630859375</LatitudeDegrees>
              <LongitudeDegrees>-1.66748902760446071624755859375</LongitudeDegrees>
            </Position>
            <AltitudeMeters>249.8000030517578125</AltitudeMeters>
            <DistanceMeters>NAN</DistanceMeters>
          </Trackpoint>
          <Trackpoint>
            <Time>2021-08-10T09:42:29.000Z</Time>
            <Position>
              <LatitudeDegrees>43.12163293361663818359375</LatitudeDegrees>
              <LongitudeDegrees>-1.6675360500812530517578125</LongitudeDegrees>
            </Position>
            <AltitudeMeters>250</AltitudeMeters>
            <DistanceMeters>NAN</DistanceMeters>
          </Trackpoint>
          <Trackpoint>
            <Time>2021-08-10T09:42:30.000Z</Time>
            <Position>
              <LatitudeDegrees>43.12163293361663818359375</LatitudeDegrees>
              <LongitudeDegrees>-1.6675360500812530517578125</LongitudeDegrees>
            </Position>
            <AltitudeMeters>250</AltitudeMeters>
            <DistanceMeters>NAN</DistanceMeters>
          </Trackpoint>
          <Trackpoint>
            <Time>2021-08-10T09:42:33.000Z</Time>
            <Position>
              <LatitudeDegrees>43.12164022587239742279052734375</LatitudeDegrees>
              <LongitudeDegrees>-1.6676733456552028656005859375</LongitudeDegrees>
            </Position>
            <AltitudeMeters>250.1999969482421875</AltitudeMeters>
            <DistanceMeters>NAN</DistanceMeters>
          </Trackpoint>
          <Trackpoint>
            <Time>2021-08-10T09:42:41.000Z</Time>
            <Position>
              <LatitudeDegrees>43.121717758476734161376953125</LatitudeDegrees>
              <LongitudeDegrees>-1.66801373474299907684326171875</LongitudeDegrees>
            </Position>
            <AltitudeMeters>250</AltitudeMeters>
            <DistanceMeters>NAN</DistanceMeters>
          </Trackpoint>
          <Trackpoint>
            <Time>2021-08-10T09:42:43.000Z</Time>
            <Position>
              <LatitudeDegrees>43.1217678822576999664306640625</LatitudeDegrees>
              <LongitudeDegrees>-1.66806989349424839019775390625</LongitudeDegrees>
            </Position>
            <AltitudeMeters>250</AltitudeMeters>
            <DistanceMeters>NAN</DistanceMeters>
          </Trackpoint>
          <Trackpoint>
            <Time>2021-08-10T09:42:44.000Z</Time>
            <Position>
              <LatitudeDegrees>43.1217987276613712310791015625</LatitudeDegrees>
              <LongitudeDegrees>-1.66808414272964000701904296875</LongitudeDegrees>
            </Position>
            <AltitudeMeters>250</AltitudeMeters>
            <DistanceMeters>NAN</DistanceMeters>
          </Trackpoint>
          <Trackpoint>
            <Time>2021-08-10T09:42:45.000Z</Time>
            <Position>
              <LatitudeDegrees>43.12186754308640956878662109375</LatitudeDegrees>
              <LongitudeDegrees>-1.66810610331594944000244140625</LongitudeDegrees>
            </Position>
            <AltitudeMeters>249.8000030517578125</AltitudeMeters>
            <DistanceMeters>NAN</DistanceMeters>
          </Trackpoint>
          <Trackpoint>
            <Time>2021-08-10T09:42:46.000Z</Time>
            <Position>
              <LatitudeDegrees>43.12186754308640956878662109375</LatitudeDegrees>
              <LongitudeDegrees>-1.66810610331594944000244140625</LongitudeDegrees>
            </Position>
            <AltitudeMeters>249.8000030517578125</AltitudeMeters>
            <DistanceMeters>NAN</DistanceMeters>
          </Trackpoint>
          <Trackpoint>
            <Time>2021-08-10T09:42:51.000Z</Time>
            <Position>
              <LatitudeDegrees>43.1220944412052631378173828125</LatitudeDegrees>
              <LongitudeDegrees>-1.668120436370372772216796875</LongitudeDegrees>
            </Position>
            <AltitudeMeters>249.399993896484375</AltitudeMeters>
            <DistanceMeters>NAN</DistanceMeters>
          </Trackpoint>
          <Trackpoint>
            <Time>2021-08-10T09:42:52.000Z</Time>
            <Position>
              <LatitudeDegrees>43.1220944412052631378173828125</LatitudeDegrees>
              <LongitudeDegrees>-1.668120436370372772216796875</LongitudeDegrees>
            </Position>
            <AltitudeMeters>249.1999969482421875</AltitudeMeters>
            <DistanceMeters>NAN</DistanceMeters>
          </Trackpoint>
          <Trackpoint>
            <Time>2021-08-10T09:42:53.000Z</Time>
            <Position>
              <LatitudeDegrees>43.12211128883063793182373046875</LatitudeDegrees>
              <LongitudeDegrees>-1.6681159101426601409912109375</LongitudeDegrees>
            </Position>
            <AltitudeMeters>249</AltitudeMeters>
            <DistanceMeters>NAN</DistanceMeters>
          </Trackpoint>
          <Trackpoint>
            <Time>2021-08-10T09:42:55.000Z</Time>
            <Position>
              <LatitudeDegrees>43.1221169047057628631591796875</LatitudeDegrees>
              <LongitudeDegrees>-1.66811599396169185638427734375</LongitudeDegrees>
            </Position>
            <AltitudeMeters>248.8000030517578125</AltitudeMeters>
            <DistanceMeters>NAN</DistanceMeters>
          </Trackpoint>
          <Trackpoint>
            <Time>2021-08-10T09:42:59.000Z</Time>
            <Position>
              <LatitudeDegrees>43.1221169047057628631591796875</LatitudeDegrees>
              <LongitudeDegrees>-1.66811599396169185638427734375</LongitudeDegrees>
            </Position>
            <AltitudeMeters>248.1999969482421875</AltitudeMeters>
            <DistanceMeters>NAN</DistanceMeters>
          </Trackpoint>
          <Trackpoint>
            <Time>2021-08-10T09:43:21.000Z</Time>
            <Position>
              <LatitudeDegrees>43.122118748724460601806640625</LatitudeDegrees>
              <LongitudeDegrees>-1.66811632923781871795654296875</LongitudeDegrees>
            </Position>
            <AltitudeMeters>247.600006103515625</AltitudeMeters>
            <DistanceMeters>NAN</DistanceMeters>
          </Trackpoint>
          <Trackpoint>
            <Time>2021-08-10T09:43:24.000Z</Time>
            <Position>
              <LatitudeDegrees>43.1222107820212841033935546875</LatitudeDegrees>
              <LongitudeDegrees>-1.66811012662947177886962890625</LongitudeDegrees>
            </Position>
            <AltitudeMeters>247.600006103515625</AltitudeMeters>
            <DistanceMeters>NAN</DistanceMeters>
          </Trackpoint>
          <Trackpoint>
            <Time>2021-08-10T09:43:29.000Z</Time>
            <Position>
              <LatitudeDegrees>43.122464083135128021240234375</LatitudeDegrees>
              <LongitudeDegrees>-1.6680994816124439239501953125</LongitudeDegrees>
            </Position>
            <AltitudeMeters>247.1999969482421875</AltitudeMeters>
            <DistanceMeters>NAN</DistanceMeters>
          </Trackpoint>
          <Trackpoint>
            <Time>2021-08-10T09:43:35.000Z</Time>
            <Position>
              <LatitudeDegrees>43.12281972728669643402099609375</LatitudeDegrees>
              <LongitudeDegrees>-1.6681715659797191619873046875</LongitudeDegrees>
            </Position>
            <AltitudeMeters>246.1999969482421875</AltitudeMeters>
            <DistanceMeters>NAN</DistanceMeters>
          </Trackpoint>
          <Trackpoint>
            <Time>2021-08-10T09:43:36.000Z</Time>
            <Position>
              <LatitudeDegrees>43.12287907116115093231201171875</LatitudeDegrees>
              <LongitudeDegrees>-1.668183803558349609375</LongitudeDegrees>
            </Position>
            <AltitudeMeters>245.600006103515625</AltitudeMeters>
            <DistanceMeters>NAN</DistanceMeters>
          </Trackpoint>
          <Trackpoint>
            <Time>2021-08-10T09:43:37.000Z</Time>
            <Position>
              <LatitudeDegrees>43.12293774448335170745849609375</LatitudeDegrees>
              <LongitudeDegrees>-1.66819076053798198699951171875</LongitudeDegrees>
            </Position>
            <AltitudeMeters>245.399993896484375</AltitudeMeters>
            <DistanceMeters>NAN</DistanceMeters>
          </Trackpoint>
          <Trackpoint>
            <Time>2021-08-10T09:43:39.000Z</Time>
            <Position>
              <LatitudeDegrees>43.12304704450070858001708984375</LatitudeDegrees>
              <LongitudeDegrees>-1.66819612495601177215576171875</LongitudeDegrees>
            </Position>
            <AltitudeMeters>244.8000030517578125</AltitudeMeters>
            <DistanceMeters>NAN</DistanceMeters>
          </Trackpoint>
          <Trackpoint>
            <Time>2021-08-10T09:43:40.000Z</Time>
            <Position>
              <LatitudeDegrees>43.12309633009135723114013671875</LatitudeDegrees>
              <LongitudeDegrees>-1.66819193400442600250244140625</LongitudeDegrees>
            </Position>
            <AltitudeMeters>244.8000030517578125</AltitudeMeters>
            <DistanceMeters>NAN</DistanceMeters>
          </Trackpoint>
          <Trackpoint>
            <Time>2021-08-10T09:43:41.000Z</Time>
            <Position>
              <LatitudeDegrees>43.1231431849300861358642578125</LatitudeDegrees>
              <LongitudeDegrees>-1.668187491595745086669921875</LongitudeDegrees>
            </Position>
            <AltitudeMeters>244.600006103515625</AltitudeMeters>
            <DistanceMeters>NAN</DistanceMeters>
          </Trackpoint>
          <Trackpoint>
            <Time>2021-08-10T09:43:42.000Z</Time>
            <Position>
              <LatitudeDegrees>43.12320110388100147247314453125</LatitudeDegrees>
              <LongitudeDegrees>-1.66818371973931789398193359375</LongitudeDegrees>
            </Position>
            <AltitudeMeters>244.8000030517578125</AltitudeMeters>
            <DistanceMeters>NAN</DistanceMeters>
          </Trackpoint>
          <Trackpoint>
            <Time>2021-08-10T09:43:45.000Z</Time>
            <Position>
              <LatitudeDegrees>43.1233430095016956329345703125</LatitudeDegrees>
              <LongitudeDegrees>-1.668192856013774871826171875</LongitudeDegrees>
            </Position>
            <AltitudeMeters>244.399993896484375</AltitudeMeters>
            <DistanceMeters>NAN</DistanceMeters>
          </Trackpoint>
          <Trackpoint>
            <Time>2021-08-10T09:43:46.000Z</Time>
            <Position>
              <LatitudeDegrees>43.12338684685528278350830078125</LatitudeDegrees>
              <LongitudeDegrees>-1.668199561536312103271484375</LongitudeDegrees>
            </Position>
            <AltitudeMeters>244.1999969482421875</AltitudeMeters>
            <DistanceMeters>NAN</DistanceMeters>
          </Trackpoint>
          <Trackpoint>
            <Time>2021-08-10T09:43:47.000Z</Time>
            <Position>
              <LatitudeDegrees>43.12342464923858642578125</LatitudeDegrees>
              <LongitudeDegrees>-1.66821054182946681976318359375</LongitudeDegrees>
            </Position>
            <AltitudeMeters>244.1999969482421875</AltitudeMeters>
            <DistanceMeters>NAN</DistanceMeters>
          </Trackpoint>
          <Trackpoint>
            <Time>2021-08-10T09:43:48.000Z</Time>
            <Position>
              <LatitudeDegrees>43.12345708720386028289794921875</LatitudeDegrees>
              <LongitudeDegrees>-1.668219007551670074462890625</LongitudeDegrees>
            </Position>
            <AltitudeMeters>244</AltitudeMeters>
            <DistanceMeters>NAN</DistanceMeters>
          </Trackpoint>
          <Trackpoint>
            <Time>2021-08-10T09:43:49.000Z</Time>
            <Position>
              <LatitudeDegrees>43.12348826788365840911865234375</LatitudeDegrees>
              <LongitudeDegrees>-1.668226383626461029052734375</LongitudeDegrees>
            </Position>
            <AltitudeMeters>243.8000030517578125</AltitudeMeters>
            <DistanceMeters>NAN</DistanceMeters>
          </Trackpoint>
          <Trackpoint>
            <Time>2021-08-10T09:43:50.000Z</Time>
            <Position>
              <LatitudeDegrees>43.12352045439183712005615234375</LatitudeDegrees>
              <LongitudeDegrees>-1.6682345978915691375732421875</LongitudeDegrees>
            </Position>
            <AltitudeMeters>243.8000030517578125</AltitudeMeters>
            <DistanceMeters>NAN</DistanceMeters>
          </Trackpoint>
          <Trackpoint>
            <Time>2021-08-10T09:43:51.000Z</Time>
            <Position>
              <LatitudeDegrees>43.12355247326195240020751953125</LatitudeDegrees>
              <LongitudeDegrees>-1.66824138723313808441162109375</LongitudeDegrees>
            </Position>
            <AltitudeMeters>243.600006103515625</AltitudeMeters>
            <DistanceMeters>NAN</DistanceMeters>
          </Trackpoint>
          <Trackpoint>
            <Time>2021-08-10T09:43:53.000Z</Time>
            <Position>
              <LatitudeDegrees>43.12361818738281726837158203125</LatitudeDegrees>
              <LongitudeDegrees>-1.6682550497353076934814453125</LongitudeDegrees>
            </Position>
            <AltitudeMeters>243.1999969482421875</AltitudeMeters>
            <DistanceMeters>NAN</DistanceMeters>
          </Trackpoint>
          <Trackpoint>
            <Time>2021-08-10T09:43:54.000Z</Time>
            <Position>
              <LatitudeDegrees>43.12365272082388401031494140625</LatitudeDegrees>
              <LongitudeDegrees>-1.66826334781944751739501953125</LongitudeDegrees>
            </Position>
            <AltitudeMeters>243</AltitudeMeters>
            <DistanceMeters>NAN</DistanceMeters>
          </Trackpoint>
          <Trackpoint>
            <Time>2021-08-10T09:43:55.000Z</Time>
            <Position>
              <LatitudeDegrees>43.12368239276111125946044921875</LatitudeDegrees>
              <LongitudeDegrees>-1.66827105917036533355712890625</LongitudeDegrees>
            </Position>
            <AltitudeMeters>242.8000030517578125</AltitudeMeters>
            <DistanceMeters>NAN</DistanceMeters>
          </Trackpoint>
          <Trackpoint>
            <Time>2021-08-10T09:43:56.000Z</Time>
            <Position>
              <LatitudeDegrees>43.12370871193706989288330078125</LatitudeDegrees>
              <LongitudeDegrees>-1.66827910579741001129150390625</LongitudeDegrees>
            </Position>
            <AltitudeMeters>242.8000030517578125</AltitudeMeters>
            <DistanceMeters>NAN</DistanceMeters>
          </Trackpoint>
          <Trackpoint>
            <Time>2021-08-10T09:43:57.000Z</Time>
            <Position>
              <LatitudeDegrees>43.1237342767417430877685546875</LatitudeDegrees>
              <LongitudeDegrees>-1.66828581131994724273681640625</LongitudeDegrees>
            </Position>
            <AltitudeMeters>242.600006103515625</AltitudeMeters>
            <DistanceMeters>NAN</DistanceMeters>
          </Trackpoint>
          <Trackpoint>
            <Time>2021-08-10T09:43:58.000Z</Time>
            <Position>
              <LatitudeDegrees>43.1237577460706233978271484375</LatitudeDegrees>
              <LongitudeDegrees>-1.6682905890047550201416015625</LongitudeDegrees>
            </Position>
            <AltitudeMeters>242.600006103515625</AltitudeMeters>
            <DistanceMeters>NAN</DistanceMeters>
          </Trackpoint>
          <Trackpoint>
            <Time>2021-08-10T09:43:59.000Z</Time>
            <Position>
              <LatitudeDegrees>43.12378096394240856170654296875</LatitudeDegrees>
              <LongitudeDegrees>-1.6682939417660236358642578125</LongitudeDegrees>
            </Position>
            <AltitudeMeters>242.399993896484375</AltitudeMeters>
            <DistanceMeters>NAN</DistanceMeters>
          </Trackpoint>
          <Trackpoint>
            <Time>2021-08-10T09:44:00.000Z</Time>
            <Position>
              <LatitudeDegrees>43.1238046847283840179443359375</LatitudeDegrees>
              <LongitudeDegrees>-1.6682972945272922515869140625</LongitudeDegrees>
            </Position>
            <AltitudeMeters>242.1999969482421875</AltitudeMeters>
            <DistanceMeters>NAN</DistanceMeters>
          </Trackpoint>
          <Trackpoint>
            <Time>2021-08-10T09:44:01.000Z</Time>
            <Position>
              <LatitudeDegrees>43.12383092008531093597412109375</LatitudeDegrees>
              <LongitudeDegrees>-1.6683023236691951751708984375</LongitudeDegrees>
            </Position>
            <AltitudeMeters>242</AltitudeMeters>
            <DistanceMeters>NAN</DistanceMeters>
          </Trackpoint>
          <Trackpoint>
            <Time>2021-08-10T09:44:08.000Z</Time>
            <Position>
              <LatitudeDegrees>43.1240397132933139801025390625</LatitudeDegrees>
              <LongitudeDegrees>-1.66835353709757328033447265625</LongitudeDegrees>
            </Position>
            <AltitudeMeters>241.399993896484375</AltitudeMeters>
            <DistanceMeters>NAN</DistanceMeters>
          </Trackpoint>
          <Trackpoint>
            <Time>2021-08-10T09:44:13.000Z</Time>
            <Position>
              <LatitudeDegrees>43.12428136356174945831298828125</LatitudeDegrees>
              <LongitudeDegrees>-1.66843199171125888824462890625</LongitudeDegrees>
            </Position>
            <AltitudeMeters>240.600006103515625</AltitudeMeters>
            <DistanceMeters>NAN</DistanceMeters>
          </Trackpoint>
          <Trackpoint>
            <Time>2021-08-10T09:44:14.000Z</Time>
            <Position>
              <LatitudeDegrees>43.1243404559791088104248046875</LatitudeDegrees>
              <LongitudeDegrees>-1.66845747269690036773681640625</LongitudeDegrees>
            </Position>
            <AltitudeMeters>240.399993896484375</AltitudeMeters>
            <DistanceMeters>NAN</DistanceMeters>
          </Trackpoint>
          <Trackpoint>
            <Time>2021-08-10T09:44:15.000Z</Time>
            <Position>
              <LatitudeDegrees>43.12437909655272960662841796875</LatitudeDegrees>
              <LongitudeDegrees>-1.66847323067486286163330078125</LongitudeDegrees>
            </Position>
            <AltitudeMeters>240</AltitudeMeters>
            <DistanceMeters>NAN</DistanceMeters>
          </Trackpoint>
          <Trackpoint>
            <Time>2021-08-10T09:44:18.000Z</Time>
            <Position>
              <LatitudeDegrees>43.12452343292534351348876953125</LatitudeDegrees>
              <LongitudeDegrees>-1.6685380227863788604736328125</LongitudeDegrees>
            </Position>
            <AltitudeMeters>239.1999969482421875</AltitudeMeters>
            <DistanceMeters>NAN</DistanceMeters>
          </Trackpoint>
          <Trackpoint>
            <Time>2021-08-10T09:44:20.000Z</Time>
            <Position>
              <LatitudeDegrees>43.12461890280246734619140625</LatitudeDegrees>
              <LongitudeDegrees>-1.66858051903545856475830078125</LongitudeDegrees>
            </Position>
            <AltitudeMeters>238.1999969482421875</AltitudeMeters>
            <DistanceMeters>NAN</DistanceMeters>
          </Trackpoint>
          <Trackpoint>
            <Time>2021-08-10T09:44:22.000Z</Time>
            <Position>
              <LatitudeDegrees>43.12471219338476657867431640625</LatitudeDegrees>
              <LongitudeDegrees>-1.66862611658871173858642578125</LongitudeDegrees>
            </Position>
            <AltitudeMeters>237</AltitudeMeters>
            <DistanceMeters>NAN</DistanceMeters>
          </Trackpoint>
          <Trackpoint>
            <Time>2021-08-10T09:44:24.000Z</Time>
            <Position>
              <LatitudeDegrees>43.12480355612933635711669921875</LatitudeDegrees>
              <LongitudeDegrees>-1.66867473162710666656494140625</LongitudeDegrees>
            </Position>
            <AltitudeMeters>236.399993896484375</AltitudeMeters>
            <DistanceMeters>NAN</DistanceMeters>
          </Trackpoint>
          <Trackpoint>
            <Time>2021-08-10T09:44:25.000Z</Time>
            <Position>
              <LatitudeDegrees>43.12483423389494419097900390625</LatitudeDegrees>
              <LongitudeDegrees>-1.66869015432894229888916015625</LongitudeDegrees>
            </Position>
            <AltitudeMeters>235.600006103515625</AltitudeMeters>
            <DistanceMeters>NAN</DistanceMeters>
          </Trackpoint>
          <Trackpoint>
            <Time>2021-08-10T09:44:26.000Z</Time>
            <Position>
              <LatitudeDegrees>43.12487178482115268707275390625</LatitudeDegrees>
              <LongitudeDegrees>-1.66870809160172939300537109375</LongitudeDegrees>
            </Position>
            <AltitudeMeters>235.399993896484375</AltitudeMeters>
            <DistanceMeters>NAN</DistanceMeters>
          </Trackpoint>
          <Trackpoint>
            <Time>2021-08-10T09:44:27.000Z</Time>
            <Position>
              <LatitudeDegrees>43.12490866519510746002197265625</LatitudeDegrees>
              <LongitudeDegrees>-1.66872896254062652587890625</LongitudeDegrees>
            </Position>
            <AltitudeMeters>234.8000030517578125</AltitudeMeters>
            <DistanceMeters>NAN</DistanceMeters>
          </Trackpoint>
          <Trackpoint>
            <Time>2021-08-10T09:44:28.000Z</Time>
            <Position>
              <LatitudeDegrees>43.12494722194969654083251953125</LatitudeDegrees>
              <LongitudeDegrees>-1.668753437697887420654296875</LongitudeDegrees>
            </Position>
            <AltitudeMeters>234.399993896484375</AltitudeMeters>
            <DistanceMeters>NAN</DistanceMeters>
          </Trackpoint>
          <Trackpoint>
            <Time>2021-08-10T09:44:30.000Z</Time>
            <Position>
              <LatitudeDegrees>43.1250317953526973724365234375</LatitudeDegrees>
              <LongitudeDegrees>-1.66881051845848560333251953125</LongitudeDegrees>
            </Position>
            <AltitudeMeters>232.8000030517578125</AltitudeMeters>
            <DistanceMeters>NAN</DistanceMeters>
          </Trackpoint>
          <Trackpoint>
            <Time>2021-08-10T09:44:33.000Z</Time>
            <Position>
              <LatitudeDegrees>43.1251967512071132659912109375</LatitudeDegrees>
              <LongitudeDegrees>-1.6689115203917026519775390625</LongitudeDegrees>
            </Position>
            <AltitudeMeters>231.399993896484375</AltitudeMeters>
            <DistanceMeters>NAN</DistanceMeters>
          </Trackpoint>
          <Trackpoint>
            <Time>2021-08-10T09:44:34.000Z</Time>
            <Position>
              <LatitudeDegrees>43.12525684945285320281982421875</LatitudeDegrees>
              <LongitudeDegrees>-1.66894932277500629425048828125</LongitudeDegrees>
            </Position>
            <AltitudeMeters>230.399993896484375</AltitudeMeters>
            <DistanceMeters>NAN</DistanceMeters>
          </Trackpoint>
          <Trackpoint>
            <Time>2021-08-10T09:44:36.000Z</Time>
            <Position>
              <LatitudeDegrees>43.125382997095584869384765625</LatitudeDegrees>
              <LongitudeDegrees>-1.66901151649653911590576171875</LongitudeDegrees>
            </Position>
            <AltitudeMeters>228.8000030517578125</AltitudeMeters>
            <DistanceMeters>NAN</DistanceMeters>
          </Trackpoint>
          <Trackpoint>
            <Time>2021-08-10T09:44:37.000Z</Time>
            <Position>
              <LatitudeDegrees>43.1254411675035953521728515625</LatitudeDegrees>
              <LongitudeDegrees>-1.669040434062480926513671875</LongitudeDegrees>
            </Position>
            <AltitudeMeters>228</AltitudeMeters>
            <DistanceMeters>NAN</DistanceMeters>
          </Trackpoint>
          <Trackpoint>
            <Time>2021-08-10T09:44:38.000Z</Time>
            <Position>
              <LatitudeDegrees>43.1254974938929080963134765625</LatitudeDegrees>
              <LongitudeDegrees>-1.66906750760972499847412109375</LongitudeDegrees>
            </Position>
            <AltitudeMeters>227.399993896484375</AltitudeMeters>
            <DistanceMeters>NAN</DistanceMeters>
          </Trackpoint>
          <Trackpoint>
            <Time>2021-08-10T09:44:39.000Z</Time>
            <Position>
              <LatitudeDegrees>43.12554937787353992462158203125</LatitudeDegrees>
              <LongitudeDegrees>-1.66908712126314640045166015625</LongitudeDegrees>
            </Position>
            <AltitudeMeters>226</AltitudeMeters>
            <DistanceMeters>NAN</DistanceMeters>
          </Trackpoint>
          <Trackpoint>
            <Time>2021-08-10T09:44:40.000Z</Time>
            <Position>
              <LatitudeDegrees>43.12559447251260280609130859375</LatitudeDegrees>
              <LongitudeDegrees>-1.66909642517566680908203125</LongitudeDegrees>
            </Position>
            <AltitudeMeters>225.600006103515625</AltitudeMeters>
            <DistanceMeters>NAN</DistanceMeters>
          </Trackpoint>
          <Trackpoint>
            <Time>2021-08-10T09:44:41.000Z</Time>
            <Position>
              <LatitudeDegrees>43.1256349571049213409423828125</LatitudeDegrees>
              <LongitudeDegrees>-1.66910371743142604827880859375</LongitudeDegrees>
            </Position>
            <AltitudeMeters>224.600006103515625</AltitudeMeters>
            <DistanceMeters>NAN</DistanceMeters>
          </Trackpoint>
          <Trackpoint>
            <Time>2021-08-10T09:44:42.000Z</Time>
            <Position>
              <LatitudeDegrees>43.12567460350692272186279296875</LatitudeDegrees>
              <LongitudeDegrees>-1.66911159642040729522705078125</LongitudeDegrees>
            </Position>
            <AltitudeMeters>224.399993896484375</AltitudeMeters>
            <DistanceMeters>NAN</DistanceMeters>
          </Trackpoint>
          <Trackpoint>
            <Time>2021-08-10T09:44:43.000Z</Time>
            <Position>
              <LatitudeDegrees>43.12571651302278041839599609375</LatitudeDegrees>
              <LongitudeDegrees>-1.66911712847650051116943359375</LongitudeDegrees>
            </Position>
            <AltitudeMeters>223.1999969482421875</AltitudeMeters>
            <DistanceMeters>NAN</DistanceMeters>
          </Trackpoint>
          <Trackpoint>
            <Time>2021-08-10T09:44:44.000Z</Time>
            <Position>
              <LatitudeDegrees>43.1257613562047481536865234375</LatitudeDegrees>
              <LongitudeDegrees>-1.6691237501800060272216796875</LongitudeDegrees>
            </Position>
            <AltitudeMeters>222</AltitudeMeters>
            <DistanceMeters>NAN</DistanceMeters>
          </Trackpoint>
          <Trackpoint>
            <Time>2021-08-10T09:44:46.000Z</Time>
            <Position>
              <LatitudeDegrees>43.12585531733930110931396484375</LatitudeDegrees>
              <LongitudeDegrees>-1.6691421903669834136962890625</LongitudeDegrees>
            </Position>
            <AltitudeMeters>221</AltitudeMeters>
            <DistanceMeters>NAN</DistanceMeters>
          </Trackpoint>
          <Trackpoint>
            <Time>2021-08-10T09:44:48.000Z</Time>
            <Position>
              <LatitudeDegrees>43.12594165094196796417236328125</LatitudeDegrees>
              <LongitudeDegrees>-1.66916507296264171600341796875</LongitudeDegrees>
            </Position>
            <AltitudeMeters>220.399993896484375</AltitudeMeters>
            <DistanceMeters>NAN</DistanceMeters>
          </Trackpoint>
          <Trackpoint>
            <Time>2021-08-10T09:44:49.000Z</Time>
            <Position>
              <LatitudeDegrees>43.12598255462944507598876953125</LatitudeDegrees>
              <LongitudeDegrees>-1.669185273349285125732421875</LongitudeDegrees>
            </Position>
            <AltitudeMeters>220</AltitudeMeters>
            <DistanceMeters>NAN</DistanceMeters>
          </Trackpoint>
          <Trackpoint>
            <Time>2021-08-10T09:44:50.000Z</Time>
            <Position>
              <LatitudeDegrees>43.12602060846984386444091796875</LatitudeDegrees>
              <LongitudeDegrees>-1.6692124307155609130859375</LongitudeDegrees>
            </Position>
            <AltitudeMeters>219.1999969482421875</AltitudeMeters>
            <DistanceMeters>NAN</DistanceMeters>
          </Trackpoint>
          <Trackpoint>
            <Time>2021-08-10T09:44:51.000Z</Time>
            <Position>
              <LatitudeDegrees>43.1260574050247669219970703125</LatitudeDegrees>
              <LongitudeDegrees>-1.6692447848618030548095703125</LongitudeDegrees>
            </Position>
            <AltitudeMeters>218.8000030517578125</AltitudeMeters>
            <DistanceMeters>NAN</DistanceMeters>
          </Trackpoint>
          <Trackpoint>
            <Time>2021-08-10T09:44:52.000Z</Time>
            <Position>
              <LatitudeDegrees>43.1260875798761844635009765625</LatitudeDegrees>
              <LongitudeDegrees>-1.6692749597132205963134765625</LongitudeDegrees>
            </Position>
            <AltitudeMeters>218.399993896484375</AltitudeMeters>
            <DistanceMeters>NAN</DistanceMeters>
          </Trackpoint>
          <Trackpoint>
            <Time>2021-08-10T09:44:54.000Z</Time>
            <Position>
              <LatitudeDegrees>43.12613837420940399169921875</LatitudeDegrees>
              <LongitudeDegrees>-1.669339500367641448974609375</LongitudeDegrees>
            </Position>
            <AltitudeMeters>217.600006103515625</AltitudeMeters>
            <DistanceMeters>NAN</DistanceMeters>
          </Trackpoint>
          <Trackpoint>
            <Time>2021-08-10T09:44:55.000Z</Time>
            <Position>
              <LatitudeDegrees>43.12616310082376003265380859375</LatitudeDegrees>
              <LongitudeDegrees>-1.669371016323566436767578125</LongitudeDegrees>
            </Position>
            <AltitudeMeters>217.1999969482421875</AltitudeMeters>
            <DistanceMeters>NAN</DistanceMeters>
          </Trackpoint>
          <Trackpoint>
            <Time>2021-08-10T09:44:56.000Z</Time>
            <Position>
              <LatitudeDegrees>43.12618791125714778900146484375</LatitudeDegrees>
              <LongitudeDegrees>-1.6694023646414279937744140625</LongitudeDegrees>
            </Position>
            <AltitudeMeters>217</AltitudeMeters>
            <DistanceMeters>NAN</DistanceMeters>
          </Trackpoint>
          <Trackpoint>
            <Time>2021-08-10T09:44:57.000Z</Time>
            <Position>
              <LatitudeDegrees>43.126216828823089599609375</LatitudeDegrees>
              <LongitudeDegrees>-1.6694412566721439361572265625</LongitudeDegrees>
            </Position>
            <AltitudeMeters>216.600006103515625</AltitudeMeters>
            <DistanceMeters>NAN</DistanceMeters>
          </Trackpoint>
          <Trackpoint>
            <Time>2021-08-10T09:44:59.000Z</Time>
            <Position>
              <LatitudeDegrees>43.12626083381474018096923828125</LatitudeDegrees>
              <LongitudeDegrees>-1.66950009763240814208984375</LongitudeDegrees>
            </Position>
            <AltitudeMeters>216</AltitudeMeters>
            <DistanceMeters>NAN</DistanceMeters>
          </Trackpoint>
          <Trackpoint>
            <Time>2021-08-10T09:45:00.000Z</Time>
            <Position>
              <LatitudeDegrees>43.126280866563320159912109375</LatitudeDegrees>
              <LongitudeDegrees>-1.66953505016863346099853515625</LongitudeDegrees>
            </Position>
            <AltitudeMeters>215.600006103515625</AltitudeMeters>
            <DistanceMeters>NAN</DistanceMeters>
          </Trackpoint>
          <Trackpoint>
            <Time>2021-08-10T09:45:01.000Z</Time>
            <Position>
              <LatitudeDegrees>43.12630291096866130828857421875</LatitudeDegrees>
              <LongitudeDegrees>-1.66957142762839794158935546875</LongitudeDegrees>
            </Position>
            <AltitudeMeters>215.399993896484375</AltitudeMeters>
            <DistanceMeters>NAN</DistanceMeters>
          </Trackpoint>
          <Trackpoint>
            <Time>2021-08-10T09:45:02.000Z</Time>
            <Position>
              <LatitudeDegrees>43.12632855959236621856689453125</LatitudeDegrees>
              <LongitudeDegrees>-1.669613085687160491943359375</LongitudeDegrees>
            </Position>
            <AltitudeMeters>215</AltitudeMeters>
            <DistanceMeters>NAN</DistanceMeters>
          </Trackpoint>
          <Trackpoint>
            <Time>2021-08-10T09:45:03.000Z</Time>
            <Position>
              <LatitudeDegrees>43.1263464130461215972900390625</LatitudeDegrees>
              <LongitudeDegrees>-1.6696420870721340179443359375</LongitudeDegrees>
            </Position>
            <AltitudeMeters>214.8000030517578125</AltitudeMeters>
            <DistanceMeters>NAN</DistanceMeters>
          </Trackpoint>
          <Trackpoint>
            <Time>2021-08-10T09:45:04.000Z</Time>
            <Position>
              <LatitudeDegrees>43.12636393122375011444091796875</LatitudeDegrees>
              <LongitudeDegrees>-1.6696746088564395904541015625</LongitudeDegrees>
            </Position>
            <AltitudeMeters>214.399993896484375</AltitudeMeters>
            <DistanceMeters>NAN</DistanceMeters>
          </Trackpoint>
          <Trackpoint>
            <Time>2021-08-10T09:45:07.000Z</Time>
            <Position>
              <LatitudeDegrees>43.12643073499202728271484375</LatitudeDegrees>
              <LongitudeDegrees>-1.66980327107012271881103515625</LongitudeDegrees>
            </Position>
            <AltitudeMeters>213.399993896484375</AltitudeMeters>
            <DistanceMeters>NAN</DistanceMeters>
          </Trackpoint>
          <Trackpoint>
            <Time>2021-08-10T09:45:08.000Z</Time>
            <Position>
              <LatitudeDegrees>43.126458562910556793212890625</LatitudeDegrees>
              <LongitudeDegrees>-1.6698529757559299468994140625</LongitudeDegrees>
            </Position>
            <AltitudeMeters>213</AltitudeMeters>
            <DistanceMeters>NAN</DistanceMeters>
          </Trackpoint>
          <Trackpoint>
            <Time>2021-08-10T09:45:11.000Z</Time>
            <Position>
              <LatitudeDegrees>43.12653810717165470123291015625</LatitudeDegrees>
              <LongitudeDegrees>-1.66998750530183315277099609375</LongitudeDegrees>
            </Position>
            <AltitudeMeters>212</AltitudeMeters>
            <DistanceMeters>NAN</DistanceMeters>
          </Trackpoint>
          <Trackpoint>
            <Time>2021-08-10T09:45:12.000Z</Time>
            <Position>
              <LatitudeDegrees>43.12655520625412464141845703125</LatitudeDegrees>
              <LongitudeDegrees>-1.67004802264273166656494140625</LongitudeDegrees>
            </Position>
            <AltitudeMeters>211.600006103515625</AltitudeMeters>
            <DistanceMeters>NAN</DistanceMeters>
          </Trackpoint>
          <Trackpoint>
            <Time>2021-08-10T09:45:13.000Z</Time>
            <Position>
              <LatitudeDegrees>43.1265643425285816192626953125</LatitudeDegrees>
              <LongitudeDegrees>-1.67009630240499973297119140625</LongitudeDegrees>
            </Position>
            <AltitudeMeters>211.399993896484375</AltitudeMeters>
            <DistanceMeters>NAN</DistanceMeters>
          </Trackpoint>
          <Trackpoint>
            <Time>2021-08-10T09:45:14.000Z</Time>
            <Position>
              <LatitudeDegrees>43.1265733949840068817138671875</LatitudeDegrees>
              <LongitudeDegrees>-1.6701470129191875457763671875</LongitudeDegrees>
            </Position>
            <AltitudeMeters>211</AltitudeMeters>
            <DistanceMeters>NAN</DistanceMeters>
          </Trackpoint>
          <Trackpoint>
            <Time>2021-08-10T09:45:15.000Z</Time>
            <Position>
              <LatitudeDegrees>43.12658051960170269012451171875</LatitudeDegrees>
              <LongitudeDegrees>-1.670200489461421966552734375</LongitudeDegrees>
            </Position>
            <AltitudeMeters>210.8000030517578125</AltitudeMeters>
            <DistanceMeters>NAN</DistanceMeters>
          </Trackpoint>
          <Trackpoint>
            <Time>2021-08-10T09:45:18.000Z</Time>
            <Position>
              <LatitudeDegrees>43.126574568450450897216796875</LatitudeDegrees>
              <LongitudeDegrees>-1.6703706420958042144775390625</LongitudeDegrees>
            </Position>
            <AltitudeMeters>209.600006103515625</AltitudeMeters>
            <DistanceMeters>NAN</DistanceMeters>
          </Trackpoint>
          <Trackpoint>
            <Time>2021-08-10T09:45:19.000Z</Time>
            <Position>
              <LatitudeDegrees>43.12655956484377384185791015625</LatitudeDegrees>
              <LongitudeDegrees>-1.6704261302947998046875</LongitudeDegrees>
            </Position>
            <AltitudeMeters>208.600006103515625</AltitudeMeters>
            <DistanceMeters>NAN</DistanceMeters>
          </Trackpoint>
          <Trackpoint>
            <Time>2021-08-10T09:45:20.000Z</Time>
            <Position>
              <LatitudeDegrees>43.12654741108417510986328125</LatitudeDegrees>
              <LongitudeDegrees>-1.6704715602099895477294921875</LongitudeDegrees>
            </Position>
            <AltitudeMeters>208.399993896484375</AltitudeMeters>
            <DistanceMeters>NAN</DistanceMeters>
          </Trackpoint>
          <Trackpoint>
            <Time>2021-08-10T09:45:22.000Z</Time>
            <Position>
              <LatitudeDegrees>43.12652863562107086181640625</LatitudeDegrees>
              <LongitudeDegrees>-1.67058748193085193634033203125</LongitudeDegrees>
            </Position>
            <AltitudeMeters>207.1999969482421875</AltitudeMeters>
            <DistanceMeters>NAN</DistanceMeters>
          </Trackpoint>
          <Trackpoint>
            <Time>2021-08-10T09:45:23.000Z</Time>
            <Position>
              <LatitudeDegrees>43.1265311501920223236083984375</LatitudeDegrees>
              <LongitudeDegrees>-1.670630313456058502197265625</LongitudeDegrees>
            </Position>
            <AltitudeMeters>206.399993896484375</AltitudeMeters>
            <DistanceMeters>NAN</DistanceMeters>
          </Trackpoint>
          <Trackpoint>
            <Time>2021-08-10T09:45:24.000Z</Time>
            <Position>
              <LatitudeDegrees>43.12654078938066959381103515625</LatitudeDegrees>
              <LongitudeDegrees>-1.67066325433552265167236328125</LongitudeDegrees>
            </Position>
            <AltitudeMeters>206</AltitudeMeters>
            <DistanceMeters>NAN</DistanceMeters>
          </Trackpoint>
          <Trackpoint>
            <Time>2021-08-10T09:45:25.000Z</Time>
            <Position>
              <LatitudeDegrees>43.126557134091854095458984375</LatitudeDegrees>
              <LongitudeDegrees>-1.67068831622600555419921875</LongitudeDegrees>
            </Position>
            <AltitudeMeters>205.600006103515625</AltitudeMeters>
            <DistanceMeters>NAN</DistanceMeters>
          </Trackpoint>
          <Trackpoint>
            <Time>2021-08-10T09:45:26.000Z</Time>
            <Position>
              <LatitudeDegrees>43.12657683156430721282958984375</LatitudeDegrees>
              <LongitudeDegrees>-1.67070969007909297943115234375</LongitudeDegrees>
            </Position>
            <AltitudeMeters>204.1999969482421875</AltitudeMeters>
            <DistanceMeters>NAN</DistanceMeters>
          </Trackpoint>
          <Trackpoint>
            <Time>2021-08-10T09:45:27.000Z</Time>
            <Position>
              <LatitudeDegrees>43.12659460119903087615966796875</LatitudeDegrees>
              <LongitudeDegrees>-1.67072779498994350433349609375</LongitudeDegrees>
            </Position>
            <AltitudeMeters>203.8000030517578125</AltitudeMeters>
            <DistanceMeters>NAN</DistanceMeters>
          </Trackpoint>
          <Trackpoint>
            <Time>2021-08-10T09:45:28.000Z</Time>
            <Position>
              <LatitudeDegrees>43.12660868279635906219482421875</LatitudeDegrees>
              <LongitudeDegrees>-1.67074338532984256744384765625</LongitudeDegrees>
            </Position>
            <AltitudeMeters>203.1999969482421875</AltitudeMeters>
            <DistanceMeters>NAN</DistanceMeters>
          </Trackpoint>
          <Trackpoint>
            <Time>2021-08-10T09:45:29.000Z</Time>
            <Position>
              <LatitudeDegrees>43.126621507108211517333984375</LatitudeDegrees>
              <LongitudeDegrees>-1.67075394652783870697021484375</LongitudeDegrees>
            </Position>
            <AltitudeMeters>203</AltitudeMeters>
            <DistanceMeters>NAN</DistanceMeters>
          </Trackpoint>
          <Trackpoint>
            <Time>2021-08-10T09:45:30.000Z</Time>
            <Position>
              <LatitudeDegrees>43.12663818709552288055419921875</LatitudeDegrees>
              <LongitudeDegrees>-1.67075914330780506134033203125</LongitudeDegrees>
            </Position>
            <AltitudeMeters>202.399993896484375</AltitudeMeters>
            <DistanceMeters>NAN</DistanceMeters>
          </Trackpoint>
          <Trackpoint>
            <Time>2021-08-10T09:45:32.000Z</Time>
            <Position>
              <LatitudeDegrees>43.12667741440236568450927734375</LatitudeDegrees>
              <LongitudeDegrees>-1.670770458877086639404296875</LongitudeDegrees>
            </Position>
            <AltitudeMeters>201.8000030517578125</AltitudeMeters>
            <DistanceMeters>NAN</DistanceMeters>
          </Trackpoint>
          <Trackpoint>
            <Time>2021-08-10T09:45:33.000Z</Time>
            <Position>
              <LatitudeDegrees>43.12669753096997737884521484375</LatitudeDegrees>
              <LongitudeDegrees>-1.67077012360095977783203125</LongitudeDegrees>
            </Position>
            <AltitudeMeters>201.399993896484375</AltitudeMeters>
            <DistanceMeters>NAN</DistanceMeters>
          </Trackpoint>
          <Trackpoint>
            <Time>2021-08-10T09:45:35.000Z</Time>
            <Position>
              <LatitudeDegrees>43.1267366744577884674072265625</LatitudeDegrees>
              <LongitudeDegrees>-1.6707592271268367767333984375</LongitudeDegrees>
            </Position>
            <AltitudeMeters>201</AltitudeMeters>
            <DistanceMeters>NAN</DistanceMeters>
          </Trackpoint>
          <Trackpoint>
            <Time>2021-08-10T09:45:36.000Z</Time>
            <Position>
              <LatitudeDegrees>43.12676575966179370880126953125</LatitudeDegrees>
              <LongitudeDegrees>-1.6707441397011280059814453125</LongitudeDegrees>
            </Position>
            <AltitudeMeters>201</AltitudeMeters>
            <DistanceMeters>NAN</DistanceMeters>
          </Trackpoint>
          <Trackpoint>
            <Time>2021-08-10T09:45:40.000Z</Time>
            <Position>
              <LatitudeDegrees>43.12687866389751434326171875</LatitudeDegrees>
              <LongitudeDegrees>-1.6707064211368560791015625</LongitudeDegrees>
            </Position>
            <AltitudeMeters>200</AltitudeMeters>
            <DistanceMeters>NAN</DistanceMeters>
          </Trackpoint>
          <Trackpoint>
            <Time>2021-08-10T09:45:42.000Z</Time>
            <Position>
              <LatitudeDegrees>43.12694764696061611175537109375</LatitudeDegrees>
              <LongitudeDegrees>-1.6706956923007965087890625</LongitudeDegrees>
            </Position>
            <AltitudeMeters>199.8000030517578125</AltitudeMeters>
            <DistanceMeters>NAN</DistanceMeters>
          </Trackpoint>
          <Trackpoint>
            <Time>2021-08-10T09:45:43.000Z</Time>
            <Position>
              <LatitudeDegrees>43.1269723735749721527099609375</LatitudeDegrees>
              <LongitudeDegrees>-1.6706881485879421234130859375</LongitudeDegrees>
            </Position>
            <AltitudeMeters>199.600006103515625</AltitudeMeters>
            <DistanceMeters>NAN</DistanceMeters>
          </Trackpoint>
          <Trackpoint>
            <Time>2021-08-10T09:45:45.000Z</Time>
            <Position>
              <LatitudeDegrees>43.12702442519366741180419921875</LatitudeDegrees>
              <LongitudeDegrees>-1.67066291905939579010009765625</LongitudeDegrees>
            </Position>
            <AltitudeMeters>199</AltitudeMeters>
            <DistanceMeters>NAN</DistanceMeters>
          </Trackpoint>
          <Trackpoint>
            <Time>2021-08-10T09:45:46.000Z</Time>
            <Position>
              <LatitudeDegrees>43.127064742147922515869140625</LatitudeDegrees>
              <LongitudeDegrees>-1.6706447303295135498046875</LongitudeDegrees>
            </Position>
            <AltitudeMeters>198.600006103515625</AltitudeMeters>
            <DistanceMeters>NAN</DistanceMeters>
          </Trackpoint>
          <Trackpoint>
            <Time>2021-08-10T09:45:50.000Z</Time>
            <Position>
              <LatitudeDegrees>43.1272027082741260528564453125</LatitudeDegrees>
              <LongitudeDegrees>-1.67055563069880008697509765625</LongitudeDegrees>
            </Position>
            <AltitudeMeters>197.399993896484375</AltitudeMeters>
            <DistanceMeters>NAN</DistanceMeters>
          </Trackpoint>
          <Trackpoint>
            <Time>2021-08-10T09:45:51.000Z</Time>
            <Position>
              <LatitudeDegrees>43.12723933719098567962646484375</LatitudeDegrees>
              <LongitudeDegrees>-1.67053115554153919219970703125</LongitudeDegrees>
            </Position>
            <AltitudeMeters>197.1999969482421875</AltitudeMeters>
            <DistanceMeters>NAN</DistanceMeters>
          </Trackpoint>
          <Trackpoint>
            <Time>2021-08-10T09:45:54.000Z</Time>
            <Position>
              <LatitudeDegrees>43.12734444625675678253173828125</LatitudeDegrees>
              <LongitudeDegrees>-1.67043778114020824432373046875</LongitudeDegrees>
            </Position>
            <AltitudeMeters>196</AltitudeMeters>
            <DistanceMeters>NAN</DistanceMeters>
          </Trackpoint>
          <Trackpoint>
            <Time>2021-08-10T09:45:57.000Z</Time>
            <Position>
              <LatitudeDegrees>43.1274263374507427215576171875</LatitudeDegrees>
              <LongitudeDegrees>-1.6703354381024837493896484375</LongitudeDegrees>
            </Position>
            <AltitudeMeters>195.1999969482421875</AltitudeMeters>
            <DistanceMeters>NAN</DistanceMeters>
          </Trackpoint>
          <Trackpoint>
            <Time>2021-08-10T09:45:58.000Z</Time>
            <Position>
              <LatitudeDegrees>43.1274602003395557403564453125</LatitudeDegrees>
              <LongitudeDegrees>-1.67030819691717624664306640625</LongitudeDegrees>
            </Position>
            <AltitudeMeters>195</AltitudeMeters>
            <DistanceMeters>NAN</DistanceMeters>
          </Trackpoint>
          <Trackpoint>
            <Time>2021-08-10T09:46:00.000Z</Time>
            <Position>
              <LatitudeDegrees>43.12750722281634807586669921875</LatitudeDegrees>
              <LongitudeDegrees>-1.67024441063404083251953125</LongitudeDegrees>
            </Position>
            <AltitudeMeters>194.600006103515625</AltitudeMeters>
            <DistanceMeters>NAN</DistanceMeters>
          </Trackpoint>
          <Trackpoint>
            <Time>2021-08-10T09:46:01.000Z</Time>
            <Position>
              <LatitudeDegrees>43.127533458173274993896484375</LatitudeDegrees>
              <LongitudeDegrees>-1.6702130623161792755126953125</LongitudeDegrees>
            </Position>
            <AltitudeMeters>194.1999969482421875</AltitudeMeters>
            <DistanceMeters>NAN</DistanceMeters>
          </Trackpoint>
          <Trackpoint>
            <Time>2021-08-10T09:46:02.000Z</Time>
            <Position>
              <LatitudeDegrees>43.1275671534240245819091796875</LatitudeDegrees>
              <LongitudeDegrees>-1.67017928324639797210693359375</LongitudeDegrees>
            </Position>
            <AltitudeMeters>193.8000030517578125</AltitudeMeters>
            <DistanceMeters>NAN</DistanceMeters>
          </Trackpoint>
          <Trackpoint>
            <Time>2021-08-10T09:46:03.000Z</Time>
            <Position>
              <LatitudeDegrees>43.12760286033153533935546875</LatitudeDegrees>
              <LongitudeDegrees>-1.67014726437628269195556640625</LongitudeDegrees>
            </Position>
            <AltitudeMeters>193.399993896484375</AltitudeMeters>
            <DistanceMeters>NAN</DistanceMeters>
          </Trackpoint>
          <Trackpoint>
            <Time>2021-08-10T09:46:04.000Z</Time>
            <Position>
              <LatitudeDegrees>43.12764653004705905914306640625</LatitudeDegrees>
              <LongitudeDegrees>-1.67011105455458164215087890625</LongitudeDegrees>
            </Position>
            <AltitudeMeters>193.1999969482421875</AltitudeMeters>
            <DistanceMeters>NAN</DistanceMeters>
          </Trackpoint>
          <Trackpoint>
            <Time>2021-08-10T09:46:05.000Z</Time>
            <Position>
              <LatitudeDegrees>43.12769807875156402587890625</LatitudeDegrees>
              <LongitudeDegrees>-1.670077107846736907958984375</LongitudeDegrees>
            </Position>
            <AltitudeMeters>193</AltitudeMeters>
            <DistanceMeters>NAN</DistanceMeters>
          </Trackpoint>
          <Trackpoint>
            <Time>2021-08-10T09:46:06.000Z</Time>
            <Position>
              <LatitudeDegrees>43.12774560414254665374755859375</LatitudeDegrees>
              <LongitudeDegrees>-1.67004416696727275848388671875</LongitudeDegrees>
            </Position>
            <AltitudeMeters>192.8000030517578125</AltitudeMeters>
            <DistanceMeters>NAN</DistanceMeters>
          </Trackpoint>
          <Trackpoint>
            <Time>2021-08-10T09:46:08.000Z</Time>
            <Position>
              <LatitudeDegrees>43.12784099020063877105712890625</LatitudeDegrees>
              <LongitudeDegrees>-1.669964455068111419677734375</LongitudeDegrees>
            </Position>
            <AltitudeMeters>191.1999969482421875</AltitudeMeters>
            <DistanceMeters>NAN</DistanceMeters>
          </Trackpoint>
          <Trackpoint>
            <Time>2021-08-10T09:46:09.000Z</Time>
            <Position>
              <LatitudeDegrees>43.12788709066808223724365234375</LatitudeDegrees>
              <LongitudeDegrees>-1.66992916725575923919677734375</LongitudeDegrees>
            </Position>
            <AltitudeMeters>190.8000030517578125</AltitudeMeters>
            <DistanceMeters>NAN</DistanceMeters>
          </Trackpoint>
          <Trackpoint>
            <Time>2021-08-10T09:46:10.000Z</Time>
            <Position>
              <LatitudeDegrees>43.1279389746487140655517578125</LatitudeDegrees>
              <LongitudeDegrees>-1.6698989085853099822998046875</LongitudeDegrees>
            </Position>
            <AltitudeMeters>190</AltitudeMeters>
            <DistanceMeters>NAN</DistanceMeters>
          </Trackpoint>
          <Trackpoint>
            <Time>2021-08-10T09:46:12.000Z</Time>
            <Position>
              <LatitudeDegrees>43.1280313432216644287109375</LatitudeDegrees>
              <LongitudeDegrees>-1.6698293387889862060546875</LongitudeDegrees>
            </Position>
            <AltitudeMeters>189</AltitudeMeters>
            <DistanceMeters>NAN</DistanceMeters>
          </Trackpoint>
          <Trackpoint>
            <Time>2021-08-10T09:46:15.000Z</Time>
            <Position>
              <LatitudeDegrees>43.1281709857285022735595703125</LatitudeDegrees>
              <LongitudeDegrees>-1.66970201767981052398681640625</LongitudeDegrees>
            </Position>
            <AltitudeMeters>187.600006103515625</AltitudeMeters>
            <DistanceMeters>NAN</DistanceMeters>
          </Trackpoint>
          <Trackpoint>
            <Time>2021-08-10T09:46:17.000Z</Time>
            <Position>
              <LatitudeDegrees>43.12826796434819698333740234375</LatitudeDegrees>
              <LongitudeDegrees>-1.669609732925891876220703125</LongitudeDegrees>
            </Position>
            <AltitudeMeters>186.8000030517578125</AltitudeMeters>
            <DistanceMeters>NAN</DistanceMeters>
          </Trackpoint>
          <Trackpoint>
            <Time>2021-08-10T09:46:18.000Z</Time>
            <Position>
              <LatitudeDegrees>43.1283211894333362579345703125</LatitudeDegrees>
              <LongitudeDegrees>-1.66954946704208850860595703125</LongitudeDegrees>
            </Position>
            <AltitudeMeters>186.399993896484375</AltitudeMeters>
            <DistanceMeters>NAN</DistanceMeters>
          </Trackpoint>
          <Trackpoint>
            <Time>2021-08-10T09:46:20.000Z</Time>
            <Position>
              <LatitudeDegrees>43.12841917388141155242919921875</LatitudeDegrees>
              <LongitudeDegrees>-1.6694620437920093536376953125</LongitudeDegrees>
            </Position>
            <AltitudeMeters>185.8000030517578125</AltitudeMeters>
            <DistanceMeters>NAN</DistanceMeters>
          </Trackpoint>
          <Trackpoint>
            <Time>2021-08-10T09:46:21.000Z</Time>
            <Position>
              <LatitudeDegrees>43.12845387496054172515869140625</LatitudeDegrees>
              <LongitudeDegrees>-1.66942407377064228057861328125</LongitudeDegrees>
            </Position>
            <AltitudeMeters>185.399993896484375</AltitudeMeters>
            <DistanceMeters>NAN</DistanceMeters>
          </Trackpoint>
          <Trackpoint>
            <Time>2021-08-10T09:46:22.000Z</Time>
            <Position>
              <LatitudeDegrees>43.128485977649688720703125</LatitudeDegrees>
              <LongitudeDegrees>-1.669377051293849945068359375</LongitudeDegrees>
            </Position>
            <AltitudeMeters>185.399993896484375</AltitudeMeters>
            <DistanceMeters>NAN</DistanceMeters>
          </Trackpoint>
          <Trackpoint>
            <Time>2021-08-10T09:46:24.000Z</Time>
            <Position>
              <LatitudeDegrees>43.128560073673725128173828125</LatitudeDegrees>
              <LongitudeDegrees>-1.66927755810320377349853515625</LongitudeDegrees>
            </Position>
            <AltitudeMeters>184.600006103515625</AltitudeMeters>
            <DistanceMeters>NAN</DistanceMeters>
          </Trackpoint>
          <Trackpoint>
            <Time>2021-08-10T09:46:25.000Z</Time>
            <Position>
              <LatitudeDegrees>43.12859938479959964752197265625</LatitudeDegrees>
              <LongitudeDegrees>-1.66923548094928264617919921875</LongitudeDegrees>
            </Position>
            <AltitudeMeters>184</AltitudeMeters>
            <DistanceMeters>NAN</DistanceMeters>
          </Trackpoint>
          <Trackpoint>
            <Time>2021-08-10T09:46:26.000Z</Time>
            <Position>
              <LatitudeDegrees>43.1286534480750560760498046875</LatitudeDegrees>
              <LongitudeDegrees>-1.669212765991687774658203125</LongitudeDegrees>
            </Position>
            <AltitudeMeters>183.600006103515625</AltitudeMeters>
            <DistanceMeters>NAN</DistanceMeters>
          </Trackpoint>
          <Trackpoint>
            <Time>2021-08-10T09:46:27.000Z</Time>
            <Position>
              <LatitudeDegrees>43.12872310169041156768798828125</LatitudeDegrees>
              <LongitudeDegrees>-1.66919927112758159637451171875</LongitudeDegrees>
            </Position>
            <AltitudeMeters>183.1999969482421875</AltitudeMeters>
            <DistanceMeters>NAN</DistanceMeters>
          </Trackpoint>
          <Trackpoint>
            <Time>2021-08-10T09:46:28.000Z</Time>
            <Position>
              <LatitudeDegrees>43.12878143973648548126220703125</LatitudeDegrees>
              <LongitudeDegrees>-1.6691918112337589263916015625</LongitudeDegrees>
            </Position>
            <AltitudeMeters>182.8000030517578125</AltitudeMeters>
            <DistanceMeters>NAN</DistanceMeters>
          </Trackpoint>
          <Trackpoint>
            <Time>2021-08-10T09:46:29.000Z</Time>
            <Position>
              <LatitudeDegrees>43.12882670201361179351806640625</LatitudeDegrees>
              <LongitudeDegrees>-1.6691730357706546783447265625</LongitudeDegrees>
            </Position>
            <AltitudeMeters>182.600006103515625</AltitudeMeters>
            <DistanceMeters>NAN</DistanceMeters>
          </Trackpoint>
          <Trackpoint>
            <Time>2021-08-10T09:46:30.000Z</Time>
            <Position>
              <LatitudeDegrees>43.1288697011768817901611328125</LatitudeDegrees>
              <LongitudeDegrees>-1.6691545955836772918701171875</LongitudeDegrees>
            </Position>
            <AltitudeMeters>182.1999969482421875</AltitudeMeters>
            <DistanceMeters>NAN</DistanceMeters>
          </Trackpoint>
          <Trackpoint>
            <Time>2021-08-10T09:46:31.000Z</Time>
            <Position>
              <LatitudeDegrees>43.12890415079891681671142578125</LatitudeDegrees>
              <LongitudeDegrees>-1.66913825087249279022216796875</LongitudeDegrees>
            </Position>
            <AltitudeMeters>181.8000030517578125</AltitudeMeters>
            <DistanceMeters>NAN</DistanceMeters>
          </Trackpoint>
          <Trackpoint>
            <Time>2021-08-10T09:46:32.000Z</Time>
            <Position>
              <LatitudeDegrees>43.128944970667362213134765625</LatitudeDegrees>
              <LongitudeDegrees>-1.6691110096871852874755859375</LongitudeDegrees>
            </Position>
            <AltitudeMeters>181.600006103515625</AltitudeMeters>
            <DistanceMeters>NAN</DistanceMeters>
          </Trackpoint>
          <Trackpoint>
            <Time>2021-08-10T09:46:34.000Z</Time>
            <Position>
              <LatitudeDegrees>43.12902283854782581329345703125</LatitudeDegrees>
              <LongitudeDegrees>-1.6690375842154026031494140625</LongitudeDegrees>
            </Position>
            <AltitudeMeters>181</AltitudeMeters>
            <DistanceMeters>NAN</DistanceMeters>
          </Trackpoint>
          <Trackpoint>
            <Time>2021-08-10T09:46:36.000Z</Time>
            <Position>
              <LatitudeDegrees>43.12909324653446674346923828125</LatitudeDegrees>
              <LongitudeDegrees>-1.66895158588886260986328125</LongitudeDegrees>
            </Position>
            <AltitudeMeters>180.600006103515625</AltitudeMeters>
            <DistanceMeters>NAN</DistanceMeters>
          </Trackpoint>
          <Trackpoint>
            <Time>2021-08-10T09:46:37.000Z</Time>
            <Position>
              <LatitudeDegrees>43.129124678671360015869140625</LatitudeDegrees>
              <LongitudeDegrees>-1.66891059838235378265380859375</LongitudeDegrees>
            </Position>
            <AltitudeMeters>180.1999969482421875</AltitudeMeters>
            <DistanceMeters>NAN</DistanceMeters>
          </Trackpoint>
          <Trackpoint>
            <Time>2021-08-10T09:46:39.000Z</Time>
            <Position>
              <LatitudeDegrees>43.12918695621192455291748046875</LatitudeDegrees>
              <LongitudeDegrees>-1.6688246838748455047607421875</LongitudeDegrees>
            </Position>
            <AltitudeMeters>179.600006103515625</AltitudeMeters>
            <DistanceMeters>NAN</DistanceMeters>
          </Trackpoint>
          <Trackpoint>
            <Time>2021-08-10T09:46:40.000Z</Time>
            <Position>
              <LatitudeDegrees>43.129217214882373809814453125</LatitudeDegrees>
              <LongitudeDegrees>-1.66879107244312763214111328125</LongitudeDegrees>
            </Position>
            <AltitudeMeters>178.8000030517578125</AltitudeMeters>
            <DistanceMeters>NAN</DistanceMeters>
          </Trackpoint>
          <Trackpoint>
            <Time>2021-08-10T09:46:41.000Z</Time>
            <Position>
              <LatitudeDegrees>43.1292509101331233978271484375</LatitudeDegrees>
              <LongitudeDegrees>-1.66875905357301235198974609375</LongitudeDegrees>
            </Position>
            <AltitudeMeters>178.399993896484375</AltitudeMeters>
            <DistanceMeters>NAN</DistanceMeters>
          </Trackpoint>
          <Trackpoint>
            <Time>2021-08-10T09:46:42.000Z</Time>
            <Position>
              <LatitudeDegrees>43.12928737141191959381103515625</LatitudeDegrees>
              <LongitudeDegrees>-1.66873055510222911834716796875</LongitudeDegrees>
            </Position>
            <AltitudeMeters>178</AltitudeMeters>
            <DistanceMeters>NAN</DistanceMeters>
          </Trackpoint>
          <Trackpoint>
            <Time>2021-08-10T09:46:43.000Z</Time>
            <Position>
              <LatitudeDegrees>43.12932693399488925933837890625</LatitudeDegrees>
              <LongitudeDegrees>-1.66870943270623683929443359375</LongitudeDegrees>
            </Position>
            <AltitudeMeters>177.600006103515625</AltitudeMeters>
            <DistanceMeters>NAN</DistanceMeters>
          </Trackpoint>
          <Trackpoint>
            <Time>2021-08-10T09:46:44.000Z</Time>
            <Position>
              <LatitudeDegrees>43.12936616130173206329345703125</LatitudeDegrees>
              <LongitudeDegrees>-1.66869250126183032989501953125</LongitudeDegrees>
            </Position>
            <AltitudeMeters>177.1999969482421875</AltitudeMeters>
            <DistanceMeters>NAN</DistanceMeters>
          </Trackpoint>
          <Trackpoint>
            <Time>2021-08-10T09:46:45.000Z</Time>
            <Position>
              <LatitudeDegrees>43.12940371222794055938720703125</LatitudeDegrees>
              <LongitudeDegrees>-1.66867858730256557464599609375</LongitudeDegrees>
            </Position>
            <AltitudeMeters>176.600006103515625</AltitudeMeters>
            <DistanceMeters>NAN</DistanceMeters>
          </Trackpoint>
          <Trackpoint>
            <Time>2021-08-10T09:46:46.000Z</Time>
            <Position>
              <LatitudeDegrees>43.12944059260189533233642578125</LatitudeDegrees>
              <LongitudeDegrees>-1.66867322288453578948974609375</LongitudeDegrees>
            </Position>
            <AltitudeMeters>176.399993896484375</AltitudeMeters>
            <DistanceMeters>NAN</DistanceMeters>
          </Trackpoint>
          <Trackpoint>
            <Time>2021-08-10T09:46:47.000Z</Time>
            <Position>
              <LatitudeDegrees>43.12947663478553295135498046875</LatitudeDegrees>
              <LongitudeDegrees>-1.66867841966450214385986328125</LongitudeDegrees>
            </Position>
            <AltitudeMeters>175.8000030517578125</AltitudeMeters>
            <DistanceMeters>NAN</DistanceMeters>
          </Trackpoint>
          <Trackpoint>
            <Time>2021-08-10T09:46:48.000Z</Time>
            <Position>
              <LatitudeDegrees>43.129510246217250823974609375</LatitudeDegrees>
              <LongitudeDegrees>-1.668692417442798614501953125</LongitudeDegrees>
            </Position>
            <AltitudeMeters>175.600006103515625</AltitudeMeters>
            <DistanceMeters>NAN</DistanceMeters>
          </Trackpoint>
          <Trackpoint>
            <Time>2021-08-10T09:46:49.000Z</Time>
            <Position>
              <LatitudeDegrees>43.1295395828783512115478515625</LatitudeDegrees>
              <LongitudeDegrees>-1.66871546767652034759521484375</LongitudeDegrees>
            </Position>
            <AltitudeMeters>175</AltitudeMeters>
            <DistanceMeters>NAN</DistanceMeters>
          </Trackpoint>
          <Trackpoint>
            <Time>2021-08-10T09:46:50.000Z</Time>
            <Position>
              <LatitudeDegrees>43.12956665642559528350830078125</LatitudeDegrees>
              <LongitudeDegrees>-1.6687418706715106964111328125</LongitudeDegrees>
            </Position>
            <AltitudeMeters>174.600006103515625</AltitudeMeters>
            <DistanceMeters>NAN</DistanceMeters>
          </Trackpoint>
          <Trackpoint>
            <Time>2021-08-10T09:46:51.000Z</Time>
            <Position>
              <LatitudeDegrees>43.1295959092676639556884765625</LatitudeDegrees>
              <LongitudeDegrees>-1.66877196170389652252197265625</LongitudeDegrees>
            </Position>
            <AltitudeMeters>173.600006103515625</AltitudeMeters>
            <DistanceMeters>NAN</DistanceMeters>
          </Trackpoint>
          <Trackpoint>
            <Time>2021-08-10T09:46:52.000Z</Time>
            <Position>
              <LatitudeDegrees>43.1296218931674957275390625</LatitudeDegrees>
              <LongitudeDegrees>-1.6687992028892040252685546875</LongitudeDegrees>
            </Position>
            <AltitudeMeters>172.8000030517578125</AltitudeMeters>
            <DistanceMeters>NAN</DistanceMeters>
          </Trackpoint>
          <Trackpoint>
            <Time>2021-08-10T09:46:53.000Z</Time>
            <Position>
              <LatitudeDegrees>43.1296445243060588836669921875</LatitudeDegrees>
              <LongitudeDegrees>-1.66883029974997043609619140625</LongitudeDegrees>
            </Position>
            <AltitudeMeters>172.600006103515625</AltitudeMeters>
            <DistanceMeters>NAN</DistanceMeters>
          </Trackpoint>
          <Trackpoint>
            <Time>2021-08-10T09:46:54.000Z</Time>
            <Position>
              <LatitudeDegrees>43.12965785153210163116455078125</LatitudeDegrees>
              <LongitudeDegrees>-1.66885963641107082366943359375</LongitudeDegrees>
            </Position>
            <AltitudeMeters>171.600006103515625</AltitudeMeters>
            <DistanceMeters>NAN</DistanceMeters>
          </Trackpoint>
          <Trackpoint>
            <Time>2021-08-10T09:46:55.000Z</Time>
            <Position>
              <LatitudeDegrees>43.12967042438685894012451171875</LatitudeDegrees>
              <LongitudeDegrees>-1.6689038090407848358154296875</LongitudeDegrees>
            </Position>
            <AltitudeMeters>171</AltitudeMeters>
            <DistanceMeters>NAN</DistanceMeters>
          </Trackpoint>
          <Trackpoint>
            <Time>2021-08-10T09:46:56.000Z</Time>
            <Position>
              <LatitudeDegrees>43.12967444770038127899169921875</LatitudeDegrees>
              <LongitudeDegrees>-1.66895384900271892547607421875</LongitudeDegrees>
            </Position>
            <AltitudeMeters>170</AltitudeMeters>
            <DistanceMeters>NAN</DistanceMeters>
          </Trackpoint>
          <Trackpoint>
            <Time>2021-08-10T09:46:57.000Z</Time>
            <Position>
              <LatitudeDegrees>43.1296741962432861328125</LatitudeDegrees>
              <LongitudeDegrees>-1.66900296695530414581298828125</LongitudeDegrees>
            </Position>
            <AltitudeMeters>169.399993896484375</AltitudeMeters>
            <DistanceMeters>NAN</DistanceMeters>
          </Trackpoint>
          <Trackpoint>
            <Time>2021-08-10T09:46:58.000Z</Time>
            <Position>
              <LatitudeDegrees>43.1296773813664913177490234375</LatitudeDegrees>
              <LongitudeDegrees>-1.669050492346286773681640625</LongitudeDegrees>
            </Position>
            <AltitudeMeters>168.8000030517578125</AltitudeMeters>
            <DistanceMeters>NAN</DistanceMeters>
          </Trackpoint>
          <Trackpoint>
            <Time>2021-08-10T09:46:59.000Z</Time>
            <Position>
              <LatitudeDegrees>43.129683919250965118408203125</LatitudeDegrees>
              <LongitudeDegrees>-1.6690959222614765167236328125</LongitudeDegrees>
            </Position>
            <AltitudeMeters>168</AltitudeMeters>
            <DistanceMeters>NAN</DistanceMeters>
          </Trackpoint>
          <Trackpoint>
            <Time>2021-08-10T09:47:00.000Z</Time>
            <Position>
              <LatitudeDegrees>43.12969003804028034210205078125</LatitudeDegrees>
              <LongitudeDegrees>-1.66914059780538082122802734375</LongitudeDegrees>
            </Position>
            <AltitudeMeters>167.600006103515625</AltitudeMeters>
            <DistanceMeters>NAN</DistanceMeters>
          </Trackpoint>
          <Trackpoint>
            <Time>2021-08-10T09:47:01.000Z</Time>
            <Position>
              <LatitudeDegrees>43.12970168888568878173828125</LatitudeDegrees>
              <LongitudeDegrees>-1.6691810823976993560791015625</LongitudeDegrees>
            </Position>
            <AltitudeMeters>167</AltitudeMeters>
            <DistanceMeters>NAN</DistanceMeters>
          </Trackpoint>
          <Trackpoint>
            <Time>2021-08-10T09:47:02.000Z</Time>
            <Position>
              <LatitudeDegrees>43.12971937470138072967529296875</LatitudeDegrees>
              <LongitudeDegrees>-1.66921100579202175140380859375</LongitudeDegrees>
            </Position>
            <AltitudeMeters>166.600006103515625</AltitudeMeters>
            <DistanceMeters>NAN</DistanceMeters>
          </Trackpoint>
          <Trackpoint>
            <Time>2021-08-10T09:47:03.000Z</Time>
            <Position>
              <LatitudeDegrees>43.12973915599286556243896484375</LatitudeDegrees>
              <LongitudeDegrees>-1.6692407615482807159423828125</LongitudeDegrees>
            </Position>
            <AltitudeMeters>166</AltitudeMeters>
            <DistanceMeters>NAN</DistanceMeters>
          </Trackpoint>
          <Trackpoint>
            <Time>2021-08-10T09:47:04.000Z</Time>
            <Position>
              <LatitudeDegrees>43.1297595240175724029541015625</LatitudeDegrees>
              <LongitudeDegrees>-1.66927303187549114227294921875</LongitudeDegrees>
            </Position>
            <AltitudeMeters>165.600006103515625</AltitudeMeters>
            <DistanceMeters>NAN</DistanceMeters>
          </Trackpoint>
          <Trackpoint>
            <Time>2021-08-10T09:47:05.000Z</Time>
            <Position>
              <LatitudeDegrees>43.1297793053090572357177734375</LatitudeDegrees>
              <LongitudeDegrees>-1.66930739767849445343017578125</LongitudeDegrees>
            </Position>
            <AltitudeMeters>164.8000030517578125</AltitudeMeters>
            <DistanceMeters>NAN</DistanceMeters>
          </Trackpoint>
          <Trackpoint>
            <Time>2021-08-10T09:47:06.000Z</Time>
            <Position>
              <LatitudeDegrees>43.1297994218766689300537109375</LatitudeDegrees>
              <LongitudeDegrees>-1.66933958418667316436767578125</LongitudeDegrees>
            </Position>
            <AltitudeMeters>164</AltitudeMeters>
            <DistanceMeters>NAN</DistanceMeters>
          </Trackpoint>
          <Trackpoint>
            <Time>2021-08-10T09:47:08.000Z</Time>
            <Position>
              <LatitudeDegrees>43.1298513896763324737548828125</LatitudeDegrees>
              <LongitudeDegrees>-1.66940328665077686309814453125</LongitudeDegrees>
            </Position>
            <AltitudeMeters>162.600006103515625</AltitudeMeters>
            <DistanceMeters>NAN</DistanceMeters>
          </Trackpoint>
          <Trackpoint>
            <Time>2021-08-10T09:47:10.000Z</Time>
            <Position>
              <LatitudeDegrees>43.12990645878016948699951171875</LatitudeDegrees>
              <LongitudeDegrees>-1.66947185061872005462646484375</LongitudeDegrees>
            </Position>
            <AltitudeMeters>161.399993896484375</AltitudeMeters>
            <DistanceMeters>NAN</DistanceMeters>
          </Trackpoint>
          <Trackpoint>
            <Time>2021-08-10T09:47:12.000Z</Time>
            <Position>
              <LatitudeDegrees>43.1299566663801670074462890625</LatitudeDegrees>
              <LongitudeDegrees>-1.669546030461788177490234375</LongitudeDegrees>
            </Position>
            <AltitudeMeters>160.1999969482421875</AltitudeMeters>
            <DistanceMeters>NAN</DistanceMeters>
          </Trackpoint>
          <Trackpoint>
            <Time>2021-08-10T09:47:13.000Z</Time>
            <Position>
              <LatitudeDegrees>43.12997871078550815582275390625</LatitudeDegrees>
              <LongitudeDegrees>-1.66958165355026721954345703125</LongitudeDegrees>
            </Position>
            <AltitudeMeters>159.1999969482421875</AltitudeMeters>
            <DistanceMeters>NAN</DistanceMeters>
          </Trackpoint>
          <Trackpoint>
            <Time>2021-08-10T09:47:15.000Z</Time>
            <Position>
              <LatitudeDegrees>43.13003025949001312255859375</LatitudeDegrees>
              <LongitudeDegrees>-1.6696484573185443878173828125</LongitudeDegrees>
            </Position>
            <AltitudeMeters>158</AltitudeMeters>
            <DistanceMeters>NAN</DistanceMeters>
          </Trackpoint>
          <Trackpoint>
            <Time>2021-08-10T09:47:16.000Z</Time>
            <Position>
              <LatitudeDegrees>43.1300471909344196319580078125</LatitudeDegrees>
              <LongitudeDegrees>-1.6696715913712978363037109375</LongitudeDegrees>
            </Position>
            <AltitudeMeters>157.399993896484375</AltitudeMeters>
            <DistanceMeters>NAN</DistanceMeters>
          </Trackpoint>
          <Trackpoint>
            <Time>2021-08-10T09:47:17.000Z</Time>
            <Position>
              <LatitudeDegrees>43.1300683133304119110107421875</LatitudeDegrees>
              <LongitudeDegrees>-1.66969883255660533905029296875</LongitudeDegrees>
            </Position>
            <AltitudeMeters>156.1999969482421875</AltitudeMeters>
            <DistanceMeters>NAN</DistanceMeters>
          </Trackpoint>
          <Trackpoint>
            <Time>2021-08-10T09:47:18.000Z</Time>
            <Position>
              <LatitudeDegrees>43.13008734025061130523681640625</LatitudeDegrees>
              <LongitudeDegrees>-1.6697272472083568572998046875</LongitudeDegrees>
            </Position>
            <AltitudeMeters>155.8000030517578125</AltitudeMeters>
            <DistanceMeters>NAN</DistanceMeters>
          </Trackpoint>
          <Trackpoint>
            <Time>2021-08-10T09:47:19.000Z</Time>
            <Position>
              <LatitudeDegrees>43.13010360114276409149169921875</LatitudeDegrees>
              <LongitudeDegrees>-1.66975398547947406768798828125</LongitudeDegrees>
            </Position>
            <AltitudeMeters>155</AltitudeMeters>
            <DistanceMeters>NAN</DistanceMeters>
          </Trackpoint>
          <Trackpoint>
            <Time>2021-08-10T09:47:20.000Z</Time>
            <Position>
              <LatitudeDegrees>43.13011952675879001617431640625</LatitudeDegrees>
              <LongitudeDegrees>-1.66977561078965663909912109375</LongitudeDegrees>
            </Position>
            <AltitudeMeters>154</AltitudeMeters>
            <DistanceMeters>NAN</DistanceMeters>
          </Trackpoint>
          <Trackpoint>
            <Time>2021-08-10T09:47:21.000Z</Time>
            <Position>
              <LatitudeDegrees>43.1301363743841648101806640625</LatitudeDegrees>
              <LongitudeDegrees>-1.66979245841503143310546875</LongitudeDegrees>
            </Position>
            <AltitudeMeters>153.8000030517578125</AltitudeMeters>
            <DistanceMeters>NAN</DistanceMeters>
          </Trackpoint>
          <Trackpoint>
            <Time>2021-08-10T09:47:22.000Z</Time>
            <Position>
              <LatitudeDegrees>43.130153305828571319580078125</LatitudeDegrees>
              <LongitudeDegrees>-1.669806204736232757568359375</LongitudeDegrees>
            </Position>
            <AltitudeMeters>153</AltitudeMeters>
            <DistanceMeters>NAN</DistanceMeters>
          </Trackpoint>
          <Trackpoint>
            <Time>2021-08-10T09:47:23.000Z</Time>
            <Position>
              <LatitudeDegrees>43.13016931526362895965576171875</LatitudeDegrees>
              <LongitudeDegrees>-1.66981391608715057373046875</LongitudeDegrees>
            </Position>
            <AltitudeMeters>152.600006103515625</AltitudeMeters>
            <DistanceMeters>NAN</DistanceMeters>
          </Trackpoint>
          <Trackpoint>
            <Time>2021-08-10T09:47:24.000Z</Time>
            <Position>
              <LatitudeDegrees>43.13018448650836944580078125</LatitudeDegrees>
              <LongitudeDegrees>-1.66981383226811885833740234375</LongitudeDegrees>
            </Position>
            <AltitudeMeters>152</AltitudeMeters>
            <DistanceMeters>NAN</DistanceMeters>
          </Trackpoint>
          <Trackpoint>
            <Time>2021-08-10T09:47:25.000Z</Time>
            <Position>
              <LatitudeDegrees>43.13019915483891963958740234375</LatitudeDegrees>
              <LongitudeDegrees>-1.66980461217463016510009765625</LongitudeDegrees>
            </Position>
            <AltitudeMeters>151.600006103515625</AltitudeMeters>
            <DistanceMeters>NAN</DistanceMeters>
          </Trackpoint>
          <Trackpoint>
            <Time>2021-08-10T09:47:26.000Z</Time>
            <Position>
              <LatitudeDegrees>43.1302128173410892486572265625</LatitudeDegrees>
              <LongitudeDegrees>-1.6698006726801395416259765625</LongitudeDegrees>
            </Position>
            <AltitudeMeters>151</AltitudeMeters>
            <DistanceMeters>NAN</DistanceMeters>
          </Trackpoint>
          <Trackpoint>
            <Time>2021-08-10T09:47:27.000Z</Time>
            <Position>
              <LatitudeDegrees>43.13023486174643039703369140625</LatitudeDegrees>
              <LongitudeDegrees>-1.669794134795665740966796875</LongitudeDegrees>
            </Position>
            <AltitudeMeters>150.399993896484375</AltitudeMeters>
            <DistanceMeters>NAN</DistanceMeters>
          </Trackpoint>
          <Trackpoint>
            <Time>2021-08-10T09:47:30.000Z</Time>
            <Position>
              <LatitudeDegrees>43.13029889948666095733642578125</LatitudeDegrees>
              <LongitudeDegrees>-1.6697654686868190765380859375</LongitudeDegrees>
            </Position>
            <AltitudeMeters>149.600006103515625</AltitudeMeters>
            <DistanceMeters>NAN</DistanceMeters>
          </Trackpoint>
          <Trackpoint>
            <Time>2021-08-10T09:47:31.000Z</Time>
            <Position>
              <LatitudeDegrees>43.13032119534909725189208984375</LatitudeDegrees>
              <LongitudeDegrees>-1.66974417865276336669921875</LongitudeDegrees>
            </Position>
            <AltitudeMeters>149.399993896484375</AltitudeMeters>
            <DistanceMeters>NAN</DistanceMeters>
          </Trackpoint>
          <Trackpoint>
            <Time>2021-08-10T09:47:34.000Z</Time>
            <Position>
              <LatitudeDegrees>43.130383975803852081298828125</LatitudeDegrees>
              <LongitudeDegrees>-1.66970168240368366241455078125</LongitudeDegrees>
            </Position>
            <AltitudeMeters>148.1999969482421875</AltitudeMeters>
            <DistanceMeters>NAN</DistanceMeters>
          </Trackpoint>
          <Trackpoint>
            <Time>2021-08-10T09:47:36.000Z</Time>
            <Position>
              <LatitudeDegrees>43.130430243909358978271484375</LatitudeDegrees>
              <LongitudeDegrees>-1.66969698853790760040283203125</LongitudeDegrees>
            </Position>
            <AltitudeMeters>147.600006103515625</AltitudeMeters>
            <DistanceMeters>NAN</DistanceMeters>
          </Trackpoint>
          <Trackpoint>
            <Time>2021-08-10T09:47:37.000Z</Time>
            <Position>
              <LatitudeDegrees>43.130449689924716949462890625</LatitudeDegrees>
              <LongitudeDegrees>-1.6697061248123645782470703125</LongitudeDegrees>
            </Position>
            <AltitudeMeters>147.399993896484375</AltitudeMeters>
            <DistanceMeters>NAN</DistanceMeters>
          </Trackpoint>
          <Trackpoint>
            <Time>2021-08-10T09:47:38.000Z</Time>
            <Position>
              <LatitudeDegrees>43.13046553172171115875244140625</LatitudeDegrees>
              <LongitudeDegrees>-1.6697232238948345184326171875</LongitudeDegrees>
            </Position>
            <AltitudeMeters>147</AltitudeMeters>
            <DistanceMeters>NAN</DistanceMeters>
          </Trackpoint>
          <Trackpoint>
            <Time>2021-08-10T09:47:39.000Z</Time>
            <Position>
              <LatitudeDegrees>43.1304760091006755828857421875</LatitudeDegrees>
              <LongitudeDegrees>-1.6697461903095245361328125</LongitudeDegrees>
            </Position>
            <AltitudeMeters>146.8000030517578125</AltitudeMeters>
            <DistanceMeters>NAN</DistanceMeters>
          </Trackpoint>
          <Trackpoint>
            <Time>2021-08-10T09:47:41.000Z</Time>
            <Position>
              <LatitudeDegrees>43.1304646097123622894287109375</LatitudeDegrees>
              <LongitudeDegrees>-1.66981198824942111968994140625</LongitudeDegrees>
            </Position>
            <AltitudeMeters>146.1999969482421875</AltitudeMeters>
            <DistanceMeters>NAN</DistanceMeters>
          </Trackpoint>
          <Trackpoint>
            <Time>2021-08-10T09:47:42.000Z</Time>
            <Position>
              <LatitudeDegrees>43.130447007715702056884765625</LatitudeDegrees>
              <LongitudeDegrees>-1.669841744005680084228515625</LongitudeDegrees>
            </Position>
            <AltitudeMeters>146</AltitudeMeters>
            <DistanceMeters>NAN</DistanceMeters>
          </Trackpoint>
          <Trackpoint>
            <Time>2021-08-10T09:47:44.000Z</Time>
            <Position>
              <LatitudeDegrees>43.13039780594408512115478515625</LatitudeDegrees>
              <LongitudeDegrees>-1.6698911972343921661376953125</LongitudeDegrees>
            </Position>
            <AltitudeMeters>145.600006103515625</AltitudeMeters>
            <DistanceMeters>NAN</DistanceMeters>
          </Trackpoint>
          <Trackpoint>
            <Time>2021-08-10T09:47:45.000Z</Time>
            <Position>
              <LatitudeDegrees>43.13037366606295108795166015625</LatitudeDegrees>
              <LongitudeDegrees>-1.6699129901826381683349609375</LongitudeDegrees>
            </Position>
            <AltitudeMeters>145</AltitudeMeters>
            <DistanceMeters>NAN</DistanceMeters>
          </Trackpoint>
          <Trackpoint>
            <Time>2021-08-10T09:47:46.000Z</Time>
            <Position>
              <LatitudeDegrees>43.13035254366695880889892578125</LatitudeDegrees>
              <LongitudeDegrees>-1.6699307598173618316650390625</LongitudeDegrees>
            </Position>
            <AltitudeMeters>144.600006103515625</AltitudeMeters>
            <DistanceMeters>NAN</DistanceMeters>
          </Trackpoint>
          <Trackpoint>
            <Time>2021-08-10T09:47:47.000Z</Time>
            <Position>
              <LatitudeDegrees>43.130333684384822845458984375</LatitudeDegrees>
              <LongitudeDegrees>-1.66994593106210231781005859375</LongitudeDegrees>
            </Position>
            <AltitudeMeters>144.1999969482421875</AltitudeMeters>
            <DistanceMeters>NAN</DistanceMeters>
          </Trackpoint>
          <Trackpoint>
            <Time>2021-08-10T09:47:48.000Z</Time>
            <Position>
              <LatitudeDegrees>43.130320943892002105712890625</LatitudeDegrees>
              <LongitudeDegrees>-1.66995649226009845733642578125</LongitudeDegrees>
            </Position>
            <AltitudeMeters>143.600006103515625</AltitudeMeters>
            <DistanceMeters>NAN</DistanceMeters>
          </Trackpoint>
          <Trackpoint>
            <Time>2021-08-10T09:47:50.000Z</Time>
            <Position>
              <LatitudeDegrees>43.13031583093106746673583984375</LatitudeDegrees>
              <LongitudeDegrees>-1.66995749808847904205322265625</LongitudeDegrees>
            </Position>
            <AltitudeMeters>142.8000030517578125</AltitudeMeters>
            <DistanceMeters>NAN</DistanceMeters>
          </Trackpoint>
          <Trackpoint>
            <Time>2021-08-10T09:47:52.000Z</Time>
            <Position>
              <LatitudeDegrees>43.1303455866873264312744140625</LatitudeDegrees>
              <LongitudeDegrees>-1.66996353305876255035400390625</LongitudeDegrees>
            </Position>
            <AltitudeMeters>142.399993896484375</AltitudeMeters>
            <DistanceMeters>NAN</DistanceMeters>
          </Trackpoint>
          <Trackpoint>
            <Time>2021-08-10T09:47:54.000Z</Time>
            <Position>
              <LatitudeDegrees>43.130386658012866973876953125</LatitudeDegrees>
              <LongitudeDegrees>-1.66996319778263568878173828125</LongitudeDegrees>
            </Position>
            <AltitudeMeters>142.1999969482421875</AltitudeMeters>
            <DistanceMeters>NAN</DistanceMeters>
          </Trackpoint>
          <Trackpoint>
            <Time>2021-08-10T09:47:56.000Z</Time>
            <Position>
              <LatitudeDegrees>43.1304240413010120391845703125</LatitudeDegrees>
              <LongitudeDegrees>-1.66996319778263568878173828125</LongitudeDegrees>
            </Position>
            <AltitudeMeters>142</AltitudeMeters>
            <DistanceMeters>NAN</DistanceMeters>
          </Trackpoint>
          <Trackpoint>
            <Time>2021-08-10T09:47:57.000Z</Time>
            <Position>
              <LatitudeDegrees>43.13043971545994281768798828125</LatitudeDegrees>
              <LongitudeDegrees>-1.6699639521539211273193359375</LongitudeDegrees>
            </Position>
            <AltitudeMeters>141.8000030517578125</AltitudeMeters>
            <DistanceMeters>NAN</DistanceMeters>
          </Trackpoint>
          <Trackpoint>
            <Time>2021-08-10T09:47:58.000Z</Time>
            <Position>
              <LatitudeDegrees>43.13045346178114414215087890625</LatitudeDegrees>
              <LongitudeDegrees>-1.66996252723038196563720703125</LongitudeDegrees>
            </Position>
            <AltitudeMeters>141.600006103515625</AltitudeMeters>
            <DistanceMeters>NAN</DistanceMeters>
          </Trackpoint>
          <Trackpoint>
            <Time>2021-08-10T09:47:59.000Z</Time>
            <Position>
              <LatitudeDegrees>43.13046209514141082763671875</LatitudeDegrees>
              <LongitudeDegrees>-1.66996202431619167327880859375</LongitudeDegrees>
            </Position>
            <AltitudeMeters>141.399993896484375</AltitudeMeters>
            <DistanceMeters>NAN</DistanceMeters>
          </Trackpoint>
          <Trackpoint>
            <Time>2021-08-10T09:48:03.000Z</Time>
            <Position>
              <LatitudeDegrees>43.130532167851924896240234375</LatitudeDegrees>
              <LongitudeDegrees>-1.66998063214123249053955078125</LongitudeDegrees>
            </Position>
            <AltitudeMeters>140.8000030517578125</AltitudeMeters>
            <DistanceMeters>NAN</DistanceMeters>
          </Trackpoint>
          <Trackpoint>
            <Time>2021-08-10T09:48:04.000Z</Time>
            <Position>
              <LatitudeDegrees>43.13054834492504596710205078125</LatitudeDegrees>
              <LongitudeDegrees>-1.66999320499598979949951171875</LongitudeDegrees>
            </Position>
            <AltitudeMeters>140.600006103515625</AltitudeMeters>
            <DistanceMeters>NAN</DistanceMeters>
          </Trackpoint>
          <Trackpoint>
            <Time>2021-08-10T09:48:05.000Z</Time>
            <Position>
              <LatitudeDegrees>43.130556978285312652587890625</LatitudeDegrees>
              <LongitudeDegrees>-1.67000929825007915496826171875</LongitudeDegrees>
            </Position>
            <AltitudeMeters>140.600006103515625</AltitudeMeters>
            <DistanceMeters>NAN</DistanceMeters>
          </Trackpoint>
          <Trackpoint>
            <Time>2021-08-10T09:48:06.000Z</Time>
            <Position>
              <LatitudeDegrees>43.13055270351469516754150390625</LatitudeDegrees>
              <LongitudeDegrees>-1.6700155846774578094482421875</LongitudeDegrees>
            </Position>
            <AltitudeMeters>140.399993896484375</AltitudeMeters>
            <DistanceMeters>NAN</DistanceMeters>
          </Trackpoint>
          <Trackpoint>
            <Time>2021-08-10T09:48:07.000Z</Time>
            <Position>
              <LatitudeDegrees>43.1305365264415740966796875</LatitudeDegrees>
              <LongitudeDegrees>-1.6700144112110137939453125</LongitudeDegrees>
            </Position>
            <AltitudeMeters>140.399993896484375</AltitudeMeters>
            <DistanceMeters>NAN</DistanceMeters>
          </Trackpoint>
          <Trackpoint>
            <Time>2021-08-10T09:48:08.000Z</Time>
            <Position>
              <LatitudeDegrees>43.13051900826394557952880859375</LatitudeDegrees>
              <LongitudeDegrees>-1.670010387897491455078125</LongitudeDegrees>
            </Position>
            <AltitudeMeters>140.1999969482421875</AltitudeMeters>
            <DistanceMeters>NAN</DistanceMeters>
          </Trackpoint>
          <Trackpoint>
            <Time>2021-08-10T09:48:12.000Z</Time>
            <Position>
              <LatitudeDegrees>43.13042965717613697052001953125</LatitudeDegrees>
              <LongitudeDegrees>-1.670009382069110870361328125</LongitudeDegrees>
            </Position>
            <AltitudeMeters>140.1999969482421875</AltitudeMeters>
            <DistanceMeters>NAN</DistanceMeters>
          </Trackpoint>
          <Trackpoint>
            <Time>2021-08-10T09:48:14.000Z</Time>
            <Position>
              <LatitudeDegrees>43.1303925253450870513916015625</LatitudeDegrees>
              <LongitudeDegrees>-1.67001382447779178619384765625</LongitudeDegrees>
            </Position>
            <AltitudeMeters>140.1999969482421875</AltitudeMeters>
            <DistanceMeters>NAN</DistanceMeters>
          </Trackpoint>
          <Trackpoint>
            <Time>2021-08-10T09:48:15.000Z</Time>
            <Position>
              <LatitudeDegrees>43.130376599729061126708984375</LatitudeDegrees>
              <LongitudeDegrees>-1.67001013644039630889892578125</LongitudeDegrees>
            </Position>
            <AltitudeMeters>140.1999969482421875</AltitudeMeters>
            <DistanceMeters>NAN</DistanceMeters>
          </Trackpoint>
          <Trackpoint>
            <Time>2021-08-10T09:48:16.000Z</Time>
            <Position>
              <LatitudeDegrees>43.130363859236240386962890625</LatitudeDegrees>
              <LongitudeDegrees>-1.6700072027742862701416015625</LongitudeDegrees>
            </Position>
            <AltitudeMeters>140.1999969482421875</AltitudeMeters>
            <DistanceMeters>NAN</DistanceMeters>
          </Trackpoint>
          <Trackpoint>
            <Time>2021-08-10T09:48:17.000Z</Time>
            <Position>
              <LatitudeDegrees>43.1303553096950054168701171875</LatitudeDegrees>
              <LongitudeDegrees>-1.67000426910817623138427734375</LongitudeDegrees>
            </Position>
            <AltitudeMeters>140.399993896484375</AltitudeMeters>
            <DistanceMeters>NAN</DistanceMeters>
          </Trackpoint>
          <Trackpoint>
            <Time>2021-08-10T09:48:18.000Z</Time>
            <Position>
              <LatitudeDegrees>43.130347095429897308349609375</LatitudeDegrees>
              <LongitudeDegrees>-1.67000703513622283935546875</LongitudeDegrees>
            </Position>
            <AltitudeMeters>140.399993896484375</AltitudeMeters>
            <DistanceMeters>NAN</DistanceMeters>
          </Trackpoint>
          <Trackpoint>
            <Time>2021-08-10T09:48:19.000Z</Time>
            <Position>
              <LatitudeDegrees>43.13034282065927982330322265625</LatitudeDegrees>
              <LongitudeDegrees>-1.67001315392553806304931640625</LongitudeDegrees>
            </Position>
            <AltitudeMeters>140.399993896484375</AltitudeMeters>
            <DistanceMeters>NAN</DistanceMeters>
          </Trackpoint>
          <Trackpoint>
            <Time>2021-08-10T09:48:20.000Z</Time>
            <Position>
              <LatitudeDegrees>43.13033737242221832275390625</LatitudeDegrees>
              <LongitudeDegrees>-1.670014075934886932373046875</LongitudeDegrees>
            </Position>
            <AltitudeMeters>140.600006103515625</AltitudeMeters>
            <DistanceMeters>NAN</DistanceMeters>
          </Trackpoint>
          <Trackpoint>
            <Time>2021-08-10T09:48:22.000Z</Time>
            <Position>
              <LatitudeDegrees>43.1303247995674610137939453125</LatitudeDegrees>
              <LongitudeDegrees>-1.67002639733254909515380859375</LongitudeDegrees>
            </Position>
            <AltitudeMeters>140.8000030517578125</AltitudeMeters>
            <DistanceMeters>NAN</DistanceMeters>
          </Trackpoint>
          <Trackpoint>
            <Time>2021-08-10T09:48:23.000Z</Time>
            <Position>
              <LatitudeDegrees>43.1303154118359088897705078125</LatitudeDegrees>
              <LongitudeDegrees>-1.67004056274890899658203125</LongitudeDegrees>
            </Position>
            <AltitudeMeters>141</AltitudeMeters>
            <DistanceMeters>NAN</DistanceMeters>
          </Trackpoint>
          <Trackpoint>
            <Time>2021-08-10T09:48:25.000Z</Time>
            <Position>
              <LatitudeDegrees>43.13028599135577678680419921875</LatitudeDegrees>
              <LongitudeDegrees>-1.67005254887044429779052734375</LongitudeDegrees>
            </Position>
            <AltitudeMeters>141.1999969482421875</AltitudeMeters>
            <DistanceMeters>NAN</DistanceMeters>
          </Trackpoint>
          <Trackpoint>
            <Time>2021-08-10T09:48:27.000Z</Time>
            <Position>
              <LatitudeDegrees>43.1302610971033573150634765625</LatitudeDegrees>
              <LongitudeDegrees>-1.6700501181185245513916015625</LongitudeDegrees>
            </Position>
            <AltitudeMeters>141.399993896484375</AltitudeMeters>
            <DistanceMeters>NAN</DistanceMeters>
          </Trackpoint>
          <Trackpoint>
            <Time>2021-08-10T09:48:28.000Z</Time>
            <Position>
              <LatitudeDegrees>43.13024617731571197509765625</LatitudeDegrees>
              <LongitudeDegrees>-1.67005808092653751373291015625</LongitudeDegrees>
            </Position>
            <AltitudeMeters>141.399993896484375</AltitudeMeters>
            <DistanceMeters>NAN</DistanceMeters>
          </Trackpoint>
          <Trackpoint>
            <Time>2021-08-10T09:48:29.000Z</Time>
            <Position>
              <LatitudeDegrees>43.130233101546764373779296875</LatitudeDegrees>
              <LongitudeDegrees>-1.670063696801662445068359375</LongitudeDegrees>
            </Position>
            <AltitudeMeters>141.600006103515625</AltitudeMeters>
            <DistanceMeters>NAN</DistanceMeters>
          </Trackpoint>
          <Trackpoint>
            <Time>2021-08-10T09:48:30.000Z</Time>
            <Position>
              <LatitudeDegrees>43.13021491281688213348388671875</LatitudeDegrees>
              <LongitudeDegrees>-1.67006604373455047607421875</LongitudeDegrees>
            </Position>
            <AltitudeMeters>141.600006103515625</AltitudeMeters>
            <DistanceMeters>NAN</DistanceMeters>
          </Trackpoint>
          <Trackpoint>
            <Time>2021-08-10T09:48:31.000Z</Time>
            <Position>
              <LatitudeDegrees>43.13021139241755008697509765625</LatitudeDegrees>
              <LongitudeDegrees>-1.67006872594356536865234375</LongitudeDegrees>
            </Position>
            <AltitudeMeters>141.8000030517578125</AltitudeMeters>
            <DistanceMeters>NAN</DistanceMeters>
          </Trackpoint>
          <Trackpoint>
            <Time>2021-08-10T09:48:33.000Z</Time>
            <Position>
              <LatitudeDegrees>43.13019479624927043914794921875</LatitudeDegrees>
              <LongitudeDegrees>-1.67007098905742168426513671875</LongitudeDegrees>
            </Position>
            <AltitudeMeters>142</AltitudeMeters>
            <DistanceMeters>NAN</DistanceMeters>
          </Trackpoint>
          <Trackpoint>
            <Time>2021-08-10T09:48:42.000Z</Time>
            <Position>
              <LatitudeDegrees>43.13019479624927043914794921875</LatitudeDegrees>
              <LongitudeDegrees>-1.67007098905742168426513671875</LongitudeDegrees>
            </Position>
            <AltitudeMeters>141.8000030517578125</AltitudeMeters>
            <DistanceMeters>NAN</DistanceMeters>
          </Trackpoint>
          <Trackpoint>
            <Time>2021-08-10T09:49:29.000Z</Time>
            <Position>
              <LatitudeDegrees>43.13019253313541412353515625</LatitudeDegrees>
              <LongitudeDegrees>-1.67007098905742168426513671875</LongitudeDegrees>
            </Position>
            <AltitudeMeters>141.8000030517578125</AltitudeMeters>
            <DistanceMeters>NAN</DistanceMeters>
          </Trackpoint>
          <Trackpoint>
            <Time>2021-08-10T09:49:33.000Z</Time>
            <Position>
              <LatitudeDegrees>43.130168057978153228759765625</LatitudeDegrees>
              <LongitudeDegrees>-1.67007752694189548492431640625</LongitudeDegrees>
            </Position>
            <AltitudeMeters>141.8000030517578125</AltitudeMeters>
            <DistanceMeters>NAN</DistanceMeters>
          </Trackpoint>
          <Trackpoint>
            <Time>2021-08-10T09:49:38.000Z</Time>
            <Position>
              <LatitudeDegrees>43.13003956340253353118896484375</LatitudeDegrees>
              <LongitudeDegrees>-1.67010937817394733428955078125</LongitudeDegrees>
            </Position>
            <AltitudeMeters>141.600006103515625</AltitudeMeters>
            <DistanceMeters>NAN</DistanceMeters>
          </Trackpoint>
          <Trackpoint>
            <Time>2021-08-10T09:49:39.000Z</Time>
            <Position>
              <LatitudeDegrees>43.1300250627100467681884765625</LatitudeDegrees>
              <LongitudeDegrees>-1.6701255552470684051513671875</LongitudeDegrees>
            </Position>
            <AltitudeMeters>141.600006103515625</AltitudeMeters>
            <DistanceMeters>NAN</DistanceMeters>
          </Trackpoint>
          <Trackpoint>
            <Time>2021-08-10T09:49:40.000Z</Time>
            <Position>
              <LatitudeDegrees>43.13001827336847782135009765625</LatitudeDegrees>
              <LongitudeDegrees>-1.67013234458863735198974609375</LongitudeDegrees>
            </Position>
            <AltitudeMeters>141.600006103515625</AltitudeMeters>
            <DistanceMeters>NAN</DistanceMeters>
          </Trackpoint>
          <Trackpoint>
            <Time>2021-08-10T09:49:41.000Z</Time>
            <Position>
              <LatitudeDegrees>43.13001592643558979034423828125</LatitudeDegrees>
              <LongitudeDegrees>-1.670147515833377838134765625</LongitudeDegrees>
            </Position>
            <AltitudeMeters>141.399993896484375</AltitudeMeters>
            <DistanceMeters>NAN</DistanceMeters>
          </Trackpoint>
          <Trackpoint>
            <Time>2021-08-10T09:49:42.000Z</Time>
            <Position>
              <LatitudeDegrees>43.1300233863294124603271484375</LatitudeDegrees>
              <LongitudeDegrees>-1.6701627708971500396728515625</LongitudeDegrees>
            </Position>
            <AltitudeMeters>141.399993896484375</AltitudeMeters>
            <DistanceMeters>NAN</DistanceMeters>
          </Trackpoint>
          <Trackpoint>
            <Time>2021-08-10T09:49:46.000Z</Time>
            <Position>
              <LatitudeDegrees>43.13007853925228118896484375</LatitudeDegrees>
              <LongitudeDegrees>-1.67020627297461032867431640625</LongitudeDegrees>
            </Position>
            <AltitudeMeters>140.399993896484375</AltitudeMeters>
            <DistanceMeters>NAN</DistanceMeters>
          </Trackpoint>
          <Trackpoint>
            <Time>2021-08-10T09:49:48.000Z</Time>
            <Position>
              <LatitudeDegrees>43.130121119320392608642578125</LatitudeDegrees>
              <LongitudeDegrees>-1.67023711837828159332275390625</LongitudeDegrees>
            </Position>
            <AltitudeMeters>140.1999969482421875</AltitudeMeters>
            <DistanceMeters>NAN</DistanceMeters>
          </Trackpoint>
          <Trackpoint>
            <Time>2021-08-10T09:49:49.000Z</Time>
            <Position>
              <LatitudeDegrees>43.13012941740453243255615234375</LatitudeDegrees>
              <LongitudeDegrees>-1.67025941424071788787841796875</LongitudeDegrees>
            </Position>
            <AltitudeMeters>140.1999969482421875</AltitudeMeters>
            <DistanceMeters>NAN</DistanceMeters>
          </Trackpoint>
          <Trackpoint>
            <Time>2021-08-10T09:49:50.000Z</Time>
            <Position>
              <LatitudeDegrees>43.13014869578182697296142578125</LatitudeDegrees>
              <LongitudeDegrees>-1.670277602970600128173828125</LongitudeDegrees>
            </Position>
            <AltitudeMeters>140.1999969482421875</AltitudeMeters>
            <DistanceMeters>NAN</DistanceMeters>
          </Trackpoint>
          <Trackpoint>
            <Time>2021-08-10T09:49:54.000Z</Time>
            <Position>
              <LatitudeDegrees>43.13021843321621417999267578125</LatitudeDegrees>
              <LongitudeDegrees>-1.67036217637360095977783203125</LongitudeDegrees>
            </Position>
            <AltitudeMeters>140.1999969482421875</AltitudeMeters>
            <DistanceMeters>NAN</DistanceMeters>
          </Trackpoint>
          <Trackpoint>
            <Time>2021-08-10T09:50:00.000Z</Time>
            <Position>
              <LatitudeDegrees>43.13033343292772769927978515625</LatitudeDegrees>
              <LongitudeDegrees>-1.67047977447509765625</LongitudeDegrees>
            </Position>
            <AltitudeMeters>139.8000030517578125</AltitudeMeters>
            <DistanceMeters>NAN</DistanceMeters>
          </Trackpoint>
          <Trackpoint>
            <Time>2021-08-10T09:50:01.000Z</Time>
            <Position>
              <LatitudeDegrees>43.130349777638912200927734375</LatitudeDegrees>
              <LongitudeDegrees>-1.67049243114888668060302734375</LongitudeDegrees>
            </Position>
            <AltitudeMeters>139.8000030517578125</AltitudeMeters>
            <DistanceMeters>NAN</DistanceMeters>
          </Trackpoint>
          <Trackpoint>
            <Time>2021-08-10T09:50:03.000Z</Time>
            <Position>
              <LatitudeDegrees>43.130405433475971221923828125</LatitudeDegrees>
              <LongitudeDegrees>-1.67052461765706539154052734375</LongitudeDegrees>
            </Position>
            <AltitudeMeters>139.8000030517578125</AltitudeMeters>
            <DistanceMeters>NAN</DistanceMeters>
          </Trackpoint>
          <Trackpoint>
            <Time>2021-08-10T09:50:04.000Z</Time>
            <Position>
              <LatitudeDegrees>43.130424208939075469970703125</LatitudeDegrees>
              <LongitudeDegrees>-1.6705282218754291534423828125</LongitudeDegrees>
            </Position>
            <AltitudeMeters>139.8000030517578125</AltitudeMeters>
            <DistanceMeters>NAN</DistanceMeters>
          </Trackpoint>
          <Trackpoint>
            <Time>2021-08-10T09:50:05.000Z</Time>
            <Position>
              <LatitudeDegrees>43.1304411403834819793701171875</LatitudeDegrees>
              <LongitudeDegrees>-1.6705302335321903228759765625</LongitudeDegrees>
            </Position>
            <AltitudeMeters>140</AltitudeMeters>
            <DistanceMeters>NAN</DistanceMeters>
          </Trackpoint>
          <Trackpoint>
            <Time>2021-08-10T09:50:06.000Z</Time>
            <Position>
              <LatitudeDegrees>43.13045807182788848876953125</LatitudeDegrees>
              <LongitudeDegrees>-1.67053367011249065399169921875</LongitudeDegrees>
            </Position>
            <AltitudeMeters>139.8000030517578125</AltitudeMeters>
            <DistanceMeters>NAN</DistanceMeters>
          </Trackpoint>
          <Trackpoint>
            <Time>2021-08-10T09:50:07.000Z</Time>
            <Position>
              <LatitudeDegrees>43.13047173433005809783935546875</LatitudeDegrees>
              <LongitudeDegrees>-1.670543812215328216552734375</LongitudeDegrees>
            </Position>
            <AltitudeMeters>139.8000030517578125</AltitudeMeters>
            <DistanceMeters>NAN</DistanceMeters>
          </Trackpoint>
          <Trackpoint>
            <Time>2021-08-10T09:50:08.000Z</Time>
            <Position>
              <LatitudeDegrees>43.1304895877838134765625</LatitudeDegrees>
              <LongitudeDegrees>-1.67054926045238971710205078125</LongitudeDegrees>
            </Position>
            <AltitudeMeters>139.8000030517578125</AltitudeMeters>
            <DistanceMeters>NAN</DistanceMeters>
          </Trackpoint>
          <Trackpoint>
            <Time>2021-08-10T09:50:09.000Z</Time>
            <Position>
              <LatitudeDegrees>43.13050962053239345550537109375</LatitudeDegrees>
              <LongitudeDegrees>-1.6705553792417049407958984375</LongitudeDegrees>
            </Position>
            <AltitudeMeters>139.8000030517578125</AltitudeMeters>
            <DistanceMeters>NAN</DistanceMeters>
          </Trackpoint>
          <Trackpoint>
            <Time>2021-08-10T09:50:10.000Z</Time>
            <Position>
              <LatitudeDegrees>43.13053208403289318084716796875</LatitudeDegrees>
              <LongitudeDegrees>-1.6705604083836078643798828125</LongitudeDegrees>
            </Position>
            <AltitudeMeters>139.600006103515625</AltitudeMeters>
            <DistanceMeters>NAN</DistanceMeters>
          </Trackpoint>
          <Trackpoint>
            <Time>2021-08-10T09:50:11.000Z</Time>
            <Position>
              <LatitudeDegrees>43.13055471517145633697509765625</LatitudeDegrees>
              <LongitudeDegrees>-1.6705684550106525421142578125</LongitudeDegrees>
            </Position>
            <AltitudeMeters>139.600006103515625</AltitudeMeters>
            <DistanceMeters>NAN</DistanceMeters>
          </Trackpoint>
          <Trackpoint>
            <Time>2021-08-10T09:50:17.000Z</Time>
            <Position>
              <LatitudeDegrees>43.13069335184991359710693359375</LatitudeDegrees>
              <LongitudeDegrees>-1.67063106782734394073486328125</LongitudeDegrees>
            </Position>
            <AltitudeMeters>139.399993896484375</AltitudeMeters>
            <DistanceMeters>NAN</DistanceMeters>
          </Trackpoint>
          <Trackpoint>
            <Time>2021-08-10T09:50:18.000Z</Time>
            <Position>
              <LatitudeDegrees>43.13070877455174922943115234375</LatitudeDegrees>
              <LongitudeDegrees>-1.670644395053386688232421875</LongitudeDegrees>
            </Position>
            <AltitudeMeters>139.399993896484375</AltitudeMeters>
            <DistanceMeters>NAN</DistanceMeters>
          </Trackpoint>
          <Trackpoint>
            <Time>2021-08-10T09:50:21.000Z</Time>
            <Position>
              <LatitudeDegrees>43.1307482533156871795654296875</LatitudeDegrees>
              <LongitudeDegrees>-1.67068605311214923858642578125</LongitudeDegrees>
            </Position>
            <AltitudeMeters>139.1999969482421875</AltitudeMeters>
            <DistanceMeters>NAN</DistanceMeters>
          </Trackpoint>
          <Trackpoint>
            <Time>2021-08-10T09:50:22.000Z</Time>
            <Position>
              <LatitudeDegrees>43.1307693757116794586181640625</LatitudeDegrees>
              <LongitudeDegrees>-1.67070181109011173248291015625</LongitudeDegrees>
            </Position>
            <AltitudeMeters>139.1999969482421875</AltitudeMeters>
            <DistanceMeters>NAN</DistanceMeters>
          </Trackpoint>
          <Trackpoint>
            <Time>2021-08-10T09:50:28.000Z</Time>
            <Position>
              <LatitudeDegrees>43.13087155111134052276611328125</LatitudeDegrees>
              <LongitudeDegrees>-1.67077020741999149322509765625</LongitudeDegrees>
            </Position>
            <AltitudeMeters>138.8000030517578125</AltitudeMeters>
            <DistanceMeters>NAN</DistanceMeters>
          </Trackpoint>
          <Trackpoint>
            <Time>2021-08-10T09:50:29.000Z</Time>
            <Position>
              <LatitudeDegrees>43.13087917864322662353515625</LatitudeDegrees>
              <LongitudeDegrees>-1.670777834951877593994140625</LongitudeDegrees>
            </Position>
            <AltitudeMeters>138.8000030517578125</AltitudeMeters>
            <DistanceMeters>NAN</DistanceMeters>
          </Trackpoint>
          <Trackpoint>
            <Time>2021-08-10T09:50:30.000Z</Time>
            <Position>
              <LatitudeDegrees>43.130881525576114654541015625</LatitudeDegrees>
              <LongitudeDegrees>-1.67078110389411449432373046875</LongitudeDegrees>
            </Position>
            <AltitudeMeters>138.8000030517578125</AltitudeMeters>
            <DistanceMeters>NAN</DistanceMeters>
          </Trackpoint>
          <Trackpoint>
            <Time>2021-08-10T09:50:34.000Z</Time>
            <Position>
              <LatitudeDegrees>43.130881525576114654541015625</LatitudeDegrees>
              <LongitudeDegrees>-1.67078110389411449432373046875</LongitudeDegrees>
            </Position>
            <AltitudeMeters>138.600006103515625</AltitudeMeters>
            <DistanceMeters>NAN</DistanceMeters>
          </Trackpoint>
          <Trackpoint>
            <Time>2021-08-10T09:50:41.000Z</Time>
            <Position>
              <LatitudeDegrees>43.130881525576114654541015625</LatitudeDegrees>
              <LongitudeDegrees>-1.67078110389411449432373046875</LongitudeDegrees>
            </Position>
            <AltitudeMeters>138.1999969482421875</AltitudeMeters>
            <DistanceMeters>NAN</DistanceMeters>
          </Trackpoint>
          <Trackpoint>
            <Time>2021-08-10T09:50:45.000Z</Time>
            <Position>
              <LatitudeDegrees>43.130881525576114654541015625</LatitudeDegrees>
              <LongitudeDegrees>-1.67078110389411449432373046875</LongitudeDegrees>
            </Position>
            <AltitudeMeters>138</AltitudeMeters>
            <DistanceMeters>NAN</DistanceMeters>
          </Trackpoint>
          <Trackpoint>
            <Time>2021-08-10T09:51:17.000Z</Time>
            <Position>
              <LatitudeDegrees>43.130881525576114654541015625</LatitudeDegrees>
              <LongitudeDegrees>-1.67078110389411449432373046875</LongitudeDegrees>
            </Position>
            <AltitudeMeters>138.1999969482421875</AltitudeMeters>
            <DistanceMeters>NAN</DistanceMeters>
          </Trackpoint>
          <Trackpoint>
            <Time>2021-08-10T09:51:24.000Z</Time>
            <Position>
              <LatitudeDegrees>43.13088856637477874755859375</LatitudeDegrees>
              <LongitudeDegrees>-1.6708021424710750579833984375</LongitudeDegrees>
            </Position>
            <AltitudeMeters>138.1999969482421875</AltitudeMeters>
            <DistanceMeters>NAN</DistanceMeters>
          </Trackpoint>
          <Trackpoint>
            <Time>2021-08-10T09:51:26.000Z</Time>
            <Position>
              <LatitudeDegrees>43.130894266068935394287109375</LatitudeDegrees>
              <LongitudeDegrees>-1.6708356700837612152099609375</LongitudeDegrees>
            </Position>
            <AltitudeMeters>138.1999969482421875</AltitudeMeters>
            <DistanceMeters>NAN</DistanceMeters>
          </Trackpoint>
          <Trackpoint>
            <Time>2021-08-10T09:51:27.000Z</Time>
            <Position>
              <LatitudeDegrees>43.1308940984308719635009765625</LatitudeDegrees>
              <LongitudeDegrees>-1.67084782384335994720458984375</LongitudeDegrees>
            </Position>
            <AltitudeMeters>138.1999969482421875</AltitudeMeters>
            <DistanceMeters>NAN</DistanceMeters>
          </Trackpoint>
          <Trackpoint>
            <Time>2021-08-10T09:51:28.000Z</Time>
            <Position>
              <LatitudeDegrees>43.1308971159160137176513671875</LatitudeDegrees>
              <LongitudeDegrees>-1.6708581335842609405517578125</LongitudeDegrees>
            </Position>
            <AltitudeMeters>138.1999969482421875</AltitudeMeters>
            <DistanceMeters>NAN</DistanceMeters>
          </Trackpoint>
          <Trackpoint>
            <Time>2021-08-10T09:51:29.000Z</Time>
            <Position>
              <LatitudeDegrees>43.1308986246585845947265625</LatitudeDegrees>
              <LongitudeDegrees>-1.67086374945938587188720703125</LongitudeDegrees>
            </Position>
            <AltitudeMeters>138.1999969482421875</AltitudeMeters>
            <DistanceMeters>NAN</DistanceMeters>
          </Trackpoint>
          <Trackpoint>
            <Time>2021-08-10T09:51:30.000Z</Time>
            <Position>
              <LatitudeDegrees>43.130899965763092041015625</LatitudeDegrees>
              <LongitudeDegrees>-1.67086542584002017974853515625</LongitudeDegrees>
            </Position>
            <AltitudeMeters>138.1999969482421875</AltitudeMeters>
            <DistanceMeters>NAN</DistanceMeters>
          </Trackpoint>
          <Trackpoint>
            <Time>2021-08-10T09:51:37.000Z</Time>
            <Position>
              <LatitudeDegrees>43.13089854083955287933349609375</LatitudeDegrees>
              <LongitudeDegrees>-1.67085670866072177886962890625</LongitudeDegrees>
            </Position>
            <AltitudeMeters>138.1999969482421875</AltitudeMeters>
            <DistanceMeters>NAN</DistanceMeters>
          </Trackpoint>
          <Trackpoint>
            <Time>2021-08-10T09:51:50.000Z</Time>
            <Position>
              <LatitudeDegrees>43.1308977864682674407958984375</LatitudeDegrees>
              <LongitudeDegrees>-1.6708561219274997711181640625</LongitudeDegrees>
            </Position>
            <AltitudeMeters>138.1999969482421875</AltitudeMeters>
            <DistanceMeters>NAN</DistanceMeters>
          </Trackpoint>
          <Trackpoint>
            <Time>2021-08-10T09:51:52.000Z</Time>
            <Position>
              <LatitudeDegrees>43.1308977864682674407958984375</LatitudeDegrees>
              <LongitudeDegrees>-1.6708561219274997711181640625</LongitudeDegrees>
            </Position>
            <AltitudeMeters>138.399993896484375</AltitudeMeters>
            <DistanceMeters>NAN</DistanceMeters>
          </Trackpoint>
          <Trackpoint>
            <Time>2021-08-10T11:07:52.000Z</Time>
            <Position>
              <LatitudeDegrees>43.1309014745056629180908203125</LatitudeDegrees>
              <LongitudeDegrees>-1.67078110389411449432373046875</LongitudeDegrees>
            </Position>
            <AltitudeMeters>138.600006103515625</AltitudeMeters>
            <DistanceMeters>NAN</DistanceMeters>
          </Trackpoint>
          <Trackpoint>
            <Time>2021-08-10T11:08:17.000Z</Time>
            <Position>
              <LatitudeDegrees>43.130900301039218902587890625</LatitudeDegrees>
              <LongitudeDegrees>-1.670773141086101531982421875</LongitudeDegrees>
            </Position>
            <AltitudeMeters>138.600006103515625</AltitudeMeters>
            <DistanceMeters>NAN</DistanceMeters>
          </Trackpoint>
          <Trackpoint>
            <Time>2021-08-10T11:08:27.000Z</Time>
            <Position>
              <LatitudeDegrees>43.1308974511921405792236328125</LatitudeDegrees>
              <LongitudeDegrees>-1.670780517160892486572265625</LongitudeDegrees>
            </Position>
            <AltitudeMeters>138.600006103515625</AltitudeMeters>
            <DistanceMeters>NAN</DistanceMeters>
          </Trackpoint>
          <Trackpoint>
            <Time>2021-08-10T11:08:41.000Z</Time>
            <Position>
              <LatitudeDegrees>43.1308833695948123931884765625</LatitudeDegrees>
              <LongitudeDegrees>-1.6707987897098064422607421875</LongitudeDegrees>
            </Position>
            <AltitudeMeters>138.600006103515625</AltitudeMeters>
            <DistanceMeters>NAN</DistanceMeters>
          </Trackpoint>
          <Trackpoint>
            <Time>2021-08-10T11:09:07.000Z</Time>
            <Position>
              <LatitudeDegrees>43.13085344620048999786376953125</LatitudeDegrees>
              <LongitudeDegrees>-1.67081463150680065155029296875</LongitudeDegrees>
            </Position>
            <AltitudeMeters>138.600006103515625</AltitudeMeters>
            <DistanceMeters>NAN</DistanceMeters>
          </Trackpoint>
          <Trackpoint>
            <Time>2021-08-10T11:09:32.000Z</Time>
            <Position>
              <LatitudeDegrees>43.13083332963287830352783203125</LatitudeDegrees>
              <LongitudeDegrees>-1.67079518549144268035888671875</LongitudeDegrees>
            </Position>
            <AltitudeMeters>138.600006103515625</AltitudeMeters>
            <DistanceMeters>NAN</DistanceMeters>
          </Trackpoint>
          <Trackpoint>
            <Time>2021-08-10T11:09:49.000Z</Time>
            <Position>
              <LatitudeDegrees>43.13085344620048999786376953125</LatitudeDegrees>
              <LongitudeDegrees>-1.67080960236489772796630859375</LongitudeDegrees>
            </Position>
            <AltitudeMeters>138.399993896484375</AltitudeMeters>
            <DistanceMeters>NAN</DistanceMeters>
          </Trackpoint>
          <Trackpoint>
            <Time>2021-08-10T11:09:51.000Z</Time>
            <Position>
              <LatitudeDegrees>43.130880855023860931396484375</LatitudeDegrees>
              <LongitudeDegrees>-1.6708396933972835540771484375</LongitudeDegrees>
            </Position>
            <AltitudeMeters>138.399993896484375</AltitudeMeters>
            <DistanceMeters>NAN</DistanceMeters>
          </Trackpoint>
          <Trackpoint>
            <Time>2021-08-10T11:09:52.000Z</Time>
            <Position>
              <LatitudeDegrees>43.1308870576322078704833984375</LatitudeDegrees>
              <LongitudeDegrees>-1.67085193097591400146484375</LongitudeDegrees>
            </Position>
            <AltitudeMeters>138.399993896484375</AltitudeMeters>
            <DistanceMeters>NAN</DistanceMeters>
          </Trackpoint>
          <Trackpoint>
            <Time>2021-08-10T11:09:54.000Z</Time>
            <Position>
              <LatitudeDegrees>43.13089485280215740203857421875</LatitudeDegrees>
              <LongitudeDegrees>-1.67085888795554637908935546875</LongitudeDegrees>
            </Position>
            <AltitudeMeters>138.399993896484375</AltitudeMeters>
            <DistanceMeters>NAN</DistanceMeters>
          </Trackpoint>
          <Trackpoint>
            <Time>2021-08-10T11:09:55.000Z</Time>
            <Position>
              <LatitudeDegrees>43.1308959424495697021484375</LatitudeDegrees>
              <LongitudeDegrees>-1.670861653983592987060546875</LongitudeDegrees>
            </Position>
            <AltitudeMeters>138.399993896484375</AltitudeMeters>
            <DistanceMeters>NAN</DistanceMeters>
          </Trackpoint>
          <Trackpoint>
            <Time>2021-08-10T11:09:59.000Z</Time>
            <Position>
              <LatitudeDegrees>43.13093257136642932891845703125</LatitudeDegrees>
              <LongitudeDegrees>-1.67086810804903507232666015625</LongitudeDegrees>
            </Position>
            <AltitudeMeters>138.600006103515625</AltitudeMeters>
            <DistanceMeters>NAN</DistanceMeters>
          </Trackpoint>
          <Trackpoint>
            <Time>2021-08-10T11:10:01.000Z</Time>
            <Position>
              <LatitudeDegrees>43.1309497542679309844970703125</LatitudeDegrees>
              <LongitudeDegrees>-1.67089216411113739013671875</LongitudeDegrees>
            </Position>
            <AltitudeMeters>138.600006103515625</AltitudeMeters>
            <DistanceMeters>NAN</DistanceMeters>
          </Trackpoint>
          <Trackpoint>
            <Time>2021-08-10T11:10:05.000Z</Time>
            <Position>
              <LatitudeDegrees>43.13099057413637638092041015625</LatitudeDegrees>
              <LongitudeDegrees>-1.670968942344188690185546875</LongitudeDegrees>
            </Position>
            <AltitudeMeters>138.8000030517578125</AltitudeMeters>
            <DistanceMeters>NAN</DistanceMeters>
          </Trackpoint>
          <Trackpoint>
            <Time>2021-08-10T11:10:06.000Z</Time>
            <Position>
              <LatitudeDegrees>43.131006918847560882568359375</LatitudeDegrees>
              <LongitudeDegrees>-1.67098880745470523834228515625</LongitudeDegrees>
            </Position>
            <AltitudeMeters>138.8000030517578125</AltitudeMeters>
            <DistanceMeters>NAN</DistanceMeters>
          </Trackpoint>
          <Trackpoint>
            <Time>2021-08-10T11:10:14.000Z</Time>
            <Position>
              <LatitudeDegrees>43.13113222829997539520263671875</LatitudeDegrees>
              <LongitudeDegrees>-1.67118276469409465789794921875</LongitudeDegrees>
            </Position>
            <AltitudeMeters>139</AltitudeMeters>
            <DistanceMeters>NAN</DistanceMeters>
          </Trackpoint>
          <Trackpoint>
            <Time>2021-08-10T11:10:18.000Z</Time>
            <Position>
              <LatitudeDegrees>43.13119676895439624786376953125</LatitudeDegrees>
              <LongitudeDegrees>-1.671253256499767303466796875</LongitudeDegrees>
            </Position>
            <AltitudeMeters>139.1999969482421875</AltitudeMeters>
            <DistanceMeters>NAN</DistanceMeters>
          </Trackpoint>
          <Trackpoint>
            <Time>2021-08-10T11:10:19.000Z</Time>
            <Position>
              <LatitudeDegrees>43.1312109343707561492919921875</LatitudeDegrees>
              <LongitudeDegrees>-1.67126691900193691253662109375</LongitudeDegrees>
            </Position>
            <AltitudeMeters>139.1999969482421875</AltitudeMeters>
            <DistanceMeters>NAN</DistanceMeters>
          </Trackpoint>
          <Trackpoint>
            <Time>2021-08-10T11:10:20.000Z</Time>
            <Position>
              <LatitudeDegrees>43.1312243454158306121826171875</LatitudeDegrees>
              <LongitudeDegrees>-1.67127513326704502105712890625</LongitudeDegrees>
            </Position>
            <AltitudeMeters>139.399993896484375</AltitudeMeters>
            <DistanceMeters>NAN</DistanceMeters>
          </Trackpoint>
          <Trackpoint>
            <Time>2021-08-10T11:10:21.000Z</Time>
            <Position>
              <LatitudeDegrees>43.1312424503266811370849609375</LatitudeDegrees>
              <LongitudeDegrees>-1.67129055596888065338134765625</LongitudeDegrees>
            </Position>
            <AltitudeMeters>139.399993896484375</AltitudeMeters>
            <DistanceMeters>NAN</DistanceMeters>
          </Trackpoint>
          <Trackpoint>
            <Time>2021-08-10T11:10:22.000Z</Time>
            <Position>
              <LatitudeDegrees>43.13126483000814914703369140625</LatitudeDegrees>
              <LongitudeDegrees>-1.67130949907004833221435546875</LongitudeDegrees>
            </Position>
            <AltitudeMeters>139.399993896484375</AltitudeMeters>
            <DistanceMeters>NAN</DistanceMeters>
          </Trackpoint>
          <Trackpoint>
            <Time>2021-08-10T11:10:25.000Z</Time>
            <Position>
              <LatitudeDegrees>43.13132601790130138397216796875</LatitudeDegrees>
              <LongitudeDegrees>-1.67135216295719146728515625</LongitudeDegrees>
            </Position>
            <AltitudeMeters>139.399993896484375</AltitudeMeters>
            <DistanceMeters>NAN</DistanceMeters>
          </Trackpoint>
          <Trackpoint>
            <Time>2021-08-10T11:10:26.000Z</Time>
            <Position>
              <LatitudeDegrees>43.1313410215079784393310546875</LatitudeDegrees>
              <LongitudeDegrees>-1.671361885964870452880859375</LongitudeDegrees>
            </Position>
            <AltitudeMeters>139.399993896484375</AltitudeMeters>
            <DistanceMeters>NAN</DistanceMeters>
          </Trackpoint>
          <Trackpoint>
            <Time>2021-08-10T11:10:27.000Z</Time>
            <Position>
              <LatitudeDegrees>43.13135568983852863311767578125</LatitudeDegrees>
              <LongitudeDegrees>-1.67137152515351772308349609375</LongitudeDegrees>
            </Position>
            <AltitudeMeters>139.399993896484375</AltitudeMeters>
            <DistanceMeters>NAN</DistanceMeters>
          </Trackpoint>
          <Trackpoint>
            <Time>2021-08-10T11:10:28.000Z</Time>
            <Position>
              <LatitudeDegrees>43.13136775977909564971923828125</LatitudeDegrees>
              <LongitudeDegrees>-1.671392060816287994384765625</LongitudeDegrees>
            </Position>
            <AltitudeMeters>139.399993896484375</AltitudeMeters>
            <DistanceMeters>NAN</DistanceMeters>
          </Trackpoint>
          <Trackpoint>
            <Time>2021-08-10T11:10:29.000Z</Time>
            <Position>
              <LatitudeDegrees>43.13138284720480442047119140625</LatitudeDegrees>
              <LongitudeDegrees>-1.67140857316553592681884765625</LongitudeDegrees>
            </Position>
            <AltitudeMeters>139.399993896484375</AltitudeMeters>
            <DistanceMeters>NAN</DistanceMeters>
          </Trackpoint>
          <Trackpoint>
            <Time>2021-08-10T11:10:30.000Z</Time>
            <Position>
              <LatitudeDegrees>43.13139542005956172943115234375</LatitudeDegrees>
              <LongitudeDegrees>-1.67140974663197994232177734375</LongitudeDegrees>
            </Position>
            <AltitudeMeters>139.399993896484375</AltitudeMeters>
            <DistanceMeters>NAN</DistanceMeters>
          </Trackpoint>
          <Trackpoint>
            <Time>2021-08-10T11:10:32.000Z</Time>
            <Position>
              <LatitudeDegrees>43.13141805119812488555908203125</LatitudeDegrees>
              <LongitudeDegrees>-1.67142148129642009735107421875</LongitudeDegrees>
            </Position>
            <AltitudeMeters>139.600006103515625</AltitudeMeters>
            <DistanceMeters>NAN</DistanceMeters>
          </Trackpoint>
          <Trackpoint>
            <Time>2021-08-10T11:10:33.000Z</Time>
            <Position>
              <LatitudeDegrees>43.131431043148040771484375</LatitudeDegrees>
              <LongitudeDegrees>-1.67143824510276317596435546875</LongitudeDegrees>
            </Position>
            <AltitudeMeters>139.600006103515625</AltitudeMeters>
            <DistanceMeters>NAN</DistanceMeters>
          </Trackpoint>
          <Trackpoint>
            <Time>2021-08-10T11:10:34.000Z</Time>
            <Position>
              <LatitudeDegrees>43.131444454193115234375</LatitudeDegrees>
              <LongitudeDegrees>-1.67143740691244602203369140625</LongitudeDegrees>
            </Position>
            <AltitudeMeters>139.600006103515625</AltitudeMeters>
            <DistanceMeters>NAN</DistanceMeters>
          </Trackpoint>
          <Trackpoint>
            <Time>2021-08-10T11:10:35.000Z</Time>
            <Position>
              <LatitudeDegrees>43.13145426101982593536376953125</LatitudeDegrees>
              <LongitudeDegrees>-1.67143774218857288360595703125</LongitudeDegrees>
            </Position>
            <AltitudeMeters>139.600006103515625</AltitudeMeters>
            <DistanceMeters>NAN</DistanceMeters>
          </Trackpoint>
          <Trackpoint>
            <Time>2021-08-10T11:10:36.000Z</Time>
            <Position>
              <LatitudeDegrees>43.131464235484600067138671875</LatitudeDegrees>
              <LongitudeDegrees>-1.67144201695919036865234375</LongitudeDegrees>
            </Position>
            <AltitudeMeters>139.600006103515625</AltitudeMeters>
            <DistanceMeters>NAN</DistanceMeters>
          </Trackpoint>
          <Trackpoint>
            <Time>2021-08-10T11:10:37.000Z</Time>
            <Position>
              <LatitudeDegrees>43.13147462904453277587890625</LatitudeDegrees>
              <LongitudeDegrees>-1.67144042439758777618408203125</LongitudeDegrees>
            </Position>
            <AltitudeMeters>139.600006103515625</AltitudeMeters>
            <DistanceMeters>NAN</DistanceMeters>
          </Trackpoint>
          <Trackpoint>
            <Time>2021-08-10T11:10:38.000Z</Time>
            <Position>
              <LatitudeDegrees>43.13148074783384799957275390625</LatitudeDegrees>
              <LongitudeDegrees>-1.6714374907314777374267578125</LongitudeDegrees>
            </Position>
            <AltitudeMeters>139.600006103515625</AltitudeMeters>
            <DistanceMeters>NAN</DistanceMeters>
          </Trackpoint>
          <Trackpoint>
            <Time>2021-08-10T11:10:40.000Z</Time>
            <Position>
              <LatitudeDegrees>43.131484352052211761474609375</LatitudeDegrees>
              <LongitudeDegrees>-1.67143891565501689910888671875</LongitudeDegrees>
            </Position>
            <AltitudeMeters>139.600006103515625</AltitudeMeters>
            <DistanceMeters>NAN</DistanceMeters>
          </Trackpoint>
          <Trackpoint>
            <Time>2021-08-10T11:10:45.000Z</Time>
            <Position>
              <LatitudeDegrees>43.13150522299110889434814453125</LatitudeDegrees>
              <LongitudeDegrees>-1.67144126258790493011474609375</LongitudeDegrees>
            </Position>
            <AltitudeMeters>139.8000030517578125</AltitudeMeters>
            <DistanceMeters>NAN</DistanceMeters>
          </Trackpoint>
          <Trackpoint>
            <Time>2021-08-10T11:10:49.000Z</Time>
            <Position>
              <LatitudeDegrees>43.13159842975437641143798828125</LatitudeDegrees>
              <LongitudeDegrees>-1.6714656539261341094970703125</LongitudeDegrees>
            </Position>
            <AltitudeMeters>139.600006103515625</AltitudeMeters>
            <DistanceMeters>NAN</DistanceMeters>
          </Trackpoint>
          <Trackpoint>
            <Time>2021-08-10T11:10:50.000Z</Time>
            <Position>
              <LatitudeDegrees>43.13161904923617839813232421875</LatitudeDegrees>
              <LongitudeDegrees>-1.6714867763221263885498046875</LongitudeDegrees>
            </Position>
            <AltitudeMeters>139.600006103515625</AltitudeMeters>
            <DistanceMeters>NAN</DistanceMeters>
          </Trackpoint>
          <Trackpoint>
            <Time>2021-08-10T11:10:51.000Z</Time>
            <Position>
              <LatitudeDegrees>43.13163262791931629180908203125</LatitudeDegrees>
              <LongitudeDegrees>-1.6715085692703723907470703125</LongitudeDegrees>
            </Position>
            <AltitudeMeters>139.600006103515625</AltitudeMeters>
            <DistanceMeters>NAN</DistanceMeters>
          </Trackpoint>
          <Trackpoint>
            <Time>2021-08-10T11:10:52.000Z</Time>
            <Position>
              <LatitudeDegrees>43.13164536841213703155517578125</LatitudeDegrees>
              <LongitudeDegrees>-1.671528518199920654296875</LongitudeDegrees>
            </Position>
            <AltitudeMeters>139.600006103515625</AltitudeMeters>
            <DistanceMeters>NAN</DistanceMeters>
          </Trackpoint>
          <Trackpoint>
            <Time>2021-08-10T11:10:53.000Z</Time>
            <Position>
              <LatitudeDegrees>43.13166045583784580230712890625</LatitudeDegrees>
              <LongitudeDegrees>-1.671544946730136871337890625</LongitudeDegrees>
            </Position>
            <AltitudeMeters>139.600006103515625</AltitudeMeters>
            <DistanceMeters>NAN</DistanceMeters>
          </Trackpoint>
          <Trackpoint>
            <Time>2021-08-10T11:10:54.000Z</Time>
            <Position>
              <LatitudeDegrees>43.13167554326355457305908203125</LatitudeDegrees>
              <LongitudeDegrees>-1.67155559174716472625732421875</LongitudeDegrees>
            </Position>
            <AltitudeMeters>139.600006103515625</AltitudeMeters>
            <DistanceMeters>NAN</DistanceMeters>
          </Trackpoint>
          <Trackpoint>
            <Time>2021-08-10T11:10:55.000Z</Time>
            <Position>
              <LatitudeDegrees>43.1316870264708995819091796875</LatitudeDegrees>
              <LongitudeDegrees>-1.6715588606894016265869140625</LongitudeDegrees>
            </Position>
            <AltitudeMeters>139.399993896484375</AltitudeMeters>
            <DistanceMeters>NAN</DistanceMeters>
          </Trackpoint>
          <Trackpoint>
            <Time>2021-08-10T11:10:56.000Z</Time>
            <Position>
              <LatitudeDegrees>43.13170169480144977569580078125</LatitudeDegrees>
              <LongitudeDegrees>-1.6715545020997524261474609375</LongitudeDegrees>
            </Position>
            <AltitudeMeters>139.399993896484375</AltitudeMeters>
            <DistanceMeters>NAN</DistanceMeters>
          </Trackpoint>
          <Trackpoint>
            <Time>2021-08-10T11:10:57.000Z</Time>
            <Position>
              <LatitudeDegrees>43.1317168660461902618408203125</LatitudeDegrees>
              <LongitudeDegrees>-1.67154503054916858673095703125</LongitudeDegrees>
            </Position>
            <AltitudeMeters>139.399993896484375</AltitudeMeters>
            <DistanceMeters>NAN</DistanceMeters>
          </Trackpoint>
          <Trackpoint>
            <Time>2021-08-10T11:10:58.000Z</Time>
            <Position>
              <LatitudeDegrees>43.131732456386089324951171875</LatitudeDegrees>
              <LongitudeDegrees>-1.67152994312345981597900390625</LongitudeDegrees>
            </Position>
            <AltitudeMeters>139.399993896484375</AltitudeMeters>
            <DistanceMeters>NAN</DistanceMeters>
          </Trackpoint>
          <Trackpoint>
            <Time>2021-08-10T11:10:59.000Z</Time>
            <Position>
              <LatitudeDegrees>43.131747879087924957275390625</LatitudeDegrees>
              <LongitudeDegrees>-1.6715152747929096221923828125</LongitudeDegrees>
            </Position>
            <AltitudeMeters>139.1999969482421875</AltitudeMeters>
            <DistanceMeters>NAN</DistanceMeters>
          </Trackpoint>
          <Trackpoint>
            <Time>2021-08-10T11:11:00.000Z</Time>
            <Position>
              <LatitudeDegrees>43.13176095485687255859375</LatitudeDegrees>
              <LongitudeDegrees>-1.6715005226433277130126953125</LongitudeDegrees>
            </Position>
            <AltitudeMeters>139.1999969482421875</AltitudeMeters>
            <DistanceMeters>NAN</DistanceMeters>
          </Trackpoint>
          <Trackpoint>
            <Time>2021-08-10T11:11:01.000Z</Time>
            <Position>
              <LatitudeDegrees>43.13177327625453472137451171875</LatitudeDegrees>
              <LongitudeDegrees>-1.67148417793214321136474609375</LongitudeDegrees>
            </Position>
            <AltitudeMeters>139.1999969482421875</AltitudeMeters>
            <DistanceMeters>NAN</DistanceMeters>
          </Trackpoint>
          <Trackpoint>
            <Time>2021-08-10T11:11:08.000Z</Time>
            <Position>
              <LatitudeDegrees>43.13186950050294399261474609375</LatitudeDegrees>
              <LongitudeDegrees>-1.67130866087973117828369140625</LongitudeDegrees>
            </Position>
            <AltitudeMeters>139.399993896484375</AltitudeMeters>
            <DistanceMeters>NAN</DistanceMeters>
          </Trackpoint>
          <Trackpoint>
            <Time>2021-08-10T11:11:16.000Z</Time>
            <Position>
              <LatitudeDegrees>43.13195499591529369354248046875</LatitudeDegrees>
              <LongitudeDegrees>-1.67110984213650226593017578125</LongitudeDegrees>
            </Position>
            <AltitudeMeters>139.600006103515625</AltitudeMeters>
            <DistanceMeters>NAN</DistanceMeters>
          </Trackpoint>
          <Trackpoint>
            <Time>2021-08-10T11:11:17.000Z</Time>
            <Position>
              <LatitudeDegrees>43.1319589354097843170166015625</LatitudeDegrees>
              <LongitudeDegrees>-1.671086959540843963623046875</LongitudeDegrees>
            </Position>
            <AltitudeMeters>139.600006103515625</AltitudeMeters>
            <DistanceMeters>NAN</DistanceMeters>
          </Trackpoint>
          <Trackpoint>
            <Time>2021-08-10T11:11:18.000Z</Time>
            <Position>
              <LatitudeDegrees>43.13196471892297267913818359375</LatitudeDegrees>
              <LongitudeDegrees>-1.671062819659709930419921875</LongitudeDegrees>
            </Position>
            <AltitudeMeters>139.600006103515625</AltitudeMeters>
            <DistanceMeters>NAN</DistanceMeters>
          </Trackpoint>
          <Trackpoint>
            <Time>2021-08-10T11:11:19.000Z</Time>
            <Position>
              <LatitudeDegrees>43.13197494484484195709228515625</LatitudeDegrees>
              <LongitudeDegrees>-1.6710354946553707122802734375</LongitudeDegrees>
            </Position>
            <AltitudeMeters>139.600006103515625</AltitudeMeters>
            <DistanceMeters>NAN</DistanceMeters>
          </Trackpoint>
          <Trackpoint>
            <Time>2021-08-10T11:11:22.000Z</Time>
            <Position>
              <LatitudeDegrees>43.132009394466876983642578125</LatitudeDegrees>
              <LongitudeDegrees>-1.6709332354366779327392578125</LongitudeDegrees>
            </Position>
            <AltitudeMeters>139.600006103515625</AltitudeMeters>
            <DistanceMeters>NAN</DistanceMeters>
          </Trackpoint>
          <Trackpoint>
            <Time>2021-08-10T11:11:29.000Z</Time>
            <Position>
              <LatitudeDegrees>43.13209648244082927703857421875</LatitudeDegrees>
              <LongitudeDegrees>-1.67067649774253368377685546875</LongitudeDegrees>
            </Position>
            <AltitudeMeters>139.399993896484375</AltitudeMeters>
            <DistanceMeters>NAN</DistanceMeters>
          </Trackpoint>
          <Trackpoint>
            <Time>2021-08-10T11:11:37.000Z</Time>
            <Position>
              <LatitudeDegrees>43.1321755237877368927001953125</LatitudeDegrees>
              <LongitudeDegrees>-1.67038564570248126983642578125</LongitudeDegrees>
            </Position>
            <AltitudeMeters>139</AltitudeMeters>
            <DistanceMeters>NAN</DistanceMeters>
          </Trackpoint>
          <Trackpoint>
            <Time>2021-08-10T11:11:46.000Z</Time>
            <Position>
              <LatitudeDegrees>43.1322482787072658538818359375</LatitudeDegrees>
              <LongitudeDegrees>-1.67005263268947601318359375</LongitudeDegrees>
            </Position>
            <AltitudeMeters>138.1999969482421875</AltitudeMeters>
            <DistanceMeters>NAN</DistanceMeters>
          </Trackpoint>
          <Trackpoint>
            <Time>2021-08-10T11:11:50.000Z</Time>
            <Position>
              <LatitudeDegrees>43.132263533771038055419921875</LatitudeDegrees>
              <LongitudeDegrees>-1.6699146665632724761962890625</LongitudeDegrees>
            </Position>
            <AltitudeMeters>138.1999969482421875</AltitudeMeters>
            <DistanceMeters>NAN</DistanceMeters>
          </Trackpoint>
          <Trackpoint>
            <Time>2021-08-10T11:11:51.000Z</Time>
            <Position>
              <LatitudeDegrees>43.132266886532306671142578125</LatitudeDegrees>
              <LongitudeDegrees>-1.6698824800550937652587890625</LongitudeDegrees>
            </Position>
            <AltitudeMeters>138</AltitudeMeters>
            <DistanceMeters>NAN</DistanceMeters>
          </Trackpoint>
          <Trackpoint>
            <Time>2021-08-10T11:11:52.000Z</Time>
            <Position>
              <LatitudeDegrees>43.1322710774838924407958984375</LatitudeDegrees>
              <LongitudeDegrees>-1.66984803043305873870849609375</LongitudeDegrees>
            </Position>
            <AltitudeMeters>138</AltitudeMeters>
            <DistanceMeters>NAN</DistanceMeters>
          </Trackpoint>
          <Trackpoint>
            <Time>2021-08-10T11:11:54.000Z</Time>
            <Position>
              <LatitudeDegrees>43.13228063285350799560546875</LatitudeDegrees>
              <LongitudeDegrees>-1.669776029884815216064453125</LongitudeDegrees>
            </Position>
            <AltitudeMeters>138</AltitudeMeters>
            <DistanceMeters>NAN</DistanceMeters>
          </Trackpoint>
          <Trackpoint>
            <Time>2021-08-10T11:11:55.000Z</Time>
            <Position>
              <LatitudeDegrees>43.13228390179574489593505859375</LatitudeDegrees>
              <LongitudeDegrees>-1.6697399877011775970458984375</LongitudeDegrees>
            </Position>
            <AltitudeMeters>138</AltitudeMeters>
            <DistanceMeters>NAN</DistanceMeters>
          </Trackpoint>
          <Trackpoint>
            <Time>2021-08-10T11:11:56.000Z</Time>
            <Position>
              <LatitudeDegrees>43.13228675164282321929931640625</LatitudeDegrees>
              <LongitudeDegrees>-1.66970503516495227813720703125</LongitudeDegrees>
            </Position>
            <AltitudeMeters>138</AltitudeMeters>
            <DistanceMeters>NAN</DistanceMeters>
          </Trackpoint>
          <Trackpoint>
            <Time>2021-08-10T11:11:57.000Z</Time>
            <Position>
              <LatitudeDegrees>43.13228943385183811187744140625</LatitudeDegrees>
              <LongitudeDegrees>-1.66967569850385189056396484375</LongitudeDegrees>
            </Position>
            <AltitudeMeters>138</AltitudeMeters>
            <DistanceMeters>NAN</DistanceMeters>
          </Trackpoint>
          <Trackpoint>
            <Time>2021-08-10T11:11:58.000Z</Time>
            <Position>
              <LatitudeDegrees>43.132293038070201873779296875</LatitudeDegrees>
              <LongitudeDegrees>-1.6696518100798130035400390625</LongitudeDegrees>
            </Position>
            <AltitudeMeters>138</AltitudeMeters>
            <DistanceMeters>NAN</DistanceMeters>
          </Trackpoint>
          <Trackpoint>
            <Time>2021-08-10T11:11:59.000Z</Time>
            <Position>
              <LatitudeDegrees>43.13229672610759735107421875</LatitudeDegrees>
              <LongitudeDegrees>-1.66962959803640842437744140625</LongitudeDegrees>
            </Position>
            <AltitudeMeters>138</AltitudeMeters>
            <DistanceMeters>NAN</DistanceMeters>
          </Trackpoint>
          <Trackpoint>
            <Time>2021-08-10T11:12:00.000Z</Time>
            <Position>
              <LatitudeDegrees>43.13230016268789768218994140625</LatitudeDegrees>
              <LongitudeDegrees>-1.6696085594594478607177734375</LongitudeDegrees>
            </Position>
            <AltitudeMeters>138</AltitudeMeters>
            <DistanceMeters>NAN</DistanceMeters>
          </Trackpoint>
          <Trackpoint>
            <Time>2021-08-10T11:12:01.000Z</Time>
            <Position>
              <LatitudeDegrees>43.1323041021823883056640625</LatitudeDegrees>
              <LongitudeDegrees>-1.6695907898247241973876953125</LongitudeDegrees>
            </Position>
            <AltitudeMeters>138</AltitudeMeters>
            <DistanceMeters>NAN</DistanceMeters>
          </Trackpoint>
          <Trackpoint>
            <Time>2021-08-10T11:12:02.000Z</Time>
            <Position>
              <LatitudeDegrees>43.132305778563022613525390625</LatitudeDegrees>
              <LongitudeDegrees>-1.66957293637096881866455078125</LongitudeDegrees>
            </Position>
            <AltitudeMeters>138</AltitudeMeters>
            <DistanceMeters>NAN</DistanceMeters>
          </Trackpoint>
          <Trackpoint>
            <Time>2021-08-10T11:12:03.000Z</Time>
            <Position>
              <LatitudeDegrees>43.13230301253497600555419921875</LatitudeDegrees>
              <LongitudeDegrees>-1.66955365799367427825927734375</LongitudeDegrees>
            </Position>
            <AltitudeMeters>138</AltitudeMeters>
            <DistanceMeters>NAN</DistanceMeters>
          </Trackpoint>
          <Trackpoint>
            <Time>2021-08-10T11:12:06.000Z</Time>
            <Position>
              <LatitudeDegrees>43.1323094666004180908203125</LatitudeDegrees>
              <LongitudeDegrees>-1.66947537101805210113525390625</LongitudeDegrees>
            </Position>
            <AltitudeMeters>138</AltitudeMeters>
            <DistanceMeters>NAN</DistanceMeters>
          </Trackpoint>
          <Trackpoint>
            <Time>2021-08-10T11:12:09.000Z</Time>
            <Position>
              <LatitudeDegrees>43.132326565682888031005859375</LatitudeDegrees>
              <LongitudeDegrees>-1.6693961620330810546875</LongitudeDegrees>
            </Position>
            <AltitudeMeters>138</AltitudeMeters>
            <DistanceMeters>NAN</DistanceMeters>
          </Trackpoint>
          <Trackpoint>
            <Time>2021-08-10T11:12:11.000Z</Time>
            <Position>
              <LatitudeDegrees>43.132328577339649200439453125</LatitudeDegrees>
              <LongitudeDegrees>-1.66939021088182926177978515625</LongitudeDegrees>
            </Position>
            <AltitudeMeters>137.8000030517578125</AltitudeMeters>
            <DistanceMeters>NAN</DistanceMeters>
          </Trackpoint>
          <Trackpoint>
            <Time>2021-08-10T11:12:13.000Z</Time>
            <Position>
              <LatitudeDegrees>43.13232698477804660797119140625</LatitudeDegrees>
              <LongitudeDegrees>-1.6693919710814952850341796875</LongitudeDegrees>
            </Position>
            <AltitudeMeters>137.600006103515625</AltitudeMeters>
            <DistanceMeters>NAN</DistanceMeters>
          </Trackpoint>
          <Trackpoint>
            <Time>2021-08-10T11:12:22.000Z</Time>
            <Position>
              <LatitudeDegrees>43.13233704306185245513916015625</LatitudeDegrees>
              <LongitudeDegrees>-1.66938342154026031494140625</LongitudeDegrees>
            </Position>
            <AltitudeMeters>137.1999969482421875</AltitudeMeters>
            <DistanceMeters>NAN</DistanceMeters>
          </Trackpoint>
          <Trackpoint>
            <Time>2021-08-10T11:12:58.000Z</Time>
            <Position>
              <LatitudeDegrees>43.13235171139240264892578125</LatitudeDegrees>
              <LongitudeDegrees>-1.6692856885492801666259765625</LongitudeDegrees>
            </Position>
            <AltitudeMeters>137</AltitudeMeters>
            <DistanceMeters>NAN</DistanceMeters>
          </Trackpoint>
          <Trackpoint>
            <Time>2021-08-10T11:13:04.000Z</Time>
            <Position>
              <LatitudeDegrees>43.13239336945116519927978515625</LatitudeDegrees>
              <LongitudeDegrees>-1.6690228320658206939697265625</LongitudeDegrees>
            </Position>
            <AltitudeMeters>137.1999969482421875</AltitudeMeters>
            <DistanceMeters>NAN</DistanceMeters>
          </Trackpoint>
          <Trackpoint>
            <Time>2021-08-10T11:13:05.000Z</Time>
            <Position>
              <LatitudeDegrees>43.132400326430797576904296875</LatitudeDegrees>
              <LongitudeDegrees>-1.66898234747350215911865234375</LongitudeDegrees>
            </Position>
            <AltitudeMeters>137.1999969482421875</AltitudeMeters>
            <DistanceMeters>NAN</DistanceMeters>
          </Trackpoint>
          <Trackpoint>
            <Time>2021-08-10T11:13:13.000Z</Time>
            <Position>
              <LatitudeDegrees>43.1324625201523303985595703125</LatitudeDegrees>
              <LongitudeDegrees>-1.668652184307575225830078125</LongitudeDegrees>
            </Position>
            <AltitudeMeters>137.600006103515625</AltitudeMeters>
            <DistanceMeters>NAN</DistanceMeters>
          </Trackpoint>
          <Trackpoint>
            <Time>2021-08-10T11:13:16.000Z</Time>
            <Position>
              <LatitudeDegrees>43.1324967183172702789306640625</LatitudeDegrees>
              <LongitudeDegrees>-1.6685336641967296600341796875</LongitudeDegrees>
            </Position>
            <AltitudeMeters>137.600006103515625</AltitudeMeters>
            <DistanceMeters>NAN</DistanceMeters>
          </Trackpoint>
          <Trackpoint>
            <Time>2021-08-10T11:13:17.000Z</Time>
            <Position>
              <LatitudeDegrees>43.13250585459172725677490234375</LatitudeDegrees>
              <LongitudeDegrees>-1.66849787347018718719482421875</LongitudeDegrees>
            </Position>
            <AltitudeMeters>137.600006103515625</AltitudeMeters>
            <DistanceMeters>NAN</DistanceMeters>
          </Trackpoint>
          <Trackpoint>
            <Time>2021-08-10T11:13:21.000Z</Time>
            <Position>
              <LatitudeDegrees>43.13255061395466327667236328125</LatitudeDegrees>
              <LongitudeDegrees>-1.66834934614598751068115234375</LongitudeDegrees>
            </Position>
            <AltitudeMeters>137.8000030517578125</AltitudeMeters>
            <DistanceMeters>NAN</DistanceMeters>
          </Trackpoint>
          <Trackpoint>
            <Time>2021-08-10T11:13:22.000Z</Time>
            <Position>
              <LatitudeDegrees>43.13256226480007171630859375</LatitudeDegrees>
              <LongitudeDegrees>-1.668315567076206207275390625</LongitudeDegrees>
            </Position>
            <AltitudeMeters>137.8000030517578125</AltitudeMeters>
            <DistanceMeters>NAN</DistanceMeters>
          </Trackpoint>
          <Trackpoint>
            <Time>2021-08-10T11:13:23.000Z</Time>
            <Position>
              <LatitudeDegrees>43.13257240690290927886962890625</LatitudeDegrees>
              <LongitudeDegrees>-1.66828497312963008880615234375</LongitudeDegrees>
            </Position>
            <AltitudeMeters>137.8000030517578125</AltitudeMeters>
            <DistanceMeters>NAN</DistanceMeters>
          </Trackpoint>
          <Trackpoint>
            <Time>2021-08-10T11:13:24.000Z</Time>
            <Position>
              <LatitudeDegrees>43.13258296810090541839599609375</LatitudeDegrees>
              <LongitudeDegrees>-1.668257899582386016845703125</LongitudeDegrees>
            </Position>
            <AltitudeMeters>137.8000030517578125</AltitudeMeters>
            <DistanceMeters>NAN</DistanceMeters>
          </Trackpoint>
          <Trackpoint>
            <Time>2021-08-10T11:13:25.000Z</Time>
            <Position>
              <LatitudeDegrees>43.13259202055633068084716796875</LatitudeDegrees>
              <LongitudeDegrees>-1.66823015548288822174072265625</LongitudeDegrees>
            </Position>
            <AltitudeMeters>137.8000030517578125</AltitudeMeters>
            <DistanceMeters>NAN</DistanceMeters>
          </Trackpoint>
          <Trackpoint>
            <Time>2021-08-10T11:13:26.000Z</Time>
            <Position>
              <LatitudeDegrees>43.13260090537369251251220703125</LatitudeDegrees>
              <LongitudeDegrees>-1.6682007350027561187744140625</LongitudeDegrees>
            </Position>
            <AltitudeMeters>137.8000030517578125</AltitudeMeters>
            <DistanceMeters>NAN</DistanceMeters>
          </Trackpoint>
          <Trackpoint>
            <Time>2021-08-10T11:13:27.000Z</Time>
            <Position>
              <LatitudeDegrees>43.132610879838466644287109375</LatitudeDegrees>
              <LongitudeDegrees>-1.66817164979875087738037109375</LongitudeDegrees>
            </Position>
            <AltitudeMeters>137.8000030517578125</AltitudeMeters>
            <DistanceMeters>NAN</DistanceMeters>
          </Trackpoint>
          <Trackpoint>
            <Time>2021-08-10T11:13:28.000Z</Time>
            <Position>
              <LatitudeDegrees>43.13262269832193851470947265625</LatitudeDegrees>
              <LongitudeDegrees>-1.6681437380611896514892578125</LongitudeDegrees>
            </Position>
            <AltitudeMeters>137.8000030517578125</AltitudeMeters>
            <DistanceMeters>NAN</DistanceMeters>
          </Trackpoint>
          <Trackpoint>
            <Time>2021-08-10T11:13:29.000Z</Time>
            <Position>
              <LatitudeDegrees>43.13263342715799808502197265625</LatitudeDegrees>
              <LongitudeDegrees>-1.6681145690381526947021484375</LongitudeDegrees>
            </Position>
            <AltitudeMeters>137.8000030517578125</AltitudeMeters>
            <DistanceMeters>NAN</DistanceMeters>
          </Trackpoint>
          <Trackpoint>
            <Time>2021-08-10T11:13:30.000Z</Time>
            <Position>
              <LatitudeDegrees>43.13264147378504276275634765625</LatitudeDegrees>
              <LongitudeDegrees>-1.66808263398706912994384765625</LongitudeDegrees>
            </Position>
            <AltitudeMeters>137.8000030517578125</AltitudeMeters>
            <DistanceMeters>NAN</DistanceMeters>
          </Trackpoint>
          <Trackpoint>
            <Time>2021-08-10T11:13:31.000Z</Time>
            <Position>
              <LatitudeDegrees>43.13264675438404083251953125</LatitudeDegrees>
              <LongitudeDegrees>-1.66805036365985870361328125</LongitudeDegrees>
            </Position>
            <AltitudeMeters>137.8000030517578125</AltitudeMeters>
            <DistanceMeters>NAN</DistanceMeters>
          </Trackpoint>
          <Trackpoint>
            <Time>2021-08-10T11:13:32.000Z</Time>
            <Position>
              <LatitudeDegrees>43.13265119679272174835205078125</LatitudeDegrees>
              <LongitudeDegrees>-1.66801876388490200042724609375</LongitudeDegrees>
            </Position>
            <AltitudeMeters>137.8000030517578125</AltitudeMeters>
            <DistanceMeters>NAN</DistanceMeters>
          </Trackpoint>
          <Trackpoint>
            <Time>2021-08-10T11:13:33.000Z</Time>
            <Position>
              <LatitudeDegrees>43.13265572302043437957763671875</LatitudeDegrees>
              <LongitudeDegrees>-1.6679888404905796051025390625</LongitudeDegrees>
            </Position>
            <AltitudeMeters>137.8000030517578125</AltitudeMeters>
            <DistanceMeters>NAN</DistanceMeters>
          </Trackpoint>
          <Trackpoint>
            <Time>2021-08-10T11:13:34.000Z</Time>
            <Position>
              <LatitudeDegrees>43.13266326673328876495361328125</LatitudeDegrees>
              <LongitudeDegrees>-1.667958162724971771240234375</LongitudeDegrees>
            </Position>
            <AltitudeMeters>137.8000030517578125</AltitudeMeters>
            <DistanceMeters>NAN</DistanceMeters>
          </Trackpoint>
          <Trackpoint>
            <Time>2021-08-10T11:13:35.000Z</Time>
            <Position>
              <LatitudeDegrees>43.132668547332286834716796875</LatitudeDegrees>
              <LongitudeDegrees>-1.66793041862547397613525390625</LongitudeDegrees>
            </Position>
            <AltitudeMeters>137.8000030517578125</AltitudeMeters>
            <DistanceMeters>NAN</DistanceMeters>
          </Trackpoint>
          <Trackpoint>
            <Time>2021-08-10T11:13:36.000Z</Time>
            <Position>
              <LatitudeDegrees>43.1326734088361263275146484375</LatitudeDegrees>
              <LongitudeDegrees>-1.6679066978394985198974609375</LongitudeDegrees>
            </Position>
            <AltitudeMeters>137.8000030517578125</AltitudeMeters>
            <DistanceMeters>NAN</DistanceMeters>
          </Trackpoint>
          <Trackpoint>
            <Time>2021-08-10T11:13:39.000Z</Time>
            <Position>
              <LatitudeDegrees>43.1326918490231037139892578125</LatitudeDegrees>
              <LongitudeDegrees>-1.66783788241446018218994140625</LongitudeDegrees>
            </Position>
            <AltitudeMeters>137.8000030517578125</AltitudeMeters>
            <DistanceMeters>NAN</DistanceMeters>
          </Trackpoint>
          <Trackpoint>
            <Time>2021-08-10T11:13:40.000Z</Time>
            <Position>
              <LatitudeDegrees>43.13269310630857944488525390625</LatitudeDegrees>
              <LongitudeDegrees>-1.66781106032431125640869140625</LongitudeDegrees>
            </Position>
            <AltitudeMeters>138</AltitudeMeters>
            <DistanceMeters>NAN</DistanceMeters>
          </Trackpoint>
          <Trackpoint>
            <Time>2021-08-10T11:13:41.000Z</Time>
            <Position>
              <LatitudeDegrees>43.13269478268921375274658203125</LatitudeDegrees>
              <LongitudeDegrees>-1.6677796281874179840087890625</LongitudeDegrees>
            </Position>
            <AltitudeMeters>138</AltitudeMeters>
            <DistanceMeters>NAN</DistanceMeters>
          </Trackpoint>
          <Trackpoint>
            <Time>2021-08-10T11:13:45.000Z</Time>
            <Position>
              <LatitudeDegrees>43.1327466666698455810546875</LatitudeDegrees>
              <LongitudeDegrees>-1.66762900538742542266845703125</LongitudeDegrees>
            </Position>
            <AltitudeMeters>137.8000030517578125</AltitudeMeters>
            <DistanceMeters>NAN</DistanceMeters>
          </Trackpoint>
          <Trackpoint>
            <Time>2021-08-10T11:13:48.000Z</Time>
            <Position>
              <LatitudeDegrees>43.1327910907566547393798828125</LatitudeDegrees>
              <LongitudeDegrees>-1.6675187833607196807861328125</LongitudeDegrees>
            </Position>
            <AltitudeMeters>137.600006103515625</AltitudeMeters>
            <DistanceMeters>NAN</DistanceMeters>
          </Trackpoint>
          <Trackpoint>
            <Time>2021-08-10T11:13:49.000Z</Time>
            <Position>
              <LatitudeDegrees>43.13280626200139522552490234375</LatitudeDegrees>
              <LongitudeDegrees>-1.667482741177082061767578125</LongitudeDegrees>
            </Position>
            <AltitudeMeters>137.600006103515625</AltitudeMeters>
            <DistanceMeters>NAN</DistanceMeters>
          </Trackpoint>
          <Trackpoint>
            <Time>2021-08-10T11:13:50.000Z</Time>
            <Position>
              <LatitudeDegrees>43.13282285816967487335205078125</LatitudeDegrees>
              <LongitudeDegrees>-1.6674490459263324737548828125</LongitudeDegrees>
            </Position>
            <AltitudeMeters>137.600006103515625</AltitudeMeters>
            <DistanceMeters>NAN</DistanceMeters>
          </Trackpoint>
          <Trackpoint>
            <Time>2021-08-10T11:13:51.000Z</Time>
            <Position>
              <LatitudeDegrees>43.13283878378570079803466796875</LatitudeDegrees>
              <LongitudeDegrees>-1.66741945780813694000244140625</LongitudeDegrees>
            </Position>
            <AltitudeMeters>137.600006103515625</AltitudeMeters>
            <DistanceMeters>NAN</DistanceMeters>
          </Trackpoint>
          <Trackpoint>
            <Time>2021-08-10T11:13:53.000Z</Time>
            <Position>
              <LatitudeDegrees>43.13286661170423030853271484375</LatitudeDegrees>
              <LongitudeDegrees>-1.66736179031431674957275390625</LongitudeDegrees>
            </Position>
            <AltitudeMeters>137.600006103515625</AltitudeMeters>
            <DistanceMeters>NAN</DistanceMeters>
          </Trackpoint>
          <Trackpoint>
            <Time>2021-08-10T11:13:55.000Z</Time>
            <Position>
              <LatitudeDegrees>43.1328933499753475189208984375</LatitudeDegrees>
              <LongitudeDegrees>-1.66730043478310108184814453125</LongitudeDegrees>
            </Position>
            <AltitudeMeters>137.600006103515625</AltitudeMeters>
            <DistanceMeters>NAN</DistanceMeters>
          </Trackpoint>
          <Trackpoint>
            <Time>2021-08-10T11:13:56.000Z</Time>
            <Position>
              <LatitudeDegrees>43.132903240621089935302734375</LatitudeDegrees>
              <LongitudeDegrees>-1.66727160103619098663330078125</LongitudeDegrees>
            </Position>
            <AltitudeMeters>137.600006103515625</AltitudeMeters>
            <DistanceMeters>NAN</DistanceMeters>
          </Trackpoint>
          <Trackpoint>
            <Time>2021-08-10T11:13:57.000Z</Time>
            <Position>
              <LatitudeDegrees>43.1329174898564815521240234375</LatitudeDegrees>
              <LongitudeDegrees>-1.667242012917995452880859375</LongitudeDegrees>
            </Position>
            <AltitudeMeters>137.600006103515625</AltitudeMeters>
            <DistanceMeters>NAN</DistanceMeters>
          </Trackpoint>
          <Trackpoint>
            <Time>2021-08-10T11:13:58.000Z</Time>
            <Position>
              <LatitudeDegrees>43.1329335831105709075927734375</LatitudeDegrees>
              <LongitudeDegrees>-1.667208485305309295654296875</LongitudeDegrees>
            </Position>
            <AltitudeMeters>137.600006103515625</AltitudeMeters>
            <DistanceMeters>NAN</DistanceMeters>
          </Trackpoint>
          <Trackpoint>
            <Time>2021-08-10T11:13:59.000Z</Time>
            <Position>
              <LatitudeDegrees>43.132948838174343109130859375</LatitudeDegrees>
              <LongitudeDegrees>-1.6671757958829402923583984375</LongitudeDegrees>
            </Position>
            <AltitudeMeters>137.600006103515625</AltitudeMeters>
            <DistanceMeters>NAN</DistanceMeters>
          </Trackpoint>
          <Trackpoint>
            <Time>2021-08-10T11:14:00.000Z</Time>
            <Position>
              <LatitudeDegrees>43.132964931428432464599609375</LatitudeDegrees>
              <LongitudeDegrees>-1.66714402846992015838623046875</LongitudeDegrees>
            </Position>
            <AltitudeMeters>137.600006103515625</AltitudeMeters>
            <DistanceMeters>NAN</DistanceMeters>
          </Trackpoint>
          <Trackpoint>
            <Time>2021-08-10T11:14:01.000Z</Time>
            <Position>
              <LatitudeDegrees>43.13297959975898265838623046875</LatitudeDegrees>
              <LongitudeDegrees>-1.6671164520084857940673828125</LongitudeDegrees>
            </Position>
            <AltitudeMeters>137.8000030517578125</AltitudeMeters>
            <DistanceMeters>NAN</DistanceMeters>
          </Trackpoint>
          <Trackpoint>
            <Time>2021-08-10T11:14:05.000Z</Time>
            <Position>
              <LatitudeDegrees>43.13302737660706043243408203125</LatitudeDegrees>
              <LongitudeDegrees>-1.66699348948895931243896484375</LongitudeDegrees>
            </Position>
            <AltitudeMeters>137.8000030517578125</AltitudeMeters>
            <DistanceMeters>NAN</DistanceMeters>
          </Trackpoint>
          <Trackpoint>
            <Time>2021-08-10T11:14:08.000Z</Time>
            <Position>
              <LatitudeDegrees>43.1330578029155731201171875</LatitudeDegrees>
              <LongitudeDegrees>-1.66691352613270282745361328125</LongitudeDegrees>
            </Position>
            <AltitudeMeters>137.600006103515625</AltitudeMeters>
            <DistanceMeters>NAN</DistanceMeters>
          </Trackpoint>
          <Trackpoint>
            <Time>2021-08-10T11:14:09.000Z</Time>
            <Position>
              <LatitudeDegrees>43.13307515345513820648193359375</LatitudeDegrees>
              <LongitudeDegrees>-1.66687983088195323944091796875</LongitudeDegrees>
            </Position>
            <AltitudeMeters>137.600006103515625</AltitudeMeters>
            <DistanceMeters>NAN</DistanceMeters>
          </Trackpoint>
          <Trackpoint>
            <Time>2021-08-10T11:14:10.000Z</Time>
            <Position>
              <LatitudeDegrees>43.13308806158602237701416015625</LatitudeDegrees>
              <LongitudeDegrees>-1.66685451753437519073486328125</LongitudeDegrees>
            </Position>
            <AltitudeMeters>137.600006103515625</AltitudeMeters>
            <DistanceMeters>NAN</DistanceMeters>
          </Trackpoint>
          <Trackpoint>
            <Time>2021-08-10T11:14:11.000Z</Time>
            <Position>
              <LatitudeDegrees>43.13310834579169750213623046875</LatitudeDegrees>
              <LongitudeDegrees>-1.6668371669948101043701171875</LongitudeDegrees>
            </Position>
            <AltitudeMeters>137.399993896484375</AltitudeMeters>
            <DistanceMeters>NAN</DistanceMeters>
          </Trackpoint>
          <Trackpoint>
            <Time>2021-08-10T11:14:12.000Z</Time>
            <Position>
              <LatitudeDegrees>43.13313684426248073577880859375</LatitudeDegrees>
              <LongitudeDegrees>-1.666825599968433380126953125</LongitudeDegrees>
            </Position>
            <AltitudeMeters>137.399993896484375</AltitudeMeters>
            <DistanceMeters>NAN</DistanceMeters>
          </Trackpoint>
          <Trackpoint>
            <Time>2021-08-10T11:14:13.000Z</Time>
            <Position>
              <LatitudeDegrees>43.13316500745713710784912109375</LatitudeDegrees>
              <LongitudeDegrees>-1.666824929416179656982421875</LongitudeDegrees>
            </Position>
            <AltitudeMeters>137.399993896484375</AltitudeMeters>
            <DistanceMeters>NAN</DistanceMeters>
          </Trackpoint>
          <Trackpoint>
            <Time>2021-08-10T11:14:14.000Z</Time>
            <Position>
              <LatitudeDegrees>43.13319317065179347991943359375</LatitudeDegrees>
              <LongitudeDegrees>-1.66682057082653045654296875</LongitudeDegrees>
            </Position>
            <AltitudeMeters>137.1999969482421875</AltitudeMeters>
            <DistanceMeters>NAN</DistanceMeters>
          </Trackpoint>
          <Trackpoint>
            <Time>2021-08-10T11:14:15.000Z</Time>
            <Position>
              <LatitudeDegrees>43.1332269497215747833251953125</LatitudeDegrees>
              <LongitudeDegrees>-1.66680254973471164703369140625</LongitudeDegrees>
            </Position>
            <AltitudeMeters>137.1999969482421875</AltitudeMeters>
            <DistanceMeters>NAN</DistanceMeters>
          </Trackpoint>
          <Trackpoint>
            <Time>2021-08-10T11:14:23.000Z</Time>
            <Position>
              <LatitudeDegrees>43.13348402269184589385986328125</LatitudeDegrees>
              <LongitudeDegrees>-1.6666497476398944854736328125</LongitudeDegrees>
            </Position>
            <AltitudeMeters>137.399993896484375</AltitudeMeters>
            <DistanceMeters>NAN</DistanceMeters>
          </Trackpoint>
          <Trackpoint>
            <Time>2021-08-10T11:14:30.000Z</Time>
            <Position>
              <LatitudeDegrees>43.13371720723807811737060546875</LatitudeDegrees>
              <LongitudeDegrees>-1.6665008850395679473876953125</LongitudeDegrees>
            </Position>
            <AltitudeMeters>137.600006103515625</AltitudeMeters>
            <DistanceMeters>NAN</DistanceMeters>
          </Trackpoint>
          <Trackpoint>
            <Time>2021-08-10T11:14:37.000Z</Time>
            <Position>
              <LatitudeDegrees>43.1339984200894832611083984375</LatitudeDegrees>
              <LongitudeDegrees>-1.666357554495334625244140625</LongitudeDegrees>
            </Position>
            <AltitudeMeters>137.600006103515625</AltitudeMeters>
            <DistanceMeters>NAN</DistanceMeters>
          </Trackpoint>
          <Trackpoint>
            <Time>2021-08-10T11:14:42.000Z</Time>
            <Position>
              <LatitudeDegrees>43.13419816084206104278564453125</LatitudeDegrees>
              <LongitudeDegrees>-1.66627264581620693206787109375</LongitudeDegrees>
            </Position>
            <AltitudeMeters>137.600006103515625</AltitudeMeters>
            <DistanceMeters>NAN</DistanceMeters>
          </Trackpoint>
          <Trackpoint>
            <Time>2021-08-10T11:14:45.000Z</Time>
            <Position>
              <LatitudeDegrees>43.13430880196392536163330078125</LatitudeDegrees>
              <LongitudeDegrees>-1.6662112064659595489501953125</LongitudeDegrees>
            </Position>
            <AltitudeMeters>137.600006103515625</AltitudeMeters>
            <DistanceMeters>NAN</DistanceMeters>
          </Trackpoint>
          <Trackpoint>
            <Time>2021-08-10T11:14:49.000Z</Time>
            <Position>
              <LatitudeDegrees>43.13444693572819232940673828125</LatitudeDegrees>
              <LongitudeDegrees>-1.66614733636379241943359375</LongitudeDegrees>
            </Position>
            <AltitudeMeters>137.600006103515625</AltitudeMeters>
            <DistanceMeters>NAN</DistanceMeters>
          </Trackpoint>
          <Trackpoint>
            <Time>2021-08-10T11:14:51.000Z</Time>
            <Position>
              <LatitudeDegrees>43.13451290130615234375</LatitudeDegrees>
              <LongitudeDegrees>-1.6661156527698040008544921875</LongitudeDegrees>
            </Position>
            <AltitudeMeters>137.600006103515625</AltitudeMeters>
            <DistanceMeters>NAN</DistanceMeters>
          </Trackpoint>
          <Trackpoint>
            <Time>2021-08-10T11:14:52.000Z</Time>
            <Position>
              <LatitudeDegrees>43.134547434747219085693359375</LatitudeDegrees>
              <LongitudeDegrees>-1.66609997861087322235107421875</LongitudeDegrees>
            </Position>
            <AltitudeMeters>137.600006103515625</AltitudeMeters>
            <DistanceMeters>NAN</DistanceMeters>
          </Trackpoint>
          <Trackpoint>
            <Time>2021-08-10T11:14:53.000Z</Time>
            <Position>
              <LatitudeDegrees>43.13457601703703403472900390625</LatitudeDegrees>
              <LongitudeDegrees>-1.6660858131945133209228515625</LongitudeDegrees>
            </Position>
            <AltitudeMeters>137.600006103515625</AltitudeMeters>
            <DistanceMeters>NAN</DistanceMeters>
          </Trackpoint>
          <Trackpoint>
            <Time>2021-08-10T11:14:54.000Z</Time>
            <Position>
              <LatitudeDegrees>43.1346045993268489837646484375</LatitudeDegrees>
              <LongitudeDegrees>-1.6660724021494388580322265625</LongitudeDegrees>
            </Position>
            <AltitudeMeters>137.600006103515625</AltitudeMeters>
            <DistanceMeters>NAN</DistanceMeters>
          </Trackpoint>
          <Trackpoint>
            <Time>2021-08-10T11:14:55.000Z</Time>
            <Position>
              <LatitudeDegrees>43.13463334925472736358642578125</LatitudeDegrees>
              <LongitudeDegrees>-1.66606008075177669525146484375</LongitudeDegrees>
            </Position>
            <AltitudeMeters>137.600006103515625</AltitudeMeters>
            <DistanceMeters>NAN</DistanceMeters>
          </Trackpoint>
          <Trackpoint>
            <Time>2021-08-10T11:14:56.000Z</Time>
            <Position>
              <LatitudeDegrees>43.13466100953519344329833984375</LatitudeDegrees>
              <LongitudeDegrees>-1.666047088801860809326171875</LongitudeDegrees>
            </Position>
            <AltitudeMeters>137.600006103515625</AltitudeMeters>
            <DistanceMeters>NAN</DistanceMeters>
          </Trackpoint>
          <Trackpoint>
            <Time>2021-08-10T11:14:57.000Z</Time>
            <Position>
              <LatitudeDegrees>43.1346927769482135772705078125</LatitudeDegrees>
              <LongitudeDegrees>-1.66602957062423229217529296875</LongitudeDegrees>
            </Position>
            <AltitudeMeters>137.600006103515625</AltitudeMeters>
            <DistanceMeters>NAN</DistanceMeters>
          </Trackpoint>
          <Trackpoint>
            <Time>2021-08-10T11:14:58.000Z</Time>
            <Position>
              <LatitudeDegrees>43.13472672365605831146240234375</LatitudeDegrees>
              <LongitudeDegrees>-1.66601565666496753692626953125</LongitudeDegrees>
            </Position>
            <AltitudeMeters>137.600006103515625</AltitudeMeters>
            <DistanceMeters>NAN</DistanceMeters>
          </Trackpoint>
          <Trackpoint>
            <Time>2021-08-10T11:14:59.000Z</Time>
            <Position>
              <LatitudeDegrees>43.13475740142166614532470703125</LatitudeDegrees>
              <LongitudeDegrees>-1.66599604301154613494873046875</LongitudeDegrees>
            </Position>
            <AltitudeMeters>137.600006103515625</AltitudeMeters>
            <DistanceMeters>NAN</DistanceMeters>
          </Trackpoint>
          <Trackpoint>
            <Time>2021-08-10T11:15:00.000Z</Time>
            <Position>
              <LatitudeDegrees>43.13478313386440277099609375</LatitudeDegrees>
              <LongitudeDegrees>-1.6659718193113803863525390625</LongitudeDegrees>
            </Position>
            <AltitudeMeters>137.600006103515625</AltitudeMeters>
            <DistanceMeters>NAN</DistanceMeters>
          </Trackpoint>
          <Trackpoint>
            <Time>2021-08-10T11:15:01.000Z</Time>
            <Position>
              <LatitudeDegrees>43.1348040886223316192626953125</LatitudeDegrees>
              <LongitudeDegrees>-1.66594474576413631439208984375</LongitudeDegrees>
            </Position>
            <AltitudeMeters>137.600006103515625</AltitudeMeters>
            <DistanceMeters>NAN</DistanceMeters>
          </Trackpoint>
          <Trackpoint>
            <Time>2021-08-10T11:15:02.000Z</Time>
            <Position>
              <LatitudeDegrees>43.1348191760480403900146484375</LatitudeDegrees>
              <LongitudeDegrees>-1.6659168340265750885009765625</LongitudeDegrees>
            </Position>
            <AltitudeMeters>137.8000030517578125</AltitudeMeters>
            <DistanceMeters>NAN</DistanceMeters>
          </Trackpoint>
          <Trackpoint>
            <Time>2021-08-10T11:15:03.000Z</Time>
            <Position>
              <LatitudeDegrees>43.13482814468443393707275390625</LatitudeDegrees>
              <LongitudeDegrees>-1.66589026339352130889892578125</LongitudeDegrees>
            </Position>
            <AltitudeMeters>137.8000030517578125</AltitudeMeters>
            <DistanceMeters>NAN</DistanceMeters>
          </Trackpoint>
          <Trackpoint>
            <Time>2021-08-10T11:15:04.000Z</Time>
            <Position>
              <LatitudeDegrees>43.134834766387939453125</LatitudeDegrees>
              <LongitudeDegrees>-1.66586059145629405975341796875</LongitudeDegrees>
            </Position>
            <AltitudeMeters>137.8000030517578125</AltitudeMeters>
            <DistanceMeters>NAN</DistanceMeters>
          </Trackpoint>
          <Trackpoint>
            <Time>2021-08-10T11:15:05.000Z</Time>
            <Position>
              <LatitudeDegrees>43.13484893180429935455322265625</LatitudeDegrees>
              <LongitudeDegrees>-1.66583217680454254150390625</LongitudeDegrees>
            </Position>
            <AltitudeMeters>137.8000030517578125</AltitudeMeters>
            <DistanceMeters>NAN</DistanceMeters>
          </Trackpoint>
          <Trackpoint>
            <Time>2021-08-10T11:15:06.000Z</Time>
            <Position>
              <LatitudeDegrees>43.13487340696156024932861328125</LatitudeDegrees>
              <LongitudeDegrees>-1.665819101035594940185546875</LongitudeDegrees>
            </Position>
            <AltitudeMeters>138</AltitudeMeters>
            <DistanceMeters>NAN</DistanceMeters>
          </Trackpoint>
          <Trackpoint>
            <Time>2021-08-10T11:15:07.000Z</Time>
            <Position>
              <LatitudeDegrees>43.1349029950797557830810546875</LatitudeDegrees>
              <LongitudeDegrees>-1.66580074466764926910400390625</LongitudeDegrees>
            </Position>
            <AltitudeMeters>138</AltitudeMeters>
            <DistanceMeters>NAN</DistanceMeters>
          </Trackpoint>
          <Trackpoint>
            <Time>2021-08-10T11:15:08.000Z</Time>
            <Position>
              <LatitudeDegrees>43.13493342138826847076416015625</LatitudeDegrees>
              <LongitudeDegrees>-1.66578196920454502105712890625</LongitudeDegrees>
            </Position>
            <AltitudeMeters>138</AltitudeMeters>
            <DistanceMeters>NAN</DistanceMeters>
          </Trackpoint>
          <Trackpoint>
            <Time>2021-08-10T11:15:09.000Z</Time>
            <Position>
              <LatitudeDegrees>43.134965859353542327880859375</LatitudeDegrees>
              <LongitudeDegrees>-1.66576780378818511962890625</LongitudeDegrees>
            </Position>
            <AltitudeMeters>138</AltitudeMeters>
            <DistanceMeters>NAN</DistanceMeters>
          </Trackpoint>
          <Trackpoint>
            <Time>2021-08-10T11:15:10.000Z</Time>
            <Position>
              <LatitudeDegrees>43.13499963842332363128662109375</LatitudeDegrees>
              <LongitudeDegrees>-1.66576051153242588043212890625</LongitudeDegrees>
            </Position>
            <AltitudeMeters>138</AltitudeMeters>
            <DistanceMeters>NAN</DistanceMeters>
          </Trackpoint>
          <Trackpoint>
            <Time>2021-08-10T11:15:15.000Z</Time>
            <Position>
              <LatitudeDegrees>43.13516694121062755584716796875</LatitudeDegrees>
              <LongitudeDegrees>-1.66578590869903564453125</LongitudeDegrees>
            </Position>
            <AltitudeMeters>138</AltitudeMeters>
            <DistanceMeters>NAN</DistanceMeters>
          </Trackpoint>
          <Trackpoint>
            <Time>2021-08-10T11:15:21.000Z</Time>
            <Position>
              <LatitudeDegrees>43.13534044660627841949462890625</LatitudeDegrees>
              <LongitudeDegrees>-1.66586704552173614501953125</LongitudeDegrees>
            </Position>
            <AltitudeMeters>138.1999969482421875</AltitudeMeters>
            <DistanceMeters>NAN</DistanceMeters>
          </Trackpoint>
          <Trackpoint>
            <Time>2021-08-10T11:15:22.000Z</Time>
            <Position>
              <LatitudeDegrees>43.13536643050611019134521484375</LatitudeDegrees>
              <LongitudeDegrees>-1.6658762656152248382568359375</LongitudeDegrees>
            </Position>
            <AltitudeMeters>138.1999969482421875</AltitudeMeters>
            <DistanceMeters>NAN</DistanceMeters>
          </Trackpoint>
          <Trackpoint>
            <Time>2021-08-10T11:15:23.000Z</Time>
            <Position>
              <LatitudeDegrees>43.1353935040533542633056640625</LatitudeDegrees>
              <LongitudeDegrees>-1.6658799536526203155517578125</LongitudeDegrees>
            </Position>
            <AltitudeMeters>138.1999969482421875</AltitudeMeters>
            <DistanceMeters>NAN</DistanceMeters>
          </Trackpoint>
          <Trackpoint>
            <Time>2021-08-10T11:15:24.000Z</Time>
            <Position>
              <LatitudeDegrees>43.1354209966957569122314453125</LatitudeDegrees>
              <LongitudeDegrees>-1.66587852872908115386962890625</LongitudeDegrees>
            </Position>
            <AltitudeMeters>138.1999969482421875</AltitudeMeters>
            <DistanceMeters>NAN</DistanceMeters>
          </Trackpoint>
          <Trackpoint>
            <Time>2021-08-10T11:15:25.000Z</Time>
            <Position>
              <LatitudeDegrees>43.13544857315719127655029296875</LatitudeDegrees>
              <LongitudeDegrees>-1.66587014682590961456298828125</LongitudeDegrees>
            </Position>
            <AltitudeMeters>138.1999969482421875</AltitudeMeters>
            <DistanceMeters>NAN</DistanceMeters>
          </Trackpoint>
          <Trackpoint>
            <Time>2021-08-10T11:15:26.000Z</Time>
            <Position>
              <LatitudeDegrees>43.135477490723133087158203125</LatitudeDegrees>
              <LongitudeDegrees>-1.6658588312566280364990234375</LongitudeDegrees>
            </Position>
            <AltitudeMeters>138.399993896484375</AltitudeMeters>
            <DistanceMeters>NAN</DistanceMeters>
          </Trackpoint>
          <Trackpoint>
            <Time>2021-08-10T11:15:27.000Z</Time>
            <Position>
              <LatitudeDegrees>43.13550188206136226654052734375</LatitudeDegrees>
              <LongitudeDegrees>-1.6658434085547924041748046875</LongitudeDegrees>
            </Position>
            <AltitudeMeters>138.399993896484375</AltitudeMeters>
            <DistanceMeters>NAN</DistanceMeters>
          </Trackpoint>
          <Trackpoint>
            <Time>2021-08-10T11:15:28.000Z</Time>
            <Position>
              <LatitudeDegrees>43.13552635721862316131591796875</LatitudeDegrees>
              <LongitudeDegrees>-1.66582253761589527130126953125</LongitudeDegrees>
            </Position>
            <AltitudeMeters>138.399993896484375</AltitudeMeters>
            <DistanceMeters>NAN</DistanceMeters>
          </Trackpoint>
          <Trackpoint>
            <Time>2021-08-10T11:15:30.000Z</Time>
            <Position>
              <LatitudeDegrees>43.1355785764753818511962890625</LatitudeDegrees>
              <LongitudeDegrees>-1.66577744297683238983154296875</LongitudeDegrees>
            </Position>
            <AltitudeMeters>138.399993896484375</AltitudeMeters>
            <DistanceMeters>NAN</DistanceMeters>
          </Trackpoint>
          <Trackpoint>
            <Time>2021-08-10T11:15:38.000Z</Time>
            <Position>
              <LatitudeDegrees>43.13580580987036228179931640625</LatitudeDegrees>
              <LongitudeDegrees>-1.6656606830656528472900390625</LongitudeDegrees>
            </Position>
            <AltitudeMeters>138.600006103515625</AltitudeMeters>
            <DistanceMeters>NAN</DistanceMeters>
          </Trackpoint>
          <Trackpoint>
            <Time>2021-08-10T11:15:41.000Z</Time>
            <Position>
              <LatitudeDegrees>43.13588828779757022857666015625</LatitudeDegrees>
              <LongitudeDegrees>-1.66563863866031169891357421875</LongitudeDegrees>
            </Position>
            <AltitudeMeters>138.600006103515625</AltitudeMeters>
            <DistanceMeters>NAN</DistanceMeters>
          </Trackpoint>
          <Trackpoint>
            <Time>2021-08-10T11:15:43.000Z</Time>
            <Position>
              <LatitudeDegrees>43.13595182262361049652099609375</LatitudeDegrees>
              <LongitudeDegrees>-1.6656181029975414276123046875</LongitudeDegrees>
            </Position>
            <AltitudeMeters>138.600006103515625</AltitudeMeters>
            <DistanceMeters>NAN</DistanceMeters>
          </Trackpoint>
          <Trackpoint>
            <Time>2021-08-10T11:15:45.000Z</Time>
            <Position>
              <LatitudeDegrees>43.13600278459489345550537109375</LatitudeDegrees>
              <LongitudeDegrees>-1.665606535971164703369140625</LongitudeDegrees>
            </Position>
            <AltitudeMeters>138.8000030517578125</AltitudeMeters>
            <DistanceMeters>NAN</DistanceMeters>
          </Trackpoint>
          <Trackpoint>
            <Time>2021-08-10T11:15:46.000Z</Time>
            <Position>
              <LatitudeDegrees>43.13603765331208705902099609375</LatitudeDegrees>
              <LongitudeDegrees>-1.6655966453254222869873046875</LongitudeDegrees>
            </Position>
            <AltitudeMeters>138.8000030517578125</AltitudeMeters>
            <DistanceMeters>NAN</DistanceMeters>
          </Trackpoint>
          <Trackpoint>
            <Time>2021-08-10T11:15:48.000Z</Time>
            <Position>
              <LatitudeDegrees>43.13609565608203411102294921875</LatitudeDegrees>
              <LongitudeDegrees>-1.66559773497283458709716796875</LongitudeDegrees>
            </Position>
            <AltitudeMeters>138.8000030517578125</AltitudeMeters>
            <DistanceMeters>NAN</DistanceMeters>
          </Trackpoint>
          <Trackpoint>
            <Time>2021-08-10T11:15:53.000Z</Time>
            <Position>
              <LatitudeDegrees>43.13626932911574840545654296875</LatitudeDegrees>
              <LongitudeDegrees>-1.66557879187166690826416015625</LongitudeDegrees>
            </Position>
            <AltitudeMeters>139</AltitudeMeters>
            <DistanceMeters>NAN</DistanceMeters>
          </Trackpoint>
          <Trackpoint>
            <Time>2021-08-10T11:16:01.000Z</Time>
            <Position>
              <LatitudeDegrees>43.13660041429102420806884765625</LatitudeDegrees>
              <LongitudeDegrees>-1.66560812853276729583740234375</LongitudeDegrees>
            </Position>
            <AltitudeMeters>138.600006103515625</AltitudeMeters>
            <DistanceMeters>NAN</DistanceMeters>
          </Trackpoint>
          <Trackpoint>
            <Time>2021-08-10T11:16:07.000Z</Time>
            <Position>
              <LatitudeDegrees>43.13683393411338329315185546875</LatitudeDegrees>
              <LongitudeDegrees>-1.6655966453254222869873046875</LongitudeDegrees>
            </Position>
            <AltitudeMeters>138.399993896484375</AltitudeMeters>
            <DistanceMeters>NAN</DistanceMeters>
          </Trackpoint>
          <Trackpoint>
            <Time>2021-08-10T11:16:08.000Z</Time>
            <Position>
              <LatitudeDegrees>43.13687282614409923553466796875</LatitudeDegrees>
              <LongitudeDegrees>-1.665595807135105133056640625</LongitudeDegrees>
            </Position>
            <AltitudeMeters>138.1999969482421875</AltitudeMeters>
            <DistanceMeters>NAN</DistanceMeters>
          </Trackpoint>
          <Trackpoint>
            <Time>2021-08-10T11:16:09.000Z</Time>
            <Position>
              <LatitudeDegrees>43.13689830712974071502685546875</LatitudeDegrees>
              <LongitudeDegrees>-1.66562162339687347412109375</LongitudeDegrees>
            </Position>
            <AltitudeMeters>138.1999969482421875</AltitudeMeters>
            <DistanceMeters>NAN</DistanceMeters>
          </Trackpoint>
          <Trackpoint>
            <Time>2021-08-10T11:16:10.000Z</Time>
            <Position>
              <LatitudeDegrees>43.1369277276098728179931640625</LatitudeDegrees>
              <LongitudeDegrees>-1.66564366780221462249755859375</LongitudeDegrees>
            </Position>
            <AltitudeMeters>138.1999969482421875</AltitudeMeters>
            <DistanceMeters>NAN</DistanceMeters>
          </Trackpoint>
          <Trackpoint>
            <Time>2021-08-10T11:16:11.000Z</Time>
            <Position>
              <LatitudeDegrees>43.13695882447063922882080078125</LatitudeDegrees>
              <LongitudeDegrees>-1.6656429134309291839599609375</LongitudeDegrees>
            </Position>
            <AltitudeMeters>138.1999969482421875</AltitudeMeters>
            <DistanceMeters>NAN</DistanceMeters>
          </Trackpoint>
          <Trackpoint>
            <Time>2021-08-10T11:16:12.000Z</Time>
            <Position>
              <LatitudeDegrees>43.13698933459818363189697265625</LatitudeDegrees>
              <LongitudeDegrees>-1.66564031504094600677490234375</LongitudeDegrees>
            </Position>
            <AltitudeMeters>138</AltitudeMeters>
            <DistanceMeters>NAN</DistanceMeters>
          </Trackpoint>
          <Trackpoint>
            <Time>2021-08-10T11:16:13.000Z</Time>
            <Position>
              <LatitudeDegrees>43.1370175816118717193603515625</LatitudeDegrees>
              <LongitudeDegrees>-1.66563612408936023712158203125</LongitudeDegrees>
            </Position>
            <AltitudeMeters>138</AltitudeMeters>
            <DistanceMeters>NAN</DistanceMeters>
          </Trackpoint>
          <Trackpoint>
            <Time>2021-08-10T11:16:14.000Z</Time>
            <Position>
              <LatitudeDegrees>43.1370413862168788909912109375</LatitudeDegrees>
              <LongitudeDegrees>-1.66563595645129680633544921875</LongitudeDegrees>
            </Position>
            <AltitudeMeters>138</AltitudeMeters>
            <DistanceMeters>NAN</DistanceMeters>
          </Trackpoint>
          <Trackpoint>
            <Time>2021-08-10T11:16:15.000Z</Time>
            <Position>
              <LatitudeDegrees>43.137063682079315185546875</LatitudeDegrees>
              <LongitudeDegrees>-1.6656370460987091064453125</LongitudeDegrees>
            </Position>
            <AltitudeMeters>138</AltitudeMeters>
            <DistanceMeters>NAN</DistanceMeters>
          </Trackpoint>
          <Trackpoint>
            <Time>2021-08-10T11:16:16.000Z</Time>
            <Position>
              <LatitudeDegrees>43.13708891160786151885986328125</LatitudeDegrees>
              <LongitudeDegrees>-1.66564081795513629913330078125</LongitudeDegrees>
            </Position>
            <AltitudeMeters>138</AltitudeMeters>
            <DistanceMeters>NAN</DistanceMeters>
          </Trackpoint>
          <Trackpoint>
            <Time>2021-08-10T11:16:20.000Z</Time>
            <Position>
              <LatitudeDegrees>43.137225620448589324951171875</LatitudeDegrees>
              <LongitudeDegrees>-1.66566185653209686279296875</LongitudeDegrees>
            </Position>
            <AltitudeMeters>138</AltitudeMeters>
            <DistanceMeters>NAN</DistanceMeters>
          </Trackpoint>
          <Trackpoint>
            <Time>2021-08-10T11:16:22.000Z</Time>
            <Position>
              <LatitudeDegrees>43.13729996792972087860107421875</LatitudeDegrees>
              <LongitudeDegrees>-1.66566646657884120941162109375</LongitudeDegrees>
            </Position>
            <AltitudeMeters>138</AltitudeMeters>
            <DistanceMeters>NAN</DistanceMeters>
          </Trackpoint>
          <Trackpoint>
            <Time>2021-08-10T11:16:27.000Z</Time>
            <Position>
              <LatitudeDegrees>43.13747229985892772674560546875</LatitudeDegrees>
              <LongitudeDegrees>-1.66567417792975902557373046875</LongitudeDegrees>
            </Position>
            <AltitudeMeters>138</AltitudeMeters>
            <DistanceMeters>NAN</DistanceMeters>
          </Trackpoint>
          <Trackpoint>
            <Time>2021-08-10T11:16:33.000Z</Time>
            <Position>
              <LatitudeDegrees>43.1377194821834564208984375</LatitudeDegrees>
              <LongitudeDegrees>-1.665686331689357757568359375</LongitudeDegrees>
            </Position>
            <AltitudeMeters>138</AltitudeMeters>
            <DistanceMeters>NAN</DistanceMeters>
          </Trackpoint>
          <Trackpoint>
            <Time>2021-08-10T11:16:34.000Z</Time>
            <Position>
              <LatitudeDegrees>43.13776080496609210968017578125</LatitudeDegrees>
              <LongitudeDegrees>-1.665686331689357757568359375</LongitudeDegrees>
            </Position>
            <AltitudeMeters>138</AltitudeMeters>
            <DistanceMeters>NAN</DistanceMeters>
          </Trackpoint>
          <Trackpoint>
            <Time>2021-08-10T11:16:40.000Z</Time>
            <Position>
              <LatitudeDegrees>43.13801527954638004302978515625</LatitudeDegrees>
              <LongitudeDegrees>-1.66571457870304584503173828125</LongitudeDegrees>
            </Position>
            <AltitudeMeters>137.8000030517578125</AltitudeMeters>
            <DistanceMeters>NAN</DistanceMeters>
          </Trackpoint>
          <Trackpoint>
            <Time>2021-08-10T11:16:41.000Z</Time>
            <Position>
              <LatitudeDegrees>43.1380552612245082855224609375</LatitudeDegrees>
              <LongitudeDegrees>-1.6657170094549655914306640625</LongitudeDegrees>
            </Position>
            <AltitudeMeters>137.8000030517578125</AltitudeMeters>
            <DistanceMeters>NAN</DistanceMeters>
          </Trackpoint>
          <Trackpoint>
            <Time>2021-08-10T11:16:42.000Z</Time>
            <Position>
              <LatitudeDegrees>43.1380934827029705047607421875</LatitudeDegrees>
              <LongitudeDegrees>-1.665721200406551361083984375</LongitudeDegrees>
            </Position>
            <AltitudeMeters>137.8000030517578125</AltitudeMeters>
            <DistanceMeters>NAN</DistanceMeters>
          </Trackpoint>
          <Trackpoint>
            <Time>2021-08-10T11:16:43.000Z</Time>
            <Position>
              <LatitudeDegrees>43.13813581131398677825927734375</LatitudeDegrees>
              <LongitudeDegrees>-1.66572748683393001556396484375</LongitudeDegrees>
            </Position>
            <AltitudeMeters>137.8000030517578125</AltitudeMeters>
            <DistanceMeters>NAN</DistanceMeters>
          </Trackpoint>
          <Trackpoint>
            <Time>2021-08-10T11:16:46.000Z</Time>
            <Position>
              <LatitudeDegrees>43.1382480449974536895751953125</LatitudeDegrees>
              <LongitudeDegrees>-1.66572229005396366119384765625</LongitudeDegrees>
            </Position>
            <AltitudeMeters>137.8000030517578125</AltitudeMeters>
            <DistanceMeters>NAN</DistanceMeters>
          </Trackpoint>
          <Trackpoint>
            <Time>2021-08-10T11:16:47.000Z</Time>
            <Position>
              <LatitudeDegrees>43.1382862664759159088134765625</LatitudeDegrees>
              <LongitudeDegrees>-1.665726564824581146240234375</LongitudeDegrees>
            </Position>
            <AltitudeMeters>137.8000030517578125</AltitudeMeters>
            <DistanceMeters>NAN</DistanceMeters>
          </Trackpoint>
          <Trackpoint>
            <Time>2021-08-10T11:16:48.000Z</Time>
            <Position>
              <LatitudeDegrees>43.13831962645053863525390625</LatitudeDegrees>
              <LongitudeDegrees>-1.66573452763259410858154296875</LongitudeDegrees>
            </Position>
            <AltitudeMeters>137.8000030517578125</AltitudeMeters>
            <DistanceMeters>NAN</DistanceMeters>
          </Trackpoint>
          <Trackpoint>
            <Time>2021-08-10T11:16:49.000Z</Time>
            <Position>
              <LatitudeDegrees>43.1383543275296688079833984375</LatitudeDegrees>
              <LongitudeDegrees>-1.66573603637516498565673828125</LongitudeDegrees>
            </Position>
            <AltitudeMeters>137.8000030517578125</AltitudeMeters>
            <DistanceMeters>NAN</DistanceMeters>
          </Trackpoint>
          <Trackpoint>
            <Time>2021-08-10T11:16:50.000Z</Time>
            <Position>
              <LatitudeDegrees>43.13838911242783069610595703125</LatitudeDegrees>
              <LongitudeDegrees>-1.66574056260287761688232421875</LongitudeDegrees>
            </Position>
            <AltitudeMeters>137.8000030517578125</AltitudeMeters>
            <DistanceMeters>NAN</DistanceMeters>
          </Trackpoint>
          <Trackpoint>
            <Time>2021-08-10T11:16:51.000Z</Time>
            <Position>
              <LatitudeDegrees>43.138422556221485137939453125</LatitudeDegrees>
              <LongitudeDegrees>-1.6657481901347637176513671875</LongitudeDegrees>
            </Position>
            <AltitudeMeters>137.600006103515625</AltitudeMeters>
            <DistanceMeters>NAN</DistanceMeters>
          </Trackpoint>
          <Trackpoint>
            <Time>2021-08-10T11:16:52.000Z</Time>
            <Position>
              <LatitudeDegrees>43.13845641911029815673828125</LatitudeDegrees>
              <LongitudeDegrees>-1.66574961505830287933349609375</LongitudeDegrees>
            </Position>
            <AltitudeMeters>137.600006103515625</AltitudeMeters>
            <DistanceMeters>NAN</DistanceMeters>
          </Trackpoint>
          <Trackpoint>
            <Time>2021-08-10T11:16:53.000Z</Time>
            <Position>
              <LatitudeDegrees>43.13848986290395259857177734375</LatitudeDegrees>
              <LongitudeDegrees>-1.665748693048954010009765625</LongitudeDegrees>
            </Position>
            <AltitudeMeters>137.600006103515625</AltitudeMeters>
            <DistanceMeters>NAN</DistanceMeters>
          </Trackpoint>
          <Trackpoint>
            <Time>2021-08-10T11:16:54.000Z</Time>
            <Position>
              <LatitudeDegrees>43.1385241448879241943359375</LatitudeDegrees>
              <LongitudeDegrees>-1.6657478548586368560791015625</LongitudeDegrees>
            </Position>
            <AltitudeMeters>137.600006103515625</AltitudeMeters>
            <DistanceMeters>NAN</DistanceMeters>
          </Trackpoint>
          <Trackpoint>
            <Time>2021-08-10T11:16:55.000Z</Time>
            <Position>
              <LatitudeDegrees>43.13856580294668674468994140625</LatitudeDegrees>
              <LongitudeDegrees>-1.6657502017915248870849609375</LongitudeDegrees>
            </Position>
            <AltitudeMeters>137.600006103515625</AltitudeMeters>
            <DistanceMeters>NAN</DistanceMeters>
          </Trackpoint>
          <Trackpoint>
            <Time>2021-08-10T11:16:56.000Z</Time>
            <Position>
              <LatitudeDegrees>43.13859589397907257080078125</LatitudeDegrees>
              <LongitudeDegrees>-1.665751039981842041015625</LongitudeDegrees>
            </Position>
            <AltitudeMeters>137.600006103515625</AltitudeMeters>
            <DistanceMeters>NAN</DistanceMeters>
          </Trackpoint>
          <Trackpoint>
            <Time>2021-08-10T11:16:57.000Z</Time>
            <Position>
              <LatitudeDegrees>43.13863101415336132049560546875</LatitudeDegrees>
              <LongitudeDegrees>-1.6657632775604724884033203125</LongitudeDegrees>
            </Position>
            <AltitudeMeters>137.600006103515625</AltitudeMeters>
            <DistanceMeters>NAN</DistanceMeters>
          </Trackpoint>
          <Trackpoint>
            <Time>2021-08-10T11:17:00.000Z</Time>
            <Position>
              <LatitudeDegrees>43.138728328049182891845703125</LatitudeDegrees>
              <LongitudeDegrees>-1.66580258868634700775146484375</LongitudeDegrees>
            </Position>
            <AltitudeMeters>137.600006103515625</AltitudeMeters>
            <DistanceMeters>NAN</DistanceMeters>
          </Trackpoint>
          <Trackpoint>
            <Time>2021-08-10T11:17:06.000Z</Time>
            <Position>
              <LatitudeDegrees>43.13894634135067462921142578125</LatitudeDegrees>
              <LongitudeDegrees>-1.66590887121856212615966796875</LongitudeDegrees>
            </Position>
            <AltitudeMeters>137.600006103515625</AltitudeMeters>
            <DistanceMeters>NAN</DistanceMeters>
          </Trackpoint>
          <Trackpoint>
            <Time>2021-08-10T11:17:07.000Z</Time>
            <Position>
              <LatitudeDegrees>43.1389829702675342559814453125</LatitudeDegrees>
              <LongitudeDegrees>-1.6659191809594631195068359375</LongitudeDegrees>
            </Position>
            <AltitudeMeters>137.600006103515625</AltitudeMeters>
            <DistanceMeters>NAN</DistanceMeters>
          </Trackpoint>
          <Trackpoint>
            <Time>2021-08-10T11:17:13.000Z</Time>
            <Position>
              <LatitudeDegrees>43.13919696025550365447998046875</LatitudeDegrees>
              <LongitudeDegrees>-1.6660288162529468536376953125</LongitudeDegrees>
            </Position>
            <AltitudeMeters>137.600006103515625</AltitudeMeters>
            <DistanceMeters>NAN</DistanceMeters>
          </Trackpoint>
          <Trackpoint>
            <Time>2021-08-10T11:17:19.000Z</Time>
            <Position>
              <LatitudeDegrees>43.13940684311091899871826171875</LatitudeDegrees>
              <LongitudeDegrees>-1.66615077294409275054931640625</LongitudeDegrees>
            </Position>
            <AltitudeMeters>137.399993896484375</AltitudeMeters>
            <DistanceMeters>NAN</DistanceMeters>
          </Trackpoint>
          <Trackpoint>
            <Time>2021-08-10T11:17:23.000Z</Time>
            <Position>
              <LatitudeDegrees>43.13954539597034454345703125</LatitudeDegrees>
              <LongitudeDegrees>-1.666258312761783599853515625</LongitudeDegrees>
            </Position>
            <AltitudeMeters>137.399993896484375</AltitudeMeters>
            <DistanceMeters>NAN</DistanceMeters>
          </Trackpoint>
          <Trackpoint>
            <Time>2021-08-10T11:17:25.000Z</Time>
            <Position>
              <LatitudeDegrees>43.13959945924580097198486328125</LatitudeDegrees>
              <LongitudeDegrees>-1.6663044132292270660400390625</LongitudeDegrees>
            </Position>
            <AltitudeMeters>137.1999969482421875</AltitudeMeters>
            <DistanceMeters>NAN</DistanceMeters>
          </Trackpoint>
          <Trackpoint>
            <Time>2021-08-10T11:17:26.000Z</Time>
            <Position>
              <LatitudeDegrees>43.13962896354496479034423828125</LatitudeDegrees>
              <LongitudeDegrees>-1.6663245297968387603759765625</LongitudeDegrees>
            </Position>
            <AltitudeMeters>137.1999969482421875</AltitudeMeters>
            <DistanceMeters>NAN</DistanceMeters>
          </Trackpoint>
          <Trackpoint>
            <Time>2021-08-10T11:17:27.000Z</Time>
            <Position>
              <LatitudeDegrees>43.13966299407184123992919921875</LatitudeDegrees>
              <LongitudeDegrees>-1.6663476638495922088623046875</LongitudeDegrees>
            </Position>
            <AltitudeMeters>137.1999969482421875</AltitudeMeters>
            <DistanceMeters>NAN</DistanceMeters>
          </Trackpoint>
          <Trackpoint>
            <Time>2021-08-10T11:17:28.000Z</Time>
            <Position>
              <LatitudeDegrees>43.13968528993427753448486328125</LatitudeDegrees>
              <LongitudeDegrees>-1.66636501438915729522705078125</LongitudeDegrees>
            </Position>
            <AltitudeMeters>137.1999969482421875</AltitudeMeters>
            <DistanceMeters>NAN</DistanceMeters>
          </Trackpoint>
          <Trackpoint>
            <Time>2021-08-10T11:17:29.000Z</Time>
            <Position>
              <LatitudeDegrees>43.13971278257668018341064453125</LatitudeDegrees>
              <LongitudeDegrees>-1.666383706033229827880859375</LongitudeDegrees>
            </Position>
            <AltitudeMeters>137.1999969482421875</AltitudeMeters>
            <DistanceMeters>NAN</DistanceMeters>
          </Trackpoint>
          <Trackpoint>
            <Time>2021-08-10T11:17:30.000Z</Time>
            <Position>
              <LatitudeDegrees>43.13974413089454174041748046875</LatitudeDegrees>
              <LongitudeDegrees>-1.66639418341219425201416015625</LongitudeDegrees>
            </Position>
            <AltitudeMeters>137.1999969482421875</AltitudeMeters>
            <DistanceMeters>NAN</DistanceMeters>
          </Trackpoint>
          <Trackpoint>
            <Time>2021-08-10T11:17:31.000Z</Time>
            <Position>
              <LatitudeDegrees>43.13977614976465702056884765625</LatitudeDegrees>
              <LongitudeDegrees>-1.6664202511310577392578125</LongitudeDegrees>
            </Position>
            <AltitudeMeters>137.1999969482421875</AltitudeMeters>
            <DistanceMeters>NAN</DistanceMeters>
          </Trackpoint>
          <Trackpoint>
            <Time>2021-08-10T11:17:32.000Z</Time>
            <Position>
              <LatitudeDegrees>43.13980691134929656982421875</LatitudeDegrees>
              <LongitudeDegrees>-1.66644263081252574920654296875</LongitudeDegrees>
            </Position>
            <AltitudeMeters>137.1999969482421875</AltitudeMeters>
            <DistanceMeters>NAN</DistanceMeters>
          </Trackpoint>
          <Trackpoint>
            <Time>2021-08-10T11:17:33.000Z</Time>
            <Position>
              <LatitudeDegrees>43.13983666710555553436279296875</LatitudeDegrees>
              <LongitudeDegrees>-1.66646023280918598175048828125</LongitudeDegrees>
            </Position>
            <AltitudeMeters>137.1999969482421875</AltitudeMeters>
            <DistanceMeters>NAN</DistanceMeters>
          </Trackpoint>
          <Trackpoint>
            <Time>2021-08-10T11:17:34.000Z</Time>
            <Position>
              <LatitudeDegrees>43.1398660875856876373291015625</LatitudeDegrees>
              <LongitudeDegrees>-1.6664743982255458831787109375</LongitudeDegrees>
            </Position>
            <AltitudeMeters>137.1999969482421875</AltitudeMeters>
            <DistanceMeters>NAN</DistanceMeters>
          </Trackpoint>
          <Trackpoint>
            <Time>2021-08-10T11:17:35.000Z</Time>
            <Position>
              <LatitudeDegrees>43.13989684917032718658447265625</LatitudeDegrees>
              <LongitudeDegrees>-1.66648755781352519989013671875</LongitudeDegrees>
            </Position>
            <AltitudeMeters>137.1999969482421875</AltitudeMeters>
            <DistanceMeters>NAN</DistanceMeters>
          </Trackpoint>
          <Trackpoint>
            <Time>2021-08-10T11:17:36.000Z</Time>
            <Position>
              <LatitudeDegrees>43.13992601819336414337158203125</LatitudeDegrees>
              <LongitudeDegrees>-1.6665025614202022552490234375</LongitudeDegrees>
            </Position>
            <AltitudeMeters>137</AltitudeMeters>
            <DistanceMeters>NAN</DistanceMeters>
          </Trackpoint>
          <Trackpoint>
            <Time>2021-08-10T11:17:38.000Z</Time>
            <Position>
              <LatitudeDegrees>43.139986284077167510986328125</LatitudeDegrees>
              <LongitudeDegrees>-1.6665384359657764434814453125</LongitudeDegrees>
            </Position>
            <AltitudeMeters>137</AltitudeMeters>
            <DistanceMeters>NAN</DistanceMeters>
          </Trackpoint>
          <Trackpoint>
            <Time>2021-08-10T11:17:40.000Z</Time>
            <Position>
              <LatitudeDegrees>43.1400558538734912872314453125</LatitudeDegrees>
              <LongitudeDegrees>-1.6665692813694477081298828125</LongitudeDegrees>
            </Position>
            <AltitudeMeters>137</AltitudeMeters>
            <DistanceMeters>NAN</DistanceMeters>
          </Trackpoint>
          <Trackpoint>
            <Time>2021-08-10T11:17:41.000Z</Time>
            <Position>
              <LatitudeDegrees>43.140091560781002044677734375</LatitudeDegrees>
              <LongitudeDegrees>-1.66658855974674224853515625</LongitudeDegrees>
            </Position>
            <AltitudeMeters>137</AltitudeMeters>
            <DistanceMeters>NAN</DistanceMeters>
          </Trackpoint>
          <Trackpoint>
            <Time>2021-08-10T11:17:42.000Z</Time>
            <Position>
              <LatitudeDegrees>43.14012986607849597930908203125</LatitudeDegrees>
              <LongitudeDegrees>-1.66661194525659084320068359375</LongitudeDegrees>
            </Position>
            <AltitudeMeters>137</AltitudeMeters>
            <DistanceMeters>NAN</DistanceMeters>
          </Trackpoint>
          <Trackpoint>
            <Time>2021-08-10T11:17:44.000Z</Time>
            <Position>
              <LatitudeDegrees>43.140201531350612640380859375</LatitudeDegrees>
              <LongitudeDegrees>-1.66665150783956050872802734375</LongitudeDegrees>
            </Position>
            <AltitudeMeters>137</AltitudeMeters>
            <DistanceMeters>NAN</DistanceMeters>
          </Trackpoint>
          <Trackpoint>
            <Time>2021-08-10T11:17:50.000Z</Time>
            <Position>
              <LatitudeDegrees>43.14041753299534320831298828125</LatitudeDegrees>
              <LongitudeDegrees>-1.666680090129375457763671875</LongitudeDegrees>
            </Position>
            <AltitudeMeters>137</AltitudeMeters>
            <DistanceMeters>NAN</DistanceMeters>
          </Trackpoint>
          <Trackpoint>
            <Time>2021-08-10T11:17:51.000Z</Time>
            <Position>
              <LatitudeDegrees>43.14044334925711154937744140625</LatitudeDegrees>
              <LongitudeDegrees>-1.66667631827294826507568359375</LongitudeDegrees>
            </Position>
            <AltitudeMeters>137</AltitudeMeters>
            <DistanceMeters>NAN</DistanceMeters>
          </Trackpoint>
          <Trackpoint>
            <Time>2021-08-10T11:17:52.000Z</Time>
            <Position>
              <LatitudeDegrees>43.14047536812722682952880859375</LatitudeDegrees>
              <LongitudeDegrees>-1.666678749024868011474609375</LongitudeDegrees>
            </Position>
            <AltitudeMeters>137</AltitudeMeters>
            <DistanceMeters>NAN</DistanceMeters>
          </Trackpoint>
          <Trackpoint>
            <Time>2021-08-10T11:17:53.000Z</Time>
            <Position>
              <LatitudeDegrees>43.14051861874759197235107421875</LatitudeDegrees>
              <LongitudeDegrees>-1.66668285615742206573486328125</LongitudeDegrees>
            </Position>
            <AltitudeMeters>137</AltitudeMeters>
            <DistanceMeters>NAN</DistanceMeters>
          </Trackpoint>
          <Trackpoint>
            <Time>2021-08-10T11:17:54.000Z</Time>
            <Position>
              <LatitudeDegrees>43.14055524766445159912109375</LatitudeDegrees>
              <LongitudeDegrees>-1.6666883043944835662841796875</LongitudeDegrees>
            </Position>
            <AltitudeMeters>136.8000030517578125</AltitudeMeters>
            <DistanceMeters>NAN</DistanceMeters>
          </Trackpoint>
          <Trackpoint>
            <Time>2021-08-10T11:17:58.000Z</Time>
            <Position>
              <LatitudeDegrees>43.14069665037095546722412109375</LatitudeDegrees>
              <LongitudeDegrees>-1.66670322418212890625</LongitudeDegrees>
            </Position>
            <AltitudeMeters>136.8000030517578125</AltitudeMeters>
            <DistanceMeters>NAN</DistanceMeters>
          </Trackpoint>
          <Trackpoint>
            <Time>2021-08-10T11:18:05.000Z</Time>
            <Position>
              <LatitudeDegrees>43.14095129258930683135986328125</LatitudeDegrees>
              <LongitudeDegrees>-1.66668738238513469696044921875</LongitudeDegrees>
            </Position>
            <AltitudeMeters>136.8000030517578125</AltitudeMeters>
            <DistanceMeters>NAN</DistanceMeters>
          </Trackpoint>
          <Trackpoint>
            <Time>2021-08-10T11:18:14.000Z</Time>
            <Position>
              <LatitudeDegrees>43.14129017293453216552734375</LatitudeDegrees>
              <LongitudeDegrees>-1.666733063757419586181640625</LongitudeDegrees>
            </Position>
            <AltitudeMeters>136.600006103515625</AltitudeMeters>
            <DistanceMeters>NAN</DistanceMeters>
          </Trackpoint>
          <Trackpoint>
            <Time>2021-08-10T11:18:17.000Z</Time>
            <Position>
              <LatitudeDegrees>43.14140726812183856964111328125</LatitudeDegrees>
              <LongitudeDegrees>-1.66677304543554782867431640625</LongitudeDegrees>
            </Position>
            <AltitudeMeters>136.399993896484375</AltitudeMeters>
            <DistanceMeters>NAN</DistanceMeters>
          </Trackpoint>
          <Trackpoint>
            <Time>2021-08-10T11:18:18.000Z</Time>
            <Position>
              <LatitudeDegrees>43.14144129864871501922607421875</LatitudeDegrees>
              <LongitudeDegrees>-1.6667825169861316680908203125</LongitudeDegrees>
            </Position>
            <AltitudeMeters>136.399993896484375</AltitudeMeters>
            <DistanceMeters>NAN</DistanceMeters>
          </Trackpoint>
          <Trackpoint>
            <Time>2021-08-10T11:18:19.000Z</Time>
            <Position>
              <LatitudeDegrees>43.14147298224270343780517578125</LatitudeDegrees>
              <LongitudeDegrees>-1.666801460087299346923828125</LongitudeDegrees>
            </Position>
            <AltitudeMeters>136.399993896484375</AltitudeMeters>
            <DistanceMeters>NAN</DistanceMeters>
          </Trackpoint>
          <Trackpoint>
            <Time>2021-08-10T11:18:20.000Z</Time>
            <Position>
              <LatitudeDegrees>43.14151346683502197265625</LatitudeDegrees>
              <LongitudeDegrees>-1.66681545786559581756591796875</LongitudeDegrees>
            </Position>
            <AltitudeMeters>136.399993896484375</AltitudeMeters>
            <DistanceMeters>NAN</DistanceMeters>
          </Trackpoint>
          <Trackpoint>
            <Time>2021-08-10T11:18:21.000Z</Time>
            <Position>
              <LatitudeDegrees>43.14154774881899356842041015625</LatitudeDegrees>
              <LongitudeDegrees>-1.6668274439871311187744140625</LongitudeDegrees>
            </Position>
            <AltitudeMeters>136.399993896484375</AltitudeMeters>
            <DistanceMeters>NAN</DistanceMeters>
          </Trackpoint>
          <Trackpoint>
            <Time>2021-08-10T11:18:22.000Z</Time>
            <Position>
              <LatitudeDegrees>43.1415840424597263336181640625</LatitudeDegrees>
              <LongitudeDegrees>-1.6668411903083324432373046875</LongitudeDegrees>
            </Position>
            <AltitudeMeters>136.1999969482421875</AltitudeMeters>
            <DistanceMeters>NAN</DistanceMeters>
          </Trackpoint>
          <Trackpoint>
            <Time>2021-08-10T11:18:28.000Z</Time>
            <Position>
              <LatitudeDegrees>43.14179032109677791595458984375</LatitudeDegrees>
              <LongitudeDegrees>-1.6669575311243534088134765625</LongitudeDegrees>
            </Position>
            <AltitudeMeters>136.1999969482421875</AltitudeMeters>
            <DistanceMeters>NAN</DistanceMeters>
          </Trackpoint>
          <Trackpoint>
            <Time>2021-08-10T11:18:36.000Z</Time>
            <Position>
              <LatitudeDegrees>43.14207949675619602203369140625</LatitudeDegrees>
              <LongitudeDegrees>-1.66711385361850261688232421875</LongitudeDegrees>
            </Position>
            <AltitudeMeters>135.8000030517578125</AltitudeMeters>
            <DistanceMeters>NAN</DistanceMeters>
          </Trackpoint>
          <Trackpoint>
            <Time>2021-08-10T11:18:38.000Z</Time>
            <Position>
              <LatitudeDegrees>43.14215543679893016815185546875</LatitudeDegrees>
              <LongitudeDegrees>-1.66714671067893505096435546875</LongitudeDegrees>
            </Position>
            <AltitudeMeters>135.8000030517578125</AltitudeMeters>
            <DistanceMeters>NAN</DistanceMeters>
          </Trackpoint>
          <Trackpoint>
            <Time>2021-08-10T11:18:39.000Z</Time>
            <Position>
              <LatitudeDegrees>43.1421828456223011016845703125</LatitudeDegrees>
              <LongitudeDegrees>-1.6671632230281829833984375</LongitudeDegrees>
            </Position>
            <AltitudeMeters>135.8000030517578125</AltitudeMeters>
            <DistanceMeters>NAN</DistanceMeters>
          </Trackpoint>
          <Trackpoint>
            <Time>2021-08-10T11:18:40.000Z</Time>
            <Position>
              <LatitudeDegrees>43.14221897162497043609619140625</LatitudeDegrees>
              <LongitudeDegrees>-1.667177639901638031005859375</LongitudeDegrees>
            </Position>
            <AltitudeMeters>135.8000030517578125</AltitudeMeters>
            <DistanceMeters>NAN</DistanceMeters>
          </Trackpoint>
          <Trackpoint>
            <Time>2021-08-10T11:18:41.000Z</Time>
            <Position>
              <LatitudeDegrees>43.14225585199892520904541015625</LatitudeDegrees>
              <LongitudeDegrees>-1.66719264350831508636474609375</LongitudeDegrees>
            </Position>
            <AltitudeMeters>135.600006103515625</AltitudeMeters>
            <DistanceMeters>NAN</DistanceMeters>
          </Trackpoint>
          <Trackpoint>
            <Time>2021-08-10T11:18:42.000Z</Time>
            <Position>
              <LatitudeDegrees>43.14229927025735378265380859375</LatitudeDegrees>
              <LongitudeDegrees>-1.667211838066577911376953125</LongitudeDegrees>
            </Position>
            <AltitudeMeters>135.600006103515625</AltitudeMeters>
            <DistanceMeters>NAN</DistanceMeters>
          </Trackpoint>
          <Trackpoint>
            <Time>2021-08-10T11:18:43.000Z</Time>
            <Position>
              <LatitudeDegrees>43.14232642762362957000732421875</LatitudeDegrees>
              <LongitudeDegrees>-1.66722600348293781280517578125</LongitudeDegrees>
            </Position>
            <AltitudeMeters>135.600006103515625</AltitudeMeters>
            <DistanceMeters>NAN</DistanceMeters>
          </Trackpoint>
          <Trackpoint>
            <Time>2021-08-10T11:18:44.000Z</Time>
            <Position>
              <LatitudeDegrees>43.14236850477755069732666015625</LatitudeDegrees>
              <LongitudeDegrees>-1.6672458685934543609619140625</LongitudeDegrees>
            </Position>
            <AltitudeMeters>135.600006103515625</AltitudeMeters>
            <DistanceMeters>NAN</DistanceMeters>
          </Trackpoint>
          <Trackpoint>
            <Time>2021-08-10T11:18:47.000Z</Time>
            <Position>
              <LatitudeDegrees>43.142459280788898468017578125</LatitudeDegrees>
              <LongitudeDegrees>-1.6673025302588939666748046875</LongitudeDegrees>
            </Position>
            <AltitudeMeters>135.8000030517578125</AltitudeMeters>
            <DistanceMeters>NAN</DistanceMeters>
          </Trackpoint>
          <Trackpoint>
            <Time>2021-08-10T11:18:50.000Z</Time>
            <Position>
              <LatitudeDegrees>43.14254636876285076141357421875</LatitudeDegrees>
              <LongitudeDegrees>-1.6673933900892734527587890625</LongitudeDegrees>
            </Position>
            <AltitudeMeters>135.8000030517578125</AltitudeMeters>
            <DistanceMeters>NAN</DistanceMeters>
          </Trackpoint>
          <Trackpoint>
            <Time>2021-08-10T11:18:51.000Z</Time>
            <Position>
              <LatitudeDegrees>43.1425781361758708953857421875</LatitudeDegrees>
              <LongitudeDegrees>-1.667421050369739532470703125</LongitudeDegrees>
            </Position>
            <AltitudeMeters>135.8000030517578125</AltitudeMeters>
            <DistanceMeters>NAN</DistanceMeters>
          </Trackpoint>
          <Trackpoint>
            <Time>2021-08-10T11:18:52.000Z</Time>
            <Position>
              <LatitudeDegrees>43.14262029714882373809814453125</LatitudeDegrees>
              <LongitudeDegrees>-1.66745357215404510498046875</LongitudeDegrees>
            </Position>
            <AltitudeMeters>135.8000030517578125</AltitudeMeters>
            <DistanceMeters>NAN</DistanceMeters>
          </Trackpoint>
          <Trackpoint>
            <Time>2021-08-10T11:19:11.000Z</Time>
            <Position>
              <LatitudeDegrees>43.1431162543594837188720703125</LatitudeDegrees>
              <LongitudeDegrees>-1.668202914297580718994140625</LongitudeDegrees>
            </Position>
            <AltitudeMeters>136</AltitudeMeters>
            <DistanceMeters>NAN</DistanceMeters>
          </Trackpoint>
          <Trackpoint>
            <Time>2021-08-10T11:19:12.000Z</Time>
            <Position>
              <LatitudeDegrees>43.14316797070205211639404296875</LatitudeDegrees>
              <LongitudeDegrees>-1.6681638546288013458251953125</LongitudeDegrees>
            </Position>
            <AltitudeMeters>135.8000030517578125</AltitudeMeters>
            <DistanceMeters>NAN</DistanceMeters>
          </Trackpoint>
          <Trackpoint>
            <Time>2021-08-10T11:19:13.000Z</Time>
            <Position>
              <LatitudeDegrees>43.14319990575313568115234375</LatitudeDegrees>
              <LongitudeDegrees>-1.6681849770247936248779296875</LongitudeDegrees>
            </Position>
            <AltitudeMeters>135.8000030517578125</AltitudeMeters>
            <DistanceMeters>NAN</DistanceMeters>
          </Trackpoint>
          <Trackpoint>
            <Time>2021-08-10T11:19:14.000Z</Time>
            <Position>
              <LatitudeDegrees>43.14323100261390209197998046875</LatitudeDegrees>
              <LongitudeDegrees>-1.66822713799774646759033203125</LongitudeDegrees>
            </Position>
            <AltitudeMeters>135.8000030517578125</AltitudeMeters>
            <DistanceMeters>NAN</DistanceMeters>
          </Trackpoint>
          <Trackpoint>
            <Time>2021-08-10T11:19:15.000Z</Time>
            <Position>
              <LatitudeDegrees>43.1432604230940341949462890625</LatitudeDegrees>
              <LongitudeDegrees>-1.66825144551694393157958984375</LongitudeDegrees>
            </Position>
            <AltitudeMeters>135.600006103515625</AltitudeMeters>
            <DistanceMeters>NAN</DistanceMeters>
          </Trackpoint>
          <Trackpoint>
            <Time>2021-08-10T11:19:16.000Z</Time>
            <Position>
              <LatitudeDegrees>43.1432765163481235504150390625</LatitudeDegrees>
              <LongitudeDegrees>-1.668272316455841064453125</LongitudeDegrees>
            </Position>
            <AltitudeMeters>135.399993896484375</AltitudeMeters>
            <DistanceMeters>NAN</DistanceMeters>
          </Trackpoint>
          <Trackpoint>
            <Time>2021-08-10T11:19:18.000Z</Time>
            <Position>
              <LatitudeDegrees>43.14334818162024021148681640625</LatitudeDegrees>
              <LongitudeDegrees>-1.66832738555967807769775390625</LongitudeDegrees>
            </Position>
            <AltitudeMeters>135.1999969482421875</AltitudeMeters>
            <DistanceMeters>NAN</DistanceMeters>
          </Trackpoint>
          <Trackpoint>
            <Time>2021-08-10T11:19:19.000Z</Time>
            <Position>
              <LatitudeDegrees>43.14335891045629978179931640625</LatitudeDegrees>
              <LongitudeDegrees>-1.6683589853346347808837890625</LongitudeDegrees>
            </Position>
            <AltitudeMeters>135.1999969482421875</AltitudeMeters>
            <DistanceMeters>NAN</DistanceMeters>
          </Trackpoint>
          <Trackpoint>
            <Time>2021-08-10T11:19:20.000Z</Time>
            <Position>
              <LatitudeDegrees>43.14338439144194126129150390625</LatitudeDegrees>
              <LongitudeDegrees>-1.66838672943413257598876953125</LongitudeDegrees>
            </Position>
            <AltitudeMeters>135.1999969482421875</AltitudeMeters>
            <DistanceMeters>NAN</DistanceMeters>
          </Trackpoint>
          <Trackpoint>
            <Time>2021-08-10T11:19:21.000Z</Time>
            <Position>
              <LatitudeDegrees>43.14340987242758274078369140625</LatitudeDegrees>
              <LongitudeDegrees>-1.66841623373329639434814453125</LongitudeDegrees>
            </Position>
            <AltitudeMeters>135</AltitudeMeters>
            <DistanceMeters>NAN</DistanceMeters>
          </Trackpoint>
          <Trackpoint>
            <Time>2021-08-10T11:19:22.000Z</Time>
            <Position>
              <LatitudeDegrees>43.14344960264861583709716796875</LatitudeDegrees>
              <LongitudeDegrees>-1.66844003833830356597900390625</LongitudeDegrees>
            </Position>
            <AltitudeMeters>135</AltitudeMeters>
            <DistanceMeters>NAN</DistanceMeters>
          </Trackpoint>
          <Trackpoint>
            <Time>2021-08-10T11:19:23.000Z</Time>
            <Position>
              <LatitudeDegrees>43.14347089268267154693603515625</LatitudeDegrees>
              <LongitudeDegrees>-1.66846920736134052276611328125</LongitudeDegrees>
            </Position>
            <AltitudeMeters>134.8000030517578125</AltitudeMeters>
            <DistanceMeters>NAN</DistanceMeters>
          </Trackpoint>
          <Trackpoint>
            <Time>2021-08-10T11:19:24.000Z</Time>
            <Position>
              <LatitudeDegrees>43.14350358210504055023193359375</LatitudeDegrees>
              <LongitudeDegrees>-1.6684949398040771484375</LongitudeDegrees>
            </Position>
            <AltitudeMeters>134.8000030517578125</AltitudeMeters>
            <DistanceMeters>NAN</DistanceMeters>
          </Trackpoint>
          <Trackpoint>
            <Time>2021-08-10T11:19:25.000Z</Time>
            <Position>
              <LatitudeDegrees>43.14352856017649173736572265625</LatitudeDegrees>
              <LongitudeDegrees>-1.66851178742945194244384765625</LongitudeDegrees>
            </Position>
            <AltitudeMeters>134.8000030517578125</AltitudeMeters>
            <DistanceMeters>NAN</DistanceMeters>
          </Trackpoint>
          <Trackpoint>
            <Time>2021-08-10T11:19:26.000Z</Time>
            <Position>
              <LatitudeDegrees>43.1435615010559558868408203125</LatitudeDegrees>
              <LongitudeDegrees>-1.6685279645025730133056640625</LongitudeDegrees>
            </Position>
            <AltitudeMeters>134.8000030517578125</AltitudeMeters>
            <DistanceMeters>NAN</DistanceMeters>
          </Trackpoint>
          <Trackpoint>
            <Time>2021-08-10T11:19:27.000Z</Time>
            <Position>
              <LatitudeDegrees>43.14358807168900966644287109375</LatitudeDegrees>
              <LongitudeDegrees>-1.668545901775360107421875</LongitudeDegrees>
            </Position>
            <AltitudeMeters>134.8000030517578125</AltitudeMeters>
            <DistanceMeters>NAN</DistanceMeters>
          </Trackpoint>
          <Trackpoint>
            <Time>2021-08-10T11:19:28.000Z</Time>
            <Position>
              <LatitudeDegrees>43.143609277904033660888671875</LatitudeDegrees>
              <LongitudeDegrees>-1.668568365275859832763671875</LongitudeDegrees>
            </Position>
            <AltitudeMeters>134.8000030517578125</AltitudeMeters>
            <DistanceMeters>NAN</DistanceMeters>
          </Trackpoint>
          <Trackpoint>
            <Time>2021-08-10T11:19:29.000Z</Time>
            <Position>
              <LatitudeDegrees>43.143637441098690032958984375</LatitudeDegrees>
              <LongitudeDegrees>-1.66858571581542491912841796875</LongitudeDegrees>
            </Position>
            <AltitudeMeters>134.8000030517578125</AltitudeMeters>
            <DistanceMeters>NAN</DistanceMeters>
          </Trackpoint>
          <Trackpoint>
            <Time>2021-08-10T11:19:30.000Z</Time>
            <Position>
              <LatitudeDegrees>43.14366568811237812042236328125</LatitudeDegrees>
              <LongitudeDegrees>-1.6686037369072437286376953125</LongitudeDegrees>
            </Position>
            <AltitudeMeters>134.8000030517578125</AltitudeMeters>
            <DistanceMeters>NAN</DistanceMeters>
          </Trackpoint>
          <Trackpoint>
            <Time>2021-08-10T11:19:31.000Z</Time>
            <Position>
              <LatitudeDegrees>43.1436875648796558380126953125</LatitudeDegrees>
              <LongitudeDegrees>-1.66861773468554019927978515625</LongitudeDegrees>
            </Position>
            <AltitudeMeters>134.8000030517578125</AltitudeMeters>
            <DistanceMeters>NAN</DistanceMeters>
          </Trackpoint>
          <Trackpoint>
            <Time>2021-08-10T11:19:32.000Z</Time>
            <Position>
              <LatitudeDegrees>43.1437123753130435943603515625</LatitudeDegrees>
              <LongitudeDegrees>-1.6686288826167583465576171875</LongitudeDegrees>
            </Position>
            <AltitudeMeters>134.8000030517578125</AltitudeMeters>
            <DistanceMeters>NAN</DistanceMeters>
          </Trackpoint>
          <Trackpoint>
            <Time>2021-08-10T11:19:33.000Z</Time>
            <Position>
              <LatitudeDegrees>43.14373810775578022003173828125</LatitudeDegrees>
              <LongitudeDegrees>-1.66864438913762569427490234375</LongitudeDegrees>
            </Position>
            <AltitudeMeters>134.8000030517578125</AltitudeMeters>
            <DistanceMeters>NAN</DistanceMeters>
          </Trackpoint>
          <Trackpoint>
            <Time>2021-08-10T11:19:34.000Z</Time>
            <Position>
              <LatitudeDegrees>43.14376811496913433074951171875</LatitudeDegrees>
              <LongitudeDegrees>-1.66866056621074676513671875</LongitudeDegrees>
            </Position>
            <AltitudeMeters>134.8000030517578125</AltitudeMeters>
            <DistanceMeters>NAN</DistanceMeters>
          </Trackpoint>
          <Trackpoint>
            <Time>2021-08-10T11:19:35.000Z</Time>
            <Position>
              <LatitudeDegrees>43.143793679773807525634765625</LatitudeDegrees>
              <LongitudeDegrees>-1.668677665293216705322265625</LongitudeDegrees>
            </Position>
            <AltitudeMeters>134.8000030517578125</AltitudeMeters>
            <DistanceMeters>NAN</DistanceMeters>
          </Trackpoint>
          <Trackpoint>
            <Time>2021-08-10T11:19:39.000Z</Time>
            <Position>
              <LatitudeDegrees>43.14390356652438640594482421875</LatitudeDegrees>
              <LongitudeDegrees>-1.66873700916767120361328125</LongitudeDegrees>
            </Position>
            <AltitudeMeters>134.8000030517578125</AltitudeMeters>
            <DistanceMeters>NAN</DistanceMeters>
          </Trackpoint>
          <Trackpoint>
            <Time>2021-08-10T11:19:40.000Z</Time>
            <Position>
              <LatitudeDegrees>43.1439329870045185089111328125</LatitudeDegrees>
              <LongitudeDegrees>-1.66874480433762073516845703125</LongitudeDegrees>
            </Position>
            <AltitudeMeters>134.600006103515625</AltitudeMeters>
            <DistanceMeters>NAN</DistanceMeters>
          </Trackpoint>
          <Trackpoint>
            <Time>2021-08-10T11:19:41.000Z</Time>
            <Position>
              <LatitudeDegrees>43.14396223984658718109130859375</LatitudeDegrees>
              <LongitudeDegrees>-1.66875016875565052032470703125</LongitudeDegrees>
            </Position>
            <AltitudeMeters>134.600006103515625</AltitudeMeters>
            <DistanceMeters>NAN</DistanceMeters>
          </Trackpoint>
          <Trackpoint>
            <Time>2021-08-10T11:19:42.000Z</Time>
            <Position>
              <LatitudeDegrees>43.14398713409900665283203125</LatitudeDegrees>
              <LongitudeDegrees>-1.66875687427818775177001953125</LongitudeDegrees>
            </Position>
            <AltitudeMeters>134.399993896484375</AltitudeMeters>
            <DistanceMeters>NAN</DistanceMeters>
          </Trackpoint>
          <Trackpoint>
            <Time>2021-08-10T11:19:43.000Z</Time>
            <Position>
              <LatitudeDegrees>43.14400859177112579345703125</LatitudeDegrees>
              <LongitudeDegrees>-1.66876559145748615264892578125</LongitudeDegrees>
            </Position>
            <AltitudeMeters>134.399993896484375</AltitudeMeters>
            <DistanceMeters>NAN</DistanceMeters>
          </Trackpoint>
          <Trackpoint>
            <Time>2021-08-10T11:19:44.000Z</Time>
            <Position>
              <LatitudeDegrees>43.1440345756709575653076171875</LatitudeDegrees>
              <LongitudeDegrees>-1.6687717102468013763427734375</LongitudeDegrees>
            </Position>
            <AltitudeMeters>134.399993896484375</AltitudeMeters>
            <DistanceMeters>NAN</DistanceMeters>
          </Trackpoint>
          <Trackpoint>
            <Time>2021-08-10T11:19:45.000Z</Time>
            <Position>
              <LatitudeDegrees>43.1440630741417407989501953125</LatitudeDegrees>
              <LongitudeDegrees>-1.6687779128551483154296875</LongitudeDegrees>
            </Position>
            <AltitudeMeters>134.399993896484375</AltitudeMeters>
            <DistanceMeters>NAN</DistanceMeters>
          </Trackpoint>
          <Trackpoint>
            <Time>2021-08-10T11:19:47.000Z</Time>
            <Position>
              <LatitudeDegrees>43.14412116073071956634521484375</LatitudeDegrees>
              <LongitudeDegrees>-1.668773554265499114990234375</LongitudeDegrees>
            </Position>
            <AltitudeMeters>134.399993896484375</AltitudeMeters>
            <DistanceMeters>NAN</DistanceMeters>
          </Trackpoint>
          <Trackpoint>
            <Time>2021-08-10T11:19:51.000Z</Time>
            <Position>
              <LatitudeDegrees>43.1442400999367237091064453125</LatitudeDegrees>
              <LongitudeDegrees>-1.6687606461346149444580078125</LongitudeDegrees>
            </Position>
            <AltitudeMeters>134.399993896484375</AltitudeMeters>
            <DistanceMeters>NAN</DistanceMeters>
          </Trackpoint>
          <Trackpoint>
            <Time>2021-08-10T11:19:56.000Z</Time>
            <Position>
              <LatitudeDegrees>43.1443819217383861541748046875</LatitudeDegrees>
              <LongitudeDegrees>-1.668755114078521728515625</LongitudeDegrees>
            </Position>
            <AltitudeMeters>134.399993896484375</AltitudeMeters>
            <DistanceMeters>NAN</DistanceMeters>
          </Trackpoint>
          <Trackpoint>
            <Time>2021-08-10T11:19:58.000Z</Time>
            <Position>
              <LatitudeDegrees>43.14443145878612995147705078125</LatitudeDegrees>
              <LongitudeDegrees>-1.668754778802394866943359375</LongitudeDegrees>
            </Position>
            <AltitudeMeters>134.399993896484375</AltitudeMeters>
            <DistanceMeters>NAN</DistanceMeters>
          </Trackpoint>
          <Trackpoint>
            <Time>2021-08-10T11:19:59.000Z</Time>
            <Position>
              <LatitudeDegrees>43.14445325173437595367431640625</LatitudeDegrees>
              <LongitudeDegrees>-1.6687532700598239898681640625</LongitudeDegrees>
            </Position>
            <AltitudeMeters>134.399993896484375</AltitudeMeters>
            <DistanceMeters>NAN</DistanceMeters>
          </Trackpoint>
          <Trackpoint>
            <Time>2021-08-10T11:20:00.000Z</Time>
            <Position>
              <LatitudeDegrees>43.14447261393070220947265625</LatitudeDegrees>
              <LongitudeDegrees>-1.66875578463077545166015625</LongitudeDegrees>
            </Position>
            <AltitudeMeters>134.399993896484375</AltitudeMeters>
            <DistanceMeters>NAN</DistanceMeters>
          </Trackpoint>
          <Trackpoint>
            <Time>2021-08-10T11:20:01.000Z</Time>
            <Position>
              <LatitudeDegrees>43.1444932334125041961669921875</LatitudeDegrees>
              <LongitudeDegrees>-1.66875871829688549041748046875</LongitudeDegrees>
            </Position>
            <AltitudeMeters>134.399993896484375</AltitudeMeters>
            <DistanceMeters>NAN</DistanceMeters>
          </Trackpoint>
          <Trackpoint>
            <Time>2021-08-10T11:20:02.000Z</Time>
            <Position>
              <LatitudeDegrees>43.1445153616368770599365234375</LatitudeDegrees>
              <LongitudeDegrees>-1.66875821538269519805908203125</LongitudeDegrees>
            </Position>
            <AltitudeMeters>134.399993896484375</AltitudeMeters>
            <DistanceMeters>NAN</DistanceMeters>
          </Trackpoint>
          <Trackpoint>
            <Time>2021-08-10T11:20:03.000Z</Time>
            <Position>
              <LatitudeDegrees>43.14453958533704280853271484375</LatitudeDegrees>
              <LongitudeDegrees>-1.66875385679304599761962890625</LongitudeDegrees>
            </Position>
            <AltitudeMeters>134.399993896484375</AltitudeMeters>
            <DistanceMeters>NAN</DistanceMeters>
          </Trackpoint>
          <Trackpoint>
            <Time>2021-08-10T11:20:04.000Z</Time>
            <Position>
              <LatitudeDegrees>43.14456255175173282623291015625</LatitudeDegrees>
              <LongitudeDegrees>-1.6687537729740142822265625</LongitudeDegrees>
            </Position>
            <AltitudeMeters>134.399993896484375</AltitudeMeters>
            <DistanceMeters>NAN</DistanceMeters>
          </Trackpoint>
          <Trackpoint>
            <Time>2021-08-10T11:20:08.000Z</Time>
            <Position>
              <LatitudeDegrees>43.14467553980648517608642578125</LatitudeDegrees>
              <LongitudeDegrees>-1.668760143220424652099609375</LongitudeDegrees>
            </Position>
            <AltitudeMeters>134.1999969482421875</AltitudeMeters>
            <DistanceMeters>NAN</DistanceMeters>
          </Trackpoint>
          <Trackpoint>
            <Time>2021-08-10T11:20:13.000Z</Time>
            <Position>
              <LatitudeDegrees>43.14480361528694629669189453125</LatitudeDegrees>
              <LongitudeDegrees>-1.66877162642776966094970703125</LongitudeDegrees>
            </Position>
            <AltitudeMeters>134.1999969482421875</AltitudeMeters>
            <DistanceMeters>NAN</DistanceMeters>
          </Trackpoint>
          <Trackpoint>
            <Time>2021-08-10T11:20:14.000Z</Time>
            <Position>
              <LatitudeDegrees>43.14482389949262142181396484375</LatitudeDegrees>
              <LongitudeDegrees>-1.6687713749706745147705078125</LongitudeDegrees>
            </Position>
            <AltitudeMeters>134.1999969482421875</AltitudeMeters>
            <DistanceMeters>NAN</DistanceMeters>
          </Trackpoint>
          <Trackpoint>
            <Time>2021-08-10T11:20:15.000Z</Time>
            <Position>
              <LatitudeDegrees>43.1448434293270111083984375</LatitudeDegrees>
              <LongitudeDegrees>-1.6687727160751819610595703125</LongitudeDegrees>
            </Position>
            <AltitudeMeters>134.1999969482421875</AltitudeMeters>
            <DistanceMeters>NAN</DistanceMeters>
          </Trackpoint>
          <Trackpoint>
            <Time>2021-08-10T11:20:16.000Z</Time>
            <Position>
              <LatitudeDegrees>43.14486329443752765655517578125</LatitudeDegrees>
              <LongitudeDegrees>-1.6687800921499729156494140625</LongitudeDegrees>
            </Position>
            <AltitudeMeters>134.1999969482421875</AltitudeMeters>
            <DistanceMeters>NAN</DistanceMeters>
          </Trackpoint>
          <Trackpoint>
            <Time>2021-08-10T11:20:17.000Z</Time>
            <Position>
              <LatitudeDegrees>43.14488139934837818145751953125</LatitudeDegrees>
              <LongitudeDegrees>-1.66878797113895416259765625</LongitudeDegrees>
            </Position>
            <AltitudeMeters>134.1999969482421875</AltitudeMeters>
            <DistanceMeters>NAN</DistanceMeters>
          </Trackpoint>
          <Trackpoint>
            <Time>2021-08-10T11:20:18.000Z</Time>
            <Position>
              <LatitudeDegrees>43.1448979116976261138916015625</LatitudeDegrees>
              <LongitudeDegrees>-1.6687924973666667938232421875</LongitudeDegrees>
            </Position>
            <AltitudeMeters>134.1999969482421875</AltitudeMeters>
            <DistanceMeters>NAN</DistanceMeters>
          </Trackpoint>
          <Trackpoint>
            <Time>2021-08-10T11:20:19.000Z</Time>
            <Position>
              <LatitudeDegrees>43.14491744153201580047607421875</LatitudeDegrees>
              <LongitudeDegrees>-1.668803729116916656494140625</LongitudeDegrees>
            </Position>
            <AltitudeMeters>134.1999969482421875</AltitudeMeters>
            <DistanceMeters>NAN</DistanceMeters>
          </Trackpoint>
          <Trackpoint>
            <Time>2021-08-10T11:20:20.000Z</Time>
            <Position>
              <LatitudeDegrees>43.14493529498577117919921875</LatitudeDegrees>
              <LongitudeDegrees>-1.66880599223077297210693359375</LongitudeDegrees>
            </Position>
            <AltitudeMeters>134.1999969482421875</AltitudeMeters>
            <DistanceMeters>NAN</DistanceMeters>
          </Trackpoint>
          <Trackpoint>
            <Time>2021-08-10T11:20:21.000Z</Time>
            <Position>
              <LatitudeDegrees>43.14495163969695568084716796875</LatitudeDegrees>
              <LongitudeDegrees>-1.6688028909265995025634765625</LongitudeDegrees>
            </Position>
            <AltitudeMeters>134.1999969482421875</AltitudeMeters>
            <DistanceMeters>NAN</DistanceMeters>
          </Trackpoint>
          <Trackpoint>
            <Time>2021-08-10T11:20:22.000Z</Time>
            <Position>
              <LatitudeDegrees>43.1449673138558864593505859375</LatitudeDegrees>
              <LongitudeDegrees>-1.668799705803394317626953125</LongitudeDegrees>
            </Position>
            <AltitudeMeters>134.1999969482421875</AltitudeMeters>
            <DistanceMeters>NAN</DistanceMeters>
          </Trackpoint>
          <Trackpoint>
            <Time>2021-08-10T11:20:23.000Z</Time>
            <Position>
              <LatitudeDegrees>43.14498298801481723785400390625</LatitudeDegrees>
              <LongitudeDegrees>-1.668799035251140594482421875</LongitudeDegrees>
            </Position>
            <AltitudeMeters>134.1999969482421875</AltitudeMeters>
            <DistanceMeters>NAN</DistanceMeters>
          </Trackpoint>
          <Trackpoint>
            <Time>2021-08-10T11:20:24.000Z</Time>
            <Position>
              <LatitudeDegrees>43.145000673830509185791015625</LatitudeDegrees>
              <LongitudeDegrees>-1.6688005439937114715576171875</LongitudeDegrees>
            </Position>
            <AltitudeMeters>134</AltitudeMeters>
            <DistanceMeters>NAN</DistanceMeters>
          </Trackpoint>
          <Trackpoint>
            <Time>2021-08-10T11:20:25.000Z</Time>
            <Position>
              <LatitudeDegrees>43.14501819200813770294189453125</LatitudeDegrees>
              <LongitudeDegrees>-1.66880582459270954132080078125</LongitudeDegrees>
            </Position>
            <AltitudeMeters>134</AltitudeMeters>
            <DistanceMeters>NAN</DistanceMeters>
          </Trackpoint>
          <Trackpoint>
            <Time>2021-08-10T11:20:26.000Z</Time>
            <Position>
              <LatitudeDegrees>43.14503378234803676605224609375</LatitudeDegrees>
              <LongitudeDegrees>-1.66880364529788494110107421875</LongitudeDegrees>
            </Position>
            <AltitudeMeters>134</AltitudeMeters>
            <DistanceMeters>NAN</DistanceMeters>
          </Trackpoint>
          <Trackpoint>
            <Time>2021-08-10T11:20:27.000Z</Time>
            <Position>
              <LatitudeDegrees>43.14504970796406269073486328125</LatitudeDegrees>
              <LongitudeDegrees>-1.66880062781274318695068359375</LongitudeDegrees>
            </Position>
            <AltitudeMeters>134</AltitudeMeters>
            <DistanceMeters>NAN</DistanceMeters>
          </Trackpoint>
          <Trackpoint>
            <Time>2021-08-10T11:20:28.000Z</Time>
            <Position>
              <LatitudeDegrees>43.14506546594202518463134765625</LatitudeDegrees>
              <LongitudeDegrees>-1.66880280710756778717041015625</LongitudeDegrees>
            </Position>
            <AltitudeMeters>134</AltitudeMeters>
            <DistanceMeters>NAN</DistanceMeters>
          </Trackpoint>
          <Trackpoint>
            <Time>2021-08-10T11:20:30.000Z</Time>
            <Position>
              <LatitudeDegrees>43.14511156640946865081787109375</LatitudeDegrees>
              <LongitudeDegrees>-1.66880481876432895660400390625</LongitudeDegrees>
            </Position>
            <AltitudeMeters>134</AltitudeMeters>
            <DistanceMeters>NAN</DistanceMeters>
          </Trackpoint>
          <Trackpoint>
            <Time>2021-08-10T11:20:39.000Z</Time>
            <Position>
              <LatitudeDegrees>43.14530007541179656982421875</LatitudeDegrees>
              <LongitudeDegrees>-1.6688163019716739654541015625</LongitudeDegrees>
            </Position>
            <AltitudeMeters>134.1999969482421875</AltitudeMeters>
            <DistanceMeters>NAN</DistanceMeters>
          </Trackpoint>
          <Trackpoint>
            <Time>2021-08-10T11:20:41.000Z</Time>
            <Position>
              <LatitudeDegrees>43.1453458406031131744384765625</LatitudeDegrees>
              <LongitudeDegrees>-1.66882242076098918914794921875</LongitudeDegrees>
            </Position>
            <AltitudeMeters>134.1999969482421875</AltitudeMeters>
            <DistanceMeters>NAN</DistanceMeters>
          </Trackpoint>
          <Trackpoint>
            <Time>2021-08-10T11:20:44.000Z</Time>
            <Position>
              <LatitudeDegrees>43.14540593884885311126708984375</LatitudeDegrees>
              <LongitudeDegrees>-1.66882149875164031982421875</LongitudeDegrees>
            </Position>
            <AltitudeMeters>134.1999969482421875</AltitudeMeters>
            <DistanceMeters>NAN</DistanceMeters>
          </Trackpoint>
          <Trackpoint>
            <Time>2021-08-10T11:20:45.000Z</Time>
            <Position>
              <LatitudeDegrees>43.1454155780375003814697265625</LatitudeDegrees>
              <LongitudeDegrees>-1.66882057674229145050048828125</LongitudeDegrees>
            </Position>
            <AltitudeMeters>134.1999969482421875</AltitudeMeters>
            <DistanceMeters>NAN</DistanceMeters>
          </Trackpoint>
          <Trackpoint>
            <Time>2021-08-10T11:20:50.000Z</Time>
            <Position>
              <LatitudeDegrees>43.14539034850895404815673828125</LatitudeDegrees>
              <LongitudeDegrees>-1.6688196547329425811767578125</LongitudeDegrees>
            </Position>
            <AltitudeMeters>134.1999969482421875</AltitudeMeters>
            <DistanceMeters>NAN</DistanceMeters>
          </Trackpoint>
          <Trackpoint>
            <Time>2021-08-10T11:21:15.000Z</Time>
            <Position>
              <LatitudeDegrees>43.14544315449893474578857421875</LatitudeDegrees>
              <LongitudeDegrees>-1.66885158978402614593505859375</LongitudeDegrees>
            </Position>
            <AltitudeMeters>134</AltitudeMeters>
            <DistanceMeters>NAN</DistanceMeters>
          </Trackpoint>
          <Trackpoint>
            <Time>2021-08-10T11:21:19.000Z</Time>
            <Position>
              <LatitudeDegrees>43.145523369312286376953125</LatitudeDegrees>
              <LongitudeDegrees>-1.6688572056591510772705078125</LongitudeDegrees>
            </Position>
            <AltitudeMeters>133.8000030517578125</AltitudeMeters>
            <DistanceMeters>NAN</DistanceMeters>
          </Trackpoint>
          <Trackpoint>
            <Time>2021-08-10T11:21:22.000Z</Time>
            <Position>
              <LatitudeDegrees>43.1455837190151214599609375</LatitudeDegrees>
              <LongitudeDegrees>-1.6688686050474643707275390625</LongitudeDegrees>
            </Position>
            <AltitudeMeters>133.8000030517578125</AltitudeMeters>
            <DistanceMeters>NAN</DistanceMeters>
          </Trackpoint>
          <Trackpoint>
            <Time>2021-08-10T11:21:26.000Z</Time>
            <Position>
              <LatitudeDegrees>43.14567047171294689178466796875</LatitudeDegrees>
              <LongitudeDegrees>-1.66888712905347347259521484375</LongitudeDegrees>
            </Position>
            <AltitudeMeters>134</AltitudeMeters>
            <DistanceMeters>NAN</DistanceMeters>
          </Trackpoint>
          <Trackpoint>
            <Time>2021-08-10T11:21:27.000Z</Time>
            <Position>
              <LatitudeDegrees>43.14569042064249515533447265625</LatitudeDegrees>
              <LongitudeDegrees>-1.66888444684445858001708984375</LongitudeDegrees>
            </Position>
            <AltitudeMeters>134</AltitudeMeters>
            <DistanceMeters>NAN</DistanceMeters>
          </Trackpoint>
          <Trackpoint>
            <Time>2021-08-10T11:21:28.000Z</Time>
            <Position>
              <LatitudeDegrees>43.145706094801425933837890625</LatitudeDegrees>
              <LongitudeDegrees>-1.66888981126248836517333984375</LongitudeDegrees>
            </Position>
            <AltitudeMeters>134</AltitudeMeters>
            <DistanceMeters>NAN</DistanceMeters>
          </Trackpoint>
          <Trackpoint>
            <Time>2021-08-10T11:21:29.000Z</Time>
            <Position>
              <LatitudeDegrees>43.1457205116748809814453125</LatitudeDegrees>
              <LongitudeDegrees>-1.668901629745960235595703125</LongitudeDegrees>
            </Position>
            <AltitudeMeters>134</AltitudeMeters>
            <DistanceMeters>NAN</DistanceMeters>
          </Trackpoint>
          <Trackpoint>
            <Time>2021-08-10T11:21:30.000Z</Time>
            <Position>
              <LatitudeDegrees>43.14573903568089008331298828125</LatitudeDegrees>
              <LongitudeDegrees>-1.66889886371791362762451171875</LongitudeDegrees>
            </Position>
            <AltitudeMeters>134</AltitudeMeters>
            <DistanceMeters>NAN</DistanceMeters>
          </Trackpoint>
          <Trackpoint>
            <Time>2021-08-10T11:21:33.000Z</Time>
            <Position>
              <LatitudeDegrees>43.14582419581711292266845703125</LatitudeDegrees>
              <LongitudeDegrees>-1.66889534331858158111572265625</LongitudeDegrees>
            </Position>
            <AltitudeMeters>134</AltitudeMeters>
            <DistanceMeters>NAN</DistanceMeters>
          </Trackpoint>
          <Trackpoint>
            <Time>2021-08-10T11:21:34.000Z</Time>
            <Position>
              <LatitudeDegrees>43.1458541192114353179931640625</LatitudeDegrees>
              <LongitudeDegrees>-1.668887548148632049560546875</LongitudeDegrees>
            </Position>
            <AltitudeMeters>134</AltitudeMeters>
            <DistanceMeters>NAN</DistanceMeters>
          </Trackpoint>
          <Trackpoint>
            <Time>2021-08-10T11:21:35.000Z</Time>
            <Position>
              <LatitudeDegrees>43.14588488079607486724853515625</LatitudeDegrees>
              <LongitudeDegrees>-1.66888930834829807281494140625</LongitudeDegrees>
            </Position>
            <AltitudeMeters>134.1999969482421875</AltitudeMeters>
            <DistanceMeters>NAN</DistanceMeters>
          </Trackpoint>
          <Trackpoint>
            <Time>2021-08-10T11:21:36.000Z</Time>
            <Position>
              <LatitudeDegrees>43.1459163129329681396484375</LatitudeDegrees>
              <LongitudeDegrees>-1.66889919899404048919677734375</LongitudeDegrees>
            </Position>
            <AltitudeMeters>134.1999969482421875</AltitudeMeters>
            <DistanceMeters>NAN</DistanceMeters>
          </Trackpoint>
          <Trackpoint>
            <Time>2021-08-10T11:21:38.000Z</Time>
            <Position>
              <LatitudeDegrees>43.14597959630191326141357421875</LatitudeDegrees>
              <LongitudeDegrees>-1.66891646571457386016845703125</LongitudeDegrees>
            </Position>
            <AltitudeMeters>134.1999969482421875</AltitudeMeters>
            <DistanceMeters>NAN</DistanceMeters>
          </Trackpoint>
          <Trackpoint>
            <Time>2021-08-10T11:21:43.000Z</Time>
            <Position>
              <LatitudeDegrees>43.14614857546985149383544921875</LatitudeDegrees>
              <LongitudeDegrees>-1.6689400188624858856201171875</LongitudeDegrees>
            </Position>
            <AltitudeMeters>134.1999969482421875</AltitudeMeters>
            <DistanceMeters>NAN</DistanceMeters>
          </Trackpoint>
          <Trackpoint>
            <Time>2021-08-10T11:21:51.000Z</Time>
            <Position>
              <LatitudeDegrees>43.1464656628668308258056640625</LatitudeDegrees>
              <LongitudeDegrees>-1.6689262725412845611572265625</LongitudeDegrees>
            </Position>
            <AltitudeMeters>133.8000030517578125</AltitudeMeters>
            <DistanceMeters>NAN</DistanceMeters>
          </Trackpoint>
          <Trackpoint>
            <Time>2021-08-10T11:21:57.000Z</Time>
            <Position>
              <LatitudeDegrees>43.14665350131690502166748046875</LatitudeDegrees>
              <LongitudeDegrees>-1.6689051501452922821044921875</LongitudeDegrees>
            </Position>
            <AltitudeMeters>133.399993896484375</AltitudeMeters>
            <DistanceMeters>NAN</DistanceMeters>
          </Trackpoint>
          <Trackpoint>
            <Time>2021-08-10T11:21:58.000Z</Time>
            <Position>
              <LatitudeDegrees>43.1466859392821788787841796875</LatitudeDegrees>
              <LongitudeDegrees>-1.6688957624137401580810546875</LongitudeDegrees>
            </Position>
            <AltitudeMeters>133.399993896484375</AltitudeMeters>
            <DistanceMeters>NAN</DistanceMeters>
          </Trackpoint>
          <Trackpoint>
            <Time>2021-08-10T11:21:59.000Z</Time>
            <Position>
              <LatitudeDegrees>43.14671896398067474365234375</LatitudeDegrees>
              <LongitudeDegrees>-1.6688816808164119720458984375</LongitudeDegrees>
            </Position>
            <AltitudeMeters>133.399993896484375</AltitudeMeters>
            <DistanceMeters>NAN</DistanceMeters>
          </Trackpoint>
          <Trackpoint>
            <Time>2021-08-10T11:22:00.000Z</Time>
            <Position>
              <LatitudeDegrees>43.1467546708881855010986328125</LatitudeDegrees>
              <LongitudeDegrees>-1.66887153871357440948486328125</LongitudeDegrees>
            </Position>
            <AltitudeMeters>133.399993896484375</AltitudeMeters>
            <DistanceMeters>NAN</DistanceMeters>
          </Trackpoint>
          <Trackpoint>
            <Time>2021-08-10T11:22:06.000Z</Time>
            <Position>
              <LatitudeDegrees>43.14697989262640476226806640625</LatitudeDegrees>
              <LongitudeDegrees>-1.66883356869220733642578125</LongitudeDegrees>
            </Position>
            <AltitudeMeters>133.1999969482421875</AltitudeMeters>
            <DistanceMeters>NAN</DistanceMeters>
          </Trackpoint>
          <Trackpoint>
            <Time>2021-08-10T11:22:09.000Z</Time>
            <Position>
              <LatitudeDegrees>43.147078044712543487548828125</LatitudeDegrees>
              <LongitudeDegrees>-1.66881873272359371185302734375</LongitudeDegrees>
            </Position>
            <AltitudeMeters>133.1999969482421875</AltitudeMeters>
            <DistanceMeters>NAN</DistanceMeters>
          </Trackpoint>
          <Trackpoint>
            <Time>2021-08-10T11:22:10.000Z</Time>
            <Position>
              <LatitudeDegrees>43.14710712991654872894287109375</LatitudeDegrees>
              <LongitudeDegrees>-1.66881806217133998870849609375</LongitudeDegrees>
            </Position>
            <AltitudeMeters>133.1999969482421875</AltitudeMeters>
            <DistanceMeters>NAN</DistanceMeters>
          </Trackpoint>
          <Trackpoint>
            <Time>2021-08-10T11:22:11.000Z</Time>
            <Position>
              <LatitudeDegrees>43.14713780768215656280517578125</LatitudeDegrees>
              <LongitudeDegrees>-1.66881370358169078826904296875</LongitudeDegrees>
            </Position>
            <AltitudeMeters>133.1999969482421875</AltitudeMeters>
            <DistanceMeters>NAN</DistanceMeters>
          </Trackpoint>
          <Trackpoint>
            <Time>2021-08-10T11:22:15.000Z</Time>
            <Position>
              <LatitudeDegrees>43.14727409742772579193115234375</LatitudeDegrees>
              <LongitudeDegrees>-1.66877212934195995330810546875</LongitudeDegrees>
            </Position>
            <AltitudeMeters>133</AltitudeMeters>
            <DistanceMeters>NAN</DistanceMeters>
          </Trackpoint>
          <Trackpoint>
            <Time>2021-08-10T11:22:16.000Z</Time>
            <Position>
              <LatitudeDegrees>43.1473082117736339569091796875</LatitudeDegrees>
              <LongitudeDegrees>-1.66876860894262790679931640625</LongitudeDegrees>
            </Position>
            <AltitudeMeters>133</AltitudeMeters>
            <DistanceMeters>NAN</DistanceMeters>
          </Trackpoint>
          <Trackpoint>
            <Time>2021-08-10T11:22:18.000Z</Time>
            <Position>
              <LatitudeDegrees>43.14738188870251178741455078125</LatitudeDegrees>
              <LongitudeDegrees>-1.66876710020005702972412109375</LongitudeDegrees>
            </Position>
            <AltitudeMeters>133</AltitudeMeters>
            <DistanceMeters>NAN</DistanceMeters>
          </Trackpoint>
          <Trackpoint>
            <Time>2021-08-10T11:22:22.000Z</Time>
            <Position>
              <LatitudeDegrees>43.14752756617963314056396484375</LatitudeDegrees>
              <LongitudeDegrees>-1.6687725484371185302734375</LongitudeDegrees>
            </Position>
            <AltitudeMeters>132.8000030517578125</AltitudeMeters>
            <DistanceMeters>NAN</DistanceMeters>
          </Trackpoint>
          <Trackpoint>
            <Time>2021-08-10T11:22:27.000Z</Time>
            <Position>
              <LatitudeDegrees>43.1477088667452335357666015625</LatitudeDegrees>
              <LongitudeDegrees>-1.668771542608737945556640625</LongitudeDegrees>
            </Position>
            <AltitudeMeters>132.399993896484375</AltitudeMeters>
            <DistanceMeters>NAN</DistanceMeters>
          </Trackpoint>
          <Trackpoint>
            <Time>2021-08-10T11:22:30.000Z</Time>
            <Position>
              <LatitudeDegrees>43.14780685119330883026123046875</LatitudeDegrees>
              <LongitudeDegrees>-1.66878771968185901641845703125</LongitudeDegrees>
            </Position>
            <AltitudeMeters>132.1999969482421875</AltitudeMeters>
            <DistanceMeters>NAN</DistanceMeters>
          </Trackpoint>
          <Trackpoint>
            <Time>2021-08-10T11:22:31.000Z</Time>
            <Position>
              <LatitudeDegrees>43.1478340923786163330078125</LatitudeDegrees>
              <LongitudeDegrees>-1.668797694146633148193359375</LongitudeDegrees>
            </Position>
            <AltitudeMeters>132.1999969482421875</AltitudeMeters>
            <DistanceMeters>NAN</DistanceMeters>
          </Trackpoint>
          <Trackpoint>
            <Time>2021-08-10T11:22:32.000Z</Time>
            <Position>
              <LatitudeDegrees>43.147862590849399566650390625</LatitudeDegrees>
              <LongitudeDegrees>-1.66880699805915355682373046875</LongitudeDegrees>
            </Position>
            <AltitudeMeters>132.1999969482421875</AltitudeMeters>
            <DistanceMeters>NAN</DistanceMeters>
          </Trackpoint>
          <Trackpoint>
            <Time>2021-08-10T11:22:33.000Z</Time>
            <Position>
              <LatitudeDegrees>43.1478969566524028778076171875</LatitudeDegrees>
              <LongitudeDegrees>-1.66882292367517948150634765625</LongitudeDegrees>
            </Position>
            <AltitudeMeters>132.1999969482421875</AltitudeMeters>
            <DistanceMeters>NAN</DistanceMeters>
          </Trackpoint>
          <Trackpoint>
            <Time>2021-08-10T11:22:38.000Z</Time>
            <Position>
              <LatitudeDegrees>43.14805948175489902496337890625</LatitudeDegrees>
              <LongitudeDegrees>-1.6688642464578151702880859375</LongitudeDegrees>
            </Position>
            <AltitudeMeters>132.1999969482421875</AltitudeMeters>
            <DistanceMeters>NAN</DistanceMeters>
          </Trackpoint>
          <Trackpoint>
            <Time>2021-08-10T11:22:40.000Z</Time>
            <Position>
              <LatitudeDegrees>43.1481246091425418853759765625</LatitudeDegrees>
              <LongitudeDegrees>-1.668888218700885772705078125</LongitudeDegrees>
            </Position>
            <AltitudeMeters>132.1999969482421875</AltitudeMeters>
            <DistanceMeters>NAN</DistanceMeters>
          </Trackpoint>
          <Trackpoint>
            <Time>2021-08-10T11:22:43.000Z</Time>
            <Position>
              <LatitudeDegrees>43.14823617227375507354736328125</LatitudeDegrees>
              <LongitudeDegrees>-1.6689259372651576995849609375</LongitudeDegrees>
            </Position>
            <AltitudeMeters>132</AltitudeMeters>
            <DistanceMeters>NAN</DistanceMeters>
          </Trackpoint>
          <Trackpoint>
            <Time>2021-08-10T11:22:51.000Z</Time>
            <Position>
              <LatitudeDegrees>43.1485286168754100799560546875</LatitudeDegrees>
              <LongitudeDegrees>-1.66906197555363178253173828125</LongitudeDegrees>
            </Position>
            <AltitudeMeters>131.8000030517578125</AltitudeMeters>
            <DistanceMeters>NAN</DistanceMeters>
          </Trackpoint>
          <Trackpoint>
            <Time>2021-08-10T11:22:55.000Z</Time>
            <Position>
              <LatitudeDegrees>43.14867152832448482513427734375</LatitudeDegrees>
              <LongitudeDegrees>-1.669096089899539947509765625</LongitudeDegrees>
            </Position>
            <AltitudeMeters>131.600006103515625</AltitudeMeters>
            <DistanceMeters>NAN</DistanceMeters>
          </Trackpoint>
          <Trackpoint>
            <Time>2021-08-10T11:22:56.000Z</Time>
            <Position>
              <LatitudeDegrees>43.14870874397456645965576171875</LatitudeDegrees>
              <LongitudeDegrees>-1.66910639964044094085693359375</LongitudeDegrees>
            </Position>
            <AltitudeMeters>131.600006103515625</AltitudeMeters>
            <DistanceMeters>NAN</DistanceMeters>
          </Trackpoint>
          <Trackpoint>
            <Time>2021-08-10T11:22:59.000Z</Time>
            <Position>
              <LatitudeDegrees>43.148822151124477386474609375</LatitudeDegrees>
              <LongitudeDegrees>-1.6691478900611400604248046875</LongitudeDegrees>
            </Position>
            <AltitudeMeters>131.399993896484375</AltitudeMeters>
            <DistanceMeters>NAN</DistanceMeters>
          </Trackpoint>
          <Trackpoint>
            <Time>2021-08-10T11:23:06.000Z</Time>
            <Position>
              <LatitudeDegrees>43.14906162209808826446533203125</LatitudeDegrees>
              <LongitudeDegrees>-1.66922651231288909912109375</LongitudeDegrees>
            </Position>
            <AltitudeMeters>131.1999969482421875</AltitudeMeters>
            <DistanceMeters>NAN</DistanceMeters>
          </Trackpoint>
          <Trackpoint>
            <Time>2021-08-10T11:23:08.000Z</Time>
            <Position>
              <LatitudeDegrees>43.14912884496152400970458984375</LatitudeDegrees>
              <LongitudeDegrees>-1.6692444495856761932373046875</LongitudeDegrees>
            </Position>
            <AltitudeMeters>131</AltitudeMeters>
            <DistanceMeters>NAN</DistanceMeters>
          </Trackpoint>
          <Trackpoint>
            <Time>2021-08-10T11:23:09.000Z</Time>
            <Position>
              <LatitudeDegrees>43.14916153438389301300048828125</LatitudeDegrees>
              <LongitudeDegrees>-1.66924989782273769378662109375</LongitudeDegrees>
            </Position>
            <AltitudeMeters>131</AltitudeMeters>
            <DistanceMeters>NAN</DistanceMeters>
          </Trackpoint>
          <Trackpoint>
            <Time>2021-08-10T11:23:13.000Z</Time>
            <Position>
              <LatitudeDegrees>43.1493000872433185577392578125</LatitudeDegrees>
              <LongitudeDegrees>-1.66924956254661083221435546875</LongitudeDegrees>
            </Position>
            <AltitudeMeters>130.8000030517578125</AltitudeMeters>
            <DistanceMeters>NAN</DistanceMeters>
          </Trackpoint>
          <Trackpoint>
            <Time>2021-08-10T11:23:14.000Z</Time>
            <Position>
              <LatitudeDegrees>43.1493329443037509918212890625</LatitudeDegrees>
              <LongitudeDegrees>-1.6692484728991985321044921875</LongitudeDegrees>
            </Position>
            <AltitudeMeters>130.8000030517578125</AltitudeMeters>
            <DistanceMeters>NAN</DistanceMeters>
          </Trackpoint>
          <Trackpoint>
            <Time>2021-08-10T11:23:15.000Z</Time>
            <Position>
              <LatitudeDegrees>43.14936772920191287994384765625</LatitudeDegrees>
              <LongitudeDegrees>-1.66924838908016681671142578125</LongitudeDegrees>
            </Position>
            <AltitudeMeters>130.8000030517578125</AltitudeMeters>
            <DistanceMeters>NAN</DistanceMeters>
          </Trackpoint>
          <Trackpoint>
            <Time>2021-08-10T11:23:16.000Z</Time>
            <Position>
              <LatitudeDegrees>43.14940192736685276031494140625</LatitudeDegrees>
              <LongitudeDegrees>-1.66924453340470790863037109375</LongitudeDegrees>
            </Position>
            <AltitudeMeters>130.8000030517578125</AltitudeMeters>
            <DistanceMeters>NAN</DistanceMeters>
          </Trackpoint>
          <Trackpoint>
            <Time>2021-08-10T11:23:17.000Z</Time>
            <Position>
              <LatitudeDegrees>43.14943260513246059417724609375</LatitudeDegrees>
              <LongitudeDegrees>-1.6692364029586315155029296875</LongitudeDegrees>
            </Position>
            <AltitudeMeters>130.600006103515625</AltitudeMeters>
            <DistanceMeters>NAN</DistanceMeters>
          </Trackpoint>
          <Trackpoint>
            <Time>2021-08-10T11:23:18.000Z</Time>
            <Position>
              <LatitudeDegrees>43.1494616903364658355712890625</LatitudeDegrees>
              <LongitudeDegrees>-1.66923279874026775360107421875</LongitudeDegrees>
            </Position>
            <AltitudeMeters>130.600006103515625</AltitudeMeters>
            <DistanceMeters>NAN</DistanceMeters>
          </Trackpoint>
          <Trackpoint>
            <Time>2021-08-10T11:23:20.000Z</Time>
            <Position>
              <LatitudeDegrees>43.149522207677364349365234375</LatitudeDegrees>
              <LongitudeDegrees>-1.6692097485065460205078125</LongitudeDegrees>
            </Position>
            <AltitudeMeters>130.600006103515625</AltitudeMeters>
            <DistanceMeters>NAN</DistanceMeters>
          </Trackpoint>
          <Trackpoint>
            <Time>2021-08-10T11:23:25.000Z</Time>
            <Position>
              <LatitudeDegrees>43.149699904024600982666015625</LatitudeDegrees>
              <LongitudeDegrees>-1.66913330554962158203125</LongitudeDegrees>
            </Position>
            <AltitudeMeters>130.600006103515625</AltitudeMeters>
            <DistanceMeters>NAN</DistanceMeters>
          </Trackpoint>
          <Trackpoint>
            <Time>2021-08-10T11:23:26.000Z</Time>
            <Position>
              <LatitudeDegrees>43.1497356109321117401123046875</LatitudeDegrees>
              <LongitudeDegrees>-1.66912458837032318115234375</LongitudeDegrees>
            </Position>
            <AltitudeMeters>130.600006103515625</AltitudeMeters>
            <DistanceMeters>NAN</DistanceMeters>
          </Trackpoint>
          <Trackpoint>
            <Time>2021-08-10T11:23:27.000Z</Time>
            <Position>
              <LatitudeDegrees>43.149772323668003082275390625</LatitudeDegrees>
              <LongitudeDegrees>-1.66910958476364612579345703125</LongitudeDegrees>
            </Position>
            <AltitudeMeters>130.600006103515625</AltitudeMeters>
            <DistanceMeters>NAN</DistanceMeters>
          </Trackpoint>
          <Trackpoint>
            <Time>2021-08-10T11:23:32.000Z</Time>
            <Position>
              <LatitudeDegrees>43.149953372776508331298828125</LatitudeDegrees>
              <LongitudeDegrees>-1.66905040852725505828857421875</LongitudeDegrees>
            </Position>
            <AltitudeMeters>130.600006103515625</AltitudeMeters>
            <DistanceMeters>NAN</DistanceMeters>
          </Trackpoint>
          <Trackpoint>
            <Time>2021-08-10T11:23:33.000Z</Time>
            <Position>
              <LatitudeDegrees>43.14999083988368511199951171875</LatitudeDegrees>
              <LongitudeDegrees>-1.6690461337566375732421875</LongitudeDegrees>
            </Position>
            <AltitudeMeters>130.600006103515625</AltitudeMeters>
            <DistanceMeters>NAN</DistanceMeters>
          </Trackpoint>
          <Trackpoint>
            <Time>2021-08-10T11:23:34.000Z</Time>
            <Position>
              <LatitudeDegrees>43.15002788789570331573486328125</LatitudeDegrees>
              <LongitudeDegrees>-1.66903330944478511810302734375</LongitudeDegrees>
            </Position>
            <AltitudeMeters>130.600006103515625</AltitudeMeters>
            <DistanceMeters>NAN</DistanceMeters>
          </Trackpoint>
          <Trackpoint>
            <Time>2021-08-10T11:23:37.000Z</Time>
            <Position>
              <LatitudeDegrees>43.150143809616565704345703125</LatitudeDegrees>
              <LongitudeDegrees>-1.6689990274608135223388671875</LongitudeDegrees>
            </Position>
            <AltitudeMeters>130.600006103515625</AltitudeMeters>
            <DistanceMeters>NAN</DistanceMeters>
          </Trackpoint>
          <Trackpoint>
            <Time>2021-08-10T11:23:41.000Z</Time>
            <Position>
              <LatitudeDegrees>43.1502988748252391815185546875</LatitudeDegrees>
              <LongitudeDegrees>-1.66895158588886260986328125</LongitudeDegrees>
            </Position>
            <AltitudeMeters>130.399993896484375</AltitudeMeters>
            <DistanceMeters>NAN</DistanceMeters>
          </Trackpoint>
          <Trackpoint>
            <Time>2021-08-10T11:23:43.000Z</Time>
            <Position>
              <LatitudeDegrees>43.1503706239163875579833984375</LatitudeDegrees>
              <LongitudeDegrees>-1.66891965083777904510498046875</LongitudeDegrees>
            </Position>
            <AltitudeMeters>130.399993896484375</AltitudeMeters>
            <DistanceMeters>NAN</DistanceMeters>
          </Trackpoint>
          <Trackpoint>
            <Time>2021-08-10T11:23:49.000Z</Time>
            <Position>
              <LatitudeDegrees>43.15061151981353759765625</LatitudeDegrees>
              <LongitudeDegrees>-1.66885678656399250030517578125</LongitudeDegrees>
            </Position>
            <AltitudeMeters>130.1999969482421875</AltitudeMeters>
            <DistanceMeters>NAN</DistanceMeters>
          </Trackpoint>
          <Trackpoint>
            <Time>2021-08-10T11:23:50.000Z</Time>
            <Position>
              <LatitudeDegrees>43.1506482325494289398193359375</LatitudeDegrees>
              <LongitudeDegrees>-1.66885863058269023895263671875</LongitudeDegrees>
            </Position>
            <AltitudeMeters>130.1999969482421875</AltitudeMeters>
            <DistanceMeters>NAN</DistanceMeters>
          </Trackpoint>
          <Trackpoint>
            <Time>2021-08-10T11:23:51.000Z</Time>
            <Position>
              <LatitudeDegrees>43.1506881304085254669189453125</LatitudeDegrees>
              <LongitudeDegrees>-1.66885963641107082366943359375</LongitudeDegrees>
            </Position>
            <AltitudeMeters>130.1999969482421875</AltitudeMeters>
            <DistanceMeters>NAN</DistanceMeters>
          </Trackpoint>
          <Trackpoint>
            <Time>2021-08-10T11:23:56.000Z</Time>
            <Position>
              <LatitudeDegrees>43.15093296580016613006591796875</LatitudeDegrees>
              <LongitudeDegrees>-1.66883784346282482147216796875</LongitudeDegrees>
            </Position>
            <AltitudeMeters>130</AltitudeMeters>
            <DistanceMeters>NAN</DistanceMeters>
          </Trackpoint>
          <Trackpoint>
            <Time>2021-08-10T11:24:04.000Z</Time>
            <Position>
              <LatitudeDegrees>43.15127947367727756500244140625</LatitudeDegrees>
              <LongitudeDegrees>-1.6689433716237545013427734375</LongitudeDegrees>
            </Position>
            <AltitudeMeters>129.399993896484375</AltitudeMeters>
            <DistanceMeters>NAN</DistanceMeters>
          </Trackpoint>
          <Trackpoint>
            <Time>2021-08-10T11:24:07.000Z</Time>
            <Position>
              <LatitudeDegrees>43.15139271318912506103515625</LatitudeDegrees>
              <LongitudeDegrees>-1.668987460434436798095703125</LongitudeDegrees>
            </Position>
            <AltitudeMeters>129.1999969482421875</AltitudeMeters>
            <DistanceMeters>NAN</DistanceMeters>
          </Trackpoint>
          <Trackpoint>
            <Time>2021-08-10T11:24:08.000Z</Time>
            <Position>
              <LatitudeDegrees>43.1514309346675872802734375</LatitudeDegrees>
              <LongitudeDegrees>-1.669004894793033599853515625</LongitudeDegrees>
            </Position>
            <AltitudeMeters>129.1999969482421875</AltitudeMeters>
            <DistanceMeters>NAN</DistanceMeters>
          </Trackpoint>
          <Trackpoint>
            <Time>2021-08-10T11:24:09.000Z</Time>
            <Position>
              <LatitudeDegrees>43.151468820869922637939453125</LatitudeDegrees>
              <LongitudeDegrees>-1.66901704855263233184814453125</LongitudeDegrees>
            </Position>
            <AltitudeMeters>129.1999969482421875</AltitudeMeters>
            <DistanceMeters>NAN</DistanceMeters>
          </Trackpoint>
          <Trackpoint>
            <Time>2021-08-10T11:24:10.000Z</Time>
            <Position>
              <LatitudeDegrees>43.15150762908160686492919921875</LatitudeDegrees>
              <LongitudeDegrees>-1.6690292023122310638427734375</LongitudeDegrees>
            </Position>
            <AltitudeMeters>129.1999969482421875</AltitudeMeters>
            <DistanceMeters>NAN</DistanceMeters>
          </Trackpoint>
          <Trackpoint>
            <Time>2021-08-10T11:24:11.000Z</Time>
            <Position>
              <LatitudeDegrees>43.15154735930263996124267578125</LatitudeDegrees>
              <LongitudeDegrees>-1.669039763510227203369140625</LongitudeDegrees>
            </Position>
            <AltitudeMeters>129.1999969482421875</AltitudeMeters>
            <DistanceMeters>NAN</DistanceMeters>
          </Trackpoint>
          <Trackpoint>
            <Time>2021-08-10T11:24:12.000Z</Time>
            <Position>
              <LatitudeDegrees>43.15158851444721221923828125</LatitudeDegrees>
              <LongitudeDegrees>-1.669051833450794219970703125</LongitudeDegrees>
            </Position>
            <AltitudeMeters>129.1999969482421875</AltitudeMeters>
            <DistanceMeters>NAN</DistanceMeters>
          </Trackpoint>
          <Trackpoint>
            <Time>2021-08-10T11:24:18.000Z</Time>
            <Position>
              <LatitudeDegrees>43.15182865597307682037353515625</LatitudeDegrees>
              <LongitudeDegrees>-1.66913087479770183563232421875</LongitudeDegrees>
            </Position>
            <AltitudeMeters>129</AltitudeMeters>
            <DistanceMeters>NAN</DistanceMeters>
          </Trackpoint>
          <Trackpoint>
            <Time>2021-08-10T11:24:19.000Z</Time>
            <Position>
              <LatitudeDegrees>43.15186654217541217803955078125</LatitudeDegrees>
              <LongitudeDegrees>-1.66915006935596466064453125</LongitudeDegrees>
            </Position>
            <AltitudeMeters>129</AltitudeMeters>
            <DistanceMeters>NAN</DistanceMeters>
          </Trackpoint>
          <Trackpoint>
            <Time>2021-08-10T11:24:27.000Z</Time>
            <Position>
              <LatitudeDegrees>43.1521948613226413726806640625</LatitudeDegrees>
              <LongitudeDegrees>-1.66926180012524127960205078125</LongitudeDegrees>
            </Position>
            <AltitudeMeters>128.600006103515625</AltitudeMeters>
            <DistanceMeters>NAN</DistanceMeters>
          </Trackpoint>
          <Trackpoint>
            <Time>2021-08-10T11:24:31.000Z</Time>
            <Position>
              <LatitudeDegrees>43.1523500941693782806396484375</LatitudeDegrees>
              <LongitudeDegrees>-1.669316031038761138916015625</LongitudeDegrees>
            </Position>
            <AltitudeMeters>128.600006103515625</AltitudeMeters>
            <DistanceMeters>NAN</DistanceMeters>
          </Trackpoint>
          <Trackpoint>
            <Time>2021-08-10T11:24:32.000Z</Time>
            <Position>
              <LatitudeDegrees>43.1523896567523479461669921875</LatitudeDegrees>
              <LongitudeDegrees>-1.669330112636089324951171875</LongitudeDegrees>
            </Position>
            <AltitudeMeters>128.600006103515625</AltitudeMeters>
            <DistanceMeters>NAN</DistanceMeters>
          </Trackpoint>
          <Trackpoint>
            <Time>2021-08-10T11:24:33.000Z</Time>
            <Position>
              <LatitudeDegrees>43.152427710592746734619140625</LatitudeDegrees>
              <LongitudeDegrees>-1.66934855282306671142578125</LongitudeDegrees>
            </Position>
            <AltitudeMeters>128.600006103515625</AltitudeMeters>
            <DistanceMeters>NAN</DistanceMeters>
          </Trackpoint>
          <Trackpoint>
            <Time>2021-08-10T11:24:34.000Z</Time>
            <Position>
              <LatitudeDegrees>43.1524647586047649383544921875</LatitudeDegrees>
              <LongitudeDegrees>-1.6693711839616298675537109375</LongitudeDegrees>
            </Position>
            <AltitudeMeters>128.399993896484375</AltitudeMeters>
            <DistanceMeters>NAN</DistanceMeters>
          </Trackpoint>
          <Trackpoint>
            <Time>2021-08-10T11:24:35.000Z</Time>
            <Position>
              <LatitudeDegrees>43.15250138752162456512451171875</LatitudeDegrees>
              <LongitudeDegrees>-1.66939524002373218536376953125</LongitudeDegrees>
            </Position>
            <AltitudeMeters>128.399993896484375</AltitudeMeters>
            <DistanceMeters>NAN</DistanceMeters>
          </Trackpoint>
          <Trackpoint>
            <Time>2021-08-10T11:24:36.000Z</Time>
            <Position>
              <LatitudeDegrees>43.15253843553364276885986328125</LatitudeDegrees>
              <LongitudeDegrees>-1.6694171167910099029541015625</LongitudeDegrees>
            </Position>
            <AltitudeMeters>128.399993896484375</AltitudeMeters>
            <DistanceMeters>NAN</DistanceMeters>
          </Trackpoint>
          <Trackpoint>
            <Time>2021-08-10T11:24:37.000Z</Time>
            <Position>
              <LatitudeDegrees>43.15257766284048557281494140625</LatitudeDegrees>
              <LongitudeDegrees>-1.6694345511496067047119140625</LongitudeDegrees>
            </Position>
            <AltitudeMeters>128.399993896484375</AltitudeMeters>
            <DistanceMeters>NAN</DistanceMeters>
          </Trackpoint>
          <Trackpoint>
            <Time>2021-08-10T11:24:39.000Z</Time>
            <Position>
              <LatitudeDegrees>43.1526608951389789581298828125</LatitudeDegrees>
              <LongitudeDegrees>-1.66946497745811939239501953125</LongitudeDegrees>
            </Position>
            <AltitudeMeters>128.399993896484375</AltitudeMeters>
            <DistanceMeters>NAN</DistanceMeters>
          </Trackpoint>
          <Trackpoint>
            <Time>2021-08-10T11:24:41.000Z</Time>
            <Position>
              <LatitudeDegrees>43.15274052321910858154296875</LatitudeDegrees>
              <LongitudeDegrees>-1.66951007209718227386474609375</LongitudeDegrees>
            </Position>
            <AltitudeMeters>128.399993896484375</AltitudeMeters>
            <DistanceMeters>NAN</DistanceMeters>
          </Trackpoint>
          <Trackpoint>
            <Time>2021-08-10T11:24:42.000Z</Time>
            <Position>
              <LatitudeDegrees>43.1527809239923954010009765625</LatitudeDegrees>
              <LongitudeDegrees>-1.669536642730236053466796875</LongitudeDegrees>
            </Position>
            <AltitudeMeters>128.399993896484375</AltitudeMeters>
            <DistanceMeters>NAN</DistanceMeters>
          </Trackpoint>
          <Trackpoint>
            <Time>2021-08-10T11:24:43.000Z</Time>
            <Position>
              <LatitudeDegrees>43.15281252376735210418701171875</LatitudeDegrees>
              <LongitudeDegrees>-1.66956271044909954071044921875</LongitudeDegrees>
            </Position>
            <AltitudeMeters>128.399993896484375</AltitudeMeters>
            <DistanceMeters>NAN</DistanceMeters>
          </Trackpoint>
          <Trackpoint>
            <Time>2021-08-10T11:24:45.000Z</Time>
            <Position>
              <LatitudeDegrees>43.152880333364009857177734375</LatitudeDegrees>
              <LongitudeDegrees>-1.66961367242038249969482421875</LongitudeDegrees>
            </Position>
            <AltitudeMeters>128.399993896484375</AltitudeMeters>
            <DistanceMeters>NAN</DistanceMeters>
          </Trackpoint>
          <Trackpoint>
            <Time>2021-08-10T11:24:46.000Z</Time>
            <Position>
              <LatitudeDegrees>43.15291914157569408416748046875</LatitudeDegrees>
              <LongitudeDegrees>-1.6696337051689624786376953125</LongitudeDegrees>
            </Position>
            <AltitudeMeters>128.399993896484375</AltitudeMeters>
            <DistanceMeters>NAN</DistanceMeters>
          </Trackpoint>
          <Trackpoint>
            <Time>2021-08-10T11:24:48.000Z</Time>
            <Position>
              <LatitudeDegrees>43.15298996865749359130859375</LatitudeDegrees>
              <LongitudeDegrees>-1.66968047618865966796875</LongitudeDegrees>
            </Position>
            <AltitudeMeters>128.399993896484375</AltitudeMeters>
            <DistanceMeters>NAN</DistanceMeters>
          </Trackpoint>
          <Trackpoint>
            <Time>2021-08-10T11:24:49.000Z</Time>
            <Position>
              <LatitudeDegrees>43.15302458591759204864501953125</LatitudeDegrees>
              <LongitudeDegrees>-1.66970469988882541656494140625</LongitudeDegrees>
            </Position>
            <AltitudeMeters>128.399993896484375</AltitudeMeters>
            <DistanceMeters>NAN</DistanceMeters>
          </Trackpoint>
          <Trackpoint>
            <Time>2021-08-10T11:24:50.000Z</Time>
            <Position>
              <LatitudeDegrees>43.15306280739605426788330078125</LatitudeDegrees>
              <LongitudeDegrees>-1.6697282530367374420166015625</LongitudeDegrees>
            </Position>
            <AltitudeMeters>128.399993896484375</AltitudeMeters>
            <DistanceMeters>NAN</DistanceMeters>
          </Trackpoint>
          <Trackpoint>
            <Time>2021-08-10T11:24:52.000Z</Time>
            <Position>
              <LatitudeDegrees>43.15313824452459812164306640625</LatitudeDegrees>
              <LongitudeDegrees>-1.669775359332561492919921875</LongitudeDegrees>
            </Position>
            <AltitudeMeters>128.399993896484375</AltitudeMeters>
            <DistanceMeters>NAN</DistanceMeters>
          </Trackpoint>
          <Trackpoint>
            <Time>2021-08-10T11:24:53.000Z</Time>
            <Position>
              <LatitudeDegrees>43.15317571163177490234375</LatitudeDegrees>
              <LongitudeDegrees>-1.66979807429015636444091796875</LongitudeDegrees>
            </Position>
            <AltitudeMeters>128.399993896484375</AltitudeMeters>
            <DistanceMeters>NAN</DistanceMeters>
          </Trackpoint>
          <Trackpoint>
            <Time>2021-08-10T11:24:54.000Z</Time>
            <Position>
              <LatitudeDegrees>43.153210915625095367431640625</LatitudeDegrees>
              <LongitudeDegrees>-1.6698207892477512359619140625</LongitudeDegrees>
            </Position>
            <AltitudeMeters>128.399993896484375</AltitudeMeters>
            <DistanceMeters>NAN</DistanceMeters>
          </Trackpoint>
          <Trackpoint>
            <Time>2021-08-10T11:24:55.000Z</Time>
            <Position>
              <LatitudeDegrees>43.153242766857147216796875</LatitudeDegrees>
              <LongitudeDegrees>-1.66984283365309238433837890625</LongitudeDegrees>
            </Position>
            <AltitudeMeters>128.1999969482421875</AltitudeMeters>
            <DistanceMeters>NAN</DistanceMeters>
          </Trackpoint>
          <Trackpoint>
            <Time>2021-08-10T11:24:56.000Z</Time>
            <Position>
              <LatitudeDegrees>43.153279311954975128173828125</LatitudeDegrees>
              <LongitudeDegrees>-1.66986286640167236328125</LongitudeDegrees>
            </Position>
            <AltitudeMeters>128.1999969482421875</AltitudeMeters>
            <DistanceMeters>NAN</DistanceMeters>
          </Trackpoint>
          <Trackpoint>
            <Time>2021-08-10T11:24:57.000Z</Time>
            <Position>
              <LatitudeDegrees>43.15331141464412212371826171875</LatitudeDegrees>
              <LongitudeDegrees>-1.6698844917118549346923828125</LongitudeDegrees>
            </Position>
            <AltitudeMeters>128.1999969482421875</AltitudeMeters>
            <DistanceMeters>NAN</DistanceMeters>
          </Trackpoint>
          <Trackpoint>
            <Time>2021-08-10T11:24:58.000Z</Time>
            <Position>
              <LatitudeDegrees>43.15334402024745941162109375</LatitudeDegrees>
              <LongitudeDegrees>-1.66990485973656177520751953125</LongitudeDegrees>
            </Position>
            <AltitudeMeters>128</AltitudeMeters>
            <DistanceMeters>NAN</DistanceMeters>
          </Trackpoint>
          <Trackpoint>
            <Time>2021-08-10T11:24:59.000Z</Time>
            <Position>
              <LatitudeDegrees>43.153376542031764984130859375</LatitudeDegrees>
              <LongitudeDegrees>-1.66992430575191974639892578125</LongitudeDegrees>
            </Position>
            <AltitudeMeters>128</AltitudeMeters>
            <DistanceMeters>NAN</DistanceMeters>
          </Trackpoint>
          <Trackpoint>
            <Time>2021-08-10T11:25:00.000Z</Time>
            <Position>
              <LatitudeDegrees>43.15340730361640453338623046875</LatitudeDegrees>
              <LongitudeDegrees>-1.66994324885308742523193359375</LongitudeDegrees>
            </Position>
            <AltitudeMeters>128</AltitudeMeters>
            <DistanceMeters>NAN</DistanceMeters>
          </Trackpoint>
          <Trackpoint>
            <Time>2021-08-10T11:25:01.000Z</Time>
            <Position>
              <LatitudeDegrees>43.15343848429620265960693359375</LatitudeDegrees>
              <LongitudeDegrees>-1.6699616052210330963134765625</LongitudeDegrees>
            </Position>
            <AltitudeMeters>128</AltitudeMeters>
            <DistanceMeters>NAN</DistanceMeters>
          </Trackpoint>
          <Trackpoint>
            <Time>2021-08-10T11:25:02.000Z</Time>
            <Position>
              <LatitudeDegrees>43.1534685753285884857177734375</LatitudeDegrees>
              <LongitudeDegrees>-1.66997845284640789031982421875</LongitudeDegrees>
            </Position>
            <AltitudeMeters>128</AltitudeMeters>
            <DistanceMeters>NAN</DistanceMeters>
          </Trackpoint>
          <Trackpoint>
            <Time>2021-08-10T11:25:03.000Z</Time>
            <Position>
              <LatitudeDegrees>43.1534977443516254425048828125</LatitudeDegrees>
              <LongitudeDegrees>-1.6699941270053386688232421875</LongitudeDegrees>
            </Position>
            <AltitudeMeters>127.8000030517578125</AltitudeMeters>
            <DistanceMeters>NAN</DistanceMeters>
          </Trackpoint>
          <Trackpoint>
            <Time>2021-08-10T11:25:04.000Z</Time>
            <Position>
              <LatitudeDegrees>43.15352649427950382232666015625</LatitudeDegrees>
              <LongitudeDegrees>-1.67001105844974517822265625</LongitudeDegrees>
            </Position>
            <AltitudeMeters>127.8000030517578125</AltitudeMeters>
            <DistanceMeters>NAN</DistanceMeters>
          </Trackpoint>
          <Trackpoint>
            <Time>2021-08-10T11:25:05.000Z</Time>
            <Position>
              <LatitudeDegrees>43.15355583094060420989990234375</LatitudeDegrees>
              <LongitudeDegrees>-1.6700303368270397186279296875</LongitudeDegrees>
            </Position>
            <AltitudeMeters>127.8000030517578125</AltitudeMeters>
            <DistanceMeters>NAN</DistanceMeters>
          </Trackpoint>
          <Trackpoint>
            <Time>2021-08-10T11:25:06.000Z</Time>
            <Position>
              <LatitudeDegrees>43.15358340740203857421875</LatitudeDegrees>
              <LongitudeDegrees>-1.670046932995319366455078125</LongitudeDegrees>
            </Position>
            <AltitudeMeters>127.8000030517578125</AltitudeMeters>
            <DistanceMeters>NAN</DistanceMeters>
          </Trackpoint>
          <Trackpoint>
            <Time>2021-08-10T11:25:07.000Z</Time>
            <Position>
              <LatitudeDegrees>43.15361182205379009246826171875</LatitudeDegrees>
              <LongitudeDegrees>-1.670061014592647552490234375</LongitudeDegrees>
            </Position>
            <AltitudeMeters>127.59999847412109375</AltitudeMeters>
            <DistanceMeters>NAN</DistanceMeters>
          </Trackpoint>
          <Trackpoint>
            <Time>2021-08-10T11:25:08.000Z</Time>
            <Position>
              <LatitudeDegrees>43.15364308655261993408203125</LatitudeDegrees>
              <LongitudeDegrees>-1.6700766049325466156005859375</LongitudeDegrees>
            </Position>
            <AltitudeMeters>127.59999847412109375</AltitudeMeters>
            <DistanceMeters>NAN</DistanceMeters>
          </Trackpoint>
          <Trackpoint>
            <Time>2021-08-10T11:25:09.000Z</Time>
            <Position>
              <LatitudeDegrees>43.15367669798433780670166015625</LatitudeDegrees>
              <LongitudeDegrees>-1.6700933687388896942138671875</LongitudeDegrees>
            </Position>
            <AltitudeMeters>127.59999847412109375</AltitudeMeters>
            <DistanceMeters>NAN</DistanceMeters>
          </Trackpoint>
          <Trackpoint>
            <Time>2021-08-10T11:25:10.000Z</Time>
            <Position>
              <LatitudeDegrees>43.15371089614927768707275390625</LatitudeDegrees>
              <LongitudeDegrees>-1.6701131500303745269775390625</LongitudeDegrees>
            </Position>
            <AltitudeMeters>127.59999847412109375</AltitudeMeters>
            <DistanceMeters>NAN</DistanceMeters>
          </Trackpoint>
          <Trackpoint>
            <Time>2021-08-10T11:25:12.000Z</Time>
            <Position>
              <LatitudeDegrees>43.15378256142139434814453125</LatitudeDegrees>
              <LongitudeDegrees>-1.67015279643237590789794921875</LongitudeDegrees>
            </Position>
            <AltitudeMeters>127.59999847412109375</AltitudeMeters>
            <DistanceMeters>NAN</DistanceMeters>
          </Trackpoint>
          <Trackpoint>
            <Time>2021-08-10T11:25:20.000Z</Time>
            <Position>
              <LatitudeDegrees>43.1540506146848201751708984375</LatitudeDegrees>
              <LongitudeDegrees>-1.67030132375657558441162109375</LongitudeDegrees>
            </Position>
            <AltitudeMeters>127.40000152587890625</AltitudeMeters>
            <DistanceMeters>NAN</DistanceMeters>
          </Trackpoint>
          <Trackpoint>
            <Time>2021-08-10T11:25:28.000Z</Time>
            <Position>
              <LatitudeDegrees>43.15433937124907970428466796875</LatitudeDegrees>
              <LongitudeDegrees>-1.67047482915222644805908203125</LongitudeDegrees>
            </Position>
            <AltitudeMeters>127.40000152587890625</AltitudeMeters>
            <DistanceMeters>NAN</DistanceMeters>
          </Trackpoint>
          <Trackpoint>
            <Time>2021-08-10T11:25:33.000Z</Time>
            <Position>
              <LatitudeDegrees>43.1545189954340457916259765625</LatitudeDegrees>
              <LongitudeDegrees>-1.67057507671415805816650390625</LongitudeDegrees>
            </Position>
            <AltitudeMeters>127.40000152587890625</AltitudeMeters>
            <DistanceMeters>NAN</DistanceMeters>
          </Trackpoint>
          <Trackpoint>
            <Time>2021-08-10T11:25:34.000Z</Time>
            <Position>
              <LatitudeDegrees>43.15455545671284198760986328125</LatitudeDegrees>
              <LongitudeDegrees>-1.67059485800564289093017578125</LongitudeDegrees>
            </Position>
            <AltitudeMeters>127.40000152587890625</AltitudeMeters>
            <DistanceMeters>NAN</DistanceMeters>
          </Trackpoint>
          <Trackpoint>
            <Time>2021-08-10T11:25:35.000Z</Time>
            <Position>
              <LatitudeDegrees>43.1545934267342090606689453125</LatitudeDegrees>
              <LongitudeDegrees>-1.67061748914420604705810546875</LongitudeDegrees>
            </Position>
            <AltitudeMeters>127.40000152587890625</AltitudeMeters>
            <DistanceMeters>NAN</DistanceMeters>
          </Trackpoint>
          <Trackpoint>
            <Time>2021-08-10T11:25:36.000Z</Time>
            <Position>
              <LatitudeDegrees>43.15463357605040073394775390625</LatitudeDegrees>
              <LongitudeDegrees>-1.670639701187610626220703125</LongitudeDegrees>
            </Position>
            <AltitudeMeters>127.40000152587890625</AltitudeMeters>
            <DistanceMeters>NAN</DistanceMeters>
          </Trackpoint>
          <Trackpoint>
            <Time>2021-08-10T11:25:42.000Z</Time>
            <Position>
              <LatitudeDegrees>43.154859803617000579833984375</LatitudeDegrees>
              <LongitudeDegrees>-1.6707793436944484710693359375</LongitudeDegrees>
            </Position>
            <AltitudeMeters>127.40000152587890625</AltitudeMeters>
            <DistanceMeters>NAN</DistanceMeters>
          </Trackpoint>
          <Trackpoint>
            <Time>2021-08-10T11:25:46.000Z</Time>
            <Position>
              <LatitudeDegrees>43.1549920700490474700927734375</LatitudeDegrees>
              <LongitudeDegrees>-1.670854948461055755615234375</LongitudeDegrees>
            </Position>
            <AltitudeMeters>127.59999847412109375</AltitudeMeters>
            <DistanceMeters>NAN</DistanceMeters>
          </Trackpoint>
          <Trackpoint>
            <Time>2021-08-10T11:25:47.000Z</Time>
            <Position>
              <LatitudeDegrees>43.15503305755555629730224609375</LatitudeDegrees>
              <LongitudeDegrees>-1.6708780825138092041015625</LongitudeDegrees>
            </Position>
            <AltitudeMeters>127.8000030517578125</AltitudeMeters>
            <DistanceMeters>NAN</DistanceMeters>
          </Trackpoint>
          <Trackpoint>
            <Time>2021-08-10T11:25:48.000Z</Time>
            <Position>
              <LatitudeDegrees>43.15505971200764179229736328125</LatitudeDegrees>
              <LongitudeDegrees>-1.67089283466339111328125</LongitudeDegrees>
            </Position>
            <AltitudeMeters>127.8000030517578125</AltitudeMeters>
            <DistanceMeters>NAN</DistanceMeters>
          </Trackpoint>
          <Trackpoint>
            <Time>2021-08-10T11:25:49.000Z</Time>
            <Position>
              <LatitudeDegrees>43.15509424544870853424072265625</LatitudeDegrees>
              <LongitudeDegrees>-1.67091035284101963043212890625</LongitudeDegrees>
            </Position>
            <AltitudeMeters>127.8000030517578125</AltitudeMeters>
            <DistanceMeters>NAN</DistanceMeters>
          </Trackpoint>
          <Trackpoint>
            <Time>2021-08-10T11:25:50.000Z</Time>
            <Position>
              <LatitudeDegrees>43.1551241688430309295654296875</LatitudeDegrees>
              <LongitudeDegrees>-1.67092661373317241668701171875</LongitudeDegrees>
            </Position>
            <AltitudeMeters>127.8000030517578125</AltitudeMeters>
            <DistanceMeters>NAN</DistanceMeters>
          </Trackpoint>
          <Trackpoint>
            <Time>2021-08-10T11:25:51.000Z</Time>
            <Position>
              <LatitudeDegrees>43.155158869922161102294921875</LatitudeDegrees>
              <LongitudeDegrees>-1.67094388045370578765869140625</LongitudeDegrees>
            </Position>
            <AltitudeMeters>127.8000030517578125</AltitudeMeters>
            <DistanceMeters>NAN</DistanceMeters>
          </Trackpoint>
          <Trackpoint>
            <Time>2021-08-10T11:25:52.000Z</Time>
            <Position>
              <LatitudeDegrees>43.1551945768296718597412109375</LatitudeDegrees>
              <LongitudeDegrees>-1.67096324265003204345703125</LongitudeDegrees>
            </Position>
            <AltitudeMeters>127.8000030517578125</AltitudeMeters>
            <DistanceMeters>NAN</DistanceMeters>
          </Trackpoint>
          <Trackpoint>
            <Time>2021-08-10T11:25:53.000Z</Time>
            <Position>
              <LatitudeDegrees>43.1552294455468654632568359375</LatitudeDegrees>
              <LongitudeDegrees>-1.67098210193216800689697265625</LongitudeDegrees>
            </Position>
            <AltitudeMeters>127.8000030517578125</AltitudeMeters>
            <DistanceMeters>NAN</DistanceMeters>
          </Trackpoint>
          <Trackpoint>
            <Time>2021-08-10T11:25:56.000Z</Time>
            <Position>
              <LatitudeDegrees>43.15532684326171875</LatitudeDegrees>
              <LongitudeDegrees>-1.67103406973183155059814453125</LongitudeDegrees>
            </Position>
            <AltitudeMeters>127.8000030517578125</AltitudeMeters>
            <DistanceMeters>NAN</DistanceMeters>
          </Trackpoint>
          <Trackpoint>
            <Time>2021-08-10T11:25:57.000Z</Time>
            <Position>
              <LatitudeDegrees>43.15535835921764373779296875</LatitudeDegrees>
              <LongitudeDegrees>-1.67104898951947689056396484375</LongitudeDegrees>
            </Position>
            <AltitudeMeters>127.8000030517578125</AltitudeMeters>
            <DistanceMeters>NAN</DistanceMeters>
          </Trackpoint>
          <Trackpoint>
            <Time>2021-08-10T11:25:58.000Z</Time>
            <Position>
              <LatitudeDegrees>43.15539029426872730255126953125</LatitudeDegrees>
              <LongitudeDegrees>-1.671065501868724822998046875</LongitudeDegrees>
            </Position>
            <AltitudeMeters>127.8000030517578125</AltitudeMeters>
            <DistanceMeters>NAN</DistanceMeters>
          </Trackpoint>
          <Trackpoint>
            <Time>2021-08-10T11:25:59.000Z</Time>
            <Position>
              <LatitudeDegrees>43.15542415715754032135009765625</LatitudeDegrees>
              <LongitudeDegrees>-1.6710817627608776092529296875</LongitudeDegrees>
            </Position>
            <AltitudeMeters>127.8000030517578125</AltitudeMeters>
            <DistanceMeters>NAN</DistanceMeters>
          </Trackpoint>
          <Trackpoint>
            <Time>2021-08-10T11:26:00.000Z</Time>
            <Position>
              <LatitudeDegrees>43.15545885823667049407958984375</LatitudeDegrees>
              <LongitudeDegrees>-1.671098358929157257080078125</LongitudeDegrees>
            </Position>
            <AltitudeMeters>127.8000030517578125</AltitudeMeters>
            <DistanceMeters>NAN</DistanceMeters>
          </Trackpoint>
          <Trackpoint>
            <Time>2021-08-10T11:26:01.000Z</Time>
            <Position>
              <LatitudeDegrees>43.155491463840007781982421875</LatitudeDegrees>
              <LongitudeDegrees>-1.671110428869724273681640625</LongitudeDegrees>
            </Position>
            <AltitudeMeters>127.8000030517578125</AltitudeMeters>
            <DistanceMeters>NAN</DistanceMeters>
          </Trackpoint>
          <Trackpoint>
            <Time>2021-08-10T11:26:02.000Z</Time>
            <Position>
              <LatitudeDegrees>43.15552356652915477752685546875</LatitudeDegrees>
              <LongitudeDegrees>-1.67112275026738643646240234375</LongitudeDegrees>
            </Position>
            <AltitudeMeters>127.8000030517578125</AltitudeMeters>
            <DistanceMeters>NAN</DistanceMeters>
          </Trackpoint>
          <Trackpoint>
            <Time>2021-08-10T11:26:03.000Z</Time>
            <Position>
              <LatitudeDegrees>43.15555742941796779632568359375</LatitudeDegrees>
              <LongitudeDegrees>-1.6711380891501903533935546875</LongitudeDegrees>
            </Position>
            <AltitudeMeters>127.8000030517578125</AltitudeMeters>
            <DistanceMeters>NAN</DistanceMeters>
          </Trackpoint>
          <Trackpoint>
            <Time>2021-08-10T11:26:05.000Z</Time>
            <Position>
              <LatitudeDegrees>43.15562934614717960357666015625</LatitudeDegrees>
              <LongitudeDegrees>-1.67117153294384479522705078125</LongitudeDegrees>
            </Position>
            <AltitudeMeters>127.59999847412109375</AltitudeMeters>
            <DistanceMeters>NAN</DistanceMeters>
          </Trackpoint>
          <Trackpoint>
            <Time>2021-08-10T11:26:13.000Z</Time>
            <Position>
              <LatitudeDegrees>43.15591416321694850921630859375</LatitudeDegrees>
              <LongitudeDegrees>-1.67130195535719394683837890625</LongitudeDegrees>
            </Position>
            <AltitudeMeters>127.59999847412109375</AltitudeMeters>
            <DistanceMeters>NAN</DistanceMeters>
          </Trackpoint>
          <Trackpoint>
            <Time>2021-08-10T11:26:14.000Z</Time>
            <Position>
              <LatitudeDegrees>43.1559477746486663818359375</LatitudeDegrees>
              <LongitudeDegrees>-1.6713131032884120941162109375</LongitudeDegrees>
            </Position>
            <AltitudeMeters>127.59999847412109375</AltitudeMeters>
            <DistanceMeters>NAN</DistanceMeters>
          </Trackpoint>
          <Trackpoint>
            <Time>2021-08-10T11:26:15.000Z</Time>
            <Position>
              <LatitudeDegrees>43.15598172135651111602783203125</LatitudeDegrees>
              <LongitudeDegrees>-1.6713228262960910797119140625</LongitudeDegrees>
            </Position>
            <AltitudeMeters>127.59999847412109375</AltitudeMeters>
            <DistanceMeters>NAN</DistanceMeters>
          </Trackpoint>
          <Trackpoint>
            <Time>2021-08-10T11:26:16.000Z</Time>
            <Position>
              <LatitudeDegrees>43.15601709298789501190185546875</LatitudeDegrees>
              <LongitudeDegrees>-1.6713342256844043731689453125</LongitudeDegrees>
            </Position>
            <AltitudeMeters>127.59999847412109375</AltitudeMeters>
            <DistanceMeters>NAN</DistanceMeters>
          </Trackpoint>
          <Trackpoint>
            <Time>2021-08-10T11:26:17.000Z</Time>
            <Position>
              <LatitudeDegrees>43.156050033867359161376953125</LatitudeDegrees>
              <LongitudeDegrees>-1.67134704999625682830810546875</LongitudeDegrees>
            </Position>
            <AltitudeMeters>127.59999847412109375</AltitudeMeters>
            <DistanceMeters>NAN</DistanceMeters>
          </Trackpoint>
          <Trackpoint>
            <Time>2021-08-10T11:26:18.000Z</Time>
            <Position>
              <LatitudeDegrees>43.15608548931777477264404296875</LatitudeDegrees>
              <LongitudeDegrees>-1.67135694064199924468994140625</LongitudeDegrees>
            </Position>
            <AltitudeMeters>127.59999847412109375</AltitudeMeters>
            <DistanceMeters>NAN</DistanceMeters>
          </Trackpoint>
          <Trackpoint>
            <Time>2021-08-10T11:26:19.000Z</Time>
            <Position>
              <LatitudeDegrees>43.1561202742159366607666015625</LatitudeDegrees>
              <LongitudeDegrees>-1.67136691510677337646484375</LongitudeDegrees>
            </Position>
            <AltitudeMeters>127.59999847412109375</AltitudeMeters>
            <DistanceMeters>NAN</DistanceMeters>
          </Trackpoint>
          <Trackpoint>
            <Time>2021-08-10T11:26:20.000Z</Time>
            <Position>
              <LatitudeDegrees>43.15615522675216197967529296875</LatitudeDegrees>
              <LongitudeDegrees>-1.67137873359024524688720703125</LongitudeDegrees>
            </Position>
            <AltitudeMeters>127.59999847412109375</AltitudeMeters>
            <DistanceMeters>NAN</DistanceMeters>
          </Trackpoint>
          <Trackpoint>
            <Time>2021-08-10T11:26:21.000Z</Time>
            <Position>
              <LatitudeDegrees>43.1561930291354656219482421875</LatitudeDegrees>
              <LongitudeDegrees>-1.67139046825468540191650390625</LongitudeDegrees>
            </Position>
            <AltitudeMeters>127.59999847412109375</AltitudeMeters>
            <DistanceMeters>NAN</DistanceMeters>
          </Trackpoint>
          <Trackpoint>
            <Time>2021-08-10T11:26:22.000Z</Time>
            <Position>
              <LatitudeDegrees>43.15622848458588123321533203125</LatitudeDegrees>
              <LongitudeDegrees>-1.6713989339768886566162109375</LongitudeDegrees>
            </Position>
            <AltitudeMeters>127.59999847412109375</AltitudeMeters>
            <DistanceMeters>NAN</DistanceMeters>
          </Trackpoint>
          <Trackpoint>
            <Time>2021-08-10T11:26:23.000Z</Time>
            <Position>
              <LatitudeDegrees>43.15626586787402629852294921875</LatitudeDegrees>
              <LongitudeDegrees>-1.67141309939324855804443359375</LongitudeDegrees>
            </Position>
            <AltitudeMeters>127.59999847412109375</AltitudeMeters>
            <DistanceMeters>NAN</DistanceMeters>
          </Trackpoint>
          <Trackpoint>
            <Time>2021-08-10T11:26:29.000Z</Time>
            <Position>
              <LatitudeDegrees>43.15649955533444881439208984375</LatitudeDegrees>
              <LongitudeDegrees>-1.6714636422693729400634765625</LongitudeDegrees>
            </Position>
            <AltitudeMeters>127.59999847412109375</AltitudeMeters>
            <DistanceMeters>NAN</DistanceMeters>
          </Trackpoint>
          <Trackpoint>
            <Time>2021-08-10T11:26:36.000Z</Time>
            <Position>
              <LatitudeDegrees>43.15677984617650508880615234375</LatitudeDegrees>
              <LongitudeDegrees>-1.67150949127972126007080078125</LongitudeDegrees>
            </Position>
            <AltitudeMeters>127.59999847412109375</AltitudeMeters>
            <DistanceMeters>NAN</DistanceMeters>
          </Trackpoint>
          <Trackpoint>
            <Time>2021-08-10T11:26:37.000Z</Time>
            <Position>
              <LatitudeDegrees>43.15681505016982555389404296875</LatitudeDegrees>
              <LongitudeDegrees>-1.671517454087734222412109375</LongitudeDegrees>
            </Position>
            <AltitudeMeters>127.59999847412109375</AltitudeMeters>
            <DistanceMeters>NAN</DistanceMeters>
          </Trackpoint>
          <Trackpoint>
            <Time>2021-08-10T11:26:38.000Z</Time>
            <Position>
              <LatitudeDegrees>43.1568481586873531341552734375</LatitudeDegrees>
              <LongitudeDegrees>-1.67151980102062225341796875</LongitudeDegrees>
            </Position>
            <AltitudeMeters>127.59999847412109375</AltitudeMeters>
            <DistanceMeters>NAN</DistanceMeters>
          </Trackpoint>
          <Trackpoint>
            <Time>2021-08-10T11:26:39.000Z</Time>
            <Position>
              <LatitudeDegrees>43.15688746981322765350341796875</LatitudeDegrees>
              <LongitudeDegrees>-1.6715337149798870086669921875</LongitudeDegrees>
            </Position>
            <AltitudeMeters>127.59999847412109375</AltitudeMeters>
            <DistanceMeters>NAN</DistanceMeters>
          </Trackpoint>
          <Trackpoint>
            <Time>2021-08-10T11:26:43.000Z</Time>
            <Position>
              <LatitudeDegrees>43.15703348256647586822509765625</LatitudeDegrees>
              <LongitudeDegrees>-1.67161191813647747039794921875</LongitudeDegrees>
            </Position>
            <AltitudeMeters>127.59999847412109375</AltitudeMeters>
            <DistanceMeters>NAN</DistanceMeters>
          </Trackpoint>
          <Trackpoint>
            <Time>2021-08-10T11:26:50.000Z</Time>
            <Position>
              <LatitudeDegrees>43.157284520566463470458984375</LatitudeDegrees>
              <LongitudeDegrees>-1.67168400250375270843505859375</LongitudeDegrees>
            </Position>
            <AltitudeMeters>127.59999847412109375</AltitudeMeters>
            <DistanceMeters>NAN</DistanceMeters>
          </Trackpoint>
          <Trackpoint>
            <Time>2021-08-10T11:26:51.000Z</Time>
            <Position>
              <LatitudeDegrees>43.157319724559783935546875</LatitudeDegrees>
              <LongitudeDegrees>-1.6716923005878925323486328125</LongitudeDegrees>
            </Position>
            <AltitudeMeters>127.59999847412109375</AltitudeMeters>
            <DistanceMeters>NAN</DistanceMeters>
          </Trackpoint>
          <Trackpoint>
            <Time>2021-08-10T11:27:00.000Z</Time>
            <Position>
              <LatitudeDegrees>43.1576561741530895233154296875</LatitudeDegrees>
              <LongitudeDegrees>-1.67175407521426677703857421875</LongitudeDegrees>
            </Position>
            <AltitudeMeters>127.59999847412109375</AltitudeMeters>
            <DistanceMeters>NAN</DistanceMeters>
          </Trackpoint>
          <Trackpoint>
            <Time>2021-08-10T11:27:13.000Z</Time>
            <Position>
              <LatitudeDegrees>43.1581778638064861297607421875</LatitudeDegrees>
              <LongitudeDegrees>-1.671777628362178802490234375</LongitudeDegrees>
            </Position>
            <AltitudeMeters>127.59999847412109375</AltitudeMeters>
            <DistanceMeters>NAN</DistanceMeters>
          </Trackpoint>
          <Trackpoint>
            <Time>2021-08-10T11:27:23.000Z</Time>
            <Position>
              <LatitudeDegrees>43.15859033726155757904052734375</LatitudeDegrees>
              <LongitudeDegrees>-1.671801768243312835693359375</LongitudeDegrees>
            </Position>
            <AltitudeMeters>127.40000152587890625</AltitudeMeters>
            <DistanceMeters>NAN</DistanceMeters>
          </Trackpoint>
          <Trackpoint>
            <Time>2021-08-10T11:27:27.000Z</Time>
            <Position>
              <LatitudeDegrees>43.15875244326889514923095703125</LatitudeDegrees>
              <LongitudeDegrees>-1.67180989868938922882080078125</LongitudeDegrees>
            </Position>
            <AltitudeMeters>127.40000152587890625</AltitudeMeters>
            <DistanceMeters>NAN</DistanceMeters>
          </Trackpoint>
          <Trackpoint>
            <Time>2021-08-10T11:27:28.000Z</Time>
            <Position>
              <LatitudeDegrees>43.15879368223249912261962890625</LatitudeDegrees>
              <LongitudeDegrees>-1.67181224562227725982666015625</LongitudeDegrees>
            </Position>
            <AltitudeMeters>127.1999969482421875</AltitudeMeters>
            <DistanceMeters>NAN</DistanceMeters>
          </Trackpoint>
          <Trackpoint>
            <Time>2021-08-10T11:27:29.000Z</Time>
            <Position>
              <LatitudeDegrees>43.158834837377071380615234375</LatitudeDegrees>
              <LongitudeDegrees>-1.67181425727903842926025390625</LongitudeDegrees>
            </Position>
            <AltitudeMeters>127.1999969482421875</AltitudeMeters>
            <DistanceMeters>NAN</DistanceMeters>
          </Trackpoint>
          <Trackpoint>
            <Time>2021-08-10T11:27:33.000Z</Time>
            <Position>
              <LatitudeDegrees>43.15898814238607883453369140625</LatitudeDegrees>
              <LongitudeDegrees>-1.67183336801826953887939453125</LongitudeDegrees>
            </Position>
            <AltitudeMeters>127.40000152587890625</AltitudeMeters>
            <DistanceMeters>NAN</DistanceMeters>
          </Trackpoint>
          <Trackpoint>
            <Time>2021-08-10T11:27:37.000Z</Time>
            <Position>
              <LatitudeDegrees>43.1591273657977581024169921875</LatitudeDegrees>
              <LongitudeDegrees>-1.671850048005580902099609375</LongitudeDegrees>
            </Position>
            <AltitudeMeters>127.40000152587890625</AltitudeMeters>
            <DistanceMeters>NAN</DistanceMeters>
          </Trackpoint>
          <Trackpoint>
            <Time>2021-08-10T11:27:38.000Z</Time>
            <Position>
              <LatitudeDegrees>43.1591652520000934600830078125</LatitudeDegrees>
              <LongitudeDegrees>-1.67185214348137378692626953125</LongitudeDegrees>
            </Position>
            <AltitudeMeters>127.40000152587890625</AltitudeMeters>
            <DistanceMeters>NAN</DistanceMeters>
          </Trackpoint>
          <Trackpoint>
            <Time>2021-08-10T11:27:39.000Z</Time>
            <Position>
              <LatitudeDegrees>43.15920322202146053314208984375</LatitudeDegrees>
              <LongitudeDegrees>-1.67185767553746700286865234375</LongitudeDegrees>
            </Position>
            <AltitudeMeters>127.40000152587890625</AltitudeMeters>
            <DistanceMeters>NAN</DistanceMeters>
          </Trackpoint>
          <Trackpoint>
            <Time>2021-08-10T11:27:40.000Z</Time>
            <Position>
              <LatitudeDegrees>43.159239850938320159912109375</LatitudeDegrees>
              <LongitudeDegrees>-1.6718616150319576263427734375</LongitudeDegrees>
            </Position>
            <AltitudeMeters>127.59999847412109375</AltitudeMeters>
            <DistanceMeters>NAN</DistanceMeters>
          </Trackpoint>
          <Trackpoint>
            <Time>2021-08-10T11:27:41.000Z</Time>
            <Position>
              <LatitudeDegrees>43.159287460148334503173828125</LatitudeDegrees>
              <LongitudeDegrees>-1.6718659736216068267822265625</LongitudeDegrees>
            </Position>
            <AltitudeMeters>127.59999847412109375</AltitudeMeters>
            <DistanceMeters>NAN</DistanceMeters>
          </Trackpoint>
          <Trackpoint>
            <Time>2021-08-10T11:27:42.000Z</Time>
            <Position>
              <LatitudeDegrees>43.15932056866586208343505859375</LatitudeDegrees>
              <LongitudeDegrees>-1.67186622507870197296142578125</LongitudeDegrees>
            </Position>
            <AltitudeMeters>127.59999847412109375</AltitudeMeters>
            <DistanceMeters>NAN</DistanceMeters>
          </Trackpoint>
          <Trackpoint>
            <Time>2021-08-10T11:27:48.000Z</Time>
            <Position>
              <LatitudeDegrees>43.15954889170825481414794921875</LatitudeDegrees>
              <LongitudeDegrees>-1.67187611572444438934326171875</LongitudeDegrees>
            </Position>
            <AltitudeMeters>127.59999847412109375</AltitudeMeters>
            <DistanceMeters>NAN</DistanceMeters>
          </Trackpoint>
          <Trackpoint>
            <Time>2021-08-10T11:27:49.000Z</Time>
            <Position>
              <LatitudeDegrees>43.15958459861576557159423828125</LatitudeDegrees>
              <LongitudeDegrees>-1.67187728919088840484619140625</LongitudeDegrees>
            </Position>
            <AltitudeMeters>127.59999847412109375</AltitudeMeters>
            <DistanceMeters>NAN</DistanceMeters>
          </Trackpoint>
          <Trackpoint>
            <Time>2021-08-10T11:27:50.000Z</Time>
            <Position>
              <LatitudeDegrees>43.1596197187900543212890625</LatitudeDegrees>
              <LongitudeDegrees>-1.67187921702861785888671875</LongitudeDegrees>
            </Position>
            <AltitudeMeters>127.59999847412109375</AltitudeMeters>
            <DistanceMeters>NAN</DistanceMeters>
          </Trackpoint>
          <Trackpoint>
            <Time>2021-08-10T11:27:51.000Z</Time>
            <Position>
              <LatitudeDegrees>43.1596550904214382171630859375</LatitudeDegrees>
              <LongitudeDegrees>-1.6718731820583343505859375</LongitudeDegrees>
            </Position>
            <AltitudeMeters>127.59999847412109375</AltitudeMeters>
            <DistanceMeters>NAN</DistanceMeters>
          </Trackpoint>
          <Trackpoint>
            <Time>2021-08-10T11:27:52.000Z</Time>
            <Position>
              <LatitudeDegrees>43.159689791500568389892578125</LatitudeDegrees>
              <LongitudeDegrees>-1.67187075130641460418701171875</LongitudeDegrees>
            </Position>
            <AltitudeMeters>127.59999847412109375</AltitudeMeters>
            <DistanceMeters>NAN</DistanceMeters>
          </Trackpoint>
          <Trackpoint>
            <Time>2021-08-10T11:27:53.000Z</Time>
            <Position>
              <LatitudeDegrees>43.15972088836133480072021484375</LatitudeDegrees>
              <LongitudeDegrees>-1.6718659736216068267822265625</LongitudeDegrees>
            </Position>
            <AltitudeMeters>127.59999847412109375</AltitudeMeters>
            <DistanceMeters>NAN</DistanceMeters>
          </Trackpoint>
          <Trackpoint>
            <Time>2021-08-10T11:27:54.000Z</Time>
            <Position>
              <LatitudeDegrees>43.15975139848887920379638671875</LatitudeDegrees>
              <LongitudeDegrees>-1.67185868136584758758544921875</LongitudeDegrees>
            </Position>
            <AltitudeMeters>127.59999847412109375</AltitudeMeters>
            <DistanceMeters>NAN</DistanceMeters>
          </Trackpoint>
          <Trackpoint>
            <Time>2021-08-10T11:27:55.000Z</Time>
            <Position>
              <LatitudeDegrees>43.1597845070064067840576171875</LatitudeDegrees>
              <LongitudeDegrees>-1.67184627614915370941162109375</LongitudeDegrees>
            </Position>
            <AltitudeMeters>127.59999847412109375</AltitudeMeters>
            <DistanceMeters>NAN</DistanceMeters>
          </Trackpoint>
          <Trackpoint>
            <Time>2021-08-10T11:27:56.000Z</Time>
            <Position>
              <LatitudeDegrees>43.15981753170490264892578125</LatitudeDegrees>
              <LongitudeDegrees>-1.67183454148471355438232421875</LongitudeDegrees>
            </Position>
            <AltitudeMeters>127.59999847412109375</AltitudeMeters>
            <DistanceMeters>NAN</DistanceMeters>
          </Trackpoint>
          <Trackpoint>
            <Time>2021-08-10T11:27:57.000Z</Time>
            <Position>
              <LatitudeDegrees>43.15984846092760562896728515625</LatitudeDegrees>
              <LongitudeDegrees>-1.6718250699341297149658203125</LongitudeDegrees>
            </Position>
            <AltitudeMeters>127.59999847412109375</AltitudeMeters>
            <DistanceMeters>NAN</DistanceMeters>
          </Trackpoint>
          <Trackpoint>
            <Time>2021-08-10T11:27:58.000Z</Time>
            <Position>
              <LatitudeDegrees>43.1598844192922115325927734375</LatitudeDegrees>
              <LongitudeDegrees>-1.671807803213596343994140625</LongitudeDegrees>
            </Position>
            <AltitudeMeters>127.59999847412109375</AltitudeMeters>
            <DistanceMeters>NAN</DistanceMeters>
          </Trackpoint>
          <Trackpoint>
            <Time>2021-08-10T11:27:59.000Z</Time>
            <Position>
              <LatitudeDegrees>43.15992104820907115936279296875</LatitudeDegrees>
              <LongitudeDegrees>-1.67179313488304615020751953125</LongitudeDegrees>
            </Position>
            <AltitudeMeters>127.59999847412109375</AltitudeMeters>
            <DistanceMeters>NAN</DistanceMeters>
          </Trackpoint>
          <Trackpoint>
            <Time>2021-08-10T11:28:00.000Z</Time>
            <Position>
              <LatitudeDegrees>43.159964717924594879150390625</LatitudeDegrees>
              <LongitudeDegrees>-1.6717793047428131103515625</LongitudeDegrees>
            </Position>
            <AltitudeMeters>127.59999847412109375</AltitudeMeters>
            <DistanceMeters>NAN</DistanceMeters>
          </Trackpoint>
          <Trackpoint>
            <Time>2021-08-10T11:28:05.000Z</Time>
            <Position>
              <LatitudeDegrees>43.16020318306982517242431640625</LatitudeDegrees>
              <LongitudeDegrees>-1.6717211343348026275634765625</LongitudeDegrees>
            </Position>
            <AltitudeMeters>127.59999847412109375</AltitudeMeters>
            <DistanceMeters>NAN</DistanceMeters>
          </Trackpoint>
          <Trackpoint>
            <Time>2021-08-10T11:28:07.000Z</Time>
            <Position>
              <LatitudeDegrees>43.160287924110889434814453125</LatitudeDegrees>
              <LongitudeDegrees>-1.67168802581727504730224609375</LongitudeDegrees>
            </Position>
            <AltitudeMeters>127.40000152587890625</AltitudeMeters>
            <DistanceMeters>NAN</DistanceMeters>
          </Trackpoint>
          <Trackpoint>
            <Time>2021-08-10T11:28:13.000Z</Time>
            <Position>
              <LatitudeDegrees>43.16054617054760456085205078125</LatitudeDegrees>
              <LongitudeDegrees>-1.67160755954682826995849609375</LongitudeDegrees>
            </Position>
            <AltitudeMeters>127.1999969482421875</AltitudeMeters>
            <DistanceMeters>NAN</DistanceMeters>
          </Trackpoint>
          <Trackpoint>
            <Time>2021-08-10T11:28:22.000Z</Time>
            <Position>
              <LatitudeDegrees>43.16090114414691925048828125</LatitudeDegrees>
              <LongitudeDegrees>-1.6715021990239620208740234375</LongitudeDegrees>
            </Position>
            <AltitudeMeters>127</AltitudeMeters>
            <DistanceMeters>NAN</DistanceMeters>
          </Trackpoint>
          <Trackpoint>
            <Time>2021-08-10T11:28:32.000Z</Time>
            <Position>
              <LatitudeDegrees>43.1613080017268657684326171875</LatitudeDegrees>
              <LongitudeDegrees>-1.67136825621128082275390625</LongitudeDegrees>
            </Position>
            <AltitudeMeters>127</AltitudeMeters>
            <DistanceMeters>NAN</DistanceMeters>
          </Trackpoint>
          <Trackpoint>
            <Time>2021-08-10T11:28:35.000Z</Time>
            <Position>
              <LatitudeDegrees>43.16142325289547443389892578125</LatitudeDegrees>
              <LongitudeDegrees>-1.6713271848857402801513671875</LongitudeDegrees>
            </Position>
            <AltitudeMeters>127</AltitudeMeters>
            <DistanceMeters>NAN</DistanceMeters>
          </Trackpoint>
          <Trackpoint>
            <Time>2021-08-10T11:28:36.000Z</Time>
            <Position>
              <LatitudeDegrees>43.16146331839263439178466796875</LatitudeDegrees>
              <LongitudeDegrees>-1.67131134308874607086181640625</LongitudeDegrees>
            </Position>
            <AltitudeMeters>127</AltitudeMeters>
            <DistanceMeters>NAN</DistanceMeters>
          </Trackpoint>
          <Trackpoint>
            <Time>2021-08-10T11:28:37.000Z</Time>
            <Position>
              <LatitudeDegrees>43.1615034677088260650634765625</LatitudeDegrees>
              <LongitudeDegrees>-1.6712973453104496002197265625</LongitudeDegrees>
            </Position>
            <AltitudeMeters>127.1999969482421875</AltitudeMeters>
            <DistanceMeters>NAN</DistanceMeters>
          </Trackpoint>
          <Trackpoint>
            <Time>2021-08-10T11:28:38.000Z</Time>
            <Position>
              <LatitudeDegrees>43.16154059953987598419189453125</LatitudeDegrees>
              <LongitudeDegrees>-1.671283431351184844970703125</LongitudeDegrees>
            </Position>
            <AltitudeMeters>127.1999969482421875</AltitudeMeters>
            <DistanceMeters>NAN</DistanceMeters>
          </Trackpoint>
          <Trackpoint>
            <Time>2021-08-10T11:28:39.000Z</Time>
            <Position>
              <LatitudeDegrees>43.16157747991383075714111328125</LatitudeDegrees>
              <LongitudeDegrees>-1.67126859538257122039794921875</LongitudeDegrees>
            </Position>
            <AltitudeMeters>127.1999969482421875</AltitudeMeters>
            <DistanceMeters>NAN</DistanceMeters>
          </Trackpoint>
          <Trackpoint>
            <Time>2021-08-10T11:28:40.000Z</Time>
            <Position>
              <LatitudeDegrees>43.16161385737359523773193359375</LatitudeDegrees>
              <LongitudeDegrees>-1.67125753127038478851318359375</LongitudeDegrees>
            </Position>
            <AltitudeMeters>127.1999969482421875</AltitudeMeters>
            <DistanceMeters>NAN</DistanceMeters>
          </Trackpoint>
          <Trackpoint>
            <Time>2021-08-10T11:28:41.000Z</Time>
            <Position>
              <LatitudeDegrees>43.16165895201265811920166015625</LatitudeDegrees>
              <LongitudeDegrees>-1.6712428629398345947265625</LongitudeDegrees>
            </Position>
            <AltitudeMeters>127.1999969482421875</AltitudeMeters>
            <DistanceMeters>NAN</DistanceMeters>
          </Trackpoint>
          <Trackpoint>
            <Time>2021-08-10T11:28:42.000Z</Time>
            <Position>
              <LatitudeDegrees>43.1616895459592342376708984375</LatitudeDegrees>
              <LongitudeDegrees>-1.671233810484409332275390625</LongitudeDegrees>
            </Position>
            <AltitudeMeters>127.1999969482421875</AltitudeMeters>
            <DistanceMeters>NAN</DistanceMeters>
          </Trackpoint>
          <Trackpoint>
            <Time>2021-08-10T11:28:44.000Z</Time>
            <Position>
              <LatitudeDegrees>43.161764480173587799072265625</LatitudeDegrees>
              <LongitudeDegrees>-1.6712095029652118682861328125</LongitudeDegrees>
            </Position>
            <AltitudeMeters>127.1999969482421875</AltitudeMeters>
            <DistanceMeters>NAN</DistanceMeters>
          </Trackpoint>
          <Trackpoint>
            <Time>2021-08-10T11:28:47.000Z</Time>
            <Position>
              <LatitudeDegrees>43.161881826817989349365234375</LatitudeDegrees>
              <LongitudeDegrees>-1.67117103002965450286865234375</LongitudeDegrees>
            </Position>
            <AltitudeMeters>127.1999969482421875</AltitudeMeters>
            <DistanceMeters>NAN</DistanceMeters>
          </Trackpoint>
          <Trackpoint>
            <Time>2021-08-10T11:28:48.000Z</Time>
            <Position>
              <LatitudeDegrees>43.16192700527608394622802734375</LatitudeDegrees>
              <LongitudeDegrees>-1.67115795426070690155029296875</LongitudeDegrees>
            </Position>
            <AltitudeMeters>127.1999969482421875</AltitudeMeters>
            <DistanceMeters>NAN</DistanceMeters>
          </Trackpoint>
          <Trackpoint>
            <Time>2021-08-10T11:28:49.000Z</Time>
            <Position>
              <LatitudeDegrees>43.16195500083267688751220703125</LatitudeDegrees>
              <LongitudeDegrees>-1.6711474768817424774169921875</LongitudeDegrees>
            </Position>
            <AltitudeMeters>127.1999969482421875</AltitudeMeters>
            <DistanceMeters>NAN</DistanceMeters>
          </Trackpoint>
          <Trackpoint>
            <Time>2021-08-10T11:28:51.000Z</Time>
            <Position>
              <LatitudeDegrees>43.16202457062900066375732421875</LatitudeDegrees>
              <LongitudeDegrees>-1.67111688293516635894775390625</LongitudeDegrees>
            </Position>
            <AltitudeMeters>127.40000152587890625</AltitudeMeters>
            <DistanceMeters>NAN</DistanceMeters>
          </Trackpoint>
          <Trackpoint>
            <Time>2021-08-10T11:28:52.000Z</Time>
            <Position>
              <LatitudeDegrees>43.16205709241330623626708984375</LatitudeDegrees>
              <LongitudeDegrees>-1.67110598646104335784912109375</LongitudeDegrees>
            </Position>
            <AltitudeMeters>127.40000152587890625</AltitudeMeters>
            <DistanceMeters>NAN</DistanceMeters>
          </Trackpoint>
          <Trackpoint>
            <Time>2021-08-10T11:28:53.000Z</Time>
            <Position>
              <LatitudeDegrees>43.162094391882419586181640625</LatitudeDegrees>
              <LongitudeDegrees>-1.6710948385298252105712890625</LongitudeDegrees>
            </Position>
            <AltitudeMeters>127.40000152587890625</AltitudeMeters>
            <DistanceMeters>NAN</DistanceMeters>
          </Trackpoint>
          <Trackpoint>
            <Time>2021-08-10T11:28:54.000Z</Time>
            <Position>
              <LatitudeDegrees>43.162133283913135528564453125</LatitudeDegrees>
              <LongitudeDegrees>-1.6710794158279895782470703125</LongitudeDegrees>
            </Position>
            <AltitudeMeters>127.40000152587890625</AltitudeMeters>
            <DistanceMeters>NAN</DistanceMeters>
          </Trackpoint>
          <Trackpoint>
            <Time>2021-08-10T11:28:55.000Z</Time>
            <Position>
              <LatitudeDegrees>43.162176199257373809814453125</LatitudeDegrees>
              <LongitudeDegrees>-1.67106122709810733795166015625</LongitudeDegrees>
            </Position>
            <AltitudeMeters>127.40000152587890625</AltitudeMeters>
            <DistanceMeters>NAN</DistanceMeters>
          </Trackpoint>
          <Trackpoint>
            <Time>2021-08-10T11:28:58.000Z</Time>
            <Position>
              <LatitudeDegrees>43.162305615842342376708984375</LatitudeDegrees>
              <LongitudeDegrees>-1.67101982049643993377685546875</LongitudeDegrees>
            </Position>
            <AltitudeMeters>127.1999969482421875</AltitudeMeters>
            <DistanceMeters>NAN</DistanceMeters>
          </Trackpoint>
          <Trackpoint>
            <Time>2021-08-10T11:29:06.000Z</Time>
            <Position>
              <LatitudeDegrees>43.1626372039318084716796875</LatitudeDegrees>
              <LongitudeDegrees>-1.6709141246974468231201171875</LongitudeDegrees>
            </Position>
            <AltitudeMeters>126.59999847412109375</AltitudeMeters>
            <DistanceMeters>NAN</DistanceMeters>
          </Trackpoint>
          <Trackpoint>
            <Time>2021-08-10T11:29:12.000Z</Time>
            <Position>
              <LatitudeDegrees>43.16290115006268024444580078125</LatitudeDegrees>
              <LongitudeDegrees>-1.67088353075087070465087890625</LongitudeDegrees>
            </Position>
            <AltitudeMeters>126.59999847412109375</AltitudeMeters>
            <DistanceMeters>NAN</DistanceMeters>
          </Trackpoint>
          <Trackpoint>
            <Time>2021-08-10T11:29:13.000Z</Time>
            <Position>
              <LatitudeDegrees>43.162944316864013671875</LatitudeDegrees>
              <LongitudeDegrees>-1.670889146625995635986328125</LongitudeDegrees>
            </Position>
            <AltitudeMeters>126.59999847412109375</AltitudeMeters>
            <DistanceMeters>NAN</DistanceMeters>
          </Trackpoint>
          <Trackpoint>
            <Time>2021-08-10T11:29:14.000Z</Time>
            <Position>
              <LatitudeDegrees>43.1629927642643451690673828125</LatitudeDegrees>
              <LongitudeDegrees>-1.6708889789879322052001953125</LongitudeDegrees>
            </Position>
            <AltitudeMeters>126.59999847412109375</AltitudeMeters>
            <DistanceMeters>NAN</DistanceMeters>
          </Trackpoint>
          <Trackpoint>
            <Time>2021-08-10T11:29:18.000Z</Time>
            <Position>
              <LatitudeDegrees>43.16312737762928009033203125</LatitudeDegrees>
              <LongitudeDegrees>-1.67092409916222095489501953125</LongitudeDegrees>
            </Position>
            <AltitudeMeters>126.8000030517578125</AltitudeMeters>
            <DistanceMeters>NAN</DistanceMeters>
          </Trackpoint>
          <Trackpoint>
            <Time>2021-08-10T11:29:19.000Z</Time>
            <Position>
              <LatitudeDegrees>43.16316048614680767059326171875</LatitudeDegrees>
              <LongitudeDegrees>-1.6709329001605510711669921875</LongitudeDegrees>
            </Position>
            <AltitudeMeters>126.8000030517578125</AltitudeMeters>
            <DistanceMeters>NAN</DistanceMeters>
          </Trackpoint>
          <Trackpoint>
            <Time>2021-08-10T11:29:20.000Z</Time>
            <Position>
              <LatitudeDegrees>43.1631935946643352508544921875</LatitudeDegrees>
              <LongitudeDegrees>-1.6709442995488643646240234375</LongitudeDegrees>
            </Position>
            <AltitudeMeters>127</AltitudeMeters>
            <DistanceMeters>NAN</DistanceMeters>
          </Trackpoint>
          <Trackpoint>
            <Time>2021-08-10T11:29:21.000Z</Time>
            <Position>
              <LatitudeDegrees>43.16322720609605312347412109375</LatitudeDegrees>
              <LongitudeDegrees>-1.670958213508129119873046875</LongitudeDegrees>
            </Position>
            <AltitudeMeters>127</AltitudeMeters>
            <DistanceMeters>NAN</DistanceMeters>
          </Trackpoint>
          <Trackpoint>
            <Time>2021-08-10T11:29:22.000Z</Time>
            <Position>
              <LatitudeDegrees>43.16326291300356388092041015625</LatitudeDegrees>
              <LongitudeDegrees>-1.6709717921912670135498046875</LongitudeDegrees>
            </Position>
            <AltitudeMeters>127</AltitudeMeters>
            <DistanceMeters>NAN</DistanceMeters>
          </Trackpoint>
          <Trackpoint>
            <Time>2021-08-10T11:29:23.000Z</Time>
            <Position>
              <LatitudeDegrees>43.16329845227301120758056640625</LatitudeDegrees>
              <LongitudeDegrees>-1.67098562233150005340576171875</LongitudeDegrees>
            </Position>
            <AltitudeMeters>127</AltitudeMeters>
            <DistanceMeters>NAN</DistanceMeters>
          </Trackpoint>
          <Trackpoint>
            <Time>2021-08-10T11:29:24.000Z</Time>
            <Position>
              <LatitudeDegrees>43.16333256661891937255859375</LatitudeDegrees>
              <LongitudeDegrees>-1.67100171558558940887451171875</LongitudeDegrees>
            </Position>
            <AltitudeMeters>127</AltitudeMeters>
            <DistanceMeters>NAN</DistanceMeters>
          </Trackpoint>
          <Trackpoint>
            <Time>2021-08-10T11:29:25.000Z</Time>
            <Position>
              <LatitudeDegrees>43.16336416639387607574462890625</LatitudeDegrees>
              <LongitudeDegrees>-1.67101847939193248748779296875</LongitudeDegrees>
            </Position>
            <AltitudeMeters>127.1999969482421875</AltitudeMeters>
            <DistanceMeters>NAN</DistanceMeters>
          </Trackpoint>
          <Trackpoint>
            <Time>2021-08-10T11:29:26.000Z</Time>
            <Position>
              <LatitudeDegrees>43.16339283250272274017333984375</LatitudeDegrees>
              <LongitudeDegrees>-1.67103256098926067352294921875</LongitudeDegrees>
            </Position>
            <AltitudeMeters>127.1999969482421875</AltitudeMeters>
            <DistanceMeters>NAN</DistanceMeters>
          </Trackpoint>
          <Trackpoint>
            <Time>2021-08-10T11:29:27.000Z</Time>
            <Position>
              <LatitudeDegrees>43.16342200152575969696044921875</LatitudeDegrees>
              <LongitudeDegrees>-1.67104647494852542877197265625</LongitudeDegrees>
            </Position>
            <AltitudeMeters>127.1999969482421875</AltitudeMeters>
            <DistanceMeters>NAN</DistanceMeters>
          </Trackpoint>
          <Trackpoint>
            <Time>2021-08-10T11:29:28.000Z</Time>
            <Position>
              <LatitudeDegrees>43.16345234401524066925048828125</LatitudeDegrees>
              <LongitudeDegrees>-1.67106105946004390716552734375</LongitudeDegrees>
            </Position>
            <AltitudeMeters>127.1999969482421875</AltitudeMeters>
            <DistanceMeters>NAN</DistanceMeters>
          </Trackpoint>
          <Trackpoint>
            <Time>2021-08-10T11:29:29.000Z</Time>
            <Position>
              <LatitudeDegrees>43.16348285414278507232666015625</LatitudeDegrees>
              <LongitudeDegrees>-1.6710753925144672393798828125</LongitudeDegrees>
            </Position>
            <AltitudeMeters>127.1999969482421875</AltitudeMeters>
            <DistanceMeters>NAN</DistanceMeters>
          </Trackpoint>
          <Trackpoint>
            <Time>2021-08-10T11:29:30.000Z</Time>
            <Position>
              <LatitudeDegrees>43.16351068206131458282470703125</LatitudeDegrees>
              <LongitudeDegrees>-1.67109291069209575653076171875</LongitudeDegrees>
            </Position>
            <AltitudeMeters>127.1999969482421875</AltitudeMeters>
            <DistanceMeters>NAN</DistanceMeters>
          </Trackpoint>
          <Trackpoint>
            <Time>2021-08-10T11:29:31.000Z</Time>
            <Position>
              <LatitudeDegrees>43.16353901289403438568115234375</LatitudeDegrees>
              <LongitudeDegrees>-1.67110883630812168121337890625</LongitudeDegrees>
            </Position>
            <AltitudeMeters>127.1999969482421875</AltitudeMeters>
            <DistanceMeters>NAN</DistanceMeters>
          </Trackpoint>
          <Trackpoint>
            <Time>2021-08-10T11:29:32.000Z</Time>
            <Position>
              <LatitudeDegrees>43.163564912974834442138671875</LatitudeDegrees>
              <LongitudeDegrees>-1.671123839914798736572265625</LongitudeDegrees>
            </Position>
            <AltitudeMeters>127.1999969482421875</AltitudeMeters>
            <DistanceMeters>NAN</DistanceMeters>
          </Trackpoint>
          <Trackpoint>
            <Time>2021-08-10T11:29:33.000Z</Time>
            <Position>
              <LatitudeDegrees>43.1635878793895244598388671875</LatitudeDegrees>
              <LongitudeDegrees>-1.67113800533115863800048828125</LongitudeDegrees>
            </Position>
            <AltitudeMeters>127.1999969482421875</AltitudeMeters>
            <DistanceMeters>NAN</DistanceMeters>
          </Trackpoint>
          <Trackpoint>
            <Time>2021-08-10T11:29:34.000Z</Time>
            <Position>
              <LatitudeDegrees>43.16361512057483196258544921875</LatitudeDegrees>
              <LongitudeDegrees>-1.67114789597690105438232421875</LongitudeDegrees>
            </Position>
            <AltitudeMeters>127.40000152587890625</AltitudeMeters>
            <DistanceMeters>NAN</DistanceMeters>
          </Trackpoint>
          <Trackpoint>
            <Time>2021-08-10T11:29:35.000Z</Time>
            <Position>
              <LatitudeDegrees>43.1636468879878520965576171875</LatitudeDegrees>
              <LongitudeDegrees>-1.67115879245102405548095703125</LongitudeDegrees>
            </Position>
            <AltitudeMeters>127.40000152587890625</AltitudeMeters>
            <DistanceMeters>NAN</DistanceMeters>
          </Trackpoint>
          <Trackpoint>
            <Time>2021-08-10T11:29:36.000Z</Time>
            <Position>
              <LatitudeDegrees>43.1636757217347621917724609375</LatitudeDegrees>
              <LongitudeDegrees>-1.67117471806704998016357421875</LongitudeDegrees>
            </Position>
            <AltitudeMeters>127.40000152587890625</AltitudeMeters>
            <DistanceMeters>NAN</DistanceMeters>
          </Trackpoint>
          <Trackpoint>
            <Time>2021-08-10T11:29:38.000Z</Time>
            <Position>
              <LatitudeDegrees>43.16373297013342380523681640625</LatitudeDegrees>
              <LongitudeDegrees>-1.67120824567973613739013671875</LongitudeDegrees>
            </Position>
            <AltitudeMeters>127.40000152587890625</AltitudeMeters>
            <DistanceMeters>NAN</DistanceMeters>
          </Trackpoint>
          <Trackpoint>
            <Time>2021-08-10T11:29:39.000Z</Time>
            <Position>
              <LatitudeDegrees>43.1637585349380970001220703125</LatitudeDegrees>
              <LongitudeDegrees>-1.67122366838157176971435546875</LongitudeDegrees>
            </Position>
            <AltitudeMeters>127.40000152587890625</AltitudeMeters>
            <DistanceMeters>NAN</DistanceMeters>
          </Trackpoint>
          <Trackpoint>
            <Time>2021-08-10T11:29:40.000Z</Time>
            <Position>
              <LatitudeDegrees>43.16378426738083362579345703125</LatitudeDegrees>
              <LongitudeDegrees>-1.67124127037823200225830078125</LongitudeDegrees>
            </Position>
            <AltitudeMeters>127.40000152587890625</AltitudeMeters>
            <DistanceMeters>NAN</DistanceMeters>
          </Trackpoint>
          <Trackpoint>
            <Time>2021-08-10T11:29:41.000Z</Time>
            <Position>
              <LatitudeDegrees>43.16381142474710941314697265625</LatitudeDegrees>
              <LongitudeDegrees>-1.6712544299662113189697265625</LongitudeDegrees>
            </Position>
            <AltitudeMeters>127.40000152587890625</AltitudeMeters>
            <DistanceMeters>NAN</DistanceMeters>
          </Trackpoint>
          <Trackpoint>
            <Time>2021-08-10T11:29:43.000Z</Time>
            <Position>
              <LatitudeDegrees>43.163872696459293365478515625</LatitudeDegrees>
              <LongitudeDegrees>-1.67129005305469036102294921875</LongitudeDegrees>
            </Position>
            <AltitudeMeters>127.40000152587890625</AltitudeMeters>
            <DistanceMeters>NAN</DistanceMeters>
          </Trackpoint>
          <Trackpoint>
            <Time>2021-08-10T11:29:46.000Z</Time>
            <Position>
              <LatitudeDegrees>43.16394084133207798004150390625</LatitudeDegrees>
              <LongitudeDegrees>-1.6713332198560237884521484375</LongitudeDegrees>
            </Position>
            <AltitudeMeters>127.40000152587890625</AltitudeMeters>
            <DistanceMeters>NAN</DistanceMeters>
          </Trackpoint>
          <Trackpoint>
            <Time>2021-08-10T11:29:47.000Z</Time>
            <Position>
              <LatitudeDegrees>43.16395442001521587371826171875</LatitudeDegrees>
              <LongitudeDegrees>-1.67134503833949565887451171875</LongitudeDegrees>
            </Position>
            <AltitudeMeters>127.40000152587890625</AltitudeMeters>
            <DistanceMeters>NAN</DistanceMeters>
          </Trackpoint>
          <Trackpoint>
            <Time>2021-08-10T11:29:48.000Z</Time>
            <Position>
              <LatitudeDegrees>43.16396330483257770538330078125</LatitudeDegrees>
              <LongitudeDegrees>-1.6713528335094451904296875</LongitudeDegrees>
            </Position>
            <AltitudeMeters>127.40000152587890625</AltitudeMeters>
            <DistanceMeters>NAN</DistanceMeters>
          </Trackpoint>
          <Trackpoint>
            <Time>2021-08-10T11:29:49.000Z</Time>
            <Position>
              <LatitudeDegrees>43.16397017799317836761474609375</LatitudeDegrees>
              <LongitudeDegrees>-1.67135752737522125244140625</LongitudeDegrees>
            </Position>
            <AltitudeMeters>127.40000152587890625</AltitudeMeters>
            <DistanceMeters>NAN</DistanceMeters>
          </Trackpoint>
          <Trackpoint>
            <Time>2021-08-10T11:29:50.000Z</Time>
            <Position>
              <LatitudeDegrees>43.16397503949701786041259765625</LatitudeDegrees>
              <LongitudeDegrees>-1.67136347852647304534912109375</LongitudeDegrees>
            </Position>
            <AltitudeMeters>127.1999969482421875</AltitudeMeters>
            <DistanceMeters>NAN</DistanceMeters>
          </Trackpoint>
          <Trackpoint>
            <Time>2021-08-10T11:29:51.000Z</Time>
            <Position>
              <LatitudeDegrees>43.163979984819889068603515625</LatitudeDegrees>
              <LongitudeDegrees>-1.67136901058256626129150390625</LongitudeDegrees>
            </Position>
            <AltitudeMeters>127.1999969482421875</AltitudeMeters>
            <DistanceMeters>NAN</DistanceMeters>
          </Trackpoint>
          <Trackpoint>
            <Time>2021-08-10T11:29:52.000Z</Time>
            <Position>
              <LatitudeDegrees>43.16398560069501399993896484375</LatitudeDegrees>
              <LongitudeDegrees>-1.67137504555284976959228515625</LongitudeDegrees>
            </Position>
            <AltitudeMeters>127.1999969482421875</AltitudeMeters>
            <DistanceMeters>NAN</DistanceMeters>
          </Trackpoint>
          <Trackpoint>
            <Time>2021-08-10T11:29:53.000Z</Time>
            <Position>
              <LatitudeDegrees>43.16399264149367809295654296875</LatitudeDegrees>
              <LongitudeDegrees>-1.67138275690376758575439453125</LongitudeDegrees>
            </Position>
            <AltitudeMeters>127.1999969482421875</AltitudeMeters>
            <DistanceMeters>NAN</DistanceMeters>
          </Trackpoint>
          <Trackpoint>
            <Time>2021-08-10T11:29:54.000Z</Time>
            <Position>
              <LatitudeDegrees>43.16400186158716678619384765625</LatitudeDegrees>
              <LongitudeDegrees>-1.671392060816287994384765625</LongitudeDegrees>
            </Position>
            <AltitudeMeters>127.1999969482421875</AltitudeMeters>
            <DistanceMeters>NAN</DistanceMeters>
          </Trackpoint>
          <Trackpoint>
            <Time>2021-08-10T11:30:12.000Z</Time>
            <Position>
              <LatitudeDegrees>43.1648558937013149261474609375</LatitudeDegrees>
              <LongitudeDegrees>-1.67175843380391597747802734375</LongitudeDegrees>
            </Position>
            <AltitudeMeters>126.8000030517578125</AltitudeMeters>
            <DistanceMeters>NAN</DistanceMeters>
          </Trackpoint>
          <Trackpoint>
            <Time>2021-08-10T11:30:13.000Z</Time>
            <Position>
              <LatitudeDegrees>43.1649222783744335174560546875</LatitudeDegrees>
              <LongitudeDegrees>-1.6717704199254512786865234375</LongitudeDegrees>
            </Position>
            <AltitudeMeters>126.8000030517578125</AltitudeMeters>
            <DistanceMeters>NAN</DistanceMeters>
          </Trackpoint>
          <Trackpoint>
            <Time>2021-08-10T11:30:14.000Z</Time>
            <Position>
              <LatitudeDegrees>43.1649615056812763214111328125</LatitudeDegrees>
              <LongitudeDegrees>-1.67180637829005718231201171875</LongitudeDegrees>
            </Position>
            <AltitudeMeters>126.59999847412109375</AltitudeMeters>
            <DistanceMeters>NAN</DistanceMeters>
          </Trackpoint>
          <Trackpoint>
            <Time>2021-08-10T11:30:20.000Z</Time>
            <Position>
              <LatitudeDegrees>43.16516409628093242645263671875</LatitudeDegrees>
              <LongitudeDegrees>-1.6719427518546581268310546875</LongitudeDegrees>
            </Position>
            <AltitudeMeters>126.1999969482421875</AltitudeMeters>
            <DistanceMeters>NAN</DistanceMeters>
          </Trackpoint>
          <Trackpoint>
            <Time>2021-08-10T11:30:21.000Z</Time>
            <Position>
              <LatitudeDegrees>43.1651961989700794219970703125</LatitudeDegrees>
              <LongitudeDegrees>-1.67196228168904781341552734375</LongitudeDegrees>
            </Position>
            <AltitudeMeters>126</AltitudeMeters>
            <DistanceMeters>NAN</DistanceMeters>
          </Trackpoint>
          <Trackpoint>
            <Time>2021-08-10T11:30:22.000Z</Time>
            <Position>
              <LatitudeDegrees>43.16521924920380115509033203125</LatitudeDegrees>
              <LongitudeDegrees>-1.67198290117084980010986328125</LongitudeDegrees>
            </Position>
            <AltitudeMeters>126</AltitudeMeters>
            <DistanceMeters>NAN</DistanceMeters>
          </Trackpoint>
          <Trackpoint>
            <Time>2021-08-10T11:30:25.000Z</Time>
            <Position>
              <LatitudeDegrees>43.16529619507491588592529296875</LatitudeDegrees>
              <LongitudeDegrees>-1.6720295883715152740478515625</LongitudeDegrees>
            </Position>
            <AltitudeMeters>125.40000152587890625</AltitudeMeters>
            <DistanceMeters>NAN</DistanceMeters>
          </Trackpoint>
          <Trackpoint>
            <Time>2021-08-10T11:30:28.000Z</Time>
            <Position>
              <LatitudeDegrees>43.16538420505821704864501953125</LatitudeDegrees>
              <LongitudeDegrees>-1.67207309044897556304931640625</LongitudeDegrees>
            </Position>
            <AltitudeMeters>125.40000152587890625</AltitudeMeters>
            <DistanceMeters>NAN</DistanceMeters>
          </Trackpoint>
          <Trackpoint>
            <Time>2021-08-10T11:30:29.000Z</Time>
            <Position>
              <LatitudeDegrees>43.16541488282382488250732421875</LatitudeDegrees>
              <LongitudeDegrees>-1.67208298109471797943115234375</LongitudeDegrees>
            </Position>
            <AltitudeMeters>125.1999969482421875</AltitudeMeters>
            <DistanceMeters>NAN</DistanceMeters>
          </Trackpoint>
          <Trackpoint>
            <Time>2021-08-10T11:30:30.000Z</Time>
            <Position>
              <LatitudeDegrees>43.16544388420879840850830078125</LatitudeDegrees>
              <LongitudeDegrees>-1.6720942966639995574951171875</LongitudeDegrees>
            </Position>
            <AltitudeMeters>125.1999969482421875</AltitudeMeters>
            <DistanceMeters>NAN</DistanceMeters>
          </Trackpoint>
          <Trackpoint>
            <Time>2021-08-10T11:30:34.000Z</Time>
            <Position>
              <LatitudeDegrees>43.16554329358041286468505859375</LatitudeDegrees>
              <LongitudeDegrees>-1.67214835993945598602294921875</LongitudeDegrees>
            </Position>
            <AltitudeMeters>125</AltitudeMeters>
            <DistanceMeters>NAN</DistanceMeters>
          </Trackpoint>
          <Trackpoint>
            <Time>2021-08-10T11:30:35.000Z</Time>
            <Position>
              <LatitudeDegrees>43.16556123085319995880126953125</LatitudeDegrees>
              <LongitudeDegrees>-1.67215707711875438690185546875</LongitudeDegrees>
            </Position>
            <AltitudeMeters>125</AltitudeMeters>
            <DistanceMeters>NAN</DistanceMeters>
          </Trackpoint>
          <Trackpoint>
            <Time>2021-08-10T11:30:36.000Z</Time>
            <Position>
              <LatitudeDegrees>43.1655797548592090606689453125</LatitudeDegrees>
              <LongitudeDegrees>-1.67216210626065731048583984375</LongitudeDegrees>
            </Position>
            <AltitudeMeters>125.1999969482421875</AltitudeMeters>
            <DistanceMeters>NAN</DistanceMeters>
          </Trackpoint>
          <Trackpoint>
            <Time>2021-08-10T11:30:37.000Z</Time>
            <Position>
              <LatitudeDegrees>43.1655929982662200927734375</LatitudeDegrees>
              <LongitudeDegrees>-1.67216084897518157958984375</LongitudeDegrees>
            </Position>
            <AltitudeMeters>125</AltitudeMeters>
            <DistanceMeters>NAN</DistanceMeters>
          </Trackpoint>
          <Trackpoint>
            <Time>2021-08-10T11:30:40.000Z</Time>
            <Position>
              <LatitudeDegrees>43.16560029052197933197021484375</LatitudeDegrees>
              <LongitudeDegrees>-1.67216177098453044891357421875</LongitudeDegrees>
            </Position>
            <AltitudeMeters>125</AltitudeMeters>
            <DistanceMeters>NAN</DistanceMeters>
          </Trackpoint>
          <Trackpoint>
            <Time>2021-08-10T11:30:43.000Z</Time>
            <Position>
              <LatitudeDegrees>43.1656095944344997406005859375</LatitudeDegrees>
              <LongitudeDegrees>-1.672177948057651519775390625</LongitudeDegrees>
            </Position>
            <AltitudeMeters>125</AltitudeMeters>
            <DistanceMeters>NAN</DistanceMeters>
          </Trackpoint>
          <Trackpoint>
            <Time>2021-08-10T11:30:44.000Z</Time>
            <Position>
              <LatitudeDegrees>43.1656156294047832489013671875</LatitudeDegrees>
              <LongitudeDegrees>-1.67218096554279327392578125</LongitudeDegrees>
            </Position>
            <AltitudeMeters>125</AltitudeMeters>
            <DistanceMeters>NAN</DistanceMeters>
          </Trackpoint>
          <Trackpoint>
            <Time>2021-08-10T11:30:47.000Z</Time>
            <Position>
              <LatitudeDegrees>43.16562443040311336517333984375</LatitudeDegrees>
              <LongitudeDegrees>-1.67217400856316089630126953125</LongitudeDegrees>
            </Position>
            <AltitudeMeters>124.8000030517578125</AltitudeMeters>
            <DistanceMeters>NAN</DistanceMeters>
          </Trackpoint>
          <Trackpoint>
            <Time>2021-08-10T11:31:23.000Z</Time>
            <Position>
              <LatitudeDegrees>43.1656360812485218048095703125</LatitudeDegrees>
              <LongitudeDegrees>-1.67216747067868709564208984375</LongitudeDegrees>
            </Position>
            <AltitudeMeters>125.1999969482421875</AltitudeMeters>
            <DistanceMeters>NAN</DistanceMeters>
          </Trackpoint>
          <Trackpoint>
            <Time>2021-08-10T11:33:10.000Z</Time>
            <Position>
              <LatitudeDegrees>43.16563348285853862762451171875</LatitudeDegrees>
              <LongitudeDegrees>-1.67215925641357898712158203125</LongitudeDegrees>
            </Position>
            <AltitudeMeters>125.40000152587890625</AltitudeMeters>
            <DistanceMeters>NAN</DistanceMeters>
          </Trackpoint>
          <Trackpoint>
            <Time>2021-08-10T11:33:27.000Z</Time>
            <Position>
              <LatitudeDegrees>43.16564387641847133636474609375</LatitudeDegrees>
              <LongitudeDegrees>-1.67216227389872074127197265625</LongitudeDegrees>
            </Position>
            <AltitudeMeters>125.40000152587890625</AltitudeMeters>
            <DistanceMeters>NAN</DistanceMeters>
          </Trackpoint>
          <Trackpoint>
            <Time>2021-08-10T11:34:07.000Z</Time>
            <Position>
              <LatitudeDegrees>43.16563658416271209716796875</LatitudeDegrees>
              <LongitudeDegrees>-1.6721432469785213470458984375</LongitudeDegrees>
            </Position>
            <AltitudeMeters>125</AltitudeMeters>
            <DistanceMeters>NAN</DistanceMeters>
          </Trackpoint>
          <Trackpoint>
            <Time>2021-08-10T11:34:10.000Z</Time>
            <Position>
              <LatitudeDegrees>43.16568662412464618682861328125</LatitudeDegrees>
              <LongitudeDegrees>-1.67216487228870391845703125</LongitudeDegrees>
            </Position>
            <AltitudeMeters>125</AltitudeMeters>
            <DistanceMeters>NAN</DistanceMeters>
          </Trackpoint>
          <Trackpoint>
            <Time>2021-08-10T11:34:11.000Z</Time>
            <Position>
              <LatitudeDegrees>43.1657054834067821502685546875</LatitudeDegrees>
              <LongitudeDegrees>-1.67217803187668323516845703125</LongitudeDegrees>
            </Position>
            <AltitudeMeters>125</AltitudeMeters>
            <DistanceMeters>NAN</DistanceMeters>
          </Trackpoint>
          <Trackpoint>
            <Time>2021-08-10T11:34:13.000Z</Time>
            <Position>
              <LatitudeDegrees>43.16573842428624629974365234375</LatitudeDegrees>
              <LongitudeDegrees>-1.67221256531774997711181640625</LongitudeDegrees>
            </Position>
            <AltitudeMeters>125</AltitudeMeters>
            <DistanceMeters>NAN</DistanceMeters>
          </Trackpoint>
          <Trackpoint>
            <Time>2021-08-10T11:34:14.000Z</Time>
            <Position>
              <LatitudeDegrees>43.16575082950294017791748046875</LatitudeDegrees>
              <LongitudeDegrees>-1.67222983203828334808349609375</LongitudeDegrees>
            </Position>
            <AltitudeMeters>125</AltitudeMeters>
            <DistanceMeters>NAN</DistanceMeters>
          </Trackpoint>
          <Trackpoint>
            <Time>2021-08-10T11:34:17.000Z</Time>
            <Position>
              <LatitudeDegrees>43.16579106263816356658935546875</LatitudeDegrees>
              <LongitudeDegrees>-1.67228096164762973785400390625</LongitudeDegrees>
            </Position>
            <AltitudeMeters>125</AltitudeMeters>
            <DistanceMeters>NAN</DistanceMeters>
          </Trackpoint>
          <Trackpoint>
            <Time>2021-08-10T11:34:24.000Z</Time>
            <Position>
              <LatitudeDegrees>43.165899775922298431396484375</LatitudeDegrees>
              <LongitudeDegrees>-1.67239487171173095703125</LongitudeDegrees>
            </Position>
            <AltitudeMeters>125</AltitudeMeters>
            <DistanceMeters>NAN</DistanceMeters>
          </Trackpoint>
          <Trackpoint>
            <Time>2021-08-10T11:34:25.000Z</Time>
            <Position>
              <LatitudeDegrees>43.16591360606253147125244140625</LatitudeDegrees>
              <LongitudeDegrees>-1.6724134795367717742919921875</LongitudeDegrees>
            </Position>
            <AltitudeMeters>125.1999969482421875</AltitudeMeters>
            <DistanceMeters>NAN</DistanceMeters>
          </Trackpoint>
          <Trackpoint>
            <Time>2021-08-10T11:34:26.000Z</Time>
            <Position>
              <LatitudeDegrees>43.1659309566020965576171875</LatitudeDegrees>
              <LongitudeDegrees>-1.67243267409503459930419921875</LongitudeDegrees>
            </Position>
            <AltitudeMeters>125.1999969482421875</AltitudeMeters>
            <DistanceMeters>NAN</DistanceMeters>
          </Trackpoint>
          <Trackpoint>
            <Time>2021-08-10T11:34:31.000Z</Time>
            <Position>
              <LatitudeDegrees>43.16601066850125789642333984375</LatitudeDegrees>
              <LongitudeDegrees>-1.672526299953460693359375</LongitudeDegrees>
            </Position>
            <AltitudeMeters>125.40000152587890625</AltitudeMeters>
            <DistanceMeters>NAN</DistanceMeters>
          </Trackpoint>
          <Trackpoint>
            <Time>2021-08-10T11:34:37.000Z</Time>
            <Position>
              <LatitudeDegrees>43.16611477173864841461181640625</LatitudeDegrees>
              <LongitudeDegrees>-1.67265839874744415283203125</LongitudeDegrees>
            </Position>
            <AltitudeMeters>125.1999969482421875</AltitudeMeters>
            <DistanceMeters>NAN</DistanceMeters>
          </Trackpoint>
          <Trackpoint>
            <Time>2021-08-10T11:34:45.000Z</Time>
            <Position>
              <LatitudeDegrees>43.16624033264815807342529296875</LatitudeDegrees>
              <LongitudeDegrees>-1.67281891219317913055419921875</LongitudeDegrees>
            </Position>
            <AltitudeMeters>125</AltitudeMeters>
            <DistanceMeters>NAN</DistanceMeters>
          </Trackpoint>
          <Trackpoint>
            <Time>2021-08-10T11:34:50.000Z</Time>
            <Position>
              <LatitudeDegrees>43.16630847752094268798828125</LatitudeDegrees>
              <LongitudeDegrees>-1.67294363491237163543701171875</LongitudeDegrees>
            </Position>
            <AltitudeMeters>124.59999847412109375</AltitudeMeters>
            <DistanceMeters>NAN</DistanceMeters>
          </Trackpoint>
          <Trackpoint>
            <Time>2021-08-10T11:34:52.000Z</Time>
            <Position>
              <LatitudeDegrees>43.16634309478104114532470703125</LatitudeDegrees>
              <LongitudeDegrees>-1.6729878075420856475830078125</LongitudeDegrees>
            </Position>
            <AltitudeMeters>124.59999847412109375</AltitudeMeters>
            <DistanceMeters>NAN</DistanceMeters>
          </Trackpoint>
          <Trackpoint>
            <Time>2021-08-10T11:34:54.000Z</Time>
            <Position>
              <LatitudeDegrees>43.1663599424064159393310546875</LatitudeDegrees>
              <LongitudeDegrees>-1.67303415946662425994873046875</LongitudeDegrees>
            </Position>
            <AltitudeMeters>124.59999847412109375</AltitudeMeters>
            <DistanceMeters>NAN</DistanceMeters>
          </Trackpoint>
          <Trackpoint>
            <Time>2021-08-10T11:34:56.000Z</Time>
            <Position>
              <LatitudeDegrees>43.16637310199439525604248046875</LatitudeDegrees>
              <LongitudeDegrees>-1.67307623662054538726806640625</LongitudeDegrees>
            </Position>
            <AltitudeMeters>124.40000152587890625</AltitudeMeters>
            <DistanceMeters>NAN</DistanceMeters>
          </Trackpoint>
          <Trackpoint>
            <Time>2021-08-10T11:34:57.000Z</Time>
            <Position>
              <LatitudeDegrees>43.166382573544979095458984375</LatitudeDegrees>
              <LongitudeDegrees>-1.67310959659516811370849609375</LongitudeDegrees>
            </Position>
            <AltitudeMeters>124.40000152587890625</AltitudeMeters>
            <DistanceMeters>NAN</DistanceMeters>
          </Trackpoint>
          <Trackpoint>
            <Time>2021-08-10T11:34:58.000Z</Time>
            <Position>
              <LatitudeDegrees>43.16639439202845096588134765625</LatitudeDegrees>
              <LongitudeDegrees>-1.67313591577112674713134765625</LongitudeDegrees>
            </Position>
            <AltitudeMeters>124.40000152587890625</AltitudeMeters>
            <DistanceMeters>NAN</DistanceMeters>
          </Trackpoint>
          <Trackpoint>
            <Time>2021-08-10T11:35:01.000Z</Time>
            <Position>
              <LatitudeDegrees>43.16644552163779735565185546875</LatitudeDegrees>
              <LongitudeDegrees>-1.6732033900916576385498046875</LongitudeDegrees>
            </Position>
            <AltitudeMeters>124.40000152587890625</AltitudeMeters>
            <DistanceMeters>NAN</DistanceMeters>
          </Trackpoint>
          <Trackpoint>
            <Time>2021-08-10T11:35:02.000Z</Time>
            <Position>
              <LatitudeDegrees>43.1664618663489818572998046875</LatitudeDegrees>
              <LongitudeDegrees>-1.67323482222855091094970703125</LongitudeDegrees>
            </Position>
            <AltitudeMeters>124.40000152587890625</AltitudeMeters>
            <DistanceMeters>NAN</DistanceMeters>
          </Trackpoint>
          <Trackpoint>
            <Time>2021-08-10T11:35:03.000Z</Time>
            <Position>
              <LatitudeDegrees>43.16647284664213657379150390625</LatitudeDegrees>
              <LongitudeDegrees>-1.67326315306127071380615234375</LongitudeDegrees>
            </Position>
            <AltitudeMeters>124.40000152587890625</AltitudeMeters>
            <DistanceMeters>NAN</DistanceMeters>
          </Trackpoint>
          <Trackpoint>
            <Time>2021-08-10T11:35:09.000Z</Time>
            <Position>
              <LatitudeDegrees>43.1665440090000629425048828125</LatitudeDegrees>
              <LongitudeDegrees>-1.67340933345258235931396484375</LongitudeDegrees>
            </Position>
            <AltitudeMeters>124.8000030517578125</AltitudeMeters>
            <DistanceMeters>NAN</DistanceMeters>
          </Trackpoint>
          <Trackpoint>
            <Time>2021-08-10T11:35:10.000Z</Time>
            <Position>
              <LatitudeDegrees>43.16655448637902736663818359375</LatitudeDegrees>
              <LongitudeDegrees>-1.673425175249576568603515625</LongitudeDegrees>
            </Position>
            <AltitudeMeters>124.8000030517578125</AltitudeMeters>
            <DistanceMeters>NAN</DistanceMeters>
          </Trackpoint>
          <Trackpoint>
            <Time>2021-08-10T11:35:11.000Z</Time>
            <Position>
              <LatitudeDegrees>43.16656655631959438323974609375</LatitudeDegrees>
              <LongitudeDegrees>-1.6734457947313785552978515625</LongitudeDegrees>
            </Position>
            <AltitudeMeters>124.8000030517578125</AltitudeMeters>
            <DistanceMeters>NAN</DistanceMeters>
          </Trackpoint>
          <Trackpoint>
            <Time>2021-08-10T11:35:12.000Z</Time>
            <Position>
              <LatitudeDegrees>43.1665765307843685150146484375</LatitudeDegrees>
              <LongitudeDegrees>-1.67346599511802196502685546875</LongitudeDegrees>
            </Position>
            <AltitudeMeters>124.8000030517578125</AltitudeMeters>
            <DistanceMeters>NAN</DistanceMeters>
          </Trackpoint>
          <Trackpoint>
            <Time>2021-08-10T11:35:13.000Z</Time>
            <Position>
              <LatitudeDegrees>43.1665907800197601318359375</LatitudeDegrees>
              <LongitudeDegrees>-1.6734890453517436981201171875</LongitudeDegrees>
            </Position>
            <AltitudeMeters>124.59999847412109375</AltitudeMeters>
            <DistanceMeters>NAN</DistanceMeters>
          </Trackpoint>
          <Trackpoint>
            <Time>2021-08-10T11:35:14.000Z</Time>
            <Position>
              <LatitudeDegrees>43.1666046939790248870849609375</LatitudeDegrees>
              <LongitudeDegrees>-1.6735081560909748077392578125</LongitudeDegrees>
            </Position>
            <AltitudeMeters>124.59999847412109375</AltitudeMeters>
            <DistanceMeters>NAN</DistanceMeters>
          </Trackpoint>
          <Trackpoint>
            <Time>2021-08-10T11:35:15.000Z</Time>
            <Position>
              <LatitudeDegrees>43.16661533899605274200439453125</LatitudeDegrees>
              <LongitudeDegrees>-1.67352684773504734039306640625</LongitudeDegrees>
            </Position>
            <AltitudeMeters>124.59999847412109375</AltitudeMeters>
            <DistanceMeters>NAN</DistanceMeters>
          </Trackpoint>
          <Trackpoint>
            <Time>2021-08-10T11:35:16.000Z</Time>
            <Position>
              <LatitudeDegrees>43.1666254810988903045654296875</LatitudeDegrees>
              <LongitudeDegrees>-1.67354227043688297271728515625</LongitudeDegrees>
            </Position>
            <AltitudeMeters>124.59999847412109375</AltitudeMeters>
            <DistanceMeters>NAN</DistanceMeters>
          </Trackpoint>
          <Trackpoint>
            <Time>2021-08-10T11:35:17.000Z</Time>
            <Position>
              <LatitudeDegrees>43.166634030640125274658203125</LatitudeDegrees>
              <LongitudeDegrees>-1.6735520772635936737060546875</LongitudeDegrees>
            </Position>
            <AltitudeMeters>124.59999847412109375</AltitudeMeters>
            <DistanceMeters>NAN</DistanceMeters>
          </Trackpoint>
          <Trackpoint>
            <Time>2021-08-10T11:35:18.000Z</Time>
            <Position>
              <LatitudeDegrees>43.1666479445993900299072265625</LatitudeDegrees>
              <LongitudeDegrees>-1.6735638119280338287353515625</LongitudeDegrees>
            </Position>
            <AltitudeMeters>124.59999847412109375</AltitudeMeters>
            <DistanceMeters>NAN</DistanceMeters>
          </Trackpoint>
          <Trackpoint>
            <Time>2021-08-10T11:35:19.000Z</Time>
            <Position>
              <LatitudeDegrees>43.16666127182543277740478515625</LatitudeDegrees>
              <LongitudeDegrees>-1.67357261292636394500732421875</LongitudeDegrees>
            </Position>
            <AltitudeMeters>124.59999847412109375</AltitudeMeters>
            <DistanceMeters>NAN</DistanceMeters>
          </Trackpoint>
          <Trackpoint>
            <Time>2021-08-10T11:35:20.000Z</Time>
            <Position>
              <LatitudeDegrees>43.16666923463344573974609375</LatitudeDegrees>
              <LongitudeDegrees>-1.6735825873911380767822265625</LongitudeDegrees>
            </Position>
            <AltitudeMeters>124.59999847412109375</AltitudeMeters>
            <DistanceMeters>NAN</DistanceMeters>
          </Trackpoint>
          <Trackpoint>
            <Time>2021-08-10T11:35:21.000Z</Time>
            <Position>
              <LatitudeDegrees>43.1666747666895389556884765625</LatitudeDegrees>
              <LongitudeDegrees>-1.6735978424549102783203125</LongitudeDegrees>
            </Position>
            <AltitudeMeters>124.59999847412109375</AltitudeMeters>
            <DistanceMeters>NAN</DistanceMeters>
          </Trackpoint>
          <Trackpoint>
            <Time>2021-08-10T11:35:22.000Z</Time>
            <Position>
              <LatitudeDegrees>43.1666774488985538482666015625</LatitudeDegrees>
              <LongitudeDegrees>-1.6736139357089996337890625</LongitudeDegrees>
            </Position>
            <AltitudeMeters>124.59999847412109375</AltitudeMeters>
            <DistanceMeters>NAN</DistanceMeters>
          </Trackpoint>
          <Trackpoint>
            <Time>2021-08-10T11:35:23.000Z</Time>
            <Position>
              <LatitudeDegrees>43.1666730903089046478271484375</LatitudeDegrees>
              <LongitudeDegrees>-1.673626005649566650390625</LongitudeDegrees>
            </Position>
            <AltitudeMeters>124.8000030517578125</AltitudeMeters>
            <DistanceMeters>NAN</DistanceMeters>
          </Trackpoint>
          <Trackpoint>
            <Time>2021-08-10T11:35:24.000Z</Time>
            <Position>
              <LatitudeDegrees>43.1666637025773525238037109375</LatitudeDegrees>
              <LongitudeDegrees>-1.673626340925693511962890625</LongitudeDegrees>
            </Position>
            <AltitudeMeters>124.8000030517578125</AltitudeMeters>
            <DistanceMeters>NAN</DistanceMeters>
          </Trackpoint>
          <Trackpoint>
            <Time>2021-08-10T11:35:25.000Z</Time>
            <Position>
              <LatitudeDegrees>43.16665456630289554595947265625</LatitudeDegrees>
              <LongitudeDegrees>-1.67361100204288959503173828125</LongitudeDegrees>
            </Position>
            <AltitudeMeters>124.8000030517578125</AltitudeMeters>
            <DistanceMeters>NAN</DistanceMeters>
          </Trackpoint>
          <Trackpoint>
            <Time>2021-08-10T11:35:26.000Z</Time>
            <Position>
              <LatitudeDegrees>43.1666509620845317840576171875</LatitudeDegrees>
              <LongitudeDegrees>-1.67359356768429279327392578125</LongitudeDegrees>
            </Position>
            <AltitudeMeters>124.8000030517578125</AltitudeMeters>
            <DistanceMeters>NAN</DistanceMeters>
          </Trackpoint>
          <Trackpoint>
            <Time>2021-08-10T11:35:28.000Z</Time>
            <Position>
              <LatitudeDegrees>43.16665842197835445404052734375</LatitudeDegrees>
              <LongitudeDegrees>-1.67354755103588104248046875</LongitudeDegrees>
            </Position>
            <AltitudeMeters>124.8000030517578125</AltitudeMeters>
            <DistanceMeters>NAN</DistanceMeters>
          </Trackpoint>
          <Trackpoint>
            <Time>2021-08-10T11:35:29.000Z</Time>
            <Position>
              <LatitudeDegrees>43.16666931845247745513916015625</LatitudeDegrees>
              <LongitudeDegrees>-1.67354495264589786529541015625</LongitudeDegrees>
            </Position>
            <AltitudeMeters>124.8000030517578125</AltitudeMeters>
            <DistanceMeters>NAN</DistanceMeters>
          </Trackpoint>
          <Trackpoint>
            <Time>2021-08-10T11:35:30.000Z</Time>
            <Position>
              <LatitudeDegrees>43.16667770035564899444580078125</LatitudeDegrees>
              <LongitudeDegrees>-1.67355601675808429718017578125</LongitudeDegrees>
            </Position>
            <AltitudeMeters>124.8000030517578125</AltitudeMeters>
            <DistanceMeters>NAN</DistanceMeters>
          </Trackpoint>
          <Trackpoint>
            <Time>2021-08-10T11:35:33.000Z</Time>
            <Position>
              <LatitudeDegrees>43.166693709790706634521484375</LatitudeDegrees>
              <LongitudeDegrees>-1.67360127903521060943603515625</LongitudeDegrees>
            </Position>
            <AltitudeMeters>124.8000030517578125</AltitudeMeters>
            <DistanceMeters>NAN</DistanceMeters>
          </Trackpoint>
          <Trackpoint>
            <Time>2021-08-10T11:35:34.000Z</Time>
            <Position>
              <LatitudeDegrees>43.1667034327983856201171875</LatitudeDegrees>
              <LongitudeDegrees>-1.67361871339380741119384765625</LongitudeDegrees>
            </Position>
            <AltitudeMeters>124.8000030517578125</AltitudeMeters>
            <DistanceMeters>NAN</DistanceMeters>
          </Trackpoint>
          <Trackpoint>
            <Time>2021-08-10T11:35:35.000Z</Time>
            <Position>
              <LatitudeDegrees>43.16671340726315975189208984375</LatitudeDegrees>
              <LongitudeDegrees>-1.67363916523754596710205078125</LongitudeDegrees>
            </Position>
            <AltitudeMeters>124.8000030517578125</AltitudeMeters>
            <DistanceMeters>NAN</DistanceMeters>
          </Trackpoint>
          <Trackpoint>
            <Time>2021-08-10T11:35:39.000Z</Time>
            <Position>
              <LatitudeDegrees>43.16675414331257343292236328125</LatitudeDegrees>
              <LongitudeDegrees>-1.6737562604248523712158203125</LongitudeDegrees>
            </Position>
            <AltitudeMeters>124.8000030517578125</AltitudeMeters>
            <DistanceMeters>NAN</DistanceMeters>
          </Trackpoint>
          <Trackpoint>
            <Time>2021-08-10T11:35:41.000Z</Time>
            <Position>
              <LatitudeDegrees>43.16678029485046863555908203125</LatitudeDegrees>
              <LongitudeDegrees>-1.6738095693290233612060546875</LongitudeDegrees>
            </Position>
            <AltitudeMeters>124.8000030517578125</AltitudeMeters>
            <DistanceMeters>NAN</DistanceMeters>
          </Trackpoint>
          <Trackpoint>
            <Time>2021-08-10T11:35:43.000Z</Time>
            <Position>
              <LatitudeDegrees>43.1668038479983806610107421875</LatitudeDegrees>
              <LongitudeDegrees>-1.6738806478679180145263671875</LongitudeDegrees>
            </Position>
            <AltitudeMeters>124.8000030517578125</AltitudeMeters>
            <DistanceMeters>NAN</DistanceMeters>
          </Trackpoint>
          <Trackpoint>
            <Time>2021-08-10T11:35:48.000Z</Time>
            <Position>
              <LatitudeDegrees>43.16687040030956268310546875</LatitudeDegrees>
              <LongitudeDegrees>-1.67402825318276882171630859375</LongitudeDegrees>
            </Position>
            <AltitudeMeters>124.59999847412109375</AltitudeMeters>
            <DistanceMeters>NAN</DistanceMeters>
          </Trackpoint>
          <Trackpoint>
            <Time>2021-08-10T11:35:50.000Z</Time>
            <Position>
              <LatitudeDegrees>43.166890852153301239013671875</LatitudeDegrees>
              <LongitudeDegrees>-1.67407929897308349609375</LongitudeDegrees>
            </Position>
            <AltitudeMeters>124.59999847412109375</AltitudeMeters>
            <DistanceMeters>NAN</DistanceMeters>
          </Trackpoint>
          <Trackpoint>
            <Time>2021-08-10T11:35:51.000Z</Time>
            <Position>
              <LatitudeDegrees>43.166900575160980224609375</LatitudeDegrees>
              <LongitudeDegrees>-1.67409614659845829010009765625</LongitudeDegrees>
            </Position>
            <AltitudeMeters>124.59999847412109375</AltitudeMeters>
            <DistanceMeters>NAN</DistanceMeters>
          </Trackpoint>
          <Trackpoint>
            <Time>2021-08-10T11:35:52.000Z</Time>
            <Position>
              <LatitudeDegrees>43.1669124774634838104248046875</LatitudeDegrees>
              <LongitudeDegrees>-1.67412095703184604644775390625</LongitudeDegrees>
            </Position>
            <AltitudeMeters>124.59999847412109375</AltitudeMeters>
            <DistanceMeters>NAN</DistanceMeters>
          </Trackpoint>
          <Trackpoint>
            <Time>2021-08-10T11:35:53.000Z</Time>
            <Position>
              <LatitudeDegrees>43.1669252179563045501708984375</LatitudeDegrees>
              <LongitudeDegrees>-1.67415599338710308074951171875</LongitudeDegrees>
            </Position>
            <AltitudeMeters>124.59999847412109375</AltitudeMeters>
            <DistanceMeters>NAN</DistanceMeters>
          </Trackpoint>
          <Trackpoint>
            <Time>2021-08-10T11:35:54.000Z</Time>
            <Position>
              <LatitudeDegrees>43.166935443878173828125</LatitudeDegrees>
              <LongitudeDegrees>-1.674182899296283721923828125</LongitudeDegrees>
            </Position>
            <AltitudeMeters>124.59999847412109375</AltitudeMeters>
            <DistanceMeters>NAN</DistanceMeters>
          </Trackpoint>
          <Trackpoint>
            <Time>2021-08-10T11:35:55.000Z</Time>
            <Position>
              <LatitudeDegrees>43.166943825781345367431640625</LatitudeDegrees>
              <LongitudeDegrees>-1.6742031835019588470458984375</LongitudeDegrees>
            </Position>
            <AltitudeMeters>124.59999847412109375</AltitudeMeters>
            <DistanceMeters>NAN</DistanceMeters>
          </Trackpoint>
          <Trackpoint>
            <Time>2021-08-10T11:35:56.000Z</Time>
            <Position>
              <LatitudeDegrees>43.16695581190288066864013671875</LatitudeDegrees>
              <LongitudeDegrees>-1.67422908358275890350341796875</LongitudeDegrees>
            </Position>
            <AltitudeMeters>124.59999847412109375</AltitudeMeters>
            <DistanceMeters>NAN</DistanceMeters>
          </Trackpoint>
          <Trackpoint>
            <Time>2021-08-10T11:36:02.000Z</Time>
            <Position>
              <LatitudeDegrees>43.1670217774808406829833984375</LatitudeDegrees>
              <LongitudeDegrees>-1.67441683821380138397216796875</LongitudeDegrees>
            </Position>
            <AltitudeMeters>124.8000030517578125</AltitudeMeters>
            <DistanceMeters>NAN</DistanceMeters>
          </Trackpoint>
          <Trackpoint>
            <Time>2021-08-10T11:36:04.000Z</Time>
            <Position>
              <LatitudeDegrees>43.16703644581139087677001953125</LatitudeDegrees>
              <LongitudeDegrees>-1.67447852902114391326904296875</LongitudeDegrees>
            </Position>
            <AltitudeMeters>124.8000030517578125</AltitudeMeters>
            <DistanceMeters>NAN</DistanceMeters>
          </Trackpoint>
          <Trackpoint>
            <Time>2021-08-10T11:36:05.000Z</Time>
            <Position>
              <LatitudeDegrees>43.16704415716230869293212890625</LatitudeDegrees>
              <LongitudeDegrees>-1.67450266890227794647216796875</LongitudeDegrees>
            </Position>
            <AltitudeMeters>125</AltitudeMeters>
            <DistanceMeters>NAN</DistanceMeters>
          </Trackpoint>
          <Trackpoint>
            <Time>2021-08-10T11:36:06.000Z</Time>
            <Position>
              <LatitudeDegrees>43.1670502759516239166259765625</LatitudeDegrees>
              <LongitudeDegrees>-1.67452060617506504058837890625</LongitudeDegrees>
            </Position>
            <AltitudeMeters>125</AltitudeMeters>
            <DistanceMeters>NAN</DistanceMeters>
          </Trackpoint>
          <Trackpoint>
            <Time>2021-08-10T11:36:07.000Z</Time>
            <Position>
              <LatitudeDegrees>43.16705815494060516357421875</LatitudeDegrees>
              <LongitudeDegrees>-1.67454441078007221221923828125</LongitudeDegrees>
            </Position>
            <AltitudeMeters>125</AltitudeMeters>
            <DistanceMeters>NAN</DistanceMeters>
          </Trackpoint>
          <Trackpoint>
            <Time>2021-08-10T11:36:08.000Z</Time>
            <Position>
              <LatitudeDegrees>43.16706276498734951019287109375</LatitudeDegrees>
              <LongitudeDegrees>-1.67456679046154022216796875</LongitudeDegrees>
            </Position>
            <AltitudeMeters>125</AltitudeMeters>
            <DistanceMeters>NAN</DistanceMeters>
          </Trackpoint>
          <Trackpoint>
            <Time>2021-08-10T11:36:09.000Z</Time>
            <Position>
              <LatitudeDegrees>43.16707424819469451904296875</LatitudeDegrees>
              <LongitudeDegrees>-1.6745929419994354248046875</LongitudeDegrees>
            </Position>
            <AltitudeMeters>125</AltitudeMeters>
            <DistanceMeters>NAN</DistanceMeters>
          </Trackpoint>
          <Trackpoint>
            <Time>2021-08-10T11:36:10.000Z</Time>
            <Position>
              <LatitudeDegrees>43.16708539612591266632080078125</LatitudeDegrees>
              <LongitudeDegrees>-1.67462001554667949676513671875</LongitudeDegrees>
            </Position>
            <AltitudeMeters>125</AltitudeMeters>
            <DistanceMeters>NAN</DistanceMeters>
          </Trackpoint>
          <Trackpoint>
            <Time>2021-08-10T11:36:17.000Z</Time>
            <Position>
              <LatitudeDegrees>43.1671863980591297149658203125</LatitudeDegrees>
              <LongitudeDegrees>-1.67483928613364696502685546875</LongitudeDegrees>
            </Position>
            <AltitudeMeters>125</AltitudeMeters>
            <DistanceMeters>NAN</DistanceMeters>
          </Trackpoint>
          <Trackpoint>
            <Time>2021-08-10T11:36:25.000Z</Time>
            <Position>
              <LatitudeDegrees>43.167301900684833526611328125</LatitudeDegrees>
              <LongitudeDegrees>-1.67513064108788967132568359375</LongitudeDegrees>
            </Position>
            <AltitudeMeters>125</AltitudeMeters>
            <DistanceMeters>NAN</DistanceMeters>
          </Trackpoint>
          <Trackpoint>
            <Time>2021-08-10T11:36:31.000Z</Time>
            <Position>
              <LatitudeDegrees>43.167397119104862213134765625</LatitudeDegrees>
              <LongitudeDegrees>-1.6753236763179302215576171875</LongitudeDegrees>
            </Position>
            <AltitudeMeters>125</AltitudeMeters>
            <DistanceMeters>NAN</DistanceMeters>
          </Trackpoint>
          <Trackpoint>
            <Time>2021-08-10T11:36:32.000Z</Time>
            <Position>
              <LatitudeDegrees>43.1674086861312389373779296875</LatitudeDegrees>
              <LongitudeDegrees>-1.67535108514130115509033203125</LongitudeDegrees>
            </Position>
            <AltitudeMeters>124.8000030517578125</AltitudeMeters>
            <DistanceMeters>NAN</DistanceMeters>
          </Trackpoint>
          <Trackpoint>
            <Time>2021-08-10T11:36:33.000Z</Time>
            <Position>
              <LatitudeDegrees>43.16742293536663055419921875</LatitudeDegrees>
              <LongitudeDegrees>-1.6753833554685115814208984375</LongitudeDegrees>
            </Position>
            <AltitudeMeters>124.8000030517578125</AltitudeMeters>
            <DistanceMeters>NAN</DistanceMeters>
          </Trackpoint>
          <Trackpoint>
            <Time>2021-08-10T11:36:37.000Z</Time>
            <Position>
              <LatitudeDegrees>43.16747800447046756744384765625</LatitudeDegrees>
              <LongitudeDegrees>-1.6755027137696743011474609375</LongitudeDegrees>
            </Position>
            <AltitudeMeters>124.59999847412109375</AltitudeMeters>
            <DistanceMeters>NAN</DistanceMeters>
          </Trackpoint>
          <Trackpoint>
            <Time>2021-08-10T11:36:38.000Z</Time>
            <Position>
              <LatitudeDegrees>43.1674928404390811920166015625</LatitudeDegrees>
              <LongitudeDegrees>-1.67553448118269443511962890625</LongitudeDegrees>
            </Position>
            <AltitudeMeters>124.59999847412109375</AltitudeMeters>
            <DistanceMeters>NAN</DistanceMeters>
          </Trackpoint>
          <Trackpoint>
            <Time>2021-08-10T11:36:39.000Z</Time>
            <Position>
              <LatitudeDegrees>43.16750197671353816986083984375</LatitudeDegrees>
              <LongitudeDegrees>-1.675558872520923614501953125</LongitudeDegrees>
            </Position>
            <AltitudeMeters>124.59999847412109375</AltitudeMeters>
            <DistanceMeters>NAN</DistanceMeters>
          </Trackpoint>
          <Trackpoint>
            <Time>2021-08-10T11:36:40.000Z</Time>
            <Position>
              <LatitudeDegrees>43.16751949489116668701171875</LatitudeDegrees>
              <LongitudeDegrees>-1.6755975969135761260986328125</LongitudeDegrees>
            </Position>
            <AltitudeMeters>124.59999847412109375</AltitudeMeters>
            <DistanceMeters>NAN</DistanceMeters>
          </Trackpoint>
          <Trackpoint>
            <Time>2021-08-10T11:36:41.000Z</Time>
            <Position>
              <LatitudeDegrees>43.1675320677459239959716796875</LatitudeDegrees>
              <LongitudeDegrees>-1.67562651447951793670654296875</LongitudeDegrees>
            </Position>
            <AltitudeMeters>124.59999847412109375</AltitudeMeters>
            <DistanceMeters>NAN</DistanceMeters>
          </Trackpoint>
          <Trackpoint>
            <Time>2021-08-10T11:36:42.000Z</Time>
            <Position>
              <LatitudeDegrees>43.16754187457263469696044921875</LatitudeDegrees>
              <LongitudeDegrees>-1.675652079284191131591796875</LongitudeDegrees>
            </Position>
            <AltitudeMeters>124.59999847412109375</AltitudeMeters>
            <DistanceMeters>NAN</DistanceMeters>
          </Trackpoint>
          <Trackpoint>
            <Time>2021-08-10T11:36:43.000Z</Time>
            <Position>
              <LatitudeDegrees>43.16755461506545543670654296875</LatitudeDegrees>
              <LongitudeDegrees>-1.67567856609821319580078125</LongitudeDegrees>
            </Position>
            <AltitudeMeters>124.59999847412109375</AltitudeMeters>
            <DistanceMeters>NAN</DistanceMeters>
          </Trackpoint>
          <Trackpoint>
            <Time>2021-08-10T11:36:44.000Z</Time>
            <Position>
              <LatitudeDegrees>43.1675629131495952606201171875</LatitudeDegrees>
              <LongitudeDegrees>-1.675701029598712921142578125</LongitudeDegrees>
            </Position>
            <AltitudeMeters>124.59999847412109375</AltitudeMeters>
            <DistanceMeters>NAN</DistanceMeters>
          </Trackpoint>
          <Trackpoint>
            <Time>2021-08-10T11:36:45.000Z</Time>
            <Position>
              <LatitudeDegrees>43.1675736419856548309326171875</LatitudeDegrees>
              <LongitudeDegrees>-1.67573413811624050140380859375</LongitudeDegrees>
            </Position>
            <AltitudeMeters>124.8000030517578125</AltitudeMeters>
            <DistanceMeters>NAN</DistanceMeters>
          </Trackpoint>
          <Trackpoint>
            <Time>2021-08-10T11:36:46.000Z</Time>
            <Position>
              <LatitudeDegrees>43.1675840355455875396728515625</LatitudeDegrees>
              <LongitudeDegrees>-1.67576171457767486572265625</LongitudeDegrees>
            </Position>
            <AltitudeMeters>124.8000030517578125</AltitudeMeters>
            <DistanceMeters>NAN</DistanceMeters>
          </Trackpoint>
          <Trackpoint>
            <Time>2021-08-10T11:36:47.000Z</Time>
            <Position>
              <LatitudeDegrees>43.167595602571964263916015625</LatitudeDegrees>
              <LongitudeDegrees>-1.67578979395329952239990234375</LongitudeDegrees>
            </Position>
            <AltitudeMeters>124.8000030517578125</AltitudeMeters>
            <DistanceMeters>NAN</DistanceMeters>
          </Trackpoint>
          <Trackpoint>
            <Time>2021-08-10T11:36:48.000Z</Time>
            <Position>
              <LatitudeDegrees>43.16760666668415069580078125</LatitudeDegrees>
              <LongitudeDegrees>-1.6758128441870212554931640625</LongitudeDegrees>
            </Position>
            <AltitudeMeters>124.8000030517578125</AltitudeMeters>
            <DistanceMeters>NAN</DistanceMeters>
          </Trackpoint>
          <Trackpoint>
            <Time>2021-08-10T11:36:49.000Z</Time>
            <Position>
              <LatitudeDegrees>43.1676266156136989593505859375</LatitudeDegrees>
              <LongitudeDegrees>-1.67584444396197795867919921875</LongitudeDegrees>
            </Position>
            <AltitudeMeters>124.8000030517578125</AltitudeMeters>
            <DistanceMeters>NAN</DistanceMeters>
          </Trackpoint>
          <Trackpoint>
            <Time>2021-08-10T11:36:50.000Z</Time>
            <Position>
              <LatitudeDegrees>43.16763943992555141448974609375</LatitudeDegrees>
              <LongitudeDegrees>-1.675873361527919769287109375</LongitudeDegrees>
            </Position>
            <AltitudeMeters>125</AltitudeMeters>
            <DistanceMeters>NAN</DistanceMeters>
          </Trackpoint>
          <Trackpoint>
            <Time>2021-08-10T11:36:55.000Z</Time>
            <Position>
              <LatitudeDegrees>43.16772359423339366912841796875</LatitudeDegrees>
              <LongitudeDegrees>-1.6760359704494476318359375</LongitudeDegrees>
            </Position>
            <AltitudeMeters>125</AltitudeMeters>
            <DistanceMeters>NAN</DistanceMeters>
          </Trackpoint>
          <Trackpoint>
            <Time>2021-08-10T11:36:59.000Z</Time>
            <Position>
              <LatitudeDegrees>43.1678123585879802703857421875</LatitudeDegrees>
              <LongitudeDegrees>-1.67617267929017543792724609375</LongitudeDegrees>
            </Position>
            <AltitudeMeters>125</AltitudeMeters>
            <DistanceMeters>NAN</DistanceMeters>
          </Trackpoint>
          <Trackpoint>
            <Time>2021-08-10T11:37:01.000Z</Time>
            <Position>
              <LatitudeDegrees>43.16785887815058231353759765625</LatitudeDegrees>
              <LongitudeDegrees>-1.6762359626591205596923828125</LongitudeDegrees>
            </Position>
            <AltitudeMeters>125</AltitudeMeters>
            <DistanceMeters>NAN</DistanceMeters>
          </Trackpoint>
          <Trackpoint>
            <Time>2021-08-10T11:37:04.000Z</Time>
            <Position>
              <LatitudeDegrees>43.16792895086109638214111328125</LatitudeDegrees>
              <LongitudeDegrees>-1.676325984299182891845703125</LongitudeDegrees>
            </Position>
            <AltitudeMeters>125</AltitudeMeters>
            <DistanceMeters>NAN</DistanceMeters>
          </Trackpoint>
          <Trackpoint>
            <Time>2021-08-10T11:37:05.000Z</Time>
            <Position>
              <LatitudeDegrees>43.1679625622928142547607421875</LatitudeDegrees>
              <LongitudeDegrees>-1.6763529740273952484130859375</LongitudeDegrees>
            </Position>
            <AltitudeMeters>125</AltitudeMeters>
            <DistanceMeters>NAN</DistanceMeters>
          </Trackpoint>
          <Trackpoint>
            <Time>2021-08-10T11:37:07.000Z</Time>
            <Position>
              <LatitudeDegrees>43.1680121831595897674560546875</LatitudeDegrees>
              <LongitudeDegrees>-1.6763918660581111907958984375</LongitudeDegrees>
            </Position>
            <AltitudeMeters>125</AltitudeMeters>
            <DistanceMeters>NAN</DistanceMeters>
          </Trackpoint>
          <Trackpoint>
            <Time>2021-08-10T11:37:08.000Z</Time>
            <Position>
              <LatitudeDegrees>43.16803456284105777740478515625</LatitudeDegrees>
              <LongitudeDegrees>-1.67641080915927886962890625</LongitudeDegrees>
            </Position>
            <AltitudeMeters>125</AltitudeMeters>
            <DistanceMeters>NAN</DistanceMeters>
          </Trackpoint>
          <Trackpoint>
            <Time>2021-08-10T11:37:09.000Z</Time>
            <Position>
              <LatitudeDegrees>43.1680557690560817718505859375</LatitudeDegrees>
              <LongitudeDegrees>-1.6764275729656219482421875</LongitudeDegrees>
            </Position>
            <AltitudeMeters>124.8000030517578125</AltitudeMeters>
            <DistanceMeters>NAN</DistanceMeters>
          </Trackpoint>
          <Trackpoint>
            <Time>2021-08-10T11:37:10.000Z</Time>
            <Position>
              <LatitudeDegrees>43.16808317787945270538330078125</LatitudeDegrees>
              <LongitudeDegrees>-1.67644358240067958831787109375</LongitudeDegrees>
            </Position>
            <AltitudeMeters>124.8000030517578125</AltitudeMeters>
            <DistanceMeters>NAN</DistanceMeters>
          </Trackpoint>
          <Trackpoint>
            <Time>2021-08-10T11:37:11.000Z</Time>
            <Position>
              <LatitudeDegrees>43.1681127659976482391357421875</LatitudeDegrees>
              <LongitudeDegrees>-1.67645917274057865142822265625</LongitudeDegrees>
            </Position>
            <AltitudeMeters>124.8000030517578125</AltitudeMeters>
            <DistanceMeters>NAN</DistanceMeters>
          </Trackpoint>
          <Trackpoint>
            <Time>2021-08-10T11:37:12.000Z</Time>
            <Position>
              <LatitudeDegrees>43.168145120143890380859375</LatitudeDegrees>
              <LongitudeDegrees>-1.676476858556270599365234375</LongitudeDegrees>
            </Position>
            <AltitudeMeters>124.8000030517578125</AltitudeMeters>
            <DistanceMeters>NAN</DistanceMeters>
          </Trackpoint>
          <Trackpoint>
            <Time>2021-08-10T11:37:13.000Z</Time>
            <Position>
              <LatitudeDegrees>43.16817772574722766876220703125</LatitudeDegrees>
              <LongitudeDegrees>-1.676492281258106231689453125</LongitudeDegrees>
            </Position>
            <AltitudeMeters>124.8000030517578125</AltitudeMeters>
            <DistanceMeters>NAN</DistanceMeters>
          </Trackpoint>
          <Trackpoint>
            <Time>2021-08-10T11:37:14.000Z</Time>
            <Position>
              <LatitudeDegrees>43.1682039611041545867919921875</LatitudeDegrees>
              <LongitudeDegrees>-1.6764914430677890777587890625</LongitudeDegrees>
            </Position>
            <AltitudeMeters>124.8000030517578125</AltitudeMeters>
            <DistanceMeters>NAN</DistanceMeters>
          </Trackpoint>
          <Trackpoint>
            <Time>2021-08-10T11:37:15.000Z</Time>
            <Position>
              <LatitudeDegrees>43.16822466440498828887939453125</LatitudeDegrees>
              <LongitudeDegrees>-1.67649521492421627044677734375</LongitudeDegrees>
            </Position>
            <AltitudeMeters>124.8000030517578125</AltitudeMeters>
            <DistanceMeters>NAN</DistanceMeters>
          </Trackpoint>
          <Trackpoint>
            <Time>2021-08-10T11:37:16.000Z</Time>
            <Position>
              <LatitudeDegrees>43.168241679668426513671875</LatitudeDegrees>
              <LongitudeDegrees>-1.67649940587580204010009765625</LongitudeDegrees>
            </Position>
            <AltitudeMeters>124.8000030517578125</AltitudeMeters>
            <DistanceMeters>NAN</DistanceMeters>
          </Trackpoint>
          <Trackpoint>
            <Time>2021-08-10T11:37:17.000Z</Time>
            <Position>
              <LatitudeDegrees>43.1682592816650867462158203125</LatitudeDegrees>
              <LongitudeDegrees>-1.67650124989449977874755859375</LongitudeDegrees>
            </Position>
            <AltitudeMeters>124.8000030517578125</AltitudeMeters>
            <DistanceMeters>NAN</DistanceMeters>
          </Trackpoint>
          <Trackpoint>
            <Time>2021-08-10T11:37:18.000Z</Time>
            <Position>
              <LatitudeDegrees>43.16829037852585315704345703125</LatitudeDegrees>
              <LongitudeDegrees>-1.67651600204408168792724609375</LongitudeDegrees>
            </Position>
            <AltitudeMeters>124.8000030517578125</AltitudeMeters>
            <DistanceMeters>NAN</DistanceMeters>
          </Trackpoint>
          <Trackpoint>
            <Time>2021-08-10T11:37:20.000Z</Time>
            <Position>
              <LatitudeDegrees>43.1683494709432125091552734375</LatitudeDegrees>
              <LongitudeDegrees>-1.676503010094165802001953125</LongitudeDegrees>
            </Position>
            <AltitudeMeters>124.8000030517578125</AltitudeMeters>
            <DistanceMeters>NAN</DistanceMeters>
          </Trackpoint>
          <Trackpoint>
            <Time>2021-08-10T11:37:21.000Z</Time>
            <Position>
              <LatitudeDegrees>43.1683940626680850982666015625</LatitudeDegrees>
              <LongitudeDegrees>-1.67652790434658527374267578125</LongitudeDegrees>
            </Position>
            <AltitudeMeters>124.59999847412109375</AltitudeMeters>
            <DistanceMeters>NAN</DistanceMeters>
          </Trackpoint>
          <Trackpoint>
            <Time>2021-08-10T11:37:23.000Z</Time>
            <Position>
              <LatitudeDegrees>43.16846539266407489776611328125</LatitudeDegrees>
              <LongitudeDegrees>-1.676570065319538116455078125</LongitudeDegrees>
            </Position>
            <AltitudeMeters>124.59999847412109375</AltitudeMeters>
            <DistanceMeters>NAN</DistanceMeters>
          </Trackpoint>
          <Trackpoint>
            <Time>2021-08-10T11:37:24.000Z</Time>
            <Position>
              <LatitudeDegrees>43.1684969924390316009521484375</LatitudeDegrees>
              <LongitudeDegrees>-1.67657132260501384735107421875</LongitudeDegrees>
            </Position>
            <AltitudeMeters>124.59999847412109375</AltitudeMeters>
            <DistanceMeters>NAN</DistanceMeters>
          </Trackpoint>
          <Trackpoint>
            <Time>2021-08-10T11:37:28.000Z</Time>
            <Position>
              <LatitudeDegrees>43.16863839514553546905517578125</LatitudeDegrees>
              <LongitudeDegrees>-1.6766014136373996734619140625</LongitudeDegrees>
            </Position>
            <AltitudeMeters>124.59999847412109375</AltitudeMeters>
            <DistanceMeters>NAN</DistanceMeters>
          </Trackpoint>
          <Trackpoint>
            <Time>2021-08-10T11:37:32.000Z</Time>
            <Position>
              <LatitudeDegrees>43.16881642676889896392822265625</LatitudeDegrees>
              <LongitudeDegrees>-1.6766503639519214630126953125</LongitudeDegrees>
            </Position>
            <AltitudeMeters>124.59999847412109375</AltitudeMeters>
            <DistanceMeters>NAN</DistanceMeters>
          </Trackpoint>
          <Trackpoint>
            <Time>2021-08-10T11:37:33.000Z</Time>
            <Position>
              <LatitudeDegrees>43.1688490323722362518310546875</LatitudeDegrees>
              <LongitudeDegrees>-1.67663611471652984619140625</LongitudeDegrees>
            </Position>
            <AltitudeMeters>124.59999847412109375</AltitudeMeters>
            <DistanceMeters>NAN</DistanceMeters>
          </Trackpoint>
          <Trackpoint>
            <Time>2021-08-10T11:37:34.000Z</Time>
            <Position>
              <LatitudeDegrees>43.16887493245303630828857421875</LatitudeDegrees>
              <LongitudeDegrees>-1.67662111110985279083251953125</LongitudeDegrees>
            </Position>
            <AltitudeMeters>124.59999847412109375</AltitudeMeters>
            <DistanceMeters>NAN</DistanceMeters>
          </Trackpoint>
          <Trackpoint>
            <Time>2021-08-10T11:37:35.000Z</Time>
            <Position>
              <LatitudeDegrees>43.16890477202832698822021484375</LatitudeDegrees>
              <LongitudeDegrees>-1.676602251827716827392578125</LongitudeDegrees>
            </Position>
            <AltitudeMeters>124.59999847412109375</AltitudeMeters>
            <DistanceMeters>NAN</DistanceMeters>
          </Trackpoint>
          <Trackpoint>
            <Time>2021-08-10T11:37:36.000Z</Time>
            <Position>
              <LatitudeDegrees>43.16894483752548694610595703125</LatitudeDegrees>
              <LongitudeDegrees>-1.676576435565948486328125</LongitudeDegrees>
            </Position>
            <AltitudeMeters>124.59999847412109375</AltitudeMeters>
            <DistanceMeters>NAN</DistanceMeters>
          </Trackpoint>
          <Trackpoint>
            <Time>2021-08-10T11:37:40.000Z</Time>
            <Position>
              <LatitudeDegrees>43.16911029629409313201904296875</LatitudeDegrees>
              <LongitudeDegrees>-1.6765481047332286834716796875</LongitudeDegrees>
            </Position>
            <AltitudeMeters>124.8000030517578125</AltitudeMeters>
            <DistanceMeters>NAN</DistanceMeters>
          </Trackpoint>
          <Trackpoint>
            <Time>2021-08-10T11:37:44.000Z</Time>
            <Position>
              <LatitudeDegrees>43.16928614862263202667236328125</LatitudeDegrees>
              <LongitudeDegrees>-1.6765313409268856048583984375</LongitudeDegrees>
            </Position>
            <AltitudeMeters>124.59999847412109375</AltitudeMeters>
            <DistanceMeters>NAN</DistanceMeters>
          </Trackpoint>
          <Trackpoint>
            <Time>2021-08-10T11:37:45.000Z</Time>
            <Position>
              <LatitudeDegrees>43.169318921864032745361328125</LatitudeDegrees>
              <LongitudeDegrees>-1.676533520221710205078125</LongitudeDegrees>
            </Position>
            <AltitudeMeters>124.59999847412109375</AltitudeMeters>
            <DistanceMeters>NAN</DistanceMeters>
          </Trackpoint>
          <Trackpoint>
            <Time>2021-08-10T11:37:46.000Z</Time>
            <Position>
              <LatitudeDegrees>43.1693512760102748870849609375</LatitudeDegrees>
              <LongitudeDegrees>-1.6765209473669528961181640625</LongitudeDegrees>
            </Position>
            <AltitudeMeters>124.40000152587890625</AltitudeMeters>
            <DistanceMeters>NAN</DistanceMeters>
          </Trackpoint>
          <Trackpoint>
            <Time>2021-08-10T11:37:48.000Z</Time>
            <Position>
              <LatitudeDegrees>43.16941003315150737762451171875</LatitudeDegrees>
              <LongitudeDegrees>-1.676494963467121124267578125</LongitudeDegrees>
            </Position>
            <AltitudeMeters>124.40000152587890625</AltitudeMeters>
            <DistanceMeters>NAN</DistanceMeters>
          </Trackpoint>
          <Trackpoint>
            <Time>2021-08-10T11:37:49.000Z</Time>
            <Position>
              <LatitudeDegrees>43.169434256851673126220703125</LatitudeDegrees>
              <LongitudeDegrees>-1.67647643946111202239990234375</LongitudeDegrees>
            </Position>
            <AltitudeMeters>124.40000152587890625</AltitudeMeters>
            <DistanceMeters>NAN</DistanceMeters>
          </Trackpoint>
          <Trackpoint>
            <Time>2021-08-10T11:37:50.000Z</Time>
            <Position>
              <LatitudeDegrees>43.169470131397247314453125</LatitudeDegrees>
              <LongitudeDegrees>-1.6764570772647857666015625</LongitudeDegrees>
            </Position>
            <AltitudeMeters>124.1999969482421875</AltitudeMeters>
            <DistanceMeters>NAN</DistanceMeters>
          </Trackpoint>
          <Trackpoint>
            <Time>2021-08-10T11:37:51.000Z</Time>
            <Position>
              <LatitudeDegrees>43.169504664838314056396484375</LatitudeDegrees>
              <LongitudeDegrees>-1.67642883025109767913818359375</LongitudeDegrees>
            </Position>
            <AltitudeMeters>124.1999969482421875</AltitudeMeters>
            <DistanceMeters>NAN</DistanceMeters>
          </Trackpoint>
          <Trackpoint>
            <Time>2021-08-10T11:37:53.000Z</Time>
            <Position>
              <LatitudeDegrees>43.16958638839423656463623046875</LatitudeDegrees>
              <LongitudeDegrees>-1.6764103062450885772705078125</LongitudeDegrees>
            </Position>
            <AltitudeMeters>124</AltitudeMeters>
            <DistanceMeters>NAN</DistanceMeters>
          </Trackpoint>
          <Trackpoint>
            <Time>2021-08-10T11:37:56.000Z</Time>
            <Position>
              <LatitudeDegrees>43.1696758233010768890380859375</LatitudeDegrees>
              <LongitudeDegrees>-1.67638474144041538238525390625</LongitudeDegrees>
            </Position>
            <AltitudeMeters>123.8000030517578125</AltitudeMeters>
            <DistanceMeters>NAN</DistanceMeters>
          </Trackpoint>
          <Trackpoint>
            <Time>2021-08-10T11:37:58.000Z</Time>
            <Position>
              <LatitudeDegrees>43.1697423756122589111328125</LatitudeDegrees>
              <LongitudeDegrees>-1.67636261321604251861572265625</LongitudeDegrees>
            </Position>
            <AltitudeMeters>123.8000030517578125</AltitudeMeters>
            <DistanceMeters>NAN</DistanceMeters>
          </Trackpoint>
          <Trackpoint>
            <Time>2021-08-10T11:38:02.000Z</Time>
            <Position>
              <LatitudeDegrees>43.1698702834546566009521484375</LatitudeDegrees>
              <LongitudeDegrees>-1.67635456658899784088134765625</LongitudeDegrees>
            </Position>
            <AltitudeMeters>123.59999847412109375</AltitudeMeters>
            <DistanceMeters>NAN</DistanceMeters>
          </Trackpoint>
          <Trackpoint>
            <Time>2021-08-10T11:38:03.000Z</Time>
            <Position>
              <LatitudeDegrees>43.169895596802234649658203125</LatitudeDegrees>
              <LongitudeDegrees>-1.67634869925677776336669921875</LongitudeDegrees>
            </Position>
            <AltitudeMeters>123.40000152587890625</AltitudeMeters>
            <DistanceMeters>NAN</DistanceMeters>
          </Trackpoint>
          <Trackpoint>
            <Time>2021-08-10T11:38:04.000Z</Time>
            <Position>
              <LatitudeDegrees>43.169927112758159637451171875</LatitudeDegrees>
              <LongitudeDegrees>-1.67632900178432464599609375</LongitudeDegrees>
            </Position>
            <AltitudeMeters>123.40000152587890625</AltitudeMeters>
            <DistanceMeters>NAN</DistanceMeters>
          </Trackpoint>
          <Trackpoint>
            <Time>2021-08-10T11:38:05.000Z</Time>
            <Position>
              <LatitudeDegrees>43.16996675916016101837158203125</LatitudeDegrees>
              <LongitudeDegrees>-1.676301844418048858642578125</LongitudeDegrees>
            </Position>
            <AltitudeMeters>123.40000152587890625</AltitudeMeters>
            <DistanceMeters>NAN</DistanceMeters>
          </Trackpoint>
          <Trackpoint>
            <Time>2021-08-10T11:38:10.000Z</Time>
            <Position>
              <LatitudeDegrees>43.1701468862593173980712890625</LatitudeDegrees>
              <LongitudeDegrees>-1.6762654669582843780517578125</LongitudeDegrees>
            </Position>
            <AltitudeMeters>123.1999969482421875</AltitudeMeters>
            <DistanceMeters>NAN</DistanceMeters>
          </Trackpoint>
          <Trackpoint>
            <Time>2021-08-10T11:38:11.000Z</Time>
            <Position>
              <LatitudeDegrees>43.17018435336649417877197265625</LatitudeDegrees>
              <LongitudeDegrees>-1.6762704961001873016357421875</LongitudeDegrees>
            </Position>
            <AltitudeMeters>123.1999969482421875</AltitudeMeters>
            <DistanceMeters>NAN</DistanceMeters>
          </Trackpoint>
          <Trackpoint>
            <Time>2021-08-10T11:38:12.000Z</Time>
            <Position>
              <LatitudeDegrees>43.1702179647982120513916015625</LatitudeDegrees>
              <LongitudeDegrees>-1.67628382332623004913330078125</LongitudeDegrees>
            </Position>
            <AltitudeMeters>123.1999969482421875</AltitudeMeters>
            <DistanceMeters>NAN</DistanceMeters>
          </Trackpoint>
          <Trackpoint>
            <Time>2021-08-10T11:38:14.000Z</Time>
            <Position>
              <LatitudeDegrees>43.17028946243226528167724609375</LatitudeDegrees>
              <LongitudeDegrees>-1.6762932948768138885498046875</LongitudeDegrees>
            </Position>
            <AltitudeMeters>123</AltitudeMeters>
            <DistanceMeters>NAN</DistanceMeters>
          </Trackpoint>
          <Trackpoint>
            <Time>2021-08-10T11:38:17.000Z</Time>
            <Position>
              <LatitudeDegrees>43.170392476022243499755859375</LatitudeDegrees>
              <LongitudeDegrees>-1.676321960985660552978515625</LongitudeDegrees>
            </Position>
            <AltitudeMeters>122.8000030517578125</AltitudeMeters>
            <DistanceMeters>NAN</DistanceMeters>
          </Trackpoint>
          <Trackpoint>
            <Time>2021-08-10T11:38:21.000Z</Time>
            <Position>
              <LatitudeDegrees>43.17052180878818035125732421875</LatitudeDegrees>
              <LongitudeDegrees>-1.67636998929083347320556640625</LongitudeDegrees>
            </Position>
            <AltitudeMeters>122.59999847412109375</AltitudeMeters>
            <DistanceMeters>NAN</DistanceMeters>
          </Trackpoint>
          <Trackpoint>
            <Time>2021-08-10T11:38:22.000Z</Time>
            <Position>
              <LatitudeDegrees>43.1705562584102153778076171875</LatitudeDegrees>
              <LongitudeDegrees>-1.67638038285076618194580078125</LongitudeDegrees>
            </Position>
            <AltitudeMeters>122.59999847412109375</AltitudeMeters>
            <DistanceMeters>NAN</DistanceMeters>
          </Trackpoint>
          <Trackpoint>
            <Time>2021-08-10T11:38:25.000Z</Time>
            <Position>
              <LatitudeDegrees>43.1706467829644680023193359375</LatitudeDegrees>
              <LongitudeDegrees>-1.67641122825443744659423828125</LongitudeDegrees>
            </Position>
            <AltitudeMeters>122.59999847412109375</AltitudeMeters>
            <DistanceMeters>NAN</DistanceMeters>
          </Trackpoint>
          <Trackpoint>
            <Time>2021-08-10T11:38:26.000Z</Time>
            <Position>
              <LatitudeDegrees>43.17068425007164478302001953125</LatitudeDegrees>
              <LongitudeDegrees>-1.67642514221370220184326171875</LongitudeDegrees>
            </Position>
            <AltitudeMeters>122.59999847412109375</AltitudeMeters>
            <DistanceMeters>NAN</DistanceMeters>
          </Trackpoint>
          <Trackpoint>
            <Time>2021-08-10T11:38:27.000Z</Time>
            <Position>
              <LatitudeDegrees>43.1707135029137134552001953125</LatitudeDegrees>
              <LongitudeDegrees>-1.6764381341636180877685546875</LongitudeDegrees>
            </Position>
            <AltitudeMeters>122.59999847412109375</AltitudeMeters>
            <DistanceMeters>NAN</DistanceMeters>
          </Trackpoint>
          <Trackpoint>
            <Time>2021-08-10T11:38:33.000Z</Time>
            <Position>
              <LatitudeDegrees>43.17091693170368671417236328125</LatitudeDegrees>
              <LongitudeDegrees>-1.67651281692087650299072265625</LongitudeDegrees>
            </Position>
            <AltitudeMeters>122.40000152587890625</AltitudeMeters>
            <DistanceMeters>NAN</DistanceMeters>
          </Trackpoint>
          <Trackpoint>
            <Time>2021-08-10T11:38:41.000Z</Time>
            <Position>
              <LatitudeDegrees>43.1711768545210361480712890625</LatitudeDegrees>
              <LongitudeDegrees>-1.6766064427793025970458984375</LongitudeDegrees>
            </Position>
            <AltitudeMeters>122.59999847412109375</AltitudeMeters>
            <DistanceMeters>NAN</DistanceMeters>
          </Trackpoint>
          <Trackpoint>
            <Time>2021-08-10T11:38:42.000Z</Time>
            <Position>
              <LatitudeDegrees>43.1712046824395656585693359375</LatitudeDegrees>
              <LongitudeDegrees>-1.67661826126277446746826171875</LongitudeDegrees>
            </Position>
            <AltitudeMeters>122.59999847412109375</AltitudeMeters>
            <DistanceMeters>NAN</DistanceMeters>
          </Trackpoint>
          <Trackpoint>
            <Time>2021-08-10T11:38:43.000Z</Time>
            <Position>
              <LatitudeDegrees>43.17123435437679290771484375</LatitudeDegrees>
              <LongitudeDegrees>-1.676630415022373199462890625</LongitudeDegrees>
            </Position>
            <AltitudeMeters>122.59999847412109375</AltitudeMeters>
            <DistanceMeters>NAN</DistanceMeters>
          </Trackpoint>
          <Trackpoint>
            <Time>2021-08-10T11:38:44.000Z</Time>
            <Position>
              <LatitudeDegrees>43.17126427777111530303955078125</LatitudeDegrees>
              <LongitudeDegrees>-1.67664022184908390045166015625</LongitudeDegrees>
            </Position>
            <AltitudeMeters>122.59999847412109375</AltitudeMeters>
            <DistanceMeters>NAN</DistanceMeters>
          </Trackpoint>
          <Trackpoint>
            <Time>2021-08-10T11:38:45.000Z</Time>
            <Position>
              <LatitudeDegrees>43.17129646427929401397705078125</LatitudeDegrees>
              <LongitudeDegrees>-1.676649861037731170654296875</LongitudeDegrees>
            </Position>
            <AltitudeMeters>122.59999847412109375</AltitudeMeters>
            <DistanceMeters>NAN</DistanceMeters>
          </Trackpoint>
          <Trackpoint>
            <Time>2021-08-10T11:38:52.000Z</Time>
            <Position>
              <LatitudeDegrees>43.17152830772101879119873046875</LatitudeDegrees>
              <LongitudeDegrees>-1.6767274774610996246337890625</LongitudeDegrees>
            </Position>
            <AltitudeMeters>122.59999847412109375</AltitudeMeters>
            <DistanceMeters>NAN</DistanceMeters>
          </Trackpoint>
          <Trackpoint>
            <Time>2021-08-10T11:38:57.000Z</Time>
            <Position>
              <LatitudeDegrees>43.17168069072067737579345703125</LatitudeDegrees>
              <LongitudeDegrees>-1.67678271420300006866455078125</LongitudeDegrees>
            </Position>
            <AltitudeMeters>122.59999847412109375</AltitudeMeters>
            <DistanceMeters>NAN</DistanceMeters>
          </Trackpoint>
          <Trackpoint>
            <Time>2021-08-10T11:38:58.000Z</Time>
            <Position>
              <LatitudeDegrees>43.171712458133697509765625</LatitudeDegrees>
              <LongitudeDegrees>-1.67679168283939361572265625</LongitudeDegrees>
            </Position>
            <AltitudeMeters>122.59999847412109375</AltitudeMeters>
            <DistanceMeters>NAN</DistanceMeters>
          </Trackpoint>
          <Trackpoint>
            <Time>2021-08-10T11:38:59.000Z</Time>
            <Position>
              <LatitudeDegrees>43.17174556665122509002685546875</LatitudeDegrees>
              <LongitudeDegrees>-1.6768029145896434783935546875</LongitudeDegrees>
            </Position>
            <AltitudeMeters>122.8000030517578125</AltitudeMeters>
            <DistanceMeters>NAN</DistanceMeters>
          </Trackpoint>
          <Trackpoint>
            <Time>2021-08-10T11:39:00.000Z</Time>
            <Position>
              <LatitudeDegrees>43.17177884280681610107421875</LatitudeDegrees>
              <LongitudeDegrees>-1.6768138110637664794921875</LongitudeDegrees>
            </Position>
            <AltitudeMeters>122.8000030517578125</AltitudeMeters>
            <DistanceMeters>NAN</DistanceMeters>
          </Trackpoint>
          <Trackpoint>
            <Time>2021-08-10T11:39:01.000Z</Time>
            <Position>
              <LatitudeDegrees>43.171812035143375396728515625</LatitudeDegrees>
              <LongitudeDegrees>-1.676826886832714080810546875</LongitudeDegrees>
            </Position>
            <AltitudeMeters>122.8000030517578125</AltitudeMeters>
            <DistanceMeters>NAN</DistanceMeters>
          </Trackpoint>
          <Trackpoint>
            <Time>2021-08-10T11:39:02.000Z</Time>
            <Position>
              <LatitudeDegrees>43.1718437187373638153076171875</LatitudeDegrees>
              <LongitudeDegrees>-1.67684038169682025909423828125</LongitudeDegrees>
            </Position>
            <AltitudeMeters>122.8000030517578125</AltitudeMeters>
            <DistanceMeters>NAN</DistanceMeters>
          </Trackpoint>
          <Trackpoint>
            <Time>2021-08-10T11:39:10.000Z</Time>
            <Position>
              <LatitudeDegrees>43.1720975227653980255126953125</LatitudeDegrees>
              <LongitudeDegrees>-1.6769303195178508758544921875</LongitudeDegrees>
            </Position>
            <AltitudeMeters>122.8000030517578125</AltitudeMeters>
            <DistanceMeters>NAN</DistanceMeters>
          </Trackpoint>
          <Trackpoint>
            <Time>2021-08-10T11:39:11.000Z</Time>
            <Position>
              <LatitudeDegrees>43.17212778143584728240966796875</LatitudeDegrees>
              <LongitudeDegrees>-1.67693861760199069976806640625</LongitudeDegrees>
            </Position>
            <AltitudeMeters>122.8000030517578125</AltitudeMeters>
            <DistanceMeters>NAN</DistanceMeters>
          </Trackpoint>
          <Trackpoint>
            <Time>2021-08-10T11:39:18.000Z</Time>
            <Position>
              <LatitudeDegrees>43.17235560156404972076416015625</LatitudeDegrees>
              <LongitudeDegrees>-1.67702361010015010833740234375</LongitudeDegrees>
            </Position>
            <AltitudeMeters>122.8000030517578125</AltitudeMeters>
            <DistanceMeters>NAN</DistanceMeters>
          </Trackpoint>
          <Trackpoint>
            <Time>2021-08-10T11:39:23.000Z</Time>
            <Position>
              <LatitudeDegrees>43.17251066677272319793701171875</LatitudeDegrees>
              <LongitudeDegrees>-1.67707775719463825225830078125</LongitudeDegrees>
            </Position>
            <AltitudeMeters>122.8000030517578125</AltitudeMeters>
            <DistanceMeters>NAN</DistanceMeters>
          </Trackpoint>
          <Trackpoint>
            <Time>2021-08-10T11:39:24.000Z</Time>
            <Position>
              <LatitudeDegrees>43.17254167981445789337158203125</LatitudeDegrees>
              <LongitudeDegrees>-1.67709334753453731536865234375</LongitudeDegrees>
            </Position>
            <AltitudeMeters>122.8000030517578125</AltitudeMeters>
            <DistanceMeters>NAN</DistanceMeters>
          </Trackpoint>
          <Trackpoint>
            <Time>2021-08-10T11:39:25.000Z</Time>
            <Position>
              <LatitudeDegrees>43.17257252521812915802001953125</LatitudeDegrees>
              <LongitudeDegrees>-1.6771049983799457550048828125</LongitudeDegrees>
            </Position>
            <AltitudeMeters>122.8000030517578125</AltitudeMeters>
            <DistanceMeters>NAN</DistanceMeters>
          </Trackpoint>
          <Trackpoint>
            <Time>2021-08-10T11:39:26.000Z</Time>
            <Position>
              <LatitudeDegrees>43.172605298459529876708984375</LatitudeDegrees>
              <LongitudeDegrees>-1.6771169006824493408203125</LongitudeDegrees>
            </Position>
            <AltitudeMeters>122.8000030517578125</AltitudeMeters>
            <DistanceMeters>NAN</DistanceMeters>
          </Trackpoint>
          <Trackpoint>
            <Time>2021-08-10T11:39:34.000Z</Time>
            <Position>
              <LatitudeDegrees>43.172893635928630828857421875</LatitudeDegrees>
              <LongitudeDegrees>-1.6772176511585712432861328125</LongitudeDegrees>
            </Position>
            <AltitudeMeters>123</AltitudeMeters>
            <DistanceMeters>NAN</DistanceMeters>
          </Trackpoint>
          <Trackpoint>
            <Time>2021-08-10T11:39:44.000Z</Time>
            <Position>
              <LatitudeDegrees>43.17326478660106658935546875</LatitudeDegrees>
              <LongitudeDegrees>-1.67736123315989971160888671875</LongitudeDegrees>
            </Position>
            <AltitudeMeters>122.59999847412109375</AltitudeMeters>
            <DistanceMeters>NAN</DistanceMeters>
          </Trackpoint>
          <Trackpoint>
            <Time>2021-08-10T11:39:52.000Z</Time>
            <Position>
              <LatitudeDegrees>43.1735553033649921417236328125</LatitudeDegrees>
              <LongitudeDegrees>-1.67743549682199954986572265625</LongitudeDegrees>
            </Position>
            <AltitudeMeters>122.1999969482421875</AltitudeMeters>
            <DistanceMeters>NAN</DistanceMeters>
          </Trackpoint>
          <Trackpoint>
            <Time>2021-08-10T11:39:55.000Z</Time>
            <Position>
              <LatitudeDegrees>43.17366820760071277618408203125</LatitudeDegrees>
              <LongitudeDegrees>-1.67743314988911151885986328125</LongitudeDegrees>
            </Position>
            <AltitudeMeters>122</AltitudeMeters>
            <DistanceMeters>NAN</DistanceMeters>
          </Trackpoint>
          <Trackpoint>
            <Time>2021-08-10T11:39:57.000Z</Time>
            <Position>
              <LatitudeDegrees>43.1737336702644824981689453125</LatitudeDegrees>
              <LongitudeDegrees>-1.6774334013462066650390625</LongitudeDegrees>
            </Position>
            <AltitudeMeters>121.8000030517578125</AltitudeMeters>
            <DistanceMeters>NAN</DistanceMeters>
          </Trackpoint>
          <Trackpoint>
            <Time>2021-08-10T11:39:58.000Z</Time>
            <Position>
              <LatitudeDegrees>43.1737655214965343475341796875</LatitudeDegrees>
              <LongitudeDegrees>-1.6774305514991283416748046875</LongitudeDegrees>
            </Position>
            <AltitudeMeters>121.8000030517578125</AltitudeMeters>
            <DistanceMeters>NAN</DistanceMeters>
          </Trackpoint>
          <Trackpoint>
            <Time>2021-08-10T11:39:59.000Z</Time>
            <Position>
              <LatitudeDegrees>43.17379645071923732757568359375</LatitudeDegrees>
              <LongitudeDegrees>-1.67743164114654064178466796875</LongitudeDegrees>
            </Position>
            <AltitudeMeters>121.59999847412109375</AltitudeMeters>
            <DistanceMeters>NAN</DistanceMeters>
          </Trackpoint>
          <Trackpoint>
            <Time>2021-08-10T11:40:00.000Z</Time>
            <Position>
              <LatitudeDegrees>43.17382427863776683807373046875</LatitudeDegrees>
              <LongitudeDegrees>-1.67743281461298465728759765625</LongitudeDegrees>
            </Position>
            <AltitudeMeters>121.59999847412109375</AltitudeMeters>
            <DistanceMeters>NAN</DistanceMeters>
          </Trackpoint>
          <Trackpoint>
            <Time>2021-08-10T11:40:02.000Z</Time>
            <Position>
              <LatitudeDegrees>43.1738781742751598358154296875</LatitudeDegrees>
              <LongitudeDegrees>-1.67742409743368625640869140625</LongitudeDegrees>
            </Position>
            <AltitudeMeters>121.59999847412109375</AltitudeMeters>
            <DistanceMeters>NAN</DistanceMeters>
          </Trackpoint>
          <Trackpoint>
            <Time>2021-08-10T11:40:03.000Z</Time>
            <Position>
              <LatitudeDegrees>43.1739120371639728546142578125</LatitudeDegrees>
              <LongitudeDegrees>-1.67742669582366943359375</LongitudeDegrees>
            </Position>
            <AltitudeMeters>121.59999847412109375</AltitudeMeters>
            <DistanceMeters>NAN</DistanceMeters>
          </Trackpoint>
          <Trackpoint>
            <Time>2021-08-10T11:40:04.000Z</Time>
            <Position>
              <LatitudeDegrees>43.1739509291946887969970703125</LatitudeDegrees>
              <LongitudeDegrees>-1.67742711491882801055908203125</LongitudeDegrees>
            </Position>
            <AltitudeMeters>121.59999847412109375</AltitudeMeters>
            <DistanceMeters>NAN</DistanceMeters>
          </Trackpoint>
          <Trackpoint>
            <Time>2021-08-10T11:40:11.000Z</Time>
            <Position>
              <LatitudeDegrees>43.17420900799334049224853515625</LatitudeDegrees>
              <LongitudeDegrees>-1.6774157993495464324951171875</LongitudeDegrees>
            </Position>
            <AltitudeMeters>121.59999847412109375</AltitudeMeters>
            <DistanceMeters>NAN</DistanceMeters>
          </Trackpoint>
          <Trackpoint>
            <Time>2021-08-10T11:40:16.000Z</Time>
            <Position>
              <LatitudeDegrees>43.1743931584060192108154296875</LatitudeDegrees>
              <LongitudeDegrees>-1.677372045814990997314453125</LongitudeDegrees>
            </Position>
            <AltitudeMeters>121.59999847412109375</AltitudeMeters>
            <DistanceMeters>NAN</DistanceMeters>
          </Trackpoint>
          <Trackpoint>
            <Time>2021-08-10T11:40:22.000Z</Time>
            <Position>
              <LatitudeDegrees>43.17465484142303466796875</LatitudeDegrees>
              <LongitudeDegrees>-1.67725796811282634735107421875</LongitudeDegrees>
            </Position>
            <AltitudeMeters>121.1999969482421875</AltitudeMeters>
            <DistanceMeters>NAN</DistanceMeters>
          </Trackpoint>
          <Trackpoint>
            <Time>2021-08-10T11:40:30.000Z</Time>
            <Position>
              <LatitudeDegrees>43.17493035458028316497802734375</LatitudeDegrees>
              <LongitudeDegrees>-1.67702972888946533203125</LongitudeDegrees>
            </Position>
            <AltitudeMeters>121</AltitudeMeters>
            <DistanceMeters>NAN</DistanceMeters>
          </Trackpoint>
          <Trackpoint>
            <Time>2021-08-10T11:40:34.000Z</Time>
            <Position>
              <LatitudeDegrees>43.1750650517642498016357421875</LatitudeDegrees>
              <LongitudeDegrees>-1.67687751352787017822265625</LongitudeDegrees>
            </Position>
            <AltitudeMeters>120.8000030517578125</AltitudeMeters>
            <DistanceMeters>NAN</DistanceMeters>
          </Trackpoint>
          <Trackpoint>
            <Time>2021-08-10T11:40:36.000Z</Time>
            <Position>
              <LatitudeDegrees>43.1751153431832790374755859375</LatitudeDegrees>
              <LongitudeDegrees>-1.6768069379031658172607421875</LongitudeDegrees>
            </Position>
            <AltitudeMeters>120.8000030517578125</AltitudeMeters>
            <DistanceMeters>NAN</DistanceMeters>
          </Trackpoint>
          <Trackpoint>
            <Time>2021-08-10T11:40:37.000Z</Time>
            <Position>
              <LatitudeDegrees>43.175145350396633148193359375</LatitudeDegrees>
              <LongitudeDegrees>-1.67678271420300006866455078125</LongitudeDegrees>
            </Position>
            <AltitudeMeters>120.59999847412109375</AltitudeMeters>
            <DistanceMeters>NAN</DistanceMeters>
          </Trackpoint>
          <Trackpoint>
            <Time>2021-08-10T11:40:38.000Z</Time>
            <Position>
              <LatitudeDegrees>43.17517594434320926666259765625</LatitudeDegrees>
              <LongitudeDegrees>-1.67675991542637348175048828125</LongitudeDegrees>
            </Position>
            <AltitudeMeters>120.59999847412109375</AltitudeMeters>
            <DistanceMeters>NAN</DistanceMeters>
          </Trackpoint>
          <Trackpoint>
            <Time>2021-08-10T11:40:44.000Z</Time>
            <Position>
              <LatitudeDegrees>43.17534173838794231414794921875</LatitudeDegrees>
              <LongitudeDegrees>-1.6765652038156986236572265625</LongitudeDegrees>
            </Position>
            <AltitudeMeters>120.1999969482421875</AltitudeMeters>
            <DistanceMeters>NAN</DistanceMeters>
          </Trackpoint>
          <Trackpoint>
            <Time>2021-08-10T11:40:46.000Z</Time>
            <Position>
              <LatitudeDegrees>43.17539848387241363525390625</LatitudeDegrees>
              <LongitudeDegrees>-1.6764911077916622161865234375</LongitudeDegrees>
            </Position>
            <AltitudeMeters>120.1999969482421875</AltitudeMeters>
            <DistanceMeters>NAN</DistanceMeters>
          </Trackpoint>
          <Trackpoint>
            <Time>2021-08-10T11:40:52.000Z</Time>
            <Position>
              <LatitudeDegrees>43.1755669601261615753173828125</LatitudeDegrees>
              <LongitudeDegrees>-1.67625482194125652313232421875</LongitudeDegrees>
            </Position>
            <AltitudeMeters>120</AltitudeMeters>
            <DistanceMeters>NAN</DistanceMeters>
          </Trackpoint>
          <Trackpoint>
            <Time>2021-08-10T11:40:59.000Z</Time>
            <Position>
              <LatitudeDegrees>43.1757585704326629638671875</LatitudeDegrees>
              <LongitudeDegrees>-1.67597671039402484893798828125</LongitudeDegrees>
            </Position>
            <AltitudeMeters>119.40000152587890625</AltitudeMeters>
            <DistanceMeters>NAN</DistanceMeters>
          </Trackpoint>
          <Trackpoint>
            <Time>2021-08-10T11:41:02.000Z</Time>
            <Position>
              <LatitudeDegrees>43.17584532313048839569091796875</LatitudeDegrees>
              <LongitudeDegrees>-1.6758500598371028900146484375</LongitudeDegrees>
            </Position>
            <AltitudeMeters>119.40000152587890625</AltitudeMeters>
            <DistanceMeters>NAN</DistanceMeters>
          </Trackpoint>
          <Trackpoint>
            <Time>2021-08-10T11:41:03.000Z</Time>
            <Position>
              <LatitudeDegrees>43.1758710555732250213623046875</LatitudeDegrees>
              <LongitudeDegrees>-1.67581896297633647918701171875</LongitudeDegrees>
            </Position>
            <AltitudeMeters>119.1999969482421875</AltitudeMeters>
            <DistanceMeters>NAN</DistanceMeters>
          </Trackpoint>
          <Trackpoint>
            <Time>2021-08-10T11:41:05.000Z</Time>
            <Position>
              <LatitudeDegrees>43.175934590399265289306640625</LatitudeDegrees>
              <LongitudeDegrees>-1.67575098574161529541015625</LongitudeDegrees>
            </Position>
            <AltitudeMeters>119.1999969482421875</AltitudeMeters>
            <DistanceMeters>NAN</DistanceMeters>
          </Trackpoint>
          <Trackpoint>
            <Time>2021-08-10T11:41:11.000Z</Time>
            <Position>
              <LatitudeDegrees>43.1760678626596927642822265625</LatitudeDegrees>
              <LongitudeDegrees>-1.67546273209154605865478515625</LongitudeDegrees>
            </Position>
            <AltitudeMeters>119</AltitudeMeters>
            <DistanceMeters>NAN</DistanceMeters>
          </Trackpoint>
          <Trackpoint>
            <Time>2021-08-10T11:41:17.000Z</Time>
            <Position>
              <LatitudeDegrees>43.17615595646202564239501953125</LatitudeDegrees>
              <LongitudeDegrees>-1.6751922480762004852294921875</LongitudeDegrees>
            </Position>
            <AltitudeMeters>118.8000030517578125</AltitudeMeters>
            <DistanceMeters>NAN</DistanceMeters>
          </Trackpoint>
          <Trackpoint>
            <Time>2021-08-10T11:41:18.000Z</Time>
            <Position>
              <LatitudeDegrees>43.17616400308907032012939453125</LatitudeDegrees>
              <LongitudeDegrees>-1.67514539323747158050537109375</LongitudeDegrees>
            </Position>
            <AltitudeMeters>118.8000030517578125</AltitudeMeters>
            <DistanceMeters>NAN</DistanceMeters>
          </Trackpoint>
          <Trackpoint>
            <Time>2021-08-10T11:41:19.000Z</Time>
            <Position>
              <LatitudeDegrees>43.17617657594382762908935546875</LatitudeDegrees>
              <LongitudeDegrees>-1.67510055005550384521484375</LongitudeDegrees>
            </Position>
            <AltitudeMeters>118.8000030517578125</AltitudeMeters>
            <DistanceMeters>NAN</DistanceMeters>
          </Trackpoint>
          <Trackpoint>
            <Time>2021-08-10T11:41:20.000Z</Time>
            <Position>
              <LatitudeDegrees>43.176183365285396575927734375</LatitudeDegrees>
              <LongitudeDegrees>-1.6750584729015827178955078125</LongitudeDegrees>
            </Position>
            <AltitudeMeters>118.8000030517578125</AltitudeMeters>
            <DistanceMeters>NAN</DistanceMeters>
          </Trackpoint>
          <Trackpoint>
            <Time>2021-08-10T11:41:21.000Z</Time>
            <Position>
              <LatitudeDegrees>43.1761895678937435150146484375</LatitudeDegrees>
              <LongitudeDegrees>-1.67501631192862987518310546875</LongitudeDegrees>
            </Position>
            <AltitudeMeters>118.8000030517578125</AltitudeMeters>
            <DistanceMeters>NAN</DistanceMeters>
          </Trackpoint>
          <Trackpoint>
            <Time>2021-08-10T11:41:22.000Z</Time>
            <Position>
              <LatitudeDegrees>43.17619602195918560028076171875</LatitudeDegrees>
              <LongitudeDegrees>-1.6749729774892330169677734375</LongitudeDegrees>
            </Position>
            <AltitudeMeters>118.8000030517578125</AltitudeMeters>
            <DistanceMeters>NAN</DistanceMeters>
          </Trackpoint>
          <Trackpoint>
            <Time>2021-08-10T11:41:23.000Z</Time>
            <Position>
              <LatitudeDegrees>43.1762019731104373931884765625</LatitudeDegrees>
              <LongitudeDegrees>-1.67493182234466075897216796875</LongitudeDegrees>
            </Position>
            <AltitudeMeters>118.8000030517578125</AltitudeMeters>
            <DistanceMeters>NAN</DistanceMeters>
          </Trackpoint>
          <Trackpoint>
            <Time>2021-08-10T11:41:24.000Z</Time>
            <Position>
              <LatitudeDegrees>43.17620457150042057037353515625</LatitudeDegrees>
              <LongitudeDegrees>-1.67489326559007167816162109375</LongitudeDegrees>
            </Position>
            <AltitudeMeters>118.8000030517578125</AltitudeMeters>
            <DistanceMeters>NAN</DistanceMeters>
          </Trackpoint>
          <Trackpoint>
            <Time>2021-08-10T11:41:25.000Z</Time>
            <Position>
              <LatitudeDegrees>43.1762073375284671783447265625</LatitudeDegrees>
              <LongitudeDegrees>-1.674857474863529205322265625</LongitudeDegrees>
            </Position>
            <AltitudeMeters>118.59999847412109375</AltitudeMeters>
            <DistanceMeters>NAN</DistanceMeters>
          </Trackpoint>
          <Trackpoint>
            <Time>2021-08-10T11:41:26.000Z</Time>
            <Position>
              <LatitudeDegrees>43.17621060647070407867431640625</LatitudeDegrees>
              <LongitudeDegrees>-1.67482101358473300933837890625</LongitudeDegrees>
            </Position>
            <AltitudeMeters>118.59999847412109375</AltitudeMeters>
            <DistanceMeters>NAN</DistanceMeters>
          </Trackpoint>
          <Trackpoint>
            <Time>2021-08-10T11:41:27.000Z</Time>
            <Position>
              <LatitudeDegrees>43.1762130372226238250732421875</LatitudeDegrees>
              <LongitudeDegrees>-1.6747771762311458587646484375</LongitudeDegrees>
            </Position>
            <AltitudeMeters>118.40000152587890625</AltitudeMeters>
            <DistanceMeters>NAN</DistanceMeters>
          </Trackpoint>
          <Trackpoint>
            <Time>2021-08-10T11:41:28.000Z</Time>
            <Position>
              <LatitudeDegrees>43.17621664144098758697509765625</LatitudeDegrees>
              <LongitudeDegrees>-1.67475110851228237152099609375</LongitudeDegrees>
            </Position>
            <AltitudeMeters>118.40000152587890625</AltitudeMeters>
            <DistanceMeters>NAN</DistanceMeters>
          </Trackpoint>
          <Trackpoint>
            <Time>2021-08-10T11:41:29.000Z</Time>
            <Position>
              <LatitudeDegrees>43.17622317932546138763427734375</LatitudeDegrees>
              <LongitudeDegrees>-1.67471271939575672149658203125</LongitudeDegrees>
            </Position>
            <AltitudeMeters>118.40000152587890625</AltitudeMeters>
            <DistanceMeters>NAN</DistanceMeters>
          </Trackpoint>
          <Trackpoint>
            <Time>2021-08-10T11:41:30.000Z</Time>
            <Position>
              <LatitudeDegrees>43.1762306392192840576171875</LatitudeDegrees>
              <LongitudeDegrees>-1.67466829530894756317138671875</LongitudeDegrees>
            </Position>
            <AltitudeMeters>118.40000152587890625</AltitudeMeters>
            <DistanceMeters>NAN</DistanceMeters>
          </Trackpoint>
          <Trackpoint>
            <Time>2021-08-10T11:41:31.000Z</Time>
            <Position>
              <LatitudeDegrees>43.1762365065515041351318359375</LatitudeDegrees>
              <LongitudeDegrees>-1.6746251285076141357421875</LongitudeDegrees>
            </Position>
            <AltitudeMeters>118.40000152587890625</AltitudeMeters>
            <DistanceMeters>NAN</DistanceMeters>
          </Trackpoint>
          <Trackpoint>
            <Time>2021-08-10T11:41:32.000Z</Time>
            <Position>
              <LatitudeDegrees>43.17623994313180446624755859375</LatitudeDegrees>
              <LongitudeDegrees>-1.67458212934434413909912109375</LongitudeDegrees>
            </Position>
            <AltitudeMeters>118.40000152587890625</AltitudeMeters>
            <DistanceMeters>NAN</DistanceMeters>
          </Trackpoint>
          <Trackpoint>
            <Time>2021-08-10T11:41:39.000Z</Time>
            <Position>
              <LatitudeDegrees>43.1762656755745410919189453125</LatitudeDegrees>
              <LongitudeDegrees>-1.6742683947086334228515625</LongitudeDegrees>
            </Position>
            <AltitudeMeters>118.40000152587890625</AltitudeMeters>
            <DistanceMeters>NAN</DistanceMeters>
          </Trackpoint>
          <Trackpoint>
            <Time>2021-08-10T11:41:46.000Z</Time>
            <Position>
              <LatitudeDegrees>43.1763062439858913421630859375</LatitudeDegrees>
              <LongitudeDegrees>-1.6739832423627376556396484375</LongitudeDegrees>
            </Position>
            <AltitudeMeters>118.1999969482421875</AltitudeMeters>
            <DistanceMeters>NAN</DistanceMeters>
          </Trackpoint>
          <Trackpoint>
            <Time>2021-08-10T11:41:47.000Z</Time>
            <Position>
              <LatitudeDegrees>43.1763111054897308349609375</LatitudeDegrees>
              <LongitudeDegrees>-1.67393772862851619720458984375</LongitudeDegrees>
            </Position>
            <AltitudeMeters>118.1999969482421875</AltitudeMeters>
            <DistanceMeters>NAN</DistanceMeters>
          </Trackpoint>
          <Trackpoint>
            <Time>2021-08-10T11:41:53.000Z</Time>
            <Position>
              <LatitudeDegrees>43.17634220235049724578857421875</LatitudeDegrees>
              <LongitudeDegrees>-1.67367101646959781646728515625</LongitudeDegrees>
            </Position>
            <AltitudeMeters>118.1999969482421875</AltitudeMeters>
            <DistanceMeters>NAN</DistanceMeters>
          </Trackpoint>
          <Trackpoint>
            <Time>2021-08-10T11:41:54.000Z</Time>
            <Position>
              <LatitudeDegrees>43.17634521983563899993896484375</LatitudeDegrees>
              <LongitudeDegrees>-1.67362877167761325836181640625</LongitudeDegrees>
            </Position>
            <AltitudeMeters>118.1999969482421875</AltitudeMeters>
            <DistanceMeters>NAN</DistanceMeters>
          </Trackpoint>
          <Trackpoint>
            <Time>2021-08-10T11:42:02.000Z</Time>
            <Position>
              <LatitudeDegrees>43.176377825438976287841796875</LatitudeDegrees>
              <LongitudeDegrees>-1.6732597164809703826904296875</LongitudeDegrees>
            </Position>
            <AltitudeMeters>117.8000030517578125</AltitudeMeters>
            <DistanceMeters>NAN</DistanceMeters>
          </Trackpoint>
          <Trackpoint>
            <Time>2021-08-10T11:42:06.000Z</Time>
            <Position>
              <LatitudeDegrees>43.1763903982937335968017578125</LatitudeDegrees>
              <LongitudeDegrees>-1.6731051541864871978759765625</LongitudeDegrees>
            </Position>
            <AltitudeMeters>117.8000030517578125</AltitudeMeters>
            <DistanceMeters>NAN</DistanceMeters>
          </Trackpoint>
          <Trackpoint>
            <Time>2021-08-10T11:42:07.000Z</Time>
            <Position>
              <LatitudeDegrees>43.17639701999723911285400390625</LatitudeDegrees>
              <LongitudeDegrees>-1.67305612005293369293212890625</LongitudeDegrees>
            </Position>
            <AltitudeMeters>117.8000030517578125</AltitudeMeters>
            <DistanceMeters>NAN</DistanceMeters>
          </Trackpoint>
          <Trackpoint>
            <Time>2021-08-10T11:42:08.000Z</Time>
            <Position>
              <LatitudeDegrees>43.1763997860252857208251953125</LatitudeDegrees>
              <LongitudeDegrees>-1.673020161688327789306640625</LongitudeDegrees>
            </Position>
            <AltitudeMeters>117.8000030517578125</AltitudeMeters>
            <DistanceMeters>NAN</DistanceMeters>
          </Trackpoint>
          <Trackpoint>
            <Time>2021-08-10T11:42:09.000Z</Time>
            <Position>
              <LatitudeDegrees>43.1764024682343006134033203125</LatitudeDegrees>
              <LongitudeDegrees>-1.67298520915210247039794921875</LongitudeDegrees>
            </Position>
            <AltitudeMeters>117.8000030517578125</AltitudeMeters>
            <DistanceMeters>NAN</DistanceMeters>
          </Trackpoint>
          <Trackpoint>
            <Time>2021-08-10T11:42:10.000Z</Time>
            <Position>
              <LatitudeDegrees>43.1764061562716960906982421875</LatitudeDegrees>
              <LongitudeDegrees>-1.67295218445360660552978515625</LongitudeDegrees>
            </Position>
            <AltitudeMeters>117.59999847412109375</AltitudeMeters>
            <DistanceMeters>NAN</DistanceMeters>
          </Trackpoint>
          <Trackpoint>
            <Time>2021-08-10T11:42:11.000Z</Time>
            <Position>
              <LatitudeDegrees>43.176406659185886383056640625</LatitudeDegrees>
              <LongitudeDegrees>-1.67292033322155475616455078125</LongitudeDegrees>
            </Position>
            <AltitudeMeters>117.59999847412109375</AltitudeMeters>
            <DistanceMeters>NAN</DistanceMeters>
          </Trackpoint>
          <Trackpoint>
            <Time>2021-08-10T11:42:12.000Z</Time>
            <Position>
              <LatitudeDegrees>43.17640707828104496002197265625</LatitudeDegrees>
              <LongitudeDegrees>-1.6728855483233928680419921875</LongitudeDegrees>
            </Position>
            <AltitudeMeters>117.59999847412109375</AltitudeMeters>
            <DistanceMeters>NAN</DistanceMeters>
          </Trackpoint>
          <Trackpoint>
            <Time>2021-08-10T11:42:13.000Z</Time>
            <Position>
              <LatitudeDegrees>43.17640959285199642181396484375</LatitudeDegrees>
              <LongitudeDegrees>-1.6728540323674678802490234375</LongitudeDegrees>
            </Position>
            <AltitudeMeters>117.59999847412109375</AltitudeMeters>
            <DistanceMeters>NAN</DistanceMeters>
          </Trackpoint>
          <Trackpoint>
            <Time>2021-08-10T11:42:14.000Z</Time>
            <Position>
              <LatitudeDegrees>43.1764098443090915679931640625</LatitudeDegrees>
              <LongitudeDegrees>-1.67281907983124256134033203125</LongitudeDegrees>
            </Position>
            <AltitudeMeters>117.59999847412109375</AltitudeMeters>
            <DistanceMeters>NAN</DistanceMeters>
          </Trackpoint>
          <Trackpoint>
            <Time>2021-08-10T11:42:15.000Z</Time>
            <Position>
              <LatitudeDegrees>43.176409341394901275634765625</LatitudeDegrees>
              <LongitudeDegrees>-1.67277951724827289581298828125</LongitudeDegrees>
            </Position>
            <AltitudeMeters>117.40000152587890625</AltitudeMeters>
            <DistanceMeters>NAN</DistanceMeters>
          </Trackpoint>
          <Trackpoint>
            <Time>2021-08-10T11:42:16.000Z</Time>
            <Position>
              <LatitudeDegrees>43.1764103472232818603515625</LatitudeDegrees>
              <LongitudeDegrees>-1.67274196632206439971923828125</LongitudeDegrees>
            </Position>
            <AltitudeMeters>117.40000152587890625</AltitudeMeters>
            <DistanceMeters>NAN</DistanceMeters>
          </Trackpoint>
          <Trackpoint>
            <Time>2021-08-10T11:42:17.000Z</Time>
            <Position>
              <LatitudeDegrees>43.17640791647136211395263671875</LatitudeDegrees>
              <LongitudeDegrees>-1.672703325748443603515625</LongitudeDegrees>
            </Position>
            <AltitudeMeters>117.40000152587890625</AltitudeMeters>
            <DistanceMeters>NAN</DistanceMeters>
          </Trackpoint>
          <Trackpoint>
            <Time>2021-08-10T11:42:19.000Z</Time>
            <Position>
              <LatitudeDegrees>43.17640204913914203643798828125</LatitudeDegrees>
              <LongitudeDegrees>-1.67260685004293918609619140625</LongitudeDegrees>
            </Position>
            <AltitudeMeters>117.40000152587890625</AltitudeMeters>
            <DistanceMeters>NAN</DistanceMeters>
          </Trackpoint>
          <Trackpoint>
            <Time>2021-08-10T11:42:21.000Z</Time>
            <Position>
              <LatitudeDegrees>43.1764024682343006134033203125</LatitudeDegrees>
              <LongitudeDegrees>-1.67251967824995517730712890625</LongitudeDegrees>
            </Position>
            <AltitudeMeters>117.40000152587890625</AltitudeMeters>
            <DistanceMeters>NAN</DistanceMeters>
          </Trackpoint>
          <Trackpoint>
            <Time>2021-08-10T11:42:22.000Z</Time>
            <Position>
              <LatitudeDegrees>43.1764007918536663055419921875</LatitudeDegrees>
              <LongitudeDegrees>-1.67247743345797061920166015625</LongitudeDegrees>
            </Position>
            <AltitudeMeters>117.1999969482421875</AltitudeMeters>
            <DistanceMeters>NAN</DistanceMeters>
          </Trackpoint>
          <Trackpoint>
            <Time>2021-08-10T11:42:23.000Z</Time>
            <Position>
              <LatitudeDegrees>43.1763964332640171051025390625</LatitudeDegrees>
              <LongitudeDegrees>-1.67243854142725467681884765625</LongitudeDegrees>
            </Position>
            <AltitudeMeters>117.1999969482421875</AltitudeMeters>
            <DistanceMeters>NAN</DistanceMeters>
          </Trackpoint>
          <Trackpoint>
            <Time>2021-08-10T11:42:25.000Z</Time>
            <Position>
              <LatitudeDegrees>43.1763853691518306732177734375</LatitudeDegrees>
              <LongitudeDegrees>-1.6723504476249217987060546875</LongitudeDegrees>
            </Position>
            <AltitudeMeters>117.40000152587890625</AltitudeMeters>
            <DistanceMeters>NAN</DistanceMeters>
          </Trackpoint>
          <Trackpoint>
            <Time>2021-08-10T11:42:26.000Z</Time>
            <Position>
              <LatitudeDegrees>43.176376484334468841552734375</LatitudeDegrees>
              <LongitudeDegrees>-1.67231113649904727935791015625</LongitudeDegrees>
            </Position>
            <AltitudeMeters>117.40000152587890625</AltitudeMeters>
            <DistanceMeters>NAN</DistanceMeters>
          </Trackpoint>
          <Trackpoint>
            <Time>2021-08-10T11:42:27.000Z</Time>
            <Position>
              <LatitudeDegrees>43.176367096602916717529296875</LatitudeDegrees>
              <LongitudeDegrees>-1.6722817160189151763916015625</LongitudeDegrees>
            </Position>
            <AltitudeMeters>117.40000152587890625</AltitudeMeters>
            <DistanceMeters>NAN</DistanceMeters>
          </Trackpoint>
          <Trackpoint>
            <Time>2021-08-10T11:42:29.000Z</Time>
            <Position>
              <LatitudeDegrees>43.17637053318321704864501953125</LatitudeDegrees>
              <LongitudeDegrees>-1.6721891798079013824462890625</LongitudeDegrees>
            </Position>
            <AltitudeMeters>117.40000152587890625</AltitudeMeters>
            <DistanceMeters>NAN</DistanceMeters>
          </Trackpoint>
          <Trackpoint>
            <Time>2021-08-10T11:42:30.000Z</Time>
            <Position>
              <LatitudeDegrees>43.17636399529874324798583984375</LatitudeDegrees>
              <LongitudeDegrees>-1.67214953340590000152587890625</LongitudeDegrees>
            </Position>
            <AltitudeMeters>117.40000152587890625</AltitudeMeters>
            <DistanceMeters>NAN</DistanceMeters>
          </Trackpoint>
          <Trackpoint>
            <Time>2021-08-10T11:42:31.000Z</Time>
            <Position>
              <LatitudeDegrees>43.17635226063430309295654296875</LatitudeDegrees>
              <LongitudeDegrees>-1.6721103899180889129638671875</LongitudeDegrees>
            </Position>
            <AltitudeMeters>117.40000152587890625</AltitudeMeters>
            <DistanceMeters>NAN</DistanceMeters>
          </Trackpoint>
          <Trackpoint>
            <Time>2021-08-10T11:42:32.000Z</Time>
            <Position>
              <LatitudeDegrees>43.176355026662349700927734375</LatitudeDegrees>
              <LongitudeDegrees>-1.67207057587802410125732421875</LongitudeDegrees>
            </Position>
            <AltitudeMeters>117.40000152587890625</AltitudeMeters>
            <DistanceMeters>NAN</DistanceMeters>
          </Trackpoint>
          <Trackpoint>
            <Time>2021-08-10T11:42:34.000Z</Time>
            <Position>
              <LatitudeDegrees>43.17636047489941120147705078125</LatitudeDegrees>
              <LongitudeDegrees>-1.6719568334519863128662109375</LongitudeDegrees>
            </Position>
            <AltitudeMeters>117.40000152587890625</AltitudeMeters>
            <DistanceMeters>NAN</DistanceMeters>
          </Trackpoint>
          <Trackpoint>
            <Time>2021-08-10T11:42:39.000Z</Time>
            <Position>
              <LatitudeDegrees>43.17630917765200138092041015625</LatitudeDegrees>
              <LongitudeDegrees>-1.67166061699390411376953125</LongitudeDegrees>
            </Position>
            <AltitudeMeters>117.1999969482421875</AltitudeMeters>
            <DistanceMeters>NAN</DistanceMeters>
          </Trackpoint>
          <Trackpoint>
            <Time>2021-08-10T11:42:43.000Z</Time>
            <Position>
              <LatitudeDegrees>43.17631068639457225799560546875</LatitudeDegrees>
              <LongitudeDegrees>-1.67149289511144161224365234375</LongitudeDegrees>
            </Position>
            <AltitudeMeters>117.40000152587890625</AltitudeMeters>
            <DistanceMeters>NAN</DistanceMeters>
          </Trackpoint>
          <Trackpoint>
            <Time>2021-08-10T11:42:44.000Z</Time>
            <Position>
              <LatitudeDegrees>43.17632225342094898223876953125</LatitudeDegrees>
              <LongitudeDegrees>-1.6714368201792240142822265625</LongitudeDegrees>
            </Position>
            <AltitudeMeters>117.40000152587890625</AltitudeMeters>
            <DistanceMeters>NAN</DistanceMeters>
          </Trackpoint>
          <Trackpoint>
            <Time>2021-08-10T11:42:45.000Z</Time>
            <Position>
              <LatitudeDegrees>43.176316805183887481689453125</LatitudeDegrees>
              <LongitudeDegrees>-1.671394072473049163818359375</LongitudeDegrees>
            </Position>
            <AltitudeMeters>117.40000152587890625</AltitudeMeters>
            <DistanceMeters>NAN</DistanceMeters>
          </Trackpoint>
          <Trackpoint>
            <Time>2021-08-10T11:42:47.000Z</Time>
            <Position>
              <LatitudeDegrees>43.17630247212946414947509765625</LatitudeDegrees>
              <LongitudeDegrees>-1.6713072359561920166015625</LongitudeDegrees>
            </Position>
            <AltitudeMeters>117.40000152587890625</AltitudeMeters>
            <DistanceMeters>NAN</DistanceMeters>
          </Trackpoint>
          <Trackpoint>
            <Time>2021-08-10T11:42:48.000Z</Time>
            <Position>
              <LatitudeDegrees>43.17630180157721042633056640625</LatitudeDegrees>
              <LongitudeDegrees>-1.67126691900193691253662109375</LongitudeDegrees>
            </Position>
            <AltitudeMeters>117.40000152587890625</AltitudeMeters>
            <DistanceMeters>NAN</DistanceMeters>
          </Trackpoint>
          <Trackpoint>
            <Time>2021-08-10T11:42:49.000Z</Time>
            <Position>
              <LatitudeDegrees>43.1763012148439884185791015625</LatitudeDegrees>
              <LongitudeDegrees>-1.671231128275394439697265625</LongitudeDegrees>
            </Position>
            <AltitudeMeters>117.40000152587890625</AltitudeMeters>
            <DistanceMeters>NAN</DistanceMeters>
          </Trackpoint>
          <Trackpoint>
            <Time>2021-08-10T11:42:50.000Z</Time>
            <Position>
              <LatitudeDegrees>43.17630129866302013397216796875</LatitudeDegrees>
              <LongitudeDegrees>-1.67120086960494518280029296875</LongitudeDegrees>
            </Position>
            <AltitudeMeters>117.59999847412109375</AltitudeMeters>
            <DistanceMeters>NAN</DistanceMeters>
          </Trackpoint>
          <Trackpoint>
            <Time>2021-08-10T11:42:51.000Z</Time>
            <Position>
              <LatitudeDegrees>43.17629811353981494903564453125</LatitudeDegrees>
              <LongitudeDegrees>-1.67117304168641567230224609375</LongitudeDegrees>
            </Position>
            <AltitudeMeters>117.59999847412109375</AltitudeMeters>
            <DistanceMeters>NAN</DistanceMeters>
          </Trackpoint>
          <Trackpoint>
            <Time>2021-08-10T11:42:54.000Z</Time>
            <Position>
              <LatitudeDegrees>43.17628604359924793243408203125</LatitudeDegrees>
              <LongitudeDegrees>-1.67106357403099536895751953125</LongitudeDegrees>
            </Position>
            <AltitudeMeters>117.59999847412109375</AltitudeMeters>
            <DistanceMeters>NAN</DistanceMeters>
          </Trackpoint>
          <Trackpoint>
            <Time>2021-08-10T11:42:56.000Z</Time>
            <Position>
              <LatitudeDegrees>43.17626860924065113067626953125</LatitudeDegrees>
              <LongitudeDegrees>-1.670981347560882568359375</LongitudeDegrees>
            </Position>
            <AltitudeMeters>117.59999847412109375</AltitudeMeters>
            <DistanceMeters>NAN</DistanceMeters>
          </Trackpoint>
          <Trackpoint>
            <Time>2021-08-10T11:43:01.000Z</Time>
            <Position>
              <LatitudeDegrees>43.1762197427451610565185546875</LatitudeDegrees>
              <LongitudeDegrees>-1.670742966234683990478515625</LongitudeDegrees>
            </Position>
            <AltitudeMeters>118</AltitudeMeters>
            <DistanceMeters>NAN</DistanceMeters>
          </Trackpoint>
          <Trackpoint>
            <Time>2021-08-10T11:43:02.000Z</Time>
            <Position>
              <LatitudeDegrees>43.176212199032306671142578125</LatitudeDegrees>
              <LongitudeDegrees>-1.6706983745098114013671875</LongitudeDegrees>
            </Position>
            <AltitudeMeters>118</AltitudeMeters>
            <DistanceMeters>NAN</DistanceMeters>
          </Trackpoint>
          <Trackpoint>
            <Time>2021-08-10T11:43:03.000Z</Time>
            <Position>
              <LatitudeDegrees>43.1762023083865642547607421875</LatitudeDegrees>
              <LongitudeDegrees>-1.67065084911882877349853515625</LongitudeDegrees>
            </Position>
            <AltitudeMeters>118</AltitudeMeters>
            <DistanceMeters>NAN</DistanceMeters>
          </Trackpoint>
          <Trackpoint>
            <Time>2021-08-10T11:43:04.000Z</Time>
            <Position>
              <LatitudeDegrees>43.17618881352245807647705078125</LatitudeDegrees>
              <LongitudeDegrees>-1.67059955187141895294189453125</LongitudeDegrees>
            </Position>
            <AltitudeMeters>118</AltitudeMeters>
            <DistanceMeters>NAN</DistanceMeters>
          </Trackpoint>
          <Trackpoint>
            <Time>2021-08-10T11:43:07.000Z</Time>
            <Position>
              <LatitudeDegrees>43.17616400308907032012939453125</LatitudeDegrees>
              <LongitudeDegrees>-1.67044599540531635284423828125</LongitudeDegrees>
            </Position>
            <AltitudeMeters>117.59999847412109375</AltitudeMeters>
            <DistanceMeters>NAN</DistanceMeters>
          </Trackpoint>
          <Trackpoint>
            <Time>2021-08-10T11:43:11.000Z</Time>
            <Position>
              <LatitudeDegrees>43.17613516934216022491455078125</LatitudeDegrees>
              <LongitudeDegrees>-1.67026226408779621124267578125</LongitudeDegrees>
            </Position>
            <AltitudeMeters>117.40000152587890625</AltitudeMeters>
            <DistanceMeters>NAN</DistanceMeters>
          </Trackpoint>
          <Trackpoint>
            <Time>2021-08-10T11:43:12.000Z</Time>
            <Position>
              <LatitudeDegrees>43.1761278770864009857177734375</LatitudeDegrees>
              <LongitudeDegrees>-1.6702164150774478912353515625</LongitudeDegrees>
            </Position>
            <AltitudeMeters>117.40000152587890625</AltitudeMeters>
            <DistanceMeters>NAN</DistanceMeters>
          </Trackpoint>
          <Trackpoint>
            <Time>2021-08-10T11:43:15.000Z</Time>
            <Position>
              <LatitudeDegrees>43.1761044077575206756591796875</LatitudeDegrees>
              <LongitudeDegrees>-1.67007543146610260009765625</LongitudeDegrees>
            </Position>
            <AltitudeMeters>117.40000152587890625</AltitudeMeters>
            <DistanceMeters>NAN</DistanceMeters>
          </Trackpoint>
          <Trackpoint>
            <Time>2021-08-10T11:43:17.000Z</Time>
            <Position>
              <LatitudeDegrees>43.1760876439511775970458984375</LatitudeDegrees>
              <LongitudeDegrees>-1.66998482309281826019287109375</LongitudeDegrees>
            </Position>
            <AltitudeMeters>117.40000152587890625</AltitudeMeters>
            <DistanceMeters>NAN</DistanceMeters>
          </Trackpoint>
          <Trackpoint>
            <Time>2021-08-10T11:43:18.000Z</Time>
            <Position>
              <LatitudeDegrees>43.17607498727738857269287109375</LatitudeDegrees>
              <LongitudeDegrees>-1.66993905790150165557861328125</LongitudeDegrees>
            </Position>
            <AltitudeMeters>117.40000152587890625</AltitudeMeters>
            <DistanceMeters>NAN</DistanceMeters>
          </Trackpoint>
          <Trackpoint>
            <Time>2021-08-10T11:43:19.000Z</Time>
            <Position>
              <LatitudeDegrees>43.176065348088741302490234375</LatitudeDegrees>
              <LongitudeDegrees>-1.66989429853856563568115234375</LongitudeDegrees>
            </Position>
            <AltitudeMeters>117.40000152587890625</AltitudeMeters>
            <DistanceMeters>NAN</DistanceMeters>
          </Trackpoint>
          <Trackpoint>
            <Time>2021-08-10T11:43:20.000Z</Time>
            <Position>
              <LatitudeDegrees>43.17605906166136264801025390625</LatitudeDegrees>
              <LongitudeDegrees>-1.66985289193689823150634765625</LongitudeDegrees>
            </Position>
            <AltitudeMeters>117.40000152587890625</AltitudeMeters>
            <DistanceMeters>NAN</DistanceMeters>
          </Trackpoint>
          <Trackpoint>
            <Time>2021-08-10T11:43:22.000Z</Time>
            <Position>
              <LatitudeDegrees>43.17605202086269855499267578125</LatitudeDegrees>
              <LongitudeDegrees>-1.6697584278881549835205078125</LongitudeDegrees>
            </Position>
            <AltitudeMeters>117.40000152587890625</AltitudeMeters>
            <DistanceMeters>NAN</DistanceMeters>
          </Trackpoint>
          <Trackpoint>
            <Time>2021-08-10T11:43:31.000Z</Time>
            <Position>
              <LatitudeDegrees>43.17600625567138195037841796875</LatitudeDegrees>
              <LongitudeDegrees>-1.66932080872356891632080078125</LongitudeDegrees>
            </Position>
            <AltitudeMeters>117.59999847412109375</AltitudeMeters>
            <DistanceMeters>NAN</DistanceMeters>
          </Trackpoint>
          <Trackpoint>
            <Time>2021-08-10T11:43:34.000Z</Time>
            <Position>
              <LatitudeDegrees>43.17598395980894565582275390625</LatitudeDegrees>
              <LongitudeDegrees>-1.6691924817860126495361328125</LongitudeDegrees>
            </Position>
            <AltitudeMeters>117.59999847412109375</AltitudeMeters>
            <DistanceMeters>NAN</DistanceMeters>
          </Trackpoint>
          <Trackpoint>
            <Time>2021-08-10T11:43:35.000Z</Time>
            <Position>
              <LatitudeDegrees>43.17597624845802783966064453125</LatitudeDegrees>
              <LongitudeDegrees>-1.6691522486507892608642578125</LongitudeDegrees>
            </Position>
            <AltitudeMeters>117.59999847412109375</AltitudeMeters>
            <DistanceMeters>NAN</DistanceMeters>
          </Trackpoint>
          <Trackpoint>
            <Time>2021-08-10T11:43:36.000Z</Time>
            <Position>
              <LatitudeDegrees>43.17597272805869579315185546875</LatitudeDegrees>
              <LongitudeDegrees>-1.6691106744110584259033203125</LongitudeDegrees>
            </Position>
            <AltitudeMeters>117.59999847412109375</AltitudeMeters>
            <DistanceMeters>NAN</DistanceMeters>
          </Trackpoint>
          <Trackpoint>
            <Time>2021-08-10T11:43:37.000Z</Time>
            <Position>
              <LatitudeDegrees>43.175967447459697723388671875</LatitudeDegrees>
              <LongitudeDegrees>-1.66907270438969135284423828125</LongitudeDegrees>
            </Position>
            <AltitudeMeters>117.40000152587890625</AltitudeMeters>
            <DistanceMeters>NAN</DistanceMeters>
          </Trackpoint>
          <Trackpoint>
            <Time>2021-08-10T11:43:38.000Z</Time>
            <Position>
              <LatitudeDegrees>43.17596099339425563812255859375</LatitudeDegrees>
              <LongitudeDegrees>-1.669032387435436248779296875</LongitudeDegrees>
            </Position>
            <AltitudeMeters>117.40000152587890625</AltitudeMeters>
            <DistanceMeters>NAN</DistanceMeters>
          </Trackpoint>
          <Trackpoint>
            <Time>2021-08-10T11:43:39.000Z</Time>
            <Position>
              <LatitudeDegrees>43.17594925872981548309326171875</LatitudeDegrees>
              <LongitudeDegrees>-1.66898779571056365966796875</LongitudeDegrees>
            </Position>
            <AltitudeMeters>117.40000152587890625</AltitudeMeters>
            <DistanceMeters>NAN</DistanceMeters>
          </Trackpoint>
          <Trackpoint>
            <Time>2021-08-10T11:43:46.000Z</Time>
            <Position>
              <LatitudeDegrees>43.175917156040668487548828125</LatitudeDegrees>
              <LongitudeDegrees>-1.6686369292438030242919921875</LongitudeDegrees>
            </Position>
            <AltitudeMeters>117.1999969482421875</AltitudeMeters>
            <DistanceMeters>NAN</DistanceMeters>
          </Trackpoint>
          <Trackpoint>
            <Time>2021-08-10T11:43:53.000Z</Time>
            <Position>
              <LatitudeDegrees>43.17596971057355403900146484375</LatitudeDegrees>
              <LongitudeDegrees>-1.66828983463346958160400390625</LongitudeDegrees>
            </Position>
            <AltitudeMeters>116.8000030517578125</AltitudeMeters>
            <DistanceMeters>NAN</DistanceMeters>
          </Trackpoint>
          <Trackpoint>
            <Time>2021-08-10T11:43:54.000Z</Time>
            <Position>
              <LatitudeDegrees>43.17598010413348674774169921875</LatitudeDegrees>
              <LongitudeDegrees>-1.668243817985057830810546875</LongitudeDegrees>
            </Position>
            <AltitudeMeters>116.8000030517578125</AltitudeMeters>
            <DistanceMeters>NAN</DistanceMeters>
          </Trackpoint>
          <Trackpoint>
            <Time>2021-08-10T11:43:55.000Z</Time>
            <Position>
              <LatitudeDegrees>43.17599183879792690277099609375</LatitudeDegrees>
              <LongitudeDegrees>-1.668200232088565826416015625</LongitudeDegrees>
            </Position>
            <AltitudeMeters>116.8000030517578125</AltitudeMeters>
            <DistanceMeters>NAN</DistanceMeters>
          </Trackpoint>
          <Trackpoint>
            <Time>2021-08-10T11:43:56.000Z</Time>
            <Position>
              <LatitudeDegrees>43.1760053336620330810546875</LatitudeDegrees>
              <LongitudeDegrees>-1.66815354488790035247802734375</LongitudeDegrees>
            </Position>
            <AltitudeMeters>116.8000030517578125</AltitudeMeters>
            <DistanceMeters>NAN</DistanceMeters>
          </Trackpoint>
          <Trackpoint>
            <Time>2021-08-10T11:44:01.000Z</Time>
            <Position>
              <LatitudeDegrees>43.17609460093080997467041015625</LatitudeDegrees>
              <LongitudeDegrees>-1.66791415773332118988037109375</LongitudeDegrees>
            </Position>
            <AltitudeMeters>116.59999847412109375</AltitudeMeters>
            <DistanceMeters>NAN</DistanceMeters>
          </Trackpoint>
          <Trackpoint>
            <Time>2021-08-10T11:44:08.000Z</Time>
            <Position>
              <LatitudeDegrees>43.17625083960592746734619140625</LatitudeDegrees>
              <LongitudeDegrees>-1.6676438413560390472412109375</LongitudeDegrees>
            </Position>
            <AltitudeMeters>116.59999847412109375</AltitudeMeters>
            <DistanceMeters>NAN</DistanceMeters>
          </Trackpoint>
          <Trackpoint>
            <Time>2021-08-10T11:44:09.000Z</Time>
            <Position>
              <LatitudeDegrees>43.17627430893480777740478515625</LatitudeDegrees>
              <LongitudeDegrees>-1.66761190630495548248291015625</LongitudeDegrees>
            </Position>
            <AltitudeMeters>116.40000152587890625</AltitudeMeters>
            <DistanceMeters>NAN</DistanceMeters>
          </Trackpoint>
          <Trackpoint>
            <Time>2021-08-10T11:44:10.000Z</Time>
            <Position>
              <LatitudeDegrees>43.17629727534949779510498046875</LatitudeDegrees>
              <LongitudeDegrees>-1.66758307255804538726806640625</LongitudeDegrees>
            </Position>
            <AltitudeMeters>116.40000152587890625</AltitudeMeters>
            <DistanceMeters>NAN</DistanceMeters>
          </Trackpoint>
          <Trackpoint>
            <Time>2021-08-10T11:44:11.000Z</Time>
            <Position>
              <LatitudeDegrees>43.1763245165348052978515625</LatitudeDegrees>
              <LongitudeDegrees>-1.66755742393434047698974609375</LongitudeDegrees>
            </Position>
            <AltitudeMeters>116.1999969482421875</AltitudeMeters>
            <DistanceMeters>NAN</DistanceMeters>
          </Trackpoint>
          <Trackpoint>
            <Time>2021-08-10T11:44:12.000Z</Time>
            <Position>
              <LatitudeDegrees>43.17635469138622283935546875</LatitudeDegrees>
              <LongitudeDegrees>-1.6675375588238239288330078125</LongitudeDegrees>
            </Position>
            <AltitudeMeters>116.1999969482421875</AltitudeMeters>
            <DistanceMeters>NAN</DistanceMeters>
          </Trackpoint>
          <Trackpoint>
            <Time>2021-08-10T11:44:13.000Z</Time>
            <Position>
              <LatitudeDegrees>43.176381178200244903564453125</LatitudeDegrees>
              <LongitudeDegrees>-1.66751082055270671844482421875</LongitudeDegrees>
            </Position>
            <AltitudeMeters>116.1999969482421875</AltitudeMeters>
            <DistanceMeters>NAN</DistanceMeters>
          </Trackpoint>
          <Trackpoint>
            <Time>2021-08-10T11:44:14.000Z</Time>
            <Position>
              <LatitudeDegrees>43.17640590481460094451904296875</LatitudeDegrees>
              <LongitudeDegrees>-1.6674832440912723541259765625</LongitudeDegrees>
            </Position>
            <AltitudeMeters>116</AltitudeMeters>
            <DistanceMeters>NAN</DistanceMeters>
          </Trackpoint>
          <Trackpoint>
            <Time>2021-08-10T11:44:15.000Z</Time>
            <Position>
              <LatitudeDegrees>43.1764276139438152313232421875</LatitudeDegrees>
              <LongitudeDegrees>-1.66745751164853572845458984375</LongitudeDegrees>
            </Position>
            <AltitudeMeters>116</AltitudeMeters>
            <DistanceMeters>NAN</DistanceMeters>
          </Trackpoint>
          <Trackpoint>
            <Time>2021-08-10T11:44:16.000Z</Time>
            <Position>
              <LatitudeDegrees>43.17645384930074214935302734375</LatitudeDegrees>
              <LongitudeDegrees>-1.6674376465380191802978515625</LongitudeDegrees>
            </Position>
            <AltitudeMeters>116</AltitudeMeters>
            <DistanceMeters>NAN</DistanceMeters>
          </Trackpoint>
          <Trackpoint>
            <Time>2021-08-10T11:44:19.000Z</Time>
            <Position>
              <LatitudeDegrees>43.17655451595783233642578125</LatitudeDegrees>
              <LongitudeDegrees>-1.66737536899745464324951171875</LongitudeDegrees>
            </Position>
            <AltitudeMeters>116.1999969482421875</AltitudeMeters>
            <DistanceMeters>NAN</DistanceMeters>
          </Trackpoint>
          <Trackpoint>
            <Time>2021-08-10T11:44:25.000Z</Time>
            <Position>
              <LatitudeDegrees>43.17675258032977581024169921875</LatitudeDegrees>
              <LongitudeDegrees>-1.66727277450263500213623046875</LongitudeDegrees>
            </Position>
            <AltitudeMeters>116.1999969482421875</AltitudeMeters>
            <DistanceMeters>NAN</DistanceMeters>
          </Trackpoint>
          <Trackpoint>
            <Time>2021-08-10T11:44:29.000Z</Time>
            <Position>
              <LatitudeDegrees>43.176885433495044708251953125</LatitudeDegrees>
              <LongitudeDegrees>-1.66723891161382198333740234375</LongitudeDegrees>
            </Position>
            <AltitudeMeters>116</AltitudeMeters>
            <DistanceMeters>NAN</DistanceMeters>
          </Trackpoint>
          <Trackpoint>
            <Time>2021-08-10T11:44:32.000Z</Time>
            <Position>
              <LatitudeDegrees>43.176994062960147857666015625</LatitudeDegrees>
              <LongitudeDegrees>-1.667231284081935882568359375</LongitudeDegrees>
            </Position>
            <AltitudeMeters>115.8000030517578125</AltitudeMeters>
            <DistanceMeters>NAN</DistanceMeters>
          </Trackpoint>
          <Trackpoint>
            <Time>2021-08-10T11:44:33.000Z</Time>
            <Position>
              <LatitudeDegrees>43.177028596401214599609375</LatitudeDegrees>
              <LongitudeDegrees>-1.66722801513969898223876953125</LongitudeDegrees>
            </Position>
            <AltitudeMeters>115.8000030517578125</AltitudeMeters>
            <DistanceMeters>NAN</DistanceMeters>
          </Trackpoint>
          <Trackpoint>
            <Time>2021-08-10T11:44:38.000Z</Time>
            <Position>
              <LatitudeDegrees>43.17721358500421047210693359375</LatitudeDegrees>
              <LongitudeDegrees>-1.667247712612152099609375</LongitudeDegrees>
            </Position>
            <AltitudeMeters>115.59999847412109375</AltitudeMeters>
            <DistanceMeters>NAN</DistanceMeters>
          </Trackpoint>
          <Trackpoint>
            <Time>2021-08-10T11:44:46.000Z</Time>
            <Position>
              <LatitudeDegrees>43.17749052308499813079833984375</LatitudeDegrees>
              <LongitudeDegrees>-1.6673585213720798492431640625</LongitudeDegrees>
            </Position>
            <AltitudeMeters>115.59999847412109375</AltitudeMeters>
            <DistanceMeters>NAN</DistanceMeters>
          </Trackpoint>
          <Trackpoint>
            <Time>2021-08-10T11:44:47.000Z</Time>
            <Position>
              <LatitudeDegrees>43.177527152001857757568359375</LatitudeDegrees>
              <LongitudeDegrees>-1.66738073341548442840576171875</LongitudeDegrees>
            </Position>
            <AltitudeMeters>115.59999847412109375</AltitudeMeters>
            <DistanceMeters>NAN</DistanceMeters>
          </Trackpoint>
          <Trackpoint>
            <Time>2021-08-10T11:44:48.000Z</Time>
            <Position>
              <LatitudeDegrees>43.17755640484392642974853515625</LatitudeDegrees>
              <LongitudeDegrees>-1.6674014367163181304931640625</LongitudeDegrees>
            </Position>
            <AltitudeMeters>115.8000030517578125</AltitudeMeters>
            <DistanceMeters>NAN</DistanceMeters>
          </Trackpoint>
          <Trackpoint>
            <Time>2021-08-10T11:44:49.000Z</Time>
            <Position>
              <LatitudeDegrees>43.17758004181087017059326171875</LatitudeDegrees>
              <LongitudeDegrees>-1.667418368160724639892578125</LongitudeDegrees>
            </Position>
            <AltitudeMeters>115.8000030517578125</AltitudeMeters>
            <DistanceMeters>NAN</DistanceMeters>
          </Trackpoint>
          <Trackpoint>
            <Time>2021-08-10T11:44:50.000Z</Time>
            <Position>
              <LatitudeDegrees>43.17760736681520938873291015625</LatitudeDegrees>
              <LongitudeDegrees>-1.66743907146155834197998046875</LongitudeDegrees>
            </Position>
            <AltitudeMeters>115.8000030517578125</AltitudeMeters>
            <DistanceMeters>NAN</DistanceMeters>
          </Trackpoint>
          <Trackpoint>
            <Time>2021-08-10T11:44:51.000Z</Time>
            <Position>
              <LatitudeDegrees>43.1776399724185466766357421875</LatitudeDegrees>
              <LongitudeDegrees>-1.66746488772332668304443359375</LongitudeDegrees>
            </Position>
            <AltitudeMeters>115.8000030517578125</AltitudeMeters>
            <DistanceMeters>NAN</DistanceMeters>
          </Trackpoint>
          <Trackpoint>
            <Time>2021-08-10T11:44:52.000Z</Time>
            <Position>
              <LatitudeDegrees>43.177661597728729248046875</LatitudeDegrees>
              <LongitudeDegrees>-1.66748450137674808502197265625</LongitudeDegrees>
            </Position>
            <AltitudeMeters>115.8000030517578125</AltitudeMeters>
            <DistanceMeters>NAN</DistanceMeters>
          </Trackpoint>
          <Trackpoint>
            <Time>2021-08-10T11:44:53.000Z</Time>
            <Position>
              <LatitudeDegrees>43.1776951253414154052734375</LatitudeDegrees>
              <LongitudeDegrees>-1.667515933513641357421875</LongitudeDegrees>
            </Position>
            <AltitudeMeters>115.8000030517578125</AltitudeMeters>
            <DistanceMeters>NAN</DistanceMeters>
          </Trackpoint>
          <Trackpoint>
            <Time>2021-08-10T11:44:54.000Z</Time>
            <Position>
              <LatitudeDegrees>43.17771633155643939971923828125</LatitudeDegrees>
              <LongitudeDegrees>-1.6675395704805850982666015625</LongitudeDegrees>
            </Position>
            <AltitudeMeters>115.8000030517578125</AltitudeMeters>
            <DistanceMeters>NAN</DistanceMeters>
          </Trackpoint>
          <Trackpoint>
            <Time>2021-08-10T11:44:55.000Z</Time>
            <Position>
              <LatitudeDegrees>43.17774298600852489471435546875</LatitudeDegrees>
              <LongitudeDegrees>-1.66756899096071720123291015625</LongitudeDegrees>
            </Position>
            <AltitudeMeters>115.8000030517578125</AltitudeMeters>
            <DistanceMeters>NAN</DistanceMeters>
          </Trackpoint>
          <Trackpoint>
            <Time>2021-08-10T11:44:56.000Z</Time>
            <Position>
              <LatitudeDegrees>43.17776846699416637420654296875</LatitudeDegrees>
              <LongitudeDegrees>-1.66759866289794445037841796875</LongitudeDegrees>
            </Position>
            <AltitudeMeters>115.8000030517578125</AltitudeMeters>
            <DistanceMeters>NAN</DistanceMeters>
          </Trackpoint>
          <Trackpoint>
            <Time>2021-08-10T11:44:57.000Z</Time>
            <Position>
              <LatitudeDegrees>43.177792690694332122802734375</LatitudeDegrees>
              <LongitudeDegrees>-1.66762699373066425323486328125</LongitudeDegrees>
            </Position>
            <AltitudeMeters>115.8000030517578125</AltitudeMeters>
            <DistanceMeters>NAN</DistanceMeters>
          </Trackpoint>
          <Trackpoint>
            <Time>2021-08-10T11:44:58.000Z</Time>
            <Position>
              <LatitudeDegrees>43.17782077006995677947998046875</LatitudeDegrees>
              <LongitudeDegrees>-1.66766068898141384124755859375</LongitudeDegrees>
            </Position>
            <AltitudeMeters>115.8000030517578125</AltitudeMeters>
            <DistanceMeters>NAN</DistanceMeters>
          </Trackpoint>
          <Trackpoint>
            <Time>2021-08-10T11:44:59.000Z</Time>
            <Position>
              <LatitudeDegrees>43.17783954553306102752685546875</LatitudeDegrees>
              <LongitudeDegrees>-1.66768424212932586669921875</LongitudeDegrees>
            </Position>
            <AltitudeMeters>115.8000030517578125</AltitudeMeters>
            <DistanceMeters>NAN</DistanceMeters>
          </Trackpoint>
          <Trackpoint>
            <Time>2021-08-10T11:45:03.000Z</Time>
            <Position>
              <LatitudeDegrees>43.17791867069900035858154296875</LatitudeDegrees>
              <LongitudeDegrees>-1.66780267842113971710205078125</LongitudeDegrees>
            </Position>
            <AltitudeMeters>115.8000030517578125</AltitudeMeters>
            <DistanceMeters>NAN</DistanceMeters>
          </Trackpoint>
          <Trackpoint>
            <Time>2021-08-10T11:45:04.000Z</Time>
            <Position>
              <LatitudeDegrees>43.1779387034475803375244140625</LatitudeDegrees>
              <LongitudeDegrees>-1.66783167980611324310302734375</LongitudeDegrees>
            </Position>
            <AltitudeMeters>115.59999847412109375</AltitudeMeters>
            <DistanceMeters>NAN</DistanceMeters>
          </Trackpoint>
          <Trackpoint>
            <Time>2021-08-10T11:45:05.000Z</Time>
            <Position>
              <LatitudeDegrees>43.17795940674841403961181640625</LatitudeDegrees>
              <LongitudeDegrees>-1.6678607650101184844970703125</LongitudeDegrees>
            </Position>
            <AltitudeMeters>115.59999847412109375</AltitudeMeters>
            <DistanceMeters>NAN</DistanceMeters>
          </Trackpoint>
          <Trackpoint>
            <Time>2021-08-10T11:45:06.000Z</Time>
            <Position>
              <LatitudeDegrees>43.17798103205859661102294921875</LatitudeDegrees>
              <LongitudeDegrees>-1.66789135895669460296630859375</LongitudeDegrees>
            </Position>
            <AltitudeMeters>115.59999847412109375</AltitudeMeters>
            <DistanceMeters>NAN</DistanceMeters>
          </Trackpoint>
          <Trackpoint>
            <Time>2021-08-10T11:45:11.000Z</Time>
            <Position>
              <LatitudeDegrees>43.17809251137077808380126953125</LatitudeDegrees>
              <LongitudeDegrees>-1.66805312968790531158447265625</LongitudeDegrees>
            </Position>
            <AltitudeMeters>115.59999847412109375</AltitudeMeters>
            <DistanceMeters>NAN</DistanceMeters>
          </Trackpoint>
          <Trackpoint>
            <Time>2021-08-10T11:45:18.000Z</Time>
            <Position>
              <LatitudeDegrees>43.1782672740519046783447265625</LatitudeDegrees>
              <LongitudeDegrees>-1.66830492205917835235595703125</LongitudeDegrees>
            </Position>
            <AltitudeMeters>115</AltitudeMeters>
            <DistanceMeters>NAN</DistanceMeters>
          </Trackpoint>
          <Trackpoint>
            <Time>2021-08-10T11:45:20.000Z</Time>
            <Position>
              <LatitudeDegrees>43.17831496708095073699951171875</LatitudeDegrees>
              <LongitudeDegrees>-1.66836074553430080413818359375</LongitudeDegrees>
            </Position>
            <AltitudeMeters>115</AltitudeMeters>
            <DistanceMeters>NAN</DistanceMeters>
          </Trackpoint>
          <Trackpoint>
            <Time>2021-08-10T11:45:27.000Z</Time>
            <Position>
              <LatitudeDegrees>43.17850314080715179443359375</LatitudeDegrees>
              <LongitudeDegrees>-1.6686196625232696533203125</LongitudeDegrees>
            </Position>
            <AltitudeMeters>114.59999847412109375</AltitudeMeters>
            <DistanceMeters>NAN</DistanceMeters>
          </Trackpoint>
          <Trackpoint>
            <Time>2021-08-10T11:45:34.000Z</Time>
            <Position>
              <LatitudeDegrees>43.17866801284253597259521484375</LatitudeDegrees>
              <LongitudeDegrees>-1.66884723119437694549560546875</LongitudeDegrees>
            </Position>
            <AltitudeMeters>114.40000152587890625</AltitudeMeters>
            <DistanceMeters>NAN</DistanceMeters>
          </Trackpoint>
          <Trackpoint>
            <Time>2021-08-10T11:45:35.000Z</Time>
            <Position>
              <LatitudeDegrees>43.1786875426769256591796875</LatitudeDegrees>
              <LongitudeDegrees>-1.66887422092258930206298828125</LongitudeDegrees>
            </Position>
            <AltitudeMeters>114.40000152587890625</AltitudeMeters>
            <DistanceMeters>NAN</DistanceMeters>
          </Trackpoint>
          <Trackpoint>
            <Time>2021-08-10T11:45:36.000Z</Time>
            <Position>
              <LatitudeDegrees>43.17870891653001308441162109375</LatitudeDegrees>
              <LongitudeDegrees>-1.66890305466949939727783203125</LongitudeDegrees>
            </Position>
            <AltitudeMeters>114.40000152587890625</AltitudeMeters>
            <DistanceMeters>NAN</DistanceMeters>
          </Trackpoint>
          <Trackpoint>
            <Time>2021-08-10T11:45:37.000Z</Time>
            <Position>
              <LatitudeDegrees>43.17872953601181507110595703125</LatitudeDegrees>
              <LongitudeDegrees>-1.66893507353961467742919921875</LongitudeDegrees>
            </Position>
            <AltitudeMeters>114.1999969482421875</AltitudeMeters>
            <DistanceMeters>NAN</DistanceMeters>
          </Trackpoint>
          <Trackpoint>
            <Time>2021-08-10T11:45:38.000Z</Time>
            <Position>
              <LatitudeDegrees>43.17874931730329990386962890625</LatitudeDegrees>
              <LongitudeDegrees>-1.6689675115048885345458984375</LongitudeDegrees>
            </Position>
            <AltitudeMeters>114.1999969482421875</AltitudeMeters>
            <DistanceMeters>NAN</DistanceMeters>
          </Trackpoint>
          <Trackpoint>
            <Time>2021-08-10T11:45:39.000Z</Time>
            <Position>
              <LatitudeDegrees>43.17877245135605335235595703125</LatitudeDegrees>
              <LongitudeDegrees>-1.66899575851857662200927734375</LongitudeDegrees>
            </Position>
            <AltitudeMeters>114.1999969482421875</AltitudeMeters>
            <DistanceMeters>NAN</DistanceMeters>
          </Trackpoint>
          <Trackpoint>
            <Time>2021-08-10T11:45:40.000Z</Time>
            <Position>
              <LatitudeDegrees>43.17879122681915760040283203125</LatitudeDegrees>
              <LongitudeDegrees>-1.66901738382875919342041015625</LongitudeDegrees>
            </Position>
            <AltitudeMeters>114.1999969482421875</AltitudeMeters>
            <DistanceMeters>NAN</DistanceMeters>
          </Trackpoint>
          <Trackpoint>
            <Time>2021-08-10T11:45:41.000Z</Time>
            <Position>
              <LatitudeDegrees>43.1788100861012935638427734375</LatitudeDegrees>
              <LongitudeDegrees>-1.669044792652130126953125</LongitudeDegrees>
            </Position>
            <AltitudeMeters>114</AltitudeMeters>
            <DistanceMeters>NAN</DistanceMeters>
          </Trackpoint>
          <Trackpoint>
            <Time>2021-08-10T11:45:42.000Z</Time>
            <Position>
              <LatitudeDegrees>43.17882928065955638885498046875</LatitudeDegrees>
              <LongitudeDegrees>-1.66907136328518390655517578125</LongitudeDegrees>
            </Position>
            <AltitudeMeters>114</AltitudeMeters>
            <DistanceMeters>NAN</DistanceMeters>
          </Trackpoint>
          <Trackpoint>
            <Time>2021-08-10T11:45:43.000Z</Time>
            <Position>
              <LatitudeDegrees>43.1788540072739124298095703125</LatitudeDegrees>
              <LongitudeDegrees>-1.6691043041646480560302734375</LongitudeDegrees>
            </Position>
            <AltitudeMeters>114</AltitudeMeters>
            <DistanceMeters>NAN</DistanceMeters>
          </Trackpoint>
          <Trackpoint>
            <Time>2021-08-10T11:45:44.000Z</Time>
            <Position>
              <LatitudeDegrees>43.1788731180131435394287109375</LatitudeDegrees>
              <LongitudeDegrees>-1.66913422755897045135498046875</LongitudeDegrees>
            </Position>
            <AltitudeMeters>114</AltitudeMeters>
            <DistanceMeters>NAN</DistanceMeters>
          </Trackpoint>
          <Trackpoint>
            <Time>2021-08-10T11:45:45.000Z</Time>
            <Position>
              <LatitudeDegrees>43.17889382131397724151611328125</LatitudeDegrees>
              <LongitudeDegrees>-1.6691629774868488311767578125</LongitudeDegrees>
            </Position>
            <AltitudeMeters>114</AltitudeMeters>
            <DistanceMeters>NAN</DistanceMeters>
          </Trackpoint>
          <Trackpoint>
            <Time>2021-08-10T11:45:47.000Z</Time>
            <Position>
              <LatitudeDegrees>43.1789281032979488372802734375</LatitudeDegrees>
              <LongitudeDegrees>-1.66921184398233890533447265625</LongitudeDegrees>
            </Position>
            <AltitudeMeters>114</AltitudeMeters>
            <DistanceMeters>NAN</DistanceMeters>
          </Trackpoint>
          <Trackpoint>
            <Time>2021-08-10T11:45:48.000Z</Time>
            <Position>
              <LatitudeDegrees>43.1789495609700679779052734375</LatitudeDegrees>
              <LongitudeDegrees>-1.669240929186344146728515625</LongitudeDegrees>
            </Position>
            <AltitudeMeters>114</AltitudeMeters>
            <DistanceMeters>NAN</DistanceMeters>
          </Trackpoint>
          <Trackpoint>
            <Time>2021-08-10T11:45:49.000Z</Time>
            <Position>
              <LatitudeDegrees>43.17897428758442401885986328125</LatitudeDegrees>
              <LongitudeDegrees>-1.66927403770387172698974609375</LongitudeDegrees>
            </Position>
            <AltitudeMeters>114</AltitudeMeters>
            <DistanceMeters>NAN</DistanceMeters>
          </Trackpoint>
          <Trackpoint>
            <Time>2021-08-10T11:45:51.000Z</Time>
            <Position>
              <LatitudeDegrees>43.1790243275463581085205078125</LatitudeDegrees>
              <LongitudeDegrees>-1.66934528388082981109619140625</LongitudeDegrees>
            </Position>
            <AltitudeMeters>113.8000030517578125</AltitudeMeters>
            <DistanceMeters>NAN</DistanceMeters>
          </Trackpoint>
          <Trackpoint>
            <Time>2021-08-10T11:46:00.000Z</Time>
            <Position>
              <LatitudeDegrees>43.17926891148090362548828125</LatitudeDegrees>
              <LongitudeDegrees>-1.669684834778308868408203125</LongitudeDegrees>
            </Position>
            <AltitudeMeters>113.59999847412109375</AltitudeMeters>
            <DistanceMeters>NAN</DistanceMeters>
          </Trackpoint>
          <Trackpoint>
            <Time>2021-08-10T11:46:06.000Z</Time>
            <Position>
              <LatitudeDegrees>43.17941769026219844818115234375</LatitudeDegrees>
              <LongitudeDegrees>-1.6698995791375637054443359375</LongitudeDegrees>
            </Position>
            <AltitudeMeters>113.40000152587890625</AltitudeMeters>
            <DistanceMeters>NAN</DistanceMeters>
          </Trackpoint>
          <Trackpoint>
            <Time>2021-08-10T11:46:07.000Z</Time>
            <Position>
              <LatitudeDegrees>43.17944057285785675048828125</LatitudeDegrees>
              <LongitudeDegrees>-1.66993570514023303985595703125</LongitudeDegrees>
            </Position>
            <AltitudeMeters>113.1999969482421875</AltitudeMeters>
            <DistanceMeters>NAN</DistanceMeters>
          </Trackpoint>
          <Trackpoint>
            <Time>2021-08-10T11:46:08.000Z</Time>
            <Position>
              <LatitudeDegrees>43.17946529947221279144287109375</LatitudeDegrees>
              <LongitudeDegrees>-1.66997082531452178955078125</LongitudeDegrees>
            </Position>
            <AltitudeMeters>113.1999969482421875</AltitudeMeters>
            <DistanceMeters>NAN</DistanceMeters>
          </Trackpoint>
          <Trackpoint>
            <Time>2021-08-10T11:46:09.000Z</Time>
            <Position>
              <LatitudeDegrees>43.17948943935334682464599609375</LatitudeDegrees>
              <LongitudeDegrees>-1.67000426910817623138427734375</LongitudeDegrees>
            </Position>
            <AltitudeMeters>113.1999969482421875</AltitudeMeters>
            <DistanceMeters>NAN</DistanceMeters>
          </Trackpoint>
          <Trackpoint>
            <Time>2021-08-10T11:46:10.000Z</Time>
            <Position>
              <LatitudeDegrees>43.17951424978673458099365234375</LatitudeDegrees>
              <LongitudeDegrees>-1.67004047892987728118896484375</LongitudeDegrees>
            </Position>
            <AltitudeMeters>113.1999969482421875</AltitudeMeters>
            <DistanceMeters>NAN</DistanceMeters>
          </Trackpoint>
          <Trackpoint>
            <Time>2021-08-10T11:46:11.000Z</Time>
            <Position>
              <LatitudeDegrees>43.1795376352965831756591796875</LatitudeDegrees>
              <LongitudeDegrees>-1.6700789518654346466064453125</LongitudeDegrees>
            </Position>
            <AltitudeMeters>113</AltitudeMeters>
            <DistanceMeters>NAN</DistanceMeters>
          </Trackpoint>
          <Trackpoint>
            <Time>2021-08-10T11:46:12.000Z</Time>
            <Position>
              <LatitudeDegrees>43.17956303246319293975830078125</LatitudeDegrees>
              <LongitudeDegrees>-1.67011859826743602752685546875</LongitudeDegrees>
            </Position>
            <AltitudeMeters>113</AltitudeMeters>
            <DistanceMeters>NAN</DistanceMeters>
          </Trackpoint>
          <Trackpoint>
            <Time>2021-08-10T11:46:13.000Z</Time>
            <Position>
              <LatitudeDegrees>43.17959086038172245025634765625</LatitudeDegrees>
              <LongitudeDegrees>-1.67015883140265941619873046875</LongitudeDegrees>
            </Position>
            <AltitudeMeters>113</AltitudeMeters>
            <DistanceMeters>NAN</DistanceMeters>
          </Trackpoint>
          <Trackpoint>
            <Time>2021-08-10T11:46:17.000Z</Time>
            <Position>
              <LatitudeDegrees>43.17969865165650844573974609375</LatitudeDegrees>
              <LongitudeDegrees>-1.67031272314488887786865234375</LongitudeDegrees>
            </Position>
            <AltitudeMeters>112.8000030517578125</AltitudeMeters>
            <DistanceMeters>NAN</DistanceMeters>
          </Trackpoint>
          <Trackpoint>
            <Time>2021-08-10T11:46:23.000Z</Time>
            <Position>
              <LatitudeDegrees>43.17985287867486476898193359375</LatitudeDegrees>
              <LongitudeDegrees>-1.67049117386341094970703125</LongitudeDegrees>
            </Position>
            <AltitudeMeters>112.59999847412109375</AltitudeMeters>
            <DistanceMeters>NAN</DistanceMeters>
          </Trackpoint>
          <Trackpoint>
            <Time>2021-08-10T11:46:24.000Z</Time>
            <Position>
              <LatitudeDegrees>43.17987634800374507904052734375</LatitudeDegrees>
              <LongitudeDegrees>-1.67051187716424465179443359375</LongitudeDegrees>
            </Position>
            <AltitudeMeters>112.59999847412109375</AltitudeMeters>
            <DistanceMeters>NAN</DistanceMeters>
          </Trackpoint>
          <Trackpoint>
            <Time>2021-08-10T11:46:25.000Z</Time>
            <Position>
              <LatitudeDegrees>43.17989562638103961944580078125</LatitudeDegrees>
              <LongitudeDegrees>-1.67053014971315860748291015625</LongitudeDegrees>
            </Position>
            <AltitudeMeters>112.59999847412109375</AltitudeMeters>
            <DistanceMeters>NAN</DistanceMeters>
          </Trackpoint>
          <Trackpoint>
            <Time>2021-08-10T11:46:26.000Z</Time>
            <Position>
              <LatitudeDegrees>43.1799201853573322296142578125</LatitudeDegrees>
              <LongitudeDegrees>-1.67054808698594570159912109375</LongitudeDegrees>
            </Position>
            <AltitudeMeters>112.59999847412109375</AltitudeMeters>
            <DistanceMeters>NAN</DistanceMeters>
          </Trackpoint>
          <Trackpoint>
            <Time>2021-08-10T11:46:27.000Z</Time>
            <Position>
              <LatitudeDegrees>43.17994960583746433258056640625</LatitudeDegrees>
              <LongitudeDegrees>-1.670562587678432464599609375</LongitudeDegrees>
            </Position>
            <AltitudeMeters>112.59999847412109375</AltitudeMeters>
            <DistanceMeters>NAN</DistanceMeters>
          </Trackpoint>
          <Trackpoint>
            <Time>2021-08-10T11:46:28.000Z</Time>
            <Position>
              <LatitudeDegrees>43.1800006516277790069580078125</LatitudeDegrees>
              <LongitudeDegrees>-1.670588739216327667236328125</LongitudeDegrees>
            </Position>
            <AltitudeMeters>112.59999847412109375</AltitudeMeters>
            <DistanceMeters>NAN</DistanceMeters>
          </Trackpoint>
          <Trackpoint>
            <Time>2021-08-10T11:46:32.000Z</Time>
            <Position>
              <LatitudeDegrees>43.18017407320439815521240234375</LatitudeDegrees>
              <LongitudeDegrees>-1.67069711722433567047119140625</LongitudeDegrees>
            </Position>
            <AltitudeMeters>112.59999847412109375</AltitudeMeters>
            <DistanceMeters>NAN</DistanceMeters>
          </Trackpoint>
          <Trackpoint>
            <Time>2021-08-10T11:46:33.000Z</Time>
            <Position>
              <LatitudeDegrees>43.18020961247384548187255859375</LatitudeDegrees>
              <LongitudeDegrees>-1.6707189939916133880615234375</LongitudeDegrees>
            </Position>
            <AltitudeMeters>112.8000030517578125</AltitudeMeters>
            <DistanceMeters>NAN</DistanceMeters>
          </Trackpoint>
          <Trackpoint>
            <Time>2021-08-10T11:46:34.000Z</Time>
            <Position>
              <LatitudeDegrees>43.18023987114429473876953125</LatitudeDegrees>
              <LongitudeDegrees>-1.67073751799762248992919921875</LongitudeDegrees>
            </Position>
            <AltitudeMeters>112.8000030517578125</AltitudeMeters>
            <DistanceMeters>NAN</DistanceMeters>
          </Trackpoint>
          <Trackpoint>
            <Time>2021-08-10T11:46:38.000Z</Time>
            <Position>
              <LatitudeDegrees>43.1803607381880283355712890625</LatitudeDegrees>
              <LongitudeDegrees>-1.67082033120095729827880859375</LongitudeDegrees>
            </Position>
            <AltitudeMeters>112.8000030517578125</AltitudeMeters>
            <DistanceMeters>NAN</DistanceMeters>
          </Trackpoint>
          <Trackpoint>
            <Time>2021-08-10T11:46:39.000Z</Time>
            <Position>
              <LatitudeDegrees>43.1803868897259235382080078125</LatitudeDegrees>
              <LongitudeDegrees>-1.67082770727574825286865234375</LongitudeDegrees>
            </Position>
            <AltitudeMeters>112.8000030517578125</AltitudeMeters>
            <DistanceMeters>NAN</DistanceMeters>
          </Trackpoint>
          <Trackpoint>
            <Time>2021-08-10T11:46:40.000Z</Time>
            <Position>
              <LatitudeDegrees>43.18041496910154819488525390625</LatitudeDegrees>
              <LongitudeDegrees>-1.67085167951881885528564453125</LongitudeDegrees>
            </Position>
            <AltitudeMeters>112.8000030517578125</AltitudeMeters>
            <DistanceMeters>NAN</DistanceMeters>
          </Trackpoint>
          <Trackpoint>
            <Time>2021-08-10T11:46:41.000Z</Time>
            <Position>
              <LatitudeDegrees>43.1804438866674900054931640625</LatitudeDegrees>
              <LongitudeDegrees>-1.67090817354619503021240234375</LongitudeDegrees>
            </Position>
            <AltitudeMeters>112.8000030517578125</AltitudeMeters>
            <DistanceMeters>NAN</DistanceMeters>
          </Trackpoint>
          <Trackpoint>
            <Time>2021-08-10T11:46:42.000Z</Time>
            <Position>
              <LatitudeDegrees>43.18047850392758846282958984375</LatitudeDegrees>
              <LongitudeDegrees>-1.67093533091247081756591796875</LongitudeDegrees>
            </Position>
            <AltitudeMeters>112.8000030517578125</AltitudeMeters>
            <DistanceMeters>NAN</DistanceMeters>
          </Trackpoint>
          <Trackpoint>
            <Time>2021-08-10T11:46:43.000Z</Time>
            <Position>
              <LatitudeDegrees>43.180517144501209259033203125</LatitudeDegrees>
              <LongitudeDegrees>-1.67095745913684368133544921875</LongitudeDegrees>
            </Position>
            <AltitudeMeters>112.8000030517578125</AltitudeMeters>
            <DistanceMeters>NAN</DistanceMeters>
          </Trackpoint>
          <Trackpoint>
            <Time>2021-08-10T11:46:44.000Z</Time>
            <Position>
              <LatitudeDegrees>43.1805528514087200164794921875</LatitudeDegrees>
              <LongitudeDegrees>-1.67096232064068317413330078125</LongitudeDegrees>
            </Position>
            <AltitudeMeters>112.8000030517578125</AltitudeMeters>
            <DistanceMeters>NAN</DistanceMeters>
          </Trackpoint>
          <Trackpoint>
            <Time>2021-08-10T11:46:45.000Z</Time>
            <Position>
              <LatitudeDegrees>43.18059434182941913604736328125</LatitudeDegrees>
              <LongitudeDegrees>-1.6709805093705654144287109375</LongitudeDegrees>
            </Position>
            <AltitudeMeters>112.8000030517578125</AltitudeMeters>
            <DistanceMeters>NAN</DistanceMeters>
          </Trackpoint>
          <Trackpoint>
            <Time>2021-08-10T11:46:46.000Z</Time>
            <Position>
              <LatitudeDegrees>43.18063172511756420135498046875</LatitudeDegrees>
              <LongitudeDegrees>-1.67098428122699260711669921875</LongitudeDegrees>
            </Position>
            <AltitudeMeters>112.8000030517578125</AltitudeMeters>
            <DistanceMeters>NAN</DistanceMeters>
          </Trackpoint>
          <Trackpoint>
            <Time>2021-08-10T11:46:51.000Z</Time>
            <Position>
              <LatitudeDegrees>43.1808307953178882598876953125</LatitudeDegrees>
              <LongitudeDegrees>-1.6709711216390132904052734375</LongitudeDegrees>
            </Position>
            <AltitudeMeters>112.59999847412109375</AltitudeMeters>
            <DistanceMeters>NAN</DistanceMeters>
          </Trackpoint>
          <Trackpoint>
            <Time>2021-08-10T11:46:52.000Z</Time>
            <Position>
              <LatitudeDegrees>43.18087195046246051788330078125</LatitudeDegrees>
              <LongitudeDegrees>-1.670952849090099334716796875</LongitudeDegrees>
            </Position>
            <AltitudeMeters>112.59999847412109375</AltitudeMeters>
            <DistanceMeters>NAN</DistanceMeters>
          </Trackpoint>
          <Trackpoint>
            <Time>2021-08-10T11:46:53.000Z</Time>
            <Position>
              <LatitudeDegrees>43.18093045614659786224365234375</LatitudeDegrees>
              <LongitudeDegrees>-1.6709493286907672882080078125</LongitudeDegrees>
            </Position>
            <AltitudeMeters>112.8000030517578125</AltitudeMeters>
            <DistanceMeters>NAN</DistanceMeters>
          </Trackpoint>
          <Trackpoint>
            <Time>2021-08-10T11:46:55.000Z</Time>
            <Position>
              <LatitudeDegrees>43.18104947917163372039794921875</LatitudeDegrees>
              <LongitudeDegrees>-1.6708997078239917755126953125</LongitudeDegrees>
            </Position>
            <AltitudeMeters>112.8000030517578125</AltitudeMeters>
            <DistanceMeters>NAN</DistanceMeters>
          </Trackpoint>
          <Trackpoint>
            <Time>2021-08-10T11:46:57.000Z</Time>
            <Position>
              <LatitudeDegrees>43.181103207170963287353515625</LatitudeDegrees>
              <LongitudeDegrees>-1.67078831233084201812744140625</LongitudeDegrees>
            </Position>
            <AltitudeMeters>112.8000030517578125</AltitudeMeters>
            <DistanceMeters>NAN</DistanceMeters>
          </Trackpoint>
          <Trackpoint>
            <Time>2021-08-10T11:46:58.000Z</Time>
            <Position>
              <LatitudeDegrees>43.1811345554888248443603515625</LatitudeDegrees>
              <LongitudeDegrees>-1.670737601816654205322265625</LongitudeDegrees>
            </Position>
            <AltitudeMeters>112.8000030517578125</AltitudeMeters>
            <DistanceMeters>NAN</DistanceMeters>
          </Trackpoint>
          <Trackpoint>
            <Time>2021-08-10T11:46:59.000Z</Time>
            <Position>
              <LatitudeDegrees>43.18118208087980747222900390625</LatitudeDegrees>
              <LongitudeDegrees>-1.67070566676557064056396484375</LongitudeDegrees>
            </Position>
            <AltitudeMeters>112.8000030517578125</AltitudeMeters>
            <DistanceMeters>NAN</DistanceMeters>
          </Trackpoint>
          <Trackpoint>
            <Time>2021-08-10T11:47:02.000Z</Time>
            <Position>
              <LatitudeDegrees>43.1812847591936588287353515625</LatitudeDegrees>
              <LongitudeDegrees>-1.6706358455121517181396484375</LongitudeDegrees>
            </Position>
            <AltitudeMeters>112.8000030517578125</AltitudeMeters>
            <DistanceMeters>NAN</DistanceMeters>
          </Trackpoint>
          <Trackpoint>
            <Time>2021-08-10T11:47:03.000Z</Time>
            <Position>
              <LatitudeDegrees>43.18132616579532623291015625</LatitudeDegrees>
              <LongitudeDegrees>-1.6706355102360248565673828125</LongitudeDegrees>
            </Position>
            <AltitudeMeters>112.8000030517578125</AltitudeMeters>
            <DistanceMeters>NAN</DistanceMeters>
          </Trackpoint>
          <Trackpoint>
            <Time>2021-08-10T11:47:05.000Z</Time>
            <Position>
              <LatitudeDegrees>43.181415684521198272705078125</LatitudeDegrees>
              <LongitudeDegrees>-1.6706227697432041168212890625</LongitudeDegrees>
            </Position>
            <AltitudeMeters>112.59999847412109375</AltitudeMeters>
            <DistanceMeters>NAN</DistanceMeters>
          </Trackpoint>
          <Trackpoint>
            <Time>2021-08-10T11:47:06.000Z</Time>
            <Position>
              <LatitudeDegrees>43.18145767785608768463134765625</LatitudeDegrees>
              <LongitudeDegrees>-1.67061329819262027740478515625</LongitudeDegrees>
            </Position>
            <AltitudeMeters>112.59999847412109375</AltitudeMeters>
            <DistanceMeters>NAN</DistanceMeters>
          </Trackpoint>
          <Trackpoint>
            <Time>2021-08-10T11:47:07.000Z</Time>
            <Position>
              <LatitudeDegrees>43.18149941973388195037841796875</LatitudeDegrees>
              <LongitudeDegrees>-1.67060357518494129180908203125</LongitudeDegrees>
            </Position>
            <AltitudeMeters>112.59999847412109375</AltitudeMeters>
            <DistanceMeters>NAN</DistanceMeters>
          </Trackpoint>
          <Trackpoint>
            <Time>2021-08-10T11:47:08.000Z</Time>
            <Position>
              <LatitudeDegrees>43.18152942694723606109619140625</LatitudeDegrees>
              <LongitudeDegrees>-1.67060608975589275360107421875</LongitudeDegrees>
            </Position>
            <AltitudeMeters>112.59999847412109375</AltitudeMeters>
            <DistanceMeters>NAN</DistanceMeters>
          </Trackpoint>
          <Trackpoint>
            <Time>2021-08-10T11:47:09.000Z</Time>
            <Position>
              <LatitudeDegrees>43.18155675195157527923583984375</LatitudeDegrees>
              <LongitudeDegrees>-1.67062989436089992523193359375</LongitudeDegrees>
            </Position>
            <AltitudeMeters>112.40000152587890625</AltitudeMeters>
            <DistanceMeters>NAN</DistanceMeters>
          </Trackpoint>
          <Trackpoint>
            <Time>2021-08-10T11:47:10.000Z</Time>
            <Position>
              <LatitudeDegrees>43.1815915368497371673583984375</LatitudeDegrees>
              <LongitudeDegrees>-1.670654453337192535400390625</LongitudeDegrees>
            </Position>
            <AltitudeMeters>112.40000152587890625</AltitudeMeters>
            <DistanceMeters>NAN</DistanceMeters>
          </Trackpoint>
          <Trackpoint>
            <Time>2021-08-10T11:47:11.000Z</Time>
            <Position>
              <LatitudeDegrees>43.1816243939101696014404296875</LatitudeDegrees>
              <LongitudeDegrees>-1.6706676967442035675048828125</LongitudeDegrees>
            </Position>
            <AltitudeMeters>112.40000152587890625</AltitudeMeters>
            <DistanceMeters>NAN</DistanceMeters>
          </Trackpoint>
          <Trackpoint>
            <Time>2021-08-10T11:47:12.000Z</Time>
            <Position>
              <LatitudeDegrees>43.18166018463671207427978515625</LatitudeDegrees>
              <LongitudeDegrees>-1.6706750728189945220947265625</LongitudeDegrees>
            </Position>
            <AltitudeMeters>112.40000152587890625</AltitudeMeters>
            <DistanceMeters>NAN</DistanceMeters>
          </Trackpoint>
          <Trackpoint>
            <Time>2021-08-10T11:47:13.000Z</Time>
            <Position>
              <LatitudeDegrees>43.18170041777193546295166015625</LatitudeDegrees>
              <LongitudeDegrees>-1.6706822812557220458984375</LongitudeDegrees>
            </Position>
            <AltitudeMeters>112.40000152587890625</AltitudeMeters>
            <DistanceMeters>NAN</DistanceMeters>
          </Trackpoint>
          <Trackpoint>
            <Time>2021-08-10T11:47:14.000Z</Time>
            <Position>
              <LatitudeDegrees>43.18174098618328571319580078125</LatitudeDegrees>
              <LongitudeDegrees>-1.6706790961325168609619140625</LongitudeDegrees>
            </Position>
            <AltitudeMeters>112.40000152587890625</AltitudeMeters>
            <DistanceMeters>NAN</DistanceMeters>
          </Trackpoint>
          <Trackpoint>
            <Time>2021-08-10T11:47:15.000Z</Time>
            <Position>
              <LatitudeDegrees>43.1817796267569065093994140625</LatitudeDegrees>
              <LongitudeDegrees>-1.67066694237291812896728515625</LongitudeDegrees>
            </Position>
            <AltitudeMeters>112.40000152587890625</AltitudeMeters>
            <DistanceMeters>NAN</DistanceMeters>
          </Trackpoint>
          <Trackpoint>
            <Time>2021-08-10T11:47:16.000Z</Time>
            <Position>
              <LatitudeDegrees>43.18181592039763927459716796875</LatitudeDegrees>
              <LongitudeDegrees>-1.6706640087068080902099609375</LongitudeDegrees>
            </Position>
            <AltitudeMeters>112.40000152587890625</AltitudeMeters>
            <DistanceMeters>NAN</DistanceMeters>
          </Trackpoint>
          <Trackpoint>
            <Time>2021-08-10T11:47:18.000Z</Time>
            <Position>
              <LatitudeDegrees>43.18188213743269443511962890625</LatitudeDegrees>
              <LongitudeDegrees>-1.67065135203301906585693359375</LongitudeDegrees>
            </Position>
            <AltitudeMeters>112.40000152587890625</AltitudeMeters>
            <DistanceMeters>NAN</DistanceMeters>
          </Trackpoint>
          <Trackpoint>
            <Time>2021-08-10T11:47:27.000Z</Time>
            <Position>
              <LatitudeDegrees>43.18217919208109378814697265625</LatitudeDegrees>
              <LongitudeDegrees>-1.67057490907609462738037109375</LongitudeDegrees>
            </Position>
            <AltitudeMeters>112.1999969482421875</AltitudeMeters>
            <DistanceMeters>NAN</DistanceMeters>
          </Trackpoint>
          <Trackpoint>
            <Time>2021-08-10T11:47:28.000Z</Time>
            <Position>
              <LatitudeDegrees>43.1822087801992893218994140625</LatitudeDegrees>
              <LongitudeDegrees>-1.67056300677359104156494140625</LongitudeDegrees>
            </Position>
            <AltitudeMeters>112.1999969482421875</AltitudeMeters>
            <DistanceMeters>NAN</DistanceMeters>
          </Trackpoint>
          <Trackpoint>
            <Time>2021-08-10T11:47:29.000Z</Time>
            <Position>
              <LatitudeDegrees>43.18224012851715087890625</LatitudeDegrees>
              <LongitudeDegrees>-1.6705526970326900482177734375</LongitudeDegrees>
            </Position>
            <AltitudeMeters>112.1999969482421875</AltitudeMeters>
            <DistanceMeters>NAN</DistanceMeters>
          </Trackpoint>
          <Trackpoint>
            <Time>2021-08-10T11:47:30.000Z</Time>
            <Position>
              <LatitudeDegrees>43.18227323703467845916748046875</LatitudeDegrees>
              <LongitudeDegrees>-1.67054691351950168609619140625</LongitudeDegrees>
            </Position>
            <AltitudeMeters>112.1999969482421875</AltitudeMeters>
            <DistanceMeters>NAN</DistanceMeters>
          </Trackpoint>
          <Trackpoint>
            <Time>2021-08-10T11:47:31.000Z</Time>
            <Position>
              <LatitudeDegrees>43.18230609409511089324951171875</LatitudeDegrees>
              <LongitudeDegrees>-1.67054104618728160858154296875</LongitudeDegrees>
            </Position>
            <AltitudeMeters>112.1999969482421875</AltitudeMeters>
            <DistanceMeters>NAN</DistanceMeters>
          </Trackpoint>
          <Trackpoint>
            <Time>2021-08-10T11:47:32.000Z</Time>
            <Position>
              <LatitudeDegrees>43.182338364422321319580078125</LatitudeDegrees>
              <LongitudeDegrees>-1.670536100864410400390625</LongitudeDegrees>
            </Position>
            <AltitudeMeters>112.1999969482421875</AltitudeMeters>
            <DistanceMeters>NAN</DistanceMeters>
          </Trackpoint>
          <Trackpoint>
            <Time>2021-08-10T11:47:33.000Z</Time>
            <Position>
              <LatitudeDegrees>43.18237164057791233062744140625</LatitudeDegrees>
              <LongitudeDegrees>-1.67052947916090488433837890625</LongitudeDegrees>
            </Position>
            <AltitudeMeters>112.1999969482421875</AltitudeMeters>
            <DistanceMeters>NAN</DistanceMeters>
          </Trackpoint>
          <Trackpoint>
            <Time>2021-08-10T11:47:34.000Z</Time>
            <Position>
              <LatitudeDegrees>43.18240483291447162628173828125</LatitudeDegrees>
              <LongitudeDegrees>-1.67051933705806732177734375</LongitudeDegrees>
            </Position>
            <AltitudeMeters>112.1999969482421875</AltitudeMeters>
            <DistanceMeters>NAN</DistanceMeters>
          </Trackpoint>
          <Trackpoint>
            <Time>2021-08-10T11:47:35.000Z</Time>
            <Position>
              <LatitudeDegrees>43.1824374385178089141845703125</LatitudeDegrees>
              <LongitudeDegrees>-1.67051170952618122100830078125</LongitudeDegrees>
            </Position>
            <AltitudeMeters>112.1999969482421875</AltitudeMeters>
            <DistanceMeters>NAN</DistanceMeters>
          </Trackpoint>
          <Trackpoint>
            <Time>2021-08-10T11:47:41.000Z</Time>
            <Position>
              <LatitudeDegrees>43.1826164759695529937744140625</LatitudeDegrees>
              <LongitudeDegrees>-1.6704621724784374237060546875</LongitudeDegrees>
            </Position>
            <AltitudeMeters>112.1999969482421875</AltitudeMeters>
            <DistanceMeters>NAN</DistanceMeters>
          </Trackpoint>
          <Trackpoint>
            <Time>2021-08-10T11:47:42.000Z</Time>
            <Position>
              <LatitudeDegrees>43.1826456449925899505615234375</LatitudeDegrees>
              <LongitudeDegrees>-1.67045496404170989990234375</LongitudeDegrees>
            </Position>
            <AltitudeMeters>112.1999969482421875</AltitudeMeters>
            <DistanceMeters>NAN</DistanceMeters>
          </Trackpoint>
          <Trackpoint>
            <Time>2021-08-10T11:47:43.000Z</Time>
            <Position>
              <LatitudeDegrees>43.18267657421529293060302734375</LatitudeDegrees>
              <LongitudeDegrees>-1.67044850997626781463623046875</LongitudeDegrees>
            </Position>
            <AltitudeMeters>112.1999969482421875</AltitudeMeters>
            <DistanceMeters>NAN</DistanceMeters>
          </Trackpoint>
          <Trackpoint>
            <Time>2021-08-10T11:47:44.000Z</Time>
            <Position>
              <LatitudeDegrees>43.18270758725702762603759765625</LatitudeDegrees>
              <LongitudeDegrees>-1.6704433970153331756591796875</LongitudeDegrees>
            </Position>
            <AltitudeMeters>112.1999969482421875</AltitudeMeters>
            <DistanceMeters>NAN</DistanceMeters>
          </Trackpoint>
          <Trackpoint>
            <Time>2021-08-10T11:47:45.000Z</Time>
            <Position>
              <LatitudeDegrees>43.18273642100393772125244140625</LatitudeDegrees>
              <LongitudeDegrees>-1.67043618857860565185546875</LongitudeDegrees>
            </Position>
            <AltitudeMeters>112.1999969482421875</AltitudeMeters>
            <DistanceMeters>NAN</DistanceMeters>
          </Trackpoint>
          <Trackpoint>
            <Time>2021-08-10T11:47:46.000Z</Time>
            <Position>
              <LatitudeDegrees>43.18276575766503810882568359375</LatitudeDegrees>
              <LongitudeDegrees>-1.6704279743134975433349609375</LongitudeDegrees>
            </Position>
            <AltitudeMeters>112.1999969482421875</AltitudeMeters>
            <DistanceMeters>NAN</DistanceMeters>
          </Trackpoint>
          <Trackpoint>
            <Time>2021-08-10T11:47:47.000Z</Time>
            <Position>
              <LatitudeDegrees>43.1827921606600284576416015625</LatitudeDegrees>
              <LongitudeDegrees>-1.67041799984872341156005859375</LongitudeDegrees>
            </Position>
            <AltitudeMeters>112.1999969482421875</AltitudeMeters>
            <DistanceMeters>NAN</DistanceMeters>
          </Trackpoint>
          <Trackpoint>
            <Time>2021-08-10T11:47:48.000Z</Time>
            <Position>
              <LatitudeDegrees>43.18281722255051136016845703125</LatitudeDegrees>
              <LongitudeDegrees>-1.6704078577458858489990234375</LongitudeDegrees>
            </Position>
            <AltitudeMeters>112.1999969482421875</AltitudeMeters>
            <DistanceMeters>NAN</DistanceMeters>
          </Trackpoint>
          <Trackpoint>
            <Time>2021-08-10T11:47:49.000Z</Time>
            <Position>
              <LatitudeDegrees>43.182843290269374847412109375</LatitudeDegrees>
              <LongitudeDegrees>-1.67040274478495121002197265625</LongitudeDegrees>
            </Position>
            <AltitudeMeters>112.1999969482421875</AltitudeMeters>
            <DistanceMeters>NAN</DistanceMeters>
          </Trackpoint>
          <Trackpoint>
            <Time>2021-08-10T11:47:51.000Z</Time>
            <Position>
              <LatitudeDegrees>43.18290238268673419952392578125</LatitudeDegrees>
              <LongitudeDegrees>-1.6703884117305278778076171875</LongitudeDegrees>
            </Position>
            <AltitudeMeters>112.1999969482421875</AltitudeMeters>
            <DistanceMeters>NAN</DistanceMeters>
          </Trackpoint>
          <Trackpoint>
            <Time>2021-08-10T11:47:56.000Z</Time>
            <Position>
              <LatitudeDegrees>43.18308301270008087158203125</LatitudeDegrees>
              <LongitudeDegrees>-1.6703377850353717803955078125</LongitudeDegrees>
            </Position>
            <AltitudeMeters>112.1999969482421875</AltitudeMeters>
            <DistanceMeters>NAN</DistanceMeters>
          </Trackpoint>
          <Trackpoint>
            <Time>2021-08-10T11:47:58.000Z</Time>
            <Position>
              <LatitudeDegrees>43.1831576116383075714111328125</LatitudeDegrees>
              <LongitudeDegrees>-1.670318506658077239990234375</LongitudeDegrees>
            </Position>
            <AltitudeMeters>112.1999969482421875</AltitudeMeters>
            <DistanceMeters>NAN</DistanceMeters>
          </Trackpoint>
          <Trackpoint>
            <Time>2021-08-10T11:48:02.000Z</Time>
            <Position>
              <LatitudeDegrees>43.1832920573651790618896484375</LatitudeDegrees>
              <LongitudeDegrees>-1.67027181945741176605224609375</LongitudeDegrees>
            </Position>
            <AltitudeMeters>112</AltitudeMeters>
            <DistanceMeters>NAN</DistanceMeters>
          </Trackpoint>
          <Trackpoint>
            <Time>2021-08-10T11:48:04.000Z</Time>
            <Position>
              <LatitudeDegrees>43.1833624653518199920654296875</LatitudeDegrees>
              <LongitudeDegrees>-1.67024633847177028656005859375</LongitudeDegrees>
            </Position>
            <AltitudeMeters>112</AltitudeMeters>
            <DistanceMeters>NAN</DistanceMeters>
          </Trackpoint>
          <Trackpoint>
            <Time>2021-08-10T11:48:05.000Z</Time>
            <Position>
              <LatitudeDegrees>43.183390460908412933349609375</LatitudeDegrees>
              <LongitudeDegrees>-1.67023837566375732421875</LongitudeDegrees>
            </Position>
            <AltitudeMeters>112</AltitudeMeters>
            <DistanceMeters>NAN</DistanceMeters>
          </Trackpoint>
          <Trackpoint>
            <Time>2021-08-10T11:48:06.000Z</Time>
            <Position>
              <LatitudeDegrees>43.18342491053044795989990234375</LatitudeDegrees>
              <LongitudeDegrees>-1.6702274791896343231201171875</LongitudeDegrees>
            </Position>
            <AltitudeMeters>112</AltitudeMeters>
            <DistanceMeters>NAN</DistanceMeters>
          </Trackpoint>
          <Trackpoint>
            <Time>2021-08-10T11:48:07.000Z</Time>
            <Position>
              <LatitudeDegrees>43.1834640540182590484619140625</LatitudeDegrees>
              <LongitudeDegrees>-1.67021666653454303741455078125</LongitudeDegrees>
            </Position>
            <AltitudeMeters>112</AltitudeMeters>
            <DistanceMeters>NAN</DistanceMeters>
          </Trackpoint>
          <Trackpoint>
            <Time>2021-08-10T11:48:08.000Z</Time>
            <Position>
              <LatitudeDegrees>43.183497078716754913330078125</LatitudeDegrees>
              <LongitudeDegrees>-1.670205183327198028564453125</LongitudeDegrees>
            </Position>
            <AltitudeMeters>111.8000030517578125</AltitudeMeters>
            <DistanceMeters>NAN</DistanceMeters>
          </Trackpoint>
          <Trackpoint>
            <Time>2021-08-10T11:48:15.000Z</Time>
            <Position>
              <LatitudeDegrees>43.1837426684796810150146484375</LatitudeDegrees>
              <LongitudeDegrees>-1.6701319254934787750244140625</LongitudeDegrees>
            </Position>
            <AltitudeMeters>111.59999847412109375</AltitudeMeters>
            <DistanceMeters>NAN</DistanceMeters>
          </Trackpoint>
          <Trackpoint>
            <Time>2021-08-10T11:48:16.000Z</Time>
            <Position>
              <LatitudeDegrees>43.1837748549878597259521484375</LatitudeDegrees>
              <LongitudeDegrees>-1.6701208613812923431396484375</LongitudeDegrees>
            </Position>
            <AltitudeMeters>111.59999847412109375</AltitudeMeters>
            <DistanceMeters>NAN</DistanceMeters>
          </Trackpoint>
          <Trackpoint>
            <Time>2021-08-10T11:48:17.000Z</Time>
            <Position>
              <LatitudeDegrees>43.1838080473244190216064453125</LatitudeDegrees>
              <LongitudeDegrees>-1.6701118089258670806884765625</LongitudeDegrees>
            </Position>
            <AltitudeMeters>111.59999847412109375</AltitudeMeters>
            <DistanceMeters>NAN</DistanceMeters>
          </Trackpoint>
          <Trackpoint>
            <Time>2021-08-10T11:48:21.000Z</Time>
            <Position>
              <LatitudeDegrees>43.18393997848033905029296875</LatitudeDegrees>
              <LongitudeDegrees>-1.67007551528513431549072265625</LongitudeDegrees>
            </Position>
            <AltitudeMeters>111.40000152587890625</AltitudeMeters>
            <DistanceMeters>NAN</DistanceMeters>
          </Trackpoint>
          <Trackpoint>
            <Time>2021-08-10T11:48:25.000Z</Time>
            <Position>
              <LatitudeDegrees>43.1840759329497814178466796875</LatitudeDegrees>
              <LongitudeDegrees>-1.6700346954166889190673828125</LongitudeDegrees>
            </Position>
            <AltitudeMeters>111.40000152587890625</AltitudeMeters>
            <DistanceMeters>NAN</DistanceMeters>
          </Trackpoint>
          <Trackpoint>
            <Time>2021-08-10T11:48:26.000Z</Time>
            <Position>
              <LatitudeDegrees>43.18410971201956272125244140625</LatitudeDegrees>
              <LongitudeDegrees>-1.67002178728580474853515625</LongitudeDegrees>
            </Position>
            <AltitudeMeters>111.40000152587890625</AltitudeMeters>
            <DistanceMeters>NAN</DistanceMeters>
          </Trackpoint>
          <Trackpoint>
            <Time>2021-08-10T11:48:27.000Z</Time>
            <Position>
              <LatitudeDegrees>43.18414089269936084747314453125</LatitudeDegrees>
              <LongitudeDegrees>-1.6700122319161891937255859375</LongitudeDegrees>
            </Position>
            <AltitudeMeters>111.40000152587890625</AltitudeMeters>
            <DistanceMeters>NAN</DistanceMeters>
          </Trackpoint>
          <Trackpoint>
            <Time>2021-08-10T11:48:28.000Z</Time>
            <Position>
              <LatitudeDegrees>43.18417056463658809661865234375</LatitudeDegrees>
              <LongitudeDegrees>-1.670002676546573638916015625</LongitudeDegrees>
            </Position>
            <AltitudeMeters>111.40000152587890625</AltitudeMeters>
            <DistanceMeters>NAN</DistanceMeters>
          </Trackpoint>
          <Trackpoint>
            <Time>2021-08-10T11:48:29.000Z</Time>
            <Position>
              <LatitudeDegrees>43.184200488030910491943359375</LatitudeDegrees>
              <LongitudeDegrees>-1.66999219916760921478271484375</LongitudeDegrees>
            </Position>
            <AltitudeMeters>111.40000152587890625</AltitudeMeters>
            <DistanceMeters>NAN</DistanceMeters>
          </Trackpoint>
          <Trackpoint>
            <Time>2021-08-10T11:48:30.000Z</Time>
            <Position>
              <LatitudeDegrees>43.18423074670135974884033203125</LatitudeDegrees>
              <LongitudeDegrees>-1.66998147033154964447021484375</LongitudeDegrees>
            </Position>
            <AltitudeMeters>111.40000152587890625</AltitudeMeters>
            <DistanceMeters>NAN</DistanceMeters>
          </Trackpoint>
          <Trackpoint>
            <Time>2021-08-10T11:48:32.000Z</Time>
            <Position>
              <LatitudeDegrees>43.18429260514676570892333984375</LatitudeDegrees>
              <LongitudeDegrees>-1.66995984502136707305908203125</LongitudeDegrees>
            </Position>
            <AltitudeMeters>111.40000152587890625</AltitudeMeters>
            <DistanceMeters>NAN</DistanceMeters>
          </Trackpoint>
          <Trackpoint>
            <Time>2021-08-10T11:48:33.000Z</Time>
            <Position>
              <LatitudeDegrees>43.18432395346462726593017578125</LatitudeDegrees>
              <LongitudeDegrees>-1.66995280422270298004150390625</LongitudeDegrees>
            </Position>
            <AltitudeMeters>111.40000152587890625</AltitudeMeters>
            <DistanceMeters>NAN</DistanceMeters>
          </Trackpoint>
          <Trackpoint>
            <Time>2021-08-10T11:48:34.000Z</Time>
            <Position>
              <LatitudeDegrees>43.18435479886829853057861328125</LatitudeDegrees>
              <LongitudeDegrees>-1.6699492000043392181396484375</LongitudeDegrees>
            </Position>
            <AltitudeMeters>111.1999969482421875</AltitudeMeters>
            <DistanceMeters>NAN</DistanceMeters>
          </Trackpoint>
          <Trackpoint>
            <Time>2021-08-10T11:48:35.000Z</Time>
            <Position>
              <LatitudeDegrees>43.1843860633671283721923828125</LatitudeDegrees>
              <LongitudeDegrees>-1.66993956081569194793701171875</LongitudeDegrees>
            </Position>
            <AltitudeMeters>111.1999969482421875</AltitudeMeters>
            <DistanceMeters>NAN</DistanceMeters>
          </Trackpoint>
          <Trackpoint>
            <Time>2021-08-10T11:48:36.000Z</Time>
            <Position>
              <LatitudeDegrees>43.18441766314208507537841796875</LatitudeDegrees>
              <LongitudeDegrees>-1.66992916725575923919677734375</LongitudeDegrees>
            </Position>
            <AltitudeMeters>111.1999969482421875</AltitudeMeters>
            <DistanceMeters>NAN</DistanceMeters>
          </Trackpoint>
          <Trackpoint>
            <Time>2021-08-10T11:48:37.000Z</Time>
            <Position>
              <LatitudeDegrees>43.1844489276409149169921875</LatitudeDegrees>
              <LongitudeDegrees>-1.66991961188614368438720703125</LongitudeDegrees>
            </Position>
            <AltitudeMeters>111.1999969482421875</AltitudeMeters>
            <DistanceMeters>NAN</DistanceMeters>
          </Trackpoint>
          <Trackpoint>
            <Time>2021-08-10T11:48:41.000Z</Time>
            <Position>
              <LatitudeDegrees>43.18456753157079219818115234375</LatitudeDegrees>
              <LongitudeDegrees>-1.66989128105342388153076171875</LongitudeDegrees>
            </Position>
            <AltitudeMeters>111.1999969482421875</AltitudeMeters>
            <DistanceMeters>NAN</DistanceMeters>
          </Trackpoint>
          <Trackpoint>
            <Time>2021-08-10T11:48:49.000Z</Time>
            <Position>
              <LatitudeDegrees>43.18484581075608730316162109375</LatitudeDegrees>
              <LongitudeDegrees>-1.66983679868280887603759765625</LongitudeDegrees>
            </Position>
            <AltitudeMeters>111.59999847412109375</AltitudeMeters>
            <DistanceMeters>NAN</DistanceMeters>
          </Trackpoint>
          <Trackpoint>
            <Time>2021-08-10T11:48:52.000Z</Time>
            <Position>
              <LatitudeDegrees>43.18495008163154125213623046875</LatitudeDegrees>
              <LongitudeDegrees>-1.669829674065113067626953125</LongitudeDegrees>
            </Position>
            <AltitudeMeters>111.8000030517578125</AltitudeMeters>
            <DistanceMeters>NAN</DistanceMeters>
          </Trackpoint>
          <Trackpoint>
            <Time>2021-08-10T11:48:56.000Z</Time>
            <Position>
              <LatitudeDegrees>43.1850787438452243804931640625</LatitudeDegrees>
              <LongitudeDegrees>-1.6698251478374004364013671875</LongitudeDegrees>
            </Position>
            <AltitudeMeters>111.8000030517578125</AltitudeMeters>
            <DistanceMeters>NAN</DistanceMeters>
          </Trackpoint>
          <Trackpoint>
            <Time>2021-08-10T11:48:58.000Z</Time>
            <Position>
              <LatitudeDegrees>43.18514001555740833282470703125</LatitudeDegrees>
              <LongitudeDegrees>-1.66983227245509624481201171875</LongitudeDegrees>
            </Position>
            <AltitudeMeters>112</AltitudeMeters>
            <DistanceMeters>NAN</DistanceMeters>
          </Trackpoint>
          <Trackpoint>
            <Time>2021-08-10T11:49:02.000Z</Time>
            <Position>
              <LatitudeDegrees>43.18526767194271087646484375</LatitudeDegrees>
              <LongitudeDegrees>-1.66986160911619663238525390625</LongitudeDegrees>
            </Position>
            <AltitudeMeters>112</AltitudeMeters>
            <DistanceMeters>NAN</DistanceMeters>
          </Trackpoint>
          <Trackpoint>
            <Time>2021-08-10T11:49:03.000Z</Time>
            <Position>
              <LatitudeDegrees>43.185296840965747833251953125</LatitudeDegrees>
              <LongitudeDegrees>-1.6698724217712879180908203125</LongitudeDegrees>
            </Position>
            <AltitudeMeters>112</AltitudeMeters>
            <DistanceMeters>NAN</DistanceMeters>
          </Trackpoint>
          <Trackpoint>
            <Time>2021-08-10T11:49:04.000Z</Time>
            <Position>
              <LatitudeDegrees>43.18532508797943592071533203125</LatitudeDegrees>
              <LongitudeDegrees>-1.6698844917118549346923828125</LongitudeDegrees>
            </Position>
            <AltitudeMeters>112</AltitudeMeters>
            <DistanceMeters>NAN</DistanceMeters>
          </Trackpoint>
          <Trackpoint>
            <Time>2021-08-10T11:49:05.000Z</Time>
            <Position>
              <LatitudeDegrees>43.1853560172021389007568359375</LatitudeDegrees>
              <LongitudeDegrees>-1.66989714838564395904541015625</LongitudeDegrees>
            </Position>
            <AltitudeMeters>112</AltitudeMeters>
            <DistanceMeters>NAN</DistanceMeters>
          </Trackpoint>
          <Trackpoint>
            <Time>2021-08-10T11:49:07.000Z</Time>
            <Position>
              <LatitudeDegrees>43.18541276268661022186279296875</LatitudeDegrees>
              <LongitudeDegrees>-1.6699196957051753997802734375</LongitudeDegrees>
            </Position>
            <AltitudeMeters>112</AltitudeMeters>
            <DistanceMeters>NAN</DistanceMeters>
          </Trackpoint>
          <Trackpoint>
            <Time>2021-08-10T11:49:13.000Z</Time>
            <Position>
              <LatitudeDegrees>43.18560403771698474884033203125</LatitudeDegrees>
              <LongitudeDegrees>-1.6700554825365543365478515625</LongitudeDegrees>
            </Position>
            <AltitudeMeters>112</AltitudeMeters>
            <DistanceMeters>NAN</DistanceMeters>
          </Trackpoint>
          <Trackpoint>
            <Time>2021-08-10T11:49:20.000Z</Time>
            <Position>
              <LatitudeDegrees>43.1858106516301631927490234375</LatitudeDegrees>
              <LongitudeDegrees>-1.67023393325507640838623046875</LongitudeDegrees>
            </Position>
            <AltitudeMeters>112.59999847412109375</AltitudeMeters>
            <DistanceMeters>NAN</DistanceMeters>
          </Trackpoint>
          <Trackpoint>
            <Time>2021-08-10T11:49:25.000Z</Time>
            <Position>
              <LatitudeDegrees>43.18592338822782039642333984375</LatitudeDegrees>
              <LongitudeDegrees>-1.6704336740076541900634765625</LongitudeDegrees>
            </Position>
            <AltitudeMeters>112.40000152587890625</AltitudeMeters>
            <DistanceMeters>NAN</DistanceMeters>
          </Trackpoint>
          <Trackpoint>
            <Time>2021-08-10T11:49:26.000Z</Time>
            <Position>
              <LatitudeDegrees>43.18594350479543209075927734375</LatitudeDegrees>
              <LongitudeDegrees>-1.6704635135829448699951171875</LongitudeDegrees>
            </Position>
            <AltitudeMeters>112.1999969482421875</AltitudeMeters>
            <DistanceMeters>NAN</DistanceMeters>
          </Trackpoint>
          <Trackpoint>
            <Time>2021-08-10T11:49:27.000Z</Time>
            <Position>
              <LatitudeDegrees>43.18596496246755123138427734375</LatitudeDegrees>
              <LongitudeDegrees>-1.67049528099596500396728515625</LongitudeDegrees>
            </Position>
            <AltitudeMeters>112.1999969482421875</AltitudeMeters>
            <DistanceMeters>NAN</DistanceMeters>
          </Trackpoint>
          <Trackpoint>
            <Time>2021-08-10T11:49:28.000Z</Time>
            <Position>
              <LatitudeDegrees>43.18598759360611438751220703125</LatitudeDegrees>
              <LongitudeDegrees>-1.67053132317960262298583984375</LongitudeDegrees>
            </Position>
            <AltitudeMeters>112.1999969482421875</AltitudeMeters>
            <DistanceMeters>NAN</DistanceMeters>
          </Trackpoint>
          <Trackpoint>
            <Time>2021-08-10T11:49:29.000Z</Time>
            <Position>
              <LatitudeDegrees>43.18600988946855068206787109375</LatitudeDegrees>
              <LongitudeDegrees>-1.67056803591549396514892578125</LongitudeDegrees>
            </Position>
            <AltitudeMeters>112.1999969482421875</AltitudeMeters>
            <DistanceMeters>NAN</DistanceMeters>
          </Trackpoint>
          <Trackpoint>
            <Time>2021-08-10T11:49:30.000Z</Time>
            <Position>
              <LatitudeDegrees>43.18603185005486011505126953125</LatitudeDegrees>
              <LongitudeDegrees>-1.67060441337525844573974609375</LongitudeDegrees>
            </Position>
            <AltitudeMeters>112.1999969482421875</AltitudeMeters>
            <DistanceMeters>NAN</DistanceMeters>
          </Trackpoint>
          <Trackpoint>
            <Time>2021-08-10T11:49:33.000Z</Time>
            <Position>
              <LatitudeDegrees>43.18608834408223628997802734375</LatitudeDegrees>
              <LongitudeDegrees>-1.6707233525812625885009765625</LongitudeDegrees>
            </Position>
            <AltitudeMeters>112.1999969482421875</AltitudeMeters>
            <DistanceMeters>NAN</DistanceMeters>
          </Trackpoint>
          <Trackpoint>
            <Time>2021-08-10T11:49:39.000Z</Time>
            <Position>
              <LatitudeDegrees>43.1861737556755542755126953125</LatitudeDegrees>
              <LongitudeDegrees>-1.6709593869745731353759765625</LongitudeDegrees>
            </Position>
            <AltitudeMeters>112.40000152587890625</AltitudeMeters>
            <DistanceMeters>NAN</DistanceMeters>
          </Trackpoint>
          <Trackpoint>
            <Time>2021-08-10T11:49:40.000Z</Time>
            <Position>
              <LatitudeDegrees>43.18618792109191417694091796875</LatitudeDegrees>
              <LongitudeDegrees>-1.67099819518625736236572265625</LongitudeDegrees>
            </Position>
            <AltitudeMeters>112.40000152587890625</AltitudeMeters>
            <DistanceMeters>NAN</DistanceMeters>
          </Trackpoint>
          <Trackpoint>
            <Time>2021-08-10T11:49:41.000Z</Time>
            <Position>
              <LatitudeDegrees>43.1862025894224643707275390625</LatitudeDegrees>
              <LongitudeDegrees>-1.6710378415882587432861328125</LongitudeDegrees>
            </Position>
            <AltitudeMeters>112.40000152587890625</AltitudeMeters>
            <DistanceMeters>NAN</DistanceMeters>
          </Trackpoint>
          <Trackpoint>
            <Time>2021-08-10T11:49:42.000Z</Time>
            <Position>
              <LatitudeDegrees>43.18621692247688770294189453125</LatitudeDegrees>
              <LongitudeDegrees>-1.67107991874217987060546875</LongitudeDegrees>
            </Position>
            <AltitudeMeters>112.59999847412109375</AltitudeMeters>
            <DistanceMeters>NAN</DistanceMeters>
          </Trackpoint>
          <Trackpoint>
            <Time>2021-08-10T11:49:50.000Z</Time>
            <Position>
              <LatitudeDegrees>43.18633711896836757659912109375</LatitudeDegrees>
              <LongitudeDegrees>-1.67141326703131198883056640625</LongitudeDegrees>
            </Position>
            <AltitudeMeters>113</AltitudeMeters>
            <DistanceMeters>NAN</DistanceMeters>
          </Trackpoint>
          <Trackpoint>
            <Time>2021-08-10T11:49:56.000Z</Time>
            <Position>
              <LatitudeDegrees>43.1864230334758758544921875</LatitudeDegrees>
              <LongitudeDegrees>-1.67166589759290218353271484375</LongitudeDegrees>
            </Position>
            <AltitudeMeters>112.8000030517578125</AltitudeMeters>
            <DistanceMeters>NAN</DistanceMeters>
          </Trackpoint>
          <Trackpoint>
            <Time>2021-08-10T11:49:58.000Z</Time>
            <Position>
              <LatitudeDegrees>43.18644859828054904937744140625</LatitudeDegrees>
              <LongitudeDegrees>-1.671740077435970306396484375</LongitudeDegrees>
            </Position>
            <AltitudeMeters>112.8000030517578125</AltitudeMeters>
            <DistanceMeters>NAN</DistanceMeters>
          </Trackpoint>
          <Trackpoint>
            <Time>2021-08-10T11:50:05.000Z</Time>
            <Position>
              <LatitudeDegrees>43.1865544617176055908203125</LatitudeDegrees>
              <LongitudeDegrees>-1.6720584221184253692626953125</LongitudeDegrees>
            </Position>
            <AltitudeMeters>112.1999969482421875</AltitudeMeters>
            <DistanceMeters>NAN</DistanceMeters>
          </Trackpoint>
          <Trackpoint>
            <Time>2021-08-10T11:50:10.000Z</Time>
            <Position>
              <LatitudeDegrees>43.1866394542157649993896484375</LatitudeDegrees>
              <LongitudeDegrees>-1.67228758335113525390625</LongitudeDegrees>
            </Position>
            <AltitudeMeters>112</AltitudeMeters>
            <DistanceMeters>NAN</DistanceMeters>
          </Trackpoint>
          <Trackpoint>
            <Time>2021-08-10T11:50:14.000Z</Time>
            <Position>
              <LatitudeDegrees>43.1866954453289508819580078125</LatitudeDegrees>
              <LongitudeDegrees>-1.6724496893584728240966796875</LongitudeDegrees>
            </Position>
            <AltitudeMeters>111.59999847412109375</AltitudeMeters>
            <DistanceMeters>NAN</DistanceMeters>
          </Trackpoint>
          <Trackpoint>
            <Time>2021-08-10T11:50:15.000Z</Time>
            <Position>
              <LatitudeDegrees>43.1867081858217716217041015625</LatitudeDegrees>
              <LongitudeDegrees>-1.67248615063726902008056640625</LongitudeDegrees>
            </Position>
            <AltitudeMeters>111.59999847412109375</AltitudeMeters>
            <DistanceMeters>NAN</DistanceMeters>
          </Trackpoint>
          <Trackpoint>
            <Time>2021-08-10T11:50:16.000Z</Time>
            <Position>
              <LatitudeDegrees>43.186720423400402069091796875</LatitudeDegrees>
              <LongitudeDegrees>-1.6725224442780017852783203125</LongitudeDegrees>
            </Position>
            <AltitudeMeters>111.59999847412109375</AltitudeMeters>
            <DistanceMeters>NAN</DistanceMeters>
          </Trackpoint>
          <Trackpoint>
            <Time>2021-08-10T11:50:17.000Z</Time>
            <Position>
              <LatitudeDegrees>43.18673375062644481658935546875</LatitudeDegrees>
              <LongitudeDegrees>-1.67255957610905170440673828125</LongitudeDegrees>
            </Position>
            <AltitudeMeters>111.59999847412109375</AltitudeMeters>
            <DistanceMeters>NAN</DistanceMeters>
          </Trackpoint>
          <Trackpoint>
            <Time>2021-08-10T11:50:18.000Z</Time>
            <Position>
              <LatitudeDegrees>43.18674649111926555633544921875</LatitudeDegrees>
              <LongitudeDegrees>-1.6725973784923553466796875</LongitudeDegrees>
            </Position>
            <AltitudeMeters>111.59999847412109375</AltitudeMeters>
            <DistanceMeters>NAN</DistanceMeters>
          </Trackpoint>
          <Trackpoint>
            <Time>2021-08-10T11:50:19.000Z</Time>
            <Position>
              <LatitudeDegrees>43.1867594830691814422607421875</LatitudeDegrees>
              <LongitudeDegrees>-1.67263803072273731231689453125</LongitudeDegrees>
            </Position>
            <AltitudeMeters>111.59999847412109375</AltitudeMeters>
            <DistanceMeters>NAN</DistanceMeters>
          </Trackpoint>
          <Trackpoint>
            <Time>2021-08-10T11:50:20.000Z</Time>
            <Position>
              <LatitudeDegrees>43.1867718882858753204345703125</LatitudeDegrees>
              <LongitudeDegrees>-1.6726820357143878936767578125</LongitudeDegrees>
            </Position>
            <AltitudeMeters>111.40000152587890625</AltitudeMeters>
            <DistanceMeters>NAN</DistanceMeters>
          </Trackpoint>
          <Trackpoint>
            <Time>2021-08-10T11:50:21.000Z</Time>
            <Position>
              <LatitudeDegrees>43.18678756244480609893798828125</LatitudeDegrees>
              <LongitudeDegrees>-1.672727800905704498291015625</LongitudeDegrees>
            </Position>
            <AltitudeMeters>111.40000152587890625</AltitudeMeters>
            <DistanceMeters>NAN</DistanceMeters>
          </Trackpoint>
          <Trackpoint>
            <Time>2021-08-10T11:50:22.000Z</Time>
            <Position>
              <LatitudeDegrees>43.1868040747940540313720703125</LatitudeDegrees>
              <LongitudeDegrees>-1.67277264408767223358154296875</LongitudeDegrees>
            </Position>
            <AltitudeMeters>111.40000152587890625</AltitudeMeters>
            <DistanceMeters>NAN</DistanceMeters>
          </Trackpoint>
          <Trackpoint>
            <Time>2021-08-10T11:50:29.000Z</Time>
            <Position>
              <LatitudeDegrees>43.1869080103933811187744140625</LatitudeDegrees>
              <LongitudeDegrees>-1.67308151721954345703125</LongitudeDegrees>
            </Position>
            <AltitudeMeters>111</AltitudeMeters>
            <DistanceMeters>NAN</DistanceMeters>
          </Trackpoint>
          <Trackpoint>
            <Time>2021-08-10T11:50:31.000Z</Time>
            <Position>
              <LatitudeDegrees>43.18693391047418117523193359375</LatitudeDegrees>
              <LongitudeDegrees>-1.673164330422878265380859375</LongitudeDegrees>
            </Position>
            <AltitudeMeters>110.8000030517578125</AltitudeMeters>
            <DistanceMeters>NAN</DistanceMeters>
          </Trackpoint>
          <Trackpoint>
            <Time>2021-08-10T11:50:32.000Z</Time>
            <Position>
              <LatitudeDegrees>43.18694899789988994598388671875</LatitudeDegrees>
              <LongitudeDegrees>-1.67320431210100650787353515625</LongitudeDegrees>
            </Position>
            <AltitudeMeters>110.8000030517578125</AltitudeMeters>
            <DistanceMeters>NAN</DistanceMeters>
          </Trackpoint>
          <Trackpoint>
            <Time>2021-08-10T11:50:39.000Z</Time>
            <Position>
              <LatitudeDegrees>43.187057711184024810791015625</LatitudeDegrees>
              <LongitudeDegrees>-1.6735182143747806549072265625</LongitudeDegrees>
            </Position>
            <AltitudeMeters>110.40000152587890625</AltitudeMeters>
            <DistanceMeters>NAN</DistanceMeters>
          </Trackpoint>
          <Trackpoint>
            <Time>2021-08-10T11:50:47.000Z</Time>
            <Position>
              <LatitudeDegrees>43.18716759793460369110107421875</LatitudeDegrees>
              <LongitudeDegrees>-1.67385332286357879638671875</LongitudeDegrees>
            </Position>
            <AltitudeMeters>110.40000152587890625</AltitudeMeters>
            <DistanceMeters>NAN</DistanceMeters>
          </Trackpoint>
          <Trackpoint>
            <Time>2021-08-10T11:50:48.000Z</Time>
            <Position>
              <LatitudeDegrees>43.18717882968485355377197265625</LatitudeDegrees>
              <LongitudeDegrees>-1.673895232379436492919921875</LongitudeDegrees>
            </Position>
            <AltitudeMeters>110.40000152587890625</AltitudeMeters>
            <DistanceMeters>NAN</DistanceMeters>
          </Trackpoint>
          <Trackpoint>
            <Time>2021-08-10T11:50:49.000Z</Time>
            <Position>
              <LatitudeDegrees>43.1871926598250865936279296875</LatitudeDegrees>
              <LongitudeDegrees>-1.67394049465656280517578125</LongitudeDegrees>
            </Position>
            <AltitudeMeters>110.40000152587890625</AltitudeMeters>
            <DistanceMeters>NAN</DistanceMeters>
          </Trackpoint>
          <Trackpoint>
            <Time>2021-08-10T11:50:55.000Z</Time>
            <Position>
              <LatitudeDegrees>43.187296427786350250244140625</LatitudeDegrees>
              <LongitudeDegrees>-1.67422422207891941070556640625</LongitudeDegrees>
            </Position>
            <AltitudeMeters>110.1999969482421875</AltitudeMeters>
            <DistanceMeters>NAN</DistanceMeters>
          </Trackpoint>
          <Trackpoint>
            <Time>2021-08-10T11:51:00.000Z</Time>
            <Position>
              <LatitudeDegrees>43.1873737089335918426513671875</LatitudeDegrees>
              <LongitudeDegrees>-1.6744264774024486541748046875</LongitudeDegrees>
            </Position>
            <AltitudeMeters>110.1999969482421875</AltitudeMeters>
            <DistanceMeters>NAN</DistanceMeters>
          </Trackpoint>
          <Trackpoint>
            <Time>2021-08-10T11:51:01.000Z</Time>
            <Position>
              <LatitudeDegrees>43.18738795816898345947265625</LatitudeDegrees>
              <LongitudeDegrees>-1.674468219280242919921875</LongitudeDegrees>
            </Position>
            <AltitudeMeters>110.1999969482421875</AltitudeMeters>
            <DistanceMeters>NAN</DistanceMeters>
          </Trackpoint>
          <Trackpoint>
            <Time>2021-08-10T11:51:02.000Z</Time>
            <Position>
              <LatitudeDegrees>43.1874025426805019378662109375</LatitudeDegrees>
              <LongitudeDegrees>-1.6745146550238132476806640625</LongitudeDegrees>
            </Position>
            <AltitudeMeters>110.1999969482421875</AltitudeMeters>
            <DistanceMeters>NAN</DistanceMeters>
          </Trackpoint>
          <Trackpoint>
            <Time>2021-08-10T11:51:03.000Z</Time>
            <Position>
              <LatitudeDegrees>43.1874162890017032623291015625</LatitudeDegrees>
              <LongitudeDegrees>-1.6745580732822418212890625</LongitudeDegrees>
            </Position>
            <AltitudeMeters>110.1999969482421875</AltitudeMeters>
            <DistanceMeters>NAN</DistanceMeters>
          </Trackpoint>
          <Trackpoint>
            <Time>2021-08-10T11:51:04.000Z</Time>
            <Position>
              <LatitudeDegrees>43.18743296898901462554931640625</LatitudeDegrees>
              <LongitudeDegrees>-1.6745971329510211944580078125</LongitudeDegrees>
            </Position>
            <AltitudeMeters>110.1999969482421875</AltitudeMeters>
            <DistanceMeters>NAN</DistanceMeters>
          </Trackpoint>
          <Trackpoint>
            <Time>2021-08-10T11:51:05.000Z</Time>
            <Position>
              <LatitudeDegrees>43.18744922988116741180419921875</LatitudeDegrees>
              <LongitudeDegrees>-1.67463711462914943695068359375</LongitudeDegrees>
            </Position>
            <AltitudeMeters>110.1999969482421875</AltitudeMeters>
            <DistanceMeters>NAN</DistanceMeters>
          </Trackpoint>
          <Trackpoint>
            <Time>2021-08-10T11:51:06.000Z</Time>
            <Position>
              <LatitudeDegrees>43.1874642334878444671630859375</LatitudeDegrees>
              <LongitudeDegrees>-1.6746792756021022796630859375</LongitudeDegrees>
            </Position>
            <AltitudeMeters>110.1999969482421875</AltitudeMeters>
            <DistanceMeters>NAN</DistanceMeters>
          </Trackpoint>
          <Trackpoint>
            <Time>2021-08-10T11:51:07.000Z</Time>
            <Position>
              <LatitudeDegrees>43.18748007528483867645263671875</LatitudeDegrees>
              <LongitudeDegrees>-1.67472026310861110687255859375</LongitudeDegrees>
            </Position>
            <AltitudeMeters>110.1999969482421875</AltitudeMeters>
            <DistanceMeters>NAN</DistanceMeters>
          </Trackpoint>
          <Trackpoint>
            <Time>2021-08-10T11:51:08.000Z</Time>
            <Position>
              <LatitudeDegrees>43.18749465979635715484619140625</LatitudeDegrees>
              <LongitudeDegrees>-1.6747592389583587646484375</LongitudeDegrees>
            </Position>
            <AltitudeMeters>110.1999969482421875</AltitudeMeters>
            <DistanceMeters>NAN</DistanceMeters>
          </Trackpoint>
          <Trackpoint>
            <Time>2021-08-10T11:51:09.000Z</Time>
            <Position>
              <LatitudeDegrees>43.18750840611755847930908203125</LatitudeDegrees>
              <LongitudeDegrees>-1.67480056174099445343017578125</LongitudeDegrees>
            </Position>
            <AltitudeMeters>110.1999969482421875</AltitudeMeters>
            <DistanceMeters>NAN</DistanceMeters>
          </Trackpoint>
          <Trackpoint>
            <Time>2021-08-10T11:51:11.000Z</Time>
            <Position>
              <LatitudeDegrees>43.18754025734961032867431640625</LatitudeDegrees>
              <LongitudeDegrees>-1.67488488368690013885498046875</LongitudeDegrees>
            </Position>
            <AltitudeMeters>110.1999969482421875</AltitudeMeters>
            <DistanceMeters>NAN</DistanceMeters>
          </Trackpoint>
          <Trackpoint>
            <Time>2021-08-10T11:51:12.000Z</Time>
            <Position>
              <LatitudeDegrees>43.18755735643208026885986328125</LatitudeDegrees>
              <LongitudeDegrees>-1.6749189980328083038330078125</LongitudeDegrees>
            </Position>
            <AltitudeMeters>110.1999969482421875</AltitudeMeters>
            <DistanceMeters>NAN</DistanceMeters>
          </Trackpoint>
          <Trackpoint>
            <Time>2021-08-10T11:51:13.000Z</Time>
            <Position>
              <LatitudeDegrees>43.18757814355194568634033203125</LatitudeDegrees>
              <LongitudeDegrees>-1.6749572195112705230712890625</LongitudeDegrees>
            </Position>
            <AltitudeMeters>110.1999969482421875</AltitudeMeters>
            <DistanceMeters>NAN</DistanceMeters>
          </Trackpoint>
          <Trackpoint>
            <Time>2021-08-10T11:51:14.000Z</Time>
            <Position>
              <LatitudeDegrees>43.18759985268115997314453125</LatitudeDegrees>
              <LongitudeDegrees>-1.67499870993196964263916015625</LongitudeDegrees>
            </Position>
            <AltitudeMeters>110.40000152587890625</AltitudeMeters>
            <DistanceMeters>NAN</DistanceMeters>
          </Trackpoint>
          <Trackpoint>
            <Time>2021-08-10T11:51:15.000Z</Time>
            <Position>
              <LatitudeDegrees>43.1876177899539470672607421875</LatitudeDegrees>
              <LongitudeDegrees>-1.67503642849624156951904296875</LongitudeDegrees>
            </Position>
            <AltitudeMeters>110.1999969482421875</AltitudeMeters>
            <DistanceMeters>NAN</DistanceMeters>
          </Trackpoint>
          <Trackpoint>
            <Time>2021-08-10T11:51:17.000Z</Time>
            <Position>
              <LatitudeDegrees>43.187660537660121917724609375</LatitudeDegrees>
              <LongitudeDegrees>-1.675101220607757568359375</LongitudeDegrees>
            </Position>
            <AltitudeMeters>110.1999969482421875</AltitudeMeters>
            <DistanceMeters>NAN</DistanceMeters>
          </Trackpoint>
          <Trackpoint>
            <Time>2021-08-10T11:51:19.000Z</Time>
            <Position>
              <LatitudeDegrees>43.18771258927881717681884765625</LatitudeDegrees>
              <LongitudeDegrees>-1.6751671023666858673095703125</LongitudeDegrees>
            </Position>
            <AltitudeMeters>110.1999969482421875</AltitudeMeters>
            <DistanceMeters>NAN</DistanceMeters>
          </Trackpoint>
          <Trackpoint>
            <Time>2021-08-10T11:51:20.000Z</Time>
            <Position>
              <LatitudeDegrees>43.18774175830185413360595703125</LatitudeDegrees>
              <LongitudeDegrees>-1.67519886977970600128173828125</LongitudeDegrees>
            </Position>
            <AltitudeMeters>110.1999969482421875</AltitudeMeters>
            <DistanceMeters>NAN</DistanceMeters>
          </Trackpoint>
          <Trackpoint>
            <Time>2021-08-10T11:51:21.000Z</Time>
            <Position>
              <LatitudeDegrees>43.18776656873524188995361328125</LatitudeDegrees>
              <LongitudeDegrees>-1.6752313077449798583984375</LongitudeDegrees>
            </Position>
            <AltitudeMeters>110.1999969482421875</AltitudeMeters>
            <DistanceMeters>NAN</DistanceMeters>
          </Trackpoint>
          <Trackpoint>
            <Time>2021-08-10T11:51:25.000Z</Time>
            <Position>
              <LatitudeDegrees>43.1878689117729663848876953125</LatitudeDegrees>
              <LongitudeDegrees>-1.675373129546642303466796875</LongitudeDegrees>
            </Position>
            <AltitudeMeters>110.1999969482421875</AltitudeMeters>
            <DistanceMeters>NAN</DistanceMeters>
          </Trackpoint>
          <Trackpoint>
            <Time>2021-08-10T11:51:32.000Z</Time>
            <Position>
              <LatitudeDegrees>43.18808575160801410675048828125</LatitudeDegrees>
              <LongitudeDegrees>-1.67561092413961887359619140625</LongitudeDegrees>
            </Position>
            <AltitudeMeters>110.40000152587890625</AltitudeMeters>
            <DistanceMeters>NAN</DistanceMeters>
          </Trackpoint>
          <Trackpoint>
            <Time>2021-08-10T11:51:35.000Z</Time>
            <Position>
              <LatitudeDegrees>43.18818725645542144775390625</LatitudeDegrees>
              <LongitudeDegrees>-1.6756760515272617340087890625</LongitudeDegrees>
            </Position>
            <AltitudeMeters>110.40000152587890625</AltitudeMeters>
            <DistanceMeters>NAN</DistanceMeters>
          </Trackpoint>
          <Trackpoint>
            <Time>2021-08-10T11:51:41.000Z</Time>
            <Position>
              <LatitudeDegrees>43.18842974491417407989501953125</LatitudeDegrees>
              <LongitudeDegrees>-1.6758198849856853485107421875</LongitudeDegrees>
            </Position>
            <AltitudeMeters>110.40000152587890625</AltitudeMeters>
            <DistanceMeters>NAN</DistanceMeters>
          </Trackpoint>
          <Trackpoint>
            <Time>2021-08-10T11:51:44.000Z</Time>
            <Position>
              <LatitudeDegrees>43.18853418342769145965576171875</LatitudeDegrees>
              <LongitudeDegrees>-1.67585265822708606719970703125</LongitudeDegrees>
            </Position>
            <AltitudeMeters>110.1999969482421875</AltitudeMeters>
            <DistanceMeters>NAN</DistanceMeters>
          </Trackpoint>
          <Trackpoint>
            <Time>2021-08-10T11:51:45.000Z</Time>
            <Position>
              <LatitudeDegrees>43.18856284953653812408447265625</LatitudeDegrees>
              <LongitudeDegrees>-1.67584276758134365081787109375</LongitudeDegrees>
            </Position>
            <AltitudeMeters>110.1999969482421875</AltitudeMeters>
            <DistanceMeters>NAN</DistanceMeters>
          </Trackpoint>
          <Trackpoint>
            <Time>2021-08-10T11:51:46.000Z</Time>
            <Position>
              <LatitudeDegrees>43.188605345785617828369140625</LatitudeDegrees>
              <LongitudeDegrees>-1.67584192939102649688720703125</LongitudeDegrees>
            </Position>
            <AltitudeMeters>110.1999969482421875</AltitudeMeters>
            <DistanceMeters>NAN</DistanceMeters>
          </Trackpoint>
          <Trackpoint>
            <Time>2021-08-10T11:51:49.000Z</Time>
            <Position>
              <LatitudeDegrees>43.1887148134410381317138671875</LatitudeDegrees>
              <LongitudeDegrees>-1.67584695853292942047119140625</LongitudeDegrees>
            </Position>
            <AltitudeMeters>110</AltitudeMeters>
            <DistanceMeters>NAN</DistanceMeters>
          </Trackpoint>
          <Trackpoint>
            <Time>2021-08-10T11:51:53.000Z</Time>
            <Position>
              <LatitudeDegrees>43.188874907791614532470703125</LatitudeDegrees>
              <LongitudeDegrees>-1.6758294403553009033203125</LongitudeDegrees>
            </Position>
            <AltitudeMeters>110.1999969482421875</AltitudeMeters>
            <DistanceMeters>NAN</DistanceMeters>
          </Trackpoint>
          <Trackpoint>
            <Time>2021-08-10T11:51:59.000Z</Time>
            <Position>
              <LatitudeDegrees>43.1891211681067943572998046875</LatitudeDegrees>
              <LongitudeDegrees>-1.675746627151966094970703125</LongitudeDegrees>
            </Position>
            <AltitudeMeters>110</AltitudeMeters>
            <DistanceMeters>NAN</DistanceMeters>
          </Trackpoint>
          <Trackpoint>
            <Time>2021-08-10T11:52:03.000Z</Time>
            <Position>
              <LatitudeDegrees>43.189272545278072357177734375</LatitudeDegrees>
              <LongitudeDegrees>-1.67563858442008495330810546875</LongitudeDegrees>
            </Position>
            <AltitudeMeters>109.8000030517578125</AltitudeMeters>
            <DistanceMeters>NAN</DistanceMeters>
          </Trackpoint>
          <Trackpoint>
            <Time>2021-08-10T11:52:05.000Z</Time>
            <Position>
              <LatitudeDegrees>43.18933147005736827850341796875</LatitudeDegrees>
              <LongitudeDegrees>-1.67559449560940265655517578125</LongitudeDegrees>
            </Position>
            <AltitudeMeters>109.8000030517578125</AltitudeMeters>
            <DistanceMeters>NAN</DistanceMeters>
          </Trackpoint>
          <Trackpoint>
            <Time>2021-08-10T11:52:06.000Z</Time>
            <Position>
              <LatitudeDegrees>43.18936114199459552764892578125</LatitudeDegrees>
              <LongitudeDegrees>-1.67556599713861942291259765625</LongitudeDegrees>
            </Position>
            <AltitudeMeters>109.59999847412109375</AltitudeMeters>
            <DistanceMeters>NAN</DistanceMeters>
          </Trackpoint>
          <Trackpoint>
            <Time>2021-08-10T11:52:07.000Z</Time>
            <Position>
              <LatitudeDegrees>43.18939181976020336151123046875</LatitudeDegrees>
              <LongitudeDegrees>-1.6755317151546478271484375</LongitudeDegrees>
            </Position>
            <AltitudeMeters>109.59999847412109375</AltitudeMeters>
            <DistanceMeters>NAN</DistanceMeters>
          </Trackpoint>
          <Trackpoint>
            <Time>2021-08-10T11:52:10.000Z</Time>
            <Position>
              <LatitudeDegrees>43.1894836015999317169189453125</LatitudeDegrees>
              <LongitudeDegrees>-1.67541814036667346954345703125</LongitudeDegrees>
            </Position>
            <AltitudeMeters>109.59999847412109375</AltitudeMeters>
            <DistanceMeters>NAN</DistanceMeters>
          </Trackpoint>
          <Trackpoint>
            <Time>2021-08-10T11:52:11.000Z</Time>
            <Position>
              <LatitudeDegrees>43.18950883112847805023193359375</LatitudeDegrees>
              <LongitudeDegrees>-1.675381176173686981201171875</LongitudeDegrees>
            </Position>
            <AltitudeMeters>109.59999847412109375</AltitudeMeters>
            <DistanceMeters>NAN</DistanceMeters>
          </Trackpoint>
          <Trackpoint>
            <Time>2021-08-10T11:52:12.000Z</Time>
            <Position>
              <LatitudeDegrees>43.18953716196119785308837890625</LatitudeDegrees>
              <LongitudeDegrees>-1.6753421165049076080322265625</LongitudeDegrees>
            </Position>
            <AltitudeMeters>109.59999847412109375</AltitudeMeters>
            <DistanceMeters>NAN</DistanceMeters>
          </Trackpoint>
          <Trackpoint>
            <Time>2021-08-10T11:52:13.000Z</Time>
            <Position>
              <LatitudeDegrees>43.1895664148032665252685546875</LatitudeDegrees>
              <LongitudeDegrees>-1.67530733160674571990966796875</LongitudeDegrees>
            </Position>
            <AltitudeMeters>109.59999847412109375</AltitudeMeters>
            <DistanceMeters>NAN</DistanceMeters>
          </Trackpoint>
          <Trackpoint>
            <Time>2021-08-10T11:52:14.000Z</Time>
            <Position>
              <LatitudeDegrees>43.189599774777889251708984375</LatitudeDegrees>
              <LongitudeDegrees>-1.675263829529285430908203125</LongitudeDegrees>
            </Position>
            <AltitudeMeters>109.40000152587890625</AltitudeMeters>
            <DistanceMeters>NAN</DistanceMeters>
          </Trackpoint>
          <Trackpoint>
            <Time>2021-08-10T11:52:20.000Z</Time>
            <Position>
              <LatitudeDegrees>43.18973598070442676544189453125</LatitudeDegrees>
              <LongitudeDegrees>-1.67501111514866352081298828125</LongitudeDegrees>
            </Position>
            <AltitudeMeters>109.1999969482421875</AltitudeMeters>
            <DistanceMeters>NAN</DistanceMeters>
          </Trackpoint>
          <Trackpoint>
            <Time>2021-08-10T11:52:27.000Z</Time>
            <Position>
              <LatitudeDegrees>43.1898591108620166778564453125</LatitudeDegrees>
              <LongitudeDegrees>-1.6746444068849086761474609375</LongitudeDegrees>
            </Position>
            <AltitudeMeters>108.59999847412109375</AltitudeMeters>
            <DistanceMeters>NAN</DistanceMeters>
          </Trackpoint>
          <Trackpoint>
            <Time>2021-08-10T11:52:28.000Z</Time>
            <Position>
              <LatitudeDegrees>43.1898718513548374176025390625</LatitudeDegrees>
              <LongitudeDegrees>-1.6746011562645435333251953125</LongitudeDegrees>
            </Position>
            <AltitudeMeters>108.59999847412109375</AltitudeMeters>
            <DistanceMeters>NAN</DistanceMeters>
          </Trackpoint>
          <Trackpoint>
            <Time>2021-08-10T11:52:29.000Z</Time>
            <Position>
              <LatitudeDegrees>43.18988098762929439544677734375</LatitudeDegrees>
              <LongitudeDegrees>-1.67455899529159069061279296875</LongitudeDegrees>
            </Position>
            <AltitudeMeters>108.59999847412109375</AltitudeMeters>
            <DistanceMeters>NAN</DistanceMeters>
          </Trackpoint>
          <Trackpoint>
            <Time>2021-08-10T11:52:30.000Z</Time>
            <Position>
              <LatitudeDegrees>43.18989037536084651947021484375</LatitudeDegrees>
              <LongitudeDegrees>-1.67452127672731876373291015625</LongitudeDegrees>
            </Position>
            <AltitudeMeters>108.59999847412109375</AltitudeMeters>
            <DistanceMeters>NAN</DistanceMeters>
          </Trackpoint>
          <Trackpoint>
            <Time>2021-08-10T11:52:31.000Z</Time>
            <Position>
              <LatitudeDegrees>43.1898990087211132049560546875</LatitudeDegrees>
              <LongitudeDegrees>-1.674489676952362060546875</LongitudeDegrees>
            </Position>
            <AltitudeMeters>108.59999847412109375</AltitudeMeters>
            <DistanceMeters>NAN</DistanceMeters>
          </Trackpoint>
          <Trackpoint>
            <Time>2021-08-10T11:52:32.000Z</Time>
            <Position>
              <LatitudeDegrees>43.18991183303296566009521484375</LatitudeDegrees>
              <LongitudeDegrees>-1.67446176521480083465576171875</LongitudeDegrees>
            </Position>
            <AltitudeMeters>108.59999847412109375</AltitudeMeters>
            <DistanceMeters>NAN</DistanceMeters>
          </Trackpoint>
          <Trackpoint>
            <Time>2021-08-10T11:52:33.000Z</Time>
            <Position>
              <LatitudeDegrees>43.18992557935416698455810546875</LatitudeDegrees>
              <LongitudeDegrees>-1.67442505247890949249267578125</LongitudeDegrees>
            </Position>
            <AltitudeMeters>108.59999847412109375</AltitudeMeters>
            <DistanceMeters>NAN</DistanceMeters>
          </Trackpoint>
          <Trackpoint>
            <Time>2021-08-10T11:52:35.000Z</Time>
            <Position>
              <LatitudeDegrees>43.18995240144431591033935546875</LatitudeDegrees>
              <LongitudeDegrees>-1.67433075606822967529296875</LongitudeDegrees>
            </Position>
            <AltitudeMeters>108.59999847412109375</AltitudeMeters>
            <DistanceMeters>NAN</DistanceMeters>
          </Trackpoint>
          <Trackpoint>
            <Time>2021-08-10T11:52:41.000Z</Time>
            <Position>
              <LatitudeDegrees>43.1900314427912235260009765625</LatitudeDegrees>
              <LongitudeDegrees>-1.67407686822116374969482421875</LongitudeDegrees>
            </Position>
            <AltitudeMeters>109</AltitudeMeters>
            <DistanceMeters>NAN</DistanceMeters>
          </Trackpoint>
          <Trackpoint>
            <Time>2021-08-10T11:52:42.000Z</Time>
            <Position>
              <LatitudeDegrees>43.19004192017018795013427734375</LatitudeDegrees>
              <LongitudeDegrees>-1.67403931729495525360107421875</LongitudeDegrees>
            </Position>
            <AltitudeMeters>108.8000030517578125</AltitudeMeters>
            <DistanceMeters>NAN</DistanceMeters>
          </Trackpoint>
          <Trackpoint>
            <Time>2021-08-10T11:52:47.000Z</Time>
            <Position>
              <LatitudeDegrees>43.19009237922728061676025390625</LatitudeDegrees>
              <LongitudeDegrees>-1.6738300211727619171142578125</LongitudeDegrees>
            </Position>
            <AltitudeMeters>109</AltitudeMeters>
            <DistanceMeters>NAN</DistanceMeters>
          </Trackpoint>
          <Trackpoint>
            <Time>2021-08-10T11:52:48.000Z</Time>
            <Position>
              <LatitudeDegrees>43.19010528735816478729248046875</LatitudeDegrees>
              <LongitudeDegrees>-1.67379322461783885955810546875</LongitudeDegrees>
            </Position>
            <AltitudeMeters>109</AltitudeMeters>
            <DistanceMeters>NAN</DistanceMeters>
          </Trackpoint>
          <Trackpoint>
            <Time>2021-08-10T11:52:50.000Z</Time>
            <Position>
              <LatitudeDegrees>43.19013076834380626678466796875</LatitudeDegrees>
              <LongitudeDegrees>-1.67370923794806003570556640625</LongitudeDegrees>
            </Position>
            <AltitudeMeters>109</AltitudeMeters>
            <DistanceMeters>NAN</DistanceMeters>
          </Trackpoint>
          <Trackpoint>
            <Time>2021-08-10T11:52:54.000Z</Time>
            <Position>
              <LatitudeDegrees>43.19015465676784515380859375</LatitudeDegrees>
              <LongitudeDegrees>-1.67353774420917034149169921875</LongitudeDegrees>
            </Position>
            <AltitudeMeters>109</AltitudeMeters>
            <DistanceMeters>NAN</DistanceMeters>
          </Trackpoint>
          <Trackpoint>
            <Time>2021-08-10T11:52:55.000Z</Time>
            <Position>
              <LatitudeDegrees>43.1901647150516510009765625</LatitudeDegrees>
              <LongitudeDegrees>-1.673486866056919097900390625</LongitudeDegrees>
            </Position>
            <AltitudeMeters>109</AltitudeMeters>
            <DistanceMeters>NAN</DistanceMeters>
          </Trackpoint>
          <Trackpoint>
            <Time>2021-08-10T11:52:56.000Z</Time>
            <Position>
              <LatitudeDegrees>43.19018072448670864105224609375</LatitudeDegrees>
              <LongitudeDegrees>-1.673448644578456878662109375</LongitudeDegrees>
            </Position>
            <AltitudeMeters>109</AltitudeMeters>
            <DistanceMeters>NAN</DistanceMeters>
          </Trackpoint>
          <Trackpoint>
            <Time>2021-08-10T11:52:57.000Z</Time>
            <Position>
              <LatitudeDegrees>43.1901943869888782501220703125</LatitudeDegrees>
              <LongitudeDegrees>-1.67341344058513641357421875</LongitudeDegrees>
            </Position>
            <AltitudeMeters>109</AltitudeMeters>
            <DistanceMeters>NAN</DistanceMeters>
          </Trackpoint>
          <Trackpoint>
            <Time>2021-08-10T11:52:58.000Z</Time>
            <Position>
              <LatitudeDegrees>43.19020989350974559783935546875</LatitudeDegrees>
              <LongitudeDegrees>-1.6733807511627674102783203125</LongitudeDegrees>
            </Position>
            <AltitudeMeters>109</AltitudeMeters>
            <DistanceMeters>NAN</DistanceMeters>
          </Trackpoint>
          <Trackpoint>
            <Time>2021-08-10T11:52:59.000Z</Time>
            <Position>
              <LatitudeDegrees>43.19021810777485370635986328125</LatitudeDegrees>
              <LongitudeDegrees>-1.6733442060649394989013671875</LongitudeDegrees>
            </Position>
            <AltitudeMeters>109</AltitudeMeters>
            <DistanceMeters>NAN</DistanceMeters>
          </Trackpoint>
          <Trackpoint>
            <Time>2021-08-10T11:53:00.000Z</Time>
            <Position>
              <LatitudeDegrees>43.19022799842059612274169921875</LatitudeDegrees>
              <LongitudeDegrees>-1.6733079962432384490966796875</LongitudeDegrees>
            </Position>
            <AltitudeMeters>109.1999969482421875</AltitudeMeters>
            <DistanceMeters>NAN</DistanceMeters>
          </Trackpoint>
          <Trackpoint>
            <Time>2021-08-10T11:53:01.000Z</Time>
            <Position>
              <LatitudeDegrees>43.19023805670440196990966796875</LatitudeDegrees>
              <LongitudeDegrees>-1.673275642096996307373046875</LongitudeDegrees>
            </Position>
            <AltitudeMeters>109.1999969482421875</AltitudeMeters>
            <DistanceMeters>NAN</DistanceMeters>
          </Trackpoint>
          <Trackpoint>
            <Time>2021-08-10T11:53:02.000Z</Time>
            <Position>
              <LatitudeDegrees>43.1902478635311126708984375</LatitudeDegrees>
              <LongitudeDegrees>-1.67324177920818328857421875</LongitudeDegrees>
            </Position>
            <AltitudeMeters>109.1999969482421875</AltitudeMeters>
            <DistanceMeters>NAN</DistanceMeters>
          </Trackpoint>
          <Trackpoint>
            <Time>2021-08-10T11:53:03.000Z</Time>
            <Position>
              <LatitudeDegrees>43.1902597658336162567138671875</LatitudeDegrees>
              <LongitudeDegrees>-1.673201210796833038330078125</LongitudeDegrees>
            </Position>
            <AltitudeMeters>109.1999969482421875</AltitudeMeters>
            <DistanceMeters>NAN</DistanceMeters>
          </Trackpoint>
          <Trackpoint>
            <Time>2021-08-10T11:53:09.000Z</Time>
            <Position>
              <LatitudeDegrees>43.19032841362059116363525390625</LatitudeDegrees>
              <LongitudeDegrees>-1.6729246079921722412109375</LongitudeDegrees>
            </Position>
            <AltitudeMeters>109.40000152587890625</AltitudeMeters>
            <DistanceMeters>NAN</DistanceMeters>
          </Trackpoint>
          <Trackpoint>
            <Time>2021-08-10T11:53:10.000Z</Time>
            <Position>
              <LatitudeDegrees>43.19033528678119182586669921875</LatitudeDegrees>
              <LongitudeDegrees>-1.67288932017982006072998046875</LongitudeDegrees>
            </Position>
            <AltitudeMeters>109.40000152587890625</AltitudeMeters>
            <DistanceMeters>NAN</DistanceMeters>
          </Trackpoint>
          <Trackpoint>
            <Time>2021-08-10T11:53:11.000Z</Time>
            <Position>
              <LatitudeDegrees>43.1903435848653316497802734375</LatitudeDegrees>
              <LongitudeDegrees>-1.6728587262332439422607421875</LongitudeDegrees>
            </Position>
            <AltitudeMeters>109.40000152587890625</AltitudeMeters>
            <DistanceMeters>NAN</DistanceMeters>
          </Trackpoint>
          <Trackpoint>
            <Time>2021-08-10T11:53:12.000Z</Time>
            <Position>
              <LatitudeDegrees>43.19034668616950511932373046875</LatitudeDegrees>
              <LongitudeDegrees>-1.6728305630385875701904296875</LongitudeDegrees>
            </Position>
            <AltitudeMeters>109.59999847412109375</AltitudeMeters>
            <DistanceMeters>NAN</DistanceMeters>
          </Trackpoint>
          <Trackpoint>
            <Time>2021-08-10T11:53:13.000Z</Time>
            <Position>
              <LatitudeDegrees>43.19035506807267665863037109375</LatitudeDegrees>
              <LongitudeDegrees>-1.67280323803424835205078125</LongitudeDegrees>
            </Position>
            <AltitudeMeters>109.59999847412109375</AltitudeMeters>
            <DistanceMeters>NAN</DistanceMeters>
          </Trackpoint>
          <Trackpoint>
            <Time>2021-08-10T11:53:14.000Z</Time>
            <Position>
              <LatitudeDegrees>43.1903630308806896209716796875</LatitudeDegrees>
              <LongitudeDegrees>-1.67277247644960880279541015625</LongitudeDegrees>
            </Position>
            <AltitudeMeters>109.59999847412109375</AltitudeMeters>
            <DistanceMeters>NAN</DistanceMeters>
          </Trackpoint>
          <Trackpoint>
            <Time>2021-08-10T11:53:18.000Z</Time>
            <Position>
              <LatitudeDegrees>43.1903811357915401458740234375</LatitudeDegrees>
              <LongitudeDegrees>-1.6726444847881793975830078125</LongitudeDegrees>
            </Position>
            <AltitudeMeters>109.8000030517578125</AltitudeMeters>
            <DistanceMeters>NAN</DistanceMeters>
          </Trackpoint>
          <Trackpoint>
            <Time>2021-08-10T11:53:19.000Z</Time>
            <Position>
              <LatitudeDegrees>43.1903878413140773773193359375</LatitudeDegrees>
              <LongitudeDegrees>-1.67259528301656246185302734375</LongitudeDegrees>
            </Position>
            <AltitudeMeters>109.59999847412109375</AltitudeMeters>
            <DistanceMeters>NAN</DistanceMeters>
          </Trackpoint>
          <Trackpoint>
            <Time>2021-08-10T11:53:23.000Z</Time>
            <Position>
              <LatitudeDegrees>43.19042564369738101959228515625</LatitudeDegrees>
              <LongitudeDegrees>-1.67242781259119510650634765625</LongitudeDegrees>
            </Position>
            <AltitudeMeters>109.8000030517578125</AltitudeMeters>
            <DistanceMeters>NAN</DistanceMeters>
          </Trackpoint>
          <Trackpoint>
            <Time>2021-08-10T11:53:24.000Z</Time>
            <Position>
              <LatitudeDegrees>43.1904217042028903961181640625</LatitudeDegrees>
              <LongitudeDegrees>-1.67237936519086360931396484375</LongitudeDegrees>
            </Position>
            <AltitudeMeters>109.8000030517578125</AltitudeMeters>
            <DistanceMeters>NAN</DistanceMeters>
          </Trackpoint>
          <Trackpoint>
            <Time>2021-08-10T11:53:25.000Z</Time>
            <Position>
              <LatitudeDegrees>43.19042153656482696533203125</LatitudeDegrees>
              <LongitudeDegrees>-1.6723333485424518585205078125</LongitudeDegrees>
            </Position>
            <AltitudeMeters>109.8000030517578125</AltitudeMeters>
            <DistanceMeters>NAN</DistanceMeters>
          </Trackpoint>
          <Trackpoint>
            <Time>2021-08-10T11:53:29.000Z</Time>
            <Position>
              <LatitudeDegrees>43.190434612333774566650390625</LatitudeDegrees>
              <LongitudeDegrees>-1.67214802466332912445068359375</LongitudeDegrees>
            </Position>
            <AltitudeMeters>109.8000030517578125</AltitudeMeters>
            <DistanceMeters>NAN</DistanceMeters>
          </Trackpoint>
          <Trackpoint>
            <Time>2021-08-10T11:53:33.000Z</Time>
            <Position>
              <LatitudeDegrees>43.1904436647891998291015625</LatitudeDegrees>
              <LongitudeDegrees>-1.67193277738988399505615234375</LongitudeDegrees>
            </Position>
            <AltitudeMeters>110</AltitudeMeters>
            <DistanceMeters>NAN</DistanceMeters>
          </Trackpoint>
          <Trackpoint>
            <Time>2021-08-10T11:53:34.000Z</Time>
            <Position>
              <LatitudeDegrees>43.1904304213821887969970703125</LatitudeDegrees>
              <LongitudeDegrees>-1.67187879793345928192138671875</LongitudeDegrees>
            </Position>
            <AltitudeMeters>110</AltitudeMeters>
            <DistanceMeters>NAN</DistanceMeters>
          </Trackpoint>
          <Trackpoint>
            <Time>2021-08-10T11:53:35.000Z</Time>
            <Position>
              <LatitudeDegrees>43.19041022099554538726806640625</LatitudeDegrees>
              <LongitudeDegrees>-1.67183093726634979248046875</LongitudeDegrees>
            </Position>
            <AltitudeMeters>110</AltitudeMeters>
            <DistanceMeters>NAN</DistanceMeters>
          </Trackpoint>
          <Trackpoint>
            <Time>2021-08-10T11:53:36.000Z</Time>
            <Position>
              <LatitudeDegrees>43.19039647467434406280517578125</LatitudeDegrees>
              <LongitudeDegrees>-1.6717798076570034027099609375</LongitudeDegrees>
            </Position>
            <AltitudeMeters>110</AltitudeMeters>
            <DistanceMeters>NAN</DistanceMeters>
          </Trackpoint>
          <Trackpoint>
            <Time>2021-08-10T11:53:42.000Z</Time>
            <Position>
              <LatitudeDegrees>43.1903667189180850982666015625</LatitudeDegrees>
              <LongitudeDegrees>-1.6714408434927463531494140625</LongitudeDegrees>
            </Position>
            <AltitudeMeters>110</AltitudeMeters>
            <DistanceMeters>NAN</DistanceMeters>
          </Trackpoint>
          <Trackpoint>
            <Time>2021-08-10T11:53:43.000Z</Time>
            <Position>
              <LatitudeDegrees>43.19037728011608123779296875</LatitudeDegrees>
              <LongitudeDegrees>-1.67137940414249897003173828125</LongitudeDegrees>
            </Position>
            <AltitudeMeters>110</AltitudeMeters>
            <DistanceMeters>NAN</DistanceMeters>
          </Trackpoint>
          <Trackpoint>
            <Time>2021-08-10T11:53:51.000Z</Time>
            <Position>
              <LatitudeDegrees>43.1903727538883686065673828125</LatitudeDegrees>
              <LongitudeDegrees>-1.670921333134174346923828125</LongitudeDegrees>
            </Position>
            <AltitudeMeters>110.1999969482421875</AltitudeMeters>
            <DistanceMeters>NAN</DistanceMeters>
          </Trackpoint>
          <Trackpoint>
            <Time>2021-08-10T11:53:52.000Z</Time>
            <Position>
              <LatitudeDegrees>43.1903700716793537139892578125</LatitudeDegrees>
              <LongitudeDegrees>-1.67087095789611339569091796875</LongitudeDegrees>
            </Position>
            <AltitudeMeters>110.1999969482421875</AltitudeMeters>
            <DistanceMeters>NAN</DistanceMeters>
          </Trackpoint>
          <Trackpoint>
            <Time>2021-08-10T11:53:53.000Z</Time>
            <Position>
              <LatitudeDegrees>43.19036428816616535186767578125</LatitudeDegrees>
              <LongitudeDegrees>-1.67081848718225955963134765625</LongitudeDegrees>
            </Position>
            <AltitudeMeters>110.1999969482421875</AltitudeMeters>
            <DistanceMeters>NAN</DistanceMeters>
          </Trackpoint>
          <Trackpoint>
            <Time>2021-08-10T11:53:54.000Z</Time>
            <Position>
              <LatitudeDegrees>43.19036118686199188232421875</LatitudeDegrees>
              <LongitudeDegrees>-1.67077724821865558624267578125</LongitudeDegrees>
            </Position>
            <AltitudeMeters>110.1999969482421875</AltitudeMeters>
            <DistanceMeters>NAN</DistanceMeters>
          </Trackpoint>
          <Trackpoint>
            <Time>2021-08-10T11:53:55.000Z</Time>
            <Position>
              <LatitudeDegrees>43.190356828272342681884765625</LatitudeDegrees>
              <LongitudeDegrees>-1.67073332704603672027587890625</LongitudeDegrees>
            </Position>
            <AltitudeMeters>110.1999969482421875</AltitudeMeters>
            <DistanceMeters>NAN</DistanceMeters>
          </Trackpoint>
          <Trackpoint>
            <Time>2021-08-10T11:53:56.000Z</Time>
            <Position>
              <LatitudeDegrees>43.1903563253581523895263671875</LatitudeDegrees>
              <LongitudeDegrees>-1.6706938482820987701416015625</LongitudeDegrees>
            </Position>
            <AltitudeMeters>110</AltitudeMeters>
            <DistanceMeters>NAN</DistanceMeters>
          </Trackpoint>
          <Trackpoint>
            <Time>2021-08-10T11:53:57.000Z</Time>
            <Position>
              <LatitudeDegrees>43.1903543137013912200927734375</LatitudeDegrees>
              <LongitudeDegrees>-1.6706539504230022430419921875</LongitudeDegrees>
            </Position>
            <AltitudeMeters>110</AltitudeMeters>
            <DistanceMeters>NAN</DistanceMeters>
          </Trackpoint>
          <Trackpoint>
            <Time>2021-08-10T11:53:58.000Z</Time>
            <Position>
              <LatitudeDegrees>43.1903553195297718048095703125</LatitudeDegrees>
              <LongitudeDegrees>-1.67061581276357173919677734375</LongitudeDegrees>
            </Position>
            <AltitudeMeters>110</AltitudeMeters>
            <DistanceMeters>NAN</DistanceMeters>
          </Trackpoint>
          <Trackpoint>
            <Time>2021-08-10T11:53:59.000Z</Time>
            <Position>
              <LatitudeDegrees>43.190354816615581512451171875</LatitudeDegrees>
              <LongitudeDegrees>-1.670579351484775543212890625</LongitudeDegrees>
            </Position>
            <AltitudeMeters>110</AltitudeMeters>
            <DistanceMeters>NAN</DistanceMeters>
          </Trackpoint>
          <Trackpoint>
            <Time>2021-08-10T11:54:00.000Z</Time>
            <Position>
              <LatitudeDegrees>43.19035372696816921234130859375</LatitudeDegrees>
              <LongitudeDegrees>-1.67054540477693080902099609375</LongitudeDegrees>
            </Position>
            <AltitudeMeters>110</AltitudeMeters>
            <DistanceMeters>NAN</DistanceMeters>
          </Trackpoint>
          <Trackpoint>
            <Time>2021-08-10T11:54:01.000Z</Time>
            <Position>
              <LatitudeDegrees>43.1903497874736785888671875</LatitudeDegrees>
              <LongitudeDegrees>-1.67050919495522975921630859375</LongitudeDegrees>
            </Position>
            <AltitudeMeters>110</AltitudeMeters>
            <DistanceMeters>NAN</DistanceMeters>
          </Trackpoint>
          <Trackpoint>
            <Time>2021-08-10T11:54:02.000Z</Time>
            <Position>
              <LatitudeDegrees>43.1903452612459659576416015625</LatitudeDegrees>
              <LongitudeDegrees>-1.67046980001032352447509765625</LongitudeDegrees>
            </Position>
            <AltitudeMeters>110</AltitudeMeters>
            <DistanceMeters>NAN</DistanceMeters>
          </Trackpoint>
          <Trackpoint>
            <Time>2021-08-10T11:54:03.000Z</Time>
            <Position>
              <LatitudeDegrees>43.19034534506499767303466796875</LatitudeDegrees>
              <LongitudeDegrees>-1.67042939923703670501708984375</LongitudeDegrees>
            </Position>
            <AltitudeMeters>109.8000030517578125</AltitudeMeters>
            <DistanceMeters>NAN</DistanceMeters>
          </Trackpoint>
          <Trackpoint>
            <Time>2021-08-10T11:54:07.000Z</Time>
            <Position>
              <LatitudeDegrees>43.19034517742693424224853515625</LatitudeDegrees>
              <LongitudeDegrees>-1.6702579893171787261962890625</LongitudeDegrees>
            </Position>
            <AltitudeMeters>109.8000030517578125</AltitudeMeters>
            <DistanceMeters>NAN</DistanceMeters>
          </Trackpoint>
          <Trackpoint>
            <Time>2021-08-10T11:54:14.000Z</Time>
            <Position>
              <LatitudeDegrees>43.190317265689373016357421875</LatitudeDegrees>
              <LongitudeDegrees>-1.66993805207312107086181640625</LongitudeDegrees>
            </Position>
            <AltitudeMeters>110</AltitudeMeters>
            <DistanceMeters>NAN</DistanceMeters>
          </Trackpoint>
          <Trackpoint>
            <Time>2021-08-10T11:54:21.000Z</Time>
            <Position>
              <LatitudeDegrees>43.19028968922793865203857421875</LatitudeDegrees>
              <LongitudeDegrees>-1.6695730201900005340576171875</LongitudeDegrees>
            </Position>
            <AltitudeMeters>109.8000030517578125</AltitudeMeters>
            <DistanceMeters>NAN</DistanceMeters>
          </Trackpoint>
          <Trackpoint>
            <Time>2021-08-10T11:54:28.000Z</Time>
            <Position>
              <LatitudeDegrees>43.1902612745761871337890625</LatitudeDegrees>
              <LongitudeDegrees>-1.66921905241906642913818359375</LongitudeDegrees>
            </Position>
            <AltitudeMeters>109.59999847412109375</AltitudeMeters>
            <DistanceMeters>NAN</DistanceMeters>
          </Trackpoint>
          <Trackpoint>
            <Time>2021-08-10T11:54:33.000Z</Time>
            <Position>
              <LatitudeDegrees>43.19023034535348415374755859375</LatitudeDegrees>
              <LongitudeDegrees>-1.668927781283855438232421875</LongitudeDegrees>
            </Position>
            <AltitudeMeters>109.59999847412109375</AltitudeMeters>
            <DistanceMeters>NAN</DistanceMeters>
          </Trackpoint>
          <Trackpoint>
            <Time>2021-08-10T11:54:38.000Z</Time>
            <Position>
              <LatitudeDegrees>43.19023336283862590789794921875</LatitudeDegrees>
              <LongitudeDegrees>-1.6686023958027362823486328125</LongitudeDegrees>
            </Position>
            <AltitudeMeters>109.8000030517578125</AltitudeMeters>
            <DistanceMeters>NAN</DistanceMeters>
          </Trackpoint>
          <Trackpoint>
            <Time>2021-08-10T11:54:41.000Z</Time>
            <Position>
              <LatitudeDegrees>43.190221376717090606689453125</LatitudeDegrees>
              <LongitudeDegrees>-1.66843299753963947296142578125</LongitudeDegrees>
            </Position>
            <AltitudeMeters>109.8000030517578125</AltitudeMeters>
            <DistanceMeters>NAN</DistanceMeters>
          </Trackpoint>
          <Trackpoint>
            <Time>2021-08-10T11:54:42.000Z</Time>
            <Position>
              <LatitudeDegrees>43.1902191974222660064697265625</LatitudeDegrees>
              <LongitudeDegrees>-1.668393351137638092041015625</LongitudeDegrees>
            </Position>
            <AltitudeMeters>109.8000030517578125</AltitudeMeters>
            <DistanceMeters>NAN</DistanceMeters>
          </Trackpoint>
          <Trackpoint>
            <Time>2021-08-10T11:54:43.000Z</Time>
            <Position>
              <LatitudeDegrees>43.19021911360323429107666015625</LatitudeDegrees>
              <LongitudeDegrees>-1.6683542914688587188720703125</LongitudeDegrees>
            </Position>
            <AltitudeMeters>109.8000030517578125</AltitudeMeters>
            <DistanceMeters>NAN</DistanceMeters>
          </Trackpoint>
          <Trackpoint>
            <Time>2021-08-10T11:54:46.000Z</Time>
            <Position>
              <LatitudeDegrees>43.19021123461425304412841796875</LatitudeDegrees>
              <LongitudeDegrees>-1.668183803558349609375</LongitudeDegrees>
            </Position>
            <AltitudeMeters>110</AltitudeMeters>
            <DistanceMeters>NAN</DistanceMeters>
          </Trackpoint>
          <Trackpoint>
            <Time>2021-08-10T11:54:47.000Z</Time>
            <Position>
              <LatitudeDegrees>43.19021089933812618255615234375</LatitudeDegrees>
              <LongitudeDegrees>-1.668117083609104156494140625</LongitudeDegrees>
            </Position>
            <AltitudeMeters>110</AltitudeMeters>
            <DistanceMeters>NAN</DistanceMeters>
          </Trackpoint>
          <Trackpoint>
            <Time>2021-08-10T11:54:48.000Z</Time>
            <Position>
              <LatitudeDegrees>43.19021559320390224456787109375</LatitudeDegrees>
              <LongitudeDegrees>-1.66804910637438297271728515625</LongitudeDegrees>
            </Position>
            <AltitudeMeters>110</AltitudeMeters>
            <DistanceMeters>NAN</DistanceMeters>
          </Trackpoint>
          <Trackpoint>
            <Time>2021-08-10T11:54:49.000Z</Time>
            <Position>
              <LatitudeDegrees>43.1902248971164226531982421875</LatitudeDegrees>
              <LongitudeDegrees>-1.667980290949344635009765625</LongitudeDegrees>
            </Position>
            <AltitudeMeters>110</AltitudeMeters>
            <DistanceMeters>NAN</DistanceMeters>
          </Trackpoint>
          <Trackpoint>
            <Time>2021-08-10T11:54:51.000Z</Time>
            <Position>
              <LatitudeDegrees>43.19024962373077869415283203125</LatitudeDegrees>
              <LongitudeDegrees>-1.66786235757172107696533203125</LongitudeDegrees>
            </Position>
            <AltitudeMeters>110</AltitudeMeters>
            <DistanceMeters>NAN</DistanceMeters>
          </Trackpoint>
          <Trackpoint>
            <Time>2021-08-10T11:54:52.000Z</Time>
            <Position>
              <LatitudeDegrees>43.1902599334716796875</LatitudeDegrees>
              <LongitudeDegrees>-1.66780619882047176361083984375</LongitudeDegrees>
            </Position>
            <AltitudeMeters>110</AltitudeMeters>
            <DistanceMeters>NAN</DistanceMeters>
          </Trackpoint>
          <Trackpoint>
            <Time>2021-08-10T11:54:55.000Z</Time>
            <Position>
              <LatitudeDegrees>43.190313912928104400634765625</LatitudeDegrees>
              <LongitudeDegrees>-1.6676485352218151092529296875</LongitudeDegrees>
            </Position>
            <AltitudeMeters>109.8000030517578125</AltitudeMeters>
            <DistanceMeters>NAN</DistanceMeters>
          </Trackpoint>
          <Trackpoint>
            <Time>2021-08-10T11:54:56.000Z</Time>
            <Position>
              <LatitudeDegrees>43.19033495150506496429443359375</LatitudeDegrees>
              <LongitudeDegrees>-1.6676032729446887969970703125</LongitudeDegrees>
            </Position>
            <AltitudeMeters>109.8000030517578125</AltitudeMeters>
            <DistanceMeters>NAN</DistanceMeters>
          </Trackpoint>
          <Trackpoint>
            <Time>2021-08-10T11:54:57.000Z</Time>
            <Position>
              <LatitudeDegrees>43.19035448133945465087890625</LatitudeDegrees>
              <LongitudeDegrees>-1.66755692102015018463134765625</LongitudeDegrees>
            </Position>
            <AltitudeMeters>109.8000030517578125</AltitudeMeters>
            <DistanceMeters>NAN</DistanceMeters>
          </Trackpoint>
          <Trackpoint>
            <Time>2021-08-10T11:54:58.000Z</Time>
            <Position>
              <LatitudeDegrees>43.19037585519254207611083984375</LatitudeDegrees>
              <LongitudeDegrees>-1.66751392185688018798828125</LongitudeDegrees>
            </Position>
            <AltitudeMeters>109.8000030517578125</AltitudeMeters>
            <DistanceMeters>NAN</DistanceMeters>
          </Trackpoint>
          <Trackpoint>
            <Time>2021-08-10T11:54:59.000Z</Time>
            <Position>
              <LatitudeDegrees>43.1904005818068981170654296875</LatitudeDegrees>
              <LongitudeDegrees>-1.66747226379811763763427734375</LongitudeDegrees>
            </Position>
            <AltitudeMeters>109.8000030517578125</AltitudeMeters>
            <DistanceMeters>NAN</DistanceMeters>
          </Trackpoint>
          <Trackpoint>
            <Time>2021-08-10T11:55:02.000Z</Time>
            <Position>
              <LatitudeDegrees>43.1904758512973785400390625</LatitudeDegrees>
              <LongitudeDegrees>-1.6673353873193264007568359375</LongitudeDegrees>
            </Position>
            <AltitudeMeters>110</AltitudeMeters>
            <DistanceMeters>NAN</DistanceMeters>
          </Trackpoint>
          <Trackpoint>
            <Time>2021-08-10T11:55:03.000Z</Time>
            <Position>
              <LatitudeDegrees>43.19049722515046596527099609375</LatitudeDegrees>
              <LongitudeDegrees>-1.66730160824954509735107421875</LongitudeDegrees>
            </Position>
            <AltitudeMeters>110</AltitudeMeters>
            <DistanceMeters>NAN</DistanceMeters>
          </Trackpoint>
          <Trackpoint>
            <Time>2021-08-10T11:55:06.000Z</Time>
            <Position>
              <LatitudeDegrees>43.1905863247811794281005859375</LatitudeDegrees>
              <LongitudeDegrees>-1.66717219166457653045654296875</LongitudeDegrees>
            </Position>
            <AltitudeMeters>110</AltitudeMeters>
            <DistanceMeters>NAN</DistanceMeters>
          </Trackpoint>
          <Trackpoint>
            <Time>2021-08-10T11:55:07.000Z</Time>
            <Position>
              <LatitudeDegrees>43.19061557762324810028076171875</LatitudeDegrees>
              <LongitudeDegrees>-1.66713480837643146514892578125</LongitudeDegrees>
            </Position>
            <AltitudeMeters>110</AltitudeMeters>
            <DistanceMeters>NAN</DistanceMeters>
          </Trackpoint>
          <Trackpoint>
            <Time>2021-08-10T11:55:13.000Z</Time>
            <Position>
              <LatitudeDegrees>43.19082378409802913665771484375</LatitudeDegrees>
              <LongitudeDegrees>-1.66693464852869510650634765625</LongitudeDegrees>
            </Position>
            <AltitudeMeters>110</AltitudeMeters>
            <DistanceMeters>NAN</DistanceMeters>
          </Trackpoint>
          <Trackpoint>
            <Time>2021-08-10T11:55:15.000Z</Time>
            <Position>
              <LatitudeDegrees>43.19089519791305065155029296875</LatitudeDegrees>
              <LongitudeDegrees>-1.6668867878615856170654296875</LongitudeDegrees>
            </Position>
            <AltitudeMeters>110</AltitudeMeters>
            <DistanceMeters>NAN</DistanceMeters>
          </Trackpoint>
          <Trackpoint>
            <Time>2021-08-10T11:55:19.000Z</Time>
            <Position>
              <LatitudeDegrees>43.1910536997020244598388671875</LatitudeDegrees>
              <LongitudeDegrees>-1.66683456860482692718505859375</LongitudeDegrees>
            </Position>
            <AltitudeMeters>109.8000030517578125</AltitudeMeters>
            <DistanceMeters>NAN</DistanceMeters>
          </Trackpoint>
          <Trackpoint>
            <Time>2021-08-10T11:55:22.000Z</Time>
            <Position>
              <LatitudeDegrees>43.19117666222155094146728515625</LatitudeDegrees>
              <LongitudeDegrees>-1.6667996160686016082763671875</LongitudeDegrees>
            </Position>
            <AltitudeMeters>109.8000030517578125</AltitudeMeters>
            <DistanceMeters>NAN</DistanceMeters>
          </Trackpoint>
          <Trackpoint>
            <Time>2021-08-10T11:55:28.000Z</Time>
            <Position>
              <LatitudeDegrees>43.19142929278314113616943359375</LatitudeDegrees>
              <LongitudeDegrees>-1.66671336628496646881103515625</LongitudeDegrees>
            </Position>
            <AltitudeMeters>109.8000030517578125</AltitudeMeters>
            <DistanceMeters>NAN</DistanceMeters>
          </Trackpoint>
          <Trackpoint>
            <Time>2021-08-10T11:55:36.000Z</Time>
            <Position>
              <LatitudeDegrees>43.1917396746575832366943359375</LatitudeDegrees>
              <LongitudeDegrees>-1.66655947454273700714111328125</LongitudeDegrees>
            </Position>
            <AltitudeMeters>109.1999969482421875</AltitudeMeters>
            <DistanceMeters>NAN</DistanceMeters>
          </Trackpoint>
          <Trackpoint>
            <Time>2021-08-10T11:55:37.000Z</Time>
            <Position>
              <LatitudeDegrees>43.19177831523120403289794921875</LatitudeDegrees>
              <LongitudeDegrees>-1.66654698550701141357421875</LongitudeDegrees>
            </Position>
            <AltitudeMeters>109.1999969482421875</AltitudeMeters>
            <DistanceMeters>NAN</DistanceMeters>
          </Trackpoint>
          <Trackpoint>
            <Time>2021-08-10T11:55:42.000Z</Time>
            <Position>
              <LatitudeDegrees>43.1919817440211772918701171875</LatitudeDegrees>
              <LongitudeDegrees>-1.66647464968264102935791015625</LongitudeDegrees>
            </Position>
            <AltitudeMeters>109.40000152587890625</AltitudeMeters>
            <DistanceMeters>NAN</DistanceMeters>
          </Trackpoint>
          <Trackpoint>
            <Time>2021-08-10T11:55:43.000Z</Time>
            <Position>
              <LatitudeDegrees>43.1920159421861171722412109375</LatitudeDegrees>
              <LongitudeDegrees>-1.66645989753305912017822265625</LongitudeDegrees>
            </Position>
            <AltitudeMeters>109.40000152587890625</AltitudeMeters>
            <DistanceMeters>NAN</DistanceMeters>
          </Trackpoint>
          <Trackpoint>
            <Time>2021-08-10T11:55:44.000Z</Time>
            <Position>
              <LatitudeDegrees>43.19205039180815219879150390625</LatitudeDegrees>
              <LongitudeDegrees>-1.66644698940217494964599609375</LongitudeDegrees>
            </Position>
            <AltitudeMeters>109.40000152587890625</AltitudeMeters>
            <DistanceMeters>NAN</DistanceMeters>
          </Trackpoint>
          <Trackpoint>
            <Time>2021-08-10T11:55:45.000Z</Time>
            <Position>
              <LatitudeDegrees>43.19208458997309207916259765625</LatitudeDegrees>
              <LongitudeDegrees>-1.66643257252871990203857421875</LongitudeDegrees>
            </Position>
            <AltitudeMeters>109.59999847412109375</AltitudeMeters>
            <DistanceMeters>NAN</DistanceMeters>
          </Trackpoint>
          <Trackpoint>
            <Time>2021-08-10T11:55:46.000Z</Time>
            <Position>
              <LatitudeDegrees>43.192116357386112213134765625</LatitudeDegrees>
              <LongitudeDegrees>-1.6664122045040130615234375</LongitudeDegrees>
            </Position>
            <AltitudeMeters>109.59999847412109375</AltitudeMeters>
            <DistanceMeters>NAN</DistanceMeters>
          </Trackpoint>
          <Trackpoint>
            <Time>2021-08-10T11:55:47.000Z</Time>
            <Position>
              <LatitudeDegrees>43.192147873342037200927734375</LatitudeDegrees>
              <LongitudeDegrees>-1.66639166884124279022216796875</LongitudeDegrees>
            </Position>
            <AltitudeMeters>109.59999847412109375</AltitudeMeters>
            <DistanceMeters>NAN</DistanceMeters>
          </Trackpoint>
          <Trackpoint>
            <Time>2021-08-10T11:55:48.000Z</Time>
            <Position>
              <LatitudeDegrees>43.1921815685927867889404296875</LatitudeDegrees>
              <LongitudeDegrees>-1.66637658141553401947021484375</LongitudeDegrees>
            </Position>
            <AltitudeMeters>109.59999847412109375</AltitudeMeters>
            <DistanceMeters>NAN</DistanceMeters>
          </Trackpoint>
          <Trackpoint>
            <Time>2021-08-10T11:55:49.000Z</Time>
            <Position>
              <LatitudeDegrees>43.1922154314815998077392578125</LatitudeDegrees>
              <LongitudeDegrees>-1.66635847650468349456787109375</LongitudeDegrees>
            </Position>
            <AltitudeMeters>109.59999847412109375</AltitudeMeters>
            <DistanceMeters>NAN</DistanceMeters>
          </Trackpoint>
          <Trackpoint>
            <Time>2021-08-10T11:55:50.000Z</Time>
            <Position>
              <LatitudeDegrees>43.19225080311298370361328125</LatitudeDegrees>
              <LongitudeDegrees>-1.6663424670696258544921875</LongitudeDegrees>
            </Position>
            <AltitudeMeters>109.59999847412109375</AltitudeMeters>
            <DistanceMeters>NAN</DistanceMeters>
          </Trackpoint>
          <Trackpoint>
            <Time>2021-08-10T11:55:51.000Z</Time>
            <Position>
              <LatitudeDegrees>43.19228743202984333038330078125</LatitudeDegrees>
              <LongitudeDegrees>-1.66632595472037792205810546875</LongitudeDegrees>
            </Position>
            <AltitudeMeters>109.59999847412109375</AltitudeMeters>
            <DistanceMeters>NAN</DistanceMeters>
          </Trackpoint>
          <Trackpoint>
            <Time>2021-08-10T11:55:56.000Z</Time>
            <Position>
              <LatitudeDegrees>43.19248340092599391937255859375</LatitudeDegrees>
              <LongitudeDegrees>-1.666251607239246368408203125</LongitudeDegrees>
            </Position>
            <AltitudeMeters>109.40000152587890625</AltitudeMeters>
            <DistanceMeters>NAN</DistanceMeters>
          </Trackpoint>
          <Trackpoint>
            <Time>2021-08-10T11:56:04.000Z</Time>
            <Position>
              <LatitudeDegrees>43.192776180803775787353515625</LatitudeDegrees>
              <LongitudeDegrees>-1.6660817898809909820556640625</LongitudeDegrees>
            </Position>
            <AltitudeMeters>108.59999847412109375</AltitudeMeters>
            <DistanceMeters>NAN</DistanceMeters>
          </Trackpoint>
          <Trackpoint>
            <Time>2021-08-10T11:56:05.000Z</Time>
            <Position>
              <LatitudeDegrees>43.1928071938455104827880859375</LatitudeDegrees>
              <LongitudeDegrees>-1.66606376878917217254638671875</LongitudeDegrees>
            </Position>
            <AltitudeMeters>108.59999847412109375</AltitudeMeters>
            <DistanceMeters>NAN</DistanceMeters>
          </Trackpoint>
          <Trackpoint>
            <Time>2021-08-10T11:56:07.000Z</Time>
            <Position>
              <LatitudeDegrees>43.19286947138607501983642578125</LatitudeDegrees>
              <LongitudeDegrees>-1.66602387093007564544677734375</LongitudeDegrees>
            </Position>
            <AltitudeMeters>108.59999847412109375</AltitudeMeters>
            <DistanceMeters>NAN</DistanceMeters>
          </Trackpoint>
          <Trackpoint>
            <Time>2021-08-10T11:56:08.000Z</Time>
            <Position>
              <LatitudeDegrees>43.19290249608457088470458984375</LatitudeDegrees>
              <LongitudeDegrees>-1.66600090451538562774658203125</LongitudeDegrees>
            </Position>
            <AltitudeMeters>108.59999847412109375</AltitudeMeters>
            <DistanceMeters>NAN</DistanceMeters>
          </Trackpoint>
          <Trackpoint>
            <Time>2021-08-10T11:56:09.000Z</Time>
            <Position>
              <LatitudeDegrees>43.19293568842113018035888671875</LatitudeDegrees>
              <LongitudeDegrees>-1.6659765131771564483642578125</LongitudeDegrees>
            </Position>
            <AltitudeMeters>108.59999847412109375</AltitudeMeters>
            <DistanceMeters>NAN</DistanceMeters>
          </Trackpoint>
          <Trackpoint>
            <Time>2021-08-10T11:56:10.000Z</Time>
            <Position>
              <LatitudeDegrees>43.19296670146286487579345703125</LatitudeDegrees>
              <LongitudeDegrees>-1.66595798917114734649658203125</LongitudeDegrees>
            </Position>
            <AltitudeMeters>108.59999847412109375</AltitudeMeters>
            <DistanceMeters>NAN</DistanceMeters>
          </Trackpoint>
          <Trackpoint>
            <Time>2021-08-10T11:56:11.000Z</Time>
            <Position>
              <LatitudeDegrees>43.19300115108489990234375</LatitudeDegrees>
              <LongitudeDegrees>-1.66594357229769229888916015625</LongitudeDegrees>
            </Position>
            <AltitudeMeters>108.59999847412109375</AltitudeMeters>
            <DistanceMeters>NAN</DistanceMeters>
          </Trackpoint>
          <Trackpoint>
            <Time>2021-08-10T11:56:12.000Z</Time>
            <Position>
              <LatitudeDegrees>43.1930368579924106597900390625</LatitudeDegrees>
              <LongitudeDegrees>-1.66592412628233432769775390625</LongitudeDegrees>
            </Position>
            <AltitudeMeters>108.59999847412109375</AltitudeMeters>
            <DistanceMeters>NAN</DistanceMeters>
          </Trackpoint>
          <Trackpoint>
            <Time>2021-08-10T11:56:18.000Z</Time>
            <Position>
              <LatitudeDegrees>43.19327683188021183013916015625</LatitudeDegrees>
              <LongitudeDegrees>-1.6657684743404388427734375</LongitudeDegrees>
            </Position>
            <AltitudeMeters>108.59999847412109375</AltitudeMeters>
            <DistanceMeters>NAN</DistanceMeters>
          </Trackpoint>
          <Trackpoint>
            <Time>2021-08-10T11:56:19.000Z</Time>
            <Position>
              <LatitudeDegrees>43.19331924431025981903076171875</LatitudeDegrees>
              <LongitudeDegrees>-1.66574944742023944854736328125</LongitudeDegrees>
            </Position>
            <AltitudeMeters>108.59999847412109375</AltitudeMeters>
            <DistanceMeters>NAN</DistanceMeters>
          </Trackpoint>
          <Trackpoint>
            <Time>2021-08-10T11:56:20.000Z</Time>
            <Position>
              <LatitudeDegrees>43.1933593936264514923095703125</LatitudeDegrees>
              <LongitudeDegrees>-1.66573720984160900115966796875</LongitudeDegrees>
            </Position>
            <AltitudeMeters>108.59999847412109375</AltitudeMeters>
            <DistanceMeters>NAN</DistanceMeters>
          </Trackpoint>
          <Trackpoint>
            <Time>2021-08-10T11:56:21.000Z</Time>
            <Position>
              <LatitudeDegrees>43.1933969445526599884033203125</LatitudeDegrees>
              <LongitudeDegrees>-1.6657290793955326080322265625</LongitudeDegrees>
            </Position>
            <AltitudeMeters>108.59999847412109375</AltitudeMeters>
            <DistanceMeters>NAN</DistanceMeters>
          </Trackpoint>
          <Trackpoint>
            <Time>2021-08-10T11:56:22.000Z</Time>
            <Position>
              <LatitudeDegrees>43.193434663116931915283203125</LatitudeDegrees>
              <LongitudeDegrees>-1.6657126508653163909912109375</LongitudeDegrees>
            </Position>
            <AltitudeMeters>108.59999847412109375</AltitudeMeters>
            <DistanceMeters>NAN</DistanceMeters>
          </Trackpoint>
          <Trackpoint>
            <Time>2021-08-10T11:56:23.000Z</Time>
            <Position>
              <LatitudeDegrees>43.19347464479506015777587890625</LatitudeDegrees>
              <LongitudeDegrees>-1.66570384986698627471923828125</LongitudeDegrees>
            </Position>
            <AltitudeMeters>108.40000152587890625</AltitudeMeters>
            <DistanceMeters>NAN</DistanceMeters>
          </Trackpoint>
          <Trackpoint>
            <Time>2021-08-10T11:56:26.000Z</Time>
            <Position>
              <LatitudeDegrees>43.1936033070087432861328125</LatitudeDegrees>
              <LongitudeDegrees>-1.66565808467566967010498046875</LongitudeDegrees>
            </Position>
            <AltitudeMeters>108</AltitudeMeters>
            <DistanceMeters>NAN</DistanceMeters>
          </Trackpoint>
          <Trackpoint>
            <Time>2021-08-10T11:56:27.000Z</Time>
            <Position>
              <LatitudeDegrees>43.19364731200039386749267578125</LatitudeDegrees>
              <LongitudeDegrees>-1.66564987041056156158447265625</LongitudeDegrees>
            </Position>
            <AltitudeMeters>107.8000030517578125</AltitudeMeters>
            <DistanceMeters>NAN</DistanceMeters>
          </Trackpoint>
          <Trackpoint>
            <Time>2021-08-10T11:56:28.000Z</Time>
            <Position>
              <LatitudeDegrees>43.19369626231491565704345703125</LatitudeDegrees>
              <LongitudeDegrees>-1.66563495062291622161865234375</LongitudeDegrees>
            </Position>
            <AltitudeMeters>107.8000030517578125</AltitudeMeters>
            <DistanceMeters>NAN</DistanceMeters>
          </Trackpoint>
          <Trackpoint>
            <Time>2021-08-10T11:56:29.000Z</Time>
            <Position>
              <LatitudeDegrees>43.19373540580272674560546875</LatitudeDegrees>
              <LongitudeDegrees>-1.6656278260052204132080078125</LongitudeDegrees>
            </Position>
            <AltitudeMeters>107.59999847412109375</AltitudeMeters>
            <DistanceMeters>NAN</DistanceMeters>
          </Trackpoint>
          <Trackpoint>
            <Time>2021-08-10T11:56:30.000Z</Time>
            <Position>
              <LatitudeDegrees>43.19377538748085498809814453125</LatitudeDegrees>
              <LongitudeDegrees>-1.66561449877917766571044921875</LongitudeDegrees>
            </Position>
            <AltitudeMeters>107.40000152587890625</AltitudeMeters>
            <DistanceMeters>NAN</DistanceMeters>
          </Trackpoint>
          <Trackpoint>
            <Time>2021-08-10T11:56:31.000Z</Time>
            <Position>
              <LatitudeDegrees>43.193822912871837615966796875</LatitudeDegrees>
              <LongitudeDegrees>-1.66559320874512195587158203125</LongitudeDegrees>
            </Position>
            <AltitudeMeters>107.40000152587890625</AltitudeMeters>
            <DistanceMeters>NAN</DistanceMeters>
          </Trackpoint>
          <Trackpoint>
            <Time>2021-08-10T11:56:33.000Z</Time>
            <Position>
              <LatitudeDegrees>43.19392726756632328033447265625</LatitudeDegrees>
              <LongitudeDegrees>-1.665585748851299285888671875</LongitudeDegrees>
            </Position>
            <AltitudeMeters>107.40000152587890625</AltitudeMeters>
            <DistanceMeters>NAN</DistanceMeters>
          </Trackpoint>
          <Trackpoint>
            <Time>2021-08-10T11:56:41.000Z</Time>
            <Position>
              <LatitudeDegrees>43.19429690949618816375732421875</LatitudeDegrees>
              <LongitudeDegrees>-1.66549480520188808441162109375</LongitudeDegrees>
            </Position>
            <AltitudeMeters>107</AltitudeMeters>
            <DistanceMeters>NAN</DistanceMeters>
          </Trackpoint>
          <Trackpoint>
            <Time>2021-08-10T11:56:42.000Z</Time>
            <Position>
              <LatitudeDegrees>43.19434971548616886138916015625</LatitudeDegrees>
              <LongitudeDegrees>-1.6654873453080654144287109375</LongitudeDegrees>
            </Position>
            <AltitudeMeters>107.1999969482421875</AltitudeMeters>
            <DistanceMeters>NAN</DistanceMeters>
          </Trackpoint>
          <Trackpoint>
            <Time>2021-08-10T11:56:43.000Z</Time>
            <Position>
              <LatitudeDegrees>43.1943947263062000274658203125</LatitudeDegrees>
              <LongitudeDegrees>-1.66549346409738063812255859375</LongitudeDegrees>
            </Position>
            <AltitudeMeters>107.1999969482421875</AltitudeMeters>
            <DistanceMeters>NAN</DistanceMeters>
          </Trackpoint>
          <Trackpoint>
            <Time>2021-08-10T11:56:44.000Z</Time>
            <Position>
              <LatitudeDegrees>43.19444124586880207061767578125</LatitudeDegrees>
              <LongitudeDegrees>-1.66552011854946613311767578125</LongitudeDegrees>
            </Position>
            <AltitudeMeters>107</AltitudeMeters>
            <DistanceMeters>NAN</DistanceMeters>
          </Trackpoint>
          <Trackpoint>
            <Time>2021-08-10T11:56:45.000Z</Time>
            <Position>
              <LatitudeDegrees>43.19447326473891735076904296875</LatitudeDegrees>
              <LongitudeDegrees>-1.66554325260221958160400390625</LongitudeDegrees>
            </Position>
            <AltitudeMeters>107</AltitudeMeters>
            <DistanceMeters>NAN</DistanceMeters>
          </Trackpoint>
          <Trackpoint>
            <Time>2021-08-10T11:56:46.000Z</Time>
            <Position>
              <LatitudeDegrees>43.1944976560771465301513671875</LatitudeDegrees>
              <LongitudeDegrees>-1.66556395590305328369140625</LongitudeDegrees>
            </Position>
            <AltitudeMeters>107</AltitudeMeters>
            <DistanceMeters>NAN</DistanceMeters>
          </Trackpoint>
          <Trackpoint>
            <Time>2021-08-10T11:56:47.000Z</Time>
            <Position>
              <LatitudeDegrees>43.19453696720302104949951171875</LatitudeDegrees>
              <LongitudeDegrees>-1.665556244552135467529296875</LongitudeDegrees>
            </Position>
            <AltitudeMeters>107</AltitudeMeters>
            <DistanceMeters>NAN</DistanceMeters>
          </Trackpoint>
          <Trackpoint>
            <Time>2021-08-10T11:56:48.000Z</Time>
            <Position>
              <LatitudeDegrees>43.194567896425724029541015625</LatitudeDegrees>
              <LongitudeDegrees>-1.665630005300045013427734375</LongitudeDegrees>
            </Position>
            <AltitudeMeters>107</AltitudeMeters>
            <DistanceMeters>NAN</DistanceMeters>
          </Trackpoint>
          <Trackpoint>
            <Time>2021-08-10T11:56:49.000Z</Time>
            <Position>
              <LatitudeDegrees>43.194571249186992645263671875</LatitudeDegrees>
              <LongitudeDegrees>-1.665678285062313079833984375</LongitudeDegrees>
            </Position>
            <AltitudeMeters>106.8000030517578125</AltitudeMeters>
            <DistanceMeters>NAN</DistanceMeters>
          </Trackpoint>
          <Trackpoint>
            <Time>2021-08-10T11:56:50.000Z</Time>
            <Position>
              <LatitudeDegrees>43.19455959834158420562744140625</LatitudeDegrees>
              <LongitudeDegrees>-1.665740311145782470703125</LongitudeDegrees>
            </Position>
            <AltitudeMeters>106.8000030517578125</AltitudeMeters>
            <DistanceMeters>NAN</DistanceMeters>
          </Trackpoint>
          <Trackpoint>
            <Time>2021-08-10T11:56:51.000Z</Time>
            <Position>
              <LatitudeDegrees>43.19456496275961399078369140625</LatitudeDegrees>
              <LongitudeDegrees>-1.66579789482057094573974609375</LongitudeDegrees>
            </Position>
            <AltitudeMeters>106.8000030517578125</AltitudeMeters>
            <DistanceMeters>NAN</DistanceMeters>
          </Trackpoint>
          <Trackpoint>
            <Time>2021-08-10T11:56:53.000Z</Time>
            <Position>
              <LatitudeDegrees>43.19457116536796092987060546875</LatitudeDegrees>
              <LongitudeDegrees>-1.6659175045788288116455078125</LongitudeDegrees>
            </Position>
            <AltitudeMeters>106.8000030517578125</AltitudeMeters>
            <DistanceMeters>NAN</DistanceMeters>
          </Trackpoint>
          <Trackpoint>
            <Time>2021-08-10T11:56:56.000Z</Time>
            <Position>
              <LatitudeDegrees>43.19458323530852794647216796875</LatitudeDegrees>
              <LongitudeDegrees>-1.66608841158449649810791015625</LongitudeDegrees>
            </Position>
            <AltitudeMeters>106.8000030517578125</AltitudeMeters>
            <DistanceMeters>NAN</DistanceMeters>
          </Trackpoint>
          <Trackpoint>
            <Time>2021-08-10T11:56:57.000Z</Time>
            <Position>
              <LatitudeDegrees>43.1945891864597797393798828125</LatitudeDegrees>
              <LongitudeDegrees>-1.66614758782088756561279296875</LongitudeDegrees>
            </Position>
            <AltitudeMeters>106.59999847412109375</AltitudeMeters>
            <DistanceMeters>NAN</DistanceMeters>
          </Trackpoint>
          <Trackpoint>
            <Time>2021-08-10T11:57:01.000Z</Time>
            <Position>
              <LatitudeDegrees>43.19464123807847499847412109375</LatitudeDegrees>
              <LongitudeDegrees>-1.6663791798055171966552734375</LongitudeDegrees>
            </Position>
            <AltitudeMeters>106.59999847412109375</AltitudeMeters>
            <DistanceMeters>NAN</DistanceMeters>
          </Trackpoint>
          <Trackpoint>
            <Time>2021-08-10T11:57:05.000Z</Time>
            <Position>
              <LatitudeDegrees>43.19471583701670169830322265625</LatitudeDegrees>
              <LongitudeDegrees>-1.6666178964078426361083984375</LongitudeDegrees>
            </Position>
            <AltitudeMeters>106.59999847412109375</AltitudeMeters>
            <DistanceMeters>NAN</DistanceMeters>
          </Trackpoint>
          <Trackpoint>
            <Time>2021-08-10T11:57:08.000Z</Time>
            <Position>
              <LatitudeDegrees>43.19475003518164157867431640625</LatitudeDegrees>
              <LongitudeDegrees>-1.6668039746582508087158203125</LongitudeDegrees>
            </Position>
            <AltitudeMeters>106.40000152587890625</AltitudeMeters>
            <DistanceMeters>NAN</DistanceMeters>
          </Trackpoint>
          <Trackpoint>
            <Time>2021-08-10T11:57:11.000Z</Time>
            <Position>
              <LatitudeDegrees>43.19476294331252574920654296875</LatitudeDegrees>
              <LongitudeDegrees>-1.666999943554401397705078125</LongitudeDegrees>
            </Position>
            <AltitudeMeters>106.1999969482421875</AltitudeMeters>
            <DistanceMeters>NAN</DistanceMeters>
          </Trackpoint>
          <Trackpoint>
            <Time>2021-08-10T11:57:13.000Z</Time>
            <Position>
              <LatitudeDegrees>43.1947554834187030792236328125</LatitudeDegrees>
              <LongitudeDegrees>-1.66714536957442760467529296875</LongitudeDegrees>
            </Position>
            <AltitudeMeters>106.1999969482421875</AltitudeMeters>
            <DistanceMeters>NAN</DistanceMeters>
          </Trackpoint>
          <Trackpoint>
            <Time>2021-08-10T11:57:14.000Z</Time>
            <Position>
              <LatitudeDegrees>43.19475196301937103271484375</LatitudeDegrees>
              <LongitudeDegrees>-1.66718937456607818603515625</LongitudeDegrees>
            </Position>
            <AltitudeMeters>106</AltitudeMeters>
            <DistanceMeters>NAN</DistanceMeters>
          </Trackpoint>
          <Trackpoint>
            <Time>2021-08-10T11:57:21.000Z</Time>
            <Position>
              <LatitudeDegrees>43.194741569459438323974609375</LatitudeDegrees>
              <LongitudeDegrees>-1.6676401533186435699462890625</LongitudeDegrees>
            </Position>
            <AltitudeMeters>105.40000152587890625</AltitudeMeters>
            <DistanceMeters>NAN</DistanceMeters>
          </Trackpoint>
          <Trackpoint>
            <Time>2021-08-10T11:57:26.000Z</Time>
            <Position>
              <LatitudeDegrees>43.19472438655793666839599609375</LatitudeDegrees>
              <LongitudeDegrees>-1.6679405607283115386962890625</LongitudeDegrees>
            </Position>
            <AltitudeMeters>105.1999969482421875</AltitudeMeters>
            <DistanceMeters>NAN</DistanceMeters>
          </Trackpoint>
          <Trackpoint>
            <Time>2021-08-10T11:57:27.000Z</Time>
            <Position>
              <LatitudeDegrees>43.1947219558060169219970703125</LatitudeDegrees>
              <LongitudeDegrees>-1.6679925285279750823974609375</LongitudeDegrees>
            </Position>
            <AltitudeMeters>105.1999969482421875</AltitudeMeters>
            <DistanceMeters>NAN</DistanceMeters>
          </Trackpoint>
          <Trackpoint>
            <Time>2021-08-10T11:57:28.000Z</Time>
            <Position>
              <LatitudeDegrees>43.19472069852054119110107421875</LatitudeDegrees>
              <LongitudeDegrees>-1.668047010898590087890625</LongitudeDegrees>
            </Position>
            <AltitudeMeters>105.1999969482421875</AltitudeMeters>
            <DistanceMeters>NAN</DistanceMeters>
          </Trackpoint>
          <Trackpoint>
            <Time>2021-08-10T11:57:29.000Z</Time>
            <Position>
              <LatitudeDegrees>43.19472271017730236053466796875</LatitudeDegrees>
              <LongitudeDegrees>-1.6681149043142795562744140625</LongitudeDegrees>
            </Position>
            <AltitudeMeters>105.1999969482421875</AltitudeMeters>
            <DistanceMeters>NAN</DistanceMeters>
          </Trackpoint>
          <Trackpoint>
            <Time>2021-08-10T11:57:31.000Z</Time>
            <Position>
              <LatitudeDegrees>43.19472187198698520660400390625</LatitudeDegrees>
              <LongitudeDegrees>-1.66821205057203769683837890625</LongitudeDegrees>
            </Position>
            <AltitudeMeters>105</AltitudeMeters>
            <DistanceMeters>NAN</DistanceMeters>
          </Trackpoint>
          <Trackpoint>
            <Time>2021-08-10T11:57:33.000Z</Time>
            <Position>
              <LatitudeDegrees>43.19472472183406352996826171875</LatitudeDegrees>
              <LongitudeDegrees>-1.6683351807296276092529296875</LongitudeDegrees>
            </Position>
            <AltitudeMeters>104.8000030517578125</AltitudeMeters>
            <DistanceMeters>NAN</DistanceMeters>
          </Trackpoint>
          <Trackpoint>
            <Time>2021-08-10T11:57:35.000Z</Time>
            <Position>
              <LatitudeDegrees>43.19472388364374637603759765625</LatitudeDegrees>
              <LongitudeDegrees>-1.6684277169406414031982421875</LongitudeDegrees>
            </Position>
            <AltitudeMeters>104.8000030517578125</AltitudeMeters>
            <DistanceMeters>NAN</DistanceMeters>
          </Trackpoint>
          <Trackpoint>
            <Time>2021-08-10T11:57:36.000Z</Time>
            <Position>
              <LatitudeDegrees>43.19472019560635089874267578125</LatitudeDegrees>
              <LongitudeDegrees>-1.66847960092127323150634765625</LongitudeDegrees>
            </Position>
            <AltitudeMeters>104.8000030517578125</AltitudeMeters>
            <DistanceMeters>NAN</DistanceMeters>
          </Trackpoint>
          <Trackpoint>
            <Time>2021-08-10T11:57:38.000Z</Time>
            <Position>
              <LatitudeDegrees>43.19471617229282855987548828125</LatitudeDegrees>
              <LongitudeDegrees>-1.66859007440507411956787109375</LongitudeDegrees>
            </Position>
            <AltitudeMeters>104.8000030517578125</AltitudeMeters>
            <DistanceMeters>NAN</DistanceMeters>
          </Trackpoint>
          <Trackpoint>
            <Time>2021-08-10T11:57:39.000Z</Time>
            <Position>
              <LatitudeDegrees>43.19471281953155994415283203125</LatitudeDegrees>
              <LongitudeDegrees>-1.66864874772727489471435546875</LongitudeDegrees>
            </Position>
            <AltitudeMeters>104.8000030517578125</AltitudeMeters>
            <DistanceMeters>NAN</DistanceMeters>
          </Trackpoint>
          <Trackpoint>
            <Time>2021-08-10T11:57:40.000Z</Time>
            <Position>
              <LatitudeDegrees>43.19471399299800395965576171875</LatitudeDegrees>
              <LongitudeDegrees>-1.6686875559389591217041015625</LongitudeDegrees>
            </Position>
            <AltitudeMeters>104.8000030517578125</AltitudeMeters>
            <DistanceMeters>NAN</DistanceMeters>
          </Trackpoint>
          <Trackpoint>
            <Time>2021-08-10T11:57:41.000Z</Time>
            <Position>
              <LatitudeDegrees>43.19471499882638454437255859375</LatitudeDegrees>
              <LongitudeDegrees>-1.66873298585414886474609375</LongitudeDegrees>
            </Position>
            <AltitudeMeters>105</AltitudeMeters>
            <DistanceMeters>NAN</DistanceMeters>
          </Trackpoint>
          <Trackpoint>
            <Time>2021-08-10T11:57:42.000Z</Time>
            <Position>
              <LatitudeDegrees>43.19471466355025768280029296875</LatitudeDegrees>
              <LongitudeDegrees>-1.66877363808453083038330078125</LongitudeDegrees>
            </Position>
            <AltitudeMeters>105</AltitudeMeters>
            <DistanceMeters>NAN</DistanceMeters>
          </Trackpoint>
          <Trackpoint>
            <Time>2021-08-10T11:57:43.000Z</Time>
            <Position>
              <LatitudeDegrees>43.19471684284508228302001953125</LatitudeDegrees>
              <LongitudeDegrees>-1.66881420649588108062744140625</LongitudeDegrees>
            </Position>
            <AltitudeMeters>105</AltitudeMeters>
            <DistanceMeters>NAN</DistanceMeters>
          </Trackpoint>
          <Trackpoint>
            <Time>2021-08-10T11:57:44.000Z</Time>
            <Position>
              <LatitudeDegrees>43.19471734575927257537841796875</LatitudeDegrees>
              <LongitudeDegrees>-1.66886952705681324005126953125</LongitudeDegrees>
            </Position>
            <AltitudeMeters>105</AltitudeMeters>
            <DistanceMeters>NAN</DistanceMeters>
          </Trackpoint>
          <Trackpoint>
            <Time>2021-08-10T11:57:48.000Z</Time>
            <Position>
              <LatitudeDegrees>43.1947175972163677215576171875</LatitudeDegrees>
              <LongitudeDegrees>-1.66908435523509979248046875</LongitudeDegrees>
            </Position>
            <AltitudeMeters>105.1999969482421875</AltitudeMeters>
            <DistanceMeters>NAN</DistanceMeters>
          </Trackpoint>
          <Trackpoint>
            <Time>2021-08-10T11:57:49.000Z</Time>
            <Position>
              <LatitudeDegrees>43.1947216205298900604248046875</LatitudeDegrees>
              <LongitudeDegrees>-1.66913439519703388214111328125</LongitudeDegrees>
            </Position>
            <AltitudeMeters>105.1999969482421875</AltitudeMeters>
            <DistanceMeters>NAN</DistanceMeters>
          </Trackpoint>
          <Trackpoint>
            <Time>2021-08-10T11:57:50.000Z</Time>
            <Position>
              <LatitudeDegrees>43.19472287781536579132080078125</LatitudeDegrees>
              <LongitudeDegrees>-1.66917328722774982452392578125</LongitudeDegrees>
            </Position>
            <AltitudeMeters>105.1999969482421875</AltitudeMeters>
            <DistanceMeters>NAN</DistanceMeters>
          </Trackpoint>
          <Trackpoint>
            <Time>2021-08-10T11:57:51.000Z</Time>
            <Position>
              <LatitudeDegrees>43.19472405128180980682373046875</LatitudeDegrees>
              <LongitudeDegrees>-1.66922206990420818328857421875</LongitudeDegrees>
            </Position>
            <AltitudeMeters>105.1999969482421875</AltitudeMeters>
            <DistanceMeters>NAN</DistanceMeters>
          </Trackpoint>
          <Trackpoint>
            <Time>2021-08-10T11:57:54.000Z</Time>
            <Position>
              <LatitudeDegrees>43.1947393901646137237548828125</LatitudeDegrees>
              <LongitudeDegrees>-1.66937864385545253753662109375</LongitudeDegrees>
            </Position>
            <AltitudeMeters>105.1999969482421875</AltitudeMeters>
            <DistanceMeters>NAN</DistanceMeters>
          </Trackpoint>
          <Trackpoint>
            <Time>2021-08-10T11:57:56.000Z</Time>
            <Position>
              <LatitudeDegrees>43.1947444193065166473388671875</LatitudeDegrees>
              <LongitudeDegrees>-1.66947889141738414764404296875</LongitudeDegrees>
            </Position>
            <AltitudeMeters>105.40000152587890625</AltitudeMeters>
            <DistanceMeters>NAN</DistanceMeters>
          </Trackpoint>
          <Trackpoint>
            <Time>2021-08-10T11:57:57.000Z</Time>
            <Position>
              <LatitudeDegrees>43.19474383257329463958740234375</LatitudeDegrees>
              <LongitudeDegrees>-1.66953387670218944549560546875</LongitudeDegrees>
            </Position>
            <AltitudeMeters>105.40000152587890625</AltitudeMeters>
            <DistanceMeters>NAN</DistanceMeters>
          </Trackpoint>
          <Trackpoint>
            <Time>2021-08-10T11:57:58.000Z</Time>
            <Position>
              <LatitudeDegrees>43.19475439377129077911376953125</LatitudeDegrees>
              <LongitudeDegrees>-1.6696115769445896148681640625</LongitudeDegrees>
            </Position>
            <AltitudeMeters>105.40000152587890625</AltitudeMeters>
            <DistanceMeters>NAN</DistanceMeters>
          </Trackpoint>
          <Trackpoint>
            <Time>2021-08-10T11:58:03.000Z</Time>
            <Position>
              <LatitudeDegrees>43.19479093886911869049072265625</LatitudeDegrees>
              <LongitudeDegrees>-1.66994945146143436431884765625</LongitudeDegrees>
            </Position>
            <AltitudeMeters>105.40000152587890625</AltitudeMeters>
            <DistanceMeters>NAN</DistanceMeters>
          </Trackpoint>
          <Trackpoint>
            <Time>2021-08-10T11:58:06.000Z</Time>
            <Position>
              <LatitudeDegrees>43.19482547231018543243408203125</LatitudeDegrees>
              <LongitudeDegrees>-1.67012781836092472076416015625</LongitudeDegrees>
            </Position>
            <AltitudeMeters>105.1999969482421875</AltitudeMeters>
            <DistanceMeters>NAN</DistanceMeters>
          </Trackpoint>
          <Trackpoint>
            <Time>2021-08-10T11:58:08.000Z</Time>
            <Position>
              <LatitudeDegrees>43.19487132132053375244140625</LatitudeDegrees>
              <LongitudeDegrees>-1.6702284850180149078369140625</LongitudeDegrees>
            </Position>
            <AltitudeMeters>105</AltitudeMeters>
            <DistanceMeters>NAN</DistanceMeters>
          </Trackpoint>
          <Trackpoint>
            <Time>2021-08-10T11:58:09.000Z</Time>
            <Position>
              <LatitudeDegrees>43.194899149239063262939453125</LatitudeDegrees>
              <LongitudeDegrees>-1.67028506286442279815673828125</LongitudeDegrees>
            </Position>
            <AltitudeMeters>104.8000030517578125</AltitudeMeters>
            <DistanceMeters>NAN</DistanceMeters>
          </Trackpoint>
          <Trackpoint>
            <Time>2021-08-10T11:58:14.000Z</Time>
            <Position>
              <LatitudeDegrees>43.1950114667415618896484375</LatitudeDegrees>
              <LongitudeDegrees>-1.67053467594087123870849609375</LongitudeDegrees>
            </Position>
            <AltitudeMeters>104.1999969482421875</AltitudeMeters>
            <DistanceMeters>NAN</DistanceMeters>
          </Trackpoint>
          <Trackpoint>
            <Time>2021-08-10T11:58:16.000Z</Time>
            <Position>
              <LatitudeDegrees>43.1950693018734455108642578125</LatitudeDegrees>
              <LongitudeDegrees>-1.67061598040163516998291015625</LongitudeDegrees>
            </Position>
            <AltitudeMeters>104.1999969482421875</AltitudeMeters>
            <DistanceMeters>NAN</DistanceMeters>
          </Trackpoint>
          <Trackpoint>
            <Time>2021-08-10T11:58:17.000Z</Time>
            <Position>
              <LatitudeDegrees>43.19510442204773426055908203125</LatitudeDegrees>
              <LongitudeDegrees>-1.670663841068744659423828125</LongitudeDegrees>
            </Position>
            <AltitudeMeters>104.1999969482421875</AltitudeMeters>
            <DistanceMeters>NAN</DistanceMeters>
          </Trackpoint>
          <Trackpoint>
            <Time>2021-08-10T11:58:18.000Z</Time>
            <Position>
              <LatitudeDegrees>43.195127137005329132080078125</LatitudeDegrees>
              <LongitudeDegrees>-1.670705415308475494384765625</LongitudeDegrees>
            </Position>
            <AltitudeMeters>104</AltitudeMeters>
            <DistanceMeters>NAN</DistanceMeters>
          </Trackpoint>
          <Trackpoint>
            <Time>2021-08-10T11:58:19.000Z</Time>
            <Position>
              <LatitudeDegrees>43.19514951668679714202880859375</LatitudeDegrees>
              <LongitudeDegrees>-1.67074522934854030609130859375</LongitudeDegrees>
            </Position>
            <AltitudeMeters>104</AltitudeMeters>
            <DistanceMeters>NAN</DistanceMeters>
          </Trackpoint>
          <Trackpoint>
            <Time>2021-08-10T11:58:20.000Z</Time>
            <Position>
              <LatitudeDegrees>43.1951749138534069061279296875</LatitudeDegrees>
              <LongitudeDegrees>-1.670784540474414825439453125</LongitudeDegrees>
            </Position>
            <AltitudeMeters>104</AltitudeMeters>
            <DistanceMeters>NAN</DistanceMeters>
          </Trackpoint>
          <Trackpoint>
            <Time>2021-08-10T11:58:21.000Z</Time>
            <Position>
              <LatitudeDegrees>43.1951993890106678009033203125</LatitudeDegrees>
              <LongitudeDegrees>-1.67081949301064014434814453125</LongitudeDegrees>
            </Position>
            <AltitudeMeters>104</AltitudeMeters>
            <DistanceMeters>NAN</DistanceMeters>
          </Trackpoint>
          <Trackpoint>
            <Time>2021-08-10T11:58:22.000Z</Time>
            <Position>
              <LatitudeDegrees>43.19523165933787822723388671875</LatitudeDegrees>
              <LongitudeDegrees>-1.6708698682487010955810546875</LongitudeDegrees>
            </Position>
            <AltitudeMeters>104</AltitudeMeters>
            <DistanceMeters>NAN</DistanceMeters>
          </Trackpoint>
          <Trackpoint>
            <Time>2021-08-10T11:58:23.000Z</Time>
            <Position>
              <LatitudeDegrees>43.19526568986475467681884765625</LatitudeDegrees>
              <LongitudeDegrees>-1.67092971503734588623046875</LongitudeDegrees>
            </Position>
            <AltitudeMeters>104</AltitudeMeters>
            <DistanceMeters>NAN</DistanceMeters>
          </Trackpoint>
          <Trackpoint>
            <Time>2021-08-10T11:58:24.000Z</Time>
            <Position>
              <LatitudeDegrees>43.1952919252216815948486328125</LatitudeDegrees>
              <LongitudeDegrees>-1.67097556404769420623779296875</LongitudeDegrees>
            </Position>
            <AltitudeMeters>104</AltitudeMeters>
            <DistanceMeters>NAN</DistanceMeters>
          </Trackpoint>
          <Trackpoint>
            <Time>2021-08-10T11:58:25.000Z</Time>
            <Position>
              <LatitudeDegrees>43.1953184120357036590576171875</LatitudeDegrees>
              <LongitudeDegrees>-1.6710229218006134033203125</LongitudeDegrees>
            </Position>
            <AltitudeMeters>103.8000030517578125</AltitudeMeters>
            <DistanceMeters>NAN</DistanceMeters>
          </Trackpoint>
          <Trackpoint>
            <Time>2021-08-10T11:58:26.000Z</Time>
            <Position>
              <LatitudeDegrees>43.1953368522226810455322265625</LatitudeDegrees>
              <LongitudeDegrees>-1.6710720397531986236572265625</LongitudeDegrees>
            </Position>
            <AltitudeMeters>103.8000030517578125</AltitudeMeters>
            <DistanceMeters>NAN</DistanceMeters>
          </Trackpoint>
          <Trackpoint>
            <Time>2021-08-10T11:58:27.000Z</Time>
            <Position>
              <LatitudeDegrees>43.19535805843770503997802734375</LatitudeDegrees>
              <LongitudeDegrees>-1.671121157705783843994140625</LongitudeDegrees>
            </Position>
            <AltitudeMeters>103.8000030517578125</AltitudeMeters>
            <DistanceMeters>NAN</DistanceMeters>
          </Trackpoint>
          <Trackpoint>
            <Time>2021-08-10T11:58:28.000Z</Time>
            <Position>
              <LatitudeDegrees>43.19538823328912258148193359375</LatitudeDegrees>
              <LongitudeDegrees>-1.67116868309676647186279296875</LongitudeDegrees>
            </Position>
            <AltitudeMeters>103.8000030517578125</AltitudeMeters>
            <DistanceMeters>NAN</DistanceMeters>
          </Trackpoint>
          <Trackpoint>
            <Time>2021-08-10T11:58:33.000Z</Time>
            <Position>
              <LatitudeDegrees>43.19554497487843036651611328125</LatitudeDegrees>
              <LongitudeDegrees>-1.67139516212046146392822265625</LongitudeDegrees>
            </Position>
            <AltitudeMeters>103.8000030517578125</AltitudeMeters>
            <DistanceMeters>NAN</DistanceMeters>
          </Trackpoint>
          <Trackpoint>
            <Time>2021-08-10T11:58:37.000Z</Time>
            <Position>
              <LatitudeDegrees>43.1956858746707439422607421875</LatitudeDegrees>
              <LongitudeDegrees>-1.67154503054916858673095703125</LongitudeDegrees>
            </Position>
            <AltitudeMeters>103.8000030517578125</AltitudeMeters>
            <DistanceMeters>NAN</DistanceMeters>
          </Trackpoint>
          <Trackpoint>
            <Time>2021-08-10T11:58:38.000Z</Time>
            <Position>
              <LatitudeDegrees>43.19571764208376407623291015625</LatitudeDegrees>
              <LongitudeDegrees>-1.67157922871410846710205078125</LongitudeDegrees>
            </Position>
            <AltitudeMeters>103.8000030517578125</AltitudeMeters>
            <DistanceMeters>NAN</DistanceMeters>
          </Trackpoint>
          <Trackpoint>
            <Time>2021-08-10T11:58:39.000Z</Time>
            <Position>
              <LatitudeDegrees>43.1957512535154819488525390625</LatitudeDegrees>
              <LongitudeDegrees>-1.67160890065133571624755859375</LongitudeDegrees>
            </Position>
            <AltitudeMeters>103.8000030517578125</AltitudeMeters>
            <DistanceMeters>NAN</DistanceMeters>
          </Trackpoint>
          <Trackpoint>
            <Time>2021-08-10T11:58:40.000Z</Time>
            <Position>
              <LatitudeDegrees>43.19578955881297588348388671875</LatitudeDegrees>
              <LongitudeDegrees>-1.67163773439824581146240234375</LongitudeDegrees>
            </Position>
            <AltitudeMeters>103.8000030517578125</AltitudeMeters>
            <DistanceMeters>NAN</DistanceMeters>
          </Trackpoint>
          <Trackpoint>
            <Time>2021-08-10T11:58:44.000Z</Time>
            <Position>
              <LatitudeDegrees>43.19594311527907848358154296875</LatitudeDegrees>
              <LongitudeDegrees>-1.67173395864665508270263671875</LongitudeDegrees>
            </Position>
            <AltitudeMeters>103.59999847412109375</AltitudeMeters>
            <DistanceMeters>NAN</DistanceMeters>
          </Trackpoint>
          <Trackpoint>
            <Time>2021-08-10T11:58:45.000Z</Time>
            <Position>
              <LatitudeDegrees>43.19598200730979442596435546875</LatitudeDegrees>
              <LongitudeDegrees>-1.67177234776318073272705078125</LongitudeDegrees>
            </Position>
            <AltitudeMeters>103.40000152587890625</AltitudeMeters>
            <DistanceMeters>NAN</DistanceMeters>
          </Trackpoint>
          <Trackpoint>
            <Time>2021-08-10T11:58:46.000Z</Time>
            <Position>
              <LatitudeDegrees>43.196018971502780914306640625</LatitudeDegrees>
              <LongitudeDegrees>-1.67181274853646755218505859375</LongitudeDegrees>
            </Position>
            <AltitudeMeters>103.40000152587890625</AltitudeMeters>
            <DistanceMeters>NAN</DistanceMeters>
          </Trackpoint>
          <Trackpoint>
            <Time>2021-08-10T11:58:47.000Z</Time>
            <Position>
              <LatitudeDegrees>43.19605660624802112579345703125</LatitudeDegrees>
              <LongitudeDegrees>-1.6718542389571666717529296875</LongitudeDegrees>
            </Position>
            <AltitudeMeters>103.40000152587890625</AltitudeMeters>
            <DistanceMeters>NAN</DistanceMeters>
          </Trackpoint>
          <Trackpoint>
            <Time>2021-08-10T11:58:50.000Z</Time>
            <Position>
              <LatitudeDegrees>43.1961881183087825775146484375</LatitudeDegrees>
              <LongitudeDegrees>-1.67192724533379077911376953125</LongitudeDegrees>
            </Position>
            <AltitudeMeters>103.40000152587890625</AltitudeMeters>
            <DistanceMeters>NAN</DistanceMeters>
          </Trackpoint>
          <Trackpoint>
            <Time>2021-08-10T11:58:51.000Z</Time>
            <Position>
              <LatitudeDegrees>43.19622860290110111236572265625</LatitudeDegrees>
              <LongitudeDegrees>-1.67192883789539337158203125</LongitudeDegrees>
            </Position>
            <AltitudeMeters>103.40000152587890625</AltitudeMeters>
            <DistanceMeters>NAN</DistanceMeters>
          </Trackpoint>
          <Trackpoint>
            <Time>2021-08-10T11:58:53.000Z</Time>
            <Position>
              <LatitudeDegrees>43.19631996564567089080810546875</LatitudeDegrees>
              <LongitudeDegrees>-1.67196379043161869049072265625</LongitudeDegrees>
            </Position>
            <AltitudeMeters>103.40000152587890625</AltitudeMeters>
            <DistanceMeters>NAN</DistanceMeters>
          </Trackpoint>
          <Trackpoint>
            <Time>2021-08-10T11:58:54.000Z</Time>
            <Position>
              <LatitudeDegrees>43.196358270943164825439453125</LatitudeDegrees>
              <LongitudeDegrees>-1.67198893614113330841064453125</LongitudeDegrees>
            </Position>
            <AltitudeMeters>103.40000152587890625</AltitudeMeters>
            <DistanceMeters>NAN</DistanceMeters>
          </Trackpoint>
          <Trackpoint>
            <Time>2021-08-10T11:58:55.000Z</Time>
            <Position>
              <LatitudeDegrees>43.196412585675716400146484375</LatitudeDegrees>
              <LongitudeDegrees>-1.67204928584396839141845703125</LongitudeDegrees>
            </Position>
            <AltitudeMeters>103.1999969482421875</AltitudeMeters>
            <DistanceMeters>NAN</DistanceMeters>
          </Trackpoint>
          <Trackpoint>
            <Time>2021-08-10T11:58:56.000Z</Time>
            <Position>
              <LatitudeDegrees>43.196463547646999359130859375</LatitudeDegrees>
              <LongitudeDegrees>-1.672108210623264312744140625</LongitudeDegrees>
            </Position>
            <AltitudeMeters>103.1999969482421875</AltitudeMeters>
            <DistanceMeters>NAN</DistanceMeters>
          </Trackpoint>
          <Trackpoint>
            <Time>2021-08-10T11:58:57.000Z</Time>
            <Position>
              <LatitudeDegrees>43.19650000892579555511474609375</LatitudeDegrees>
              <LongitudeDegrees>-1.6721360385417938232421875</LongitudeDegrees>
            </Position>
            <AltitudeMeters>103.1999969482421875</AltitudeMeters>
            <DistanceMeters>NAN</DistanceMeters>
          </Trackpoint>
          <Trackpoint>
            <Time>2021-08-10T11:59:01.000Z</Time>
            <Position>
              <LatitudeDegrees>43.19661852903664112091064453125</LatitudeDegrees>
              <LongitudeDegrees>-1.6722206957638263702392578125</LongitudeDegrees>
            </Position>
            <AltitudeMeters>103</AltitudeMeters>
            <DistanceMeters>NAN</DistanceMeters>
          </Trackpoint>
          <Trackpoint>
            <Time>2021-08-10T11:59:02.000Z</Time>
            <Position>
              <LatitudeDegrees>43.19664736278355121612548828125</LatitudeDegrees>
              <LongitudeDegrees>-1.67221876792609691619873046875</LongitudeDegrees>
            </Position>
            <AltitudeMeters>103</AltitudeMeters>
            <DistanceMeters>NAN</DistanceMeters>
          </Trackpoint>
          <Trackpoint>
            <Time>2021-08-10T11:59:04.000Z</Time>
            <Position>
              <LatitudeDegrees>43.196701593697071075439453125</LatitudeDegrees>
              <LongitudeDegrees>-1.67222932912409305572509765625</LongitudeDegrees>
            </Position>
            <AltitudeMeters>102.8000030517578125</AltitudeMeters>
            <DistanceMeters>NAN</DistanceMeters>
          </Trackpoint>
          <Trackpoint>
            <Time>2021-08-10T11:59:06.000Z</Time>
            <Position>
              <LatitudeDegrees>43.19677476771175861358642578125</LatitudeDegrees>
              <LongitudeDegrees>-1.6722299158573150634765625</LongitudeDegrees>
            </Position>
            <AltitudeMeters>102.8000030517578125</AltitudeMeters>
            <DistanceMeters>NAN</DistanceMeters>
          </Trackpoint>
          <Trackpoint>
            <Time>2021-08-10T11:59:07.000Z</Time>
            <Position>
              <LatitudeDegrees>43.1968083791434764862060546875</LatitudeDegrees>
              <LongitudeDegrees>-1.67222480289638042449951171875</LongitudeDegrees>
            </Position>
            <AltitudeMeters>102.59999847412109375</AltitudeMeters>
            <DistanceMeters>NAN</DistanceMeters>
          </Trackpoint>
          <Trackpoint>
            <Time>2021-08-10T11:59:08.000Z</Time>
            <Position>
              <LatitudeDegrees>43.1968415714800357818603515625</LatitudeDegrees>
              <LongitudeDegrees>-1.6722310893237590789794921875</LongitudeDegrees>
            </Position>
            <AltitudeMeters>102.59999847412109375</AltitudeMeters>
            <DistanceMeters>NAN</DistanceMeters>
          </Trackpoint>
          <Trackpoint>
            <Time>2021-08-10T11:59:09.000Z</Time>
            <Position>
              <LatitudeDegrees>43.196871913969516754150390625</LatitudeDegrees>
              <LongitudeDegrees>-1.67223083786666393280029296875</LongitudeDegrees>
            </Position>
            <AltitudeMeters>102.59999847412109375</AltitudeMeters>
            <DistanceMeters>NAN</DistanceMeters>
          </Trackpoint>
          <Trackpoint>
            <Time>2021-08-10T11:59:10.000Z</Time>
            <Position>
              <LatitudeDegrees>43.19690703414380550384521484375</LatitudeDegrees>
              <LongitudeDegrees>-1.67222748510539531707763671875</LongitudeDegrees>
            </Position>
            <AltitudeMeters>102.59999847412109375</AltitudeMeters>
            <DistanceMeters>NAN</DistanceMeters>
          </Trackpoint>
          <Trackpoint>
            <Time>2021-08-10T11:59:13.000Z</Time>
            <Position>
              <LatitudeDegrees>43.1970246322453022003173828125</LatitudeDegrees>
              <LongitudeDegrees>-1.6722320951521396636962890625</LongitudeDegrees>
            </Position>
            <AltitudeMeters>102.40000152587890625</AltitudeMeters>
            <DistanceMeters>NAN</DistanceMeters>
          </Trackpoint>
          <Trackpoint>
            <Time>2021-08-10T11:59:15.000Z</Time>
            <Position>
              <LatitudeDegrees>43.19710752926766872406005859375</LatitudeDegrees>
              <LongitudeDegrees>-1.67222027666866779327392578125</LongitudeDegrees>
            </Position>
            <AltitudeMeters>102.40000152587890625</AltitudeMeters>
            <DistanceMeters>NAN</DistanceMeters>
          </Trackpoint>
          <Trackpoint>
            <Time>2021-08-10T11:59:17.000Z</Time>
            <Position>
              <LatitudeDegrees>43.19718715734779834747314453125</LatitudeDegrees>
              <LongitudeDegrees>-1.67221390642225742340087890625</LongitudeDegrees>
            </Position>
            <AltitudeMeters>102.1999969482421875</AltitudeMeters>
            <DistanceMeters>NAN</DistanceMeters>
          </Trackpoint>
          <Trackpoint>
            <Time>2021-08-10T11:59:18.000Z</Time>
            <Position>
              <LatitudeDegrees>43.197221942245960235595703125</LatitudeDegrees>
              <LongitudeDegrees>-1.672204434871673583984375</LongitudeDegrees>
            </Position>
            <AltitudeMeters>102.1999969482421875</AltitudeMeters>
            <DistanceMeters>NAN</DistanceMeters>
          </Trackpoint>
          <Trackpoint>
            <Time>2021-08-10T11:59:19.000Z</Time>
            <Position>
              <LatitudeDegrees>43.19725773297250270843505859375</LatitudeDegrees>
              <LongitudeDegrees>-1.6721915267407894134521484375</LongitudeDegrees>
            </Position>
            <AltitudeMeters>102.1999969482421875</AltitudeMeters>
            <DistanceMeters>NAN</DistanceMeters>
          </Trackpoint>
          <Trackpoint>
            <Time>2021-08-10T11:59:20.000Z</Time>
            <Position>
              <LatitudeDegrees>43.197295702993869781494140625</LatitudeDegrees>
              <LongitudeDegrees>-1.6721824742853641510009765625</LongitudeDegrees>
            </Position>
            <AltitudeMeters>102</AltitudeMeters>
            <DistanceMeters>NAN</DistanceMeters>
          </Trackpoint>
          <Trackpoint>
            <Time>2021-08-10T11:59:21.000Z</Time>
            <Position>
              <LatitudeDegrees>43.1973304040729999542236328125</LatitudeDegrees>
              <LongitudeDegrees>-1.6721720807254314422607421875</LongitudeDegrees>
            </Position>
            <AltitudeMeters>102</AltitudeMeters>
            <DistanceMeters>NAN</DistanceMeters>
          </Trackpoint>
          <Trackpoint>
            <Time>2021-08-10T11:59:22.000Z</Time>
            <Position>
              <LatitudeDegrees>43.19736418314278125762939453125</LatitudeDegrees>
              <LongitudeDegrees>-1.67216353118419647216796875</LongitudeDegrees>
            </Position>
            <AltitudeMeters>102</AltitudeMeters>
            <DistanceMeters>NAN</DistanceMeters>
          </Trackpoint>
          <Trackpoint>
            <Time>2021-08-10T11:59:23.000Z</Time>
            <Position>
              <LatitudeDegrees>43.1974014826118946075439453125</LatitudeDegrees>
              <LongitudeDegrees>-1.67216009460389614105224609375</LongitudeDegrees>
            </Position>
            <AltitudeMeters>102</AltitudeMeters>
            <DistanceMeters>NAN</DistanceMeters>
          </Trackpoint>
          <Trackpoint>
            <Time>2021-08-10T11:59:25.000Z</Time>
            <Position>
              <LatitudeDegrees>43.1974725611507892608642578125</LatitudeDegrees>
              <LongitudeDegrees>-1.67213276959955692291259765625</LongitudeDegrees>
            </Position>
            <AltitudeMeters>102</AltitudeMeters>
            <DistanceMeters>NAN</DistanceMeters>
          </Trackpoint>
          <Trackpoint>
            <Time>2021-08-10T11:59:26.000Z</Time>
            <Position>
              <LatitudeDegrees>43.19751069881021976470947265625</LatitudeDegrees>
              <LongitudeDegrees>-1.6721191070973873138427734375</LongitudeDegrees>
            </Position>
            <AltitudeMeters>102</AltitudeMeters>
            <DistanceMeters>NAN</DistanceMeters>
          </Trackpoint>
          <Trackpoint>
            <Time>2021-08-10T11:59:32.000Z</Time>
            <Position>
              <LatitudeDegrees>43.197714127600193023681640625</LatitudeDegrees>
              <LongitudeDegrees>-1.672051213681697845458984375</LongitudeDegrees>
            </Position>
            <AltitudeMeters>102</AltitudeMeters>
            <DistanceMeters>NAN</DistanceMeters>
          </Trackpoint>
          <Trackpoint>
            <Time>2021-08-10T11:59:33.000Z</Time>
            <Position>
              <LatitudeDegrees>43.19773055613040924072265625</LatitudeDegrees>
              <LongitudeDegrees>-1.6720621101558208465576171875</LongitudeDegrees>
            </Position>
            <AltitudeMeters>102</AltitudeMeters>
            <DistanceMeters>NAN</DistanceMeters>
          </Trackpoint>
          <Trackpoint>
            <Time>2021-08-10T12:00:53.000Z</Time>
            <Position>
              <LatitudeDegrees>43.1996374391019344329833984375</LatitudeDegrees>
              <LongitudeDegrees>-1.6729304753243923187255859375</LongitudeDegrees>
            </Position>
            <AltitudeMeters>100</AltitudeMeters>
            <DistanceMeters>NAN</DistanceMeters>
          </Trackpoint>
          <Trackpoint>
            <Time>2021-08-10T12:00:55.000Z</Time>
            <Position>
              <LatitudeDegrees>43.1995631754398345947265625</LatitudeDegrees>
              <LongitudeDegrees>-1.67298923246562480926513671875</LongitudeDegrees>
            </Position>
            <AltitudeMeters>99.8000030517578125</AltitudeMeters>
            <DistanceMeters>NAN</DistanceMeters>
          </Trackpoint>
          <Trackpoint>
            <Time>2021-08-10T12:01:09.000Z</Time>
            <Position>
              <LatitudeDegrees>43.1995656900107860565185546875</LatitudeDegrees>
              <LongitudeDegrees>-1.67303851805627346038818359375</LongitudeDegrees>
            </Position>
            <AltitudeMeters>99.8000030517578125</AltitudeMeters>
            <DistanceMeters>NAN</DistanceMeters>
          </Trackpoint>
          <Trackpoint>
            <Time>2021-08-10T12:01:12.000Z</Time>
            <Position>
              <LatitudeDegrees>43.1995620019733905792236328125</LatitudeDegrees>
              <LongitudeDegrees>-1.6730216704308986663818359375</LongitudeDegrees>
            </Position>
            <AltitudeMeters>99.59999847412109375</AltitudeMeters>
            <DistanceMeters>NAN</DistanceMeters>
          </Trackpoint>
          <Trackpoint>
            <Time>2021-08-10T12:01:18.000Z</Time>
            <Position>
              <LatitudeDegrees>43.199553452432155609130859375</LatitudeDegrees>
              <LongitudeDegrees>-1.673019491136074066162109375</LongitudeDegrees>
            </Position>
            <AltitudeMeters>99.40000152587890625</AltitudeMeters>
            <DistanceMeters>NAN</DistanceMeters>
          </Trackpoint>
          <Trackpoint>
            <Time>2021-08-10T12:01:28.000Z</Time>
            <Position>
              <LatitudeDegrees>43.19956141524016857147216796875</LatitudeDegrees>
              <LongitudeDegrees>-1.672989986836910247802734375</LongitudeDegrees>
            </Position>
            <AltitudeMeters>99.40000152587890625</AltitudeMeters>
            <DistanceMeters>NAN</DistanceMeters>
          </Trackpoint>
          <Trackpoint>
            <Time>2021-08-10T12:01:57.000Z</Time>
            <Position>
              <LatitudeDegrees>43.19953492842614650726318359375</LatitudeDegrees>
              <LongitudeDegrees>-1.6729720495641231536865234375</LongitudeDegrees>
            </Position>
            <AltitudeMeters>99.40000152587890625</AltitudeMeters>
            <DistanceMeters>NAN</DistanceMeters>
          </Trackpoint>
          <Trackpoint>
            <Time>2021-08-10T12:03:55.000Z</Time>
            <Position>
              <LatitudeDegrees>43.19959762506186962127685546875</LatitudeDegrees>
              <LongitudeDegrees>-1.672953777015209197998046875</LongitudeDegrees>
            </Position>
            <AltitudeMeters>99</AltitudeMeters>
            <DistanceMeters>NAN</DistanceMeters>
          </Trackpoint>
          <Trackpoint>
            <Time>2021-08-10T12:04:36.000Z</Time>
            <Position>
              <LatitudeDegrees>43.1996029056608676910400390625</LatitudeDegrees>
              <LongitudeDegrees>-1.67297565378248691558837890625</LongitudeDegrees>
            </Position>
            <AltitudeMeters>99.59999847412109375</AltitudeMeters>
            <DistanceMeters>NAN</DistanceMeters>
          </Trackpoint>
          <Trackpoint>
            <Time>2021-08-10T12:05:38.000Z</Time>
            <Position>
              <LatitudeDegrees>43.19960533641278743743896484375</LatitudeDegrees>
              <LongitudeDegrees>-1.6730142943561077117919921875</LongitudeDegrees>
            </Position>
            <AltitudeMeters>99.40000152587890625</AltitudeMeters>
            <DistanceMeters>NAN</DistanceMeters>
          </Trackpoint>
          <Trackpoint>
            <Time>2021-08-10T12:05:41.000Z</Time>
            <Position>
              <LatitudeDegrees>43.199617154896259307861328125</LatitudeDegrees>
              <LongitudeDegrees>-1.67304488830268383026123046875</LongitudeDegrees>
            </Position>
            <AltitudeMeters>99.40000152587890625</AltitudeMeters>
            <DistanceMeters>NAN</DistanceMeters>
          </Trackpoint>
          <Trackpoint>
            <Time>2021-08-10T12:05:53.000Z</Time>
            <Position>
              <LatitudeDegrees>43.19963869638741016387939453125</LatitudeDegrees>
              <LongitudeDegrees>-1.67306207120418548583984375</LongitudeDegrees>
            </Position>
            <AltitudeMeters>99.1999969482421875</AltitudeMeters>
            <DistanceMeters>NAN</DistanceMeters>
          </Trackpoint>
          <Trackpoint>
            <Time>2021-08-10T12:05:55.000Z</Time>
            <Position>
              <LatitudeDegrees>43.19967842660844326019287109375</LatitudeDegrees>
              <LongitudeDegrees>-1.67311613447964191436767578125</LongitudeDegrees>
            </Position>
            <AltitudeMeters>99.1999969482421875</AltitudeMeters>
            <DistanceMeters>NAN</DistanceMeters>
          </Trackpoint>
          <Trackpoint>
            <Time>2021-08-10T12:05:57.000Z</Time>
            <Position>
              <LatitudeDegrees>43.19972737692296504974365234375</LatitudeDegrees>
              <LongitudeDegrees>-1.67318503372371196746826171875</LongitudeDegrees>
            </Position>
            <AltitudeMeters>99.1999969482421875</AltitudeMeters>
            <DistanceMeters>NAN</DistanceMeters>
          </Trackpoint>
          <Trackpoint>
            <Time>2021-08-10T12:05:58.000Z</Time>
            <Position>
              <LatitudeDegrees>43.19974866695702075958251953125</LatitudeDegrees>
              <LongitudeDegrees>-1.67322929017245769500732421875</LongitudeDegrees>
            </Position>
            <AltitudeMeters>99.1999969482421875</AltitudeMeters>
            <DistanceMeters>NAN</DistanceMeters>
          </Trackpoint>
          <Trackpoint>
            <Time>2021-08-10T12:05:59.000Z</Time>
            <Position>
              <LatitudeDegrees>43.1997750699520111083984375</LatitudeDegrees>
              <LongitudeDegrees>-1.67327103205025196075439453125</LongitudeDegrees>
            </Position>
            <AltitudeMeters>99.1999969482421875</AltitudeMeters>
            <DistanceMeters>NAN</DistanceMeters>
          </Trackpoint>
          <Trackpoint>
            <Time>2021-08-10T12:06:01.000Z</Time>
            <Position>
              <LatitudeDegrees>43.199825026094913482666015625</LatitudeDegrees>
              <LongitudeDegrees>-1.67335015721619129180908203125</LongitudeDegrees>
            </Position>
            <AltitudeMeters>99.1999969482421875</AltitudeMeters>
            <DistanceMeters>NAN</DistanceMeters>
          </Trackpoint>
          <Trackpoint>
            <Time>2021-08-10T12:06:02.000Z</Time>
            <Position>
              <LatitudeDegrees>43.1998483277857303619384765625</LatitudeDegrees>
              <LongitudeDegrees>-1.67338083498179912567138671875</LongitudeDegrees>
            </Position>
            <AltitudeMeters>99.1999969482421875</AltitudeMeters>
            <DistanceMeters>NAN</DistanceMeters>
          </Trackpoint>
          <Trackpoint>
            <Time>2021-08-10T12:06:03.000Z</Time>
            <Position>
              <LatitudeDegrees>43.1998707912862300872802734375</LatitudeDegrees>
              <LongitudeDegrees>-1.67340916581451892852783203125</LongitudeDegrees>
            </Position>
            <AltitudeMeters>99.1999969482421875</AltitudeMeters>
            <DistanceMeters>NAN</DistanceMeters>
          </Trackpoint>
          <Trackpoint>
            <Time>2021-08-10T12:06:04.000Z</Time>
            <Position>
              <LatitudeDegrees>43.199892081320285797119140625</LatitudeDegrees>
              <LongitudeDegrees>-1.67343649081885814666748046875</LongitudeDegrees>
            </Position>
            <AltitudeMeters>99</AltitudeMeters>
            <DistanceMeters>NAN</DistanceMeters>
          </Trackpoint>
          <Trackpoint>
            <Time>2021-08-10T12:06:05.000Z</Time>
            <Position>
              <LatitudeDegrees>43.19991362281143665313720703125</LatitudeDegrees>
              <LongitudeDegrees>-1.6734655760228633880615234375</LongitudeDegrees>
            </Position>
            <AltitudeMeters>99</AltitudeMeters>
            <DistanceMeters>NAN</DistanceMeters>
          </Trackpoint>
          <Trackpoint>
            <Time>2021-08-10T12:06:09.000Z</Time>
            <Position>
              <LatitudeDegrees>43.2000111043453216552734375</LatitudeDegrees>
              <LongitudeDegrees>-1.67357973754405975341796875</LongitudeDegrees>
            </Position>
            <AltitudeMeters>99</AltitudeMeters>
            <DistanceMeters>NAN</DistanceMeters>
          </Trackpoint>
          <Trackpoint>
            <Time>2021-08-10T12:06:10.000Z</Time>
            <Position>
              <LatitudeDegrees>43.20003465749323368072509765625</LatitudeDegrees>
              <LongitudeDegrees>-1.67360731400549411773681640625</LongitudeDegrees>
            </Position>
            <AltitudeMeters>99</AltitudeMeters>
            <DistanceMeters>NAN</DistanceMeters>
          </Trackpoint>
          <Trackpoint>
            <Time>2021-08-10T12:06:11.000Z</Time>
            <Position>
              <LatitudeDegrees>43.20006072521209716796875</LatitudeDegrees>
              <LongitudeDegrees>-1.67362776584923267364501953125</LongitudeDegrees>
            </Position>
            <AltitudeMeters>99</AltitudeMeters>
            <DistanceMeters>NAN</DistanceMeters>
          </Trackpoint>
          <Trackpoint>
            <Time>2021-08-10T12:06:19.000Z</Time>
            <Position>
              <LatitudeDegrees>43.20032031275331974029541015625</LatitudeDegrees>
              <LongitudeDegrees>-1.67380160652101039886474609375</LongitudeDegrees>
            </Position>
            <AltitudeMeters>98.8000030517578125</AltitudeMeters>
            <DistanceMeters>NAN</DistanceMeters>
          </Trackpoint>
          <Trackpoint>
            <Time>2021-08-10T12:06:22.000Z</Time>
            <Position>
              <LatitudeDegrees>43.20041603408753871917724609375</LatitudeDegrees>
              <LongitudeDegrees>-1.67384167201817035675048828125</LongitudeDegrees>
            </Position>
            <AltitudeMeters>98.8000030517578125</AltitudeMeters>
            <DistanceMeters>NAN</DistanceMeters>
          </Trackpoint>
          <Trackpoint>
            <Time>2021-08-10T12:06:23.000Z</Time>
            <Position>
              <LatitudeDegrees>43.2004437781870365142822265625</LatitudeDegrees>
              <LongitudeDegrees>-1.67384636588394641876220703125</LongitudeDegrees>
            </Position>
            <AltitudeMeters>98.8000030517578125</AltitudeMeters>
            <DistanceMeters>NAN</DistanceMeters>
          </Trackpoint>
          <Trackpoint>
            <Time>2021-08-10T12:06:24.000Z</Time>
            <Position>
              <LatitudeDegrees>43.20047571323812007904052734375</LatitudeDegrees>
              <LongitudeDegrees>-1.67385390959680080413818359375</LongitudeDegrees>
            </Position>
            <AltitudeMeters>99</AltitudeMeters>
            <DistanceMeters>NAN</DistanceMeters>
          </Trackpoint>
          <Trackpoint>
            <Time>2021-08-10T12:06:26.000Z</Time>
            <Position>
              <LatitudeDegrees>43.20054360665380954742431640625</LatitudeDegrees>
              <LongitudeDegrees>-1.67386748827993869781494140625</LongitudeDegrees>
            </Position>
            <AltitudeMeters>99</AltitudeMeters>
            <DistanceMeters>NAN</DistanceMeters>
          </Trackpoint>
          <Trackpoint>
            <Time>2021-08-10T12:06:27.000Z</Time>
            <Position>
              <LatitudeDegrees>43.20057545788586139678955078125</LatitudeDegrees>
              <LongitudeDegrees>-1.67386899702250957489013671875</LongitudeDegrees>
            </Position>
            <AltitudeMeters>99</AltitudeMeters>
            <DistanceMeters>NAN</DistanceMeters>
          </Trackpoint>
          <Trackpoint>
            <Time>2021-08-10T12:06:28.000Z</Time>
            <Position>
              <LatitudeDegrees>43.2006067223846912384033203125</LatitudeDegrees>
              <LongitudeDegrees>-1.67386430315673351287841796875</LongitudeDegrees>
            </Position>
            <AltitudeMeters>99</AltitudeMeters>
            <DistanceMeters>NAN</DistanceMeters>
          </Trackpoint>
          <Trackpoint>
            <Time>2021-08-10T12:06:29.000Z</Time>
            <Position>
              <LatitudeDegrees>43.20063463412225246429443359375</LatitudeDegrees>
              <LongitudeDegrees>-1.67385424487292766571044921875</LongitudeDegrees>
            </Position>
            <AltitudeMeters>98.8000030517578125</AltitudeMeters>
            <DistanceMeters>NAN</DistanceMeters>
          </Trackpoint>
          <Trackpoint>
            <Time>2021-08-10T12:06:30.000Z</Time>
            <Position>
              <LatitudeDegrees>43.20066162385046482086181640625</LatitudeDegrees>
              <LongitudeDegrees>-1.67385022155940532684326171875</LongitudeDegrees>
            </Position>
            <AltitudeMeters>98.8000030517578125</AltitudeMeters>
            <DistanceMeters>NAN</DistanceMeters>
          </Trackpoint>
          <Trackpoint>
            <Time>2021-08-10T12:06:31.000Z</Time>
            <Position>
              <LatitudeDegrees>43.2006935589015483856201171875</LatitudeDegrees>
              <LongitudeDegrees>-1.6738511435687541961669921875</LongitudeDegrees>
            </Position>
            <AltitudeMeters>98.8000030517578125</AltitudeMeters>
            <DistanceMeters>NAN</DistanceMeters>
          </Trackpoint>
          <Trackpoint>
            <Time>2021-08-10T12:06:32.000Z</Time>
            <Position>
              <LatitudeDegrees>43.20073018781840801239013671875</LatitudeDegrees>
              <LongitudeDegrees>-1.67385466396808624267578125</LongitudeDegrees>
            </Position>
            <AltitudeMeters>98.8000030517578125</AltitudeMeters>
            <DistanceMeters>NAN</DistanceMeters>
          </Trackpoint>
          <Trackpoint>
            <Time>2021-08-10T12:06:34.000Z</Time>
            <Position>
              <LatitudeDegrees>43.2007958181202411651611328125</LatitudeDegrees>
              <LongitudeDegrees>-1.6738306917250156402587890625</LongitudeDegrees>
            </Position>
            <AltitudeMeters>98.8000030517578125</AltitudeMeters>
            <DistanceMeters>NAN</DistanceMeters>
          </Trackpoint>
          <Trackpoint>
            <Time>2021-08-10T12:06:35.000Z</Time>
            <Position>
              <LatitudeDegrees>43.20082909427583217620849609375</LatitudeDegrees>
              <LongitudeDegrees>-1.67380512692034244537353515625</LongitudeDegrees>
            </Position>
            <AltitudeMeters>98.8000030517578125</AltitudeMeters>
            <DistanceMeters>NAN</DistanceMeters>
          </Trackpoint>
          <Trackpoint>
            <Time>2021-08-10T12:06:36.000Z</Time>
            <Position>
              <LatitudeDegrees>43.2008679024875164031982421875</LatitudeDegrees>
              <LongitudeDegrees>-1.67378584854304790496826171875</LongitudeDegrees>
            </Position>
            <AltitudeMeters>98.8000030517578125</AltitudeMeters>
            <DistanceMeters>NAN</DistanceMeters>
          </Trackpoint>
          <Trackpoint>
            <Time>2021-08-10T12:06:41.000Z</Time>
            <Position>
              <LatitudeDegrees>43.20103931240737438201904296875</LatitudeDegrees>
              <LongitudeDegrees>-1.6737210564315319061279296875</LongitudeDegrees>
            </Position>
            <AltitudeMeters>98.59999847412109375</AltitudeMeters>
            <DistanceMeters>NAN</DistanceMeters>
          </Trackpoint>
          <Trackpoint>
            <Time>2021-08-10T12:06:47.000Z</Time>
            <Position>
              <LatitudeDegrees>43.2012504525482654571533203125</LatitudeDegrees>
              <LongitudeDegrees>-1.673624329268932342529296875</LongitudeDegrees>
            </Position>
            <AltitudeMeters>98.59999847412109375</AltitudeMeters>
            <DistanceMeters>NAN</DistanceMeters>
          </Trackpoint>
          <Trackpoint>
            <Time>2021-08-10T12:06:55.000Z</Time>
            <Position>
              <LatitudeDegrees>43.20153568871319293975830078125</LatitudeDegrees>
              <LongitudeDegrees>-1.6734602116048336029052734375</LongitudeDegrees>
            </Position>
            <AltitudeMeters>98.1999969482421875</AltitudeMeters>
            <DistanceMeters>NAN</DistanceMeters>
          </Trackpoint>
          <Trackpoint>
            <Time>2021-08-10T12:06:56.000Z</Time>
            <Position>
              <LatitudeDegrees>43.20156837813556194305419921875</LatitudeDegrees>
              <LongitudeDegrees>-1.6734454594552516937255859375</LongitudeDegrees>
            </Position>
            <AltitudeMeters>98</AltitudeMeters>
            <DistanceMeters>NAN</DistanceMeters>
          </Trackpoint>
          <Trackpoint>
            <Time>2021-08-10T12:06:57.000Z</Time>
            <Position>
              <LatitudeDegrees>43.2015998102724552154541015625</LatitudeDegrees>
              <LongitudeDegrees>-1.67342525906860828399658203125</LongitudeDegrees>
            </Position>
            <AltitudeMeters>97.8000030517578125</AltitudeMeters>
            <DistanceMeters>NAN</DistanceMeters>
          </Trackpoint>
          <Trackpoint>
            <Time>2021-08-10T12:06:58.000Z</Time>
            <Position>
              <LatitudeDegrees>43.20163208059966564178466796875</LatitudeDegrees>
              <LongitudeDegrees>-1.67340095154941082000732421875</LongitudeDegrees>
            </Position>
            <AltitudeMeters>97.8000030517578125</AltitudeMeters>
            <DistanceMeters>NAN</DistanceMeters>
          </Trackpoint>
          <Trackpoint>
            <Time>2021-08-10T12:06:59.000Z</Time>
            <Position>
              <LatitudeDegrees>43.20166535675525665283203125</LatitudeDegrees>
              <LongitudeDegrees>-1.67337513528764247894287109375</LongitudeDegrees>
            </Position>
            <AltitudeMeters>97.59999847412109375</AltitudeMeters>
            <DistanceMeters>NAN</DistanceMeters>
          </Trackpoint>
          <Trackpoint>
            <Time>2021-08-10T12:07:00.000Z</Time>
            <Position>
              <LatitudeDegrees>43.20170533843338489532470703125</LatitudeDegrees>
              <LongitudeDegrees>-1.673360131680965423583984375</LongitudeDegrees>
            </Position>
            <AltitudeMeters>97.40000152587890625</AltitudeMeters>
            <DistanceMeters>NAN</DistanceMeters>
          </Trackpoint>
          <Trackpoint>
            <Time>2021-08-10T12:07:01.000Z</Time>
            <Position>
              <LatitudeDegrees>43.20173802785575389862060546875</LatitudeDegrees>
              <LongitudeDegrees>-1.6733421944081783294677734375</LongitudeDegrees>
            </Position>
            <AltitudeMeters>97.40000152587890625</AltitudeMeters>
            <DistanceMeters>NAN</DistanceMeters>
          </Trackpoint>
          <Trackpoint>
            <Time>2021-08-10T12:07:02.000Z</Time>
            <Position>
              <LatitudeDegrees>43.201766945421695709228515625</LatitudeDegrees>
              <LongitudeDegrees>-1.673321910202503204345703125</LongitudeDegrees>
            </Position>
            <AltitudeMeters>97.40000152587890625</AltitudeMeters>
            <DistanceMeters>NAN</DistanceMeters>
          </Trackpoint>
          <Trackpoint>
            <Time>2021-08-10T12:07:07.000Z</Time>
            <Position>
              <LatitudeDegrees>43.2019277103245258331298828125</LatitudeDegrees>
              <LongitudeDegrees>-1.67316726408898830413818359375</LongitudeDegrees>
            </Position>
            <AltitudeMeters>97.59999847412109375</AltitudeMeters>
            <DistanceMeters>NAN</DistanceMeters>
          </Trackpoint>
          <Trackpoint>
            <Time>2021-08-10T12:07:10.000Z</Time>
            <Position>
              <LatitudeDegrees>43.20201714523136615753173828125</LatitudeDegrees>
              <LongitudeDegrees>-1.67307011783123016357421875</LongitudeDegrees>
            </Position>
            <AltitudeMeters>97.40000152587890625</AltitudeMeters>
            <DistanceMeters>NAN</DistanceMeters>
          </Trackpoint>
          <Trackpoint>
            <Time>2021-08-10T12:07:16.000Z</Time>
            <Position>
              <LatitudeDegrees>43.202184028923511505126953125</LatitudeDegrees>
              <LongitudeDegrees>-1.6728251986205577850341796875</LongitudeDegrees>
            </Position>
            <AltitudeMeters>97.59999847412109375</AltitudeMeters>
            <DistanceMeters>NAN</DistanceMeters>
          </Trackpoint>
          <Trackpoint>
            <Time>2021-08-10T12:07:22.000Z</Time>
            <Position>
              <LatitudeDegrees>43.20233725011348724365234375</LatitudeDegrees>
              <LongitudeDegrees>-1.67252219282090663909912109375</LongitudeDegrees>
            </Position>
            <AltitudeMeters>97.40000152587890625</AltitudeMeters>
            <DistanceMeters>NAN</DistanceMeters>
          </Trackpoint>
          <Trackpoint>
            <Time>2021-08-10T12:07:23.000Z</Time>
            <Position>
              <LatitudeDegrees>43.20236130617558956146240234375</LatitudeDegrees>
              <LongitudeDegrees>-1.67247106321156024932861328125</LongitudeDegrees>
            </Position>
            <AltitudeMeters>97.1999969482421875</AltitudeMeters>
            <DistanceMeters>NAN</DistanceMeters>
          </Trackpoint>
          <Trackpoint>
            <Time>2021-08-10T12:07:26.000Z</Time>
            <Position>
              <LatitudeDegrees>43.202424757182598114013671875</LatitudeDegrees>
              <LongitudeDegrees>-1.67232387699186801910400390625</LongitudeDegrees>
            </Position>
            <AltitudeMeters>97.1999969482421875</AltitudeMeters>
            <DistanceMeters>NAN</DistanceMeters>
          </Trackpoint>
          <Trackpoint>
            <Time>2021-08-10T12:07:28.000Z</Time>
            <Position>
              <LatitudeDegrees>43.2024839334189891815185546875</LatitudeDegrees>
              <LongitudeDegrees>-1.67222253978252410888671875</LongitudeDegrees>
            </Position>
            <AltitudeMeters>97.1999969482421875</AltitudeMeters>
            <DistanceMeters>NAN</DistanceMeters>
          </Trackpoint>
          <Trackpoint>
            <Time>2021-08-10T12:07:29.000Z</Time>
            <Position>
              <LatitudeDegrees>43.2025097496807575225830078125</LatitudeDegrees>
              <LongitudeDegrees>-1.67218507267534732818603515625</LongitudeDegrees>
            </Position>
            <AltitudeMeters>97</AltitudeMeters>
            <DistanceMeters>NAN</DistanceMeters>
          </Trackpoint>
          <Trackpoint>
            <Time>2021-08-10T12:07:31.000Z</Time>
            <Position>
              <LatitudeDegrees>43.20256263948976993560791015625</LatitudeDegrees>
              <LongitudeDegrees>-1.672102846205234527587890625</LongitudeDegrees>
            </Position>
            <AltitudeMeters>97</AltitudeMeters>
            <DistanceMeters>NAN</DistanceMeters>
          </Trackpoint>
          <Trackpoint>
            <Time>2021-08-10T12:07:32.000Z</Time>
            <Position>
              <LatitudeDegrees>43.202590048313140869140625</LatitudeDegrees>
              <LongitudeDegrees>-1.672056578099727630615234375</LongitudeDegrees>
            </Position>
            <AltitudeMeters>97</AltitudeMeters>
            <DistanceMeters>NAN</DistanceMeters>
          </Trackpoint>
          <Trackpoint>
            <Time>2021-08-10T12:07:34.000Z</Time>
            <Position>
              <LatitudeDegrees>43.2026445306837558746337890625</LatitudeDegrees>
              <LongitudeDegrees>-1.67195876128971576690673828125</LongitudeDegrees>
            </Position>
            <AltitudeMeters>97</AltitudeMeters>
            <DistanceMeters>NAN</DistanceMeters>
          </Trackpoint>
          <Trackpoint>
            <Time>2021-08-10T12:07:36.000Z</Time>
            <Position>
              <LatitudeDegrees>43.202694319188594818115234375</LatitudeDegrees>
              <LongitudeDegrees>-1.67186714708805084228515625</LongitudeDegrees>
            </Position>
            <AltitudeMeters>97</AltitudeMeters>
            <DistanceMeters>NAN</DistanceMeters>
          </Trackpoint>
          <Trackpoint>
            <Time>2021-08-10T12:07:37.000Z</Time>
            <Position>
              <LatitudeDegrees>43.2027179561555385589599609375</LatitudeDegrees>
              <LongitudeDegrees>-1.67181744240224361419677734375</LongitudeDegrees>
            </Position>
            <AltitudeMeters>97</AltitudeMeters>
            <DistanceMeters>NAN</DistanceMeters>
          </Trackpoint>
          <Trackpoint>
            <Time>2021-08-10T12:07:38.000Z</Time>
            <Position>
              <LatitudeDegrees>43.2027390785515308380126953125</LatitudeDegrees>
              <LongitudeDegrees>-1.67176614515483379364013671875</LongitudeDegrees>
            </Position>
            <AltitudeMeters>97</AltitudeMeters>
            <DistanceMeters>NAN</DistanceMeters>
          </Trackpoint>
          <Trackpoint>
            <Time>2021-08-10T12:07:43.000Z</Time>
            <Position>
              <LatitudeDegrees>43.2028299383819103240966796875</LatitudeDegrees>
              <LongitudeDegrees>-1.67150764726102352142333984375</LongitudeDegrees>
            </Position>
            <AltitudeMeters>96.8000030517578125</AltitudeMeters>
            <DistanceMeters>NAN</DistanceMeters>
          </Trackpoint>
          <Trackpoint>
            <Time>2021-08-10T12:07:50.000Z</Time>
            <Position>
              <LatitudeDegrees>43.20291266776621341705322265625</LatitudeDegrees>
              <LongitudeDegrees>-1.671109087765216827392578125</LongitudeDegrees>
            </Position>
            <AltitudeMeters>96.40000152587890625</AltitudeMeters>
            <DistanceMeters>NAN</DistanceMeters>
          </Trackpoint>
          <Trackpoint>
            <Time>2021-08-10T12:07:51.000Z</Time>
            <Position>
              <LatitudeDegrees>43.20291970856487751007080078125</LatitudeDegrees>
              <LongitudeDegrees>-1.6710596345365047454833984375</LongitudeDegrees>
            </Position>
            <AltitudeMeters>96.40000152587890625</AltitudeMeters>
            <DistanceMeters>NAN</DistanceMeters>
          </Trackpoint>
          <Trackpoint>
            <Time>2021-08-10T12:07:52.000Z</Time>
            <Position>
              <LatitudeDegrees>43.2029258273541927337646484375</LatitudeDegrees>
              <LongitudeDegrees>-1.6710123606026172637939453125</LongitudeDegrees>
            </Position>
            <AltitudeMeters>96.40000152587890625</AltitudeMeters>
            <DistanceMeters>NAN</DistanceMeters>
          </Trackpoint>
          <Trackpoint>
            <Time>2021-08-10T12:07:53.000Z</Time>
            <Position>
              <LatitudeDegrees>43.20293194614350795745849609375</LatitudeDegrees>
              <LongitudeDegrees>-1.6709627397358417510986328125</LongitudeDegrees>
            </Position>
            <AltitudeMeters>96.40000152587890625</AltitudeMeters>
            <DistanceMeters>NAN</DistanceMeters>
          </Trackpoint>
          <Trackpoint>
            <Time>2021-08-10T12:07:54.000Z</Time>
            <Position>
              <LatitudeDegrees>43.2029400765895843505859375</LatitudeDegrees>
              <LongitudeDegrees>-1.6709101013839244842529296875</LongitudeDegrees>
            </Position>
            <AltitudeMeters>96.40000152587890625</AltitudeMeters>
            <DistanceMeters>NAN</DistanceMeters>
          </Trackpoint>
          <Trackpoint>
            <Time>2021-08-10T12:07:55.000Z</Time>
            <Position>
              <LatitudeDegrees>43.20294938050210475921630859375</LatitudeDegrees>
              <LongitudeDegrees>-1.67084991931915283203125</LongitudeDegrees>
            </Position>
            <AltitudeMeters>96.40000152587890625</AltitudeMeters>
            <DistanceMeters>NAN</DistanceMeters>
          </Trackpoint>
          <Trackpoint>
            <Time>2021-08-10T12:07:58.000Z</Time>
            <Position>
              <LatitudeDegrees>43.202960193157196044921875</LatitudeDegrees>
              <LongitudeDegrees>-1.6706435568630695343017578125</LongitudeDegrees>
            </Position>
            <AltitudeMeters>96.40000152587890625</AltitudeMeters>
            <DistanceMeters>NAN</DistanceMeters>
          </Trackpoint>
          <Trackpoint>
            <Time>2021-08-10T12:07:59.000Z</Time>
            <Position>
              <LatitudeDegrees>43.2029643841087818145751953125</LatitudeDegrees>
              <LongitudeDegrees>-1.67057910002768039703369140625</LongitudeDegrees>
            </Position>
            <AltitudeMeters>96.40000152587890625</AltitudeMeters>
            <DistanceMeters>NAN</DistanceMeters>
          </Trackpoint>
          <Trackpoint>
            <Time>2021-08-10T12:08:00.000Z</Time>
            <Position>
              <LatitudeDegrees>43.20296715013682842254638671875</LatitudeDegrees>
              <LongitudeDegrees>-1.670526377856731414794921875</LongitudeDegrees>
            </Position>
            <AltitudeMeters>96.40000152587890625</AltitudeMeters>
            <DistanceMeters>NAN</DistanceMeters>
          </Trackpoint>
          <Trackpoint>
            <Time>2021-08-10T12:08:01.000Z</Time>
            <Position>
              <LatitudeDegrees>43.20297033526003360748291015625</LatitudeDegrees>
              <LongitudeDegrees>-1.6704578138887882232666015625</LongitudeDegrees>
            </Position>
            <AltitudeMeters>96.40000152587890625</AltitudeMeters>
            <DistanceMeters>NAN</DistanceMeters>
          </Trackpoint>
          <Trackpoint>
            <Time>2021-08-10T12:08:02.000Z</Time>
            <Position>
              <LatitudeDegrees>43.20297486148774623870849609375</LatitudeDegrees>
              <LongitudeDegrees>-1.6704006493091583251953125</LongitudeDegrees>
            </Position>
            <AltitudeMeters>96.40000152587890625</AltitudeMeters>
            <DistanceMeters>NAN</DistanceMeters>
          </Trackpoint>
          <Trackpoint>
            <Time>2021-08-10T12:08:03.000Z</Time>
            <Position>
              <LatitudeDegrees>43.2029767893254756927490234375</LatitudeDegrees>
              <LongitudeDegrees>-1.6703470051288604736328125</LongitudeDegrees>
            </Position>
            <AltitudeMeters>96.40000152587890625</AltitudeMeters>
            <DistanceMeters>NAN</DistanceMeters>
          </Trackpoint>
          <Trackpoint>
            <Time>2021-08-10T12:08:05.000Z</Time>
            <Position>
              <LatitudeDegrees>43.2029734365642070770263671875</LatitudeDegrees>
              <LongitudeDegrees>-1.67022052221000194549560546875</LongitudeDegrees>
            </Position>
            <AltitudeMeters>96.40000152587890625</AltitudeMeters>
            <DistanceMeters>NAN</DistanceMeters>
          </Trackpoint>
          <Trackpoint>
            <Time>2021-08-10T12:08:07.000Z</Time>
            <Position>
              <LatitudeDegrees>43.20297569967806339263916015625</LatitudeDegrees>
              <LongitudeDegrees>-1.6700923629105091094970703125</LongitudeDegrees>
            </Position>
            <AltitudeMeters>96.1999969482421875</AltitudeMeters>
            <DistanceMeters>NAN</DistanceMeters>
          </Trackpoint>
          <Trackpoint>
            <Time>2021-08-10T12:08:08.000Z</Time>
            <Position>
              <LatitudeDegrees>43.20297989062964916229248046875</LatitudeDegrees>
              <LongitudeDegrees>-1.67003561742603778839111328125</LongitudeDegrees>
            </Position>
            <AltitudeMeters>96.1999969482421875</AltitudeMeters>
            <DistanceMeters>NAN</DistanceMeters>
          </Trackpoint>
          <Trackpoint>
            <Time>2021-08-10T12:08:09.000Z</Time>
            <Position>
              <LatitudeDegrees>43.20298106409609317779541015625</LatitudeDegrees>
              <LongitudeDegrees>-1.66997610591351985931396484375</LongitudeDegrees>
            </Position>
            <AltitudeMeters>96.1999969482421875</AltitudeMeters>
            <DistanceMeters>NAN</DistanceMeters>
          </Trackpoint>
          <Trackpoint>
            <Time>2021-08-10T12:08:10.000Z</Time>
            <Position>
              <LatitudeDegrees>43.2029821537435054779052734375</LatitudeDegrees>
              <LongitudeDegrees>-1.66991827078163623809814453125</LongitudeDegrees>
            </Position>
            <AltitudeMeters>96.1999969482421875</AltitudeMeters>
            <DistanceMeters>NAN</DistanceMeters>
          </Trackpoint>
          <Trackpoint>
            <Time>2021-08-10T12:08:11.000Z</Time>
            <Position>
              <LatitudeDegrees>43.20297771133482456207275390625</LatitudeDegrees>
              <LongitudeDegrees>-1.66986160911619663238525390625</LongitudeDegrees>
            </Position>
            <AltitudeMeters>96.1999969482421875</AltitudeMeters>
            <DistanceMeters>NAN</DistanceMeters>
          </Trackpoint>
          <Trackpoint>
            <Time>2021-08-10T12:08:12.000Z</Time>
            <Position>
              <LatitudeDegrees>43.202981986105442047119140625</LatitudeDegrees>
              <LongitudeDegrees>-1.66979455389082431793212890625</LongitudeDegrees>
            </Position>
            <AltitudeMeters>96.1999969482421875</AltitudeMeters>
            <DistanceMeters>NAN</DistanceMeters>
          </Trackpoint>
          <Trackpoint>
            <Time>2021-08-10T12:08:15.000Z</Time>
            <Position>
              <LatitudeDegrees>43.20297251455485820770263671875</LatitudeDegrees>
              <LongitudeDegrees>-1.66959154419600963592529296875</LongitudeDegrees>
            </Position>
            <AltitudeMeters>96.1999969482421875</AltitudeMeters>
            <DistanceMeters>NAN</DistanceMeters>
          </Trackpoint>
          <Trackpoint>
            <Time>2021-08-10T12:08:16.000Z</Time>
            <Position>
              <LatitudeDegrees>43.2029690779745578765869140625</LatitudeDegrees>
              <LongitudeDegrees>-1.66953940875828266143798828125</LongitudeDegrees>
            </Position>
            <AltitudeMeters>96.1999969482421875</AltitudeMeters>
            <DistanceMeters>NAN</DistanceMeters>
          </Trackpoint>
          <Trackpoint>
            <Time>2021-08-10T12:08:20.000Z</Time>
            <Position>
              <LatitudeDegrees>43.2029747776687145233154296875</LatitudeDegrees>
              <LongitudeDegrees>-1.66925459168851375579833984375</LongitudeDegrees>
            </Position>
            <AltitudeMeters>95.8000030517578125</AltitudeMeters>
            <DistanceMeters>NAN</DistanceMeters>
          </Trackpoint>
          <Trackpoint>
            <Time>2021-08-10T12:08:22.000Z</Time>
            <Position>
              <LatitudeDegrees>43.20300914347171783447265625</LatitudeDegrees>
              <LongitudeDegrees>-1.669069938361644744873046875</LongitudeDegrees>
            </Position>
            <AltitudeMeters>95.8000030517578125</AltitudeMeters>
            <DistanceMeters>NAN</DistanceMeters>
          </Trackpoint>
          <Trackpoint>
            <Time>2021-08-10T12:08:23.000Z</Time>
            <Position>
              <LatitudeDegrees>43.20303554646670818328857421875</LatitudeDegrees>
              <LongitudeDegrees>-1.6690010391175746917724609375</LongitudeDegrees>
            </Position>
            <AltitudeMeters>95.8000030517578125</AltitudeMeters>
            <DistanceMeters>NAN</DistanceMeters>
          </Trackpoint>
          <Trackpoint>
            <Time>2021-08-10T12:08:24.000Z</Time>
            <Position>
              <LatitudeDegrees>43.203055076301097869873046875</LatitudeDegrees>
              <LongitudeDegrees>-1.668947227299213409423828125</LongitudeDegrees>
            </Position>
            <AltitudeMeters>95.59999847412109375</AltitudeMeters>
            <DistanceMeters>NAN</DistanceMeters>
          </Trackpoint>
          <Trackpoint>
            <Time>2021-08-10T12:08:25.000Z</Time>
            <Position>
              <LatitudeDegrees>43.20305800996720790863037109375</LatitudeDegrees>
              <LongitudeDegrees>-1.66890104301273822784423828125</LongitudeDegrees>
            </Position>
            <AltitudeMeters>95.59999847412109375</AltitudeMeters>
            <DistanceMeters>NAN</DistanceMeters>
          </Trackpoint>
          <Trackpoint>
            <Time>2021-08-10T12:08:26.000Z</Time>
            <Position>
              <LatitudeDegrees>43.20306756533682346343994140625</LatitudeDegrees>
              <LongitudeDegrees>-1.66885443963110446929931640625</LongitudeDegrees>
            </Position>
            <AltitudeMeters>95.40000152587890625</AltitudeMeters>
            <DistanceMeters>NAN</DistanceMeters>
          </Trackpoint>
          <Trackpoint>
            <Time>2021-08-10T12:08:28.000Z</Time>
            <Position>
              <LatitudeDegrees>43.2030780427157878875732421875</LatitudeDegrees>
              <LongitudeDegrees>-1.66873994283378124237060546875</LongitudeDegrees>
            </Position>
            <AltitudeMeters>95.1999969482421875</AltitudeMeters>
            <DistanceMeters>NAN</DistanceMeters>
          </Trackpoint>
          <Trackpoint>
            <Time>2021-08-10T12:08:31.000Z</Time>
            <Position>
              <LatitudeDegrees>43.20308625698089599609375</LatitudeDegrees>
              <LongitudeDegrees>-1.66858236305415630340576171875</LongitudeDegrees>
            </Position>
            <AltitudeMeters>95.1999969482421875</AltitudeMeters>
            <DistanceMeters>NAN</DistanceMeters>
          </Trackpoint>
          <Trackpoint>
            <Time>2021-08-10T12:08:33.000Z</Time>
            <Position>
              <LatitudeDegrees>43.20310109294950962066650390625</LatitudeDegrees>
              <LongitudeDegrees>-1.6684729792177677154541015625</LongitudeDegrees>
            </Position>
            <AltitudeMeters>95</AltitudeMeters>
            <DistanceMeters>NAN</DistanceMeters>
          </Trackpoint>
          <Trackpoint>
            <Time>2021-08-10T12:08:34.000Z</Time>
            <Position>
              <LatitudeDegrees>43.20311014540493488311767578125</LatitudeDegrees>
              <LongitudeDegrees>-1.6684139706194400787353515625</LongitudeDegrees>
            </Position>
            <AltitudeMeters>95</AltitudeMeters>
            <DistanceMeters>NAN</DistanceMeters>
          </Trackpoint>
          <Trackpoint>
            <Time>2021-08-10T12:08:35.000Z</Time>
            <Position>
              <LatitudeDegrees>43.20311517454683780670166015625</LatitudeDegrees>
              <LongitudeDegrees>-1.66836393065750598907470703125</LongitudeDegrees>
            </Position>
            <AltitudeMeters>95</AltitudeMeters>
            <DistanceMeters>NAN</DistanceMeters>
          </Trackpoint>
          <Trackpoint>
            <Time>2021-08-10T12:08:37.000Z</Time>
            <Position>
              <LatitudeDegrees>43.2031105645000934600830078125</LatitudeDegrees>
              <LongitudeDegrees>-1.6682620905339717864990234375</LongitudeDegrees>
            </Position>
            <AltitudeMeters>95</AltitudeMeters>
            <DistanceMeters>NAN</DistanceMeters>
          </Trackpoint>
          <Trackpoint>
            <Time>2021-08-10T12:08:38.000Z</Time>
            <Position>
              <LatitudeDegrees>43.2031085528433322906494140625</LatitudeDegrees>
              <LongitudeDegrees>-1.6681920178234577178955078125</LongitudeDegrees>
            </Position>
            <AltitudeMeters>95.1999969482421875</AltitudeMeters>
            <DistanceMeters>NAN</DistanceMeters>
          </Trackpoint>
          <Trackpoint>
            <Time>2021-08-10T12:08:39.000Z</Time>
            <Position>
              <LatitudeDegrees>43.2031098939478397369384765625</LatitudeDegrees>
              <LongitudeDegrees>-1.6681380383670330047607421875</LongitudeDegrees>
            </Position>
            <AltitudeMeters>95.1999969482421875</AltitudeMeters>
            <DistanceMeters>NAN</DistanceMeters>
          </Trackpoint>
          <Trackpoint>
            <Time>2021-08-10T12:08:40.000Z</Time>
            <Position>
              <LatitudeDegrees>43.2031088881194591522216796875</LatitudeDegrees>
              <LongitudeDegrees>-1.66807718575000762939453125</LongitudeDegrees>
            </Position>
            <AltitudeMeters>95.1999969482421875</AltitudeMeters>
            <DistanceMeters>NAN</DistanceMeters>
          </Trackpoint>
          <Trackpoint>
            <Time>2021-08-10T12:08:41.000Z</Time>
            <Position>
              <LatitudeDegrees>43.2031062059104442596435546875</LatitudeDegrees>
              <LongitudeDegrees>-1.66799076832830905914306640625</LongitudeDegrees>
            </Position>
            <AltitudeMeters>95.1999969482421875</AltitudeMeters>
            <DistanceMeters>NAN</DistanceMeters>
          </Trackpoint>
          <Trackpoint>
            <Time>2021-08-10T12:08:42.000Z</Time>
            <Position>
              <LatitudeDegrees>43.20311081595718860626220703125</LatitudeDegrees>
              <LongitudeDegrees>-1.6678973101079463958740234375</LongitudeDegrees>
            </Position>
            <AltitudeMeters>95.1999969482421875</AltitudeMeters>
            <DistanceMeters>NAN</DistanceMeters>
          </Trackpoint>
          <Trackpoint>
            <Time>2021-08-10T12:08:43.000Z</Time>
            <Position>
              <LatitudeDegrees>43.20311517454683780670166015625</LatitudeDegrees>
              <LongitudeDegrees>-1.66782832704484462738037109375</LongitudeDegrees>
            </Position>
            <AltitudeMeters>95.1999969482421875</AltitudeMeters>
            <DistanceMeters>NAN</DistanceMeters>
          </Trackpoint>
          <Trackpoint>
            <Time>2021-08-10T12:08:44.000Z</Time>
            <Position>
              <LatitudeDegrees>43.2031238079071044921875</LatitudeDegrees>
              <LongitudeDegrees>-1.6677709110081195831298828125</LongitudeDegrees>
            </Position>
            <AltitudeMeters>95.1999969482421875</AltitudeMeters>
            <DistanceMeters>NAN</DistanceMeters>
          </Trackpoint>
          <Trackpoint>
            <Time>2021-08-10T12:08:46.000Z</Time>
            <Position>
              <LatitudeDegrees>43.20313361473381519317626953125</LatitudeDegrees>
              <LongitudeDegrees>-1.6676669754087924957275390625</LongitudeDegrees>
            </Position>
            <AltitudeMeters>95.1999969482421875</AltitudeMeters>
            <DistanceMeters>NAN</DistanceMeters>
          </Trackpoint>
          <Trackpoint>
            <Time>2021-08-10T12:08:50.000Z</Time>
            <Position>
              <LatitudeDegrees>43.20318826474249362945556640625</LatitudeDegrees>
              <LongitudeDegrees>-1.66741962544620037078857421875</LongitudeDegrees>
            </Position>
            <AltitudeMeters>95</AltitudeMeters>
            <DistanceMeters>NAN</DistanceMeters>
          </Trackpoint>
          <Trackpoint>
            <Time>2021-08-10T12:08:52.000Z</Time>
            <Position>
              <LatitudeDegrees>43.203222714364528656005859375</LatitudeDegrees>
              <LongitudeDegrees>-1.6672871075570583343505859375</LongitudeDegrees>
            </Position>
            <AltitudeMeters>95</AltitudeMeters>
            <DistanceMeters>NAN</DistanceMeters>
          </Trackpoint>
          <Trackpoint>
            <Time>2021-08-10T12:08:55.000Z</Time>
            <Position>
              <LatitudeDegrees>43.2032808847725391387939453125</LatitudeDegrees>
              <LongitudeDegrees>-1.66709952056407928466796875</LongitudeDegrees>
            </Position>
            <AltitudeMeters>95</AltitudeMeters>
            <DistanceMeters>NAN</DistanceMeters>
          </Trackpoint>
          <Trackpoint>
            <Time>2021-08-10T12:08:58.000Z</Time>
            <Position>
              <LatitudeDegrees>43.20333637297153472900390625</LatitudeDegrees>
              <LongitudeDegrees>-1.66692056693136692047119140625</LongitudeDegrees>
            </Position>
            <AltitudeMeters>95</AltitudeMeters>
            <DistanceMeters>NAN</DistanceMeters>
          </Trackpoint>
          <Trackpoint>
            <Time>2021-08-10T12:08:59.000Z</Time>
            <Position>
              <LatitudeDegrees>43.20336529053747653961181640625</LatitudeDegrees>
              <LongitudeDegrees>-1.6668777354061603546142578125</LongitudeDegrees>
            </Position>
            <AltitudeMeters>95</AltitudeMeters>
            <DistanceMeters>NAN</DistanceMeters>
          </Trackpoint>
          <Trackpoint>
            <Time>2021-08-10T12:09:00.000Z</Time>
            <Position>
              <LatitudeDegrees>43.20337853394448757171630859375</LatitudeDegrees>
              <LongitudeDegrees>-1.6668378375470638275146484375</LongitudeDegrees>
            </Position>
            <AltitudeMeters>95</AltitudeMeters>
            <DistanceMeters>NAN</DistanceMeters>
          </Trackpoint>
          <Trackpoint>
            <Time>2021-08-10T12:09:01.000Z</Time>
            <Position>
              <LatitudeDegrees>43.20338205434381961822509765625</LatitudeDegrees>
              <LongitudeDegrees>-1.6667885519564151763916015625</LongitudeDegrees>
            </Position>
            <AltitudeMeters>95</AltitudeMeters>
            <DistanceMeters>NAN</DistanceMeters>
          </Trackpoint>
          <Trackpoint>
            <Time>2021-08-10T12:09:02.000Z</Time>
            <Position>
              <LatitudeDegrees>43.2033905200660228729248046875</LatitudeDegrees>
              <LongitudeDegrees>-1.666736416518688201904296875</LongitudeDegrees>
            </Position>
            <AltitudeMeters>95</AltitudeMeters>
            <DistanceMeters>NAN</DistanceMeters>
          </Trackpoint>
          <Trackpoint>
            <Time>2021-08-10T12:09:04.000Z</Time>
            <Position>
              <LatitudeDegrees>43.203405104577541351318359375</LatitudeDegrees>
              <LongitudeDegrees>-1.66663457639515399932861328125</LongitudeDegrees>
            </Position>
            <AltitudeMeters>95</AltitudeMeters>
            <DistanceMeters>NAN</DistanceMeters>
          </Trackpoint>
          <Trackpoint>
            <Time>2021-08-10T12:09:05.000Z</Time>
            <Position>
              <LatitudeDegrees>43.203411810100078582763671875</LatitudeDegrees>
              <LongitudeDegrees>-1.6665843687951564788818359375</LongitudeDegrees>
            </Position>
            <AltitudeMeters>95</AltitudeMeters>
            <DistanceMeters>NAN</DistanceMeters>
          </Trackpoint>
          <Trackpoint>
            <Time>2021-08-10T12:09:06.000Z</Time>
            <Position>
              <LatitudeDegrees>43.203421197831630706787109375</LatitudeDegrees>
              <LongitudeDegrees>-1.6665397770702838897705078125</LongitudeDegrees>
            </Position>
            <AltitudeMeters>95</AltitudeMeters>
            <DistanceMeters>NAN</DistanceMeters>
          </Trackpoint>
          <Trackpoint>
            <Time>2021-08-10T12:09:07.000Z</Time>
            <Position>
              <LatitudeDegrees>43.20343368686735630035400390625</LatitudeDegrees>
              <LongitudeDegrees>-1.6664901562035083770751953125</LongitudeDegrees>
            </Position>
            <AltitudeMeters>95</AltitudeMeters>
            <DistanceMeters>NAN</DistanceMeters>
          </Trackpoint>
          <Trackpoint>
            <Time>2021-08-10T12:09:08.000Z</Time>
            <Position>
              <LatitudeDegrees>43.20344894193112850189208984375</LatitudeDegrees>
              <LongitudeDegrees>-1.666435338556766510009765625</LongitudeDegrees>
            </Position>
            <AltitudeMeters>95</AltitudeMeters>
            <DistanceMeters>NAN</DistanceMeters>
          </Trackpoint>
          <Trackpoint>
            <Time>2021-08-10T12:09:10.000Z</Time>
            <Position>
              <LatitudeDegrees>43.2034693099558353424072265625</LatitudeDegrees>
              <LongitudeDegrees>-1.66632243432104587554931640625</LongitudeDegrees>
            </Position>
            <AltitudeMeters>94.8000030517578125</AltitudeMeters>
            <DistanceMeters>NAN</DistanceMeters>
          </Trackpoint>
          <Trackpoint>
            <Time>2021-08-10T12:09:12.000Z</Time>
            <Position>
              <LatitudeDegrees>43.2034964673221111297607421875</LatitudeDegrees>
              <LongitudeDegrees>-1.66618715040385723114013671875</LongitudeDegrees>
            </Position>
            <AltitudeMeters>94.8000030517578125</AltitudeMeters>
            <DistanceMeters>NAN</DistanceMeters>
          </Trackpoint>
          <Trackpoint>
            <Time>2021-08-10T12:09:14.000Z</Time>
            <Position>
              <LatitudeDegrees>43.20351985283195972442626953125</LatitudeDegrees>
              <LongitudeDegrees>-1.666049100458621978759765625</LongitudeDegrees>
            </Position>
            <AltitudeMeters>94.59999847412109375</AltitudeMeters>
            <DistanceMeters>NAN</DistanceMeters>
          </Trackpoint>
          <Trackpoint>
            <Time>2021-08-10T12:09:15.000Z</Time>
            <Position>
              <LatitudeDegrees>43.20353628136217594146728515625</LatitudeDegrees>
              <LongitudeDegrees>-1.6659872420132160186767578125</LongitudeDegrees>
            </Position>
            <AltitudeMeters>94.59999847412109375</AltitudeMeters>
            <DistanceMeters>NAN</DistanceMeters>
          </Trackpoint>
          <Trackpoint>
            <Time>2021-08-10T12:09:16.000Z</Time>
            <Position>
              <LatitudeDegrees>43.2035544700920581817626953125</LatitudeDegrees>
              <LongitudeDegrees>-1.6659181751310825347900390625</LongitudeDegrees>
            </Position>
            <AltitudeMeters>94.59999847412109375</AltitudeMeters>
            <DistanceMeters>NAN</DistanceMeters>
          </Trackpoint>
          <Trackpoint>
            <Time>2021-08-10T12:09:18.000Z</Time>
            <Position>
              <LatitudeDegrees>43.20358850061893463134765625</LatitudeDegrees>
              <LongitudeDegrees>-1.66579387150704860687255859375</LongitudeDegrees>
            </Position>
            <AltitudeMeters>94.1999969482421875</AltitudeMeters>
            <DistanceMeters>NAN</DistanceMeters>
          </Trackpoint>
          <Trackpoint>
            <Time>2021-08-10T12:09:20.000Z</Time>
            <Position>
              <LatitudeDegrees>43.20361875928938388824462890625</LatitudeDegrees>
              <LongitudeDegrees>-1.66567350737750530242919921875</LongitudeDegrees>
            </Position>
            <AltitudeMeters>94.1999969482421875</AltitudeMeters>
            <DistanceMeters>NAN</DistanceMeters>
          </Trackpoint>
          <Trackpoint>
            <Time>2021-08-10T12:09:22.000Z</Time>
            <Position>
              <LatitudeDegrees>43.20362479425966739654541015625</LatitudeDegrees>
              <LongitudeDegrees>-1.6655456833541393280029296875</LongitudeDegrees>
            </Position>
            <AltitudeMeters>94</AltitudeMeters>
            <DistanceMeters>NAN</DistanceMeters>
          </Trackpoint>
          <Trackpoint>
            <Time>2021-08-10T12:09:23.000Z</Time>
            <Position>
              <LatitudeDegrees>43.2036349363625049591064453125</LatitudeDegrees>
              <LongitudeDegrees>-1.66547301225364208221435546875</LongitudeDegrees>
            </Position>
            <AltitudeMeters>94</AltitudeMeters>
            <DistanceMeters>NAN</DistanceMeters>
          </Trackpoint>
          <Trackpoint>
            <Time>2021-08-10T12:09:26.000Z</Time>
            <Position>
              <LatitudeDegrees>43.2036573998630046844482421875</LatitudeDegrees>
              <LongitudeDegrees>-1.665286682546138763427734375</LongitudeDegrees>
            </Position>
            <AltitudeMeters>94</AltitudeMeters>
            <DistanceMeters>NAN</DistanceMeters>
          </Trackpoint>
          <Trackpoint>
            <Time>2021-08-10T12:09:27.000Z</Time>
            <Position>
              <LatitudeDegrees>43.2036654464900493621826171875</LatitudeDegrees>
              <LongitudeDegrees>-1.66524074971675872802734375</LongitudeDegrees>
            </Position>
            <AltitudeMeters>94</AltitudeMeters>
            <DistanceMeters>NAN</DistanceMeters>
          </Trackpoint>
          <Trackpoint>
            <Time>2021-08-10T12:09:28.000Z</Time>
            <Position>
              <LatitudeDegrees>43.20367743261158466339111328125</LatitudeDegrees>
              <LongitudeDegrees>-1.66518366895616054534912109375</LongitudeDegrees>
            </Position>
            <AltitudeMeters>94</AltitudeMeters>
            <DistanceMeters>NAN</DistanceMeters>
          </Trackpoint>
          <Trackpoint>
            <Time>2021-08-10T12:09:29.000Z</Time>
            <Position>
              <LatitudeDegrees>43.20368413813412189483642578125</LatitudeDegrees>
              <LongitudeDegrees>-1.6651346348226070404052734375</LongitudeDegrees>
            </Position>
            <AltitudeMeters>94</AltitudeMeters>
            <DistanceMeters>NAN</DistanceMeters>
          </Trackpoint>
          <Trackpoint>
            <Time>2021-08-10T12:09:30.000Z</Time>
            <Position>
              <LatitudeDegrees>43.20368799380958080291748046875</LatitudeDegrees>
              <LongitudeDegrees>-1.6650816611945629119873046875</LongitudeDegrees>
            </Position>
            <AltitudeMeters>94</AltitudeMeters>
            <DistanceMeters>NAN</DistanceMeters>
          </Trackpoint>
          <Trackpoint>
            <Time>2021-08-10T12:09:33.000Z</Time>
            <Position>
              <LatitudeDegrees>43.20375747978687286376953125</LatitudeDegrees>
              <LongitudeDegrees>-1.664922572672367095947265625</LongitudeDegrees>
            </Position>
            <AltitudeMeters>94</AltitudeMeters>
            <DistanceMeters>NAN</DistanceMeters>
          </Trackpoint>
          <Trackpoint>
            <Time>2021-08-10T12:09:34.000Z</Time>
            <Position>
              <LatitudeDegrees>43.20377734489738941192626953125</LatitudeDegrees>
              <LongitudeDegrees>-1.6648650728166103363037109375</LongitudeDegrees>
            </Position>
            <AltitudeMeters>93.8000030517578125</AltitudeMeters>
            <DistanceMeters>NAN</DistanceMeters>
          </Trackpoint>
          <Trackpoint>
            <Time>2021-08-10T12:09:35.000Z</Time>
            <Position>
              <LatitudeDegrees>43.20379494689404964447021484375</LatitudeDegrees>
              <LongitudeDegrees>-1.6648144461214542388916015625</LongitudeDegrees>
            </Position>
            <AltitudeMeters>93.8000030517578125</AltitudeMeters>
            <DistanceMeters>NAN</DistanceMeters>
          </Trackpoint>
          <Trackpoint>
            <Time>2021-08-10T12:09:39.000Z</Time>
            <Position>
              <LatitudeDegrees>43.20386988110840320587158203125</LatitudeDegrees>
              <LongitudeDegrees>-1.66459023021161556243896484375</LongitudeDegrees>
            </Position>
            <AltitudeMeters>93.59999847412109375</AltitudeMeters>
            <DistanceMeters>NAN</DistanceMeters>
          </Trackpoint>
          <Trackpoint>
            <Time>2021-08-10T12:09:40.000Z</Time>
            <Position>
              <LatitudeDegrees>43.20388547144830226898193359375</LatitudeDegrees>
              <LongitudeDegrees>-1.66453440673649311065673828125</LongitudeDegrees>
            </Position>
            <AltitudeMeters>93.59999847412109375</AltitudeMeters>
            <DistanceMeters>NAN</DistanceMeters>
          </Trackpoint>
          <Trackpoint>
            <Time>2021-08-10T12:09:41.000Z</Time>
            <Position>
              <LatitudeDegrees>43.20389754138886928558349609375</LatitudeDegrees>
              <LongitudeDegrees>-1.66448076255619525909423828125</LongitudeDegrees>
            </Position>
            <AltitudeMeters>93.40000152587890625</AltitudeMeters>
            <DistanceMeters>NAN</DistanceMeters>
          </Trackpoint>
          <Trackpoint>
            <Time>2021-08-10T12:09:43.000Z</Time>
            <Position>
              <LatitudeDegrees>43.20392838679254055023193359375</LatitudeDegrees>
              <LongitudeDegrees>-1.66438839398324489593505859375</LongitudeDegrees>
            </Position>
            <AltitudeMeters>93.1999969482421875</AltitudeMeters>
            <DistanceMeters>NAN</DistanceMeters>
          </Trackpoint>
          <Trackpoint>
            <Time>2021-08-10T12:09:44.000Z</Time>
            <Position>
              <LatitudeDegrees>43.2039480842649936676025390625</LatitudeDegrees>
              <LongitudeDegrees>-1.6643286310136318206787109375</LongitudeDegrees>
            </Position>
            <AltitudeMeters>93.1999969482421875</AltitudeMeters>
            <DistanceMeters>NAN</DistanceMeters>
          </Trackpoint>
          <Trackpoint>
            <Time>2021-08-10T12:09:45.000Z</Time>
            <Position>
              <LatitudeDegrees>43.2039621658623218536376953125</LatitudeDegrees>
              <LongitudeDegrees>-1.66428278200328350067138671875</LongitudeDegrees>
            </Position>
            <AltitudeMeters>93.1999969482421875</AltitudeMeters>
            <DistanceMeters>NAN</DistanceMeters>
          </Trackpoint>
          <Trackpoint>
            <Time>2021-08-10T12:09:46.000Z</Time>
            <Position>
              <LatitudeDegrees>43.203974068164825439453125</LatitudeDegrees>
              <LongitudeDegrees>-1.664247326552867889404296875</LongitudeDegrees>
            </Position>
            <AltitudeMeters>93.1999969482421875</AltitudeMeters>
            <DistanceMeters>NAN</DistanceMeters>
          </Trackpoint>
          <Trackpoint>
            <Time>2021-08-10T12:09:47.000Z</Time>
            <Position>
              <LatitudeDegrees>43.20398622192442417144775390625</LatitudeDegrees>
              <LongitudeDegrees>-1.66419929824769496917724609375</LongitudeDegrees>
            </Position>
            <AltitudeMeters>93.1999969482421875</AltitudeMeters>
            <DistanceMeters>NAN</DistanceMeters>
          </Trackpoint>
          <Trackpoint>
            <Time>2021-08-10T12:09:48.000Z</Time>
            <Position>
              <LatitudeDegrees>43.203995861113071441650390625</LatitudeDegrees>
              <LongitudeDegrees>-1.6641519404947757720947265625</LongitudeDegrees>
            </Position>
            <AltitudeMeters>93</AltitudeMeters>
            <DistanceMeters>NAN</DistanceMeters>
          </Trackpoint>
          <Trackpoint>
            <Time>2021-08-10T12:09:49.000Z</Time>
            <Position>
              <LatitudeDegrees>43.20400767959654331207275390625</LatitudeDegrees>
              <LongitudeDegrees>-1.66409670375287532806396484375</LongitudeDegrees>
            </Position>
            <AltitudeMeters>93</AltitudeMeters>
            <DistanceMeters>NAN</DistanceMeters>
          </Trackpoint>
          <Trackpoint>
            <Time>2021-08-10T12:09:50.000Z</Time>
            <Position>
              <LatitudeDegrees>43.20401958189904689788818359375</LatitudeDegrees>
              <LongitudeDegrees>-1.66404959745705127716064453125</LongitudeDegrees>
            </Position>
            <AltitudeMeters>93</AltitudeMeters>
            <DistanceMeters>NAN</DistanceMeters>
          </Trackpoint>
          <Trackpoint>
            <Time>2021-08-10T12:09:51.000Z</Time>
            <Position>
              <LatitudeDegrees>43.2040302269160747528076171875</LatitudeDegrees>
              <LongitudeDegrees>-1.66400869376957416534423828125</LongitudeDegrees>
            </Position>
            <AltitudeMeters>93</AltitudeMeters>
            <DistanceMeters>NAN</DistanceMeters>
          </Trackpoint>
          <Trackpoint>
            <Time>2021-08-10T12:09:52.000Z</Time>
            <Position>
              <LatitudeDegrees>43.2040419615805149078369140625</LatitudeDegrees>
              <LongitudeDegrees>-1.66398011147975921630859375</LongitudeDegrees>
            </Position>
            <AltitudeMeters>93</AltitudeMeters>
            <DistanceMeters>NAN</DistanceMeters>
          </Trackpoint>
          <Trackpoint>
            <Time>2021-08-10T12:09:53.000Z</Time>
            <Position>
              <LatitudeDegrees>43.20405763573944568634033203125</LatitudeDegrees>
              <LongitudeDegrees>-1.663945578038692474365234375</LongitudeDegrees>
            </Position>
            <AltitudeMeters>93</AltitudeMeters>
            <DistanceMeters>NAN</DistanceMeters>
          </Trackpoint>
          <Trackpoint>
            <Time>2021-08-10T12:09:54.000Z</Time>
            <Position>
              <LatitudeDegrees>43.20407590828835964202880859375</LatitudeDegrees>
              <LongitudeDegrees>-1.6638967953622341156005859375</LongitudeDegrees>
            </Position>
            <AltitudeMeters>93</AltitudeMeters>
            <DistanceMeters>NAN</DistanceMeters>
          </Trackpoint>
          <Trackpoint>
            <Time>2021-08-10T12:09:55.000Z</Time>
            <Position>
              <LatitudeDegrees>43.204091750085353851318359375</LatitudeDegrees>
              <LongitudeDegrees>-1.66385027579963207244873046875</LongitudeDegrees>
            </Position>
            <AltitudeMeters>93</AltitudeMeters>
            <DistanceMeters>NAN</DistanceMeters>
          </Trackpoint>
          <Trackpoint>
            <Time>2021-08-10T12:09:57.000Z</Time>
            <Position>
              <LatitudeDegrees>43.20412737317383289337158203125</LatitudeDegrees>
              <LongitudeDegrees>-1.66375623084604740142822265625</LongitudeDegrees>
            </Position>
            <AltitudeMeters>93</AltitudeMeters>
            <DistanceMeters>NAN</DistanceMeters>
          </Trackpoint>
          <Trackpoint>
            <Time>2021-08-10T12:09:59.000Z</Time>
            <Position>
              <LatitudeDegrees>43.2041599787771701812744140625</LatitudeDegrees>
              <LongitudeDegrees>-1.66366352699697017669677734375</LongitudeDegrees>
            </Position>
            <AltitudeMeters>93</AltitudeMeters>
            <DistanceMeters>NAN</DistanceMeters>
          </Trackpoint>
          <Trackpoint>
            <Time>2021-08-10T12:10:00.000Z</Time>
            <Position>
              <LatitudeDegrees>43.204178251326084136962890625</LatitudeDegrees>
              <LongitudeDegrees>-1.66362061165273189544677734375</LongitudeDegrees>
            </Position>
            <AltitudeMeters>92.8000030517578125</AltitudeMeters>
            <DistanceMeters>NAN</DistanceMeters>
          </Trackpoint>
          <Trackpoint>
            <Time>2021-08-10T12:10:01.000Z</Time>
            <Position>
              <LatitudeDegrees>43.20419275201857089996337890625</LatitudeDegrees>
              <LongitudeDegrees>-1.66357853449881076812744140625</LongitudeDegrees>
            </Position>
            <AltitudeMeters>92.8000030517578125</AltitudeMeters>
            <DistanceMeters>NAN</DistanceMeters>
          </Trackpoint>
          <Trackpoint>
            <Time>2021-08-10T12:10:02.000Z</Time>
            <Position>
              <LatitudeDegrees>43.20420683361589908599853515625</LatitudeDegrees>
              <LongitudeDegrees>-1.663548946380615234375</LongitudeDegrees>
            </Position>
            <AltitudeMeters>92.8000030517578125</AltitudeMeters>
            <DistanceMeters>NAN</DistanceMeters>
          </Trackpoint>
          <Trackpoint>
            <Time>2021-08-10T12:10:05.000Z</Time>
            <Position>
              <LatitudeDegrees>43.20424572564661502838134765625</LatitudeDegrees>
              <LongitudeDegrees>-1.663437299430370330810546875</LongitudeDegrees>
            </Position>
            <AltitudeMeters>92.59999847412109375</AltitudeMeters>
            <DistanceMeters>NAN</DistanceMeters>
          </Trackpoint>
          <Trackpoint>
            <Time>2021-08-10T12:10:06.000Z</Time>
            <Position>
              <LatitudeDegrees>43.204256705939769744873046875</LatitudeDegrees>
              <LongitudeDegrees>-1.6634025983512401580810546875</LongitudeDegrees>
            </Position>
            <AltitudeMeters>92.59999847412109375</AltitudeMeters>
            <DistanceMeters>NAN</DistanceMeters>
          </Trackpoint>
          <Trackpoint>
            <Time>2021-08-10T12:10:07.000Z</Time>
            <Position>
              <LatitudeDegrees>43.20426550693809986114501953125</LatitudeDegrees>
              <LongitudeDegrees>-1.663374267518520355224609375</LongitudeDegrees>
            </Position>
            <AltitudeMeters>92.59999847412109375</AltitudeMeters>
            <DistanceMeters>NAN</DistanceMeters>
          </Trackpoint>
          <Trackpoint>
            <Time>2021-08-10T12:10:08.000Z</Time>
            <Position>
              <LatitudeDegrees>43.2042810134589672088623046875</LatitudeDegrees>
              <LongitudeDegrees>-1.66333981789648532867431640625</LongitudeDegrees>
            </Position>
            <AltitudeMeters>92.59999847412109375</AltitudeMeters>
            <DistanceMeters>NAN</DistanceMeters>
          </Trackpoint>
          <Trackpoint>
            <Time>2021-08-10T12:10:09.000Z</Time>
            <Position>
              <LatitudeDegrees>43.204300291836261749267578125</LatitudeDegrees>
              <LongitudeDegrees>-1.66329807601869106292724609375</LongitudeDegrees>
            </Position>
            <AltitudeMeters>92.59999847412109375</AltitudeMeters>
            <DistanceMeters>NAN</DistanceMeters>
          </Trackpoint>
          <Trackpoint>
            <Time>2021-08-10T12:10:10.000Z</Time>
            <Position>
              <LatitudeDegrees>43.20432032458484172821044921875</LatitudeDegrees>
              <LongitudeDegrees>-1.663247533142566680908203125</LongitudeDegrees>
            </Position>
            <AltitudeMeters>92.40000152587890625</AltitudeMeters>
            <DistanceMeters>NAN</DistanceMeters>
          </Trackpoint>
          <Trackpoint>
            <Time>2021-08-10T12:10:14.000Z</Time>
            <Position>
              <LatitudeDegrees>43.20438352413475513458251953125</LatitudeDegrees>
              <LongitudeDegrees>-1.6630889475345611572265625</LongitudeDegrees>
            </Position>
            <AltitudeMeters>92.40000152587890625</AltitudeMeters>
            <DistanceMeters>NAN</DistanceMeters>
          </Trackpoint>
          <Trackpoint>
            <Time>2021-08-10T12:10:19.000Z</Time>
            <Position>
              <LatitudeDegrees>43.204482682049274444580078125</LatitudeDegrees>
              <LongitudeDegrees>-1.6629194654524326324462890625</LongitudeDegrees>
            </Position>
            <AltitudeMeters>92.59999847412109375</AltitudeMeters>
            <DistanceMeters>NAN</DistanceMeters>
          </Trackpoint>
          <Trackpoint>
            <Time>2021-08-10T12:10:20.000Z</Time>
            <Position>
              <LatitudeDegrees>43.2044989429414272308349609375</LatitudeDegrees>
              <LongitudeDegrees>-1.6628936491906642913818359375</LongitudeDegrees>
            </Position>
            <AltitudeMeters>92.59999847412109375</AltitudeMeters>
            <DistanceMeters>NAN</DistanceMeters>
          </Trackpoint>
          <Trackpoint>
            <Time>2021-08-10T12:10:22.000Z</Time>
            <Position>
              <LatitudeDegrees>43.2045261003077030181884765625</LatitudeDegrees>
              <LongitudeDegrees>-1.66284612379968166351318359375</LongitudeDegrees>
            </Position>
            <AltitudeMeters>92.59999847412109375</AltitudeMeters>
            <DistanceMeters>NAN</DistanceMeters>
          </Trackpoint>
          <Trackpoint>
            <Time>2021-08-10T12:10:23.000Z</Time>
            <Position>
              <LatitudeDegrees>43.20453976280987262725830078125</LatitudeDegrees>
              <LongitudeDegrees>-1.66282349266111850738525390625</LongitudeDegrees>
            </Position>
            <AltitudeMeters>92.59999847412109375</AltitudeMeters>
            <DistanceMeters>NAN</DistanceMeters>
          </Trackpoint>
          <Trackpoint>
            <Time>2021-08-10T12:10:24.000Z</Time>
            <Position>
              <LatitudeDegrees>43.20455283857882022857666015625</LatitudeDegrees>
              <LongitudeDegrees>-1.662798933684825897216796875</LongitudeDegrees>
            </Position>
            <AltitudeMeters>92.59999847412109375</AltitudeMeters>
            <DistanceMeters>NAN</DistanceMeters>
          </Trackpoint>
          <Trackpoint>
            <Time>2021-08-10T12:10:29.000Z</Time>
            <Position>
              <LatitudeDegrees>43.2046303711831569671630859375</LatitudeDegrees>
              <LongitudeDegrees>-1.66269935667514801025390625</LongitudeDegrees>
            </Position>
            <AltitudeMeters>92.59999847412109375</AltitudeMeters>
            <DistanceMeters>NAN</DistanceMeters>
          </Trackpoint>
          <Trackpoint>
            <Time>2021-08-10T12:10:30.000Z</Time>
            <Position>
              <LatitudeDegrees>43.20464302785694599151611328125</LatitudeDegrees>
              <LongitudeDegrees>-1.662680245935916900634765625</LongitudeDegrees>
            </Position>
            <AltitudeMeters>92.59999847412109375</AltitudeMeters>
            <DistanceMeters>NAN</DistanceMeters>
          </Trackpoint>
          <Trackpoint>
            <Time>2021-08-10T12:10:31.000Z</Time>
            <Position>
              <LatitudeDegrees>43.20465878583490848541259765625</LatitudeDegrees>
              <LongitudeDegrees>-1.66265912353992462158203125</LongitudeDegrees>
            </Position>
            <AltitudeMeters>92.59999847412109375</AltitudeMeters>
            <DistanceMeters>NAN</DistanceMeters>
          </Trackpoint>
          <Trackpoint>
            <Time>2021-08-10T12:10:32.000Z</Time>
            <Position>
              <LatitudeDegrees>43.20467370562255382537841796875</LatitudeDegrees>
              <LongitudeDegrees>-1.66263632476329803466796875</LongitudeDegrees>
            </Position>
            <AltitudeMeters>92.59999847412109375</AltitudeMeters>
            <DistanceMeters>NAN</DistanceMeters>
          </Trackpoint>
          <Trackpoint>
            <Time>2021-08-10T12:10:33.000Z</Time>
            <Position>
              <LatitudeDegrees>43.20468929596245288848876953125</LatitudeDegrees>
              <LongitudeDegrees>-1.66261863894760608673095703125</LongitudeDegrees>
            </Position>
            <AltitudeMeters>92.59999847412109375</AltitudeMeters>
            <DistanceMeters>NAN</DistanceMeters>
          </Trackpoint>
          <Trackpoint>
            <Time>2021-08-10T12:10:35.000Z</Time>
            <Position>
              <LatitudeDegrees>43.20472718216478824615478515625</LatitudeDegrees>
              <LongitudeDegrees>-1.6625768132507801055908203125</LongitudeDegrees>
            </Position>
            <AltitudeMeters>92.59999847412109375</AltitudeMeters>
            <DistanceMeters>NAN</DistanceMeters>
          </Trackpoint>
          <Trackpoint>
            <Time>2021-08-10T12:10:36.000Z</Time>
            <Position>
              <LatitudeDegrees>43.20474562235176563262939453125</LatitudeDegrees>
              <LongitudeDegrees>-1.66255678050220012664794921875</LongitudeDegrees>
            </Position>
            <AltitudeMeters>92.59999847412109375</AltitudeMeters>
            <DistanceMeters>NAN</DistanceMeters>
          </Trackpoint>
          <Trackpoint>
            <Time>2021-08-10T12:10:37.000Z</Time>
            <Position>
              <LatitudeDegrees>43.20476171560585498809814453125</LatitudeDegrees>
              <LongitudeDegrees>-1.6625369153916835784912109375</LongitudeDegrees>
            </Position>
            <AltitudeMeters>92.59999847412109375</AltitudeMeters>
            <DistanceMeters>NAN</DistanceMeters>
          </Trackpoint>
          <Trackpoint>
            <Time>2021-08-10T12:10:38.000Z</Time>
            <Position>
              <LatitudeDegrees>43.20477294735610485076904296875</LatitudeDegrees>
              <LongitudeDegrees>-1.6625288687646389007568359375</LongitudeDegrees>
            </Position>
            <AltitudeMeters>92.59999847412109375</AltitudeMeters>
            <DistanceMeters>NAN</DistanceMeters>
          </Trackpoint>
          <Trackpoint>
            <Time>2021-08-10T12:10:39.000Z</Time>
            <Position>
              <LatitudeDegrees>43.20478476583957672119140625</LatitudeDegrees>
              <LongitudeDegrees>-1.6625184752047061920166015625</LongitudeDegrees>
            </Position>
            <AltitudeMeters>92.59999847412109375</AltitudeMeters>
            <DistanceMeters>NAN</DistanceMeters>
          </Trackpoint>
          <Trackpoint>
            <Time>2021-08-10T12:10:40.000Z</Time>
            <Position>
              <LatitudeDegrees>43.204799853265285491943359375</LatitudeDegrees>
              <LongitudeDegrees>-1.662502549588680267333984375</LongitudeDegrees>
            </Position>
            <AltitudeMeters>92.8000030517578125</AltitudeMeters>
            <DistanceMeters>NAN</DistanceMeters>
          </Trackpoint>
          <Trackpoint>
            <Time>2021-08-10T12:10:41.000Z</Time>
            <Position>
              <LatitudeDegrees>43.20481284521520137786865234375</LatitudeDegrees>
              <LongitudeDegrees>-1.6624913178384304046630859375</LongitudeDegrees>
            </Position>
            <AltitudeMeters>92.8000030517578125</AltitudeMeters>
            <DistanceMeters>NAN</DistanceMeters>
          </Trackpoint>
          <Trackpoint>
            <Time>2021-08-10T12:10:42.000Z</Time>
            <Position>
              <LatitudeDegrees>43.20482810027897357940673828125</LatitudeDegrees>
              <LongitudeDegrees>-1.66247949935495853424072265625</LongitudeDegrees>
            </Position>
            <AltitudeMeters>92.8000030517578125</AltitudeMeters>
            <DistanceMeters>NAN</DistanceMeters>
          </Trackpoint>
          <Trackpoint>
            <Time>2021-08-10T12:10:43.000Z</Time>
            <Position>
              <LatitudeDegrees>43.2048472948372364044189453125</LatitudeDegrees>
              <LongitudeDegrees>-1.66246726177632808685302734375</LongitudeDegrees>
            </Position>
            <AltitudeMeters>92.8000030517578125</AltitudeMeters>
            <DistanceMeters>NAN</DistanceMeters>
          </Trackpoint>
          <Trackpoint>
            <Time>2021-08-10T12:10:45.000Z</Time>
            <Position>
              <LatitudeDegrees>43.2048873603343963623046875</LatitudeDegrees>
              <LongitudeDegrees>-1.66244261898100376129150390625</LongitudeDegrees>
            </Position>
            <AltitudeMeters>92.8000030517578125</AltitudeMeters>
            <DistanceMeters>NAN</DistanceMeters>
          </Trackpoint>
          <Trackpoint>
            <Time>2021-08-10T12:10:49.000Z</Time>
            <Position>
              <LatitudeDegrees>43.20498283021152019500732421875</LatitudeDegrees>
              <LongitudeDegrees>-1.66236399672925472259521484375</LongitudeDegrees>
            </Position>
            <AltitudeMeters>93.1999969482421875</AltitudeMeters>
            <DistanceMeters>NAN</DistanceMeters>
          </Trackpoint>
          <Trackpoint>
            <Time>2021-08-10T12:10:50.000Z</Time>
            <Position>
              <LatitudeDegrees>43.20500579662621021270751953125</LatitudeDegrees>
              <LongitudeDegrees>-1.6623501665890216827392578125</LongitudeDegrees>
            </Position>
            <AltitudeMeters>93.1999969482421875</AltitudeMeters>
            <DistanceMeters>NAN</DistanceMeters>
          </Trackpoint>
          <Trackpoint>
            <Time>2021-08-10T12:10:58.000Z</Time>
            <Position>
              <LatitudeDegrees>43.20521735586225986480712890625</LatitudeDegrees>
              <LongitudeDegrees>-1.6622754000127315521240234375</LongitudeDegrees>
            </Position>
            <AltitudeMeters>93.40000152587890625</AltitudeMeters>
            <DistanceMeters>NAN</DistanceMeters>
          </Trackpoint>
          <Trackpoint>
            <Time>2021-08-10T12:10:59.000Z</Time>
            <Position>
              <LatitudeDegrees>43.20523864589631557464599609375</LatitudeDegrees>
              <LongitudeDegrees>-1.66226509027183055877685546875</LongitudeDegrees>
            </Position>
            <AltitudeMeters>93.40000152587890625</AltitudeMeters>
            <DistanceMeters>NAN</DistanceMeters>
          </Trackpoint>
          <Trackpoint>
            <Time>2021-08-10T12:11:00.000Z</Time>
            <Position>
              <LatitudeDegrees>43.205259181559085845947265625</LatitudeDegrees>
              <LongitudeDegrees>-1.662260480225086212158203125</LongitudeDegrees>
            </Position>
            <AltitudeMeters>93.40000152587890625</AltitudeMeters>
            <DistanceMeters>NAN</DistanceMeters>
          </Trackpoint>
          <Trackpoint>
            <Time>2021-08-10T12:11:01.000Z</Time>
            <Position>
              <LatitudeDegrees>43.20528139360249042510986328125</LatitudeDegrees>
              <LongitudeDegrees>-1.662261150777339935302734375</LongitudeDegrees>
            </Position>
            <AltitudeMeters>93.40000152587890625</AltitudeMeters>
            <DistanceMeters>NAN</DistanceMeters>
          </Trackpoint>
          <Trackpoint>
            <Time>2021-08-10T12:11:02.000Z</Time>
            <Position>
              <LatitudeDegrees>43.2053076289594173431396484375</LatitudeDegrees>
              <LongitudeDegrees>-1.6622546128928661346435546875</LongitudeDegrees>
            </Position>
            <AltitudeMeters>93.40000152587890625</AltitudeMeters>
            <DistanceMeters>NAN</DistanceMeters>
          </Trackpoint>
          <Trackpoint>
            <Time>2021-08-10T12:11:03.000Z</Time>
            <Position>
              <LatitudeDegrees>43.205345682799816131591796875</LatitudeDegrees>
              <LongitudeDegrees>-1.66224463842809200286865234375</LongitudeDegrees>
            </Position>
            <AltitudeMeters>93.40000152587890625</AltitudeMeters>
            <DistanceMeters>NAN</DistanceMeters>
          </Trackpoint>
          <Trackpoint>
            <Time>2021-08-10T12:11:08.000Z</Time>
            <Position>
              <LatitudeDegrees>43.20549328811466693878173828125</LatitudeDegrees>
              <LongitudeDegrees>-1.6622341610491275787353515625</LongitudeDegrees>
            </Position>
            <AltitudeMeters>93.59999847412109375</AltitudeMeters>
            <DistanceMeters>NAN</DistanceMeters>
          </Trackpoint>
          <Trackpoint>
            <Time>2021-08-10T12:11:09.000Z</Time>
            <Position>
              <LatitudeDegrees>43.2055168412625789642333984375</LatitudeDegrees>
              <LongitudeDegrees>-1.66222997009754180908203125</LongitudeDegrees>
            </Position>
            <AltitudeMeters>93.59999847412109375</AltitudeMeters>
            <DistanceMeters>NAN</DistanceMeters>
          </Trackpoint>
          <Trackpoint>
            <Time>2021-08-10T12:11:10.000Z</Time>
            <Position>
              <LatitudeDegrees>43.2055403105914592742919921875</LatitudeDegrees>
              <LongitudeDegrees>-1.6622438840568065643310546875</LongitudeDegrees>
            </Position>
            <AltitudeMeters>93.59999847412109375</AltitudeMeters>
            <DistanceMeters>NAN</DistanceMeters>
          </Trackpoint>
          <Trackpoint>
            <Time>2021-08-10T12:11:11.000Z</Time>
            <Position>
              <LatitudeDegrees>43.20556587539613246917724609375</LatitudeDegrees>
              <LongitudeDegrees>-1.6622646711766719818115234375</LongitudeDegrees>
            </Position>
            <AltitudeMeters>93.59999847412109375</AltitudeMeters>
            <DistanceMeters>NAN</DistanceMeters>
          </Trackpoint>
          <Trackpoint>
            <Time>2021-08-10T12:11:12.000Z</Time>
            <Position>
              <LatitudeDegrees>43.20558071136474609375</LatitudeDegrees>
              <LongitudeDegrees>-1.6622764058411121368408203125</LongitudeDegrees>
            </Position>
            <AltitudeMeters>93.59999847412109375</AltitudeMeters>
            <DistanceMeters>NAN</DistanceMeters>
          </Trackpoint>
          <Trackpoint>
            <Time>2021-08-10T12:11:13.000Z</Time>
            <Position>
              <LatitudeDegrees>43.20558808743953704833984375</LatitudeDegrees>
              <LongitudeDegrees>-1.66228629648685455322265625</LongitudeDegrees>
            </Position>
            <AltitudeMeters>93.59999847412109375</AltitudeMeters>
            <DistanceMeters>NAN</DistanceMeters>
          </Trackpoint>
          <Trackpoint>
            <Time>2021-08-10T12:11:14.000Z</Time>
            <Position>
              <LatitudeDegrees>43.2055869139730930328369140625</LatitudeDegrees>
              <LongitudeDegrees>-1.66229358874261379241943359375</LongitudeDegrees>
            </Position>
            <AltitudeMeters>93.59999847412109375</AltitudeMeters>
            <DistanceMeters>NAN</DistanceMeters>
          </Trackpoint>
          <Trackpoint>
            <Time>2021-08-10T12:11:15.000Z</Time>
            <Position>
              <LatitudeDegrees>43.205577023327350616455078125</LatitudeDegrees>
              <LongitudeDegrees>-1.66230465285480022430419921875</LongitudeDegrees>
            </Position>
            <AltitudeMeters>93.59999847412109375</AltitudeMeters>
            <DistanceMeters>NAN</DistanceMeters>
          </Trackpoint>
          <Trackpoint>
            <Time>2021-08-10T12:11:16.000Z</Time>
            <Position>
              <LatitudeDegrees>43.20557006634771823883056640625</LatitudeDegrees>
              <LongitudeDegrees>-1.662317812442779541015625</LongitudeDegrees>
            </Position>
            <AltitudeMeters>93.59999847412109375</AltitudeMeters>
            <DistanceMeters>NAN</DistanceMeters>
          </Trackpoint>
          <Trackpoint>
            <Time>2021-08-10T12:11:17.000Z</Time>
            <Position>
              <LatitudeDegrees>43.20556000806391239166259765625</LatitudeDegrees>
              <LongitudeDegrees>-1.66232510469853878021240234375</LongitudeDegrees>
            </Position>
            <AltitudeMeters>93.59999847412109375</AltitudeMeters>
            <DistanceMeters>NAN</DistanceMeters>
          </Trackpoint>
          <Trackpoint>
            <Time>2021-08-10T12:11:19.000Z</Time>
            <Position>
              <LatitudeDegrees>43.20555263198912143707275390625</LatitudeDegrees>
              <LongitudeDegrees>-1.66233046911656856536865234375</LongitudeDegrees>
            </Position>
            <AltitudeMeters>93.59999847412109375</AltitudeMeters>
            <DistanceMeters>NAN</DistanceMeters>
          </Trackpoint>
          <Trackpoint>
            <Time>2021-08-10T12:11:21.000Z</Time>
            <Position>
              <LatitudeDegrees>43.20554693229496479034423828125</LatitudeDegrees>
              <LongitudeDegrees>-1.66233834810554981231689453125</LongitudeDegrees>
            </Position>
            <AltitudeMeters>93.59999847412109375</AltitudeMeters>
            <DistanceMeters>NAN</DistanceMeters>
          </Trackpoint>
          <Trackpoint>
            <Time>2021-08-10T12:11:23.000Z</Time>
            <Position>
              <LatitudeDegrees>43.20554525591433048248291015625</LatitudeDegrees>
              <LongitudeDegrees>-1.662342287600040435791015625</LongitudeDegrees>
            </Position>
            <AltitudeMeters>93.59999847412109375</AltitudeMeters>
            <DistanceMeters>NAN</DistanceMeters>
          </Trackpoint>
          <Trackpoint>
            <Time>2021-08-10T12:11:33.000Z</Time>
            <Position>
              <LatitudeDegrees>43.20555497892200946807861328125</LatitudeDegrees>
              <LongitudeDegrees>-1.6623253561556339263916015625</LongitudeDegrees>
            </Position>
            <AltitudeMeters>93.59999847412109375</AltitudeMeters>
            <DistanceMeters>NAN</DistanceMeters>
          </Trackpoint>
          <Trackpoint>
            <Time>2021-08-10T12:12:21.000Z</Time>
            <Position>
              <LatitudeDegrees>43.20555397309362888336181640625</LatitudeDegrees>
              <LongitudeDegrees>-1.66230884380638599395751953125</LongitudeDegrees>
            </Position>
            <AltitudeMeters>94.40000152587890625</AltitudeMeters>
            <DistanceMeters>NAN</DistanceMeters>
          </Trackpoint>
          <Trackpoint>
            <Time>2021-08-10T12:12:40.000Z</Time>
            <Position>
              <LatitudeDegrees>43.20554743520915508270263671875</LatitudeDegrees>
              <LongitudeDegrees>-1.6623246856033802032470703125</LongitudeDegrees>
            </Position>
            <AltitudeMeters>94.40000152587890625</AltitudeMeters>
            <DistanceMeters>NAN</DistanceMeters>
          </Trackpoint>
          <Trackpoint>
            <Time>2021-08-10T12:38:09.000Z</Time>
            <Position>
              <LatitudeDegrees>43.20523864589631557464599609375</LatitudeDegrees>
              <LongitudeDegrees>-1.6622204147279262542724609375</LongitudeDegrees>
            </Position>
            <AltitudeMeters>94.59999847412109375</AltitudeMeters>
            <DistanceMeters>NAN</DistanceMeters>
          </Trackpoint>
          <Trackpoint>
            <Time>2021-08-10T12:38:13.000Z</Time>
            <Position>
              <LatitudeDegrees>43.205237723886966705322265625</LatitudeDegrees>
              <LongitudeDegrees>-1.66225234977900981903076171875</LongitudeDegrees>
            </Position>
            <AltitudeMeters>94</AltitudeMeters>
            <DistanceMeters>NAN</DistanceMeters>
          </Trackpoint>
          <Trackpoint>
            <Time>2021-08-10T12:38:15.000Z</Time>
            <Position>
              <LatitudeDegrees>43.2053082995116710662841796875</LatitudeDegrees>
              <LongitudeDegrees>-1.66226877830922603607177734375</LongitudeDegrees>
            </Position>
            <AltitudeMeters>94</AltitudeMeters>
            <DistanceMeters>NAN</DistanceMeters>
          </Trackpoint>
          <Trackpoint>
            <Time>2021-08-10T12:38:16.000Z</Time>
            <Position>
              <LatitudeDegrees>43.2053344510495662689208984375</LatitudeDegrees>
              <LongitudeDegrees>-1.66229476220905780792236328125</LongitudeDegrees>
            </Position>
            <AltitudeMeters>94</AltitudeMeters>
            <DistanceMeters>NAN</DistanceMeters>
          </Trackpoint>
          <Trackpoint>
            <Time>2021-08-10T12:38:17.000Z</Time>
            <Position>
              <LatitudeDegrees>43.20535616017878055572509765625</LatitudeDegrees>
              <LongitudeDegrees>-1.66232518851757049560546875</LongitudeDegrees>
            </Position>
            <AltitudeMeters>93.59999847412109375</AltitudeMeters>
            <DistanceMeters>NAN</DistanceMeters>
          </Trackpoint>
          <Trackpoint>
            <Time>2021-08-10T12:38:18.000Z</Time>
            <Position>
              <LatitudeDegrees>43.20538247935473918914794921875</LatitudeDegrees>
              <LongitudeDegrees>-1.662324853241443634033203125</LongitudeDegrees>
            </Position>
            <AltitudeMeters>93.59999847412109375</AltitudeMeters>
            <DistanceMeters>NAN</DistanceMeters>
          </Trackpoint>
          <Trackpoint>
            <Time>2021-08-10T12:38:25.000Z</Time>
            <Position>
              <LatitudeDegrees>43.20544048212468624114990234375</LatitudeDegrees>
              <LongitudeDegrees>-1.66236198507249355316162109375</LongitudeDegrees>
            </Position>
            <AltitudeMeters>93.8000030517578125</AltitudeMeters>
            <DistanceMeters>NAN</DistanceMeters>
          </Trackpoint>
          <Trackpoint>
            <Time>2021-08-10T12:38:35.000Z</Time>
            <Position>
              <LatitudeDegrees>43.20544500835239887237548828125</LatitudeDegrees>
              <LongitudeDegrees>-1.66233717463910579681396484375</LongitudeDegrees>
            </Position>
            <AltitudeMeters>93.59999847412109375</AltitudeMeters>
            <DistanceMeters>NAN</DistanceMeters>
          </Trackpoint>
          <Trackpoint>
            <Time>2021-08-10T12:38:40.000Z</Time>
            <Position>
              <LatitudeDegrees>43.20544852875173091888427734375</LatitudeDegrees>
              <LongitudeDegrees>-1.66232460178434848785400390625</LongitudeDegrees>
            </Position>
            <AltitudeMeters>93.59999847412109375</AltitudeMeters>
            <DistanceMeters>NAN</DistanceMeters>
          </Trackpoint>
          <Trackpoint>
            <Time>2021-08-10T12:39:17.000Z</Time>
            <Position>
              <LatitudeDegrees>43.2054799608886241912841796875</LatitudeDegrees>
              <LongitudeDegrees>-1.66227011941373348236083984375</LongitudeDegrees>
            </Position>
            <AltitudeMeters>93.40000152587890625</AltitudeMeters>
            <DistanceMeters>NAN</DistanceMeters>
          </Trackpoint>
          <Trackpoint>
            <Time>2021-08-10T12:40:31.000Z</Time>
            <Position>
              <LatitudeDegrees>43.205530755221843719482421875</LatitudeDegrees>
              <LongitudeDegrees>-1.66229928843677043914794921875</LongitudeDegrees>
            </Position>
            <AltitudeMeters>94.1999969482421875</AltitudeMeters>
            <DistanceMeters>NAN</DistanceMeters>
          </Trackpoint>
          <Trackpoint>
            <Time>2021-08-10T12:41:07.000Z</Time>
            <Position>
              <LatitudeDegrees>43.20561633445322513580322265625</LatitudeDegrees>
              <LongitudeDegrees>-1.66226877830922603607177734375</LongitudeDegrees>
            </Position>
            <AltitudeMeters>93.40000152587890625</AltitudeMeters>
            <DistanceMeters>NAN</DistanceMeters>
          </Trackpoint>
          <Trackpoint>
            <Time>2021-08-10T12:41:13.000Z</Time>
            <Position>
              <LatitudeDegrees>43.20577726699411869049072265625</LatitudeDegrees>
              <LongitudeDegrees>-1.66228705085813999176025390625</LongitudeDegrees>
            </Position>
            <AltitudeMeters>93.40000152587890625</AltitudeMeters>
            <DistanceMeters>NAN</DistanceMeters>
          </Trackpoint>
          <Trackpoint>
            <Time>2021-08-10T12:41:18.000Z</Time>
            <Position>
              <LatitudeDegrees>43.2059513591229915618896484375</LatitudeDegrees>
              <LongitudeDegrees>-1.66233013384044170379638671875</LongitudeDegrees>
            </Position>
            <AltitudeMeters>93.1999969482421875</AltitudeMeters>
            <DistanceMeters>NAN</DistanceMeters>
          </Trackpoint>
          <Trackpoint>
            <Time>2021-08-10T12:41:21.000Z</Time>
            <Position>
              <LatitudeDegrees>43.206057809293270111083984375</LatitudeDegrees>
              <LongitudeDegrees>-1.66237346827983856201171875</LongitudeDegrees>
            </Position>
            <AltitudeMeters>93.1999969482421875</AltitudeMeters>
            <DistanceMeters>NAN</DistanceMeters>
          </Trackpoint>
          <Trackpoint>
            <Time>2021-08-10T12:41:22.000Z</Time>
            <Position>
              <LatitudeDegrees>43.206088654696941375732421875</LatitudeDegrees>
              <LongitudeDegrees>-1.66238562203943729400634765625</LongitudeDegrees>
            </Position>
            <AltitudeMeters>93.1999969482421875</AltitudeMeters>
            <DistanceMeters>NAN</DistanceMeters>
          </Trackpoint>
          <Trackpoint>
            <Time>2021-08-10T12:41:25.000Z</Time>
            <Position>
              <LatitudeDegrees>43.20617876015603542327880859375</LatitudeDegrees>
              <LongitudeDegrees>-1.66243373416364192962646484375</LongitudeDegrees>
            </Position>
            <AltitudeMeters>93.59999847412109375</AltitudeMeters>
            <DistanceMeters>NAN</DistanceMeters>
          </Trackpoint>
          <Trackpoint>
            <Time>2021-08-10T12:41:29.000Z</Time>
            <Position>
              <LatitudeDegrees>43.20633550174534320831298828125</LatitudeDegrees>
              <LongitudeDegrees>-1.66250615380704402923583984375</LongitudeDegrees>
            </Position>
            <AltitudeMeters>93.59999847412109375</AltitudeMeters>
            <DistanceMeters>NAN</DistanceMeters>
          </Trackpoint>
          <Trackpoint>
            <Time>2021-08-10T12:41:30.000Z</Time>
            <Position>
              <LatitudeDegrees>43.2063748128712177276611328125</LatitudeDegrees>
              <LongitudeDegrees>-1.66251587681472301483154296875</LongitudeDegrees>
            </Position>
            <AltitudeMeters>93.8000030517578125</AltitudeMeters>
            <DistanceMeters>NAN</DistanceMeters>
          </Trackpoint>
          <Trackpoint>
            <Time>2021-08-10T12:41:32.000Z</Time>
            <Position>
              <LatitudeDegrees>43.2064542733132839202880859375</LatitudeDegrees>
              <LongitudeDegrees>-1.66254638694226741790771484375</LongitudeDegrees>
            </Position>
            <AltitudeMeters>93.8000030517578125</AltitudeMeters>
            <DistanceMeters>NAN</DistanceMeters>
          </Trackpoint>
          <Trackpoint>
            <Time>2021-08-10T12:41:38.000Z</Time>
            <Position>
              <LatitudeDegrees>43.206702880561351776123046875</LatitudeDegrees>
              <LongitudeDegrees>-1.66264571249485015869140625</LongitudeDegrees>
            </Position>
            <AltitudeMeters>94</AltitudeMeters>
            <DistanceMeters>NAN</DistanceMeters>
          </Trackpoint>
          <Trackpoint>
            <Time>2021-08-10T12:41:40.000Z</Time>
            <Position>
              <LatitudeDegrees>43.2067929022014141082763671875</LatitudeDegrees>
              <LongitudeDegrees>-1.66268284432590007781982421875</LongitudeDegrees>
            </Position>
            <AltitudeMeters>94</AltitudeMeters>
            <DistanceMeters>NAN</DistanceMeters>
          </Trackpoint>
          <Trackpoint>
            <Time>2021-08-10T12:41:41.000Z</Time>
            <Position>
              <LatitudeDegrees>43.2068346440792083740234375</LatitudeDegrees>
              <LongitudeDegrees>-1.66269910521805286407470703125</LongitudeDegrees>
            </Position>
            <AltitudeMeters>94</AltitudeMeters>
            <DistanceMeters>NAN</DistanceMeters>
          </Trackpoint>
          <Trackpoint>
            <Time>2021-08-10T12:41:42.000Z</Time>
            <Position>
              <LatitudeDegrees>43.20687479339540004730224609375</LatitudeDegrees>
              <LongitudeDegrees>-1.662717126309871673583984375</LongitudeDegrees>
            </Position>
            <AltitudeMeters>94</AltitudeMeters>
            <DistanceMeters>NAN</DistanceMeters>
          </Trackpoint>
          <Trackpoint>
            <Time>2021-08-10T12:41:43.000Z</Time>
            <Position>
              <LatitudeDegrees>43.20691318251192569732666015625</LatitudeDegrees>
              <LongitudeDegrees>-1.6627357341349124908447265625</LongitudeDegrees>
            </Position>
            <AltitudeMeters>94.1999969482421875</AltitudeMeters>
            <DistanceMeters>NAN</DistanceMeters>
          </Trackpoint>
          <Trackpoint>
            <Time>2021-08-10T12:41:44.000Z</Time>
            <Position>
              <LatitudeDegrees>43.2069481350481510162353515625</LatitudeDegrees>
              <LongitudeDegrees>-1.66275727562606334686279296875</LongitudeDegrees>
            </Position>
            <AltitudeMeters>94.1999969482421875</AltitudeMeters>
            <DistanceMeters>NAN</DistanceMeters>
          </Trackpoint>
          <Trackpoint>
            <Time>2021-08-10T12:41:45.000Z</Time>
            <Position>
              <LatitudeDegrees>43.2069840095937252044677734375</LatitudeDegrees>
              <LongitudeDegrees>-1.66277806274592876434326171875</LongitudeDegrees>
            </Position>
            <AltitudeMeters>94.1999969482421875</AltitudeMeters>
            <DistanceMeters>NAN</DistanceMeters>
          </Trackpoint>
          <Trackpoint>
            <Time>2021-08-10T12:41:46.000Z</Time>
            <Position>
              <LatitudeDegrees>43.20701912976801395416259765625</LatitudeDegrees>
              <LongitudeDegrees>-1.66280136443674564361572265625</LongitudeDegrees>
            </Position>
            <AltitudeMeters>94.1999969482421875</AltitudeMeters>
            <DistanceMeters>NAN</DistanceMeters>
          </Trackpoint>
          <Trackpoint>
            <Time>2021-08-10T12:41:47.000Z</Time>
            <Position>
              <LatitudeDegrees>43.20705567486584186553955078125</LatitudeDegrees>
              <LongitudeDegrees>-1.66282298974692821502685546875</LongitudeDegrees>
            </Position>
            <AltitudeMeters>94.40000152587890625</AltitudeMeters>
            <DistanceMeters>NAN</DistanceMeters>
          </Trackpoint>
          <Trackpoint>
            <Time>2021-08-10T12:41:48.000Z</Time>
            <Position>
              <LatitudeDegrees>43.20709121413528919219970703125</LatitudeDegrees>
              <LongitudeDegrees>-1.66284084320068359375</LongitudeDegrees>
            </Position>
            <AltitudeMeters>94.40000152587890625</AltitudeMeters>
            <DistanceMeters>NAN</DistanceMeters>
          </Trackpoint>
          <Trackpoint>
            <Time>2021-08-10T12:41:49.000Z</Time>
            <Position>
              <LatitudeDegrees>43.20712356828153133392333984375</LatitudeDegrees>
              <LongitudeDegrees>-1.66285215876996517181396484375</LongitudeDegrees>
            </Position>
            <AltitudeMeters>94.59999847412109375</AltitudeMeters>
            <DistanceMeters>NAN</DistanceMeters>
          </Trackpoint>
          <Trackpoint>
            <Time>2021-08-10T12:41:50.000Z</Time>
            <Position>
              <LatitudeDegrees>43.20715256966650485992431640625</LatitudeDegrees>
              <LongitudeDegrees>-1.6628668271005153656005859375</LongitudeDegrees>
            </Position>
            <AltitudeMeters>94.59999847412109375</AltitudeMeters>
            <DistanceMeters>NAN</DistanceMeters>
          </Trackpoint>
          <Trackpoint>
            <Time>2021-08-10T12:41:51.000Z</Time>
            <Position>
              <LatitudeDegrees>43.20718525908887386322021484375</LatitudeDegrees>
              <LongitudeDegrees>-1.66287831030786037445068359375</LongitudeDegrees>
            </Position>
            <AltitudeMeters>94.59999847412109375</AltitudeMeters>
            <DistanceMeters>NAN</DistanceMeters>
          </Trackpoint>
          <Trackpoint>
            <Time>2021-08-10T12:41:55.000Z</Time>
            <Position>
              <LatitudeDegrees>43.207335881888866424560546875</LatitudeDegrees>
              <LongitudeDegrees>-1.6629550047218799591064453125</LongitudeDegrees>
            </Position>
            <AltitudeMeters>94.59999847412109375</AltitudeMeters>
            <DistanceMeters>NAN</DistanceMeters>
          </Trackpoint>
          <Trackpoint>
            <Time>2021-08-10T12:41:57.000Z</Time>
            <Position>
              <LatitudeDegrees>43.20741207338869571685791015625</LatitudeDegrees>
              <LongitudeDegrees>-1.66302398778498172760009765625</LongitudeDegrees>
            </Position>
            <AltitudeMeters>94.59999847412109375</AltitudeMeters>
            <DistanceMeters>NAN</DistanceMeters>
          </Trackpoint>
          <Trackpoint>
            <Time>2021-08-10T12:41:58.000Z</Time>
            <Position>
              <LatitudeDegrees>43.2074513845145702362060546875</LatitudeDegrees>
              <LongitudeDegrees>-1.66305500082671642303466796875</LongitudeDegrees>
            </Position>
            <AltitudeMeters>94.59999847412109375</AltitudeMeters>
            <DistanceMeters>NAN</DistanceMeters>
          </Trackpoint>
          <Trackpoint>
            <Time>2021-08-10T12:42:02.000Z</Time>
            <Position>
              <LatitudeDegrees>43.2075963914394378662109375</LatitudeDegrees>
              <LongitudeDegrees>-1.66316413320600986480712890625</LongitudeDegrees>
            </Position>
            <AltitudeMeters>94.8000030517578125</AltitudeMeters>
            <DistanceMeters>NAN</DistanceMeters>
          </Trackpoint>
          <Trackpoint>
            <Time>2021-08-10T12:42:06.000Z</Time>
            <Position>
              <LatitudeDegrees>43.20772287435829639434814453125</LatitudeDegrees>
              <LongitudeDegrees>-1.6632658056914806365966796875</LongitudeDegrees>
            </Position>
            <AltitudeMeters>94.59999847412109375</AltitudeMeters>
            <DistanceMeters>NAN</DistanceMeters>
          </Trackpoint>
          <Trackpoint>
            <Time>2021-08-10T12:42:07.000Z</Time>
            <Position>
              <LatitudeDegrees>43.2077578268945217132568359375</LatitudeDegrees>
              <LongitudeDegrees>-1.66329740546643733978271484375</LongitudeDegrees>
            </Position>
            <AltitudeMeters>94.59999847412109375</AltitudeMeters>
            <DistanceMeters>NAN</DistanceMeters>
          </Trackpoint>
          <Trackpoint>
            <Time>2021-08-10T12:42:08.000Z</Time>
            <Position>
              <LatitudeDegrees>43.20779060013592243194580078125</LatitudeDegrees>
              <LongitudeDegrees>-1.66333093307912349700927734375</LongitudeDegrees>
            </Position>
            <AltitudeMeters>94.59999847412109375</AltitudeMeters>
            <DistanceMeters>NAN</DistanceMeters>
          </Trackpoint>
          <Trackpoint>
            <Time>2021-08-10T12:42:09.000Z</Time>
            <Position>
              <LatitudeDegrees>43.20782312192022800445556640625</LatitudeDegrees>
              <LongitudeDegrees>-1.66336244903504848480224609375</LongitudeDegrees>
            </Position>
            <AltitudeMeters>94.59999847412109375</AltitudeMeters>
            <DistanceMeters>NAN</DistanceMeters>
          </Trackpoint>
          <Trackpoint>
            <Time>2021-08-10T12:42:10.000Z</Time>
            <Position>
              <LatitudeDegrees>43.207854889333248138427734375</LatitudeDegrees>
              <LongitudeDegrees>-1.66339379735291004180908203125</LongitudeDegrees>
            </Position>
            <AltitudeMeters>94.59999847412109375</AltitudeMeters>
            <DistanceMeters>NAN</DistanceMeters>
          </Trackpoint>
          <Trackpoint>
            <Time>2021-08-10T12:42:17.000Z</Time>
            <Position>
              <LatitudeDegrees>43.2080454938113689422607421875</LatitudeDegrees>
              <LongitudeDegrees>-1.66362379677593708038330078125</LongitudeDegrees>
            </Position>
            <AltitudeMeters>94.59999847412109375</AltitudeMeters>
            <DistanceMeters>NAN</DistanceMeters>
          </Trackpoint>
          <Trackpoint>
            <Time>2021-08-10T12:42:19.000Z</Time>
            <Position>
              <LatitudeDegrees>43.2080899178981781005859375</LatitudeDegrees>
              <LongitudeDegrees>-1.66367693804204463958740234375</LongitudeDegrees>
            </Position>
            <AltitudeMeters>94.59999847412109375</AltitudeMeters>
            <DistanceMeters>NAN</DistanceMeters>
          </Trackpoint>
          <Trackpoint>
            <Time>2021-08-10T12:42:21.000Z</Time>
            <Position>
              <LatitudeDegrees>43.20812654681503772735595703125</LatitudeDegrees>
              <LongitudeDegrees>-1.6637348569929599761962890625</LongitudeDegrees>
            </Position>
            <AltitudeMeters>94.59999847412109375</AltitudeMeters>
            <DistanceMeters>NAN</DistanceMeters>
          </Trackpoint>
          <Trackpoint>
            <Time>2021-08-10T12:42:22.000Z</Time>
            <Position>
              <LatitudeDegrees>43.2081462442874908447265625</LatitudeDegrees>
              <LongitudeDegrees>-1.66375924833118915557861328125</LongitudeDegrees>
            </Position>
            <AltitudeMeters>94.59999847412109375</AltitudeMeters>
            <DistanceMeters>NAN</DistanceMeters>
          </Trackpoint>
          <Trackpoint>
            <Time>2021-08-10T12:42:23.000Z</Time>
            <Position>
              <LatitudeDegrees>43.20816837251186370849609375</LatitudeDegrees>
              <LongitudeDegrees>-1.66378959082067012786865234375</LongitudeDegrees>
            </Position>
            <AltitudeMeters>94.59999847412109375</AltitudeMeters>
            <DistanceMeters>NAN</DistanceMeters>
          </Trackpoint>
          <Trackpoint>
            <Time>2021-08-10T12:42:27.000Z</Time>
            <Position>
              <LatitudeDegrees>43.2082620821893215179443359375</LatitudeDegrees>
              <LongitudeDegrees>-1.6638984717428684234619140625</LongitudeDegrees>
            </Position>
            <AltitudeMeters>94.8000030517578125</AltitudeMeters>
            <DistanceMeters>NAN</DistanceMeters>
          </Trackpoint>
          <Trackpoint>
            <Time>2021-08-10T12:42:35.000Z</Time>
            <Position>
              <LatitudeDegrees>43.20847808383405208587646484375</LatitudeDegrees>
              <LongitudeDegrees>-1.66416040621697902679443359375</LongitudeDegrees>
            </Position>
            <AltitudeMeters>94.40000152587890625</AltitudeMeters>
            <DistanceMeters>NAN</DistanceMeters>
          </Trackpoint>
          <Trackpoint>
            <Time>2021-08-10T12:42:36.000Z</Time>
            <Position>
              <LatitudeDegrees>43.208507001399993896484375</LatitudeDegrees>
              <LongitudeDegrees>-1.66418907232582569122314453125</LongitudeDegrees>
            </Position>
            <AltitudeMeters>94.40000152587890625</AltitudeMeters>
            <DistanceMeters>NAN</DistanceMeters>
          </Trackpoint>
          <Trackpoint>
            <Time>2021-08-10T12:42:38.000Z</Time>
            <Position>
              <LatitudeDegrees>43.20855318568646907806396484375</LatitudeDegrees>
              <LongitudeDegrees>-1.66424967348575592041015625</LongitudeDegrees>
            </Position>
            <AltitudeMeters>94.40000152587890625</AltitudeMeters>
            <DistanceMeters>NAN</DistanceMeters>
          </Trackpoint>
          <Trackpoint>
            <Time>2021-08-10T12:42:39.000Z</Time>
            <Position>
              <LatitudeDegrees>43.2085722126066684722900390625</LatitudeDegrees>
              <LongitudeDegrees>-1.6642843745648860931396484375</LongitudeDegrees>
            </Position>
            <AltitudeMeters>94.1999969482421875</AltitudeMeters>
            <DistanceMeters>NAN</DistanceMeters>
          </Trackpoint>
          <Trackpoint>
            <Time>2021-08-10T12:42:40.000Z</Time>
            <Position>
              <LatitudeDegrees>43.2085876353085041046142578125</LatitudeDegrees>
              <LongitudeDegrees>-1.66431463323533535003662109375</LongitudeDegrees>
            </Position>
            <AltitudeMeters>94</AltitudeMeters>
            <DistanceMeters>NAN</DistanceMeters>
          </Trackpoint>
          <Trackpoint>
            <Time>2021-08-10T12:42:41.000Z</Time>
            <Position>
              <LatitudeDegrees>43.208604566752910614013671875</LatitudeDegrees>
              <LongitudeDegrees>-1.6643464006483554840087890625</LongitudeDegrees>
            </Position>
            <AltitudeMeters>94</AltitudeMeters>
            <DistanceMeters>NAN</DistanceMeters>
          </Trackpoint>
          <Trackpoint>
            <Time>2021-08-10T12:42:42.000Z</Time>
            <Position>
              <LatitudeDegrees>43.208622001111507415771484375</LatitudeDegrees>
              <LongitudeDegrees>-1.6643732227385044097900390625</LongitudeDegrees>
            </Position>
            <AltitudeMeters>94</AltitudeMeters>
            <DistanceMeters>NAN</DistanceMeters>
          </Trackpoint>
          <Trackpoint>
            <Time>2021-08-10T12:42:43.000Z</Time>
            <Position>
              <LatitudeDegrees>43.2086402736604213714599609375</LatitudeDegrees>
              <LongitudeDegrees>-1.66440515778958797454833984375</LongitudeDegrees>
            </Position>
            <AltitudeMeters>94</AltitudeMeters>
            <DistanceMeters>NAN</DistanceMeters>
          </Trackpoint>
          <Trackpoint>
            <Time>2021-08-10T12:42:46.000Z</Time>
            <Position>
              <LatitudeDegrees>43.2087220810353755950927734375</LatitudeDegrees>
              <LongitudeDegrees>-1.6645086742937564849853515625</LongitudeDegrees>
            </Position>
            <AltitudeMeters>94</AltitudeMeters>
            <DistanceMeters>NAN</DistanceMeters>
          </Trackpoint>
          <Trackpoint>
            <Time>2021-08-10T12:42:50.000Z</Time>
            <Position>
              <LatitudeDegrees>43.20881838910281658172607421875</LatitudeDegrees>
              <LongitudeDegrees>-1.6646548546850681304931640625</LongitudeDegrees>
            </Position>
            <AltitudeMeters>94</AltitudeMeters>
            <DistanceMeters>NAN</DistanceMeters>
          </Trackpoint>
          <Trackpoint>
            <Time>2021-08-10T12:42:51.000Z</Time>
            <Position>
              <LatitudeDegrees>43.208845295011997222900390625</LatitudeDegrees>
              <LongitudeDegrees>-1.66469299234449863433837890625</LongitudeDegrees>
            </Position>
            <AltitudeMeters>94</AltitudeMeters>
            <DistanceMeters>NAN</DistanceMeters>
          </Trackpoint>
          <Trackpoint>
            <Time>2021-08-10T12:42:55.000Z</Time>
            <Position>
              <LatitudeDegrees>43.208974041044712066650390625</LatitudeDegrees>
              <LongitudeDegrees>-1.664846800267696380615234375</LongitudeDegrees>
            </Position>
            <AltitudeMeters>93.8000030517578125</AltitudeMeters>
            <DistanceMeters>NAN</DistanceMeters>
          </Trackpoint>
          <Trackpoint>
            <Time>2021-08-10T12:42:56.000Z</Time>
            <Position>
              <LatitudeDegrees>43.2090003602206707000732421875</LatitudeDegrees>
              <LongitudeDegrees>-1.66488778777420520782470703125</LongitudeDegrees>
            </Position>
            <AltitudeMeters>93.8000030517578125</AltitudeMeters>
            <DistanceMeters>NAN</DistanceMeters>
          </Trackpoint>
          <Trackpoint>
            <Time>2021-08-10T12:42:57.000Z</Time>
            <Position>
              <LatitudeDegrees>43.2090231589972972869873046875</LatitudeDegrees>
              <LongitudeDegrees>-1.664927266538143157958984375</LongitudeDegrees>
            </Position>
            <AltitudeMeters>93.8000030517578125</AltitudeMeters>
            <DistanceMeters>NAN</DistanceMeters>
          </Trackpoint>
          <Trackpoint>
            <Time>2021-08-10T12:42:58.000Z</Time>
            <Position>
              <LatitudeDegrees>43.20904721505939960479736328125</LatitudeDegrees>
              <LongitudeDegrees>-1.66497093625366687774658203125</LongitudeDegrees>
            </Position>
            <AltitudeMeters>93.8000030517578125</AltitudeMeters>
            <DistanceMeters>NAN</DistanceMeters>
          </Trackpoint>
          <Trackpoint>
            <Time>2021-08-10T12:42:59.000Z</Time>
            <Position>
              <LatitudeDegrees>43.20907185785472393035888671875</LatitudeDegrees>
              <LongitudeDegrees>-1.6650159470736980438232421875</LongitudeDegrees>
            </Position>
            <AltitudeMeters>93.8000030517578125</AltitudeMeters>
            <DistanceMeters>NAN</DistanceMeters>
          </Trackpoint>
          <Trackpoint>
            <Time>2021-08-10T12:43:00.000Z</Time>
            <Position>
              <LatitudeDegrees>43.2090932317078113555908203125</LatitudeDegrees>
              <LongitudeDegrees>-1.66505659930408000946044921875</LongitudeDegrees>
            </Position>
            <AltitudeMeters>93.8000030517578125</AltitudeMeters>
            <DistanceMeters>NAN</DistanceMeters>
          </Trackpoint>
          <Trackpoint>
            <Time>2021-08-10T12:43:02.000Z</Time>
            <Position>
              <LatitudeDegrees>43.20913732051849365234375</LatitudeDegrees>
              <LongitudeDegrees>-1.6651265881955623626708984375</LongitudeDegrees>
            </Position>
            <AltitudeMeters>94</AltitudeMeters>
            <DistanceMeters>NAN</DistanceMeters>
          </Trackpoint>
          <Trackpoint>
            <Time>2021-08-10T12:43:03.000Z</Time>
            <Position>
              <LatitudeDegrees>43.2091552577912807464599609375</LatitudeDegrees>
              <LongitudeDegrees>-1.66515969671308994293212890625</LongitudeDegrees>
            </Position>
            <AltitudeMeters>94</AltitudeMeters>
            <DistanceMeters>NAN</DistanceMeters>
          </Trackpoint>
          <Trackpoint>
            <Time>2021-08-10T12:43:06.000Z</Time>
            <Position>
              <LatitudeDegrees>43.20922155864536762237548828125</LatitudeDegrees>
              <LongitudeDegrees>-1.66524955071508884429931640625</LongitudeDegrees>
            </Position>
            <AltitudeMeters>94</AltitudeMeters>
            <DistanceMeters>NAN</DistanceMeters>
          </Trackpoint>
          <Trackpoint>
            <Time>2021-08-10T12:43:07.000Z</Time>
            <Position>
              <LatitudeDegrees>43.209246955811977386474609375</LatitudeDegrees>
              <LongitudeDegrees>-1.66527302004396915435791015625</LongitudeDegrees>
            </Position>
            <AltitudeMeters>94</AltitudeMeters>
            <DistanceMeters>NAN</DistanceMeters>
          </Trackpoint>
          <Trackpoint>
            <Time>2021-08-10T12:43:08.000Z</Time>
            <Position>
              <LatitudeDegrees>43.20925994776189327239990234375</LatitudeDegrees>
              <LongitudeDegrees>-1.66530453599989414215087890625</LongitudeDegrees>
            </Position>
            <AltitudeMeters>94.1999969482421875</AltitudeMeters>
            <DistanceMeters>NAN</DistanceMeters>
          </Trackpoint>
          <Trackpoint>
            <Time>2021-08-10T12:43:09.000Z</Time>
            <Position>
              <LatitudeDegrees>43.20927268825471401214599609375</LatitudeDegrees>
              <LongitudeDegrees>-1.6653418354690074920654296875</LongitudeDegrees>
            </Position>
            <AltitudeMeters>94</AltitudeMeters>
            <DistanceMeters>NAN</DistanceMeters>
          </Trackpoint>
          <Trackpoint>
            <Time>2021-08-10T12:43:10.000Z</Time>
            <Position>
              <LatitudeDegrees>43.209281153976917266845703125</LatitudeDegrees>
              <LongitudeDegrees>-1.6653847508132457733154296875</LongitudeDegrees>
            </Position>
            <AltitudeMeters>94</AltitudeMeters>
            <DistanceMeters>NAN</DistanceMeters>
          </Trackpoint>
          <Trackpoint>
            <Time>2021-08-10T12:43:11.000Z</Time>
            <Position>
              <LatitudeDegrees>43.209291212260723114013671875</LatitudeDegrees>
              <LongitudeDegrees>-1.66542573831975460052490234375</LongitudeDegrees>
            </Position>
            <AltitudeMeters>93.8000030517578125</AltitudeMeters>
            <DistanceMeters>NAN</DistanceMeters>
          </Trackpoint>
          <Trackpoint>
            <Time>2021-08-10T12:43:12.000Z</Time>
            <Position>
              <LatitudeDegrees>43.20929984562098979949951171875</LatitudeDegrees>
              <LongitudeDegrees>-1.66545876301825046539306640625</LongitudeDegrees>
            </Position>
            <AltitudeMeters>93.8000030517578125</AltitudeMeters>
            <DistanceMeters>NAN</DistanceMeters>
          </Trackpoint>
          <Trackpoint>
            <Time>2021-08-10T12:43:13.000Z</Time>
            <Position>
              <LatitudeDegrees>43.20930671878159046173095703125</LatitudeDegrees>
              <LongitudeDegrees>-1.66548927314579486846923828125</LongitudeDegrees>
            </Position>
            <AltitudeMeters>93.8000030517578125</AltitudeMeters>
            <DistanceMeters>NAN</DistanceMeters>
          </Trackpoint>
          <Trackpoint>
            <Time>2021-08-10T12:43:14.000Z</Time>
            <Position>
              <LatitudeDegrees>43.20931023918092250823974609375</LatitudeDegrees>
              <LongitudeDegrees>-1.665522716939449310302734375</LongitudeDegrees>
            </Position>
            <AltitudeMeters>93.8000030517578125</AltitudeMeters>
            <DistanceMeters>NAN</DistanceMeters>
          </Trackpoint>
          <Trackpoint>
            <Time>2021-08-10T12:43:15.000Z</Time>
            <Position>
              <LatitudeDegrees>43.20932163856923580169677734375</LatitudeDegrees>
              <LongitudeDegrees>-1.665556915104389190673828125</LongitudeDegrees>
            </Position>
            <AltitudeMeters>93.8000030517578125</AltitudeMeters>
            <DistanceMeters>NAN</DistanceMeters>
          </Trackpoint>
          <Trackpoint>
            <Time>2021-08-10T12:43:16.000Z</Time>
            <Position>
              <LatitudeDegrees>43.20933488197624683380126953125</LatitudeDegrees>
              <LongitudeDegrees>-1.66558885015547275543212890625</LongitudeDegrees>
            </Position>
            <AltitudeMeters>93.8000030517578125</AltitudeMeters>
            <DistanceMeters>NAN</DistanceMeters>
          </Trackpoint>
          <Trackpoint>
            <Time>2021-08-10T12:43:18.000Z</Time>
            <Position>
              <LatitudeDegrees>43.209361620247364044189453125</LatitudeDegrees>
              <LongitudeDegrees>-1.66567124426364898681640625</LongitudeDegrees>
            </Position>
            <AltitudeMeters>93.8000030517578125</AltitudeMeters>
            <DistanceMeters>NAN</DistanceMeters>
          </Trackpoint>
          <Trackpoint>
            <Time>2021-08-10T12:43:20.000Z</Time>
            <Position>
              <LatitudeDegrees>43.2094030268490314483642578125</LatitudeDegrees>
              <LongitudeDegrees>-1.6657532192766666412353515625</LongitudeDegrees>
            </Position>
            <AltitudeMeters>93.8000030517578125</AltitudeMeters>
            <DistanceMeters>NAN</DistanceMeters>
          </Trackpoint>
          <Trackpoint>
            <Time>2021-08-10T12:43:21.000Z</Time>
            <Position>
              <LatitudeDegrees>43.20941937156021595001220703125</LatitudeDegrees>
              <LongitudeDegrees>-1.66579320095479488372802734375</LongitudeDegrees>
            </Position>
            <AltitudeMeters>93.8000030517578125</AltitudeMeters>
            <DistanceMeters>NAN</DistanceMeters>
          </Trackpoint>
          <Trackpoint>
            <Time>2021-08-10T12:43:22.000Z</Time>
            <Position>
              <LatitudeDegrees>43.209434710443019866943359375</LatitudeDegrees>
              <LongitudeDegrees>-1.665840558707714080810546875</LongitudeDegrees>
            </Position>
            <AltitudeMeters>93.8000030517578125</AltitudeMeters>
            <DistanceMeters>NAN</DistanceMeters>
          </Trackpoint>
          <Trackpoint>
            <Time>2021-08-10T12:43:24.000Z</Time>
            <Position>
              <LatitudeDegrees>43.20947385393083095550537109375</LatitudeDegrees>
              <LongitudeDegrees>-1.66593653149902820587158203125</LongitudeDegrees>
            </Position>
            <AltitudeMeters>93.59999847412109375</AltitudeMeters>
            <DistanceMeters>NAN</DistanceMeters>
          </Trackpoint>
          <Trackpoint>
            <Time>2021-08-10T12:43:28.000Z</Time>
            <Position>
              <LatitudeDegrees>43.2095203734934329986572265625</LatitudeDegrees>
              <LongitudeDegrees>-1.666084639728069305419921875</LongitudeDegrees>
            </Position>
            <AltitudeMeters>93.59999847412109375</AltitudeMeters>
            <DistanceMeters>NAN</DistanceMeters>
          </Trackpoint>
          <Trackpoint>
            <Time>2021-08-10T12:43:29.000Z</Time>
            <Position>
              <LatitudeDegrees>43.20953051559627056121826171875</LatitudeDegrees>
              <LongitudeDegrees>-1.66612126864492893218994140625</LongitudeDegrees>
            </Position>
            <AltitudeMeters>93.59999847412109375</AltitudeMeters>
            <DistanceMeters>NAN</DistanceMeters>
          </Trackpoint>
          <Trackpoint>
            <Time>2021-08-10T12:43:30.000Z</Time>
            <Position>
              <LatitudeDegrees>43.2095274142920970916748046875</LatitudeDegrees>
              <LongitudeDegrees>-1.66615798138082027435302734375</LongitudeDegrees>
            </Position>
            <AltitudeMeters>93.59999847412109375</AltitudeMeters>
            <DistanceMeters>NAN</DistanceMeters>
          </Trackpoint>
          <Trackpoint>
            <Time>2021-08-10T12:43:31.000Z</Time>
            <Position>
              <LatitudeDegrees>43.209525905549526214599609375</LatitudeDegrees>
              <LongitudeDegrees>-1.66619561612606048583984375</LongitudeDegrees>
            </Position>
            <AltitudeMeters>93.59999847412109375</AltitudeMeters>
            <DistanceMeters>NAN</DistanceMeters>
          </Trackpoint>
          <Trackpoint>
            <Time>2021-08-10T12:43:32.000Z</Time>
            <Position>
              <LatitudeDegrees>43.20953688584268093109130859375</LatitudeDegrees>
              <LongitudeDegrees>-1.66622704826295375823974609375</LongitudeDegrees>
            </Position>
            <AltitudeMeters>93.59999847412109375</AltitudeMeters>
            <DistanceMeters>NAN</DistanceMeters>
          </Trackpoint>
          <Trackpoint>
            <Time>2021-08-10T12:43:33.000Z</Time>
            <Position>
              <LatitudeDegrees>43.20954862050712108612060546875</LatitudeDegrees>
              <LongitudeDegrees>-1.66625873185694217681884765625</LongitudeDegrees>
            </Position>
            <AltitudeMeters>93.59999847412109375</AltitudeMeters>
            <DistanceMeters>NAN</DistanceMeters>
          </Trackpoint>
          <Trackpoint>
            <Time>2021-08-10T12:43:34.000Z</Time>
            <Position>
              <LatitudeDegrees>43.20954971015453338623046875</LatitudeDegrees>
              <LongitudeDegrees>-1.66629888117313385009765625</LongitudeDegrees>
            </Position>
            <AltitudeMeters>93.59999847412109375</AltitudeMeters>
            <DistanceMeters>NAN</DistanceMeters>
          </Trackpoint>
          <Trackpoint>
            <Time>2021-08-10T12:43:40.000Z</Time>
            <Position>
              <LatitudeDegrees>43.20956622250378131866455078125</LatitudeDegrees>
              <LongitudeDegrees>-1.66656349785625934600830078125</LongitudeDegrees>
            </Position>
            <AltitudeMeters>93.1999969482421875</AltitudeMeters>
            <DistanceMeters>NAN</DistanceMeters>
          </Trackpoint>
          <Trackpoint>
            <Time>2021-08-10T12:43:46.000Z</Time>
            <Position>
              <LatitudeDegrees>43.2096082158386707305908203125</LatitudeDegrees>
              <LongitudeDegrees>-1.66681780479848384857177734375</LongitudeDegrees>
            </Position>
            <AltitudeMeters>93.1999969482421875</AltitudeMeters>
            <DistanceMeters>NAN</DistanceMeters>
          </Trackpoint>
          <Trackpoint>
            <Time>2021-08-10T12:43:47.000Z</Time>
            <Position>
              <LatitudeDegrees>43.2096129097044467926025390625</LatitudeDegrees>
              <LongitudeDegrees>-1.66686021722853183746337890625</LongitudeDegrees>
            </Position>
            <AltitudeMeters>93</AltitudeMeters>
            <DistanceMeters>NAN</DistanceMeters>
          </Trackpoint>
          <Trackpoint>
            <Time>2021-08-10T12:43:48.000Z</Time>
            <Position>
              <LatitudeDegrees>43.20962506346404552459716796875</LatitudeDegrees>
              <LongitudeDegrees>-1.6669028811156749725341796875</LongitudeDegrees>
            </Position>
            <AltitudeMeters>93</AltitudeMeters>
            <DistanceMeters>NAN</DistanceMeters>
          </Trackpoint>
          <Trackpoint>
            <Time>2021-08-10T12:43:49.000Z</Time>
            <Position>
              <LatitudeDegrees>43.2096300087869167327880859375</LatitudeDegrees>
              <LongitudeDegrees>-1.6669447906315326690673828125</LongitudeDegrees>
            </Position>
            <AltitudeMeters>93</AltitudeMeters>
            <DistanceMeters>NAN</DistanceMeters>
          </Trackpoint>
          <Trackpoint>
            <Time>2021-08-10T12:43:54.000Z</Time>
            <Position>
              <LatitudeDegrees>43.20966999046504497528076171875</LatitudeDegrees>
              <LongitudeDegrees>-1.66716791689395904541015625</LongitudeDegrees>
            </Position>
            <AltitudeMeters>92.59999847412109375</AltitudeMeters>
            <DistanceMeters>NAN</DistanceMeters>
          </Trackpoint>
          <Trackpoint>
            <Time>2021-08-10T12:43:55.000Z</Time>
            <Position>
              <LatitudeDegrees>43.20967652834951877593994140625</LatitudeDegrees>
              <LongitudeDegrees>-1.667215526103973388671875</LongitudeDegrees>
            </Position>
            <AltitudeMeters>92.59999847412109375</AltitudeMeters>
            <DistanceMeters>NAN</DistanceMeters>
          </Trackpoint>
          <Trackpoint>
            <Time>2021-08-10T12:44:03.000Z</Time>
            <Position>
              <LatitudeDegrees>43.2097527198493480682373046875</LatitudeDegrees>
              <LongitudeDegrees>-1.667564548552036285400390625</LongitudeDegrees>
            </Position>
            <AltitudeMeters>92.1999969482421875</AltitudeMeters>
            <DistanceMeters>NAN</DistanceMeters>
          </Trackpoint>
          <Trackpoint>
            <Time>2021-08-10T12:44:04.000Z</Time>
            <Position>
              <LatitudeDegrees>43.2097560726106166839599609375</LatitudeDegrees>
              <LongitudeDegrees>-1.66761224158108234405517578125</LongitudeDegrees>
            </Position>
            <AltitudeMeters>92.1999969482421875</AltitudeMeters>
            <DistanceMeters>NAN</DistanceMeters>
          </Trackpoint>
          <Trackpoint>
            <Time>2021-08-10T12:44:05.000Z</Time>
            <Position>
              <LatitudeDegrees>43.209759928286075592041015625</LatitudeDegrees>
              <LongitudeDegrees>-1.66765213944017887115478515625</LongitudeDegrees>
            </Position>
            <AltitudeMeters>92.1999969482421875</AltitudeMeters>
            <DistanceMeters>NAN</DistanceMeters>
          </Trackpoint>
          <Trackpoint>
            <Time>2021-08-10T12:44:10.000Z</Time>
            <Position>
              <LatitudeDegrees>43.209794461727142333984375</LatitudeDegrees>
              <LongitudeDegrees>-1.66788867674767971038818359375</LongitudeDegrees>
            </Position>
            <AltitudeMeters>92</AltitudeMeters>
            <DistanceMeters>NAN</DistanceMeters>
          </Trackpoint>
          <Trackpoint>
            <Time>2021-08-10T12:44:17.000Z</Time>
            <Position>
              <LatitudeDegrees>43.20985506288707256317138671875</LatitudeDegrees>
              <LongitudeDegrees>-1.66821104474365711212158203125</LongitudeDegrees>
            </Position>
            <AltitudeMeters>91.59999847412109375</AltitudeMeters>
            <DistanceMeters>NAN</DistanceMeters>
          </Trackpoint>
          <Trackpoint>
            <Time>2021-08-10T12:44:20.000Z</Time>
            <Position>
              <LatitudeDegrees>43.20987903513014316558837890625</LatitudeDegrees>
              <LongitudeDegrees>-1.66833543218672275543212890625</LongitudeDegrees>
            </Position>
            <AltitudeMeters>91.40000152587890625</AltitudeMeters>
            <DistanceMeters>NAN</DistanceMeters>
          </Trackpoint>
          <Trackpoint>
            <Time>2021-08-10T12:44:21.000Z</Time>
            <Position>
              <LatitudeDegrees>43.2098908536136150360107421875</LatitudeDegrees>
              <LongitudeDegrees>-1.66837549768388271331787109375</LongitudeDegrees>
            </Position>
            <AltitudeMeters>91.40000152587890625</AltitudeMeters>
            <DistanceMeters>NAN</DistanceMeters>
          </Trackpoint>
          <Trackpoint>
            <Time>2021-08-10T12:44:22.000Z</Time>
            <Position>
              <LatitudeDegrees>43.209898062050342559814453125</LatitudeDegrees>
              <LongitudeDegrees>-1.6684206761419773101806640625</LongitudeDegrees>
            </Position>
            <AltitudeMeters>91.1999969482421875</AltitudeMeters>
            <DistanceMeters>NAN</DistanceMeters>
          </Trackpoint>
          <Trackpoint>
            <Time>2021-08-10T12:44:23.000Z</Time>
            <Position>
              <LatitudeDegrees>43.20990376174449920654296875</LatitudeDegrees>
              <LongitudeDegrees>-1.66846719570457935333251953125</LongitudeDegrees>
            </Position>
            <AltitudeMeters>91.1999969482421875</AltitudeMeters>
            <DistanceMeters>NAN</DistanceMeters>
          </Trackpoint>
          <Trackpoint>
            <Time>2021-08-10T12:44:24.000Z</Time>
            <Position>
              <LatitudeDegrees>43.20990853942930698394775390625</LatitudeDegrees>
              <LongitudeDegrees>-1.6685128770768642425537109375</LongitudeDegrees>
            </Position>
            <AltitudeMeters>91.1999969482421875</AltitudeMeters>
            <DistanceMeters>NAN</DistanceMeters>
          </Trackpoint>
          <Trackpoint>
            <Time>2021-08-10T12:44:25.000Z</Time>
            <Position>
              <LatitudeDegrees>43.20991583168506622314453125</LatitudeDegrees>
              <LongitudeDegrees>-1.6685574688017368316650390625</LongitudeDegrees>
            </Position>
            <AltitudeMeters>91</AltitudeMeters>
            <DistanceMeters>NAN</DistanceMeters>
          </Trackpoint>
          <Trackpoint>
            <Time>2021-08-10T12:44:26.000Z</Time>
            <Position>
              <LatitudeDegrees>43.2099213637411594390869140625</LatitudeDegrees>
              <LongitudeDegrees>-1.6686003841459751129150390625</LongitudeDegrees>
            </Position>
            <AltitudeMeters>91</AltitudeMeters>
            <DistanceMeters>NAN</DistanceMeters>
          </Trackpoint>
          <Trackpoint>
            <Time>2021-08-10T12:44:28.000Z</Time>
            <Position>
              <LatitudeDegrees>43.20994826965034008026123046875</LatitudeDegrees>
              <LongitudeDegrees>-1.66868378408253192901611328125</LongitudeDegrees>
            </Position>
            <AltitudeMeters>91.1999969482421875</AltitudeMeters>
            <DistanceMeters>NAN</DistanceMeters>
          </Trackpoint>
          <Trackpoint>
            <Time>2021-08-10T12:44:29.000Z</Time>
            <Position>
              <LatitudeDegrees>43.20995430462062358856201171875</LatitudeDegrees>
              <LongitudeDegrees>-1.6687247715890407562255859375</LongitudeDegrees>
            </Position>
            <AltitudeMeters>91.1999969482421875</AltitudeMeters>
            <DistanceMeters>NAN</DistanceMeters>
          </Trackpoint>
          <Trackpoint>
            <Time>2021-08-10T12:44:30.000Z</Time>
            <Position>
              <LatitudeDegrees>43.20996771566569805145263671875</LatitudeDegrees>
              <LongitudeDegrees>-1.6687633283436298370361328125</LongitudeDegrees>
            </Position>
            <AltitudeMeters>91.1999969482421875</AltitudeMeters>
            <DistanceMeters>NAN</DistanceMeters>
          </Trackpoint>
          <Trackpoint>
            <Time>2021-08-10T12:44:32.000Z</Time>
            <Position>
              <LatitudeDegrees>43.20999956689774990081787109375</LatitudeDegrees>
              <LongitudeDegrees>-1.66883532889187335968017578125</LongitudeDegrees>
            </Position>
            <AltitudeMeters>91.1999969482421875</AltitudeMeters>
            <DistanceMeters>NAN</DistanceMeters>
          </Trackpoint>
          <Trackpoint>
            <Time>2021-08-10T12:44:35.000Z</Time>
            <Position>
              <LatitudeDegrees>43.21004399098455905914306640625</LatitudeDegrees>
              <LongitudeDegrees>-1.66895418427884578704833984375</LongitudeDegrees>
            </Position>
            <AltitudeMeters>91.1999969482421875</AltitudeMeters>
            <DistanceMeters>NAN</DistanceMeters>
          </Trackpoint>
          <Trackpoint>
            <Time>2021-08-10T12:44:36.000Z</Time>
            <Position>
              <LatitudeDegrees>43.2100605033338069915771484375</LatitudeDegrees>
              <LongitudeDegrees>-1.66899022646248340606689453125</LongitudeDegrees>
            </Position>
            <AltitudeMeters>91.1999969482421875</AltitudeMeters>
            <DistanceMeters>NAN</DistanceMeters>
          </Trackpoint>
          <Trackpoint>
            <Time>2021-08-10T12:44:43.000Z</Time>
            <Position>
              <LatitudeDegrees>43.21021020412445068359375</LatitudeDegrees>
              <LongitudeDegrees>-1.6692655719816684722900390625</LongitudeDegrees>
            </Position>
            <AltitudeMeters>91.1999969482421875</AltitudeMeters>
            <DistanceMeters>NAN</DistanceMeters>
          </Trackpoint>
          <Trackpoint>
            <Time>2021-08-10T12:44:48.000Z</Time>
            <Position>
              <LatitudeDegrees>43.210303075611591339111328125</LatitudeDegrees>
              <LongitudeDegrees>-1.66943949647247791290283203125</LongitudeDegrees>
            </Position>
            <AltitudeMeters>91.1999969482421875</AltitudeMeters>
            <DistanceMeters>NAN</DistanceMeters>
          </Trackpoint>
          <Trackpoint>
            <Time>2021-08-10T12:44:49.000Z</Time>
            <Position>
              <LatitudeDegrees>43.21031950414180755615234375</LatitudeDegrees>
              <LongitudeDegrees>-1.6694690845906734466552734375</LongitudeDegrees>
            </Position>
            <AltitudeMeters>91.1999969482421875</AltitudeMeters>
            <DistanceMeters>NAN</DistanceMeters>
          </Trackpoint>
          <Trackpoint>
            <Time>2021-08-10T12:44:52.000Z</Time>
            <Position>
              <LatitudeDegrees>43.21037474088370800018310546875</LatitudeDegrees>
              <LongitudeDegrees>-1.66957628913223743438720703125</LongitudeDegrees>
            </Position>
            <AltitudeMeters>91.40000152587890625</AltitudeMeters>
            <DistanceMeters>NAN</DistanceMeters>
          </Trackpoint>
          <Trackpoint>
            <Time>2021-08-10T12:44:53.000Z</Time>
            <Position>
              <LatitudeDegrees>43.21038597263395786285400390625</LatitudeDegrees>
              <LongitudeDegrees>-1.66961182840168476104736328125</LongitudeDegrees>
            </Position>
            <AltitudeMeters>91.40000152587890625</AltitudeMeters>
            <DistanceMeters>NAN</DistanceMeters>
          </Trackpoint>
          <Trackpoint>
            <Time>2021-08-10T12:44:54.000Z</Time>
            <Position>
              <LatitudeDegrees>43.2104014791548252105712890625</LatitudeDegrees>
              <LongitudeDegrees>-1.6696444340050220489501953125</LongitudeDegrees>
            </Position>
            <AltitudeMeters>91.40000152587890625</AltitudeMeters>
            <DistanceMeters>NAN</DistanceMeters>
          </Trackpoint>
          <Trackpoint>
            <Time>2021-08-10T12:44:55.000Z</Time>
            <Position>
              <LatitudeDegrees>43.21041514165699481964111328125</LatitudeDegrees>
              <LongitudeDegrees>-1.6696779616177082061767578125</LongitudeDegrees>
            </Position>
            <AltitudeMeters>91.40000152587890625</AltitudeMeters>
            <DistanceMeters>NAN</DistanceMeters>
          </Trackpoint>
          <Trackpoint>
            <Time>2021-08-10T12:44:56.000Z</Time>
            <Position>
              <LatitudeDegrees>43.2104289717972278594970703125</LatitudeDegrees>
              <LongitudeDegrees>-1.6697140038013458251953125</LongitudeDegrees>
            </Position>
            <AltitudeMeters>91.40000152587890625</AltitudeMeters>
            <DistanceMeters>NAN</DistanceMeters>
          </Trackpoint>
          <Trackpoint>
            <Time>2021-08-10T12:45:02.000Z</Time>
            <Position>
              <LatitudeDegrees>43.210523687303066253662109375</LatitudeDegrees>
              <LongitudeDegrees>-1.66992656886577606201171875</LongitudeDegrees>
            </Position>
            <AltitudeMeters>91.1999969482421875</AltitudeMeters>
            <DistanceMeters>NAN</DistanceMeters>
          </Trackpoint>
          <Trackpoint>
            <Time>2021-08-10T12:45:03.000Z</Time>
            <Position>
              <LatitudeDegrees>43.21053617633879184722900390625</LatitudeDegrees>
              <LongitudeDegrees>-1.6699538938701152801513671875</LongitudeDegrees>
            </Position>
            <AltitudeMeters>91.1999969482421875</AltitudeMeters>
            <DistanceMeters>NAN</DistanceMeters>
          </Trackpoint>
          <Trackpoint>
            <Time>2021-08-10T12:45:04.000Z</Time>
            <Position>
              <LatitudeDegrees>43.21054791100323200225830078125</LatitudeDegrees>
              <LongitudeDegrees>-1.66997845284640789031982421875</LongitudeDegrees>
            </Position>
            <AltitudeMeters>91.1999969482421875</AltitudeMeters>
            <DistanceMeters>NAN</DistanceMeters>
          </Trackpoint>
          <Trackpoint>
            <Time>2021-08-10T12:45:05.000Z</Time>
            <Position>
              <LatitudeDegrees>43.210556544363498687744140625</LatitudeDegrees>
              <LongitudeDegrees>-1.67000125162303447723388671875</LongitudeDegrees>
            </Position>
            <AltitudeMeters>91.1999969482421875</AltitudeMeters>
            <DistanceMeters>NAN</DistanceMeters>
          </Trackpoint>
          <Trackpoint>
            <Time>2021-08-10T12:45:06.000Z</Time>
            <Position>
              <LatitudeDegrees>43.21056987158954143524169921875</LatitudeDegrees>
              <LongitudeDegrees>-1.67002740316092967987060546875</LongitudeDegrees>
            </Position>
            <AltitudeMeters>91.1999969482421875</AltitudeMeters>
            <DistanceMeters>NAN</DistanceMeters>
          </Trackpoint>
          <Trackpoint>
            <Time>2021-08-10T12:45:11.000Z</Time>
            <Position>
              <LatitudeDegrees>43.2106489129364490509033203125</LatitudeDegrees>
              <LongitudeDegrees>-1.67019973509013652801513671875</LongitudeDegrees>
            </Position>
            <AltitudeMeters>91.1999969482421875</AltitudeMeters>
            <DistanceMeters>NAN</DistanceMeters>
          </Trackpoint>
          <Trackpoint>
            <Time>2021-08-10T12:45:14.000Z</Time>
            <Position>
              <LatitudeDegrees>43.21069325320422649383544921875</LatitudeDegrees>
              <LongitudeDegrees>-1.67030937038362026214599609375</LongitudeDegrees>
            </Position>
            <AltitudeMeters>91.40000152587890625</AltitudeMeters>
            <DistanceMeters>NAN</DistanceMeters>
          </Trackpoint>
          <Trackpoint>
            <Time>2021-08-10T12:45:15.000Z</Time>
            <Position>
              <LatitudeDegrees>43.210708759725093841552734375</LatitudeDegrees>
              <LongitudeDegrees>-1.670341305434703826904296875</LongitudeDegrees>
            </Position>
            <AltitudeMeters>91.40000152587890625</AltitudeMeters>
            <DistanceMeters>NAN</DistanceMeters>
          </Trackpoint>
          <Trackpoint>
            <Time>2021-08-10T12:45:16.000Z</Time>
            <Position>
              <LatitudeDegrees>43.21072158403694629669189453125</LatitudeDegrees>
              <LongitudeDegrees>-1.6703729890286922454833984375</LongitudeDegrees>
            </Position>
            <AltitudeMeters>91.40000152587890625</AltitudeMeters>
            <DistanceMeters>NAN</DistanceMeters>
          </Trackpoint>
          <Trackpoint>
            <Time>2021-08-10T12:45:17.000Z</Time>
            <Position>
              <LatitudeDegrees>43.21073784492909908294677734375</LatitudeDegrees>
              <LongitudeDegrees>-1.67040559463202953338623046875</LongitudeDegrees>
            </Position>
            <AltitudeMeters>91.40000152587890625</AltitudeMeters>
            <DistanceMeters>NAN</DistanceMeters>
          </Trackpoint>
          <Trackpoint>
            <Time>2021-08-10T12:45:19.000Z</Time>
            <Position>
              <LatitudeDegrees>43.21077019907534122467041015625</LatitudeDegrees>
              <LongitudeDegrees>-1.67048321105539798736572265625</LongitudeDegrees>
            </Position>
            <AltitudeMeters>91.40000152587890625</AltitudeMeters>
            <DistanceMeters>NAN</DistanceMeters>
          </Trackpoint>
          <Trackpoint>
            <Time>2021-08-10T12:45:20.000Z</Time>
            <Position>
              <LatitudeDegrees>43.21078394539654254913330078125</LatitudeDegrees>
              <LongitudeDegrees>-1.670508943498134613037109375</LongitudeDegrees>
            </Position>
            <AltitudeMeters>91.40000152587890625</AltitudeMeters>
            <DistanceMeters>NAN</DistanceMeters>
          </Trackpoint>
          <Trackpoint>
            <Time>2021-08-10T12:45:24.000Z</Time>
            <Position>
              <LatitudeDegrees>43.2108571194112300872802734375</LatitudeDegrees>
              <LongitudeDegrees>-1.67065772227942943572998046875</LongitudeDegrees>
            </Position>
            <AltitudeMeters>91.1999969482421875</AltitudeMeters>
            <DistanceMeters>NAN</DistanceMeters>
          </Trackpoint>
          <Trackpoint>
            <Time>2021-08-10T12:45:33.000Z</Time>
            <Position>
              <LatitudeDegrees>43.21102090179920196533203125</LatitudeDegrees>
              <LongitudeDegrees>-1.67101663537323474884033203125</LongitudeDegrees>
            </Position>
            <AltitudeMeters>91</AltitudeMeters>
            <DistanceMeters>NAN</DistanceMeters>
          </Trackpoint>
          <Trackpoint>
            <Time>2021-08-10T12:45:36.000Z</Time>
            <Position>
              <LatitudeDegrees>43.21106784045696258544921875</LatitudeDegrees>
              <LongitudeDegrees>-1.671128533780574798583984375</LongitudeDegrees>
            </Position>
            <AltitudeMeters>91</AltitudeMeters>
            <DistanceMeters>NAN</DistanceMeters>
          </Trackpoint>
          <Trackpoint>
            <Time>2021-08-10T12:45:37.000Z</Time>
            <Position>
              <LatitudeDegrees>43.21108083240687847137451171875</LatitudeDegrees>
              <LongitudeDegrees>-1.6711669228971004486083984375</LongitudeDegrees>
            </Position>
            <AltitudeMeters>91</AltitudeMeters>
            <DistanceMeters>NAN</DistanceMeters>
          </Trackpoint>
          <Trackpoint>
            <Time>2021-08-10T12:45:38.000Z</Time>
            <Position>
              <LatitudeDegrees>43.21109709329903125762939453125</LatitudeDegrees>
              <LongitudeDegrees>-1.671200953423976898193359375</LongitudeDegrees>
            </Position>
            <AltitudeMeters>91</AltitudeMeters>
            <DistanceMeters>NAN</DistanceMeters>
          </Trackpoint>
          <Trackpoint>
            <Time>2021-08-10T12:45:39.000Z</Time>
            <Position>
              <LatitudeDegrees>43.21111201308667659759521484375</LatitudeDegrees>
              <LongitudeDegrees>-1.67123758234083652496337890625</LongitudeDegrees>
            </Position>
            <AltitudeMeters>91</AltitudeMeters>
            <DistanceMeters>NAN</DistanceMeters>
          </Trackpoint>
          <Trackpoint>
            <Time>2021-08-10T12:45:40.000Z</Time>
            <Position>
              <LatitudeDegrees>43.211127184331417083740234375</LatitudeDegrees>
              <LongitudeDegrees>-1.6712708584964275360107421875</LongitudeDegrees>
            </Position>
            <AltitudeMeters>91</AltitudeMeters>
            <DistanceMeters>NAN</DistanceMeters>
          </Trackpoint>
          <Trackpoint>
            <Time>2021-08-10T12:45:41.000Z</Time>
            <Position>
              <LatitudeDegrees>43.2111422717571258544921875</LatitudeDegrees>
              <LongitudeDegrees>-1.67130731977522373199462890625</LongitudeDegrees>
            </Position>
            <AltitudeMeters>91</AltitudeMeters>
            <DistanceMeters>NAN</DistanceMeters>
          </Trackpoint>
          <Trackpoint>
            <Time>2021-08-10T12:45:42.000Z</Time>
            <Position>
              <LatitudeDegrees>43.21115341968834400177001953125</LatitudeDegrees>
              <LongitudeDegrees>-1.67133984155952930450439453125</LongitudeDegrees>
            </Position>
            <AltitudeMeters>91</AltitudeMeters>
            <DistanceMeters>NAN</DistanceMeters>
          </Trackpoint>
          <Trackpoint>
            <Time>2021-08-10T12:45:43.000Z</Time>
            <Position>
              <LatitudeDegrees>43.211168758571147918701171875</LatitudeDegrees>
              <LongitudeDegrees>-1.6713737882673740386962890625</LongitudeDegrees>
            </Position>
            <AltitudeMeters>91</AltitudeMeters>
            <DistanceMeters>NAN</DistanceMeters>
          </Trackpoint>
          <Trackpoint>
            <Time>2021-08-10T12:45:44.000Z</Time>
            <Position>
              <LatitudeDegrees>43.2111850194633007049560546875</LatitudeDegrees>
              <LongitudeDegrees>-1.6714079864323139190673828125</LongitudeDegrees>
            </Position>
            <AltitudeMeters>91</AltitudeMeters>
            <DistanceMeters>NAN</DistanceMeters>
          </Trackpoint>
          <Trackpoint>
            <Time>2021-08-10T12:45:45.000Z</Time>
            <Position>
              <LatitudeDegrees>43.21119817905128002166748046875</LatitudeDegrees>
              <LongitudeDegrees>-1.6714401729404926300048828125</LongitudeDegrees>
            </Position>
            <AltitudeMeters>91.1999969482421875</AltitudeMeters>
            <DistanceMeters>NAN</DistanceMeters>
          </Trackpoint>
          <Trackpoint>
            <Time>2021-08-10T12:45:46.000Z</Time>
            <Position>
              <LatitudeDegrees>43.2112081535160541534423828125</LatitudeDegrees>
              <LongitudeDegrees>-1.6714708507061004638671875</LongitudeDegrees>
            </Position>
            <AltitudeMeters>91.1999969482421875</AltitudeMeters>
            <DistanceMeters>NAN</DistanceMeters>
          </Trackpoint>
          <Trackpoint>
            <Time>2021-08-10T12:45:47.000Z</Time>
            <Position>
              <LatitudeDegrees>43.211216032505035400390625</LatitudeDegrees>
              <LongitudeDegrees>-1.671501696109771728515625</LongitudeDegrees>
            </Position>
            <AltitudeMeters>91.1999969482421875</AltitudeMeters>
            <DistanceMeters>NAN</DistanceMeters>
          </Trackpoint>
          <Trackpoint>
            <Time>2021-08-10T12:45:48.000Z</Time>
            <Position>
              <LatitudeDegrees>43.21122944355010986328125</LatitudeDegrees>
              <LongitudeDegrees>-1.67153413407504558563232421875</LongitudeDegrees>
            </Position>
            <AltitudeMeters>91.1999969482421875</AltitudeMeters>
            <DistanceMeters>NAN</DistanceMeters>
          </Trackpoint>
          <Trackpoint>
            <Time>2021-08-10T12:45:52.000Z</Time>
            <Position>
              <LatitudeDegrees>43.21129658259451389312744140625</LatitudeDegrees>
              <LongitudeDegrees>-1.67169121094048023223876953125</LongitudeDegrees>
            </Position>
            <AltitudeMeters>91.1999969482421875</AltitudeMeters>
            <DistanceMeters>NAN</DistanceMeters>
          </Trackpoint>
          <Trackpoint>
            <Time>2021-08-10T12:45:59.000Z</Time>
            <Position>
              <LatitudeDegrees>43.21140420623123645782470703125</LatitudeDegrees>
              <LongitudeDegrees>-1.67198273353278636932373046875</LongitudeDegrees>
            </Position>
            <AltitudeMeters>91.1999969482421875</AltitudeMeters>
            <DistanceMeters>NAN</DistanceMeters>
          </Trackpoint>
          <Trackpoint>
            <Time>2021-08-10T12:46:00.000Z</Time>
            <Position>
              <LatitudeDegrees>43.21141459979116916656494140625</LatitudeDegrees>
              <LongitudeDegrees>-1.67201760224997997283935546875</LongitudeDegrees>
            </Position>
            <AltitudeMeters>91.1999969482421875</AltitudeMeters>
            <DistanceMeters>NAN</DistanceMeters>
          </Trackpoint>
          <Trackpoint>
            <Time>2021-08-10T12:46:01.000Z</Time>
            <Position>
              <LatitudeDegrees>43.21143119595944881439208984375</LatitudeDegrees>
              <LongitudeDegrees>-1.67205213569104671478271484375</LongitudeDegrees>
            </Position>
            <AltitudeMeters>91.1999969482421875</AltitudeMeters>
            <DistanceMeters>NAN</DistanceMeters>
          </Trackpoint>
          <Trackpoint>
            <Time>2021-08-10T12:46:02.000Z</Time>
            <Position>
              <LatitudeDegrees>43.211451061069965362548828125</LatitudeDegrees>
              <LongitudeDegrees>-1.67208650149405002593994140625</LongitudeDegrees>
            </Position>
            <AltitudeMeters>91.1999969482421875</AltitudeMeters>
            <DistanceMeters>NAN</DistanceMeters>
          </Trackpoint>
          <Trackpoint>
            <Time>2021-08-10T12:46:03.000Z</Time>
            <Position>
              <LatitudeDegrees>43.211469836533069610595703125</LatitudeDegrees>
              <LongitudeDegrees>-1.67212204076349735260009765625</LongitudeDegrees>
            </Position>
            <AltitudeMeters>91.1999969482421875</AltitudeMeters>
            <DistanceMeters>NAN</DistanceMeters>
          </Trackpoint>
          <Trackpoint>
            <Time>2021-08-10T12:46:04.000Z</Time>
            <Position>
              <LatitudeDegrees>43.211491294205188751220703125</LatitudeDegrees>
              <LongitudeDegrees>-1.6721502877771854400634765625</LongitudeDegrees>
            </Position>
            <AltitudeMeters>91.1999969482421875</AltitudeMeters>
            <DistanceMeters>NAN</DistanceMeters>
          </Trackpoint>
          <Trackpoint>
            <Time>2021-08-10T12:46:05.000Z</Time>
            <Position>
              <LatitudeDegrees>43.2115132547914981842041015625</LatitudeDegrees>
              <LongitudeDegrees>-1.67217669077217578887939453125</LongitudeDegrees>
            </Position>
            <AltitudeMeters>91.1999969482421875</AltitudeMeters>
            <DistanceMeters>NAN</DistanceMeters>
          </Trackpoint>
          <Trackpoint>
            <Time>2021-08-10T12:46:06.000Z</Time>
            <Position>
              <LatitudeDegrees>43.21153596974909305572509765625</LatitudeDegrees>
              <LongitudeDegrees>-1.6722069494426250457763671875</LongitudeDegrees>
            </Position>
            <AltitudeMeters>91.1999969482421875</AltitudeMeters>
            <DistanceMeters>NAN</DistanceMeters>
          </Trackpoint>
          <Trackpoint>
            <Time>2021-08-10T12:46:08.000Z</Time>
            <Position>
              <LatitudeDegrees>43.21158290840685367584228515625</LatitudeDegrees>
              <LongitudeDegrees>-1.67226268909871578216552734375</LongitudeDegrees>
            </Position>
            <AltitudeMeters>91.40000152587890625</AltitudeMeters>
            <DistanceMeters>NAN</DistanceMeters>
          </Trackpoint>
          <Trackpoint>
            <Time>2021-08-10T12:46:12.000Z</Time>
            <Position>
              <LatitudeDegrees>43.2116651348769664764404296875</LatitudeDegrees>
              <LongitudeDegrees>-1.67237886227667331695556640625</LongitudeDegrees>
            </Position>
            <AltitudeMeters>91.40000152587890625</AltitudeMeters>
            <DistanceMeters>NAN</DistanceMeters>
          </Trackpoint>
          <Trackpoint>
            <Time>2021-08-10T12:46:15.000Z</Time>
            <Position>
              <LatitudeDegrees>43.21172858588397502899169921875</LatitudeDegrees>
              <LongitudeDegrees>-1.67244440875947475433349609375</LongitudeDegrees>
            </Position>
            <AltitudeMeters>91.40000152587890625</AltitudeMeters>
            <DistanceMeters>NAN</DistanceMeters>
          </Trackpoint>
          <Trackpoint>
            <Time>2021-08-10T12:46:16.000Z</Time>
            <Position>
              <LatitudeDegrees>43.21175507269799709320068359375</LatitudeDegrees>
              <LongitudeDegrees>-1.67246703989803791046142578125</LongitudeDegrees>
            </Position>
            <AltitudeMeters>91.40000152587890625</AltitudeMeters>
            <DistanceMeters>NAN</DistanceMeters>
          </Trackpoint>
          <Trackpoint>
            <Time>2021-08-10T12:46:17.000Z</Time>
            <Position>
              <LatitudeDegrees>43.211773596704006195068359375</LatitudeDegrees>
              <LongitudeDegrees>-1.67249151505529880523681640625</LongitudeDegrees>
            </Position>
            <AltitudeMeters>91.1999969482421875</AltitudeMeters>
            <DistanceMeters>NAN</DistanceMeters>
          </Trackpoint>
          <Trackpoint>
            <Time>2021-08-10T12:46:18.000Z</Time>
            <Position>
              <LatitudeDegrees>43.2117965631186962127685546875</LatitudeDegrees>
              <LongitudeDegrees>-1.67251213453710079193115234375</LongitudeDegrees>
            </Position>
            <AltitudeMeters>91.1999969482421875</AltitudeMeters>
            <DistanceMeters>NAN</DistanceMeters>
          </Trackpoint>
          <Trackpoint>
            <Time>2021-08-10T12:46:19.000Z</Time>
            <Position>
              <LatitudeDegrees>43.211823888123035430908203125</LatitudeDegrees>
              <LongitudeDegrees>-1.67253040708601474761962890625</LongitudeDegrees>
            </Position>
            <AltitudeMeters>91</AltitudeMeters>
            <DistanceMeters>NAN</DistanceMeters>
          </Trackpoint>
          <Trackpoint>
            <Time>2021-08-10T12:46:20.000Z</Time>
            <Position>
              <LatitudeDegrees>43.21185230277478694915771484375</LatitudeDegrees>
              <LongitudeDegrees>-1.6725519485771656036376953125</LongitudeDegrees>
            </Position>
            <AltitudeMeters>91</AltitudeMeters>
            <DistanceMeters>NAN</DistanceMeters>
          </Trackpoint>
          <Trackpoint>
            <Time>2021-08-10T12:46:21.000Z</Time>
            <Position>
              <LatitudeDegrees>43.2118756882846355438232421875</LatitudeDegrees>
              <LongitudeDegrees>-1.672571562230587005615234375</LongitudeDegrees>
            </Position>
            <AltitudeMeters>91</AltitudeMeters>
            <DistanceMeters>NAN</DistanceMeters>
          </Trackpoint>
          <Trackpoint>
            <Time>2021-08-10T12:46:22.000Z</Time>
            <Position>
              <LatitudeDegrees>43.21189790032804012298583984375</LatitudeDegrees>
              <LongitudeDegrees>-1.67259109206497669219970703125</LongitudeDegrees>
            </Position>
            <AltitudeMeters>91</AltitudeMeters>
            <DistanceMeters>NAN</DistanceMeters>
          </Trackpoint>
          <Trackpoint>
            <Time>2021-08-10T12:46:23.000Z</Time>
            <Position>
              <LatitudeDegrees>43.2119192741811275482177734375</LatitudeDegrees>
              <LongitudeDegrees>-1.67261271737515926361083984375</LongitudeDegrees>
            </Position>
            <AltitudeMeters>90.8000030517578125</AltitudeMeters>
            <DistanceMeters>NAN</DistanceMeters>
          </Trackpoint>
          <Trackpoint>
            <Time>2021-08-10T12:46:24.000Z</Time>
            <Position>
              <LatitudeDegrees>43.21194483898580074310302734375</LatitudeDegrees>
              <LongitudeDegrees>-1.6726293973624706268310546875</LongitudeDegrees>
            </Position>
            <AltitudeMeters>90.8000030517578125</AltitudeMeters>
            <DistanceMeters>NAN</DistanceMeters>
          </Trackpoint>
          <Trackpoint>
            <Time>2021-08-10T12:46:27.000Z</Time>
            <Position>
              <LatitudeDegrees>43.21203066967427730560302734375</LatitudeDegrees>
              <LongitudeDegrees>-1.67266569100320339202880859375</LongitudeDegrees>
            </Position>
            <AltitudeMeters>90.8000030517578125</AltitudeMeters>
            <DistanceMeters>NAN</DistanceMeters>
          </Trackpoint>
          <Trackpoint>
            <Time>2021-08-10T12:46:28.000Z</Time>
            <Position>
              <LatitudeDegrees>43.212063610553741455078125</LatitudeDegrees>
              <LongitudeDegrees>-1.67266753502190113067626953125</LongitudeDegrees>
            </Position>
            <AltitudeMeters>90.8000030517578125</AltitudeMeters>
            <DistanceMeters>NAN</DistanceMeters>
          </Trackpoint>
          <Trackpoint>
            <Time>2021-08-10T12:46:34.000Z</Time>
            <Position>
              <LatitudeDegrees>43.2122527062892913818359375</LatitudeDegrees>
              <LongitudeDegrees>-1.6726820357143878936767578125</LongitudeDegrees>
            </Position>
            <AltitudeMeters>91</AltitudeMeters>
            <DistanceMeters>NAN</DistanceMeters>
          </Trackpoint>
          <Trackpoint>
            <Time>2021-08-10T12:46:39.000Z</Time>
            <Position>
              <LatitudeDegrees>43.212411291897296905517578125</LatitudeDegrees>
              <LongitudeDegrees>-1.67267440818250179290771484375</LongitudeDegrees>
            </Position>
            <AltitudeMeters>91.1999969482421875</AltitudeMeters>
            <DistanceMeters>NAN</DistanceMeters>
          </Trackpoint>
          <Trackpoint>
            <Time>2021-08-10T12:46:40.000Z</Time>
            <Position>
              <LatitudeDegrees>43.212449513375759124755859375</LatitudeDegrees>
              <LongitudeDegrees>-1.6726652719080448150634765625</LongitudeDegrees>
            </Position>
            <AltitudeMeters>91.1999969482421875</AltitudeMeters>
            <DistanceMeters>NAN</DistanceMeters>
          </Trackpoint>
          <Trackpoint>
            <Time>2021-08-10T12:46:43.000Z</Time>
            <Position>
              <LatitudeDegrees>43.21254313923418521881103515625</LatitudeDegrees>
              <LongitudeDegrees>-1.67265613563358783721923828125</LongitudeDegrees>
            </Position>
            <AltitudeMeters>91.40000152587890625</AltitudeMeters>
            <DistanceMeters>NAN</DistanceMeters>
          </Trackpoint>
          <Trackpoint>
            <Time>2021-08-10T12:46:44.000Z</Time>
            <Position>
              <LatitudeDegrees>43.21257180534303188323974609375</LatitudeDegrees>
              <LongitudeDegrees>-1.672651357948780059814453125</LongitudeDegrees>
            </Position>
            <AltitudeMeters>91.40000152587890625</AltitudeMeters>
            <DistanceMeters>NAN</DistanceMeters>
          </Trackpoint>
          <Trackpoint>
            <Time>2021-08-10T12:46:45.000Z</Time>
            <Position>
              <LatitudeDegrees>43.21259594522416591644287109375</LatitudeDegrees>
              <LongitudeDegrees>-1.67264741845428943634033203125</LongitudeDegrees>
            </Position>
            <AltitudeMeters>91.40000152587890625</AltitudeMeters>
            <DistanceMeters>NAN</DistanceMeters>
          </Trackpoint>
          <Trackpoint>
            <Time>2021-08-10T12:46:46.000Z</Time>
            <Position>
              <LatitudeDegrees>43.212619163095951080322265625</LatitudeDegrees>
              <LongitudeDegrees>-1.67264632880687713623046875</LongitudeDegrees>
            </Position>
            <AltitudeMeters>91.40000152587890625</AltitudeMeters>
            <DistanceMeters>NAN</DistanceMeters>
          </Trackpoint>
          <Trackpoint>
            <Time>2021-08-10T12:46:47.000Z</Time>
            <Position>
              <LatitudeDegrees>43.21264657191932201385498046875</LatitudeDegrees>
              <LongitudeDegrees>-1.6726374439895153045654296875</LongitudeDegrees>
            </Position>
            <AltitudeMeters>91.40000152587890625</AltitudeMeters>
            <DistanceMeters>NAN</DistanceMeters>
          </Trackpoint>
          <Trackpoint>
            <Time>2021-08-10T12:46:51.000Z</Time>
            <Position>
              <LatitudeDegrees>43.2127507589757442474365234375</LatitudeDegrees>
              <LongitudeDegrees>-1.67260877788066864013671875</LongitudeDegrees>
            </Position>
            <AltitudeMeters>91.40000152587890625</AltitudeMeters>
            <DistanceMeters>NAN</DistanceMeters>
          </Trackpoint>
          <Trackpoint>
            <Time>2021-08-10T12:46:52.000Z</Time>
            <Position>
              <LatitudeDegrees>43.212770707905292510986328125</LatitudeDegrees>
              <LongitudeDegrees>-1.6725972108542919158935546875</LongitudeDegrees>
            </Position>
            <AltitudeMeters>91.59999847412109375</AltitudeMeters>
            <DistanceMeters>NAN</DistanceMeters>
          </Trackpoint>
          <Trackpoint>
            <Time>2021-08-10T12:46:53.000Z</Time>
            <Position>
              <LatitudeDegrees>43.21279677562415599822998046875</LatitudeDegrees>
              <LongitudeDegrees>-1.6725866496562957763671875</LongitudeDegrees>
            </Position>
            <AltitudeMeters>91.59999847412109375</AltitudeMeters>
            <DistanceMeters>NAN</DistanceMeters>
          </Trackpoint>
          <Trackpoint>
            <Time>2021-08-10T12:46:54.000Z</Time>
            <Position>
              <LatitudeDegrees>43.21282208897173404693603515625</LatitudeDegrees>
              <LongitudeDegrees>-1.67257566936314105987548828125</LongitudeDegrees>
            </Position>
            <AltitudeMeters>91.40000152587890625</AltitudeMeters>
            <DistanceMeters>NAN</DistanceMeters>
          </Trackpoint>
          <Trackpoint>
            <Time>2021-08-10T12:46:55.000Z</Time>
            <Position>
              <LatitudeDegrees>43.21284572593867778778076171875</LatitudeDegrees>
              <LongitudeDegrees>-1.672561168670654296875</LongitudeDegrees>
            </Position>
            <AltitudeMeters>91.1999969482421875</AltitudeMeters>
            <DistanceMeters>NAN</DistanceMeters>
          </Trackpoint>
          <Trackpoint>
            <Time>2021-08-10T12:46:56.000Z</Time>
            <Position>
              <LatitudeDegrees>43.21286701597273349761962890625</LatitudeDegrees>
              <LongitudeDegrees>-1.67254365049302577972412109375</LongitudeDegrees>
            </Position>
            <AltitudeMeters>91.1999969482421875</AltitudeMeters>
            <DistanceMeters>NAN</DistanceMeters>
          </Trackpoint>
          <Trackpoint>
            <Time>2021-08-10T12:46:57.000Z</Time>
            <Position>
              <LatitudeDegrees>43.212892077863216400146484375</LatitudeDegrees>
              <LongitudeDegrees>-1.6725200973451137542724609375</LongitudeDegrees>
            </Position>
            <AltitudeMeters>91.1999969482421875</AltitudeMeters>
            <DistanceMeters>NAN</DistanceMeters>
          </Trackpoint>
          <Trackpoint>
            <Time>2021-08-10T12:46:59.000Z</Time>
            <Position>
              <LatitudeDegrees>43.21294111199676990509033203125</LatitudeDegrees>
              <LongitudeDegrees>-1.67248380370438098907470703125</LongitudeDegrees>
            </Position>
            <AltitudeMeters>91.1999969482421875</AltitudeMeters>
            <DistanceMeters>NAN</DistanceMeters>
          </Trackpoint>
          <Trackpoint>
            <Time>2021-08-10T12:47:00.000Z</Time>
            <Position>
              <LatitudeDegrees>43.21295888163149356842041015625</LatitudeDegrees>
              <LongitudeDegrees>-1.67247575707733631134033203125</LongitudeDegrees>
            </Position>
            <AltitudeMeters>91.1999969482421875</AltitudeMeters>
            <DistanceMeters>NAN</DistanceMeters>
          </Trackpoint>
          <Trackpoint>
            <Time>2021-08-10T12:47:01.000Z</Time>
            <Position>
              <LatitudeDegrees>43.2129763998091220855712890625</LatitudeDegrees>
              <LongitudeDegrees>-1.67246402241289615631103515625</LongitudeDegrees>
            </Position>
            <AltitudeMeters>91.1999969482421875</AltitudeMeters>
            <DistanceMeters>NAN</DistanceMeters>
          </Trackpoint>
          <Trackpoint>
            <Time>2021-08-10T12:47:05.000Z</Time>
            <Position>
              <LatitudeDegrees>43.2130627334117889404296875</LatitudeDegrees>
              <LongitudeDegrees>-1.67239529080688953399658203125</LongitudeDegrees>
            </Position>
            <AltitudeMeters>91.1999969482421875</AltitudeMeters>
            <DistanceMeters>NAN</DistanceMeters>
          </Trackpoint>
          <Trackpoint>
            <Time>2021-08-10T12:47:11.000Z</Time>
            <Position>
              <LatitudeDegrees>43.21321268565952777862548828125</LatitudeDegrees>
              <LongitudeDegrees>-1.6722740046679973602294921875</LongitudeDegrees>
            </Position>
            <AltitudeMeters>91</AltitudeMeters>
            <DistanceMeters>NAN</DistanceMeters>
          </Trackpoint>
          <Trackpoint>
            <Time>2021-08-10T12:47:13.000Z</Time>
            <Position>
              <LatitudeDegrees>43.213247470557689666748046875</LatitudeDegrees>
              <LongitudeDegrees>-1.6722361184656620025634765625</LongitudeDegrees>
            </Position>
            <AltitudeMeters>91</AltitudeMeters>
            <DistanceMeters>NAN</DistanceMeters>
          </Trackpoint>
          <Trackpoint>
            <Time>2021-08-10T12:47:14.000Z</Time>
            <Position>
              <LatitudeDegrees>43.2132724486291408538818359375</LatitudeDegrees>
              <LongitudeDegrees>-1.672225892543792724609375</LongitudeDegrees>
            </Position>
            <AltitudeMeters>91</AltitudeMeters>
            <DistanceMeters>NAN</DistanceMeters>
          </Trackpoint>
          <Trackpoint>
            <Time>2021-08-10T12:47:15.000Z</Time>
            <Position>
              <LatitudeDegrees>43.21329365484416484832763671875</LatitudeDegrees>
              <LongitudeDegrees>-1.67221323587000370025634765625</LongitudeDegrees>
            </Position>
            <AltitudeMeters>91</AltitudeMeters>
            <DistanceMeters>NAN</DistanceMeters>
          </Trackpoint>
          <Trackpoint>
            <Time>2021-08-10T12:47:16.000Z</Time>
            <Position>
              <LatitudeDegrees>43.21331393904983997344970703125</LatitudeDegrees>
              <LongitudeDegrees>-1.67219680733978748321533203125</LongitudeDegrees>
            </Position>
            <AltitudeMeters>91</AltitudeMeters>
            <DistanceMeters>NAN</DistanceMeters>
          </Trackpoint>
          <Trackpoint>
            <Time>2021-08-10T12:47:17.000Z</Time>
            <Position>
              <LatitudeDegrees>43.2133294455707073211669921875</LatitudeDegrees>
              <LongitudeDegrees>-1.6721838153898715972900390625</LongitudeDegrees>
            </Position>
            <AltitudeMeters>90.8000030517578125</AltitudeMeters>
            <DistanceMeters>NAN</DistanceMeters>
          </Trackpoint>
          <Trackpoint>
            <Time>2021-08-10T12:47:21.000Z</Time>
            <Position>
              <LatitudeDegrees>43.2134223170578479766845703125</LatitudeDegrees>
              <LongitudeDegrees>-1.67212991975247859954833984375</LongitudeDegrees>
            </Position>
            <AltitudeMeters>90.8000030517578125</AltitudeMeters>
            <DistanceMeters>NAN</DistanceMeters>
          </Trackpoint>
          <Trackpoint>
            <Time>2021-08-10T12:47:22.000Z</Time>
            <Position>
              <LatitudeDegrees>43.2134397514164447784423828125</LatitudeDegrees>
              <LongitudeDegrees>-1.67212941683828830718994140625</LongitudeDegrees>
            </Position>
            <AltitudeMeters>90.8000030517578125</AltitudeMeters>
            <DistanceMeters>NAN</DistanceMeters>
          </Trackpoint>
          <Trackpoint>
            <Time>2021-08-10T12:47:26.000Z</Time>
            <Position>
              <LatitudeDegrees>43.21356086991727352142333984375</LatitudeDegrees>
              <LongitudeDegrees>-1.6720958054065704345703125</LongitudeDegrees>
            </Position>
            <AltitudeMeters>90.8000030517578125</AltitudeMeters>
            <DistanceMeters>NAN</DistanceMeters>
          </Trackpoint>
          <Trackpoint>
            <Time>2021-08-10T12:47:34.000Z</Time>
            <Position>
              <LatitudeDegrees>43.21380830369889736175537109375</LatitudeDegrees>
              <LongitudeDegrees>-1.67206638492643833160400390625</LongitudeDegrees>
            </Position>
            <AltitudeMeters>90.59999847412109375</AltitudeMeters>
            <DistanceMeters>NAN</DistanceMeters>
          </Trackpoint>
          <Trackpoint>
            <Time>2021-08-10T12:47:36.000Z</Time>
            <Position>
              <LatitudeDegrees>43.21385733783245086669921875</LatitudeDegrees>
              <LongitudeDegrees>-1.67203872464597225189208984375</LongitudeDegrees>
            </Position>
            <AltitudeMeters>90.59999847412109375</AltitudeMeters>
            <DistanceMeters>NAN</DistanceMeters>
          </Trackpoint>
          <Trackpoint>
            <Time>2021-08-10T12:47:37.000Z</Time>
            <Position>
              <LatitudeDegrees>43.21387745440006256103515625</LatitudeDegrees>
              <LongitudeDegrees>-1.67201089672744274139404296875</LongitudeDegrees>
            </Position>
            <AltitudeMeters>90.59999847412109375</AltitudeMeters>
            <DistanceMeters>NAN</DistanceMeters>
          </Trackpoint>
          <Trackpoint>
            <Time>2021-08-10T12:47:38.000Z</Time>
            <Position>
              <LatitudeDegrees>43.21389866061508655548095703125</LatitudeDegrees>
              <LongitudeDegrees>-1.67196898721158504486083984375</LongitudeDegrees>
            </Position>
            <AltitudeMeters>90.59999847412109375</AltitudeMeters>
            <DistanceMeters>NAN</DistanceMeters>
          </Trackpoint>
          <Trackpoint>
            <Time>2021-08-10T12:47:39.000Z</Time>
            <Position>
              <LatitudeDegrees>43.2139183580875396728515625</LatitudeDegrees>
              <LongitudeDegrees>-1.6719253174960613250732421875</LongitudeDegrees>
            </Position>
            <AltitudeMeters>90.8000030517578125</AltitudeMeters>
            <DistanceMeters>NAN</DistanceMeters>
          </Trackpoint>
          <Trackpoint>
            <Time>2021-08-10T12:47:40.000Z</Time>
            <Position>
              <LatitudeDegrees>43.21394459344446659088134765625</LatitudeDegrees>
              <LongitudeDegrees>-1.67188902385532855987548828125</LongitudeDegrees>
            </Position>
            <AltitudeMeters>90.59999847412109375</AltitudeMeters>
            <DistanceMeters>NAN</DistanceMeters>
          </Trackpoint>
          <Trackpoint>
            <Time>2021-08-10T12:47:44.000Z</Time>
            <Position>
              <LatitudeDegrees>43.21404215879738330841064453125</LatitudeDegrees>
              <LongitudeDegrees>-1.6717774607241153717041015625</LongitudeDegrees>
            </Position>
            <AltitudeMeters>90.8000030517578125</AltitudeMeters>
            <DistanceMeters>NAN</DistanceMeters>
          </Trackpoint>
          <Trackpoint>
            <Time>2021-08-10T12:47:50.000Z</Time>
            <Position>
              <LatitudeDegrees>43.21424701251089572906494140625</LatitudeDegrees>
              <LongitudeDegrees>-1.67167310602962970733642578125</LongitudeDegrees>
            </Position>
            <AltitudeMeters>90.8000030517578125</AltitudeMeters>
            <DistanceMeters>NAN</DistanceMeters>
          </Trackpoint>
          <Trackpoint>
            <Time>2021-08-10T12:47:58.000Z</Time>
            <Position>
              <LatitudeDegrees>43.21450785733759403228759765625</LatitudeDegrees>
              <LongitudeDegrees>-1.671503372490406036376953125</LongitudeDegrees>
            </Position>
            <AltitudeMeters>91</AltitudeMeters>
            <DistanceMeters>NAN</DistanceMeters>
          </Trackpoint>
          <Trackpoint>
            <Time>2021-08-10T12:48:04.000Z</Time>
            <Position>
              <LatitudeDegrees>43.2147580571472644805908203125</LatitudeDegrees>
              <LongitudeDegrees>-1.6713496483862400054931640625</LongitudeDegrees>
            </Position>
            <AltitudeMeters>91</AltitudeMeters>
            <DistanceMeters>NAN</DistanceMeters>
          </Trackpoint>
          <Trackpoint>
            <Time>2021-08-10T12:48:05.000Z</Time>
            <Position>
              <LatitudeDegrees>43.21479208767414093017578125</LatitudeDegrees>
              <LongitudeDegrees>-1.67133078910410404205322265625</LongitudeDegrees>
            </Position>
            <AltitudeMeters>91</AltitudeMeters>
            <DistanceMeters>NAN</DistanceMeters>
          </Trackpoint>
          <Trackpoint>
            <Time>2021-08-10T12:48:12.000Z</Time>
            <Position>
              <LatitudeDegrees>43.21511252783238887786865234375</LatitudeDegrees>
              <LongitudeDegrees>-1.6712098382413387298583984375</LongitudeDegrees>
            </Position>
            <AltitudeMeters>90.1999969482421875</AltitudeMeters>
            <DistanceMeters>NAN</DistanceMeters>
          </Trackpoint>
          <Trackpoint>
            <Time>2021-08-10T12:48:15.000Z</Time>
            <Position>
              <LatitudeDegrees>43.2152499072253704071044921875</LatitudeDegrees>
              <LongitudeDegrees>-1.671156696975231170654296875</LongitudeDegrees>
            </Position>
            <AltitudeMeters>89.8000030517578125</AltitudeMeters>
            <DistanceMeters>NAN</DistanceMeters>
          </Trackpoint>
          <Trackpoint>
            <Time>2021-08-10T12:48:17.000Z</Time>
            <Position>
              <LatitudeDegrees>43.21534252725541591644287109375</LatitudeDegrees>
              <LongitudeDegrees>-1.671137250959873199462890625</LongitudeDegrees>
            </Position>
            <AltitudeMeters>89.59999847412109375</AltitudeMeters>
            <DistanceMeters>NAN</DistanceMeters>
          </Trackpoint>
          <Trackpoint>
            <Time>2021-08-10T12:48:20.000Z</Time>
            <Position>
              <LatitudeDegrees>43.215490467846393585205078125</LatitudeDegrees>
              <LongitudeDegrees>-1.6711146198213100433349609375</LongitudeDegrees>
            </Position>
            <AltitudeMeters>89.59999847412109375</AltitudeMeters>
            <DistanceMeters>NAN</DistanceMeters>
          </Trackpoint>
          <Trackpoint>
            <Time>2021-08-10T12:48:21.000Z</Time>
            <Position>
              <LatitudeDegrees>43.21553849615156650543212890625</LatitudeDegrees>
              <LongitudeDegrees>-1.67110674083232879638671875</LongitudeDegrees>
            </Position>
            <AltitudeMeters>89.59999847412109375</AltitudeMeters>
            <DistanceMeters>NAN</DistanceMeters>
          </Trackpoint>
          <Trackpoint>
            <Time>2021-08-10T12:48:22.000Z</Time>
            <Position>
              <LatitudeDegrees>43.2155885361135005950927734375</LatitudeDegrees>
              <LongitudeDegrees>-1.6711116023361682891845703125</LongitudeDegrees>
            </Position>
            <AltitudeMeters>89.40000152587890625</AltitudeMeters>
            <DistanceMeters>NAN</DistanceMeters>
          </Trackpoint>
          <Trackpoint>
            <Time>2021-08-10T12:48:23.000Z</Time>
            <Position>
              <LatitudeDegrees>43.21563840843737125396728515625</LatitudeDegrees>
              <LongitudeDegrees>-1.67111369781196117401123046875</LongitudeDegrees>
            </Position>
            <AltitudeMeters>89.40000152587890625</AltitudeMeters>
            <DistanceMeters>NAN</DistanceMeters>
          </Trackpoint>
          <Trackpoint>
            <Time>2021-08-10T12:48:26.000Z</Time>
            <Position>
              <LatitudeDegrees>43.21577872149646282196044921875</LatitudeDegrees>
              <LongitudeDegrees>-1.67113482020795345306396484375</LongitudeDegrees>
            </Position>
            <AltitudeMeters>89.1999969482421875</AltitudeMeters>
            <DistanceMeters>NAN</DistanceMeters>
          </Trackpoint>
          <Trackpoint>
            <Time>2021-08-10T12:48:27.000Z</Time>
            <Position>
              <LatitudeDegrees>43.21582381613552570343017578125</LatitudeDegrees>
              <LongitudeDegrees>-1.67113414965569972991943359375</LongitudeDegrees>
            </Position>
            <AltitudeMeters>89.1999969482421875</AltitudeMeters>
            <DistanceMeters>NAN</DistanceMeters>
          </Trackpoint>
          <Trackpoint>
            <Time>2021-08-10T12:48:29.000Z</Time>
            <Position>
              <LatitudeDegrees>43.21590143255889415740966796875</LatitudeDegrees>
              <LongitudeDegrees>-1.67114957235753536224365234375</LongitudeDegrees>
            </Position>
            <AltitudeMeters>89</AltitudeMeters>
            <DistanceMeters>NAN</DistanceMeters>
          </Trackpoint>
          <Trackpoint>
            <Time>2021-08-10T12:48:30.000Z</Time>
            <Position>
              <LatitudeDegrees>43.21594946086406707763671875</LatitudeDegrees>
              <LongitudeDegrees>-1.6711401008069515228271484375</LongitudeDegrees>
            </Position>
            <AltitudeMeters>89</AltitudeMeters>
            <DistanceMeters>NAN</DistanceMeters>
          </Trackpoint>
          <Trackpoint>
            <Time>2021-08-10T12:48:31.000Z</Time>
            <Position>
              <LatitudeDegrees>43.2159898616373538970947265625</LatitudeDegrees>
              <LongitudeDegrees>-1.671136580407619476318359375</LongitudeDegrees>
            </Position>
            <AltitudeMeters>89</AltitudeMeters>
            <DistanceMeters>NAN</DistanceMeters>
          </Trackpoint>
          <Trackpoint>
            <Time>2021-08-10T12:48:32.000Z</Time>
            <Position>
              <LatitudeDegrees>43.21602447889745235443115234375</LatitudeDegrees>
              <LongitudeDegrees>-1.6711447946727275848388671875</LongitudeDegrees>
            </Position>
            <AltitudeMeters>88.8000030517578125</AltitudeMeters>
            <DistanceMeters>NAN</DistanceMeters>
          </Trackpoint>
          <Trackpoint>
            <Time>2021-08-10T12:48:34.000Z</Time>
            <Position>
              <LatitudeDegrees>43.216090612113475799560546875</LatitudeDegrees>
              <LongitudeDegrees>-1.67117170058190822601318359375</LongitudeDegrees>
            </Position>
            <AltitudeMeters>88.59999847412109375</AltitudeMeters>
            <DistanceMeters>NAN</DistanceMeters>
          </Trackpoint>
          <Trackpoint>
            <Time>2021-08-10T12:48:35.000Z</Time>
            <Position>
              <LatitudeDegrees>43.21613059379160404205322265625</LatitudeDegrees>
              <LongitudeDegrees>-1.67117689736187458038330078125</LongitudeDegrees>
            </Position>
            <AltitudeMeters>88.59999847412109375</AltitudeMeters>
            <DistanceMeters>NAN</DistanceMeters>
          </Trackpoint>
          <Trackpoint>
            <Time>2021-08-10T12:48:37.000Z</Time>
            <Position>
              <LatitudeDegrees>43.216207958757877349853515625</LatitudeDegrees>
              <LongitudeDegrees>-1.67119030840694904327392578125</LongitudeDegrees>
            </Position>
            <AltitudeMeters>88.59999847412109375</AltitudeMeters>
            <DistanceMeters>NAN</DistanceMeters>
          </Trackpoint>
          <Trackpoint>
            <Time>2021-08-10T12:48:41.000Z</Time>
            <Position>
              <LatitudeDegrees>43.21637936867773532867431640625</LatitudeDegrees>
              <LongitudeDegrees>-1.6712101735174655914306640625</LongitudeDegrees>
            </Position>
            <AltitudeMeters>88.40000152587890625</AltitudeMeters>
            <DistanceMeters>NAN</DistanceMeters>
          </Trackpoint>
          <Trackpoint>
            <Time>2021-08-10T12:48:45.000Z</Time>
            <Position>
              <LatitudeDegrees>43.21655119769275188446044921875</LatitudeDegrees>
              <LongitudeDegrees>-1.6712296195328235626220703125</LongitudeDegrees>
            </Position>
            <AltitudeMeters>88.59999847412109375</AltitudeMeters>
            <DistanceMeters>NAN</DistanceMeters>
          </Trackpoint>
          <Trackpoint>
            <Time>2021-08-10T12:48:46.000Z</Time>
            <Position>
              <LatitudeDegrees>43.21659394539892673492431640625</LatitudeDegrees>
              <LongitudeDegrees>-1.6712286137044429779052734375</LongitudeDegrees>
            </Position>
            <AltitudeMeters>88.59999847412109375</AltitudeMeters>
            <DistanceMeters>NAN</DistanceMeters>
          </Trackpoint>
          <Trackpoint>
            <Time>2021-08-10T12:48:48.000Z</Time>
            <Position>
              <LatitudeDegrees>43.2166810333728790283203125</LatitudeDegrees>
              <LongitudeDegrees>-1.67123925872147083282470703125</LongitudeDegrees>
            </Position>
            <AltitudeMeters>88.59999847412109375</AltitudeMeters>
            <DistanceMeters>NAN</DistanceMeters>
          </Trackpoint>
          <Trackpoint>
            <Time>2021-08-10T12:48:50.000Z</Time>
            <Position>
              <LatitudeDegrees>43.2167586497962474822998046875</LatitudeDegrees>
              <LongitudeDegrees>-1.6712777316570281982421875</LongitudeDegrees>
            </Position>
            <AltitudeMeters>88.59999847412109375</AltitudeMeters>
            <DistanceMeters>NAN</DistanceMeters>
          </Trackpoint>
          <Trackpoint>
            <Time>2021-08-10T12:48:51.000Z</Time>
            <Position>
              <LatitudeDegrees>43.21679972112178802490234375</LatitudeDegrees>
              <LongitudeDegrees>-1.6712919808924198150634765625</LongitudeDegrees>
            </Position>
            <AltitudeMeters>88.59999847412109375</AltitudeMeters>
            <DistanceMeters>NAN</DistanceMeters>
          </Trackpoint>
          <Trackpoint>
            <Time>2021-08-10T12:48:53.000Z</Time>
            <Position>
              <LatitudeDegrees>43.216883875429630279541015625</LatitudeDegrees>
              <LongitudeDegrees>-1.67129809968173503875732421875</LongitudeDegrees>
            </Position>
            <AltitudeMeters>88.59999847412109375</AltitudeMeters>
            <DistanceMeters>NAN</DistanceMeters>
          </Trackpoint>
          <Trackpoint>
            <Time>2021-08-10T12:48:55.000Z</Time>
            <Position>
              <LatitudeDegrees>43.21698085404932498931884765625</LatitudeDegrees>
              <LongitudeDegrees>-1.67131084017455577850341796875</LongitudeDegrees>
            </Position>
            <AltitudeMeters>88.40000152587890625</AltitudeMeters>
            <DistanceMeters>NAN</DistanceMeters>
          </Trackpoint>
          <Trackpoint>
            <Time>2021-08-10T12:48:57.000Z</Time>
            <Position>
              <LatitudeDegrees>43.21706769056618213653564453125</LatitudeDegrees>
              <LongitudeDegrees>-1.67135191150009632110595703125</LongitudeDegrees>
            </Position>
            <AltitudeMeters>88.40000152587890625</AltitudeMeters>
            <DistanceMeters>NAN</DistanceMeters>
          </Trackpoint>
          <Trackpoint>
            <Time>2021-08-10T12:48:58.000Z</Time>
            <Position>
              <LatitudeDegrees>43.217106498777866363525390625</LatitudeDegrees>
              <LongitudeDegrees>-1.67137437500059604644775390625</LongitudeDegrees>
            </Position>
            <AltitudeMeters>88.40000152587890625</AltitudeMeters>
            <DistanceMeters>NAN</DistanceMeters>
          </Trackpoint>
          <Trackpoint>
            <Time>2021-08-10T12:48:59.000Z</Time>
            <Position>
              <LatitudeDegrees>43.217150084674358367919921875</LatitudeDegrees>
              <LongitudeDegrees>-1.67140572331845760345458984375</LongitudeDegrees>
            </Position>
            <AltitudeMeters>88.40000152587890625</AltitudeMeters>
            <DistanceMeters>NAN</DistanceMeters>
          </Trackpoint>
          <Trackpoint>
            <Time>2021-08-10T12:49:01.000Z</Time>
            <Position>
              <LatitudeDegrees>43.21723717264831066131591796875</LatitudeDegrees>
              <LongitudeDegrees>-1.6714706830680370330810546875</LongitudeDegrees>
            </Position>
            <AltitudeMeters>88.1999969482421875</AltitudeMeters>
            <DistanceMeters>NAN</DistanceMeters>
          </Trackpoint>
          <Trackpoint>
            <Time>2021-08-10T12:49:03.000Z</Time>
            <Position>
              <LatitudeDegrees>43.2172981090843677520751953125</LatitudeDegrees>
              <LongitudeDegrees>-1.67155123315751552581787109375</LongitudeDegrees>
            </Position>
            <AltitudeMeters>88.1999969482421875</AltitudeMeters>
            <DistanceMeters>NAN</DistanceMeters>
          </Trackpoint>
          <Trackpoint>
            <Time>2021-08-10T12:49:05.000Z</Time>
            <Position>
              <LatitudeDegrees>43.21736860089004039764404296875</LatitudeDegrees>
              <LongitudeDegrees>-1.6715880297124385833740234375</LongitudeDegrees>
            </Position>
            <AltitudeMeters>88.1999969482421875</AltitudeMeters>
            <DistanceMeters>NAN</DistanceMeters>
          </Trackpoint>
          <Trackpoint>
            <Time>2021-08-10T12:49:06.000Z</Time>
            <Position>
              <LatitudeDegrees>43.21740799583494663238525390625</LatitudeDegrees>
              <LongitudeDegrees>-1.67162817902863025665283203125</LongitudeDegrees>
            </Position>
            <AltitudeMeters>88.1999969482421875</AltitudeMeters>
            <DistanceMeters>NAN</DistanceMeters>
          </Trackpoint>
          <Trackpoint>
            <Time>2021-08-10T12:49:07.000Z</Time>
            <Position>
              <LatitudeDegrees>43.21744034998118877410888671875</LatitudeDegrees>
              <LongitudeDegrees>-1.67167243547737598419189453125</LongitudeDegrees>
            </Position>
            <AltitudeMeters>88</AltitudeMeters>
            <DistanceMeters>NAN</DistanceMeters>
          </Trackpoint>
          <Trackpoint>
            <Time>2021-08-10T12:49:10.000Z</Time>
            <Position>
              <LatitudeDegrees>43.2175321318209171295166015625</LatitudeDegrees>
              <LongitudeDegrees>-1.6717801429331302642822265625</LongitudeDegrees>
            </Position>
            <AltitudeMeters>88</AltitudeMeters>
            <DistanceMeters>NAN</DistanceMeters>
          </Trackpoint>
          <Trackpoint>
            <Time>2021-08-10T12:49:11.000Z</Time>
            <Position>
              <LatitudeDegrees>43.21755819953978061676025390625</LatitudeDegrees>
              <LongitudeDegrees>-1.67181677184998989105224609375</LongitudeDegrees>
            </Position>
            <AltitudeMeters>88</AltitudeMeters>
            <DistanceMeters>NAN</DistanceMeters>
          </Trackpoint>
          <Trackpoint>
            <Time>2021-08-10T12:49:13.000Z</Time>
            <Position>
              <LatitudeDegrees>43.21760295890271663665771484375</LatitudeDegrees>
              <LongitudeDegrees>-1.67188852094113826751708984375</LongitudeDegrees>
            </Position>
            <AltitudeMeters>88</AltitudeMeters>
            <DistanceMeters>NAN</DistanceMeters>
          </Trackpoint>
          <Trackpoint>
            <Time>2021-08-10T12:49:15.000Z</Time>
            <Position>
              <LatitudeDegrees>43.2176481373608112335205078125</LatitudeDegrees>
              <LongitudeDegrees>-1.67197552509605884552001953125</LongitudeDegrees>
            </Position>
            <AltitudeMeters>87.8000030517578125</AltitudeMeters>
            <DistanceMeters>NAN</DistanceMeters>
          </Trackpoint>
          <Trackpoint>
            <Time>2021-08-10T12:49:16.000Z</Time>
            <Position>
              <LatitudeDegrees>43.21766464971005916595458984375</LatitudeDegrees>
              <LongitudeDegrees>-1.6720088012516498565673828125</LongitudeDegrees>
            </Position>
            <AltitudeMeters>87.59999847412109375</AltitudeMeters>
            <DistanceMeters>NAN</DistanceMeters>
          </Trackpoint>
          <Trackpoint>
            <Time>2021-08-10T12:49:17.000Z</Time>
            <Position>
              <LatitudeDegrees>43.2176863588392734527587890625</LatitudeDegrees>
              <LongitudeDegrees>-1.67204685509204864501953125</LongitudeDegrees>
            </Position>
            <AltitudeMeters>87.59999847412109375</AltitudeMeters>
            <DistanceMeters>NAN</DistanceMeters>
          </Trackpoint>
          <Trackpoint>
            <Time>2021-08-10T12:49:18.000Z</Time>
            <Position>
              <LatitudeDegrees>43.21770639158785343170166015625</LatitudeDegrees>
              <LongitudeDegrees>-1.67208935134112834930419921875</LongitudeDegrees>
            </Position>
            <AltitudeMeters>87.59999847412109375</AltitudeMeters>
            <DistanceMeters>NAN</DistanceMeters>
          </Trackpoint>
          <Trackpoint>
            <Time>2021-08-10T12:49:19.000Z</Time>
            <Position>
              <LatitudeDegrees>43.21773044764995574951171875</LatitudeDegrees>
              <LongitudeDegrees>-1.67213243432343006134033203125</LongitudeDegrees>
            </Position>
            <AltitudeMeters>87.59999847412109375</AltitudeMeters>
            <DistanceMeters>NAN</DistanceMeters>
          </Trackpoint>
          <Trackpoint>
            <Time>2021-08-10T12:49:20.000Z</Time>
            <Position>
              <LatitudeDegrees>43.21775936521589756011962890625</LatitudeDegrees>
              <LongitudeDegrees>-1.67218138463795185089111328125</LongitudeDegrees>
            </Position>
            <AltitudeMeters>87.59999847412109375</AltitudeMeters>
            <DistanceMeters>NAN</DistanceMeters>
          </Trackpoint>
          <Trackpoint>
            <Time>2021-08-10T12:49:21.000Z</Time>
            <Position>
              <LatitudeDegrees>43.217784427106380462646484375</LatitudeDegrees>
              <LongitudeDegrees>-1.672221533954143524169921875</LongitudeDegrees>
            </Position>
            <AltitudeMeters>87.59999847412109375</AltitudeMeters>
            <DistanceMeters>NAN</DistanceMeters>
          </Trackpoint>
          <Trackpoint>
            <Time>2021-08-10T12:49:22.000Z</Time>
            <Position>
              <LatitudeDegrees>43.21780823171138763427734375</LatitudeDegrees>
              <LongitudeDegrees>-1.67226218618452548980712890625</LongitudeDegrees>
            </Position>
            <AltitudeMeters>87.59999847412109375</AltitudeMeters>
            <DistanceMeters>NAN</DistanceMeters>
          </Trackpoint>
          <Trackpoint>
            <Time>2021-08-10T12:49:26.000Z</Time>
            <Position>
              <LatitudeDegrees>43.2178667373955249786376953125</LatitudeDegrees>
              <LongitudeDegrees>-1.67246066965162754058837890625</LongitudeDegrees>
            </Position>
            <AltitudeMeters>87.59999847412109375</AltitudeMeters>
            <DistanceMeters>NAN</DistanceMeters>
          </Trackpoint>
          <Trackpoint>
            <Time>2021-08-10T12:49:27.000Z</Time>
            <Position>
              <LatitudeDegrees>43.21786849759519100189208984375</LatitudeDegrees>
              <LongitudeDegrees>-1.672509871423244476318359375</LongitudeDegrees>
            </Position>
            <AltitudeMeters>87.59999847412109375</AltitudeMeters>
            <DistanceMeters>NAN</DistanceMeters>
          </Trackpoint>
          <Trackpoint>
            <Time>2021-08-10T12:49:28.000Z</Time>
            <Position>
              <LatitudeDegrees>43.21786799468100070953369140625</LatitudeDegrees>
              <LongitudeDegrees>-1.67255639098584651947021484375</LongitudeDegrees>
            </Position>
            <AltitudeMeters>87.40000152587890625</AltitudeMeters>
            <DistanceMeters>NAN</DistanceMeters>
          </Trackpoint>
          <Trackpoint>
            <Time>2021-08-10T12:49:31.000Z</Time>
            <Position>
              <LatitudeDegrees>43.2178721018135547637939453125</LatitudeDegrees>
              <LongitudeDegrees>-1.67269536294043064117431640625</LongitudeDegrees>
            </Position>
            <AltitudeMeters>87.40000152587890625</AltitudeMeters>
            <DistanceMeters>NAN</DistanceMeters>
          </Trackpoint>
          <Trackpoint>
            <Time>2021-08-10T12:49:32.000Z</Time>
            <Position>
              <LatitudeDegrees>43.21787252090871334075927734375</LatitudeDegrees>
              <LongitudeDegrees>-1.672739200294017791748046875</LongitudeDegrees>
            </Position>
            <AltitudeMeters>87.40000152587890625</AltitudeMeters>
            <DistanceMeters>NAN</DistanceMeters>
          </Trackpoint>
          <Trackpoint>
            <Time>2021-08-10T12:49:33.000Z</Time>
            <Position>
              <LatitudeDegrees>43.21787126362323760986328125</LatitudeDegrees>
              <LongitudeDegrees>-1.67277800850570201873779296875</LongitudeDegrees>
            </Position>
            <AltitudeMeters>87.40000152587890625</AltitudeMeters>
            <DistanceMeters>NAN</DistanceMeters>
          </Trackpoint>
          <Trackpoint>
            <Time>2021-08-10T12:49:34.000Z</Time>
            <Position>
              <LatitudeDegrees>43.21787260472774505615234375</LatitudeDegrees>
              <LongitudeDegrees>-1.67279879562556743621826171875</LongitudeDegrees>
            </Position>
            <AltitudeMeters>87.40000152587890625</AltitudeMeters>
            <DistanceMeters>NAN</DistanceMeters>
          </Trackpoint>
          <Trackpoint>
            <Time>2021-08-10T12:49:35.000Z</Time>
            <Position>
              <LatitudeDegrees>43.21787402965128421783447265625</LatitudeDegrees>
              <LongitudeDegrees>-1.67281388305127620697021484375</LongitudeDegrees>
            </Position>
            <AltitudeMeters>87.40000152587890625</AltitudeMeters>
            <DistanceMeters>NAN</DistanceMeters>
          </Trackpoint>
          <Trackpoint>
            <Time>2021-08-10T12:49:36.000Z</Time>
            <Position>
              <LatitudeDegrees>43.21787117980420589447021484375</LatitudeDegrees>
              <LongitudeDegrees>-1.6728255338966846466064453125</LongitudeDegrees>
            </Position>
            <AltitudeMeters>87.40000152587890625</AltitudeMeters>
            <DistanceMeters>NAN</DistanceMeters>
          </Trackpoint>
          <Trackpoint>
            <Time>2021-08-10T12:49:37.000Z</Time>
            <Position>
              <LatitudeDegrees>43.2178647257387638092041015625</LatitudeDegrees>
              <LongitudeDegrees>-1.67283383198082447052001953125</LongitudeDegrees>
            </Position>
            <AltitudeMeters>87.59999847412109375</AltitudeMeters>
            <DistanceMeters>NAN</DistanceMeters>
          </Trackpoint>
          <Trackpoint>
            <Time>2021-08-10T12:49:39.000Z</Time>
            <Position>
              <LatitudeDegrees>43.21787369437515735626220703125</LatitudeDegrees>
              <LongitudeDegrees>-1.6728352569043636322021484375</LongitudeDegrees>
            </Position>
            <AltitudeMeters>87.8000030517578125</AltitudeMeters>
            <DistanceMeters>NAN</DistanceMeters>
          </Trackpoint>
          <Trackpoint>
            <Time>2021-08-10T12:49:45.000Z</Time>
            <Position>
              <LatitudeDegrees>43.21786028333008289337158203125</LatitudeDegrees>
              <LongitudeDegrees>-1.67283810675144195556640625</LongitudeDegrees>
            </Position>
            <AltitudeMeters>87.8000030517578125</AltitudeMeters>
            <DistanceMeters>NAN</DistanceMeters>
          </Trackpoint>
          <Trackpoint>
            <Time>2021-08-10T12:49:54.000Z</Time>
            <Position>
              <LatitudeDegrees>43.217831365764141082763671875</LatitudeDegrees>
              <LongitudeDegrees>-1.67283684946596622467041015625</LongitudeDegrees>
            </Position>
            <AltitudeMeters>88.1999969482421875</AltitudeMeters>
            <DistanceMeters>NAN</DistanceMeters>
          </Trackpoint>
          <Trackpoint>
            <Time>2021-08-10T12:49:59.000Z</Time>
            <Position>
              <LatitudeDegrees>43.2178389094769954681396484375</LatitudeDegrees>
              <LongitudeDegrees>-1.67286199517548084259033203125</LongitudeDegrees>
            </Position>
            <AltitudeMeters>88.1999969482421875</AltitudeMeters>
            <DistanceMeters>NAN</DistanceMeters>
          </Trackpoint>
          <Trackpoint>
            <Time>2021-08-10T12:50:00.000Z</Time>
            <Position>
              <LatitudeDegrees>43.21783597581088542938232421875</LatitudeDegrees>
              <LongitudeDegrees>-1.6728821955621242523193359375</LongitudeDegrees>
            </Position>
            <AltitudeMeters>88.1999969482421875</AltitudeMeters>
            <DistanceMeters>NAN</DistanceMeters>
          </Trackpoint>
          <Trackpoint>
            <Time>2021-08-10T12:50:01.000Z</Time>
            <Position>
              <LatitudeDegrees>43.2178311981260776519775390625</LatitudeDegrees>
              <LongitudeDegrees>-1.672914214432239532470703125</LongitudeDegrees>
            </Position>
            <AltitudeMeters>88</AltitudeMeters>
            <DistanceMeters>NAN</DistanceMeters>
          </Trackpoint>
          <Trackpoint>
            <Time>2021-08-10T12:50:02.000Z</Time>
            <Position>
              <LatitudeDegrees>43.21782373823225498199462890625</LatitudeDegrees>
              <LongitudeDegrees>-1.67294899933040142059326171875</LongitudeDegrees>
            </Position>
            <AltitudeMeters>88</AltitudeMeters>
            <DistanceMeters>NAN</DistanceMeters>
          </Trackpoint>
          <Trackpoint>
            <Time>2021-08-10T12:50:03.000Z</Time>
            <Position>
              <LatitudeDegrees>43.21781493723392486572265625</LatitudeDegrees>
              <LongitudeDegrees>-1.67298638261854648590087890625</LongitudeDegrees>
            </Position>
            <AltitudeMeters>88</AltitudeMeters>
            <DistanceMeters>NAN</DistanceMeters>
          </Trackpoint>
          <Trackpoint>
            <Time>2021-08-10T12:50:05.000Z</Time>
            <Position>
              <LatitudeDegrees>43.2178003527224063873291015625</LatitudeDegrees>
              <LongitudeDegrees>-1.673072464764118194580078125</LongitudeDegrees>
            </Position>
            <AltitudeMeters>87.8000030517578125</AltitudeMeters>
            <DistanceMeters>NAN</DistanceMeters>
          </Trackpoint>
          <Trackpoint>
            <Time>2021-08-10T12:50:06.000Z</Time>
            <Position>
              <LatitudeDegrees>43.21779549121856689453125</LatitudeDegrees>
              <LongitudeDegrees>-1.67310691438615322113037109375</LongitudeDegrees>
            </Position>
            <AltitudeMeters>87.8000030517578125</AltitudeMeters>
            <DistanceMeters>NAN</DistanceMeters>
          </Trackpoint>
          <Trackpoint>
            <Time>2021-08-10T12:50:07.000Z</Time>
            <Position>
              <LatitudeDegrees>43.21779507212340831756591796875</LatitudeDegrees>
              <LongitudeDegrees>-1.6731366701424121856689453125</LongitudeDegrees>
            </Position>
            <AltitudeMeters>87.59999847412109375</AltitudeMeters>
            <DistanceMeters>NAN</DistanceMeters>
          </Trackpoint>
          <Trackpoint>
            <Time>2021-08-10T12:50:08.000Z</Time>
            <Position>
              <LatitudeDegrees>43.21779507212340831756591796875</LatitudeDegrees>
              <LongitudeDegrees>-1.67316391132771968841552734375</LongitudeDegrees>
            </Position>
            <AltitudeMeters>87.59999847412109375</AltitudeMeters>
            <DistanceMeters>NAN</DistanceMeters>
          </Trackpoint>
          <Trackpoint>
            <Time>2021-08-10T12:50:09.000Z</Time>
            <Position>
              <LatitudeDegrees>43.2177916355431079864501953125</LatitudeDegrees>
              <LongitudeDegrees>-1.67318805120885372161865234375</LongitudeDegrees>
            </Position>
            <AltitudeMeters>87.59999847412109375</AltitudeMeters>
            <DistanceMeters>NAN</DistanceMeters>
          </Trackpoint>
          <Trackpoint>
            <Time>2021-08-10T12:50:10.000Z</Time>
            <Position>
              <LatitudeDegrees>43.2177859358489513397216796875</LatitudeDegrees>
              <LongitudeDegrees>-1.6732037253677845001220703125</LongitudeDegrees>
            </Position>
            <AltitudeMeters>87.59999847412109375</AltitudeMeters>
            <DistanceMeters>NAN</DistanceMeters>
          </Trackpoint>
          <Trackpoint>
            <Time>2021-08-10T12:50:11.000Z</Time>
            <Position>
              <LatitudeDegrees>43.217783086001873016357421875</LatitudeDegrees>
              <LongitudeDegrees>-1.67321822606027126312255859375</LongitudeDegrees>
            </Position>
            <AltitudeMeters>87.59999847412109375</AltitudeMeters>
            <DistanceMeters>NAN</DistanceMeters>
          </Trackpoint>
          <Trackpoint>
            <Time>2021-08-10T12:50:12.000Z</Time>
            <Position>
              <LatitudeDegrees>43.21778149344027042388916015625</LatitudeDegrees>
              <LongitudeDegrees>-1.6732375882565975189208984375</LongitudeDegrees>
            </Position>
            <AltitudeMeters>87.59999847412109375</AltitudeMeters>
            <DistanceMeters>NAN</DistanceMeters>
          </Trackpoint>
          <Trackpoint>
            <Time>2021-08-10T12:50:13.000Z</Time>
            <Position>
              <LatitudeDegrees>43.2177807390689849853515625</LatitudeDegrees>
              <LongitudeDegrees>-1.67325384914875030517578125</LongitudeDegrees>
            </Position>
            <AltitudeMeters>87.59999847412109375</AltitudeMeters>
            <DistanceMeters>NAN</DistanceMeters>
          </Trackpoint>
          <Trackpoint>
            <Time>2021-08-10T12:50:14.000Z</Time>
            <Position>
              <LatitudeDegrees>43.2177654840052127838134765625</LatitudeDegrees>
              <LongitudeDegrees>-1.67326390743255615234375</LongitudeDegrees>
            </Position>
            <AltitudeMeters>87.59999847412109375</AltitudeMeters>
            <DistanceMeters>NAN</DistanceMeters>
          </Trackpoint>
          <Trackpoint>
            <Time>2021-08-10T12:50:17.000Z</Time>
            <Position>
              <LatitudeDegrees>43.21776489727199077606201171875</LatitudeDegrees>
              <LongitudeDegrees>-1.67326684109866619110107421875</LongitudeDegrees>
            </Position>
            <AltitudeMeters>87.59999847412109375</AltitudeMeters>
            <DistanceMeters>NAN</DistanceMeters>
          </Trackpoint>
          <Trackpoint>
            <Time>2021-08-10T12:50:23.000Z</Time>
            <Position>
              <LatitudeDegrees>43.2177487201988697052001953125</LatitudeDegrees>
              <LongitudeDegrees>-1.6732644103467464447021484375</LongitudeDegrees>
            </Position>
            <AltitudeMeters>87.59999847412109375</AltitudeMeters>
            <DistanceMeters>NAN</DistanceMeters>
          </Trackpoint>
          <Trackpoint>
            <Time>2021-08-10T12:50:36.000Z</Time>
            <Position>
              <LatitudeDegrees>43.21771301329135894775390625</LatitudeDegrees>
              <LongitudeDegrees>-1.67325225658714771270751953125</LongitudeDegrees>
            </Position>
            <AltitudeMeters>87.59999847412109375</AltitudeMeters>
            <DistanceMeters>NAN</DistanceMeters>
          </Trackpoint>
          <Trackpoint>
            <Time>2021-08-10T12:51:19.000Z</Time>
            <Position>
              <LatitudeDegrees>43.21772265248000621795654296875</LatitudeDegrees>
              <LongitudeDegrees>-1.67325879447162151336669921875</LongitudeDegrees>
            </Position>
            <AltitudeMeters>88</AltitudeMeters>
            <DistanceMeters>NAN</DistanceMeters>
          </Trackpoint>
          <Trackpoint>
            <Time>2021-08-10T12:51:21.000Z</Time>
            <Position>
              <LatitudeDegrees>43.2177252508699893951416015625</LatitudeDegrees>
              <LongitudeDegrees>-1.67329986579716205596923828125</LongitudeDegrees>
            </Position>
            <AltitudeMeters>88</AltitudeMeters>
            <DistanceMeters>NAN</DistanceMeters>
          </Trackpoint>
          <Trackpoint>
            <Time>2021-08-10T12:51:23.000Z</Time>
            <Position>
              <LatitudeDegrees>43.21772240102291107177734375</LatitudeDegrees>
              <LongitudeDegrees>-1.673350073397159576416015625</LongitudeDegrees>
            </Position>
            <AltitudeMeters>88</AltitudeMeters>
            <DistanceMeters>NAN</DistanceMeters>
          </Trackpoint>
          <Trackpoint>
            <Time>2021-08-10T12:51:24.000Z</Time>
            <Position>
              <LatitudeDegrees>43.217718712985515594482421875</LatitudeDegrees>
              <LongitudeDegrees>-1.67337127961218357086181640625</LongitudeDegrees>
            </Position>
            <AltitudeMeters>88</AltitudeMeters>
            <DistanceMeters>NAN</DistanceMeters>
          </Trackpoint>
          <Trackpoint>
            <Time>2021-08-10T12:51:25.000Z</Time>
            <Position>
              <LatitudeDegrees>43.2177138514816761016845703125</LatitudeDegrees>
              <LongitudeDegrees>-1.67339726351201534271240234375</LongitudeDegrees>
            </Position>
            <AltitudeMeters>88</AltitudeMeters>
            <DistanceMeters>NAN</DistanceMeters>
          </Trackpoint>
          <Trackpoint>
            <Time>2021-08-10T12:51:27.000Z</Time>
            <Position>
              <LatitudeDegrees>43.2177056372165679931640625</LatitudeDegrees>
              <LongitudeDegrees>-1.67347035370767116546630859375</LongitudeDegrees>
            </Position>
            <AltitudeMeters>87.8000030517578125</AltitudeMeters>
            <DistanceMeters>NAN</DistanceMeters>
          </Trackpoint>
          <Trackpoint>
            <Time>2021-08-10T12:51:32.000Z</Time>
            <Position>
              <LatitudeDegrees>43.217673785984516143798828125</LatitudeDegrees>
              <LongitudeDegrees>-1.6736876964569091796875</LongitudeDegrees>
            </Position>
            <AltitudeMeters>87.8000030517578125</AltitudeMeters>
            <DistanceMeters>NAN</DistanceMeters>
          </Trackpoint>
          <Trackpoint>
            <Time>2021-08-10T12:51:33.000Z</Time>
            <Position>
              <LatitudeDegrees>43.21766607463359832763671875</LatitudeDegrees>
              <LongitudeDegrees>-1.67373773641884326934814453125</LongitudeDegrees>
            </Position>
            <AltitudeMeters>87.8000030517578125</AltitudeMeters>
            <DistanceMeters>NAN</DistanceMeters>
          </Trackpoint>
          <Trackpoint>
            <Time>2021-08-10T12:51:41.000Z</Time>
            <Position>
              <LatitudeDegrees>43.2175862789154052734375</LatitudeDegrees>
              <LongitudeDegrees>-1.67414274998009204864501953125</LongitudeDegrees>
            </Position>
            <AltitudeMeters>87.8000030517578125</AltitudeMeters>
            <DistanceMeters>NAN</DistanceMeters>
          </Trackpoint>
          <Trackpoint>
            <Time>2021-08-10T12:51:45.000Z</Time>
            <Position>
              <LatitudeDegrees>43.2175366580486297607421875</LatitudeDegrees>
              <LongitudeDegrees>-1.674328744411468505859375</LongitudeDegrees>
            </Position>
            <AltitudeMeters>87.8000030517578125</AltitudeMeters>
            <DistanceMeters>NAN</DistanceMeters>
          </Trackpoint>
          <Trackpoint>
            <Time>2021-08-10T12:51:46.000Z</Time>
            <Position>
              <LatitudeDegrees>43.21753799915313720703125</LatitudeDegrees>
              <LongitudeDegrees>-1.674365289509296417236328125</LongitudeDegrees>
            </Position>
            <AltitudeMeters>87.8000030517578125</AltitudeMeters>
            <DistanceMeters>NAN</DistanceMeters>
          </Trackpoint>
          <Trackpoint>
            <Time>2021-08-10T12:51:47.000Z</Time>
            <Position>
              <LatitudeDegrees>43.21755317039787769317626953125</LatitudeDegrees>
              <LongitudeDegrees>-1.67440258897840976715087890625</LongitudeDegrees>
            </Position>
            <AltitudeMeters>87.8000030517578125</AltitudeMeters>
            <DistanceMeters>NAN</DistanceMeters>
          </Trackpoint>
          <Trackpoint>
            <Time>2021-08-10T12:51:48.000Z</Time>
            <Position>
              <LatitudeDegrees>43.2175539247691631317138671875</LatitudeDegrees>
              <LongitudeDegrees>-1.67445992119610309600830078125</LongitudeDegrees>
            </Position>
            <AltitudeMeters>87.8000030517578125</AltitudeMeters>
            <DistanceMeters>NAN</DistanceMeters>
          </Trackpoint>
          <Trackpoint>
            <Time>2021-08-10T12:51:49.000Z</Time>
            <Position>
              <LatitudeDegrees>43.21754294447600841522216796875</LatitudeDegrees>
              <LongitudeDegrees>-1.674504764378070831298828125</LongitudeDegrees>
            </Position>
            <AltitudeMeters>87.8000030517578125</AltitudeMeters>
            <DistanceMeters>NAN</DistanceMeters>
          </Trackpoint>
          <Trackpoint>
            <Time>2021-08-10T12:51:50.000Z</Time>
            <Position>
              <LatitudeDegrees>43.21752659976482391357421875</LatitudeDegrees>
              <LongitudeDegrees>-1.67455648072063922882080078125</LongitudeDegrees>
            </Position>
            <AltitudeMeters>87.8000030517578125</AltitudeMeters>
            <DistanceMeters>NAN</DistanceMeters>
          </Trackpoint>
          <Trackpoint>
            <Time>2021-08-10T12:51:51.000Z</Time>
            <Position>
              <LatitudeDegrees>43.217508159577846527099609375</LatitudeDegrees>
              <LongitudeDegrees>-1.6746251285076141357421875</LongitudeDegrees>
            </Position>
            <AltitudeMeters>87.59999847412109375</AltitudeMeters>
            <DistanceMeters>NAN</DistanceMeters>
          </Trackpoint>
          <Trackpoint>
            <Time>2021-08-10T12:51:55.000Z</Time>
            <Position>
              <LatitudeDegrees>43.217447139322757720947265625</LatitudeDegrees>
              <LongitudeDegrees>-1.67488588951528072357177734375</LongitudeDegrees>
            </Position>
            <AltitudeMeters>87</AltitudeMeters>
            <DistanceMeters>NAN</DistanceMeters>
          </Trackpoint>
          <Trackpoint>
            <Time>2021-08-10T12:51:56.000Z</Time>
            <Position>
              <LatitudeDegrees>43.21743414737284183502197265625</LatitudeDegrees>
              <LongitudeDegrees>-1.67495302855968475341796875</LongitudeDegrees>
            </Position>
            <AltitudeMeters>86.8000030517578125</AltitudeMeters>
            <DistanceMeters>NAN</DistanceMeters>
          </Trackpoint>
          <Trackpoint>
            <Time>2021-08-10T12:51:57.000Z</Time>
            <Position>
              <LatitudeDegrees>43.217419646680355072021484375</LatitudeDegrees>
              <LongitudeDegrees>-1.67502083815634250640869140625</LongitudeDegrees>
            </Position>
            <AltitudeMeters>86.8000030517578125</AltitudeMeters>
            <DistanceMeters>NAN</DistanceMeters>
          </Trackpoint>
          <Trackpoint>
            <Time>2021-08-10T12:51:58.000Z</Time>
            <Position>
              <LatitudeDegrees>43.21740598417818546295166015625</LatitudeDegrees>
              <LongitudeDegrees>-1.67509510181844234466552734375</LongitudeDegrees>
            </Position>
            <AltitudeMeters>86.59999847412109375</AltitudeMeters>
            <DistanceMeters>NAN</DistanceMeters>
          </Trackpoint>
          <Trackpoint>
            <Time>2021-08-10T12:52:00.000Z</Time>
            <Position>
              <LatitudeDegrees>43.21738000027835369110107421875</LatitudeDegrees>
              <LongitudeDegrees>-1.675238348543643951416015625</LongitudeDegrees>
            </Position>
            <AltitudeMeters>86.59999847412109375</AltitudeMeters>
            <DistanceMeters>NAN</DistanceMeters>
          </Trackpoint>
          <Trackpoint>
            <Time>2021-08-10T12:52:07.000Z</Time>
            <Position>
              <LatitudeDegrees>43.21729618124663829803466796875</LatitudeDegrees>
              <LongitudeDegrees>-1.67567722499370574951171875</LongitudeDegrees>
            </Position>
            <AltitudeMeters>86.40000152587890625</AltitudeMeters>
            <DistanceMeters>NAN</DistanceMeters>
          </Trackpoint>
          <Trackpoint>
            <Time>2021-08-10T12:52:09.000Z</Time>
            <Position>
              <LatitudeDegrees>43.21727774105966091156005859375</LatitudeDegrees>
              <LongitudeDegrees>-1.6758061386644840240478515625</LongitudeDegrees>
            </Position>
            <AltitudeMeters>86.40000152587890625</AltitudeMeters>
            <DistanceMeters>NAN</DistanceMeters>
          </Trackpoint>
          <Trackpoint>
            <Time>2021-08-10T12:52:10.000Z</Time>
            <Position>
              <LatitudeDegrees>43.21727044880390167236328125</LatitudeDegrees>
              <LongitudeDegrees>-1.67587361298501491546630859375</LongitudeDegrees>
            </Position>
            <AltitudeMeters>86.40000152587890625</AltitudeMeters>
            <DistanceMeters>NAN</DistanceMeters>
          </Trackpoint>
          <Trackpoint>
            <Time>2021-08-10T12:52:12.000Z</Time>
            <Position>
              <LatitudeDegrees>43.2172608934342861175537109375</LatitudeDegrees>
              <LongitudeDegrees>-1.6760197095572948455810546875</LongitudeDegrees>
            </Position>
            <AltitudeMeters>86.40000152587890625</AltitudeMeters>
            <DistanceMeters>NAN</DistanceMeters>
          </Trackpoint>
          <Trackpoint>
            <Time>2021-08-10T12:52:15.000Z</Time>
            <Position>
              <LatitudeDegrees>43.2172484882175922393798828125</LatitudeDegrees>
              <LongitudeDegrees>-1.67620134539902210235595703125</LongitudeDegrees>
            </Position>
            <AltitudeMeters>86.40000152587890625</AltitudeMeters>
            <DistanceMeters>NAN</DistanceMeters>
          </Trackpoint>
          <Trackpoint>
            <Time>2021-08-10T12:52:16.000Z</Time>
            <Position>
              <LatitudeDegrees>43.2172461412847042083740234375</LatitudeDegrees>
              <LongitudeDegrees>-1.6762530617415904998779296875</LongitudeDegrees>
            </Position>
            <AltitudeMeters>86.40000152587890625</AltitudeMeters>
            <DistanceMeters>NAN</DistanceMeters>
          </Trackpoint>
          <Trackpoint>
            <Time>2021-08-10T12:52:17.000Z</Time>
            <Position>
              <LatitudeDegrees>43.21723817847669124603271484375</LatitudeDegrees>
              <LongitudeDegrees>-1.67631248943507671356201171875</LongitudeDegrees>
            </Position>
            <AltitudeMeters>86.40000152587890625</AltitudeMeters>
            <DistanceMeters>NAN</DistanceMeters>
          </Trackpoint>
          <Trackpoint>
            <Time>2021-08-10T12:52:18.000Z</Time>
            <Position>
              <LatitudeDegrees>43.21723558008670806884765625</LatitudeDegrees>
              <LongitudeDegrees>-1.67637703008949756622314453125</LongitudeDegrees>
            </Position>
            <AltitudeMeters>86.40000152587890625</AltitudeMeters>
            <DistanceMeters>NAN</DistanceMeters>
          </Trackpoint>
          <Trackpoint>
            <Time>2021-08-10T12:52:19.000Z</Time>
            <Position>
              <LatitudeDegrees>43.2172354124486446380615234375</LatitudeDegrees>
              <LongitudeDegrees>-1.67646118439733982086181640625</LongitudeDegrees>
            </Position>
            <AltitudeMeters>86.1999969482421875</AltitudeMeters>
            <DistanceMeters>NAN</DistanceMeters>
          </Trackpoint>
          <Trackpoint>
            <Time>2021-08-10T12:52:22.000Z</Time>
            <Position>
              <LatitudeDegrees>43.21723549626767635345458984375</LatitudeDegrees>
              <LongitudeDegrees>-1.6766734980046749114990234375</LongitudeDegrees>
            </Position>
            <AltitudeMeters>86.1999969482421875</AltitudeMeters>
            <DistanceMeters>NAN</DistanceMeters>
          </Trackpoint>
          <Trackpoint>
            <Time>2021-08-10T12:52:23.000Z</Time>
            <Position>
              <LatitudeDegrees>43.217234909534454345703125</LatitudeDegrees>
              <LongitudeDegrees>-1.67673409916460514068603515625</LongitudeDegrees>
            </Position>
            <AltitudeMeters>86.1999969482421875</AltitudeMeters>
            <DistanceMeters>NAN</DistanceMeters>
          </Trackpoint>
          <Trackpoint>
            <Time>2021-08-10T12:52:24.000Z</Time>
            <Position>
              <LatitudeDegrees>43.21723499335348606109619140625</LatitudeDegrees>
              <LongitudeDegrees>-1.67679931037127971649169921875</LongitudeDegrees>
            </Position>
            <AltitudeMeters>86.1999969482421875</AltitudeMeters>
            <DistanceMeters>NAN</DistanceMeters>
          </Trackpoint>
          <Trackpoint>
            <Time>2021-08-10T12:52:25.000Z</Time>
            <Position>
              <LatitudeDegrees>43.21723423898220062255859375</LatitudeDegrees>
              <LongitudeDegrees>-1.676854379475116729736328125</LongitudeDegrees>
            </Position>
            <AltitudeMeters>86.1999969482421875</AltitudeMeters>
            <DistanceMeters>NAN</DistanceMeters>
          </Trackpoint>
          <Trackpoint>
            <Time>2021-08-10T12:52:27.000Z</Time>
            <Position>
              <LatitudeDegrees>43.21723700501024723052978515625</LatitudeDegrees>
              <LongitudeDegrees>-1.67699553072452545166015625</LongitudeDegrees>
            </Position>
            <AltitudeMeters>86.1999969482421875</AltitudeMeters>
            <DistanceMeters>NAN</DistanceMeters>
          </Trackpoint>
          <Trackpoint>
            <Time>2021-08-10T12:52:29.000Z</Time>
            <Position>
              <LatitudeDegrees>43.2172578759491443634033203125</LatitudeDegrees>
              <LongitudeDegrees>-1.67711631394922733306884765625</LongitudeDegrees>
            </Position>
            <AltitudeMeters>86.1999969482421875</AltitudeMeters>
            <DistanceMeters>NAN</DistanceMeters>
          </Trackpoint>
          <Trackpoint>
            <Time>2021-08-10T12:52:30.000Z</Time>
            <Position>
              <LatitudeDegrees>43.21726483292877674102783203125</LatitudeDegrees>
              <LongitudeDegrees>-1.6771717183291912078857421875</LongitudeDegrees>
            </Position>
            <AltitudeMeters>86.1999969482421875</AltitudeMeters>
            <DistanceMeters>NAN</DistanceMeters>
          </Trackpoint>
          <Trackpoint>
            <Time>2021-08-10T12:52:31.000Z</Time>
            <Position>
              <LatitudeDegrees>43.21726449765264987945556640625</LatitudeDegrees>
              <LongitudeDegrees>-1.67724497616291046142578125</LongitudeDegrees>
            </Position>
            <AltitudeMeters>86.1999969482421875</AltitudeMeters>
            <DistanceMeters>NAN</DistanceMeters>
          </Trackpoint>
          <Trackpoint>
            <Time>2021-08-10T12:52:34.000Z</Time>
            <Position>
              <LatitudeDegrees>43.217245303094387054443359375</LatitudeDegrees>
              <LongitudeDegrees>-1.6774597205221652984619140625</LongitudeDegrees>
            </Position>
            <AltitudeMeters>86.1999969482421875</AltitudeMeters>
            <DistanceMeters>NAN</DistanceMeters>
          </Trackpoint>
          <Trackpoint>
            <Time>2021-08-10T12:52:35.000Z</Time>
            <Position>
              <LatitudeDegrees>43.21725812740623950958251953125</LatitudeDegrees>
              <LongitudeDegrees>-1.677536666393280029296875</LongitudeDegrees>
            </Position>
            <AltitudeMeters>86.1999969482421875</AltitudeMeters>
            <DistanceMeters>NAN</DistanceMeters>
          </Trackpoint>
          <Trackpoint>
            <Time>2021-08-10T12:52:36.000Z</Time>
            <Position>
              <LatitudeDegrees>43.2172709517180919647216796875</LatitudeDegrees>
              <LongitudeDegrees>-1.67759844101965427398681640625</LongitudeDegrees>
            </Position>
            <AltitudeMeters>86.1999969482421875</AltitudeMeters>
            <DistanceMeters>NAN</DistanceMeters>
          </Trackpoint>
          <Trackpoint>
            <Time>2021-08-10T12:52:37.000Z</Time>
            <Position>
              <LatitudeDegrees>43.21728788316249847412109375</LatitudeDegrees>
              <LongitudeDegrees>-1.6776649095118045806884765625</LongitudeDegrees>
            </Position>
            <AltitudeMeters>86.1999969482421875</AltitudeMeters>
            <DistanceMeters>NAN</DistanceMeters>
          </Trackpoint>
          <Trackpoint>
            <Time>2021-08-10T12:52:38.000Z</Time>
            <Position>
              <LatitudeDegrees>43.2172987796366214752197265625</LatitudeDegrees>
              <LongitudeDegrees>-1.677732802927494049072265625</LongitudeDegrees>
            </Position>
            <AltitudeMeters>86.1999969482421875</AltitudeMeters>
            <DistanceMeters>NAN</DistanceMeters>
          </Trackpoint>
          <Trackpoint>
            <Time>2021-08-10T12:52:40.000Z</Time>
            <Position>
              <LatitudeDegrees>43.2173215784132480621337890625</LatitudeDegrees>
              <LongitudeDegrees>-1.67786481790244579315185546875</LongitudeDegrees>
            </Position>
            <AltitudeMeters>86.1999969482421875</AltitudeMeters>
            <DistanceMeters>NAN</DistanceMeters>
          </Trackpoint>
          <Trackpoint>
            <Time>2021-08-10T12:52:46.000Z</Time>
            <Position>
              <LatitudeDegrees>43.2174020446836948394775390625</LatitudeDegrees>
              <LongitudeDegrees>-1.6783052869141101837158203125</LongitudeDegrees>
            </Position>
            <AltitudeMeters>86.1999969482421875</AltitudeMeters>
            <DistanceMeters>NAN</DistanceMeters>
          </Trackpoint>
          <Trackpoint>
            <Time>2021-08-10T12:52:48.000Z</Time>
            <Position>
              <LatitudeDegrees>43.21744604967534542083740234375</LatitudeDegrees>
              <LongitudeDegrees>-1.678427495062351226806640625</LongitudeDegrees>
            </Position>
            <AltitudeMeters>86.40000152587890625</AltitudeMeters>
            <DistanceMeters>NAN</DistanceMeters>
          </Trackpoint>
          <Trackpoint>
            <Time>2021-08-10T12:52:49.000Z</Time>
            <Position>
              <LatitudeDegrees>43.21746080182492733001708984375</LatitudeDegrees>
              <LongitudeDegrees>-1.67847812175750732421875</LongitudeDegrees>
            </Position>
            <AltitudeMeters>86.59999847412109375</AltitudeMeters>
            <DistanceMeters>NAN</DistanceMeters>
          </Trackpoint>
          <Trackpoint>
            <Time>2021-08-10T12:52:50.000Z</Time>
            <Position>
              <LatitudeDegrees>43.21746901609003543853759765625</LatitudeDegrees>
              <LongitudeDegrees>-1.6785262338817119598388671875</LongitudeDegrees>
            </Position>
            <AltitudeMeters>86.59999847412109375</AltitudeMeters>
            <DistanceMeters>NAN</DistanceMeters>
          </Trackpoint>
          <Trackpoint>
            <Time>2021-08-10T12:52:52.000Z</Time>
            <Position>
              <LatitudeDegrees>43.21749483235180377960205078125</LatitudeDegrees>
              <LongitudeDegrees>-1.67866864241659641265869140625</LongitudeDegrees>
            </Position>
            <AltitudeMeters>86.59999847412109375</AltitudeMeters>
            <DistanceMeters>NAN</DistanceMeters>
          </Trackpoint>
          <Trackpoint>
            <Time>2021-08-10T12:52:53.000Z</Time>
            <Position>
              <LatitudeDegrees>43.21750539354979991912841796875</LatitudeDegrees>
              <LongitudeDegrees>-1.6787371225655078887939453125</LongitudeDegrees>
            </Position>
            <AltitudeMeters>86.59999847412109375</AltitudeMeters>
            <DistanceMeters>NAN</DistanceMeters>
          </Trackpoint>
          <Trackpoint>
            <Time>2021-08-10T12:52:55.000Z</Time>
            <Position>
              <LatitudeDegrees>43.21753062307834625244140625</LatitudeDegrees>
              <LongitudeDegrees>-1.67886410839855670928955078125</LongitudeDegrees>
            </Position>
            <AltitudeMeters>86.59999847412109375</AltitudeMeters>
            <DistanceMeters>NAN</DistanceMeters>
          </Trackpoint>
          <Trackpoint>
            <Time>2021-08-10T12:52:57.000Z</Time>
            <Position>
              <LatitudeDegrees>43.2175750471651554107666015625</LatitudeDegrees>
              <LongitudeDegrees>-1.678980030119419097900390625</LongitudeDegrees>
            </Position>
            <AltitudeMeters>86.8000030517578125</AltitudeMeters>
            <DistanceMeters>NAN</DistanceMeters>
          </Trackpoint>
          <Trackpoint>
            <Time>2021-08-10T12:52:58.000Z</Time>
            <Position>
              <LatitudeDegrees>43.217596001923084259033203125</LatitudeDegrees>
              <LongitudeDegrees>-1.67903342284262180328369140625</LongitudeDegrees>
            </Position>
            <AltitudeMeters>86.8000030517578125</AltitudeMeters>
            <DistanceMeters>NAN</DistanceMeters>
          </Trackpoint>
          <Trackpoint>
            <Time>2021-08-10T12:53:02.000Z</Time>
            <Position>
              <LatitudeDegrees>43.21768124587833881378173828125</LatitudeDegrees>
              <LongitudeDegrees>-1.67927130125463008880615234375</LongitudeDegrees>
            </Position>
            <AltitudeMeters>87</AltitudeMeters>
            <DistanceMeters>NAN</DistanceMeters>
          </Trackpoint>
          <Trackpoint>
            <Time>2021-08-10T12:53:03.000Z</Time>
            <Position>
              <LatitudeDegrees>43.2177083194255828857421875</LatitudeDegrees>
              <LongitudeDegrees>-1.6793298907577991485595703125</LongitudeDegrees>
            </Position>
            <AltitudeMeters>87</AltitudeMeters>
            <DistanceMeters>NAN</DistanceMeters>
          </Trackpoint>
          <Trackpoint>
            <Time>2021-08-10T12:53:05.000Z</Time>
            <Position>
              <LatitudeDegrees>43.21777260862290859222412109375</LatitudeDegrees>
              <LongitudeDegrees>-1.6794358380138874053955078125</LongitudeDegrees>
            </Position>
            <AltitudeMeters>87</AltitudeMeters>
            <DistanceMeters>NAN</DistanceMeters>
          </Trackpoint>
          <Trackpoint>
            <Time>2021-08-10T12:53:06.000Z</Time>
            <Position>
              <LatitudeDegrees>43.2178060524165630340576171875</LatitudeDegrees>
              <LongitudeDegrees>-1.6794891469180583953857421875</LongitudeDegrees>
            </Position>
            <AltitudeMeters>87</AltitudeMeters>
            <DistanceMeters>NAN</DistanceMeters>
          </Trackpoint>
          <Trackpoint>
            <Time>2021-08-10T12:53:07.000Z</Time>
            <Position>
              <LatitudeDegrees>43.2178456149995326995849609375</LatitudeDegrees>
              <LongitudeDegrees>-1.679534912109375</LongitudeDegrees>
            </Position>
            <AltitudeMeters>87</AltitudeMeters>
            <DistanceMeters>NAN</DistanceMeters>
          </Trackpoint>
          <Trackpoint>
            <Time>2021-08-10T12:53:12.000Z</Time>
            <Position>
              <LatitudeDegrees>43.2180516421794891357421875</LatitudeDegrees>
              <LongitudeDegrees>-1.67977907694876194000244140625</LongitudeDegrees>
            </Position>
            <AltitudeMeters>86.8000030517578125</AltitudeMeters>
            <DistanceMeters>NAN</DistanceMeters>
          </Trackpoint>
          <Trackpoint>
            <Time>2021-08-10T12:53:18.000Z</Time>
            <Position>
              <LatitudeDegrees>43.218329250812530517578125</LatitudeDegrees>
              <LongitudeDegrees>-1.679952330887317657470703125</LongitudeDegrees>
            </Position>
            <AltitudeMeters>86.1999969482421875</AltitudeMeters>
            <DistanceMeters>NAN</DistanceMeters>
          </Trackpoint>
          <Trackpoint>
            <Time>2021-08-10T12:53:19.000Z</Time>
            <Position>
              <LatitudeDegrees>43.2183756865561008453369140625</LatitudeDegrees>
              <LongitudeDegrees>-1.67997387237846851348876953125</LongitudeDegrees>
            </Position>
            <AltitudeMeters>86.1999969482421875</AltitudeMeters>
            <DistanceMeters>NAN</DistanceMeters>
          </Trackpoint>
          <Trackpoint>
            <Time>2021-08-10T12:53:24.000Z</Time>
            <Position>
              <LatitudeDegrees>43.21860979311168193817138671875</LatitudeDegrees>
              <LongitudeDegrees>-1.68006305582821369171142578125</LongitudeDegrees>
            </Position>
            <AltitudeMeters>86.1999969482421875</AltitudeMeters>
            <DistanceMeters>NAN</DistanceMeters>
          </Trackpoint>
          <Trackpoint>
            <Time>2021-08-10T12:53:31.000Z</Time>
            <Position>
              <LatitudeDegrees>43.21896828711032867431640625</LatitudeDegrees>
              <LongitudeDegrees>-1.68017520569264888763427734375</LongitudeDegrees>
            </Position>
            <AltitudeMeters>86</AltitudeMeters>
            <DistanceMeters>NAN</DistanceMeters>
          </Trackpoint>
          <Trackpoint>
            <Time>2021-08-10T12:53:35.000Z</Time>
            <Position>
              <LatitudeDegrees>43.21916702203452587127685546875</LatitudeDegrees>
              <LongitudeDegrees>-1.68024427257478237152099609375</LongitudeDegrees>
            </Position>
            <AltitudeMeters>86</AltitudeMeters>
            <DistanceMeters>NAN</DistanceMeters>
          </Trackpoint>
          <Trackpoint>
            <Time>2021-08-10T12:53:37.000Z</Time>
            <Position>
              <LatitudeDegrees>43.219275735318660736083984375</LatitudeDegrees>
              <LongitudeDegrees>-1.68027050793170928955078125</LongitudeDegrees>
            </Position>
            <AltitudeMeters>86</AltitudeMeters>
            <DistanceMeters>NAN</DistanceMeters>
          </Trackpoint>
          <Trackpoint>
            <Time>2021-08-10T12:53:38.000Z</Time>
            <Position>
              <LatitudeDegrees>43.21933784522116184234619140625</LatitudeDegrees>
              <LongitudeDegrees>-1.68027997948229312896728515625</LongitudeDegrees>
            </Position>
            <AltitudeMeters>86</AltitudeMeters>
            <DistanceMeters>NAN</DistanceMeters>
          </Trackpoint>
          <Trackpoint>
            <Time>2021-08-10T12:53:39.000Z</Time>
            <Position>
              <LatitudeDegrees>43.21938729844987392425537109375</LatitudeDegrees>
              <LongitudeDegrees>-1.68028660118579864501953125</LongitudeDegrees>
            </Position>
            <AltitudeMeters>86</AltitudeMeters>
            <DistanceMeters>NAN</DistanceMeters>
          </Trackpoint>
          <Trackpoint>
            <Time>2021-08-10T12:53:40.000Z</Time>
            <Position>
              <LatitudeDegrees>43.21943507529795169830322265625</LatitudeDegrees>
              <LongitudeDegrees>-1.68029389344155788421630859375</LongitudeDegrees>
            </Position>
            <AltitudeMeters>85.8000030517578125</AltitudeMeters>
            <DistanceMeters>NAN</DistanceMeters>
          </Trackpoint>
          <Trackpoint>
            <Time>2021-08-10T12:53:41.000Z</Time>
            <Position>
              <LatitudeDegrees>43.21947011165320873260498046875</LatitudeDegrees>
              <LongitudeDegrees>-1.68029892258346080780029296875</LongitudeDegrees>
            </Position>
            <AltitudeMeters>85.8000030517578125</AltitudeMeters>
            <DistanceMeters>NAN</DistanceMeters>
          </Trackpoint>
          <Trackpoint>
            <Time>2021-08-10T12:53:42.000Z</Time>
            <Position>
              <LatitudeDegrees>43.2195129431784152984619140625</LatitudeDegrees>
              <LongitudeDegrees>-1.68030194006860256195068359375</LongitudeDegrees>
            </Position>
            <AltitudeMeters>86</AltitudeMeters>
            <DistanceMeters>NAN</DistanceMeters>
          </Trackpoint>
          <Trackpoint>
            <Time>2021-08-10T12:53:43.000Z</Time>
            <Position>
              <LatitudeDegrees>43.21956901811063289642333984375</LatitudeDegrees>
              <LongitudeDegrees>-1.680311076343059539794921875</LongitudeDegrees>
            </Position>
            <AltitudeMeters>86</AltitudeMeters>
            <DistanceMeters>NAN</DistanceMeters>
          </Trackpoint>
          <Trackpoint>
            <Time>2021-08-10T12:53:44.000Z</Time>
            <Position>
              <LatitudeDegrees>43.2196088321506977081298828125</LatitudeDegrees>
              <LongitudeDegrees>-1.680325157940387725830078125</LongitudeDegrees>
            </Position>
            <AltitudeMeters>86</AltitudeMeters>
            <DistanceMeters>NAN</DistanceMeters>
          </Trackpoint>
          <Trackpoint>
            <Time>2021-08-10T12:53:45.000Z</Time>
            <Position>
              <LatitudeDegrees>43.21967110969126224517822265625</LatitudeDegrees>
              <LongitudeDegrees>-1.6803437657654285430908203125</LongitudeDegrees>
            </Position>
            <AltitudeMeters>86</AltitudeMeters>
            <DistanceMeters>NAN</DistanceMeters>
          </Trackpoint>
          <Trackpoint>
            <Time>2021-08-10T12:53:49.000Z</Time>
            <Position>
              <LatitudeDegrees>43.219889290630817413330078125</LatitudeDegrees>
              <LongitudeDegrees>-1.68034988455474376678466796875</LongitudeDegrees>
            </Position>
            <AltitudeMeters>86</AltitudeMeters>
            <DistanceMeters>NAN</DistanceMeters>
          </Trackpoint>
          <Trackpoint>
            <Time>2021-08-10T12:53:50.000Z</Time>
            <Position>
              <LatitudeDegrees>43.21993128396570682525634765625</LatitudeDegrees>
              <LongitudeDegrees>-1.68035122565925121307373046875</LongitudeDegrees>
            </Position>
            <AltitudeMeters>86</AltitudeMeters>
            <DistanceMeters>NAN</DistanceMeters>
          </Trackpoint>
          <Trackpoint>
            <Time>2021-08-10T12:53:51.000Z</Time>
            <Position>
              <LatitudeDegrees>43.21998040191829204559326171875</LatitudeDegrees>
              <LongitudeDegrees>-1.68034963309764862060546875</LongitudeDegrees>
            </Position>
            <AltitudeMeters>86</AltitudeMeters>
            <DistanceMeters>NAN</DistanceMeters>
          </Trackpoint>
          <Trackpoint>
            <Time>2021-08-10T12:53:52.000Z</Time>
            <Position>
              <LatitudeDegrees>43.22002331726253032684326171875</LatitudeDegrees>
              <LongitudeDegrees>-1.6803437657654285430908203125</LongitudeDegrees>
            </Position>
            <AltitudeMeters>86</AltitudeMeters>
            <DistanceMeters>NAN</DistanceMeters>
          </Trackpoint>
          <Trackpoint>
            <Time>2021-08-10T12:53:53.000Z</Time>
            <Position>
              <LatitudeDegrees>43.22006505914032459259033203125</LatitudeDegrees>
              <LongitudeDegrees>-1.6803347133100032806396484375</LongitudeDegrees>
            </Position>
            <AltitudeMeters>85.8000030517578125</AltitudeMeters>
            <DistanceMeters>NAN</DistanceMeters>
          </Trackpoint>
          <Trackpoint>
            <Time>2021-08-10T12:53:55.000Z</Time>
            <Position>
              <LatitudeDegrees>43.220158517360687255859375</LatitudeDegrees>
              <LongitudeDegrees>-1.6803226433694362640380859375</LongitudeDegrees>
            </Position>
            <AltitudeMeters>85.8000030517578125</AltitudeMeters>
            <DistanceMeters>NAN</DistanceMeters>
          </Trackpoint>
          <Trackpoint>
            <Time>2021-08-10T12:53:56.000Z</Time>
            <Position>
              <LatitudeDegrees>43.2202156819403171539306640625</LatitudeDegrees>
              <LongitudeDegrees>-1.680307723581790924072265625</LongitudeDegrees>
            </Position>
            <AltitudeMeters>85.8000030517578125</AltitudeMeters>
            <DistanceMeters>NAN</DistanceMeters>
          </Trackpoint>
          <Trackpoint>
            <Time>2021-08-10T12:53:57.000Z</Time>
            <Position>
              <LatitudeDegrees>43.2202632911503314971923828125</LatitudeDegrees>
              <LongitudeDegrees>-1.68028081767261028289794921875</LongitudeDegrees>
            </Position>
            <AltitudeMeters>85.59999847412109375</AltitudeMeters>
            <DistanceMeters>NAN</DistanceMeters>
          </Trackpoint>
          <Trackpoint>
            <Time>2021-08-10T12:53:58.000Z</Time>
            <Position>
              <LatitudeDegrees>43.220309726893901824951171875</LatitudeDegrees>
              <LongitudeDegrees>-1.6802519001066684722900390625</LongitudeDegrees>
            </Position>
            <AltitudeMeters>85.59999847412109375</AltitudeMeters>
            <DistanceMeters>NAN</DistanceMeters>
          </Trackpoint>
          <Trackpoint>
            <Time>2021-08-10T12:54:02.000Z</Time>
            <Position>
              <LatitudeDegrees>43.220491111278533935546875</LatitudeDegrees>
              <LongitudeDegrees>-1.6801352240145206451416015625</LongitudeDegrees>
            </Position>
            <AltitudeMeters>85.1999969482421875</AltitudeMeters>
            <DistanceMeters>NAN</DistanceMeters>
          </Trackpoint>
          <Trackpoint>
            <Time>2021-08-10T12:54:04.000Z</Time>
            <Position>
              <LatitudeDegrees>43.22057032026350498199462890625</LatitudeDegrees>
              <LongitudeDegrees>-1.68005500920116901397705078125</LongitudeDegrees>
            </Position>
            <AltitudeMeters>85.1999969482421875</AltitudeMeters>
            <DistanceMeters>NAN</DistanceMeters>
          </Trackpoint>
          <Trackpoint>
            <Time>2021-08-10T12:54:05.000Z</Time>
            <Position>
              <LatitudeDegrees>43.22061122395098209381103515625</LatitudeDegrees>
              <LongitudeDegrees>-1.68000773526728153228759765625</LongitudeDegrees>
            </Position>
            <AltitudeMeters>85.1999969482421875</AltitudeMeters>
            <DistanceMeters>NAN</DistanceMeters>
          </Trackpoint>
          <Trackpoint>
            <Time>2021-08-10T12:54:07.000Z</Time>
            <Position>
              <LatitudeDegrees>43.2206954620778560638427734375</LatitudeDegrees>
              <LongitudeDegrees>-1.6798956692218780517578125</LongitudeDegrees>
            </Position>
            <AltitudeMeters>85</AltitudeMeters>
            <DistanceMeters>NAN</DistanceMeters>
          </Trackpoint>
          <Trackpoint>
            <Time>2021-08-10T12:54:09.000Z</Time>
            <Position>
              <LatitudeDegrees>43.22075220756232738494873046875</LatitudeDegrees>
              <LongitudeDegrees>-1.679772622883319854736328125</LongitudeDegrees>
            </Position>
            <AltitudeMeters>85</AltitudeMeters>
            <DistanceMeters>NAN</DistanceMeters>
          </Trackpoint>
          <Trackpoint>
            <Time>2021-08-10T12:54:10.000Z</Time>
            <Position>
              <LatitudeDegrees>43.22077483870089054107666015625</LatitudeDegrees>
              <LongitudeDegrees>-1.679722331464290618896484375</LongitudeDegrees>
            </Position>
            <AltitudeMeters>84.8000030517578125</AltitudeMeters>
            <DistanceMeters>NAN</DistanceMeters>
          </Trackpoint>
          <Trackpoint>
            <Time>2021-08-10T12:54:12.000Z</Time>
            <Position>
              <LatitudeDegrees>43.22082110680639743804931640625</LatitudeDegrees>
              <LongitudeDegrees>-1.67960993014276027679443359375</LongitudeDegrees>
            </Position>
            <AltitudeMeters>84.8000030517578125</AltitudeMeters>
            <DistanceMeters>NAN</DistanceMeters>
          </Trackpoint>
          <Trackpoint>
            <Time>2021-08-10T12:54:13.000Z</Time>
            <Position>
              <LatitudeDegrees>43.22083585895597934722900390625</LatitudeDegrees>
              <LongitudeDegrees>-1.67955544777214527130126953125</LongitudeDegrees>
            </Position>
            <AltitudeMeters>84.59999847412109375</AltitudeMeters>
            <DistanceMeters>NAN</DistanceMeters>
          </Trackpoint>
          <Trackpoint>
            <Time>2021-08-10T12:54:14.000Z</Time>
            <Position>
              <LatitudeDegrees>43.22084139101207256317138671875</LatitudeDegrees>
              <LongitudeDegrees>-1.67950985021889209747314453125</LongitudeDegrees>
            </Position>
            <AltitudeMeters>84.59999847412109375</AltitudeMeters>
            <DistanceMeters>NAN</DistanceMeters>
          </Trackpoint>
          <Trackpoint>
            <Time>2021-08-10T12:54:15.000Z</Time>
            <Position>
              <LatitudeDegrees>43.22085765190422534942626953125</LatitudeDegrees>
              <LongitudeDegrees>-1.679458133876323699951171875</LongitudeDegrees>
            </Position>
            <AltitudeMeters>84.59999847412109375</AltitudeMeters>
            <DistanceMeters>NAN</DistanceMeters>
          </Trackpoint>
          <Trackpoint>
            <Time>2021-08-10T12:54:16.000Z</Time>
            <Position>
              <LatitudeDegrees>43.22088397108018398284912109375</LatitudeDegrees>
              <LongitudeDegrees>-1.67938613332808017730712890625</LongitudeDegrees>
            </Position>
            <AltitudeMeters>84.59999847412109375</AltitudeMeters>
            <DistanceMeters>NAN</DistanceMeters>
          </Trackpoint>
          <Trackpoint>
            <Time>2021-08-10T12:54:18.000Z</Time>
            <Position>
              <LatitudeDegrees>43.22093434631824493408203125</LatitudeDegrees>
              <LongitudeDegrees>-1.67927096597850322723388671875</LongitudeDegrees>
            </Position>
            <AltitudeMeters>84.59999847412109375</AltitudeMeters>
            <DistanceMeters>NAN</DistanceMeters>
          </Trackpoint>
          <Trackpoint>
            <Time>2021-08-10T12:54:19.000Z</Time>
            <Position>
              <LatitudeDegrees>43.220952115952968597412109375</LatitudeDegrees>
              <LongitudeDegrees>-1.67921614833176136016845703125</LongitudeDegrees>
            </Position>
            <AltitudeMeters>84.59999847412109375</AltitudeMeters>
            <DistanceMeters>NAN</DistanceMeters>
          </Trackpoint>
          <Trackpoint>
            <Time>2021-08-10T12:54:20.000Z</Time>
            <Position>
              <LatitudeDegrees>43.22096519172191619873046875</LatitudeDegrees>
              <LongitudeDegrees>-1.6791689582169055938720703125</LongitudeDegrees>
            </Position>
            <AltitudeMeters>84.59999847412109375</AltitudeMeters>
            <DistanceMeters>NAN</DistanceMeters>
          </Trackpoint>
          <Trackpoint>
            <Time>2021-08-10T12:54:27.000Z</Time>
            <Position>
              <LatitudeDegrees>43.22109737433493137359619140625</LatitudeDegrees>
              <LongitudeDegrees>-1.678701080381870269775390625</LongitudeDegrees>
            </Position>
            <AltitudeMeters>84.59999847412109375</AltitudeMeters>
            <DistanceMeters>NAN</DistanceMeters>
          </Trackpoint>
          <Trackpoint>
            <Time>2021-08-10T12:54:28.000Z</Time>
            <Position>
              <LatitudeDegrees>43.221116401255130767822265625</LatitudeDegrees>
              <LongitudeDegrees>-1.678636372089385986328125</LongitudeDegrees>
            </Position>
            <AltitudeMeters>84.59999847412109375</AltitudeMeters>
            <DistanceMeters>NAN</DistanceMeters>
          </Trackpoint>
          <Trackpoint>
            <Time>2021-08-10T12:54:29.000Z</Time>
            <Position>
              <LatitudeDegrees>43.22113643400371074676513671875</LatitudeDegrees>
              <LongitudeDegrees>-1.6785706579685211181640625</LongitudeDegrees>
            </Position>
            <AltitudeMeters>84.59999847412109375</AltitudeMeters>
            <DistanceMeters>NAN</DistanceMeters>
          </Trackpoint>
          <Trackpoint>
            <Time>2021-08-10T12:54:30.000Z</Time>
            <Position>
              <LatitudeDegrees>43.221156634390354156494140625</LatitudeDegrees>
              <LongitudeDegrees>-1.6785036027431488037109375</LongitudeDegrees>
            </Position>
            <AltitudeMeters>84.59999847412109375</AltitudeMeters>
            <DistanceMeters>NAN</DistanceMeters>
          </Trackpoint>
          <Trackpoint>
            <Time>2021-08-10T12:54:33.000Z</Time>
            <Position>
              <LatitudeDegrees>43.2212059199810028076171875</LatitudeDegrees>
              <LongitudeDegrees>-1.67828458361327648162841796875</LongitudeDegrees>
            </Position>
            <AltitudeMeters>84.40000152587890625</AltitudeMeters>
            <DistanceMeters>NAN</DistanceMeters>
          </Trackpoint>
          <Trackpoint>
            <Time>2021-08-10T12:54:38.000Z</Time>
            <Position>
              <LatitudeDegrees>43.22129401378333568572998046875</LatitudeDegrees>
              <LongitudeDegrees>-1.67792231775820255279541015625</LongitudeDegrees>
            </Position>
            <AltitudeMeters>84.1999969482421875</AltitudeMeters>
            <DistanceMeters>NAN</DistanceMeters>
          </Trackpoint>
          <Trackpoint>
            <Time>2021-08-10T12:54:42.000Z</Time>
            <Position>
              <LatitudeDegrees>43.2213831134140491485595703125</LatitudeDegrees>
              <LongitudeDegrees>-1.6776444576680660247802734375</LongitudeDegrees>
            </Position>
            <AltitudeMeters>84</AltitudeMeters>
            <DistanceMeters>NAN</DistanceMeters>
          </Trackpoint>
          <Trackpoint>
            <Time>2021-08-10T12:54:47.000Z</Time>
            <Position>
              <LatitudeDegrees>43.22148897685110569000244140625</LatitudeDegrees>
              <LongitudeDegrees>-1.677315048873424530029296875</LongitudeDegrees>
            </Position>
            <AltitudeMeters>83.59999847412109375</AltitudeMeters>
            <DistanceMeters>NAN</DistanceMeters>
          </Trackpoint>
          <Trackpoint>
            <Time>2021-08-10T12:54:48.000Z</Time>
            <Position>
              <LatitudeDegrees>43.22151110507547855377197265625</LatitudeDegrees>
              <LongitudeDegrees>-1.677262745797634124755859375</LongitudeDegrees>
            </Position>
            <AltitudeMeters>83.59999847412109375</AltitudeMeters>
            <DistanceMeters>NAN</DistanceMeters>
          </Trackpoint>
          <Trackpoint>
            <Time>2021-08-10T12:54:49.000Z</Time>
            <Position>
              <LatitudeDegrees>43.221538849174976348876953125</LatitudeDegrees>
              <LongitudeDegrees>-1.6772008873522281646728515625</LongitudeDegrees>
            </Position>
            <AltitudeMeters>83.40000152587890625</AltitudeMeters>
            <DistanceMeters>NAN</DistanceMeters>
          </Trackpoint>
          <Trackpoint>
            <Time>2021-08-10T12:54:50.000Z</Time>
            <Position>
              <LatitudeDegrees>43.2215748913586139678955078125</LatitudeDegrees>
              <LongitudeDegrees>-1.6771284677088260650634765625</LongitudeDegrees>
            </Position>
            <AltitudeMeters>83.40000152587890625</AltitudeMeters>
            <DistanceMeters>NAN</DistanceMeters>
          </Trackpoint>
          <Trackpoint>
            <Time>2021-08-10T12:54:51.000Z</Time>
            <Position>
              <LatitudeDegrees>43.22160380892455577850341796875</LatitudeDegrees>
              <LongitudeDegrees>-1.677068956196308135986328125</LongitudeDegrees>
            </Position>
            <AltitudeMeters>83.40000152587890625</AltitudeMeters>
            <DistanceMeters>NAN</DistanceMeters>
          </Trackpoint>
          <Trackpoint>
            <Time>2021-08-10T12:54:54.000Z</Time>
            <Position>
              <LatitudeDegrees>43.22170925326645374298095703125</LatitudeDegrees>
              <LongitudeDegrees>-1.67689628899097442626953125</LongitudeDegrees>
            </Position>
            <AltitudeMeters>83.40000152587890625</AltitudeMeters>
            <DistanceMeters>NAN</DistanceMeters>
          </Trackpoint>
          <Trackpoint>
            <Time>2021-08-10T12:54:55.000Z</Time>
            <Position>
              <LatitudeDegrees>43.22174035012722015380859375</LatitudeDegrees>
              <LongitudeDegrees>-1.67683728039264678955078125</LongitudeDegrees>
            </Position>
            <AltitudeMeters>83.1999969482421875</AltitudeMeters>
            <DistanceMeters>NAN</DistanceMeters>
          </Trackpoint>
          <Trackpoint>
            <Time>2021-08-10T12:54:56.000Z</Time>
            <Position>
              <LatitudeDegrees>43.22177588939666748046875</LatitudeDegrees>
              <LongitudeDegrees>-1.67678003199398517608642578125</LongitudeDegrees>
            </Position>
            <AltitudeMeters>83.1999969482421875</AltitudeMeters>
            <DistanceMeters>NAN</DistanceMeters>
          </Trackpoint>
          <Trackpoint>
            <Time>2021-08-10T12:54:57.000Z</Time>
            <Position>
              <LatitudeDegrees>43.22180782444775104522705078125</LatitudeDegrees>
              <LongitudeDegrees>-1.67673745192587375640869140625</LongitudeDegrees>
            </Position>
            <AltitudeMeters>83.1999969482421875</AltitudeMeters>
            <DistanceMeters>NAN</DistanceMeters>
          </Trackpoint>
          <Trackpoint>
            <Time>2021-08-10T12:55:00.000Z</Time>
            <Position>
              <LatitudeDegrees>43.22194444946944713592529296875</LatitudeDegrees>
              <LongitudeDegrees>-1.6765957139432430267333984375</LongitudeDegrees>
            </Position>
            <AltitudeMeters>83.1999969482421875</AltitudeMeters>
            <DistanceMeters>NAN</DistanceMeters>
          </Trackpoint>
          <Trackpoint>
            <Time>2021-08-10T12:55:01.000Z</Time>
            <Position>
              <LatitudeDegrees>43.221987448632717132568359375</LatitudeDegrees>
              <LongitudeDegrees>-1.67655824683606624603271484375</LongitudeDegrees>
            </Position>
            <AltitudeMeters>83</AltitudeMeters>
            <DistanceMeters>NAN</DistanceMeters>
          </Trackpoint>
          <Trackpoint>
            <Time>2021-08-10T12:55:02.000Z</Time>
            <Position>
              <LatitudeDegrees>43.22202441282570362091064453125</LatitudeDegrees>
              <LongitudeDegrees>-1.6765201091766357421875</LongitudeDegrees>
            </Position>
            <AltitudeMeters>83</AltitudeMeters>
            <DistanceMeters>NAN</DistanceMeters>
          </Trackpoint>
          <Trackpoint>
            <Time>2021-08-10T12:55:05.000Z</Time>
            <Position>
              <LatitudeDegrees>43.22216087020933628082275390625</LatitudeDegrees>
              <LongitudeDegrees>-1.6764213703572750091552734375</LongitudeDegrees>
            </Position>
            <AltitudeMeters>83</AltitudeMeters>
            <DistanceMeters>NAN</DistanceMeters>
          </Trackpoint>
          <Trackpoint>
            <Time>2021-08-10T12:55:07.000Z</Time>
            <Position>
              <LatitudeDegrees>43.22224703617393970489501953125</LatitudeDegrees>
              <LongitudeDegrees>-1.67637250386178493499755859375</LongitudeDegrees>
            </Position>
            <AltitudeMeters>83</AltitudeMeters>
            <DistanceMeters>NAN</DistanceMeters>
          </Trackpoint>
          <Trackpoint>
            <Time>2021-08-10T12:55:08.000Z</Time>
            <Position>
              <LatitudeDegrees>43.222290538251399993896484375</LatitudeDegrees>
              <LongitudeDegrees>-1.6763442568480968475341796875</LongitudeDegrees>
            </Position>
            <AltitudeMeters>83</AltitudeMeters>
            <DistanceMeters>NAN</DistanceMeters>
          </Trackpoint>
          <Trackpoint>
            <Time>2021-08-10T12:55:09.000Z</Time>
            <Position>
              <LatitudeDegrees>43.22233387269079685211181640625</LatitudeDegrees>
              <LongitudeDegrees>-1.67631684802472591400146484375</LongitudeDegrees>
            </Position>
            <AltitudeMeters>83</AltitudeMeters>
            <DistanceMeters>NAN</DistanceMeters>
          </Trackpoint>
          <Trackpoint>
            <Time>2021-08-10T12:55:10.000Z</Time>
            <Position>
              <LatitudeDegrees>43.222391791641712188720703125</LatitudeDegrees>
              <LongitudeDegrees>-1.676286421716213226318359375</LongitudeDegrees>
            </Position>
            <AltitudeMeters>83</AltitudeMeters>
            <DistanceMeters>NAN</DistanceMeters>
          </Trackpoint>
          <Trackpoint>
            <Time>2021-08-10T12:55:13.000Z</Time>
            <Position>
              <LatitudeDegrees>43.222552724182605743408203125</LatitudeDegrees>
              <LongitudeDegrees>-1.6762312687933444976806640625</LongitudeDegrees>
            </Position>
            <AltitudeMeters>83</AltitudeMeters>
            <DistanceMeters>NAN</DistanceMeters>
          </Trackpoint>
          <Trackpoint>
            <Time>2021-08-10T12:55:15.000Z</Time>
            <Position>
              <LatitudeDegrees>43.2226571626961231231689453125</LatitudeDegrees>
              <LongitudeDegrees>-1.6762047819793224334716796875</LongitudeDegrees>
            </Position>
            <AltitudeMeters>83.1999969482421875</AltitudeMeters>
            <DistanceMeters>NAN</DistanceMeters>
          </Trackpoint>
          <Trackpoint>
            <Time>2021-08-10T12:55:18.000Z</Time>
            <Position>
              <LatitudeDegrees>43.22281784377992153167724609375</LatitudeDegrees>
              <LongitudeDegrees>-1.67615608312189579010009765625</LongitudeDegrees>
            </Position>
            <AltitudeMeters>83.1999969482421875</AltitudeMeters>
            <DistanceMeters>NAN</DistanceMeters>
          </Trackpoint>
          <Trackpoint>
            <Time>2021-08-10T12:55:19.000Z</Time>
            <Position>
              <LatitudeDegrees>43.22288171388208866119384765625</LatitudeDegrees>
              <LongitudeDegrees>-1.67614501900970935821533203125</LongitudeDegrees>
            </Position>
            <AltitudeMeters>83.1999969482421875</AltitudeMeters>
            <DistanceMeters>NAN</DistanceMeters>
          </Trackpoint>
          <Trackpoint>
            <Time>2021-08-10T12:55:21.000Z</Time>
            <Position>
              <LatitudeDegrees>43.2229842245578765869140625</LatitudeDegrees>
              <LongitudeDegrees>-1.6761218011379241943359375</LongitudeDegrees>
            </Position>
            <AltitudeMeters>83.1999969482421875</AltitudeMeters>
            <DistanceMeters>NAN</DistanceMeters>
          </Trackpoint>
          <Trackpoint>
            <Time>2021-08-10T12:55:22.000Z</Time>
            <Position>
              <LatitudeDegrees>43.22302705608308315277099609375</LatitudeDegrees>
              <LongitudeDegrees>-1.67612456716597080230712890625</LongitudeDegrees>
            </Position>
            <AltitudeMeters>83</AltitudeMeters>
            <DistanceMeters>NAN</DistanceMeters>
          </Trackpoint>
          <Trackpoint>
            <Time>2021-08-10T12:55:23.000Z</Time>
            <Position>
              <LatitudeDegrees>43.22306930087506771087646484375</LatitudeDegrees>
              <LongitudeDegrees>-1.67612423188984394073486328125</LongitudeDegrees>
            </Position>
            <AltitudeMeters>83</AltitudeMeters>
            <DistanceMeters>NAN</DistanceMeters>
          </Trackpoint>
          <Trackpoint>
            <Time>2021-08-10T12:55:24.000Z</Time>
            <Position>
              <LatitudeDegrees>43.2231223583221435546875</LatitudeDegrees>
              <LongitudeDegrees>-1.67611618526279926300048828125</LongitudeDegrees>
            </Position>
            <AltitudeMeters>83</AltitudeMeters>
            <DistanceMeters>NAN</DistanceMeters>
          </Trackpoint>
          <Trackpoint>
            <Time>2021-08-10T12:55:27.000Z</Time>
            <Position>
              <LatitudeDegrees>43.22327725589275360107421875</LatitudeDegrees>
              <LongitudeDegrees>-1.6761031933128833770751953125</LongitudeDegrees>
            </Position>
            <AltitudeMeters>83.1999969482421875</AltitudeMeters>
            <DistanceMeters>NAN</DistanceMeters>
          </Trackpoint>
          <Trackpoint>
            <Time>2021-08-10T12:55:28.000Z</Time>
            <Position>
              <LatitudeDegrees>43.22332042269408702850341796875</LatitudeDegrees>
              <LongitudeDegrees>-1.67609439231455326080322265625</LongitudeDegrees>
            </Position>
            <AltitudeMeters>83</AltitudeMeters>
            <DistanceMeters>NAN</DistanceMeters>
          </Trackpoint>
          <Trackpoint>
            <Time>2021-08-10T12:55:29.000Z</Time>
            <Position>
              <LatitudeDegrees>43.22337381541728973388671875</LatitudeDegrees>
              <LongitudeDegrees>-1.67607410810887813568115234375</LongitudeDegrees>
            </Position>
            <AltitudeMeters>83.1999969482421875</AltitudeMeters>
            <DistanceMeters>NAN</DistanceMeters>
          </Trackpoint>
          <Trackpoint>
            <Time>2021-08-10T12:55:30.000Z</Time>
            <Position>
              <LatitudeDegrees>43.22342888452112674713134765625</LatitudeDegrees>
              <LongitudeDegrees>-1.67605876922607421875</LongitudeDegrees>
            </Position>
            <AltitudeMeters>83.1999969482421875</AltitudeMeters>
            <DistanceMeters>NAN</DistanceMeters>
          </Trackpoint>
          <Trackpoint>
            <Time>2021-08-10T12:55:31.000Z</Time>
            <Position>
              <LatitudeDegrees>43.223472051322460174560546875</LatitudeDegrees>
              <LongitudeDegrees>-1.6760455258190631866455078125</LongitudeDegrees>
            </Position>
            <AltitudeMeters>83.1999969482421875</AltitudeMeters>
            <DistanceMeters>NAN</DistanceMeters>
          </Trackpoint>
          <Trackpoint>
            <Time>2021-08-10T12:55:33.000Z</Time>
            <Position>
              <LatitudeDegrees>43.2235825248062610626220703125</LatitudeDegrees>
              <LongitudeDegrees>-1.67603186331689357757568359375</LongitudeDegrees>
            </Position>
            <AltitudeMeters>83</AltitudeMeters>
            <DistanceMeters>NAN</DistanceMeters>
          </Trackpoint>
          <Trackpoint>
            <Time>2021-08-10T12:55:34.000Z</Time>
            <Position>
              <LatitudeDegrees>43.22363038547337055206298828125</LatitudeDegrees>
              <LongitudeDegrees>-1.67603672482073307037353515625</LongitudeDegrees>
            </Position>
            <AltitudeMeters>83</AltitudeMeters>
            <DistanceMeters>NAN</DistanceMeters>
          </Trackpoint>
          <Trackpoint>
            <Time>2021-08-10T12:55:35.000Z</Time>
            <Position>
              <LatitudeDegrees>43.22366978041827678680419921875</LatitudeDegrees>
              <LongitudeDegrees>-1.6760693304240703582763671875</LongitudeDegrees>
            </Position>
            <AltitudeMeters>83</AltitudeMeters>
            <DistanceMeters>NAN</DistanceMeters>
          </Trackpoint>
          <Trackpoint>
            <Time>2021-08-10T12:55:36.000Z</Time>
            <Position>
              <LatitudeDegrees>43.22371537797152996063232421875</LatitudeDegrees>
              <LongitudeDegrees>-1.67606346309185028076171875</LongitudeDegrees>
            </Position>
            <AltitudeMeters>83</AltitudeMeters>
            <DistanceMeters>NAN</DistanceMeters>
          </Trackpoint>
          <Trackpoint>
            <Time>2021-08-10T12:55:37.000Z</Time>
            <Position>
              <LatitudeDegrees>43.223769776523113250732421875</LatitudeDegrees>
              <LongitudeDegrees>-1.676052398979663848876953125</LongitudeDegrees>
            </Position>
            <AltitudeMeters>83</AltitudeMeters>
            <DistanceMeters>NAN</DistanceMeters>
          </Trackpoint>
          <Trackpoint>
            <Time>2021-08-10T12:55:42.000Z</Time>
            <Position>
              <LatitudeDegrees>43.22403766214847564697265625</LatitudeDegrees>
              <LongitudeDegrees>-1.67604980058968067169189453125</LongitudeDegrees>
            </Position>
            <AltitudeMeters>82.59999847412109375</AltitudeMeters>
            <DistanceMeters>NAN</DistanceMeters>
          </Trackpoint>
          <Trackpoint>
            <Time>2021-08-10T12:55:43.000Z</Time>
            <Position>
              <LatitudeDegrees>43.2240892946720123291015625</LatitudeDegrees>
              <LongitudeDegrees>-1.67603873647749423980712890625</LongitudeDegrees>
            </Position>
            <AltitudeMeters>82.40000152587890625</AltitudeMeters>
            <DistanceMeters>NAN</DistanceMeters>
          </Trackpoint>
          <Trackpoint>
            <Time>2021-08-10T12:55:44.000Z</Time>
            <Position>
              <LatitudeDegrees>43.22413799352943897247314453125</LatitudeDegrees>
              <LongitudeDegrees>-1.6760458610951900482177734375</LongitudeDegrees>
            </Position>
            <AltitudeMeters>82.40000152587890625</AltitudeMeters>
            <DistanceMeters>NAN</DistanceMeters>
          </Trackpoint>
          <Trackpoint>
            <Time>2021-08-10T12:55:46.000Z</Time>
            <Position>
              <LatitudeDegrees>43.224231116473674774169921875</LatitudeDegrees>
              <LongitudeDegrees>-1.6760669834911823272705078125</LongitudeDegrees>
            </Position>
            <AltitudeMeters>82.40000152587890625</AltitudeMeters>
            <DistanceMeters>NAN</DistanceMeters>
          </Trackpoint>
          <Trackpoint>
            <Time>2021-08-10T12:55:47.000Z</Time>
            <Position>
              <LatitudeDegrees>43.22427880950272083282470703125</LatitudeDegrees>
              <LongitudeDegrees>-1.676069162786006927490234375</LongitudeDegrees>
            </Position>
            <AltitudeMeters>82.40000152587890625</AltitudeMeters>
            <DistanceMeters>NAN</DistanceMeters>
          </Trackpoint>
          <Trackpoint>
            <Time>2021-08-10T12:55:48.000Z</Time>
            <Position>
              <LatitudeDegrees>43.224328346550464630126953125</LatitudeDegrees>
              <LongitudeDegrees>-1.676070503890514373779296875</LongitudeDegrees>
            </Position>
            <AltitudeMeters>82.40000152587890625</AltitudeMeters>
            <DistanceMeters>NAN</DistanceMeters>
          </Trackpoint>
          <Trackpoint>
            <Time>2021-08-10T12:55:49.000Z</Time>
            <Position>
              <LatitudeDegrees>43.2243710942566394805908203125</LatitudeDegrees>
              <LongitudeDegrees>-1.67608282528817653656005859375</LongitudeDegrees>
            </Position>
            <AltitudeMeters>82.40000152587890625</AltitudeMeters>
            <DistanceMeters>NAN</DistanceMeters>
          </Trackpoint>
          <Trackpoint>
            <Time>2021-08-10T12:55:50.000Z</Time>
            <Position>
              <LatitudeDegrees>43.2244113273918628692626953125</LatitudeDegrees>
              <LongitudeDegrees>-1.6760944761335849761962890625</LongitudeDegrees>
            </Position>
            <AltitudeMeters>82.40000152587890625</AltitudeMeters>
            <DistanceMeters>NAN</DistanceMeters>
          </Trackpoint>
          <Trackpoint>
            <Time>2021-08-10T12:55:51.000Z</Time>
            <Position>
              <LatitudeDegrees>43.224447034299373626708984375</LatitudeDegrees>
              <LongitudeDegrees>-1.67610428296029567718505859375</LongitudeDegrees>
            </Position>
            <AltitudeMeters>82.1999969482421875</AltitudeMeters>
            <DistanceMeters>NAN</DistanceMeters>
          </Trackpoint>
          <Trackpoint>
            <Time>2021-08-10T12:55:52.000Z</Time>
            <Position>
              <LatitudeDegrees>43.22448718361556529998779296875</LatitudeDegrees>
              <LongitudeDegrees>-1.676112748682498931884765625</LongitudeDegrees>
            </Position>
            <AltitudeMeters>82.1999969482421875</AltitudeMeters>
            <DistanceMeters>NAN</DistanceMeters>
          </Trackpoint>
          <Trackpoint>
            <Time>2021-08-10T12:55:53.000Z</Time>
            <Position>
              <LatitudeDegrees>43.2245316915214061737060546875</LatitudeDegrees>
              <LongitudeDegrees>-1.6761244833469390869140625</LongitudeDegrees>
            </Position>
            <AltitudeMeters>82.1999969482421875</AltitudeMeters>
            <DistanceMeters>NAN</DistanceMeters>
          </Trackpoint>
          <Trackpoint>
            <Time>2021-08-10T12:55:54.000Z</Time>
            <Position>
              <LatitudeDegrees>43.2245823182165622711181640625</LatitudeDegrees>
              <LongitudeDegrees>-1.6761357150971889495849609375</LongitudeDegrees>
            </Position>
            <AltitudeMeters>82.1999969482421875</AltitudeMeters>
            <DistanceMeters>NAN</DistanceMeters>
          </Trackpoint>
          <Trackpoint>
            <Time>2021-08-10T12:55:59.000Z</Time>
            <Position>
              <LatitudeDegrees>43.22485565207898616790771484375</LatitudeDegrees>
              <LongitudeDegrees>-1.67621366679668426513671875</LongitudeDegrees>
            </Position>
            <AltitudeMeters>81.59999847412109375</AltitudeMeters>
            <DistanceMeters>NAN</DistanceMeters>
          </Trackpoint>
          <Trackpoint>
            <Time>2021-08-10T12:56:00.000Z</Time>
            <Position>
              <LatitudeDegrees>43.22490829043090343475341796875</LatitudeDegrees>
              <LongitudeDegrees>-1.6762305982410907745361328125</LongitudeDegrees>
            </Position>
            <AltitudeMeters>81.59999847412109375</AltitudeMeters>
            <DistanceMeters>NAN</DistanceMeters>
          </Trackpoint>
          <Trackpoint>
            <Time>2021-08-10T12:56:01.000Z</Time>
            <Position>
              <LatitudeDegrees>43.224960006773471832275390625</LatitudeDegrees>
              <LongitudeDegrees>-1.67624476365745067596435546875</LongitudeDegrees>
            </Position>
            <AltitudeMeters>81.40000152587890625</AltitudeMeters>
            <DistanceMeters>NAN</DistanceMeters>
          </Trackpoint>
          <Trackpoint>
            <Time>2021-08-10T12:56:02.000Z</Time>
            <Position>
              <LatitudeDegrees>43.22500736452639102935791015625</LatitudeDegrees>
              <LongitudeDegrees>-1.67625884525477886199951171875</LongitudeDegrees>
            </Position>
            <AltitudeMeters>81.1999969482421875</AltitudeMeters>
            <DistanceMeters>NAN</DistanceMeters>
          </Trackpoint>
          <Trackpoint>
            <Time>2021-08-10T12:56:04.000Z</Time>
            <Position>
              <LatitudeDegrees>43.22509654797613620758056640625</LatitudeDegrees>
              <LongitudeDegrees>-1.6762815602123737335205078125</LongitudeDegrees>
            </Position>
            <AltitudeMeters>80.8000030517578125</AltitudeMeters>
            <DistanceMeters>NAN</DistanceMeters>
          </Trackpoint>
          <Trackpoint>
            <Time>2021-08-10T12:56:05.000Z</Time>
            <Position>
              <LatitudeDegrees>43.225141055881977081298828125</LatitudeDegrees>
              <LongitudeDegrees>-1.676297150552272796630859375</LongitudeDegrees>
            </Position>
            <AltitudeMeters>80.8000030517578125</AltitudeMeters>
            <DistanceMeters>NAN</DistanceMeters>
          </Trackpoint>
          <Trackpoint>
            <Time>2021-08-10T12:56:06.000Z</Time>
            <Position>
              <LatitudeDegrees>43.22518589906394481658935546875</LatitudeDegrees>
              <LongitudeDegrees>-1.67630611918866634368896484375</LongitudeDegrees>
            </Position>
            <AltitudeMeters>80.59999847412109375</AltitudeMeters>
            <DistanceMeters>NAN</DistanceMeters>
          </Trackpoint>
          <Trackpoint>
            <Time>2021-08-10T12:56:07.000Z</Time>
            <Position>
              <LatitudeDegrees>43.22522797621786594390869140625</LatitudeDegrees>
              <LongitudeDegrees>-1.67632103897631168365478515625</LongitudeDegrees>
            </Position>
            <AltitudeMeters>80.59999847412109375</AltitudeMeters>
            <DistanceMeters>NAN</DistanceMeters>
          </Trackpoint>
          <Trackpoint>
            <Time>2021-08-10T12:56:08.000Z</Time>
            <Position>
              <LatitudeDegrees>43.2252662815153598785400390625</LatitudeDegrees>
              <LongitudeDegrees>-1.67633947916328907012939453125</LongitudeDegrees>
            </Position>
            <AltitudeMeters>80.40000152587890625</AltitudeMeters>
            <DistanceMeters>NAN</DistanceMeters>
          </Trackpoint>
          <Trackpoint>
            <Time>2021-08-10T12:56:09.000Z</Time>
            <Position>
              <LatitudeDegrees>43.22530358098447322845458984375</LatitudeDegrees>
              <LongitudeDegrees>-1.6763573326170444488525390625</LongitudeDegrees>
            </Position>
            <AltitudeMeters>80.59999847412109375</AltitudeMeters>
            <DistanceMeters>NAN</DistanceMeters>
          </Trackpoint>
          <Trackpoint>
            <Time>2021-08-10T12:56:10.000Z</Time>
            <Position>
              <LatitudeDegrees>43.22533878497779369354248046875</LatitudeDegrees>
              <LongitudeDegrees>-1.6763834841549396514892578125</LongitudeDegrees>
            </Position>
            <AltitudeMeters>80.59999847412109375</AltitudeMeters>
            <DistanceMeters>NAN</DistanceMeters>
          </Trackpoint>
          <Trackpoint>
            <Time>2021-08-10T12:56:11.000Z</Time>
            <Position>
              <LatitudeDegrees>43.2253767549991607666015625</LatitudeDegrees>
              <LongitudeDegrees>-1.6764036007225513458251953125</LongitudeDegrees>
            </Position>
            <AltitudeMeters>80.59999847412109375</AltitudeMeters>
            <DistanceMeters>NAN</DistanceMeters>
          </Trackpoint>
          <Trackpoint>
            <Time>2021-08-10T12:56:12.000Z</Time>
            <Position>
              <LatitudeDegrees>43.22541422210633754730224609375</LatitudeDegrees>
              <LongitudeDegrees>-1.67642346583306789398193359375</LongitudeDegrees>
            </Position>
            <AltitudeMeters>80.59999847412109375</AltitudeMeters>
            <DistanceMeters>NAN</DistanceMeters>
          </Trackpoint>
          <Trackpoint>
            <Time>2021-08-10T12:56:13.000Z</Time>
            <Position>
              <LatitudeDegrees>43.22545026428997516632080078125</LatitudeDegrees>
              <LongitudeDegrees>-1.6764448396861553192138671875</LongitudeDegrees>
            </Position>
            <AltitudeMeters>80.59999847412109375</AltitudeMeters>
            <DistanceMeters>NAN</DistanceMeters>
          </Trackpoint>
          <Trackpoint>
            <Time>2021-08-10T12:56:14.000Z</Time>
            <Position>
              <LatitudeDegrees>43.2254838757216930389404296875</LatitudeDegrees>
              <LongitudeDegrees>-1.67647191323339939117431640625</LongitudeDegrees>
            </Position>
            <AltitudeMeters>80.8000030517578125</AltitudeMeters>
            <DistanceMeters>NAN</DistanceMeters>
          </Trackpoint>
          <Trackpoint>
            <Time>2021-08-10T12:56:15.000Z</Time>
            <Position>
              <LatitudeDegrees>43.22551229037344455718994140625</LatitudeDegrees>
              <LongitudeDegrees>-1.67650946415960788726806640625</LongitudeDegrees>
            </Position>
            <AltitudeMeters>80.59999847412109375</AltitudeMeters>
            <DistanceMeters>NAN</DistanceMeters>
          </Trackpoint>
          <Trackpoint>
            <Time>2021-08-10T12:56:16.000Z</Time>
            <Position>
              <LatitudeDegrees>43.22553701698780059814453125</LatitudeDegrees>
              <LongitudeDegrees>-1.67655154131352901458740234375</LongitudeDegrees>
            </Position>
            <AltitudeMeters>81</AltitudeMeters>
            <DistanceMeters>NAN</DistanceMeters>
          </Trackpoint>
          <Trackpoint>
            <Time>2021-08-10T12:56:17.000Z</Time>
            <Position>
              <LatitudeDegrees>43.2255645096302032470703125</LatitudeDegrees>
              <LongitudeDegrees>-1.676592193543910980224609375</LongitudeDegrees>
            </Position>
            <AltitudeMeters>81</AltitudeMeters>
            <DistanceMeters>NAN</DistanceMeters>
          </Trackpoint>
          <Trackpoint>
            <Time>2021-08-10T12:56:18.000Z</Time>
            <Position>
              <LatitudeDegrees>43.225594349205493927001953125</LatitudeDegrees>
              <LongitudeDegrees>-1.67662362568080425262451171875</LongitudeDegrees>
            </Position>
            <AltitudeMeters>81</AltitudeMeters>
            <DistanceMeters>NAN</DistanceMeters>
          </Trackpoint>
          <Trackpoint>
            <Time>2021-08-10T12:56:20.000Z</Time>
            <Position>
              <LatitudeDegrees>43.22565260343253612518310546875</LatitudeDegrees>
              <LongitudeDegrees>-1.6766808740794658660888671875</LongitudeDegrees>
            </Position>
            <AltitudeMeters>81</AltitudeMeters>
            <DistanceMeters>NAN</DistanceMeters>
          </Trackpoint>
          <Trackpoint>
            <Time>2021-08-10T12:56:21.000Z</Time>
            <Position>
              <LatitudeDegrees>43.22568059898912906646728515625</LatitudeDegrees>
              <LongitudeDegrees>-1.6767127253115177154541015625</LongitudeDegrees>
            </Position>
            <AltitudeMeters>81</AltitudeMeters>
            <DistanceMeters>NAN</DistanceMeters>
          </Trackpoint>
          <Trackpoint>
            <Time>2021-08-10T12:56:22.000Z</Time>
            <Position>
              <LatitudeDegrees>43.2257014699280261993408203125</LatitudeDegrees>
              <LongitudeDegrees>-1.67674834839999675750732421875</LongitudeDegrees>
            </Position>
            <AltitudeMeters>81</AltitudeMeters>
            <DistanceMeters>NAN</DistanceMeters>
          </Trackpoint>
          <Trackpoint>
            <Time>2021-08-10T12:56:23.000Z</Time>
            <Position>
              <LatitudeDegrees>43.22573608718812465667724609375</LatitudeDegrees>
              <LongitudeDegrees>-1.67679210193455219268798828125</LongitudeDegrees>
            </Position>
            <AltitudeMeters>81</AltitudeMeters>
            <DistanceMeters>NAN</DistanceMeters>
          </Trackpoint>
          <Trackpoint>
            <Time>2021-08-10T12:56:24.000Z</Time>
            <Position>
              <LatitudeDegrees>43.22575570084154605865478515625</LatitudeDegrees>
              <LongitudeDegrees>-1.6768210195004940032958984375</LongitudeDegrees>
            </Position>
            <AltitudeMeters>81</AltitudeMeters>
            <DistanceMeters>NAN</DistanceMeters>
          </Trackpoint>
          <Trackpoint>
            <Time>2021-08-10T12:56:25.000Z</Time>
            <Position>
              <LatitudeDegrees>43.22578151710331439971923828125</LatitudeDegrees>
              <LongitudeDegrees>-1.67684960179030895233154296875</LongitudeDegrees>
            </Position>
            <AltitudeMeters>81</AltitudeMeters>
            <DistanceMeters>NAN</DistanceMeters>
          </Trackpoint>
          <Trackpoint>
            <Time>2021-08-10T12:56:28.000Z</Time>
            <Position>
              <LatitudeDegrees>43.225884027779102325439453125</LatitudeDegrees>
              <LongitudeDegrees>-1.676933504641056060791015625</LongitudeDegrees>
            </Position>
            <AltitudeMeters>80.8000030517578125</AltitudeMeters>
            <DistanceMeters>NAN</DistanceMeters>
          </Trackpoint>
          <Trackpoint>
            <Time>2021-08-10T12:56:32.000Z</Time>
            <Position>
              <LatitudeDegrees>43.225994668900966644287109375</LatitudeDegrees>
              <LongitudeDegrees>-1.67706082575023174285888671875</LongitudeDegrees>
            </Position>
            <AltitudeMeters>80.59999847412109375</AltitudeMeters>
            <DistanceMeters>NAN</DistanceMeters>
          </Trackpoint>
          <Trackpoint>
            <Time>2021-08-10T12:56:33.000Z</Time>
            <Position>
              <LatitudeDegrees>43.226011432707309722900390625</LatitudeDegrees>
              <LongitudeDegrees>-1.67709753848612308502197265625</LongitudeDegrees>
            </Position>
            <AltitudeMeters>80.59999847412109375</AltitudeMeters>
            <DistanceMeters>NAN</DistanceMeters>
          </Trackpoint>
          <Trackpoint>
            <Time>2021-08-10T12:56:34.000Z</Time>
            <Position>
              <LatitudeDegrees>43.22602660395205020904541015625</LatitudeDegrees>
              <LongitudeDegrees>-1.6771288029849529266357421875</LongitudeDegrees>
            </Position>
            <AltitudeMeters>80.59999847412109375</AltitudeMeters>
            <DistanceMeters>NAN</DistanceMeters>
          </Trackpoint>
          <Trackpoint>
            <Time>2021-08-10T12:56:35.000Z</Time>
            <Position>
              <LatitudeDegrees>43.226036243140697479248046875</LatitudeDegrees>
              <LongitudeDegrees>-1.67715939693152904510498046875</LongitudeDegrees>
            </Position>
            <AltitudeMeters>80.59999847412109375</AltitudeMeters>
            <DistanceMeters>NAN</DistanceMeters>
          </Trackpoint>
          <Trackpoint>
            <Time>2021-08-10T12:56:36.000Z</Time>
            <Position>
              <LatitudeDegrees>43.226046971976757049560546875</LatitudeDegrees>
              <LongitudeDegrees>-1.6771985404193401336669921875</LongitudeDegrees>
            </Position>
            <AltitudeMeters>80.59999847412109375</AltitudeMeters>
            <DistanceMeters>NAN</DistanceMeters>
          </Trackpoint>
          <Trackpoint>
            <Time>2021-08-10T12:56:37.000Z</Time>
            <Position>
              <LatitudeDegrees>43.22606616653501987457275390625</LatitudeDegrees>
              <LongitudeDegrees>-1.67724003084003925323486328125</LongitudeDegrees>
            </Position>
            <AltitudeMeters>80.59999847412109375</AltitudeMeters>
            <DistanceMeters>NAN</DistanceMeters>
          </Trackpoint>
          <Trackpoint>
            <Time>2021-08-10T12:56:39.000Z</Time>
            <Position>
              <LatitudeDegrees>43.22610673494637012481689453125</LatitudeDegrees>
              <LongitudeDegrees>-1.67729954235255718231201171875</LongitudeDegrees>
            </Position>
            <AltitudeMeters>80.59999847412109375</AltitudeMeters>
            <DistanceMeters>NAN</DistanceMeters>
          </Trackpoint>
          <Trackpoint>
            <Time>2021-08-10T12:56:40.000Z</Time>
            <Position>
              <LatitudeDegrees>43.22613355703651905059814453125</LatitudeDegrees>
              <LongitudeDegrees>-1.67732820846140384674072265625</LongitudeDegrees>
            </Position>
            <AltitudeMeters>80.59999847412109375</AltitudeMeters>
            <DistanceMeters>NAN</DistanceMeters>
          </Trackpoint>
          <Trackpoint>
            <Time>2021-08-10T12:56:41.000Z</Time>
            <Position>
              <LatitudeDegrees>43.22616524063050746917724609375</LatitudeDegrees>
              <LongitudeDegrees>-1.6773598082363605499267578125</LongitudeDegrees>
            </Position>
            <AltitudeMeters>80.40000152587890625</AltitudeMeters>
            <DistanceMeters>NAN</DistanceMeters>
          </Trackpoint>
          <Trackpoint>
            <Time>2021-08-10T12:56:42.000Z</Time>
            <Position>
              <LatitudeDegrees>43.226195164024829864501953125</LatitudeDegrees>
              <LongitudeDegrees>-1.677397191524505615234375</LongitudeDegrees>
            </Position>
            <AltitudeMeters>80.40000152587890625</AltitudeMeters>
            <DistanceMeters>NAN</DistanceMeters>
          </Trackpoint>
          <Trackpoint>
            <Time>2021-08-10T12:56:44.000Z</Time>
            <Position>
              <LatitudeDegrees>43.22625425644218921661376953125</LatitudeDegrees>
              <LongitudeDegrees>-1.67744823731482028961181640625</LongitudeDegrees>
            </Position>
            <AltitudeMeters>80.40000152587890625</AltitudeMeters>
            <DistanceMeters>NAN</DistanceMeters>
          </Trackpoint>
          <Trackpoint>
            <Time>2021-08-10T12:56:45.000Z</Time>
            <Position>
              <LatitudeDegrees>43.22627923451364040374755859375</LatitudeDegrees>
              <LongitudeDegrees>-1.67748360894620418548583984375</LongitudeDegrees>
            </Position>
            <AltitudeMeters>80.40000152587890625</AltitudeMeters>
            <DistanceMeters>NAN</DistanceMeters>
          </Trackpoint>
          <Trackpoint>
            <Time>2021-08-10T12:56:47.000Z</Time>
            <Position>
              <LatitudeDegrees>43.22633136995136737823486328125</LatitudeDegrees>
              <LongitudeDegrees>-1.67755753733217716217041015625</LongitudeDegrees>
            </Position>
            <AltitudeMeters>80.40000152587890625</AltitudeMeters>
            <DistanceMeters>NAN</DistanceMeters>
          </Trackpoint>
          <Trackpoint>
            <Time>2021-08-10T12:56:52.000Z</Time>
            <Position>
              <LatitudeDegrees>43.22645659558475017547607421875</LatitudeDegrees>
              <LongitudeDegrees>-1.67775325477123260498046875</LongitudeDegrees>
            </Position>
            <AltitudeMeters>80.40000152587890625</AltitudeMeters>
            <DistanceMeters>NAN</DistanceMeters>
          </Trackpoint>
          <Trackpoint>
            <Time>2021-08-10T12:56:53.000Z</Time>
            <Position>
              <LatitudeDegrees>43.22648693807423114776611328125</LatitudeDegrees>
              <LongitudeDegrees>-1.677777729928493499755859375</LongitudeDegrees>
            </Position>
            <AltitudeMeters>80.40000152587890625</AltitudeMeters>
            <DistanceMeters>NAN</DistanceMeters>
          </Trackpoint>
          <Trackpoint>
            <Time>2021-08-10T12:56:54.000Z</Time>
            <Position>
              <LatitudeDegrees>43.2265128381550312042236328125</LatitudeDegrees>
              <LongitudeDegrees>-1.67780983261764049530029296875</LongitudeDegrees>
            </Position>
            <AltitudeMeters>80.40000152587890625</AltitudeMeters>
            <DistanceMeters>NAN</DistanceMeters>
          </Trackpoint>
          <Trackpoint>
            <Time>2021-08-10T12:56:57.000Z</Time>
            <Position>
              <LatitudeDegrees>43.2265929691493511199951171875</LatitudeDegrees>
              <LongitudeDegrees>-1.67790974490344524383544921875</LongitudeDegrees>
            </Position>
            <AltitudeMeters>80.59999847412109375</AltitudeMeters>
            <DistanceMeters>NAN</DistanceMeters>
          </Trackpoint>
          <Trackpoint>
            <Time>2021-08-10T12:56:58.000Z</Time>
            <Position>
              <LatitudeDegrees>43.226621635258197784423828125</LatitudeDegrees>
              <LongitudeDegrees>-1.67795551009476184844970703125</LongitudeDegrees>
            </Position>
            <AltitudeMeters>80.8000030517578125</AltitudeMeters>
            <DistanceMeters>NAN</DistanceMeters>
          </Trackpoint>
          <Trackpoint>
            <Time>2021-08-10T12:57:05.000Z</Time>
            <Position>
              <LatitudeDegrees>43.22682179510593414306640625</LatitudeDegrees>
              <LongitudeDegrees>-1.67819992639124393463134765625</LongitudeDegrees>
            </Position>
            <AltitudeMeters>80.59999847412109375</AltitudeMeters>
            <DistanceMeters>NAN</DistanceMeters>
          </Trackpoint>
          <Trackpoint>
            <Time>2021-08-10T12:57:06.000Z</Time>
            <Position>
              <LatitudeDegrees>43.22684861719608306884765625</LatitudeDegrees>
              <LongitudeDegrees>-1.67823144234716892242431640625</LongitudeDegrees>
            </Position>
            <AltitudeMeters>80.59999847412109375</AltitudeMeters>
            <DistanceMeters>NAN</DistanceMeters>
          </Trackpoint>
          <Trackpoint>
            <Time>2021-08-10T12:57:09.000Z</Time>
            <Position>
              <LatitudeDegrees>43.2269346155226230621337890625</LatitudeDegrees>
              <LongitudeDegrees>-1.67833353392779827117919921875</LongitudeDegrees>
            </Position>
            <AltitudeMeters>80.59999847412109375</AltitudeMeters>
            <DistanceMeters>NAN</DistanceMeters>
          </Trackpoint>
          <Trackpoint>
            <Time>2021-08-10T12:57:10.000Z</Time>
            <Position>
              <LatitudeDegrees>43.226958923041820526123046875</LatitudeDegrees>
              <LongitudeDegrees>-1.6783649660646915435791015625</LongitudeDegrees>
            </Position>
            <AltitudeMeters>80.59999847412109375</AltitudeMeters>
            <DistanceMeters>NAN</DistanceMeters>
          </Trackpoint>
          <Trackpoint>
            <Time>2021-08-10T12:57:11.000Z</Time>
            <Position>
              <LatitudeDegrees>43.2269812189042568206787109375</LatitudeDegrees>
              <LongitudeDegrees>-1.67839975096285343170166015625</LongitudeDegrees>
            </Position>
            <AltitudeMeters>80.59999847412109375</AltitudeMeters>
            <DistanceMeters>NAN</DistanceMeters>
          </Trackpoint>
          <Trackpoint>
            <Time>2021-08-10T12:57:12.000Z</Time>
            <Position>
              <LatitudeDegrees>43.227005191147327423095703125</LatitudeDegrees>
              <LongitudeDegrees>-1.6784283332526683807373046875</LongitudeDegrees>
            </Position>
            <AltitudeMeters>80.40000152587890625</AltitudeMeters>
            <DistanceMeters>NAN</DistanceMeters>
          </Trackpoint>
          <Trackpoint>
            <Time>2021-08-10T12:57:13.000Z</Time>
            <Position>
              <LatitudeDegrees>43.22702907957136631011962890625</LatitudeDegrees>
              <LongitudeDegrees>-1.67845540679991245269775390625</LongitudeDegrees>
            </Position>
            <AltitudeMeters>80.40000152587890625</AltitudeMeters>
            <DistanceMeters>NAN</DistanceMeters>
          </Trackpoint>
          <Trackpoint>
            <Time>2021-08-10T12:57:14.000Z</Time>
            <Position>
              <LatitudeDegrees>43.22705355472862720489501953125</LatitudeDegrees>
              <LongitudeDegrees>-1.67848105542361736297607421875</LongitudeDegrees>
            </Position>
            <AltitudeMeters>80.40000152587890625</AltitudeMeters>
            <DistanceMeters>NAN</DistanceMeters>
          </Trackpoint>
          <Trackpoint>
            <Time>2021-08-10T12:57:15.000Z</Time>
            <Position>
              <LatitudeDegrees>43.22707786224782466888427734375</LatitudeDegrees>
              <LongitudeDegrees>-1.678507290780544281005859375</LongitudeDegrees>
            </Position>
            <AltitudeMeters>80.40000152587890625</AltitudeMeters>
            <DistanceMeters>NAN</DistanceMeters>
          </Trackpoint>
          <Trackpoint>
            <Time>2021-08-10T12:57:16.000Z</Time>
            <Position>
              <LatitudeDegrees>43.22710619308054447174072265625</LatitudeDegrees>
              <LongitudeDegrees>-1.67854576371610164642333984375</LongitudeDegrees>
            </Position>
            <AltitudeMeters>80.40000152587890625</AltitudeMeters>
            <DistanceMeters>NAN</DistanceMeters>
          </Trackpoint>
          <Trackpoint>
            <Time>2021-08-10T12:57:17.000Z</Time>
            <Position>
              <LatitudeDegrees>43.2271257229149341583251953125</LatitudeDegrees>
              <LongitudeDegrees>-1.6785768605768680572509765625</LongitudeDegrees>
            </Position>
            <AltitudeMeters>80.40000152587890625</AltitudeMeters>
            <DistanceMeters>NAN</DistanceMeters>
          </Trackpoint>
          <Trackpoint>
            <Time>2021-08-10T12:57:18.000Z</Time>
            <Position>
              <LatitudeDegrees>43.22715195827186107635498046875</LatitudeDegrees>
              <LongitudeDegrees>-1.6786073707044124603271484375</LongitudeDegrees>
            </Position>
            <AltitudeMeters>80.40000152587890625</AltitudeMeters>
            <DistanceMeters>NAN</DistanceMeters>
          </Trackpoint>
          <Trackpoint>
            <Time>2021-08-10T12:57:23.000Z</Time>
            <Position>
              <LatitudeDegrees>43.227290846407413482666015625</LatitudeDegrees>
              <LongitudeDegrees>-1.67876972816884517669677734375</LongitudeDegrees>
            </Position>
            <AltitudeMeters>80.59999847412109375</AltitudeMeters>
            <DistanceMeters>NAN</DistanceMeters>
          </Trackpoint>
          <Trackpoint>
            <Time>2021-08-10T12:57:24.000Z</Time>
            <Position>
              <LatitudeDegrees>43.2273205183446407318115234375</LatitudeDegrees>
              <LongitudeDegrees>-1.67879705317318439483642578125</LongitudeDegrees>
            </Position>
            <AltitudeMeters>80.59999847412109375</AltitudeMeters>
            <DistanceMeters>NAN</DistanceMeters>
          </Trackpoint>
          <Trackpoint>
            <Time>2021-08-10T12:57:29.000Z</Time>
            <Position>
              <LatitudeDegrees>43.22747533209621906280517578125</LatitudeDegrees>
              <LongitudeDegrees>-1.678921021521091461181640625</LongitudeDegrees>
            </Position>
            <AltitudeMeters>81</AltitudeMeters>
            <DistanceMeters>NAN</DistanceMeters>
          </Trackpoint>
          <Trackpoint>
            <Time>2021-08-10T12:57:30.000Z</Time>
            <Position>
              <LatitudeDegrees>43.22750785388052463531494140625</LatitudeDegrees>
              <LongitudeDegrees>-1.6789408028125762939453125</LongitudeDegrees>
            </Position>
            <AltitudeMeters>81.1999969482421875</AltitudeMeters>
            <DistanceMeters>NAN</DistanceMeters>
          </Trackpoint>
          <Trackpoint>
            <Time>2021-08-10T12:57:33.000Z</Time>
            <Position>
              <LatitudeDegrees>43.22760768234729766845703125</LatitudeDegrees>
              <LongitudeDegrees>-1.679010204970836639404296875</LongitudeDegrees>
            </Position>
            <AltitudeMeters>81.1999969482421875</AltitudeMeters>
            <DistanceMeters>NAN</DistanceMeters>
          </Trackpoint>
          <Trackpoint>
            <Time>2021-08-10T12:57:34.000Z</Time>
            <Position>
              <LatitudeDegrees>43.22763056494295597076416015625</LatitudeDegrees>
              <LongitudeDegrees>-1.6790306568145751953125</LongitudeDegrees>
            </Position>
            <AltitudeMeters>81.40000152587890625</AltitudeMeters>
            <DistanceMeters>NAN</DistanceMeters>
          </Trackpoint>
          <Trackpoint>
            <Time>2021-08-10T12:57:35.000Z</Time>
            <Position>
              <LatitudeDegrees>43.22766157798469066619873046875</LatitudeDegrees>
              <LongitudeDegrees>-1.6790492646396160125732421875</LongitudeDegrees>
            </Position>
            <AltitudeMeters>81.40000152587890625</AltitudeMeters>
            <DistanceMeters>NAN</DistanceMeters>
          </Trackpoint>
          <Trackpoint>
            <Time>2021-08-10T12:57:37.000Z</Time>
            <Position>
              <LatitudeDegrees>43.2277215085923671722412109375</LatitudeDegrees>
              <LongitudeDegrees>-1.67908689938485622406005859375</LongitudeDegrees>
            </Position>
            <AltitudeMeters>81.1999969482421875</AltitudeMeters>
            <DistanceMeters>NAN</DistanceMeters>
          </Trackpoint>
          <Trackpoint>
            <Time>2021-08-10T12:57:38.000Z</Time>
            <Position>
              <LatitudeDegrees>43.2277469895780086517333984375</LatitudeDegrees>
              <LongitudeDegrees>-1.6791017353534698486328125</LongitudeDegrees>
            </Position>
            <AltitudeMeters>81.1999969482421875</AltitudeMeters>
            <DistanceMeters>NAN</DistanceMeters>
          </Trackpoint>
          <Trackpoint>
            <Time>2021-08-10T12:57:39.000Z</Time>
            <Position>
              <LatitudeDegrees>43.22776769287884235382080078125</LatitudeDegrees>
              <LongitudeDegrees>-1.67911590076982975006103515625</LongitudeDegrees>
            </Position>
            <AltitudeMeters>81.1999969482421875</AltitudeMeters>
            <DistanceMeters>NAN</DistanceMeters>
          </Trackpoint>
          <Trackpoint>
            <Time>2021-08-10T12:57:40.000Z</Time>
            <Position>
              <LatitudeDegrees>43.22778847999870777130126953125</LatitudeDegrees>
              <LongitudeDegrees>-1.679129898548126220703125</LongitudeDegrees>
            </Position>
            <AltitudeMeters>81.1999969482421875</AltitudeMeters>
            <DistanceMeters>NAN</DistanceMeters>
          </Trackpoint>
          <Trackpoint>
            <Time>2021-08-10T12:57:41.000Z</Time>
            <Position>
              <LatitudeDegrees>43.2278090156614780426025390625</LatitudeDegrees>
              <LongitudeDegrees>-1.67914406396448612213134765625</LongitudeDegrees>
            </Position>
            <AltitudeMeters>81.1999969482421875</AltitudeMeters>
            <DistanceMeters>NAN</DistanceMeters>
          </Trackpoint>
          <Trackpoint>
            <Time>2021-08-10T12:57:42.000Z</Time>
            <Position>
              <LatitudeDegrees>43.22783173061907291412353515625</LatitudeDegrees>
              <LongitudeDegrees>-1.6791552118957042694091796875</LongitudeDegrees>
            </Position>
            <AltitudeMeters>81.1999969482421875</AltitudeMeters>
            <DistanceMeters>NAN</DistanceMeters>
          </Trackpoint>
          <Trackpoint>
            <Time>2021-08-10T12:57:44.000Z</Time>
            <Position>
              <LatitudeDegrees>43.22787146084010601043701171875</LatitudeDegrees>
              <LongitudeDegrees>-1.67917340062558650970458984375</LongitudeDegrees>
            </Position>
            <AltitudeMeters>81</AltitudeMeters>
            <DistanceMeters>NAN</DistanceMeters>
          </Trackpoint>
          <Trackpoint>
            <Time>2021-08-10T12:57:47.000Z</Time>
            <Position>
              <LatitudeDegrees>43.2279220037162303924560546875</LatitudeDegrees>
              <LongitudeDegrees>-1.679183878004550933837890625</LongitudeDegrees>
            </Position>
            <AltitudeMeters>80.8000030517578125</AltitudeMeters>
            <DistanceMeters>NAN</DistanceMeters>
          </Trackpoint>
          <Trackpoint>
            <Time>2021-08-10T12:57:48.000Z</Time>
            <Position>
              <LatitudeDegrees>43.2279370911419391632080078125</LatitudeDegrees>
              <LongitudeDegrees>-1.6791904158890247344970703125</LongitudeDegrees>
            </Position>
            <AltitudeMeters>80.8000030517578125</AltitudeMeters>
            <DistanceMeters>NAN</DistanceMeters>
          </Trackpoint>
          <Trackpoint>
            <Time>2021-08-10T12:57:49.000Z</Time>
            <Position>
              <LatitudeDegrees>43.22795578278601169586181640625</LatitudeDegrees>
              <LongitudeDegrees>-1.6791967861354351043701171875</LongitudeDegrees>
            </Position>
            <AltitudeMeters>80.8000030517578125</AltitudeMeters>
            <DistanceMeters>NAN</DistanceMeters>
          </Trackpoint>
          <Trackpoint>
            <Time>2021-08-10T12:57:50.000Z</Time>
            <Position>
              <LatitudeDegrees>43.22797891683876514434814453125</LatitudeDegrees>
              <LongitudeDegrees>-1.67920290492475032806396484375</LongitudeDegrees>
            </Position>
            <AltitudeMeters>81</AltitudeMeters>
            <DistanceMeters>NAN</DistanceMeters>
          </Trackpoint>
          <Trackpoint>
            <Time>2021-08-10T12:57:51.000Z</Time>
            <Position>
              <LatitudeDegrees>43.22800238616764545440673828125</LatitudeDegrees>
              <LongitudeDegrees>-1.679201312363147735595703125</LongitudeDegrees>
            </Position>
            <AltitudeMeters>81</AltitudeMeters>
            <DistanceMeters>NAN</DistanceMeters>
          </Trackpoint>
          <Trackpoint>
            <Time>2021-08-10T12:57:52.000Z</Time>
            <Position>
              <LatitudeDegrees>43.22802501730620861053466796875</LatitudeDegrees>
              <LongitudeDegrees>-1.679199300706386566162109375</LongitudeDegrees>
            </Position>
            <AltitudeMeters>81</AltitudeMeters>
            <DistanceMeters>NAN</DistanceMeters>
          </Trackpoint>
          <Trackpoint>
            <Time>2021-08-10T12:57:57.000Z</Time>
            <Position>
              <LatitudeDegrees>43.22813683189451694488525390625</LatitudeDegrees>
              <LongitudeDegrees>-1.6792036592960357666015625</LongitudeDegrees>
            </Position>
            <AltitudeMeters>81</AltitudeMeters>
            <DistanceMeters>NAN</DistanceMeters>
          </Trackpoint>
          <Trackpoint>
            <Time>2021-08-10T12:57:58.000Z</Time>
            <Position>
              <LatitudeDegrees>43.22815258987247943878173828125</LatitudeDegrees>
              <LongitudeDegrees>-1.6792014800012111663818359375</LongitudeDegrees>
            </Position>
            <AltitudeMeters>81</AltitudeMeters>
            <DistanceMeters>NAN</DistanceMeters>
          </Trackpoint>
          <Trackpoint>
            <Time>2021-08-10T12:57:59.000Z</Time>
            <Position>
              <LatitudeDegrees>43.22816289961338043212890625</LatitudeDegrees>
              <LongitudeDegrees>-1.67920357547700405120849609375</LongitudeDegrees>
            </Position>
            <AltitudeMeters>81</AltitudeMeters>
            <DistanceMeters>NAN</DistanceMeters>
          </Trackpoint>
          <Trackpoint>
            <Time>2021-08-10T12:58:00.000Z</Time>
            <Position>
              <LatitudeDegrees>43.2281778194010257720947265625</LatitudeDegrees>
              <LongitudeDegrees>-1.679204665124416351318359375</LongitudeDegrees>
            </Position>
            <AltitudeMeters>81</AltitudeMeters>
            <DistanceMeters>NAN</DistanceMeters>
          </Trackpoint>
          <Trackpoint>
            <Time>2021-08-10T12:58:02.000Z</Time>
            <Position>
              <LatitudeDegrees>43.22820874862372875213623046875</LatitudeDegrees>
              <LongitudeDegrees>-1.6791951097548007965087890625</LongitudeDegrees>
            </Position>
            <AltitudeMeters>81</AltitudeMeters>
            <DistanceMeters>NAN</DistanceMeters>
          </Trackpoint>
          <Trackpoint>
            <Time>2021-08-10T12:58:03.000Z</Time>
            <Position>
              <LatitudeDegrees>43.22822232730686664581298828125</LatitudeDegrees>
              <LongitudeDegrees>-1.6791944392025470733642578125</LongitudeDegrees>
            </Position>
            <AltitudeMeters>81</AltitudeMeters>
            <DistanceMeters>NAN</DistanceMeters>
          </Trackpoint>
          <Trackpoint>
            <Time>2021-08-10T12:58:04.000Z</Time>
            <Position>
              <LatitudeDegrees>43.228228278458118438720703125</LatitudeDegrees>
              <LongitudeDegrees>-1.67919653467833995819091796875</LongitudeDegrees>
            </Position>
            <AltitudeMeters>81</AltitudeMeters>
            <DistanceMeters>NAN</DistanceMeters>
          </Trackpoint>
          <Trackpoint>
            <Time>2021-08-10T12:58:08.000Z</Time>
            <Position>
              <LatitudeDegrees>43.228228278458118438720703125</LatitudeDegrees>
              <LongitudeDegrees>-1.67919653467833995819091796875</LongitudeDegrees>
            </Position>
            <AltitudeMeters>81</AltitudeMeters>
            <DistanceMeters>NAN</DistanceMeters>
          </Trackpoint>
          <Trackpoint>
            <Time>2021-08-10T12:58:54.000Z</Time>
            <Position>
              <LatitudeDegrees>43.22825686074793338775634765625</LatitudeDegrees>
              <LongitudeDegrees>-1.67919871397316455841064453125</LongitudeDegrees>
            </Position>
            <AltitudeMeters>81.1999969482421875</AltitudeMeters>
            <DistanceMeters>NAN</DistanceMeters>
          </Trackpoint>
          <Trackpoint>
            <Time>2021-08-10T12:58:56.000Z</Time>
            <Position>
              <LatitudeDegrees>43.2282834313809871673583984375</LatitudeDegrees>
              <LongitudeDegrees>-1.679224781692028045654296875</LongitudeDegrees>
            </Position>
            <AltitudeMeters>81.1999969482421875</AltitudeMeters>
            <DistanceMeters>NAN</DistanceMeters>
          </Trackpoint>
          <Trackpoint>
            <Time>2021-08-10T12:58:58.000Z</Time>
            <Position>
              <LatitudeDegrees>43.22830446995794773101806640625</LatitudeDegrees>
              <LongitudeDegrees>-1.67925755493342876434326171875</LongitudeDegrees>
            </Position>
            <AltitudeMeters>81.1999969482421875</AltitudeMeters>
            <DistanceMeters>NAN</DistanceMeters>
          </Trackpoint>
          <Trackpoint>
            <Time>2021-08-10T12:58:59.000Z</Time>
            <Position>
              <LatitudeDegrees>43.2283159531652927398681640625</LatitudeDegrees>
              <LongitudeDegrees>-1.6792680323123931884765625</LongitudeDegrees>
            </Position>
            <AltitudeMeters>81.1999969482421875</AltitudeMeters>
            <DistanceMeters>NAN</DistanceMeters>
          </Trackpoint>
          <Trackpoint>
            <Time>2021-08-10T12:59:00.000Z</Time>
            <Position>
              <LatitudeDegrees>43.22832542471587657928466796875</LatitudeDegrees>
              <LongitudeDegrees>-1.67927482165396213531494140625</LongitudeDegrees>
            </Position>
            <AltitudeMeters>81.1999969482421875</AltitudeMeters>
            <DistanceMeters>NAN</DistanceMeters>
          </Trackpoint>
          <Trackpoint>
            <Time>2021-08-10T12:59:01.000Z</Time>
            <Position>
              <LatitudeDegrees>43.2283307053148746490478515625</LatitudeDegrees>
              <LongitudeDegrees>-1.6792772524058818817138671875</LongitudeDegrees>
            </Position>
            <AltitudeMeters>81.1999969482421875</AltitudeMeters>
            <DistanceMeters>NAN</DistanceMeters>
          </Trackpoint>
          <Trackpoint>
            <Time>2021-08-10T12:59:02.000Z</Time>
            <Position>
              <LatitudeDegrees>43.2283300347626209259033203125</LatitudeDegrees>
              <LongitudeDegrees>-1.6792779229581356048583984375</LongitudeDegrees>
            </Position>
            <AltitudeMeters>81</AltitudeMeters>
            <DistanceMeters>NAN</DistanceMeters>
          </Trackpoint>
          <Trackpoint>
            <Time>2021-08-10T12:59:04.000Z</Time>
            <Position>
              <LatitudeDegrees>43.2283293642103672027587890625</LatitudeDegrees>
              <LongitudeDegrees>-1.6792759113013744354248046875</LongitudeDegrees>
            </Position>
            <AltitudeMeters>81</AltitudeMeters>
            <DistanceMeters>NAN</DistanceMeters>
          </Trackpoint>
          <Trackpoint>
            <Time>2021-08-10T12:59:05.000Z</Time>
            <Position>
              <LatitudeDegrees>43.2283293642103672027587890625</LatitudeDegrees>
              <LongitudeDegrees>-1.6792759113013744354248046875</LongitudeDegrees>
            </Position>
            <AltitudeMeters>81</AltitudeMeters>
            <DistanceMeters>NAN</DistanceMeters>
          </Trackpoint>
          <Trackpoint>
            <Time>2021-08-10T12:59:51.000Z</Time>
            <Position>
              <LatitudeDegrees>43.2283471338450908660888671875</LatitudeDegrees>
              <LongitudeDegrees>-1.67926174588501453399658203125</LongitudeDegrees>
            </Position>
            <AltitudeMeters>81.1999969482421875</AltitudeMeters>
            <DistanceMeters>NAN</DistanceMeters>
          </Trackpoint>
          <Trackpoint>
            <Time>2021-08-10T12:59:53.000Z</Time>
            <Position>
              <LatitudeDegrees>43.22839130647480487823486328125</LatitudeDegrees>
              <LongitudeDegrees>-1.6792286373674869537353515625</LongitudeDegrees>
            </Position>
            <AltitudeMeters>81.1999969482421875</AltitudeMeters>
            <DistanceMeters>NAN</DistanceMeters>
          </Trackpoint>
          <Trackpoint>
            <Time>2021-08-10T12:59:58.000Z</Time>
            <Position>
              <LatitudeDegrees>43.2285362295806407928466796875</LatitudeDegrees>
              <LongitudeDegrees>-1.67914289049804210662841796875</LongitudeDegrees>
            </Position>
            <AltitudeMeters>81</AltitudeMeters>
            <DistanceMeters>NAN</DistanceMeters>
          </Trackpoint>
          <Trackpoint>
            <Time>2021-08-10T12:59:59.000Z</Time>
            <Position>
              <LatitudeDegrees>43.22856598533689975738525390625</LatitudeDegrees>
              <LongitudeDegrees>-1.67912252247333526611328125</LongitudeDegrees>
            </Position>
            <AltitudeMeters>81</AltitudeMeters>
            <DistanceMeters>NAN</DistanceMeters>
          </Trackpoint>
          <Trackpoint>
            <Time>2021-08-10T13:00:04.000Z</Time>
            <Position>
              <LatitudeDegrees>43.22868718765676021575927734375</LatitudeDegrees>
              <LongitudeDegrees>-1.67906225658953189849853515625</LongitudeDegrees>
            </Position>
            <AltitudeMeters>81.1999969482421875</AltitudeMeters>
            <DistanceMeters>NAN</DistanceMeters>
          </Trackpoint>
          <Trackpoint>
            <Time>2021-08-10T13:00:05.000Z</Time>
            <Position>
              <LatitudeDegrees>43.22871048934757709503173828125</LatitudeDegrees>
              <LongitudeDegrees>-1.67905320413410663604736328125</LongitudeDegrees>
            </Position>
            <AltitudeMeters>81.1999969482421875</AltitudeMeters>
            <DistanceMeters>NAN</DistanceMeters>
          </Trackpoint>
          <Trackpoint>
            <Time>2021-08-10T13:00:06.000Z</Time>
            <Position>
              <LatitudeDegrees>43.228733539581298828125</LatitudeDegrees>
              <LongitudeDegrees>-1.6790395416319370269775390625</LongitudeDegrees>
            </Position>
            <AltitudeMeters>81.1999969482421875</AltitudeMeters>
            <DistanceMeters>NAN</DistanceMeters>
          </Trackpoint>
          <Trackpoint>
            <Time>2021-08-10T13:00:07.000Z</Time>
            <Position>
              <LatitudeDegrees>43.22875432670116424560546875</LatitudeDegrees>
              <LongitudeDegrees>-1.67902688495814800262451171875</LongitudeDegrees>
            </Position>
            <AltitudeMeters>81.40000152587890625</AltitudeMeters>
            <DistanceMeters>NAN</DistanceMeters>
          </Trackpoint>
          <Trackpoint>
            <Time>2021-08-10T13:00:08.000Z</Time>
            <Position>
              <LatitudeDegrees>43.22877938859164714813232421875</LatitudeDegrees>
              <LongitudeDegrees>-1.67900710366666316986083984375</LongitudeDegrees>
            </Position>
            <AltitudeMeters>81.40000152587890625</AltitudeMeters>
            <DistanceMeters>NAN</DistanceMeters>
          </Trackpoint>
          <Trackpoint>
            <Time>2021-08-10T13:00:09.000Z</Time>
            <Position>
              <LatitudeDegrees>43.22880528867244720458984375</LatitudeDegrees>
              <LongitudeDegrees>-1.67899109423160552978515625</LongitudeDegrees>
            </Position>
            <AltitudeMeters>81.40000152587890625</AltitudeMeters>
            <DistanceMeters>NAN</DistanceMeters>
          </Trackpoint>
          <Trackpoint>
            <Time>2021-08-10T13:00:10.000Z</Time>
            <Position>
              <LatitudeDegrees>43.2288238964974880218505859375</LatitudeDegrees>
              <LongitudeDegrees>-1.6789801977574825286865234375</LongitudeDegrees>
            </Position>
            <AltitudeMeters>81.40000152587890625</AltitudeMeters>
            <DistanceMeters>NAN</DistanceMeters>
          </Trackpoint>
          <Trackpoint>
            <Time>2021-08-10T13:00:11.000Z</Time>
            <Position>
              <LatitudeDegrees>43.22883613407611846923828125</LatitudeDegrees>
              <LongitudeDegrees>-1.67897407896816730499267578125</LongitudeDegrees>
            </Position>
            <AltitudeMeters>81.40000152587890625</AltitudeMeters>
            <DistanceMeters>NAN</DistanceMeters>
          </Trackpoint>
          <Trackpoint>
            <Time>2021-08-10T13:00:12.000Z</Time>
            <Position>
              <LatitudeDegrees>43.22883990593254566192626953125</LatitudeDegrees>
              <LongitudeDegrees>-1.67897365987300872802734375</LongitudeDegrees>
            </Position>
            <AltitudeMeters>81.40000152587890625</AltitudeMeters>
            <DistanceMeters>NAN</DistanceMeters>
          </Trackpoint>
          <Trackpoint>
            <Time>2021-08-10T13:00:13.000Z</Time>
            <Position>
              <LatitudeDegrees>43.22883990593254566192626953125</LatitudeDegrees>
              <LongitudeDegrees>-1.67897365987300872802734375</LongitudeDegrees>
            </Position>
            <AltitudeMeters>81.40000152587890625</AltitudeMeters>
            <DistanceMeters>NAN</DistanceMeters>
          </Trackpoint>
          <Trackpoint>
            <Time>2021-08-10T13:00:15.000Z</Time>
            <Position>
              <LatitudeDegrees>43.22883990593254566192626953125</LatitudeDegrees>
              <LongitudeDegrees>-1.67897365987300872802734375</LongitudeDegrees>
            </Position>
            <AltitudeMeters>81.40000152587890625</AltitudeMeters>
            <DistanceMeters>NAN</DistanceMeters>
          </Trackpoint>
          <Trackpoint>
            <Time>2021-08-10T13:00:33.000Z</Time>
            <Position>
              <LatitudeDegrees>43.228841833770275115966796875</LatitudeDegrees>
              <LongitudeDegrees>-1.67897340841591358184814453125</LongitudeDegrees>
            </Position>
            <AltitudeMeters>80.8000030517578125</AltitudeMeters>
            <DistanceMeters>NAN</DistanceMeters>
          </Trackpoint>
          <Trackpoint>
            <Time>2021-08-10T13:00:38.000Z</Time>
            <Position>
              <LatitudeDegrees>43.2289392314851284027099609375</LatitudeDegrees>
              <LongitudeDegrees>-1.67892244644463062286376953125</LongitudeDegrees>
            </Position>
            <AltitudeMeters>80.8000030517578125</AltitudeMeters>
            <DistanceMeters>NAN</DistanceMeters>
          </Trackpoint>
          <Trackpoint>
            <Time>2021-08-10T13:00:43.000Z</Time>
            <Position>
              <LatitudeDegrees>43.22909086011350154876708984375</LatitudeDegrees>
              <LongitudeDegrees>-1.67886377312242984771728515625</LongitudeDegrees>
            </Position>
            <AltitudeMeters>81</AltitudeMeters>
            <DistanceMeters>NAN</DistanceMeters>
          </Trackpoint>
          <Trackpoint>
            <Time>2021-08-10T13:00:47.000Z</Time>
            <Position>
              <LatitudeDegrees>43.2292175106704235076904296875</LatitudeDegrees>
              <LongitudeDegrees>-1.678787581622600555419921875</LongitudeDegrees>
            </Position>
            <AltitudeMeters>81.1999969482421875</AltitudeMeters>
            <DistanceMeters>NAN</DistanceMeters>
          </Trackpoint>
          <Trackpoint>
            <Time>2021-08-10T13:00:48.000Z</Time>
            <Position>
              <LatitudeDegrees>43.22924290783703327178955078125</LatitudeDegrees>
              <LongitudeDegrees>-1.6787723265588283538818359375</LongitudeDegrees>
            </Position>
            <AltitudeMeters>81.1999969482421875</AltitudeMeters>
            <DistanceMeters>NAN</DistanceMeters>
          </Trackpoint>
          <Trackpoint>
            <Time>2021-08-10T13:00:49.000Z</Time>
            <Position>
              <LatitudeDegrees>43.22926755063235759735107421875</LatitudeDegrees>
              <LongitudeDegrees>-1.6787565685808658599853515625</LongitudeDegrees>
            </Position>
            <AltitudeMeters>81.1999969482421875</AltitudeMeters>
            <DistanceMeters>NAN</DistanceMeters>
          </Trackpoint>
          <Trackpoint>
            <Time>2021-08-10T13:00:50.000Z</Time>
            <Position>
              <LatitudeDegrees>43.22928766719996929168701171875</LatitudeDegrees>
              <LongitudeDegrees>-1.67873653583228588104248046875</LongitudeDegrees>
            </Position>
            <AltitudeMeters>81.40000152587890625</AltitudeMeters>
            <DistanceMeters>NAN</DistanceMeters>
          </Trackpoint>
          <Trackpoint>
            <Time>2021-08-10T13:00:51.000Z</Time>
            <Position>
              <LatitudeDegrees>43.22931499220430850982666015625</LatitudeDegrees>
              <LongitudeDegrees>-1.67871792800724506378173828125</LongitudeDegrees>
            </Position>
            <AltitudeMeters>81.40000152587890625</AltitudeMeters>
            <DistanceMeters>NAN</DistanceMeters>
          </Trackpoint>
          <Trackpoint>
            <Time>2021-08-10T13:00:52.000Z</Time>
            <Position>
              <LatitudeDegrees>43.229347430169582366943359375</LatitudeDegrees>
              <LongitudeDegrees>-1.6787019185721874237060546875</LongitudeDegrees>
            </Position>
            <AltitudeMeters>81.40000152587890625</AltitudeMeters>
            <DistanceMeters>NAN</DistanceMeters>
          </Trackpoint>
          <Trackpoint>
            <Time>2021-08-10T13:00:54.000Z</Time>
            <Position>
              <LatitudeDegrees>43.22946016676723957061767578125</LatitudeDegrees>
              <LongitudeDegrees>-1.67869714088737964630126953125</LongitudeDegrees>
            </Position>
            <AltitudeMeters>81.40000152587890625</AltitudeMeters>
            <DistanceMeters>NAN</DistanceMeters>
          </Trackpoint>
          <Trackpoint>
            <Time>2021-08-10T13:00:55.000Z</Time>
            <Position>
              <LatitudeDegrees>43.2295128889381885528564453125</LatitudeDegrees>
              <LongitudeDegrees>-1.67869378812611103057861328125</LongitudeDegrees>
            </Position>
            <AltitudeMeters>81.40000152587890625</AltitudeMeters>
            <DistanceMeters>NAN</DistanceMeters>
          </Trackpoint>
          <Trackpoint>
            <Time>2021-08-10T13:00:58.000Z</Time>
            <Position>
              <LatitudeDegrees>43.22966552339494228363037109375</LatitudeDegrees>
              <LongitudeDegrees>-1.67866713367402553558349609375</LongitudeDegrees>
            </Position>
            <AltitudeMeters>81.1999969482421875</AltitudeMeters>
            <DistanceMeters>NAN</DistanceMeters>
          </Trackpoint>
          <Trackpoint>
            <Time>2021-08-10T13:01:07.000Z</Time>
            <Position>
              <LatitudeDegrees>43.23000415228307247161865234375</LatitudeDegrees>
              <LongitudeDegrees>-1.67850829660892486572265625</LongitudeDegrees>
            </Position>
            <AltitudeMeters>81</AltitudeMeters>
            <DistanceMeters>NAN</DistanceMeters>
          </Trackpoint>
          <Trackpoint>
            <Time>2021-08-10T13:01:12.000Z</Time>
            <Position>
              <LatitudeDegrees>43.23020280338823795318603515625</LatitudeDegrees>
              <LongitudeDegrees>-1.67831794358789920806884765625</LongitudeDegrees>
            </Position>
            <AltitudeMeters>81</AltitudeMeters>
            <DistanceMeters>NAN</DistanceMeters>
          </Trackpoint>
          <Trackpoint>
            <Time>2021-08-10T13:01:13.000Z</Time>
            <Position>
              <LatitudeDegrees>43.23023867793381214141845703125</LatitudeDegrees>
              <LongitudeDegrees>-1.6782757826149463653564453125</LongitudeDegrees>
            </Position>
            <AltitudeMeters>81</AltitudeMeters>
            <DistanceMeters>NAN</DistanceMeters>
          </Trackpoint>
          <Trackpoint>
            <Time>2021-08-10T13:01:16.000Z</Time>
            <Position>
              <LatitudeDegrees>43.23033657856285572052001953125</LatitudeDegrees>
              <LongitudeDegrees>-1.67815282009541988372802734375</LongitudeDegrees>
            </Position>
            <AltitudeMeters>80.8000030517578125</AltitudeMeters>
            <DistanceMeters>NAN</DistanceMeters>
          </Trackpoint>
          <Trackpoint>
            <Time>2021-08-10T13:01:18.000Z</Time>
            <Position>
              <LatitudeDegrees>43.23040346615016460418701171875</LatitudeDegrees>
              <LongitudeDegrees>-1.67807654477655887603759765625</LongitudeDegrees>
            </Position>
            <AltitudeMeters>80.59999847412109375</AltitudeMeters>
            <DistanceMeters>NAN</DistanceMeters>
          </Trackpoint>
          <Trackpoint>
            <Time>2021-08-10T13:01:19.000Z</Time>
            <Position>
              <LatitudeDegrees>43.2304291985929012298583984375</LatitudeDegrees>
              <LongitudeDegrees>-1.67803530581295490264892578125</LongitudeDegrees>
            </Position>
            <AltitudeMeters>80.59999847412109375</AltitudeMeters>
            <DistanceMeters>NAN</DistanceMeters>
          </Trackpoint>
          <Trackpoint>
            <Time>2021-08-10T13:01:23.000Z</Time>
            <Position>
              <LatitudeDegrees>43.23053170926868915557861328125</LatitudeDegrees>
              <LongitudeDegrees>-1.6778124310076236724853515625</LongitudeDegrees>
            </Position>
            <AltitudeMeters>80.59999847412109375</AltitudeMeters>
            <DistanceMeters>NAN</DistanceMeters>
          </Trackpoint>
          <Trackpoint>
            <Time>2021-08-10T13:01:27.000Z</Time>
            <Position>
              <LatitudeDegrees>43.2306263409554958343505859375</LatitudeDegrees>
              <LongitudeDegrees>-1.677523590624332427978515625</LongitudeDegrees>
            </Position>
            <AltitudeMeters>80.1999969482421875</AltitudeMeters>
            <DistanceMeters>NAN</DistanceMeters>
          </Trackpoint>
          <Trackpoint>
            <Time>2021-08-10T13:01:29.000Z</Time>
            <Position>
              <LatitudeDegrees>43.2306729443371295928955078125</LatitudeDegrees>
              <LongitudeDegrees>-1.6773953475058078765869140625</LongitudeDegrees>
            </Position>
            <AltitudeMeters>80.1999969482421875</AltitudeMeters>
            <DistanceMeters>NAN</DistanceMeters>
          </Trackpoint>
          <Trackpoint>
            <Time>2021-08-10T13:01:31.000Z</Time>
            <Position>
              <LatitudeDegrees>43.230726085603237152099609375</LatitudeDegrees>
              <LongitudeDegrees>-1.67728931643068790435791015625</LongitudeDegrees>
            </Position>
            <AltitudeMeters>80.1999969482421875</AltitudeMeters>
            <DistanceMeters>NAN</DistanceMeters>
          </Trackpoint>
          <Trackpoint>
            <Time>2021-08-10T13:01:32.000Z</Time>
            <Position>
              <LatitudeDegrees>43.230757601559162139892578125</LatitudeDegrees>
              <LongitudeDegrees>-1.67724774219095706939697265625</LongitudeDegrees>
            </Position>
            <AltitudeMeters>80.1999969482421875</AltitudeMeters>
            <DistanceMeters>NAN</DistanceMeters>
          </Trackpoint>
          <Trackpoint>
            <Time>2021-08-10T13:01:33.000Z</Time>
            <Position>
              <LatitudeDegrees>43.2307835854589939117431640625</LatitudeDegrees>
              <LongitudeDegrees>-1.677193008363246917724609375</LongitudeDegrees>
            </Position>
            <AltitudeMeters>80.1999969482421875</AltitudeMeters>
            <DistanceMeters>NAN</DistanceMeters>
          </Trackpoint>
          <Trackpoint>
            <Time>2021-08-10T13:01:36.000Z</Time>
            <Position>
              <LatitudeDegrees>43.23084670118987560272216796875</LatitudeDegrees>
              <LongitudeDegrees>-1.6769678704440593719482421875</LongitudeDegrees>
            </Position>
            <AltitudeMeters>80.1999969482421875</AltitudeMeters>
            <DistanceMeters>NAN</DistanceMeters>
          </Trackpoint>
          <Trackpoint>
            <Time>2021-08-10T13:01:37.000Z</Time>
            <Position>
              <LatitudeDegrees>43.23085583746433258056640625</LatitudeDegrees>
              <LongitudeDegrees>-1.6768917627632617950439453125</LongitudeDegrees>
            </Position>
            <AltitudeMeters>80.1999969482421875</AltitudeMeters>
            <DistanceMeters>NAN</DistanceMeters>
          </Trackpoint>
          <Trackpoint>
            <Time>2021-08-10T13:01:38.000Z</Time>
            <Position>
              <LatitudeDegrees>43.230868913233280181884765625</LatitudeDegrees>
              <LongitudeDegrees>-1.67683602310717105865478515625</LongitudeDegrees>
            </Position>
            <AltitudeMeters>80.1999969482421875</AltitudeMeters>
            <DistanceMeters>NAN</DistanceMeters>
          </Trackpoint>
          <Trackpoint>
            <Time>2021-08-10T13:01:39.000Z</Time>
            <Position>
              <LatitudeDegrees>43.2308962382376194000244140625</LatitudeDegrees>
              <LongitudeDegrees>-1.67677567340433597564697265625</LongitudeDegrees>
            </Position>
            <AltitudeMeters>80</AltitudeMeters>
            <DistanceMeters>NAN</DistanceMeters>
          </Trackpoint>
          <Trackpoint>
            <Time>2021-08-10T13:01:41.000Z</Time>
            <Position>
              <LatitudeDegrees>43.230938650667667388916015625</LatitudeDegrees>
              <LongitudeDegrees>-1.67664793320000171661376953125</LongitudeDegrees>
            </Position>
            <AltitudeMeters>79.59999847412109375</AltitudeMeters>
            <DistanceMeters>NAN</DistanceMeters>
          </Trackpoint>
          <Trackpoint>
            <Time>2021-08-10T13:01:44.000Z</Time>
            <Position>
              <LatitudeDegrees>43.23101886548101902008056640625</LatitudeDegrees>
              <LongitudeDegrees>-1.67648063041269779205322265625</LongitudeDegrees>
            </Position>
            <AltitudeMeters>79.59999847412109375</AltitudeMeters>
            <DistanceMeters>NAN</DistanceMeters>
          </Trackpoint>
          <Trackpoint>
            <Time>2021-08-10T13:01:45.000Z</Time>
            <Position>
              <LatitudeDegrees>43.23104468174278736114501953125</LatitudeDegrees>
              <LongitudeDegrees>-1.67642313055694103240966796875</LongitudeDegrees>
            </Position>
            <AltitudeMeters>79.59999847412109375</AltitudeMeters>
            <DistanceMeters>NAN</DistanceMeters>
          </Trackpoint>
          <Trackpoint>
            <Time>2021-08-10T13:01:46.000Z</Time>
            <Position>
              <LatitudeDegrees>43.2310710847377777099609375</LatitudeDegrees>
              <LongitudeDegrees>-1.67636387050151824951171875</LongitudeDegrees>
            </Position>
            <AltitudeMeters>79.40000152587890625</AltitudeMeters>
            <DistanceMeters>NAN</DistanceMeters>
          </Trackpoint>
          <Trackpoint>
            <Time>2021-08-10T13:01:48.000Z</Time>
            <Position>
              <LatitudeDegrees>43.23111710138618946075439453125</LatitudeDegrees>
              <LongitudeDegrees>-1.6762490384280681610107421875</LongitudeDegrees>
            </Position>
            <AltitudeMeters>79.40000152587890625</AltitudeMeters>
            <DistanceMeters>NAN</DistanceMeters>
          </Trackpoint>
          <Trackpoint>
            <Time>2021-08-10T13:01:50.000Z</Time>
            <Position>
              <LatitudeDegrees>43.23118331842124462127685546875</LatitudeDegrees>
              <LongitudeDegrees>-1.67605684138834476470947265625</LongitudeDegrees>
            </Position>
            <AltitudeMeters>79.40000152587890625</AltitudeMeters>
            <DistanceMeters>NAN</DistanceMeters>
          </Trackpoint>
          <Trackpoint>
            <Time>2021-08-10T13:01:54.000Z</Time>
            <Position>
              <LatitudeDegrees>43.23127090930938720703125</LatitudeDegrees>
              <LongitudeDegrees>-1.6757669113576412200927734375</LongitudeDegrees>
            </Position>
            <AltitudeMeters>79.40000152587890625</AltitudeMeters>
            <DistanceMeters>NAN</DistanceMeters>
          </Trackpoint>
          <Trackpoint>
            <Time>2021-08-10T13:01:55.000Z</Time>
            <Position>
              <LatitudeDegrees>43.2312938757240772247314453125</LatitudeDegrees>
              <LongitudeDegrees>-1.675699017941951751708984375</LongitudeDegrees>
            </Position>
            <AltitudeMeters>79.40000152587890625</AltitudeMeters>
            <DistanceMeters>NAN</DistanceMeters>
          </Trackpoint>
          <Trackpoint>
            <Time>2021-08-10T13:01:56.000Z</Time>
            <Position>
              <LatitudeDegrees>43.2313237152993679046630859375</LatitudeDegrees>
              <LongitudeDegrees>-1.67564495466649532318115234375</LongitudeDegrees>
            </Position>
            <AltitudeMeters>79.40000152587890625</AltitudeMeters>
            <DistanceMeters>NAN</DistanceMeters>
          </Trackpoint>
          <Trackpoint>
            <Time>2021-08-10T13:01:57.000Z</Time>
            <Position>
              <LatitudeDegrees>43.23137040250003337860107421875</LatitudeDegrees>
              <LongitudeDegrees>-1.6756187193095684051513671875</LongitudeDegrees>
            </Position>
            <AltitudeMeters>79.40000152587890625</AltitudeMeters>
            <DistanceMeters>NAN</DistanceMeters>
          </Trackpoint>
          <Trackpoint>
            <Time>2021-08-10T13:01:58.000Z</Time>
            <Position>
              <LatitudeDegrees>43.23140409775078296661376953125</LatitudeDegrees>
              <LongitudeDegrees>-1.6755932383239269256591796875</LongitudeDegrees>
            </Position>
            <AltitudeMeters>79.40000152587890625</AltitudeMeters>
            <DistanceMeters>NAN</DistanceMeters>
          </Trackpoint>
          <Trackpoint>
            <Time>2021-08-10T13:01:59.000Z</Time>
            <Position>
              <LatitudeDegrees>43.23143159039318561553955078125</LatitudeDegrees>
              <LongitudeDegrees>-1.6755815036594867706298828125</LongitudeDegrees>
            </Position>
            <AltitudeMeters>79.40000152587890625</AltitudeMeters>
            <DistanceMeters>NAN</DistanceMeters>
          </Trackpoint>
          <Trackpoint>
            <Time>2021-08-10T13:02:00.000Z</Time>
            <Position>
              <LatitudeDegrees>43.23144684545695781707763671875</LatitudeDegrees>
              <LongitudeDegrees>-1.67554269544780254364013671875</LongitudeDegrees>
            </Position>
            <AltitudeMeters>79.40000152587890625</AltitudeMeters>
            <DistanceMeters>NAN</DistanceMeters>
          </Trackpoint>
          <Trackpoint>
            <Time>2021-08-10T13:02:01.000Z</Time>
            <Position>
              <LatitudeDegrees>43.23145941831171512603759765625</LatitudeDegrees>
              <LongitudeDegrees>-1.67549709789454936981201171875</LongitudeDegrees>
            </Position>
            <AltitudeMeters>79.40000152587890625</AltitudeMeters>
            <DistanceMeters>NAN</DistanceMeters>
          </Trackpoint>
          <Trackpoint>
            <Time>2021-08-10T13:02:02.000Z</Time>
            <Position>
              <LatitudeDegrees>43.23147417046129703521728515625</LatitudeDegrees>
              <LongitudeDegrees>-1.675455272197723388671875</LongitudeDegrees>
            </Position>
            <AltitudeMeters>79.40000152587890625</AltitudeMeters>
            <DistanceMeters>NAN</DistanceMeters>
          </Trackpoint>
          <Trackpoint>
            <Time>2021-08-10T13:02:03.000Z</Time>
            <Position>
              <LatitudeDegrees>43.23150099255144596099853515625</LatitudeDegrees>
              <LongitudeDegrees>-1.67540908791124820709228515625</LongitudeDegrees>
            </Position>
            <AltitudeMeters>79.40000152587890625</AltitudeMeters>
            <DistanceMeters>NAN</DistanceMeters>
          </Trackpoint>
          <Trackpoint>
            <Time>2021-08-10T13:02:04.000Z</Time>
            <Position>
              <LatitudeDegrees>43.23152814991772174835205078125</LatitudeDegrees>
              <LongitudeDegrees>-1.675365082919597625732421875</LongitudeDegrees>
            </Position>
            <AltitudeMeters>79.40000152587890625</AltitudeMeters>
            <DistanceMeters>NAN</DistanceMeters>
          </Trackpoint>
          <Trackpoint>
            <Time>2021-08-10T13:02:07.000Z</Time>
            <Position>
              <LatitudeDegrees>43.2316066883504390716552734375</LatitudeDegrees>
              <LongitudeDegrees>-1.67525804601609706878662109375</LongitudeDegrees>
            </Position>
            <AltitudeMeters>79.40000152587890625</AltitudeMeters>
            <DistanceMeters>NAN</DistanceMeters>
          </Trackpoint>
          <Trackpoint>
            <Time>2021-08-10T13:02:08.000Z</Time>
            <Position>
              <LatitudeDegrees>43.2316321693360805511474609375</LatitudeDegrees>
              <LongitudeDegrees>-1.6752308048307895660400390625</LongitudeDegrees>
            </Position>
            <AltitudeMeters>79.40000152587890625</AltitudeMeters>
            <DistanceMeters>NAN</DistanceMeters>
          </Trackpoint>
          <Trackpoint>
            <Time>2021-08-10T13:02:09.000Z</Time>
            <Position>
              <LatitudeDegrees>43.2316613383591175079345703125</LatitudeDegrees>
              <LongitudeDegrees>-1.6752059943974018096923828125</LongitudeDegrees>
            </Position>
            <AltitudeMeters>79.40000152587890625</AltitudeMeters>
            <DistanceMeters>NAN</DistanceMeters>
          </Trackpoint>
          <Trackpoint>
            <Time>2021-08-10T13:02:10.000Z</Time>
            <Position>
              <LatitudeDegrees>43.23168774135410785675048828125</LatitudeDegrees>
              <LongitudeDegrees>-1.67517523281276226043701171875</LongitudeDegrees>
            </Position>
            <AltitudeMeters>79.40000152587890625</AltitudeMeters>
            <DistanceMeters>NAN</DistanceMeters>
          </Trackpoint>
          <Trackpoint>
            <Time>2021-08-10T13:02:11.000Z</Time>
            <Position>
              <LatitudeDegrees>43.231710456311702728271484375</LatitudeDegrees>
              <LongitudeDegrees>-1.67514304630458354949951171875</LongitudeDegrees>
            </Position>
            <AltitudeMeters>79.1999969482421875</AltitudeMeters>
            <DistanceMeters>NAN</DistanceMeters>
          </Trackpoint>
          <Trackpoint>
            <Time>2021-08-10T13:02:12.000Z</Time>
            <Position>
              <LatitudeDegrees>43.23173669166862964630126953125</LatitudeDegrees>
              <LongitudeDegrees>-1.6751121170818805694580078125</LongitudeDegrees>
            </Position>
            <AltitudeMeters>79.1999969482421875</AltitudeMeters>
            <DistanceMeters>NAN</DistanceMeters>
          </Trackpoint>
          <Trackpoint>
            <Time>2021-08-10T13:02:14.000Z</Time>
            <Position>
              <LatitudeDegrees>43.23180089704692363739013671875</LatitudeDegrees>
              <LongitudeDegrees>-1.67505352757871150970458984375</LongitudeDegrees>
            </Position>
            <AltitudeMeters>79.1999969482421875</AltitudeMeters>
            <DistanceMeters>NAN</DistanceMeters>
          </Trackpoint>
          <Trackpoint>
            <Time>2021-08-10T13:02:15.000Z</Time>
            <Position>
              <LatitudeDegrees>43.23183392174541950225830078125</LatitudeDegrees>
              <LongitudeDegrees>-1.67503391392529010772705078125</LongitudeDegrees>
            </Position>
            <AltitudeMeters>79.1999969482421875</AltitudeMeters>
            <DistanceMeters>NAN</DistanceMeters>
          </Trackpoint>
          <Trackpoint>
            <Time>2021-08-10T13:02:16.000Z</Time>
            <Position>
              <LatitudeDegrees>43.23187239468097686767578125</LatitudeDegrees>
              <LongitudeDegrees>-1.6750194132328033447265625</LongitudeDegrees>
            </Position>
            <AltitudeMeters>79.1999969482421875</AltitudeMeters>
            <DistanceMeters>NAN</DistanceMeters>
          </Trackpoint>
          <Trackpoint>
            <Time>2021-08-10T13:02:20.000Z</Time>
            <Position>
              <LatitudeDegrees>43.23203642852604389190673828125</LatitudeDegrees>
              <LongitudeDegrees>-1.67495780624449253082275390625</LongitudeDegrees>
            </Position>
            <AltitudeMeters>79.1999969482421875</AltitudeMeters>
            <DistanceMeters>NAN</DistanceMeters>
          </Trackpoint>
          <Trackpoint>
            <Time>2021-08-10T13:02:21.000Z</Time>
            <Position>
              <LatitudeDegrees>43.23207414709031581878662109375</LatitudeDegrees>
              <LongitudeDegrees>-1.67493961751461029052734375</LongitudeDegrees>
            </Position>
            <AltitudeMeters>79.40000152587890625</AltitudeMeters>
            <DistanceMeters>NAN</DistanceMeters>
          </Trackpoint>
          <Trackpoint>
            <Time>2021-08-10T13:02:27.000Z</Time>
            <Position>
              <LatitudeDegrees>43.23234178125858306884765625</LatitudeDegrees>
              <LongitudeDegrees>-1.67490315623581409454345703125</LongitudeDegrees>
            </Position>
            <AltitudeMeters>79.40000152587890625</AltitudeMeters>
            <DistanceMeters>NAN</DistanceMeters>
          </Trackpoint>
          <Trackpoint>
            <Time>2021-08-10T13:02:30.000Z</Time>
            <Position>
              <LatitudeDegrees>43.2324804179370403289794921875</LatitudeDegrees>
              <LongitudeDegrees>-1.6749267093837261199951171875</LongitudeDegrees>
            </Position>
            <AltitudeMeters>79.40000152587890625</AltitudeMeters>
            <DistanceMeters>NAN</DistanceMeters>
          </Trackpoint>
          <Trackpoint>
            <Time>2021-08-10T13:02:32.000Z</Time>
            <Position>
              <LatitudeDegrees>43.23258276097476482391357421875</LatitudeDegrees>
              <LongitudeDegrees>-1.674935929477214813232421875</LongitudeDegrees>
            </Position>
            <AltitudeMeters>79.40000152587890625</AltitudeMeters>
            <DistanceMeters>NAN</DistanceMeters>
          </Trackpoint>
          <Trackpoint>
            <Time>2021-08-10T13:02:34.000Z</Time>
            <Position>
              <LatitudeDegrees>43.232681751251220703125</LatitudeDegrees>
              <LongitudeDegrees>-1.6749536991119384765625</LongitudeDegrees>
            </Position>
            <AltitudeMeters>79.59999847412109375</AltitudeMeters>
            <DistanceMeters>NAN</DistanceMeters>
          </Trackpoint>
          <Trackpoint>
            <Time>2021-08-10T13:02:36.000Z</Time>
            <Position>
              <LatitudeDegrees>43.23277906514704227447509765625</LatitudeDegrees>
              <LongitudeDegrees>-1.67497473768889904022216796875</LongitudeDegrees>
            </Position>
            <AltitudeMeters>79.40000152587890625</AltitudeMeters>
            <DistanceMeters>NAN</DistanceMeters>
          </Trackpoint>
          <Trackpoint>
            <Time>2021-08-10T13:02:37.000Z</Time>
            <Position>
              <LatitudeDegrees>43.23282583616673946380615234375</LatitudeDegrees>
              <LongitudeDegrees>-1.6749894060194492340087890625</LongitudeDegrees>
            </Position>
            <AltitudeMeters>79.40000152587890625</AltitudeMeters>
            <DistanceMeters>NAN</DistanceMeters>
          </Trackpoint>
          <Trackpoint>
            <Time>2021-08-10T13:02:40.000Z</Time>
            <Position>
              <LatitudeDegrees>43.23296782560646533966064453125</LatitudeDegrees>
              <LongitudeDegrees>-1.67506434023380279541015625</LongitudeDegrees>
            </Position>
            <AltitudeMeters>79.40000152587890625</AltitudeMeters>
            <DistanceMeters>NAN</DistanceMeters>
          </Trackpoint>
          <Trackpoint>
            <Time>2021-08-10T13:02:43.000Z</Time>
            <Position>
              <LatitudeDegrees>43.2330748625099658966064453125</LatitudeDegrees>
              <LongitudeDegrees>-1.675166599452495574951171875</LongitudeDegrees>
            </Position>
            <AltitudeMeters>79.1999969482421875</AltitudeMeters>
            <DistanceMeters>NAN</DistanceMeters>
          </Trackpoint>
          <Trackpoint>
            <Time>2021-08-10T13:02:44.000Z</Time>
            <Position>
              <LatitudeDegrees>43.2331073842942714691162109375</LatitudeDegrees>
              <LongitudeDegrees>-1.67520741932094097137451171875</LongitudeDegrees>
            </Position>
            <AltitudeMeters>79</AltitudeMeters>
            <DistanceMeters>NAN</DistanceMeters>
          </Trackpoint>
          <Trackpoint>
            <Time>2021-08-10T13:02:48.000Z</Time>
            <Position>
              <LatitudeDegrees>43.23320520110428333282470703125</LatitudeDegrees>
              <LongitudeDegrees>-1.67534924112260341644287109375</LongitudeDegrees>
            </Position>
            <AltitudeMeters>78.8000030517578125</AltitudeMeters>
            <DistanceMeters>NAN</DistanceMeters>
          </Trackpoint>
          <Trackpoint>
            <Time>2021-08-10T13:02:49.000Z</Time>
            <Position>
              <LatitudeDegrees>43.23323671706020832061767578125</LatitudeDegrees>
              <LongitudeDegrees>-1.67537606321275234222412109375</LongitudeDegrees>
            </Position>
            <AltitudeMeters>78.8000030517578125</AltitudeMeters>
            <DistanceMeters>NAN</DistanceMeters>
          </Trackpoint>
          <Trackpoint>
            <Time>2021-08-10T13:02:50.000Z</Time>
            <Position>
              <LatitudeDegrees>43.2332709990441799163818359375</LatitudeDegrees>
              <LongitudeDegrees>-1.6753991134464740753173828125</LongitudeDegrees>
            </Position>
            <AltitudeMeters>78.8000030517578125</AltitudeMeters>
            <DistanceMeters>NAN</DistanceMeters>
          </Trackpoint>
          <Trackpoint>
            <Time>2021-08-10T13:02:51.000Z</Time>
            <Position>
              <LatitudeDegrees>43.23330494575202465057373046875</LatitudeDegrees>
              <LongitudeDegrees>-1.675422750413417816162109375</LongitudeDegrees>
            </Position>
            <AltitudeMeters>78.59999847412109375</AltitudeMeters>
            <DistanceMeters>NAN</DistanceMeters>
          </Trackpoint>
          <Trackpoint>
            <Time>2021-08-10T13:02:52.000Z</Time>
            <Position>
              <LatitudeDegrees>43.23333981446921825408935546875</LatitudeDegrees>
              <LongitudeDegrees>-1.67544932104647159576416015625</LongitudeDegrees>
            </Position>
            <AltitudeMeters>78.59999847412109375</AltitudeMeters>
            <DistanceMeters>NAN</DistanceMeters>
          </Trackpoint>
          <Trackpoint>
            <Time>2021-08-10T13:02:53.000Z</Time>
            <Position>
              <LatitudeDegrees>43.233376443386077880859375</LatitudeDegrees>
              <LongitudeDegrees>-1.67547798715531826019287109375</LongitudeDegrees>
            </Position>
            <AltitudeMeters>78.59999847412109375</AltitudeMeters>
            <DistanceMeters>NAN</DistanceMeters>
          </Trackpoint>
          <Trackpoint>
            <Time>2021-08-10T13:02:56.000Z</Time>
            <Position>
              <LatitudeDegrees>43.2334879226982593536376953125</LatitudeDegrees>
              <LongitudeDegrees>-1.6755754686892032623291015625</LongitudeDegrees>
            </Position>
            <AltitudeMeters>78.40000152587890625</AltitudeMeters>
            <DistanceMeters>NAN</DistanceMeters>
          </Trackpoint>
          <Trackpoint>
            <Time>2021-08-10T13:02:58.000Z</Time>
            <Position>
              <LatitudeDegrees>43.23357216082513332366943359375</LatitudeDegrees>
              <LongitudeDegrees>-1.675625927746295928955078125</LongitudeDegrees>
            </Position>
            <AltitudeMeters>78.40000152587890625</AltitudeMeters>
            <DistanceMeters>NAN</DistanceMeters>
          </Trackpoint>
          <Trackpoint>
            <Time>2021-08-10T13:03:00.000Z</Time>
            <Position>
              <LatitudeDegrees>43.23364826850593090057373046875</LatitudeDegrees>
              <LongitudeDegrees>-1.67570538818836212158203125</LongitudeDegrees>
            </Position>
            <AltitudeMeters>78.1999969482421875</AltitudeMeters>
            <DistanceMeters>NAN</DistanceMeters>
          </Trackpoint>
          <Trackpoint>
            <Time>2021-08-10T13:03:01.000Z</Time>
            <Position>
              <LatitudeDegrees>43.23367961682379245758056640625</LatitudeDegrees>
              <LongitudeDegrees>-1.6757447831332683563232421875</LongitudeDegrees>
            </Position>
            <AltitudeMeters>78.1999969482421875</AltitudeMeters>
            <DistanceMeters>NAN</DistanceMeters>
          </Trackpoint>
          <Trackpoint>
            <Time>2021-08-10T13:03:03.000Z</Time>
            <Position>
              <LatitudeDegrees>43.2337491028010845184326171875</LatitudeDegrees>
              <LongitudeDegrees>-1.675820387899875640869140625</LongitudeDegrees>
            </Position>
            <AltitudeMeters>78</AltitudeMeters>
            <DistanceMeters>NAN</DistanceMeters>
          </Trackpoint>
          <Trackpoint>
            <Time>2021-08-10T13:03:04.000Z</Time>
            <Position>
              <LatitudeDegrees>43.23378749191761016845703125</LatitudeDegrees>
              <LongitudeDegrees>-1.67585835792124271392822265625</LongitudeDegrees>
            </Position>
            <AltitudeMeters>78</AltitudeMeters>
            <DistanceMeters>NAN</DistanceMeters>
          </Trackpoint>
          <Trackpoint>
            <Time>2021-08-10T13:03:07.000Z</Time>
            <Position>
              <LatitudeDegrees>43.233897797763347625732421875</LatitudeDegrees>
              <LongitudeDegrees>-1.67600470595061779022216796875</LongitudeDegrees>
            </Position>
            <AltitudeMeters>77.59999847412109375</AltitudeMeters>
            <DistanceMeters>NAN</DistanceMeters>
          </Trackpoint>
          <Trackpoint>
            <Time>2021-08-10T13:03:08.000Z</Time>
            <Position>
              <LatitudeDegrees>43.23392696678638458251953125</LatitudeDegrees>
              <LongitudeDegrees>-1.67605315335094928741455078125</LongitudeDegrees>
            </Position>
            <AltitudeMeters>77.59999847412109375</AltitudeMeters>
            <DistanceMeters>NAN</DistanceMeters>
          </Trackpoint>
          <Trackpoint>
            <Time>2021-08-10T13:03:09.000Z</Time>
            <Position>
              <LatitudeDegrees>43.2339630089700222015380859375</LatitudeDegrees>
              <LongitudeDegrees>-1.6761015169322490692138671875</LongitudeDegrees>
            </Position>
            <AltitudeMeters>77.59999847412109375</AltitudeMeters>
            <DistanceMeters>NAN</DistanceMeters>
          </Trackpoint>
          <Trackpoint>
            <Time>2021-08-10T13:03:10.000Z</Time>
            <Position>
              <LatitudeDegrees>43.2339945249259471893310546875</LatitudeDegrees>
              <LongitudeDegrees>-1.67614518664777278900146484375</LongitudeDegrees>
            </Position>
            <AltitudeMeters>77.59999847412109375</AltitudeMeters>
            <DistanceMeters>NAN</DistanceMeters>
          </Trackpoint>
          <Trackpoint>
            <Time>2021-08-10T13:03:13.000Z</Time>
            <Position>
              <LatitudeDegrees>43.23410072363913059234619140625</LatitudeDegrees>
              <LongitudeDegrees>-1.6762842424213886260986328125</LongitudeDegrees>
            </Position>
            <AltitudeMeters>77.40000152587890625</AltitudeMeters>
            <DistanceMeters>NAN</DistanceMeters>
          </Trackpoint>
          <Trackpoint>
            <Time>2021-08-10T13:03:15.000Z</Time>
            <Position>
              <LatitudeDegrees>43.23418219573795795440673828125</LatitudeDegrees>
              <LongitudeDegrees>-1.676384992897510528564453125</LongitudeDegrees>
            </Position>
            <AltitudeMeters>77.40000152587890625</AltitudeMeters>
            <DistanceMeters>NAN</DistanceMeters>
          </Trackpoint>
          <Trackpoint>
            <Time>2021-08-10T13:03:16.000Z</Time>
            <Position>
              <LatitudeDegrees>43.23421019129455089569091796875</LatitudeDegrees>
              <LongitudeDegrees>-1.67645297013223171234130859375</LongitudeDegrees>
            </Position>
            <AltitudeMeters>77.40000152587890625</AltitudeMeters>
            <DistanceMeters>NAN</DistanceMeters>
          </Trackpoint>
          <Trackpoint>
            <Time>2021-08-10T13:03:18.000Z</Time>
            <Position>
              <LatitudeDegrees>43.23427590541541576385498046875</LatitudeDegrees>
              <LongitudeDegrees>-1.6765581630170345306396484375</LongitudeDegrees>
            </Position>
            <AltitudeMeters>77.40000152587890625</AltitudeMeters>
            <DistanceMeters>NAN</DistanceMeters>
          </Trackpoint>
          <Trackpoint>
            <Time>2021-08-10T13:03:21.000Z</Time>
            <Position>
              <LatitudeDegrees>43.2344122789800167083740234375</LatitudeDegrees>
              <LongitudeDegrees>-1.67667894624173641204833984375</LongitudeDegrees>
            </Position>
            <AltitudeMeters>77.1999969482421875</AltitudeMeters>
            <DistanceMeters>NAN</DistanceMeters>
          </Trackpoint>
          <Trackpoint>
            <Time>2021-08-10T13:03:22.000Z</Time>
            <Position>
              <LatitudeDegrees>43.23444572277367115020751953125</LatitudeDegrees>
              <LongitudeDegrees>-1.6767170839011669158935546875</LongitudeDegrees>
            </Position>
            <AltitudeMeters>77.1999969482421875</AltitudeMeters>
            <DistanceMeters>NAN</DistanceMeters>
          </Trackpoint>
          <Trackpoint>
            <Time>2021-08-10T13:03:23.000Z</Time>
            <Position>
              <LatitudeDegrees>43.23448679409921169281005859375</LatitudeDegrees>
              <LongitudeDegrees>-1.67677433229982852935791015625</LongitudeDegrees>
            </Position>
            <AltitudeMeters>77.1999969482421875</AltitudeMeters>
            <DistanceMeters>NAN</DistanceMeters>
          </Trackpoint>
          <Trackpoint>
            <Time>2021-08-10T13:03:26.000Z</Time>
            <Position>
              <LatitudeDegrees>43.23462677188217639923095703125</LatitudeDegrees>
              <LongitudeDegrees>-1.67689519934356212615966796875</LongitudeDegrees>
            </Position>
            <AltitudeMeters>77.1999969482421875</AltitudeMeters>
            <DistanceMeters>NAN</DistanceMeters>
          </Trackpoint>
          <Trackpoint>
            <Time>2021-08-10T13:03:27.000Z</Time>
            <Position>
              <LatitudeDegrees>43.2346848584711551666259765625</LatitudeDegrees>
              <LongitudeDegrees>-1.67692822404205799102783203125</LongitudeDegrees>
            </Position>
            <AltitudeMeters>77.1999969482421875</AltitudeMeters>
            <DistanceMeters>NAN</DistanceMeters>
          </Trackpoint>
          <Trackpoint>
            <Time>2021-08-10T13:03:31.000Z</Time>
            <Position>
              <LatitudeDegrees>43.23485475964844226837158203125</LatitudeDegrees>
              <LongitudeDegrees>-1.67706937529146671295166015625</LongitudeDegrees>
            </Position>
            <AltitudeMeters>77</AltitudeMeters>
            <DistanceMeters>NAN</DistanceMeters>
          </Trackpoint>
          <Trackpoint>
            <Time>2021-08-10T13:03:34.000Z</Time>
            <Position>
              <LatitudeDegrees>43.23499423451721668243408203125</LatitudeDegrees>
              <LongitudeDegrees>-1.67708429507911205291748046875</LongitudeDegrees>
            </Position>
            <AltitudeMeters>77</AltitudeMeters>
            <DistanceMeters>NAN</DistanceMeters>
          </Trackpoint>
          <Trackpoint>
            <Time>2021-08-10T13:03:35.000Z</Time>
            <Position>
              <LatitudeDegrees>43.23504134081304073333740234375</LatitudeDegrees>
              <LongitudeDegrees>-1.677086055278778076171875</LongitudeDegrees>
            </Position>
            <AltitudeMeters>77</AltitudeMeters>
            <DistanceMeters>NAN</DistanceMeters>
          </Trackpoint>
          <Trackpoint>
            <Time>2021-08-10T13:03:38.000Z</Time>
            <Position>
              <LatitudeDegrees>43.23517997749149799346923828125</LatitudeDegrees>
              <LongitudeDegrees>-1.677087061107158660888671875</LongitudeDegrees>
            </Position>
            <AltitudeMeters>76.8000030517578125</AltitudeMeters>
            <DistanceMeters>NAN</DistanceMeters>
          </Trackpoint>
          <Trackpoint>
            <Time>2021-08-10T13:03:39.000Z</Time>
            <Position>
              <LatitudeDegrees>43.23522507213056087493896484375</LatitudeDegrees>
              <LongitudeDegrees>-1.67708496563136577606201171875</LongitudeDegrees>
            </Position>
            <AltitudeMeters>76.8000030517578125</AltitudeMeters>
            <DistanceMeters>NAN</DistanceMeters>
          </Trackpoint>
          <Trackpoint>
            <Time>2021-08-10T13:03:40.000Z</Time>
            <Position>
              <LatitudeDegrees>43.23526966385543346405029296875</LatitudeDegrees>
              <LongitudeDegrees>-1.6770821996033191680908203125</LongitudeDegrees>
            </Position>
            <AltitudeMeters>76.8000030517578125</AltitudeMeters>
            <DistanceMeters>NAN</DistanceMeters>
          </Trackpoint>
          <Trackpoint>
            <Time>2021-08-10T13:03:41.000Z</Time>
            <Position>
              <LatitudeDegrees>43.23531157337129116058349609375</LatitudeDegrees>
              <LongitudeDegrees>-1.67707775719463825225830078125</LongitudeDegrees>
            </Position>
            <AltitudeMeters>76.8000030517578125</AltitudeMeters>
            <DistanceMeters>NAN</DistanceMeters>
          </Trackpoint>
          <Trackpoint>
            <Time>2021-08-10T13:03:43.000Z</Time>
            <Position>
              <LatitudeDegrees>43.23539723642170429229736328125</LatitudeDegrees>
              <LongitudeDegrees>-1.67706367559731006622314453125</LongitudeDegrees>
            </Position>
            <AltitudeMeters>77</AltitudeMeters>
            <DistanceMeters>NAN</DistanceMeters>
          </Trackpoint>
          <Trackpoint>
            <Time>2021-08-10T13:03:44.000Z</Time>
            <Position>
              <LatitudeDegrees>43.23543864302337169647216796875</LatitudeDegrees>
              <LongitudeDegrees>-1.67705479077994823455810546875</LongitudeDegrees>
            </Position>
            <AltitudeMeters>77</AltitudeMeters>
            <DistanceMeters>NAN</DistanceMeters>
          </Trackpoint>
          <Trackpoint>
            <Time>2021-08-10T13:03:50.000Z</Time>
            <Position>
              <LatitudeDegrees>43.23571256361901760101318359375</LatitudeDegrees>
              <LongitudeDegrees>-1.67697499506175518035888671875</LongitudeDegrees>
            </Position>
            <AltitudeMeters>76.8000030517578125</AltitudeMeters>
            <DistanceMeters>NAN</DistanceMeters>
          </Trackpoint>
          <Trackpoint>
            <Time>2021-08-10T13:03:52.000Z</Time>
            <Position>
              <LatitudeDegrees>43.2357966341078281402587890625</LatitudeDegrees>
              <LongitudeDegrees>-1.67694331146776676177978515625</LongitudeDegrees>
            </Position>
            <AltitudeMeters>76.59999847412109375</AltitudeMeters>
            <DistanceMeters>NAN</DistanceMeters>
          </Trackpoint>
          <Trackpoint>
            <Time>2021-08-10T13:03:58.000Z</Time>
            <Position>
              <LatitudeDegrees>43.2360735721886157989501953125</LatitudeDegrees>
              <LongitudeDegrees>-1.676839292049407958984375</LongitudeDegrees>
            </Position>
            <AltitudeMeters>76</AltitudeMeters>
            <DistanceMeters>NAN</DistanceMeters>
          </Trackpoint>
          <Trackpoint>
            <Time>2021-08-10T13:04:01.000Z</Time>
            <Position>
              <LatitudeDegrees>43.23619402013719081878662109375</LatitudeDegrees>
              <LongitudeDegrees>-1.6767687164247035980224609375</LongitudeDegrees>
            </Position>
            <AltitudeMeters>76</AltitudeMeters>
            <DistanceMeters>NAN</DistanceMeters>
          </Trackpoint>
          <Trackpoint>
            <Time>2021-08-10T13:04:02.000Z</Time>
            <Position>
              <LatitudeDegrees>43.23622972704470157623291015625</LatitudeDegrees>
              <LongitudeDegrees>-1.67674030177295207977294921875</LongitudeDegrees>
            </Position>
            <AltitudeMeters>75.8000030517578125</AltitudeMeters>
            <DistanceMeters>NAN</DistanceMeters>
          </Trackpoint>
          <Trackpoint>
            <Time>2021-08-10T13:04:03.000Z</Time>
            <Position>
              <LatitudeDegrees>43.236264176666736602783203125</LatitudeDegrees>
              <LongitudeDegrees>-1.67671498842537403106689453125</LongitudeDegrees>
            </Position>
            <AltitudeMeters>75.8000030517578125</AltitudeMeters>
            <DistanceMeters>NAN</DistanceMeters>
          </Trackpoint>
          <Trackpoint>
            <Time>2021-08-10T13:04:04.000Z</Time>
            <Position>
              <LatitudeDegrees>43.2362988777458667755126953125</LatitudeDegrees>
              <LongitudeDegrees>-1.6766949556767940521240234375</LongitudeDegrees>
            </Position>
            <AltitudeMeters>75.59999847412109375</AltitudeMeters>
            <DistanceMeters>NAN</DistanceMeters>
          </Trackpoint>
          <Trackpoint>
            <Time>2021-08-10T13:04:06.000Z</Time>
            <Position>
              <LatitudeDegrees>43.23636643588542938232421875</LatitudeDegrees>
              <LongitudeDegrees>-1.67665329761803150177001953125</LongitudeDegrees>
            </Position>
            <AltitudeMeters>75.59999847412109375</AltitudeMeters>
            <DistanceMeters>NAN</DistanceMeters>
          </Trackpoint>
          <Trackpoint>
            <Time>2021-08-10T13:04:07.000Z</Time>
            <Position>
              <LatitudeDegrees>43.23638387024402618408203125</LatitudeDegrees>
              <LongitudeDegrees>-1.6766409762203693389892578125</LongitudeDegrees>
            </Position>
            <AltitudeMeters>75.40000152587890625</AltitudeMeters>
            <DistanceMeters>NAN</DistanceMeters>
          </Trackpoint>
          <Trackpoint>
            <Time>2021-08-10T13:04:08.000Z</Time>
            <Position>
              <LatitudeDegrees>43.23641337454319000244140625</LatitudeDegrees>
              <LongitudeDegrees>-1.67661809362471103668212890625</LongitudeDegrees>
            </Position>
            <AltitudeMeters>75.40000152587890625</AltitudeMeters>
            <DistanceMeters>NAN</DistanceMeters>
          </Trackpoint>
          <Trackpoint>
            <Time>2021-08-10T13:04:09.000Z</Time>
            <Position>
              <LatitudeDegrees>43.23644530959427356719970703125</LatitudeDegrees>
              <LongitudeDegrees>-1.67659278027713298797607421875</LongitudeDegrees>
            </Position>
            <AltitudeMeters>75.40000152587890625</AltitudeMeters>
            <DistanceMeters>NAN</DistanceMeters>
          </Trackpoint>
          <Trackpoint>
            <Time>2021-08-10T13:04:12.000Z</Time>
            <Position>
              <LatitudeDegrees>43.23650280945003032684326171875</LatitudeDegrees>
              <LongitudeDegrees>-1.67651331983506679534912109375</LongitudeDegrees>
            </Position>
            <AltitudeMeters>75.40000152587890625</AltitudeMeters>
            <DistanceMeters>NAN</DistanceMeters>
          </Trackpoint>
          <Trackpoint>
            <Time>2021-08-10T13:04:13.000Z</Time>
            <Position>
              <LatitudeDegrees>43.23652007617056369781494140625</LatitudeDegrees>
              <LongitudeDegrees>-1.67649270035326480865478515625</LongitudeDegrees>
            </Position>
            <AltitudeMeters>75.1999969482421875</AltitudeMeters>
            <DistanceMeters>NAN</DistanceMeters>
          </Trackpoint>
          <Trackpoint>
            <Time>2021-08-10T13:04:14.000Z</Time>
            <Position>
              <LatitudeDegrees>43.236541114747524261474609375</LatitudeDegrees>
              <LongitudeDegrees>-1.67647157795727252960205078125</LongitudeDegrees>
            </Position>
            <AltitudeMeters>75.1999969482421875</AltitudeMeters>
            <DistanceMeters>NAN</DistanceMeters>
          </Trackpoint>
          <Trackpoint>
            <Time>2021-08-10T13:04:15.000Z</Time>
            <Position>
              <LatitudeDegrees>43.2365570403635501861572265625</LatitudeDegrees>
              <LongitudeDegrees>-1.6764481924474239349365234375</LongitudeDegrees>
            </Position>
            <AltitudeMeters>75.1999969482421875</AltitudeMeters>
            <DistanceMeters>NAN</DistanceMeters>
          </Trackpoint>
          <Trackpoint>
            <Time>2021-08-10T13:04:16.000Z</Time>
            <Position>
              <LatitudeDegrees>43.236572630703449249267578125</LatitudeDegrees>
              <LongitudeDegrees>-1.6764233820140361785888671875</LongitudeDegrees>
            </Position>
            <AltitudeMeters>75.1999969482421875</AltitudeMeters>
            <DistanceMeters>NAN</DistanceMeters>
          </Trackpoint>
          <Trackpoint>
            <Time>2021-08-10T13:04:17.000Z</Time>
            <Position>
              <LatitudeDegrees>43.236587047576904296875</LatitudeDegrees>
              <LongitudeDegrees>-1.67640209197998046875</LongitudeDegrees>
            </Position>
            <AltitudeMeters>75.1999969482421875</AltitudeMeters>
            <DistanceMeters>NAN</DistanceMeters>
          </Trackpoint>
          <Trackpoint>
            <Time>2021-08-10T13:04:18.000Z</Time>
            <Position>
              <LatitudeDegrees>43.2366016320884227752685546875</LatitudeDegrees>
              <LongitudeDegrees>-1.67637350969016551971435546875</LongitudeDegrees>
            </Position>
            <AltitudeMeters>75</AltitudeMeters>
            <DistanceMeters>NAN</DistanceMeters>
          </Trackpoint>
          <Trackpoint>
            <Time>2021-08-10T13:04:19.000Z</Time>
            <Position>
              <LatitudeDegrees>43.23661663569509983062744140625</LatitudeDegrees>
              <LongitudeDegrees>-1.67633210308849811553955078125</LongitudeDegrees>
            </Position>
            <AltitudeMeters>75</AltitudeMeters>
            <DistanceMeters>NAN</DistanceMeters>
          </Trackpoint>
          <Trackpoint>
            <Time>2021-08-10T13:04:20.000Z</Time>
            <Position>
              <LatitudeDegrees>43.2366311363875865936279296875</LatitudeDegrees>
              <LongitudeDegrees>-1.6763221286237239837646484375</LongitudeDegrees>
            </Position>
            <AltitudeMeters>75</AltitudeMeters>
            <DistanceMeters>NAN</DistanceMeters>
          </Trackpoint>
          <Trackpoint>
            <Time>2021-08-10T13:04:21.000Z</Time>
            <Position>
              <LatitudeDegrees>43.23664999566972255706787109375</LatitudeDegrees>
              <LongitudeDegrees>-1.67630276642739772796630859375</LongitudeDegrees>
            </Position>
            <AltitudeMeters>75</AltitudeMeters>
            <DistanceMeters>NAN</DistanceMeters>
          </Trackpoint>
          <Trackpoint>
            <Time>2021-08-10T13:04:22.000Z</Time>
            <Position>
              <LatitudeDegrees>43.236662484705448150634765625</LatitudeDegrees>
              <LongitudeDegrees>-1.67627024464309215545654296875</LongitudeDegrees>
            </Position>
            <AltitudeMeters>74.8000030517578125</AltitudeMeters>
            <DistanceMeters>NAN</DistanceMeters>
          </Trackpoint>
          <Trackpoint>
            <Time>2021-08-10T13:04:23.000Z</Time>
            <Position>
              <LatitudeDegrees>43.23667748831212520599365234375</LatitudeDegrees>
              <LongitudeDegrees>-1.67623520828783512115478515625</LongitudeDegrees>
            </Position>
            <AltitudeMeters>74.8000030517578125</AltitudeMeters>
            <DistanceMeters>NAN</DistanceMeters>
          </Trackpoint>
          <Trackpoint>
            <Time>2021-08-10T13:04:24.000Z</Time>
            <Position>
              <LatitudeDegrees>43.23669274337589740753173828125</LatitudeDegrees>
              <LongitudeDegrees>-1.67620738036930561065673828125</LongitudeDegrees>
            </Position>
            <AltitudeMeters>74.8000030517578125</AltitudeMeters>
            <DistanceMeters>NAN</DistanceMeters>
          </Trackpoint>
          <Trackpoint>
            <Time>2021-08-10T13:04:25.000Z</Time>
            <Position>
              <LatitudeDegrees>43.2367089204490184783935546875</LatitudeDegrees>
              <LongitudeDegrees>-1.67617368511855602264404296875</LongitudeDegrees>
            </Position>
            <AltitudeMeters>74.8000030517578125</AltitudeMeters>
            <DistanceMeters>NAN</DistanceMeters>
          </Trackpoint>
          <Trackpoint>
            <Time>2021-08-10T13:04:27.000Z</Time>
            <Position>
              <LatitudeDegrees>43.23673917911946773529052734375</LatitudeDegrees>
              <LongitudeDegrees>-1.6761179454624652862548828125</LongitudeDegrees>
            </Position>
            <AltitudeMeters>74.8000030517578125</AltitudeMeters>
            <DistanceMeters>NAN</DistanceMeters>
          </Trackpoint>
          <Trackpoint>
            <Time>2021-08-10T13:04:33.000Z</Time>
            <Position>
              <LatitudeDegrees>43.23686532676219940185546875</LatitudeDegrees>
              <LongitudeDegrees>-1.67591594159603118896484375</LongitudeDegrees>
            </Position>
            <AltitudeMeters>74.1999969482421875</AltitudeMeters>
            <DistanceMeters>NAN</DistanceMeters>
          </Trackpoint>
          <Trackpoint>
            <Time>2021-08-10T13:04:35.000Z</Time>
            <Position>
              <LatitudeDegrees>43.2368993572890758514404296875</LatitudeDegrees>
              <LongitudeDegrees>-1.6758443601429462432861328125</LongitudeDegrees>
            </Position>
            <AltitudeMeters>74</AltitudeMeters>
            <DistanceMeters>NAN</DistanceMeters>
          </Trackpoint>
          <Trackpoint>
            <Time>2021-08-10T13:04:43.000Z</Time>
            <Position>
              <LatitudeDegrees>43.237068168818950653076171875</LatitudeDegrees>
              <LongitudeDegrees>-1.6755942441523075103759765625</LongitudeDegrees>
            </Position>
            <AltitudeMeters>73.1999969482421875</AltitudeMeters>
            <DistanceMeters>NAN</DistanceMeters>
          </Trackpoint>
          <Trackpoint>
            <Time>2021-08-10T13:04:46.000Z</Time>
            <Position>
              <LatitudeDegrees>43.2371350564062595367431640625</LatitudeDegrees>
              <LongitudeDegrees>-1.67550363577902317047119140625</LongitudeDegrees>
            </Position>
            <AltitudeMeters>73</AltitudeMeters>
            <DistanceMeters>NAN</DistanceMeters>
          </Trackpoint>
          <Trackpoint>
            <Time>2021-08-10T13:04:52.000Z</Time>
            <Position>
              <LatitudeDegrees>43.23728869669139385223388671875</LatitudeDegrees>
              <LongitudeDegrees>-1.6752955131232738494873046875</LongitudeDegrees>
            </Position>
            <AltitudeMeters>72.8000030517578125</AltitudeMeters>
            <DistanceMeters>NAN</DistanceMeters>
          </Trackpoint>
          <Trackpoint>
            <Time>2021-08-10T13:04:59.000Z</Time>
            <Position>
              <LatitudeDegrees>43.2374773733317852020263671875</LatitudeDegrees>
              <LongitudeDegrees>-1.6750852949917316436767578125</LongitudeDegrees>
            </Position>
            <AltitudeMeters>72.8000030517578125</AltitudeMeters>
            <DistanceMeters>NAN</DistanceMeters>
          </Trackpoint>
          <Trackpoint>
            <Time>2021-08-10T13:05:00.000Z</Time>
            <Position>
              <LatitudeDegrees>43.2375028543174266815185546875</LatitudeDegrees>
              <LongitudeDegrees>-1.67506408877670764923095703125</LongitudeDegrees>
            </Position>
            <AltitudeMeters>72.8000030517578125</AltitudeMeters>
            <DistanceMeters>NAN</DistanceMeters>
          </Trackpoint>
          <Trackpoint>
            <Time>2021-08-10T13:05:01.000Z</Time>
            <Position>
              <LatitudeDegrees>43.2375300116837024688720703125</LatitudeDegrees>
              <LongitudeDegrees>-1.67503274045884609222412109375</LongitudeDegrees>
            </Position>
            <AltitudeMeters>72.8000030517578125</AltitudeMeters>
            <DistanceMeters>NAN</DistanceMeters>
          </Trackpoint>
          <Trackpoint>
            <Time>2021-08-10T13:05:03.000Z</Time>
            <Position>
              <LatitudeDegrees>43.2375863380730152130126953125</LatitudeDegrees>
              <LongitudeDegrees>-1.67496568523347377777099609375</LongitudeDegrees>
            </Position>
            <AltitudeMeters>72.8000030517578125</AltitudeMeters>
            <DistanceMeters>NAN</DistanceMeters>
          </Trackpoint>
          <Trackpoint>
            <Time>2021-08-10T13:05:05.000Z</Time>
            <Position>
              <LatitudeDegrees>43.2376413233578205108642578125</LatitudeDegrees>
              <LongitudeDegrees>-1.6748978756368160247802734375</LongitudeDegrees>
            </Position>
            <AltitudeMeters>72.8000030517578125</AltitudeMeters>
            <DistanceMeters>NAN</DistanceMeters>
          </Trackpoint>
          <Trackpoint>
            <Time>2021-08-10T13:05:11.000Z</Time>
            <Position>
              <LatitudeDegrees>43.23781616985797882080078125</LatitudeDegrees>
              <LongitudeDegrees>-1.67468019761145114898681640625</LongitudeDegrees>
            </Position>
            <AltitudeMeters>73</AltitudeMeters>
            <DistanceMeters>NAN</DistanceMeters>
          </Trackpoint>
          <Trackpoint>
            <Time>2021-08-10T13:05:12.000Z</Time>
            <Position>
              <LatitudeDegrees>43.2378337718546390533447265625</LatitudeDegrees>
              <LongitudeDegrees>-1.6746393777430057525634765625</LongitudeDegrees>
            </Position>
            <AltitudeMeters>73</AltitudeMeters>
            <DistanceMeters>NAN</DistanceMeters>
          </Trackpoint>
          <Trackpoint>
            <Time>2021-08-10T13:05:13.000Z</Time>
            <Position>
              <LatitudeDegrees>43.23785598389804363250732421875</LatitudeDegrees>
              <LongitudeDegrees>-1.67461238801479339599609375</LongitudeDegrees>
            </Position>
            <AltitudeMeters>73</AltitudeMeters>
            <DistanceMeters>NAN</DistanceMeters>
          </Trackpoint>
          <Trackpoint>
            <Time>2021-08-10T13:05:14.000Z</Time>
            <Position>
              <LatitudeDegrees>43.23787291534245014190673828125</LatitudeDegrees>
              <LongitudeDegrees>-1.67460341937839984893798828125</LongitudeDegrees>
            </Position>
            <AltitudeMeters>73</AltitudeMeters>
            <DistanceMeters>NAN</DistanceMeters>
          </Trackpoint>
          <Trackpoint>
            <Time>2021-08-10T13:05:15.000Z</Time>
            <Position>
              <LatitudeDegrees>43.23787878267467021942138671875</LatitudeDegrees>
              <LongitudeDegrees>-1.67459336109459400177001953125</LongitudeDegrees>
            </Position>
            <AltitudeMeters>73</AltitudeMeters>
            <DistanceMeters>NAN</DistanceMeters>
          </Trackpoint>
          <Trackpoint>
            <Time>2021-08-10T13:05:16.000Z</Time>
            <Position>
              <LatitudeDegrees>43.23787945322692394256591796875</LatitudeDegrees>
              <LongitudeDegrees>-1.6745716519653797149658203125</LongitudeDegrees>
            </Position>
            <AltitudeMeters>73</AltitudeMeters>
            <DistanceMeters>NAN</DistanceMeters>
          </Trackpoint>
          <Trackpoint>
            <Time>2021-08-10T13:05:17.000Z</Time>
            <Position>
              <LatitudeDegrees>43.237862773239612579345703125</LatitudeDegrees>
              <LongitudeDegrees>-1.674569807946681976318359375</LongitudeDegrees>
            </Position>
            <AltitudeMeters>73</AltitudeMeters>
            <DistanceMeters>NAN</DistanceMeters>
          </Trackpoint>
          <Trackpoint>
            <Time>2021-08-10T13:06:31.000Z</Time>
            <Position>
              <LatitudeDegrees>43.2399342767894268035888671875</LatitudeDegrees>
              <LongitudeDegrees>-1.6753421165049076080322265625</LongitudeDegrees>
            </Position>
            <AltitudeMeters>74.40000152587890625</AltitudeMeters>
            <DistanceMeters>NAN</DistanceMeters>
          </Trackpoint>
          <Trackpoint>
            <Time>2021-08-10T13:06:33.000Z</Time>
            <Position>
              <LatitudeDegrees>43.23994743637740612030029296875</LatitudeDegrees>
              <LongitudeDegrees>-1.67530381120741367340087890625</LongitudeDegrees>
            </Position>
            <AltitudeMeters>74.1999969482421875</AltitudeMeters>
            <DistanceMeters>NAN</DistanceMeters>
          </Trackpoint>
          <Trackpoint>
            <Time>2021-08-10T13:06:34.000Z</Time>
            <Position>
              <LatitudeDegrees>43.2400350272655487060546875</LatitudeDegrees>
              <LongitudeDegrees>-1.67535829357802867889404296875</LongitudeDegrees>
            </Position>
            <AltitudeMeters>74.1999969482421875</AltitudeMeters>
            <DistanceMeters>NAN</DistanceMeters>
          </Trackpoint>
          <Trackpoint>
            <Time>2021-08-10T13:06:38.000Z</Time>
            <Position>
              <LatitudeDegrees>43.2403258793056011199951171875</LatitudeDegrees>
              <LongitudeDegrees>-1.67540439404547214508056640625</LongitudeDegrees>
            </Position>
            <AltitudeMeters>73.8000030517578125</AltitudeMeters>
            <DistanceMeters>NAN</DistanceMeters>
          </Trackpoint>
          <Trackpoint>
            <Time>2021-08-10T13:06:40.000Z</Time>
            <Position>
              <LatitudeDegrees>43.24045680463314056396484375</LatitudeDegrees>
              <LongitudeDegrees>-1.675391234457492828369140625</LongitudeDegrees>
            </Position>
            <AltitudeMeters>73.59999847412109375</AltitudeMeters>
            <DistanceMeters>NAN</DistanceMeters>
          </Trackpoint>
          <Trackpoint>
            <Time>2021-08-10T13:06:42.000Z</Time>
            <Position>
              <LatitudeDegrees>43.24056275188922882080078125</LatitudeDegrees>
              <LongitudeDegrees>-1.67544697411358356475830078125</LongitudeDegrees>
            </Position>
            <AltitudeMeters>73.59999847412109375</AltitudeMeters>
            <DistanceMeters>NAN</DistanceMeters>
          </Trackpoint>
          <Trackpoint>
            <Time>2021-08-10T13:06:43.000Z</Time>
            <Position>
              <LatitudeDegrees>43.24059954844415187835693359375</LatitudeDegrees>
              <LongitudeDegrees>-1.67547077871859073638916015625</LongitudeDegrees>
            </Position>
            <AltitudeMeters>73.59999847412109375</AltitudeMeters>
            <DistanceMeters>NAN</DistanceMeters>
          </Trackpoint>
          <Trackpoint>
            <Time>2021-08-10T13:06:44.000Z</Time>
            <Position>
              <LatitudeDegrees>43.24063039384782314300537109375</LatitudeDegrees>
              <LongitudeDegrees>-1.6755077429115772247314453125</LongitudeDegrees>
            </Position>
            <AltitudeMeters>73.59999847412109375</AltitudeMeters>
            <DistanceMeters>NAN</DistanceMeters>
          </Trackpoint>
          <Trackpoint>
            <Time>2021-08-10T13:06:45.000Z</Time>
            <Position>
              <LatitudeDegrees>43.240669034421443939208984375</LatitudeDegrees>
              <LongitudeDegrees>-1.675519309937953948974609375</LongitudeDegrees>
            </Position>
            <AltitudeMeters>73.59999847412109375</AltitudeMeters>
            <DistanceMeters>NAN</DistanceMeters>
          </Trackpoint>
          <Trackpoint>
            <Time>2021-08-10T13:06:46.000Z</Time>
            <Position>
              <LatitudeDegrees>43.2407114468514919281005859375</LatitudeDegrees>
              <LongitudeDegrees>-1.6755298711359500885009765625</LongitudeDegrees>
            </Position>
            <AltitudeMeters>73.59999847412109375</AltitudeMeters>
            <DistanceMeters>NAN</DistanceMeters>
          </Trackpoint>
          <Trackpoint>
            <Time>2021-08-10T13:06:47.000Z</Time>
            <Position>
              <LatitudeDegrees>43.2407429628074169158935546875</LatitudeDegrees>
              <LongitudeDegrees>-1.67553951032459735870361328125</LongitudeDegrees>
            </Position>
            <AltitudeMeters>73.59999847412109375</AltitudeMeters>
            <DistanceMeters>NAN</DistanceMeters>
          </Trackpoint>
          <Trackpoint>
            <Time>2021-08-10T13:06:48.000Z</Time>
            <Position>
              <LatitudeDegrees>43.24074874632060527801513671875</LatitudeDegrees>
              <LongitudeDegrees>-1.6755644045770168304443359375</LongitudeDegrees>
            </Position>
            <AltitudeMeters>73.40000152587890625</AltitudeMeters>
            <DistanceMeters>NAN</DistanceMeters>
          </Trackpoint>
          <Trackpoint>
            <Time>2021-08-10T13:06:49.000Z</Time>
            <Position>
              <LatitudeDegrees>43.2407734729349613189697265625</LatitudeDegrees>
              <LongitudeDegrees>-1.675587706267833709716796875</LongitudeDegrees>
            </Position>
            <AltitudeMeters>73.40000152587890625</AltitudeMeters>
            <DistanceMeters>NAN</DistanceMeters>
          </Trackpoint>
          <Trackpoint>
            <Time>2021-08-10T13:06:50.000Z</Time>
            <Position>
              <LatitudeDegrees>43.24077992700040340423583984375</LatitudeDegrees>
              <LongitudeDegrees>-1.67559265159070491790771484375</LongitudeDegrees>
            </Position>
            <AltitudeMeters>73.40000152587890625</AltitudeMeters>
            <DistanceMeters>NAN</DistanceMeters>
          </Trackpoint>
          <Trackpoint>
            <Time>2021-08-10T13:06:51.000Z</Time>
            <Position>
              <LatitudeDegrees>43.24078998528420925140380859375</LatitudeDegrees>
              <LongitudeDegrees>-1.67559047229588031768798828125</LongitudeDegrees>
            </Position>
            <AltitudeMeters>73.40000152587890625</AltitudeMeters>
            <DistanceMeters>NAN</DistanceMeters>
          </Trackpoint>
          <Trackpoint>
            <Time>2021-08-10T13:06:52.000Z</Time>
            <Position>
              <LatitudeDegrees>43.24079853482544422149658203125</LatitudeDegrees>
              <LongitudeDegrees>-1.67558158747851848602294921875</LongitudeDegrees>
            </Position>
            <AltitudeMeters>73.40000152587890625</AltitudeMeters>
            <DistanceMeters>NAN</DistanceMeters>
          </Trackpoint>
          <Trackpoint>
            <Time>2021-08-10T13:06:53.000Z</Time>
            <Position>
              <LatitudeDegrees>43.24082217179238796234130859375</LatitudeDegrees>
              <LongitudeDegrees>-1.67556993663311004638671875</LongitudeDegrees>
            </Position>
            <AltitudeMeters>73.40000152587890625</AltitudeMeters>
            <DistanceMeters>NAN</DistanceMeters>
          </Trackpoint>
          <Trackpoint>
            <Time>2021-08-10T13:06:54.000Z</Time>
            <Position>
              <LatitudeDegrees>43.2408442161977291107177734375</LatitudeDegrees>
              <LongitudeDegrees>-1.67555945925414562225341796875</LongitudeDegrees>
            </Position>
            <AltitudeMeters>73.40000152587890625</AltitudeMeters>
            <DistanceMeters>NAN</DistanceMeters>
          </Trackpoint>
          <Trackpoint>
            <Time>2021-08-10T13:06:55.000Z</Time>
            <Position>
              <LatitudeDegrees>43.24086374603211879730224609375</LatitudeDegrees>
              <LongitudeDegrees>-1.67554923333227634429931640625</LongitudeDegrees>
            </Position>
            <AltitudeMeters>73.1999969482421875</AltitudeMeters>
            <DistanceMeters>NAN</DistanceMeters>
          </Trackpoint>
          <Trackpoint>
            <Time>2021-08-10T13:06:56.000Z</Time>
            <Position>
              <LatitudeDegrees>43.24088729918003082275390625</LatitudeDegrees>
              <LongitudeDegrees>-1.67553481645882129669189453125</LongitudeDegrees>
            </Position>
            <AltitudeMeters>73.1999969482421875</AltitudeMeters>
            <DistanceMeters>NAN</DistanceMeters>
          </Trackpoint>
          <Trackpoint>
            <Time>2021-08-10T13:06:57.000Z</Time>
            <Position>
              <LatitudeDegrees>43.24091085232794284820556640625</LatitudeDegrees>
              <LongitudeDegrees>-1.6755178011953830718994140625</LongitudeDegrees>
            </Position>
            <AltitudeMeters>73.1999969482421875</AltitudeMeters>
            <DistanceMeters>NAN</DistanceMeters>
          </Trackpoint>
          <Trackpoint>
            <Time>2021-08-10T13:06:59.000Z</Time>
            <Position>
              <LatitudeDegrees>43.24097036384046077728271484375</LatitudeDegrees>
              <LongitudeDegrees>-1.67548318393528461456298828125</LongitudeDegrees>
            </Position>
            <AltitudeMeters>73.1999969482421875</AltitudeMeters>
            <DistanceMeters>NAN</DistanceMeters>
          </Trackpoint>
          <Trackpoint>
            <Time>2021-08-10T13:07:01.000Z</Time>
            <Position>
              <LatitudeDegrees>43.2410193979740142822265625</LatitudeDegrees>
              <LongitudeDegrees>-1.6754658333957195281982421875</LongitudeDegrees>
            </Position>
            <AltitudeMeters>73</AltitudeMeters>
            <DistanceMeters>NAN</DistanceMeters>
          </Trackpoint>
          <Trackpoint>
            <Time>2021-08-10T13:07:02.000Z</Time>
            <Position>
              <LatitudeDegrees>43.24103725142776966094970703125</LatitudeDegrees>
              <LongitudeDegrees>-1.6754539310932159423828125</LongitudeDegrees>
            </Position>
            <AltitudeMeters>73</AltitudeMeters>
            <DistanceMeters>NAN</DistanceMeters>
          </Trackpoint>
          <Trackpoint>
            <Time>2021-08-10T13:07:03.000Z</Time>
            <Position>
              <LatitudeDegrees>43.2410574518144130706787109375</LatitudeDegrees>
              <LongitudeDegrees>-1.67544177733361721038818359375</LongitudeDegrees>
            </Position>
            <AltitudeMeters>73</AltitudeMeters>
            <DistanceMeters>NAN</DistanceMeters>
          </Trackpoint>
          <Trackpoint>
            <Time>2021-08-10T13:07:04.000Z</Time>
            <Position>
              <LatitudeDegrees>43.24107371270656585693359375</LatitudeDegrees>
              <LongitudeDegrees>-1.6754316352307796478271484375</LongitudeDegrees>
            </Position>
            <AltitudeMeters>73</AltitudeMeters>
            <DistanceMeters>NAN</DistanceMeters>
          </Trackpoint>
          <Trackpoint>
            <Time>2021-08-10T13:07:08.000Z</Time>
            <Position>
              <LatitudeDegrees>43.24115526862442493438720703125</LatitudeDegrees>
              <LongitudeDegrees>-1.67536072432994842529296875</LongitudeDegrees>
            </Position>
            <AltitudeMeters>73.1999969482421875</AltitudeMeters>
            <DistanceMeters>NAN</DistanceMeters>
          </Trackpoint>
          <Trackpoint>
            <Time>2021-08-10T13:07:09.000Z</Time>
            <Position>
              <LatitudeDegrees>43.24117555283010005950927734375</LatitudeDegrees>
              <LongitudeDegrees>-1.67535225860774517059326171875</LongitudeDegrees>
            </Position>
            <AltitudeMeters>73.1999969482421875</AltitudeMeters>
            <DistanceMeters>NAN</DistanceMeters>
          </Trackpoint>
          <Trackpoint>
            <Time>2021-08-10T13:07:15.000Z</Time>
            <Position>
              <LatitudeDegrees>43.24131066910922527313232421875</LatitudeDegrees>
              <LongitudeDegrees>-1.67526894249022006988525390625</LongitudeDegrees>
            </Position>
            <AltitudeMeters>73</AltitudeMeters>
            <DistanceMeters>NAN</DistanceMeters>
          </Trackpoint>
          <Trackpoint>
            <Time>2021-08-10T13:07:21.000Z</Time>
            <Position>
              <LatitudeDegrees>43.24145634658634662628173828125</LatitudeDegrees>
              <LongitudeDegrees>-1.67513634078204631805419921875</LongitudeDegrees>
            </Position>
            <AltitudeMeters>73.1999969482421875</AltitudeMeters>
            <DistanceMeters>NAN</DistanceMeters>
          </Trackpoint>
          <Trackpoint>
            <Time>2021-08-10T13:07:26.000Z</Time>
            <Position>
              <LatitudeDegrees>43.24155785143375396728515625</LatitudeDegrees>
              <LongitudeDegrees>-1.67500533163547515869140625</LongitudeDegrees>
            </Position>
            <AltitudeMeters>73</AltitudeMeters>
            <DistanceMeters>NAN</DistanceMeters>
          </Trackpoint>
          <Trackpoint>
            <Time>2021-08-10T13:07:27.000Z</Time>
            <Position>
              <LatitudeDegrees>43.24155994690954685211181640625</LatitudeDegrees>
              <LongitudeDegrees>-1.67496434412896633148193359375</LongitudeDegrees>
            </Position>
            <AltitudeMeters>73</AltitudeMeters>
            <DistanceMeters>NAN</DistanceMeters>
          </Trackpoint>
          <Trackpoint>
            <Time>2021-08-10T13:07:28.000Z</Time>
            <Position>
              <LatitudeDegrees>43.24156648479402065277099609375</LatitudeDegrees>
              <LongitudeDegrees>-1.6749263741075992584228515625</LongitudeDegrees>
            </Position>
            <AltitudeMeters>73</AltitudeMeters>
            <DistanceMeters>NAN</DistanceMeters>
          </Trackpoint>
          <Trackpoint>
            <Time>2021-08-10T13:07:29.000Z</Time>
            <Position>
              <LatitudeDegrees>43.24157796800136566162109375</LatitudeDegrees>
              <LongitudeDegrees>-1.674884296953678131103515625</LongitudeDegrees>
            </Position>
            <AltitudeMeters>73</AltitudeMeters>
            <DistanceMeters>NAN</DistanceMeters>
          </Trackpoint>
          <Trackpoint>
            <Time>2021-08-10T13:07:30.000Z</Time>
            <Position>
              <LatitudeDegrees>43.24158995412290096282958984375</LatitudeDegrees>
              <LongitudeDegrees>-1.6748475842177867889404296875</LongitudeDegrees>
            </Position>
            <AltitudeMeters>73</AltitudeMeters>
            <DistanceMeters>NAN</DistanceMeters>
          </Trackpoint>
          <Trackpoint>
            <Time>2021-08-10T13:07:31.000Z</Time>
            <Position>
              <LatitudeDegrees>43.2415969111025333404541015625</LatitudeDegrees>
              <LongitudeDegrees>-1.67481246404349803924560546875</LongitudeDegrees>
            </Position>
            <AltitudeMeters>73</AltitudeMeters>
            <DistanceMeters>NAN</DistanceMeters>
          </Trackpoint>
          <Trackpoint>
            <Time>2021-08-10T13:07:32.000Z</Time>
            <Position>
              <LatitudeDegrees>43.24160906486213207244873046875</LatitudeDegrees>
              <LongitudeDegrees>-1.67477390728890895843505859375</LongitudeDegrees>
            </Position>
            <AltitudeMeters>73</AltitudeMeters>
            <DistanceMeters>NAN</DistanceMeters>
          </Trackpoint>
          <Trackpoint>
            <Time>2021-08-10T13:07:33.000Z</Time>
            <Position>
              <LatitudeDegrees>43.24162767268717288970947265625</LatitudeDegrees>
              <LongitudeDegrees>-1.67473585344851016998291015625</LongitudeDegrees>
            </Position>
            <AltitudeMeters>73</AltitudeMeters>
            <DistanceMeters>NAN</DistanceMeters>
          </Trackpoint>
          <Trackpoint>
            <Time>2021-08-10T13:07:34.000Z</Time>
            <Position>
              <LatitudeDegrees>43.24163571931421756744384765625</LatitudeDegrees>
              <LongitudeDegrees>-1.6746921837329864501953125</LongitudeDegrees>
            </Position>
            <AltitudeMeters>73</AltitudeMeters>
            <DistanceMeters>NAN</DistanceMeters>
          </Trackpoint>
          <Trackpoint>
            <Time>2021-08-10T13:07:36.000Z</Time>
            <Position>
              <LatitudeDegrees>43.2416441850364208221435546875</LatitudeDegrees>
              <LongitudeDegrees>-1.6746179200708866119384765625</LongitudeDegrees>
            </Position>
            <AltitudeMeters>72.8000030517578125</AltitudeMeters>
            <DistanceMeters>NAN</DistanceMeters>
          </Trackpoint>
          <Trackpoint>
            <Time>2021-08-10T13:07:37.000Z</Time>
            <Position>
              <LatitudeDegrees>43.24164502322673797607421875</LatitudeDegrees>
              <LongitudeDegrees>-1.67458212934434413909912109375</LongitudeDegrees>
            </Position>
            <AltitudeMeters>72.8000030517578125</AltitudeMeters>
            <DistanceMeters>NAN</DistanceMeters>
          </Trackpoint>
          <Trackpoint>
            <Time>2021-08-10T13:07:38.000Z</Time>
            <Position>
              <LatitudeDegrees>43.24164728634059429168701171875</LatitudeDegrees>
              <LongitudeDegrees>-1.67452395893633365631103515625</LongitudeDegrees>
            </Position>
            <AltitudeMeters>72.8000030517578125</AltitudeMeters>
            <DistanceMeters>NAN</DistanceMeters>
          </Trackpoint>
          <Trackpoint>
            <Time>2021-08-10T13:07:40.000Z</Time>
            <Position>
              <LatitudeDegrees>43.24167327024042606353759765625</LatitudeDegrees>
              <LongitudeDegrees>-1.67442195117473602294921875</LongitudeDegrees>
            </Position>
            <AltitudeMeters>72.59999847412109375</AltitudeMeters>
            <DistanceMeters>NAN</DistanceMeters>
          </Trackpoint>
          <Trackpoint>
            <Time>2021-08-10T13:07:41.000Z</Time>
            <Position>
              <LatitudeDegrees>43.241683579981327056884765625</LatitudeDegrees>
              <LongitudeDegrees>-1.674365960061550140380859375</LongitudeDegrees>
            </Position>
            <AltitudeMeters>72.59999847412109375</AltitudeMeters>
            <DistanceMeters>NAN</DistanceMeters>
          </Trackpoint>
          <Trackpoint>
            <Time>2021-08-10T13:07:46.000Z</Time>
            <Position>
              <LatitudeDegrees>43.241748623549938201904296875</LatitudeDegrees>
              <LongitudeDegrees>-1.67416538111865520477294921875</LongitudeDegrees>
            </Position>
            <AltitudeMeters>72.8000030517578125</AltitudeMeters>
            <DistanceMeters>NAN</DistanceMeters>
          </Trackpoint>
          <Trackpoint>
            <Time>2021-08-10T13:07:47.000Z</Time>
            <Position>
              <LatitudeDegrees>43.24177837930619716644287109375</LatitudeDegrees>
              <LongitudeDegrees>-1.674132607877254486083984375</LongitudeDegrees>
            </Position>
            <AltitudeMeters>72.8000030517578125</AltitudeMeters>
            <DistanceMeters>NAN</DistanceMeters>
          </Trackpoint>
          <Trackpoint>
            <Time>2021-08-10T13:07:48.000Z</Time>
            <Position>
              <LatitudeDegrees>43.24180955998599529266357421875</LatitudeDegrees>
              <LongitudeDegrees>-1.67408491484820842742919921875</LongitudeDegrees>
            </Position>
            <AltitudeMeters>72.8000030517578125</AltitudeMeters>
            <DistanceMeters>NAN</DistanceMeters>
          </Trackpoint>
          <Trackpoint>
            <Time>2021-08-10T13:07:51.000Z</Time>
            <Position>
              <LatitudeDegrees>43.24188365601003170013427734375</LatitudeDegrees>
              <LongitudeDegrees>-1.67394929565489292144775390625</LongitudeDegrees>
            </Position>
            <AltitudeMeters>72.8000030517578125</AltitudeMeters>
            <DistanceMeters>NAN</DistanceMeters>
          </Trackpoint>
          <Trackpoint>
            <Time>2021-08-10T13:07:54.000Z</Time>
            <Position>
              <LatitudeDegrees>43.24196286499500274658203125</LatitudeDegrees>
              <LongitudeDegrees>-1.6738258302211761474609375</LongitudeDegrees>
            </Position>
            <AltitudeMeters>72.8000030517578125</AltitudeMeters>
            <DistanceMeters>NAN</DistanceMeters>
          </Trackpoint>
          <Trackpoint>
            <Time>2021-08-10T13:07:55.000Z</Time>
            <Position>
              <LatitudeDegrees>43.241991363465785980224609375</LatitudeDegrees>
              <LongitudeDegrees>-1.6738038696348667144775390625</LongitudeDegrees>
            </Position>
            <AltitudeMeters>72.8000030517578125</AltitudeMeters>
            <DistanceMeters>NAN</DistanceMeters>
          </Trackpoint>
          <Trackpoint>
            <Time>2021-08-10T13:07:56.000Z</Time>
            <Position>
              <LatitudeDegrees>43.2420029304921627044677734375</LatitudeDegrees>
              <LongitudeDegrees>-1.67379942722618579864501953125</LongitudeDegrees>
            </Position>
            <AltitudeMeters>72.8000030517578125</AltitudeMeters>
            <DistanceMeters>NAN</DistanceMeters>
          </Trackpoint>
          <Trackpoint>
            <Time>2021-08-10T13:07:57.000Z</Time>
            <Position>
              <LatitudeDegrees>43.24202866293489933013916015625</LatitudeDegrees>
              <LongitudeDegrees>-1.67373974807560443878173828125</LongitudeDegrees>
            </Position>
            <AltitudeMeters>72.8000030517578125</AltitudeMeters>
            <DistanceMeters>NAN</DistanceMeters>
          </Trackpoint>
          <Trackpoint>
            <Time>2021-08-10T13:07:58.000Z</Time>
            <Position>
              <LatitudeDegrees>43.24204911477863788604736328125</LatitudeDegrees>
              <LongitudeDegrees>-1.67370286770164966583251953125</LongitudeDegrees>
            </Position>
            <AltitudeMeters>72.8000030517578125</AltitudeMeters>
            <DistanceMeters>NAN</DistanceMeters>
          </Trackpoint>
          <Trackpoint>
            <Time>2021-08-10T13:07:59.000Z</Time>
            <Position>
              <LatitudeDegrees>43.2420766912400722503662109375</LatitudeDegrees>
              <LongitudeDegrees>-1.67365341447293758392333984375</LongitudeDegrees>
            </Position>
            <AltitudeMeters>72.8000030517578125</AltitudeMeters>
            <DistanceMeters>NAN</DistanceMeters>
          </Trackpoint>
          <Trackpoint>
            <Time>2021-08-10T13:08:01.000Z</Time>
            <Position>
              <LatitudeDegrees>43.2421162538230419158935546875</LatitudeDegrees>
              <LongitudeDegrees>-1.6735859401524066925048828125</LongitudeDegrees>
            </Position>
            <AltitudeMeters>72.59999847412109375</AltitudeMeters>
            <DistanceMeters>NAN</DistanceMeters>
          </Trackpoint>
          <Trackpoint>
            <Time>2021-08-10T13:08:05.000Z</Time>
            <Position>
              <LatitudeDegrees>43.24220770038664340972900390625</LatitudeDegrees>
              <LongitudeDegrees>-1.673461385071277618408203125</LongitudeDegrees>
            </Position>
            <AltitudeMeters>72.40000152587890625</AltitudeMeters>
            <DistanceMeters>NAN</DistanceMeters>
          </Trackpoint>
          <Trackpoint>
            <Time>2021-08-10T13:08:13.000Z</Time>
            <Position>
              <LatitudeDegrees>43.24239335954189300537109375</LatitudeDegrees>
              <LongitudeDegrees>-1.67321051470935344696044921875</LongitudeDegrees>
            </Position>
            <AltitudeMeters>72</AltitudeMeters>
            <DistanceMeters>NAN</DistanceMeters>
          </Trackpoint>
          <Trackpoint>
            <Time>2021-08-10T13:08:14.000Z</Time>
            <Position>
              <LatitudeDegrees>43.24242495931684970855712890625</LatitudeDegrees>
              <LongitudeDegrees>-1.6731671802699565887451171875</LongitudeDegrees>
            </Position>
            <AltitudeMeters>72</AltitudeMeters>
            <DistanceMeters>NAN</DistanceMeters>
          </Trackpoint>
          <Trackpoint>
            <Time>2021-08-10T13:08:17.000Z</Time>
            <Position>
              <LatitudeDegrees>43.242523781955242156982421875</LatitudeDegrees>
              <LongitudeDegrees>-1.67306735180318355560302734375</LongitudeDegrees>
            </Position>
            <AltitudeMeters>71.8000030517578125</AltitudeMeters>
            <DistanceMeters>NAN</DistanceMeters>
          </Trackpoint>
          <Trackpoint>
            <Time>2021-08-10T13:08:18.000Z</Time>
            <Position>
              <LatitudeDegrees>43.242555968463420867919921875</LatitudeDegrees>
              <LongitudeDegrees>-1.6730277054011821746826171875</LongitudeDegrees>
            </Position>
            <AltitudeMeters>71.8000030517578125</AltitudeMeters>
            <DistanceMeters>NAN</DistanceMeters>
          </Trackpoint>
          <Trackpoint>
            <Time>2021-08-10T13:08:22.000Z</Time>
            <Position>
              <LatitudeDegrees>43.24269971810281276702880859375</LatitudeDegrees>
              <LongitudeDegrees>-1.6728439740836620330810546875</LongitudeDegrees>
            </Position>
            <AltitudeMeters>71.8000030517578125</AltitudeMeters>
            <DistanceMeters>NAN</DistanceMeters>
          </Trackpoint>
          <Trackpoint>
            <Time>2021-08-10T13:08:25.000Z</Time>
            <Position>
              <LatitudeDegrees>43.24284262955188751220703125</LatitudeDegrees>
              <LongitudeDegrees>-1.6726751625537872314453125</LongitudeDegrees>
            </Position>
            <AltitudeMeters>71.59999847412109375</AltitudeMeters>
            <DistanceMeters>NAN</DistanceMeters>
          </Trackpoint>
          <Trackpoint>
            <Time>2021-08-10T13:08:30.000Z</Time>
            <Position>
              <LatitudeDegrees>43.24308511801064014434814453125</LatitudeDegrees>
              <LongitudeDegrees>-1.67234315536916255950927734375</LongitudeDegrees>
            </Position>
            <AltitudeMeters>71.59999847412109375</AltitudeMeters>
            <DistanceMeters>NAN</DistanceMeters>
          </Trackpoint>
          <Trackpoint>
            <Time>2021-08-10T13:08:31.000Z</Time>
            <Position>
              <LatitudeDegrees>43.2431361638009548187255859375</LatitudeDegrees>
              <LongitudeDegrees>-1.67225983925163745880126953125</LongitudeDegrees>
            </Position>
            <AltitudeMeters>71.59999847412109375</AltitudeMeters>
            <DistanceMeters>NAN</DistanceMeters>
          </Trackpoint>
          <Trackpoint>
            <Time>2021-08-10T13:08:32.000Z</Time>
            <Position>
              <LatitudeDegrees>43.2431777380406856536865234375</LatitudeDegrees>
              <LongitudeDegrees>-1.6722109727561473846435546875</LongitudeDegrees>
            </Position>
            <AltitudeMeters>71.40000152587890625</AltitudeMeters>
            <DistanceMeters>NAN</DistanceMeters>
          </Trackpoint>
          <Trackpoint>
            <Time>2021-08-10T13:08:33.000Z</Time>
            <Position>
              <LatitudeDegrees>43.2432250119745731353759765625</LatitudeDegrees>
              <LongitudeDegrees>-1.6721496172249317169189453125</LongitudeDegrees>
            </Position>
            <AltitudeMeters>71.40000152587890625</AltitudeMeters>
            <DistanceMeters>NAN</DistanceMeters>
          </Trackpoint>
          <Trackpoint>
            <Time>2021-08-10T13:08:34.000Z</Time>
            <Position>
              <LatitudeDegrees>43.24327136389911174774169921875</LatitudeDegrees>
              <LongitudeDegrees>-1.67209102772176265716552734375</LongitudeDegrees>
            </Position>
            <AltitudeMeters>71.1999969482421875</AltitudeMeters>
            <DistanceMeters>NAN</DistanceMeters>
          </Trackpoint>
          <Trackpoint>
            <Time>2021-08-10T13:08:35.000Z</Time>
            <Position>
              <LatitudeDegrees>43.24331712909042835235595703125</LatitudeDegrees>
              <LongitudeDegrees>-1.6720314323902130126953125</LongitudeDegrees>
            </Position>
            <AltitudeMeters>71.1999969482421875</AltitudeMeters>
            <DistanceMeters>NAN</DistanceMeters>
          </Trackpoint>
          <Trackpoint>
            <Time>2021-08-10T13:08:37.000Z</Time>
            <Position>
              <LatitudeDegrees>43.24339893646538257598876953125</LatitudeDegrees>
              <LongitudeDegrees>-1.67191936634480953216552734375</LongitudeDegrees>
            </Position>
            <AltitudeMeters>71</AltitudeMeters>
            <DistanceMeters>NAN</DistanceMeters>
          </Trackpoint>
          <Trackpoint>
            <Time>2021-08-10T13:08:39.000Z</Time>
            <Position>
              <LatitudeDegrees>43.24348032474517822265625</LatitudeDegrees>
              <LongitudeDegrees>-1.67180872522294521331787109375</LongitudeDegrees>
            </Position>
            <AltitudeMeters>70.8000030517578125</AltitudeMeters>
            <DistanceMeters>NAN</DistanceMeters>
          </Trackpoint>
          <Trackpoint>
            <Time>2021-08-10T13:08:40.000Z</Time>
            <Position>
              <LatitudeDegrees>43.2435224018990993499755859375</LatitudeDegrees>
              <LongitudeDegrees>-1.67175172828137874603271484375</LongitudeDegrees>
            </Position>
            <AltitudeMeters>70.8000030517578125</AltitudeMeters>
            <DistanceMeters>NAN</DistanceMeters>
          </Trackpoint>
          <Trackpoint>
            <Time>2021-08-10T13:08:41.000Z</Time>
            <Position>
              <LatitudeDegrees>43.24356489814817905426025390625</LatitudeDegrees>
              <LongitudeDegrees>-1.67168769054114818572998046875</LongitudeDegrees>
            </Position>
            <AltitudeMeters>70.8000030517578125</AltitudeMeters>
            <DistanceMeters>NAN</DistanceMeters>
          </Trackpoint>
          <Trackpoint>
            <Time>2021-08-10T13:08:42.000Z</Time>
            <Position>
              <LatitudeDegrees>43.24359356425702571868896484375</LatitudeDegrees>
              <LongitudeDegrees>-1.6716403327882289886474609375</LongitudeDegrees>
            </Position>
            <AltitudeMeters>70.8000030517578125</AltitudeMeters>
            <DistanceMeters>NAN</DistanceMeters>
          </Trackpoint>
          <Trackpoint>
            <Time>2021-08-10T13:08:43.000Z</Time>
            <Position>
              <LatitudeDegrees>43.2436360605061054229736328125</LatitudeDegrees>
              <LongitudeDegrees>-1.67158006690442562103271484375</LongitudeDegrees>
            </Position>
            <AltitudeMeters>70.8000030517578125</AltitudeMeters>
            <DistanceMeters>NAN</DistanceMeters>
          </Trackpoint>
          <Trackpoint>
            <Time>2021-08-10T13:08:45.000Z</Time>
            <Position>
              <LatitudeDegrees>43.24372683651745319366455078125</LatitudeDegrees>
              <LongitudeDegrees>-1.67142366059124469757080078125</LongitudeDegrees>
            </Position>
            <AltitudeMeters>70.8000030517578125</AltitudeMeters>
            <DistanceMeters>NAN</DistanceMeters>
          </Trackpoint>
          <Trackpoint>
            <Time>2021-08-10T13:08:48.000Z</Time>
            <Position>
              <LatitudeDegrees>43.2438744418323040008544921875</LatitudeDegrees>
              <LongitudeDegrees>-1.67120866477489471435546875</LongitudeDegrees>
            </Position>
            <AltitudeMeters>70.59999847412109375</AltitudeMeters>
            <DistanceMeters>NAN</DistanceMeters>
          </Trackpoint>
          <Trackpoint>
            <Time>2021-08-10T13:08:49.000Z</Time>
            <Position>
              <LatitudeDegrees>43.24392314068973064422607421875</LatitudeDegrees>
              <LongitudeDegrees>-1.671131886541843414306640625</LongitudeDegrees>
            </Position>
            <AltitudeMeters>70.59999847412109375</AltitudeMeters>
            <DistanceMeters>NAN</DistanceMeters>
          </Trackpoint>
          <Trackpoint>
            <Time>2021-08-10T13:08:51.000Z</Time>
            <Position>
              <LatitudeDegrees>43.24398818425834178924560546875</LatitudeDegrees>
              <LongitudeDegrees>-1.671007834374904632568359375</LongitudeDegrees>
            </Position>
            <AltitudeMeters>70.59999847412109375</AltitudeMeters>
            <DistanceMeters>NAN</DistanceMeters>
          </Trackpoint>
          <Trackpoint>
            <Time>2021-08-10T13:08:52.000Z</Time>
            <Position>
              <LatitudeDegrees>43.24401752091944217681884765625</LatitudeDegrees>
              <LongitudeDegrees>-1.67095460928976535797119140625</LongitudeDegrees>
            </Position>
            <AltitudeMeters>70.40000152587890625</AltitudeMeters>
            <DistanceMeters>NAN</DistanceMeters>
          </Trackpoint>
          <Trackpoint>
            <Time>2021-08-10T13:08:53.000Z</Time>
            <Position>
              <LatitudeDegrees>43.2440561614930629730224609375</LatitudeDegrees>
              <LongitudeDegrees>-1.67091839946806430816650390625</LongitudeDegrees>
            </Position>
            <AltitudeMeters>70.40000152587890625</AltitudeMeters>
            <DistanceMeters>NAN</DistanceMeters>
          </Trackpoint>
          <Trackpoint>
            <Time>2021-08-10T13:08:54.000Z</Time>
            <Position>
              <LatitudeDegrees>43.24406881816685199737548828125</LatitudeDegrees>
              <LongitudeDegrees>-1.6709077544510364532470703125</LongitudeDegrees>
            </Position>
            <AltitudeMeters>70.40000152587890625</AltitudeMeters>
            <DistanceMeters>NAN</DistanceMeters>
          </Trackpoint>
          <Trackpoint>
            <Time>2021-08-10T13:08:55.000Z</Time>
            <Position>
              <LatitudeDegrees>43.2440715841948986053466796875</LatitudeDegrees>
              <LongitudeDegrees>-1.6709049046039581298828125</LongitudeDegrees>
            </Position>
            <AltitudeMeters>70.40000152587890625</AltitudeMeters>
            <DistanceMeters>NAN</DistanceMeters>
          </Trackpoint>
          <Trackpoint>
            <Time>2021-08-10T13:08:56.000Z</Time>
            <Position>
              <LatitudeDegrees>43.2440715841948986053466796875</LatitudeDegrees>
              <LongitudeDegrees>-1.6709049046039581298828125</LongitudeDegrees>
            </Position>
            <AltitudeMeters>70.1999969482421875</AltitudeMeters>
            <DistanceMeters>NAN</DistanceMeters>
          </Trackpoint>
          <Trackpoint>
            <Time>2021-08-10T13:08:57.000Z</Time>
            <Position>
              <LatitudeDegrees>43.2440715841948986053466796875</LatitudeDegrees>
              <LongitudeDegrees>-1.6709049046039581298828125</LongitudeDegrees>
            </Position>
            <AltitudeMeters>70.1999969482421875</AltitudeMeters>
            <DistanceMeters>NAN</DistanceMeters>
          </Trackpoint>
          <Trackpoint>
            <Time>2021-08-10T13:09:06.000Z</Time>
            <Position>
              <LatitudeDegrees>43.2440715841948986053466796875</LatitudeDegrees>
              <LongitudeDegrees>-1.6709049046039581298828125</LongitudeDegrees>
            </Position>
            <AltitudeMeters>69.8000030517578125</AltitudeMeters>
            <DistanceMeters>NAN</DistanceMeters>
          </Trackpoint>
          <Trackpoint>
            <Time>2021-08-10T13:09:10.000Z</Time>
            <Position>
              <LatitudeDegrees>43.2440715841948986053466796875</LatitudeDegrees>
              <LongitudeDegrees>-1.6709049046039581298828125</LongitudeDegrees>
            </Position>
            <AltitudeMeters>69.8000030517578125</AltitudeMeters>
            <DistanceMeters>NAN</DistanceMeters>
          </Trackpoint>
          <Trackpoint>
            <Time>2021-08-10T13:11:10.000Z</Time>
            <Position>
              <LatitudeDegrees>43.2440715841948986053466796875</LatitudeDegrees>
              <LongitudeDegrees>-1.6709049046039581298828125</LongitudeDegrees>
            </Position>
            <AltitudeMeters>69.1999969482421875</AltitudeMeters>
            <DistanceMeters>NAN</DistanceMeters>
          </Trackpoint>
          <Trackpoint>
            <Time>2021-08-10T13:12:39.000Z</Time>
            <Position>
              <LatitudeDegrees>43.2440715841948986053466796875</LatitudeDegrees>
              <LongitudeDegrees>-1.6709049046039581298828125</LongitudeDegrees>
            </Position>
            <AltitudeMeters>69.40000152587890625</AltitudeMeters>
            <DistanceMeters>NAN</DistanceMeters>
          </Trackpoint>
          <Trackpoint>
            <Time>2021-08-10T13:13:21.000Z</Time>
            <Position>
              <LatitudeDegrees>43.24407912790775299072265625</LatitudeDegrees>
              <LongitudeDegrees>-1.67089291848242282867431640625</LongitudeDegrees>
            </Position>
            <AltitudeMeters>69.59999847412109375</AltitudeMeters>
            <DistanceMeters>NAN</DistanceMeters>
          </Trackpoint>
          <Trackpoint>
            <Time>2021-08-10T13:13:22.000Z</Time>
            <Position>
              <LatitudeDegrees>43.244089186191558837890625</LatitudeDegrees>
              <LongitudeDegrees>-1.67087665759027004241943359375</LongitudeDegrees>
            </Position>
            <AltitudeMeters>69.59999847412109375</AltitudeMeters>
            <DistanceMeters>NAN</DistanceMeters>
          </Trackpoint>
          <Trackpoint>
            <Time>2021-08-10T13:13:23.000Z</Time>
            <Position>
              <LatitudeDegrees>43.24409932829439640045166015625</LatitudeDegrees>
              <LongitudeDegrees>-1.67086123488843441009521484375</LongitudeDegrees>
            </Position>
            <AltitudeMeters>69.59999847412109375</AltitudeMeters>
            <DistanceMeters>NAN</DistanceMeters>
          </Trackpoint>
          <Trackpoint>
            <Time>2021-08-10T13:13:24.000Z</Time>
            <Position>
              <LatitudeDegrees>43.2441128231585025787353515625</LatitudeDegrees>
              <LongitudeDegrees>-1.67085193097591400146484375</LongitudeDegrees>
            </Position>
            <AltitudeMeters>69.59999847412109375</AltitudeMeters>
            <DistanceMeters>NAN</DistanceMeters>
          </Trackpoint>
          <Trackpoint>
            <Time>2021-08-10T13:13:25.000Z</Time>
            <Position>
              <LatitudeDegrees>43.2441279105842113494873046875</LatitudeDegrees>
              <LongitudeDegrees>-1.67084279470145702362060546875</LongitudeDegrees>
            </Position>
            <AltitudeMeters>69.59999847412109375</AltitudeMeters>
            <DistanceMeters>NAN</DistanceMeters>
          </Trackpoint>
          <Trackpoint>
            <Time>2021-08-10T13:13:26.000Z</Time>
            <Position>
              <LatitudeDegrees>43.244139812886714935302734375</LatitudeDegrees>
              <LongitudeDegrees>-1.670828796923160552978515625</LongitudeDegrees>
            </Position>
            <AltitudeMeters>69.59999847412109375</AltitudeMeters>
            <DistanceMeters>NAN</DistanceMeters>
          </Trackpoint>
          <Trackpoint>
            <Time>2021-08-10T13:13:27.000Z</Time>
            <Position>
              <LatitudeDegrees>43.24415029026567935943603515625</LatitudeDegrees>
              <LongitudeDegrees>-1.6708182357251644134521484375</LongitudeDegrees>
            </Position>
            <AltitudeMeters>69.40000152587890625</AltitudeMeters>
            <DistanceMeters>NAN</DistanceMeters>
          </Trackpoint>
          <Trackpoint>
            <Time>2021-08-10T13:13:28.000Z</Time>
            <Position>
              <LatitudeDegrees>43.24416093528270721435546875</LatitudeDegrees>
              <LongitudeDegrees>-1.67081094346940517425537109375</LongitudeDegrees>
            </Position>
            <AltitudeMeters>69.40000152587890625</AltitudeMeters>
            <DistanceMeters>NAN</DistanceMeters>
          </Trackpoint>
          <Trackpoint>
            <Time>2021-08-10T13:13:29.000Z</Time>
            <Position>
              <LatitudeDegrees>43.24417124502360820770263671875</LatitudeDegrees>
              <LongitudeDegrees>-1.67079971171915531158447265625</LongitudeDegrees>
            </Position>
            <AltitudeMeters>69.40000152587890625</AltitudeMeters>
            <DistanceMeters>NAN</DistanceMeters>
          </Trackpoint>
          <Trackpoint>
            <Time>2021-08-10T13:13:32.000Z</Time>
            <Position>
              <LatitudeDegrees>43.24420678429305553436279296875</LatitudeDegrees>
              <LongitudeDegrees>-1.67074866592884063720703125</LongitudeDegrees>
            </Position>
            <AltitudeMeters>69.1999969482421875</AltitudeMeters>
            <DistanceMeters>NAN</DistanceMeters>
          </Trackpoint>
          <Trackpoint>
            <Time>2021-08-10T13:13:33.000Z</Time>
            <Position>
              <LatitudeDegrees>43.2442224584519863128662109375</LatitudeDegrees>
              <LongitudeDegrees>-1.67072544805705547332763671875</LongitudeDegrees>
            </Position>
            <AltitudeMeters>69.1999969482421875</AltitudeMeters>
            <DistanceMeters>NAN</DistanceMeters>
          </Trackpoint>
          <Trackpoint>
            <Time>2021-08-10T13:13:36.000Z</Time>
            <Position>
              <LatitudeDegrees>43.244277276098728179931640625</LatitudeDegrees>
              <LongitudeDegrees>-1.67064665816724300384521484375</LongitudeDegrees>
            </Position>
            <AltitudeMeters>69.40000152587890625</AltitudeMeters>
            <DistanceMeters>NAN</DistanceMeters>
          </Trackpoint>
          <Trackpoint>
            <Time>2021-08-10T13:13:37.000Z</Time>
            <Position>
              <LatitudeDegrees>43.2442968897521495819091796875</LatitudeDegrees>
              <LongitudeDegrees>-1.67062235064804553985595703125</LongitudeDegrees>
            </Position>
            <AltitudeMeters>69.1999969482421875</AltitudeMeters>
            <DistanceMeters>NAN</DistanceMeters>
          </Trackpoint>
          <Trackpoint>
            <Time>2021-08-10T13:13:38.000Z</Time>
            <Position>
              <LatitudeDegrees>43.24431323446333408355712890625</LatitudeDegrees>
              <LongitudeDegrees>-1.6706029884517192840576171875</LongitudeDegrees>
            </Position>
            <AltitudeMeters>69.1999969482421875</AltitudeMeters>
            <DistanceMeters>NAN</DistanceMeters>
          </Trackpoint>
          <Trackpoint>
            <Time>2021-08-10T13:13:42.000Z</Time>
            <Position>
              <LatitudeDegrees>43.2443909347057342529296875</LatitudeDegrees>
              <LongitudeDegrees>-1.67050047777593135833740234375</LongitudeDegrees>
            </Position>
            <AltitudeMeters>69.1999969482421875</AltitudeMeters>
            <DistanceMeters>NAN</DistanceMeters>
          </Trackpoint>
          <Trackpoint>
            <Time>2021-08-10T13:13:51.000Z</Time>
            <Position>
              <LatitudeDegrees>43.24461431242525577545166015625</LatitudeDegrees>
              <LongitudeDegrees>-1.6702348552644252777099609375</LongitudeDegrees>
            </Position>
            <AltitudeMeters>69.1999969482421875</AltitudeMeters>
            <DistanceMeters>NAN</DistanceMeters>
          </Trackpoint>
          <Trackpoint>
            <Time>2021-08-10T13:13:56.000Z</Time>
            <Position>
              <LatitudeDegrees>43.244759738445281982421875</LatitudeDegrees>
              <LongitudeDegrees>-1.6701037622988224029541015625</LongitudeDegrees>
            </Position>
            <AltitudeMeters>69</AltitudeMeters>
            <DistanceMeters>NAN</DistanceMeters>
          </Trackpoint>
          <Trackpoint>
            <Time>2021-08-10T13:13:57.000Z</Time>
            <Position>
              <LatitudeDegrees>43.24478731490671634674072265625</LatitudeDegrees>
              <LongitudeDegrees>-1.6700836457312107086181640625</LongitudeDegrees>
            </Position>
            <AltitudeMeters>69</AltitudeMeters>
            <DistanceMeters>NAN</DistanceMeters>
          </Trackpoint>
          <Trackpoint>
            <Time>2021-08-10T13:13:58.000Z</Time>
            <Position>
              <LatitudeDegrees>43.24481665156781673431396484375</LatitudeDegrees>
              <LongitudeDegrees>-1.67005975730717182159423828125</LongitudeDegrees>
            </Position>
            <AltitudeMeters>69</AltitudeMeters>
            <DistanceMeters>NAN</DistanceMeters>
          </Trackpoint>
          <Trackpoint>
            <Time>2021-08-10T13:13:59.000Z</Time>
            <Position>
              <LatitudeDegrees>43.24483819305896759033203125</LatitudeDegrees>
              <LongitudeDegrees>-1.6700412333011627197265625</LongitudeDegrees>
            </Position>
            <AltitudeMeters>68.8000030517578125</AltitudeMeters>
            <DistanceMeters>NAN</DistanceMeters>
          </Trackpoint>
          <Trackpoint>
            <Time>2021-08-10T13:14:00.000Z</Time>
            <Position>
              <LatitudeDegrees>43.24486635625362396240234375</LatitudeDegrees>
              <LongitudeDegrees>-1.6700202785432338714599609375</LongitudeDegrees>
            </Position>
            <AltitudeMeters>68.8000030517578125</AltitudeMeters>
            <DistanceMeters>NAN</DistanceMeters>
          </Trackpoint>
          <Trackpoint>
            <Time>2021-08-10T13:14:05.000Z</Time>
            <Position>
              <LatitudeDegrees>43.2450257800519466400146484375</LatitudeDegrees>
              <LongitudeDegrees>-1.66992682032287120819091796875</LongitudeDegrees>
            </Position>
            <AltitudeMeters>68.8000030517578125</AltitudeMeters>
            <DistanceMeters>NAN</DistanceMeters>
          </Trackpoint>
          <Trackpoint>
            <Time>2021-08-10T13:14:06.000Z</Time>
            <Position>
              <LatitudeDegrees>43.245054446160793304443359375</LatitudeDegrees>
              <LongitudeDegrees>-1.66991240344941616058349609375</LongitudeDegrees>
            </Position>
            <AltitudeMeters>68.8000030517578125</AltitudeMeters>
            <DistanceMeters>NAN</DistanceMeters>
          </Trackpoint>
          <Trackpoint>
            <Time>2021-08-10T13:14:11.000Z</Time>
            <Position>
              <LatitudeDegrees>43.2452195696532726287841796875</LatitudeDegrees>
              <LongitudeDegrees>-1.66981316171586513519287109375</LongitudeDegrees>
            </Position>
            <AltitudeMeters>69</AltitudeMeters>
            <DistanceMeters>NAN</DistanceMeters>
          </Trackpoint>
          <Trackpoint>
            <Time>2021-08-10T13:14:13.000Z</Time>
            <Position>
              <LatitudeDegrees>43.245281763374805450439453125</LatitudeDegrees>
              <LongitudeDegrees>-1.66978172957897186279296875</LongitudeDegrees>
            </Position>
            <AltitudeMeters>69</AltitudeMeters>
            <DistanceMeters>NAN</DistanceMeters>
          </Trackpoint>
          <Trackpoint>
            <Time>2021-08-10T13:14:16.000Z</Time>
            <Position>
              <LatitudeDegrees>43.24537471868097782135009765625</LatitudeDegrees>
              <LongitudeDegrees>-1.66973747313022613525390625</LongitudeDegrees>
            </Position>
            <AltitudeMeters>68.8000030517578125</AltitudeMeters>
            <DistanceMeters>NAN</DistanceMeters>
          </Trackpoint>
          <Trackpoint>
            <Time>2021-08-10T13:14:17.000Z</Time>
            <Position>
              <LatitudeDegrees>43.245408497750759124755859375</LatitudeDegrees>
              <LongitudeDegrees>-1.66972263716161251068115234375</LongitudeDegrees>
            </Position>
            <AltitudeMeters>68.8000030517578125</AltitudeMeters>
            <DistanceMeters>NAN</DistanceMeters>
          </Trackpoint>
          <Trackpoint>
            <Time>2021-08-10T13:14:20.000Z</Time>
            <Position>
              <LatitudeDegrees>43.2455236651003360748291015625</LatitudeDegrees>
              <LongitudeDegrees>-1.66970972903072834014892578125</LongitudeDegrees>
            </Position>
            <AltitudeMeters>69</AltitudeMeters>
            <DistanceMeters>NAN</DistanceMeters>
          </Trackpoint>
          <Trackpoint>
            <Time>2021-08-10T13:14:23.000Z</Time>
            <Position>
              <LatitudeDegrees>43.245631791651248931884765625</LatitudeDegrees>
              <LongitudeDegrees>-1.6697520576417446136474609375</LongitudeDegrees>
            </Position>
            <AltitudeMeters>69.40000152587890625</AltitudeMeters>
            <DistanceMeters>NAN</DistanceMeters>
          </Trackpoint>
          <Trackpoint>
            <Time>2021-08-10T13:14:24.000Z</Time>
            <Position>
              <LatitudeDegrees>43.24566456489264965057373046875</LatitudeDegrees>
              <LongitudeDegrees>-1.6697651334106922149658203125</LongitudeDegrees>
            </Position>
            <AltitudeMeters>69.40000152587890625</AltitudeMeters>
            <DistanceMeters>NAN</DistanceMeters>
          </Trackpoint>
          <Trackpoint>
            <Time>2021-08-10T13:14:25.000Z</Time>
            <Position>
              <LatitudeDegrees>43.2456970028579235076904296875</LatitudeDegrees>
              <LongitudeDegrees>-1.66978164575994014739990234375</LongitudeDegrees>
            </Position>
            <AltitudeMeters>69.59999847412109375</AltitudeMeters>
            <DistanceMeters>NAN</DistanceMeters>
          </Trackpoint>
          <Trackpoint>
            <Time>2021-08-10T13:14:26.000Z</Time>
            <Position>
              <LatitudeDegrees>43.24572625569999217987060546875</LatitudeDegrees>
              <LongitudeDegrees>-1.66980327107012271881103515625</LongitudeDegrees>
            </Position>
            <AltitudeMeters>69.8000030517578125</AltitudeMeters>
            <DistanceMeters>NAN</DistanceMeters>
          </Trackpoint>
          <Trackpoint>
            <Time>2021-08-10T13:14:30.000Z</Time>
            <Position>
              <LatitudeDegrees>43.24586606584489345550537109375</LatitudeDegrees>
              <LongitudeDegrees>-1.66987636126577854156494140625</LongitudeDegrees>
            </Position>
            <AltitudeMeters>70.40000152587890625</AltitudeMeters>
            <DistanceMeters>NAN</DistanceMeters>
          </Trackpoint>
          <Trackpoint>
            <Time>2021-08-10T13:14:31.000Z</Time>
            <Position>
              <LatitudeDegrees>43.24590303003787994384765625</LatitudeDegrees>
              <LongitudeDegrees>-1.6698928736150264739990234375</LongitudeDegrees>
            </Position>
            <AltitudeMeters>70.40000152587890625</AltitudeMeters>
            <DistanceMeters>NAN</DistanceMeters>
          </Trackpoint>
          <Trackpoint>
            <Time>2021-08-10T13:14:32.000Z</Time>
            <Position>
              <LatitudeDegrees>43.24594519101083278656005859375</LatitudeDegrees>
              <LongitudeDegrees>-1.66991726495325565338134765625</LongitudeDegrees>
            </Position>
            <AltitudeMeters>70.40000152587890625</AltitudeMeters>
            <DistanceMeters>NAN</DistanceMeters>
          </Trackpoint>
          <Trackpoint>
            <Time>2021-08-10T13:14:34.000Z</Time>
            <Position>
              <LatitudeDegrees>43.24603823013603687286376953125</LatitudeDegrees>
              <LongitudeDegrees>-1.669982559978961944580078125</LongitudeDegrees>
            </Position>
            <AltitudeMeters>70.59999847412109375</AltitudeMeters>
            <DistanceMeters>NAN</DistanceMeters>
          </Trackpoint>
          <Trackpoint>
            <Time>2021-08-10T13:14:35.000Z</Time>
            <Position>
              <LatitudeDegrees>43.246093131601810455322265625</LatitudeDegrees>
              <LongitudeDegrees>-1.6700169257819652557373046875</LongitudeDegrees>
            </Position>
            <AltitudeMeters>70.59999847412109375</AltitudeMeters>
            <DistanceMeters>NAN</DistanceMeters>
          </Trackpoint>
          <Trackpoint>
            <Time>2021-08-10T13:14:39.000Z</Time>
            <Position>
              <LatitudeDegrees>43.2463006675243377685546875</LatitudeDegrees>
              <LongitudeDegrees>-1.67016620747745037078857421875</LongitudeDegrees>
            </Position>
            <AltitudeMeters>70</AltitudeMeters>
            <DistanceMeters>NAN</DistanceMeters>
          </Trackpoint>
          <Trackpoint>
            <Time>2021-08-10T13:14:41.000Z</Time>
            <Position>
              <LatitudeDegrees>43.24641239829361438751220703125</LatitudeDegrees>
              <LongitudeDegrees>-1.670236028730869293212890625</LongitudeDegrees>
            </Position>
            <AltitudeMeters>69.8000030517578125</AltitudeMeters>
            <DistanceMeters>NAN</DistanceMeters>
          </Trackpoint>
          <Trackpoint>
            <Time>2021-08-10T13:14:45.000Z</Time>
            <Position>
              <LatitudeDegrees>43.24662043713033199310302734375</LatitudeDegrees>
              <LongitudeDegrees>-1.67038715444505214691162109375</LongitudeDegrees>
            </Position>
            <AltitudeMeters>69.40000152587890625</AltitudeMeters>
            <DistanceMeters>NAN</DistanceMeters>
          </Trackpoint>
          <Trackpoint>
            <Time>2021-08-10T13:14:46.000Z</Time>
            <Position>
              <LatitudeDegrees>43.2466753385961055755615234375</LatitudeDegrees>
              <LongitudeDegrees>-1.6704195924103260040283203125</LongitudeDegrees>
            </Position>
            <AltitudeMeters>69.40000152587890625</AltitudeMeters>
            <DistanceMeters>NAN</DistanceMeters>
          </Trackpoint>
          <Trackpoint>
            <Time>2021-08-10T13:14:48.000Z</Time>
            <Position>
              <LatitudeDegrees>43.24677650816738605499267578125</LatitudeDegrees>
              <LongitudeDegrees>-1.6704998910427093505859375</LongitudeDegrees>
            </Position>
            <AltitudeMeters>69.1999969482421875</AltitudeMeters>
            <DistanceMeters>NAN</DistanceMeters>
          </Trackpoint>
          <Trackpoint>
            <Time>2021-08-10T13:14:52.000Z</Time>
            <Position>
              <LatitudeDegrees>43.2469928450882434844970703125</LatitudeDegrees>
              <LongitudeDegrees>-1.67064531706273555755615234375</LongitudeDegrees>
            </Position>
            <AltitudeMeters>69</AltitudeMeters>
            <DistanceMeters>NAN</DistanceMeters>
          </Trackpoint>
          <Trackpoint>
            <Time>2021-08-10T13:14:53.000Z</Time>
            <Position>
              <LatitudeDegrees>43.24704657308757305145263671875</LatitudeDegrees>
              <LongitudeDegrees>-1.67067985050380229949951171875</LongitudeDegrees>
            </Position>
            <AltitudeMeters>68.8000030517578125</AltitudeMeters>
            <DistanceMeters>NAN</DistanceMeters>
          </Trackpoint>
          <Trackpoint>
            <Time>2021-08-10T13:14:54.000Z</Time>
            <Position>
              <LatitudeDegrees>43.24709451757371425628662109375</LatitudeDegrees>
              <LongitudeDegrees>-1.67072041891515254974365234375</LongitudeDegrees>
            </Position>
            <AltitudeMeters>68.8000030517578125</AltitudeMeters>
            <DistanceMeters>NAN</DistanceMeters>
          </Trackpoint>
          <Trackpoint>
            <Time>2021-08-10T13:15:01.000Z</Time>
            <Position>
              <LatitudeDegrees>43.24744538404047489166259765625</LatitudeDegrees>
              <LongitudeDegrees>-1.67099408805370330810546875</LongitudeDegrees>
            </Position>
            <AltitudeMeters>68.40000152587890625</AltitudeMeters>
            <DistanceMeters>NAN</DistanceMeters>
          </Trackpoint>
          <Trackpoint>
            <Time>2021-08-10T13:15:02.000Z</Time>
            <Position>
              <LatitudeDegrees>43.2474914006888866424560546875</LatitudeDegrees>
              <LongitudeDegrees>-1.6710354946553707122802734375</LongitudeDegrees>
            </Position>
            <AltitudeMeters>68.40000152587890625</AltitudeMeters>
            <DistanceMeters>NAN</DistanceMeters>
          </Trackpoint>
          <Trackpoint>
            <Time>2021-08-10T13:15:08.000Z</Time>
            <Position>
              <LatitudeDegrees>43.24776691384613513946533203125</LatitudeDegrees>
              <LongitudeDegrees>-1.67127060703933238983154296875</LongitudeDegrees>
            </Position>
            <AltitudeMeters>68.1999969482421875</AltitudeMeters>
            <DistanceMeters>NAN</DistanceMeters>
          </Trackpoint>
          <Trackpoint>
            <Time>2021-08-10T13:15:09.000Z</Time>
            <Position>
              <LatitudeDegrees>43.2478119246661663055419921875</LatitudeDegrees>
              <LongitudeDegrees>-1.67130916379392147064208984375</LongitudeDegrees>
            </Position>
            <AltitudeMeters>68.1999969482421875</AltitudeMeters>
            <DistanceMeters>NAN</DistanceMeters>
          </Trackpoint>
          <Trackpoint>
            <Time>2021-08-10T13:15:10.000Z</Time>
            <Position>
              <LatitudeDegrees>43.24785567820072174072265625</LatitudeDegrees>
              <LongitudeDegrees>-1.671351827681064605712890625</LongitudeDegrees>
            </Position>
            <AltitudeMeters>68.1999969482421875</AltitudeMeters>
            <DistanceMeters>NAN</DistanceMeters>
          </Trackpoint>
          <Trackpoint>
            <Time>2021-08-10T13:15:11.000Z</Time>
            <Position>
              <LatitudeDegrees>43.24789867736399173736572265625</LatitudeDegrees>
              <LongitudeDegrees>-1.67139097116887569427490234375</LongitudeDegrees>
            </Position>
            <AltitudeMeters>68.1999969482421875</AltitudeMeters>
            <DistanceMeters>NAN</DistanceMeters>
          </Trackpoint>
          <Trackpoint>
            <Time>2021-08-10T13:15:12.000Z</Time>
            <Position>
              <LatitudeDegrees>43.247937150299549102783203125</LatitudeDegrees>
              <LongitudeDegrees>-1.67142919264733791351318359375</LongitudeDegrees>
            </Position>
            <AltitudeMeters>68.1999969482421875</AltitudeMeters>
            <DistanceMeters>NAN</DistanceMeters>
          </Trackpoint>
          <Trackpoint>
            <Time>2021-08-10T13:15:13.000Z</Time>
            <Position>
              <LatitudeDegrees>43.24797914363443851470947265625</LatitudeDegrees>
              <LongitudeDegrees>-1.67145903222262859344482421875</LongitudeDegrees>
            </Position>
            <AltitudeMeters>68.1999969482421875</AltitudeMeters>
            <DistanceMeters>NAN</DistanceMeters>
          </Trackpoint>
          <Trackpoint>
            <Time>2021-08-10T13:15:14.000Z</Time>
            <Position>
              <LatitudeDegrees>43.24802239425480365753173828125</LatitudeDegrees>
              <LongitudeDegrees>-1.671487949788570404052734375</LongitudeDegrees>
            </Position>
            <AltitudeMeters>68.1999969482421875</AltitudeMeters>
            <DistanceMeters>NAN</DistanceMeters>
          </Trackpoint>
          <Trackpoint>
            <Time>2021-08-10T13:15:15.000Z</Time>
            <Position>
              <LatitudeDegrees>43.24806396849453449249267578125</LatitudeDegrees>
              <LongitudeDegrees>-1.67151569388806819915771484375</LongitudeDegrees>
            </Position>
            <AltitudeMeters>68.1999969482421875</AltitudeMeters>
            <DistanceMeters>NAN</DistanceMeters>
          </Trackpoint>
          <Trackpoint>
            <Time>2021-08-10T13:15:16.000Z</Time>
            <Position>
              <LatitudeDegrees>43.248107135295867919921875</LatitudeDegrees>
              <LongitudeDegrees>-1.6715333797037601470947265625</LongitudeDegrees>
            </Position>
            <AltitudeMeters>68.1999969482421875</AltitudeMeters>
            <DistanceMeters>NAN</DistanceMeters>
          </Trackpoint>
          <Trackpoint>
            <Time>2021-08-10T13:15:17.000Z</Time>
            <Position>
              <LatitudeDegrees>43.24814736843109130859375</LatitudeDegrees>
              <LongitudeDegrees>-1.6715528257191181182861328125</LongitudeDegrees>
            </Position>
            <AltitudeMeters>68.1999969482421875</AltitudeMeters>
            <DistanceMeters>NAN</DistanceMeters>
          </Trackpoint>
          <Trackpoint>
            <Time>2021-08-10T13:15:18.000Z</Time>
            <Position>
              <LatitudeDegrees>43.2481850869953632354736328125</LatitudeDegrees>
              <LongitudeDegrees>-1.67157453484833240509033203125</LongitudeDegrees>
            </Position>
            <AltitudeMeters>68.1999969482421875</AltitudeMeters>
            <DistanceMeters>NAN</DistanceMeters>
          </Trackpoint>
          <Trackpoint>
            <Time>2021-08-10T13:15:19.000Z</Time>
            <Position>
              <LatitudeDegrees>43.24821534566581249237060546875</LatitudeDegrees>
              <LongitudeDegrees>-1.67160688899457454681396484375</LongitudeDegrees>
            </Position>
            <AltitudeMeters>68.1999969482421875</AltitudeMeters>
            <DistanceMeters>NAN</DistanceMeters>
          </Trackpoint>
          <Trackpoint>
            <Time>2021-08-10T13:15:20.000Z</Time>
            <Position>
              <LatitudeDegrees>43.24824635870754718780517578125</LatitudeDegrees>
              <LongitudeDegrees>-1.6716423444449901580810546875</LongitudeDegrees>
            </Position>
            <AltitudeMeters>68.1999969482421875</AltitudeMeters>
            <DistanceMeters>NAN</DistanceMeters>
          </Trackpoint>
          <Trackpoint>
            <Time>2021-08-10T13:15:21.000Z</Time>
            <Position>
              <LatitudeDegrees>43.24827703647315502166748046875</LatitudeDegrees>
              <LongitudeDegrees>-1.67167142964899539947509765625</LongitudeDegrees>
            </Position>
            <AltitudeMeters>68.1999969482421875</AltitudeMeters>
            <DistanceMeters>NAN</DistanceMeters>
          </Trackpoint>
          <Trackpoint>
            <Time>2021-08-10T13:15:22.000Z</Time>
            <Position>
              <LatitudeDegrees>43.24831056408584117889404296875</LatitudeDegrees>
              <LongitudeDegrees>-1.6716956533491611480712890625</LongitudeDegrees>
            </Position>
            <AltitudeMeters>68.40000152587890625</AltitudeMeters>
            <DistanceMeters>NAN</DistanceMeters>
          </Trackpoint>
          <Trackpoint>
            <Time>2021-08-10T13:15:23.000Z</Time>
            <Position>
              <LatitudeDegrees>43.2483336143195629119873046875</LatitudeDegrees>
              <LongitudeDegrees>-1.6717229783535003662109375</LongitudeDegrees>
            </Position>
            <AltitudeMeters>68.40000152587890625</AltitudeMeters>
            <DistanceMeters>NAN</DistanceMeters>
          </Trackpoint>
          <Trackpoint>
            <Time>2021-08-10T13:15:24.000Z</Time>
            <Position>
              <LatitudeDegrees>43.2483547367155551910400390625</LatitudeDegrees>
              <LongitudeDegrees>-1.6717519797384738922119140625</LongitudeDegrees>
            </Position>
            <AltitudeMeters>68.40000152587890625</AltitudeMeters>
            <DistanceMeters>NAN</DistanceMeters>
          </Trackpoint>
          <Trackpoint>
            <Time>2021-08-10T13:15:25.000Z</Time>
            <Position>
              <LatitudeDegrees>43.24837460182607173919677734375</LatitudeDegrees>
              <LongitudeDegrees>-1.67178726755082607269287109375</LongitudeDegrees>
            </Position>
            <AltitudeMeters>68.40000152587890625</AltitudeMeters>
            <DistanceMeters>NAN</DistanceMeters>
          </Trackpoint>
          <Trackpoint>
            <Time>2021-08-10T13:15:29.000Z</Time>
            <Position>
              <LatitudeDegrees>43.24851223267614841461181640625</LatitudeDegrees>
              <LongitudeDegrees>-1.67194359004497528076171875</LongitudeDegrees>
            </Position>
            <AltitudeMeters>68.59999847412109375</AltitudeMeters>
            <DistanceMeters>NAN</DistanceMeters>
          </Trackpoint>
          <Trackpoint>
            <Time>2021-08-10T13:15:33.000Z</Time>
            <Position>
              <LatitudeDegrees>43.2486316747963428497314453125</LatitudeDegrees>
              <LongitudeDegrees>-1.672110892832279205322265625</LongitudeDegrees>
            </Position>
            <AltitudeMeters>68.59999847412109375</AltitudeMeters>
            <DistanceMeters>NAN</DistanceMeters>
          </Trackpoint>
          <Trackpoint>
            <Time>2021-08-10T13:15:34.000Z</Time>
            <Position>
              <LatitudeDegrees>43.24866025708615779876708984375</LatitudeDegrees>
              <LongitudeDegrees>-1.6721492819488048553466796875</LongitudeDegrees>
            </Position>
            <AltitudeMeters>69</AltitudeMeters>
            <DistanceMeters>NAN</DistanceMeters>
          </Trackpoint>
          <Trackpoint>
            <Time>2021-08-10T13:15:36.000Z</Time>
            <Position>
              <LatitudeDegrees>43.248732425272464752197265625</LatitudeDegrees>
              <LongitudeDegrees>-1.67222882620990276336669921875</LongitudeDegrees>
            </Position>
            <AltitudeMeters>69.1999969482421875</AltitudeMeters>
            <DistanceMeters>NAN</DistanceMeters>
          </Trackpoint>
          <Trackpoint>
            <Time>2021-08-10T13:15:39.000Z</Time>
            <Position>
              <LatitudeDegrees>43.2488425634801387786865234375</LatitudeDegrees>
              <LongitudeDegrees>-1.6723474301397800445556640625</LongitudeDegrees>
            </Position>
            <AltitudeMeters>69.59999847412109375</AltitudeMeters>
            <DistanceMeters>NAN</DistanceMeters>
          </Trackpoint>
          <Trackpoint>
            <Time>2021-08-10T13:15:40.000Z</Time>
            <Position>
              <LatitudeDegrees>43.2488881610333919525146484375</LatitudeDegrees>
              <LongitudeDegrees>-1.6723712347447872161865234375</LongitudeDegrees>
            </Position>
            <AltitudeMeters>69.59999847412109375</AltitudeMeters>
            <DistanceMeters>NAN</DistanceMeters>
          </Trackpoint>
          <Trackpoint>
            <Time>2021-08-10T13:15:41.000Z</Time>
            <Position>
              <LatitudeDegrees>43.24894373305141925811767578125</LatitudeDegrees>
              <LongitudeDegrees>-1.6723993979394435882568359375</LongitudeDegrees>
            </Position>
            <AltitudeMeters>69.59999847412109375</AltitudeMeters>
            <DistanceMeters>NAN</DistanceMeters>
          </Trackpoint>
          <Trackpoint>
            <Time>2021-08-10T13:15:42.000Z</Time>
            <Position>
              <LatitudeDegrees>43.24897843413054943084716796875</LatitudeDegrees>
              <LongitudeDegrees>-1.6724391281604766845703125</LongitudeDegrees>
            </Position>
            <AltitudeMeters>69.59999847412109375</AltitudeMeters>
            <DistanceMeters>NAN</DistanceMeters>
          </Trackpoint>
          <Trackpoint>
            <Time>2021-08-10T13:15:44.000Z</Time>
            <Position>
              <LatitudeDegrees>43.24906979687511920928955078125</LatitudeDegrees>
              <LongitudeDegrees>-1.67250408791005611419677734375</LongitudeDegrees>
            </Position>
            <AltitudeMeters>69.59999847412109375</AltitudeMeters>
            <DistanceMeters>NAN</DistanceMeters>
          </Trackpoint>
          <Trackpoint>
            <Time>2021-08-10T13:15:50.000Z</Time>
            <Position>
              <LatitudeDegrees>43.2493391074240207672119140625</LatitudeDegrees>
              <LongitudeDegrees>-1.67269192636013031005859375</LongitudeDegrees>
            </Position>
            <AltitudeMeters>69.40000152587890625</AltitudeMeters>
            <DistanceMeters>NAN</DistanceMeters>
          </Trackpoint>
          <Trackpoint>
            <Time>2021-08-10T13:15:51.000Z</Time>
            <Position>
              <LatitudeDegrees>43.24938562698662281036376953125</LatitudeDegrees>
              <LongitudeDegrees>-1.67274900712072849273681640625</LongitudeDegrees>
            </Position>
            <AltitudeMeters>69.40000152587890625</AltitudeMeters>
            <DistanceMeters>NAN</DistanceMeters>
          </Trackpoint>
          <Trackpoint>
            <Time>2021-08-10T13:15:54.000Z</Time>
            <Position>
              <LatitudeDegrees>43.2495298795402050018310546875</LatitudeDegrees>
              <LongitudeDegrees>-1.67291798628866672515869140625</LongitudeDegrees>
            </Position>
            <AltitudeMeters>69</AltitudeMeters>
            <DistanceMeters>NAN</DistanceMeters>
          </Trackpoint>
          <Trackpoint>
            <Time>2021-08-10T13:15:55.000Z</Time>
            <Position>
              <LatitudeDegrees>43.2495654188096523284912109375</LatitudeDegrees>
              <LongitudeDegrees>-1.6729774139821529388427734375</LongitudeDegrees>
            </Position>
            <AltitudeMeters>68.8000030517578125</AltitudeMeters>
            <DistanceMeters>NAN</DistanceMeters>
          </Trackpoint>
          <Trackpoint>
            <Time>2021-08-10T13:15:57.000Z</Time>
            <Position>
              <LatitudeDegrees>43.2496274448931217193603515625</LatitudeDegrees>
              <LongitudeDegrees>-1.67309350334107875823974609375</LongitudeDegrees>
            </Position>
            <AltitudeMeters>68.59999847412109375</AltitudeMeters>
            <DistanceMeters>NAN</DistanceMeters>
          </Trackpoint>
          <Trackpoint>
            <Time>2021-08-10T13:15:58.000Z</Time>
            <Position>
              <LatitudeDegrees>43.24966013431549072265625</LatitudeDegrees>
              <LongitudeDegrees>-1.67314832098782062530517578125</LongitudeDegrees>
            </Position>
            <AltitudeMeters>68.40000152587890625</AltitudeMeters>
            <DistanceMeters>NAN</DistanceMeters>
          </Trackpoint>
          <Trackpoint>
            <Time>2021-08-10T13:16:01.000Z</Time>
            <Position>
              <LatitudeDegrees>43.249773122370243072509765625</LatitudeDegrees>
              <LongitudeDegrees>-1.67329383082687854766845703125</LongitudeDegrees>
            </Position>
            <AltitudeMeters>68</AltitudeMeters>
            <DistanceMeters>NAN</DistanceMeters>
          </Trackpoint>
          <Trackpoint>
            <Time>2021-08-10T13:16:02.000Z</Time>
            <Position>
              <LatitudeDegrees>43.24981008656322956085205078125</LatitudeDegrees>
              <LongitudeDegrees>-1.67334328405559062957763671875</LongitudeDegrees>
            </Position>
            <AltitudeMeters>67.8000030517578125</AltitudeMeters>
            <DistanceMeters>NAN</DistanceMeters>
          </Trackpoint>
          <Trackpoint>
            <Time>2021-08-10T13:16:04.000Z</Time>
            <Position>
              <LatitudeDegrees>43.24988619424402713775634765625</LatitudeDegrees>
              <LongitudeDegrees>-1.673437915742397308349609375</LongitudeDegrees>
            </Position>
            <AltitudeMeters>67.59999847412109375</AltitudeMeters>
            <DistanceMeters>NAN</DistanceMeters>
          </Trackpoint>
          <Trackpoint>
            <Time>2021-08-10T13:16:06.000Z</Time>
            <Position>
              <LatitudeDegrees>43.24996129609644412994384765625</LatitudeDegrees>
              <LongitudeDegrees>-1.6735423542559146881103515625</LongitudeDegrees>
            </Position>
            <AltitudeMeters>67.40000152587890625</AltitudeMeters>
            <DistanceMeters>NAN</DistanceMeters>
          </Trackpoint>
          <Trackpoint>
            <Time>2021-08-10T13:16:08.000Z</Time>
            <Position>
              <LatitudeDegrees>43.25003840960562229156494140625</LatitudeDegrees>
              <LongitudeDegrees>-1.67364151217043399810791015625</LongitudeDegrees>
            </Position>
            <AltitudeMeters>67.1999969482421875</AltitudeMeters>
            <DistanceMeters>NAN</DistanceMeters>
          </Trackpoint>
          <Trackpoint>
            <Time>2021-08-10T13:16:09.000Z</Time>
            <Position>
              <LatitudeDegrees>43.2500783912837505340576171875</LatitudeDegrees>
              <LongitudeDegrees>-1.67369239032268524169921875</LongitudeDegrees>
            </Position>
            <AltitudeMeters>67</AltitudeMeters>
            <DistanceMeters>NAN</DistanceMeters>
          </Trackpoint>
          <Trackpoint>
            <Time>2021-08-10T13:16:10.000Z</Time>
            <Position>
              <LatitudeDegrees>43.25012139044702053070068359375</LatitudeDegrees>
              <LongitudeDegrees>-1.6737435199320316314697265625</LongitudeDegrees>
            </Position>
            <AltitudeMeters>66.8000030517578125</AltitudeMeters>
            <DistanceMeters>NAN</DistanceMeters>
          </Trackpoint>
          <Trackpoint>
            <Time>2021-08-10T13:16:11.000Z</Time>
            <Position>
              <LatitudeDegrees>43.25016296468675136566162109375</LatitudeDegrees>
              <LongitudeDegrees>-1.67379439808428287506103515625</LongitudeDegrees>
            </Position>
            <AltitudeMeters>66.8000030517578125</AltitudeMeters>
            <DistanceMeters>NAN</DistanceMeters>
          </Trackpoint>
          <Trackpoint>
            <Time>2021-08-10T13:16:13.000Z</Time>
            <Position>
              <LatitudeDegrees>43.250235803425312042236328125</LatitudeDegrees>
              <LongitudeDegrees>-1.673899926245212554931640625</LongitudeDegrees>
            </Position>
            <AltitudeMeters>66.59999847412109375</AltitudeMeters>
            <DistanceMeters>NAN</DistanceMeters>
          </Trackpoint>
          <Trackpoint>
            <Time>2021-08-10T13:16:14.000Z</Time>
            <Position>
              <LatitudeDegrees>43.25025768019258975982666015625</LatitudeDegrees>
              <LongitudeDegrees>-1.673972345888614654541015625</LongitudeDegrees>
            </Position>
            <AltitudeMeters>66.40000152587890625</AltitudeMeters>
            <DistanceMeters>NAN</DistanceMeters>
          </Trackpoint>
          <Trackpoint>
            <Time>2021-08-10T13:16:15.000Z</Time>
            <Position>
              <LatitudeDegrees>43.25026723556220531463623046875</LatitudeDegrees>
              <LongitudeDegrees>-1.674047447741031646728515625</LongitudeDegrees>
            </Position>
            <AltitudeMeters>66.1999969482421875</AltitudeMeters>
            <DistanceMeters>NAN</DistanceMeters>
          </Trackpoint>
          <Trackpoint>
            <Time>2021-08-10T13:16:16.000Z</Time>
            <Position>
              <LatitudeDegrees>43.25027628801763057708740234375</LatitudeDegrees>
              <LongitudeDegrees>-1.6741062887012958526611328125</LongitudeDegrees>
            </Position>
            <AltitudeMeters>66</AltitudeMeters>
            <DistanceMeters>NAN</DistanceMeters>
          </Trackpoint>
          <Trackpoint>
            <Time>2021-08-10T13:16:17.000Z</Time>
            <Position>
              <LatitudeDegrees>43.2502772100269794464111328125</LatitudeDegrees>
              <LongitudeDegrees>-1.67412154376506805419921875</LongitudeDegrees>
            </Position>
            <AltitudeMeters>66</AltitudeMeters>
            <DistanceMeters>NAN</DistanceMeters>
          </Trackpoint>
          <Trackpoint>
            <Time>2021-08-10T13:16:21.000Z</Time>
            <Position>
              <LatitudeDegrees>43.25020588003098964691162109375</LatitudeDegrees>
              <LongitudeDegrees>-1.67431524954736232757568359375</LongitudeDegrees>
            </Position>
            <AltitudeMeters>65.40000152587890625</AltitudeMeters>
            <DistanceMeters>NAN</DistanceMeters>
          </Trackpoint>
          <Trackpoint>
            <Time>2021-08-10T13:16:22.000Z</Time>
            <Position>
              <LatitudeDegrees>43.25015625916421413421630859375</LatitudeDegrees>
              <LongitudeDegrees>-1.6744237951934337615966796875</LongitudeDegrees>
            </Position>
            <AltitudeMeters>65.40000152587890625</AltitudeMeters>
            <DistanceMeters>NAN</DistanceMeters>
          </Trackpoint>
          <Trackpoint>
            <Time>2021-08-10T13:16:23.000Z</Time>
            <Position>
              <LatitudeDegrees>43.2501605339348316192626953125</LatitudeDegrees>
              <LongitudeDegrees>-1.67446545325219631195068359375</LongitudeDegrees>
            </Position>
            <AltitudeMeters>65.40000152587890625</AltitudeMeters>
            <DistanceMeters>NAN</DistanceMeters>
          </Trackpoint>
          <Trackpoint>
            <Time>2021-08-10T13:16:24.000Z</Time>
            <Position>
              <LatitudeDegrees>43.2501655630767345428466796875</LatitudeDegrees>
              <LongitudeDegrees>-1.67451658286154270172119140625</LongitudeDegrees>
            </Position>
            <AltitudeMeters>65.40000152587890625</AltitudeMeters>
            <DistanceMeters>NAN</DistanceMeters>
          </Trackpoint>
          <Trackpoint>
            <Time>2021-08-10T13:16:25.000Z</Time>
            <Position>
              <LatitudeDegrees>43.25017436407506465911865234375</LatitudeDegrees>
              <LongitudeDegrees>-1.67455715127289295196533203125</LongitudeDegrees>
            </Position>
            <AltitudeMeters>65.40000152587890625</AltitudeMeters>
            <DistanceMeters>NAN</DistanceMeters>
          </Trackpoint>
          <Trackpoint>
            <Time>2021-08-10T13:16:26.000Z</Time>
            <Position>
              <LatitudeDegrees>43.25018308125436305999755859375</LatitudeDegrees>
              <LongitudeDegrees>-1.67459201999008655548095703125</LongitudeDegrees>
            </Position>
            <AltitudeMeters>65.40000152587890625</AltitudeMeters>
            <DistanceMeters>NAN</DistanceMeters>
          </Trackpoint>
          <Trackpoint>
            <Time>2021-08-10T13:16:27.000Z</Time>
            <Position>
              <LatitudeDegrees>43.25019028969109058380126953125</LatitudeDegrees>
              <LongitudeDegrees>-1.67463024146854877471923828125</LongitudeDegrees>
            </Position>
            <AltitudeMeters>65.40000152587890625</AltitudeMeters>
            <DistanceMeters>NAN</DistanceMeters>
          </Trackpoint>
          <Trackpoint>
            <Time>2021-08-10T13:16:28.000Z</Time>
            <Position>
              <LatitudeDegrees>43.25019992887973785400390625</LatitudeDegrees>
              <LongitudeDegrees>-1.674670390784740447998046875</LongitudeDegrees>
            </Position>
            <AltitudeMeters>65.8000030517578125</AltitudeMeters>
            <DistanceMeters>NAN</DistanceMeters>
          </Trackpoint>
          <Trackpoint>
            <Time>2021-08-10T13:16:32.000Z</Time>
            <Position>
              <LatitudeDegrees>43.25023613870143890380859375</LatitudeDegrees>
              <LongitudeDegrees>-1.6748757474124431610107421875</LongitudeDegrees>
            </Position>
            <AltitudeMeters>65.8000030517578125</AltitudeMeters>
            <DistanceMeters>NAN</DistanceMeters>
          </Trackpoint>
          <Trackpoint>
            <Time>2021-08-10T13:16:35.000Z</Time>
            <Position>
              <LatitudeDegrees>43.25027025304734706878662109375</LatitudeDegrees>
              <LongitudeDegrees>-1.6750427149236202239990234375</LongitudeDegrees>
            </Position>
            <AltitudeMeters>66.1999969482421875</AltitudeMeters>
            <DistanceMeters>NAN</DistanceMeters>
          </Trackpoint>
          <Trackpoint>
            <Time>2021-08-10T13:16:39.000Z</Time>
            <Position>
              <LatitudeDegrees>43.25030847452580928802490234375</LatitudeDegrees>
              <LongitudeDegrees>-1.67525553144514560699462890625</LongitudeDegrees>
            </Position>
            <AltitudeMeters>66.40000152587890625</AltitudeMeters>
            <DistanceMeters>NAN</DistanceMeters>
          </Trackpoint>
          <Trackpoint>
            <Time>2021-08-10T13:16:41.000Z</Time>
            <Position>
              <LatitudeDegrees>43.25031283311545848846435546875</LatitudeDegrees>
              <LongitudeDegrees>-1.67534463107585906982421875</LongitudeDegrees>
            </Position>
            <AltitudeMeters>66.59999847412109375</AltitudeMeters>
            <DistanceMeters>NAN</DistanceMeters>
          </Trackpoint>
          <Trackpoint>
            <Time>2021-08-10T13:16:42.000Z</Time>
            <Position>
              <LatitudeDegrees>43.25031853280961513519287109375</LatitudeDegrees>
              <LongitudeDegrees>-1.67537656612694263458251953125</LongitudeDegrees>
            </Position>
            <AltitudeMeters>66.59999847412109375</AltitudeMeters>
            <DistanceMeters>NAN</DistanceMeters>
          </Trackpoint>
          <Trackpoint>
            <Time>2021-08-10T13:16:43.000Z</Time>
            <Position>
              <LatitudeDegrees>43.25032406486570835113525390625</LatitudeDegrees>
              <LongitudeDegrees>-1.67541244067251682281494140625</LongitudeDegrees>
            </Position>
            <AltitudeMeters>66.59999847412109375</AltitudeMeters>
            <DistanceMeters>NAN</DistanceMeters>
          </Trackpoint>
          <Trackpoint>
            <Time>2021-08-10T13:16:44.000Z</Time>
            <Position>
              <LatitudeDegrees>43.25033244676887989044189453125</LatitudeDegrees>
              <LongitudeDegrees>-1.6754490695893764495849609375</LongitudeDegrees>
            </Position>
            <AltitudeMeters>66.8000030517578125</AltitudeMeters>
            <DistanceMeters>NAN</DistanceMeters>
          </Trackpoint>
          <Trackpoint>
            <Time>2021-08-10T13:16:46.000Z</Time>
            <Position>
              <LatitudeDegrees>43.2503476180136203765869140625</LatitudeDegrees>
              <LongitudeDegrees>-1.6755288653075695037841796875</LongitudeDegrees>
            </Position>
            <AltitudeMeters>66.8000030517578125</AltitudeMeters>
            <DistanceMeters>NAN</DistanceMeters>
          </Trackpoint>
          <Trackpoint>
            <Time>2021-08-10T13:16:49.000Z</Time>
            <Position>
              <LatitudeDegrees>43.2503722608089447021484375</LatitudeDegrees>
              <LongitudeDegrees>-1.675680242478847503662109375</LongitudeDegrees>
            </Position>
            <AltitudeMeters>67</AltitudeMeters>
            <DistanceMeters>NAN</DistanceMeters>
          </Trackpoint>
          <Trackpoint>
            <Time>2021-08-10T13:16:52.000Z</Time>
            <Position>
              <LatitudeDegrees>43.25037385337054729461669921875</LatitudeDegrees>
              <LongitudeDegrees>-1.675845198333263397216796875</LongitudeDegrees>
            </Position>
            <AltitudeMeters>67.1999969482421875</AltitudeMeters>
            <DistanceMeters>NAN</DistanceMeters>
          </Trackpoint>
          <Trackpoint>
            <Time>2021-08-10T13:16:53.000Z</Time>
            <Position>
              <LatitudeDegrees>43.250379972159862518310546875</LatitudeDegrees>
              <LongitudeDegrees>-1.6759023629128932952880859375</LongitudeDegrees>
            </Position>
            <AltitudeMeters>67.1999969482421875</AltitudeMeters>
            <DistanceMeters>NAN</DistanceMeters>
          </Trackpoint>
          <Trackpoint>
            <Time>2021-08-10T13:16:57.000Z</Time>
            <Position>
              <LatitudeDegrees>43.2504160143435001373291015625</LatitudeDegrees>
              <LongitudeDegrees>-1.67614367790520191192626953125</LongitudeDegrees>
            </Position>
            <AltitudeMeters>67.1999969482421875</AltitudeMeters>
            <DistanceMeters>NAN</DistanceMeters>
          </Trackpoint>
          <Trackpoint>
            <Time>2021-08-10T13:17:05.000Z</Time>
            <Position>
              <LatitudeDegrees>43.250491954386234283447265625</LatitudeDegrees>
              <LongitudeDegrees>-1.67660904116928577423095703125</LongitudeDegrees>
            </Position>
            <AltitudeMeters>67.40000152587890625</AltitudeMeters>
            <DistanceMeters>NAN</DistanceMeters>
          </Trackpoint>
          <Trackpoint>
            <Time>2021-08-10T13:17:06.000Z</Time>
            <Position>
              <LatitudeDegrees>43.25050301849842071533203125</LatitudeDegrees>
              <LongitudeDegrees>-1.67666167952120304107666015625</LongitudeDegrees>
            </Position>
            <AltitudeMeters>67.40000152587890625</AltitudeMeters>
            <DistanceMeters>NAN</DistanceMeters>
          </Trackpoint>
          <Trackpoint>
            <Time>2021-08-10T13:17:08.000Z</Time>
            <Position>
              <LatitudeDegrees>43.2505162619054317474365234375</LatitudeDegrees>
              <LongitudeDegrees>-1.67676377110183238983154296875</LongitudeDegrees>
            </Position>
            <AltitudeMeters>67.40000152587890625</AltitudeMeters>
            <DistanceMeters>NAN</DistanceMeters>
          </Trackpoint>
          <Trackpoint>
            <Time>2021-08-10T13:17:09.000Z</Time>
            <Position>
              <LatitudeDegrees>43.25052045285701751708984375</LatitudeDegrees>
              <LongitudeDegrees>-1.6768166609108448028564453125</LongitudeDegrees>
            </Position>
            <AltitudeMeters>67.40000152587890625</AltitudeMeters>
            <DistanceMeters>NAN</DistanceMeters>
          </Trackpoint>
          <Trackpoint>
            <Time>2021-08-10T13:17:10.000Z</Time>
            <Position>
              <LatitudeDegrees>43.25052305124700069427490234375</LatitudeDegrees>
              <LongitudeDegrees>-1.6768743284046649932861328125</LongitudeDegrees>
            </Position>
            <AltitudeMeters>67.40000152587890625</AltitudeMeters>
            <DistanceMeters>NAN</DistanceMeters>
          </Trackpoint>
          <Trackpoint>
            <Time>2021-08-10T13:17:11.000Z</Time>
            <Position>
              <LatitudeDegrees>43.25052992440760135650634765625</LatitudeDegrees>
              <LongitudeDegrees>-1.6769346781075000762939453125</LongitudeDegrees>
            </Position>
            <AltitudeMeters>67.1999969482421875</AltitudeMeters>
            <DistanceMeters>NAN</DistanceMeters>
          </Trackpoint>
          <Trackpoint>
            <Time>2021-08-10T13:17:12.000Z</Time>
            <Position>
              <LatitudeDegrees>43.2505385577678680419921875</LatitudeDegrees>
              <LongitudeDegrees>-1.67699594981968402862548828125</LongitudeDegrees>
            </Position>
            <AltitudeMeters>67.1999969482421875</AltitudeMeters>
            <DistanceMeters>NAN</DistanceMeters>
          </Trackpoint>
          <Trackpoint>
            <Time>2021-08-10T13:17:14.000Z</Time>
            <Position>
              <LatitudeDegrees>43.2505531422793865203857421875</LatitudeDegrees>
              <LongitudeDegrees>-1.67711296118795871734619140625</LongitudeDegrees>
            </Position>
            <AltitudeMeters>67.1999969482421875</AltitudeMeters>
            <DistanceMeters>NAN</DistanceMeters>
          </Trackpoint>
          <Trackpoint>
            <Time>2021-08-10T13:17:15.000Z</Time>
            <Position>
              <LatitudeDegrees>43.25056009925901889801025390625</LatitudeDegrees>
              <LongitudeDegrees>-1.67716777883470058441162109375</LongitudeDegrees>
            </Position>
            <AltitudeMeters>67.1999969482421875</AltitudeMeters>
            <DistanceMeters>NAN</DistanceMeters>
          </Trackpoint>
          <Trackpoint>
            <Time>2021-08-10T13:17:16.000Z</Time>
            <Position>
              <LatitudeDegrees>43.250569067895412445068359375</LatitudeDegrees>
              <LongitudeDegrees>-1.677221171557903289794921875</LongitudeDegrees>
            </Position>
            <AltitudeMeters>67.1999969482421875</AltitudeMeters>
            <DistanceMeters>NAN</DistanceMeters>
          </Trackpoint>
          <Trackpoint>
            <Time>2021-08-10T13:17:20.000Z</Time>
            <Position>
              <LatitudeDegrees>43.25061030685901641845703125</LatitudeDegrees>
              <LongitudeDegrees>-1.67747371830046176910400390625</LongitudeDegrees>
            </Position>
            <AltitudeMeters>67.1999969482421875</AltitudeMeters>
            <DistanceMeters>NAN</DistanceMeters>
          </Trackpoint>
          <Trackpoint>
            <Time>2021-08-10T13:17:23.000Z</Time>
            <Position>
              <LatitudeDegrees>43.25063637457787990570068359375</LatitudeDegrees>
              <LongitudeDegrees>-1.6776471398770809173583984375</LongitudeDegrees>
            </Position>
            <AltitudeMeters>67.1999969482421875</AltitudeMeters>
            <DistanceMeters>NAN</DistanceMeters>
          </Trackpoint>
          <Trackpoint>
            <Time>2021-08-10T13:17:24.000Z</Time>
            <Position>
              <LatitudeDegrees>43.25064257718622684478759765625</LatitudeDegrees>
              <LongitudeDegrees>-1.67770254425704479217529296875</LongitudeDegrees>
            </Position>
            <AltitudeMeters>67.1999969482421875</AltitudeMeters>
            <DistanceMeters>NAN</DistanceMeters>
          </Trackpoint>
          <Trackpoint>
            <Time>2021-08-10T13:17:25.000Z</Time>
            <Position>
              <LatitudeDegrees>43.2506497018039226531982421875</LatitudeDegrees>
              <LongitudeDegrees>-1.677753925323486328125</LongitudeDegrees>
            </Position>
            <AltitudeMeters>67.1999969482421875</AltitudeMeters>
            <DistanceMeters>NAN</DistanceMeters>
          </Trackpoint>
          <Trackpoint>
            <Time>2021-08-10T13:17:26.000Z</Time>
            <Position>
              <LatitudeDegrees>43.25065724551677703857421875</LatitudeDegrees>
              <LongitudeDegrees>-1.67780681513249874114990234375</LongitudeDegrees>
            </Position>
            <AltitudeMeters>67.1999969482421875</AltitudeMeters>
            <DistanceMeters>NAN</DistanceMeters>
          </Trackpoint>
          <Trackpoint>
            <Time>2021-08-10T13:17:27.000Z</Time>
            <Position>
              <LatitudeDegrees>43.25066537596285343170166015625</LatitudeDegrees>
              <LongitudeDegrees>-1.6778590343892574310302734375</LongitudeDegrees>
            </Position>
            <AltitudeMeters>67.1999969482421875</AltitudeMeters>
            <DistanceMeters>NAN</DistanceMeters>
          </Trackpoint>
          <Trackpoint>
            <Time>2021-08-10T13:17:28.000Z</Time>
            <Position>
              <LatitudeDegrees>43.250676356256008148193359375</LatitudeDegrees>
              <LongitudeDegrees>-1.677922904491424560546875</LongitudeDegrees>
            </Position>
            <AltitudeMeters>67.1999969482421875</AltitudeMeters>
            <DistanceMeters>NAN</DistanceMeters>
          </Trackpoint>
          <Trackpoint>
            <Time>2021-08-10T13:17:29.000Z</Time>
            <Position>
              <LatitudeDegrees>43.2506802119314670562744140625</LatitudeDegrees>
              <LongitudeDegrees>-1.67795844376087188720703125</LongitudeDegrees>
            </Position>
            <AltitudeMeters>67.40000152587890625</AltitudeMeters>
            <DistanceMeters>NAN</DistanceMeters>
          </Trackpoint>
          <Trackpoint>
            <Time>2021-08-10T13:17:30.000Z</Time>
            <Position>
              <LatitudeDegrees>43.25068063102662563323974609375</LatitudeDegrees>
              <LongitudeDegrees>-1.6779939830303192138671875</LongitudeDegrees>
            </Position>
            <AltitudeMeters>67.40000152587890625</AltitudeMeters>
            <DistanceMeters>NAN</DistanceMeters>
          </Trackpoint>
          <Trackpoint>
            <Time>2021-08-10T13:17:31.000Z</Time>
            <Position>
              <LatitudeDegrees>43.250683732330799102783203125</LatitudeDegrees>
              <LongitudeDegrees>-1.6780327074229717254638671875</LongitudeDegrees>
            </Position>
            <AltitudeMeters>67.40000152587890625</AltitudeMeters>
            <DistanceMeters>NAN</DistanceMeters>
          </Trackpoint>
          <Trackpoint>
            <Time>2021-08-10T13:17:33.000Z</Time>
            <Position>
              <LatitudeDegrees>43.25069672428071498870849609375</LatitudeDegrees>
              <LongitudeDegrees>-1.6781577654182910919189453125</LongitudeDegrees>
            </Position>
            <AltitudeMeters>67.40000152587890625</AltitudeMeters>
            <DistanceMeters>NAN</DistanceMeters>
          </Trackpoint>
          <Trackpoint>
            <Time>2021-08-10T13:17:36.000Z</Time>
            <Position>
              <LatitudeDegrees>43.25071617029607295989990234375</LatitudeDegrees>
              <LongitudeDegrees>-1.6783346235752105712890625</LongitudeDegrees>
            </Position>
            <AltitudeMeters>67.40000152587890625</AltitudeMeters>
            <DistanceMeters>NAN</DistanceMeters>
          </Trackpoint>
          <Trackpoint>
            <Time>2021-08-10T13:17:37.000Z</Time>
            <Position>
              <LatitudeDegrees>43.250730670988559722900390625</LatitudeDegrees>
              <LongitudeDegrees>-1.67837896384298801422119140625</LongitudeDegrees>
            </Position>
            <AltitudeMeters>67.59999847412109375</AltitudeMeters>
            <DistanceMeters>NAN</DistanceMeters>
          </Trackpoint>
          <Trackpoint>
            <Time>2021-08-10T13:17:38.000Z</Time>
            <Position>
              <LatitudeDegrees>43.2507378794252872467041015625</LatitudeDegrees>
              <LongitudeDegrees>-1.6784310154616832733154296875</LongitudeDegrees>
            </Position>
            <AltitudeMeters>67.59999847412109375</AltitudeMeters>
            <DistanceMeters>NAN</DistanceMeters>
          </Trackpoint>
          <Trackpoint>
            <Time>2021-08-10T13:17:39.000Z</Time>
            <Position>
              <LatitudeDegrees>43.2507429085671901702880859375</LatitudeDegrees>
              <LongitudeDegrees>-1.678462363779544830322265625</LongitudeDegrees>
            </Position>
            <AltitudeMeters>67.40000152587890625</AltitudeMeters>
            <DistanceMeters>NAN</DistanceMeters>
          </Trackpoint>
          <Trackpoint>
            <Time>2021-08-10T13:17:40.000Z</Time>
            <Position>
              <LatitudeDegrees>43.25074885971844196319580078125</LatitudeDegrees>
              <LongitudeDegrees>-1.678500585258007049560546875</LongitudeDegrees>
            </Position>
            <AltitudeMeters>67.40000152587890625</AltitudeMeters>
            <DistanceMeters>NAN</DistanceMeters>
          </Trackpoint>
          <Trackpoint>
            <Time>2021-08-10T13:17:41.000Z</Time>
            <Position>
              <LatitudeDegrees>43.2507553137838840484619140625</LatitudeDegrees>
              <LongitudeDegrees>-1.67854744009673595428466796875</LongitudeDegrees>
            </Position>
            <AltitudeMeters>67.40000152587890625</AltitudeMeters>
            <DistanceMeters>NAN</DistanceMeters>
          </Trackpoint>
          <Trackpoint>
            <Time>2021-08-10T13:17:42.000Z</Time>
            <Position>
              <LatitudeDegrees>43.250763528048992156982421875</LatitudeDegrees>
              <LongitudeDegrees>-1.678604520857334136962890625</LongitudeDegrees>
            </Position>
            <AltitudeMeters>67.40000152587890625</AltitudeMeters>
            <DistanceMeters>NAN</DistanceMeters>
          </Trackpoint>
          <Trackpoint>
            <Time>2021-08-10T13:17:43.000Z</Time>
            <Position>
              <LatitudeDegrees>43.25078188441693782806396484375</LatitudeDegrees>
              <LongitudeDegrees>-1.6786794550716876983642578125</LongitudeDegrees>
            </Position>
            <AltitudeMeters>67.40000152587890625</AltitudeMeters>
            <DistanceMeters>NAN</DistanceMeters>
          </Trackpoint>
          <Trackpoint>
            <Time>2021-08-10T13:17:48.000Z</Time>
            <Position>
              <LatitudeDegrees>43.2508337683975696563720703125</LatitudeDegrees>
              <LongitudeDegrees>-1.6790787689387798309326171875</LongitudeDegrees>
            </Position>
            <AltitudeMeters>67.40000152587890625</AltitudeMeters>
            <DistanceMeters>NAN</DistanceMeters>
          </Trackpoint>
          <Trackpoint>
            <Time>2021-08-10T13:17:54.000Z</Time>
            <Position>
              <LatitudeDegrees>43.2509571500122547149658203125</LatitudeDegrees>
              <LongitudeDegrees>-1.6794599778950214385986328125</LongitudeDegrees>
            </Position>
            <AltitudeMeters>67.1999969482421875</AltitudeMeters>
            <DistanceMeters>NAN</DistanceMeters>
          </Trackpoint>
          <Trackpoint>
            <Time>2021-08-10T13:18:03.000Z</Time>
            <Position>
              <LatitudeDegrees>43.25101808644831180572509765625</LatitudeDegrees>
              <LongitudeDegrees>-1.68000723235309123992919921875</LongitudeDegrees>
            </Position>
            <AltitudeMeters>67.40000152587890625</AltitudeMeters>
            <DistanceMeters>NAN</DistanceMeters>
          </Trackpoint>
          <Trackpoint>
            <Time>2021-08-10T13:18:06.000Z</Time>
            <Position>
              <LatitudeDegrees>43.25105899013578891754150390625</LatitudeDegrees>
              <LongitudeDegrees>-1.68017051182687282562255859375</LongitudeDegrees>
            </Position>
            <AltitudeMeters>67.40000152587890625</AltitudeMeters>
            <DistanceMeters>NAN</DistanceMeters>
          </Trackpoint>
          <Trackpoint>
            <Time>2021-08-10T13:18:07.000Z</Time>
            <Position>
              <LatitudeDegrees>43.25107441283762454986572265625</LatitudeDegrees>
              <LongitudeDegrees>-1.68022398836910724639892578125</LongitudeDegrees>
            </Position>
            <AltitudeMeters>67.1999969482421875</AltitudeMeters>
            <DistanceMeters>NAN</DistanceMeters>
          </Trackpoint>
          <Trackpoint>
            <Time>2021-08-10T13:18:08.000Z</Time>
            <Position>
              <LatitudeDegrees>43.25109452940523624420166015625</LatitudeDegrees>
              <LongitudeDegrees>-1.68027780018746852874755859375</LongitudeDegrees>
            </Position>
            <AltitudeMeters>67.1999969482421875</AltitudeMeters>
            <DistanceMeters>NAN</DistanceMeters>
          </Trackpoint>
          <Trackpoint>
            <Time>2021-08-10T13:18:09.000Z</Time>
            <Position>
              <LatitudeDegrees>43.2511143945157527923583984375</LatitudeDegrees>
              <LongitudeDegrees>-1.6803330369293689727783203125</LongitudeDegrees>
            </Position>
            <AltitudeMeters>67.1999969482421875</AltitudeMeters>
            <DistanceMeters>NAN</DistanceMeters>
          </Trackpoint>
          <Trackpoint>
            <Time>2021-08-10T13:18:11.000Z</Time>
            <Position>
              <LatitudeDegrees>43.251166529953479766845703125</LatitudeDegrees>
              <LongitudeDegrees>-1.68044996447861194610595703125</LongitudeDegrees>
            </Position>
            <AltitudeMeters>67.1999969482421875</AltitudeMeters>
            <DistanceMeters>NAN</DistanceMeters>
          </Trackpoint>
          <Trackpoint>
            <Time>2021-08-10T13:18:18.000Z</Time>
            <Position>
              <LatitudeDegrees>43.25137515552341938018798828125</LatitudeDegrees>
              <LongitudeDegrees>-1.68076671659946441650390625</LongitudeDegrees>
            </Position>
            <AltitudeMeters>67.1999969482421875</AltitudeMeters>
            <DistanceMeters>NAN</DistanceMeters>
          </Trackpoint>
          <Trackpoint>
            <Time>2021-08-10T13:18:19.000Z</Time>
            <Position>
              <LatitudeDegrees>43.25140834785997867584228515625</LatitudeDegrees>
              <LongitudeDegrees>-1.68080803938210010528564453125</LongitudeDegrees>
            </Position>
            <AltitudeMeters>67.1999969482421875</AltitudeMeters>
            <DistanceMeters>NAN</DistanceMeters>
          </Trackpoint>
          <Trackpoint>
            <Time>2021-08-10T13:18:21.000Z</Time>
            <Position>
              <LatitudeDegrees>43.2514731399714946746826171875</LatitudeDegrees>
              <LongitudeDegrees>-1.6808838956058025360107421875</LongitudeDegrees>
            </Position>
            <AltitudeMeters>67.1999969482421875</AltitudeMeters>
            <DistanceMeters>NAN</DistanceMeters>
          </Trackpoint>
          <Trackpoint>
            <Time>2021-08-10T13:18:24.000Z</Time>
            <Position>
              <LatitudeDegrees>43.25158285908401012420654296875</LatitudeDegrees>
              <LongitudeDegrees>-1.68095639906823635101318359375</LongitudeDegrees>
            </Position>
            <AltitudeMeters>67.1999969482421875</AltitudeMeters>
            <DistanceMeters>NAN</DistanceMeters>
          </Trackpoint>
          <Trackpoint>
            <Time>2021-08-10T13:18:25.000Z</Time>
            <Position>
              <LatitudeDegrees>43.25161940418183803558349609375</LatitudeDegrees>
              <LongitudeDegrees>-1.68097584508359432220458984375</LongitudeDegrees>
            </Position>
            <AltitudeMeters>67.1999969482421875</AltitudeMeters>
            <DistanceMeters>NAN</DistanceMeters>
          </Trackpoint>
          <Trackpoint>
            <Time>2021-08-10T13:18:26.000Z</Time>
            <Position>
              <LatitudeDegrees>43.25164496898651123046875</LatitudeDegrees>
              <LongitudeDegrees>-1.68100199662148952484130859375</LongitudeDegrees>
            </Position>
            <AltitudeMeters>67.1999969482421875</AltitudeMeters>
            <DistanceMeters>NAN</DistanceMeters>
          </Trackpoint>
          <Trackpoint>
            <Time>2021-08-10T13:18:27.000Z</Time>
            <Position>
              <LatitudeDegrees>43.25167120434343814849853515625</LatitudeDegrees>
              <LongitudeDegrees>-1.68103150092065334320068359375</LongitudeDegrees>
            </Position>
            <AltitudeMeters>67.1999969482421875</AltitudeMeters>
            <DistanceMeters>NAN</DistanceMeters>
          </Trackpoint>
          <Trackpoint>
            <Time>2021-08-10T13:18:28.000Z</Time>
            <Position>
              <LatitudeDegrees>43.25169735588133335113525390625</LatitudeDegrees>
              <LongitudeDegrees>-1.6810666210949420928955078125</LongitudeDegrees>
            </Position>
            <AltitudeMeters>67.40000152587890625</AltitudeMeters>
            <DistanceMeters>NAN</DistanceMeters>
          </Trackpoint>
          <Trackpoint>
            <Time>2021-08-10T13:18:29.000Z</Time>
            <Position>
              <LatitudeDegrees>43.25173909775912761688232421875</LatitudeDegrees>
              <LongitudeDegrees>-1.68108363635838031768798828125</LongitudeDegrees>
            </Position>
            <AltitudeMeters>67.40000152587890625</AltitudeMeters>
            <DistanceMeters>NAN</DistanceMeters>
          </Trackpoint>
          <Trackpoint>
            <Time>2021-08-10T13:18:30.000Z</Time>
            <Position>
              <LatitudeDegrees>43.2517812587320804595947265625</LatitudeDegrees>
              <LongitudeDegrees>-1.68110509403049945831298828125</LongitudeDegrees>
            </Position>
            <AltitudeMeters>67.40000152587890625</AltitudeMeters>
            <DistanceMeters>NAN</DistanceMeters>
          </Trackpoint>
          <Trackpoint>
            <Time>2021-08-10T13:18:36.000Z</Time>
            <Position>
              <LatitudeDegrees>43.25205710716545581817626953125</LatitudeDegrees>
              <LongitudeDegrees>-1.6811923496425151824951171875</LongitudeDegrees>
            </Position>
            <AltitudeMeters>67</AltitudeMeters>
            <DistanceMeters>NAN</DistanceMeters>
          </Trackpoint>
          <Trackpoint>
            <Time>2021-08-10T13:18:41.000Z</Time>
            <Position>
              <LatitudeDegrees>43.25230252929031848907470703125</LatitudeDegrees>
              <LongitudeDegrees>-1.681325621902942657470703125</LongitudeDegrees>
            </Position>
            <AltitudeMeters>67</AltitudeMeters>
            <DistanceMeters>NAN</DistanceMeters>
          </Trackpoint>
          <Trackpoint>
            <Time>2021-08-10T13:18:46.000Z</Time>
            <Position>
              <LatitudeDegrees>43.2525329478085041046142578125</LatitudeDegrees>
              <LongitudeDegrees>-1.6814287193119525909423828125</LongitudeDegrees>
            </Position>
            <AltitudeMeters>66.8000030517578125</AltitudeMeters>
            <DistanceMeters>NAN</DistanceMeters>
          </Trackpoint>
          <Trackpoint>
            <Time>2021-08-10T13:18:47.000Z</Time>
            <Position>
              <LatitudeDegrees>43.25259505771100521087646484375</LatitudeDegrees>
              <LongitudeDegrees>-1.68143383227288722991943359375</LongitudeDegrees>
            </Position>
            <AltitudeMeters>66.8000030517578125</AltitudeMeters>
            <DistanceMeters>NAN</DistanceMeters>
          </Trackpoint>
          <Trackpoint>
            <Time>2021-08-10T13:18:50.000Z</Time>
            <Position>
              <LatitudeDegrees>43.2527371309697628021240234375</LatitudeDegrees>
              <LongitudeDegrees>-1.6815051622688770294189453125</LongitudeDegrees>
            </Position>
            <AltitudeMeters>66.8000030517578125</AltitudeMeters>
            <DistanceMeters>NAN</DistanceMeters>
          </Trackpoint>
          <Trackpoint>
            <Time>2021-08-10T13:18:52.000Z</Time>
            <Position>
              <LatitudeDegrees>43.25285221450030803680419921875</LatitudeDegrees>
              <LongitudeDegrees>-1.68150834739208221435546875</LongitudeDegrees>
            </Position>
            <AltitudeMeters>66.8000030517578125</AltitudeMeters>
            <DistanceMeters>NAN</DistanceMeters>
          </Trackpoint>
          <Trackpoint>
            <Time>2021-08-10T13:18:53.000Z</Time>
            <Position>
              <LatitudeDegrees>43.2529091276228427886962890625</LatitudeDegrees>
              <LongitudeDegrees>-1.6815051622688770294189453125</LongitudeDegrees>
            </Position>
            <AltitudeMeters>66.8000030517578125</AltitudeMeters>
            <DistanceMeters>NAN</DistanceMeters>
          </Trackpoint>
          <Trackpoint>
            <Time>2021-08-10T13:18:54.000Z</Time>
            <Position>
              <LatitudeDegrees>43.25294760055840015411376953125</LatitudeDegrees>
              <LongitudeDegrees>-1.68152435682713985443115234375</LongitudeDegrees>
            </Position>
            <AltitudeMeters>66.8000030517578125</AltitudeMeters>
            <DistanceMeters>NAN</DistanceMeters>
          </Trackpoint>
          <Trackpoint>
            <Time>2021-08-10T13:18:56.000Z</Time>
            <Position>
              <LatitudeDegrees>43.2530398853123188018798828125</LatitudeDegrees>
              <LongitudeDegrees>-1.68155184946954250335693359375</LongitudeDegrees>
            </Position>
            <AltitudeMeters>66.8000030517578125</AltitudeMeters>
            <DistanceMeters>NAN</DistanceMeters>
          </Trackpoint>
          <Trackpoint>
            <Time>2021-08-10T13:18:57.000Z</Time>
            <Position>
              <LatitudeDegrees>43.253091685473918914794921875</LatitudeDegrees>
              <LongitudeDegrees>-1.68154832907021045684814453125</LongitudeDegrees>
            </Position>
            <AltitudeMeters>66.8000030517578125</AltitudeMeters>
            <DistanceMeters>NAN</DistanceMeters>
          </Trackpoint>
          <Trackpoint>
            <Time>2021-08-10T13:18:59.000Z</Time>
            <Position>
              <LatitudeDegrees>43.253186233341693878173828125</LatitudeDegrees>
              <LongitudeDegrees>-1.6815638355910778045654296875</LongitudeDegrees>
            </Position>
            <AltitudeMeters>66.8000030517578125</AltitudeMeters>
            <DistanceMeters>NAN</DistanceMeters>
          </Trackpoint>
          <Trackpoint>
            <Time>2021-08-10T13:19:00.000Z</Time>
            <Position>
              <LatitudeDegrees>43.25325739569962024688720703125</LatitudeDegrees>
              <LongitudeDegrees>-1.68154816143214702606201171875</LongitudeDegrees>
            </Position>
            <AltitudeMeters>66.8000030517578125</AltitudeMeters>
            <DistanceMeters>NAN</DistanceMeters>
          </Trackpoint>
          <Trackpoint>
            <Time>2021-08-10T13:19:01.000Z</Time>
            <Position>
              <LatitudeDegrees>43.25329796411097049713134765625</LatitudeDegrees>
              <LongitudeDegrees>-1.68155922554433345794677734375</LongitudeDegrees>
            </Position>
            <AltitudeMeters>66.8000030517578125</AltitudeMeters>
            <DistanceMeters>NAN</DistanceMeters>
          </Trackpoint>
          <Trackpoint>
            <Time>2021-08-10T13:19:02.000Z</Time>
            <Position>
              <LatitudeDegrees>43.2533312402665615081787109375</LatitudeDegrees>
              <LongitudeDegrees>-1.68156542815268039703369140625</LongitudeDegrees>
            </Position>
            <AltitudeMeters>66.8000030517578125</AltitudeMeters>
            <DistanceMeters>NAN</DistanceMeters>
          </Trackpoint>
          <Trackpoint>
            <Time>2021-08-10T13:19:04.000Z</Time>
            <Position>
              <LatitudeDegrees>43.2534653507173061370849609375</LatitudeDegrees>
              <LongitudeDegrees>-1.68153273873031139373779296875</LongitudeDegrees>
            </Position>
            <AltitudeMeters>66.59999847412109375</AltitudeMeters>
            <DistanceMeters>NAN</DistanceMeters>
          </Trackpoint>
          <Trackpoint>
            <Time>2021-08-10T13:19:05.000Z</Time>
            <Position>
              <LatitudeDegrees>43.25351572595536708831787109375</LatitudeDegrees>
              <LongitudeDegrees>-1.68151999823749065399169921875</LongitudeDegrees>
            </Position>
            <AltitudeMeters>66.59999847412109375</AltitudeMeters>
            <DistanceMeters>NAN</DistanceMeters>
          </Trackpoint>
          <Trackpoint>
            <Time>2021-08-10T13:19:06.000Z</Time>
            <Position>
              <LatitudeDegrees>43.2535575516521930694580078125</LatitudeDegrees>
              <LongitudeDegrees>-1.68151379562914371490478515625</LongitudeDegrees>
            </Position>
            <AltitudeMeters>66.59999847412109375</AltitudeMeters>
            <DistanceMeters>NAN</DistanceMeters>
          </Trackpoint>
          <Trackpoint>
            <Time>2021-08-10T13:19:07.000Z</Time>
            <Position>
              <LatitudeDegrees>43.25358747504651546478271484375</LatitudeDegrees>
              <LongitudeDegrees>-1.68151438236236572265625</LongitudeDegrees>
            </Position>
            <AltitudeMeters>66.59999847412109375</AltitudeMeters>
            <DistanceMeters>NAN</DistanceMeters>
          </Trackpoint>
          <Trackpoint>
            <Time>2021-08-10T13:19:08.000Z</Time>
            <Position>
              <LatitudeDegrees>43.253632150590419769287109375</LatitudeDegrees>
              <LongitudeDegrees>-1.68151597492396831512451171875</LongitudeDegrees>
            </Position>
            <AltitudeMeters>66.59999847412109375</AltitudeMeters>
            <DistanceMeters>NAN</DistanceMeters>
          </Trackpoint>
          <Trackpoint>
            <Time>2021-08-10T13:19:09.000Z</Time>
            <Position>
              <LatitudeDegrees>43.25367615558207035064697265625</LatitudeDegrees>
              <LongitudeDegrees>-1.6815058328211307525634765625</LongitudeDegrees>
            </Position>
            <AltitudeMeters>66.40000152587890625</AltitudeMeters>
            <DistanceMeters>NAN</DistanceMeters>
          </Trackpoint>
          <Trackpoint>
            <Time>2021-08-10T13:19:12.000Z</Time>
            <Position>
              <LatitudeDegrees>43.25379819609224796295166015625</LatitudeDegrees>
              <LongitudeDegrees>-1.6815111972391605377197265625</LongitudeDegrees>
            </Position>
            <AltitudeMeters>66.40000152587890625</AltitudeMeters>
            <DistanceMeters>NAN</DistanceMeters>
          </Trackpoint>
          <Trackpoint>
            <Time>2021-08-10T13:19:16.000Z</Time>
            <Position>
              <LatitudeDegrees>43.2539441250264644622802734375</LatitudeDegrees>
              <LongitudeDegrees>-1.6815232671797275543212890625</LongitudeDegrees>
            </Position>
            <AltitudeMeters>66.40000152587890625</AltitudeMeters>
            <DistanceMeters>NAN</DistanceMeters>
          </Trackpoint>
          <Trackpoint>
            <Time>2021-08-10T13:19:17.000Z</Time>
            <Position>
              <LatitudeDegrees>43.2539883814752101898193359375</LatitudeDegrees>
              <LongitudeDegrees>-1.6815229319036006927490234375</LongitudeDegrees>
            </Position>
            <AltitudeMeters>66.40000152587890625</AltitudeMeters>
            <DistanceMeters>NAN</DistanceMeters>
          </Trackpoint>
          <Trackpoint>
            <Time>2021-08-10T13:19:18.000Z</Time>
            <Position>
              <LatitudeDegrees>43.254025764763355255126953125</LatitudeDegrees>
              <LongitudeDegrees>-1.68152284808456897735595703125</LongitudeDegrees>
            </Position>
            <AltitudeMeters>66.40000152587890625</AltitudeMeters>
            <DistanceMeters>NAN</DistanceMeters>
          </Trackpoint>
          <Trackpoint>
            <Time>2021-08-10T13:19:19.000Z</Time>
            <Position>
              <LatitudeDegrees>43.25405895709991455078125</LatitudeDegrees>
              <LongitudeDegrees>-1.68152309954166412353515625</LongitudeDegrees>
            </Position>
            <AltitudeMeters>66.40000152587890625</AltitudeMeters>
            <DistanceMeters>NAN</DistanceMeters>
          </Trackpoint>
          <Trackpoint>
            <Time>2021-08-10T13:19:20.000Z</Time>
            <Position>
              <LatitudeDegrees>43.2540903054177761077880859375</LatitudeDegrees>
              <LongitudeDegrees>-1.6815239377319812774658203125</LongitudeDegrees>
            </Position>
            <AltitudeMeters>66.40000152587890625</AltitudeMeters>
            <DistanceMeters>NAN</DistanceMeters>
          </Trackpoint>
          <Trackpoint>
            <Time>2021-08-10T13:19:21.000Z</Time>
            <Position>
              <LatitudeDegrees>43.254114948213100433349609375</LatitudeDegrees>
              <LongitudeDegrees>-1.68152444064617156982421875</LongitudeDegrees>
            </Position>
            <AltitudeMeters>66.1999969482421875</AltitudeMeters>
            <DistanceMeters>NAN</DistanceMeters>
          </Trackpoint>
          <Trackpoint>
            <Time>2021-08-10T13:19:24.000Z</Time>
            <Position>
              <LatitudeDegrees>43.254212848842144012451171875</LatitudeDegrees>
              <LongitudeDegrees>-1.68152251280844211578369140625</LongitudeDegrees>
            </Position>
            <AltitudeMeters>66.1999969482421875</AltitudeMeters>
            <DistanceMeters>NAN</DistanceMeters>
          </Trackpoint>
          <Trackpoint>
            <Time>2021-08-10T13:19:25.000Z</Time>
            <Position>
              <LatitudeDegrees>43.25424671173095703125</LatitudeDegrees>
              <LongitudeDegrees>-1.68153072707355022430419921875</LongitudeDegrees>
            </Position>
            <AltitudeMeters>66.1999969482421875</AltitudeMeters>
            <DistanceMeters>NAN</DistanceMeters>
          </Trackpoint>
          <Trackpoint>
            <Time>2021-08-10T13:19:26.000Z</Time>
            <Position>
              <LatitudeDegrees>43.2542706839740276336669921875</LatitudeDegrees>
              <LongitudeDegrees>-1.68154145590960979461669921875</LongitudeDegrees>
            </Position>
            <AltitudeMeters>66.1999969482421875</AltitudeMeters>
            <DistanceMeters>NAN</DistanceMeters>
          </Trackpoint>
          <Trackpoint>
            <Time>2021-08-10T13:19:27.000Z</Time>
            <Position>
              <LatitudeDegrees>43.25429004617035388946533203125</LatitudeDegrees>
              <LongitudeDegrees>-1.68154933489859104156494140625</LongitudeDegrees>
            </Position>
            <AltitudeMeters>66.1999969482421875</AltitudeMeters>
            <DistanceMeters>NAN</DistanceMeters>
          </Trackpoint>
          <Trackpoint>
            <Time>2021-08-10T13:19:28.000Z</Time>
            <Position>
              <LatitudeDegrees>43.25431049801409244537353515625</LatitudeDegrees>
              <LongitudeDegrees>-1.68155402876436710357666015625</LongitudeDegrees>
            </Position>
            <AltitudeMeters>66.1999969482421875</AltitudeMeters>
            <DistanceMeters>NAN</DistanceMeters>
          </Trackpoint>
          <Trackpoint>
            <Time>2021-08-10T13:19:29.000Z</Time>
            <Position>
              <LatitudeDegrees>43.25433396734297275543212890625</LatitudeDegrees>
              <LongitudeDegrees>-1.6815564595162868499755859375</LongitudeDegrees>
            </Position>
            <AltitudeMeters>66.1999969482421875</AltitudeMeters>
            <DistanceMeters>NAN</DistanceMeters>
          </Trackpoint>
          <Trackpoint>
            <Time>2021-08-10T13:19:30.000Z</Time>
            <Position>
              <LatitudeDegrees>43.2543565146625041961669921875</LatitudeDegrees>
              <LongitudeDegrees>-1.68156056664884090423583984375</LongitudeDegrees>
            </Position>
            <AltitudeMeters>66.40000152587890625</AltitudeMeters>
            <DistanceMeters>NAN</DistanceMeters>
          </Trackpoint>
          <Trackpoint>
            <Time>2021-08-10T13:19:31.000Z</Time>
            <Position>
              <LatitudeDegrees>43.25438082218170166015625</LatitudeDegrees>
              <LongitudeDegrees>-1.6815618239343166351318359375</LongitudeDegrees>
            </Position>
            <AltitudeMeters>66.40000152587890625</AltitudeMeters>
            <DistanceMeters>NAN</DistanceMeters>
          </Trackpoint>
          <Trackpoint>
            <Time>2021-08-10T13:19:33.000Z</Time>
            <Position>
              <LatitudeDegrees>43.25443111360073089599609375</LatitudeDegrees>
              <LongitudeDegrees>-1.68155930936336517333984375</LongitudeDegrees>
            </Position>
            <AltitudeMeters>66.40000152587890625</AltitudeMeters>
            <DistanceMeters>NAN</DistanceMeters>
          </Trackpoint>
          <Trackpoint>
            <Time>2021-08-10T13:19:34.000Z</Time>
            <Position>
              <LatitudeDegrees>43.25445500202476978302001953125</LatitudeDegrees>
              <LongitudeDegrees>-1.68155738152563571929931640625</LongitudeDegrees>
            </Position>
            <AltitudeMeters>66.40000152587890625</AltitudeMeters>
            <DistanceMeters>NAN</DistanceMeters>
          </Trackpoint>
          <Trackpoint>
            <Time>2021-08-10T13:19:35.000Z</Time>
            <Position>
              <LatitudeDegrees>43.2544721849262714385986328125</LatitudeDegrees>
              <LongitudeDegrees>-1.681554615497589111328125</LongitudeDegrees>
            </Position>
            <AltitudeMeters>66.59999847412109375</AltitudeMeters>
            <DistanceMeters>NAN</DistanceMeters>
          </Trackpoint>
          <Trackpoint>
            <Time>2021-08-10T13:19:36.000Z</Time>
            <Position>
              <LatitudeDegrees>43.25449121184647083282470703125</LatitudeDegrees>
              <LongitudeDegrees>-1.68154992163181304931640625</LongitudeDegrees>
            </Position>
            <AltitudeMeters>66.40000152587890625</AltitudeMeters>
            <DistanceMeters>NAN</DistanceMeters>
          </Trackpoint>
          <Trackpoint>
            <Time>2021-08-10T13:19:38.000Z</Time>
            <Position>
              <LatitudeDegrees>43.25452054850757122039794921875</LatitudeDegrees>
              <LongitudeDegrees>-1.6815470717847347259521484375</LongitudeDegrees>
            </Position>
            <AltitudeMeters>66.59999847412109375</AltitudeMeters>
            <DistanceMeters>NAN</DistanceMeters>
          </Trackpoint>
          <Trackpoint>
            <Time>2021-08-10T13:19:39.000Z</Time>
            <Position>
              <LatitudeDegrees>43.254525326192378997802734375</LatitudeDegrees>
              <LongitudeDegrees>-1.68154723942279815673828125</LongitudeDegrees>
            </Position>
            <AltitudeMeters>66.40000152587890625</AltitudeMeters>
            <DistanceMeters>NAN</DistanceMeters>
          </Trackpoint>
          <Trackpoint>
            <Time>2021-08-10T13:19:45.000Z</Time>
            <Position>
              <LatitudeDegrees>43.254528343677520751953125</LatitudeDegrees>
              <LongitudeDegrees>-1.68154162354767322540283203125</LongitudeDegrees>
            </Position>
            <AltitudeMeters>66.8000030517578125</AltitudeMeters>
            <DistanceMeters>NAN</DistanceMeters>
          </Trackpoint>
          <Trackpoint>
            <Time>2021-08-10T13:19:46.000Z</Time>
            <Position>
              <LatitudeDegrees>43.25453706085681915283203125</LatitudeDegrees>
              <LongitudeDegrees>-1.68152251280844211578369140625</LongitudeDegrees>
            </Position>
            <AltitudeMeters>66.8000030517578125</AltitudeMeters>
            <DistanceMeters>NAN</DistanceMeters>
          </Trackpoint>
          <Trackpoint>
            <Time>2021-08-10T13:19:47.000Z</Time>
            <Position>
              <LatitudeDegrees>43.25454636476933956146240234375</LatitudeDegrees>
              <LongitudeDegrees>-1.68150491081178188323974609375</LongitudeDegrees>
            </Position>
            <AltitudeMeters>66.8000030517578125</AltitudeMeters>
            <DistanceMeters>NAN</DistanceMeters>
          </Trackpoint>
          <Trackpoint>
            <Time>2021-08-10T13:19:48.000Z</Time>
            <Position>
              <LatitudeDegrees>43.25455575250089168548583984375</LatitudeDegrees>
              <LongitudeDegrees>-1.68149099685251712799072265625</LongitudeDegrees>
            </Position>
            <AltitudeMeters>66.8000030517578125</AltitudeMeters>
            <DistanceMeters>NAN</DistanceMeters>
          </Trackpoint>
          <Trackpoint>
            <Time>2021-08-10T13:19:49.000Z</Time>
            <Position>
              <LatitudeDegrees>43.25456966646015644073486328125</LatitudeDegrees>
              <LongitudeDegrees>-1.6814696229994297027587890625</LongitudeDegrees>
            </Position>
            <AltitudeMeters>66.8000030517578125</AltitudeMeters>
            <DistanceMeters>NAN</DistanceMeters>
          </Trackpoint>
          <Trackpoint>
            <Time>2021-08-10T13:19:50.000Z</Time>
            <Position>
              <LatitudeDegrees>43.25458374805748462677001953125</LatitudeDegrees>
              <LongitudeDegrees>-1.68144129216670989990234375</LongitudeDegrees>
            </Position>
            <AltitudeMeters>66.8000030517578125</AltitudeMeters>
            <DistanceMeters>NAN</DistanceMeters>
          </Trackpoint>
          <Trackpoint>
            <Time>2021-08-10T13:19:55.000Z</Time>
            <Position>
              <LatitudeDegrees>43.254688270390033721923828125</LatitudeDegrees>
              <LongitudeDegrees>-1.68127440847456455230712890625</LongitudeDegrees>
            </Position>
            <AltitudeMeters>66.59999847412109375</AltitudeMeters>
            <DistanceMeters>NAN</DistanceMeters>
          </Trackpoint>
          <Trackpoint>
            <Time>2021-08-10T13:19:56.000Z</Time>
            <Position>
              <LatitudeDegrees>43.25469673611223697662353515625</LatitudeDegrees>
              <LongitudeDegrees>-1.68123685754835605621337890625</LongitudeDegrees>
            </Position>
            <AltitudeMeters>66.59999847412109375</AltitudeMeters>
            <DistanceMeters>NAN</DistanceMeters>
          </Trackpoint>
          <Trackpoint>
            <Time>2021-08-10T13:19:57.000Z</Time>
            <Position>
              <LatitudeDegrees>43.25470075942575931549072265625</LatitudeDegrees>
              <LongitudeDegrees>-1.68120685033500194549560546875</LongitudeDegrees>
            </Position>
            <AltitudeMeters>66.59999847412109375</AltitudeMeters>
            <DistanceMeters>NAN</DistanceMeters>
          </Trackpoint>
          <Trackpoint>
            <Time>2021-08-10T13:19:58.000Z</Time>
            <Position>
              <LatitudeDegrees>43.2547082193195819854736328125</LatitudeDegrees>
              <LongitudeDegrees>-1.681187152862548828125</LongitudeDegrees>
            </Position>
            <AltitudeMeters>66.40000152587890625</AltitudeMeters>
            <DistanceMeters>NAN</DistanceMeters>
          </Trackpoint>
          <Trackpoint>
            <Time>2021-08-10T13:19:59.000Z</Time>
            <Position>
              <LatitudeDegrees>43.25471316464245319366455078125</LatitudeDegrees>
              <LongitudeDegrees>-1.68117969296872615814208984375</LongitudeDegrees>
            </Position>
            <AltitudeMeters>66.40000152587890625</AltitudeMeters>
            <DistanceMeters>NAN</DistanceMeters>
          </Trackpoint>
          <Trackpoint>
            <Time>2021-08-10T13:20:04.000Z</Time>
            <Position>
              <LatitudeDegrees>43.25471316464245319366455078125</LatitudeDegrees>
              <LongitudeDegrees>-1.68117969296872615814208984375</LongitudeDegrees>
            </Position>
            <AltitudeMeters>66</AltitudeMeters>
            <DistanceMeters>NAN</DistanceMeters>
          </Trackpoint>
          <Trackpoint>
            <Time>2021-08-10T13:20:42.000Z</Time>
            <Position>
              <LatitudeDegrees>43.25471316464245319366455078125</LatitudeDegrees>
              <LongitudeDegrees>-1.68117969296872615814208984375</LongitudeDegrees>
            </Position>
            <AltitudeMeters>65.8000030517578125</AltitudeMeters>
            <DistanceMeters>NAN</DistanceMeters>
          </Trackpoint>
          <Trackpoint>
            <Time>2021-08-10T13:22:15.000Z</Time>
            <Position>
              <LatitudeDegrees>43.25469204224646091461181640625</LatitudeDegrees>
              <LongitudeDegrees>-1.68120182119309902191162109375</LongitudeDegrees>
            </Position>
            <AltitudeMeters>66.1999969482421875</AltitudeMeters>
            <DistanceMeters>NAN</DistanceMeters>
          </Trackpoint>
          <Trackpoint>
            <Time>2021-08-10T13:23:53.000Z</Time>
            <Position>
              <LatitudeDegrees>43.25469204224646091461181640625</LatitudeDegrees>
              <LongitudeDegrees>-1.68120182119309902191162109375</LongitudeDegrees>
            </Position>
            <AltitudeMeters>65.59999847412109375</AltitudeMeters>
            <DistanceMeters>NAN</DistanceMeters>
          </Trackpoint>
          <Trackpoint>
            <Time>2021-08-10T13:24:01.000Z</Time>
            <Position>
              <LatitudeDegrees>43.25469204224646091461181640625</LatitudeDegrees>
              <LongitudeDegrees>-1.68120182119309902191162109375</LongitudeDegrees>
            </Position>
            <AltitudeMeters>65.1999969482421875</AltitudeMeters>
            <DistanceMeters>NAN</DistanceMeters>
          </Trackpoint>
          <Trackpoint>
            <Time>2021-08-10T13:24:06.000Z</Time>
            <Position>
              <LatitudeDegrees>43.25469288043677806854248046875</LatitudeDegrees>
              <LongitudeDegrees>-1.681203581392765045166015625</LongitudeDegrees>
            </Position>
            <AltitudeMeters>65.1999969482421875</AltitudeMeters>
            <DistanceMeters>NAN</DistanceMeters>
          </Trackpoint>
          <Trackpoint>
            <Time>2021-08-10T13:24:09.000Z</Time>
            <Position>
              <LatitudeDegrees>43.25470612384378910064697265625</LatitudeDegrees>
              <LongitudeDegrees>-1.681294776499271392822265625</LongitudeDegrees>
            </Position>
            <AltitudeMeters>65.1999969482421875</AltitudeMeters>
            <DistanceMeters>NAN</DistanceMeters>
          </Trackpoint>
          <Trackpoint>
            <Time>2021-08-10T13:24:13.000Z</Time>
            <Position>
              <LatitudeDegrees>43.25473680160939693450927734375</LatitudeDegrees>
              <LongitudeDegrees>-1.681481190025806427001953125</LongitudeDegrees>
            </Position>
            <AltitudeMeters>65.59999847412109375</AltitudeMeters>
            <DistanceMeters>NAN</DistanceMeters>
          </Trackpoint>
          <Trackpoint>
            <Time>2021-08-10T13:24:15.000Z</Time>
            <Position>
              <LatitudeDegrees>43.2547497935593128204345703125</LatitudeDegrees>
              <LongitudeDegrees>-1.68155922554433345794677734375</LongitudeDegrees>
            </Position>
            <AltitudeMeters>65.8000030517578125</AltitudeMeters>
            <DistanceMeters>NAN</DistanceMeters>
          </Trackpoint>
          <Trackpoint>
            <Time>2021-08-10T13:24:16.000Z</Time>
            <Position>
              <LatitudeDegrees>43.25474970974028110504150390625</LatitudeDegrees>
              <LongitudeDegrees>-1.68158923275768756866455078125</LongitudeDegrees>
            </Position>
            <AltitudeMeters>65.8000030517578125</AltitudeMeters>
            <DistanceMeters>NAN</DistanceMeters>
          </Trackpoint>
          <Trackpoint>
            <Time>2021-08-10T13:24:17.000Z</Time>
            <Position>
              <LatitudeDegrees>43.254741244018077850341796875</LatitudeDegrees>
              <LongitudeDegrees>-1.6816251911222934722900390625</LongitudeDegrees>
            </Position>
            <AltitudeMeters>65.8000030517578125</AltitudeMeters>
            <DistanceMeters>NAN</DistanceMeters>
          </Trackpoint>
          <Trackpoint>
            <Time>2021-08-10T13:24:18.000Z</Time>
            <Position>
              <LatitudeDegrees>43.2547362148761749267578125</LatitudeDegrees>
              <LongitudeDegrees>-1.68165226466953754425048828125</LongitudeDegrees>
            </Position>
            <AltitudeMeters>65.8000030517578125</AltitudeMeters>
            <DistanceMeters>NAN</DistanceMeters>
          </Trackpoint>
          <Trackpoint>
            <Time>2021-08-10T13:24:19.000Z</Time>
            <Position>
              <LatitudeDegrees>43.2547276653349399566650390625</LatitudeDegrees>
              <LongitudeDegrees>-1.68168478645384311676025390625</LongitudeDegrees>
            </Position>
            <AltitudeMeters>66</AltitudeMeters>
            <DistanceMeters>NAN</DistanceMeters>
          </Trackpoint>
          <Trackpoint>
            <Time>2021-08-10T13:24:20.000Z</Time>
            <Position>
              <LatitudeDegrees>43.2547259889543056488037109375</LatitudeDegrees>
              <LongitudeDegrees>-1.68172535486519336700439453125</LongitudeDegrees>
            </Position>
            <AltitudeMeters>66</AltitudeMeters>
            <DistanceMeters>NAN</DistanceMeters>
          </Trackpoint>
          <Trackpoint>
            <Time>2021-08-10T13:24:21.000Z</Time>
            <Position>
              <LatitudeDegrees>43.25472121126949787139892578125</LatitudeDegrees>
              <LongitudeDegrees>-1.68175854720175266265869140625</LongitudeDegrees>
            </Position>
            <AltitudeMeters>66</AltitudeMeters>
            <DistanceMeters>NAN</DistanceMeters>
          </Trackpoint>
          <Trackpoint>
            <Time>2021-08-10T13:24:22.000Z</Time>
            <Position>
              <LatitudeDegrees>43.25471542775630950927734375</LatitudeDegrees>
              <LongitudeDegrees>-1.6817861236631870269775390625</LongitudeDegrees>
            </Position>
            <AltitudeMeters>66.1999969482421875</AltitudeMeters>
            <DistanceMeters>NAN</DistanceMeters>
          </Trackpoint>
          <Trackpoint>
            <Time>2021-08-10T13:24:23.000Z</Time>
            <Position>
              <LatitudeDegrees>43.25470914132893085479736328125</LatitudeDegrees>
              <LongitudeDegrees>-1.681814454495906829833984375</LongitudeDegrees>
            </Position>
            <AltitudeMeters>66.40000152587890625</AltitudeMeters>
            <DistanceMeters>NAN</DistanceMeters>
          </Trackpoint>
          <Trackpoint>
            <Time>2021-08-10T13:24:24.000Z</Time>
            <Position>
              <LatitudeDegrees>43.2547015137970447540283203125</LatitudeDegrees>
              <LongitudeDegrees>-1.681841947138309478759765625</LongitudeDegrees>
            </Position>
            <AltitudeMeters>66.59999847412109375</AltitudeMeters>
            <DistanceMeters>NAN</DistanceMeters>
          </Trackpoint>
          <Trackpoint>
            <Time>2021-08-10T13:24:25.000Z</Time>
            <Position>
              <LatitudeDegrees>43.2546921260654926300048828125</LatitudeDegrees>
              <LongitudeDegrees>-1.68186449445784091949462890625</LongitudeDegrees>
            </Position>
            <AltitudeMeters>66.59999847412109375</AltitudeMeters>
            <DistanceMeters>NAN</DistanceMeters>
          </Trackpoint>
          <Trackpoint>
            <Time>2021-08-10T13:24:26.000Z</Time>
            <Position>
              <LatitudeDegrees>43.2546787150204181671142578125</LatitudeDegrees>
              <LongitudeDegrees>-1.68188209645450115203857421875</LongitudeDegrees>
            </Position>
            <AltitudeMeters>66.8000030517578125</AltitudeMeters>
            <DistanceMeters>NAN</DistanceMeters>
          </Trackpoint>
          <Trackpoint>
            <Time>2021-08-10T13:24:27.000Z</Time>
            <Position>
              <LatitudeDegrees>43.25466404668986797332763671875</LatitudeDegrees>
              <LongitudeDegrees>-1.6818940825760364532470703125</LongitudeDegrees>
            </Position>
            <AltitudeMeters>66.8000030517578125</AltitudeMeters>
            <DistanceMeters>NAN</DistanceMeters>
          </Trackpoint>
          <Trackpoint>
            <Time>2021-08-10T13:24:28.000Z</Time>
            <Position>
              <LatitudeDegrees>43.25465013273060321807861328125</LatitudeDegrees>
              <LongitudeDegrees>-1.68189818970859050750732421875</LongitudeDegrees>
            </Position>
            <AltitudeMeters>66.8000030517578125</AltitudeMeters>
            <DistanceMeters>NAN</DistanceMeters>
          </Trackpoint>
          <Trackpoint>
            <Time>2021-08-10T13:24:29.000Z</Time>
            <Position>
              <LatitudeDegrees>43.25463496148586273193359375</LatitudeDegrees>
              <LongitudeDegrees>-1.68190623633563518524169921875</LongitudeDegrees>
            </Position>
            <AltitudeMeters>67</AltitudeMeters>
            <DistanceMeters>NAN</DistanceMeters>
          </Trackpoint>
          <Trackpoint>
            <Time>2021-08-10T13:24:30.000Z</Time>
            <Position>
              <LatitudeDegrees>43.25461928732693195343017578125</LatitudeDegrees>
              <LongitudeDegrees>-1.68191495351493358612060546875</LongitudeDegrees>
            </Position>
            <AltitudeMeters>67</AltitudeMeters>
            <DistanceMeters>NAN</DistanceMeters>
          </Trackpoint>
          <Trackpoint>
            <Time>2021-08-10T13:24:31.000Z</Time>
            <Position>
              <LatitudeDegrees>43.25460587628185749053955078125</LatitudeDegrees>
              <LongitudeDegrees>-1.68192400597035884857177734375</LongitudeDegrees>
            </Position>
            <AltitudeMeters>67</AltitudeMeters>
            <DistanceMeters>NAN</DistanceMeters>
          </Trackpoint>
          <Trackpoint>
            <Time>2021-08-10T13:24:33.000Z</Time>
            <Position>
              <LatitudeDegrees>43.25456145219504833221435546875</LatitudeDegrees>
              <LongitudeDegrees>-1.68194822967052459716796875</LongitudeDegrees>
            </Position>
            <AltitudeMeters>67.1999969482421875</AltitudeMeters>
            <DistanceMeters>NAN</DistanceMeters>
          </Trackpoint>
          <Trackpoint>
            <Time>2021-08-10T13:24:34.000Z</Time>
            <Position>
              <LatitudeDegrees>43.25454301200807094573974609375</LatitudeDegrees>
              <LongitudeDegrees>-1.681949906051158905029296875</LongitudeDegrees>
            </Position>
            <AltitudeMeters>67.1999969482421875</AltitudeMeters>
            <DistanceMeters>NAN</DistanceMeters>
          </Trackpoint>
          <Trackpoint>
            <Time>2021-08-10T13:24:35.000Z</Time>
            <Position>
              <LatitudeDegrees>43.2545228116214275360107421875</LatitudeDegrees>
              <LongitudeDegrees>-1.68194445781409740447998046875</LongitudeDegrees>
            </Position>
            <AltitudeMeters>67.1999969482421875</AltitudeMeters>
            <DistanceMeters>NAN</DistanceMeters>
          </Trackpoint>
          <Trackpoint>
            <Time>2021-08-10T13:24:36.000Z</Time>
            <Position>
              <LatitudeDegrees>43.25450998730957508087158203125</LatitudeDegrees>
              <LongitudeDegrees>-1.6819359920918941497802734375</LongitudeDegrees>
            </Position>
            <AltitudeMeters>67.40000152587890625</AltitudeMeters>
            <DistanceMeters>NAN</DistanceMeters>
          </Trackpoint>
          <Trackpoint>
            <Time>2021-08-10T13:24:38.000Z</Time>
            <Position>
              <LatitudeDegrees>43.2544819079339504241943359375</LatitudeDegrees>
              <LongitudeDegrees>-1.68190925382077693939208984375</LongitudeDegrees>
            </Position>
            <AltitudeMeters>67.40000152587890625</AltitudeMeters>
            <DistanceMeters>NAN</DistanceMeters>
          </Trackpoint>
          <Trackpoint>
            <Time>2021-08-10T13:24:39.000Z</Time>
            <Position>
              <LatitudeDegrees>43.254460953176021575927734375</LatitudeDegrees>
              <LongitudeDegrees>-1.68190204538404941558837890625</LongitudeDegrees>
            </Position>
            <AltitudeMeters>67.40000152587890625</AltitudeMeters>
            <DistanceMeters>NAN</DistanceMeters>
          </Trackpoint>
          <Trackpoint>
            <Time>2021-08-10T13:24:41.000Z</Time>
            <Position>
              <LatitudeDegrees>43.2544383220374584197998046875</LatitudeDegrees>
              <LongitudeDegrees>-1.6819105111062526702880859375</LongitudeDegrees>
            </Position>
            <AltitudeMeters>67.59999847412109375</AltitudeMeters>
            <DistanceMeters>NAN</DistanceMeters>
          </Trackpoint>
          <Trackpoint>
            <Time>2021-08-10T13:24:42.000Z</Time>
            <Position>
              <LatitudeDegrees>43.2544296048581600189208984375</LatitudeDegrees>
              <LongitudeDegrees>-1.6819044761359691619873046875</LongitudeDegrees>
            </Position>
            <AltitudeMeters>67.59999847412109375</AltitudeMeters>
            <DistanceMeters>NAN</DistanceMeters>
          </Trackpoint>
          <Trackpoint>
            <Time>2021-08-10T13:24:43.000Z</Time>
            <Position>
              <LatitudeDegrees>43.25442834757268428802490234375</LatitudeDegrees>
              <LongitudeDegrees>-1.68189450167119503021240234375</LongitudeDegrees>
            </Position>
            <AltitudeMeters>67.8000030517578125</AltitudeMeters>
            <DistanceMeters>NAN</DistanceMeters>
          </Trackpoint>
          <Trackpoint>
            <Time>2021-08-10T13:24:44.000Z</Time>
            <Position>
              <LatitudeDegrees>43.254429437220096588134765625</LatitudeDegrees>
              <LongitudeDegrees>-1.6818900592625141143798828125</LongitudeDegrees>
            </Position>
            <AltitudeMeters>67.8000030517578125</AltitudeMeters>
            <DistanceMeters>NAN</DistanceMeters>
          </Trackpoint>
          <Trackpoint>
            <Time>2021-08-10T13:24:45.000Z</Time>
            <Position>
              <LatitudeDegrees>43.254429437220096588134765625</LatitudeDegrees>
              <LongitudeDegrees>-1.6818900592625141143798828125</LongitudeDegrees>
            </Position>
            <AltitudeMeters>67.8000030517578125</AltitudeMeters>
            <DistanceMeters>NAN</DistanceMeters>
          </Trackpoint>
          <Trackpoint>
            <Time>2021-08-10T13:24:47.000Z</Time>
            <Position>
              <LatitudeDegrees>43.254429437220096588134765625</LatitudeDegrees>
              <LongitudeDegrees>-1.6818900592625141143798828125</LongitudeDegrees>
            </Position>
            <AltitudeMeters>68</AltitudeMeters>
            <DistanceMeters>NAN</DistanceMeters>
          </Trackpoint>
          <Trackpoint>
            <Time>2021-08-10T13:24:55.000Z</Time>
            <Position>
              <LatitudeDegrees>43.254429437220096588134765625</LatitudeDegrees>
              <LongitudeDegrees>-1.6818900592625141143798828125</LongitudeDegrees>
            </Position>
            <AltitudeMeters>68.1999969482421875</AltitudeMeters>
            <DistanceMeters>NAN</DistanceMeters>
          </Trackpoint>
          <Trackpoint>
            <Time>2021-08-10T14:01:04.000Z</Time>
            <Position>
              <LatitudeDegrees>43.2544758729636669158935546875</LatitudeDegrees>
              <LongitudeDegrees>-1.68186080642044544219970703125</LongitudeDegrees>
            </Position>
            <AltitudeMeters>67.59999847412109375</AltitudeMeters>
            <DistanceMeters>NAN</DistanceMeters>
          </Trackpoint>
          <Trackpoint>
            <Time>2021-08-10T14:01:18.000Z</Time>
            <Position>
              <LatitudeDegrees>43.25448316521942615509033203125</LatitudeDegrees>
              <LongitudeDegrees>-1.68188528157770633697509765625</LongitudeDegrees>
            </Position>
            <AltitudeMeters>67.59999847412109375</AltitudeMeters>
            <DistanceMeters>NAN</DistanceMeters>
          </Trackpoint>
          <Trackpoint>
            <Time>2021-08-10T14:01:38.000Z</Time>
            <Position>
              <LatitudeDegrees>43.2544805668294429779052734375</LatitudeDegrees>
              <LongitudeDegrees>-1.68190673924982547760009765625</LongitudeDegrees>
            </Position>
            <AltitudeMeters>67.59999847412109375</AltitudeMeters>
            <DistanceMeters>NAN</DistanceMeters>
          </Trackpoint>
          <Trackpoint>
            <Time>2021-08-10T14:01:40.000Z</Time>
            <Position>
              <LatitudeDegrees>43.25450881384313106536865234375</LatitudeDegrees>
              <LongitudeDegrees>-1.68194211088120937347412109375</LongitudeDegrees>
            </Position>
            <AltitudeMeters>67.8000030517578125</AltitudeMeters>
            <DistanceMeters>NAN</DistanceMeters>
          </Trackpoint>
          <Trackpoint>
            <Time>2021-08-10T14:01:45.000Z</Time>
            <Position>
              <LatitudeDegrees>43.2545767910778522491455078125</LatitudeDegrees>
              <LongitudeDegrees>-1.68211712501943111419677734375</LongitudeDegrees>
            </Position>
            <AltitudeMeters>67.8000030517578125</AltitudeMeters>
            <DistanceMeters>NAN</DistanceMeters>
          </Trackpoint>
          <Trackpoint>
            <Time>2021-08-10T14:01:48.000Z</Time>
            <Position>
              <LatitudeDegrees>43.25458609499037265777587890625</LatitudeDegrees>
              <LongitudeDegrees>-1.68226313777267932891845703125</LongitudeDegrees>
            </Position>
            <AltitudeMeters>67.8000030517578125</AltitudeMeters>
            <DistanceMeters>NAN</DistanceMeters>
          </Trackpoint>
          <Trackpoint>
            <Time>2021-08-10T14:01:49.000Z</Time>
            <Position>
              <LatitudeDegrees>43.2545886933803558349609375</LatitudeDegrees>
              <LongitudeDegrees>-1.68230001814663410186767578125</LongitudeDegrees>
            </Position>
            <AltitudeMeters>67.8000030517578125</AltitudeMeters>
            <DistanceMeters>NAN</DistanceMeters>
          </Trackpoint>
          <Trackpoint>
            <Time>2021-08-10T14:01:51.000Z</Time>
            <Position>
              <LatitudeDegrees>43.2545979134738445281982421875</LatitudeDegrees>
              <LongitudeDegrees>-1.68239708058536052703857421875</LongitudeDegrees>
            </Position>
            <AltitudeMeters>67.8000030517578125</AltitudeMeters>
            <DistanceMeters>NAN</DistanceMeters>
          </Trackpoint>
          <Trackpoint>
            <Time>2021-08-10T14:01:59.000Z</Time>
            <Position>
              <LatitudeDegrees>43.254642672836780548095703125</LatitudeDegrees>
              <LongitudeDegrees>-1.6828238032758235931396484375</LongitudeDegrees>
            </Position>
            <AltitudeMeters>68.40000152587890625</AltitudeMeters>
            <DistanceMeters>NAN</DistanceMeters>
          </Trackpoint>
          <Trackpoint>
            <Time>2021-08-10T14:02:01.000Z</Time>
            <Position>
              <LatitudeDegrees>43.25464703142642974853515625</LatitudeDegrees>
              <LongitudeDegrees>-1.6829354502260684967041015625</LongitudeDegrees>
            </Position>
            <AltitudeMeters>68.8000030517578125</AltitudeMeters>
            <DistanceMeters>NAN</DistanceMeters>
          </Trackpoint>
          <Trackpoint>
            <Time>2021-08-10T14:02:05.000Z</Time>
            <Position>
              <LatitudeDegrees>43.2546773739159107208251953125</LatitudeDegrees>
              <LongitudeDegrees>-1.68316788040101528167724609375</LongitudeDegrees>
            </Position>
            <AltitudeMeters>69.8000030517578125</AltitudeMeters>
            <DistanceMeters>NAN</DistanceMeters>
          </Trackpoint>
          <Trackpoint>
            <Time>2021-08-10T14:02:09.000Z</Time>
            <Position>
              <LatitudeDegrees>43.254673182964324951171875</LatitudeDegrees>
              <LongitudeDegrees>-1.68337658978998661041259765625</LongitudeDegrees>
            </Position>
            <AltitudeMeters>70.59999847412109375</AltitudeMeters>
            <DistanceMeters>NAN</DistanceMeters>
          </Trackpoint>
          <Trackpoint>
            <Time>2021-08-10T14:02:10.000Z</Time>
            <Position>
              <LatitudeDegrees>43.254663459956645965576171875</LatitudeDegrees>
              <LongitudeDegrees>-1.6834182478487491607666015625</LongitudeDegrees>
            </Position>
            <AltitudeMeters>70.8000030517578125</AltitudeMeters>
            <DistanceMeters>NAN</DistanceMeters>
          </Trackpoint>
          <Trackpoint>
            <Time>2021-08-10T14:02:11.000Z</Time>
            <Position>
              <LatitudeDegrees>43.254651725292205810546875</LatitudeDegrees>
              <LongitudeDegrees>-1.683462001383304595947265625</LongitudeDegrees>
            </Position>
            <AltitudeMeters>71</AltitudeMeters>
            <DistanceMeters>NAN</DistanceMeters>
          </Trackpoint>
          <Trackpoint>
            <Time>2021-08-10T14:02:12.000Z</Time>
            <Position>
              <LatitudeDegrees>43.25463823042809963226318359375</LatitudeDegrees>
              <LongitudeDegrees>-1.68351723812520503997802734375</LongitudeDegrees>
            </Position>
            <AltitudeMeters>71.1999969482421875</AltitudeMeters>
            <DistanceMeters>NAN</DistanceMeters>
          </Trackpoint>
          <Trackpoint>
            <Time>2021-08-10T14:02:13.000Z</Time>
            <Position>
              <LatitudeDegrees>43.254622556269168853759765625</LatitudeDegrees>
              <LongitudeDegrees>-1.68357633054256439208984375</LongitudeDegrees>
            </Position>
            <AltitudeMeters>71.1999969482421875</AltitudeMeters>
            <DistanceMeters>NAN</DistanceMeters>
          </Trackpoint>
          <Trackpoint>
            <Time>2021-08-10T14:02:14.000Z</Time>
            <Position>
              <LatitudeDegrees>43.25460218824446201324462890625</LatitudeDegrees>
              <LongitudeDegrees>-1.68363676406443119049072265625</LongitudeDegrees>
            </Position>
            <AltitudeMeters>71.59999847412109375</AltitudeMeters>
            <DistanceMeters>NAN</DistanceMeters>
          </Trackpoint>
          <Trackpoint>
            <Time>2021-08-10T14:02:15.000Z</Time>
            <Position>
              <LatitudeDegrees>43.25457595288753509521484375</LatitudeDegrees>
              <LongitudeDegrees>-1.6836945153772830963134765625</LongitudeDegrees>
            </Position>
            <AltitudeMeters>71.59999847412109375</AltitudeMeters>
            <DistanceMeters>NAN</DistanceMeters>
          </Trackpoint>
          <Trackpoint>
            <Time>2021-08-10T14:02:16.000Z</Time>
            <Position>
              <LatitudeDegrees>43.2545519806444644927978515625</LatitudeDegrees>
              <LongitudeDegrees>-1.6837411187589168548583984375</LongitudeDegrees>
            </Position>
            <AltitudeMeters>72</AltitudeMeters>
            <DistanceMeters>NAN</DistanceMeters>
          </Trackpoint>
          <Trackpoint>
            <Time>2021-08-10T14:02:17.000Z</Time>
            <Position>
              <LatitudeDegrees>43.25452976860105991363525390625</LatitudeDegrees>
              <LongitudeDegrees>-1.68379233218729496002197265625</LongitudeDegrees>
            </Position>
            <AltitudeMeters>72.1999969482421875</AltitudeMeters>
            <DistanceMeters>NAN</DistanceMeters>
          </Trackpoint>
          <Trackpoint>
            <Time>2021-08-10T14:02:18.000Z</Time>
            <Position>
              <LatitudeDegrees>43.25451032258570194244384765625</LatitudeDegrees>
              <LongitudeDegrees>-1.68384932912886142730712890625</LongitudeDegrees>
            </Position>
            <AltitudeMeters>72.40000152587890625</AltitudeMeters>
            <DistanceMeters>NAN</DistanceMeters>
          </Trackpoint>
          <Trackpoint>
            <Time>2021-08-10T14:02:19.000Z</Time>
            <Position>
              <LatitudeDegrees>43.25449489988386631011962890625</LatitudeDegrees>
              <LongitudeDegrees>-1.68391286395490169525146484375</LongitudeDegrees>
            </Position>
            <AltitudeMeters>72.40000152587890625</AltitudeMeters>
            <DistanceMeters>NAN</DistanceMeters>
          </Trackpoint>
          <Trackpoint>
            <Time>2021-08-10T14:02:20.000Z</Time>
            <Position>
              <LatitudeDegrees>43.254481740295886993408203125</LatitudeDegrees>
              <LongitudeDegrees>-1.68397069908678531646728515625</LongitudeDegrees>
            </Position>
            <AltitudeMeters>72.59999847412109375</AltitudeMeters>
            <DistanceMeters>NAN</DistanceMeters>
          </Trackpoint>
          <Trackpoint>
            <Time>2021-08-10T14:02:21.000Z</Time>
            <Position>
              <LatitudeDegrees>43.25446338392794132232666015625</LatitudeDegrees>
              <LongitudeDegrees>-1.6840277798473834991455078125</LongitudeDegrees>
            </Position>
            <AltitudeMeters>72.8000030517578125</AltitudeMeters>
            <DistanceMeters>NAN</DistanceMeters>
          </Trackpoint>
          <Trackpoint>
            <Time>2021-08-10T14:02:22.000Z</Time>
            <Position>
              <LatitudeDegrees>43.25444460846483707427978515625</LatitudeDegrees>
              <LongitudeDegrees>-1.68409240432083606719970703125</LongitudeDegrees>
            </Position>
            <AltitudeMeters>72.8000030517578125</AltitudeMeters>
            <DistanceMeters>NAN</DistanceMeters>
          </Trackpoint>
          <Trackpoint>
            <Time>2021-08-10T14:02:23.000Z</Time>
            <Position>
              <LatitudeDegrees>43.25442415662109851837158203125</LatitudeDegrees>
              <LongitudeDegrees>-1.684156693518161773681640625</LongitudeDegrees>
            </Position>
            <AltitudeMeters>73</AltitudeMeters>
            <DistanceMeters>NAN</DistanceMeters>
          </Trackpoint>
          <Trackpoint>
            <Time>2021-08-10T14:02:24.000Z</Time>
            <Position>
              <LatitudeDegrees>43.2543997652828693389892578125</LatitudeDegrees>
              <LongitudeDegrees>-1.68423506431281566619873046875</LongitudeDegrees>
            </Position>
            <AltitudeMeters>73</AltitudeMeters>
            <DistanceMeters>NAN</DistanceMeters>
          </Trackpoint>
          <Trackpoint>
            <Time>2021-08-10T14:02:25.000Z</Time>
            <Position>
              <LatitudeDegrees>43.2543833367526531219482421875</LatitudeDegrees>
              <LongitudeDegrees>-1.6842909716069698333740234375</LongitudeDegrees>
            </Position>
            <AltitudeMeters>73.1999969482421875</AltitudeMeters>
            <DistanceMeters>NAN</DistanceMeters>
          </Trackpoint>
          <Trackpoint>
            <Time>2021-08-10T14:02:26.000Z</Time>
            <Position>
              <LatitudeDegrees>43.25435936450958251953125</LatitudeDegrees>
              <LongitudeDegrees>-1.6843630559742450714111328125</LongitudeDegrees>
            </Position>
            <AltitudeMeters>73.40000152587890625</AltitudeMeters>
            <DistanceMeters>NAN</DistanceMeters>
          </Trackpoint>
          <Trackpoint>
            <Time>2021-08-10T14:02:27.000Z</Time>
            <Position>
              <LatitudeDegrees>43.2543447799980640411376953125</LatitudeDegrees>
              <LongitudeDegrees>-1.6844384931027889251708984375</LongitudeDegrees>
            </Position>
            <AltitudeMeters>73.59999847412109375</AltitudeMeters>
            <DistanceMeters>NAN</DistanceMeters>
          </Trackpoint>
          <Trackpoint>
            <Time>2021-08-10T14:02:28.000Z</Time>
            <Position>
              <LatitudeDegrees>43.25433245860040187835693359375</LatitudeDegrees>
              <LongitudeDegrees>-1.68451217003166675567626953125</LongitudeDegrees>
            </Position>
            <AltitudeMeters>73.8000030517578125</AltitudeMeters>
            <DistanceMeters>NAN</DistanceMeters>
          </Trackpoint>
          <Trackpoint>
            <Time>2021-08-10T14:02:29.000Z</Time>
            <Position>
              <LatitudeDegrees>43.2543231546878814697265625</LatitudeDegrees>
              <LongitudeDegrees>-1.6845880262553691864013671875</LongitudeDegrees>
            </Position>
            <AltitudeMeters>73.59999847412109375</AltitudeMeters>
            <DistanceMeters>NAN</DistanceMeters>
          </Trackpoint>
          <Trackpoint>
            <Time>2021-08-10T14:02:30.000Z</Time>
            <Position>
              <LatitudeDegrees>43.25431955046951770782470703125</LatitudeDegrees>
              <LongitudeDegrees>-1.68466321192681789398193359375</LongitudeDegrees>
            </Position>
            <AltitudeMeters>73.8000030517578125</AltitudeMeters>
            <DistanceMeters>NAN</DistanceMeters>
          </Trackpoint>
          <Trackpoint>
            <Time>2021-08-10T14:02:31.000Z</Time>
            <Position>
              <LatitudeDegrees>43.2543196342885494232177734375</LatitudeDegrees>
              <LongitudeDegrees>-1.68474577367305755615234375</LongitudeDegrees>
            </Position>
            <AltitudeMeters>74</AltitudeMeters>
            <DistanceMeters>NAN</DistanceMeters>
          </Trackpoint>
          <Trackpoint>
            <Time>2021-08-10T14:02:32.000Z</Time>
            <Position>
              <LatitudeDegrees>43.254322819411754608154296875</LatitudeDegrees>
              <LongitudeDegrees>-1.68483638204634189605712890625</LongitudeDegrees>
            </Position>
            <AltitudeMeters>74</AltitudeMeters>
            <DistanceMeters>NAN</DistanceMeters>
          </Trackpoint>
          <Trackpoint>
            <Time>2021-08-10T14:02:33.000Z</Time>
            <Position>
              <LatitudeDegrees>43.2543273456394672393798828125</LatitudeDegrees>
              <LongitudeDegrees>-1.6849306784570217132568359375</LongitudeDegrees>
            </Position>
            <AltitudeMeters>74.1999969482421875</AltitudeMeters>
            <DistanceMeters>NAN</DistanceMeters>
          </Trackpoint>
          <Trackpoint>
            <Time>2021-08-10T14:02:34.000Z</Time>
            <Position>
              <LatitudeDegrees>43.254328183829784393310546875</LatitudeDegrees>
              <LongitudeDegrees>-1.6850173473358154296875</LongitudeDegrees>
            </Position>
            <AltitudeMeters>74.1999969482421875</AltitudeMeters>
            <DistanceMeters>NAN</DistanceMeters>
          </Trackpoint>
          <Trackpoint>
            <Time>2021-08-10T14:02:35.000Z</Time>
            <Position>
              <LatitudeDegrees>43.25432742945849895477294921875</LatitudeDegrees>
              <LongitudeDegrees>-1.685101501643657684326171875</LongitudeDegrees>
            </Position>
            <AltitudeMeters>74.40000152587890625</AltitudeMeters>
            <DistanceMeters>NAN</DistanceMeters>
          </Trackpoint>
          <Trackpoint>
            <Time>2021-08-10T14:02:36.000Z</Time>
            <Position>
              <LatitudeDegrees>43.2543427683413028717041015625</LatitudeDegrees>
              <LongitudeDegrees>-1.6851871646940708160400390625</LongitudeDegrees>
            </Position>
            <AltitudeMeters>74.40000152587890625</AltitudeMeters>
            <DistanceMeters>NAN</DistanceMeters>
          </Trackpoint>
          <Trackpoint>
            <Time>2021-08-10T14:02:37.000Z</Time>
            <Position>
              <LatitudeDegrees>43.2543444447219371795654296875</LatitudeDegrees>
              <LongitudeDegrees>-1.685271821916103363037109375</LongitudeDegrees>
            </Position>
            <AltitudeMeters>74.40000152587890625</AltitudeMeters>
            <DistanceMeters>NAN</DistanceMeters>
          </Trackpoint>
          <Trackpoint>
            <Time>2021-08-10T14:02:38.000Z</Time>
            <Position>
              <LatitudeDegrees>43.25433983467519283294677734375</LatitudeDegrees>
              <LongitudeDegrees>-1.68535974808037281036376953125</LongitudeDegrees>
            </Position>
            <AltitudeMeters>74.40000152587890625</AltitudeMeters>
            <DistanceMeters>NAN</DistanceMeters>
          </Trackpoint>
          <Trackpoint>
            <Time>2021-08-10T14:02:39.000Z</Time>
            <Position>
              <LatitudeDegrees>43.25433329679071903228759765625</LatitudeDegrees>
              <LongitudeDegrees>-1.68545044027268886566162109375</LongitudeDegrees>
            </Position>
            <AltitudeMeters>74.40000152587890625</AltitudeMeters>
            <DistanceMeters>NAN</DistanceMeters>
          </Trackpoint>
          <Trackpoint>
            <Time>2021-08-10T14:02:40.000Z</Time>
            <Position>
              <LatitudeDegrees>43.2543310336768627166748046875</LatitudeDegrees>
              <LongitudeDegrees>-1.6855417191982269287109375</LongitudeDegrees>
            </Position>
            <AltitudeMeters>74.40000152587890625</AltitudeMeters>
            <DistanceMeters>NAN</DistanceMeters>
          </Trackpoint>
          <Trackpoint>
            <Time>2021-08-10T14:02:41.000Z</Time>
            <Position>
              <LatitudeDegrees>43.2543172873556613922119140625</LatitudeDegrees>
              <LongitudeDegrees>-1.68563048355281352996826171875</LongitudeDegrees>
            </Position>
            <AltitudeMeters>74.59999847412109375</AltitudeMeters>
            <DistanceMeters>NAN</DistanceMeters>
          </Trackpoint>
          <Trackpoint>
            <Time>2021-08-10T14:02:42.000Z</Time>
            <Position>
              <LatitudeDegrees>43.2543018646538257598876953125</LatitudeDegrees>
              <LongitudeDegrees>-1.68570592068135738372802734375</LongitudeDegrees>
            </Position>
            <AltitudeMeters>74.59999847412109375</AltitudeMeters>
            <DistanceMeters>NAN</DistanceMeters>
          </Trackpoint>
          <Trackpoint>
            <Time>2021-08-10T14:02:43.000Z</Time>
            <Position>
              <LatitudeDegrees>43.25427445583045482635498046875</LatitudeDegrees>
              <LongitudeDegrees>-1.6857708804309368133544921875</LongitudeDegrees>
            </Position>
            <AltitudeMeters>74.59999847412109375</AltitudeMeters>
            <DistanceMeters>NAN</DistanceMeters>
          </Trackpoint>
          <Trackpoint>
            <Time>2021-08-10T14:02:44.000Z</Time>
            <Position>
              <LatitudeDegrees>43.2542371563613414764404296875</LatitudeDegrees>
              <LongitudeDegrees>-1.68584321625530719757080078125</LongitudeDegrees>
            </Position>
            <AltitudeMeters>74.59999847412109375</AltitudeMeters>
            <DistanceMeters>NAN</DistanceMeters>
          </Trackpoint>
          <Trackpoint>
            <Time>2021-08-10T14:02:45.000Z</Time>
            <Position>
              <LatitudeDegrees>43.25419482775032520294189453125</LatitudeDegrees>
              <LongitudeDegrees>-1.6859064996242523193359375</LongitudeDegrees>
            </Position>
            <AltitudeMeters>74.59999847412109375</AltitudeMeters>
            <DistanceMeters>NAN</DistanceMeters>
          </Trackpoint>
          <Trackpoint>
            <Time>2021-08-10T14:02:46.000Z</Time>
            <Position>
              <LatitudeDegrees>43.25414906255900859832763671875</LatitudeDegrees>
              <LongitudeDegrees>-1.6859467327594757080078125</LongitudeDegrees>
            </Position>
            <AltitudeMeters>74.59999847412109375</AltitudeMeters>
            <DistanceMeters>NAN</DistanceMeters>
          </Trackpoint>
          <Trackpoint>
            <Time>2021-08-10T14:02:47.000Z</Time>
            <Position>
              <LatitudeDegrees>43.25409357436001300811767578125</LatitudeDegrees>
              <LongitudeDegrees>-1.68599031865596771240234375</LongitudeDegrees>
            </Position>
            <AltitudeMeters>74.59999847412109375</AltitudeMeters>
            <DistanceMeters>NAN</DistanceMeters>
          </Trackpoint>
          <Trackpoint>
            <Time>2021-08-10T14:02:48.000Z</Time>
            <Position>
              <LatitudeDegrees>43.25403674505650997161865234375</LatitudeDegrees>
              <LongitudeDegrees>-1.68603231199085712432861328125</LongitudeDegrees>
            </Position>
            <AltitudeMeters>74.40000152587890625</AltitudeMeters>
            <DistanceMeters>NAN</DistanceMeters>
          </Trackpoint>
          <Trackpoint>
            <Time>2021-08-10T14:02:49.000Z</Time>
            <Position>
              <LatitudeDegrees>43.25398142449557781219482421875</LatitudeDegrees>
              <LongitudeDegrees>-1.6860635764896869659423828125</LongitudeDegrees>
            </Position>
            <AltitudeMeters>74.40000152587890625</AltitudeMeters>
            <DistanceMeters>NAN</DistanceMeters>
          </Trackpoint>
          <Trackpoint>
            <Time>2021-08-10T14:02:50.000Z</Time>
            <Position>
              <LatitudeDegrees>43.25392761267721652984619140625</LatitudeDegrees>
              <LongitudeDegrees>-1.68608997948467731475830078125</LongitudeDegrees>
            </Position>
            <AltitudeMeters>74.40000152587890625</AltitudeMeters>
            <DistanceMeters>NAN</DistanceMeters>
          </Trackpoint>
          <Trackpoint>
            <Time>2021-08-10T14:02:52.000Z</Time>
            <Position>
              <LatitudeDegrees>43.25382627546787261962890625</LatitudeDegrees>
              <LongitudeDegrees>-1.68612870387732982635498046875</LongitudeDegrees>
            </Position>
            <AltitudeMeters>74.40000152587890625</AltitudeMeters>
            <DistanceMeters>NAN</DistanceMeters>
          </Trackpoint>
          <Trackpoint>
            <Time>2021-08-10T14:02:54.000Z</Time>
            <Position>
              <LatitudeDegrees>43.253722675144672393798828125</LatitudeDegrees>
              <LongitudeDegrees>-1.68617782182991504669189453125</LongitudeDegrees>
            </Position>
            <AltitudeMeters>74.40000152587890625</AltitudeMeters>
            <DistanceMeters>NAN</DistanceMeters>
          </Trackpoint>
          <Trackpoint>
            <Time>2021-08-10T14:02:55.000Z</Time>
            <Position>
              <LatitudeDegrees>43.2536631636321544647216796875</LatitudeDegrees>
              <LongitudeDegrees>-1.68621336109936237335205078125</LongitudeDegrees>
            </Position>
            <AltitudeMeters>74.59999847412109375</AltitudeMeters>
            <DistanceMeters>NAN</DistanceMeters>
          </Trackpoint>
          <Trackpoint>
            <Time>2021-08-10T14:02:56.000Z</Time>
            <Position>
              <LatitudeDegrees>43.25363139621913433074951171875</LatitudeDegrees>
              <LongitudeDegrees>-1.6862392611801624298095703125</LongitudeDegrees>
            </Position>
            <AltitudeMeters>74.59999847412109375</AltitudeMeters>
            <DistanceMeters>NAN</DistanceMeters>
          </Trackpoint>
          <Trackpoint>
            <Time>2021-08-10T14:02:57.000Z</Time>
            <Position>
              <LatitudeDegrees>43.2535961084067821502685546875</LatitudeDegrees>
              <LongitudeDegrees>-1.68628259561955928802490234375</LongitudeDegrees>
            </Position>
            <AltitudeMeters>74.59999847412109375</AltitudeMeters>
            <DistanceMeters>NAN</DistanceMeters>
          </Trackpoint>
          <Trackpoint>
            <Time>2021-08-10T14:02:58.000Z</Time>
            <Position>
              <LatitudeDegrees>43.2535642571747303009033203125</LatitudeDegrees>
              <LongitudeDegrees>-1.6863348148763179779052734375</LongitudeDegrees>
            </Position>
            <AltitudeMeters>74.59999847412109375</AltitudeMeters>
            <DistanceMeters>NAN</DistanceMeters>
          </Trackpoint>
          <Trackpoint>
            <Time>2021-08-10T14:02:59.000Z</Time>
            <Position>
              <LatitudeDegrees>43.2535340823233127593994140625</LatitudeDegrees>
              <LongitudeDegrees>-1.6863891296088695526123046875</LongitudeDegrees>
            </Position>
            <AltitudeMeters>74.8000030517578125</AltitudeMeters>
            <DistanceMeters>NAN</DistanceMeters>
          </Trackpoint>
          <Trackpoint>
            <Time>2021-08-10T14:03:00.000Z</Time>
            <Position>
              <LatitudeDegrees>43.2535122893750667572021484375</LatitudeDegrees>
              <LongitudeDegrees>-1.6864508204162120819091796875</LongitudeDegrees>
            </Position>
            <AltitudeMeters>75</AltitudeMeters>
            <DistanceMeters>NAN</DistanceMeters>
          </Trackpoint>
          <Trackpoint>
            <Time>2021-08-10T14:03:01.000Z</Time>
            <Position>
              <LatitudeDegrees>43.25350114144384860992431640625</LatitudeDegrees>
              <LongitudeDegrees>-1.6865165345370769500732421875</LongitudeDegrees>
            </Position>
            <AltitudeMeters>75</AltitudeMeters>
            <DistanceMeters>NAN</DistanceMeters>
          </Trackpoint>
          <Trackpoint>
            <Time>2021-08-10T14:03:02.000Z</Time>
            <Position>
              <LatitudeDegrees>43.25350030325353145599365234375</LatitudeDegrees>
              <LongitudeDegrees>-1.68658803217113018035888671875</LongitudeDegrees>
            </Position>
            <AltitudeMeters>75.1999969482421875</AltitudeMeters>
            <DistanceMeters>NAN</DistanceMeters>
          </Trackpoint>
          <Trackpoint>
            <Time>2021-08-10T14:03:03.000Z</Time>
            <Position>
              <LatitudeDegrees>43.2535008899867534637451171875</LatitudeDegrees>
              <LongitudeDegrees>-1.686661206185817718505859375</LongitudeDegrees>
            </Position>
            <AltitudeMeters>75.1999969482421875</AltitudeMeters>
            <DistanceMeters>NAN</DistanceMeters>
          </Trackpoint>
          <Trackpoint>
            <Time>2021-08-10T14:03:04.000Z</Time>
            <Position>
              <LatitudeDegrees>43.2535069249570369720458984375</LatitudeDegrees>
              <LongitudeDegrees>-1.686734296381473541259765625</LongitudeDegrees>
            </Position>
            <AltitudeMeters>75.40000152587890625</AltitudeMeters>
            <DistanceMeters>NAN</DistanceMeters>
          </Trackpoint>
          <Trackpoint>
            <Time>2021-08-10T14:03:08.000Z</Time>
            <Position>
              <LatitudeDegrees>43.2535598985850811004638671875</LatitudeDegrees>
              <LongitudeDegrees>-1.68702875263988971710205078125</LongitudeDegrees>
            </Position>
            <AltitudeMeters>75.8000030517578125</AltitudeMeters>
            <DistanceMeters>NAN</DistanceMeters>
          </Trackpoint>
          <Trackpoint>
            <Time>2021-08-10T14:03:11.000Z</Time>
            <Position>
              <LatitudeDegrees>43.25362334959208965301513671875</LatitudeDegrees>
              <LongitudeDegrees>-1.68725204654037952423095703125</LongitudeDegrees>
            </Position>
            <AltitudeMeters>76</AltitudeMeters>
            <DistanceMeters>NAN</DistanceMeters>
          </Trackpoint>
          <Trackpoint>
            <Time>2021-08-10T14:03:12.000Z</Time>
            <Position>
              <LatitudeDegrees>43.25363072566688060760498046875</LatitudeDegrees>
              <LongitudeDegrees>-1.687308959662914276123046875</LongitudeDegrees>
            </Position>
            <AltitudeMeters>76</AltitudeMeters>
            <DistanceMeters>NAN</DistanceMeters>
          </Trackpoint>
          <Trackpoint>
            <Time>2021-08-10T14:03:13.000Z</Time>
            <Position>
              <LatitudeDegrees>43.25364497490227222442626953125</LatitudeDegrees>
              <LongitudeDegrees>-1.68737844564020633697509765625</LongitudeDegrees>
            </Position>
            <AltitudeMeters>76</AltitudeMeters>
            <DistanceMeters>NAN</DistanceMeters>
          </Trackpoint>
          <Trackpoint>
            <Time>2021-08-10T14:03:14.000Z</Time>
            <Position>
              <LatitudeDegrees>43.25365905649960041046142578125</LatitudeDegrees>
              <LongitudeDegrees>-1.68745036236941814422607421875</LongitudeDegrees>
            </Position>
            <AltitudeMeters>76</AltitudeMeters>
            <DistanceMeters>NAN</DistanceMeters>
          </Trackpoint>
          <Trackpoint>
            <Time>2021-08-10T14:03:15.000Z</Time>
            <Position>
              <LatitudeDegrees>43.2536698691546916961669921875</LatitudeDegrees>
              <LongitudeDegrees>-1.6875230334699153900146484375</LongitudeDegrees>
            </Position>
            <AltitudeMeters>76</AltitudeMeters>
            <DistanceMeters>NAN</DistanceMeters>
          </Trackpoint>
          <Trackpoint>
            <Time>2021-08-10T14:03:17.000Z</Time>
            <Position>
              <LatitudeDegrees>43.25365436263382434844970703125</LatitudeDegrees>
              <LongitudeDegrees>-1.68766669929027557373046875</LongitudeDegrees>
            </Position>
            <AltitudeMeters>76</AltitudeMeters>
            <DistanceMeters>NAN</DistanceMeters>
          </Trackpoint>
          <Trackpoint>
            <Time>2021-08-10T14:03:18.000Z</Time>
            <Position>
              <LatitudeDegrees>43.2536276243627071380615234375</LatitudeDegrees>
              <LongitudeDegrees>-1.68773400597274303436279296875</LongitudeDegrees>
            </Position>
            <AltitudeMeters>76</AltitudeMeters>
            <DistanceMeters>NAN</DistanceMeters>
          </Trackpoint>
          <Trackpoint>
            <Time>2021-08-10T14:03:19.000Z</Time>
            <Position>
              <LatitudeDegrees>43.25359434820711612701416015625</LatitudeDegrees>
              <LongitudeDegrees>-1.68779234401881694793701171875</LongitudeDegrees>
            </Position>
            <AltitudeMeters>76.1999969482421875</AltitudeMeters>
            <DistanceMeters>NAN</DistanceMeters>
          </Trackpoint>
          <Trackpoint>
            <Time>2021-08-10T14:03:20.000Z</Time>
            <Position>
              <LatitudeDegrees>43.25355042703449726104736328125</LatitudeDegrees>
              <LongitudeDegrees>-1.6878519393503665924072265625</LongitudeDegrees>
            </Position>
            <AltitudeMeters>76.1999969482421875</AltitudeMeters>
            <DistanceMeters>NAN</DistanceMeters>
          </Trackpoint>
          <Trackpoint>
            <Time>2021-08-10T14:03:21.000Z</Time>
            <Position>
              <LatitudeDegrees>43.25350575149059295654296875</LatitudeDegrees>
              <LongitudeDegrees>-1.6879065893590450286865234375</LongitudeDegrees>
            </Position>
            <AltitudeMeters>76</AltitudeMeters>
            <DistanceMeters>NAN</DistanceMeters>
          </Trackpoint>
          <Trackpoint>
            <Time>2021-08-10T14:03:22.000Z</Time>
            <Position>
              <LatitudeDegrees>43.25345076620578765869140625</LatitudeDegrees>
              <LongitudeDegrees>-1.68795235455036163330078125</LongitudeDegrees>
            </Position>
            <AltitudeMeters>75.8000030517578125</AltitudeMeters>
            <DistanceMeters>NAN</DistanceMeters>
          </Trackpoint>
          <Trackpoint>
            <Time>2021-08-10T14:03:25.000Z</Time>
            <Position>
              <LatitudeDegrees>43.253285475075244903564453125</LatitudeDegrees>
              <LongitudeDegrees>-1.68808721937239170074462890625</LongitudeDegrees>
            </Position>
            <AltitudeMeters>75.59999847412109375</AltitudeMeters>
            <DistanceMeters>NAN</DistanceMeters>
          </Trackpoint>
          <Trackpoint>
            <Time>2021-08-10T14:03:26.000Z</Time>
            <Position>
              <LatitudeDegrees>43.25323224999010562896728515625</LatitudeDegrees>
              <LongitudeDegrees>-1.6881339065730571746826171875</LongitudeDegrees>
            </Position>
            <AltitudeMeters>75.59999847412109375</AltitudeMeters>
            <DistanceMeters>NAN</DistanceMeters>
          </Trackpoint>
          <Trackpoint>
            <Time>2021-08-10T14:03:27.000Z</Time>
            <Position>
              <LatitudeDegrees>43.2531778514385223388671875</LatitudeDegrees>
              <LongitudeDegrees>-1.6881771571934223175048828125</LongitudeDegrees>
            </Position>
            <AltitudeMeters>75.8000030517578125</AltitudeMeters>
            <DistanceMeters>NAN</DistanceMeters>
          </Trackpoint>
          <Trackpoint>
            <Time>2021-08-10T14:03:28.000Z</Time>
            <Position>
              <LatitudeDegrees>43.25312311761081218719482421875</LatitudeDegrees>
              <LongitudeDegrees>-1.6882137022912502288818359375</LongitudeDegrees>
            </Position>
            <AltitudeMeters>75.59999847412109375</AltitudeMeters>
            <DistanceMeters>NAN</DistanceMeters>
          </Trackpoint>
          <Trackpoint>
            <Time>2021-08-10T14:03:30.000Z</Time>
            <Position>
              <LatitudeDegrees>43.25301717035472393035888671875</LatitudeDegrees>
              <LongitudeDegrees>-1.6882847808301448822021484375</LongitudeDegrees>
            </Position>
            <AltitudeMeters>75.40000152587890625</AltitudeMeters>
            <DistanceMeters>NAN</DistanceMeters>
          </Trackpoint>
          <Trackpoint>
            <Time>2021-08-10T14:03:34.000Z</Time>
            <Position>
              <LatitudeDegrees>43.25280963443219661712646484375</LatitudeDegrees>
              <LongitudeDegrees>-1.68847739696502685546875</LongitudeDegrees>
            </Position>
            <AltitudeMeters>75</AltitudeMeters>
            <DistanceMeters>NAN</DistanceMeters>
          </Trackpoint>
          <Trackpoint>
            <Time>2021-08-10T14:03:35.000Z</Time>
            <Position>
              <LatitudeDegrees>43.252755068242549896240234375</LatitudeDegrees>
              <LongitudeDegrees>-1.68853933922946453094482421875</LongitudeDegrees>
            </Position>
            <AltitudeMeters>75</AltitudeMeters>
            <DistanceMeters>NAN</DistanceMeters>
          </Trackpoint>
          <Trackpoint>
            <Time>2021-08-10T14:03:36.000Z</Time>
            <Position>
              <LatitudeDegrees>43.25271181762218475341796875</LatitudeDegrees>
              <LongitudeDegrees>-1.68859516270458698272705078125</LongitudeDegrees>
            </Position>
            <AltitudeMeters>75</AltitudeMeters>
            <DistanceMeters>NAN</DistanceMeters>
          </Trackpoint>
          <Trackpoint>
            <Time>2021-08-10T14:03:37.000Z</Time>
            <Position>
              <LatitudeDegrees>43.2526744343340396881103515625</LatitudeDegrees>
              <LongitudeDegrees>-1.68865417130291461944580078125</LongitudeDegrees>
            </Position>
            <AltitudeMeters>74.59999847412109375</AltitudeMeters>
            <DistanceMeters>NAN</DistanceMeters>
          </Trackpoint>
          <Trackpoint>
            <Time>2021-08-10T14:03:38.000Z</Time>
            <Position>
              <LatitudeDegrees>43.25263914652168750762939453125</LatitudeDegrees>
              <LongitudeDegrees>-1.68871837668120861053466796875</LongitudeDegrees>
            </Position>
            <AltitudeMeters>74.59999847412109375</AltitudeMeters>
            <DistanceMeters>NAN</DistanceMeters>
          </Trackpoint>
          <Trackpoint>
            <Time>2021-08-10T14:03:39.000Z</Time>
            <Position>
              <LatitudeDegrees>43.25260050594806671142578125</LatitudeDegrees>
              <LongitudeDegrees>-1.6887786425650119781494140625</LongitudeDegrees>
            </Position>
            <AltitudeMeters>74.59999847412109375</AltitudeMeters>
            <DistanceMeters>NAN</DistanceMeters>
          </Trackpoint>
          <Trackpoint>
            <Time>2021-08-10T14:03:40.000Z</Time>
            <Position>
              <LatitudeDegrees>43.2525654695928096771240234375</LatitudeDegrees>
              <LongitudeDegrees>-1.68883538804948329925537109375</LongitudeDegrees>
            </Position>
            <AltitudeMeters>74.59999847412109375</AltitudeMeters>
            <DistanceMeters>NAN</DistanceMeters>
          </Trackpoint>
          <Trackpoint>
            <Time>2021-08-10T14:03:41.000Z</Time>
            <Position>
              <LatitudeDegrees>43.252533115446567535400390625</LatitudeDegrees>
              <LongitudeDegrees>-1.68889674358069896697998046875</LongitudeDegrees>
            </Position>
            <AltitudeMeters>74.59999847412109375</AltitudeMeters>
            <DistanceMeters>NAN</DistanceMeters>
          </Trackpoint>
          <Trackpoint>
            <Time>2021-08-10T14:03:42.000Z</Time>
            <Position>
              <LatitudeDegrees>43.252499587833881378173828125</LatitudeDegrees>
              <LongitudeDegrees>-1.68895994313061237335205078125</LongitudeDegrees>
            </Position>
            <AltitudeMeters>74.59999847412109375</AltitudeMeters>
            <DistanceMeters>NAN</DistanceMeters>
          </Trackpoint>
          <Trackpoint>
            <Time>2021-08-10T14:03:43.000Z</Time>
            <Position>
              <LatitudeDegrees>43.25247268192470073699951171875</LatitudeDegrees>
              <LongitudeDegrees>-1.6890103183686733245849609375</LongitudeDegrees>
            </Position>
            <AltitudeMeters>74.59999847412109375</AltitudeMeters>
            <DistanceMeters>NAN</DistanceMeters>
          </Trackpoint>
          <Trackpoint>
            <Time>2021-08-10T14:03:44.000Z</Time>
            <Position>
              <LatitudeDegrees>43.2524353824555873870849609375</LatitudeDegrees>
              <LongitudeDegrees>-1.6890827380120754241943359375</LongitudeDegrees>
            </Position>
            <AltitudeMeters>74.59999847412109375</AltitudeMeters>
            <DistanceMeters>NAN</DistanceMeters>
          </Trackpoint>
          <Trackpoint>
            <Time>2021-08-10T14:03:45.000Z</Time>
            <Position>
              <LatitudeDegrees>43.25240814127027988433837890625</LatitudeDegrees>
              <LongitudeDegrees>-1.68914593756198883056640625</LongitudeDegrees>
            </Position>
            <AltitudeMeters>74.59999847412109375</AltitudeMeters>
            <DistanceMeters>NAN</DistanceMeters>
          </Trackpoint>
          <Trackpoint>
            <Time>2021-08-10T14:03:46.000Z</Time>
            <Position>
              <LatitudeDegrees>43.2523814029991626739501953125</LatitudeDegrees>
              <LongitudeDegrees>-1.68920972384512424468994140625</LongitudeDegrees>
            </Position>
            <AltitudeMeters>74.59999847412109375</AltitudeMeters>
            <DistanceMeters>NAN</DistanceMeters>
          </Trackpoint>
          <Trackpoint>
            <Time>2021-08-10T14:03:47.000Z</Time>
            <Position>
              <LatitudeDegrees>43.25235902331769466400146484375</LatitudeDegrees>
              <LongitudeDegrees>-1.68927711434662342071533203125</LongitudeDegrees>
            </Position>
            <AltitudeMeters>74.59999847412109375</AltitudeMeters>
            <DistanceMeters>NAN</DistanceMeters>
          </Trackpoint>
          <Trackpoint>
            <Time>2021-08-10T14:03:48.000Z</Time>
            <Position>
              <LatitudeDegrees>43.25234242714941501617431640625</LatitudeDegrees>
              <LongitudeDegrees>-1.6893271543085575103759765625</LongitudeDegrees>
            </Position>
            <AltitudeMeters>75</AltitudeMeters>
            <DistanceMeters>NAN</DistanceMeters>
          </Trackpoint>
          <Trackpoint>
            <Time>2021-08-10T14:03:49.000Z</Time>
            <Position>
              <LatitudeDegrees>43.252313844859600067138671875</LatitudeDegrees>
              <LongitudeDegrees>-1.68939043767750263214111328125</LongitudeDegrees>
            </Position>
            <AltitudeMeters>75.1999969482421875</AltitudeMeters>
            <DistanceMeters>NAN</DistanceMeters>
          </Trackpoint>
          <Trackpoint>
            <Time>2021-08-10T14:03:50.000Z</Time>
            <Position>
              <LatitudeDegrees>43.252294063568115234375</LatitudeDegrees>
              <LongitudeDegrees>-1.68944693170487880706787109375</LongitudeDegrees>
            </Position>
            <AltitudeMeters>75.40000152587890625</AltitudeMeters>
            <DistanceMeters>NAN</DistanceMeters>
          </Trackpoint>
          <Trackpoint>
            <Time>2021-08-10T14:03:51.000Z</Time>
            <Position>
              <LatitudeDegrees>43.252274282276630401611328125</LatitudeDegrees>
              <LongitudeDegrees>-1.6895092092454433441162109375</LongitudeDegrees>
            </Position>
            <AltitudeMeters>75.59999847412109375</AltitudeMeters>
            <DistanceMeters>NAN</DistanceMeters>
          </Trackpoint>
          <Trackpoint>
            <Time>2021-08-10T14:03:53.000Z</Time>
            <Position>
              <LatitudeDegrees>43.2522404193878173828125</LatitudeDegrees>
              <LongitudeDegrees>-1.68964474461972713470458984375</LongitudeDegrees>
            </Position>
            <AltitudeMeters>76</AltitudeMeters>
            <DistanceMeters>NAN</DistanceMeters>
          </Trackpoint>
          <Trackpoint>
            <Time>2021-08-10T14:03:54.000Z</Time>
            <Position>
              <LatitudeDegrees>43.25223178602755069732666015625</LatitudeDegrees>
              <LongitudeDegrees>-1.689713895320892333984375</LongitudeDegrees>
            </Position>
            <AltitudeMeters>76.1999969482421875</AltitudeMeters>
            <DistanceMeters>NAN</DistanceMeters>
          </Trackpoint>
          <Trackpoint>
            <Time>2021-08-10T14:03:56.000Z</Time>
            <Position>
              <LatitudeDegrees>43.25221200473606586456298828125</LatitudeDegrees>
              <LongitudeDegrees>-1.6898545436561107635498046875</LongitudeDegrees>
            </Position>
            <AltitudeMeters>76.8000030517578125</AltitudeMeters>
            <DistanceMeters>NAN</DistanceMeters>
          </Trackpoint>
          <Trackpoint>
            <Time>2021-08-10T14:04:03.000Z</Time>
            <Position>
              <LatitudeDegrees>43.252147547900676727294921875</LatitudeDegrees>
              <LongitudeDegrees>-1.69033139012753963470458984375</LongitudeDegrees>
            </Position>
            <AltitudeMeters>77.8000030517578125</AltitudeMeters>
            <DistanceMeters>NAN</DistanceMeters>
          </Trackpoint>
          <Trackpoint>
            <Time>2021-08-10T14:04:04.000Z</Time>
            <Position>
              <LatitudeDegrees>43.2521383278071880340576171875</LatitudeDegrees>
              <LongitudeDegrees>-1.6903966851532459259033203125</LongitudeDegrees>
            </Position>
            <AltitudeMeters>78.1999969482421875</AltitudeMeters>
            <DistanceMeters>NAN</DistanceMeters>
          </Trackpoint>
          <Trackpoint>
            <Time>2021-08-10T14:04:05.000Z</Time>
            <Position>
              <LatitudeDegrees>43.2521309517323970794677734375</LatitudeDegrees>
              <LongitudeDegrees>-1.69046114198863506317138671875</LongitudeDegrees>
            </Position>
            <AltitudeMeters>78.40000152587890625</AltitudeMeters>
            <DistanceMeters>NAN</DistanceMeters>
          </Trackpoint>
          <Trackpoint>
            <Time>2021-08-10T14:04:06.000Z</Time>
            <Position>
              <LatitudeDegrees>43.25212441384792327880859375</LatitudeDegrees>
              <LongitudeDegrees>-1.69052601791918277740478515625</LongitudeDegrees>
            </Position>
            <AltitudeMeters>78.40000152587890625</AltitudeMeters>
            <DistanceMeters>NAN</DistanceMeters>
          </Trackpoint>
          <Trackpoint>
            <Time>2021-08-10T14:04:07.000Z</Time>
            <Position>
              <LatitudeDegrees>43.25211896561086177825927734375</LatitudeDegrees>
              <LongitudeDegrees>-1.690591983497142791748046875</LongitudeDegrees>
            </Position>
            <AltitudeMeters>78.8000030517578125</AltitudeMeters>
            <DistanceMeters>NAN</DistanceMeters>
          </Trackpoint>
          <Trackpoint>
            <Time>2021-08-10T14:04:08.000Z</Time>
            <Position>
              <LatitudeDegrees>43.2521115057170391082763671875</LatitudeDegrees>
              <LongitudeDegrees>-1.690658032894134521484375</LongitudeDegrees>
            </Position>
            <AltitudeMeters>78.8000030517578125</AltitudeMeters>
            <DistanceMeters>NAN</DistanceMeters>
          </Trackpoint>
          <Trackpoint>
            <Time>2021-08-10T14:04:09.000Z</Time>
            <Position>
              <LatitudeDegrees>43.252105303108692169189453125</LatitudeDegrees>
              <LongitudeDegrees>-1.69071025215089321136474609375</LongitudeDegrees>
            </Position>
            <AltitudeMeters>79</AltitudeMeters>
            <DistanceMeters>NAN</DistanceMeters>
          </Trackpoint>
          <Trackpoint>
            <Time>2021-08-10T14:04:10.000Z</Time>
            <Position>
              <LatitudeDegrees>43.25209650211036205291748046875</LatitudeDegrees>
              <LongitudeDegrees>-1.69078954495489597320556640625</LongitudeDegrees>
            </Position>
            <AltitudeMeters>79</AltitudeMeters>
            <DistanceMeters>NAN</DistanceMeters>
          </Trackpoint>
          <Trackpoint>
            <Time>2021-08-10T14:04:11.000Z</Time>
            <Position>
              <LatitudeDegrees>43.252091892063617706298828125</LatitudeDegrees>
              <LongitudeDegrees>-1.69084168039262294769287109375</LongitudeDegrees>
            </Position>
            <AltitudeMeters>79.1999969482421875</AltitudeMeters>
            <DistanceMeters>NAN</DistanceMeters>
          </Trackpoint>
          <Trackpoint>
            <Time>2021-08-10T14:04:12.000Z</Time>
            <Position>
              <LatitudeDegrees>43.25208459980785846710205078125</LatitudeDegrees>
              <LongitudeDegrees>-1.69091845862567424774169921875</LongitudeDegrees>
            </Position>
            <AltitudeMeters>79.40000152587890625</AltitudeMeters>
            <DistanceMeters>NAN</DistanceMeters>
          </Trackpoint>
          <Trackpoint>
            <Time>2021-08-10T14:04:13.000Z</Time>
            <Position>
              <LatitudeDegrees>43.252077810466289520263671875</LatitudeDegrees>
              <LongitudeDegrees>-1.6909807361662387847900390625</LongitudeDegrees>
            </Position>
            <AltitudeMeters>79.40000152587890625</AltitudeMeters>
            <DistanceMeters>NAN</DistanceMeters>
          </Trackpoint>
          <Trackpoint>
            <Time>2021-08-10T14:04:14.000Z</Time>
            <Position>
              <LatitudeDegrees>43.25207286514341831207275390625</LatitudeDegrees>
              <LongitudeDegrees>-1.69103085994720458984375</LongitudeDegrees>
            </Position>
            <AltitudeMeters>79.40000152587890625</AltitudeMeters>
            <DistanceMeters>NAN</DistanceMeters>
          </Trackpoint>
          <Trackpoint>
            <Time>2021-08-10T14:04:15.000Z</Time>
            <Position>
              <LatitudeDegrees>43.2520669139921665191650390625</LatitudeDegrees>
              <LongitudeDegrees>-1.69109397567808628082275390625</LongitudeDegrees>
            </Position>
            <AltitudeMeters>79.40000152587890625</AltitudeMeters>
            <DistanceMeters>NAN</DistanceMeters>
          </Trackpoint>
          <Trackpoint>
            <Time>2021-08-10T14:04:16.000Z</Time>
            <Position>
              <LatitudeDegrees>43.25206465087831020355224609375</LatitudeDegrees>
              <LongitudeDegrees>-1.6911582648754119873046875</LongitudeDegrees>
            </Position>
            <AltitudeMeters>79.40000152587890625</AltitudeMeters>
            <DistanceMeters>NAN</DistanceMeters>
          </Trackpoint>
          <Trackpoint>
            <Time>2021-08-10T14:04:17.000Z</Time>
            <Position>
              <LatitudeDegrees>43.25205861590802669525146484375</LatitudeDegrees>
              <LongitudeDegrees>-1.69123814441263675689697265625</LongitudeDegrees>
            </Position>
            <AltitudeMeters>79.40000152587890625</AltitudeMeters>
            <DistanceMeters>NAN</DistanceMeters>
          </Trackpoint>
          <Trackpoint>
            <Time>2021-08-10T14:04:18.000Z</Time>
            <Position>
              <LatitudeDegrees>43.25205308385193347930908203125</LatitudeDegrees>
              <LongitudeDegrees>-1.69129011221230030059814453125</LongitudeDegrees>
            </Position>
            <AltitudeMeters>79.40000152587890625</AltitudeMeters>
            <DistanceMeters>NAN</DistanceMeters>
          </Trackpoint>
          <Trackpoint>
            <Time>2021-08-10T14:04:19.000Z</Time>
            <Position>
              <LatitudeDegrees>43.25204688124358654022216796875</LatitudeDegrees>
              <LongitudeDegrees>-1.69135834090411663055419921875</LongitudeDegrees>
            </Position>
            <AltitudeMeters>79.40000152587890625</AltitudeMeters>
            <DistanceMeters>NAN</DistanceMeters>
          </Trackpoint>
          <Trackpoint>
            <Time>2021-08-10T14:04:20.000Z</Time>
            <Position>
              <LatitudeDegrees>43.2520350627601146697998046875</LatitudeDegrees>
              <LongitudeDegrees>-1.6914300061762332916259765625</LongitudeDegrees>
            </Position>
            <AltitudeMeters>79.40000152587890625</AltitudeMeters>
            <DistanceMeters>NAN</DistanceMeters>
          </Trackpoint>
          <Trackpoint>
            <Time>2021-08-10T14:04:21.000Z</Time>
            <Position>
              <LatitudeDegrees>43.2520256750285625457763671875</LatitudeDegrees>
              <LongitudeDegrees>-1.69151525013148784637451171875</LongitudeDegrees>
            </Position>
            <AltitudeMeters>79.40000152587890625</AltitudeMeters>
            <DistanceMeters>NAN</DistanceMeters>
          </Trackpoint>
          <Trackpoint>
            <Time>2021-08-10T14:04:22.000Z</Time>
            <Position>
              <LatitudeDegrees>43.252018801867961883544921875</LatitudeDegrees>
              <LongitudeDegrees>-1.69158616103231906890869140625</LongitudeDegrees>
            </Position>
            <AltitudeMeters>79.40000152587890625</AltitudeMeters>
            <DistanceMeters>NAN</DistanceMeters>
          </Trackpoint>
          <Trackpoint>
            <Time>2021-08-10T14:04:23.000Z</Time>
            <Position>
              <LatitudeDegrees>43.25201150961220264434814453125</LatitudeDegrees>
              <LongitudeDegrees>-1.69166210107505321502685546875</LongitudeDegrees>
            </Position>
            <AltitudeMeters>79.40000152587890625</AltitudeMeters>
            <DistanceMeters>NAN</DistanceMeters>
          </Trackpoint>
          <Trackpoint>
            <Time>2021-08-10T14:04:24.000Z</Time>
            <Position>
              <LatitudeDegrees>43.25200698338449001312255859375</LatitudeDegrees>
              <LongitudeDegrees>-1.69172354042530059814453125</LongitudeDegrees>
            </Position>
            <AltitudeMeters>79.40000152587890625</AltitudeMeters>
            <DistanceMeters>NAN</DistanceMeters>
          </Trackpoint>
          <Trackpoint>
            <Time>2021-08-10T14:04:25.000Z</Time>
            <Position>
              <LatitudeDegrees>43.2520018704235553741455078125</LatitudeDegrees>
              <LongitudeDegrees>-1.6918018274009227752685546875</LongitudeDegrees>
            </Position>
            <AltitudeMeters>79.1999969482421875</AltitudeMeters>
            <DistanceMeters>NAN</DistanceMeters>
          </Trackpoint>
          <Trackpoint>
            <Time>2021-08-10T14:04:26.000Z</Time>
            <Position>
              <LatitudeDegrees>43.25199902057647705078125</LatitudeDegrees>
              <LongitudeDegrees>-1.69189478270709514617919921875</LongitudeDegrees>
            </Position>
            <AltitudeMeters>79.1999969482421875</AltitudeMeters>
            <DistanceMeters>NAN</DistanceMeters>
          </Trackpoint>
          <Trackpoint>
            <Time>2021-08-10T14:04:31.000Z</Time>
            <Position>
              <LatitudeDegrees>43.2520226575434207916259765625</LatitudeDegrees>
              <LongitudeDegrees>-1.69228336773812770843505859375</LongitudeDegrees>
            </Position>
            <AltitudeMeters>78.8000030517578125</AltitudeMeters>
            <DistanceMeters>NAN</DistanceMeters>
          </Trackpoint>
          <Trackpoint>
            <Time>2021-08-10T14:04:33.000Z</Time>
            <Position>
              <LatitudeDegrees>43.251993656158447265625</LatitudeDegrees>
              <LongitudeDegrees>-1.69244580902159214019775390625</LongitudeDegrees>
            </Position>
            <AltitudeMeters>78.40000152587890625</AltitudeMeters>
            <DistanceMeters>NAN</DistanceMeters>
          </Trackpoint>
          <Trackpoint>
            <Time>2021-08-10T14:04:34.000Z</Time>
            <Position>
              <LatitudeDegrees>43.25195736251771450042724609375</LatitudeDegrees>
              <LongitudeDegrees>-1.692508421838283538818359375</LongitudeDegrees>
            </Position>
            <AltitudeMeters>78.1999969482421875</AltitudeMeters>
            <DistanceMeters>NAN</DistanceMeters>
          </Trackpoint>
          <Trackpoint>
            <Time>2021-08-10T14:04:35.000Z</Time>
            <Position>
              <LatitudeDegrees>43.25191092677414417266845703125</LatitudeDegrees>
              <LongitudeDegrees>-1.6925478167831897735595703125</LongitudeDegrees>
            </Position>
            <AltitudeMeters>78.1999969482421875</AltitudeMeters>
            <DistanceMeters>NAN</DistanceMeters>
          </Trackpoint>
          <Trackpoint>
            <Time>2021-08-10T14:04:36.000Z</Time>
            <Position>
              <LatitudeDegrees>43.25185191817581653594970703125</LatitudeDegrees>
              <LongitudeDegrees>-1.69257489033043384552001953125</LongitudeDegrees>
            </Position>
            <AltitudeMeters>78.1999969482421875</AltitudeMeters>
            <DistanceMeters>NAN</DistanceMeters>
          </Trackpoint>
          <Trackpoint>
            <Time>2021-08-10T14:04:37.000Z</Time>
            <Position>
              <LatitudeDegrees>43.25181327760219573974609375</LatitudeDegrees>
              <LongitudeDegrees>-1.6925852000713348388671875</LongitudeDegrees>
            </Position>
            <AltitudeMeters>78.1999969482421875</AltitudeMeters>
            <DistanceMeters>NAN</DistanceMeters>
          </Trackpoint>
          <Trackpoint>
            <Time>2021-08-10T14:04:38.000Z</Time>
            <Position>
              <LatitudeDegrees>43.25176558457314968109130859375</LatitudeDegrees>
              <LongitudeDegrees>-1.6926038078963756561279296875</LongitudeDegrees>
            </Position>
            <AltitudeMeters>78.1999969482421875</AltitudeMeters>
            <DistanceMeters>NAN</DistanceMeters>
          </Trackpoint>
          <Trackpoint>
            <Time>2021-08-10T14:04:39.000Z</Time>
            <Position>
              <LatitudeDegrees>43.25172250159084796905517578125</LatitudeDegrees>
              <LongitudeDegrees>-1.692627780139446258544921875</LongitudeDegrees>
            </Position>
            <AltitudeMeters>78.1999969482421875</AltitudeMeters>
            <DistanceMeters>NAN</DistanceMeters>
          </Trackpoint>
          <Trackpoint>
            <Time>2021-08-10T14:04:40.000Z</Time>
            <Position>
              <LatitudeDegrees>43.2516820169985294342041015625</LatitudeDegrees>
              <LongitudeDegrees>-1.6926562786102294921875</LongitudeDegrees>
            </Position>
            <AltitudeMeters>78.1999969482421875</AltitudeMeters>
            <DistanceMeters>NAN</DistanceMeters>
          </Trackpoint>
          <Trackpoint>
            <Time>2021-08-10T14:04:41.000Z</Time>
            <Position>
              <LatitudeDegrees>43.25164421461522579193115234375</LatitudeDegrees>
              <LongitudeDegrees>-1.69268871657550334930419921875</LongitudeDegrees>
            </Position>
            <AltitudeMeters>78.1999969482421875</AltitudeMeters>
            <DistanceMeters>NAN</DistanceMeters>
          </Trackpoint>
          <Trackpoint>
            <Time>2021-08-10T14:04:42.000Z</Time>
            <Position>
              <LatitudeDegrees>43.2516126148402690887451171875</LatitudeDegrees>
              <LongitudeDegrees>-1.69272601604461669921875</LongitudeDegrees>
            </Position>
            <AltitudeMeters>78.1999969482421875</AltitudeMeters>
            <DistanceMeters>NAN</DistanceMeters>
          </Trackpoint>
          <Trackpoint>
            <Time>2021-08-10T14:04:43.000Z</Time>
            <Position>
              <LatitudeDegrees>43.251587636768817901611328125</LatitudeDegrees>
              <LongitudeDegrees>-1.692767255008220672607421875</LongitudeDegrees>
            </Position>
            <AltitudeMeters>78.1999969482421875</AltitudeMeters>
            <DistanceMeters>NAN</DistanceMeters>
          </Trackpoint>
          <Trackpoint>
            <Time>2021-08-10T14:04:44.000Z</Time>
            <Position>
              <LatitudeDegrees>43.251566849648952484130859375</LatitudeDegrees>
              <LongitudeDegrees>-1.69280983507633209228515625</LongitudeDegrees>
            </Position>
            <AltitudeMeters>78.40000152587890625</AltitudeMeters>
            <DistanceMeters>NAN</DistanceMeters>
          </Trackpoint>
          <Trackpoint>
            <Time>2021-08-10T14:04:45.000Z</Time>
            <Position>
              <LatitudeDegrees>43.25154933147132396697998046875</LatitudeDegrees>
              <LongitudeDegrees>-1.6928509064018726348876953125</LongitudeDegrees>
            </Position>
            <AltitudeMeters>78.40000152587890625</AltitudeMeters>
            <DistanceMeters>NAN</DistanceMeters>
          </Trackpoint>
          <Trackpoint>
            <Time>2021-08-10T14:04:46.000Z</Time>
            <Position>
              <LatitudeDegrees>43.2515391893684864044189453125</LatitudeDegrees>
              <LongitudeDegrees>-1.6928864456713199615478515625</LongitudeDegrees>
            </Position>
            <AltitudeMeters>78.8000030517578125</AltitudeMeters>
            <DistanceMeters>NAN</DistanceMeters>
          </Trackpoint>
          <Trackpoint>
            <Time>2021-08-10T14:04:47.000Z</Time>
            <Position>
              <LatitudeDegrees>43.251532651484012603759765625</LatitudeDegrees>
              <LongitudeDegrees>-1.69292056001722812652587890625</LongitudeDegrees>
            </Position>
            <AltitudeMeters>78.8000030517578125</AltitudeMeters>
            <DistanceMeters>NAN</DistanceMeters>
          </Trackpoint>
          <Trackpoint>
            <Time>2021-08-10T14:04:48.000Z</Time>
            <Position>
              <LatitudeDegrees>43.25152535922825336456298828125</LatitudeDegrees>
              <LongitudeDegrees>-1.692950315773487091064453125</LongitudeDegrees>
            </Position>
            <AltitudeMeters>79</AltitudeMeters>
            <DistanceMeters>NAN</DistanceMeters>
          </Trackpoint>
          <Trackpoint>
            <Time>2021-08-10T14:04:49.000Z</Time>
            <Position>
              <LatitudeDegrees>43.25151764787733554840087890625</LatitudeDegrees>
              <LongitudeDegrees>-1.69297168962657451629638671875</LongitudeDegrees>
            </Position>
            <AltitudeMeters>79.1999969482421875</AltitudeMeters>
            <DistanceMeters>NAN</DistanceMeters>
          </Trackpoint>
          <Trackpoint>
            <Time>2021-08-10T14:04:50.000Z</Time>
            <Position>
              <LatitudeDegrees>43.2515143789350986480712890625</LatitudeDegrees>
              <LongitudeDegrees>-1.69298258610069751739501953125</LongitudeDegrees>
            </Position>
            <AltitudeMeters>79.40000152587890625</AltitudeMeters>
            <DistanceMeters>NAN</DistanceMeters>
          </Trackpoint>
          <Trackpoint>
            <Time>2021-08-10T14:04:53.000Z</Time>
            <Position>
              <LatitudeDegrees>43.2515143789350986480712890625</LatitudeDegrees>
              <LongitudeDegrees>-1.69298258610069751739501953125</LongitudeDegrees>
            </Position>
            <AltitudeMeters>79.8000030517578125</AltitudeMeters>
            <DistanceMeters>NAN</DistanceMeters>
          </Trackpoint>
          <Trackpoint>
            <Time>2021-08-10T14:04:56.000Z</Time>
            <Position>
              <LatitudeDegrees>43.2515143789350986480712890625</LatitudeDegrees>
              <LongitudeDegrees>-1.69298258610069751739501953125</LongitudeDegrees>
            </Position>
            <AltitudeMeters>79.8000030517578125</AltitudeMeters>
            <DistanceMeters>NAN</DistanceMeters>
          </Trackpoint>
          <Trackpoint>
            <Time>2021-08-10T14:04:59.000Z</Time>
            <Position>
              <LatitudeDegrees>43.2515143789350986480712890625</LatitudeDegrees>
              <LongitudeDegrees>-1.69298258610069751739501953125</LongitudeDegrees>
            </Position>
            <AltitudeMeters>80</AltitudeMeters>
            <DistanceMeters>NAN</DistanceMeters>
          </Trackpoint>
          <Trackpoint>
            <Time>2021-08-10T14:05:04.000Z</Time>
            <Position>
              <LatitudeDegrees>43.2515143789350986480712890625</LatitudeDegrees>
              <LongitudeDegrees>-1.69298258610069751739501953125</LongitudeDegrees>
            </Position>
            <AltitudeMeters>80</AltitudeMeters>
            <DistanceMeters>NAN</DistanceMeters>
          </Trackpoint>
          <Trackpoint>
            <Time>2021-08-10T14:05:39.000Z</Time>
            <Position>
              <LatitudeDegrees>43.251485712826251983642578125</LatitudeDegrees>
              <LongitudeDegrees>-1.69305064715445041656494140625</LongitudeDegrees>
            </Position>
            <AltitudeMeters>79.59999847412109375</AltitudeMeters>
            <DistanceMeters>NAN</DistanceMeters>
          </Trackpoint>
          <Trackpoint>
            <Time>2021-08-10T14:05:45.000Z</Time>
            <Position>
              <LatitudeDegrees>43.2514044083654880523681640625</LatitudeDegrees>
              <LongitudeDegrees>-1.69328785501420497894287109375</LongitudeDegrees>
            </Position>
            <AltitudeMeters>79.59999847412109375</AltitudeMeters>
            <DistanceMeters>NAN</DistanceMeters>
          </Trackpoint>
          <Trackpoint>
            <Time>2021-08-10T14:05:49.000Z</Time>
            <Position>
              <LatitudeDegrees>43.251341544091701507568359375</LatitudeDegrees>
              <LongitudeDegrees>-1.69349648058414459228515625</LongitudeDegrees>
            </Position>
            <AltitudeMeters>79.8000030517578125</AltitudeMeters>
            <DistanceMeters>NAN</DistanceMeters>
          </Trackpoint>
          <Trackpoint>
            <Time>2021-08-10T14:05:52.000Z</Time>
            <Position>
              <LatitudeDegrees>43.2512884028255939483642578125</LatitudeDegrees>
              <LongitudeDegrees>-1.693631596863269805908203125</LongitudeDegrees>
            </Position>
            <AltitudeMeters>80</AltitudeMeters>
            <DistanceMeters>NAN</DistanceMeters>
          </Trackpoint>
          <Trackpoint>
            <Time>2021-08-10T14:06:00.000Z</Time>
            <Position>
              <LatitudeDegrees>43.2511046715080738067626953125</LatitudeDegrees>
              <LongitudeDegrees>-1.6940106265246868133544921875</LongitudeDegrees>
            </Position>
            <AltitudeMeters>80.59999847412109375</AltitudeMeters>
            <DistanceMeters>NAN</DistanceMeters>
          </Trackpoint>
          <Trackpoint>
            <Time>2021-08-10T14:06:05.000Z</Time>
            <Position>
              <LatitudeDegrees>43.25098003260791301727294921875</LatitudeDegrees>
              <LongitudeDegrees>-1.69425764121115207672119140625</LongitudeDegrees>
            </Position>
            <AltitudeMeters>81</AltitudeMeters>
            <DistanceMeters>NAN</DistanceMeters>
          </Trackpoint>
          <Trackpoint>
            <Time>2021-08-10T14:06:06.000Z</Time>
            <Position>
              <LatitudeDegrees>43.25095421634614467620849609375</LatitudeDegrees>
              <LongitudeDegrees>-1.6943090222775936126708984375</LongitudeDegrees>
            </Position>
            <AltitudeMeters>81.1999969482421875</AltitudeMeters>
            <DistanceMeters>NAN</DistanceMeters>
          </Trackpoint>
          <Trackpoint>
            <Time>2021-08-10T14:06:07.000Z</Time>
            <Position>
              <LatitudeDegrees>43.25092739425599575042724609375</LatitudeDegrees>
              <LongitudeDegrees>-1.6943589784204959869384765625</LongitudeDegrees>
            </Position>
            <AltitudeMeters>81.40000152587890625</AltitudeMeters>
            <DistanceMeters>NAN</DistanceMeters>
          </Trackpoint>
          <Trackpoint>
            <Time>2021-08-10T14:06:12.000Z</Time>
            <Position>
              <LatitudeDegrees>43.250789679586887359619140625</LatitudeDegrees>
              <LongitudeDegrees>-1.6946104355156421661376953125</LongitudeDegrees>
            </Position>
            <AltitudeMeters>82</AltitudeMeters>
            <DistanceMeters>NAN</DistanceMeters>
          </Trackpoint>
          <Trackpoint>
            <Time>2021-08-10T14:06:14.000Z</Time>
            <Position>
              <LatitudeDegrees>43.2507237978279590606689453125</LatitudeDegrees>
              <LongitudeDegrees>-1.69468930922448635101318359375</LongitudeDegrees>
            </Position>
            <AltitudeMeters>82.1999969482421875</AltitudeMeters>
            <DistanceMeters>NAN</DistanceMeters>
          </Trackpoint>
          <Trackpoint>
            <Time>2021-08-10T14:06:15.000Z</Time>
            <Position>
              <LatitudeDegrees>43.250691778957843780517578125</LatitudeDegrees>
              <LongitudeDegrees>-1.6947287879884243011474609375</LongitudeDegrees>
            </Position>
            <AltitudeMeters>82.1999969482421875</AltitudeMeters>
            <DistanceMeters>NAN</DistanceMeters>
          </Trackpoint>
          <Trackpoint>
            <Time>2021-08-10T14:06:17.000Z</Time>
            <Position>
              <LatitudeDegrees>43.2506332732737064361572265625</LatitudeDegrees>
              <LongitudeDegrees>-1.69482207857072353363037109375</LongitudeDegrees>
            </Position>
            <AltitudeMeters>82.59999847412109375</AltitudeMeters>
            <DistanceMeters>NAN</DistanceMeters>
          </Trackpoint>
          <Trackpoint>
            <Time>2021-08-10T14:06:19.000Z</Time>
            <Position>
              <LatitudeDegrees>43.2505635358393192291259765625</LatitudeDegrees>
              <LongitudeDegrees>-1.6949051432311534881591796875</LongitudeDegrees>
            </Position>
            <AltitudeMeters>82.59999847412109375</AltitudeMeters>
            <DistanceMeters>NAN</DistanceMeters>
          </Trackpoint>
          <Trackpoint>
            <Time>2021-08-10T14:06:30.000Z</Time>
            <Position>
              <LatitudeDegrees>43.25018291361629962921142578125</LatitudeDegrees>
              <LongitudeDegrees>-1.695349551737308502197265625</LongitudeDegrees>
            </Position>
            <AltitudeMeters>83</AltitudeMeters>
            <DistanceMeters>NAN</DistanceMeters>
          </Trackpoint>
          <Trackpoint>
            <Time>2021-08-10T14:06:41.000Z</Time>
            <Position>
              <LatitudeDegrees>43.249778486788272857666015625</LatitudeDegrees>
              <LongitudeDegrees>-1.6958348639309406280517578125</LongitudeDegrees>
            </Position>
            <AltitudeMeters>83.59999847412109375</AltitudeMeters>
            <DistanceMeters>NAN</DistanceMeters>
          </Trackpoint>
          <Trackpoint>
            <Time>2021-08-10T14:06:49.000Z</Time>
            <Position>
              <LatitudeDegrees>43.24946877546608448028564453125</LatitudeDegrees>
              <LongitudeDegrees>-1.69626208953559398651123046875</LongitudeDegrees>
            </Position>
            <AltitudeMeters>83.8000030517578125</AltitudeMeters>
            <DistanceMeters>NAN</DistanceMeters>
          </Trackpoint>
          <Trackpoint>
            <Time>2021-08-10T14:06:58.000Z</Time>
            <Position>
              <LatitudeDegrees>43.24911355040967464447021484375</LatitudeDegrees>
              <LongitudeDegrees>-1.696814708411693572998046875</LongitudeDegrees>
            </Position>
            <AltitudeMeters>83.8000030517578125</AltitudeMeters>
            <DistanceMeters>NAN</DistanceMeters>
          </Trackpoint>
          <Trackpoint>
            <Time>2021-08-10T14:07:01.000Z</Time>
            <Position>
              <LatitudeDegrees>43.24899201281368732452392578125</LatitudeDegrees>
              <LongitudeDegrees>-1.6970136947929859161376953125</LongitudeDegrees>
            </Position>
            <AltitudeMeters>83.8000030517578125</AltitudeMeters>
            <DistanceMeters>NAN</DistanceMeters>
          </Trackpoint>
          <Trackpoint>
            <Time>2021-08-10T14:07:04.000Z</Time>
            <Position>
              <LatitudeDegrees>43.248881287872791290283203125</LatitudeDegrees>
              <LongitudeDegrees>-1.6972567699849605560302734375</LongitudeDegrees>
            </Position>
            <AltitudeMeters>83.59999847412109375</AltitudeMeters>
            <DistanceMeters>NAN</DistanceMeters>
          </Trackpoint>
          <Trackpoint>
            <Time>2021-08-10T14:07:10.000Z</Time>
            <Position>
              <LatitudeDegrees>43.24868523515760898590087890625</LatitudeDegrees>
              <LongitudeDegrees>-1.69775457121431827545166015625</LongitudeDegrees>
            </Position>
            <AltitudeMeters>83</AltitudeMeters>
            <DistanceMeters>NAN</DistanceMeters>
          </Trackpoint>
          <Trackpoint>
            <Time>2021-08-10T14:07:11.000Z</Time>
            <Position>
              <LatitudeDegrees>43.2486538030207157135009765625</LatitudeDegrees>
              <LongitudeDegrees>-1.697838306427001953125</LongitudeDegrees>
            </Position>
            <AltitudeMeters>82.8000030517578125</AltitudeMeters>
            <DistanceMeters>NAN</DistanceMeters>
          </Trackpoint>
          <Trackpoint>
            <Time>2021-08-10T14:07:12.000Z</Time>
            <Position>
              <LatitudeDegrees>43.24862488545477390289306640625</LatitudeDegrees>
              <LongitudeDegrees>-1.69792053289711475372314453125</LongitudeDegrees>
            </Position>
            <AltitudeMeters>82.8000030517578125</AltitudeMeters>
            <DistanceMeters>NAN</DistanceMeters>
          </Trackpoint>
          <Trackpoint>
            <Time>2021-08-10T14:07:19.000Z</Time>
            <Position>
              <LatitudeDegrees>43.24841081164777278900146484375</LatitudeDegrees>
              <LongitudeDegrees>-1.69850391335785388946533203125</LongitudeDegrees>
            </Position>
            <AltitudeMeters>82</AltitudeMeters>
            <DistanceMeters>NAN</DistanceMeters>
          </Trackpoint>
          <Trackpoint>
            <Time>2021-08-10T14:07:21.000Z</Time>
            <Position>
              <LatitudeDegrees>43.24834643863141536712646484375</LatitudeDegrees>
              <LongitudeDegrees>-1.69866509735584259033203125</LongitudeDegrees>
            </Position>
            <AltitudeMeters>82</AltitudeMeters>
            <DistanceMeters>NAN</DistanceMeters>
          </Trackpoint>
          <Trackpoint>
            <Time>2021-08-10T14:07:30.000Z</Time>
            <Position>
              <LatitudeDegrees>43.24807687662541866302490234375</LatitudeDegrees>
              <LongitudeDegrees>-1.6993626393377780914306640625</LongitudeDegrees>
            </Position>
            <AltitudeMeters>82.1999969482421875</AltitudeMeters>
            <DistanceMeters>NAN</DistanceMeters>
          </Trackpoint>
          <Trackpoint>
            <Time>2021-08-10T14:07:31.000Z</Time>
            <Position>
              <LatitudeDegrees>43.24804904870688915252685546875</LatitudeDegrees>
              <LongitudeDegrees>-1.6994330473244190216064453125</LongitudeDegrees>
            </Position>
            <AltitudeMeters>82.1999969482421875</AltitudeMeters>
            <DistanceMeters>NAN</DistanceMeters>
          </Trackpoint>
          <Trackpoint>
            <Time>2021-08-10T14:07:32.000Z</Time>
            <Position>
              <LatitudeDegrees>43.2480224780738353729248046875</LatitudeDegrees>
              <LongitudeDegrees>-1.699498929083347320556640625</LongitudeDegrees>
            </Position>
            <AltitudeMeters>82.40000152587890625</AltitudeMeters>
            <DistanceMeters>NAN</DistanceMeters>
          </Trackpoint>
          <Trackpoint>
            <Time>2021-08-10T14:07:33.000Z</Time>
            <Position>
              <LatitudeDegrees>43.2479996792972087860107421875</LatitudeDegrees>
              <LongitudeDegrees>-1.69956690631806850433349609375</LongitudeDegrees>
            </Position>
            <AltitudeMeters>82.40000152587890625</AltitudeMeters>
            <DistanceMeters>NAN</DistanceMeters>
          </Trackpoint>
          <Trackpoint>
            <Time>2021-08-10T14:07:34.000Z</Time>
            <Position>
              <LatitudeDegrees>43.24797503650188446044921875</LatitudeDegrees>
              <LongitudeDegrees>-1.6996474564075469970703125</LongitudeDegrees>
            </Position>
            <AltitudeMeters>82.40000152587890625</AltitudeMeters>
            <DistanceMeters>NAN</DistanceMeters>
          </Trackpoint>
          <Trackpoint>
            <Time>2021-08-10T14:07:35.000Z</Time>
            <Position>
              <LatitudeDegrees>43.24795483611524105072021484375</LatitudeDegrees>
              <LongitudeDegrees>-1.69970185495913028717041015625</LongitudeDegrees>
            </Position>
            <AltitudeMeters>82.40000152587890625</AltitudeMeters>
            <DistanceMeters>NAN</DistanceMeters>
          </Trackpoint>
          <Trackpoint>
            <Time>2021-08-10T14:07:38.000Z</Time>
            <Position>
              <LatitudeDegrees>43.247879482805728912353515625</LatitudeDegrees>
              <LongitudeDegrees>-1.69989178888499736785888671875</LongitudeDegrees>
            </Position>
            <AltitudeMeters>82.40000152587890625</AltitudeMeters>
            <DistanceMeters>NAN</DistanceMeters>
          </Trackpoint>
          <Trackpoint>
            <Time>2021-08-10T14:07:39.000Z</Time>
            <Position>
              <LatitudeDegrees>43.247857354581356048583984375</LatitudeDegrees>
              <LongitudeDegrees>-1.69995398260653018951416015625</LongitudeDegrees>
            </Position>
            <AltitudeMeters>82.40000152587890625</AltitudeMeters>
            <DistanceMeters>NAN</DistanceMeters>
          </Trackpoint>
          <Trackpoint>
            <Time>2021-08-10T14:07:40.000Z</Time>
            <Position>
              <LatitudeDegrees>43.2478323765099048614501953125</LatitudeDegrees>
              <LongitudeDegrees>-1.700026988983154296875</LongitudeDegrees>
            </Position>
            <AltitudeMeters>82.40000152587890625</AltitudeMeters>
            <DistanceMeters>NAN</DistanceMeters>
          </Trackpoint>
          <Trackpoint>
            <Time>2021-08-10T14:07:41.000Z</Time>
            <Position>
              <LatitudeDegrees>43.24781502597033977508544921875</LatitudeDegrees>
              <LongitudeDegrees>-1.70007585547864437103271484375</LongitudeDegrees>
            </Position>
            <AltitudeMeters>82.40000152587890625</AltitudeMeters>
            <DistanceMeters>NAN</DistanceMeters>
          </Trackpoint>
          <Trackpoint>
            <Time>2021-08-10T14:07:42.000Z</Time>
            <Position>
              <LatitudeDegrees>43.2477918080985546112060546875</LatitudeDegrees>
              <LongitudeDegrees>-1.7001367919147014617919921875</LongitudeDegrees>
            </Position>
            <AltitudeMeters>82.40000152587890625</AltitudeMeters>
            <DistanceMeters>NAN</DistanceMeters>
          </Trackpoint>
          <Trackpoint>
            <Time>2021-08-10T14:07:43.000Z</Time>
            <Position>
              <LatitudeDegrees>43.24776909314095973968505859375</LatitudeDegrees>
              <LongitudeDegrees>-1.700199656188488006591796875</LongitudeDegrees>
            </Position>
            <AltitudeMeters>82.40000152587890625</AltitudeMeters>
            <DistanceMeters>NAN</DistanceMeters>
          </Trackpoint>
          <Trackpoint>
            <Time>2021-08-10T14:07:44.000Z</Time>
            <Position>
              <LatitudeDegrees>43.24774528853595256805419921875</LatitudeDegrees>
              <LongitudeDegrees>-1.7002608440816402435302734375</LongitudeDegrees>
            </Position>
            <AltitudeMeters>82.40000152587890625</AltitudeMeters>
            <DistanceMeters>NAN</DistanceMeters>
          </Trackpoint>
          <Trackpoint>
            <Time>2021-08-10T14:07:45.000Z</Time>
            <Position>
              <LatitudeDegrees>43.24771963991224765777587890625</LatitudeDegrees>
              <LongitudeDegrees>-1.70032178051769733428955078125</LongitudeDegrees>
            </Position>
            <AltitudeMeters>82.40000152587890625</AltitudeMeters>
            <DistanceMeters>NAN</DistanceMeters>
          </Trackpoint>
          <Trackpoint>
            <Time>2021-08-10T14:07:46.000Z</Time>
            <Position>
              <LatitudeDegrees>43.2476902194321155548095703125</LatitudeDegrees>
              <LongitudeDegrees>-1.700396127998828887939453125</LongitudeDegrees>
            </Position>
            <AltitudeMeters>82.40000152587890625</AltitudeMeters>
            <DistanceMeters>NAN</DistanceMeters>
          </Trackpoint>
          <Trackpoint>
            <Time>2021-08-10T14:07:47.000Z</Time>
            <Position>
              <LatitudeDegrees>43.24766926467418670654296875</LatitudeDegrees>
              <LongitudeDegrees>-1.70044398866593837738037109375</LongitudeDegrees>
            </Position>
            <AltitudeMeters>82.40000152587890625</AltitudeMeters>
            <DistanceMeters>NAN</DistanceMeters>
          </Trackpoint>
          <Trackpoint>
            <Time>2021-08-10T14:07:48.000Z</Time>
            <Position>
              <LatitudeDegrees>43.24764252640306949615478515625</LatitudeDegrees>
              <LongitudeDegrees>-1.700500734150409698486328125</LongitudeDegrees>
            </Position>
            <AltitudeMeters>82.40000152587890625</AltitudeMeters>
            <DistanceMeters>NAN</DistanceMeters>
          </Trackpoint>
          <Trackpoint>
            <Time>2021-08-10T14:07:50.000Z</Time>
            <Position>
              <LatitudeDegrees>43.24758837930858135223388671875</LatitudeDegrees>
              <LongitudeDegrees>-1.70062185265123844146728515625</LongitudeDegrees>
            </Position>
            <AltitudeMeters>82.59999847412109375</AltitudeMeters>
            <DistanceMeters>NAN</DistanceMeters>
          </Trackpoint>
          <Trackpoint>
            <Time>2021-08-10T14:07:52.000Z</Time>
            <Position>
              <LatitudeDegrees>43.247546888887882232666015625</LatitudeDegrees>
              <LongitudeDegrees>-1.70072863809764385223388671875</LongitudeDegrees>
            </Position>
            <AltitudeMeters>82.59999847412109375</AltitudeMeters>
            <DistanceMeters>NAN</DistanceMeters>
          </Trackpoint>
          <Trackpoint>
            <Time>2021-08-10T14:07:53.000Z</Time>
            <Position>
              <LatitudeDegrees>43.24753859080374240875244140625</LatitudeDegrees>
              <LongitudeDegrees>-1.70076803304255008697509765625</LongitudeDegrees>
            </Position>
            <AltitudeMeters>82.59999847412109375</AltitudeMeters>
            <DistanceMeters>NAN</DistanceMeters>
          </Trackpoint>
          <Trackpoint>
            <Time>2021-08-10T14:07:54.000Z</Time>
            <Position>
              <LatitudeDegrees>43.24752802960574626922607421875</LatitudeDegrees>
              <LongitudeDegrees>-1.7008170671761035919189453125</LongitudeDegrees>
            </Position>
            <AltitudeMeters>82.59999847412109375</AltitudeMeters>
            <DistanceMeters>NAN</DistanceMeters>
          </Trackpoint>
          <Trackpoint>
            <Time>2021-08-10T14:07:55.000Z</Time>
            <Position>
              <LatitudeDegrees>43.2475225813686847686767578125</LatitudeDegrees>
              <LongitudeDegrees>-1.7008609883487224578857421875</LongitudeDegrees>
            </Position>
            <AltitudeMeters>82.59999847412109375</AltitudeMeters>
            <DistanceMeters>NAN</DistanceMeters>
          </Trackpoint>
          <Trackpoint>
            <Time>2021-08-10T14:07:56.000Z</Time>
            <Position>
              <LatitudeDegrees>43.24751931242644786834716796875</LatitudeDegrees>
              <LongitudeDegrees>-1.70090742409229278564453125</LongitudeDegrees>
            </Position>
            <AltitudeMeters>82.59999847412109375</AltitudeMeters>
            <DistanceMeters>NAN</DistanceMeters>
          </Trackpoint>
          <Trackpoint>
            <Time>2021-08-10T14:07:57.000Z</Time>
            <Position>
              <LatitudeDegrees>43.24751528911292552947998046875</LatitudeDegrees>
              <LongitudeDegrees>-1.7009374313056468963623046875</LongitudeDegrees>
            </Position>
            <AltitudeMeters>82.59999847412109375</AltitudeMeters>
            <DistanceMeters>NAN</DistanceMeters>
          </Trackpoint>
          <Trackpoint>
            <Time>2021-08-10T14:07:58.000Z</Time>
            <Position>
              <LatitudeDegrees>43.24750690720975399017333984375</LatitudeDegrees>
              <LongitudeDegrees>-1.70096919871866703033447265625</LongitudeDegrees>
            </Position>
            <AltitudeMeters>82.59999847412109375</AltitudeMeters>
            <DistanceMeters>NAN</DistanceMeters>
          </Trackpoint>
          <Trackpoint>
            <Time>2021-08-10T14:07:59.000Z</Time>
            <Position>
              <LatitudeDegrees>43.24749785475432872772216796875</LatitudeDegrees>
              <LongitudeDegrees>-1.7009971104562282562255859375</LongitudeDegrees>
            </Position>
            <AltitudeMeters>82.40000152587890625</AltitudeMeters>
            <DistanceMeters>NAN</DistanceMeters>
          </Trackpoint>
          <Trackpoint>
            <Time>2021-08-10T14:08:00.000Z</Time>
            <Position>
              <LatitudeDegrees>43.24749081395566463470458984375</LatitudeDegrees>
              <LongitudeDegrees>-1.701025106012821197509765625</LongitudeDegrees>
            </Position>
            <AltitudeMeters>82.40000152587890625</AltitudeMeters>
            <DistanceMeters>NAN</DistanceMeters>
          </Trackpoint>
          <Trackpoint>
            <Time>2021-08-10T14:08:01.000Z</Time>
            <Position>
              <LatitudeDegrees>43.247480504214763641357421875</LatitudeDegrees>
              <LongitudeDegrees>-1.70105301775038242340087890625</LongitudeDegrees>
            </Position>
            <AltitudeMeters>82.40000152587890625</AltitudeMeters>
            <DistanceMeters>NAN</DistanceMeters>
          </Trackpoint>
          <Trackpoint>
            <Time>2021-08-10T14:08:02.000Z</Time>
            <Position>
              <LatitudeDegrees>43.24746784754097461700439453125</LatitudeDegrees>
              <LongitudeDegrees>-1.70106357894837856292724609375</LongitudeDegrees>
            </Position>
            <AltitudeMeters>82.40000152587890625</AltitudeMeters>
            <DistanceMeters>NAN</DistanceMeters>
          </Trackpoint>
          <Trackpoint>
            <Time>2021-08-10T14:08:03.000Z</Time>
            <Position>
              <LatitudeDegrees>43.2474575378000736236572265625</LatitudeDegrees>
              <LongitudeDegrees>-1.70106374658644199371337890625</LongitudeDegrees>
            </Position>
            <AltitudeMeters>82.40000152587890625</AltitudeMeters>
            <DistanceMeters>NAN</DistanceMeters>
          </Trackpoint>
          <Trackpoint>
            <Time>2021-08-10T14:08:04.000Z</Time>
            <Position>
              <LatitudeDegrees>43.2474535144865512847900390625</LatitudeDegrees>
              <LongitudeDegrees>-1.70106274075806140899658203125</LongitudeDegrees>
            </Position>
            <AltitudeMeters>82.40000152587890625</AltitudeMeters>
            <DistanceMeters>NAN</DistanceMeters>
          </Trackpoint>
          <Trackpoint>
            <Time>2021-08-10T14:08:05.000Z</Time>
            <Position>
              <LatitudeDegrees>43.2474535144865512847900390625</LatitudeDegrees>
              <LongitudeDegrees>-1.70106274075806140899658203125</LongitudeDegrees>
            </Position>
            <AltitudeMeters>82.40000152587890625</AltitudeMeters>
            <DistanceMeters>NAN</DistanceMeters>
          </Trackpoint>
          <Trackpoint>
            <Time>2021-08-10T14:08:23.000Z</Time>
            <Position>
              <LatitudeDegrees>43.2474535144865512847900390625</LatitudeDegrees>
              <LongitudeDegrees>-1.70106274075806140899658203125</LongitudeDegrees>
            </Position>
            <AltitudeMeters>82</AltitudeMeters>
            <DistanceMeters>NAN</DistanceMeters>
          </Trackpoint>
          <Trackpoint>
            <Time>2021-08-10T14:09:13.000Z</Time>
            <Position>
              <LatitudeDegrees>43.24742593802511692047119140625</LatitudeDegrees>
              <LongitudeDegrees>-1.70109090395271778106689453125</LongitudeDegrees>
            </Position>
            <AltitudeMeters>82.1999969482421875</AltitudeMeters>
            <DistanceMeters>NAN</DistanceMeters>
          </Trackpoint>
          <Trackpoint>
            <Time>2021-08-10T14:09:14.000Z</Time>
            <Position>
              <LatitudeDegrees>43.24741202406585216522216796875</LatitudeDegrees>
              <LongitudeDegrees>-1.70111487619578838348388671875</LongitudeDegrees>
            </Position>
            <AltitudeMeters>82.1999969482421875</AltitudeMeters>
            <DistanceMeters>NAN</DistanceMeters>
          </Trackpoint>
          <Trackpoint>
            <Time>2021-08-10T14:09:18.000Z</Time>
            <Position>
              <LatitudeDegrees>43.24732284061610698699951171875</LatitudeDegrees>
              <LongitudeDegrees>-1.7012502439320087432861328125</LongitudeDegrees>
            </Position>
            <AltitudeMeters>82.1999969482421875</AltitudeMeters>
            <DistanceMeters>NAN</DistanceMeters>
          </Trackpoint>
          <Trackpoint>
            <Time>2021-08-10T14:09:19.000Z</Time>
            <Position>
              <LatitudeDegrees>43.24730775319039821624755859375</LatitudeDegrees>
              <LongitudeDegrees>-1.7012847773730754852294921875</LongitudeDegrees>
            </Position>
            <AltitudeMeters>82.1999969482421875</AltitudeMeters>
            <DistanceMeters>NAN</DistanceMeters>
          </Trackpoint>
          <Trackpoint>
            <Time>2021-08-10T14:09:20.000Z</Time>
            <Position>
              <LatitudeDegrees>43.247291408479213714599609375</LatitudeDegrees>
              <LongitudeDegrees>-1.70131855644285678863525390625</LongitudeDegrees>
            </Position>
            <AltitudeMeters>82.1999969482421875</AltitudeMeters>
            <DistanceMeters>NAN</DistanceMeters>
          </Trackpoint>
          <Trackpoint>
            <Time>2021-08-10T14:09:21.000Z</Time>
            <Position>
              <LatitudeDegrees>43.247275985777378082275390625</LatitudeDegrees>
              <LongitudeDegrees>-1.70134940184652805328369140625</LongitudeDegrees>
            </Position>
            <AltitudeMeters>82.1999969482421875</AltitudeMeters>
            <DistanceMeters>NAN</DistanceMeters>
          </Trackpoint>
          <Trackpoint>
            <Time>2021-08-10T14:09:22.000Z</Time>
            <Position>
              <LatitudeDegrees>43.24726022779941558837890625</LatitudeDegrees>
              <LongitudeDegrees>-1.7013793252408504486083984375</LongitudeDegrees>
            </Position>
            <AltitudeMeters>82.1999969482421875</AltitudeMeters>
            <DistanceMeters>NAN</DistanceMeters>
          </Trackpoint>
          <Trackpoint>
            <Time>2021-08-10T14:09:23.000Z</Time>
            <Position>
              <LatitudeDegrees>43.2472473196685314178466796875</LatitudeDegrees>
              <LongitudeDegrees>-1.70140497386455535888671875</LongitudeDegrees>
            </Position>
            <AltitudeMeters>82.1999969482421875</AltitudeMeters>
            <DistanceMeters>NAN</DistanceMeters>
          </Trackpoint>
          <Trackpoint>
            <Time>2021-08-10T14:09:30.000Z</Time>
            <Position>
              <LatitudeDegrees>43.2471614889800548553466796875</LatitudeDegrees>
              <LongitudeDegrees>-1.70164964161813259124755859375</LongitudeDegrees>
            </Position>
            <AltitudeMeters>82.40000152587890625</AltitudeMeters>
            <DistanceMeters>NAN</DistanceMeters>
          </Trackpoint>
          <Trackpoint>
            <Time>2021-08-10T14:09:31.000Z</Time>
            <Position>
              <LatitudeDegrees>43.24715721420943737030029296875</LatitudeDegrees>
              <LongitudeDegrees>-1.70170177705585956573486328125</LongitudeDegrees>
            </Position>
            <AltitudeMeters>82.59999847412109375</AltitudeMeters>
            <DistanceMeters>NAN</DistanceMeters>
          </Trackpoint>
          <Trackpoint>
            <Time>2021-08-10T14:09:33.000Z</Time>
            <Position>
              <LatitudeDegrees>43.24715754948556423187255859375</LatitudeDegrees>
              <LongitudeDegrees>-1.701789200305938720703125</LongitudeDegrees>
            </Position>
            <AltitudeMeters>82.59999847412109375</AltitudeMeters>
            <DistanceMeters>NAN</DistanceMeters>
          </Trackpoint>
          <Trackpoint>
            <Time>2021-08-10T14:09:34.000Z</Time>
            <Position>
              <LatitudeDegrees>43.24715788476169109344482421875</LatitudeDegrees>
              <LongitudeDegrees>-1.701829433441162109375</LongitudeDegrees>
            </Position>
            <AltitudeMeters>82.59999847412109375</AltitudeMeters>
            <DistanceMeters>NAN</DistanceMeters>
          </Trackpoint>
          <Trackpoint>
            <Time>2021-08-10T14:09:36.000Z</Time>
            <Position>
              <LatitudeDegrees>43.24715704657137393951416015625</LatitudeDegrees>
              <LongitudeDegrees>-1.7019047029316425323486328125</LongitudeDegrees>
            </Position>
            <AltitudeMeters>82.59999847412109375</AltitudeMeters>
            <DistanceMeters>NAN</DistanceMeters>
          </Trackpoint>
          <Trackpoint>
            <Time>2021-08-10T14:09:38.000Z</Time>
            <Position>
              <LatitudeDegrees>43.24715570546686649322509765625</LatitudeDegrees>
              <LongitudeDegrees>-1.7019818164408206939697265625</LongitudeDegrees>
            </Position>
            <AltitudeMeters>82.8000030517578125</AltitudeMeters>
            <DistanceMeters>NAN</DistanceMeters>
          </Trackpoint>
          <Trackpoint>
            <Time>2021-08-10T14:09:40.000Z</Time>
            <Position>
              <LatitudeDegrees>43.24715402908623218536376953125</LatitudeDegrees>
              <LongitudeDegrees>-1.70206538401544094085693359375</LongitudeDegrees>
            </Position>
            <AltitudeMeters>82.8000030517578125</AltitudeMeters>
            <DistanceMeters>NAN</DistanceMeters>
          </Trackpoint>
          <Trackpoint>
            <Time>2021-08-10T14:09:41.000Z</Time>
            <Position>
              <LatitudeDegrees>43.247153945267200469970703125</LatitudeDegrees>
              <LongitudeDegrees>-1.70210511423647403717041015625</LongitudeDegrees>
            </Position>
            <AltitudeMeters>82.8000030517578125</AltitudeMeters>
            <DistanceMeters>NAN</DistanceMeters>
          </Trackpoint>
          <Trackpoint>
            <Time>2021-08-10T14:09:42.000Z</Time>
            <Position>
              <LatitudeDegrees>43.24715168215334415435791015625</LatitudeDegrees>
              <LongitudeDegrees>-1.70214316807687282562255859375</LongitudeDegrees>
            </Position>
            <AltitudeMeters>82.8000030517578125</AltitudeMeters>
            <DistanceMeters>NAN</DistanceMeters>
          </Trackpoint>
          <Trackpoint>
            <Time>2021-08-10T14:09:43.000Z</Time>
            <Position>
              <LatitudeDegrees>43.24714497663080692291259765625</LatitudeDegrees>
              <LongitudeDegrees>-1.702179126441478729248046875</LongitudeDegrees>
            </Position>
            <AltitudeMeters>83</AltitudeMeters>
            <DistanceMeters>NAN</DistanceMeters>
          </Trackpoint>
          <Trackpoint>
            <Time>2021-08-10T14:09:44.000Z</Time>
            <Position>
              <LatitudeDegrees>43.247135840356349945068359375</LatitudeDegrees>
              <LongitudeDegrees>-1.702213995158672332763671875</LongitudeDegrees>
            </Position>
            <AltitudeMeters>83</AltitudeMeters>
            <DistanceMeters>NAN</DistanceMeters>
          </Trackpoint>
          <Trackpoint>
            <Time>2021-08-10T14:09:45.000Z</Time>
            <Position>
              <LatitudeDegrees>43.24712812900543212890625</LatitudeDegrees>
              <LongitudeDegrees>-1.70224928297102451324462890625</LongitudeDegrees>
            </Position>
            <AltitudeMeters>83</AltitudeMeters>
            <DistanceMeters>NAN</DistanceMeters>
          </Trackpoint>
          <Trackpoint>
            <Time>2021-08-10T14:09:47.000Z</Time>
            <Position>
              <LatitudeDegrees>43.2471189089119434356689453125</LatitudeDegrees>
              <LongitudeDegrees>-1.70232086442410945892333984375</LongitudeDegrees>
            </Position>
            <AltitudeMeters>83.1999969482421875</AltitudeMeters>
            <DistanceMeters>NAN</DistanceMeters>
          </Trackpoint>
          <Trackpoint>
            <Time>2021-08-10T14:09:48.000Z</Time>
            <Position>
              <LatitudeDegrees>43.2471160590648651123046875</LatitudeDegrees>
              <LongitudeDegrees>-1.702346093952655792236328125</LongitudeDegrees>
            </Position>
            <AltitudeMeters>83.1999969482421875</AltitudeMeters>
            <DistanceMeters>NAN</DistanceMeters>
          </Trackpoint>
          <Trackpoint>
            <Time>2021-08-10T14:09:52.000Z</Time>
            <Position>
              <LatitudeDegrees>43.247111029922962188720703125</LatitudeDegrees>
              <LongitudeDegrees>-1.70250895433127880096435546875</LongitudeDegrees>
            </Position>
            <AltitudeMeters>83.1999969482421875</AltitudeMeters>
            <DistanceMeters>NAN</DistanceMeters>
          </Trackpoint>
          <Trackpoint>
            <Time>2021-08-10T14:09:54.000Z</Time>
            <Position>
              <LatitudeDegrees>43.24712050147354602813720703125</LatitudeDegrees>
              <LongitudeDegrees>-1.7025940306484699249267578125</LongitudeDegrees>
            </Position>
            <AltitudeMeters>83.59999847412109375</AltitudeMeters>
            <DistanceMeters>NAN</DistanceMeters>
          </Trackpoint>
          <Trackpoint>
            <Time>2021-08-10T14:09:55.000Z</Time>
            <Position>
              <LatitudeDegrees>43.247129805386066436767578125</LatitudeDegrees>
              <LongitudeDegrees>-1.70263870619237422943115234375</LongitudeDegrees>
            </Position>
            <AltitudeMeters>83.40000152587890625</AltitudeMeters>
            <DistanceMeters>NAN</DistanceMeters>
          </Trackpoint>
          <Trackpoint>
            <Time>2021-08-10T14:09:57.000Z</Time>
            <Position>
              <LatitudeDegrees>43.247136175632476806640625</LatitudeDegrees>
              <LongitudeDegrees>-1.70273275114595890045166015625</LongitudeDegrees>
            </Position>
            <AltitudeMeters>83.8000030517578125</AltitudeMeters>
            <DistanceMeters>NAN</DistanceMeters>
          </Trackpoint>
          <Trackpoint>
            <Time>2021-08-10T14:09:58.000Z</Time>
            <Position>
              <LatitudeDegrees>43.24714179150760173797607421875</LatitudeDegrees>
              <LongitudeDegrees>-1.7027677036821842193603515625</LongitudeDegrees>
            </Position>
            <AltitudeMeters>83.8000030517578125</AltitudeMeters>
            <DistanceMeters>NAN</DistanceMeters>
          </Trackpoint>
          <Trackpoint>
            <Time>2021-08-10T14:10:02.000Z</Time>
            <Position>
              <LatitudeDegrees>43.24717414565384387969970703125</LatitudeDegrees>
              <LongitudeDegrees>-1.702930144965648651123046875</LongitudeDegrees>
            </Position>
            <AltitudeMeters>84</AltitudeMeters>
            <DistanceMeters>NAN</DistanceMeters>
          </Trackpoint>
          <Trackpoint>
            <Time>2021-08-10T14:10:03.000Z</Time>
            <Position>
              <LatitudeDegrees>43.2471856288611888885498046875</LatitudeDegrees>
              <LongitudeDegrees>-1.70297247357666492462158203125</LongitudeDegrees>
            </Position>
            <AltitudeMeters>84.1999969482421875</AltitudeMeters>
            <DistanceMeters>NAN</DistanceMeters>
          </Trackpoint>
          <Trackpoint>
            <Time>2021-08-10T14:10:04.000Z</Time>
            <Position>
              <LatitudeDegrees>43.2471919991075992584228515625</LatitudeDegrees>
              <LongitudeDegrees>-1.7030094377696514129638671875</LongitudeDegrees>
            </Position>
            <AltitudeMeters>84.40000152587890625</AltitudeMeters>
            <DistanceMeters>NAN</DistanceMeters>
          </Trackpoint>
          <Trackpoint>
            <Time>2021-08-10T14:10:05.000Z</Time>
            <Position>
              <LatitudeDegrees>43.2471992075443267822265625</LatitudeDegrees>
              <LongitudeDegrees>-1.7030459828674793243408203125</LongitudeDegrees>
            </Position>
            <AltitudeMeters>84.40000152587890625</AltitudeMeters>
            <DistanceMeters>NAN</DistanceMeters>
          </Trackpoint>
          <Trackpoint>
            <Time>2021-08-10T14:10:06.000Z</Time>
            <Position>
              <LatitudeDegrees>43.2472047396004199981689453125</LatitudeDegrees>
              <LongitudeDegrees>-1.70308009721338748931884765625</LongitudeDegrees>
            </Position>
            <AltitudeMeters>84.59999847412109375</AltitudeMeters>
            <DistanceMeters>NAN</DistanceMeters>
          </Trackpoint>
          <Trackpoint>
            <Time>2021-08-10T14:10:07.000Z</Time>
            <Position>
              <LatitudeDegrees>43.2472070865333080291748046875</LatitudeDegrees>
              <LongitudeDegrees>-1.70310440473258495330810546875</LongitudeDegrees>
            </Position>
            <AltitudeMeters>84.59999847412109375</AltitudeMeters>
            <DistanceMeters>NAN</DistanceMeters>
          </Trackpoint>
          <Trackpoint>
            <Time>2021-08-10T14:10:08.000Z</Time>
            <Position>
              <LatitudeDegrees>43.24720616452395915985107421875</LatitudeDegrees>
              <LongitudeDegrees>-1.70313625596463680267333984375</LongitudeDegrees>
            </Position>
            <AltitudeMeters>84.59999847412109375</AltitudeMeters>
            <DistanceMeters>NAN</DistanceMeters>
          </Trackpoint>
          <Trackpoint>
            <Time>2021-08-10T14:10:09.000Z</Time>
            <Position>
              <LatitudeDegrees>43.24720633216202259063720703125</LatitudeDegrees>
              <LongitudeDegrees>-1.70315972529351711273193359375</LongitudeDegrees>
            </Position>
            <AltitudeMeters>84.59999847412109375</AltitudeMeters>
            <DistanceMeters>NAN</DistanceMeters>
          </Trackpoint>
          <Trackpoint>
            <Time>2021-08-10T14:10:10.000Z</Time>
            <Position>
              <LatitudeDegrees>43.24720415286719799041748046875</LatitudeDegrees>
              <LongitudeDegrees>-1.703184284269809722900390625</LongitudeDegrees>
            </Position>
            <AltitudeMeters>84.59999847412109375</AltitudeMeters>
            <DistanceMeters>NAN</DistanceMeters>
          </Trackpoint>
          <Trackpoint>
            <Time>2021-08-10T14:10:11.000Z</Time>
            <Position>
              <LatitudeDegrees>43.24720432050526142120361328125</LatitudeDegrees>
              <LongitudeDegrees>-1.703206412494182586669921875</LongitudeDegrees>
            </Position>
            <AltitudeMeters>84.59999847412109375</AltitudeMeters>
            <DistanceMeters>NAN</DistanceMeters>
          </Trackpoint>
          <Trackpoint>
            <Time>2021-08-10T14:10:12.000Z</Time>
            <Position>
              <LatitudeDegrees>43.2472050748765468597412109375</LatitudeDegrees>
              <LongitudeDegrees>-1.70322761870920658111572265625</LongitudeDegrees>
            </Position>
            <AltitudeMeters>84.59999847412109375</AltitudeMeters>
            <DistanceMeters>NAN</DistanceMeters>
          </Trackpoint>
          <Trackpoint>
            <Time>2021-08-10T14:10:13.000Z</Time>
            <Position>
              <LatitudeDegrees>43.24720750562846660614013671875</LatitudeDegrees>
              <LongitudeDegrees>-1.70324438251554965972900390625</LongitudeDegrees>
            </Position>
            <AltitudeMeters>84.8000030517578125</AltitudeMeters>
            <DistanceMeters>NAN</DistanceMeters>
          </Trackpoint>
          <Trackpoint>
            <Time>2021-08-10T14:10:14.000Z</Time>
            <Position>
              <LatitudeDegrees>43.24720817618072032928466796875</LatitudeDegrees>
              <LongitudeDegrees>-1.70326164923608303070068359375</LongitudeDegrees>
            </Position>
            <AltitudeMeters>84.8000030517578125</AltitudeMeters>
            <DistanceMeters>NAN</DistanceMeters>
          </Trackpoint>
          <Trackpoint>
            <Time>2021-08-10T14:10:15.000Z</Time>
            <Position>
              <LatitudeDegrees>43.24720700271427631378173828125</LatitudeDegrees>
              <LongitudeDegrees>-1.70327371917665004730224609375</LongitudeDegrees>
            </Position>
            <AltitudeMeters>84.8000030517578125</AltitudeMeters>
            <DistanceMeters>NAN</DistanceMeters>
          </Trackpoint>
          <Trackpoint>
            <Time>2021-08-10T14:10:16.000Z</Time>
            <Position>
              <LatitudeDegrees>43.24720256030559539794921875</LatitudeDegrees>
              <LongitudeDegrees>-1.7032907344400882720947265625</LongitudeDegrees>
            </Position>
            <AltitudeMeters>84.8000030517578125</AltitudeMeters>
            <DistanceMeters>NAN</DistanceMeters>
          </Trackpoint>
          <Trackpoint>
            <Time>2021-08-10T14:10:17.000Z</Time>
            <Position>
              <LatitudeDegrees>43.2471940107643604278564453125</LatitudeDegrees>
              <LongitudeDegrees>-1.70331261120736598968505859375</LongitudeDegrees>
            </Position>
            <AltitudeMeters>84.8000030517578125</AltitudeMeters>
            <DistanceMeters>NAN</DistanceMeters>
          </Trackpoint>
          <Trackpoint>
            <Time>2021-08-10T14:10:20.000Z</Time>
            <Position>
              <LatitudeDegrees>43.2471514306962490081787109375</LatitudeDegrees>
              <LongitudeDegrees>-1.70328386127948760986328125</LongitudeDegrees>
            </Position>
            <AltitudeMeters>85</AltitudeMeters>
            <DistanceMeters>NAN</DistanceMeters>
          </Trackpoint>
          <Trackpoint>
            <Time>2021-08-10T14:10:24.000Z</Time>
            <Position>
              <LatitudeDegrees>43.24714397080242633819580078125</LatitudeDegrees>
              <LongitudeDegrees>-1.70327355153858661651611328125</LongitudeDegrees>
            </Position>
            <AltitudeMeters>85</AltitudeMeters>
            <DistanceMeters>NAN</DistanceMeters>
          </Trackpoint>
          <Trackpoint>
            <Time>2021-08-10T14:10:37.000Z</Time>
            <Position>
              <LatitudeDegrees>43.24714397080242633819580078125</LatitudeDegrees>
              <LongitudeDegrees>-1.70327355153858661651611328125</LongitudeDegrees>
            </Position>
            <AltitudeMeters>84.8000030517578125</AltitudeMeters>
            <DistanceMeters>NAN</DistanceMeters>
          </Trackpoint>
          <Trackpoint>
            <Time>2021-08-10T14:11:12.000Z</Time>
            <Position>
              <LatitudeDegrees>43.24714028276503086090087890625</LatitudeDegrees>
              <LongitudeDegrees>-1.70327405445277690887451171875</LongitudeDegrees>
            </Position>
            <AltitudeMeters>85</AltitudeMeters>
            <DistanceMeters>NAN</DistanceMeters>
          </Trackpoint>
          <Trackpoint>
            <Time>2021-08-10T16:50:06.000Z</Time>
            <Position>
              <LatitudeDegrees>43.2472875528037548065185546875</LatitudeDegrees>
              <LongitudeDegrees>-1.70313424430787563323974609375</LongitudeDegrees>
            </Position>
            <AltitudeMeters>81</AltitudeMeters>
            <DistanceMeters>NAN</DistanceMeters>
          </Trackpoint>
          <Trackpoint>
            <Time>2021-08-10T16:50:12.000Z</Time>
            <Position>
              <LatitudeDegrees>43.247146904468536376953125</LatitudeDegrees>
              <LongitudeDegrees>-1.70322007499635219573974609375</LongitudeDegrees>
            </Position>
            <AltitudeMeters>81.1999969482421875</AltitudeMeters>
            <DistanceMeters>NAN</DistanceMeters>
          </Trackpoint>
          <Trackpoint>
            <Time>2021-08-10T16:50:14.000Z</Time>
            <Position>
              <LatitudeDegrees>43.2470947690308094024658203125</LatitudeDegrees>
              <LongitudeDegrees>-1.70319627039134502410888671875</LongitudeDegrees>
            </Position>
            <AltitudeMeters>81.1999969482421875</AltitudeMeters>
            <DistanceMeters>NAN</DistanceMeters>
          </Trackpoint>
          <Trackpoint>
            <Time>2021-08-10T16:50:15.000Z</Time>
            <Position>
              <LatitudeDegrees>43.24707993306219577789306640625</LatitudeDegrees>
              <LongitudeDegrees>-1.70319442637264728546142578125</LongitudeDegrees>
            </Position>
            <AltitudeMeters>81.1999969482421875</AltitudeMeters>
            <DistanceMeters>NAN</DistanceMeters>
          </Trackpoint>
          <Trackpoint>
            <Time>2021-08-10T16:50:16.000Z</Time>
            <Position>
              <LatitudeDegrees>43.2470709644258022308349609375</LatitudeDegrees>
              <LongitudeDegrees>-1.70319543220102787017822265625</LongitudeDegrees>
            </Position>
            <AltitudeMeters>81.40000152587890625</AltitudeMeters>
            <DistanceMeters>NAN</DistanceMeters>
          </Trackpoint>
          <Trackpoint>
            <Time>2021-08-10T16:50:19.000Z</Time>
            <Position>
              <LatitudeDegrees>43.2470645941793918609619140625</LatitudeDegrees>
              <LongitudeDegrees>-1.70322191901504993438720703125</LongitudeDegrees>
            </Position>
            <AltitudeMeters>81.40000152587890625</AltitudeMeters>
            <DistanceMeters>NAN</DistanceMeters>
          </Trackpoint>
          <Trackpoint>
            <Time>2021-08-10T16:50:20.000Z</Time>
            <Position>
              <LatitudeDegrees>43.247058726847171783447265625</LatitudeDegrees>
              <LongitudeDegrees>-1.70323197729885578155517578125</LongitudeDegrees>
            </Position>
            <AltitudeMeters>81.40000152587890625</AltitudeMeters>
            <DistanceMeters>NAN</DistanceMeters>
          </Trackpoint>
          <Trackpoint>
            <Time>2021-08-10T16:50:21.000Z</Time>
            <Position>
              <LatitudeDegrees>43.24705495499074459075927734375</LatitudeDegrees>
              <LongitudeDegrees>-1.70324907638132572174072265625</LongitudeDegrees>
            </Position>
            <AltitudeMeters>81.40000152587890625</AltitudeMeters>
            <DistanceMeters>NAN</DistanceMeters>
          </Trackpoint>
          <Trackpoint>
            <Time>2021-08-10T16:50:23.000Z</Time>
            <Position>
              <LatitudeDegrees>43.24704858474433422088623046875</LatitudeDegrees>
              <LongitudeDegrees>-1.703291237354278564453125</LongitudeDegrees>
            </Position>
            <AltitudeMeters>81.40000152587890625</AltitudeMeters>
            <DistanceMeters>NAN</DistanceMeters>
          </Trackpoint>
          <Trackpoint>
            <Time>2021-08-10T16:50:24.000Z</Time>
            <Position>
              <LatitudeDegrees>43.2470464892685413360595703125</LatitudeDegrees>
              <LongitudeDegrees>-1.70331026427447795867919921875</LongitudeDegrees>
            </Position>
            <AltitudeMeters>81.40000152587890625</AltitudeMeters>
            <DistanceMeters>NAN</DistanceMeters>
          </Trackpoint>
          <Trackpoint>
            <Time>2021-08-10T16:50:25.000Z</Time>
            <Position>
              <LatitudeDegrees>43.2470441423356533050537109375</LatitudeDegrees>
              <LongitudeDegrees>-1.703327782452106475830078125</LongitudeDegrees>
            </Position>
            <AltitudeMeters>81.59999847412109375</AltitudeMeters>
            <DistanceMeters>NAN</DistanceMeters>
          </Trackpoint>
          <Trackpoint>
            <Time>2021-08-10T16:50:32.000Z</Time>
            <Position>
              <LatitudeDegrees>43.2470119558274745941162109375</LatitudeDegrees>
              <LongitudeDegrees>-1.7034784890711307525634765625</LongitudeDegrees>
            </Position>
            <AltitudeMeters>81.59999847412109375</AltitudeMeters>
            <DistanceMeters>NAN</DistanceMeters>
          </Trackpoint>
          <Trackpoint>
            <Time>2021-08-10T16:50:34.000Z</Time>
            <Position>
              <LatitudeDegrees>43.2470168173313140869140625</LatitudeDegrees>
              <LongitudeDegrees>-1.703513525426387786865234375</LongitudeDegrees>
            </Position>
            <AltitudeMeters>81.59999847412109375</AltitudeMeters>
            <DistanceMeters>NAN</DistanceMeters>
          </Trackpoint>
          <Trackpoint>
            <Time>2021-08-10T16:50:37.000Z</Time>
            <Position>
              <LatitudeDegrees>43.24701589532196521759033203125</LatitudeDegrees>
              <LongitudeDegrees>-1.70359726063907146453857421875</LongitudeDegrees>
            </Position>
            <AltitudeMeters>81.59999847412109375</AltitudeMeters>
            <DistanceMeters>NAN</DistanceMeters>
          </Trackpoint>
          <Trackpoint>
            <Time>2021-08-10T16:50:40.000Z</Time>
            <Position>
              <LatitudeDegrees>43.246983624994754791259765625</LatitudeDegrees>
              <LongitudeDegrees>-1.70363657176494598388671875</LongitudeDegrees>
            </Position>
            <AltitudeMeters>81.59999847412109375</AltitudeMeters>
            <DistanceMeters>NAN</DistanceMeters>
          </Trackpoint>
          <Trackpoint>
            <Time>2021-08-10T16:50:41.000Z</Time>
            <Position>
              <LatitudeDegrees>43.24697968550026416778564453125</LatitudeDegrees>
              <LongitudeDegrees>-1.7036464624106884002685546875</LongitudeDegrees>
            </Position>
            <AltitudeMeters>81.59999847412109375</AltitudeMeters>
            <DistanceMeters>NAN</DistanceMeters>
          </Trackpoint>
          <Trackpoint>
            <Time>2021-08-10T16:50:42.000Z</Time>
            <Position>
              <LatitudeDegrees>43.2469787634909152984619140625</LatitudeDegrees>
              <LongitudeDegrees>-1.70365962199866771697998046875</LongitudeDegrees>
            </Position>
            <AltitudeMeters>81.59999847412109375</AltitudeMeters>
            <DistanceMeters>NAN</DistanceMeters>
          </Trackpoint>
          <Trackpoint>
            <Time>2021-08-10T16:50:43.000Z</Time>
            <Position>
              <LatitudeDegrees>43.24697297997772693634033203125</LatitudeDegrees>
              <LongitudeDegrees>-1.703677810728549957275390625</LongitudeDegrees>
            </Position>
            <AltitudeMeters>81.59999847412109375</AltitudeMeters>
            <DistanceMeters>NAN</DistanceMeters>
          </Trackpoint>
          <Trackpoint>
            <Time>2021-08-10T16:50:44.000Z</Time>
            <Position>
              <LatitudeDegrees>43.24696660973131656646728515625</LatitudeDegrees>
              <LongitudeDegrees>-1.7036984302103519439697265625</LongitudeDegrees>
            </Position>
            <AltitudeMeters>81.8000030517578125</AltitudeMeters>
            <DistanceMeters>NAN</DistanceMeters>
          </Trackpoint>
          <Trackpoint>
            <Time>2021-08-10T16:50:47.000Z</Time>
            <Position>
              <LatitudeDegrees>43.24693568050861358642578125</LatitudeDegrees>
              <LongitudeDegrees>-1.70374947600066661834716796875</LongitudeDegrees>
            </Position>
            <AltitudeMeters>81.8000030517578125</AltitudeMeters>
            <DistanceMeters>NAN</DistanceMeters>
          </Trackpoint>
          <Trackpoint>
            <Time>2021-08-10T16:50:48.000Z</Time>
            <Position>
              <LatitudeDegrees>43.24693392030894756317138671875</LatitudeDegrees>
              <LongitudeDegrees>-1.70377227477729320526123046875</LongitudeDegrees>
            </Position>
            <AltitudeMeters>81.8000030517578125</AltitudeMeters>
            <DistanceMeters>NAN</DistanceMeters>
          </Trackpoint>
          <Trackpoint>
            <Time>2021-08-10T16:50:51.000Z</Time>
            <Position>
              <LatitudeDegrees>43.24693509377539157867431640625</LatitudeDegrees>
              <LongitudeDegrees>-1.7038191296160221099853515625</LongitudeDegrees>
            </Position>
            <AltitudeMeters>81.8000030517578125</AltitudeMeters>
            <DistanceMeters>NAN</DistanceMeters>
          </Trackpoint>
          <Trackpoint>
            <Time>2021-08-10T16:50:52.000Z</Time>
            <Position>
              <LatitudeDegrees>43.246934674680233001708984375</LatitudeDegrees>
              <LongitudeDegrees>-1.70382030308246612548828125</LongitudeDegrees>
            </Position>
            <AltitudeMeters>81.8000030517578125</AltitudeMeters>
            <DistanceMeters>NAN</DistanceMeters>
          </Trackpoint>
          <Trackpoint>
            <Time>2021-08-10T16:50:53.000Z</Time>
            <Position>
              <LatitudeDegrees>43.2469314895570278167724609375</LatitudeDegrees>
              <LongitudeDegrees>-1.7038281820714473724365234375</LongitudeDegrees>
            </Position>
            <AltitudeMeters>81.8000030517578125</AltitudeMeters>
            <DistanceMeters>NAN</DistanceMeters>
          </Trackpoint>
          <Trackpoint>
            <Time>2021-08-10T16:50:55.000Z</Time>
            <Position>
              <LatitudeDegrees>43.24691598303616046905517578125</LatitudeDegrees>
              <LongitudeDegrees>-1.70384972356259822845458984375</LongitudeDegrees>
            </Position>
            <AltitudeMeters>81.8000030517578125</AltitudeMeters>
            <DistanceMeters>NAN</DistanceMeters>
          </Trackpoint>
          <Trackpoint>
            <Time>2021-08-10T16:50:57.000Z</Time>
            <Position>
              <LatitudeDegrees>43.24690751731395721435546875</LatitudeDegrees>
              <LongitudeDegrees>-1.70388224534690380096435546875</LongitudeDegrees>
            </Position>
            <AltitudeMeters>81.8000030517578125</AltitudeMeters>
            <DistanceMeters>NAN</DistanceMeters>
          </Trackpoint>
          <Trackpoint>
            <Time>2021-08-10T16:50:58.000Z</Time>
            <Position>
              <LatitudeDegrees>43.24690223671495914459228515625</LatitudeDegrees>
              <LongitudeDegrees>-1.7038871906697750091552734375</LongitudeDegrees>
            </Position>
            <AltitudeMeters>82</AltitudeMeters>
            <DistanceMeters>NAN</DistanceMeters>
          </Trackpoint>
          <Trackpoint>
            <Time>2021-08-10T16:50:59.000Z</Time>
            <Position>
              <LatitudeDegrees>43.246894776821136474609375</LatitudeDegrees>
              <LongitudeDegrees>-1.70388760976493358612060546875</LongitudeDegrees>
            </Position>
            <AltitudeMeters>82</AltitudeMeters>
            <DistanceMeters>NAN</DistanceMeters>
          </Trackpoint>
          <Trackpoint>
            <Time>2021-08-10T16:51:00.000Z</Time>
            <Position>
              <LatitudeDegrees>43.24689142405986785888671875</LatitudeDegrees>
              <LongitudeDegrees>-1.7038902081549167633056640625</LongitudeDegrees>
            </Position>
            <AltitudeMeters>82</AltitudeMeters>
            <DistanceMeters>NAN</DistanceMeters>
          </Trackpoint>
          <Trackpoint>
            <Time>2021-08-10T16:51:02.000Z</Time>
            <Position>
              <LatitudeDegrees>43.24688128195703029632568359375</LatitudeDegrees>
              <LongitudeDegrees>-1.70389800332486629486083984375</LongitudeDegrees>
            </Position>
            <AltitudeMeters>82</AltitudeMeters>
            <DistanceMeters>NAN</DistanceMeters>
          </Trackpoint>
          <Trackpoint>
            <Time>2021-08-10T16:51:03.000Z</Time>
            <Position>
              <LatitudeDegrees>43.24687474407255649566650390625</LatitudeDegrees>
              <LongitudeDegrees>-1.7039148509502410888671875</LongitudeDegrees>
            </Position>
            <AltitudeMeters>82</AltitudeMeters>
            <DistanceMeters>NAN</DistanceMeters>
          </Trackpoint>
          <Trackpoint>
            <Time>2021-08-10T16:51:07.000Z</Time>
            <Position>
              <LatitudeDegrees>43.2468359358608722686767578125</LatitudeDegrees>
              <LongitudeDegrees>-1.703942678868770599365234375</LongitudeDegrees>
            </Position>
            <AltitudeMeters>82.1999969482421875</AltitudeMeters>
            <DistanceMeters>NAN</DistanceMeters>
          </Trackpoint>
          <Trackpoint>
            <Time>2021-08-10T16:51:08.000Z</Time>
            <Position>
              <LatitudeDegrees>43.24682830832898616790771484375</LatitudeDegrees>
              <LongitudeDegrees>-1.70393521897494792938232421875</LongitudeDegrees>
            </Position>
            <AltitudeMeters>82.1999969482421875</AltitudeMeters>
            <DistanceMeters>NAN</DistanceMeters>
          </Trackpoint>
          <Trackpoint>
            <Time>2021-08-10T16:51:09.000Z</Time>
            <Position>
              <LatitudeDegrees>43.2468238659203052520751953125</LatitudeDegrees>
              <LongitudeDegrees>-1.70393588952720165252685546875</LongitudeDegrees>
            </Position>
            <AltitudeMeters>82.1999969482421875</AltitudeMeters>
            <DistanceMeters>NAN</DistanceMeters>
          </Trackpoint>
          <Trackpoint>
            <Time>2021-08-10T16:51:10.000Z</Time>
            <Position>
              <LatitudeDegrees>43.24682034552097320556640625</LatitudeDegrees>
              <LongitudeDegrees>-1.70393136329948902130126953125</LongitudeDegrees>
            </Position>
            <AltitudeMeters>82.1999969482421875</AltitudeMeters>
            <DistanceMeters>NAN</DistanceMeters>
          </Trackpoint>
          <Trackpoint>
            <Time>2021-08-10T16:51:11.000Z</Time>
            <Position>
              <LatitudeDegrees>43.24681095778942108154296875</LatitudeDegrees>
              <LongitudeDegrees>-1.70392834581434726715087890625</LongitudeDegrees>
            </Position>
            <AltitudeMeters>82.1999969482421875</AltitudeMeters>
            <DistanceMeters>NAN</DistanceMeters>
          </Trackpoint>
          <Trackpoint>
            <Time>2021-08-10T16:51:13.000Z</Time>
            <Position>
              <LatitudeDegrees>43.24678505770862102508544921875</LatitudeDegrees>
              <LongitudeDegrees>-1.70392381958663463592529296875</LongitudeDegrees>
            </Position>
            <AltitudeMeters>82.40000152587890625</AltitudeMeters>
            <DistanceMeters>NAN</DistanceMeters>
          </Trackpoint>
          <Trackpoint>
            <Time>2021-08-10T16:51:18.000Z</Time>
            <Position>
              <LatitudeDegrees>43.24672118760645389556884765625</LatitudeDegrees>
              <LongitudeDegrees>-1.7039076425135135650634765625</LongitudeDegrees>
            </Position>
            <AltitudeMeters>82.40000152587890625</AltitudeMeters>
            <DistanceMeters>NAN</DistanceMeters>
          </Trackpoint>
          <Trackpoint>
            <Time>2021-08-10T16:51:19.000Z</Time>
            <Position>
              <LatitudeDegrees>43.246716074645519256591796875</LatitudeDegrees>
              <LongitudeDegrees>-1.70389808714389801025390625</LongitudeDegrees>
            </Position>
            <AltitudeMeters>82.40000152587890625</AltitudeMeters>
            <DistanceMeters>NAN</DistanceMeters>
          </Trackpoint>
          <Trackpoint>
            <Time>2021-08-10T16:51:20.000Z</Time>
            <Position>
              <LatitudeDegrees>43.24670274741947650909423828125</LatitudeDegrees>
              <LongitudeDegrees>-1.70390135608613491058349609375</LongitudeDegrees>
            </Position>
            <AltitudeMeters>82.40000152587890625</AltitudeMeters>
            <DistanceMeters>NAN</DistanceMeters>
          </Trackpoint>
          <Trackpoint>
            <Time>2021-08-10T16:51:21.000Z</Time>
            <Position>
              <LatitudeDegrees>43.24669369496405124664306640625</LatitudeDegrees>
              <LongitudeDegrees>-1.7039086483418941497802734375</LongitudeDegrees>
            </Position>
            <AltitudeMeters>82.40000152587890625</AltitudeMeters>
            <DistanceMeters>NAN</DistanceMeters>
          </Trackpoint>
          <Trackpoint>
            <Time>2021-08-10T16:51:22.000Z</Time>
            <Position>
              <LatitudeDegrees>43.24669084511697292327880859375</LatitudeDegrees>
              <LongitudeDegrees>-1.7039121687412261962890625</LongitudeDegrees>
            </Position>
            <AltitudeMeters>82.59999847412109375</AltitudeMeters>
            <DistanceMeters>NAN</DistanceMeters>
          </Trackpoint>
          <Trackpoint>
            <Time>2021-08-10T16:51:23.000Z</Time>
            <Position>
              <LatitudeDegrees>43.2466870732605457305908203125</LatitudeDegrees>
              <LongitudeDegrees>-1.70391686260700225830078125</LongitudeDegrees>
            </Position>
            <AltitudeMeters>82.59999847412109375</AltitudeMeters>
            <DistanceMeters>NAN</DistanceMeters>
          </Trackpoint>
          <Trackpoint>
            <Time>2021-08-10T16:51:24.000Z</Time>
            <Position>
              <LatitudeDegrees>43.24667709879577159881591796875</LatitudeDegrees>
              <LongitudeDegrees>-1.703918874263763427734375</LongitudeDegrees>
            </Position>
            <AltitudeMeters>82.59999847412109375</AltitudeMeters>
            <DistanceMeters>NAN</DistanceMeters>
          </Trackpoint>
          <Trackpoint>
            <Time>2021-08-10T16:51:25.000Z</Time>
            <Position>
              <LatitudeDegrees>43.24667139910161495208740234375</LatitudeDegrees>
              <LongitudeDegrees>-1.70391828753054141998291015625</LongitudeDegrees>
            </Position>
            <AltitudeMeters>82.59999847412109375</AltitudeMeters>
            <DistanceMeters>NAN</DistanceMeters>
          </Trackpoint>
          <Trackpoint>
            <Time>2021-08-10T16:51:26.000Z</Time>
            <Position>
              <LatitudeDegrees>43.24666419066488742828369140625</LatitudeDegrees>
              <LongitudeDegrees>-1.70391820371150970458984375</LongitudeDegrees>
            </Position>
            <AltitudeMeters>82.8000030517578125</AltitudeMeters>
            <DistanceMeters>NAN</DistanceMeters>
          </Trackpoint>
          <Trackpoint>
            <Time>2021-08-10T16:51:27.000Z</Time>
            <Position>
              <LatitudeDegrees>43.24665396474301815032958984375</LatitudeDegrees>
              <LongitudeDegrees>-1.70392616651952266693115234375</LongitudeDegrees>
            </Position>
            <AltitudeMeters>82.8000030517578125</AltitudeMeters>
            <DistanceMeters>NAN</DistanceMeters>
          </Trackpoint>
          <Trackpoint>
            <Time>2021-08-10T16:51:28.000Z</Time>
            <Position>
              <LatitudeDegrees>43.246645666658878326416015625</LatitudeDegrees>
              <LongitudeDegrees>-1.7039284296333789825439453125</LongitudeDegrees>
            </Position>
            <AltitudeMeters>82.8000030517578125</AltitudeMeters>
            <DistanceMeters>NAN</DistanceMeters>
          </Trackpoint>
          <Trackpoint>
            <Time>2021-08-10T16:51:29.000Z</Time>
            <Position>
              <LatitudeDegrees>43.24664189480245113372802734375</LatitudeDegrees>
              <LongitudeDegrees>-1.70394024811685085296630859375</LongitudeDegrees>
            </Position>
            <AltitudeMeters>82.8000030517578125</AltitudeMeters>
            <DistanceMeters>NAN</DistanceMeters>
          </Trackpoint>
          <Trackpoint>
            <Time>2021-08-10T16:51:31.000Z</Time>
            <Position>
              <LatitudeDegrees>43.24662948958575725555419921875</LatitudeDegrees>
              <LongitudeDegrees>-1.70397276990115642547607421875</LongitudeDegrees>
            </Position>
            <AltitudeMeters>83</AltitudeMeters>
            <DistanceMeters>NAN</DistanceMeters>
          </Trackpoint>
          <Trackpoint>
            <Time>2021-08-10T16:51:32.000Z</Time>
            <Position>
              <LatitudeDegrees>43.24662043713033199310302734375</LatitudeDegrees>
              <LongitudeDegrees>-1.70398333109915256500244140625</LongitudeDegrees>
            </Position>
            <AltitudeMeters>83</AltitudeMeters>
            <DistanceMeters>NAN</DistanceMeters>
          </Trackpoint>
          <Trackpoint>
            <Time>2021-08-10T16:51:34.000Z</Time>
            <Position>
              <LatitudeDegrees>43.24659126810729503631591796875</LatitudeDegrees>
              <LongitudeDegrees>-1.7040031962096691131591796875</LongitudeDegrees>
            </Position>
            <AltitudeMeters>83</AltitudeMeters>
            <DistanceMeters>NAN</DistanceMeters>
          </Trackpoint>
          <Trackpoint>
            <Time>2021-08-10T16:51:35.000Z</Time>
            <Position>
              <LatitudeDegrees>43.246576599776744842529296875</LatitudeDegrees>
              <LongitudeDegrees>-1.70401216484606266021728515625</LongitudeDegrees>
            </Position>
            <AltitudeMeters>83</AltitudeMeters>
            <DistanceMeters>NAN</DistanceMeters>
          </Trackpoint>
          <Trackpoint>
            <Time>2021-08-10T16:51:36.000Z</Time>
            <Position>
              <LatitudeDegrees>43.24656461365520954132080078125</LatitudeDegrees>
              <LongitudeDegrees>-1.7040129192173480987548828125</LongitudeDegrees>
            </Position>
            <AltitudeMeters>83</AltitudeMeters>
            <DistanceMeters>NAN</DistanceMeters>
          </Trackpoint>
          <Trackpoint>
            <Time>2021-08-10T16:51:37.000Z</Time>
            <Position>
              <LatitudeDegrees>43.24655748903751373291015625</LatitudeDegrees>
              <LongitudeDegrees>-1.7040152661502361297607421875</LongitudeDegrees>
            </Position>
            <AltitudeMeters>83</AltitudeMeters>
            <DistanceMeters>NAN</DistanceMeters>
          </Trackpoint>
          <Trackpoint>
            <Time>2021-08-10T16:51:41.000Z</Time>
            <Position>
              <LatitudeDegrees>43.24656444601714611053466796875</LatitudeDegrees>
              <LongitudeDegrees>-1.70408508740365505218505859375</LongitudeDegrees>
            </Position>
            <AltitudeMeters>83.1999969482421875</AltitudeMeters>
            <DistanceMeters>NAN</DistanceMeters>
          </Trackpoint>
          <Trackpoint>
            <Time>2021-08-10T16:51:42.000Z</Time>
            <Position>
              <LatitudeDegrees>43.24657768942415714263916015625</LatitudeDegrees>
              <LongitudeDegrees>-1.7040813155472278594970703125</LongitudeDegrees>
            </Position>
            <AltitudeMeters>83.1999969482421875</AltitudeMeters>
            <DistanceMeters>NAN</DistanceMeters>
          </Trackpoint>
          <Trackpoint>
            <Time>2021-08-10T16:51:43.000Z</Time>
            <Position>
              <LatitudeDegrees>43.24657819233834743499755859375</LatitudeDegrees>
              <LongitudeDegrees>-1.70408022589981555938720703125</LongitudeDegrees>
            </Position>
            <AltitudeMeters>83.40000152587890625</AltitudeMeters>
            <DistanceMeters>NAN</DistanceMeters>
          </Trackpoint>
          <Trackpoint>
            <Time>2021-08-10T16:51:44.000Z</Time>
            <Position>
              <LatitudeDegrees>43.246578611433506011962890625</LatitudeDegrees>
              <LongitudeDegrees>-1.70408961363136768341064453125</LongitudeDegrees>
            </Position>
            <AltitudeMeters>83.40000152587890625</AltitudeMeters>
            <DistanceMeters>NAN</DistanceMeters>
          </Trackpoint>
          <Trackpoint>
            <Time>2021-08-10T16:51:45.000Z</Time>
            <Position>
              <LatitudeDegrees>43.24658221565186977386474609375</LatitudeDegrees>
              <LongitudeDegrees>-1.7040997557342052459716796875</LongitudeDegrees>
            </Position>
            <AltitudeMeters>83.40000152587890625</AltitudeMeters>
            <DistanceMeters>NAN</DistanceMeters>
          </Trackpoint>
          <Trackpoint>
            <Time>2021-08-10T16:51:46.000Z</Time>
            <Position>
              <LatitudeDegrees>43.246590010821819305419921875</LatitudeDegrees>
              <LongitudeDegrees>-1.70410327613353729248046875</LongitudeDegrees>
            </Position>
            <AltitudeMeters>83.40000152587890625</AltitudeMeters>
            <DistanceMeters>NAN</DistanceMeters>
          </Trackpoint>
          <Trackpoint>
            <Time>2021-08-10T16:51:47.000Z</Time>
            <Position>
              <LatitudeDegrees>43.2466015778481960296630859375</LatitudeDegrees>
              <LongitudeDegrees>-1.70410185120999813079833984375</LongitudeDegrees>
            </Position>
            <AltitudeMeters>83.40000152587890625</AltitudeMeters>
            <DistanceMeters>NAN</DistanceMeters>
          </Trackpoint>
          <Trackpoint>
            <Time>2021-08-10T16:51:48.000Z</Time>
            <Position>
              <LatitudeDegrees>43.24660685844719409942626953125</LatitudeDegrees>
              <LongitudeDegrees>-1.7041026055812835693359375</LongitudeDegrees>
            </Position>
            <AltitudeMeters>83.40000152587890625</AltitudeMeters>
            <DistanceMeters>NAN</DistanceMeters>
          </Trackpoint>
          <Trackpoint>
            <Time>2021-08-10T16:51:49.000Z</Time>
            <Position>
              <LatitudeDegrees>43.2466082833707332611083984375</LatitudeDegrees>
              <LongitudeDegrees>-1.70410729944705963134765625</LongitudeDegrees>
            </Position>
            <AltitudeMeters>83.40000152587890625</AltitudeMeters>
            <DistanceMeters>NAN</DistanceMeters>
          </Trackpoint>
          <Trackpoint>
            <Time>2021-08-10T16:51:50.000Z</Time>
            <Position>
              <LatitudeDegrees>43.24660920538008213043212890625</LatitudeDegrees>
              <LongitudeDegrees>-1.70411107130348682403564453125</LongitudeDegrees>
            </Position>
            <AltitudeMeters>83.40000152587890625</AltitudeMeters>
            <DistanceMeters>NAN</DistanceMeters>
          </Trackpoint>
          <Trackpoint>
            <Time>2021-08-10T16:51:54.000Z</Time>
            <Position>
              <LatitudeDegrees>43.24661037884652614593505859375</LatitudeDegrees>
              <LongitudeDegrees>-1.7041544057428836822509765625</LongitudeDegrees>
            </Position>
            <AltitudeMeters>83.59999847412109375</AltitudeMeters>
            <DistanceMeters>NAN</DistanceMeters>
          </Trackpoint>
          <Trackpoint>
            <Time>2021-08-10T16:51:55.000Z</Time>
            <Position>
              <LatitudeDegrees>43.2466076128184795379638671875</LatitudeDegrees>
              <LongitudeDegrees>-1.7041738517582416534423828125</LongitudeDegrees>
            </Position>
            <AltitudeMeters>83.59999847412109375</AltitudeMeters>
            <DistanceMeters>NAN</DistanceMeters>
          </Trackpoint>
          <Trackpoint>
            <Time>2021-08-10T16:51:56.000Z</Time>
            <Position>
              <LatitudeDegrees>43.24660635553300380706787109375</LatitudeDegrees>
              <LongitudeDegrees>-1.7041956447064876556396484375</LongitudeDegrees>
            </Position>
            <AltitudeMeters>83.59999847412109375</AltitudeMeters>
            <DistanceMeters>NAN</DistanceMeters>
          </Trackpoint>
          <Trackpoint>
            <Time>2021-08-10T16:51:58.000Z</Time>
            <Position>
              <LatitudeDegrees>43.246614150702953338623046875</LatitudeDegrees>
              <LongitudeDegrees>-1.70422129333019256591796875</LongitudeDegrees>
            </Position>
            <AltitudeMeters>83.59999847412109375</AltitudeMeters>
            <DistanceMeters>NAN</DistanceMeters>
          </Trackpoint>
          <Trackpoint>
            <Time>2021-08-10T16:52:00.000Z</Time>
            <Position>
              <LatitudeDegrees>43.2466431520879268646240234375</LatitudeDegrees>
              <LongitudeDegrees>-1.70423059724271297454833984375</LongitudeDegrees>
            </Position>
            <AltitudeMeters>83.59999847412109375</AltitudeMeters>
            <DistanceMeters>NAN</DistanceMeters>
          </Trackpoint>
          <Trackpoint>
            <Time>2021-08-10T16:52:01.000Z</Time>
            <Position>
              <LatitudeDegrees>43.246653042733669281005859375</LatitudeDegrees>
              <LongitudeDegrees>-1.70423964969813823699951171875</LongitudeDegrees>
            </Position>
            <AltitudeMeters>83.59999847412109375</AltitudeMeters>
            <DistanceMeters>NAN</DistanceMeters>
          </Trackpoint>
          <Trackpoint>
            <Time>2021-08-10T16:52:02.000Z</Time>
            <Position>
              <LatitudeDegrees>43.24665748514235019683837890625</LatitudeDegrees>
              <LongitudeDegrees>-1.70424543321132659912109375</LongitudeDegrees>
            </Position>
            <AltitudeMeters>83.59999847412109375</AltitudeMeters>
            <DistanceMeters>NAN</DistanceMeters>
          </Trackpoint>
          <Trackpoint>
            <Time>2021-08-10T16:52:04.000Z</Time>
            <Position>
              <LatitudeDegrees>43.246643655002117156982421875</LatitudeDegrees>
              <LongitudeDegrees>-1.7042528092861175537109375</LongitudeDegrees>
            </Position>
            <AltitudeMeters>83.59999847412109375</AltitudeMeters>
            <DistanceMeters>NAN</DistanceMeters>
          </Trackpoint>
          <Trackpoint>
            <Time>2021-08-10T16:52:07.000Z</Time>
            <Position>
              <LatitudeDegrees>43.24663686566054821014404296875</LatitudeDegrees>
              <LongitudeDegrees>-1.7042000032961368560791015625</LongitudeDegrees>
            </Position>
            <AltitudeMeters>83.40000152587890625</AltitudeMeters>
            <DistanceMeters>NAN</DistanceMeters>
          </Trackpoint>
          <Trackpoint>
            <Time>2021-08-10T16:52:11.000Z</Time>
            <Position>
              <LatitudeDegrees>43.24667559005320072174072265625</LatitudeDegrees>
              <LongitudeDegrees>-1.70426580123603343963623046875</LongitudeDegrees>
            </Position>
            <AltitudeMeters>83.40000152587890625</AltitudeMeters>
            <DistanceMeters>NAN</DistanceMeters>
          </Trackpoint>
          <Trackpoint>
            <Time>2021-08-10T16:52:12.000Z</Time>
            <Position>
              <LatitudeDegrees>43.24668330140411853790283203125</LatitudeDegrees>
              <LongitudeDegrees>-1.70428566634654998779296875</LongitudeDegrees>
            </Position>
            <AltitudeMeters>83.40000152587890625</AltitudeMeters>
            <DistanceMeters>NAN</DistanceMeters>
          </Trackpoint>
          <Trackpoint>
            <Time>2021-08-10T16:52:13.000Z</Time>
            <Position>
              <LatitudeDegrees>43.24669386260211467742919921875</LatitudeDegrees>
              <LongitudeDegrees>-1.70429966412484645843505859375</LongitudeDegrees>
            </Position>
            <AltitudeMeters>83.40000152587890625</AltitudeMeters>
            <DistanceMeters>NAN</DistanceMeters>
          </Trackpoint>
          <Trackpoint>
            <Time>2021-08-10T16:52:14.000Z</Time>
            <Position>
              <LatitudeDegrees>43.24670710600912570953369140625</LatitudeDegrees>
              <LongitudeDegrees>-1.704308129847049713134765625</LongitudeDegrees>
            </Position>
            <AltitudeMeters>83.40000152587890625</AltitudeMeters>
            <DistanceMeters>NAN</DistanceMeters>
          </Trackpoint>
          <Trackpoint>
            <Time>2021-08-10T16:52:15.000Z</Time>
            <Position>
              <LatitudeDegrees>43.2467137277126312255859375</LatitudeDegrees>
              <LongitudeDegrees>-1.70431223697960376739501953125</LongitudeDegrees>
            </Position>
            <AltitudeMeters>83.40000152587890625</AltitudeMeters>
            <DistanceMeters>NAN</DistanceMeters>
          </Trackpoint>
          <Trackpoint>
            <Time>2021-08-10T16:52:16.000Z</Time>
            <Position>
              <LatitudeDegrees>43.2467165775597095489501953125</LatitudeDegrees>
              <LongitudeDegrees>-1.70431877486407756805419921875</LongitudeDegrees>
            </Position>
            <AltitudeMeters>83.40000152587890625</AltitudeMeters>
            <DistanceMeters>NAN</DistanceMeters>
          </Trackpoint>
          <Trackpoint>
            <Time>2021-08-10T16:52:17.000Z</Time>
            <Position>
              <LatitudeDegrees>43.2467135600745677947998046875</LatitudeDegrees>
              <LongitudeDegrees>-1.70433402992784976959228515625</LongitudeDegrees>
            </Position>
            <AltitudeMeters>83.40000152587890625</AltitudeMeters>
            <DistanceMeters>NAN</DistanceMeters>
          </Trackpoint>
          <Trackpoint>
            <Time>2021-08-10T16:52:20.000Z</Time>
            <Position>
              <LatitudeDegrees>43.246695287525653839111328125</LatitudeDegrees>
              <LongitudeDegrees>-1.70437560416758060455322265625</LongitudeDegrees>
            </Position>
            <AltitudeMeters>83.1999969482421875</AltitudeMeters>
            <DistanceMeters>NAN</DistanceMeters>
          </Trackpoint>
          <Trackpoint>
            <Time>2021-08-10T16:52:21.000Z</Time>
            <Position>
              <LatitudeDegrees>43.24669361114501953125</LatitudeDegrees>
              <LongitudeDegrees>-1.70437510125339031219482421875</LongitudeDegrees>
            </Position>
            <AltitudeMeters>83.1999969482421875</AltitudeMeters>
            <DistanceMeters>NAN</DistanceMeters>
          </Trackpoint>
          <Trackpoint>
            <Time>2021-08-10T16:52:27.000Z</Time>
            <Position>
              <LatitudeDegrees>43.24669956229627132415771484375</LatitudeDegrees>
              <LongitudeDegrees>-1.704390943050384521484375</LongitudeDegrees>
            </Position>
            <AltitudeMeters>83.40000152587890625</AltitudeMeters>
            <DistanceMeters>NAN</DistanceMeters>
          </Trackpoint>
          <Trackpoint>
            <Time>2021-08-10T16:52:50.000Z</Time>
            <Position>
              <LatitudeDegrees>43.24670710600912570953369140625</LatitudeDegrees>
              <LongitudeDegrees>-1.704396642744541168212890625</LongitudeDegrees>
            </Position>
            <AltitudeMeters>83.40000152587890625</AltitudeMeters>
            <DistanceMeters>NAN</DistanceMeters>
          </Trackpoint>
          <Trackpoint>
            <Time>2021-08-10T16:52:55.000Z</Time>
            <Position>
              <LatitudeDegrees>43.2467229478061199188232421875</LatitudeDegrees>
              <LongitudeDegrees>-1.70440368354320526123046875</LongitudeDegrees>
            </Position>
            <AltitudeMeters>83.40000152587890625</AltitudeMeters>
            <DistanceMeters>NAN</DistanceMeters>
          </Trackpoint>
          <Trackpoint>
            <Time>2021-08-10T16:52:57.000Z</Time>
            <Position>
              <LatitudeDegrees>43.24672521091997623443603515625</LatitudeDegrees>
              <LongitudeDegrees>-1.70442338101565837860107421875</LongitudeDegrees>
            </Position>
            <AltitudeMeters>83.40000152587890625</AltitudeMeters>
            <DistanceMeters>NAN</DistanceMeters>
          </Trackpoint>
          <Trackpoint>
            <Time>2021-08-10T16:52:58.000Z</Time>
            <Position>
              <LatitudeDegrees>43.2467256300151348114013671875</LatitudeDegrees>
              <LongitudeDegrees>-1.70443193055689334869384765625</LongitudeDegrees>
            </Position>
            <AltitudeMeters>83.40000152587890625</AltitudeMeters>
            <DistanceMeters>NAN</DistanceMeters>
          </Trackpoint>
          <Trackpoint>
            <Time>2021-08-10T16:52:59.000Z</Time>
            <Position>
              <LatitudeDegrees>43.24672571383416652679443359375</LatitudeDegrees>
              <LongitudeDegrees>-1.70443863607943058013916015625</LongitudeDegrees>
            </Position>
            <AltitudeMeters>83.40000152587890625</AltitudeMeters>
            <DistanceMeters>NAN</DistanceMeters>
          </Trackpoint>
          <Trackpoint>
            <Time>2021-08-10T16:53:00.000Z</Time>
            <Position>
              <LatitudeDegrees>43.2467273063957691192626953125</LatitudeDegrees>
              <LongitudeDegrees>-1.70444416813552379608154296875</LongitudeDegrees>
            </Position>
            <AltitudeMeters>83.40000152587890625</AltitudeMeters>
            <DistanceMeters>NAN</DistanceMeters>
          </Trackpoint>
          <Trackpoint>
            <Time>2021-08-10T16:53:01.000Z</Time>
            <Position>
              <LatitudeDegrees>43.2467293180525302886962890625</LatitudeDegrees>
              <LongitudeDegrees>-1.70445288531482219696044921875</LongitudeDegrees>
            </Position>
            <AltitudeMeters>83.40000152587890625</AltitudeMeters>
            <DistanceMeters>NAN</DistanceMeters>
          </Trackpoint>
          <Trackpoint>
            <Time>2021-08-10T16:53:02.000Z</Time>
            <Position>
              <LatitudeDegrees>43.24673208408057689666748046875</LatitudeDegrees>
              <LongitudeDegrees>-1.70446135103702545166015625</LongitudeDegrees>
            </Position>
            <AltitudeMeters>83.40000152587890625</AltitudeMeters>
            <DistanceMeters>NAN</DistanceMeters>
          </Trackpoint>
          <Trackpoint>
            <Time>2021-08-10T16:53:03.000Z</Time>
            <Position>
              <LatitudeDegrees>43.246734179556369781494140625</LatitudeDegrees>
              <LongitudeDegrees>-1.70446830801665782928466796875</LongitudeDegrees>
            </Position>
            <AltitudeMeters>83.40000152587890625</AltitudeMeters>
            <DistanceMeters>NAN</DistanceMeters>
          </Trackpoint>
          <Trackpoint>
            <Time>2021-08-10T16:53:05.000Z</Time>
            <Position>
              <LatitudeDegrees>43.24672940187156200408935546875</LatitudeDegrees>
              <LongitudeDegrees>-1.70447585172951221466064453125</LongitudeDegrees>
            </Position>
            <AltitudeMeters>83.40000152587890625</AltitudeMeters>
            <DistanceMeters>NAN</DistanceMeters>
          </Trackpoint>
          <Trackpoint>
            <Time>2021-08-10T16:53:13.000Z</Time>
            <Position>
              <LatitudeDegrees>43.2467175833880901336669921875</LatitudeDegrees>
              <LongitudeDegrees>-1.70446981675922870635986328125</LongitudeDegrees>
            </Position>
            <AltitudeMeters>83.1999969482421875</AltitudeMeters>
            <DistanceMeters>NAN</DistanceMeters>
          </Trackpoint>
          <Trackpoint>
            <Time>2021-08-10T16:53:16.000Z</Time>
            <Position>
              <LatitudeDegrees>43.24669503606855869293212890625</LatitudeDegrees>
              <LongitudeDegrees>-1.70441080816090106964111328125</LongitudeDegrees>
            </Position>
            <AltitudeMeters>83.1999969482421875</AltitudeMeters>
            <DistanceMeters>NAN</DistanceMeters>
          </Trackpoint>
          <Trackpoint>
            <Time>2021-08-10T16:53:17.000Z</Time>
            <Position>
              <LatitudeDegrees>43.24669185094535350799560546875</LatitudeDegrees>
              <LongitudeDegrees>-1.704383902251720428466796875</LongitudeDegrees>
            </Position>
            <AltitudeMeters>83.1999969482421875</AltitudeMeters>
            <DistanceMeters>NAN</DistanceMeters>
          </Trackpoint>
          <Trackpoint>
            <Time>2021-08-10T16:53:18.000Z</Time>
            <Position>
              <LatitudeDegrees>43.24669168330729007720947265625</LatitudeDegrees>
              <LongitudeDegrees>-1.70435582287609577178955078125</LongitudeDegrees>
            </Position>
            <AltitudeMeters>83.1999969482421875</AltitudeMeters>
            <DistanceMeters>NAN</DistanceMeters>
          </Trackpoint>
          <Trackpoint>
            <Time>2021-08-10T16:53:19.000Z</Time>
            <Position>
              <LatitudeDegrees>43.246690928936004638671875</LatitudeDegrees>
              <LongitudeDegrees>-1.7043290846049785614013671875</LongitudeDegrees>
            </Position>
            <AltitudeMeters>83.1999969482421875</AltitudeMeters>
            <DistanceMeters>NAN</DistanceMeters>
          </Trackpoint>
          <Trackpoint>
            <Time>2021-08-10T16:53:20.000Z</Time>
            <Position>
              <LatitudeDegrees>43.24669361114501953125</LatitudeDegrees>
              <LongitudeDegrees>-1.70430368743836879730224609375</LongitudeDegrees>
            </Position>
            <AltitudeMeters>83.1999969482421875</AltitudeMeters>
            <DistanceMeters>NAN</DistanceMeters>
          </Trackpoint>
          <Trackpoint>
            <Time>2021-08-10T16:53:23.000Z</Time>
            <Position>
              <LatitudeDegrees>43.24668489396572113037109375</LatitudeDegrees>
              <LongitudeDegrees>-1.70421567745506763458251953125</LongitudeDegrees>
            </Position>
            <AltitudeMeters>83.40000152587890625</AltitudeMeters>
            <DistanceMeters>NAN</DistanceMeters>
          </Trackpoint>
          <Trackpoint>
            <Time>2021-08-10T16:53:24.000Z</Time>
            <Position>
              <LatitudeDegrees>43.24666771106421947479248046875</LatitudeDegrees>
              <LongitudeDegrees>-1.7041886039078235626220703125</LongitudeDegrees>
            </Position>
            <AltitudeMeters>83.40000152587890625</AltitudeMeters>
            <DistanceMeters>NAN</DistanceMeters>
          </Trackpoint>
          <Trackpoint>
            <Time>2021-08-10T16:53:25.000Z</Time>
            <Position>
              <LatitudeDegrees>43.24665069580078125</LatitudeDegrees>
              <LongitudeDegrees>-1.70416370965540409088134765625</LongitudeDegrees>
            </Position>
            <AltitudeMeters>83.40000152587890625</AltitudeMeters>
            <DistanceMeters>NAN</DistanceMeters>
          </Trackpoint>
          <Trackpoint>
            <Time>2021-08-10T16:53:26.000Z</Time>
            <Position>
              <LatitudeDegrees>43.24664692394435405731201171875</LatitudeDegrees>
              <LongitudeDegrees>-1.7041473649442195892333984375</LongitudeDegrees>
            </Position>
            <AltitudeMeters>83.40000152587890625</AltitudeMeters>
            <DistanceMeters>NAN</DistanceMeters>
          </Trackpoint>
          <Trackpoint>
            <Time>2021-08-10T16:53:27.000Z</Time>
            <Position>
              <LatitudeDegrees>43.24665245600044727325439453125</LatitudeDegrees>
              <LongitudeDegrees>-1.70414107851684093475341796875</LongitudeDegrees>
            </Position>
            <AltitudeMeters>83.40000152587890625</AltitudeMeters>
            <DistanceMeters>NAN</DistanceMeters>
          </Trackpoint>
          <Trackpoint>
            <Time>2021-08-10T16:53:28.000Z</Time>
            <Position>
              <LatitudeDegrees>43.24665681459009647369384765625</LatitudeDegrees>
              <LongitudeDegrees>-1.70413370244204998016357421875</LongitudeDegrees>
            </Position>
            <AltitudeMeters>83.40000152587890625</AltitudeMeters>
            <DistanceMeters>NAN</DistanceMeters>
          </Trackpoint>
          <Trackpoint>
            <Time>2021-08-10T16:53:29.000Z</Time>
            <Position>
              <LatitudeDegrees>43.246649689972400665283203125</LatitudeDegrees>
              <LongitudeDegrees>-1.70412029139697551727294921875</LongitudeDegrees>
            </Position>
            <AltitudeMeters>83.59999847412109375</AltitudeMeters>
            <DistanceMeters>NAN</DistanceMeters>
          </Trackpoint>
          <Trackpoint>
            <Time>2021-08-10T16:53:30.000Z</Time>
            <Position>
              <LatitudeDegrees>43.24663217179477214813232421875</LatitudeDegrees>
              <LongitudeDegrees>-1.7041064612567424774169921875</LongitudeDegrees>
            </Position>
            <AltitudeMeters>83.59999847412109375</AltitudeMeters>
            <DistanceMeters>NAN</DistanceMeters>
          </Trackpoint>
          <Trackpoint>
            <Time>2021-08-10T16:53:31.000Z</Time>
            <Position>
              <LatitudeDegrees>43.246620185673236846923828125</LatitudeDegrees>
              <LongitudeDegrees>-1.704098246991634368896484375</LongitudeDegrees>
            </Position>
            <AltitudeMeters>83.59999847412109375</AltitudeMeters>
            <DistanceMeters>NAN</DistanceMeters>
          </Trackpoint>
          <Trackpoint>
            <Time>2021-08-10T16:53:33.000Z</Time>
            <Position>
              <LatitudeDegrees>43.24658523313701152801513671875</LatitudeDegrees>
              <LongitudeDegrees>-1.70407771132886409759521484375</LongitudeDegrees>
            </Position>
            <AltitudeMeters>83.8000030517578125</AltitudeMeters>
            <DistanceMeters>NAN</DistanceMeters>
          </Trackpoint>
          <Trackpoint>
            <Time>2021-08-10T16:53:35.000Z</Time>
            <Position>
              <LatitudeDegrees>43.2465543039143085479736328125</LatitudeDegrees>
              <LongitudeDegrees>-1.7040316946804523468017578125</LongitudeDegrees>
            </Position>
            <AltitudeMeters>83.8000030517578125</AltitudeMeters>
            <DistanceMeters>NAN</DistanceMeters>
          </Trackpoint>
          <Trackpoint>
            <Time>2021-08-10T16:53:36.000Z</Time>
            <Position>
              <LatitudeDegrees>43.24654567055404186248779296875</LatitudeDegrees>
              <LongitudeDegrees>-1.70400529168546199798583984375</LongitudeDegrees>
            </Position>
            <AltitudeMeters>83.8000030517578125</AltitudeMeters>
            <DistanceMeters>NAN</DistanceMeters>
          </Trackpoint>
          <Trackpoint>
            <Time>2021-08-10T16:53:37.000Z</Time>
            <Position>
              <LatitudeDegrees>43.24652253650128841400146484375</LatitudeDegrees>
              <LongitudeDegrees>-1.70397545211017131805419921875</LongitudeDegrees>
            </Position>
            <AltitudeMeters>83.8000030517578125</AltitudeMeters>
            <DistanceMeters>NAN</DistanceMeters>
          </Trackpoint>
          <Trackpoint>
            <Time>2021-08-10T16:53:38.000Z</Time>
            <Position>
              <LatitudeDegrees>43.24650996364653110504150390625</LatitudeDegrees>
              <LongitudeDegrees>-1.70394645072519779205322265625</LongitudeDegrees>
            </Position>
            <AltitudeMeters>83.8000030517578125</AltitudeMeters>
            <DistanceMeters>NAN</DistanceMeters>
          </Trackpoint>
          <Trackpoint>
            <Time>2021-08-10T16:53:40.000Z</Time>
            <Position>
              <LatitudeDegrees>43.24650711379945278167724609375</LatitudeDegrees>
              <LongitudeDegrees>-1.70389004051685333251953125</LongitudeDegrees>
            </Position>
            <AltitudeMeters>83.8000030517578125</AltitudeMeters>
            <DistanceMeters>NAN</DistanceMeters>
          </Trackpoint>
          <Trackpoint>
            <Time>2021-08-10T16:53:41.000Z</Time>
            <Position>
              <LatitudeDegrees>43.24651348404586315155029296875</LatitudeDegrees>
              <LongitudeDegrees>-1.703867577016353607177734375</LongitudeDegrees>
            </Position>
            <AltitudeMeters>83.8000030517578125</AltitudeMeters>
            <DistanceMeters>NAN</DistanceMeters>
          </Trackpoint>
          <Trackpoint>
            <Time>2021-08-10T16:53:42.000Z</Time>
            <Position>
              <LatitudeDegrees>43.2465154118835926055908203125</LatitudeDegrees>
              <LongitudeDegrees>-1.7038482986390590667724609375</LongitudeDegrees>
            </Position>
            <AltitudeMeters>84</AltitudeMeters>
            <DistanceMeters>NAN</DistanceMeters>
          </Trackpoint>
          <Trackpoint>
            <Time>2021-08-10T16:53:43.000Z</Time>
            <Position>
              <LatitudeDegrees>43.24648833833634853363037109375</LatitudeDegrees>
              <LongitudeDegrees>-1.70382591895759105682373046875</LongitudeDegrees>
            </Position>
            <AltitudeMeters>84</AltitudeMeters>
            <DistanceMeters>NAN</DistanceMeters>
          </Trackpoint>
          <Trackpoint>
            <Time>2021-08-10T16:53:44.000Z</Time>
            <Position>
              <LatitudeDegrees>43.24648012407124042510986328125</LatitudeDegrees>
              <LongitudeDegrees>-1.7038110829889774322509765625</LongitudeDegrees>
            </Position>
            <AltitudeMeters>84</AltitudeMeters>
            <DistanceMeters>NAN</DistanceMeters>
          </Trackpoint>
          <Trackpoint>
            <Time>2021-08-10T16:53:45.000Z</Time>
            <Position>
              <LatitudeDegrees>43.24646553955972194671630859375</LatitudeDegrees>
              <LongitudeDegrees>-1.70378702692687511444091796875</LongitudeDegrees>
            </Position>
            <AltitudeMeters>84</AltitudeMeters>
            <DistanceMeters>NAN</DistanceMeters>
          </Trackpoint>
          <Trackpoint>
            <Time>2021-08-10T16:53:46.000Z</Time>
            <Position>
              <LatitudeDegrees>43.24646386317908763885498046875</LatitudeDegrees>
              <LongitudeDegrees>-1.70376489870250225067138671875</LongitudeDegrees>
            </Position>
            <AltitudeMeters>84</AltitudeMeters>
            <DistanceMeters>NAN</DistanceMeters>
          </Trackpoint>
          <Trackpoint>
            <Time>2021-08-10T16:53:47.000Z</Time>
            <Position>
              <LatitudeDegrees>43.2464683055877685546875</LatitudeDegrees>
              <LongitudeDegrees>-1.703740842640399932861328125</LongitudeDegrees>
            </Position>
            <AltitudeMeters>84</AltitudeMeters>
            <DistanceMeters>NAN</DistanceMeters>
          </Trackpoint>
          <Trackpoint>
            <Time>2021-08-10T16:53:49.000Z</Time>
            <Position>
              <LatitudeDegrees>43.246448524296283721923828125</LatitudeDegrees>
              <LongitudeDegrees>-1.70370354317128658294677734375</LongitudeDegrees>
            </Position>
            <AltitudeMeters>84</AltitudeMeters>
            <DistanceMeters>NAN</DistanceMeters>
          </Trackpoint>
          <Trackpoint>
            <Time>2021-08-10T16:53:50.000Z</Time>
            <Position>
              <LatitudeDegrees>43.246439807116985321044921875</LatitudeDegrees>
              <LongitudeDegrees>-1.70368619263172149658203125</LongitudeDegrees>
            </Position>
            <AltitudeMeters>83.8000030517578125</AltitudeMeters>
            <DistanceMeters>NAN</DistanceMeters>
          </Trackpoint>
          <Trackpoint>
            <Time>2021-08-10T16:53:51.000Z</Time>
            <Position>
              <LatitudeDegrees>43.24644005857408046722412109375</LatitudeDegrees>
              <LongitudeDegrees>-1.70365660451352596282958984375</LongitudeDegrees>
            </Position>
            <AltitudeMeters>83.8000030517578125</AltitudeMeters>
            <DistanceMeters>NAN</DistanceMeters>
          </Trackpoint>
          <Trackpoint>
            <Time>2021-08-10T16:53:52.000Z</Time>
            <Position>
              <LatitudeDegrees>43.24643100611865520477294921875</LatitudeDegrees>
              <LongitudeDegrees>-1.7036303691565990447998046875</LongitudeDegrees>
            </Position>
            <AltitudeMeters>83.8000030517578125</AltitudeMeters>
            <DistanceMeters>NAN</DistanceMeters>
          </Trackpoint>
          <Trackpoint>
            <Time>2021-08-10T16:53:53.000Z</Time>
            <Position>
              <LatitudeDegrees>43.2464332692325115203857421875</LatitudeDegrees>
              <LongitudeDegrees>-1.703606732189655303955078125</LongitudeDegrees>
            </Position>
            <AltitudeMeters>83.8000030517578125</AltitudeMeters>
            <DistanceMeters>NAN</DistanceMeters>
          </Trackpoint>
          <Trackpoint>
            <Time>2021-08-10T16:53:56.000Z</Time>
            <Position>
              <LatitudeDegrees>43.2464339397847652435302734375</LatitudeDegrees>
              <LongitudeDegrees>-1.70353959314525127410888671875</LongitudeDegrees>
            </Position>
            <AltitudeMeters>83.8000030517578125</AltitudeMeters>
            <DistanceMeters>NAN</DistanceMeters>
          </Trackpoint>
          <Trackpoint>
            <Time>2021-08-10T16:53:57.000Z</Time>
            <Position>
              <LatitudeDegrees>43.24641927145421504974365234375</LatitudeDegrees>
              <LongitudeDegrees>-1.7035083286464214324951171875</LongitudeDegrees>
            </Position>
            <AltitudeMeters>83.8000030517578125</AltitudeMeters>
            <DistanceMeters>NAN</DistanceMeters>
          </Trackpoint>
          <Trackpoint>
            <Time>2021-08-10T16:53:58.000Z</Time>
            <Position>
              <LatitudeDegrees>43.24641021899878978729248046875</LatitudeDegrees>
              <LongitudeDegrees>-1.70346759259700775146484375</LongitudeDegrees>
            </Position>
            <AltitudeMeters>83.8000030517578125</AltitudeMeters>
            <DistanceMeters>NAN</DistanceMeters>
          </Trackpoint>
          <Trackpoint>
            <Time>2021-08-10T16:53:59.000Z</Time>
            <Position>
              <LatitudeDegrees>43.24638859368860721588134765625</LatitudeDegrees>
              <LongitudeDegrees>-1.70343079604208469390869140625</LongitudeDegrees>
            </Position>
            <AltitudeMeters>83.8000030517578125</AltitudeMeters>
            <DistanceMeters>NAN</DistanceMeters>
          </Trackpoint>
          <Trackpoint>
            <Time>2021-08-10T16:54:05.000Z</Time>
            <Position>
              <LatitudeDegrees>43.24629806913435459136962890625</LatitudeDegrees>
              <LongitudeDegrees>-1.703314371407032012939453125</LongitudeDegrees>
            </Position>
            <AltitudeMeters>83.8000030517578125</AltitudeMeters>
            <DistanceMeters>NAN</DistanceMeters>
          </Trackpoint>
          <Trackpoint>
            <Time>2021-08-10T16:54:09.000Z</Time>
            <Position>
              <LatitudeDegrees>43.24623419903218746185302734375</LatitudeDegrees>
              <LongitudeDegrees>-1.7032380960881710052490234375</LongitudeDegrees>
            </Position>
            <AltitudeMeters>83.8000030517578125</AltitudeMeters>
            <DistanceMeters>NAN</DistanceMeters>
          </Trackpoint>
          <Trackpoint>
            <Time>2021-08-10T16:54:10.000Z</Time>
            <Position>
              <LatitudeDegrees>43.2462223805487155914306640625</LatitudeDegrees>
              <LongitudeDegrees>-1.70322426594793796539306640625</LongitudeDegrees>
            </Position>
            <AltitudeMeters>83.8000030517578125</AltitudeMeters>
            <DistanceMeters>NAN</DistanceMeters>
          </Trackpoint>
          <Trackpoint>
            <Time>2021-08-10T16:54:11.000Z</Time>
            <Position>
              <LatitudeDegrees>43.24621014297008514404296875</LatitudeDegrees>
              <LongitudeDegrees>-1.7032176442444324493408203125</LongitudeDegrees>
            </Position>
            <AltitudeMeters>83.8000030517578125</AltitudeMeters>
            <DistanceMeters>NAN</DistanceMeters>
          </Trackpoint>
          <Trackpoint>
            <Time>2021-08-10T16:54:12.000Z</Time>
            <Position>
              <LatitudeDegrees>43.2461925409734249114990234375</LatitudeDegrees>
              <LongitudeDegrees>-1.70321202836930751800537109375</LongitudeDegrees>
            </Position>
            <AltitudeMeters>83.8000030517578125</AltitudeMeters>
            <DistanceMeters>NAN</DistanceMeters>
          </Trackpoint>
          <Trackpoint>
            <Time>2021-08-10T16:54:13.000Z</Time>
            <Position>
              <LatitudeDegrees>43.24616932310163974761962890625</LatitudeDegrees>
              <LongitudeDegrees>-1.7032032273709774017333984375</LongitudeDegrees>
            </Position>
            <AltitudeMeters>83.8000030517578125</AltitudeMeters>
            <DistanceMeters>NAN</DistanceMeters>
          </Trackpoint>
          <Trackpoint>
            <Time>2021-08-10T16:54:14.000Z</Time>
            <Position>
              <LatitudeDegrees>43.2461533136665821075439453125</LatitudeDegrees>
              <LongitudeDegrees>-1.7031951807439327239990234375</LongitudeDegrees>
            </Position>
            <AltitudeMeters>83.8000030517578125</AltitudeMeters>
            <DistanceMeters>NAN</DistanceMeters>
          </Trackpoint>
          <Trackpoint>
            <Time>2021-08-10T16:54:15.000Z</Time>
            <Position>
              <LatitudeDegrees>43.24614099226891994476318359375</LatitudeDegrees>
              <LongitudeDegrees>-1.7031831108033657073974609375</LongitudeDegrees>
            </Position>
            <AltitudeMeters>83.8000030517578125</AltitudeMeters>
            <DistanceMeters>NAN</DistanceMeters>
          </Trackpoint>
          <Trackpoint>
            <Time>2021-08-10T16:54:16.000Z</Time>
            <Position>
              <LatitudeDegrees>43.2461305148899555206298828125</LatitudeDegrees>
              <LongitudeDegrees>-1.70316726900637149810791015625</LongitudeDegrees>
            </Position>
            <AltitudeMeters>83.8000030517578125</AltitudeMeters>
            <DistanceMeters>NAN</DistanceMeters>
          </Trackpoint>
          <Trackpoint>
            <Time>2021-08-10T16:54:17.000Z</Time>
            <Position>
              <LatitudeDegrees>43.2461191155016422271728515625</LatitudeDegrees>
              <LongitudeDegrees>-1.70314748771488666534423828125</LongitudeDegrees>
            </Position>
            <AltitudeMeters>83.8000030517578125</AltitudeMeters>
            <DistanceMeters>NAN</DistanceMeters>
          </Trackpoint>
          <Trackpoint>
            <Time>2021-08-10T16:54:18.000Z</Time>
            <Position>
              <LatitudeDegrees>43.2461093924939632415771484375</LatitudeDegrees>
              <LongitudeDegrees>-1.70312871225178241729736328125</LongitudeDegrees>
            </Position>
            <AltitudeMeters>83.8000030517578125</AltitudeMeters>
            <DistanceMeters>NAN</DistanceMeters>
          </Trackpoint>
          <Trackpoint>
            <Time>2021-08-10T16:54:19.000Z</Time>
            <Position>
              <LatitudeDegrees>43.2461021840572357177734375</LatitudeDegrees>
              <LongitudeDegrees>-1.7031160555779933929443359375</LongitudeDegrees>
            </Position>
            <AltitudeMeters>83.8000030517578125</AltitudeMeters>
            <DistanceMeters>NAN</DistanceMeters>
          </Trackpoint>
          <Trackpoint>
            <Time>2021-08-10T16:54:24.000Z</Time>
            <Position>
              <LatitudeDegrees>43.246036805212497711181640625</LatitudeDegrees>
              <LongitudeDegrees>-1.70303533785045146942138671875</LongitudeDegrees>
            </Position>
            <AltitudeMeters>84.1999969482421875</AltitudeMeters>
            <DistanceMeters>NAN</DistanceMeters>
          </Trackpoint>
          <Trackpoint>
            <Time>2021-08-10T16:54:25.000Z</Time>
            <Position>
              <LatitudeDegrees>43.24602448381483554840087890625</LatitudeDegrees>
              <LongitudeDegrees>-1.70302125625312328338623046875</LongitudeDegrees>
            </Position>
            <AltitudeMeters>84.1999969482421875</AltitudeMeters>
            <DistanceMeters>NAN</DistanceMeters>
          </Trackpoint>
          <Trackpoint>
            <Time>2021-08-10T16:54:26.000Z</Time>
            <Position>
              <LatitudeDegrees>43.24601392261683940887451171875</LatitudeDegrees>
              <LongitudeDegrees>-1.703010611236095428466796875</LongitudeDegrees>
            </Position>
            <AltitudeMeters>84.1999969482421875</AltitudeMeters>
            <DistanceMeters>NAN</DistanceMeters>
          </Trackpoint>
          <Trackpoint>
            <Time>2021-08-10T16:54:27.000Z</Time>
            <Position>
              <LatitudeDegrees>43.2460061274468898773193359375</LatitudeDegrees>
              <LongitudeDegrees>-1.70300583355128765106201171875</LongitudeDegrees>
            </Position>
            <AltitudeMeters>84.1999969482421875</AltitudeMeters>
            <DistanceMeters>NAN</DistanceMeters>
          </Trackpoint>
          <Trackpoint>
            <Time>2021-08-10T16:54:28.000Z</Time>
            <Position>
              <LatitudeDegrees>43.24599380604922771453857421875</LatitudeDegrees>
              <LongitudeDegrees>-1.7030044086277484893798828125</LongitudeDegrees>
            </Position>
            <AltitudeMeters>84.1999969482421875</AltitudeMeters>
            <DistanceMeters>NAN</DistanceMeters>
          </Trackpoint>
          <Trackpoint>
            <Time>2021-08-10T16:54:29.000Z</Time>
            <Position>
              <LatitudeDegrees>43.24598089791834354400634765625</LatitudeDegrees>
              <LongitudeDegrees>-1.70300281606614589691162109375</LongitudeDegrees>
            </Position>
            <AltitudeMeters>84.40000152587890625</AltitudeMeters>
            <DistanceMeters>NAN</DistanceMeters>
          </Trackpoint>
          <Trackpoint>
            <Time>2021-08-10T16:54:30.000Z</Time>
            <Position>
              <LatitudeDegrees>43.24596765451133251190185546875</LatitudeDegrees>
              <LongitudeDegrees>-1.7029940150678157806396484375</LongitudeDegrees>
            </Position>
            <AltitudeMeters>84.40000152587890625</AltitudeMeters>
            <DistanceMeters>NAN</DistanceMeters>
          </Trackpoint>
          <Trackpoint>
            <Time>2021-08-10T16:54:31.000Z</Time>
            <Position>
              <LatitudeDegrees>43.2459511421620845794677734375</LatitudeDegrees>
              <LongitudeDegrees>-1.70298487879335880279541015625</LongitudeDegrees>
            </Position>
            <AltitudeMeters>84.59999847412109375</AltitudeMeters>
            <DistanceMeters>NAN</DistanceMeters>
          </Trackpoint>
          <Trackpoint>
            <Time>2021-08-10T16:54:32.000Z</Time>
            <Position>
              <LatitudeDegrees>43.24594167061150074005126953125</LatitudeDegrees>
              <LongitudeDegrees>-1.70297867618501186370849609375</LongitudeDegrees>
            </Position>
            <AltitudeMeters>84.59999847412109375</AltitudeMeters>
            <DistanceMeters>NAN</DistanceMeters>
          </Trackpoint>
          <Trackpoint>
            <Time>2021-08-10T16:54:33.000Z</Time>
            <Position>
              <LatitudeDegrees>43.2459246553480625152587890625</LatitudeDegrees>
              <LongitudeDegrees>-1.7029668577015399932861328125</LongitudeDegrees>
            </Position>
            <AltitudeMeters>84.59999847412109375</AltitudeMeters>
            <DistanceMeters>NAN</DistanceMeters>
          </Trackpoint>
          <Trackpoint>
            <Time>2021-08-10T16:54:34.000Z</Time>
            <Position>
              <LatitudeDegrees>43.24590629898011684417724609375</LatitudeDegrees>
              <LongitudeDegrees>-1.70295386575162410736083984375</LongitudeDegrees>
            </Position>
            <AltitudeMeters>84.59999847412109375</AltitudeMeters>
            <DistanceMeters>NAN</DistanceMeters>
          </Trackpoint>
          <Trackpoint>
            <Time>2021-08-10T16:54:35.000Z</Time>
            <Position>
              <LatitudeDegrees>43.24589037336409091949462890625</LatitudeDegrees>
              <LongitudeDegrees>-1.70294456183910369873046875</LongitudeDegrees>
            </Position>
            <AltitudeMeters>84.59999847412109375</AltitudeMeters>
            <DistanceMeters>NAN</DistanceMeters>
          </Trackpoint>
          <Trackpoint>
            <Time>2021-08-10T16:54:36.000Z</Time>
            <Position>
              <LatitudeDegrees>43.2458713464438915252685546875</LatitudeDegrees>
              <LongitudeDegrees>-1.70293123461306095123291015625</LongitudeDegrees>
            </Position>
            <AltitudeMeters>84.59999847412109375</AltitudeMeters>
            <DistanceMeters>NAN</DistanceMeters>
          </Trackpoint>
          <Trackpoint>
            <Time>2021-08-10T16:54:39.000Z</Time>
            <Position>
              <LatitudeDegrees>43.24582499451935291290283203125</LatitudeDegrees>
              <LongitudeDegrees>-1.70292100869119167327880859375</LongitudeDegrees>
            </Position>
            <AltitudeMeters>84.8000030517578125</AltitudeMeters>
            <DistanceMeters>NAN</DistanceMeters>
          </Trackpoint>
          <Trackpoint>
            <Time>2021-08-10T16:54:40.000Z</Time>
            <Position>
              <LatitudeDegrees>43.24580957181751728057861328125</LatitudeDegrees>
              <LongitudeDegrees>-1.70292234979569911956787109375</LongitudeDegrees>
            </Position>
            <AltitudeMeters>84.8000030517578125</AltitudeMeters>
            <DistanceMeters>NAN</DistanceMeters>
          </Trackpoint>
          <Trackpoint>
            <Time>2021-08-10T16:54:42.000Z</Time>
            <Position>
              <LatitudeDegrees>43.24577839113771915435791015625</LatitudeDegrees>
              <LongitudeDegrees>-1.70291044749319553375244140625</LongitudeDegrees>
            </Position>
            <AltitudeMeters>84.8000030517578125</AltitudeMeters>
            <DistanceMeters>NAN</DistanceMeters>
          </Trackpoint>
          <Trackpoint>
            <Time>2021-08-10T16:54:43.000Z</Time>
            <Position>
              <LatitudeDegrees>43.245761878788471221923828125</LatitudeDegrees>
              <LongitudeDegrees>-1.70290432870388031005859375</LongitudeDegrees>
            </Position>
            <AltitudeMeters>85</AltitudeMeters>
            <DistanceMeters>NAN</DistanceMeters>
          </Trackpoint>
          <Trackpoint>
            <Time>2021-08-10T16:54:44.000Z</Time>
            <Position>
              <LatitudeDegrees>43.2457493059337139129638671875</LatitudeDegrees>
              <LongitudeDegrees>-1.70289536006748676300048828125</LongitudeDegrees>
            </Position>
            <AltitudeMeters>85</AltitudeMeters>
            <DistanceMeters>NAN</DistanceMeters>
          </Trackpoint>
          <Trackpoint>
            <Time>2021-08-10T16:54:45.000Z</Time>
            <Position>
              <LatitudeDegrees>43.2457320392131805419921875</LatitudeDegrees>
              <LongitudeDegrees>-1.702887229621410369873046875</LongitudeDegrees>
            </Position>
            <AltitudeMeters>85</AltitudeMeters>
            <DistanceMeters>NAN</DistanceMeters>
          </Trackpoint>
          <Trackpoint>
            <Time>2021-08-10T16:54:46.000Z</Time>
            <Position>
              <LatitudeDegrees>43.245714604854583740234375</LatitudeDegrees>
              <LongitudeDegrees>-1.7028810270130634307861328125</LongitudeDegrees>
            </Position>
            <AltitudeMeters>85</AltitudeMeters>
            <DistanceMeters>NAN</DistanceMeters>
          </Trackpoint>
          <Trackpoint>
            <Time>2021-08-10T16:54:47.000Z</Time>
            <Position>
              <LatitudeDegrees>43.245698176324367523193359375</LatitudeDegrees>
              <LongitudeDegrees>-1.7028810270130634307861328125</LongitudeDegrees>
            </Position>
            <AltitudeMeters>85</AltitudeMeters>
            <DistanceMeters>NAN</DistanceMeters>
          </Trackpoint>
          <Trackpoint>
            <Time>2021-08-10T16:54:48.000Z</Time>
            <Position>
              <LatitudeDegrees>43.24568853713572025299072265625</LatitudeDegrees>
              <LongitudeDegrees>-1.70287725515663623809814453125</LongitudeDegrees>
            </Position>
            <AltitudeMeters>85</AltitudeMeters>
            <DistanceMeters>NAN</DistanceMeters>
          </Trackpoint>
          <Trackpoint>
            <Time>2021-08-10T16:54:49.000Z</Time>
            <Position>
              <LatitudeDegrees>43.24567059986293315887451171875</LatitudeDegrees>
              <LongitudeDegrees>-1.70287423767149448394775390625</LongitudeDegrees>
            </Position>
            <AltitudeMeters>85</AltitudeMeters>
            <DistanceMeters>NAN</DistanceMeters>
          </Trackpoint>
          <Trackpoint>
            <Time>2021-08-10T16:54:51.000Z</Time>
            <Position>
              <LatitudeDegrees>43.24564495123922824859619140625</LatitudeDegrees>
              <LongitudeDegrees>-1.7028669454157352447509765625</LongitudeDegrees>
            </Position>
            <AltitudeMeters>85</AltitudeMeters>
            <DistanceMeters>NAN</DistanceMeters>
          </Trackpoint>
          <Trackpoint>
            <Time>2021-08-10T16:54:52.000Z</Time>
            <Position>
              <LatitudeDegrees>43.2456306181848049163818359375</LatitudeDegrees>
              <LongitudeDegrees>-1.70285864733159542083740234375</LongitudeDegrees>
            </Position>
            <AltitudeMeters>85</AltitudeMeters>
            <DistanceMeters>NAN</DistanceMeters>
          </Trackpoint>
          <Trackpoint>
            <Time>2021-08-10T16:54:53.000Z</Time>
            <Position>
              <LatitudeDegrees>43.24561536312103271484375</LatitudeDegrees>
              <LongitudeDegrees>-1.702845655381679534912109375</LongitudeDegrees>
            </Position>
            <AltitudeMeters>85.1999969482421875</AltitudeMeters>
            <DistanceMeters>NAN</DistanceMeters>
          </Trackpoint>
          <Trackpoint>
            <Time>2021-08-10T16:54:54.000Z</Time>
            <Position>
              <LatitudeDegrees>43.24560203589498996734619140625</LatitudeDegrees>
              <LongitudeDegrees>-1.7028272151947021484375</LongitudeDegrees>
            </Position>
            <AltitudeMeters>85.1999969482421875</AltitudeMeters>
            <DistanceMeters>NAN</DistanceMeters>
          </Trackpoint>
          <Trackpoint>
            <Time>2021-08-10T16:54:55.000Z</Time>
            <Position>
              <LatitudeDegrees>43.2455870322883129119873046875</LatitudeDegrees>
              <LongitudeDegrees>-1.7028059251606464385986328125</LongitudeDegrees>
            </Position>
            <AltitudeMeters>85.1999969482421875</AltitudeMeters>
            <DistanceMeters>NAN</DistanceMeters>
          </Trackpoint>
          <Trackpoint>
            <Time>2021-08-10T16:54:56.000Z</Time>
            <Position>
              <LatitudeDegrees>43.2455853559076786041259765625</LatitudeDegrees>
              <LongitudeDegrees>-1.70280533842742443084716796875</LongitudeDegrees>
            </Position>
            <AltitudeMeters>85.1999969482421875</AltitudeMeters>
            <DistanceMeters>NAN</DistanceMeters>
          </Trackpoint>
          <Trackpoint>
            <Time>2021-08-10T16:54:57.000Z</Time>
            <Position>
              <LatitudeDegrees>43.24558275751769542694091796875</LatitudeDegrees>
              <LongitudeDegrees>-1.70280450023710727691650390625</LongitudeDegrees>
            </Position>
            <AltitudeMeters>85.1999969482421875</AltitudeMeters>
            <DistanceMeters>NAN</DistanceMeters>
          </Trackpoint>
          <Trackpoint>
            <Time>2021-08-10T16:54:58.000Z</Time>
            <Position>
              <LatitudeDegrees>43.2455789856612682342529296875</LatitudeDegrees>
              <LongitudeDegrees>-1.70279704034328460693359375</LongitudeDegrees>
            </Position>
            <AltitudeMeters>85.40000152587890625</AltitudeMeters>
            <DistanceMeters>NAN</DistanceMeters>
          </Trackpoint>
          <Trackpoint>
            <Time>2021-08-10T16:55:00.000Z</Time>
            <Position>
              <LatitudeDegrees>43.2455759681761264801025390625</LatitudeDegrees>
              <LongitudeDegrees>-1.70276544056832790374755859375</LongitudeDegrees>
            </Position>
            <AltitudeMeters>85.40000152587890625</AltitudeMeters>
            <DistanceMeters>NAN</DistanceMeters>
          </Trackpoint>
          <Trackpoint>
            <Time>2021-08-10T16:55:01.000Z</Time>
            <Position>
              <LatitudeDegrees>43.24557119049131870269775390625</LatitudeDegrees>
              <LongitudeDegrees>-1.702747754752635955810546875</LongitudeDegrees>
            </Position>
            <AltitudeMeters>85.59999847412109375</AltitudeMeters>
            <DistanceMeters>NAN</DistanceMeters>
          </Trackpoint>
          <Trackpoint>
            <Time>2021-08-10T16:55:03.000Z</Time>
            <Position>
              <LatitudeDegrees>43.2455662451684474945068359375</LatitudeDegrees>
              <LongitudeDegrees>-1.7027264647185802459716796875</LongitudeDegrees>
            </Position>
            <AltitudeMeters>85.59999847412109375</AltitudeMeters>
            <DistanceMeters>NAN</DistanceMeters>
          </Trackpoint>
          <Trackpoint>
            <Time>2021-08-10T16:55:04.000Z</Time>
            <Position>
              <LatitudeDegrees>43.24555836617946624755859375</LatitudeDegrees>
              <LongitudeDegrees>-1.70272193849086761474609375</LongitudeDegrees>
            </Position>
            <AltitudeMeters>85.8000030517578125</AltitudeMeters>
            <DistanceMeters>NAN</DistanceMeters>
          </Trackpoint>
          <Trackpoint>
            <Time>2021-08-10T16:55:05.000Z</Time>
            <Position>
              <LatitudeDegrees>43.24554822407662868499755859375</LatitudeDegrees>
              <LongitudeDegrees>-1.7027199268341064453125</LongitudeDegrees>
            </Position>
            <AltitudeMeters>85.8000030517578125</AltitudeMeters>
            <DistanceMeters>NAN</DistanceMeters>
          </Trackpoint>
          <Trackpoint>
            <Time>2021-08-10T16:55:07.000Z</Time>
            <Position>
              <LatitudeDegrees>43.24552877806127071380615234375</LatitudeDegrees>
              <LongitudeDegrees>-1.70272638089954853057861328125</LongitudeDegrees>
            </Position>
            <AltitudeMeters>85.8000030517578125</AltitudeMeters>
            <DistanceMeters>NAN</DistanceMeters>
          </Trackpoint>
          <Trackpoint>
            <Time>2021-08-10T16:55:09.000Z</Time>
            <Position>
              <LatitudeDegrees>43.24550949968397617340087890625</LatitudeDegrees>
              <LongitudeDegrees>-1.702728979289531707763671875</LongitudeDegrees>
            </Position>
            <AltitudeMeters>85.8000030517578125</AltitudeMeters>
            <DistanceMeters>NAN</DistanceMeters>
          </Trackpoint>
          <Trackpoint>
            <Time>2021-08-10T16:55:10.000Z</Time>
            <Position>
              <LatitudeDegrees>43.24549441225826740264892578125</LatitudeDegrees>
              <LongitudeDegrees>-1.7027177475392818450927734375</LongitudeDegrees>
            </Position>
            <AltitudeMeters>85.8000030517578125</AltitudeMeters>
            <DistanceMeters>NAN</DistanceMeters>
          </Trackpoint>
          <Trackpoint>
            <Time>2021-08-10T16:55:11.000Z</Time>
            <Position>
              <LatitudeDegrees>43.24548737145960330963134765625</LatitudeDegrees>
              <LongitudeDegrees>-1.7027024924755096435546875</LongitudeDegrees>
            </Position>
            <AltitudeMeters>86</AltitudeMeters>
            <DistanceMeters>NAN</DistanceMeters>
          </Trackpoint>
          <Trackpoint>
            <Time>2021-08-10T16:55:12.000Z</Time>
            <Position>
              <LatitudeDegrees>43.24548502452671527862548828125</LatitudeDegrees>
              <LongitudeDegrees>-1.70268229208886623382568359375</LongitudeDegrees>
            </Position>
            <AltitudeMeters>86</AltitudeMeters>
            <DistanceMeters>NAN</DistanceMeters>
          </Trackpoint>
          <Trackpoint>
            <Time>2021-08-10T16:55:13.000Z</Time>
            <Position>
              <LatitudeDegrees>43.24548603035509586334228515625</LatitudeDegrees>
              <LongitudeDegrees>-1.70265848748385906219482421875</LongitudeDegrees>
            </Position>
            <AltitudeMeters>86</AltitudeMeters>
            <DistanceMeters>NAN</DistanceMeters>
          </Trackpoint>
          <Trackpoint>
            <Time>2021-08-10T16:55:15.000Z</Time>
            <Position>
              <LatitudeDegrees>43.24548728764057159423828125</LatitudeDegrees>
              <LongitudeDegrees>-1.70262311585247516632080078125</LongitudeDegrees>
            </Position>
            <AltitudeMeters>86</AltitudeMeters>
            <DistanceMeters>NAN</DistanceMeters>
          </Trackpoint>
          <Trackpoint>
            <Time>2021-08-10T16:55:16.000Z</Time>
            <Position>
              <LatitudeDegrees>43.24548250995576381683349609375</LatitudeDegrees>
              <LongitudeDegrees>-1.702609620988368988037109375</LongitudeDegrees>
            </Position>
            <AltitudeMeters>86</AltitudeMeters>
            <DistanceMeters>NAN</DistanceMeters>
          </Trackpoint>
          <Trackpoint>
            <Time>2021-08-10T16:55:17.000Z</Time>
            <Position>
              <LatitudeDegrees>43.24547521770000457763671875</LatitudeDegrees>
              <LongitudeDegrees>-1.7025983892381191253662109375</LongitudeDegrees>
            </Position>
            <AltitudeMeters>86.1999969482421875</AltitudeMeters>
            <DistanceMeters>NAN</DistanceMeters>
          </Trackpoint>
          <Trackpoint>
            <Time>2021-08-10T16:55:18.000Z</Time>
            <Position>
              <LatitudeDegrees>43.24546272866427898406982421875</LatitudeDegrees>
              <LongitudeDegrees>-1.70259243808686733245849609375</LongitudeDegrees>
            </Position>
            <AltitudeMeters>86.1999969482421875</AltitudeMeters>
            <DistanceMeters>NAN</DistanceMeters>
          </Trackpoint>
          <Trackpoint>
            <Time>2021-08-10T16:55:20.000Z</Time>
            <Position>
              <LatitudeDegrees>43.24543909169733524322509765625</LatitudeDegrees>
              <LongitudeDegrees>-1.702595539391040802001953125</LongitudeDegrees>
            </Position>
            <AltitudeMeters>86.1999969482421875</AltitudeMeters>
            <DistanceMeters>NAN</DistanceMeters>
          </Trackpoint>
          <Trackpoint>
            <Time>2021-08-10T16:55:21.000Z</Time>
            <Position>
              <LatitudeDegrees>43.24542869813740253448486328125</LatitudeDegrees>
              <LongitudeDegrees>-1.70259855687618255615234375</LongitudeDegrees>
            </Position>
            <AltitudeMeters>86.40000152587890625</AltitudeMeters>
            <DistanceMeters>NAN</DistanceMeters>
          </Trackpoint>
          <Trackpoint>
            <Time>2021-08-10T16:55:22.000Z</Time>
            <Position>
              <LatitudeDegrees>43.2454160414636135101318359375</LatitudeDegrees>
              <LongitudeDegrees>-1.70260014943778514862060546875</LongitudeDegrees>
            </Position>
            <AltitudeMeters>86.59999847412109375</AltitudeMeters>
            <DistanceMeters>NAN</DistanceMeters>
          </Trackpoint>
          <Trackpoint>
            <Time>2021-08-10T16:55:23.000Z</Time>
            <Position>
              <LatitudeDegrees>43.24541109614074230194091796875</LatitudeDegrees>
              <LongitudeDegrees>-1.7025993950664997100830078125</LongitudeDegrees>
            </Position>
            <AltitudeMeters>86.59999847412109375</AltitudeMeters>
            <DistanceMeters>NAN</DistanceMeters>
          </Trackpoint>
          <Trackpoint>
            <Time>2021-08-10T16:55:25.000Z</Time>
            <Position>
              <LatitudeDegrees>43.2454123534262180328369140625</LatitudeDegrees>
              <LongitudeDegrees>-1.70260132290422916412353515625</LongitudeDegrees>
            </Position>
            <AltitudeMeters>87</AltitudeMeters>
            <DistanceMeters>NAN</DistanceMeters>
          </Trackpoint>
          <Trackpoint>
            <Time>2021-08-10T16:55:26.000Z</Time>
            <Position>
              <LatitudeDegrees>43.24541411362588405609130859375</LatitudeDegrees>
              <LongitudeDegrees>-1.7026027478277683258056640625</LongitudeDegrees>
            </Position>
            <AltitudeMeters>87</AltitudeMeters>
            <DistanceMeters>NAN</DistanceMeters>
          </Trackpoint>
          <Trackpoint>
            <Time>2021-08-10T16:55:55.000Z</Time>
            <Position>
              <LatitudeDegrees>43.24540003202855587005615234375</LatitudeDegrees>
              <LongitudeDegrees>-1.7026081122457981109619140625</LongitudeDegrees>
            </Position>
            <AltitudeMeters>87.40000152587890625</AltitudeMeters>
            <DistanceMeters>NAN</DistanceMeters>
          </Trackpoint>
          <Trackpoint>
            <Time>2021-08-10T16:58:48.000Z</Time>
            <Position>
              <LatitudeDegrees>43.24539986439049243927001953125</LatitudeDegrees>
              <LongitudeDegrees>-1.702600903809070587158203125</LongitudeDegrees>
            </Position>
            <AltitudeMeters>87.40000152587890625</AltitudeMeters>
            <DistanceMeters>NAN</DistanceMeters>
          </Trackpoint>
          <Trackpoint>
            <Time>2021-08-10T16:58:49.000Z</Time>
            <Position>
              <LatitudeDegrees>43.24539802037179470062255859375</LatitudeDegrees>
              <LongitudeDegrees>-1.70258925296366214752197265625</LongitudeDegrees>
            </Position>
            <AltitudeMeters>87.40000152587890625</AltitudeMeters>
            <DistanceMeters>NAN</DistanceMeters>
          </Trackpoint>
          <Trackpoint>
            <Time>2021-08-10T16:58:51.000Z</Time>
            <Position>
              <LatitudeDegrees>43.24538729153573513031005859375</LatitudeDegrees>
              <LongitudeDegrees>-1.702576093375682830810546875</LongitudeDegrees>
            </Position>
            <AltitudeMeters>87.40000152587890625</AltitudeMeters>
            <DistanceMeters>NAN</DistanceMeters>
          </Trackpoint>
          <Trackpoint>
            <Time>2021-08-10T16:58:53.000Z</Time>
            <Position>
              <LatitudeDegrees>43.24538209475576877593994140625</LatitudeDegrees>
              <LongitudeDegrees>-1.7025517858564853668212890625</LongitudeDegrees>
            </Position>
            <AltitudeMeters>87.40000152587890625</AltitudeMeters>
            <DistanceMeters>NAN</DistanceMeters>
          </Trackpoint>
          <Trackpoint>
            <Time>2021-08-10T16:58:56.000Z</Time>
            <Position>
              <LatitudeDegrees>43.24541863985359668731689453125</LatitudeDegrees>
              <LongitudeDegrees>-1.7025390453636646270751953125</LongitudeDegrees>
            </Position>
            <AltitudeMeters>87.1999969482421875</AltitudeMeters>
            <DistanceMeters>NAN</DistanceMeters>
          </Trackpoint>
          <Trackpoint>
            <Time>2021-08-10T16:59:01.000Z</Time>
            <Position>
              <LatitudeDegrees>43.24553933925926685333251953125</LatitudeDegrees>
              <LongitudeDegrees>-1.70252881944179534912109375</LongitudeDegrees>
            </Position>
            <AltitudeMeters>87</AltitudeMeters>
            <DistanceMeters>NAN</DistanceMeters>
          </Trackpoint>
          <Trackpoint>
            <Time>2021-08-10T16:59:02.000Z</Time>
            <Position>
              <LatitudeDegrees>43.245559372007846832275390625</LatitudeDegrees>
              <LongitudeDegrees>-1.7025343514978885650634765625</LongitudeDegrees>
            </Position>
            <AltitudeMeters>87</AltitudeMeters>
            <DistanceMeters>NAN</DistanceMeters>
          </Trackpoint>
          <Trackpoint>
            <Time>2021-08-10T16:59:03.000Z</Time>
            <Position>
              <LatitudeDegrees>43.24558007530868053436279296875</LatitudeDegrees>
              <LongitudeDegrees>-1.7025350220501422882080078125</LongitudeDegrees>
            </Position>
            <AltitudeMeters>87</AltitudeMeters>
            <DistanceMeters>NAN</DistanceMeters>
          </Trackpoint>
          <Trackpoint>
            <Time>2021-08-10T16:59:04.000Z</Time>
            <Position>
              <LatitudeDegrees>43.24560823850333690643310546875</LatitudeDegrees>
              <LongitudeDegrees>-1.70253284275531768798828125</LongitudeDegrees>
            </Position>
            <AltitudeMeters>87</AltitudeMeters>
            <DistanceMeters>NAN</DistanceMeters>
          </Trackpoint>
          <Trackpoint>
            <Time>2021-08-10T16:59:08.000Z</Time>
            <Position>
              <LatitudeDegrees>43.24567914940416812896728515625</LatitudeDegrees>
              <LongitudeDegrees>-1.70252119190990924835205078125</LongitudeDegrees>
            </Position>
            <AltitudeMeters>86.59999847412109375</AltitudeMeters>
            <DistanceMeters>NAN</DistanceMeters>
          </Trackpoint>
          <Trackpoint>
            <Time>2021-08-10T16:59:09.000Z</Time>
            <Position>
              <LatitudeDegrees>43.245693147182464599609375</LatitudeDegrees>
              <LongitudeDegrees>-1.70251834206283092498779296875</LongitudeDegrees>
            </Position>
            <AltitudeMeters>86.59999847412109375</AltitudeMeters>
            <DistanceMeters>NAN</DistanceMeters>
          </Trackpoint>
          <Trackpoint>
            <Time>2021-08-10T16:59:11.000Z</Time>
            <Position>
              <LatitudeDegrees>43.2457415945827960968017578125</LatitudeDegrees>
              <LongitudeDegrees>-1.70251079834997653961181640625</LongitudeDegrees>
            </Position>
            <AltitudeMeters>86.40000152587890625</AltitudeMeters>
            <DistanceMeters>NAN</DistanceMeters>
          </Trackpoint>
          <Trackpoint>
            <Time>2021-08-10T16:59:12.000Z</Time>
            <Position>
              <LatitudeDegrees>43.245758526027202606201171875</LatitudeDegrees>
              <LongitudeDegrees>-1.70250426046550273895263671875</LongitudeDegrees>
            </Position>
            <AltitudeMeters>86.40000152587890625</AltitudeMeters>
            <DistanceMeters>NAN</DistanceMeters>
          </Trackpoint>
          <Trackpoint>
            <Time>2021-08-10T16:59:13.000Z</Time>
            <Position>
              <LatitudeDegrees>43.2457767985761165618896484375</LatitudeDegrees>
              <LongitudeDegrees>-1.70249202288687229156494140625</LongitudeDegrees>
            </Position>
            <AltitudeMeters>86.1999969482421875</AltitudeMeters>
            <DistanceMeters>NAN</DistanceMeters>
          </Trackpoint>
          <Trackpoint>
            <Time>2021-08-10T16:59:14.000Z</Time>
            <Position>
              <LatitudeDegrees>43.24578627012670040130615234375</LatitudeDegrees>
              <LongitudeDegrees>-1.70248665846884250640869140625</LongitudeDegrees>
            </Position>
            <AltitudeMeters>86.1999969482421875</AltitudeMeters>
            <DistanceMeters>NAN</DistanceMeters>
          </Trackpoint>
          <Trackpoint>
            <Time>2021-08-10T16:59:15.000Z</Time>
            <Position>
              <LatitudeDegrees>43.245795406401157379150390625</LatitudeDegrees>
              <LongitudeDegrees>-1.70248012058436870574951171875</LongitudeDegrees>
            </Position>
            <AltitudeMeters>86.1999969482421875</AltitudeMeters>
            <DistanceMeters>NAN</DistanceMeters>
          </Trackpoint>
          <Trackpoint>
            <Time>2021-08-10T16:59:16.000Z</Time>
            <Position>
              <LatitudeDegrees>43.24580638669431209564208984375</LatitudeDegrees>
              <LongitudeDegrees>-1.70248146168887615203857421875</LongitudeDegrees>
            </Position>
            <AltitudeMeters>86.1999969482421875</AltitudeMeters>
            <DistanceMeters>NAN</DistanceMeters>
          </Trackpoint>
          <Trackpoint>
            <Time>2021-08-10T16:59:17.000Z</Time>
            <Position>
              <LatitudeDegrees>43.245816193521022796630859375</LatitudeDegrees>
              <LongitudeDegrees>-1.70247844420373439788818359375</LongitudeDegrees>
            </Position>
            <AltitudeMeters>86.1999969482421875</AltitudeMeters>
            <DistanceMeters>NAN</DistanceMeters>
          </Trackpoint>
          <Trackpoint>
            <Time>2021-08-10T16:59:20.000Z</Time>
            <Position>
              <LatitudeDegrees>43.24583253823220729827880859375</LatitudeDegrees>
              <LongitudeDegrees>-1.702468134462833404541015625</LongitudeDegrees>
            </Position>
            <AltitudeMeters>86.1999969482421875</AltitudeMeters>
            <DistanceMeters>NAN</DistanceMeters>
          </Trackpoint>
          <Trackpoint>
            <Time>2021-08-10T16:59:21.000Z</Time>
            <Position>
              <LatitudeDegrees>43.2458304427564144134521484375</LatitudeDegrees>
              <LongitudeDegrees>-1.70245497487485408782958984375</LongitudeDegrees>
            </Position>
            <AltitudeMeters>86.1999969482421875</AltitudeMeters>
            <DistanceMeters>NAN</DistanceMeters>
          </Trackpoint>
          <Trackpoint>
            <Time>2021-08-10T16:59:22.000Z</Time>
            <Position>
              <LatitudeDegrees>43.24582499451935291290283203125</LatitudeDegrees>
              <LongitudeDegrees>-1.70243821106851100921630859375</LongitudeDegrees>
            </Position>
            <AltitudeMeters>86.1999969482421875</AltitudeMeters>
            <DistanceMeters>NAN</DistanceMeters>
          </Trackpoint>
          <Trackpoint>
            <Time>2021-08-10T16:59:24.000Z</Time>
            <Position>
              <LatitudeDegrees>43.245809487998485565185546875</LatitudeDegrees>
              <LongitudeDegrees>-1.70241759158670902252197265625</LongitudeDegrees>
            </Position>
            <AltitudeMeters>86.40000152587890625</AltitudeMeters>
            <DistanceMeters>NAN</DistanceMeters>
          </Trackpoint>
          <Trackpoint>
            <Time>2021-08-10T16:59:25.000Z</Time>
            <Position>
              <LatitudeDegrees>43.24579901061952114105224609375</LatitudeDegrees>
              <LongitudeDegrees>-1.7023921944200992584228515625</LongitudeDegrees>
            </Position>
            <AltitudeMeters>86.59999847412109375</AltitudeMeters>
            <DistanceMeters>NAN</DistanceMeters>
          </Trackpoint>
          <Trackpoint>
            <Time>2021-08-10T16:59:27.000Z</Time>
            <Position>
              <LatitudeDegrees>43.2457938976585865020751953125</LatitudeDegrees>
              <LongitudeDegrees>-1.702342741191387176513671875</LongitudeDegrees>
            </Position>
            <AltitudeMeters>87</AltitudeMeters>
            <DistanceMeters>NAN</DistanceMeters>
          </Trackpoint>
          <Trackpoint>
            <Time>2021-08-10T16:59:28.000Z</Time>
            <Position>
              <LatitudeDegrees>43.24579113163053989410400390625</LatitudeDegrees>
              <LongitudeDegrees>-1.7023211158812046051025390625</LongitudeDegrees>
            </Position>
            <AltitudeMeters>87.1999969482421875</AltitudeMeters>
            <DistanceMeters>NAN</DistanceMeters>
          </Trackpoint>
          <Trackpoint>
            <Time>2021-08-10T16:59:29.000Z</Time>
            <Position>
              <LatitudeDegrees>43.245792724192142486572265625</LatitudeDegrees>
              <LongitudeDegrees>-1.70229806564748287200927734375</LongitudeDegrees>
            </Position>
            <AltitudeMeters>87.1999969482421875</AltitudeMeters>
            <DistanceMeters>NAN</DistanceMeters>
          </Trackpoint>
          <Trackpoint>
            <Time>2021-08-10T16:59:30.000Z</Time>
            <Position>
              <LatitudeDegrees>43.24579867534339427947998046875</LatitudeDegrees>
              <LongitudeDegrees>-1.70228163711726665496826171875</LongitudeDegrees>
            </Position>
            <AltitudeMeters>87.59999847412109375</AltitudeMeters>
            <DistanceMeters>NAN</DistanceMeters>
          </Trackpoint>
          <Trackpoint>
            <Time>2021-08-10T16:59:31.000Z</Time>
            <Position>
              <LatitudeDegrees>43.24580806307494640350341796875</LatitudeDegrees>
              <LongitudeDegrees>-1.70225816778838634490966796875</LongitudeDegrees>
            </Position>
            <AltitudeMeters>87.8000030517578125</AltitudeMeters>
            <DistanceMeters>NAN</DistanceMeters>
          </Trackpoint>
          <Trackpoint>
            <Time>2021-08-10T16:59:32.000Z</Time>
            <Position>
              <LatitudeDegrees>43.24581409804522991180419921875</LatitudeDegrees>
              <LongitudeDegrees>-1.7022403143346309661865234375</LongitudeDegrees>
            </Position>
            <AltitudeMeters>88</AltitudeMeters>
            <DistanceMeters>NAN</DistanceMeters>
          </Trackpoint>
          <Trackpoint>
            <Time>2021-08-10T16:59:33.000Z</Time>
            <Position>
              <LatitudeDegrees>43.24581854045391082763671875</LatitudeDegrees>
              <LongitudeDegrees>-1.70222438871860504150390625</LongitudeDegrees>
            </Position>
            <AltitudeMeters>88.1999969482421875</AltitudeMeters>
            <DistanceMeters>NAN</DistanceMeters>
          </Trackpoint>
          <Trackpoint>
            <Time>2021-08-10T16:59:35.000Z</Time>
            <Position>
              <LatitudeDegrees>43.24582851491868495941162109375</LatitudeDegrees>
              <LongitudeDegrees>-1.7021786235272884368896484375</LongitudeDegrees>
            </Position>
            <AltitudeMeters>89</AltitudeMeters>
            <DistanceMeters>NAN</DistanceMeters>
          </Trackpoint>
          <Trackpoint>
            <Time>2021-08-10T16:59:36.000Z</Time>
            <Position>
              <LatitudeDegrees>43.24583002366125583648681640625</LatitudeDegrees>
              <LongitudeDegrees>-1.7021578364074230194091796875</LongitudeDegrees>
            </Position>
            <AltitudeMeters>89.1999969482421875</AltitudeMeters>
            <DistanceMeters>NAN</DistanceMeters>
          </Trackpoint>
          <Trackpoint>
            <Time>2021-08-10T16:59:37.000Z</Time>
            <Position>
              <LatitudeDegrees>43.24582667089998722076416015625</LatitudeDegrees>
              <LongitudeDegrees>-1.7021461017429828643798828125</LongitudeDegrees>
            </Position>
            <AltitudeMeters>89.40000152587890625</AltitudeMeters>
            <DistanceMeters>NAN</DistanceMeters>
          </Trackpoint>
          <Trackpoint>
            <Time>2021-08-10T16:59:38.000Z</Time>
            <Position>
              <LatitudeDegrees>43.24581854045391082763671875</LatitudeDegrees>
              <LongitudeDegrees>-1.70212757773697376251220703125</LongitudeDegrees>
            </Position>
            <AltitudeMeters>89.59999847412109375</AltitudeMeters>
            <DistanceMeters>NAN</DistanceMeters>
          </Trackpoint>
          <Trackpoint>
            <Time>2021-08-10T16:59:39.000Z</Time>
            <Position>
              <LatitudeDegrees>43.24581007473170757293701171875</LatitudeDegrees>
              <LongitudeDegrees>-1.70211165212094783782958984375</LongitudeDegrees>
            </Position>
            <AltitudeMeters>89.8000030517578125</AltitudeMeters>
            <DistanceMeters>NAN</DistanceMeters>
          </Trackpoint>
          <Trackpoint>
            <Time>2021-08-10T16:59:40.000Z</Time>
            <Position>
              <LatitudeDegrees>43.24580554850399494171142578125</LatitudeDegrees>
              <LongitudeDegrees>-1.70209203846752643585205078125</LongitudeDegrees>
            </Position>
            <AltitudeMeters>90</AltitudeMeters>
            <DistanceMeters>NAN</DistanceMeters>
          </Trackpoint>
          <Trackpoint>
            <Time>2021-08-10T16:59:41.000Z</Time>
            <Position>
              <LatitudeDegrees>43.24580538086593151092529296875</LatitudeDegrees>
              <LongitudeDegrees>-1.70207225717604160308837890625</LongitudeDegrees>
            </Position>
            <AltitudeMeters>90.1999969482421875</AltitudeMeters>
            <DistanceMeters>NAN</DistanceMeters>
          </Trackpoint>
          <Trackpoint>
            <Time>2021-08-10T16:59:42.000Z</Time>
            <Position>
              <LatitudeDegrees>43.24580621905624866485595703125</LatitudeDegrees>
              <LongitudeDegrees>-1.702047027647495269775390625</LongitudeDegrees>
            </Position>
            <AltitudeMeters>90.59999847412109375</AltitudeMeters>
            <DistanceMeters>NAN</DistanceMeters>
          </Trackpoint>
          <Trackpoint>
            <Time>2021-08-10T16:59:43.000Z</Time>
            <Position>
              <LatitudeDegrees>43.2458056323230266571044921875</LatitudeDegrees>
              <LongitudeDegrees>-1.70202322304248809814453125</LongitudeDegrees>
            </Position>
            <AltitudeMeters>90.59999847412109375</AltitudeMeters>
            <DistanceMeters>NAN</DistanceMeters>
          </Trackpoint>
          <Trackpoint>
            <Time>2021-08-10T16:59:44.000Z</Time>
            <Position>
              <LatitudeDegrees>43.24580336920917034149169921875</LatitudeDegrees>
              <LongitudeDegrees>-1.70199732296168804168701171875</LongitudeDegrees>
            </Position>
            <AltitudeMeters>91.1999969482421875</AltitudeMeters>
            <DistanceMeters>NAN</DistanceMeters>
          </Trackpoint>
          <Trackpoint>
            <Time>2021-08-10T16:59:45.000Z</Time>
            <Position>
              <LatitudeDegrees>43.24580387212336063385009765625</LatitudeDegrees>
              <LongitudeDegrees>-1.70197318308055400848388671875</LongitudeDegrees>
            </Position>
            <AltitudeMeters>91.40000152587890625</AltitudeMeters>
            <DistanceMeters>NAN</DistanceMeters>
          </Trackpoint>
          <Trackpoint>
            <Time>2021-08-10T16:59:46.000Z</Time>
            <Position>
              <LatitudeDegrees>43.24580521322786808013916015625</LatitudeDegrees>
              <LongitudeDegrees>-1.70194921083748340606689453125</LongitudeDegrees>
            </Position>
            <AltitudeMeters>91.8000030517578125</AltitudeMeters>
            <DistanceMeters>NAN</DistanceMeters>
          </Trackpoint>
          <Trackpoint>
            <Time>2021-08-10T16:59:47.000Z</Time>
            <Position>
              <LatitudeDegrees>43.2458089850842952728271484375</LatitudeDegrees>
              <LongitudeDegrees>-1.70193227939307689666748046875</LongitudeDegrees>
            </Position>
            <AltitudeMeters>92</AltitudeMeters>
            <DistanceMeters>NAN</DistanceMeters>
          </Trackpoint>
          <Trackpoint>
            <Time>2021-08-10T16:59:48.000Z</Time>
            <Position>
              <LatitudeDegrees>43.245817534625530242919921875</LatitudeDegrees>
              <LongitudeDegrees>-1.701904870569705963134765625</LongitudeDegrees>
            </Position>
            <AltitudeMeters>92.40000152587890625</AltitudeMeters>
            <DistanceMeters>NAN</DistanceMeters>
          </Trackpoint>
          <Trackpoint>
            <Time>2021-08-10T16:59:49.000Z</Time>
            <Position>
              <LatitudeDegrees>43.2458245754241943359375</LatitudeDegrees>
              <LongitudeDegrees>-1.70188500545918941497802734375</LongitudeDegrees>
            </Position>
            <AltitudeMeters>92.8000030517578125</AltitudeMeters>
            <DistanceMeters>NAN</DistanceMeters>
          </Trackpoint>
          <Trackpoint>
            <Time>2021-08-10T16:59:50.000Z</Time>
            <Position>
              <LatitudeDegrees>43.24583170004189014434814453125</LatitudeDegrees>
              <LongitudeDegrees>-1.7018651403486728668212890625</LongitudeDegrees>
            </Position>
            <AltitudeMeters>93</AltitudeMeters>
            <DistanceMeters>NAN</DistanceMeters>
          </Trackpoint>
          <Trackpoint>
            <Time>2021-08-10T16:59:51.000Z</Time>
            <Position>
              <LatitudeDegrees>43.2458361424505710601806640625</LatitudeDegrees>
              <LongitudeDegrees>-1.70184477232396602630615234375</LongitudeDegrees>
            </Position>
            <AltitudeMeters>93.40000152587890625</AltitudeMeters>
            <DistanceMeters>NAN</DistanceMeters>
          </Trackpoint>
          <Trackpoint>
            <Time>2021-08-10T16:59:52.000Z</Time>
            <Position>
              <LatitudeDegrees>43.245839662849903106689453125</LatitudeDegrees>
              <LongitudeDegrees>-1.70182683505117893218994140625</LongitudeDegrees>
            </Position>
            <AltitudeMeters>93.40000152587890625</AltitudeMeters>
            <DistanceMeters>NAN</DistanceMeters>
          </Trackpoint>
          <Trackpoint>
            <Time>2021-08-10T16:59:53.000Z</Time>
            <Position>
              <LatitudeDegrees>43.2458472065627574920654296875</LatitudeDegrees>
              <LongitudeDegrees>-1.70179900713264942169189453125</LongitudeDegrees>
            </Position>
            <AltitudeMeters>93.8000030517578125</AltitudeMeters>
            <DistanceMeters>NAN</DistanceMeters>
          </Trackpoint>
          <Trackpoint>
            <Time>2021-08-10T16:59:54.000Z</Time>
            <Position>
              <LatitudeDegrees>43.24585349299013614654541015625</LatitudeDegrees>
              <LongitudeDegrees>-1.70177922584116458892822265625</LongitudeDegrees>
            </Position>
            <AltitudeMeters>94</AltitudeMeters>
            <DistanceMeters>NAN</DistanceMeters>
          </Trackpoint>
          <Trackpoint>
            <Time>2021-08-10T16:59:55.000Z</Time>
            <Position>
              <LatitudeDegrees>43.24585936032235622406005859375</LatitudeDegrees>
              <LongitudeDegrees>-1.7017658986151218414306640625</LongitudeDegrees>
            </Position>
            <AltitudeMeters>94.1999969482421875</AltitudeMeters>
            <DistanceMeters>NAN</DistanceMeters>
          </Trackpoint>
          <Trackpoint>
            <Time>2021-08-10T16:59:56.000Z</Time>
            <Position>
              <LatitudeDegrees>43.2458673231303691864013671875</LatitudeDegrees>
              <LongitudeDegrees>-1.70174955390393733978271484375</LongitudeDegrees>
            </Position>
            <AltitudeMeters>94.40000152587890625</AltitudeMeters>
            <DistanceMeters>NAN</DistanceMeters>
          </Trackpoint>
          <Trackpoint>
            <Time>2021-08-10T16:59:57.000Z</Time>
            <Position>
              <LatitudeDegrees>43.24587712995707988739013671875</LatitudeDegrees>
              <LongitudeDegrees>-1.70173329301178455352783203125</LongitudeDegrees>
            </Position>
            <AltitudeMeters>94.40000152587890625</AltitudeMeters>
            <DistanceMeters>NAN</DistanceMeters>
          </Trackpoint>
          <Trackpoint>
            <Time>2021-08-10T16:59:58.000Z</Time>
            <Position>
              <LatitudeDegrees>43.245887272059917449951171875</LatitudeDegrees>
              <LongitudeDegrees>-1.70171468518674373626708984375</LongitudeDegrees>
            </Position>
            <AltitudeMeters>94.59999847412109375</AltitudeMeters>
            <DistanceMeters>NAN</DistanceMeters>
          </Trackpoint>
          <Trackpoint>
            <Time>2021-08-10T16:59:59.000Z</Time>
            <Position>
              <LatitudeDegrees>43.2458941452205181121826171875</LatitudeDegrees>
              <LongitudeDegrees>-1.70169959776103496551513671875</LongitudeDegrees>
            </Position>
            <AltitudeMeters>94.59999847412109375</AltitudeMeters>
            <DistanceMeters>NAN</DistanceMeters>
          </Trackpoint>
          <Trackpoint>
            <Time>2021-08-10T17:00:00.000Z</Time>
            <Position>
              <LatitudeDegrees>43.2459038682281970977783203125</LatitudeDegrees>
              <LongitudeDegrees>-1.7016864381730556488037109375</LongitudeDegrees>
            </Position>
            <AltitudeMeters>94.8000030517578125</AltitudeMeters>
            <DistanceMeters>NAN</DistanceMeters>
          </Trackpoint>
          <Trackpoint>
            <Time>2021-08-10T17:00:01.000Z</Time>
            <Position>
              <LatitudeDegrees>43.245910741388797760009765625</LatitudeDegrees>
              <LongitudeDegrees>-1.7016780562698841094970703125</LongitudeDegrees>
            </Position>
            <AltitudeMeters>94.8000030517578125</AltitudeMeters>
            <DistanceMeters>NAN</DistanceMeters>
          </Trackpoint>
          <Trackpoint>
            <Time>2021-08-10T17:00:02.000Z</Time>
            <Position>
              <LatitudeDegrees>43.24592071585357189178466796875</LatitudeDegrees>
              <LongitudeDegrees>-1.7016679979860782623291015625</LongitudeDegrees>
            </Position>
            <AltitudeMeters>95</AltitudeMeters>
            <DistanceMeters>NAN</DistanceMeters>
          </Trackpoint>
          <Trackpoint>
            <Time>2021-08-10T17:00:03.000Z</Time>
            <Position>
              <LatitudeDegrees>43.24593027122318744659423828125</LatitudeDegrees>
              <LongitudeDegrees>-1.70165567658841609954833984375</LongitudeDegrees>
            </Position>
            <AltitudeMeters>95</AltitudeMeters>
            <DistanceMeters>NAN</DistanceMeters>
          </Trackpoint>
          <Trackpoint>
            <Time>2021-08-10T17:00:04.000Z</Time>
            <Position>
              <LatitudeDegrees>43.24593655765056610107421875</LatitudeDegrees>
              <LongitudeDegrees>-1.7016462050378322601318359375</LongitudeDegrees>
            </Position>
            <AltitudeMeters>95.1999969482421875</AltitudeMeters>
            <DistanceMeters>NAN</DistanceMeters>
          </Trackpoint>
          <Trackpoint>
            <Time>2021-08-10T17:00:05.000Z</Time>
            <Position>
              <LatitudeDegrees>43.245942927896976470947265625</LatitudeDegrees>
              <LongitudeDegrees>-1.70163488946855068206787109375</LongitudeDegrees>
            </Position>
            <AltitudeMeters>95.1999969482421875</AltitudeMeters>
            <DistanceMeters>NAN</DistanceMeters>
          </Trackpoint>
          <Trackpoint>
            <Time>2021-08-10T17:00:06.000Z</Time>
            <Position>
              <LatitudeDegrees>43.24595005251467227935791015625</LatitudeDegrees>
              <LongitudeDegrees>-1.70162893831729888916015625</LongitudeDegrees>
            </Position>
            <AltitudeMeters>95.1999969482421875</AltitudeMeters>
            <DistanceMeters>NAN</DistanceMeters>
          </Trackpoint>
          <Trackpoint>
            <Time>2021-08-10T17:00:07.000Z</Time>
            <Position>
              <LatitudeDegrees>43.24595793150365352630615234375</LatitudeDegrees>
              <LongitudeDegrees>-1.70161820948123931884765625</LongitudeDegrees>
            </Position>
            <AltitudeMeters>95.1999969482421875</AltitudeMeters>
            <DistanceMeters>NAN</DistanceMeters>
          </Trackpoint>
          <Trackpoint>
            <Time>2021-08-10T17:00:08.000Z</Time>
            <Position>
              <LatitudeDegrees>43.24596698395907878875732421875</LatitudeDegrees>
              <LongitudeDegrees>-1.7016089893877506256103515625</LongitudeDegrees>
            </Position>
            <AltitudeMeters>95.1999969482421875</AltitudeMeters>
            <DistanceMeters>NAN</DistanceMeters>
          </Trackpoint>
          <Trackpoint>
            <Time>2021-08-10T17:00:09.000Z</Time>
            <Position>
              <LatitudeDegrees>43.24597536586225032806396484375</LatitudeDegrees>
              <LongitudeDegrees>-1.70159851200878620147705078125</LongitudeDegrees>
            </Position>
            <AltitudeMeters>95.1999969482421875</AltitudeMeters>
            <DistanceMeters>NAN</DistanceMeters>
          </Trackpoint>
          <Trackpoint>
            <Time>2021-08-10T17:00:10.000Z</Time>
            <Position>
              <LatitudeDegrees>43.2459860108792781829833984375</LatitudeDegrees>
              <LongitudeDegrees>-1.70158803462982177734375</LongitudeDegrees>
            </Position>
            <AltitudeMeters>95.1999969482421875</AltitudeMeters>
            <DistanceMeters>NAN</DistanceMeters>
          </Trackpoint>
          <Trackpoint>
            <Time>2021-08-10T17:00:11.000Z</Time>
            <Position>
              <LatitudeDegrees>43.245993219316005706787109375</LatitudeDegrees>
              <LongitudeDegrees>-1.70157889835536479949951171875</LongitudeDegrees>
            </Position>
            <AltitudeMeters>95.40000152587890625</AltitudeMeters>
            <DistanceMeters>NAN</DistanceMeters>
          </Trackpoint>
          <Trackpoint>
            <Time>2021-08-10T17:00:12.000Z</Time>
            <Position>
              <LatitudeDegrees>43.24600227177143096923828125</LatitudeDegrees>
              <LongitudeDegrees>-1.7015679180622100830078125</LongitudeDegrees>
            </Position>
            <AltitudeMeters>95.40000152587890625</AltitudeMeters>
            <DistanceMeters>NAN</DistanceMeters>
          </Trackpoint>
          <Trackpoint>
            <Time>2021-08-10T17:00:13.000Z</Time>
            <Position>
              <LatitudeDegrees>43.2460084743797779083251953125</LatitudeDegrees>
              <LongitudeDegrees>-1.70155785977840423583984375</LongitudeDegrees>
            </Position>
            <AltitudeMeters>95.40000152587890625</AltitudeMeters>
            <DistanceMeters>NAN</DistanceMeters>
          </Trackpoint>
          <Trackpoint>
            <Time>2021-08-10T17:00:14.000Z</Time>
            <Position>
              <LatitudeDegrees>43.2460158504545688629150390625</LatitudeDegrees>
              <LongitudeDegrees>-1.7015462927520275115966796875</LongitudeDegrees>
            </Position>
            <AltitudeMeters>95.40000152587890625</AltitudeMeters>
            <DistanceMeters>NAN</DistanceMeters>
          </Trackpoint>
          <Trackpoint>
            <Time>2021-08-10T17:00:15.000Z</Time>
            <Position>
              <LatitudeDegrees>43.24602431617677211761474609375</LatitudeDegrees>
              <LongitudeDegrees>-1.701540760695934295654296875</LongitudeDegrees>
            </Position>
            <AltitudeMeters>95.40000152587890625</AltitudeMeters>
            <DistanceMeters>NAN</DistanceMeters>
          </Trackpoint>
          <Trackpoint>
            <Time>2021-08-10T17:00:16.000Z</Time>
            <Position>
              <LatitudeDegrees>43.2460324466228485107421875</LatitudeDegrees>
              <LongitudeDegrees>-1.70154604129493236541748046875</LongitudeDegrees>
            </Position>
            <AltitudeMeters>95.40000152587890625</AltitudeMeters>
            <DistanceMeters>NAN</DistanceMeters>
          </Trackpoint>
          <Trackpoint>
            <Time>2021-08-10T17:00:17.000Z</Time>
            <Position>
              <LatitudeDegrees>43.24603772722184658050537109375</LatitudeDegrees>
              <LongitudeDegrees>-1.70155643485486507415771484375</LongitudeDegrees>
            </Position>
            <AltitudeMeters>95.40000152587890625</AltitudeMeters>
            <DistanceMeters>NAN</DistanceMeters>
          </Trackpoint>
          <Trackpoint>
            <Time>2021-08-10T17:00:18.000Z</Time>
            <Position>
              <LatitudeDegrees>43.24603579938411712646484375</LatitudeDegrees>
              <LongitudeDegrees>-1.7015674151480197906494140625</LongitudeDegrees>
            </Position>
            <AltitudeMeters>95.40000152587890625</AltitudeMeters>
            <DistanceMeters>NAN</DistanceMeters>
          </Trackpoint>
          <Trackpoint>
            <Time>2021-08-10T17:00:19.000Z</Time>
            <Position>
              <LatitudeDegrees>43.246025405824184417724609375</LatitudeDegrees>
              <LongitudeDegrees>-1.70157806016504764556884765625</LongitudeDegrees>
            </Position>
            <AltitudeMeters>95.40000152587890625</AltitudeMeters>
            <DistanceMeters>NAN</DistanceMeters>
          </Trackpoint>
          <Trackpoint>
            <Time>2021-08-10T17:00:20.000Z</Time>
            <Position>
              <LatitudeDegrees>43.2460141740739345550537109375</LatitudeDegrees>
              <LongitudeDegrees>-1.70158375985920429229736328125</LongitudeDegrees>
            </Position>
            <AltitudeMeters>95.59999847412109375</AltitudeMeters>
            <DistanceMeters>NAN</DistanceMeters>
          </Trackpoint>
          <Trackpoint>
            <Time>2021-08-10T17:00:21.000Z</Time>
            <Position>
              <LatitudeDegrees>43.24600822292268276214599609375</LatitudeDegrees>
              <LongitudeDegrees>-1.70158510096371173858642578125</LongitudeDegrees>
            </Position>
            <AltitudeMeters>95.59999847412109375</AltitudeMeters>
            <DistanceMeters>NAN</DistanceMeters>
          </Trackpoint>
          <Trackpoint>
            <Time>2021-08-10T17:00:22.000Z</Time>
            <Position>
              <LatitudeDegrees>43.24600654654204845428466796875</LatitudeDegrees>
              <LongitudeDegrees>-1.70158560387790203094482421875</LongitudeDegrees>
            </Position>
            <AltitudeMeters>95.59999847412109375</AltitudeMeters>
            <DistanceMeters>NAN</DistanceMeters>
          </Trackpoint>
          <Trackpoint>
            <Time>2021-08-10T17:00:35.000Z</Time>
            <Position>
              <LatitudeDegrees>43.245982490479946136474609375</LatitudeDegrees>
              <LongitudeDegrees>-1.70159700326621532440185546875</LongitudeDegrees>
            </Position>
            <AltitudeMeters>95.40000152587890625</AltitudeMeters>
            <DistanceMeters>NAN</DistanceMeters>
          </Trackpoint>
          <Trackpoint>
            <Time>2021-08-10T17:00:37.000Z</Time>
            <Position>
              <LatitudeDegrees>43.2459457777440547943115234375</LatitudeDegrees>
              <LongitudeDegrees>-1.70162759721279144287109375</LongitudeDegrees>
            </Position>
            <AltitudeMeters>95.1999969482421875</AltitudeMeters>
            <DistanceMeters>NAN</DistanceMeters>
          </Trackpoint>
          <Trackpoint>
            <Time>2021-08-10T17:00:38.000Z</Time>
            <Position>
              <LatitudeDegrees>43.2459233142435550689697265625</LatitudeDegrees>
              <LongitudeDegrees>-1.70165710151195526123046875</LongitudeDegrees>
            </Position>
            <AltitudeMeters>95.1999969482421875</AltitudeMeters>
            <DistanceMeters>NAN</DistanceMeters>
          </Trackpoint>
          <Trackpoint>
            <Time>2021-08-10T17:00:39.000Z</Time>
            <Position>
              <LatitudeDegrees>43.24590177275240421295166015625</LatitudeDegrees>
              <LongitudeDegrees>-1.70169540680944919586181640625</LongitudeDegrees>
            </Position>
            <AltitudeMeters>95.1999969482421875</AltitudeMeters>
            <DistanceMeters>NAN</DistanceMeters>
          </Trackpoint>
          <Trackpoint>
            <Time>2021-08-10T17:00:42.000Z</Time>
            <Position>
              <LatitudeDegrees>43.245848380029201507568359375</LatitudeDegrees>
              <LongitudeDegrees>-1.7018175311386585235595703125</LongitudeDegrees>
            </Position>
            <AltitudeMeters>95</AltitudeMeters>
            <DistanceMeters>NAN</DistanceMeters>
          </Trackpoint>
          <Trackpoint>
            <Time>2021-08-10T17:00:43.000Z</Time>
            <Position>
              <LatitudeDegrees>43.2458384893834590911865234375</LatitudeDegrees>
              <LongitudeDegrees>-1.70184745453298091888427734375</LongitudeDegrees>
            </Position>
            <AltitudeMeters>95</AltitudeMeters>
            <DistanceMeters>NAN</DistanceMeters>
          </Trackpoint>
          <Trackpoint>
            <Time>2021-08-10T17:00:44.000Z</Time>
            <Position>
              <LatitudeDegrees>43.24583086185157299041748046875</LatitudeDegrees>
              <LongitudeDegrees>-1.70187846757471561431884765625</LongitudeDegrees>
            </Position>
            <AltitudeMeters>95</AltitudeMeters>
            <DistanceMeters>NAN</DistanceMeters>
          </Trackpoint>
          <Trackpoint>
            <Time>2021-08-10T17:00:45.000Z</Time>
            <Position>
              <LatitudeDegrees>43.24582650326192378997802734375</LatitudeDegrees>
              <LongitudeDegrees>-1.701903529465198516845703125</LongitudeDegrees>
            </Position>
            <AltitudeMeters>95</AltitudeMeters>
            <DistanceMeters>NAN</DistanceMeters>
          </Trackpoint>
          <Trackpoint>
            <Time>2021-08-10T17:00:46.000Z</Time>
            <Position>
              <LatitudeDegrees>43.24582449160516262054443359375</LatitudeDegrees>
              <LongitudeDegrees>-1.701921634376049041748046875</LongitudeDegrees>
            </Position>
            <AltitudeMeters>94.8000030517578125</AltitudeMeters>
            <DistanceMeters>NAN</DistanceMeters>
          </Trackpoint>
          <Trackpoint>
            <Time>2021-08-10T17:00:47.000Z</Time>
            <Position>
              <LatitudeDegrees>43.24582315050065517425537109375</LatitudeDegrees>
              <LongitudeDegrees>-1.7019345425069332122802734375</LongitudeDegrees>
            </Position>
            <AltitudeMeters>94.59999847412109375</AltitudeMeters>
            <DistanceMeters>NAN</DistanceMeters>
          </Trackpoint>
          <Trackpoint>
            <Time>2021-08-10T17:00:48.000Z</Time>
            <Position>
              <LatitudeDegrees>43.24582231231033802032470703125</LatitudeDegrees>
              <LongitudeDegrees>-1.70194468460977077484130859375</LongitudeDegrees>
            </Position>
            <AltitudeMeters>94.59999847412109375</AltitudeMeters>
            <DistanceMeters>NAN</DistanceMeters>
          </Trackpoint>
          <Trackpoint>
            <Time>2021-08-10T17:00:49.000Z</Time>
            <Position>
              <LatitudeDegrees>43.2458200491964817047119140625</LatitudeDegrees>
              <LongitudeDegrees>-1.7019560001790523529052734375</LongitudeDegrees>
            </Position>
            <AltitudeMeters>94.40000152587890625</AltitudeMeters>
            <DistanceMeters>NAN</DistanceMeters>
          </Trackpoint>
          <Trackpoint>
            <Time>2021-08-10T17:00:50.000Z</Time>
            <Position>
              <LatitudeDegrees>43.2458205521106719970703125</LatitudeDegrees>
              <LongitudeDegrees>-1.70196899212896823883056640625</LongitudeDegrees>
            </Position>
            <AltitudeMeters>94.40000152587890625</AltitudeMeters>
            <DistanceMeters>NAN</DistanceMeters>
          </Trackpoint>
          <Trackpoint>
            <Time>2021-08-10T17:00:51.000Z</Time>
            <Position>
              <LatitudeDegrees>43.24582097120583057403564453125</LatitudeDegrees>
              <LongitudeDegrees>-1.70198122970759868621826171875</LongitudeDegrees>
            </Position>
            <AltitudeMeters>94</AltitudeMeters>
            <DistanceMeters>NAN</DistanceMeters>
          </Trackpoint>
          <Trackpoint>
            <Time>2021-08-10T17:00:54.000Z</Time>
            <Position>
              <LatitudeDegrees>43.2458187080919742584228515625</LatitudeDegrees>
              <LongitudeDegrees>-1.70202791690826416015625</LongitudeDegrees>
            </Position>
            <AltitudeMeters>93.40000152587890625</AltitudeMeters>
            <DistanceMeters>NAN</DistanceMeters>
          </Trackpoint>
          <Trackpoint>
            <Time>2021-08-10T17:00:56.000Z</Time>
            <Position>
              <LatitudeDegrees>43.24582734145224094390869140625</LatitudeDegrees>
              <LongitudeDegrees>-1.7020666413009166717529296875</LongitudeDegrees>
            </Position>
            <AltitudeMeters>93.1999969482421875</AltitudeMeters>
            <DistanceMeters>NAN</DistanceMeters>
          </Trackpoint>
          <Trackpoint>
            <Time>2021-08-10T17:00:59.000Z</Time>
            <Position>
              <LatitudeDegrees>43.245828263461589813232421875</LatitudeDegrees>
              <LongitudeDegrees>-1.70213042758405208587646484375</LongitudeDegrees>
            </Position>
            <AltitudeMeters>92.8000030517578125</AltitudeMeters>
            <DistanceMeters>NAN</DistanceMeters>
          </Trackpoint>
          <Trackpoint>
            <Time>2021-08-10T17:01:00.000Z</Time>
            <Position>
              <LatitudeDegrees>43.2458210550248622894287109375</LatitudeDegrees>
              <LongitudeDegrees>-1.70215272344648838043212890625</LongitudeDegrees>
            </Position>
            <AltitudeMeters>92.59999847412109375</AltitudeMeters>
            <DistanceMeters>NAN</DistanceMeters>
          </Trackpoint>
          <Trackpoint>
            <Time>2021-08-10T17:01:01.000Z</Time>
            <Position>
              <LatitudeDegrees>43.24581862427294254302978515625</LatitudeDegrees>
              <LongitudeDegrees>-1.70216831378638744354248046875</LongitudeDegrees>
            </Position>
            <AltitudeMeters>92.1999969482421875</AltitudeMeters>
            <DistanceMeters>NAN</DistanceMeters>
          </Trackpoint>
          <Trackpoint>
            <Time>2021-08-10T17:01:03.000Z</Time>
            <Position>
              <LatitudeDegrees>43.24581074528396129608154296875</LatitudeDegrees>
              <LongitudeDegrees>-1.70220519416034221649169921875</LongitudeDegrees>
            </Position>
            <AltitudeMeters>91.40000152587890625</AltitudeMeters>
            <DistanceMeters>NAN</DistanceMeters>
          </Trackpoint>
          <Trackpoint>
            <Time>2021-08-10T17:01:05.000Z</Time>
            <Position>
              <LatitudeDegrees>43.24580320157110691070556640625</LatitudeDegrees>
              <LongitudeDegrees>-1.70224207453429698944091796875</LongitudeDegrees>
            </Position>
            <AltitudeMeters>91</AltitudeMeters>
            <DistanceMeters>NAN</DistanceMeters>
          </Trackpoint>
          <Trackpoint>
            <Time>2021-08-10T17:01:07.000Z</Time>
            <Position>
              <LatitudeDegrees>43.24580647051334381103515625</LatitudeDegrees>
              <LongitudeDegrees>-1.702285744249820709228515625</LongitudeDegrees>
            </Position>
            <AltitudeMeters>90.59999847412109375</AltitudeMeters>
            <DistanceMeters>NAN</DistanceMeters>
          </Trackpoint>
          <Trackpoint>
            <Time>2021-08-10T17:01:08.000Z</Time>
            <Position>
              <LatitudeDegrees>43.24581141583621501922607421875</LatitudeDegrees>
              <LongitudeDegrees>-1.70230686664581298828125</LongitudeDegrees>
            </Position>
            <AltitudeMeters>90.40000152587890625</AltitudeMeters>
            <DistanceMeters>NAN</DistanceMeters>
          </Trackpoint>
          <Trackpoint>
            <Time>2021-08-10T17:01:09.000Z</Time>
            <Position>
              <LatitudeDegrees>43.2458151876926422119140625</LatitudeDegrees>
              <LongitudeDegrees>-1.70232337899506092071533203125</LongitudeDegrees>
            </Position>
            <AltitudeMeters>90.1999969482421875</AltitudeMeters>
            <DistanceMeters>NAN</DistanceMeters>
          </Trackpoint>
          <Trackpoint>
            <Time>2021-08-10T17:01:10.000Z</Time>
            <Position>
              <LatitudeDegrees>43.2458213903009891510009765625</LatitudeDegrees>
              <LongitudeDegrees>-1.7023402266204357147216796875</LongitudeDegrees>
            </Position>
            <AltitudeMeters>89.8000030517578125</AltitudeMeters>
            <DistanceMeters>NAN</DistanceMeters>
          </Trackpoint>
          <Trackpoint>
            <Time>2021-08-10T17:01:11.000Z</Time>
            <Position>
              <LatitudeDegrees>43.2458280958235263824462890625</LatitudeDegrees>
              <LongitudeDegrees>-1.70236562378704547882080078125</LongitudeDegrees>
            </Position>
            <AltitudeMeters>89.40000152587890625</AltitudeMeters>
            <DistanceMeters>NAN</DistanceMeters>
          </Trackpoint>
          <Trackpoint>
            <Time>2021-08-10T17:01:14.000Z</Time>
            <Position>
              <LatitudeDegrees>43.24584527872502803802490234375</LatitudeDegrees>
              <LongitudeDegrees>-1.702455393970012664794921875</LongitudeDegrees>
            </Position>
            <AltitudeMeters>88.8000030517578125</AltitudeMeters>
            <DistanceMeters>NAN</DistanceMeters>
          </Trackpoint>
          <Trackpoint>
            <Time>2021-08-10T17:01:17.000Z</Time>
            <Position>
              <LatitudeDegrees>43.24587545357644557952880859375</LatitudeDegrees>
              <LongitudeDegrees>-1.7025268077850341796875</LongitudeDegrees>
            </Position>
            <AltitudeMeters>87.8000030517578125</AltitudeMeters>
            <DistanceMeters>NAN</DistanceMeters>
          </Trackpoint>
          <Trackpoint>
            <Time>2021-08-10T17:01:18.000Z</Time>
            <Position>
              <LatitudeDegrees>43.2459015212953090667724609375</LatitudeDegrees>
              <LongitudeDegrees>-1.70253091491758823394775390625</LongitudeDegrees>
            </Position>
            <AltitudeMeters>87.59999847412109375</AltitudeMeters>
            <DistanceMeters>NAN</DistanceMeters>
          </Trackpoint>
          <Trackpoint>
            <Time>2021-08-10T17:01:20.000Z</Time>
            <Position>
              <LatitudeDegrees>43.24595860205590724945068359375</LatitudeDegrees>
              <LongitudeDegrees>-1.70254063792526721954345703125</LongitudeDegrees>
            </Position>
            <AltitudeMeters>86.8000030517578125</AltitudeMeters>
            <DistanceMeters>NAN</DistanceMeters>
          </Trackpoint>
          <Trackpoint>
            <Time>2021-08-10T17:01:21.000Z</Time>
            <Position>
              <LatitudeDegrees>43.24598483741283416748046875</LatitudeDegrees>
              <LongitudeDegrees>-1.70253477059304714202880859375</LongitudeDegrees>
            </Position>
            <AltitudeMeters>86.1999969482421875</AltitudeMeters>
            <DistanceMeters>NAN</DistanceMeters>
          </Trackpoint>
          <Trackpoint>
            <Time>2021-08-10T17:01:22.000Z</Time>
            <Position>
              <LatitudeDegrees>43.246014006435871124267578125</LatitudeDegrees>
              <LongitudeDegrees>-1.7025222815573215484619140625</LongitudeDegrees>
            </Position>
            <AltitudeMeters>85.8000030517578125</AltitudeMeters>
            <DistanceMeters>NAN</DistanceMeters>
          </Trackpoint>
          <Trackpoint>
            <Time>2021-08-10T17:01:24.000Z</Time>
            <Position>
              <LatitudeDegrees>43.24606169946491718292236328125</LatitudeDegrees>
              <LongitudeDegrees>-1.70249386690557003021240234375</LongitudeDegrees>
            </Position>
            <AltitudeMeters>85.40000152587890625</AltitudeMeters>
            <DistanceMeters>NAN</DistanceMeters>
          </Trackpoint>
          <Trackpoint>
            <Time>2021-08-10T17:01:25.000Z</Time>
            <Position>
              <LatitudeDegrees>43.24608248658478260040283203125</LatitudeDegrees>
              <LongitudeDegrees>-1.702481210231781005859375</LongitudeDegrees>
            </Position>
            <AltitudeMeters>85.1999969482421875</AltitudeMeters>
            <DistanceMeters>NAN</DistanceMeters>
          </Trackpoint>
          <Trackpoint>
            <Time>2021-08-10T17:01:26.000Z</Time>
            <Position>
              <LatitudeDegrees>43.24609992094337940216064453125</LatitudeDegrees>
              <LongitudeDegrees>-1.70248012058436870574951171875</LongitudeDegrees>
            </Position>
            <AltitudeMeters>85.1999969482421875</AltitudeMeters>
            <DistanceMeters>NAN</DistanceMeters>
          </Trackpoint>
          <Trackpoint>
            <Time>2021-08-10T17:01:27.000Z</Time>
            <Position>
              <LatitudeDegrees>43.24611760675907135009765625</LatitudeDegrees>
              <LongitudeDegrees>-1.7024709843099117279052734375</LongitudeDegrees>
            </Position>
            <AltitudeMeters>85.1999969482421875</AltitudeMeters>
            <DistanceMeters>NAN</DistanceMeters>
          </Trackpoint>
          <Trackpoint>
            <Time>2021-08-10T17:01:28.000Z</Time>
            <Position>
              <LatitudeDegrees>43.24613596312701702117919921875</LatitudeDegrees>
              <LongitudeDegrees>-1.702461428940296173095703125</LongitudeDegrees>
            </Position>
            <AltitudeMeters>85</AltitudeMeters>
            <DistanceMeters>NAN</DistanceMeters>
          </Trackpoint>
          <Trackpoint>
            <Time>2021-08-10T17:01:31.000Z</Time>
            <Position>
              <LatitudeDegrees>43.24619472026824951171875</LatitudeDegrees>
              <LongitudeDegrees>-1.702411472797393798828125</LongitudeDegrees>
            </Position>
            <AltitudeMeters>85</AltitudeMeters>
            <DistanceMeters>NAN</DistanceMeters>
          </Trackpoint>
          <Trackpoint>
            <Time>2021-08-10T17:01:32.000Z</Time>
            <Position>
              <LatitudeDegrees>43.24621156789362430572509765625</LatitudeDegrees>
              <LongitudeDegrees>-1.7024009115993976593017578125</LongitudeDegrees>
            </Position>
            <AltitudeMeters>85</AltitudeMeters>
            <DistanceMeters>NAN</DistanceMeters>
          </Trackpoint>
          <Trackpoint>
            <Time>2021-08-10T17:01:35.000Z</Time>
            <Position>
              <LatitudeDegrees>43.24627778492867946624755859375</LatitudeDegrees>
              <LongitudeDegrees>-1.702356152236461639404296875</LongitudeDegrees>
            </Position>
            <AltitudeMeters>85.1999969482421875</AltitudeMeters>
            <DistanceMeters>NAN</DistanceMeters>
          </Trackpoint>
          <Trackpoint>
            <Time>2021-08-10T17:01:36.000Z</Time>
            <Position>
              <LatitudeDegrees>43.24629488401114940643310546875</LatitudeDegrees>
              <LongitudeDegrees>-1.70234240591526031494140625</LongitudeDegrees>
            </Position>
            <AltitudeMeters>85.40000152587890625</AltitudeMeters>
            <DistanceMeters>NAN</DistanceMeters>
          </Trackpoint>
          <Trackpoint>
            <Time>2021-08-10T17:01:39.000Z</Time>
            <Position>
              <LatitudeDegrees>43.24633293785154819488525390625</LatitudeDegrees>
              <LongitudeDegrees>-1.70231248252093791961669921875</LongitudeDegrees>
            </Position>
            <AltitudeMeters>85.59999847412109375</AltitudeMeters>
            <DistanceMeters>NAN</DistanceMeters>
          </Trackpoint>
          <Trackpoint>
            <Time>2021-08-10T17:01:40.000Z</Time>
            <Position>
              <LatitudeDegrees>43.24634919874370098114013671875</LatitudeDegrees>
              <LongitudeDegrees>-1.702295131981372833251953125</LongitudeDegrees>
            </Position>
            <AltitudeMeters>85.59999847412109375</AltitudeMeters>
            <DistanceMeters>NAN</DistanceMeters>
          </Trackpoint>
          <Trackpoint>
            <Time>2021-08-10T17:01:41.000Z</Time>
            <Position>
              <LatitudeDegrees>43.24636227451264858245849609375</LatitudeDegrees>
              <LongitudeDegrees>-1.7022813856601715087890625</LongitudeDegrees>
            </Position>
            <AltitudeMeters>85.59999847412109375</AltitudeMeters>
            <DistanceMeters>NAN</DistanceMeters>
          </Trackpoint>
          <Trackpoint>
            <Time>2021-08-10T17:01:42.000Z</Time>
            <Position>
              <LatitudeDegrees>43.24637048877775669097900390625</LatitudeDegrees>
              <LongitudeDegrees>-1.70226621441543102264404296875</LongitudeDegrees>
            </Position>
            <AltitudeMeters>85.8000030517578125</AltitudeMeters>
            <DistanceMeters>NAN</DistanceMeters>
          </Trackpoint>
          <Trackpoint>
            <Time>2021-08-10T17:01:43.000Z</Time>
            <Position>
              <LatitudeDegrees>43.2463826425373554229736328125</LatitudeDegrees>
              <LongitudeDegrees>-1.70225297100841999053955078125</LongitudeDegrees>
            </Position>
            <AltitudeMeters>85.8000030517578125</AltitudeMeters>
            <DistanceMeters>NAN</DistanceMeters>
          </Trackpoint>
          <Trackpoint>
            <Time>2021-08-10T17:01:44.000Z</Time>
            <Position>
              <LatitudeDegrees>43.2463923655450344085693359375</LatitudeDegrees>
              <LongitudeDegrees>-1.702245175838470458984375</LongitudeDegrees>
            </Position>
            <AltitudeMeters>85.8000030517578125</AltitudeMeters>
            <DistanceMeters>NAN</DistanceMeters>
          </Trackpoint>
          <Trackpoint>
            <Time>2021-08-10T17:01:45.000Z</Time>
            <Position>
              <LatitudeDegrees>43.24640996754169464111328125</LatitudeDegrees>
              <LongitudeDegrees>-1.70223939232528209686279296875</LongitudeDegrees>
            </Position>
            <AltitudeMeters>85.8000030517578125</AltitudeMeters>
            <DistanceMeters>NAN</DistanceMeters>
          </Trackpoint>
          <Trackpoint>
            <Time>2021-08-10T17:01:46.000Z</Time>
            <Position>
              <LatitudeDegrees>43.2464186847209930419921875</LatitudeDegrees>
              <LongitudeDegrees>-1.7022357881069183349609375</LongitudeDegrees>
            </Position>
            <AltitudeMeters>85.8000030517578125</AltitudeMeters>
            <DistanceMeters>NAN</DistanceMeters>
          </Trackpoint>
          <Trackpoint>
            <Time>2021-08-10T17:01:47.000Z</Time>
            <Position>
              <LatitudeDegrees>43.24642530642449855804443359375</LatitudeDegrees>
              <LongitudeDegrees>-1.702232100069522857666015625</LongitudeDegrees>
            </Position>
            <AltitudeMeters>85.8000030517578125</AltitudeMeters>
            <DistanceMeters>NAN</DistanceMeters>
          </Trackpoint>
          <Trackpoint>
            <Time>2021-08-10T17:01:50.000Z</Time>
            <Position>
              <LatitudeDegrees>43.2464245520532131195068359375</LatitudeDegrees>
              <LongitudeDegrees>-1.702235452830791473388671875</LongitudeDegrees>
            </Position>
            <AltitudeMeters>85.8000030517578125</AltitudeMeters>
            <DistanceMeters>NAN</DistanceMeters>
          </Trackpoint>
          <Trackpoint>
            <Time>2021-08-10T17:02:00.000Z</Time>
            <Position>
              <LatitudeDegrees>43.2464051060378551483154296875</LatitudeDegrees>
              <LongitudeDegrees>-1.70223117806017398834228515625</LongitudeDegrees>
            </Position>
            <AltitudeMeters>85.8000030517578125</AltitudeMeters>
            <DistanceMeters>NAN</DistanceMeters>
          </Trackpoint>
          <Trackpoint>
            <Time>2021-08-10T17:02:07.000Z</Time>
            <Position>
              <LatitudeDegrees>43.2464077882468700408935546875</LatitudeDegrees>
              <LongitudeDegrees>-1.702229417860507965087890625</LongitudeDegrees>
            </Position>
            <AltitudeMeters>85.8000030517578125</AltitudeMeters>
            <DistanceMeters>NAN</DistanceMeters>
          </Trackpoint>
          <Trackpoint>
            <Time>2021-08-10T17:02:09.000Z</Time>
            <Position>
              <LatitudeDegrees>43.24645732529461383819580078125</LatitudeDegrees>
              <LongitudeDegrees>-1.70219731517136096954345703125</LongitudeDegrees>
            </Position>
            <AltitudeMeters>85.8000030517578125</AltitudeMeters>
            <DistanceMeters>NAN</DistanceMeters>
          </Trackpoint>
          <Trackpoint>
            <Time>2021-08-10T17:02:12.000Z</Time>
            <Position>
              <LatitudeDegrees>43.24650946073234081268310546875</LatitudeDegrees>
              <LongitudeDegrees>-1.70213880948722362518310546875</LongitudeDegrees>
            </Position>
            <AltitudeMeters>85.8000030517578125</AltitudeMeters>
            <DistanceMeters>NAN</DistanceMeters>
          </Trackpoint>
          <Trackpoint>
            <Time>2021-08-10T17:02:13.000Z</Time>
            <Position>
              <LatitudeDegrees>43.2465154118835926055908203125</LatitudeDegrees>
              <LongitudeDegrees>-1.70213361270725727081298828125</LongitudeDegrees>
            </Position>
            <AltitudeMeters>85.8000030517578125</AltitudeMeters>
            <DistanceMeters>NAN</DistanceMeters>
          </Trackpoint>
          <Trackpoint>
            <Time>2021-08-10T17:02:19.000Z</Time>
            <Position>
              <LatitudeDegrees>43.24651968665421009063720703125</LatitudeDegrees>
              <LongitudeDegrees>-1.70213076286017894744873046875</LongitudeDegrees>
            </Position>
            <AltitudeMeters>85.40000152587890625</AltitudeMeters>
            <DistanceMeters>NAN</DistanceMeters>
          </Trackpoint>
          <Trackpoint>
            <Time>2021-08-10T17:02:32.000Z</Time>
            <Position>
              <LatitudeDegrees>43.24649571441113948822021484375</LatitudeDegrees>
              <LongitudeDegrees>-1.7021216265857219696044921875</LongitudeDegrees>
            </Position>
            <AltitudeMeters>85.40000152587890625</AltitudeMeters>
            <DistanceMeters>NAN</DistanceMeters>
          </Trackpoint>
          <Trackpoint>
            <Time>2021-08-10T17:02:33.000Z</Time>
            <Position>
              <LatitudeDegrees>43.24648180045187473297119140625</LatitudeDegrees>
              <LongitudeDegrees>-1.7020909488201141357421875</LongitudeDegrees>
            </Position>
            <AltitudeMeters>85.40000152587890625</AltitudeMeters>
            <DistanceMeters>NAN</DistanceMeters>
          </Trackpoint>
          <Trackpoint>
            <Time>2021-08-10T17:02:34.000Z</Time>
            <Position>
              <LatitudeDegrees>43.2464688085019588470458984375</LatitudeDegrees>
              <LongitudeDegrees>-1.70205247588455677032470703125</LongitudeDegrees>
            </Position>
            <AltitudeMeters>85.40000152587890625</AltitudeMeters>
            <DistanceMeters>NAN</DistanceMeters>
          </Trackpoint>
          <Trackpoint>
            <Time>2021-08-10T17:02:38.000Z</Time>
            <Position>
              <LatitudeDegrees>43.24638742022216320037841796875</LatitudeDegrees>
              <LongitudeDegrees>-1.70189808122813701629638671875</LongitudeDegrees>
            </Position>
            <AltitudeMeters>85.8000030517578125</AltitudeMeters>
            <DistanceMeters>NAN</DistanceMeters>
          </Trackpoint>
          <Trackpoint>
            <Time>2021-08-10T17:02:39.000Z</Time>
            <Position>
              <LatitudeDegrees>43.2463784515857696533203125</LatitudeDegrees>
              <LongitudeDegrees>-1.70185265131294727325439453125</LongitudeDegrees>
            </Position>
            <AltitudeMeters>85.8000030517578125</AltitudeMeters>
            <DistanceMeters>NAN</DistanceMeters>
          </Trackpoint>
          <Trackpoint>
            <Time>2021-08-10T17:02:40.000Z</Time>
            <Position>
              <LatitudeDegrees>43.246385492384433746337890625</LatitudeDegrees>
              <LongitudeDegrees>-1.701804287731647491455078125</LongitudeDegrees>
            </Position>
            <AltitudeMeters>86</AltitudeMeters>
            <DistanceMeters>NAN</DistanceMeters>
          </Trackpoint>
          <Trackpoint>
            <Time>2021-08-10T17:02:41.000Z</Time>
            <Position>
              <LatitudeDegrees>43.24640133418142795562744140625</LatitudeDegrees>
              <LongitudeDegrees>-1.7017662338912487030029296875</LongitudeDegrees>
            </Position>
            <AltitudeMeters>86.1999969482421875</AltitudeMeters>
            <DistanceMeters>NAN</DistanceMeters>
          </Trackpoint>
          <Trackpoint>
            <Time>2021-08-10T17:02:42.000Z</Time>
            <Position>
              <LatitudeDegrees>43.24641273356974124908447265625</LatitudeDegrees>
              <LongitudeDegrees>-1.7017449438571929931640625</LongitudeDegrees>
            </Position>
            <AltitudeMeters>86.59999847412109375</AltitudeMeters>
            <DistanceMeters>NAN</DistanceMeters>
          </Trackpoint>
          <Trackpoint>
            <Time>2021-08-10T17:02:43.000Z</Time>
            <Position>
              <LatitudeDegrees>43.24642245657742023468017578125</LatitudeDegrees>
              <LongitudeDegrees>-1.70172424055635929107666015625</LongitudeDegrees>
            </Position>
            <AltitudeMeters>87</AltitudeMeters>
            <DistanceMeters>NAN</DistanceMeters>
          </Trackpoint>
          <Trackpoint>
            <Time>2021-08-10T17:02:44.000Z</Time>
            <Position>
              <LatitudeDegrees>43.24642949737608432769775390625</LatitudeDegrees>
              <LongitudeDegrees>-1.701708734035491943359375</LongitudeDegrees>
            </Position>
            <AltitudeMeters>87.1999969482421875</AltitudeMeters>
            <DistanceMeters>NAN</DistanceMeters>
          </Trackpoint>
          <Trackpoint>
            <Time>2021-08-10T17:02:45.000Z</Time>
            <Position>
              <LatitudeDegrees>43.246431089937686920166015625</LatitudeDegrees>
              <LongitudeDegrees>-1.70170160941779613494873046875</LongitudeDegrees>
            </Position>
            <AltitudeMeters>88</AltitudeMeters>
            <DistanceMeters>NAN</DistanceMeters>
          </Trackpoint>
          <Trackpoint>
            <Time>2021-08-10T17:02:46.000Z</Time>
            <Position>
              <LatitudeDegrees>43.24643234722316265106201171875</LatitudeDegrees>
              <LongitudeDegrees>-1.70170135796070098876953125</LongitudeDegrees>
            </Position>
            <AltitudeMeters>88.40000152587890625</AltitudeMeters>
            <DistanceMeters>NAN</DistanceMeters>
          </Trackpoint>
          <Trackpoint>
            <Time>2021-08-10T17:02:50.000Z</Time>
            <Position>
              <LatitudeDegrees>43.24642480351030826568603515625</LatitudeDegrees>
              <LongitudeDegrees>-1.701700687408447265625</LongitudeDegrees>
            </Position>
            <AltitudeMeters>89.40000152587890625</AltitudeMeters>
            <DistanceMeters>NAN</DistanceMeters>
          </Trackpoint>
          <Trackpoint>
            <Time>2021-08-10T17:02:55.000Z</Time>
            <Position>
              <LatitudeDegrees>43.24643285013735294342041015625</LatitudeDegrees>
              <LongitudeDegrees>-1.70168585143983364105224609375</LongitudeDegrees>
            </Position>
            <AltitudeMeters>89.8000030517578125</AltitudeMeters>
            <DistanceMeters>NAN</DistanceMeters>
          </Trackpoint>
          <Trackpoint>
            <Time>2021-08-10T17:02:56.000Z</Time>
            <Position>
              <LatitudeDegrees>43.24644324369728565216064453125</LatitudeDegrees>
              <LongitudeDegrees>-1.70167394913733005523681640625</LongitudeDegrees>
            </Position>
            <AltitudeMeters>89.8000030517578125</AltitudeMeters>
            <DistanceMeters>NAN</DistanceMeters>
          </Trackpoint>
          <Trackpoint>
            <Time>2021-08-10T17:02:57.000Z</Time>
            <Position>
              <LatitudeDegrees>43.2464567385613918304443359375</LatitudeDegrees>
              <LongitudeDegrees>-1.70166472904384136199951171875</LongitudeDegrees>
            </Position>
            <AltitudeMeters>89.8000030517578125</AltitudeMeters>
            <DistanceMeters>NAN</DistanceMeters>
          </Trackpoint>
          <Trackpoint>
            <Time>2021-08-10T17:02:58.000Z</Time>
            <Position>
              <LatitudeDegrees>43.246472664177417755126953125</LatitudeDegrees>
              <LongitudeDegrees>-1.7016505636274814605712890625</LongitudeDegrees>
            </Position>
            <AltitudeMeters>89.8000030517578125</AltitudeMeters>
            <DistanceMeters>NAN</DistanceMeters>
          </Trackpoint>
          <Trackpoint>
            <Time>2021-08-10T17:02:59.000Z</Time>
            <Position>
              <LatitudeDegrees>43.24648498557507991790771484375</LatitudeDegrees>
              <LongitudeDegrees>-1.70163170434534549713134765625</LongitudeDegrees>
            </Position>
            <AltitudeMeters>89.8000030517578125</AltitudeMeters>
            <DistanceMeters>NAN</DistanceMeters>
          </Trackpoint>
          <Trackpoint>
            <Time>2021-08-10T17:03:00.000Z</Time>
            <Position>
              <LatitudeDegrees>43.2465009950101375579833984375</LatitudeDegrees>
              <LongitudeDegrees>-1.7015999369323253631591796875</LongitudeDegrees>
            </Position>
            <AltitudeMeters>89.8000030517578125</AltitudeMeters>
            <DistanceMeters>NAN</DistanceMeters>
          </Trackpoint>
          <Trackpoint>
            <Time>2021-08-10T17:03:01.000Z</Time>
            <Position>
              <LatitudeDegrees>43.246515579521656036376953125</LatitudeDegrees>
              <LongitudeDegrees>-1.7015757970511913299560546875</LongitudeDegrees>
            </Position>
            <AltitudeMeters>89.8000030517578125</AltitudeMeters>
            <DistanceMeters>NAN</DistanceMeters>
          </Trackpoint>
          <Trackpoint>
            <Time>2021-08-10T17:03:02.000Z</Time>
            <Position>
              <LatitudeDegrees>43.24652664363384246826171875</LatitudeDegrees>
              <LongitudeDegrees>-1.70155459083616733551025390625</LongitudeDegrees>
            </Position>
            <AltitudeMeters>90</AltitudeMeters>
            <DistanceMeters>NAN</DistanceMeters>
          </Trackpoint>
          <Trackpoint>
            <Time>2021-08-10T17:03:03.000Z</Time>
            <Position>
              <LatitudeDegrees>43.24653946794569492340087890625</LatitudeDegrees>
              <LongitudeDegrees>-1.70152927748858928680419921875</LongitudeDegrees>
            </Position>
            <AltitudeMeters>90</AltitudeMeters>
            <DistanceMeters>NAN</DistanceMeters>
          </Trackpoint>
          <Trackpoint>
            <Time>2021-08-10T17:03:04.000Z</Time>
            <Position>
              <LatitudeDegrees>43.2465496100485324859619140625</LatitudeDegrees>
              <LongitudeDegrees>-1.7015084065496921539306640625</LongitudeDegrees>
            </Position>
            <AltitudeMeters>90.59999847412109375</AltitudeMeters>
            <DistanceMeters>NAN</DistanceMeters>
          </Trackpoint>
          <Trackpoint>
            <Time>2021-08-10T17:03:05.000Z</Time>
            <Position>
              <LatitudeDegrees>43.24656025506556034088134765625</LatitudeDegrees>
              <LongitudeDegrees>-1.701486110687255859375</LongitudeDegrees>
            </Position>
            <AltitudeMeters>90.8000030517578125</AltitudeMeters>
            <DistanceMeters>NAN</DistanceMeters>
          </Trackpoint>
          <Trackpoint>
            <Time>2021-08-10T17:03:06.000Z</Time>
            <Position>
              <LatitudeDegrees>43.24657098390161991119384765625</LatitudeDegrees>
              <LongitudeDegrees>-1.70146800577640533447265625</LongitudeDegrees>
            </Position>
            <AltitudeMeters>91</AltitudeMeters>
            <DistanceMeters>NAN</DistanceMeters>
          </Trackpoint>
          <Trackpoint>
            <Time>2021-08-10T17:03:07.000Z</Time>
            <Position>
              <LatitudeDegrees>43.2465787790715694427490234375</LatitudeDegrees>
              <LongitudeDegrees>-1.70146272517740726470947265625</LongitudeDegrees>
            </Position>
            <AltitudeMeters>91.1999969482421875</AltitudeMeters>
            <DistanceMeters>NAN</DistanceMeters>
          </Trackpoint>
          <Trackpoint>
            <Time>2021-08-10T17:03:08.000Z</Time>
            <Position>
              <LatitudeDegrees>43.246589340269565582275390625</LatitudeDegrees>
              <LongitudeDegrees>-1.70146155171096324920654296875</LongitudeDegrees>
            </Position>
            <AltitudeMeters>91.59999847412109375</AltitudeMeters>
            <DistanceMeters>NAN</DistanceMeters>
          </Trackpoint>
          <Trackpoint>
            <Time>2021-08-10T17:03:09.000Z</Time>
            <Position>
              <LatitudeDegrees>43.2465988956391811370849609375</LatitudeDegrees>
              <LongitudeDegrees>-1.70145870186388492584228515625</LongitudeDegrees>
            </Position>
            <AltitudeMeters>91.8000030517578125</AltitudeMeters>
            <DistanceMeters>NAN</DistanceMeters>
          </Trackpoint>
          <Trackpoint>
            <Time>2021-08-10T17:03:10.000Z</Time>
            <Position>
              <LatitudeDegrees>43.2466163299977779388427734375</LatitudeDegrees>
              <LongitudeDegrees>-1.70145082287490367889404296875</LongitudeDegrees>
            </Position>
            <AltitudeMeters>92</AltitudeMeters>
            <DistanceMeters>NAN</DistanceMeters>
          </Trackpoint>
          <Trackpoint>
            <Time>2021-08-10T17:03:11.000Z</Time>
            <Position>
              <LatitudeDegrees>43.24663552455604076385498046875</LatitudeDegrees>
              <LongitudeDegrees>-1.7014443688094615936279296875</LongitudeDegrees>
            </Position>
            <AltitudeMeters>92.1999969482421875</AltitudeMeters>
            <DistanceMeters>NAN</DistanceMeters>
          </Trackpoint>
          <Trackpoint>
            <Time>2021-08-10T17:03:12.000Z</Time>
            <Position>
              <LatitudeDegrees>43.24664876796305179595947265625</LatitudeDegrees>
              <LongitudeDegrees>-1.701443195343017578125</LongitudeDegrees>
            </Position>
            <AltitudeMeters>92.40000152587890625</AltitudeMeters>
            <DistanceMeters>NAN</DistanceMeters>
          </Trackpoint>
          <Trackpoint>
            <Time>2021-08-10T17:03:13.000Z</Time>
            <Position>
              <LatitudeDegrees>43.24666050262749195098876953125</LatitudeDegrees>
              <LongitudeDegrees>-1.70143288560211658477783203125</LongitudeDegrees>
            </Position>
            <AltitudeMeters>92.40000152587890625</AltitudeMeters>
            <DistanceMeters>NAN</DistanceMeters>
          </Trackpoint>
          <Trackpoint>
            <Time>2021-08-10T17:03:14.000Z</Time>
            <Position>
              <LatitudeDegrees>43.24666804634034633636474609375</LatitudeDegrees>
              <LongitudeDegrees>-1.70142115093767642974853515625</LongitudeDegrees>
            </Position>
            <AltitudeMeters>92.59999847412109375</AltitudeMeters>
            <DistanceMeters>NAN</DistanceMeters>
          </Trackpoint>
          <Trackpoint>
            <Time>2021-08-10T17:03:15.000Z</Time>
            <Position>
              <LatitudeDegrees>43.24667693115770816802978515625</LatitudeDegrees>
              <LongitudeDegrees>-1.70141126029193401336669921875</LongitudeDegrees>
            </Position>
            <AltitudeMeters>92.59999847412109375</AltitudeMeters>
            <DistanceMeters>NAN</DistanceMeters>
          </Trackpoint>
          <Trackpoint>
            <Time>2021-08-10T17:03:16.000Z</Time>
            <Position>
              <LatitudeDegrees>43.24668757617473602294921875</LatitudeDegrees>
              <LongitudeDegrees>-1.70140841044485569000244140625</LongitudeDegrees>
            </Position>
            <AltitudeMeters>92.8000030517578125</AltitudeMeters>
            <DistanceMeters>NAN</DistanceMeters>
          </Trackpoint>
          <Trackpoint>
            <Time>2021-08-10T17:03:17.000Z</Time>
            <Position>
              <LatitudeDegrees>43.24670190922915935516357421875</LatitudeDegrees>
              <LongitudeDegrees>-1.70139885507524013519287109375</LongitudeDegrees>
            </Position>
            <AltitudeMeters>92.8000030517578125</AltitudeMeters>
            <DistanceMeters>NAN</DistanceMeters>
          </Trackpoint>
          <Trackpoint>
            <Time>2021-08-10T17:03:18.000Z</Time>
            <Position>
              <LatitudeDegrees>43.246712721884250640869140625</LatitudeDegrees>
              <LongitudeDegrees>-1.7013843543827533721923828125</LongitudeDegrees>
            </Position>
            <AltitudeMeters>92.8000030517578125</AltitudeMeters>
            <DistanceMeters>NAN</DistanceMeters>
          </Trackpoint>
          <Trackpoint>
            <Time>2021-08-10T17:03:19.000Z</Time>
            <Position>
              <LatitudeDegrees>43.24672001414000988006591796875</LatitudeDegrees>
              <LongitudeDegrees>-1.7013605497777462005615234375</LongitudeDegrees>
            </Position>
            <AltitudeMeters>93</AltitudeMeters>
            <DistanceMeters>NAN</DistanceMeters>
          </Trackpoint>
          <Trackpoint>
            <Time>2021-08-10T17:03:20.000Z</Time>
            <Position>
              <LatitudeDegrees>43.24673074297606945037841796875</LatitudeDegrees>
              <LongitudeDegrees>-1.7013300396502017974853515625</LongitudeDegrees>
            </Position>
            <AltitudeMeters>93</AltitudeMeters>
            <DistanceMeters>NAN</DistanceMeters>
          </Trackpoint>
          <Trackpoint>
            <Time>2021-08-10T17:03:21.000Z</Time>
            <Position>
              <LatitudeDegrees>43.24674331583082675933837890625</LatitudeDegrees>
              <LongitudeDegrees>-1.7012985236942768096923828125</LongitudeDegrees>
            </Position>
            <AltitudeMeters>93</AltitudeMeters>
            <DistanceMeters>NAN</DistanceMeters>
          </Trackpoint>
          <Trackpoint>
            <Time>2021-08-10T17:03:22.000Z</Time>
            <Position>
              <LatitudeDegrees>43.24676812626421451568603515625</LatitudeDegrees>
              <LongitudeDegrees>-1.701267175376415252685546875</LongitudeDegrees>
            </Position>
            <AltitudeMeters>93</AltitudeMeters>
            <DistanceMeters>NAN</DistanceMeters>
          </Trackpoint>
          <Trackpoint>
            <Time>2021-08-10T17:03:23.000Z</Time>
            <Position>
              <LatitudeDegrees>43.24677365832030773162841796875</LatitudeDegrees>
              <LongitudeDegrees>-1.70124194584786891937255859375</LongitudeDegrees>
            </Position>
            <AltitudeMeters>93</AltitudeMeters>
            <DistanceMeters>NAN</DistanceMeters>
          </Trackpoint>
          <Trackpoint>
            <Time>2021-08-10T17:03:24.000Z</Time>
            <Position>
              <LatitudeDegrees>43.24678069911897182464599609375</LatitudeDegrees>
              <LongitudeDegrees>-1.7012136988341808319091796875</LongitudeDegrees>
            </Position>
            <AltitudeMeters>93.1999969482421875</AltitudeMeters>
            <DistanceMeters>NAN</DistanceMeters>
          </Trackpoint>
          <Trackpoint>
            <Time>2021-08-10T17:03:25.000Z</Time>
            <Position>
              <LatitudeDegrees>43.2467839680612087249755859375</LatitudeDegrees>
              <LongitudeDegrees>-1.7011925764381885528564453125</LongitudeDegrees>
            </Position>
            <AltitudeMeters>93.1999969482421875</AltitudeMeters>
            <DistanceMeters>NAN</DistanceMeters>
          </Trackpoint>
          <Trackpoint>
            <Time>2021-08-10T17:03:26.000Z</Time>
            <Position>
              <LatitudeDegrees>43.24678572826087474822998046875</LatitudeDegrees>
              <LongitudeDegrees>-1.70117304660379886627197265625</LongitudeDegrees>
            </Position>
            <AltitudeMeters>93.1999969482421875</AltitudeMeters>
            <DistanceMeters>NAN</DistanceMeters>
          </Trackpoint>
          <Trackpoint>
            <Time>2021-08-10T17:03:27.000Z</Time>
            <Position>
              <LatitudeDegrees>43.24678539298474788665771484375</LatitudeDegrees>
              <LongitudeDegrees>-1.7011513374745845794677734375</LongitudeDegrees>
            </Position>
            <AltitudeMeters>93.1999969482421875</AltitudeMeters>
            <DistanceMeters>NAN</DistanceMeters>
          </Trackpoint>
          <Trackpoint>
            <Time>2021-08-10T17:03:28.000Z</Time>
            <Position>
              <LatitudeDegrees>43.2467849738895893096923828125</LatitudeDegrees>
              <LongitudeDegrees>-1.70113901607692241668701171875</LongitudeDegrees>
            </Position>
            <AltitudeMeters>93.1999969482421875</AltitudeMeters>
            <DistanceMeters>NAN</DistanceMeters>
          </Trackpoint>
          <Trackpoint>
            <Time>2021-08-10T17:03:29.000Z</Time>
            <Position>
              <LatitudeDegrees>43.2467973791062831878662109375</LatitudeDegrees>
              <LongitudeDegrees>-1.70112124644219875335693359375</LongitudeDegrees>
            </Position>
            <AltitudeMeters>93.1999969482421875</AltitudeMeters>
            <DistanceMeters>NAN</DistanceMeters>
          </Trackpoint>
          <Trackpoint>
            <Time>2021-08-10T17:03:30.000Z</Time>
            <Position>
              <LatitudeDegrees>43.2468067668378353118896484375</LatitudeDegrees>
              <LongitudeDegrees>-1.70110934413969516754150390625</LongitudeDegrees>
            </Position>
            <AltitudeMeters>93.1999969482421875</AltitudeMeters>
            <DistanceMeters>NAN</DistanceMeters>
          </Trackpoint>
          <Trackpoint>
            <Time>2021-08-10T17:03:31.000Z</Time>
            <Position>
              <LatitudeDegrees>43.2468178309500217437744140625</LatitudeDegrees>
              <LongitudeDegrees>-1.70109962113201618194580078125</LongitudeDegrees>
            </Position>
            <AltitudeMeters>93.1999969482421875</AltitudeMeters>
            <DistanceMeters>NAN</DistanceMeters>
          </Trackpoint>
          <Trackpoint>
            <Time>2021-08-10T17:03:32.000Z</Time>
            <Position>
              <LatitudeDegrees>43.24682596139609813690185546875</LatitudeDegrees>
              <LongitudeDegrees>-1.7010931670665740966796875</LongitudeDegrees>
            </Position>
            <AltitudeMeters>93.1999969482421875</AltitudeMeters>
            <DistanceMeters>NAN</DistanceMeters>
          </Trackpoint>
          <Trackpoint>
            <Time>2021-08-10T17:03:33.000Z</Time>
            <Position>
              <LatitudeDegrees>43.24683367274701595306396484375</LatitudeDegrees>
              <LongitudeDegrees>-1.70108235441148281097412109375</LongitudeDegrees>
            </Position>
            <AltitudeMeters>93.40000152587890625</AltitudeMeters>
            <DistanceMeters>NAN</DistanceMeters>
          </Trackpoint>
          <Trackpoint>
            <Time>2021-08-10T17:03:34.000Z</Time>
            <Position>
              <LatitudeDegrees>43.24683920480310916900634765625</LatitudeDegrees>
              <LongitudeDegrees>-1.7010717093944549560546875</LongitudeDegrees>
            </Position>
            <AltitudeMeters>93.40000152587890625</AltitudeMeters>
            <DistanceMeters>NAN</DistanceMeters>
          </Trackpoint>
          <Trackpoint>
            <Time>2021-08-10T17:03:35.000Z</Time>
            <Position>
              <LatitudeDegrees>43.24683467857539653778076171875</LatitudeDegrees>
              <LongitudeDegrees>-1.701064668595790863037109375</LongitudeDegrees>
            </Position>
            <AltitudeMeters>93.40000152587890625</AltitudeMeters>
            <DistanceMeters>NAN</DistanceMeters>
          </Trackpoint>
          <Trackpoint>
            <Time>2021-08-10T17:03:36.000Z</Time>
            <Position>
              <LatitudeDegrees>43.24683199636638164520263671875</LatitudeDegrees>
              <LongitudeDegrees>-1.7010577954351902008056640625</LongitudeDegrees>
            </Position>
            <AltitudeMeters>93.40000152587890625</AltitudeMeters>
            <DistanceMeters>NAN</DistanceMeters>
          </Trackpoint>
          <Trackpoint>
            <Time>2021-08-10T17:03:37.000Z</Time>
            <Position>
              <LatitudeDegrees>43.24682864360511302947998046875</LatitudeDegrees>
              <LongitudeDegrees>-1.70105536468327045440673828125</LongitudeDegrees>
            </Position>
            <AltitudeMeters>93.40000152587890625</AltitudeMeters>
            <DistanceMeters>NAN</DistanceMeters>
          </Trackpoint>
          <Trackpoint>
            <Time>2021-08-10T17:03:38.000Z</Time>
            <Position>
              <LatitudeDegrees>43.24682244099676609039306640625</LatitudeDegrees>
              <LongitudeDegrees>-1.70106391422450542449951171875</LongitudeDegrees>
            </Position>
            <AltitudeMeters>93.40000152587890625</AltitudeMeters>
            <DistanceMeters>NAN</DistanceMeters>
          </Trackpoint>
          <Trackpoint>
            <Time>2021-08-10T17:03:40.000Z</Time>
            <Position>
              <LatitudeDegrees>43.24680316261947154998779296875</LatitudeDegrees>
              <LongitudeDegrees>-1.70108067803084850311279296875</LongitudeDegrees>
            </Position>
            <AltitudeMeters>93.40000152587890625</AltitudeMeters>
            <DistanceMeters>NAN</DistanceMeters>
          </Trackpoint>
          <Trackpoint>
            <Time>2021-08-10T17:03:41.000Z</Time>
            <Position>
              <LatitudeDegrees>43.2468022406101226806640625</LatitudeDegrees>
              <LongitudeDegrees>-1.701087467372417449951171875</LongitudeDegrees>
            </Position>
            <AltitudeMeters>93.40000152587890625</AltitudeMeters>
            <DistanceMeters>NAN</DistanceMeters>
          </Trackpoint>
          <Trackpoint>
            <Time>2021-08-10T17:03:42.000Z</Time>
            <Position>
              <LatitudeDegrees>43.24681355617940425872802734375</LatitudeDegrees>
              <LongitudeDegrees>-1.70109341852366924285888671875</LongitudeDegrees>
            </Position>
            <AltitudeMeters>93.40000152587890625</AltitudeMeters>
            <DistanceMeters>NAN</DistanceMeters>
          </Trackpoint>
          <Trackpoint>
            <Time>2021-08-10T17:03:43.000Z</Time>
            <Position>
              <LatitudeDegrees>43.246829397976398468017578125</LatitudeDegrees>
              <LongitudeDegrees>-1.70110414735972881317138671875</LongitudeDegrees>
            </Position>
            <AltitudeMeters>93.40000152587890625</AltitudeMeters>
            <DistanceMeters>NAN</DistanceMeters>
          </Trackpoint>
          <Trackpoint>
            <Time>2021-08-10T17:03:44.000Z</Time>
            <Position>
              <LatitudeDegrees>43.2468359358608722686767578125</LatitudeDegrees>
              <LongitudeDegrees>-1.70112334191799163818359375</LongitudeDegrees>
            </Position>
            <AltitudeMeters>93.40000152587890625</AltitudeMeters>
            <DistanceMeters>NAN</DistanceMeters>
          </Trackpoint>
          <Trackpoint>
            <Time>2021-08-10T17:03:46.000Z</Time>
            <Position>
              <LatitudeDegrees>43.246826045215129852294921875</LatitudeDegrees>
              <LongitudeDegrees>-1.7011560313403606414794921875</LongitudeDegrees>
            </Position>
            <AltitudeMeters>93.40000152587890625</AltitudeMeters>
            <DistanceMeters>NAN</DistanceMeters>
          </Trackpoint>
          <Trackpoint>
            <Time>2021-08-10T17:03:48.000Z</Time>
            <Position>
              <LatitudeDegrees>43.24681187979876995086669921875</LatitudeDegrees>
              <LongitudeDegrees>-1.7011972703039646148681640625</LongitudeDegrees>
            </Position>
            <AltitudeMeters>93.40000152587890625</AltitudeMeters>
            <DistanceMeters>NAN</DistanceMeters>
          </Trackpoint>
          <Trackpoint>
            <Time>2021-08-10T17:03:49.000Z</Time>
            <Position>
              <LatitudeDegrees>43.24680467136204242706298828125</LatitudeDegrees>
              <LongitudeDegrees>-1.701216883957386016845703125</LongitudeDegrees>
            </Position>
            <AltitudeMeters>93.40000152587890625</AltitudeMeters>
            <DistanceMeters>NAN</DistanceMeters>
          </Trackpoint>
          <Trackpoint>
            <Time>2021-08-10T17:03:54.000Z</Time>
            <Position>
              <LatitudeDegrees>43.24676745571196079254150390625</LatitudeDegrees>
              <LongitudeDegrees>-1.70130749233067035675048828125</LongitudeDegrees>
            </Position>
            <AltitudeMeters>93.40000152587890625</AltitudeMeters>
            <DistanceMeters>NAN</DistanceMeters>
          </Trackpoint>
          <Trackpoint>
            <Time>2021-08-10T17:03:56.000Z</Time>
            <Position>
              <LatitudeDegrees>43.24677198193967342376708984375</LatitudeDegrees>
              <LongitudeDegrees>-1.7013048939406871795654296875</LongitudeDegrees>
            </Position>
            <AltitudeMeters>93.40000152587890625</AltitudeMeters>
            <DistanceMeters>NAN</DistanceMeters>
          </Trackpoint>
          <Trackpoint>
            <Time>2021-08-10T17:04:16.000Z</Time>
            <Position>
              <LatitudeDegrees>43.24680064804852008819580078125</LatitudeDegrees>
              <LongitudeDegrees>-1.70137471519410610198974609375</LongitudeDegrees>
            </Position>
            <AltitudeMeters>93.1999969482421875</AltitudeMeters>
            <DistanceMeters>NAN</DistanceMeters>
          </Trackpoint>
          <Trackpoint>
            <Time>2021-08-10T17:04:19.000Z</Time>
            <Position>
              <LatitudeDegrees>43.24677064083516597747802734375</LatitudeDegrees>
              <LongitudeDegrees>-1.70140941627323627471923828125</LongitudeDegrees>
            </Position>
            <AltitudeMeters>93.1999969482421875</AltitudeMeters>
            <DistanceMeters>NAN</DistanceMeters>
          </Trackpoint>
          <Trackpoint>
            <Time>2021-08-10T17:04:20.000Z</Time>
            <Position>
              <LatitudeDegrees>43.24676997028291225433349609375</LatitudeDegrees>
              <LongitudeDegrees>-1.7014141939580440521240234375</LongitudeDegrees>
            </Position>
            <AltitudeMeters>93.1999969482421875</AltitudeMeters>
            <DistanceMeters>NAN</DistanceMeters>
          </Trackpoint>
          <Trackpoint>
            <Time>2021-08-10T17:04:21.000Z</Time>
            <Position>
              <LatitudeDegrees>43.2467715628445148468017578125</LatitudeDegrees>
              <LongitudeDegrees>-1.7014165408909320831298828125</LongitudeDegrees>
            </Position>
            <AltitudeMeters>93.1999969482421875</AltitudeMeters>
            <DistanceMeters>NAN</DistanceMeters>
          </Trackpoint>
          <Trackpoint>
            <Time>2021-08-10T17:04:22.000Z</Time>
            <Position>
              <LatitudeDegrees>43.2467752508819103240966796875</LatitudeDegrees>
              <LongitudeDegrees>-1.701416708528995513916015625</LongitudeDegrees>
            </Position>
            <AltitudeMeters>93.1999969482421875</AltitudeMeters>
            <DistanceMeters>NAN</DistanceMeters>
          </Trackpoint>
          <Trackpoint>
            <Time>2021-08-10T17:04:23.000Z</Time>
            <Position>
              <LatitudeDegrees>43.2467789389193058013916015625</LatitudeDegrees>
              <LongitudeDegrees>-1.7014175467193126678466796875</LongitudeDegrees>
            </Position>
            <AltitudeMeters>93.1999969482421875</AltitudeMeters>
            <DistanceMeters>NAN</DistanceMeters>
          </Trackpoint>
          <Trackpoint>
            <Time>2021-08-10T17:04:25.000Z</Time>
            <Position>
              <LatitudeDegrees>43.24677483178675174713134765625</LatitudeDegrees>
              <LongitudeDegrees>-1.70141545124351978302001953125</LongitudeDegrees>
            </Position>
            <AltitudeMeters>93.1999969482421875</AltitudeMeters>
            <DistanceMeters>NAN</DistanceMeters>
          </Trackpoint>
          <Trackpoint>
            <Time>2021-08-10T17:04:26.000Z</Time>
            <Position>
              <LatitudeDegrees>43.24676334857940673828125</LatitudeDegrees>
              <LongitudeDegrees>-1.7014175467193126678466796875</LongitudeDegrees>
            </Position>
            <AltitudeMeters>93.1999969482421875</AltitudeMeters>
            <DistanceMeters>NAN</DistanceMeters>
          </Trackpoint>
          <Trackpoint>
            <Time>2021-08-10T17:04:27.000Z</Time>
            <Position>
              <LatitudeDegrees>43.2467593252658843994140625</LatitudeDegrees>
              <LongitudeDegrees>-1.7014188878238201141357421875</LongitudeDegrees>
            </Position>
            <AltitudeMeters>93.1999969482421875</AltitudeMeters>
            <DistanceMeters>NAN</DistanceMeters>
          </Trackpoint>
          <Trackpoint>
            <Time>2021-08-10T17:04:28.000Z</Time>
            <Position>
              <LatitudeDegrees>43.246756307780742645263671875</LatitudeDegrees>
              <LongitudeDegrees>-1.7014188878238201141357421875</LongitudeDegrees>
            </Position>
            <AltitudeMeters>93.1999969482421875</AltitudeMeters>
            <DistanceMeters>NAN</DistanceMeters>
          </Trackpoint>
          <Trackpoint>
            <Time>2021-08-10T17:04:29.000Z</Time>
            <Position>
              <LatitudeDegrees>43.24674700386822223663330078125</LatitudeDegrees>
              <LongitudeDegrees>-1.7014198936522006988525390625</LongitudeDegrees>
            </Position>
            <AltitudeMeters>93.1999969482421875</AltitudeMeters>
            <DistanceMeters>NAN</DistanceMeters>
          </Trackpoint>
          <Trackpoint>
            <Time>2021-08-10T17:04:30.000Z</Time>
            <Position>
              <LatitudeDegrees>43.24673711322247982025146484375</LatitudeDegrees>
              <LongitudeDegrees>-1.70142031274735927581787109375</LongitudeDegrees>
            </Position>
            <AltitudeMeters>93.1999969482421875</AltitudeMeters>
            <DistanceMeters>NAN</DistanceMeters>
          </Trackpoint>
          <Trackpoint>
            <Time>2021-08-10T17:04:31.000Z</Time>
            <Position>
              <LatitudeDegrees>43.246730826795101165771484375</LatitudeDegrees>
              <LongitudeDegrees>-1.7014215700328350067138671875</LongitudeDegrees>
            </Position>
            <AltitudeMeters>93.1999969482421875</AltitudeMeters>
            <DistanceMeters>NAN</DistanceMeters>
          </Trackpoint>
          <Trackpoint>
            <Time>2021-08-10T17:04:33.000Z</Time>
            <Position>
              <LatitudeDegrees>43.246726132929325103759765625</LatitudeDegrees>
              <LongitudeDegrees>-1.70142064802348613739013671875</LongitudeDegrees>
            </Position>
            <AltitudeMeters>93.1999969482421875</AltitudeMeters>
            <DistanceMeters>NAN</DistanceMeters>
          </Trackpoint>
          <Trackpoint>
            <Time>2021-08-10T17:04:34.000Z</Time>
            <Position>
              <LatitudeDegrees>43.2467219419777393341064453125</LatitudeDegrees>
              <LongitudeDegrees>-1.701420731842517852783203125</LongitudeDegrees>
            </Position>
            <AltitudeMeters>93.1999969482421875</AltitudeMeters>
            <DistanceMeters>NAN</DistanceMeters>
          </Trackpoint>
          <Trackpoint>
            <Time>2021-08-10T17:04:35.000Z</Time>
            <Position>
              <LatitudeDegrees>43.2467236183583736419677734375</LatitudeDegrees>
              <LongitudeDegrees>-1.70142014510929584503173828125</LongitudeDegrees>
            </Position>
            <AltitudeMeters>93.1999969482421875</AltitudeMeters>
            <DistanceMeters>NAN</DistanceMeters>
          </Trackpoint>
          <Trackpoint>
            <Time>2021-08-10T17:04:36.000Z</Time>
            <Position>
              <LatitudeDegrees>43.246725462377071380615234375</LatitudeDegrees>
              <LongitudeDegrees>-1.7014178819954395294189453125</LongitudeDegrees>
            </Position>
            <AltitudeMeters>93.1999969482421875</AltitudeMeters>
            <DistanceMeters>NAN</DistanceMeters>
          </Trackpoint>
          <Trackpoint>
            <Time>2021-08-10T17:04:37.000Z</Time>
            <Position>
              <LatitudeDegrees>43.24672873131930828094482421875</LatitudeDegrees>
              <LongitudeDegrees>-1.7014155350625514984130859375</LongitudeDegrees>
            </Position>
            <AltitudeMeters>93.1999969482421875</AltitudeMeters>
            <DistanceMeters>NAN</DistanceMeters>
          </Trackpoint>
          <Trackpoint>
            <Time>2021-08-10T17:04:38.000Z</Time>
            <Position>
              <LatitudeDegrees>43.2467330060899257659912109375</LatitudeDegrees>
              <LongitudeDegrees>-1.70141243375837802886962890625</LongitudeDegrees>
            </Position>
            <AltitudeMeters>93.1999969482421875</AltitudeMeters>
            <DistanceMeters>NAN</DistanceMeters>
          </Trackpoint>
          <Trackpoint>
            <Time>2021-08-10T17:04:39.000Z</Time>
            <Position>
              <LatitudeDegrees>43.2467407174408435821533203125</LatitudeDegrees>
              <LongitudeDegrees>-1.70141142792999744415283203125</LongitudeDegrees>
            </Position>
            <AltitudeMeters>93.40000152587890625</AltitudeMeters>
            <DistanceMeters>NAN</DistanceMeters>
          </Trackpoint>
          <Trackpoint>
            <Time>2021-08-10T17:04:40.000Z</Time>
            <Position>
              <LatitudeDegrees>43.24674197472631931304931640625</LatitudeDegrees>
              <LongitudeDegrees>-1.701410003006458282470703125</LongitudeDegrees>
            </Position>
            <AltitudeMeters>93.40000152587890625</AltitudeMeters>
            <DistanceMeters>NAN</DistanceMeters>
          </Trackpoint>
          <Trackpoint>
            <Time>2021-08-10T17:04:47.000Z</Time>
            <Position>
              <LatitudeDegrees>43.2467485964298248291015625</LatitudeDegrees>
              <LongitudeDegrees>-1.70140287838876247406005859375</LongitudeDegrees>
            </Position>
            <AltitudeMeters>93.1999969482421875</AltitudeMeters>
            <DistanceMeters>NAN</DistanceMeters>
          </Trackpoint>
          <Trackpoint>
            <Time>2021-08-10T17:04:57.000Z</Time>
            <Position>
              <LatitudeDegrees>43.24671196751296520233154296875</LatitudeDegrees>
              <LongitudeDegrees>-1.70141913928091526031494140625</LongitudeDegrees>
            </Position>
            <AltitudeMeters>93.40000152587890625</AltitudeMeters>
            <DistanceMeters>NAN</DistanceMeters>
          </Trackpoint>
          <Trackpoint>
            <Time>2021-08-10T17:04:58.000Z</Time>
            <Position>
              <LatitudeDegrees>43.24670777656137943267822265625</LatitudeDegrees>
              <LongitudeDegrees>-1.70141813345253467559814453125</LongitudeDegrees>
            </Position>
            <AltitudeMeters>93.40000152587890625</AltitudeMeters>
            <DistanceMeters>NAN</DistanceMeters>
          </Trackpoint>
          <Trackpoint>
            <Time>2021-08-10T17:04:59.000Z</Time>
            <Position>
              <LatitudeDegrees>43.24670257978141307830810546875</LatitudeDegrees>
              <LongitudeDegrees>-1.70141695998609066009521484375</LongitudeDegrees>
            </Position>
            <AltitudeMeters>93.40000152587890625</AltitudeMeters>
            <DistanceMeters>NAN</DistanceMeters>
          </Trackpoint>
          <Trackpoint>
            <Time>2021-08-10T17:05:00.000Z</Time>
            <Position>
              <LatitudeDegrees>43.24669604189693927764892578125</LatitudeDegrees>
              <LongitudeDegrees>-1.701429784297943115234375</LongitudeDegrees>
            </Position>
            <AltitudeMeters>93.40000152587890625</AltitudeMeters>
            <DistanceMeters>NAN</DistanceMeters>
          </Trackpoint>
          <Trackpoint>
            <Time>2021-08-10T17:05:01.000Z</Time>
            <Position>
              <LatitudeDegrees>43.24668799526989459991455078125</LatitudeDegrees>
              <LongitudeDegrees>-1.70144076459109783172607421875</LongitudeDegrees>
            </Position>
            <AltitudeMeters>93.40000152587890625</AltitudeMeters>
            <DistanceMeters>NAN</DistanceMeters>
          </Trackpoint>
          <Trackpoint>
            <Time>2021-08-10T17:05:03.000Z</Time>
            <Position>
              <LatitudeDegrees>43.24667458422482013702392578125</LatitudeDegrees>
              <LongitudeDegrees>-1.7014420218765735626220703125</LongitudeDegrees>
            </Position>
            <AltitudeMeters>93.59999847412109375</AltitudeMeters>
            <DistanceMeters>NAN</DistanceMeters>
          </Trackpoint>
          <Trackpoint>
            <Time>2021-08-10T17:05:04.000Z</Time>
            <Position>
              <LatitudeDegrees>43.24666720815002918243408203125</LatitudeDegrees>
              <LongitudeDegrees>-1.7014413513243198394775390625</LongitudeDegrees>
            </Position>
            <AltitudeMeters>93.59999847412109375</AltitudeMeters>
            <DistanceMeters>NAN</DistanceMeters>
          </Trackpoint>
          <Trackpoint>
            <Time>2021-08-10T17:05:05.000Z</Time>
            <Position>
              <LatitudeDegrees>43.2466565631330013275146484375</LatitudeDegrees>
              <LongitudeDegrees>-1.7014353163540363311767578125</LongitudeDegrees>
            </Position>
            <AltitudeMeters>93.59999847412109375</AltitudeMeters>
            <DistanceMeters>NAN</DistanceMeters>
          </Trackpoint>
          <Trackpoint>
            <Time>2021-08-10T17:05:06.000Z</Time>
            <Position>
              <LatitudeDegrees>43.24665077961981296539306640625</LatitudeDegrees>
              <LongitudeDegrees>-1.70141997747123241424560546875</LongitudeDegrees>
            </Position>
            <AltitudeMeters>93.59999847412109375</AltitudeMeters>
            <DistanceMeters>NAN</DistanceMeters>
          </Trackpoint>
          <Trackpoint>
            <Time>2021-08-10T17:05:07.000Z</Time>
            <Position>
              <LatitudeDegrees>43.24664625339210033416748046875</LatitudeDegrees>
              <LongitudeDegrees>-1.70140388421714305877685546875</LongitudeDegrees>
            </Position>
            <AltitudeMeters>93.8000030517578125</AltitudeMeters>
            <DistanceMeters>NAN</DistanceMeters>
          </Trackpoint>
          <Trackpoint>
            <Time>2021-08-10T17:05:12.000Z</Time>
            <Position>
              <LatitudeDegrees>43.246632926166057586669921875</LatitudeDegrees>
              <LongitudeDegrees>-1.70134554617106914520263671875</LongitudeDegrees>
            </Position>
            <AltitudeMeters>93.8000030517578125</AltitudeMeters>
            <DistanceMeters>NAN</DistanceMeters>
          </Trackpoint>
          <Trackpoint>
            <Time>2021-08-10T17:17:07.000Z</Time>
            <Position>
              <LatitudeDegrees>43.2465888373553752899169921875</LatitudeDegrees>
              <LongitudeDegrees>-1.70137756504118442535400390625</LongitudeDegrees>
            </Position>
            <AltitudeMeters>93</AltitudeMeters>
            <DistanceMeters>NAN</DistanceMeters>
          </Trackpoint>
          <Trackpoint>
            <Time>2021-08-10T17:17:11.000Z</Time>
            <Position>
              <LatitudeDegrees>43.2465807907283306121826171875</LatitudeDegrees>
              <LongitudeDegrees>-1.70135535299777984619140625</LongitudeDegrees>
            </Position>
            <AltitudeMeters>92.8000030517578125</AltitudeMeters>
            <DistanceMeters>NAN</DistanceMeters>
          </Trackpoint>
          <Trackpoint>
            <Time>2021-08-10T17:17:14.000Z</Time>
            <Position>
              <LatitudeDegrees>43.24660970829427242279052734375</LatitudeDegrees>
              <LongitudeDegrees>-1.701361052691936492919921875</LongitudeDegrees>
            </Position>
            <AltitudeMeters>92.59999847412109375</AltitudeMeters>
            <DistanceMeters>NAN</DistanceMeters>
          </Trackpoint>
          <Trackpoint>
            <Time>2021-08-10T17:17:15.000Z</Time>
            <Position>
              <LatitudeDegrees>43.2465056888759136199951171875</LatitudeDegrees>
              <LongitudeDegrees>-1.7014145292341709136962890625</LongitudeDegrees>
            </Position>
            <AltitudeMeters>92.59999847412109375</AltitudeMeters>
            <DistanceMeters>NAN</DistanceMeters>
          </Trackpoint>
          <Trackpoint>
            <Time>2021-08-10T17:17:16.000Z</Time>
            <Position>
              <LatitudeDegrees>43.2465154118835926055908203125</LatitudeDegrees>
              <LongitudeDegrees>-1.7014041356742382049560546875</LongitudeDegrees>
            </Position>
            <AltitudeMeters>92.40000152587890625</AltitudeMeters>
            <DistanceMeters>NAN</DistanceMeters>
          </Trackpoint>
          <Trackpoint>
            <Time>2021-08-10T17:17:19.000Z</Time>
            <Position>
              <LatitudeDegrees>43.2465298287570476531982421875</LatitudeDegrees>
              <LongitudeDegrees>-1.70140824280679225921630859375</LongitudeDegrees>
            </Position>
            <AltitudeMeters>92.40000152587890625</AltitudeMeters>
            <DistanceMeters>NAN</DistanceMeters>
          </Trackpoint>
          <Trackpoint>
            <Time>2021-08-10T17:17:28.000Z</Time>
            <Position>
              <LatitudeDegrees>43.24657517485320568084716796875</LatitudeDegrees>
              <LongitudeDegrees>-1.7013533413410186767578125</LongitudeDegrees>
            </Position>
            <AltitudeMeters>92.40000152587890625</AltitudeMeters>
            <DistanceMeters>NAN</DistanceMeters>
          </Trackpoint>
          <Trackpoint>
            <Time>2021-08-10T17:17:36.000Z</Time>
            <Position>
              <LatitudeDegrees>43.24656017124652862548828125</LatitudeDegrees>
              <LongitudeDegrees>-1.70136884786188602447509765625</LongitudeDegrees>
            </Position>
            <AltitudeMeters>92.1999969482421875</AltitudeMeters>
            <DistanceMeters>NAN</DistanceMeters>
          </Trackpoint>
          <Trackpoint>
            <Time>2021-08-10T17:17:41.000Z</Time>
            <Position>
              <LatitudeDegrees>43.24657048098742961883544921875</LatitudeDegrees>
              <LongitudeDegrees>-1.701361052691936492919921875</LongitudeDegrees>
            </Position>
            <AltitudeMeters>92.1999969482421875</AltitudeMeters>
            <DistanceMeters>NAN</DistanceMeters>
          </Trackpoint>
          <Trackpoint>
            <Time>2021-08-10T17:17:48.000Z</Time>
            <Position>
              <LatitudeDegrees>43.24659244157373905181884765625</LatitudeDegrees>
              <LongitudeDegrees>-1.7013721168041229248046875</LongitudeDegrees>
            </Position>
            <AltitudeMeters>92.1999969482421875</AltitudeMeters>
            <DistanceMeters>NAN</DistanceMeters>
          </Trackpoint>
          <Trackpoint>
            <Time>2021-08-10T17:18:10.000Z</Time>
            <Position>
              <LatitudeDegrees>43.2466037571430206298828125</LatitudeDegrees>
              <LongitudeDegrees>-1.701387874782085418701171875</LongitudeDegrees>
            </Position>
            <AltitudeMeters>92</AltitudeMeters>
            <DistanceMeters>NAN</DistanceMeters>
          </Trackpoint>
          <Trackpoint>
            <Time>2021-08-10T17:18:12.000Z</Time>
            <Position>
              <LatitudeDegrees>43.24658087454736232757568359375</LatitudeDegrees>
              <LongitudeDegrees>-1.70143305324018001556396484375</LongitudeDegrees>
            </Position>
            <AltitudeMeters>92</AltitudeMeters>
            <DistanceMeters>NAN</DistanceMeters>
          </Trackpoint>
          <Trackpoint>
            <Time>2021-08-10T17:18:13.000Z</Time>
            <Position>
              <LatitudeDegrees>43.246570564806461334228515625</LatitudeDegrees>
              <LongitudeDegrees>-1.70145635493099689483642578125</LongitudeDegrees>
            </Position>
            <AltitudeMeters>92</AltitudeMeters>
            <DistanceMeters>NAN</DistanceMeters>
          </Trackpoint>
          <Trackpoint>
            <Time>2021-08-10T17:18:17.000Z</Time>
            <Position>
              <LatitudeDegrees>43.246492110192775726318359375</LatitudeDegrees>
              <LongitudeDegrees>-1.701542101800441741943359375</LongitudeDegrees>
            </Position>
            <AltitudeMeters>91.8000030517578125</AltitudeMeters>
            <DistanceMeters>NAN</DistanceMeters>
          </Trackpoint>
          <Trackpoint>
            <Time>2021-08-10T17:18:19.000Z</Time>
            <Position>
              <LatitudeDegrees>43.24646084569394588470458984375</LatitudeDegrees>
              <LongitudeDegrees>-1.70158443041145801544189453125</LongitudeDegrees>
            </Position>
            <AltitudeMeters>91.40000152587890625</AltitudeMeters>
            <DistanceMeters>NAN</DistanceMeters>
          </Trackpoint>
          <Trackpoint>
            <Time>2021-08-10T17:18:20.000Z</Time>
            <Position>
              <LatitudeDegrees>43.24645112268626689910888671875</LatitudeDegrees>
              <LongitudeDegrees>-1.701597757637500762939453125</LongitudeDegrees>
            </Position>
            <AltitudeMeters>91.1999969482421875</AltitudeMeters>
            <DistanceMeters>NAN</DistanceMeters>
          </Trackpoint>
          <Trackpoint>
            <Time>2021-08-10T17:18:21.000Z</Time>
            <Position>
              <LatitudeDegrees>43.24643804691731929779052734375</LatitudeDegrees>
              <LongitudeDegrees>-1.70160991139709949493408203125</LongitudeDegrees>
            </Position>
            <AltitudeMeters>90.8000030517578125</AltitudeMeters>
            <DistanceMeters>NAN</DistanceMeters>
          </Trackpoint>
          <Trackpoint>
            <Time>2021-08-10T17:18:22.000Z</Time>
            <Position>
              <LatitudeDegrees>43.24642782099545001983642578125</LatitudeDegrees>
              <LongitudeDegrees>-1.70162734575569629669189453125</LongitudeDegrees>
            </Position>
            <AltitudeMeters>90.40000152587890625</AltitudeMeters>
            <DistanceMeters>NAN</DistanceMeters>
          </Trackpoint>
          <Trackpoint>
            <Time>2021-08-10T17:18:23.000Z</Time>
            <Position>
              <LatitudeDegrees>43.2464218698441982269287109375</LatitudeDegrees>
              <LongitudeDegrees>-1.70164444483816623687744140625</LongitudeDegrees>
            </Position>
            <AltitudeMeters>90.40000152587890625</AltitudeMeters>
            <DistanceMeters>NAN</DistanceMeters>
          </Trackpoint>
          <Trackpoint>
            <Time>2021-08-10T17:18:24.000Z</Time>
            <Position>
              <LatitudeDegrees>43.24642228893935680389404296875</LatitudeDegrees>
              <LongitudeDegrees>-1.701655425131320953369140625</LongitudeDegrees>
            </Position>
            <AltitudeMeters>90</AltitudeMeters>
            <DistanceMeters>NAN</DistanceMeters>
          </Trackpoint>
          <Trackpoint>
            <Time>2021-08-10T17:18:25.000Z</Time>
            <Position>
              <LatitudeDegrees>43.24642329476773738861083984375</LatitudeDegrees>
              <LongitudeDegrees>-1.70166120864450931549072265625</LongitudeDegrees>
            </Position>
            <AltitudeMeters>90</AltitudeMeters>
            <DistanceMeters>NAN</DistanceMeters>
          </Trackpoint>
          <Trackpoint>
            <Time>2021-08-10T17:18:27.000Z</Time>
            <Position>
              <LatitudeDegrees>43.24642078019678592681884765625</LatitudeDegrees>
              <LongitudeDegrees>-1.701683588325977325439453125</LongitudeDegrees>
            </Position>
            <AltitudeMeters>89.59999847412109375</AltitudeMeters>
            <DistanceMeters>NAN</DistanceMeters>
          </Trackpoint>
          <Trackpoint>
            <Time>2021-08-10T17:18:32.000Z</Time>
            <Position>
              <LatitudeDegrees>43.246425054967403411865234375</LatitudeDegrees>
              <LongitudeDegrees>-1.70168417505919933319091796875</LongitudeDegrees>
            </Position>
            <AltitudeMeters>89.40000152587890625</AltitudeMeters>
            <DistanceMeters>NAN</DistanceMeters>
          </Trackpoint>
          <Trackpoint>
            <Time>2021-08-10T17:18:44.000Z</Time>
            <Position>
              <LatitudeDegrees>43.24643075466156005859375</LatitudeDegrees>
              <LongitudeDegrees>-1.7016847617924213409423828125</LongitudeDegrees>
            </Position>
            <AltitudeMeters>89.8000030517578125</AltitudeMeters>
            <DistanceMeters>NAN</DistanceMeters>
          </Trackpoint>
          <Trackpoint>
            <Time>2021-08-10T17:19:05.000Z</Time>
            <Position>
              <LatitudeDegrees>43.24644827283918857574462890625</LatitudeDegrees>
              <LongitudeDegrees>-1.7016750387847423553466796875</LongitudeDegrees>
            </Position>
            <AltitudeMeters>89.59999847412109375</AltitudeMeters>
            <DistanceMeters>NAN</DistanceMeters>
          </Trackpoint>
          <Trackpoint>
            <Time>2021-08-10T17:19:07.000Z</Time>
            <Position>
              <LatitudeDegrees>43.2464470155537128448486328125</LatitudeDegrees>
              <LongitudeDegrees>-1.7016720212996006011962890625</LongitudeDegrees>
            </Position>
            <AltitudeMeters>89.59999847412109375</AltitudeMeters>
            <DistanceMeters>NAN</DistanceMeters>
          </Trackpoint>
          <Trackpoint>
            <Time>2021-08-10T17:19:13.000Z</Time>
            <Position>
              <LatitudeDegrees>43.246453888714313507080078125</LatitudeDegrees>
              <LongitudeDegrees>-1.701708398759365081787109375</LongitudeDegrees>
            </Position>
            <AltitudeMeters>89.59999847412109375</AltitudeMeters>
            <DistanceMeters>NAN</DistanceMeters>
          </Trackpoint>
          <Trackpoint>
            <Time>2021-08-10T17:19:14.000Z</Time>
            <Position>
              <LatitudeDegrees>43.2464436627924442291259765625</LatitudeDegrees>
              <LongitudeDegrees>-1.70172457583248615264892578125</LongitudeDegrees>
            </Position>
            <AltitudeMeters>89.59999847412109375</AltitudeMeters>
            <DistanceMeters>NAN</DistanceMeters>
          </Trackpoint>
          <Trackpoint>
            <Time>2021-08-10T17:19:17.000Z</Time>
            <Position>
              <LatitudeDegrees>43.24641273356974124908447265625</LatitudeDegrees>
              <LongitudeDegrees>-1.70176933519542217254638671875</LongitudeDegrees>
            </Position>
            <AltitudeMeters>89.40000152587890625</AltitudeMeters>
            <DistanceMeters>NAN</DistanceMeters>
          </Trackpoint>
          <Trackpoint>
            <Time>2021-08-10T17:19:18.000Z</Time>
            <Position>
              <LatitudeDegrees>43.246403597295284271240234375</LatitudeDegrees>
              <LongitudeDegrees>-1.7017846740782260894775390625</LongitudeDegrees>
            </Position>
            <AltitudeMeters>89.1999969482421875</AltitudeMeters>
            <DistanceMeters>NAN</DistanceMeters>
          </Trackpoint>
          <Trackpoint>
            <Time>2021-08-10T17:19:19.000Z</Time>
            <Position>
              <LatitudeDegrees>43.24639898724853992462158203125</LatitudeDegrees>
              <LongitudeDegrees>-1.70179699547588825225830078125</LongitudeDegrees>
            </Position>
            <AltitudeMeters>89.1999969482421875</AltitudeMeters>
            <DistanceMeters>NAN</DistanceMeters>
          </Trackpoint>
          <Trackpoint>
            <Time>2021-08-10T17:19:20.000Z</Time>
            <Position>
              <LatitudeDegrees>43.24639546684920787811279296875</LatitudeDegrees>
              <LongitudeDegrees>-1.70180738903582096099853515625</LongitudeDegrees>
            </Position>
            <AltitudeMeters>88.8000030517578125</AltitudeMeters>
            <DistanceMeters>NAN</DistanceMeters>
          </Trackpoint>
          <Trackpoint>
            <Time>2021-08-10T17:19:21.000Z</Time>
            <Position>
              <LatitudeDegrees>43.24639295227825641632080078125</LatitudeDegrees>
              <LongitudeDegrees>-1.701820380985736846923828125</LongitudeDegrees>
            </Position>
            <AltitudeMeters>88.59999847412109375</AltitudeMeters>
            <DistanceMeters>NAN</DistanceMeters>
          </Trackpoint>
          <Trackpoint>
            <Time>2021-08-10T17:19:23.000Z</Time>
            <Position>
              <LatitudeDegrees>43.2463963888585567474365234375</LatitudeDegrees>
              <LongitudeDegrees>-1.70186522416770458221435546875</LongitudeDegrees>
            </Position>
            <AltitudeMeters>88.1999969482421875</AltitudeMeters>
            <DistanceMeters>NAN</DistanceMeters>
          </Trackpoint>
          <Trackpoint>
            <Time>2021-08-10T17:19:24.000Z</Time>
            <Position>
              <LatitudeDegrees>43.246404938399791717529296875</LatitudeDegrees>
              <LongitudeDegrees>-1.70188852585852146148681640625</LongitudeDegrees>
            </Position>
            <AltitudeMeters>88.1999969482421875</AltitudeMeters>
            <DistanceMeters>NAN</DistanceMeters>
          </Trackpoint>
          <Trackpoint>
            <Time>2021-08-10T17:19:26.000Z</Time>
            <Position>
              <LatitudeDegrees>43.24642631225287914276123046875</LatitudeDegrees>
              <LongitudeDegrees>-1.7019300162792205810546875</LongitudeDegrees>
            </Position>
            <AltitudeMeters>88</AltitudeMeters>
            <DistanceMeters>NAN</DistanceMeters>
          </Trackpoint>
          <Trackpoint>
            <Time>2021-08-10T17:19:27.000Z</Time>
            <Position>
              <LatitudeDegrees>43.24643871746957302093505859375</LatitudeDegrees>
              <LongitudeDegrees>-1.7019482888281345367431640625</LongitudeDegrees>
            </Position>
            <AltitudeMeters>87.59999847412109375</AltitudeMeters>
            <DistanceMeters>NAN</DistanceMeters>
          </Trackpoint>
          <Trackpoint>
            <Time>2021-08-10T17:19:31.000Z</Time>
            <Position>
              <LatitudeDegrees>43.24647207744419574737548828125</LatitudeDegrees>
              <LongitudeDegrees>-1.70205733738839626312255859375</LongitudeDegrees>
            </Position>
            <AltitudeMeters>87.1999969482421875</AltitudeMeters>
            <DistanceMeters>NAN</DistanceMeters>
          </Trackpoint>
          <Trackpoint>
            <Time>2021-08-10T17:19:33.000Z</Time>
            <Position>
              <LatitudeDegrees>43.2464976422488689422607421875</LatitudeDegrees>
              <LongitudeDegrees>-1.70210343785583972930908203125</LongitudeDegrees>
            </Position>
            <AltitudeMeters>86.8000030517578125</AltitudeMeters>
            <DistanceMeters>NAN</DistanceMeters>
          </Trackpoint>
          <Trackpoint>
            <Time>2021-08-10T17:19:34.000Z</Time>
            <Position>
              <LatitudeDegrees>43.24651013128459453582763671875</LatitudeDegrees>
              <LongitudeDegrees>-1.70212305150926113128662109375</LongitudeDegrees>
            </Position>
            <AltitudeMeters>86.59999847412109375</AltitudeMeters>
            <DistanceMeters>NAN</DistanceMeters>
          </Trackpoint>
          <Trackpoint>
            <Time>2021-08-10T17:19:35.000Z</Time>
            <Position>
              <LatitudeDegrees>43.246522955596446990966796875</LatitudeDegrees>
              <LongitudeDegrees>-1.7021410726010799407958984375</LongitudeDegrees>
            </Position>
            <AltitudeMeters>86.59999847412109375</AltitudeMeters>
            <DistanceMeters>NAN</DistanceMeters>
          </Trackpoint>
          <Trackpoint>
            <Time>2021-08-10T17:19:36.000Z</Time>
            <Position>
              <LatitudeDegrees>43.24653603136539459228515625</LatitudeDegrees>
              <LongitudeDegrees>-1.70216060243546962738037109375</LongitudeDegrees>
            </Position>
            <AltitudeMeters>86.40000152587890625</AltitudeMeters>
            <DistanceMeters>NAN</DistanceMeters>
          </Trackpoint>
          <Trackpoint>
            <Time>2021-08-10T17:19:37.000Z</Time>
            <Position>
              <LatitudeDegrees>43.2465474307537078857421875</LatitudeDegrees>
              <LongitudeDegrees>-1.70217937789857387542724609375</LongitudeDegrees>
            </Position>
            <AltitudeMeters>86</AltitudeMeters>
            <DistanceMeters>NAN</DistanceMeters>
          </Trackpoint>
          <Trackpoint>
            <Time>2021-08-10T17:19:38.000Z</Time>
            <Position>
              <LatitudeDegrees>43.24655153788626194000244140625</LatitudeDegrees>
              <LongitudeDegrees>-1.7021920345723628997802734375</LongitudeDegrees>
            </Position>
            <AltitudeMeters>85.8000030517578125</AltitudeMeters>
            <DistanceMeters>NAN</DistanceMeters>
          </Trackpoint>
          <Trackpoint>
            <Time>2021-08-10T17:19:39.000Z</Time>
            <Position>
              <LatitudeDegrees>43.24655505828559398651123046875</LatitudeDegrees>
              <LongitudeDegrees>-1.70220167376101016998291015625</LongitudeDegrees>
            </Position>
            <AltitudeMeters>85.59999847412109375</AltitudeMeters>
            <DistanceMeters>NAN</DistanceMeters>
          </Trackpoint>
          <Trackpoint>
            <Time>2021-08-10T17:19:40.000Z</Time>
            <Position>
              <LatitudeDegrees>43.24656310491263866424560546875</LatitudeDegrees>
              <LongitudeDegrees>-1.70220452360808849334716796875</LongitudeDegrees>
            </Position>
            <AltitudeMeters>85.40000152587890625</AltitudeMeters>
            <DistanceMeters>NAN</DistanceMeters>
          </Trackpoint>
          <Trackpoint>
            <Time>2021-08-10T17:19:41.000Z</Time>
            <Position>
              <LatitudeDegrees>43.24657467193901538848876953125</LatitudeDegrees>
              <LongitudeDegrees>-1.7022044397890567779541015625</LongitudeDegrees>
            </Position>
            <AltitudeMeters>85.40000152587890625</AltitudeMeters>
            <DistanceMeters>NAN</DistanceMeters>
          </Trackpoint>
          <Trackpoint>
            <Time>2021-08-10T17:19:42.000Z</Time>
            <Position>
              <LatitudeDegrees>43.246582634747028350830078125</LatitudeDegrees>
              <LongitudeDegrees>-1.70221030712127685546875</LongitudeDegrees>
            </Position>
            <AltitudeMeters>85.1999969482421875</AltitudeMeters>
            <DistanceMeters>NAN</DistanceMeters>
          </Trackpoint>
          <Trackpoint>
            <Time>2021-08-10T17:19:43.000Z</Time>
            <Position>
              <LatitudeDegrees>43.24659076519310474395751953125</LatitudeDegrees>
              <LongitudeDegrees>-1.70221307314932346343994140625</LongitudeDegrees>
            </Position>
            <AltitudeMeters>85.1999969482421875</AltitudeMeters>
            <DistanceMeters>NAN</DistanceMeters>
          </Trackpoint>
          <Trackpoint>
            <Time>2021-08-10T17:19:44.000Z</Time>
            <Position>
              <LatitudeDegrees>43.24659696780145168304443359375</LatitudeDegrees>
              <LongitudeDegrees>-1.7022165097296237945556640625</LongitudeDegrees>
            </Position>
            <AltitudeMeters>85</AltitudeMeters>
            <DistanceMeters>NAN</DistanceMeters>
          </Trackpoint>
          <Trackpoint>
            <Time>2021-08-10T17:19:45.000Z</Time>
            <Position>
              <LatitudeDegrees>43.24659612961113452911376953125</LatitudeDegrees>
              <LongitudeDegrees>-1.70221776701509952545166015625</LongitudeDegrees>
            </Position>
            <AltitudeMeters>85</AltitudeMeters>
            <DistanceMeters>NAN</DistanceMeters>
          </Trackpoint>
          <Trackpoint>
            <Time>2021-08-10T17:20:06.000Z</Time>
            <Position>
              <LatitudeDegrees>43.2465948723256587982177734375</LatitudeDegrees>
              <LongitudeDegrees>-1.70221592299640178680419921875</LongitudeDegrees>
            </Position>
            <AltitudeMeters>84.8000030517578125</AltitudeMeters>
            <DistanceMeters>NAN</DistanceMeters>
          </Trackpoint>
          <Trackpoint>
            <Time>2021-08-10T17:20:29.000Z</Time>
            <Position>
              <LatitudeDegrees>43.24662596918642520904541015625</LatitudeDegrees>
              <LongitudeDegrees>-1.70234483666718006134033203125</LongitudeDegrees>
            </Position>
            <AltitudeMeters>84.8000030517578125</AltitudeMeters>
            <DistanceMeters>NAN</DistanceMeters>
          </Trackpoint>
          <Trackpoint>
            <Time>2021-08-10T17:20:36.000Z</Time>
            <Position>
              <LatitudeDegrees>43.24669168330729007720947265625</LatitudeDegrees>
              <LongitudeDegrees>-1.70267307199537754058837890625</LongitudeDegrees>
            </Position>
            <AltitudeMeters>84.1999969482421875</AltitudeMeters>
            <DistanceMeters>NAN</DistanceMeters>
          </Trackpoint>
          <Trackpoint>
            <Time>2021-08-10T17:20:37.000Z</Time>
            <Position>
              <LatitudeDegrees>43.2467004843056201934814453125</LatitudeDegrees>
              <LongitudeDegrees>-1.7027177475392818450927734375</LongitudeDegrees>
            </Position>
            <AltitudeMeters>83.8000030517578125</AltitudeMeters>
            <DistanceMeters>NAN</DistanceMeters>
          </Trackpoint>
          <Trackpoint>
            <Time>2021-08-10T17:20:38.000Z</Time>
            <Position>
              <LatitudeDegrees>43.246707357466220855712890625</LatitudeDegrees>
              <LongitudeDegrees>-1.7027563042938709259033203125</LongitudeDegrees>
            </Position>
            <AltitudeMeters>83.59999847412109375</AltitudeMeters>
            <DistanceMeters>NAN</DistanceMeters>
          </Trackpoint>
          <Trackpoint>
            <Time>2021-08-10T17:20:39.000Z</Time>
            <Position>
              <LatitudeDegrees>43.2467041723430156707763671875</LatitudeDegrees>
              <LongitudeDegrees>-1.7027856409549713134765625</LongitudeDegrees>
            </Position>
            <AltitudeMeters>83.40000152587890625</AltitudeMeters>
            <DistanceMeters>NAN</DistanceMeters>
          </Trackpoint>
          <Trackpoint>
            <Time>2021-08-10T17:20:40.000Z</Time>
            <Position>
              <LatitudeDegrees>43.24669553898274898529052734375</LatitudeDegrees>
              <LongitudeDegrees>-1.70281053520739078521728515625</LongitudeDegrees>
            </Position>
            <AltitudeMeters>83.1999969482421875</AltitudeMeters>
            <DistanceMeters>NAN</DistanceMeters>
          </Trackpoint>
          <Trackpoint>
            <Time>2021-08-10T17:20:41.000Z</Time>
            <Position>
              <LatitudeDegrees>43.246690593659877777099609375</LatitudeDegrees>
              <LongitudeDegrees>-1.70283199287950992584228515625</LongitudeDegrees>
            </Position>
            <AltitudeMeters>83.1999969482421875</AltitudeMeters>
            <DistanceMeters>NAN</DistanceMeters>
          </Trackpoint>
          <Trackpoint>
            <Time>2021-08-10T17:20:42.000Z</Time>
            <Position>
              <LatitudeDegrees>43.24668665416538715362548828125</LatitudeDegrees>
              <LongitudeDegrees>-1.702856719493865966796875</LongitudeDegrees>
            </Position>
            <AltitudeMeters>83</AltitudeMeters>
            <DistanceMeters>NAN</DistanceMeters>
          </Trackpoint>
          <Trackpoint>
            <Time>2021-08-10T17:20:43.000Z</Time>
            <Position>
              <LatitudeDegrees>43.24668430723249912261962890625</LatitudeDegrees>
              <LongitudeDegrees>-1.70288094319403171539306640625</LongitudeDegrees>
            </Position>
            <AltitudeMeters>83</AltitudeMeters>
            <DistanceMeters>NAN</DistanceMeters>
          </Trackpoint>
          <Trackpoint>
            <Time>2021-08-10T17:20:44.000Z</Time>
            <Position>
              <LatitudeDegrees>43.24668355286121368408203125</LatitudeDegrees>
              <LongitudeDegrees>-1.70290156267583370208740234375</LongitudeDegrees>
            </Position>
            <AltitudeMeters>82.8000030517578125</AltitudeMeters>
            <DistanceMeters>NAN</DistanceMeters>
          </Trackpoint>
          <Trackpoint>
            <Time>2021-08-10T17:20:45.000Z</Time>
            <Position>
              <LatitudeDegrees>43.24668833054602146148681640625</LatitudeDegrees>
              <LongitudeDegrees>-1.7029209248721599578857421875</LongitudeDegrees>
            </Position>
            <AltitudeMeters>82.8000030517578125</AltitudeMeters>
            <DistanceMeters>NAN</DistanceMeters>
          </Trackpoint>
          <Trackpoint>
            <Time>2021-08-10T17:20:46.000Z</Time>
            <Position>
              <LatitudeDegrees>43.2466974668204784393310546875</LatitudeDegrees>
              <LongitudeDegrees>-1.702938191592693328857421875</LongitudeDegrees>
            </Position>
            <AltitudeMeters>82.59999847412109375</AltitudeMeters>
            <DistanceMeters>NAN</DistanceMeters>
          </Trackpoint>
          <Trackpoint>
            <Time>2021-08-10T17:20:47.000Z</Time>
            <Position>
              <LatitudeDegrees>43.2467048428952693939208984375</LatitudeDegrees>
              <LongitudeDegrees>-1.70296006835997104644775390625</LongitudeDegrees>
            </Position>
            <AltitudeMeters>82.59999847412109375</AltitudeMeters>
            <DistanceMeters>NAN</DistanceMeters>
          </Trackpoint>
          <Trackpoint>
            <Time>2021-08-10T17:20:48.000Z</Time>
            <Position>
              <LatitudeDegrees>43.24670962058007717132568359375</LatitudeDegrees>
              <LongitudeDegrees>-1.70298873446881771087646484375</LongitudeDegrees>
            </Position>
            <AltitudeMeters>82.59999847412109375</AltitudeMeters>
            <DistanceMeters>NAN</DistanceMeters>
          </Trackpoint>
          <Trackpoint>
            <Time>2021-08-10T17:20:49.000Z</Time>
            <Position>
              <LatitudeDegrees>43.24671833775937557220458984375</LatitudeDegrees>
              <LongitudeDegrees>-1.70302368700504302978515625</LongitudeDegrees>
            </Position>
            <AltitudeMeters>82.59999847412109375</AltitudeMeters>
            <DistanceMeters>NAN</DistanceMeters>
          </Trackpoint>
          <Trackpoint>
            <Time>2021-08-10T17:20:52.000Z</Time>
            <Position>
              <LatitudeDegrees>43.2467558048665523529052734375</LatitudeDegrees>
              <LongitudeDegrees>-1.703102476894855499267578125</LongitudeDegrees>
            </Position>
            <AltitudeMeters>82.40000152587890625</AltitudeMeters>
            <DistanceMeters>NAN</DistanceMeters>
          </Trackpoint>
          <Trackpoint>
            <Time>2021-08-10T17:20:53.000Z</Time>
            <Position>
              <LatitudeDegrees>43.24676678515970706939697265625</LatitudeDegrees>
              <LongitudeDegrees>-1.70311664231121540069580078125</LongitudeDegrees>
            </Position>
            <AltitudeMeters>82.40000152587890625</AltitudeMeters>
            <DistanceMeters>NAN</DistanceMeters>
          </Trackpoint>
          <Trackpoint>
            <Time>2021-08-10T17:20:54.000Z</Time>
            <Position>
              <LatitudeDegrees>43.2467665337026119232177734375</LatitudeDegrees>
              <LongitudeDegrees>-1.70313223265111446380615234375</LongitudeDegrees>
            </Position>
            <AltitudeMeters>82.40000152587890625</AltitudeMeters>
            <DistanceMeters>NAN</DistanceMeters>
          </Trackpoint>
          <Trackpoint>
            <Time>2021-08-10T17:20:55.000Z</Time>
            <Position>
              <LatitudeDegrees>43.246767036616802215576171875</LatitudeDegrees>
              <LongitudeDegrees>-1.70313826762139797210693359375</LongitudeDegrees>
            </Position>
            <AltitudeMeters>82.40000152587890625</AltitudeMeters>
            <DistanceMeters>NAN</DistanceMeters>
          </Trackpoint>
          <Trackpoint>
            <Time>2021-08-10T17:20:57.000Z</Time>
            <Position>
              <LatitudeDegrees>43.2467729039490222930908203125</LatitudeDegrees>
              <LongitudeDegrees>-1.703146062791347503662109375</LongitudeDegrees>
            </Position>
            <AltitudeMeters>82.40000152587890625</AltitudeMeters>
            <DistanceMeters>NAN</DistanceMeters>
          </Trackpoint>
          <Trackpoint>
            <Time>2021-08-10T17:21:00.000Z</Time>
            <Position>
              <LatitudeDegrees>43.24676594696938991546630859375</LatitudeDegrees>
              <LongitudeDegrees>-1.70314866118133068084716796875</LongitudeDegrees>
            </Position>
            <AltitudeMeters>82.40000152587890625</AltitudeMeters>
            <DistanceMeters>NAN</DistanceMeters>
          </Trackpoint>
          <Trackpoint>
            <Time>2021-08-10T17:21:06.000Z</Time>
            <Position>
              <LatitudeDegrees>43.24679863639175891876220703125</LatitudeDegrees>
              <LongitudeDegrees>-1.70314648188650608062744140625</LongitudeDegrees>
            </Position>
            <AltitudeMeters>82.1999969482421875</AltitudeMeters>
            <DistanceMeters>NAN</DistanceMeters>
          </Trackpoint>
          <Trackpoint>
            <Time>2021-08-10T17:21:13.000Z</Time>
            <Position>
              <LatitudeDegrees>43.24680869467556476593017578125</LatitudeDegrees>
              <LongitudeDegrees>-1.70313625596463680267333984375</LongitudeDegrees>
            </Position>
            <AltitudeMeters>82.40000152587890625</AltitudeMeters>
            <DistanceMeters>NAN</DistanceMeters>
          </Trackpoint>
          <Trackpoint>
            <Time>2021-08-10T17:21:40.000Z</Time>
            <Position>
              <LatitudeDegrees>43.24681892059743404388427734375</LatitudeDegrees>
              <LongitudeDegrees>-1.70314664952456951141357421875</LongitudeDegrees>
            </Position>
            <AltitudeMeters>82</AltitudeMeters>
            <DistanceMeters>NAN</DistanceMeters>
          </Trackpoint>
          <Trackpoint>
            <Time>2021-08-10T17:22:12.000Z</Time>
            <Position>
              <LatitudeDegrees>43.24681372381746768951416015625</LatitudeDegrees>
              <LongitudeDegrees>-1.7031301371753215789794921875</LongitudeDegrees>
            </Position>
            <AltitudeMeters>82</AltitudeMeters>
            <DistanceMeters>NAN</DistanceMeters>
          </Trackpoint>
          <Trackpoint>
            <Time>2021-08-10T17:22:13.000Z</Time>
            <Position>
              <LatitudeDegrees>43.24682529084384441375732421875</LatitudeDegrees>
              <LongitudeDegrees>-1.70312670059502124786376953125</LongitudeDegrees>
            </Position>
            <AltitudeMeters>82</AltitudeMeters>
            <DistanceMeters>NAN</DistanceMeters>
          </Trackpoint>
          <Trackpoint>
            <Time>2021-08-10T17:22:14.000Z</Time>
            <Position>
              <LatitudeDegrees>43.24683870188891887664794921875</LatitudeDegrees>
              <LongitudeDegrees>-1.7031311430037021636962890625</LongitudeDegrees>
            </Position>
            <AltitudeMeters>82</AltitudeMeters>
            <DistanceMeters>NAN</DistanceMeters>
          </Trackpoint>
          <Trackpoint>
            <Time>2021-08-10T17:22:15.000Z</Time>
            <Position>
              <LatitudeDegrees>43.24685043655335903167724609375</LatitudeDegrees>
              <LongitudeDegrees>-1.7031341604888439178466796875</LongitudeDegrees>
            </Position>
            <AltitudeMeters>82</AltitudeMeters>
            <DistanceMeters>NAN</DistanceMeters>
          </Trackpoint>
          <Trackpoint>
            <Time>2021-08-10T17:22:16.000Z</Time>
            <Position>
              <LatitudeDegrees>43.24686485342681407928466796875</LatitudeDegrees>
              <LongitudeDegrees>-1.7031371779739856719970703125</LongitudeDegrees>
            </Position>
            <AltitudeMeters>82</AltitudeMeters>
            <DistanceMeters>NAN</DistanceMeters>
          </Trackpoint>
          <Trackpoint>
            <Time>2021-08-10T17:22:17.000Z</Time>
            <Position>
              <LatitudeDegrees>43.24687910266220569610595703125</LatitudeDegrees>
              <LongitudeDegrees>-1.70313298702239990234375</LongitudeDegrees>
            </Position>
            <AltitudeMeters>82</AltitudeMeters>
            <DistanceMeters>NAN</DistanceMeters>
          </Trackpoint>
          <Trackpoint>
            <Time>2021-08-10T17:22:19.000Z</Time>
            <Position>
              <LatitudeDegrees>43.2468986324965953826904296875</LatitudeDegrees>
              <LongitudeDegrees>-1.70313457958400249481201171875</LongitudeDegrees>
            </Position>
            <AltitudeMeters>82</AltitudeMeters>
            <DistanceMeters>NAN</DistanceMeters>
          </Trackpoint>
          <Trackpoint>
            <Time>2021-08-10T17:22:20.000Z</Time>
            <Position>
              <LatitudeDegrees>43.24690039269626140594482421875</LatitudeDegrees>
              <LongitudeDegrees>-1.70313633978366851806640625</LongitudeDegrees>
            </Position>
            <AltitudeMeters>82</AltitudeMeters>
            <DistanceMeters>NAN</DistanceMeters>
          </Trackpoint>
          <Trackpoint>
            <Time>2021-08-10T17:22:25.000Z</Time>
            <Position>
              <LatitudeDegrees>43.2469056732952594757080078125</LatitudeDegrees>
              <LongitudeDegrees>-1.703137345612049102783203125</LongitudeDegrees>
            </Position>
            <AltitudeMeters>82</AltitudeMeters>
            <DistanceMeters>NAN</DistanceMeters>
          </Trackpoint>
          <Trackpoint>
            <Time>2021-08-10T17:22:56.000Z</Time>
            <Position>
              <LatitudeDegrees>43.24692419730126857757568359375</LatitudeDegrees>
              <LongitudeDegrees>-1.703153438866138458251953125</LongitudeDegrees>
            </Position>
            <AltitudeMeters>82</AltitudeMeters>
            <DistanceMeters>NAN</DistanceMeters>
          </Trackpoint>
          <Trackpoint>
            <Time>2021-08-10T17:22:58.000Z</Time>
            <Position>
              <LatitudeDegrees>43.24695353396236896514892578125</LatitudeDegrees>
              <LongitudeDegrees>-1.70315804891288280487060546875</LongitudeDegrees>
            </Position>
            <AltitudeMeters>82</AltitudeMeters>
            <DistanceMeters>NAN</DistanceMeters>
          </Trackpoint>
          <Trackpoint>
            <Time>2021-08-10T17:23:01.000Z</Time>
            <Position>
              <LatitudeDegrees>43.246997036039829254150390625</LatitudeDegrees>
              <LongitudeDegrees>-1.70317523181438446044921875</LongitudeDegrees>
            </Position>
            <AltitudeMeters>82</AltitudeMeters>
            <DistanceMeters>NAN</DistanceMeters>
          </Trackpoint>
          <Trackpoint>
            <Time>2021-08-10T17:23:02.000Z</Time>
            <Position>
              <LatitudeDegrees>43.24701220728456974029541015625</LatitudeDegrees>
              <LongitudeDegrees>-1.70317498035728931427001953125</LongitudeDegrees>
            </Position>
            <AltitudeMeters>82</AltitudeMeters>
            <DistanceMeters>NAN</DistanceMeters>
          </Trackpoint>
          <Trackpoint>
            <Time>2021-08-10T17:23:05.000Z</Time>
            <Position>
              <LatitudeDegrees>43.247054703533649444580078125</LatitudeDegrees>
              <LongitudeDegrees>-1.7031888104975223541259765625</LongitudeDegrees>
            </Position>
            <AltitudeMeters>81.8000030517578125</AltitudeMeters>
            <DistanceMeters>NAN</DistanceMeters>
          </Trackpoint>
          <Trackpoint>
            <Time>2021-08-10T17:23:06.000Z</Time>
            <Position>
              <LatitudeDegrees>43.247064761817455291748046875</LatitudeDegrees>
              <LongitudeDegrees>-1.7031933367252349853515625</LongitudeDegrees>
            </Position>
            <AltitudeMeters>81.8000030517578125</AltitudeMeters>
            <DistanceMeters>NAN</DistanceMeters>
          </Trackpoint>
          <Trackpoint>
            <Time>2021-08-10T17:23:07.000Z</Time>
            <Position>
              <LatitudeDegrees>43.2470758259296417236328125</LatitudeDegrees>
              <LongitudeDegrees>-1.7031951807439327239990234375</LongitudeDegrees>
            </Position>
            <AltitudeMeters>81.8000030517578125</AltitudeMeters>
            <DistanceMeters>NAN</DistanceMeters>
          </Trackpoint>
          <Trackpoint>
            <Time>2021-08-10T17:23:09.000Z</Time>
            <Position>
              <LatitudeDegrees>43.24708848260343074798583984375</LatitudeDegrees>
              <LongitudeDegrees>-1.7031978629529476165771484375</LongitudeDegrees>
            </Position>
            <AltitudeMeters>81.8000030517578125</AltitudeMeters>
            <DistanceMeters>NAN</DistanceMeters>
          </Trackpoint>
          <Trackpoint>
            <Time>2021-08-10T17:23:10.000Z</Time>
            <Position>
              <LatitudeDegrees>43.24710038490593433380126953125</LatitudeDegrees>
              <LongitudeDegrees>-1.703193001449108123779296875</LongitudeDegrees>
            </Position>
            <AltitudeMeters>81.8000030517578125</AltitudeMeters>
            <DistanceMeters>NAN</DistanceMeters>
          </Trackpoint>
          <Trackpoint>
            <Time>2021-08-10T17:23:12.000Z</Time>
            <Position>
              <LatitudeDegrees>43.24712418951094150543212890625</LatitudeDegrees>
              <LongitudeDegrees>-1.70319610275328159332275390625</LongitudeDegrees>
            </Position>
            <AltitudeMeters>81.8000030517578125</AltitudeMeters>
            <DistanceMeters>NAN</DistanceMeters>
          </Trackpoint>
          <Trackpoint>
            <Time>2021-08-10T17:23:15.000Z</Time>
            <Position>
              <LatitudeDegrees>43.2471549510955810546875</LatitudeDegrees>
              <LongitudeDegrees>-1.70318302698433399200439453125</LongitudeDegrees>
            </Position>
            <AltitudeMeters>81.8000030517578125</AltitudeMeters>
            <DistanceMeters>NAN</DistanceMeters>
          </Trackpoint>
          <Trackpoint>
            <Time>2021-08-10T17:23:24.000Z</Time>
            <Position>
              <LatitudeDegrees>43.2472315616905689239501953125</LatitudeDegrees>
              <LongitudeDegrees>-1.7031696997582912445068359375</LongitudeDegrees>
            </Position>
            <AltitudeMeters>82.1999969482421875</AltitudeMeters>
            <DistanceMeters>NAN</DistanceMeters>
          </Trackpoint>
          <Trackpoint>
            <Time>2021-08-10T17:23:28.000Z</Time>
            <Position>
              <LatitudeDegrees>43.24722913093864917755126953125</LatitudeDegrees>
              <LongitudeDegrees>-1.703113205730915069580078125</LongitudeDegrees>
            </Position>
            <AltitudeMeters>82.1999969482421875</AltitudeMeters>
            <DistanceMeters>NAN</DistanceMeters>
          </Trackpoint>
          <Trackpoint>
            <Time>2021-08-10T17:23:29.000Z</Time>
            <Position>
              <LatitudeDegrees>43.24722879566252231597900390625</LatitudeDegrees>
              <LongitudeDegrees>-1.703085042536258697509765625</LongitudeDegrees>
            </Position>
            <AltitudeMeters>82.1999969482421875</AltitudeMeters>
            <DistanceMeters>NAN</DistanceMeters>
          </Trackpoint>
          <Trackpoint>
            <Time>2021-08-10T17:23:34.000Z</Time>
            <Position>
              <LatitudeDegrees>43.2471950165927410125732421875</LatitudeDegrees>
              <LongitudeDegrees>-1.7029071785509586334228515625</LongitudeDegrees>
            </Position>
            <AltitudeMeters>82.1999969482421875</AltitudeMeters>
            <DistanceMeters>NAN</DistanceMeters>
          </Trackpoint>
          <Trackpoint>
            <Time>2021-08-10T17:23:35.000Z</Time>
            <Position>
              <LatitudeDegrees>43.2471829466521739959716796875</LatitudeDegrees>
              <LongitudeDegrees>-1.7028659395873546600341796875</LongitudeDegrees>
            </Position>
            <AltitudeMeters>82.1999969482421875</AltitudeMeters>
            <DistanceMeters>NAN</DistanceMeters>
          </Trackpoint>
          <Trackpoint>
            <Time>2021-08-10T17:23:39.000Z</Time>
            <Position>
              <LatitudeDegrees>43.2471430487930774688720703125</LatitudeDegrees>
              <LongitudeDegrees>-1.7026922665536403656005859375</LongitudeDegrees>
            </Position>
            <AltitudeMeters>82</AltitudeMeters>
            <DistanceMeters>NAN</DistanceMeters>
          </Trackpoint>
          <Trackpoint>
            <Time>2021-08-10T17:23:44.000Z</Time>
            <Position>
              <LatitudeDegrees>43.247103989124298095703125</LatitudeDegrees>
              <LongitudeDegrees>-1.70246134512126445770263671875</LongitudeDegrees>
            </Position>
            <AltitudeMeters>81.8000030517578125</AltitudeMeters>
            <DistanceMeters>NAN</DistanceMeters>
          </Trackpoint>
          <Trackpoint>
            <Time>2021-08-10T17:23:47.000Z</Time>
            <Position>
              <LatitudeDegrees>43.2470967806875705718994140625</LatitudeDegrees>
              <LongitudeDegrees>-1.70231868512928485870361328125</LongitudeDegrees>
            </Position>
            <AltitudeMeters>81.40000152587890625</AltitudeMeters>
            <DistanceMeters>NAN</DistanceMeters>
          </Trackpoint>
          <Trackpoint>
            <Time>2021-08-10T17:23:49.000Z</Time>
            <Position>
              <LatitudeDegrees>43.24709217064082622528076171875</LatitudeDegrees>
              <LongitudeDegrees>-1.7022181861102581024169921875</LongitudeDegrees>
            </Position>
            <AltitudeMeters>81.1999969482421875</AltitudeMeters>
            <DistanceMeters>NAN</DistanceMeters>
          </Trackpoint>
          <Trackpoint>
            <Time>2021-08-10T17:23:55.000Z</Time>
            <Position>
              <LatitudeDegrees>43.2471122033894062042236328125</LatitudeDegrees>
              <LongitudeDegrees>-1.701910234987735748291015625</LongitudeDegrees>
            </Position>
            <AltitudeMeters>81</AltitudeMeters>
            <DistanceMeters>NAN</DistanceMeters>
          </Trackpoint>
          <Trackpoint>
            <Time>2021-08-10T17:24:00.000Z</Time>
            <Position>
              <LatitudeDegrees>43.2471095211803913116455078125</LatitudeDegrees>
              <LongitudeDegrees>-1.70167386531829833984375</LongitudeDegrees>
            </Position>
            <AltitudeMeters>80.8000030517578125</AltitudeMeters>
            <DistanceMeters>NAN</DistanceMeters>
          </Trackpoint>
          <Trackpoint>
            <Time>2021-08-10T17:24:01.000Z</Time>
            <Position>
              <LatitudeDegrees>43.24711899273097515106201171875</LatitudeDegrees>
              <LongitudeDegrees>-1.7016331292688846588134765625</LongitudeDegrees>
            </Position>
            <AltitudeMeters>80.8000030517578125</AltitudeMeters>
            <DistanceMeters>NAN</DistanceMeters>
          </Trackpoint>
          <Trackpoint>
            <Time>2021-08-10T17:24:02.000Z</Time>
            <Position>
              <LatitudeDegrees>43.2471366785466670989990234375</LatitudeDegrees>
              <LongitudeDegrees>-1.70159733854234218597412109375</LongitudeDegrees>
            </Position>
            <AltitudeMeters>80.8000030517578125</AltitudeMeters>
            <DistanceMeters>NAN</DistanceMeters>
          </Trackpoint>
          <Trackpoint>
            <Time>2021-08-10T17:24:03.000Z</Time>
            <Position>
              <LatitudeDegrees>43.2471564598381519317626953125</LatitudeDegrees>
              <LongitudeDegrees>-1.7015617154538631439208984375</LongitudeDegrees>
            </Position>
            <AltitudeMeters>80.59999847412109375</AltitudeMeters>
            <DistanceMeters>NAN</DistanceMeters>
          </Trackpoint>
          <Trackpoint>
            <Time>2021-08-10T17:24:04.000Z</Time>
            <Position>
              <LatitudeDegrees>43.247175402939319610595703125</LatitudeDegrees>
              <LongitudeDegrees>-1.7015204764902591705322265625</LongitudeDegrees>
            </Position>
            <AltitudeMeters>80.59999847412109375</AltitudeMeters>
            <DistanceMeters>NAN</DistanceMeters>
          </Trackpoint>
          <Trackpoint>
            <Time>2021-08-10T17:24:05.000Z</Time>
            <Position>
              <LatitudeDegrees>43.24719023890793323516845703125</LatitudeDegrees>
              <LongitudeDegrees>-1.70147714205086231231689453125</LongitudeDegrees>
            </Position>
            <AltitudeMeters>80.59999847412109375</AltitudeMeters>
            <DistanceMeters>NAN</DistanceMeters>
          </Trackpoint>
          <Trackpoint>
            <Time>2021-08-10T17:24:06.000Z</Time>
            <Position>
              <LatitudeDegrees>43.24720867909491062164306640625</LatitudeDegrees>
              <LongitudeDegrees>-1.70143447816371917724609375</LongitudeDegrees>
            </Position>
            <AltitudeMeters>80.59999847412109375</AltitudeMeters>
            <DistanceMeters>NAN</DistanceMeters>
          </Trackpoint>
          <Trackpoint>
            <Time>2021-08-10T17:24:07.000Z</Time>
            <Position>
              <LatitudeDegrees>43.24723248369991779327392578125</LatitudeDegrees>
              <LongitudeDegrees>-1.70139131136238574981689453125</LongitudeDegrees>
            </Position>
            <AltitudeMeters>80.59999847412109375</AltitudeMeters>
            <DistanceMeters>NAN</DistanceMeters>
          </Trackpoint>
          <Trackpoint>
            <Time>2021-08-10T17:24:11.000Z</Time>
            <Position>
              <LatitudeDegrees>43.24732988141477108001708984375</LatitudeDegrees>
              <LongitudeDegrees>-1.70122920535504817962646484375</LongitudeDegrees>
            </Position>
            <AltitudeMeters>80.40000152587890625</AltitudeMeters>
            <DistanceMeters>NAN</DistanceMeters>
          </Trackpoint>
          <Trackpoint>
            <Time>2021-08-10T17:24:12.000Z</Time>
            <Position>
              <LatitudeDegrees>43.2473512552678585052490234375</LatitudeDegrees>
              <LongitudeDegrees>-1.70119316317141056060791015625</LongitudeDegrees>
            </Position>
            <AltitudeMeters>80.40000152587890625</AltitudeMeters>
            <DistanceMeters>NAN</DistanceMeters>
          </Trackpoint>
          <Trackpoint>
            <Time>2021-08-10T17:24:15.000Z</Time>
            <Position>
              <LatitudeDegrees>43.24741973541676998138427734375</LatitudeDegrees>
              <LongitudeDegrees>-1.7010608129203319549560546875</LongitudeDegrees>
            </Position>
            <AltitudeMeters>80.1999969482421875</AltitudeMeters>
            <DistanceMeters>NAN</DistanceMeters>
          </Trackpoint>
          <Trackpoint>
            <Time>2021-08-10T17:24:19.000Z</Time>
            <Position>
              <LatitudeDegrees>43.2474853657186031341552734375</LatitudeDegrees>
              <LongitudeDegrees>-1.7008512653410434722900390625</LongitudeDegrees>
            </Position>
            <AltitudeMeters>80</AltitudeMeters>
            <DistanceMeters>NAN</DistanceMeters>
          </Trackpoint>
          <Trackpoint>
            <Time>2021-08-10T17:24:20.000Z</Time>
            <Position>
              <LatitudeDegrees>43.24750238098204135894775390625</LatitudeDegrees>
              <LongitudeDegrees>-1.7008023150265216827392578125</LongitudeDegrees>
            </Position>
            <AltitudeMeters>80</AltitudeMeters>
            <DistanceMeters>NAN</DistanceMeters>
          </Trackpoint>
          <Trackpoint>
            <Time>2021-08-10T17:24:23.000Z</Time>
            <Position>
              <LatitudeDegrees>43.24755527079105377197265625</LatitudeDegrees>
              <LongitudeDegrees>-1.70066895894706249237060546875</LongitudeDegrees>
            </Position>
            <AltitudeMeters>80</AltitudeMeters>
            <DistanceMeters>NAN</DistanceMeters>
          </Trackpoint>
          <Trackpoint>
            <Time>2021-08-10T17:24:28.000Z</Time>
            <Position>
              <LatitudeDegrees>43.24763397686183452606201171875</LatitudeDegrees>
              <LongitudeDegrees>-1.7004573158919811248779296875</LongitudeDegrees>
            </Position>
            <AltitudeMeters>79.8000030517578125</AltitudeMeters>
            <DistanceMeters>NAN</DistanceMeters>
          </Trackpoint>
          <Trackpoint>
            <Time>2021-08-10T17:24:29.000Z</Time>
            <Position>
              <LatitudeDegrees>43.24764906428754329681396484375</LatitudeDegrees>
              <LongitudeDegrees>-1.7004172503948211669921875</LongitudeDegrees>
            </Position>
            <AltitudeMeters>79.8000030517578125</AltitudeMeters>
            <DistanceMeters>NAN</DistanceMeters>
          </Trackpoint>
          <Trackpoint>
            <Time>2021-08-10T17:24:30.000Z</Time>
            <Position>
              <LatitudeDegrees>43.247665576636791229248046875</LatitudeDegrees>
              <LongitudeDegrees>-1.70038028620183467864990234375</LongitudeDegrees>
            </Position>
            <AltitudeMeters>79.8000030517578125</AltitudeMeters>
            <DistanceMeters>NAN</DistanceMeters>
          </Trackpoint>
          <Trackpoint>
            <Time>2021-08-10T17:24:31.000Z</Time>
            <Position>
              <LatitudeDegrees>43.24768292717635631561279296875</LatitudeDegrees>
              <LongitudeDegrees>-1.7003433220088481903076171875</LongitudeDegrees>
            </Position>
            <AltitudeMeters>79.8000030517578125</AltitudeMeters>
            <DistanceMeters>NAN</DistanceMeters>
          </Trackpoint>
          <Trackpoint>
            <Time>2021-08-10T17:24:32.000Z</Time>
            <Position>
              <LatitudeDegrees>43.24769751168787479400634765625</LatitudeDegrees>
              <LongitudeDegrees>-1.70030526816844940185546875</LongitudeDegrees>
            </Position>
            <AltitudeMeters>79.8000030517578125</AltitudeMeters>
            <DistanceMeters>NAN</DistanceMeters>
          </Trackpoint>
          <Trackpoint>
            <Time>2021-08-10T17:24:33.000Z</Time>
            <Position>
              <LatitudeDegrees>43.24771125800907611846923828125</LatitudeDegrees>
              <LongitudeDegrees>-1.70026361010968685150146484375</LongitudeDegrees>
            </Position>
            <AltitudeMeters>79.8000030517578125</AltitudeMeters>
            <DistanceMeters>NAN</DistanceMeters>
          </Trackpoint>
          <Trackpoint>
            <Time>2021-08-10T17:24:34.000Z</Time>
            <Position>
              <LatitudeDegrees>43.24772818945348262786865234375</LatitudeDegrees>
              <LongitudeDegrees>-1.70021985657513141632080078125</LongitudeDegrees>
            </Position>
            <AltitudeMeters>79.8000030517578125</AltitudeMeters>
            <DistanceMeters>NAN</DistanceMeters>
          </Trackpoint>
          <Trackpoint>
            <Time>2021-08-10T17:24:35.000Z</Time>
            <Position>
              <LatitudeDegrees>43.2477468810975551605224609375</LatitudeDegrees>
              <LongitudeDegrees>-1.7001730017364025115966796875</LongitudeDegrees>
            </Position>
            <AltitudeMeters>79.8000030517578125</AltitudeMeters>
            <DistanceMeters>NAN</DistanceMeters>
          </Trackpoint>
          <Trackpoint>
            <Time>2021-08-10T17:24:36.000Z</Time>
            <Position>
              <LatitudeDegrees>43.24775836430490016937255859375</LatitudeDegrees>
              <LongitudeDegrees>-1.7001263983547687530517578125</LongitudeDegrees>
            </Position>
            <AltitudeMeters>79.8000030517578125</AltitudeMeters>
            <DistanceMeters>NAN</DistanceMeters>
          </Trackpoint>
          <Trackpoint>
            <Time>2021-08-10T17:24:37.000Z</Time>
            <Position>
              <LatitudeDegrees>43.24777797795832157135009765625</LatitudeDegrees>
              <LongitudeDegrees>-1.70008222572505474090576171875</LongitudeDegrees>
            </Position>
            <AltitudeMeters>79.8000030517578125</AltitudeMeters>
            <DistanceMeters>NAN</DistanceMeters>
          </Trackpoint>
          <Trackpoint>
            <Time>2021-08-10T17:24:44.000Z</Time>
            <Position>
              <LatitudeDegrees>43.2478866912424564361572265625</LatitudeDegrees>
              <LongitudeDegrees>-1.69979740865528583526611328125</LongitudeDegrees>
            </Position>
            <AltitudeMeters>79.8000030517578125</AltitudeMeters>
            <DistanceMeters>NAN</DistanceMeters>
          </Trackpoint>
          <Trackpoint>
            <Time>2021-08-10T17:24:45.000Z</Time>
            <Position>
              <LatitudeDegrees>43.24790303595364093780517578125</LatitudeDegrees>
              <LongitudeDegrees>-1.6997601091861724853515625</LongitudeDegrees>
            </Position>
            <AltitudeMeters>79.8000030517578125</AltitudeMeters>
            <DistanceMeters>NAN</DistanceMeters>
          </Trackpoint>
          <Trackpoint>
            <Time>2021-08-10T17:24:46.000Z</Time>
            <Position>
              <LatitudeDegrees>43.2479195483028888702392578125</LatitudeDegrees>
              <LongitudeDegrees>-1.69972599484026432037353515625</LongitudeDegrees>
            </Position>
            <AltitudeMeters>79.8000030517578125</AltitudeMeters>
            <DistanceMeters>NAN</DistanceMeters>
          </Trackpoint>
          <Trackpoint>
            <Time>2021-08-10T17:24:47.000Z</Time>
            <Position>
              <LatitudeDegrees>43.24793522246181964874267578125</LatitudeDegrees>
              <LongitudeDegrees>-1.69968961738049983978271484375</LongitudeDegrees>
            </Position>
            <AltitudeMeters>79.8000030517578125</AltitudeMeters>
            <DistanceMeters>NAN</DistanceMeters>
          </Trackpoint>
          <Trackpoint>
            <Time>2021-08-10T17:24:48.000Z</Time>
            <Position>
              <LatitudeDegrees>43.24795064516365528106689453125</LatitudeDegrees>
              <LongitudeDegrees>-1.69965080916881561279296875</LongitudeDegrees>
            </Position>
            <AltitudeMeters>79.8000030517578125</AltitudeMeters>
            <DistanceMeters>NAN</DistanceMeters>
          </Trackpoint>
          <Trackpoint>
            <Time>2021-08-10T17:24:49.000Z</Time>
            <Position>
              <LatitudeDegrees>43.24796640314161777496337890625</LatitudeDegrees>
              <LongitudeDegrees>-1.69960848055779933929443359375</LongitudeDegrees>
            </Position>
            <AltitudeMeters>79.8000030517578125</AltitudeMeters>
            <DistanceMeters>NAN</DistanceMeters>
          </Trackpoint>
          <Trackpoint>
            <Time>2021-08-10T17:24:50.000Z</Time>
            <Position>
              <LatitudeDegrees>43.24798182584345340728759765625</LatitudeDegrees>
              <LongitudeDegrees>-1.69956238009035587310791015625</LongitudeDegrees>
            </Position>
            <AltitudeMeters>79.8000030517578125</AltitudeMeters>
            <DistanceMeters>NAN</DistanceMeters>
          </Trackpoint>
          <Trackpoint>
            <Time>2021-08-10T17:24:53.000Z</Time>
            <Position>
              <LatitudeDegrees>43.2480362243950366973876953125</LatitudeDegrees>
              <LongitudeDegrees>-1.69941611588001251220703125</LongitudeDegrees>
            </Position>
            <AltitudeMeters>79.8000030517578125</AltitudeMeters>
            <DistanceMeters>NAN</DistanceMeters>
          </Trackpoint>
          <Trackpoint>
            <Time>2021-08-10T17:24:55.000Z</Time>
            <Position>
              <LatitudeDegrees>43.24807369150221347808837890625</LatitudeDegrees>
              <LongitudeDegrees>-1.69931310229003429412841796875</LongitudeDegrees>
            </Position>
            <AltitudeMeters>79.8000030517578125</AltitudeMeters>
            <DistanceMeters>NAN</DistanceMeters>
          </Trackpoint>
          <Trackpoint>
            <Time>2021-08-10T17:25:01.000Z</Time>
            <Position>
              <LatitudeDegrees>43.24819657020270824432373046875</LatitudeDegrees>
              <LongitudeDegrees>-1.69899844564497470855712890625</LongitudeDegrees>
            </Position>
            <AltitudeMeters>79.59999847412109375</AltitudeMeters>
            <DistanceMeters>NAN</DistanceMeters>
          </Trackpoint>
          <Trackpoint>
            <Time>2021-08-10T17:25:07.000Z</Time>
            <Position>
              <LatitudeDegrees>43.24833805672824382781982421875</LatitudeDegrees>
              <LongitudeDegrees>-1.69863517396152019500732421875</LongitudeDegrees>
            </Position>
            <AltitudeMeters>79.40000152587890625</AltitudeMeters>
            <DistanceMeters>NAN</DistanceMeters>
          </Trackpoint>
          <Trackpoint>
            <Time>2021-08-10T17:25:14.000Z</Time>
            <Position>
              <LatitudeDegrees>43.248509131371974945068359375</LatitudeDegrees>
              <LongitudeDegrees>-1.6981868259608745574951171875</LongitudeDegrees>
            </Position>
            <AltitudeMeters>79.40000152587890625</AltitudeMeters>
            <DistanceMeters>NAN</DistanceMeters>
          </Trackpoint>
          <Trackpoint>
            <Time>2021-08-10T17:25:18.000Z</Time>
            <Position>
              <LatitudeDegrees>43.2486071996390819549560546875</LatitudeDegrees>
              <LongitudeDegrees>-1.69793494977056980133056640625</LongitudeDegrees>
            </Position>
            <AltitudeMeters>79.1999969482421875</AltitudeMeters>
            <DistanceMeters>NAN</DistanceMeters>
          </Trackpoint>
          <Trackpoint>
            <Time>2021-08-10T17:25:29.000Z</Time>
            <Position>
              <LatitudeDegrees>43.248874247074127197265625</LatitudeDegrees>
              <LongitudeDegrees>-1.69722768478095531463623046875</LongitudeDegrees>
            </Position>
            <AltitudeMeters>79.40000152587890625</AltitudeMeters>
            <DistanceMeters>NAN</DistanceMeters>
          </Trackpoint>
          <Trackpoint>
            <Time>2021-08-10T17:25:30.000Z</Time>
            <Position>
              <LatitudeDegrees>43.24889763258397579193115234375</LatitudeDegrees>
              <LongitudeDegrees>-1.69716850854456424713134765625</LongitudeDegrees>
            </Position>
            <AltitudeMeters>79.59999847412109375</AltitudeMeters>
            <DistanceMeters>NAN</DistanceMeters>
          </Trackpoint>
          <Trackpoint>
            <Time>2021-08-10T17:25:31.000Z</Time>
            <Position>
              <LatitudeDegrees>43.24892294593155384063720703125</LatitudeDegrees>
              <LongitudeDegrees>-1.69711017049849033355712890625</LongitudeDegrees>
            </Position>
            <AltitudeMeters>79.59999847412109375</AltitudeMeters>
            <DistanceMeters>NAN</DistanceMeters>
          </Trackpoint>
          <Trackpoint>
            <Time>2021-08-10T17:25:32.000Z</Time>
            <Position>
              <LatitudeDegrees>43.24894976802170276641845703125</LatitudeDegrees>
              <LongitudeDegrees>-1.6970535926520824432373046875</LongitudeDegrees>
            </Position>
            <AltitudeMeters>79.59999847412109375</AltitudeMeters>
            <DistanceMeters>NAN</DistanceMeters>
          </Trackpoint>
          <Trackpoint>
            <Time>2021-08-10T17:25:33.000Z</Time>
            <Position>
              <LatitudeDegrees>43.2489766739308834075927734375</LatitudeDegrees>
              <LongitudeDegrees>-1.69699667952954769134521484375</LongitudeDegrees>
            </Position>
            <AltitudeMeters>79.8000030517578125</AltitudeMeters>
            <DistanceMeters>NAN</DistanceMeters>
          </Trackpoint>
          <Trackpoint>
            <Time>2021-08-10T17:25:34.000Z</Time>
            <Position>
              <LatitudeDegrees>43.24900575913488864898681640625</LatitudeDegrees>
              <LongitudeDegrees>-1.696941442787647247314453125</LongitudeDegrees>
            </Position>
            <AltitudeMeters>80</AltitudeMeters>
            <DistanceMeters>NAN</DistanceMeters>
          </Trackpoint>
          <Trackpoint>
            <Time>2021-08-10T17:25:35.000Z</Time>
            <Position>
              <LatitudeDegrees>43.2490366883575916290283203125</LatitudeDegrees>
              <LongitudeDegrees>-1.6968876309692859649658203125</LongitudeDegrees>
            </Position>
            <AltitudeMeters>80</AltitudeMeters>
            <DistanceMeters>NAN</DistanceMeters>
          </Trackpoint>
          <Trackpoint>
            <Time>2021-08-10T17:25:36.000Z</Time>
            <Position>
              <LatitudeDegrees>43.249069713056087493896484375</LatitudeDegrees>
              <LongitudeDegrees>-1.6968363337218761444091796875</LongitudeDegrees>
            </Position>
            <AltitudeMeters>80.1999969482421875</AltitudeMeters>
            <DistanceMeters>NAN</DistanceMeters>
          </Trackpoint>
          <Trackpoint>
            <Time>2021-08-10T17:25:37.000Z</Time>
            <Position>
              <LatitudeDegrees>43.24910399504005908966064453125</LatitudeDegrees>
              <LongitudeDegrees>-1.6967863775789737701416015625</LongitudeDegrees>
            </Position>
            <AltitudeMeters>80.1999969482421875</AltitudeMeters>
            <DistanceMeters>NAN</DistanceMeters>
          </Trackpoint>
          <Trackpoint>
            <Time>2021-08-10T17:25:41.000Z</Time>
            <Position>
              <LatitudeDegrees>43.2492442242801189422607421875</LatitudeDegrees>
              <LongitudeDegrees>-1.6965768299996852874755859375</LongitudeDegrees>
            </Position>
            <AltitudeMeters>80.40000152587890625</AltitudeMeters>
            <DistanceMeters>NAN</DistanceMeters>
          </Trackpoint>
          <Trackpoint>
            <Time>2021-08-10T17:25:43.000Z</Time>
            <Position>
              <LatitudeDegrees>43.249318487942218780517578125</LatitudeDegrees>
              <LongitudeDegrees>-1.69647214002907276153564453125</LongitudeDegrees>
            </Position>
            <AltitudeMeters>80.40000152587890625</AltitudeMeters>
            <DistanceMeters>NAN</DistanceMeters>
          </Trackpoint>
          <Trackpoint>
            <Time>2021-08-10T17:25:51.000Z</Time>
            <Position>
              <LatitudeDegrees>43.2496059872210025787353515625</LatitudeDegrees>
              <LongitudeDegrees>-1.69605053029954433441162109375</LongitudeDegrees>
            </Position>
            <AltitudeMeters>80.59999847412109375</AltitudeMeters>
            <DistanceMeters>NAN</DistanceMeters>
          </Trackpoint>
          <Trackpoint>
            <Time>2021-08-10T17:26:01.000Z</Time>
            <Position>
              <LatitudeDegrees>43.25000287033617496490478515625</LatitudeDegrees>
              <LongitudeDegrees>-1.69554258696734905242919921875</LongitudeDegrees>
            </Position>
            <AltitudeMeters>81.1999969482421875</AltitudeMeters>
            <DistanceMeters>NAN</DistanceMeters>
          </Trackpoint>
          <Trackpoint>
            <Time>2021-08-10T17:26:02.000Z</Time>
            <Position>
              <LatitudeDegrees>43.25004880316555500030517578125</LatitudeDegrees>
              <LongitudeDegrees>-1.69549095444381237030029296875</LongitudeDegrees>
            </Position>
            <AltitudeMeters>81.1999969482421875</AltitudeMeters>
            <DistanceMeters>NAN</DistanceMeters>
          </Trackpoint>
          <Trackpoint>
            <Time>2021-08-10T17:26:11.000Z</Time>
            <Position>
              <LatitudeDegrees>43.25042531825602054595947265625</LatitudeDegrees>
              <LongitudeDegrees>-1.69506599195301532745361328125</LongitudeDegrees>
            </Position>
            <AltitudeMeters>80.8000030517578125</AltitudeMeters>
            <DistanceMeters>NAN</DistanceMeters>
          </Trackpoint>
          <Trackpoint>
            <Time>2021-08-10T17:26:12.000Z</Time>
            <Position>
              <LatitudeDegrees>43.2504646293818950653076171875</LatitudeDegrees>
              <LongitudeDegrees>-1.6950166225433349609375</LongitudeDegrees>
            </Position>
            <AltitudeMeters>80.59999847412109375</AltitudeMeters>
            <DistanceMeters>NAN</DistanceMeters>
          </Trackpoint>
          <Trackpoint>
            <Time>2021-08-10T17:26:19.000Z</Time>
            <Position>
              <LatitudeDegrees>43.25076545588672161102294921875</LatitudeDegrees>
              <LongitudeDegrees>-1.69464647769927978515625</LongitudeDegrees>
            </Position>
            <AltitudeMeters>80.40000152587890625</AltitudeMeters>
            <DistanceMeters>NAN</DistanceMeters>
          </Trackpoint>
          <Trackpoint>
            <Time>2021-08-10T17:26:22.000Z</Time>
            <Position>
              <LatitudeDegrees>43.25087777338922023773193359375</LatitudeDegrees>
              <LongitudeDegrees>-1.69447087682783603668212890625</LongitudeDegrees>
            </Position>
            <AltitudeMeters>80</AltitudeMeters>
            <DistanceMeters>NAN</DistanceMeters>
          </Trackpoint>
          <Trackpoint>
            <Time>2021-08-10T17:26:24.000Z</Time>
            <Position>
              <LatitudeDegrees>43.25093887746334075927734375</LatitudeDegrees>
              <LongitudeDegrees>-1.69434095732867717742919921875</LongitudeDegrees>
            </Position>
            <AltitudeMeters>79.8000030517578125</AltitudeMeters>
            <DistanceMeters>NAN</DistanceMeters>
          </Trackpoint>
          <Trackpoint>
            <Time>2021-08-10T17:26:28.000Z</Time>
            <Position>
              <LatitudeDegrees>43.2510771788656711578369140625</LatitudeDegrees>
              <LongitudeDegrees>-1.694076173007488250732421875</LongitudeDegrees>
            </Position>
            <AltitudeMeters>79.40000152587890625</AltitudeMeters>
            <DistanceMeters>NAN</DistanceMeters>
          </Trackpoint>
          <Trackpoint>
            <Time>2021-08-10T17:26:31.000Z</Time>
            <Position>
              <LatitudeDegrees>43.25117851607501506805419921875</LatitudeDegrees>
              <LongitudeDegrees>-1.69387198984622955322265625</LongitudeDegrees>
            </Position>
            <AltitudeMeters>79</AltitudeMeters>
            <DistanceMeters>NAN</DistanceMeters>
          </Trackpoint>
          <Trackpoint>
            <Time>2021-08-10T17:26:34.000Z</Time>
            <Position>
              <LatitudeDegrees>43.25127281248569488525390625</LatitudeDegrees>
              <LongitudeDegrees>-1.69366084970533847808837890625</LongitudeDegrees>
            </Position>
            <AltitudeMeters>78.59999847412109375</AltitudeMeters>
            <DistanceMeters>NAN</DistanceMeters>
          </Trackpoint>
          <Trackpoint>
            <Time>2021-08-10T17:26:35.000Z</Time>
            <Position>
              <LatitudeDegrees>43.2513001374900341033935546875</LatitudeDegrees>
              <LongitudeDegrees>-1.69358708895742893218994140625</LongitudeDegrees>
            </Position>
            <AltitudeMeters>78.1999969482421875</AltitudeMeters>
            <DistanceMeters>NAN</DistanceMeters>
          </Trackpoint>
          <Trackpoint>
            <Time>2021-08-10T17:26:37.000Z</Time>
            <Position>
              <LatitudeDegrees>43.2513459026813507080078125</LatitudeDegrees>
              <LongitudeDegrees>-1.69344283640384674072265625</LongitudeDegrees>
            </Position>
            <AltitudeMeters>78</AltitudeMeters>
            <DistanceMeters>NAN</DistanceMeters>
          </Trackpoint>
          <Trackpoint>
            <Time>2021-08-10T17:26:41.000Z</Time>
            <Position>
              <LatitudeDegrees>43.25141304172575473785400390625</LatitudeDegrees>
              <LongitudeDegrees>-1.69315642677247524261474609375</LongitudeDegrees>
            </Position>
            <AltitudeMeters>77.8000030517578125</AltitudeMeters>
            <DistanceMeters>NAN</DistanceMeters>
          </Trackpoint>
          <Trackpoint>
            <Time>2021-08-10T17:26:42.000Z</Time>
            <Position>
              <LatitudeDegrees>43.25142729096114635467529296875</LatitudeDegrees>
              <LongitudeDegrees>-1.6930867731571197509765625</LongitudeDegrees>
            </Position>
            <AltitudeMeters>77.59999847412109375</AltitudeMeters>
            <DistanceMeters>NAN</DistanceMeters>
          </Trackpoint>
          <Trackpoint>
            <Time>2021-08-10T17:26:43.000Z</Time>
            <Position>
              <LatitudeDegrees>43.25144690461456775665283203125</LatitudeDegrees>
              <LongitudeDegrees>-1.69301544316112995147705078125</LongitudeDegrees>
            </Position>
            <AltitudeMeters>77.59999847412109375</AltitudeMeters>
            <DistanceMeters>NAN</DistanceMeters>
          </Trackpoint>
          <Trackpoint>
            <Time>2021-08-10T17:26:44.000Z</Time>
            <Position>
              <LatitudeDegrees>43.2514692842960357666015625</LatitudeDegrees>
              <LongitudeDegrees>-1.6929481364786624908447265625</LongitudeDegrees>
            </Position>
            <AltitudeMeters>77.40000152587890625</AltitudeMeters>
            <DistanceMeters>NAN</DistanceMeters>
          </Trackpoint>
          <Trackpoint>
            <Time>2021-08-10T17:26:45.000Z</Time>
            <Position>
              <LatitudeDegrees>43.25149317272007465362548828125</LatitudeDegrees>
              <LongitudeDegrees>-1.69288032688200473785400390625</LongitudeDegrees>
            </Position>
            <AltitudeMeters>77.40000152587890625</AltitudeMeters>
            <DistanceMeters>NAN</DistanceMeters>
          </Trackpoint>
          <Trackpoint>
            <Time>2021-08-10T17:26:46.000Z</Time>
            <Position>
              <LatitudeDegrees>43.25151429511606693267822265625</LatitudeDegrees>
              <LongitudeDegrees>-1.692809499800205230712890625</LongitudeDegrees>
            </Position>
            <AltitudeMeters>77.40000152587890625</AltitudeMeters>
            <DistanceMeters>NAN</DistanceMeters>
          </Trackpoint>
          <Trackpoint>
            <Time>2021-08-10T17:26:48.000Z</Time>
            <Position>
              <LatitudeDegrees>43.25155486352741718292236328125</LatitudeDegrees>
              <LongitudeDegrees>-1.6926638223230838775634765625</LongitudeDegrees>
            </Position>
            <AltitudeMeters>77.1999969482421875</AltitudeMeters>
            <DistanceMeters>NAN</DistanceMeters>
          </Trackpoint>
          <Trackpoint>
            <Time>2021-08-10T17:26:50.000Z</Time>
            <Position>
              <LatitudeDegrees>43.25160364620387554168701171875</LatitudeDegrees>
              <LongitudeDegrees>-1.692516468465328216552734375</LongitudeDegrees>
            </Position>
            <AltitudeMeters>77</AltitudeMeters>
            <DistanceMeters>NAN</DistanceMeters>
          </Trackpoint>
          <Trackpoint>
            <Time>2021-08-10T17:26:55.000Z</Time>
            <Position>
              <LatitudeDegrees>43.25173540972173213958740234375</LatitudeDegrees>
              <LongitudeDegrees>-1.69218353927135467529296875</LongitudeDegrees>
            </Position>
            <AltitudeMeters>76</AltitudeMeters>
            <DistanceMeters>NAN</DistanceMeters>
          </Trackpoint>
          <Trackpoint>
            <Time>2021-08-10T17:26:57.000Z</Time>
            <Position>
              <LatitudeDegrees>43.2517893053591251373291015625</LatitudeDegrees>
              <LongitudeDegrees>-1.69205537997186183929443359375</LongitudeDegrees>
            </Position>
            <AltitudeMeters>75.8000030517578125</AltitudeMeters>
            <DistanceMeters>NAN</DistanceMeters>
          </Trackpoint>
          <Trackpoint>
            <Time>2021-08-10T17:27:03.000Z</Time>
            <Position>
              <LatitudeDegrees>43.25192064978182315826416015625</LatitudeDegrees>
              <LongitudeDegrees>-1.6916335187852382659912109375</LongitudeDegrees>
            </Position>
            <AltitudeMeters>75.1999969482421875</AltitudeMeters>
            <DistanceMeters>NAN</DistanceMeters>
          </Trackpoint>
          <Trackpoint>
            <Time>2021-08-10T17:27:05.000Z</Time>
            <Position>
              <LatitudeDegrees>43.251949064433574676513671875</LatitudeDegrees>
              <LongitudeDegrees>-1.69149865396320819854736328125</LongitudeDegrees>
            </Position>
            <AltitudeMeters>75</AltitudeMeters>
            <DistanceMeters>NAN</DistanceMeters>
          </Trackpoint>
          <Trackpoint>
            <Time>2021-08-10T17:27:06.000Z</Time>
            <Position>
              <LatitudeDegrees>43.2519609667360782623291015625</LatitudeDegrees>
              <LongitudeDegrees>-1.69143478386104106903076171875</LongitudeDegrees>
            </Position>
            <AltitudeMeters>75</AltitudeMeters>
            <DistanceMeters>NAN</DistanceMeters>
          </Trackpoint>
          <Trackpoint>
            <Time>2021-08-10T17:27:07.000Z</Time>
            <Position>
              <LatitudeDegrees>43.251972198486328125</LatitudeDegrees>
              <LongitudeDegrees>-1.6913733445107936859130859375</LongitudeDegrees>
            </Position>
            <AltitudeMeters>75</AltitudeMeters>
            <DistanceMeters>NAN</DistanceMeters>
          </Trackpoint>
          <Trackpoint>
            <Time>2021-08-10T17:27:08.000Z</Time>
            <Position>
              <LatitudeDegrees>43.251983933150768280029296875</LatitudeDegrees>
              <LongitudeDegrees>-1.691310144960880279541015625</LongitudeDegrees>
            </Position>
            <AltitudeMeters>75</AltitudeMeters>
            <DistanceMeters>NAN</DistanceMeters>
          </Trackpoint>
          <Trackpoint>
            <Time>2021-08-10T17:27:10.000Z</Time>
            <Position>
              <LatitudeDegrees>43.2520022056996822357177734375</LatitudeDegrees>
              <LongitudeDegrees>-1.69118366204202175140380859375</LongitudeDegrees>
            </Position>
            <AltitudeMeters>75.1999969482421875</AltitudeMeters>
            <DistanceMeters>NAN</DistanceMeters>
          </Trackpoint>
          <Trackpoint>
            <Time>2021-08-10T17:27:11.000Z</Time>
            <Position>
              <LatitudeDegrees>43.2520095817744731903076171875</LatitudeDegrees>
              <LongitudeDegrees>-1.69111928902566432952880859375</LongitudeDegrees>
            </Position>
            <AltitudeMeters>75.40000152587890625</AltitudeMeters>
            <DistanceMeters>NAN</DistanceMeters>
          </Trackpoint>
          <Trackpoint>
            <Time>2021-08-10T17:27:12.000Z</Time>
            <Position>
              <LatitudeDegrees>43.2520179636776447296142578125</LatitudeDegrees>
              <LongitudeDegrees>-1.6910544969141483306884765625</LongitudeDegrees>
            </Position>
            <AltitudeMeters>75.40000152587890625</AltitudeMeters>
            <DistanceMeters>NAN</DistanceMeters>
          </Trackpoint>
          <Trackpoint>
            <Time>2021-08-10T17:27:14.000Z</Time>
            <Position>
              <LatitudeDegrees>43.25203011743724346160888671875</LatitudeDegrees>
              <LongitudeDegrees>-1.69093136675655841827392578125</LongitudeDegrees>
            </Position>
            <AltitudeMeters>75.40000152587890625</AltitudeMeters>
            <DistanceMeters>NAN</DistanceMeters>
          </Trackpoint>
          <Trackpoint>
            <Time>2021-08-10T17:27:16.000Z</Time>
            <Position>
              <LatitudeDegrees>43.25204000808298587799072265625</LatitudeDegrees>
              <LongitudeDegrees>-1.69081100262701511383056640625</LongitudeDegrees>
            </Position>
            <AltitudeMeters>75.59999847412109375</AltitudeMeters>
            <DistanceMeters>NAN</DistanceMeters>
          </Trackpoint>
          <Trackpoint>
            <Time>2021-08-10T17:27:17.000Z</Time>
            <Position>
              <LatitudeDegrees>43.25204621069133281707763671875</LatitudeDegrees>
              <LongitudeDegrees>-1.6907520778477191925048828125</LongitudeDegrees>
            </Position>
            <AltitudeMeters>75.59999847412109375</AltitudeMeters>
            <DistanceMeters>NAN</DistanceMeters>
          </Trackpoint>
          <Trackpoint>
            <Time>2021-08-10T17:27:18.000Z</Time>
            <Position>
              <LatitudeDegrees>43.25205056928098201751708984375</LatitudeDegrees>
              <LongitudeDegrees>-1.690691225230693817138671875</LongitudeDegrees>
            </Position>
            <AltitudeMeters>75.59999847412109375</AltitudeMeters>
            <DistanceMeters>NAN</DistanceMeters>
          </Trackpoint>
          <Trackpoint>
            <Time>2021-08-10T17:27:19.000Z</Time>
            <Position>
              <LatitudeDegrees>43.252060376107692718505859375</LatitudeDegrees>
              <LongitudeDegrees>-1.690628528594970703125</LongitudeDegrees>
            </Position>
            <AltitudeMeters>75.8000030517578125</AltitudeMeters>
            <DistanceMeters>NAN</DistanceMeters>
          </Trackpoint>
          <Trackpoint>
            <Time>2021-08-10T17:27:20.000Z</Time>
            <Position>
              <LatitudeDegrees>43.25206900946795940399169921875</LatitudeDegrees>
              <LongitudeDegrees>-1.69056407175958156585693359375</LongitudeDegrees>
            </Position>
            <AltitudeMeters>75.8000030517578125</AltitudeMeters>
            <DistanceMeters>NAN</DistanceMeters>
          </Trackpoint>
          <Trackpoint>
            <Time>2021-08-10T17:27:27.000Z</Time>
            <Position>
              <LatitudeDegrees>43.25211678631603717803955078125</LatitudeDegrees>
              <LongitudeDegrees>-1.69010348618030548095703125</LongitudeDegrees>
            </Position>
            <AltitudeMeters>75.59999847412109375</AltitudeMeters>
            <DistanceMeters>NAN</DistanceMeters>
          </Trackpoint>
          <Trackpoint>
            <Time>2021-08-10T17:27:33.000Z</Time>
            <Position>
              <LatitudeDegrees>43.252198509871959686279296875</LatitudeDegrees>
              <LongitudeDegrees>-1.68964021839201450347900390625</LongitudeDegrees>
            </Position>
            <AltitudeMeters>75</AltitudeMeters>
            <DistanceMeters>NAN</DistanceMeters>
          </Trackpoint>
          <Trackpoint>
            <Time>2021-08-10T17:27:35.000Z</Time>
            <Position>
              <LatitudeDegrees>43.25223832391202449798583984375</LatitudeDegrees>
              <LongitudeDegrees>-1.68948079459369182586669921875</LongitudeDegrees>
            </Position>
            <AltitudeMeters>74.59999847412109375</AltitudeMeters>
            <DistanceMeters>NAN</DistanceMeters>
          </Trackpoint>
          <Trackpoint>
            <Time>2021-08-10T17:27:36.000Z</Time>
            <Position>
              <LatitudeDegrees>43.25226346962153911590576171875</LatitudeDegrees>
              <LongitudeDegrees>-1.68940384872257709503173828125</LongitudeDegrees>
            </Position>
            <AltitudeMeters>74.59999847412109375</AltitudeMeters>
            <DistanceMeters>NAN</DistanceMeters>
          </Trackpoint>
          <Trackpoint>
            <Time>2021-08-10T17:27:39.000Z</Time>
            <Position>
              <LatitudeDegrees>43.252359442412853240966796875</LatitudeDegrees>
              <LongitudeDegrees>-1.68917519040405750274658203125</LongitudeDegrees>
            </Position>
            <AltitudeMeters>74</AltitudeMeters>
            <DistanceMeters>NAN</DistanceMeters>
          </Trackpoint>
          <Trackpoint>
            <Time>2021-08-10T17:27:41.000Z</Time>
            <Position>
              <LatitudeDegrees>43.252434544265270233154296875</LatitudeDegrees>
              <LongitudeDegrees>-1.68902180157601833343505859375</LongitudeDegrees>
            </Position>
            <AltitudeMeters>73.59999847412109375</AltitudeMeters>
            <DistanceMeters>NAN</DistanceMeters>
          </Trackpoint>
          <Trackpoint>
            <Time>2021-08-10T17:27:44.000Z</Time>
            <Position>
              <LatitudeDegrees>43.252557255327701568603515625</LatitudeDegrees>
              <LongitudeDegrees>-1.68877604417502880096435546875</LongitudeDegrees>
            </Position>
            <AltitudeMeters>73</AltitudeMeters>
            <DistanceMeters>NAN</DistanceMeters>
          </Trackpoint>
          <Trackpoint>
            <Time>2021-08-10T17:27:46.000Z</Time>
            <Position>
              <LatitudeDegrees>43.25264384038746356964111328125</LatitudeDegrees>
              <LongitudeDegrees>-1.68862081132829189300537109375</LongitudeDegrees>
            </Position>
            <AltitudeMeters>72.59999847412109375</AltitudeMeters>
            <DistanceMeters>NAN</DistanceMeters>
          </Trackpoint>
          <Trackpoint>
            <Time>2021-08-10T17:27:49.000Z</Time>
            <Position>
              <LatitudeDegrees>43.25277325697243213653564453125</LatitudeDegrees>
              <LongitudeDegrees>-1.68841838836669921875</LongitudeDegrees>
            </Position>
            <AltitudeMeters>71.8000030517578125</AltitudeMeters>
            <DistanceMeters>NAN</DistanceMeters>
          </Trackpoint>
          <Trackpoint>
            <Time>2021-08-10T17:27:50.000Z</Time>
            <Position>
              <LatitudeDegrees>43.25281885452568531036376953125</LatitudeDegrees>
              <LongitudeDegrees>-1.6883629001677036285400390625</LongitudeDegrees>
            </Position>
            <AltitudeMeters>71.59999847412109375</AltitudeMeters>
            <DistanceMeters>NAN</DistanceMeters>
          </Trackpoint>
          <Trackpoint>
            <Time>2021-08-10T17:27:51.000Z</Time>
            <Position>
              <LatitudeDegrees>43.25286696664988994598388671875</LatitudeDegrees>
              <LongitudeDegrees>-1.68831151910126209259033203125</LongitudeDegrees>
            </Position>
            <AltitudeMeters>71.1999969482421875</AltitudeMeters>
            <DistanceMeters>NAN</DistanceMeters>
          </Trackpoint>
          <Trackpoint>
            <Time>2021-08-10T17:27:52.000Z</Time>
            <Position>
              <LatitudeDegrees>43.25291641987860202789306640625</LatitudeDegrees>
              <LongitudeDegrees>-1.68826223351061344146728515625</LongitudeDegrees>
            </Position>
            <AltitudeMeters>71</AltitudeMeters>
            <DistanceMeters>NAN</DistanceMeters>
          </Trackpoint>
          <Trackpoint>
            <Time>2021-08-10T17:27:54.000Z</Time>
            <Position>
              <LatitudeDegrees>43.25301758944988250732421875</LatitudeDegrees>
              <LongitudeDegrees>-1.68817757628858089447021484375</LongitudeDegrees>
            </Position>
            <AltitudeMeters>71</AltitudeMeters>
            <DistanceMeters>NAN</DistanceMeters>
          </Trackpoint>
          <Trackpoint>
            <Time>2021-08-10T17:27:55.000Z</Time>
            <Position>
              <LatitudeDegrees>43.2530646957457065582275390625</LatitudeDegrees>
              <LongitudeDegrees>-1.688137091696262359619140625</LongitudeDegrees>
            </Position>
            <AltitudeMeters>71</AltitudeMeters>
            <DistanceMeters>NAN</DistanceMeters>
          </Trackpoint>
          <Trackpoint>
            <Time>2021-08-10T17:27:56.000Z</Time>
            <Position>
              <LatitudeDegrees>43.25310836546123027801513671875</LatitudeDegrees>
              <LongitudeDegrees>-1.6881037317216396331787109375</LongitudeDegrees>
            </Position>
            <AltitudeMeters>70.8000030517578125</AltitudeMeters>
            <DistanceMeters>NAN</DistanceMeters>
          </Trackpoint>
          <Trackpoint>
            <Time>2021-08-10T17:27:57.000Z</Time>
            <Position>
              <LatitudeDegrees>43.2531518675386905670166015625</LatitudeDegrees>
              <LongitudeDegrees>-1.68808135204017162322998046875</LongitudeDegrees>
            </Position>
            <AltitudeMeters>70.8000030517578125</AltitudeMeters>
            <DistanceMeters>NAN</DistanceMeters>
          </Trackpoint>
          <Trackpoint>
            <Time>2021-08-10T17:27:58.000Z</Time>
            <Position>
              <LatitudeDegrees>43.2531994767487049102783203125</LatitudeDegrees>
              <LongitudeDegrees>-1.688056625425815582275390625</LongitudeDegrees>
            </Position>
            <AltitudeMeters>70.8000030517578125</AltitudeMeters>
            <DistanceMeters>NAN</DistanceMeters>
          </Trackpoint>
          <Trackpoint>
            <Time>2021-08-10T17:27:59.000Z</Time>
            <Position>
              <LatitudeDegrees>43.25324356555938720703125</LatitudeDegrees>
              <LongitudeDegrees>-1.68802737258374691009521484375</LongitudeDegrees>
            </Position>
            <AltitudeMeters>70.8000030517578125</AltitudeMeters>
            <DistanceMeters>NAN</DistanceMeters>
          </Trackpoint>
          <Trackpoint>
            <Time>2021-08-10T17:28:00.000Z</Time>
            <Position>
              <LatitudeDegrees>43.2532879896461963653564453125</LatitudeDegrees>
              <LongitudeDegrees>-1.6879964433610439300537109375</LongitudeDegrees>
            </Position>
            <AltitudeMeters>70.8000030517578125</AltitudeMeters>
            <DistanceMeters>NAN</DistanceMeters>
          </Trackpoint>
          <Trackpoint>
            <Time>2021-08-10T17:28:01.000Z</Time>
            <Position>
              <LatitudeDegrees>43.25333082117140293121337890625</LatitudeDegrees>
              <LongitudeDegrees>-1.68797490186989307403564453125</LongitudeDegrees>
            </Position>
            <AltitudeMeters>70.8000030517578125</AltitudeMeters>
            <DistanceMeters>NAN</DistanceMeters>
          </Trackpoint>
          <Trackpoint>
            <Time>2021-08-10T17:28:03.000Z</Time>
            <Position>
              <LatitudeDegrees>43.25341765768826007843017578125</LatitudeDegrees>
              <LongitudeDegrees>-1.68791186995804309844970703125</LongitudeDegrees>
            </Position>
            <AltitudeMeters>71</AltitudeMeters>
            <DistanceMeters>NAN</DistanceMeters>
          </Trackpoint>
          <Trackpoint>
            <Time>2021-08-10T17:28:05.000Z</Time>
            <Position>
              <LatitudeDegrees>43.25349912978708744049072265625</LatitudeDegrees>
              <LongitudeDegrees>-1.68782436288893222808837890625</LongitudeDegrees>
            </Position>
            <AltitudeMeters>71.1999969482421875</AltitudeMeters>
            <DistanceMeters>NAN</DistanceMeters>
          </Trackpoint>
          <Trackpoint>
            <Time>2021-08-10T17:28:06.000Z</Time>
            <Position>
              <LatitudeDegrees>43.2535317353904247283935546875</LatitudeDegrees>
              <LongitudeDegrees>-1.68777490966022014617919921875</LongitudeDegrees>
            </Position>
            <AltitudeMeters>71.40000152587890625</AltitudeMeters>
            <DistanceMeters>NAN</DistanceMeters>
          </Trackpoint>
          <Trackpoint>
            <Time>2021-08-10T17:28:08.000Z</Time>
            <Position>
              <LatitudeDegrees>43.25357708148658275604248046875</LatitudeDegrees>
              <LongitudeDegrees>-1.68765085749328136444091796875</LongitudeDegrees>
            </Position>
            <AltitudeMeters>71.40000152587890625</AltitudeMeters>
            <DistanceMeters>NAN</DistanceMeters>
          </Trackpoint>
          <Trackpoint>
            <Time>2021-08-10T17:28:09.000Z</Time>
            <Position>
              <LatitudeDegrees>43.25359233655035495758056640625</LatitudeDegrees>
              <LongitudeDegrees>-1.68758715502917766571044921875</LongitudeDegrees>
            </Position>
            <AltitudeMeters>71.59999847412109375</AltitudeMeters>
            <DistanceMeters>NAN</DistanceMeters>
          </Trackpoint>
          <Trackpoint>
            <Time>2021-08-10T17:28:10.000Z</Time>
            <Position>
              <LatitudeDegrees>43.25360842980444431304931640625</LatitudeDegrees>
              <LongitudeDegrees>-1.68751942925155162811279296875</LongitudeDegrees>
            </Position>
            <AltitudeMeters>71.59999847412109375</AltitudeMeters>
            <DistanceMeters>NAN</DistanceMeters>
          </Trackpoint>
          <Trackpoint>
            <Time>2021-08-10T17:28:12.000Z</Time>
            <Position>
              <LatitudeDegrees>43.25359518639743328094482421875</LatitudeDegrees>
              <LongitudeDegrees>-1.6873812116682529449462890625</LongitudeDegrees>
            </Position>
            <AltitudeMeters>71.8000030517578125</AltitudeMeters>
            <DistanceMeters>NAN</DistanceMeters>
          </Trackpoint>
          <Trackpoint>
            <Time>2021-08-10T17:28:13.000Z</Time>
            <Position>
              <LatitudeDegrees>43.25358487665653228759765625</LatitudeDegrees>
              <LongitudeDegrees>-1.6873128153383731842041015625</LongitudeDegrees>
            </Position>
            <AltitudeMeters>71.8000030517578125</AltitudeMeters>
            <DistanceMeters>NAN</DistanceMeters>
          </Trackpoint>
          <Trackpoint>
            <Time>2021-08-10T17:28:14.000Z</Time>
            <Position>
              <LatitudeDegrees>43.25357708148658275604248046875</LatitudeDegrees>
              <LongitudeDegrees>-1.68724617920815944671630859375</LongitudeDegrees>
            </Position>
            <AltitudeMeters>71.59999847412109375</AltitudeMeters>
            <DistanceMeters>NAN</DistanceMeters>
          </Trackpoint>
          <Trackpoint>
            <Time>2021-08-10T17:28:18.000Z</Time>
            <Position>
              <LatitudeDegrees>43.25353751890361309051513671875</LatitudeDegrees>
              <LongitudeDegrees>-1.686986424028873443603515625</LongitudeDegrees>
            </Position>
            <AltitudeMeters>71.8000030517578125</AltitudeMeters>
            <DistanceMeters>NAN</DistanceMeters>
          </Trackpoint>
          <Trackpoint>
            <Time>2021-08-10T17:28:19.000Z</Time>
            <Position>
              <LatitudeDegrees>43.25352595187723636627197265625</LatitudeDegrees>
              <LongitudeDegrees>-1.68692330829799175262451171875</LongitudeDegrees>
            </Position>
            <AltitudeMeters>71.8000030517578125</AltitudeMeters>
            <DistanceMeters>NAN</DistanceMeters>
          </Trackpoint>
          <Trackpoint>
            <Time>2021-08-10T17:28:20.000Z</Time>
            <Position>
              <LatitudeDegrees>43.253514133393764495849609375</LatitudeDegrees>
              <LongitudeDegrees>-1.68686144985258579254150390625</LongitudeDegrees>
            </Position>
            <AltitudeMeters>72</AltitudeMeters>
            <DistanceMeters>NAN</DistanceMeters>
          </Trackpoint>
          <Trackpoint>
            <Time>2021-08-10T17:28:22.000Z</Time>
            <Position>
              <LatitudeDegrees>43.2534972019493579864501953125</LatitudeDegrees>
              <LongitudeDegrees>-1.68672918342053890228271484375</LongitudeDegrees>
            </Position>
            <AltitudeMeters>72.1999969482421875</AltitudeMeters>
            <DistanceMeters>NAN</DistanceMeters>
          </Trackpoint>
          <Trackpoint>
            <Time>2021-08-10T17:28:25.000Z</Time>
            <Position>
              <LatitudeDegrees>43.2535049133002758026123046875</LatitudeDegrees>
              <LongitudeDegrees>-1.6865202225744724273681640625</LongitudeDegrees>
            </Position>
            <AltitudeMeters>72.1999969482421875</AltitudeMeters>
            <DistanceMeters>NAN</DistanceMeters>
          </Trackpoint>
          <Trackpoint>
            <Time>2021-08-10T17:28:27.000Z</Time>
            <Position>
              <LatitudeDegrees>43.25353123247623443603515625</LatitudeDegrees>
              <LongitudeDegrees>-1.6863867826759815216064453125</LongitudeDegrees>
            </Position>
            <AltitudeMeters>72.40000152587890625</AltitudeMeters>
            <DistanceMeters>NAN</DistanceMeters>
          </Trackpoint>
          <Trackpoint>
            <Time>2021-08-10T17:28:29.000Z</Time>
            <Position>
              <LatitudeDegrees>43.253580518066883087158203125</LatitudeDegrees>
              <LongitudeDegrees>-1.68626549653708934783935546875</LongitudeDegrees>
            </Position>
            <AltitudeMeters>72.40000152587890625</AltitudeMeters>
            <DistanceMeters>NAN</DistanceMeters>
          </Trackpoint>
          <Trackpoint>
            <Time>2021-08-10T17:28:31.000Z</Time>
            <Position>
              <LatitudeDegrees>43.2536598108708858489990234375</LatitudeDegrees>
              <LongitudeDegrees>-1.686156280338764190673828125</LongitudeDegrees>
            </Position>
            <AltitudeMeters>72.40000152587890625</AltitudeMeters>
            <DistanceMeters>NAN</DistanceMeters>
          </Trackpoint>
          <Trackpoint>
            <Time>2021-08-10T17:28:32.000Z</Time>
            <Position>
              <LatitudeDegrees>43.25370867736637592315673828125</LatitudeDegrees>
              <LongitudeDegrees>-1.68611495755612850189208984375</LongitudeDegrees>
            </Position>
            <AltitudeMeters>72.40000152587890625</AltitudeMeters>
            <DistanceMeters>NAN</DistanceMeters>
          </Trackpoint>
          <Trackpoint>
            <Time>2021-08-10T17:28:33.000Z</Time>
            <Position>
              <LatitudeDegrees>43.25376056134700775146484375</LatitudeDegrees>
              <LongitudeDegrees>-1.6860806755721569061279296875</LongitudeDegrees>
            </Position>
            <AltitudeMeters>72.40000152587890625</AltitudeMeters>
            <DistanceMeters>NAN</DistanceMeters>
          </Trackpoint>
          <Trackpoint>
            <Time>2021-08-10T17:28:34.000Z</Time>
            <Position>
              <LatitudeDegrees>43.253813199698925018310546875</LatitudeDegrees>
              <LongitudeDegrees>-1.6860473155975341796875</LongitudeDegrees>
            </Position>
            <AltitudeMeters>72</AltitudeMeters>
            <DistanceMeters>NAN</DistanceMeters>
          </Trackpoint>
          <Trackpoint>
            <Time>2021-08-10T17:28:35.000Z</Time>
            <Position>
              <LatitudeDegrees>43.25386759825050830841064453125</LatitudeDegrees>
              <LongitudeDegrees>-1.68601772747933864593505859375</LongitudeDegrees>
            </Position>
            <AltitudeMeters>72</AltitudeMeters>
            <DistanceMeters>NAN</DistanceMeters>
          </Trackpoint>
          <Trackpoint>
            <Time>2021-08-10T17:28:38.000Z</Time>
            <Position>
              <LatitudeDegrees>43.25404479168355464935302734375</LatitudeDegrees>
              <LongitudeDegrees>-1.68595218099653720855712890625</LongitudeDegrees>
            </Position>
            <AltitudeMeters>71.59999847412109375</AltitudeMeters>
            <DistanceMeters>NAN</DistanceMeters>
          </Trackpoint>
          <Trackpoint>
            <Time>2021-08-10T17:28:40.000Z</Time>
            <Position>
              <LatitudeDegrees>43.25417269952595233917236328125</LatitudeDegrees>
              <LongitudeDegrees>-1.68588445521891117095947265625</LongitudeDegrees>
            </Position>
            <AltitudeMeters>71.40000152587890625</AltitudeMeters>
            <DistanceMeters>NAN</DistanceMeters>
          </Trackpoint>
          <Trackpoint>
            <Time>2021-08-10T17:28:42.000Z</Time>
            <Position>
              <LatitudeDegrees>43.2542726956307888031005859375</LatitudeDegrees>
              <LongitudeDegrees>-1.68575428426265716552734375</LongitudeDegrees>
            </Position>
            <AltitudeMeters>71</AltitudeMeters>
            <DistanceMeters>NAN</DistanceMeters>
          </Trackpoint>
          <Trackpoint>
            <Time>2021-08-10T17:28:43.000Z</Time>
            <Position>
              <LatitudeDegrees>43.2543085701763629913330078125</LatitudeDegrees>
              <LongitudeDegrees>-1.68568588793277740478515625</LongitudeDegrees>
            </Position>
            <AltitudeMeters>70.59999847412109375</AltitudeMeters>
            <DistanceMeters>NAN</DistanceMeters>
          </Trackpoint>
          <Trackpoint>
            <Time>2021-08-10T17:28:44.000Z</Time>
            <Position>
              <LatitudeDegrees>43.2543337158858776092529296875</LatitudeDegrees>
              <LongitudeDegrees>-1.6856181621551513671875</LongitudeDegrees>
            </Position>
            <AltitudeMeters>70.59999847412109375</AltitudeMeters>
            <DistanceMeters>NAN</DistanceMeters>
          </Trackpoint>
          <Trackpoint>
            <Time>2021-08-10T17:28:45.000Z</Time>
            <Position>
              <LatitudeDegrees>43.2543491385877132415771484375</LatitudeDegrees>
              <LongitudeDegrees>-1.68554012663662433624267578125</LongitudeDegrees>
            </Position>
            <AltitudeMeters>70.40000152587890625</AltitudeMeters>
            <DistanceMeters>NAN</DistanceMeters>
          </Trackpoint>
          <Trackpoint>
            <Time>2021-08-10T17:28:46.000Z</Time>
            <Position>
              <LatitudeDegrees>43.25435911305248737335205078125</LatitudeDegrees>
              <LongitudeDegrees>-1.68545714579522609710693359375</LongitudeDegrees>
            </Position>
            <AltitudeMeters>70.40000152587890625</AltitudeMeters>
            <DistanceMeters>NAN</DistanceMeters>
          </Trackpoint>
          <Trackpoint>
            <Time>2021-08-10T17:28:48.000Z</Time>
            <Position>
              <LatitudeDegrees>43.25437017716467380523681640625</LatitudeDegrees>
              <LongitudeDegrees>-1.68530526570975780487060546875</LongitudeDegrees>
            </Position>
            <AltitudeMeters>70.1999969482421875</AltitudeMeters>
            <DistanceMeters>NAN</DistanceMeters>
          </Trackpoint>
          <Trackpoint>
            <Time>2021-08-10T17:28:49.000Z</Time>
            <Position>
              <LatitudeDegrees>43.25437336228787899017333984375</LatitudeDegrees>
              <LongitudeDegrees>-1.68524156324565410614013671875</LongitudeDegrees>
            </Position>
            <AltitudeMeters>70.1999969482421875</AltitudeMeters>
            <DistanceMeters>NAN</DistanceMeters>
          </Trackpoint>
          <Trackpoint>
            <Time>2021-08-10T17:28:50.000Z</Time>
            <Position>
              <LatitudeDegrees>43.25437386520206928253173828125</LatitudeDegrees>
              <LongitudeDegrees>-1.68519026599824428558349609375</LongitudeDegrees>
            </Position>
            <AltitudeMeters>70.1999969482421875</AltitudeMeters>
            <DistanceMeters>NAN</DistanceMeters>
          </Trackpoint>
          <Trackpoint>
            <Time>2021-08-10T17:28:51.000Z</Time>
            <Position>
              <LatitudeDegrees>43.25437218882143497467041015625</LatitudeDegrees>
              <LongitudeDegrees>-1.68510778807103633880615234375</LongitudeDegrees>
            </Position>
            <AltitudeMeters>70.1999969482421875</AltitudeMeters>
            <DistanceMeters>NAN</DistanceMeters>
          </Trackpoint>
          <Trackpoint>
            <Time>2021-08-10T17:28:52.000Z</Time>
            <Position>
              <LatitudeDegrees>43.25437436811625957489013671875</LatitudeDegrees>
              <LongitudeDegrees>-1.6850456781685352325439453125</LongitudeDegrees>
            </Position>
            <AltitudeMeters>70.1999969482421875</AltitudeMeters>
            <DistanceMeters>NAN</DistanceMeters>
          </Trackpoint>
          <Trackpoint>
            <Time>2021-08-10T17:28:55.000Z</Time>
            <Position>
              <LatitudeDegrees>43.25438526459038257598876953125</LatitudeDegrees>
              <LongitudeDegrees>-1.6848535649478435516357421875</LongitudeDegrees>
            </Position>
            <AltitudeMeters>70.59999847412109375</AltitudeMeters>
            <DistanceMeters>NAN</DistanceMeters>
          </Trackpoint>
          <Trackpoint>
            <Time>2021-08-10T17:28:56.000Z</Time>
            <Position>
              <LatitudeDegrees>43.25437520630657672882080078125</LatitudeDegrees>
              <LongitudeDegrees>-1.684779636561870574951171875</LongitudeDegrees>
            </Position>
            <AltitudeMeters>70.8000030517578125</AltitudeMeters>
            <DistanceMeters>NAN</DistanceMeters>
          </Trackpoint>
          <Trackpoint>
            <Time>2021-08-10T17:28:57.000Z</Time>
            <Position>
              <LatitudeDegrees>43.25437788851559162139892578125</LatitudeDegrees>
              <LongitudeDegrees>-1.68468953110277652740478515625</LongitudeDegrees>
            </Position>
            <AltitudeMeters>70.8000030517578125</AltitudeMeters>
            <DistanceMeters>NAN</DistanceMeters>
          </Trackpoint>
          <Trackpoint>
            <Time>2021-08-10T17:28:58.000Z</Time>
            <Position>
              <LatitudeDegrees>43.25438627041876316070556640625</LatitudeDegrees>
              <LongitudeDegrees>-1.68460403569042682647705078125</LongitudeDegrees>
            </Position>
            <AltitudeMeters>71</AltitudeMeters>
            <DistanceMeters>NAN</DistanceMeters>
          </Trackpoint>
          <Trackpoint>
            <Time>2021-08-10T17:28:59.000Z</Time>
            <Position>
              <LatitudeDegrees>43.25439230538904666900634765625</LatitudeDegrees>
              <LongitudeDegrees>-1.68451376259326934814453125</LongitudeDegrees>
            </Position>
            <AltitudeMeters>71</AltitudeMeters>
            <DistanceMeters>NAN</DistanceMeters>
          </Trackpoint>
          <Trackpoint>
            <Time>2021-08-10T17:29:01.000Z</Time>
            <Position>
              <LatitudeDegrees>43.25442013330757617950439453125</LatitudeDegrees>
              <LongitudeDegrees>-1.68436355888843536376953125</LongitudeDegrees>
            </Position>
            <AltitudeMeters>71.1999969482421875</AltitudeMeters>
            <DistanceMeters>NAN</DistanceMeters>
          </Trackpoint>
          <Trackpoint>
            <Time>2021-08-10T17:29:03.000Z</Time>
            <Position>
              <LatitudeDegrees>43.254468999803066253662109375</LatitudeDegrees>
              <LongitudeDegrees>-1.684210002422332763671875</LongitudeDegrees>
            </Position>
            <AltitudeMeters>71.1999969482421875</AltitudeMeters>
            <DistanceMeters>NAN</DistanceMeters>
          </Trackpoint>
          <Trackpoint>
            <Time>2021-08-10T17:29:06.000Z</Time>
            <Position>
              <LatitudeDegrees>43.25455424375832080841064453125</LatitudeDegrees>
              <LongitudeDegrees>-1.68398578651249408721923828125</LongitudeDegrees>
            </Position>
            <AltitudeMeters>71.1999969482421875</AltitudeMeters>
            <DistanceMeters>NAN</DistanceMeters>
          </Trackpoint>
          <Trackpoint>
            <Time>2021-08-10T17:29:08.000Z</Time>
            <Position>
              <LatitudeDegrees>43.2546254061162471771240234375</LatitudeDegrees>
              <LongitudeDegrees>-1.68381915427744388580322265625</LongitudeDegrees>
            </Position>
            <AltitudeMeters>71</AltitudeMeters>
            <DistanceMeters>NAN</DistanceMeters>
          </Trackpoint>
          <Trackpoint>
            <Time>2021-08-10T17:29:09.000Z</Time>
            <Position>
              <LatitudeDegrees>43.25465884990990161895751953125</LatitudeDegrees>
              <LongitudeDegrees>-1.68374472297728061676025390625</LongitudeDegrees>
            </Position>
            <AltitudeMeters>70.59999847412109375</AltitudeMeters>
            <DistanceMeters>NAN</DistanceMeters>
          </Trackpoint>
          <Trackpoint>
            <Time>2021-08-10T17:29:10.000Z</Time>
            <Position>
              <LatitudeDegrees>43.2546884380280971527099609375</LatitudeDegrees>
              <LongitudeDegrees>-1.6836666874587535858154296875</LongitudeDegrees>
            </Position>
            <AltitudeMeters>70.59999847412109375</AltitudeMeters>
            <DistanceMeters>NAN</DistanceMeters>
          </Trackpoint>
          <Trackpoint>
            <Time>2021-08-10T17:29:11.000Z</Time>
            <Position>
              <LatitudeDegrees>43.2547112368047237396240234375</LatitudeDegrees>
              <LongitudeDegrees>-1.68358295224606990814208984375</LongitudeDegrees>
            </Position>
            <AltitudeMeters>70.1999969482421875</AltitudeMeters>
            <DistanceMeters>NAN</DistanceMeters>
          </Trackpoint>
          <Trackpoint>
            <Time>2021-08-10T17:29:12.000Z</Time>
            <Position>
              <LatitudeDegrees>43.25471802614629268646240234375</LatitudeDegrees>
              <LongitudeDegrees>-1.68350449763238430023193359375</LongitudeDegrees>
            </Position>
            <AltitudeMeters>70</AltitudeMeters>
            <DistanceMeters>NAN</DistanceMeters>
          </Trackpoint>
          <Trackpoint>
            <Time>2021-08-10T17:29:13.000Z</Time>
            <Position>
              <LatitudeDegrees>43.25472615659236907958984375</LatitudeDegrees>
              <LongitudeDegrees>-1.68343090452253818511962890625</LongitudeDegrees>
            </Position>
            <AltitudeMeters>69.59999847412109375</AltitudeMeters>
            <DistanceMeters>NAN</DistanceMeters>
          </Trackpoint>
          <Trackpoint>
            <Time>2021-08-10T17:29:14.000Z</Time>
            <Position>
              <LatitudeDegrees>43.2547176070511341094970703125</LatitudeDegrees>
              <LongitudeDegrees>-1.683351695537567138671875</LongitudeDegrees>
            </Position>
            <AltitudeMeters>69.59999847412109375</AltitudeMeters>
            <DistanceMeters>NAN</DistanceMeters>
          </Trackpoint>
          <Trackpoint>
            <Time>2021-08-10T17:29:15.000Z</Time>
            <Position>
              <LatitudeDegrees>43.25471065007150173187255859375</LatitudeDegrees>
              <LongitudeDegrees>-1.6832683794200420379638671875</LongitudeDegrees>
            </Position>
            <AltitudeMeters>69.40000152587890625</AltitudeMeters>
            <DistanceMeters>NAN</DistanceMeters>
          </Trackpoint>
          <Trackpoint>
            <Time>2021-08-10T17:29:17.000Z</Time>
            <Position>
              <LatitudeDegrees>43.25469505973160266876220703125</LatitudeDegrees>
              <LongitudeDegrees>-1.683104597032070159912109375</LongitudeDegrees>
            </Position>
            <AltitudeMeters>68.8000030517578125</AltitudeMeters>
            <DistanceMeters>NAN</DistanceMeters>
          </Trackpoint>
          <Trackpoint>
            <Time>2021-08-10T17:29:18.000Z</Time>
            <Position>
              <LatitudeDegrees>43.2546736858785152435302734375</LatitudeDegrees>
              <LongitudeDegrees>-1.6830159164965152740478515625</LongitudeDegrees>
            </Position>
            <AltitudeMeters>68.40000152587890625</AltitudeMeters>
            <DistanceMeters>NAN</DistanceMeters>
          </Trackpoint>
          <Trackpoint>
            <Time>2021-08-10T17:29:19.000Z</Time>
            <Position>
              <LatitudeDegrees>43.25465231202542781829833984375</LatitudeDegrees>
              <LongitudeDegrees>-1.682933606207370758056640625</LongitudeDegrees>
            </Position>
            <AltitudeMeters>68.40000152587890625</AltitudeMeters>
            <DistanceMeters>NAN</DistanceMeters>
          </Trackpoint>
          <Trackpoint>
            <Time>2021-08-10T17:29:20.000Z</Time>
            <Position>
              <LatitudeDegrees>43.25462833978235721588134765625</LatitudeDegrees>
              <LongitudeDegrees>-1.68286152184009552001953125</LongitudeDegrees>
            </Position>
            <AltitudeMeters>68.1999969482421875</AltitudeMeters>
            <DistanceMeters>NAN</DistanceMeters>
          </Trackpoint>
          <Trackpoint>
            <Time>2021-08-10T17:29:21.000Z</Time>
            <Position>
              <LatitudeDegrees>43.254603780806064605712890625</LatitudeDegrees>
              <LongitudeDegrees>-1.68278239667415618896484375</LongitudeDegrees>
            </Position>
            <AltitudeMeters>68</AltitudeMeters>
            <DistanceMeters>NAN</DistanceMeters>
          </Trackpoint>
          <Trackpoint>
            <Time>2021-08-10T17:29:22.000Z</Time>
            <Position>
              <LatitudeDegrees>43.25458693318068981170654296875</LatitudeDegrees>
              <LongitudeDegrees>-1.6827108152210712432861328125</LongitudeDegrees>
            </Position>
            <AltitudeMeters>67.8000030517578125</AltitudeMeters>
            <DistanceMeters>NAN</DistanceMeters>
          </Trackpoint>
          <Trackpoint>
            <Time>2021-08-10T17:29:23.000Z</Time>
            <Position>
              <LatitudeDegrees>43.25457905419170856475830078125</LatitudeDegrees>
              <LongitudeDegrees>-1.6826474480330944061279296875</LongitudeDegrees>
            </Position>
            <AltitudeMeters>67.59999847412109375</AltitudeMeters>
            <DistanceMeters>NAN</DistanceMeters>
          </Trackpoint>
          <Trackpoint>
            <Time>2021-08-10T17:29:24.000Z</Time>
            <Position>
              <LatitudeDegrees>43.2545643858611583709716796875</LatitudeDegrees>
              <LongitudeDegrees>-1.68257259763777256011962890625</LongitudeDegrees>
            </Position>
            <AltitudeMeters>67.59999847412109375</AltitudeMeters>
            <DistanceMeters>NAN</DistanceMeters>
          </Trackpoint>
          <Trackpoint>
            <Time>2021-08-10T17:29:25.000Z</Time>
            <Position>
              <LatitudeDegrees>43.25455105863511562347412109375</LatitudeDegrees>
              <LongitudeDegrees>-1.68252146802842617034912109375</LongitudeDegrees>
            </Position>
            <AltitudeMeters>67.1999969482421875</AltitudeMeters>
            <DistanceMeters>NAN</DistanceMeters>
          </Trackpoint>
          <Trackpoint>
            <Time>2021-08-10T17:29:26.000Z</Time>
            <Position>
              <LatitudeDegrees>43.2545358873903751373291015625</LatitudeDegrees>
              <LongitudeDegrees>-1.6824771277606487274169921875</LongitudeDegrees>
            </Position>
            <AltitudeMeters>67.1999969482421875</AltitudeMeters>
            <DistanceMeters>NAN</DistanceMeters>
          </Trackpoint>
          <Trackpoint>
            <Time>2021-08-10T17:29:27.000Z</Time>
            <Position>
              <LatitudeDegrees>43.25452021323144435882568359375</LatitudeDegrees>
              <LongitudeDegrees>-1.682429350912570953369140625</LongitudeDegrees>
            </Position>
            <AltitudeMeters>67</AltitudeMeters>
            <DistanceMeters>NAN</DistanceMeters>
          </Trackpoint>
          <Trackpoint>
            <Time>2021-08-10T17:29:28.000Z</Time>
            <Position>
              <LatitudeDegrees>43.254509903490543365478515625</LatitudeDegrees>
              <LongitudeDegrees>-1.6823795624077320098876953125</LongitudeDegrees>
            </Position>
            <AltitudeMeters>66.8000030517578125</AltitudeMeters>
            <DistanceMeters>NAN</DistanceMeters>
          </Trackpoint>
          <Trackpoint>
            <Time>2021-08-10T17:29:30.000Z</Time>
            <Position>
              <LatitudeDegrees>43.25449557043612003326416015625</LatitudeDegrees>
              <LongitudeDegrees>-1.68229331262409687042236328125</LongitudeDegrees>
            </Position>
            <AltitudeMeters>66.59999847412109375</AltitudeMeters>
            <DistanceMeters>NAN</DistanceMeters>
          </Trackpoint>
          <Trackpoint>
            <Time>2021-08-10T17:29:31.000Z</Time>
            <Position>
              <LatitudeDegrees>43.25448852963745594024658203125</LatitudeDegrees>
              <LongitudeDegrees>-1.68226229958236217498779296875</LongitudeDegrees>
            </Position>
            <AltitudeMeters>66.59999847412109375</AltitudeMeters>
            <DistanceMeters>NAN</DistanceMeters>
          </Trackpoint>
          <Trackpoint>
            <Time>2021-08-10T17:29:32.000Z</Time>
            <Position>
              <LatitudeDegrees>43.25448207557201385498046875</LatitudeDegrees>
              <LongitudeDegrees>-1.6822347231209278106689453125</LongitudeDegrees>
            </Position>
            <AltitudeMeters>66.59999847412109375</AltitudeMeters>
            <DistanceMeters>NAN</DistanceMeters>
          </Trackpoint>
          <Trackpoint>
            <Time>2021-08-10T17:29:33.000Z</Time>
            <Position>
              <LatitudeDegrees>43.25447805225849151611328125</LatitudeDegrees>
              <LongitudeDegrees>-1.6822048835456371307373046875</LongitudeDegrees>
            </Position>
            <AltitudeMeters>66.40000152587890625</AltitudeMeters>
            <DistanceMeters>NAN</DistanceMeters>
          </Trackpoint>
          <Trackpoint>
            <Time>2021-08-10T17:29:34.000Z</Time>
            <Position>
              <LatitudeDegrees>43.2544752024114131927490234375</LatitudeDegrees>
              <LongitudeDegrees>-1.682173870503902435302734375</LongitudeDegrees>
            </Position>
            <AltitudeMeters>66.40000152587890625</AltitudeMeters>
            <DistanceMeters>NAN</DistanceMeters>
          </Trackpoint>
          <Trackpoint>
            <Time>2021-08-10T17:29:36.000Z</Time>
            <Position>
              <LatitudeDegrees>43.25446874834597110748291015625</LatitudeDegrees>
              <LongitudeDegrees>-1.682104133069515228271484375</LongitudeDegrees>
            </Position>
            <AltitudeMeters>66.1999969482421875</AltitudeMeters>
            <DistanceMeters>NAN</DistanceMeters>
          </Trackpoint>
          <Trackpoint>
            <Time>2021-08-10T17:29:39.000Z</Time>
            <Position>
              <LatitudeDegrees>43.2544524036347866058349609375</LatitudeDegrees>
              <LongitudeDegrees>-1.68200790882110595703125</LongitudeDegrees>
            </Position>
            <AltitudeMeters>65.8000030517578125</AltitudeMeters>
            <DistanceMeters>NAN</DistanceMeters>
          </Trackpoint>
          <Trackpoint>
            <Time>2021-08-10T17:29:41.000Z</Time>
            <Position>
              <LatitudeDegrees>43.25444997288286685943603515625</LatitudeDegrees>
              <LongitudeDegrees>-1.68194931931793689727783203125</LongitudeDegrees>
            </Position>
            <AltitudeMeters>65.59999847412109375</AltitudeMeters>
            <DistanceMeters>NAN</DistanceMeters>
          </Trackpoint>
          <Trackpoint>
            <Time>2021-08-10T17:29:42.000Z</Time>
            <Position>
              <LatitudeDegrees>43.25444946996867656707763671875</LatitudeDegrees>
              <LongitudeDegrees>-1.6819180548191070556640625</LongitudeDegrees>
            </Position>
            <AltitudeMeters>65.59999847412109375</AltitudeMeters>
            <DistanceMeters>NAN</DistanceMeters>
          </Trackpoint>
          <Trackpoint>
            <Time>2021-08-10T17:29:43.000Z</Time>
            <Position>
              <LatitudeDegrees>43.2544456981122493743896484375</LatitudeDegrees>
              <LongitudeDegrees>-1.68189399875700473785400390625</LongitudeDegrees>
            </Position>
            <AltitudeMeters>65.40000152587890625</AltitudeMeters>
            <DistanceMeters>NAN</DistanceMeters>
          </Trackpoint>
          <Trackpoint>
            <Time>2021-08-10T17:29:44.000Z</Time>
            <Position>
              <LatitudeDegrees>43.254439830780029296875</LatitudeDegrees>
              <LongitudeDegrees>-1.68187907896935939788818359375</LongitudeDegrees>
            </Position>
            <AltitudeMeters>65.40000152587890625</AltitudeMeters>
            <DistanceMeters>NAN</DistanceMeters>
          </Trackpoint>
          <Trackpoint>
            <Time>2021-08-10T17:29:45.000Z</Time>
            <Position>
              <LatitudeDegrees>43.25444410555064678192138671875</LatitudeDegrees>
              <LongitudeDegrees>-1.68186650611460208892822265625</LongitudeDegrees>
            </Position>
            <AltitudeMeters>65.1999969482421875</AltitudeMeters>
            <DistanceMeters>NAN</DistanceMeters>
          </Trackpoint>
          <Trackpoint>
            <Time>2021-08-10T17:29:46.000Z</Time>
            <Position>
              <LatitudeDegrees>43.25445148162543773651123046875</LatitudeDegrees>
              <LongitudeDegrees>-1.68185837566852569580078125</LongitudeDegrees>
            </Position>
            <AltitudeMeters>65.1999969482421875</AltitudeMeters>
            <DistanceMeters>NAN</DistanceMeters>
          </Trackpoint>
          <Trackpoint>
            <Time>2021-08-10T17:29:47.000Z</Time>
            <Position>
              <LatitudeDegrees>43.25445148162543773651123046875</LatitudeDegrees>
              <LongitudeDegrees>-1.68185837566852569580078125</LongitudeDegrees>
            </Position>
            <AltitudeMeters>65.1999969482421875</AltitudeMeters>
            <DistanceMeters>NAN</DistanceMeters>
          </Trackpoint>
          <Trackpoint>
            <Time>2021-08-10T17:29:56.000Z</Time>
            <Position>
              <LatitudeDegrees>43.25445148162543773651123046875</LatitudeDegrees>
              <LongitudeDegrees>-1.68185837566852569580078125</LongitudeDegrees>
            </Position>
            <AltitudeMeters>65.1999969482421875</AltitudeMeters>
            <DistanceMeters>NAN</DistanceMeters>
          </Trackpoint>
          <Trackpoint>
            <Time>2021-08-10T17:30:28.000Z</Time>
            <Position>
              <LatitudeDegrees>43.25446656905114650726318359375</LatitudeDegrees>
              <LongitudeDegrees>-1.681852675974369049072265625</LongitudeDegrees>
            </Position>
            <AltitudeMeters>65.1999969482421875</AltitudeMeters>
            <DistanceMeters>NAN</DistanceMeters>
          </Trackpoint>
          <Trackpoint>
            <Time>2021-08-10T17:30:29.000Z</Time>
            <Position>
              <LatitudeDegrees>43.25448316521942615509033203125</LatitudeDegrees>
              <LongitudeDegrees>-1.6818699426949024200439453125</LongitudeDegrees>
            </Position>
            <AltitudeMeters>65</AltitudeMeters>
            <DistanceMeters>NAN</DistanceMeters>
          </Trackpoint>
          <Trackpoint>
            <Time>2021-08-10T17:30:30.000Z</Time>
            <Position>
              <LatitudeDegrees>43.254490792751312255859375</LatitudeDegrees>
              <LongitudeDegrees>-1.68189701624214649200439453125</LongitudeDegrees>
            </Position>
            <AltitudeMeters>65</AltitudeMeters>
            <DistanceMeters>NAN</DistanceMeters>
          </Trackpoint>
          <Trackpoint>
            <Time>2021-08-10T17:30:32.000Z</Time>
            <Position>
              <LatitudeDegrees>43.25447528623044490814208984375</LatitudeDegrees>
              <LongitudeDegrees>-1.68191864155232906341552734375</LongitudeDegrees>
            </Position>
            <AltitudeMeters>65</AltitudeMeters>
            <DistanceMeters>NAN</DistanceMeters>
          </Trackpoint>
          <Trackpoint>
            <Time>2021-08-10T17:30:38.000Z</Time>
            <Position>
              <LatitudeDegrees>43.25446556322276592254638671875</LatitudeDegrees>
              <LongitudeDegrees>-1.68193859048187732696533203125</LongitudeDegrees>
            </Position>
            <AltitudeMeters>64.8000030517578125</AltitudeMeters>
            <DistanceMeters>NAN</DistanceMeters>
          </Trackpoint>
          <Trackpoint>
            <Time>2021-08-10T17:30:40.000Z</Time>
            <Position>
              <LatitudeDegrees>43.2544641382992267608642578125</LatitudeDegrees>
              <LongitudeDegrees>-1.6820084117352962493896484375</LongitudeDegrees>
            </Position>
            <AltitudeMeters>64.8000030517578125</AltitudeMeters>
            <DistanceMeters>NAN</DistanceMeters>
          </Trackpoint>
          <Trackpoint>
            <Time>2021-08-10T17:30:42.000Z</Time>
            <Position>
              <LatitudeDegrees>43.25446807779371738433837890625</LatitudeDegrees>
              <LongitudeDegrees>-1.68209482915699481964111328125</LongitudeDegrees>
            </Position>
            <AltitudeMeters>64.8000030517578125</AltitudeMeters>
            <DistanceMeters>NAN</DistanceMeters>
          </Trackpoint>
          <Trackpoint>
            <Time>2021-08-10T17:30:43.000Z</Time>
            <Position>
              <LatitudeDegrees>43.25446195900440216064453125</LatitudeDegrees>
              <LongitudeDegrees>-1.68214268982410430908203125</LongitudeDegrees>
            </Position>
            <AltitudeMeters>64.8000030517578125</AltitudeMeters>
            <DistanceMeters>NAN</DistanceMeters>
          </Trackpoint>
          <Trackpoint>
            <Time>2021-08-10T17:30:44.000Z</Time>
            <Position>
              <LatitudeDegrees>43.25444611720740795135498046875</LatitudeDegrees>
              <LongitudeDegrees>-1.68218024075031280517578125</LongitudeDegrees>
            </Position>
            <AltitudeMeters>64.8000030517578125</AltitudeMeters>
            <DistanceMeters>NAN</DistanceMeters>
          </Trackpoint>
          <Trackpoint>
            <Time>2021-08-10T17:30:45.000Z</Time>
            <Position>
              <LatitudeDegrees>43.25442382134497165679931640625</LatitudeDegrees>
              <LongitudeDegrees>-1.682203710079193115234375</LongitudeDegrees>
            </Position>
            <AltitudeMeters>64.8000030517578125</AltitudeMeters>
            <DistanceMeters>NAN</DistanceMeters>
          </Trackpoint>
          <Trackpoint>
            <Time>2021-08-10T17:30:46.000Z</Time>
            <Position>
              <LatitudeDegrees>43.254398591816425323486328125</LatitudeDegrees>
              <LongitudeDegrees>-1.6822176240384578704833984375</LongitudeDegrees>
            </Position>
            <AltitudeMeters>64.8000030517578125</AltitudeMeters>
            <DistanceMeters>NAN</DistanceMeters>
          </Trackpoint>
          <Trackpoint>
            <Time>2021-08-10T17:30:47.000Z</Time>
            <Position>
              <LatitudeDegrees>43.25437369756400585174560546875</LatitudeDegrees>
              <LongitudeDegrees>-1.68222156353294849395751953125</LongitudeDegrees>
            </Position>
            <AltitudeMeters>64.8000030517578125</AltitudeMeters>
            <DistanceMeters>NAN</DistanceMeters>
          </Trackpoint>
          <Trackpoint>
            <Time>2021-08-10T17:30:48.000Z</Time>
            <Position>
              <LatitudeDegrees>43.25435207225382328033447265625</LatitudeDegrees>
              <LongitudeDegrees>-1.682220138609409332275390625</LongitudeDegrees>
            </Position>
            <AltitudeMeters>64.8000030517578125</AltitudeMeters>
            <DistanceMeters>NAN</DistanceMeters>
          </Trackpoint>
          <Trackpoint>
            <Time>2021-08-10T17:30:49.000Z</Time>
            <Position>
              <LatitudeDegrees>43.25432944111526012420654296875</LatitudeDegrees>
              <LongitudeDegrees>-1.68221217580139636993408203125</LongitudeDegrees>
            </Position>
            <AltitudeMeters>65</AltitudeMeters>
            <DistanceMeters>NAN</DistanceMeters>
          </Trackpoint>
          <Trackpoint>
            <Time>2021-08-10T17:30:50.000Z</Time>
            <Position>
              <LatitudeDegrees>43.25430898927152156829833984375</LatitudeDegrees>
              <LongitudeDegrees>-1.68220178224146366119384765625</LongitudeDegrees>
            </Position>
            <AltitudeMeters>65</AltitudeMeters>
            <DistanceMeters>NAN</DistanceMeters>
          </Trackpoint>
          <Trackpoint>
            <Time>2021-08-10T17:30:51.000Z</Time>
            <Position>
              <LatitudeDegrees>43.25429507531225681304931640625</LatitudeDegrees>
              <LongitudeDegrees>-1.68218560516834259033203125</LongitudeDegrees>
            </Position>
            <AltitudeMeters>65.1999969482421875</AltitudeMeters>
            <DistanceMeters>NAN</DistanceMeters>
          </Trackpoint>
          <Trackpoint>
            <Time>2021-08-10T17:30:52.000Z</Time>
            <Position>
              <LatitudeDegrees>43.25428568758070468902587890625</LatitudeDegrees>
              <LongitudeDegrees>-1.68216037563979625701904296875</LongitudeDegrees>
            </Position>
            <AltitudeMeters>65.1999969482421875</AltitudeMeters>
            <DistanceMeters>NAN</DistanceMeters>
          </Trackpoint>
          <Trackpoint>
            <Time>2021-08-10T17:30:53.000Z</Time>
            <Position>
              <LatitudeDegrees>43.2542800717055797576904296875</LatitudeDegrees>
              <LongitudeDegrees>-1.6821421869099140167236328125</LongitudeDegrees>
            </Position>
            <AltitudeMeters>65.1999969482421875</AltitudeMeters>
            <DistanceMeters>NAN</DistanceMeters>
          </Trackpoint>
          <Trackpoint>
            <Time>2021-08-10T17:30:54.000Z</Time>
            <Position>
              <LatitudeDegrees>43.2542763836681842803955078125</LatitudeDegrees>
              <LongitudeDegrees>-1.68211913667619228363037109375</LongitudeDegrees>
            </Position>
            <AltitudeMeters>65.1999969482421875</AltitudeMeters>
            <DistanceMeters>NAN</DistanceMeters>
          </Trackpoint>
          <Trackpoint>
            <Time>2021-08-10T17:30:55.000Z</Time>
            <Position>
              <LatitudeDegrees>43.25427898205816745758056640625</LatitudeDegrees>
              <LongitudeDegrees>-1.68209969066083431243896484375</LongitudeDegrees>
            </Position>
            <AltitudeMeters>65.1999969482421875</AltitudeMeters>
            <DistanceMeters>NAN</DistanceMeters>
          </Trackpoint>
          <Trackpoint>
            <Time>2021-08-10T17:30:56.000Z</Time>
            <Position>
              <LatitudeDegrees>43.25428199954330921173095703125</LatitudeDegrees>
              <LongitudeDegrees>-1.68207722716033458709716796875</LongitudeDegrees>
            </Position>
            <AltitudeMeters>65</AltitudeMeters>
            <DistanceMeters>NAN</DistanceMeters>
          </Trackpoint>
          <Trackpoint>
            <Time>2021-08-10T17:30:57.000Z</Time>
            <Position>
              <LatitudeDegrees>43.25428451411426067352294921875</LatitudeDegrees>
              <LongitudeDegrees>-1.682056523859500885009765625</LongitudeDegrees>
            </Position>
            <AltitudeMeters>64.8000030517578125</AltitudeMeters>
            <DistanceMeters>NAN</DistanceMeters>
          </Trackpoint>
          <Trackpoint>
            <Time>2021-08-10T17:30:58.000Z</Time>
            <Position>
              <LatitudeDegrees>43.25428769923746585845947265625</LatitudeDegrees>
              <LongitudeDegrees>-1.68204805813729763031005859375</LongitudeDegrees>
            </Position>
            <AltitudeMeters>64.40000152587890625</AltitudeMeters>
            <DistanceMeters>NAN</DistanceMeters>
          </Trackpoint>
          <Trackpoint>
            <Time>2021-08-10T17:30:59.000Z</Time>
            <Position>
              <LatitudeDegrees>43.2542897947132587432861328125</LatitudeDegrees>
              <LongitudeDegrees>-1.682045124471187591552734375</LongitudeDegrees>
            </Position>
            <AltitudeMeters>64</AltitudeMeters>
            <DistanceMeters>NAN</DistanceMeters>
          </Trackpoint>
          <Trackpoint>
            <Time>2021-08-10T17:31:03.000Z</Time>
            <Position>
              <LatitudeDegrees>43.2542897947132587432861328125</LatitudeDegrees>
              <LongitudeDegrees>-1.682045124471187591552734375</LongitudeDegrees>
            </Position>
            <AltitudeMeters>63.59999847412109375</AltitudeMeters>
            <DistanceMeters>NAN</DistanceMeters>
          </Trackpoint>
          <Trackpoint>
            <Time>2021-08-10T17:31:07.000Z</Time>
            <Position>
              <LatitudeDegrees>43.2542897947132587432861328125</LatitudeDegrees>
              <LongitudeDegrees>-1.682045124471187591552734375</LongitudeDegrees>
            </Position>
            <AltitudeMeters>63.40000152587890625</AltitudeMeters>
            <DistanceMeters>NAN</DistanceMeters>
          </Trackpoint>
          <Trackpoint>
            <Time>2021-08-11T08:17:53.000Z</Time>
            <Position>
              <LatitudeDegrees>43.25462716631591320037841796875</LatitudeDegrees>
              <LongitudeDegrees>-1.6817489080131053924560546875</LongitudeDegrees>
            </Position>
            <AltitudeMeters>57.200000762939453125</AltitudeMeters>
            <DistanceMeters>NAN</DistanceMeters>
          </Trackpoint>
          <Trackpoint>
            <Time>2021-08-11T08:17:54.000Z</Time>
            <Position>
              <LatitudeDegrees>43.25464795343577861785888671875</LatitudeDegrees>
              <LongitudeDegrees>-1.6817220859229564666748046875</LongitudeDegrees>
            </Position>
            <AltitudeMeters>53</AltitudeMeters>
            <DistanceMeters>NAN</DistanceMeters>
          </Trackpoint>
          <Trackpoint>
            <Time>2021-08-11T08:17:56.000Z</Time>
            <Position>
              <LatitudeDegrees>43.254662118852138519287109375</LatitudeDegrees>
              <LongitudeDegrees>-1.68163667432963848114013671875</LongitudeDegrees>
            </Position>
            <AltitudeMeters>52.799999237060546875</AltitudeMeters>
            <DistanceMeters>NAN</DistanceMeters>
          </Trackpoint>
          <Trackpoint>
            <Time>2021-08-11T08:17:58.000Z</Time>
            <Position>
              <LatitudeDegrees>43.25467578135430812835693359375</LatitudeDegrees>
              <LongitudeDegrees>-1.68154581449925899505615234375</LongitudeDegrees>
            </Position>
            <AltitudeMeters>52.59999847412109375</AltitudeMeters>
            <DistanceMeters>NAN</DistanceMeters>
          </Trackpoint>
          <Trackpoint>
            <Time>2021-08-11T08:18:02.000Z</Time>
            <Position>
              <LatitudeDegrees>43.25471132062375545501708984375</LatitudeDegrees>
              <LongitudeDegrees>-1.68135805986821651458740234375</LongitudeDegrees>
            </Position>
            <AltitudeMeters>52.40000152587890625</AltitudeMeters>
            <DistanceMeters>NAN</DistanceMeters>
          </Trackpoint>
          <Trackpoint>
            <Time>2021-08-11T08:18:03.000Z</Time>
            <Position>
              <LatitudeDegrees>43.25473277829587459564208984375</LatitudeDegrees>
              <LongitudeDegrees>-1.6813153959810733795166015625</LongitudeDegrees>
            </Position>
            <AltitudeMeters>52.200000762939453125</AltitudeMeters>
            <DistanceMeters>NAN</DistanceMeters>
          </Trackpoint>
          <Trackpoint>
            <Time>2021-08-11T08:18:04.000Z</Time>
            <Position>
              <LatitudeDegrees>43.25476110912859439849853515625</LatitudeDegrees>
              <LongitudeDegrees>-1.68127574957907199859619140625</LongitudeDegrees>
            </Position>
            <AltitudeMeters>52</AltitudeMeters>
            <DistanceMeters>NAN</DistanceMeters>
          </Trackpoint>
          <Trackpoint>
            <Time>2021-08-11T08:18:05.000Z</Time>
            <Position>
              <LatitudeDegrees>43.25479312799870967864990234375</LatitudeDegrees>
              <LongitudeDegrees>-1.68124456889927387237548828125</LongitudeDegrees>
            </Position>
            <AltitudeMeters>52.200000762939453125</AltitudeMeters>
            <DistanceMeters>NAN</DistanceMeters>
          </Trackpoint>
          <Trackpoint>
            <Time>2021-08-11T08:18:06.000Z</Time>
            <Position>
              <LatitudeDegrees>43.25482497923076152801513671875</LatitudeDegrees>
              <LongitudeDegrees>-1.68121892027556896209716796875</LongitudeDegrees>
            </Position>
            <AltitudeMeters>52.200000762939453125</AltitudeMeters>
            <DistanceMeters>NAN</DistanceMeters>
          </Trackpoint>
          <Trackpoint>
            <Time>2021-08-11T08:18:07.000Z</Time>
            <Position>
              <LatitudeDegrees>43.25486353598535060882568359375</LatitudeDegrees>
              <LongitudeDegrees>-1.68119796551764011383056640625</LongitudeDegrees>
            </Position>
            <AltitudeMeters>52.200000762939453125</AltitudeMeters>
            <DistanceMeters>NAN</DistanceMeters>
          </Trackpoint>
          <Trackpoint>
            <Time>2021-08-11T08:18:08.000Z</Time>
            <Position>
              <LatitudeDegrees>43.2548891007900238037109375</LatitudeDegrees>
              <LongitudeDegrees>-1.68119209818542003631591796875</LongitudeDegrees>
            </Position>
            <AltitudeMeters>52.200000762939453125</AltitudeMeters>
            <DistanceMeters>NAN</DistanceMeters>
          </Trackpoint>
          <Trackpoint>
            <Time>2021-08-11T08:18:09.000Z</Time>
            <Position>
              <LatitudeDegrees>43.25491902418434619903564453125</LatitudeDegrees>
              <LongitudeDegrees>-1.68119276873767375946044921875</LongitudeDegrees>
            </Position>
            <AltitudeMeters>52.200000762939453125</AltitudeMeters>
            <DistanceMeters>NAN</DistanceMeters>
          </Trackpoint>
          <Trackpoint>
            <Time>2021-08-11T08:18:10.000Z</Time>
            <Position>
              <LatitudeDegrees>43.254946768283843994140625</LatitudeDegrees>
              <LongitudeDegrees>-1.68119645677506923675537109375</LongitudeDegrees>
            </Position>
            <AltitudeMeters>52</AltitudeMeters>
            <DistanceMeters>NAN</DistanceMeters>
          </Trackpoint>
          <Trackpoint>
            <Time>2021-08-11T08:18:11.000Z</Time>
            <Position>
              <LatitudeDegrees>43.25497065670788288116455078125</LatitudeDegrees>
              <LongitudeDegrees>-1.68120701797306537628173828125</LongitudeDegrees>
            </Position>
            <AltitudeMeters>52</AltitudeMeters>
            <DistanceMeters>NAN</DistanceMeters>
          </Trackpoint>
          <Trackpoint>
            <Time>2021-08-11T08:18:12.000Z</Time>
            <Position>
              <LatitudeDegrees>43.25499261729419231414794921875</LatitudeDegrees>
              <LongitudeDegrees>-1.681219674646854400634765625</LongitudeDegrees>
            </Position>
            <AltitudeMeters>52</AltitudeMeters>
            <DistanceMeters>NAN</DistanceMeters>
          </Trackpoint>
          <Trackpoint>
            <Time>2021-08-11T08:18:13.000Z</Time>
            <Position>
              <LatitudeDegrees>43.25501541607081890106201171875</LatitudeDegrees>
              <LongitudeDegrees>-1.681231744587421417236328125</LongitudeDegrees>
            </Position>
            <AltitudeMeters>52</AltitudeMeters>
            <DistanceMeters>NAN</DistanceMeters>
          </Trackpoint>
          <Trackpoint>
            <Time>2021-08-11T08:18:14.000Z</Time>
            <Position>
              <LatitudeDegrees>43.25503804720938205718994140625</LatitudeDegrees>
              <LongitudeDegrees>-1.6812429763376712799072265625</LongitudeDegrees>
            </Position>
            <AltitudeMeters>52</AltitudeMeters>
            <DistanceMeters>NAN</DistanceMeters>
          </Trackpoint>
          <Trackpoint>
            <Time>2021-08-11T08:18:16.000Z</Time>
            <Position>
              <LatitudeDegrees>43.25507509522140026092529296875</LatitudeDegrees>
              <LongitudeDegrees>-1.6812697984278202056884765625</LongitudeDegrees>
            </Position>
            <AltitudeMeters>52</AltitudeMeters>
            <DistanceMeters>NAN</DistanceMeters>
          </Trackpoint>
          <Trackpoint>
            <Time>2021-08-11T08:18:17.000Z</Time>
            <Position>
              <LatitudeDegrees>43.2550944574177265167236328125</LatitudeDegrees>
              <LongitudeDegrees>-1.68128765188157558441162109375</LongitudeDegrees>
            </Position>
            <AltitudeMeters>52</AltitudeMeters>
            <DistanceMeters>NAN</DistanceMeters>
          </Trackpoint>
          <Trackpoint>
            <Time>2021-08-11T08:18:18.000Z</Time>
            <Position>
              <LatitudeDegrees>43.2551132328808307647705078125</LatitudeDegrees>
              <LongitudeDegrees>-1.68130257166922092437744140625</LongitudeDegrees>
            </Position>
            <AltitudeMeters>52</AltitudeMeters>
            <DistanceMeters>NAN</DistanceMeters>
          </Trackpoint>
          <Trackpoint>
            <Time>2021-08-11T08:18:19.000Z</Time>
            <Position>
              <LatitudeDegrees>43.2551296614110469818115234375</LatitudeDegrees>
              <LongitudeDegrees>-1.6813170723617076873779296875</LongitudeDegrees>
            </Position>
            <AltitudeMeters>52</AltitudeMeters>
            <DistanceMeters>NAN</DistanceMeters>
          </Trackpoint>
          <Trackpoint>
            <Time>2021-08-11T08:18:20.000Z</Time>
            <Position>
              <LatitudeDegrees>43.25514726340770721435546875</LatitudeDegrees>
              <LongitudeDegrees>-1.6813304834067821502685546875</LongitudeDegrees>
            </Position>
            <AltitudeMeters>52.200000762939453125</AltitudeMeters>
            <DistanceMeters>NAN</DistanceMeters>
          </Trackpoint>
          <Trackpoint>
            <Time>2021-08-11T08:18:21.000Z</Time>
            <Position>
              <LatitudeDegrees>43.2551625184714794158935546875</LatitudeDegrees>
              <LongitudeDegrees>-1.681345403194427490234375</LongitudeDegrees>
            </Position>
            <AltitudeMeters>52.200000762939453125</AltitudeMeters>
            <DistanceMeters>NAN</DistanceMeters>
          </Trackpoint>
          <Trackpoint>
            <Time>2021-08-11T08:18:22.000Z</Time>
            <Position>
              <LatitudeDegrees>43.25517953373491764068603515625</LatitudeDegrees>
              <LongitudeDegrees>-1.6813603229820728302001953125</LongitudeDegrees>
            </Position>
            <AltitudeMeters>52.200000762939453125</AltitudeMeters>
            <DistanceMeters>NAN</DistanceMeters>
          </Trackpoint>
          <Trackpoint>
            <Time>2021-08-11T08:18:23.000Z</Time>
            <Position>
              <LatitudeDegrees>43.25519730336964130401611328125</LatitudeDegrees>
              <LongitudeDegrees>-1.68137557804584503173828125</LongitudeDegrees>
            </Position>
            <AltitudeMeters>52.200000762939453125</AltitudeMeters>
            <DistanceMeters>NAN</DistanceMeters>
          </Trackpoint>
          <Trackpoint>
            <Time>2021-08-11T08:18:24.000Z</Time>
            <Position>
              <LatitudeDegrees>43.25521389953792095184326171875</LatitudeDegrees>
              <LongitudeDegrees>-1.68139125220477581024169921875</LongitudeDegrees>
            </Position>
            <AltitudeMeters>52.200000762939453125</AltitudeMeters>
            <DistanceMeters>NAN</DistanceMeters>
          </Trackpoint>
          <Trackpoint>
            <Time>2021-08-11T08:18:25.000Z</Time>
            <Position>
              <LatitudeDegrees>43.255230747163295745849609375</LatitudeDegrees>
              <LongitudeDegrees>-1.681406758725643157958984375</LongitudeDegrees>
            </Position>
            <AltitudeMeters>52.200000762939453125</AltitudeMeters>
            <DistanceMeters>NAN</DistanceMeters>
          </Trackpoint>
          <Trackpoint>
            <Time>2021-08-11T08:18:26.000Z</Time>
            <Position>
              <LatitudeDegrees>43.2552486844360828399658203125</LatitudeDegrees>
              <LongitudeDegrees>-1.681418158113956451416015625</LongitudeDegrees>
            </Position>
            <AltitudeMeters>52.200000762939453125</AltitudeMeters>
            <DistanceMeters>NAN</DistanceMeters>
          </Trackpoint>
          <Trackpoint>
            <Time>2021-08-11T08:18:27.000Z</Time>
            <Position>
              <LatitudeDegrees>43.2552657835185527801513671875</LatitudeDegrees>
              <LongitudeDegrees>-1.68142813257873058319091796875</LongitudeDegrees>
            </Position>
            <AltitudeMeters>52.200000762939453125</AltitudeMeters>
            <DistanceMeters>NAN</DistanceMeters>
          </Trackpoint>
          <Trackpoint>
            <Time>2021-08-11T08:18:28.000Z</Time>
            <Position>
              <LatitudeDegrees>43.25528129003942012786865234375</LatitudeDegrees>
              <LongitudeDegrees>-1.6814364306628704071044921875</LongitudeDegrees>
            </Position>
            <AltitudeMeters>52</AltitudeMeters>
            <DistanceMeters>NAN</DistanceMeters>
          </Trackpoint>
          <Trackpoint>
            <Time>2021-08-11T08:18:29.000Z</Time>
            <Position>
              <LatitudeDegrees>43.25529654510319232940673828125</LatitudeDegrees>
              <LongitudeDegrees>-1.6814444772899150848388671875</LongitudeDegrees>
            </Position>
            <AltitudeMeters>52</AltitudeMeters>
            <DistanceMeters>NAN</DistanceMeters>
          </Trackpoint>
          <Trackpoint>
            <Time>2021-08-11T08:18:30.000Z</Time>
            <Position>
              <LatitudeDegrees>43.25531330890953540802001953125</LatitudeDegrees>
              <LongitudeDegrees>-1.68145378120243549346923828125</LongitudeDegrees>
            </Position>
            <AltitudeMeters>52</AltitudeMeters>
            <DistanceMeters>NAN</DistanceMeters>
          </Trackpoint>
          <Trackpoint>
            <Time>2021-08-11T08:18:31.000Z</Time>
            <Position>
              <LatitudeDegrees>43.2553294859826564788818359375</LatitudeDegrees>
              <LongitudeDegrees>-1.68146283365786075592041015625</LongitudeDegrees>
            </Position>
            <AltitudeMeters>52</AltitudeMeters>
            <DistanceMeters>NAN</DistanceMeters>
          </Trackpoint>
          <Trackpoint>
            <Time>2021-08-11T08:18:40.000Z</Time>
            <Position>
              <LatitudeDegrees>43.25551883317530155181884765625</LatitudeDegrees>
              <LongitudeDegrees>-1.681532151997089385986328125</LongitudeDegrees>
            </Position>
            <AltitudeMeters>52</AltitudeMeters>
            <DistanceMeters>NAN</DistanceMeters>
          </Trackpoint>
          <Trackpoint>
            <Time>2021-08-11T08:18:45.000Z</Time>
            <Position>
              <LatitudeDegrees>43.25562067329883575439453125</LatitudeDegrees>
              <LongitudeDegrees>-1.68154128827154636383056640625</LongitudeDegrees>
            </Position>
            <AltitudeMeters>52.200000762939453125</AltitudeMeters>
            <DistanceMeters>NAN</DistanceMeters>
          </Trackpoint>
          <Trackpoint>
            <Time>2021-08-11T08:18:46.000Z</Time>
            <Position>
              <LatitudeDegrees>43.25563886202871799468994140625</LatitudeDegrees>
              <LongitudeDegrees>-1.68153944425284862518310546875</LongitudeDegrees>
            </Position>
            <AltitudeMeters>52.200000762939453125</AltitudeMeters>
            <DistanceMeters>NAN</DistanceMeters>
          </Trackpoint>
          <Trackpoint>
            <Time>2021-08-11T08:18:47.000Z</Time>
            <Position>
              <LatitudeDegrees>43.255659230053424835205078125</LatitudeDegrees>
              <LongitudeDegrees>-1.6815353371202945709228515625</LongitudeDegrees>
            </Position>
            <AltitudeMeters>52.200000762939453125</AltitudeMeters>
            <DistanceMeters>NAN</DistanceMeters>
          </Trackpoint>
          <Trackpoint>
            <Time>2021-08-11T08:18:48.000Z</Time>
            <Position>
              <LatitudeDegrees>43.255678676068782806396484375</LatitudeDegrees>
              <LongitudeDegrees>-1.68153223581612110137939453125</LongitudeDegrees>
            </Position>
            <AltitudeMeters>52.200000762939453125</AltitudeMeters>
            <DistanceMeters>NAN</DistanceMeters>
          </Trackpoint>
          <Trackpoint>
            <Time>2021-08-11T08:18:49.000Z</Time>
            <Position>
              <LatitudeDegrees>43.2556959427893161773681640625</LatitudeDegrees>
              <LongitudeDegrees>-1.6815269552171230316162109375</LongitudeDegrees>
            </Position>
            <AltitudeMeters>52.200000762939453125</AltitudeMeters>
            <DistanceMeters>NAN</DistanceMeters>
          </Trackpoint>
          <Trackpoint>
            <Time>2021-08-11T08:18:50.000Z</Time>
            <Position>
              <LatitudeDegrees>43.25571379624307155609130859375</LatitudeDegrees>
              <LongitudeDegrees>-1.68151631020009517669677734375</LongitudeDegrees>
            </Position>
            <AltitudeMeters>52.200000762939453125</AltitudeMeters>
            <DistanceMeters>NAN</DistanceMeters>
          </Trackpoint>
          <Trackpoint>
            <Time>2021-08-11T08:18:51.000Z</Time>
            <Position>
              <LatitudeDegrees>43.2557324878871440887451171875</LatitudeDegrees>
              <LongitudeDegrees>-1.681499965488910675048828125</LongitudeDegrees>
            </Position>
            <AltitudeMeters>52.200000762939453125</AltitudeMeters>
            <DistanceMeters>NAN</DistanceMeters>
          </Trackpoint>
          <Trackpoint>
            <Time>2021-08-11T08:18:52.000Z</Time>
            <Position>
              <LatitudeDegrees>43.25574883259832859039306640625</LatitudeDegrees>
              <LongitudeDegrees>-1.68149032630026340484619140625</LongitudeDegrees>
            </Position>
            <AltitudeMeters>52.200000762939453125</AltitudeMeters>
            <DistanceMeters>NAN</DistanceMeters>
          </Trackpoint>
          <Trackpoint>
            <Time>2021-08-11T08:18:53.000Z</Time>
            <Position>
              <LatitudeDegrees>43.25577029027044773101806640625</LatitudeDegrees>
              <LongitudeDegrees>-1.68148529715836048126220703125</LongitudeDegrees>
            </Position>
            <AltitudeMeters>52.200000762939453125</AltitudeMeters>
            <DistanceMeters>NAN</DistanceMeters>
          </Trackpoint>
          <Trackpoint>
            <Time>2021-08-11T08:18:54.000Z</Time>
            <Position>
              <LatitudeDegrees>43.25579292140901088714599609375</LatitudeDegrees>
              <LongitudeDegrees>-1.6814754903316497802734375</LongitudeDegrees>
            </Position>
            <AltitudeMeters>52.200000762939453125</AltitudeMeters>
            <DistanceMeters>NAN</DistanceMeters>
          </Trackpoint>
          <Trackpoint>
            <Time>2021-08-11T08:19:01.000Z</Time>
            <Position>
              <LatitudeDegrees>43.255923092365264892578125</LatitudeDegrees>
              <LongitudeDegrees>-1.6814055852591991424560546875</LongitudeDegrees>
            </Position>
            <AltitudeMeters>52.200000762939453125</AltitudeMeters>
            <DistanceMeters>NAN</DistanceMeters>
          </Trackpoint>
          <Trackpoint>
            <Time>2021-08-11T08:19:02.000Z</Time>
            <Position>
              <LatitudeDegrees>43.25593650341033935546875</LatitudeDegrees>
              <LongitudeDegrees>-1.681404411792755126953125</LongitudeDegrees>
            </Position>
            <AltitudeMeters>52.200000762939453125</AltitudeMeters>
            <DistanceMeters>NAN</DistanceMeters>
          </Trackpoint>
          <Trackpoint>
            <Time>2021-08-11T08:19:04.000Z</Time>
            <Position>
              <LatitudeDegrees>43.25596625916659832000732421875</LatitudeDegrees>
              <LongitudeDegrees>-1.68139913119375705718994140625</LongitudeDegrees>
            </Position>
            <AltitudeMeters>52.200000762939453125</AltitudeMeters>
            <DistanceMeters>NAN</DistanceMeters>
          </Trackpoint>
          <Trackpoint>
            <Time>2021-08-11T08:19:05.000Z</Time>
            <Position>
              <LatitudeDegrees>43.25598252005875110626220703125</LatitudeDegrees>
              <LongitudeDegrees>-1.68138898909091949462890625</LongitudeDegrees>
            </Position>
            <AltitudeMeters>52.200000762939453125</AltitudeMeters>
            <DistanceMeters>NAN</DistanceMeters>
          </Trackpoint>
          <Trackpoint>
            <Time>2021-08-11T08:19:06.000Z</Time>
            <Position>
              <LatitudeDegrees>43.25600179843604564666748046875</LatitudeDegrees>
              <LongitudeDegrees>-1.68138027191162109375</LongitudeDegrees>
            </Position>
            <AltitudeMeters>52.200000762939453125</AltitudeMeters>
            <DistanceMeters>NAN</DistanceMeters>
          </Trackpoint>
          <Trackpoint>
            <Time>2021-08-11T08:19:15.000Z</Time>
            <Position>
              <LatitudeDegrees>43.2561884634196758270263671875</LatitudeDegrees>
              <LongitudeDegrees>-1.681286729872226715087890625</LongitudeDegrees>
            </Position>
            <AltitudeMeters>52.40000152587890625</AltitudeMeters>
            <DistanceMeters>NAN</DistanceMeters>
          </Trackpoint>
          <Trackpoint>
            <Time>2021-08-11T08:19:18.000Z</Time>
            <Position>
              <LatitudeDegrees>43.25623758137226104736328125</LatitudeDegrees>
              <LongitudeDegrees>-1.6812490113079547882080078125</LongitudeDegrees>
            </Position>
            <AltitudeMeters>52.40000152587890625</AltitudeMeters>
            <DistanceMeters>NAN</DistanceMeters>
          </Trackpoint>
          <Trackpoint>
            <Time>2021-08-11T08:19:19.000Z</Time>
            <Position>
              <LatitudeDegrees>43.25625007040798664093017578125</LatitudeDegrees>
              <LongitudeDegrees>-1.6812339238822460174560546875</LongitudeDegrees>
            </Position>
            <AltitudeMeters>52.40000152587890625</AltitudeMeters>
            <DistanceMeters>NAN</DistanceMeters>
          </Trackpoint>
          <Trackpoint>
            <Time>2021-08-11T08:19:20.000Z</Time>
            <Position>
              <LatitudeDegrees>43.25626934878528118133544921875</LatitudeDegrees>
              <LongitudeDegrees>-1.68122009374201297760009765625</LongitudeDegrees>
            </Position>
            <AltitudeMeters>52.40000152587890625</AltitudeMeters>
            <DistanceMeters>NAN</DistanceMeters>
          </Trackpoint>
          <Trackpoint>
            <Time>2021-08-11T08:19:21.000Z</Time>
            <Position>
              <LatitudeDegrees>43.25629793107509613037109375</LatitudeDegrees>
              <LongitudeDegrees>-1.6811977140605449676513671875</LongitudeDegrees>
            </Position>
            <AltitudeMeters>52.40000152587890625</AltitudeMeters>
            <DistanceMeters>NAN</DistanceMeters>
          </Trackpoint>
          <Trackpoint>
            <Time>2021-08-11T08:19:22.000Z</Time>
            <Position>
              <LatitudeDegrees>43.25632114894688129425048828125</LatitudeDegrees>
              <LongitudeDegrees>-1.681178770959377288818359375</LongitudeDegrees>
            </Position>
            <AltitudeMeters>52.40000152587890625</AltitudeMeters>
            <DistanceMeters>NAN</DistanceMeters>
          </Trackpoint>
          <Trackpoint>
            <Time>2021-08-11T08:19:25.000Z</Time>
            <Position>
              <LatitudeDegrees>43.25638803653419017791748046875</LatitudeDegrees>
              <LongitudeDegrees>-1.681142561137676239013671875</LongitudeDegrees>
            </Position>
            <AltitudeMeters>52.200000762939453125</AltitudeMeters>
            <DistanceMeters>NAN</DistanceMeters>
          </Trackpoint>
          <Trackpoint>
            <Time>2021-08-11T08:19:26.000Z</Time>
            <Position>
              <LatitudeDegrees>43.25640857219696044921875</LatitudeDegrees>
              <LongitudeDegrees>-1.68113761581480503082275390625</LongitudeDegrees>
            </Position>
            <AltitudeMeters>52.40000152587890625</AltitudeMeters>
            <DistanceMeters>NAN</DistanceMeters>
          </Trackpoint>
          <Trackpoint>
            <Time>2021-08-11T08:19:27.000Z</Time>
            <Position>
              <LatitudeDegrees>43.256432376801967620849609375</LatitudeDegrees>
              <LongitudeDegrees>-1.6811236180365085601806640625</LongitudeDegrees>
            </Position>
            <AltitudeMeters>52.200000762939453125</AltitudeMeters>
            <DistanceMeters>NAN</DistanceMeters>
          </Trackpoint>
          <Trackpoint>
            <Time>2021-08-11T08:19:29.000Z</Time>
            <Position>
              <LatitudeDegrees>43.2565049640834331512451171875</LatitudeDegrees>
              <LongitudeDegrees>-1.68110140599310398101806640625</LongitudeDegrees>
            </Position>
            <AltitudeMeters>52.200000762939453125</AltitudeMeters>
            <DistanceMeters>NAN</DistanceMeters>
          </Trackpoint>
          <Trackpoint>
            <Time>2021-08-11T08:19:30.000Z</Time>
            <Position>
              <LatitudeDegrees>43.2565351389348506927490234375</LatitudeDegrees>
              <LongitudeDegrees>-1.681088246405124664306640625</LongitudeDegrees>
            </Position>
            <AltitudeMeters>52.200000762939453125</AltitudeMeters>
            <DistanceMeters>NAN</DistanceMeters>
          </Trackpoint>
          <Trackpoint>
            <Time>2021-08-11T08:19:37.000Z</Time>
            <Position>
              <LatitudeDegrees>43.25674477033317089080810546875</LatitudeDegrees>
              <LongitudeDegrees>-1.6810233704745769500732421875</LongitudeDegrees>
            </Position>
            <AltitudeMeters>52</AltitudeMeters>
            <DistanceMeters>NAN</DistanceMeters>
          </Trackpoint>
          <Trackpoint>
            <Time>2021-08-11T08:19:38.000Z</Time>
            <Position>
              <LatitudeDegrees>43.2567681558430194854736328125</LatitudeDegrees>
              <LongitudeDegrees>-1.68101138435304164886474609375</LongitudeDegrees>
            </Position>
            <AltitudeMeters>52</AltitudeMeters>
            <DistanceMeters>NAN</DistanceMeters>
          </Trackpoint>
          <Trackpoint>
            <Time>2021-08-11T08:19:39.000Z</Time>
            <Position>
              <LatitudeDegrees>43.2567939721047878265380859375</LatitudeDegrees>
              <LongitudeDegrees>-1.68099545873701572418212890625</LongitudeDegrees>
            </Position>
            <AltitudeMeters>51.799999237060546875</AltitudeMeters>
            <DistanceMeters>NAN</DistanceMeters>
          </Trackpoint>
          <Trackpoint>
            <Time>2021-08-11T08:19:41.000Z</Time>
            <Position>
              <LatitudeDegrees>43.25685675255954265594482421875</LatitudeDegrees>
              <LongitudeDegrees>-1.68098665773868560791015625</LongitudeDegrees>
            </Position>
            <AltitudeMeters>51.799999237060546875</AltitudeMeters>
            <DistanceMeters>NAN</DistanceMeters>
          </Trackpoint>
          <Trackpoint>
            <Time>2021-08-11T08:19:42.000Z</Time>
            <Position>
              <LatitudeDegrees>43.25689740478992462158203125</LatitudeDegrees>
              <LongitudeDegrees>-1.68099512346088886260986328125</LongitudeDegrees>
            </Position>
            <AltitudeMeters>51.799999237060546875</AltitudeMeters>
            <DistanceMeters>NAN</DistanceMeters>
          </Trackpoint>
          <Trackpoint>
            <Time>2021-08-11T08:19:43.000Z</Time>
            <Position>
              <LatitudeDegrees>43.256931938230991363525390625</LatitudeDegrees>
              <LongitudeDegrees>-1.68099864386022090911865234375</LongitudeDegrees>
            </Position>
            <AltitudeMeters>51.59999847412109375</AltitudeMeters>
            <DistanceMeters>NAN</DistanceMeters>
          </Trackpoint>
          <Trackpoint>
            <Time>2021-08-11T08:19:49.000Z</Time>
            <Position>
              <LatitudeDegrees>43.25710125267505645751953125</LatitudeDegrees>
              <LongitudeDegrees>-1.6809660382568836212158203125</LongitudeDegrees>
            </Position>
            <AltitudeMeters>52.200000762939453125</AltitudeMeters>
            <DistanceMeters>NAN</DistanceMeters>
          </Trackpoint>
          <Trackpoint>
            <Time>2021-08-11T08:19:50.000Z</Time>
            <Position>
              <LatitudeDegrees>43.25712396763265132904052734375</LatitudeDegrees>
              <LongitudeDegrees>-1.6809546388685703277587890625</LongitudeDegrees>
            </Position>
            <AltitudeMeters>52.40000152587890625</AltitudeMeters>
            <DistanceMeters>NAN</DistanceMeters>
          </Trackpoint>
          <Trackpoint>
            <Time>2021-08-11T08:19:51.000Z</Time>
            <Position>
              <LatitudeDegrees>43.257148526608943939208984375</LatitudeDegrees>
              <LongitudeDegrees>-1.68094516731798648834228515625</LongitudeDegrees>
            </Position>
            <AltitudeMeters>52.799999237060546875</AltitudeMeters>
            <DistanceMeters>NAN</DistanceMeters>
          </Trackpoint>
          <Trackpoint>
            <Time>2021-08-11T08:19:52.000Z</Time>
            <Position>
              <LatitudeDegrees>43.257176689803600311279296875</LatitudeDegrees>
              <LongitudeDegrees>-1.680927984416484832763671875</LongitudeDegrees>
            </Position>
            <AltitudeMeters>52.799999237060546875</AltitudeMeters>
            <DistanceMeters>NAN</DistanceMeters>
          </Trackpoint>
          <Trackpoint>
            <Time>2021-08-11T08:19:53.000Z</Time>
            <Position>
              <LatitudeDegrees>43.25720694847404956817626953125</LatitudeDegrees>
              <LongitudeDegrees>-1.6809100471436977386474609375</LongitudeDegrees>
            </Position>
            <AltitudeMeters>53.200000762939453125</AltitudeMeters>
            <DistanceMeters>NAN</DistanceMeters>
          </Trackpoint>
          <Trackpoint>
            <Time>2021-08-11T08:19:54.000Z</Time>
            <Position>
              <LatitudeDegrees>43.257236368954181671142578125</LatitudeDegrees>
              <LongitudeDegrees>-1.68088850565254688262939453125</LongitudeDegrees>
            </Position>
            <AltitudeMeters>53.40000152587890625</AltitudeMeters>
            <DistanceMeters>NAN</DistanceMeters>
          </Trackpoint>
          <Trackpoint>
            <Time>2021-08-11T08:19:55.000Z</Time>
            <Position>
              <LatitudeDegrees>43.25726578943431377410888671875</LatitudeDegrees>
              <LongitudeDegrees>-1.68086470104753971099853515625</LongitudeDegrees>
            </Position>
            <AltitudeMeters>53.59999847412109375</AltitudeMeters>
            <DistanceMeters>NAN</DistanceMeters>
          </Trackpoint>
          <Trackpoint>
            <Time>2021-08-11T08:19:56.000Z</Time>
            <Position>
              <LatitudeDegrees>43.25729512609541416168212890625</LatitudeDegrees>
              <LongitudeDegrees>-1.68084676377475261688232421875</LongitudeDegrees>
            </Position>
            <AltitudeMeters>53.59999847412109375</AltitudeMeters>
            <DistanceMeters>NAN</DistanceMeters>
          </Trackpoint>
          <Trackpoint>
            <Time>2021-08-11T08:19:57.000Z</Time>
            <Position>
              <LatitudeDegrees>43.25732748024165630340576171875</LatitudeDegrees>
              <LongitudeDegrees>-1.6808285750448703765869140625</LongitudeDegrees>
            </Position>
            <AltitudeMeters>54</AltitudeMeters>
            <DistanceMeters>NAN</DistanceMeters>
          </Trackpoint>
          <Trackpoint>
            <Time>2021-08-11T08:19:59.000Z</Time>
            <Position>
              <LatitudeDegrees>43.2573840580880641937255859375</LatitudeDegrees>
              <LongitudeDegrees>-1.680820025503635406494140625</LongitudeDegrees>
            </Position>
            <AltitudeMeters>54.40000152587890625</AltitudeMeters>
            <DistanceMeters>NAN</DistanceMeters>
          </Trackpoint>
          <Trackpoint>
            <Time>2021-08-11T08:20:00.000Z</Time>
            <Position>
              <LatitudeDegrees>43.25740677304565906524658203125</LatitudeDegrees>
              <LongitudeDegrees>-1.6808103024959564208984375</LongitudeDegrees>
            </Position>
            <AltitudeMeters>54.59999847412109375</AltitudeMeters>
            <DistanceMeters>NAN</DistanceMeters>
          </Trackpoint>
          <Trackpoint>
            <Time>2021-08-11T08:20:01.000Z</Time>
            <Position>
              <LatitudeDegrees>43.25743057765066623687744140625</LatitudeDegrees>
              <LongitudeDegrees>-1.68079345487058162689208984375</LongitudeDegrees>
            </Position>
            <AltitudeMeters>54.59999847412109375</AltitudeMeters>
            <DistanceMeters>NAN</DistanceMeters>
          </Trackpoint>
          <Trackpoint>
            <Time>2021-08-11T08:20:03.000Z</Time>
            <Position>
              <LatitudeDegrees>43.25748858042061328887939453125</LatitudeDegrees>
              <LongitudeDegrees>-1.6807430796325206756591796875</LongitudeDegrees>
            </Position>
            <AltitudeMeters>54.799999237060546875</AltitudeMeters>
            <DistanceMeters>NAN</DistanceMeters>
          </Trackpoint>
          <Trackpoint>
            <Time>2021-08-11T08:20:04.000Z</Time>
            <Position>
              <LatitudeDegrees>43.25751573778688907623291015625</LatitudeDegrees>
              <LongitudeDegrees>-1.68072455562651157379150390625</LongitudeDegrees>
            </Position>
            <AltitudeMeters>54.799999237060546875</AltitudeMeters>
            <DistanceMeters>NAN</DistanceMeters>
          </Trackpoint>
          <Trackpoint>
            <Time>2021-08-11T08:20:05.000Z</Time>
            <Position>
              <LatitudeDegrees>43.25754054822027683258056640625</LatitudeDegrees>
              <LongitudeDegrees>-1.6807102225720882415771484375</LongitudeDegrees>
            </Position>
            <AltitudeMeters>54.799999237060546875</AltitudeMeters>
            <DistanceMeters>NAN</DistanceMeters>
          </Trackpoint>
          <Trackpoint>
            <Time>2021-08-11T08:20:06.000Z</Time>
            <Position>
              <LatitudeDegrees>43.25756167061626911163330078125</LatitudeDegrees>
              <LongitudeDegrees>-1.6807043552398681640625</LongitudeDegrees>
            </Position>
            <AltitudeMeters>55</AltitudeMeters>
            <DistanceMeters>NAN</DistanceMeters>
          </Trackpoint>
          <Trackpoint>
            <Time>2021-08-11T08:20:07.000Z</Time>
            <Position>
              <LatitudeDegrees>43.25758430175483226776123046875</LatitudeDegrees>
              <LongitudeDegrees>-1.680694632232189178466796875</LongitudeDegrees>
            </Position>
            <AltitudeMeters>55</AltitudeMeters>
            <DistanceMeters>NAN</DistanceMeters>
          </Trackpoint>
          <Trackpoint>
            <Time>2021-08-11T08:20:08.000Z</Time>
            <Position>
              <LatitudeDegrees>43.2576066814363002777099609375</LatitudeDegrees>
              <LongitudeDegrees>-1.680688597261905670166015625</LongitudeDegrees>
            </Position>
            <AltitudeMeters>55</AltitudeMeters>
            <DistanceMeters>NAN</DistanceMeters>
          </Trackpoint>
          <Trackpoint>
            <Time>2021-08-11T08:20:09.000Z</Time>
            <Position>
              <LatitudeDegrees>43.25763241387903690338134765625</LatitudeDegrees>
              <LongitudeDegrees>-1.68068197555840015411376953125</LongitudeDegrees>
            </Position>
            <AltitudeMeters>55.200000762939453125</AltitudeMeters>
            <DistanceMeters>NAN</DistanceMeters>
          </Trackpoint>
          <Trackpoint>
            <Time>2021-08-11T08:20:10.000Z</Time>
            <Position>
              <LatitudeDegrees>43.25765823014080524444580078125</LatitudeDegrees>
              <LongitudeDegrees>-1.6806763596832752227783203125</LongitudeDegrees>
            </Position>
            <AltitudeMeters>55.200000762939453125</AltitudeMeters>
            <DistanceMeters>NAN</DistanceMeters>
          </Trackpoint>
          <Trackpoint>
            <Time>2021-08-11T08:20:11.000Z</Time>
            <Position>
              <LatitudeDegrees>43.25768857263028621673583984375</LatitudeDegrees>
              <LongitudeDegrees>-1.680677197873592376708984375</LongitudeDegrees>
            </Position>
            <AltitudeMeters>55.200000762939453125</AltitudeMeters>
            <DistanceMeters>NAN</DistanceMeters>
          </Trackpoint>
          <Trackpoint>
            <Time>2021-08-11T08:20:12.000Z</Time>
            <Position>
              <LatitudeDegrees>43.2577226869761943817138671875</LatitudeDegrees>
              <LongitudeDegrees>-1.680666469037532806396484375</LongitudeDegrees>
            </Position>
            <AltitudeMeters>55.200000762939453125</AltitudeMeters>
            <DistanceMeters>NAN</DistanceMeters>
          </Trackpoint>
          <Trackpoint>
            <Time>2021-08-11T08:20:13.000Z</Time>
            <Position>
              <LatitudeDegrees>43.25775797478854656219482421875</LatitudeDegrees>
              <LongitudeDegrees>-1.68065247125923633575439453125</LongitudeDegrees>
            </Position>
            <AltitudeMeters>55.200000762939453125</AltitudeMeters>
            <DistanceMeters>NAN</DistanceMeters>
          </Trackpoint>
          <Trackpoint>
            <Time>2021-08-11T08:20:14.000Z</Time>
            <Position>
              <LatitudeDegrees>43.2577884010970592498779296875</LatitudeDegrees>
              <LongitudeDegrees>-1.680648028850555419921875</LongitudeDegrees>
            </Position>
            <AltitudeMeters>55.200000762939453125</AltitudeMeters>
            <DistanceMeters>NAN</DistanceMeters>
          </Trackpoint>
          <Trackpoint>
            <Time>2021-08-11T08:20:15.000Z</Time>
            <Position>
              <LatitudeDegrees>43.25781815685331821441650390625</LatitudeDegrees>
              <LongitudeDegrees>-1.68063671328127384185791015625</LongitudeDegrees>
            </Position>
            <AltitudeMeters>55.200000762939453125</AltitudeMeters>
            <DistanceMeters>NAN</DistanceMeters>
          </Trackpoint>
          <Trackpoint>
            <Time>2021-08-11T08:20:16.000Z</Time>
            <Position>
              <LatitudeDegrees>43.25784933753311634063720703125</LatitudeDegrees>
              <LongitudeDegrees>-1.6806243918836116790771484375</LongitudeDegrees>
            </Position>
            <AltitudeMeters>55.200000762939453125</AltitudeMeters>
            <DistanceMeters>NAN</DistanceMeters>
          </Trackpoint>
          <Trackpoint>
            <Time>2021-08-11T08:20:18.000Z</Time>
            <Position>
              <LatitudeDegrees>43.257904238998889923095703125</LatitudeDegrees>
              <LongitudeDegrees>-1.68060687370598316192626953125</LongitudeDegrees>
            </Position>
            <AltitudeMeters>55.40000152587890625</AltitudeMeters>
            <DistanceMeters>NAN</DistanceMeters>
          </Trackpoint>
          <Trackpoint>
            <Time>2021-08-11T08:20:19.000Z</Time>
            <Position>
              <LatitudeDegrees>43.2579288817942142486572265625</LatitudeDegrees>
              <LongitudeDegrees>-1.68059505522251129150390625</LongitudeDegrees>
            </Position>
            <AltitudeMeters>55.40000152587890625</AltitudeMeters>
            <DistanceMeters>NAN</DistanceMeters>
          </Trackpoint>
          <Trackpoint>
            <Time>2021-08-11T08:20:25.000Z</Time>
            <Position>
              <LatitudeDegrees>43.25806709937751293182373046875</LatitudeDegrees>
              <LongitudeDegrees>-1.6805150918662548065185546875</LongitudeDegrees>
            </Position>
            <AltitudeMeters>55.59999847412109375</AltitudeMeters>
            <DistanceMeters>NAN</DistanceMeters>
          </Trackpoint>
          <Trackpoint>
            <Time>2021-08-11T08:20:26.000Z</Time>
            <Position>
              <LatitudeDegrees>43.25809442438185214996337890625</LatitudeDegrees>
              <LongitudeDegrees>-1.6805060394108295440673828125</LongitudeDegrees>
            </Position>
            <AltitudeMeters>55.59999847412109375</AltitudeMeters>
            <DistanceMeters>NAN</DistanceMeters>
          </Trackpoint>
          <Trackpoint>
            <Time>2021-08-11T08:20:27.000Z</Time>
            <Position>
              <LatitudeDegrees>43.25812107883393764495849609375</LatitudeDegrees>
              <LongitudeDegrees>-1.68049388565123081207275390625</LongitudeDegrees>
            </Position>
            <AltitudeMeters>55.799999237060546875</AltitudeMeters>
            <DistanceMeters>NAN</DistanceMeters>
          </Trackpoint>
          <Trackpoint>
            <Time>2021-08-11T08:20:28.000Z</Time>
            <Position>
              <LatitudeDegrees>43.25814790092408657073974609375</LatitudeDegrees>
              <LongitudeDegrees>-1.6804852522909641265869140625</LongitudeDegrees>
            </Position>
            <AltitudeMeters>55.799999237060546875</AltitudeMeters>
            <DistanceMeters>NAN</DistanceMeters>
          </Trackpoint>
          <Trackpoint>
            <Time>2021-08-11T08:20:29.000Z</Time>
            <Position>
              <LatitudeDegrees>43.25817388482391834259033203125</LatitudeDegrees>
              <LongitudeDegrees>-1.68047796003520488739013671875</LongitudeDegrees>
            </Position>
            <AltitudeMeters>55.799999237060546875</AltitudeMeters>
            <DistanceMeters>NAN</DistanceMeters>
          </Trackpoint>
          <Trackpoint>
            <Time>2021-08-11T08:20:30.000Z</Time>
            <Position>
              <LatitudeDegrees>43.2582004554569721221923828125</LatitudeDegrees>
              <LongitudeDegrees>-1.680465303361415863037109375</LongitudeDegrees>
            </Position>
            <AltitudeMeters>55.799999237060546875</AltitudeMeters>
            <DistanceMeters>NAN</DistanceMeters>
          </Trackpoint>
          <Trackpoint>
            <Time>2021-08-11T08:20:31.000Z</Time>
            <Position>
              <LatitudeDegrees>43.25821663253009319305419921875</LatitudeDegrees>
              <LongitudeDegrees>-1.68045499362051486968994140625</LongitudeDegrees>
            </Position>
            <AltitudeMeters>55.799999237060546875</AltitudeMeters>
            <DistanceMeters>NAN</DistanceMeters>
          </Trackpoint>
          <Trackpoint>
            <Time>2021-08-11T08:20:32.000Z</Time>
            <Position>
              <LatitudeDegrees>43.25823876075446605682373046875</LatitudeDegrees>
              <LongitudeDegrees>-1.68044510297477245330810546875</LongitudeDegrees>
            </Position>
            <AltitudeMeters>55.799999237060546875</AltitudeMeters>
            <DistanceMeters>NAN</DistanceMeters>
          </Trackpoint>
          <Trackpoint>
            <Time>2021-08-11T08:20:34.000Z</Time>
            <Position>
              <LatitudeDegrees>43.25829307548701763153076171875</LatitudeDegrees>
              <LongitudeDegrees>-1.6804213821887969970703125</LongitudeDegrees>
            </Position>
            <AltitudeMeters>55.799999237060546875</AltitudeMeters>
            <DistanceMeters>NAN</DistanceMeters>
          </Trackpoint>
          <Trackpoint>
            <Time>2021-08-11T08:20:37.000Z</Time>
            <Position>
              <LatitudeDegrees>43.25840824283659458160400390625</LatitudeDegrees>
              <LongitudeDegrees>-1.68035357259213924407958984375</LongitudeDegrees>
            </Position>
            <AltitudeMeters>55.799999237060546875</AltitudeMeters>
            <DistanceMeters>NAN</DistanceMeters>
          </Trackpoint>
          <Trackpoint>
            <Time>2021-08-11T08:20:39.000Z</Time>
            <Position>
              <LatitudeDegrees>43.258492313325405120849609375</LatitudeDegrees>
              <LongitudeDegrees>-1.68029707856476306915283203125</LongitudeDegrees>
            </Position>
            <AltitudeMeters>55.799999237060546875</AltitudeMeters>
            <DistanceMeters>NAN</DistanceMeters>
          </Trackpoint>
          <Trackpoint>
            <Time>2021-08-11T08:20:40.000Z</Time>
            <Position>
              <LatitudeDegrees>43.2585340552031993865966796875</LatitudeDegrees>
              <LongitudeDegrees>-1.6802653111517429351806640625</LongitudeDegrees>
            </Position>
            <AltitudeMeters>55.799999237060546875</AltitudeMeters>
            <DistanceMeters>NAN</DistanceMeters>
          </Trackpoint>
          <Trackpoint>
            <Time>2021-08-11T08:20:42.000Z</Time>
            <Position>
              <LatitudeDegrees>43.25861292891204357147216796875</LatitudeDegrees>
              <LongitudeDegrees>-1.680209822952747344970703125</LongitudeDegrees>
            </Position>
            <AltitudeMeters>56</AltitudeMeters>
            <DistanceMeters>NAN</DistanceMeters>
          </Trackpoint>
          <Trackpoint>
            <Time>2021-08-11T08:20:43.000Z</Time>
            <Position>
              <LatitudeDegrees>43.25865366496145725250244140625</LatitudeDegrees>
              <LongitudeDegrees>-1.68021862395107746124267578125</LongitudeDegrees>
            </Position>
            <AltitudeMeters>56</AltitudeMeters>
            <DistanceMeters>NAN</DistanceMeters>
          </Trackpoint>
          <Trackpoint>
            <Time>2021-08-11T08:20:44.000Z</Time>
            <Position>
              <LatitudeDegrees>43.25868166051805019378662109375</LatitudeDegrees>
              <LongitudeDegrees>-1.6801999323070049285888671875</LongitudeDegrees>
            </Position>
            <AltitudeMeters>56.200000762939453125</AltitudeMeters>
            <DistanceMeters>NAN</DistanceMeters>
          </Trackpoint>
          <Trackpoint>
            <Time>2021-08-11T08:20:46.000Z</Time>
            <Position>
              <LatitudeDegrees>43.2587670721113681793212890625</LatitudeDegrees>
              <LongitudeDegrees>-1.680159866809844970703125</LongitudeDegrees>
            </Position>
            <AltitudeMeters>56.40000152587890625</AltitudeMeters>
            <DistanceMeters>NAN</DistanceMeters>
          </Trackpoint>
          <Trackpoint>
            <Time>2021-08-11T08:20:47.000Z</Time>
            <Position>
              <LatitudeDegrees>43.25880470685660839080810546875</LatitudeDegrees>
              <LongitudeDegrees>-1.680150814354419708251953125</LongitudeDegrees>
            </Position>
            <AltitudeMeters>56.40000152587890625</AltitudeMeters>
            <DistanceMeters>NAN</DistanceMeters>
          </Trackpoint>
          <Trackpoint>
            <Time>2021-08-11T08:20:49.000Z</Time>
            <Position>
              <LatitudeDegrees>43.2588814012706279754638671875</LatitudeDegrees>
              <LongitudeDegrees>-1.6801348887383937835693359375</LongitudeDegrees>
            </Position>
            <AltitudeMeters>56.40000152587890625</AltitudeMeters>
            <DistanceMeters>NAN</DistanceMeters>
          </Trackpoint>
          <Trackpoint>
            <Time>2021-08-11T08:20:54.000Z</Time>
            <Position>
              <LatitudeDegrees>43.25914870016276836395263671875</LatitudeDegrees>
              <LongitudeDegrees>-1.68009859509766101837158203125</LongitudeDegrees>
            </Position>
            <AltitudeMeters>56.59999847412109375</AltitudeMeters>
            <DistanceMeters>NAN</DistanceMeters>
          </Trackpoint>
          <Trackpoint>
            <Time>2021-08-11T08:20:55.000Z</Time>
            <Position>
              <LatitudeDegrees>43.2592042721807956695556640625</LatitudeDegrees>
              <LongitudeDegrees>-1.68010463006794452667236328125</LongitudeDegrees>
            </Position>
            <AltitudeMeters>56.59999847412109375</AltitudeMeters>
            <DistanceMeters>NAN</DistanceMeters>
          </Trackpoint>
          <Trackpoint>
            <Time>2021-08-11T08:20:56.000Z</Time>
            <Position>
              <LatitudeDegrees>43.25925908982753753662109375</LatitudeDegrees>
              <LongitudeDegrees>-1.68011921457946300506591796875</LongitudeDegrees>
            </Position>
            <AltitudeMeters>56.59999847412109375</AltitudeMeters>
            <DistanceMeters>NAN</DistanceMeters>
          </Trackpoint>
          <Trackpoint>
            <Time>2021-08-11T08:20:57.000Z</Time>
            <Position>
              <LatitudeDegrees>43.2593102194368839263916015625</LatitudeDegrees>
              <LongitudeDegrees>-1.68014016933739185333251953125</LongitudeDegrees>
            </Position>
            <AltitudeMeters>56.59999847412109375</AltitudeMeters>
            <DistanceMeters>NAN</DistanceMeters>
          </Trackpoint>
          <Trackpoint>
            <Time>2021-08-11T08:20:58.000Z</Time>
            <Position>
              <LatitudeDegrees>43.25935564935207366943359375</LatitudeDegrees>
              <LongitudeDegrees>-1.68016397394239902496337890625</LongitudeDegrees>
            </Position>
            <AltitudeMeters>56.59999847412109375</AltitudeMeters>
            <DistanceMeters>NAN</DistanceMeters>
          </Trackpoint>
          <Trackpoint>
            <Time>2021-08-11T08:20:59.000Z</Time>
            <Position>
              <LatitudeDegrees>43.2593898475170135498046875</LatitudeDegrees>
              <LongitudeDegrees>-1.68018995784223079681396484375</LongitudeDegrees>
            </Position>
            <AltitudeMeters>56.59999847412109375</AltitudeMeters>
            <DistanceMeters>NAN</DistanceMeters>
          </Trackpoint>
          <Trackpoint>
            <Time>2021-08-11T08:21:00.000Z</Time>
            <Position>
              <LatitudeDegrees>43.2594171725213527679443359375</LatitudeDegrees>
              <LongitudeDegrees>-1.68020957149565219879150390625</LongitudeDegrees>
            </Position>
            <AltitudeMeters>56.799999237060546875</AltitudeMeters>
            <DistanceMeters>NAN</DistanceMeters>
          </Trackpoint>
          <Trackpoint>
            <Time>2021-08-11T08:21:01.000Z</Time>
            <Position>
              <LatitudeDegrees>43.25945614837110042572021484375</LatitudeDegrees>
              <LongitudeDegrees>-1.68023572303354740142822265625</LongitudeDegrees>
            </Position>
            <AltitudeMeters>57</AltitudeMeters>
            <DistanceMeters>NAN</DistanceMeters>
          </Trackpoint>
          <Trackpoint>
            <Time>2021-08-11T08:21:04.000Z</Time>
            <Position>
              <LatitudeDegrees>43.2595884986221790313720703125</LatitudeDegrees>
              <LongitudeDegrees>-1.6803377307951450347900390625</LongitudeDegrees>
            </Position>
            <AltitudeMeters>57.200000762939453125</AltitudeMeters>
            <DistanceMeters>NAN</DistanceMeters>
          </Trackpoint>
          <Trackpoint>
            <Time>2021-08-11T08:21:05.000Z</Time>
            <Position>
              <LatitudeDegrees>43.2596216909587383270263671875</LatitudeDegrees>
              <LongitudeDegrees>-1.68037268333137035369873046875</LongitudeDegrees>
            </Position>
            <AltitudeMeters>57.200000762939453125</AltitudeMeters>
            <DistanceMeters>NAN</DistanceMeters>
          </Trackpoint>
          <Trackpoint>
            <Time>2021-08-11T08:21:12.000Z</Time>
            <Position>
              <LatitudeDegrees>43.25990173034369945526123046875</LatitudeDegrees>
              <LongitudeDegrees>-1.6807300038635730743408203125</LongitudeDegrees>
            </Position>
            <AltitudeMeters>56.799999237060546875</AltitudeMeters>
            <DistanceMeters>NAN</DistanceMeters>
          </Trackpoint>
          <Trackpoint>
            <Time>2021-08-11T08:21:17.000Z</Time>
            <Position>
              <LatitudeDegrees>43.26007573865354061126708984375</LatitudeDegrees>
              <LongitudeDegrees>-1.68100601993501186370849609375</LongitudeDegrees>
            </Position>
            <AltitudeMeters>56</AltitudeMeters>
            <DistanceMeters>NAN</DistanceMeters>
          </Trackpoint>
          <Trackpoint>
            <Time>2021-08-11T08:21:18.000Z</Time>
            <Position>
              <LatitudeDegrees>43.26009769923985004425048828125</LatitudeDegrees>
              <LongitudeDegrees>-1.6810421459376811981201171875</LongitudeDegrees>
            </Position>
            <AltitudeMeters>56</AltitudeMeters>
            <DistanceMeters>NAN</DistanceMeters>
          </Trackpoint>
          <Trackpoint>
            <Time>2021-08-11T08:21:19.000Z</Time>
            <Position>
              <LatitudeDegrees>43.26012183912098407745361328125</LatitudeDegrees>
              <LongitudeDegrees>-1.6810796968638896942138671875</LongitudeDegrees>
            </Position>
            <AltitudeMeters>55.799999237060546875</AltitudeMeters>
            <DistanceMeters>NAN</DistanceMeters>
          </Trackpoint>
          <Trackpoint>
            <Time>2021-08-11T08:21:20.000Z</Time>
            <Position>
              <LatitudeDegrees>43.2601363398134708404541015625</LatitudeDegrees>
              <LongitudeDegrees>-1.6811085306107997894287109375</LongitudeDegrees>
            </Position>
            <AltitudeMeters>55.59999847412109375</AltitudeMeters>
            <DistanceMeters>NAN</DistanceMeters>
          </Trackpoint>
          <Trackpoint>
            <Time>2021-08-11T08:21:21.000Z</Time>
            <Position>
              <LatitudeDegrees>43.26015637256205081939697265625</LatitudeDegrees>
              <LongitudeDegrees>-1.68114733882248401641845703125</LongitudeDegrees>
            </Position>
            <AltitudeMeters>55.59999847412109375</AltitudeMeters>
            <DistanceMeters>NAN</DistanceMeters>
          </Trackpoint>
          <Trackpoint>
            <Time>2021-08-11T08:21:23.000Z</Time>
            <Position>
              <LatitudeDegrees>43.26020850799977779388427734375</LatitudeDegrees>
              <LongitudeDegrees>-1.68123518116772174835205078125</LongitudeDegrees>
            </Position>
            <AltitudeMeters>55.200000762939453125</AltitudeMeters>
            <DistanceMeters>NAN</DistanceMeters>
          </Trackpoint>
          <Trackpoint>
            <Time>2021-08-11T08:21:25.000Z</Time>
            <Position>
              <LatitudeDegrees>43.26024069450795650482177734375</LatitudeDegrees>
              <LongitudeDegrees>-1.68131413869559764862060546875</LongitudeDegrees>
            </Position>
            <AltitudeMeters>55</AltitudeMeters>
            <DistanceMeters>NAN</DistanceMeters>
          </Trackpoint>
          <Trackpoint>
            <Time>2021-08-11T08:21:26.000Z</Time>
            <Position>
              <LatitudeDegrees>43.26025712303817272186279296875</LatitudeDegrees>
              <LongitudeDegrees>-1.6813599877059459686279296875</LongitudeDegrees>
            </Position>
            <AltitudeMeters>54.799999237060546875</AltitudeMeters>
            <DistanceMeters>NAN</DistanceMeters>
          </Trackpoint>
          <Trackpoint>
            <Time>2021-08-11T08:21:28.000Z</Time>
            <Position>
              <LatitudeDegrees>43.26028377749025821685791015625</LatitudeDegrees>
              <LongitudeDegrees>-1.6814709641039371490478515625</LongitudeDegrees>
            </Position>
            <AltitudeMeters>54.40000152587890625</AltitudeMeters>
            <DistanceMeters>NAN</DistanceMeters>
          </Trackpoint>
          <Trackpoint>
            <Time>2021-08-11T08:21:30.000Z</Time>
            <Position>
              <LatitudeDegrees>43.26029802672564983367919921875</LatitudeDegrees>
              <LongitudeDegrees>-1.681626029312610626220703125</LongitudeDegrees>
            </Position>
            <AltitudeMeters>54</AltitudeMeters>
            <DistanceMeters>NAN</DistanceMeters>
          </Trackpoint>
          <Trackpoint>
            <Time>2021-08-11T08:21:32.000Z</Time>
            <Position>
              <LatitudeDegrees>43.2602976076304912567138671875</LatitudeDegrees>
              <LongitudeDegrees>-1.6817666776478290557861328125</LongitudeDegrees>
            </Position>
            <AltitudeMeters>53</AltitudeMeters>
            <DistanceMeters>NAN</DistanceMeters>
          </Trackpoint>
          <Trackpoint>
            <Time>2021-08-11T08:21:34.000Z</Time>
            <Position>
              <LatitudeDegrees>43.2602885551750659942626953125</LatitudeDegrees>
              <LongitudeDegrees>-1.68192685581743717193603515625</LongitudeDegrees>
            </Position>
            <AltitudeMeters>51.799999237060546875</AltitudeMeters>
            <DistanceMeters>NAN</DistanceMeters>
          </Trackpoint>
          <Trackpoint>
            <Time>2021-08-11T08:21:35.000Z</Time>
            <Position>
              <LatitudeDegrees>43.2602818496525287628173828125</LatitudeDegrees>
              <LongitudeDegrees>-1.6820053942501544952392578125</LongitudeDegrees>
            </Position>
            <AltitudeMeters>51</AltitudeMeters>
            <DistanceMeters>NAN</DistanceMeters>
          </Trackpoint>
          <Trackpoint>
            <Time>2021-08-11T08:21:36.000Z</Time>
            <Position>
              <LatitudeDegrees>43.26027438975870609283447265625</LatitudeDegrees>
              <LongitudeDegrees>-1.68208041228353977203369140625</LongitudeDegrees>
            </Position>
            <AltitudeMeters>50.799999237060546875</AltitudeMeters>
            <DistanceMeters>NAN</DistanceMeters>
          </Trackpoint>
          <Trackpoint>
            <Time>2021-08-11T08:21:37.000Z</Time>
            <Position>
              <LatitudeDegrees>43.26026600785553455352783203125</LatitudeDegrees>
              <LongitudeDegrees>-1.68215383775532245635986328125</LongitudeDegrees>
            </Position>
            <AltitudeMeters>50.200000762939453125</AltitudeMeters>
            <DistanceMeters>NAN</DistanceMeters>
          </Trackpoint>
          <Trackpoint>
            <Time>2021-08-11T08:21:41.000Z</Time>
            <Position>
              <LatitudeDegrees>43.26023885048925876617431640625</LatitudeDegrees>
              <LongitudeDegrees>-1.6824449412524700164794921875</LongitudeDegrees>
            </Position>
            <AltitudeMeters>49.59999847412109375</AltitudeMeters>
            <DistanceMeters>NAN</DistanceMeters>
          </Trackpoint>
          <Trackpoint>
            <Time>2021-08-11T08:21:42.000Z</Time>
            <Position>
              <LatitudeDegrees>43.26023365370929241180419921875</LatitudeDegrees>
              <LongitudeDegrees>-1.6825113259255886077880859375</LongitudeDegrees>
            </Position>
            <AltitudeMeters>49.40000152587890625</AltitudeMeters>
            <DistanceMeters>NAN</DistanceMeters>
          </Trackpoint>
          <Trackpoint>
            <Time>2021-08-11T08:21:43.000Z</Time>
            <Position>
              <LatitudeDegrees>43.26022678054869174957275390625</LatitudeDegrees>
              <LongitudeDegrees>-1.68257796205580234527587890625</LongitudeDegrees>
            </Position>
            <AltitudeMeters>49.200000762939453125</AltitudeMeters>
            <DistanceMeters>NAN</DistanceMeters>
          </Trackpoint>
          <Trackpoint>
            <Time>2021-08-11T08:21:44.000Z</Time>
            <Position>
              <LatitudeDegrees>43.26022979803383350372314453125</LatitudeDegrees>
              <LongitudeDegrees>-1.6826400719583034515380859375</LongitudeDegrees>
            </Position>
            <AltitudeMeters>49.200000762939453125</AltitudeMeters>
            <DistanceMeters>NAN</DistanceMeters>
          </Trackpoint>
          <Trackpoint>
            <Time>2021-08-11T08:21:45.000Z</Time>
            <Position>
              <LatitudeDegrees>43.26022845692932605743408203125</LatitudeDegrees>
              <LongitudeDegrees>-1.682713329792022705078125</LongitudeDegrees>
            </Position>
            <AltitudeMeters>49.200000762939453125</AltitudeMeters>
            <DistanceMeters>NAN</DistanceMeters>
          </Trackpoint>
          <Trackpoint>
            <Time>2021-08-11T08:21:46.000Z</Time>
            <Position>
              <LatitudeDegrees>43.26022929511964321136474609375</LatitudeDegrees>
              <LongitudeDegrees>-1.6827763617038726806640625</LongitudeDegrees>
            </Position>
            <AltitudeMeters>49.200000762939453125</AltitudeMeters>
            <DistanceMeters>NAN</DistanceMeters>
          </Trackpoint>
          <Trackpoint>
            <Time>2021-08-11T08:21:47.000Z</Time>
            <Position>
              <LatitudeDegrees>43.26023046858608722686767578125</LatitudeDegrees>
              <LongitudeDegrees>-1.68282489292323589324951171875</LongitudeDegrees>
            </Position>
            <AltitudeMeters>49</AltitudeMeters>
            <DistanceMeters>NAN</DistanceMeters>
          </Trackpoint>
          <Trackpoint>
            <Time>2021-08-11T08:21:48.000Z</Time>
            <Position>
              <LatitudeDegrees>43.260229714214801788330078125</LatitudeDegrees>
              <LongitudeDegrees>-1.68288121931254863739013671875</LongitudeDegrees>
            </Position>
            <AltitudeMeters>49</AltitudeMeters>
            <DistanceMeters>NAN</DistanceMeters>
          </Trackpoint>
          <Trackpoint>
            <Time>2021-08-11T08:21:49.000Z</Time>
            <Position>
              <LatitudeDegrees>43.26023113913834095001220703125</LatitudeDegrees>
              <LongitudeDegrees>-1.68293452821671962738037109375</LongitudeDegrees>
            </Position>
            <AltitudeMeters>49</AltitudeMeters>
            <DistanceMeters>NAN</DistanceMeters>
          </Trackpoint>
          <Trackpoint>
            <Time>2021-08-11T08:21:50.000Z</Time>
            <Position>
              <LatitudeDegrees>43.2602305524051189422607421875</LatitudeDegrees>
              <LongitudeDegrees>-1.68298758566379547119140625</LongitudeDegrees>
            </Position>
            <AltitudeMeters>49</AltitudeMeters>
            <DistanceMeters>NAN</DistanceMeters>
          </Trackpoint>
          <Trackpoint>
            <Time>2021-08-11T08:21:51.000Z</Time>
            <Position>
              <LatitudeDegrees>43.2602305524051189422607421875</LatitudeDegrees>
              <LongitudeDegrees>-1.68303594924509525299072265625</LongitudeDegrees>
            </Position>
            <AltitudeMeters>49</AltitudeMeters>
            <DistanceMeters>NAN</DistanceMeters>
          </Trackpoint>
          <Trackpoint>
            <Time>2021-08-11T08:21:52.000Z</Time>
            <Position>
              <LatitudeDegrees>43.26022678054869174957275390625</LatitudeDegrees>
              <LongitudeDegrees>-1.683083139359951019287109375</LongitudeDegrees>
            </Position>
            <AltitudeMeters>49.200000762939453125</AltitudeMeters>
            <DistanceMeters>NAN</DistanceMeters>
          </Trackpoint>
          <Trackpoint>
            <Time>2021-08-11T08:21:53.000Z</Time>
            <Position>
              <LatitudeDegrees>43.2602241821587085723876953125</LatitudeDegrees>
              <LongitudeDegrees>-1.683134101331233978271484375</LongitudeDegrees>
            </Position>
            <AltitudeMeters>49</AltitudeMeters>
            <DistanceMeters>NAN</DistanceMeters>
          </Trackpoint>
          <Trackpoint>
            <Time>2021-08-11T08:21:54.000Z</Time>
            <Position>
              <LatitudeDegrees>43.26022409833967685699462890625</LatitudeDegrees>
              <LongitudeDegrees>-1.6831838898360729217529296875</LongitudeDegrees>
            </Position>
            <AltitudeMeters>49</AltitudeMeters>
            <DistanceMeters>NAN</DistanceMeters>
          </Trackpoint>
          <Trackpoint>
            <Time>2021-08-11T08:21:56.000Z</Time>
            <Position>
              <LatitudeDegrees>43.26024790294468402862548828125</LatitudeDegrees>
              <LongitudeDegrees>-1.6832851432263851165771484375</LongitudeDegrees>
            </Position>
            <AltitudeMeters>49.200000762939453125</AltitudeMeters>
            <DistanceMeters>NAN</DistanceMeters>
          </Trackpoint>
          <Trackpoint>
            <Time>2021-08-11T08:21:57.000Z</Time>
            <Position>
              <LatitudeDegrees>43.26026466675102710723876953125</LatitudeDegrees>
              <LongitudeDegrees>-1.6833262145519256591796875</LongitudeDegrees>
            </Position>
            <AltitudeMeters>49.200000762939453125</AltitudeMeters>
            <DistanceMeters>NAN</DistanceMeters>
          </Trackpoint>
          <Trackpoint>
            <Time>2021-08-11T08:21:58.000Z</Time>
            <Position>
              <LatitudeDegrees>43.26027975417673587799072265625</LatitudeDegrees>
              <LongitudeDegrees>-1.68335546739399433135986328125</LongitudeDegrees>
            </Position>
            <AltitudeMeters>49.200000762939453125</AltitudeMeters>
            <DistanceMeters>NAN</DistanceMeters>
          </Trackpoint>
          <Trackpoint>
            <Time>2021-08-11T08:21:59.000Z</Time>
            <Position>
              <LatitudeDegrees>43.26030054129660129547119140625</LatitudeDegrees>
              <LongitudeDegrees>-1.68339637108147144317626953125</LongitudeDegrees>
            </Position>
            <AltitudeMeters>49.200000762939453125</AltitudeMeters>
            <DistanceMeters>NAN</DistanceMeters>
          </Trackpoint>
          <Trackpoint>
            <Time>2021-08-11T08:22:00.000Z</Time>
            <Position>
              <LatitudeDegrees>43.26032216660678386688232421875</LatitudeDegrees>
              <LongitudeDegrees>-1.6834440641105175018310546875</LongitudeDegrees>
            </Position>
            <AltitudeMeters>49.200000762939453125</AltitudeMeters>
            <DistanceMeters>NAN</DistanceMeters>
          </Trackpoint>
          <Trackpoint>
            <Time>2021-08-11T08:22:01.000Z</Time>
            <Position>
              <LatitudeDegrees>43.26033675111830234527587890625</LatitudeDegrees>
              <LongitudeDegrees>-1.6835005581378936767578125</LongitudeDegrees>
            </Position>
            <AltitudeMeters>49.200000762939453125</AltitudeMeters>
            <DistanceMeters>NAN</DistanceMeters>
          </Trackpoint>
          <Trackpoint>
            <Time>2021-08-11T08:22:06.000Z</Time>
            <Position>
              <LatitudeDegrees>43.26042409054934978485107421875</LatitudeDegrees>
              <LongitudeDegrees>-1.68372787535190582275390625</LongitudeDegrees>
            </Position>
            <AltitudeMeters>49.40000152587890625</AltitudeMeters>
            <DistanceMeters>NAN</DistanceMeters>
          </Trackpoint>
          <Trackpoint>
            <Time>2021-08-11T08:22:07.000Z</Time>
            <Position>
              <LatitudeDegrees>43.2604411058127880096435546875</LatitudeDegrees>
              <LongitudeDegrees>-1.6837686114013195037841796875</LongitudeDegrees>
            </Position>
            <AltitudeMeters>49.40000152587890625</AltitudeMeters>
            <DistanceMeters>NAN</DistanceMeters>
          </Trackpoint>
          <Trackpoint>
            <Time>2021-08-11T08:22:08.000Z</Time>
            <Position>
              <LatitudeDegrees>43.26044990681111812591552734375</LatitudeDegrees>
              <LongitudeDegrees>-1.68380071409046649932861328125</LongitudeDegrees>
            </Position>
            <AltitudeMeters>49.200000762939453125</AltitudeMeters>
            <DistanceMeters>NAN</DistanceMeters>
          </Trackpoint>
          <Trackpoint>
            <Time>2021-08-11T08:22:09.000Z</Time>
            <Position>
              <LatitudeDegrees>43.2604546844959259033203125</LatitudeDegrees>
              <LongitudeDegrees>-1.6838410310447216033935546875</LongitudeDegrees>
            </Position>
            <AltitudeMeters>49.200000762939453125</AltitudeMeters>
            <DistanceMeters>NAN</DistanceMeters>
          </Trackpoint>
          <Trackpoint>
            <Time>2021-08-11T08:22:10.000Z</Time>
            <Position>
              <LatitudeDegrees>43.2604672573506832122802734375</LatitudeDegrees>
              <LongitudeDegrees>-1.6838760673999786376953125</LongitudeDegrees>
            </Position>
            <AltitudeMeters>49.200000762939453125</AltitudeMeters>
            <DistanceMeters>NAN</DistanceMeters>
          </Trackpoint>
          <Trackpoint>
            <Time>2021-08-11T08:22:12.000Z</Time>
            <Position>
              <LatitudeDegrees>43.26052718795835971832275390625</LatitudeDegrees>
              <LongitudeDegrees>-1.68395896442234516143798828125</LongitudeDegrees>
            </Position>
            <AltitudeMeters>49.200000762939453125</AltitudeMeters>
            <DistanceMeters>NAN</DistanceMeters>
          </Trackpoint>
          <Trackpoint>
            <Time>2021-08-11T08:22:13.000Z</Time>
            <Position>
              <LatitudeDegrees>43.26056457124650478363037109375</LatitudeDegrees>
              <LongitudeDegrees>-1.68398830108344554901123046875</LongitudeDegrees>
            </Position>
            <AltitudeMeters>49</AltitudeMeters>
            <DistanceMeters>NAN</DistanceMeters>
          </Trackpoint>
          <Trackpoint>
            <Time>2021-08-11T08:22:14.000Z</Time>
            <Position>
              <LatitudeDegrees>43.260585777461528778076171875</LatitudeDegrees>
              <LongitudeDegrees>-1.68401780538260936737060546875</LongitudeDegrees>
            </Position>
            <AltitudeMeters>49</AltitudeMeters>
            <DistanceMeters>NAN</DistanceMeters>
          </Trackpoint>
          <Trackpoint>
            <Time>2021-08-11T08:22:18.000Z</Time>
            <Position>
              <LatitudeDegrees>43.2606583647429943084716796875</LatitudeDegrees>
              <LongitudeDegrees>-1.68419013731181621551513671875</LongitudeDegrees>
            </Position>
            <AltitudeMeters>48.59999847412109375</AltitudeMeters>
            <DistanceMeters>NAN</DistanceMeters>
          </Trackpoint>
          <Trackpoint>
            <Time>2021-08-11T08:22:22.000Z</Time>
            <Position>
              <LatitudeDegrees>43.2607562653720378875732421875</LatitudeDegrees>
              <LongitudeDegrees>-1.6843553446233272552490234375</LongitudeDegrees>
            </Position>
            <AltitudeMeters>48</AltitudeMeters>
            <DistanceMeters>NAN</DistanceMeters>
          </Trackpoint>
          <Trackpoint>
            <Time>2021-08-11T08:22:23.000Z</Time>
            <Position>
              <LatitudeDegrees>43.26075308024883270263671875</LatitudeDegrees>
              <LongitudeDegrees>-1.684394739568233489990234375</LongitudeDegrees>
            </Position>
            <AltitudeMeters>48</AltitudeMeters>
            <DistanceMeters>NAN</DistanceMeters>
          </Trackpoint>
          <Trackpoint>
            <Time>2021-08-11T08:22:24.000Z</Time>
            <Position>
              <LatitudeDegrees>43.26075517572462558746337890625</LatitudeDegrees>
              <LongitudeDegrees>-1.684429943561553955078125</LongitudeDegrees>
            </Position>
            <AltitudeMeters>48</AltitudeMeters>
            <DistanceMeters>NAN</DistanceMeters>
          </Trackpoint>
          <Trackpoint>
            <Time>2021-08-11T08:22:25.000Z</Time>
            <Position>
              <LatitudeDegrees>43.2607669942080974578857421875</LatitudeDegrees>
              <LongitudeDegrees>-1.684470511972904205322265625</LongitudeDegrees>
            </Position>
            <AltitudeMeters>48</AltitudeMeters>
            <DistanceMeters>NAN</DistanceMeters>
          </Trackpoint>
          <Trackpoint>
            <Time>2021-08-11T08:22:26.000Z</Time>
            <Position>
              <LatitudeDegrees>43.26078300364315509796142578125</LatitudeDegrees>
              <LongitudeDegrees>-1.68450814671814441680908203125</LongitudeDegrees>
            </Position>
            <AltitudeMeters>48</AltitudeMeters>
            <DistanceMeters>NAN</DistanceMeters>
          </Trackpoint>
          <Trackpoint>
            <Time>2021-08-11T08:22:27.000Z</Time>
            <Position>
              <LatitudeDegrees>43.26079574413597583770751953125</LatitudeDegrees>
              <LongitudeDegrees>-1.68455525301396846771240234375</LongitudeDegrees>
            </Position>
            <AltitudeMeters>48</AltitudeMeters>
            <DistanceMeters>NAN</DistanceMeters>
          </Trackpoint>
          <Trackpoint>
            <Time>2021-08-11T08:22:28.000Z</Time>
            <Position>
              <LatitudeDegrees>43.26080110855400562286376953125</LatitudeDegrees>
              <LongitudeDegrees>-1.6845876909792423248291015625</LongitudeDegrees>
            </Position>
            <AltitudeMeters>48</AltitudeMeters>
            <DistanceMeters>NAN</DistanceMeters>
          </Trackpoint>
          <Trackpoint>
            <Time>2021-08-11T08:22:30.000Z</Time>
            <Position>
              <LatitudeDegrees>43.260816447436809539794921875</LatitudeDegrees>
              <LongitudeDegrees>-1.6846678219735622406005859375</LongitudeDegrees>
            </Position>
            <AltitudeMeters>48</AltitudeMeters>
            <DistanceMeters>NAN</DistanceMeters>
          </Trackpoint>
          <Trackpoint>
            <Time>2021-08-11T08:22:32.000Z</Time>
            <Position>
              <LatitudeDegrees>43.26085441745817661285400390625</LatitudeDegrees>
              <LongitudeDegrees>-1.68475708924233913421630859375</LongitudeDegrees>
            </Position>
            <AltitudeMeters>48</AltitudeMeters>
            <DistanceMeters>NAN</DistanceMeters>
          </Trackpoint>
          <Trackpoint>
            <Time>2021-08-11T08:22:33.000Z</Time>
            <Position>
              <LatitudeDegrees>43.26088945381343364715576171875</LatitudeDegrees>
              <LongitudeDegrees>-1.68479816056787967681884765625</LongitudeDegrees>
            </Position>
            <AltitudeMeters>48</AltitudeMeters>
            <DistanceMeters>NAN</DistanceMeters>
          </Trackpoint>
          <Trackpoint>
            <Time>2021-08-11T08:22:34.000Z</Time>
            <Position>
              <LatitudeDegrees>43.26090990565717220306396484375</LatitudeDegrees>
              <LongitudeDegrees>-1.684839315712451934814453125</LongitudeDegrees>
            </Position>
            <AltitudeMeters>48</AltitudeMeters>
            <DistanceMeters>NAN</DistanceMeters>
          </Trackpoint>
          <Trackpoint>
            <Time>2021-08-11T08:22:35.000Z</Time>
            <Position>
              <LatitudeDegrees>43.26092398725450038909912109375</LatitudeDegrees>
              <LongitudeDegrees>-1.68487317860126495361328125</LongitudeDegrees>
            </Position>
            <AltitudeMeters>48</AltitudeMeters>
            <DistanceMeters>NAN</DistanceMeters>
          </Trackpoint>
          <Trackpoint>
            <Time>2021-08-11T08:22:37.000Z</Time>
            <Position>
              <LatitudeDegrees>43.26094754040241241455078125</LatitudeDegrees>
              <LongitudeDegrees>-1.68494115583598613739013671875</LongitudeDegrees>
            </Position>
            <AltitudeMeters>48</AltitudeMeters>
            <DistanceMeters>NAN</DistanceMeters>
          </Trackpoint>
          <Trackpoint>
            <Time>2021-08-11T08:22:38.000Z</Time>
            <Position>
              <LatitudeDegrees>43.26096036471426486968994140625</LatitudeDegrees>
              <LongitudeDegrees>-1.68497049249708652496337890625</LongitudeDegrees>
            </Position>
            <AltitudeMeters>48</AltitudeMeters>
            <DistanceMeters>NAN</DistanceMeters>
          </Trackpoint>
          <Trackpoint>
            <Time>2021-08-11T08:22:40.000Z</Time>
            <Position>
              <LatitudeDegrees>43.2609825767576694488525390625</LatitudeDegrees>
              <LongitudeDegrees>-1.68503277003765106201171875</LongitudeDegrees>
            </Position>
            <AltitudeMeters>48</AltitudeMeters>
            <DistanceMeters>NAN</DistanceMeters>
          </Trackpoint>
          <Trackpoint>
            <Time>2021-08-11T08:22:41.000Z</Time>
            <Position>
              <LatitudeDegrees>43.26099774800240993499755859375</LatitudeDegrees>
              <LongitudeDegrees>-1.6850621066987514495849609375</LongitudeDegrees>
            </Position>
            <AltitudeMeters>48</AltitudeMeters>
            <DistanceMeters>NAN</DistanceMeters>
          </Trackpoint>
          <Trackpoint>
            <Time>2021-08-11T08:22:42.000Z</Time>
            <Position>
              <LatitudeDegrees>43.261020295321941375732421875</LatitudeDegrees>
              <LongitudeDegrees>-1.6850983165204524993896484375</LongitudeDegrees>
            </Position>
            <AltitudeMeters>48</AltitudeMeters>
            <DistanceMeters>NAN</DistanceMeters>
          </Trackpoint>
          <Trackpoint>
            <Time>2021-08-11T08:22:43.000Z</Time>
            <Position>
              <LatitudeDegrees>43.26103798113763332366943359375</LatitudeDegrees>
              <LongitudeDegrees>-1.68512471951544284820556640625</LongitudeDegrees>
            </Position>
            <AltitudeMeters>48</AltitudeMeters>
            <DistanceMeters>NAN</DistanceMeters>
          </Trackpoint>
          <Trackpoint>
            <Time>2021-08-11T08:22:44.000Z</Time>
            <Position>
              <LatitudeDegrees>43.261055164039134979248046875</LatitudeDegrees>
              <LongitudeDegrees>-1.68515774421393871307373046875</LongitudeDegrees>
            </Position>
            <AltitudeMeters>48</AltitudeMeters>
            <DistanceMeters>NAN</DistanceMeters>
          </Trackpoint>
          <Trackpoint>
            <Time>2021-08-11T08:22:45.000Z</Time>
            <Position>
              <LatitudeDegrees>43.26106966473162174224853515625</LatitudeDegrees>
              <LongitudeDegrees>-1.6851911880075931549072265625</LongitudeDegrees>
            </Position>
            <AltitudeMeters>48</AltitudeMeters>
            <DistanceMeters>NAN</DistanceMeters>
          </Trackpoint>
          <Trackpoint>
            <Time>2021-08-11T08:22:46.000Z</Time>
            <Position>
              <LatitudeDegrees>43.26108374632894992828369140625</LatitudeDegrees>
              <LongitudeDegrees>-1.68522295542061328887939453125</LongitudeDegrees>
            </Position>
            <AltitudeMeters>48</AltitudeMeters>
            <DistanceMeters>NAN</DistanceMeters>
          </Trackpoint>
          <Trackpoint>
            <Time>2021-08-11T08:22:47.000Z</Time>
            <Position>
              <LatitudeDegrees>43.2611010968685150146484375</LatitudeDegrees>
              <LongitudeDegrees>-1.6852569021284580230712890625</LongitudeDegrees>
            </Position>
            <AltitudeMeters>48</AltitudeMeters>
            <DistanceMeters>NAN</DistanceMeters>
          </Trackpoint>
          <Trackpoint>
            <Time>2021-08-11T08:22:51.000Z</Time>
            <Position>
              <LatitudeDegrees>43.261187262833118438720703125</LatitudeDegrees>
              <LongitudeDegrees>-1.68541506864130496978759765625</LongitudeDegrees>
            </Position>
            <AltitudeMeters>47.799999237060546875</AltitudeMeters>
            <DistanceMeters>NAN</DistanceMeters>
          </Trackpoint>
          <Trackpoint>
            <Time>2021-08-11T08:22:57.000Z</Time>
            <Position>
              <LatitudeDegrees>43.2613007538020610809326171875</LatitudeDegrees>
              <LongitudeDegrees>-1.6856568865478038787841796875</LongitudeDegrees>
            </Position>
            <AltitudeMeters>47.59999847412109375</AltitudeMeters>
            <DistanceMeters>NAN</DistanceMeters>
          </Trackpoint>
          <Trackpoint>
            <Time>2021-08-11T08:22:58.000Z</Time>
            <Position>
              <LatitudeDegrees>43.261322043836116790771484375</LatitudeDegrees>
              <LongitudeDegrees>-1.68569535948336124420166015625</LongitudeDegrees>
            </Position>
            <AltitudeMeters>47.59999847412109375</AltitudeMeters>
            <DistanceMeters>NAN</DistanceMeters>
          </Trackpoint>
          <Trackpoint>
            <Time>2021-08-11T08:22:59.000Z</Time>
            <Position>
              <LatitudeDegrees>43.261341154575347900390625</LatitudeDegrees>
              <LongitudeDegrees>-1.68572084046900272369384765625</LongitudeDegrees>
            </Position>
            <AltitudeMeters>47.59999847412109375</AltitudeMeters>
            <DistanceMeters>NAN</DistanceMeters>
          </Trackpoint>
          <Trackpoint>
            <Time>2021-08-11T08:23:03.000Z</Time>
            <Position>
              <LatitudeDegrees>43.26143695972859859466552734375</LatitudeDegrees>
              <LongitudeDegrees>-1.685859896242618560791015625</LongitudeDegrees>
            </Position>
            <AltitudeMeters>47.59999847412109375</AltitudeMeters>
            <DistanceMeters>NAN</DistanceMeters>
          </Trackpoint>
          <Trackpoint>
            <Time>2021-08-11T08:23:04.000Z</Time>
            <Position>
              <LatitudeDegrees>43.2614685595035552978515625</LatitudeDegrees>
              <LongitudeDegrees>-1.6858969442546367645263671875</LongitudeDegrees>
            </Position>
            <AltitudeMeters>47.59999847412109375</AltitudeMeters>
            <DistanceMeters>NAN</DistanceMeters>
          </Trackpoint>
          <Trackpoint>
            <Time>2021-08-11T08:23:05.000Z</Time>
            <Position>
              <LatitudeDegrees>43.26149479486048221588134765625</LatitudeDegrees>
              <LongitudeDegrees>-1.6859190724790096282958984375</LongitudeDegrees>
            </Position>
            <AltitudeMeters>47.59999847412109375</AltitudeMeters>
            <DistanceMeters>NAN</DistanceMeters>
          </Trackpoint>
          <Trackpoint>
            <Time>2021-08-11T08:23:06.000Z</Time>
            <Position>
              <LatitudeDegrees>43.26153066940605640411376953125</LatitudeDegrees>
              <LongitudeDegrees>-1.68594874441623687744140625</LongitudeDegrees>
            </Position>
            <AltitudeMeters>47.799999237060546875</AltitudeMeters>
            <DistanceMeters>NAN</DistanceMeters>
          </Trackpoint>
          <Trackpoint>
            <Time>2021-08-11T08:23:10.000Z</Time>
            <Position>
              <LatitudeDegrees>43.26161482371389865875244140625</LatitudeDegrees>
              <LongitudeDegrees>-1.6860753111541271209716796875</LongitudeDegrees>
            </Position>
            <AltitudeMeters>47.59999847412109375</AltitudeMeters>
            <DistanceMeters>NAN</DistanceMeters>
          </Trackpoint>
          <Trackpoint>
            <Time>2021-08-11T08:23:11.000Z</Time>
            <Position>
              <LatitudeDegrees>43.261629827320575714111328125</LatitudeDegrees>
              <LongitudeDegrees>-1.68610439635813236236572265625</LongitudeDegrees>
            </Position>
            <AltitudeMeters>47.40000152587890625</AltitudeMeters>
            <DistanceMeters>NAN</DistanceMeters>
          </Trackpoint>
          <Trackpoint>
            <Time>2021-08-11T08:23:12.000Z</Time>
            <Position>
              <LatitudeDegrees>43.26165086589753627777099609375</LatitudeDegrees>
              <LongitudeDegrees>-1.686130799353122711181640625</LongitudeDegrees>
            </Position>
            <AltitudeMeters>47.40000152587890625</AltitudeMeters>
            <DistanceMeters>NAN</DistanceMeters>
          </Trackpoint>
          <Trackpoint>
            <Time>2021-08-11T08:23:15.000Z</Time>
            <Position>
              <LatitudeDegrees>43.26171993277966976165771484375</LatitudeDegrees>
              <LongitudeDegrees>-1.68622643686830997467041015625</LongitudeDegrees>
            </Position>
            <AltitudeMeters>47</AltitudeMeters>
            <DistanceMeters>NAN</DistanceMeters>
          </Trackpoint>
          <Trackpoint>
            <Time>2021-08-11T08:23:20.000Z</Time>
            <Position>
              <LatitudeDegrees>43.261873237788677215576171875</LatitudeDegrees>
              <LongitudeDegrees>-1.6863824240863323211669921875</LongitudeDegrees>
            </Position>
            <AltitudeMeters>47</AltitudeMeters>
            <DistanceMeters>NAN</DistanceMeters>
          </Trackpoint>
          <Trackpoint>
            <Time>2021-08-11T08:23:22.000Z</Time>
            <Position>
              <LatitudeDegrees>43.2619357667863368988037109375</LatitudeDegrees>
              <LongitudeDegrees>-1.68645341880619525909423828125</LongitudeDegrees>
            </Position>
            <AltitudeMeters>47</AltitudeMeters>
            <DistanceMeters>NAN</DistanceMeters>
          </Trackpoint>
          <Trackpoint>
            <Time>2021-08-11T08:23:23.000Z</Time>
            <Position>
              <LatitudeDegrees>43.2619612477719783782958984375</LatitudeDegrees>
              <LongitudeDegrees>-1.68648191727697849273681640625</LongitudeDegrees>
            </Position>
            <AltitudeMeters>47</AltitudeMeters>
            <DistanceMeters>NAN</DistanceMeters>
          </Trackpoint>
          <Trackpoint>
            <Time>2021-08-11T08:23:24.000Z</Time>
            <Position>
              <LatitudeDegrees>43.2619915902614593505859375</LatitudeDegrees>
              <LongitudeDegrees>-1.68651024810969829559326171875</LongitudeDegrees>
            </Position>
            <AltitudeMeters>47</AltitudeMeters>
            <DistanceMeters>NAN</DistanceMeters>
          </Trackpoint>
          <Trackpoint>
            <Time>2021-08-11T08:23:25.000Z</Time>
            <Position>
              <LatitudeDegrees>43.26201648451387882232666015625</LatitudeDegrees>
              <LongitudeDegrees>-1.68653455562889575958251953125</LongitudeDegrees>
            </Position>
            <AltitudeMeters>47</AltitudeMeters>
            <DistanceMeters>NAN</DistanceMeters>
          </Trackpoint>
          <Trackpoint>
            <Time>2021-08-11T08:23:26.000Z</Time>
            <Position>
              <LatitudeDegrees>43.2620460726320743560791015625</LatitudeDegrees>
              <LongitudeDegrees>-1.68656707741320133209228515625</LongitudeDegrees>
            </Position>
            <AltitudeMeters>47</AltitudeMeters>
            <DistanceMeters>NAN</DistanceMeters>
          </Trackpoint>
          <Trackpoint>
            <Time>2021-08-11T08:23:28.000Z</Time>
            <Position>
              <LatitudeDegrees>43.2620916701853275299072265625</LatitudeDegrees>
              <LongitudeDegrees>-1.68662290088832378387451171875</LongitudeDegrees>
            </Position>
            <AltitudeMeters>47</AltitudeMeters>
            <DistanceMeters>NAN</DistanceMeters>
          </Trackpoint>
          <Trackpoint>
            <Time>2021-08-11T08:23:29.000Z</Time>
            <Position>
              <LatitudeDegrees>43.26212234795093536376953125</LatitudeDegrees>
              <LongitudeDegrees>-1.6866486333310604095458984375</LongitudeDegrees>
            </Position>
            <AltitudeMeters>47</AltitudeMeters>
            <DistanceMeters>NAN</DistanceMeters>
          </Trackpoint>
          <Trackpoint>
            <Time>2021-08-11T08:23:30.000Z</Time>
            <Position>
              <LatitudeDegrees>43.2621496729552745819091796875</LatitudeDegrees>
              <LongitudeDegrees>-1.68667168356478214263916015625</LongitudeDegrees>
            </Position>
            <AltitudeMeters>47</AltitudeMeters>
            <DistanceMeters>NAN</DistanceMeters>
          </Trackpoint>
          <Trackpoint>
            <Time>2021-08-11T08:23:31.000Z</Time>
            <Position>
              <LatitudeDegrees>43.26217490248382091522216796875</LatitudeDegrees>
              <LongitudeDegrees>-1.68669917620718479156494140625</LongitudeDegrees>
            </Position>
            <AltitudeMeters>47</AltitudeMeters>
            <DistanceMeters>NAN</DistanceMeters>
          </Trackpoint>
          <Trackpoint>
            <Time>2021-08-11T08:23:32.000Z</Time>
            <Position>
              <LatitudeDegrees>43.2622073404490947723388671875</LatitudeDegrees>
              <LongitudeDegrees>-1.68672658503055572509765625</LongitudeDegrees>
            </Position>
            <AltitudeMeters>47</AltitudeMeters>
            <DistanceMeters>NAN</DistanceMeters>
          </Trackpoint>
          <Trackpoint>
            <Time>2021-08-11T08:23:33.000Z</Time>
            <Position>
              <LatitudeDegrees>43.2622338272631168365478515625</LatitudeDegrees>
              <LongitudeDegrees>-1.686752401292324066162109375</LongitudeDegrees>
            </Position>
            <AltitudeMeters>47</AltitudeMeters>
            <DistanceMeters>NAN</DistanceMeters>
          </Trackpoint>
          <Trackpoint>
            <Time>2021-08-11T08:23:34.000Z</Time>
            <Position>
              <LatitudeDegrees>43.2622562907636165618896484375</LatitudeDegrees>
              <LongitudeDegrees>-1.6867767088115215301513671875</LongitudeDegrees>
            </Position>
            <AltitudeMeters>47</AltitudeMeters>
            <DistanceMeters>NAN</DistanceMeters>
          </Trackpoint>
          <Trackpoint>
            <Time>2021-08-11T08:23:35.000Z</Time>
            <Position>
              <LatitudeDegrees>43.262281604111194610595703125</LatitudeDegrees>
              <LongitudeDegrees>-1.68680881150066852569580078125</LongitudeDegrees>
            </Position>
            <AltitudeMeters>47</AltitudeMeters>
            <DistanceMeters>NAN</DistanceMeters>
          </Trackpoint>
          <Trackpoint>
            <Time>2021-08-11T08:23:36.000Z</Time>
            <Position>
              <LatitudeDegrees>43.26231437735259532928466796875</LatitudeDegrees>
              <LongitudeDegrees>-1.68684585951268672943115234375</LongitudeDegrees>
            </Position>
            <AltitudeMeters>46.799999237060546875</AltitudeMeters>
            <DistanceMeters>NAN</DistanceMeters>
          </Trackpoint>
          <Trackpoint>
            <Time>2021-08-11T08:23:38.000Z</Time>
            <Position>
              <LatitudeDegrees>43.262376487255096435546875</LatitudeDegrees>
              <LongitudeDegrees>-1.6869084723293781280517578125</LongitudeDegrees>
            </Position>
            <AltitudeMeters>46.59999847412109375</AltitudeMeters>
            <DistanceMeters>NAN</DistanceMeters>
          </Trackpoint>
          <Trackpoint>
            <Time>2021-08-11T08:23:39.000Z</Time>
            <Position>
              <LatitudeDegrees>43.2624019682407379150390625</LatitudeDegrees>
              <LongitudeDegrees>-1.68692900799214839935302734375</LongitudeDegrees>
            </Position>
            <AltitudeMeters>46.59999847412109375</AltitudeMeters>
            <DistanceMeters>NAN</DistanceMeters>
          </Trackpoint>
          <Trackpoint>
            <Time>2021-08-11T08:23:40.000Z</Time>
            <Position>
              <LatitudeDegrees>43.262433148920536041259765625</LatitudeDegrees>
              <LongitudeDegrees>-1.68695465661585330963134765625</LongitudeDegrees>
            </Position>
            <AltitudeMeters>46.59999847412109375</AltitudeMeters>
            <DistanceMeters>NAN</DistanceMeters>
          </Trackpoint>
          <Trackpoint>
            <Time>2021-08-11T08:23:43.000Z</Time>
            <Position>
              <LatitudeDegrees>43.26252543367445468902587890625</LatitudeDegrees>
              <LongitudeDegrees>-1.68702699244022369384765625</LongitudeDegrees>
            </Position>
            <AltitudeMeters>46.59999847412109375</AltitudeMeters>
            <DistanceMeters>NAN</DistanceMeters>
          </Trackpoint>
          <Trackpoint>
            <Time>2021-08-11T08:23:45.000Z</Time>
            <Position>
              <LatitudeDegrees>43.2625898905098438262939453125</LatitudeDegrees>
              <LongitudeDegrees>-1.68707451783120632171630859375</LongitudeDegrees>
            </Position>
            <AltitudeMeters>46.40000152587890625</AltitudeMeters>
            <DistanceMeters>NAN</DistanceMeters>
          </Trackpoint>
          <Trackpoint>
            <Time>2021-08-11T08:23:47.000Z</Time>
            <Position>
              <LatitudeDegrees>43.26265736483037471771240234375</LatitudeDegrees>
              <LongitudeDegrees>-1.68711190111935138702392578125</LongitudeDegrees>
            </Position>
            <AltitudeMeters>46.40000152587890625</AltitudeMeters>
            <DistanceMeters>NAN</DistanceMeters>
          </Trackpoint>
          <Trackpoint>
            <Time>2021-08-11T08:23:49.000Z</Time>
            <Position>
              <LatitudeDegrees>43.26271134428679943084716796875</LatitudeDegrees>
              <LongitudeDegrees>-1.68713587336242198944091796875</LongitudeDegrees>
            </Position>
            <AltitudeMeters>46.40000152587890625</AltitudeMeters>
            <DistanceMeters>NAN</DistanceMeters>
          </Trackpoint>
          <Trackpoint>
            <Time>2021-08-11T08:23:50.000Z</Time>
            <Position>
              <LatitudeDegrees>43.26273364014923572540283203125</LatitudeDegrees>
              <LongitudeDegrees>-1.68714475817978382110595703125</LongitudeDegrees>
            </Position>
            <AltitudeMeters>46.40000152587890625</AltitudeMeters>
            <DistanceMeters>NAN</DistanceMeters>
          </Trackpoint>
          <Trackpoint>
            <Time>2021-08-11T08:23:52.000Z</Time>
            <Position>
              <LatitudeDegrees>43.26278963126242160797119140625</LatitudeDegrees>
              <LongitudeDegrees>-1.6871649585664272308349609375</LongitudeDegrees>
            </Position>
            <AltitudeMeters>46.40000152587890625</AltitudeMeters>
            <DistanceMeters>NAN</DistanceMeters>
          </Trackpoint>
          <Trackpoint>
            <Time>2021-08-11T08:23:53.000Z</Time>
            <Position>
              <LatitudeDegrees>43.2628276012837886810302734375</LatitudeDegrees>
              <LongitudeDegrees>-1.68718130327761173248291015625</LongitudeDegrees>
            </Position>
            <AltitudeMeters>46.40000152587890625</AltitudeMeters>
            <DistanceMeters>NAN</DistanceMeters>
          </Trackpoint>
          <Trackpoint>
            <Time>2021-08-11T08:23:54.000Z</Time>
            <Position>
              <LatitudeDegrees>43.26286800205707550048828125</LatitudeDegrees>
              <LongitudeDegrees>-1.68718951754271984100341796875</LongitudeDegrees>
            </Position>
            <AltitudeMeters>46.40000152587890625</AltitudeMeters>
            <DistanceMeters>NAN</DistanceMeters>
          </Trackpoint>
          <Trackpoint>
            <Time>2021-08-11T08:23:55.000Z</Time>
            <Position>
              <LatitudeDegrees>43.262894153594970703125</LatitudeDegrees>
              <LongitudeDegrees>-1.687200330197811126708984375</LongitudeDegrees>
            </Position>
            <AltitudeMeters>46.40000152587890625</AltitudeMeters>
            <DistanceMeters>NAN</DistanceMeters>
          </Trackpoint>
          <Trackpoint>
            <Time>2021-08-11T08:23:56.000Z</Time>
            <Position>
              <LatitudeDegrees>43.2629224844276905059814453125</LatitudeDegrees>
              <LongitudeDegrees>-1.68722505681216716766357421875</LongitudeDegrees>
            </Position>
            <AltitudeMeters>46.40000152587890625</AltitudeMeters>
            <DistanceMeters>NAN</DistanceMeters>
          </Trackpoint>
          <Trackpoint>
            <Time>2021-08-11T08:23:57.000Z</Time>
            <Position>
              <LatitudeDegrees>43.262957520782947540283203125</LatitudeDegrees>
              <LongitudeDegrees>-1.6872380487620830535888671875</LongitudeDegrees>
            </Position>
            <AltitudeMeters>46.40000152587890625</AltitudeMeters>
            <DistanceMeters>NAN</DistanceMeters>
          </Trackpoint>
          <Trackpoint>
            <Time>2021-08-11T08:24:03.000Z</Time>
            <Position>
              <LatitudeDegrees>43.26317788101732730865478515625</LatitudeDegrees>
              <LongitudeDegrees>-1.68730325996875762939453125</LongitudeDegrees>
            </Position>
            <AltitudeMeters>46</AltitudeMeters>
            <DistanceMeters>NAN</DistanceMeters>
          </Trackpoint>
          <Trackpoint>
            <Time>2021-08-11T08:24:07.000Z</Time>
            <Position>
              <LatitudeDegrees>43.263333030045032501220703125</LatitudeDegrees>
              <LongitudeDegrees>-1.68733678758144378662109375</LongitudeDegrees>
            </Position>
            <AltitudeMeters>46</AltitudeMeters>
            <DistanceMeters>NAN</DistanceMeters>
          </Trackpoint>
          <Trackpoint>
            <Time>2021-08-11T08:24:10.000Z</Time>
            <Position>
              <LatitudeDegrees>43.26346688903868198394775390625</LatitudeDegrees>
              <LongitudeDegrees>-1.6873470135033130645751953125</LongitudeDegrees>
            </Position>
            <AltitudeMeters>46</AltitudeMeters>
            <DistanceMeters>NAN</DistanceMeters>
          </Trackpoint>
          <Trackpoint>
            <Time>2021-08-11T08:24:16.000Z</Time>
            <Position>
              <LatitudeDegrees>43.263697139918804168701171875</LatitudeDegrees>
              <LongitudeDegrees>-1.68740652501583099365234375</LongitudeDegrees>
            </Position>
            <AltitudeMeters>45.59999847412109375</AltitudeMeters>
            <DistanceMeters>NAN</DistanceMeters>
          </Trackpoint>
          <Trackpoint>
            <Time>2021-08-11T08:24:17.000Z</Time>
            <Position>
              <LatitudeDegrees>43.2637288235127925872802734375</LatitudeDegrees>
              <LongitudeDegrees>-1.68742555193603038787841796875</LongitudeDegrees>
            </Position>
            <AltitudeMeters>45.59999847412109375</AltitudeMeters>
            <DistanceMeters>NAN</DistanceMeters>
          </Trackpoint>
          <Trackpoint>
            <Time>2021-08-11T08:24:18.000Z</Time>
            <Position>
              <LatitudeDegrees>43.26376117765903472900390625</LatitudeDegrees>
              <LongitudeDegrees>-1.68742236681282520294189453125</LongitudeDegrees>
            </Position>
            <AltitudeMeters>45.59999847412109375</AltitudeMeters>
            <DistanceMeters>NAN</DistanceMeters>
          </Trackpoint>
          <Trackpoint>
            <Time>2021-08-11T08:24:19.000Z</Time>
            <Position>
              <LatitudeDegrees>43.26379898004233837127685546875</LatitudeDegrees>
              <LongitudeDegrees>-1.6874365322291851043701171875</LongitudeDegrees>
            </Position>
            <AltitudeMeters>45.59999847412109375</AltitudeMeters>
            <DistanceMeters>NAN</DistanceMeters>
          </Trackpoint>
          <Trackpoint>
            <Time>2021-08-11T08:24:20.000Z</Time>
            <Position>
              <LatitudeDegrees>43.26382261700928211212158203125</LatitudeDegrees>
              <LongitudeDegrees>-1.6874382086098194122314453125</LongitudeDegrees>
            </Position>
            <AltitudeMeters>45.59999847412109375</AltitudeMeters>
            <DistanceMeters>NAN</DistanceMeters>
          </Trackpoint>
          <Trackpoint>
            <Time>2021-08-11T08:24:21.000Z</Time>
            <Position>
              <LatitudeDegrees>43.26385647989809513092041015625</LatitudeDegrees>
              <LongitudeDegrees>-1.687428988516330718994140625</LongitudeDegrees>
            </Position>
            <AltitudeMeters>45.59999847412109375</AltitudeMeters>
            <DistanceMeters>NAN</DistanceMeters>
          </Trackpoint>
          <Trackpoint>
            <Time>2021-08-11T08:24:22.000Z</Time>
            <Position>
              <LatitudeDegrees>43.26388162560760974884033203125</LatitudeDegrees>
              <LongitudeDegrees>-1.6874165832996368408203125</LongitudeDegrees>
            </Position>
            <AltitudeMeters>45.59999847412109375</AltitudeMeters>
            <DistanceMeters>NAN</DistanceMeters>
          </Trackpoint>
          <Trackpoint>
            <Time>2021-08-11T08:24:23.000Z</Time>
            <Position>
              <LatitudeDegrees>43.26391079463064670562744140625</LatitudeDegrees>
              <LongitudeDegrees>-1.6874031722545623779296875</LongitudeDegrees>
            </Position>
            <AltitudeMeters>45.59999847412109375</AltitudeMeters>
            <DistanceMeters>NAN</DistanceMeters>
          </Trackpoint>
          <Trackpoint>
            <Time>2021-08-11T08:24:24.000Z</Time>
            <Position>
              <LatitudeDegrees>43.26393493451178073883056640625</LatitudeDegrees>
              <LongitudeDegrees>-1.6873905993998050689697265625</LongitudeDegrees>
            </Position>
            <AltitudeMeters>45.59999847412109375</AltitudeMeters>
            <DistanceMeters>NAN</DistanceMeters>
          </Trackpoint>
          <Trackpoint>
            <Time>2021-08-11T08:24:25.000Z</Time>
            <Position>
              <LatitudeDegrees>43.26396946795284748077392578125</LatitudeDegrees>
              <LongitudeDegrees>-1.68739805929362773895263671875</LongitudeDegrees>
            </Position>
            <AltitudeMeters>45.59999847412109375</AltitudeMeters>
            <DistanceMeters>NAN</DistanceMeters>
          </Trackpoint>
          <Trackpoint>
            <Time>2021-08-11T08:24:26.000Z</Time>
            <Position>
              <LatitudeDegrees>43.2639977149665355682373046875</LatitudeDegrees>
              <LongitudeDegrees>-1.68740442954003810882568359375</LongitudeDegrees>
            </Position>
            <AltitudeMeters>45.59999847412109375</AltitudeMeters>
            <DistanceMeters>NAN</DistanceMeters>
          </Trackpoint>
          <Trackpoint>
            <Time>2021-08-11T08:24:27.000Z</Time>
            <Position>
              <LatitudeDegrees>43.26402696780860424041748046875</LatitudeDegrees>
              <LongitudeDegrees>-1.68740250170230865478515625</LongitudeDegrees>
            </Position>
            <AltitudeMeters>45.40000152587890625</AltitudeMeters>
            <DistanceMeters>NAN</DistanceMeters>
          </Trackpoint>
          <Trackpoint>
            <Time>2021-08-11T08:24:28.000Z</Time>
            <Position>
              <LatitudeDegrees>43.26405261643230915069580078125</LatitudeDegrees>
              <LongitudeDegrees>-1.68739889748394489288330078125</LongitudeDegrees>
            </Position>
            <AltitudeMeters>45.40000152587890625</AltitudeMeters>
            <DistanceMeters>NAN</DistanceMeters>
          </Trackpoint>
          <Trackpoint>
            <Time>2021-08-11T08:24:31.000Z</Time>
            <Position>
              <LatitudeDegrees>43.26416887342929840087890625</LatitudeDegrees>
              <LongitudeDegrees>-1.68739956803619861602783203125</LongitudeDegrees>
            </Position>
            <AltitudeMeters>45.40000152587890625</AltitudeMeters>
            <DistanceMeters>NAN</DistanceMeters>
          </Trackpoint>
          <Trackpoint>
            <Time>2021-08-11T08:24:32.000Z</Time>
            <Position>
              <LatitudeDegrees>43.26420382596552371978759765625</LatitudeDegrees>
              <LongitudeDegrees>-1.6873976401984691619873046875</LongitudeDegrees>
            </Position>
            <AltitudeMeters>45.40000152587890625</AltitudeMeters>
            <DistanceMeters>NAN</DistanceMeters>
          </Trackpoint>
          <Trackpoint>
            <Time>2021-08-11T08:24:33.000Z</Time>
            <Position>
              <LatitudeDegrees>43.26423014514148235321044921875</LatitudeDegrees>
              <LongitudeDegrees>-1.68739772401750087738037109375</LongitudeDegrees>
            </Position>
            <AltitudeMeters>45.40000152587890625</AltitudeMeters>
            <DistanceMeters>NAN</DistanceMeters>
          </Trackpoint>
          <Trackpoint>
            <Time>2021-08-11T08:24:34.000Z</Time>
            <Position>
              <LatitudeDegrees>43.2642595656216144561767578125</LatitudeDegrees>
              <LongitudeDegrees>-1.6874009929597377777099609375</LongitudeDegrees>
            </Position>
            <AltitudeMeters>45.40000152587890625</AltitudeMeters>
            <DistanceMeters>NAN</DistanceMeters>
          </Trackpoint>
          <Trackpoint>
            <Time>2021-08-11T08:24:35.000Z</Time>
            <Position>
              <LatitudeDegrees>43.26428496278822422027587890625</LatitudeDegrees>
              <LongitudeDegrees>-1.68740023858845233917236328125</LongitudeDegrees>
            </Position>
            <AltitudeMeters>45.40000152587890625</AltitudeMeters>
            <DistanceMeters>NAN</DistanceMeters>
          </Trackpoint>
          <Trackpoint>
            <Time>2021-08-11T08:24:36.000Z</Time>
            <Position>
              <LatitudeDegrees>43.26431773602962493896484375</LatitudeDegrees>
              <LongitudeDegrees>-1.6873929463326930999755859375</LongitudeDegrees>
            </Position>
            <AltitudeMeters>45.40000152587890625</AltitudeMeters>
            <DistanceMeters>NAN</DistanceMeters>
          </Trackpoint>
          <Trackpoint>
            <Time>2021-08-11T08:24:39.000Z</Time>
            <Position>
              <LatitudeDegrees>43.26440113596618175506591796875</LatitudeDegrees>
              <LongitudeDegrees>-1.6873872466385364532470703125</LongitudeDegrees>
            </Position>
            <AltitudeMeters>45.40000152587890625</AltitudeMeters>
            <DistanceMeters>NAN</DistanceMeters>
          </Trackpoint>
          <Trackpoint>
            <Time>2021-08-11T08:24:40.000Z</Time>
            <Position>
              <LatitudeDegrees>43.26443030498921871185302734375</LatitudeDegrees>
              <LongitudeDegrees>-1.68738506734371185302734375</LongitudeDegrees>
            </Position>
            <AltitudeMeters>45.40000152587890625</AltitudeMeters>
            <DistanceMeters>NAN</DistanceMeters>
          </Trackpoint>
          <Trackpoint>
            <Time>2021-08-11T08:24:41.000Z</Time>
            <Position>
              <LatitudeDegrees>43.264468275010585784912109375</LatitudeDegrees>
              <LongitudeDegrees>-1.68737291358411312103271484375</LongitudeDegrees>
            </Position>
            <AltitudeMeters>45.40000152587890625</AltitudeMeters>
            <DistanceMeters>NAN</DistanceMeters>
          </Trackpoint>
          <Trackpoint>
            <Time>2021-08-11T08:24:42.000Z</Time>
            <Position>
              <LatitudeDegrees>43.26450289227068424224853515625</LatitudeDegrees>
              <LongitudeDegrees>-1.6873530484735965728759765625</LongitudeDegrees>
            </Position>
            <AltitudeMeters>45.40000152587890625</AltitudeMeters>
            <DistanceMeters>NAN</DistanceMeters>
          </Trackpoint>
          <Trackpoint>
            <Time>2021-08-11T08:24:43.000Z</Time>
            <Position>
              <LatitudeDegrees>43.26453507877886295318603515625</LatitudeDegrees>
              <LongitudeDegrees>-1.68733905069530010223388671875</LongitudeDegrees>
            </Position>
            <AltitudeMeters>45.40000152587890625</AltitudeMeters>
            <DistanceMeters>NAN</DistanceMeters>
          </Trackpoint>
          <Trackpoint>
            <Time>2021-08-11T08:24:46.000Z</Time>
            <Position>
              <LatitudeDegrees>43.26462241820991039276123046875</LatitudeDegrees>
              <LongitudeDegrees>-1.68730468489229679107666015625</LongitudeDegrees>
            </Position>
            <AltitudeMeters>45.200000762939453125</AltitudeMeters>
            <DistanceMeters>NAN</DistanceMeters>
          </Trackpoint>
          <Trackpoint>
            <Time>2021-08-11T08:24:53.000Z</Time>
            <Position>
              <LatitudeDegrees>43.26483406126499176025390625</LatitudeDegrees>
              <LongitudeDegrees>-1.6872028447687625885009765625</LongitudeDegrees>
            </Position>
            <AltitudeMeters>45.200000762939453125</AltitudeMeters>
            <DistanceMeters>NAN</DistanceMeters>
          </Trackpoint>
          <Trackpoint>
            <Time>2021-08-11T08:24:54.000Z</Time>
            <Position>
              <LatitudeDegrees>43.264857865869998931884765625</LatitudeDegrees>
              <LongitudeDegrees>-1.6871914453804492950439453125</LongitudeDegrees>
            </Position>
            <AltitudeMeters>45.200000762939453125</AltitudeMeters>
            <DistanceMeters>NAN</DistanceMeters>
          </Trackpoint>
          <Trackpoint>
            <Time>2021-08-11T08:24:55.000Z</Time>
            <Position>
              <LatitudeDegrees>43.26487672515213489532470703125</LatitudeDegrees>
              <LongitudeDegrees>-1.6871763579547405242919921875</LongitudeDegrees>
            </Position>
            <AltitudeMeters>45.200000762939453125</AltitudeMeters>
            <DistanceMeters>NAN</DistanceMeters>
          </Trackpoint>
          <Trackpoint>
            <Time>2021-08-11T08:24:56.000Z</Time>
            <Position>
              <LatitudeDegrees>43.26489843428134918212890625</LatitudeDegrees>
              <LongitudeDegrees>-1.6871532239019870758056640625</LongitudeDegrees>
            </Position>
            <AltitudeMeters>45.200000762939453125</AltitudeMeters>
            <DistanceMeters>NAN</DistanceMeters>
          </Trackpoint>
          <Trackpoint>
            <Time>2021-08-11T08:24:57.000Z</Time>
            <Position>
              <LatitudeDegrees>43.26492718420922756195068359375</LatitudeDegrees>
              <LongitudeDegrees>-1.68712967075407505035400390625</LongitudeDegrees>
            </Position>
            <AltitudeMeters>45.200000762939453125</AltitudeMeters>
            <DistanceMeters>NAN</DistanceMeters>
          </Trackpoint>
          <Trackpoint>
            <Time>2021-08-11T08:24:58.000Z</Time>
            <Position>
              <LatitudeDegrees>43.26495635323226451873779296875</LatitudeDegrees>
              <LongitudeDegrees>-1.68710402213037014007568359375</LongitudeDegrees>
            </Position>
            <AltitudeMeters>45</AltitudeMeters>
            <DistanceMeters>NAN</DistanceMeters>
          </Trackpoint>
          <Trackpoint>
            <Time>2021-08-11T08:24:59.000Z</Time>
            <Position>
              <LatitudeDegrees>43.264987282454967498779296875</LatitudeDegrees>
              <LongitudeDegrees>-1.68708021752536296844482421875</LongitudeDegrees>
            </Position>
            <AltitudeMeters>45</AltitudeMeters>
            <DistanceMeters>NAN</DistanceMeters>
          </Trackpoint>
          <Trackpoint>
            <Time>2021-08-11T08:25:03.000Z</Time>
            <Position>
              <LatitudeDegrees>43.2651128433644771575927734375</LatitudeDegrees>
              <LongitudeDegrees>-1.6869684867560863494873046875</LongitudeDegrees>
            </Position>
            <AltitudeMeters>44.799999237060546875</AltitudeMeters>
            <DistanceMeters>NAN</DistanceMeters>
          </Trackpoint>
          <Trackpoint>
            <Time>2021-08-11T08:25:04.000Z</Time>
            <Position>
              <LatitudeDegrees>43.26514326967298984527587890625</LatitudeDegrees>
              <LongitudeDegrees>-1.6869383119046688079833984375</LongitudeDegrees>
            </Position>
            <AltitudeMeters>44.799999237060546875</AltitudeMeters>
            <DistanceMeters>NAN</DistanceMeters>
          </Trackpoint>
          <Trackpoint>
            <Time>2021-08-11T08:25:05.000Z</Time>
            <Position>
              <LatitudeDegrees>43.2651715166866779327392578125</LatitudeDegrees>
              <LongitudeDegrees>-1.68691358529031276702880859375</LongitudeDegrees>
            </Position>
            <AltitudeMeters>45</AltitudeMeters>
            <DistanceMeters>NAN</DistanceMeters>
          </Trackpoint>
          <Trackpoint>
            <Time>2021-08-11T08:25:10.000Z</Time>
            <Position>
              <LatitudeDegrees>43.26533337123692035675048828125</LatitudeDegrees>
              <LongitudeDegrees>-1.68675248511135578155517578125</LongitudeDegrees>
            </Position>
            <AltitudeMeters>45</AltitudeMeters>
            <DistanceMeters>NAN</DistanceMeters>
          </Trackpoint>
          <Trackpoint>
            <Time>2021-08-11T08:25:12.000Z</Time>
            <Position>
              <LatitudeDegrees>43.26538030989468097686767578125</LatitudeDegrees>
              <LongitudeDegrees>-1.6867210529744625091552734375</LongitudeDegrees>
            </Position>
            <AltitudeMeters>45</AltitudeMeters>
            <DistanceMeters>NAN</DistanceMeters>
          </Trackpoint>
          <Trackpoint>
            <Time>2021-08-11T08:25:13.000Z</Time>
            <Position>
              <LatitudeDegrees>43.2654125802218914031982421875</LatitudeDegrees>
              <LongitudeDegrees>-1.68670068494975566864013671875</LongitudeDegrees>
            </Position>
            <AltitudeMeters>45</AltitudeMeters>
            <DistanceMeters>NAN</DistanceMeters>
          </Trackpoint>
          <Trackpoint>
            <Time>2021-08-11T08:25:14.000Z</Time>
            <Position>
              <LatitudeDegrees>43.26544292271137237548828125</LatitudeDegrees>
              <LongitudeDegrees>-1.68667252175509929656982421875</LongitudeDegrees>
            </Position>
            <AltitudeMeters>45</AltitudeMeters>
            <DistanceMeters>NAN</DistanceMeters>
          </Trackpoint>
          <Trackpoint>
            <Time>2021-08-11T08:25:19.000Z</Time>
            <Position>
              <LatitudeDegrees>43.265605866909027099609375</LatitudeDegrees>
              <LongitudeDegrees>-1.68655894696712493896484375</LongitudeDegrees>
            </Position>
            <AltitudeMeters>45</AltitudeMeters>
            <DistanceMeters>NAN</DistanceMeters>
          </Trackpoint>
          <Trackpoint>
            <Time>2021-08-11T08:25:21.000Z</Time>
            <Position>
              <LatitudeDegrees>43.26568071730434894561767578125</LatitudeDegrees>
              <LongitudeDegrees>-1.68650052510201930999755859375</LongitudeDegrees>
            </Position>
            <AltitudeMeters>45</AltitudeMeters>
            <DistanceMeters>NAN</DistanceMeters>
          </Trackpoint>
          <Trackpoint>
            <Time>2021-08-11T08:25:24.000Z</Time>
            <Position>
              <LatitudeDegrees>43.265782557427883148193359375</LatitudeDegrees>
              <LongitudeDegrees>-1.68638334609568119049072265625</LongitudeDegrees>
            </Position>
            <AltitudeMeters>45</AltitudeMeters>
            <DistanceMeters>NAN</DistanceMeters>
          </Trackpoint>
          <Trackpoint>
            <Time>2021-08-11T08:25:25.000Z</Time>
            <Position>
              <LatitudeDegrees>43.265816085040569305419921875</LatitudeDegrees>
              <LongitudeDegrees>-1.68633607216179370880126953125</LongitudeDegrees>
            </Position>
            <AltitudeMeters>45</AltitudeMeters>
            <DistanceMeters>NAN</DistanceMeters>
          </Trackpoint>
          <Trackpoint>
            <Time>2021-08-11T08:25:26.000Z</Time>
            <Position>
              <LatitudeDegrees>43.26584927737712860107421875</LatitudeDegrees>
              <LongitudeDegrees>-1.68630304746329784393310546875</LongitudeDegrees>
            </Position>
            <AltitudeMeters>45</AltitudeMeters>
            <DistanceMeters>NAN</DistanceMeters>
          </Trackpoint>
          <Trackpoint>
            <Time>2021-08-11T08:25:27.000Z</Time>
            <Position>
              <LatitudeDegrees>43.26587366871535778045654296875</LatitudeDegrees>
              <LongitudeDegrees>-1.686275638639926910400390625</LongitudeDegrees>
            </Position>
            <AltitudeMeters>45</AltitudeMeters>
            <DistanceMeters>NAN</DistanceMeters>
          </Trackpoint>
          <Trackpoint>
            <Time>2021-08-11T08:25:28.000Z</Time>
            <Position>
              <LatitudeDegrees>43.26590367592871189117431640625</LatitudeDegrees>
              <LongitudeDegrees>-1.68624370358884334564208984375</LongitudeDegrees>
            </Position>
            <AltitudeMeters>45</AltitudeMeters>
            <DistanceMeters>NAN</DistanceMeters>
          </Trackpoint>
          <Trackpoint>
            <Time>2021-08-11T08:25:29.000Z</Time>
            <Position>
              <LatitudeDegrees>43.2659413106739521026611328125</LatitudeDegrees>
              <LongitudeDegrees>-1.6862040571868419647216796875</LongitudeDegrees>
            </Position>
            <AltitudeMeters>45</AltitudeMeters>
            <DistanceMeters>NAN</DistanceMeters>
          </Trackpoint>
          <Trackpoint>
            <Time>2021-08-11T08:25:30.000Z</Time>
            <Position>
              <LatitudeDegrees>43.26597156934440135955810546875</LatitudeDegrees>
              <LongitudeDegrees>-1.68616675771772861480712890625</LongitudeDegrees>
            </Position>
            <AltitudeMeters>45</AltitudeMeters>
            <DistanceMeters>NAN</DistanceMeters>
          </Trackpoint>
          <Trackpoint>
            <Time>2021-08-11T08:25:31.000Z</Time>
            <Position>
              <LatitudeDegrees>43.265996463596820831298828125</LatitudeDegrees>
              <LongitudeDegrees>-1.68612652458250522613525390625</LongitudeDegrees>
            </Position>
            <AltitudeMeters>45</AltitudeMeters>
            <DistanceMeters>NAN</DistanceMeters>
          </Trackpoint>
          <Trackpoint>
            <Time>2021-08-11T08:25:32.000Z</Time>
            <Position>
              <LatitudeDegrees>43.26601465232670307159423828125</LatitudeDegrees>
              <LongitudeDegrees>-1.68609760701656341552734375</LongitudeDegrees>
            </Position>
            <AltitudeMeters>45.200000762939453125</AltitudeMeters>
            <DistanceMeters>NAN</DistanceMeters>
          </Trackpoint>
          <Trackpoint>
            <Time>2021-08-11T08:25:33.000Z</Time>
            <Position>
              <LatitudeDegrees>43.2660361938178539276123046875</LatitudeDegrees>
              <LongitudeDegrees>-1.68606349267065525054931640625</LongitudeDegrees>
            </Position>
            <AltitudeMeters>45.200000762939453125</AltitudeMeters>
            <DistanceMeters>NAN</DistanceMeters>
          </Trackpoint>
          <Trackpoint>
            <Time>2021-08-11T08:25:34.000Z</Time>
            <Position>
              <LatitudeDegrees>43.2660605013370513916015625</LatitudeDegrees>
              <LongitudeDegrees>-1.68602644465863704681396484375</LongitudeDegrees>
            </Position>
            <AltitudeMeters>45.200000762939453125</AltitudeMeters>
            <DistanceMeters>NAN</DistanceMeters>
          </Trackpoint>
          <Trackpoint>
            <Time>2021-08-11T08:25:35.000Z</Time>
            <Position>
              <LatitudeDegrees>43.26608941890299320220947265625</LatitudeDegrees>
              <LongitudeDegrees>-1.68598704971373081207275390625</LongitudeDegrees>
            </Position>
            <AltitudeMeters>45.40000152587890625</AltitudeMeters>
            <DistanceMeters>NAN</DistanceMeters>
          </Trackpoint>
          <Trackpoint>
            <Time>2021-08-11T08:25:36.000Z</Time>
            <Position>
              <LatitudeDegrees>43.266112469136714935302734375</LatitudeDegrees>
              <LongitudeDegrees>-1.68596575967967510223388671875</LongitudeDegrees>
            </Position>
            <AltitudeMeters>45.40000152587890625</AltitudeMeters>
            <DistanceMeters>NAN</DistanceMeters>
          </Trackpoint>
          <Trackpoint>
            <Time>2021-08-11T08:25:37.000Z</Time>
            <Position>
              <LatitudeDegrees>43.26613049022853374481201171875</LatitudeDegrees>
              <LongitudeDegrees>-1.685947068035602569580078125</LongitudeDegrees>
            </Position>
            <AltitudeMeters>45.40000152587890625</AltitudeMeters>
            <DistanceMeters>NAN</DistanceMeters>
          </Trackpoint>
          <Trackpoint>
            <Time>2021-08-11T08:25:38.000Z</Time>
            <Position>
              <LatitudeDegrees>43.26613920740783214569091796875</LatitudeDegrees>
              <LongitudeDegrees>-1.68593273498117923736572265625</LongitudeDegrees>
            </Position>
            <AltitudeMeters>45.40000152587890625</AltitudeMeters>
            <DistanceMeters>NAN</DistanceMeters>
          </Trackpoint>
          <Trackpoint>
            <Time>2021-08-11T08:25:39.000Z</Time>
            <Position>
              <LatitudeDegrees>43.266145326197147369384765625</LatitudeDegrees>
              <LongitudeDegrees>-1.68592586182057857513427734375</LongitudeDegrees>
            </Position>
            <AltitudeMeters>45.40000152587890625</AltitudeMeters>
            <DistanceMeters>NAN</DistanceMeters>
          </Trackpoint>
          <Trackpoint>
            <Time>2021-08-11T08:25:40.000Z</Time>
            <Position>
              <LatitudeDegrees>43.266145326197147369384765625</LatitudeDegrees>
              <LongitudeDegrees>-1.68592586182057857513427734375</LongitudeDegrees>
            </Position>
            <AltitudeMeters>45.40000152587890625</AltitudeMeters>
            <DistanceMeters>NAN</DistanceMeters>
          </Trackpoint>
          <Trackpoint>
            <Time>2021-08-11T08:25:44.000Z</Time>
            <Position>
              <LatitudeDegrees>43.266145326197147369384765625</LatitudeDegrees>
              <LongitudeDegrees>-1.68592586182057857513427734375</LongitudeDegrees>
            </Position>
            <AltitudeMeters>45.40000152587890625</AltitudeMeters>
            <DistanceMeters>NAN</DistanceMeters>
          </Trackpoint>
          <Trackpoint>
            <Time>2021-08-11T08:25:52.000Z</Time>
            <Position>
              <LatitudeDegrees>43.266145326197147369384765625</LatitudeDegrees>
              <LongitudeDegrees>-1.68592586182057857513427734375</LongitudeDegrees>
            </Position>
            <AltitudeMeters>45.40000152587890625</AltitudeMeters>
            <DistanceMeters>NAN</DistanceMeters>
          </Trackpoint>
          <Trackpoint>
            <Time>2021-08-11T08:26:23.000Z</Time>
            <Position>
              <LatitudeDegrees>43.266145326197147369384765625</LatitudeDegrees>
              <LongitudeDegrees>-1.68592586182057857513427734375</LongitudeDegrees>
            </Position>
            <AltitudeMeters>45.200000762939453125</AltitudeMeters>
            <DistanceMeters>NAN</DistanceMeters>
          </Trackpoint>
          <Trackpoint>
            <Time>2021-08-11T08:27:00.000Z</Time>
            <Position>
              <LatitudeDegrees>43.26614893041551113128662109375</LatitudeDegrees>
              <LongitudeDegrees>-1.68592569418251514434814453125</LongitudeDegrees>
            </Position>
            <AltitudeMeters>45.200000762939453125</AltitudeMeters>
            <DistanceMeters>NAN</DistanceMeters>
          </Trackpoint>
          <Trackpoint>
            <Time>2021-08-11T08:27:02.000Z</Time>
            <Position>
              <LatitudeDegrees>43.26618882827460765838623046875</LatitudeDegrees>
              <LongitudeDegrees>-1.68589174747467041015625</LongitudeDegrees>
            </Position>
            <AltitudeMeters>45.200000762939453125</AltitudeMeters>
            <DistanceMeters>NAN</DistanceMeters>
          </Trackpoint>
          <Trackpoint>
            <Time>2021-08-11T08:27:07.000Z</Time>
            <Position>
              <LatitudeDegrees>43.2663530297577381134033203125</LatitudeDegrees>
              <LongitudeDegrees>-1.6857742331922054290771484375</LongitudeDegrees>
            </Position>
            <AltitudeMeters>45.200000762939453125</AltitudeMeters>
            <DistanceMeters>NAN</DistanceMeters>
          </Trackpoint>
          <Trackpoint>
            <Time>2021-08-11T08:27:11.000Z</Time>
            <Position>
              <LatitudeDegrees>43.266560733318328857421875</LatitudeDegrees>
              <LongitudeDegrees>-1.685631237924098968505859375</LongitudeDegrees>
            </Position>
            <AltitudeMeters>45.40000152587890625</AltitudeMeters>
            <DistanceMeters>NAN</DistanceMeters>
          </Trackpoint>
          <Trackpoint>
            <Time>2021-08-11T08:27:16.000Z</Time>
            <Position>
              <LatitudeDegrees>43.2668294571340084075927734375</LatitudeDegrees>
              <LongitudeDegrees>-1.68544222600758075714111328125</LongitudeDegrees>
            </Position>
            <AltitudeMeters>45.200000762939453125</AltitudeMeters>
            <DistanceMeters>NAN</DistanceMeters>
          </Trackpoint>
          <Trackpoint>
            <Time>2021-08-11T08:27:18.000Z</Time>
            <Position>
              <LatitudeDegrees>43.2669333927333354949951171875</LatitudeDegrees>
              <LongitudeDegrees>-1.68537114746868610382080078125</LongitudeDegrees>
            </Position>
            <AltitudeMeters>45.200000762939453125</AltitudeMeters>
            <DistanceMeters>NAN</DistanceMeters>
          </Trackpoint>
          <Trackpoint>
            <Time>2021-08-11T08:27:24.000Z</Time>
            <Position>
              <LatitudeDegrees>43.2672488875687122344970703125</LatitudeDegrees>
              <LongitudeDegrees>-1.68514952994883060455322265625</LongitudeDegrees>
            </Position>
            <AltitudeMeters>44.59999847412109375</AltitudeMeters>
            <DistanceMeters>NAN</DistanceMeters>
          </Trackpoint>
          <Trackpoint>
            <Time>2021-08-11T08:27:25.000Z</Time>
            <Position>
              <LatitudeDegrees>43.2672918029129505157470703125</LatitudeDegrees>
              <LongitudeDegrees>-1.68512119911611080169677734375</LongitudeDegrees>
            </Position>
            <AltitudeMeters>44.59999847412109375</AltitudeMeters>
            <DistanceMeters>NAN</DistanceMeters>
          </Trackpoint>
          <Trackpoint>
            <Time>2021-08-11T08:27:26.000Z</Time>
            <Position>
              <LatitudeDegrees>43.267328180372714996337890625</LatitudeDegrees>
              <LongitudeDegrees>-1.68509454466402530670166015625</LongitudeDegrees>
            </Position>
            <AltitudeMeters>44.40000152587890625</AltitudeMeters>
            <DistanceMeters>NAN</DistanceMeters>
          </Trackpoint>
          <Trackpoint>
            <Time>2021-08-11T08:27:27.000Z</Time>
            <Position>
              <LatitudeDegrees>43.26736212708055973052978515625</LatitudeDegrees>
              <LongitudeDegrees>-1.6850684769451618194580078125</LongitudeDegrees>
            </Position>
            <AltitudeMeters>44.40000152587890625</AltitudeMeters>
            <DistanceMeters>NAN</DistanceMeters>
          </Trackpoint>
          <Trackpoint>
            <Time>2021-08-11T08:27:28.000Z</Time>
            <Position>
              <LatitudeDegrees>43.26739733107388019561767578125</LatitudeDegrees>
              <LongitudeDegrees>-1.685045175254344940185546875</LongitudeDegrees>
            </Position>
            <AltitudeMeters>44.40000152587890625</AltitudeMeters>
            <DistanceMeters>NAN</DistanceMeters>
          </Trackpoint>
          <Trackpoint>
            <Time>2021-08-11T08:27:29.000Z</Time>
            <Position>
              <LatitudeDegrees>43.26743454672396183013916015625</LatitudeDegrees>
              <LongitudeDegrees>-1.68501609005033969879150390625</LongitudeDegrees>
            </Position>
            <AltitudeMeters>44.40000152587890625</AltitudeMeters>
            <DistanceMeters>NAN</DistanceMeters>
          </Trackpoint>
          <Trackpoint>
            <Time>2021-08-11T08:27:32.000Z</Time>
            <Position>
              <LatitudeDegrees>43.267558850347995758056640625</LatitudeDegrees>
              <LongitudeDegrees>-1.68491634540259838104248046875</LongitudeDegrees>
            </Position>
            <AltitudeMeters>44.59999847412109375</AltitudeMeters>
            <DistanceMeters>NAN</DistanceMeters>
          </Trackpoint>
          <Trackpoint>
            <Time>2021-08-11T08:27:35.000Z</Time>
            <Position>
              <LatitudeDegrees>43.267683573067188262939453125</LatitudeDegrees>
              <LongitudeDegrees>-1.68481593020260334014892578125</LongitudeDegrees>
            </Position>
            <AltitudeMeters>44.799999237060546875</AltitudeMeters>
            <DistanceMeters>NAN</DistanceMeters>
          </Trackpoint>
          <Trackpoint>
            <Time>2021-08-11T08:27:39.000Z</Time>
            <Position>
              <LatitudeDegrees>43.2678508758544921875</LatitudeDegrees>
              <LongitudeDegrees>-1.68470143340528011322021484375</LongitudeDegrees>
            </Position>
            <AltitudeMeters>44.799999237060546875</AltitudeMeters>
            <DistanceMeters>NAN</DistanceMeters>
          </Trackpoint>
          <Trackpoint>
            <Time>2021-08-11T08:27:40.000Z</Time>
            <Position>
              <LatitudeDegrees>43.2678909413516521453857421875</LatitudeDegrees>
              <LongitudeDegrees>-1.6846829093992710113525390625</LongitudeDegrees>
            </Position>
            <AltitudeMeters>44.799999237060546875</AltitudeMeters>
            <DistanceMeters>NAN</DistanceMeters>
          </Trackpoint>
          <Trackpoint>
            <Time>2021-08-11T08:27:44.000Z</Time>
            <Position>
              <LatitudeDegrees>43.2680508680641651153564453125</LatitudeDegrees>
              <LongitudeDegrees>-1.68462398461997509002685546875</LongitudeDegrees>
            </Position>
            <AltitudeMeters>45</AltitudeMeters>
            <DistanceMeters>NAN</DistanceMeters>
          </Trackpoint>
          <Trackpoint>
            <Time>2021-08-11T08:27:46.000Z</Time>
            <Position>
              <LatitudeDegrees>43.26812504790723323822021484375</LatitudeDegrees>
              <LongitudeDegrees>-1.6846098192036151885986328125</LongitudeDegrees>
            </Position>
            <AltitudeMeters>45</AltitudeMeters>
            <DistanceMeters>NAN</DistanceMeters>
          </Trackpoint>
          <Trackpoint>
            <Time>2021-08-11T08:27:47.000Z</Time>
            <Position>
              <LatitudeDegrees>43.2681621797382831573486328125</LatitudeDegrees>
              <LongitudeDegrees>-1.68460629880428314208984375</LongitudeDegrees>
            </Position>
            <AltitudeMeters>45</AltitudeMeters>
            <DistanceMeters>NAN</DistanceMeters>
          </Trackpoint>
          <Trackpoint>
            <Time>2021-08-11T08:27:48.000Z</Time>
            <Position>
              <LatitudeDegrees>43.26819947920739650726318359375</LatitudeDegrees>
              <LongitudeDegrees>-1.68460495769977569580078125</LongitudeDegrees>
            </Position>
            <AltitudeMeters>45</AltitudeMeters>
            <DistanceMeters>NAN</DistanceMeters>
          </Trackpoint>
          <Trackpoint>
            <Time>2021-08-11T08:27:49.000Z</Time>
            <Position>
              <LatitudeDegrees>43.268237449228763580322265625</LatitudeDegrees>
              <LongitudeDegrees>-1.68460428714752197265625</LongitudeDegrees>
            </Position>
            <AltitudeMeters>45</AltitudeMeters>
            <DistanceMeters>NAN</DistanceMeters>
          </Trackpoint>
          <Trackpoint>
            <Time>2021-08-11T08:27:50.000Z</Time>
            <Position>
              <LatitudeDegrees>43.26827055774629116058349609375</LatitudeDegrees>
              <LongitudeDegrees>-1.6846044547855854034423828125</LongitudeDegrees>
            </Position>
            <AltitudeMeters>45</AltitudeMeters>
            <DistanceMeters>NAN</DistanceMeters>
          </Trackpoint>
          <Trackpoint>
            <Time>2021-08-11T08:27:51.000Z</Time>
            <Position>
              <LatitudeDegrees>43.268297798931598663330078125</LatitudeDegrees>
              <LongitudeDegrees>-1.68460755608975887298583984375</LongitudeDegrees>
            </Position>
            <AltitudeMeters>45</AltitudeMeters>
            <DistanceMeters>NAN</DistanceMeters>
          </Trackpoint>
          <Trackpoint>
            <Time>2021-08-11T08:27:52.000Z</Time>
            <Position>
              <LatitudeDegrees>43.26832101680338382720947265625</LatitudeDegrees>
              <LongitudeDegrees>-1.6846114955842494964599609375</LongitudeDegrees>
            </Position>
            <AltitudeMeters>45</AltitudeMeters>
            <DistanceMeters>NAN</DistanceMeters>
          </Trackpoint>
          <Trackpoint>
            <Time>2021-08-11T08:27:53.000Z</Time>
            <Position>
              <LatitudeDegrees>43.26834130100905895233154296875</LatitudeDegrees>
              <LongitudeDegrees>-1.68461300432682037353515625</LongitudeDegrees>
            </Position>
            <AltitudeMeters>45</AltitudeMeters>
            <DistanceMeters>NAN</DistanceMeters>
          </Trackpoint>
          <Trackpoint>
            <Time>2021-08-11T08:27:54.000Z</Time>
            <Position>
              <LatitudeDegrees>43.26835940591990947723388671875</LatitudeDegrees>
              <LongitudeDegrees>-1.68461476452648639678955078125</LongitudeDegrees>
            </Position>
            <AltitudeMeters>45</AltitudeMeters>
            <DistanceMeters>NAN</DistanceMeters>
          </Trackpoint>
          <Trackpoint>
            <Time>2021-08-11T08:27:55.000Z</Time>
            <Position>
              <LatitudeDegrees>43.268373906612396240234375</LatitudeDegrees>
              <LongitudeDegrees>-1.68461409397423267364501953125</LongitudeDegrees>
            </Position>
            <AltitudeMeters>45</AltitudeMeters>
            <DistanceMeters>NAN</DistanceMeters>
          </Trackpoint>
          <Trackpoint>
            <Time>2021-08-11T08:27:56.000Z</Time>
            <Position>
              <LatitudeDegrees>43.2683884911239147186279296875</LatitudeDegrees>
              <LongitudeDegrees>-1.68461778201162815093994140625</LongitudeDegrees>
            </Position>
            <AltitudeMeters>44.799999237060546875</AltitudeMeters>
            <DistanceMeters>NAN</DistanceMeters>
          </Trackpoint>
          <Trackpoint>
            <Time>2021-08-11T08:27:57.000Z</Time>
            <Position>
              <LatitudeDegrees>43.26840098015964031219482421875</LatitudeDegrees>
              <LongitudeDegrees>-1.6846269182860851287841796875</LongitudeDegrees>
            </Position>
            <AltitudeMeters>44.799999237060546875</AltitudeMeters>
            <DistanceMeters>NAN</DistanceMeters>
          </Trackpoint>
          <Trackpoint>
            <Time>2021-08-11T08:27:58.000Z</Time>
            <Position>
              <LatitudeDegrees>43.26841170899569988250732421875</LatitudeDegrees>
              <LongitudeDegrees>-1.684637479484081268310546875</LongitudeDegrees>
            </Position>
            <AltitudeMeters>44.799999237060546875</AltitudeMeters>
            <DistanceMeters>NAN</DistanceMeters>
          </Trackpoint>
          <Trackpoint>
            <Time>2021-08-11T08:27:59.000Z</Time>
            <Position>
              <LatitudeDegrees>43.26842260546982288360595703125</LatitudeDegrees>
              <LongitudeDegrees>-1.68464141897857189178466796875</LongitudeDegrees>
            </Position>
            <AltitudeMeters>44.799999237060546875</AltitudeMeters>
            <DistanceMeters>NAN</DistanceMeters>
          </Trackpoint>
          <Trackpoint>
            <Time>2021-08-11T08:28:00.000Z</Time>
            <Position>
              <LatitudeDegrees>43.26843031682074069976806640625</LatitudeDegrees>
              <LongitudeDegrees>-1.68464242480695247650146484375</LongitudeDegrees>
            </Position>
            <AltitudeMeters>44.799999237060546875</AltitudeMeters>
            <DistanceMeters>NAN</DistanceMeters>
          </Trackpoint>
          <Trackpoint>
            <Time>2021-08-11T08:28:01.000Z</Time>
            <Position>
              <LatitudeDegrees>43.268434591591358184814453125</LatitudeDegrees>
              <LongitudeDegrees>-1.68464359827339649200439453125</LongitudeDegrees>
            </Position>
            <AltitudeMeters>44.799999237060546875</AltitudeMeters>
            <DistanceMeters>NAN</DistanceMeters>
          </Trackpoint>
          <Trackpoint>
            <Time>2021-08-11T08:28:03.000Z</Time>
            <Position>
              <LatitudeDegrees>43.268434591591358184814453125</LatitudeDegrees>
              <LongitudeDegrees>-1.68464359827339649200439453125</LongitudeDegrees>
            </Position>
            <AltitudeMeters>44.799999237060546875</AltitudeMeters>
            <DistanceMeters>NAN</DistanceMeters>
          </Trackpoint>
          <Trackpoint>
            <Time>2021-08-11T08:28:29.000Z</Time>
            <Position>
              <LatitudeDegrees>43.26846250332891941070556640625</LatitudeDegrees>
              <LongitudeDegrees>-1.68464343063533306121826171875</LongitudeDegrees>
            </Position>
            <AltitudeMeters>44.799999237060546875</AltitudeMeters>
            <DistanceMeters>NAN</DistanceMeters>
          </Trackpoint>
          <Trackpoint>
            <Time>2021-08-11T08:28:30.000Z</Time>
            <Position>
              <LatitudeDegrees>43.2684914208948612213134765625</LatitudeDegrees>
              <LongitudeDegrees>-1.6846487112343311309814453125</LongitudeDegrees>
            </Position>
            <AltitudeMeters>44.799999237060546875</AltitudeMeters>
            <DistanceMeters>NAN</DistanceMeters>
          </Trackpoint>
          <Trackpoint>
            <Time>2021-08-11T08:28:36.000Z</Time>
            <Position>
              <LatitudeDegrees>43.26870440505445003509521484375</LatitudeDegrees>
              <LongitudeDegrees>-1.68472724966704845428466796875</LongitudeDegrees>
            </Position>
            <AltitudeMeters>44.799999237060546875</AltitudeMeters>
            <DistanceMeters>NAN</DistanceMeters>
          </Trackpoint>
          <Trackpoint>
            <Time>2021-08-11T08:28:38.000Z</Time>
            <Position>
              <LatitudeDegrees>43.26877632178366184234619140625</LatitudeDegrees>
              <LongitudeDegrees>-1.68476614169776439666748046875</LongitudeDegrees>
            </Position>
            <AltitudeMeters>44.799999237060546875</AltitudeMeters>
            <DistanceMeters>NAN</DistanceMeters>
          </Trackpoint>
          <Trackpoint>
            <Time>2021-08-11T08:28:39.000Z</Time>
            <Position>
              <LatitudeDegrees>43.26880750246345996856689453125</LatitudeDegrees>
              <LongitudeDegrees>-1.6847881861031055450439453125</LongitudeDegrees>
            </Position>
            <AltitudeMeters>44.799999237060546875</AltitudeMeters>
            <DistanceMeters>NAN</DistanceMeters>
          </Trackpoint>
          <Trackpoint>
            <Time>2021-08-11T08:28:40.000Z</Time>
            <Position>
              <LatitudeDegrees>43.26883465982973575592041015625</LatitudeDegrees>
              <LongitudeDegrees>-1.684813164174556732177734375</LongitudeDegrees>
            </Position>
            <AltitudeMeters>44.799999237060546875</AltitudeMeters>
            <DistanceMeters>NAN</DistanceMeters>
          </Trackpoint>
          <Trackpoint>
            <Time>2021-08-11T08:28:43.000Z</Time>
            <Position>
              <LatitudeDegrees>43.26891730539500713348388671875</LatitudeDegrees>
              <LongitudeDegrees>-1.68490695767104625701904296875</LongitudeDegrees>
            </Position>
            <AltitudeMeters>44.59999847412109375</AltitudeMeters>
            <DistanceMeters>NAN</DistanceMeters>
          </Trackpoint>
          <Trackpoint>
            <Time>2021-08-11T08:28:51.000Z</Time>
            <Position>
              <LatitudeDegrees>43.269124925136566162109375</LatitudeDegrees>
              <LongitudeDegrees>-1.6852672956883907318115234375</LongitudeDegrees>
            </Position>
            <AltitudeMeters>44.799999237060546875</AltitudeMeters>
            <DistanceMeters>NAN</DistanceMeters>
          </Trackpoint>
          <Trackpoint>
            <Time>2021-08-11T08:28:54.000Z</Time>
            <Position>
              <LatitudeDegrees>43.26919625513255596160888671875</LatitudeDegrees>
              <LongitudeDegrees>-1.68541741557419300079345703125</LongitudeDegrees>
            </Position>
            <AltitudeMeters>44.799999237060546875</AltitudeMeters>
            <DistanceMeters>NAN</DistanceMeters>
          </Trackpoint>
          <Trackpoint>
            <Time>2021-08-11T08:28:56.000Z</Time>
            <Position>
              <LatitudeDegrees>43.26923112384974956512451171875</LatitudeDegrees>
              <LongitudeDegrees>-1.68551498092710971832275390625</LongitudeDegrees>
            </Position>
            <AltitudeMeters>44.59999847412109375</AltitudeMeters>
            <DistanceMeters>NAN</DistanceMeters>
          </Trackpoint>
          <Trackpoint>
            <Time>2021-08-11T08:28:57.000Z</Time>
            <Position>
              <LatitudeDegrees>43.26924763619899749755859375</LatitudeDegrees>
              <LongitudeDegrees>-1.6855646856129169464111328125</LongitudeDegrees>
            </Position>
            <AltitudeMeters>44.59999847412109375</AltitudeMeters>
            <DistanceMeters>NAN</DistanceMeters>
          </Trackpoint>
          <Trackpoint>
            <Time>2021-08-11T08:28:58.000Z</Time>
            <Position>
              <LatitudeDegrees>43.26925995759665966033935546875</LatitudeDegrees>
              <LongitudeDegrees>-1.6856156475841999053955078125</LongitudeDegrees>
            </Position>
            <AltitudeMeters>44.59999847412109375</AltitudeMeters>
            <DistanceMeters>NAN</DistanceMeters>
          </Trackpoint>
          <Trackpoint>
            <Time>2021-08-11T08:28:59.000Z</Time>
            <Position>
              <LatitudeDegrees>43.26927286572754383087158203125</LatitudeDegrees>
              <LongitudeDegrees>-1.68566267006099224090576171875</LongitudeDegrees>
            </Position>
            <AltitudeMeters>44.59999847412109375</AltitudeMeters>
            <DistanceMeters>NAN</DistanceMeters>
          </Trackpoint>
          <Trackpoint>
            <Time>2021-08-11T08:29:00.000Z</Time>
            <Position>
              <LatitudeDegrees>43.26928560622036457061767578125</LatitudeDegrees>
              <LongitudeDegrees>-1.68571136891841888427734375</LongitudeDegrees>
            </Position>
            <AltitudeMeters>44.59999847412109375</AltitudeMeters>
            <DistanceMeters>NAN</DistanceMeters>
          </Trackpoint>
          <Trackpoint>
            <Time>2021-08-11T08:29:01.000Z</Time>
            <Position>
              <LatitudeDegrees>43.2692954130470752716064453125</LatitudeDegrees>
              <LongitudeDegrees>-1.685761995613574981689453125</LongitudeDegrees>
            </Position>
            <AltitudeMeters>44.59999847412109375</AltitudeMeters>
            <DistanceMeters>NAN</DistanceMeters>
          </Trackpoint>
          <Trackpoint>
            <Time>2021-08-11T08:29:02.000Z</Time>
            <Position>
              <LatitudeDegrees>43.2693041302263736724853515625</LatitudeDegrees>
              <LongitudeDegrees>-1.685812957584857940673828125</LongitudeDegrees>
            </Position>
            <AltitudeMeters>44.59999847412109375</AltitudeMeters>
            <DistanceMeters>NAN</DistanceMeters>
          </Trackpoint>
          <Trackpoint>
            <Time>2021-08-11T08:29:03.000Z</Time>
            <Position>
              <LatitudeDegrees>43.26931544579565525054931640625</LatitudeDegrees>
              <LongitudeDegrees>-1.68586199171841144561767578125</LongitudeDegrees>
            </Position>
            <AltitudeMeters>44.40000152587890625</AltitudeMeters>
            <DistanceMeters>NAN</DistanceMeters>
          </Trackpoint>
          <Trackpoint>
            <Time>2021-08-11T08:29:04.000Z</Time>
            <Position>
              <LatitudeDegrees>43.26932785101234912872314453125</LatitudeDegrees>
              <LongitudeDegrees>-1.6859118640422821044921875</LongitudeDegrees>
            </Position>
            <AltitudeMeters>44.40000152587890625</AltitudeMeters>
            <DistanceMeters>NAN</DistanceMeters>
          </Trackpoint>
          <Trackpoint>
            <Time>2021-08-11T08:29:14.000Z</Time>
            <Position>
              <LatitudeDegrees>43.26944452710449695587158203125</LatitudeDegrees>
              <LongitudeDegrees>-1.68645568192005157470703125</LongitudeDegrees>
            </Position>
            <AltitudeMeters>44.200000762939453125</AltitudeMeters>
            <DistanceMeters>NAN</DistanceMeters>
          </Trackpoint>
          <Trackpoint>
            <Time>2021-08-11T08:29:21.000Z</Time>
            <Position>
              <LatitudeDegrees>43.26954494230449199676513671875</LatitudeDegrees>
              <LongitudeDegrees>-1.68688022531569004058837890625</LongitudeDegrees>
            </Position>
            <AltitudeMeters>44.200000762939453125</AltitudeMeters>
            <DistanceMeters>NAN</DistanceMeters>
          </Trackpoint>
          <Trackpoint>
            <Time>2021-08-11T08:29:30.000Z</Time>
            <Position>
              <LatitudeDegrees>43.26968525536358356475830078125</LatitudeDegrees>
              <LongitudeDegrees>-1.6874358616769313812255859375</LongitudeDegrees>
            </Position>
            <AltitudeMeters>44</AltitudeMeters>
            <DistanceMeters>NAN</DistanceMeters>
          </Trackpoint>
          <Trackpoint>
            <Time>2021-08-11T08:29:32.000Z</Time>
            <Position>
              <LatitudeDegrees>43.26972029171884059906005859375</LatitudeDegrees>
              <LongitudeDegrees>-1.68754675425589084625244140625</LongitudeDegrees>
            </Position>
            <AltitudeMeters>44</AltitudeMeters>
            <DistanceMeters>NAN</DistanceMeters>
          </Trackpoint>
          <Trackpoint>
            <Time>2021-08-11T08:29:33.000Z</Time>
            <Position>
              <LatitudeDegrees>43.2697389833629131317138671875</LatitudeDegrees>
              <LongitudeDegrees>-1.68760157190263271331787109375</LongitudeDegrees>
            </Position>
            <AltitudeMeters>44</AltitudeMeters>
            <DistanceMeters>NAN</DistanceMeters>
          </Trackpoint>
          <Trackpoint>
            <Time>2021-08-11T08:29:34.000Z</Time>
            <Position>
              <LatitudeDegrees>43.2697574235498905181884765625</LatitudeDegrees>
              <LongitudeDegrees>-1.68765773065388202667236328125</LongitudeDegrees>
            </Position>
            <AltitudeMeters>44</AltitudeMeters>
            <DistanceMeters>NAN</DistanceMeters>
          </Trackpoint>
          <Trackpoint>
            <Time>2021-08-11T08:29:35.000Z</Time>
            <Position>
              <LatitudeDegrees>43.26977527700364589691162109375</LatitudeDegrees>
              <LongitudeDegrees>-1.6877121292054653167724609375</LongitudeDegrees>
            </Position>
            <AltitudeMeters>43.799999237060546875</AltitudeMeters>
            <DistanceMeters>NAN</DistanceMeters>
          </Trackpoint>
          <Trackpoint>
            <Time>2021-08-11T08:29:36.000Z</Time>
            <Position>
              <LatitudeDegrees>43.26979371719062328338623046875</LatitudeDegrees>
              <LongitudeDegrees>-1.68776501901447772979736328125</LongitudeDegrees>
            </Position>
            <AltitudeMeters>43.799999237060546875</AltitudeMeters>
            <DistanceMeters>NAN</DistanceMeters>
          </Trackpoint>
          <Trackpoint>
            <Time>2021-08-11T08:29:37.000Z</Time>
            <Position>
              <LatitudeDegrees>43.26981852762401103973388671875</LatitudeDegrees>
              <LongitudeDegrees>-1.6878170706331729888916015625</LongitudeDegrees>
            </Position>
            <AltitudeMeters>43.799999237060546875</AltitudeMeters>
            <DistanceMeters>NAN</DistanceMeters>
          </Trackpoint>
          <Trackpoint>
            <Time>2021-08-11T08:29:39.000Z</Time>
            <Position>
              <LatitudeDegrees>43.26987887732684612274169921875</LatitudeDegrees>
              <LongitudeDegrees>-1.68791287578642368316650390625</LongitudeDegrees>
            </Position>
            <AltitudeMeters>43.59999847412109375</AltitudeMeters>
            <DistanceMeters>NAN</DistanceMeters>
          </Trackpoint>
          <Trackpoint>
            <Time>2021-08-11T08:29:40.000Z</Time>
            <Position>
              <LatitudeDegrees>43.26991089619696140289306640625</LatitudeDegrees>
              <LongitudeDegrees>-1.68795310892164707183837890625</LongitudeDegrees>
            </Position>
            <AltitudeMeters>43.40000152587890625</AltitudeMeters>
            <DistanceMeters>NAN</DistanceMeters>
          </Trackpoint>
          <Trackpoint>
            <Time>2021-08-11T08:29:41.000Z</Time>
            <Position>
              <LatitudeDegrees>43.26994777657091617584228515625</LatitudeDegrees>
              <LongitudeDegrees>-1.68798764236271381378173828125</LongitudeDegrees>
            </Position>
            <AltitudeMeters>43.59999847412109375</AltitudeMeters>
            <DistanceMeters>NAN</DistanceMeters>
          </Trackpoint>
          <Trackpoint>
            <Time>2021-08-11T08:29:42.000Z</Time>
            <Position>
              <LatitudeDegrees>43.2699867524206638336181640625</LatitudeDegrees>
              <LongitudeDegrees>-1.6880182363092899322509765625</LongitudeDegrees>
            </Position>
            <AltitudeMeters>43.200000762939453125</AltitudeMeters>
            <DistanceMeters>NAN</DistanceMeters>
          </Trackpoint>
          <Trackpoint>
            <Time>2021-08-11T08:29:43.000Z</Time>
            <Position>
              <LatitudeDegrees>43.2700350321829319000244140625</LatitudeDegrees>
              <LongitudeDegrees>-1.68804782442748546600341796875</LongitudeDegrees>
            </Position>
            <AltitudeMeters>43.200000762939453125</AltitudeMeters>
            <DistanceMeters>NAN</DistanceMeters>
          </Trackpoint>
          <Trackpoint>
            <Time>2021-08-11T08:29:44.000Z</Time>
            <Position>
              <LatitudeDegrees>43.27006973326206207275390625</LatitudeDegrees>
              <LongitudeDegrees>-1.6880651749670505523681640625</LongitudeDegrees>
            </Position>
            <AltitudeMeters>43</AltitudeMeters>
            <DistanceMeters>NAN</DistanceMeters>
          </Trackpoint>
          <Trackpoint>
            <Time>2021-08-11T08:29:45.000Z</Time>
            <Position>
              <LatitudeDegrees>43.2701175101101398468017578125</LatitudeDegrees>
              <LongitudeDegrees>-1.68809325434267520904541015625</LongitudeDegrees>
            </Position>
            <AltitudeMeters>43</AltitudeMeters>
            <DistanceMeters>NAN</DistanceMeters>
          </Trackpoint>
          <Trackpoint>
            <Time>2021-08-11T08:29:47.000Z</Time>
            <Position>
              <LatitudeDegrees>43.27017408795654773712158203125</LatitudeDegrees>
              <LongitudeDegrees>-1.688137762248516082763671875</LongitudeDegrees>
            </Position>
            <AltitudeMeters>42.799999237060546875</AltitudeMeters>
            <DistanceMeters>NAN</DistanceMeters>
          </Trackpoint>
          <Trackpoint>
            <Time>2021-08-11T08:29:48.000Z</Time>
            <Position>
              <LatitudeDegrees>43.27020543627440929412841796875</LatitudeDegrees>
              <LongitudeDegrees>-1.68815754354000091552734375</LongitudeDegrees>
            </Position>
            <AltitudeMeters>42.799999237060546875</AltitudeMeters>
            <DistanceMeters>NAN</DistanceMeters>
          </Trackpoint>
          <Trackpoint>
            <Time>2021-08-11T08:29:49.000Z</Time>
            <Position>
              <LatitudeDegrees>43.27023510821163654327392578125</LatitudeDegrees>
              <LongitudeDegrees>-1.688170619308948516845703125</LongitudeDegrees>
            </Position>
            <AltitudeMeters>42.799999237060546875</AltitudeMeters>
            <DistanceMeters>NAN</DistanceMeters>
          </Trackpoint>
          <Trackpoint>
            <Time>2021-08-11T08:29:50.000Z</Time>
            <Position>
              <LatitudeDegrees>43.2702688872814178466796875</LatitudeDegrees>
              <LongitudeDegrees>-1.6881801746785640716552734375</LongitudeDegrees>
            </Position>
            <AltitudeMeters>43</AltitudeMeters>
            <DistanceMeters>NAN</DistanceMeters>
          </Trackpoint>
          <Trackpoint>
            <Time>2021-08-11T08:29:51.000Z</Time>
            <Position>
              <LatitudeDegrees>43.27029344625771045684814453125</LatitudeDegrees>
              <LongitudeDegrees>-1.68818880803883075714111328125</LongitudeDegrees>
            </Position>
            <AltitudeMeters>43</AltitudeMeters>
            <DistanceMeters>NAN</DistanceMeters>
          </Trackpoint>
          <Trackpoint>
            <Time>2021-08-11T08:29:52.000Z</Time>
            <Position>
              <LatitudeDegrees>43.27031171880662441253662109375</LatitudeDegrees>
              <LongitudeDegrees>-1.68819777667522430419921875</LongitudeDegrees>
            </Position>
            <AltitudeMeters>43</AltitudeMeters>
            <DistanceMeters>NAN</DistanceMeters>
          </Trackpoint>
          <Trackpoint>
            <Time>2021-08-11T08:29:53.000Z</Time>
            <Position>
              <LatitudeDegrees>43.27033367939293384552001953125</LatitudeDegrees>
              <LongitudeDegrees>-1.6882066614925861358642578125</LongitudeDegrees>
            </Position>
            <AltitudeMeters>43</AltitudeMeters>
            <DistanceMeters>NAN</DistanceMeters>
          </Trackpoint>
          <Trackpoint>
            <Time>2021-08-11T08:29:54.000Z</Time>
            <Position>
              <LatitudeDegrees>43.27035513706505298614501953125</LatitudeDegrees>
              <LongitudeDegrees>-1.68821948580443859100341796875</LongitudeDegrees>
            </Position>
            <AltitudeMeters>43</AltitudeMeters>
            <DistanceMeters>NAN</DistanceMeters>
          </Trackpoint>
          <Trackpoint>
            <Time>2021-08-11T08:29:56.000Z</Time>
            <Position>
              <LatitudeDegrees>43.27039302326738834381103515625</LatitudeDegrees>
              <LongitudeDegrees>-1.68825368396937847137451171875</LongitudeDegrees>
            </Position>
            <AltitudeMeters>43</AltitudeMeters>
            <DistanceMeters>NAN</DistanceMeters>
          </Trackpoint>
          <Trackpoint>
            <Time>2021-08-11T08:29:57.000Z</Time>
            <Position>
              <LatitudeDegrees>43.270404338836669921875</LatitudeDegrees>
              <LongitudeDegrees>-1.6882670111954212188720703125</LongitudeDegrees>
            </Position>
            <AltitudeMeters>43</AltitudeMeters>
            <DistanceMeters>NAN</DistanceMeters>
          </Trackpoint>
          <Trackpoint>
            <Time>2021-08-11T08:29:58.000Z</Time>
            <Position>
              <LatitudeDegrees>43.2704296521842479705810546875</LatitudeDegrees>
              <LongitudeDegrees>-1.6882864572107791900634765625</LongitudeDegrees>
            </Position>
            <AltitudeMeters>43</AltitudeMeters>
            <DistanceMeters>NAN</DistanceMeters>
          </Trackpoint>
          <Trackpoint>
            <Time>2021-08-11T08:30:01.000Z</Time>
            <Position>
              <LatitudeDegrees>43.27052596025168895721435546875</LatitudeDegrees>
              <LongitudeDegrees>-1.688323505222797393798828125</LongitudeDegrees>
            </Position>
            <AltitudeMeters>42.799999237060546875</AltitudeMeters>
            <DistanceMeters>NAN</DistanceMeters>
          </Trackpoint>
          <Trackpoint>
            <Time>2021-08-11T08:30:02.000Z</Time>
            <Position>
              <LatitudeDegrees>43.27055898495018482208251953125</LatitudeDegrees>
              <LongitudeDegrees>-1.68833364732563495635986328125</LongitudeDegrees>
            </Position>
            <AltitudeMeters>43</AltitudeMeters>
            <DistanceMeters>NAN</DistanceMeters>
          </Trackpoint>
          <Trackpoint>
            <Time>2021-08-11T08:30:03.000Z</Time>
            <Position>
              <LatitudeDegrees>43.27059276401996612548828125</LatitudeDegrees>
              <LongitudeDegrees>-1.68834052048623561859130859375</LongitudeDegrees>
            </Position>
            <AltitudeMeters>43</AltitudeMeters>
            <DistanceMeters>NAN</DistanceMeters>
          </Trackpoint>
          <Trackpoint>
            <Time>2021-08-11T08:30:04.000Z</Time>
            <Position>
              <LatitudeDegrees>43.2706237770617008209228515625</LatitudeDegrees>
              <LongitudeDegrees>-1.688346303999423980712890625</LongitudeDegrees>
            </Position>
            <AltitudeMeters>43</AltitudeMeters>
            <DistanceMeters>NAN</DistanceMeters>
          </Trackpoint>
          <Trackpoint>
            <Time>2021-08-11T08:30:07.000Z</Time>
            <Position>
              <LatitudeDegrees>43.27071539126336574554443359375</LatitudeDegrees>
              <LongitudeDegrees>-1.688385196030139923095703125</LongitudeDegrees>
            </Position>
            <AltitudeMeters>43</AltitudeMeters>
            <DistanceMeters>NAN</DistanceMeters>
          </Trackpoint>
          <Trackpoint>
            <Time>2021-08-11T08:30:09.000Z</Time>
            <Position>
              <LatitudeDegrees>43.2707672752439975738525390625</LatitudeDegrees>
              <LongitudeDegrees>-1.68841126374900341033935546875</LongitudeDegrees>
            </Position>
            <AltitudeMeters>42.799999237060546875</AltitudeMeters>
            <DistanceMeters>NAN</DistanceMeters>
          </Trackpoint>
          <Trackpoint>
            <Time>2021-08-11T08:30:10.000Z</Time>
            <Position>
              <LatitudeDegrees>43.2707951031625270843505859375</LatitudeDegrees>
              <LongitudeDegrees>-1.68842333368957042694091796875</LongitudeDegrees>
            </Position>
            <AltitudeMeters>42.799999237060546875</AltitudeMeters>
            <DistanceMeters>NAN</DistanceMeters>
          </Trackpoint>
          <Trackpoint>
            <Time>2021-08-11T08:30:11.000Z</Time>
            <Position>
              <LatitudeDegrees>43.27081765048205852508544921875</LatitudeDegrees>
              <LongitudeDegrees>-1.6884366609156131744384765625</LongitudeDegrees>
            </Position>
            <AltitudeMeters>42.799999237060546875</AltitudeMeters>
            <DistanceMeters>NAN</DistanceMeters>
          </Trackpoint>
          <Trackpoint>
            <Time>2021-08-11T08:30:12.000Z</Time>
            <Position>
              <LatitudeDegrees>43.27083340846002101898193359375</LatitudeDegrees>
              <LongitudeDegrees>-1.6884545981884002685546875</LongitudeDegrees>
            </Position>
            <AltitudeMeters>42.799999237060546875</AltitudeMeters>
            <DistanceMeters>NAN</DistanceMeters>
          </Trackpoint>
          <Trackpoint>
            <Time>2021-08-11T08:30:13.000Z</Time>
            <Position>
              <LatitudeDegrees>43.270855955779552459716796875</LatitudeDegrees>
              <LongitudeDegrees>-1.6884792409837245941162109375</LongitudeDegrees>
            </Position>
            <AltitudeMeters>42.59999847412109375</AltitudeMeters>
            <DistanceMeters>NAN</DistanceMeters>
          </Trackpoint>
          <Trackpoint>
            <Time>2021-08-11T08:30:15.000Z</Time>
            <Position>
              <LatitudeDegrees>43.27089040540158748626708984375</LatitudeDegrees>
              <LongitudeDegrees>-1.68850748799741268157958984375</LongitudeDegrees>
            </Position>
            <AltitudeMeters>42.59999847412109375</AltitudeMeters>
            <DistanceMeters>NAN</DistanceMeters>
          </Trackpoint>
          <Trackpoint>
            <Time>2021-08-11T08:30:16.000Z</Time>
            <Position>
              <LatitudeDegrees>43.2709023915231227874755859375</LatitudeDegrees>
              <LongitudeDegrees>-1.68852508999407291412353515625</LongitudeDegrees>
            </Position>
            <AltitudeMeters>42.59999847412109375</AltitudeMeters>
            <DistanceMeters>NAN</DistanceMeters>
          </Trackpoint>
          <Trackpoint>
            <Time>2021-08-11T08:30:17.000Z</Time>
            <Position>
              <LatitudeDegrees>43.2709179818630218505859375</LatitudeDegrees>
              <LongitudeDegrees>-1.68853967450559139251708984375</LongitudeDegrees>
            </Position>
            <AltitudeMeters>42.59999847412109375</AltitudeMeters>
            <DistanceMeters>NAN</DistanceMeters>
          </Trackpoint>
          <Trackpoint>
            <Time>2021-08-11T08:30:18.000Z</Time>
            <Position>
              <LatitudeDegrees>43.27093340456485748291015625</LatitudeDegrees>
              <LongitudeDegrees>-1.6885459609329700469970703125</LongitudeDegrees>
            </Position>
            <AltitudeMeters>42.59999847412109375</AltitudeMeters>
            <DistanceMeters>NAN</DistanceMeters>
          </Trackpoint>
          <Trackpoint>
            <Time>2021-08-11T08:30:20.000Z</Time>
            <Position>
              <LatitudeDegrees>43.27098947949707508087158203125</LatitudeDegrees>
              <LongitudeDegrees>-1.688568256795406341552734375</LongitudeDegrees>
            </Position>
            <AltitudeMeters>42.59999847412109375</AltitudeMeters>
            <DistanceMeters>NAN</DistanceMeters>
          </Trackpoint>
          <Trackpoint>
            <Time>2021-08-11T08:30:21.000Z</Time>
            <Position>
              <LatitudeDegrees>43.27101160772144794464111328125</LatitudeDegrees>
              <LongitudeDegrees>-1.68858007527887821197509765625</LongitudeDegrees>
            </Position>
            <AltitudeMeters>42.59999847412109375</AltitudeMeters>
            <DistanceMeters>NAN</DistanceMeters>
          </Trackpoint>
          <Trackpoint>
            <Time>2021-08-11T08:30:23.000Z</Time>
            <Position>
              <LatitudeDegrees>43.271066844463348388671875</LatitudeDegrees>
              <LongitudeDegrees>-1.688633970916271209716796875</LongitudeDegrees>
            </Position>
            <AltitudeMeters>42.59999847412109375</AltitudeMeters>
            <DistanceMeters>NAN</DistanceMeters>
          </Trackpoint>
          <Trackpoint>
            <Time>2021-08-11T08:30:26.000Z</Time>
            <Position>
              <LatitudeDegrees>43.2711618952453136444091796875</LatitudeDegrees>
              <LongitudeDegrees>-1.6887146048247814178466796875</LongitudeDegrees>
            </Position>
            <AltitudeMeters>42.59999847412109375</AltitudeMeters>
            <DistanceMeters>NAN</DistanceMeters>
          </Trackpoint>
          <Trackpoint>
            <Time>2021-08-11T08:30:30.000Z</Time>
            <Position>
              <LatitudeDegrees>43.27127538621425628662109375</LatitudeDegrees>
              <LongitudeDegrees>-1.6888289339840412139892578125</LongitudeDegrees>
            </Position>
            <AltitudeMeters>42.200000762939453125</AltitudeMeters>
            <DistanceMeters>NAN</DistanceMeters>
          </Trackpoint>
          <Trackpoint>
            <Time>2021-08-11T08:30:31.000Z</Time>
            <Position>
              <LatitudeDegrees>43.27129759825766086578369140625</LatitudeDegrees>
              <LongitudeDegrees>-1.68887126259505748748779296875</LongitudeDegrees>
            </Position>
            <AltitudeMeters>42.200000762939453125</AltitudeMeters>
            <DistanceMeters>NAN</DistanceMeters>
          </Trackpoint>
          <Trackpoint>
            <Time>2021-08-11T08:30:32.000Z</Time>
            <Position>
              <LatitudeDegrees>43.2713231630623340606689453125</LatitudeDegrees>
              <LongitudeDegrees>-1.68892800807952880859375</LongitudeDegrees>
            </Position>
            <AltitudeMeters>42</AltitudeMeters>
            <DistanceMeters>NAN</DistanceMeters>
          </Trackpoint>
          <Trackpoint>
            <Time>2021-08-11T08:30:35.000Z</Time>
            <Position>
              <LatitudeDegrees>43.27140455134212970733642578125</LatitudeDegrees>
              <LongitudeDegrees>-1.68905071914196014404296875</LongitudeDegrees>
            </Position>
            <AltitudeMeters>41.799999237060546875</AltitudeMeters>
            <DistanceMeters>NAN</DistanceMeters>
          </Trackpoint>
          <Trackpoint>
            <Time>2021-08-11T08:30:42.000Z</Time>
            <Position>
              <LatitudeDegrees>43.27161627821624279022216796875</LatitudeDegrees>
              <LongitudeDegrees>-1.68922279961407184600830078125</LongitudeDegrees>
            </Position>
            <AltitudeMeters>41.200000762939453125</AltitudeMeters>
            <DistanceMeters>NAN</DistanceMeters>
          </Trackpoint>
          <Trackpoint>
            <Time>2021-08-11T08:30:43.000Z</Time>
            <Position>
              <LatitudeDegrees>43.27164284884929656982421875</LatitudeDegrees>
              <LongitudeDegrees>-1.68924341909587383270263671875</LongitudeDegrees>
            </Position>
            <AltitudeMeters>41.200000762939453125</AltitudeMeters>
            <DistanceMeters>NAN</DistanceMeters>
          </Trackpoint>
          <Trackpoint>
            <Time>2021-08-11T08:30:44.000Z</Time>
            <Position>
              <LatitudeDegrees>43.2716762088239192962646484375</LatitudeDegrees>
              <LongitudeDegrees>-1.689277701079845428466796875</LongitudeDegrees>
            </Position>
            <AltitudeMeters>41</AltitudeMeters>
            <DistanceMeters>NAN</DistanceMeters>
          </Trackpoint>
          <Trackpoint>
            <Time>2021-08-11T08:30:47.000Z</Time>
            <Position>
              <LatitudeDegrees>43.271761201322078704833984375</LatitudeDegrees>
              <LongitudeDegrees>-1.6893529705703258514404296875</LongitudeDegrees>
            </Position>
            <AltitudeMeters>41</AltitudeMeters>
            <DistanceMeters>NAN</DistanceMeters>
          </Trackpoint>
          <Trackpoint>
            <Time>2021-08-11T08:30:51.000Z</Time>
            <Position>
              <LatitudeDegrees>43.27188986353576183319091796875</LatitudeDegrees>
              <LongitudeDegrees>-1.68949068523943424224853515625</LongitudeDegrees>
            </Position>
            <AltitudeMeters>40.59999847412109375</AltitudeMeters>
            <DistanceMeters>NAN</DistanceMeters>
          </Trackpoint>
          <Trackpoint>
            <Time>2021-08-11T08:30:52.000Z</Time>
            <Position>
              <LatitudeDegrees>43.27192305587232112884521484375</LatitudeDegrees>
              <LongitudeDegrees>-1.6895417310297489166259765625</LongitudeDegrees>
            </Position>
            <AltitudeMeters>40.59999847412109375</AltitudeMeters>
            <DistanceMeters>NAN</DistanceMeters>
          </Trackpoint>
          <Trackpoint>
            <Time>2021-08-11T08:30:53.000Z</Time>
            <Position>
              <LatitudeDegrees>43.27195532619953155517578125</LatitudeDegrees>
              <LongitudeDegrees>-1.68961021117866039276123046875</LongitudeDegrees>
            </Position>
            <AltitudeMeters>40.59999847412109375</AltitudeMeters>
            <DistanceMeters>NAN</DistanceMeters>
          </Trackpoint>
          <Trackpoint>
            <Time>2021-08-11T08:30:54.000Z</Time>
            <Position>
              <LatitudeDegrees>43.2719828188419342041015625</LatitudeDegrees>
              <LongitudeDegrees>-1.68966754339635372161865234375</LongitudeDegrees>
            </Position>
            <AltitudeMeters>40.59999847412109375</AltitudeMeters>
            <DistanceMeters>NAN</DistanceMeters>
          </Trackpoint>
          <Trackpoint>
            <Time>2021-08-11T08:30:56.000Z</Time>
            <Position>
              <LatitudeDegrees>43.27205456793308258056640625</LatitudeDegrees>
              <LongitudeDegrees>-1.6897445730865001678466796875</LongitudeDegrees>
            </Position>
            <AltitudeMeters>40</AltitudeMeters>
            <DistanceMeters>NAN</DistanceMeters>
          </Trackpoint>
          <Trackpoint>
            <Time>2021-08-11T08:30:57.000Z</Time>
            <Position>
              <LatitudeDegrees>43.27210360206663608551025390625</LatitudeDegrees>
              <LongitudeDegrees>-1.689761169254779815673828125</LongitudeDegrees>
            </Position>
            <AltitudeMeters>40</AltitudeMeters>
            <DistanceMeters>NAN</DistanceMeters>
          </Trackpoint>
          <Trackpoint>
            <Time>2021-08-11T08:30:58.000Z</Time>
            <Position>
              <LatitudeDegrees>43.27215238474309444427490234375</LatitudeDegrees>
              <LongitudeDegrees>-1.689772568643093109130859375</LongitudeDegrees>
            </Position>
            <AltitudeMeters>39.59999847412109375</AltitudeMeters>
            <DistanceMeters>NAN</DistanceMeters>
          </Trackpoint>
          <Trackpoint>
            <Time>2021-08-11T08:30:59.000Z</Time>
            <Position>
              <LatitudeDegrees>43.27218708582222461700439453125</LatitudeDegrees>
              <LongitudeDegrees>-1.68978405185043811798095703125</LongitudeDegrees>
            </Position>
            <AltitudeMeters>39.40000152587890625</AltitudeMeters>
            <DistanceMeters>NAN</DistanceMeters>
          </Trackpoint>
          <Trackpoint>
            <Time>2021-08-11T08:31:11.000Z</Time>
            <Position>
              <LatitudeDegrees>43.272714726626873016357421875</LatitudeDegrees>
              <LongitudeDegrees>-1.68963569216430187225341796875</LongitudeDegrees>
            </Position>
            <AltitudeMeters>37.59999847412109375</AltitudeMeters>
            <DistanceMeters>NAN</DistanceMeters>
          </Trackpoint>
          <Trackpoint>
            <Time>2021-08-11T08:31:12.000Z</Time>
            <Position>
              <LatitudeDegrees>43.27274867333471775054931640625</LatitudeDegrees>
              <LongitudeDegrees>-1.68966284953057765960693359375</LongitudeDegrees>
            </Position>
            <AltitudeMeters>37.59999847412109375</AltitudeMeters>
            <DistanceMeters>NAN</DistanceMeters>
          </Trackpoint>
          <Trackpoint>
            <Time>2021-08-11T08:31:13.000Z</Time>
            <Position>
              <LatitudeDegrees>43.27279351651668548583984375</LatitudeDegrees>
              <LongitudeDegrees>-1.68965421617031097412109375</LongitudeDegrees>
            </Position>
            <AltitudeMeters>37.59999847412109375</AltitudeMeters>
            <DistanceMeters>NAN</DistanceMeters>
          </Trackpoint>
          <Trackpoint>
            <Time>2021-08-11T08:31:14.000Z</Time>
            <Position>
              <LatitudeDegrees>43.272813968360424041748046875</LatitudeDegrees>
              <LongitudeDegrees>-1.68966435827314853668212890625</LongitudeDegrees>
            </Position>
            <AltitudeMeters>37.59999847412109375</AltitudeMeters>
            <DistanceMeters>NAN</DistanceMeters>
          </Trackpoint>
          <Trackpoint>
            <Time>2021-08-11T08:31:15.000Z</Time>
            <Position>
              <LatitudeDegrees>43.2728426344692707061767578125</LatitudeDegrees>
              <LongitudeDegrees>-1.68967206962406635284423828125</LongitudeDegrees>
            </Position>
            <AltitudeMeters>37.799999237060546875</AltitudeMeters>
            <DistanceMeters>NAN</DistanceMeters>
          </Trackpoint>
          <Trackpoint>
            <Time>2021-08-11T08:31:16.000Z</Time>
            <Position>
              <LatitudeDegrees>43.27286736108362674713134765625</LatitudeDegrees>
              <LongitudeDegrees>-1.68969168327748775482177734375</LongitudeDegrees>
            </Position>
            <AltitudeMeters>37.799999237060546875</AltitudeMeters>
            <DistanceMeters>NAN</DistanceMeters>
          </Trackpoint>
          <Trackpoint>
            <Time>2021-08-11T08:31:17.000Z</Time>
            <Position>
              <LatitudeDegrees>43.27289250679314136505126953125</LatitudeDegrees>
              <LongitudeDegrees>-1.68970425613224506378173828125</LongitudeDegrees>
            </Position>
            <AltitudeMeters>37.799999237060546875</AltitudeMeters>
            <DistanceMeters>NAN</DistanceMeters>
          </Trackpoint>
          <Trackpoint>
            <Time>2021-08-11T08:31:18.000Z</Time>
            <Position>
              <LatitudeDegrees>43.2729167304933071136474609375</LatitudeDegrees>
              <LongitudeDegrees>-1.68972219340503215789794921875</LongitudeDegrees>
            </Position>
            <AltitudeMeters>38</AltitudeMeters>
            <DistanceMeters>NAN</DistanceMeters>
          </Trackpoint>
          <Trackpoint>
            <Time>2021-08-11T08:31:19.000Z</Time>
            <Position>
              <LatitudeDegrees>43.2729403674602508544921875</LatitudeDegrees>
              <LongitudeDegrees>-1.6897375322878360748291015625</LongitudeDegrees>
            </Position>
            <AltitudeMeters>38.200000762939453125</AltitudeMeters>
            <DistanceMeters>NAN</DistanceMeters>
          </Trackpoint>
          <Trackpoint>
            <Time>2021-08-11T08:31:20.000Z</Time>
            <Position>
              <LatitudeDegrees>43.27296190895140171051025390625</LatitudeDegrees>
              <LongitudeDegrees>-1.6897542960941791534423828125</LongitudeDegrees>
            </Position>
            <AltitudeMeters>38.200000762939453125</AltitudeMeters>
            <DistanceMeters>NAN</DistanceMeters>
          </Trackpoint>
          <Trackpoint>
            <Time>2021-08-11T08:31:22.000Z</Time>
            <Position>
              <LatitudeDegrees>43.2730260305106639862060546875</LatitudeDegrees>
              <LongitudeDegrees>-1.68977650813758373260498046875</LongitudeDegrees>
            </Position>
            <AltitudeMeters>38.799999237060546875</AltitudeMeters>
            <DistanceMeters>NAN</DistanceMeters>
          </Trackpoint>
          <Trackpoint>
            <Time>2021-08-11T08:31:28.000Z</Time>
            <Position>
              <LatitudeDegrees>43.27325292862951755523681640625</LatitudeDegrees>
              <LongitudeDegrees>-1.6898196749389171600341796875</LongitudeDegrees>
            </Position>
            <AltitudeMeters>39.59999847412109375</AltitudeMeters>
            <DistanceMeters>NAN</DistanceMeters>
          </Trackpoint>
          <Trackpoint>
            <Time>2021-08-11T08:31:29.000Z</Time>
            <Position>
              <LatitudeDegrees>43.273286707699298858642578125</LatitudeDegrees>
              <LongitudeDegrees>-1.68981975875794887542724609375</LongitudeDegrees>
            </Position>
            <AltitudeMeters>39.799999237060546875</AltitudeMeters>
            <DistanceMeters>NAN</DistanceMeters>
          </Trackpoint>
          <Trackpoint>
            <Time>2021-08-11T08:31:30.000Z</Time>
            <Position>
              <LatitudeDegrees>43.2733204029500484466552734375</LatitudeDegrees>
              <LongitudeDegrees>-1.6898213513195514678955078125</LongitudeDegrees>
            </Position>
            <AltitudeMeters>40</AltitudeMeters>
            <DistanceMeters>NAN</DistanceMeters>
          </Trackpoint>
          <Trackpoint>
            <Time>2021-08-11T08:31:33.000Z</Time>
            <Position>
              <LatitudeDegrees>43.273436240851879119873046875</LatitudeDegrees>
              <LongitudeDegrees>-1.68983719311654567718505859375</LongitudeDegrees>
            </Position>
            <AltitudeMeters>40.40000152587890625</AltitudeMeters>
            <DistanceMeters>NAN</DistanceMeters>
          </Trackpoint>
          <Trackpoint>
            <Time>2021-08-11T08:31:37.000Z</Time>
            <Position>
              <LatitudeDegrees>43.273589797317981719970703125</LatitudeDegrees>
              <LongitudeDegrees>-1.68986401520669460296630859375</LongitudeDegrees>
            </Position>
            <AltitudeMeters>40.799999237060546875</AltitudeMeters>
            <DistanceMeters>NAN</DistanceMeters>
          </Trackpoint>
          <Trackpoint>
            <Time>2021-08-11T08:31:39.000Z</Time>
            <Position>
              <LatitudeDegrees>43.27367923222482204437255859375</LatitudeDegrees>
              <LongitudeDegrees>-1.68988882564008235931396484375</LongitudeDegrees>
            </Position>
            <AltitudeMeters>41</AltitudeMeters>
            <DistanceMeters>NAN</DistanceMeters>
          </Trackpoint>
          <Trackpoint>
            <Time>2021-08-11T08:31:43.000Z</Time>
            <Position>
              <LatitudeDegrees>43.27386614866554737091064453125</LatitudeDegrees>
              <LongitudeDegrees>-1.6899423860013484954833984375</LongitudeDegrees>
            </Position>
            <AltitudeMeters>41</AltitudeMeters>
            <DistanceMeters>NAN</DistanceMeters>
          </Trackpoint>
          <Trackpoint>
            <Time>2021-08-11T08:31:47.000Z</Time>
            <Position>
              <LatitudeDegrees>43.2740481197834014892578125</LatitudeDegrees>
              <LongitudeDegrees>-1.69001723639667034149169921875</LongitudeDegrees>
            </Position>
            <AltitudeMeters>41</AltitudeMeters>
            <DistanceMeters>NAN</DistanceMeters>
          </Trackpoint>
          <Trackpoint>
            <Time>2021-08-11T08:31:49.000Z</Time>
            <Position>
              <LatitudeDegrees>43.2741378061473369598388671875</LatitudeDegrees>
              <LongitudeDegrees>-1.6900563798844814300537109375</LongitudeDegrees>
            </Position>
            <AltitudeMeters>41</AltitudeMeters>
            <DistanceMeters>NAN</DistanceMeters>
          </Trackpoint>
          <Trackpoint>
            <Time>2021-08-11T08:31:51.000Z</Time>
            <Position>
              <LatitudeDegrees>43.27423243783414363861083984375</LatitudeDegrees>
              <LongitudeDegrees>-1.6900707967579364776611328125</LongitudeDegrees>
            </Position>
            <AltitudeMeters>41</AltitudeMeters>
            <DistanceMeters>NAN</DistanceMeters>
          </Trackpoint>
          <Trackpoint>
            <Time>2021-08-11T08:31:53.000Z</Time>
            <Position>
              <LatitudeDegrees>43.274332769215106964111328125</LatitudeDegrees>
              <LongitudeDegrees>-1.69007171876728534698486328125</LongitudeDegrees>
            </Position>
            <AltitudeMeters>41</AltitudeMeters>
            <DistanceMeters>NAN</DistanceMeters>
          </Trackpoint>
          <Trackpoint>
            <Time>2021-08-11T08:31:55.000Z</Time>
            <Position>
              <LatitudeDegrees>43.27443092130124568939208984375</LatitudeDegrees>
              <LongitudeDegrees>-1.6900828666985034942626953125</LongitudeDegrees>
            </Position>
            <AltitudeMeters>41</AltitudeMeters>
            <DistanceMeters>NAN</DistanceMeters>
          </Trackpoint>
          <Trackpoint>
            <Time>2021-08-11T08:32:00.000Z</Time>
            <Position>
              <LatitudeDegrees>43.27465874142944812774658203125</LatitudeDegrees>
              <LongitudeDegrees>-1.6901609860360622406005859375</LongitudeDegrees>
            </Position>
            <AltitudeMeters>40.799999237060546875</AltitudeMeters>
            <DistanceMeters>NAN</DistanceMeters>
          </Trackpoint>
          <Trackpoint>
            <Time>2021-08-11T08:32:02.000Z</Time>
            <Position>
              <LatitudeDegrees>43.27474440447986125946044921875</LatitudeDegrees>
              <LongitudeDegrees>-1.6901908256113529205322265625</LongitudeDegrees>
            </Position>
            <AltitudeMeters>40.799999237060546875</AltitudeMeters>
            <DistanceMeters>NAN</DistanceMeters>
          </Trackpoint>
          <Trackpoint>
            <Time>2021-08-11T08:32:03.000Z</Time>
            <Position>
              <LatitudeDegrees>43.27478061430156230926513671875</LatitudeDegrees>
              <LongitudeDegrees>-1.6902092657983303070068359375</LongitudeDegrees>
            </Position>
            <AltitudeMeters>40.799999237060546875</AltitudeMeters>
            <DistanceMeters>NAN</DistanceMeters>
          </Trackpoint>
          <Trackpoint>
            <Time>2021-08-11T08:32:04.000Z</Time>
            <Position>
              <LatitudeDegrees>43.27481414191424846649169921875</LatitudeDegrees>
              <LongitudeDegrees>-1.6902290470898151397705078125</LongitudeDegrees>
            </Position>
            <AltitudeMeters>40.799999237060546875</AltitudeMeters>
            <DistanceMeters>NAN</DistanceMeters>
          </Trackpoint>
          <Trackpoint>
            <Time>2021-08-11T08:32:05.000Z</Time>
            <Position>
              <LatitudeDegrees>43.27484716661274433135986328125</LatitudeDegrees>
              <LongitudeDegrees>-1.69024832546710968017578125</LongitudeDegrees>
            </Position>
            <AltitudeMeters>41</AltitudeMeters>
            <DistanceMeters>NAN</DistanceMeters>
          </Trackpoint>
          <Trackpoint>
            <Time>2021-08-11T08:32:06.000Z</Time>
            <Position>
              <LatitudeDegrees>43.27488354407250881195068359375</LatitudeDegrees>
              <LongitudeDegrees>-1.69026500545442104339599609375</LongitudeDegrees>
            </Position>
            <AltitudeMeters>40.799999237060546875</AltitudeMeters>
            <DistanceMeters>NAN</DistanceMeters>
          </Trackpoint>
          <Trackpoint>
            <Time>2021-08-11T08:32:08.000Z</Time>
            <Position>
              <LatitudeDegrees>43.27495613135397434234619140625</LatitudeDegrees>
              <LongitudeDegrees>-1.69029057025909423828125</LongitudeDegrees>
            </Position>
            <AltitudeMeters>40.799999237060546875</AltitudeMeters>
            <DistanceMeters>NAN</DistanceMeters>
          </Trackpoint>
          <Trackpoint>
            <Time>2021-08-11T08:32:09.000Z</Time>
            <Position>
              <LatitudeDegrees>43.27499250881373882293701171875</LatitudeDegrees>
              <LongitudeDegrees>-1.69030037708580493927001953125</LongitudeDegrees>
            </Position>
            <AltitudeMeters>40.799999237060546875</AltitudeMeters>
            <DistanceMeters>NAN</DistanceMeters>
          </Trackpoint>
          <Trackpoint>
            <Time>2021-08-11T08:32:10.000Z</Time>
            <Position>
              <LatitudeDegrees>43.27502419240772724151611328125</LatitudeDegrees>
              <LongitudeDegrees>-1.69031328521668910980224609375</LongitudeDegrees>
            </Position>
            <AltitudeMeters>40.799999237060546875</AltitudeMeters>
            <DistanceMeters>NAN</DistanceMeters>
          </Trackpoint>
          <Trackpoint>
            <Time>2021-08-11T08:32:11.000Z</Time>
            <Position>
              <LatitudeDegrees>43.27505185268819332122802734375</LatitudeDegrees>
              <LongitudeDegrees>-1.69032351113855838775634765625</LongitudeDegrees>
            </Position>
            <AltitudeMeters>40.799999237060546875</AltitudeMeters>
            <DistanceMeters>NAN</DistanceMeters>
          </Trackpoint>
          <Trackpoint>
            <Time>2021-08-11T08:32:12.000Z</Time>
            <Position>
              <LatitudeDegrees>43.27507381327450275421142578125</LatitudeDegrees>
              <LongitudeDegrees>-1.6903323121368885040283203125</LongitudeDegrees>
            </Position>
            <AltitudeMeters>40.799999237060546875</AltitudeMeters>
            <DistanceMeters>NAN</DistanceMeters>
          </Trackpoint>
          <Trackpoint>
            <Time>2021-08-11T08:32:13.000Z</Time>
            <Position>
              <LatitudeDegrees>43.2750903256237506866455078125</LatitudeDegrees>
              <LongitudeDegrees>-1.69034144841134548187255859375</LongitudeDegrees>
            </Position>
            <AltitudeMeters>40.799999237060546875</AltitudeMeters>
            <DistanceMeters>NAN</DistanceMeters>
          </Trackpoint>
          <Trackpoint>
            <Time>2021-08-11T08:32:14.000Z</Time>
            <Position>
              <LatitudeDegrees>43.27510030008852481842041015625</LatitudeDegrees>
              <LongitudeDegrees>-1.69034614227712154388427734375</LongitudeDegrees>
            </Position>
            <AltitudeMeters>40.799999237060546875</AltitudeMeters>
            <DistanceMeters>NAN</DistanceMeters>
          </Trackpoint>
          <Trackpoint>
            <Time>2021-08-11T08:32:15.000Z</Time>
            <Position>
              <LatitudeDegrees>43.27510834671556949615478515625</LatitudeDegrees>
              <LongitudeDegrees>-1.69034983031451702117919921875</LongitudeDegrees>
            </Position>
            <AltitudeMeters>40.59999847412109375</AltitudeMeters>
            <DistanceMeters>NAN</DistanceMeters>
          </Trackpoint>
          <Trackpoint>
            <Time>2021-08-11T08:32:16.000Z</Time>
            <Position>
              <LatitudeDegrees>43.27511169947683811187744140625</LatitudeDegrees>
              <LongitudeDegrees>-1.6903504170477390289306640625</LongitudeDegrees>
            </Position>
            <AltitudeMeters>40.59999847412109375</AltitudeMeters>
            <DistanceMeters>NAN</DistanceMeters>
          </Trackpoint>
          <Trackpoint>
            <Time>2021-08-11T08:32:42.000Z</Time>
            <Position>
              <LatitudeDegrees>43.27512645162642002105712890625</LatitudeDegrees>
              <LongitudeDegrees>-1.69032049365341663360595703125</LongitudeDegrees>
            </Position>
            <AltitudeMeters>40.40000152587890625</AltitudeMeters>
            <DistanceMeters>NAN</DistanceMeters>
          </Trackpoint>
          <Trackpoint>
            <Time>2021-08-11T08:32:43.000Z</Time>
            <Position>
              <LatitudeDegrees>43.27514447271823883056640625</LatitudeDegrees>
              <LongitudeDegrees>-1.690286211669445037841796875</LongitudeDegrees>
            </Position>
            <AltitudeMeters>40.40000152587890625</AltitudeMeters>
            <DistanceMeters>NAN</DistanceMeters>
          </Trackpoint>
          <Trackpoint>
            <Time>2021-08-11T08:32:44.000Z</Time>
            <Position>
              <LatitudeDegrees>43.27516132034361362457275390625</LatitudeDegrees>
              <LongitudeDegrees>-1.69023835100233554840087890625</LongitudeDegrees>
            </Position>
            <AltitudeMeters>40.40000152587890625</AltitudeMeters>
            <DistanceMeters>NAN</DistanceMeters>
          </Trackpoint>
          <Trackpoint>
            <Time>2021-08-11T08:32:46.000Z</Time>
            <Position>
              <LatitudeDegrees>43.27518244273960590362548828125</LatitudeDegrees>
              <LongitudeDegrees>-1.6901318170130252838134765625</LongitudeDegrees>
            </Position>
            <AltitudeMeters>40.40000152587890625</AltitudeMeters>
            <DistanceMeters>NAN</DistanceMeters>
          </Trackpoint>
          <Trackpoint>
            <Time>2021-08-11T08:32:53.000Z</Time>
            <Position>
              <LatitudeDegrees>43.2752187363803386688232421875</LatitudeDegrees>
              <LongitudeDegrees>-1.68969335965812206268310546875</LongitudeDegrees>
            </Position>
            <AltitudeMeters>40.40000152587890625</AltitudeMeters>
            <DistanceMeters>NAN</DistanceMeters>
          </Trackpoint>
          <Trackpoint>
            <Time>2021-08-11T08:32:55.000Z</Time>
            <Position>
              <LatitudeDegrees>43.2752274535596370697021484375</LatitudeDegrees>
              <LongitudeDegrees>-1.6895628534257411956787109375</LongitudeDegrees>
            </Position>
            <AltitudeMeters>40.40000152587890625</AltitudeMeters>
            <DistanceMeters>NAN</DistanceMeters>
          </Trackpoint>
          <Trackpoint>
            <Time>2021-08-11T08:32:56.000Z</Time>
            <Position>
              <LatitudeDegrees>43.2752318121492862701416015625</LatitudeDegrees>
              <LongitudeDegrees>-1.6894991509616374969482421875</LongitudeDegrees>
            </Position>
            <AltitudeMeters>40.40000152587890625</AltitudeMeters>
            <DistanceMeters>NAN</DistanceMeters>
          </Trackpoint>
          <Trackpoint>
            <Time>2021-08-11T08:32:57.000Z</Time>
            <Position>
              <LatitudeDegrees>43.2752375118434429168701171875</LatitudeDegrees>
              <LongitudeDegrees>-1.68943486176431179046630859375</LongitudeDegrees>
            </Position>
            <AltitudeMeters>40.40000152587890625</AltitudeMeters>
            <DistanceMeters>NAN</DistanceMeters>
          </Trackpoint>
          <Trackpoint>
            <Time>2021-08-11T08:33:02.000Z</Time>
            <Position>
              <LatitudeDegrees>43.27526592649519443511962890625</LatitudeDegrees>
              <LongitudeDegrees>-1.68912221677601337432861328125</LongitudeDegrees>
            </Position>
            <AltitudeMeters>40.59999847412109375</AltitudeMeters>
            <DistanceMeters>NAN</DistanceMeters>
          </Trackpoint>
          <Trackpoint>
            <Time>2021-08-11T08:33:03.000Z</Time>
            <Position>
              <LatitudeDegrees>43.2752727158367633819580078125</LatitudeDegrees>
              <LongitudeDegrees>-1.6890508867800235748291015625</LongitudeDegrees>
            </Position>
            <AltitudeMeters>40.59999847412109375</AltitudeMeters>
            <DistanceMeters>NAN</DistanceMeters>
          </Trackpoint>
          <Trackpoint>
            <Time>2021-08-11T08:33:05.000Z</Time>
            <Position>
              <LatitudeDegrees>43.275285623967647552490234375</LatitudeDegrees>
              <LongitudeDegrees>-1.6889402456581592559814453125</LongitudeDegrees>
            </Position>
            <AltitudeMeters>40.59999847412109375</AltitudeMeters>
            <DistanceMeters>NAN</DistanceMeters>
          </Trackpoint>
          <Trackpoint>
            <Time>2021-08-11T08:33:06.000Z</Time>
            <Position>
              <LatitudeDegrees>43.2752904854714870452880859375</LatitudeDegrees>
              <LongitudeDegrees>-1.68888173997402191162109375</LongitudeDegrees>
            </Position>
            <AltitudeMeters>40.200000762939453125</AltitudeMeters>
            <DistanceMeters>NAN</DistanceMeters>
          </Trackpoint>
          <Trackpoint>
            <Time>2021-08-11T08:33:07.000Z</Time>
            <Position>
              <LatitudeDegrees>43.275292329490184783935546875</LatitudeDegrees>
              <LongitudeDegrees>-1.68882675468921661376953125</LongitudeDegrees>
            </Position>
            <AltitudeMeters>40.200000762939453125</AltitudeMeters>
            <DistanceMeters>NAN</DistanceMeters>
          </Trackpoint>
          <Trackpoint>
            <Time>2021-08-11T08:33:08.000Z</Time>
            <Position>
              <LatitudeDegrees>43.27529811300337314605712890625</LatitudeDegrees>
              <LongitudeDegrees>-1.688768751919269561767578125</LongitudeDegrees>
            </Position>
            <AltitudeMeters>40.40000152587890625</AltitudeMeters>
            <DistanceMeters>NAN</DistanceMeters>
          </Trackpoint>
          <Trackpoint>
            <Time>2021-08-11T08:33:09.000Z</Time>
            <Position>
              <LatitudeDegrees>43.27530330978333950042724609375</LatitudeDegrees>
              <LongitudeDegrees>-1.6887102462351322174072265625</LongitudeDegrees>
            </Position>
            <AltitudeMeters>40.40000152587890625</AltitudeMeters>
            <DistanceMeters>NAN</DistanceMeters>
          </Trackpoint>
          <Trackpoint>
            <Time>2021-08-11T08:33:10.000Z</Time>
            <Position>
              <LatitudeDegrees>43.27530716545879840850830078125</LatitudeDegrees>
              <LongitudeDegrees>-1.68865517713129520416259765625</LongitudeDegrees>
            </Position>
            <AltitudeMeters>40.40000152587890625</AltitudeMeters>
            <DistanceMeters>NAN</DistanceMeters>
          </Trackpoint>
          <Trackpoint>
            <Time>2021-08-11T08:33:11.000Z</Time>
            <Position>
              <LatitudeDegrees>43.2753116078674793243408203125</LatitudeDegrees>
              <LongitudeDegrees>-1.68860052712261676788330078125</LongitudeDegrees>
            </Position>
            <AltitudeMeters>40.200000762939453125</AltitudeMeters>
            <DistanceMeters>NAN</DistanceMeters>
          </Trackpoint>
          <Trackpoint>
            <Time>2021-08-11T08:33:12.000Z</Time>
            <Position>
              <LatitudeDegrees>43.27531571500003337860107421875</LatitudeDegrees>
              <LongitudeDegrees>-1.6885483078658580780029296875</LongitudeDegrees>
            </Position>
            <AltitudeMeters>40.200000762939453125</AltitudeMeters>
            <DistanceMeters>NAN</DistanceMeters>
          </Trackpoint>
          <Trackpoint>
            <Time>2021-08-11T08:33:13.000Z</Time>
            <Position>
              <LatitudeDegrees>43.27531521208584308624267578125</LatitudeDegrees>
              <LongitudeDegrees>-1.688497178256511688232421875</LongitudeDegrees>
            </Position>
            <AltitudeMeters>40</AltitudeMeters>
            <DistanceMeters>NAN</DistanceMeters>
          </Trackpoint>
          <Trackpoint>
            <Time>2021-08-11T08:33:14.000Z</Time>
            <Position>
              <LatitudeDegrees>43.27531118877232074737548828125</LatitudeDegrees>
              <LongitudeDegrees>-1.68844722211360931396484375</LongitudeDegrees>
            </Position>
            <AltitudeMeters>40</AltitudeMeters>
            <DistanceMeters>NAN</DistanceMeters>
          </Trackpoint>
          <Trackpoint>
            <Time>2021-08-11T08:33:15.000Z</Time>
            <Position>
              <LatitudeDegrees>43.275302387773990631103515625</LatitudeDegrees>
              <LongitudeDegrees>-1.68840003199875354766845703125</LongitudeDegrees>
            </Position>
            <AltitudeMeters>40</AltitudeMeters>
            <DistanceMeters>NAN</DistanceMeters>
          </Trackpoint>
          <Trackpoint>
            <Time>2021-08-11T08:33:16.000Z</Time>
            <Position>
              <LatitudeDegrees>43.27528939582407474517822265625</LatitudeDegrees>
              <LongitudeDegrees>-1.6883558593690395355224609375</LongitudeDegrees>
            </Position>
            <AltitudeMeters>40</AltitudeMeters>
            <DistanceMeters>NAN</DistanceMeters>
          </Trackpoint>
          <Trackpoint>
            <Time>2021-08-11T08:33:17.000Z</Time>
            <Position>
              <LatitudeDegrees>43.2752878032624721527099609375</LatitudeDegrees>
              <LongitudeDegrees>-1.6883095912635326385498046875</LongitudeDegrees>
            </Position>
            <AltitudeMeters>40</AltitudeMeters>
            <DistanceMeters>NAN</DistanceMeters>
          </Trackpoint>
          <Trackpoint>
            <Time>2021-08-11T08:33:18.000Z</Time>
            <Position>
              <LatitudeDegrees>43.27530113048851490020751953125</LatitudeDegrees>
              <LongitudeDegrees>-1.688268519937992095947265625</LongitudeDegrees>
            </Position>
            <AltitudeMeters>40</AltitudeMeters>
            <DistanceMeters>NAN</DistanceMeters>
          </Trackpoint>
          <Trackpoint>
            <Time>2021-08-11T08:33:19.000Z</Time>
            <Position>
              <LatitudeDegrees>43.27533147297799587249755859375</LatitudeDegrees>
              <LongitudeDegrees>-1.68823792599141597747802734375</LongitudeDegrees>
            </Position>
            <AltitudeMeters>40</AltitudeMeters>
            <DistanceMeters>NAN</DistanceMeters>
          </Trackpoint>
          <Trackpoint>
            <Time>2021-08-11T08:33:20.000Z</Time>
            <Position>
              <LatitudeDegrees>43.27535779215395450592041015625</LatitudeDegrees>
              <LongitudeDegrees>-1.68823507614433765411376953125</LongitudeDegrees>
            </Position>
            <AltitudeMeters>40</AltitudeMeters>
            <DistanceMeters>NAN</DistanceMeters>
          </Trackpoint>
          <Trackpoint>
            <Time>2021-08-11T08:33:21.000Z</Time>
            <Position>
              <LatitudeDegrees>43.27538846991956233978271484375</LatitudeDegrees>
              <LongitudeDegrees>-1.68823826126754283905029296875</LongitudeDegrees>
            </Position>
            <AltitudeMeters>40</AltitudeMeters>
            <DistanceMeters>NAN</DistanceMeters>
          </Trackpoint>
          <Trackpoint>
            <Time>2021-08-11T08:33:22.000Z</Time>
            <Position>
              <LatitudeDegrees>43.2754133641719818115234375</LatitudeDegrees>
              <LongitudeDegrees>-1.6882534325122833251953125</LongitudeDegrees>
            </Position>
            <AltitudeMeters>40</AltitudeMeters>
            <DistanceMeters>NAN</DistanceMeters>
          </Trackpoint>
          <Trackpoint>
            <Time>2021-08-11T08:33:23.000Z</Time>
            <Position>
              <LatitudeDegrees>43.275428451597690582275390625</LatitudeDegrees>
              <LongitudeDegrees>-1.68827799148857593536376953125</LongitudeDegrees>
            </Position>
            <AltitudeMeters>40</AltitudeMeters>
            <DistanceMeters>NAN</DistanceMeters>
          </Trackpoint>
          <Trackpoint>
            <Time>2021-08-11T08:33:24.000Z</Time>
            <Position>
              <LatitudeDegrees>43.27543473802506923675537109375</LatitudeDegrees>
              <LongitudeDegrees>-1.6883038915693759918212890625</LongitudeDegrees>
            </Position>
            <AltitudeMeters>39.799999237060546875</AltitudeMeters>
            <DistanceMeters>NAN</DistanceMeters>
          </Trackpoint>
          <Trackpoint>
            <Time>2021-08-11T08:33:25.000Z</Time>
            <Position>
              <LatitudeDegrees>43.27543415129184722900390625</LatitudeDegrees>
              <LongitudeDegrees>-1.688328869640827178955078125</LongitudeDegrees>
            </Position>
            <AltitudeMeters>39.799999237060546875</AltitudeMeters>
            <DistanceMeters>NAN</DistanceMeters>
          </Trackpoint>
          <Trackpoint>
            <Time>2021-08-11T08:33:26.000Z</Time>
            <Position>
              <LatitudeDegrees>43.27542786486446857452392578125</LatitudeDegrees>
              <LongitudeDegrees>-1.68835761956870555877685546875</LongitudeDegrees>
            </Position>
            <AltitudeMeters>39.799999237060546875</AltitudeMeters>
            <DistanceMeters>NAN</DistanceMeters>
          </Trackpoint>
          <Trackpoint>
            <Time>2021-08-11T08:33:27.000Z</Time>
            <Position>
              <LatitudeDegrees>43.27541210688650608062744140625</LatitudeDegrees>
              <LongitudeDegrees>-1.68839181773364543914794921875</LongitudeDegrees>
            </Position>
            <AltitudeMeters>39.799999237060546875</AltitudeMeters>
            <DistanceMeters>NAN</DistanceMeters>
          </Trackpoint>
          <Trackpoint>
            <Time>2021-08-11T08:33:28.000Z</Time>
            <Position>
              <LatitudeDegrees>43.27539115212857723236083984375</LatitudeDegrees>
              <LongitudeDegrees>-1.68842685408890247344970703125</LongitudeDegrees>
            </Position>
            <AltitudeMeters>39.799999237060546875</AltitudeMeters>
            <DistanceMeters>NAN</DistanceMeters>
          </Trackpoint>
          <Trackpoint>
            <Time>2021-08-11T08:33:29.000Z</Time>
            <Position>
              <LatitudeDegrees>43.27537380158901214599609375</LatitudeDegrees>
              <LongitudeDegrees>-1.688465662300586700439453125</LongitudeDegrees>
            </Position>
            <AltitudeMeters>39.799999237060546875</AltitudeMeters>
            <DistanceMeters>NAN</DistanceMeters>
          </Trackpoint>
          <Trackpoint>
            <Time>2021-08-11T08:33:31.000Z</Time>
            <Position>
              <LatitudeDegrees>43.275355361402034759521484375</LatitudeDegrees>
              <LongitudeDegrees>-1.68856582604348659515380859375</LongitudeDegrees>
            </Position>
            <AltitudeMeters>39.799999237060546875</AltitudeMeters>
            <DistanceMeters>NAN</DistanceMeters>
          </Trackpoint>
          <Trackpoint>
            <Time>2021-08-11T08:33:32.000Z</Time>
            <Position>
              <LatitudeDegrees>43.27534823678433895111083984375</LatitudeDegrees>
              <LongitudeDegrees>-1.68861947022378444671630859375</LongitudeDegrees>
            </Position>
            <AltitudeMeters>39.799999237060546875</AltitudeMeters>
            <DistanceMeters>NAN</DistanceMeters>
          </Trackpoint>
          <Trackpoint>
            <Time>2021-08-11T08:33:34.000Z</Time>
            <Position>
              <LatitudeDegrees>43.27533918432891368865966796875</LatitudeDegrees>
              <LongitudeDegrees>-1.68873329646885395050048828125</LongitudeDegrees>
            </Position>
            <AltitudeMeters>39.799999237060546875</AltitudeMeters>
            <DistanceMeters>NAN</DistanceMeters>
          </Trackpoint>
          <Trackpoint>
            <Time>2021-08-11T08:33:35.000Z</Time>
            <Position>
              <LatitudeDegrees>43.2753347419202327728271484375</LatitudeDegrees>
              <LongitudeDegrees>-1.688790880143642425537109375</LongitudeDegrees>
            </Position>
            <AltitudeMeters>39.799999237060546875</AltitudeMeters>
            <DistanceMeters>NAN</DistanceMeters>
          </Trackpoint>
          <Trackpoint>
            <Time>2021-08-11T08:33:37.000Z</Time>
            <Position>
              <LatitudeDegrees>43.275327868759632110595703125</LatitudeDegrees>
              <LongitudeDegrees>-1.68890998698770999908447265625</LongitudeDegrees>
            </Position>
            <AltitudeMeters>39.799999237060546875</AltitudeMeters>
            <DistanceMeters>NAN</DistanceMeters>
          </Trackpoint>
          <Trackpoint>
            <Time>2021-08-11T08:33:38.000Z</Time>
            <Position>
              <LatitudeDegrees>43.27532158233225345611572265625</LatitudeDegrees>
              <LongitudeDegrees>-1.6889870166778564453125</LongitudeDegrees>
            </Position>
            <AltitudeMeters>40</AltitudeMeters>
            <DistanceMeters>NAN</DistanceMeters>
          </Trackpoint>
          <Trackpoint>
            <Time>2021-08-11T08:33:45.000Z</Time>
            <Position>
              <LatitudeDegrees>43.27528151683509349822998046875</LatitudeDegrees>
              <LongitudeDegrees>-1.68943335302174091339111328125</LongitudeDegrees>
            </Position>
            <AltitudeMeters>40.200000762939453125</AltitudeMeters>
            <DistanceMeters>NAN</DistanceMeters>
          </Trackpoint>
          <Trackpoint>
            <Time>2021-08-11T08:33:46.000Z</Time>
            <Position>
              <LatitudeDegrees>43.275278247892856597900390625</LatitudeDegrees>
              <LongitudeDegrees>-1.68949864804744720458984375</LongitudeDegrees>
            </Position>
            <AltitudeMeters>40.200000762939453125</AltitudeMeters>
            <DistanceMeters>NAN</DistanceMeters>
          </Trackpoint>
          <Trackpoint>
            <Time>2021-08-11T08:33:51.000Z</Time>
            <Position>
              <LatitudeDegrees>43.2752524316310882568359375</LatitudeDegrees>
              <LongitudeDegrees>-1.6897864826023578643798828125</LongitudeDegrees>
            </Position>
            <AltitudeMeters>40.40000152587890625</AltitudeMeters>
            <DistanceMeters>NAN</DistanceMeters>
          </Trackpoint>
          <Trackpoint>
            <Time>2021-08-11T08:33:52.000Z</Time>
            <Position>
              <LatitudeDegrees>43.27524698339402675628662109375</LatitudeDegrees>
              <LongitudeDegrees>-1.6898481734097003936767578125</LongitudeDegrees>
            </Position>
            <AltitudeMeters>40.40000152587890625</AltitudeMeters>
            <DistanceMeters>NAN</DistanceMeters>
          </Trackpoint>
          <Trackpoint>
            <Time>2021-08-11T08:33:53.000Z</Time>
            <Position>
              <LatitudeDegrees>43.2752418704330921173095703125</LatitudeDegrees>
              <LongitudeDegrees>-1.68990726582705974578857421875</LongitudeDegrees>
            </Position>
            <AltitudeMeters>40.40000152587890625</AltitudeMeters>
            <DistanceMeters>NAN</DistanceMeters>
          </Trackpoint>
          <Trackpoint>
            <Time>2021-08-11T08:33:54.000Z</Time>
            <Position>
              <LatitudeDegrees>43.27523692511022090911865234375</LatitudeDegrees>
              <LongitudeDegrees>-1.6899671964347362518310546875</LongitudeDegrees>
            </Position>
            <AltitudeMeters>40.40000152587890625</AltitudeMeters>
            <DistanceMeters>NAN</DistanceMeters>
          </Trackpoint>
          <Trackpoint>
            <Time>2021-08-11T08:33:55.000Z</Time>
            <Position>
              <LatitudeDegrees>43.27523273415863513946533203125</LatitudeDegrees>
              <LongitudeDegrees>-1.69002410955727100372314453125</LongitudeDegrees>
            </Position>
            <AltitudeMeters>40.40000152587890625</AltitudeMeters>
            <DistanceMeters>NAN</DistanceMeters>
          </Trackpoint>
          <Trackpoint>
            <Time>2021-08-11T08:33:56.000Z</Time>
            <Position>
              <LatitudeDegrees>43.27522896230220794677734375</LatitudeDegrees>
              <LongitudeDegrees>-1.69007741846144199371337890625</LongitudeDegrees>
            </Position>
            <AltitudeMeters>40.40000152587890625</AltitudeMeters>
            <DistanceMeters>NAN</DistanceMeters>
          </Trackpoint>
          <Trackpoint>
            <Time>2021-08-11T08:33:57.000Z</Time>
            <Position>
              <LatitudeDegrees>43.2752247713506221771240234375</LatitudeDegrees>
              <LongitudeDegrees>-1.69014095328748226165771484375</LongitudeDegrees>
            </Position>
            <AltitudeMeters>40.40000152587890625</AltitudeMeters>
            <DistanceMeters>NAN</DistanceMeters>
          </Trackpoint>
          <Trackpoint>
            <Time>2021-08-11T08:33:58.000Z</Time>
            <Position>
              <LatitudeDegrees>43.275222592055797576904296875</LatitudeDegrees>
              <LongitudeDegrees>-1.690180264413356781005859375</LongitudeDegrees>
            </Position>
            <AltitudeMeters>40.40000152587890625</AltitudeMeters>
            <DistanceMeters>NAN</DistanceMeters>
          </Trackpoint>
          <Trackpoint>
            <Time>2021-08-11T08:33:59.000Z</Time>
            <Position>
              <LatitudeDegrees>43.27522150240838527679443359375</LatitudeDegrees>
              <LongitudeDegrees>-1.69022376649081707000732421875</LongitudeDegrees>
            </Position>
            <AltitudeMeters>40.40000152587890625</AltitudeMeters>
            <DistanceMeters>NAN</DistanceMeters>
          </Trackpoint>
          <Trackpoint>
            <Time>2021-08-11T08:34:00.000Z</Time>
            <Position>
              <LatitudeDegrees>43.27522150240838527679443359375</LatitudeDegrees>
              <LongitudeDegrees>-1.69026299379765987396240234375</LongitudeDegrees>
            </Position>
            <AltitudeMeters>40.40000152587890625</AltitudeMeters>
            <DistanceMeters>NAN</DistanceMeters>
          </Trackpoint>
          <Trackpoint>
            <Time>2021-08-11T08:34:01.000Z</Time>
            <Position>
              <LatitudeDegrees>43.275224268436431884765625</LatitudeDegrees>
              <LongitudeDegrees>-1.69029685668647289276123046875</LongitudeDegrees>
            </Position>
            <AltitudeMeters>40.40000152587890625</AltitudeMeters>
            <DistanceMeters>NAN</DistanceMeters>
          </Trackpoint>
          <Trackpoint>
            <Time>2021-08-11T08:34:02.000Z</Time>
            <Position>
              <LatitudeDegrees>43.27522770501673221588134765625</LatitudeDegrees>
              <LongitudeDegrees>-1.69032535515725612640380859375</LongitudeDegrees>
            </Position>
            <AltitudeMeters>40.40000152587890625</AltitudeMeters>
            <DistanceMeters>NAN</DistanceMeters>
          </Trackpoint>
          <Trackpoint>
            <Time>2021-08-11T08:34:03.000Z</Time>
            <Position>
              <LatitudeDegrees>43.27522653155028820037841796875</LatitudeDegrees>
              <LongitudeDegrees>-1.69034932740032672882080078125</LongitudeDegrees>
            </Position>
            <AltitudeMeters>40.40000152587890625</AltitudeMeters>
            <DistanceMeters>NAN</DistanceMeters>
          </Trackpoint>
          <Trackpoint>
            <Time>2021-08-11T08:34:04.000Z</Time>
            <Position>
              <LatitudeDegrees>43.27521848492324352264404296875</LatitudeDegrees>
              <LongitudeDegrees>-1.69036391191184520721435546875</LongitudeDegrees>
            </Position>
            <AltitudeMeters>40.40000152587890625</AltitudeMeters>
            <DistanceMeters>NAN</DistanceMeters>
          </Trackpoint>
          <Trackpoint>
            <Time>2021-08-11T08:34:05.000Z</Time>
            <Position>
              <LatitudeDegrees>43.27521395869553089141845703125</LatitudeDegrees>
              <LongitudeDegrees>-1.69036743231117725372314453125</LongitudeDegrees>
            </Position>
            <AltitudeMeters>40.40000152587890625</AltitudeMeters>
            <DistanceMeters>NAN</DistanceMeters>
          </Trackpoint>
          <Trackpoint>
            <Time>2021-08-11T08:34:09.000Z</Time>
            <Position>
              <LatitudeDegrees>43.27521395869553089141845703125</LatitudeDegrees>
              <LongitudeDegrees>-1.69036743231117725372314453125</LongitudeDegrees>
            </Position>
            <AltitudeMeters>40.40000152587890625</AltitudeMeters>
            <DistanceMeters>NAN</DistanceMeters>
          </Trackpoint>
          <Trackpoint>
            <Time>2021-08-11T08:34:49.000Z</Time>
            <Position>
              <LatitudeDegrees>43.27521395869553089141845703125</LatitudeDegrees>
              <LongitudeDegrees>-1.69036743231117725372314453125</LongitudeDegrees>
            </Position>
            <AltitudeMeters>40.799999237060546875</AltitudeMeters>
            <DistanceMeters>NAN</DistanceMeters>
          </Trackpoint>
          <Trackpoint>
            <Time>2021-08-11T08:35:18.000Z</Time>
            <Position>
              <LatitudeDegrees>43.27521395869553089141845703125</LatitudeDegrees>
              <LongitudeDegrees>-1.69036743231117725372314453125</LongitudeDegrees>
            </Position>
            <AltitudeMeters>40.59999847412109375</AltitudeMeters>
            <DistanceMeters>NAN</DistanceMeters>
          </Trackpoint>
          <Trackpoint>
            <Time>2021-08-11T08:36:05.000Z</Time>
            <Position>
              <LatitudeDegrees>43.27521395869553089141845703125</LatitudeDegrees>
              <LongitudeDegrees>-1.69036743231117725372314453125</LongitudeDegrees>
            </Position>
            <AltitudeMeters>40.40000152587890625</AltitudeMeters>
            <DistanceMeters>NAN</DistanceMeters>
          </Trackpoint>
          <Trackpoint>
            <Time>2021-08-11T08:36:52.000Z</Time>
            <Position>
              <LatitudeDegrees>43.27521395869553089141845703125</LatitudeDegrees>
              <LongitudeDegrees>-1.69036743231117725372314453125</LongitudeDegrees>
            </Position>
            <AltitudeMeters>40.59999847412109375</AltitudeMeters>
            <DistanceMeters>NAN</DistanceMeters>
          </Trackpoint>
          <Trackpoint>
            <Time>2021-08-11T08:37:28.000Z</Time>
            <Position>
              <LatitudeDegrees>43.2752163894474506378173828125</LatitudeDegrees>
              <LongitudeDegrees>-1.69035837985575199127197265625</LongitudeDegrees>
            </Position>
            <AltitudeMeters>39.59999847412109375</AltitudeMeters>
            <DistanceMeters>NAN</DistanceMeters>
          </Trackpoint>
          <Trackpoint>
            <Time>2021-08-11T08:37:31.000Z</Time>
            <Position>
              <LatitudeDegrees>43.2752167247235774993896484375</LatitudeDegrees>
              <LongitudeDegrees>-1.6903571225702762603759765625</LongitudeDegrees>
            </Position>
            <AltitudeMeters>40</AltitudeMeters>
            <DistanceMeters>NAN</DistanceMeters>
          </Trackpoint>
          <Trackpoint>
            <Time>2021-08-11T08:38:15.000Z</Time>
            <Position>
              <LatitudeDegrees>43.2752194069325923919677734375</LatitudeDegrees>
              <LongitudeDegrees>-1.69034622609615325927734375</LongitudeDegrees>
            </Position>
            <AltitudeMeters>39.799999237060546875</AltitudeMeters>
            <DistanceMeters>NAN</DistanceMeters>
          </Trackpoint>
          <Trackpoint>
            <Time>2021-08-11T08:38:52.000Z</Time>
            <Position>
              <LatitudeDegrees>43.2752194069325923919677734375</LatitudeDegrees>
              <LongitudeDegrees>-1.69034622609615325927734375</LongitudeDegrees>
            </Position>
            <AltitudeMeters>40.200000762939453125</AltitudeMeters>
            <DistanceMeters>NAN</DistanceMeters>
          </Trackpoint>
          <Trackpoint>
            <Time>2021-08-11T08:39:26.000Z</Time>
            <Position>
              <LatitudeDegrees>43.27522921375930309295654296875</LatitudeDegrees>
              <LongitudeDegrees>-1.690374054014682769775390625</LongitudeDegrees>
            </Position>
            <AltitudeMeters>40.40000152587890625</AltitudeMeters>
            <DistanceMeters>NAN</DistanceMeters>
          </Trackpoint>
          <Trackpoint>
            <Time>2021-08-11T08:39:27.000Z</Time>
            <Position>
              <LatitudeDegrees>43.27524363063275814056396484375</LatitudeDegrees>
              <LongitudeDegrees>-1.69039777480065822601318359375</LongitudeDegrees>
            </Position>
            <AltitudeMeters>40.40000152587890625</AltitudeMeters>
            <DistanceMeters>NAN</DistanceMeters>
          </Trackpoint>
          <Trackpoint>
            <Time>2021-08-11T08:39:28.000Z</Time>
            <Position>
              <LatitudeDegrees>43.27526072971522808074951171875</LatitudeDegrees>
              <LongitudeDegrees>-1.69041353277862071990966796875</LongitudeDegrees>
            </Position>
            <AltitudeMeters>40.40000152587890625</AltitudeMeters>
            <DistanceMeters>NAN</DistanceMeters>
          </Trackpoint>
          <Trackpoint>
            <Time>2021-08-11T08:39:29.000Z</Time>
            <Position>
              <LatitudeDegrees>43.275283612310886383056640625</LatitudeDegrees>
              <LongitudeDegrees>-1.6904313862323760986328125</LongitudeDegrees>
            </Position>
            <AltitudeMeters>40.40000152587890625</AltitudeMeters>
            <DistanceMeters>NAN</DistanceMeters>
          </Trackpoint>
          <Trackpoint>
            <Time>2021-08-11T08:39:30.000Z</Time>
            <Position>
              <LatitudeDegrees>43.2753095962107181549072265625</LatitudeDegrees>
              <LongitudeDegrees>-1.69045158661901950836181640625</LongitudeDegrees>
            </Position>
            <AltitudeMeters>40.59999847412109375</AltitudeMeters>
            <DistanceMeters>NAN</DistanceMeters>
          </Trackpoint>
          <Trackpoint>
            <Time>2021-08-11T08:39:32.000Z</Time>
            <Position>
              <LatitudeDegrees>43.27535100281238555908203125</LatitudeDegrees>
              <LongitudeDegrees>-1.69048394076526165008544921875</LongitudeDegrees>
            </Position>
            <AltitudeMeters>40.59999847412109375</AltitudeMeters>
            <DistanceMeters>NAN</DistanceMeters>
          </Trackpoint>
          <Trackpoint>
            <Time>2021-08-11T08:39:34.000Z</Time>
            <Position>
              <LatitudeDegrees>43.275412023067474365234375</LatitudeDegrees>
              <LongitudeDegrees>-1.6905064880847930908203125</LongitudeDegrees>
            </Position>
            <AltitudeMeters>40.799999237060546875</AltitudeMeters>
            <DistanceMeters>NAN</DistanceMeters>
          </Trackpoint>
          <Trackpoint>
            <Time>2021-08-11T08:39:35.000Z</Time>
            <Position>
              <LatitudeDegrees>43.27546365559101104736328125</LatitudeDegrees>
              <LongitudeDegrees>-1.69051310978829860687255859375</LongitudeDegrees>
            </Position>
            <AltitudeMeters>41.200000762939453125</AltitudeMeters>
            <DistanceMeters>NAN</DistanceMeters>
          </Trackpoint>
          <Trackpoint>
            <Time>2021-08-11T08:39:39.000Z</Time>
            <Position>
              <LatitudeDegrees>43.27564797364175319671630859375</LatitudeDegrees>
              <LongitudeDegrees>-1.69054244644939899444580078125</LongitudeDegrees>
            </Position>
            <AltitudeMeters>41.799999237060546875</AltitudeMeters>
            <DistanceMeters>NAN</DistanceMeters>
          </Trackpoint>
          <Trackpoint>
            <Time>2021-08-11T08:39:41.000Z</Time>
            <Position>
              <LatitudeDegrees>43.27575123868882656097412109375</LatitudeDegrees>
              <LongitudeDegrees>-1.69055552221834659576416015625</LongitudeDegrees>
            </Position>
            <AltitudeMeters>41.799999237060546875</AltitudeMeters>
            <DistanceMeters>NAN</DistanceMeters>
          </Trackpoint>
          <Trackpoint>
            <Time>2021-08-11T08:39:43.000Z</Time>
            <Position>
              <LatitudeDegrees>43.2758467085659503936767578125</LatitudeDegrees>
              <LongitudeDegrees>-1.69055049307644367218017578125</LongitudeDegrees>
            </Position>
            <AltitudeMeters>41.799999237060546875</AltitudeMeters>
            <DistanceMeters>NAN</DistanceMeters>
          </Trackpoint>
          <Trackpoint>
            <Time>2021-08-11T08:39:45.000Z</Time>
            <Position>
              <LatitudeDegrees>43.27596916817128658294677734375</LatitudeDegrees>
              <LongitudeDegrees>-1.6905478946864604949951171875</LongitudeDegrees>
            </Position>
            <AltitudeMeters>41.799999237060546875</AltitudeMeters>
            <DistanceMeters>NAN</DistanceMeters>
          </Trackpoint>
          <Trackpoint>
            <Time>2021-08-11T08:39:46.000Z</Time>
            <Position>
              <LatitudeDegrees>43.2760287635028362274169921875</LatitudeDegrees>
              <LongitudeDegrees>-1.69055116362869739532470703125</LongitudeDegrees>
            </Position>
            <AltitudeMeters>41.799999237060546875</AltitudeMeters>
            <DistanceMeters>NAN</DistanceMeters>
          </Trackpoint>
          <Trackpoint>
            <Time>2021-08-11T08:39:51.000Z</Time>
            <Position>
              <LatitudeDegrees>43.27630184590816497802734375</LatitudeDegrees>
              <LongitudeDegrees>-1.69057848863303661346435546875</LongitudeDegrees>
            </Position>
            <AltitudeMeters>41.799999237060546875</AltitudeMeters>
            <DistanceMeters>NAN</DistanceMeters>
          </Trackpoint>
          <Trackpoint>
            <Time>2021-08-11T08:39:53.000Z</Time>
            <Position>
              <LatitudeDegrees>43.276383988559246063232421875</LatitudeDegrees>
              <LongitudeDegrees>-1.69058552943170070648193359375</LongitudeDegrees>
            </Position>
            <AltitudeMeters>41.799999237060546875</AltitudeMeters>
            <DistanceMeters>NAN</DistanceMeters>
          </Trackpoint>
          <Trackpoint>
            <Time>2021-08-11T08:39:54.000Z</Time>
            <Position>
              <LatitudeDegrees>43.276423551142215728759765625</LatitudeDegrees>
              <LongitudeDegrees>-1.69057949446141719818115234375</LongitudeDegrees>
            </Position>
            <AltitudeMeters>41.799999237060546875</AltitudeMeters>
            <DistanceMeters>NAN</DistanceMeters>
          </Trackpoint>
          <Trackpoint>
            <Time>2021-08-11T08:39:55.000Z</Time>
            <Position>
              <LatitudeDegrees>43.27645313926041126251220703125</LatitudeDegrees>
              <LongitudeDegrees>-1.6905777342617511749267578125</LongitudeDegrees>
            </Position>
            <AltitudeMeters>41.799999237060546875</AltitudeMeters>
            <DistanceMeters>NAN</DistanceMeters>
          </Trackpoint>
          <Trackpoint>
            <Time>2021-08-11T08:39:56.000Z</Time>
            <Position>
              <LatitudeDegrees>43.27648431994020938873291015625</LatitudeDegrees>
              <LongitudeDegrees>-1.69057915918529033660888671875</LongitudeDegrees>
            </Position>
            <AltitudeMeters>42</AltitudeMeters>
            <DistanceMeters>NAN</DistanceMeters>
          </Trackpoint>
          <Trackpoint>
            <Time>2021-08-11T08:39:57.000Z</Time>
            <Position>
              <LatitudeDegrees>43.2765159197151660919189453125</LatitudeDegrees>
              <LongitudeDegrees>-1.69058083556592464447021484375</LongitudeDegrees>
            </Position>
            <AltitudeMeters>42</AltitudeMeters>
            <DistanceMeters>NAN</DistanceMeters>
          </Trackpoint>
          <Trackpoint>
            <Time>2021-08-11T08:39:58.000Z</Time>
            <Position>
              <LatitudeDegrees>43.27654659748077392578125</LatitudeDegrees>
              <LongitudeDegrees>-1.69058150611817836761474609375</LongitudeDegrees>
            </Position>
            <AltitudeMeters>42</AltitudeMeters>
            <DistanceMeters>NAN</DistanceMeters>
          </Trackpoint>
          <Trackpoint>
            <Time>2021-08-11T08:40:01.000Z</Time>
            <Position>
              <LatitudeDegrees>43.27664382755756378173828125</LatitudeDegrees>
              <LongitudeDegrees>-1.69059089384973049163818359375</LongitudeDegrees>
            </Position>
            <AltitudeMeters>42</AltitudeMeters>
            <DistanceMeters>NAN</DistanceMeters>
          </Trackpoint>
          <Trackpoint>
            <Time>2021-08-11T08:40:02.000Z</Time>
            <Position>
              <LatitudeDegrees>43.276677019894123077392578125</LatitudeDegrees>
              <LongitudeDegrees>-1.69059156440198421478271484375</LongitudeDegrees>
            </Position>
            <AltitudeMeters>42.200000762939453125</AltitudeMeters>
            <DistanceMeters>NAN</DistanceMeters>
          </Trackpoint>
          <Trackpoint>
            <Time>2021-08-11T08:40:03.000Z</Time>
            <Position>
              <LatitudeDegrees>43.2767123915255069732666015625</LatitudeDegrees>
              <LongitudeDegrees>-1.69058972038328647613525390625</LongitudeDegrees>
            </Position>
            <AltitudeMeters>42.200000762939453125</AltitudeMeters>
            <DistanceMeters>NAN</DistanceMeters>
          </Trackpoint>
          <Trackpoint>
            <Time>2021-08-11T08:40:04.000Z</Time>
            <Position>
              <LatitudeDegrees>43.27674575150012969970703125</LatitudeDegrees>
              <LongitudeDegrees>-1.690591312944889068603515625</LongitudeDegrees>
            </Position>
            <AltitudeMeters>42.200000762939453125</AltitudeMeters>
            <DistanceMeters>NAN</DistanceMeters>
          </Trackpoint>
          <Trackpoint>
            <Time>2021-08-11T08:40:07.000Z</Time>
            <Position>
              <LatitudeDegrees>43.27684901654720306396484375</LatitudeDegrees>
              <LongitudeDegrees>-1.69060480780899524688720703125</LongitudeDegrees>
            </Position>
            <AltitudeMeters>42.200000762939453125</AltitudeMeters>
            <DistanceMeters>NAN</DistanceMeters>
          </Trackpoint>
          <Trackpoint>
            <Time>2021-08-11T08:40:12.000Z</Time>
            <Position>
              <LatitudeDegrees>43.2770580612123012542724609375</LatitudeDegrees>
              <LongitudeDegrees>-1.690603382885456085205078125</LongitudeDegrees>
            </Position>
            <AltitudeMeters>42.200000762939453125</AltitudeMeters>
            <DistanceMeters>NAN</DistanceMeters>
          </Trackpoint>
          <Trackpoint>
            <Time>2021-08-11T08:40:18.000Z</Time>
            <Position>
              <LatitudeDegrees>43.27735402621328830718994140625</LatitudeDegrees>
              <LongitudeDegrees>-1.6906115971505641937255859375</LongitudeDegrees>
            </Position>
            <AltitudeMeters>42.200000762939453125</AltitudeMeters>
            <DistanceMeters>NAN</DistanceMeters>
          </Trackpoint>
          <Trackpoint>
            <Time>2021-08-11T08:40:25.000Z</Time>
            <Position>
              <LatitudeDegrees>43.27767974697053432464599609375</LatitudeDegrees>
              <LongitudeDegrees>-1.69074319303035736083984375</LongitudeDegrees>
            </Position>
            <AltitudeMeters>42.200000762939453125</AltitudeMeters>
            <DistanceMeters>NAN</DistanceMeters>
          </Trackpoint>
          <Trackpoint>
            <Time>2021-08-11T08:40:30.000Z</Time>
            <Position>
              <LatitudeDegrees>43.277866579592227935791015625</LatitudeDegrees>
              <LongitudeDegrees>-1.69087001122534275054931640625</LongitudeDegrees>
            </Position>
            <AltitudeMeters>42</AltitudeMeters>
            <DistanceMeters>NAN</DistanceMeters>
          </Trackpoint>
          <Trackpoint>
            <Time>2021-08-11T08:40:31.000Z</Time>
            <Position>
              <LatitudeDegrees>43.277904130518436431884765625</LatitudeDegrees>
              <LongitudeDegrees>-1.69090068899095058441162109375</LongitudeDegrees>
            </Position>
            <AltitudeMeters>42</AltitudeMeters>
            <DistanceMeters>NAN</DistanceMeters>
          </Trackpoint>
          <Trackpoint>
            <Time>2021-08-11T08:40:33.000Z</Time>
            <Position>
              <LatitudeDegrees>43.27798367477953433990478515625</LatitudeDegrees>
              <LongitudeDegrees>-1.6909726895391941070556640625</LongitudeDegrees>
            </Position>
            <AltitudeMeters>42</AltitudeMeters>
            <DistanceMeters>NAN</DistanceMeters>
          </Trackpoint>
          <Trackpoint>
            <Time>2021-08-11T08:40:35.000Z</Time>
            <Position>
              <LatitudeDegrees>43.27804394066333770751953125</LatitudeDegrees>
              <LongitudeDegrees>-1.69103228487074375152587890625</LongitudeDegrees>
            </Position>
            <AltitudeMeters>42</AltitudeMeters>
            <DistanceMeters>NAN</DistanceMeters>
          </Trackpoint>
          <Trackpoint>
            <Time>2021-08-11T08:40:36.000Z</Time>
            <Position>
              <LatitudeDegrees>43.27807738445699214935302734375</LatitudeDegrees>
              <LongitudeDegrees>-1.6910669021308422088623046875</LongitudeDegrees>
            </Position>
            <AltitudeMeters>42</AltitudeMeters>
            <DistanceMeters>NAN</DistanceMeters>
          </Trackpoint>
          <Trackpoint>
            <Time>2021-08-11T08:40:37.000Z</Time>
            <Position>
              <LatitudeDegrees>43.2781170308589935302734375</LatitudeDegrees>
              <LongitudeDegrees>-1.69111375696957111358642578125</LongitudeDegrees>
            </Position>
            <AltitudeMeters>42</AltitudeMeters>
            <DistanceMeters>NAN</DistanceMeters>
          </Trackpoint>
          <Trackpoint>
            <Time>2021-08-11T08:40:38.000Z</Time>
            <Position>
              <LatitudeDegrees>43.2781513966619968414306640625</LatitudeDegrees>
              <LongitudeDegrees>-1.691155917942523956298828125</LongitudeDegrees>
            </Position>
            <AltitudeMeters>42</AltitudeMeters>
            <DistanceMeters>NAN</DistanceMeters>
          </Trackpoint>
          <Trackpoint>
            <Time>2021-08-11T08:40:40.000Z</Time>
            <Position>
              <LatitudeDegrees>43.27820344828069210052490234375</LatitudeDegrees>
              <LongitudeDegrees>-1.6912402398884296417236328125</LongitudeDegrees>
            </Position>
            <AltitudeMeters>42</AltitudeMeters>
            <DistanceMeters>NAN</DistanceMeters>
          </Trackpoint>
          <Trackpoint>
            <Time>2021-08-11T08:40:41.000Z</Time>
            <Position>
              <LatitudeDegrees>43.2782308571040630340576171875</LatitudeDegrees>
              <LongitudeDegrees>-1.69128525070846080780029296875</LongitudeDegrees>
            </Position>
            <AltitudeMeters>42</AltitudeMeters>
            <DistanceMeters>NAN</DistanceMeters>
          </Trackpoint>
          <Trackpoint>
            <Time>2021-08-11T08:40:42.000Z</Time>
            <Position>
              <LatitudeDegrees>43.2782647199928760528564453125</LatitudeDegrees>
              <LongitudeDegrees>-1.6913371346890926361083984375</LongitudeDegrees>
            </Position>
            <AltitudeMeters>42.200000762939453125</AltitudeMeters>
            <DistanceMeters>NAN</DistanceMeters>
          </Trackpoint>
          <Trackpoint>
            <Time>2021-08-11T08:40:43.000Z</Time>
            <Position>
              <LatitudeDegrees>43.27828994952142238616943359375</LatitudeDegrees>
              <LongitudeDegrees>-1.69138021767139434814453125</LongitudeDegrees>
            </Position>
            <AltitudeMeters>42.200000762939453125</AltitudeMeters>
            <DistanceMeters>NAN</DistanceMeters>
          </Trackpoint>
          <Trackpoint>
            <Time>2021-08-11T08:40:44.000Z</Time>
            <Position>
              <LatitudeDegrees>43.27830838970839977264404296875</LatitudeDegrees>
              <LongitudeDegrees>-1.691414751112461090087890625</LongitudeDegrees>
            </Position>
            <AltitudeMeters>42.200000762939453125</AltitudeMeters>
            <DistanceMeters>NAN</DistanceMeters>
          </Trackpoint>
          <Trackpoint>
            <Time>2021-08-11T08:40:45.000Z</Time>
            <Position>
              <LatitudeDegrees>43.27833470888435840606689453125</LatitudeDegrees>
              <LongitudeDegrees>-1.6914662159979343414306640625</LongitudeDegrees>
            </Position>
            <AltitudeMeters>42.40000152587890625</AltitudeMeters>
            <DistanceMeters>NAN</DistanceMeters>
          </Trackpoint>
          <Trackpoint>
            <Time>2021-08-11T08:40:46.000Z</Time>
            <Position>
              <LatitudeDegrees>43.2783502154052257537841796875</LatitudeDegrees>
              <LongitudeDegrees>-1.69150292873382568359375</LongitudeDegrees>
            </Position>
            <AltitudeMeters>42.40000152587890625</AltitudeMeters>
            <DistanceMeters>NAN</DistanceMeters>
          </Trackpoint>
          <Trackpoint>
            <Time>2021-08-11T08:40:47.000Z</Time>
            <Position>
              <LatitudeDegrees>43.27837326563894748687744140625</LatitudeDegrees>
              <LongitudeDegrees>-1.69155984185636043548583984375</LongitudeDegrees>
            </Position>
            <AltitudeMeters>42.40000152587890625</AltitudeMeters>
            <DistanceMeters>NAN</DistanceMeters>
          </Trackpoint>
          <Trackpoint>
            <Time>2021-08-11T08:40:48.000Z</Time>
            <Position>
              <LatitudeDegrees>43.2783914543688297271728515625</LatitudeDegrees>
              <LongitudeDegrees>-1.69160552322864532470703125</LongitudeDegrees>
            </Position>
            <AltitudeMeters>42.40000152587890625</AltitudeMeters>
            <DistanceMeters>NAN</DistanceMeters>
          </Trackpoint>
          <Trackpoint>
            <Time>2021-08-11T08:40:49.000Z</Time>
            <Position>
              <LatitudeDegrees>43.2784082181751728057861328125</LatitudeDegrees>
              <LongitudeDegrees>-1.691652126610279083251953125</LongitudeDegrees>
            </Position>
            <AltitudeMeters>42.40000152587890625</AltitudeMeters>
            <DistanceMeters>NAN</DistanceMeters>
          </Trackpoint>
          <Trackpoint>
            <Time>2021-08-11T08:40:50.000Z</Time>
            <Position>
              <LatitudeDegrees>43.2784229703247547149658203125</LatitudeDegrees>
              <LongitudeDegrees>-1.69168892316520214080810546875</LongitudeDegrees>
            </Position>
            <AltitudeMeters>42.40000152587890625</AltitudeMeters>
            <DistanceMeters>NAN</DistanceMeters>
          </Trackpoint>
          <Trackpoint>
            <Time>2021-08-11T08:40:51.000Z</Time>
            <Position>
              <LatitudeDegrees>43.2784400694072246551513671875</LatitudeDegrees>
              <LongitudeDegrees>-1.6917351074516773223876953125</LongitudeDegrees>
            </Position>
            <AltitudeMeters>42.40000152587890625</AltitudeMeters>
            <DistanceMeters>NAN</DistanceMeters>
          </Trackpoint>
          <Trackpoint>
            <Time>2021-08-11T08:40:52.000Z</Time>
            <Position>
              <LatitudeDegrees>43.27845574356615543365478515625</LatitudeDegrees>
              <LongitudeDegrees>-1.69179461896419525146484375</LongitudeDegrees>
            </Position>
            <AltitudeMeters>42.40000152587890625</AltitudeMeters>
            <DistanceMeters>NAN</DistanceMeters>
          </Trackpoint>
          <Trackpoint>
            <Time>2021-08-11T08:40:53.000Z</Time>
            <Position>
              <LatitudeDegrees>43.2784665562212467193603515625</LatitudeDegrees>
              <LongitudeDegrees>-1.6918464191257953643798828125</LongitudeDegrees>
            </Position>
            <AltitudeMeters>42.40000152587890625</AltitudeMeters>
            <DistanceMeters>NAN</DistanceMeters>
          </Trackpoint>
          <Trackpoint>
            <Time>2021-08-11T08:40:58.000Z</Time>
            <Position>
              <LatitudeDegrees>43.2785067893564701080322265625</LatitudeDegrees>
              <LongitudeDegrees>-1.69209913350641727447509765625</LongitudeDegrees>
            </Position>
            <AltitudeMeters>42.40000152587890625</AltitudeMeters>
            <DistanceMeters>NAN</DistanceMeters>
          </Trackpoint>
          <Trackpoint>
            <Time>2021-08-11T08:40:59.000Z</Time>
            <Position>
              <LatitudeDegrees>43.27851575799286365509033203125</LatitudeDegrees>
              <LongitudeDegrees>-1.6921501792967319488525390625</LongitudeDegrees>
            </Position>
            <AltitudeMeters>42.40000152587890625</AltitudeMeters>
            <DistanceMeters>NAN</DistanceMeters>
          </Trackpoint>
          <Trackpoint>
            <Time>2021-08-11T08:41:07.000Z</Time>
            <Position>
              <LatitudeDegrees>43.2785362936556339263916015625</LatitudeDegrees>
              <LongitudeDegrees>-1.6926039755344390869140625</LongitudeDegrees>
            </Position>
            <AltitudeMeters>42.40000152587890625</AltitudeMeters>
            <DistanceMeters>NAN</DistanceMeters>
          </Trackpoint>
          <Trackpoint>
            <Time>2021-08-11T08:41:14.000Z</Time>
            <Position>
              <LatitudeDegrees>43.278470747172832489013671875</LatitudeDegrees>
              <LongitudeDegrees>-1.6929923929274082183837890625</LongitudeDegrees>
            </Position>
            <AltitudeMeters>42.200000762939453125</AltitudeMeters>
            <DistanceMeters>NAN</DistanceMeters>
          </Trackpoint>
          <Trackpoint>
            <Time>2021-08-11T08:41:15.000Z</Time>
            <Position>
              <LatitudeDegrees>43.278462029993534088134765625</LatitudeDegrees>
              <LongitudeDegrees>-1.6930493898689746856689453125</LongitudeDegrees>
            </Position>
            <AltitudeMeters>42.200000762939453125</AltitudeMeters>
            <DistanceMeters>NAN</DistanceMeters>
          </Trackpoint>
          <Trackpoint>
            <Time>2021-08-11T08:41:16.000Z</Time>
            <Position>
              <LatitudeDegrees>43.27845037914812564849853515625</LatitudeDegrees>
              <LongitudeDegrees>-1.6930986754596233367919921875</LongitudeDegrees>
            </Position>
            <AltitudeMeters>42.200000762939453125</AltitudeMeters>
            <DistanceMeters>NAN</DistanceMeters>
          </Trackpoint>
          <Trackpoint>
            <Time>2021-08-11T08:41:17.000Z</Time>
            <Position>
              <LatitudeDegrees>43.27843545936048030853271484375</LatitudeDegrees>
              <LongitudeDegrees>-1.69315525330603122711181640625</LongitudeDegrees>
            </Position>
            <AltitudeMeters>42.200000762939453125</AltitudeMeters>
            <DistanceMeters>NAN</DistanceMeters>
          </Trackpoint>
          <Trackpoint>
            <Time>2021-08-11T08:41:21.000Z</Time>
            <Position>
              <LatitudeDegrees>43.2783545739948749542236328125</LatitudeDegrees>
              <LongitudeDegrees>-1.69336010701954364776611328125</LongitudeDegrees>
            </Position>
            <AltitudeMeters>42.200000762939453125</AltitudeMeters>
            <DistanceMeters>NAN</DistanceMeters>
          </Trackpoint>
          <Trackpoint>
            <Time>2021-08-11T08:41:22.000Z</Time>
            <Position>
              <LatitudeDegrees>43.2783414982259273529052734375</LatitudeDegrees>
              <LongitudeDegrees>-1.69340268708765506744384765625</LongitudeDegrees>
            </Position>
            <AltitudeMeters>42.200000762939453125</AltitudeMeters>
            <DistanceMeters>NAN</DistanceMeters>
          </Trackpoint>
          <Trackpoint>
            <Time>2021-08-11T08:41:23.000Z</Time>
            <Position>
              <LatitudeDegrees>43.27833227813243865966796875</LatitudeDegrees>
              <LongitudeDegrees>-1.69343453831970691680908203125</LongitudeDegrees>
            </Position>
            <AltitudeMeters>42.200000762939453125</AltitudeMeters>
            <DistanceMeters>NAN</DistanceMeters>
          </Trackpoint>
          <Trackpoint>
            <Time>2021-08-11T08:41:24.000Z</Time>
            <Position>
              <LatitudeDegrees>43.278317861258983612060546875</LatitudeDegrees>
              <LongitudeDegrees>-1.693474017083644866943359375</LongitudeDegrees>
            </Position>
            <AltitudeMeters>42</AltitudeMeters>
            <DistanceMeters>NAN</DistanceMeters>
          </Trackpoint>
          <Trackpoint>
            <Time>2021-08-11T08:41:25.000Z</Time>
            <Position>
              <LatitudeDegrees>43.27829833142459392547607421875</LatitudeDegrees>
              <LongitudeDegrees>-1.6935197822749614715576171875</LongitudeDegrees>
            </Position>
            <AltitudeMeters>42</AltitudeMeters>
            <DistanceMeters>NAN</DistanceMeters>
          </Trackpoint>
          <Trackpoint>
            <Time>2021-08-11T08:41:26.000Z</Time>
            <Position>
              <LatitudeDegrees>43.27828257344663143157958984375</LatitudeDegrees>
              <LongitudeDegrees>-1.6935543157160282135009765625</LongitudeDegrees>
            </Position>
            <AltitudeMeters>42</AltitudeMeters>
            <DistanceMeters>NAN</DistanceMeters>
          </Trackpoint>
          <Trackpoint>
            <Time>2021-08-11T08:41:27.000Z</Time>
            <Position>
              <LatitudeDegrees>43.27826681546866893768310546875</LatitudeDegrees>
              <LongitudeDegrees>-1.6935911960899829864501953125</LongitudeDegrees>
            </Position>
            <AltitudeMeters>42</AltitudeMeters>
            <DistanceMeters>NAN</DistanceMeters>
          </Trackpoint>
          <Trackpoint>
            <Time>2021-08-11T08:41:28.000Z</Time>
            <Position>
              <LatitudeDegrees>43.278252817690372467041015625</LatitudeDegrees>
              <LongitudeDegrees>-1.69362279586493968963623046875</LongitudeDegrees>
            </Position>
            <AltitudeMeters>42</AltitudeMeters>
            <DistanceMeters>NAN</DistanceMeters>
          </Trackpoint>
          <Trackpoint>
            <Time>2021-08-11T08:41:32.000Z</Time>
            <Position>
              <LatitudeDegrees>43.27814745716750621795654296875</LatitudeDegrees>
              <LongitudeDegrees>-1.69379554688930511474609375</LongitudeDegrees>
            </Position>
            <AltitudeMeters>41.799999237060546875</AltitudeMeters>
            <DistanceMeters>NAN</DistanceMeters>
          </Trackpoint>
          <Trackpoint>
            <Time>2021-08-11T08:41:34.000Z</Time>
            <Position>
              <LatitudeDegrees>43.278087191283702850341796875</LatitudeDegrees>
              <LongitudeDegrees>-1.6938610933721065521240234375</LongitudeDegrees>
            </Position>
            <AltitudeMeters>41.59999847412109375</AltitudeMeters>
            <DistanceMeters>NAN</DistanceMeters>
          </Trackpoint>
          <Trackpoint>
            <Time>2021-08-11T08:41:35.000Z</Time>
            <Position>
              <LatitudeDegrees>43.2780622132122516632080078125</LatitudeDegrees>
              <LongitudeDegrees>-1.69388397596776485443115234375</LongitudeDegrees>
            </Position>
            <AltitudeMeters>41.59999847412109375</AltitudeMeters>
            <DistanceMeters>NAN</DistanceMeters>
          </Trackpoint>
          <Trackpoint>
            <Time>2021-08-11T08:41:36.000Z</Time>
            <Position>
              <LatitudeDegrees>43.27804117463529109954833984375</LatitudeDegrees>
              <LongitudeDegrees>-1.6939075291156768798828125</LongitudeDegrees>
            </Position>
            <AltitudeMeters>41.59999847412109375</AltitudeMeters>
            <DistanceMeters>NAN</DistanceMeters>
          </Trackpoint>
          <Trackpoint>
            <Time>2021-08-11T08:41:37.000Z</Time>
            <Position>
              <LatitudeDegrees>43.27802784740924835205078125</LatitudeDegrees>
              <LongitudeDegrees>-1.693921275436878204345703125</LongitudeDegrees>
            </Position>
            <AltitudeMeters>41.59999847412109375</AltitudeMeters>
            <DistanceMeters>NAN</DistanceMeters>
          </Trackpoint>
          <Trackpoint>
            <Time>2021-08-11T08:41:38.000Z</Time>
            <Position>
              <LatitudeDegrees>43.27801384963095188140869140625</LatitudeDegrees>
              <LongitudeDegrees>-1.693938039243221282958984375</LongitudeDegrees>
            </Position>
            <AltitudeMeters>41.40000152587890625</AltitudeMeters>
            <DistanceMeters>NAN</DistanceMeters>
          </Trackpoint>
          <Trackpoint>
            <Time>2021-08-11T08:41:39.000Z</Time>
            <Position>
              <LatitudeDegrees>43.2780021987855434417724609375</LatitudeDegrees>
              <LongitudeDegrees>-1.6939531266689300537109375</LongitudeDegrees>
            </Position>
            <AltitudeMeters>41.200000762939453125</AltitudeMeters>
            <DistanceMeters>NAN</DistanceMeters>
          </Trackpoint>
          <Trackpoint>
            <Time>2021-08-11T08:41:40.000Z</Time>
            <Position>
              <LatitudeDegrees>43.2779990136623382568359375</LatitudeDegrees>
              <LongitudeDegrees>-1.69395656324923038482666015625</LongitudeDegrees>
            </Position>
            <AltitudeMeters>41.200000762939453125</AltitudeMeters>
            <DistanceMeters>NAN</DistanceMeters>
          </Trackpoint>
          <Trackpoint>
            <Time>2021-08-11T08:41:42.000Z</Time>
            <Position>
              <LatitudeDegrees>43.2779990136623382568359375</LatitudeDegrees>
              <LongitudeDegrees>-1.69395656324923038482666015625</LongitudeDegrees>
            </Position>
            <AltitudeMeters>41</AltitudeMeters>
            <DistanceMeters>NAN</DistanceMeters>
          </Trackpoint>
          <Trackpoint>
            <Time>2021-08-11T08:42:07.000Z</Time>
            <Position>
              <LatitudeDegrees>43.2779990136623382568359375</LatitudeDegrees>
              <LongitudeDegrees>-1.69395656324923038482666015625</LongitudeDegrees>
            </Position>
            <AltitudeMeters>40.40000152587890625</AltitudeMeters>
            <DistanceMeters>NAN</DistanceMeters>
          </Trackpoint>
          <Trackpoint>
            <Time>2021-08-11T08:42:14.000Z</Time>
            <Position>
              <LatitudeDegrees>43.2779968343675136566162109375</LatitudeDegrees>
              <LongitudeDegrees>-1.69395790435373783111572265625</LongitudeDegrees>
            </Position>
            <AltitudeMeters>40.200000762939453125</AltitudeMeters>
            <DistanceMeters>NAN</DistanceMeters>
          </Trackpoint>
          <Trackpoint>
            <Time>2021-08-11T08:42:15.000Z</Time>
            <Position>
              <LatitudeDegrees>43.27797680161893367767333984375</LatitudeDegrees>
              <LongitudeDegrees>-1.69397014193236827850341796875</LongitudeDegrees>
            </Position>
            <AltitudeMeters>40.200000762939453125</AltitudeMeters>
            <DistanceMeters>NAN</DistanceMeters>
          </Trackpoint>
          <Trackpoint>
            <Time>2021-08-11T08:42:16.000Z</Time>
            <Position>
              <LatitudeDegrees>43.2779569365084171295166015625</LatitudeDegrees>
              <LongitudeDegrees>-1.6939854808151721954345703125</LongitudeDegrees>
            </Position>
            <AltitudeMeters>40.200000762939453125</AltitudeMeters>
            <DistanceMeters>NAN</DistanceMeters>
          </Trackpoint>
          <Trackpoint>
            <Time>2021-08-11T08:42:20.000Z</Time>
            <Position>
              <LatitudeDegrees>43.27784051187336444854736328125</LatitudeDegrees>
              <LongitudeDegrees>-1.69408463872969150543212890625</LongitudeDegrees>
            </Position>
            <AltitudeMeters>40.200000762939453125</AltitudeMeters>
            <DistanceMeters>NAN</DistanceMeters>
          </Trackpoint>
          <Trackpoint>
            <Time>2021-08-11T08:42:24.000Z</Time>
            <Position>
              <LatitudeDegrees>43.2776950858533382415771484375</LatitudeDegrees>
              <LongitudeDegrees>-1.6941926814615726470947265625</LongitudeDegrees>
            </Position>
            <AltitudeMeters>40</AltitudeMeters>
            <DistanceMeters>NAN</DistanceMeters>
          </Trackpoint>
          <Trackpoint>
            <Time>2021-08-11T08:42:25.000Z</Time>
            <Position>
              <LatitudeDegrees>43.27765845693647861480712890625</LatitudeDegrees>
              <LongitudeDegrees>-1.69421975500881671905517578125</LongitudeDegrees>
            </Position>
            <AltitudeMeters>40</AltitudeMeters>
            <DistanceMeters>NAN</DistanceMeters>
          </Trackpoint>
          <Trackpoint>
            <Time>2021-08-11T08:42:26.000Z</Time>
            <Position>
              <LatitudeDegrees>43.27762124128639698028564453125</LatitudeDegrees>
              <LongitudeDegrees>-1.694249846041202545166015625</LongitudeDegrees>
            </Position>
            <AltitudeMeters>40</AltitudeMeters>
            <DistanceMeters>NAN</DistanceMeters>
          </Trackpoint>
          <Trackpoint>
            <Time>2021-08-11T08:42:35.000Z</Time>
            <Position>
              <LatitudeDegrees>43.27730893157422542572021484375</LatitudeDegrees>
              <LongitudeDegrees>-1.69448160566389560699462890625</LongitudeDegrees>
            </Position>
            <AltitudeMeters>39.799999237060546875</AltitudeMeters>
            <DistanceMeters>NAN</DistanceMeters>
          </Trackpoint>
          <Trackpoint>
            <Time>2021-08-11T08:42:36.000Z</Time>
            <Position>
              <LatitudeDegrees>43.2772652618587017059326171875</LatitudeDegrees>
              <LongitudeDegrees>-1.69451530091464519500732421875</LongitudeDegrees>
            </Position>
            <AltitudeMeters>39.799999237060546875</AltitudeMeters>
            <DistanceMeters>NAN</DistanceMeters>
          </Trackpoint>
          <Trackpoint>
            <Time>2021-08-11T08:42:37.000Z</Time>
            <Position>
              <LatitudeDegrees>43.27723315916955471038818359375</LatitudeDegrees>
              <LongitudeDegrees>-1.6945386864244937896728515625</LongitudeDegrees>
            </Position>
            <AltitudeMeters>39.799999237060546875</AltitudeMeters>
            <DistanceMeters>NAN</DistanceMeters>
          </Trackpoint>
          <Trackpoint>
            <Time>2021-08-11T08:42:42.000Z</Time>
            <Position>
              <LatitudeDegrees>43.27705378644168376922607421875</LatitudeDegrees>
              <LongitudeDegrees>-1.6947006247937679290771484375</LongitudeDegrees>
            </Position>
            <AltitudeMeters>39.799999237060546875</AltitudeMeters>
            <DistanceMeters>NAN</DistanceMeters>
          </Trackpoint>
          <Trackpoint>
            <Time>2021-08-11T08:42:43.000Z</Time>
            <Position>
              <LatitudeDegrees>43.27702092938125133514404296875</LatitudeDegrees>
              <LongitudeDegrees>-1.6947256028652191162109375</LongitudeDegrees>
            </Position>
            <AltitudeMeters>39.799999237060546875</AltitudeMeters>
            <DistanceMeters>NAN</DistanceMeters>
          </Trackpoint>
          <Trackpoint>
            <Time>2021-08-11T08:42:47.000Z</Time>
            <Position>
              <LatitudeDegrees>43.27689788304269313812255859375</LatitudeDegrees>
              <LongitudeDegrees>-1.69483331032097339630126953125</LongitudeDegrees>
            </Position>
            <AltitudeMeters>40</AltitudeMeters>
            <DistanceMeters>NAN</DistanceMeters>
          </Trackpoint>
          <Trackpoint>
            <Time>2021-08-11T08:42:48.000Z</Time>
            <Position>
              <LatitudeDegrees>43.276867456734180450439453125</LatitudeDegrees>
              <LongitudeDegrees>-1.69485569000244140625</LongitudeDegrees>
            </Position>
            <AltitudeMeters>40</AltitudeMeters>
            <DistanceMeters>NAN</DistanceMeters>
          </Trackpoint>
          <Trackpoint>
            <Time>2021-08-11T08:42:49.000Z</Time>
            <Position>
              <LatitudeDegrees>43.2768317498266696929931640625</LatitudeDegrees>
              <LongitudeDegrees>-1.69487857259809970855712890625</LongitudeDegrees>
            </Position>
            <AltitudeMeters>40</AltitudeMeters>
            <DistanceMeters>NAN</DistanceMeters>
          </Trackpoint>
          <Trackpoint>
            <Time>2021-08-11T08:42:50.000Z</Time>
            <Position>
              <LatitudeDegrees>43.2768092863261699676513671875</LatitudeDegrees>
              <LongitudeDegrees>-1.69489768333733081817626953125</LongitudeDegrees>
            </Position>
            <AltitudeMeters>40</AltitudeMeters>
            <DistanceMeters>NAN</DistanceMeters>
          </Trackpoint>
          <Trackpoint>
            <Time>2021-08-11T08:42:51.000Z</Time>
            <Position>
              <LatitudeDegrees>43.27679461799561977386474609375</LatitudeDegrees>
              <LongitudeDegrees>-1.69491059146821498870849609375</LongitudeDegrees>
            </Position>
            <AltitudeMeters>40</AltitudeMeters>
            <DistanceMeters>NAN</DistanceMeters>
          </Trackpoint>
          <Trackpoint>
            <Time>2021-08-11T08:42:52.000Z</Time>
            <Position>
              <LatitudeDegrees>43.27677684836089611053466796875</LatitudeDegrees>
              <LongitudeDegrees>-1.694922409951686859130859375</LongitudeDegrees>
            </Position>
            <AltitudeMeters>40</AltitudeMeters>
            <DistanceMeters>NAN</DistanceMeters>
          </Trackpoint>
          <Trackpoint>
            <Time>2021-08-11T08:42:53.000Z</Time>
            <Position>
              <LatitudeDegrees>43.2767556421458721160888671875</LatitudeDegrees>
              <LongitudeDegrees>-1.6949423588812351226806640625</LongitudeDegrees>
            </Position>
            <AltitudeMeters>39.799999237060546875</AltitudeMeters>
            <DistanceMeters>NAN</DistanceMeters>
          </Trackpoint>
          <Trackpoint>
            <Time>2021-08-11T08:42:55.000Z</Time>
            <Position>
              <LatitudeDegrees>43.276704512536525726318359375</LatitudeDegrees>
              <LongitudeDegrees>-1.694986782968044281005859375</LongitudeDegrees>
            </Position>
            <AltitudeMeters>39.799999237060546875</AltitudeMeters>
            <DistanceMeters>NAN</DistanceMeters>
          </Trackpoint>
          <Trackpoint>
            <Time>2021-08-11T08:42:57.000Z</Time>
            <Position>
              <LatitudeDegrees>43.2766520418226718902587890625</LatitudeDegrees>
              <LongitudeDegrees>-1.69503531418740749359130859375</LongitudeDegrees>
            </Position>
            <AltitudeMeters>39.799999237060546875</AltitudeMeters>
            <DistanceMeters>NAN</DistanceMeters>
          </Trackpoint>
          <Trackpoint>
            <Time>2021-08-11T08:42:58.000Z</Time>
            <Position>
              <LatitudeDegrees>43.27662966214120388031005859375</LatitudeDegrees>
              <LongitudeDegrees>-1.6950540058314800262451171875</LongitudeDegrees>
            </Position>
            <AltitudeMeters>39.799999237060546875</AltitudeMeters>
            <DistanceMeters>NAN</DistanceMeters>
          </Trackpoint>
          <Trackpoint>
            <Time>2021-08-11T08:42:59.000Z</Time>
            <Position>
              <LatitudeDegrees>43.276600576937198638916015625</LatitudeDegrees>
              <LongitudeDegrees>-1.69507739134132862091064453125</LongitudeDegrees>
            </Position>
            <AltitudeMeters>39.59999847412109375</AltitudeMeters>
            <DistanceMeters>NAN</DistanceMeters>
          </Trackpoint>
          <Trackpoint>
            <Time>2021-08-11T08:43:00.000Z</Time>
            <Position>
              <LatitudeDegrees>43.2765782810747623443603515625</LatitudeDegrees>
              <LongitudeDegrees>-1.695096082985401153564453125</LongitudeDegrees>
            </Position>
            <AltitudeMeters>39.59999847412109375</AltitudeMeters>
            <DistanceMeters>NAN</DistanceMeters>
          </Trackpoint>
          <Trackpoint>
            <Time>2021-08-11T08:43:01.000Z</Time>
            <Position>
              <LatitudeDegrees>43.27655388973653316497802734375</LatitudeDegrees>
              <LongitudeDegrees>-1.695115864276885986328125</LongitudeDegrees>
            </Position>
            <AltitudeMeters>39.59999847412109375</AltitudeMeters>
            <DistanceMeters>NAN</DistanceMeters>
          </Trackpoint>
          <Trackpoint>
            <Time>2021-08-11T08:43:06.000Z</Time>
            <Position>
              <LatitudeDegrees>43.27641860581934452056884765625</LatitudeDegrees>
              <LongitudeDegrees>-1.69522910378873348236083984375</LongitudeDegrees>
            </Position>
            <AltitudeMeters>39.40000152587890625</AltitudeMeters>
            <DistanceMeters>NAN</DistanceMeters>
          </Trackpoint>
          <Trackpoint>
            <Time>2021-08-11T08:43:07.000Z</Time>
            <Position>
              <LatitudeDegrees>43.27639731578528881072998046875</LatitudeDegrees>
              <LongitudeDegrees>-1.69525005854666233062744140625</LongitudeDegrees>
            </Position>
            <AltitudeMeters>39.40000152587890625</AltitudeMeters>
            <DistanceMeters>NAN</DistanceMeters>
          </Trackpoint>
          <Trackpoint>
            <Time>2021-08-11T08:43:08.000Z</Time>
            <Position>
              <LatitudeDegrees>43.27637149952352046966552734375</LatitudeDegrees>
              <LongitudeDegrees>-1.6952749527990818023681640625</LongitudeDegrees>
            </Position>
            <AltitudeMeters>39.40000152587890625</AltitudeMeters>
            <DistanceMeters>NAN</DistanceMeters>
          </Trackpoint>
          <Trackpoint>
            <Time>2021-08-11T08:43:10.000Z</Time>
            <Position>
              <LatitudeDegrees>43.27629405073821544647216796875</LatitudeDegrees>
              <LongitudeDegrees>-1.69534091837704181671142578125</LongitudeDegrees>
            </Position>
            <AltitudeMeters>39.40000152587890625</AltitudeMeters>
            <DistanceMeters>NAN</DistanceMeters>
          </Trackpoint>
          <Trackpoint>
            <Time>2021-08-11T08:43:13.000Z</Time>
            <Position>
              <LatitudeDegrees>43.27617201022803783416748046875</LatitudeDegrees>
              <LongitudeDegrees>-1.6954566724598407745361328125</LongitudeDegrees>
            </Position>
            <AltitudeMeters>39.200000762939453125</AltitudeMeters>
            <DistanceMeters>NAN</DistanceMeters>
          </Trackpoint>
          <Trackpoint>
            <Time>2021-08-11T08:43:18.000Z</Time>
            <Position>
              <LatitudeDegrees>43.27594519592821598052978515625</LatitudeDegrees>
              <LongitudeDegrees>-1.69578264467418193817138671875</LongitudeDegrees>
            </Position>
            <AltitudeMeters>38.200000762939453125</AltitudeMeters>
            <DistanceMeters>NAN</DistanceMeters>
          </Trackpoint>
          <Trackpoint>
            <Time>2021-08-11T08:43:20.000Z</Time>
            <Position>
              <LatitudeDegrees>43.27582315541803836822509765625</LatitudeDegrees>
              <LongitudeDegrees>-1.695907451212406158447265625</LongitudeDegrees>
            </Position>
            <AltitudeMeters>36.799999237060546875</AltitudeMeters>
            <DistanceMeters>NAN</DistanceMeters>
          </Trackpoint>
          <Trackpoint>
            <Time>2021-08-11T08:43:22.000Z</Time>
            <Position>
              <LatitudeDegrees>43.2756817527115345001220703125</LatitudeDegrees>
              <LongitudeDegrees>-1.69606679119169712066650390625</LongitudeDegrees>
            </Position>
            <AltitudeMeters>36</AltitudeMeters>
            <DistanceMeters>NAN</DistanceMeters>
          </Trackpoint>
          <Trackpoint>
            <Time>2021-08-11T08:43:23.000Z</Time>
            <Position>
              <LatitudeDegrees>43.27563422732055187225341796875</LatitudeDegrees>
              <LongitudeDegrees>-1.69615463353693485260009765625</LongitudeDegrees>
            </Position>
            <AltitudeMeters>35.59999847412109375</AltitudeMeters>
            <DistanceMeters>NAN</DistanceMeters>
          </Trackpoint>
          <Trackpoint>
            <Time>2021-08-11T08:43:24.000Z</Time>
            <Position>
              <LatitudeDegrees>43.27559642493724822998046875</LatitudeDegrees>
              <LongitudeDegrees>-1.69623677618801593780517578125</LongitudeDegrees>
            </Position>
            <AltitudeMeters>35.200000762939453125</AltitudeMeters>
            <DistanceMeters>NAN</DistanceMeters>
          </Trackpoint>
          <Trackpoint>
            <Time>2021-08-11T08:43:25.000Z</Time>
            <Position>
              <LatitudeDegrees>43.2755657471716403961181640625</LatitudeDegrees>
              <LongitudeDegrees>-1.6963069327175617218017578125</LongitudeDegrees>
            </Position>
            <AltitudeMeters>34.799999237060546875</AltitudeMeters>
            <DistanceMeters>NAN</DistanceMeters>
          </Trackpoint>
          <Trackpoint>
            <Time>2021-08-11T08:43:26.000Z</Time>
            <Position>
              <LatitudeDegrees>43.27554387040436267852783203125</LatitudeDegrees>
              <LongitudeDegrees>-1.69636367820203304290771484375</LongitudeDegrees>
            </Position>
            <AltitudeMeters>34.799999237060546875</AltitudeMeters>
            <DistanceMeters>NAN</DistanceMeters>
          </Trackpoint>
          <Trackpoint>
            <Time>2021-08-11T08:43:27.000Z</Time>
            <Position>
              <LatitudeDegrees>43.2755178026854991912841796875</LatitudeDegrees>
              <LongitudeDegrees>-1.69643525965511798858642578125</LongitudeDegrees>
            </Position>
            <AltitudeMeters>34.799999237060546875</AltitudeMeters>
            <DistanceMeters>NAN</DistanceMeters>
          </Trackpoint>
          <Trackpoint>
            <Time>2021-08-11T08:43:28.000Z</Time>
            <Position>
              <LatitudeDegrees>43.27548980712890625</LatitudeDegrees>
              <LongitudeDegrees>-1.6965148039162158966064453125</LongitudeDegrees>
            </Position>
            <AltitudeMeters>34.59999847412109375</AltitudeMeters>
            <DistanceMeters>NAN</DistanceMeters>
          </Trackpoint>
          <Trackpoint>
            <Time>2021-08-11T08:43:29.000Z</Time>
            <Position>
              <LatitudeDegrees>43.27547027729451656341552734375</LatitudeDegrees>
              <LongitudeDegrees>-1.69656098820269107818603515625</LongitudeDegrees>
            </Position>
            <AltitudeMeters>34.59999847412109375</AltitudeMeters>
            <DistanceMeters>NAN</DistanceMeters>
          </Trackpoint>
          <Trackpoint>
            <Time>2021-08-11T08:43:30.000Z</Time>
            <Position>
              <LatitudeDegrees>43.27544831670820713043212890625</LatitudeDegrees>
              <LongitudeDegrees>-1.6966234333813190460205078125</LongitudeDegrees>
            </Position>
            <AltitudeMeters>34.59999847412109375</AltitudeMeters>
            <DistanceMeters>NAN</DistanceMeters>
          </Trackpoint>
          <Trackpoint>
            <Time>2021-08-11T08:43:31.000Z</Time>
            <Position>
              <LatitudeDegrees>43.2754373364150524139404296875</LatitudeDegrees>
              <LongitudeDegrees>-1.69665771536529064178466796875</LongitudeDegrees>
            </Position>
            <AltitudeMeters>34.799999237060546875</AltitudeMeters>
            <DistanceMeters>NAN</DistanceMeters>
          </Trackpoint>
          <Trackpoint>
            <Time>2021-08-11T08:43:32.000Z</Time>
            <Position>
              <LatitudeDegrees>43.2754232548177242279052734375</LatitudeDegrees>
              <LongitudeDegrees>-1.69669627211987972259521484375</LongitudeDegrees>
            </Position>
            <AltitudeMeters>35.40000152587890625</AltitudeMeters>
            <DistanceMeters>NAN</DistanceMeters>
          </Trackpoint>
          <Trackpoint>
            <Time>2021-08-11T08:43:33.000Z</Time>
            <Position>
              <LatitudeDegrees>43.27540355734527111053466796875</LatitudeDegrees>
              <LongitudeDegrees>-1.69673751108348369598388671875</LongitudeDegrees>
            </Position>
            <AltitudeMeters>35.59999847412109375</AltitudeMeters>
            <DistanceMeters>NAN</DistanceMeters>
          </Trackpoint>
          <Trackpoint>
            <Time>2021-08-11T08:43:34.000Z</Time>
            <Position>
              <LatitudeDegrees>43.27538855373859405517578125</LatitudeDegrees>
              <LongitudeDegrees>-1.69677950441837310791015625</LongitudeDegrees>
            </Position>
            <AltitudeMeters>35.799999237060546875</AltitudeMeters>
            <DistanceMeters>NAN</DistanceMeters>
          </Trackpoint>
          <Trackpoint>
            <Time>2021-08-11T08:43:35.000Z</Time>
            <Position>
              <LatitudeDegrees>43.2753736339509487152099609375</LatitudeDegrees>
              <LongitudeDegrees>-1.69682133011519908905029296875</LongitudeDegrees>
            </Position>
            <AltitudeMeters>35.799999237060546875</AltitudeMeters>
            <DistanceMeters>NAN</DistanceMeters>
          </Trackpoint>
          <Trackpoint>
            <Time>2021-08-11T08:43:36.000Z</Time>
            <Position>
              <LatitudeDegrees>43.27536248601973056793212890625</LatitudeDegrees>
              <LongitudeDegrees>-1.69686038978397846221923828125</LongitudeDegrees>
            </Position>
            <AltitudeMeters>36.200000762939453125</AltitudeMeters>
            <DistanceMeters>NAN</DistanceMeters>
          </Trackpoint>
          <Trackpoint>
            <Time>2021-08-11T08:43:38.000Z</Time>
            <Position>
              <LatitudeDegrees>43.2753404416143894195556640625</LatitudeDegrees>
              <LongitudeDegrees>-1.6969598829746246337890625</LongitudeDegrees>
            </Position>
            <AltitudeMeters>37</AltitudeMeters>
            <DistanceMeters>NAN</DistanceMeters>
          </Trackpoint>
          <Trackpoint>
            <Time>2021-08-11T08:43:42.000Z</Time>
            <Position>
              <LatitudeDegrees>43.27529626898467540740966796875</LatitudeDegrees>
              <LongitudeDegrees>-1.69715903699398040771484375</LongitudeDegrees>
            </Position>
            <AltitudeMeters>37.799999237060546875</AltitudeMeters>
            <DistanceMeters>NAN</DistanceMeters>
          </Trackpoint>
          <Trackpoint>
            <Time>2021-08-11T08:43:43.000Z</Time>
            <Position>
              <LatitudeDegrees>43.27528000809252262115478515625</LatitudeDegrees>
              <LongitudeDegrees>-1.69721628539264202117919921875</LongitudeDegrees>
            </Position>
            <AltitudeMeters>37.799999237060546875</AltitudeMeters>
            <DistanceMeters>NAN</DistanceMeters>
          </Trackpoint>
          <Trackpoint>
            <Time>2021-08-11T08:43:45.000Z</Time>
            <Position>
              <LatitudeDegrees>43.27523910440504550933837890625</LatitudeDegrees>
              <LongitudeDegrees>-1.69733530841767787933349609375</LongitudeDegrees>
            </Position>
            <AltitudeMeters>38</AltitudeMeters>
            <DistanceMeters>NAN</DistanceMeters>
          </Trackpoint>
          <Trackpoint>
            <Time>2021-08-11T08:43:46.000Z</Time>
            <Position>
              <LatitudeDegrees>43.27522628009319305419921875</LatitudeDegrees>
              <LongitudeDegrees>-1.697377972304821014404296875</LongitudeDegrees>
            </Position>
            <AltitudeMeters>38</AltitudeMeters>
            <DistanceMeters>NAN</DistanceMeters>
          </Trackpoint>
          <Trackpoint>
            <Time>2021-08-11T08:43:47.000Z</Time>
            <Position>
              <LatitudeDegrees>43.27520926482975482940673828125</LatitudeDegrees>
              <LongitudeDegrees>-1.697430275380611419677734375</LongitudeDegrees>
            </Position>
            <AltitudeMeters>37.799999237060546875</AltitudeMeters>
            <DistanceMeters>NAN</DistanceMeters>
          </Trackpoint>
          <Trackpoint>
            <Time>2021-08-11T08:43:53.000Z</Time>
            <Position>
              <LatitudeDegrees>43.275097198784351348876953125</LatitudeDegrees>
              <LongitudeDegrees>-1.69776546768844127655029296875</LongitudeDegrees>
            </Position>
            <AltitudeMeters>37.799999237060546875</AltitudeMeters>
            <DistanceMeters>NAN</DistanceMeters>
          </Trackpoint>
          <Trackpoint>
            <Time>2021-08-11T08:43:54.000Z</Time>
            <Position>
              <LatitudeDegrees>43.27507800422608852386474609375</LatitudeDegrees>
              <LongitudeDegrees>-1.6978136636316776275634765625</LongitudeDegrees>
            </Position>
            <AltitudeMeters>37.59999847412109375</AltitudeMeters>
            <DistanceMeters>NAN</DistanceMeters>
          </Trackpoint>
          <Trackpoint>
            <Time>2021-08-11T08:43:56.000Z</Time>
            <Position>
              <LatitudeDegrees>43.2750413753092288970947265625</LatitudeDegrees>
              <LongitudeDegrees>-1.697904355823993682861328125</LongitudeDegrees>
            </Position>
            <AltitudeMeters>37.59999847412109375</AltitudeMeters>
            <DistanceMeters>NAN</DistanceMeters>
          </Trackpoint>
          <Trackpoint>
            <Time>2021-08-11T08:43:57.000Z</Time>
            <Position>
              <LatitudeDegrees>43.2750353403389453887939453125</LatitudeDegrees>
              <LongitudeDegrees>-1.6979568265378475189208984375</LongitudeDegrees>
            </Position>
            <AltitudeMeters>37.59999847412109375</AltitudeMeters>
            <DistanceMeters>NAN</DistanceMeters>
          </Trackpoint>
          <Trackpoint>
            <Time>2021-08-11T08:43:58.000Z</Time>
            <Position>
              <LatitudeDegrees>43.27502955682575702667236328125</LatitudeDegrees>
              <LongitudeDegrees>-1.6980195231735706329345703125</LongitudeDegrees>
            </Position>
            <AltitudeMeters>37.59999847412109375</AltitudeMeters>
            <DistanceMeters>NAN</DistanceMeters>
          </Trackpoint>
          <Trackpoint>
            <Time>2021-08-11T08:43:59.000Z</Time>
            <Position>
              <LatitudeDegrees>43.275023438036441802978515625</LatitudeDegrees>
              <LongitudeDegrees>-1.69806855730712413787841796875</LongitudeDegrees>
            </Position>
            <AltitudeMeters>37.40000152587890625</AltitudeMeters>
            <DistanceMeters>NAN</DistanceMeters>
          </Trackpoint>
          <Trackpoint>
            <Time>2021-08-11T08:44:00.000Z</Time>
            <Position>
              <LatitudeDegrees>43.27502352185547351837158203125</LatitudeDegrees>
              <LongitudeDegrees>-1.69811096973717212677001953125</LongitudeDegrees>
            </Position>
            <AltitudeMeters>37.40000152587890625</AltitudeMeters>
            <DistanceMeters>NAN</DistanceMeters>
          </Trackpoint>
          <Trackpoint>
            <Time>2021-08-11T08:44:01.000Z</Time>
            <Position>
              <LatitudeDegrees>43.27502838335931301116943359375</LatitudeDegrees>
              <LongitudeDegrees>-1.6981454193592071533203125</LongitudeDegrees>
            </Position>
            <AltitudeMeters>37.40000152587890625</AltitudeMeters>
            <DistanceMeters>NAN</DistanceMeters>
          </Trackpoint>
          <Trackpoint>
            <Time>2021-08-11T08:44:02.000Z</Time>
            <Position>
              <LatitudeDegrees>43.27501597814261913299560546875</LatitudeDegrees>
              <LongitudeDegrees>-1.69819847680628299713134765625</LongitudeDegrees>
            </Position>
            <AltitudeMeters>37.40000152587890625</AltitudeMeters>
            <DistanceMeters>NAN</DistanceMeters>
          </Trackpoint>
          <Trackpoint>
            <Time>2021-08-11T08:44:03.000Z</Time>
            <Position>
              <LatitudeDegrees>43.275024108588695526123046875</LatitudeDegrees>
              <LongitudeDegrees>-1.6982392966747283935546875</LongitudeDegrees>
            </Position>
            <AltitudeMeters>37.40000152587890625</AltitudeMeters>
            <DistanceMeters>NAN</DistanceMeters>
          </Trackpoint>
          <Trackpoint>
            <Time>2021-08-11T08:44:04.000Z</Time>
            <Position>
              <LatitudeDegrees>43.27501497231423854827880859375</LatitudeDegrees>
              <LongitudeDegrees>-1.698283888399600982666015625</LongitudeDegrees>
            </Position>
            <AltitudeMeters>37.40000152587890625</AltitudeMeters>
            <DistanceMeters>NAN</DistanceMeters>
          </Trackpoint>
          <Trackpoint>
            <Time>2021-08-11T08:44:05.000Z</Time>
            <Position>
              <LatitudeDegrees>43.2750095240771770477294921875</LatitudeDegrees>
              <LongitudeDegrees>-1.698328815400600433349609375</LongitudeDegrees>
            </Position>
            <AltitudeMeters>37.40000152587890625</AltitudeMeters>
            <DistanceMeters>NAN</DistanceMeters>
          </Trackpoint>
          <Trackpoint>
            <Time>2021-08-11T08:44:06.000Z</Time>
            <Position>
              <LatitudeDegrees>43.2750028185546398162841796875</LatitudeDegrees>
              <LongitudeDegrees>-1.69837416149675846099853515625</LongitudeDegrees>
            </Position>
            <AltitudeMeters>37.40000152587890625</AltitudeMeters>
            <DistanceMeters>NAN</DistanceMeters>
          </Trackpoint>
          <Trackpoint>
            <Time>2021-08-11T08:44:07.000Z</Time>
            <Position>
              <LatitudeDegrees>43.27499703504145145416259765625</LatitudeDegrees>
              <LongitudeDegrees>-1.6984216868877410888671875</LongitudeDegrees>
            </Position>
            <AltitudeMeters>37.40000152587890625</AltitudeMeters>
            <DistanceMeters>NAN</DistanceMeters>
          </Trackpoint>
          <Trackpoint>
            <Time>2021-08-11T08:44:08.000Z</Time>
            <Position>
              <LatitudeDegrees>43.2749977894127368927001953125</LatitudeDegrees>
              <LongitudeDegrees>-1.6984646022319793701171875</LongitudeDegrees>
            </Position>
            <AltitudeMeters>37.40000152587890625</AltitudeMeters>
            <DistanceMeters>NAN</DistanceMeters>
          </Trackpoint>
          <Trackpoint>
            <Time>2021-08-11T08:44:09.000Z</Time>
            <Position>
              <LatitudeDegrees>43.27500374056398868560791015625</LatitudeDegrees>
              <LongitudeDegrees>-1.69851330108940601348876953125</LongitudeDegrees>
            </Position>
            <AltitudeMeters>37.40000152587890625</AltitudeMeters>
            <DistanceMeters>NAN</DistanceMeters>
          </Trackpoint>
          <Trackpoint>
            <Time>2021-08-11T08:44:11.000Z</Time>
            <Position>
              <LatitudeDegrees>43.27498982660472393035888671875</LatitudeDegrees>
              <LongitudeDegrees>-1.6986350901424884796142578125</LongitudeDegrees>
            </Position>
            <AltitudeMeters>37.40000152587890625</AltitudeMeters>
            <DistanceMeters>NAN</DistanceMeters>
          </Trackpoint>
          <Trackpoint>
            <Time>2021-08-11T08:44:13.000Z</Time>
            <Position>
              <LatitudeDegrees>43.27498949132859706878662109375</LatitudeDegrees>
              <LongitudeDegrees>-1.69874154031276702880859375</LongitudeDegrees>
            </Position>
            <AltitudeMeters>37.40000152587890625</AltitudeMeters>
            <DistanceMeters>NAN</DistanceMeters>
          </Trackpoint>
          <Trackpoint>
            <Time>2021-08-11T08:44:15.000Z</Time>
            <Position>
              <LatitudeDegrees>43.27499301172792911529541015625</LatitudeDegrees>
              <LongitudeDegrees>-1.69882611371576786041259765625</LongitudeDegrees>
            </Position>
            <AltitudeMeters>37.40000152587890625</AltitudeMeters>
            <DistanceMeters>NAN</DistanceMeters>
          </Trackpoint>
          <Trackpoint>
            <Time>2021-08-11T08:44:16.000Z</Time>
            <Position>
              <LatitudeDegrees>43.27499871142208576202392578125</LatitudeDegrees>
              <LongitudeDegrees>-1.69887690804898738861083984375</LongitudeDegrees>
            </Position>
            <AltitudeMeters>37.200000762939453125</AltitudeMeters>
            <DistanceMeters>NAN</DistanceMeters>
          </Trackpoint>
          <Trackpoint>
            <Time>2021-08-11T08:44:21.000Z</Time>
            <Position>
              <LatitudeDegrees>43.274983875453472137451171875</LatitudeDegrees>
              <LongitudeDegrees>-1.6991673409938812255859375</LongitudeDegrees>
            </Position>
            <AltitudeMeters>37.200000762939453125</AltitudeMeters>
            <DistanceMeters>NAN</DistanceMeters>
          </Trackpoint>
          <Trackpoint>
            <Time>2021-08-11T08:44:22.000Z</Time>
            <Position>
              <LatitudeDegrees>43.27496719546616077423095703125</LatitudeDegrees>
              <LongitudeDegrees>-1.699207909405231475830078125</LongitudeDegrees>
            </Position>
            <AltitudeMeters>37.200000762939453125</AltitudeMeters>
            <DistanceMeters>NAN</DistanceMeters>
          </Trackpoint>
          <Trackpoint>
            <Time>2021-08-11T08:44:23.000Z</Time>
            <Position>
              <LatitudeDegrees>43.27497071586549282073974609375</LatitudeDegrees>
              <LongitudeDegrees>-1.69926247559487819671630859375</LongitudeDegrees>
            </Position>
            <AltitudeMeters>37.200000762939453125</AltitudeMeters>
            <DistanceMeters>NAN</DistanceMeters>
          </Trackpoint>
          <Trackpoint>
            <Time>2021-08-11T08:44:26.000Z</Time>
            <Position>
              <LatitudeDegrees>43.27496971003711223602294921875</LatitudeDegrees>
              <LongitudeDegrees>-1.6994006931781768798828125</LongitudeDegrees>
            </Position>
            <AltitudeMeters>37.200000762939453125</AltitudeMeters>
            <DistanceMeters>NAN</DistanceMeters>
          </Trackpoint>
          <Trackpoint>
            <Time>2021-08-11T08:44:27.000Z</Time>
            <Position>
              <LatitudeDegrees>43.27496903948485851287841796875</LatitudeDegrees>
              <LongitudeDegrees>-1.6994501464068889617919921875</LongitudeDegrees>
            </Position>
            <AltitudeMeters>37.200000762939453125</AltitudeMeters>
            <DistanceMeters>NAN</DistanceMeters>
          </Trackpoint>
          <Trackpoint>
            <Time>2021-08-11T08:44:29.000Z</Time>
            <Position>
              <LatitudeDegrees>43.274965099990367889404296875</LatitudeDegrees>
              <LongitudeDegrees>-1.69956028461456298828125</LongitudeDegrees>
            </Position>
            <AltitudeMeters>37.200000762939453125</AltitudeMeters>
            <DistanceMeters>NAN</DistanceMeters>
          </Trackpoint>
          <Trackpoint>
            <Time>2021-08-11T08:44:30.000Z</Time>
            <Position>
              <LatitudeDegrees>43.2749612443149089813232421875</LatitudeDegrees>
              <LongitudeDegrees>-1.699600853025913238525390625</LongitudeDegrees>
            </Position>
            <AltitudeMeters>37.200000762939453125</AltitudeMeters>
            <DistanceMeters>NAN</DistanceMeters>
          </Trackpoint>
          <Trackpoint>
            <Time>2021-08-11T08:44:36.000Z</Time>
            <Position>
              <LatitudeDegrees>43.2749364338815212249755859375</LatitudeDegrees>
              <LongitudeDegrees>-1.69991726987063884735107421875</LongitudeDegrees>
            </Position>
            <AltitudeMeters>37</AltitudeMeters>
            <DistanceMeters>NAN</DistanceMeters>
          </Trackpoint>
          <Trackpoint>
            <Time>2021-08-11T08:44:40.000Z</Time>
            <Position>
              <LatitudeDegrees>43.27495981939136981964111328125</LatitudeDegrees>
              <LongitudeDegrees>-1.70015900395810604095458984375</LongitudeDegrees>
            </Position>
            <AltitudeMeters>37.200000762939453125</AltitudeMeters>
            <DistanceMeters>NAN</DistanceMeters>
          </Trackpoint>
          <Trackpoint>
            <Time>2021-08-11T08:44:42.000Z</Time>
            <Position>
              <LatitudeDegrees>43.27497608028352260589599609375</LatitudeDegrees>
              <LongitudeDegrees>-1.70025908388197422027587890625</LongitudeDegrees>
            </Position>
            <AltitudeMeters>37.200000762939453125</AltitudeMeters>
            <DistanceMeters>NAN</DistanceMeters>
          </Trackpoint>
          <Trackpoint>
            <Time>2021-08-11T08:44:43.000Z</Time>
            <Position>
              <LatitudeDegrees>43.27499066479504108428955078125</LatitudeDegrees>
              <LongitudeDegrees>-1.70032060705125331878662109375</LongitudeDegrees>
            </Position>
            <AltitudeMeters>37.200000762939453125</AltitudeMeters>
            <DistanceMeters>NAN</DistanceMeters>
          </Trackpoint>
          <Trackpoint>
            <Time>2021-08-11T08:44:46.000Z</Time>
            <Position>
              <LatitudeDegrees>43.27500591985881328582763671875</LatitudeDegrees>
              <LongitudeDegrees>-1.7004787735641002655029296875</LongitudeDegrees>
            </Position>
            <AltitudeMeters>37.40000152587890625</AltitudeMeters>
            <DistanceMeters>NAN</DistanceMeters>
          </Trackpoint>
          <Trackpoint>
            <Time>2021-08-11T08:44:47.000Z</Time>
            <Position>
              <LatitudeDegrees>43.27504120767116546630859375</LatitudeDegrees>
              <LongitudeDegrees>-1.70053057372570037841796875</LongitudeDegrees>
            </Position>
            <AltitudeMeters>37.40000152587890625</AltitudeMeters>
            <DistanceMeters>NAN</DistanceMeters>
          </Trackpoint>
          <Trackpoint>
            <Time>2021-08-11T08:44:48.000Z</Time>
            <Position>
              <LatitudeDegrees>43.2750512659549713134765625</LatitudeDegrees>
              <LongitudeDegrees>-1.700597293674945831298828125</LongitudeDegrees>
            </Position>
            <AltitudeMeters>37.40000152587890625</AltitudeMeters>
            <DistanceMeters>NAN</DistanceMeters>
          </Trackpoint>
          <Trackpoint>
            <Time>2021-08-11T08:44:49.000Z</Time>
            <Position>
              <LatitudeDegrees>43.275138773024082183837890625</LatitudeDegrees>
              <LongitudeDegrees>-1.70065722428262233734130859375</LongitudeDegrees>
            </Position>
            <AltitudeMeters>37.40000152587890625</AltitudeMeters>
            <DistanceMeters>NAN</DistanceMeters>
          </Trackpoint>
          <Trackpoint>
            <Time>2021-08-11T08:44:50.000Z</Time>
            <Position>
              <LatitudeDegrees>43.27513282187283039093017578125</LatitudeDegrees>
              <LongitudeDegrees>-1.700705587863922119140625</LongitudeDegrees>
            </Position>
            <AltitudeMeters>37.40000152587890625</AltitudeMeters>
            <DistanceMeters>NAN</DistanceMeters>
          </Trackpoint>
          <Trackpoint>
            <Time>2021-08-11T08:44:52.000Z</Time>
            <Position>
              <LatitudeDegrees>43.27516970224678516387939453125</LatitudeDegrees>
              <LongitudeDegrees>-1.70084229670464992523193359375</LongitudeDegrees>
            </Position>
            <AltitudeMeters>37.40000152587890625</AltitudeMeters>
            <DistanceMeters>NAN</DistanceMeters>
          </Trackpoint>
          <Trackpoint>
            <Time>2021-08-11T08:44:53.000Z</Time>
            <Position>
              <LatitudeDegrees>43.27517556957900524139404296875</LatitudeDegrees>
              <LongitudeDegrees>-1.70088722370564937591552734375</LongitudeDegrees>
            </Position>
            <AltitudeMeters>37.59999847412109375</AltitudeMeters>
            <DistanceMeters>NAN</DistanceMeters>
          </Trackpoint>
          <Trackpoint>
            <Time>2021-08-11T08:44:54.000Z</Time>
            <Position>
              <LatitudeDegrees>43.27517054043710231781005859375</LatitudeDegrees>
              <LongitudeDegrees>-1.7009404487907886505126953125</LongitudeDegrees>
            </Position>
            <AltitudeMeters>37.59999847412109375</AltitudeMeters>
            <DistanceMeters>NAN</DistanceMeters>
          </Trackpoint>
          <Trackpoint>
            <Time>2021-08-11T08:44:55.000Z</Time>
            <Position>
              <LatitudeDegrees>43.27517841942608356475830078125</LatitudeDegrees>
              <LongitudeDegrees>-1.70099585317075252532958984375</LongitudeDegrees>
            </Position>
            <AltitudeMeters>37.59999847412109375</AltitudeMeters>
            <DistanceMeters>NAN</DistanceMeters>
          </Trackpoint>
          <Trackpoint>
            <Time>2021-08-11T08:44:56.000Z</Time>
            <Position>
              <LatitudeDegrees>43.27519166283309459686279296875</LatitudeDegrees>
              <LongitudeDegrees>-1.70105234719812870025634765625</LongitudeDegrees>
            </Position>
            <AltitudeMeters>37.59999847412109375</AltitudeMeters>
            <DistanceMeters>NAN</DistanceMeters>
          </Trackpoint>
          <Trackpoint>
            <Time>2021-08-11T08:44:57.000Z</Time>
            <Position>
              <LatitudeDegrees>43.27518361620604991912841796875</LatitudeDegrees>
              <LongitudeDegrees>-1.701120324432849884033203125</LongitudeDegrees>
            </Position>
            <AltitudeMeters>37.59999847412109375</AltitudeMeters>
            <DistanceMeters>NAN</DistanceMeters>
          </Trackpoint>
          <Trackpoint>
            <Time>2021-08-11T08:44:59.000Z</Time>
            <Position>
              <LatitudeDegrees>43.27516232617199420928955078125</LatitudeDegrees>
              <LongitudeDegrees>-1.70121990144252777099609375</LongitudeDegrees>
            </Position>
            <AltitudeMeters>37.59999847412109375</AltitudeMeters>
            <DistanceMeters>NAN</DistanceMeters>
          </Trackpoint>
          <Trackpoint>
            <Time>2021-08-11T08:45:00.000Z</Time>
            <Position>
              <LatitudeDegrees>43.275116980075836181640625</LatitudeDegrees>
              <LongitudeDegrees>-1.701282598078250885009765625</LongitudeDegrees>
            </Position>
            <AltitudeMeters>37.59999847412109375</AltitudeMeters>
            <DistanceMeters>NAN</DistanceMeters>
          </Trackpoint>
          <Trackpoint>
            <Time>2021-08-11T08:45:01.000Z</Time>
            <Position>
              <LatitudeDegrees>43.27506341971457004547119140625</LatitudeDegrees>
              <LongitudeDegrees>-1.70134504325687885284423828125</LongitudeDegrees>
            </Position>
            <AltitudeMeters>37.59999847412109375</AltitudeMeters>
            <DistanceMeters>NAN</DistanceMeters>
          </Trackpoint>
          <Trackpoint>
            <Time>2021-08-11T08:45:02.000Z</Time>
            <Position>
              <LatitudeDegrees>43.2750303111970424652099609375</LatitudeDegrees>
              <LongitudeDegrees>-1.70141545124351978302001953125</LongitudeDegrees>
            </Position>
            <AltitudeMeters>37.59999847412109375</AltitudeMeters>
            <DistanceMeters>NAN</DistanceMeters>
          </Trackpoint>
          <Trackpoint>
            <Time>2021-08-11T08:45:04.000Z</Time>
            <Position>
              <LatitudeDegrees>43.275004662573337554931640625</LatitudeDegrees>
              <LongitudeDegrees>-1.70153363607823848724365234375</LongitudeDegrees>
            </Position>
            <AltitudeMeters>37.799999237060546875</AltitudeMeters>
            <DistanceMeters>NAN</DistanceMeters>
          </Trackpoint>
          <Trackpoint>
            <Time>2021-08-11T08:45:06.000Z</Time>
            <Position>
              <LatitudeDegrees>43.27497088350355625152587890625</LatitudeDegrees>
              <LongitudeDegrees>-1.70164511539041996002197265625</LongitudeDegrees>
            </Position>
            <AltitudeMeters>37.799999237060546875</AltitudeMeters>
            <DistanceMeters>NAN</DistanceMeters>
          </Trackpoint>
          <Trackpoint>
            <Time>2021-08-11T08:45:08.000Z</Time>
            <Position>
              <LatitudeDegrees>43.27494909055531024932861328125</LatitudeDegrees>
              <LongitudeDegrees>-1.70175927691161632537841796875</LongitudeDegrees>
            </Position>
            <AltitudeMeters>37.799999237060546875</AltitudeMeters>
            <DistanceMeters>NAN</DistanceMeters>
          </Trackpoint>
          <Trackpoint>
            <Time>2021-08-11T08:45:11.000Z</Time>
            <Position>
              <LatitudeDegrees>43.2749102823436260223388671875</LatitudeDegrees>
              <LongitudeDegrees>-1.701936386525630950927734375</LongitudeDegrees>
            </Position>
            <AltitudeMeters>37.799999237060546875</AltitudeMeters>
            <DistanceMeters>NAN</DistanceMeters>
          </Trackpoint>
          <Trackpoint>
            <Time>2021-08-11T08:45:12.000Z</Time>
            <Position>
              <LatitudeDegrees>43.27490248717367649078369140625</LatitudeDegrees>
              <LongitudeDegrees>-1.70199505984783172607421875</LongitudeDegrees>
            </Position>
            <AltitudeMeters>37.799999237060546875</AltitudeMeters>
            <DistanceMeters>NAN</DistanceMeters>
          </Trackpoint>
          <Trackpoint>
            <Time>2021-08-11T08:45:13.000Z</Time>
            <Position>
              <LatitudeDegrees>43.274898715317249298095703125</LatitudeDegrees>
              <LongitudeDegrees>-1.70205499045550823211669921875</LongitudeDegrees>
            </Position>
            <AltitudeMeters>37.59999847412109375</AltitudeMeters>
            <DistanceMeters>NAN</DistanceMeters>
          </Trackpoint>
          <Trackpoint>
            <Time>2021-08-11T08:45:15.000Z</Time>
            <Position>
              <LatitudeDegrees>43.274871222674846649169921875</LatitudeDegrees>
              <LongitudeDegrees>-1.70217099599540233612060546875</LongitudeDegrees>
            </Position>
            <AltitudeMeters>37.59999847412109375</AltitudeMeters>
            <DistanceMeters>NAN</DistanceMeters>
          </Trackpoint>
          <Trackpoint>
            <Time>2021-08-11T08:45:16.000Z</Time>
            <Position>
              <LatitudeDegrees>43.2748353481292724609375</LatitudeDegrees>
              <LongitudeDegrees>-1.7022329382598400115966796875</LongitudeDegrees>
            </Position>
            <AltitudeMeters>37.59999847412109375</AltitudeMeters>
            <DistanceMeters>NAN</DistanceMeters>
          </Trackpoint>
          <Trackpoint>
            <Time>2021-08-11T08:45:17.000Z</Time>
            <Position>
              <LatitudeDegrees>43.274816572666168212890625</LatitudeDegrees>
              <LongitudeDegrees>-1.702295131981372833251953125</LongitudeDegrees>
            </Position>
            <AltitudeMeters>37.59999847412109375</AltitudeMeters>
            <DistanceMeters>NAN</DistanceMeters>
          </Trackpoint>
          <Trackpoint>
            <Time>2021-08-11T08:45:21.000Z</Time>
            <Position>
              <LatitudeDegrees>43.27476250939071178436279296875</LatitudeDegrees>
              <LongitudeDegrees>-1.70253016054630279541015625</LongitudeDegrees>
            </Position>
            <AltitudeMeters>37.59999847412109375</AltitudeMeters>
            <DistanceMeters>NAN</DistanceMeters>
          </Trackpoint>
          <Trackpoint>
            <Time>2021-08-11T08:45:22.000Z</Time>
            <Position>
              <LatitudeDegrees>43.27474993653595447540283203125</LatitudeDegrees>
              <LongitudeDegrees>-1.702577769756317138671875</LongitudeDegrees>
            </Position>
            <AltitudeMeters>37.59999847412109375</AltitudeMeters>
            <DistanceMeters>NAN</DistanceMeters>
          </Trackpoint>
          <Trackpoint>
            <Time>2021-08-11T08:45:23.000Z</Time>
            <Position>
              <LatitudeDegrees>43.27474373392760753631591796875</LatitudeDegrees>
              <LongitudeDegrees>-1.70261959545314311981201171875</LongitudeDegrees>
            </Position>
            <AltitudeMeters>37.59999847412109375</AltitudeMeters>
            <DistanceMeters>NAN</DistanceMeters>
          </Trackpoint>
          <Trackpoint>
            <Time>2021-08-11T08:45:24.000Z</Time>
            <Position>
              <LatitudeDegrees>43.27474188990890979766845703125</LatitudeDegrees>
              <LongitudeDegrees>-1.7026630975306034088134765625</LongitudeDegrees>
            </Position>
            <AltitudeMeters>37.59999847412109375</AltitudeMeters>
            <DistanceMeters>NAN</DistanceMeters>
          </Trackpoint>
          <Trackpoint>
            <Time>2021-08-11T08:45:25.000Z</Time>
            <Position>
              <LatitudeDegrees>43.27473954297602176666259765625</LatitudeDegrees>
              <LongitudeDegrees>-1.702712886035442352294921875</LongitudeDegrees>
            </Position>
            <AltitudeMeters>37.59999847412109375</AltitudeMeters>
            <DistanceMeters>NAN</DistanceMeters>
          </Trackpoint>
          <Trackpoint>
            <Time>2021-08-11T08:45:29.000Z</Time>
            <Position>
              <LatitudeDegrees>43.27473342418670654296875</LatitudeDegrees>
              <LongitudeDegrees>-1.70297549106180667877197265625</LongitudeDegrees>
            </Position>
            <AltitudeMeters>37.40000152587890625</AltitudeMeters>
            <DistanceMeters>NAN</DistanceMeters>
          </Trackpoint>
          <Trackpoint>
            <Time>2021-08-11T08:45:30.000Z</Time>
            <Position>
              <LatitudeDegrees>43.27472269535064697265625</LatitudeDegrees>
              <LongitudeDegrees>-1.70303517021238803863525390625</LongitudeDegrees>
            </Position>
            <AltitudeMeters>37.40000152587890625</AltitudeMeters>
            <DistanceMeters>NAN</DistanceMeters>
          </Trackpoint>
          <Trackpoint>
            <Time>2021-08-11T08:45:31.000Z</Time>
            <Position>
              <LatitudeDegrees>43.27471791766583919525146484375</LatitudeDegrees>
              <LongitudeDegrees>-1.703087724745273590087890625</LongitudeDegrees>
            </Position>
            <AltitudeMeters>37.40000152587890625</AltitudeMeters>
            <DistanceMeters>NAN</DistanceMeters>
          </Trackpoint>
          <Trackpoint>
            <Time>2021-08-11T08:45:32.000Z</Time>
            <Position>
              <LatitudeDegrees>43.2747117988765239715576171875</LatitudeDegrees>
              <LongitudeDegrees>-1.70314036309719085693359375</LongitudeDegrees>
            </Position>
            <AltitudeMeters>37.40000152587890625</AltitudeMeters>
            <DistanceMeters>NAN</DistanceMeters>
          </Trackpoint>
          <Trackpoint>
            <Time>2021-08-11T08:45:36.000Z</Time>
            <Position>
              <LatitudeDegrees>43.274688161909580230712890625</LatitudeDegrees>
              <LongitudeDegrees>-1.70335938222706317901611328125</LongitudeDegrees>
            </Position>
            <AltitudeMeters>37.40000152587890625</AltitudeMeters>
            <DistanceMeters>NAN</DistanceMeters>
          </Trackpoint>
          <Trackpoint>
            <Time>2021-08-11T08:45:39.000Z</Time>
            <Position>
              <LatitudeDegrees>43.274664022028446197509765625</LatitudeDegrees>
              <LongitudeDegrees>-1.7035366594791412353515625</LongitudeDegrees>
            </Position>
            <AltitudeMeters>37.40000152587890625</AltitudeMeters>
            <DistanceMeters>NAN</DistanceMeters>
          </Trackpoint>
          <Trackpoint>
            <Time>2021-08-11T08:45:43.000Z</Time>
            <Position>
              <LatitudeDegrees>43.274639546871185302734375</LatitudeDegrees>
              <LongitudeDegrees>-1.70375593006610870361328125</LongitudeDegrees>
            </Position>
            <AltitudeMeters>37.40000152587890625</AltitudeMeters>
            <DistanceMeters>NAN</DistanceMeters>
          </Trackpoint>
          <Trackpoint>
            <Time>2021-08-11T08:45:48.000Z</Time>
            <Position>
              <LatitudeDegrees>43.27460610307753086090087890625</LatitudeDegrees>
              <LongitudeDegrees>-1.7040638811886310577392578125</LongitudeDegrees>
            </Position>
            <AltitudeMeters>37.40000152587890625</AltitudeMeters>
            <DistanceMeters>NAN</DistanceMeters>
          </Trackpoint>
          <Trackpoint>
            <Time>2021-08-11T08:45:49.000Z</Time>
            <Position>
              <LatitudeDegrees>43.27459956519305706024169921875</LatitudeDegrees>
              <LongitudeDegrees>-1.7041285894811153411865234375</LongitudeDegrees>
            </Position>
            <AltitudeMeters>37.40000152587890625</AltitudeMeters>
            <DistanceMeters>NAN</DistanceMeters>
          </Trackpoint>
          <Trackpoint>
            <Time>2021-08-11T08:45:50.000Z</Time>
            <Position>
              <LatitudeDegrees>43.27458858489990234375</LatitudeDegrees>
              <LongitudeDegrees>-1.704181395471096038818359375</LongitudeDegrees>
            </Position>
            <AltitudeMeters>37.40000152587890625</AltitudeMeters>
            <DistanceMeters>NAN</DistanceMeters>
          </Trackpoint>
          <Trackpoint>
            <Time>2021-08-11T08:45:51.000Z</Time>
            <Position>
              <LatitudeDegrees>43.274579532444477081298828125</LatitudeDegrees>
              <LongitudeDegrees>-1.70423059724271297454833984375</LongitudeDegrees>
            </Position>
            <AltitudeMeters>37.40000152587890625</AltitudeMeters>
            <DistanceMeters>NAN</DistanceMeters>
          </Trackpoint>
          <Trackpoint>
            <Time>2021-08-11T08:45:55.000Z</Time>
            <Position>
              <LatitudeDegrees>43.27454960905015468597412109375</LatitudeDegrees>
              <LongitudeDegrees>-1.70445539988577365875244140625</LongitudeDegrees>
            </Position>
            <AltitudeMeters>37.40000152587890625</AltitudeMeters>
            <DistanceMeters>NAN</DistanceMeters>
          </Trackpoint>
          <Trackpoint>
            <Time>2021-08-11T08:45:56.000Z</Time>
            <Position>
              <LatitudeDegrees>43.27454240061342716217041015625</LatitudeDegrees>
              <LongitudeDegrees>-1.70450904406607151031494140625</LongitudeDegrees>
            </Position>
            <AltitudeMeters>37.40000152587890625</AltitudeMeters>
            <DistanceMeters>NAN</DistanceMeters>
          </Trackpoint>
          <Trackpoint>
            <Time>2021-08-11T08:45:57.000Z</Time>
            <Position>
              <LatitudeDegrees>43.27453770674765110015869140625</LatitudeDegrees>
              <LongitudeDegrees>-1.704562269151210784912109375</LongitudeDegrees>
            </Position>
            <AltitudeMeters>37.40000152587890625</AltitudeMeters>
            <DistanceMeters>NAN</DistanceMeters>
          </Trackpoint>
          <Trackpoint>
            <Time>2021-08-11T08:45:58.000Z</Time>
            <Position>
              <LatitudeDegrees>43.27453292906284332275390625</LatitudeDegrees>
              <LongitudeDegrees>-1.7046170867979526519775390625</LongitudeDegrees>
            </Position>
            <AltitudeMeters>37.40000152587890625</AltitudeMeters>
            <DistanceMeters>NAN</DistanceMeters>
          </Trackpoint>
          <Trackpoint>
            <Time>2021-08-11T08:45:59.000Z</Time>
            <Position>
              <LatitudeDegrees>43.27452580444514751434326171875</LatitudeDegrees>
              <LongitudeDegrees>-1.70466788113117218017578125</LongitudeDegrees>
            </Position>
            <AltitudeMeters>37.40000152587890625</AltitudeMeters>
            <DistanceMeters>NAN</DistanceMeters>
          </Trackpoint>
          <Trackpoint>
            <Time>2021-08-11T08:46:00.000Z</Time>
            <Position>
              <LatitudeDegrees>43.2745228707790374755859375</LatitudeDegrees>
              <LongitudeDegrees>-1.7047357745468616485595703125</LongitudeDegrees>
            </Position>
            <AltitudeMeters>37.40000152587890625</AltitudeMeters>
            <DistanceMeters>NAN</DistanceMeters>
          </Trackpoint>
          <Trackpoint>
            <Time>2021-08-11T08:46:01.000Z</Time>
            <Position>
              <LatitudeDegrees>43.2745260559022426605224609375</LatitudeDegrees>
              <LongitudeDegrees>-1.70478866435587406158447265625</LongitudeDegrees>
            </Position>
            <AltitudeMeters>37.200000762939453125</AltitudeMeters>
            <DistanceMeters>NAN</DistanceMeters>
          </Trackpoint>
          <Trackpoint>
            <Time>2021-08-11T08:46:06.000Z</Time>
            <Position>
              <LatitudeDegrees>43.27446847222745418548583984375</LatitudeDegrees>
              <LongitudeDegrees>-1.705100052058696746826171875</LongitudeDegrees>
            </Position>
            <AltitudeMeters>37.40000152587890625</AltitudeMeters>
            <DistanceMeters>NAN</DistanceMeters>
          </Trackpoint>
          <Trackpoint>
            <Time>2021-08-11T08:46:07.000Z</Time>
            <Position>
              <LatitudeDegrees>43.27444734983146190643310546875</LatitudeDegrees>
              <LongitudeDegrees>-1.7051567137241363525390625</LongitudeDegrees>
            </Position>
            <AltitudeMeters>37.40000152587890625</AltitudeMeters>
            <DistanceMeters>NAN</DistanceMeters>
          </Trackpoint>
          <Trackpoint>
            <Time>2021-08-11T08:46:08.000Z</Time>
            <Position>
              <LatitudeDegrees>43.27444047667086124420166015625</LatitudeDegrees>
              <LongitudeDegrees>-1.7052103579044342041015625</LongitudeDegrees>
            </Position>
            <AltitudeMeters>37.40000152587890625</AltitudeMeters>
            <DistanceMeters>NAN</DistanceMeters>
          </Trackpoint>
          <Trackpoint>
            <Time>2021-08-11T08:46:10.000Z</Time>
            <Position>
              <LatitudeDegrees>43.2744194380939006805419921875</LatitudeDegrees>
              <LongitudeDegrees>-1.70530281029641628265380859375</LongitudeDegrees>
            </Position>
            <AltitudeMeters>37.40000152587890625</AltitudeMeters>
            <DistanceMeters>NAN</DistanceMeters>
          </Trackpoint>
          <Trackpoint>
            <Time>2021-08-11T08:46:11.000Z</Time>
            <Position>
              <LatitudeDegrees>43.2743993215262889862060546875</LatitudeDegrees>
              <LongitudeDegrees>-1.70533784665167331695556640625</LongitudeDegrees>
            </Position>
            <AltitudeMeters>37.40000152587890625</AltitudeMeters>
            <DistanceMeters>NAN</DistanceMeters>
          </Trackpoint>
          <Trackpoint>
            <Time>2021-08-11T08:46:12.000Z</Time>
            <Position>
              <LatitudeDegrees>43.2743860781192779541015625</LatitudeDegrees>
              <LongitudeDegrees>-1.705375649034976959228515625</LongitudeDegrees>
            </Position>
            <AltitudeMeters>37.40000152587890625</AltitudeMeters>
            <DistanceMeters>NAN</DistanceMeters>
          </Trackpoint>
          <Trackpoint>
            <Time>2021-08-11T08:46:13.000Z</Time>
            <Position>
              <LatitudeDegrees>43.27437526546418666839599609375</LatitudeDegrees>
              <LongitudeDegrees>-1.7054195702075958251953125</LongitudeDegrees>
            </Position>
            <AltitudeMeters>37.59999847412109375</AltitudeMeters>
            <DistanceMeters>NAN</DistanceMeters>
          </Trackpoint>
          <Trackpoint>
            <Time>2021-08-11T08:46:14.000Z</Time>
            <Position>
              <LatitudeDegrees>43.274364955723285675048828125</LatitudeDegrees>
              <LongitudeDegrees>-1.70547530986368656158447265625</LongitudeDegrees>
            </Position>
            <AltitudeMeters>37.59999847412109375</AltitudeMeters>
            <DistanceMeters>NAN</DistanceMeters>
          </Trackpoint>
          <Trackpoint>
            <Time>2021-08-11T08:46:15.000Z</Time>
            <Position>
              <LatitudeDegrees>43.27434928156435489654541015625</LatitudeDegrees>
              <LongitudeDegrees>-1.7055162973701953887939453125</LongitudeDegrees>
            </Position>
            <AltitudeMeters>37.59999847412109375</AltitudeMeters>
            <DistanceMeters>NAN</DistanceMeters>
          </Trackpoint>
          <Trackpoint>
            <Time>2021-08-11T08:46:16.000Z</Time>
            <Position>
              <LatitudeDegrees>43.27433369122445583343505859375</LatitudeDegrees>
              <LongitudeDegrees>-1.7055598832666873931884765625</LongitudeDegrees>
            </Position>
            <AltitudeMeters>37.59999847412109375</AltitudeMeters>
            <DistanceMeters>NAN</DistanceMeters>
          </Trackpoint>
          <Trackpoint>
            <Time>2021-08-11T08:46:17.000Z</Time>
            <Position>
              <LatitudeDegrees>43.27432614751160144805908203125</LatitudeDegrees>
              <LongitudeDegrees>-1.7055987752974033355712890625</LongitudeDegrees>
            </Position>
            <AltitudeMeters>37.59999847412109375</AltitudeMeters>
            <DistanceMeters>NAN</DistanceMeters>
          </Trackpoint>
          <Trackpoint>
            <Time>2021-08-11T08:46:21.000Z</Time>
            <Position>
              <LatitudeDegrees>43.2742977328598499298095703125</LatitudeDegrees>
              <LongitudeDegrees>-1.7057888768613338470458984375</LongitudeDegrees>
            </Position>
            <AltitudeMeters>37.59999847412109375</AltitudeMeters>
            <DistanceMeters>NAN</DistanceMeters>
          </Trackpoint>
          <Trackpoint>
            <Time>2021-08-11T08:46:29.000Z</Time>
            <Position>
              <LatitudeDegrees>43.27429144643247127532958984375</LatitudeDegrees>
              <LongitudeDegrees>-1.70619674026966094970703125</LongitudeDegrees>
            </Position>
            <AltitudeMeters>37.59999847412109375</AltitudeMeters>
            <DistanceMeters>NAN</DistanceMeters>
          </Trackpoint>
          <Trackpoint>
            <Time>2021-08-11T08:46:30.000Z</Time>
            <Position>
              <LatitudeDegrees>43.274295218288898468017578125</LatitudeDegrees>
              <LongitudeDegrees>-1.7062549106776714324951171875</LongitudeDegrees>
            </Position>
            <AltitudeMeters>37.59999847412109375</AltitudeMeters>
            <DistanceMeters>NAN</DistanceMeters>
          </Trackpoint>
          <Trackpoint>
            <Time>2021-08-11T08:46:33.000Z</Time>
            <Position>
              <LatitudeDegrees>43.27431994490325450897216796875</LatitudeDegrees>
              <LongitudeDegrees>-1.706423051655292510986328125</LongitudeDegrees>
            </Position>
            <AltitudeMeters>37.59999847412109375</AltitudeMeters>
            <DistanceMeters>NAN</DistanceMeters>
          </Trackpoint>
          <Trackpoint>
            <Time>2021-08-11T08:46:34.000Z</Time>
            <Position>
              <LatitudeDegrees>43.27432371675968170166015625</LatitudeDegrees>
              <LongitudeDegrees>-1.7064771987497806549072265625</LongitudeDegrees>
            </Position>
            <AltitudeMeters>37.40000152587890625</AltitudeMeters>
            <DistanceMeters>NAN</DistanceMeters>
          </Trackpoint>
          <Trackpoint>
            <Time>2021-08-11T08:46:35.000Z</Time>
            <Position>
              <LatitudeDegrees>43.2743265666067600250244140625</LatitudeDegrees>
              <LongitudeDegrees>-1.7065278254449367523193359375</LongitudeDegrees>
            </Position>
            <AltitudeMeters>37.40000152587890625</AltitudeMeters>
            <DistanceMeters>NAN</DistanceMeters>
          </Trackpoint>
          <Trackpoint>
            <Time>2021-08-11T08:46:40.000Z</Time>
            <Position>
              <LatitudeDegrees>43.2743190228939056396484375</LatitudeDegrees>
              <LongitudeDegrees>-1.70677609741687774658203125</LongitudeDegrees>
            </Position>
            <AltitudeMeters>37.40000152587890625</AltitudeMeters>
            <DistanceMeters>NAN</DistanceMeters>
          </Trackpoint>
          <Trackpoint>
            <Time>2021-08-11T08:46:41.000Z</Time>
            <Position>
              <LatitudeDegrees>43.27430360019207000732421875</LatitudeDegrees>
              <LongitudeDegrees>-1.706815324723720550537109375</LongitudeDegrees>
            </Position>
            <AltitudeMeters>37.40000152587890625</AltitudeMeters>
            <DistanceMeters>NAN</DistanceMeters>
          </Trackpoint>
          <Trackpoint>
            <Time>2021-08-11T08:46:42.000Z</Time>
            <Position>
              <LatitudeDegrees>43.274297229945659637451171875</LatitudeDegrees>
              <LongitudeDegrees>-1.70685547403991222381591796875</LongitudeDegrees>
            </Position>
            <AltitudeMeters>37.40000152587890625</AltitudeMeters>
            <DistanceMeters>NAN</DistanceMeters>
          </Trackpoint>
          <Trackpoint>
            <Time>2021-08-11T08:46:43.000Z</Time>
            <Position>
              <LatitudeDegrees>43.27428256161510944366455078125</LatitudeDegrees>
              <LongitudeDegrees>-1.70689486898481845855712890625</LongitudeDegrees>
            </Position>
            <AltitudeMeters>37.40000152587890625</AltitudeMeters>
            <DistanceMeters>NAN</DistanceMeters>
          </Trackpoint>
          <Trackpoint>
            <Time>2021-08-11T08:46:44.000Z</Time>
            <Position>
              <LatitudeDegrees>43.2742695696651935577392578125</LatitudeDegrees>
              <LongitudeDegrees>-1.7069345153868198394775390625</LongitudeDegrees>
            </Position>
            <AltitudeMeters>37.40000152587890625</AltitudeMeters>
            <DistanceMeters>NAN</DistanceMeters>
          </Trackpoint>
          <Trackpoint>
            <Time>2021-08-11T08:46:45.000Z</Time>
            <Position>
              <LatitudeDegrees>43.27425825409591197967529296875</LatitudeDegrees>
              <LongitudeDegrees>-1.70698128640651702880859375</LongitudeDegrees>
            </Position>
            <AltitudeMeters>37.40000152587890625</AltitudeMeters>
            <DistanceMeters>NAN</DistanceMeters>
          </Trackpoint>
          <Trackpoint>
            <Time>2021-08-11T08:46:46.000Z</Time>
            <Position>
              <LatitudeDegrees>43.274250291287899017333984375</LatitudeDegrees>
              <LongitudeDegrees>-1.70702177099883556365966796875</LongitudeDegrees>
            </Position>
            <AltitudeMeters>37.40000152587890625</AltitudeMeters>
            <DistanceMeters>NAN</DistanceMeters>
          </Trackpoint>
          <Trackpoint>
            <Time>2021-08-11T08:46:47.000Z</Time>
            <Position>
              <LatitudeDegrees>43.27425121329724788665771484375</LatitudeDegrees>
              <LongitudeDegrees>-1.70706468634307384490966796875</LongitudeDegrees>
            </Position>
            <AltitudeMeters>37.40000152587890625</AltitudeMeters>
            <DistanceMeters>NAN</DistanceMeters>
          </Trackpoint>
          <Trackpoint>
            <Time>2021-08-11T08:46:48.000Z</Time>
            <Position>
              <LatitudeDegrees>43.2742491178214550018310546875</LatitudeDegrees>
              <LongitudeDegrees>-1.70710726641118526458740234375</LongitudeDegrees>
            </Position>
            <AltitudeMeters>37.40000152587890625</AltitudeMeters>
            <DistanceMeters>NAN</DistanceMeters>
          </Trackpoint>
          <Trackpoint>
            <Time>2021-08-11T08:46:52.000Z</Time>
            <Position>
              <LatitudeDegrees>43.27424517832696437835693359375</LatitudeDegrees>
              <LongitudeDegrees>-1.7073566280305385589599609375</LongitudeDegrees>
            </Position>
            <AltitudeMeters>37.59999847412109375</AltitudeMeters>
            <DistanceMeters>NAN</DistanceMeters>
          </Trackpoint>
          <Trackpoint>
            <Time>2021-08-11T08:46:57.000Z</Time>
            <Position>
              <LatitudeDegrees>43.2742518000304698944091796875</LatitudeDegrees>
              <LongitudeDegrees>-1.7075769044458866119384765625</LongitudeDegrees>
            </Position>
            <AltitudeMeters>37.799999237060546875</AltitudeMeters>
            <DistanceMeters>NAN</DistanceMeters>
          </Trackpoint>
          <Trackpoint>
            <Time>2021-08-11T08:47:01.000Z</Time>
            <Position>
              <LatitudeDegrees>43.27423679642379283905029296875</LatitudeDegrees>
              <LongitudeDegrees>-1.70775988139212131500244140625</LongitudeDegrees>
            </Position>
            <AltitudeMeters>38</AltitudeMeters>
            <DistanceMeters>NAN</DistanceMeters>
          </Trackpoint>
          <Trackpoint>
            <Time>2021-08-11T08:47:02.000Z</Time>
            <Position>
              <LatitudeDegrees>43.27422724105417728424072265625</LatitudeDegrees>
              <LongitudeDegrees>-1.7077908106148242950439453125</LongitudeDegrees>
            </Position>
            <AltitudeMeters>38</AltitudeMeters>
            <DistanceMeters>NAN</DistanceMeters>
          </Trackpoint>
          <Trackpoint>
            <Time>2021-08-11T08:47:03.000Z</Time>
            <Position>
              <LatitudeDegrees>43.2742179371416568756103515625</LatitudeDegrees>
              <LongitudeDegrees>-1.70782509259879589080810546875</LongitudeDegrees>
            </Position>
            <AltitudeMeters>38</AltitudeMeters>
            <DistanceMeters>NAN</DistanceMeters>
          </Trackpoint>
          <Trackpoint>
            <Time>2021-08-11T08:47:06.000Z</Time>
            <Position>
              <LatitudeDegrees>43.27420259825885295867919921875</LatitudeDegrees>
              <LongitudeDegrees>-1.70795358717441558837890625</LongitudeDegrees>
            </Position>
            <AltitudeMeters>38</AltitudeMeters>
            <DistanceMeters>NAN</DistanceMeters>
          </Trackpoint>
          <Trackpoint>
            <Time>2021-08-11T08:47:07.000Z</Time>
            <Position>
              <LatitudeDegrees>43.274203352630138397216796875</LatitudeDegrees>
              <LongitudeDegrees>-1.707989461719989776611328125</LongitudeDegrees>
            </Position>
            <AltitudeMeters>38</AltitudeMeters>
            <DistanceMeters>NAN</DistanceMeters>
          </Trackpoint>
          <Trackpoint>
            <Time>2021-08-11T08:47:08.000Z</Time>
            <Position>
              <LatitudeDegrees>43.274202011525630950927734375</LatitudeDegrees>
              <LongitudeDegrees>-1.70802466571331024169921875</LongitudeDegrees>
            </Position>
            <AltitudeMeters>38</AltitudeMeters>
            <DistanceMeters>NAN</DistanceMeters>
          </Trackpoint>
          <Trackpoint>
            <Time>2021-08-11T08:47:09.000Z</Time>
            <Position>
              <LatitudeDegrees>43.2742001675069332122802734375</LatitudeDegrees>
              <LongitudeDegrees>-1.70806162990629673004150390625</LongitudeDegrees>
            </Position>
            <AltitudeMeters>38</AltitudeMeters>
            <DistanceMeters>NAN</DistanceMeters>
          </Trackpoint>
          <Trackpoint>
            <Time>2021-08-11T08:47:10.000Z</Time>
            <Position>
              <LatitudeDegrees>43.27419891022145748138427734375</LatitudeDegrees>
              <LongitudeDegrees>-1.7081032879650592803955078125</LongitudeDegrees>
            </Position>
            <AltitudeMeters>38</AltitudeMeters>
            <DistanceMeters>NAN</DistanceMeters>
          </Trackpoint>
          <Trackpoint>
            <Time>2021-08-11T08:47:11.000Z</Time>
            <Position>
              <LatitudeDegrees>43.2741974852979183197021484375</LatitudeDegrees>
              <LongitudeDegrees>-1.708154417574405670166015625</LongitudeDegrees>
            </Position>
            <AltitudeMeters>38</AltitudeMeters>
            <DistanceMeters>NAN</DistanceMeters>
          </Trackpoint>
          <Trackpoint>
            <Time>2021-08-11T08:47:12.000Z</Time>
            <Position>
              <LatitudeDegrees>43.27419991604983806610107421875</LatitudeDegrees>
              <LongitudeDegrees>-1.70820646919310092926025390625</LongitudeDegrees>
            </Position>
            <AltitudeMeters>38</AltitudeMeters>
            <DistanceMeters>NAN</DistanceMeters>
          </Trackpoint>
          <Trackpoint>
            <Time>2021-08-11T08:47:13.000Z</Time>
            <Position>
              <LatitudeDegrees>43.27420460991561412811279296875</LatitudeDegrees>
              <LongitudeDegrees>-1.70825961045920848846435546875</LongitudeDegrees>
            </Position>
            <AltitudeMeters>38</AltitudeMeters>
            <DistanceMeters>NAN</DistanceMeters>
          </Trackpoint>
          <Trackpoint>
            <Time>2021-08-11T08:47:15.000Z</Time>
            <Position>
              <LatitudeDegrees>43.27420972287654876708984375</LatitudeDegrees>
              <LongitudeDegrees>-1.708366312086582183837890625</LongitudeDegrees>
            </Position>
            <AltitudeMeters>38</AltitudeMeters>
            <DistanceMeters>NAN</DistanceMeters>
          </Trackpoint>
          <Trackpoint>
            <Time>2021-08-11T08:47:22.000Z</Time>
            <Position>
              <LatitudeDegrees>43.2741549052298069000244140625</LatitudeDegrees>
              <LongitudeDegrees>-1.7087547294795513153076171875</LongitudeDegrees>
            </Position>
            <AltitudeMeters>37.799999237060546875</AltitudeMeters>
            <DistanceMeters>NAN</DistanceMeters>
          </Trackpoint>
          <Trackpoint>
            <Time>2021-08-11T08:47:27.000Z</Time>
            <Position>
              <LatitudeDegrees>43.274157755076885223388671875</LatitudeDegrees>
              <LongitudeDegrees>-1.70903451740741729736328125</LongitudeDegrees>
            </Position>
            <AltitudeMeters>37.59999847412109375</AltitudeMeters>
            <DistanceMeters>NAN</DistanceMeters>
          </Trackpoint>
          <Trackpoint>
            <Time>2021-08-11T08:47:32.000Z</Time>
            <Position>
              <LatitudeDegrees>43.27420846559107303619384765625</LatitudeDegrees>
              <LongitudeDegrees>-1.70933215878903865814208984375</LongitudeDegrees>
            </Position>
            <AltitudeMeters>37.40000152587890625</AltitudeMeters>
            <DistanceMeters>NAN</DistanceMeters>
          </Trackpoint>
          <Trackpoint>
            <Time>2021-08-11T08:47:35.000Z</Time>
            <Position>
              <LatitudeDegrees>43.27425825409591197967529296875</LatitudeDegrees>
              <LongitudeDegrees>-1.709472052752971649169921875</LongitudeDegrees>
            </Position>
            <AltitudeMeters>37.40000152587890625</AltitudeMeters>
            <DistanceMeters>NAN</DistanceMeters>
          </Trackpoint>
          <Trackpoint>
            <Time>2021-08-11T08:47:39.000Z</Time>
            <Position>
              <LatitudeDegrees>43.2743010856211185455322265625</LatitudeDegrees>
              <LongitudeDegrees>-1.70968922786414623260498046875</LongitudeDegrees>
            </Position>
            <AltitudeMeters>37.59999847412109375</AltitudeMeters>
            <DistanceMeters>NAN</DistanceMeters>
          </Trackpoint>
          <Trackpoint>
            <Time>2021-08-11T08:47:41.000Z</Time>
            <Position>
              <LatitudeDegrees>43.27437107451260089874267578125</LatitudeDegrees>
              <LongitudeDegrees>-1.7097977735102176666259765625</LongitudeDegrees>
            </Position>
            <AltitudeMeters>37.59999847412109375</AltitudeMeters>
            <DistanceMeters>NAN</DistanceMeters>
          </Trackpoint>
          <Trackpoint>
            <Time>2021-08-11T08:47:42.000Z</Time>
            <Position>
              <LatitudeDegrees>43.2743869163095951080322265625</LatitudeDegrees>
              <LongitudeDegrees>-1.709860302507877349853515625</LongitudeDegrees>
            </Position>
            <AltitudeMeters>37.59999847412109375</AltitudeMeters>
            <DistanceMeters>NAN</DistanceMeters>
          </Trackpoint>
          <Trackpoint>
            <Time>2021-08-11T08:47:44.000Z</Time>
            <Position>
              <LatitudeDegrees>43.27436939813196659088134765625</LatitudeDegrees>
              <LongitudeDegrees>-1.7099848575890064239501953125</LongitudeDegrees>
            </Position>
            <AltitudeMeters>37.59999847412109375</AltitudeMeters>
            <DistanceMeters>NAN</DistanceMeters>
          </Trackpoint>
          <Trackpoint>
            <Time>2021-08-11T08:47:45.000Z</Time>
            <Position>
              <LatitudeDegrees>43.2743805460631847381591796875</LatitudeDegrees>
              <LongitudeDegrees>-1.71004529111087322235107421875</LongitudeDegrees>
            </Position>
            <AltitudeMeters>37.59999847412109375</AltitudeMeters>
            <DistanceMeters>NAN</DistanceMeters>
          </Trackpoint>
          <Trackpoint>
            <Time>2021-08-11T08:47:46.000Z</Time>
            <Position>
              <LatitudeDegrees>43.27438465319573879241943359375</LatitudeDegrees>
              <LongitudeDegrees>-1.710098683834075927734375</LongitudeDegrees>
            </Position>
            <AltitudeMeters>37.59999847412109375</AltitudeMeters>
            <DistanceMeters>NAN</DistanceMeters>
          </Trackpoint>
          <Trackpoint>
            <Time>2021-08-11T08:47:47.000Z</Time>
            <Position>
              <LatitudeDegrees>43.27440409921109676361083984375</LatitudeDegrees>
              <LongitudeDegrees>-1.7101474665105342864990234375</LongitudeDegrees>
            </Position>
            <AltitudeMeters>37.59999847412109375</AltitudeMeters>
            <DistanceMeters>NAN</DistanceMeters>
          </Trackpoint>
          <Trackpoint>
            <Time>2021-08-11T08:47:48.000Z</Time>
            <Position>
              <LatitudeDegrees>43.27442052774131298065185546875</LatitudeDegrees>
              <LongitudeDegrees>-1.7101974226534366607666015625</LongitudeDegrees>
            </Position>
            <AltitudeMeters>37.59999847412109375</AltitudeMeters>
            <DistanceMeters>NAN</DistanceMeters>
          </Trackpoint>
          <Trackpoint>
            <Time>2021-08-11T08:47:49.000Z</Time>
            <Position>
              <LatitudeDegrees>43.2744365371763706207275390625</LatitudeDegrees>
              <LongitudeDegrees>-1.71024964191019535064697265625</LongitudeDegrees>
            </Position>
            <AltitudeMeters>37.59999847412109375</AltitudeMeters>
            <DistanceMeters>NAN</DistanceMeters>
          </Trackpoint>
          <Trackpoint>
            <Time>2021-08-11T08:47:52.000Z</Time>
            <Position>
              <LatitudeDegrees>43.27447526156902313232421875</LatitudeDegrees>
              <LongitudeDegrees>-1.71040889807045459747314453125</LongitudeDegrees>
            </Position>
            <AltitudeMeters>37.59999847412109375</AltitudeMeters>
            <DistanceMeters>NAN</DistanceMeters>
          </Trackpoint>
          <Trackpoint>
            <Time>2021-08-11T08:47:56.000Z</Time>
            <Position>
              <LatitudeDegrees>43.2745216973125934600830078125</LatitudeDegrees>
              <LongitudeDegrees>-1.710636131465435028076171875</LongitudeDegrees>
            </Position>
            <AltitudeMeters>39.40000152587890625</AltitudeMeters>
            <DistanceMeters>NAN</DistanceMeters>
          </Trackpoint>
          <Trackpoint>
            <Time>2021-08-11T08:47:58.000Z</Time>
            <Position>
              <LatitudeDegrees>43.27454323880374431610107421875</LatitudeDegrees>
              <LongitudeDegrees>-1.71074568293988704681396484375</LongitudeDegrees>
            </Position>
            <AltitudeMeters>37.40000152587890625</AltitudeMeters>
            <DistanceMeters>NAN</DistanceMeters>
          </Trackpoint>
          <Trackpoint>
            <Time>2021-08-11T08:48:00.000Z</Time>
            <Position>
              <LatitudeDegrees>43.27457257546484470367431640625</LatitudeDegrees>
              <LongitudeDegrees>-1.710847355425357818603515625</LongitudeDegrees>
            </Position>
            <AltitudeMeters>37.40000152587890625</AltitudeMeters>
            <DistanceMeters>NAN</DistanceMeters>
          </Trackpoint>
          <Trackpoint>
            <Time>2021-08-11T08:48:01.000Z</Time>
            <Position>
              <LatitudeDegrees>43.27458715997636318206787109375</LatitudeDegrees>
              <LongitudeDegrees>-1.7108939588069915771484375</LongitudeDegrees>
            </Position>
            <AltitudeMeters>37.40000152587890625</AltitudeMeters>
            <DistanceMeters>NAN</DistanceMeters>
          </Trackpoint>
          <Trackpoint>
            <Time>2021-08-11T08:48:02.000Z</Time>
            <Position>
              <LatitudeDegrees>43.27459269203245639801025390625</LatitudeDegrees>
              <LongitudeDegrees>-1.71094031073153018951416015625</LongitudeDegrees>
            </Position>
            <AltitudeMeters>37.200000762939453125</AltitudeMeters>
            <DistanceMeters>NAN</DistanceMeters>
          </Trackpoint>
          <Trackpoint>
            <Time>2021-08-11T08:48:03.000Z</Time>
            <Position>
              <LatitudeDegrees>43.2745971344411373138427734375</LatitudeDegrees>
              <LongitudeDegrees>-1.7109856568276882171630859375</LongitudeDegrees>
            </Position>
            <AltitudeMeters>37.200000762939453125</AltitudeMeters>
            <DistanceMeters>NAN</DistanceMeters>
          </Trackpoint>
          <Trackpoint>
            <Time>2021-08-11T08:48:04.000Z</Time>
            <Position>
              <LatitudeDegrees>43.27460937201976776123046875</LatitudeDegrees>
              <LongitudeDegrees>-1.71102563850581645965576171875</LongitudeDegrees>
            </Position>
            <AltitudeMeters>37.200000762939453125</AltitudeMeters>
            <DistanceMeters>NAN</DistanceMeters>
          </Trackpoint>
          <Trackpoint>
            <Time>2021-08-11T08:48:05.000Z</Time>
            <Position>
              <LatitudeDegrees>43.2746249623596668243408203125</LatitudeDegrees>
              <LongitudeDegrees>-1.71106318943202495574951171875</LongitudeDegrees>
            </Position>
            <AltitudeMeters>37.200000762939453125</AltitudeMeters>
            <DistanceMeters>NAN</DistanceMeters>
          </Trackpoint>
          <Trackpoint>
            <Time>2021-08-11T08:48:06.000Z</Time>
            <Position>
              <LatitudeDegrees>43.27464516274631023406982421875</LatitudeDegrees>
              <LongitudeDegrees>-1.7110996507108211517333984375</LongitudeDegrees>
            </Position>
            <AltitudeMeters>37.200000762939453125</AltitudeMeters>
            <DistanceMeters>NAN</DistanceMeters>
          </Trackpoint>
          <Trackpoint>
            <Time>2021-08-11T08:48:11.000Z</Time>
            <Position>
              <LatitudeDegrees>43.27477072365581989288330078125</LatitudeDegrees>
              <LongitudeDegrees>-1.71128354966640472412109375</LongitudeDegrees>
            </Position>
            <AltitudeMeters>37.200000762939453125</AltitudeMeters>
            <DistanceMeters>NAN</DistanceMeters>
          </Trackpoint>
          <Trackpoint>
            <Time>2021-08-11T08:48:12.000Z</Time>
            <Position>
              <LatitudeDegrees>43.27479486353695392608642578125</LatitudeDegrees>
              <LongitudeDegrees>-1.7113244533538818359375</LongitudeDegrees>
            </Position>
            <AltitudeMeters>37.200000762939453125</AltitudeMeters>
            <DistanceMeters>NAN</DistanceMeters>
          </Trackpoint>
          <Trackpoint>
            <Time>2021-08-11T08:48:15.000Z</Time>
            <Position>
              <LatitudeDegrees>43.27481816522777080535888671875</LatitudeDegrees>
              <LongitudeDegrees>-1.7114691250026226043701171875</LongitudeDegrees>
            </Position>
            <AltitudeMeters>37.40000152587890625</AltitudeMeters>
            <DistanceMeters>NAN</DistanceMeters>
          </Trackpoint>
          <Trackpoint>
            <Time>2021-08-11T08:48:16.000Z</Time>
            <Position>
              <LatitudeDegrees>43.27482755295932292938232421875</LatitudeDegrees>
              <LongitudeDegrees>-1.7115147225558757781982421875</LongitudeDegrees>
            </Position>
            <AltitudeMeters>37.40000152587890625</AltitudeMeters>
            <DistanceMeters>NAN</DistanceMeters>
          </Trackpoint>
          <Trackpoint>
            <Time>2021-08-11T08:48:18.000Z</Time>
            <Position>
              <LatitudeDegrees>43.27485739253461360931396484375</LatitudeDegrees>
              <LongitudeDegrees>-1.7115965299308300018310546875</LongitudeDegrees>
            </Position>
            <AltitudeMeters>37.40000152587890625</AltitudeMeters>
            <DistanceMeters>NAN</DistanceMeters>
          </Trackpoint>
          <Trackpoint>
            <Time>2021-08-11T08:48:19.000Z</Time>
            <Position>
              <LatitudeDegrees>43.2748777605593204498291015625</LatitudeDegrees>
              <LongitudeDegrees>-1.71163349412381649017333984375</LongitudeDegrees>
            </Position>
            <AltitudeMeters>37.40000152587890625</AltitudeMeters>
            <DistanceMeters>NAN</DistanceMeters>
          </Trackpoint>
          <Trackpoint>
            <Time>2021-08-11T08:48:20.000Z</Time>
            <Position>
              <LatitudeDegrees>43.27488739974796772003173828125</LatitudeDegrees>
              <LongitudeDegrees>-1.711675822734832763671875</LongitudeDegrees>
            </Position>
            <AltitudeMeters>37.40000152587890625</AltitudeMeters>
            <DistanceMeters>NAN</DistanceMeters>
          </Trackpoint>
          <Trackpoint>
            <Time>2021-08-11T08:48:21.000Z</Time>
            <Position>
              <LatitudeDegrees>43.27489729039371013641357421875</LatitudeDegrees>
              <LongitudeDegrees>-1.71171681024134159088134765625</LongitudeDegrees>
            </Position>
            <AltitudeMeters>37.40000152587890625</AltitudeMeters>
            <DistanceMeters>NAN</DistanceMeters>
          </Trackpoint>
          <Trackpoint>
            <Time>2021-08-11T08:48:22.000Z</Time>
            <Position>
              <LatitudeDegrees>43.27490533702075481414794921875</LatitudeDegrees>
              <LongitudeDegrees>-1.71175218187272548675537109375</LongitudeDegrees>
            </Position>
            <AltitudeMeters>37.40000152587890625</AltitudeMeters>
            <DistanceMeters>NAN</DistanceMeters>
          </Trackpoint>
          <Trackpoint>
            <Time>2021-08-11T08:48:23.000Z</Time>
            <Position>
              <LatitudeDegrees>43.27491112053394317626953125</LatitudeDegrees>
              <LongitudeDegrees>-1.71176970005035400390625</LongitudeDegrees>
            </Position>
            <AltitudeMeters>37.40000152587890625</AltitudeMeters>
            <DistanceMeters>NAN</DistanceMeters>
          </Trackpoint>
          <Trackpoint>
            <Time>2021-08-11T08:48:25.000Z</Time>
            <Position>
              <LatitudeDegrees>43.2749102823436260223388671875</LatitudeDegrees>
              <LongitudeDegrees>-1.71177313663065433502197265625</LongitudeDegrees>
            </Position>
            <AltitudeMeters>37.40000152587890625</AltitudeMeters>
            <DistanceMeters>NAN</DistanceMeters>
          </Trackpoint>
          <Trackpoint>
            <Time>2021-08-11T08:48:36.000Z</Time>
            <Position>
              <LatitudeDegrees>43.27491070143878459930419921875</LatitudeDegrees>
              <LongitudeDegrees>-1.71177783049643039703369140625</LongitudeDegrees>
            </Position>
            <AltitudeMeters>37.40000152587890625</AltitudeMeters>
            <DistanceMeters>NAN</DistanceMeters>
          </Trackpoint>
          <Trackpoint>
            <Time>2021-08-11T08:49:21.000Z</Time>
            <Position>
              <LatitudeDegrees>43.27491271309554576873779296875</LatitudeDegrees>
              <LongitudeDegrees>-1.7117802612483501434326171875</LongitudeDegrees>
            </Position>
            <AltitudeMeters>37.40000152587890625</AltitudeMeters>
            <DistanceMeters>NAN</DistanceMeters>
          </Trackpoint>
          <Trackpoint>
            <Time>2021-08-11T08:49:24.000Z</Time>
            <Position>
              <LatitudeDegrees>43.2749226875603199005126953125</LatitudeDegrees>
              <LongitudeDegrees>-1.71182803809642791748046875</LongitudeDegrees>
            </Position>
            <AltitudeMeters>37.40000152587890625</AltitudeMeters>
            <DistanceMeters>NAN</DistanceMeters>
          </Trackpoint>
          <Trackpoint>
            <Time>2021-08-11T08:49:25.000Z</Time>
            <Position>
              <LatitudeDegrees>43.2749267108738422393798828125</LatitudeDegrees>
              <LongitudeDegrees>-1.71183616854250431060791015625</LongitudeDegrees>
            </Position>
            <AltitudeMeters>37.40000152587890625</AltitudeMeters>
            <DistanceMeters>NAN</DistanceMeters>
          </Trackpoint>
          <Trackpoint>
            <Time>2021-08-11T08:49:30.000Z</Time>
            <Position>
              <LatitudeDegrees>43.2749267108738422393798828125</LatitudeDegrees>
              <LongitudeDegrees>-1.71183616854250431060791015625</LongitudeDegrees>
            </Position>
            <AltitudeMeters>37.59999847412109375</AltitudeMeters>
            <DistanceMeters>NAN</DistanceMeters>
          </Trackpoint>
          <Trackpoint>
            <Time>2021-08-11T08:50:48.000Z</Time>
            <Position>
              <LatitudeDegrees>43.27493651770055294036865234375</LatitudeDegrees>
              <LongitudeDegrees>-1.711848489940166473388671875</LongitudeDegrees>
            </Position>
            <AltitudeMeters>37.40000152587890625</AltitudeMeters>
            <DistanceMeters>NAN</DistanceMeters>
          </Trackpoint>
          <Trackpoint>
            <Time>2021-08-11T08:51:40.000Z</Time>
            <Position>
              <LatitudeDegrees>43.27493651770055294036865234375</LatitudeDegrees>
              <LongitudeDegrees>-1.71184857375919818878173828125</LongitudeDegrees>
            </Position>
            <AltitudeMeters>37.40000152587890625</AltitudeMeters>
            <DistanceMeters>NAN</DistanceMeters>
          </Trackpoint>
          <Trackpoint>
            <Time>2021-08-11T08:52:18.000Z</Time>
            <Position>
              <LatitudeDegrees>43.27493651770055294036865234375</LatitudeDegrees>
              <LongitudeDegrees>-1.71184857375919818878173828125</LongitudeDegrees>
            </Position>
            <AltitudeMeters>37.200000762939453125</AltitudeMeters>
            <DistanceMeters>NAN</DistanceMeters>
          </Trackpoint>
          <Trackpoint>
            <Time>2021-08-11T08:53:18.000Z</Time>
            <Position>
              <LatitudeDegrees>43.27496853657066822052001953125</LatitudeDegrees>
              <LongitudeDegrees>-1.7119556106626987457275390625</LongitudeDegrees>
            </Position>
            <AltitudeMeters>37.200000762939453125</AltitudeMeters>
            <DistanceMeters>NAN</DistanceMeters>
          </Trackpoint>
          <Trackpoint>
            <Time>2021-08-11T08:53:23.000Z</Time>
            <Position>
              <LatitudeDegrees>43.27506241388618946075439453125</LatitudeDegrees>
              <LongitudeDegrees>-1.712169013917446136474609375</LongitudeDegrees>
            </Position>
            <AltitudeMeters>37.200000762939453125</AltitudeMeters>
            <DistanceMeters>NAN</DistanceMeters>
          </Trackpoint>
          <Trackpoint>
            <Time>2021-08-11T08:53:24.000Z</Time>
            <Position>
              <LatitudeDegrees>43.27508102171123027801513671875</LatitudeDegrees>
              <LongitudeDegrees>-1.712202541530132293701171875</LongitudeDegrees>
            </Position>
            <AltitudeMeters>37.200000762939453125</AltitudeMeters>
            <DistanceMeters>NAN</DistanceMeters>
          </Trackpoint>
          <Trackpoint>
            <Time>2021-08-11T08:53:25.000Z</Time>
            <Position>
              <LatitudeDegrees>43.27509845606982707977294921875</LatitudeDegrees>
              <LongitudeDegrees>-1.71223648823797702789306640625</LongitudeDegrees>
            </Position>
            <AltitudeMeters>37.40000152587890625</AltitudeMeters>
            <DistanceMeters>NAN</DistanceMeters>
          </Trackpoint>
          <Trackpoint>
            <Time>2021-08-11T08:53:26.000Z</Time>
            <Position>
              <LatitudeDegrees>43.2751097716391086578369140625</LatitudeDegrees>
              <LongitudeDegrees>-1.7122618854045867919921875</LongitudeDegrees>
            </Position>
            <AltitudeMeters>37.40000152587890625</AltitudeMeters>
            <DistanceMeters>NAN</DistanceMeters>
          </Trackpoint>
          <Trackpoint>
            <Time>2021-08-11T08:53:27.000Z</Time>
            <Position>
              <LatitudeDegrees>43.27512033283710479736328125</LatitudeDegrees>
              <LongitudeDegrees>-1.71228325925767421722412109375</LongitudeDegrees>
            </Position>
            <AltitudeMeters>37.40000152587890625</AltitudeMeters>
            <DistanceMeters>NAN</DistanceMeters>
          </Trackpoint>
          <Trackpoint>
            <Time>2021-08-11T08:53:28.000Z</Time>
            <Position>
              <LatitudeDegrees>43.27513064257800579071044921875</LatitudeDegrees>
              <LongitudeDegrees>-1.71230681240558624267578125</LongitudeDegrees>
            </Position>
            <AltitudeMeters>37.40000152587890625</AltitudeMeters>
            <DistanceMeters>NAN</DistanceMeters>
          </Trackpoint>
          <Trackpoint>
            <Time>2021-08-11T08:53:29.000Z</Time>
            <Position>
              <LatitudeDegrees>43.27514556236565113067626953125</LatitudeDegrees>
              <LongitudeDegrees>-1.71233438886702060699462890625</LongitudeDegrees>
            </Position>
            <AltitudeMeters>37.40000152587890625</AltitudeMeters>
            <DistanceMeters>NAN</DistanceMeters>
          </Trackpoint>
          <Trackpoint>
            <Time>2021-08-11T08:53:32.000Z</Time>
            <Position>
              <LatitudeDegrees>43.2751939259469509124755859375</LatitudeDegrees>
              <LongitudeDegrees>-1.7124120891094207763671875</LongitudeDegrees>
            </Position>
            <AltitudeMeters>37.40000152587890625</AltitudeMeters>
            <DistanceMeters>NAN</DistanceMeters>
          </Trackpoint>
          <Trackpoint>
            <Time>2021-08-11T08:53:33.000Z</Time>
            <Position>
              <LatitudeDegrees>43.27521312050521373748779296875</LatitudeDegrees>
              <LongitudeDegrees>-1.71243933029472827911376953125</LongitudeDegrees>
            </Position>
            <AltitudeMeters>37.40000152587890625</AltitudeMeters>
            <DistanceMeters>NAN</DistanceMeters>
          </Trackpoint>
          <Trackpoint>
            <Time>2021-08-11T08:53:34.000Z</Time>
            <Position>
              <LatitudeDegrees>43.2752348296344280242919921875</LatitudeDegrees>
              <LongitudeDegrees>-1.71247034333646297454833984375</LongitudeDegrees>
            </Position>
            <AltitudeMeters>37.40000152587890625</AltitudeMeters>
            <DistanceMeters>NAN</DistanceMeters>
          </Trackpoint>
          <Trackpoint>
            <Time>2021-08-11T08:53:36.000Z</Time>
            <Position>
              <LatitudeDegrees>43.2752831093966960906982421875</LatitudeDegrees>
              <LongitudeDegrees>-1.7125413380563259124755859375</LongitudeDegrees>
            </Position>
            <AltitudeMeters>37.200000762939453125</AltitudeMeters>
            <DistanceMeters>NAN</DistanceMeters>
          </Trackpoint>
          <Trackpoint>
            <Time>2021-08-11T08:53:41.000Z</Time>
            <Position>
              <LatitudeDegrees>43.275447227060794830322265625</LatitudeDegrees>
              <LongitudeDegrees>-1.7127297632396221160888671875</LongitudeDegrees>
            </Position>
            <AltitudeMeters>37</AltitudeMeters>
            <DistanceMeters>NAN</DistanceMeters>
          </Trackpoint>
          <Trackpoint>
            <Time>2021-08-11T08:53:42.000Z</Time>
            <Position>
              <LatitudeDegrees>43.27547832392156124114990234375</LatitudeDegrees>
              <LongitudeDegrees>-1.7127622850239276885986328125</LongitudeDegrees>
            </Position>
            <AltitudeMeters>37</AltitudeMeters>
            <DistanceMeters>NAN</DistanceMeters>
          </Trackpoint>
          <Trackpoint>
            <Time>2021-08-11T08:53:43.000Z</Time>
            <Position>
              <LatitudeDegrees>43.27550816349685192108154296875</LatitudeDegrees>
              <LongitudeDegrees>-1.71279036439955234527587890625</LongitudeDegrees>
            </Position>
            <AltitudeMeters>37</AltitudeMeters>
            <DistanceMeters>NAN</DistanceMeters>
          </Trackpoint>
          <Trackpoint>
            <Time>2021-08-11T08:53:50.000Z</Time>
            <Position>
              <LatitudeDegrees>43.27575199306011199951171875</LatitudeDegrees>
              <LongitudeDegrees>-1.7129507102072238922119140625</LongitudeDegrees>
            </Position>
            <AltitudeMeters>37</AltitudeMeters>
            <DistanceMeters>NAN</DistanceMeters>
          </Trackpoint>
          <Trackpoint>
            <Time>2021-08-11T08:53:59.000Z</Time>
            <Position>
              <LatitudeDegrees>43.2761400751769542694091796875</LatitudeDegrees>
              <LongitudeDegrees>-1.7131040990352630615234375</LongitudeDegrees>
            </Position>
            <AltitudeMeters>36.59999847412109375</AltitudeMeters>
            <DistanceMeters>NAN</DistanceMeters>
          </Trackpoint>
          <Trackpoint>
            <Time>2021-08-11T08:54:04.000Z</Time>
            <Position>
              <LatitudeDegrees>43.2763479463756084442138671875</LatitudeDegrees>
              <LongitudeDegrees>-1.7131642811000347137451171875</LongitudeDegrees>
            </Position>
            <AltitudeMeters>36.40000152587890625</AltitudeMeters>
            <DistanceMeters>NAN</DistanceMeters>
          </Trackpoint>
          <Trackpoint>
            <Time>2021-08-11T08:54:05.000Z</Time>
            <Position>
              <LatitudeDegrees>43.2763875089585781097412109375</LatitudeDegrees>
              <LongitudeDegrees>-1.713174171745777130126953125</LongitudeDegrees>
            </Position>
            <AltitudeMeters>36.40000152587890625</AltitudeMeters>
            <DistanceMeters>NAN</DistanceMeters>
          </Trackpoint>
          <Trackpoint>
            <Time>2021-08-11T08:54:06.000Z</Time>
            <Position>
              <LatitudeDegrees>43.276426903903484344482421875</LatitudeDegrees>
              <LongitudeDegrees>-1.71318448148667812347412109375</LongitudeDegrees>
            </Position>
            <AltitudeMeters>36.40000152587890625</AltitudeMeters>
            <DistanceMeters>NAN</DistanceMeters>
          </Trackpoint>
          <Trackpoint>
            <Time>2021-08-11T08:54:07.000Z</Time>
            <Position>
              <LatitudeDegrees>43.27646520920097827911376953125</LatitudeDegrees>
              <LongitudeDegrees>-1.71319604851305484771728515625</LongitudeDegrees>
            </Position>
            <AltitudeMeters>36.40000152587890625</AltitudeMeters>
            <DistanceMeters>NAN</DistanceMeters>
          </Trackpoint>
          <Trackpoint>
            <Time>2021-08-11T08:54:08.000Z</Time>
            <Position>
              <LatitudeDegrees>43.276499994099140167236328125</LatitudeDegrees>
              <LongitudeDegrees>-1.71320895664393901824951171875</LongitudeDegrees>
            </Position>
            <AltitudeMeters>36.40000152587890625</AltitudeMeters>
            <DistanceMeters>NAN</DistanceMeters>
          </Trackpoint>
          <Trackpoint>
            <Time>2021-08-11T08:54:09.000Z</Time>
            <Position>
              <LatitudeDegrees>43.27653444372117519378662109375</LatitudeDegrees>
              <LongitudeDegrees>-1.71321608126163482666015625</LongitudeDegrees>
            </Position>
            <AltitudeMeters>36.40000152587890625</AltitudeMeters>
            <DistanceMeters>NAN</DistanceMeters>
          </Trackpoint>
          <Trackpoint>
            <Time>2021-08-11T08:54:10.000Z</Time>
            <Position>
              <LatitudeDegrees>43.276568390429019927978515625</LatitudeDegrees>
              <LongitudeDegrees>-1.7132259719073772430419921875</LongitudeDegrees>
            </Position>
            <AltitudeMeters>36.40000152587890625</AltitudeMeters>
            <DistanceMeters>NAN</DistanceMeters>
          </Trackpoint>
          <Trackpoint>
            <Time>2021-08-11T08:54:11.000Z</Time>
            <Position>
              <LatitudeDegrees>43.27660384587943553924560546875</LatitudeDegrees>
              <LongitudeDegrees>-1.7132353596389293670654296875</LongitudeDegrees>
            </Position>
            <AltitudeMeters>36.40000152587890625</AltitudeMeters>
            <DistanceMeters>NAN</DistanceMeters>
          </Trackpoint>
          <Trackpoint>
            <Time>2021-08-11T08:54:12.000Z</Time>
            <Position>
              <LatitudeDegrees>43.27664156444370746612548828125</LatitudeDegrees>
              <LongitudeDegrees>-1.713243909180164337158203125</LongitudeDegrees>
            </Position>
            <AltitudeMeters>36.40000152587890625</AltitudeMeters>
            <DistanceMeters>NAN</DistanceMeters>
          </Trackpoint>
          <Trackpoint>
            <Time>2021-08-11T08:54:13.000Z</Time>
            <Position>
              <LatitudeDegrees>43.27667878009378910064697265625</LatitudeDegrees>
              <LongitudeDegrees>-1.71325237490236759185791015625</LongitudeDegrees>
            </Position>
            <AltitudeMeters>36.40000152587890625</AltitudeMeters>
            <DistanceMeters>NAN</DistanceMeters>
          </Trackpoint>
          <Trackpoint>
            <Time>2021-08-11T08:54:14.000Z</Time>
            <Position>
              <LatitudeDegrees>43.27671398408710956573486328125</LatitudeDegrees>
              <LongitudeDegrees>-1.7132623493671417236328125</LongitudeDegrees>
            </Position>
            <AltitudeMeters>36.40000152587890625</AltitudeMeters>
            <DistanceMeters>NAN</DistanceMeters>
          </Trackpoint>
          <Trackpoint>
            <Time>2021-08-11T08:54:15.000Z</Time>
            <Position>
              <LatitudeDegrees>43.27674902044236660003662109375</LatitudeDegrees>
              <LongitudeDegrees>-1.71327400021255016326904296875</LongitudeDegrees>
            </Position>
            <AltitudeMeters>36.40000152587890625</AltitudeMeters>
            <DistanceMeters>NAN</DistanceMeters>
          </Trackpoint>
          <Trackpoint>
            <Time>2021-08-11T08:54:16.000Z</Time>
            <Position>
              <LatitudeDegrees>43.27678187750279903411865234375</LatitudeDegrees>
              <LongitudeDegrees>-1.71328305266797542572021484375</LongitudeDegrees>
            </Position>
            <AltitudeMeters>36.200000762939453125</AltitudeMeters>
            <DistanceMeters>NAN</DistanceMeters>
          </Trackpoint>
          <Trackpoint>
            <Time>2021-08-11T08:54:19.000Z</Time>
            <Position>
              <LatitudeDegrees>43.27689335681498050689697265625</LatitudeDegrees>
              <LongitudeDegrees>-1.7133268900215625762939453125</LongitudeDegrees>
            </Position>
            <AltitudeMeters>36.200000762939453125</AltitudeMeters>
            <DistanceMeters>NAN</DistanceMeters>
          </Trackpoint>
          <Trackpoint>
            <Time>2021-08-11T08:54:23.000Z</Time>
            <Position>
              <LatitudeDegrees>43.277036435902118682861328125</LatitudeDegrees>
              <LongitudeDegrees>-1.71334893442690372467041015625</LongitudeDegrees>
            </Position>
            <AltitudeMeters>36.200000762939453125</AltitudeMeters>
            <DistanceMeters>NAN</DistanceMeters>
          </Trackpoint>
          <Trackpoint>
            <Time>2021-08-11T08:54:24.000Z</Time>
            <Position>
              <LatitudeDegrees>43.27707029879093170166015625</LatitudeDegrees>
              <LongitudeDegrees>-1.71336494386196136474609375</LongitudeDegrees>
            </Position>
            <AltitudeMeters>36.200000762939453125</AltitudeMeters>
            <DistanceMeters>NAN</DistanceMeters>
          </Trackpoint>
          <Trackpoint>
            <Time>2021-08-11T08:54:25.000Z</Time>
            <Position>
              <LatitudeDegrees>43.277096450328826904296875</LatitudeDegrees>
              <LongitudeDegrees>-1.71338112093508243560791015625</LongitudeDegrees>
            </Position>
            <AltitudeMeters>36.200000762939453125</AltitudeMeters>
            <DistanceMeters>NAN</DistanceMeters>
          </Trackpoint>
          <Trackpoint>
            <Time>2021-08-11T08:54:26.000Z</Time>
            <Position>
              <LatitudeDegrees>43.27713341452181339263916015625</LatitudeDegrees>
              <LongitudeDegrees>-1.7133912630379199981689453125</LongitudeDegrees>
            </Position>
            <AltitudeMeters>36.200000762939453125</AltitudeMeters>
            <DistanceMeters>NAN</DistanceMeters>
          </Trackpoint>
          <Trackpoint>
            <Time>2021-08-11T08:54:28.000Z</Time>
            <Position>
              <LatitudeDegrees>43.2771988771855831146240234375</LatitudeDegrees>
              <LongitudeDegrees>-1.71341213397681713104248046875</LongitudeDegrees>
            </Position>
            <AltitudeMeters>36.200000762939453125</AltitudeMeters>
            <DistanceMeters>NAN</DistanceMeters>
          </Trackpoint>
          <Trackpoint>
            <Time>2021-08-11T08:54:29.000Z</Time>
            <Position>
              <LatitudeDegrees>43.27723131515085697174072265625</LatitudeDegrees>
              <LongitudeDegrees>-1.71341816894710063934326171875</LongitudeDegrees>
            </Position>
            <AltitudeMeters>36.200000762939453125</AltitudeMeters>
            <DistanceMeters>NAN</DistanceMeters>
          </Trackpoint>
          <Trackpoint>
            <Time>2021-08-11T08:54:30.000Z</Time>
            <Position>
              <LatitudeDegrees>43.27726341784000396728515625</LatitudeDegrees>
              <LongitudeDegrees>-1.71342118643224239349365234375</LongitudeDegrees>
            </Position>
            <AltitudeMeters>36.200000762939453125</AltitudeMeters>
            <DistanceMeters>NAN</DistanceMeters>
          </Trackpoint>
          <Trackpoint>
            <Time>2021-08-11T08:54:31.000Z</Time>
            <Position>
              <LatitudeDegrees>43.27729736454784870147705078125</LatitudeDegrees>
              <LongitudeDegrees>-1.71342889778316020965576171875</LongitudeDegrees>
            </Position>
            <AltitudeMeters>36.200000762939453125</AltitudeMeters>
            <DistanceMeters>NAN</DistanceMeters>
          </Trackpoint>
          <Trackpoint>
            <Time>2021-08-11T08:54:33.000Z</Time>
            <Position>
              <LatitudeDegrees>43.27737313695251941680908203125</LatitudeDegrees>
              <LongitudeDegrees>-1.71345672570168972015380859375</LongitudeDegrees>
            </Position>
            <AltitudeMeters>36.200000762939453125</AltitudeMeters>
            <DistanceMeters>NAN</DistanceMeters>
          </Trackpoint>
          <Trackpoint>
            <Time>2021-08-11T08:54:34.000Z</Time>
            <Position>
              <LatitudeDegrees>43.2774131186306476593017578125</LatitudeDegrees>
              <LongitudeDegrees>-1.71347030438482761383056640625</LongitudeDegrees>
            </Position>
            <AltitudeMeters>36</AltitudeMeters>
            <DistanceMeters>NAN</DistanceMeters>
          </Trackpoint>
          <Trackpoint>
            <Time>2021-08-11T08:54:35.000Z</Time>
            <Position>
              <LatitudeDegrees>43.27745427377521991729736328125</LatitudeDegrees>
              <LongitudeDegrees>-1.71347801573574542999267578125</LongitudeDegrees>
            </Position>
            <AltitudeMeters>36</AltitudeMeters>
            <DistanceMeters>NAN</DistanceMeters>
          </Trackpoint>
          <Trackpoint>
            <Time>2021-08-11T08:54:37.000Z</Time>
            <Position>
              <LatitudeDegrees>43.277536332607269287109375</LatitudeDegrees>
              <LongitudeDegrees>-1.713492684066295623779296875</LongitudeDegrees>
            </Position>
            <AltitudeMeters>36</AltitudeMeters>
            <DistanceMeters>NAN</DistanceMeters>
          </Trackpoint>
          <Trackpoint>
            <Time>2021-08-11T08:54:38.000Z</Time>
            <Position>
              <LatitudeDegrees>43.27757463790476322174072265625</LatitudeDegrees>
              <LongitudeDegrees>-1.7134983837604522705078125</LongitudeDegrees>
            </Position>
            <AltitudeMeters>36</AltitudeMeters>
            <DistanceMeters>NAN</DistanceMeters>
          </Trackpoint>
          <Trackpoint>
            <Time>2021-08-11T08:54:43.000Z</Time>
            <Position>
              <LatitudeDegrees>43.27777571976184844970703125</LatitudeDegrees>
              <LongitudeDegrees>-1.7135652713477611541748046875</LongitudeDegrees>
            </Position>
            <AltitudeMeters>35.799999237060546875</AltitudeMeters>
            <DistanceMeters>NAN</DistanceMeters>
          </Trackpoint>
          <Trackpoint>
            <Time>2021-08-11T08:54:44.000Z</Time>
            <Position>
              <LatitudeDegrees>43.2778144441545009613037109375</LatitudeDegrees>
              <LongitudeDegrees>-1.71357055194675922393798828125</LongitudeDegrees>
            </Position>
            <AltitudeMeters>35.59999847412109375</AltitudeMeters>
            <DistanceMeters>NAN</DistanceMeters>
          </Trackpoint>
          <Trackpoint>
            <Time>2021-08-11T08:54:45.000Z</Time>
            <Position>
              <LatitudeDegrees>43.2778503187000751495361328125</LatitudeDegrees>
              <LongitudeDegrees>-1.71357306651771068572998046875</LongitudeDegrees>
            </Position>
            <AltitudeMeters>35.59999847412109375</AltitudeMeters>
            <DistanceMeters>NAN</DistanceMeters>
          </Trackpoint>
          <Trackpoint>
            <Time>2021-08-11T08:54:46.000Z</Time>
            <Position>
              <LatitudeDegrees>43.27788275666534900665283203125</LatitudeDegrees>
              <LongitudeDegrees>-1.71357407234609127044677734375</LongitudeDegrees>
            </Position>
            <AltitudeMeters>35.59999847412109375</AltitudeMeters>
            <DistanceMeters>NAN</DistanceMeters>
          </Trackpoint>
          <Trackpoint>
            <Time>2021-08-11T08:54:47.000Z</Time>
            <Position>
              <LatitudeDegrees>43.277916200459003448486328125</LatitudeDegrees>
              <LongitudeDegrees>-1.71357356943190097808837890625</LongitudeDegrees>
            </Position>
            <AltitudeMeters>35.59999847412109375</AltitudeMeters>
            <DistanceMeters>NAN</DistanceMeters>
          </Trackpoint>
          <Trackpoint>
            <Time>2021-08-11T08:54:48.000Z</Time>
            <Position>
              <LatitudeDegrees>43.27794159762561321258544921875</LatitudeDegrees>
              <LongitudeDegrees>-1.7135763354599475860595703125</LongitudeDegrees>
            </Position>
            <AltitudeMeters>35.59999847412109375</AltitudeMeters>
            <DistanceMeters>NAN</DistanceMeters>
          </Trackpoint>
          <Trackpoint>
            <Time>2021-08-11T08:54:49.000Z</Time>
            <Position>
              <LatitudeDegrees>43.27798032201826572418212890625</LatitudeDegrees>
              <LongitudeDegrees>-1.71358480118215084075927734375</LongitudeDegrees>
            </Position>
            <AltitudeMeters>35.59999847412109375</AltitudeMeters>
            <DistanceMeters>NAN</DistanceMeters>
          </Trackpoint>
          <Trackpoint>
            <Time>2021-08-11T08:54:50.000Z</Time>
            <Position>
              <LatitudeDegrees>43.27801234088838100433349609375</LatitudeDegrees>
              <LongitudeDegrees>-1.71359083615243434906005859375</LongitudeDegrees>
            </Position>
            <AltitudeMeters>35.59999847412109375</AltitudeMeters>
            <DistanceMeters>NAN</DistanceMeters>
          </Trackpoint>
          <Trackpoint>
            <Time>2021-08-11T08:54:51.000Z</Time>
            <Position>
              <LatitudeDegrees>43.278040587902069091796875</LatitudeDegrees>
              <LongitudeDegrees>-1.7135934345424175262451171875</LongitudeDegrees>
            </Position>
            <AltitudeMeters>35.59999847412109375</AltitudeMeters>
            <DistanceMeters>NAN</DistanceMeters>
          </Trackpoint>
          <Trackpoint>
            <Time>2021-08-11T08:54:52.000Z</Time>
            <Position>
              <LatitudeDegrees>43.27807185240089893341064453125</LatitudeDegrees>
              <LongitudeDegrees>-1.71359519474208354949951171875</LongitudeDegrees>
            </Position>
            <AltitudeMeters>35.59999847412109375</AltitudeMeters>
            <DistanceMeters>NAN</DistanceMeters>
          </Trackpoint>
          <Trackpoint>
            <Time>2021-08-11T08:54:53.000Z</Time>
            <Position>
              <LatitudeDegrees>43.27809917740523815155029296875</LatitudeDegrees>
              <LongitudeDegrees>-1.7136041633784770965576171875</LongitudeDegrees>
            </Position>
            <AltitudeMeters>35.59999847412109375</AltitudeMeters>
            <DistanceMeters>NAN</DistanceMeters>
          </Trackpoint>
          <Trackpoint>
            <Time>2021-08-11T08:54:56.000Z</Time>
            <Position>
              <LatitudeDegrees>43.27820043079555034637451171875</LatitudeDegrees>
              <LongitudeDegrees>-1.713634170591831207275390625</LongitudeDegrees>
            </Position>
            <AltitudeMeters>35.799999237060546875</AltitudeMeters>
            <DistanceMeters>NAN</DistanceMeters>
          </Trackpoint>
          <Trackpoint>
            <Time>2021-08-11T08:54:57.000Z</Time>
            <Position>
              <LatitudeDegrees>43.2782298512756824493408203125</LatitudeDegrees>
              <LongitudeDegrees>-1.71363291330635547637939453125</LongitudeDegrees>
            </Position>
            <AltitudeMeters>35.799999237060546875</AltitudeMeters>
            <DistanceMeters>NAN</DistanceMeters>
          </Trackpoint>
          <Trackpoint>
            <Time>2021-08-11T08:54:59.000Z</Time>
            <Position>
              <LatitudeDegrees>43.278287015855312347412109375</LatitudeDegrees>
              <LongitudeDegrees>-1.7136383615434169769287109375</LongitudeDegrees>
            </Position>
            <AltitudeMeters>35.799999237060546875</AltitudeMeters>
            <DistanceMeters>NAN</DistanceMeters>
          </Trackpoint>
          <Trackpoint>
            <Time>2021-08-11T08:55:00.000Z</Time>
            <Position>
              <LatitudeDegrees>43.2783240638673305511474609375</LatitudeDegrees>
              <LongitudeDegrees>-1.7136393673717975616455078125</LongitudeDegrees>
            </Position>
            <AltitudeMeters>35.799999237060546875</AltitudeMeters>
            <DistanceMeters>NAN</DistanceMeters>
          </Trackpoint>
          <Trackpoint>
            <Time>2021-08-11T08:55:01.000Z</Time>
            <Position>
              <LatitudeDegrees>43.27835901640355587005615234375</LatitudeDegrees>
              <LongitudeDegrees>-1.71364012174308300018310546875</LongitudeDegrees>
            </Position>
            <AltitudeMeters>35.799999237060546875</AltitudeMeters>
            <DistanceMeters>NAN</DistanceMeters>
          </Trackpoint>
          <Trackpoint>
            <Time>2021-08-11T08:55:06.000Z</Time>
            <Position>
              <LatitudeDegrees>43.27856470830738544464111328125</LatitudeDegrees>
              <LongitudeDegrees>-1.7137030698359012603759765625</LongitudeDegrees>
            </Position>
            <AltitudeMeters>35.799999237060546875</AltitudeMeters>
            <DistanceMeters>NAN</DistanceMeters>
          </Trackpoint>
          <Trackpoint>
            <Time>2021-08-11T08:55:11.000Z</Time>
            <Position>
              <LatitudeDegrees>43.27875950373709201812744140625</LatitudeDegrees>
              <LongitudeDegrees>-1.71380206011235713958740234375</LongitudeDegrees>
            </Position>
            <AltitudeMeters>35.59999847412109375</AltitudeMeters>
            <DistanceMeters>NAN</DistanceMeters>
          </Trackpoint>
          <Trackpoint>
            <Time>2021-08-11T08:55:14.000Z</Time>
            <Position>
              <LatitudeDegrees>43.2788658700883388519287109375</LatitudeDegrees>
              <LongitudeDegrees>-1.71381999738514423370361328125</LongitudeDegrees>
            </Position>
            <AltitudeMeters>35.40000152587890625</AltitudeMeters>
            <DistanceMeters>NAN</DistanceMeters>
          </Trackpoint>
          <Trackpoint>
            <Time>2021-08-11T08:55:17.000Z</Time>
            <Position>
              <LatitudeDegrees>43.2789869047701358795166015625</LatitudeDegrees>
              <LongitudeDegrees>-1.71385738067328929901123046875</LongitudeDegrees>
            </Position>
            <AltitudeMeters>35.40000152587890625</AltitudeMeters>
            <DistanceMeters>NAN</DistanceMeters>
          </Trackpoint>
          <Trackpoint>
            <Time>2021-08-11T08:55:18.000Z</Time>
            <Position>
              <LatitudeDegrees>43.27902453951537609100341796875</LatitudeDegrees>
              <LongitudeDegrees>-1.7138750664889812469482421875</LongitudeDegrees>
            </Position>
            <AltitudeMeters>35.59999847412109375</AltitudeMeters>
            <DistanceMeters>NAN</DistanceMeters>
          </Trackpoint>
          <Trackpoint>
            <Time>2021-08-11T08:55:19.000Z</Time>
            <Position>
              <LatitudeDegrees>43.27905974350869655609130859375</LatitudeDegrees>
              <LongitudeDegrees>-1.71389359049499034881591796875</LongitudeDegrees>
            </Position>
            <AltitudeMeters>35.59999847412109375</AltitudeMeters>
            <DistanceMeters>NAN</DistanceMeters>
          </Trackpoint>
          <Trackpoint>
            <Time>2021-08-11T08:55:23.000Z</Time>
            <Position>
              <LatitudeDegrees>43.27921983785927295684814453125</LatitudeDegrees>
              <LongitudeDegrees>-1.71393214724957942962646484375</LongitudeDegrees>
            </Position>
            <AltitudeMeters>35.40000152587890625</AltitudeMeters>
            <DistanceMeters>NAN</DistanceMeters>
          </Trackpoint>
          <Trackpoint>
            <Time>2021-08-11T08:55:25.000Z</Time>
            <Position>
              <LatitudeDegrees>43.279287815093994140625</LatitudeDegrees>
              <LongitudeDegrees>-1.71396165154874324798583984375</LongitudeDegrees>
            </Position>
            <AltitudeMeters>35.40000152587890625</AltitudeMeters>
            <DistanceMeters>NAN</DistanceMeters>
          </Trackpoint>
          <Trackpoint>
            <Time>2021-08-11T08:55:27.000Z</Time>
            <Position>
              <LatitudeDegrees>43.27935243956744670867919921875</LatitudeDegrees>
              <LongitudeDegrees>-1.7139847017824649810791015625</LongitudeDegrees>
            </Position>
            <AltitudeMeters>35.40000152587890625</AltitudeMeters>
            <DistanceMeters>NAN</DistanceMeters>
          </Trackpoint>
          <Trackpoint>
            <Time>2021-08-11T08:55:28.000Z</Time>
            <Position>
              <LatitudeDegrees>43.27938772737979888916015625</LatitudeDegrees>
              <LongitudeDegrees>-1.71399769373238086700439453125</LongitudeDegrees>
            </Position>
            <AltitudeMeters>35.40000152587890625</AltitudeMeters>
            <DistanceMeters>NAN</DistanceMeters>
          </Trackpoint>
          <Trackpoint>
            <Time>2021-08-11T08:55:29.000Z</Time>
            <Position>
              <LatitudeDegrees>43.279423601925373077392578125</LatitudeDegrees>
              <LongitudeDegrees>-1.7140080034732818603515625</LongitudeDegrees>
            </Position>
            <AltitudeMeters>35.40000152587890625</AltitudeMeters>
            <DistanceMeters>NAN</DistanceMeters>
          </Trackpoint>
          <Trackpoint>
            <Time>2021-08-11T08:55:30.000Z</Time>
            <Position>
              <LatitudeDegrees>43.279459141194820404052734375</LatitudeDegrees>
              <LongitudeDegrees>-1.7140187323093414306640625</LongitudeDegrees>
            </Position>
            <AltitudeMeters>35.40000152587890625</AltitudeMeters>
            <DistanceMeters>NAN</DistanceMeters>
          </Trackpoint>
          <Trackpoint>
            <Time>2021-08-11T08:55:31.000Z</Time>
            <Position>
              <LatitudeDegrees>43.27949627302587032318115234375</LatitudeDegrees>
              <LongitudeDegrees>-1.71403021551668643951416015625</LongitudeDegrees>
            </Position>
            <AltitudeMeters>35.40000152587890625</AltitudeMeters>
            <DistanceMeters>NAN</DistanceMeters>
          </Trackpoint>
          <Trackpoint>
            <Time>2021-08-11T08:55:32.000Z</Time>
            <Position>
              <LatitudeDegrees>43.2795320637524127960205078125</LatitudeDegrees>
              <LongitudeDegrees>-1.71403951942920684814453125</LongitudeDegrees>
            </Position>
            <AltitudeMeters>35.40000152587890625</AltitudeMeters>
            <DistanceMeters>NAN</DistanceMeters>
          </Trackpoint>
          <Trackpoint>
            <Time>2021-08-11T08:55:33.000Z</Time>
            <Position>
              <LatitudeDegrees>43.27956651337444782257080078125</LatitudeDegrees>
              <LongitudeDegrees>-1.71404832042753696441650390625</LongitudeDegrees>
            </Position>
            <AltitudeMeters>35.40000152587890625</AltitudeMeters>
            <DistanceMeters>NAN</DistanceMeters>
          </Trackpoint>
          <Trackpoint>
            <Time>2021-08-11T08:55:34.000Z</Time>
            <Position>
              <LatitudeDegrees>43.27960171736776828765869140625</LatitudeDegrees>
              <LongitudeDegrees>-1.7140564508736133575439453125</LongitudeDegrees>
            </Position>
            <AltitudeMeters>35.40000152587890625</AltitudeMeters>
            <DistanceMeters>NAN</DistanceMeters>
          </Trackpoint>
          <Trackpoint>
            <Time>2021-08-11T08:55:35.000Z</Time>
            <Position>
              <LatitudeDegrees>43.27963792718946933746337890625</LatitudeDegrees>
              <LongitudeDegrees>-1.714063994586467742919921875</LongitudeDegrees>
            </Position>
            <AltitudeMeters>35.40000152587890625</AltitudeMeters>
            <DistanceMeters>NAN</DistanceMeters>
          </Trackpoint>
          <Trackpoint>
            <Time>2021-08-11T08:55:36.000Z</Time>
            <Position>
              <LatitudeDegrees>43.279673717916011810302734375</LatitudeDegrees>
              <LongitudeDegrees>-1.7140762321650981903076171875</LongitudeDegrees>
            </Position>
            <AltitudeMeters>35.40000152587890625</AltitudeMeters>
            <DistanceMeters>NAN</DistanceMeters>
          </Trackpoint>
          <Trackpoint>
            <Time>2021-08-11T08:55:37.000Z</Time>
            <Position>
              <LatitudeDegrees>43.2797080837190151214599609375</LatitudeDegrees>
              <LongitudeDegrees>-1.714094839990139007568359375</LongitudeDegrees>
            </Position>
            <AltitudeMeters>35.40000152587890625</AltitudeMeters>
            <DistanceMeters>NAN</DistanceMeters>
          </Trackpoint>
          <Trackpoint>
            <Time>2021-08-11T08:55:42.000Z</Time>
            <Position>
              <LatitudeDegrees>43.279897682368755340576171875</LatitudeDegrees>
              <LongitudeDegrees>-1.714137084782123565673828125</LongitudeDegrees>
            </Position>
            <AltitudeMeters>35.40000152587890625</AltitudeMeters>
            <DistanceMeters>NAN</DistanceMeters>
          </Trackpoint>
          <Trackpoint>
            <Time>2021-08-11T08:55:43.000Z</Time>
            <Position>
              <LatitudeDegrees>43.27992794103920459747314453125</LatitudeDegrees>
              <LongitudeDegrees>-1.71414655633270740509033203125</LongitudeDegrees>
            </Position>
            <AltitudeMeters>35.40000152587890625</AltitudeMeters>
            <DistanceMeters>NAN</DistanceMeters>
          </Trackpoint>
          <Trackpoint>
            <Time>2021-08-11T08:55:46.000Z</Time>
            <Position>
              <LatitudeDegrees>43.280041515827178955078125</LatitudeDegrees>
              <LongitudeDegrees>-1.714176647365093231201171875</LongitudeDegrees>
            </Position>
            <AltitudeMeters>35.40000152587890625</AltitudeMeters>
            <DistanceMeters>NAN</DistanceMeters>
          </Trackpoint>
          <Trackpoint>
            <Time>2021-08-11T08:55:47.000Z</Time>
            <Position>
              <LatitudeDegrees>43.28007437288761138916015625</LatitudeDegrees>
              <LongitudeDegrees>-1.71418343670666217803955078125</LongitudeDegrees>
            </Position>
            <AltitudeMeters>35.40000152587890625</AltitudeMeters>
            <DistanceMeters>NAN</DistanceMeters>
          </Trackpoint>
          <Trackpoint>
            <Time>2021-08-11T08:55:48.000Z</Time>
            <Position>
              <LatitudeDegrees>43.28011016361415386199951171875</LatitudeDegrees>
              <LongitudeDegrees>-1.7141888849437236785888671875</LongitudeDegrees>
            </Position>
            <AltitudeMeters>35.40000152587890625</AltitudeMeters>
            <DistanceMeters>NAN</DistanceMeters>
          </Trackpoint>
          <Trackpoint>
            <Time>2021-08-11T08:55:50.000Z</Time>
            <Position>
              <LatitudeDegrees>43.28018476255238056182861328125</LatitudeDegrees>
              <LongitudeDegrees>-1.7142130248248577117919921875</LongitudeDegrees>
            </Position>
            <AltitudeMeters>35.40000152587890625</AltitudeMeters>
            <DistanceMeters>NAN</DistanceMeters>
          </Trackpoint>
          <Trackpoint>
            <Time>2021-08-11T08:55:59.000Z</Time>
            <Position>
              <LatitudeDegrees>43.28051626682281494140625</LatitudeDegrees>
              <LongitudeDegrees>-1.714268513023853302001953125</LongitudeDegrees>
            </Position>
            <AltitudeMeters>34.799999237060546875</AltitudeMeters>
            <DistanceMeters>NAN</DistanceMeters>
          </Trackpoint>
          <Trackpoint>
            <Time>2021-08-11T08:56:00.000Z</Time>
            <Position>
              <LatitudeDegrees>43.28055071644484996795654296875</LatitudeDegrees>
              <LongitudeDegrees>-1.71426977030932903289794921875</LongitudeDegrees>
            </Position>
            <AltitudeMeters>34.799999237060546875</AltitudeMeters>
            <DistanceMeters>NAN</DistanceMeters>
          </Trackpoint>
          <Trackpoint>
            <Time>2021-08-11T08:56:01.000Z</Time>
            <Position>
              <LatitudeDegrees>43.2805811427533626556396484375</LatitudeDegrees>
              <LongitudeDegrees>-1.71427127905189990997314453125</LongitudeDegrees>
            </Position>
            <AltitudeMeters>34.799999237060546875</AltitudeMeters>
            <DistanceMeters>NAN</DistanceMeters>
          </Trackpoint>
          <Trackpoint>
            <Time>2021-08-11T08:56:02.000Z</Time>
            <Position>
              <LatitudeDegrees>43.2806193642318248748779296875</LatitudeDegrees>
              <LongitudeDegrees>-1.714273206889629364013671875</LongitudeDegrees>
            </Position>
            <AltitudeMeters>34.799999237060546875</AltitudeMeters>
            <DistanceMeters>NAN</DistanceMeters>
          </Trackpoint>
          <Trackpoint>
            <Time>2021-08-11T08:56:03.000Z</Time>
            <Position>
              <LatitudeDegrees>43.28066579997539520263671875</LatitudeDegrees>
              <LongitudeDegrees>-1.71427563764154911041259765625</LongitudeDegrees>
            </Position>
            <AltitudeMeters>34.799999237060546875</AltitudeMeters>
            <DistanceMeters>NAN</DistanceMeters>
          </Trackpoint>
          <Trackpoint>
            <Time>2021-08-11T08:56:06.000Z</Time>
            <Position>
              <LatitudeDegrees>43.280786164104938507080078125</LatitudeDegrees>
              <LongitudeDegrees>-1.71429407782852649688720703125</LongitudeDegrees>
            </Position>
            <AltitudeMeters>34.799999237060546875</AltitudeMeters>
            <DistanceMeters>NAN</DistanceMeters>
          </Trackpoint>
          <Trackpoint>
            <Time>2021-08-11T08:56:13.000Z</Time>
            <Position>
              <LatitudeDegrees>43.2810686342418193817138671875</LatitudeDegrees>
              <LongitudeDegrees>-1.71429960988461971282958984375</LongitudeDegrees>
            </Position>
            <AltitudeMeters>34.799999237060546875</AltitudeMeters>
            <DistanceMeters>NAN</DistanceMeters>
          </Trackpoint>
          <Trackpoint>
            <Time>2021-08-11T08:56:16.000Z</Time>
            <Position>
              <LatitudeDegrees>43.28118539415299892425537109375</LatitudeDegrees>
              <LongitudeDegrees>-1.7142924852669239044189453125</LongitudeDegrees>
            </Position>
            <AltitudeMeters>34.799999237060546875</AltitudeMeters>
            <DistanceMeters>NAN</DistanceMeters>
          </Trackpoint>
          <Trackpoint>
            <Time>2021-08-11T08:56:17.000Z</Time>
            <Position>
              <LatitudeDegrees>43.28122478909790515899658203125</LatitudeDegrees>
              <LongitudeDegrees>-1.7142914794385433197021484375</LongitudeDegrees>
            </Position>
            <AltitudeMeters>34.799999237060546875</AltitudeMeters>
            <DistanceMeters>NAN</DistanceMeters>
          </Trackpoint>
          <Trackpoint>
            <Time>2021-08-11T08:56:18.000Z</Time>
            <Position>
              <LatitudeDegrees>43.28126368112862110137939453125</LatitudeDegrees>
              <LongitudeDegrees>-1.7142881266772747039794921875</LongitudeDegrees>
            </Position>
            <AltitudeMeters>34.799999237060546875</AltitudeMeters>
            <DistanceMeters>NAN</DistanceMeters>
          </Trackpoint>
          <Trackpoint>
            <Time>2021-08-11T08:56:20.000Z</Time>
            <Position>
              <LatitudeDegrees>43.281342722475528717041015625</LatitudeDegrees>
              <LongitudeDegrees>-1.7142681777477264404296875</LongitudeDegrees>
            </Position>
            <AltitudeMeters>35</AltitudeMeters>
            <DistanceMeters>NAN</DistanceMeters>
          </Trackpoint>
          <Trackpoint>
            <Time>2021-08-11T08:56:21.000Z</Time>
            <Position>
              <LatitudeDegrees>43.28137432225048542022705078125</LatitudeDegrees>
              <LongitudeDegrees>-1.7142619751393795013427734375</LongitudeDegrees>
            </Position>
            <AltitudeMeters>35</AltitudeMeters>
            <DistanceMeters>NAN</DistanceMeters>
          </Trackpoint>
          <Trackpoint>
            <Time>2021-08-11T08:56:22.000Z</Time>
            <Position>
              <LatitudeDegrees>43.28142075799405574798583984375</LatitudeDegrees>
              <LongitudeDegrees>-1.71425954438745975494384765625</LongitudeDegrees>
            </Position>
            <AltitudeMeters>35</AltitudeMeters>
            <DistanceMeters>NAN</DistanceMeters>
          </Trackpoint>
          <Trackpoint>
            <Time>2021-08-11T08:56:25.000Z</Time>
            <Position>
              <LatitudeDegrees>43.2815346680581569671630859375</LatitudeDegrees>
              <LongitudeDegrees>-1.7142485640943050384521484375</LongitudeDegrees>
            </Position>
            <AltitudeMeters>35.200000762939453125</AltitudeMeters>
            <DistanceMeters>NAN</DistanceMeters>
          </Trackpoint>
          <Trackpoint>
            <Time>2021-08-11T08:56:30.000Z</Time>
            <Position>
              <LatitudeDegrees>43.281736671924591064453125</LatitudeDegrees>
              <LongitudeDegrees>-1.71421880833804607391357421875</LongitudeDegrees>
            </Position>
            <AltitudeMeters>35.200000762939453125</AltitudeMeters>
            <DistanceMeters>NAN</DistanceMeters>
          </Trackpoint>
          <Trackpoint>
            <Time>2021-08-11T08:56:35.000Z</Time>
            <Position>
              <LatitudeDegrees>43.28192182816565036773681640625</LatitudeDegrees>
              <LongitudeDegrees>-1.71418611891567707061767578125</LongitudeDegrees>
            </Position>
            <AltitudeMeters>35.40000152587890625</AltitudeMeters>
            <DistanceMeters>NAN</DistanceMeters>
          </Trackpoint>
          <Trackpoint>
            <Time>2021-08-11T08:56:36.000Z</Time>
            <Position>
              <LatitudeDegrees>43.28195971436798572540283203125</LatitudeDegrees>
              <LongitudeDegrees>-1.71417807228863239288330078125</LongitudeDegrees>
            </Position>
            <AltitudeMeters>35.40000152587890625</AltitudeMeters>
            <DistanceMeters>NAN</DistanceMeters>
          </Trackpoint>
          <Trackpoint>
            <Time>2021-08-11T08:56:37.000Z</Time>
            <Position>
              <LatitudeDegrees>43.28199944458901882171630859375</LatitudeDegrees>
              <LongitudeDegrees>-1.7141707800328731536865234375</LongitudeDegrees>
            </Position>
            <AltitudeMeters>35.40000152587890625</AltitudeMeters>
            <DistanceMeters>NAN</DistanceMeters>
          </Trackpoint>
          <Trackpoint>
            <Time>2021-08-11T08:56:38.000Z</Time>
            <Position>
              <LatitudeDegrees>43.28204303048551082611083984375</LatitudeDegrees>
              <LongitudeDegrees>-1.71416885219514369964599609375</LongitudeDegrees>
            </Position>
            <AltitudeMeters>35.200000762939453125</AltitudeMeters>
            <DistanceMeters>NAN</DistanceMeters>
          </Trackpoint>
          <Trackpoint>
            <Time>2021-08-11T08:56:39.000Z</Time>
            <Position>
              <LatitudeDegrees>43.282077647745609283447265625</LatitudeDegrees>
              <LongitudeDegrees>-1.7141640745103359222412109375</LongitudeDegrees>
            </Position>
            <AltitudeMeters>35.200000762939453125</AltitudeMeters>
            <DistanceMeters>NAN</DistanceMeters>
          </Trackpoint>
          <Trackpoint>
            <Time>2021-08-11T08:56:41.000Z</Time>
            <Position>
              <LatitudeDegrees>43.282155096530914306640625</LatitudeDegrees>
              <LongitudeDegrees>-1.71415342949330806732177734375</LongitudeDegrees>
            </Position>
            <AltitudeMeters>35.40000152587890625</AltitudeMeters>
            <DistanceMeters>NAN</DistanceMeters>
          </Trackpoint>
          <Trackpoint>
            <Time>2021-08-11T08:56:46.000Z</Time>
            <Position>
              <LatitudeDegrees>43.28234410844743251800537109375</LatitudeDegrees>
              <LongitudeDegrees>-1.71415544115006923675537109375</LongitudeDegrees>
            </Position>
            <AltitudeMeters>35.40000152587890625</AltitudeMeters>
            <DistanceMeters>NAN</DistanceMeters>
          </Trackpoint>
          <Trackpoint>
            <Time>2021-08-11T08:56:47.000Z</Time>
            <Position>
              <LatitudeDegrees>43.28238199464976787567138671875</LatitudeDegrees>
              <LongitudeDegrees>-1.71415929682552814483642578125</LongitudeDegrees>
            </Position>
            <AltitudeMeters>35.40000152587890625</AltitudeMeters>
            <DistanceMeters>NAN</DistanceMeters>
          </Trackpoint>
          <Trackpoint>
            <Time>2021-08-11T08:56:48.000Z</Time>
            <Position>
              <LatitudeDegrees>43.28242759220302104949951171875</LatitudeDegrees>
              <LongitudeDegrees>-1.71415862627327442169189453125</LongitudeDegrees>
            </Position>
            <AltitudeMeters>35.40000152587890625</AltitudeMeters>
            <DistanceMeters>NAN</DistanceMeters>
          </Trackpoint>
          <Trackpoint>
            <Time>2021-08-11T08:56:49.000Z</Time>
            <Position>
              <LatitudeDegrees>43.2824563421308994293212890625</LatitudeDegrees>
              <LongitudeDegrees>-1.71415996737778186798095703125</LongitudeDegrees>
            </Position>
            <AltitudeMeters>35.40000152587890625</AltitudeMeters>
            <DistanceMeters>NAN</DistanceMeters>
          </Trackpoint>
          <Trackpoint>
            <Time>2021-08-11T08:56:50.000Z</Time>
            <Position>
              <LatitudeDegrees>43.2824885286390781402587890625</LatitudeDegrees>
              <LongitudeDegrees>-1.71416013501584529876708984375</LongitudeDegrees>
            </Position>
            <AltitudeMeters>35.40000152587890625</AltitudeMeters>
            <DistanceMeters>NAN</DistanceMeters>
          </Trackpoint>
          <Trackpoint>
            <Time>2021-08-11T08:56:53.000Z</Time>
            <Position>
              <LatitudeDegrees>43.28258232213556766510009765625</LatitudeDegrees>
              <LongitudeDegrees>-1.71413834206759929656982421875</LongitudeDegrees>
            </Position>
            <AltitudeMeters>35.59999847412109375</AltitudeMeters>
            <DistanceMeters>NAN</DistanceMeters>
          </Trackpoint>
          <Trackpoint>
            <Time>2021-08-11T08:56:54.000Z</Time>
            <Position>
              <LatitudeDegrees>43.28261769376695156097412109375</LatitudeDegrees>
              <LongitudeDegrees>-1.71413415111601352691650390625</LongitudeDegrees>
            </Position>
            <AltitudeMeters>35.59999847412109375</AltitudeMeters>
            <DistanceMeters>NAN</DistanceMeters>
          </Trackpoint>
          <Trackpoint>
            <Time>2021-08-11T08:56:55.000Z</Time>
            <Position>
              <LatitudeDegrees>43.28265474177896976470947265625</LatitudeDegrees>
              <LongitudeDegrees>-1.7141302116215229034423828125</LongitudeDegrees>
            </Position>
            <AltitudeMeters>35.59999847412109375</AltitudeMeters>
            <DistanceMeters>NAN</DistanceMeters>
          </Trackpoint>
          <Trackpoint>
            <Time>2021-08-11T08:56:56.000Z</Time>
            <Position>
              <LatitudeDegrees>43.2826901972293853759765625</LatitudeDegrees>
              <LongitudeDegrees>-1.714117638766765594482421875</LongitudeDegrees>
            </Position>
            <AltitudeMeters>35.59999847412109375</AltitudeMeters>
            <DistanceMeters>NAN</DistanceMeters>
          </Trackpoint>
          <Trackpoint>
            <Time>2021-08-11T08:56:58.000Z</Time>
            <Position>
              <LatitudeDegrees>43.28276487998664379119873046875</LatitudeDegrees>
              <LongitudeDegrees>-1.71408821828663349151611328125</LongitudeDegrees>
            </Position>
            <AltitudeMeters>35.799999237060546875</AltitudeMeters>
            <DistanceMeters>NAN</DistanceMeters>
          </Trackpoint>
          <Trackpoint>
            <Time>2021-08-11T08:57:03.000Z</Time>
            <Position>
              <LatitudeDegrees>43.28293939121067523956298828125</LatitudeDegrees>
              <LongitudeDegrees>-1.7139816842973232269287109375</LongitudeDegrees>
            </Position>
            <AltitudeMeters>35.59999847412109375</AltitudeMeters>
            <DistanceMeters>NAN</DistanceMeters>
          </Trackpoint>
          <Trackpoint>
            <Time>2021-08-11T08:57:05.000Z</Time>
            <Position>
              <LatitudeDegrees>43.28300443477928638458251953125</LatitudeDegrees>
              <LongitudeDegrees>-1.7139451391994953155517578125</LongitudeDegrees>
            </Position>
            <AltitudeMeters>35.799999237060546875</AltitudeMeters>
            <DistanceMeters>NAN</DistanceMeters>
          </Trackpoint>
          <Trackpoint>
            <Time>2021-08-11T08:57:10.000Z</Time>
            <Position>
              <LatitudeDegrees>43.2831676304340362548828125</LatitudeDegrees>
              <LongitudeDegrees>-1.713850758969783782958984375</LongitudeDegrees>
            </Position>
            <AltitudeMeters>35.59999847412109375</AltitudeMeters>
            <DistanceMeters>NAN</DistanceMeters>
          </Trackpoint>
          <Trackpoint>
            <Time>2021-08-11T08:57:17.000Z</Time>
            <Position>
              <LatitudeDegrees>43.28345772810280323028564453125</LatitudeDegrees>
              <LongitudeDegrees>-1.7137168161571025848388671875</LongitudeDegrees>
            </Position>
            <AltitudeMeters>35.59999847412109375</AltitudeMeters>
            <DistanceMeters>NAN</DistanceMeters>
          </Trackpoint>
          <Trackpoint>
            <Time>2021-08-11T08:57:20.000Z</Time>
            <Position>
              <LatitudeDegrees>43.2835821993649005889892578125</LatitudeDegrees>
              <LongitudeDegrees>-1.713626794517040252685546875</LongitudeDegrees>
            </Position>
            <AltitudeMeters>35.59999847412109375</AltitudeMeters>
            <DistanceMeters>NAN</DistanceMeters>
          </Trackpoint>
          <Trackpoint>
            <Time>2021-08-11T08:57:21.000Z</Time>
            <Position>
              <LatitudeDegrees>43.28362352214753627777099609375</LatitudeDegrees>
              <LongitudeDegrees>-1.7136118747293949127197265625</LongitudeDegrees>
            </Position>
            <AltitudeMeters>35.59999847412109375</AltitudeMeters>
            <DistanceMeters>NAN</DistanceMeters>
          </Trackpoint>
          <Trackpoint>
            <Time>2021-08-11T08:57:22.000Z</Time>
            <Position>
              <LatitudeDegrees>43.2836638391017913818359375</LatitudeDegrees>
              <LongitudeDegrees>-1.71360961161553859710693359375</LongitudeDegrees>
            </Position>
            <AltitudeMeters>35.59999847412109375</AltitudeMeters>
            <DistanceMeters>NAN</DistanceMeters>
          </Trackpoint>
          <Trackpoint>
            <Time>2021-08-11T08:57:23.000Z</Time>
            <Position>
              <LatitudeDegrees>43.28369728289544582366943359375</LatitudeDegrees>
              <LongitudeDegrees>-1.71361028216779232025146484375</LongitudeDegrees>
            </Position>
            <AltitudeMeters>35.59999847412109375</AltitudeMeters>
            <DistanceMeters>NAN</DistanceMeters>
          </Trackpoint>
          <Trackpoint>
            <Time>2021-08-11T08:57:24.000Z</Time>
            <Position>
              <LatitudeDegrees>43.28373801894485950469970703125</LatitudeDegrees>
              <LongitudeDegrees>-1.7135951109230518341064453125</LongitudeDegrees>
            </Position>
            <AltitudeMeters>35.59999847412109375</AltitudeMeters>
            <DistanceMeters>NAN</DistanceMeters>
          </Trackpoint>
          <Trackpoint>
            <Time>2021-08-11T08:57:28.000Z</Time>
            <Position>
              <LatitudeDegrees>43.28391001559793949127197265625</LatitudeDegrees>
              <LongitudeDegrees>-1.71353199519217014312744140625</LongitudeDegrees>
            </Position>
            <AltitudeMeters>35.59999847412109375</AltitudeMeters>
            <DistanceMeters>NAN</DistanceMeters>
          </Trackpoint>
          <Trackpoint>
            <Time>2021-08-11T08:57:30.000Z</Time>
            <Position>
              <LatitudeDegrees>43.28399249352514743804931640625</LatitudeDegrees>
              <LongitudeDegrees>-1.71349343843758106231689453125</LongitudeDegrees>
            </Position>
            <AltitudeMeters>35.40000152587890625</AltitudeMeters>
            <DistanceMeters>NAN</DistanceMeters>
          </Trackpoint>
          <Trackpoint>
            <Time>2021-08-11T08:57:31.000Z</Time>
            <Position>
              <LatitudeDegrees>43.28401864506304264068603515625</LatitudeDegrees>
              <LongitudeDegrees>-1.7134878225624561309814453125</LongitudeDegrees>
            </Position>
            <AltitudeMeters>35.40000152587890625</AltitudeMeters>
            <DistanceMeters>NAN</DistanceMeters>
          </Trackpoint>
          <Trackpoint>
            <Time>2021-08-11T08:57:32.000Z</Time>
            <Position>
              <LatitudeDegrees>43.28402970917522907257080078125</LatitudeDegrees>
              <LongitudeDegrees>-1.713490001857280731201171875</LongitudeDegrees>
            </Position>
            <AltitudeMeters>35.40000152587890625</AltitudeMeters>
            <DistanceMeters>NAN</DistanceMeters>
          </Trackpoint>
          <Trackpoint>
            <Time>2021-08-11T08:57:33.000Z</Time>
            <Position>
              <LatitudeDegrees>43.2840425334870815277099609375</LatitudeDegrees>
              <LongitudeDegrees>-1.71348522417247295379638671875</LongitudeDegrees>
            </Position>
            <AltitudeMeters>35.40000152587890625</AltitudeMeters>
            <DistanceMeters>NAN</DistanceMeters>
          </Trackpoint>
          <Trackpoint>
            <Time>2021-08-11T08:57:34.000Z</Time>
            <Position>
              <LatitudeDegrees>43.284053765237331390380859375</LatitudeDegrees>
              <LongitudeDegrees>-1.713477931916713714599609375</LongitudeDegrees>
            </Position>
            <AltitudeMeters>35.40000152587890625</AltitudeMeters>
            <DistanceMeters>NAN</DistanceMeters>
          </Trackpoint>
          <Trackpoint>
            <Time>2021-08-11T08:57:35.000Z</Time>
            <Position>
              <LatitudeDegrees>43.28407698310911655426025390625</LatitudeDegrees>
              <LongitudeDegrees>-1.7134693823754787445068359375</LongitudeDegrees>
            </Position>
            <AltitudeMeters>35.40000152587890625</AltitudeMeters>
            <DistanceMeters>NAN</DistanceMeters>
          </Trackpoint>
          <Trackpoint>
            <Time>2021-08-11T08:57:37.000Z</Time>
            <Position>
              <LatitudeDegrees>43.284148313105106353759765625</LatitudeDegrees>
              <LongitudeDegrees>-1.71343778260052204132080078125</LongitudeDegrees>
            </Position>
            <AltitudeMeters>35.40000152587890625</AltitudeMeters>
            <DistanceMeters>NAN</DistanceMeters>
          </Trackpoint>
          <Trackpoint>
            <Time>2021-08-11T08:57:38.000Z</Time>
            <Position>
              <LatitudeDegrees>43.28424445353448390960693359375</LatitudeDegrees>
              <LongitudeDegrees>-1.71340844593942165374755859375</LongitudeDegrees>
            </Position>
            <AltitudeMeters>35.40000152587890625</AltitudeMeters>
            <DistanceMeters>NAN</DistanceMeters>
          </Trackpoint>
          <Trackpoint>
            <Time>2021-08-11T08:57:39.000Z</Time>
            <Position>
              <LatitudeDegrees>43.2843080721795558929443359375</LatitudeDegrees>
              <LongitudeDegrees>-1.71336569823324680328369140625</LongitudeDegrees>
            </Position>
            <AltitudeMeters>35.59999847412109375</AltitudeMeters>
            <DistanceMeters>NAN</DistanceMeters>
          </Trackpoint>
          <Trackpoint>
            <Time>2021-08-11T08:57:40.000Z</Time>
            <Position>
              <LatitudeDegrees>43.2843451201915740966796875</LatitudeDegrees>
              <LongitudeDegrees>-1.7133121378719806671142578125</LongitudeDegrees>
            </Position>
            <AltitudeMeters>35.59999847412109375</AltitudeMeters>
            <DistanceMeters>NAN</DistanceMeters>
          </Trackpoint>
          <Trackpoint>
            <Time>2021-08-11T08:57:41.000Z</Time>
            <Position>
              <LatitudeDegrees>43.28437688760459423065185546875</LatitudeDegrees>
              <LongitudeDegrees>-1.7132698930799961090087890625</LongitudeDegrees>
            </Position>
            <AltitudeMeters>35.799999237060546875</AltitudeMeters>
            <DistanceMeters>NAN</DistanceMeters>
          </Trackpoint>
          <Trackpoint>
            <Time>2021-08-11T08:57:42.000Z</Time>
            <Position>
              <LatitudeDegrees>43.2844096608459949493408203125</LatitudeDegrees>
              <LongitudeDegrees>-1.71324692666530609130859375</LongitudeDegrees>
            </Position>
            <AltitudeMeters>35.799999237060546875</AltitudeMeters>
            <DistanceMeters>NAN</DistanceMeters>
          </Trackpoint>
          <Trackpoint>
            <Time>2021-08-11T08:57:43.000Z</Time>
            <Position>
              <LatitudeDegrees>43.28443656675517559051513671875</LatitudeDegrees>
              <LongitudeDegrees>-1.71323292888700962066650390625</LongitudeDegrees>
            </Position>
            <AltitudeMeters>35.799999237060546875</AltitudeMeters>
            <DistanceMeters>NAN</DistanceMeters>
          </Trackpoint>
          <Trackpoint>
            <Time>2021-08-11T08:57:44.000Z</Time>
            <Position>
              <LatitudeDegrees>43.284475542604923248291015625</LatitudeDegrees>
              <LongitudeDegrees>-1.7132216133177280426025390625</LongitudeDegrees>
            </Position>
            <AltitudeMeters>35.799999237060546875</AltitudeMeters>
            <DistanceMeters>NAN</DistanceMeters>
          </Trackpoint>
          <Trackpoint>
            <Time>2021-08-11T08:57:45.000Z</Time>
            <Position>
              <LatitudeDegrees>43.2845182903110980987548828125</LatitudeDegrees>
              <LongitudeDegrees>-1.7131957970559597015380859375</LongitudeDegrees>
            </Position>
            <AltitudeMeters>35.799999237060546875</AltitudeMeters>
            <DistanceMeters>NAN</DistanceMeters>
          </Trackpoint>
          <Trackpoint>
            <Time>2021-08-11T08:57:50.000Z</Time>
            <Position>
              <LatitudeDegrees>43.2847340404987335205078125</LatitudeDegrees>
              <LongitudeDegrees>-1.71312295831739902496337890625</LongitudeDegrees>
            </Position>
            <AltitudeMeters>35.799999237060546875</AltitudeMeters>
            <DistanceMeters>NAN</DistanceMeters>
          </Trackpoint>
          <Trackpoint>
            <Time>2021-08-11T08:57:52.000Z</Time>
            <Position>
              <LatitudeDegrees>43.28480419702827930450439453125</LatitudeDegrees>
              <LongitudeDegrees>-1.71309127472341060638427734375</LongitudeDegrees>
            </Position>
            <AltitudeMeters>35.799999237060546875</AltitudeMeters>
            <DistanceMeters>NAN</DistanceMeters>
          </Trackpoint>
          <Trackpoint>
            <Time>2021-08-11T08:57:53.000Z</Time>
            <Position>
              <LatitudeDegrees>43.2848441787064075469970703125</LatitudeDegrees>
              <LongitudeDegrees>-1.71305808238685131072998046875</LongitudeDegrees>
            </Position>
            <AltitudeMeters>35.799999237060546875</AltitudeMeters>
            <DistanceMeters>NAN</DistanceMeters>
          </Trackpoint>
          <Trackpoint>
            <Time>2021-08-11T08:57:54.000Z</Time>
            <Position>
              <LatitudeDegrees>43.28487846069037914276123046875</LatitudeDegrees>
              <LongitudeDegrees>-1.71303729526698589324951171875</LongitudeDegrees>
            </Position>
            <AltitudeMeters>35.59999847412109375</AltitudeMeters>
            <DistanceMeters>NAN</DistanceMeters>
          </Trackpoint>
          <Trackpoint>
            <Time>2021-08-11T08:57:56.000Z</Time>
            <Position>
              <LatitudeDegrees>43.28495733439922332763671875</LatitudeDegrees>
              <LongitudeDegrees>-1.713029332458972930908203125</LongitudeDegrees>
            </Position>
            <AltitudeMeters>35.59999847412109375</AltitudeMeters>
            <DistanceMeters>NAN</DistanceMeters>
          </Trackpoint>
          <Trackpoint>
            <Time>2021-08-11T08:58:01.000Z</Time>
            <Position>
              <LatitudeDegrees>43.2851704023778438568115234375</LatitudeDegrees>
              <LongitudeDegrees>-1.7129419930279254913330078125</LongitudeDegrees>
            </Position>
            <AltitudeMeters>35.59999847412109375</AltitudeMeters>
            <DistanceMeters>NAN</DistanceMeters>
          </Trackpoint>
          <Trackpoint>
            <Time>2021-08-11T08:58:02.000Z</Time>
            <Position>
              <LatitudeDegrees>43.28520669601857662200927734375</LatitudeDegrees>
              <LongitudeDegrees>-1.71292196027934551239013671875</LongitudeDegrees>
            </Position>
            <AltitudeMeters>35.59999847412109375</AltitudeMeters>
            <DistanceMeters>NAN</DistanceMeters>
          </Trackpoint>
          <Trackpoint>
            <Time>2021-08-11T08:58:03.000Z</Time>
            <Position>
              <LatitudeDegrees>43.28523905016481876373291015625</LatitudeDegrees>
              <LongitudeDegrees>-1.71290226280689239501953125</LongitudeDegrees>
            </Position>
            <AltitudeMeters>35.59999847412109375</AltitudeMeters>
            <DistanceMeters>NAN</DistanceMeters>
          </Trackpoint>
          <Trackpoint>
            <Time>2021-08-11T08:58:04.000Z</Time>
            <Position>
              <LatitudeDegrees>43.28527006320655345916748046875</LatitudeDegrees>
              <LongitudeDegrees>-1.71288306824862957000732421875</LongitudeDegrees>
            </Position>
            <AltitudeMeters>35.59999847412109375</AltitudeMeters>
            <DistanceMeters>NAN</DistanceMeters>
          </Trackpoint>
          <Trackpoint>
            <Time>2021-08-11T08:58:05.000Z</Time>
            <Position>
              <LatitudeDegrees>43.28529956750571727752685546875</LatitudeDegrees>
              <LongitudeDegrees>-1.7128678970038890838623046875</LongitudeDegrees>
            </Position>
            <AltitudeMeters>35.59999847412109375</AltitudeMeters>
            <DistanceMeters>NAN</DistanceMeters>
          </Trackpoint>
          <Trackpoint>
            <Time>2021-08-11T08:58:06.000Z</Time>
            <Position>
              <LatitudeDegrees>43.28532286919653415679931640625</LatitudeDegrees>
              <LongitudeDegrees>-1.71285741962492465972900390625</LongitudeDegrees>
            </Position>
            <AltitudeMeters>35.40000152587890625</AltitudeMeters>
            <DistanceMeters>NAN</DistanceMeters>
          </Trackpoint>
          <Trackpoint>
            <Time>2021-08-11T08:58:07.000Z</Time>
            <Position>
              <LatitudeDegrees>43.28535304404795169830322265625</LatitudeDegrees>
              <LongitudeDegrees>-1.71283478848636150360107421875</LongitudeDegrees>
            </Position>
            <AltitudeMeters>35.40000152587890625</AltitudeMeters>
            <DistanceMeters>NAN</DistanceMeters>
          </Trackpoint>
          <Trackpoint>
            <Time>2021-08-11T08:58:08.000Z</Time>
            <Position>
              <LatitudeDegrees>43.28538715839385986328125</LatitudeDegrees>
              <LongitudeDegrees>-1.7128186114132404327392578125</LongitudeDegrees>
            </Position>
            <AltitudeMeters>35.40000152587890625</AltitudeMeters>
            <DistanceMeters>NAN</DistanceMeters>
          </Trackpoint>
          <Trackpoint>
            <Time>2021-08-11T08:58:09.000Z</Time>
            <Position>
              <LatitudeDegrees>43.28542512841522693634033203125</LatitudeDegrees>
              <LongitudeDegrees>-1.7128135822713375091552734375</LongitudeDegrees>
            </Position>
            <AltitudeMeters>35.40000152587890625</AltitudeMeters>
            <DistanceMeters>NAN</DistanceMeters>
          </Trackpoint>
          <Trackpoint>
            <Time>2021-08-11T08:58:12.000Z</Time>
            <Position>
              <LatitudeDegrees>43.2855328358709812164306640625</LatitudeDegrees>
              <LongitudeDegrees>-1.71279497444629669189453125</LongitudeDegrees>
            </Position>
            <AltitudeMeters>35.40000152587890625</AltitudeMeters>
            <DistanceMeters>NAN</DistanceMeters>
          </Trackpoint>
          <Trackpoint>
            <Time>2021-08-11T08:58:18.000Z</Time>
            <Position>
              <LatitudeDegrees>43.2857806049287319183349609375</LatitudeDegrees>
              <LongitudeDegrees>-1.7128310166299343109130859375</LongitudeDegrees>
            </Position>
            <AltitudeMeters>35.40000152587890625</AltitudeMeters>
            <DistanceMeters>NAN</DistanceMeters>
          </Trackpoint>
          <Trackpoint>
            <Time>2021-08-11T08:58:26.000Z</Time>
            <Position>
              <LatitudeDegrees>43.28609785996377468109130859375</LatitudeDegrees>
              <LongitudeDegrees>-1.71289145015180110931396484375</LongitudeDegrees>
            </Position>
            <AltitudeMeters>35.200000762939453125</AltitudeMeters>
            <DistanceMeters>NAN</DistanceMeters>
          </Trackpoint>
          <Trackpoint>
            <Time>2021-08-11T08:58:27.000Z</Time>
            <Position>
              <LatitudeDegrees>43.28613490797579288482666015625</LatitudeDegrees>
              <LongitudeDegrees>-1.71289966441690921783447265625</LongitudeDegrees>
            </Position>
            <AltitudeMeters>35.200000762939453125</AltitudeMeters>
            <DistanceMeters>NAN</DistanceMeters>
          </Trackpoint>
          <Trackpoint>
            <Time>2021-08-11T08:58:28.000Z</Time>
            <Position>
              <LatitudeDegrees>43.28617279417812824249267578125</LatitudeDegrees>
              <LongitudeDegrees>-1.71291030943393707275390625</LongitudeDegrees>
            </Position>
            <AltitudeMeters>35.200000762939453125</AltitudeMeters>
            <DistanceMeters>NAN</DistanceMeters>
          </Trackpoint>
          <Trackpoint>
            <Time>2021-08-11T08:58:29.000Z</Time>
            <Position>
              <LatitudeDegrees>43.28621151857078075408935546875</LatitudeDegrees>
              <LongitudeDegrees>-1.712922714650630950927734375</LongitudeDegrees>
            </Position>
            <AltitudeMeters>35.200000762939453125</AltitudeMeters>
            <DistanceMeters>NAN</DistanceMeters>
          </Trackpoint>
          <Trackpoint>
            <Time>2021-08-11T08:58:30.000Z</Time>
            <Position>
              <LatitudeDegrees>43.2862506620585918426513671875</LatitudeDegrees>
              <LongitudeDegrees>-1.712933443486690521240234375</LongitudeDegrees>
            </Position>
            <AltitudeMeters>35.200000762939453125</AltitudeMeters>
            <DistanceMeters>NAN</DistanceMeters>
          </Trackpoint>
          <Trackpoint>
            <Time>2021-08-11T08:58:31.000Z</Time>
            <Position>
              <LatitudeDegrees>43.2862888835370540618896484375</LatitudeDegrees>
              <LongitudeDegrees>-1.7129436694085597991943359375</LongitudeDegrees>
            </Position>
            <AltitudeMeters>35.200000762939453125</AltitudeMeters>
            <DistanceMeters>NAN</DistanceMeters>
          </Trackpoint>
          <Trackpoint>
            <Time>2021-08-11T08:58:36.000Z</Time>
            <Position>
              <LatitudeDegrees>43.28648082911968231201171875</LatitudeDegrees>
              <LongitudeDegrees>-1.71297107823193073272705078125</LongitudeDegrees>
            </Position>
            <AltitudeMeters>35.200000762939453125</AltitudeMeters>
            <DistanceMeters>NAN</DistanceMeters>
          </Trackpoint>
          <Trackpoint>
            <Time>2021-08-11T08:58:37.000Z</Time>
            <Position>
              <LatitudeDegrees>43.28651167452335357666015625</LatitudeDegrees>
              <LongitudeDegrees>-1.7129714973270893096923828125</LongitudeDegrees>
            </Position>
            <AltitudeMeters>35.200000762939453125</AltitudeMeters>
            <DistanceMeters>NAN</DistanceMeters>
          </Trackpoint>
          <Trackpoint>
            <Time>2021-08-11T08:58:38.000Z</Time>
            <Position>
              <LatitudeDegrees>43.286550901830196380615234375</LatitudeDegrees>
              <LongitudeDegrees>-1.71296856366097927093505859375</LongitudeDegrees>
            </Position>
            <AltitudeMeters>35.200000762939453125</AltitudeMeters>
            <DistanceMeters>NAN</DistanceMeters>
          </Trackpoint>
          <Trackpoint>
            <Time>2021-08-11T08:58:40.000Z</Time>
            <Position>
              <LatitudeDegrees>43.286638744175434112548828125</LatitudeDegrees>
              <LongitudeDegrees>-1.71297744847834110260009765625</LongitudeDegrees>
            </Position>
            <AltitudeMeters>35.200000762939453125</AltitudeMeters>
            <DistanceMeters>NAN</DistanceMeters>
          </Trackpoint>
          <Trackpoint>
            <Time>2021-08-11T08:58:49.000Z</Time>
            <Position>
              <LatitudeDegrees>43.2870154269039630889892578125</LatitudeDegrees>
              <LongitudeDegrees>-1.7130415700376033782958984375</LongitudeDegrees>
            </Position>
            <AltitudeMeters>35.200000762939453125</AltitudeMeters>
            <DistanceMeters>NAN</DistanceMeters>
          </Trackpoint>
          <Trackpoint>
            <Time>2021-08-11T08:58:54.000Z</Time>
            <Position>
              <LatitudeDegrees>43.28724098391830921173095703125</LatitudeDegrees>
              <LongitudeDegrees>-1.71307015232741832733154296875</LongitudeDegrees>
            </Position>
            <AltitudeMeters>35</AltitudeMeters>
            <DistanceMeters>NAN</DistanceMeters>
          </Trackpoint>
          <Trackpoint>
            <Time>2021-08-11T08:58:55.000Z</Time>
            <Position>
              <LatitudeDegrees>43.2872848212718963623046875</LatitudeDegrees>
              <LongitudeDegrees>-1.71306663192808628082275390625</LongitudeDegrees>
            </Position>
            <AltitudeMeters>35</AltitudeMeters>
            <DistanceMeters>NAN</DistanceMeters>
          </Trackpoint>
          <Trackpoint>
            <Time>2021-08-11T08:58:58.000Z</Time>
            <Position>
              <LatitudeDegrees>43.28741448931396007537841796875</LatitudeDegrees>
              <LongitudeDegrees>-1.71304978430271148681640625</LongitudeDegrees>
            </Position>
            <AltitudeMeters>35</AltitudeMeters>
            <DistanceMeters>NAN</DistanceMeters>
          </Trackpoint>
          <Trackpoint>
            <Time>2021-08-11T08:59:02.000Z</Time>
            <Position>
              <LatitudeDegrees>43.28759050928056240081787109375</LatitudeDegrees>
              <LongitudeDegrees>-1.71298951841890811920166015625</LongitudeDegrees>
            </Position>
            <AltitudeMeters>34.59999847412109375</AltitudeMeters>
            <DistanceMeters>NAN</DistanceMeters>
          </Trackpoint>
          <Trackpoint>
            <Time>2021-08-11T08:59:08.000Z</Time>
            <Position>
              <LatitudeDegrees>43.28786392696201801300048828125</LatitudeDegrees>
              <LongitudeDegrees>-1.712888516485691070556640625</LongitudeDegrees>
            </Position>
            <AltitudeMeters>34.200000762939453125</AltitudeMeters>
            <DistanceMeters>NAN</DistanceMeters>
          </Trackpoint>
          <Trackpoint>
            <Time>2021-08-11T08:59:12.000Z</Time>
            <Position>
              <LatitudeDegrees>43.28804128803312778472900390625</LatitudeDegrees>
              <LongitudeDegrees>-1.7128186114132404327392578125</LongitudeDegrees>
            </Position>
            <AltitudeMeters>33.59999847412109375</AltitudeMeters>
            <DistanceMeters>NAN</DistanceMeters>
          </Trackpoint>
          <Trackpoint>
            <Time>2021-08-11T08:59:13.000Z</Time>
            <Position>
              <LatitudeDegrees>43.2880829460918903350830078125</LatitudeDegrees>
              <LongitudeDegrees>-1.71280126087367534637451171875</LongitudeDegrees>
            </Position>
            <AltitudeMeters>33.59999847412109375</AltitudeMeters>
            <DistanceMeters>NAN</DistanceMeters>
          </Trackpoint>
          <Trackpoint>
            <Time>2021-08-11T08:59:14.000Z</Time>
            <Position>
              <LatitudeDegrees>43.28812502324581146240234375</LatitudeDegrees>
              <LongitudeDegrees>-1.71278231777250766754150390625</LongitudeDegrees>
            </Position>
            <AltitudeMeters>33.59999847412109375</AltitudeMeters>
            <DistanceMeters>NAN</DistanceMeters>
          </Trackpoint>
          <Trackpoint>
            <Time>2021-08-11T08:59:15.000Z</Time>
            <Position>
              <LatitudeDegrees>43.28816517256200313568115234375</LatitudeDegrees>
              <LongitudeDegrees>-1.71277192421257495880126953125</LongitudeDegrees>
            </Position>
            <AltitudeMeters>33.59999847412109375</AltitudeMeters>
            <DistanceMeters>NAN</DistanceMeters>
          </Trackpoint>
          <Trackpoint>
            <Time>2021-08-11T08:59:16.000Z</Time>
            <Position>
              <LatitudeDegrees>43.28820490278303623199462890625</LatitudeDegrees>
              <LongitudeDegrees>-1.712761782109737396240234375</LongitudeDegrees>
            </Position>
            <AltitudeMeters>33.59999847412109375</AltitudeMeters>
            <DistanceMeters>NAN</DistanceMeters>
          </Trackpoint>
          <Trackpoint>
            <Time>2021-08-11T08:59:17.000Z</Time>
            <Position>
              <LatitudeDegrees>43.28824077732861042022705078125</LatitudeDegrees>
              <LongitudeDegrees>-1.7127451859414577484130859375</LongitudeDegrees>
            </Position>
            <AltitudeMeters>33.59999847412109375</AltitudeMeters>
            <DistanceMeters>NAN</DistanceMeters>
          </Trackpoint>
          <Trackpoint>
            <Time>2021-08-11T08:59:18.000Z</Time>
            <Position>
              <LatitudeDegrees>43.28827346675097942352294921875</LatitudeDegrees>
              <LongitudeDegrees>-1.71272934414446353912353515625</LongitudeDegrees>
            </Position>
            <AltitudeMeters>33.59999847412109375</AltitudeMeters>
            <DistanceMeters>NAN</DistanceMeters>
          </Trackpoint>
          <Trackpoint>
            <Time>2021-08-11T08:59:19.000Z</Time>
            <Position>
              <LatitudeDegrees>43.28830464743077754974365234375</LatitudeDegrees>
              <LongitudeDegrees>-1.7127151787281036376953125</LongitudeDegrees>
            </Position>
            <AltitudeMeters>33.40000152587890625</AltitudeMeters>
            <DistanceMeters>NAN</DistanceMeters>
          </Trackpoint>
          <Trackpoint>
            <Time>2021-08-11T08:59:20.000Z</Time>
            <Position>
              <LatitudeDegrees>43.28833549283444881439208984375</LatitudeDegrees>
              <LongitudeDegrees>-1.71270218677818775177001953125</LongitudeDegrees>
            </Position>
            <AltitudeMeters>33.40000152587890625</AltitudeMeters>
            <DistanceMeters>NAN</DistanceMeters>
          </Trackpoint>
          <Trackpoint>
            <Time>2021-08-11T08:59:21.000Z</Time>
            <Position>
              <LatitudeDegrees>43.288368768990039825439453125</LatitudeDegrees>
              <LongitudeDegrees>-1.71268961392343044281005859375</LongitudeDegrees>
            </Position>
            <AltitudeMeters>33.40000152587890625</AltitudeMeters>
            <DistanceMeters>NAN</DistanceMeters>
          </Trackpoint>
          <Trackpoint>
            <Time>2021-08-11T08:59:27.000Z</Time>
            <Position>
              <LatitudeDegrees>43.28859734348952770233154296875</LatitudeDegrees>
              <LongitudeDegrees>-1.71257771551609039306640625</LongitudeDegrees>
            </Position>
            <AltitudeMeters>33.200000762939453125</AltitudeMeters>
            <DistanceMeters>NAN</DistanceMeters>
          </Trackpoint>
          <Trackpoint>
            <Time>2021-08-11T08:59:28.000Z</Time>
            <Position>
              <LatitudeDegrees>43.28863958828151226043701171875</LatitudeDegrees>
              <LongitudeDegrees>-1.7125676572322845458984375</LongitudeDegrees>
            </Position>
            <AltitudeMeters>33.200000762939453125</AltitudeMeters>
            <DistanceMeters>NAN</DistanceMeters>
          </Trackpoint>
          <Trackpoint>
            <Time>2021-08-11T08:59:29.000Z</Time>
            <Position>
              <LatitudeDegrees>43.2886804081499576568603515625</LatitudeDegrees>
              <LongitudeDegrees>-1.7125611193478107452392578125</LongitudeDegrees>
            </Position>
            <AltitudeMeters>33.200000762939453125</AltitudeMeters>
            <DistanceMeters>NAN</DistanceMeters>
          </Trackpoint>
          <Trackpoint>
            <Time>2021-08-11T08:59:31.000Z</Time>
            <Position>
              <LatitudeDegrees>43.2887551747262477874755859375</LatitudeDegrees>
              <LongitudeDegrees>-1.71255667693912982940673828125</LongitudeDegrees>
            </Position>
            <AltitudeMeters>33.200000762939453125</AltitudeMeters>
            <DistanceMeters>NAN</DistanceMeters>
          </Trackpoint>
          <Trackpoint>
            <Time>2021-08-11T08:59:32.000Z</Time>
            <Position>
              <LatitudeDegrees>43.28877973370254039764404296875</LatitudeDegrees>
              <LongitudeDegrees>-1.7125601135194301605224609375</LongitudeDegrees>
            </Position>
            <AltitudeMeters>33</AltitudeMeters>
            <DistanceMeters>NAN</DistanceMeters>
          </Trackpoint>
          <Trackpoint>
            <Time>2021-08-11T08:59:33.000Z</Time>
            <Position>
              <LatitudeDegrees>43.28880588524043560028076171875</LatitudeDegrees>
              <LongitudeDegrees>-1.71256455592811107635498046875</LongitudeDegrees>
            </Position>
            <AltitudeMeters>33</AltitudeMeters>
            <DistanceMeters>NAN</DistanceMeters>
          </Trackpoint>
          <Trackpoint>
            <Time>2021-08-11T08:59:34.000Z</Time>
            <Position>
              <LatitudeDegrees>43.2888324558734893798828125</LatitudeDegrees>
              <LongitudeDegrees>-1.71256790868937969207763671875</LongitudeDegrees>
            </Position>
            <AltitudeMeters>33</AltitudeMeters>
            <DistanceMeters>NAN</DistanceMeters>
          </Trackpoint>
          <Trackpoint>
            <Time>2021-08-11T08:59:35.000Z</Time>
            <Position>
              <LatitudeDegrees>43.2888591103255748748779296875</LatitudeDegrees>
              <LongitudeDegrees>-1.71257109381258487701416015625</LongitudeDegrees>
            </Position>
            <AltitudeMeters>33</AltitudeMeters>
            <DistanceMeters>NAN</DistanceMeters>
          </Trackpoint>
          <Trackpoint>
            <Time>2021-08-11T08:59:36.000Z</Time>
            <Position>
              <LatitudeDegrees>43.28888702206313610076904296875</LatitudeDegrees>
              <LongitudeDegrees>-1.7125698365271091461181640625</LongitudeDegrees>
            </Position>
            <AltitudeMeters>33</AltitudeMeters>
            <DistanceMeters>NAN</DistanceMeters>
          </Trackpoint>
          <Trackpoint>
            <Time>2021-08-11T09:00:22.000Z</Time>
            <Position>
              <LatitudeDegrees>43.29013458453118801116943359375</LatitudeDegrees>
              <LongitudeDegrees>-1.7140038125216960906982421875</LongitudeDegrees>
            </Position>
            <AltitudeMeters>31.200000762939453125</AltitudeMeters>
            <DistanceMeters>NAN</DistanceMeters>
          </Trackpoint>
          <Trackpoint>
            <Time>2021-08-11T09:00:23.000Z</Time>
            <Position>
              <LatitudeDegrees>43.290194682776927947998046875</LatitudeDegrees>
              <LongitudeDegrees>-1.7140487395226955413818359375</LongitudeDegrees>
            </Position>
            <AltitudeMeters>31.200000762939453125</AltitudeMeters>
            <DistanceMeters>NAN</DistanceMeters>
          </Trackpoint>
          <Trackpoint>
            <Time>2021-08-11T09:00:26.000Z</Time>
            <Position>
              <LatitudeDegrees>43.29024170525372028350830078125</LatitudeDegrees>
              <LongitudeDegrees>-1.71423909254372119903564453125</LongitudeDegrees>
            </Position>
            <AltitudeMeters>30.799999237060546875</AltitudeMeters>
            <DistanceMeters>NAN</DistanceMeters>
          </Trackpoint>
          <Trackpoint>
            <Time>2021-08-11T09:00:27.000Z</Time>
            <Position>
              <LatitudeDegrees>43.29026584513485431671142578125</LatitudeDegrees>
              <LongitudeDegrees>-1.7142830975353717803955078125</LongitudeDegrees>
            </Position>
            <AltitudeMeters>30.799999237060546875</AltitudeMeters>
            <DistanceMeters>NAN</DistanceMeters>
          </Trackpoint>
          <Trackpoint>
            <Time>2021-08-11T09:00:29.000Z</Time>
            <Position>
              <LatitudeDegrees>43.2903091795742511749267578125</LatitudeDegrees>
              <LongitudeDegrees>-1.71441293321549892425537109375</LongitudeDegrees>
            </Position>
            <AltitudeMeters>30.3999996185302734375</AltitudeMeters>
            <DistanceMeters>NAN</DistanceMeters>
          </Trackpoint>
          <Trackpoint>
            <Time>2021-08-11T09:00:31.000Z</Time>
            <Position>
              <LatitudeDegrees>43.290305994451045989990234375</LatitudeDegrees>
              <LongitudeDegrees>-1.7145201377570629119873046875</LongitudeDegrees>
            </Position>
            <AltitudeMeters>30.3999996185302734375</AltitudeMeters>
            <DistanceMeters>NAN</DistanceMeters>
          </Trackpoint>
          <Trackpoint>
            <Time>2021-08-11T09:00:32.000Z</Time>
            <Position>
              <LatitudeDegrees>43.29032099805772304534912109375</LatitudeDegrees>
              <LongitudeDegrees>-1.71457403339445590972900390625</LongitudeDegrees>
            </Position>
            <AltitudeMeters>30.200000762939453125</AltitudeMeters>
            <DistanceMeters>NAN</DistanceMeters>
          </Trackpoint>
          <Trackpoint>
            <Time>2021-08-11T09:00:35.000Z</Time>
            <Position>
              <LatitudeDegrees>43.29037263058125972747802734375</LatitudeDegrees>
              <LongitudeDegrees>-1.714717447757720947265625</LongitudeDegrees>
            </Position>
            <AltitudeMeters>30</AltitudeMeters>
            <DistanceMeters>NAN</DistanceMeters>
          </Trackpoint>
          <Trackpoint>
            <Time>2021-08-11T09:00:36.000Z</Time>
            <Position>
              <LatitudeDegrees>43.2903866283595561981201171875</LatitudeDegrees>
              <LongitudeDegrees>-1.714753322303295135498046875</LongitudeDegrees>
            </Position>
            <AltitudeMeters>30</AltitudeMeters>
            <DistanceMeters>NAN</DistanceMeters>
          </Trackpoint>
          <Trackpoint>
            <Time>2021-08-11T09:00:37.000Z</Time>
            <Position>
              <LatitudeDegrees>43.29040163196623325347900390625</LatitudeDegrees>
              <LongitudeDegrees>-1.71477654017508029937744140625</LongitudeDegrees>
            </Position>
            <AltitudeMeters>30</AltitudeMeters>
            <DistanceMeters>NAN</DistanceMeters>
          </Trackpoint>
          <Trackpoint>
            <Time>2021-08-11T09:00:38.000Z</Time>
            <Position>
              <LatitudeDegrees>43.2904023863375186920166015625</LatitudeDegrees>
              <LongitudeDegrees>-1.71478374861180782318115234375</LongitudeDegrees>
            </Position>
            <AltitudeMeters>29.799999237060546875</AltitudeMeters>
            <DistanceMeters>NAN</DistanceMeters>
          </Trackpoint>
          <Trackpoint>
            <Time>2021-08-11T09:00:39.000Z</Time>
            <Position>
              <LatitudeDegrees>43.2904030568897724151611328125</LatitudeDegrees>
              <LongitudeDegrees>-1.71478307805955410003662109375</LongitudeDegrees>
            </Position>
            <AltitudeMeters>29.6000003814697265625</AltitudeMeters>
            <DistanceMeters>NAN</DistanceMeters>
          </Trackpoint>
          <Trackpoint>
            <Time>2021-08-11T09:00:40.000Z</Time>
            <Position>
              <LatitudeDegrees>43.29040599055588245391845703125</LatitudeDegrees>
              <LongitudeDegrees>-1.71478458680212497711181640625</LongitudeDegrees>
            </Position>
            <AltitudeMeters>29.6000003814697265625</AltitudeMeters>
            <DistanceMeters>NAN</DistanceMeters>
          </Trackpoint>
          <Trackpoint>
            <Time>2021-08-11T09:00:41.000Z</Time>
            <Position>
              <LatitudeDegrees>43.29040599055588245391845703125</LatitudeDegrees>
              <LongitudeDegrees>-1.71478458680212497711181640625</LongitudeDegrees>
            </Position>
            <AltitudeMeters>29.6000003814697265625</AltitudeMeters>
            <DistanceMeters>NAN</DistanceMeters>
          </Trackpoint>
          <Trackpoint>
            <Time>2021-08-11T09:00:43.000Z</Time>
            <Position>
              <LatitudeDegrees>43.29040565527975559234619140625</LatitudeDegrees>
              <LongitudeDegrees>-1.7147923819720745086669921875</LongitudeDegrees>
            </Position>
            <AltitudeMeters>29.3999996185302734375</AltitudeMeters>
            <DistanceMeters>NAN</DistanceMeters>
          </Trackpoint>
          <Trackpoint>
            <Time>2021-08-11T09:00:45.000Z</Time>
            <Position>
              <LatitudeDegrees>43.29040565527975559234619140625</LatitudeDegrees>
              <LongitudeDegrees>-1.7147923819720745086669921875</LongitudeDegrees>
            </Position>
            <AltitudeMeters>29.3999996185302734375</AltitudeMeters>
            <DistanceMeters>NAN</DistanceMeters>
          </Trackpoint>
          <Trackpoint>
            <Time>2021-08-11T09:02:30.000Z</Time>
            <Position>
              <LatitudeDegrees>43.29039685428142547607421875</LatitudeDegrees>
              <LongitudeDegrees>-1.714803278446197509765625</LongitudeDegrees>
            </Position>
            <AltitudeMeters>28.799999237060546875</AltitudeMeters>
            <DistanceMeters>NAN</DistanceMeters>
          </Trackpoint>
          <Trackpoint>
            <Time>2021-08-11T09:02:31.000Z</Time>
            <Position>
              <LatitudeDegrees>43.2903940044343471527099609375</LatitudeDegrees>
              <LongitudeDegrees>-1.7148098163306713104248046875</LongitudeDegrees>
            </Position>
            <AltitudeMeters>28.799999237060546875</AltitudeMeters>
            <DistanceMeters>NAN</DistanceMeters>
          </Trackpoint>
          <Trackpoint>
            <Time>2021-08-11T09:02:32.000Z</Time>
            <Position>
              <LatitudeDegrees>43.2903940044343471527099609375</LatitudeDegrees>
              <LongitudeDegrees>-1.7148098163306713104248046875</LongitudeDegrees>
            </Position>
            <AltitudeMeters>28.799999237060546875</AltitudeMeters>
            <DistanceMeters>NAN</DistanceMeters>
          </Trackpoint>
          <Trackpoint>
            <Time>2021-08-11T09:02:37.000Z</Time>
            <Position>
              <LatitudeDegrees>43.29039341770112514495849609375</LatitudeDegrees>
              <LongitudeDegrees>-1.71481274999678134918212890625</LongitudeDegrees>
            </Position>
            <AltitudeMeters>29</AltitudeMeters>
            <DistanceMeters>NAN</DistanceMeters>
          </Trackpoint>
          <Trackpoint>
            <Time>2021-08-11T09:02:38.000Z</Time>
            <Position>
              <LatitudeDegrees>43.29039752483367919921875</LatitudeDegrees>
              <LongitudeDegrees>-1.71484476886689662933349609375</LongitudeDegrees>
            </Position>
            <AltitudeMeters>29</AltitudeMeters>
            <DistanceMeters>NAN</DistanceMeters>
          </Trackpoint>
          <Trackpoint>
            <Time>2021-08-11T09:02:41.000Z</Time>
            <Position>
              <LatitudeDegrees>43.29042895697057247161865234375</LatitudeDegrees>
              <LongitudeDegrees>-1.7149896919727325439453125</LongitudeDegrees>
            </Position>
            <AltitudeMeters>29</AltitudeMeters>
            <DistanceMeters>NAN</DistanceMeters>
          </Trackpoint>
          <Trackpoint>
            <Time>2021-08-11T09:02:47.000Z</Time>
            <Position>
              <LatitudeDegrees>43.29049752093851566314697265625</LatitudeDegrees>
              <LongitudeDegrees>-1.7154257185757160186767578125</LongitudeDegrees>
            </Position>
            <AltitudeMeters>29</AltitudeMeters>
            <DistanceMeters>NAN</DistanceMeters>
          </Trackpoint>
          <Trackpoint>
            <Time>2021-08-11T09:02:50.000Z</Time>
            <Position>
              <LatitudeDegrees>43.29053373076021671295166015625</LatitudeDegrees>
              <LongitudeDegrees>-1.71561975963413715362548828125</LongitudeDegrees>
            </Position>
            <AltitudeMeters>29</AltitudeMeters>
            <DistanceMeters>NAN</DistanceMeters>
          </Trackpoint>
          <Trackpoint>
            <Time>2021-08-11T09:02:51.000Z</Time>
            <Position>
              <LatitudeDegrees>43.29053373076021671295166015625</LatitudeDegrees>
              <LongitudeDegrees>-1.71561975963413715362548828125</LongitudeDegrees>
            </Position>
            <AltitudeMeters>29</AltitudeMeters>
            <DistanceMeters>NAN</DistanceMeters>
          </Trackpoint>
          <Trackpoint>
            <Time>2021-08-11T09:02:52.000Z</Time>
            <Position>
              <LatitudeDegrees>43.2905492372810840606689453125</LatitudeDegrees>
              <LongitudeDegrees>-1.71572268940508365631103515625</LongitudeDegrees>
            </Position>
            <AltitudeMeters>29</AltitudeMeters>
            <DistanceMeters>NAN</DistanceMeters>
          </Trackpoint>
          <Trackpoint>
            <Time>2021-08-11T09:02:53.000Z</Time>
            <Position>
              <LatitudeDegrees>43.29054839909076690673828125</LatitudeDegrees>
              <LongitudeDegrees>-1.71576552093029022216796875</LongitudeDegrees>
            </Position>
            <AltitudeMeters>29</AltitudeMeters>
            <DistanceMeters>NAN</DistanceMeters>
          </Trackpoint>
          <Trackpoint>
            <Time>2021-08-11T09:02:54.000Z</Time>
            <Position>
              <LatitudeDegrees>43.29054839909076690673828125</LatitudeDegrees>
              <LongitudeDegrees>-1.71576552093029022216796875</LongitudeDegrees>
            </Position>
            <AltitudeMeters>29</AltitudeMeters>
            <DistanceMeters>NAN</DistanceMeters>
          </Trackpoint>
          <Trackpoint>
            <Time>2021-08-11T09:02:55.000Z</Time>
            <Position>
              <LatitudeDegrees>43.290556780993938446044921875</LatitudeDegrees>
              <LongitudeDegrees>-1.715831570327281951904296875</LongitudeDegrees>
            </Position>
            <AltitudeMeters>29</AltitudeMeters>
            <DistanceMeters>NAN</DistanceMeters>
          </Trackpoint>
          <Trackpoint>
            <Time>2021-08-11T09:02:56.000Z</Time>
            <Position>
              <LatitudeDegrees>43.290556780993938446044921875</LatitudeDegrees>
              <LongitudeDegrees>-1.715831570327281951904296875</LongitudeDegrees>
            </Position>
            <AltitudeMeters>28.799999237060546875</AltitudeMeters>
            <DistanceMeters>NAN</DistanceMeters>
          </Trackpoint>
          <Trackpoint>
            <Time>2021-08-11T09:02:57.000Z</Time>
            <Position>
              <LatitudeDegrees>43.29056273214519023895263671875</LatitudeDegrees>
              <LongitudeDegrees>-1.71585981734097003936767578125</LongitudeDegrees>
            </Position>
            <AltitudeMeters>28.799999237060546875</AltitudeMeters>
            <DistanceMeters>NAN</DistanceMeters>
          </Trackpoint>
          <Trackpoint>
            <Time>2021-08-11T09:02:58.000Z</Time>
            <Position>
              <LatitudeDegrees>43.29057597555220127105712890625</LatitudeDegrees>
              <LongitudeDegrees>-1.7159252800047397613525390625</LongitudeDegrees>
            </Position>
            <AltitudeMeters>28.799999237060546875</AltitudeMeters>
            <DistanceMeters>NAN</DistanceMeters>
          </Trackpoint>
          <Trackpoint>
            <Time>2021-08-11T09:03:04.000Z</Time>
            <Position>
              <LatitudeDegrees>43.290638588368892669677734375</LatitudeDegrees>
              <LongitudeDegrees>-1.716219820082187652587890625</LongitudeDegrees>
            </Position>
            <AltitudeMeters>28.6000003814697265625</AltitudeMeters>
            <DistanceMeters>NAN</DistanceMeters>
          </Trackpoint>
          <Trackpoint>
            <Time>2021-08-11T09:03:06.000Z</Time>
            <Position>
              <LatitudeDegrees>43.29066381789743900299072265625</LatitudeDegrees>
              <LongitudeDegrees>-1.716337502002716064453125</LongitudeDegrees>
            </Position>
            <AltitudeMeters>28.3999996185302734375</AltitudeMeters>
            <DistanceMeters>NAN</DistanceMeters>
          </Trackpoint>
          <Trackpoint>
            <Time>2021-08-11T09:03:08.000Z</Time>
            <Position>
              <LatitudeDegrees>43.2906833477318286895751953125</LatitudeDegrees>
              <LongitudeDegrees>-1.71644219197332859039306640625</LongitudeDegrees>
            </Position>
            <AltitudeMeters>28.200000762939453125</AltitudeMeters>
            <DistanceMeters>NAN</DistanceMeters>
          </Trackpoint>
          <Trackpoint>
            <Time>2021-08-11T09:03:09.000Z</Time>
            <Position>
              <LatitudeDegrees>43.2906833477318286895751953125</LatitudeDegrees>
              <LongitudeDegrees>-1.71644219197332859039306640625</LongitudeDegrees>
            </Position>
            <AltitudeMeters>27.799999237060546875</AltitudeMeters>
            <DistanceMeters>NAN</DistanceMeters>
          </Trackpoint>
          <Trackpoint>
            <Time>2021-08-11T09:03:10.000Z</Time>
            <Position>
              <LatitudeDegrees>43.29070321284234523773193359375</LatitudeDegrees>
              <LongitudeDegrees>-1.7165669985115528106689453125</LongitudeDegrees>
            </Position>
            <AltitudeMeters>27.799999237060546875</AltitudeMeters>
            <DistanceMeters>NAN</DistanceMeters>
          </Trackpoint>
          <Trackpoint>
            <Time>2021-08-11T09:03:13.000Z</Time>
            <Position>
              <LatitudeDegrees>43.290740512311458587646484375</LatitudeDegrees>
              <LongitudeDegrees>-1.71676841564476490020751953125</LongitudeDegrees>
            </Position>
            <AltitudeMeters>28</AltitudeMeters>
            <DistanceMeters>NAN</DistanceMeters>
          </Trackpoint>
          <Trackpoint>
            <Time>2021-08-11T09:03:15.000Z</Time>
            <Position>
              <LatitudeDegrees>43.2907470501959323883056640625</LatitudeDegrees>
              <LongitudeDegrees>-1.7169187031686305999755859375</LongitudeDegrees>
            </Position>
            <AltitudeMeters>27.799999237060546875</AltitudeMeters>
            <DistanceMeters>NAN</DistanceMeters>
          </Trackpoint>
          <Trackpoint>
            <Time>2021-08-11T09:03:16.000Z</Time>
            <Position>
              <LatitudeDegrees>43.29075752757489681243896484375</LatitudeDegrees>
              <LongitudeDegrees>-1.71698366291821002960205078125</LongitudeDegrees>
            </Position>
            <AltitudeMeters>27.799999237060546875</AltitudeMeters>
            <DistanceMeters>NAN</DistanceMeters>
          </Trackpoint>
          <Trackpoint>
            <Time>2021-08-11T09:03:17.000Z</Time>
            <Position>
              <LatitudeDegrees>43.290770016610622406005859375</LatitudeDegrees>
              <LongitudeDegrees>-1.7170454375445842742919921875</LongitudeDegrees>
            </Position>
            <AltitudeMeters>27.6000003814697265625</AltitudeMeters>
            <DistanceMeters>NAN</DistanceMeters>
          </Trackpoint>
          <Trackpoint>
            <Time>2021-08-11T09:03:22.000Z</Time>
            <Position>
              <LatitudeDegrees>43.29082793556153774261474609375</LatitudeDegrees>
              <LongitudeDegrees>-1.71735875308513641357421875</LongitudeDegrees>
            </Position>
            <AltitudeMeters>27.3999996185302734375</AltitudeMeters>
            <DistanceMeters>NAN</DistanceMeters>
          </Trackpoint>
          <Trackpoint>
            <Time>2021-08-11T09:03:25.000Z</Time>
            <Position>
              <LatitudeDegrees>43.2908734492957592010498046875</LatitudeDegrees>
              <LongitudeDegrees>-1.71757006086409091949462890625</LongitudeDegrees>
            </Position>
            <AltitudeMeters>27</AltitudeMeters>
            <DistanceMeters>NAN</DistanceMeters>
          </Trackpoint>
          <Trackpoint>
            <Time>2021-08-11T09:03:26.000Z</Time>
            <Position>
              <LatitudeDegrees>43.2908734492957592010498046875</LatitudeDegrees>
              <LongitudeDegrees>-1.71757006086409091949462890625</LongitudeDegrees>
            </Position>
            <AltitudeMeters>27</AltitudeMeters>
            <DistanceMeters>NAN</DistanceMeters>
          </Trackpoint>
          <Trackpoint>
            <Time>2021-08-11T09:03:28.000Z</Time>
            <Position>
              <LatitudeDegrees>43.29090915620326995849609375</LatitudeDegrees>
              <LongitudeDegrees>-1.71776955015957355499267578125</LongitudeDegrees>
            </Position>
            <AltitudeMeters>26.799999237060546875</AltitudeMeters>
            <DistanceMeters>NAN</DistanceMeters>
          </Trackpoint>
          <Trackpoint>
            <Time>2021-08-11T09:03:29.000Z</Time>
            <Position>
              <LatitudeDegrees>43.290923573076725006103515625</LatitudeDegrees>
              <LongitudeDegrees>-1.7178487591445446014404296875</LongitudeDegrees>
            </Position>
            <AltitudeMeters>26.799999237060546875</AltitudeMeters>
            <DistanceMeters>NAN</DistanceMeters>
          </Trackpoint>
          <Trackpoint>
            <Time>2021-08-11T09:03:30.000Z</Time>
            <Position>
              <LatitudeDegrees>43.29093824140727519989013671875</LatitudeDegrees>
              <LongitudeDegrees>-1.71791204251348972320556640625</LongitudeDegrees>
            </Position>
            <AltitudeMeters>26.799999237060546875</AltitudeMeters>
            <DistanceMeters>NAN</DistanceMeters>
          </Trackpoint>
          <Trackpoint>
            <Time>2021-08-11T09:03:32.000Z</Time>
            <Position>
              <LatitudeDegrees>43.29096657223999500274658203125</LatitudeDegrees>
              <LongitudeDegrees>-1.71803064644336700439453125</LongitudeDegrees>
            </Position>
            <AltitudeMeters>26.6000003814697265625</AltitudeMeters>
            <DistanceMeters>NAN</DistanceMeters>
          </Trackpoint>
          <Trackpoint>
            <Time>2021-08-11T09:03:33.000Z</Time>
            <Position>
              <LatitudeDegrees>43.29097126610577106475830078125</LatitudeDegrees>
              <LongitudeDegrees>-1.718059144914150238037109375</LongitudeDegrees>
            </Position>
            <AltitudeMeters>26.6000003814697265625</AltitudeMeters>
            <DistanceMeters>NAN</DistanceMeters>
          </Trackpoint>
          <Trackpoint>
            <Time>2021-08-11T09:03:34.000Z</Time>
            <Position>
              <LatitudeDegrees>43.29097126610577106475830078125</LatitudeDegrees>
              <LongitudeDegrees>-1.718059144914150238037109375</LongitudeDegrees>
            </Position>
            <AltitudeMeters>26.6000003814697265625</AltitudeMeters>
            <DistanceMeters>NAN</DistanceMeters>
          </Trackpoint>
          <Trackpoint>
            <Time>2021-08-11T09:03:37.000Z</Time>
            <Position>
              <LatitudeDegrees>43.2909782230854034423828125</LatitudeDegrees>
              <LongitudeDegrees>-1.7181575484573841094970703125</LongitudeDegrees>
            </Position>
            <AltitudeMeters>26.6000003814697265625</AltitudeMeters>
            <DistanceMeters>NAN</DistanceMeters>
          </Trackpoint>
          <Trackpoint>
            <Time>2021-08-11T09:03:38.000Z</Time>
            <Position>
              <LatitudeDegrees>43.2909782230854034423828125</LatitudeDegrees>
              <LongitudeDegrees>-1.7181575484573841094970703125</LongitudeDegrees>
            </Position>
            <AltitudeMeters>26.6000003814697265625</AltitudeMeters>
            <DistanceMeters>NAN</DistanceMeters>
          </Trackpoint>
          <Trackpoint>
            <Time>2021-08-11T09:03:39.000Z</Time>
            <Position>
              <LatitudeDegrees>43.2909797318279743194580078125</LatitudeDegrees>
              <LongitudeDegrees>-1.71817003749310970306396484375</LongitudeDegrees>
            </Position>
            <AltitudeMeters>26.6000003814697265625</AltitudeMeters>
            <DistanceMeters>NAN</DistanceMeters>
          </Trackpoint>
          <Trackpoint>
            <Time>2021-08-11T09:04:04.000Z</Time>
            <Position>
              <LatitudeDegrees>43.291418440639972686767578125</LatitudeDegrees>
              <LongitudeDegrees>-1.71944953501224517822265625</LongitudeDegrees>
            </Position>
            <AltitudeMeters>25.200000762939453125</AltitudeMeters>
            <DistanceMeters>NAN</DistanceMeters>
          </Trackpoint>
          <Trackpoint>
            <Time>2021-08-11T09:04:05.000Z</Time>
            <Position>
              <LatitudeDegrees>43.2913562469184398651123046875</LatitudeDegrees>
              <LongitudeDegrees>-1.7195211164653301239013671875</LongitudeDegrees>
            </Position>
            <AltitudeMeters>25</AltitudeMeters>
            <DistanceMeters>NAN</DistanceMeters>
          </Trackpoint>
          <Trackpoint>
            <Time>2021-08-11T09:04:09.000Z</Time>
            <Position>
              <LatitudeDegrees>43.29116187058389186859130859375</LatitudeDegrees>
              <LongitudeDegrees>-1.719769723713397979736328125</LongitudeDegrees>
            </Position>
            <AltitudeMeters>24.6000003814697265625</AltitudeMeters>
            <DistanceMeters>NAN</DistanceMeters>
          </Trackpoint>
          <Trackpoint>
            <Time>2021-08-11T09:04:10.000Z</Time>
            <Position>
              <LatitudeDegrees>43.29114913009107112884521484375</LatitudeDegrees>
              <LongitudeDegrees>-1.7198203504085540771484375</LongitudeDegrees>
            </Position>
            <AltitudeMeters>24.6000003814697265625</AltitudeMeters>
            <DistanceMeters>NAN</DistanceMeters>
          </Trackpoint>
          <Trackpoint>
            <Time>2021-08-11T09:04:11.000Z</Time>
            <Position>
              <LatitudeDegrees>43.29114913009107112884521484375</LatitudeDegrees>
              <LongitudeDegrees>-1.7198203504085540771484375</LongitudeDegrees>
            </Position>
            <AltitudeMeters>24.6000003814697265625</AltitudeMeters>
            <DistanceMeters>NAN</DistanceMeters>
          </Trackpoint>
          <Trackpoint>
            <Time>2021-08-11T09:04:12.000Z</Time>
            <Position>
              <LatitudeDegrees>43.29113789834082126617431640625</LatitudeDegrees>
              <LongitudeDegrees>-1.7198681272566318511962890625</LongitudeDegrees>
            </Position>
            <AltitudeMeters>24.3999996185302734375</AltitudeMeters>
            <DistanceMeters>NAN</DistanceMeters>
          </Trackpoint>
          <Trackpoint>
            <Time>2021-08-11T09:04:13.000Z</Time>
            <Position>
              <LatitudeDegrees>43.2911302708089351654052734375</LatitudeDegrees>
              <LongitudeDegrees>-1.71994180418550968170166015625</LongitudeDegrees>
            </Position>
            <AltitudeMeters>24.200000762939453125</AltitudeMeters>
            <DistanceMeters>NAN</DistanceMeters>
          </Trackpoint>
          <Trackpoint>
            <Time>2021-08-11T09:04:14.000Z</Time>
            <Position>
              <LatitudeDegrees>43.29112817533314228057861328125</LatitudeDegrees>
              <LongitudeDegrees>-1.7199734039604663848876953125</LongitudeDegrees>
            </Position>
            <AltitudeMeters>24.200000762939453125</AltitudeMeters>
            <DistanceMeters>NAN</DistanceMeters>
          </Trackpoint>
          <Trackpoint>
            <Time>2021-08-11T09:04:17.000Z</Time>
            <Position>
              <LatitudeDegrees>43.2911332882940769195556640625</LatitudeDegrees>
              <LongitudeDegrees>-1.72008127905428409576416015625</LongitudeDegrees>
            </Position>
            <AltitudeMeters>24.200000762939453125</AltitudeMeters>
            <DistanceMeters>NAN</DistanceMeters>
          </Trackpoint>
          <Trackpoint>
            <Time>2021-08-11T09:04:18.000Z</Time>
            <Position>
              <LatitudeDegrees>43.29113689251244068145751953125</LatitudeDegrees>
              <LongitudeDegrees>-1.720118410885334014892578125</LongitudeDegrees>
            </Position>
            <AltitudeMeters>24.200000762939453125</AltitudeMeters>
            <DistanceMeters>NAN</DistanceMeters>
          </Trackpoint>
          <Trackpoint>
            <Time>2021-08-11T09:04:19.000Z</Time>
            <Position>
              <LatitudeDegrees>43.29113982617855072021484375</LatitudeDegrees>
              <LongitudeDegrees>-1.72016032040119171142578125</LongitudeDegrees>
            </Position>
            <AltitudeMeters>24.200000762939453125</AltitudeMeters>
            <DistanceMeters>NAN</DistanceMeters>
          </Trackpoint>
          <Trackpoint>
            <Time>2021-08-11T09:04:20.000Z</Time>
            <Position>
              <LatitudeDegrees>43.29113940708339214324951171875</LatitudeDegrees>
              <LongitudeDegrees>-1.72019829042255878448486328125</LongitudeDegrees>
            </Position>
            <AltitudeMeters>24</AltitudeMeters>
            <DistanceMeters>NAN</DistanceMeters>
          </Trackpoint>
          <Trackpoint>
            <Time>2021-08-11T09:04:21.000Z</Time>
            <Position>
              <LatitudeDegrees>43.29113940708339214324951171875</LatitudeDegrees>
              <LongitudeDegrees>-1.72019829042255878448486328125</LongitudeDegrees>
            </Position>
            <AltitudeMeters>24</AltitudeMeters>
            <DistanceMeters>NAN</DistanceMeters>
          </Trackpoint>
          <Trackpoint>
            <Time>2021-08-11T09:04:22.000Z</Time>
            <Position>
              <LatitudeDegrees>43.2911379821598529815673828125</LatitudeDegrees>
              <LongitudeDegrees>-1.720265932381153106689453125</LongitudeDegrees>
            </Position>
            <AltitudeMeters>24</AltitudeMeters>
            <DistanceMeters>NAN</DistanceMeters>
          </Trackpoint>
          <Trackpoint>
            <Time>2021-08-11T09:04:23.000Z</Time>
            <Position>
              <LatitudeDegrees>43.29113370738923549652099609375</LatitudeDegrees>
              <LongitudeDegrees>-1.72029904089868068695068359375</LongitudeDegrees>
            </Position>
            <AltitudeMeters>24</AltitudeMeters>
            <DistanceMeters>NAN</DistanceMeters>
          </Trackpoint>
          <Trackpoint>
            <Time>2021-08-11T09:04:24.000Z</Time>
            <Position>
              <LatitudeDegrees>43.29113068990409374237060546875</LatitudeDegrees>
              <LongitudeDegrees>-1.72033826820552349090576171875</LongitudeDegrees>
            </Position>
            <AltitudeMeters>24</AltitudeMeters>
            <DistanceMeters>NAN</DistanceMeters>
          </Trackpoint>
          <Trackpoint>
            <Time>2021-08-11T09:04:29.000Z</Time>
            <Position>
              <LatitudeDegrees>43.2910987548530101776123046875</LatitudeDegrees>
              <LongitudeDegrees>-1.7205579578876495361328125</LongitudeDegrees>
            </Position>
            <AltitudeMeters>23.799999237060546875</AltitudeMeters>
            <DistanceMeters>NAN</DistanceMeters>
          </Trackpoint>
          <Trackpoint>
            <Time>2021-08-11T09:04:30.000Z</Time>
            <Position>
              <LatitudeDegrees>43.29109691083431243896484375</LatitudeDegrees>
              <LongitudeDegrees>-1.7206030525267124176025390625</LongitudeDegrees>
            </Position>
            <AltitudeMeters>23.799999237060546875</AltitudeMeters>
            <DistanceMeters>NAN</DistanceMeters>
          </Trackpoint>
          <Trackpoint>
            <Time>2021-08-11T09:04:37.000Z</Time>
            <Position>
              <LatitudeDegrees>43.2911042869091033935546875</LatitudeDegrees>
              <LongitudeDegrees>-1.720984764397144317626953125</LongitudeDegrees>
            </Position>
            <AltitudeMeters>23.6000003814697265625</AltitudeMeters>
            <DistanceMeters>NAN</DistanceMeters>
          </Trackpoint>
          <Trackpoint>
            <Time>2021-08-11T09:04:40.000Z</Time>
            <Position>
              <LatitudeDegrees>43.2910989224910736083984375</LatitudeDegrees>
              <LongitudeDegrees>-1.72126765362918376922607421875</LongitudeDegrees>
            </Position>
            <AltitudeMeters>23.3999996185302734375</AltitudeMeters>
            <DistanceMeters>NAN</DistanceMeters>
          </Trackpoint>
          <Trackpoint>
            <Time>2021-08-11T09:04:42.000Z</Time>
            <Position>
              <LatitudeDegrees>43.2910984195768833160400390625</LatitudeDegrees>
              <LongitudeDegrees>-1.721419282257556915283203125</LongitudeDegrees>
            </Position>
            <AltitudeMeters>23.3999996185302734375</AltitudeMeters>
            <DistanceMeters>NAN</DistanceMeters>
          </Trackpoint>
          <Trackpoint>
            <Time>2021-08-11T09:04:43.000Z</Time>
            <Position>
              <LatitudeDegrees>43.29110017977654933929443359375</LatitudeDegrees>
              <LongitudeDegrees>-1.7214952223002910614013671875</LongitudeDegrees>
            </Position>
            <AltitudeMeters>23.3999996185302734375</AltitudeMeters>
            <DistanceMeters>NAN</DistanceMeters>
          </Trackpoint>
          <Trackpoint>
            <Time>2021-08-11T09:04:51.000Z</Time>
            <Position>
              <LatitudeDegrees>43.29110763967037200927734375</LatitudeDegrees>
              <LongitudeDegrees>-1.722112633287906646728515625</LongitudeDegrees>
            </Position>
            <AltitudeMeters>22.799999237060546875</AltitudeMeters>
            <DistanceMeters>NAN</DistanceMeters>
          </Trackpoint>
          <Trackpoint>
            <Time>2021-08-11T09:04:54.000Z</Time>
            <Position>
              <LatitudeDegrees>43.29110789112746715545654296875</LatitudeDegrees>
              <LongitudeDegrees>-1.7223575524985790252685546875</LongitudeDegrees>
            </Position>
            <AltitudeMeters>22.3999996185302734375</AltitudeMeters>
            <DistanceMeters>NAN</DistanceMeters>
          </Trackpoint>
          <Trackpoint>
            <Time>2021-08-11T09:04:58.000Z</Time>
            <Position>
              <LatitudeDegrees>43.29111007042229175567626953125</LatitudeDegrees>
              <LongitudeDegrees>-1.72268385998904705047607421875</LongitudeDegrees>
            </Position>
            <AltitudeMeters>22.3999996185302734375</AltitudeMeters>
            <DistanceMeters>NAN</DistanceMeters>
          </Trackpoint>
          <Trackpoint>
            <Time>2021-08-11T09:04:59.000Z</Time>
            <Position>
              <LatitudeDegrees>43.29111509956419467926025390625</LatitudeDegrees>
              <LongitudeDegrees>-1.7227600514888763427734375</LongitudeDegrees>
            </Position>
            <AltitudeMeters>22.3999996185302734375</AltitudeMeters>
            <DistanceMeters>NAN</DistanceMeters>
          </Trackpoint>
          <Trackpoint>
            <Time>2021-08-11T09:05:01.000Z</Time>
            <Position>
              <LatitudeDegrees>43.29113203100860118865966796875</LatitudeDegrees>
              <LongitudeDegrees>-1.72291553579270839691162109375</LongitudeDegrees>
            </Position>
            <AltitudeMeters>22</AltitudeMeters>
            <DistanceMeters>NAN</DistanceMeters>
          </Trackpoint>
          <Trackpoint>
            <Time>2021-08-11T09:05:02.000Z</Time>
            <Position>
              <LatitudeDegrees>43.29113203100860118865966796875</LatitudeDegrees>
              <LongitudeDegrees>-1.72291553579270839691162109375</LongitudeDegrees>
            </Position>
            <AltitudeMeters>22</AltitudeMeters>
            <DistanceMeters>NAN</DistanceMeters>
          </Trackpoint>
          <Trackpoint>
            <Time>2021-08-11T09:05:04.000Z</Time>
            <Position>
              <LatitudeDegrees>43.29113823361694812774658203125</LatitudeDegrees>
              <LongitudeDegrees>-1.72316045500338077545166015625</LongitudeDegrees>
            </Position>
            <AltitudeMeters>22</AltitudeMeters>
            <DistanceMeters>NAN</DistanceMeters>
          </Trackpoint>
          <Trackpoint>
            <Time>2021-08-11T09:05:06.000Z</Time>
            <Position>
              <LatitudeDegrees>43.2911285944283008575439453125</LatitudeDegrees>
              <LongitudeDegrees>-1.72332021407783031463623046875</LongitudeDegrees>
            </Position>
            <AltitudeMeters>21.799999237060546875</AltitudeMeters>
            <DistanceMeters>NAN</DistanceMeters>
          </Trackpoint>
          <Trackpoint>
            <Time>2021-08-11T09:05:07.000Z</Time>
            <Position>
              <LatitudeDegrees>43.2911285944283008575439453125</LatitudeDegrees>
              <LongitudeDegrees>-1.72332021407783031463623046875</LongitudeDegrees>
            </Position>
            <AltitudeMeters>21.799999237060546875</AltitudeMeters>
            <DistanceMeters>NAN</DistanceMeters>
          </Trackpoint>
          <Trackpoint>
            <Time>2021-08-11T09:05:08.000Z</Time>
            <Position>
              <LatitudeDegrees>43.2911239005625247955322265625</LatitudeDegrees>
              <LongitudeDegrees>-1.72339682467281818389892578125</LongitudeDegrees>
            </Position>
            <AltitudeMeters>21.799999237060546875</AltitudeMeters>
            <DistanceMeters>NAN</DistanceMeters>
          </Trackpoint>
          <Trackpoint>
            <Time>2021-08-11T09:05:09.000Z</Time>
            <Position>
              <LatitudeDegrees>43.29111090861260890960693359375</LatitudeDegrees>
              <LongitudeDegrees>-1.72354702837765216827392578125</LongitudeDegrees>
            </Position>
            <AltitudeMeters>21.6000003814697265625</AltitudeMeters>
            <DistanceMeters>NAN</DistanceMeters>
          </Trackpoint>
          <Trackpoint>
            <Time>2021-08-11T09:05:10.000Z</Time>
            <Position>
              <LatitudeDegrees>43.29110898077487945556640625</LatitudeDegrees>
              <LongitudeDegrees>-1.7236202023923397064208984375</LongitudeDegrees>
            </Position>
            <AltitudeMeters>21.6000003814697265625</AltitudeMeters>
            <DistanceMeters>NAN</DistanceMeters>
          </Trackpoint>
          <Trackpoint>
            <Time>2021-08-11T09:05:12.000Z</Time>
            <Position>
              <LatitudeDegrees>43.2911091484129428863525390625</LatitudeDegrees>
              <LongitudeDegrees>-1.72368851490318775177001953125</LongitudeDegrees>
            </Position>
            <AltitudeMeters>21.6000003814697265625</AltitudeMeters>
            <DistanceMeters>NAN</DistanceMeters>
          </Trackpoint>
          <Trackpoint>
            <Time>2021-08-11T09:05:13.000Z</Time>
            <Position>
              <LatitudeDegrees>43.29110370017588138580322265625</LatitudeDegrees>
              <LongitudeDegrees>-1.72382153570652008056640625</LongitudeDegrees>
            </Position>
            <AltitudeMeters>21.6000003814697265625</AltitudeMeters>
            <DistanceMeters>NAN</DistanceMeters>
          </Trackpoint>
          <Trackpoint>
            <Time>2021-08-11T09:05:14.000Z</Time>
            <Position>
              <LatitudeDegrees>43.29110034741461277008056640625</LatitudeDegrees>
              <LongitudeDegrees>-1.72388817183673381805419921875</LongitudeDegrees>
            </Position>
            <AltitudeMeters>21.6000003814697265625</AltitudeMeters>
            <DistanceMeters>NAN</DistanceMeters>
          </Trackpoint>
          <Trackpoint>
            <Time>2021-08-11T09:05:15.000Z</Time>
            <Position>
              <LatitudeDegrees>43.29108609817922115325927734375</LatitudeDegrees>
              <LongitudeDegrees>-1.72396369278430938720703125</LongitudeDegrees>
            </Position>
            <AltitudeMeters>21.3999996185302734375</AltitudeMeters>
            <DistanceMeters>NAN</DistanceMeters>
          </Trackpoint>
          <Trackpoint>
            <Time>2021-08-11T09:05:17.000Z</Time>
            <Position>
              <LatitudeDegrees>43.29108090139925479888916015625</LatitudeDegrees>
              <LongitudeDegrees>-1.7241132259368896484375</LongitudeDegrees>
            </Position>
            <AltitudeMeters>21.3999996185302734375</AltitudeMeters>
            <DistanceMeters>NAN</DistanceMeters>
          </Trackpoint>
          <Trackpoint>
            <Time>2021-08-11T09:05:19.000Z</Time>
            <Position>
              <LatitudeDegrees>43.29108609817922115325927734375</LatitudeDegrees>
              <LongitudeDegrees>-1.72426351346075534820556640625</LongitudeDegrees>
            </Position>
            <AltitudeMeters>21.3999996185302734375</AltitudeMeters>
            <DistanceMeters>NAN</DistanceMeters>
          </Trackpoint>
          <Trackpoint>
            <Time>2021-08-11T09:05:21.000Z</Time>
            <Position>
              <LatitudeDegrees>43.291092216968536376953125</LatitudeDegrees>
              <LongitudeDegrees>-1.724409274756908416748046875</LongitudeDegrees>
            </Position>
            <AltitudeMeters>21.200000762939453125</AltitudeMeters>
            <DistanceMeters>NAN</DistanceMeters>
          </Trackpoint>
          <Trackpoint>
            <Time>2021-08-11T09:05:24.000Z</Time>
            <Position>
              <LatitudeDegrees>43.29107989557087421417236328125</LatitudeDegrees>
              <LongitudeDegrees>-1.7245428822934627532958984375</LongitudeDegrees>
            </Position>
            <AltitudeMeters>21</AltitudeMeters>
            <DistanceMeters>NAN</DistanceMeters>
          </Trackpoint>
          <Trackpoint>
            <Time>2021-08-11T09:05:25.000Z</Time>
            <Position>
              <LatitudeDegrees>43.29107721336185932159423828125</LatitudeDegrees>
              <LongitudeDegrees>-1.72464941628277301788330078125</LongitudeDegrees>
            </Position>
            <AltitudeMeters>21</AltitudeMeters>
            <DistanceMeters>NAN</DistanceMeters>
          </Trackpoint>
          <Trackpoint>
            <Time>2021-08-11T09:05:26.000Z</Time>
            <Position>
              <LatitudeDegrees>43.29108157195150852203369140625</LatitudeDegrees>
              <LongitudeDegrees>-1.72468847595155239105224609375</LongitudeDegrees>
            </Position>
            <AltitudeMeters>21</AltitudeMeters>
            <DistanceMeters>NAN</DistanceMeters>
          </Trackpoint>
          <Trackpoint>
            <Time>2021-08-11T09:05:27.000Z</Time>
            <Position>
              <LatitudeDegrees>43.29108157195150852203369140625</LatitudeDegrees>
              <LongitudeDegrees>-1.72468847595155239105224609375</LongitudeDegrees>
            </Position>
            <AltitudeMeters>21</AltitudeMeters>
            <DistanceMeters>NAN</DistanceMeters>
          </Trackpoint>
          <Trackpoint>
            <Time>2021-08-11T09:05:28.000Z</Time>
            <Position>
              <LatitudeDegrees>43.29108375124633312225341796875</LatitudeDegrees>
              <LongitudeDegrees>-1.7247502505779266357421875</LongitudeDegrees>
            </Position>
            <AltitudeMeters>20.799999237060546875</AltitudeMeters>
            <DistanceMeters>NAN</DistanceMeters>
          </Trackpoint>
          <Trackpoint>
            <Time>2021-08-11T09:05:29.000Z</Time>
            <Position>
              <LatitudeDegrees>43.29108693636953830718994140625</LatitudeDegrees>
              <LongitudeDegrees>-1.7247879691421985626220703125</LongitudeDegrees>
            </Position>
            <AltitudeMeters>20.799999237060546875</AltitudeMeters>
            <DistanceMeters>NAN</DistanceMeters>
          </Trackpoint>
          <Trackpoint>
            <Time>2021-08-11T09:05:30.000Z</Time>
            <Position>
              <LatitudeDegrees>43.29109230078756809234619140625</LatitudeDegrees>
              <LongitudeDegrees>-1.7248359136283397674560546875</LongitudeDegrees>
            </Position>
            <AltitudeMeters>20.799999237060546875</AltitudeMeters>
            <DistanceMeters>NAN</DistanceMeters>
          </Trackpoint>
          <Trackpoint>
            <Time>2021-08-11T09:05:31.000Z</Time>
            <Position>
              <LatitudeDegrees>43.29109313897788524627685546875</LatitudeDegrees>
              <LongitudeDegrees>-1.72488679178059101104736328125</LongitudeDegrees>
            </Position>
            <AltitudeMeters>20.799999237060546875</AltitudeMeters>
            <DistanceMeters>NAN</DistanceMeters>
          </Trackpoint>
          <Trackpoint>
            <Time>2021-08-11T09:05:35.000Z</Time>
            <Position>
              <LatitudeDegrees>43.29109196551144123077392578125</LatitudeDegrees>
              <LongitudeDegrees>-1.72506448812782764434814453125</LongitudeDegrees>
            </Position>
            <AltitudeMeters>20.799999237060546875</AltitudeMeters>
            <DistanceMeters>NAN</DistanceMeters>
          </Trackpoint>
          <Trackpoint>
            <Time>2021-08-11T09:05:36.000Z</Time>
            <Position>
              <LatitudeDegrees>43.29109364189207553863525390625</LatitudeDegrees>
              <LongitudeDegrees>-1.72511176206171512603759765625</LongitudeDegrees>
            </Position>
            <AltitudeMeters>20.799999237060546875</AltitudeMeters>
            <DistanceMeters>NAN</DistanceMeters>
          </Trackpoint>
          <Trackpoint>
            <Time>2021-08-11T09:05:37.000Z</Time>
            <Position>
              <LatitudeDegrees>43.29109364189207553863525390625</LatitudeDegrees>
              <LongitudeDegrees>-1.72511176206171512603759765625</LongitudeDegrees>
            </Position>
            <AltitudeMeters>20.799999237060546875</AltitudeMeters>
            <DistanceMeters>NAN</DistanceMeters>
          </Trackpoint>
          <Trackpoint>
            <Time>2021-08-11T09:05:39.000Z</Time>
            <Position>
              <LatitudeDegrees>43.29108660109341144561767578125</LatitudeDegrees>
              <LongitudeDegrees>-1.72527671791613101959228515625</LongitudeDegrees>
            </Position>
            <AltitudeMeters>20.799999237060546875</AltitudeMeters>
            <DistanceMeters>NAN</DistanceMeters>
          </Trackpoint>
          <Trackpoint>
            <Time>2021-08-11T09:05:40.000Z</Time>
            <Position>
              <LatitudeDegrees>43.2910881936550140380859375</LatitudeDegrees>
              <LongitudeDegrees>-1.7253388278186321258544921875</LongitudeDegrees>
            </Position>
            <AltitudeMeters>20.799999237060546875</AltitudeMeters>
            <DistanceMeters>NAN</DistanceMeters>
          </Trackpoint>
          <Trackpoint>
            <Time>2021-08-11T09:05:41.000Z</Time>
            <Position>
              <LatitudeDegrees>43.29108777455985546112060546875</LatitudeDegrees>
              <LongitudeDegrees>-1.72540009953081607818603515625</LongitudeDegrees>
            </Position>
            <AltitudeMeters>20.799999237060546875</AltitudeMeters>
            <DistanceMeters>NAN</DistanceMeters>
          </Trackpoint>
          <Trackpoint>
            <Time>2021-08-11T09:05:43.000Z</Time>
            <Position>
              <LatitudeDegrees>43.29107671044766902923583984375</LatitudeDegrees>
              <LongitudeDegrees>-1.72551409341394901275634765625</LongitudeDegrees>
            </Position>
            <AltitudeMeters>20.799999237060546875</AltitudeMeters>
            <DistanceMeters>NAN</DistanceMeters>
          </Trackpoint>
          <Trackpoint>
            <Time>2021-08-11T09:05:44.000Z</Time>
            <Position>
              <LatitudeDegrees>43.29107184894382953643798828125</LatitudeDegrees>
              <LongitudeDegrees>-1.725569330155849456787109375</LongitudeDegrees>
            </Position>
            <AltitudeMeters>20.799999237060546875</AltitudeMeters>
            <DistanceMeters>NAN</DistanceMeters>
          </Trackpoint>
          <Trackpoint>
            <Time>2021-08-11T09:05:45.000Z</Time>
            <Position>
              <LatitudeDegrees>43.2910692505538463592529296875</LatitudeDegrees>
              <LongitudeDegrees>-1.7256248183548450469970703125</LongitudeDegrees>
            </Position>
            <AltitudeMeters>20.799999237060546875</AltitudeMeters>
            <DistanceMeters>NAN</DistanceMeters>
          </Trackpoint>
          <Trackpoint>
            <Time>2021-08-11T09:05:46.000Z</Time>
            <Position>
              <LatitudeDegrees>43.2910742796957492828369140625</LatitudeDegrees>
              <LongitudeDegrees>-1.7256798036396503448486328125</LongitudeDegrees>
            </Position>
            <AltitudeMeters>20.799999237060546875</AltitudeMeters>
            <DistanceMeters>NAN</DistanceMeters>
          </Trackpoint>
          <Trackpoint>
            <Time>2021-08-11T09:05:47.000Z</Time>
            <Position>
              <LatitudeDegrees>43.2910742796957492828369140625</LatitudeDegrees>
              <LongitudeDegrees>-1.7256798036396503448486328125</LongitudeDegrees>
            </Position>
            <AltitudeMeters>20.799999237060546875</AltitudeMeters>
            <DistanceMeters>NAN</DistanceMeters>
          </Trackpoint>
          <Trackpoint>
            <Time>2021-08-11T09:05:48.000Z</Time>
            <Position>
              <LatitudeDegrees>43.2910799793899059295654296875</LatitudeDegrees>
              <LongitudeDegrees>-1.72575138509273529052734375</LongitudeDegrees>
            </Position>
            <AltitudeMeters>20.799999237060546875</AltitudeMeters>
            <DistanceMeters>NAN</DistanceMeters>
          </Trackpoint>
          <Trackpoint>
            <Time>2021-08-11T09:05:49.000Z</Time>
            <Position>
              <LatitudeDegrees>43.2910772971808910369873046875</LatitudeDegrees>
              <LongitudeDegrees>-1.7257592640817165374755859375</LongitudeDegrees>
            </Position>
            <AltitudeMeters>20.799999237060546875</AltitudeMeters>
            <DistanceMeters>NAN</DistanceMeters>
          </Trackpoint>
          <Trackpoint>
            <Time>2021-08-11T09:05:50.000Z</Time>
            <Position>
              <LatitudeDegrees>43.29108123667538166046142578125</LatitudeDegrees>
              <LongitudeDegrees>-1.72576420940458774566650390625</LongitudeDegrees>
            </Position>
            <AltitudeMeters>20.6000003814697265625</AltitudeMeters>
            <DistanceMeters>NAN</DistanceMeters>
          </Trackpoint>
          <Trackpoint>
            <Time>2021-08-11T09:05:51.000Z</Time>
            <Position>
              <LatitudeDegrees>43.29108324833214282989501953125</LatitudeDegrees>
              <LongitudeDegrees>-1.72577225603163242340087890625</LongitudeDegrees>
            </Position>
            <AltitudeMeters>20.6000003814697265625</AltitudeMeters>
            <DistanceMeters>NAN</DistanceMeters>
          </Trackpoint>
          <Trackpoint>
            <Time>2021-08-11T09:05:52.000Z</Time>
            <Position>
              <LatitudeDegrees>43.29108324833214282989501953125</LatitudeDegrees>
              <LongitudeDegrees>-1.72577225603163242340087890625</LongitudeDegrees>
            </Position>
            <AltitudeMeters>20.6000003814697265625</AltitudeMeters>
            <DistanceMeters>NAN</DistanceMeters>
          </Trackpoint>
          <Trackpoint>
            <Time>2021-08-11T09:05:57.000Z</Time>
            <Position>
              <LatitudeDegrees>43.29108140431344509124755859375</LatitudeDegrees>
              <LongitudeDegrees>-1.72577560879290103912353515625</LongitudeDegrees>
            </Position>
            <AltitudeMeters>20.6000003814697265625</AltitudeMeters>
            <DistanceMeters>NAN</DistanceMeters>
          </Trackpoint>
          <Trackpoint>
            <Time>2021-08-11T09:06:08.000Z</Time>
            <Position>
              <LatitudeDegrees>43.29108140431344509124755859375</LatitudeDegrees>
              <LongitudeDegrees>-1.72577560879290103912353515625</LongitudeDegrees>
            </Position>
            <AltitudeMeters>20.3999996185302734375</AltitudeMeters>
            <DistanceMeters>NAN</DistanceMeters>
          </Trackpoint>
          <Trackpoint>
            <Time>2021-08-11T09:09:59.000Z</Time>
            <Position>
              <LatitudeDegrees>43.29108106903731822967529296875</LatitudeDegrees>
              <LongitudeDegrees>-1.72577527351677417755126953125</LongitudeDegrees>
            </Position>
            <AltitudeMeters>19.6000003814697265625</AltitudeMeters>
            <DistanceMeters>NAN</DistanceMeters>
          </Trackpoint>
          <Trackpoint>
            <Time>2021-08-11T09:10:10.000Z</Time>
            <Position>
              <LatitudeDegrees>43.291083835065364837646484375</LatitudeDegrees>
              <LongitudeDegrees>-1.725789941847324371337890625</LongitudeDegrees>
            </Position>
            <AltitudeMeters>19.6000003814697265625</AltitudeMeters>
            <DistanceMeters>NAN</DistanceMeters>
          </Trackpoint>
          <Trackpoint>
            <Time>2021-08-11T09:10:12.000Z</Time>
            <Position>
              <LatitudeDegrees>43.291083164513111114501953125</LatitudeDegrees>
              <LongitudeDegrees>-1.725808717310428619384765625</LongitudeDegrees>
            </Position>
            <AltitudeMeters>19.6000003814697265625</AltitudeMeters>
            <DistanceMeters>NAN</DistanceMeters>
          </Trackpoint>
          <Trackpoint>
            <Time>2021-08-11T09:10:13.000Z</Time>
            <Position>
              <LatitudeDegrees>43.291083164513111114501953125</LatitudeDegrees>
              <LongitudeDegrees>-1.725808717310428619384765625</LongitudeDegrees>
            </Position>
            <AltitudeMeters>19.6000003814697265625</AltitudeMeters>
            <DistanceMeters>NAN</DistanceMeters>
          </Trackpoint>
          <Trackpoint>
            <Time>2021-08-11T09:10:18.000Z</Time>
            <Position>
              <LatitudeDegrees>43.2910809852182865142822265625</LatitudeDegrees>
              <LongitudeDegrees>-1.72583763487637042999267578125</LongitudeDegrees>
            </Position>
            <AltitudeMeters>19.6000003814697265625</AltitudeMeters>
            <DistanceMeters>NAN</DistanceMeters>
          </Trackpoint>
          <Trackpoint>
            <Time>2021-08-11T09:10:22.000Z</Time>
            <Position>
              <LatitudeDegrees>43.29106329940259456634521484375</LatitudeDegrees>
              <LongitudeDegrees>-1.7259922809898853302001953125</LongitudeDegrees>
            </Position>
            <AltitudeMeters>19.6000003814697265625</AltitudeMeters>
            <DistanceMeters>NAN</DistanceMeters>
          </Trackpoint>
          <Trackpoint>
            <Time>2021-08-11T09:10:26.000Z</Time>
            <Position>
              <LatitudeDegrees>43.2910612039268016815185546875</LatitudeDegrees>
              <LongitudeDegrees>-1.72620861791074275970458984375</LongitudeDegrees>
            </Position>
            <AltitudeMeters>19.3999996185302734375</AltitudeMeters>
            <DistanceMeters>NAN</DistanceMeters>
          </Trackpoint>
          <Trackpoint>
            <Time>2021-08-11T09:10:27.000Z</Time>
            <Position>
              <LatitudeDegrees>43.29106447286903858184814453125</LatitudeDegrees>
              <LongitudeDegrees>-1.72623954713344573974609375</LongitudeDegrees>
            </Position>
            <AltitudeMeters>19.3999996185302734375</AltitudeMeters>
            <DistanceMeters>NAN</DistanceMeters>
          </Trackpoint>
          <Trackpoint>
            <Time>2021-08-11T09:10:28.000Z</Time>
            <Position>
              <LatitudeDegrees>43.29106966964900493621826171875</LatitudeDegrees>
              <LongitudeDegrees>-1.72628254629671573638916015625</LongitudeDegrees>
            </Position>
            <AltitudeMeters>19.6000003814697265625</AltitudeMeters>
            <DistanceMeters>NAN</DistanceMeters>
          </Trackpoint>
          <Trackpoint>
            <Time>2021-08-11T09:10:29.000Z</Time>
            <Position>
              <LatitudeDegrees>43.29107419587671756744384765625</LatitudeDegrees>
              <LongitudeDegrees>-1.72631104476749897003173828125</LongitudeDegrees>
            </Position>
            <AltitudeMeters>19.6000003814697265625</AltitudeMeters>
            <DistanceMeters>NAN</DistanceMeters>
          </Trackpoint>
          <Trackpoint>
            <Time>2021-08-11T09:10:30.000Z</Time>
            <Position>
              <LatitudeDegrees>43.2910774648189544677734375</LatitudeDegrees>
              <LongitudeDegrees>-1.7263325862586498260498046875</LongitudeDegrees>
            </Position>
            <AltitudeMeters>19.6000003814697265625</AltitudeMeters>
            <DistanceMeters>NAN</DistanceMeters>
          </Trackpoint>
          <Trackpoint>
            <Time>2021-08-11T09:10:31.000Z</Time>
            <Position>
              <LatitudeDegrees>43.2910786382853984832763671875</LatitudeDegrees>
              <LongitudeDegrees>-1.726348511874675750732421875</LongitudeDegrees>
            </Position>
            <AltitudeMeters>19.6000003814697265625</AltitudeMeters>
            <DistanceMeters>NAN</DistanceMeters>
          </Trackpoint>
          <Trackpoint>
            <Time>2021-08-11T09:10:32.000Z</Time>
            <Position>
              <LatitudeDegrees>43.29107813537120819091796875</LatitudeDegrees>
              <LongitudeDegrees>-1.72635328955948352813720703125</LongitudeDegrees>
            </Position>
            <AltitudeMeters>19.6000003814697265625</AltitudeMeters>
            <DistanceMeters>NAN</DistanceMeters>
          </Trackpoint>
          <Trackpoint>
            <Time>2021-08-11T09:10:33.000Z</Time>
            <Position>
              <LatitudeDegrees>43.2910692505538463592529296875</LatitudeDegrees>
              <LongitudeDegrees>-1.72634339891374111175537109375</LongitudeDegrees>
            </Position>
            <AltitudeMeters>19.799999237060546875</AltitudeMeters>
            <DistanceMeters>NAN</DistanceMeters>
          </Trackpoint>
          <Trackpoint>
            <Time>2021-08-11T09:10:34.000Z</Time>
            <Position>
              <LatitudeDegrees>43.2910635508596897125244140625</LatitudeDegrees>
              <LongitudeDegrees>-1.7263262160122394561767578125</LongitudeDegrees>
            </Position>
            <AltitudeMeters>19.799999237060546875</AltitudeMeters>
            <DistanceMeters>NAN</DistanceMeters>
          </Trackpoint>
          <Trackpoint>
            <Time>2021-08-11T09:10:37.000Z</Time>
            <Position>
              <LatitudeDegrees>43.2910742796957492828369140625</LatitudeDegrees>
              <LongitudeDegrees>-1.7262591607868671417236328125</LongitudeDegrees>
            </Position>
            <AltitudeMeters>19.799999237060546875</AltitudeMeters>
            <DistanceMeters>NAN</DistanceMeters>
          </Trackpoint>
          <Trackpoint>
            <Time>2021-08-11T09:10:38.000Z</Time>
            <Position>
              <LatitudeDegrees>43.29107285477221012115478515625</LatitudeDegrees>
              <LongitudeDegrees>-1.7262273095548152923583984375</LongitudeDegrees>
            </Position>
            <AltitudeMeters>19.799999237060546875</AltitudeMeters>
            <DistanceMeters>NAN</DistanceMeters>
          </Trackpoint>
          <Trackpoint>
            <Time>2021-08-11T09:10:42.000Z</Time>
            <Position>
              <LatitudeDegrees>43.2910461165010929107666015625</LatitudeDegrees>
              <LongitudeDegrees>-1.7261146567761898040771484375</LongitudeDegrees>
            </Position>
            <AltitudeMeters>19.799999237060546875</AltitudeMeters>
            <DistanceMeters>NAN</DistanceMeters>
          </Trackpoint>
          <Trackpoint>
            <Time>2021-08-11T09:10:43.000Z</Time>
            <Position>
              <LatitudeDegrees>43.29104502685368061065673828125</LatitudeDegrees>
              <LongitudeDegrees>-1.72609294764697551727294921875</LongitudeDegrees>
            </Position>
            <AltitudeMeters>19.799999237060546875</AltitudeMeters>
            <DistanceMeters>NAN</DistanceMeters>
          </Trackpoint>
          <Trackpoint>
            <Time>2021-08-11T09:10:44.000Z</Time>
            <Position>
              <LatitudeDegrees>43.29104318283498287200927734375</LatitudeDegrees>
              <LongitudeDegrees>-1.7260613478720188140869140625</LongitudeDegrees>
            </Position>
            <AltitudeMeters>19.799999237060546875</AltitudeMeters>
            <DistanceMeters>NAN</DistanceMeters>
          </Trackpoint>
          <Trackpoint>
            <Time>2021-08-11T09:10:45.000Z</Time>
            <Position>
              <LatitudeDegrees>43.29104351811110973358154296875</LatitudeDegrees>
              <LongitudeDegrees>-1.72603695653378963470458984375</LongitudeDegrees>
            </Position>
            <AltitudeMeters>19.799999237060546875</AltitudeMeters>
            <DistanceMeters>NAN</DistanceMeters>
          </Trackpoint>
          <Trackpoint>
            <Time>2021-08-11T09:10:47.000Z</Time>
            <Position>
              <LatitudeDegrees>43.29105374403297901153564453125</LatitudeDegrees>
              <LongitudeDegrees>-1.7259936220943927764892578125</LongitudeDegrees>
            </Position>
            <AltitudeMeters>19.799999237060546875</AltitudeMeters>
            <DistanceMeters>NAN</DistanceMeters>
          </Trackpoint>
          <Trackpoint>
            <Time>2021-08-11T09:10:48.000Z</Time>
            <Position>
              <LatitudeDegrees>43.29104871489107608795166015625</LatitudeDegrees>
              <LongitudeDegrees>-1.72596939839422702789306640625</LongitudeDegrees>
            </Position>
            <AltitudeMeters>19.799999237060546875</AltitudeMeters>
            <DistanceMeters>NAN</DistanceMeters>
          </Trackpoint>
          <Trackpoint>
            <Time>2021-08-11T09:10:49.000Z</Time>
            <Position>
              <LatitudeDegrees>43.2910399138927459716796875</LatitudeDegrees>
              <LongitudeDegrees>-1.72593939118087291717529296875</LongitudeDegrees>
            </Position>
            <AltitudeMeters>19.799999237060546875</AltitudeMeters>
            <DistanceMeters>NAN</DistanceMeters>
          </Trackpoint>
          <Trackpoint>
            <Time>2021-08-11T09:10:50.000Z</Time>
            <Position>
              <LatitudeDegrees>43.29104083590209484100341796875</LatitudeDegrees>
              <LongitudeDegrees>-1.72591106034815311431884765625</LongitudeDegrees>
            </Position>
            <AltitudeMeters>19.6000003814697265625</AltitudeMeters>
            <DistanceMeters>NAN</DistanceMeters>
          </Trackpoint>
          <Trackpoint>
            <Time>2021-08-11T09:10:51.000Z</Time>
            <Position>
              <LatitudeDegrees>43.29104284755885601043701171875</LatitudeDegrees>
              <LongitudeDegrees>-1.72588323242962360382080078125</LongitudeDegrees>
            </Position>
            <AltitudeMeters>19.6000003814697265625</AltitudeMeters>
            <DistanceMeters>NAN</DistanceMeters>
          </Trackpoint>
          <Trackpoint>
            <Time>2021-08-11T09:10:52.000Z</Time>
            <Position>
              <LatitudeDegrees>43.29104485921561717987060546875</LatitudeDegrees>
              <LongitudeDegrees>-1.725861020386219024658203125</LongitudeDegrees>
            </Position>
            <AltitudeMeters>19.799999237060546875</AltitudeMeters>
            <DistanceMeters>NAN</DistanceMeters>
          </Trackpoint>
          <Trackpoint>
            <Time>2021-08-11T09:10:53.000Z</Time>
            <Position>
              <LatitudeDegrees>43.29104594886302947998046875</LatitudeDegrees>
              <LongitudeDegrees>-1.72583327628672122955322265625</LongitudeDegrees>
            </Position>
            <AltitudeMeters>19.799999237060546875</AltitudeMeters>
            <DistanceMeters>NAN</DistanceMeters>
          </Trackpoint>
          <Trackpoint>
            <Time>2021-08-11T09:10:54.000Z</Time>
            <Position>
              <LatitudeDegrees>43.29105223529040813446044921875</LatitudeDegrees>
              <LongitudeDegrees>-1.72579974867403507232666015625</LongitudeDegrees>
            </Position>
            <AltitudeMeters>19.799999237060546875</AltitudeMeters>
            <DistanceMeters>NAN</DistanceMeters>
          </Trackpoint>
          <Trackpoint>
            <Time>2021-08-11T09:10:55.000Z</Time>
            <Position>
              <LatitudeDegrees>43.2910498045384883880615234375</LatitudeDegrees>
              <LongitudeDegrees>-1.725771166384220123291015625</LongitudeDegrees>
            </Position>
            <AltitudeMeters>19.799999237060546875</AltitudeMeters>
            <DistanceMeters>NAN</DistanceMeters>
          </Trackpoint>
          <Trackpoint>
            <Time>2021-08-11T09:10:59.000Z</Time>
            <Position>
              <LatitudeDegrees>43.29105726443231105804443359375</LatitudeDegrees>
              <LongitudeDegrees>-1.72569581307470798492431640625</LongitudeDegrees>
            </Position>
            <AltitudeMeters>19.799999237060546875</AltitudeMeters>
            <DistanceMeters>NAN</DistanceMeters>
          </Trackpoint>
          <Trackpoint>
            <Time>2021-08-11T09:11:00.000Z</Time>
            <Position>
              <LatitudeDegrees>43.29107419587671756744384765625</LatitudeDegrees>
              <LongitudeDegrees>-1.72570838592946529388427734375</LongitudeDegrees>
            </Position>
            <AltitudeMeters>19.799999237060546875</AltitudeMeters>
            <DistanceMeters>NAN</DistanceMeters>
          </Trackpoint>
          <Trackpoint>
            <Time>2021-08-11T09:11:04.000Z</Time>
            <Position>
              <LatitudeDegrees>43.29105407930910587310791015625</LatitudeDegrees>
              <LongitudeDegrees>-1.72583193518221378326416015625</LongitudeDegrees>
            </Position>
            <AltitudeMeters>19.799999237060546875</AltitudeMeters>
            <DistanceMeters>NAN</DistanceMeters>
          </Trackpoint>
          <Trackpoint>
            <Time>2021-08-11T09:11:05.000Z</Time>
            <Position>
              <LatitudeDegrees>43.29105474986135959625244140625</LatitudeDegrees>
              <LongitudeDegrees>-1.72587753273546695709228515625</LongitudeDegrees>
            </Position>
            <AltitudeMeters>19.799999237060546875</AltitudeMeters>
            <DistanceMeters>NAN</DistanceMeters>
          </Trackpoint>
          <Trackpoint>
            <Time>2021-08-11T09:11:06.000Z</Time>
            <Position>
              <LatitudeDegrees>43.29105927608907222747802734375</LatitudeDegrees>
              <LongitudeDegrees>-1.725923717021942138671875</LongitudeDegrees>
            </Position>
            <AltitudeMeters>19.799999237060546875</AltitudeMeters>
            <DistanceMeters>NAN</DistanceMeters>
          </Trackpoint>
          <Trackpoint>
            <Time>2021-08-11T09:11:07.000Z</Time>
            <Position>
              <LatitudeDegrees>43.2910615392029285430908203125</LatitudeDegrees>
              <LongitudeDegrees>-1.72596017830073833465576171875</LongitudeDegrees>
            </Position>
            <AltitudeMeters>19.799999237060546875</AltitudeMeters>
            <DistanceMeters>NAN</DistanceMeters>
          </Trackpoint>
          <Trackpoint>
            <Time>2021-08-11T09:11:10.000Z</Time>
            <Position>
              <LatitudeDegrees>43.291071094572544097900390625</LatitudeDegrees>
              <LongitudeDegrees>-1.726126559078693389892578125</LongitudeDegrees>
            </Position>
            <AltitudeMeters>19.6000003814697265625</AltitudeMeters>
            <DistanceMeters>NAN</DistanceMeters>
          </Trackpoint>
          <Trackpoint>
            <Time>2021-08-11T09:11:15.000Z</Time>
            <Position>
              <LatitudeDegrees>43.29113119281828403472900390625</LatitudeDegrees>
              <LongitudeDegrees>-1.72645705752074718475341796875</LongitudeDegrees>
            </Position>
            <AltitudeMeters>19.799999237060546875</AltitudeMeters>
            <DistanceMeters>NAN</DistanceMeters>
          </Trackpoint>
          <Trackpoint>
            <Time>2021-08-11T09:11:16.000Z</Time>
            <Position>
              <LatitudeDegrees>43.29114309512078762054443359375</LatitudeDegrees>
              <LongitudeDegrees>-1.72652595676481723785400390625</LongitudeDegrees>
            </Position>
            <AltitudeMeters>19.799999237060546875</AltitudeMeters>
            <DistanceMeters>NAN</DistanceMeters>
          </Trackpoint>
          <Trackpoint>
            <Time>2021-08-11T09:11:18.000Z</Time>
            <Position>
              <LatitudeDegrees>43.29113714396953582763671875</LatitudeDegrees>
              <LongitudeDegrees>-1.7266608215868473052978515625</LongitudeDegrees>
            </Position>
            <AltitudeMeters>19.799999237060546875</AltitudeMeters>
            <DistanceMeters>NAN</DistanceMeters>
          </Trackpoint>
          <Trackpoint>
            <Time>2021-08-11T09:11:19.000Z</Time>
            <Position>
              <LatitudeDegrees>43.2911302708089351654052734375</LatitudeDegrees>
              <LongitudeDegrees>-1.726717315614223480224609375</LongitudeDegrees>
            </Position>
            <AltitudeMeters>19.799999237060546875</AltitudeMeters>
            <DistanceMeters>NAN</DistanceMeters>
          </Trackpoint>
          <Trackpoint>
            <Time>2021-08-11T09:11:20.000Z</Time>
            <Position>
              <LatitudeDegrees>43.29111811704933643341064453125</LatitudeDegrees>
              <LongitudeDegrees>-1.72680758871138095855712890625</LongitudeDegrees>
            </Position>
            <AltitudeMeters>19.799999237060546875</AltitudeMeters>
            <DistanceMeters>NAN</DistanceMeters>
          </Trackpoint>
          <Trackpoint>
            <Time>2021-08-11T09:11:22.000Z</Time>
            <Position>
              <LatitudeDegrees>43.2911037839949131011962890625</LatitudeDegrees>
              <LongitudeDegrees>-1.7269448004662990570068359375</LongitudeDegrees>
            </Position>
            <AltitudeMeters>19.799999237060546875</AltitudeMeters>
            <DistanceMeters>NAN</DistanceMeters>
          </Trackpoint>
          <Trackpoint>
            <Time>2021-08-11T09:11:24.000Z</Time>
            <Position>
              <LatitudeDegrees>43.2911002635955810546875</LatitudeDegrees>
              <LongitudeDegrees>-1.72705552540719509124755859375</LongitudeDegrees>
            </Position>
            <AltitudeMeters>19.799999237060546875</AltitudeMeters>
            <DistanceMeters>NAN</DistanceMeters>
          </Trackpoint>
          <Trackpoint>
            <Time>2021-08-11T09:11:25.000Z</Time>
            <Position>
              <LatitudeDegrees>43.2910957373678684234619140625</LatitudeDegrees>
              <LongitudeDegrees>-1.72711134888231754302978515625</LongitudeDegrees>
            </Position>
            <AltitudeMeters>19.6000003814697265625</AltitudeMeters>
            <DistanceMeters>NAN</DistanceMeters>
          </Trackpoint>
          <Trackpoint>
            <Time>2021-08-11T09:11:26.000Z</Time>
            <Position>
              <LatitudeDegrees>43.2910933904349803924560546875</LatitudeDegrees>
              <LongitudeDegrees>-1.7271707765758037567138671875</LongitudeDegrees>
            </Position>
            <AltitudeMeters>19.6000003814697265625</AltitudeMeters>
            <DistanceMeters>NAN</DistanceMeters>
          </Trackpoint>
          <Trackpoint>
            <Time>2021-08-11T09:11:27.000Z</Time>
            <Position>
              <LatitudeDegrees>43.29109288752079010009765625</LatitudeDegrees>
              <LongitudeDegrees>-1.7272351495921611785888671875</LongitudeDegrees>
            </Position>
            <AltitudeMeters>19.6000003814697265625</AltitudeMeters>
            <DistanceMeters>NAN</DistanceMeters>
          </Trackpoint>
          <Trackpoint>
            <Time>2021-08-11T09:11:31.000Z</Time>
            <Position>
              <LatitudeDegrees>43.291069753468036651611328125</LatitudeDegrees>
              <LongitudeDegrees>-1.72750412486493587493896484375</LongitudeDegrees>
            </Position>
            <AltitudeMeters>19.3999996185302734375</AltitudeMeters>
            <DistanceMeters>NAN</DistanceMeters>
          </Trackpoint>
          <Trackpoint>
            <Time>2021-08-11T09:11:32.000Z</Time>
            <Position>
              <LatitudeDegrees>43.2910652272403240203857421875</LatitudeDegrees>
              <LongitudeDegrees>-1.72757168300449848175048828125</LongitudeDegrees>
            </Position>
            <AltitudeMeters>19.3999996185302734375</AltitudeMeters>
            <DistanceMeters>NAN</DistanceMeters>
          </Trackpoint>
          <Trackpoint>
            <Time>2021-08-11T09:11:36.000Z</Time>
            <Position>
              <LatitudeDegrees>43.29111208207905292510986328125</LatitudeDegrees>
              <LongitudeDegrees>-1.7278587631881237030029296875</LongitudeDegrees>
            </Position>
            <AltitudeMeters>19.3999996185302734375</AltitudeMeters>
            <DistanceMeters>NAN</DistanceMeters>
          </Trackpoint>
          <Trackpoint>
            <Time>2021-08-11T09:11:38.000Z</Time>
            <Position>
              <LatitudeDegrees>43.29116304405033588409423828125</LatitudeDegrees>
              <LongitudeDegrees>-1.72800117172300815582275390625</LongitudeDegrees>
            </Position>
            <AltitudeMeters>19.3999996185302734375</AltitudeMeters>
            <DistanceMeters>NAN</DistanceMeters>
          </Trackpoint>
          <Trackpoint>
            <Time>2021-08-11T09:11:40.000Z</Time>
            <Position>
              <LatitudeDegrees>43.291240744292736053466796875</LatitudeDegrees>
              <LongitudeDegrees>-1.72813964076340198516845703125</LongitudeDegrees>
            </Position>
            <AltitudeMeters>19.3999996185302734375</AltitudeMeters>
            <DistanceMeters>NAN</DistanceMeters>
          </Trackpoint>
          <Trackpoint>
            <Time>2021-08-11T09:11:44.000Z</Time>
            <Position>
              <LatitudeDegrees>43.291377536952495574951171875</LatitudeDegrees>
              <LongitudeDegrees>-1.72842546366155147552490234375</LongitudeDegrees>
            </Position>
            <AltitudeMeters>19.3999996185302734375</AltitudeMeters>
            <DistanceMeters>NAN</DistanceMeters>
          </Trackpoint>
          <Trackpoint>
            <Time>2021-08-11T09:11:47.000Z</Time>
            <Position>
              <LatitudeDegrees>43.29147644340991973876953125</LatitudeDegrees>
              <LongitudeDegrees>-1.7286265455186367034912109375</LongitudeDegrees>
            </Position>
            <AltitudeMeters>19.200000762939453125</AltitudeMeters>
            <DistanceMeters>NAN</DistanceMeters>
          </Trackpoint>
          <Trackpoint>
            <Time>2021-08-11T09:11:49.000Z</Time>
            <Position>
              <LatitudeDegrees>43.29153486527502536773681640625</LatitudeDegrees>
              <LongitudeDegrees>-1.7287780903279781341552734375</LongitudeDegrees>
            </Position>
            <AltitudeMeters>19.200000762939453125</AltitudeMeters>
            <DistanceMeters>NAN</DistanceMeters>
          </Trackpoint>
          <Trackpoint>
            <Time>2021-08-11T09:11:51.000Z</Time>
            <Position>
              <LatitudeDegrees>43.2915999926626682281494140625</LatitudeDegrees>
              <LongitudeDegrees>-1.72892284579575061798095703125</LongitudeDegrees>
            </Position>
            <AltitudeMeters>19.200000762939453125</AltitudeMeters>
            <DistanceMeters>NAN</DistanceMeters>
          </Trackpoint>
          <Trackpoint>
            <Time>2021-08-11T09:11:52.000Z</Time>
            <Position>
              <LatitudeDegrees>43.2916227914392948150634765625</LatitudeDegrees>
              <LongitudeDegrees>-1.7289809323847293853759765625</LongitudeDegrees>
            </Position>
            <AltitudeMeters>19.200000762939453125</AltitudeMeters>
            <DistanceMeters>NAN</DistanceMeters>
          </Trackpoint>
          <Trackpoint>
            <Time>2021-08-11T09:11:54.000Z</Time>
            <Position>
              <LatitudeDegrees>43.2916727475821971893310546875</LatitudeDegrees>
              <LongitudeDegrees>-1.72914111055433750152587890625</LongitudeDegrees>
            </Position>
            <AltitudeMeters>19.200000762939453125</AltitudeMeters>
            <DistanceMeters>NAN</DistanceMeters>
          </Trackpoint>
          <Trackpoint>
            <Time>2021-08-11T09:11:55.000Z</Time>
            <Position>
              <LatitudeDegrees>43.29170166514813899993896484375</LatitudeDegrees>
              <LongitudeDegrees>-1.7292072437703609466552734375</LongitudeDegrees>
            </Position>
            <AltitudeMeters>19.200000762939453125</AltitudeMeters>
            <DistanceMeters>NAN</DistanceMeters>
          </Trackpoint>
          <Trackpoint>
            <Time>2021-08-11T09:11:57.000Z</Time>
            <Position>
              <LatitudeDegrees>43.2917667925357818603515625</LatitudeDegrees>
              <LongitudeDegrees>-1.72932852990925312042236328125</LongitudeDegrees>
            </Position>
            <AltitudeMeters>19.3999996185302734375</AltitudeMeters>
            <DistanceMeters>NAN</DistanceMeters>
          </Trackpoint>
          <Trackpoint>
            <Time>2021-08-11T09:11:58.000Z</Time>
            <Position>
              <LatitudeDegrees>43.291800655424594879150390625</LatitudeDegrees>
              <LongitudeDegrees>-1.72937815077602863311767578125</LongitudeDegrees>
            </Position>
            <AltitudeMeters>19.3999996185302734375</AltitudeMeters>
            <DistanceMeters>NAN</DistanceMeters>
          </Trackpoint>
          <Trackpoint>
            <Time>2021-08-11T09:11:59.000Z</Time>
            <Position>
              <LatitudeDegrees>43.2918338477611541748046875</LatitudeDegrees>
              <LongitudeDegrees>-1.72943246550858020782470703125</LongitudeDegrees>
            </Position>
            <AltitudeMeters>19.6000003814697265625</AltitudeMeters>
            <DistanceMeters>NAN</DistanceMeters>
          </Trackpoint>
          <Trackpoint>
            <Time>2021-08-11T09:12:00.000Z</Time>
            <Position>
              <LatitudeDegrees>43.291869051754474639892578125</LatitudeDegrees>
              <LongitudeDegrees>-1.729492060840129852294921875</LongitudeDegrees>
            </Position>
            <AltitudeMeters>19.799999237060546875</AltitudeMeters>
            <DistanceMeters>NAN</DistanceMeters>
          </Trackpoint>
          <Trackpoint>
            <Time>2021-08-11T09:12:01.000Z</Time>
            <Position>
              <LatitudeDegrees>43.29190886579453945159912109375</LatitudeDegrees>
              <LongitudeDegrees>-1.7295448668301105499267578125</LongitudeDegrees>
            </Position>
            <AltitudeMeters>19.799999237060546875</AltitudeMeters>
            <DistanceMeters>NAN</DistanceMeters>
          </Trackpoint>
          <Trackpoint>
            <Time>2021-08-11T09:12:02.000Z</Time>
            <Position>
              <LatitudeDegrees>43.29195882193744182586669921875</LatitudeDegrees>
              <LongitudeDegrees>-1.7295911349356174468994140625</LongitudeDegrees>
            </Position>
            <AltitudeMeters>19.799999237060546875</AltitudeMeters>
            <DistanceMeters>NAN</DistanceMeters>
          </Trackpoint>
          <Trackpoint>
            <Time>2021-08-11T09:12:03.000Z</Time>
            <Position>
              <LatitudeDegrees>43.29200886189937591552734375</LatitudeDegrees>
              <LongitudeDegrees>-1.72963254153728485107421875</LongitudeDegrees>
            </Position>
            <AltitudeMeters>19.799999237060546875</AltitudeMeters>
            <DistanceMeters>NAN</DistanceMeters>
          </Trackpoint>
          <Trackpoint>
            <Time>2021-08-11T09:12:05.000Z</Time>
            <Position>
              <LatitudeDegrees>43.29210785217583179473876953125</LatitudeDegrees>
              <LongitudeDegrees>-1.7297195456922054290771484375</LongitudeDegrees>
            </Position>
            <AltitudeMeters>19.799999237060546875</AltitudeMeters>
            <DistanceMeters>NAN</DistanceMeters>
          </Trackpoint>
          <Trackpoint>
            <Time>2021-08-11T09:12:06.000Z</Time>
            <Position>
              <LatitudeDegrees>43.2921501807868480682373046875</LatitudeDegrees>
              <LongitudeDegrees>-1.72974946908652782440185546875</LongitudeDegrees>
            </Position>
            <AltitudeMeters>20</AltitudeMeters>
            <DistanceMeters>NAN</DistanceMeters>
          </Trackpoint>
          <Trackpoint>
            <Time>2021-08-11T09:12:07.000Z</Time>
            <Position>
              <LatitudeDegrees>43.2921833731234073638916015625</LatitudeDegrees>
              <LongitudeDegrees>-1.72977059148252010345458984375</LongitudeDegrees>
            </Position>
            <AltitudeMeters>20</AltitudeMeters>
            <DistanceMeters>NAN</DistanceMeters>
          </Trackpoint>
          <Trackpoint>
            <Time>2021-08-11T09:12:08.000Z</Time>
            <Position>
              <LatitudeDegrees>43.2922236062586307525634765625</LatitudeDegrees>
              <LongitudeDegrees>-1.7298040352761745452880859375</LongitudeDegrees>
            </Position>
            <AltitudeMeters>20</AltitudeMeters>
            <DistanceMeters>NAN</DistanceMeters>
          </Trackpoint>
          <Trackpoint>
            <Time>2021-08-11T09:12:09.000Z</Time>
            <Position>
              <LatitudeDegrees>43.2922695390880107879638671875</LatitudeDegrees>
              <LongitudeDegrees>-1.72984619624912738800048828125</LongitudeDegrees>
            </Position>
            <AltitudeMeters>20</AltitudeMeters>
            <DistanceMeters>NAN</DistanceMeters>
          </Trackpoint>
          <Trackpoint>
            <Time>2021-08-11T09:12:10.000Z</Time>
            <Position>
              <LatitudeDegrees>43.29231798648834228515625</LatitudeDegrees>
              <LongitudeDegrees>-1.72988374717533588409423828125</LongitudeDegrees>
            </Position>
            <AltitudeMeters>20</AltitudeMeters>
            <DistanceMeters>NAN</DistanceMeters>
          </Trackpoint>
          <Trackpoint>
            <Time>2021-08-11T09:12:11.000Z</Time>
            <Position>
              <LatitudeDegrees>43.29236886464059352874755859375</LatitudeDegrees>
              <LongitudeDegrees>-1.729909814894199371337890625</LongitudeDegrees>
            </Position>
            <AltitudeMeters>20</AltitudeMeters>
            <DistanceMeters>NAN</DistanceMeters>
          </Trackpoint>
          <Trackpoint>
            <Time>2021-08-11T09:12:13.000Z</Time>
            <Position>
              <LatitudeDegrees>43.29248134978115558624267578125</LatitudeDegrees>
              <LongitudeDegrees>-1.72994560562074184417724609375</LongitudeDegrees>
            </Position>
            <AltitudeMeters>20</AltitudeMeters>
            <DistanceMeters>NAN</DistanceMeters>
          </Trackpoint>
          <Trackpoint>
            <Time>2021-08-11T09:12:15.000Z</Time>
            <Position>
              <LatitudeDegrees>43.2926068268716335296630859375</LatitudeDegrees>
              <LongitudeDegrees>-1.7299612797796726226806640625</LongitudeDegrees>
            </Position>
            <AltitudeMeters>20</AltitudeMeters>
            <DistanceMeters>NAN</DistanceMeters>
          </Trackpoint>
          <Trackpoint>
            <Time>2021-08-11T09:12:16.000Z</Time>
            <Position>
              <LatitudeDegrees>43.2926738820970058441162109375</LatitudeDegrees>
              <LongitudeDegrees>-1.7299555800855159759521484375</LongitudeDegrees>
            </Position>
            <AltitudeMeters>20</AltitudeMeters>
            <DistanceMeters>NAN</DistanceMeters>
          </Trackpoint>
          <Trackpoint>
            <Time>2021-08-11T09:12:19.000Z</Time>
            <Position>
              <LatitudeDegrees>43.29287228174507617950439453125</LatitudeDegrees>
              <LongitudeDegrees>-1.7299565859138965606689453125</LongitudeDegrees>
            </Position>
            <AltitudeMeters>19.6000003814697265625</AltitudeMeters>
            <DistanceMeters>NAN</DistanceMeters>
          </Trackpoint>
          <Trackpoint>
            <Time>2021-08-11T09:12:20.000Z</Time>
            <Position>
              <LatitudeDegrees>43.29293497838079929351806640625</LatitudeDegrees>
              <LongitudeDegrees>-1.72995097003877162933349609375</LongitudeDegrees>
            </Position>
            <AltitudeMeters>19.6000003814697265625</AltitudeMeters>
            <DistanceMeters>NAN</DistanceMeters>
          </Trackpoint>
          <Trackpoint>
            <Time>2021-08-11T09:12:21.000Z</Time>
            <Position>
              <LatitudeDegrees>43.29299583099782466888427734375</LatitudeDegrees>
              <LongitudeDegrees>-1.72994191758334636688232421875</LongitudeDegrees>
            </Position>
            <AltitudeMeters>19.6000003814697265625</AltitudeMeters>
            <DistanceMeters>NAN</DistanceMeters>
          </Trackpoint>
          <Trackpoint>
            <Time>2021-08-11T09:12:22.000Z</Time>
            <Position>
              <LatitudeDegrees>43.293052576482295989990234375</LatitudeDegrees>
              <LongitudeDegrees>-1.7299133352935314178466796875</LongitudeDegrees>
            </Position>
            <AltitudeMeters>19.6000003814697265625</AltitudeMeters>
            <DistanceMeters>NAN</DistanceMeters>
          </Trackpoint>
          <Trackpoint>
            <Time>2021-08-11T09:12:23.000Z</Time>
            <Position>
              <LatitudeDegrees>43.29309507273137569427490234375</LatitudeDegrees>
              <LongitudeDegrees>-1.7298831604421138763427734375</LongitudeDegrees>
            </Position>
            <AltitudeMeters>19.3999996185302734375</AltitudeMeters>
            <DistanceMeters>NAN</DistanceMeters>
          </Trackpoint>
          <Trackpoint>
            <Time>2021-08-11T09:12:25.000Z</Time>
            <Position>
              <LatitudeDegrees>43.29321292228996753692626953125</LatitudeDegrees>
              <LongitudeDegrees>-1.72981560230255126953125</LongitudeDegrees>
            </Position>
            <AltitudeMeters>19.200000762939453125</AltitudeMeters>
            <DistanceMeters>NAN</DistanceMeters>
          </Trackpoint>
          <Trackpoint>
            <Time>2021-08-11T09:12:26.000Z</Time>
            <Position>
              <LatitudeDegrees>43.293268494307994842529296875</LatitudeDegrees>
              <LongitudeDegrees>-1.72980261035263538360595703125</LongitudeDegrees>
            </Position>
            <AltitudeMeters>19.200000762939453125</AltitudeMeters>
            <DistanceMeters>NAN</DistanceMeters>
          </Trackpoint>
          <Trackpoint>
            <Time>2021-08-11T09:12:27.000Z</Time>
            <Position>
              <LatitudeDegrees>43.2933219708502292633056640625</LatitudeDegrees>
              <LongitudeDegrees>-1.72979171387851238250732421875</LongitudeDegrees>
            </Position>
            <AltitudeMeters>19</AltitudeMeters>
            <DistanceMeters>NAN</DistanceMeters>
          </Trackpoint>
          <Trackpoint>
            <Time>2021-08-11T09:12:28.000Z</Time>
            <Position>
              <LatitudeDegrees>43.293363042175769805908203125</LatitudeDegrees>
              <LongitudeDegrees>-1.7297847568988800048828125</LongitudeDegrees>
            </Position>
            <AltitudeMeters>19</AltitudeMeters>
            <DistanceMeters>NAN</DistanceMeters>
          </Trackpoint>
          <Trackpoint>
            <Time>2021-08-11T09:12:29.000Z</Time>
            <Position>
              <LatitudeDegrees>43.2934198714792728424072265625</LatitudeDegrees>
              <LongitudeDegrees>-1.72977562062442302703857421875</LongitudeDegrees>
            </Position>
            <AltitudeMeters>19</AltitudeMeters>
            <DistanceMeters>NAN</DistanceMeters>
          </Trackpoint>
          <Trackpoint>
            <Time>2021-08-11T09:12:30.000Z</Time>
            <Position>
              <LatitudeDegrees>43.29346270300447940826416015625</LatitudeDegrees>
              <LongitudeDegrees>-1.72976338304579257965087890625</LongitudeDegrees>
            </Position>
            <AltitudeMeters>18.799999237060546875</AltitudeMeters>
            <DistanceMeters>NAN</DistanceMeters>
          </Trackpoint>
          <Trackpoint>
            <Time>2021-08-11T09:12:31.000Z</Time>
            <Position>
              <LatitudeDegrees>43.29350092448294162750244140625</LatitudeDegrees>
              <LongitudeDegrees>-1.7297470383346080780029296875</LongitudeDegrees>
            </Position>
            <AltitudeMeters>18.799999237060546875</AltitudeMeters>
            <DistanceMeters>NAN</DistanceMeters>
          </Trackpoint>
          <Trackpoint>
            <Time>2021-08-11T09:12:32.000Z</Time>
            <Position>
              <LatitudeDegrees>43.29352841712534427642822265625</LatitudeDegrees>
              <LongitudeDegrees>-1.72973806969821453094482421875</LongitudeDegrees>
            </Position>
            <AltitudeMeters>18.799999237060546875</AltitudeMeters>
            <DistanceMeters>NAN</DistanceMeters>
          </Trackpoint>
          <Trackpoint>
            <Time>2021-08-11T09:12:33.000Z</Time>
            <Position>
              <LatitudeDegrees>43.29356010071933269500732421875</LatitudeDegrees>
              <LongitudeDegrees>-1.72973178327083587646484375</LongitudeDegrees>
            </Position>
            <AltitudeMeters>18.799999237060546875</AltitudeMeters>
            <DistanceMeters>NAN</DistanceMeters>
          </Trackpoint>
          <Trackpoint>
            <Time>2021-08-11T09:12:34.000Z</Time>
            <Position>
              <LatitudeDegrees>43.2935915328562259674072265625</LatitudeDegrees>
              <LongitudeDegrees>-1.72974142245948314666748046875</LongitudeDegrees>
            </Position>
            <AltitudeMeters>18.799999237060546875</AltitudeMeters>
            <DistanceMeters>NAN</DistanceMeters>
          </Trackpoint>
          <Trackpoint>
            <Time>2021-08-11T09:12:35.000Z</Time>
            <Position>
              <LatitudeDegrees>43.29362363554537296295166015625</LatitudeDegrees>
              <LongitudeDegrees>-1.7297537438571453094482421875</LongitudeDegrees>
            </Position>
            <AltitudeMeters>18.799999237060546875</AltitudeMeters>
            <DistanceMeters>NAN</DistanceMeters>
          </Trackpoint>
          <Trackpoint>
            <Time>2021-08-11T09:12:36.000Z</Time>
            <Position>
              <LatitudeDegrees>43.29365917481482028961181640625</LatitudeDegrees>
              <LongitudeDegrees>-1.72975592315196990966796875</LongitudeDegrees>
            </Position>
            <AltitudeMeters>18.799999237060546875</AltitudeMeters>
            <DistanceMeters>NAN</DistanceMeters>
          </Trackpoint>
          <Trackpoint>
            <Time>2021-08-11T09:12:37.000Z</Time>
            <Position>
              <LatitudeDegrees>43.2936820574104785919189453125</LatitudeDegrees>
              <LongitudeDegrees>-1.72974997200071811676025390625</LongitudeDegrees>
            </Position>
            <AltitudeMeters>18.799999237060546875</AltitudeMeters>
            <DistanceMeters>NAN</DistanceMeters>
          </Trackpoint>
          <Trackpoint>
            <Time>2021-08-11T09:12:38.000Z</Time>
            <Position>
              <LatitudeDegrees>43.2937004975974559783935546875</LatitudeDegrees>
              <LongitudeDegrees>-1.72974376939237117767333984375</LongitudeDegrees>
            </Position>
            <AltitudeMeters>18.799999237060546875</AltitudeMeters>
            <DistanceMeters>NAN</DistanceMeters>
          </Trackpoint>
          <Trackpoint>
            <Time>2021-08-11T09:12:39.000Z</Time>
            <Position>
              <LatitudeDegrees>43.2937145791947841644287109375</LatitudeDegrees>
              <LongitudeDegrees>-1.72974159009754657745361328125</LongitudeDegrees>
            </Position>
            <AltitudeMeters>18.799999237060546875</AltitudeMeters>
            <DistanceMeters>NAN</DistanceMeters>
          </Trackpoint>
          <Trackpoint>
            <Time>2021-08-11T09:12:40.000Z</Time>
            <Position>
              <LatitudeDegrees>43.293733187019824981689453125</LatitudeDegrees>
              <LongitudeDegrees>-1.7297386564314365386962890625</LongitudeDegrees>
            </Position>
            <AltitudeMeters>18.799999237060546875</AltitudeMeters>
            <DistanceMeters>NAN</DistanceMeters>
          </Trackpoint>
          <Trackpoint>
            <Time>2021-08-11T09:12:41.000Z</Time>
            <Position>
              <LatitudeDegrees>43.2937397249042987823486328125</LatitudeDegrees>
              <LongitudeDegrees>-1.72973639331758022308349609375</LongitudeDegrees>
            </Position>
            <AltitudeMeters>18.799999237060546875</AltitudeMeters>
            <DistanceMeters>NAN</DistanceMeters>
          </Trackpoint>
          <Trackpoint>
            <Time>2021-08-11T09:12:42.000Z</Time>
            <Position>
              <LatitudeDegrees>43.2937397249042987823486328125</LatitudeDegrees>
              <LongitudeDegrees>-1.72973639331758022308349609375</LongitudeDegrees>
            </Position>
            <AltitudeMeters>18.799999237060546875</AltitudeMeters>
            <DistanceMeters>NAN</DistanceMeters>
          </Trackpoint>
          <Trackpoint>
            <Time>2021-08-11T09:12:44.000Z</Time>
            <Position>
              <LatitudeDegrees>43.2937397249042987823486328125</LatitudeDegrees>
              <LongitudeDegrees>-1.72973639331758022308349609375</LongitudeDegrees>
            </Position>
            <AltitudeMeters>18.799999237060546875</AltitudeMeters>
            <DistanceMeters>NAN</DistanceMeters>
          </Trackpoint>
          <Trackpoint>
            <Time>2021-08-11T09:13:31.000Z</Time>
            <Position>
              <LatitudeDegrees>43.2937397249042987823486328125</LatitudeDegrees>
              <LongitudeDegrees>-1.72973639331758022308349609375</LongitudeDegrees>
            </Position>
            <AltitudeMeters>18.799999237060546875</AltitudeMeters>
            <DistanceMeters>NAN</DistanceMeters>
          </Trackpoint>
          <Trackpoint>
            <Time>2021-08-11T09:13:58.000Z</Time>
            <Position>
              <LatitudeDegrees>43.2937397249042987823486328125</LatitudeDegrees>
              <LongitudeDegrees>-1.72973639331758022308349609375</LongitudeDegrees>
            </Position>
            <AltitudeMeters>18.799999237060546875</AltitudeMeters>
            <DistanceMeters>NAN</DistanceMeters>
          </Trackpoint>
          <Trackpoint>
            <Time>2021-08-11T09:14:24.000Z</Time>
            <Position>
              <LatitudeDegrees>43.2937397249042987823486328125</LatitudeDegrees>
              <LongitudeDegrees>-1.72973639331758022308349609375</LongitudeDegrees>
            </Position>
            <AltitudeMeters>19</AltitudeMeters>
            <DistanceMeters>NAN</DistanceMeters>
          </Trackpoint>
          <Trackpoint>
            <Time>2021-08-11T09:14:45.000Z</Time>
            <Position>
              <LatitudeDegrees>43.2937397249042987823486328125</LatitudeDegrees>
              <LongitudeDegrees>-1.72973639331758022308349609375</LongitudeDegrees>
            </Position>
            <AltitudeMeters>18.6000003814697265625</AltitudeMeters>
            <DistanceMeters>NAN</DistanceMeters>
          </Trackpoint>
          <Trackpoint>
            <Time>2021-08-11T09:15:10.000Z</Time>
            <Position>
              <LatitudeDegrees>43.2937397249042987823486328125</LatitudeDegrees>
              <LongitudeDegrees>-1.72973639331758022308349609375</LongitudeDegrees>
            </Position>
            <AltitudeMeters>18.6000003814697265625</AltitudeMeters>
            <DistanceMeters>NAN</DistanceMeters>
          </Trackpoint>
          <Trackpoint>
            <Time>2021-08-11T09:15:55.000Z</Time>
            <Position>
              <LatitudeDegrees>43.29373947344720363616943359375</LatitudeDegrees>
              <LongitudeDegrees>-1.729736141860485076904296875</LongitudeDegrees>
            </Position>
            <AltitudeMeters>18.200000762939453125</AltitudeMeters>
            <DistanceMeters>NAN</DistanceMeters>
          </Trackpoint>
          <Trackpoint>
            <Time>2021-08-11T09:15:59.000Z</Time>
            <Position>
              <LatitudeDegrees>43.29373947344720363616943359375</LatitudeDegrees>
              <LongitudeDegrees>-1.729736141860485076904296875</LongitudeDegrees>
            </Position>
            <AltitudeMeters>18.200000762939453125</AltitudeMeters>
            <DistanceMeters>NAN</DistanceMeters>
          </Trackpoint>
          <Trackpoint>
            <Time>2021-08-11T09:16:37.000Z</Time>
            <Position>
              <LatitudeDegrees>43.293753303587436676025390625</LatitudeDegrees>
              <LongitudeDegrees>-1.72973270528018474578857421875</LongitudeDegrees>
            </Position>
            <AltitudeMeters>18.799999237060546875</AltitudeMeters>
            <DistanceMeters>NAN</DistanceMeters>
          </Trackpoint>
          <Trackpoint>
            <Time>2021-08-11T09:16:38.000Z</Time>
            <Position>
              <LatitudeDegrees>43.293763361871242523193359375</LatitudeDegrees>
              <LongitudeDegrees>-1.7297364771366119384765625</LongitudeDegrees>
            </Position>
            <AltitudeMeters>18.799999237060546875</AltitudeMeters>
            <DistanceMeters>NAN</DistanceMeters>
          </Trackpoint>
          <Trackpoint>
            <Time>2021-08-11T09:16:39.000Z</Time>
            <Position>
              <LatitudeDegrees>43.293763361871242523193359375</LatitudeDegrees>
              <LongitudeDegrees>-1.7297364771366119384765625</LongitudeDegrees>
            </Position>
            <AltitudeMeters>18.799999237060546875</AltitudeMeters>
            <DistanceMeters>NAN</DistanceMeters>
          </Trackpoint>
          <Trackpoint>
            <Time>2021-08-11T09:16:40.000Z</Time>
            <Position>
              <LatitudeDegrees>43.293767385184764862060546875</LatitudeDegrees>
              <LongitudeDegrees>-1.7297366447746753692626953125</LongitudeDegrees>
            </Position>
            <AltitudeMeters>18.799999237060546875</AltitudeMeters>
            <DistanceMeters>NAN</DistanceMeters>
          </Trackpoint>
          <Trackpoint>
            <Time>2021-08-11T09:16:43.000Z</Time>
            <Position>
              <LatitudeDegrees>43.293767385184764862060546875</LatitudeDegrees>
              <LongitudeDegrees>-1.7297366447746753692626953125</LongitudeDegrees>
            </Position>
            <AltitudeMeters>18.799999237060546875</AltitudeMeters>
            <DistanceMeters>NAN</DistanceMeters>
          </Trackpoint>
          <Trackpoint>
            <Time>2021-08-11T09:17:22.000Z</Time>
            <Position>
              <LatitudeDegrees>43.2937735877931118011474609375</LatitudeDegrees>
              <LongitudeDegrees>-1.7297346331179141998291015625</LongitudeDegrees>
            </Position>
            <AltitudeMeters>19</AltitudeMeters>
            <DistanceMeters>NAN</DistanceMeters>
          </Trackpoint>
          <Trackpoint>
            <Time>2021-08-11T09:19:52.000Z</Time>
            <Position>
              <LatitudeDegrees>43.2937735877931118011474609375</LatitudeDegrees>
              <LongitudeDegrees>-1.7297346331179141998291015625</LongitudeDegrees>
            </Position>
            <AltitudeMeters>19.6000003814697265625</AltitudeMeters>
            <DistanceMeters>NAN</DistanceMeters>
          </Trackpoint>
          <Trackpoint>
            <Time>2021-08-11T09:20:55.000Z</Time>
            <Position>
              <LatitudeDegrees>43.29377434216439723968505859375</LatitudeDegrees>
              <LongitudeDegrees>-1.72973446547985076904296875</LongitudeDegrees>
            </Position>
            <AltitudeMeters>19.6000003814697265625</AltitudeMeters>
            <DistanceMeters>NAN</DistanceMeters>
          </Trackpoint>
          <Trackpoint>
            <Time>2021-08-11T09:20:58.000Z</Time>
            <Position>
              <LatitudeDegrees>43.29382144846022129058837890625</LatitudeDegrees>
              <LongitudeDegrees>-1.729734130203723907470703125</LongitudeDegrees>
            </Position>
            <AltitudeMeters>19.6000003814697265625</AltitudeMeters>
            <DistanceMeters>NAN</DistanceMeters>
          </Trackpoint>
          <Trackpoint>
            <Time>2021-08-11T09:21:02.000Z</Time>
            <Position>
              <LatitudeDegrees>43.2939214445650577545166015625</LatitudeDegrees>
              <LongitudeDegrees>-1.7297096550464630126953125</LongitudeDegrees>
            </Position>
            <AltitudeMeters>19.6000003814697265625</AltitudeMeters>
            <DistanceMeters>NAN</DistanceMeters>
          </Trackpoint>
          <Trackpoint>
            <Time>2021-08-11T09:21:03.000Z</Time>
            <Position>
              <LatitudeDegrees>43.29394265078008174896240234375</LatitudeDegrees>
              <LongitudeDegrees>-1.729704625904560089111328125</LongitudeDegrees>
            </Position>
            <AltitudeMeters>19.6000003814697265625</AltitudeMeters>
            <DistanceMeters>NAN</DistanceMeters>
          </Trackpoint>
          <Trackpoint>
            <Time>2021-08-11T09:21:04.000Z</Time>
            <Position>
              <LatitudeDegrees>43.29396192915737628936767578125</LatitudeDegrees>
              <LongitudeDegrees>-1.72969800420105457305908203125</LongitudeDegrees>
            </Position>
            <AltitudeMeters>19.6000003814697265625</AltitudeMeters>
            <DistanceMeters>NAN</DistanceMeters>
          </Trackpoint>
          <Trackpoint>
            <Time>2021-08-11T09:21:05.000Z</Time>
            <Position>
              <LatitudeDegrees>43.29398053698241710662841796875</LatitudeDegrees>
              <LongitudeDegrees>-1.72969289124011993408203125</LongitudeDegrees>
            </Position>
            <AltitudeMeters>19.799999237060546875</AltitudeMeters>
            <DistanceMeters>NAN</DistanceMeters>
          </Trackpoint>
          <Trackpoint>
            <Time>2021-08-11T09:21:06.000Z</Time>
            <Position>
              <LatitudeDegrees>43.29399771988391876220703125</LatitudeDegrees>
              <LongitudeDegrees>-1.7296876944601535797119140625</LongitudeDegrees>
            </Position>
            <AltitudeMeters>19.799999237060546875</AltitudeMeters>
            <DistanceMeters>NAN</DistanceMeters>
          </Trackpoint>
          <Trackpoint>
            <Time>2021-08-11T09:21:08.000Z</Time>
            <Position>
              <LatitudeDegrees>43.294034264981746673583984375</LatitudeDegrees>
              <LongitudeDegrees>-1.7296880297362804412841796875</LongitudeDegrees>
            </Position>
            <AltitudeMeters>20</AltitudeMeters>
            <DistanceMeters>NAN</DistanceMeters>
          </Trackpoint>
          <Trackpoint>
            <Time>2021-08-11T09:21:09.000Z</Time>
            <Position>
              <LatitudeDegrees>43.294067122042179107666015625</LatitudeDegrees>
              <LongitudeDegrees>-1.7296900413930416107177734375</LongitudeDegrees>
            </Position>
            <AltitudeMeters>20.200000762939453125</AltitudeMeters>
            <DistanceMeters>NAN</DistanceMeters>
          </Trackpoint>
          <Trackpoint>
            <Time>2021-08-11T09:21:10.000Z</Time>
            <Position>
              <LatitudeDegrees>43.2941081933677196502685546875</LatitudeDegrees>
              <LongitudeDegrees>-1.7296913824975490570068359375</LongitudeDegrees>
            </Position>
            <AltitudeMeters>20.200000762939453125</AltitudeMeters>
            <DistanceMeters>NAN</DistanceMeters>
          </Trackpoint>
          <Trackpoint>
            <Time>2021-08-11T09:21:14.000Z</Time>
            <Position>
              <LatitudeDegrees>43.29422277398407459259033203125</LatitudeDegrees>
              <LongitudeDegrees>-1.72971594147384166717529296875</LongitudeDegrees>
            </Position>
            <AltitudeMeters>20.3999996185302734375</AltitudeMeters>
            <DistanceMeters>NAN</DistanceMeters>
          </Trackpoint>
          <Trackpoint>
            <Time>2021-08-11T09:21:16.000Z</Time>
            <Position>
              <LatitudeDegrees>43.29428798519074916839599609375</LatitudeDegrees>
              <LongitudeDegrees>-1.729728765785694122314453125</LongitudeDegrees>
            </Position>
            <AltitudeMeters>20.200000762939453125</AltitudeMeters>
            <DistanceMeters>NAN</DistanceMeters>
          </Trackpoint>
          <Trackpoint>
            <Time>2021-08-11T09:21:17.000Z</Time>
            <Position>
              <LatitudeDegrees>43.2943167351186275482177734375</LatitudeDegrees>
              <LongitudeDegrees>-1.7297252453863620758056640625</LongitudeDegrees>
            </Position>
            <AltitudeMeters>20.200000762939453125</AltitudeMeters>
            <DistanceMeters>NAN</DistanceMeters>
          </Trackpoint>
          <Trackpoint>
            <Time>2021-08-11T09:21:18.000Z</Time>
            <Position>
              <LatitudeDegrees>43.2943375222384929656982421875</LatitudeDegrees>
              <LongitudeDegrees>-1.7297222279012203216552734375</LongitudeDegrees>
            </Position>
            <AltitudeMeters>20.200000762939453125</AltitudeMeters>
            <DistanceMeters>NAN</DistanceMeters>
          </Trackpoint>
          <Trackpoint>
            <Time>2021-08-11T09:21:19.000Z</Time>
            <Position>
              <LatitudeDegrees>43.29435436986386775970458984375</LatitudeDegrees>
              <LongitudeDegrees>-1.72971962951123714447021484375</LongitudeDegrees>
            </Position>
            <AltitudeMeters>20</AltitudeMeters>
            <DistanceMeters>NAN</DistanceMeters>
          </Trackpoint>
          <Trackpoint>
            <Time>2021-08-11T09:21:22.000Z</Time>
            <Position>
              <LatitudeDegrees>43.2944729737937450408935546875</LatitudeDegrees>
              <LongitudeDegrees>-1.72968660481274127960205078125</LongitudeDegrees>
            </Position>
            <AltitudeMeters>19.6000003814697265625</AltitudeMeters>
            <DistanceMeters>NAN</DistanceMeters>
          </Trackpoint>
          <Trackpoint>
            <Time>2021-08-11T09:21:25.000Z</Time>
            <Position>
              <LatitudeDegrees>43.29458654858171939849853515625</LatitudeDegrees>
              <LongitudeDegrees>-1.72971208579838275909423828125</LongitudeDegrees>
            </Position>
            <AltitudeMeters>19.200000762939453125</AltitudeMeters>
            <DistanceMeters>NAN</DistanceMeters>
          </Trackpoint>
          <Trackpoint>
            <Time>2021-08-11T09:21:26.000Z</Time>
            <Position>
              <LatitudeDegrees>43.29462275840342044830322265625</LatitudeDegrees>
              <LongitudeDegrees>-1.72972180880606174468994140625</LongitudeDegrees>
            </Position>
            <AltitudeMeters>19.200000762939453125</AltitudeMeters>
            <DistanceMeters>NAN</DistanceMeters>
          </Trackpoint>
          <Trackpoint>
            <Time>2021-08-11T09:21:27.000Z</Time>
            <Position>
              <LatitudeDegrees>43.2946553640067577362060546875</LatitudeDegrees>
              <LongitudeDegrees>-1.72973371110856533050537109375</LongitudeDegrees>
            </Position>
            <AltitudeMeters>19</AltitudeMeters>
            <DistanceMeters>NAN</DistanceMeters>
          </Trackpoint>
          <Trackpoint>
            <Time>2021-08-11T09:21:28.000Z</Time>
            <Position>
              <LatitudeDegrees>43.29468428157269954681396484375</LatitudeDegrees>
              <LongitudeDegrees>-1.72974645160138607025146484375</LongitudeDegrees>
            </Position>
            <AltitudeMeters>18.799999237060546875</AltitudeMeters>
            <DistanceMeters>NAN</DistanceMeters>
          </Trackpoint>
          <Trackpoint>
            <Time>2021-08-11T09:21:31.000Z</Time>
            <Position>
              <LatitudeDegrees>43.29478234983980655670166015625</LatitudeDegrees>
              <LongitudeDegrees>-1.7297793924808502197265625</LongitudeDegrees>
            </Position>
            <AltitudeMeters>18.6000003814697265625</AltitudeMeters>
            <DistanceMeters>NAN</DistanceMeters>
          </Trackpoint>
          <Trackpoint>
            <Time>2021-08-11T09:21:32.000Z</Time>
            <Position>
              <LatitudeDegrees>43.29481386579573154449462890625</LatitudeDegrees>
              <LongitudeDegrees>-1.7297946475446224212646484375</LongitudeDegrees>
            </Position>
            <AltitudeMeters>18.6000003814697265625</AltitudeMeters>
            <DistanceMeters>NAN</DistanceMeters>
          </Trackpoint>
          <Trackpoint>
            <Time>2021-08-11T09:21:33.000Z</Time>
            <Position>
              <LatitudeDegrees>43.29484337009489536285400390625</LatitudeDegrees>
              <LongitudeDegrees>-1.72981015406548976898193359375</LongitudeDegrees>
            </Position>
            <AltitudeMeters>18.6000003814697265625</AltitudeMeters>
            <DistanceMeters>NAN</DistanceMeters>
          </Trackpoint>
          <Trackpoint>
            <Time>2021-08-11T09:21:34.000Z</Time>
            <Position>
              <LatitudeDegrees>43.29486616887152194976806640625</LatitudeDegrees>
              <LongitudeDegrees>-1.72982675023376941680908203125</LongitudeDegrees>
            </Position>
            <AltitudeMeters>18.6000003814697265625</AltitudeMeters>
            <DistanceMeters>NAN</DistanceMeters>
          </Trackpoint>
          <Trackpoint>
            <Time>2021-08-11T09:21:35.000Z</Time>
            <Position>
              <LatitudeDegrees>43.29489651136100292205810546875</LatitudeDegrees>
              <LongitudeDegrees>-1.72984753735363483428955078125</LongitudeDegrees>
            </Position>
            <AltitudeMeters>18.6000003814697265625</AltitudeMeters>
            <DistanceMeters>NAN</DistanceMeters>
          </Trackpoint>
          <Trackpoint>
            <Time>2021-08-11T09:21:36.000Z</Time>
            <Position>
              <LatitudeDegrees>43.2949219085276126861572265625</LatitudeDegrees>
              <LongitudeDegrees>-1.7298670671880245208740234375</LongitudeDegrees>
            </Position>
            <AltitudeMeters>18.6000003814697265625</AltitudeMeters>
            <DistanceMeters>NAN</DistanceMeters>
          </Trackpoint>
          <Trackpoint>
            <Time>2021-08-11T09:21:37.000Z</Time>
            <Position>
              <LatitudeDegrees>43.29494646750390529632568359375</LatitudeDegrees>
              <LongitudeDegrees>-1.72988475300371646881103515625</LongitudeDegrees>
            </Position>
            <AltitudeMeters>18.6000003814697265625</AltitudeMeters>
            <DistanceMeters>NAN</DistanceMeters>
          </Trackpoint>
          <Trackpoint>
            <Time>2021-08-11T09:21:38.000Z</Time>
            <Position>
              <LatitudeDegrees>43.29496172256767749786376953125</LatitudeDegrees>
              <LongitudeDegrees>-1.7298989184200763702392578125</LongitudeDegrees>
            </Position>
            <AltitudeMeters>18.6000003814697265625</AltitudeMeters>
            <DistanceMeters>NAN</DistanceMeters>
          </Trackpoint>
          <Trackpoint>
            <Time>2021-08-11T09:21:39.000Z</Time>
            <Position>
              <LatitudeDegrees>43.29498887993395328521728515625</LatitudeDegrees>
              <LongitudeDegrees>-1.729919202625751495361328125</LongitudeDegrees>
            </Position>
            <AltitudeMeters>18.6000003814697265625</AltitudeMeters>
            <DistanceMeters>NAN</DistanceMeters>
          </Trackpoint>
          <Trackpoint>
            <Time>2021-08-11T09:21:40.000Z</Time>
            <Position>
              <LatitudeDegrees>43.29501586966216564178466796875</LatitudeDegrees>
              <LongitudeDegrees>-1.7299368046224117279052734375</LongitudeDegrees>
            </Position>
            <AltitudeMeters>18.6000003814697265625</AltitudeMeters>
            <DistanceMeters>NAN</DistanceMeters>
          </Trackpoint>
          <Trackpoint>
            <Time>2021-08-11T09:21:41.000Z</Time>
            <Position>
              <LatitudeDegrees>43.29504084773361682891845703125</LatitudeDegrees>
              <LongitudeDegrees>-1.72995566390454769134521484375</LongitudeDegrees>
            </Position>
            <AltitudeMeters>18.6000003814697265625</AltitudeMeters>
            <DistanceMeters>NAN</DistanceMeters>
          </Trackpoint>
          <Trackpoint>
            <Time>2021-08-11T09:21:42.000Z</Time>
            <Position>
              <LatitudeDegrees>43.2950620539486408233642578125</LatitudeDegrees>
              <LongitudeDegrees>-1.72997460700571537017822265625</LongitudeDegrees>
            </Position>
            <AltitudeMeters>18.6000003814697265625</AltitudeMeters>
            <DistanceMeters>NAN</DistanceMeters>
          </Trackpoint>
          <Trackpoint>
            <Time>2021-08-11T09:21:43.000Z</Time>
            <Position>
              <LatitudeDegrees>43.29508124850690364837646484375</LatitudeDegrees>
              <LongitudeDegrees>-1.72998952679336071014404296875</LongitudeDegrees>
            </Position>
            <AltitudeMeters>18.6000003814697265625</AltitudeMeters>
            <DistanceMeters>NAN</DistanceMeters>
          </Trackpoint>
          <Trackpoint>
            <Time>2021-08-11T09:21:44.000Z</Time>
            <Position>
              <LatitudeDegrees>43.295098431408405303955078125</LatitudeDegrees>
              <LongitudeDegrees>-1.72999992035329341888427734375</LongitudeDegrees>
            </Position>
            <AltitudeMeters>18.6000003814697265625</AltitudeMeters>
            <DistanceMeters>NAN</DistanceMeters>
          </Trackpoint>
          <Trackpoint>
            <Time>2021-08-11T09:21:45.000Z</Time>
            <Position>
              <LatitudeDegrees>43.29512500204145908355712890625</LatitudeDegrees>
              <LongitudeDegrees>-1.730019785463809967041015625</LongitudeDegrees>
            </Position>
            <AltitudeMeters>18.6000003814697265625</AltitudeMeters>
            <DistanceMeters>NAN</DistanceMeters>
          </Trackpoint>
          <Trackpoint>
            <Time>2021-08-11T09:21:46.000Z</Time>
            <Position>
              <LatitudeDegrees>43.29514863900840282440185546875</LatitudeDegrees>
              <LongitudeDegrees>-1.7300400696694850921630859375</LongitudeDegrees>
            </Position>
            <AltitudeMeters>18.6000003814697265625</AltitudeMeters>
            <DistanceMeters>NAN</DistanceMeters>
          </Trackpoint>
          <Trackpoint>
            <Time>2021-08-11T09:21:47.000Z</Time>
            <Position>
              <LatitudeDegrees>43.29517160542309284210205078125</LatitudeDegrees>
              <LongitudeDegrees>-1.73006563447415828704833984375</LongitudeDegrees>
            </Position>
            <AltitudeMeters>18.6000003814697265625</AltitudeMeters>
            <DistanceMeters>NAN</DistanceMeters>
          </Trackpoint>
          <Trackpoint>
            <Time>2021-08-11T09:21:49.000Z</Time>
            <Position>
              <LatitudeDegrees>43.295217454433441162109375</LatitudeDegrees>
              <LongitudeDegrees>-1.7301359586417675018310546875</LongitudeDegrees>
            </Position>
            <AltitudeMeters>18.6000003814697265625</AltitudeMeters>
            <DistanceMeters>NAN</DistanceMeters>
          </Trackpoint>
          <Trackpoint>
            <Time>2021-08-11T09:21:52.000Z</Time>
            <Position>
              <LatitudeDegrees>43.29529230482876300811767578125</LatitudeDegrees>
              <LongitudeDegrees>-1.73023209907114505767822265625</LongitudeDegrees>
            </Position>
            <AltitudeMeters>18.799999237060546875</AltitudeMeters>
            <DistanceMeters>NAN</DistanceMeters>
          </Trackpoint>
          <Trackpoint>
            <Time>2021-08-11T09:21:53.000Z</Time>
            <Position>
              <LatitudeDegrees>43.29531175084412097930908203125</LatitudeDegrees>
              <LongitudeDegrees>-1.730255819857120513916015625</LongitudeDegrees>
            </Position>
            <AltitudeMeters>18.799999237060546875</AltitudeMeters>
            <DistanceMeters>NAN</DistanceMeters>
          </Trackpoint>
          <Trackpoint>
            <Time>2021-08-11T09:21:57.000Z</Time>
            <Position>
              <LatitudeDegrees>43.2954003475606441497802734375</LatitudeDegrees>
              <LongitudeDegrees>-1.73037283122539520263671875</LongitudeDegrees>
            </Position>
            <AltitudeMeters>18.799999237060546875</AltitudeMeters>
            <DistanceMeters>NAN</DistanceMeters>
          </Trackpoint>
          <Trackpoint>
            <Time>2021-08-11T09:21:58.000Z</Time>
            <Position>
              <LatitudeDegrees>43.29541736282408237457275390625</LatitudeDegrees>
              <LongitudeDegrees>-1.73039353452622890472412109375</LongitudeDegrees>
            </Position>
            <AltitudeMeters>18.799999237060546875</AltitudeMeters>
            <DistanceMeters>NAN</DistanceMeters>
          </Trackpoint>
          <Trackpoint>
            <Time>2021-08-11T09:21:59.000Z</Time>
            <Position>
              <LatitudeDegrees>43.2954432629048824310302734375</LatitudeDegrees>
              <LongitudeDegrees>-1.73042672686278820037841796875</LongitudeDegrees>
            </Position>
            <AltitudeMeters>18.799999237060546875</AltitudeMeters>
            <DistanceMeters>NAN</DistanceMeters>
          </Trackpoint>
          <Trackpoint>
            <Time>2021-08-11T09:22:00.000Z</Time>
            <Position>
              <LatitudeDegrees>43.29546061344444751739501953125</LatitudeDegrees>
              <LongitudeDegrees>-1.73044851981103420257568359375</LongitudeDegrees>
            </Position>
            <AltitudeMeters>18.799999237060546875</AltitudeMeters>
            <DistanceMeters>NAN</DistanceMeters>
          </Trackpoint>
          <Trackpoint>
            <Time>2021-08-11T09:22:01.000Z</Time>
            <Position>
              <LatitudeDegrees>43.29548475332558155059814453125</LatitudeDegrees>
              <LongitudeDegrees>-1.73047366552054882049560546875</LongitudeDegrees>
            </Position>
            <AltitudeMeters>18.799999237060546875</AltitudeMeters>
            <DistanceMeters>NAN</DistanceMeters>
          </Trackpoint>
          <Trackpoint>
            <Time>2021-08-11T09:22:02.000Z</Time>
            <Position>
              <LatitudeDegrees>43.2955089770257472991943359375</LatitudeDegrees>
              <LongitudeDegrees>-1.73049948178231716156005859375</LongitudeDegrees>
            </Position>
            <AltitudeMeters>18.799999237060546875</AltitudeMeters>
            <DistanceMeters>NAN</DistanceMeters>
          </Trackpoint>
          <Trackpoint>
            <Time>2021-08-11T09:22:03.000Z</Time>
            <Position>
              <LatitudeDegrees>43.2955317758023738861083984375</LatitudeDegrees>
              <LongitudeDegrees>-1.7305232025682926177978515625</LongitudeDegrees>
            </Position>
            <AltitudeMeters>18.799999237060546875</AltitudeMeters>
            <DistanceMeters>NAN</DistanceMeters>
          </Trackpoint>
          <Trackpoint>
            <Time>2021-08-11T09:22:04.000Z</Time>
            <Position>
              <LatitudeDegrees>43.29555164091289043426513671875</LatitudeDegrees>
              <LongitudeDegrees>-1.73055027611553668975830078125</LongitudeDegrees>
            </Position>
            <AltitudeMeters>18.799999237060546875</AltitudeMeters>
            <DistanceMeters>NAN</DistanceMeters>
          </Trackpoint>
          <Trackpoint>
            <Time>2021-08-11T09:22:05.000Z</Time>
            <Position>
              <LatitudeDegrees>43.29557276330888271331787109375</LatitudeDegrees>
              <LongitudeDegrees>-1.73057793639600276947021484375</LongitudeDegrees>
            </Position>
            <AltitudeMeters>18.799999237060546875</AltitudeMeters>
            <DistanceMeters>NAN</DistanceMeters>
          </Trackpoint>
          <Trackpoint>
            <Time>2021-08-11T09:22:06.000Z</Time>
            <Position>
              <LatitudeDegrees>43.29559204168617725372314453125</LatitudeDegrees>
              <LongitudeDegrees>-1.730607189238071441650390625</LongitudeDegrees>
            </Position>
            <AltitudeMeters>18.799999237060546875</AltitudeMeters>
            <DistanceMeters>NAN</DistanceMeters>
          </Trackpoint>
          <Trackpoint>
            <Time>2021-08-11T09:22:11.000Z</Time>
            <Position>
              <LatitudeDegrees>43.295717351138591766357421875</LatitudeDegrees>
              <LongitudeDegrees>-1.730721183121204376220703125</LongitudeDegrees>
            </Position>
            <AltitudeMeters>18.799999237060546875</AltitudeMeters>
            <DistanceMeters>NAN</DistanceMeters>
          </Trackpoint>
          <Trackpoint>
            <Time>2021-08-11T09:22:12.000Z</Time>
            <Position>
              <LatitudeDegrees>43.2957533933222293853759765625</LatitudeDegrees>
              <LongitudeDegrees>-1.73073291778564453125</LongitudeDegrees>
            </Position>
            <AltitudeMeters>18.799999237060546875</AltitudeMeters>
            <DistanceMeters>NAN</DistanceMeters>
          </Trackpoint>
          <Trackpoint>
            <Time>2021-08-11T09:22:13.000Z</Time>
            <Position>
              <LatitudeDegrees>43.29578096978366374969482421875</LatitudeDegrees>
              <LongitudeDegrees>-1.730740964412689208984375</LongitudeDegrees>
            </Position>
            <AltitudeMeters>19</AltitudeMeters>
            <DistanceMeters>NAN</DistanceMeters>
          </Trackpoint>
          <Trackpoint>
            <Time>2021-08-11T09:22:18.000Z</Time>
            <Position>
              <LatitudeDegrees>43.295946680009365081787109375</LatitudeDegrees>
              <LongitudeDegrees>-1.73076837323606014251708984375</LongitudeDegrees>
            </Position>
            <AltitudeMeters>19</AltitudeMeters>
            <DistanceMeters>NAN</DistanceMeters>
          </Trackpoint>
          <Trackpoint>
            <Time>2021-08-11T09:22:22.000Z</Time>
            <Position>
              <LatitudeDegrees>43.29608372412621974945068359375</LatitudeDegrees>
              <LongitudeDegrees>-1.7308011464774608612060546875</LongitudeDegrees>
            </Position>
            <AltitudeMeters>19</AltitudeMeters>
            <DistanceMeters>NAN</DistanceMeters>
          </Trackpoint>
          <Trackpoint>
            <Time>2021-08-11T09:22:23.000Z</Time>
            <Position>
              <LatitudeDegrees>43.2961121387779712677001953125</LatitudeDegrees>
              <LongitudeDegrees>-1.73081271350383758544921875</LongitudeDegrees>
            </Position>
            <AltitudeMeters>19</AltitudeMeters>
            <DistanceMeters>NAN</DistanceMeters>
          </Trackpoint>
          <Trackpoint>
            <Time>2021-08-11T09:22:24.000Z</Time>
            <Position>
              <LatitudeDegrees>43.29613946378231048583984375</LatitudeDegrees>
              <LongitudeDegrees>-1.73082553781569004058837890625</LongitudeDegrees>
            </Position>
            <AltitudeMeters>18.799999237060546875</AltitudeMeters>
            <DistanceMeters>NAN</DistanceMeters>
          </Trackpoint>
          <Trackpoint>
            <Time>2021-08-11T09:22:26.000Z</Time>
            <Position>
              <LatitudeDegrees>43.296197466552257537841796875</LatitudeDegrees>
              <LongitudeDegrees>-1.7308477498590946197509765625</LongitudeDegrees>
            </Position>
            <AltitudeMeters>19</AltitudeMeters>
            <DistanceMeters>NAN</DistanceMeters>
          </Trackpoint>
          <Trackpoint>
            <Time>2021-08-11T09:22:35.000Z</Time>
            <Position>
              <LatitudeDegrees>43.2964692078530788421630859375</LatitudeDegrees>
              <LongitudeDegrees>-1.73097423277795314788818359375</LongitudeDegrees>
            </Position>
            <AltitudeMeters>19.3999996185302734375</AltitudeMeters>
            <DistanceMeters>NAN</DistanceMeters>
          </Trackpoint>
          <Trackpoint>
            <Time>2021-08-11T09:22:43.000Z</Time>
            <Position>
              <LatitudeDegrees>43.29672108404338359832763671875</LatitudeDegrees>
              <LongitudeDegrees>-1.73114170320332050323486328125</LongitudeDegrees>
            </Position>
            <AltitudeMeters>19.3999996185302734375</AltitudeMeters>
            <DistanceMeters>NAN</DistanceMeters>
          </Trackpoint>
          <Trackpoint>
            <Time>2021-08-11T09:22:49.000Z</Time>
            <Position>
              <LatitudeDegrees>43.29691864550113677978515625</LatitudeDegrees>
              <LongitudeDegrees>-1.73124345950782299041748046875</LongitudeDegrees>
            </Position>
            <AltitudeMeters>19.6000003814697265625</AltitudeMeters>
            <DistanceMeters>NAN</DistanceMeters>
          </Trackpoint>
          <Trackpoint>
            <Time>2021-08-11T09:22:50.000Z</Time>
            <Position>
              <LatitudeDegrees>43.2969429530203342437744140625</LatitudeDegrees>
              <LongitudeDegrees>-1.731258966028690338134765625</LongitudeDegrees>
            </Position>
            <AltitudeMeters>19.6000003814697265625</AltitudeMeters>
            <DistanceMeters>NAN</DistanceMeters>
          </Trackpoint>
          <Trackpoint>
            <Time>2021-08-11T09:22:51.000Z</Time>
            <Position>
              <LatitudeDegrees>43.29697019420564174652099609375</LatitudeDegrees>
              <LongitudeDegrees>-1.73127732239663600921630859375</LongitudeDegrees>
            </Position>
            <AltitudeMeters>19.6000003814697265625</AltitudeMeters>
            <DistanceMeters>NAN</DistanceMeters>
          </Trackpoint>
          <Trackpoint>
            <Time>2021-08-11T09:22:55.000Z</Time>
            <Position>
              <LatitudeDegrees>43.29710581339895725250244140625</LatitudeDegrees>
              <LongitudeDegrees>-1.7313479818403720855712890625</LongitudeDegrees>
            </Position>
            <AltitudeMeters>19.6000003814697265625</AltitudeMeters>
            <DistanceMeters>NAN</DistanceMeters>
          </Trackpoint>
          <Trackpoint>
            <Time>2021-08-11T09:22:56.000Z</Time>
            <Position>
              <LatitudeDegrees>43.29712978564202785491943359375</LatitudeDegrees>
              <LongitudeDegrees>-1.7313634045422077178955078125</LongitudeDegrees>
            </Position>
            <AltitudeMeters>19.6000003814697265625</AltitudeMeters>
            <DistanceMeters>NAN</DistanceMeters>
          </Trackpoint>
          <Trackpoint>
            <Time>2021-08-11T09:22:57.000Z</Time>
            <Position>
              <LatitudeDegrees>43.29716498963534832000732421875</LatitudeDegrees>
              <LongitudeDegrees>-1.73138410784304141998291015625</LongitudeDegrees>
            </Position>
            <AltitudeMeters>19.799999237060546875</AltitudeMeters>
            <DistanceMeters>NAN</DistanceMeters>
          </Trackpoint>
          <Trackpoint>
            <Time>2021-08-11T09:22:58.000Z</Time>
            <Position>
              <LatitudeDegrees>43.29719801433384418487548828125</LatitudeDegrees>
              <LongitudeDegrees>-1.73139450140297412872314453125</LongitudeDegrees>
            </Position>
            <AltitudeMeters>19.799999237060546875</AltitudeMeters>
            <DistanceMeters>NAN</DistanceMeters>
          </Trackpoint>
          <Trackpoint>
            <Time>2021-08-11T09:22:59.000Z</Time>
            <Position>
              <LatitudeDegrees>43.2972309552133083343505859375</LatitudeDegrees>
              <LongitudeDegrees>-1.731409840285778045654296875</LongitudeDegrees>
            </Position>
            <AltitudeMeters>19.799999237060546875</AltitudeMeters>
            <DistanceMeters>NAN</DistanceMeters>
          </Trackpoint>
          <Trackpoint>
            <Time>2021-08-11T09:23:00.000Z</Time>
            <Position>
              <LatitudeDegrees>43.2972577773034572601318359375</LatitudeDegrees>
              <LongitudeDegrees>-1.7314244247972965240478515625</LongitudeDegrees>
            </Position>
            <AltitudeMeters>19.799999237060546875</AltitudeMeters>
            <DistanceMeters>NAN</DistanceMeters>
          </Trackpoint>
          <Trackpoint>
            <Time>2021-08-11T09:23:01.000Z</Time>
            <Position>
              <LatitudeDegrees>43.29728971235454082489013671875</LatitudeDegrees>
              <LongitudeDegrees>-1.7314388416707515716552734375</LongitudeDegrees>
            </Position>
            <AltitudeMeters>19.799999237060546875</AltitudeMeters>
            <DistanceMeters>NAN</DistanceMeters>
          </Trackpoint>
          <Trackpoint>
            <Time>2021-08-11T09:23:03.000Z</Time>
            <Position>
              <LatitudeDegrees>43.29735224135220050811767578125</LatitudeDegrees>
              <LongitudeDegrees>-1.73147044144570827484130859375</LongitudeDegrees>
            </Position>
            <AltitudeMeters>19.799999237060546875</AltitudeMeters>
            <DistanceMeters>NAN</DistanceMeters>
          </Trackpoint>
          <Trackpoint>
            <Time>2021-08-11T09:23:04.000Z</Time>
            <Position>
              <LatitudeDegrees>43.29738174565136432647705078125</LatitudeDegrees>
              <LongitudeDegrees>-1.731485612690448760986328125</LongitudeDegrees>
            </Position>
            <AltitudeMeters>19.799999237060546875</AltitudeMeters>
            <DistanceMeters>NAN</DistanceMeters>
          </Trackpoint>
          <Trackpoint>
            <Time>2021-08-11T09:23:05.000Z</Time>
            <Position>
              <LatitudeDegrees>43.2974059693515300750732421875</LatitudeDegrees>
              <LongitudeDegrees>-1.73149575479328632354736328125</LongitudeDegrees>
            </Position>
            <AltitudeMeters>19.799999237060546875</AltitudeMeters>
            <DistanceMeters>NAN</DistanceMeters>
          </Trackpoint>
          <Trackpoint>
            <Time>2021-08-11T09:23:06.000Z</Time>
            <Position>
              <LatitudeDegrees>43.29743706621229648590087890625</LatitudeDegrees>
              <LongitudeDegrees>-1.7315094172954559326171875</LongitudeDegrees>
            </Position>
            <AltitudeMeters>19.6000003814697265625</AltitudeMeters>
            <DistanceMeters>NAN</DistanceMeters>
          </Trackpoint>
          <Trackpoint>
            <Time>2021-08-11T09:23:08.000Z</Time>
            <Position>
              <LatitudeDegrees>43.2975038699805736541748046875</LatitudeDegrees>
              <LongitudeDegrees>-1.73153682611882686614990234375</LongitudeDegrees>
            </Position>
            <AltitudeMeters>19.799999237060546875</AltitudeMeters>
            <DistanceMeters>NAN</DistanceMeters>
          </Trackpoint>
          <Trackpoint>
            <Time>2021-08-11T09:23:09.000Z</Time>
            <Position>
              <LatitudeDegrees>43.29753362573683261871337890625</LatitudeDegrees>
              <LongitudeDegrees>-1.73154839314520359039306640625</LongitudeDegrees>
            </Position>
            <AltitudeMeters>19.799999237060546875</AltitudeMeters>
            <DistanceMeters>NAN</DistanceMeters>
          </Trackpoint>
          <Trackpoint>
            <Time>2021-08-11T09:23:10.000Z</Time>
            <Position>
              <LatitudeDegrees>43.29756313003599643707275390625</LatitudeDegrees>
              <LongitudeDegrees>-1.7315598763525485992431640625</LongitudeDegrees>
            </Position>
            <AltitudeMeters>19.799999237060546875</AltitudeMeters>
            <DistanceMeters>NAN</DistanceMeters>
          </Trackpoint>
          <Trackpoint>
            <Time>2021-08-11T09:23:11.000Z</Time>
            <Position>
              <LatitudeDegrees>43.2975947298109531402587890625</LatitudeDegrees>
              <LongitudeDegrees>-1.73157253302633762359619140625</LongitudeDegrees>
            </Position>
            <AltitudeMeters>19.799999237060546875</AltitudeMeters>
            <DistanceMeters>NAN</DistanceMeters>
          </Trackpoint>
          <Trackpoint>
            <Time>2021-08-11T09:23:17.000Z</Time>
            <Position>
              <LatitudeDegrees>43.2977979071438312530517578125</LatitudeDegrees>
              <LongitudeDegrees>-1.73164277337491512298583984375</LongitudeDegrees>
            </Position>
            <AltitudeMeters>20</AltitudeMeters>
            <DistanceMeters>NAN</DistanceMeters>
          </Trackpoint>
          <Trackpoint>
            <Time>2021-08-11T09:23:18.000Z</Time>
            <Position>
              <LatitudeDegrees>43.29783218912780284881591796875</LatitudeDegrees>
              <LongitudeDegrees>-1.73165283165872097015380859375</LongitudeDegrees>
            </Position>
            <AltitudeMeters>20</AltitudeMeters>
            <DistanceMeters>NAN</DistanceMeters>
          </Trackpoint>
          <Trackpoint>
            <Time>2021-08-11T09:23:19.000Z</Time>
            <Position>
              <LatitudeDegrees>43.29787460155785083770751953125</LatitudeDegrees>
              <LongitudeDegrees>-1.73166238702833652496337890625</LongitudeDegrees>
            </Position>
            <AltitudeMeters>20.200000762939453125</AltitudeMeters>
            <DistanceMeters>NAN</DistanceMeters>
          </Trackpoint>
          <Trackpoint>
            <Time>2021-08-11T09:23:22.000Z</Time>
            <Position>
              <LatitudeDegrees>43.29797652550041675567626953125</LatitudeDegrees>
              <LongitudeDegrees>-1.73168040812015533447265625</LongitudeDegrees>
            </Position>
            <AltitudeMeters>20.200000762939453125</AltitudeMeters>
            <DistanceMeters>NAN</DistanceMeters>
          </Trackpoint>
          <Trackpoint>
            <Time>2021-08-11T09:23:30.000Z</Time>
            <Position>
              <LatitudeDegrees>43.29825011081993579864501953125</LatitudeDegrees>
              <LongitudeDegrees>-1.731717623770236968994140625</LongitudeDegrees>
            </Position>
            <AltitudeMeters>20.3999996185302734375</AltitudeMeters>
            <DistanceMeters>NAN</DistanceMeters>
          </Trackpoint>
          <Trackpoint>
            <Time>2021-08-11T09:23:37.000Z</Time>
            <Position>
              <LatitudeDegrees>43.2985308207571506500244140625</LatitudeDegrees>
              <LongitudeDegrees>-1.73177805729210376739501953125</LongitudeDegrees>
            </Position>
            <AltitudeMeters>20.3999996185302734375</AltitudeMeters>
            <DistanceMeters>NAN</DistanceMeters>
          </Trackpoint>
          <Trackpoint>
            <Time>2021-08-11T09:23:42.000Z</Time>
            <Position>
              <LatitudeDegrees>43.29871731810271739959716796875</LatitudeDegrees>
              <LongitudeDegrees>-1.7318083159625530242919921875</LongitudeDegrees>
            </Position>
            <AltitudeMeters>20.200000762939453125</AltitudeMeters>
            <DistanceMeters>NAN</DistanceMeters>
          </Trackpoint>
          <Trackpoint>
            <Time>2021-08-11T09:23:44.000Z</Time>
            <Position>
              <LatitudeDegrees>43.2987886480987071990966796875</LatitudeDegrees>
              <LongitudeDegrees>-1.73182767815887928009033203125</LongitudeDegrees>
            </Position>
            <AltitudeMeters>20</AltitudeMeters>
            <DistanceMeters>NAN</DistanceMeters>
          </Trackpoint>
          <Trackpoint>
            <Time>2021-08-11T09:23:45.000Z</Time>
            <Position>
              <LatitudeDegrees>43.298820666968822479248046875</LatitudeDegrees>
              <LongitudeDegrees>-1.73183153383433818817138671875</LongitudeDegrees>
            </Position>
            <AltitudeMeters>20</AltitudeMeters>
            <DistanceMeters>NAN</DistanceMeters>
          </Trackpoint>
          <Trackpoint>
            <Time>2021-08-11T09:23:46.000Z</Time>
            <Position>
              <LatitudeDegrees>43.298850171267986297607421875</LatitudeDegrees>
              <LongitudeDegrees>-1.73184209503233432769775390625</LongitudeDegrees>
            </Position>
            <AltitudeMeters>20</AltitudeMeters>
            <DistanceMeters>NAN</DistanceMeters>
          </Trackpoint>
          <Trackpoint>
            <Time>2021-08-11T09:23:47.000Z</Time>
            <Position>
              <LatitudeDegrees>43.29887875355780124664306640625</LatitudeDegrees>
              <LongitudeDegrees>-1.7318582721054553985595703125</LongitudeDegrees>
            </Position>
            <AltitudeMeters>20</AltitudeMeters>
            <DistanceMeters>NAN</DistanceMeters>
          </Trackpoint>
          <Trackpoint>
            <Time>2021-08-11T09:23:49.000Z</Time>
            <Position>
              <LatitudeDegrees>43.29894346185028553009033203125</LatitudeDegrees>
              <LongitudeDegrees>-1.73188786022365093231201171875</LongitudeDegrees>
            </Position>
            <AltitudeMeters>19.799999237060546875</AltitudeMeters>
            <DistanceMeters>NAN</DistanceMeters>
          </Trackpoint>
          <Trackpoint>
            <Time>2021-08-11T09:23:50.000Z</Time>
            <Position>
              <LatitudeDegrees>43.29897564835846424102783203125</LatitudeDegrees>
              <LongitudeDegrees>-1.73190009780228137969970703125</LongitudeDegrees>
            </Position>
            <AltitudeMeters>19.799999237060546875</AltitudeMeters>
            <DistanceMeters>NAN</DistanceMeters>
          </Trackpoint>
          <Trackpoint>
            <Time>2021-08-11T09:23:51.000Z</Time>
            <Position>
              <LatitudeDegrees>43.299006409943103790283203125</LatitudeDegrees>
              <LongitudeDegrees>-1.731912083923816680908203125</LongitudeDegrees>
            </Position>
            <AltitudeMeters>19.799999237060546875</AltitudeMeters>
            <DistanceMeters>NAN</DistanceMeters>
          </Trackpoint>
          <Trackpoint>
            <Time>2021-08-11T09:23:52.000Z</Time>
            <Position>
              <LatitudeDegrees>43.299039267003536224365234375</LatitudeDegrees>
              <LongitudeDegrees>-1.73192591406404972076416015625</LongitudeDegrees>
            </Position>
            <AltitudeMeters>19.799999237060546875</AltitudeMeters>
            <DistanceMeters>NAN</DistanceMeters>
          </Trackpoint>
          <Trackpoint>
            <Time>2021-08-11T09:23:53.000Z</Time>
            <Position>
              <LatitudeDegrees>43.299074470996856689453125</LatitudeDegrees>
              <LongitudeDegrees>-1.73194326460361480712890625</LongitudeDegrees>
            </Position>
            <AltitudeMeters>19.799999237060546875</AltitudeMeters>
            <DistanceMeters>NAN</DistanceMeters>
          </Trackpoint>
          <Trackpoint>
            <Time>2021-08-11T09:23:54.000Z</Time>
            <Position>
              <LatitudeDegrees>43.29910623840987682342529296875</LatitudeDegrees>
              <LongitudeDegrees>-1.731964051723480224609375</LongitudeDegrees>
            </Position>
            <AltitudeMeters>19.799999237060546875</AltitudeMeters>
            <DistanceMeters>NAN</DistanceMeters>
          </Trackpoint>
          <Trackpoint>
            <Time>2021-08-11T09:23:56.000Z</Time>
            <Position>
              <LatitudeDegrees>43.29916927032172679901123046875</LatitudeDegrees>
              <LongitudeDegrees>-1.73200839199125766754150390625</LongitudeDegrees>
            </Position>
            <AltitudeMeters>19.799999237060546875</AltitudeMeters>
            <DistanceMeters>NAN</DistanceMeters>
          </Trackpoint>
          <Trackpoint>
            <Time>2021-08-11T09:24:01.000Z</Time>
            <Position>
              <LatitudeDegrees>43.2993264310061931610107421875</LatitudeDegrees>
              <LongitudeDegrees>-1.7321120761334896087646484375</LongitudeDegrees>
            </Position>
            <AltitudeMeters>19.799999237060546875</AltitudeMeters>
            <DistanceMeters>NAN</DistanceMeters>
          </Trackpoint>
          <Trackpoint>
            <Time>2021-08-11T09:24:06.000Z</Time>
            <Position>
              <LatitudeDegrees>43.2994679175317287445068359375</LatitudeDegrees>
              <LongitudeDegrees>-1.732232607901096343994140625</LongitudeDegrees>
            </Position>
            <AltitudeMeters>19.6000003814697265625</AltitudeMeters>
            <DistanceMeters>NAN</DistanceMeters>
          </Trackpoint>
          <Trackpoint>
            <Time>2021-08-11T09:24:08.000Z</Time>
            <Position>
              <LatitudeDegrees>43.29953120090067386627197265625</LatitudeDegrees>
              <LongitudeDegrees>-1.73227996565401554107666015625</LongitudeDegrees>
            </Position>
            <AltitudeMeters>19.6000003814697265625</AltitudeMeters>
            <DistanceMeters>NAN</DistanceMeters>
          </Trackpoint>
          <Trackpoint>
            <Time>2021-08-11T09:24:09.000Z</Time>
            <Position>
              <LatitudeDegrees>43.29955483786761760711669921875</LatitudeDegrees>
              <LongitudeDegrees>-1.7322988249361515045166015625</LongitudeDegrees>
            </Position>
            <AltitudeMeters>19.799999237060546875</AltitudeMeters>
            <DistanceMeters>NAN</DistanceMeters>
          </Trackpoint>
          <Trackpoint>
            <Time>2021-08-11T09:24:10.000Z</Time>
            <Position>
              <LatitudeDegrees>43.29958467744290828704833984375</LatitudeDegrees>
              <LongitudeDegrees>-1.732320450246334075927734375</LongitudeDegrees>
            </Position>
            <AltitudeMeters>19.799999237060546875</AltitudeMeters>
            <DistanceMeters>NAN</DistanceMeters>
          </Trackpoint>
          <Trackpoint>
            <Time>2021-08-11T09:24:12.000Z</Time>
            <Position>
              <LatitudeDegrees>43.29964402131736278533935546875</LatitudeDegrees>
              <LongitudeDegrees>-1.73236277885735034942626953125</LongitudeDegrees>
            </Position>
            <AltitudeMeters>19.799999237060546875</AltitudeMeters>
            <DistanceMeters>NAN</DistanceMeters>
          </Trackpoint>
          <Trackpoint>
            <Time>2021-08-11T09:24:13.000Z</Time>
            <Position>
              <LatitudeDegrees>43.29967369325459003448486328125</LatitudeDegrees>
              <LongitudeDegrees>-1.732384823262691497802734375</LongitudeDegrees>
            </Position>
            <AltitudeMeters>19.799999237060546875</AltitudeMeters>
            <DistanceMeters>NAN</DistanceMeters>
          </Trackpoint>
          <Trackpoint>
            <Time>2021-08-11T09:24:14.000Z</Time>
            <Position>
              <LatitudeDegrees>43.299702443182468414306640625</LatitudeDegrees>
              <LongitudeDegrees>-1.732404269278049468994140625</LongitudeDegrees>
            </Position>
            <AltitudeMeters>19.799999237060546875</AltitudeMeters>
            <DistanceMeters>NAN</DistanceMeters>
          </Trackpoint>
          <Trackpoint>
            <Time>2021-08-11T09:24:16.000Z</Time>
            <Position>
              <LatitudeDegrees>43.29975918866693973541259765625</LatitudeDegrees>
              <LongitudeDegrees>-1.73243704251945018768310546875</LongitudeDegrees>
            </Position>
            <AltitudeMeters>19.799999237060546875</AltitudeMeters>
            <DistanceMeters>NAN</DistanceMeters>
          </Trackpoint>
          <Trackpoint>
            <Time>2021-08-11T09:24:17.000Z</Time>
            <Position>
              <LatitudeDegrees>43.29978567548096179962158203125</LatitudeDegrees>
              <LongitudeDegrees>-1.7324496991932392120361328125</LongitudeDegrees>
            </Position>
            <AltitudeMeters>19.799999237060546875</AltitudeMeters>
            <DistanceMeters>NAN</DistanceMeters>
          </Trackpoint>
          <Trackpoint>
            <Time>2021-08-11T09:24:18.000Z</Time>
            <Position>
              <LatitudeDegrees>43.299811743199825286865234375</LatitudeDegrees>
              <LongitudeDegrees>-1.73246906138956546783447265625</LongitudeDegrees>
            </Position>
            <AltitudeMeters>20</AltitudeMeters>
            <DistanceMeters>NAN</DistanceMeters>
          </Trackpoint>
          <Trackpoint>
            <Time>2021-08-11T09:24:20.000Z</Time>
            <Position>
              <LatitudeDegrees>43.299868069589138031005859375</LatitudeDegrees>
              <LongitudeDegrees>-1.7325248010456562042236328125</LongitudeDegrees>
            </Position>
            <AltitudeMeters>20</AltitudeMeters>
            <DistanceMeters>NAN</DistanceMeters>
          </Trackpoint>
          <Trackpoint>
            <Time>2021-08-11T09:24:21.000Z</Time>
            <Position>
              <LatitudeDegrees>43.29988726414740085601806640625</LatitudeDegrees>
              <LongitudeDegrees>-1.73254583962261676788330078125</LongitudeDegrees>
            </Position>
            <AltitudeMeters>20</AltitudeMeters>
            <DistanceMeters>NAN</DistanceMeters>
          </Trackpoint>
          <Trackpoint>
            <Time>2021-08-11T09:24:22.000Z</Time>
            <Position>
              <LatitudeDegrees>43.29991391859948635101318359375</LatitudeDegrees>
              <LongitudeDegrees>-1.7325703985989093780517578125</LongitudeDegrees>
            </Position>
            <AltitudeMeters>20</AltitudeMeters>
            <DistanceMeters>NAN</DistanceMeters>
          </Trackpoint>
          <Trackpoint>
            <Time>2021-08-11T09:24:23.000Z</Time>
            <Position>
              <LatitudeDegrees>43.29994526691734790802001953125</LatitudeDegrees>
              <LongitudeDegrees>-1.73259361647069454193115234375</LongitudeDegrees>
            </Position>
            <AltitudeMeters>20</AltitudeMeters>
            <DistanceMeters>NAN</DistanceMeters>
          </Trackpoint>
          <Trackpoint>
            <Time>2021-08-11T09:24:24.000Z</Time>
            <Position>
              <LatitudeDegrees>43.29997544176876544952392578125</LatitudeDegrees>
              <LongitudeDegrees>-1.73261876218020915985107421875</LongitudeDegrees>
            </Position>
            <AltitudeMeters>20</AltitudeMeters>
            <DistanceMeters>NAN</DistanceMeters>
          </Trackpoint>
          <Trackpoint>
            <Time>2021-08-11T09:24:26.000Z</Time>
            <Position>
              <LatitudeDegrees>43.30002590082585811614990234375</LatitudeDegrees>
              <LongitudeDegrees>-1.73266067169606685638427734375</LongitudeDegrees>
            </Position>
            <AltitudeMeters>20.200000762939453125</AltitudeMeters>
            <DistanceMeters>NAN</DistanceMeters>
          </Trackpoint>
          <Trackpoint>
            <Time>2021-08-11T09:24:27.000Z</Time>
            <Position>
              <LatitudeDegrees>43.30005121417343616485595703125</LatitudeDegrees>
              <LongitudeDegrees>-1.7326788604259490966796875</LongitudeDegrees>
            </Position>
            <AltitudeMeters>20.200000762939453125</AltitudeMeters>
            <DistanceMeters>NAN</DistanceMeters>
          </Trackpoint>
          <Trackpoint>
            <Time>2021-08-11T09:24:29.000Z</Time>
            <Position>
              <LatitudeDegrees>43.3000905252993106842041015625</LatitudeDegrees>
              <LongitudeDegrees>-1.73270761035382747650146484375</LongitudeDegrees>
            </Position>
            <AltitudeMeters>20.200000762939453125</AltitudeMeters>
            <DistanceMeters>NAN</DistanceMeters>
          </Trackpoint>
          <Trackpoint>
            <Time>2021-08-11T09:24:30.000Z</Time>
            <Position>
              <LatitudeDegrees>43.300112821161746978759765625</LatitudeDegrees>
              <LongitudeDegrees>-1.73272621817886829376220703125</LongitudeDegrees>
            </Position>
            <AltitudeMeters>20</AltitudeMeters>
            <DistanceMeters>NAN</DistanceMeters>
          </Trackpoint>
          <Trackpoint>
            <Time>2021-08-11T09:24:31.000Z</Time>
            <Position>
              <LatitudeDegrees>43.30013997852802276611328125</LatitudeDegrees>
              <LongitudeDegrees>-1.73274566419422626495361328125</LongitudeDegrees>
            </Position>
            <AltitudeMeters>20.200000762939453125</AltitudeMeters>
            <DistanceMeters>NAN</DistanceMeters>
          </Trackpoint>
          <Trackpoint>
            <Time>2021-08-11T09:24:36.000Z</Time>
            <Position>
              <LatitudeDegrees>43.300308287143707275390625</LatitudeDegrees>
              <LongitudeDegrees>-1.7328785173594951629638671875</LongitudeDegrees>
            </Position>
            <AltitudeMeters>20</AltitudeMeters>
            <DistanceMeters>NAN</DistanceMeters>
          </Trackpoint>
          <Trackpoint>
            <Time>2021-08-11T09:24:42.000Z</Time>
            <Position>
              <LatitudeDegrees>43.3004895038902759552001953125</LatitudeDegrees>
              <LongitudeDegrees>-1.73296988010406494140625</LongitudeDegrees>
            </Position>
            <AltitudeMeters>19.799999237060546875</AltitudeMeters>
            <DistanceMeters>NAN</DistanceMeters>
          </Trackpoint>
          <Trackpoint>
            <Time>2021-08-11T09:24:46.000Z</Time>
            <Position>
              <LatitudeDegrees>43.30065554939210414886474609375</LatitudeDegrees>
              <LongitudeDegrees>-1.733045317232608795166015625</LongitudeDegrees>
            </Position>
            <AltitudeMeters>19.799999237060546875</AltitudeMeters>
            <DistanceMeters>NAN</DistanceMeters>
          </Trackpoint>
          <Trackpoint>
            <Time>2021-08-11T09:24:47.000Z</Time>
            <Position>
              <LatitudeDegrees>43.300696201622486114501953125</LatitudeDegrees>
              <LongitudeDegrees>-1.7330632545053958892822265625</LongitudeDegrees>
            </Position>
            <AltitudeMeters>19.799999237060546875</AltitudeMeters>
            <DistanceMeters>NAN</DistanceMeters>
          </Trackpoint>
          <Trackpoint>
            <Time>2021-08-11T09:24:52.000Z</Time>
            <Position>
              <LatitudeDegrees>43.3009008876979351043701171875</LatitudeDegrees>
              <LongitudeDegrees>-1.73313684761524200439453125</LongitudeDegrees>
            </Position>
            <AltitudeMeters>19.3999996185302734375</AltitudeMeters>
            <DistanceMeters>NAN</DistanceMeters>
          </Trackpoint>
          <Trackpoint>
            <Time>2021-08-11T09:24:54.000Z</Time>
            <Position>
              <LatitudeDegrees>43.30097724683582782745361328125</LatitudeDegrees>
              <LongitudeDegrees>-1.7331728897988796234130859375</LongitudeDegrees>
            </Position>
            <AltitudeMeters>19.3999996185302734375</AltitudeMeters>
            <DistanceMeters>NAN</DistanceMeters>
          </Trackpoint>
          <Trackpoint>
            <Time>2021-08-11T09:24:57.000Z</Time>
            <Position>
              <LatitudeDegrees>43.30107078887522220611572265625</LatitudeDegrees>
              <LongitudeDegrees>-1.73321890644729137420654296875</LongitudeDegrees>
            </Position>
            <AltitudeMeters>19.3999996185302734375</AltitudeMeters>
            <DistanceMeters>NAN</DistanceMeters>
          </Trackpoint>
          <Trackpoint>
            <Time>2021-08-11T09:24:58.000Z</Time>
            <Position>
              <LatitudeDegrees>43.3011044003069400787353515625</LatitudeDegrees>
              <LongitudeDegrees>-1.73323231749236583709716796875</LongitudeDegrees>
            </Position>
            <AltitudeMeters>19.3999996185302734375</AltitudeMeters>
            <DistanceMeters>NAN</DistanceMeters>
          </Trackpoint>
          <Trackpoint>
            <Time>2021-08-11T09:24:59.000Z</Time>
            <Position>
              <LatitudeDegrees>43.3011335693299770355224609375</LatitudeDegrees>
              <LongitudeDegrees>-1.733244471251964569091796875</LongitudeDegrees>
            </Position>
            <AltitudeMeters>19.3999996185302734375</AltitudeMeters>
            <DistanceMeters>NAN</DistanceMeters>
          </Trackpoint>
          <Trackpoint>
            <Time>2021-08-11T09:25:00.000Z</Time>
            <Position>
              <LatitudeDegrees>43.3011639118194580078125</LatitudeDegrees>
              <LongitudeDegrees>-1.73325628973543643951416015625</LongitudeDegrees>
            </Position>
            <AltitudeMeters>19.3999996185302734375</AltitudeMeters>
            <DistanceMeters>NAN</DistanceMeters>
          </Trackpoint>
          <Trackpoint>
            <Time>2021-08-11T09:25:01.000Z</Time>
            <Position>
              <LatitudeDegrees>43.30119534395635128021240234375</LatitudeDegrees>
              <LongitudeDegrees>-1.73327120952308177947998046875</LongitudeDegrees>
            </Position>
            <AltitudeMeters>19.3999996185302734375</AltitudeMeters>
            <DistanceMeters>NAN</DistanceMeters>
          </Trackpoint>
          <Trackpoint>
            <Time>2021-08-11T09:25:02.000Z</Time>
            <Position>
              <LatitudeDegrees>43.3012267760932445526123046875</LatitudeDegrees>
              <LongitudeDegrees>-1.73329300247132778167724609375</LongitudeDegrees>
            </Position>
            <AltitudeMeters>19.200000762939453125</AltitudeMeters>
            <DistanceMeters>NAN</DistanceMeters>
          </Trackpoint>
          <Trackpoint>
            <Time>2021-08-11T09:25:03.000Z</Time>
            <Position>
              <LatitudeDegrees>43.30126089043915271759033203125</LatitudeDegrees>
              <LongitudeDegrees>-1.7333091795444488525390625</LongitudeDegrees>
            </Position>
            <AltitudeMeters>19.200000762939453125</AltitudeMeters>
            <DistanceMeters>NAN</DistanceMeters>
          </Trackpoint>
          <Trackpoint>
            <Time>2021-08-11T09:25:04.000Z</Time>
            <Position>
              <LatitudeDegrees>43.30129609443247318267822265625</LatitudeDegrees>
              <LongitudeDegrees>-1.73333256505429744720458984375</LongitudeDegrees>
            </Position>
            <AltitudeMeters>19.200000762939453125</AltitudeMeters>
            <DistanceMeters>NAN</DistanceMeters>
          </Trackpoint>
          <Trackpoint>
            <Time>2021-08-11T09:25:09.000Z</Time>
            <Position>
              <LatitudeDegrees>43.30145183019340038299560546875</LatitudeDegrees>
              <LongitudeDegrees>-1.7334119416773319244384765625</LongitudeDegrees>
            </Position>
            <AltitudeMeters>19.200000762939453125</AltitudeMeters>
            <DistanceMeters>NAN</DistanceMeters>
          </Trackpoint>
          <Trackpoint>
            <Time>2021-08-11T09:25:13.000Z</Time>
            <Position>
              <LatitudeDegrees>43.301574625074863433837890625</LatitudeDegrees>
              <LongitudeDegrees>-1.7334662564098834991455078125</LongitudeDegrees>
            </Position>
            <AltitudeMeters>19.200000762939453125</AltitudeMeters>
            <DistanceMeters>NAN</DistanceMeters>
          </Trackpoint>
          <Trackpoint>
            <Time>2021-08-11T09:25:14.000Z</Time>
            <Position>
              <LatitudeDegrees>43.30160873942077159881591796875</LatitudeDegrees>
              <LongitudeDegrees>-1.73348461277782917022705078125</LongitudeDegrees>
            </Position>
            <AltitudeMeters>19.200000762939453125</AltitudeMeters>
            <DistanceMeters>NAN</DistanceMeters>
          </Trackpoint>
          <Trackpoint>
            <Time>2021-08-11T09:25:15.000Z</Time>
            <Position>
              <LatitudeDegrees>43.30163522623479366302490234375</LatitudeDegrees>
              <LongitudeDegrees>-1.7334984429180622100830078125</LongitudeDegrees>
            </Position>
            <AltitudeMeters>19.200000762939453125</AltitudeMeters>
            <DistanceMeters>NAN</DistanceMeters>
          </Trackpoint>
          <Trackpoint>
            <Time>2021-08-11T09:25:19.000Z</Time>
            <Position>
              <LatitudeDegrees>43.30176807940006256103515625</LatitudeDegrees>
              <LongitudeDegrees>-1.733579076826572418212890625</LongitudeDegrees>
            </Position>
            <AltitudeMeters>19.200000762939453125</AltitudeMeters>
            <DistanceMeters>NAN</DistanceMeters>
          </Trackpoint>
          <Trackpoint>
            <Time>2021-08-11T09:25:25.000Z</Time>
            <Position>
              <LatitudeDegrees>43.3019781298935413360595703125</LatitudeDegrees>
              <LongitudeDegrees>-1.73369214870035648345947265625</LongitudeDegrees>
            </Position>
            <AltitudeMeters>19.200000762939453125</AltitudeMeters>
            <DistanceMeters>NAN</DistanceMeters>
          </Trackpoint>
          <Trackpoint>
            <Time>2021-08-11T09:25:26.000Z</Time>
            <Position>
              <LatitudeDegrees>43.30201677046716213226318359375</LatitudeDegrees>
              <LongitudeDegrees>-1.7337029613554477691650390625</LongitudeDegrees>
            </Position>
            <AltitudeMeters>19.200000762939453125</AltitudeMeters>
            <DistanceMeters>NAN</DistanceMeters>
          </Trackpoint>
          <Trackpoint>
            <Time>2021-08-11T09:25:27.000Z</Time>
            <Position>
              <LatitudeDegrees>43.30204945988953113555908203125</LatitudeDegrees>
              <LongitudeDegrees>-1.73370941542088985443115234375</LongitudeDegrees>
            </Position>
            <AltitudeMeters>19.200000762939453125</AltitudeMeters>
            <DistanceMeters>NAN</DistanceMeters>
          </Trackpoint>
          <Trackpoint>
            <Time>2021-08-11T09:25:30.000Z</Time>
            <Position>
              <LatitudeDegrees>43.3021474443376064300537109375</LatitudeDegrees>
              <LongitudeDegrees>-1.733723916113376617431640625</LongitudeDegrees>
            </Position>
            <AltitudeMeters>19.200000762939453125</AltitudeMeters>
            <DistanceMeters>NAN</DistanceMeters>
          </Trackpoint>
          <Trackpoint>
            <Time>2021-08-11T09:25:31.000Z</Time>
            <Position>
              <LatitudeDegrees>43.3021769486367702484130859375</LatitudeDegrees>
              <LongitudeDegrees>-1.73373766243457794189453125</LongitudeDegrees>
            </Position>
            <AltitudeMeters>19.200000762939453125</AltitudeMeters>
            <DistanceMeters>NAN</DistanceMeters>
          </Trackpoint>
          <Trackpoint>
            <Time>2021-08-11T09:25:32.000Z</Time>
            <Position>
              <LatitudeDegrees>43.30220284871757030487060546875</LatitudeDegrees>
              <LongitudeDegrees>-1.7337499000132083892822265625</LongitudeDegrees>
            </Position>
            <AltitudeMeters>19.200000762939453125</AltitudeMeters>
            <DistanceMeters>NAN</DistanceMeters>
          </Trackpoint>
          <Trackpoint>
            <Time>2021-08-11T09:25:33.000Z</Time>
            <Position>
              <LatitudeDegrees>43.30222732387483119964599609375</LatitudeDegrees>
              <LongitudeDegrees>-1.7337629757821559906005859375</LongitudeDegrees>
            </Position>
            <AltitudeMeters>19.200000762939453125</AltitudeMeters>
            <DistanceMeters>NAN</DistanceMeters>
          </Trackpoint>
          <Trackpoint>
            <Time>2021-08-11T09:25:34.000Z</Time>
            <Position>
              <LatitudeDegrees>43.30225749872624874114990234375</LatitudeDegrees>
              <LongitudeDegrees>-1.733776219189167022705078125</LongitudeDegrees>
            </Position>
            <AltitudeMeters>19.200000762939453125</AltitudeMeters>
            <DistanceMeters>NAN</DistanceMeters>
          </Trackpoint>
          <Trackpoint>
            <Time>2021-08-11T09:25:35.000Z</Time>
            <Position>
              <LatitudeDegrees>43.3022862486541271209716796875</LatitudeDegrees>
              <LongitudeDegrees>-1.73379055224359035491943359375</LongitudeDegrees>
            </Position>
            <AltitudeMeters>19.200000762939453125</AltitudeMeters>
            <DistanceMeters>NAN</DistanceMeters>
          </Trackpoint>
          <Trackpoint>
            <Time>2021-08-11T09:25:36.000Z</Time>
            <Position>
              <LatitudeDegrees>43.30231265164911746978759765625</LatitudeDegrees>
              <LongitudeDegrees>-1.73380597494542598724365234375</LongitudeDegrees>
            </Position>
            <AltitudeMeters>19.200000762939453125</AltitudeMeters>
            <DistanceMeters>NAN</DistanceMeters>
          </Trackpoint>
          <Trackpoint>
            <Time>2021-08-11T09:25:37.000Z</Time>
            <Position>
              <LatitudeDegrees>43.302343748509883880615234375</LatitudeDegrees>
              <LongitudeDegrees>-1.73382282257080078125</LongitudeDegrees>
            </Position>
            <AltitudeMeters>19.200000762939453125</AltitudeMeters>
            <DistanceMeters>NAN</DistanceMeters>
          </Trackpoint>
          <Trackpoint>
            <Time>2021-08-11T09:25:40.000Z</Time>
            <Position>
              <LatitudeDegrees>43.30244399607181549072265625</LatitudeDegrees>
              <LongitudeDegrees>-1.73387135379016399383544921875</LongitudeDegrees>
            </Position>
            <AltitudeMeters>19.200000762939453125</AltitudeMeters>
            <DistanceMeters>NAN</DistanceMeters>
          </Trackpoint>
          <Trackpoint>
            <Time>2021-08-11T09:25:41.000Z</Time>
            <Position>
              <LatitudeDegrees>43.302466459572315216064453125</LatitudeDegrees>
              <LongitudeDegrees>-1.733884848654270172119140625</LongitudeDegrees>
            </Position>
            <AltitudeMeters>19.200000762939453125</AltitudeMeters>
            <DistanceMeters>NAN</DistanceMeters>
          </Trackpoint>
          <Trackpoint>
            <Time>2021-08-11T09:25:42.000Z</Time>
            <Position>
              <LatitudeDegrees>43.30249370075762271881103515625</LatitudeDegrees>
              <LongitudeDegrees>-1.73390236683189868927001953125</LongitudeDegrees>
            </Position>
            <AltitudeMeters>19.200000762939453125</AltitudeMeters>
            <DistanceMeters>NAN</DistanceMeters>
          </Trackpoint>
          <Trackpoint>
            <Time>2021-08-11T09:25:48.000Z</Time>
            <Position>
              <LatitudeDegrees>43.302704505622386932373046875</LatitudeDegrees>
              <LongitudeDegrees>-1.7339624650776386260986328125</LongitudeDegrees>
            </Position>
            <AltitudeMeters>19.200000762939453125</AltitudeMeters>
            <DistanceMeters>NAN</DistanceMeters>
          </Trackpoint>
          <Trackpoint>
            <Time>2021-08-11T09:25:53.000Z</Time>
            <Position>
              <LatitudeDegrees>43.3029182441532611846923828125</LatitudeDegrees>
              <LongitudeDegrees>-1.7340301908552646636962890625</LongitudeDegrees>
            </Position>
            <AltitudeMeters>18.799999237060546875</AltitudeMeters>
            <DistanceMeters>NAN</DistanceMeters>
          </Trackpoint>
          <Trackpoint>
            <Time>2021-08-11T09:25:54.000Z</Time>
            <Position>
              <LatitudeDegrees>43.30297012813389301300048828125</LatitudeDegrees>
              <LongitudeDegrees>-1.734057180583477020263671875</LongitudeDegrees>
            </Position>
            <AltitudeMeters>18.6000003814697265625</AltitudeMeters>
            <DistanceMeters>NAN</DistanceMeters>
          </Trackpoint>
          <Trackpoint>
            <Time>2021-08-11T09:25:55.000Z</Time>
            <Position>
              <LatitudeDegrees>43.3030132949352264404296875</LatitudeDegrees>
              <LongitudeDegrees>-1.7340774647891521453857421875</LongitudeDegrees>
            </Position>
            <AltitudeMeters>18.3999996185302734375</AltitudeMeters>
            <DistanceMeters>NAN</DistanceMeters>
          </Trackpoint>
          <Trackpoint>
            <Time>2021-08-11T09:25:57.000Z</Time>
            <Position>
              <LatitudeDegrees>43.303092084825038909912109375</LatitudeDegrees>
              <LongitudeDegrees>-1.73411007039248943328857421875</LongitudeDegrees>
            </Position>
            <AltitudeMeters>18</AltitudeMeters>
            <DistanceMeters>NAN</DistanceMeters>
          </Trackpoint>
          <Trackpoint>
            <Time>2021-08-11T09:25:58.000Z</Time>
            <Position>
              <LatitudeDegrees>43.30313256941735744476318359375</LatitudeDegrees>
              <LongitudeDegrees>-1.7341250739991664886474609375</LongitudeDegrees>
            </Position>
            <AltitudeMeters>18</AltitudeMeters>
            <DistanceMeters>NAN</DistanceMeters>
          </Trackpoint>
          <Trackpoint>
            <Time>2021-08-11T09:26:01.000Z</Time>
            <Position>
              <LatitudeDegrees>43.30325326882302761077880859375</LatitudeDegrees>
              <LongitudeDegrees>-1.73415885306894779205322265625</LongitudeDegrees>
            </Position>
            <AltitudeMeters>17.6000003814697265625</AltitudeMeters>
            <DistanceMeters>NAN</DistanceMeters>
          </Trackpoint>
          <Trackpoint>
            <Time>2021-08-11T09:26:02.000Z</Time>
            <Position>
              <LatitudeDegrees>43.30329216085374355316162109375</LatitudeDegrees>
              <LongitudeDegrees>-1.73416815698146820068359375</LongitudeDegrees>
            </Position>
            <AltitudeMeters>17.6000003814697265625</AltitudeMeters>
            <DistanceMeters>NAN</DistanceMeters>
          </Trackpoint>
          <Trackpoint>
            <Time>2021-08-11T09:26:03.000Z</Time>
            <Position>
              <LatitudeDegrees>43.303317725658416748046875</LatitudeDegrees>
              <LongitudeDegrees>-1.73417729325592517852783203125</LongitudeDegrees>
            </Position>
            <AltitudeMeters>17.6000003814697265625</AltitudeMeters>
            <DistanceMeters>NAN</DistanceMeters>
          </Trackpoint>
          <Trackpoint>
            <Time>2021-08-11T09:26:04.000Z</Time>
            <Position>
              <LatitudeDegrees>43.303350247442722320556640625</LatitudeDegrees>
              <LongitudeDegrees>-1.73418718390166759490966796875</LongitudeDegrees>
            </Position>
            <AltitudeMeters>17.6000003814697265625</AltitudeMeters>
            <DistanceMeters>NAN</DistanceMeters>
          </Trackpoint>
          <Trackpoint>
            <Time>2021-08-11T09:26:05.000Z</Time>
            <Position>
              <LatitudeDegrees>43.3033829368650913238525390625</LatitudeDegrees>
              <LongitudeDegrees>-1.73419154249131679534912109375</LongitudeDegrees>
            </Position>
            <AltitudeMeters>17.6000003814697265625</AltitudeMeters>
            <DistanceMeters>NAN</DistanceMeters>
          </Trackpoint>
          <Trackpoint>
            <Time>2021-08-11T09:26:08.000Z</Time>
            <Position>
              <LatitudeDegrees>43.30348829738795757293701171875</LatitudeDegrees>
              <LongitudeDegrees>-1.73419455997645854949951171875</LongitudeDegrees>
            </Position>
            <AltitudeMeters>17.3999996185302734375</AltitudeMeters>
            <DistanceMeters>NAN</DistanceMeters>
          </Trackpoint>
          <Trackpoint>
            <Time>2021-08-11T09:26:11.000Z</Time>
            <Position>
              <LatitudeDegrees>43.30358670093119144439697265625</LatitudeDegrees>
              <LongitudeDegrees>-1.73420797102153301239013671875</LongitudeDegrees>
            </Position>
            <AltitudeMeters>17.6000003814697265625</AltitudeMeters>
            <DistanceMeters>NAN</DistanceMeters>
          </Trackpoint>
          <Trackpoint>
            <Time>2021-08-11T09:26:12.000Z</Time>
            <Position>
              <LatitudeDegrees>43.3036275207996368408203125</LatitudeDegrees>
              <LongitudeDegrees>-1.73421400599181652069091796875</LongitudeDegrees>
            </Position>
            <AltitudeMeters>17.6000003814697265625</AltitudeMeters>
            <DistanceMeters>NAN</DistanceMeters>
          </Trackpoint>
          <Trackpoint>
            <Time>2021-08-11T09:26:13.000Z</Time>
            <Position>
              <LatitudeDegrees>43.30365308560431003570556640625</LatitudeDegrees>
              <LongitudeDegrees>-1.73421618528664112091064453125</LongitudeDegrees>
            </Position>
            <AltitudeMeters>17.6000003814697265625</AltitudeMeters>
            <DistanceMeters>NAN</DistanceMeters>
          </Trackpoint>
          <Trackpoint>
            <Time>2021-08-11T09:26:14.000Z</Time>
            <Position>
              <LatitudeDegrees>43.303682170808315277099609375</LatitudeDegrees>
              <LongitudeDegrees>-1.7342209629714488983154296875</LongitudeDegrees>
            </Position>
            <AltitudeMeters>17.6000003814697265625</AltitudeMeters>
            <DistanceMeters>NAN</DistanceMeters>
          </Trackpoint>
          <Trackpoint>
            <Time>2021-08-11T09:26:15.000Z</Time>
            <Position>
              <LatitudeDegrees>43.30371159128844738006591796875</LatitudeDegrees>
              <LongitudeDegrees>-1.73422791995108127593994140625</LongitudeDegrees>
            </Position>
            <AltitudeMeters>17.799999237060546875</AltitudeMeters>
            <DistanceMeters>NAN</DistanceMeters>
          </Trackpoint>
          <Trackpoint>
            <Time>2021-08-11T09:26:22.000Z</Time>
            <Position>
              <LatitudeDegrees>43.30396170727908611297607421875</LatitudeDegrees>
              <LongitudeDegrees>-1.73425993882119655609130859375</LongitudeDegrees>
            </Position>
            <AltitudeMeters>18</AltitudeMeters>
            <DistanceMeters>NAN</DistanceMeters>
          </Trackpoint>
          <Trackpoint>
            <Time>2021-08-11T09:26:29.000Z</Time>
            <Position>
              <LatitudeDegrees>43.3042439259588718414306640625</LatitudeDegrees>
              <LongitudeDegrees>-1.7342828214168548583984375</LongitudeDegrees>
            </Position>
            <AltitudeMeters>17.799999237060546875</AltitudeMeters>
            <DistanceMeters>NAN</DistanceMeters>
          </Trackpoint>
          <Trackpoint>
            <Time>2021-08-11T09:26:38.000Z</Time>
            <Position>
              <LatitudeDegrees>43.30463804304599761962890625</LatitudeDegrees>
              <LongitudeDegrees>-1.73433369956910610198974609375</LongitudeDegrees>
            </Position>
            <AltitudeMeters>17</AltitudeMeters>
            <DistanceMeters>NAN</DistanceMeters>
          </Trackpoint>
          <Trackpoint>
            <Time>2021-08-11T09:26:39.000Z</Time>
            <Position>
              <LatitudeDegrees>43.30469042994081974029541015625</LatitudeDegrees>
              <LongitudeDegrees>-1.7343391478061676025390625</LongitudeDegrees>
            </Position>
            <AltitudeMeters>16.799999237060546875</AltitudeMeters>
            <DistanceMeters>NAN</DistanceMeters>
          </Trackpoint>
          <Trackpoint>
            <Time>2021-08-11T09:26:41.000Z</Time>
            <Position>
              <LatitudeDegrees>43.30480165779590606689453125</LatitudeDegrees>
              <LongitudeDegrees>-1.7343547381460666656494140625</LongitudeDegrees>
            </Position>
            <AltitudeMeters>16.3999996185302734375</AltitudeMeters>
            <DistanceMeters>NAN</DistanceMeters>
          </Trackpoint>
          <Trackpoint>
            <Time>2021-08-11T09:26:44.000Z</Time>
            <Position>
              <LatitudeDegrees>43.30493417568504810333251953125</LatitudeDegrees>
              <LongitudeDegrees>-1.73439086414873600006103515625</LongitudeDegrees>
            </Position>
            <AltitudeMeters>15.80000019073486328125</AltitudeMeters>
            <DistanceMeters>NAN</DistanceMeters>
          </Trackpoint>
          <Trackpoint>
            <Time>2021-08-11T09:26:48.000Z</Time>
            <Position>
              <LatitudeDegrees>43.305120170116424560546875</LatitudeDegrees>
              <LongitudeDegrees>-1.73443797044456005096435546875</LongitudeDegrees>
            </Position>
            <AltitudeMeters>15.3999996185302734375</AltitudeMeters>
            <DistanceMeters>NAN</DistanceMeters>
          </Trackpoint>
          <Trackpoint>
            <Time>2021-08-11T09:26:49.000Z</Time>
            <Position>
              <LatitudeDegrees>43.30515394918620586395263671875</LatitudeDegrees>
              <LongitudeDegrees>-1.7344472743570804595947265625</LongitudeDegrees>
            </Position>
            <AltitudeMeters>15.19999980926513671875</AltitudeMeters>
            <DistanceMeters>NAN</DistanceMeters>
          </Trackpoint>
          <Trackpoint>
            <Time>2021-08-11T09:26:50.000Z</Time>
            <Position>
              <LatitudeDegrees>43.30520424060523509979248046875</LatitudeDegrees>
              <LongitudeDegrees>-1.73445892520248889923095703125</LongitudeDegrees>
            </Position>
            <AltitudeMeters>15.19999980926513671875</AltitudeMeters>
            <DistanceMeters>NAN</DistanceMeters>
          </Trackpoint>
          <Trackpoint>
            <Time>2021-08-11T09:26:51.000Z</Time>
            <Position>
              <LatitudeDegrees>43.30523977987468242645263671875</LatitudeDegrees>
              <LongitudeDegrees>-1.734468229115009307861328125</LongitudeDegrees>
            </Position>
            <AltitudeMeters>15</AltitudeMeters>
            <DistanceMeters>NAN</DistanceMeters>
          </Trackpoint>
          <Trackpoint>
            <Time>2021-08-11T09:26:52.000Z</Time>
            <Position>
              <LatitudeDegrees>43.30526559613645076751708984375</LatitudeDegrees>
              <LongitudeDegrees>-1.73447703011333942413330078125</LongitudeDegrees>
            </Position>
            <AltitudeMeters>15</AltitudeMeters>
            <DistanceMeters>NAN</DistanceMeters>
          </Trackpoint>
          <Trackpoint>
            <Time>2021-08-11T09:26:53.000Z</Time>
            <Position>
              <LatitudeDegrees>43.30530080012977123260498046875</LatitudeDegrees>
              <LongitudeDegrees>-1.73449278809130191802978515625</LongitudeDegrees>
            </Position>
            <AltitudeMeters>15</AltitudeMeters>
            <DistanceMeters>NAN</DistanceMeters>
          </Trackpoint>
          <Trackpoint>
            <Time>2021-08-11T09:26:54.000Z</Time>
            <Position>
              <LatitudeDegrees>43.305335082113742828369140625</LatitudeDegrees>
              <LongitudeDegrees>-1.73450988717377185821533203125</LongitudeDegrees>
            </Position>
            <AltitudeMeters>15</AltitudeMeters>
            <DistanceMeters>NAN</DistanceMeters>
          </Trackpoint>
          <Trackpoint>
            <Time>2021-08-11T09:26:57.000Z</Time>
            <Position>
              <LatitudeDegrees>43.30543331801891326904296875</LatitudeDegrees>
              <LongitudeDegrees>-1.73455431126058101654052734375</LongitudeDegrees>
            </Position>
            <AltitudeMeters>15</AltitudeMeters>
            <DistanceMeters>NAN</DistanceMeters>
          </Trackpoint>
          <Trackpoint>
            <Time>2021-08-11T09:26:58.000Z</Time>
            <Position>
              <LatitudeDegrees>43.3054660074412822723388671875</LatitudeDegrees>
              <LongitudeDegrees>-1.7345669679343700408935546875</LongitudeDegrees>
            </Position>
            <AltitudeMeters>15.19999980926513671875</AltitudeMeters>
            <DistanceMeters>NAN</DistanceMeters>
          </Trackpoint>
          <Trackpoint>
            <Time>2021-08-11T09:26:59.000Z</Time>
            <Position>
              <LatitudeDegrees>43.305496014654636383056640625</LatitudeDegrees>
              <LongitudeDegrees>-1.73457962460815906524658203125</LongitudeDegrees>
            </Position>
            <AltitudeMeters>15.19999980926513671875</AltitudeMeters>
            <DistanceMeters>NAN</DistanceMeters>
          </Trackpoint>
          <Trackpoint>
            <Time>2021-08-11T09:27:00.000Z</Time>
            <Position>
              <LatitudeDegrees>43.3055243454873561859130859375</LatitudeDegrees>
              <LongitudeDegrees>-1.73459605313837528228759765625</LongitudeDegrees>
            </Position>
            <AltitudeMeters>15.19999980926513671875</AltitudeMeters>
            <DistanceMeters>NAN</DistanceMeters>
          </Trackpoint>
          <Trackpoint>
            <Time>2021-08-11T09:27:01.000Z</Time>
            <Position>
              <LatitudeDegrees>43.30555309541523456573486328125</LatitudeDegrees>
              <LongitudeDegrees>-1.7346169240772724151611328125</LongitudeDegrees>
            </Position>
            <AltitudeMeters>15.19999980926513671875</AltitudeMeters>
            <DistanceMeters>NAN</DistanceMeters>
          </Trackpoint>
          <Trackpoint>
            <Time>2021-08-11T09:27:02.000Z</Time>
            <Position>
              <LatitudeDegrees>43.30558310262858867645263671875</LatitudeDegrees>
              <LongitudeDegrees>-1.7346370406448841094970703125</LongitudeDegrees>
            </Position>
            <AltitudeMeters>15.19999980926513671875</AltitudeMeters>
            <DistanceMeters>NAN</DistanceMeters>
          </Trackpoint>
          <Trackpoint>
            <Time>2021-08-11T09:27:03.000Z</Time>
            <Position>
              <LatitudeDegrees>43.30562065355479717254638671875</LatitudeDegrees>
              <LongitudeDegrees>-1.73465497791767120361328125</LongitudeDegrees>
            </Position>
            <AltitudeMeters>15.19999980926513671875</AltitudeMeters>
            <DistanceMeters>NAN</DistanceMeters>
          </Trackpoint>
          <Trackpoint>
            <Time>2021-08-11T09:27:04.000Z</Time>
            <Position>
              <LatitudeDegrees>43.3056391775608062744140625</LatitudeDegrees>
              <LongitudeDegrees>-1.73466444946825504302978515625</LongitudeDegrees>
            </Position>
            <AltitudeMeters>15.19999980926513671875</AltitudeMeters>
            <DistanceMeters>NAN</DistanceMeters>
          </Trackpoint>
          <Trackpoint>
            <Time>2021-08-11T09:27:07.000Z</Time>
            <Position>
              <LatitudeDegrees>43.3057174645364284515380859375</LatitudeDegrees>
              <LongitudeDegrees>-1.734703592956066131591796875</LongitudeDegrees>
            </Position>
            <AltitudeMeters>15.19999980926513671875</AltitudeMeters>
            <DistanceMeters>NAN</DistanceMeters>
          </Trackpoint>
          <Trackpoint>
            <Time>2021-08-11T09:27:08.000Z</Time>
            <Position>
              <LatitudeDegrees>43.30574554391205310821533203125</LatitudeDegrees>
              <LongitudeDegrees>-1.73471524380147457122802734375</LongitudeDegrees>
            </Position>
            <AltitudeMeters>15.19999980926513671875</AltitudeMeters>
            <DistanceMeters>NAN</DistanceMeters>
          </Trackpoint>
          <Trackpoint>
            <Time>2021-08-11T09:27:09.000Z</Time>
            <Position>
              <LatitudeDegrees>43.30577471293509006500244140625</LatitudeDegrees>
              <LongitudeDegrees>-1.7347265593707561492919921875</LongitudeDegrees>
            </Position>
            <AltitudeMeters>15.19999980926513671875</AltitudeMeters>
            <DistanceMeters>NAN</DistanceMeters>
          </Trackpoint>
          <Trackpoint>
            <Time>2021-08-11T09:27:10.000Z</Time>
            <Position>
              <LatitudeDegrees>43.30580455251038074493408203125</LatitudeDegrees>
              <LongitudeDegrees>-1.7347406409680843353271484375</LongitudeDegrees>
            </Position>
            <AltitudeMeters>15</AltitudeMeters>
            <DistanceMeters>NAN</DistanceMeters>
          </Trackpoint>
          <Trackpoint>
            <Time>2021-08-11T09:27:11.000Z</Time>
            <Position>
              <LatitudeDegrees>43.30583288334310054779052734375</LatitudeDegrees>
              <LongitudeDegrees>-1.7347590811550617218017578125</LongitudeDegrees>
            </Position>
            <AltitudeMeters>15</AltitudeMeters>
            <DistanceMeters>NAN</DistanceMeters>
          </Trackpoint>
          <Trackpoint>
            <Time>2021-08-11T09:27:16.000Z</Time>
            <Position>
              <LatitudeDegrees>43.305976800620555877685546875</LatitudeDegrees>
              <LongitudeDegrees>-1.7348559759557247161865234375</LongitudeDegrees>
            </Position>
            <AltitudeMeters>15</AltitudeMeters>
            <DistanceMeters>NAN</DistanceMeters>
          </Trackpoint>
          <Trackpoint>
            <Time>2021-08-11T09:27:24.000Z</Time>
            <Position>
              <LatitudeDegrees>43.306201435625553131103515625</LatitudeDegrees>
              <LongitudeDegrees>-1.735053621232509613037109375</LongitudeDegrees>
            </Position>
            <AltitudeMeters>14.80000019073486328125</AltitudeMeters>
            <DistanceMeters>NAN</DistanceMeters>
          </Trackpoint>
          <Trackpoint>
            <Time>2021-08-11T09:27:25.000Z</Time>
            <Position>
              <LatitudeDegrees>43.3062220551073551177978515625</LatitudeDegrees>
              <LongitudeDegrees>-1.735070049762725830078125</LongitudeDegrees>
            </Position>
            <AltitudeMeters>14.80000019073486328125</AltitudeMeters>
            <DistanceMeters>NAN</DistanceMeters>
          </Trackpoint>
          <Trackpoint>
            <Time>2021-08-11T09:27:26.000Z</Time>
            <Position>
              <LatitudeDegrees>43.30624627880752086639404296875</LatitudeDegrees>
              <LongitudeDegrees>-1.7350896634161472320556640625</LongitudeDegrees>
            </Position>
            <AltitudeMeters>14.80000019073486328125</AltitudeMeters>
            <DistanceMeters>NAN</DistanceMeters>
          </Trackpoint>
          <Trackpoint>
            <Time>2021-08-11T09:27:27.000Z</Time>
            <Position>
              <LatitudeDegrees>43.30626941286027431488037109375</LatitudeDegrees>
              <LongitudeDegrees>-1.73510651104152202606201171875</LongitudeDegrees>
            </Position>
            <AltitudeMeters>14.80000019073486328125</AltitudeMeters>
            <DistanceMeters>NAN</DistanceMeters>
          </Trackpoint>
          <Trackpoint>
            <Time>2021-08-11T09:27:28.000Z</Time>
            <Position>
              <LatitudeDegrees>43.3062951453030109405517578125</LatitudeDegrees>
              <LongitudeDegrees>-1.73512361012399196624755859375</LongitudeDegrees>
            </Position>
            <AltitudeMeters>14.80000019073486328125</AltitudeMeters>
            <DistanceMeters>NAN</DistanceMeters>
          </Trackpoint>
          <Trackpoint>
            <Time>2021-08-11T09:27:31.000Z</Time>
            <Position>
              <LatitudeDegrees>43.30637611448764801025390625</LatitudeDegrees>
              <LongitudeDegrees>-1.73518203198909759521484375</LongitudeDegrees>
            </Position>
            <AltitudeMeters>15</AltitudeMeters>
            <DistanceMeters>NAN</DistanceMeters>
          </Trackpoint>
          <Trackpoint>
            <Time>2021-08-11T09:27:32.000Z</Time>
            <Position>
              <LatitudeDegrees>43.30640251748263835906982421875</LatitudeDegrees>
              <LongitudeDegrees>-1.73520256765186786651611328125</LongitudeDegrees>
            </Position>
            <AltitudeMeters>15</AltitudeMeters>
            <DistanceMeters>NAN</DistanceMeters>
          </Trackpoint>
          <Trackpoint>
            <Time>2021-08-11T09:27:33.000Z</Time>
            <Position>
              <LatitudeDegrees>43.30642682500183582305908203125</LatitudeDegrees>
              <LongitudeDegrees>-1.73522285185754299163818359375</LongitudeDegrees>
            </Position>
            <AltitudeMeters>15.19999980926513671875</AltitudeMeters>
            <DistanceMeters>NAN</DistanceMeters>
          </Trackpoint>
          <Trackpoint>
            <Time>2021-08-11T09:27:34.000Z</Time>
            <Position>
              <LatitudeDegrees>43.30645515583455562591552734375</LatitudeDegrees>
              <LongitudeDegrees>-1.73524296842515468597412109375</LongitudeDegrees>
            </Position>
            <AltitudeMeters>15.19999980926513671875</AltitudeMeters>
            <DistanceMeters>NAN</DistanceMeters>
          </Trackpoint>
          <Trackpoint>
            <Time>2021-08-11T09:27:35.000Z</Time>
            <Position>
              <LatitudeDegrees>43.30648264847695827484130859375</LatitudeDegrees>
              <LongitudeDegrees>-1.73526786267757415771484375</LongitudeDegrees>
            </Position>
            <AltitudeMeters>15.19999980926513671875</AltitudeMeters>
            <DistanceMeters>NAN</DistanceMeters>
          </Trackpoint>
          <Trackpoint>
            <Time>2021-08-11T09:27:36.000Z</Time>
            <Position>
              <LatitudeDegrees>43.30650812946259975433349609375</LatitudeDegrees>
              <LongitudeDegrees>-1.73528839834034442901611328125</LongitudeDegrees>
            </Position>
            <AltitudeMeters>15.19999980926513671875</AltitudeMeters>
            <DistanceMeters>NAN</DistanceMeters>
          </Trackpoint>
          <Trackpoint>
            <Time>2021-08-11T09:27:40.000Z</Time>
            <Position>
              <LatitudeDegrees>43.30659873783588409423828125</LatitudeDegrees>
              <LongitudeDegrees>-1.735361404716968536376953125</LongitudeDegrees>
            </Position>
            <AltitudeMeters>15.6000003814697265625</AltitudeMeters>
            <DistanceMeters>NAN</DistanceMeters>
          </Trackpoint>
          <Trackpoint>
            <Time>2021-08-11T09:27:42.000Z</Time>
            <Position>
              <LatitudeDegrees>43.306627571582794189453125</LatitudeDegrees>
              <LongitudeDegrees>-1.7353981174528598785400390625</LongitudeDegrees>
            </Position>
            <AltitudeMeters>15.80000019073486328125</AltitudeMeters>
            <DistanceMeters>NAN</DistanceMeters>
          </Trackpoint>
          <Trackpoint>
            <Time>2021-08-11T09:27:43.000Z</Time>
            <Position>
              <LatitudeDegrees>43.3066408149898052215576171875</LatitudeDegrees>
              <LongitudeDegrees>-1.73541580326855182647705078125</LongitudeDegrees>
            </Position>
            <AltitudeMeters>15.80000019073486328125</AltitudeMeters>
            <DistanceMeters>NAN</DistanceMeters>
          </Trackpoint>
          <Trackpoint>
            <Time>2021-08-11T09:27:44.000Z</Time>
            <Position>
              <LatitudeDegrees>43.3066572435200214385986328125</LatitudeDegrees>
              <LongitudeDegrees>-1.735432147979736328125</LongitudeDegrees>
            </Position>
            <AltitudeMeters>16</AltitudeMeters>
            <DistanceMeters>NAN</DistanceMeters>
          </Trackpoint>
          <Trackpoint>
            <Time>2021-08-11T09:27:48.000Z</Time>
            <Position>
              <LatitudeDegrees>43.3067434094846248626708984375</LatitudeDegrees>
              <LongitudeDegrees>-1.73550448380410671234130859375</LongitudeDegrees>
            </Position>
            <AltitudeMeters>16.3999996185302734375</AltitudeMeters>
            <DistanceMeters>NAN</DistanceMeters>
          </Trackpoint>
          <Trackpoint>
            <Time>2021-08-11T09:27:51.000Z</Time>
            <Position>
              <LatitudeDegrees>43.3068523742258548736572265625</LatitudeDegrees>
              <LongitudeDegrees>-1.7355339042842388153076171875</LongitudeDegrees>
            </Position>
            <AltitudeMeters>16.3999996185302734375</AltitudeMeters>
            <DistanceMeters>NAN</DistanceMeters>
          </Trackpoint>
          <Trackpoint>
            <Time>2021-08-11T09:27:52.000Z</Time>
            <Position>
              <LatitudeDegrees>43.30689067952334880828857421875</LatitudeDegrees>
              <LongitudeDegrees>-1.73553482629358768463134765625</LongitudeDegrees>
            </Position>
            <AltitudeMeters>16.3999996185302734375</AltitudeMeters>
            <DistanceMeters>NAN</DistanceMeters>
          </Trackpoint>
          <Trackpoint>
            <Time>2021-08-11T09:27:53.000Z</Time>
            <Position>
              <LatitudeDegrees>43.30692873336374759674072265625</LatitudeDegrees>
              <LongitudeDegrees>-1.735533736646175384521484375</LongitudeDegrees>
            </Position>
            <AltitudeMeters>16.3999996185302734375</AltitudeMeters>
            <DistanceMeters>NAN</DistanceMeters>
          </Trackpoint>
          <Trackpoint>
            <Time>2021-08-11T09:27:54.000Z</Time>
            <Position>
              <LatitudeDegrees>43.30696712248027324676513671875</LatitudeDegrees>
              <LongitudeDegrees>-1.73553063534200191497802734375</LongitudeDegrees>
            </Position>
            <AltitudeMeters>16.3999996185302734375</AltitudeMeters>
            <DistanceMeters>NAN</DistanceMeters>
          </Trackpoint>
          <Trackpoint>
            <Time>2021-08-11T09:28:00.000Z</Time>
            <Position>
              <LatitudeDegrees>43.30724288709461688995361328125</LatitudeDegrees>
              <LongitudeDegrees>-1.7355235107243061065673828125</LongitudeDegrees>
            </Position>
            <AltitudeMeters>16.200000762939453125</AltitudeMeters>
            <DistanceMeters>NAN</DistanceMeters>
          </Trackpoint>
          <Trackpoint>
            <Time>2021-08-11T09:28:04.000Z</Time>
            <Position>
              <LatitudeDegrees>43.30744287930428981781005859375</LatitudeDegrees>
              <LongitudeDegrees>-1.73552409745752811431884765625</LongitudeDegrees>
            </Position>
            <AltitudeMeters>15.80000019073486328125</AltitudeMeters>
            <DistanceMeters>NAN</DistanceMeters>
          </Trackpoint>
          <Trackpoint>
            <Time>2021-08-11T09:28:05.000Z</Time>
            <Position>
              <LatitudeDegrees>43.30748897977173328399658203125</LatitudeDegrees>
              <LongitudeDegrees>-1.735523678362369537353515625</LongitudeDegrees>
            </Position>
            <AltitudeMeters>15.80000019073486328125</AltitudeMeters>
            <DistanceMeters>NAN</DistanceMeters>
          </Trackpoint>
          <Trackpoint>
            <Time>2021-08-11T09:28:06.000Z</Time>
            <Position>
              <LatitudeDegrees>43.30753390677273273468017578125</LatitudeDegrees>
              <LongitudeDegrees>-1.73552309162914752960205078125</LongitudeDegrees>
            </Position>
            <AltitudeMeters>15.80000019073486328125</AltitudeMeters>
            <DistanceMeters>NAN</DistanceMeters>
          </Trackpoint>
          <Trackpoint>
            <Time>2021-08-11T09:28:08.000Z</Time>
            <Position>
              <LatitudeDegrees>43.3075789175927639007568359375</LatitudeDegrees>
              <LongitudeDegrees>-1.7355238460004329681396484375</LongitudeDegrees>
            </Position>
            <AltitudeMeters>15.6000003814697265625</AltitudeMeters>
            <DistanceMeters>NAN</DistanceMeters>
          </Trackpoint>
          <Trackpoint>
            <Time>2021-08-11T09:28:09.000Z</Time>
            <Position>
              <LatitudeDegrees>43.30761839635670185089111328125</LatitudeDegrees>
              <LongitudeDegrees>-1.7355241812765598297119140625</LongitudeDegrees>
            </Position>
            <AltitudeMeters>15.6000003814697265625</AltitudeMeters>
            <DistanceMeters>NAN</DistanceMeters>
          </Trackpoint>
          <Trackpoint>
            <Time>2021-08-11T09:28:10.000Z</Time>
            <Position>
              <LatitudeDegrees>43.30768696032464504241943359375</LatitudeDegrees>
              <LongitudeDegrees>-1.7355248518288135528564453125</LongitudeDegrees>
            </Position>
            <AltitudeMeters>15.6000003814697265625</AltitudeMeters>
            <DistanceMeters>NAN</DistanceMeters>
          </Trackpoint>
          <Trackpoint>
            <Time>2021-08-11T09:28:11.000Z</Time>
            <Position>
              <LatitudeDegrees>43.30771964974701404571533203125</LatitudeDegrees>
              <LongitudeDegrees>-1.73552862368524074554443359375</LongitudeDegrees>
            </Position>
            <AltitudeMeters>15.6000003814697265625</AltitudeMeters>
            <DistanceMeters>NAN</DistanceMeters>
          </Trackpoint>
          <Trackpoint>
            <Time>2021-08-11T09:28:12.000Z</Time>
            <Position>
              <LatitudeDegrees>43.30775418318808078765869140625</LatitudeDegrees>
              <LongitudeDegrees>-1.7355349101126194000244140625</LongitudeDegrees>
            </Position>
            <AltitudeMeters>15.3999996185302734375</AltitudeMeters>
            <DistanceMeters>NAN</DistanceMeters>
          </Trackpoint>
          <Trackpoint>
            <Time>2021-08-11T09:28:13.000Z</Time>
            <Position>
              <LatitudeDegrees>43.30775418318808078765869140625</LatitudeDegrees>
              <LongitudeDegrees>-1.7355349101126194000244140625</LongitudeDegrees>
            </Position>
            <AltitudeMeters>15.3999996185302734375</AltitudeMeters>
            <DistanceMeters>NAN</DistanceMeters>
          </Trackpoint>
          <Trackpoint>
            <Time>2021-08-11T09:28:19.000Z</Time>
            <Position>
              <LatitudeDegrees>43.30800178460776805877685546875</LatitudeDegrees>
              <LongitudeDegrees>-1.73564731143414974212646484375</LongitudeDegrees>
            </Position>
            <AltitudeMeters>15.19999980926513671875</AltitudeMeters>
            <DistanceMeters>NAN</DistanceMeters>
          </Trackpoint>
          <Trackpoint>
            <Time>2021-08-11T09:28:20.000Z</Time>
            <Position>
              <LatitudeDegrees>43.308044783771038055419921875</LatitudeDegrees>
              <LongitudeDegrees>-1.73568737693130970001220703125</LongitudeDegrees>
            </Position>
            <AltitudeMeters>15.19999980926513671875</AltitudeMeters>
            <DistanceMeters>NAN</DistanceMeters>
          </Trackpoint>
          <Trackpoint>
            <Time>2021-08-11T09:28:25.000Z</Time>
            <Position>
              <LatitudeDegrees>43.30820881761610507965087890625</LatitudeDegrees>
              <LongitudeDegrees>-1.7358792386949062347412109375</LongitudeDegrees>
            </Position>
            <AltitudeMeters>15.19999980926513671875</AltitudeMeters>
            <DistanceMeters>NAN</DistanceMeters>
          </Trackpoint>
          <Trackpoint>
            <Time>2021-08-11T09:28:29.000Z</Time>
            <Position>
              <LatitudeDegrees>43.30836958251893520355224609375</LatitudeDegrees>
              <LongitudeDegrees>-1.73600278794765472412109375</LongitudeDegrees>
            </Position>
            <AltitudeMeters>15.19999980926513671875</AltitudeMeters>
            <DistanceMeters>NAN</DistanceMeters>
          </Trackpoint>
          <Trackpoint>
            <Time>2021-08-11T09:28:30.000Z</Time>
            <Position>
              <LatitudeDegrees>43.3084033615887165069580078125</LatitudeDegrees>
              <LongitudeDegrees>-1.7360116727650165557861328125</LongitudeDegrees>
            </Position>
            <AltitudeMeters>15.19999980926513671875</AltitudeMeters>
            <DistanceMeters>NAN</DistanceMeters>
          </Trackpoint>
          <Trackpoint>
            <Time>2021-08-11T09:28:38.000Z</Time>
            <Position>
              <LatitudeDegrees>43.30875867046415805816650390625</LatitudeDegrees>
              <LongitudeDegrees>-1.73611636273562908172607421875</LongitudeDegrees>
            </Position>
            <AltitudeMeters>15.19999980926513671875</AltitudeMeters>
            <DistanceMeters>NAN</DistanceMeters>
          </Trackpoint>
          <Trackpoint>
            <Time>2021-08-11T09:28:47.000Z</Time>
            <Position>
              <LatitudeDegrees>43.30915077589452266693115234375</LatitudeDegrees>
              <LongitudeDegrees>-1.73624762333929538726806640625</LongitudeDegrees>
            </Position>
            <AltitudeMeters>15.19999980926513671875</AltitudeMeters>
            <DistanceMeters>NAN</DistanceMeters>
          </Trackpoint>
          <Trackpoint>
            <Time>2021-08-11T09:28:54.000Z</Time>
            <Position>
              <LatitudeDegrees>43.309471718966960906982421875</LatitudeDegrees>
              <LongitudeDegrees>-1.7363503016531467437744140625</LongitudeDegrees>
            </Position>
            <AltitudeMeters>15</AltitudeMeters>
            <DistanceMeters>NAN</DistanceMeters>
          </Trackpoint>
          <Trackpoint>
            <Time>2021-08-11T09:28:59.000Z</Time>
            <Position>
              <LatitudeDegrees>43.3096837811172008514404296875</LatitudeDegrees>
              <LongitudeDegrees>-1.7364408262073993682861328125</LongitudeDegrees>
            </Position>
            <AltitudeMeters>15</AltitudeMeters>
            <DistanceMeters>NAN</DistanceMeters>
          </Trackpoint>
          <Trackpoint>
            <Time>2021-08-11T09:29:01.000Z</Time>
            <Position>
              <LatitudeDegrees>43.3097649179399013519287109375</LatitudeDegrees>
              <LongitudeDegrees>-1.7364929616451263427734375</LongitudeDegrees>
            </Position>
            <AltitudeMeters>15</AltitudeMeters>
            <DistanceMeters>NAN</DistanceMeters>
          </Trackpoint>
          <Trackpoint>
            <Time>2021-08-11T09:29:04.000Z</Time>
            <Position>
              <LatitudeDegrees>43.30988737754523754119873046875</LatitudeDegrees>
              <LongitudeDegrees>-1.73658038489520549774169921875</LongitudeDegrees>
            </Position>
            <AltitudeMeters>15</AltitudeMeters>
            <DistanceMeters>NAN</DistanceMeters>
          </Trackpoint>
          <Trackpoint>
            <Time>2021-08-11T09:29:05.000Z</Time>
            <Position>
              <LatitudeDegrees>43.3099255152046680450439453125</LatitudeDegrees>
              <LongitudeDegrees>-1.7366175167262554168701171875</LongitudeDegrees>
            </Position>
            <AltitudeMeters>15</AltitudeMeters>
            <DistanceMeters>NAN</DistanceMeters>
          </Trackpoint>
          <Trackpoint>
            <Time>2021-08-11T09:29:07.000Z</Time>
            <Position>
              <LatitudeDegrees>43.309999443590641021728515625</LatitudeDegrees>
              <LongitudeDegrees>-1.7367087118327617645263671875</LongitudeDegrees>
            </Position>
            <AltitudeMeters>15</AltitudeMeters>
            <DistanceMeters>NAN</DistanceMeters>
          </Trackpoint>
          <Trackpoint>
            <Time>2021-08-11T09:29:08.000Z</Time>
            <Position>
              <LatitudeDegrees>43.31002123653888702392578125</LatitudeDegrees>
              <LongitudeDegrees>-1.736743412911891937255859375</LongitudeDegrees>
            </Position>
            <AltitudeMeters>15</AltitudeMeters>
            <DistanceMeters>NAN</DistanceMeters>
          </Trackpoint>
          <Trackpoint>
            <Time>2021-08-11T09:29:09.000Z</Time>
            <Position>
              <LatitudeDegrees>43.31005183048546314239501953125</LatitudeDegrees>
              <LongitudeDegrees>-1.7367968894541263580322265625</LongitudeDegrees>
            </Position>
            <AltitudeMeters>15</AltitudeMeters>
            <DistanceMeters>NAN</DistanceMeters>
          </Trackpoint>
          <Trackpoint>
            <Time>2021-08-11T09:29:10.000Z</Time>
            <Position>
              <LatitudeDegrees>43.31007094122469425201416015625</LatitudeDegrees>
              <LongitudeDegrees>-1.7368336021900177001953125</LongitudeDegrees>
            </Position>
            <AltitudeMeters>15</AltitudeMeters>
            <DistanceMeters>NAN</DistanceMeters>
          </Trackpoint>
          <Trackpoint>
            <Time>2021-08-11T09:29:11.000Z</Time>
            <Position>
              <LatitudeDegrees>43.310092650353908538818359375</LatitudeDegrees>
              <LongitudeDegrees>-1.7368793673813343048095703125</LongitudeDegrees>
            </Position>
            <AltitudeMeters>15</AltitudeMeters>
            <DistanceMeters>NAN</DistanceMeters>
          </Trackpoint>
          <Trackpoint>
            <Time>2021-08-11T09:29:12.000Z</Time>
            <Position>
              <LatitudeDegrees>43.31011620350182056427001953125</LatitudeDegrees>
              <LongitudeDegrees>-1.73692923970520496368408203125</LongitudeDegrees>
            </Position>
            <AltitudeMeters>14.80000019073486328125</AltitudeMeters>
            <DistanceMeters>NAN</DistanceMeters>
          </Trackpoint>
          <Trackpoint>
            <Time>2021-08-11T09:29:13.000Z</Time>
            <Position>
              <LatitudeDegrees>43.31014637835323810577392578125</LatitudeDegrees>
              <LongitudeDegrees>-1.73699009232223033905029296875</LongitudeDegrees>
            </Position>
            <AltitudeMeters>14.80000019073486328125</AltitudeMeters>
            <DistanceMeters>NAN</DistanceMeters>
          </Trackpoint>
          <Trackpoint>
            <Time>2021-08-11T09:29:14.000Z</Time>
            <Position>
              <LatitudeDegrees>43.31017169170081615447998046875</LatitudeDegrees>
              <LongitudeDegrees>-1.7370423115789890289306640625</LongitudeDegrees>
            </Position>
            <AltitudeMeters>14.80000019073486328125</AltitudeMeters>
            <DistanceMeters>NAN</DistanceMeters>
          </Trackpoint>
          <Trackpoint>
            <Time>2021-08-11T09:29:15.000Z</Time>
            <Position>
              <LatitudeDegrees>43.31018862314522266387939453125</LatitudeDegrees>
              <LongitudeDegrees>-1.73708531074225902557373046875</LongitudeDegrees>
            </Position>
            <AltitudeMeters>14.80000019073486328125</AltitudeMeters>
            <DistanceMeters>NAN</DistanceMeters>
          </Trackpoint>
          <Trackpoint>
            <Time>2021-08-11T09:29:16.000Z</Time>
            <Position>
              <LatitudeDegrees>43.3102061413228511810302734375</LatitudeDegrees>
              <LongitudeDegrees>-1.73714012838900089263916015625</LongitudeDegrees>
            </Position>
            <AltitudeMeters>14.80000019073486328125</AltitudeMeters>
            <DistanceMeters>NAN</DistanceMeters>
          </Trackpoint>
          <Trackpoint>
            <Time>2021-08-11T09:29:17.000Z</Time>
            <Position>
              <LatitudeDegrees>43.31022106111049652099609375</LatitudeDegrees>
              <LongitudeDegrees>-1.7371968738734722137451171875</LongitudeDegrees>
            </Position>
            <AltitudeMeters>15</AltitudeMeters>
            <DistanceMeters>NAN</DistanceMeters>
          </Trackpoint>
          <Trackpoint>
            <Time>2021-08-11T09:29:18.000Z</Time>
            <Position>
              <LatitudeDegrees>43.31023103557527065277099609375</LatitudeDegrees>
              <LongitudeDegrees>-1.73725278116762638092041015625</LongitudeDegrees>
            </Position>
            <AltitudeMeters>15</AltitudeMeters>
            <DistanceMeters>NAN</DistanceMeters>
          </Trackpoint>
          <Trackpoint>
            <Time>2021-08-11T09:29:20.000Z</Time>
            <Position>
              <LatitudeDegrees>43.31023908220231533050537109375</LatitudeDegrees>
              <LongitudeDegrees>-1.7373742349445819854736328125</LongitudeDegrees>
            </Position>
            <AltitudeMeters>15</AltitudeMeters>
            <DistanceMeters>NAN</DistanceMeters>
          </Trackpoint>
          <Trackpoint>
            <Time>2021-08-11T09:29:26.000Z</Time>
            <Position>
              <LatitudeDegrees>43.3102621324360370635986328125</LatitudeDegrees>
              <LongitudeDegrees>-1.737700961530208587646484375</LongitudeDegrees>
            </Position>
            <AltitudeMeters>15.3999996185302734375</AltitudeMeters>
            <DistanceMeters>NAN</DistanceMeters>
          </Trackpoint>
          <Trackpoint>
            <Time>2021-08-11T09:29:27.000Z</Time>
            <Position>
              <LatitudeDegrees>43.31027093343436717987060546875</LatitudeDegrees>
              <LongitudeDegrees>-1.7377541027963161468505859375</LongitudeDegrees>
            </Position>
            <AltitudeMeters>15.3999996185302734375</AltitudeMeters>
            <DistanceMeters>NAN</DistanceMeters>
          </Trackpoint>
          <Trackpoint>
            <Time>2021-08-11T09:29:28.000Z</Time>
            <Position>
              <LatitudeDegrees>43.31027931533753871917724609375</LatitudeDegrees>
              <LongitudeDegrees>-1.73780984245240688323974609375</LongitudeDegrees>
            </Position>
            <AltitudeMeters>15.6000003814697265625</AltitudeMeters>
            <DistanceMeters>NAN</DistanceMeters>
          </Trackpoint>
          <Trackpoint>
            <Time>2021-08-11T09:29:29.000Z</Time>
            <Position>
              <LatitudeDegrees>43.31028551794588565826416015625</LatitudeDegrees>
              <LongitudeDegrees>-1.7378714494407176971435546875</LongitudeDegrees>
            </Position>
            <AltitudeMeters>15.6000003814697265625</AltitudeMeters>
            <DistanceMeters>NAN</DistanceMeters>
          </Trackpoint>
          <Trackpoint>
            <Time>2021-08-11T09:29:30.000Z</Time>
            <Position>
              <LatitudeDegrees>43.31029188819229602813720703125</LatitudeDegrees>
              <LongitudeDegrees>-1.737934648990631103515625</LongitudeDegrees>
            </Position>
            <AltitudeMeters>15.6000003814697265625</AltitudeMeters>
            <DistanceMeters>NAN</DistanceMeters>
          </Trackpoint>
          <Trackpoint>
            <Time>2021-08-11T09:29:31.000Z</Time>
            <Position>
              <LatitudeDegrees>43.31029624678194522857666015625</LatitudeDegrees>
              <LongitudeDegrees>-1.73799164593219757080078125</LongitudeDegrees>
            </Position>
            <AltitudeMeters>15.3999996185302734375</AltitudeMeters>
            <DistanceMeters>NAN</DistanceMeters>
          </Trackpoint>
          <Trackpoint>
            <Time>2021-08-11T09:29:32.000Z</Time>
            <Position>
              <LatitudeDegrees>43.31029825843870639801025390625</LatitudeDegrees>
              <LongitudeDegrees>-1.7380390875041484832763671875</LongitudeDegrees>
            </Position>
            <AltitudeMeters>15.3999996185302734375</AltitudeMeters>
            <DistanceMeters>NAN</DistanceMeters>
          </Trackpoint>
          <Trackpoint>
            <Time>2021-08-11T09:29:33.000Z</Time>
            <Position>
              <LatitudeDegrees>43.3103030361235141754150390625</LatitudeDegrees>
              <LongitudeDegrees>-1.73809130676090717315673828125</LongitudeDegrees>
            </Position>
            <AltitudeMeters>15.3999996185302734375</AltitudeMeters>
            <DistanceMeters>NAN</DistanceMeters>
          </Trackpoint>
          <Trackpoint>
            <Time>2021-08-11T09:29:34.000Z</Time>
            <Position>
              <LatitudeDegrees>43.3103097416460514068603515625</LatitudeDegrees>
              <LongitudeDegrees>-1.7381242476403713226318359375</LongitudeDegrees>
            </Position>
            <AltitudeMeters>15.3999996185302734375</AltitudeMeters>
            <DistanceMeters>NAN</DistanceMeters>
          </Trackpoint>
          <Trackpoint>
            <Time>2021-08-11T09:29:35.000Z</Time>
            <Position>
              <LatitudeDegrees>43.3103197999298572540283203125</LatitudeDegrees>
              <LongitudeDegrees>-1.7381666600704193115234375</LongitudeDegrees>
            </Position>
            <AltitudeMeters>15.3999996185302734375</AltitudeMeters>
            <DistanceMeters>NAN</DistanceMeters>
          </Trackpoint>
          <Trackpoint>
            <Time>2021-08-11T09:29:36.000Z</Time>
            <Position>
              <LatitudeDegrees>43.3103315345942974090576171875</LatitudeDegrees>
              <LongitudeDegrees>-1.73821284435689449310302734375</LongitudeDegrees>
            </Position>
            <AltitudeMeters>15.3999996185302734375</AltitudeMeters>
            <DistanceMeters>NAN</DistanceMeters>
          </Trackpoint>
          <Trackpoint>
            <Time>2021-08-11T09:29:38.000Z</Time>
            <Position>
              <LatitudeDegrees>43.31036548130214214324951171875</LatitudeDegrees>
              <LongitudeDegrees>-1.73831225372850894927978515625</LongitudeDegrees>
            </Position>
            <AltitudeMeters>15.19999980926513671875</AltitudeMeters>
            <DistanceMeters>NAN</DistanceMeters>
          </Trackpoint>
          <Trackpoint>
            <Time>2021-08-11T09:29:39.000Z</Time>
            <Position>
              <LatitudeDegrees>43.31037704832851886749267578125</LatitudeDegrees>
              <LongitudeDegrees>-1.73836556263267993927001953125</LongitudeDegrees>
            </Position>
            <AltitudeMeters>15.19999980926513671875</AltitudeMeters>
            <DistanceMeters>NAN</DistanceMeters>
          </Trackpoint>
          <Trackpoint>
            <Time>2021-08-11T09:29:40.000Z</Time>
            <Position>
              <LatitudeDegrees>43.3103881962597370147705078125</LatitudeDegrees>
              <LongitudeDegrees>-1.73841149546205997467041015625</LongitudeDegrees>
            </Position>
            <AltitudeMeters>15.19999980926513671875</AltitudeMeters>
            <DistanceMeters>NAN</DistanceMeters>
          </Trackpoint>
          <Trackpoint>
            <Time>2021-08-11T09:29:41.000Z</Time>
            <Position>
              <LatitudeDegrees>43.31040102057158946990966796875</LatitudeDegrees>
              <LongitudeDegrees>-1.7384625412523746490478515625</LongitudeDegrees>
            </Position>
            <AltitudeMeters>15.19999980926513671875</AltitudeMeters>
            <DistanceMeters>NAN</DistanceMeters>
          </Trackpoint>
          <Trackpoint>
            <Time>2021-08-11T09:29:42.000Z</Time>
            <Position>
              <LatitudeDegrees>43.3104136772453784942626953125</LatitudeDegrees>
              <LongitudeDegrees>-1.738514006137847900390625</LongitudeDegrees>
            </Position>
            <AltitudeMeters>15.19999980926513671875</AltitudeMeters>
            <DistanceMeters>NAN</DistanceMeters>
          </Trackpoint>
          <Trackpoint>
            <Time>2021-08-11T09:29:44.000Z</Time>
            <Position>
              <LatitudeDegrees>43.310439325869083404541015625</LatitudeDegrees>
              <LongitudeDegrees>-1.738602183759212493896484375</LongitudeDegrees>
            </Position>
            <AltitudeMeters>15</AltitudeMeters>
            <DistanceMeters>NAN</DistanceMeters>
          </Trackpoint>
          <Trackpoint>
            <Time>2021-08-11T09:29:45.000Z</Time>
            <Position>
              <LatitudeDegrees>43.31045349128544330596923828125</LatitudeDegrees>
              <LongitudeDegrees>-1.738637387752532958984375</LongitudeDegrees>
            </Position>
            <AltitudeMeters>14.80000019073486328125</AltitudeMeters>
            <DistanceMeters>NAN</DistanceMeters>
          </Trackpoint>
          <Trackpoint>
            <Time>2021-08-11T09:29:46.000Z</Time>
            <Position>
              <LatitudeDegrees>43.3104616217315196990966796875</LatitudeDegrees>
              <LongitudeDegrees>-1.73866865225136280059814453125</LongitudeDegrees>
            </Position>
            <AltitudeMeters>14.80000019073486328125</AltitudeMeters>
            <DistanceMeters>NAN</DistanceMeters>
          </Trackpoint>
          <Trackpoint>
            <Time>2021-08-11T09:29:47.000Z</Time>
            <Position>
              <LatitudeDegrees>43.31046916544437408447265625</LatitudeDegrees>
              <LongitudeDegrees>-1.73870243132114410400390625</LongitudeDegrees>
            </Position>
            <AltitudeMeters>14.80000019073486328125</AltitudeMeters>
            <DistanceMeters>NAN</DistanceMeters>
          </Trackpoint>
          <Trackpoint>
            <Time>2021-08-11T09:29:48.000Z</Time>
            <Position>
              <LatitudeDegrees>43.31047511659562587738037109375</LatitudeDegrees>
              <LongitudeDegrees>-1.73873537220060825347900390625</LongitudeDegrees>
            </Position>
            <AltitudeMeters>14.80000019073486328125</AltitudeMeters>
            <DistanceMeters>NAN</DistanceMeters>
          </Trackpoint>
          <Trackpoint>
            <Time>2021-08-11T09:29:49.000Z</Time>
            <Position>
              <LatitudeDegrees>43.31047645770013332366943359375</LatitudeDegrees>
              <LongitudeDegrees>-1.738755740225315093994140625</LongitudeDegrees>
            </Position>
            <AltitudeMeters>14.6000003814697265625</AltitudeMeters>
            <DistanceMeters>NAN</DistanceMeters>
          </Trackpoint>
          <Trackpoint>
            <Time>2021-08-11T09:29:50.000Z</Time>
            <Position>
              <LatitudeDegrees>43.3104783855378627777099609375</LatitudeDegrees>
              <LongitudeDegrees>-1.7387629486620426177978515625</LongitudeDegrees>
            </Position>
            <AltitudeMeters>14.3999996185302734375</AltitudeMeters>
            <DistanceMeters>NAN</DistanceMeters>
          </Trackpoint>
          <Trackpoint>
            <Time>2021-08-11T09:29:52.000Z</Time>
            <Position>
              <LatitudeDegrees>43.3104783855378627777099609375</LatitudeDegrees>
              <LongitudeDegrees>-1.7387629486620426177978515625</LongitudeDegrees>
            </Position>
            <AltitudeMeters>14.3999996185302734375</AltitudeMeters>
            <DistanceMeters>NAN</DistanceMeters>
          </Trackpoint>
          <Trackpoint>
            <Time>2021-08-11T09:30:01.000Z</Time>
            <Position>
              <LatitudeDegrees>43.3104783855378627777099609375</LatitudeDegrees>
              <LongitudeDegrees>-1.7387629486620426177978515625</LongitudeDegrees>
            </Position>
            <AltitudeMeters>14</AltitudeMeters>
            <DistanceMeters>NAN</DistanceMeters>
          </Trackpoint>
          <Trackpoint>
            <Time>2021-08-11T09:30:08.000Z</Time>
            <Position>
              <LatitudeDegrees>43.3104783855378627777099609375</LatitudeDegrees>
              <LongitudeDegrees>-1.7387629486620426177978515625</LongitudeDegrees>
            </Position>
            <AltitudeMeters>14</AltitudeMeters>
            <DistanceMeters>NAN</DistanceMeters>
          </Trackpoint>
          <Trackpoint>
            <Time>2021-08-11T09:30:53.000Z</Time>
            <Position>
              <LatitudeDegrees>43.31047444604337215423583984375</LatitudeDegrees>
              <LongitudeDegrees>-1.7387669719755649566650390625</LongitudeDegrees>
            </Position>
            <AltitudeMeters>14</AltitudeMeters>
            <DistanceMeters>NAN</DistanceMeters>
          </Trackpoint>
          <Trackpoint>
            <Time>2021-08-11T09:30:55.000Z</Time>
            <Position>
              <LatitudeDegrees>43.310466818511486053466796875</LatitudeDegrees>
              <LongitudeDegrees>-1.7387994937598705291748046875</LongitudeDegrees>
            </Position>
            <AltitudeMeters>14</AltitudeMeters>
            <DistanceMeters>NAN</DistanceMeters>
          </Trackpoint>
          <Trackpoint>
            <Time>2021-08-11T09:30:56.000Z</Time>
            <Position>
              <LatitudeDegrees>43.31046572886407375335693359375</LatitudeDegrees>
              <LongitudeDegrees>-1.738838888704776763916015625</LongitudeDegrees>
            </Position>
            <AltitudeMeters>14</AltitudeMeters>
            <DistanceMeters>NAN</DistanceMeters>
          </Trackpoint>
          <Trackpoint>
            <Time>2021-08-11T09:30:58.000Z</Time>
            <Position>
              <LatitudeDegrees>43.310482911765575408935546875</LatitudeDegrees>
              <LongitudeDegrees>-1.73894475214183330535888671875</LongitudeDegrees>
            </Position>
            <AltitudeMeters>14</AltitudeMeters>
            <DistanceMeters>NAN</DistanceMeters>
          </Trackpoint>
          <Trackpoint>
            <Time>2021-08-11T09:30:59.000Z</Time>
            <Position>
              <LatitudeDegrees>43.310484252870082855224609375</LatitudeDegrees>
              <LongitudeDegrees>-1.7389882542192935943603515625</LongitudeDegrees>
            </Position>
            <AltitudeMeters>14</AltitudeMeters>
            <DistanceMeters>NAN</DistanceMeters>
          </Trackpoint>
          <Trackpoint>
            <Time>2021-08-11T09:31:00.000Z</Time>
            <Position>
              <LatitudeDegrees>43.3104847557842731475830078125</LatitudeDegrees>
              <LongitudeDegrees>-1.73903829418122768402099609375</LongitudeDegrees>
            </Position>
            <AltitudeMeters>14</AltitudeMeters>
            <DistanceMeters>NAN</DistanceMeters>
          </Trackpoint>
          <Trackpoint>
            <Time>2021-08-11T09:31:01.000Z</Time>
            <Position>
              <LatitudeDegrees>43.31048383377492427825927734375</LatitudeDegrees>
              <LongitudeDegrees>-1.7390828020870685577392578125</LongitudeDegrees>
            </Position>
            <AltitudeMeters>14</AltitudeMeters>
            <DistanceMeters>NAN</DistanceMeters>
          </Trackpoint>
          <Trackpoint>
            <Time>2021-08-11T09:31:02.000Z</Time>
            <Position>
              <LatitudeDegrees>43.31048123538494110107421875</LatitudeDegrees>
              <LongitudeDegrees>-1.73912093974649906158447265625</LongitudeDegrees>
            </Position>
            <AltitudeMeters>14</AltitudeMeters>
            <DistanceMeters>NAN</DistanceMeters>
          </Trackpoint>
          <Trackpoint>
            <Time>2021-08-11T09:31:03.000Z</Time>
            <Position>
              <LatitudeDegrees>43.31048048101365566253662109375</LatitudeDegrees>
              <LongitudeDegrees>-1.7391528747975826263427734375</LongitudeDegrees>
            </Position>
            <AltitudeMeters>14</AltitudeMeters>
            <DistanceMeters>NAN</DistanceMeters>
          </Trackpoint>
          <Trackpoint>
            <Time>2021-08-11T09:31:04.000Z</Time>
            <Position>
              <LatitudeDegrees>43.310481570661067962646484375</LatitudeDegrees>
              <LongitudeDegrees>-1.739174835383892059326171875</LongitudeDegrees>
            </Position>
            <AltitudeMeters>13.80000019073486328125</AltitudeMeters>
            <DistanceMeters>NAN</DistanceMeters>
          </Trackpoint>
          <Trackpoint>
            <Time>2021-08-11T09:31:05.000Z</Time>
            <Position>
              <LatitudeDegrees>43.310482241213321685791015625</LatitudeDegrees>
              <LongitudeDegrees>-1.7391770146787166595458984375</LongitudeDegrees>
            </Position>
            <AltitudeMeters>13.80000019073486328125</AltitudeMeters>
            <DistanceMeters>NAN</DistanceMeters>
          </Trackpoint>
          <Trackpoint>
            <Time>2021-08-11T09:31:06.000Z</Time>
            <Position>
              <LatitudeDegrees>43.31049053929746150970458984375</LatitudeDegrees>
              <LongitudeDegrees>-1.7391884140670299530029296875</LongitudeDegrees>
            </Position>
            <AltitudeMeters>13.80000019073486328125</AltitudeMeters>
            <DistanceMeters>NAN</DistanceMeters>
          </Trackpoint>
          <Trackpoint>
            <Time>2021-08-11T09:31:07.000Z</Time>
            <Position>
              <LatitudeDegrees>43.3104931376874446868896484375</LatitudeDegrees>
              <LongitudeDegrees>-1.7391894198954105377197265625</LongitudeDegrees>
            </Position>
            <AltitudeMeters>14</AltitudeMeters>
            <DistanceMeters>NAN</DistanceMeters>
          </Trackpoint>
          <Trackpoint>
            <Time>2021-08-11T09:31:11.000Z</Time>
            <Position>
              <LatitudeDegrees>43.3104931376874446868896484375</LatitudeDegrees>
              <LongitudeDegrees>-1.7391894198954105377197265625</LongitudeDegrees>
            </Position>
            <AltitudeMeters>14.19999980926513671875</AltitudeMeters>
            <DistanceMeters>NAN</DistanceMeters>
          </Trackpoint>
          <Trackpoint>
            <Time>2021-08-11T09:31:12.000Z</Time>
            <Position>
              <LatitudeDegrees>43.3104931376874446868896484375</LatitudeDegrees>
              <LongitudeDegrees>-1.7391894198954105377197265625</LongitudeDegrees>
            </Position>
            <AltitudeMeters>14.19999980926513671875</AltitudeMeters>
            <DistanceMeters>NAN</DistanceMeters>
          </Trackpoint>
          <Trackpoint>
            <Time>2021-08-11T09:31:17.000Z</Time>
            <Position>
              <LatitudeDegrees>43.3104931376874446868896484375</LatitudeDegrees>
              <LongitudeDegrees>-1.7391894198954105377197265625</LongitudeDegrees>
            </Position>
            <AltitudeMeters>14.19999980926513671875</AltitudeMeters>
            <DistanceMeters>NAN</DistanceMeters>
          </Trackpoint>
          <Trackpoint>
            <Time>2021-08-11T09:32:13.000Z</Time>
            <Position>
              <LatitudeDegrees>43.3104979991912841796875</LatitudeDegrees>
              <LongitudeDegrees>-1.73920643515884876251220703125</LongitudeDegrees>
            </Position>
            <AltitudeMeters>13.80000019073486328125</AltitudeMeters>
            <DistanceMeters>NAN</DistanceMeters>
          </Trackpoint>
          <Trackpoint>
            <Time>2021-08-11T09:32:16.000Z</Time>
            <Position>
              <LatitudeDegrees>43.31050830893218517303466796875</LatitudeDegrees>
              <LongitudeDegrees>-1.739270389080047607421875</LongitudeDegrees>
            </Position>
            <AltitudeMeters>13.80000019073486328125</AltitudeMeters>
            <DistanceMeters>NAN</DistanceMeters>
          </Trackpoint>
          <Trackpoint>
            <Time>2021-08-11T09:32:20.000Z</Time>
            <Position>
              <LatitudeDegrees>43.31053219735622406005859375</LatitudeDegrees>
              <LongitudeDegrees>-1.73941497690975666046142578125</LongitudeDegrees>
            </Position>
            <AltitudeMeters>14</AltitudeMeters>
            <DistanceMeters>NAN</DistanceMeters>
          </Trackpoint>
          <Trackpoint>
            <Time>2021-08-11T09:32:23.000Z</Time>
            <Position>
              <LatitudeDegrees>43.310572095215320587158203125</LatitudeDegrees>
              <LongitudeDegrees>-1.73952058888971805572509765625</LongitudeDegrees>
            </Position>
            <AltitudeMeters>14.19999980926513671875</AltitudeMeters>
            <DistanceMeters>NAN</DistanceMeters>
          </Trackpoint>
          <Trackpoint>
            <Time>2021-08-11T09:32:24.000Z</Time>
            <Position>
              <LatitudeDegrees>43.31058391369879245758056640625</LatitudeDegrees>
              <LongitudeDegrees>-1.739553026854991912841796875</LongitudeDegrees>
            </Position>
            <AltitudeMeters>14.19999980926513671875</AltitudeMeters>
            <DistanceMeters>NAN</DistanceMeters>
          </Trackpoint>
          <Trackpoint>
            <Time>2021-08-11T09:32:25.000Z</Time>
            <Position>
              <LatitudeDegrees>43.31059531308710575103759765625</LatitudeDegrees>
              <LongitudeDegrees>-1.73958512954413890838623046875</LongitudeDegrees>
            </Position>
            <AltitudeMeters>14.19999980926513671875</AltitudeMeters>
            <DistanceMeters>NAN</DistanceMeters>
          </Trackpoint>
          <Trackpoint>
            <Time>2021-08-11T09:32:26.000Z</Time>
            <Position>
              <LatitudeDegrees>43.3106051199138164520263671875</LatitudeDegrees>
              <LongitudeDegrees>-1.7396205849945545196533203125</LongitudeDegrees>
            </Position>
            <AltitudeMeters>14.19999980926513671875</AltitudeMeters>
            <DistanceMeters>NAN</DistanceMeters>
          </Trackpoint>
          <Trackpoint>
            <Time>2021-08-11T09:32:27.000Z</Time>
            <Position>
              <LatitudeDegrees>43.31061895005404949188232421875</LatitudeDegrees>
              <LongitudeDegrees>-1.7396624945104122161865234375</LongitudeDegrees>
            </Position>
            <AltitudeMeters>14.19999980926513671875</AltitudeMeters>
            <DistanceMeters>NAN</DistanceMeters>
          </Trackpoint>
          <Trackpoint>
            <Time>2021-08-11T09:32:33.000Z</Time>
            <Position>
              <LatitudeDegrees>43.3107487857341766357421875</LatitudeDegrees>
              <LongitudeDegrees>-1.73989257775247097015380859375</LongitudeDegrees>
            </Position>
            <AltitudeMeters>14</AltitudeMeters>
            <DistanceMeters>NAN</DistanceMeters>
          </Trackpoint>
          <Trackpoint>
            <Time>2021-08-11T09:32:34.000Z</Time>
            <Position>
              <LatitudeDegrees>43.31077116541564464569091796875</LatitudeDegrees>
              <LongitudeDegrees>-1.73993599601089954376220703125</LongitudeDegrees>
            </Position>
            <AltitudeMeters>14</AltitudeMeters>
            <DistanceMeters>NAN</DistanceMeters>
          </Trackpoint>
          <Trackpoint>
            <Time>2021-08-11T09:32:41.000Z</Time>
            <Position>
              <LatitudeDegrees>43.31091172993183135986328125</LatitudeDegrees>
              <LongitudeDegrees>-1.74021360464394092559814453125</LongitudeDegrees>
            </Position>
            <AltitudeMeters>14</AltitudeMeters>
            <DistanceMeters>NAN</DistanceMeters>
          </Trackpoint>
          <Trackpoint>
            <Time>2021-08-11T09:32:42.000Z</Time>
            <Position>
              <LatitudeDegrees>43.3109336905181407928466796875</LatitudeDegrees>
              <LongitudeDegrees>-1.740256436169147491455078125</LongitudeDegrees>
            </Position>
            <AltitudeMeters>14.19999980926513671875</AltitudeMeters>
            <DistanceMeters>NAN</DistanceMeters>
          </Trackpoint>
          <Trackpoint>
            <Time>2021-08-11T09:32:43.000Z</Time>
            <Position>
              <LatitudeDegrees>43.3109501190483570098876953125</LatitudeDegrees>
              <LongitudeDegrees>-1.74028418026864528656005859375</LongitudeDegrees>
            </Position>
            <AltitudeMeters>14.19999980926513671875</AltitudeMeters>
            <DistanceMeters>NAN</DistanceMeters>
          </Trackpoint>
          <Trackpoint>
            <Time>2021-08-11T09:32:44.000Z</Time>
            <Position>
              <LatitudeDegrees>43.31097342073917388916015625</LatitudeDegrees>
              <LongitudeDegrees>-1.74031837843358516693115234375</LongitudeDegrees>
            </Position>
            <AltitudeMeters>14.19999980926513671875</AltitudeMeters>
            <DistanceMeters>NAN</DistanceMeters>
          </Trackpoint>
          <Trackpoint>
            <Time>2021-08-11T09:32:45.000Z</Time>
            <Position>
              <LatitudeDegrees>43.31099261529743671417236328125</LatitudeDegrees>
              <LongitudeDegrees>-1.74035358242690563201904296875</LongitudeDegrees>
            </Position>
            <AltitudeMeters>14.3999996185302734375</AltitudeMeters>
            <DistanceMeters>NAN</DistanceMeters>
          </Trackpoint>
          <Trackpoint>
            <Time>2021-08-11T09:32:46.000Z</Time>
            <Position>
              <LatitudeDegrees>43.31101633608341217041015625</LatitudeDegrees>
              <LongitudeDegrees>-1.74039146862924098968505859375</LongitudeDegrees>
            </Position>
            <AltitudeMeters>14.6000003814697265625</AltitudeMeters>
            <DistanceMeters>NAN</DistanceMeters>
          </Trackpoint>
          <Trackpoint>
            <Time>2021-08-11T09:32:47.000Z</Time>
            <Position>
              <LatitudeDegrees>43.311042152345180511474609375</LatitudeDegrees>
              <LongitudeDegrees>-1.74042130820453166961669921875</LongitudeDegrees>
            </Position>
            <AltitudeMeters>14.80000019073486328125</AltitudeMeters>
            <DistanceMeters>NAN</DistanceMeters>
          </Trackpoint>
          <Trackpoint>
            <Time>2021-08-11T09:32:48.000Z</Time>
            <Position>
              <LatitudeDegrees>43.31106151454150676727294921875</LatitudeDegrees>
              <LongitudeDegrees>-1.74044092185795307159423828125</LongitudeDegrees>
            </Position>
            <AltitudeMeters>14.80000019073486328125</AltitudeMeters>
            <DistanceMeters>NAN</DistanceMeters>
          </Trackpoint>
          <Trackpoint>
            <Time>2021-08-11T09:32:49.000Z</Time>
            <Position>
              <LatitudeDegrees>43.3110828883945941925048828125</LatitudeDegrees>
              <LongitudeDegrees>-1.740469001233577728271484375</LongitudeDegrees>
            </Position>
            <AltitudeMeters>15</AltitudeMeters>
            <DistanceMeters>NAN</DistanceMeters>
          </Trackpoint>
          <Trackpoint>
            <Time>2021-08-11T09:32:50.000Z</Time>
            <Position>
              <LatitudeDegrees>43.31110124476253986358642578125</LatitudeDegrees>
              <LongitudeDegrees>-1.74050227738916873931884765625</LongitudeDegrees>
            </Position>
            <AltitudeMeters>15</AltitudeMeters>
            <DistanceMeters>NAN</DistanceMeters>
          </Trackpoint>
          <Trackpoint>
            <Time>2021-08-11T09:32:51.000Z</Time>
            <Position>
              <LatitudeDegrees>43.3111207745969295501708984375</LatitudeDegrees>
              <LongitudeDegrees>-1.74053077585995197296142578125</LongitudeDegrees>
            </Position>
            <AltitudeMeters>15.19999980926513671875</AltitudeMeters>
            <DistanceMeters>NAN</DistanceMeters>
          </Trackpoint>
          <Trackpoint>
            <Time>2021-08-11T09:32:52.000Z</Time>
            <Position>
              <LatitudeDegrees>43.31113980151712894439697265625</LatitudeDegrees>
              <LongitudeDegrees>-1.74055659212172031402587890625</LongitudeDegrees>
            </Position>
            <AltitudeMeters>15.19999980926513671875</AltitudeMeters>
            <DistanceMeters>NAN</DistanceMeters>
          </Trackpoint>
          <Trackpoint>
            <Time>2021-08-11T09:32:53.000Z</Time>
            <Position>
              <LatitudeDegrees>43.31115891225636005401611328125</LatitudeDegrees>
              <LongitudeDegrees>-1.74057729542255401611328125</LongitudeDegrees>
            </Position>
            <AltitudeMeters>15.3999996185302734375</AltitudeMeters>
            <DistanceMeters>NAN</DistanceMeters>
          </Trackpoint>
          <Trackpoint>
            <Time>2021-08-11T09:32:54.000Z</Time>
            <Position>
              <LatitudeDegrees>43.3111777715384960174560546875</LatitudeDegrees>
              <LongitudeDegrees>-1.74059984274208545684814453125</LongitudeDegrees>
            </Position>
            <AltitudeMeters>15.6000003814697265625</AltitudeMeters>
            <DistanceMeters>NAN</DistanceMeters>
          </Trackpoint>
          <Trackpoint>
            <Time>2021-08-11T09:32:55.000Z</Time>
            <Position>
              <LatitudeDegrees>43.31119461916387081146240234375</LatitudeDegrees>
              <LongitudeDegrees>-1.74062691628932952880859375</LongitudeDegrees>
            </Position>
            <AltitudeMeters>15.6000003814697265625</AltitudeMeters>
            <DistanceMeters>NAN</DistanceMeters>
          </Trackpoint>
          <Trackpoint>
            <Time>2021-08-11T09:32:56.000Z</Time>
            <Position>
              <LatitudeDegrees>43.3112066052854061126708984375</LatitudeDegrees>
              <LongitudeDegrees>-1.74065449275076389312744140625</LongitudeDegrees>
            </Position>
            <AltitudeMeters>15.80000019073486328125</AltitudeMeters>
            <DistanceMeters>NAN</DistanceMeters>
          </Trackpoint>
          <Trackpoint>
            <Time>2021-08-11T09:32:57.000Z</Time>
            <Position>
              <LatitudeDegrees>43.31121842376887798309326171875</LatitudeDegrees>
              <LongitudeDegrees>-1.74068148247897624969482421875</LongitudeDegrees>
            </Position>
            <AltitudeMeters>16</AltitudeMeters>
            <DistanceMeters>NAN</DistanceMeters>
          </Trackpoint>
          <Trackpoint>
            <Time>2021-08-11T09:32:58.000Z</Time>
            <Position>
              <LatitudeDegrees>43.3112314157187938690185546875</LatitudeDegrees>
              <LongitudeDegrees>-1.74070444889366626739501953125</LongitudeDegrees>
            </Position>
            <AltitudeMeters>16</AltitudeMeters>
            <DistanceMeters>NAN</DistanceMeters>
          </Trackpoint>
          <Trackpoint>
            <Time>2021-08-11T09:32:59.000Z</Time>
            <Position>
              <LatitudeDegrees>43.3112458325922489166259765625</LatitudeDegrees>
              <LongitudeDegrees>-1.74072423018515110015869140625</LongitudeDegrees>
            </Position>
            <AltitudeMeters>16.3999996185302734375</AltitudeMeters>
            <DistanceMeters>NAN</DistanceMeters>
          </Trackpoint>
          <Trackpoint>
            <Time>2021-08-11T09:33:00.000Z</Time>
            <Position>
              <LatitudeDegrees>43.31126041710376739501953125</LatitudeDegrees>
              <LongitudeDegrees>-1.74074099399149417877197265625</LongitudeDegrees>
            </Position>
            <AltitudeMeters>16.3999996185302734375</AltitudeMeters>
            <DistanceMeters>NAN</DistanceMeters>
          </Trackpoint>
          <Trackpoint>
            <Time>2021-08-11T09:33:01.000Z</Time>
            <Position>
              <LatitudeDegrees>43.31127776764333248138427734375</LatitudeDegrees>
              <LongitudeDegrees>-1.74075876362621784210205078125</LongitudeDegrees>
            </Position>
            <AltitudeMeters>16.6000003814697265625</AltitudeMeters>
            <DistanceMeters>NAN</DistanceMeters>
          </Trackpoint>
          <Trackpoint>
            <Time>2021-08-11T09:33:02.000Z</Time>
            <Position>
              <LatitudeDegrees>43.3112981356680393218994140625</LatitudeDegrees>
              <LongitudeDegrees>-1.74077385105192661285400390625</LongitudeDegrees>
            </Position>
            <AltitudeMeters>16.799999237060546875</AltitudeMeters>
            <DistanceMeters>NAN</DistanceMeters>
          </Trackpoint>
          <Trackpoint>
            <Time>2021-08-11T09:33:03.000Z</Time>
            <Position>
              <LatitudeDegrees>43.311319090425968170166015625</LatitudeDegrees>
              <LongitudeDegrees>-1.740786843001842498779296875</LongitudeDegrees>
            </Position>
            <AltitudeMeters>16.799999237060546875</AltitudeMeters>
            <DistanceMeters>NAN</DistanceMeters>
          </Trackpoint>
          <Trackpoint>
            <Time>2021-08-11T09:33:05.000Z</Time>
            <Position>
              <LatitudeDegrees>43.311371393501758575439453125</LatitudeDegrees>
              <LongitudeDegrees>-1.74079966731369495391845703125</LongitudeDegrees>
            </Position>
            <AltitudeMeters>17</AltitudeMeters>
            <DistanceMeters>NAN</DistanceMeters>
          </Trackpoint>
          <Trackpoint>
            <Time>2021-08-11T09:33:06.000Z</Time>
            <Position>
              <LatitudeDegrees>43.3113980479538440704345703125</LatitudeDegrees>
              <LongitudeDegrees>-1.74080503173172473907470703125</LongitudeDegrees>
            </Position>
            <AltitudeMeters>17</AltitudeMeters>
            <DistanceMeters>NAN</DistanceMeters>
          </Trackpoint>
          <Trackpoint>
            <Time>2021-08-11T09:33:07.000Z</Time>
            <Position>
              <LatitudeDegrees>43.3114228583872318267822265625</LatitudeDegrees>
              <LongitudeDegrees>-1.74081073142588138580322265625</LongitudeDegrees>
            </Position>
            <AltitudeMeters>17</AltitudeMeters>
            <DistanceMeters>NAN</DistanceMeters>
          </Trackpoint>
          <Trackpoint>
            <Time>2021-08-11T09:33:14.000Z</Time>
            <Position>
              <LatitudeDegrees>43.31160130910575389862060546875</LatitudeDegrees>
              <LongitudeDegrees>-1.7408054508268833160400390625</LongitudeDegrees>
            </Position>
            <AltitudeMeters>17</AltitudeMeters>
            <DistanceMeters>NAN</DistanceMeters>
          </Trackpoint>
          <Trackpoint>
            <Time>2021-08-11T09:33:23.000Z</Time>
            <Position>
              <LatitudeDegrees>43.311848156154155731201171875</LatitudeDegrees>
              <LongitudeDegrees>-1.74072213470935821533203125</LongitudeDegrees>
            </Position>
            <AltitudeMeters>17.200000762939453125</AltitudeMeters>
            <DistanceMeters>NAN</DistanceMeters>
          </Trackpoint>
          <Trackpoint>
            <Time>2021-08-11T09:33:29.000Z</Time>
            <Position>
              <LatitudeDegrees>43.3120401017367839813232421875</LatitudeDegrees>
              <LongitudeDegrees>-1.74063471145927906036376953125</LongitudeDegrees>
            </Position>
            <AltitudeMeters>16.6000003814697265625</AltitudeMeters>
            <DistanceMeters>NAN</DistanceMeters>
          </Trackpoint>
          <Trackpoint>
            <Time>2021-08-11T09:33:34.000Z</Time>
            <Position>
              <LatitudeDegrees>43.31222374923527240753173828125</LatitudeDegrees>
              <LongitudeDegrees>-1.74052993766963481903076171875</LongitudeDegrees>
            </Position>
            <AltitudeMeters>15.80000019073486328125</AltitudeMeters>
            <DistanceMeters>NAN</DistanceMeters>
          </Trackpoint>
          <Trackpoint>
            <Time>2021-08-11T09:33:37.000Z</Time>
            <Position>
              <LatitudeDegrees>43.31233003176748752593994140625</LatitudeDegrees>
              <LongitudeDegrees>-1.74046942032873630523681640625</LongitudeDegrees>
            </Position>
            <AltitudeMeters>14.80000019073486328125</AltitudeMeters>
            <DistanceMeters>NAN</DistanceMeters>
          </Trackpoint>
          <Trackpoint>
            <Time>2021-08-11T09:33:38.000Z</Time>
            <Position>
              <LatitudeDegrees>43.312367163598537445068359375</LatitudeDegrees>
              <LongitudeDegrees>-1.74044963903725147247314453125</LongitudeDegrees>
            </Position>
            <AltitudeMeters>14.6000003814697265625</AltitudeMeters>
            <DistanceMeters>NAN</DistanceMeters>
          </Trackpoint>
          <Trackpoint>
            <Time>2021-08-11T09:33:43.000Z</Time>
            <Position>
              <LatitudeDegrees>43.312546201050281524658203125</LatitudeDegrees>
              <LongitudeDegrees>-1.74028216861188411712646484375</LongitudeDegrees>
            </Position>
            <AltitudeMeters>13.6000003814697265625</AltitudeMeters>
            <DistanceMeters>NAN</DistanceMeters>
          </Trackpoint>
          <Trackpoint>
            <Time>2021-08-11T09:33:44.000Z</Time>
            <Position>
              <LatitudeDegrees>43.31257478334009647369384765625</LatitudeDegrees>
              <LongitudeDegrees>-1.7402408458292484283447265625</LongitudeDegrees>
            </Position>
            <AltitudeMeters>13.3999996185302734375</AltitudeMeters>
            <DistanceMeters>NAN</DistanceMeters>
          </Trackpoint>
          <Trackpoint>
            <Time>2021-08-11T09:33:49.000Z</Time>
            <Position>
              <LatitudeDegrees>43.31269129179418087005615234375</LatitudeDegrees>
              <LongitudeDegrees>-1.7400393448770046234130859375</LongitudeDegrees>
            </Position>
            <AltitudeMeters>13.19999980926513671875</AltitudeMeters>
            <DistanceMeters>NAN</DistanceMeters>
          </Trackpoint>
          <Trackpoint>
            <Time>2021-08-11T09:33:51.000Z</Time>
            <Position>
              <LatitudeDegrees>43.3127341233193874359130859375</LatitudeDegrees>
              <LongitudeDegrees>-1.739958040416240692138671875</LongitudeDegrees>
            </Position>
            <AltitudeMeters>13.19999980926513671875</AltitudeMeters>
            <DistanceMeters>NAN</DistanceMeters>
          </Trackpoint>
          <Trackpoint>
            <Time>2021-08-11T09:33:52.000Z</Time>
            <Position>
              <LatitudeDegrees>43.31275348551571369171142578125</LatitudeDegrees>
              <LongitudeDegrees>-1.739916466176509857177734375</LongitudeDegrees>
            </Position>
            <AltitudeMeters>13.19999980926513671875</AltitudeMeters>
            <DistanceMeters>NAN</DistanceMeters>
          </Trackpoint>
          <Trackpoint>
            <Time>2021-08-11T09:33:53.000Z</Time>
            <Position>
              <LatitudeDegrees>43.3127740211784839630126953125</LatitudeDegrees>
              <LongitudeDegrees>-1.73987346701323986053466796875</LongitudeDegrees>
            </Position>
            <AltitudeMeters>13.19999980926513671875</AltitudeMeters>
            <DistanceMeters>NAN</DistanceMeters>
          </Trackpoint>
          <Trackpoint>
            <Time>2021-08-11T09:33:55.000Z</Time>
            <Position>
              <LatitudeDegrees>43.3128189481794834136962890625</LatitudeDegrees>
              <LongitudeDegrees>-1.739787720143795013427734375</LongitudeDegrees>
            </Position>
            <AltitudeMeters>13.19999980926513671875</AltitudeMeters>
            <DistanceMeters>NAN</DistanceMeters>
          </Trackpoint>
          <Trackpoint>
            <Time>2021-08-11T09:33:56.000Z</Time>
            <Position>
              <LatitudeDegrees>43.3128383941948413848876953125</LatitudeDegrees>
              <LongitudeDegrees>-1.73974673263728618621826171875</LongitudeDegrees>
            </Position>
            <AltitudeMeters>13.19999980926513671875</AltitudeMeters>
            <DistanceMeters>NAN</DistanceMeters>
          </Trackpoint>
          <Trackpoint>
            <Time>2021-08-11T09:33:57.000Z</Time>
            <Position>
              <LatitudeDegrees>43.31285825930535793304443359375</LatitudeDegrees>
              <LongitudeDegrees>-1.73970767296850681304931640625</LongitudeDegrees>
            </Position>
            <AltitudeMeters>13.19999980926513671875</AltitudeMeters>
            <DistanceMeters>NAN</DistanceMeters>
          </Trackpoint>
          <Trackpoint>
            <Time>2021-08-11T09:33:58.000Z</Time>
            <Position>
              <LatitudeDegrees>43.3128762803971767425537109375</LatitudeDegrees>
              <LongitudeDegrees>-1.73966861329972743988037109375</LongitudeDegrees>
            </Position>
            <AltitudeMeters>13.19999980926513671875</AltitudeMeters>
            <DistanceMeters>NAN</DistanceMeters>
          </Trackpoint>
          <Trackpoint>
            <Time>2021-08-11T09:33:59.000Z</Time>
            <Position>
              <LatitudeDegrees>43.31289120018482208251953125</LatitudeDegrees>
              <LongitudeDegrees>-1.73962737433612346649169921875</LongitudeDegrees>
            </Position>
            <AltitudeMeters>13.19999980926513671875</AltitudeMeters>
            <DistanceMeters>NAN</DistanceMeters>
          </Trackpoint>
          <Trackpoint>
            <Time>2021-08-11T09:34:01.000Z</Time>
            <Position>
              <LatitudeDegrees>43.31291995011270046234130859375</LatitudeDegrees>
              <LongitudeDegrees>-1.7395411245524883270263671875</LongitudeDegrees>
            </Position>
            <AltitudeMeters>13.19999980926513671875</AltitudeMeters>
            <DistanceMeters>NAN</DistanceMeters>
          </Trackpoint>
          <Trackpoint>
            <Time>2021-08-11T09:34:04.000Z</Time>
            <Position>
              <LatitudeDegrees>43.31296236254274845123291015625</LatitudeDegrees>
              <LongitudeDegrees>-1.7394219338893890380859375</LongitudeDegrees>
            </Position>
            <AltitudeMeters>13.3999996185302734375</AltitudeMeters>
            <DistanceMeters>NAN</DistanceMeters>
          </Trackpoint>
          <Trackpoint>
            <Time>2021-08-11T09:34:05.000Z</Time>
            <Position>
              <LatitudeDegrees>43.3129777014255523681640625</LatitudeDegrees>
              <LongitudeDegrees>-1.739380694925785064697265625</LongitudeDegrees>
            </Position>
            <AltitudeMeters>13.6000003814697265625</AltitudeMeters>
            <DistanceMeters>NAN</DistanceMeters>
          </Trackpoint>
          <Trackpoint>
            <Time>2021-08-11T09:34:06.000Z</Time>
            <Position>
              <LatitudeDegrees>43.31299505196511745452880859375</LatitudeDegrees>
              <LongitudeDegrees>-1.73934155143797397613525390625</LongitudeDegrees>
            </Position>
            <AltitudeMeters>13.6000003814697265625</AltitudeMeters>
            <DistanceMeters>NAN</DistanceMeters>
          </Trackpoint>
          <Trackpoint>
            <Time>2021-08-11T09:34:07.000Z</Time>
            <Position>
              <LatitudeDegrees>43.31301399506628513336181640625</LatitudeDegrees>
              <LongitudeDegrees>-1.73930458724498748779296875</LongitudeDegrees>
            </Position>
            <AltitudeMeters>13.80000019073486328125</AltitudeMeters>
            <DistanceMeters>NAN</DistanceMeters>
          </Trackpoint>
          <Trackpoint>
            <Time>2021-08-11T09:34:08.000Z</Time>
            <Position>
              <LatitudeDegrees>43.31303411163389682769775390625</LatitudeDegrees>
              <LongitudeDegrees>-1.739268712699413299560546875</LongitudeDegrees>
            </Position>
            <AltitudeMeters>13.80000019073486328125</AltitudeMeters>
            <DistanceMeters>NAN</DistanceMeters>
          </Trackpoint>
          <Trackpoint>
            <Time>2021-08-11T09:34:09.000Z</Time>
            <Position>
              <LatitudeDegrees>43.3130512945353984832763671875</LatitudeDegrees>
              <LongitudeDegrees>-1.73923560418188571929931640625</LongitudeDegrees>
            </Position>
            <AltitudeMeters>14</AltitudeMeters>
            <DistanceMeters>NAN</DistanceMeters>
          </Trackpoint>
          <Trackpoint>
            <Time>2021-08-11T09:34:10.000Z</Time>
            <Position>
              <LatitudeDegrees>43.31307224929332733154296875</LatitudeDegrees>
              <LongitudeDegrees>-1.7392058484256267547607421875</LongitudeDegrees>
            </Position>
            <AltitudeMeters>14</AltitudeMeters>
            <DistanceMeters>NAN</DistanceMeters>
          </Trackpoint>
          <Trackpoint>
            <Time>2021-08-11T09:34:11.000Z</Time>
            <Position>
              <LatitudeDegrees>43.31308892928063869476318359375</LatitudeDegrees>
              <LongitudeDegrees>-1.7391850613057613372802734375</LongitudeDegrees>
            </Position>
            <AltitudeMeters>14.19999980926513671875</AltitudeMeters>
            <DistanceMeters>NAN</DistanceMeters>
          </Trackpoint>
          <Trackpoint>
            <Time>2021-08-11T09:34:12.000Z</Time>
            <Position>
              <LatitudeDegrees>43.3131086267530918121337890625</LatitudeDegrees>
              <LongitudeDegrees>-1.73914960585534572601318359375</LongitudeDegrees>
            </Position>
            <AltitudeMeters>14.19999980926513671875</AltitudeMeters>
            <DistanceMeters>NAN</DistanceMeters>
          </Trackpoint>
          <Trackpoint>
            <Time>2021-08-11T09:34:13.000Z</Time>
            <Position>
              <LatitudeDegrees>43.31312513910233974456787109375</LatitudeDegrees>
              <LongitudeDegrees>-1.7391215264797210693359375</LongitudeDegrees>
            </Position>
            <AltitudeMeters>14.3999996185302734375</AltitudeMeters>
            <DistanceMeters>NAN</DistanceMeters>
          </Trackpoint>
          <Trackpoint>
            <Time>2021-08-11T09:34:14.000Z</Time>
            <Position>
              <LatitudeDegrees>43.31314190290868282318115234375</LatitudeDegrees>
              <LongitudeDegrees>-1.73909671604633331298828125</LongitudeDegrees>
            </Position>
            <AltitudeMeters>14.6000003814697265625</AltitudeMeters>
            <DistanceMeters>NAN</DistanceMeters>
          </Trackpoint>
          <Trackpoint>
            <Time>2021-08-11T09:34:15.000Z</Time>
            <Position>
              <LatitudeDegrees>43.3131585828959941864013671875</LatitudeDegrees>
              <LongitudeDegrees>-1.73907768912613391876220703125</LongitudeDegrees>
            </Position>
            <AltitudeMeters>14.6000003814697265625</AltitudeMeters>
            <DistanceMeters>NAN</DistanceMeters>
          </Trackpoint>
          <Trackpoint>
            <Time>2021-08-11T09:34:16.000Z</Time>
            <Position>
              <LatitudeDegrees>43.31317107193171977996826171875</LatitudeDegrees>
              <LongitudeDegrees>-1.73905455507338047027587890625</LongitudeDegrees>
            </Position>
            <AltitudeMeters>14.80000019073486328125</AltitudeMeters>
            <DistanceMeters>NAN</DistanceMeters>
          </Trackpoint>
          <Trackpoint>
            <Time>2021-08-11T09:34:17.000Z</Time>
            <Position>
              <LatitudeDegrees>43.3131833933293819427490234375</LatitudeDegrees>
              <LongitudeDegrees>-1.73903234302997589111328125</LongitudeDegrees>
            </Position>
            <AltitudeMeters>15</AltitudeMeters>
            <DistanceMeters>NAN</DistanceMeters>
          </Trackpoint>
          <Trackpoint>
            <Time>2021-08-11T09:34:18.000Z</Time>
            <Position>
              <LatitudeDegrees>43.313196636736392974853515625</LatitudeDegrees>
              <LongitudeDegrees>-1.73901482485234737396240234375</LongitudeDegrees>
            </Position>
            <AltitudeMeters>15.19999980926513671875</AltitudeMeters>
            <DistanceMeters>NAN</DistanceMeters>
          </Trackpoint>
          <Trackpoint>
            <Time>2021-08-11T09:34:21.000Z</Time>
            <Position>
              <LatitudeDegrees>43.31324533559381961822509765625</LatitudeDegrees>
              <LongitudeDegrees>-1.7389617674052715301513671875</LongitudeDegrees>
            </Position>
            <AltitudeMeters>15.80000019073486328125</AltitudeMeters>
            <DistanceMeters>NAN</DistanceMeters>
          </Trackpoint>
          <Trackpoint>
            <Time>2021-08-11T09:34:23.000Z</Time>
            <Position>
              <LatitudeDegrees>43.313275091350078582763671875</LatitudeDegrees>
              <LongitudeDegrees>-1.73893310129642486572265625</LongitudeDegrees>
            </Position>
            <AltitudeMeters>16.200000762939453125</AltitudeMeters>
            <DistanceMeters>NAN</DistanceMeters>
          </Trackpoint>
          <Trackpoint>
            <Time>2021-08-11T09:34:24.000Z</Time>
            <Position>
              <LatitudeDegrees>43.31329830922186374664306640625</LatitudeDegrees>
              <LongitudeDegrees>-1.73891340382397174835205078125</LongitudeDegrees>
            </Position>
            <AltitudeMeters>16.3999996185302734375</AltitudeMeters>
            <DistanceMeters>NAN</DistanceMeters>
          </Trackpoint>
          <Trackpoint>
            <Time>2021-08-11T09:34:25.000Z</Time>
            <Position>
              <LatitudeDegrees>43.3133195154368877410888671875</LatitudeDegrees>
              <LongitudeDegrees>-1.7388920299708843231201171875</LongitudeDegrees>
            </Position>
            <AltitudeMeters>16.6000003814697265625</AltitudeMeters>
            <DistanceMeters>NAN</DistanceMeters>
          </Trackpoint>
          <Trackpoint>
            <Time>2021-08-11T09:34:26.000Z</Time>
            <Position>
              <LatitudeDegrees>43.313343487679958343505859375</LatitudeDegrees>
              <LongitudeDegrees>-1.73887216486036777496337890625</LongitudeDegrees>
            </Position>
            <AltitudeMeters>16.799999237060546875</AltitudeMeters>
            <DistanceMeters>NAN</DistanceMeters>
          </Trackpoint>
          <Trackpoint>
            <Time>2021-08-11T09:34:27.000Z</Time>
            <Position>
              <LatitudeDegrees>43.31336368806660175323486328125</LatitudeDegrees>
              <LongitudeDegrees>-1.73885908909142017364501953125</LongitudeDegrees>
            </Position>
            <AltitudeMeters>17</AltitudeMeters>
            <DistanceMeters>NAN</DistanceMeters>
          </Trackpoint>
          <Trackpoint>
            <Time>2021-08-11T09:34:28.000Z</Time>
            <Position>
              <LatitudeDegrees>43.31338900141417980194091796875</LatitudeDegrees>
              <LongitudeDegrees>-1.7388447560369968414306640625</LongitudeDegrees>
            </Position>
            <AltitudeMeters>17.200000762939453125</AltitudeMeters>
            <DistanceMeters>NAN</DistanceMeters>
          </Trackpoint>
          <Trackpoint>
            <Time>2021-08-11T09:34:29.000Z</Time>
            <Position>
              <LatitudeDegrees>43.313421271741390228271484375</LatitudeDegrees>
              <LongitudeDegrees>-1.73882639966905117034912109375</LongitudeDegrees>
            </Position>
            <AltitudeMeters>17.3999996185302734375</AltitudeMeters>
            <DistanceMeters>NAN</DistanceMeters>
          </Trackpoint>
          <Trackpoint>
            <Time>2021-08-11T09:34:30.000Z</Time>
            <Position>
              <LatitudeDegrees>43.31345002166926860809326171875</LatitudeDegrees>
              <LongitudeDegrees>-1.73880703747272491455078125</LongitudeDegrees>
            </Position>
            <AltitudeMeters>17.6000003814697265625</AltitudeMeters>
            <DistanceMeters>NAN</DistanceMeters>
          </Trackpoint>
          <Trackpoint>
            <Time>2021-08-11T09:34:31.000Z</Time>
            <Position>
              <LatitudeDegrees>43.3134791068732738494873046875</LatitudeDegrees>
              <LongitudeDegrees>-1.73878566361963748931884765625</LongitudeDegrees>
            </Position>
            <AltitudeMeters>17.6000003814697265625</AltitudeMeters>
            <DistanceMeters>NAN</DistanceMeters>
          </Trackpoint>
          <Trackpoint>
            <Time>2021-08-11T09:34:32.000Z</Time>
            <Position>
              <LatitudeDegrees>43.3135002292692661285400390625</LatitudeDegrees>
              <LongitudeDegrees>-1.738768480718135833740234375</LongitudeDegrees>
            </Position>
            <AltitudeMeters>17.799999237060546875</AltitudeMeters>
            <DistanceMeters>NAN</DistanceMeters>
          </Trackpoint>
          <Trackpoint>
            <Time>2021-08-11T09:34:33.000Z</Time>
            <Position>
              <LatitudeDegrees>43.31352763809263706207275390625</LatitudeDegrees>
              <LongitudeDegrees>-1.738749034702777862548828125</LongitudeDegrees>
            </Position>
            <AltitudeMeters>18</AltitudeMeters>
            <DistanceMeters>NAN</DistanceMeters>
          </Trackpoint>
          <Trackpoint>
            <Time>2021-08-11T09:34:34.000Z</Time>
            <Position>
              <LatitudeDegrees>43.31356108188629150390625</LatitudeDegrees>
              <LongitudeDegrees>-1.738724894821643829345703125</LongitudeDegrees>
            </Position>
            <AltitudeMeters>18.200000762939453125</AltitudeMeters>
            <DistanceMeters>NAN</DistanceMeters>
          </Trackpoint>
          <Trackpoint>
            <Time>2021-08-11T09:34:35.000Z</Time>
            <Position>
              <LatitudeDegrees>43.31359050236642360687255859375</LatitudeDegrees>
              <LongitudeDegrees>-1.7387069575488567352294921875</LongitudeDegrees>
            </Position>
            <AltitudeMeters>18.3999996185302734375</AltitudeMeters>
            <DistanceMeters>NAN</DistanceMeters>
          </Trackpoint>
          <Trackpoint>
            <Time>2021-08-11T09:34:36.000Z</Time>
            <Position>
              <LatitudeDegrees>43.31361581571400165557861328125</LatitudeDegrees>
              <LongitudeDegrees>-1.7386950552463531494140625</LongitudeDegrees>
            </Position>
            <AltitudeMeters>18.6000003814697265625</AltitudeMeters>
            <DistanceMeters>NAN</DistanceMeters>
          </Trackpoint>
          <Trackpoint>
            <Time>2021-08-11T09:34:37.000Z</Time>
            <Position>
              <LatitudeDegrees>43.31364749930799007415771484375</LatitudeDegrees>
              <LongitudeDegrees>-1.73868373967707157135009765625</LongitudeDegrees>
            </Position>
            <AltitudeMeters>18.6000003814697265625</AltitudeMeters>
            <DistanceMeters>NAN</DistanceMeters>
          </Trackpoint>
          <Trackpoint>
            <Time>2021-08-11T09:34:38.000Z</Time>
            <Position>
              <LatitudeDegrees>43.3136792667210102081298828125</LatitudeDegrees>
              <LongitudeDegrees>-1.73867636360228061676025390625</LongitudeDegrees>
            </Position>
            <AltitudeMeters>18.6000003814697265625</AltitudeMeters>
            <DistanceMeters>NAN</DistanceMeters>
          </Trackpoint>
          <Trackpoint>
            <Time>2021-08-11T09:34:39.000Z</Time>
            <Position>
              <LatitudeDegrees>43.31371069885790348052978515625</LatitudeDegrees>
              <LongitudeDegrees>-1.7386722564697265625</LongitudeDegrees>
            </Position>
            <AltitudeMeters>18.799999237060546875</AltitudeMeters>
            <DistanceMeters>NAN</DistanceMeters>
          </Trackpoint>
          <Trackpoint>
            <Time>2021-08-11T09:34:40.000Z</Time>
            <Position>
              <LatitudeDegrees>43.31374405883252620697021484375</LatitudeDegrees>
              <LongitudeDegrees>-1.738672591745853424072265625</LongitudeDegrees>
            </Position>
            <AltitudeMeters>18.799999237060546875</AltitudeMeters>
            <DistanceMeters>NAN</DistanceMeters>
          </Trackpoint>
          <Trackpoint>
            <Time>2021-08-11T09:34:41.000Z</Time>
            <Position>
              <LatitudeDegrees>43.313779346644878387451171875</LatitudeDegrees>
              <LongitudeDegrees>-1.73867586068809032440185546875</LongitudeDegrees>
            </Position>
            <AltitudeMeters>19</AltitudeMeters>
            <DistanceMeters>NAN</DistanceMeters>
          </Trackpoint>
          <Trackpoint>
            <Time>2021-08-11T09:34:42.000Z</Time>
            <Position>
              <LatitudeDegrees>43.3138157241046428680419921875</LatitudeDegrees>
              <LongitudeDegrees>-1.7386808060109615325927734375</LongitudeDegrees>
            </Position>
            <AltitudeMeters>19</AltitudeMeters>
            <DistanceMeters>NAN</DistanceMeters>
          </Trackpoint>
          <Trackpoint>
            <Time>2021-08-11T09:34:43.000Z</Time>
            <Position>
              <LatitudeDegrees>43.3138547837734222412109375</LatitudeDegrees>
              <LongitudeDegrees>-1.73868860118091106414794921875</LongitudeDegrees>
            </Position>
            <AltitudeMeters>19</AltitudeMeters>
            <DistanceMeters>NAN</DistanceMeters>
          </Trackpoint>
          <Trackpoint>
            <Time>2021-08-11T09:34:44.000Z</Time>
            <Position>
              <LatitudeDegrees>43.31389241851866245269775390625</LatitudeDegrees>
              <LongitudeDegrees>-1.738697402179241180419921875</LongitudeDegrees>
            </Position>
            <AltitudeMeters>19</AltitudeMeters>
            <DistanceMeters>NAN</DistanceMeters>
          </Trackpoint>
          <Trackpoint>
            <Time>2021-08-11T09:34:45.000Z</Time>
            <Position>
              <LatitudeDegrees>43.31392787396907806396484375</LatitudeDegrees>
              <LongitudeDegrees>-1.738710142672061920166015625</LongitudeDegrees>
            </Position>
            <AltitudeMeters>19.200000762939453125</AltitudeMeters>
            <DistanceMeters>NAN</DistanceMeters>
          </Trackpoint>
          <Trackpoint>
            <Time>2021-08-11T09:34:46.000Z</Time>
            <Position>
              <LatitudeDegrees>43.31396299414336681365966796875</LatitudeDegrees>
              <LongitudeDegrees>-1.73872699029743671417236328125</LongitudeDegrees>
            </Position>
            <AltitudeMeters>19.200000762939453125</AltitudeMeters>
            <DistanceMeters>NAN</DistanceMeters>
          </Trackpoint>
          <Trackpoint>
            <Time>2021-08-11T09:34:47.000Z</Time>
            <Position>
              <LatitudeDegrees>43.313999958336353302001953125</LatitudeDegrees>
              <LongitudeDegrees>-1.73874543048441410064697265625</LongitudeDegrees>
            </Position>
            <AltitudeMeters>19.200000762939453125</AltitudeMeters>
            <DistanceMeters>NAN</DistanceMeters>
          </Trackpoint>
          <Trackpoint>
            <Time>2021-08-11T09:34:48.000Z</Time>
            <Position>
              <LatitudeDegrees>43.31403742544353008270263671875</LatitudeDegrees>
              <LongitudeDegrees>-1.73876336775720119476318359375</LongitudeDegrees>
            </Position>
            <AltitudeMeters>19.200000762939453125</AltitudeMeters>
            <DistanceMeters>NAN</DistanceMeters>
          </Trackpoint>
          <Trackpoint>
            <Time>2021-08-11T09:34:49.000Z</Time>
            <Position>
              <LatitudeDegrees>43.31407246179878711700439453125</LatitudeDegrees>
              <LongitudeDegrees>-1.7387867532670497894287109375</LongitudeDegrees>
            </Position>
            <AltitudeMeters>19.200000762939453125</AltitudeMeters>
            <DistanceMeters>NAN</DistanceMeters>
          </Trackpoint>
          <Trackpoint>
            <Time>2021-08-11T09:34:50.000Z</Time>
            <Position>
              <LatitudeDegrees>43.3141074143350124359130859375</LatitudeDegrees>
              <LongitudeDegrees>-1.7388129048049449920654296875</LongitudeDegrees>
            </Position>
            <AltitudeMeters>19.200000762939453125</AltitudeMeters>
            <DistanceMeters>NAN</DistanceMeters>
          </Trackpoint>
          <Trackpoint>
            <Time>2021-08-11T09:34:51.000Z</Time>
            <Position>
              <LatitudeDegrees>43.31413918174803256988525390625</LatitudeDegrees>
              <LongitudeDegrees>-1.73883779905736446380615234375</LongitudeDegrees>
            </Position>
            <AltitudeMeters>19.200000762939453125</AltitudeMeters>
            <DistanceMeters>NAN</DistanceMeters>
          </Trackpoint>
          <Trackpoint>
            <Time>2021-08-11T09:34:52.000Z</Time>
            <Position>
              <LatitudeDegrees>43.31417053006589412689208984375</LatitudeDegrees>
              <LongitudeDegrees>-1.73886126838624477386474609375</LongitudeDegrees>
            </Position>
            <AltitudeMeters>19.200000762939453125</AltitudeMeters>
            <DistanceMeters>NAN</DistanceMeters>
          </Trackpoint>
          <Trackpoint>
            <Time>2021-08-11T09:34:53.000Z</Time>
            <Position>
              <LatitudeDegrees>43.31420070491731166839599609375</LatitudeDegrees>
              <LongitudeDegrees>-1.73888792283833026885986328125</LongitudeDegrees>
            </Position>
            <AltitudeMeters>19.200000762939453125</AltitudeMeters>
            <DistanceMeters>NAN</DistanceMeters>
          </Trackpoint>
          <Trackpoint>
            <Time>2021-08-11T09:34:54.000Z</Time>
            <Position>
              <LatitudeDegrees>43.3142307959496974945068359375</LatitudeDegrees>
              <LongitudeDegrees>-1.7389203608036041259765625</LongitudeDegrees>
            </Position>
            <AltitudeMeters>19.3999996185302734375</AltitudeMeters>
            <DistanceMeters>NAN</DistanceMeters>
          </Trackpoint>
          <Trackpoint>
            <Time>2021-08-11T09:34:59.000Z</Time>
            <Position>
              <LatitudeDegrees>43.31437504850327968597412109375</LatitudeDegrees>
              <LongitudeDegrees>-1.73909177072346210479736328125</LongitudeDegrees>
            </Position>
            <AltitudeMeters>19.6000003814697265625</AltitudeMeters>
            <DistanceMeters>NAN</DistanceMeters>
          </Trackpoint>
          <Trackpoint>
            <Time>2021-08-11T09:35:07.000Z</Time>
            <Position>
              <LatitudeDegrees>43.31456380896270275115966796875</LatitudeDegrees>
              <LongitudeDegrees>-1.73947356641292572021484375</LongitudeDegrees>
            </Position>
            <AltitudeMeters>19.6000003814697265625</AltitudeMeters>
            <DistanceMeters>NAN</DistanceMeters>
          </Trackpoint>
          <Trackpoint>
            <Time>2021-08-11T09:35:15.000Z</Time>
            <Position>
              <LatitudeDegrees>43.31473563797771930694580078125</LatitudeDegrees>
              <LongitudeDegrees>-1.739882938563823699951171875</LongitudeDegrees>
            </Position>
            <AltitudeMeters>19.799999237060546875</AltitudeMeters>
            <DistanceMeters>NAN</DistanceMeters>
          </Trackpoint>
          <Trackpoint>
            <Time>2021-08-11T09:35:20.000Z</Time>
            <Position>
              <LatitudeDegrees>43.31486069597303867340087890625</LatitudeDegrees>
              <LongitudeDegrees>-1.7401439510285854339599609375</LongitudeDegrees>
            </Position>
            <AltitudeMeters>19.3999996185302734375</AltitudeMeters>
            <DistanceMeters>NAN</DistanceMeters>
          </Trackpoint>
          <Trackpoint>
            <Time>2021-08-11T09:35:22.000Z</Time>
            <Position>
              <LatitudeDegrees>43.314921297132968902587890625</LatitudeDegrees>
              <LongitudeDegrees>-1.74024042673408985137939453125</LongitudeDegrees>
            </Position>
            <AltitudeMeters>19.3999996185302734375</AltitudeMeters>
            <DistanceMeters>NAN</DistanceMeters>
          </Trackpoint>
          <Trackpoint>
            <Time>2021-08-11T09:35:24.000Z</Time>
            <Position>
              <LatitudeDegrees>43.3149826526641845703125</LatitudeDegrees>
              <LongitudeDegrees>-1.7403424344956874847412109375</LongitudeDegrees>
            </Position>
            <AltitudeMeters>19.3999996185302734375</AltitudeMeters>
            <DistanceMeters>NAN</DistanceMeters>
          </Trackpoint>
          <Trackpoint>
            <Time>2021-08-11T09:35:28.000Z</Time>
            <Position>
              <LatitudeDegrees>43.315097987651824951171875</LatitudeDegrees>
              <LongitudeDegrees>-1.74055223353207111358642578125</LongitudeDegrees>
            </Position>
            <AltitudeMeters>19.3999996185302734375</AltitudeMeters>
            <DistanceMeters>NAN</DistanceMeters>
          </Trackpoint>
          <Trackpoint>
            <Time>2021-08-11T09:35:33.000Z</Time>
            <Position>
              <LatitudeDegrees>43.31525950692594051361083984375</LatitudeDegrees>
              <LongitudeDegrees>-1.74079799093306064605712890625</LongitudeDegrees>
            </Position>
            <AltitudeMeters>19.3999996185302734375</AltitudeMeters>
            <DistanceMeters>NAN</DistanceMeters>
          </Trackpoint>
          <Trackpoint>
            <Time>2021-08-11T09:35:34.000Z</Time>
            <Position>
              <LatitudeDegrees>43.315290771424770355224609375</LatitudeDegrees>
              <LongitudeDegrees>-1.7408470250666141510009765625</LongitudeDegrees>
            </Position>
            <AltitudeMeters>19.3999996185302734375</AltitudeMeters>
            <DistanceMeters>NAN</DistanceMeters>
          </Trackpoint>
          <Trackpoint>
            <Time>2021-08-11T09:35:37.000Z</Time>
            <Position>
              <LatitudeDegrees>43.31538339145481586456298828125</LatitudeDegrees>
              <LongitudeDegrees>-1.7409808002412319183349609375</LongitudeDegrees>
            </Position>
            <AltitudeMeters>19.200000762939453125</AltitudeMeters>
            <DistanceMeters>NAN</DistanceMeters>
          </Trackpoint>
          <Trackpoint>
            <Time>2021-08-11T09:35:38.000Z</Time>
            <Position>
              <LatitudeDegrees>43.3154146559536457061767578125</LatitudeDegrees>
              <LongitudeDegrees>-1.741016171872615814208984375</LongitudeDegrees>
            </Position>
            <AltitudeMeters>19.200000762939453125</AltitudeMeters>
            <DistanceMeters>NAN</DistanceMeters>
          </Trackpoint>
          <Trackpoint>
            <Time>2021-08-11T09:35:39.000Z</Time>
            <Position>
              <LatitudeDegrees>43.31544600427150726318359375</LatitudeDegrees>
              <LongitudeDegrees>-1.74104978330433368682861328125</LongitudeDegrees>
            </Position>
            <AltitudeMeters>19.200000762939453125</AltitudeMeters>
            <DistanceMeters>NAN</DistanceMeters>
          </Trackpoint>
          <Trackpoint>
            <Time>2021-08-11T09:35:40.000Z</Time>
            <Position>
              <LatitudeDegrees>43.315475843846797943115234375</LatitudeDegrees>
              <LongitudeDegrees>-1.74108423292636871337890625</LongitudeDegrees>
            </Position>
            <AltitudeMeters>19.200000762939453125</AltitudeMeters>
            <DistanceMeters>NAN</DistanceMeters>
          </Trackpoint>
          <Trackpoint>
            <Time>2021-08-11T09:35:41.000Z</Time>
            <Position>
              <LatitudeDegrees>43.31550576724112033843994140625</LatitudeDegrees>
              <LongitudeDegrees>-1.74111935310065746307373046875</LongitudeDegrees>
            </Position>
            <AltitudeMeters>19.200000762939453125</AltitudeMeters>
            <DistanceMeters>NAN</DistanceMeters>
          </Trackpoint>
          <Trackpoint>
            <Time>2021-08-11T09:35:42.000Z</Time>
            <Position>
              <LatitudeDegrees>43.31553585827350616455078125</LatitudeDegrees>
              <LongitudeDegrees>-1.74115397036075592041015625</LongitudeDegrees>
            </Position>
            <AltitudeMeters>19.200000762939453125</AltitudeMeters>
            <DistanceMeters>NAN</DistanceMeters>
          </Trackpoint>
          <Trackpoint>
            <Time>2021-08-11T09:35:43.000Z</Time>
            <Position>
              <LatitudeDegrees>43.3155655302107334136962890625</LatitudeDegrees>
              <LongitudeDegrees>-1.74118624068796634674072265625</LongitudeDegrees>
            </Position>
            <AltitudeMeters>19.200000762939453125</AltitudeMeters>
            <DistanceMeters>NAN</DistanceMeters>
          </Trackpoint>
          <Trackpoint>
            <Time>2021-08-11T09:35:44.000Z</Time>
            <Position>
              <LatitudeDegrees>43.3155987225472927093505859375</LatitudeDegrees>
              <LongitudeDegrees>-1.74121658317744731903076171875</LongitudeDegrees>
            </Position>
            <AltitudeMeters>19.200000762939453125</AltitudeMeters>
            <DistanceMeters>NAN</DistanceMeters>
          </Trackpoint>
          <Trackpoint>
            <Time>2021-08-11T09:35:45.000Z</Time>
            <Position>
              <LatitudeDegrees>43.31563468091189861297607421875</LatitudeDegrees>
              <LongitudeDegrees>-1.74124776385724544525146484375</LongitudeDegrees>
            </Position>
            <AltitudeMeters>19.200000762939453125</AltitudeMeters>
            <DistanceMeters>NAN</DistanceMeters>
          </Trackpoint>
          <Trackpoint>
            <Time>2021-08-11T09:35:46.000Z</Time>
            <Position>
              <LatitudeDegrees>43.31567072309553623199462890625</LatitudeDegrees>
              <LongitudeDegrees>-1.74127927981317043304443359375</LongitudeDegrees>
            </Position>
            <AltitudeMeters>19.200000762939453125</AltitudeMeters>
            <DistanceMeters>NAN</DistanceMeters>
          </Trackpoint>
          <Trackpoint>
            <Time>2021-08-11T09:35:47.000Z</Time>
            <Position>
              <LatitudeDegrees>43.3157063461840152740478515625</LatitudeDegrees>
              <LongitudeDegrees>-1.74131096340715885162353515625</LongitudeDegrees>
            </Position>
            <AltitudeMeters>19</AltitudeMeters>
            <DistanceMeters>NAN</DistanceMeters>
          </Trackpoint>
          <Trackpoint>
            <Time>2021-08-11T09:35:51.000Z</Time>
            <Position>
              <LatitudeDegrees>43.3158454857766628265380859375</LatitudeDegrees>
              <LongitudeDegrees>-1.74146971665322780609130859375</LongitudeDegrees>
            </Position>
            <AltitudeMeters>18.6000003814697265625</AltitudeMeters>
            <DistanceMeters>NAN</DistanceMeters>
          </Trackpoint>
          <Trackpoint>
            <Time>2021-08-11T09:35:53.000Z</Time>
            <Position>
              <LatitudeDegrees>43.31593215465545654296875</LatitudeDegrees>
              <LongitudeDegrees>-1.7415433935821056365966796875</LongitudeDegrees>
            </Position>
            <AltitudeMeters>18.200000762939453125</AltitudeMeters>
            <DistanceMeters>NAN</DistanceMeters>
          </Trackpoint>
          <Trackpoint>
            <Time>2021-08-11T09:35:54.000Z</Time>
            <Position>
              <LatitudeDegrees>43.315986804664134979248046875</LatitudeDegrees>
              <LongitudeDegrees>-1.74159477464854717254638671875</LongitudeDegrees>
            </Position>
            <AltitudeMeters>18.200000762939453125</AltitudeMeters>
            <DistanceMeters>NAN</DistanceMeters>
          </Trackpoint>
          <Trackpoint>
            <Time>2021-08-11T09:35:57.000Z</Time>
            <Position>
              <LatitudeDegrees>43.31613055430352687835693359375</LatitudeDegrees>
              <LongitudeDegrees>-1.7417234368622303009033203125</LongitudeDegrees>
            </Position>
            <AltitudeMeters>17</AltitudeMeters>
            <DistanceMeters>NAN</DistanceMeters>
          </Trackpoint>
          <Trackpoint>
            <Time>2021-08-11T09:35:59.000Z</Time>
            <Position>
              <LatitudeDegrees>43.31623331643640995025634765625</LatitudeDegrees>
              <LongitudeDegrees>-1.7418089322745800018310546875</LongitudeDegrees>
            </Position>
            <AltitudeMeters>16.3999996185302734375</AltitudeMeters>
            <DistanceMeters>NAN</DistanceMeters>
          </Trackpoint>
          <Trackpoint>
            <Time>2021-08-11T09:36:00.000Z</Time>
            <Position>
              <LatitudeDegrees>43.31627673469483852386474609375</LatitudeDegrees>
              <LongitudeDegrees>-1.7418585531413555145263671875</LongitudeDegrees>
            </Position>
            <AltitudeMeters>16</AltitudeMeters>
            <DistanceMeters>NAN</DistanceMeters>
          </Trackpoint>
          <Trackpoint>
            <Time>2021-08-11T09:36:01.000Z</Time>
            <Position>
              <LatitudeDegrees>43.3163232542574405670166015625</LatitudeDegrees>
              <LongitudeDegrees>-1.74191010184586048126220703125</LongitudeDegrees>
            </Position>
            <AltitudeMeters>16</AltitudeMeters>
            <DistanceMeters>NAN</DistanceMeters>
          </Trackpoint>
          <Trackpoint>
            <Time>2021-08-11T09:36:02.000Z</Time>
            <Position>
              <LatitudeDegrees>43.3163765631616115570068359375</LatitudeDegrees>
              <LongitudeDegrees>-1.74194815568625926971435546875</LongitudeDegrees>
            </Position>
            <AltitudeMeters>15.3999996185302734375</AltitudeMeters>
            <DistanceMeters>NAN</DistanceMeters>
          </Trackpoint>
          <Trackpoint>
            <Time>2021-08-11T09:36:03.000Z</Time>
            <Position>
              <LatitudeDegrees>43.31644303165376186370849609375</LatitudeDegrees>
              <LongitudeDegrees>-1.74198654480278491973876953125</LongitudeDegrees>
            </Position>
            <AltitudeMeters>15.19999980926513671875</AltitudeMeters>
            <DistanceMeters>NAN</DistanceMeters>
          </Trackpoint>
          <Trackpoint>
            <Time>2021-08-11T09:36:04.000Z</Time>
            <Position>
              <LatitudeDegrees>43.3164885453879833221435546875</LatitudeDegrees>
              <LongitudeDegrees>-1.74200297333300113677978515625</LongitudeDegrees>
            </Position>
            <AltitudeMeters>15.19999980926513671875</AltitudeMeters>
            <DistanceMeters>NAN</DistanceMeters>
          </Trackpoint>
          <Trackpoint>
            <Time>2021-08-11T09:36:06.000Z</Time>
            <Position>
              <LatitudeDegrees>43.31660337746143341064453125</LatitudeDegrees>
              <LongitudeDegrees>-1.7420389316976070404052734375</LongitudeDegrees>
            </Position>
            <AltitudeMeters>15</AltitudeMeters>
            <DistanceMeters>NAN</DistanceMeters>
          </Trackpoint>
          <Trackpoint>
            <Time>2021-08-11T09:36:07.000Z</Time>
            <Position>
              <LatitudeDegrees>43.3166615478694438934326171875</LatitudeDegrees>
              <LongitudeDegrees>-1.74205343239009380340576171875</LongitudeDegrees>
            </Position>
            <AltitudeMeters>14.80000019073486328125</AltitudeMeters>
            <DistanceMeters>NAN</DistanceMeters>
          </Trackpoint>
          <Trackpoint>
            <Time>2021-08-11T09:36:08.000Z</Time>
            <Position>
              <LatitudeDegrees>43.316713012754917144775390625</LatitudeDegrees>
              <LongitudeDegrees>-1.7420617304742336273193359375</LongitudeDegrees>
            </Position>
            <AltitudeMeters>14.6000003814697265625</AltitudeMeters>
            <DistanceMeters>NAN</DistanceMeters>
          </Trackpoint>
          <Trackpoint>
            <Time>2021-08-11T09:36:09.000Z</Time>
            <Position>
              <LatitudeDegrees>43.31676623784005641937255859375</LatitudeDegrees>
              <LongitudeDegrees>-1.7420714534819126129150390625</LongitudeDegrees>
            </Position>
            <AltitudeMeters>14.6000003814697265625</AltitudeMeters>
            <DistanceMeters>NAN</DistanceMeters>
          </Trackpoint>
          <Trackpoint>
            <Time>2021-08-11T09:36:13.000Z</Time>
            <Position>
              <LatitudeDegrees>43.316986598074436187744140625</LatitudeDegrees>
              <LongitudeDegrees>-1.742095090448856353759765625</LongitudeDegrees>
            </Position>
            <AltitudeMeters>14.6000003814697265625</AltitudeMeters>
            <DistanceMeters>NAN</DistanceMeters>
          </Trackpoint>
          <Trackpoint>
            <Time>2021-08-11T09:36:14.000Z</Time>
            <Position>
              <LatitudeDegrees>43.31703864969313144683837890625</LatitudeDegrees>
              <LongitudeDegrees>-1.74209651537239551544189453125</LongitudeDegrees>
            </Position>
            <AltitudeMeters>14.6000003814697265625</AltitudeMeters>
            <DistanceMeters>NAN</DistanceMeters>
          </Trackpoint>
          <Trackpoint>
            <Time>2021-08-11T09:36:16.000Z</Time>
            <Position>
              <LatitudeDegrees>43.31713269464671611785888671875</LatitudeDegrees>
              <LongitudeDegrees>-1.74209953285753726959228515625</LongitudeDegrees>
            </Position>
            <AltitudeMeters>14.6000003814697265625</AltitudeMeters>
            <DistanceMeters>NAN</DistanceMeters>
          </Trackpoint>
          <Trackpoint>
            <Time>2021-08-11T09:36:17.000Z</Time>
            <Position>
              <LatitudeDegrees>43.31718449480831623077392578125</LatitudeDegrees>
              <LongitudeDegrees>-1.7421046458184719085693359375</LongitudeDegrees>
            </Position>
            <AltitudeMeters>14.6000003814697265625</AltitudeMeters>
            <DistanceMeters>NAN</DistanceMeters>
          </Trackpoint>
          <Trackpoint>
            <Time>2021-08-11T09:36:18.000Z</Time>
            <Position>
              <LatitudeDegrees>43.317236714065074920654296875</LatitudeDegrees>
              <LongitudeDegrees>-1.74210975877940654754638671875</LongitudeDegrees>
            </Position>
            <AltitudeMeters>14.6000003814697265625</AltitudeMeters>
            <DistanceMeters>NAN</DistanceMeters>
          </Trackpoint>
          <Trackpoint>
            <Time>2021-08-11T09:36:20.000Z</Time>
            <Position>
              <LatitudeDegrees>43.3173357881605625152587890625</LatitudeDegrees>
              <LongitudeDegrees>-1.742112524807453155517578125</LongitudeDegrees>
            </Position>
            <AltitudeMeters>14.3999996185302734375</AltitudeMeters>
            <DistanceMeters>NAN</DistanceMeters>
          </Trackpoint>
          <Trackpoint>
            <Time>2021-08-11T09:36:22.000Z</Time>
            <Position>
              <LatitudeDegrees>43.31743829883635044097900390625</LatitudeDegrees>
              <LongitudeDegrees>-1.7421123571693897247314453125</LongitudeDegrees>
            </Position>
            <AltitudeMeters>14.3999996185302734375</AltitudeMeters>
            <DistanceMeters>NAN</DistanceMeters>
          </Trackpoint>
          <Trackpoint>
            <Time>2021-08-11T09:36:23.000Z</Time>
            <Position>
              <LatitudeDegrees>43.31749093718826770782470703125</LatitudeDegrees>
              <LongitudeDegrees>-1.74211688339710235595703125</LongitudeDegrees>
            </Position>
            <AltitudeMeters>14.3999996185302734375</AltitudeMeters>
            <DistanceMeters>NAN</DistanceMeters>
          </Trackpoint>
          <Trackpoint>
            <Time>2021-08-11T09:36:27.000Z</Time>
            <Position>
              <LatitudeDegrees>43.317683972418308258056640625</LatitudeDegrees>
              <LongitudeDegrees>-1.7421631515026092529296875</LongitudeDegrees>
            </Position>
            <AltitudeMeters>14.3999996185302734375</AltitudeMeters>
            <DistanceMeters>NAN</DistanceMeters>
          </Trackpoint>
          <Trackpoint>
            <Time>2021-08-11T09:36:28.000Z</Time>
            <Position>
              <LatitudeDegrees>43.31772931851446628570556640625</LatitudeDegrees>
              <LongitudeDegrees>-1.7421874590218067169189453125</LongitudeDegrees>
            </Position>
            <AltitudeMeters>14.3999996185302734375</AltitudeMeters>
            <DistanceMeters>NAN</DistanceMeters>
          </Trackpoint>
          <Trackpoint>
            <Time>2021-08-11T09:36:31.000Z</Time>
            <Position>
              <LatitudeDegrees>43.3178688772022724151611328125</LatitudeDegrees>
              <LongitudeDegrees>-1.742250658571720123291015625</LongitudeDegrees>
            </Position>
            <AltitudeMeters>14.3999996185302734375</AltitudeMeters>
            <DistanceMeters>NAN</DistanceMeters>
          </Trackpoint>
          <Trackpoint>
            <Time>2021-08-11T09:36:34.000Z</Time>
            <Position>
              <LatitudeDegrees>43.31802050583064556121826171875</LatitudeDegrees>
              <LongitudeDegrees>-1.74228728748857975006103515625</LongitudeDegrees>
            </Position>
            <AltitudeMeters>14.3999996185302734375</AltitudeMeters>
            <DistanceMeters>NAN</DistanceMeters>
          </Trackpoint>
          <Trackpoint>
            <Time>2021-08-11T09:36:40.000Z</Time>
            <Position>
              <LatitudeDegrees>43.31833650358021259307861328125</LatitudeDegrees>
              <LongitudeDegrees>-1.7423131875693798065185546875</LongitudeDegrees>
            </Position>
            <AltitudeMeters>14</AltitudeMeters>
            <DistanceMeters>NAN</DistanceMeters>
          </Trackpoint>
          <Trackpoint>
            <Time>2021-08-11T09:36:44.000Z</Time>
            <Position>
              <LatitudeDegrees>43.318516127765178680419921875</LatitudeDegrees>
              <LongitudeDegrees>-1.74230773933231830596923828125</LongitudeDegrees>
            </Position>
            <AltitudeMeters>13.80000019073486328125</AltitudeMeters>
            <DistanceMeters>NAN</DistanceMeters>
          </Trackpoint>
          <Trackpoint>
            <Time>2021-08-11T09:36:45.000Z</Time>
            <Position>
              <LatitudeDegrees>43.31855929456651210784912109375</LatitudeDegrees>
              <LongitudeDegrees>-1.74230639822781085968017578125</LongitudeDegrees>
            </Position>
            <AltitudeMeters>13.80000019073486328125</AltitudeMeters>
            <DistanceMeters>NAN</DistanceMeters>
          </Trackpoint>
          <Trackpoint>
            <Time>2021-08-11T09:36:46.000Z</Time>
            <Position>
              <LatitudeDegrees>43.3185997791588306427001953125</LatitudeDegrees>
              <LongitudeDegrees>-1.74230388365685939788818359375</LongitudeDegrees>
            </Position>
            <AltitudeMeters>13.80000019073486328125</AltitudeMeters>
            <DistanceMeters>NAN</DistanceMeters>
          </Trackpoint>
          <Trackpoint>
            <Time>2021-08-11T09:36:47.000Z</Time>
            <Position>
              <LatitudeDegrees>43.31863825209438800811767578125</LatitudeDegrees>
              <LongitudeDegrees>-1.742299608886241912841796875</LongitudeDegrees>
            </Position>
            <AltitudeMeters>13.80000019073486328125</AltitudeMeters>
            <DistanceMeters>NAN</DistanceMeters>
          </Trackpoint>
          <Trackpoint>
            <Time>2021-08-11T09:36:48.000Z</Time>
            <Position>
              <LatitudeDegrees>43.31867647357285022735595703125</LatitudeDegrees>
              <LongitudeDegrees>-1.7422927357256412506103515625</LongitudeDegrees>
            </Position>
            <AltitudeMeters>13.80000019073486328125</AltitudeMeters>
            <DistanceMeters>NAN</DistanceMeters>
          </Trackpoint>
          <Trackpoint>
            <Time>2021-08-11T09:36:49.000Z</Time>
            <Position>
              <LatitudeDegrees>43.31867647357285022735595703125</LatitudeDegrees>
              <LongitudeDegrees>-1.7422927357256412506103515625</LongitudeDegrees>
            </Position>
            <AltitudeMeters>13.80000019073486328125</AltitudeMeters>
            <DistanceMeters>NAN</DistanceMeters>
          </Trackpoint>
          <Trackpoint>
            <Time>2021-08-11T09:36:50.000Z</Time>
            <Position>
              <LatitudeDegrees>43.3187533356249332427978515625</LatitudeDegrees>
              <LongitudeDegrees>-1.74228183925151824951171875</LongitudeDegrees>
            </Position>
            <AltitudeMeters>13.80000019073486328125</AltitudeMeters>
            <DistanceMeters>NAN</DistanceMeters>
          </Trackpoint>
          <Trackpoint>
            <Time>2021-08-11T09:36:51.000Z</Time>
            <Position>
              <LatitudeDegrees>43.318794071674346923828125</LatitudeDegrees>
              <LongitudeDegrees>-1.74227840267121791839599609375</LongitudeDegrees>
            </Position>
            <AltitudeMeters>14</AltitudeMeters>
            <DistanceMeters>NAN</DistanceMeters>
          </Trackpoint>
          <Trackpoint>
            <Time>2021-08-11T09:36:53.000Z</Time>
            <Position>
              <LatitudeDegrees>43.31886976025998592376708984375</LatitudeDegrees>
              <LongitudeDegrees>-1.74227220006287097930908203125</LongitudeDegrees>
            </Position>
            <AltitudeMeters>14</AltitudeMeters>
            <DistanceMeters>NAN</DistanceMeters>
          </Trackpoint>
          <Trackpoint>
            <Time>2021-08-11T09:36:54.000Z</Time>
            <Position>
              <LatitudeDegrees>43.31890211440622806549072265625</LatitudeDegrees>
              <LongitudeDegrees>-1.742265410721302032470703125</LongitudeDegrees>
            </Position>
            <AltitudeMeters>14</AltitudeMeters>
            <DistanceMeters>NAN</DistanceMeters>
          </Trackpoint>
          <Trackpoint>
            <Time>2021-08-11T09:36:55.000Z</Time>
            <Position>
              <LatitudeDegrees>43.318932540714740753173828125</LatitudeDegrees>
              <LongitudeDegrees>-1.74225929193198680877685546875</LongitudeDegrees>
            </Position>
            <AltitudeMeters>14</AltitudeMeters>
            <DistanceMeters>NAN</DistanceMeters>
          </Trackpoint>
          <Trackpoint>
            <Time>2021-08-11T09:36:56.000Z</Time>
            <Position>
              <LatitudeDegrees>43.3189571835100650787353515625</LatitudeDegrees>
              <LongitudeDegrees>-1.74225593917071819305419921875</LongitudeDegrees>
            </Position>
            <AltitudeMeters>14</AltitudeMeters>
            <DistanceMeters>NAN</DistanceMeters>
          </Trackpoint>
          <Trackpoint>
            <Time>2021-08-11T09:36:57.000Z</Time>
            <Position>
              <LatitudeDegrees>43.31897755153477191925048828125</LatitudeDegrees>
              <LongitudeDegrees>-1.74225292168557643890380859375</LongitudeDegrees>
            </Position>
            <AltitudeMeters>14</AltitudeMeters>
            <DistanceMeters>NAN</DistanceMeters>
          </Trackpoint>
          <Trackpoint>
            <Time>2021-08-11T09:36:58.000Z</Time>
            <Position>
              <LatitudeDegrees>43.3189954049885272979736328125</LatitudeDegrees>
              <LongitudeDegrees>-1.7422491498291492462158203125</LongitudeDegrees>
            </Position>
            <AltitudeMeters>14</AltitudeMeters>
            <DistanceMeters>NAN</DistanceMeters>
          </Trackpoint>
          <Trackpoint>
            <Time>2021-08-11T09:36:59.000Z</Time>
            <Position>
              <LatitudeDegrees>43.3190114982426166534423828125</LatitudeDegrees>
              <LongitudeDegrees>-1.742245294153690338134765625</LongitudeDegrees>
            </Position>
            <AltitudeMeters>14</AltitudeMeters>
            <DistanceMeters>NAN</DistanceMeters>
          </Trackpoint>
          <Trackpoint>
            <Time>2021-08-11T09:37:00.000Z</Time>
            <Position>
              <LatitudeDegrees>43.319025747478008270263671875</LatitudeDegrees>
              <LongitudeDegrees>-1.742242611944675445556640625</LongitudeDegrees>
            </Position>
            <AltitudeMeters>14.19999980926513671875</AltitudeMeters>
            <DistanceMeters>NAN</DistanceMeters>
          </Trackpoint>
          <Trackpoint>
            <Time>2021-08-11T09:37:01.000Z</Time>
            <Position>
              <LatitudeDegrees>43.319037817418575286865234375</LatitudeDegrees>
              <LongitudeDegrees>-1.74223951064050197601318359375</LongitudeDegrees>
            </Position>
            <AltitudeMeters>14.19999980926513671875</AltitudeMeters>
            <DistanceMeters>NAN</DistanceMeters>
          </Trackpoint>
          <Trackpoint>
            <Time>2021-08-11T09:37:02.000Z</Time>
            <Position>
              <LatitudeDegrees>43.319046534597873687744140625</LatitudeDegrees>
              <LongitudeDegrees>-1.742237918078899383544921875</LongitudeDegrees>
            </Position>
            <AltitudeMeters>14.3999996185302734375</AltitudeMeters>
            <DistanceMeters>NAN</DistanceMeters>
          </Trackpoint>
          <Trackpoint>
            <Time>2021-08-11T09:37:07.000Z</Time>
            <Position>
              <LatitudeDegrees>43.3190513961017131805419921875</LatitudeDegrees>
              <LongitudeDegrees>-1.74223833717405796051025390625</LongitudeDegrees>
            </Position>
            <AltitudeMeters>14.80000019073486328125</AltitudeMeters>
            <DistanceMeters>NAN</DistanceMeters>
          </Trackpoint>
          <Trackpoint>
            <Time>2021-08-11T09:37:10.000Z</Time>
            <Position>
              <LatitudeDegrees>43.31907570362091064453125</LatitudeDegrees>
              <LongitudeDegrees>-1.74224571324884891510009765625</LongitudeDegrees>
            </Position>
            <AltitudeMeters>14.80000019073486328125</AltitudeMeters>
            <DistanceMeters>NAN</DistanceMeters>
          </Trackpoint>
          <Trackpoint>
            <Time>2021-08-11T09:37:12.000Z</Time>
            <Position>
              <LatitudeDegrees>43.31912524066865444183349609375</LatitudeDegrees>
              <LongitudeDegrees>-1.74224873073399066925048828125</LongitudeDegrees>
            </Position>
            <AltitudeMeters>14.80000019073486328125</AltitudeMeters>
            <DistanceMeters>NAN</DistanceMeters>
          </Trackpoint>
          <Trackpoint>
            <Time>2021-08-11T09:37:13.000Z</Time>
            <Position>
              <LatitudeDegrees>43.31915139220654964447021484375</LatitudeDegrees>
              <LongitudeDegrees>-1.74224940128624439239501953125</LongitudeDegrees>
            </Position>
            <AltitudeMeters>15</AltitudeMeters>
            <DistanceMeters>NAN</DistanceMeters>
          </Trackpoint>
          <Trackpoint>
            <Time>2021-08-11T09:37:14.000Z</Time>
            <Position>
              <LatitudeDegrees>43.31917352043092250823974609375</LatitudeDegrees>
              <LongitudeDegrees>-1.742249988019466400146484375</LongitudeDegrees>
            </Position>
            <AltitudeMeters>15</AltitudeMeters>
            <DistanceMeters>NAN</DistanceMeters>
          </Trackpoint>
          <Trackpoint>
            <Time>2021-08-11T09:37:15.000Z</Time>
            <Position>
              <LatitudeDegrees>43.31919849850237369537353515625</LatitudeDegrees>
              <LongitudeDegrees>-1.74224755726754665374755859375</LongitudeDegrees>
            </Position>
            <AltitudeMeters>15</AltitudeMeters>
            <DistanceMeters>NAN</DistanceMeters>
          </Trackpoint>
          <Trackpoint>
            <Time>2021-08-11T09:37:19.000Z</Time>
            <Position>
              <LatitudeDegrees>43.31930008716881275177001953125</LatitudeDegrees>
              <LongitudeDegrees>-1.742242276668548583984375</LongitudeDegrees>
            </Position>
            <AltitudeMeters>15.19999980926513671875</AltitudeMeters>
            <DistanceMeters>NAN</DistanceMeters>
          </Trackpoint>
          <Trackpoint>
            <Time>2021-08-11T09:37:25.000Z</Time>
            <Position>
              <LatitudeDegrees>43.31945833750069141387939453125</LatitudeDegrees>
              <LongitudeDegrees>-1.7422417737543582916259765625</LongitudeDegrees>
            </Position>
            <AltitudeMeters>16</AltitudeMeters>
            <DistanceMeters>NAN</DistanceMeters>
          </Trackpoint>
          <Trackpoint>
            <Time>2021-08-11T09:37:27.000Z</Time>
            <Position>
              <LatitudeDegrees>43.319515250623226165771484375</LatitudeDegrees>
              <LongitudeDegrees>-1.74223649315536022186279296875</LongitudeDegrees>
            </Position>
            <AltitudeMeters>16.200000762939453125</AltitudeMeters>
            <DistanceMeters>NAN</DistanceMeters>
          </Trackpoint>
          <Trackpoint>
            <Time>2021-08-11T09:37:36.000Z</Time>
            <Position>
              <LatitudeDegrees>43.3197846449911594390869140625</LatitudeDegrees>
              <LongitudeDegrees>-1.74221570603549480438232421875</LongitudeDegrees>
            </Position>
            <AltitudeMeters>17</AltitudeMeters>
            <DistanceMeters>NAN</DistanceMeters>
          </Trackpoint>
          <Trackpoint>
            <Time>2021-08-11T09:37:46.000Z</Time>
            <Position>
              <LatitudeDegrees>43.3201249502599239349365234375</LatitudeDegrees>
              <LongitudeDegrees>-1.742158792912960052490234375</LongitudeDegrees>
            </Position>
            <AltitudeMeters>17.3999996185302734375</AltitudeMeters>
            <DistanceMeters>NAN</DistanceMeters>
          </Trackpoint>
          <Trackpoint>
            <Time>2021-08-11T09:37:50.000Z</Time>
            <Position>
              <LatitudeDegrees>43.3202483318746089935302734375</LatitudeDegrees>
              <LongitudeDegrees>-1.742138005793094635009765625</LongitudeDegrees>
            </Position>
            <AltitudeMeters>17.3999996185302734375</AltitudeMeters>
            <DistanceMeters>NAN</DistanceMeters>
          </Trackpoint>
          <Trackpoint>
            <Time>2021-08-11T09:37:52.000Z</Time>
            <Position>
              <LatitudeDegrees>43.32030273042619228363037109375</LatitudeDegrees>
              <LongitudeDegrees>-1.74212702549993991851806640625</LongitudeDegrees>
            </Position>
            <AltitudeMeters>17.3999996185302734375</AltitudeMeters>
            <DistanceMeters>NAN</DistanceMeters>
          </Trackpoint>
          <Trackpoint>
            <Time>2021-08-11T09:37:53.000Z</Time>
            <Position>
              <LatitudeDegrees>43.3203314803540706634521484375</LatitudeDegrees>
              <LongitudeDegrees>-1.742123924195766448974609375</LongitudeDegrees>
            </Position>
            <AltitudeMeters>17.3999996185302734375</AltitudeMeters>
            <DistanceMeters>NAN</DistanceMeters>
          </Trackpoint>
          <Trackpoint>
            <Time>2021-08-11T09:37:54.000Z</Time>
            <Position>
              <LatitudeDegrees>43.32035939209163188934326171875</LatitudeDegrees>
              <LongitudeDegrees>-1.74211847595870494842529296875</LongitudeDegrees>
            </Position>
            <AltitudeMeters>17.3999996185302734375</AltitudeMeters>
            <DistanceMeters>NAN</DistanceMeters>
          </Trackpoint>
          <Trackpoint>
            <Time>2021-08-11T09:37:55.000Z</Time>
            <Position>
              <LatitudeDegrees>43.3203847892582416534423828125</LatitudeDegrees>
              <LongitudeDegrees>-1.74211462028324604034423828125</LongitudeDegrees>
            </Position>
            <AltitudeMeters>17.3999996185302734375</AltitudeMeters>
            <DistanceMeters>NAN</DistanceMeters>
          </Trackpoint>
          <Trackpoint>
            <Time>2021-08-11T09:37:56.000Z</Time>
            <Position>
              <LatitudeDegrees>43.320424854755401611328125</LatitudeDegrees>
              <LongitudeDegrees>-1.7421079985797405242919921875</LongitudeDegrees>
            </Position>
            <AltitudeMeters>17.3999996185302734375</AltitudeMeters>
            <DistanceMeters>NAN</DistanceMeters>
          </Trackpoint>
          <Trackpoint>
            <Time>2021-08-11T09:38:02.000Z</Time>
            <Position>
              <LatitudeDegrees>43.3206660859286785125732421875</LatitudeDegrees>
              <LongitudeDegrees>-1.74207606352865695953369140625</LongitudeDegrees>
            </Position>
            <AltitudeMeters>17.200000762939453125</AltitudeMeters>
            <DistanceMeters>NAN</DistanceMeters>
          </Trackpoint>
          <Trackpoint>
            <Time>2021-08-11T09:38:06.000Z</Time>
            <Position>
              <LatitudeDegrees>43.32078033126890659332275390625</LatitudeDegrees>
              <LongitudeDegrees>-1.74206214956939220428466796875</LongitudeDegrees>
            </Position>
            <AltitudeMeters>17.200000762939453125</AltitudeMeters>
            <DistanceMeters>NAN</DistanceMeters>
          </Trackpoint>
          <Trackpoint>
            <Time>2021-08-11T09:38:07.000Z</Time>
            <Position>
              <LatitudeDegrees>43.32085526548326015472412109375</LatitudeDegrees>
              <LongitudeDegrees>-1.74205921590328216552734375</LongitudeDegrees>
            </Position>
            <AltitudeMeters>17.200000762939453125</AltitudeMeters>
            <DistanceMeters>NAN</DistanceMeters>
          </Trackpoint>
          <Trackpoint>
            <Time>2021-08-11T09:38:08.000Z</Time>
            <Position>
              <LatitudeDegrees>43.32089181058108806610107421875</LatitudeDegrees>
              <LongitudeDegrees>-1.7420553602278232574462890625</LongitudeDegrees>
            </Position>
            <AltitudeMeters>17.200000762939453125</AltitudeMeters>
            <DistanceMeters>NAN</DistanceMeters>
          </Trackpoint>
          <Trackpoint>
            <Time>2021-08-11T09:38:09.000Z</Time>
            <Position>
              <LatitudeDegrees>43.32093690522015094757080078125</LatitudeDegrees>
              <LongitudeDegrees>-1.742052845656871795654296875</LongitudeDegrees>
            </Position>
            <AltitudeMeters>17.200000762939453125</AltitudeMeters>
            <DistanceMeters>NAN</DistanceMeters>
          </Trackpoint>
          <Trackpoint>
            <Time>2021-08-11T09:38:10.000Z</Time>
            <Position>
              <LatitudeDegrees>43.32096733152866363525390625</LatitudeDegrees>
              <LongitudeDegrees>-1.74204974435269832611083984375</LongitudeDegrees>
            </Position>
            <AltitudeMeters>17.200000762939453125</AltitudeMeters>
            <DistanceMeters>NAN</DistanceMeters>
          </Trackpoint>
          <Trackpoint>
            <Time>2021-08-11T09:38:11.000Z</Time>
            <Position>
              <LatitudeDegrees>43.32099809311330318450927734375</LatitudeDegrees>
              <LongitudeDegrees>-1.74204538576304912567138671875</LongitudeDegrees>
            </Position>
            <AltitudeMeters>17.200000762939453125</AltitudeMeters>
            <DistanceMeters>NAN</DistanceMeters>
          </Trackpoint>
          <Trackpoint>
            <Time>2021-08-11T09:38:12.000Z</Time>
            <Position>
              <LatitudeDegrees>43.3210332132875919342041015625</LatitudeDegrees>
              <LongitudeDegrees>-1.742041446268558502197265625</LongitudeDegrees>
            </Position>
            <AltitudeMeters>17.200000762939453125</AltitudeMeters>
            <DistanceMeters>NAN</DistanceMeters>
          </Trackpoint>
          <Trackpoint>
            <Time>2021-08-11T09:38:13.000Z</Time>
            <Position>
              <LatitudeDegrees>43.32106766290962696075439453125</LatitudeDegrees>
              <LongitudeDegrees>-1.74203775823116302490234375</LongitudeDegrees>
            </Position>
            <AltitudeMeters>17</AltitudeMeters>
            <DistanceMeters>NAN</DistanceMeters>
          </Trackpoint>
          <Trackpoint>
            <Time>2021-08-11T09:38:14.000Z</Time>
            <Position>
              <LatitudeDegrees>43.3211032859981060028076171875</LatitudeDegrees>
              <LongitudeDegrees>-1.7420349083840847015380859375</LongitudeDegrees>
            </Position>
            <AltitudeMeters>17</AltitudeMeters>
            <DistanceMeters>NAN</DistanceMeters>
          </Trackpoint>
          <Trackpoint>
            <Time>2021-08-11T09:38:15.000Z</Time>
            <Position>
              <LatitudeDegrees>43.32113740034401416778564453125</LatitudeDegrees>
              <LongitudeDegrees>-1.74202811904251575469970703125</LongitudeDegrees>
            </Position>
            <AltitudeMeters>17</AltitudeMeters>
            <DistanceMeters>NAN</DistanceMeters>
          </Trackpoint>
          <Trackpoint>
            <Time>2021-08-11T09:38:16.000Z</Time>
            <Position>
              <LatitudeDegrees>43.3211713470518589019775390625</LatitudeDegrees>
              <LongitudeDegrees>-1.742022670805454254150390625</LongitudeDegrees>
            </Position>
            <AltitudeMeters>17</AltitudeMeters>
            <DistanceMeters>NAN</DistanceMeters>
          </Trackpoint>
          <Trackpoint>
            <Time>2021-08-11T09:38:17.000Z</Time>
            <Position>
              <LatitudeDegrees>43.321206383407115936279296875</LatitudeDegrees>
              <LongitudeDegrees>-1.74201755784451961517333984375</LongitudeDegrees>
            </Position>
            <AltitudeMeters>16.799999237060546875</AltitudeMeters>
            <DistanceMeters>NAN</DistanceMeters>
          </Trackpoint>
          <Trackpoint>
            <Time>2021-08-11T09:38:18.000Z</Time>
            <Position>
              <LatitudeDegrees>43.32123915664851665496826171875</LatitudeDegrees>
              <LongitudeDegrees>-1.74200917594134807586669921875</LongitudeDegrees>
            </Position>
            <AltitudeMeters>16.799999237060546875</AltitudeMeters>
            <DistanceMeters>NAN</DistanceMeters>
          </Trackpoint>
          <Trackpoint>
            <Time>2021-08-11T09:38:19.000Z</Time>
            <Position>
              <LatitudeDegrees>43.32127352245151996612548828125</LatitudeDegrees>
              <LongitudeDegrees>-1.74200012348592281341552734375</LongitudeDegrees>
            </Position>
            <AltitudeMeters>16.799999237060546875</AltitudeMeters>
            <DistanceMeters>NAN</DistanceMeters>
          </Trackpoint>
          <Trackpoint>
            <Time>2021-08-11T09:38:20.000Z</Time>
            <Position>
              <LatitudeDegrees>43.3212994225323200225830078125</LatitudeDegrees>
              <LongitudeDegrees>-1.741994507610797882080078125</LongitudeDegrees>
            </Position>
            <AltitudeMeters>16.799999237060546875</AltitudeMeters>
            <DistanceMeters>NAN</DistanceMeters>
          </Trackpoint>
          <Trackpoint>
            <Time>2021-08-11T09:38:21.000Z</Time>
            <Position>
              <LatitudeDegrees>43.3213312737643718719482421875</LatitudeDegrees>
              <LongitudeDegrees>-1.7419829405844211578369140625</LongitudeDegrees>
            </Position>
            <AltitudeMeters>16.6000003814697265625</AltitudeMeters>
            <DistanceMeters>NAN</DistanceMeters>
          </Trackpoint>
          <Trackpoint>
            <Time>2021-08-11T09:38:22.000Z</Time>
            <Position>
              <LatitudeDegrees>43.32136572338640689849853515625</LatitudeDegrees>
              <LongitudeDegrees>-1.7419691942632198333740234375</LongitudeDegrees>
            </Position>
            <AltitudeMeters>16.6000003814697265625</AltitudeMeters>
            <DistanceMeters>NAN</DistanceMeters>
          </Trackpoint>
          <Trackpoint>
            <Time>2021-08-11T09:38:24.000Z</Time>
            <Position>
              <LatitudeDegrees>43.32143269479274749755859375</LatitudeDegrees>
              <LongitudeDegrees>-1.7419417016208171844482421875</LongitudeDegrees>
            </Position>
            <AltitudeMeters>16.6000003814697265625</AltitudeMeters>
            <DistanceMeters>NAN</DistanceMeters>
          </Trackpoint>
          <Trackpoint>
            <Time>2021-08-11T09:38:30.000Z</Time>
            <Position>
              <LatitudeDegrees>43.32162338308990001678466796875</LatitudeDegrees>
              <LongitudeDegrees>-1.74184463918209075927734375</LongitudeDegrees>
            </Position>
            <AltitudeMeters>16.6000003814697265625</AltitudeMeters>
            <DistanceMeters>NAN</DistanceMeters>
          </Trackpoint>
          <Trackpoint>
            <Time>2021-08-11T09:38:32.000Z</Time>
            <Position>
              <LatitudeDegrees>43.3216816373169422149658203125</LatitudeDegrees>
              <LongitudeDegrees>-1.74181086011230945587158203125</LongitudeDegrees>
            </Position>
            <AltitudeMeters>16.6000003814697265625</AltitudeMeters>
            <DistanceMeters>NAN</DistanceMeters>
          </Trackpoint>
          <Trackpoint>
            <Time>2021-08-11T09:38:33.000Z</Time>
            <Position>
              <LatitudeDegrees>43.32170669920742511749267578125</LatitudeDegrees>
              <LongitudeDegrees>-1.7417992092669010162353515625</LongitudeDegrees>
            </Position>
            <AltitudeMeters>16.6000003814697265625</AltitudeMeters>
            <DistanceMeters>NAN</DistanceMeters>
          </Trackpoint>
          <Trackpoint>
            <Time>2021-08-11T09:38:34.000Z</Time>
            <Position>
              <LatitudeDegrees>43.32174274139106273651123046875</LatitudeDegrees>
              <LongitudeDegrees>-1.74177850596606731414794921875</LongitudeDegrees>
            </Position>
            <AltitudeMeters>16.799999237060546875</AltitudeMeters>
            <DistanceMeters>NAN</DistanceMeters>
          </Trackpoint>
          <Trackpoint>
            <Time>2021-08-11T09:38:35.000Z</Time>
            <Position>
              <LatitudeDegrees>43.32174274139106273651123046875</LatitudeDegrees>
              <LongitudeDegrees>-1.74177850596606731414794921875</LongitudeDegrees>
            </Position>
            <AltitudeMeters>16.799999237060546875</AltitudeMeters>
            <DistanceMeters>NAN</DistanceMeters>
          </Trackpoint>
          <Trackpoint>
            <Time>2021-08-11T09:38:36.000Z</Time>
            <Position>
              <LatitudeDegrees>43.3217996545135974884033203125</LatitudeDegrees>
              <LongitudeDegrees>-1.74174531362950801849365234375</LongitudeDegrees>
            </Position>
            <AltitudeMeters>16.799999237060546875</AltitudeMeters>
            <DistanceMeters>NAN</DistanceMeters>
          </Trackpoint>
          <Trackpoint>
            <Time>2021-08-11T09:38:37.000Z</Time>
            <Position>
              <LatitudeDegrees>43.3218368701636791229248046875</LatitudeDegrees>
              <LongitudeDegrees>-1.741726957261562347412109375</LongitudeDegrees>
            </Position>
            <AltitudeMeters>17</AltitudeMeters>
            <DistanceMeters>NAN</DistanceMeters>
          </Trackpoint>
          <Trackpoint>
            <Time>2021-08-11T09:38:38.000Z</Time>
            <Position>
              <LatitudeDegrees>43.32185891456902027130126953125</LatitudeDegrees>
              <LongitudeDegrees>-1.74171379767358303070068359375</LongitudeDegrees>
            </Position>
            <AltitudeMeters>17</AltitudeMeters>
            <DistanceMeters>NAN</DistanceMeters>
          </Trackpoint>
          <Trackpoint>
            <Time>2021-08-11T09:38:39.000Z</Time>
            <Position>
              <LatitudeDegrees>43.3218911848962306976318359375</LatitudeDegrees>
              <LongitudeDegrees>-1.7416925914585590362548828125</LongitudeDegrees>
            </Position>
            <AltitudeMeters>17.200000762939453125</AltitudeMeters>
            <DistanceMeters>NAN</DistanceMeters>
          </Trackpoint>
          <Trackpoint>
            <Time>2021-08-11T09:38:40.000Z</Time>
            <Position>
              <LatitudeDegrees>43.3218911848962306976318359375</LatitudeDegrees>
              <LongitudeDegrees>-1.7416925914585590362548828125</LongitudeDegrees>
            </Position>
            <AltitudeMeters>17.3999996185302734375</AltitudeMeters>
            <DistanceMeters>NAN</DistanceMeters>
          </Trackpoint>
          <Trackpoint>
            <Time>2021-08-11T09:38:47.000Z</Time>
            <Position>
              <LatitudeDegrees>43.322097547352313995361328125</LatitudeDegrees>
              <LongitudeDegrees>-1.74157046712934970855712890625</LongitudeDegrees>
            </Position>
            <AltitudeMeters>18.200000762939453125</AltitudeMeters>
            <DistanceMeters>NAN</DistanceMeters>
          </Trackpoint>
          <Trackpoint>
            <Time>2021-08-11T09:38:48.000Z</Time>
            <Position>
              <LatitudeDegrees>43.322120010852813720703125</LatitudeDegrees>
              <LongitudeDegrees>-1.7415571399033069610595703125</LongitudeDegrees>
            </Position>
            <AltitudeMeters>18.200000762939453125</AltitudeMeters>
            <DistanceMeters>NAN</DistanceMeters>
          </Trackpoint>
          <Trackpoint>
            <Time>2021-08-11T09:38:51.000Z</Time>
            <Position>
              <LatitudeDegrees>43.3222090266644954681396484375</LatitudeDegrees>
              <LongitudeDegrees>-1.74150936305522918701171875</LongitudeDegrees>
            </Position>
            <AltitudeMeters>18.6000003814697265625</AltitudeMeters>
            <DistanceMeters>NAN</DistanceMeters>
          </Trackpoint>
          <Trackpoint>
            <Time>2021-08-11T09:38:52.000Z</Time>
            <Position>
              <LatitudeDegrees>43.32223794423043727874755859375</LatitudeDegrees>
              <LongitudeDegrees>-1.7414904199540615081787109375</LongitudeDegrees>
            </Position>
            <AltitudeMeters>18.799999237060546875</AltitudeMeters>
            <DistanceMeters>NAN</DistanceMeters>
          </Trackpoint>
          <Trackpoint>
            <Time>2021-08-11T09:38:53.000Z</Time>
            <Position>
              <LatitudeDegrees>43.32226493395864963531494140625</LatitudeDegrees>
              <LongitudeDegrees>-1.7414703033864498138427734375</LongitudeDegrees>
            </Position>
            <AltitudeMeters>18.799999237060546875</AltitudeMeters>
            <DistanceMeters>NAN</DistanceMeters>
          </Trackpoint>
          <Trackpoint>
            <Time>2021-08-11T09:38:54.000Z</Time>
            <Position>
              <LatitudeDegrees>43.322289995849132537841796875</LatitudeDegrees>
              <LongitudeDegrees>-1.74144926480948925018310546875</LongitudeDegrees>
            </Position>
            <AltitudeMeters>18.799999237060546875</AltitudeMeters>
            <DistanceMeters>NAN</DistanceMeters>
          </Trackpoint>
          <Trackpoint>
            <Time>2021-08-11T09:38:55.000Z</Time>
            <Position>
              <LatitudeDegrees>43.3223471604287624359130859375</LatitudeDegrees>
              <LongitudeDegrees>-1.7414066009223461151123046875</LongitudeDegrees>
            </Position>
            <AltitudeMeters>18.799999237060546875</AltitudeMeters>
            <DistanceMeters>NAN</DistanceMeters>
          </Trackpoint>
          <Trackpoint>
            <Time>2021-08-11T09:39:00.000Z</Time>
            <Position>
              <LatitudeDegrees>43.3225023932754993438720703125</LatitudeDegrees>
              <LongitudeDegrees>-1.741304509341716766357421875</LongitudeDegrees>
            </Position>
            <AltitudeMeters>19</AltitudeMeters>
            <DistanceMeters>NAN</DistanceMeters>
          </Trackpoint>
          <Trackpoint>
            <Time>2021-08-11T09:39:10.000Z</Time>
            <Position>
              <LatitudeDegrees>43.3228537626564502716064453125</LatitudeDegrees>
              <LongitudeDegrees>-1.7410857416689395904541015625</LongitudeDegrees>
            </Position>
            <AltitudeMeters>19</AltitudeMeters>
            <DistanceMeters>NAN</DistanceMeters>
          </Trackpoint>
          <Trackpoint>
            <Time>2021-08-11T09:39:18.000Z</Time>
            <Position>
              <LatitudeDegrees>43.32315039820969104766845703125</LatitudeDegrees>
              <LongitudeDegrees>-1.740892119705677032470703125</LongitudeDegrees>
            </Position>
            <AltitudeMeters>18.799999237060546875</AltitudeMeters>
            <DistanceMeters>NAN</DistanceMeters>
          </Trackpoint>
          <Trackpoint>
            <Time>2021-08-11T09:39:19.000Z</Time>
            <Position>
              <LatitudeDegrees>43.3231752924621105194091796875</LatitudeDegrees>
              <LongitudeDegrees>-1.740875355899333953857421875</LongitudeDegrees>
            </Position>
            <AltitudeMeters>18.799999237060546875</AltitudeMeters>
            <DistanceMeters>NAN</DistanceMeters>
          </Trackpoint>
          <Trackpoint>
            <Time>2021-08-11T09:39:20.000Z</Time>
            <Position>
              <LatitudeDegrees>43.32321560941636562347412109375</LatitudeDegrees>
              <LongitudeDegrees>-1.7408527247607707977294921875</LongitudeDegrees>
            </Position>
            <AltitudeMeters>18.799999237060546875</AltitudeMeters>
            <DistanceMeters>NAN</DistanceMeters>
          </Trackpoint>
          <Trackpoint>
            <Time>2021-08-11T09:39:27.000Z</Time>
            <Position>
              <LatitudeDegrees>43.32347142510116100311279296875</LatitudeDegrees>
              <LongitudeDegrees>-1.74068852327764034271240234375</LongitudeDegrees>
            </Position>
            <AltitudeMeters>19</AltitudeMeters>
            <DistanceMeters>NAN</DistanceMeters>
          </Trackpoint>
          <Trackpoint>
            <Time>2021-08-11T09:39:37.000Z</Time>
            <Position>
              <LatitudeDegrees>43.3238438330590724945068359375</LatitudeDegrees>
              <LongitudeDegrees>-1.74044586718082427978515625</LongitudeDegrees>
            </Position>
            <AltitudeMeters>18.6000003814697265625</AltitudeMeters>
            <DistanceMeters>NAN</DistanceMeters>
          </Trackpoint>
          <Trackpoint>
            <Time>2021-08-11T09:39:43.000Z</Time>
            <Position>
              <LatitudeDegrees>43.324074335396289825439453125</LatitudeDegrees>
              <LongitudeDegrees>-1.7402708530426025390625</LongitudeDegrees>
            </Position>
            <AltitudeMeters>18.3999996185302734375</AltitudeMeters>
            <DistanceMeters>NAN</DistanceMeters>
          </Trackpoint>
          <Trackpoint>
            <Time>2021-08-11T09:39:46.000Z</Time>
            <Position>
              <LatitudeDegrees>43.3241717331111431121826171875</LatitudeDegrees>
              <LongitudeDegrees>-1.7401784844696521759033203125</LongitudeDegrees>
            </Position>
            <AltitudeMeters>18</AltitudeMeters>
            <DistanceMeters>NAN</DistanceMeters>
          </Trackpoint>
          <Trackpoint>
            <Time>2021-08-11T09:39:47.000Z</Time>
            <Position>
              <LatitudeDegrees>43.32420408725738525390625</LatitudeDegrees>
              <LongitudeDegrees>-1.740149818360805511474609375</LongitudeDegrees>
            </Position>
            <AltitudeMeters>18</AltitudeMeters>
            <DistanceMeters>NAN</DistanceMeters>
          </Trackpoint>
          <Trackpoint>
            <Time>2021-08-11T09:39:48.000Z</Time>
            <Position>
              <LatitudeDegrees>43.32423702813684940338134765625</LatitudeDegrees>
              <LongitudeDegrees>-1.7401181347668170928955078125</LongitudeDegrees>
            </Position>
            <AltitudeMeters>17.799999237060546875</AltitudeMeters>
            <DistanceMeters>NAN</DistanceMeters>
          </Trackpoint>
          <Trackpoint>
            <Time>2021-08-11T09:39:56.000Z</Time>
            <Position>
              <LatitudeDegrees>43.32450457848608493804931640625</LatitudeDegrees>
              <LongitudeDegrees>-1.739899702370166778564453125</LongitudeDegrees>
            </Position>
            <AltitudeMeters>17.6000003814697265625</AltitudeMeters>
            <DistanceMeters>NAN</DistanceMeters>
          </Trackpoint>
          <Trackpoint>
            <Time>2021-08-11T09:40:00.000Z</Time>
            <Position>
              <LatitudeDegrees>43.32464556209743022918701171875</LatitudeDegrees>
              <LongitudeDegrees>-1.7397733032703399658203125</LongitudeDegrees>
            </Position>
            <AltitudeMeters>17.3999996185302734375</AltitudeMeters>
            <DistanceMeters>NAN</DistanceMeters>
          </Trackpoint>
          <Trackpoint>
            <Time>2021-08-11T09:40:02.000Z</Time>
            <Position>
              <LatitudeDegrees>43.324715383350849151611328125</LatitudeDegrees>
              <LongitudeDegrees>-1.73971303738653659820556640625</LongitudeDegrees>
            </Position>
            <AltitudeMeters>17.3999996185302734375</AltitudeMeters>
            <DistanceMeters>NAN</DistanceMeters>
          </Trackpoint>
          <Trackpoint>
            <Time>2021-08-11T09:40:03.000Z</Time>
            <Position>
              <LatitudeDegrees>43.32475067116320133209228515625</LatitudeDegrees>
              <LongitudeDegrees>-1.7396812699735164642333984375</LongitudeDegrees>
            </Position>
            <AltitudeMeters>17.3999996185302734375</AltitudeMeters>
            <DistanceMeters>NAN</DistanceMeters>
          </Trackpoint>
          <Trackpoint>
            <Time>2021-08-11T09:40:04.000Z</Time>
            <Position>
              <LatitudeDegrees>43.3247873000800609588623046875</LatitudeDegrees>
              <LongitudeDegrees>-1.73965184949338436126708984375</LongitudeDegrees>
            </Position>
            <AltitudeMeters>17.200000762939453125</AltitudeMeters>
            <DistanceMeters>NAN</DistanceMeters>
          </Trackpoint>
          <Trackpoint>
            <Time>2021-08-11T09:40:05.000Z</Time>
            <Position>
              <LatitudeDegrees>43.3248223364353179931640625</LatitudeDegrees>
              <LongitudeDegrees>-1.73962167464196681976318359375</LongitudeDegrees>
            </Position>
            <AltitudeMeters>17.200000762939453125</AltitudeMeters>
            <DistanceMeters>NAN</DistanceMeters>
          </Trackpoint>
          <Trackpoint>
            <Time>2021-08-11T09:40:08.000Z</Time>
            <Position>
              <LatitudeDegrees>43.32493054680526256561279296875</LatitudeDegrees>
              <LongitudeDegrees>-1.73953257501125335693359375</LongitudeDegrees>
            </Position>
            <AltitudeMeters>17</AltitudeMeters>
            <DistanceMeters>NAN</DistanceMeters>
          </Trackpoint>
          <Trackpoint>
            <Time>2021-08-11T09:40:12.000Z</Time>
            <Position>
              <LatitudeDegrees>43.32508544437587261199951171875</LatitudeDegrees>
              <LongitudeDegrees>-1.7394093610346317291259765625</LongitudeDegrees>
            </Position>
            <AltitudeMeters>16.6000003814697265625</AltitudeMeters>
            <DistanceMeters>NAN</DistanceMeters>
          </Trackpoint>
          <Trackpoint>
            <Time>2021-08-11T09:40:14.000Z</Time>
            <Position>
              <LatitudeDegrees>43.32517026923596858978271484375</LatitudeDegrees>
              <LongitudeDegrees>-1.73937499523162841796875</LongitudeDegrees>
            </Position>
            <AltitudeMeters>16.6000003814697265625</AltitudeMeters>
            <DistanceMeters>NAN</DistanceMeters>
          </Trackpoint>
          <Trackpoint>
            <Time>2021-08-11T09:40:18.000Z</Time>
            <Position>
              <LatitudeDegrees>43.32532550208270549774169921875</LatitudeDegrees>
              <LongitudeDegrees>-1.73929478041827678680419921875</LongitudeDegrees>
            </Position>
            <AltitudeMeters>16.3999996185302734375</AltitudeMeters>
            <DistanceMeters>NAN</DistanceMeters>
          </Trackpoint>
          <Trackpoint>
            <Time>2021-08-11T09:40:19.000Z</Time>
            <Position>
              <LatitudeDegrees>43.3253649808466434478759765625</LatitudeDegrees>
              <LongitudeDegrees>-1.73927717842161655426025390625</LongitudeDegrees>
            </Position>
            <AltitudeMeters>16.3999996185302734375</AltitudeMeters>
            <DistanceMeters>NAN</DistanceMeters>
          </Trackpoint>
          <Trackpoint>
            <Time>2021-08-11T09:40:20.000Z</Time>
            <Position>
              <LatitudeDegrees>43.32540613599121570587158203125</LatitudeDegrees>
              <LongitudeDegrees>-1.73926301300525665283203125</LongitudeDegrees>
            </Position>
            <AltitudeMeters>16.3999996185302734375</AltitudeMeters>
            <DistanceMeters>NAN</DistanceMeters>
          </Trackpoint>
          <Trackpoint>
            <Time>2021-08-11T09:40:21.000Z</Time>
            <Position>
              <LatitudeDegrees>43.325446285307407379150390625</LatitudeDegrees>
              <LongitudeDegrees>-1.73925102688372135162353515625</LongitudeDegrees>
            </Position>
            <AltitudeMeters>16.200000762939453125</AltitudeMeters>
            <DistanceMeters>NAN</DistanceMeters>
          </Trackpoint>
          <Trackpoint>
            <Time>2021-08-11T09:40:22.000Z</Time>
            <Position>
              <LatitudeDegrees>43.32548492588102817535400390625</LatitudeDegrees>
              <LongitudeDegrees>-1.73923862166702747344970703125</LongitudeDegrees>
            </Position>
            <AltitudeMeters>16.200000762939453125</AltitudeMeters>
            <DistanceMeters>NAN</DistanceMeters>
          </Trackpoint>
          <Trackpoint>
            <Time>2021-08-11T09:40:23.000Z</Time>
            <Position>
              <LatitudeDegrees>43.32552214153110980987548828125</LatitudeDegrees>
              <LongitudeDegrees>-1.73922521062195301055908203125</LongitudeDegrees>
            </Position>
            <AltitudeMeters>16</AltitudeMeters>
            <DistanceMeters>NAN</DistanceMeters>
          </Trackpoint>
          <Trackpoint>
            <Time>2021-08-11T09:40:25.000Z</Time>
            <Position>
              <LatitudeDegrees>43.32559573464095592498779296875</LatitudeDegrees>
              <LongitudeDegrees>-1.7392001487314701080322265625</LongitudeDegrees>
            </Position>
            <AltitudeMeters>16</AltitudeMeters>
            <DistanceMeters>NAN</DistanceMeters>
          </Trackpoint>
          <Trackpoint>
            <Time>2021-08-11T09:40:26.000Z</Time>
            <Position>
              <LatitudeDegrees>43.3256358839571475982666015625</LatitudeDegrees>
              <LongitudeDegrees>-1.73919034190475940704345703125</LongitudeDegrees>
            </Position>
            <AltitudeMeters>16</AltitudeMeters>
            <DistanceMeters>NAN</DistanceMeters>
          </Trackpoint>
          <Trackpoint>
            <Time>2021-08-11T09:40:27.000Z</Time>
            <Position>
              <LatitudeDegrees>43.325676620006561279296875</LatitudeDegrees>
              <LongitudeDegrees>-1.7391783557832241058349609375</LongitudeDegrees>
            </Position>
            <AltitudeMeters>16</AltitudeMeters>
            <DistanceMeters>NAN</DistanceMeters>
          </Trackpoint>
          <Trackpoint>
            <Time>2021-08-11T09:40:28.000Z</Time>
            <Position>
              <LatitudeDegrees>43.32571459002792835235595703125</LatitudeDegrees>
              <LongitudeDegrees>-1.739166788756847381591796875</LongitudeDegrees>
            </Position>
            <AltitudeMeters>15.80000019073486328125</AltitudeMeters>
            <DistanceMeters>NAN</DistanceMeters>
          </Trackpoint>
          <Trackpoint>
            <Time>2021-08-11T09:40:29.000Z</Time>
            <Position>
              <LatitudeDegrees>43.3257530629634857177734375</LatitudeDegrees>
              <LongitudeDegrees>-1.739156059920787811279296875</LongitudeDegrees>
            </Position>
            <AltitudeMeters>15.80000019073486328125</AltitudeMeters>
            <DistanceMeters>NAN</DistanceMeters>
          </Trackpoint>
          <Trackpoint>
            <Time>2021-08-11T09:40:30.000Z</Time>
            <Position>
              <LatitudeDegrees>43.3258273266255855560302734375</LatitudeDegrees>
              <LongitudeDegrees>-1.7391361109912395477294921875</LongitudeDegrees>
            </Position>
            <AltitudeMeters>15.80000019073486328125</AltitudeMeters>
            <DistanceMeters>NAN</DistanceMeters>
          </Trackpoint>
          <Trackpoint>
            <Time>2021-08-11T09:40:31.000Z</Time>
            <Position>
              <LatitudeDegrees>43.3258273266255855560302734375</LatitudeDegrees>
              <LongitudeDegrees>-1.7391361109912395477294921875</LongitudeDegrees>
            </Position>
            <AltitudeMeters>15.80000019073486328125</AltitudeMeters>
            <DistanceMeters>NAN</DistanceMeters>
          </Trackpoint>
          <Trackpoint>
            <Time>2021-08-11T09:40:32.000Z</Time>
            <Position>
              <LatitudeDegrees>43.32587175071239471435546875</LatitudeDegrees>
              <LongitudeDegrees>-1.7391294054687023162841796875</LongitudeDegrees>
            </Position>
            <AltitudeMeters>15.6000003814697265625</AltitudeMeters>
            <DistanceMeters>NAN</DistanceMeters>
          </Trackpoint>
          <Trackpoint>
            <Time>2021-08-11T09:40:33.000Z</Time>
            <Position>
              <LatitudeDegrees>43.32590117119252681732177734375</LatitudeDegrees>
              <LongitudeDegrees>-1.73912647180259227752685546875</LongitudeDegrees>
            </Position>
            <AltitudeMeters>15.6000003814697265625</AltitudeMeters>
            <DistanceMeters>NAN</DistanceMeters>
          </Trackpoint>
          <Trackpoint>
            <Time>2021-08-11T09:40:34.000Z</Time>
            <Position>
              <LatitudeDegrees>43.32597174681723117828369140625</LatitudeDegrees>
              <LongitudeDegrees>-1.73911406658589839935302734375</LongitudeDegrees>
            </Position>
            <AltitudeMeters>15.6000003814697265625</AltitudeMeters>
            <DistanceMeters>NAN</DistanceMeters>
          </Trackpoint>
          <Trackpoint>
            <Time>2021-08-11T09:40:40.000Z</Time>
            <Position>
              <LatitudeDegrees>43.32618146203458309173583984375</LatitudeDegrees>
              <LongitudeDegrees>-1.73906721174716949462890625</LongitudeDegrees>
            </Position>
            <AltitudeMeters>15.3999996185302734375</AltitudeMeters>
            <DistanceMeters>NAN</DistanceMeters>
          </Trackpoint>
          <Trackpoint>
            <Time>2021-08-11T09:40:49.000Z</Time>
            <Position>
              <LatitudeDegrees>43.326568789780139923095703125</LatitudeDegrees>
              <LongitudeDegrees>-1.7389825545251369476318359375</LongitudeDegrees>
            </Position>
            <AltitudeMeters>15.3999996185302734375</AltitudeMeters>
            <DistanceMeters>NAN</DistanceMeters>
          </Trackpoint>
          <Trackpoint>
            <Time>2021-08-11T09:40:50.000Z</Time>
            <Position>
              <LatitudeDegrees>43.3266122080385684967041015625</LatitudeDegrees>
              <LongitudeDegrees>-1.73897492699325084686279296875</LongitudeDegrees>
            </Position>
            <AltitudeMeters>15.3999996185302734375</AltitudeMeters>
            <DistanceMeters>NAN</DistanceMeters>
          </Trackpoint>
          <Trackpoint>
            <Time>2021-08-11T09:40:51.000Z</Time>
            <Position>
              <LatitudeDegrees>43.326655961573123931884765625</LatitudeDegrees>
              <LongitudeDegrees>-1.73896838910877704620361328125</LongitudeDegrees>
            </Position>
            <AltitudeMeters>15.3999996185302734375</AltitudeMeters>
            <DistanceMeters>NAN</DistanceMeters>
          </Trackpoint>
          <Trackpoint>
            <Time>2021-08-11T09:40:52.000Z</Time>
            <Position>
              <LatitudeDegrees>43.326698206365108489990234375</LatitudeDegrees>
              <LongitudeDegrees>-1.7389619350433349609375</LongitudeDegrees>
            </Position>
            <AltitudeMeters>15.3999996185302734375</AltitudeMeters>
            <DistanceMeters>NAN</DistanceMeters>
          </Trackpoint>
          <Trackpoint>
            <Time>2021-08-11T09:40:59.000Z</Time>
            <Position>
              <LatitudeDegrees>43.3270081691443920135498046875</LatitudeDegrees>
              <LongitudeDegrees>-1.7389178462326526641845703125</LongitudeDegrees>
            </Position>
            <AltitudeMeters>15.19999980926513671875</AltitudeMeters>
            <DistanceMeters>NAN</DistanceMeters>
          </Trackpoint>
          <Trackpoint>
            <Time>2021-08-11T09:41:00.000Z</Time>
            <Position>
              <LatitudeDegrees>43.32704580388963222503662109375</LatitudeDegrees>
              <LongitudeDegrees>-1.73891164362430572509765625</LongitudeDegrees>
            </Position>
            <AltitudeMeters>15.19999980926513671875</AltitudeMeters>
            <DistanceMeters>NAN</DistanceMeters>
          </Trackpoint>
          <Trackpoint>
            <Time>2021-08-11T09:41:01.000Z</Time>
            <Position>
              <LatitudeDegrees>43.32708620466291904449462890625</LatitudeDegrees>
              <LongitudeDegrees>-1.73890552483499050140380859375</LongitudeDegrees>
            </Position>
            <AltitudeMeters>15</AltitudeMeters>
            <DistanceMeters>NAN</DistanceMeters>
          </Trackpoint>
          <Trackpoint>
            <Time>2021-08-11T09:41:06.000Z</Time>
            <Position>
              <LatitudeDegrees>43.32728418521583080291748046875</LatitudeDegrees>
              <LongitudeDegrees>-1.73887182958424091339111328125</LongitudeDegrees>
            </Position>
            <AltitudeMeters>15</AltitudeMeters>
            <DistanceMeters>NAN</DistanceMeters>
          </Trackpoint>
          <Trackpoint>
            <Time>2021-08-11T09:41:07.000Z</Time>
            <Position>
              <LatitudeDegrees>43.32732416689395904541015625</LatitudeDegrees>
              <LongitudeDegrees>-1.7388658784329891204833984375</LongitudeDegrees>
            </Position>
            <AltitudeMeters>15</AltitudeMeters>
            <DistanceMeters>NAN</DistanceMeters>
          </Trackpoint>
          <Trackpoint>
            <Time>2021-08-11T09:41:08.000Z</Time>
            <Position>
              <LatitudeDegrees>43.32736305892467498779296875</LatitudeDegrees>
              <LongitudeDegrees>-1.73885825090110301971435546875</LongitudeDegrees>
            </Position>
            <AltitudeMeters>15</AltitudeMeters>
            <DistanceMeters>NAN</DistanceMeters>
          </Trackpoint>
          <Trackpoint>
            <Time>2021-08-11T09:41:09.000Z</Time>
            <Position>
              <LatitudeDegrees>43.32740237005054950714111328125</LatitudeDegrees>
              <LongitudeDegrees>-1.73884869553148746490478515625</LongitudeDegrees>
            </Position>
            <AltitudeMeters>14.80000019073486328125</AltitudeMeters>
            <DistanceMeters>NAN</DistanceMeters>
          </Trackpoint>
          <Trackpoint>
            <Time>2021-08-11T09:41:10.000Z</Time>
            <Position>
              <LatitudeDegrees>43.32744142971932888031005859375</LatitudeDegrees>
              <LongitudeDegrees>-1.738842241466045379638671875</LongitudeDegrees>
            </Position>
            <AltitudeMeters>14.80000019073486328125</AltitudeMeters>
            <DistanceMeters>NAN</DistanceMeters>
          </Trackpoint>
          <Trackpoint>
            <Time>2021-08-11T09:41:12.000Z</Time>
            <Position>
              <LatitudeDegrees>43.3275556750595569610595703125</LatitudeDegrees>
              <LongitudeDegrees>-1.7388192750513553619384765625</LongitudeDegrees>
            </Position>
            <AltitudeMeters>14.6000003814697265625</AltitudeMeters>
            <DistanceMeters>NAN</DistanceMeters>
          </Trackpoint>
          <Trackpoint>
            <Time>2021-08-11T09:41:14.000Z</Time>
            <Position>
              <LatitudeDegrees>43.3276016078889369964599609375</LatitudeDegrees>
              <LongitudeDegrees>-1.73881198279559612274169921875</LongitudeDegrees>
            </Position>
            <AltitudeMeters>14.80000019073486328125</AltitudeMeters>
            <DistanceMeters>NAN</DistanceMeters>
          </Trackpoint>
          <Trackpoint>
            <Time>2021-08-11T09:41:15.000Z</Time>
            <Position>
              <LatitudeDegrees>43.3276321180164813995361328125</LatitudeDegrees>
              <LongitudeDegrees>-1.738805361092090606689453125</LongitudeDegrees>
            </Position>
            <AltitudeMeters>14.80000019073486328125</AltitudeMeters>
            <DistanceMeters>NAN</DistanceMeters>
          </Trackpoint>
          <Trackpoint>
            <Time>2021-08-11T09:41:17.000Z</Time>
            <Position>
              <LatitudeDegrees>43.32774049602448940277099609375</LatitudeDegrees>
              <LongitudeDegrees>-1.738785915076732635498046875</LongitudeDegrees>
            </Position>
            <AltitudeMeters>14.6000003814697265625</AltitudeMeters>
            <DistanceMeters>NAN</DistanceMeters>
          </Trackpoint>
          <Trackpoint>
            <Time>2021-08-11T09:41:18.000Z</Time>
            <Position>
              <LatitudeDegrees>43.32774049602448940277099609375</LatitudeDegrees>
              <LongitudeDegrees>-1.738785915076732635498046875</LongitudeDegrees>
            </Position>
            <AltitudeMeters>14.6000003814697265625</AltitudeMeters>
            <DistanceMeters>NAN</DistanceMeters>
          </Trackpoint>
          <Trackpoint>
            <Time>2021-08-11T09:41:22.000Z</Time>
            <Position>
              <LatitudeDegrees>43.327885754406452178955078125</LatitudeDegrees>
              <LongitudeDegrees>-1.73875917680561542510986328125</LongitudeDegrees>
            </Position>
            <AltitudeMeters>14.6000003814697265625</AltitudeMeters>
            <DistanceMeters>NAN</DistanceMeters>
          </Trackpoint>
          <Trackpoint>
            <Time>2021-08-11T09:41:23.000Z</Time>
            <Position>
              <LatitudeDegrees>43.3279244787991046905517578125</LatitudeDegrees>
              <LongitudeDegrees>-1.73875129781663417816162109375</LongitudeDegrees>
            </Position>
            <AltitudeMeters>14.6000003814697265625</AltitudeMeters>
            <DistanceMeters>NAN</DistanceMeters>
          </Trackpoint>
          <Trackpoint>
            <Time>2021-08-11T09:41:24.000Z</Time>
            <Position>
              <LatitudeDegrees>43.32796412520110607147216796875</LatitudeDegrees>
              <LongitudeDegrees>-1.73874534666538238525390625</LongitudeDegrees>
            </Position>
            <AltitudeMeters>14.6000003814697265625</AltitudeMeters>
            <DistanceMeters>NAN</DistanceMeters>
          </Trackpoint>
          <Trackpoint>
            <Time>2021-08-11T09:41:25.000Z</Time>
            <Position>
              <LatitudeDegrees>43.32800335250794887542724609375</LatitudeDegrees>
              <LongitudeDegrees>-1.73873805440962314605712890625</LongitudeDegrees>
            </Position>
            <AltitudeMeters>14.6000003814697265625</AltitudeMeters>
            <DistanceMeters>NAN</DistanceMeters>
          </Trackpoint>
          <Trackpoint>
            <Time>2021-08-11T09:41:27.000Z</Time>
            <Position>
              <LatitudeDegrees>43.32807895727455615997314453125</LatitudeDegrees>
              <LongitudeDegrees>-1.73872866667807102203369140625</LongitudeDegrees>
            </Position>
            <AltitudeMeters>14.6000003814697265625</AltitudeMeters>
            <DistanceMeters>NAN</DistanceMeters>
          </Trackpoint>
          <Trackpoint>
            <Time>2021-08-11T09:41:28.000Z</Time>
            <Position>
              <LatitudeDegrees>43.3281482756137847900390625</LatitudeDegrees>
              <LongitudeDegrees>-1.7387173511087894439697265625</LongitudeDegrees>
            </Position>
            <AltitudeMeters>14.6000003814697265625</AltitudeMeters>
            <DistanceMeters>NAN</DistanceMeters>
          </Trackpoint>
          <Trackpoint>
            <Time>2021-08-11T09:41:29.000Z</Time>
            <Position>
              <LatitudeDegrees>43.3281482756137847900390625</LatitudeDegrees>
              <LongitudeDegrees>-1.7387173511087894439697265625</LongitudeDegrees>
            </Position>
            <AltitudeMeters>14.6000003814697265625</AltitudeMeters>
            <DistanceMeters>NAN</DistanceMeters>
          </Trackpoint>
          <Trackpoint>
            <Time>2021-08-11T09:41:30.000Z</Time>
            <Position>
              <LatitudeDegrees>43.328181803226470947265625</LatitudeDegrees>
              <LongitudeDegrees>-1.73871316015720367431640625</LongitudeDegrees>
            </Position>
            <AltitudeMeters>14.6000003814697265625</AltitudeMeters>
            <DistanceMeters>NAN</DistanceMeters>
          </Trackpoint>
          <Trackpoint>
            <Time>2021-08-11T09:41:31.000Z</Time>
            <Position>
              <LatitudeDegrees>43.328216336667537689208984375</LatitudeDegrees>
              <LongitudeDegrees>-1.7387093044817447662353515625</LongitudeDegrees>
            </Position>
            <AltitudeMeters>14.6000003814697265625</AltitudeMeters>
            <DistanceMeters>NAN</DistanceMeters>
          </Trackpoint>
          <Trackpoint>
            <Time>2021-08-11T09:41:32.000Z</Time>
            <Position>
              <LatitudeDegrees>43.32825866527855396270751953125</LatitudeDegrees>
              <LongitudeDegrees>-1.73870637081563472747802734375</LongitudeDegrees>
            </Position>
            <AltitudeMeters>14.6000003814697265625</AltitudeMeters>
            <DistanceMeters>NAN</DistanceMeters>
          </Trackpoint>
          <Trackpoint>
            <Time>2021-08-11T09:41:33.000Z</Time>
            <Position>
              <LatitudeDegrees>43.328322954475879669189453125</LatitudeDegrees>
              <LongitudeDegrees>-1.7387086339294910430908203125</LongitudeDegrees>
            </Position>
            <AltitudeMeters>14.6000003814697265625</AltitudeMeters>
            <DistanceMeters>NAN</DistanceMeters>
          </Trackpoint>
          <Trackpoint>
            <Time>2021-08-11T09:41:34.000Z</Time>
            <Position>
              <LatitudeDegrees>43.32836763001978397369384765625</LatitudeDegrees>
              <LongitudeDegrees>-1.73870888538658618927001953125</LongitudeDegrees>
            </Position>
            <AltitudeMeters>14.6000003814697265625</AltitudeMeters>
            <DistanceMeters>NAN</DistanceMeters>
          </Trackpoint>
          <Trackpoint>
            <Time>2021-08-11T09:41:35.000Z</Time>
            <Position>
              <LatitudeDegrees>43.32836763001978397369384765625</LatitudeDegrees>
              <LongitudeDegrees>-1.73870888538658618927001953125</LongitudeDegrees>
            </Position>
            <AltitudeMeters>14.6000003814697265625</AltitudeMeters>
            <DistanceMeters>NAN</DistanceMeters>
          </Trackpoint>
          <Trackpoint>
            <Time>2021-08-11T09:41:36.000Z</Time>
            <Position>
              <LatitudeDegrees>43.3283982239663600921630859375</LatitudeDegrees>
              <LongitudeDegrees>-1.73871408216655254364013671875</LongitudeDegrees>
            </Position>
            <AltitudeMeters>14.6000003814697265625</AltitudeMeters>
            <DistanceMeters>NAN</DistanceMeters>
          </Trackpoint>
          <Trackpoint>
            <Time>2021-08-11T09:41:37.000Z</Time>
            <Position>
              <LatitudeDegrees>43.3284750021994113922119140625</LatitudeDegrees>
              <LongitudeDegrees>-1.7387272417545318603515625</LongitudeDegrees>
            </Position>
            <AltitudeMeters>14.6000003814697265625</AltitudeMeters>
            <DistanceMeters>NAN</DistanceMeters>
          </Trackpoint>
          <Trackpoint>
            <Time>2021-08-11T09:41:45.000Z</Time>
            <Position>
              <LatitudeDegrees>43.3287562988698482513427734375</LatitudeDegrees>
              <LongitudeDegrees>-1.73888339661061763763427734375</LongitudeDegrees>
            </Position>
            <AltitudeMeters>14.6000003814697265625</AltitudeMeters>
            <DistanceMeters>NAN</DistanceMeters>
          </Trackpoint>
          <Trackpoint>
            <Time>2021-08-11T09:41:52.000Z</Time>
            <Position>
              <LatitudeDegrees>43.3289775811135768890380859375</LatitudeDegrees>
              <LongitudeDegrees>-1.73915580846369266510009765625</LongitudeDegrees>
            </Position>
            <AltitudeMeters>14.6000003814697265625</AltitudeMeters>
            <DistanceMeters>NAN</DistanceMeters>
          </Trackpoint>
          <Trackpoint>
            <Time>2021-08-11T09:42:01.000Z</Time>
            <Position>
              <LatitudeDegrees>43.32921244204044342041015625</LatitudeDegrees>
              <LongitudeDegrees>-1.739643551409244537353515625</LongitudeDegrees>
            </Position>
            <AltitudeMeters>14.3999996185302734375</AltitudeMeters>
            <DistanceMeters>NAN</DistanceMeters>
          </Trackpoint>
          <Trackpoint>
            <Time>2021-08-11T09:42:03.000Z</Time>
            <Position>
              <LatitudeDegrees>43.3292545191943645477294921875</LatitudeDegrees>
              <LongitudeDegrees>-1.739748157560825347900390625</LongitudeDegrees>
            </Position>
            <AltitudeMeters>14.19999980926513671875</AltitudeMeters>
            <DistanceMeters>NAN</DistanceMeters>
          </Trackpoint>
          <Trackpoint>
            <Time>2021-08-11T09:42:06.000Z</Time>
            <Position>
              <LatitudeDegrees>43.32931176759302616119384765625</LatitudeDegrees>
              <LongitudeDegrees>-1.739919818937778472900390625</LongitudeDegrees>
            </Position>
            <AltitudeMeters>14</AltitudeMeters>
            <DistanceMeters>NAN</DistanceMeters>
          </Trackpoint>
          <Trackpoint>
            <Time>2021-08-11T09:42:08.000Z</Time>
            <Position>
              <LatitudeDegrees>43.3293343149125576019287109375</LatitudeDegrees>
              <LongitudeDegrees>-1.74005099572241306304931640625</LongitudeDegrees>
            </Position>
            <AltitudeMeters>13.80000019073486328125</AltitudeMeters>
            <DistanceMeters>NAN</DistanceMeters>
          </Trackpoint>
          <Trackpoint>
            <Time>2021-08-11T09:42:09.000Z</Time>
            <Position>
              <LatitudeDegrees>43.32934646867215633392333984375</LatitudeDegrees>
              <LongitudeDegrees>-1.74011922441422939300537109375</LongitudeDegrees>
            </Position>
            <AltitudeMeters>13.80000019073486328125</AltitudeMeters>
            <DistanceMeters>NAN</DistanceMeters>
          </Trackpoint>
          <Trackpoint>
            <Time>2021-08-11T09:42:11.000Z</Time>
            <Position>
              <LatitudeDegrees>43.32938100211322307586669921875</LatitudeDegrees>
              <LongitudeDegrees>-1.7402572743594646453857421875</LongitudeDegrees>
            </Position>
            <AltitudeMeters>13.6000003814697265625</AltitudeMeters>
            <DistanceMeters>NAN</DistanceMeters>
          </Trackpoint>
          <Trackpoint>
            <Time>2021-08-11T09:42:14.000Z</Time>
            <Position>
              <LatitudeDegrees>43.32943640649318695068359375</LatitudeDegrees>
              <LongitudeDegrees>-1.740472018718719482421875</LongitudeDegrees>
            </Position>
            <AltitudeMeters>13.19999980926513671875</AltitudeMeters>
            <DistanceMeters>NAN</DistanceMeters>
          </Trackpoint>
          <Trackpoint>
            <Time>2021-08-11T09:42:19.000Z</Time>
            <Position>
              <LatitudeDegrees>43.32951662130653858184814453125</LatitudeDegrees>
              <LongitudeDegrees>-1.74087292514741420745849609375</LongitudeDegrees>
            </Position>
            <AltitudeMeters>12.6000003814697265625</AltitudeMeters>
            <DistanceMeters>NAN</DistanceMeters>
          </Trackpoint>
          <Trackpoint>
            <Time>2021-08-11T09:42:20.000Z</Time>
            <Position>
              <LatitudeDegrees>43.32953237928450107574462890625</LatitudeDegrees>
              <LongitudeDegrees>-1.7409563250839710235595703125</LongitudeDegrees>
            </Position>
            <AltitudeMeters>12.19999980926513671875</AltitudeMeters>
            <DistanceMeters>NAN</DistanceMeters>
          </Trackpoint>
          <Trackpoint>
            <Time>2021-08-11T09:42:24.000Z</Time>
            <Position>
              <LatitudeDegrees>43.32959038205444812774658203125</LatitudeDegrees>
              <LongitudeDegrees>-1.74127827398478984832763671875</LongitudeDegrees>
            </Position>
            <AltitudeMeters>11.6000003814697265625</AltitudeMeters>
            <DistanceMeters>NAN</DistanceMeters>
          </Trackpoint>
          <Trackpoint>
            <Time>2021-08-11T09:42:27.000Z</Time>
            <Position>
              <LatitudeDegrees>43.32961938343942165374755859375</LatitudeDegrees>
              <LongitudeDegrees>-1.7415113747119903564453125</LongitudeDegrees>
            </Position>
            <AltitudeMeters>11</AltitudeMeters>
            <DistanceMeters>NAN</DistanceMeters>
          </Trackpoint>
          <Trackpoint>
            <Time>2021-08-11T09:42:28.000Z</Time>
            <Position>
              <LatitudeDegrees>43.3296306990087032318115234375</LatitudeDegrees>
              <LongitudeDegrees>-1.7415906675159931182861328125</LongitudeDegrees>
            </Position>
            <AltitudeMeters>10.80000019073486328125</AltitudeMeters>
            <DistanceMeters>NAN</DistanceMeters>
          </Trackpoint>
          <Trackpoint>
            <Time>2021-08-11T09:42:29.000Z</Time>
            <Position>
              <LatitudeDegrees>43.32963933236896991729736328125</LatitudeDegrees>
              <LongitudeDegrees>-1.7416669428348541259765625</LongitudeDegrees>
            </Position>
            <AltitudeMeters>10.80000019073486328125</AltitudeMeters>
            <DistanceMeters>NAN</DistanceMeters>
          </Trackpoint>
          <Trackpoint>
            <Time>2021-08-11T09:42:30.000Z</Time>
            <Position>
              <LatitudeDegrees>43.32964838482439517974853515625</LatitudeDegrees>
              <LongitudeDegrees>-1.74174430780112743377685546875</LongitudeDegrees>
            </Position>
            <AltitudeMeters>10.80000019073486328125</AltitudeMeters>
            <DistanceMeters>NAN</DistanceMeters>
          </Trackpoint>
          <Trackpoint>
            <Time>2021-08-11T09:42:34.000Z</Time>
            <Position>
              <LatitudeDegrees>43.3296910487115383148193359375</LatitudeDegrees>
              <LongitudeDegrees>-1.7420694418251514434814453125</LongitudeDegrees>
            </Position>
            <AltitudeMeters>10.3999996185302734375</AltitudeMeters>
            <DistanceMeters>NAN</DistanceMeters>
          </Trackpoint>
          <Trackpoint>
            <Time>2021-08-11T09:42:37.000Z</Time>
            <Position>
              <LatitudeDegrees>43.32974628545343875885009765625</LatitudeDegrees>
              <LongitudeDegrees>-1.742390803992748260498046875</LongitudeDegrees>
            </Position>
            <AltitudeMeters>10.3999996185302734375</AltitudeMeters>
            <DistanceMeters>NAN</DistanceMeters>
          </Trackpoint>
          <Trackpoint>
            <Time>2021-08-11T09:42:40.000Z</Time>
            <Position>
              <LatitudeDegrees>43.3297943137586116790771484375</LatitudeDegrees>
              <LongitudeDegrees>-1.74258182756602764129638671875</LongitudeDegrees>
            </Position>
            <AltitudeMeters>10.3999996185302734375</AltitudeMeters>
            <DistanceMeters>NAN</DistanceMeters>
          </Trackpoint>
          <Trackpoint>
            <Time>2021-08-11T09:42:41.000Z</Time>
            <Position>
              <LatitudeDegrees>43.3297943137586116790771484375</LatitudeDegrees>
              <LongitudeDegrees>-1.74258182756602764129638671875</LongitudeDegrees>
            </Position>
            <AltitudeMeters>10.3999996185302734375</AltitudeMeters>
            <DistanceMeters>NAN</DistanceMeters>
          </Trackpoint>
          <Trackpoint>
            <Time>2021-08-11T09:42:42.000Z</Time>
            <Position>
              <LatitudeDegrees>43.329825662076473236083984375</LatitudeDegrees>
              <LongitudeDegrees>-1.74272180534899234771728515625</LongitudeDegrees>
            </Position>
            <AltitudeMeters>10.3999996185302734375</AltitudeMeters>
            <DistanceMeters>NAN</DistanceMeters>
          </Trackpoint>
          <Trackpoint>
            <Time>2021-08-11T09:42:43.000Z</Time>
            <Position>
              <LatitudeDegrees>43.329825662076473236083984375</LatitudeDegrees>
              <LongitudeDegrees>-1.74272180534899234771728515625</LongitudeDegrees>
            </Position>
            <AltitudeMeters>10.3999996185302734375</AltitudeMeters>
            <DistanceMeters>NAN</DistanceMeters>
          </Trackpoint>
          <Trackpoint>
            <Time>2021-08-11T09:42:45.000Z</Time>
            <Position>
              <LatitudeDegrees>43.32984787411987781524658203125</LatitudeDegrees>
              <LongitudeDegrees>-1.74283596687018871307373046875</LongitudeDegrees>
            </Position>
            <AltitudeMeters>10.3999996185302734375</AltitudeMeters>
            <DistanceMeters>NAN</DistanceMeters>
          </Trackpoint>
          <Trackpoint>
            <Time>2021-08-11T09:42:46.000Z</Time>
            <Position>
              <LatitudeDegrees>43.32986061461269855499267578125</LatitudeDegrees>
              <LongitudeDegrees>-1.74289874732494354248046875</LongitudeDegrees>
            </Position>
            <AltitudeMeters>10.3999996185302734375</AltitudeMeters>
            <DistanceMeters>NAN</DistanceMeters>
          </Trackpoint>
          <Trackpoint>
            <Time>2021-08-11T09:42:47.000Z</Time>
            <Position>
              <LatitudeDegrees>43.329873941838741302490234375</LatitudeDegrees>
              <LongitudeDegrees>-1.7429579235613346099853515625</LongitudeDegrees>
            </Position>
            <AltitudeMeters>10.3999996185302734375</AltitudeMeters>
            <DistanceMeters>NAN</DistanceMeters>
          </Trackpoint>
          <Trackpoint>
            <Time>2021-08-11T09:42:48.000Z</Time>
            <Position>
              <LatitudeDegrees>43.32988894544541835784912109375</LatitudeDegrees>
              <LongitudeDegrees>-1.74302925355732440948486328125</LongitudeDegrees>
            </Position>
            <AltitudeMeters>10.3999996185302734375</AltitudeMeters>
            <DistanceMeters>NAN</DistanceMeters>
          </Trackpoint>
          <Trackpoint>
            <Time>2021-08-11T09:42:49.000Z</Time>
            <Position>
              <LatitudeDegrees>43.32989866845309734344482421875</LatitudeDegrees>
              <LongitudeDegrees>-1.74307837150990962982177734375</LongitudeDegrees>
            </Position>
            <AltitudeMeters>10.3999996185302734375</AltitudeMeters>
            <DistanceMeters>NAN</DistanceMeters>
          </Trackpoint>
          <Trackpoint>
            <Time>2021-08-11T09:42:50.000Z</Time>
            <Position>
              <LatitudeDegrees>43.3299106545746326446533203125</LatitudeDegrees>
              <LongitudeDegrees>-1.74313955940306186676025390625</LongitudeDegrees>
            </Position>
            <AltitudeMeters>10.3999996185302734375</AltitudeMeters>
            <DistanceMeters>NAN</DistanceMeters>
          </Trackpoint>
          <Trackpoint>
            <Time>2021-08-11T09:42:51.000Z</Time>
            <Position>
              <LatitudeDegrees>43.32992255687713623046875</LatitudeDegrees>
              <LongitudeDegrees>-1.74320108257234096527099609375</LongitudeDegrees>
            </Position>
            <AltitudeMeters>10.3999996185302734375</AltitudeMeters>
            <DistanceMeters>NAN</DistanceMeters>
          </Trackpoint>
          <Trackpoint>
            <Time>2021-08-11T09:42:52.000Z</Time>
            <Position>
              <LatitudeDegrees>43.32994728349149227142333984375</LatitudeDegrees>
              <LongitudeDegrees>-1.74332714639604091644287109375</LongitudeDegrees>
            </Position>
            <AltitudeMeters>10.3999996185302734375</AltitudeMeters>
            <DistanceMeters>NAN</DistanceMeters>
          </Trackpoint>
          <Trackpoint>
            <Time>2021-08-11T09:42:53.000Z</Time>
            <Position>
              <LatitudeDegrees>43.32994728349149227142333984375</LatitudeDegrees>
              <LongitudeDegrees>-1.74332714639604091644287109375</LongitudeDegrees>
            </Position>
            <AltitudeMeters>10.3999996185302734375</AltitudeMeters>
            <DistanceMeters>NAN</DistanceMeters>
          </Trackpoint>
          <Trackpoint>
            <Time>2021-08-11T09:42:59.000Z</Time>
            <Position>
              <LatitudeDegrees>43.3300440944731235504150390625</LatitudeDegrees>
              <LongitudeDegrees>-1.743765436112880706787109375</LongitudeDegrees>
            </Position>
            <AltitudeMeters>10.19999980926513671875</AltitudeMeters>
            <DistanceMeters>NAN</DistanceMeters>
          </Trackpoint>
          <Trackpoint>
            <Time>2021-08-11T09:43:07.000Z</Time>
            <Position>
              <LatitudeDegrees>43.3301530592143535614013671875</LatitudeDegrees>
              <LongitudeDegrees>-1.74429810605943202972412109375</LongitudeDegrees>
            </Position>
            <AltitudeMeters>10</AltitudeMeters>
            <DistanceMeters>NAN</DistanceMeters>
          </Trackpoint>
          <Trackpoint>
            <Time>2021-08-11T09:43:08.000Z</Time>
            <Position>
              <LatitudeDegrees>43.33016487769782543182373046875</LatitudeDegrees>
              <LongitudeDegrees>-1.7443664185702800750732421875</LongitudeDegrees>
            </Position>
            <AltitudeMeters>9.80000019073486328125</AltitudeMeters>
            <DistanceMeters>NAN</DistanceMeters>
          </Trackpoint>
          <Trackpoint>
            <Time>2021-08-11T09:43:09.000Z</Time>
            <Position>
              <LatitudeDegrees>43.33017711527645587921142578125</LatitudeDegrees>
              <LongitudeDegrees>-1.74443540163338184356689453125</LongitudeDegrees>
            </Position>
            <AltitudeMeters>9.80000019073486328125</AltitudeMeters>
            <DistanceMeters>NAN</DistanceMeters>
          </Trackpoint>
          <Trackpoint>
            <Time>2021-08-11T09:43:10.000Z</Time>
            <Position>
              <LatitudeDegrees>43.33018884994089603424072265625</LatitudeDegrees>
              <LongitudeDegrees>-1.74450178630650043487548828125</LongitudeDegrees>
            </Position>
            <AltitudeMeters>9.80000019073486328125</AltitudeMeters>
            <DistanceMeters>NAN</DistanceMeters>
          </Trackpoint>
          <Trackpoint>
            <Time>2021-08-11T09:43:11.000Z</Time>
            <Position>
              <LatitudeDegrees>43.33020175807178020477294921875</LatitudeDegrees>
              <LongitudeDegrees>-1.74456934444606304168701171875</LongitudeDegrees>
            </Position>
            <AltitudeMeters>9.80000019073486328125</AltitudeMeters>
            <DistanceMeters>NAN</DistanceMeters>
          </Trackpoint>
          <Trackpoint>
            <Time>2021-08-11T09:43:12.000Z</Time>
            <Position>
              <LatitudeDegrees>43.3302150852978229522705078125</LatitudeDegrees>
              <LongitudeDegrees>-1.74463639967143535614013671875</LongitudeDegrees>
            </Position>
            <AltitudeMeters>9.80000019073486328125</AltitudeMeters>
            <DistanceMeters>NAN</DistanceMeters>
          </Trackpoint>
          <Trackpoint>
            <Time>2021-08-11T09:43:21.000Z</Time>
            <Position>
              <LatitudeDegrees>43.33035380579531192779541015625</LatitudeDegrees>
              <LongitudeDegrees>-1.7453209497034549713134765625</LongitudeDegrees>
            </Position>
            <AltitudeMeters>9.80000019073486328125</AltitudeMeters>
            <DistanceMeters>NAN</DistanceMeters>
          </Trackpoint>
          <Trackpoint>
            <Time>2021-08-11T09:43:23.000Z</Time>
            <Position>
              <LatitudeDegrees>43.33037492819130420684814453125</LatitudeDegrees>
              <LongitudeDegrees>-1.74546570517122745513916015625</LongitudeDegrees>
            </Position>
            <AltitudeMeters>9.80000019073486328125</AltitudeMeters>
            <DistanceMeters>NAN</DistanceMeters>
          </Trackpoint>
          <Trackpoint>
            <Time>2021-08-11T09:43:24.000Z</Time>
            <Position>
              <LatitudeDegrees>43.3303914405405521392822265625</LatitudeDegrees>
              <LongitudeDegrees>-1.74553175456821918487548828125</LongitudeDegrees>
            </Position>
            <AltitudeMeters>9.80000019073486328125</AltitudeMeters>
            <DistanceMeters>NAN</DistanceMeters>
          </Trackpoint>
          <Trackpoint>
            <Time>2021-08-11T09:43:25.000Z</Time>
            <Position>
              <LatitudeDegrees>43.33040644414722919464111328125</LatitudeDegrees>
              <LongitudeDegrees>-1.7455972172319889068603515625</LongitudeDegrees>
            </Position>
            <AltitudeMeters>9.80000019073486328125</AltitudeMeters>
            <DistanceMeters>NAN</DistanceMeters>
          </Trackpoint>
          <Trackpoint>
            <Time>2021-08-11T09:43:27.000Z</Time>
            <Position>
              <LatitudeDegrees>43.33042706362903118133544921875</LatitudeDegrees>
              <LongitudeDegrees>-1.7457219399511814117431640625</LongitudeDegrees>
            </Position>
            <AltitudeMeters>9.80000019073486328125</AltitudeMeters>
            <DistanceMeters>NAN</DistanceMeters>
          </Trackpoint>
          <Trackpoint>
            <Time>2021-08-11T09:43:28.000Z</Time>
            <Position>
              <LatitudeDegrees>43.330435864627361297607421875</LatitudeDegrees>
              <LongitudeDegrees>-1.7457997240126132965087890625</LongitudeDegrees>
            </Position>
            <AltitudeMeters>9.80000019073486328125</AltitudeMeters>
            <DistanceMeters>NAN</DistanceMeters>
          </Trackpoint>
          <Trackpoint>
            <Time>2021-08-11T09:43:29.000Z</Time>
            <Position>
              <LatitudeDegrees>43.33044701255857944488525390625</LatitudeDegrees>
              <LongitudeDegrees>-1.74586753360927104949951171875</LongitudeDegrees>
            </Position>
            <AltitudeMeters>9.80000019073486328125</AltitudeMeters>
            <DistanceMeters>NAN</DistanceMeters>
          </Trackpoint>
          <Trackpoint>
            <Time>2021-08-11T09:43:30.000Z</Time>
            <Position>
              <LatitudeDegrees>43.33044701255857944488525390625</LatitudeDegrees>
              <LongitudeDegrees>-1.74586753360927104949951171875</LongitudeDegrees>
            </Position>
            <AltitudeMeters>9.80000019073486328125</AltitudeMeters>
            <DistanceMeters>NAN</DistanceMeters>
          </Trackpoint>
          <Trackpoint>
            <Time>2021-08-11T09:43:33.000Z</Time>
            <Position>
              <LatitudeDegrees>43.33049344830214977264404296875</LatitudeDegrees>
              <LongitudeDegrees>-1.746126115322113037109375</LongitudeDegrees>
            </Position>
            <AltitudeMeters>9.80000019073486328125</AltitudeMeters>
            <DistanceMeters>NAN</DistanceMeters>
          </Trackpoint>
          <Trackpoint>
            <Time>2021-08-11T09:43:34.000Z</Time>
            <Position>
              <LatitudeDegrees>43.33051222376525402069091796875</LatitudeDegrees>
              <LongitudeDegrees>-1.74619090743362903594970703125</LongitudeDegrees>
            </Position>
            <AltitudeMeters>10</AltitudeMeters>
            <DistanceMeters>NAN</DistanceMeters>
          </Trackpoint>
          <Trackpoint>
            <Time>2021-08-11T09:43:40.000Z</Time>
            <Position>
              <LatitudeDegrees>43.33066041581332683563232421875</LatitudeDegrees>
              <LongitudeDegrees>-1.7465163767337799072265625</LongitudeDegrees>
            </Position>
            <AltitudeMeters>10</AltitudeMeters>
            <DistanceMeters>NAN</DistanceMeters>
          </Trackpoint>
          <Trackpoint>
            <Time>2021-08-11T09:43:43.000Z</Time>
            <Position>
              <LatitudeDegrees>43.33077440969645977020263671875</LatitudeDegrees>
              <LongitudeDegrees>-1.74679373390972614288330078125</LongitudeDegrees>
            </Position>
            <AltitudeMeters>9.80000019073486328125</AltitudeMeters>
            <DistanceMeters>NAN</DistanceMeters>
          </Trackpoint>
          <Trackpoint>
            <Time>2021-08-11T09:43:44.000Z</Time>
            <Position>
              <LatitudeDegrees>43.3307860605418682098388671875</LatitudeDegrees>
              <LongitudeDegrees>-1.74687637947499752044677734375</LongitudeDegrees>
            </Position>
            <AltitudeMeters>9.6000003814697265625</AltitudeMeters>
            <DistanceMeters>NAN</DistanceMeters>
          </Trackpoint>
          <Trackpoint>
            <Time>2021-08-11T09:43:45.000Z</Time>
            <Position>
              <LatitudeDegrees>43.3307823725044727325439453125</LatitudeDegrees>
              <LongitudeDegrees>-1.7469480447471141815185546875</LongitudeDegrees>
            </Position>
            <AltitudeMeters>9.6000003814697265625</AltitudeMeters>
            <DistanceMeters>NAN</DistanceMeters>
          </Trackpoint>
          <Trackpoint>
            <Time>2021-08-11T09:43:46.000Z</Time>
            <Position>
              <LatitudeDegrees>43.3307714760303497314453125</LatitudeDegrees>
              <LongitudeDegrees>-1.74702130258083343505859375</LongitudeDegrees>
            </Position>
            <AltitudeMeters>9.6000003814697265625</AltitudeMeters>
            <DistanceMeters>NAN</DistanceMeters>
          </Trackpoint>
          <Trackpoint>
            <Time>2021-08-11T09:43:47.000Z</Time>
            <Position>
              <LatitudeDegrees>43.33075647242367267608642578125</LatitudeDegrees>
              <LongitudeDegrees>-1.74707603640854358673095703125</LongitudeDegrees>
            </Position>
            <AltitudeMeters>9.3999996185302734375</AltitudeMeters>
            <DistanceMeters>NAN</DistanceMeters>
          </Trackpoint>
          <Trackpoint>
            <Time>2021-08-11T09:43:48.000Z</Time>
            <Position>
              <LatitudeDegrees>43.33075647242367267608642578125</LatitudeDegrees>
              <LongitudeDegrees>-1.74707603640854358673095703125</LongitudeDegrees>
            </Position>
            <AltitudeMeters>9.3999996185302734375</AltitudeMeters>
            <DistanceMeters>NAN</DistanceMeters>
          </Trackpoint>
          <Trackpoint>
            <Time>2021-08-11T09:43:49.000Z</Time>
            <Position>
              <LatitudeDegrees>43.33072629757225513458251953125</LatitudeDegrees>
              <LongitudeDegrees>-1.74713454209268093109130859375</LongitudeDegrees>
            </Position>
            <AltitudeMeters>9.3999996185302734375</AltitudeMeters>
            <DistanceMeters>NAN</DistanceMeters>
          </Trackpoint>
          <Trackpoint>
            <Time>2021-08-11T09:43:50.000Z</Time>
            <Position>
              <LatitudeDegrees>43.3306888304650783538818359375</LatitudeDegrees>
              <LongitudeDegrees>-1.74718131311237812042236328125</LongitudeDegrees>
            </Position>
            <AltitudeMeters>9.6000003814697265625</AltitudeMeters>
            <DistanceMeters>NAN</DistanceMeters>
          </Trackpoint>
          <Trackpoint>
            <Time>2021-08-11T09:43:51.000Z</Time>
            <Position>
              <LatitudeDegrees>43.330617249011993408203125</LatitudeDegrees>
              <LongitudeDegrees>-1.747277118265628814697265625</LongitudeDegrees>
            </Position>
            <AltitudeMeters>9.80000019073486328125</AltitudeMeters>
            <DistanceMeters>NAN</DistanceMeters>
          </Trackpoint>
          <Trackpoint>
            <Time>2021-08-11T09:43:52.000Z</Time>
            <Position>
              <LatitudeDegrees>43.330617249011993408203125</LatitudeDegrees>
              <LongitudeDegrees>-1.747277118265628814697265625</LongitudeDegrees>
            </Position>
            <AltitudeMeters>9.80000019073486328125</AltitudeMeters>
            <DistanceMeters>NAN</DistanceMeters>
          </Trackpoint>
          <Trackpoint>
            <Time>2021-08-11T09:43:53.000Z</Time>
            <Position>
              <LatitudeDegrees>43.3305942825973033905029296875</LatitudeDegrees>
              <LongitudeDegrees>-1.74735724925994873046875</LongitudeDegrees>
            </Position>
            <AltitudeMeters>9.80000019073486328125</AltitudeMeters>
            <DistanceMeters>NAN</DistanceMeters>
          </Trackpoint>
          <Trackpoint>
            <Time>2021-08-11T09:43:54.000Z</Time>
            <Position>
              <LatitudeDegrees>43.3305892534554004669189453125</LatitudeDegrees>
              <LongitudeDegrees>-1.74741667695343494415283203125</LongitudeDegrees>
            </Position>
            <AltitudeMeters>9.80000019073486328125</AltitudeMeters>
            <DistanceMeters>NAN</DistanceMeters>
          </Trackpoint>
          <Trackpoint>
            <Time>2021-08-11T09:43:55.000Z</Time>
            <Position>
              <LatitudeDegrees>43.33058430813252925872802734375</LatitudeDegrees>
              <LongitudeDegrees>-1.74756369553506374359130859375</LongitudeDegrees>
            </Position>
            <AltitudeMeters>9.80000019073486328125</AltitudeMeters>
            <DistanceMeters>NAN</DistanceMeters>
          </Trackpoint>
          <Trackpoint>
            <Time>2021-08-11T09:43:56.000Z</Time>
            <Position>
              <LatitudeDegrees>43.33058430813252925872802734375</LatitudeDegrees>
              <LongitudeDegrees>-1.74756369553506374359130859375</LongitudeDegrees>
            </Position>
            <AltitudeMeters>9.80000019073486328125</AltitudeMeters>
            <DistanceMeters>NAN</DistanceMeters>
          </Trackpoint>
          <Trackpoint>
            <Time>2021-08-11T09:44:03.000Z</Time>
            <Position>
              <LatitudeDegrees>43.3306234516203403472900390625</LatitudeDegrees>
              <LongitudeDegrees>-1.748095192015171051025390625</LongitudeDegrees>
            </Position>
            <AltitudeMeters>9.6000003814697265625</AltitudeMeters>
            <DistanceMeters>NAN</DistanceMeters>
          </Trackpoint>
          <Trackpoint>
            <Time>2021-08-11T09:44:11.000Z</Time>
            <Position>
              <LatitudeDegrees>43.330747671425342559814453125</LatitudeDegrees>
              <LongitudeDegrees>-1.7488443665206432342529296875</LongitudeDegrees>
            </Position>
            <AltitudeMeters>8.80000019073486328125</AltitudeMeters>
            <DistanceMeters>NAN</DistanceMeters>
          </Trackpoint>
          <Trackpoint>
            <Time>2021-08-11T09:44:14.000Z</Time>
            <Position>
              <LatitudeDegrees>43.3307733200490474700927734375</LatitudeDegrees>
              <LongitudeDegrees>-1.74898643977940082550048828125</LongitudeDegrees>
            </Position>
            <AltitudeMeters>8.6000003814697265625</AltitudeMeters>
            <DistanceMeters>NAN</DistanceMeters>
          </Trackpoint>
          <Trackpoint>
            <Time>2021-08-11T09:44:15.000Z</Time>
            <Position>
              <LatitudeDegrees>43.33078849129378795623779296875</LatitudeDegrees>
              <LongitudeDegrees>-1.74905919469892978668212890625</LongitudeDegrees>
            </Position>
            <AltitudeMeters>8.6000003814697265625</AltitudeMeters>
            <DistanceMeters>NAN</DistanceMeters>
          </Trackpoint>
          <Trackpoint>
            <Time>2021-08-11T09:44:16.000Z</Time>
            <Position>
              <LatitudeDegrees>43.33082872442901134490966796875</LatitudeDegrees>
              <LongitudeDegrees>-1.7491994239389896392822265625</LongitudeDegrees>
            </Position>
            <AltitudeMeters>8.6000003814697265625</AltitudeMeters>
            <DistanceMeters>NAN</DistanceMeters>
          </Trackpoint>
          <Trackpoint>
            <Time>2021-08-11T09:44:17.000Z</Time>
            <Position>
              <LatitudeDegrees>43.3308531157672405242919921875</LatitudeDegrees>
              <LongitudeDegrees>-1.7492798902094364166259765625</LongitudeDegrees>
            </Position>
            <AltitudeMeters>8.6000003814697265625</AltitudeMeters>
            <DistanceMeters>NAN</DistanceMeters>
          </Trackpoint>
          <Trackpoint>
            <Time>2021-08-11T09:44:18.000Z</Time>
            <Position>
              <LatitudeDegrees>43.33087180741131305694580078125</LatitudeDegrees>
              <LongitudeDegrees>-1.749334037303924560546875</LongitudeDegrees>
            </Position>
            <AltitudeMeters>8.6000003814697265625</AltitudeMeters>
            <DistanceMeters>NAN</DistanceMeters>
          </Trackpoint>
          <Trackpoint>
            <Time>2021-08-11T09:44:19.000Z</Time>
            <Position>
              <LatitudeDegrees>43.330905251204967498779296875</LatitudeDegrees>
              <LongitudeDegrees>-1.74941249191761016845703125</LongitudeDegrees>
            </Position>
            <AltitudeMeters>8.6000003814697265625</AltitudeMeters>
            <DistanceMeters>NAN</DistanceMeters>
          </Trackpoint>
          <Trackpoint>
            <Time>2021-08-11T09:44:20.000Z</Time>
            <Position>
              <LatitudeDegrees>43.33093232475221157073974609375</LatitudeDegrees>
              <LongitudeDegrees>-1.74946077167987823486328125</LongitudeDegrees>
            </Position>
            <AltitudeMeters>8.80000019073486328125</AltitudeMeters>
            <DistanceMeters>NAN</DistanceMeters>
          </Trackpoint>
          <Trackpoint>
            <Time>2021-08-11T09:44:21.000Z</Time>
            <Position>
              <LatitudeDegrees>43.33096182905137538909912109375</LatitudeDegrees>
              <LongitudeDegrees>-1.749522127211093902587890625</LongitudeDegrees>
            </Position>
            <AltitudeMeters>9</AltitudeMeters>
            <DistanceMeters>NAN</DistanceMeters>
          </Trackpoint>
          <Trackpoint>
            <Time>2021-08-11T09:44:22.000Z</Time>
            <Position>
              <LatitudeDegrees>43.33099854178726673126220703125</LatitudeDegrees>
              <LongitudeDegrees>-1.749595887959003448486328125</LongitudeDegrees>
            </Position>
            <AltitudeMeters>9</AltitudeMeters>
            <DistanceMeters>NAN</DistanceMeters>
          </Trackpoint>
          <Trackpoint>
            <Time>2021-08-11T09:44:23.000Z</Time>
            <Position>
              <LatitudeDegrees>43.33102737553417682647705078125</LatitudeDegrees>
              <LongitudeDegrees>-1.7496443353593349456787109375</LongitudeDegrees>
            </Position>
            <AltitudeMeters>9.19999980926513671875</AltitudeMeters>
            <DistanceMeters>NAN</DistanceMeters>
          </Trackpoint>
          <Trackpoint>
            <Time>2021-08-11T09:44:25.000Z</Time>
            <Position>
              <LatitudeDegrees>43.3310906589031219482421875</LatitudeDegrees>
              <LongitudeDegrees>-1.7497714050114154815673828125</LongitudeDegrees>
            </Position>
            <AltitudeMeters>9.19999980926513671875</AltitudeMeters>
            <DistanceMeters>NAN</DistanceMeters>
          </Trackpoint>
          <Trackpoint>
            <Time>2021-08-11T09:44:26.000Z</Time>
            <Position>
              <LatitudeDegrees>43.3310906589031219482421875</LatitudeDegrees>
              <LongitudeDegrees>-1.7497714050114154815673828125</LongitudeDegrees>
            </Position>
            <AltitudeMeters>9.19999980926513671875</AltitudeMeters>
            <DistanceMeters>NAN</DistanceMeters>
          </Trackpoint>
          <Trackpoint>
            <Time>2021-08-11T09:44:27.000Z</Time>
            <Position>
              <LatitudeDegrees>43.33116534166038036346435546875</LatitudeDegrees>
              <LongitudeDegrees>-1.74992152489721775054931640625</LongitudeDegrees>
            </Position>
            <AltitudeMeters>9.19999980926513671875</AltitudeMeters>
            <DistanceMeters>NAN</DistanceMeters>
          </Trackpoint>
          <Trackpoint>
            <Time>2021-08-11T09:44:31.000Z</Time>
            <Position>
              <LatitudeDegrees>43.33125502802431583404541015625</LatitudeDegrees>
              <LongitudeDegrees>-1.75019661895930767059326171875</LongitudeDegrees>
            </Position>
            <AltitudeMeters>9.19999980926513671875</AltitudeMeters>
            <DistanceMeters>NAN</DistanceMeters>
          </Trackpoint>
          <Trackpoint>
            <Time>2021-08-11T09:44:37.000Z</Time>
            <Position>
              <LatitudeDegrees>43.3314291201531887054443359375</LatitudeDegrees>
              <LongitudeDegrees>-1.750594675540924072265625</LongitudeDegrees>
            </Position>
            <AltitudeMeters>9.19999980926513671875</AltitudeMeters>
            <DistanceMeters>NAN</DistanceMeters>
          </Trackpoint>
          <Trackpoint>
            <Time>2021-08-11T09:44:38.000Z</Time>
            <Position>
              <LatitudeDegrees>43.3314599655568599700927734375</LatitudeDegrees>
              <LongitudeDegrees>-1.7506578750908374786376953125</LongitudeDegrees>
            </Position>
            <AltitudeMeters>9.19999980926513671875</AltitudeMeters>
            <DistanceMeters>NAN</DistanceMeters>
          </Trackpoint>
          <Trackpoint>
            <Time>2021-08-11T09:44:39.000Z</Time>
            <Position>
              <LatitudeDegrees>43.33148737438023090362548828125</LatitudeDegrees>
              <LongitudeDegrees>-1.75071110017597675323486328125</LongitudeDegrees>
            </Position>
            <AltitudeMeters>9</AltitudeMeters>
            <DistanceMeters>NAN</DistanceMeters>
          </Trackpoint>
          <Trackpoint>
            <Time>2021-08-11T09:44:44.000Z</Time>
            <Position>
              <LatitudeDegrees>43.33165501244366168975830078125</LatitudeDegrees>
              <LongitudeDegrees>-1.75103799439966678619384765625</LongitudeDegrees>
            </Position>
            <AltitudeMeters>8.80000019073486328125</AltitudeMeters>
            <DistanceMeters>NAN</DistanceMeters>
          </Trackpoint>
          <Trackpoint>
            <Time>2021-08-11T09:44:45.000Z</Time>
            <Position>
              <LatitudeDegrees>43.33168518729507923126220703125</LatitudeDegrees>
              <LongitudeDegrees>-1.7510833404958248138427734375</LongitudeDegrees>
            </Position>
            <AltitudeMeters>8.80000019073486328125</AltitudeMeters>
            <DistanceMeters>NAN</DistanceMeters>
          </Trackpoint>
          <Trackpoint>
            <Time>2021-08-11T09:44:52.000Z</Time>
            <Position>
              <LatitudeDegrees>43.33196899853646755218505859375</LatitudeDegrees>
              <LongitudeDegrees>-1.751506961882114410400390625</LongitudeDegrees>
            </Position>
            <AltitudeMeters>8.6000003814697265625</AltitudeMeters>
            <DistanceMeters>NAN</DistanceMeters>
          </Trackpoint>
          <Trackpoint>
            <Time>2021-08-11T09:44:55.000Z</Time>
            <Position>
              <LatitudeDegrees>43.332097828388214111328125</LatitudeDegrees>
              <LongitudeDegrees>-1.75166110508143901824951171875</LongitudeDegrees>
            </Position>
            <AltitudeMeters>8.3999996185302734375</AltitudeMeters>
            <DistanceMeters>NAN</DistanceMeters>
          </Trackpoint>
          <Trackpoint>
            <Time>2021-08-11T09:45:01.000Z</Time>
            <Position>
              <LatitudeDegrees>43.332345597445964813232421875</LatitudeDegrees>
              <LongitudeDegrees>-1.75198095850646495819091796875</LongitudeDegrees>
            </Position>
            <AltitudeMeters>8.6000003814697265625</AltitudeMeters>
            <DistanceMeters>NAN</DistanceMeters>
          </Trackpoint>
          <Trackpoint>
            <Time>2021-08-11T09:45:02.000Z</Time>
            <Position>
              <LatitudeDegrees>43.33238926716148853302001953125</LatitudeDegrees>
              <LongitudeDegrees>-1.7520422302186489105224609375</LongitudeDegrees>
            </Position>
            <AltitudeMeters>8.6000003814697265625</AltitudeMeters>
            <DistanceMeters>NAN</DistanceMeters>
          </Trackpoint>
          <Trackpoint>
            <Time>2021-08-11T09:45:05.000Z</Time>
            <Position>
              <LatitudeDegrees>43.33249957300722599029541015625</LatitudeDegrees>
              <LongitudeDegrees>-1.75219134427607059478759765625</LongitudeDegrees>
            </Position>
            <AltitudeMeters>8.80000019073486328125</AltitudeMeters>
            <DistanceMeters>NAN</DistanceMeters>
          </Trackpoint>
          <Trackpoint>
            <Time>2021-08-11T09:45:06.000Z</Time>
            <Position>
              <LatitudeDegrees>43.33253544755280017852783203125</LatitudeDegrees>
              <LongitudeDegrees>-1.75224046222865581512451171875</LongitudeDegrees>
            </Position>
            <AltitudeMeters>8.80000019073486328125</AltitudeMeters>
            <DistanceMeters>NAN</DistanceMeters>
          </Trackpoint>
          <Trackpoint>
            <Time>2021-08-11T09:45:07.000Z</Time>
            <Position>
              <LatitudeDegrees>43.332569897174835205078125</LatitudeDegrees>
              <LongitudeDegrees>-1.75228807143867015838623046875</LongitudeDegrees>
            </Position>
            <AltitudeMeters>8.80000019073486328125</AltitudeMeters>
            <DistanceMeters>NAN</DistanceMeters>
          </Trackpoint>
          <Trackpoint>
            <Time>2021-08-11T09:45:08.000Z</Time>
            <Position>
              <LatitudeDegrees>43.33260853774845600128173828125</LatitudeDegrees>
              <LongitudeDegrees>-1.752336435019969940185546875</LongitudeDegrees>
            </Position>
            <AltitudeMeters>9</AltitudeMeters>
            <DistanceMeters>NAN</DistanceMeters>
          </Trackpoint>
          <Trackpoint>
            <Time>2021-08-11T09:45:09.000Z</Time>
            <Position>
              <LatitudeDegrees>43.33264491520822048187255859375</LatitudeDegrees>
              <LongitudeDegrees>-1.75238245166838169097900390625</LongitudeDegrees>
            </Position>
            <AltitudeMeters>9.19999980926513671875</AltitudeMeters>
            <DistanceMeters>NAN</DistanceMeters>
          </Trackpoint>
          <Trackpoint>
            <Time>2021-08-11T09:45:10.000Z</Time>
            <Position>
              <LatitudeDegrees>43.33267894573509693145751953125</LatitudeDegrees>
              <LongitudeDegrees>-1.7524281330406665802001953125</LongitudeDegrees>
            </Position>
            <AltitudeMeters>9.19999980926513671875</AltitudeMeters>
            <DistanceMeters>NAN</DistanceMeters>
          </Trackpoint>
          <Trackpoint>
            <Time>2021-08-11T09:45:11.000Z</Time>
            <Position>
              <LatitudeDegrees>43.33271540701389312744140625</LatitudeDegrees>
              <LongitudeDegrees>-1.75247632898390293121337890625</LongitudeDegrees>
            </Position>
            <AltitudeMeters>9.19999980926513671875</AltitudeMeters>
            <DistanceMeters>NAN</DistanceMeters>
          </Trackpoint>
          <Trackpoint>
            <Time>2021-08-11T09:45:12.000Z</Time>
            <Position>
              <LatitudeDegrees>43.3327504433691501617431640625</LatitudeDegrees>
              <LongitudeDegrees>-1.75253232009708881378173828125</LongitudeDegrees>
            </Position>
            <AltitudeMeters>9.3999996185302734375</AltitudeMeters>
            <DistanceMeters>NAN</DistanceMeters>
          </Trackpoint>
          <Trackpoint>
            <Time>2021-08-11T09:45:13.000Z</Time>
            <Position>
              <LatitudeDegrees>43.33278086967766284942626953125</LatitudeDegrees>
              <LongitudeDegrees>-1.7525857128202915191650390625</LongitudeDegrees>
            </Position>
            <AltitudeMeters>9.3999996185302734375</AltitudeMeters>
            <DistanceMeters>NAN</DistanceMeters>
          </Trackpoint>
          <Trackpoint>
            <Time>2021-08-11T09:45:15.000Z</Time>
            <Position>
              <LatitudeDegrees>43.33284440450370311737060546875</LatitudeDegrees>
              <LongitudeDegrees>-1.75267062149941921234130859375</LongitudeDegrees>
            </Position>
            <AltitudeMeters>9.6000003814697265625</AltitudeMeters>
            <DistanceMeters>NAN</DistanceMeters>
          </Trackpoint>
          <Trackpoint>
            <Time>2021-08-11T09:45:16.000Z</Time>
            <Position>
              <LatitudeDegrees>43.3328781835734844207763671875</LatitudeDegrees>
              <LongitudeDegrees>-1.7527017183601856231689453125</LongitudeDegrees>
            </Position>
            <AltitudeMeters>9.6000003814697265625</AltitudeMeters>
            <DistanceMeters>NAN</DistanceMeters>
          </Trackpoint>
          <Trackpoint>
            <Time>2021-08-11T09:45:17.000Z</Time>
            <Position>
              <LatitudeDegrees>43.3329150639474391937255859375</LatitudeDegrees>
              <LongitudeDegrees>-1.7527349106967449188232421875</LongitudeDegrees>
            </Position>
            <AltitudeMeters>10</AltitudeMeters>
            <DistanceMeters>NAN</DistanceMeters>
          </Trackpoint>
          <Trackpoint>
            <Time>2021-08-11T09:45:23.000Z</Time>
            <Position>
              <LatitudeDegrees>43.33315386436879634857177734375</LatitudeDegrees>
              <LongitudeDegrees>-1.7529079131782054901123046875</LongitudeDegrees>
            </Position>
            <AltitudeMeters>10.6000003814697265625</AltitudeMeters>
            <DistanceMeters>NAN</DistanceMeters>
          </Trackpoint>
          <Trackpoint>
            <Time>2021-08-11T09:45:24.000Z</Time>
            <Position>
              <LatitudeDegrees>43.3331963606178760528564453125</LatitudeDegrees>
              <LongitudeDegrees>-1.7529347352683544158935546875</LongitudeDegrees>
            </Position>
            <AltitudeMeters>10.6000003814697265625</AltitudeMeters>
            <DistanceMeters>NAN</DistanceMeters>
          </Trackpoint>
          <Trackpoint>
            <Time>2021-08-11T09:45:31.000Z</Time>
            <Position>
              <LatitudeDegrees>43.33349014632403850555419921875</LatitudeDegrees>
              <LongitudeDegrees>-1.7531157843768596649169921875</LongitudeDegrees>
            </Position>
            <AltitudeMeters>10.80000019073486328125</AltitudeMeters>
            <DistanceMeters>NAN</DistanceMeters>
          </Trackpoint>
          <Trackpoint>
            <Time>2021-08-11T09:45:33.000Z</Time>
            <Position>
              <LatitudeDegrees>43.33357078023254871368408203125</LatitudeDegrees>
              <LongitudeDegrees>-1.753159873187541961669921875</LongitudeDegrees>
            </Position>
            <AltitudeMeters>11</AltitudeMeters>
            <DistanceMeters>NAN</DistanceMeters>
          </Trackpoint>
          <Trackpoint>
            <Time>2021-08-11T09:45:34.000Z</Time>
            <Position>
              <LatitudeDegrees>43.333604224026203155517578125</LatitudeDegrees>
              <LongitudeDegrees>-1.753175966441631317138671875</LongitudeDegrees>
            </Position>
            <AltitudeMeters>11</AltitudeMeters>
            <DistanceMeters>NAN</DistanceMeters>
          </Trackpoint>
          <Trackpoint>
            <Time>2021-08-11T09:45:35.000Z</Time>
            <Position>
              <LatitudeDegrees>43.333653844892978668212890625</LatitudeDegrees>
              <LongitudeDegrees>-1.75319985486567020416259765625</LongitudeDegrees>
            </Position>
            <AltitudeMeters>11</AltitudeMeters>
            <DistanceMeters>NAN</DistanceMeters>
          </Trackpoint>
          <Trackpoint>
            <Time>2021-08-11T09:45:36.000Z</Time>
            <Position>
              <LatitudeDegrees>43.333692736923694610595703125</LatitudeDegrees>
              <LongitudeDegrees>-1.75321854650974273681640625</LongitudeDegrees>
            </Position>
            <AltitudeMeters>11</AltitudeMeters>
            <DistanceMeters>NAN</DistanceMeters>
          </Trackpoint>
          <Trackpoint>
            <Time>2021-08-11T09:45:37.000Z</Time>
            <Position>
              <LatitudeDegrees>43.3337317965924739837646484375</LatitudeDegrees>
              <LongitudeDegrees>-1.7532312870025634765625</LongitudeDegrees>
            </Position>
            <AltitudeMeters>11.19999980926513671875</AltitudeMeters>
            <DistanceMeters>NAN</DistanceMeters>
          </Trackpoint>
          <Trackpoint>
            <Time>2021-08-11T09:45:38.000Z</Time>
            <Position>
              <LatitudeDegrees>43.33377077244222164154052734375</LatitudeDegrees>
              <LongitudeDegrees>-1.75324377603828907012939453125</LongitudeDegrees>
            </Position>
            <AltitudeMeters>11.3999996185302734375</AltitudeMeters>
            <DistanceMeters>NAN</DistanceMeters>
          </Trackpoint>
          <Trackpoint>
            <Time>2021-08-11T09:45:39.000Z</Time>
            <Position>
              <LatitudeDegrees>43.333809413015842437744140625</LatitudeDegrees>
              <LongitudeDegrees>-1.753255762159824371337890625</LongitudeDegrees>
            </Position>
            <AltitudeMeters>11.3999996185302734375</AltitudeMeters>
            <DistanceMeters>NAN</DistanceMeters>
          </Trackpoint>
          <Trackpoint>
            <Time>2021-08-11T09:45:40.000Z</Time>
            <Position>
              <LatitudeDegrees>43.3338478021323680877685546875</LatitudeDegrees>
              <LongitudeDegrees>-1.753266490995883941650390625</LongitudeDegrees>
            </Position>
            <AltitudeMeters>11.6000003814697265625</AltitudeMeters>
            <DistanceMeters>NAN</DistanceMeters>
          </Trackpoint>
          <Trackpoint>
            <Time>2021-08-11T09:45:41.000Z</Time>
            <Position>
              <LatitudeDegrees>43.33388510160148143768310546875</LatitudeDegrees>
              <LongitudeDegrees>-1.7532753758132457733154296875</LongitudeDegrees>
            </Position>
            <AltitudeMeters>11.80000019073486328125</AltitudeMeters>
            <DistanceMeters>NAN</DistanceMeters>
          </Trackpoint>
          <Trackpoint>
            <Time>2021-08-11T09:45:42.000Z</Time>
            <Position>
              <LatitudeDegrees>43.33392441272735595703125</LatitudeDegrees>
              <LongitudeDegrees>-1.753286607563495635986328125</LongitudeDegrees>
            </Position>
            <AltitudeMeters>12.19999980926513671875</AltitudeMeters>
            <DistanceMeters>NAN</DistanceMeters>
          </Trackpoint>
          <Trackpoint>
            <Time>2021-08-11T09:45:43.000Z</Time>
            <Position>
              <LatitudeDegrees>43.33396439440548419952392578125</LatitudeDegrees>
              <LongitudeDegrees>-1.75329423509538173675537109375</LongitudeDegrees>
            </Position>
            <AltitudeMeters>12.19999980926513671875</AltitudeMeters>
            <DistanceMeters>NAN</DistanceMeters>
          </Trackpoint>
          <Trackpoint>
            <Time>2021-08-11T09:45:45.000Z</Time>
            <Position>
              <LatitudeDegrees>43.3340422622859477996826171875</LatitudeDegrees>
              <LongitudeDegrees>-1.7533068917691707611083984375</LongitudeDegrees>
            </Position>
            <AltitudeMeters>13</AltitudeMeters>
            <DistanceMeters>NAN</DistanceMeters>
          </Trackpoint>
          <Trackpoint>
            <Time>2021-08-11T09:45:46.000Z</Time>
            <Position>
              <LatitudeDegrees>43.33408174104988574981689453125</LatitudeDegrees>
              <LongitudeDegrees>-1.75331099890172481536865234375</LongitudeDegrees>
            </Position>
            <AltitudeMeters>13.19999980926513671875</AltitudeMeters>
            <DistanceMeters>NAN</DistanceMeters>
          </Trackpoint>
          <Trackpoint>
            <Time>2021-08-11T09:45:47.000Z</Time>
            <Position>
              <LatitudeDegrees>43.3341233991086483001708984375</LatitudeDegrees>
              <LongitudeDegrees>-1.75331586040556430816650390625</LongitudeDegrees>
            </Position>
            <AltitudeMeters>13.3999996185302734375</AltitudeMeters>
            <DistanceMeters>NAN</DistanceMeters>
          </Trackpoint>
          <Trackpoint>
            <Time>2021-08-11T09:45:48.000Z</Time>
            <Position>
              <LatitudeDegrees>43.33416405133903026580810546875</LatitudeDegrees>
              <LongitudeDegrees>-1.75332223065197467803955078125</LongitudeDegrees>
            </Position>
            <AltitudeMeters>13.6000003814697265625</AltitudeMeters>
            <DistanceMeters>NAN</DistanceMeters>
          </Trackpoint>
          <Trackpoint>
            <Time>2021-08-11T09:45:49.000Z</Time>
            <Position>
              <LatitudeDegrees>43.33419975824654102325439453125</LatitudeDegrees>
              <LongitudeDegrees>-1.75332625396549701690673828125</LongitudeDegrees>
            </Position>
            <AltitudeMeters>13.80000019073486328125</AltitudeMeters>
            <DistanceMeters>NAN</DistanceMeters>
          </Trackpoint>
          <Trackpoint>
            <Time>2021-08-11T09:45:50.000Z</Time>
            <Position>
              <LatitudeDegrees>43.33423680625855922698974609375</LatitudeDegrees>
              <LongitudeDegrees>-1.75333254039287567138671875</LongitudeDegrees>
            </Position>
            <AltitudeMeters>13.80000019073486328125</AltitudeMeters>
            <DistanceMeters>NAN</DistanceMeters>
          </Trackpoint>
          <Trackpoint>
            <Time>2021-08-11T09:45:51.000Z</Time>
            <Position>
              <LatitudeDegrees>43.3342729322612285614013671875</LatitudeDegrees>
              <LongitudeDegrees>-1.753337569534778594970703125</LongitudeDegrees>
            </Position>
            <AltitudeMeters>14</AltitudeMeters>
            <DistanceMeters>NAN</DistanceMeters>
          </Trackpoint>
          <Trackpoint>
            <Time>2021-08-11T09:45:52.000Z</Time>
            <Position>
              <LatitudeDegrees>43.3343101479113101959228515625</LatitudeDegrees>
              <LongitudeDegrees>-1.7533425986766815185546875</LongitudeDegrees>
            </Position>
            <AltitudeMeters>14</AltitudeMeters>
            <DistanceMeters>NAN</DistanceMeters>
          </Trackpoint>
          <Trackpoint>
            <Time>2021-08-11T09:45:53.000Z</Time>
            <Position>
              <LatitudeDegrees>43.33434359170496463775634765625</LatitudeDegrees>
              <LongitudeDegrees>-1.75334989093244075775146484375</LongitudeDegrees>
            </Position>
            <AltitudeMeters>14.19999980926513671875</AltitudeMeters>
            <DistanceMeters>NAN</DistanceMeters>
          </Trackpoint>
          <Trackpoint>
            <Time>2021-08-11T09:45:54.000Z</Time>
            <Position>
              <LatitudeDegrees>43.33437502384185791015625</LatitudeDegrees>
              <LongitudeDegrees>-1.7533568479120731353759765625</LongitudeDegrees>
            </Position>
            <AltitudeMeters>14.19999980926513671875</AltitudeMeters>
            <DistanceMeters>NAN</DistanceMeters>
          </Trackpoint>
          <Trackpoint>
            <Time>2021-08-11T09:45:55.000Z</Time>
            <Position>
              <LatitudeDegrees>43.3344058692455291748046875</LatitudeDegrees>
              <LongitudeDegrees>-1.75336212851107120513916015625</LongitudeDegrees>
            </Position>
            <AltitudeMeters>14.3999996185302734375</AltitudeMeters>
            <DistanceMeters>NAN</DistanceMeters>
          </Trackpoint>
          <Trackpoint>
            <Time>2021-08-11T09:45:56.000Z</Time>
            <Position>
              <LatitudeDegrees>43.33444048650562763214111328125</LatitudeDegrees>
              <LongitudeDegrees>-1.75336548127233982086181640625</LongitudeDegrees>
            </Position>
            <AltitudeMeters>14.3999996185302734375</AltitudeMeters>
            <DistanceMeters>NAN</DistanceMeters>
          </Trackpoint>
          <Trackpoint>
            <Time>2021-08-11T09:45:57.000Z</Time>
            <Position>
              <LatitudeDegrees>43.33447585813701152801513671875</LatitudeDegrees>
              <LongitudeDegrees>-1.75336631946265697479248046875</LongitudeDegrees>
            </Position>
            <AltitudeMeters>14.3999996185302734375</AltitudeMeters>
            <DistanceMeters>NAN</DistanceMeters>
          </Trackpoint>
          <Trackpoint>
            <Time>2021-08-11T09:45:58.000Z</Time>
            <Position>
              <LatitudeDegrees>43.33451005630195140838623046875</LatitudeDegrees>
              <LongitudeDegrees>-1.75336799584329128265380859375</LongitudeDegrees>
            </Position>
            <AltitudeMeters>14.6000003814697265625</AltitudeMeters>
            <DistanceMeters>NAN</DistanceMeters>
          </Trackpoint>
          <Trackpoint>
            <Time>2021-08-11T09:45:59.000Z</Time>
            <Position>
              <LatitudeDegrees>43.3345411531627178192138671875</LatitudeDegrees>
              <LongitudeDegrees>-1.7533709295094013214111328125</LongitudeDegrees>
            </Position>
            <AltitudeMeters>14.80000019073486328125</AltitudeMeters>
            <DistanceMeters>NAN</DistanceMeters>
          </Trackpoint>
          <Trackpoint>
            <Time>2021-08-11T09:46:00.000Z</Time>
            <Position>
              <LatitudeDegrees>43.3345703221857547760009765625</LatitudeDegrees>
              <LongitudeDegrees>-1.7533747851848602294921875</LongitudeDegrees>
            </Position>
            <AltitudeMeters>15</AltitudeMeters>
            <DistanceMeters>NAN</DistanceMeters>
          </Trackpoint>
          <Trackpoint>
            <Time>2021-08-11T09:46:01.000Z</Time>
            <Position>
              <LatitudeDegrees>43.334596641361713409423828125</LatitudeDegrees>
              <LongitudeDegrees>-1.75337545573711395263671875</LongitudeDegrees>
            </Position>
            <AltitudeMeters>15</AltitudeMeters>
            <DistanceMeters>NAN</DistanceMeters>
          </Trackpoint>
          <Trackpoint>
            <Time>2021-08-11T09:46:02.000Z</Time>
            <Position>
              <LatitudeDegrees>43.33462690003216266632080078125</LatitudeDegrees>
              <LongitudeDegrees>-1.753375120460987091064453125</LongitudeDegrees>
            </Position>
            <AltitudeMeters>15</AltitudeMeters>
            <DistanceMeters>NAN</DistanceMeters>
          </Trackpoint>
          <Trackpoint>
            <Time>2021-08-11T09:46:03.000Z</Time>
            <Position>
              <LatitudeDegrees>43.33466269075870513916015625</LatitudeDegrees>
              <LongitudeDegrees>-1.7533729411661624908447265625</LongitudeDegrees>
            </Position>
            <AltitudeMeters>15</AltitudeMeters>
            <DistanceMeters>NAN</DistanceMeters>
          </Trackpoint>
          <Trackpoint>
            <Time>2021-08-11T09:46:04.000Z</Time>
            <Position>
              <LatitudeDegrees>43.33469831384718418121337890625</LatitudeDegrees>
              <LongitudeDegrees>-1.7533694207668304443359375</LongitudeDegrees>
            </Position>
            <AltitudeMeters>15</AltitudeMeters>
            <DistanceMeters>NAN</DistanceMeters>
          </Trackpoint>
          <Trackpoint>
            <Time>2021-08-11T09:46:05.000Z</Time>
            <Position>
              <LatitudeDegrees>43.3347356133162975311279296875</LatitudeDegrees>
              <LongitudeDegrees>-1.75336749292910099029541015625</LongitudeDegrees>
            </Position>
            <AltitudeMeters>15.19999980926513671875</AltitudeMeters>
            <DistanceMeters>NAN</DistanceMeters>
          </Trackpoint>
          <Trackpoint>
            <Time>2021-08-11T09:46:06.000Z</Time>
            <Position>
              <LatitudeDegrees>43.334774337708950042724609375</LatitudeDegrees>
              <LongitudeDegrees>-1.753362715244293212890625</LongitudeDegrees>
            </Position>
            <AltitudeMeters>15.19999980926513671875</AltitudeMeters>
            <DistanceMeters>NAN</DistanceMeters>
          </Trackpoint>
          <Trackpoint>
            <Time>2021-08-11T09:46:07.000Z</Time>
            <Position>
              <LatitudeDegrees>43.3348113857209682464599609375</LatitudeDegrees>
              <LongitudeDegrees>-1.75335810519754886627197265625</LongitudeDegrees>
            </Position>
            <AltitudeMeters>15.19999980926513671875</AltitudeMeters>
            <DistanceMeters>NAN</DistanceMeters>
          </Trackpoint>
          <Trackpoint>
            <Time>2021-08-11T09:46:08.000Z</Time>
            <Position>
              <LatitudeDegrees>43.3348479308187961578369140625</LatitudeDegrees>
              <LongitudeDegrees>-1.753351986408233642578125</LongitudeDegrees>
            </Position>
            <AltitudeMeters>15.19999980926513671875</AltitudeMeters>
            <DistanceMeters>NAN</DistanceMeters>
          </Trackpoint>
          <Trackpoint>
            <Time>2021-08-11T09:46:09.000Z</Time>
            <Position>
              <LatitudeDegrees>43.3348884992301464080810546875</LatitudeDegrees>
              <LongitudeDegrees>-1.75334787927567958831787109375</LongitudeDegrees>
            </Position>
            <AltitudeMeters>15.19999980926513671875</AltitudeMeters>
            <DistanceMeters>NAN</DistanceMeters>
          </Trackpoint>
          <Trackpoint>
            <Time>2021-08-11T09:46:10.000Z</Time>
            <Position>
              <LatitudeDegrees>43.33493116311728954315185546875</LatitudeDegrees>
              <LongitudeDegrees>-1.75334301777184009552001953125</LongitudeDegrees>
            </Position>
            <AltitudeMeters>15.3999996185302734375</AltitudeMeters>
            <DistanceMeters>NAN</DistanceMeters>
          </Trackpoint>
          <Trackpoint>
            <Time>2021-08-11T09:46:11.000Z</Time>
            <Position>
              <LatitudeDegrees>43.3349664509296417236328125</LatitudeDegrees>
              <LongitudeDegrees>-1.75333656370639801025390625</LongitudeDegrees>
            </Position>
            <AltitudeMeters>15.3999996185302734375</AltitudeMeters>
            <DistanceMeters>NAN</DistanceMeters>
          </Trackpoint>
          <Trackpoint>
            <Time>2021-08-11T09:46:12.000Z</Time>
            <Position>
              <LatitudeDegrees>43.3350098691880702972412109375</LatitudeDegrees>
              <LongitudeDegrees>-1.75332843326032161712646484375</LongitudeDegrees>
            </Position>
            <AltitudeMeters>15.19999980926513671875</AltitudeMeters>
            <DistanceMeters>NAN</DistanceMeters>
          </Trackpoint>
          <Trackpoint>
            <Time>2021-08-11T09:46:13.000Z</Time>
            <Position>
              <LatitudeDegrees>43.33505186252295970916748046875</LatitudeDegrees>
              <LongitudeDegrees>-1.75331904552876949310302734375</LongitudeDegrees>
            </Position>
            <AltitudeMeters>15</AltitudeMeters>
            <DistanceMeters>NAN</DistanceMeters>
          </Trackpoint>
          <Trackpoint>
            <Time>2021-08-11T09:46:14.000Z</Time>
            <Position>
              <LatitudeDegrees>43.3350900001823902130126953125</LatitudeDegrees>
              <LongitudeDegrees>-1.7533052153885364532470703125</LongitudeDegrees>
            </Position>
            <AltitudeMeters>15</AltitudeMeters>
            <DistanceMeters>NAN</DistanceMeters>
          </Trackpoint>
          <Trackpoint>
            <Time>2021-08-11T09:46:17.000Z</Time>
            <Position>
              <LatitudeDegrees>43.3352039940655231475830078125</LatitudeDegrees>
              <LongitudeDegrees>-1.75324536859989166259765625</LongitudeDegrees>
            </Position>
            <AltitudeMeters>15</AltitudeMeters>
            <DistanceMeters>NAN</DistanceMeters>
          </Trackpoint>
          <Trackpoint>
            <Time>2021-08-11T09:46:20.000Z</Time>
            <Position>
              <LatitudeDegrees>43.33530868403613567352294921875</LatitudeDegrees>
              <LongitudeDegrees>-1.75315811298787593841552734375</LongitudeDegrees>
            </Position>
            <AltitudeMeters>14.80000019073486328125</AltitudeMeters>
            <DistanceMeters>NAN</DistanceMeters>
          </Trackpoint>
          <Trackpoint>
            <Time>2021-08-11T09:46:21.000Z</Time>
            <Position>
              <LatitudeDegrees>43.33533014170825481414794921875</LatitudeDegrees>
              <LongitudeDegrees>-1.75313682295382022857666015625</LongitudeDegrees>
            </Position>
            <AltitudeMeters>15</AltitudeMeters>
            <DistanceMeters>NAN</DistanceMeters>
          </Trackpoint>
          <Trackpoint>
            <Time>2021-08-11T09:46:22.000Z</Time>
            <Position>
              <LatitudeDegrees>43.3353568799793720245361328125</LatitudeDegrees>
              <LongitudeDegrees>-1.75310782156884670257568359375</LongitudeDegrees>
            </Position>
            <AltitudeMeters>14.80000019073486328125</AltitudeMeters>
            <DistanceMeters>NAN</DistanceMeters>
          </Trackpoint>
          <Trackpoint>
            <Time>2021-08-11T09:46:23.000Z</Time>
            <Position>
              <LatitudeDegrees>43.33538546226918697357177734375</LatitudeDegrees>
              <LongitudeDegrees>-1.7530735395848751068115234375</LongitudeDegrees>
            </Position>
            <AltitudeMeters>14.6000003814697265625</AltitudeMeters>
            <DistanceMeters>NAN</DistanceMeters>
          </Trackpoint>
          <Trackpoint>
            <Time>2021-08-11T09:46:24.000Z</Time>
            <Position>
              <LatitudeDegrees>43.3354063332080841064453125</LatitudeDegrees>
              <LongitudeDegrees>-1.753043867647647857666015625</LongitudeDegrees>
            </Position>
            <AltitudeMeters>14.6000003814697265625</AltitudeMeters>
            <DistanceMeters>NAN</DistanceMeters>
          </Trackpoint>
          <Trackpoint>
            <Time>2021-08-11T09:46:25.000Z</Time>
            <Position>
              <LatitudeDegrees>43.33542301319539546966552734375</LatitudeDegrees>
              <LongitudeDegrees>-1.7530148662626743316650390625</LongitudeDegrees>
            </Position>
            <AltitudeMeters>14.80000019073486328125</AltitudeMeters>
            <DistanceMeters>NAN</DistanceMeters>
          </Trackpoint>
          <Trackpoint>
            <Time>2021-08-11T09:46:26.000Z</Time>
            <Position>
              <LatitudeDegrees>43.3354413695633411407470703125</LatitudeDegrees>
              <LongitudeDegrees>-1.75298611633479595184326171875</LongitudeDegrees>
            </Position>
            <AltitudeMeters>14.80000019073486328125</AltitudeMeters>
            <DistanceMeters>NAN</DistanceMeters>
          </Trackpoint>
          <Trackpoint>
            <Time>2021-08-11T09:46:27.000Z</Time>
            <Position>
              <LatitudeDegrees>43.3354588039219379425048828125</LatitudeDegrees>
              <LongitudeDegrees>-1.752957366406917572021484375</LongitudeDegrees>
            </Position>
            <AltitudeMeters>14.80000019073486328125</AltitudeMeters>
            <DistanceMeters>NAN</DistanceMeters>
          </Trackpoint>
          <Trackpoint>
            <Time>2021-08-11T09:46:29.000Z</Time>
            <Position>
              <LatitudeDegrees>43.335491828620433807373046875</LatitudeDegrees>
              <LongitudeDegrees>-1.75290380604565143585205078125</LongitudeDegrees>
            </Position>
            <AltitudeMeters>14.80000019073486328125</AltitudeMeters>
            <DistanceMeters>NAN</DistanceMeters>
          </Trackpoint>
          <Trackpoint>
            <Time>2021-08-11T09:46:30.000Z</Time>
            <Position>
              <LatitudeDegrees>43.33550917915999889373779296875</LatitudeDegrees>
              <LongitudeDegrees>-1.7528784088790416717529296875</LongitudeDegrees>
            </Position>
            <AltitudeMeters>14.80000019073486328125</AltitudeMeters>
            <DistanceMeters>NAN</DistanceMeters>
          </Trackpoint>
          <Trackpoint>
            <Time>2021-08-11T09:46:31.000Z</Time>
            <Position>
              <LatitudeDegrees>43.33552024327218532562255859375</LatitudeDegrees>
              <LongitudeDegrees>-1.7528606392443180084228515625</LongitudeDegrees>
            </Position>
            <AltitudeMeters>14.80000019073486328125</AltitudeMeters>
            <DistanceMeters>NAN</DistanceMeters>
          </Trackpoint>
          <Trackpoint>
            <Time>2021-08-11T09:46:32.000Z</Time>
            <Position>
              <LatitudeDegrees>43.33553214557468891143798828125</LatitudeDegrees>
              <LongitudeDegrees>-1.75284278579056262969970703125</LongitudeDegrees>
            </Position>
            <AltitudeMeters>14.6000003814697265625</AltitudeMeters>
            <DistanceMeters>NAN</DistanceMeters>
          </Trackpoint>
          <Trackpoint>
            <Time>2021-08-11T09:46:33.000Z</Time>
            <Position>
              <LatitudeDegrees>43.335542790591716766357421875</LatitudeDegrees>
              <LongitudeDegrees>-1.7528224177658557891845703125</LongitudeDegrees>
            </Position>
            <AltitudeMeters>14.3999996185302734375</AltitudeMeters>
            <DistanceMeters>NAN</DistanceMeters>
          </Trackpoint>
          <Trackpoint>
            <Time>2021-08-11T09:46:34.000Z</Time>
            <Position>
              <LatitudeDegrees>43.335552513599395751953125</LatitudeDegrees>
              <LongitudeDegrees>-1.75280389375984668731689453125</LongitudeDegrees>
            </Position>
            <AltitudeMeters>14.3999996185302734375</AltitudeMeters>
            <DistanceMeters>NAN</DistanceMeters>
          </Trackpoint>
          <Trackpoint>
            <Time>2021-08-11T09:46:35.000Z</Time>
            <Position>
              <LatitudeDegrees>43.33556097932159900665283203125</LatitudeDegrees>
              <LongitudeDegrees>-1.7527862079441547393798828125</LongitudeDegrees>
            </Position>
            <AltitudeMeters>14.19999980926513671875</AltitudeMeters>
            <DistanceMeters>NAN</DistanceMeters>
          </Trackpoint>
          <Trackpoint>
            <Time>2021-08-11T09:46:36.000Z</Time>
            <Position>
              <LatitudeDegrees>43.33556936122477054595947265625</LatitudeDegrees>
              <LongitudeDegrees>-1.752768270671367645263671875</LongitudeDegrees>
            </Position>
            <AltitudeMeters>14.19999980926513671875</AltitudeMeters>
            <DistanceMeters>NAN</DistanceMeters>
          </Trackpoint>
          <Trackpoint>
            <Time>2021-08-11T09:46:38.000Z</Time>
            <Position>
              <LatitudeDegrees>43.335585705935955047607421875</LatitudeDegrees>
              <LongitudeDegrees>-1.7527298815548419952392578125</LongitudeDegrees>
            </Position>
            <AltitudeMeters>14.19999980926513671875</AltitudeMeters>
            <DistanceMeters>NAN</DistanceMeters>
          </Trackpoint>
          <Trackpoint>
            <Time>2021-08-11T09:46:39.000Z</Time>
            <Position>
              <LatitudeDegrees>43.33559500984847545623779296875</LatitudeDegrees>
              <LongitudeDegrees>-1.7527141235768795013427734375</LongitudeDegrees>
            </Position>
            <AltitudeMeters>14</AltitudeMeters>
            <DistanceMeters>NAN</DistanceMeters>
          </Trackpoint>
          <Trackpoint>
            <Time>2021-08-11T09:46:40.000Z</Time>
            <Position>
              <LatitudeDegrees>43.3356048166751861572265625</LatitudeDegrees>
              <LongitudeDegrees>-1.7526997067034244537353515625</LongitudeDegrees>
            </Position>
            <AltitudeMeters>14</AltitudeMeters>
            <DistanceMeters>NAN</DistanceMeters>
          </Trackpoint>
          <Trackpoint>
            <Time>2021-08-11T09:46:41.000Z</Time>
            <Position>
              <LatitudeDegrees>43.33561277948319911956787109375</LatitudeDegrees>
              <LongitudeDegrees>-1.75268671475350856781005859375</LongitudeDegrees>
            </Position>
            <AltitudeMeters>14</AltitudeMeters>
            <DistanceMeters>NAN</DistanceMeters>
          </Trackpoint>
          <Trackpoint>
            <Time>2021-08-11T09:46:42.000Z</Time>
            <Position>
              <LatitudeDegrees>43.3356214128434658050537109375</LatitudeDegrees>
              <LongitudeDegrees>-1.7526738904416561126708984375</LongitudeDegrees>
            </Position>
            <AltitudeMeters>13.80000019073486328125</AltitudeMeters>
            <DistanceMeters>NAN</DistanceMeters>
          </Trackpoint>
          <Trackpoint>
            <Time>2021-08-11T09:46:43.000Z</Time>
            <Position>
              <LatitudeDegrees>43.3356294594705104827880859375</LatitudeDegrees>
              <LongitudeDegrees>-1.75266291014850139617919921875</LongitudeDegrees>
            </Position>
            <AltitudeMeters>13.80000019073486328125</AltitudeMeters>
            <DistanceMeters>NAN</DistanceMeters>
          </Trackpoint>
          <Trackpoint>
            <Time>2021-08-11T09:46:44.000Z</Time>
            <Position>
              <LatitudeDegrees>43.33563901484012603759765625</LatitudeDegrees>
              <LongitudeDegrees>-1.75265067256987094879150390625</LongitudeDegrees>
            </Position>
            <AltitudeMeters>13.6000003814697265625</AltitudeMeters>
            <DistanceMeters>NAN</DistanceMeters>
          </Trackpoint>
          <Trackpoint>
            <Time>2021-08-11T09:46:45.000Z</Time>
            <Position>
              <LatitudeDegrees>43.3356502465903759002685546875</LatitudeDegrees>
              <LongitudeDegrees>-1.7526323162019252777099609375</LongitudeDegrees>
            </Position>
            <AltitudeMeters>13.6000003814697265625</AltitudeMeters>
            <DistanceMeters>NAN</DistanceMeters>
          </Trackpoint>
          <Trackpoint>
            <Time>2021-08-11T09:46:49.000Z</Time>
            <Position>
              <LatitudeDegrees>43.33569458685815334320068359375</LatitudeDegrees>
              <LongitudeDegrees>-1.7525461502373218536376953125</LongitudeDegrees>
            </Position>
            <AltitudeMeters>13.19999980926513671875</AltitudeMeters>
            <DistanceMeters>NAN</DistanceMeters>
          </Trackpoint>
          <Trackpoint>
            <Time>2021-08-11T09:46:50.000Z</Time>
            <Position>
              <LatitudeDegrees>43.33570347167551517486572265625</LatitudeDegrees>
              <LongitudeDegrees>-1.7525272071361541748046875</LongitudeDegrees>
            </Position>
            <AltitudeMeters>13.19999980926513671875</AltitudeMeters>
            <DistanceMeters>NAN</DistanceMeters>
          </Trackpoint>
          <Trackpoint>
            <Time>2021-08-11T09:46:51.000Z</Time>
            <Position>
              <LatitudeDegrees>43.33571017719805240631103515625</LatitudeDegrees>
              <LongitudeDegrees>-1.752516813576221466064453125</LongitudeDegrees>
            </Position>
            <AltitudeMeters>13.19999980926513671875</AltitudeMeters>
            <DistanceMeters>NAN</DistanceMeters>
          </Trackpoint>
          <Trackpoint>
            <Time>2021-08-11T09:46:54.000Z</Time>
            <Position>
              <LatitudeDegrees>43.3357129432260990142822265625</LatitudeDegrees>
              <LongitudeDegrees>-1.75251220352947711944580078125</LongitudeDegrees>
            </Position>
            <AltitudeMeters>12.80000019073486328125</AltitudeMeters>
            <DistanceMeters>NAN</DistanceMeters>
          </Trackpoint>
          <Trackpoint>
            <Time>2021-08-11T09:47:52.000Z</Time>
            <Position>
              <LatitudeDegrees>43.3357129432260990142822265625</LatitudeDegrees>
              <LongitudeDegrees>-1.75251220352947711944580078125</LongitudeDegrees>
            </Position>
            <AltitudeMeters>12.6000003814697265625</AltitudeMeters>
            <DistanceMeters>NAN</DistanceMeters>
          </Trackpoint>
          <Trackpoint>
            <Time>2021-08-11T09:49:29.000Z</Time>
            <Position>
              <LatitudeDegrees>43.3357129432260990142822265625</LatitudeDegrees>
              <LongitudeDegrees>-1.75251220352947711944580078125</LongitudeDegrees>
            </Position>
            <AltitudeMeters>12.19999980926513671875</AltitudeMeters>
            <DistanceMeters>NAN</DistanceMeters>
          </Trackpoint>
          <Trackpoint>
            <Time>2021-08-11T09:50:34.000Z</Time>
            <Position>
              <LatitudeDegrees>43.335728533565998077392578125</LatitudeDegrees>
              <LongitudeDegrees>-1.7524787597358226776123046875</LongitudeDegrees>
            </Position>
            <AltitudeMeters>12</AltitudeMeters>
            <DistanceMeters>NAN</DistanceMeters>
          </Trackpoint>
          <Trackpoint>
            <Time>2021-08-11T09:50:35.000Z</Time>
            <Position>
              <LatitudeDegrees>43.33574521355330944061279296875</LatitudeDegrees>
              <LongitudeDegrees>-1.75243894569575786590576171875</LongitudeDegrees>
            </Position>
            <AltitudeMeters>12</AltitudeMeters>
            <DistanceMeters>NAN</DistanceMeters>
          </Trackpoint>
          <Trackpoint>
            <Time>2021-08-11T09:50:36.000Z</Time>
            <Position>
              <LatitudeDegrees>43.335774131119251251220703125</LatitudeDegrees>
              <LongitudeDegrees>-1.75238781608641147613525390625</LongitudeDegrees>
            </Position>
            <AltitudeMeters>12</AltitudeMeters>
            <DistanceMeters>NAN</DistanceMeters>
          </Trackpoint>
          <Trackpoint>
            <Time>2021-08-11T09:50:37.000Z</Time>
            <Position>
              <LatitudeDegrees>43.3358091674745082855224609375</LatitudeDegrees>
              <LongitudeDegrees>-1.7523459903895854949951171875</LongitudeDegrees>
            </Position>
            <AltitudeMeters>12</AltitudeMeters>
            <DistanceMeters>NAN</DistanceMeters>
          </Trackpoint>
          <Trackpoint>
            <Time>2021-08-11T09:50:39.000Z</Time>
            <Position>
              <LatitudeDegrees>43.335885107517242431640625</LatitudeDegrees>
              <LongitudeDegrees>-1.7522725649178028106689453125</LongitudeDegrees>
            </Position>
            <AltitudeMeters>11.80000019073486328125</AltitudeMeters>
            <DistanceMeters>NAN</DistanceMeters>
          </Trackpoint>
          <Trackpoint>
            <Time>2021-08-11T09:50:41.000Z</Time>
            <Position>
              <LatitudeDegrees>43.336001448333263397216796875</LatitudeDegrees>
              <LongitudeDegrees>-1.75218715332448482513427734375</LongitudeDegrees>
            </Position>
            <AltitudeMeters>11.6000003814697265625</AltitudeMeters>
            <DistanceMeters>NAN</DistanceMeters>
          </Trackpoint>
          <Trackpoint>
            <Time>2021-08-11T09:50:43.000Z</Time>
            <Position>
              <LatitudeDegrees>43.3361253328621387481689453125</LatitudeDegrees>
              <LongitudeDegrees>-1.7521314136683940887451171875</LongitudeDegrees>
            </Position>
            <AltitudeMeters>11.19999980926513671875</AltitudeMeters>
            <DistanceMeters>NAN</DistanceMeters>
          </Trackpoint>
          <Trackpoint>
            <Time>2021-08-11T09:50:45.000Z</Time>
            <Position>
              <LatitudeDegrees>43.33625785075128078460693359375</LatitudeDegrees>
              <LongitudeDegrees>-1.75210434012115001678466796875</LongitudeDegrees>
            </Position>
            <AltitudeMeters>10.80000019073486328125</AltitudeMeters>
            <DistanceMeters>NAN</DistanceMeters>
          </Trackpoint>
          <Trackpoint>
            <Time>2021-08-11T09:50:46.000Z</Time>
            <Position>
              <LatitudeDegrees>43.33634435199201107025146484375</LatitudeDegrees>
              <LongitudeDegrees>-1.75210266374051570892333984375</LongitudeDegrees>
            </Position>
            <AltitudeMeters>10.6000003814697265625</AltitudeMeters>
            <DistanceMeters>NAN</DistanceMeters>
          </Trackpoint>
          <Trackpoint>
            <Time>2021-08-11T09:50:47.000Z</Time>
            <Position>
              <LatitudeDegrees>43.3364146761596202850341796875</LatitudeDegrees>
              <LongitudeDegrees>-1.75210434012115001678466796875</LongitudeDegrees>
            </Position>
            <AltitudeMeters>10.19999980926513671875</AltitudeMeters>
            <DistanceMeters>NAN</DistanceMeters>
          </Trackpoint>
          <Trackpoint>
            <Time>2021-08-11T09:50:48.000Z</Time>
            <Position>
              <LatitudeDegrees>43.33648114465177059173583984375</LatitudeDegrees>
              <LongitudeDegrees>-1.75210735760629177093505859375</LongitudeDegrees>
            </Position>
            <AltitudeMeters>10</AltitudeMeters>
            <DistanceMeters>NAN</DistanceMeters>
          </Trackpoint>
          <Trackpoint>
            <Time>2021-08-11T09:50:49.000Z</Time>
            <Position>
              <LatitudeDegrees>43.33654400892555713653564453125</LatitudeDegrees>
              <LongitudeDegrees>-1.75211758352816104888916015625</LongitudeDegrees>
            </Position>
            <AltitudeMeters>9.3999996185302734375</AltitudeMeters>
            <DistanceMeters>NAN</DistanceMeters>
          </Trackpoint>
          <Trackpoint>
            <Time>2021-08-11T09:50:50.000Z</Time>
            <Position>
              <LatitudeDegrees>43.33659522235393524169921875</LatitudeDegrees>
              <LongitudeDegrees>-1.75212998874485492706298828125</LongitudeDegrees>
            </Position>
            <AltitudeMeters>9</AltitudeMeters>
            <DistanceMeters>NAN</DistanceMeters>
          </Trackpoint>
          <Trackpoint>
            <Time>2021-08-11T09:50:52.000Z</Time>
            <Position>
              <LatitudeDegrees>43.33673310466110706329345703125</LatitudeDegrees>
              <LongitudeDegrees>-1.752174831926822662353515625</LongitudeDegrees>
            </Position>
            <AltitudeMeters>8.6000003814697265625</AltitudeMeters>
            <DistanceMeters>NAN</DistanceMeters>
          </Trackpoint>
          <Trackpoint>
            <Time>2021-08-11T09:50:53.000Z</Time>
            <Position>
              <LatitudeDegrees>43.3367903530597686767578125</LatitudeDegrees>
              <LongitudeDegrees>-1.75219017080962657928466796875</LongitudeDegrees>
            </Position>
            <AltitudeMeters>8.3999996185302734375</AltitudeMeters>
            <DistanceMeters>NAN</DistanceMeters>
          </Trackpoint>
          <Trackpoint>
            <Time>2021-08-11T09:50:54.000Z</Time>
            <Position>
              <LatitudeDegrees>43.33684693090617656707763671875</LatitudeDegrees>
              <LongitudeDegrees>-1.75220995210111141204833984375</LongitudeDegrees>
            </Position>
            <AltitudeMeters>8.19999980926513671875</AltitudeMeters>
            <DistanceMeters>NAN</DistanceMeters>
          </Trackpoint>
          <Trackpoint>
            <Time>2021-08-11T09:50:55.000Z</Time>
            <Position>
              <LatitudeDegrees>43.3368968032300472259521484375</LatitudeDegrees>
              <LongitudeDegrees>-1.7522276379168033599853515625</LongitudeDegrees>
            </Position>
            <AltitudeMeters>8.19999980926513671875</AltitudeMeters>
            <DistanceMeters>NAN</DistanceMeters>
          </Trackpoint>
          <Trackpoint>
            <Time>2021-08-11T09:50:57.000Z</Time>
            <Position>
              <LatitudeDegrees>43.33703334443271160125732421875</LatitudeDegrees>
              <LongitudeDegrees>-1.75228220410645008087158203125</LongitudeDegrees>
            </Position>
            <AltitudeMeters>8</AltitudeMeters>
            <DistanceMeters>NAN</DistanceMeters>
          </Trackpoint>
          <Trackpoint>
            <Time>2021-08-11T09:51:01.000Z</Time>
            <Position>
              <LatitudeDegrees>43.337255381047725677490234375</LatitudeDegrees>
              <LongitudeDegrees>-1.75236686132848262786865234375</LongitudeDegrees>
            </Position>
            <AltitudeMeters>7.599999904632568359375</AltitudeMeters>
            <DistanceMeters>NAN</DistanceMeters>
          </Trackpoint>
          <Trackpoint>
            <Time>2021-08-11T09:51:02.000Z</Time>
            <Position>
              <LatitudeDegrees>43.33730743266642093658447265625</LatitudeDegrees>
              <LongitudeDegrees>-1.75240122713148593902587890625</LongitudeDegrees>
            </Position>
            <AltitudeMeters>7.599999904632568359375</AltitudeMeters>
            <DistanceMeters>NAN</DistanceMeters>
          </Trackpoint>
          <Trackpoint>
            <Time>2021-08-11T09:51:03.000Z</Time>
            <Position>
              <LatitudeDegrees>43.33736208267509937286376953125</LatitudeDegrees>
              <LongitudeDegrees>-1.752436347305774688720703125</LongitudeDegrees>
            </Position>
            <AltitudeMeters>7.400000095367431640625</AltitudeMeters>
            <DistanceMeters>NAN</DistanceMeters>
          </Trackpoint>
          <Trackpoint>
            <Time>2021-08-11T09:51:04.000Z</Time>
            <Position>
              <LatitudeDegrees>43.33740684203803539276123046875</LatitudeDegrees>
              <LongitudeDegrees>-1.75245822407305240631103515625</LongitudeDegrees>
            </Position>
            <AltitudeMeters>7.400000095367431640625</AltitudeMeters>
            <DistanceMeters>NAN</DistanceMeters>
          </Trackpoint>
          <Trackpoint>
            <Time>2021-08-11T09:51:05.000Z</Time>
            <Position>
              <LatitudeDegrees>43.33745528943836688995361328125</LatitudeDegrees>
              <LongitudeDegrees>-1.75247666426002979278564453125</LongitudeDegrees>
            </Position>
            <AltitudeMeters>7.400000095367431640625</AltitudeMeters>
            <DistanceMeters>NAN</DistanceMeters>
          </Trackpoint>
          <Trackpoint>
            <Time>2021-08-11T09:51:06.000Z</Time>
            <Position>
              <LatitudeDegrees>43.33750876598060131072998046875</LatitudeDegrees>
              <LongitudeDegrees>-1.75250298343598842620849609375</LongitudeDegrees>
            </Position>
            <AltitudeMeters>7.19999980926513671875</AltitudeMeters>
            <DistanceMeters>NAN</DistanceMeters>
          </Trackpoint>
          <Trackpoint>
            <Time>2021-08-11T09:51:10.000Z</Time>
            <Position>
              <LatitudeDegrees>43.3377044834196567535400390625</LatitudeDegrees>
              <LongitudeDegrees>-1.75260188989341259002685546875</LongitudeDegrees>
            </Position>
            <AltitudeMeters>7.19999980926513671875</AltitudeMeters>
            <DistanceMeters>NAN</DistanceMeters>
          </Trackpoint>
          <Trackpoint>
            <Time>2021-08-11T09:51:11.000Z</Time>
            <Position>
              <LatitudeDegrees>43.33774060942232608795166015625</LatitudeDegrees>
              <LongitudeDegrees>-1.75262267701327800750732421875</LongitudeDegrees>
            </Position>
            <AltitudeMeters>7.19999980926513671875</AltitudeMeters>
            <DistanceMeters>NAN</DistanceMeters>
          </Trackpoint>
          <Trackpoint>
            <Time>2021-08-11T09:51:12.000Z</Time>
            <Position>
              <LatitudeDegrees>43.33778972737491130828857421875</LatitudeDegrees>
              <LongitudeDegrees>-1.7526450566947460174560546875</LongitudeDegrees>
            </Position>
            <AltitudeMeters>7.19999980926513671875</AltitudeMeters>
            <DistanceMeters>NAN</DistanceMeters>
          </Trackpoint>
          <Trackpoint>
            <Time>2021-08-11T09:51:13.000Z</Time>
            <Position>
              <LatitudeDegrees>43.337853848934173583984375</LatitudeDegrees>
              <LongitudeDegrees>-1.752665340900421142578125</LongitudeDegrees>
            </Position>
            <AltitudeMeters>7.19999980926513671875</AltitudeMeters>
            <DistanceMeters>NAN</DistanceMeters>
          </Trackpoint>
          <Trackpoint>
            <Time>2021-08-11T09:51:19.000Z</Time>
            <Position>
              <LatitudeDegrees>43.33820211701095104217529296875</LatitudeDegrees>
              <LongitudeDegrees>-1.7527453042566776275634765625</LongitudeDegrees>
            </Position>
            <AltitudeMeters>7</AltitudeMeters>
            <DistanceMeters>NAN</DistanceMeters>
          </Trackpoint>
          <Trackpoint>
            <Time>2021-08-11T09:51:20.000Z</Time>
            <Position>
              <LatitudeDegrees>43.33825123496353626251220703125</LatitudeDegrees>
              <LongitudeDegrees>-1.75276282243430614471435546875</LongitudeDegrees>
            </Position>
            <AltitudeMeters>7</AltitudeMeters>
            <DistanceMeters>NAN</DistanceMeters>
          </Trackpoint>
          <Trackpoint>
            <Time>2021-08-11T09:51:21.000Z</Time>
            <Position>
              <LatitudeDegrees>43.33829599432647228240966796875</LatitudeDegrees>
              <LongitudeDegrees>-1.75277405418455600738525390625</LongitudeDegrees>
            </Position>
            <AltitudeMeters>7</AltitudeMeters>
            <DistanceMeters>NAN</DistanceMeters>
          </Trackpoint>
          <Trackpoint>
            <Time>2021-08-11T09:51:23.000Z</Time>
            <Position>
              <LatitudeDegrees>43.3384038694202899932861328125</LatitudeDegrees>
              <LongitudeDegrees>-1.75279802642762660980224609375</LongitudeDegrees>
            </Position>
            <AltitudeMeters>7</AltitudeMeters>
            <DistanceMeters>NAN</DistanceMeters>
          </Trackpoint>
          <Trackpoint>
            <Time>2021-08-11T09:51:25.000Z</Time>
            <Position>
              <LatitudeDegrees>43.3385037817060947418212890625</LatitudeDegrees>
              <LongitudeDegrees>-1.7528023011982440948486328125</LongitudeDegrees>
            </Position>
            <AltitudeMeters>7</AltitudeMeters>
            <DistanceMeters>NAN</DistanceMeters>
          </Trackpoint>
          <Trackpoint>
            <Time>2021-08-11T09:51:26.000Z</Time>
            <Position>
              <LatitudeDegrees>43.33856890909373760223388671875</LatitudeDegrees>
              <LongitudeDegrees>-1.75279668532311916351318359375</LongitudeDegrees>
            </Position>
            <AltitudeMeters>7</AltitudeMeters>
            <DistanceMeters>NAN</DistanceMeters>
          </Trackpoint>
          <Trackpoint>
            <Time>2021-08-11T09:51:27.000Z</Time>
            <Position>
              <LatitudeDegrees>43.3386368863284587860107421875</LatitudeDegrees>
              <LongitudeDegrees>-1.752807833254337310791015625</LongitudeDegrees>
            </Position>
            <AltitudeMeters>7</AltitudeMeters>
            <DistanceMeters>NAN</DistanceMeters>
          </Trackpoint>
          <Trackpoint>
            <Time>2021-08-11T09:51:28.000Z</Time>
            <Position>
              <LatitudeDegrees>43.33871190436184406280517578125</LatitudeDegrees>
              <LongitudeDegrees>-1.75282350741326808929443359375</LongitudeDegrees>
            </Position>
            <AltitudeMeters>7</AltitudeMeters>
            <DistanceMeters>NAN</DistanceMeters>
          </Trackpoint>
          <Trackpoint>
            <Time>2021-08-11T09:51:29.000Z</Time>
            <Position>
              <LatitudeDegrees>43.33875842392444610595703125</LatitudeDegrees>
              <LongitudeDegrees>-1.7528450489044189453125</LongitudeDegrees>
            </Position>
            <AltitudeMeters>6.80000019073486328125</AltitudeMeters>
            <DistanceMeters>NAN</DistanceMeters>
          </Trackpoint>
          <Trackpoint>
            <Time>2021-08-11T09:51:31.000Z</Time>
            <Position>
              <LatitudeDegrees>43.3388497866690158843994140625</LatitudeDegrees>
              <LongitudeDegrees>-1.75287396647036075592041015625</LongitudeDegrees>
            </Position>
            <AltitudeMeters>6.80000019073486328125</AltitudeMeters>
            <DistanceMeters>NAN</DistanceMeters>
          </Trackpoint>
          <Trackpoint>
            <Time>2021-08-11T09:51:32.000Z</Time>
            <Position>
              <LatitudeDegrees>43.3388913609087467193603515625</LatitudeDegrees>
              <LongitudeDegrees>-1.75288637168705463409423828125</LongitudeDegrees>
            </Position>
            <AltitudeMeters>6.80000019073486328125</AltitudeMeters>
            <DistanceMeters>NAN</DistanceMeters>
          </Trackpoint>
          <Trackpoint>
            <Time>2021-08-11T09:51:33.000Z</Time>
            <Position>
              <LatitudeDegrees>43.338937126100063323974609375</LatitudeDegrees>
              <LongitudeDegrees>-1.7529053986072540283203125</LongitudeDegrees>
            </Position>
            <AltitudeMeters>6.80000019073486328125</AltitudeMeters>
            <DistanceMeters>NAN</DistanceMeters>
          </Trackpoint>
          <Trackpoint>
            <Time>2021-08-11T09:51:34.000Z</Time>
            <Position>
              <LatitudeDegrees>43.33897274918854236602783203125</LatitudeDegrees>
              <LongitudeDegrees>-1.7529048956930637359619140625</LongitudeDegrees>
            </Position>
            <AltitudeMeters>6.80000019073486328125</AltitudeMeters>
            <DistanceMeters>NAN</DistanceMeters>
          </Trackpoint>
          <Trackpoint>
            <Time>2021-08-11T09:51:35.000Z</Time>
            <Position>
              <LatitudeDegrees>43.3390009962022304534912109375</LatitudeDegrees>
              <LongitudeDegrees>-1.75289995037019252777099609375</LongitudeDegrees>
            </Position>
            <AltitudeMeters>6.80000019073486328125</AltitudeMeters>
            <DistanceMeters>NAN</DistanceMeters>
          </Trackpoint>
          <Trackpoint>
            <Time>2021-08-11T09:51:36.000Z</Time>
            <Position>
              <LatitudeDegrees>43.33902421407401561737060546875</LatitudeDegrees>
              <LongitudeDegrees>-1.752918474376201629638671875</LongitudeDegrees>
            </Position>
            <AltitudeMeters>6.80000019073486328125</AltitudeMeters>
            <DistanceMeters>NAN</DistanceMeters>
          </Trackpoint>
          <Trackpoint>
            <Time>2021-08-11T09:51:37.000Z</Time>
            <Position>
              <LatitudeDegrees>43.33904751576483249664306640625</LatitudeDegrees>
              <LongitudeDegrees>-1.75293096341192722320556640625</LongitudeDegrees>
            </Position>
            <AltitudeMeters>6.80000019073486328125</AltitudeMeters>
            <DistanceMeters>NAN</DistanceMeters>
          </Trackpoint>
          <Trackpoint>
            <Time>2021-08-11T09:51:38.000Z</Time>
            <Position>
              <LatitudeDegrees>43.3390610106289386749267578125</LatitudeDegrees>
              <LongitudeDegrees>-1.7529330588877201080322265625</LongitudeDegrees>
            </Position>
            <AltitudeMeters>7</AltitudeMeters>
            <DistanceMeters>NAN</DistanceMeters>
          </Trackpoint>
          <Trackpoint>
            <Time>2021-08-11T09:51:39.000Z</Time>
            <Position>
              <LatitudeDegrees>43.33907031454145908355712890625</LatitudeDegrees>
              <LongitudeDegrees>-1.75293624401092529296875</LongitudeDegrees>
            </Position>
            <AltitudeMeters>7</AltitudeMeters>
            <DistanceMeters>NAN</DistanceMeters>
          </Trackpoint>
          <Trackpoint>
            <Time>2021-08-11T09:51:40.000Z</Time>
            <Position>
              <LatitudeDegrees>43.33909948356449604034423828125</LatitudeDegrees>
              <LongitudeDegrees>-1.7529424466192722320556640625</LongitudeDegrees>
            </Position>
            <AltitudeMeters>7</AltitudeMeters>
            <DistanceMeters>NAN</DistanceMeters>
          </Trackpoint>
          <Trackpoint>
            <Time>2021-08-11T09:51:41.000Z</Time>
            <Position>
              <LatitudeDegrees>43.33914742805063724517822265625</LatitudeDegrees>
              <LongitudeDegrees>-1.7529617249965667724609375</LongitudeDegrees>
            </Position>
            <AltitudeMeters>7</AltitudeMeters>
            <DistanceMeters>NAN</DistanceMeters>
          </Trackpoint>
          <Trackpoint>
            <Time>2021-08-11T09:51:42.000Z</Time>
            <Position>
              <LatitudeDegrees>43.3391632698476314544677734375</LatitudeDegrees>
              <LongitudeDegrees>-1.752970777451992034912109375</LongitudeDegrees>
            </Position>
            <AltitudeMeters>7</AltitudeMeters>
            <DistanceMeters>NAN</DistanceMeters>
          </Trackpoint>
          <Trackpoint>
            <Time>2021-08-11T09:51:43.000Z</Time>
            <Position>
              <LatitudeDegrees>43.33918849937617778778076171875</LatitudeDegrees>
              <LongitudeDegrees>-1.752982847392559051513671875</LongitudeDegrees>
            </Position>
            <AltitudeMeters>7</AltitudeMeters>
            <DistanceMeters>NAN</DistanceMeters>
          </Trackpoint>
          <Trackpoint>
            <Time>2021-08-11T09:51:44.000Z</Time>
            <Position>
              <LatitudeDegrees>43.339193947613239288330078125</LatitudeDegrees>
              <LongitudeDegrees>-1.75298762507736682891845703125</LongitudeDegrees>
            </Position>
            <AltitudeMeters>7.19999980926513671875</AltitudeMeters>
            <DistanceMeters>NAN</DistanceMeters>
          </Trackpoint>
          <Trackpoint>
            <Time>2021-08-11T09:51:45.000Z</Time>
            <Position>
              <LatitudeDegrees>43.33919637836515903472900390625</LatitudeDegrees>
              <LongitudeDegrees>-1.7529903911054134368896484375</LongitudeDegrees>
            </Position>
            <AltitudeMeters>7.19999980926513671875</AltitudeMeters>
            <DistanceMeters>NAN</DistanceMeters>
          </Trackpoint>
          <Trackpoint>
            <Time>2021-08-11T09:51:51.000Z</Time>
            <Position>
              <LatitudeDegrees>43.33919637836515903472900390625</LatitudeDegrees>
              <LongitudeDegrees>-1.7529903911054134368896484375</LongitudeDegrees>
            </Position>
            <AltitudeMeters>7.400000095367431640625</AltitudeMeters>
            <DistanceMeters>NAN</DistanceMeters>
          </Trackpoint>
          <Trackpoint>
            <Time>2021-08-11T09:52:04.000Z</Time>
            <Position>
              <LatitudeDegrees>43.33919637836515903472900390625</LatitudeDegrees>
              <LongitudeDegrees>-1.7529903911054134368896484375</LongitudeDegrees>
            </Position>
            <AltitudeMeters>7.19999980926513671875</AltitudeMeters>
            <DistanceMeters>NAN</DistanceMeters>
          </Trackpoint>
          <Trackpoint>
            <Time>2021-08-11T09:52:49.000Z</Time>
            <Position>
              <LatitudeDegrees>43.33919637836515903472900390625</LatitudeDegrees>
              <LongitudeDegrees>-1.7529903911054134368896484375</LongitudeDegrees>
            </Position>
            <AltitudeMeters>6.80000019073486328125</AltitudeMeters>
            <DistanceMeters>NAN</DistanceMeters>
          </Trackpoint>
          <Trackpoint>
            <Time>2021-08-11T09:53:11.000Z</Time>
            <Position>
              <LatitudeDegrees>43.33922454155981540679931640625</LatitudeDegrees>
              <LongitudeDegrees>-1.75299315713346004486083984375</LongitudeDegrees>
            </Position>
            <AltitudeMeters>6.599999904632568359375</AltitudeMeters>
            <DistanceMeters>NAN</DistanceMeters>
          </Trackpoint>
          <Trackpoint>
            <Time>2021-08-11T09:53:12.000Z</Time>
            <Position>
              <LatitudeDegrees>43.33925639279186725616455078125</LatitudeDegrees>
              <LongitudeDegrees>-1.752989552915096282958984375</LongitudeDegrees>
            </Position>
            <AltitudeMeters>6.599999904632568359375</AltitudeMeters>
            <DistanceMeters>NAN</DistanceMeters>
          </Trackpoint>
          <Trackpoint>
            <Time>2021-08-11T09:53:13.000Z</Time>
            <Position>
              <LatitudeDegrees>43.339285813271999359130859375</LatitudeDegrees>
              <LongitudeDegrees>-1.75298578105866909027099609375</LongitudeDegrees>
            </Position>
            <AltitudeMeters>6.400000095367431640625</AltitudeMeters>
            <DistanceMeters>NAN</DistanceMeters>
          </Trackpoint>
          <Trackpoint>
            <Time>2021-08-11T09:53:16.000Z</Time>
            <Position>
              <LatitudeDegrees>43.339364267885684967041015625</LatitudeDegrees>
              <LongitudeDegrees>-1.75297505222260951995849609375</LongitudeDegrees>
            </Position>
            <AltitudeMeters>6.400000095367431640625</AltitudeMeters>
            <DistanceMeters>NAN</DistanceMeters>
          </Trackpoint>
          <Trackpoint>
            <Time>2021-08-11T09:53:19.000Z</Time>
            <Position>
              <LatitudeDegrees>43.33947113715112209320068359375</LatitudeDegrees>
              <LongitudeDegrees>-1.75299969501793384552001953125</LongitudeDegrees>
            </Position>
            <AltitudeMeters>6.19999980926513671875</AltitudeMeters>
            <DistanceMeters>NAN</DistanceMeters>
          </Trackpoint>
          <Trackpoint>
            <Time>2021-08-11T09:53:20.000Z</Time>
            <Position>
              <LatitudeDegrees>43.3394967019557952880859375</LatitudeDegrees>
              <LongitudeDegrees>-1.75300472415983676910400390625</LongitudeDegrees>
            </Position>
            <AltitudeMeters>6.19999980926513671875</AltitudeMeters>
            <DistanceMeters>NAN</DistanceMeters>
          </Trackpoint>
          <Trackpoint>
            <Time>2021-08-11T09:53:21.000Z</Time>
            <Position>
              <LatitudeDegrees>43.339527212083339691162109375</LatitudeDegrees>
              <LongitudeDegrees>-1.75301293842494487762451171875</LongitudeDegrees>
            </Position>
            <AltitudeMeters>6.19999980926513671875</AltitudeMeters>
            <DistanceMeters>NAN</DistanceMeters>
          </Trackpoint>
          <Trackpoint>
            <Time>2021-08-11T09:53:22.000Z</Time>
            <Position>
              <LatitudeDegrees>43.33954699337482452392578125</LatitudeDegrees>
              <LongitudeDegrees>-1.75301469862461090087890625</LongitudeDegrees>
            </Position>
            <AltitudeMeters>6.19999980926513671875</AltitudeMeters>
            <DistanceMeters>NAN</DistanceMeters>
          </Trackpoint>
          <Trackpoint>
            <Time>2021-08-11T09:53:23.000Z</Time>
            <Position>
              <LatitudeDegrees>43.3395592309534549713134765625</LatitudeDegrees>
              <LongitudeDegrees>-1.75301193259656429290771484375</LongitudeDegrees>
            </Position>
            <AltitudeMeters>6.19999980926513671875</AltitudeMeters>
            <DistanceMeters>NAN</DistanceMeters>
          </Trackpoint>
          <Trackpoint>
            <Time>2021-08-11T09:53:24.000Z</Time>
            <Position>
              <LatitudeDegrees>43.33957021124660968780517578125</LatitudeDegrees>
              <LongitudeDegrees>-1.75300799310207366943359375</LongitudeDegrees>
            </Position>
            <AltitudeMeters>6.19999980926513671875</AltitudeMeters>
            <DistanceMeters>NAN</DistanceMeters>
          </Trackpoint>
          <Trackpoint>
            <Time>2021-08-11T09:53:25.000Z</Time>
            <Position>
              <LatitudeDegrees>43.3395793475210666656494140625</LatitudeDegrees>
              <LongitudeDegrees>-1.75300774164497852325439453125</LongitudeDegrees>
            </Position>
            <AltitudeMeters>6.400000095367431640625</AltitudeMeters>
            <DistanceMeters>NAN</DistanceMeters>
          </Trackpoint>
          <Trackpoint>
            <Time>2021-08-11T09:53:31.000Z</Time>
            <Position>
              <LatitudeDegrees>43.339686803519725799560546875</LatitudeDegrees>
              <LongitudeDegrees>-1.75303137861192226409912109375</LongitudeDegrees>
            </Position>
            <AltitudeMeters>6.400000095367431640625</AltitudeMeters>
            <DistanceMeters>NAN</DistanceMeters>
          </Trackpoint>
          <Trackpoint>
            <Time>2021-08-11T09:53:34.000Z</Time>
            <Position>
              <LatitudeDegrees>43.339769281446933746337890625</LatitudeDegrees>
              <LongitudeDegrees>-1.753086782991886138916015625</LongitudeDegrees>
            </Position>
            <AltitudeMeters>6.599999904632568359375</AltitudeMeters>
            <DistanceMeters>NAN</DistanceMeters>
          </Trackpoint>
          <Trackpoint>
            <Time>2021-08-11T09:53:37.000Z</Time>
            <Position>
              <LatitudeDegrees>43.33986508660018444061279296875</LatitudeDegrees>
              <LongitudeDegrees>-1.75313715822994709014892578125</LongitudeDegrees>
            </Position>
            <AltitudeMeters>6.80000019073486328125</AltitudeMeters>
            <DistanceMeters>NAN</DistanceMeters>
          </Trackpoint>
          <Trackpoint>
            <Time>2021-08-11T09:53:38.000Z</Time>
            <Position>
              <LatitudeDegrees>43.33989777602255344390869140625</LatitudeDegrees>
              <LongitudeDegrees>-1.75314369611442089080810546875</LongitudeDegrees>
            </Position>
            <AltitudeMeters>6.80000019073486328125</AltitudeMeters>
            <DistanceMeters>NAN</DistanceMeters>
          </Trackpoint>
          <Trackpoint>
            <Time>2021-08-11T09:53:39.000Z</Time>
            <Position>
              <LatitudeDegrees>43.33990733139216899871826171875</LatitudeDegrees>
              <LongitudeDegrees>-1.75315090455114841461181640625</LongitudeDegrees>
            </Position>
            <AltitudeMeters>6.80000019073486328125</AltitudeMeters>
            <DistanceMeters>NAN</DistanceMeters>
          </Trackpoint>
          <Trackpoint>
            <Time>2021-08-11T09:53:40.000Z</Time>
            <Position>
              <LatitudeDegrees>43.33992040716111660003662109375</LatitudeDegrees>
              <LongitudeDegrees>-1.75315710715949535369873046875</LongitudeDegrees>
            </Position>
            <AltitudeMeters>6.80000019073486328125</AltitudeMeters>
            <DistanceMeters>NAN</DistanceMeters>
          </Trackpoint>
          <Trackpoint>
            <Time>2021-08-11T09:53:41.000Z</Time>
            <Position>
              <LatitudeDegrees>43.339940942823886871337890625</LatitudeDegrees>
              <LongitudeDegrees>-1.75316615961492061614990234375</LongitudeDegrees>
            </Position>
            <AltitudeMeters>6.80000019073486328125</AltitudeMeters>
            <DistanceMeters>NAN</DistanceMeters>
          </Trackpoint>
          <Trackpoint>
            <Time>2021-08-11T09:53:43.000Z</Time>
            <Position>
              <LatitudeDegrees>43.33997882902622222900390625</LatitudeDegrees>
              <LongitudeDegrees>-1.7531690932810306549072265625</LongitudeDegrees>
            </Position>
            <AltitudeMeters>6.80000019073486328125</AltitudeMeters>
            <DistanceMeters>NAN</DistanceMeters>
          </Trackpoint>
          <Trackpoint>
            <Time>2021-08-11T09:53:44.000Z</Time>
            <Position>
              <LatitudeDegrees>43.33999936468899250030517578125</LatitudeDegrees>
              <LongitudeDegrees>-1.753168590366840362548828125</LongitudeDegrees>
            </Position>
            <AltitudeMeters>6.80000019073486328125</AltitudeMeters>
            <DistanceMeters>NAN</DistanceMeters>
          </Trackpoint>
          <Trackpoint>
            <Time>2021-08-11T09:53:50.000Z</Time>
            <Position>
              <LatitudeDegrees>43.34014101885259151458740234375</LatitudeDegrees>
              <LongitudeDegrees>-1.7532084882259368896484375</LongitudeDegrees>
            </Position>
            <AltitudeMeters>7</AltitudeMeters>
            <DistanceMeters>NAN</DistanceMeters>
          </Trackpoint>
          <Trackpoint>
            <Time>2021-08-11T09:53:54.000Z</Time>
            <Position>
              <LatitudeDegrees>43.34026892669498920440673828125</LatitudeDegrees>
              <LongitudeDegrees>-1.753237657248973846435546875</LongitudeDegrees>
            </Position>
            <AltitudeMeters>7</AltitudeMeters>
            <DistanceMeters>NAN</DistanceMeters>
          </Trackpoint>
          <Trackpoint>
            <Time>2021-08-11T09:53:55.000Z</Time>
            <Position>
              <LatitudeDegrees>43.34030429832637310028076171875</LatitudeDegrees>
              <LongitudeDegrees>-1.7532522417604923248291015625</LongitudeDegrees>
            </Position>
            <AltitudeMeters>7</AltitudeMeters>
            <DistanceMeters>NAN</DistanceMeters>
          </Trackpoint>
          <Trackpoint>
            <Time>2021-08-11T09:53:56.000Z</Time>
            <Position>
              <LatitudeDegrees>43.34033799357712268829345703125</LatitudeDegrees>
              <LongitudeDegrees>-1.753271855413913726806640625</LongitudeDegrees>
            </Position>
            <AltitudeMeters>7</AltitudeMeters>
            <DistanceMeters>NAN</DistanceMeters>
          </Trackpoint>
          <Trackpoint>
            <Time>2021-08-11T09:53:59.000Z</Time>
            <Position>
              <LatitudeDegrees>43.34041426889598369598388671875</LatitudeDegrees>
              <LongitudeDegrees>-1.75331133417785167694091796875</LongitudeDegrees>
            </Position>
            <AltitudeMeters>6.80000019073486328125</AltitudeMeters>
            <DistanceMeters>NAN</DistanceMeters>
          </Trackpoint>
          <Trackpoint>
            <Time>2021-08-11T09:54:00.000Z</Time>
            <Position>
              <LatitudeDegrees>43.3404239080846309661865234375</LatitudeDegrees>
              <LongitudeDegrees>-1.75331451930105686187744140625</LongitudeDegrees>
            </Position>
            <AltitudeMeters>6.80000019073486328125</AltitudeMeters>
            <DistanceMeters>NAN</DistanceMeters>
          </Trackpoint>
          <Trackpoint>
            <Time>2021-08-11T09:54:01.000Z</Time>
            <Position>
              <LatitudeDegrees>43.34043371491134166717529296875</LatitudeDegrees>
              <LongitudeDegrees>-1.753317452967166900634765625</LongitudeDegrees>
            </Position>
            <AltitudeMeters>6.80000019073486328125</AltitudeMeters>
            <DistanceMeters>NAN</DistanceMeters>
          </Trackpoint>
          <Trackpoint>
            <Time>2021-08-11T09:54:02.000Z</Time>
            <Position>
              <LatitudeDegrees>43.34044662304222583770751953125</LatitudeDegrees>
              <LongitudeDegrees>-1.753327846527099609375</LongitudeDegrees>
            </Position>
            <AltitudeMeters>6.80000019073486328125</AltitudeMeters>
            <DistanceMeters>NAN</DistanceMeters>
          </Trackpoint>
          <Trackpoint>
            <Time>2021-08-11T09:54:03.000Z</Time>
            <Position>
              <LatitudeDegrees>43.34045500494539737701416015625</LatitudeDegrees>
              <LongitudeDegrees>-1.75332826562225818634033203125</LongitudeDegrees>
            </Position>
            <AltitudeMeters>6.80000019073486328125</AltitudeMeters>
            <DistanceMeters>NAN</DistanceMeters>
          </Trackpoint>
          <Trackpoint>
            <Time>2021-08-11T09:54:07.000Z</Time>
            <Position>
              <LatitudeDegrees>43.34052256308495998382568359375</LatitudeDegrees>
              <LongitudeDegrees>-1.7533578537404537200927734375</LongitudeDegrees>
            </Position>
            <AltitudeMeters>6.80000019073486328125</AltitudeMeters>
            <DistanceMeters>NAN</DistanceMeters>
          </Trackpoint>
          <Trackpoint>
            <Time>2021-08-11T09:54:10.000Z</Time>
            <Position>
              <LatitudeDegrees>43.3405784703791141510009765625</LatitudeDegrees>
              <LongitudeDegrees>-1.753399260342121124267578125</LongitudeDegrees>
            </Position>
            <AltitudeMeters>6.599999904632568359375</AltitudeMeters>
            <DistanceMeters>NAN</DistanceMeters>
          </Trackpoint>
          <Trackpoint>
            <Time>2021-08-11T09:54:11.000Z</Time>
            <Position>
              <LatitudeDegrees>43.3405881933867931365966796875</LatitudeDegrees>
              <LongitudeDegrees>-1.753405295312404632568359375</LongitudeDegrees>
            </Position>
            <AltitudeMeters>6.599999904632568359375</AltitudeMeters>
            <DistanceMeters>NAN</DistanceMeters>
          </Trackpoint>
          <Trackpoint>
            <Time>2021-08-11T09:54:12.000Z</Time>
            <Position>
              <LatitudeDegrees>43.340604119002819061279296875</LatitudeDegrees>
              <LongitudeDegrees>-1.753414683043956756591796875</LongitudeDegrees>
            </Position>
            <AltitudeMeters>6.80000019073486328125</AltitudeMeters>
            <DistanceMeters>NAN</DistanceMeters>
          </Trackpoint>
          <Trackpoint>
            <Time>2021-08-11T09:54:17.000Z</Time>
            <Position>
              <LatitudeDegrees>43.34074082784354686737060546875</LatitudeDegrees>
              <LongitudeDegrees>-1.753495819866657257080078125</LongitudeDegrees>
            </Position>
            <AltitudeMeters>6.80000019073486328125</AltitudeMeters>
            <DistanceMeters>NAN</DistanceMeters>
          </Trackpoint>
          <Trackpoint>
            <Time>2021-08-11T09:54:20.000Z</Time>
            <Position>
              <LatitudeDegrees>43.34084518253803253173828125</LatitudeDegrees>
              <LongitudeDegrees>-1.75356446765363216400146484375</LongitudeDegrees>
            </Position>
            <AltitudeMeters>7</AltitudeMeters>
            <DistanceMeters>NAN</DistanceMeters>
          </Trackpoint>
          <Trackpoint>
            <Time>2021-08-11T09:54:21.000Z</Time>
            <Position>
              <LatitudeDegrees>43.34086286835372447967529296875</LatitudeDegrees>
              <LongitudeDegrees>-1.75358274020254611968994140625</LongitudeDegrees>
            </Position>
            <AltitudeMeters>7</AltitudeMeters>
            <DistanceMeters>NAN</DistanceMeters>
          </Trackpoint>
          <Trackpoint>
            <Time>2021-08-11T09:54:22.000Z</Time>
            <Position>
              <LatitudeDegrees>43.34088742733001708984375</LatitudeDegrees>
              <LongitudeDegrees>-1.75360654480755329132080078125</LongitudeDegrees>
            </Position>
            <AltitudeMeters>7</AltitudeMeters>
            <DistanceMeters>NAN</DistanceMeters>
          </Trackpoint>
          <Trackpoint>
            <Time>2021-08-11T09:54:23.000Z</Time>
            <Position>
              <LatitudeDegrees>43.340916596353054046630859375</LatitudeDegrees>
              <LongitudeDegrees>-1.7536341212689876556396484375</LongitudeDegrees>
            </Position>
            <AltitudeMeters>7</AltitudeMeters>
            <DistanceMeters>NAN</DistanceMeters>
          </Trackpoint>
          <Trackpoint>
            <Time>2021-08-11T09:54:24.000Z</Time>
            <Position>
              <LatitudeDegrees>43.340946771204471588134765625</LatitudeDegrees>
              <LongitudeDegrees>-1.75365432165563106536865234375</LongitudeDegrees>
            </Position>
            <AltitudeMeters>7</AltitudeMeters>
            <DistanceMeters>NAN</DistanceMeters>
          </Trackpoint>
          <Trackpoint>
            <Time>2021-08-11T09:54:25.000Z</Time>
            <Position>
              <LatitudeDegrees>43.34096713922917842864990234375</LatitudeDegrees>
              <LongitudeDegrees>-1.7536743544042110443115234375</LongitudeDegrees>
            </Position>
            <AltitudeMeters>7</AltitudeMeters>
            <DistanceMeters>NAN</DistanceMeters>
          </Trackpoint>
          <Trackpoint>
            <Time>2021-08-11T09:54:26.000Z</Time>
            <Position>
              <LatitudeDegrees>43.340999074280261993408203125</LatitudeDegrees>
              <LongitudeDegrees>-1.75369824282824993133544921875</LongitudeDegrees>
            </Position>
            <AltitudeMeters>7</AltitudeMeters>
            <DistanceMeters>NAN</DistanceMeters>
          </Trackpoint>
          <Trackpoint>
            <Time>2021-08-11T09:54:27.000Z</Time>
            <Position>
              <LatitudeDegrees>43.34102363325655460357666015625</LatitudeDegrees>
              <LongitudeDegrees>-1.753723137080669403076171875</LongitudeDegrees>
            </Position>
            <AltitudeMeters>7</AltitudeMeters>
            <DistanceMeters>NAN</DistanceMeters>
          </Trackpoint>
          <Trackpoint>
            <Time>2021-08-11T09:54:29.000Z</Time>
            <Position>
              <LatitudeDegrees>43.341091610491275787353515625</LatitudeDegrees>
              <LongitudeDegrees>-1.75378876738250255584716796875</LongitudeDegrees>
            </Position>
            <AltitudeMeters>7</AltitudeMeters>
            <DistanceMeters>NAN</DistanceMeters>
          </Trackpoint>
          <Trackpoint>
            <Time>2021-08-11T09:54:31.000Z</Time>
            <Position>
              <LatitudeDegrees>43.34114684723317623138427734375</LatitudeDegrees>
              <LongitudeDegrees>-1.75384274683892726898193359375</LongitudeDegrees>
            </Position>
            <AltitudeMeters>7</AltitudeMeters>
            <DistanceMeters>NAN</DistanceMeters>
          </Trackpoint>
          <Trackpoint>
            <Time>2021-08-11T09:54:32.000Z</Time>
            <Position>
              <LatitudeDegrees>43.341193534433841705322265625</LatitudeDegrees>
              <LongitudeDegrees>-1.75388767383992671966552734375</LongitudeDegrees>
            </Position>
            <AltitudeMeters>7</AltitudeMeters>
            <DistanceMeters>NAN</DistanceMeters>
          </Trackpoint>
          <Trackpoint>
            <Time>2021-08-11T09:54:35.000Z</Time>
            <Position>
              <LatitudeDegrees>43.34131984971463680267333984375</LatitudeDegrees>
              <LongitudeDegrees>-1.7539992369711399078369140625</LongitudeDegrees>
            </Position>
            <AltitudeMeters>7.19999980926513671875</AltitudeMeters>
            <DistanceMeters>NAN</DistanceMeters>
          </Trackpoint>
          <Trackpoint>
            <Time>2021-08-11T09:54:38.000Z</Time>
            <Position>
              <LatitudeDegrees>43.3414257131516933441162109375</LatitudeDegrees>
              <LongitudeDegrees>-1.75410635769367218017578125</LongitudeDegrees>
            </Position>
            <AltitudeMeters>7.19999980926513671875</AltitudeMeters>
            <DistanceMeters>NAN</DistanceMeters>
          </Trackpoint>
          <Trackpoint>
            <Time>2021-08-11T09:54:39.000Z</Time>
            <Position>
              <LatitudeDegrees>43.34144591353833675384521484375</LatitudeDegrees>
              <LongitudeDegrees>-1.75413929857313632965087890625</LongitudeDegrees>
            </Position>
            <AltitudeMeters>7.19999980926513671875</AltitudeMeters>
            <DistanceMeters>NAN</DistanceMeters>
          </Trackpoint>
          <Trackpoint>
            <Time>2021-08-11T09:54:40.000Z</Time>
            <Position>
              <LatitudeDegrees>43.34146745502948760986328125</LatitudeDegrees>
              <LongitudeDegrees>-1.7541687190532684326171875</LongitudeDegrees>
            </Position>
            <AltitudeMeters>7.19999980926513671875</AltitudeMeters>
            <DistanceMeters>NAN</DistanceMeters>
          </Trackpoint>
          <Trackpoint>
            <Time>2021-08-11T09:54:41.000Z</Time>
            <Position>
              <LatitudeDegrees>43.34148514084517955780029296875</LatitudeDegrees>
              <LongitudeDegrees>-1.75420157611370086669921875</LongitudeDegrees>
            </Position>
            <AltitudeMeters>7.400000095367431640625</AltitudeMeters>
            <DistanceMeters>NAN</DistanceMeters>
          </Trackpoint>
          <Trackpoint>
            <Time>2021-08-11T09:54:42.000Z</Time>
            <Position>
              <LatitudeDegrees>43.34150492213666439056396484375</LatitudeDegrees>
              <LongitudeDegrees>-1.75423351116478443145751953125</LongitudeDegrees>
            </Position>
            <AltitudeMeters>7.400000095367431640625</AltitudeMeters>
            <DistanceMeters>NAN</DistanceMeters>
          </Trackpoint>
          <Trackpoint>
            <Time>2021-08-11T09:54:43.000Z</Time>
            <Position>
              <LatitudeDegrees>43.34152352996170520782470703125</LatitudeDegrees>
              <LongitudeDegrees>-1.7542550526559352874755859375</LongitudeDegrees>
            </Position>
            <AltitudeMeters>7.400000095367431640625</AltitudeMeters>
            <DistanceMeters>NAN</DistanceMeters>
          </Trackpoint>
          <Trackpoint>
            <Time>2021-08-11T09:54:44.000Z</Time>
            <Position>
              <LatitudeDegrees>43.3415410481393337249755859375</LatitudeDegrees>
              <LongitudeDegrees>-1.7542785219848155975341796875</LongitudeDegrees>
            </Position>
            <AltitudeMeters>7.400000095367431640625</AltitudeMeters>
            <DistanceMeters>NAN</DistanceMeters>
          </Trackpoint>
          <Trackpoint>
            <Time>2021-08-11T09:54:46.000Z</Time>
            <Position>
              <LatitudeDegrees>43.3416156470775604248046875</LatitudeDegrees>
              <LongitudeDegrees>-1.75435638986527919769287109375</LongitudeDegrees>
            </Position>
            <AltitudeMeters>7.400000095367431640625</AltitudeMeters>
            <DistanceMeters>NAN</DistanceMeters>
          </Trackpoint>
          <Trackpoint>
            <Time>2021-08-11T09:54:53.000Z</Time>
            <Position>
              <LatitudeDegrees>43.34185503423213958740234375</LatitudeDegrees>
              <LongitudeDegrees>-1.75463433377444744110107421875</LongitudeDegrees>
            </Position>
            <AltitudeMeters>7.19999980926513671875</AltitudeMeters>
            <DistanceMeters>NAN</DistanceMeters>
          </Trackpoint>
          <Trackpoint>
            <Time>2021-08-11T09:54:56.000Z</Time>
            <Position>
              <LatitudeDegrees>43.34190289489924907684326171875</LatitudeDegrees>
              <LongitudeDegrees>-1.75472133792936801910400390625</LongitudeDegrees>
            </Position>
            <AltitudeMeters>7.19999980926513671875</AltitudeMeters>
            <DistanceMeters>NAN</DistanceMeters>
          </Trackpoint>
          <Trackpoint>
            <Time>2021-08-11T09:54:57.000Z</Time>
            <Position>
              <LatitudeDegrees>43.3419205807149410247802734375</LatitudeDegrees>
              <LongitudeDegrees>-1.75476475618779659271240234375</LongitudeDegrees>
            </Position>
            <AltitudeMeters>7.19999980926513671875</AltitudeMeters>
            <DistanceMeters>NAN</DistanceMeters>
          </Trackpoint>
          <Trackpoint>
            <Time>2021-08-11T09:54:58.000Z</Time>
            <Position>
              <LatitudeDegrees>43.34193591959774494171142578125</LatitudeDegrees>
              <LongitudeDegrees>-1.75480130128562450408935546875</LongitudeDegrees>
            </Position>
            <AltitudeMeters>7.19999980926513671875</AltitudeMeters>
            <DistanceMeters>NAN</DistanceMeters>
          </Trackpoint>
          <Trackpoint>
            <Time>2021-08-11T09:55:01.000Z</Time>
            <Position>
              <LatitudeDegrees>43.3419759012758731842041015625</LatitudeDegrees>
              <LongitudeDegrees>-1.7548902332782745361328125</LongitudeDegrees>
            </Position>
            <AltitudeMeters>7.19999980926513671875</AltitudeMeters>
            <DistanceMeters>NAN</DistanceMeters>
          </Trackpoint>
          <Trackpoint>
            <Time>2021-08-11T09:55:02.000Z</Time>
            <Position>
              <LatitudeDegrees>43.3419893123209476470947265625</LatitudeDegrees>
              <LongitudeDegrees>-1.7549245990812778472900390625</LongitudeDegrees>
            </Position>
            <AltitudeMeters>7.19999980926513671875</AltitudeMeters>
            <DistanceMeters>NAN</DistanceMeters>
          </Trackpoint>
          <Trackpoint>
            <Time>2021-08-11T09:55:03.000Z</Time>
            <Position>
              <LatitudeDegrees>43.3419913239777088165283203125</LatitudeDegrees>
              <LongitudeDegrees>-1.75495301373302936553955078125</LongitudeDegrees>
            </Position>
            <AltitudeMeters>7.19999980926513671875</AltitudeMeters>
            <DistanceMeters>NAN</DistanceMeters>
          </Trackpoint>
          <Trackpoint>
            <Time>2021-08-11T09:55:04.000Z</Time>
            <Position>
              <LatitudeDegrees>43.34201219491660594940185546875</LatitudeDegrees>
              <LongitudeDegrees>-1.75499274395406246185302734375</LongitudeDegrees>
            </Position>
            <AltitudeMeters>7.19999980926513671875</AltitudeMeters>
            <DistanceMeters>NAN</DistanceMeters>
          </Trackpoint>
          <Trackpoint>
            <Time>2021-08-11T09:55:07.000Z</Time>
            <Position>
              <LatitudeDegrees>43.34208243526518344879150390625</LatitudeDegrees>
              <LongitudeDegrees>-1.75510556437075138092041015625</LongitudeDegrees>
            </Position>
            <AltitudeMeters>7.19999980926513671875</AltitudeMeters>
            <DistanceMeters>NAN</DistanceMeters>
          </Trackpoint>
          <Trackpoint>
            <Time>2021-08-11T09:55:08.000Z</Time>
            <Position>
              <LatitudeDegrees>43.342100121080875396728515625</LatitudeDegrees>
              <LongitudeDegrees>-1.75514076836407184600830078125</LongitudeDegrees>
            </Position>
            <AltitudeMeters>7.19999980926513671875</AltitudeMeters>
            <DistanceMeters>NAN</DistanceMeters>
          </Trackpoint>
          <Trackpoint>
            <Time>2021-08-11T09:55:10.000Z</Time>
            <Position>
              <LatitudeDegrees>43.34214446134865283966064453125</LatitudeDegrees>
              <LongitudeDegrees>-1.7552186362445354461669921875</LongitudeDegrees>
            </Position>
            <AltitudeMeters>7.19999980926513671875</AltitudeMeters>
            <DistanceMeters>NAN</DistanceMeters>
          </Trackpoint>
          <Trackpoint>
            <Time>2021-08-11T09:55:17.000Z</Time>
            <Position>
              <LatitudeDegrees>43.342319391667842864990234375</LatitudeDegrees>
              <LongitudeDegrees>-1.7555180378258228302001953125</LongitudeDegrees>
            </Position>
            <AltitudeMeters>7.19999980926513671875</AltitudeMeters>
            <DistanceMeters>NAN</DistanceMeters>
          </Trackpoint>
          <Trackpoint>
            <Time>2021-08-11T09:55:23.000Z</Time>
            <Position>
              <LatitudeDegrees>43.342458866536617279052734375</LatitudeDegrees>
              <LongitudeDegrees>-1.7557418346405029296875</LongitudeDegrees>
            </Position>
            <AltitudeMeters>7</AltitudeMeters>
            <DistanceMeters>NAN</DistanceMeters>
          </Trackpoint>
          <Trackpoint>
            <Time>2021-08-11T09:55:24.000Z</Time>
            <Position>
              <LatitudeDegrees>43.34247001446783542633056640625</LatitudeDegrees>
              <LongitudeDegrees>-1.75577159039676189422607421875</LongitudeDegrees>
            </Position>
            <AltitudeMeters>7</AltitudeMeters>
            <DistanceMeters>NAN</DistanceMeters>
          </Trackpoint>
          <Trackpoint>
            <Time>2021-08-11T09:55:25.000Z</Time>
            <Position>
              <LatitudeDegrees>43.34247856400907039642333984375</LatitudeDegrees>
              <LongitudeDegrees>-1.7557946406304836273193359375</LongitudeDegrees>
            </Position>
            <AltitudeMeters>7</AltitudeMeters>
            <DistanceMeters>NAN</DistanceMeters>
          </Trackpoint>
          <Trackpoint>
            <Time>2021-08-11T09:55:26.000Z</Time>
            <Position>
              <LatitudeDegrees>43.3424908854067325592041015625</LatitudeDegrees>
              <LongitudeDegrees>-1.75582188181579113006591796875</LongitudeDegrees>
            </Position>
            <AltitudeMeters>7</AltitudeMeters>
            <DistanceMeters>NAN</DistanceMeters>
          </Trackpoint>
          <Trackpoint>
            <Time>2021-08-11T09:55:28.000Z</Time>
            <Position>
              <LatitudeDegrees>43.3425168693065643310546875</LatitudeDegrees>
              <LongitudeDegrees>-1.755862534046173095703125</LongitudeDegrees>
            </Position>
            <AltitudeMeters>7</AltitudeMeters>
            <DistanceMeters>NAN</DistanceMeters>
          </Trackpoint>
          <Trackpoint>
            <Time>2021-08-11T09:55:29.000Z</Time>
            <Position>
              <LatitudeDegrees>43.34253036417067050933837890625</LatitudeDegrees>
              <LongitudeDegrees>-1.75588541664183139801025390625</LongitudeDegrees>
            </Position>
            <AltitudeMeters>7</AltitudeMeters>
            <DistanceMeters>NAN</DistanceMeters>
          </Trackpoint>
          <Trackpoint>
            <Time>2021-08-11T09:55:30.000Z</Time>
            <Position>
              <LatitudeDegrees>43.342541344463825225830078125</LatitudeDegrees>
              <LongitudeDegrees>-1.75590938888490200042724609375</LongitudeDegrees>
            </Position>
            <AltitudeMeters>7</AltitudeMeters>
            <DistanceMeters>NAN</DistanceMeters>
          </Trackpoint>
          <Trackpoint>
            <Time>2021-08-11T09:55:31.000Z</Time>
            <Position>
              <LatitudeDegrees>43.34255374968051910400390625</LatitudeDegrees>
              <LongitudeDegrees>-1.7559361271560192108154296875</LongitudeDegrees>
            </Position>
            <AltitudeMeters>7</AltitudeMeters>
            <DistanceMeters>NAN</DistanceMeters>
          </Trackpoint>
          <Trackpoint>
            <Time>2021-08-11T09:55:34.000Z</Time>
            <Position>
              <LatitudeDegrees>43.3426152728497982025146484375</LatitudeDegrees>
              <LongitudeDegrees>-1.756030507385730743408203125</LongitudeDegrees>
            </Position>
            <AltitudeMeters>7</AltitudeMeters>
            <DistanceMeters>NAN</DistanceMeters>
          </Trackpoint>
          <Trackpoint>
            <Time>2021-08-11T09:55:35.000Z</Time>
            <Position>
              <LatitudeDegrees>43.3426380716264247894287109375</LatitudeDegrees>
              <LongitudeDegrees>-1.75607107579708099365234375</LongitudeDegrees>
            </Position>
            <AltitudeMeters>7</AltitudeMeters>
            <DistanceMeters>NAN</DistanceMeters>
          </Trackpoint>
          <Trackpoint>
            <Time>2021-08-11T09:55:36.000Z</Time>
            <Position>
              <LatitudeDegrees>43.34265642799437046051025390625</LatitudeDegrees>
              <LongitudeDegrees>-1.75610133446753025054931640625</LongitudeDegrees>
            </Position>
            <AltitudeMeters>7</AltitudeMeters>
            <DistanceMeters>NAN</DistanceMeters>
          </Trackpoint>
          <Trackpoint>
            <Time>2021-08-11T09:55:37.000Z</Time>
            <Position>
              <LatitudeDegrees>43.34267453290522098541259765625</LatitudeDegrees>
              <LongitudeDegrees>-1.75613167695701122283935546875</LongitudeDegrees>
            </Position>
            <AltitudeMeters>7</AltitudeMeters>
            <DistanceMeters>NAN</DistanceMeters>
          </Trackpoint>
          <Trackpoint>
            <Time>2021-08-11T09:55:38.000Z</Time>
            <Position>
              <LatitudeDegrees>43.34268920123577117919921875</LatitudeDegrees>
              <LongitudeDegrees>-1.756160594522953033447265625</LongitudeDegrees>
            </Position>
            <AltitudeMeters>7</AltitudeMeters>
            <DistanceMeters>NAN</DistanceMeters>
          </Trackpoint>
          <Trackpoint>
            <Time>2021-08-11T09:55:39.000Z</Time>
            <Position>
              <LatitudeDegrees>43.3427034504711627960205078125</LatitudeDegrees>
              <LongitudeDegrees>-1.75618641078472137451171875</LongitudeDegrees>
            </Position>
            <AltitudeMeters>7</AltitudeMeters>
            <DistanceMeters>NAN</DistanceMeters>
          </Trackpoint>
          <Trackpoint>
            <Time>2021-08-11T09:55:40.000Z</Time>
            <Position>
              <LatitudeDegrees>43.34272968582808971405029296875</LatitudeDegrees>
              <LongitudeDegrees>-1.75622555427253246307373046875</LongitudeDegrees>
            </Position>
            <AltitudeMeters>6.80000019073486328125</AltitudeMeters>
            <DistanceMeters>NAN</DistanceMeters>
          </Trackpoint>
          <Trackpoint>
            <Time>2021-08-11T09:55:41.000Z</Time>
            <Position>
              <LatitudeDegrees>43.342747204005718231201171875</LatitudeDegrees>
              <LongitudeDegrees>-1.75625304691493511199951171875</LongitudeDegrees>
            </Position>
            <AltitudeMeters>7</AltitudeMeters>
            <DistanceMeters>NAN</DistanceMeters>
          </Trackpoint>
          <Trackpoint>
            <Time>2021-08-11T09:55:42.000Z</Time>
            <Position>
              <LatitudeDegrees>43.34277100861072540283203125</LatitudeDegrees>
              <LongitudeDegrees>-1.75628959201276302337646484375</LongitudeDegrees>
            </Position>
            <AltitudeMeters>7</AltitudeMeters>
            <DistanceMeters>NAN</DistanceMeters>
          </Trackpoint>
          <Trackpoint>
            <Time>2021-08-11T09:55:43.000Z</Time>
            <Position>
              <LatitudeDegrees>43.342783749103546142578125</LatitudeDegrees>
              <LongitudeDegrees>-1.75631842575967311859130859375</LongitudeDegrees>
            </Position>
            <AltitudeMeters>7</AltitudeMeters>
            <DistanceMeters>NAN</DistanceMeters>
          </Trackpoint>
          <Trackpoint>
            <Time>2021-08-11T09:55:44.000Z</Time>
            <Position>
              <LatitudeDegrees>43.3427929691970348358154296875</LatitudeDegrees>
              <LongitudeDegrees>-1.75634088926017284393310546875</LongitudeDegrees>
            </Position>
            <AltitudeMeters>7</AltitudeMeters>
            <DistanceMeters>NAN</DistanceMeters>
          </Trackpoint>
          <Trackpoint>
            <Time>2021-08-11T09:55:45.000Z</Time>
            <Position>
              <LatitudeDegrees>43.3428065478801727294921875</LatitudeDegrees>
              <LongitudeDegrees>-1.75637148320674896240234375</LongitudeDegrees>
            </Position>
            <AltitudeMeters>7</AltitudeMeters>
            <DistanceMeters>NAN</DistanceMeters>
          </Trackpoint>
          <Trackpoint>
            <Time>2021-08-11T09:55:46.000Z</Time>
            <Position>
              <LatitudeDegrees>43.34281736053526401519775390625</LatitudeDegrees>
              <LongitudeDegrees>-1.756397299468517303466796875</LongitudeDegrees>
            </Position>
            <AltitudeMeters>7</AltitudeMeters>
            <DistanceMeters>NAN</DistanceMeters>
          </Trackpoint>
          <Trackpoint>
            <Time>2021-08-11T09:55:47.000Z</Time>
            <Position>
              <LatitudeDegrees>43.3428264968097209930419921875</LatitudeDegrees>
              <LongitudeDegrees>-1.75642018206417560577392578125</LongitudeDegrees>
            </Position>
            <AltitudeMeters>7</AltitudeMeters>
            <DistanceMeters>NAN</DistanceMeters>
          </Trackpoint>
          <Trackpoint>
            <Time>2021-08-11T09:55:48.000Z</Time>
            <Position>
              <LatitudeDegrees>43.34283630363643169403076171875</LatitudeDegrees>
              <LongitudeDegrees>-1.75644122064113616943359375</LongitudeDegrees>
            </Position>
            <AltitudeMeters>7</AltitudeMeters>
            <DistanceMeters>NAN</DistanceMeters>
          </Trackpoint>
          <Trackpoint>
            <Time>2021-08-11T09:55:49.000Z</Time>
            <Position>
              <LatitudeDegrees>43.342847116291522979736328125</LatitudeDegrees>
              <LongitudeDegrees>-1.7564591579139232635498046875</LongitudeDegrees>
            </Position>
            <AltitudeMeters>7</AltitudeMeters>
            <DistanceMeters>NAN</DistanceMeters>
          </Trackpoint>
          <Trackpoint>
            <Time>2021-08-11T09:55:50.000Z</Time>
            <Position>
              <LatitudeDegrees>43.342859856784343719482421875</LatitudeDegrees>
              <LongitudeDegrees>-1.75647047348320484161376953125</LongitudeDegrees>
            </Position>
            <AltitudeMeters>7</AltitudeMeters>
            <DistanceMeters>NAN</DistanceMeters>
          </Trackpoint>
          <Trackpoint>
            <Time>2021-08-11T09:55:51.000Z</Time>
            <Position>
              <LatitudeDegrees>43.342861197888851165771484375</LatitudeDegrees>
              <LongitudeDegrees>-1.75647499971091747283935546875</LongitudeDegrees>
            </Position>
            <AltitudeMeters>7</AltitudeMeters>
            <DistanceMeters>NAN</DistanceMeters>
          </Trackpoint>
          <Trackpoint>
            <Time>2021-08-11T09:55:56.000Z</Time>
            <Position>
              <LatitudeDegrees>43.342861197888851165771484375</LatitudeDegrees>
              <LongitudeDegrees>-1.75647499971091747283935546875</LongitudeDegrees>
            </Position>
            <AltitudeMeters>7</AltitudeMeters>
            <DistanceMeters>NAN</DistanceMeters>
          </Trackpoint>
          <Trackpoint>
            <Time>2021-08-11T09:56:07.000Z</Time>
            <Position>
              <LatitudeDegrees>43.34286161698400974273681640625</LatitudeDegrees>
              <LongitudeDegrees>-1.75647432915866374969482421875</LongitudeDegrees>
            </Position>
            <AltitudeMeters>7</AltitudeMeters>
            <DistanceMeters>NAN</DistanceMeters>
          </Trackpoint>
          <Trackpoint>
            <Time>2021-08-11T10:00:08.000Z</Time>
            <Position>
              <LatitudeDegrees>43.34286999888718128204345703125</LatitudeDegrees>
              <LongitudeDegrees>-1.75647550262510776519775390625</LongitudeDegrees>
            </Position>
            <AltitudeMeters>7.19999980926513671875</AltitudeMeters>
            <DistanceMeters>NAN</DistanceMeters>
          </Trackpoint>
          <Trackpoint>
            <Time>2021-08-11T10:00:12.000Z</Time>
            <Position>
              <LatitudeDegrees>43.342891372740268707275390625</LatitudeDegrees>
              <LongitudeDegrees>-1.7564936913549900054931640625</LongitudeDegrees>
            </Position>
            <AltitudeMeters>7.19999980926513671875</AltitudeMeters>
            <DistanceMeters>NAN</DistanceMeters>
          </Trackpoint>
          <Trackpoint>
            <Time>2021-08-11T10:00:14.000Z</Time>
            <Position>
              <LatitudeDegrees>43.342940993607044219970703125</LatitudeDegrees>
              <LongitudeDegrees>-1.75655026920139789581298828125</LongitudeDegrees>
            </Position>
            <AltitudeMeters>7.19999980926513671875</AltitudeMeters>
            <DistanceMeters>NAN</DistanceMeters>
          </Trackpoint>
          <Trackpoint>
            <Time>2021-08-11T10:00:15.000Z</Time>
            <Position>
              <LatitudeDegrees>43.3429565839469432830810546875</LatitudeDegrees>
              <LongitudeDegrees>-1.75659201107919216156005859375</LongitudeDegrees>
            </Position>
            <AltitudeMeters>7.19999980926513671875</AltitudeMeters>
            <DistanceMeters>NAN</DistanceMeters>
          </Trackpoint>
          <Trackpoint>
            <Time>2021-08-11T10:00:16.000Z</Time>
            <Position>
              <LatitudeDegrees>43.34297393448650836944580078125</LatitudeDegrees>
              <LongitudeDegrees>-1.75663433969020843505859375</LongitudeDegrees>
            </Position>
            <AltitudeMeters>7.19999980926513671875</AltitudeMeters>
            <DistanceMeters>NAN</DistanceMeters>
          </Trackpoint>
          <Trackpoint>
            <Time>2021-08-11T10:00:17.000Z</Time>
            <Position>
              <LatitudeDegrees>43.3429901115596294403076171875</LatitudeDegrees>
              <LongitudeDegrees>-1.75667323172092437744140625</LongitudeDegrees>
            </Position>
            <AltitudeMeters>7.19999980926513671875</AltitudeMeters>
            <DistanceMeters>NAN</DistanceMeters>
          </Trackpoint>
          <Trackpoint>
            <Time>2021-08-11T10:00:18.000Z</Time>
            <Position>
              <LatitudeDegrees>43.34301098249852657318115234375</LatitudeDegrees>
              <LongitudeDegrees>-1.75671438686549663543701171875</LongitudeDegrees>
            </Position>
            <AltitudeMeters>7.19999980926513671875</AltitudeMeters>
            <DistanceMeters>NAN</DistanceMeters>
          </Trackpoint>
          <Trackpoint>
            <Time>2021-08-11T10:00:19.000Z</Time>
            <Position>
              <LatitudeDegrees>43.3430347032845020294189453125</LatitudeDegrees>
              <LongitudeDegrees>-1.75675160251557826995849609375</LongitudeDegrees>
            </Position>
            <AltitudeMeters>7.19999980926513671875</AltitudeMeters>
            <DistanceMeters>NAN</DistanceMeters>
          </Trackpoint>
          <Trackpoint>
            <Time>2021-08-11T10:00:21.000Z</Time>
            <Position>
              <LatitudeDegrees>43.34307820536196231842041015625</LatitudeDegrees>
              <LongitudeDegrees>-1.75682075321674346923828125</LongitudeDegrees>
            </Position>
            <AltitudeMeters>7.19999980926513671875</AltitudeMeters>
            <DistanceMeters>NAN</DistanceMeters>
          </Trackpoint>
          <Trackpoint>
            <Time>2021-08-11T10:00:22.000Z</Time>
            <Position>
              <LatitudeDegrees>43.34309094585478305816650390625</LatitudeDegrees>
              <LongitudeDegrees>-1.7568534426391124725341796875</LongitudeDegrees>
            </Position>
            <AltitudeMeters>7.19999980926513671875</AltitudeMeters>
            <DistanceMeters>NAN</DistanceMeters>
          </Trackpoint>
          <Trackpoint>
            <Time>2021-08-11T10:00:23.000Z</Time>
            <Position>
              <LatitudeDegrees>43.343107961118221282958984375</LatitudeDegrees>
              <LongitudeDegrees>-1.75688185729086399078369140625</LongitudeDegrees>
            </Position>
            <AltitudeMeters>7</AltitudeMeters>
            <DistanceMeters>NAN</DistanceMeters>
          </Trackpoint>
          <Trackpoint>
            <Time>2021-08-11T10:00:24.000Z</Time>
            <Position>
              <LatitudeDegrees>43.3431284129619598388671875</LatitudeDegrees>
              <LongitudeDegrees>-1.75691555254161357879638671875</LongitudeDegrees>
            </Position>
            <AltitudeMeters>7</AltitudeMeters>
            <DistanceMeters>NAN</DistanceMeters>
          </Trackpoint>
          <Trackpoint>
            <Time>2021-08-11T10:00:25.000Z</Time>
            <Position>
              <LatitudeDegrees>43.3431490324437618255615234375</LatitudeDegrees>
              <LongitudeDegrees>-1.75695193000137805938720703125</LongitudeDegrees>
            </Position>
            <AltitudeMeters>7</AltitudeMeters>
            <DistanceMeters>NAN</DistanceMeters>
          </Trackpoint>
          <Trackpoint>
            <Time>2021-08-11T10:00:26.000Z</Time>
            <Position>
              <LatitudeDegrees>43.34316604770720005035400390625</LatitudeDegrees>
              <LongitudeDegrees>-1.75699518062174320220947265625</LongitudeDegrees>
            </Position>
            <AltitudeMeters>7</AltitudeMeters>
            <DistanceMeters>NAN</DistanceMeters>
          </Trackpoint>
          <Trackpoint>
            <Time>2021-08-11T10:00:29.000Z</Time>
            <Position>
              <LatitudeDegrees>43.34324173629283905029296875</LatitudeDegrees>
              <LongitudeDegrees>-1.75715309567749500274658203125</LongitudeDegrees>
            </Position>
            <AltitudeMeters>7.19999980926513671875</AltitudeMeters>
            <DistanceMeters>NAN</DistanceMeters>
          </Trackpoint>
          <Trackpoint>
            <Time>2021-08-11T10:00:32.000Z</Time>
            <Position>
              <LatitudeDegrees>43.34330837242305278778076171875</LatitudeDegrees>
              <LongitudeDegrees>-1.7573134414851665496826171875</LongitudeDegrees>
            </Position>
            <AltitudeMeters>7.19999980926513671875</AltitudeMeters>
            <DistanceMeters>NAN</DistanceMeters>
          </Trackpoint>
          <Trackpoint>
            <Time>2021-08-11T10:00:33.000Z</Time>
            <Position>
              <LatitudeDegrees>43.34333335049450397491455078125</LatitudeDegrees>
              <LongitudeDegrees>-1.75737085752189159393310546875</LongitudeDegrees>
            </Position>
            <AltitudeMeters>7.19999980926513671875</AltitudeMeters>
            <DistanceMeters>NAN</DistanceMeters>
          </Trackpoint>
          <Trackpoint>
            <Time>2021-08-11T10:00:35.000Z</Time>
            <Position>
              <LatitudeDegrees>43.34338448010385036468505859375</LatitudeDegrees>
              <LongitudeDegrees>-1.75748250447213649749755859375</LongitudeDegrees>
            </Position>
            <AltitudeMeters>7.19999980926513671875</AltitudeMeters>
            <DistanceMeters>NAN</DistanceMeters>
          </Trackpoint>
          <Trackpoint>
            <Time>2021-08-11T10:00:40.000Z</Time>
            <Position>
              <LatitudeDegrees>43.3434878289699554443359375</LatitudeDegrees>
              <LongitudeDegrees>-1.75773228518664836883544921875</LongitudeDegrees>
            </Position>
            <AltitudeMeters>7.400000095367431640625</AltitudeMeters>
            <DistanceMeters>NAN</DistanceMeters>
          </Trackpoint>
          <Trackpoint>
            <Time>2021-08-11T10:00:47.000Z</Time>
            <Position>
              <LatitudeDegrees>43.3436460793018341064453125</LatitudeDegrees>
              <LongitudeDegrees>-1.7581221275031566619873046875</LongitudeDegrees>
            </Position>
            <AltitudeMeters>7.400000095367431640625</AltitudeMeters>
            <DistanceMeters>NAN</DistanceMeters>
          </Trackpoint>
          <Trackpoint>
            <Time>2021-08-11T10:00:52.000Z</Time>
            <Position>
              <LatitudeDegrees>43.34372579120099544525146484375</LatitudeDegrees>
              <LongitudeDegrees>-1.75835539586842060089111328125</LongitudeDegrees>
            </Position>
            <AltitudeMeters>7.400000095367431640625</AltitudeMeters>
            <DistanceMeters>NAN</DistanceMeters>
          </Trackpoint>
          <Trackpoint>
            <Time>2021-08-11T10:00:53.000Z</Time>
            <Position>
              <LatitudeDegrees>43.34374330937862396240234375</LatitudeDegrees>
              <LongitudeDegrees>-1.75841356627643108367919921875</LongitudeDegrees>
            </Position>
            <AltitudeMeters>7.400000095367431640625</AltitudeMeters>
            <DistanceMeters>NAN</DistanceMeters>
          </Trackpoint>
          <Trackpoint>
            <Time>2021-08-11T10:00:54.000Z</Time>
            <Position>
              <LatitudeDegrees>43.34374775178730487823486328125</LatitudeDegrees>
              <LongitudeDegrees>-1.75847031176090240478515625</LongitudeDegrees>
            </Position>
            <AltitudeMeters>7.400000095367431640625</AltitudeMeters>
            <DistanceMeters>NAN</DistanceMeters>
          </Trackpoint>
          <Trackpoint>
            <Time>2021-08-11T10:00:55.000Z</Time>
            <Position>
              <LatitudeDegrees>43.34375361911952495574951171875</LatitudeDegrees>
              <LongitudeDegrees>-1.75852739252150058746337890625</LongitudeDegrees>
            </Position>
            <AltitudeMeters>7.400000095367431640625</AltitudeMeters>
            <DistanceMeters>NAN</DistanceMeters>
          </Trackpoint>
          <Trackpoint>
            <Time>2021-08-11T10:00:56.000Z</Time>
            <Position>
              <LatitudeDegrees>43.343759067356586456298828125</LatitudeDegrees>
              <LongitudeDegrees>-1.75856821238994598388671875</LongitudeDegrees>
            </Position>
            <AltitudeMeters>7.400000095367431640625</AltitudeMeters>
            <DistanceMeters>NAN</DistanceMeters>
          </Trackpoint>
          <Trackpoint>
            <Time>2021-08-11T10:00:58.000Z</Time>
            <Position>
              <LatitudeDegrees>43.3437806926667690277099609375</LatitudeDegrees>
              <LongitudeDegrees>-1.75866837613284587860107421875</LongitudeDegrees>
            </Position>
            <AltitudeMeters>7.19999980926513671875</AltitudeMeters>
            <DistanceMeters>NAN</DistanceMeters>
          </Trackpoint>
          <Trackpoint>
            <Time>2021-08-11T10:00:59.000Z</Time>
            <Position>
              <LatitudeDegrees>43.3437904156744480133056640625</LatitudeDegrees>
              <LongitudeDegrees>-1.75871573388576507568359375</LongitudeDegrees>
            </Position>
            <AltitudeMeters>7.19999980926513671875</AltitudeMeters>
            <DistanceMeters>NAN</DistanceMeters>
          </Trackpoint>
          <Trackpoint>
            <Time>2021-08-11T10:01:00.000Z</Time>
            <Position>
              <LatitudeDegrees>43.34380374290049076080322265625</LatitudeDegrees>
              <LongitudeDegrees>-1.75876669585704803466796875</LongitudeDegrees>
            </Position>
            <AltitudeMeters>7.19999980926513671875</AltitudeMeters>
            <DistanceMeters>NAN</DistanceMeters>
          </Trackpoint>
          <Trackpoint>
            <Time>2021-08-11T10:01:01.000Z</Time>
            <Position>
              <LatitudeDegrees>43.343819081783294677734375</LatitudeDegrees>
              <LongitudeDegrees>-1.75881589762866497039794921875</LongitudeDegrees>
            </Position>
            <AltitudeMeters>7.19999980926513671875</AltitudeMeters>
            <DistanceMeters>NAN</DistanceMeters>
          </Trackpoint>
          <Trackpoint>
            <Time>2021-08-11T10:01:08.000Z</Time>
            <Position>
              <LatitudeDegrees>43.34389611147344112396240234375</LatitudeDegrees>
              <LongitudeDegrees>-1.759186126291751861572265625</LongitudeDegrees>
            </Position>
            <AltitudeMeters>7.19999980926513671875</AltitudeMeters>
            <DistanceMeters>NAN</DistanceMeters>
          </Trackpoint>
          <Trackpoint>
            <Time>2021-08-11T10:01:11.000Z</Time>
            <Position>
              <LatitudeDegrees>43.34390533156692981719970703125</LatitudeDegrees>
              <LongitudeDegrees>-1.7593210749328136444091796875</LongitudeDegrees>
            </Position>
            <AltitudeMeters>7.400000095367431640625</AltitudeMeters>
            <DistanceMeters>NAN</DistanceMeters>
          </Trackpoint>
          <Trackpoint>
            <Time>2021-08-11T10:01:12.000Z</Time>
            <Position>
              <LatitudeDegrees>43.34389996714890003204345703125</LatitudeDegrees>
              <LongitudeDegrees>-1.75937564112246036529541015625</LongitudeDegrees>
            </Position>
            <AltitudeMeters>7.400000095367431640625</AltitudeMeters>
            <DistanceMeters>NAN</DistanceMeters>
          </Trackpoint>
          <Trackpoint>
            <Time>2021-08-11T10:01:14.000Z</Time>
            <Position>
              <LatitudeDegrees>43.3439037390053272247314453125</LatitudeDegrees>
              <LongitudeDegrees>-1.759469769895076751708984375</LongitudeDegrees>
            </Position>
            <AltitudeMeters>7.599999904632568359375</AltitudeMeters>
            <DistanceMeters>NAN</DistanceMeters>
          </Trackpoint>
          <Trackpoint>
            <Time>2021-08-11T10:01:15.000Z</Time>
            <Position>
              <LatitudeDegrees>43.3439057506620883941650390625</LatitudeDegrees>
              <LongitudeDegrees>-1.75951260142028331756591796875</LongitudeDegrees>
            </Position>
            <AltitudeMeters>7.599999904632568359375</AltitudeMeters>
            <DistanceMeters>NAN</DistanceMeters>
          </Trackpoint>
          <Trackpoint>
            <Time>2021-08-11T10:01:16.000Z</Time>
            <Position>
              <LatitudeDegrees>43.34390399046242237091064453125</LatitudeDegrees>
              <LongitudeDegrees>-1.759552918374538421630859375</LongitudeDegrees>
            </Position>
            <AltitudeMeters>7.80000019073486328125</AltitudeMeters>
            <DistanceMeters>NAN</DistanceMeters>
          </Trackpoint>
          <Trackpoint>
            <Time>2021-08-11T10:01:17.000Z</Time>
            <Position>
              <LatitudeDegrees>43.34390097297728061676025390625</LatitudeDegrees>
              <LongitudeDegrees>-1.75959776155650615692138671875</LongitudeDegrees>
            </Position>
            <AltitudeMeters>7.80000019073486328125</AltitudeMeters>
            <DistanceMeters>NAN</DistanceMeters>
          </Trackpoint>
          <Trackpoint>
            <Time>2021-08-11T10:01:18.000Z</Time>
            <Position>
              <LatitudeDegrees>43.34389979951083660125732421875</LatitudeDegrees>
              <LongitudeDegrees>-1.75964587368071079254150390625</LongitudeDegrees>
            </Position>
            <AltitudeMeters>8</AltitudeMeters>
            <DistanceMeters>NAN</DistanceMeters>
          </Trackpoint>
          <Trackpoint>
            <Time>2021-08-11T10:01:19.000Z</Time>
            <Position>
              <LatitudeDegrees>43.3439047448337078094482421875</LatitudeDegrees>
              <LongitudeDegrees>-1.7596913874149322509765625</LongitudeDegrees>
            </Position>
            <AltitudeMeters>8</AltitudeMeters>
            <DistanceMeters>NAN</DistanceMeters>
          </Trackpoint>
          <Trackpoint>
            <Time>2021-08-11T10:01:20.000Z</Time>
            <Position>
              <LatitudeDegrees>43.34390885196626186370849609375</LatitudeDegrees>
              <LongitudeDegrees>-1.75973505713045597076416015625</LongitudeDegrees>
            </Position>
            <AltitudeMeters>8.19999980926513671875</AltitudeMeters>
            <DistanceMeters>NAN</DistanceMeters>
          </Trackpoint>
          <Trackpoint>
            <Time>2021-08-11T10:01:21.000Z</Time>
            <Position>
              <LatitudeDegrees>43.3439141325652599334716796875</LatitudeDegrees>
              <LongitudeDegrees>-1.75977696664631366729736328125</LongitudeDegrees>
            </Position>
            <AltitudeMeters>8.19999980926513671875</AltitudeMeters>
            <DistanceMeters>NAN</DistanceMeters>
          </Trackpoint>
          <Trackpoint>
            <Time>2021-08-11T10:01:22.000Z</Time>
            <Position>
              <LatitudeDegrees>43.3439169824123382568359375</LatitudeDegrees>
              <LongitudeDegrees>-1.75981954671442508697509765625</LongitudeDegrees>
            </Position>
            <AltitudeMeters>8.19999980926513671875</AltitudeMeters>
            <DistanceMeters>NAN</DistanceMeters>
          </Trackpoint>
          <Trackpoint>
            <Time>2021-08-11T10:01:32.000Z</Time>
            <Position>
              <LatitudeDegrees>43.343911282718181610107421875</LatitudeDegrees>
              <LongitudeDegrees>-1.7602729238569736480712890625</LongitudeDegrees>
            </Position>
            <AltitudeMeters>8.3999996185302734375</AltitudeMeters>
            <DistanceMeters>NAN</DistanceMeters>
          </Trackpoint>
          <Trackpoint>
            <Time>2021-08-11T10:01:38.000Z</Time>
            <Position>
              <LatitudeDegrees>43.34389527328312397003173828125</LatitudeDegrees>
              <LongitudeDegrees>-1.7605309188365936279296875</LongitudeDegrees>
            </Position>
            <AltitudeMeters>8.6000003814697265625</AltitudeMeters>
            <DistanceMeters>NAN</DistanceMeters>
          </Trackpoint>
          <Trackpoint>
            <Time>2021-08-11T10:01:39.000Z</Time>
            <Position>
              <LatitudeDegrees>43.343890495598316192626953125</LatitudeDegrees>
              <LongitudeDegrees>-1.76056444644927978515625</LongitudeDegrees>
            </Position>
            <AltitudeMeters>8.6000003814697265625</AltitudeMeters>
            <DistanceMeters>NAN</DistanceMeters>
          </Trackpoint>
          <Trackpoint>
            <Time>2021-08-11T10:01:40.000Z</Time>
            <Position>
              <LatitudeDegrees>43.34388471208512783050537109375</LatitudeDegrees>
              <LongitudeDegrees>-1.76058598794043064117431640625</LongitudeDegrees>
            </Position>
            <AltitudeMeters>8.6000003814697265625</AltitudeMeters>
            <DistanceMeters>NAN</DistanceMeters>
          </Trackpoint>
          <Trackpoint>
            <Time>2021-08-11T10:01:41.000Z</Time>
            <Position>
              <LatitudeDegrees>43.343881107866764068603515625</LatitudeDegrees>
              <LongitudeDegrees>-1.7606125585734844207763671875</LongitudeDegrees>
            </Position>
            <AltitudeMeters>8.6000003814697265625</AltitudeMeters>
            <DistanceMeters>NAN</DistanceMeters>
          </Trackpoint>
          <Trackpoint>
            <Time>2021-08-11T10:01:42.000Z</Time>
            <Position>
              <LatitudeDegrees>43.343877084553241729736328125</LatitudeDegrees>
              <LongitudeDegrees>-1.7606326751410961151123046875</LongitudeDegrees>
            </Position>
            <AltitudeMeters>8.80000019073486328125</AltitudeMeters>
            <DistanceMeters>NAN</DistanceMeters>
          </Trackpoint>
          <Trackpoint>
            <Time>2021-08-11T10:01:43.000Z</Time>
            <Position>
              <LatitudeDegrees>43.343870379030704498291015625</LatitudeDegrees>
              <LongitudeDegrees>-1.76064826548099517822265625</LongitudeDegrees>
            </Position>
            <AltitudeMeters>8.80000019073486328125</AltitudeMeters>
            <DistanceMeters>NAN</DistanceMeters>
          </Trackpoint>
          <Trackpoint>
            <Time>2021-08-11T10:01:44.000Z</Time>
            <Position>
              <LatitudeDegrees>43.3438601531088352203369140625</LatitudeDegrees>
              <LongitudeDegrees>-1.76067064516246318817138671875</LongitudeDegrees>
            </Position>
            <AltitudeMeters>8.80000019073486328125</AltitudeMeters>
            <DistanceMeters>NAN</DistanceMeters>
          </Trackpoint>
          <Trackpoint>
            <Time>2021-08-11T10:01:49.000Z</Time>
            <Position>
              <LatitudeDegrees>43.34379519335925579071044921875</LatitudeDegrees>
              <LongitudeDegrees>-1.7608165740966796875</LongitudeDegrees>
            </Position>
            <AltitudeMeters>9</AltitudeMeters>
            <DistanceMeters>NAN</DistanceMeters>
          </Trackpoint>
          <Trackpoint>
            <Time>2021-08-11T10:01:52.000Z</Time>
            <Position>
              <LatitudeDegrees>43.3437880687415599822998046875</LatitudeDegrees>
              <LongitudeDegrees>-1.76091690547764301300048828125</LongitudeDegrees>
            </Position>
            <AltitudeMeters>8.80000019073486328125</AltitudeMeters>
            <DistanceMeters>NAN</DistanceMeters>
          </Trackpoint>
          <Trackpoint>
            <Time>2021-08-11T10:01:53.000Z</Time>
            <Position>
              <LatitudeDegrees>43.343794606626033782958984375</LatitudeDegrees>
              <LongitudeDegrees>-1.76095194183290004730224609375</LongitudeDegrees>
            </Position>
            <AltitudeMeters>8.80000019073486328125</AltitudeMeters>
            <DistanceMeters>NAN</DistanceMeters>
          </Trackpoint>
          <Trackpoint>
            <Time>2021-08-11T10:01:54.000Z</Time>
            <Position>
              <LatitudeDegrees>43.343802988529205322265625</LatitudeDegrees>
              <LongitudeDegrees>-1.7609880678355693817138671875</LongitudeDegrees>
            </Position>
            <AltitudeMeters>8.80000019073486328125</AltitudeMeters>
            <DistanceMeters>NAN</DistanceMeters>
          </Trackpoint>
          <Trackpoint>
            <Time>2021-08-11T10:01:55.000Z</Time>
            <Position>
              <LatitudeDegrees>43.3438101969659328460693359375</LatitudeDegrees>
              <LongitudeDegrees>-1.76102587021887302398681640625</LongitudeDegrees>
            </Position>
            <AltitudeMeters>8.80000019073486328125</AltitudeMeters>
            <DistanceMeters>NAN</DistanceMeters>
          </Trackpoint>
          <Trackpoint>
            <Time>2021-08-11T10:01:59.000Z</Time>
            <Position>
              <LatitudeDegrees>43.34384079091250896453857421875</LatitudeDegrees>
              <LongitudeDegrees>-1.7611671052873134613037109375</LongitudeDegrees>
            </Position>
            <AltitudeMeters>8.80000019073486328125</AltitudeMeters>
            <DistanceMeters>NAN</DistanceMeters>
          </Trackpoint>
          <Trackpoint>
            <Time>2021-08-11T10:02:06.000Z</Time>
            <Position>
              <LatitudeDegrees>43.34388001821935176849365234375</LatitudeDegrees>
              <LongitudeDegrees>-1.761471368372440338134765625</LongitudeDegrees>
            </Position>
            <AltitudeMeters>7.80000019073486328125</AltitudeMeters>
            <DistanceMeters>NAN</DistanceMeters>
          </Trackpoint>
          <Trackpoint>
            <Time>2021-08-11T10:02:07.000Z</Time>
            <Position>
              <LatitudeDegrees>43.3438660204410552978515625</LatitudeDegrees>
              <LongitudeDegrees>-1.76152274943888187408447265625</LongitudeDegrees>
            </Position>
            <AltitudeMeters>7.599999904632568359375</AltitudeMeters>
            <DistanceMeters>NAN</DistanceMeters>
          </Trackpoint>
          <Trackpoint>
            <Time>2021-08-11T10:02:08.000Z</Time>
            <Position>
              <LatitudeDegrees>43.343852944672107696533203125</LatitudeDegrees>
              <LongitudeDegrees>-1.761571951210498809814453125</LongitudeDegrees>
            </Position>
            <AltitudeMeters>7.400000095367431640625</AltitudeMeters>
            <DistanceMeters>NAN</DistanceMeters>
          </Trackpoint>
          <Trackpoint>
            <Time>2021-08-11T10:02:09.000Z</Time>
            <Position>
              <LatitudeDegrees>43.34383743815124034881591796875</LatitudeDegrees>
              <LongitudeDegrees>-1.76161930896341800689697265625</LongitudeDegrees>
            </Position>
            <AltitudeMeters>7.19999980926513671875</AltitudeMeters>
            <DistanceMeters>NAN</DistanceMeters>
          </Trackpoint>
          <Trackpoint>
            <Time>2021-08-11T10:02:12.000Z</Time>
            <Position>
              <LatitudeDegrees>43.34380005486309528350830078125</LatitudeDegrees>
              <LongitudeDegrees>-1.7617588676512241363525390625</LongitudeDegrees>
            </Position>
            <AltitudeMeters>6.80000019073486328125</AltitudeMeters>
            <DistanceMeters>NAN</DistanceMeters>
          </Trackpoint>
          <Trackpoint>
            <Time>2021-08-11T10:02:16.000Z</Time>
            <Position>
              <LatitudeDegrees>43.34376275539398193359375</LatitudeDegrees>
              <LongitudeDegrees>-1.76192860119044780731201171875</LongitudeDegrees>
            </Position>
            <AltitudeMeters>6.599999904632568359375</AltitudeMeters>
            <DistanceMeters>NAN</DistanceMeters>
          </Trackpoint>
          <Trackpoint>
            <Time>2021-08-11T10:02:17.000Z</Time>
            <Position>
              <LatitudeDegrees>43.34375412203371524810791015625</LatitudeDegrees>
              <LongitudeDegrees>-1.76196313463151454925537109375</LongitudeDegrees>
            </Position>
            <AltitudeMeters>6.400000095367431640625</AltitudeMeters>
            <DistanceMeters>NAN</DistanceMeters>
          </Trackpoint>
          <Trackpoint>
            <Time>2021-08-11T10:02:18.000Z</Time>
            <Position>
              <LatitudeDegrees>43.34374557249248027801513671875</LatitudeDegrees>
              <LongitudeDegrees>-1.76199615933001041412353515625</LongitudeDegrees>
            </Position>
            <AltitudeMeters>6.400000095367431640625</AltitudeMeters>
            <DistanceMeters>NAN</DistanceMeters>
          </Trackpoint>
          <Trackpoint>
            <Time>2021-08-11T10:02:19.000Z</Time>
            <Position>
              <LatitudeDegrees>43.34373660385608673095703125</LatitudeDegrees>
              <LongitudeDegrees>-1.76203253678977489471435546875</LongitudeDegrees>
            </Position>
            <AltitudeMeters>6.19999980926513671875</AltitudeMeters>
            <DistanceMeters>NAN</DistanceMeters>
          </Trackpoint>
          <Trackpoint>
            <Time>2021-08-11T10:02:25.000Z</Time>
            <Position>
              <LatitudeDegrees>43.34366644732654094696044921875</LatitudeDegrees>
              <LongitudeDegrees>-1.76228709518909454345703125</LongitudeDegrees>
            </Position>
            <AltitudeMeters>6.19999980926513671875</AltitudeMeters>
            <DistanceMeters>NAN</DistanceMeters>
          </Trackpoint>
          <Trackpoint>
            <Time>2021-08-11T10:02:32.000Z</Time>
            <Position>
              <LatitudeDegrees>43.343541808426380157470703125</LatitudeDegrees>
              <LongitudeDegrees>-1.7625749297440052032470703125</LongitudeDegrees>
            </Position>
            <AltitudeMeters>6.19999980926513671875</AltitudeMeters>
            <DistanceMeters>NAN</DistanceMeters>
          </Trackpoint>
          <Trackpoint>
            <Time>2021-08-11T10:02:37.000Z</Time>
            <Position>
              <LatitudeDegrees>43.34342052228748798370361328125</LatitudeDegrees>
              <LongitudeDegrees>-1.76275740377604961395263671875</LongitudeDegrees>
            </Position>
            <AltitudeMeters>6.400000095367431640625</AltitudeMeters>
            <DistanceMeters>NAN</DistanceMeters>
          </Trackpoint>
          <Trackpoint>
            <Time>2021-08-11T10:02:38.000Z</Time>
            <Position>
              <LatitudeDegrees>43.34338682703673839569091796875</LatitudeDegrees>
              <LongitudeDegrees>-1.76280216313898563385009765625</LongitudeDegrees>
            </Position>
            <AltitudeMeters>6.400000095367431640625</AltitudeMeters>
            <DistanceMeters>NAN</DistanceMeters>
          </Trackpoint>
          <Trackpoint>
            <Time>2021-08-11T10:02:39.000Z</Time>
            <Position>
              <LatitudeDegrees>43.3433636091649532318115234375</LatitudeDegrees>
              <LongitudeDegrees>-1.76283895969390869140625</LongitudeDegrees>
            </Position>
            <AltitudeMeters>6.400000095367431640625</AltitudeMeters>
            <DistanceMeters>NAN</DistanceMeters>
          </Trackpoint>
          <Trackpoint>
            <Time>2021-08-11T10:02:44.000Z</Time>
            <Position>
              <LatitudeDegrees>43.34325137548148632049560546875</LatitudeDegrees>
              <LongitudeDegrees>-1.762985475361347198486328125</LongitudeDegrees>
            </Position>
            <AltitudeMeters>6.400000095367431640625</AltitudeMeters>
            <DistanceMeters>NAN</DistanceMeters>
          </Trackpoint>
          <Trackpoint>
            <Time>2021-08-11T10:02:45.000Z</Time>
            <Position>
              <LatitudeDegrees>43.3432298339903354644775390625</LatitudeDegrees>
              <LongitudeDegrees>-1.7630198411643505096435546875</LongitudeDegrees>
            </Position>
            <AltitudeMeters>6.400000095367431640625</AltitudeMeters>
            <DistanceMeters>NAN</DistanceMeters>
          </Trackpoint>
          <Trackpoint>
            <Time>2021-08-11T10:02:46.000Z</Time>
            <Position>
              <LatitudeDegrees>43.343210555613040924072265625</LatitudeDegrees>
              <LongitudeDegrees>-1.7630481719970703125</LongitudeDegrees>
            </Position>
            <AltitudeMeters>6.400000095367431640625</AltitudeMeters>
            <DistanceMeters>NAN</DistanceMeters>
          </Trackpoint>
          <Trackpoint>
            <Time>2021-08-11T10:02:47.000Z</Time>
            <Position>
              <LatitudeDegrees>43.34319085814058780670166015625</LatitudeDegrees>
              <LongitudeDegrees>-1.76307021640241146087646484375</LongitudeDegrees>
            </Position>
            <AltitudeMeters>6.400000095367431640625</AltitudeMeters>
            <DistanceMeters>NAN</DistanceMeters>
          </Trackpoint>
          <Trackpoint>
            <Time>2021-08-11T10:02:48.000Z</Time>
            <Position>
              <LatitudeDegrees>43.3431631140410900115966796875</LatitudeDegrees>
              <LongitudeDegrees>-1.76309653557837009429931640625</LongitudeDegrees>
            </Position>
            <AltitudeMeters>6.400000095367431640625</AltitudeMeters>
            <DistanceMeters>NAN</DistanceMeters>
          </Trackpoint>
          <Trackpoint>
            <Time>2021-08-11T10:02:49.000Z</Time>
            <Position>
              <LatitudeDegrees>43.34313620813190937042236328125</LatitudeDegrees>
              <LongitudeDegrees>-1.763130985200405120849609375</LongitudeDegrees>
            </Position>
            <AltitudeMeters>6.400000095367431640625</AltitudeMeters>
            <DistanceMeters>NAN</DistanceMeters>
          </Trackpoint>
          <Trackpoint>
            <Time>2021-08-11T10:02:50.000Z</Time>
            <Position>
              <LatitudeDegrees>43.34311642684042453765869140625</LatitudeDegrees>
              <LongitudeDegrees>-1.76316040568053722381591796875</LongitudeDegrees>
            </Position>
            <AltitudeMeters>6.400000095367431640625</AltitudeMeters>
            <DistanceMeters>NAN</DistanceMeters>
          </Trackpoint>
          <Trackpoint>
            <Time>2021-08-11T10:02:51.000Z</Time>
            <Position>
              <LatitudeDegrees>43.34309882484376430511474609375</LatitudeDegrees>
              <LongitudeDegrees>-1.76318831741809844970703125</LongitudeDegrees>
            </Position>
            <AltitudeMeters>6.400000095367431640625</AltitudeMeters>
            <DistanceMeters>NAN</DistanceMeters>
          </Trackpoint>
          <Trackpoint>
            <Time>2021-08-11T10:02:52.000Z</Time>
            <Position>
              <LatitudeDegrees>43.34308709017932415008544921875</LatitudeDegrees>
              <LongitudeDegrees>-1.76320818252861499786376953125</LongitudeDegrees>
            </Position>
            <AltitudeMeters>6.400000095367431640625</AltitudeMeters>
            <DistanceMeters>NAN</DistanceMeters>
          </Trackpoint>
          <Trackpoint>
            <Time>2021-08-11T10:02:53.000Z</Time>
            <Position>
              <LatitudeDegrees>43.3430720865726470947265625</LatitudeDegrees>
              <LongitudeDegrees>-1.7632337473332881927490234375</LongitudeDegrees>
            </Position>
            <AltitudeMeters>6.400000095367431640625</AltitudeMeters>
            <DistanceMeters>NAN</DistanceMeters>
          </Trackpoint>
          <Trackpoint>
            <Time>2021-08-11T10:02:54.000Z</Time>
            <Position>
              <LatitudeDegrees>43.34305540658533573150634765625</LatitudeDegrees>
              <LongitudeDegrees>-1.76326534710824489593505859375</LongitudeDegrees>
            </Position>
            <AltitudeMeters>6.400000095367431640625</AltitudeMeters>
            <DistanceMeters>NAN</DistanceMeters>
          </Trackpoint>
          <Trackpoint>
            <Time>2021-08-11T10:02:55.000Z</Time>
            <Position>
              <LatitudeDegrees>43.3430430851876735687255859375</LatitudeDegrees>
              <LongitudeDegrees>-1.763287894427776336669921875</LongitudeDegrees>
            </Position>
            <AltitudeMeters>6.19999980926513671875</AltitudeMeters>
            <DistanceMeters>NAN</DistanceMeters>
          </Trackpoint>
          <Trackpoint>
            <Time>2021-08-11T10:02:56.000Z</Time>
            <Position>
              <LatitudeDegrees>43.34303260780870914459228515625</LatitudeDegrees>
              <LongitudeDegrees>-1.76331161521375179290771484375</LongitudeDegrees>
            </Position>
            <AltitudeMeters>6.19999980926513671875</AltitudeMeters>
            <DistanceMeters>NAN</DistanceMeters>
          </Trackpoint>
          <Trackpoint>
            <Time>2021-08-11T10:02:57.000Z</Time>
            <Position>
              <LatitudeDegrees>43.34302246570587158203125</LatitudeDegrees>
              <LongitudeDegrees>-1.763329803943634033203125</LongitudeDegrees>
            </Position>
            <AltitudeMeters>6.19999980926513671875</AltitudeMeters>
            <DistanceMeters>NAN</DistanceMeters>
          </Trackpoint>
          <Trackpoint>
            <Time>2021-08-11T10:02:58.000Z</Time>
            <Position>
              <LatitudeDegrees>43.34300980903208255767822265625</LatitudeDegrees>
              <LongitudeDegrees>-1.7633537761867046356201171875</LongitudeDegrees>
            </Position>
            <AltitudeMeters>6.19999980926513671875</AltitudeMeters>
            <DistanceMeters>NAN</DistanceMeters>
          </Trackpoint>
          <Trackpoint>
            <Time>2021-08-11T10:03:03.000Z</Time>
            <Position>
              <LatitudeDegrees>43.3429165184497833251953125</LatitudeDegrees>
              <LongitudeDegrees>-1.76349417306482791900634765625</LongitudeDegrees>
            </Position>
            <AltitudeMeters>6.19999980926513671875</AltitudeMeters>
            <DistanceMeters>NAN</DistanceMeters>
          </Trackpoint>
          <Trackpoint>
            <Time>2021-08-11T10:03:06.000Z</Time>
            <Position>
              <LatitudeDegrees>43.3428521454334259033203125</LatitudeDegrees>
              <LongitudeDegrees>-1.76360565237700939178466796875</LongitudeDegrees>
            </Position>
            <AltitudeMeters>6.19999980926513671875</AltitudeMeters>
            <DistanceMeters>NAN</DistanceMeters>
          </Trackpoint>
          <Trackpoint>
            <Time>2021-08-11T10:03:07.000Z</Time>
            <Position>
              <LatitudeDegrees>43.34282859228551387786865234375</LatitudeDegrees>
              <LongitudeDegrees>-1.7636364139616489410400390625</LongitudeDegrees>
            </Position>
            <AltitudeMeters>6.19999980926513671875</AltitudeMeters>
            <DistanceMeters>NAN</DistanceMeters>
          </Trackpoint>
          <Trackpoint>
            <Time>2021-08-11T10:03:09.000Z</Time>
            <Position>
              <LatitudeDegrees>43.3427909575402736663818359375</LatitudeDegrees>
              <LongitudeDegrees>-1.763681508600711822509765625</LongitudeDegrees>
            </Position>
            <AltitudeMeters>6.400000095367431640625</AltitudeMeters>
            <DistanceMeters>NAN</DistanceMeters>
          </Trackpoint>
          <Trackpoint>
            <Time>2021-08-11T10:03:10.000Z</Time>
            <Position>
              <LatitudeDegrees>43.342766650021076202392578125</LatitudeDegrees>
              <LongitudeDegrees>-1.7637071572244167327880859375</LongitudeDegrees>
            </Position>
            <AltitudeMeters>6.400000095367431640625</AltitudeMeters>
            <DistanceMeters>NAN</DistanceMeters>
          </Trackpoint>
          <Trackpoint>
            <Time>2021-08-11T10:03:11.000Z</Time>
            <Position>
              <LatitudeDegrees>43.3427534066140651702880859375</LatitudeDegrees>
              <LongitudeDegrees>-1.76372333429753780364990234375</LongitudeDegrees>
            </Position>
            <AltitudeMeters>6.400000095367431640625</AltitudeMeters>
            <DistanceMeters>NAN</DistanceMeters>
          </Trackpoint>
          <Trackpoint>
            <Time>2021-08-11T10:03:12.000Z</Time>
            <Position>
              <LatitudeDegrees>43.34274142049252986907958984375</LatitudeDegrees>
              <LongitudeDegrees>-1.76374060101807117462158203125</LongitudeDegrees>
            </Position>
            <AltitudeMeters>6.400000095367431640625</AltitudeMeters>
            <DistanceMeters>NAN</DistanceMeters>
          </Trackpoint>
          <Trackpoint>
            <Time>2021-08-11T10:03:13.000Z</Time>
            <Position>
              <LatitudeDegrees>43.34272784180939197540283203125</LatitudeDegrees>
              <LongitudeDegrees>-1.7637618072330951690673828125</LongitudeDegrees>
            </Position>
            <AltitudeMeters>6.400000095367431640625</AltitudeMeters>
            <DistanceMeters>NAN</DistanceMeters>
          </Trackpoint>
          <Trackpoint>
            <Time>2021-08-11T10:03:14.000Z</Time>
            <Position>
              <LatitudeDegrees>43.34271593950688838958740234375</LatitudeDegrees>
              <LongitudeDegrees>-1.76377764903008937835693359375</LongitudeDegrees>
            </Position>
            <AltitudeMeters>6.400000095367431640625</AltitudeMeters>
            <DistanceMeters>NAN</DistanceMeters>
          </Trackpoint>
          <Trackpoint>
            <Time>2021-08-11T10:03:16.000Z</Time>
            <Position>
              <LatitudeDegrees>43.34268962033092975616455078125</LatitudeDegrees>
              <LongitudeDegrees>-1.7638275213539600372314453125</LongitudeDegrees>
            </Position>
            <AltitudeMeters>6.400000095367431640625</AltitudeMeters>
            <DistanceMeters>NAN</DistanceMeters>
          </Trackpoint>
          <Trackpoint>
            <Time>2021-08-11T10:03:18.000Z</Time>
            <Position>
              <LatitudeDegrees>43.34266749210655689239501953125</LatitudeDegrees>
              <LongitudeDegrees>-1.76385610364377498626708984375</LongitudeDegrees>
            </Position>
            <AltitudeMeters>6.400000095367431640625</AltitudeMeters>
            <DistanceMeters>NAN</DistanceMeters>
          </Trackpoint>
          <Trackpoint>
            <Time>2021-08-11T10:03:19.000Z</Time>
            <Position>
              <LatitudeDegrees>43.34265642799437046051025390625</LatitudeDegrees>
              <LongitudeDegrees>-1.7638640664517879486083984375</LongitudeDegrees>
            </Position>
            <AltitudeMeters>6.400000095367431640625</AltitudeMeters>
            <DistanceMeters>NAN</DistanceMeters>
          </Trackpoint>
          <Trackpoint>
            <Time>2021-08-11T10:03:20.000Z</Time>
            <Position>
              <LatitudeDegrees>43.34264385513961315155029296875</LatitudeDegrees>
              <LongitudeDegrees>-1.76387454383075237274169921875</LongitudeDegrees>
            </Position>
            <AltitudeMeters>6.400000095367431640625</AltitudeMeters>
            <DistanceMeters>NAN</DistanceMeters>
          </Trackpoint>
          <Trackpoint>
            <Time>2021-08-11T10:03:21.000Z</Time>
            <Position>
              <LatitudeDegrees>43.34262826479971408843994140625</LatitudeDegrees>
              <LongitudeDegrees>-1.76388300955295562744140625</LongitudeDegrees>
            </Position>
            <AltitudeMeters>6.400000095367431640625</AltitudeMeters>
            <DistanceMeters>NAN</DistanceMeters>
          </Trackpoint>
          <Trackpoint>
            <Time>2021-08-11T10:03:22.000Z</Time>
            <Position>
              <LatitudeDegrees>43.34261485375463962554931640625</LatitudeDegrees>
              <LongitudeDegrees>-1.76388091407716274261474609375</LongitudeDegrees>
            </Position>
            <AltitudeMeters>6.400000095367431640625</AltitudeMeters>
            <DistanceMeters>NAN</DistanceMeters>
          </Trackpoint>
          <Trackpoint>
            <Time>2021-08-11T10:03:23.000Z</Time>
            <Position>
              <LatitudeDegrees>43.34260378964245319366455078125</LatitudeDegrees>
              <LongitudeDegrees>-1.76387093961238861083984375</LongitudeDegrees>
            </Position>
            <AltitudeMeters>6.400000095367431640625</AltitudeMeters>
            <DistanceMeters>NAN</DistanceMeters>
          </Trackpoint>
          <Trackpoint>
            <Time>2021-08-11T10:03:24.000Z</Time>
            <Position>
              <LatitudeDegrees>43.3426035381853580474853515625</LatitudeDegrees>
              <LongitudeDegrees>-1.763859875500202178955078125</LongitudeDegrees>
            </Position>
            <AltitudeMeters>6.400000095367431640625</AltitudeMeters>
            <DistanceMeters>NAN</DistanceMeters>
          </Trackpoint>
          <Trackpoint>
            <Time>2021-08-11T10:03:25.000Z</Time>
            <Position>
              <LatitudeDegrees>43.342609740793704986572265625</LatitudeDegrees>
              <LongitudeDegrees>-1.763847135007381439208984375</LongitudeDegrees>
            </Position>
            <AltitudeMeters>6.400000095367431640625</AltitudeMeters>
            <DistanceMeters>NAN</DistanceMeters>
          </Trackpoint>
          <Trackpoint>
            <Time>2021-08-11T10:03:26.000Z</Time>
            <Position>
              <LatitudeDegrees>43.3426125906407833099365234375</LatitudeDegrees>
              <LongitudeDegrees>-1.763834394514560699462890625</LongitudeDegrees>
            </Position>
            <AltitudeMeters>6.400000095367431640625</AltitudeMeters>
            <DistanceMeters>NAN</DistanceMeters>
          </Trackpoint>
          <Trackpoint>
            <Time>2021-08-11T10:03:27.000Z</Time>
            <Position>
              <LatitudeDegrees>43.34261099807918071746826171875</LatitudeDegrees>
              <LongitudeDegrees>-1.76381587050855159759521484375</LongitudeDegrees>
            </Position>
            <AltitudeMeters>6.400000095367431640625</AltitudeMeters>
            <DistanceMeters>NAN</DistanceMeters>
          </Trackpoint>
          <Trackpoint>
            <Time>2021-08-11T10:03:28.000Z</Time>
            <Position>
              <LatitudeDegrees>43.34261368028819561004638671875</LatitudeDegrees>
              <LongitudeDegrees>-1.7637963406741619110107421875</LongitudeDegrees>
            </Position>
            <AltitudeMeters>6.400000095367431640625</AltitudeMeters>
            <DistanceMeters>NAN</DistanceMeters>
          </Trackpoint>
          <Trackpoint>
            <Time>2021-08-11T10:03:29.000Z</Time>
            <Position>
              <LatitudeDegrees>43.34261544048786163330078125</LatitudeDegrees>
              <LongitudeDegrees>-1.7637715302407741546630859375</LongitudeDegrees>
            </Position>
            <AltitudeMeters>6.400000095367431640625</AltitudeMeters>
            <DistanceMeters>NAN</DistanceMeters>
          </Trackpoint>
          <Trackpoint>
            <Time>2021-08-11T10:03:30.000Z</Time>
            <Position>
              <LatitudeDegrees>43.342617116868495941162109375</LatitudeDegrees>
              <LongitudeDegrees>-1.76374948583543300628662109375</LongitudeDegrees>
            </Position>
            <AltitudeMeters>6.400000095367431640625</AltitudeMeters>
            <DistanceMeters>NAN</DistanceMeters>
          </Trackpoint>
          <Trackpoint>
            <Time>2021-08-11T10:03:35.000Z</Time>
            <Position>
              <LatitudeDegrees>43.3426236547529697418212890625</LatitudeDegrees>
              <LongitudeDegrees>-1.763635911047458648681640625</LongitudeDegrees>
            </Position>
            <AltitudeMeters>6.19999980926513671875</AltitudeMeters>
            <DistanceMeters>NAN</DistanceMeters>
          </Trackpoint>
          <Trackpoint>
            <Time>2021-08-11T10:03:36.000Z</Time>
            <Position>
              <LatitudeDegrees>43.3426186256110668182373046875</LatitudeDegrees>
              <LongitudeDegrees>-1.7636216618120670318603515625</LongitudeDegrees>
            </Position>
            <AltitudeMeters>6.19999980926513671875</AltitudeMeters>
            <DistanceMeters>NAN</DistanceMeters>
          </Trackpoint>
          <Trackpoint>
            <Time>2021-08-11T10:03:37.000Z</Time>
            <Position>
              <LatitudeDegrees>43.342615775763988494873046875</LatitudeDegrees>
              <LongitudeDegrees>-1.7636129446327686309814453125</LongitudeDegrees>
            </Position>
            <AltitudeMeters>6.19999980926513671875</AltitudeMeters>
            <DistanceMeters>NAN</DistanceMeters>
          </Trackpoint>
          <Trackpoint>
            <Time>2021-08-11T10:03:39.000Z</Time>
            <Position>
              <LatitudeDegrees>43.342615775763988494873046875</LatitudeDegrees>
              <LongitudeDegrees>-1.7636129446327686309814453125</LongitudeDegrees>
            </Position>
            <AltitudeMeters>6.19999980926513671875</AltitudeMeters>
            <DistanceMeters>NAN</DistanceMeters>
          </Trackpoint>
          <Trackpoint>
            <Time>2021-08-11T10:03:45.000Z</Time>
            <Position>
              <LatitudeDegrees>43.34261619485914707183837890625</LatitudeDegrees>
              <LongitudeDegrees>-1.76364102400839328765869140625</LongitudeDegrees>
            </Position>
            <AltitudeMeters>6.19999980926513671875</AltitudeMeters>
            <DistanceMeters>NAN</DistanceMeters>
          </Trackpoint>
          <Trackpoint>
            <Time>2021-08-11T10:03:49.000Z</Time>
            <Position>
              <LatitudeDegrees>43.3426134288311004638671875</LatitudeDegrees>
              <LongitudeDegrees>-1.76364429295063018798828125</LongitudeDegrees>
            </Position>
            <AltitudeMeters>6.19999980926513671875</AltitudeMeters>
            <DistanceMeters>NAN</DistanceMeters>
          </Trackpoint>
          <Trackpoint>
            <Time>2021-08-11T10:03:50.000Z</Time>
            <Position>
              <LatitudeDegrees>43.3426109142601490020751953125</LatitudeDegrees>
              <LongitudeDegrees>-1.76366918720304965972900390625</LongitudeDegrees>
            </Position>
            <AltitudeMeters>6.19999980926513671875</AltitudeMeters>
            <DistanceMeters>NAN</DistanceMeters>
          </Trackpoint>
          <Trackpoint>
            <Time>2021-08-11T10:03:55.000Z</Time>
            <Position>
              <LatitudeDegrees>43.34260546602308750152587890625</LatitudeDegrees>
              <LongitudeDegrees>-1.76380832679569721221923828125</LongitudeDegrees>
            </Position>
            <AltitudeMeters>6.19999980926513671875</AltitudeMeters>
            <DistanceMeters>NAN</DistanceMeters>
          </Trackpoint>
          <Trackpoint>
            <Time>2021-08-11T10:03:56.000Z</Time>
            <Position>
              <LatitudeDegrees>43.34260295145213603973388671875</LatitudeDegrees>
              <LongitudeDegrees>-1.7638313770294189453125</LongitudeDegrees>
            </Position>
            <AltitudeMeters>6.19999980926513671875</AltitudeMeters>
            <DistanceMeters>NAN</DistanceMeters>
          </Trackpoint>
          <Trackpoint>
            <Time>2021-08-11T10:03:57.000Z</Time>
            <Position>
              <LatitudeDegrees>43.3426001854240894317626953125</LatitudeDegrees>
              <LongitudeDegrees>-1.76384537480771541595458984375</LongitudeDegrees>
            </Position>
            <AltitudeMeters>6.19999980926513671875</AltitudeMeters>
            <DistanceMeters>NAN</DistanceMeters>
          </Trackpoint>
          <Trackpoint>
            <Time>2021-08-11T10:04:02.000Z</Time>
            <Position>
              <LatitudeDegrees>43.3425978384912014007568359375</LatitudeDegrees>
              <LongitudeDegrees>-1.76385174505412578582763671875</LongitudeDegrees>
            </Position>
            <AltitudeMeters>6.19999980926513671875</AltitudeMeters>
            <DistanceMeters>NAN</DistanceMeters>
          </Trackpoint>
          <Trackpoint>
            <Time>2021-08-11T10:04:11.000Z</Time>
            <Position>
              <LatitudeDegrees>43.342584930360317230224609375</LatitudeDegrees>
              <LongitudeDegrees>-1.76388191990554332733154296875</LongitudeDegrees>
            </Position>
            <AltitudeMeters>6.400000095367431640625</AltitudeMeters>
            <DistanceMeters>NAN</DistanceMeters>
          </Trackpoint>
          <Trackpoint>
            <Time>2021-08-11T10:04:12.000Z</Time>
            <Position>
              <LatitudeDegrees>43.3425867743790149688720703125</LatitudeDegrees>
              <LongitudeDegrees>-1.76389239728450775146484375</LongitudeDegrees>
            </Position>
            <AltitudeMeters>6.400000095367431640625</AltitudeMeters>
            <DistanceMeters>NAN</DistanceMeters>
          </Trackpoint>
          <Trackpoint>
            <Time>2021-08-11T10:04:16.000Z</Time>
            <Position>
              <LatitudeDegrees>43.34259775467216968536376953125</LatitudeDegrees>
              <LongitudeDegrees>-1.76387957297265529632568359375</LongitudeDegrees>
            </Position>
            <AltitudeMeters>6.400000095367431640625</AltitudeMeters>
            <DistanceMeters>NAN</DistanceMeters>
          </Trackpoint>
          <Trackpoint>
            <Time>2021-08-11T10:04:28.000Z</Time>
            <Position>
              <LatitudeDegrees>43.342614434659481048583984375</LatitudeDegrees>
              <LongitudeDegrees>-1.76386917941272258758544921875</LongitudeDegrees>
            </Position>
            <AltitudeMeters>6.400000095367431640625</AltitudeMeters>
            <DistanceMeters>NAN</DistanceMeters>
          </Trackpoint>
          <Trackpoint>
            <Time>2021-08-11T10:04:29.000Z</Time>
            <Position>
              <LatitudeDegrees>43.34262440912425518035888671875</LatitudeDegrees>
              <LongitudeDegrees>-1.76387504674494266510009765625</LongitudeDegrees>
            </Position>
            <AltitudeMeters>6.400000095367431640625</AltitudeMeters>
            <DistanceMeters>NAN</DistanceMeters>
          </Trackpoint>
          <Trackpoint>
            <Time>2021-08-11T10:04:31.000Z</Time>
            <Position>
              <LatitudeDegrees>43.342621810734272003173828125</LatitudeDegrees>
              <LongitudeDegrees>-1.76391092129051685333251953125</LongitudeDegrees>
            </Position>
            <AltitudeMeters>6.400000095367431640625</AltitudeMeters>
            <DistanceMeters>NAN</DistanceMeters>
          </Trackpoint>
          <Trackpoint>
            <Time>2021-08-11T10:04:32.000Z</Time>
            <Position>
              <LatitudeDegrees>43.34261887706816196441650390625</LatitudeDegrees>
              <LongitudeDegrees>-1.7639301158487796783447265625</LongitudeDegrees>
            </Position>
            <AltitudeMeters>6.400000095367431640625</AltitudeMeters>
            <DistanceMeters>NAN</DistanceMeters>
          </Trackpoint>
          <Trackpoint>
            <Time>2021-08-11T10:04:33.000Z</Time>
            <Position>
              <LatitudeDegrees>43.3426182903349399566650390625</LatitudeDegrees>
              <LongitudeDegrees>-1.7639535851776599884033203125</LongitudeDegrees>
            </Position>
            <AltitudeMeters>6.400000095367431640625</AltitudeMeters>
            <DistanceMeters>NAN</DistanceMeters>
          </Trackpoint>
          <Trackpoint>
            <Time>2021-08-11T10:04:34.000Z</Time>
            <Position>
              <LatitudeDegrees>43.3426189608871936798095703125</LatitudeDegrees>
              <LongitudeDegrees>-1.76397814415395259857177734375</LongitudeDegrees>
            </Position>
            <AltitudeMeters>6.400000095367431640625</AltitudeMeters>
            <DistanceMeters>NAN</DistanceMeters>
          </Trackpoint>
          <Trackpoint>
            <Time>2021-08-11T10:04:37.000Z</Time>
            <Position>
              <LatitudeDegrees>43.342613093554973602294921875</LatitudeDegrees>
              <LongitudeDegrees>-1.7641158588230609893798828125</LongitudeDegrees>
            </Position>
            <AltitudeMeters>6.400000095367431640625</AltitudeMeters>
            <DistanceMeters>NAN</DistanceMeters>
          </Trackpoint>
          <Trackpoint>
            <Time>2021-08-11T10:04:41.000Z</Time>
            <Position>
              <LatitudeDegrees>43.34257914684712886810302734375</LatitudeDegrees>
              <LongitudeDegrees>-1.76429380662739276885986328125</LongitudeDegrees>
            </Position>
            <AltitudeMeters>6.400000095367431640625</AltitudeMeters>
            <DistanceMeters>NAN</DistanceMeters>
          </Trackpoint>
          <Trackpoint>
            <Time>2021-08-11T10:04:42.000Z</Time>
            <Position>
              <LatitudeDegrees>43.3425703458487987518310546875</LatitudeDegrees>
              <LongitudeDegrees>-1.76434594206511974334716796875</LongitudeDegrees>
            </Position>
            <AltitudeMeters>6.400000095367431640625</AltitudeMeters>
            <DistanceMeters>NAN</DistanceMeters>
          </Trackpoint>
          <Trackpoint>
            <Time>2021-08-11T10:04:44.000Z</Time>
            <Position>
              <LatitudeDegrees>43.342558108270168304443359375</LatitudeDegrees>
              <LongitudeDegrees>-1.76443713717162609100341796875</LongitudeDegrees>
            </Position>
            <AltitudeMeters>6.400000095367431640625</AltitudeMeters>
            <DistanceMeters>NAN</DistanceMeters>
          </Trackpoint>
          <Trackpoint>
            <Time>2021-08-11T10:04:50.000Z</Time>
            <Position>
              <LatitudeDegrees>43.34246548824012279510498046875</LatitudeDegrees>
              <LongitudeDegrees>-1.7646896839141845703125</LongitudeDegrees>
            </Position>
            <AltitudeMeters>6.400000095367431640625</AltitudeMeters>
            <DistanceMeters>NAN</DistanceMeters>
          </Trackpoint>
          <Trackpoint>
            <Time>2021-08-11T10:04:57.000Z</Time>
            <Position>
              <LatitudeDegrees>43.34240983240306377410888671875</LatitudeDegrees>
              <LongitudeDegrees>-1.76504977047443389892578125</LongitudeDegrees>
            </Position>
            <AltitudeMeters>6.80000019073486328125</AltitudeMeters>
            <DistanceMeters>NAN</DistanceMeters>
          </Trackpoint>
          <Trackpoint>
            <Time>2021-08-11T10:05:07.000Z</Time>
            <Position>
              <LatitudeDegrees>43.34232567809522151947021484375</LatitudeDegrees>
              <LongitudeDegrees>-1.76559694111347198486328125</LongitudeDegrees>
            </Position>
            <AltitudeMeters>7</AltitudeMeters>
            <DistanceMeters>NAN</DistanceMeters>
          </Trackpoint>
          <Trackpoint>
            <Time>2021-08-11T10:05:12.000Z</Time>
            <Position>
              <LatitudeDegrees>43.342263065278530120849609375</LatitudeDegrees>
              <LongitudeDegrees>-1.765864826738834381103515625</LongitudeDegrees>
            </Position>
            <AltitudeMeters>7.19999980926513671875</AltitudeMeters>
            <DistanceMeters>NAN</DistanceMeters>
          </Trackpoint>
          <Trackpoint>
            <Time>2021-08-11T10:05:19.000Z</Time>
            <Position>
              <LatitudeDegrees>43.342202045023441314697265625</LatitudeDegrees>
              <LongitudeDegrees>-1.766300015151500701904296875</LongitudeDegrees>
            </Position>
            <AltitudeMeters>7.599999904632568359375</AltitudeMeters>
            <DistanceMeters>NAN</DistanceMeters>
          </Trackpoint>
          <Trackpoint>
            <Time>2021-08-11T10:05:28.000Z</Time>
            <Position>
              <LatitudeDegrees>43.342132978141307830810546875</LatitudeDegrees>
              <LongitudeDegrees>-1.76684609614312648773193359375</LongitudeDegrees>
            </Position>
            <AltitudeMeters>7.599999904632568359375</AltitudeMeters>
            <DistanceMeters>NAN</DistanceMeters>
          </Trackpoint>
          <Trackpoint>
            <Time>2021-08-11T10:05:31.000Z</Time>
            <Position>
              <LatitudeDegrees>43.34210489876568317413330078125</LatitudeDegrees>
              <LongitudeDegrees>-1.76704256795346736907958984375</LongitudeDegrees>
            </Position>
            <AltitudeMeters>7.80000019073486328125</AltitudeMeters>
            <DistanceMeters>NAN</DistanceMeters>
          </Trackpoint>
          <Trackpoint>
            <Time>2021-08-11T10:05:35.000Z</Time>
            <Position>
              <LatitudeDegrees>43.3420764841139316558837890625</LatitudeDegrees>
              <LongitudeDegrees>-1.76729536615312099456787109375</LongitudeDegrees>
            </Position>
            <AltitudeMeters>7.80000019073486328125</AltitudeMeters>
            <DistanceMeters>NAN</DistanceMeters>
          </Trackpoint>
          <Trackpoint>
            <Time>2021-08-11T10:05:42.000Z</Time>
            <Position>
              <LatitudeDegrees>43.34203247912228107452392578125</LatitudeDegrees>
              <LongitudeDegrees>-1.7677378468215465545654296875</LongitudeDegrees>
            </Position>
            <AltitudeMeters>7.599999904632568359375</AltitudeMeters>
            <DistanceMeters>NAN</DistanceMeters>
          </Trackpoint>
          <Trackpoint>
            <Time>2021-08-11T10:05:44.000Z</Time>
            <Position>
              <LatitudeDegrees>43.34202292375266551971435546875</LatitudeDegrees>
              <LongitudeDegrees>-1.7678504996001720428466796875</LongitudeDegrees>
            </Position>
            <AltitudeMeters>7.599999904632568359375</AltitudeMeters>
            <DistanceMeters>NAN</DistanceMeters>
          </Trackpoint>
          <Trackpoint>
            <Time>2021-08-11T10:05:46.000Z</Time>
            <Position>
              <LatitudeDegrees>43.34200532175600528717041015625</LatitudeDegrees>
              <LongitudeDegrees>-1.76798771135509014129638671875</LongitudeDegrees>
            </Position>
            <AltitudeMeters>7.599999904632568359375</AltitudeMeters>
            <DistanceMeters>NAN</DistanceMeters>
          </Trackpoint>
          <Trackpoint>
            <Time>2021-08-11T10:05:47.000Z</Time>
            <Position>
              <LatitudeDegrees>43.34199978969991207122802734375</LatitudeDegrees>
              <LongitudeDegrees>-1.7680362425744533538818359375</LongitudeDegrees>
            </Position>
            <AltitudeMeters>7.599999904632568359375</AltitudeMeters>
            <DistanceMeters>NAN</DistanceMeters>
          </Trackpoint>
          <Trackpoint>
            <Time>2021-08-11T10:05:48.000Z</Time>
            <Position>
              <LatitudeDegrees>43.34199476055800914764404296875</LatitudeDegrees>
              <LongitudeDegrees>-1.76809675991535186767578125</LongitudeDegrees>
            </Position>
            <AltitudeMeters>7.400000095367431640625</AltitudeMeters>
            <DistanceMeters>NAN</DistanceMeters>
          </Trackpoint>
          <Trackpoint>
            <Time>2021-08-11T10:05:50.000Z</Time>
            <Position>
              <LatitudeDegrees>43.34198771975934505462646484375</LatitudeDegrees>
              <LongitudeDegrees>-1.76821586675941944122314453125</LongitudeDegrees>
            </Position>
            <AltitudeMeters>7.400000095367431640625</AltitudeMeters>
            <DistanceMeters>NAN</DistanceMeters>
          </Trackpoint>
          <Trackpoint>
            <Time>2021-08-11T10:05:51.000Z</Time>
            <Position>
              <LatitudeDegrees>43.34197917021811008453369140625</LatitudeDegrees>
              <LongitudeDegrees>-1.76828107796609401702880859375</LongitudeDegrees>
            </Position>
            <AltitudeMeters>7.400000095367431640625</AltitudeMeters>
            <DistanceMeters>NAN</DistanceMeters>
          </Trackpoint>
          <Trackpoint>
            <Time>2021-08-11T10:05:53.000Z</Time>
            <Position>
              <LatitudeDegrees>43.34195368923246860504150390625</LatitudeDegrees>
              <LongitudeDegrees>-1.7683882825076580047607421875</LongitudeDegrees>
            </Position>
            <AltitudeMeters>7.400000095367431640625</AltitudeMeters>
            <DistanceMeters>NAN</DistanceMeters>
          </Trackpoint>
          <Trackpoint>
            <Time>2021-08-11T10:05:54.000Z</Time>
            <Position>
              <LatitudeDegrees>43.34194413386285305023193359375</LatitudeDegrees>
              <LongitudeDegrees>-1.7684327065944671630859375</LongitudeDegrees>
            </Position>
            <AltitudeMeters>7.400000095367431640625</AltitudeMeters>
            <DistanceMeters>NAN</DistanceMeters>
          </Trackpoint>
          <Trackpoint>
            <Time>2021-08-11T10:05:55.000Z</Time>
            <Position>
              <LatitudeDegrees>43.34193407557904720306396484375</LatitudeDegrees>
              <LongitudeDegrees>-1.76848978735506534576416015625</LongitudeDegrees>
            </Position>
            <AltitudeMeters>7.400000095367431640625</AltitudeMeters>
            <DistanceMeters>NAN</DistanceMeters>
          </Trackpoint>
          <Trackpoint>
            <Time>2021-08-11T10:05:56.000Z</Time>
            <Position>
              <LatitudeDegrees>43.3419187366962432861328125</LatitudeDegrees>
              <LongitudeDegrees>-1.76855868659913539886474609375</LongitudeDegrees>
            </Position>
            <AltitudeMeters>7.400000095367431640625</AltitudeMeters>
            <DistanceMeters>NAN</DistanceMeters>
          </Trackpoint>
          <Trackpoint>
            <Time>2021-08-11T10:05:59.000Z</Time>
            <Position>
              <LatitudeDegrees>43.3419026434421539306640625</LatitudeDegrees>
              <LongitudeDegrees>-1.768738813698291778564453125</LongitudeDegrees>
            </Position>
            <AltitudeMeters>7.400000095367431640625</AltitudeMeters>
            <DistanceMeters>NAN</DistanceMeters>
          </Trackpoint>
          <Trackpoint>
            <Time>2021-08-11T10:06:04.000Z</Time>
            <Position>
              <LatitudeDegrees>43.341885544359683990478515625</LatitudeDegrees>
              <LongitudeDegrees>-1.7690455913543701171875</LongitudeDegrees>
            </Position>
            <AltitudeMeters>7.599999904632568359375</AltitudeMeters>
            <DistanceMeters>NAN</DistanceMeters>
          </Trackpoint>
          <Trackpoint>
            <Time>2021-08-11T10:06:07.000Z</Time>
            <Position>
              <LatitudeDegrees>43.34188059903681278228759765625</LatitudeDegrees>
              <LongitudeDegrees>-1.7692341841757297515869140625</LongitudeDegrees>
            </Position>
            <AltitudeMeters>7.599999904632568359375</AltitudeMeters>
            <DistanceMeters>NAN</DistanceMeters>
          </Trackpoint>
          <Trackpoint>
            <Time>2021-08-11T10:06:08.000Z</Time>
            <Position>
              <LatitudeDegrees>43.34188076667487621307373046875</LatitudeDegrees>
              <LongitudeDegrees>-1.769294701516628265380859375</LongitudeDegrees>
            </Position>
            <AltitudeMeters>7.599999904632568359375</AltitudeMeters>
            <DistanceMeters>NAN</DistanceMeters>
          </Trackpoint>
          <Trackpoint>
            <Time>2021-08-11T10:06:13.000Z</Time>
            <Position>
              <LatitudeDegrees>43.34185964427888393402099609375</LatitudeDegrees>
              <LongitudeDegrees>-1.7695979587733745574951171875</LongitudeDegrees>
            </Position>
            <AltitudeMeters>7.400000095367431640625</AltitudeMeters>
            <DistanceMeters>NAN</DistanceMeters>
          </Trackpoint>
          <Trackpoint>
            <Time>2021-08-11T10:06:15.000Z</Time>
            <Position>
              <LatitudeDegrees>43.34185478277504444122314453125</LatitudeDegrees>
              <LongitudeDegrees>-1.7697156406939029693603515625</LongitudeDegrees>
            </Position>
            <AltitudeMeters>7.19999980926513671875</AltitudeMeters>
            <DistanceMeters>NAN</DistanceMeters>
          </Trackpoint>
          <Trackpoint>
            <Time>2021-08-11T10:06:16.000Z</Time>
            <Position>
              <LatitudeDegrees>43.34185176528990268707275390625</LatitudeDegrees>
              <LongitudeDegrees>-1.76976509392261505126953125</LongitudeDegrees>
            </Position>
            <AltitudeMeters>7.19999980926513671875</AltitudeMeters>
            <DistanceMeters>NAN</DistanceMeters>
          </Trackpoint>
          <Trackpoint>
            <Time>2021-08-11T10:06:17.000Z</Time>
            <Position>
              <LatitudeDegrees>43.34184723906219005584716796875</LatitudeDegrees>
              <LongitudeDegrees>-1.769827120006084442138671875</LongitudeDegrees>
            </Position>
            <AltitudeMeters>7.19999980926513671875</AltitudeMeters>
            <DistanceMeters>NAN</DistanceMeters>
          </Trackpoint>
          <Trackpoint>
            <Time>2021-08-11T10:06:22.000Z</Time>
            <Position>
              <LatitudeDegrees>43.341819830238819122314453125</LatitudeDegrees>
              <LongitudeDegrees>-1.77012627013027667999267578125</LongitudeDegrees>
            </Position>
            <AltitudeMeters>7</AltitudeMeters>
            <DistanceMeters>NAN</DistanceMeters>
          </Trackpoint>
          <Trackpoint>
            <Time>2021-08-11T10:06:23.000Z</Time>
            <Position>
              <LatitudeDegrees>43.341815471649169921875</LatitudeDegrees>
              <LongitudeDegrees>-1.770192570984363555908203125</LongitudeDegrees>
            </Position>
            <AltitudeMeters>7</AltitudeMeters>
            <DistanceMeters>NAN</DistanceMeters>
          </Trackpoint>
          <Trackpoint>
            <Time>2021-08-11T10:06:24.000Z</Time>
            <Position>
              <LatitudeDegrees>43.341812454164028167724609375</LatitudeDegrees>
              <LongitudeDegrees>-1.77023959346115589141845703125</LongitudeDegrees>
            </Position>
            <AltitudeMeters>7.19999980926513671875</AltitudeMeters>
            <DistanceMeters>NAN</DistanceMeters>
          </Trackpoint>
          <Trackpoint>
            <Time>2021-08-11T10:06:30.000Z</Time>
            <Position>
              <LatitudeDegrees>43.34178538061678409576416015625</LatitudeDegrees>
              <LongitudeDegrees>-1.77062935195863246917724609375</LongitudeDegrees>
            </Position>
            <AltitudeMeters>7.599999904632568359375</AltitudeMeters>
            <DistanceMeters>NAN</DistanceMeters>
          </Trackpoint>
          <Trackpoint>
            <Time>2021-08-11T10:06:32.000Z</Time>
            <Position>
              <LatitudeDegrees>43.34178370423614978790283203125</LatitudeDegrees>
              <LongitudeDegrees>-1.77073873579502105712890625</LongitudeDegrees>
            </Position>
            <AltitudeMeters>7.599999904632568359375</AltitudeMeters>
            <DistanceMeters>NAN</DistanceMeters>
          </Trackpoint>
          <Trackpoint>
            <Time>2021-08-11T10:06:39.000Z</Time>
            <Position>
              <LatitudeDegrees>43.3417510986328125</LatitudeDegrees>
              <LongitudeDegrees>-1.77116663195192813873291015625</LongitudeDegrees>
            </Position>
            <AltitudeMeters>7.400000095367431640625</AltitudeMeters>
            <DistanceMeters>NAN</DistanceMeters>
          </Trackpoint>
          <Trackpoint>
            <Time>2021-08-11T10:06:40.000Z</Time>
            <Position>
              <LatitudeDegrees>43.341748081147670745849609375</LatitudeDegrees>
              <LongitudeDegrees>-1.771226562559604644775390625</LongitudeDegrees>
            </Position>
            <AltitudeMeters>7.400000095367431640625</AltitudeMeters>
            <DistanceMeters>NAN</DistanceMeters>
          </Trackpoint>
          <Trackpoint>
            <Time>2021-08-11T10:06:41.000Z</Time>
            <Position>
              <LatitudeDegrees>43.3417445607483386993408203125</LatitudeDegrees>
              <LongitudeDegrees>-1.77128146402537822723388671875</LongitudeDegrees>
            </Position>
            <AltitudeMeters>7.400000095367431640625</AltitudeMeters>
            <DistanceMeters>NAN</DistanceMeters>
          </Trackpoint>
          <Trackpoint>
            <Time>2021-08-11T10:06:42.000Z</Time>
            <Position>
              <LatitudeDegrees>43.34173860959708690643310546875</LatitudeDegrees>
              <LongitudeDegrees>-1.77132337354123592376708984375</LongitudeDegrees>
            </Position>
            <AltitudeMeters>7.400000095367431640625</AltitudeMeters>
            <DistanceMeters>NAN</DistanceMeters>
          </Trackpoint>
          <Trackpoint>
            <Time>2021-08-11T10:06:43.000Z</Time>
            <Position>
              <LatitudeDegrees>43.34173609502613544464111328125</LatitudeDegrees>
              <LongitudeDegrees>-1.7713782750070095062255859375</LongitudeDegrees>
            </Position>
            <AltitudeMeters>7.400000095367431640625</AltitudeMeters>
            <DistanceMeters>NAN</DistanceMeters>
          </Trackpoint>
          <Trackpoint>
            <Time>2021-08-11T10:06:44.000Z</Time>
            <Position>
              <LatitudeDegrees>43.34173257462680339813232421875</LatitudeDegrees>
              <LongitudeDegrees>-1.771433763206005096435546875</LongitudeDegrees>
            </Position>
            <AltitudeMeters>7.400000095367431640625</AltitudeMeters>
            <DistanceMeters>NAN</DistanceMeters>
          </Trackpoint>
          <Trackpoint>
            <Time>2021-08-11T10:06:45.000Z</Time>
            <Position>
              <LatitudeDegrees>43.34172737784683704376220703125</LatitudeDegrees>
              <LongitudeDegrees>-1.77149805240333080291748046875</LongitudeDegrees>
            </Position>
            <AltitudeMeters>7.599999904632568359375</AltitudeMeters>
            <DistanceMeters>NAN</DistanceMeters>
          </Trackpoint>
          <Trackpoint>
            <Time>2021-08-11T10:06:46.000Z</Time>
            <Position>
              <LatitudeDegrees>43.341722600162029266357421875</LatitudeDegrees>
              <LongitudeDegrees>-1.77155370824038982391357421875</LongitudeDegrees>
            </Position>
            <AltitudeMeters>7.599999904632568359375</AltitudeMeters>
            <DistanceMeters>NAN</DistanceMeters>
          </Trackpoint>
          <Trackpoint>
            <Time>2021-08-11T10:06:47.000Z</Time>
            <Position>
              <LatitudeDegrees>43.34171296097338199615478515625</LatitudeDegrees>
              <LongitudeDegrees>-1.77161053754389286041259765625</LongitudeDegrees>
            </Position>
            <AltitudeMeters>7.599999904632568359375</AltitudeMeters>
            <DistanceMeters>NAN</DistanceMeters>
          </Trackpoint>
          <Trackpoint>
            <Time>2021-08-11T10:06:48.000Z</Time>
            <Position>
              <LatitudeDegrees>43.3417073450982570648193359375</LatitudeDegrees>
              <LongitudeDegrees>-1.771655716001987457275390625</LongitudeDegrees>
            </Position>
            <AltitudeMeters>7.599999904632568359375</AltitudeMeters>
            <DistanceMeters>NAN</DistanceMeters>
          </Trackpoint>
          <Trackpoint>
            <Time>2021-08-11T10:06:49.000Z</Time>
            <Position>
              <LatitudeDegrees>43.34170239977538585662841796875</LatitudeDegrees>
              <LongitudeDegrees>-1.77171011455357074737548828125</LongitudeDegrees>
            </Position>
            <AltitudeMeters>7.599999904632568359375</AltitudeMeters>
            <DistanceMeters>NAN</DistanceMeters>
          </Trackpoint>
          <Trackpoint>
            <Time>2021-08-11T10:06:50.000Z</Time>
            <Position>
              <LatitudeDegrees>43.34170206449925899505615234375</LatitudeDegrees>
              <LongitudeDegrees>-1.7717661894857883453369140625</LongitudeDegrees>
            </Position>
            <AltitudeMeters>7.599999904632568359375</AltitudeMeters>
            <DistanceMeters>NAN</DistanceMeters>
          </Trackpoint>
          <Trackpoint>
            <Time>2021-08-11T10:06:51.000Z</Time>
            <Position>
              <LatitudeDegrees>43.34170038811862468719482421875</LatitudeDegrees>
              <LongitudeDegrees>-1.77183282561600208282470703125</LongitudeDegrees>
            </Position>
            <AltitudeMeters>7.599999904632568359375</AltitudeMeters>
            <DistanceMeters>NAN</DistanceMeters>
          </Trackpoint>
          <Trackpoint>
            <Time>2021-08-11T10:06:52.000Z</Time>
            <Position>
              <LatitudeDegrees>43.3416996337473392486572265625</LatitudeDegrees>
              <LongitudeDegrees>-1.77188395522534847259521484375</LongitudeDegrees>
            </Position>
            <AltitudeMeters>7.599999904632568359375</AltitudeMeters>
            <DistanceMeters>NAN</DistanceMeters>
          </Trackpoint>
          <Trackpoint>
            <Time>2021-08-11T10:06:53.000Z</Time>
            <Position>
              <LatitudeDegrees>43.341700471937656402587890625</LatitudeDegrees>
              <LongitudeDegrees>-1.771920584142208099365234375</LongitudeDegrees>
            </Position>
            <AltitudeMeters>7.599999904632568359375</AltitudeMeters>
            <DistanceMeters>NAN</DistanceMeters>
          </Trackpoint>
          <Trackpoint>
            <Time>2021-08-11T10:06:54.000Z</Time>
            <Position>
              <LatitudeDegrees>43.34170223213732242584228515625</LatitudeDegrees>
              <LongitudeDegrees>-1.77196358330547809600830078125</LongitudeDegrees>
            </Position>
            <AltitudeMeters>7.599999904632568359375</AltitudeMeters>
            <DistanceMeters>NAN</DistanceMeters>
          </Trackpoint>
          <Trackpoint>
            <Time>2021-08-11T10:06:55.000Z</Time>
            <Position>
              <LatitudeDegrees>43.34170172922313213348388671875</LatitudeDegrees>
              <LongitudeDegrees>-1.772012449800968170166015625</LongitudeDegrees>
            </Position>
            <AltitudeMeters>7.599999904632568359375</AltitudeMeters>
            <DistanceMeters>NAN</DistanceMeters>
          </Trackpoint>
          <Trackpoint>
            <Time>2021-08-11T10:06:56.000Z</Time>
            <Position>
              <LatitudeDegrees>43.34170340560376644134521484375</LatitudeDegrees>
              <LongitudeDegrees>-1.77205092273652553558349609375</LongitudeDegrees>
            </Position>
            <AltitudeMeters>7.599999904632568359375</AltitudeMeters>
            <DistanceMeters>NAN</DistanceMeters>
          </Trackpoint>
          <Trackpoint>
            <Time>2021-08-11T10:06:57.000Z</Time>
            <Position>
              <LatitudeDegrees>43.34170072339475154876708984375</LatitudeDegrees>
              <LongitudeDegrees>-1.772089563310146331787109375</LongitudeDegrees>
            </Position>
            <AltitudeMeters>7.599999904632568359375</AltitudeMeters>
            <DistanceMeters>NAN</DistanceMeters>
          </Trackpoint>
          <Trackpoint>
            <Time>2021-08-11T10:06:59.000Z</Time>
            <Position>
              <LatitudeDegrees>43.34171882830560207366943359375</LatitudeDegrees>
              <LongitudeDegrees>-1.7721490748226642608642578125</LongitudeDegrees>
            </Position>
            <AltitudeMeters>7.599999904632568359375</AltitudeMeters>
            <DistanceMeters>NAN</DistanceMeters>
          </Trackpoint>
          <Trackpoint>
            <Time>2021-08-11T10:07:00.000Z</Time>
            <Position>
              <LatitudeDegrees>43.3417324908077716827392578125</LatitudeDegrees>
              <LongitudeDegrees>-1.77217866294085979461669921875</LongitudeDegrees>
            </Position>
            <AltitudeMeters>7.599999904632568359375</AltitudeMeters>
            <DistanceMeters>NAN</DistanceMeters>
          </Trackpoint>
          <Trackpoint>
            <Time>2021-08-11T10:07:01.000Z</Time>
            <Position>
              <LatitudeDegrees>43.3417448960244655609130859375</LatitudeDegrees>
              <LongitudeDegrees>-1.77221554331481456756591796875</LongitudeDegrees>
            </Position>
            <AltitudeMeters>7.599999904632568359375</AltitudeMeters>
            <DistanceMeters>NAN</DistanceMeters>
          </Trackpoint>
          <Trackpoint>
            <Time>2021-08-11T10:07:02.000Z</Time>
            <Position>
              <LatitudeDegrees>43.3417485840618610382080078125</LatitudeDegrees>
              <LongitudeDegrees>-1.77224689163267612457275390625</LongitudeDegrees>
            </Position>
            <AltitudeMeters>7.599999904632568359375</AltitudeMeters>
            <DistanceMeters>NAN</DistanceMeters>
          </Trackpoint>
          <Trackpoint>
            <Time>2021-08-11T10:07:03.000Z</Time>
            <Position>
              <LatitudeDegrees>43.34175067953765392303466796875</LatitudeDegrees>
              <LongitudeDegrees>-1.77227698266506195068359375</LongitudeDegrees>
            </Position>
            <AltitudeMeters>7.400000095367431640625</AltitudeMeters>
            <DistanceMeters>NAN</DistanceMeters>
          </Trackpoint>
          <Trackpoint>
            <Time>2021-08-11T10:07:04.000Z</Time>
            <Position>
              <LatitudeDegrees>43.3417499251663684844970703125</LatitudeDegrees>
              <LongitudeDegrees>-1.7723009549081325531005859375</LongitudeDegrees>
            </Position>
            <AltitudeMeters>7.400000095367431640625</AltitudeMeters>
            <DistanceMeters>NAN</DistanceMeters>
          </Trackpoint>
          <Trackpoint>
            <Time>2021-08-11T10:07:05.000Z</Time>
            <Position>
              <LatitudeDegrees>43.34174430929124355316162109375</LatitudeDegrees>
              <LongitudeDegrees>-1.7723326385021209716796875</LongitudeDegrees>
            </Position>
            <AltitudeMeters>7.400000095367431640625</AltitudeMeters>
            <DistanceMeters>NAN</DistanceMeters>
          </Trackpoint>
          <Trackpoint>
            <Time>2021-08-11T10:07:06.000Z</Time>
            <Position>
              <LatitudeDegrees>43.34173089824616909027099609375</LatitudeDegrees>
              <LongitudeDegrees>-1.77237027324736118316650390625</LongitudeDegrees>
            </Position>
            <AltitudeMeters>7.400000095367431640625</AltitudeMeters>
            <DistanceMeters>NAN</DistanceMeters>
          </Trackpoint>
          <Trackpoint>
            <Time>2021-08-11T10:07:07.000Z</Time>
            <Position>
              <LatitudeDegrees>43.34171430207788944244384765625</LatitudeDegrees>
              <LongitudeDegrees>-1.77240229211747646331787109375</LongitudeDegrees>
            </Position>
            <AltitudeMeters>7.400000095367431640625</AltitudeMeters>
            <DistanceMeters>NAN</DistanceMeters>
          </Trackpoint>
          <Trackpoint>
            <Time>2021-08-11T10:07:08.000Z</Time>
            <Position>
              <LatitudeDegrees>43.34169954992830753326416015625</LatitudeDegrees>
              <LongitudeDegrees>-1.7724400945007801055908203125</LongitudeDegrees>
            </Position>
            <AltitudeMeters>7.400000095367431640625</AltitudeMeters>
            <DistanceMeters>NAN</DistanceMeters>
          </Trackpoint>
          <Trackpoint>
            <Time>2021-08-11T10:07:11.000Z</Time>
            <Position>
              <LatitudeDegrees>43.3416821993887424468994140625</LatitudeDegrees>
              <LongitudeDegrees>-1.7725671641528606414794921875</LongitudeDegrees>
            </Position>
            <AltitudeMeters>7.400000095367431640625</AltitudeMeters>
            <DistanceMeters>NAN</DistanceMeters>
          </Trackpoint>
          <Trackpoint>
            <Time>2021-08-11T10:07:12.000Z</Time>
            <Position>
              <LatitudeDegrees>43.34168664179742336273193359375</LatitudeDegrees>
              <LongitudeDegrees>-1.77262541837990283966064453125</LongitudeDegrees>
            </Position>
            <AltitudeMeters>7.400000095367431640625</AltitudeMeters>
            <DistanceMeters>NAN</DistanceMeters>
          </Trackpoint>
          <Trackpoint>
            <Time>2021-08-11T10:07:13.000Z</Time>
            <Position>
              <LatitudeDegrees>43.34169007837772369384765625</LatitudeDegrees>
              <LongitudeDegrees>-1.772676967084407806396484375</LongitudeDegrees>
            </Position>
            <AltitudeMeters>7.400000095367431640625</AltitudeMeters>
            <DistanceMeters>NAN</DistanceMeters>
          </Trackpoint>
          <Trackpoint>
            <Time>2021-08-11T10:07:14.000Z</Time>
            <Position>
              <LatitudeDegrees>43.34169217385351657867431640625</LatitudeDegrees>
              <LongitudeDegrees>-1.7727296054363250732421875</LongitudeDegrees>
            </Position>
            <AltitudeMeters>7.400000095367431640625</AltitudeMeters>
            <DistanceMeters>NAN</DistanceMeters>
          </Trackpoint>
          <Trackpoint>
            <Time>2021-08-11T10:07:16.000Z</Time>
            <Position>
              <LatitudeDegrees>43.34169904701411724090576171875</LatitudeDegrees>
              <LongitudeDegrees>-1.77282624877989292144775390625</LongitudeDegrees>
            </Position>
            <AltitudeMeters>7.400000095367431640625</AltitudeMeters>
            <DistanceMeters>NAN</DistanceMeters>
          </Trackpoint>
          <Trackpoint>
            <Time>2021-08-11T10:07:20.000Z</Time>
            <Position>
              <LatitudeDegrees>43.34171094931662082672119140625</LatitudeDegrees>
              <LongitudeDegrees>-1.773042418062686920166015625</LongitudeDegrees>
            </Position>
            <AltitudeMeters>7.400000095367431640625</AltitudeMeters>
            <DistanceMeters>NAN</DistanceMeters>
          </Trackpoint>
          <Trackpoint>
            <Time>2021-08-11T10:07:30.000Z</Time>
            <Position>
              <LatitudeDegrees>43.34173341281712055206298828125</LatitudeDegrees>
              <LongitudeDegrees>-1.773613728582859039306640625</LongitudeDegrees>
            </Position>
            <AltitudeMeters>8</AltitudeMeters>
            <DistanceMeters>NAN</DistanceMeters>
          </Trackpoint>
          <Trackpoint>
            <Time>2021-08-11T10:07:35.000Z</Time>
            <Position>
              <LatitudeDegrees>43.34174045361578464508056640625</LatitudeDegrees>
              <LongitudeDegrees>-1.77388203330338001251220703125</LongitudeDegrees>
            </Position>
            <AltitudeMeters>8</AltitudeMeters>
            <DistanceMeters>NAN</DistanceMeters>
          </Trackpoint>
          <Trackpoint>
            <Time>2021-08-11T10:07:37.000Z</Time>
            <Position>
              <LatitudeDegrees>43.3417385257780551910400390625</LatitudeDegrees>
              <LongitudeDegrees>-1.77397943101823329925537109375</LongitudeDegrees>
            </Position>
            <AltitudeMeters>8</AltitudeMeters>
            <DistanceMeters>NAN</DistanceMeters>
          </Trackpoint>
          <Trackpoint>
            <Time>2021-08-11T10:07:38.000Z</Time>
            <Position>
              <LatitudeDegrees>43.34174162708222866058349609375</LatitudeDegrees>
              <LongitudeDegrees>-1.7740262858569622039794921875</LongitudeDegrees>
            </Position>
            <AltitudeMeters>8</AltitudeMeters>
            <DistanceMeters>NAN</DistanceMeters>
          </Trackpoint>
          <Trackpoint>
            <Time>2021-08-11T10:07:40.000Z</Time>
            <Position>
              <LatitudeDegrees>43.34173793904483318328857421875</LatitudeDegrees>
              <LongitudeDegrees>-1.77411790005862712860107421875</LongitudeDegrees>
            </Position>
            <AltitudeMeters>8</AltitudeMeters>
            <DistanceMeters>NAN</DistanceMeters>
          </Trackpoint>
          <Trackpoint>
            <Time>2021-08-11T10:07:41.000Z</Time>
            <Position>
              <LatitudeDegrees>43.34173659794032573699951171875</LatitudeDegrees>
              <LongitudeDegrees>-1.774166934192180633544921875</LongitudeDegrees>
            </Position>
            <AltitudeMeters>8</AltitudeMeters>
            <DistanceMeters>NAN</DistanceMeters>
          </Trackpoint>
          <Trackpoint>
            <Time>2021-08-11T10:07:42.000Z</Time>
            <Position>
              <LatitudeDegrees>43.341733999550342559814453125</LatitudeDegrees>
              <LongitudeDegrees>-1.77422150038182735443115234375</LongitudeDegrees>
            </Position>
            <AltitudeMeters>8</AltitudeMeters>
            <DistanceMeters>NAN</DistanceMeters>
          </Trackpoint>
          <Trackpoint>
            <Time>2021-08-11T10:07:43.000Z</Time>
            <Position>
              <LatitudeDegrees>43.3417331613600254058837890625</LatitudeDegrees>
              <LongitudeDegrees>-1.7742770723998546600341796875</LongitudeDegrees>
            </Position>
            <AltitudeMeters>7.80000019073486328125</AltitudeMeters>
            <DistanceMeters>NAN</DistanceMeters>
          </Trackpoint>
          <Trackpoint>
            <Time>2021-08-11T10:07:50.000Z</Time>
            <Position>
              <LatitudeDegrees>43.34174212999641895294189453125</LatitudeDegrees>
              <LongitudeDegrees>-1.77465610206127166748046875</LongitudeDegrees>
            </Position>
            <AltitudeMeters>8</AltitudeMeters>
            <DistanceMeters>NAN</DistanceMeters>
          </Trackpoint>
          <Trackpoint>
            <Time>2021-08-11T10:07:58.000Z</Time>
            <Position>
              <LatitudeDegrees>43.34167473949491977691650390625</LatitudeDegrees>
              <LongitudeDegrees>-1.7750790528953075408935546875</LongitudeDegrees>
            </Position>
            <AltitudeMeters>8</AltitudeMeters>
            <DistanceMeters>NAN</DistanceMeters>
          </Trackpoint>
          <Trackpoint>
            <Time>2021-08-11T10:08:00.000Z</Time>
            <Position>
              <LatitudeDegrees>43.341655544936656951904296875</LatitudeDegrees>
              <LongitudeDegrees>-1.7751749418675899505615234375</LongitudeDegrees>
            </Position>
            <AltitudeMeters>8</AltitudeMeters>
            <DistanceMeters>NAN</DistanceMeters>
          </Trackpoint>
          <Trackpoint>
            <Time>2021-08-11T10:08:05.000Z</Time>
            <Position>
              <LatitudeDegrees>43.3415926806628704071044921875</LatitudeDegrees>
              <LongitudeDegrees>-1.77542983554303646087646484375</LongitudeDegrees>
            </Position>
            <AltitudeMeters>8.19999980926513671875</AltitudeMeters>
            <DistanceMeters>NAN</DistanceMeters>
          </Trackpoint>
          <Trackpoint>
            <Time>2021-08-11T10:08:07.000Z</Time>
            <Position>
              <LatitudeDegrees>43.34155538119375705718994140625</LatitudeDegrees>
              <LongitudeDegrees>-1.7755367048084735870361328125</LongitudeDegrees>
            </Position>
            <AltitudeMeters>8.19999980926513671875</AltitudeMeters>
            <DistanceMeters>NAN</DistanceMeters>
          </Trackpoint>
          <Trackpoint>
            <Time>2021-08-11T10:08:08.000Z</Time>
            <Position>
              <LatitudeDegrees>43.34154046140611171722412109375</LatitudeDegrees>
              <LongitudeDegrees>-1.7755856551229953765869140625</LongitudeDegrees>
            </Position>
            <AltitudeMeters>8.19999980926513671875</AltitudeMeters>
            <DistanceMeters>NAN</DistanceMeters>
          </Trackpoint>
          <Trackpoint>
            <Time>2021-08-11T10:08:09.000Z</Time>
            <Position>
              <LatitudeDegrees>43.341522775590419769287109375</LatitudeDegrees>
              <LongitudeDegrees>-1.77563183940947055816650390625</LongitudeDegrees>
            </Position>
            <AltitudeMeters>8.19999980926513671875</AltitudeMeters>
            <DistanceMeters>NAN</DistanceMeters>
          </Trackpoint>
          <Trackpoint>
            <Time>2021-08-11T10:08:10.000Z</Time>
            <Position>
              <LatitudeDegrees>43.34151179529726505279541015625</LatitudeDegrees>
              <LongitudeDegrees>-1.77566838450729846954345703125</LongitudeDegrees>
            </Position>
            <AltitudeMeters>8.19999980926513671875</AltitudeMeters>
            <DistanceMeters>NAN</DistanceMeters>
          </Trackpoint>
          <Trackpoint>
            <Time>2021-08-11T10:08:11.000Z</Time>
            <Position>
              <LatitudeDegrees>43.3415018208324909210205078125</LatitudeDegrees>
              <LongitudeDegrees>-1.7757150717079639434814453125</LongitudeDegrees>
            </Position>
            <AltitudeMeters>8.3999996185302734375</AltitudeMeters>
            <DistanceMeters>NAN</DistanceMeters>
          </Trackpoint>
          <Trackpoint>
            <Time>2021-08-11T10:08:12.000Z</Time>
            <Position>
              <LatitudeDegrees>43.34148631431162357330322265625</LatitudeDegrees>
              <LongitudeDegrees>-1.775768883526325225830078125</LongitudeDegrees>
            </Position>
            <AltitudeMeters>8.3999996185302734375</AltitudeMeters>
            <DistanceMeters>NAN</DistanceMeters>
          </Trackpoint>
          <Trackpoint>
            <Time>2021-08-11T10:08:13.000Z</Time>
            <Position>
              <LatitudeDegrees>43.34147608838975429534912109375</LatitudeDegrees>
              <LongitudeDegrees>-1.77581137977540493011474609375</LongitudeDegrees>
            </Position>
            <AltitudeMeters>8.3999996185302734375</AltitudeMeters>
            <DistanceMeters>NAN</DistanceMeters>
          </Trackpoint>
          <Trackpoint>
            <Time>2021-08-11T10:08:14.000Z</Time>
            <Position>
              <LatitudeDegrees>43.34147172980010509490966796875</LatitudeDegrees>
              <LongitudeDegrees>-1.775844991207122802734375</LongitudeDegrees>
            </Position>
            <AltitudeMeters>8.3999996185302734375</AltitudeMeters>
            <DistanceMeters>NAN</DistanceMeters>
          </Trackpoint>
          <Trackpoint>
            <Time>2021-08-11T10:08:15.000Z</Time>
            <Position>
              <LatitudeDegrees>43.3414609171450138092041015625</LatitudeDegrees>
              <LongitudeDegrees>-1.7758850567042827606201171875</LongitudeDegrees>
            </Position>
            <AltitudeMeters>8.3999996185302734375</AltitudeMeters>
            <DistanceMeters>NAN</DistanceMeters>
          </Trackpoint>
          <Trackpoint>
            <Time>2021-08-11T10:08:16.000Z</Time>
            <Position>
              <LatitudeDegrees>43.34144574590027332305908203125</LatitudeDegrees>
              <LongitudeDegrees>-1.77592336200177669525146484375</LongitudeDegrees>
            </Position>
            <AltitudeMeters>8.3999996185302734375</AltitudeMeters>
            <DistanceMeters>NAN</DistanceMeters>
          </Trackpoint>
          <Trackpoint>
            <Time>2021-08-11T10:08:17.000Z</Time>
            <Position>
              <LatitudeDegrees>43.34143049083650112152099609375</LatitudeDegrees>
              <LongitudeDegrees>-1.7759608291089534759521484375</LongitudeDegrees>
            </Position>
            <AltitudeMeters>8.3999996185302734375</AltitudeMeters>
            <DistanceMeters>NAN</DistanceMeters>
          </Trackpoint>
          <Trackpoint>
            <Time>2021-08-11T10:08:18.000Z</Time>
            <Position>
              <LatitudeDegrees>43.3414169959723949432373046875</LatitudeDegrees>
              <LongitudeDegrees>-1.77599879913032054901123046875</LongitudeDegrees>
            </Position>
            <AltitudeMeters>8.3999996185302734375</AltitudeMeters>
            <DistanceMeters>NAN</DistanceMeters>
          </Trackpoint>
          <Trackpoint>
            <Time>2021-08-11T10:08:19.000Z</Time>
            <Position>
              <LatitudeDegrees>43.3414042554795742034912109375</LatitudeDegrees>
              <LongitudeDegrees>-1.77603400312364101409912109375</LongitudeDegrees>
            </Position>
            <AltitudeMeters>8.3999996185302734375</AltitudeMeters>
            <DistanceMeters>NAN</DistanceMeters>
          </Trackpoint>
          <Trackpoint>
            <Time>2021-08-11T10:08:20.000Z</Time>
            <Position>
              <LatitudeDegrees>43.34138791076838970184326171875</LatitudeDegrees>
              <LongitudeDegrees>-1.776067949831485748291015625</LongitudeDegrees>
            </Position>
            <AltitudeMeters>8.6000003814697265625</AltitudeMeters>
            <DistanceMeters>NAN</DistanceMeters>
          </Trackpoint>
          <Trackpoint>
            <Time>2021-08-11T10:08:21.000Z</Time>
            <Position>
              <LatitudeDegrees>43.34137651138007640838623046875</LatitudeDegrees>
              <LongitudeDegrees>-1.7761013098061084747314453125</LongitudeDegrees>
            </Position>
            <AltitudeMeters>8.6000003814697265625</AltitudeMeters>
            <DistanceMeters>NAN</DistanceMeters>
          </Trackpoint>
          <Trackpoint>
            <Time>2021-08-11T10:08:22.000Z</Time>
            <Position>
              <LatitudeDegrees>43.34136863239109516143798828125</LatitudeDegrees>
              <LongitudeDegrees>-1.77613207139074802398681640625</LongitudeDegrees>
            </Position>
            <AltitudeMeters>8.6000003814697265625</AltitudeMeters>
            <DistanceMeters>NAN</DistanceMeters>
          </Trackpoint>
          <Trackpoint>
            <Time>2021-08-11T10:08:23.000Z</Time>
            <Position>
              <LatitudeDegrees>43.34135874174535274505615234375</LatitudeDegrees>
              <LongitudeDegrees>-1.77615973167121410369873046875</LongitudeDegrees>
            </Position>
            <AltitudeMeters>8.6000003814697265625</AltitudeMeters>
            <DistanceMeters>NAN</DistanceMeters>
          </Trackpoint>
          <Trackpoint>
            <Time>2021-08-11T10:08:24.000Z</Time>
            <Position>
              <LatitudeDegrees>43.341351449489593505859375</LatitudeDegrees>
              <LongitudeDegrees>-1.7761868052184581756591796875</LongitudeDegrees>
            </Position>
            <AltitudeMeters>8.6000003814697265625</AltitudeMeters>
            <DistanceMeters>NAN</DistanceMeters>
          </Trackpoint>
          <Trackpoint>
            <Time>2021-08-11T10:08:25.000Z</Time>
            <Position>
              <LatitudeDegrees>43.34134432487189769744873046875</LatitudeDegrees>
              <LongitudeDegrees>-1.7762096039950847625732421875</LongitudeDegrees>
            </Position>
            <AltitudeMeters>8.6000003814697265625</AltitudeMeters>
            <DistanceMeters>NAN</DistanceMeters>
          </Trackpoint>
          <Trackpoint>
            <Time>2021-08-11T10:08:26.000Z</Time>
            <Position>
              <LatitudeDegrees>43.34133862517774105072021484375</LatitudeDegrees>
              <LongitudeDegrees>-1.776222176849842071533203125</LongitudeDegrees>
            </Position>
            <AltitudeMeters>8.6000003814697265625</AltitudeMeters>
            <DistanceMeters>NAN</DistanceMeters>
          </Trackpoint>
          <Trackpoint>
            <Time>2021-08-11T10:08:27.000Z</Time>
            <Position>
              <LatitudeDegrees>43.3413358591496944427490234375</LatitudeDegrees>
              <LongitudeDegrees>-1.77622728981077671051025390625</LongitudeDegrees>
            </Position>
            <AltitudeMeters>8.80000019073486328125</AltitudeMeters>
            <DistanceMeters>NAN</DistanceMeters>
          </Trackpoint>
          <Trackpoint>
            <Time>2021-08-11T10:08:28.000Z</Time>
            <Position>
              <LatitudeDegrees>43.3413358591496944427490234375</LatitudeDegrees>
              <LongitudeDegrees>-1.77622728981077671051025390625</LongitudeDegrees>
            </Position>
            <AltitudeMeters>8.80000019073486328125</AltitudeMeters>
            <DistanceMeters>NAN</DistanceMeters>
          </Trackpoint>
          <Trackpoint>
            <Time>2021-08-11T10:08:36.000Z</Time>
            <Position>
              <LatitudeDegrees>43.3413358591496944427490234375</LatitudeDegrees>
              <LongitudeDegrees>-1.77622728981077671051025390625</LongitudeDegrees>
            </Position>
            <AltitudeMeters>8.80000019073486328125</AltitudeMeters>
            <DistanceMeters>NAN</DistanceMeters>
          </Trackpoint>
          <Trackpoint>
            <Time>2021-08-11T10:08:44.000Z</Time>
            <Position>
              <LatitudeDegrees>43.3413358591496944427490234375</LatitudeDegrees>
              <LongitudeDegrees>-1.77622728981077671051025390625</LongitudeDegrees>
            </Position>
            <AltitudeMeters>8.6000003814697265625</AltitudeMeters>
            <DistanceMeters>NAN</DistanceMeters>
          </Trackpoint>
          <Trackpoint>
            <Time>2021-08-11T10:08:57.000Z</Time>
            <Position>
              <LatitudeDegrees>43.3413358591496944427490234375</LatitudeDegrees>
              <LongitudeDegrees>-1.77622728981077671051025390625</LongitudeDegrees>
            </Position>
            <AltitudeMeters>8.6000003814697265625</AltitudeMeters>
            <DistanceMeters>NAN</DistanceMeters>
          </Trackpoint>
          <Trackpoint>
            <Time>2021-08-11T10:09:00.000Z</Time>
            <Position>
              <LatitudeDegrees>43.34133594296872615814208984375</LatitudeDegrees>
              <LongitudeDegrees>-1.77622997201979160308837890625</LongitudeDegrees>
            </Position>
            <AltitudeMeters>8.6000003814697265625</AltitudeMeters>
            <DistanceMeters>NAN</DistanceMeters>
          </Trackpoint>
          <Trackpoint>
            <Time>2021-08-11T10:09:03.000Z</Time>
            <Position>
              <LatitudeDegrees>43.34133996628224849700927734375</LatitudeDegrees>
              <LongitudeDegrees>-1.7762756533920764923095703125</LongitudeDegrees>
            </Position>
            <AltitudeMeters>8.6000003814697265625</AltitudeMeters>
            <DistanceMeters>NAN</DistanceMeters>
          </Trackpoint>
          <Trackpoint>
            <Time>2021-08-11T10:09:04.000Z</Time>
            <Position>
              <LatitudeDegrees>43.3413385413587093353271484375</LatitudeDegrees>
              <LongitudeDegrees>-1.77628713659942150115966796875</LongitudeDegrees>
            </Position>
            <AltitudeMeters>8.6000003814697265625</AltitudeMeters>
            <DistanceMeters>NAN</DistanceMeters>
          </Trackpoint>
          <Trackpoint>
            <Time>2021-08-11T10:09:05.000Z</Time>
            <Position>
              <LatitudeDegrees>43.34133761934936046600341796875</LatitudeDegrees>
              <LongitudeDegrees>-1.77629384212195873260498046875</LongitudeDegrees>
            </Position>
            <AltitudeMeters>8.6000003814697265625</AltitudeMeters>
            <DistanceMeters>NAN</DistanceMeters>
          </Trackpoint>
          <Trackpoint>
            <Time>2021-08-11T10:09:14.000Z</Time>
            <Position>
              <LatitudeDegrees>43.34133761934936046600341796875</LatitudeDegrees>
              <LongitudeDegrees>-1.77629384212195873260498046875</LongitudeDegrees>
            </Position>
            <AltitudeMeters>8.6000003814697265625</AltitudeMeters>
            <DistanceMeters>NAN</DistanceMeters>
          </Trackpoint>
          <Trackpoint>
            <Time>2021-08-11T10:09:20.000Z</Time>
            <Position>
              <LatitudeDegrees>43.3413378708064556121826171875</LatitudeDegrees>
              <LongitudeDegrees>-1.77630431950092315673828125</LongitudeDegrees>
            </Position>
            <AltitudeMeters>8.6000003814697265625</AltitudeMeters>
            <DistanceMeters>NAN</DistanceMeters>
          </Trackpoint>
          <Trackpoint>
            <Time>2021-08-11T10:09:50.000Z</Time>
            <Position>
              <LatitudeDegrees>43.3413378708064556121826171875</LatitudeDegrees>
              <LongitudeDegrees>-1.77630457095801830291748046875</LongitudeDegrees>
            </Position>
            <AltitudeMeters>8.6000003814697265625</AltitudeMeters>
            <DistanceMeters>NAN</DistanceMeters>
          </Trackpoint>
          <Trackpoint>
            <Time>2021-08-11T10:09:55.000Z</Time>
            <Position>
              <LatitudeDegrees>43.3413365297019481658935546875</LatitudeDegrees>
              <LongitudeDegrees>-1.7763081751763820648193359375</LongitudeDegrees>
            </Position>
            <AltitudeMeters>8.80000019073486328125</AltitudeMeters>
            <DistanceMeters>NAN</DistanceMeters>
          </Trackpoint>
          <Trackpoint>
            <Time>2021-08-11T10:09:58.000Z</Time>
            <Position>
              <LatitudeDegrees>43.34130392409861087799072265625</LatitudeDegrees>
              <LongitudeDegrees>-1.77639417350292205810546875</LongitudeDegrees>
            </Position>
            <AltitudeMeters>9</AltitudeMeters>
            <DistanceMeters>NAN</DistanceMeters>
          </Trackpoint>
          <Trackpoint>
            <Time>2021-08-11T10:10:04.000Z</Time>
            <Position>
              <LatitudeDegrees>43.3411856554448604583740234375</LatitudeDegrees>
              <LongitudeDegrees>-1.77662928588688373565673828125</LongitudeDegrees>
            </Position>
            <AltitudeMeters>9</AltitudeMeters>
            <DistanceMeters>NAN</DistanceMeters>
          </Trackpoint>
          <Trackpoint>
            <Time>2021-08-11T10:10:05.000Z</Time>
            <Position>
              <LatitudeDegrees>43.34116444922983646392822265625</LatitudeDegrees>
              <LongitudeDegrees>-1.77666482515633106231689453125</LongitudeDegrees>
            </Position>
            <AltitudeMeters>9</AltitudeMeters>
            <DistanceMeters>NAN</DistanceMeters>
          </Trackpoint>
          <Trackpoint>
            <Time>2021-08-11T10:10:11.000Z</Time>
            <Position>
              <LatitudeDegrees>43.34107291884720325469970703125</LatitudeDegrees>
              <LongitudeDegrees>-1.77688979543745517730712890625</LongitudeDegrees>
            </Position>
            <AltitudeMeters>9</AltitudeMeters>
            <DistanceMeters>NAN</DistanceMeters>
          </Trackpoint>
          <Trackpoint>
            <Time>2021-08-11T10:10:12.000Z</Time>
            <Position>
              <LatitudeDegrees>43.341060094535350799560546875</LatitudeDegrees>
              <LongitudeDegrees>-1.77692432887852191925048828125</LongitudeDegrees>
            </Position>
            <AltitudeMeters>9</AltitudeMeters>
            <DistanceMeters>NAN</DistanceMeters>
          </Trackpoint>
          <Trackpoint>
            <Time>2021-08-11T10:10:14.000Z</Time>
            <Position>
              <LatitudeDegrees>43.34103830158710479736328125</LatitudeDegrees>
              <LongitudeDegrees>-1.77702105604112148284912109375</LongitudeDegrees>
            </Position>
            <AltitudeMeters>9</AltitudeMeters>
            <DistanceMeters>NAN</DistanceMeters>
          </Trackpoint>
          <Trackpoint>
            <Time>2021-08-11T10:10:15.000Z</Time>
            <Position>
              <LatitudeDegrees>43.34103805013000965118408203125</LatitudeDegrees>
              <LongitudeDegrees>-1.77707402966916561126708984375</LongitudeDegrees>
            </Position>
            <AltitudeMeters>9</AltitudeMeters>
            <DistanceMeters>NAN</DistanceMeters>
          </Trackpoint>
          <Trackpoint>
            <Time>2021-08-11T10:10:16.000Z</Time>
            <Position>
              <LatitudeDegrees>43.34103821776807308197021484375</LatitudeDegrees>
              <LongitudeDegrees>-1.77712985314428806304931640625</LongitudeDegrees>
            </Position>
            <AltitudeMeters>9</AltitudeMeters>
            <DistanceMeters>NAN</DistanceMeters>
          </Trackpoint>
          <Trackpoint>
            <Time>2021-08-11T10:10:18.000Z</Time>
            <Position>
              <LatitudeDegrees>43.3410411514341831207275390625</LatitudeDegrees>
              <LongitudeDegrees>-1.7772442661225795745849609375</LongitudeDegrees>
            </Position>
            <AltitudeMeters>9</AltitudeMeters>
            <DistanceMeters>NAN</DistanceMeters>
          </Trackpoint>
          <Trackpoint>
            <Time>2021-08-11T10:10:19.000Z</Time>
            <Position>
              <LatitudeDegrees>43.34104056470096111297607421875</LatitudeDegrees>
              <LongitudeDegrees>-1.777303107082843780517578125</LongitudeDegrees>
            </Position>
            <AltitudeMeters>9.19999980926513671875</AltitudeMeters>
            <DistanceMeters>NAN</DistanceMeters>
          </Trackpoint>
          <Trackpoint>
            <Time>2021-08-11T10:10:25.000Z</Time>
            <Position>
              <LatitudeDegrees>43.34103184752166271209716796875</LatitudeDegrees>
              <LongitudeDegrees>-1.7776415683329105377197265625</LongitudeDegrees>
            </Position>
            <AltitudeMeters>9</AltitudeMeters>
            <DistanceMeters>NAN</DistanceMeters>
          </Trackpoint>
          <Trackpoint>
            <Time>2021-08-11T10:10:29.000Z</Time>
            <Position>
              <LatitudeDegrees>43.34102329798042774200439453125</LatitudeDegrees>
              <LongitudeDegrees>-1.7778464220464229583740234375</LongitudeDegrees>
            </Position>
            <AltitudeMeters>9</AltitudeMeters>
            <DistanceMeters>NAN</DistanceMeters>
          </Trackpoint>
          <Trackpoint>
            <Time>2021-08-11T10:10:30.000Z</Time>
            <Position>
              <LatitudeDegrees>43.34102497436106204986572265625</LatitudeDegrees>
              <LongitudeDegrees>-1.77789361216127872467041015625</LongitudeDegrees>
            </Position>
            <AltitudeMeters>9</AltitudeMeters>
            <DistanceMeters>NAN</DistanceMeters>
          </Trackpoint>
          <Trackpoint>
            <Time>2021-08-11T10:10:31.000Z</Time>
            <Position>
              <LatitudeDegrees>43.34102489054203033447265625</LatitudeDegrees>
              <LongitudeDegrees>-1.777939461171627044677734375</LongitudeDegrees>
            </Position>
            <AltitudeMeters>9</AltitudeMeters>
            <DistanceMeters>NAN</DistanceMeters>
          </Trackpoint>
          <Trackpoint>
            <Time>2021-08-11T10:10:32.000Z</Time>
            <Position>
              <LatitudeDegrees>43.34102514199912548065185546875</LatitudeDegrees>
              <LongitudeDegrees>-1.77798497490584850311279296875</LongitudeDegrees>
            </Position>
            <AltitudeMeters>8.80000019073486328125</AltitudeMeters>
            <DistanceMeters>NAN</DistanceMeters>
          </Trackpoint>
          <Trackpoint>
            <Time>2021-08-11T10:10:33.000Z</Time>
            <Position>
              <LatitudeDegrees>43.341019190847873687744140625</LatitudeDegrees>
              <LongitudeDegrees>-1.778031326830387115478515625</LongitudeDegrees>
            </Position>
            <AltitudeMeters>8.80000019073486328125</AltitudeMeters>
            <DistanceMeters>NAN</DistanceMeters>
          </Trackpoint>
          <Trackpoint>
            <Time>2021-08-11T10:10:34.000Z</Time>
            <Position>
              <LatitudeDegrees>43.3410116471350193023681640625</LatitudeDegrees>
              <LongitudeDegrees>-1.77807650528848171234130859375</LongitudeDegrees>
            </Position>
            <AltitudeMeters>8.80000019073486328125</AltitudeMeters>
            <DistanceMeters>NAN</DistanceMeters>
          </Trackpoint>
          <Trackpoint>
            <Time>2021-08-11T10:10:35.000Z</Time>
            <Position>
              <LatitudeDegrees>43.3410056121647357940673828125</LatitudeDegrees>
              <LongitudeDegrees>-1.77811908535659313201904296875</LongitudeDegrees>
            </Position>
            <AltitudeMeters>8.80000019073486328125</AltitudeMeters>
            <DistanceMeters>NAN</DistanceMeters>
          </Trackpoint>
          <Trackpoint>
            <Time>2021-08-11T10:10:36.000Z</Time>
            <Position>
              <LatitudeDegrees>43.34099731408059597015380859375</LatitudeDegrees>
              <LongitudeDegrees>-1.7781605757772922515869140625</LongitudeDegrees>
            </Position>
            <AltitudeMeters>8.80000019073486328125</AltitudeMeters>
            <DistanceMeters>NAN</DistanceMeters>
          </Trackpoint>
          <Trackpoint>
            <Time>2021-08-11T10:10:37.000Z</Time>
            <Position>
              <LatitudeDegrees>43.3409979008138179779052734375</LatitudeDegrees>
              <LongitudeDegrees>-1.77820122800767421722412109375</LongitudeDegrees>
            </Position>
            <AltitudeMeters>8.80000019073486328125</AltitudeMeters>
            <DistanceMeters>NAN</DistanceMeters>
          </Trackpoint>
          <Trackpoint>
            <Time>2021-08-11T10:10:38.000Z</Time>
            <Position>
              <LatitudeDegrees>43.3409972302615642547607421875</LatitudeDegrees>
              <LongitudeDegrees>-1.77824598737061023712158203125</LongitudeDegrees>
            </Position>
            <AltitudeMeters>8.80000019073486328125</AltitudeMeters>
            <DistanceMeters>NAN</DistanceMeters>
          </Trackpoint>
          <Trackpoint>
            <Time>2021-08-11T10:10:39.000Z</Time>
            <Position>
              <LatitudeDegrees>43.340991698205471038818359375</LatitudeDegrees>
              <LongitudeDegrees>-1.77828848361968994140625</LongitudeDegrees>
            </Position>
            <AltitudeMeters>8.80000019073486328125</AltitudeMeters>
            <DistanceMeters>NAN</DistanceMeters>
          </Trackpoint>
          <Trackpoint>
            <Time>2021-08-11T10:10:40.000Z</Time>
            <Position>
              <LatitudeDegrees>43.34098306484520435333251953125</LatitudeDegrees>
              <LongitudeDegrees>-1.77833047695457935333251953125</LongitudeDegrees>
            </Position>
            <AltitudeMeters>8.80000019073486328125</AltitudeMeters>
            <DistanceMeters>NAN</DistanceMeters>
          </Trackpoint>
          <Trackpoint>
            <Time>2021-08-11T10:10:41.000Z</Time>
            <Position>
              <LatitudeDegrees>43.34097485058009624481201171875</LatitudeDegrees>
              <LongitudeDegrees>-1.778371296823024749755859375</LongitudeDegrees>
            </Position>
            <AltitudeMeters>8.6000003814697265625</AltitudeMeters>
            <DistanceMeters>NAN</DistanceMeters>
          </Trackpoint>
          <Trackpoint>
            <Time>2021-08-11T10:10:42.000Z</Time>
            <Position>
              <LatitudeDegrees>43.3409663848578929901123046875</LatitudeDegrees>
              <LongitudeDegrees>-1.77841253578662872314453125</LongitudeDegrees>
            </Position>
            <AltitudeMeters>8.6000003814697265625</AltitudeMeters>
            <DistanceMeters>NAN</DistanceMeters>
          </Trackpoint>
          <Trackpoint>
            <Time>2021-08-11T10:10:43.000Z</Time>
            <Position>
              <LatitudeDegrees>43.340959511697292327880859375</LatitudeDegrees>
              <LongitudeDegrees>-1.7784472368657588958740234375</LongitudeDegrees>
            </Position>
            <AltitudeMeters>8.6000003814697265625</AltitudeMeters>
            <DistanceMeters>NAN</DistanceMeters>
          </Trackpoint>
          <Trackpoint>
            <Time>2021-08-11T10:10:44.000Z</Time>
            <Position>
              <LatitudeDegrees>43.34095691330730915069580078125</LatitudeDegrees>
              <LongitudeDegrees>-1.77847229875624179840087890625</LongitudeDegrees>
            </Position>
            <AltitudeMeters>8.80000019073486328125</AltitudeMeters>
            <DistanceMeters>NAN</DistanceMeters>
          </Trackpoint>
          <Trackpoint>
            <Time>2021-08-11T10:10:45.000Z</Time>
            <Position>
              <LatitudeDegrees>43.3409573324024677276611328125</LatitudeDegrees>
              <LongitudeDegrees>-1.7784948460757732391357421875</LongitudeDegrees>
            </Position>
            <AltitudeMeters>8.80000019073486328125</AltitudeMeters>
            <DistanceMeters>NAN</DistanceMeters>
          </Trackpoint>
          <Trackpoint>
            <Time>2021-08-11T10:10:46.000Z</Time>
            <Position>
              <LatitudeDegrees>43.34095490165054798126220703125</LatitudeDegrees>
              <LongitudeDegrees>-1.7785156331956386566162109375</LongitudeDegrees>
            </Position>
            <AltitudeMeters>8.80000019073486328125</AltitudeMeters>
            <DistanceMeters>NAN</DistanceMeters>
          </Trackpoint>
          <Trackpoint>
            <Time>2021-08-11T10:10:47.000Z</Time>
            <Position>
              <LatitudeDegrees>43.34095054306089878082275390625</LatitudeDegrees>
              <LongitudeDegrees>-1.77852912805974483489990234375</LongitudeDegrees>
            </Position>
            <AltitudeMeters>8.80000019073486328125</AltitudeMeters>
            <DistanceMeters>NAN</DistanceMeters>
          </Trackpoint>
          <Trackpoint>
            <Time>2021-08-11T10:10:48.000Z</Time>
            <Position>
              <LatitudeDegrees>43.34095020778477191925048828125</LatitudeDegrees>
              <LongitudeDegrees>-1.7785350792109966278076171875</LongitudeDegrees>
            </Position>
            <AltitudeMeters>8.80000019073486328125</AltitudeMeters>
            <DistanceMeters>NAN</DistanceMeters>
          </Trackpoint>
          <Trackpoint>
            <Time>2021-08-11T10:10:50.000Z</Time>
            <Position>
              <LatitudeDegrees>43.34095020778477191925048828125</LatitudeDegrees>
              <LongitudeDegrees>-1.7785350792109966278076171875</LongitudeDegrees>
            </Position>
            <AltitudeMeters>8.80000019073486328125</AltitudeMeters>
            <DistanceMeters>NAN</DistanceMeters>
          </Trackpoint>
          <Trackpoint>
            <Time>2021-08-11T10:10:51.000Z</Time>
            <Position>
              <LatitudeDegrees>43.34095020778477191925048828125</LatitudeDegrees>
              <LongitudeDegrees>-1.7785350792109966278076171875</LongitudeDegrees>
            </Position>
            <AltitudeMeters>8.80000019073486328125</AltitudeMeters>
            <DistanceMeters>NAN</DistanceMeters>
          </Trackpoint>
          <Trackpoint>
            <Time>2021-08-11T10:11:12.000Z</Time>
            <Position>
              <LatitudeDegrees>43.34095020778477191925048828125</LatitudeDegrees>
              <LongitudeDegrees>-1.7785350792109966278076171875</LongitudeDegrees>
            </Position>
            <AltitudeMeters>8.6000003814697265625</AltitudeMeters>
            <DistanceMeters>NAN</DistanceMeters>
          </Trackpoint>
          <Trackpoint>
            <Time>2021-08-11T10:12:20.000Z</Time>
            <Position>
              <LatitudeDegrees>43.3409502916038036346435546875</LatitudeDegrees>
              <LongitudeDegrees>-1.77853717468678951263427734375</LongitudeDegrees>
            </Position>
            <AltitudeMeters>9.3999996185302734375</AltitudeMeters>
            <DistanceMeters>NAN</DistanceMeters>
          </Trackpoint>
          <Trackpoint>
            <Time>2021-08-11T10:12:22.000Z</Time>
            <Position>
              <LatitudeDegrees>43.340958170592784881591796875</LatitudeDegrees>
              <LongitudeDegrees>-1.77858444862067699432373046875</LongitudeDegrees>
            </Position>
            <AltitudeMeters>9.3999996185302734375</AltitudeMeters>
            <DistanceMeters>NAN</DistanceMeters>
          </Trackpoint>
          <Trackpoint>
            <Time>2021-08-11T10:12:23.000Z</Time>
            <Position>
              <LatitudeDegrees>43.3409720845520496368408203125</LatitudeDegrees>
              <LongitudeDegrees>-1.778599955141544342041015625</LongitudeDegrees>
            </Position>
            <AltitudeMeters>9.3999996185302734375</AltitudeMeters>
            <DistanceMeters>NAN</DistanceMeters>
          </Trackpoint>
          <Trackpoint>
            <Time>2021-08-11T10:12:25.000Z</Time>
            <Position>
              <LatitudeDegrees>43.34100368432700634002685546875</LatitudeDegrees>
              <LongitudeDegrees>-1.7786145396530628204345703125</LongitudeDegrees>
            </Position>
            <AltitudeMeters>9.19999980926513671875</AltitudeMeters>
            <DistanceMeters>NAN</DistanceMeters>
          </Trackpoint>
          <Trackpoint>
            <Time>2021-08-11T10:12:26.000Z</Time>
            <Position>
              <LatitudeDegrees>43.341020531952381134033203125</LatitudeDegrees>
              <LongitudeDegrees>-1.77861914969980716705322265625</LongitudeDegrees>
            </Position>
            <AltitudeMeters>9.19999980926513671875</AltitudeMeters>
            <DistanceMeters>NAN</DistanceMeters>
          </Trackpoint>
          <Trackpoint>
            <Time>2021-08-11T10:12:27.000Z</Time>
            <Position>
              <LatitudeDegrees>43.341037295758724212646484375</LatitudeDegrees>
              <LongitudeDegrees>-1.7786269448697566986083984375</LongitudeDegrees>
            </Position>
            <AltitudeMeters>9.19999980926513671875</AltitudeMeters>
            <DistanceMeters>NAN</DistanceMeters>
          </Trackpoint>
          <Trackpoint>
            <Time>2021-08-11T10:12:29.000Z</Time>
            <Position>
              <LatitudeDegrees>43.341068811714649200439453125</LatitudeDegrees>
              <LongitudeDegrees>-1.77865468896925449371337890625</LongitudeDegrees>
            </Position>
            <AltitudeMeters>9</AltitudeMeters>
            <DistanceMeters>NAN</DistanceMeters>
          </Trackpoint>
          <Trackpoint>
            <Time>2021-08-11T10:12:31.000Z</Time>
            <Position>
              <LatitudeDegrees>43.34109957329928874969482421875</LatitudeDegrees>
              <LongitudeDegrees>-1.77868352271616458892822265625</LongitudeDegrees>
            </Position>
            <AltitudeMeters>8.80000019073486328125</AltitudeMeters>
            <DistanceMeters>NAN</DistanceMeters>
          </Trackpoint>
          <Trackpoint>
            <Time>2021-08-11T10:12:32.000Z</Time>
            <Position>
              <LatitudeDegrees>43.34110443480312824249267578125</LatitudeDegrees>
              <LongitudeDegrees>-1.7787121050059795379638671875</LongitudeDegrees>
            </Position>
            <AltitudeMeters>8.80000019073486328125</AltitudeMeters>
            <DistanceMeters>NAN</DistanceMeters>
          </Trackpoint>
          <Trackpoint>
            <Time>2021-08-11T10:12:33.000Z</Time>
            <Position>
              <LatitudeDegrees>43.3411031775176525115966796875</LatitudeDegrees>
              <LongitudeDegrees>-1.7787372507154941558837890625</LongitudeDegrees>
            </Position>
            <AltitudeMeters>8.6000003814697265625</AltitudeMeters>
            <DistanceMeters>NAN</DistanceMeters>
          </Trackpoint>
          <Trackpoint>
            <Time>2021-08-11T10:12:34.000Z</Time>
            <Position>
              <LatitudeDegrees>43.34110401570796966552734375</LatitudeDegrees>
              <LongitudeDegrees>-1.77875912748277187347412109375</LongitudeDegrees>
            </Position>
            <AltitudeMeters>8.6000003814697265625</AltitudeMeters>
            <DistanceMeters>NAN</DistanceMeters>
          </Trackpoint>
          <Trackpoint>
            <Time>2021-08-11T10:12:37.000Z</Time>
            <Position>
              <LatitudeDegrees>43.34112589247524738311767578125</LatitudeDegrees>
              <LongitudeDegrees>-1.778829284012317657470703125</LongitudeDegrees>
            </Position>
            <AltitudeMeters>8.6000003814697265625</AltitudeMeters>
            <DistanceMeters>NAN</DistanceMeters>
          </Trackpoint>
          <Trackpoint>
            <Time>2021-08-11T10:12:38.000Z</Time>
            <Position>
              <LatitudeDegrees>43.341139890253543853759765625</LatitudeDegrees>
              <LongitudeDegrees>-1.77887530066072940826416015625</LongitudeDegrees>
            </Position>
            <AltitudeMeters>8.6000003814697265625</AltitudeMeters>
            <DistanceMeters>NAN</DistanceMeters>
          </Trackpoint>
          <Trackpoint>
            <Time>2021-08-11T10:12:43.000Z</Time>
            <Position>
              <LatitudeDegrees>43.34120635874569416046142578125</LatitudeDegrees>
              <LongitudeDegrees>-1.7791320383548736572265625</LongitudeDegrees>
            </Position>
            <AltitudeMeters>8</AltitudeMeters>
            <DistanceMeters>NAN</DistanceMeters>
          </Trackpoint>
          <Trackpoint>
            <Time>2021-08-11T10:12:44.000Z</Time>
            <Position>
              <LatitudeDegrees>43.34123016335070133209228515625</LatitudeDegrees>
              <LongitudeDegrees>-1.7792052961885929107666015625</LongitudeDegrees>
            </Position>
            <AltitudeMeters>7.80000019073486328125</AltitudeMeters>
            <DistanceMeters>NAN</DistanceMeters>
          </Trackpoint>
          <Trackpoint>
            <Time>2021-08-11T10:12:46.000Z</Time>
            <Position>
              <LatitudeDegrees>43.34127978421747684478759765625</LatitudeDegrees>
              <LongitudeDegrees>-1.779310069978237152099609375</LongitudeDegrees>
            </Position>
            <AltitudeMeters>7.599999904632568359375</AltitudeMeters>
            <DistanceMeters>NAN</DistanceMeters>
          </Trackpoint>
          <Trackpoint>
            <Time>2021-08-11T10:12:47.000Z</Time>
            <Position>
              <LatitudeDegrees>43.3413016609847545623779296875</LatitudeDegrees>
              <LongitudeDegrees>-1.77935491316020488739013671875</LongitudeDegrees>
            </Position>
            <AltitudeMeters>7.599999904632568359375</AltitudeMeters>
            <DistanceMeters>NAN</DistanceMeters>
          </Trackpoint>
          <Trackpoint>
            <Time>2021-08-11T10:12:48.000Z</Time>
            <Position>
              <LatitudeDegrees>43.34131968207657337188720703125</LatitudeDegrees>
              <LongitudeDegrees>-1.7793980799615383148193359375</LongitudeDegrees>
            </Position>
            <AltitudeMeters>7.599999904632568359375</AltitudeMeters>
            <DistanceMeters>NAN</DistanceMeters>
          </Trackpoint>
          <Trackpoint>
            <Time>2021-08-11T10:12:49.000Z</Time>
            <Position>
              <LatitudeDegrees>43.34132806397974491119384765625</LatitudeDegrees>
              <LongitudeDegrees>-1.7794326134026050567626953125</LongitudeDegrees>
            </Position>
            <AltitudeMeters>7.599999904632568359375</AltitudeMeters>
            <DistanceMeters>NAN</DistanceMeters>
          </Trackpoint>
          <Trackpoint>
            <Time>2021-08-11T10:12:50.000Z</Time>
            <Position>
              <LatitudeDegrees>43.34133594296872615814208984375</LatitudeDegrees>
              <LongitudeDegrees>-1.77948684431612491607666015625</LongitudeDegrees>
            </Position>
            <AltitudeMeters>7.599999904632568359375</AltitudeMeters>
            <DistanceMeters>NAN</DistanceMeters>
          </Trackpoint>
          <Trackpoint>
            <Time>2021-08-11T10:12:51.000Z</Time>
            <Position>
              <LatitudeDegrees>43.34133694879710674285888671875</LatitudeDegrees>
              <LongitudeDegrees>-1.77953110076487064361572265625</LongitudeDegrees>
            </Position>
            <AltitudeMeters>7.80000019073486328125</AltitudeMeters>
            <DistanceMeters>NAN</DistanceMeters>
          </Trackpoint>
          <Trackpoint>
            <Time>2021-08-11T10:12:52.000Z</Time>
            <Position>
              <LatitudeDegrees>43.341339044272899627685546875</LatitudeDegrees>
              <LongitudeDegrees>-1.77956613712012767791748046875</LongitudeDegrees>
            </Position>
            <AltitudeMeters>7.80000019073486328125</AltitudeMeters>
            <DistanceMeters>NAN</DistanceMeters>
          </Trackpoint>
          <Trackpoint>
            <Time>2021-08-11T10:12:53.000Z</Time>
            <Position>
              <LatitudeDegrees>43.34133896045386791229248046875</LatitudeDegrees>
              <LongitudeDegrees>-1.7796220444142818450927734375</LongitudeDegrees>
            </Position>
            <AltitudeMeters>8</AltitudeMeters>
            <DistanceMeters>NAN</DistanceMeters>
          </Trackpoint>
          <Trackpoint>
            <Time>2021-08-11T10:12:54.000Z</Time>
            <Position>
              <LatitudeDegrees>43.3413241244852542877197265625</LatitudeDegrees>
              <LongitudeDegrees>-1.779666133224964141845703125</LongitudeDegrees>
            </Position>
            <AltitudeMeters>8</AltitudeMeters>
            <DistanceMeters>NAN</DistanceMeters>
          </Trackpoint>
          <Trackpoint>
            <Time>2021-08-11T10:12:55.000Z</Time>
            <Position>
              <LatitudeDegrees>43.34131381474435329437255859375</LatitudeDegrees>
              <LongitudeDegrees>-1.77970930002629756927490234375</LongitudeDegrees>
            </Position>
            <AltitudeMeters>8.3999996185302734375</AltitudeMeters>
            <DistanceMeters>NAN</DistanceMeters>
          </Trackpoint>
          <Trackpoint>
            <Time>2021-08-11T10:12:56.000Z</Time>
            <Position>
              <LatitudeDegrees>43.3412996493279933929443359375</LatitudeDegrees>
              <LongitudeDegrees>-1.77975204773247241973876953125</LongitudeDegrees>
            </Position>
            <AltitudeMeters>8.3999996185302734375</AltitudeMeters>
            <DistanceMeters>NAN</DistanceMeters>
          </Trackpoint>
          <Trackpoint>
            <Time>2021-08-11T10:12:57.000Z</Time>
            <Position>
              <LatitudeDegrees>43.341292776167392730712890625</LatitudeDegrees>
              <LongitudeDegrees>-1.77978448569774627685546875</LongitudeDegrees>
            </Position>
            <AltitudeMeters>8.6000003814697265625</AltitudeMeters>
            <DistanceMeters>NAN</DistanceMeters>
          </Trackpoint>
          <Trackpoint>
            <Time>2021-08-11T10:12:58.000Z</Time>
            <Position>
              <LatitudeDegrees>43.34128632210195064544677734375</LatitudeDegrees>
              <LongitudeDegrees>-1.7798242159187793731689453125</LongitudeDegrees>
            </Position>
            <AltitudeMeters>8.6000003814697265625</AltitudeMeters>
            <DistanceMeters>NAN</DistanceMeters>
          </Trackpoint>
          <Trackpoint>
            <Time>2021-08-11T10:12:59.000Z</Time>
            <Position>
              <LatitudeDegrees>43.3412728272378444671630859375</LatitudeDegrees>
              <LongitudeDegrees>-1.77986922673881053924560546875</LongitudeDegrees>
            </Position>
            <AltitudeMeters>8.6000003814697265625</AltitudeMeters>
            <DistanceMeters>NAN</DistanceMeters>
          </Trackpoint>
          <Trackpoint>
            <Time>2021-08-11T10:13:01.000Z</Time>
            <Position>
              <LatitudeDegrees>43.3412533812224864959716796875</LatitudeDegrees>
              <LongitudeDegrees>-1.77995078265666961669921875</LongitudeDegrees>
            </Position>
            <AltitudeMeters>8.6000003814697265625</AltitudeMeters>
            <DistanceMeters>NAN</DistanceMeters>
          </Trackpoint>
          <Trackpoint>
            <Time>2021-08-11T10:13:02.000Z</Time>
            <Position>
              <LatitudeDegrees>43.34123720414936542510986328125</LatitudeDegrees>
              <LongitudeDegrees>-1.77999746985733509063720703125</LongitudeDegrees>
            </Position>
            <AltitudeMeters>8.6000003814697265625</AltitudeMeters>
            <DistanceMeters>NAN</DistanceMeters>
          </Trackpoint>
          <Trackpoint>
            <Time>2021-08-11T10:13:03.000Z</Time>
            <Position>
              <LatitudeDegrees>43.34122781641781330108642578125</LatitudeDegrees>
              <LongitudeDegrees>-1.78003686480224132537841796875</LongitudeDegrees>
            </Position>
            <AltitudeMeters>8.6000003814697265625</AltitudeMeters>
            <DistanceMeters>NAN</DistanceMeters>
          </Trackpoint>
          <Trackpoint>
            <Time>2021-08-11T10:13:04.000Z</Time>
            <Position>
              <LatitudeDegrees>43.34122781641781330108642578125</LatitudeDegrees>
              <LongitudeDegrees>-1.78003686480224132537841796875</LongitudeDegrees>
            </Position>
            <AltitudeMeters>8.6000003814697265625</AltitudeMeters>
            <DistanceMeters>NAN</DistanceMeters>
          </Trackpoint>
          <Trackpoint>
            <Time>2021-08-11T10:13:05.000Z</Time>
            <Position>
              <LatitudeDegrees>43.34119965322315692901611328125</LatitudeDegrees>
              <LongitudeDegrees>-1.78012990392744541168212890625</LongitudeDegrees>
            </Position>
            <AltitudeMeters>8.6000003814697265625</AltitudeMeters>
            <DistanceMeters>NAN</DistanceMeters>
          </Trackpoint>
          <Trackpoint>
            <Time>2021-08-11T10:13:11.000Z</Time>
            <Position>
              <LatitudeDegrees>43.341093622148036956787109375</LatitudeDegrees>
              <LongitudeDegrees>-1.78037800826132297515869140625</LongitudeDegrees>
            </Position>
            <AltitudeMeters>8.3999996185302734375</AltitudeMeters>
            <DistanceMeters>NAN</DistanceMeters>
          </Trackpoint>
          <Trackpoint>
            <Time>2021-08-11T10:13:16.000Z</Time>
            <Position>
              <LatitudeDegrees>43.34105112589895725250244140625</LatitudeDegrees>
              <LongitudeDegrees>-1.78059057332575321197509765625</LongitudeDegrees>
            </Position>
            <AltitudeMeters>8</AltitudeMeters>
            <DistanceMeters>NAN</DistanceMeters>
          </Trackpoint>
          <Trackpoint>
            <Time>2021-08-11T10:13:17.000Z</Time>
            <Position>
              <LatitudeDegrees>43.34102665074169635772705078125</LatitudeDegrees>
              <LongitudeDegrees>-1.78061194717884063720703125</LongitudeDegrees>
            </Position>
            <AltitudeMeters>8</AltitudeMeters>
            <DistanceMeters>NAN</DistanceMeters>
          </Trackpoint>
          <Trackpoint>
            <Time>2021-08-11T10:13:25.000Z</Time>
            <Position>
              <LatitudeDegrees>43.34079631604254245758056640625</LatitudeDegrees>
              <LongitudeDegrees>-1.780581772327423095703125</LongitudeDegrees>
            </Position>
            <AltitudeMeters>6.400000095367431640625</AltitudeMeters>
            <DistanceMeters>NAN</DistanceMeters>
          </Trackpoint>
          <Trackpoint>
            <Time>2021-08-11T10:13:26.000Z</Time>
            <Position>
              <LatitudeDegrees>43.34074753336608409881591796875</LatitudeDegrees>
              <LongitudeDegrees>-1.78059074096381664276123046875</LongitudeDegrees>
            </Position>
            <AltitudeMeters>6.400000095367431640625</AltitudeMeters>
            <DistanceMeters>NAN</DistanceMeters>
          </Trackpoint>
          <Trackpoint>
            <Time>2021-08-11T10:13:27.000Z</Time>
            <Position>
              <LatitudeDegrees>43.34072314202785491943359375</LatitudeDegrees>
              <LongitudeDegrees>-1.7806050740182399749755859375</LongitudeDegrees>
            </Position>
            <AltitudeMeters>6.400000095367431640625</AltitudeMeters>
            <DistanceMeters>NAN</DistanceMeters>
          </Trackpoint>
          <Trackpoint>
            <Time>2021-08-11T10:13:28.000Z</Time>
            <Position>
              <LatitudeDegrees>43.340696990489959716796875</LatitudeDegrees>
              <LongitudeDegrees>-1.78062091581523418426513671875</LongitudeDegrees>
            </Position>
            <AltitudeMeters>6.400000095367431640625</AltitudeMeters>
            <DistanceMeters>NAN</DistanceMeters>
          </Trackpoint>
          <Trackpoint>
            <Time>2021-08-11T10:13:29.000Z</Time>
            <Position>
              <LatitudeDegrees>43.340677879750728607177734375</LatitudeDegrees>
              <LongitudeDegrees>-1.78063851781189441680908203125</LongitudeDegrees>
            </Position>
            <AltitudeMeters>6.400000095367431640625</AltitudeMeters>
            <DistanceMeters>NAN</DistanceMeters>
          </Trackpoint>
          <Trackpoint>
            <Time>2021-08-11T10:13:30.000Z</Time>
            <Position>
              <LatitudeDegrees>43.34065902046859264373779296875</LatitudeDegrees>
              <LongitudeDegrees>-1.7806510068476200103759765625</LongitudeDegrees>
            </Position>
            <AltitudeMeters>6.599999904632568359375</AltitudeMeters>
            <DistanceMeters>NAN</DistanceMeters>
          </Trackpoint>
          <Trackpoint>
            <Time>2021-08-11T10:13:32.000Z</Time>
            <Position>
              <LatitudeDegrees>43.3405964076519012451171875</LatitudeDegrees>
              <LongitudeDegrees>-1.780664585530757904052734375</LongitudeDegrees>
            </Position>
            <AltitudeMeters>7</AltitudeMeters>
            <DistanceMeters>NAN</DistanceMeters>
          </Trackpoint>
          <Trackpoint>
            <Time>2021-08-11T10:13:34.000Z</Time>
            <Position>
              <LatitudeDegrees>43.340569250285625457763671875</LatitudeDegrees>
              <LongitudeDegrees>-1.7806543596088886260986328125</LongitudeDegrees>
            </Position>
            <AltitudeMeters>7.19999980926513671875</AltitudeMeters>
            <DistanceMeters>NAN</DistanceMeters>
          </Trackpoint>
          <Trackpoint>
            <Time>2021-08-11T10:13:35.000Z</Time>
            <Position>
              <LatitudeDegrees>43.3405375666916370391845703125</LatitudeDegrees>
              <LongitudeDegrees>-1.780608259141445159912109375</LongitudeDegrees>
            </Position>
            <AltitudeMeters>7.400000095367431640625</AltitudeMeters>
            <DistanceMeters>NAN</DistanceMeters>
          </Trackpoint>
          <Trackpoint>
            <Time>2021-08-11T10:13:37.000Z</Time>
            <Position>
              <LatitudeDegrees>43.340531699359416961669921875</LatitudeDegrees>
              <LongitudeDegrees>-1.78057448007166385650634765625</LongitudeDegrees>
            </Position>
            <AltitudeMeters>7.400000095367431640625</AltitudeMeters>
            <DistanceMeters>NAN</DistanceMeters>
          </Trackpoint>
          <Trackpoint>
            <Time>2021-08-11T10:13:40.000Z</Time>
            <Position>
              <LatitudeDegrees>43.34053496830165386199951171875</LatitudeDegrees>
              <LongitudeDegrees>-1.78045637905597686767578125</LongitudeDegrees>
            </Position>
            <AltitudeMeters>7.400000095367431640625</AltitudeMeters>
            <DistanceMeters>NAN</DistanceMeters>
          </Trackpoint>
          <Trackpoint>
            <Time>2021-08-11T10:13:41.000Z</Time>
            <Position>
              <LatitudeDegrees>43.34052759222686290740966796875</LatitudeDegrees>
              <LongitudeDegrees>-1.78043936379253864288330078125</LongitudeDegrees>
            </Position>
            <AltitudeMeters>7.400000095367431640625</AltitudeMeters>
            <DistanceMeters>NAN</DistanceMeters>
          </Trackpoint>
          <Trackpoint>
            <Time>2021-08-11T10:13:42.000Z</Time>
            <Position>
              <LatitudeDegrees>43.3405184559524059295654296875</LatitudeDegrees>
              <LongitudeDegrees>-1.780421175062656402587890625</LongitudeDegrees>
            </Position>
            <AltitudeMeters>7.400000095367431640625</AltitudeMeters>
            <DistanceMeters>NAN</DistanceMeters>
          </Trackpoint>
          <Trackpoint>
            <Time>2021-08-11T10:13:43.000Z</Time>
            <Position>
              <LatitudeDegrees>43.34050294943153858184814453125</LatitudeDegrees>
              <LongitudeDegrees>-1.7803918384015560150146484375</LongitudeDegrees>
            </Position>
            <AltitudeMeters>7.400000095367431640625</AltitudeMeters>
            <DistanceMeters>NAN</DistanceMeters>
          </Trackpoint>
          <Trackpoint>
            <Time>2021-08-11T10:13:44.000Z</Time>
            <Position>
              <LatitudeDegrees>43.34048551507294178009033203125</LatitudeDegrees>
              <LongitudeDegrees>-1.78035940043628215789794921875</LongitudeDegrees>
            </Position>
            <AltitudeMeters>7.400000095367431640625</AltitudeMeters>
            <DistanceMeters>NAN</DistanceMeters>
          </Trackpoint>
          <Trackpoint>
            <Time>2021-08-11T10:13:45.000Z</Time>
            <Position>
              <LatitudeDegrees>43.3404725231230258941650390625</LatitudeDegrees>
              <LongitudeDegrees>-1.78033710457384586334228515625</LongitudeDegrees>
            </Position>
            <AltitudeMeters>7.19999980926513671875</AltitudeMeters>
            <DistanceMeters>NAN</DistanceMeters>
          </Trackpoint>
          <Trackpoint>
            <Time>2021-08-11T10:13:47.000Z</Time>
            <Position>
              <LatitudeDegrees>43.34042818285524845123291015625</LatitudeDegrees>
              <LongitudeDegrees>-1.7803006432950496673583984375</LongitudeDegrees>
            </Position>
            <AltitudeMeters>7.19999980926513671875</AltitudeMeters>
            <DistanceMeters>NAN</DistanceMeters>
          </Trackpoint>
          <Trackpoint>
            <Time>2021-08-11T10:13:48.000Z</Time>
            <Position>
              <LatitudeDegrees>43.34037722088396549224853515625</LatitudeDegrees>
              <LongitudeDegrees>-1.78027206100523471832275390625</LongitudeDegrees>
            </Position>
            <AltitudeMeters>7.19999980926513671875</AltitudeMeters>
            <DistanceMeters>NAN</DistanceMeters>
          </Trackpoint>
          <Trackpoint>
            <Time>2021-08-11T10:13:49.000Z</Time>
            <Position>
              <LatitudeDegrees>43.3403670787811279296875</LatitudeDegrees>
              <LongitudeDegrees>-1.78024289198219776153564453125</LongitudeDegrees>
            </Position>
            <AltitudeMeters>7</AltitudeMeters>
            <DistanceMeters>NAN</DistanceMeters>
          </Trackpoint>
          <Trackpoint>
            <Time>2021-08-11T10:13:50.000Z</Time>
            <Position>
              <LatitudeDegrees>43.340358696877956390380859375</LatitudeDegrees>
              <LongitudeDegrees>-1.7802114598453044891357421875</LongitudeDegrees>
            </Position>
            <AltitudeMeters>7</AltitudeMeters>
            <DistanceMeters>NAN</DistanceMeters>
          </Trackpoint>
          <Trackpoint>
            <Time>2021-08-11T10:13:51.000Z</Time>
            <Position>
              <LatitudeDegrees>43.34034972824156284332275390625</LatitudeDegrees>
              <LongitudeDegrees>-1.7801873199641704559326171875</LongitudeDegrees>
            </Position>
            <AltitudeMeters>7</AltitudeMeters>
            <DistanceMeters>NAN</DistanceMeters>
          </Trackpoint>
          <Trackpoint>
            <Time>2021-08-11T10:13:52.000Z</Time>
            <Position>
              <LatitudeDegrees>43.340338580310344696044921875</LatitudeDegrees>
              <LongitudeDegrees>-1.78015924058854579925537109375</LongitudeDegrees>
            </Position>
            <AltitudeMeters>7</AltitudeMeters>
            <DistanceMeters>NAN</DistanceMeters>
          </Trackpoint>
          <Trackpoint>
            <Time>2021-08-11T10:13:53.000Z</Time>
            <Position>
              <LatitudeDegrees>43.3403256721794605255126953125</LatitudeDegrees>
              <LongitudeDegrees>-1.78012990392744541168212890625</LongitudeDegrees>
            </Position>
            <AltitudeMeters>7</AltitudeMeters>
            <DistanceMeters>NAN</DistanceMeters>
          </Trackpoint>
          <Trackpoint>
            <Time>2021-08-11T10:13:59.000Z</Time>
            <Position>
              <LatitudeDegrees>43.34023724310100078582763671875</LatitudeDegrees>
              <LongitudeDegrees>-1.7799388803541660308837890625</LongitudeDegrees>
            </Position>
            <AltitudeMeters>7.19999980926513671875</AltitudeMeters>
            <DistanceMeters>NAN</DistanceMeters>
          </Trackpoint>
          <Trackpoint>
            <Time>2021-08-11T10:14:05.000Z</Time>
            <Position>
              <LatitudeDegrees>43.340119309723377227783203125</LatitudeDegrees>
              <LongitudeDegrees>-1.7797578312456607818603515625</LongitudeDegrees>
            </Position>
            <AltitudeMeters>7.80000019073486328125</AltitudeMeters>
            <DistanceMeters>NAN</DistanceMeters>
          </Trackpoint>
          <Trackpoint>
            <Time>2021-08-11T10:14:06.000Z</Time>
            <Position>
              <LatitudeDegrees>43.340119309723377227783203125</LatitudeDegrees>
              <LongitudeDegrees>-1.7797578312456607818603515625</LongitudeDegrees>
            </Position>
            <AltitudeMeters>8</AltitudeMeters>
            <DistanceMeters>NAN</DistanceMeters>
          </Trackpoint>
          <Trackpoint>
            <Time>2021-08-11T10:14:10.000Z</Time>
            <Position>
              <LatitudeDegrees>43.34003984928131103515625</LatitudeDegrees>
              <LongitudeDegrees>-1.7796304263174533843994140625</LongitudeDegrees>
            </Position>
            <AltitudeMeters>8.19999980926513671875</AltitudeMeters>
            <DistanceMeters>NAN</DistanceMeters>
          </Trackpoint>
          <Trackpoint>
            <Time>2021-08-11T10:14:11.000Z</Time>
            <Position>
              <LatitudeDegrees>43.34002216346561908721923828125</LatitudeDegrees>
              <LongitudeDegrees>-1.77960209548473358154296875</LongitudeDegrees>
            </Position>
            <AltitudeMeters>8.19999980926513671875</AltitudeMeters>
            <DistanceMeters>NAN</DistanceMeters>
          </Trackpoint>
          <Trackpoint>
            <Time>2021-08-11T10:14:12.000Z</Time>
            <Position>
              <LatitudeDegrees>43.34000699222087860107421875</LatitudeDegrees>
              <LongitudeDegrees>-1.77957435138523578643798828125</LongitudeDegrees>
            </Position>
            <AltitudeMeters>8.19999980926513671875</AltitudeMeters>
            <DistanceMeters>NAN</DistanceMeters>
          </Trackpoint>
          <Trackpoint>
            <Time>2021-08-11T10:14:13.000Z</Time>
            <Position>
              <LatitudeDegrees>43.33999626338481903076171875</LatitudeDegrees>
              <LongitudeDegrees>-1.77954501472413539886474609375</LongitudeDegrees>
            </Position>
            <AltitudeMeters>8.19999980926513671875</AltitudeMeters>
            <DistanceMeters>NAN</DistanceMeters>
          </Trackpoint>
          <Trackpoint>
            <Time>2021-08-11T10:14:14.000Z</Time>
            <Position>
              <LatitudeDegrees>43.3399867080152034759521484375</LatitudeDegrees>
              <LongitudeDegrees>-1.77951584570109844207763671875</LongitudeDegrees>
            </Position>
            <AltitudeMeters>8.19999980926513671875</AltitudeMeters>
            <DistanceMeters>NAN</DistanceMeters>
          </Trackpoint>
          <Trackpoint>
            <Time>2021-08-11T10:14:15.000Z</Time>
            <Position>
              <LatitudeDegrees>43.33997673355042934417724609375</LatitudeDegrees>
              <LongitudeDegrees>-1.77949438802897930145263671875</LongitudeDegrees>
            </Position>
            <AltitudeMeters>8.19999980926513671875</AltitudeMeters>
            <DistanceMeters>NAN</DistanceMeters>
          </Trackpoint>
          <Trackpoint>
            <Time>2021-08-11T10:14:16.000Z</Time>
            <Position>
              <LatitudeDegrees>43.3399652503430843353271484375</LatitudeDegrees>
              <LongitudeDegrees>-1.77947578020393848419189453125</LongitudeDegrees>
            </Position>
            <AltitudeMeters>8.19999980926513671875</AltitudeMeters>
            <DistanceMeters>NAN</DistanceMeters>
          </Trackpoint>
          <Trackpoint>
            <Time>2021-08-11T10:14:17.000Z</Time>
            <Position>
              <LatitudeDegrees>43.33994873799383640289306640625</LatitudeDegrees>
              <LongitudeDegrees>-1.7794591002166271209716796875</LongitudeDegrees>
            </Position>
            <AltitudeMeters>8.19999980926513671875</AltitudeMeters>
            <DistanceMeters>NAN</DistanceMeters>
          </Trackpoint>
          <Trackpoint>
            <Time>2021-08-11T10:14:18.000Z</Time>
            <Position>
              <LatitudeDegrees>43.339930884540081024169921875</LatitudeDegrees>
              <LongitudeDegrees>-1.7794458568096160888671875</LongitudeDegrees>
            </Position>
            <AltitudeMeters>8</AltitudeMeters>
            <DistanceMeters>NAN</DistanceMeters>
          </Trackpoint>
          <Trackpoint>
            <Time>2021-08-11T10:14:19.000Z</Time>
            <Position>
              <LatitudeDegrees>43.339915461838245391845703125</LatitudeDegrees>
              <LongitudeDegrees>-1.7794356308877468109130859375</LongitudeDegrees>
            </Position>
            <AltitudeMeters>8</AltitudeMeters>
            <DistanceMeters>NAN</DistanceMeters>
          </Trackpoint>
          <Trackpoint>
            <Time>2021-08-11T10:14:20.000Z</Time>
            <Position>
              <LatitudeDegrees>43.3399038948118686676025390625</LatitudeDegrees>
              <LongitudeDegrees>-1.7794282548129558563232421875</LongitudeDegrees>
            </Position>
            <AltitudeMeters>8</AltitudeMeters>
            <DistanceMeters>NAN</DistanceMeters>
          </Trackpoint>
          <Trackpoint>
            <Time>2021-08-11T10:14:23.000Z</Time>
            <Position>
              <LatitudeDegrees>43.33987422287464141845703125</LatitudeDegrees>
              <LongitudeDegrees>-1.77941660396754741668701171875</LongitudeDegrees>
            </Position>
            <AltitudeMeters>7.80000019073486328125</AltitudeMeters>
            <DistanceMeters>NAN</DistanceMeters>
          </Trackpoint>
          <Trackpoint>
            <Time>2021-08-11T10:14:24.000Z</Time>
            <Position>
              <LatitudeDegrees>43.3398489095270633697509765625</LatitudeDegrees>
              <LongitudeDegrees>-1.77942146547138690948486328125</LongitudeDegrees>
            </Position>
            <AltitudeMeters>7.80000019073486328125</AltitudeMeters>
            <DistanceMeters>NAN</DistanceMeters>
          </Trackpoint>
          <Trackpoint>
            <Time>2021-08-11T10:14:25.000Z</Time>
            <Position>
              <LatitudeDegrees>43.33983323536813259124755859375</LatitudeDegrees>
              <LongitudeDegrees>-1.77943152375519275665283203125</LongitudeDegrees>
            </Position>
            <AltitudeMeters>7.80000019073486328125</AltitudeMeters>
            <DistanceMeters>NAN</DistanceMeters>
          </Trackpoint>
          <Trackpoint>
            <Time>2021-08-11T10:14:26.000Z</Time>
            <Position>
              <LatitudeDegrees>43.33983323536813259124755859375</LatitudeDegrees>
              <LongitudeDegrees>-1.77943152375519275665283203125</LongitudeDegrees>
            </Position>
            <AltitudeMeters>7.80000019073486328125</AltitudeMeters>
            <DistanceMeters>NAN</DistanceMeters>
          </Trackpoint>
          <Trackpoint>
            <Time>2021-08-11T10:14:27.000Z</Time>
            <Position>
              <LatitudeDegrees>43.33981596864759922027587890625</LatitudeDegrees>
              <LongitudeDegrees>-1.77943152375519275665283203125</LongitudeDegrees>
            </Position>
            <AltitudeMeters>7.80000019073486328125</AltitudeMeters>
            <DistanceMeters>NAN</DistanceMeters>
          </Trackpoint>
          <Trackpoint>
            <Time>2021-08-11T10:14:28.000Z</Time>
            <Position>
              <LatitudeDegrees>43.3397892303764820098876953125</LatitudeDegrees>
              <LongitudeDegrees>-1.77942129783332347869873046875</LongitudeDegrees>
            </Position>
            <AltitudeMeters>7.80000019073486328125</AltitudeMeters>
            <DistanceMeters>NAN</DistanceMeters>
          </Trackpoint>
          <Trackpoint>
            <Time>2021-08-11T10:14:29.000Z</Time>
            <Position>
              <LatitudeDegrees>43.33977070637047290802001953125</LatitudeDegrees>
              <LongitudeDegrees>-1.779416017234325408935546875</LongitudeDegrees>
            </Position>
            <AltitudeMeters>7.80000019073486328125</AltitudeMeters>
            <DistanceMeters>NAN</DistanceMeters>
          </Trackpoint>
          <Trackpoint>
            <Time>2021-08-11T10:14:32.000Z</Time>
            <Position>
              <LatitudeDegrees>43.3397258631885051727294921875</LatitudeDegrees>
              <LongitudeDegrees>-1.77940285764634609222412109375</LongitudeDegrees>
            </Position>
            <AltitudeMeters>7.599999904632568359375</AltitudeMeters>
            <DistanceMeters>NAN</DistanceMeters>
          </Trackpoint>
          <Trackpoint>
            <Time>2021-08-11T10:14:33.000Z</Time>
            <Position>
              <LatitudeDegrees>43.3397097699344158172607421875</LatitudeDegrees>
              <LongitudeDegrees>-1.77940637804567813873291015625</LongitudeDegrees>
            </Position>
            <AltitudeMeters>7.599999904632568359375</AltitudeMeters>
            <DistanceMeters>NAN</DistanceMeters>
          </Trackpoint>
          <Trackpoint>
            <Time>2021-08-11T10:14:34.000Z</Time>
            <Position>
              <LatitudeDegrees>43.3396926708519458770751953125</LatitudeDegrees>
              <LongitudeDegrees>-1.7794185318052768707275390625</LongitudeDegrees>
            </Position>
            <AltitudeMeters>7.599999904632568359375</AltitudeMeters>
            <DistanceMeters>NAN</DistanceMeters>
          </Trackpoint>
          <Trackpoint>
            <Time>2021-08-11T10:14:36.000Z</Time>
            <Position>
              <LatitudeDegrees>43.33968303166329860687255859375</LatitudeDegrees>
              <LongitudeDegrees>-1.7794832400977611541748046875</LongitudeDegrees>
            </Position>
            <AltitudeMeters>7.599999904632568359375</AltitudeMeters>
            <DistanceMeters>NAN</DistanceMeters>
          </Trackpoint>
          <Trackpoint>
            <Time>2021-08-11T10:14:42.000Z</Time>
            <Position>
              <LatitudeDegrees>43.33967012353241443634033203125</LatitudeDegrees>
              <LongitudeDegrees>-1.779750287532806396484375</LongitudeDegrees>
            </Position>
            <AltitudeMeters>8</AltitudeMeters>
            <DistanceMeters>NAN</DistanceMeters>
          </Trackpoint>
          <Trackpoint>
            <Time>2021-08-11T10:14:43.000Z</Time>
            <Position>
              <LatitudeDegrees>43.33966844715178012847900390625</LatitudeDegrees>
              <LongitudeDegrees>-1.7797980643808841705322265625</LongitudeDegrees>
            </Position>
            <AltitudeMeters>8</AltitudeMeters>
            <DistanceMeters>NAN</DistanceMeters>
          </Trackpoint>
          <Trackpoint>
            <Time>2021-08-11T10:14:51.000Z</Time>
            <Position>
              <LatitudeDegrees>43.33964489400386810302734375</LatitudeDegrees>
              <LongitudeDegrees>-1.78016276098787784576416015625</LongitudeDegrees>
            </Position>
            <AltitudeMeters>8</AltitudeMeters>
            <DistanceMeters>NAN</DistanceMeters>
          </Trackpoint>
          <Trackpoint>
            <Time>2021-08-11T10:14:52.000Z</Time>
            <Position>
              <LatitudeDegrees>43.3396239392459392547607421875</LatitudeDegrees>
              <LongitudeDegrees>-1.78019729442894458770751953125</LongitudeDegrees>
            </Position>
            <AltitudeMeters>8</AltitudeMeters>
            <DistanceMeters>NAN</DistanceMeters>
          </Trackpoint>
          <Trackpoint>
            <Time>2021-08-11T10:14:53.000Z</Time>
            <Position>
              <LatitudeDegrees>43.33960088901221752166748046875</LatitudeDegrees>
              <LongitudeDegrees>-1.78022302687168121337890625</LongitudeDegrees>
            </Position>
            <AltitudeMeters>8</AltitudeMeters>
            <DistanceMeters>NAN</DistanceMeters>
          </Trackpoint>
          <Trackpoint>
            <Time>2021-08-11T10:14:54.000Z</Time>
            <Position>
              <LatitudeDegrees>43.33957850933074951171875</LatitudeDegrees>
              <LongitudeDegrees>-1.78024775348603725433349609375</LongitudeDegrees>
            </Position>
            <AltitudeMeters>8</AltitudeMeters>
            <DistanceMeters>NAN</DistanceMeters>
          </Trackpoint>
          <Trackpoint>
            <Time>2021-08-11T10:14:55.000Z</Time>
            <Position>
              <LatitudeDegrees>43.339564092457294464111328125</LatitudeDegrees>
              <LongitudeDegrees>-1.78027239628136157989501953125</LongitudeDegrees>
            </Position>
            <AltitudeMeters>8</AltitudeMeters>
            <DistanceMeters>NAN</DistanceMeters>
          </Trackpoint>
          <Trackpoint>
            <Time>2021-08-11T10:14:56.000Z</Time>
            <Position>
              <LatitudeDegrees>43.33954908885061740875244140625</LatitudeDegrees>
              <LongitudeDegrees>-1.7802912555634975433349609375</LongitudeDegrees>
            </Position>
            <AltitudeMeters>8</AltitudeMeters>
            <DistanceMeters>NAN</DistanceMeters>
          </Trackpoint>
          <Trackpoint>
            <Time>2021-08-11T10:14:57.000Z</Time>
            <Position>
              <LatitudeDegrees>43.3395374380052089691162109375</LatitudeDegrees>
              <LongitudeDegrees>-1.7803073488175868988037109375</LongitudeDegrees>
            </Position>
            <AltitudeMeters>8</AltitudeMeters>
            <DistanceMeters>NAN</DistanceMeters>
          </Trackpoint>
          <Trackpoint>
            <Time>2021-08-11T10:14:58.000Z</Time>
            <Position>
              <LatitudeDegrees>43.33952612243592739105224609375</LatitudeDegrees>
              <LongitudeDegrees>-1.780317910015583038330078125</LongitudeDegrees>
            </Position>
            <AltitudeMeters>8</AltitudeMeters>
            <DistanceMeters>NAN</DistanceMeters>
          </Trackpoint>
          <Trackpoint>
            <Time>2021-08-11T10:14:59.000Z</Time>
            <Position>
              <LatitudeDegrees>43.339515142142772674560546875</LatitudeDegrees>
              <LongitudeDegrees>-1.7803247831761837005615234375</LongitudeDegrees>
            </Position>
            <AltitudeMeters>8</AltitudeMeters>
            <DistanceMeters>NAN</DistanceMeters>
          </Trackpoint>
          <Trackpoint>
            <Time>2021-08-11T10:15:00.000Z</Time>
            <Position>
              <LatitudeDegrees>43.339503742754459381103515625</LatitudeDegrees>
              <LongitudeDegrees>-1.78032939322292804718017578125</LongitudeDegrees>
            </Position>
            <AltitudeMeters>8</AltitudeMeters>
            <DistanceMeters>NAN</DistanceMeters>
          </Trackpoint>
          <Trackpoint>
            <Time>2021-08-11T10:15:01.000Z</Time>
            <Position>
              <LatitudeDegrees>43.33947063423693180084228515625</LatitudeDegrees>
              <LongitudeDegrees>-1.7803254537284374237060546875</LongitudeDegrees>
            </Position>
            <AltitudeMeters>8</AltitudeMeters>
            <DistanceMeters>NAN</DistanceMeters>
          </Trackpoint>
          <Trackpoint>
            <Time>2021-08-11T10:15:03.000Z</Time>
            <Position>
              <LatitudeDegrees>43.33942587487399578094482421875</LatitudeDegrees>
              <LongitudeDegrees>-1.78031916730105876922607421875</LongitudeDegrees>
            </Position>
            <AltitudeMeters>8</AltitudeMeters>
            <DistanceMeters>NAN</DistanceMeters>
          </Trackpoint>
          <Trackpoint>
            <Time>2021-08-11T10:15:04.000Z</Time>
            <Position>
              <LatitudeDegrees>43.33940022625029087066650390625</LatitudeDegrees>
              <LongitudeDegrees>-1.780318915843963623046875</LongitudeDegrees>
            </Position>
            <AltitudeMeters>8</AltitudeMeters>
            <DistanceMeters>NAN</DistanceMeters>
          </Trackpoint>
          <Trackpoint>
            <Time>2021-08-11T10:15:06.000Z</Time>
            <Position>
              <LatitudeDegrees>43.3393464982509613037109375</LatitudeDegrees>
              <LongitudeDegrees>-1.7803177423775196075439453125</LongitudeDegrees>
            </Position>
            <AltitudeMeters>8</AltitudeMeters>
            <DistanceMeters>NAN</DistanceMeters>
          </Trackpoint>
          <Trackpoint>
            <Time>2021-08-11T10:15:07.000Z</Time>
            <Position>
              <LatitudeDegrees>43.33931825123727321624755859375</LatitudeDegrees>
              <LongitudeDegrees>-1.78031623363494873046875</LongitudeDegrees>
            </Position>
            <AltitudeMeters>8</AltitudeMeters>
            <DistanceMeters>NAN</DistanceMeters>
          </Trackpoint>
          <Trackpoint>
            <Time>2021-08-11T10:15:13.000Z</Time>
            <Position>
              <LatitudeDegrees>43.33915614522993564605712890625</LatitudeDegrees>
              <LongitudeDegrees>-1.78031614981591701507568359375</LongitudeDegrees>
            </Position>
            <AltitudeMeters>8.19999980926513671875</AltitudeMeters>
            <DistanceMeters>NAN</DistanceMeters>
          </Trackpoint>
          <Trackpoint>
            <Time>2021-08-11T10:15:14.000Z</Time>
            <Position>
              <LatitudeDegrees>43.3391250483691692352294921875</LatitudeDegrees>
              <LongitudeDegrees>-1.78032436408102512359619140625</LongitudeDegrees>
            </Position>
            <AltitudeMeters>8.19999980926513671875</AltitudeMeters>
            <DistanceMeters>NAN</DistanceMeters>
          </Trackpoint>
          <Trackpoint>
            <Time>2021-08-11T10:15:15.000Z</Time>
            <Position>
              <LatitudeDegrees>43.33909244276583194732666015625</LatitudeDegrees>
              <LongitudeDegrees>-1.78032570518553256988525390625</LongitudeDegrees>
            </Position>
            <AltitudeMeters>8.19999980926513671875</AltitudeMeters>
            <DistanceMeters>NAN</DistanceMeters>
          </Trackpoint>
          <Trackpoint>
            <Time>2021-08-11T10:15:17.000Z</Time>
            <Position>
              <LatitudeDegrees>43.3390526287257671356201171875</LatitudeDegrees>
              <LongitudeDegrees>-1.7802976258099079132080078125</LongitudeDegrees>
            </Position>
            <AltitudeMeters>8.19999980926513671875</AltitudeMeters>
            <DistanceMeters>NAN</DistanceMeters>
          </Trackpoint>
          <Trackpoint>
            <Time>2021-08-11T10:15:18.000Z</Time>
            <Position>
              <LatitudeDegrees>43.3390382118523120880126953125</LatitudeDegrees>
              <LongitudeDegrees>-1.78027792833745479583740234375</LongitudeDegrees>
            </Position>
            <AltitudeMeters>8.3999996185302734375</AltitudeMeters>
            <DistanceMeters>NAN</DistanceMeters>
          </Trackpoint>
          <Trackpoint>
            <Time>2021-08-11T10:15:19.000Z</Time>
            <Position>
              <LatitudeDegrees>43.3390325121581554412841796875</LatitudeDegrees>
              <LongitudeDegrees>-1.780263595283031463623046875</LongitudeDegrees>
            </Position>
            <AltitudeMeters>8.3999996185302734375</AltitudeMeters>
            <DistanceMeters>NAN</DistanceMeters>
          </Trackpoint>
          <Trackpoint>
            <Time>2021-08-11T10:15:20.000Z</Time>
            <Position>
              <LatitudeDegrees>43.33903125487267971038818359375</LatitudeDegrees>
              <LongitudeDegrees>-1.7802604101598262786865234375</LongitudeDegrees>
            </Position>
            <AltitudeMeters>8.3999996185302734375</AltitudeMeters>
            <DistanceMeters>NAN</DistanceMeters>
          </Trackpoint>
          <Trackpoint>
            <Time>2021-08-11T10:15:24.000Z</Time>
            <Position>
              <LatitudeDegrees>43.33903125487267971038818359375</LatitudeDegrees>
              <LongitudeDegrees>-1.7802604101598262786865234375</LongitudeDegrees>
            </Position>
            <AltitudeMeters>8.3999996185302734375</AltitudeMeters>
            <DistanceMeters>NAN</DistanceMeters>
          </Trackpoint>
          <Trackpoint>
            <Time>2021-08-11T10:15:55.000Z</Time>
            <Position>
              <LatitudeDegrees>43.33903024904429912567138671875</LatitudeDegrees>
              <LongitudeDegrees>-1.78025781176984310150146484375</LongitudeDegrees>
            </Position>
            <AltitudeMeters>8.6000003814697265625</AltitudeMeters>
            <DistanceMeters>NAN</DistanceMeters>
          </Trackpoint>
          <Trackpoint>
            <Time>2021-08-11T10:15:58.000Z</Time>
            <Position>
              <LatitudeDegrees>43.33902723155915737152099609375</LatitudeDegrees>
              <LongitudeDegrees>-1.78020165301859378814697265625</LongitudeDegrees>
            </Position>
            <AltitudeMeters>8.6000003814697265625</AltitudeMeters>
            <DistanceMeters>NAN</DistanceMeters>
          </Trackpoint>
          <Trackpoint>
            <Time>2021-08-11T10:15:59.000Z</Time>
            <Position>
              <LatitudeDegrees>43.33902723155915737152099609375</LatitudeDegrees>
              <LongitudeDegrees>-1.78020165301859378814697265625</LongitudeDegrees>
            </Position>
            <AltitudeMeters>8.6000003814697265625</AltitudeMeters>
            <DistanceMeters>NAN</DistanceMeters>
          </Trackpoint>
          <Trackpoint>
            <Time>2021-08-11T10:16:00.000Z</Time>
            <Position>
              <LatitudeDegrees>43.33903108723461627960205078125</LatitudeDegrees>
              <LongitudeDegrees>-1.7801655270159244537353515625</LongitudeDegrees>
            </Position>
            <AltitudeMeters>8.6000003814697265625</AltitudeMeters>
            <DistanceMeters>NAN</DistanceMeters>
          </Trackpoint>
          <Trackpoint>
            <Time>2021-08-11T10:16:01.000Z</Time>
            <Position>
              <LatitudeDegrees>43.33903335034847259521484375</LatitudeDegrees>
              <LongitudeDegrees>-1.78014934994280338287353515625</LongitudeDegrees>
            </Position>
            <AltitudeMeters>8.6000003814697265625</AltitudeMeters>
            <DistanceMeters>NAN</DistanceMeters>
          </Trackpoint>
          <Trackpoint>
            <Time>2021-08-11T10:16:03.000Z</Time>
            <Position>
              <LatitudeDegrees>43.3390465937554836273193359375</LatitudeDegrees>
              <LongitudeDegrees>-1.78010190837085247039794921875</LongitudeDegrees>
            </Position>
            <AltitudeMeters>8.6000003814697265625</AltitudeMeters>
            <DistanceMeters>NAN</DistanceMeters>
          </Trackpoint>
          <Trackpoint>
            <Time>2021-08-11T10:16:07.000Z</Time>
            <Position>
              <LatitudeDegrees>43.33907165564596652984619140625</LatitudeDegrees>
              <LongitudeDegrees>-1.780013479292392730712890625</LongitudeDegrees>
            </Position>
            <AltitudeMeters>8.6000003814697265625</AltitudeMeters>
            <DistanceMeters>NAN</DistanceMeters>
          </Trackpoint>
          <Trackpoint>
            <Time>2021-08-11T10:16:11.000Z</Time>
            <Position>
              <LatitudeDegrees>43.339076936244964599609375</LatitudeDegrees>
              <LongitudeDegrees>-1.7799284867942333221435546875</LongitudeDegrees>
            </Position>
            <AltitudeMeters>8.6000003814697265625</AltitudeMeters>
            <DistanceMeters>NAN</DistanceMeters>
          </Trackpoint>
          <Trackpoint>
            <Time>2021-08-11T10:16:12.000Z</Time>
            <Position>
              <LatitudeDegrees>43.339076936244964599609375</LatitudeDegrees>
              <LongitudeDegrees>-1.7799284867942333221435546875</LongitudeDegrees>
            </Position>
            <AltitudeMeters>8.6000003814697265625</AltitudeMeters>
            <DistanceMeters>NAN</DistanceMeters>
          </Trackpoint>
          <Trackpoint>
            <Time>2021-08-11T10:16:13.000Z</Time>
            <Position>
              <LatitudeDegrees>43.33907492458820343017578125</LatitudeDegrees>
              <LongitudeDegrees>-1.779885403811931610107421875</LongitudeDegrees>
            </Position>
            <AltitudeMeters>8.6000003814697265625</AltitudeMeters>
            <DistanceMeters>NAN</DistanceMeters>
          </Trackpoint>
          <Trackpoint>
            <Time>2021-08-11T10:16:14.000Z</Time>
            <Position>
              <LatitudeDegrees>43.33907081745564937591552734375</LatitudeDegrees>
              <LongitudeDegrees>-1.7798667959868907928466796875</LongitudeDegrees>
            </Position>
            <AltitudeMeters>8.6000003814697265625</AltitudeMeters>
            <DistanceMeters>NAN</DistanceMeters>
          </Trackpoint>
          <Trackpoint>
            <Time>2021-08-11T10:16:15.000Z</Time>
            <Position>
              <LatitudeDegrees>43.33906813524663448333740234375</LatitudeDegrees>
              <LongitudeDegrees>-1.7798553965985774993896484375</LongitudeDegrees>
            </Position>
            <AltitudeMeters>8.6000003814697265625</AltitudeMeters>
            <DistanceMeters>NAN</DistanceMeters>
          </Trackpoint>
          <Trackpoint>
            <Time>2021-08-11T10:16:16.000Z</Time>
            <Position>
              <LatitudeDegrees>43.3390675485134124755859375</LatitudeDegrees>
              <LongitudeDegrees>-1.779847852885723114013671875</LongitudeDegrees>
            </Position>
            <AltitudeMeters>8.80000019073486328125</AltitudeMeters>
            <DistanceMeters>NAN</DistanceMeters>
          </Trackpoint>
          <Trackpoint>
            <Time>2021-08-11T10:16:17.000Z</Time>
            <Position>
              <LatitudeDegrees>43.3390675485134124755859375</LatitudeDegrees>
              <LongitudeDegrees>-1.779847852885723114013671875</LongitudeDegrees>
            </Position>
            <AltitudeMeters>8.80000019073486328125</AltitudeMeters>
            <DistanceMeters>NAN</DistanceMeters>
          </Trackpoint>
          <Trackpoint>
            <Time>2021-08-11T10:16:19.000Z</Time>
            <Position>
              <LatitudeDegrees>43.33906562067568302154541015625</LatitudeDegrees>
              <LongitudeDegrees>-1.7798443324863910675048828125</LongitudeDegrees>
            </Position>
            <AltitudeMeters>8.80000019073486328125</AltitudeMeters>
            <DistanceMeters>NAN</DistanceMeters>
          </Trackpoint>
          <Trackpoint>
            <Time>2021-08-11T10:16:20.000Z</Time>
            <Position>
              <LatitudeDegrees>43.33906662650406360626220703125</LatitudeDegrees>
              <LongitudeDegrees>-1.77984223701059818267822265625</LongitudeDegrees>
            </Position>
            <AltitudeMeters>8.80000019073486328125</AltitudeMeters>
            <DistanceMeters>NAN</DistanceMeters>
          </Trackpoint>
          <Trackpoint>
            <Time>2021-08-11T10:16:21.000Z</Time>
            <Position>
              <LatitudeDegrees>43.339065872132778167724609375</LatitudeDegrees>
              <LongitudeDegrees>-1.7798352800309658050537109375</LongitudeDegrees>
            </Position>
            <AltitudeMeters>8.80000019073486328125</AltitudeMeters>
            <DistanceMeters>NAN</DistanceMeters>
          </Trackpoint>
          <Trackpoint>
            <Time>2021-08-11T10:16:22.000Z</Time>
            <Position>
              <LatitudeDegrees>43.33906142972409725189208984375</LatitudeDegrees>
              <LongitudeDegrees>-1.77982480265200138092041015625</LongitudeDegrees>
            </Position>
            <AltitudeMeters>9</AltitudeMeters>
            <DistanceMeters>NAN</DistanceMeters>
          </Trackpoint>
          <Trackpoint>
            <Time>2021-08-11T10:16:23.000Z</Time>
            <Position>
              <LatitudeDegrees>43.33906042389571666717529296875</LatitudeDegrees>
              <LongitudeDegrees>-1.7798201926052570343017578125</LongitudeDegrees>
            </Position>
            <AltitudeMeters>9</AltitudeMeters>
            <DistanceMeters>NAN</DistanceMeters>
          </Trackpoint>
          <Trackpoint>
            <Time>2021-08-11T10:16:24.000Z</Time>
            <Position>
              <LatitudeDegrees>43.33906042389571666717529296875</LatitudeDegrees>
              <LongitudeDegrees>-1.7798201926052570343017578125</LongitudeDegrees>
            </Position>
            <AltitudeMeters>9</AltitudeMeters>
            <DistanceMeters>NAN</DistanceMeters>
          </Trackpoint>
          <Trackpoint>
            <Time>2021-08-11T10:16:27.000Z</Time>
            <Position>
              <LatitudeDegrees>43.33906109444797039031982421875</LatitudeDegrees>
              <LongitudeDegrees>-1.779816336929798126220703125</LongitudeDegrees>
            </Position>
            <AltitudeMeters>8.80000019073486328125</AltitudeMeters>
            <DistanceMeters>NAN</DistanceMeters>
          </Trackpoint>
          <Trackpoint>
            <Time>2021-08-11T10:16:37.000Z</Time>
            <Position>
              <LatitudeDegrees>43.33905606530606746673583984375</LatitudeDegrees>
              <LongitudeDegrees>-1.77980200387537479400634765625</LongitudeDegrees>
            </Position>
            <AltitudeMeters>9</AltitudeMeters>
            <DistanceMeters>NAN</DistanceMeters>
          </Trackpoint>
          <Trackpoint>
            <Time>2021-08-11T10:16:54.000Z</Time>
            <Position>
              <LatitudeDegrees>43.3390519581735134124755859375</LatitudeDegrees>
              <LongitudeDegrees>-1.7797958850860595703125</LongitudeDegrees>
            </Position>
            <AltitudeMeters>8.80000019073486328125</AltitudeMeters>
            <DistanceMeters>NAN</DistanceMeters>
          </Trackpoint>
          <Trackpoint>
            <Time>2021-08-11T12:02:12.000Z</Time>
            <Position>
              <LatitudeDegrees>43.33905036561191082000732421875</LatitudeDegrees>
              <LongitudeDegrees>-1.77972455509006977081298828125</LongitudeDegrees>
            </Position>
            <AltitudeMeters>7.400000095367431640625</AltitudeMeters>
            <DistanceMeters>NAN</DistanceMeters>
          </Trackpoint>
          <Trackpoint>
            <Time>2021-08-11T12:02:21.000Z</Time>
            <Position>
              <LatitudeDegrees>43.339048437774181365966796875</LatitudeDegrees>
              <LongitudeDegrees>-1.77969706244766712188720703125</LongitudeDegrees>
            </Position>
            <AltitudeMeters>7.400000095367431640625</AltitudeMeters>
            <DistanceMeters>NAN</DistanceMeters>
          </Trackpoint>
          <Trackpoint>
            <Time>2021-08-11T12:02:23.000Z</Time>
            <Position>
              <LatitudeDegrees>43.3390693925321102142333984375</LatitudeDegrees>
              <LongitudeDegrees>-1.77970276214182376861572265625</LongitudeDegrees>
            </Position>
            <AltitudeMeters>7.400000095367431640625</AltitudeMeters>
            <DistanceMeters>NAN</DistanceMeters>
          </Trackpoint>
          <Trackpoint>
            <Time>2021-08-11T12:02:24.000Z</Time>
            <Position>
              <LatitudeDegrees>43.3390811271965503692626953125</LatitudeDegrees>
              <LongitudeDegrees>-1.7797175981104373931884765625</LongitudeDegrees>
            </Position>
            <AltitudeMeters>7.400000095367431640625</AltitudeMeters>
            <DistanceMeters>NAN</DistanceMeters>
          </Trackpoint>
          <Trackpoint>
            <Time>2021-08-11T12:02:27.000Z</Time>
            <Position>
              <LatitudeDegrees>43.3390566520392894744873046875</LatitudeDegrees>
              <LongitudeDegrees>-1.77976210601627826690673828125</LongitudeDegrees>
            </Position>
            <AltitudeMeters>7.400000095367431640625</AltitudeMeters>
            <DistanceMeters>NAN</DistanceMeters>
          </Trackpoint>
          <Trackpoint>
            <Time>2021-08-11T12:02:28.000Z</Time>
            <Position>
              <LatitudeDegrees>43.339044749736785888671875</LatitudeDegrees>
              <LongitudeDegrees>-1.7797645367681980133056640625</LongitudeDegrees>
            </Position>
            <AltitudeMeters>7.400000095367431640625</AltitudeMeters>
            <DistanceMeters>NAN</DistanceMeters>
          </Trackpoint>
          <Trackpoint>
            <Time>2021-08-11T12:02:29.000Z</Time>
            <Position>
              <LatitudeDegrees>43.33903779275715351104736328125</LatitudeDegrees>
              <LongitudeDegrees>-1.77976629696786403656005859375</LongitudeDegrees>
            </Position>
            <AltitudeMeters>7.599999904632568359375</AltitudeMeters>
            <DistanceMeters>NAN</DistanceMeters>
          </Trackpoint>
          <Trackpoint>
            <Time>2021-08-11T12:02:30.000Z</Time>
            <Position>
              <LatitudeDegrees>43.3390338532626628875732421875</LatitudeDegrees>
              <LongitudeDegrees>-1.77977669052779674530029296875</LongitudeDegrees>
            </Position>
            <AltitudeMeters>7.599999904632568359375</AltitudeMeters>
            <DistanceMeters>NAN</DistanceMeters>
          </Trackpoint>
          <Trackpoint>
            <Time>2021-08-11T12:02:31.000Z</Time>
            <Position>
              <LatitudeDegrees>43.33903133869171142578125</LatitudeDegrees>
              <LongitudeDegrees>-1.7797891795635223388671875</LongitudeDegrees>
            </Position>
            <AltitudeMeters>7.599999904632568359375</AltitudeMeters>
            <DistanceMeters>NAN</DistanceMeters>
          </Trackpoint>
          <Trackpoint>
            <Time>2021-08-11T12:02:36.000Z</Time>
            <Position>
              <LatitudeDegrees>43.3390338532626628875732421875</LatitudeDegrees>
              <LongitudeDegrees>-1.77980150096118450164794921875</LongitudeDegrees>
            </Position>
            <AltitudeMeters>7.599999904632568359375</AltitudeMeters>
            <DistanceMeters>NAN</DistanceMeters>
          </Trackpoint>
          <Trackpoint>
            <Time>2021-08-11T12:02:38.000Z</Time>
            <Position>
              <LatitudeDegrees>43.339026309549808502197265625</LatitudeDegrees>
              <LongitudeDegrees>-1.77981197834014892578125</LongitudeDegrees>
            </Position>
            <AltitudeMeters>7.599999904632568359375</AltitudeMeters>
            <DistanceMeters>NAN</DistanceMeters>
          </Trackpoint>
          <Trackpoint>
            <Time>2021-08-11T12:02:41.000Z</Time>
            <Position>
              <LatitudeDegrees>43.33903930149972438812255859375</LatitudeDegrees>
              <LongitudeDegrees>-1.7798731662333011627197265625</LongitudeDegrees>
            </Position>
            <AltitudeMeters>7.599999904632568359375</AltitudeMeters>
            <DistanceMeters>NAN</DistanceMeters>
          </Trackpoint>
          <Trackpoint>
            <Time>2021-08-11T12:02:43.000Z</Time>
            <Position>
              <LatitudeDegrees>43.339051790535449981689453125</LatitudeDegrees>
              <LongitudeDegrees>-1.7799425683915615081787109375</LongitudeDegrees>
            </Position>
            <AltitudeMeters>7.599999904632568359375</AltitudeMeters>
            <DistanceMeters>NAN</DistanceMeters>
          </Trackpoint>
          <Trackpoint>
            <Time>2021-08-11T12:02:44.000Z</Time>
            <Position>
              <LatitudeDegrees>43.3390586636960506439208984375</LatitudeDegrees>
              <LongitudeDegrees>-1.7799754254519939422607421875</LongitudeDegrees>
            </Position>
            <AltitudeMeters>7.599999904632568359375</AltitudeMeters>
            <DistanceMeters>NAN</DistanceMeters>
          </Trackpoint>
          <Trackpoint>
            <Time>2021-08-11T12:02:46.000Z</Time>
            <Position>
              <LatitudeDegrees>43.33905153907835483551025390625</LatitudeDegrees>
              <LongitudeDegrees>-1.78001188673079013824462890625</LongitudeDegrees>
            </Position>
            <AltitudeMeters>7.599999904632568359375</AltitudeMeters>
            <DistanceMeters>NAN</DistanceMeters>
          </Trackpoint>
          <Trackpoint>
            <Time>2021-08-11T12:02:47.000Z</Time>
            <Position>
              <LatitudeDegrees>43.33904768340289592742919921875</LatitudeDegrees>
              <LongitudeDegrees>-1.78003150038421154022216796875</LongitudeDegrees>
            </Position>
            <AltitudeMeters>7.599999904632568359375</AltitudeMeters>
            <DistanceMeters>NAN</DistanceMeters>
          </Trackpoint>
          <Trackpoint>
            <Time>2021-08-11T12:02:48.000Z</Time>
            <Position>
              <LatitudeDegrees>43.3390408940613269805908203125</LatitudeDegrees>
              <LongitudeDegrees>-1.78005136549472808837890625</LongitudeDegrees>
            </Position>
            <AltitudeMeters>7.599999904632568359375</AltitudeMeters>
            <DistanceMeters>NAN</DistanceMeters>
          </Trackpoint>
          <Trackpoint>
            <Time>2021-08-11T12:02:49.000Z</Time>
            <Position>
              <LatitudeDegrees>43.3390358649194240570068359375</LatitudeDegrees>
              <LongitudeDegrees>-1.7800666205585002899169921875</LongitudeDegrees>
            </Position>
            <AltitudeMeters>7.599999904632568359375</AltitudeMeters>
            <DistanceMeters>NAN</DistanceMeters>
          </Trackpoint>
          <Trackpoint>
            <Time>2021-08-11T12:02:50.000Z</Time>
            <Position>
              <LatitudeDegrees>43.3390402235090732574462890625</LatitudeDegrees>
              <LongitudeDegrees>-1.7800837196409702301025390625</LongitudeDegrees>
            </Position>
            <AltitudeMeters>7.599999904632568359375</AltitudeMeters>
            <DistanceMeters>NAN</DistanceMeters>
          </Trackpoint>
          <Trackpoint>
            <Time>2021-08-11T12:02:51.000Z</Time>
            <Position>
              <LatitudeDegrees>43.33904944360256195068359375</LatitudeDegrees>
              <LongitudeDegrees>-1.780110038816928863525390625</LongitudeDegrees>
            </Position>
            <AltitudeMeters>7.599999904632568359375</AltitudeMeters>
            <DistanceMeters>NAN</DistanceMeters>
          </Trackpoint>
          <Trackpoint>
            <Time>2021-08-11T12:02:52.000Z</Time>
            <Position>
              <LatitudeDegrees>43.3390489406883716583251953125</LatitudeDegrees>
              <LongitudeDegrees>-1.78012571297585964202880859375</LongitudeDegrees>
            </Position>
            <AltitudeMeters>7.400000095367431640625</AltitudeMeters>
            <DistanceMeters>NAN</DistanceMeters>
          </Trackpoint>
          <Trackpoint>
            <Time>2021-08-11T12:02:53.000Z</Time>
            <Position>
              <LatitudeDegrees>43.33905355073511600494384765625</LatitudeDegrees>
              <LongitudeDegrees>-1.780149601399898529052734375</LongitudeDegrees>
            </Position>
            <AltitudeMeters>7.400000095367431640625</AltitudeMeters>
            <DistanceMeters>NAN</DistanceMeters>
          </Trackpoint>
          <Trackpoint>
            <Time>2021-08-11T12:02:54.000Z</Time>
            <Position>
              <LatitudeDegrees>43.33906059153378009796142578125</LatitudeDegrees>
              <LongitudeDegrees>-1.780171059072017669677734375</LongitudeDegrees>
            </Position>
            <AltitudeMeters>7.400000095367431640625</AltitudeMeters>
            <DistanceMeters>NAN</DistanceMeters>
          </Trackpoint>
          <Trackpoint>
            <Time>2021-08-11T12:02:55.000Z</Time>
            <Position>
              <LatitudeDegrees>43.339067883789539337158203125</LatitudeDegrees>
              <LongitudeDegrees>-1.7801869846880435943603515625</LongitudeDegrees>
            </Position>
            <AltitudeMeters>7.400000095367431640625</AltitudeMeters>
            <DistanceMeters>NAN</DistanceMeters>
          </Trackpoint>
          <Trackpoint>
            <Time>2021-08-11T12:02:56.000Z</Time>
            <Position>
              <LatitudeDegrees>43.3390744216740131378173828125</LatitudeDegrees>
              <LongitudeDegrees>-1.78020332939922809600830078125</LongitudeDegrees>
            </Position>
            <AltitudeMeters>7.400000095367431640625</AltitudeMeters>
            <DistanceMeters>NAN</DistanceMeters>
          </Trackpoint>
          <Trackpoint>
            <Time>2021-08-11T12:02:57.000Z</Time>
            <Position>
              <LatitudeDegrees>43.339076936244964599609375</LatitudeDegrees>
              <LongitudeDegrees>-1.7802265472710132598876953125</LongitudeDegrees>
            </Position>
            <AltitudeMeters>7.400000095367431640625</AltitudeMeters>
            <DistanceMeters>NAN</DistanceMeters>
          </Trackpoint>
          <Trackpoint>
            <Time>2021-08-11T12:02:58.000Z</Time>
            <Position>
              <LatitudeDegrees>43.33906511776149272918701171875</LatitudeDegrees>
              <LongitudeDegrees>-1.7802439816296100616455078125</LongitudeDegrees>
            </Position>
            <AltitudeMeters>7.400000095367431640625</AltitudeMeters>
            <DistanceMeters>NAN</DistanceMeters>
          </Trackpoint>
          <Trackpoint>
            <Time>2021-08-11T12:02:59.000Z</Time>
            <Position>
              <LatitudeDegrees>43.33904868923127651214599609375</LatitudeDegrees>
              <LongitudeDegrees>-1.7802585661411285400390625</LongitudeDegrees>
            </Position>
            <AltitudeMeters>7.400000095367431640625</AltitudeMeters>
            <DistanceMeters>NAN</DistanceMeters>
          </Trackpoint>
          <Trackpoint>
            <Time>2021-08-11T12:03:00.000Z</Time>
            <Position>
              <LatitudeDegrees>43.33903871476650238037109375</LatitudeDegrees>
              <LongitudeDegrees>-1.78028295747935771942138671875</LongitudeDegrees>
            </Position>
            <AltitudeMeters>7.400000095367431640625</AltitudeMeters>
            <DistanceMeters>NAN</DistanceMeters>
          </Trackpoint>
          <Trackpoint>
            <Time>2021-08-11T12:03:01.000Z</Time>
            <Position>
              <LatitudeDegrees>43.33903024904429912567138671875</LatitudeDegrees>
              <LongitudeDegrees>-1.78031556308269500732421875</LongitudeDegrees>
            </Position>
            <AltitudeMeters>7.400000095367431640625</AltitudeMeters>
            <DistanceMeters>NAN</DistanceMeters>
          </Trackpoint>
          <Trackpoint>
            <Time>2021-08-11T12:03:02.000Z</Time>
            <Position>
              <LatitudeDegrees>43.3390274830162525177001953125</LatitudeDegrees>
              <LongitudeDegrees>-1.78033961914479732513427734375</LongitudeDegrees>
            </Position>
            <AltitudeMeters>7.19999980926513671875</AltitudeMeters>
            <DistanceMeters>NAN</DistanceMeters>
          </Trackpoint>
          <Trackpoint>
            <Time>2021-08-11T12:03:03.000Z</Time>
            <Position>
              <LatitudeDegrees>43.33902454935014247894287109375</LatitudeDegrees>
              <LongitudeDegrees>-1.78035269491374492645263671875</LongitudeDegrees>
            </Position>
            <AltitudeMeters>7.19999980926513671875</AltitudeMeters>
            <DistanceMeters>NAN</DistanceMeters>
          </Trackpoint>
          <Trackpoint>
            <Time>2021-08-11T12:03:04.000Z</Time>
            <Position>
              <LatitudeDegrees>43.3390150777995586395263671875</LatitudeDegrees>
              <LongitudeDegrees>-1.78037063218653202056884765625</LongitudeDegrees>
            </Position>
            <AltitudeMeters>7.19999980926513671875</AltitudeMeters>
            <DistanceMeters>NAN</DistanceMeters>
          </Trackpoint>
          <Trackpoint>
            <Time>2021-08-11T12:03:05.000Z</Time>
            <Position>
              <LatitudeDegrees>43.33899839781224727630615234375</LatitudeDegrees>
              <LongitudeDegrees>-1.780388318002223968505859375</LongitudeDegrees>
            </Position>
            <AltitudeMeters>7.19999980926513671875</AltitudeMeters>
            <DistanceMeters>NAN</DistanceMeters>
          </Trackpoint>
          <Trackpoint>
            <Time>2021-08-11T12:03:06.000Z</Time>
            <Position>
              <LatitudeDegrees>43.338982053101062774658203125</LatitudeDegrees>
              <LongitudeDegrees>-1.78039913065731525421142578125</LongitudeDegrees>
            </Position>
            <AltitudeMeters>7.19999980926513671875</AltitudeMeters>
            <DistanceMeters>NAN</DistanceMeters>
          </Trackpoint>
          <Trackpoint>
            <Time>2021-08-11T12:03:08.000Z</Time>
            <Position>
              <LatitudeDegrees>43.3389319293200969696044921875</LatitudeDegrees>
              <LongitudeDegrees>-1.7803972028195858001708984375</LongitudeDegrees>
            </Position>
            <AltitudeMeters>7</AltitudeMeters>
            <DistanceMeters>NAN</DistanceMeters>
          </Trackpoint>
          <Trackpoint>
            <Time>2021-08-11T12:03:09.000Z</Time>
            <Position>
              <LatitudeDegrees>43.3389066159725189208984375</LatitudeDegrees>
              <LongitudeDegrees>-1.780394017696380615234375</LongitudeDegrees>
            </Position>
            <AltitudeMeters>7</AltitudeMeters>
            <DistanceMeters>NAN</DistanceMeters>
          </Trackpoint>
          <Trackpoint>
            <Time>2021-08-11T12:03:10.000Z</Time>
            <Position>
              <LatitudeDegrees>43.33887778222560882568359375</LatitudeDegrees>
              <LongitudeDegrees>-1.78039041347801685333251953125</LongitudeDegrees>
            </Position>
            <AltitudeMeters>7</AltitudeMeters>
            <DistanceMeters>NAN</DistanceMeters>
          </Trackpoint>
          <Trackpoint>
            <Time>2021-08-11T12:03:13.000Z</Time>
            <Position>
              <LatitudeDegrees>43.33878097124397754669189453125</LatitudeDegrees>
              <LongitudeDegrees>-1.78037591278553009033203125</LongitudeDegrees>
            </Position>
            <AltitudeMeters>7</AltitudeMeters>
            <DistanceMeters>NAN</DistanceMeters>
          </Trackpoint>
          <Trackpoint>
            <Time>2021-08-11T12:03:14.000Z</Time>
            <Position>
              <LatitudeDegrees>43.33874912001192569732666015625</LatitudeDegrees>
              <LongitudeDegrees>-1.780371554195880889892578125</LongitudeDegrees>
            </Position>
            <AltitudeMeters>7</AltitudeMeters>
            <DistanceMeters>NAN</DistanceMeters>
          </Trackpoint>
          <Trackpoint>
            <Time>2021-08-11T12:03:16.000Z</Time>
            <Position>
              <LatitudeDegrees>43.3386808075010776519775390625</LatitudeDegrees>
              <LongitudeDegrees>-1.780348755419254302978515625</LongitudeDegrees>
            </Position>
            <AltitudeMeters>7</AltitudeMeters>
            <DistanceMeters>NAN</DistanceMeters>
          </Trackpoint>
          <Trackpoint>
            <Time>2021-08-11T12:03:22.000Z</Time>
            <Position>
              <LatitudeDegrees>43.3384705893695354461669921875</LatitudeDegrees>
              <LongitudeDegrees>-1.78032838739454746246337890625</LongitudeDegrees>
            </Position>
            <AltitudeMeters>7.19999980926513671875</AltitudeMeters>
            <DistanceMeters>NAN</DistanceMeters>
          </Trackpoint>
          <Trackpoint>
            <Time>2021-08-11T12:03:23.000Z</Time>
            <Position>
              <LatitudeDegrees>43.33843966014683246612548828125</LatitudeDegrees>
              <LongitudeDegrees>-1.78032671101391315460205078125</LongitudeDegrees>
            </Position>
            <AltitudeMeters>7.19999980926513671875</AltitudeMeters>
            <DistanceMeters>NAN</DistanceMeters>
          </Trackpoint>
          <Trackpoint>
            <Time>2021-08-11T12:03:29.000Z</Time>
            <Position>
              <LatitudeDegrees>43.338222987949848175048828125</LatitudeDegrees>
              <LongitudeDegrees>-1.780329309403896331787109375</LongitudeDegrees>
            </Position>
            <AltitudeMeters>7.400000095367431640625</AltitudeMeters>
            <DistanceMeters>NAN</DistanceMeters>
          </Trackpoint>
          <Trackpoint>
            <Time>2021-08-11T12:03:30.000Z</Time>
            <Position>
              <LatitudeDegrees>43.33819516003131866455078125</LatitudeDegrees>
              <LongitudeDegrees>-1.7803606577217578887939453125</LongitudeDegrees>
            </Position>
            <AltitudeMeters>7.400000095367431640625</AltitudeMeters>
            <DistanceMeters>NAN</DistanceMeters>
          </Trackpoint>
          <Trackpoint>
            <Time>2021-08-11T12:03:32.000Z</Time>
            <Position>
              <LatitudeDegrees>43.3381651528179645538330078125</LatitudeDegrees>
              <LongitudeDegrees>-1.78044187836349010467529296875</LongitudeDegrees>
            </Position>
            <AltitudeMeters>7.599999904632568359375</AltitudeMeters>
            <DistanceMeters>NAN</DistanceMeters>
          </Trackpoint>
          <Trackpoint>
            <Time>2021-08-11T12:03:38.000Z</Time>
            <Position>
              <LatitudeDegrees>43.33803883753716945648193359375</LatitudeDegrees>
              <LongitudeDegrees>-1.78063281811773777008056640625</LongitudeDegrees>
            </Position>
            <AltitudeMeters>7.80000019073486328125</AltitudeMeters>
            <DistanceMeters>NAN</DistanceMeters>
          </Trackpoint>
          <Trackpoint>
            <Time>2021-08-11T12:03:44.000Z</Time>
            <Position>
              <LatitudeDegrees>43.33785678260028362274169921875</LatitudeDegrees>
              <LongitudeDegrees>-1.78078587166965007781982421875</LongitudeDegrees>
            </Position>
            <AltitudeMeters>8</AltitudeMeters>
            <DistanceMeters>NAN</DistanceMeters>
          </Trackpoint>
          <Trackpoint>
            <Time>2021-08-11T12:03:49.000Z</Time>
            <Position>
              <LatitudeDegrees>43.3376773260533809661865234375</LatitudeDegrees>
              <LongitudeDegrees>-1.7808136157691478729248046875</LongitudeDegrees>
            </Position>
            <AltitudeMeters>8</AltitudeMeters>
            <DistanceMeters>NAN</DistanceMeters>
          </Trackpoint>
          <Trackpoint>
            <Time>2021-08-11T12:03:50.000Z</Time>
            <Position>
              <LatitudeDegrees>43.3376434631645679473876953125</LatitudeDegrees>
              <LongitudeDegrees>-1.780800037086009979248046875</LongitudeDegrees>
            </Position>
            <AltitudeMeters>8</AltitudeMeters>
            <DistanceMeters>NAN</DistanceMeters>
          </Trackpoint>
          <Trackpoint>
            <Time>2021-08-11T12:03:51.000Z</Time>
            <Position>
              <LatitudeDegrees>43.33760951645672321319580078125</LatitudeDegrees>
              <LongitudeDegrees>-1.78078268654644489288330078125</LongitudeDegrees>
            </Position>
            <AltitudeMeters>8</AltitudeMeters>
            <DistanceMeters>NAN</DistanceMeters>
          </Trackpoint>
          <Trackpoint>
            <Time>2021-08-11T12:03:56.000Z</Time>
            <Position>
              <LatitudeDegrees>43.33744154311716556549072265625</LatitudeDegrees>
              <LongitudeDegrees>-1.78070339374244213104248046875</LongitudeDegrees>
            </Position>
            <AltitudeMeters>8</AltitudeMeters>
            <DistanceMeters>NAN</DistanceMeters>
          </Trackpoint>
          <Trackpoint>
            <Time>2021-08-11T12:03:57.000Z</Time>
            <Position>
              <LatitudeDegrees>43.33741555921733379364013671875</LatitudeDegrees>
              <LongitudeDegrees>-1.78072166629135608673095703125</LongitudeDegrees>
            </Position>
            <AltitudeMeters>8</AltitudeMeters>
            <DistanceMeters>NAN</DistanceMeters>
          </Trackpoint>
          <Trackpoint>
            <Time>2021-08-11T12:04:00.000Z</Time>
            <Position>
              <LatitudeDegrees>43.33734615705907344818115234375</LatitudeDegrees>
              <LongitudeDegrees>-1.78081152029335498809814453125</LongitudeDegrees>
            </Position>
            <AltitudeMeters>8.19999980926513671875</AltitudeMeters>
            <DistanceMeters>NAN</DistanceMeters>
          </Trackpoint>
          <Trackpoint>
            <Time>2021-08-11T12:04:01.000Z</Time>
            <Position>
              <LatitudeDegrees>43.33731682039797306060791015625</LatitudeDegrees>
              <LongitudeDegrees>-1.78083867765963077545166015625</LongitudeDegrees>
            </Position>
            <AltitudeMeters>8.3999996185302734375</AltitudeMeters>
            <DistanceMeters>NAN</DistanceMeters>
          </Trackpoint>
          <Trackpoint>
            <Time>2021-08-11T12:04:08.000Z</Time>
            <Position>
              <LatitudeDegrees>43.3371489308774471282958984375</LatitudeDegrees>
              <LongitudeDegrees>-1.7810717783868312835693359375</LongitudeDegrees>
            </Position>
            <AltitudeMeters>8.3999996185302734375</AltitudeMeters>
            <DistanceMeters>NAN</DistanceMeters>
          </Trackpoint>
          <Trackpoint>
            <Time>2021-08-11T12:04:09.000Z</Time>
            <Position>
              <LatitudeDegrees>43.33713359199464321136474609375</LatitudeDegrees>
              <LongitudeDegrees>-1.781100444495677947998046875</LongitudeDegrees>
            </Position>
            <AltitudeMeters>8.3999996185302734375</AltitudeMeters>
            <DistanceMeters>NAN</DistanceMeters>
          </Trackpoint>
          <Trackpoint>
            <Time>2021-08-11T12:04:10.000Z</Time>
            <Position>
              <LatitudeDegrees>43.33712437190115451812744140625</LatitudeDegrees>
              <LongitudeDegrees>-1.78113095462322235107421875</LongitudeDegrees>
            </Position>
            <AltitudeMeters>8.3999996185302734375</AltitudeMeters>
            <DistanceMeters>NAN</DistanceMeters>
          </Trackpoint>
          <Trackpoint>
            <Time>2021-08-11T12:04:11.000Z</Time>
            <Position>
              <LatitudeDegrees>43.33712236024439334869384765625</LatitudeDegrees>
              <LongitudeDegrees>-1.78116641007363796234130859375</LongitudeDegrees>
            </Position>
            <AltitudeMeters>8.6000003814697265625</AltitudeMeters>
            <DistanceMeters>NAN</DistanceMeters>
          </Trackpoint>
          <Trackpoint>
            <Time>2021-08-11T12:04:12.000Z</Time>
            <Position>
              <LatitudeDegrees>43.3371190913021564483642578125</LatitudeDegrees>
              <LongitudeDegrees>-1.781209409236907958984375</LongitudeDegrees>
            </Position>
            <AltitudeMeters>8.6000003814697265625</AltitudeMeters>
            <DistanceMeters>NAN</DistanceMeters>
          </Trackpoint>
          <Trackpoint>
            <Time>2021-08-11T12:04:13.000Z</Time>
            <Position>
              <LatitudeDegrees>43.3371110446751117706298828125</LatitudeDegrees>
              <LongitudeDegrees>-1.781251318752765655517578125</LongitudeDegrees>
            </Position>
            <AltitudeMeters>8.6000003814697265625</AltitudeMeters>
            <DistanceMeters>NAN</DistanceMeters>
          </Trackpoint>
          <Trackpoint>
            <Time>2021-08-11T12:04:14.000Z</Time>
            <Position>
              <LatitudeDegrees>43.33709805272519588470458984375</LatitudeDegrees>
              <LongitudeDegrees>-1.78129130043089389801025390625</LongitudeDegrees>
            </Position>
            <AltitudeMeters>8.6000003814697265625</AltitudeMeters>
            <DistanceMeters>NAN</DistanceMeters>
          </Trackpoint>
          <Trackpoint>
            <Time>2021-08-11T12:04:15.000Z</Time>
            <Position>
              <LatitudeDegrees>43.337081372737884521484375</LatitudeDegrees>
              <LongitudeDegrees>-1.78132868371903896331787109375</LongitudeDegrees>
            </Position>
            <AltitudeMeters>8.6000003814697265625</AltitudeMeters>
            <DistanceMeters>NAN</DistanceMeters>
          </Trackpoint>
          <Trackpoint>
            <Time>2021-08-11T12:04:16.000Z</Time>
            <Position>
              <LatitudeDegrees>43.337060250341892242431640625</LatitudeDegrees>
              <LongitudeDegrees>-1.7813661508262157440185546875</LongitudeDegrees>
            </Position>
            <AltitudeMeters>8.6000003814697265625</AltitudeMeters>
            <DistanceMeters>NAN</DistanceMeters>
          </Trackpoint>
          <Trackpoint>
            <Time>2021-08-11T12:04:18.000Z</Time>
            <Position>
              <LatitudeDegrees>43.33701859228312969207763671875</LatitudeDegrees>
              <LongitudeDegrees>-1.781434714794158935546875</LongitudeDegrees>
            </Position>
            <AltitudeMeters>8.6000003814697265625</AltitudeMeters>
            <DistanceMeters>NAN</DistanceMeters>
          </Trackpoint>
          <Trackpoint>
            <Time>2021-08-11T12:04:20.000Z</Time>
            <Position>
              <LatitudeDegrees>43.33700291812419891357421875</LatitudeDegrees>
              <LongitudeDegrees>-1.78151727654039859771728515625</LongitudeDegrees>
            </Position>
            <AltitudeMeters>8.6000003814697265625</AltitudeMeters>
            <DistanceMeters>NAN</DistanceMeters>
          </Trackpoint>
          <Trackpoint>
            <Time>2021-08-11T12:04:21.000Z</Time>
            <Position>
              <LatitudeDegrees>43.3370050974190235137939453125</LatitudeDegrees>
              <LongitudeDegrees>-1.78156488575041294097900390625</LongitudeDegrees>
            </Position>
            <AltitudeMeters>8.80000019073486328125</AltitudeMeters>
            <DistanceMeters>NAN</DistanceMeters>
          </Trackpoint>
          <Trackpoint>
            <Time>2021-08-11T12:04:22.000Z</Time>
            <Position>
              <LatitudeDegrees>43.33701071329414844512939453125</LatitudeDegrees>
              <LongitudeDegrees>-1.78161215968430042266845703125</LongitudeDegrees>
            </Position>
            <AltitudeMeters>8.80000019073486328125</AltitudeMeters>
            <DistanceMeters>NAN</DistanceMeters>
          </Trackpoint>
          <Trackpoint>
            <Time>2021-08-11T12:04:23.000Z</Time>
            <Position>
              <LatitudeDegrees>43.3370164968073368072509765625</LatitudeDegrees>
              <LongitudeDegrees>-1.7816559970378875732421875</LongitudeDegrees>
            </Position>
            <AltitudeMeters>8.80000019073486328125</AltitudeMeters>
            <DistanceMeters>NAN</DistanceMeters>
          </Trackpoint>
          <Trackpoint>
            <Time>2021-08-11T12:04:26.000Z</Time>
            <Position>
              <LatitudeDegrees>43.3370493538677692413330078125</LatitudeDegrees>
              <LongitudeDegrees>-1.78178482688963413238525390625</LongitudeDegrees>
            </Position>
            <AltitudeMeters>9</AltitudeMeters>
            <DistanceMeters>NAN</DistanceMeters>
          </Trackpoint>
          <Trackpoint>
            <Time>2021-08-11T12:04:29.000Z</Time>
            <Position>
              <LatitudeDegrees>43.33706460893154144287109375</LatitudeDegrees>
              <LongitudeDegrees>-1.78186445496976375579833984375</LongitudeDegrees>
            </Position>
            <AltitudeMeters>9.19999980926513671875</AltitudeMeters>
            <DistanceMeters>NAN</DistanceMeters>
          </Trackpoint>
          <Trackpoint>
            <Time>2021-08-11T12:04:30.000Z</Time>
            <Position>
              <LatitudeDegrees>43.3370701409876346588134765625</LatitudeDegrees>
              <LongitudeDegrees>-1.781898401677608489990234375</LongitudeDegrees>
            </Position>
            <AltitudeMeters>9.19999980926513671875</AltitudeMeters>
            <DistanceMeters>NAN</DistanceMeters>
          </Trackpoint>
          <Trackpoint>
            <Time>2021-08-11T12:04:31.000Z</Time>
            <Position>
              <LatitudeDegrees>43.33707793615758419036865234375</LatitudeDegrees>
              <LongitudeDegrees>-1.78192866034805774688720703125</LongitudeDegrees>
            </Position>
            <AltitudeMeters>9.19999980926513671875</AltitudeMeters>
            <DistanceMeters>NAN</DistanceMeters>
          </Trackpoint>
          <Trackpoint>
            <Time>2021-08-11T12:04:32.000Z</Time>
            <Position>
              <LatitudeDegrees>43.337085060775279998779296875</LatitudeDegrees>
              <LongitudeDegrees>-1.78195715881884098052978515625</LongitudeDegrees>
            </Position>
            <AltitudeMeters>9.19999980926513671875</AltitudeMeters>
            <DistanceMeters>NAN</DistanceMeters>
          </Trackpoint>
          <Trackpoint>
            <Time>2021-08-11T12:04:33.000Z</Time>
            <Position>
              <LatitudeDegrees>43.33709050901234149932861328125</LatitudeDegrees>
              <LongitudeDegrees>-1.78198699839413166046142578125</LongitudeDegrees>
            </Position>
            <AltitudeMeters>9.3999996185302734375</AltitudeMeters>
            <DistanceMeters>NAN</DistanceMeters>
          </Trackpoint>
          <Trackpoint>
            <Time>2021-08-11T12:04:34.000Z</Time>
            <Position>
              <LatitudeDegrees>43.3370989747345447540283203125</LatitudeDegrees>
              <LongitudeDegrees>-1.7820175923407077789306640625</LongitudeDegrees>
            </Position>
            <AltitudeMeters>9.3999996185302734375</AltitudeMeters>
            <DistanceMeters>NAN</DistanceMeters>
          </Trackpoint>
          <Trackpoint>
            <Time>2021-08-11T12:04:35.000Z</Time>
            <Position>
              <LatitudeDegrees>43.33710827864706516265869140625</LatitudeDegrees>
              <LongitudeDegrees>-1.782060004770755767822265625</LongitudeDegrees>
            </Position>
            <AltitudeMeters>9.3999996185302734375</AltitudeMeters>
            <DistanceMeters>NAN</DistanceMeters>
          </Trackpoint>
          <Trackpoint>
            <Time>2021-08-11T12:04:36.000Z</Time>
            <Position>
              <LatitudeDegrees>43.33711330778896808624267578125</LatitudeDegrees>
              <LongitudeDegrees>-1.78210518322885036468505859375</LongitudeDegrees>
            </Position>
            <AltitudeMeters>9.3999996185302734375</AltitudeMeters>
            <DistanceMeters>NAN</DistanceMeters>
          </Trackpoint>
          <Trackpoint>
            <Time>2021-08-11T12:04:41.000Z</Time>
            <Position>
              <LatitudeDegrees>43.337168209254741668701171875</LatitudeDegrees>
              <LongitudeDegrees>-1.7823025770485401153564453125</LongitudeDegrees>
            </Position>
            <AltitudeMeters>9.3999996185302734375</AltitudeMeters>
            <DistanceMeters>NAN</DistanceMeters>
          </Trackpoint>
          <Trackpoint>
            <Time>2021-08-11T12:04:46.000Z</Time>
            <Position>
              <LatitudeDegrees>43.33722143433988094329833984375</LatitudeDegrees>
              <LongitudeDegrees>-1.7824655212461948394775390625</LongitudeDegrees>
            </Position>
            <AltitudeMeters>9.19999980926513671875</AltitudeMeters>
            <DistanceMeters>NAN</DistanceMeters>
          </Trackpoint>
          <Trackpoint>
            <Time>2021-08-11T12:04:47.000Z</Time>
            <Position>
              <LatitudeDegrees>43.33721757866442203521728515625</LatitudeDegrees>
              <LongitudeDegrees>-1.7824930138885974884033203125</LongitudeDegrees>
            </Position>
            <AltitudeMeters>9.19999980926513671875</AltitudeMeters>
            <DistanceMeters>NAN</DistanceMeters>
          </Trackpoint>
          <Trackpoint>
            <Time>2021-08-11T12:04:48.000Z</Time>
            <Position>
              <LatitudeDegrees>43.337216489017009735107421875</LatitudeDegrees>
              <LongitudeDegrees>-1.78251975215971469879150390625</LongitudeDegrees>
            </Position>
            <AltitudeMeters>9.19999980926513671875</AltitudeMeters>
            <DistanceMeters>NAN</DistanceMeters>
          </Trackpoint>
          <Trackpoint>
            <Time>2021-08-11T12:04:49.000Z</Time>
            <Position>
              <LatitudeDegrees>43.33722596056759357452392578125</LatitudeDegrees>
              <LongitudeDegrees>-1.782555542886257171630859375</LongitudeDegrees>
            </Position>
            <AltitudeMeters>9.19999980926513671875</AltitudeMeters>
            <DistanceMeters>NAN</DistanceMeters>
          </Trackpoint>
          <Trackpoint>
            <Time>2021-08-11T12:04:50.000Z</Time>
            <Position>
              <LatitudeDegrees>43.3372307382524013519287109375</LatitudeDegrees>
              <LongitudeDegrees>-1.78259451873600482940673828125</LongitudeDegrees>
            </Position>
            <AltitudeMeters>9</AltitudeMeters>
            <DistanceMeters>NAN</DistanceMeters>
          </Trackpoint>
          <Trackpoint>
            <Time>2021-08-11T12:04:51.000Z</Time>
            <Position>
              <LatitudeDegrees>43.33723895251750946044921875</LatitudeDegrees>
              <LongitudeDegrees>-1.78263039328157901763916015625</LongitudeDegrees>
            </Position>
            <AltitudeMeters>9</AltitudeMeters>
            <DistanceMeters>NAN</DistanceMeters>
          </Trackpoint>
          <Trackpoint>
            <Time>2021-08-11T12:04:52.000Z</Time>
            <Position>
              <LatitudeDegrees>43.33724708296358585357666015625</LatitudeDegrees>
              <LongitudeDegrees>-1.78266408853232860565185546875</LongitudeDegrees>
            </Position>
            <AltitudeMeters>9</AltitudeMeters>
            <DistanceMeters>NAN</DistanceMeters>
          </Trackpoint>
          <Trackpoint>
            <Time>2021-08-11T12:04:53.000Z</Time>
            <Position>
              <LatitudeDegrees>43.33725077100098133087158203125</LatitudeDegrees>
              <LongitudeDegrees>-1.782695017755031585693359375</LongitudeDegrees>
            </Position>
            <AltitudeMeters>9</AltitudeMeters>
            <DistanceMeters>NAN</DistanceMeters>
          </Trackpoint>
          <Trackpoint>
            <Time>2021-08-11T12:04:55.000Z</Time>
            <Position>
              <LatitudeDegrees>43.33726451732218265533447265625</LatitudeDegrees>
              <LongitudeDegrees>-1.78276131860911846160888671875</LongitudeDegrees>
            </Position>
            <AltitudeMeters>9</AltitudeMeters>
            <DistanceMeters>NAN</DistanceMeters>
          </Trackpoint>
          <Trackpoint>
            <Time>2021-08-11T12:05:02.000Z</Time>
            <Position>
              <LatitudeDegrees>43.33729301579296588897705078125</LatitudeDegrees>
              <LongitudeDegrees>-1.78303004242479801177978515625</LongitudeDegrees>
            </Position>
            <AltitudeMeters>8.80000019073486328125</AltitudeMeters>
            <DistanceMeters>NAN</DistanceMeters>
          </Trackpoint>
          <Trackpoint>
            <Time>2021-08-11T12:05:07.000Z</Time>
            <Position>
              <LatitudeDegrees>43.33734028972685337066650390625</LatitudeDegrees>
              <LongitudeDegrees>-1.78327311761677265167236328125</LongitudeDegrees>
            </Position>
            <AltitudeMeters>8.6000003814697265625</AltitudeMeters>
            <DistanceMeters>NAN</DistanceMeters>
          </Trackpoint>
          <Trackpoint>
            <Time>2021-08-11T12:05:08.000Z</Time>
            <Position>
              <LatitudeDegrees>43.33737314678728580474853515625</LatitudeDegrees>
              <LongitudeDegrees>-1.78330765105783939361572265625</LongitudeDegrees>
            </Position>
            <AltitudeMeters>8.6000003814697265625</AltitudeMeters>
            <DistanceMeters>NAN</DistanceMeters>
          </Trackpoint>
          <Trackpoint>
            <Time>2021-08-11T12:05:09.000Z</Time>
            <Position>
              <LatitudeDegrees>43.33740650676190853118896484375</LatitudeDegrees>
              <LongitudeDegrees>-1.78333229385316371917724609375</LongitudeDegrees>
            </Position>
            <AltitudeMeters>8.3999996185302734375</AltitudeMeters>
            <DistanceMeters>NAN</DistanceMeters>
          </Trackpoint>
          <Trackpoint>
            <Time>2021-08-11T12:05:12.000Z</Time>
            <Position>
              <LatitudeDegrees>43.3374624140560626983642578125</LatitudeDegrees>
              <LongitudeDegrees>-1.78342700935900211334228515625</LongitudeDegrees>
            </Position>
            <AltitudeMeters>8.3999996185302734375</AltitudeMeters>
            <DistanceMeters>NAN</DistanceMeters>
          </Trackpoint>
          <Trackpoint>
            <Time>2021-08-11T12:05:13.000Z</Time>
            <Position>
              <LatitudeDegrees>43.337463252246379852294921875</LatitudeDegrees>
              <LongitudeDegrees>-1.7834706790745258331298828125</LongitudeDegrees>
            </Position>
            <AltitudeMeters>8.3999996185302734375</AltitudeMeters>
            <DistanceMeters>NAN</DistanceMeters>
          </Trackpoint>
          <Trackpoint>
            <Time>2021-08-11T12:05:15.000Z</Time>
            <Position>
              <LatitudeDegrees>43.3374386094510555267333984375</LatitudeDegrees>
              <LongitudeDegrees>-1.783548630774021148681640625</LongitudeDegrees>
            </Position>
            <AltitudeMeters>8.19999980926513671875</AltitudeMeters>
            <DistanceMeters>NAN</DistanceMeters>
          </Trackpoint>
          <Trackpoint>
            <Time>2021-08-11T12:05:16.000Z</Time>
            <Position>
              <LatitudeDegrees>43.337413966655731201171875</LatitudeDegrees>
              <LongitudeDegrees>-1.783578135073184967041015625</LongitudeDegrees>
            </Position>
            <AltitudeMeters>8.19999980926513671875</AltitudeMeters>
            <DistanceMeters>NAN</DistanceMeters>
          </Trackpoint>
          <Trackpoint>
            <Time>2021-08-11T12:05:17.000Z</Time>
            <Position>
              <LatitudeDegrees>43.3373856358230113983154296875</LatitudeDegrees>
              <LongitudeDegrees>-1.7835987545549869537353515625</LongitudeDegrees>
            </Position>
            <AltitudeMeters>8.19999980926513671875</AltitudeMeters>
            <DistanceMeters>NAN</DistanceMeters>
          </Trackpoint>
          <Trackpoint>
            <Time>2021-08-11T12:05:18.000Z</Time>
            <Position>
              <LatitudeDegrees>43.3373537845909595489501953125</LatitudeDegrees>
              <LongitudeDegrees>-1.783610992133617401123046875</LongitudeDegrees>
            </Position>
            <AltitudeMeters>8.19999980926513671875</AltitudeMeters>
            <DistanceMeters>NAN</DistanceMeters>
          </Trackpoint>
          <Trackpoint>
            <Time>2021-08-11T12:05:19.000Z</Time>
            <Position>
              <LatitudeDegrees>43.33732344210147857666015625</LatitudeDegrees>
              <LongitudeDegrees>-1.7836195416748523712158203125</LongitudeDegrees>
            </Position>
            <AltitudeMeters>8</AltitudeMeters>
            <DistanceMeters>NAN</DistanceMeters>
          </Trackpoint>
          <Trackpoint>
            <Time>2021-08-11T12:05:20.000Z</Time>
            <Position>
              <LatitudeDegrees>43.33729385398328304290771484375</LatitudeDegrees>
              <LongitudeDegrees>-1.78362867794930934906005859375</LongitudeDegrees>
            </Position>
            <AltitudeMeters>8</AltitudeMeters>
            <DistanceMeters>NAN</DistanceMeters>
          </Trackpoint>
          <Trackpoint>
            <Time>2021-08-11T12:05:21.000Z</Time>
            <Position>
              <LatitudeDegrees>43.33726535551249980926513671875</LatitudeDegrees>
              <LongitudeDegrees>-1.783637143671512603759765625</LongitudeDegrees>
            </Position>
            <AltitudeMeters>8</AltitudeMeters>
            <DistanceMeters>NAN</DistanceMeters>
          </Trackpoint>
          <Trackpoint>
            <Time>2021-08-11T12:05:23.000Z</Time>
            <Position>
              <LatitudeDegrees>43.33721640519797801971435546875</LatitudeDegrees>
              <LongitudeDegrees>-1.7836711741983890533447265625</LongitudeDegrees>
            </Position>
            <AltitudeMeters>8</AltitudeMeters>
            <DistanceMeters>NAN</DistanceMeters>
          </Trackpoint>
          <Trackpoint>
            <Time>2021-08-11T12:05:24.000Z</Time>
            <Position>
              <LatitudeDegrees>43.33719209767878055572509765625</LatitudeDegrees>
              <LongitudeDegrees>-1.78369514644145965576171875</LongitudeDegrees>
            </Position>
            <AltitudeMeters>8</AltitudeMeters>
            <DistanceMeters>NAN</DistanceMeters>
          </Trackpoint>
          <Trackpoint>
            <Time>2021-08-11T12:05:32.000Z</Time>
            <Position>
              <LatitudeDegrees>43.33698405884206295013427734375</LatitudeDegrees>
              <LongitudeDegrees>-1.78393478505313396453857421875</LongitudeDegrees>
            </Position>
            <AltitudeMeters>7.80000019073486328125</AltitudeMeters>
            <DistanceMeters>NAN</DistanceMeters>
          </Trackpoint>
          <Trackpoint>
            <Time>2021-08-11T12:05:38.000Z</Time>
            <Position>
              <LatitudeDegrees>43.33679102361202239990234375</LatitudeDegrees>
              <LongitudeDegrees>-1.78408716805279254913330078125</LongitudeDegrees>
            </Position>
            <AltitudeMeters>7.80000019073486328125</AltitudeMeters>
            <DistanceMeters>NAN</DistanceMeters>
          </Trackpoint>
          <Trackpoint>
            <Time>2021-08-11T12:05:40.000Z</Time>
            <Position>
              <LatitudeDegrees>43.336721956729888916015625</LatitudeDegrees>
              <LongitudeDegrees>-1.7841248027980327606201171875</LongitudeDegrees>
            </Position>
            <AltitudeMeters>7.599999904632568359375</AltitudeMeters>
            <DistanceMeters>NAN</DistanceMeters>
          </Trackpoint>
          <Trackpoint>
            <Time>2021-08-11T12:05:42.000Z</Time>
            <Position>
              <LatitudeDegrees>43.336639143526554107666015625</LatitudeDegrees>
              <LongitudeDegrees>-1.78417861461639404296875</LongitudeDegrees>
            </Position>
            <AltitudeMeters>7.80000019073486328125</AltitudeMeters>
            <DistanceMeters>NAN</DistanceMeters>
          </Trackpoint>
          <Trackpoint>
            <Time>2021-08-11T12:05:45.000Z</Time>
            <Position>
              <LatitudeDegrees>43.33656094036996364593505859375</LatitudeDegrees>
              <LongitudeDegrees>-1.78423217497766017913818359375</LongitudeDegrees>
            </Position>
            <AltitudeMeters>7.80000019073486328125</AltitudeMeters>
            <DistanceMeters>NAN</DistanceMeters>
          </Trackpoint>
          <Trackpoint>
            <Time>2021-08-11T12:05:46.000Z</Time>
            <Position>
              <LatitudeDegrees>43.33652623929083347320556640625</LatitudeDegrees>
              <LongitudeDegrees>-1.7842652834951877593994140625</LongitudeDegrees>
            </Position>
            <AltitudeMeters>7.80000019073486328125</AltitudeMeters>
            <DistanceMeters>NAN</DistanceMeters>
          </Trackpoint>
          <Trackpoint>
            <Time>2021-08-11T12:05:47.000Z</Time>
            <Position>
              <LatitudeDegrees>43.3364941366016864776611328125</LatitudeDegrees>
              <LongitudeDegrees>-1.7842937819659709930419921875</LongitudeDegrees>
            </Position>
            <AltitudeMeters>7.80000019073486328125</AltitudeMeters>
            <DistanceMeters>NAN</DistanceMeters>
          </Trackpoint>
          <Trackpoint>
            <Time>2021-08-11T12:05:48.000Z</Time>
            <Position>
              <LatitudeDegrees>43.33646169863641262054443359375</LatitudeDegrees>
              <LongitudeDegrees>-1.78432387299835681915283203125</LongitudeDegrees>
            </Position>
            <AltitudeMeters>7.80000019073486328125</AltitudeMeters>
            <DistanceMeters>NAN</DistanceMeters>
          </Trackpoint>
          <Trackpoint>
            <Time>2021-08-11T12:05:50.000Z</Time>
            <Position>
              <LatitudeDegrees>43.33640822209417819976806640625</LatitudeDegrees>
              <LongitudeDegrees>-1.78438606671988964080810546875</LongitudeDegrees>
            </Position>
            <AltitudeMeters>8</AltitudeMeters>
            <DistanceMeters>NAN</DistanceMeters>
          </Trackpoint>
          <Trackpoint>
            <Time>2021-08-11T12:05:51.000Z</Time>
            <Position>
              <LatitudeDegrees>43.33638056181371212005615234375</LatitudeDegrees>
              <LongitudeDegrees>-1.78441263735294342041015625</LongitudeDegrees>
            </Position>
            <AltitudeMeters>8</AltitudeMeters>
            <DistanceMeters>NAN</DistanceMeters>
          </Trackpoint>
          <Trackpoint>
            <Time>2021-08-11T12:05:52.000Z</Time>
            <Position>
              <LatitudeDegrees>43.33635256625711917877197265625</LatitudeDegrees>
              <LongitudeDegrees>-1.78443384356796741485595703125</LongitudeDegrees>
            </Position>
            <AltitudeMeters>8</AltitudeMeters>
            <DistanceMeters>NAN</DistanceMeters>
          </Trackpoint>
          <Trackpoint>
            <Time>2021-08-11T12:05:53.000Z</Time>
            <Position>
              <LatitudeDegrees>43.33632943220436573028564453125</LatitudeDegrees>
              <LongitudeDegrees>-1.78445396013557910919189453125</LongitudeDegrees>
            </Position>
            <AltitudeMeters>8.19999980926513671875</AltitudeMeters>
            <DistanceMeters>NAN</DistanceMeters>
          </Trackpoint>
          <Trackpoint>
            <Time>2021-08-11T12:05:54.000Z</Time>
            <Position>
              <LatitudeDegrees>43.3363102376461029052734375</LatitudeDegrees>
              <LongitudeDegrees>-1.78447172977030277252197265625</LongitudeDegrees>
            </Position>
            <AltitudeMeters>8.19999980926513671875</AltitudeMeters>
            <DistanceMeters>NAN</DistanceMeters>
          </Trackpoint>
          <Trackpoint>
            <Time>2021-08-11T12:05:57.000Z</Time>
            <Position>
              <LatitudeDegrees>43.33625164814293384552001953125</LatitudeDegrees>
              <LongitudeDegrees>-1.78453610278666019439697265625</LongitudeDegrees>
            </Position>
            <AltitudeMeters>8.3999996185302734375</AltitudeMeters>
            <DistanceMeters>NAN</DistanceMeters>
          </Trackpoint>
          <Trackpoint>
            <Time>2021-08-11T12:05:58.000Z</Time>
            <Position>
              <LatitudeDegrees>43.33623924292623996734619140625</LatitudeDegrees>
              <LongitudeDegrees>-1.7845700494945049285888671875</LongitudeDegrees>
            </Position>
            <AltitudeMeters>8.3999996185302734375</AltitudeMeters>
            <DistanceMeters>NAN</DistanceMeters>
          </Trackpoint>
          <Trackpoint>
            <Time>2021-08-11T12:05:59.000Z</Time>
            <Position>
              <LatitudeDegrees>43.3362351357936859130859375</LatitudeDegrees>
              <LongitudeDegrees>-1.78460843861103057861328125</LongitudeDegrees>
            </Position>
            <AltitudeMeters>8.3999996185302734375</AltitudeMeters>
            <DistanceMeters>NAN</DistanceMeters>
          </Trackpoint>
          <Trackpoint>
            <Time>2021-08-11T12:06:00.000Z</Time>
            <Position>
              <LatitudeDegrees>43.33623505197465419769287109375</LatitudeDegrees>
              <LongitudeDegrees>-1.78464867174625396728515625</LongitudeDegrees>
            </Position>
            <AltitudeMeters>8.3999996185302734375</AltitudeMeters>
            <DistanceMeters>NAN</DistanceMeters>
          </Trackpoint>
          <Trackpoint>
            <Time>2021-08-11T12:06:01.000Z</Time>
            <Position>
              <LatitudeDegrees>43.33623337559401988983154296875</LatitudeDegrees>
              <LongitudeDegrees>-1.78468965925276279449462890625</LongitudeDegrees>
            </Position>
            <AltitudeMeters>8.3999996185302734375</AltitudeMeters>
            <DistanceMeters>NAN</DistanceMeters>
          </Trackpoint>
          <Trackpoint>
            <Time>2021-08-11T12:06:02.000Z</Time>
            <Position>
              <LatitudeDegrees>43.33623312413692474365234375</LatitudeDegrees>
              <LongitudeDegrees>-1.7847262881696224212646484375</LongitudeDegrees>
            </Position>
            <AltitudeMeters>8.3999996185302734375</AltitudeMeters>
            <DistanceMeters>NAN</DistanceMeters>
          </Trackpoint>
          <Trackpoint>
            <Time>2021-08-11T12:06:03.000Z</Time>
            <Position>
              <LatitudeDegrees>43.33623538725078105926513671875</LatitudeDegrees>
              <LongitudeDegrees>-1.7847557924687862396240234375</LongitudeDegrees>
            </Position>
            <AltitudeMeters>8.6000003814697265625</AltitudeMeters>
            <DistanceMeters>NAN</DistanceMeters>
          </Trackpoint>
          <Trackpoint>
            <Time>2021-08-11T12:06:04.000Z</Time>
            <Position>
              <LatitudeDegrees>43.3362324535846710205078125</LatitudeDegrees>
              <LongitudeDegrees>-1.784784458577632904052734375</LongitudeDegrees>
            </Position>
            <AltitudeMeters>8.6000003814697265625</AltitudeMeters>
            <DistanceMeters>NAN</DistanceMeters>
          </Trackpoint>
          <Trackpoint>
            <Time>2021-08-11T12:06:05.000Z</Time>
            <Position>
              <LatitudeDegrees>43.33622197620570659637451171875</LatitudeDegrees>
              <LongitudeDegrees>-1.78481337614357471466064453125</LongitudeDegrees>
            </Position>
            <AltitudeMeters>8.6000003814697265625</AltitudeMeters>
            <DistanceMeters>NAN</DistanceMeters>
          </Trackpoint>
          <Trackpoint>
            <Time>2021-08-11T12:06:06.000Z</Time>
            <Position>
              <LatitudeDegrees>43.33620806224644184112548828125</LatitudeDegrees>
              <LongitudeDegrees>-1.7848402820527553558349609375</LongitudeDegrees>
            </Position>
            <AltitudeMeters>8.6000003814697265625</AltitudeMeters>
            <DistanceMeters>NAN</DistanceMeters>
          </Trackpoint>
          <Trackpoint>
            <Time>2021-08-11T12:06:07.000Z</Time>
            <Position>
              <LatitudeDegrees>43.33619825541973114013671875</LatitudeDegrees>
              <LongitudeDegrees>-1.7848637513816356658935546875</LongitudeDegrees>
            </Position>
            <AltitudeMeters>8.3999996185302734375</AltitudeMeters>
            <DistanceMeters>NAN</DistanceMeters>
          </Trackpoint>
          <Trackpoint>
            <Time>2021-08-11T12:06:08.000Z</Time>
            <Position>
              <LatitudeDegrees>43.33619331009685993194580078125</LatitudeDegrees>
              <LongitudeDegrees>-1.7848768271505832672119140625</LongitudeDegrees>
            </Position>
            <AltitudeMeters>8.3999996185302734375</AltitudeMeters>
            <DistanceMeters>NAN</DistanceMeters>
          </Trackpoint>
          <Trackpoint>
            <Time>2021-08-11T12:06:09.000Z</Time>
            <Position>
              <LatitudeDegrees>43.33619331009685993194580078125</LatitudeDegrees>
              <LongitudeDegrees>-1.78487825207412242889404296875</LongitudeDegrees>
            </Position>
            <AltitudeMeters>8.6000003814697265625</AltitudeMeters>
            <DistanceMeters>NAN</DistanceMeters>
          </Trackpoint>
          <Trackpoint>
            <Time>2021-08-11T12:06:17.000Z</Time>
            <Position>
              <LatitudeDegrees>43.33620923571288585662841796875</LatitudeDegrees>
              <LongitudeDegrees>-1.78489551879465579986572265625</LongitudeDegrees>
            </Position>
            <AltitudeMeters>8.80000019073486328125</AltitudeMeters>
            <DistanceMeters>NAN</DistanceMeters>
          </Trackpoint>
          <Trackpoint>
            <Time>2021-08-11T12:06:35.000Z</Time>
            <Position>
              <LatitudeDegrees>43.3362165279686450958251953125</LatitudeDegrees>
              <LongitudeDegrees>-1.7848949320614337921142578125</LongitudeDegrees>
            </Position>
            <AltitudeMeters>8.80000019073486328125</AltitudeMeters>
            <DistanceMeters>NAN</DistanceMeters>
          </Trackpoint>
          <Trackpoint>
            <Time>2021-08-11T12:07:52.000Z</Time>
            <Position>
              <LatitudeDegrees>43.33620286546647548675537109375</LatitudeDegrees>
              <LongitudeDegrees>-1.78484086878597736358642578125</LongitudeDegrees>
            </Position>
            <AltitudeMeters>9</AltitudeMeters>
            <DistanceMeters>NAN</DistanceMeters>
          </Trackpoint>
          <Trackpoint>
            <Time>2021-08-11T12:07:54.000Z</Time>
            <Position>
              <LatitudeDegrees>43.33620370365679264068603515625</LatitudeDegrees>
              <LongitudeDegrees>-1.784882359206676483154296875</LongitudeDegrees>
            </Position>
            <AltitudeMeters>8.80000019073486328125</AltitudeMeters>
            <DistanceMeters>NAN</DistanceMeters>
          </Trackpoint>
          <Trackpoint>
            <Time>2021-08-11T12:07:55.000Z</Time>
            <Position>
              <LatitudeDegrees>43.33621107973158359527587890625</LatitudeDegrees>
              <LongitudeDegrees>-1.784906499087810516357421875</LongitudeDegrees>
            </Position>
            <AltitudeMeters>8.80000019073486328125</AltitudeMeters>
            <DistanceMeters>NAN</DistanceMeters>
          </Trackpoint>
          <Trackpoint>
            <Time>2021-08-11T12:07:56.000Z</Time>
            <Position>
              <LatitudeDegrees>43.33621837198734283447265625</LatitudeDegrees>
              <LongitudeDegrees>-1.78493524901568889617919921875</LongitudeDegrees>
            </Position>
            <AltitudeMeters>8.80000019073486328125</AltitudeMeters>
            <DistanceMeters>NAN</DistanceMeters>
          </Trackpoint>
          <Trackpoint>
            <Time>2021-08-11T12:07:57.000Z</Time>
            <Position>
              <LatitudeDegrees>43.33622667007148265838623046875</LatitudeDegrees>
              <LongitudeDegrees>-1.7849670164287090301513671875</LongitudeDegrees>
            </Position>
            <AltitudeMeters>8.80000019073486328125</AltitudeMeters>
            <DistanceMeters>NAN</DistanceMeters>
          </Trackpoint>
          <Trackpoint>
            <Time>2021-08-11T12:08:01.000Z</Time>
            <Position>
              <LatitudeDegrees>43.336244523525238037109375</LatitudeDegrees>
              <LongitudeDegrees>-1.7851142026484012603759765625</LongitudeDegrees>
            </Position>
            <AltitudeMeters>8.80000019073486328125</AltitudeMeters>
            <DistanceMeters>NAN</DistanceMeters>
          </Trackpoint>
          <Trackpoint>
            <Time>2021-08-11T12:08:02.000Z</Time>
            <Position>
              <LatitudeDegrees>43.33623136393725872039794921875</LatitudeDegrees>
              <LongitudeDegrees>-1.78514680825173854827880859375</LongitudeDegrees>
            </Position>
            <AltitudeMeters>8.80000019073486328125</AltitudeMeters>
            <DistanceMeters>NAN</DistanceMeters>
          </Trackpoint>
          <Trackpoint>
            <Time>2021-08-11T12:08:03.000Z</Time>
            <Position>
              <LatitudeDegrees>43.33621309138834476470947265625</LatitudeDegrees>
              <LongitudeDegrees>-1.78518016822636127471923828125</LongitudeDegrees>
            </Position>
            <AltitudeMeters>8.80000019073486328125</AltitudeMeters>
            <DistanceMeters>NAN</DistanceMeters>
          </Trackpoint>
          <Trackpoint>
            <Time>2021-08-11T12:08:05.000Z</Time>
            <Position>
              <LatitudeDegrees>43.33616363815963268280029296875</LatitudeDegrees>
              <LongitudeDegrees>-1.7852191440761089324951171875</LongitudeDegrees>
            </Position>
            <AltitudeMeters>8.6000003814697265625</AltitudeMeters>
            <DistanceMeters>NAN</DistanceMeters>
          </Trackpoint>
          <Trackpoint>
            <Time>2021-08-11T12:08:06.000Z</Time>
            <Position>
              <LatitudeDegrees>43.33614083938300609588623046875</LatitudeDegrees>
              <LongitudeDegrees>-1.7852392606437206268310546875</LongitudeDegrees>
            </Position>
            <AltitudeMeters>8.6000003814697265625</AltitudeMeters>
            <DistanceMeters>NAN</DistanceMeters>
          </Trackpoint>
          <Trackpoint>
            <Time>2021-08-11T12:08:12.000Z</Time>
            <Position>
              <LatitudeDegrees>43.33600706420838832855224609375</LatitudeDegrees>
              <LongitudeDegrees>-1.785307824611663818359375</LongitudeDegrees>
            </Position>
            <AltitudeMeters>8.3999996185302734375</AltitudeMeters>
            <DistanceMeters>NAN</DistanceMeters>
          </Trackpoint>
          <Trackpoint>
            <Time>2021-08-11T12:08:22.000Z</Time>
            <Position>
              <LatitudeDegrees>43.3357246778905391693115234375</LatitudeDegrees>
              <LongitudeDegrees>-1.78551427088677883148193359375</LongitudeDegrees>
            </Position>
            <AltitudeMeters>8.6000003814697265625</AltitudeMeters>
            <DistanceMeters>NAN</DistanceMeters>
          </Trackpoint>
          <Trackpoint>
            <Time>2021-08-11T12:08:27.000Z</Time>
            <Position>
              <LatitudeDegrees>43.3355795033276081085205078125</LatitudeDegrees>
              <LongitudeDegrees>-1.785619966685771942138671875</LongitudeDegrees>
            </Position>
            <AltitudeMeters>8.80000019073486328125</AltitudeMeters>
            <DistanceMeters>NAN</DistanceMeters>
          </Trackpoint>
          <Trackpoint>
            <Time>2021-08-11T12:08:34.000Z</Time>
            <Position>
              <LatitudeDegrees>43.3353666029870510101318359375</LatitudeDegrees>
              <LongitudeDegrees>-1.78576656617224216461181640625</LongitudeDegrees>
            </Position>
            <AltitudeMeters>8.80000019073486328125</AltitudeMeters>
            <DistanceMeters>NAN</DistanceMeters>
          </Trackpoint>
          <Trackpoint>
            <Time>2021-08-11T12:08:37.000Z</Time>
            <Position>
              <LatitudeDegrees>43.3352697081863880157470703125</LatitudeDegrees>
              <LongitudeDegrees>-1.78582574240863323211669921875</LongitudeDegrees>
            </Position>
            <AltitudeMeters>9</AltitudeMeters>
            <DistanceMeters>NAN</DistanceMeters>
          </Trackpoint>
          <Trackpoint>
            <Time>2021-08-11T12:08:43.000Z</Time>
            <Position>
              <LatitudeDegrees>43.33507348783314228057861328125</LatitudeDegrees>
              <LongitudeDegrees>-1.78588827140629291534423828125</LongitudeDegrees>
            </Position>
            <AltitudeMeters>9.3999996185302734375</AltitudeMeters>
            <DistanceMeters>NAN</DistanceMeters>
          </Trackpoint>
          <Trackpoint>
            <Time>2021-08-11T12:08:44.000Z</Time>
            <Position>
              <LatitudeDegrees>43.33504046313464641571044921875</LatitudeDegrees>
              <LongitudeDegrees>-1.7858957313001155853271484375</LongitudeDegrees>
            </Position>
            <AltitudeMeters>9.3999996185302734375</AltitudeMeters>
            <DistanceMeters>NAN</DistanceMeters>
          </Trackpoint>
          <Trackpoint>
            <Time>2021-08-11T12:08:45.000Z</Time>
            <Position>
              <LatitudeDegrees>43.3350068517029285430908203125</LatitudeDegrees>
              <LongitudeDegrees>-1.78590017370879650115966796875</LongitudeDegrees>
            </Position>
            <AltitudeMeters>9.6000003814697265625</AltitudeMeters>
            <DistanceMeters>NAN</DistanceMeters>
          </Trackpoint>
          <Trackpoint>
            <Time>2021-08-11T12:08:46.000Z</Time>
            <Position>
              <LatitudeDegrees>43.33497005514800548553466796875</LatitudeDegrees>
              <LongitudeDegrees>-1.785905621945858001708984375</LongitudeDegrees>
            </Position>
            <AltitudeMeters>9.6000003814697265625</AltitudeMeters>
            <DistanceMeters>NAN</DistanceMeters>
          </Trackpoint>
          <Trackpoint>
            <Time>2021-08-11T12:08:51.000Z</Time>
            <Position>
              <LatitudeDegrees>43.33478162996470928192138671875</LatitudeDegrees>
              <LongitudeDegrees>-1.7859181948006153106689453125</LongitudeDegrees>
            </Position>
            <AltitudeMeters>10.19999980926513671875</AltitudeMeters>
            <DistanceMeters>NAN</DistanceMeters>
          </Trackpoint>
          <Trackpoint>
            <Time>2021-08-11T12:08:52.000Z</Time>
            <Position>
              <LatitudeDegrees>43.3347446657717227935791015625</LatitudeDegrees>
              <LongitudeDegrees>-1.78591911680996417999267578125</LongitudeDegrees>
            </Position>
            <AltitudeMeters>10.19999980926513671875</AltitudeMeters>
            <DistanceMeters>NAN</DistanceMeters>
          </Trackpoint>
          <Trackpoint>
            <Time>2021-08-11T12:08:59.000Z</Time>
            <Position>
              <LatitudeDegrees>43.33446085453033447265625</LatitudeDegrees>
              <LongitudeDegrees>-1.78589598275721073150634765625</LongitudeDegrees>
            </Position>
            <AltitudeMeters>10.6000003814697265625</AltitudeMeters>
            <DistanceMeters>NAN</DistanceMeters>
          </Trackpoint>
          <Trackpoint>
            <Time>2021-08-11T12:09:05.000Z</Time>
            <Position>
              <LatitudeDegrees>43.33424066193401813507080078125</LatitudeDegrees>
              <LongitudeDegrees>-1.78589011542499065399169921875</LongitudeDegrees>
            </Position>
            <AltitudeMeters>10.6000003814697265625</AltitudeMeters>
            <DistanceMeters>NAN</DistanceMeters>
          </Trackpoint>
          <Trackpoint>
            <Time>2021-08-11T12:09:10.000Z</Time>
            <Position>
              <LatitudeDegrees>43.33405525423586368560791015625</LatitudeDegrees>
              <LongitudeDegrees>-1.78586714901030063629150390625</LongitudeDegrees>
            </Position>
            <AltitudeMeters>11</AltitudeMeters>
            <DistanceMeters>NAN</DistanceMeters>
          </Trackpoint>
          <Trackpoint>
            <Time>2021-08-11T12:09:14.000Z</Time>
            <Position>
              <LatitudeDegrees>43.33391695283353328704833984375</LatitudeDegrees>
              <LongitudeDegrees>-1.78583026863634586334228515625</LongitudeDegrees>
            </Position>
            <AltitudeMeters>11.3999996185302734375</AltitudeMeters>
            <DistanceMeters>NAN</DistanceMeters>
          </Trackpoint>
          <Trackpoint>
            <Time>2021-08-11T12:09:15.000Z</Time>
            <Position>
              <LatitudeDegrees>43.33388225175440311431884765625</LatitudeDegrees>
              <LongitudeDegrees>-1.7858266644179821014404296875</LongitudeDegrees>
            </Position>
            <AltitudeMeters>11.6000003814697265625</AltitudeMeters>
            <DistanceMeters>NAN</DistanceMeters>
          </Trackpoint>
          <Trackpoint>
            <Time>2021-08-11T12:09:16.000Z</Time>
            <Position>
              <LatitudeDegrees>43.33384604193270206451416015625</LatitudeDegrees>
              <LongitudeDegrees>-1.78582993336021900177001953125</LongitudeDegrees>
            </Position>
            <AltitudeMeters>11.6000003814697265625</AltitudeMeters>
            <DistanceMeters>NAN</DistanceMeters>
          </Trackpoint>
          <Trackpoint>
            <Time>2021-08-11T12:09:17.000Z</Time>
            <Position>
              <LatitudeDegrees>43.333809413015842437744140625</LatitudeDegrees>
              <LongitudeDegrees>-1.78583630360662937164306640625</LongitudeDegrees>
            </Position>
            <AltitudeMeters>11.80000019073486328125</AltitudeMeters>
            <DistanceMeters>NAN</DistanceMeters>
          </Trackpoint>
          <Trackpoint>
            <Time>2021-08-11T12:09:18.000Z</Time>
            <Position>
              <LatitudeDegrees>43.333776891231536865234375</LatitudeDegrees>
              <LongitudeDegrees>-1.785853318870067596435546875</LongitudeDegrees>
            </Position>
            <AltitudeMeters>11.80000019073486328125</AltitudeMeters>
            <DistanceMeters>NAN</DistanceMeters>
          </Trackpoint>
          <Trackpoint>
            <Time>2021-08-11T12:09:19.000Z</Time>
            <Position>
              <LatitudeDegrees>43.33374931477010250091552734375</LatitudeDegrees>
              <LongitudeDegrees>-1.78588449954986572265625</LongitudeDegrees>
            </Position>
            <AltitudeMeters>12</AltitudeMeters>
            <DistanceMeters>NAN</DistanceMeters>
          </Trackpoint>
          <Trackpoint>
            <Time>2021-08-11T12:09:20.000Z</Time>
            <Position>
              <LatitudeDegrees>43.3337224088609218597412109375</LatitudeDegrees>
              <LongitudeDegrees>-1.78591425530612468719482421875</LongitudeDegrees>
            </Position>
            <AltitudeMeters>12.19999980926513671875</AltitudeMeters>
            <DistanceMeters>NAN</DistanceMeters>
          </Trackpoint>
          <Trackpoint>
            <Time>2021-08-11T12:09:21.000Z</Time>
            <Position>
              <LatitudeDegrees>43.3336945809423923492431640625</LatitudeDegrees>
              <LongitudeDegrees>-1.7859419994056224822998046875</LongitudeDegrees>
            </Position>
            <AltitudeMeters>12.3999996185302734375</AltitudeMeters>
            <DistanceMeters>NAN</DistanceMeters>
          </Trackpoint>
          <Trackpoint>
            <Time>2021-08-11T12:09:23.000Z</Time>
            <Position>
              <LatitudeDegrees>43.3336468040943145751953125</LatitudeDegrees>
              <LongitudeDegrees>-1.7860038578510284423828125</LongitudeDegrees>
            </Position>
            <AltitudeMeters>12.6000003814697265625</AltitudeMeters>
            <DistanceMeters>NAN</DistanceMeters>
          </Trackpoint>
          <Trackpoint>
            <Time>2021-08-11T12:09:24.000Z</Time>
            <Position>
              <LatitudeDegrees>43.3336312137544155120849609375</LatitudeDegrees>
              <LongitudeDegrees>-1.78604182787239551544189453125</LongitudeDegrees>
            </Position>
            <AltitudeMeters>12.6000003814697265625</AltitudeMeters>
            <DistanceMeters>NAN</DistanceMeters>
          </Trackpoint>
          <Trackpoint>
            <Time>2021-08-11T12:09:25.000Z</Time>
            <Position>
              <LatitudeDegrees>43.3336194790899753570556640625</LatitudeDegrees>
              <LongitudeDegrees>-1.786076612770557403564453125</LongitudeDegrees>
            </Position>
            <AltitudeMeters>12.80000019073486328125</AltitudeMeters>
            <DistanceMeters>NAN</DistanceMeters>
          </Trackpoint>
          <Trackpoint>
            <Time>2021-08-11T12:09:26.000Z</Time>
            <Position>
              <LatitudeDegrees>43.33361185155808925628662109375</LatitudeDegrees>
              <LongitudeDegrees>-1.78610452450811862945556640625</LongitudeDegrees>
            </Position>
            <AltitudeMeters>13</AltitudeMeters>
            <DistanceMeters>NAN</DistanceMeters>
          </Trackpoint>
          <Trackpoint>
            <Time>2021-08-11T12:09:27.000Z</Time>
            <Position>
              <LatitudeDegrees>43.33360833115875720977783203125</LatitudeDegrees>
              <LongitudeDegrees>-1.7861253954470157623291015625</LongitudeDegrees>
            </Position>
            <AltitudeMeters>13</AltitudeMeters>
            <DistanceMeters>NAN</DistanceMeters>
          </Trackpoint>
          <Trackpoint>
            <Time>2021-08-11T12:09:28.000Z</Time>
            <Position>
              <LatitudeDegrees>43.33360833115875720977783203125</LatitudeDegrees>
              <LongitudeDegrees>-1.78614006377756595611572265625</LongitudeDegrees>
            </Position>
            <AltitudeMeters>13.19999980926513671875</AltitudeMeters>
            <DistanceMeters>NAN</DistanceMeters>
          </Trackpoint>
          <Trackpoint>
            <Time>2021-08-11T12:09:29.000Z</Time>
            <Position>
              <LatitudeDegrees>43.3336087502539157867431640625</LatitudeDegrees>
              <LongitudeDegrees>-1.7861532233655452728271484375</LongitudeDegrees>
            </Position>
            <AltitudeMeters>13.19999980926513671875</AltitudeMeters>
            <DistanceMeters>NAN</DistanceMeters>
          </Trackpoint>
          <Trackpoint>
            <Time>2021-08-11T12:09:30.000Z</Time>
            <Position>
              <LatitudeDegrees>43.333608917891979217529296875</LatitudeDegrees>
              <LongitudeDegrees>-1.7861589230597019195556640625</LongitudeDegrees>
            </Position>
            <AltitudeMeters>13.19999980926513671875</AltitudeMeters>
            <DistanceMeters>NAN</DistanceMeters>
          </Trackpoint>
          <Trackpoint>
            <Time>2021-08-11T12:09:31.000Z</Time>
            <Position>
              <LatitudeDegrees>43.333608247339725494384765625</LatitudeDegrees>
              <LongitudeDegrees>-1.78617057390511035919189453125</LongitudeDegrees>
            </Position>
            <AltitudeMeters>13.19999980926513671875</AltitudeMeters>
            <DistanceMeters>NAN</DistanceMeters>
          </Trackpoint>
          <Trackpoint>
            <Time>2021-08-11T12:09:32.000Z</Time>
            <Position>
              <LatitudeDegrees>43.33360933698713779449462890625</LatitudeDegrees>
              <LongitudeDegrees>-1.78618297912180423736572265625</LongitudeDegrees>
            </Position>
            <AltitudeMeters>13.19999980926513671875</AltitudeMeters>
            <DistanceMeters>NAN</DistanceMeters>
          </Trackpoint>
          <Trackpoint>
            <Time>2021-08-11T12:09:33.000Z</Time>
            <Position>
              <LatitudeDegrees>43.33361118100583553314208984375</LatitudeDegrees>
              <LongitudeDegrees>-1.78619421087205410003662109375</LongitudeDegrees>
            </Position>
            <AltitudeMeters>13.19999980926513671875</AltitudeMeters>
            <DistanceMeters>NAN</DistanceMeters>
          </Trackpoint>
          <Trackpoint>
            <Time>2021-08-11T12:09:34.000Z</Time>
            <Position>
              <LatitudeDegrees>43.33362107165157794952392578125</LatitudeDegrees>
              <LongitudeDegrees>-1.78620208986103534698486328125</LongitudeDegrees>
            </Position>
            <AltitudeMeters>13.19999980926513671875</AltitudeMeters>
            <DistanceMeters>NAN</DistanceMeters>
          </Trackpoint>
          <Trackpoint>
            <Time>2021-08-11T12:09:35.000Z</Time>
            <Position>
              <LatitudeDegrees>43.3336392603814601898193359375</LatitudeDegrees>
              <LongitudeDegrees>-1.78620259277522563934326171875</LongitudeDegrees>
            </Position>
            <AltitudeMeters>13.3999996185302734375</AltitudeMeters>
            <DistanceMeters>NAN</DistanceMeters>
          </Trackpoint>
          <Trackpoint>
            <Time>2021-08-11T12:09:37.000Z</Time>
            <Position>
              <LatitudeDegrees>43.3336872048676013946533203125</LatitudeDegrees>
              <LongitudeDegrees>-1.7861894331872463226318359375</LongitudeDegrees>
            </Position>
            <AltitudeMeters>13.3999996185302734375</AltitudeMeters>
            <DistanceMeters>NAN</DistanceMeters>
          </Trackpoint>
          <Trackpoint>
            <Time>2021-08-11T12:09:38.000Z</Time>
            <Position>
              <LatitudeDegrees>43.33370648324489593505859375</LatitudeDegrees>
              <LongitudeDegrees>-1.786198653280735015869140625</LongitudeDegrees>
            </Position>
            <AltitudeMeters>13.3999996185302734375</AltitudeMeters>
            <DistanceMeters>NAN</DistanceMeters>
          </Trackpoint>
          <Trackpoint>
            <Time>2021-08-11T12:09:39.000Z</Time>
            <Position>
              <LatitudeDegrees>43.33371813409030437469482421875</LatitudeDegrees>
              <LongitudeDegrees>-1.78622036240994930267333984375</LongitudeDegrees>
            </Position>
            <AltitudeMeters>13.3999996185302734375</AltitudeMeters>
            <DistanceMeters>NAN</DistanceMeters>
          </Trackpoint>
          <Trackpoint>
            <Time>2021-08-11T12:09:40.000Z</Time>
            <Position>
              <LatitudeDegrees>43.3337203972041606903076171875</LatitudeDegrees>
              <LongitudeDegrees>-1.78624919615685939788818359375</LongitudeDegrees>
            </Position>
            <AltitudeMeters>13.3999996185302734375</AltitudeMeters>
            <DistanceMeters>NAN</DistanceMeters>
          </Trackpoint>
          <Trackpoint>
            <Time>2021-08-11T12:09:41.000Z</Time>
            <Position>
              <LatitudeDegrees>43.3337187208235263824462890625</LatitudeDegrees>
              <LongitudeDegrees>-1.78627677261829376220703125</LongitudeDegrees>
            </Position>
            <AltitudeMeters>13.3999996185302734375</AltitudeMeters>
            <DistanceMeters>NAN</DistanceMeters>
          </Trackpoint>
          <Trackpoint>
            <Time>2021-08-11T12:09:42.000Z</Time>
            <Position>
              <LatitudeDegrees>43.33371989428997039794921875</LatitudeDegrees>
              <LongitudeDegrees>-1.786299906671047210693359375</LongitudeDegrees>
            </Position>
            <AltitudeMeters>13.19999980926513671875</AltitudeMeters>
            <DistanceMeters>NAN</DistanceMeters>
          </Trackpoint>
          <Trackpoint>
            <Time>2021-08-11T12:09:44.000Z</Time>
            <Position>
              <LatitudeDegrees>43.333718217909336090087890625</LatitudeDegrees>
              <LongitudeDegrees>-1.78633837960660457611083984375</LongitudeDegrees>
            </Position>
            <AltitudeMeters>13.19999980926513671875</AltitudeMeters>
            <DistanceMeters>NAN</DistanceMeters>
          </Trackpoint>
          <Trackpoint>
            <Time>2021-08-11T12:09:45.000Z</Time>
            <Position>
              <LatitudeDegrees>43.33371721208095550537109375</LatitudeDegrees>
              <LongitudeDegrees>-1.78635614924132823944091796875</LongitudeDegrees>
            </Position>
            <AltitudeMeters>13.19999980926513671875</AltitudeMeters>
            <DistanceMeters>NAN</DistanceMeters>
          </Trackpoint>
          <Trackpoint>
            <Time>2021-08-11T12:09:46.000Z</Time>
            <Position>
              <LatitudeDegrees>43.33371327258646488189697265625</LatitudeDegrees>
              <LongitudeDegrees>-1.78637442179024219512939453125</LongitudeDegrees>
            </Position>
            <AltitudeMeters>13.19999980926513671875</AltitudeMeters>
            <DistanceMeters>NAN</DistanceMeters>
          </Trackpoint>
          <Trackpoint>
            <Time>2021-08-11T12:09:47.000Z</Time>
            <Position>
              <LatitudeDegrees>43.33371159620583057403564453125</LatitudeDegrees>
              <LongitudeDegrees>-1.786393783986568450927734375</LongitudeDegrees>
            </Position>
            <AltitudeMeters>13.19999980926513671875</AltitudeMeters>
            <DistanceMeters>NAN</DistanceMeters>
          </Trackpoint>
          <Trackpoint>
            <Time>2021-08-11T12:09:48.000Z</Time>
            <Position>
              <LatitudeDegrees>43.33371008746325969696044921875</LatitudeDegrees>
              <LongitudeDegrees>-1.7864127270877361297607421875</LongitudeDegrees>
            </Position>
            <AltitudeMeters>13.19999980926513671875</AltitudeMeters>
            <DistanceMeters>NAN</DistanceMeters>
          </Trackpoint>
          <Trackpoint>
            <Time>2021-08-11T12:09:49.000Z</Time>
            <Position>
              <LatitudeDegrees>43.3337046392261981964111328125</LatitudeDegrees>
              <LongitudeDegrees>-1.78643661551177501678466796875</LongitudeDegrees>
            </Position>
            <AltitudeMeters>13.19999980926513671875</AltitudeMeters>
            <DistanceMeters>NAN</DistanceMeters>
          </Trackpoint>
          <Trackpoint>
            <Time>2021-08-11T12:09:50.000Z</Time>
            <Position>
              <LatitudeDegrees>43.33369919098913669586181640625</LatitudeDegrees>
              <LongitudeDegrees>-1.7864636890590190887451171875</LongitudeDegrees>
            </Position>
            <AltitudeMeters>13.19999980926513671875</AltitudeMeters>
            <DistanceMeters>NAN</DistanceMeters>
          </Trackpoint>
          <Trackpoint>
            <Time>2021-08-11T12:09:54.000Z</Time>
            <Position>
              <LatitudeDegrees>43.333690725266933441162109375</LatitudeDegrees>
              <LongitudeDegrees>-1.786602996289730072021484375</LongitudeDegrees>
            </Position>
            <AltitudeMeters>13.19999980926513671875</AltitudeMeters>
            <DistanceMeters>NAN</DistanceMeters>
          </Trackpoint>
          <Trackpoint>
            <Time>2021-08-11T12:09:56.000Z</Time>
            <Position>
              <LatitudeDegrees>43.33368661813437938690185546875</LatitudeDegrees>
              <LongitudeDegrees>-1.78667969070374965667724609375</LongitudeDegrees>
            </Position>
            <AltitudeMeters>13.19999980926513671875</AltitudeMeters>
            <DistanceMeters>NAN</DistanceMeters>
          </Trackpoint>
          <Trackpoint>
            <Time>2021-08-11T12:10:00.000Z</Time>
            <Position>
              <LatitudeDegrees>43.33367454819381237030029296875</LatitudeDegrees>
              <LongitudeDegrees>-1.78685587830841541290283203125</LongitudeDegrees>
            </Position>
            <AltitudeMeters>13</AltitudeMeters>
            <DistanceMeters>NAN</DistanceMeters>
          </Trackpoint>
          <Trackpoint>
            <Time>2021-08-11T12:10:09.000Z</Time>
            <Position>
              <LatitudeDegrees>43.3336533419787883758544921875</LatitudeDegrees>
              <LongitudeDegrees>-1.78727229125797748565673828125</LongitudeDegrees>
            </Position>
            <AltitudeMeters>12.80000019073486328125</AltitudeMeters>
            <DistanceMeters>NAN</DistanceMeters>
          </Trackpoint>
          <Trackpoint>
            <Time>2021-08-11T12:10:10.000Z</Time>
            <Position>
              <LatitudeDegrees>43.3336516655981540679931640625</LatitudeDegrees>
              <LongitudeDegrees>-1.78731503896415233612060546875</LongitudeDegrees>
            </Position>
            <AltitudeMeters>12.6000003814697265625</AltitudeMeters>
            <DistanceMeters>NAN</DistanceMeters>
          </Trackpoint>
          <Trackpoint>
            <Time>2021-08-11T12:10:12.000Z</Time>
            <Position>
              <LatitudeDegrees>43.33364772610366344451904296875</LatitudeDegrees>
              <LongitudeDegrees>-1.7873984389007091522216796875</LongitudeDegrees>
            </Position>
            <AltitudeMeters>12.6000003814697265625</AltitudeMeters>
            <DistanceMeters>NAN</DistanceMeters>
          </Trackpoint>
          <Trackpoint>
            <Time>2021-08-11T12:10:13.000Z</Time>
            <Position>
              <LatitudeDegrees>43.3336479775607585906982421875</LatitudeDegrees>
              <LongitudeDegrees>-1.78743942640721797943115234375</LongitudeDegrees>
            </Position>
            <AltitudeMeters>12.6000003814697265625</AltitudeMeters>
            <DistanceMeters>NAN</DistanceMeters>
          </Trackpoint>
          <Trackpoint>
            <Time>2021-08-11T12:10:14.000Z</Time>
            <Position>
              <LatitudeDegrees>43.33364747464656829833984375</LatitudeDegrees>
              <LongitudeDegrees>-1.78747664205729961395263671875</LongitudeDegrees>
            </Position>
            <AltitudeMeters>12.6000003814697265625</AltitudeMeters>
            <DistanceMeters>NAN</DistanceMeters>
          </Trackpoint>
          <Trackpoint>
            <Time>2021-08-11T12:10:15.000Z</Time>
            <Position>
              <LatitudeDegrees>43.3336494863033294677734375</LatitudeDegrees>
              <LongitudeDegrees>-1.78751192986965179443359375</LongitudeDegrees>
            </Position>
            <AltitudeMeters>12.6000003814697265625</AltitudeMeters>
            <DistanceMeters>NAN</DistanceMeters>
          </Trackpoint>
          <Trackpoint>
            <Time>2021-08-11T12:10:16.000Z</Time>
            <Position>
              <LatitudeDegrees>43.33365309052169322967529296875</LatitudeDegrees>
              <LongitudeDegrees>-1.78753967396914958953857421875</LongitudeDegrees>
            </Position>
            <AltitudeMeters>12.6000003814697265625</AltitudeMeters>
            <DistanceMeters>NAN</DistanceMeters>
          </Trackpoint>
          <Trackpoint>
            <Time>2021-08-11T12:10:17.000Z</Time>
            <Position>
              <LatitudeDegrees>43.33365627564489841461181640625</LatitudeDegrees>
              <LongitudeDegrees>-1.78756280802190303802490234375</LongitudeDegrees>
            </Position>
            <AltitudeMeters>12.3999996185302734375</AltitudeMeters>
            <DistanceMeters>NAN</DistanceMeters>
          </Trackpoint>
          <Trackpoint>
            <Time>2021-08-11T12:10:18.000Z</Time>
            <Position>
              <LatitudeDegrees>43.3336577005684375762939453125</LatitudeDegrees>
              <LongitudeDegrees>-1.7875863611698150634765625</LongitudeDegrees>
            </Position>
            <AltitudeMeters>12.3999996185302734375</AltitudeMeters>
            <DistanceMeters>NAN</DistanceMeters>
          </Trackpoint>
          <Trackpoint>
            <Time>2021-08-11T12:10:19.000Z</Time>
            <Position>
              <LatitudeDegrees>43.33365962840616703033447265625</LatitudeDegrees>
              <LongitudeDegrees>-1.78761226125061511993408203125</LongitudeDegrees>
            </Position>
            <AltitudeMeters>12.19999980926513671875</AltitudeMeters>
            <DistanceMeters>NAN</DistanceMeters>
          </Trackpoint>
          <Trackpoint>
            <Time>2021-08-11T12:10:21.000Z</Time>
            <Position>
              <LatitudeDegrees>43.33366130478680133819580078125</LatitudeDegrees>
              <LongitudeDegrees>-1.7876720242202281951904296875</LongitudeDegrees>
            </Position>
            <AltitudeMeters>12.19999980926513671875</AltitudeMeters>
            <DistanceMeters>NAN</DistanceMeters>
          </Trackpoint>
          <Trackpoint>
            <Time>2021-08-11T12:10:24.000Z</Time>
            <Position>
              <LatitudeDegrees>43.3336597122251987457275390625</LatitudeDegrees>
              <LongitudeDegrees>-1.78776263259351253509521484375</LongitudeDegrees>
            </Position>
            <AltitudeMeters>12</AltitudeMeters>
            <DistanceMeters>NAN</DistanceMeters>
          </Trackpoint>
          <Trackpoint>
            <Time>2021-08-11T12:10:25.000Z</Time>
            <Position>
              <LatitudeDegrees>43.33365594036877155303955078125</LatitudeDegrees>
              <LongitudeDegrees>-1.7877813242375850677490234375</LongitudeDegrees>
            </Position>
            <AltitudeMeters>12</AltitudeMeters>
            <DistanceMeters>NAN</DistanceMeters>
          </Trackpoint>
          <Trackpoint>
            <Time>2021-08-11T12:10:26.000Z</Time>
            <Position>
              <LatitudeDegrees>43.33365007303655147552490234375</LatitudeDegrees>
              <LongitudeDegrees>-1.78779733367264270782470703125</LongitudeDegrees>
            </Position>
            <AltitudeMeters>11.80000019073486328125</AltitudeMeters>
            <DistanceMeters>NAN</DistanceMeters>
          </Trackpoint>
          <Trackpoint>
            <Time>2021-08-11T12:10:27.000Z</Time>
            <Position>
              <LatitudeDegrees>43.3336402662098407745361328125</LatitudeDegrees>
              <LongitudeDegrees>-1.7878114990890026092529296875</LongitudeDegrees>
            </Position>
            <AltitudeMeters>11.80000019073486328125</AltitudeMeters>
            <DistanceMeters>NAN</DistanceMeters>
          </Trackpoint>
          <Trackpoint>
            <Time>2021-08-11T12:10:28.000Z</Time>
            <Position>
              <LatitudeDegrees>43.33363112993538379669189453125</LatitudeDegrees>
              <LongitudeDegrees>-1.78782063536345958709716796875</LongitudeDegrees>
            </Position>
            <AltitudeMeters>11.80000019073486328125</AltitudeMeters>
            <DistanceMeters>NAN</DistanceMeters>
          </Trackpoint>
          <Trackpoint>
            <Time>2021-08-11T12:10:29.000Z</Time>
            <Position>
              <LatitudeDegrees>43.33362408913671970367431640625</LatitudeDegrees>
              <LongitudeDegrees>-1.78782247938215732574462890625</LongitudeDegrees>
            </Position>
            <AltitudeMeters>11.80000019073486328125</AltitudeMeters>
            <DistanceMeters>NAN</DistanceMeters>
          </Trackpoint>
          <Trackpoint>
            <Time>2021-08-11T12:10:30.000Z</Time>
            <Position>
              <LatitudeDegrees>43.3336226642131805419921875</LatitudeDegrees>
              <LongitudeDegrees>-1.787822060286998748779296875</LongitudeDegrees>
            </Position>
            <AltitudeMeters>11.80000019073486328125</AltitudeMeters>
            <DistanceMeters>NAN</DistanceMeters>
          </Trackpoint>
          <Trackpoint>
            <Time>2021-08-11T12:10:35.000Z</Time>
            <Position>
              <LatitudeDegrees>43.33361486904323101043701171875</LatitudeDegrees>
              <LongitudeDegrees>-1.78782784380018711090087890625</LongitudeDegrees>
            </Position>
            <AltitudeMeters>11.80000019073486328125</AltitudeMeters>
            <DistanceMeters>NAN</DistanceMeters>
          </Trackpoint>
          <Trackpoint>
            <Time>2021-08-11T12:10:39.000Z</Time>
            <Position>
              <LatitudeDegrees>43.333539180457592010498046875</LatitudeDegrees>
              <LongitudeDegrees>-1.78781460039317607879638671875</LongitudeDegrees>
            </Position>
            <AltitudeMeters>11.80000019073486328125</AltitudeMeters>
            <DistanceMeters>NAN</DistanceMeters>
          </Trackpoint>
          <Trackpoint>
            <Time>2021-08-11T12:10:40.000Z</Time>
            <Position>
              <LatitudeDegrees>43.33351730369031429290771484375</LatitudeDegrees>
              <LongitudeDegrees>-1.78779716603457927703857421875</LongitudeDegrees>
            </Position>
            <AltitudeMeters>11.80000019073486328125</AltitudeMeters>
            <DistanceMeters>NAN</DistanceMeters>
          </Trackpoint>
          <Trackpoint>
            <Time>2021-08-11T12:10:41.000Z</Time>
            <Position>
              <LatitudeDegrees>43.33349450491368770599365234375</LatitudeDegrees>
              <LongitudeDegrees>-1.78778350353240966796875</LongitudeDegrees>
            </Position>
            <AltitudeMeters>12</AltitudeMeters>
            <DistanceMeters>NAN</DistanceMeters>
          </Trackpoint>
          <Trackpoint>
            <Time>2021-08-11T12:10:44.000Z</Time>
            <Position>
              <LatitudeDegrees>43.3334199897944927215576171875</LatitudeDegrees>
              <LongitudeDegrees>-1.787774451076984405517578125</LongitudeDegrees>
            </Position>
            <AltitudeMeters>12</AltitudeMeters>
            <DistanceMeters>NAN</DistanceMeters>
          </Trackpoint>
          <Trackpoint>
            <Time>2021-08-11T12:10:45.000Z</Time>
            <Position>
              <LatitudeDegrees>43.33339408971369266510009765625</LatitudeDegrees>
              <LongitudeDegrees>-1.78777436725795269012451171875</LongitudeDegrees>
            </Position>
            <AltitudeMeters>12</AltitudeMeters>
            <DistanceMeters>NAN</DistanceMeters>
          </Trackpoint>
          <Trackpoint>
            <Time>2021-08-11T12:10:46.000Z</Time>
            <Position>
              <LatitudeDegrees>43.33336852490901947021484375</LatitudeDegrees>
              <LongitudeDegrees>-1.78778358735144138336181640625</LongitudeDegrees>
            </Position>
            <AltitudeMeters>12.19999980926513671875</AltitudeMeters>
            <DistanceMeters>NAN</DistanceMeters>
          </Trackpoint>
          <Trackpoint>
            <Time>2021-08-11T12:10:47.000Z</Time>
            <Position>
              <LatitudeDegrees>43.3333438821136951446533203125</LatitudeDegrees>
              <LongitudeDegrees>-1.7877930589020252227783203125</LongitudeDegrees>
            </Position>
            <AltitudeMeters>12.19999980926513671875</AltitudeMeters>
            <DistanceMeters>NAN</DistanceMeters>
          </Trackpoint>
          <Trackpoint>
            <Time>2021-08-11T12:10:50.000Z</Time>
            <Position>
              <LatitudeDegrees>43.33327137865126132965087890625</LatitudeDegrees>
              <LongitudeDegrees>-1.7878245748579502105712890625</LongitudeDegrees>
            </Position>
            <AltitudeMeters>12.3999996185302734375</AltitudeMeters>
            <DistanceMeters>NAN</DistanceMeters>
          </Trackpoint>
          <Trackpoint>
            <Time>2021-08-11T12:11:00.000Z</Time>
            <Position>
              <LatitudeDegrees>43.33306216634809970855712890625</LatitudeDegrees>
              <LongitudeDegrees>-1.7880170233547687530517578125</LongitudeDegrees>
            </Position>
            <AltitudeMeters>13</AltitudeMeters>
            <DistanceMeters>NAN</DistanceMeters>
          </Trackpoint>
          <Trackpoint>
            <Time>2021-08-11T12:11:03.000Z</Time>
            <Position>
              <LatitudeDegrees>43.33300508558750152587890625</LatitudeDegrees>
              <LongitudeDegrees>-1.788098998367786407470703125</LongitudeDegrees>
            </Position>
            <AltitudeMeters>13.19999980926513671875</AltitudeMeters>
            <DistanceMeters>NAN</DistanceMeters>
          </Trackpoint>
          <Trackpoint>
            <Time>2021-08-11T12:11:07.000Z</Time>
            <Position>
              <LatitudeDegrees>43.33294339478015899658203125</LatitudeDegrees>
              <LongitudeDegrees>-1.788206957280635833740234375</LongitudeDegrees>
            </Position>
            <AltitudeMeters>13.3999996185302734375</AltitudeMeters>
            <DistanceMeters>NAN</DistanceMeters>
          </Trackpoint>
          <Trackpoint>
            <Time>2021-08-11T12:11:08.000Z</Time>
            <Position>
              <LatitudeDegrees>43.33292956463992595672607421875</LatitudeDegrees>
              <LongitudeDegrees>-1.78823637776076793670654296875</LongitudeDegrees>
            </Position>
            <AltitudeMeters>13.3999996185302734375</AltitudeMeters>
            <DistanceMeters>NAN</DistanceMeters>
          </Trackpoint>
          <Trackpoint>
            <Time>2021-08-11T12:11:09.000Z</Time>
            <Position>
              <LatitudeDegrees>43.33291531540453433990478515625</LatitudeDegrees>
              <LongitudeDegrees>-1.78826185874640941619873046875</LongitudeDegrees>
            </Position>
            <AltitudeMeters>13.6000003814697265625</AltitudeMeters>
            <DistanceMeters>NAN</DistanceMeters>
          </Trackpoint>
          <Trackpoint>
            <Time>2021-08-11T12:11:10.000Z</Time>
            <Position>
              <LatitudeDegrees>43.3329013176262378692626953125</LatitudeDegrees>
              <LongitudeDegrees>-1.78828633390367031097412109375</LongitudeDegrees>
            </Position>
            <AltitudeMeters>13.6000003814697265625</AltitudeMeters>
            <DistanceMeters>NAN</DistanceMeters>
          </Trackpoint>
          <Trackpoint>
            <Time>2021-08-11T12:11:11.000Z</Time>
            <Position>
              <LatitudeDegrees>43.33288849331438541412353515625</LatitudeDegrees>
              <LongitudeDegrees>-1.78831013850867748260498046875</LongitudeDegrees>
            </Position>
            <AltitudeMeters>13.80000019073486328125</AltitudeMeters>
            <DistanceMeters>NAN</DistanceMeters>
          </Trackpoint>
          <Trackpoint>
            <Time>2021-08-11T12:11:12.000Z</Time>
            <Position>
              <LatitudeDegrees>43.3328770101070404052734375</LatitudeDegrees>
              <LongitudeDegrees>-1.78833746351301670074462890625</LongitudeDegrees>
            </Position>
            <AltitudeMeters>13.80000019073486328125</AltitudeMeters>
            <DistanceMeters>NAN</DistanceMeters>
          </Trackpoint>
          <Trackpoint>
            <Time>2021-08-11T12:11:16.000Z</Time>
            <Position>
              <LatitudeDegrees>43.3328386209905147552490234375</LatitudeDegrees>
              <LongitudeDegrees>-1.78845648653805255889892578125</LongitudeDegrees>
            </Position>
            <AltitudeMeters>14</AltitudeMeters>
            <DistanceMeters>NAN</DistanceMeters>
          </Trackpoint>
          <Trackpoint>
            <Time>2021-08-11T12:11:17.000Z</Time>
            <Position>
              <LatitudeDegrees>43.3328295685350894927978515625</LatitudeDegrees>
              <LongitudeDegrees>-1.78848900832235813140869140625</LongitudeDegrees>
            </Position>
            <AltitudeMeters>14</AltitudeMeters>
            <DistanceMeters>NAN</DistanceMeters>
          </Trackpoint>
          <Trackpoint>
            <Time>2021-08-11T12:11:18.000Z</Time>
            <Position>
              <LatitudeDegrees>43.332827389240264892578125</LatitudeDegrees>
              <LongitudeDegrees>-1.78851733915507793426513671875</LongitudeDegrees>
            </Position>
            <AltitudeMeters>14</AltitudeMeters>
            <DistanceMeters>NAN</DistanceMeters>
          </Trackpoint>
          <Trackpoint>
            <Time>2021-08-11T12:11:19.000Z</Time>
            <Position>
              <LatitudeDegrees>43.33282512612640857696533203125</LatitudeDegrees>
              <LongitudeDegrees>-1.7885412275791168212890625</LongitudeDegrees>
            </Position>
            <AltitudeMeters>14</AltitudeMeters>
            <DistanceMeters>NAN</DistanceMeters>
          </Trackpoint>
          <Trackpoint>
            <Time>2021-08-11T12:11:20.000Z</Time>
            <Position>
              <LatitudeDegrees>43.33281205035746097564697265625</LatitudeDegrees>
              <LongitudeDegrees>-1.7885595001280307769775390625</LongitudeDegrees>
            </Position>
            <AltitudeMeters>14</AltitudeMeters>
            <DistanceMeters>NAN</DistanceMeters>
          </Trackpoint>
          <Trackpoint>
            <Time>2021-08-11T12:11:21.000Z</Time>
            <Position>
              <LatitudeDegrees>43.3327953703701496124267578125</LatitudeDegrees>
              <LongitudeDegrees>-1.78857131861150264739990234375</LongitudeDegrees>
            </Position>
            <AltitudeMeters>14</AltitudeMeters>
            <DistanceMeters>NAN</DistanceMeters>
          </Trackpoint>
          <Trackpoint>
            <Time>2021-08-11T12:11:22.000Z</Time>
            <Position>
              <LatitudeDegrees>43.33277969621121883392333984375</LatitudeDegrees>
              <LongitudeDegrees>-1.788575761020183563232421875</LongitudeDegrees>
            </Position>
            <AltitudeMeters>14.19999980926513671875</AltitudeMeters>
            <DistanceMeters>NAN</DistanceMeters>
          </Trackpoint>
          <Trackpoint>
            <Time>2021-08-11T12:11:23.000Z</Time>
            <Position>
              <LatitudeDegrees>43.3327641896903514862060546875</LatitudeDegrees>
              <LongitudeDegrees>-1.78857618011534214019775390625</LongitudeDegrees>
            </Position>
            <AltitudeMeters>14.19999980926513671875</AltitudeMeters>
            <DistanceMeters>NAN</DistanceMeters>
          </Trackpoint>
          <Trackpoint>
            <Time>2021-08-11T12:11:24.000Z</Time>
            <Position>
              <LatitudeDegrees>43.33274616859853267669677734375</LatitudeDegrees>
              <LongitudeDegrees>-1.7885819636285305023193359375</LongitudeDegrees>
            </Position>
            <AltitudeMeters>14.19999980926513671875</AltitudeMeters>
            <DistanceMeters>NAN</DistanceMeters>
          </Trackpoint>
          <Trackpoint>
            <Time>2021-08-11T12:11:25.000Z</Time>
            <Position>
              <LatitudeDegrees>43.33272906951606273651123046875</LatitudeDegrees>
              <LongitudeDegrees>-1.78859151899814605712890625</LongitudeDegrees>
            </Position>
            <AltitudeMeters>14.19999980926513671875</AltitudeMeters>
            <DistanceMeters>NAN</DistanceMeters>
          </Trackpoint>
          <Trackpoint>
            <Time>2021-08-11T12:11:26.000Z</Time>
            <Position>
              <LatitudeDegrees>43.33271808922290802001953125</LatitudeDegrees>
              <LongitudeDegrees>-1.78860786370933055877685546875</LongitudeDegrees>
            </Position>
            <AltitudeMeters>14.3999996185302734375</AltitudeMeters>
            <DistanceMeters>NAN</DistanceMeters>
          </Trackpoint>
          <Trackpoint>
            <Time>2021-08-11T12:11:27.000Z</Time>
            <Position>
              <LatitudeDegrees>43.3327080309391021728515625</LatitudeDegrees>
              <LongitudeDegrees>-1.78862831555306911468505859375</LongitudeDegrees>
            </Position>
            <AltitudeMeters>14.3999996185302734375</AltitudeMeters>
            <DistanceMeters>NAN</DistanceMeters>
          </Trackpoint>
          <Trackpoint>
            <Time>2021-08-11T12:11:28.000Z</Time>
            <Position>
              <LatitudeDegrees>43.3326947875320911407470703125</LatitudeDegrees>
              <LongitudeDegrees>-1.788647510111331939697265625</LongitudeDegrees>
            </Position>
            <AltitudeMeters>14.3999996185302734375</AltitudeMeters>
            <DistanceMeters>NAN</DistanceMeters>
          </Trackpoint>
          <Trackpoint>
            <Time>2021-08-11T12:11:29.000Z</Time>
            <Position>
              <LatitudeDegrees>43.33267626352608203887939453125</LatitudeDegrees>
              <LongitudeDegrees>-1.7886627651751041412353515625</LongitudeDegrees>
            </Position>
            <AltitudeMeters>14.3999996185302734375</AltitudeMeters>
            <DistanceMeters>NAN</DistanceMeters>
          </Trackpoint>
          <Trackpoint>
            <Time>2021-08-11T12:11:31.000Z</Time>
            <Position>
              <LatitudeDegrees>43.332629241049289703369140625</LatitudeDegrees>
              <LongitudeDegrees>-1.78866930305957794189453125</LongitudeDegrees>
            </Position>
            <AltitudeMeters>14.3999996185302734375</AltitudeMeters>
            <DistanceMeters>NAN</DistanceMeters>
          </Trackpoint>
          <Trackpoint>
            <Time>2021-08-11T12:11:32.000Z</Time>
            <Position>
              <LatitudeDegrees>43.33260635845363140106201171875</LatitudeDegrees>
              <LongitudeDegrees>-1.78866670466959476470947265625</LongitudeDegrees>
            </Position>
            <AltitudeMeters>14.6000003814697265625</AltitudeMeters>
            <DistanceMeters>NAN</DistanceMeters>
          </Trackpoint>
          <Trackpoint>
            <Time>2021-08-11T12:11:33.000Z</Time>
            <Position>
              <LatitudeDegrees>43.3325831405818462371826171875</LatitudeDegrees>
              <LongitudeDegrees>-1.78866754285991191864013671875</LongitudeDegrees>
            </Position>
            <AltitudeMeters>14.6000003814697265625</AltitudeMeters>
            <DistanceMeters>NAN</DistanceMeters>
          </Trackpoint>
          <Trackpoint>
            <Time>2021-08-11T12:11:38.000Z</Time>
            <Position>
              <LatitudeDegrees>43.3324765227735042572021484375</LatitudeDegrees>
              <LongitudeDegrees>-1.78867466747760772705078125</LongitudeDegrees>
            </Position>
            <AltitudeMeters>15.19999980926513671875</AltitudeMeters>
            <DistanceMeters>NAN</DistanceMeters>
          </Trackpoint>
          <Trackpoint>
            <Time>2021-08-11T12:11:41.000Z</Time>
            <Position>
              <LatitudeDegrees>43.33240452222526073455810546875</LatitudeDegrees>
              <LongitudeDegrees>-1.78869503550231456756591796875</LongitudeDegrees>
            </Position>
            <AltitudeMeters>15.19999980926513671875</AltitudeMeters>
            <DistanceMeters>NAN</DistanceMeters>
          </Trackpoint>
          <Trackpoint>
            <Time>2021-08-11T12:11:42.000Z</Time>
            <Position>
              <LatitudeDegrees>43.33238155581057071685791015625</LatitudeDegrees>
              <LongitudeDegrees>-1.78870542906224727630615234375</LongitudeDegrees>
            </Position>
            <AltitudeMeters>15.6000003814697265625</AltitudeMeters>
            <DistanceMeters>NAN</DistanceMeters>
          </Trackpoint>
          <Trackpoint>
            <Time>2021-08-11T12:11:47.000Z</Time>
            <Position>
              <LatitudeDegrees>43.33227192051708698272705078125</LatitudeDegrees>
              <LongitudeDegrees>-1.78876745514571666717529296875</LongitudeDegrees>
            </Position>
            <AltitudeMeters>16.200000762939453125</AltitudeMeters>
            <DistanceMeters>NAN</DistanceMeters>
          </Trackpoint>
          <Trackpoint>
            <Time>2021-08-11T12:11:54.000Z</Time>
            <Position>
              <LatitudeDegrees>43.3321181125938892364501953125</LatitudeDegrees>
              <LongitudeDegrees>-1.7888920940458774566650390625</LongitudeDegrees>
            </Position>
            <AltitudeMeters>17.3999996185302734375</AltitudeMeters>
            <DistanceMeters>NAN</DistanceMeters>
          </Trackpoint>
          <Trackpoint>
            <Time>2021-08-11T12:11:55.000Z</Time>
            <Position>
              <LatitudeDegrees>43.33209170959889888763427734375</LatitudeDegrees>
              <LongitudeDegrees>-1.78890475071966648101806640625</LongitudeDegrees>
            </Position>
            <AltitudeMeters>17.6000003814697265625</AltitudeMeters>
            <DistanceMeters>NAN</DistanceMeters>
          </Trackpoint>
          <Trackpoint>
            <Time>2021-08-11T12:11:56.000Z</Time>
            <Position>
              <LatitudeDegrees>43.3320631273090839385986328125</LatitudeDegrees>
              <LongitudeDegrees>-1.7889185808598995208740234375</LongitudeDegrees>
            </Position>
            <AltitudeMeters>17.6000003814697265625</AltitudeMeters>
            <DistanceMeters>NAN</DistanceMeters>
          </Trackpoint>
          <Trackpoint>
            <Time>2021-08-11T12:11:57.000Z</Time>
            <Position>
              <LatitudeDegrees>43.33204041235148906707763671875</LatitudeDegrees>
              <LongitudeDegrees>-1.7889326624572277069091796875</LongitudeDegrees>
            </Position>
            <AltitudeMeters>17.799999237060546875</AltitudeMeters>
            <DistanceMeters>NAN</DistanceMeters>
          </Trackpoint>
          <Trackpoint>
            <Time>2021-08-11T12:11:58.000Z</Time>
            <Position>
              <LatitudeDegrees>43.33201325498521327972412109375</LatitudeDegrees>
              <LongitudeDegrees>-1.78894682787358760833740234375</LongitudeDegrees>
            </Position>
            <AltitudeMeters>18</AltitudeMeters>
            <DistanceMeters>NAN</DistanceMeters>
          </Trackpoint>
          <Trackpoint>
            <Time>2021-08-11T12:11:59.000Z</Time>
            <Position>
              <LatitudeDegrees>43.3319930545985698699951171875</LatitudeDegrees>
              <LongitudeDegrees>-1.78895588032901287078857421875</LongitudeDegrees>
            </Position>
            <AltitudeMeters>18.200000762939453125</AltitudeMeters>
            <DistanceMeters>NAN</DistanceMeters>
          </Trackpoint>
          <Trackpoint>
            <Time>2021-08-11T12:12:00.000Z</Time>
            <Position>
              <LatitudeDegrees>43.33196732215583324432373046875</LatitudeDegrees>
              <LongitudeDegrees>-1.7889708839356899261474609375</LongitudeDegrees>
            </Position>
            <AltitudeMeters>18.3999996185302734375</AltitudeMeters>
            <DistanceMeters>NAN</DistanceMeters>
          </Trackpoint>
          <Trackpoint>
            <Time>2021-08-11T12:12:01.000Z</Time>
            <Position>
              <LatitudeDegrees>43.33193966187536716461181640625</LatitudeDegrees>
              <LongitudeDegrees>-1.78898085840046405792236328125</LongitudeDegrees>
            </Position>
            <AltitudeMeters>18.799999237060546875</AltitudeMeters>
            <DistanceMeters>NAN</DistanceMeters>
          </Trackpoint>
          <Trackpoint>
            <Time>2021-08-11T12:12:02.000Z</Time>
            <Position>
              <LatitudeDegrees>43.3319166116416454315185546875</LatitudeDegrees>
              <LongitudeDegrees>-1.7889945209026336669921875</LongitudeDegrees>
            </Position>
            <AltitudeMeters>18.799999237060546875</AltitudeMeters>
            <DistanceMeters>NAN</DistanceMeters>
          </Trackpoint>
          <Trackpoint>
            <Time>2021-08-11T12:12:03.000Z</Time>
            <Position>
              <LatitudeDegrees>43.33189305849373340606689453125</LatitudeDegrees>
              <LongitudeDegrees>-1.78901505656540393829345703125</LongitudeDegrees>
            </Position>
            <AltitudeMeters>19</AltitudeMeters>
            <DistanceMeters>NAN</DistanceMeters>
          </Trackpoint>
          <Trackpoint>
            <Time>2021-08-11T12:12:04.000Z</Time>
            <Position>
              <LatitudeDegrees>43.33187042735517024993896484375</LatitudeDegrees>
              <LongitudeDegrees>-1.78902712650597095489501953125</LongitudeDegrees>
            </Position>
            <AltitudeMeters>19</AltitudeMeters>
            <DistanceMeters>NAN</DistanceMeters>
          </Trackpoint>
          <Trackpoint>
            <Time>2021-08-11T12:12:05.000Z</Time>
            <Position>
              <LatitudeDegrees>43.33184779621660709381103515625</LatitudeDegrees>
              <LongitudeDegrees>-1.78903517313301563262939453125</LongitudeDegrees>
            </Position>
            <AltitudeMeters>19.200000762939453125</AltitudeMeters>
            <DistanceMeters>NAN</DistanceMeters>
          </Trackpoint>
          <Trackpoint>
            <Time>2021-08-11T12:12:06.000Z</Time>
            <Position>
              <LatitudeDegrees>43.33182365633547306060791015625</LatitudeDegrees>
              <LongitudeDegrees>-1.78904321976006031036376953125</LongitudeDegrees>
            </Position>
            <AltitudeMeters>19.6000003814697265625</AltitudeMeters>
            <DistanceMeters>NAN</DistanceMeters>
          </Trackpoint>
          <Trackpoint>
            <Time>2021-08-11T12:12:07.000Z</Time>
            <Position>
              <LatitudeDegrees>43.33180035464465618133544921875</LatitudeDegrees>
              <LongitudeDegrees>-1.78905017673969268798828125</LongitudeDegrees>
            </Position>
            <AltitudeMeters>19.6000003814697265625</AltitudeMeters>
            <DistanceMeters>NAN</DistanceMeters>
          </Trackpoint>
          <Trackpoint>
            <Time>2021-08-11T12:12:08.000Z</Time>
            <Position>
              <LatitudeDegrees>43.3317747898399829864501953125</LatitudeDegrees>
              <LongitudeDegrees>-1.78905528970062732696533203125</LongitudeDegrees>
            </Position>
            <AltitudeMeters>20</AltitudeMeters>
            <DistanceMeters>NAN</DistanceMeters>
          </Trackpoint>
          <Trackpoint>
            <Time>2021-08-11T12:12:09.000Z</Time>
            <Position>
              <LatitudeDegrees>43.331750817596912384033203125</LatitudeDegrees>
              <LongitudeDegrees>-1.78906233049929141998291015625</LongitudeDegrees>
            </Position>
            <AltitudeMeters>20</AltitudeMeters>
            <DistanceMeters>NAN</DistanceMeters>
          </Trackpoint>
          <Trackpoint>
            <Time>2021-08-11T12:12:10.000Z</Time>
            <Position>
              <LatitudeDegrees>43.33172692917287349700927734375</LatitudeDegrees>
              <LongitudeDegrees>-1.78906953893601894378662109375</LongitudeDegrees>
            </Position>
            <AltitudeMeters>20.200000762939453125</AltitudeMeters>
            <DistanceMeters>NAN</DistanceMeters>
          </Trackpoint>
          <Trackpoint>
            <Time>2021-08-11T12:12:11.000Z</Time>
            <Position>
              <LatitudeDegrees>43.33170413039624691009521484375</LatitudeDegrees>
              <LongitudeDegrees>-1.7890776693820953369140625</LongitudeDegrees>
            </Position>
            <AltitudeMeters>20.3999996185302734375</AltitudeMeters>
            <DistanceMeters>NAN</DistanceMeters>
          </Trackpoint>
          <Trackpoint>
            <Time>2021-08-11T12:12:12.000Z</Time>
            <Position>
              <LatitudeDegrees>43.33167982287704944610595703125</LatitudeDegrees>
              <LongitudeDegrees>-1.7890832014381885528564453125</LongitudeDegrees>
            </Position>
            <AltitudeMeters>20.3999996185302734375</AltitudeMeters>
            <DistanceMeters>NAN</DistanceMeters>
          </Trackpoint>
          <Trackpoint>
            <Time>2021-08-11T12:12:13.000Z</Time>
            <Position>
              <LatitudeDegrees>43.3316552639007568359375</LatitudeDegrees>
              <LongitudeDegrees>-1.78909066133201122283935546875</LongitudeDegrees>
            </Position>
            <AltitudeMeters>20.3999996185302734375</AltitudeMeters>
            <DistanceMeters>NAN</DistanceMeters>
          </Trackpoint>
          <Trackpoint>
            <Time>2021-08-11T12:12:14.000Z</Time>
            <Position>
              <LatitudeDegrees>43.33163087256252765655517578125</LatitudeDegrees>
              <LongitudeDegrees>-1.7890986241400241851806640625</LongitudeDegrees>
            </Position>
            <AltitudeMeters>20.6000003814697265625</AltitudeMeters>
            <DistanceMeters>NAN</DistanceMeters>
          </Trackpoint>
          <Trackpoint>
            <Time>2021-08-11T12:12:15.000Z</Time>
            <Position>
              <LatitudeDegrees>43.33160363137722015380859375</LatitudeDegrees>
              <LongitudeDegrees>-1.78910507820546627044677734375</LongitudeDegrees>
            </Position>
            <AltitudeMeters>20.6000003814697265625</AltitudeMeters>
            <DistanceMeters>NAN</DistanceMeters>
          </Trackpoint>
          <Trackpoint>
            <Time>2021-08-11T12:12:16.000Z</Time>
            <Position>
              <LatitudeDegrees>43.331579156219959259033203125</LatitudeDegrees>
              <LongitudeDegrees>-1.78910759277641773223876953125</LongitudeDegrees>
            </Position>
            <AltitudeMeters>20.799999237060546875</AltitudeMeters>
            <DistanceMeters>NAN</DistanceMeters>
          </Trackpoint>
          <Trackpoint>
            <Time>2021-08-11T12:12:17.000Z</Time>
            <Position>
              <LatitudeDegrees>43.33155577071011066436767578125</LatitudeDegrees>
              <LongitudeDegrees>-1.78911094553768634796142578125</LongitudeDegrees>
            </Position>
            <AltitudeMeters>21</AltitudeMeters>
            <DistanceMeters>NAN</DistanceMeters>
          </Trackpoint>
          <Trackpoint>
            <Time>2021-08-11T12:12:18.000Z</Time>
            <Position>
              <LatitudeDegrees>43.3315330557525157928466796875</LatitudeDegrees>
              <LongitudeDegrees>-1.78911563940346240997314453125</LongitudeDegrees>
            </Position>
            <AltitudeMeters>21</AltitudeMeters>
            <DistanceMeters>NAN</DistanceMeters>
          </Trackpoint>
          <Trackpoint>
            <Time>2021-08-11T12:12:19.000Z</Time>
            <Position>
              <LatitudeDegrees>43.3315082453191280364990234375</LatitudeDegrees>
              <LongitudeDegrees>-1.789118908345699310302734375</LongitudeDegrees>
            </Position>
            <AltitudeMeters>21.200000762939453125</AltitudeMeters>
            <DistanceMeters>NAN</DistanceMeters>
          </Trackpoint>
          <Trackpoint>
            <Time>2021-08-11T12:12:20.000Z</Time>
            <Position>
              <LatitudeDegrees>43.3314849436283111572265625</LatitudeDegrees>
              <LongitudeDegrees>-1.789124272763729095458984375</LongitudeDegrees>
            </Position>
            <AltitudeMeters>21.6000003814697265625</AltitudeMeters>
            <DistanceMeters>NAN</DistanceMeters>
          </Trackpoint>
          <Trackpoint>
            <Time>2021-08-11T12:12:21.000Z</Time>
            <Position>
              <LatitudeDegrees>43.33145988173782825469970703125</LatitudeDegrees>
              <LongitudeDegrees>-1.78912661969661712646484375</LongitudeDegrees>
            </Position>
            <AltitudeMeters>21.799999237060546875</AltitudeMeters>
            <DistanceMeters>NAN</DistanceMeters>
          </Trackpoint>
          <Trackpoint>
            <Time>2021-08-11T12:12:22.000Z</Time>
            <Position>
              <LatitudeDegrees>43.33143875934183597564697265625</LatitudeDegrees>
              <LongitudeDegrees>-1.78913106210529804229736328125</LongitudeDegrees>
            </Position>
            <AltitudeMeters>22</AltitudeMeters>
            <DistanceMeters>NAN</DistanceMeters>
          </Trackpoint>
          <Trackpoint>
            <Time>2021-08-11T12:12:23.000Z</Time>
            <Position>
              <LatitudeDegrees>43.331416212022304534912109375</LatitudeDegrees>
              <LongitudeDegrees>-1.78913508541882038116455078125</LongitudeDegrees>
            </Position>
            <AltitudeMeters>22</AltitudeMeters>
            <DistanceMeters>NAN</DistanceMeters>
          </Trackpoint>
          <Trackpoint>
            <Time>2021-08-11T12:12:24.000Z</Time>
            <Position>
              <LatitudeDegrees>43.33139316178858280181884765625</LatitudeDegrees>
              <LongitudeDegrees>-1.78913860581815242767333984375</LongitudeDegrees>
            </Position>
            <AltitudeMeters>22.200000762939453125</AltitudeMeters>
            <DistanceMeters>NAN</DistanceMeters>
          </Trackpoint>
          <Trackpoint>
            <Time>2021-08-11T12:12:25.000Z</Time>
            <Position>
              <LatitudeDegrees>43.3313694410026073455810546875</LatitudeDegrees>
              <LongitudeDegrees>-1.7891405336558818817138671875</LongitudeDegrees>
            </Position>
            <AltitudeMeters>22.200000762939453125</AltitudeMeters>
            <DistanceMeters>NAN</DistanceMeters>
          </Trackpoint>
          <Trackpoint>
            <Time>2021-08-11T12:12:26.000Z</Time>
            <Position>
              <LatitudeDegrees>43.33134622313082218170166015625</LatitudeDegrees>
              <LongitudeDegrees>-1.7891412042081356048583984375</LongitudeDegrees>
            </Position>
            <AltitudeMeters>22.3999996185302734375</AltitudeMeters>
            <DistanceMeters>NAN</DistanceMeters>
          </Trackpoint>
          <Trackpoint>
            <Time>2021-08-11T12:12:27.000Z</Time>
            <Position>
              <LatitudeDegrees>43.3313221670687198638916015625</LatitudeDegrees>
              <LongitudeDegrees>-1.78914271295070648193359375</LongitudeDegrees>
            </Position>
            <AltitudeMeters>22.3999996185302734375</AltitudeMeters>
            <DistanceMeters>NAN</DistanceMeters>
          </Trackpoint>
          <Trackpoint>
            <Time>2021-08-11T12:12:28.000Z</Time>
            <Position>
              <LatitudeDegrees>43.33129920065402984619140625</LatitudeDegrees>
              <LongitudeDegrees>-1.7891455627977848052978515625</LongitudeDegrees>
            </Position>
            <AltitudeMeters>22.3999996185302734375</AltitudeMeters>
            <DistanceMeters>NAN</DistanceMeters>
          </Trackpoint>
          <Trackpoint>
            <Time>2021-08-11T12:12:29.000Z</Time>
            <Position>
              <LatitudeDegrees>43.3312748931348323822021484375</LatitudeDegrees>
              <LongitudeDegrees>-1.789149083197116851806640625</LongitudeDegrees>
            </Position>
            <AltitudeMeters>22.3999996185302734375</AltitudeMeters>
            <DistanceMeters>NAN</DistanceMeters>
          </Trackpoint>
          <Trackpoint>
            <Time>2021-08-11T12:12:30.000Z</Time>
            <Position>
              <LatitudeDegrees>43.33124932833015918731689453125</LatitudeDegrees>
              <LongitudeDegrees>-1.78914782591164112091064453125</LongitudeDegrees>
            </Position>
            <AltitudeMeters>22.3999996185302734375</AltitudeMeters>
            <DistanceMeters>NAN</DistanceMeters>
          </Trackpoint>
          <Trackpoint>
            <Time>2021-08-11T12:12:31.000Z</Time>
            <Position>
              <LatitudeDegrees>43.33122082985937595367431640625</LatitudeDegrees>
              <LongitudeDegrees>-1.7891519330441951751708984375</LongitudeDegrees>
            </Position>
            <AltitudeMeters>22.6000003814697265625</AltitudeMeters>
            <DistanceMeters>NAN</DistanceMeters>
          </Trackpoint>
          <Trackpoint>
            <Time>2021-08-11T12:12:32.000Z</Time>
            <Position>
              <LatitudeDegrees>43.3311907388269901275634765625</LatitudeDegrees>
              <LongitudeDegrees>-1.78915210068225860595703125</LongitudeDegrees>
            </Position>
            <AltitudeMeters>22.6000003814697265625</AltitudeMeters>
            <DistanceMeters>NAN</DistanceMeters>
          </Trackpoint>
          <Trackpoint>
            <Time>2021-08-11T12:12:33.000Z</Time>
            <Position>
              <LatitudeDegrees>43.33116333000361919403076171875</LatitudeDegrees>
              <LongitudeDegrees>-1.7891569621860980987548828125</LongitudeDegrees>
            </Position>
            <AltitudeMeters>22.6000003814697265625</AltitudeMeters>
            <DistanceMeters>NAN</DistanceMeters>
          </Trackpoint>
          <Trackpoint>
            <Time>2021-08-11T12:12:34.000Z</Time>
            <Position>
              <LatitudeDegrees>43.3311340771615505218505859375</LatitudeDegrees>
              <LongitudeDegrees>-1.78916551172733306884765625</LongitudeDegrees>
            </Position>
            <AltitudeMeters>22.6000003814697265625</AltitudeMeters>
            <DistanceMeters>NAN</DistanceMeters>
          </Trackpoint>
          <Trackpoint>
            <Time>2021-08-11T12:12:35.000Z</Time>
            <Position>
              <LatitudeDegrees>43.33110633306205272674560546875</LatitudeDegrees>
              <LongitudeDegrees>-1.7891774140298366546630859375</LongitudeDegrees>
            </Position>
            <AltitudeMeters>22.799999237060546875</AltitudeMeters>
            <DistanceMeters>NAN</DistanceMeters>
          </Trackpoint>
          <Trackpoint>
            <Time>2021-08-11T12:12:36.000Z</Time>
            <Position>
              <LatitudeDegrees>43.33108554594218730926513671875</LatitudeDegrees>
              <LongitudeDegrees>-1.7891878075897693634033203125</LongitudeDegrees>
            </Position>
            <AltitudeMeters>22.799999237060546875</AltitudeMeters>
            <DistanceMeters>NAN</DistanceMeters>
          </Trackpoint>
          <Trackpoint>
            <Time>2021-08-11T12:12:37.000Z</Time>
            <Position>
              <LatitudeDegrees>43.33106718957424163818359375</LatitudeDegrees>
              <LongitudeDegrees>-1.78919107653200626373291015625</LongitudeDegrees>
            </Position>
            <AltitudeMeters>22.799999237060546875</AltitudeMeters>
            <DistanceMeters>NAN</DistanceMeters>
          </Trackpoint>
          <Trackpoint>
            <Time>2021-08-11T12:12:38.000Z</Time>
            <Position>
              <LatitudeDegrees>43.33105067722499370574951171875</LatitudeDegrees>
              <LongitudeDegrees>-1.78918487392365932464599609375</LongitudeDegrees>
            </Position>
            <AltitudeMeters>22.799999237060546875</AltitudeMeters>
            <DistanceMeters>NAN</DistanceMeters>
          </Trackpoint>
          <Trackpoint>
            <Time>2021-08-11T12:12:48.000Z</Time>
            <Position>
              <LatitudeDegrees>43.3307089470326900482177734375</LatitudeDegrees>
              <LongitudeDegrees>-1.78928361274302005767822265625</LongitudeDegrees>
            </Position>
            <AltitudeMeters>23.3999996185302734375</AltitudeMeters>
            <DistanceMeters>NAN</DistanceMeters>
          </Trackpoint>
          <Trackpoint>
            <Time>2021-08-11T12:12:49.000Z</Time>
            <Position>
              <LatitudeDegrees>43.33067550323903560638427734375</LatitudeDegrees>
              <LongitudeDegrees>-1.7892595566809177398681640625</LongitudeDegrees>
            </Position>
            <AltitudeMeters>23.3999996185302734375</AltitudeMeters>
            <DistanceMeters>NAN</DistanceMeters>
          </Trackpoint>
          <Trackpoint>
            <Time>2021-08-11T12:12:50.000Z</Time>
            <Position>
              <LatitudeDegrees>43.33063493482768535614013671875</LatitudeDegrees>
              <LongitudeDegrees>-1.78924924694001674652099609375</LongitudeDegrees>
            </Position>
            <AltitudeMeters>23.3999996185302734375</AltitudeMeters>
            <DistanceMeters>NAN</DistanceMeters>
          </Trackpoint>
          <Trackpoint>
            <Time>2021-08-11T12:12:51.000Z</Time>
            <Position>
              <LatitudeDegrees>43.3305912651121616363525390625</LatitudeDegrees>
              <LongitudeDegrees>-1.78925662301480770111083984375</LongitudeDegrees>
            </Position>
            <AltitudeMeters>23.3999996185302734375</AltitudeMeters>
            <DistanceMeters>NAN</DistanceMeters>
          </Trackpoint>
          <Trackpoint>
            <Time>2021-08-11T12:12:52.000Z</Time>
            <Position>
              <LatitudeDegrees>43.33056972362101078033447265625</LatitudeDegrees>
              <LongitudeDegrees>-1.789267100393772125244140625</LongitudeDegrees>
            </Position>
            <AltitudeMeters>23.3999996185302734375</AltitudeMeters>
            <DistanceMeters>NAN</DistanceMeters>
          </Trackpoint>
          <Trackpoint>
            <Time>2021-08-11T12:12:53.000Z</Time>
            <Position>
              <LatitudeDegrees>43.330542482435703277587890625</LatitudeDegrees>
              <LongitudeDegrees>-1.7892662622034549713134765625</LongitudeDegrees>
            </Position>
            <AltitudeMeters>23.200000762939453125</AltitudeMeters>
            <DistanceMeters>NAN</DistanceMeters>
          </Trackpoint>
          <Trackpoint>
            <Time>2021-08-11T12:12:55.000Z</Time>
            <Position>
              <LatitudeDegrees>43.330487497150897979736328125</LatitudeDegrees>
              <LongitudeDegrees>-1.7892528511583805084228515625</LongitudeDegrees>
            </Position>
            <AltitudeMeters>23.200000762939453125</AltitudeMeters>
            <DistanceMeters>NAN</DistanceMeters>
          </Trackpoint>
          <Trackpoint>
            <Time>2021-08-11T12:13:02.000Z</Time>
            <Position>
              <LatitudeDegrees>43.33025238476693630218505859375</LatitudeDegrees>
              <LongitudeDegrees>-1.78918085061013698577880859375</LongitudeDegrees>
            </Position>
            <AltitudeMeters>22.799999237060546875</AltitudeMeters>
            <DistanceMeters>NAN</DistanceMeters>
          </Trackpoint>
          <Trackpoint>
            <Time>2021-08-11T12:13:05.000Z</Time>
            <Position>
              <LatitudeDegrees>43.3301212079823017120361328125</LatitudeDegrees>
              <LongitudeDegrees>-1.78914765827357769012451171875</LongitudeDegrees>
            </Position>
            <AltitudeMeters>22.6000003814697265625</AltitudeMeters>
            <DistanceMeters>NAN</DistanceMeters>
          </Trackpoint>
          <Trackpoint>
            <Time>2021-08-11T12:13:09.000Z</Time>
            <Position>
              <LatitudeDegrees>43.32992549054324626922607421875</LatitudeDegrees>
              <LongitudeDegrees>-1.78907339461147785186767578125</LongitudeDegrees>
            </Position>
            <AltitudeMeters>22</AltitudeMeters>
            <DistanceMeters>NAN</DistanceMeters>
          </Trackpoint>
          <Trackpoint>
            <Time>2021-08-11T12:13:11.000Z</Time>
            <Position>
              <LatitudeDegrees>43.3298271708190441131591796875</LatitudeDegrees>
              <LongitudeDegrees>-1.789041459560394287109375</LongitudeDegrees>
            </Position>
            <AltitudeMeters>21.799999237060546875</AltitudeMeters>
            <DistanceMeters>NAN</DistanceMeters>
          </Trackpoint>
          <Trackpoint>
            <Time>2021-08-11T12:13:14.000Z</Time>
            <Position>
              <LatitudeDegrees>43.32968057133257389068603515625</LatitudeDegrees>
              <LongitudeDegrees>-1.788995526731014251708984375</LongitudeDegrees>
            </Position>
            <AltitudeMeters>21.6000003814697265625</AltitudeMeters>
            <DistanceMeters>NAN</DistanceMeters>
          </Trackpoint>
          <Trackpoint>
            <Time>2021-08-11T12:13:15.000Z</Time>
            <Position>
              <LatitudeDegrees>43.3296239934861660003662109375</LatitudeDegrees>
              <LongitudeDegrees>-1.78897683508694171905517578125</LongitudeDegrees>
            </Position>
            <AltitudeMeters>21.3999996185302734375</AltitudeMeters>
            <DistanceMeters>NAN</DistanceMeters>
          </Trackpoint>
          <Trackpoint>
            <Time>2021-08-11T12:13:17.000Z</Time>
            <Position>
              <LatitudeDegrees>43.329541347920894622802734375</LatitudeDegrees>
              <LongitudeDegrees>-1.788955964148044586181640625</LongitudeDegrees>
            </Position>
            <AltitudeMeters>21.200000762939453125</AltitudeMeters>
            <DistanceMeters>NAN</DistanceMeters>
          </Trackpoint>
          <Trackpoint>
            <Time>2021-08-11T12:13:19.000Z</Time>
            <Position>
              <LatitudeDegrees>43.329455852508544921875</LatitudeDegrees>
              <LongitudeDegrees>-1.7889477498829364776611328125</LongitudeDegrees>
            </Position>
            <AltitudeMeters>21.200000762939453125</AltitudeMeters>
            <DistanceMeters>NAN</DistanceMeters>
          </Trackpoint>
          <Trackpoint>
            <Time>2021-08-11T12:13:20.000Z</Time>
            <Position>
              <LatitudeDegrees>43.32941628992557525634765625</LatitudeDegrees>
              <LongitudeDegrees>-1.78894699551165103912353515625</LongitudeDegrees>
            </Position>
            <AltitudeMeters>21.200000762939453125</AltitudeMeters>
            <DistanceMeters>NAN</DistanceMeters>
          </Trackpoint>
          <Trackpoint>
            <Time>2021-08-11T12:13:21.000Z</Time>
            <Position>
              <LatitudeDegrees>43.3293794095516204833984375</LatitudeDegrees>
              <LongitudeDegrees>-1.78894364275038242340087890625</LongitudeDegrees>
            </Position>
            <AltitudeMeters>21.200000762939453125</AltitudeMeters>
            <DistanceMeters>NAN</DistanceMeters>
          </Trackpoint>
          <Trackpoint>
            <Time>2021-08-11T12:13:22.000Z</Time>
            <Position>
              <LatitudeDegrees>43.329341523349285125732421875</LatitudeDegrees>
              <LongitudeDegrees>-1.78894045762717723846435546875</LongitudeDegrees>
            </Position>
            <AltitudeMeters>20.799999237060546875</AltitudeMeters>
            <DistanceMeters>NAN</DistanceMeters>
          </Trackpoint>
          <Trackpoint>
            <Time>2021-08-11T12:13:25.000Z</Time>
            <Position>
              <LatitudeDegrees>43.32921487279236316680908203125</LatitudeDegrees>
              <LongitudeDegrees>-1.788957975804805755615234375</LongitudeDegrees>
            </Position>
            <AltitudeMeters>20.799999237060546875</AltitudeMeters>
            <DistanceMeters>NAN</DistanceMeters>
          </Trackpoint>
          <Trackpoint>
            <Time>2021-08-11T12:13:26.000Z</Time>
            <Position>
              <LatitudeDegrees>43.3291753940284252166748046875</LatitudeDegrees>
              <LongitudeDegrees>-1.7889635078608989715576171875</LongitudeDegrees>
            </Position>
            <AltitudeMeters>20.799999237060546875</AltitudeMeters>
            <DistanceMeters>NAN</DistanceMeters>
          </Trackpoint>
          <Trackpoint>
            <Time>2021-08-11T12:13:27.000Z</Time>
            <Position>
              <LatitudeDegrees>43.3291371725499629974365234375</LatitudeDegrees>
              <LongitudeDegrees>-1.78896610625088214874267578125</LongitudeDegrees>
            </Position>
            <AltitudeMeters>20.6000003814697265625</AltitudeMeters>
            <DistanceMeters>NAN</DistanceMeters>
          </Trackpoint>
          <Trackpoint>
            <Time>2021-08-11T12:13:28.000Z</Time>
            <Position>
              <LatitudeDegrees>43.32909786142408847808837890625</LatitudeDegrees>
              <LongitudeDegrees>-1.7889688722789287567138671875</LongitudeDegrees>
            </Position>
            <AltitudeMeters>20.6000003814697265625</AltitudeMeters>
            <DistanceMeters>NAN</DistanceMeters>
          </Trackpoint>
          <Trackpoint>
            <Time>2021-08-11T12:13:29.000Z</Time>
            <Position>
              <LatitudeDegrees>43.32905896939337253570556640625</LatitudeDegrees>
              <LongitudeDegrees>-1.78897297941148281097412109375</LongitudeDegrees>
            </Position>
            <AltitudeMeters>20.6000003814697265625</AltitudeMeters>
            <DistanceMeters>NAN</DistanceMeters>
          </Trackpoint>
          <Trackpoint>
            <Time>2021-08-11T12:13:33.000Z</Time>
            <Position>
              <LatitudeDegrees>43.32888781093060970306396484375</LatitudeDegrees>
              <LongitudeDegrees>-1.78900063969194889068603515625</LongitudeDegrees>
            </Position>
            <AltitudeMeters>20.6000003814697265625</AltitudeMeters>
            <DistanceMeters>NAN</DistanceMeters>
          </Trackpoint>
          <Trackpoint>
            <Time>2021-08-11T12:13:39.000Z</Time>
            <Position>
              <LatitudeDegrees>43.328655548393726348876953125</LatitudeDegrees>
              <LongitudeDegrees>-1.78902779705822467803955078125</LongitudeDegrees>
            </Position>
            <AltitudeMeters>20.6000003814697265625</AltitudeMeters>
            <DistanceMeters>NAN</DistanceMeters>
          </Trackpoint>
          <Trackpoint>
            <Time>2021-08-11T12:13:40.000Z</Time>
            <Position>
              <LatitudeDegrees>43.32862235605716705322265625</LatitudeDegrees>
              <LongitudeDegrees>-1.78903542459011077880859375</LongitudeDegrees>
            </Position>
            <AltitudeMeters>20.6000003814697265625</AltitudeMeters>
            <DistanceMeters>NAN</DistanceMeters>
          </Trackpoint>
          <Trackpoint>
            <Time>2021-08-11T12:13:41.000Z</Time>
            <Position>
              <LatitudeDegrees>43.32858690060675144195556640625</LatitudeDegrees>
              <LongitudeDegrees>-1.789043806493282318115234375</LongitudeDegrees>
            </Position>
            <AltitudeMeters>20.6000003814697265625</AltitudeMeters>
            <DistanceMeters>NAN</DistanceMeters>
          </Trackpoint>
          <Trackpoint>
            <Time>2021-08-11T12:13:42.000Z</Time>
            <Position>
              <LatitudeDegrees>43.32855672575533390045166015625</LatitudeDegrees>
              <LongitudeDegrees>-1.78904674015939235687255859375</LongitudeDegrees>
            </Position>
            <AltitudeMeters>20.799999237060546875</AltitudeMeters>
            <DistanceMeters>NAN</DistanceMeters>
          </Trackpoint>
          <Trackpoint>
            <Time>2021-08-11T12:13:43.000Z</Time>
            <Position>
              <LatitudeDegrees>43.3285202644765377044677734375</LatitudeDegrees>
              <LongitudeDegrees>-1.7890476621687412261962890625</LongitudeDegrees>
            </Position>
            <AltitudeMeters>20.799999237060546875</AltitudeMeters>
            <DistanceMeters>NAN</DistanceMeters>
          </Trackpoint>
          <Trackpoint>
            <Time>2021-08-11T12:13:47.000Z</Time>
            <Position>
              <LatitudeDegrees>43.3283486030995845794677734375</LatitudeDegrees>
              <LongitudeDegrees>-1.7890573851764202117919921875</LongitudeDegrees>
            </Position>
            <AltitudeMeters>21</AltitudeMeters>
            <DistanceMeters>NAN</DistanceMeters>
          </Trackpoint>
          <Trackpoint>
            <Time>2021-08-11T12:13:54.000Z</Time>
            <Position>
              <LatitudeDegrees>43.32808884792029857635498046875</LatitudeDegrees>
              <LongitudeDegrees>-1.789139695465564727783203125</LongitudeDegrees>
            </Position>
            <AltitudeMeters>21.6000003814697265625</AltitudeMeters>
            <DistanceMeters>NAN</DistanceMeters>
          </Trackpoint>
          <Trackpoint>
            <Time>2021-08-11T12:13:55.000Z</Time>
            <Position>
              <LatitudeDegrees>43.328050039708614349365234375</LatitudeDegrees>
              <LongitudeDegrees>-1.78914514370262622833251953125</LongitudeDegrees>
            </Position>
            <AltitudeMeters>21.6000003814697265625</AltitudeMeters>
            <DistanceMeters>NAN</DistanceMeters>
          </Trackpoint>
          <Trackpoint>
            <Time>2021-08-11T12:13:56.000Z</Time>
            <Position>
              <LatitudeDegrees>43.32801324315369129180908203125</LatitudeDegrees>
              <LongitudeDegrees>-1.78913868963718414306640625</LongitudeDegrees>
            </Position>
            <AltitudeMeters>21.6000003814697265625</AltitudeMeters>
            <DistanceMeters>NAN</DistanceMeters>
          </Trackpoint>
          <Trackpoint>
            <Time>2021-08-11T12:13:57.000Z</Time>
            <Position>
              <LatitudeDegrees>43.32797183655202388763427734375</LatitudeDegrees>
              <LongitudeDegrees>-1.789124943315982818603515625</LongitudeDegrees>
            </Position>
            <AltitudeMeters>21.799999237060546875</AltitudeMeters>
            <DistanceMeters>NAN</DistanceMeters>
          </Trackpoint>
          <Trackpoint>
            <Time>2021-08-11T12:13:58.000Z</Time>
            <Position>
              <LatitudeDegrees>43.32792271859943866729736328125</LatitudeDegrees>
              <LongitudeDegrees>-1.789116561412811279296875</LongitudeDegrees>
            </Position>
            <AltitudeMeters>21.799999237060546875</AltitudeMeters>
            <DistanceMeters>NAN</DistanceMeters>
          </Trackpoint>
          <Trackpoint>
            <Time>2021-08-11T12:13:59.000Z</Time>
            <Position>
              <LatitudeDegrees>43.32788617350161075592041015625</LatitudeDegrees>
              <LongitudeDegrees>-1.7891251109540462493896484375</LongitudeDegrees>
            </Position>
            <AltitudeMeters>21.799999237060546875</AltitudeMeters>
            <DistanceMeters>NAN</DistanceMeters>
          </Trackpoint>
          <Trackpoint>
            <Time>2021-08-11T12:14:01.000Z</Time>
            <Position>
              <LatitudeDegrees>43.3278084732592105865478515625</LatitudeDegrees>
              <LongitudeDegrees>-1.789128966629505157470703125</LongitudeDegrees>
            </Position>
            <AltitudeMeters>22</AltitudeMeters>
            <DistanceMeters>NAN</DistanceMeters>
          </Trackpoint>
          <Trackpoint>
            <Time>2021-08-11T12:14:03.000Z</Time>
            <Position>
              <LatitudeDegrees>43.32774259150028228759765625</LatitudeDegrees>
              <LongitudeDegrees>-1.78911614231765270233154296875</LongitudeDegrees>
            </Position>
            <AltitudeMeters>22</AltitudeMeters>
            <DistanceMeters>NAN</DistanceMeters>
          </Trackpoint>
          <Trackpoint>
            <Time>2021-08-11T12:14:04.000Z</Time>
            <Position>
              <LatitudeDegrees>43.327711410820484161376953125</LatitudeDegrees>
              <LongitudeDegrees>-1.78911295719444751739501953125</LongitudeDegrees>
            </Position>
            <AltitudeMeters>22.200000762939453125</AltitudeMeters>
            <DistanceMeters>NAN</DistanceMeters>
          </Trackpoint>
          <Trackpoint>
            <Time>2021-08-11T12:14:06.000Z</Time>
            <Position>
              <LatitudeDegrees>43.32765148021280765533447265625</LatitudeDegrees>
              <LongitudeDegrees>-1.78913089446723461151123046875</LongitudeDegrees>
            </Position>
            <AltitudeMeters>22.200000762939453125</AltitudeMeters>
            <DistanceMeters>NAN</DistanceMeters>
          </Trackpoint>
          <Trackpoint>
            <Time>2021-08-11T12:14:08.000Z</Time>
            <Position>
              <LatitudeDegrees>43.32759297452867031097412109375</LatitudeDegrees>
              <LongitudeDegrees>-1.789138354361057281494140625</LongitudeDegrees>
            </Position>
            <AltitudeMeters>22.3999996185302734375</AltitudeMeters>
            <DistanceMeters>NAN</DistanceMeters>
          </Trackpoint>
          <Trackpoint>
            <Time>2021-08-11T12:14:09.000Z</Time>
            <Position>
              <LatitudeDegrees>43.3275630511343479156494140625</LatitudeDegrees>
              <LongitudeDegrees>-1.78914095275104045867919921875</LongitudeDegrees>
            </Position>
            <AltitudeMeters>22.3999996185302734375</AltitudeMeters>
            <DistanceMeters>NAN</DistanceMeters>
          </Trackpoint>
          <Trackpoint>
            <Time>2021-08-11T12:14:10.000Z</Time>
            <Position>
              <LatitudeDegrees>43.32753312774002552032470703125</LatitudeDegrees>
              <LongitudeDegrees>-1.78914380259811878204345703125</LongitudeDegrees>
            </Position>
            <AltitudeMeters>22.3999996185302734375</AltitudeMeters>
            <DistanceMeters>NAN</DistanceMeters>
          </Trackpoint>
          <Trackpoint>
            <Time>2021-08-11T12:14:15.000Z</Time>
            <Position>
              <LatitudeDegrees>43.32737286575138568878173828125</LatitudeDegrees>
              <LongitudeDegrees>-1.7891559563577175140380859375</LongitudeDegrees>
            </Position>
            <AltitudeMeters>23</AltitudeMeters>
            <DistanceMeters>NAN</DistanceMeters>
          </Trackpoint>
          <Trackpoint>
            <Time>2021-08-11T12:14:20.000Z</Time>
            <Position>
              <LatitudeDegrees>43.32720958627760410308837890625</LatitudeDegrees>
              <LongitudeDegrees>-1.78918168880045413970947265625</LongitudeDegrees>
            </Position>
            <AltitudeMeters>23.3999996185302734375</AltitudeMeters>
            <DistanceMeters>NAN</DistanceMeters>
          </Trackpoint>
          <Trackpoint>
            <Time>2021-08-11T12:14:24.000Z</Time>
            <Position>
              <LatitudeDegrees>43.3270762301981449127197265625</LatitudeDegrees>
              <LongitudeDegrees>-1.78921454586088657379150390625</LongitudeDegrees>
            </Position>
            <AltitudeMeters>23.6000003814697265625</AltitudeMeters>
            <DistanceMeters>NAN</DistanceMeters>
          </Trackpoint>
          <Trackpoint>
            <Time>2021-08-11T12:14:25.000Z</Time>
            <Position>
              <LatitudeDegrees>43.3270437084138393402099609375</LatitudeDegrees>
              <LongitudeDegrees>-1.789220161736011505126953125</LongitudeDegrees>
            </Position>
            <AltitudeMeters>23.6000003814697265625</AltitudeMeters>
            <DistanceMeters>NAN</DistanceMeters>
          </Trackpoint>
          <Trackpoint>
            <Time>2021-08-11T12:14:33.000Z</Time>
            <Position>
              <LatitudeDegrees>43.32678328268229961395263671875</LatitudeDegrees>
              <LongitudeDegrees>-1.78928931243717670440673828125</LongitudeDegrees>
            </Position>
            <AltitudeMeters>24.200000762939453125</AltitudeMeters>
            <DistanceMeters>NAN</DistanceMeters>
          </Trackpoint>
          <Trackpoint>
            <Time>2021-08-11T12:14:34.000Z</Time>
            <Position>
              <LatitudeDegrees>43.32675176672637462615966796875</LatitudeDegrees>
              <LongitudeDegrees>-1.7892920784652233123779296875</LongitudeDegrees>
            </Position>
            <AltitudeMeters>24.3999996185302734375</AltitudeMeters>
            <DistanceMeters>NAN</DistanceMeters>
          </Trackpoint>
          <Trackpoint>
            <Time>2021-08-11T12:14:35.000Z</Time>
            <Position>
              <LatitudeDegrees>43.326724357903003692626953125</LatitudeDegrees>
              <LongitudeDegrees>-1.7892954312264919281005859375</LongitudeDegrees>
            </Position>
            <AltitudeMeters>24.3999996185302734375</AltitudeMeters>
            <DistanceMeters>NAN</DistanceMeters>
          </Trackpoint>
          <Trackpoint>
            <Time>2021-08-11T12:14:36.000Z</Time>
            <Position>
              <LatitudeDegrees>43.3266926743090152740478515625</LatitudeDegrees>
              <LongitudeDegrees>-1.78929300047457218170166015625</LongitudeDegrees>
            </Position>
            <AltitudeMeters>24.6000003814697265625</AltitudeMeters>
            <DistanceMeters>NAN</DistanceMeters>
          </Trackpoint>
          <Trackpoint>
            <Time>2021-08-11T12:14:38.000Z</Time>
            <Position>
              <LatitudeDegrees>43.326631821691989898681640625</LatitudeDegrees>
              <LongitudeDegrees>-1.789277493953704833984375</LongitudeDegrees>
            </Position>
            <AltitudeMeters>24.799999237060546875</AltitudeMeters>
            <DistanceMeters>NAN</DistanceMeters>
          </Trackpoint>
          <Trackpoint>
            <Time>2021-08-11T12:14:40.000Z</Time>
            <Position>
              <LatitudeDegrees>43.32657390274107456207275390625</LatitudeDegrees>
              <LongitudeDegrees>-1.7892612330615520477294921875</LongitudeDegrees>
            </Position>
            <AltitudeMeters>25</AltitudeMeters>
            <DistanceMeters>NAN</DistanceMeters>
          </Trackpoint>
          <Trackpoint>
            <Time>2021-08-11T12:14:41.000Z</Time>
            <Position>
              <LatitudeDegrees>43.326545320451259613037109375</LatitudeDegrees>
              <LongitudeDegrees>-1.78925134241580963134765625</LongitudeDegrees>
            </Position>
            <AltitudeMeters>25</AltitudeMeters>
            <DistanceMeters>NAN</DistanceMeters>
          </Trackpoint>
          <Trackpoint>
            <Time>2021-08-11T12:14:42.000Z</Time>
            <Position>
              <LatitudeDegrees>43.326519168913364410400390625</LatitudeDegrees>
              <LongitudeDegrees>-1.7892412841320037841796875</LongitudeDegrees>
            </Position>
            <AltitudeMeters>25.200000762939453125</AltitudeMeters>
            <DistanceMeters>NAN</DistanceMeters>
          </Trackpoint>
          <Trackpoint>
            <Time>2021-08-11T12:14:43.000Z</Time>
            <Position>
              <LatitudeDegrees>43.326495699584484100341796875</LatitudeDegrees>
              <LongitudeDegrees>-1.78923130966722965240478515625</LongitudeDegrees>
            </Position>
            <AltitudeMeters>25.3999996185302734375</AltitudeMeters>
            <DistanceMeters>NAN</DistanceMeters>
          </Trackpoint>
          <Trackpoint>
            <Time>2021-08-11T12:14:44.000Z</Time>
            <Position>
              <LatitudeDegrees>43.32647256553173065185546875</LatitudeDegrees>
              <LongitudeDegrees>-1.78921781480312347412109375</LongitudeDegrees>
            </Position>
            <AltitudeMeters>25.3999996185302734375</AltitudeMeters>
            <DistanceMeters>NAN</DistanceMeters>
          </Trackpoint>
          <Trackpoint>
            <Time>2021-08-11T12:14:45.000Z</Time>
            <Position>
              <LatitudeDegrees>43.3264542929828166961669921875</LatitudeDegrees>
              <LongitudeDegrees>-1.7892065830528736114501953125</LongitudeDegrees>
            </Position>
            <AltitudeMeters>25.6000003814697265625</AltitudeMeters>
            <DistanceMeters>NAN</DistanceMeters>
          </Trackpoint>
          <Trackpoint>
            <Time>2021-08-11T12:14:46.000Z</Time>
            <Position>
              <LatitudeDegrees>43.3264402113854885101318359375</LatitudeDegrees>
              <LongitudeDegrees>-1.7891968600451946258544921875</LongitudeDegrees>
            </Position>
            <AltitudeMeters>25.799999237060546875</AltitudeMeters>
            <DistanceMeters>NAN</DistanceMeters>
          </Trackpoint>
          <Trackpoint>
            <Time>2021-08-11T12:14:47.000Z</Time>
            <Position>
              <LatitudeDegrees>43.32642269320785999298095703125</LatitudeDegrees>
              <LongitudeDegrees>-1.78918118588626384735107421875</LongitudeDegrees>
            </Position>
            <AltitudeMeters>26</AltitudeMeters>
            <DistanceMeters>NAN</DistanceMeters>
          </Trackpoint>
          <Trackpoint>
            <Time>2021-08-11T12:14:48.000Z</Time>
            <Position>
              <LatitudeDegrees>43.3264040015637874603271484375</LatitudeDegrees>
              <LongitudeDegrees>-1.7891619913280010223388671875</LongitudeDegrees>
            </Position>
            <AltitudeMeters>26</AltitudeMeters>
            <DistanceMeters>NAN</DistanceMeters>
          </Trackpoint>
          <Trackpoint>
            <Time>2021-08-11T12:14:49.000Z</Time>
            <Position>
              <LatitudeDegrees>43.32638681866228580474853515625</LatitudeDegrees>
              <LongitudeDegrees>-1.78914212621748447418212890625</LongitudeDegrees>
            </Position>
            <AltitudeMeters>26.200000762939453125</AltitudeMeters>
            <DistanceMeters>NAN</DistanceMeters>
          </Trackpoint>
          <Trackpoint>
            <Time>2021-08-11T12:14:50.000Z</Time>
            <Position>
              <LatitudeDegrees>43.3263691328465938568115234375</LatitudeDegrees>
              <LongitudeDegrees>-1.78911597467958927154541015625</LongitudeDegrees>
            </Position>
            <AltitudeMeters>26.3999996185302734375</AltitudeMeters>
            <DistanceMeters>NAN</DistanceMeters>
          </Trackpoint>
          <Trackpoint>
            <Time>2021-08-11T12:14:51.000Z</Time>
            <Position>
              <LatitudeDegrees>43.3263547159731388092041015625</LatitudeDegrees>
              <LongitudeDegrees>-1.789098791778087615966796875</LongitudeDegrees>
            </Position>
            <AltitudeMeters>26.3999996185302734375</AltitudeMeters>
            <DistanceMeters>NAN</DistanceMeters>
          </Trackpoint>
          <Trackpoint>
            <Time>2021-08-11T12:14:52.000Z</Time>
            <Position>
              <LatitudeDegrees>43.326341807842254638671875</LatitudeDegrees>
              <LongitudeDegrees>-1.78908579982817173004150390625</LongitudeDegrees>
            </Position>
            <AltitudeMeters>26.6000003814697265625</AltitudeMeters>
            <DistanceMeters>NAN</DistanceMeters>
          </Trackpoint>
          <Trackpoint>
            <Time>2021-08-11T12:14:53.000Z</Time>
            <Position>
              <LatitudeDegrees>43.32632378675043582916259765625</LatitudeDegrees>
              <LongitudeDegrees>-1.78906836546957492828369140625</LongitudeDegrees>
            </Position>
            <AltitudeMeters>26.6000003814697265625</AltitudeMeters>
            <DistanceMeters>NAN</DistanceMeters>
          </Trackpoint>
          <Trackpoint>
            <Time>2021-08-11T12:14:54.000Z</Time>
            <Position>
              <LatitudeDegrees>43.326299227774143218994140625</LatitudeDegrees>
              <LongitudeDegrees>-1.7890466563403606414794921875</LongitudeDegrees>
            </Position>
            <AltitudeMeters>26.799999237060546875</AltitudeMeters>
            <DistanceMeters>NAN</DistanceMeters>
          </Trackpoint>
          <Trackpoint>
            <Time>2021-08-11T12:14:55.000Z</Time>
            <Position>
              <LatitudeDegrees>43.32626863382756710052490234375</LatitudeDegrees>
              <LongitudeDegrees>-1.78901924751698970794677734375</LongitudeDegrees>
            </Position>
            <AltitudeMeters>26.799999237060546875</AltitudeMeters>
            <DistanceMeters>NAN</DistanceMeters>
          </Trackpoint>
          <Trackpoint>
            <Time>2021-08-11T12:14:56.000Z</Time>
            <Position>
              <LatitudeDegrees>43.32623653113842010498046875</LatitudeDegrees>
              <LongitudeDegrees>-1.7889987118542194366455078125</LongitudeDegrees>
            </Position>
            <AltitudeMeters>27</AltitudeMeters>
            <DistanceMeters>NAN</DistanceMeters>
          </Trackpoint>
          <Trackpoint>
            <Time>2021-08-11T12:14:57.000Z</Time>
            <Position>
              <LatitudeDegrees>43.3262105472385883331298828125</LatitudeDegrees>
              <LongitudeDegrees>-1.78898337297141551971435546875</LongitudeDegrees>
            </Position>
            <AltitudeMeters>27</AltitudeMeters>
            <DistanceMeters>NAN</DistanceMeters>
          </Trackpoint>
          <Trackpoint>
            <Time>2021-08-11T12:14:58.000Z</Time>
            <Position>
              <LatitudeDegrees>43.3261884190142154693603515625</LatitudeDegrees>
              <LongitudeDegrees>-1.78897012956440448760986328125</LongitudeDegrees>
            </Position>
            <AltitudeMeters>27</AltitudeMeters>
            <DistanceMeters>NAN</DistanceMeters>
          </Trackpoint>
          <Trackpoint>
            <Time>2021-08-11T12:14:59.000Z</Time>
            <Position>
              <LatitudeDegrees>43.326162435114383697509765625</LatitudeDegrees>
              <LongitudeDegrees>-1.78894230164587497711181640625</LongitudeDegrees>
            </Position>
            <AltitudeMeters>27</AltitudeMeters>
            <DistanceMeters>NAN</DistanceMeters>
          </Trackpoint>
          <Trackpoint>
            <Time>2021-08-11T12:15:00.000Z</Time>
            <Position>
              <LatitudeDegrees>43.32613754086196422576904296875</LatitudeDegrees>
              <LongitudeDegrees>-1.7889172397553920745849609375</LongitudeDegrees>
            </Position>
            <AltitudeMeters>27</AltitudeMeters>
            <DistanceMeters>NAN</DistanceMeters>
          </Trackpoint>
          <Trackpoint>
            <Time>2021-08-11T12:15:01.000Z</Time>
            <Position>
              <LatitudeDegrees>43.326108120381832122802734375</LatitudeDegrees>
              <LongitudeDegrees>-1.7888914234936237335205078125</LongitudeDegrees>
            </Position>
            <AltitudeMeters>27</AltitudeMeters>
            <DistanceMeters>NAN</DistanceMeters>
          </Trackpoint>
          <Trackpoint>
            <Time>2021-08-11T12:15:02.000Z</Time>
            <Position>
              <LatitudeDegrees>43.32608808763325214385986328125</LatitudeDegrees>
              <LongitudeDegrees>-1.78886376321315765380859375</LongitudeDegrees>
            </Position>
            <AltitudeMeters>27</AltitudeMeters>
            <DistanceMeters>NAN</DistanceMeters>
          </Trackpoint>
          <Trackpoint>
            <Time>2021-08-11T12:15:03.000Z</Time>
            <Position>
              <LatitudeDegrees>43.3260697312653064727783203125</LatitudeDegrees>
              <LongitudeDegrees>-1.78884021006524562835693359375</LongitudeDegrees>
            </Position>
            <AltitudeMeters>27.200000762939453125</AltitudeMeters>
            <DistanceMeters>NAN</DistanceMeters>
          </Trackpoint>
          <Trackpoint>
            <Time>2021-08-11T12:15:04.000Z</Time>
            <Position>
              <LatitudeDegrees>43.32604265771806240081787109375</LatitudeDegrees>
              <LongitudeDegrees>-1.7888223566114902496337890625</LongitudeDegrees>
            </Position>
            <AltitudeMeters>27.200000762939453125</AltitudeMeters>
            <DistanceMeters>NAN</DistanceMeters>
          </Trackpoint>
          <Trackpoint>
            <Time>2021-08-11T12:15:07.000Z</Time>
            <Position>
              <LatitudeDegrees>43.3259242214262485504150390625</LatitudeDegrees>
              <LongitudeDegrees>-1.78870492614805698394775390625</LongitudeDegrees>
            </Position>
            <AltitudeMeters>27</AltitudeMeters>
            <DistanceMeters>NAN</DistanceMeters>
          </Trackpoint>
          <Trackpoint>
            <Time>2021-08-11T12:15:10.000Z</Time>
            <Position>
              <LatitudeDegrees>43.32581735216081142425537109375</LatitudeDegrees>
              <LongitudeDegrees>-1.7887150682508945465087890625</LongitudeDegrees>
            </Position>
            <AltitudeMeters>27.200000762939453125</AltitudeMeters>
            <DistanceMeters>NAN</DistanceMeters>
          </Trackpoint>
          <Trackpoint>
            <Time>2021-08-11T12:15:11.000Z</Time>
            <Position>
              <LatitudeDegrees>43.3257686533033847808837890625</LatitudeDegrees>
              <LongitudeDegrees>-1.78872135467827320098876953125</LongitudeDegrees>
            </Position>
            <AltitudeMeters>27.200000762939453125</AltitudeMeters>
            <DistanceMeters>NAN</DistanceMeters>
          </Trackpoint>
          <Trackpoint>
            <Time>2021-08-11T12:15:14.000Z</Time>
            <Position>
              <LatitudeDegrees>43.32566094584763050079345703125</LatitudeDegrees>
              <LongitudeDegrees>-1.7887643538415431976318359375</LongitudeDegrees>
            </Position>
            <AltitudeMeters>27.3999996185302734375</AltitudeMeters>
            <DistanceMeters>NAN</DistanceMeters>
          </Trackpoint>
          <Trackpoint>
            <Time>2021-08-11T12:15:15.000Z</Time>
            <Position>
              <LatitudeDegrees>43.3256231434643268585205078125</LatitudeDegrees>
              <LongitudeDegrees>-1.78880064748227596282958984375</LongitudeDegrees>
            </Position>
            <AltitudeMeters>27.6000003814697265625</AltitudeMeters>
            <DistanceMeters>NAN</DistanceMeters>
          </Trackpoint>
          <Trackpoint>
            <Time>2021-08-11T12:15:16.000Z</Time>
            <Position>
              <LatitudeDegrees>43.32557310350239276885986328125</LatitudeDegrees>
              <LongitudeDegrees>-1.7888236977159976959228515625</LongitudeDegrees>
            </Position>
            <AltitudeMeters>27.6000003814697265625</AltitudeMeters>
            <DistanceMeters>NAN</DistanceMeters>
          </Trackpoint>
          <Trackpoint>
            <Time>2021-08-11T12:15:20.000Z</Time>
            <Position>
              <LatitudeDegrees>43.32543714903295040130615234375</LatitudeDegrees>
              <LongitudeDegrees>-1.78890801966190338134765625</LongitudeDegrees>
            </Position>
            <AltitudeMeters>27.799999237060546875</AltitudeMeters>
            <DistanceMeters>NAN</DistanceMeters>
          </Trackpoint>
          <Trackpoint>
            <Time>2021-08-11T12:15:25.000Z</Time>
            <Position>
              <LatitudeDegrees>43.325311504304409027099609375</LatitudeDegrees>
              <LongitudeDegrees>-1.78903483785688877105712890625</LongitudeDegrees>
            </Position>
            <AltitudeMeters>28.200000762939453125</AltitudeMeters>
            <DistanceMeters>NAN</DistanceMeters>
          </Trackpoint>
          <Trackpoint>
            <Time>2021-08-11T12:15:26.000Z</Time>
            <Position>
              <LatitudeDegrees>43.32529197447001934051513671875</LatitudeDegrees>
              <LongitudeDegrees>-1.789047829806804656982421875</LongitudeDegrees>
            </Position>
            <AltitudeMeters>28.200000762939453125</AltitudeMeters>
            <DistanceMeters>NAN</DistanceMeters>
          </Trackpoint>
          <Trackpoint>
            <Time>2021-08-11T12:15:27.000Z</Time>
            <Position>
              <LatitudeDegrees>43.32527571357786655426025390625</LatitudeDegrees>
              <LongitudeDegrees>-1.789067275822162628173828125</LongitudeDegrees>
            </Position>
            <AltitudeMeters>28.3999996185302734375</AltitudeMeters>
            <DistanceMeters>NAN</DistanceMeters>
          </Trackpoint>
          <Trackpoint>
            <Time>2021-08-11T12:15:28.000Z</Time>
            <Position>
              <LatitudeDegrees>43.3252617157995700836181640625</LatitudeDegrees>
              <LongitudeDegrees>-1.78908982314169406890869140625</LongitudeDegrees>
            </Position>
            <AltitudeMeters>28.3999996185302734375</AltitudeMeters>
            <DistanceMeters>NAN</DistanceMeters>
          </Trackpoint>
          <Trackpoint>
            <Time>2021-08-11T12:15:29.000Z</Time>
            <Position>
              <LatitudeDegrees>43.32524654455482959747314453125</LatitudeDegrees>
              <LongitudeDegrees>-1.78910382091999053955078125</LongitudeDegrees>
            </Position>
            <AltitudeMeters>28.3999996185302734375</AltitudeMeters>
            <DistanceMeters>NAN</DistanceMeters>
          </Trackpoint>
          <Trackpoint>
            <Time>2021-08-11T12:15:30.000Z</Time>
            <Position>
              <LatitudeDegrees>43.32523480989038944244384765625</LatitudeDegrees>
              <LongitudeDegrees>-1.7891116999089717864990234375</LongitudeDegrees>
            </Position>
            <AltitudeMeters>28.6000003814697265625</AltitudeMeters>
            <DistanceMeters>NAN</DistanceMeters>
          </Trackpoint>
          <Trackpoint>
            <Time>2021-08-11T12:15:31.000Z</Time>
            <Position>
              <LatitudeDegrees>43.32522869110107421875</LatitudeDegrees>
              <LongitudeDegrees>-1.78911396302282810211181640625</LongitudeDegrees>
            </Position>
            <AltitudeMeters>28.6000003814697265625</AltitudeMeters>
            <DistanceMeters>NAN</DistanceMeters>
          </Trackpoint>
          <Trackpoint>
            <Time>2021-08-11T12:15:36.000Z</Time>
            <Position>
              <LatitudeDegrees>43.32522869110107421875</LatitudeDegrees>
              <LongitudeDegrees>-1.78911396302282810211181640625</LongitudeDegrees>
            </Position>
            <AltitudeMeters>29</AltitudeMeters>
            <DistanceMeters>NAN</DistanceMeters>
          </Trackpoint>
          <Trackpoint>
            <Time>2021-08-11T12:15:46.000Z</Time>
            <Position>
              <LatitudeDegrees>43.32522869110107421875</LatitudeDegrees>
              <LongitudeDegrees>-1.78911396302282810211181640625</LongitudeDegrees>
            </Position>
            <AltitudeMeters>29</AltitudeMeters>
            <DistanceMeters>NAN</DistanceMeters>
          </Trackpoint>
          <Trackpoint>
            <Time>2021-08-11T12:16:08.000Z</Time>
            <Position>
              <LatitudeDegrees>43.3252275176346302032470703125</LatitudeDegrees>
              <LongitudeDegrees>-1.789113543927669525146484375</LongitudeDegrees>
            </Position>
            <AltitudeMeters>28.6000003814697265625</AltitudeMeters>
            <DistanceMeters>NAN</DistanceMeters>
          </Trackpoint>
          <Trackpoint>
            <Time>2021-08-11T12:16:09.000Z</Time>
            <Position>
              <LatitudeDegrees>43.325215615332126617431640625</LatitudeDegrees>
              <LongitudeDegrees>-1.78911077789962291717529296875</LongitudeDegrees>
            </Position>
            <AltitudeMeters>28.6000003814697265625</AltitudeMeters>
            <DistanceMeters>NAN</DistanceMeters>
          </Trackpoint>
          <Trackpoint>
            <Time>2021-08-11T12:16:11.000Z</Time>
            <Position>
              <LatitudeDegrees>43.3251782320439815521240234375</LatitudeDegrees>
              <LongitudeDegrees>-1.78913340903818607330322265625</LongitudeDegrees>
            </Position>
            <AltitudeMeters>28.6000003814697265625</AltitudeMeters>
            <DistanceMeters>NAN</DistanceMeters>
          </Trackpoint>
          <Trackpoint>
            <Time>2021-08-11T12:16:12.000Z</Time>
            <Position>
              <LatitudeDegrees>43.3251574449241161346435546875</LatitudeDegrees>
              <LongitudeDegrees>-1.78914564661681652069091796875</LongitudeDegrees>
            </Position>
            <AltitudeMeters>28.6000003814697265625</AltitudeMeters>
            <DistanceMeters>NAN</DistanceMeters>
          </Trackpoint>
          <Trackpoint>
            <Time>2021-08-11T12:16:13.000Z</Time>
            <Position>
              <LatitudeDegrees>43.32513154484331607818603515625</LatitudeDegrees>
              <LongitudeDegrees>-1.78915319032967090606689453125</LongitudeDegrees>
            </Position>
            <AltitudeMeters>28.799999237060546875</AltitudeMeters>
            <DistanceMeters>NAN</DistanceMeters>
          </Trackpoint>
          <Trackpoint>
            <Time>2021-08-11T12:16:17.000Z</Time>
            <Position>
              <LatitudeDegrees>43.3250109292566776275634765625</LatitudeDegrees>
              <LongitudeDegrees>-1.78921035490930080413818359375</LongitudeDegrees>
            </Position>
            <AltitudeMeters>29</AltitudeMeters>
            <DistanceMeters>NAN</DistanceMeters>
          </Trackpoint>
          <Trackpoint>
            <Time>2021-08-11T12:16:19.000Z</Time>
            <Position>
              <LatitudeDegrees>43.32495351321995258331298828125</LatitudeDegrees>
              <LongitudeDegrees>-1.789237596094608306884765625</LongitudeDegrees>
            </Position>
            <AltitudeMeters>29</AltitudeMeters>
            <DistanceMeters>NAN</DistanceMeters>
          </Trackpoint>
          <Trackpoint>
            <Time>2021-08-11T12:16:21.000Z</Time>
            <Position>
              <LatitudeDegrees>43.32489073276519775390625</LatitudeDegrees>
              <LongitudeDegrees>-1.78926517255604267120361328125</LongitudeDegrees>
            </Position>
            <AltitudeMeters>29.3999996185302734375</AltitudeMeters>
            <DistanceMeters>NAN</DistanceMeters>
          </Trackpoint>
          <Trackpoint>
            <Time>2021-08-11T12:16:24.000Z</Time>
            <Position>
              <LatitudeDegrees>43.32479727454483509063720703125</LatitudeDegrees>
              <LongitudeDegrees>-1.78930708207190036773681640625</LongitudeDegrees>
            </Position>
            <AltitudeMeters>29.799999237060546875</AltitudeMeters>
            <DistanceMeters>NAN</DistanceMeters>
          </Trackpoint>
          <Trackpoint>
            <Time>2021-08-11T12:16:28.000Z</Time>
            <Position>
              <LatitudeDegrees>43.324682526290416717529296875</LatitudeDegrees>
              <LongitudeDegrees>-1.789325438439846038818359375</LongitudeDegrees>
            </Position>
            <AltitudeMeters>30.200000762939453125</AltitudeMeters>
            <DistanceMeters>NAN</DistanceMeters>
          </Trackpoint>
          <Trackpoint>
            <Time>2021-08-11T12:16:29.000Z</Time>
            <Position>
              <LatitudeDegrees>43.32465042360126972198486328125</LatitudeDegrees>
              <LongitudeDegrees>-1.78932988084852695465087890625</LongitudeDegrees>
            </Position>
            <AltitudeMeters>30.3999996185302734375</AltitudeMeters>
            <DistanceMeters>NAN</DistanceMeters>
          </Trackpoint>
          <Trackpoint>
            <Time>2021-08-11T12:16:30.000Z</Time>
            <Position>
              <LatitudeDegrees>43.32461840473115444183349609375</LatitudeDegrees>
              <LongitudeDegrees>-1.78933591581881046295166015625</LongitudeDegrees>
            </Position>
            <AltitudeMeters>30.3999996185302734375</AltitudeMeters>
            <DistanceMeters>NAN</DistanceMeters>
          </Trackpoint>
          <Trackpoint>
            <Time>2021-08-11T12:16:31.000Z</Time>
            <Position>
              <LatitudeDegrees>43.3245800994336605072021484375</LatitudeDegrees>
              <LongitudeDegrees>-1.7893440462648868560791015625</LongitudeDegrees>
            </Position>
            <AltitudeMeters>30.6000003814697265625</AltitudeMeters>
            <DistanceMeters>NAN</DistanceMeters>
          </Trackpoint>
          <Trackpoint>
            <Time>2021-08-11T12:16:35.000Z</Time>
            <Position>
              <LatitudeDegrees>43.3244335837662220001220703125</LatitudeDegrees>
              <LongitudeDegrees>-1.789407245814800262451171875</LongitudeDegrees>
            </Position>
            <AltitudeMeters>31.200000762939453125</AltitudeMeters>
            <DistanceMeters>NAN</DistanceMeters>
          </Trackpoint>
          <Trackpoint>
            <Time>2021-08-11T12:16:36.000Z</Time>
            <Position>
              <LatitudeDegrees>43.32440164871513843536376953125</LatitudeDegrees>
              <LongitudeDegrees>-1.7894382588565349578857421875</LongitudeDegrees>
            </Position>
            <AltitudeMeters>31.3999996185302734375</AltitudeMeters>
            <DistanceMeters>NAN</DistanceMeters>
          </Trackpoint>
          <Trackpoint>
            <Time>2021-08-11T12:16:37.000Z</Time>
            <Position>
              <LatitudeDegrees>43.32437331788241863250732421875</LatitudeDegrees>
              <LongitudeDegrees>-1.78947639651596546173095703125</LongitudeDegrees>
            </Position>
            <AltitudeMeters>31.3999996185302734375</AltitudeMeters>
            <DistanceMeters>NAN</DistanceMeters>
          </Trackpoint>
          <Trackpoint>
            <Time>2021-08-11T12:16:38.000Z</Time>
            <Position>
              <LatitudeDegrees>43.32434691488742828369140625</LatitudeDegrees>
              <LongitudeDegrees>-1.7895126901566982269287109375</LongitudeDegrees>
            </Position>
            <AltitudeMeters>31.6000003814697265625</AltitudeMeters>
            <DistanceMeters>NAN</DistanceMeters>
          </Trackpoint>
          <Trackpoint>
            <Time>2021-08-11T12:16:41.000Z</Time>
            <Position>
              <LatitudeDegrees>43.3242719806730747222900390625</LatitudeDegrees>
              <LongitudeDegrees>-1.7896221578121185302734375</LongitudeDegrees>
            </Position>
            <AltitudeMeters>32</AltitudeMeters>
            <DistanceMeters>NAN</DistanceMeters>
          </Trackpoint>
          <Trackpoint>
            <Time>2021-08-11T12:16:42.000Z</Time>
            <Position>
              <LatitudeDegrees>43.32424700260162353515625</LatitudeDegrees>
              <LongitudeDegrees>-1.7896650731563568115234375</LongitudeDegrees>
            </Position>
            <AltitudeMeters>32</AltitudeMeters>
            <DistanceMeters>NAN</DistanceMeters>
          </Trackpoint>
          <Trackpoint>
            <Time>2021-08-11T12:16:43.000Z</Time>
            <Position>
              <LatitudeDegrees>43.3242220245301723480224609375</LatitudeDegrees>
              <LongitudeDegrees>-1.7897111736238002777099609375</LongitudeDegrees>
            </Position>
            <AltitudeMeters>32</AltitudeMeters>
            <DistanceMeters>NAN</DistanceMeters>
          </Trackpoint>
          <Trackpoint>
            <Time>2021-08-11T12:16:44.000Z</Time>
            <Position>
              <LatitudeDegrees>43.32418858073651790618896484375</LatitudeDegrees>
              <LongitudeDegrees>-1.78974612616002559661865234375</LongitudeDegrees>
            </Position>
            <AltitudeMeters>32.200000762939453125</AltitudeMeters>
            <DistanceMeters>NAN</DistanceMeters>
          </Trackpoint>
          <Trackpoint>
            <Time>2021-08-11T12:16:45.000Z</Time>
            <Position>
              <LatitudeDegrees>43.32415589131414890289306640625</LatitudeDegrees>
              <LongitudeDegrees>-1.7897788994014263153076171875</LongitudeDegrees>
            </Position>
            <AltitudeMeters>32.40000152587890625</AltitudeMeters>
            <DistanceMeters>NAN</DistanceMeters>
          </Trackpoint>
          <Trackpoint>
            <Time>2021-08-11T12:16:46.000Z</Time>
            <Position>
              <LatitudeDegrees>43.32412705756723880767822265625</LatitudeDegrees>
              <LongitudeDegrees>-1.7898097448050975799560546875</LongitudeDegrees>
            </Position>
            <AltitudeMeters>32.40000152587890625</AltitudeMeters>
            <DistanceMeters>NAN</DistanceMeters>
          </Trackpoint>
          <Trackpoint>
            <Time>2021-08-11T12:16:47.000Z</Time>
            <Position>
              <LatitudeDegrees>43.32409386523067951202392578125</LatitudeDegrees>
              <LongitudeDegrees>-1.78984318859875202178955078125</LongitudeDegrees>
            </Position>
            <AltitudeMeters>32.59999847412109375</AltitudeMeters>
            <DistanceMeters>NAN</DistanceMeters>
          </Trackpoint>
          <Trackpoint>
            <Time>2021-08-11T12:16:48.000Z</Time>
            <Position>
              <LatitudeDegrees>43.3240614272654056549072265625</LatitudeDegrees>
              <LongitudeDegrees>-1.78986917249858379364013671875</LongitudeDegrees>
            </Position>
            <AltitudeMeters>32.799999237060546875</AltitudeMeters>
            <DistanceMeters>NAN</DistanceMeters>
          </Trackpoint>
          <Trackpoint>
            <Time>2021-08-11T12:16:49.000Z</Time>
            <Position>
              <LatitudeDegrees>43.32402697764337062835693359375</LatitudeDegrees>
              <LongitudeDegrees>-1.78990052081644535064697265625</LongitudeDegrees>
            </Position>
            <AltitudeMeters>32.799999237060546875</AltitudeMeters>
            <DistanceMeters>NAN</DistanceMeters>
          </Trackpoint>
          <Trackpoint>
            <Time>2021-08-11T12:16:50.000Z</Time>
            <Position>
              <LatitudeDegrees>43.3239943720400333404541015625</LatitudeDegrees>
              <LongitudeDegrees>-1.78992432542145252227783203125</LongitudeDegrees>
            </Position>
            <AltitudeMeters>33</AltitudeMeters>
            <DistanceMeters>NAN</DistanceMeters>
          </Trackpoint>
          <Trackpoint>
            <Time>2021-08-11T12:16:51.000Z</Time>
            <Position>
              <LatitudeDegrees>43.32396067678928375244140625</LatitudeDegrees>
              <LongitudeDegrees>-1.78995198570191860198974609375</LongitudeDegrees>
            </Position>
            <AltitudeMeters>33</AltitudeMeters>
            <DistanceMeters>NAN</DistanceMeters>
          </Trackpoint>
          <Trackpoint>
            <Time>2021-08-11T12:16:52.000Z</Time>
            <Position>
              <LatitudeDegrees>43.32392505370080471038818359375</LatitudeDegrees>
              <LongitudeDegrees>-1.78997528739273548126220703125</LongitudeDegrees>
            </Position>
            <AltitudeMeters>33</AltitudeMeters>
            <DistanceMeters>NAN</DistanceMeters>
          </Trackpoint>
          <Trackpoint>
            <Time>2021-08-11T12:16:53.000Z</Time>
            <Position>
              <LatitudeDegrees>43.323887921869754791259765625</LatitudeDegrees>
              <LongitudeDegrees>-1.79000445641577243804931640625</LongitudeDegrees>
            </Position>
            <AltitudeMeters>33.200000762939453125</AltitudeMeters>
            <DistanceMeters>NAN</DistanceMeters>
          </Trackpoint>
          <Trackpoint>
            <Time>2021-08-11T12:16:54.000Z</Time>
            <Position>
              <LatitudeDegrees>43.32385229878127574920654296875</LatitudeDegrees>
              <LongitudeDegrees>-1.79003454744815826416015625</LongitudeDegrees>
            </Position>
            <AltitudeMeters>33.200000762939453125</AltitudeMeters>
            <DistanceMeters>NAN</DistanceMeters>
          </Trackpoint>
          <Trackpoint>
            <Time>2021-08-11T12:16:55.000Z</Time>
            <Position>
              <LatitudeDegrees>43.3238210342824459075927734375</LatitudeDegrees>
              <LongitudeDegrees>-1.79005675949156284332275390625</LongitudeDegrees>
            </Position>
            <AltitudeMeters>33.40000152587890625</AltitudeMeters>
            <DistanceMeters>NAN</DistanceMeters>
          </Trackpoint>
          <Trackpoint>
            <Time>2021-08-11T12:16:56.000Z</Time>
            <Position>
              <LatitudeDegrees>43.3237911947071552276611328125</LatitudeDegrees>
              <LongitudeDegrees>-1.7900829948484897613525390625</LongitudeDegrees>
            </Position>
            <AltitudeMeters>33.40000152587890625</AltitudeMeters>
            <DistanceMeters>NAN</DistanceMeters>
          </Trackpoint>
          <Trackpoint>
            <Time>2021-08-11T12:16:57.000Z</Time>
            <Position>
              <LatitudeDegrees>43.3237647078931331634521484375</LatitudeDegrees>
              <LongitudeDegrees>-1.790110655128955841064453125</LongitudeDegrees>
            </Position>
            <AltitudeMeters>33.40000152587890625</AltitudeMeters>
            <DistanceMeters>NAN</DistanceMeters>
          </Trackpoint>
          <Trackpoint>
            <Time>2021-08-11T12:16:58.000Z</Time>
            <Position>
              <LatitudeDegrees>43.32373796962201595306396484375</LatitudeDegrees>
              <LongitudeDegrees>-1.79014024324715137481689453125</LongitudeDegrees>
            </Position>
            <AltitudeMeters>33.40000152587890625</AltitudeMeters>
            <DistanceMeters>NAN</DistanceMeters>
          </Trackpoint>
          <Trackpoint>
            <Time>2021-08-11T12:16:59.000Z</Time>
            <Position>
              <LatitudeDegrees>43.3237113989889621734619140625</LatitudeDegrees>
              <LongitudeDegrees>-1.79016840644180774688720703125</LongitudeDegrees>
            </Position>
            <AltitudeMeters>33.59999847412109375</AltitudeMeters>
            <DistanceMeters>NAN</DistanceMeters>
          </Trackpoint>
          <Trackpoint>
            <Time>2021-08-11T12:17:00.000Z</Time>
            <Position>
              <LatitudeDegrees>43.32368751056492328643798828125</LatitudeDegrees>
              <LongitudeDegrees>-1.790195144712924957275390625</LongitudeDegrees>
            </Position>
            <AltitudeMeters>33.59999847412109375</AltitudeMeters>
            <DistanceMeters>NAN</DistanceMeters>
          </Trackpoint>
          <Trackpoint>
            <Time>2021-08-11T12:17:01.000Z</Time>
            <Position>
              <LatitudeDegrees>43.3236636221408843994140625</LatitudeDegrees>
              <LongitudeDegrees>-1.7902229726314544677734375</LongitudeDegrees>
            </Position>
            <AltitudeMeters>33.59999847412109375</AltitudeMeters>
            <DistanceMeters>NAN</DistanceMeters>
          </Trackpoint>
          <Trackpoint>
            <Time>2021-08-11T12:17:02.000Z</Time>
            <Position>
              <LatitudeDegrees>43.32363990135490894317626953125</LatitudeDegrees>
              <LongitudeDegrees>-1.790253482758998870849609375</LongitudeDegrees>
            </Position>
            <AltitudeMeters>33.59999847412109375</AltitudeMeters>
            <DistanceMeters>NAN</DistanceMeters>
          </Trackpoint>
          <Trackpoint>
            <Time>2021-08-11T12:17:04.000Z</Time>
            <Position>
              <LatitudeDegrees>43.323592208325862884521484375</LatitudeDegrees>
              <LongitudeDegrees>-1.790318526327610015869140625</LongitudeDegrees>
            </Position>
            <AltitudeMeters>33.799999237060546875</AltitudeMeters>
            <DistanceMeters>NAN</DistanceMeters>
          </Trackpoint>
          <Trackpoint>
            <Time>2021-08-11T12:17:09.000Z</Time>
            <Position>
              <LatitudeDegrees>43.3234961517155170440673828125</LatitudeDegrees>
              <LongitudeDegrees>-1.79049915634095668792724609375</LongitudeDegrees>
            </Position>
            <AltitudeMeters>34.200000762939453125</AltitudeMeters>
            <DistanceMeters>NAN</DistanceMeters>
          </Trackpoint>
          <Trackpoint>
            <Time>2021-08-11T12:17:12.000Z</Time>
            <Position>
              <LatitudeDegrees>43.32344435155391693115234375</LatitudeDegrees>
              <LongitudeDegrees>-1.790610216557979583740234375</LongitudeDegrees>
            </Position>
            <AltitudeMeters>34.59999847412109375</AltitudeMeters>
            <DistanceMeters>NAN</DistanceMeters>
          </Trackpoint>
          <Trackpoint>
            <Time>2021-08-11T12:17:13.000Z</Time>
            <Position>
              <LatitudeDegrees>43.3234321139752864837646484375</LatitudeDegrees>
              <LongitudeDegrees>-1.7906372062861919403076171875</LongitudeDegrees>
            </Position>
            <AltitudeMeters>34.40000152587890625</AltitudeMeters>
            <DistanceMeters>NAN</DistanceMeters>
          </Trackpoint>
          <Trackpoint>
            <Time>2021-08-11T12:17:14.000Z</Time>
            <Position>
              <LatitudeDegrees>43.3234190382063388824462890625</LatitudeDegrees>
              <LongitudeDegrees>-1.79066880606114864349365234375</LongitudeDegrees>
            </Position>
            <AltitudeMeters>34.59999847412109375</AltitudeMeters>
            <DistanceMeters>NAN</DistanceMeters>
          </Trackpoint>
          <Trackpoint>
            <Time>2021-08-11T12:17:15.000Z</Time>
            <Position>
              <LatitudeDegrees>43.3234026096761226654052734375</LatitudeDegrees>
              <LongitudeDegrees>-1.79070518352091312408447265625</LongitudeDegrees>
            </Position>
            <AltitudeMeters>34.59999847412109375</AltitudeMeters>
            <DistanceMeters>NAN</DistanceMeters>
          </Trackpoint>
          <Trackpoint>
            <Time>2021-08-11T12:17:16.000Z</Time>
            <Position>
              <LatitudeDegrees>43.323385678231716156005859375</LatitudeDegrees>
              <LongitudeDegrees>-1.79073954932391643524169921875</LongitudeDegrees>
            </Position>
            <AltitudeMeters>34.799999237060546875</AltitudeMeters>
            <DistanceMeters>NAN</DistanceMeters>
          </Trackpoint>
          <Trackpoint>
            <Time>2021-08-11T12:17:20.000Z</Time>
            <Position>
              <LatitudeDegrees>43.3233063854277133941650390625</LatitudeDegrees>
              <LongitudeDegrees>-1.7908749170601367950439453125</LongitudeDegrees>
            </Position>
            <AltitudeMeters>35.40000152587890625</AltitudeMeters>
            <DistanceMeters>NAN</DistanceMeters>
          </Trackpoint>
          <Trackpoint>
            <Time>2021-08-11T12:17:21.000Z</Time>
            <Position>
              <LatitudeDegrees>43.32328610122203826904296875</LatitudeDegrees>
              <LongitudeDegrees>-1.79090936668217182159423828125</LongitudeDegrees>
            </Position>
            <AltitudeMeters>35.59999847412109375</AltitudeMeters>
            <DistanceMeters>NAN</DistanceMeters>
          </Trackpoint>
          <Trackpoint>
            <Time>2021-08-11T12:17:23.000Z</Time>
            <Position>
              <LatitudeDegrees>43.323249556124210357666015625</LatitudeDegrees>
              <LongitudeDegrees>-1.79097290150821208953857421875</LongitudeDegrees>
            </Position>
            <AltitudeMeters>36</AltitudeMeters>
            <DistanceMeters>NAN</DistanceMeters>
          </Trackpoint>
          <Trackpoint>
            <Time>2021-08-11T12:17:24.000Z</Time>
            <Position>
              <LatitudeDegrees>43.32322684116661548614501953125</LatitudeDegrees>
              <LongitudeDegrees>-1.79100626148283481597900390625</LongitudeDegrees>
            </Position>
            <AltitudeMeters>36.200000762939453125</AltitudeMeters>
            <DistanceMeters>NAN</DistanceMeters>
          </Trackpoint>
          <Trackpoint>
            <Time>2021-08-11T12:17:25.000Z</Time>
            <Position>
              <LatitudeDegrees>43.3232047967612743377685546875</LatitudeDegrees>
              <LongitudeDegrees>-1.791040711104869842529296875</LongitudeDegrees>
            </Position>
            <AltitudeMeters>36.200000762939453125</AltitudeMeters>
            <DistanceMeters>NAN</DistanceMeters>
          </Trackpoint>
          <Trackpoint>
            <Time>2021-08-11T12:17:26.000Z</Time>
            <Position>
              <LatitudeDegrees>43.3231833390891551971435546875</LatitudeDegrees>
              <LongitudeDegrees>-1.79107096977531909942626953125</LongitudeDegrees>
            </Position>
            <AltitudeMeters>36.200000762939453125</AltitudeMeters>
            <DistanceMeters>NAN</DistanceMeters>
          </Trackpoint>
          <Trackpoint>
            <Time>2021-08-11T12:17:27.000Z</Time>
            <Position>
              <LatitudeDegrees>43.32316246815025806427001953125</LatitudeDegrees>
              <LongitudeDegrees>-1.79110198281705379486083984375</LongitudeDegrees>
            </Position>
            <AltitudeMeters>36.40000152587890625</AltitudeMeters>
            <DistanceMeters>NAN</DistanceMeters>
          </Trackpoint>
          <Trackpoint>
            <Time>2021-08-11T12:17:28.000Z</Time>
            <Position>
              <LatitudeDegrees>43.32314587198197841644287109375</LatitudeDegrees>
              <LongitudeDegrees>-1.7911295592784881591796875</LongitudeDegrees>
            </Position>
            <AltitudeMeters>36.40000152587890625</AltitudeMeters>
            <DistanceMeters>NAN</DistanceMeters>
          </Trackpoint>
          <Trackpoint>
            <Time>2021-08-11T12:17:29.000Z</Time>
            <Position>
              <LatitudeDegrees>43.32313212566077709197998046875</LatitudeDegrees>
              <LongitudeDegrees>-1.79115529172122478485107421875</LongitudeDegrees>
            </Position>
            <AltitudeMeters>36.59999847412109375</AltitudeMeters>
            <DistanceMeters>NAN</DistanceMeters>
          </Trackpoint>
          <Trackpoint>
            <Time>2021-08-11T12:17:30.000Z</Time>
            <Position>
              <LatitudeDegrees>43.3231176249682903289794921875</LatitudeDegrees>
              <LongitudeDegrees>-1.79118278436362743377685546875</LongitudeDegrees>
            </Position>
            <AltitudeMeters>36.59999847412109375</AltitudeMeters>
            <DistanceMeters>NAN</DistanceMeters>
          </Trackpoint>
          <Trackpoint>
            <Time>2021-08-11T12:17:31.000Z</Time>
            <Position>
              <LatitudeDegrees>43.32310111261904239654541015625</LatitudeDegrees>
              <LongitudeDegrees>-1.79120742715895175933837890625</LongitudeDegrees>
            </Position>
            <AltitudeMeters>36.799999237060546875</AltitudeMeters>
            <DistanceMeters>NAN</DistanceMeters>
          </Trackpoint>
          <Trackpoint>
            <Time>2021-08-11T12:17:32.000Z</Time>
            <Position>
              <LatitudeDegrees>43.3230824209749698638916015625</LatitudeDegrees>
              <LongitudeDegrees>-1.791230142116546630859375</LongitudeDegrees>
            </Position>
            <AltitudeMeters>37</AltitudeMeters>
            <DistanceMeters>NAN</DistanceMeters>
          </Trackpoint>
          <Trackpoint>
            <Time>2021-08-11T12:17:33.000Z</Time>
            <Position>
              <LatitudeDegrees>43.3230582810938358306884765625</LatitudeDegrees>
              <LongitudeDegrees>-1.79125235415995121002197265625</LongitudeDegrees>
            </Position>
            <AltitudeMeters>37</AltitudeMeters>
            <DistanceMeters>NAN</DistanceMeters>
          </Trackpoint>
          <Trackpoint>
            <Time>2021-08-11T12:17:34.000Z</Time>
            <Position>
              <LatitudeDegrees>43.32303103990852832794189453125</LatitudeDegrees>
              <LongitudeDegrees>-1.791278086602687835693359375</LongitudeDegrees>
            </Position>
            <AltitudeMeters>37.200000762939453125</AltitudeMeters>
            <DistanceMeters>NAN</DistanceMeters>
          </Trackpoint>
          <Trackpoint>
            <Time>2021-08-11T12:17:35.000Z</Time>
            <Position>
              <LatitudeDegrees>43.32300472073256969451904296875</LatitudeDegrees>
              <LongitudeDegrees>-1.7913107760250568389892578125</LongitudeDegrees>
            </Position>
            <AltitudeMeters>37.200000762939453125</AltitudeMeters>
            <DistanceMeters>NAN</DistanceMeters>
          </Trackpoint>
          <Trackpoint>
            <Time>2021-08-11T12:17:36.000Z</Time>
            <Position>
              <LatitudeDegrees>43.32297756336629390716552734375</LatitudeDegrees>
              <LongitudeDegrees>-1.7913399450480937957763671875</LongitudeDegrees>
            </Position>
            <AltitudeMeters>37.40000152587890625</AltitudeMeters>
            <DistanceMeters>NAN</DistanceMeters>
          </Trackpoint>
          <Trackpoint>
            <Time>2021-08-11T12:17:37.000Z</Time>
            <Position>
              <LatitudeDegrees>43.32295082509517669677734375</LatitudeDegrees>
              <LongitudeDegrees>-1.79136467166244983673095703125</LongitudeDegrees>
            </Position>
            <AltitudeMeters>37.40000152587890625</AltitudeMeters>
            <DistanceMeters>NAN</DistanceMeters>
          </Trackpoint>
          <Trackpoint>
            <Time>2021-08-11T12:17:38.000Z</Time>
            <Position>
              <LatitudeDegrees>43.32291997969150543212890625</LatitudeDegrees>
              <LongitudeDegrees>-1.79138495586812496185302734375</LongitudeDegrees>
            </Position>
            <AltitudeMeters>37.40000152587890625</AltitudeMeters>
            <DistanceMeters>NAN</DistanceMeters>
          </Trackpoint>
          <Trackpoint>
            <Time>2021-08-11T12:17:39.000Z</Time>
            <Position>
              <LatitudeDegrees>43.3228916488587856292724609375</LatitudeDegrees>
              <LongitudeDegrees>-1.7913999594748020172119140625</LongitudeDegrees>
            </Position>
            <AltitudeMeters>37.59999847412109375</AltitudeMeters>
            <DistanceMeters>NAN</DistanceMeters>
          </Trackpoint>
          <Trackpoint>
            <Time>2021-08-11T12:17:40.000Z</Time>
            <Position>
              <LatitudeDegrees>43.32286440767347812652587890625</LatitudeDegrees>
              <LongitudeDegrees>-1.7914126999676227569580078125</LongitudeDegrees>
            </Position>
            <AltitudeMeters>37.59999847412109375</AltitudeMeters>
            <DistanceMeters>NAN</DistanceMeters>
          </Trackpoint>
          <Trackpoint>
            <Time>2021-08-11T12:17:41.000Z</Time>
            <Position>
              <LatitudeDegrees>43.32283641211688518524169921875</LatitudeDegrees>
              <LongitudeDegrees>-1.7914287932217121124267578125</LongitudeDegrees>
            </Position>
            <AltitudeMeters>37.799999237060546875</AltitudeMeters>
            <DistanceMeters>NAN</DistanceMeters>
          </Trackpoint>
          <Trackpoint>
            <Time>2021-08-11T12:17:42.000Z</Time>
            <Position>
              <LatitudeDegrees>43.322806321084499359130859375</LatitudeDegrees>
              <LongitudeDegrees>-1.7914519272744655609130859375</LongitudeDegrees>
            </Position>
            <AltitudeMeters>38</AltitudeMeters>
            <DistanceMeters>NAN</DistanceMeters>
          </Trackpoint>
          <Trackpoint>
            <Time>2021-08-11T12:17:43.000Z</Time>
            <Position>
              <LatitudeDegrees>43.3227763138711452484130859375</LatitudeDegrees>
              <LongitudeDegrees>-1.79147623479366302490234375</LongitudeDegrees>
            </Position>
            <AltitudeMeters>38</AltitudeMeters>
            <DistanceMeters>NAN</DistanceMeters>
          </Trackpoint>
          <Trackpoint>
            <Time>2021-08-11T12:17:44.000Z</Time>
            <Position>
              <LatitudeDegrees>43.3227488212287425994873046875</LatitudeDegrees>
              <LongitudeDegrees>-1.79149760864675045013427734375</LongitudeDegrees>
            </Position>
            <AltitudeMeters>38</AltitudeMeters>
            <DistanceMeters>NAN</DistanceMeters>
          </Trackpoint>
          <Trackpoint>
            <Time>2021-08-11T12:17:45.000Z</Time>
            <Position>
              <LatitudeDegrees>43.32272375933825969696044921875</LatitudeDegrees>
              <LongitudeDegrees>-1.791517473757266998291015625</LongitudeDegrees>
            </Position>
            <AltitudeMeters>38.40000152587890625</AltitudeMeters>
            <DistanceMeters>NAN</DistanceMeters>
          </Trackpoint>
          <Trackpoint>
            <Time>2021-08-11T12:17:46.000Z</Time>
            <Position>
              <LatitudeDegrees>43.32269559614360332489013671875</LatitudeDegrees>
              <LongitudeDegrees>-1.79153616540133953094482421875</LongitudeDegrees>
            </Position>
            <AltitudeMeters>38.59999847412109375</AltitudeMeters>
            <DistanceMeters>NAN</DistanceMeters>
          </Trackpoint>
          <Trackpoint>
            <Time>2021-08-11T12:17:47.000Z</Time>
            <Position>
              <LatitudeDegrees>43.32266651093959808349609375</LatitudeDegrees>
              <LongitudeDegrees>-1.7915558628737926483154296875</LongitudeDegrees>
            </Position>
            <AltitudeMeters>38.59999847412109375</AltitudeMeters>
            <DistanceMeters>NAN</DistanceMeters>
          </Trackpoint>
          <Trackpoint>
            <Time>2021-08-11T12:17:48.000Z</Time>
            <Position>
              <LatitudeDegrees>43.32263994030654430389404296875</LatitudeDegrees>
              <LongitudeDegrees>-1.7915766499936580657958984375</LongitudeDegrees>
            </Position>
            <AltitudeMeters>38.799999237060546875</AltitudeMeters>
            <DistanceMeters>NAN</DistanceMeters>
          </Trackpoint>
          <Trackpoint>
            <Time>2021-08-11T12:17:49.000Z</Time>
            <Position>
              <LatitudeDegrees>43.3226143755018711090087890625</LatitudeDegrees>
              <LongitudeDegrees>-1.79159902967512607574462890625</LongitudeDegrees>
            </Position>
            <AltitudeMeters>39</AltitudeMeters>
            <DistanceMeters>NAN</DistanceMeters>
          </Trackpoint>
          <Trackpoint>
            <Time>2021-08-11T12:17:50.000Z</Time>
            <Position>
              <LatitudeDegrees>43.32259048707783222198486328125</LatitudeDegrees>
              <LongitudeDegrees>-1.79162300191819667816162109375</LongitudeDegrees>
            </Position>
            <AltitudeMeters>39.200000762939453125</AltitudeMeters>
            <DistanceMeters>NAN</DistanceMeters>
          </Trackpoint>
          <Trackpoint>
            <Time>2021-08-11T12:17:51.000Z</Time>
            <Position>
              <LatitudeDegrees>43.3225650899112224578857421875</LatitudeDegrees>
              <LongitudeDegrees>-1.79165728390216827392578125</LongitudeDegrees>
            </Position>
            <AltitudeMeters>39.40000152587890625</AltitudeMeters>
            <DistanceMeters>NAN</DistanceMeters>
          </Trackpoint>
          <Trackpoint>
            <Time>2021-08-11T12:17:52.000Z</Time>
            <Position>
              <LatitudeDegrees>43.3225416205823421478271484375</LatitudeDegrees>
              <LongitudeDegrees>-1.79169039241969585418701171875</LongitudeDegrees>
            </Position>
            <AltitudeMeters>39.59999847412109375</AltitudeMeters>
            <DistanceMeters>NAN</DistanceMeters>
          </Trackpoint>
          <Trackpoint>
            <Time>2021-08-11T12:17:53.000Z</Time>
            <Position>
              <LatitudeDegrees>43.32251940853893756866455078125</LatitudeDegrees>
              <LongitudeDegrees>-1.79172894917428493499755859375</LongitudeDegrees>
            </Position>
            <AltitudeMeters>39.799999237060546875</AltitudeMeters>
            <DistanceMeters>NAN</DistanceMeters>
          </Trackpoint>
          <Trackpoint>
            <Time>2021-08-11T12:17:54.000Z</Time>
            <Position>
              <LatitudeDegrees>43.322497867047786712646484375</LatitudeDegrees>
              <LongitudeDegrees>-1.79177354089915752410888671875</LongitudeDegrees>
            </Position>
            <AltitudeMeters>39.799999237060546875</AltitudeMeters>
            <DistanceMeters>NAN</DistanceMeters>
          </Trackpoint>
          <Trackpoint>
            <Time>2021-08-11T12:17:55.000Z</Time>
            <Position>
              <LatitudeDegrees>43.32247615791857242584228515625</LatitudeDegrees>
              <LongitudeDegrees>-1.79181746207177639007568359375</LongitudeDegrees>
            </Position>
            <AltitudeMeters>40</AltitudeMeters>
            <DistanceMeters>NAN</DistanceMeters>
          </Trackpoint>
          <Trackpoint>
            <Time>2021-08-11T12:17:56.000Z</Time>
            <Position>
              <LatitudeDegrees>43.32245302386581897735595703125</LatitudeDegrees>
              <LongitudeDegrees>-1.791857443749904632568359375</LongitudeDegrees>
            </Position>
            <AltitudeMeters>40.200000762939453125</AltitudeMeters>
            <DistanceMeters>NAN</DistanceMeters>
          </Trackpoint>
          <Trackpoint>
            <Time>2021-08-11T12:17:57.000Z</Time>
            <Position>
              <LatitudeDegrees>43.32242670468986034393310546875</LatitudeDegrees>
              <LongitudeDegrees>-1.79189809598028659820556640625</LongitudeDegrees>
            </Position>
            <AltitudeMeters>40.40000152587890625</AltitudeMeters>
            <DistanceMeters>NAN</DistanceMeters>
          </Trackpoint>
          <Trackpoint>
            <Time>2021-08-11T12:17:58.000Z</Time>
            <Position>
              <LatitudeDegrees>43.322401307523250579833984375</LatitudeDegrees>
              <LongitudeDegrees>-1.791938580572605133056640625</LongitudeDegrees>
            </Position>
            <AltitudeMeters>40.40000152587890625</AltitudeMeters>
            <DistanceMeters>NAN</DistanceMeters>
          </Trackpoint>
          <Trackpoint>
            <Time>2021-08-11T12:17:59.000Z</Time>
            <Position>
              <LatitudeDegrees>43.3223796822130680084228515625</LatitudeDegrees>
              <LongitudeDegrees>-1.7919786460697650909423828125</LongitudeDegrees>
            </Position>
            <AltitudeMeters>40.59999847412109375</AltitudeMeters>
            <DistanceMeters>NAN</DistanceMeters>
          </Trackpoint>
          <Trackpoint>
            <Time>2021-08-11T12:18:00.000Z</Time>
            <Position>
              <LatitudeDegrees>43.32235747016966342926025390625</LatitudeDegrees>
              <LongitudeDegrees>-1.792021729052066802978515625</LongitudeDegrees>
            </Position>
            <AltitudeMeters>40.59999847412109375</AltitudeMeters>
            <DistanceMeters>NAN</DistanceMeters>
          </Trackpoint>
          <Trackpoint>
            <Time>2021-08-11T12:18:01.000Z</Time>
            <Position>
              <LatitudeDegrees>43.32233433611690998077392578125</LatitudeDegrees>
              <LongitudeDegrees>-1.79205852560698986053466796875</LongitudeDegrees>
            </Position>
            <AltitudeMeters>41</AltitudeMeters>
            <DistanceMeters>NAN</DistanceMeters>
          </Trackpoint>
          <Trackpoint>
            <Time>2021-08-11T12:18:02.000Z</Time>
            <Position>
              <LatitudeDegrees>43.32231187261641025543212890625</LatitudeDegrees>
              <LongitudeDegrees>-1.79210060276091098785400390625</LongitudeDegrees>
            </Position>
            <AltitudeMeters>41</AltitudeMeters>
            <DistanceMeters>NAN</DistanceMeters>
          </Trackpoint>
          <Trackpoint>
            <Time>2021-08-11T12:18:03.000Z</Time>
            <Position>
              <LatitudeDegrees>43.3222864754498004913330078125</LatitudeDegrees>
              <LongitudeDegrees>-1.7921348847448825836181640625</LongitudeDegrees>
            </Position>
            <AltitudeMeters>41.200000762939453125</AltitudeMeters>
            <DistanceMeters>NAN</DistanceMeters>
          </Trackpoint>
          <Trackpoint>
            <Time>2021-08-11T12:18:04.000Z</Time>
            <Position>
              <LatitudeDegrees>43.322261832654476165771484375</LatitudeDegrees>
              <LongitudeDegrees>-1.79217067547142505645751953125</LongitudeDegrees>
            </Position>
            <AltitudeMeters>41.40000152587890625</AltitudeMeters>
            <DistanceMeters>NAN</DistanceMeters>
          </Trackpoint>
          <Trackpoint>
            <Time>2021-08-11T12:18:05.000Z</Time>
            <Position>
              <LatitudeDegrees>43.322235681116580963134765625</LatitudeDegrees>
              <LongitudeDegrees>-1.79221007041633129119873046875</LongitudeDegrees>
            </Position>
            <AltitudeMeters>41.40000152587890625</AltitudeMeters>
            <DistanceMeters>NAN</DistanceMeters>
          </Trackpoint>
          <Trackpoint>
            <Time>2021-08-11T12:18:06.000Z</Time>
            <Position>
              <LatitudeDegrees>43.322209529578685760498046875</LatitudeDegrees>
              <LongitudeDegrees>-1.79225273430347442626953125</LongitudeDegrees>
            </Position>
            <AltitudeMeters>41.40000152587890625</AltitudeMeters>
            <DistanceMeters>NAN</DistanceMeters>
          </Trackpoint>
          <Trackpoint>
            <Time>2021-08-11T12:18:07.000Z</Time>
            <Position>
              <LatitudeDegrees>43.32218195311725139617919921875</LatitudeDegrees>
              <LongitudeDegrees>-1.792289279401302337646484375</LongitudeDegrees>
            </Position>
            <AltitudeMeters>41.59999847412109375</AltitudeMeters>
            <DistanceMeters>NAN</DistanceMeters>
          </Trackpoint>
          <Trackpoint>
            <Time>2021-08-11T12:18:08.000Z</Time>
            <Position>
              <LatitudeDegrees>43.32215395756065845489501953125</LatitudeDegrees>
              <LongitudeDegrees>-1.79232020862400531768798828125</LongitudeDegrees>
            </Position>
            <AltitudeMeters>41.799999237060546875</AltitudeMeters>
            <DistanceMeters>NAN</DistanceMeters>
          </Trackpoint>
          <Trackpoint>
            <Time>2021-08-11T12:18:09.000Z</Time>
            <Position>
              <LatitudeDegrees>43.32213082350790500640869140625</LatitudeDegrees>
              <LongitudeDegrees>-1.7923531495034694671630859375</LongitudeDegrees>
            </Position>
            <AltitudeMeters>42</AltitudeMeters>
            <DistanceMeters>NAN</DistanceMeters>
          </Trackpoint>
          <Trackpoint>
            <Time>2021-08-11T12:18:10.000Z</Time>
            <Position>
              <LatitudeDegrees>43.32210953347384929656982421875</LatitudeDegrees>
              <LongitudeDegrees>-1.79239665158092975616455078125</LongitudeDegrees>
            </Position>
            <AltitudeMeters>42</AltitudeMeters>
            <DistanceMeters>NAN</DistanceMeters>
          </Trackpoint>
          <Trackpoint>
            <Time>2021-08-11T12:18:11.000Z</Time>
            <Position>
              <LatitudeDegrees>43.32209042273461818695068359375</LatitudeDegrees>
              <LongitudeDegrees>-1.7924426682293415069580078125</LongitudeDegrees>
            </Position>
            <AltitudeMeters>42.200000762939453125</AltitudeMeters>
            <DistanceMeters>NAN</DistanceMeters>
          </Trackpoint>
          <Trackpoint>
            <Time>2021-08-11T12:18:12.000Z</Time>
            <Position>
              <LatitudeDegrees>43.32207365892827510833740234375</LatitudeDegrees>
              <LongitudeDegrees>-1.79248684085905551910400390625</LongitudeDegrees>
            </Position>
            <AltitudeMeters>42.40000152587890625</AltitudeMeters>
            <DistanceMeters>NAN</DistanceMeters>
          </Trackpoint>
          <Trackpoint>
            <Time>2021-08-11T12:18:13.000Z</Time>
            <Position>
              <LatitudeDegrees>43.322056643664836883544921875</LatitudeDegrees>
              <LongitudeDegrees>-1.79253210313618183135986328125</LongitudeDegrees>
            </Position>
            <AltitudeMeters>42.40000152587890625</AltitudeMeters>
            <DistanceMeters>NAN</DistanceMeters>
          </Trackpoint>
          <Trackpoint>
            <Time>2021-08-11T12:18:14.000Z</Time>
            <Position>
              <LatitudeDegrees>43.32203627564013004302978515625</LatitudeDegrees>
              <LongitudeDegrees>-1.792576611042022705078125</LongitudeDegrees>
            </Position>
            <AltitudeMeters>42.59999847412109375</AltitudeMeters>
            <DistanceMeters>NAN</DistanceMeters>
          </Trackpoint>
          <Trackpoint>
            <Time>2021-08-11T12:18:15.000Z</Time>
            <Position>
              <LatitudeDegrees>43.322017081081867218017578125</LatitudeDegrees>
              <LongitudeDegrees>-1.79262413643300533294677734375</LongitudeDegrees>
            </Position>
            <AltitudeMeters>42.59999847412109375</AltitudeMeters>
            <DistanceMeters>NAN</DistanceMeters>
          </Trackpoint>
          <Trackpoint>
            <Time>2021-08-11T12:18:16.000Z</Time>
            <Position>
              <LatitudeDegrees>43.32199872471392154693603515625</LatitudeDegrees>
              <LongitudeDegrees>-1.79267174564301967620849609375</LongitudeDegrees>
            </Position>
            <AltitudeMeters>42.799999237060546875</AltitudeMeters>
            <DistanceMeters>NAN</DistanceMeters>
          </Trackpoint>
          <Trackpoint>
            <Time>2021-08-11T12:18:17.000Z</Time>
            <Position>
              <LatitudeDegrees>43.3219786919653415679931640625</LatitudeDegrees>
              <LongitudeDegrees>-1.79271952249109745025634765625</LongitudeDegrees>
            </Position>
            <AltitudeMeters>42.799999237060546875</AltitudeMeters>
            <DistanceMeters>NAN</DistanceMeters>
          </Trackpoint>
          <Trackpoint>
            <Time>2021-08-11T12:18:18.000Z</Time>
            <Position>
              <LatitudeDegrees>43.3219563961029052734375</LatitudeDegrees>
              <LongitudeDegrees>-1.792764030396938323974609375</LongitudeDegrees>
            </Position>
            <AltitudeMeters>43</AltitudeMeters>
            <DistanceMeters>NAN</DistanceMeters>
          </Trackpoint>
          <Trackpoint>
            <Time>2021-08-11T12:18:19.000Z</Time>
            <Position>
              <LatitudeDegrees>43.32193158566951751708984375</LatitudeDegrees>
              <LongitudeDegrees>-1.79280702956020832061767578125</LongitudeDegrees>
            </Position>
            <AltitudeMeters>43.200000762939453125</AltitudeMeters>
            <DistanceMeters>NAN</DistanceMeters>
          </Trackpoint>
          <Trackpoint>
            <Time>2021-08-11T12:18:20.000Z</Time>
            <Position>
              <LatitudeDegrees>43.32190752960741519927978515625</LatitudeDegrees>
              <LongitudeDegrees>-1.79284994490444660186767578125</LongitudeDegrees>
            </Position>
            <AltitudeMeters>43.200000762939453125</AltitudeMeters>
            <DistanceMeters>NAN</DistanceMeters>
          </Trackpoint>
          <Trackpoint>
            <Time>2021-08-11T12:18:21.000Z</Time>
            <Position>
              <LatitudeDegrees>43.32188137806951999664306640625</LatitudeDegrees>
              <LongitudeDegrees>-1.792892776429653167724609375</LongitudeDegrees>
            </Position>
            <AltitudeMeters>43.40000152587890625</AltitudeMeters>
            <DistanceMeters>NAN</DistanceMeters>
          </Trackpoint>
          <Trackpoint>
            <Time>2021-08-11T12:18:22.000Z</Time>
            <Position>
              <LatitudeDegrees>43.3218539692461490631103515625</LatitudeDegrees>
              <LongitudeDegrees>-1.7929338477551937103271484375</LongitudeDegrees>
            </Position>
            <AltitudeMeters>43.40000152587890625</AltitudeMeters>
            <DistanceMeters>NAN</DistanceMeters>
          </Trackpoint>
          <Trackpoint>
            <Time>2021-08-11T12:18:23.000Z</Time>
            <Position>
              <LatitudeDegrees>43.32182521931827068328857421875</LatitudeDegrees>
              <LongitudeDegrees>-1.79297030903398990631103515625</LongitudeDegrees>
            </Position>
            <AltitudeMeters>43.59999847412109375</AltitudeMeters>
            <DistanceMeters>NAN</DistanceMeters>
          </Trackpoint>
          <Trackpoint>
            <Time>2021-08-11T12:18:24.000Z</Time>
            <Position>
              <LatitudeDegrees>43.32179487682878971099853515625</LatitudeDegrees>
              <LongitudeDegrees>-1.7930029146373271942138671875</LongitudeDegrees>
            </Position>
            <AltitudeMeters>43.799999237060546875</AltitudeMeters>
            <DistanceMeters>NAN</DistanceMeters>
          </Trackpoint>
          <Trackpoint>
            <Time>2021-08-11T12:18:25.000Z</Time>
            <Position>
              <LatitudeDegrees>43.32176285795867443084716796875</LatitudeDegrees>
              <LongitudeDegrees>-1.7930340953171253204345703125</LongitudeDegrees>
            </Position>
            <AltitudeMeters>44</AltitudeMeters>
            <DistanceMeters>NAN</DistanceMeters>
          </Trackpoint>
          <Trackpoint>
            <Time>2021-08-11T12:18:26.000Z</Time>
            <Position>
              <LatitudeDegrees>43.3217324316501617431640625</LatitudeDegrees>
              <LongitudeDegrees>-1.793067455291748046875</LongitudeDegrees>
            </Position>
            <AltitudeMeters>44</AltitudeMeters>
            <DistanceMeters>NAN</DistanceMeters>
          </Trackpoint>
          <Trackpoint>
            <Time>2021-08-11T12:18:27.000Z</Time>
            <Position>
              <LatitudeDegrees>43.3217020891606807708740234375</LatitudeDegrees>
              <LongitudeDegrees>-1.79310609586536884307861328125</LongitudeDegrees>
            </Position>
            <AltitudeMeters>44</AltitudeMeters>
            <DistanceMeters>NAN</DistanceMeters>
          </Trackpoint>
          <Trackpoint>
            <Time>2021-08-11T12:18:28.000Z</Time>
            <Position>
              <LatitudeDegrees>43.3216732554137706756591796875</LatitudeDegrees>
              <LongitudeDegrees>-1.79314431734383106231689453125</LongitudeDegrees>
            </Position>
            <AltitudeMeters>44</AltitudeMeters>
            <DistanceMeters>NAN</DistanceMeters>
          </Trackpoint>
          <Trackpoint>
            <Time>2021-08-11T12:18:29.000Z</Time>
            <Position>
              <LatitudeDegrees>43.3216460980474948883056640625</LatitudeDegrees>
              <LongitudeDegrees>-1.79318387992680072784423828125</LongitudeDegrees>
            </Position>
            <AltitudeMeters>44</AltitudeMeters>
            <DistanceMeters>NAN</DistanceMeters>
          </Trackpoint>
          <Trackpoint>
            <Time>2021-08-11T12:18:30.000Z</Time>
            <Position>
              <LatitudeDegrees>43.3216175995767116546630859375</LatitudeDegrees>
              <LongitudeDegrees>-1.7932228557765483856201171875</LongitudeDegrees>
            </Position>
            <AltitudeMeters>44</AltitudeMeters>
            <DistanceMeters>NAN</DistanceMeters>
          </Trackpoint>
          <Trackpoint>
            <Time>2021-08-11T12:18:31.000Z</Time>
            <Position>
              <LatitudeDegrees>43.3215864188969135284423828125</LatitudeDegrees>
              <LongitudeDegrees>-1.79325747303664684295654296875</LongitudeDegrees>
            </Position>
            <AltitudeMeters>44.200000762939453125</AltitudeMeters>
            <DistanceMeters>NAN</DistanceMeters>
          </Trackpoint>
          <Trackpoint>
            <Time>2021-08-11T12:18:32.000Z</Time>
            <Position>
              <LatitudeDegrees>43.3215562440454959869384765625</LatitudeDegrees>
              <LongitudeDegrees>-1.79329284466803073883056640625</LongitudeDegrees>
            </Position>
            <AltitudeMeters>44.40000152587890625</AltitudeMeters>
            <DistanceMeters>NAN</DistanceMeters>
          </Trackpoint>
          <Trackpoint>
            <Time>2021-08-11T12:18:33.000Z</Time>
            <Position>
              <LatitudeDegrees>43.32152497954666614532470703125</LatitudeDegrees>
              <LongitudeDegrees>-1.793328635394573211669921875</LongitudeDegrees>
            </Position>
            <AltitudeMeters>44.40000152587890625</AltitudeMeters>
            <DistanceMeters>NAN</DistanceMeters>
          </Trackpoint>
          <Trackpoint>
            <Time>2021-08-11T12:18:34.000Z</Time>
            <Position>
              <LatitudeDegrees>43.32149279303848743438720703125</LatitudeDegrees>
              <LongitudeDegrees>-1.79336375556886196136474609375</LongitudeDegrees>
            </Position>
            <AltitudeMeters>44.59999847412109375</AltitudeMeters>
            <DistanceMeters>NAN</DistanceMeters>
          </Trackpoint>
          <Trackpoint>
            <Time>2021-08-11T12:18:35.000Z</Time>
            <Position>
              <LatitudeDegrees>43.3214600197970867156982421875</LatitudeDegrees>
              <LongitudeDegrees>-1.79340164177119731903076171875</LongitudeDegrees>
            </Position>
            <AltitudeMeters>44.59999847412109375</AltitudeMeters>
            <DistanceMeters>NAN</DistanceMeters>
          </Trackpoint>
          <Trackpoint>
            <Time>2021-08-11T12:18:36.000Z</Time>
            <Position>
              <LatitudeDegrees>43.32142733037471771240234375</LatitudeDegrees>
              <LongitudeDegrees>-1.79343651048839092254638671875</LongitudeDegrees>
            </Position>
            <AltitudeMeters>44.59999847412109375</AltitudeMeters>
            <DistanceMeters>NAN</DistanceMeters>
          </Trackpoint>
          <Trackpoint>
            <Time>2021-08-11T12:18:37.000Z</Time>
            <Position>
              <LatitudeDegrees>43.32139573059976100921630859375</LatitudeDegrees>
              <LongitudeDegrees>-1.79347137920558452606201171875</LongitudeDegrees>
            </Position>
            <AltitudeMeters>44.59999847412109375</AltitudeMeters>
            <DistanceMeters>NAN</DistanceMeters>
          </Trackpoint>
          <Trackpoint>
            <Time>2021-08-11T12:18:38.000Z</Time>
            <Position>
              <LatitudeDegrees>43.32136337645351886749267578125</LatitudeDegrees>
              <LongitudeDegrees>-1.79350960068404674530029296875</LongitudeDegrees>
            </Position>
            <AltitudeMeters>44.799999237060546875</AltitudeMeters>
            <DistanceMeters>NAN</DistanceMeters>
          </Trackpoint>
          <Trackpoint>
            <Time>2021-08-11T12:18:39.000Z</Time>
            <Position>
              <LatitudeDegrees>43.3213339559733867645263671875</LatitudeDegrees>
              <LongitudeDegrees>-1.79354798980057239532470703125</LongitudeDegrees>
            </Position>
            <AltitudeMeters>44.799999237060546875</AltitudeMeters>
            <DistanceMeters>NAN</DistanceMeters>
          </Trackpoint>
          <Trackpoint>
            <Time>2021-08-11T12:18:40.000Z</Time>
            <Position>
              <LatitudeDegrees>43.3213037811219692230224609375</LatitudeDegrees>
              <LongitudeDegrees>-1.793584786355495452880859375</LongitudeDegrees>
            </Position>
            <AltitudeMeters>44.799999237060546875</AltitudeMeters>
            <DistanceMeters>NAN</DistanceMeters>
          </Trackpoint>
          <Trackpoint>
            <Time>2021-08-11T12:18:41.000Z</Time>
            <Position>
              <LatitudeDegrees>43.32127134315669536590576171875</LatitudeDegrees>
              <LongitudeDegrees>-1.79362309165298938751220703125</LongitudeDegrees>
            </Position>
            <AltitudeMeters>44.799999237060546875</AltitudeMeters>
            <DistanceMeters>NAN</DistanceMeters>
          </Trackpoint>
          <Trackpoint>
            <Time>2021-08-11T12:18:42.000Z</Time>
            <Position>
              <LatitudeDegrees>43.3212387375533580780029296875</LatitudeDegrees>
              <LongitudeDegrees>-1.79365829564630985260009765625</LongitudeDegrees>
            </Position>
            <AltitudeMeters>44.799999237060546875</AltitudeMeters>
            <DistanceMeters>NAN</DistanceMeters>
          </Trackpoint>
          <Trackpoint>
            <Time>2021-08-11T12:18:43.000Z</Time>
            <Position>
              <LatitudeDegrees>43.3212075568735599517822265625</LatitudeDegrees>
              <LongitudeDegrees>-1.79369081743061542510986328125</LongitudeDegrees>
            </Position>
            <AltitudeMeters>44.799999237060546875</AltitudeMeters>
            <DistanceMeters>NAN</DistanceMeters>
          </Trackpoint>
          <Trackpoint>
            <Time>2021-08-11T12:18:45.000Z</Time>
            <Position>
              <LatitudeDegrees>43.32114762626588344573974609375</LatitudeDegrees>
              <LongitudeDegrees>-1.7937562800943851470947265625</LongitudeDegrees>
            </Position>
            <AltitudeMeters>45</AltitudeMeters>
            <DistanceMeters>NAN</DistanceMeters>
          </Trackpoint>
          <Trackpoint>
            <Time>2021-08-11T12:18:47.000Z</Time>
            <Position>
              <LatitudeDegrees>43.3210892044007778167724609375</LatitudeDegrees>
              <LongitudeDegrees>-1.793829537928104400634765625</LongitudeDegrees>
            </Position>
            <AltitudeMeters>45.200000762939453125</AltitudeMeters>
            <DistanceMeters>NAN</DistanceMeters>
          </Trackpoint>
          <Trackpoint>
            <Time>2021-08-11T12:18:50.000Z</Time>
            <Position>
              <LatitudeDegrees>43.3210261724889278411865234375</LatitudeDegrees>
              <LongitudeDegrees>-1.793971024453639984130859375</LongitudeDegrees>
            </Position>
            <AltitudeMeters>45.40000152587890625</AltitudeMeters>
            <DistanceMeters>NAN</DistanceMeters>
          </Trackpoint>
          <Trackpoint>
            <Time>2021-08-11T12:18:51.000Z</Time>
            <Position>
              <LatitudeDegrees>43.321011252701282501220703125</LatitudeDegrees>
              <LongitudeDegrees>-1.79401854984462261199951171875</LongitudeDegrees>
            </Position>
            <AltitudeMeters>45.40000152587890625</AltitudeMeters>
            <DistanceMeters>NAN</DistanceMeters>
          </Trackpoint>
          <Trackpoint>
            <Time>2021-08-11T12:18:54.000Z</Time>
            <Position>
              <LatitudeDegrees>43.320975042879581451416015625</LatitudeDegrees>
              <LongitudeDegrees>-1.79416607134044170379638671875</LongitudeDegrees>
            </Position>
            <AltitudeMeters>46</AltitudeMeters>
            <DistanceMeters>NAN</DistanceMeters>
          </Trackpoint>
          <Trackpoint>
            <Time>2021-08-11T12:18:59.000Z</Time>
            <Position>
              <LatitudeDegrees>43.3209192194044589996337890625</LatitudeDegrees>
              <LongitudeDegrees>-1.794401519000530242919921875</LongitudeDegrees>
            </Position>
            <AltitudeMeters>46.799999237060546875</AltitudeMeters>
            <DistanceMeters>NAN</DistanceMeters>
          </Trackpoint>
          <Trackpoint>
            <Time>2021-08-11T12:19:01.000Z</Time>
            <Position>
              <LatitudeDegrees>43.32089466042816638946533203125</LatitudeDegrees>
              <LongitudeDegrees>-1.79449975490570068359375</LongitudeDegrees>
            </Position>
            <AltitudeMeters>47.200000762939453125</AltitudeMeters>
            <DistanceMeters>NAN</DistanceMeters>
          </Trackpoint>
          <Trackpoint>
            <Time>2021-08-11T12:19:02.000Z</Time>
            <Position>
              <LatitudeDegrees>43.32088259048759937286376953125</LatitudeDegrees>
              <LongitudeDegrees>-1.7945466935634613037109375</LongitudeDegrees>
            </Position>
            <AltitudeMeters>47.40000152587890625</AltitudeMeters>
            <DistanceMeters>NAN</DistanceMeters>
          </Trackpoint>
          <Trackpoint>
            <Time>2021-08-11T12:19:03.000Z</Time>
            <Position>
              <LatitudeDegrees>43.3208695985376834869384765625</LatitudeDegrees>
              <LongitudeDegrees>-1.7945976555347442626953125</LongitudeDegrees>
            </Position>
            <AltitudeMeters>47.40000152587890625</AltitudeMeters>
            <DistanceMeters>NAN</DistanceMeters>
          </Trackpoint>
          <Trackpoint>
            <Time>2021-08-11T12:19:04.000Z</Time>
            <Position>
              <LatitudeDegrees>43.3208548463881015777587890625</LatitudeDegrees>
              <LongitudeDegrees>-1.79464870132505893707275390625</LongitudeDegrees>
            </Position>
            <AltitudeMeters>47.59999847412109375</AltitudeMeters>
            <DistanceMeters>NAN</DistanceMeters>
          </Trackpoint>
          <Trackpoint>
            <Time>2021-08-11T12:19:05.000Z</Time>
            <Position>
              <LatitudeDegrees>43.3208434469997882843017578125</LatitudeDegrees>
              <LongitudeDegrees>-1.794699244201183319091796875</LongitudeDegrees>
            </Position>
            <AltitudeMeters>47.799999237060546875</AltitudeMeters>
            <DistanceMeters>NAN</DistanceMeters>
          </Trackpoint>
          <Trackpoint>
            <Time>2021-08-11T12:19:06.000Z</Time>
            <Position>
              <LatitudeDegrees>43.3208333887159824371337890625</LatitudeDegrees>
              <LongitudeDegrees>-1.79474777542054653167724609375</LongitudeDegrees>
            </Position>
            <AltitudeMeters>48</AltitudeMeters>
            <DistanceMeters>NAN</DistanceMeters>
          </Trackpoint>
          <Trackpoint>
            <Time>2021-08-11T12:19:07.000Z</Time>
            <Position>
              <LatitudeDegrees>43.32082341425120830535888671875</LatitudeDegrees>
              <LongitudeDegrees>-1.79479018785059452056884765625</LongitudeDegrees>
            </Position>
            <AltitudeMeters>48.200000762939453125</AltitudeMeters>
            <DistanceMeters>NAN</DistanceMeters>
          </Trackpoint>
          <Trackpoint>
            <Time>2021-08-11T12:19:08.000Z</Time>
            <Position>
              <LatitudeDegrees>43.32081536762416362762451171875</LatitudeDegrees>
              <LongitudeDegrees>-1.794832013547420501708984375</LongitudeDegrees>
            </Position>
            <AltitudeMeters>48.40000152587890625</AltitudeMeters>
            <DistanceMeters>NAN</DistanceMeters>
          </Trackpoint>
          <Trackpoint>
            <Time>2021-08-11T12:19:09.000Z</Time>
            <Position>
              <LatitudeDegrees>43.320806063711643218994140625</LatitudeDegrees>
              <LongitudeDegrees>-1.79487484507262706756591796875</LongitudeDegrees>
            </Position>
            <AltitudeMeters>48.40000152587890625</AltitudeMeters>
            <DistanceMeters>NAN</DistanceMeters>
          </Trackpoint>
          <Trackpoint>
            <Time>2021-08-11T12:19:10.000Z</Time>
            <Position>
              <LatitudeDegrees>43.320795334875583648681640625</LatitudeDegrees>
              <LongitudeDegrees>-1.79492463357746601104736328125</LongitudeDegrees>
            </Position>
            <AltitudeMeters>48.59999847412109375</AltitudeMeters>
            <DistanceMeters>NAN</DistanceMeters>
          </Trackpoint>
          <Trackpoint>
            <Time>2021-08-11T12:19:11.000Z</Time>
            <Position>
              <LatitudeDegrees>43.3207857795059680938720703125</LatitudeDegrees>
              <LongitudeDegrees>-1.79497391916811466217041015625</LongitudeDegrees>
            </Position>
            <AltitudeMeters>48.799999237060546875</AltitudeMeters>
            <DistanceMeters>NAN</DistanceMeters>
          </Trackpoint>
          <Trackpoint>
            <Time>2021-08-11T12:19:12.000Z</Time>
            <Position>
              <LatitudeDegrees>43.32077127881348133087158203125</LatitudeDegrees>
              <LongitudeDegrees>-1.79502747952938079833984375</LongitudeDegrees>
            </Position>
            <AltitudeMeters>48.799999237060546875</AltitudeMeters>
            <DistanceMeters>NAN</DistanceMeters>
          </Trackpoint>
          <Trackpoint>
            <Time>2021-08-11T12:19:13.000Z</Time>
            <Position>
              <LatitudeDegrees>43.32075770013034343719482421875</LatitudeDegrees>
              <LongitudeDegrees>-1.7950806207954883575439453125</LongitudeDegrees>
            </Position>
            <AltitudeMeters>49</AltitudeMeters>
            <DistanceMeters>NAN</DistanceMeters>
          </Trackpoint>
          <Trackpoint>
            <Time>2021-08-11T12:19:14.000Z</Time>
            <Position>
              <LatitudeDegrees>43.32074462436139583587646484375</LatitudeDegrees>
              <LongitudeDegrees>-1.79513401351869106292724609375</LongitudeDegrees>
            </Position>
            <AltitudeMeters>49</AltitudeMeters>
            <DistanceMeters>NAN</DistanceMeters>
          </Trackpoint>
          <Trackpoint>
            <Time>2021-08-11T12:19:15.000Z</Time>
            <Position>
              <LatitudeDegrees>43.32072970457375049591064453125</LatitudeDegrees>
              <LongitudeDegrees>-1.795200146734714508056640625</LongitudeDegrees>
            </Position>
            <AltitudeMeters>49.200000762939453125</AltitudeMeters>
            <DistanceMeters>NAN</DistanceMeters>
          </Trackpoint>
          <Trackpoint>
            <Time>2021-08-11T12:19:16.000Z</Time>
            <Position>
              <LatitudeDegrees>43.3207193948328495025634765625</LatitudeDegrees>
              <LongitudeDegrees>-1.7952439002692699432373046875</LongitudeDegrees>
            </Position>
            <AltitudeMeters>49.40000152587890625</AltitudeMeters>
            <DistanceMeters>NAN</DistanceMeters>
          </Trackpoint>
          <Trackpoint>
            <Time>2021-08-11T12:19:17.000Z</Time>
            <Position>
              <LatitudeDegrees>43.32070673815906047821044921875</LatitudeDegrees>
              <LongitudeDegrees>-1.7952945269644260406494140625</LongitudeDegrees>
            </Position>
            <AltitudeMeters>49.59999847412109375</AltitudeMeters>
            <DistanceMeters>NAN</DistanceMeters>
          </Trackpoint>
          <Trackpoint>
            <Time>2021-08-11T12:19:18.000Z</Time>
            <Position>
              <LatitudeDegrees>43.32069282419979572296142578125</LatitudeDegrees>
              <LongitudeDegrees>-1.7953461594879627227783203125</LongitudeDegrees>
            </Position>
            <AltitudeMeters>49.799999237060546875</AltitudeMeters>
            <DistanceMeters>NAN</DistanceMeters>
          </Trackpoint>
          <Trackpoint>
            <Time>2021-08-11T12:19:19.000Z</Time>
            <Position>
              <LatitudeDegrees>43.32068033516407012939453125</LatitudeDegrees>
              <LongitudeDegrees>-1.79539628326892852783203125</LongitudeDegrees>
            </Position>
            <AltitudeMeters>49.799999237060546875</AltitudeMeters>
            <DistanceMeters>NAN</DistanceMeters>
          </Trackpoint>
          <Trackpoint>
            <Time>2021-08-11T12:19:20.000Z</Time>
            <Position>
              <LatitudeDegrees>43.3206680975854396820068359375</LatitudeDegrees>
              <LongitudeDegrees>-1.795445568859577178955078125</LongitudeDegrees>
            </Position>
            <AltitudeMeters>50</AltitudeMeters>
            <DistanceMeters>NAN</DistanceMeters>
          </Trackpoint>
          <Trackpoint>
            <Time>2021-08-11T12:19:21.000Z</Time>
            <Position>
              <LatitudeDegrees>43.32065577618777751922607421875</LatitudeDegrees>
              <LongitudeDegrees>-1.795496530830860137939453125</LongitudeDegrees>
            </Position>
            <AltitudeMeters>50</AltitudeMeters>
            <DistanceMeters>NAN</DistanceMeters>
          </Trackpoint>
          <Trackpoint>
            <Time>2021-08-11T12:19:22.000Z</Time>
            <Position>
              <LatitudeDegrees>43.32064202986657619476318359375</LatitudeDegrees>
              <LongitudeDegrees>-1.79554807953536510467529296875</LongitudeDegrees>
            </Position>
            <AltitudeMeters>50.200000762939453125</AltitudeMeters>
            <DistanceMeters>NAN</DistanceMeters>
          </Trackpoint>
          <Trackpoint>
            <Time>2021-08-11T12:19:23.000Z</Time>
            <Position>
              <LatitudeDegrees>43.32062794826924800872802734375</LatitudeDegrees>
              <LongitudeDegrees>-1.79560013115406036376953125</LongitudeDegrees>
            </Position>
            <AltitudeMeters>50.40000152587890625</AltitudeMeters>
            <DistanceMeters>NAN</DistanceMeters>
          </Trackpoint>
          <Trackpoint>
            <Time>2021-08-11T12:19:24.000Z</Time>
            <Position>
              <LatitudeDegrees>43.320615291595458984375</LatitudeDegrees>
              <LongitudeDegrees>-1.7956505902111530303955078125</LongitudeDegrees>
            </Position>
            <AltitudeMeters>50.40000152587890625</AltitudeMeters>
            <DistanceMeters>NAN</DistanceMeters>
          </Trackpoint>
          <Trackpoint>
            <Time>2021-08-11T12:19:25.000Z</Time>
            <Position>
              <LatitudeDegrees>43.32060364075005054473876953125</LatitudeDegrees>
              <LongitudeDegrees>-1.79570096544921398162841796875</LongitudeDegrees>
            </Position>
            <AltitudeMeters>50.40000152587890625</AltitudeMeters>
            <DistanceMeters>NAN</DistanceMeters>
          </Trackpoint>
          <Trackpoint>
            <Time>2021-08-11T12:19:26.000Z</Time>
            <Position>
              <LatitudeDegrees>43.32059425301849842071533203125</LatitudeDegrees>
              <LongitudeDegrees>-1.79575033485889434814453125</LongitudeDegrees>
            </Position>
            <AltitudeMeters>50.40000152587890625</AltitudeMeters>
            <DistanceMeters>NAN</DistanceMeters>
          </Trackpoint>
          <Trackpoint>
            <Time>2021-08-11T12:19:27.000Z</Time>
            <Position>
              <LatitudeDegrees>43.32057933323085308074951171875</LatitudeDegrees>
              <LongitudeDegrees>-1.79580976255238056182861328125</LongitudeDegrees>
            </Position>
            <AltitudeMeters>50.59999847412109375</AltitudeMeters>
            <DistanceMeters>NAN</DistanceMeters>
          </Trackpoint>
          <Trackpoint>
            <Time>2021-08-11T12:19:28.000Z</Time>
            <Position>
              <LatitudeDegrees>43.3205638267099857330322265625</LatitudeDegrees>
              <LongitudeDegrees>-1.79585619829595088958740234375</LongitudeDegrees>
            </Position>
            <AltitudeMeters>50.799999237060546875</AltitudeMeters>
            <DistanceMeters>NAN</DistanceMeters>
          </Trackpoint>
          <Trackpoint>
            <Time>2021-08-11T12:19:29.000Z</Time>
            <Position>
              <LatitudeDegrees>43.32055133767426013946533203125</LatitudeDegrees>
              <LongitudeDegrees>-1.79590380750596523284912109375</LongitudeDegrees>
            </Position>
            <AltitudeMeters>51.200000762939453125</AltitudeMeters>
            <DistanceMeters>NAN</DistanceMeters>
          </Trackpoint>
          <Trackpoint>
            <Time>2021-08-11T12:19:30.000Z</Time>
            <Position>
              <LatitudeDegrees>43.320539854466915130615234375</LatitudeDegrees>
              <LongitudeDegrees>-1.79595124907791614532470703125</LongitudeDegrees>
            </Position>
            <AltitudeMeters>51.40000152587890625</AltitudeMeters>
            <DistanceMeters>NAN</DistanceMeters>
          </Trackpoint>
          <Trackpoint>
            <Time>2021-08-11T12:19:31.000Z</Time>
            <Position>
              <LatitudeDegrees>43.320528455078601837158203125</LatitudeDegrees>
              <LongitudeDegrees>-1.79599718190729618072509765625</LongitudeDegrees>
            </Position>
            <AltitudeMeters>51.40000152587890625</AltitudeMeters>
            <DistanceMeters>NAN</DistanceMeters>
          </Trackpoint>
          <Trackpoint>
            <Time>2021-08-11T12:19:32.000Z</Time>
            <Position>
              <LatitudeDegrees>43.3205152116715908050537109375</LatitudeDegrees>
              <LongitudeDegrees>-1.79604428820312023162841796875</LongitudeDegrees>
            </Position>
            <AltitudeMeters>51.799999237060546875</AltitudeMeters>
            <DistanceMeters>NAN</DistanceMeters>
          </Trackpoint>
          <Trackpoint>
            <Time>2021-08-11T12:19:33.000Z</Time>
            <Position>
              <LatitudeDegrees>43.32050062716007232666015625</LatitudeDegrees>
              <LongitudeDegrees>-1.79608921520411968231201171875</LongitudeDegrees>
            </Position>
            <AltitudeMeters>52</AltitudeMeters>
            <DistanceMeters>NAN</DistanceMeters>
          </Trackpoint>
          <Trackpoint>
            <Time>2021-08-11T12:19:34.000Z</Time>
            <Position>
              <LatitudeDegrees>43.3204852044582366943359375</LatitudeDegrees>
              <LongitudeDegrees>-1.79613363929092884063720703125</LongitudeDegrees>
            </Position>
            <AltitudeMeters>52.200000762939453125</AltitudeMeters>
            <DistanceMeters>NAN</DistanceMeters>
          </Trackpoint>
          <Trackpoint>
            <Time>2021-08-11T12:19:35.000Z</Time>
            <Position>
              <LatitudeDegrees>43.320468775928020477294921875</LatitudeDegrees>
              <LongitudeDegrees>-1.79617756046354770660400390625</LongitudeDegrees>
            </Position>
            <AltitudeMeters>52.200000762939453125</AltitudeMeters>
            <DistanceMeters>NAN</DistanceMeters>
          </Trackpoint>
          <Trackpoint>
            <Time>2021-08-11T12:19:36.000Z</Time>
            <Position>
              <LatitudeDegrees>43.3204498328268527984619140625</LatitudeDegrees>
              <LongitudeDegrees>-1.7962203919887542724609375</LongitudeDegrees>
            </Position>
            <AltitudeMeters>52.59999847412109375</AltitudeMeters>
            <DistanceMeters>NAN</DistanceMeters>
          </Trackpoint>
          <Trackpoint>
            <Time>2021-08-11T12:19:37.000Z</Time>
            <Position>
              <LatitudeDegrees>43.32042845897376537322998046875</LatitudeDegrees>
              <LongitudeDegrees>-1.796260960400104522705078125</LongitudeDegrees>
            </Position>
            <AltitudeMeters>52.59999847412109375</AltitudeMeters>
            <DistanceMeters>NAN</DistanceMeters>
          </Trackpoint>
          <Trackpoint>
            <Time>2021-08-11T12:19:38.000Z</Time>
            <Position>
              <LatitudeDegrees>43.320406414568424224853515625</LatitudeDegrees>
              <LongitudeDegrees>-1.79629876278340816497802734375</LongitudeDegrees>
            </Position>
            <AltitudeMeters>52.799999237060546875</AltitudeMeters>
            <DistanceMeters>NAN</DistanceMeters>
          </Trackpoint>
          <Trackpoint>
            <Time>2021-08-11T12:19:39.000Z</Time>
            <Position>
              <LatitudeDegrees>43.32038084976375102996826171875</LatitudeDegrees>
              <LongitudeDegrees>-1.796334721148014068603515625</LongitudeDegrees>
            </Position>
            <AltitudeMeters>53</AltitudeMeters>
            <DistanceMeters>NAN</DistanceMeters>
          </Trackpoint>
          <Trackpoint>
            <Time>2021-08-11T12:19:40.000Z</Time>
            <Position>
              <LatitudeDegrees>43.32035637460649013519287109375</LatitudeDegrees>
              <LongitudeDegrees>-1.79637051187455654144287109375</LongitudeDegrees>
            </Position>
            <AltitudeMeters>53.200000762939453125</AltitudeMeters>
            <DistanceMeters>NAN</DistanceMeters>
          </Trackpoint>
          <Trackpoint>
            <Time>2021-08-11T12:19:41.000Z</Time>
            <Position>
              <LatitudeDegrees>43.32033257000148296356201171875</LatitudeDegrees>
              <LongitudeDegrees>-1.796406805515289306640625</LongitudeDegrees>
            </Position>
            <AltitudeMeters>53.59999847412109375</AltitudeMeters>
            <DistanceMeters>NAN</DistanceMeters>
          </Trackpoint>
          <Trackpoint>
            <Time>2021-08-11T12:19:42.000Z</Time>
            <Position>
              <LatitudeDegrees>43.32030725665390491485595703125</LatitudeDegrees>
              <LongitudeDegrees>-1.79644234478473663330078125</LongitudeDegrees>
            </Position>
            <AltitudeMeters>53.59999847412109375</AltitudeMeters>
            <DistanceMeters>NAN</DistanceMeters>
          </Trackpoint>
          <Trackpoint>
            <Time>2021-08-11T12:19:43.000Z</Time>
            <Position>
              <LatitudeDegrees>43.32028160803020000457763671875</LatitudeDegrees>
              <LongitudeDegrees>-1.79647847078740596771240234375</LongitudeDegrees>
            </Position>
            <AltitudeMeters>53.799999237060546875</AltitudeMeters>
            <DistanceMeters>NAN</DistanceMeters>
          </Trackpoint>
          <Trackpoint>
            <Time>2021-08-11T12:19:44.000Z</Time>
            <Position>
              <LatitudeDegrees>43.32025654613971710205078125</LatitudeDegrees>
              <LongitudeDegrees>-1.7965154349803924560546875</LongitudeDegrees>
            </Position>
            <AltitudeMeters>54</AltitudeMeters>
            <DistanceMeters>NAN</DistanceMeters>
          </Trackpoint>
          <Trackpoint>
            <Time>2021-08-11T12:19:45.000Z</Time>
            <Position>
              <LatitudeDegrees>43.32023416645824909210205078125</LatitudeDegrees>
              <LongitudeDegrees>-1.79655256681144237518310546875</LongitudeDegrees>
            </Position>
            <AltitudeMeters>54.200000762939453125</AltitudeMeters>
            <DistanceMeters>NAN</DistanceMeters>
          </Trackpoint>
          <Trackpoint>
            <Time>2021-08-11T12:19:46.000Z</Time>
            <Position>
              <LatitudeDegrees>43.3202121220529079437255859375</LatitudeDegrees>
              <LongitudeDegrees>-1.79659011773765087127685546875</LongitudeDegrees>
            </Position>
            <AltitudeMeters>54.40000152587890625</AltitudeMeters>
            <DistanceMeters>NAN</DistanceMeters>
          </Trackpoint>
          <Trackpoint>
            <Time>2021-08-11T12:19:47.000Z</Time>
            <Position>
              <LatitudeDegrees>43.32019091583788394927978515625</LatitudeDegrees>
              <LongitudeDegrees>-1.79662984795868396759033203125</LongitudeDegrees>
            </Position>
            <AltitudeMeters>54.40000152587890625</AltitudeMeters>
            <DistanceMeters>NAN</DistanceMeters>
          </Trackpoint>
          <Trackpoint>
            <Time>2021-08-11T12:19:48.000Z</Time>
            <Position>
              <LatitudeDegrees>43.32016962580382823944091796875</LatitudeDegrees>
              <LongitudeDegrees>-1.796666644513607025146484375</LongitudeDegrees>
            </Position>
            <AltitudeMeters>54.59999847412109375</AltitudeMeters>
            <DistanceMeters>NAN</DistanceMeters>
          </Trackpoint>
          <Trackpoint>
            <Time>2021-08-11T12:19:49.000Z</Time>
            <Position>
              <LatitudeDegrees>43.3201474137604236602783203125</LatitudeDegrees>
              <LongitudeDegrees>-1.7967036925256252288818359375</LongitudeDegrees>
            </Position>
            <AltitudeMeters>54.59999847412109375</AltitudeMeters>
            <DistanceMeters>NAN</DistanceMeters>
          </Trackpoint>
          <Trackpoint>
            <Time>2021-08-11T12:19:50.000Z</Time>
            <Position>
              <LatitudeDegrees>43.32013140432536602020263671875</LatitudeDegrees>
              <LongitudeDegrees>-1.796744763851165771484375</LongitudeDegrees>
            </Position>
            <AltitudeMeters>54.799999237060546875</AltitudeMeters>
            <DistanceMeters>NAN</DistanceMeters>
          </Trackpoint>
          <Trackpoint>
            <Time>2021-08-11T12:19:51.000Z</Time>
            <Position>
              <LatitudeDegrees>43.3201175741851329803466796875</LatitudeDegrees>
              <LongitudeDegrees>-1.79679044522345066070556640625</LongitudeDegrees>
            </Position>
            <AltitudeMeters>55</AltitudeMeters>
            <DistanceMeters>NAN</DistanceMeters>
          </Trackpoint>
          <Trackpoint>
            <Time>2021-08-11T12:19:52.000Z</Time>
            <Position>
              <LatitudeDegrees>43.32010726444423198699951171875</LatitudeDegrees>
              <LongitudeDegrees>-1.79683855734765529632568359375</LongitudeDegrees>
            </Position>
            <AltitudeMeters>55.40000152587890625</AltitudeMeters>
            <DistanceMeters>NAN</DistanceMeters>
          </Trackpoint>
          <Trackpoint>
            <Time>2021-08-11T12:19:53.000Z</Time>
            <Position>
              <LatitudeDegrees>43.32009620033204555511474609375</LatitudeDegrees>
              <LongitudeDegrees>-1.7968867532908916473388671875</LongitudeDegrees>
            </Position>
            <AltitudeMeters>55.59999847412109375</AltitudeMeters>
            <DistanceMeters>NAN</DistanceMeters>
          </Trackpoint>
          <Trackpoint>
            <Time>2021-08-11T12:19:54.000Z</Time>
            <Position>
              <LatitudeDegrees>43.32008530385792255401611328125</LatitudeDegrees>
              <LongitudeDegrees>-1.7969363741576671600341796875</LongitudeDegrees>
            </Position>
            <AltitudeMeters>55.59999847412109375</AltitudeMeters>
            <DistanceMeters>NAN</DistanceMeters>
          </Trackpoint>
          <Trackpoint>
            <Time>2021-08-11T12:19:55.000Z</Time>
            <Position>
              <LatitudeDegrees>43.32007340155541896820068359375</LatitudeDegrees>
              <LongitudeDegrees>-1.796985156834125518798828125</LongitudeDegrees>
            </Position>
            <AltitudeMeters>55.59999847412109375</AltitudeMeters>
            <DistanceMeters>NAN</DistanceMeters>
          </Trackpoint>
          <Trackpoint>
            <Time>2021-08-11T12:19:56.000Z</Time>
            <Position>
              <LatitudeDegrees>43.32006183452904224395751953125</LatitudeDegrees>
              <LongitudeDegrees>-1.797035448253154754638671875</LongitudeDegrees>
            </Position>
            <AltitudeMeters>55.59999847412109375</AltitudeMeters>
            <DistanceMeters>NAN</DistanceMeters>
          </Trackpoint>
          <Trackpoint>
            <Time>2021-08-11T12:19:57.000Z</Time>
            <Position>
              <LatitudeDegrees>43.32005009986460208892822265625</LatitudeDegrees>
              <LongitudeDegrees>-1.79708632640540599822998046875</LongitudeDegrees>
            </Position>
            <AltitudeMeters>56</AltitudeMeters>
            <DistanceMeters>NAN</DistanceMeters>
          </Trackpoint>
          <Trackpoint>
            <Time>2021-08-11T12:19:58.000Z</Time>
            <Position>
              <LatitudeDegrees>43.3200361020863056182861328125</LatitudeDegrees>
              <LongitudeDegrees>-1.79713225923478603363037109375</LongitudeDegrees>
            </Position>
            <AltitudeMeters>56</AltitudeMeters>
            <DistanceMeters>NAN</DistanceMeters>
          </Trackpoint>
          <Trackpoint>
            <Time>2021-08-11T12:19:59.000Z</Time>
            <Position>
              <LatitudeDegrees>43.32002294249832630157470703125</LatitudeDegrees>
              <LongitudeDegrees>-1.79717919789254665374755859375</LongitudeDegrees>
            </Position>
            <AltitudeMeters>56.40000152587890625</AltitudeMeters>
            <DistanceMeters>NAN</DistanceMeters>
          </Trackpoint>
          <Trackpoint>
            <Time>2021-08-11T12:20:00.000Z</Time>
            <Position>
              <LatitudeDegrees>43.3200104534626007080078125</LatitudeDegrees>
              <LongitudeDegrees>-1.79722915403544902801513671875</LongitudeDegrees>
            </Position>
            <AltitudeMeters>56.40000152587890625</AltitudeMeters>
            <DistanceMeters>NAN</DistanceMeters>
          </Trackpoint>
          <Trackpoint>
            <Time>2021-08-11T12:20:01.000Z</Time>
            <Position>
              <LatitudeDegrees>43.31999796442687511444091796875</LatitudeDegrees>
              <LongitudeDegrees>-1.79727911017835140228271484375</LongitudeDegrees>
            </Position>
            <AltitudeMeters>56.59999847412109375</AltitudeMeters>
            <DistanceMeters>NAN</DistanceMeters>
          </Trackpoint>
          <Trackpoint>
            <Time>2021-08-11T12:20:02.000Z</Time>
            <Position>
              <LatitudeDegrees>43.31998589448630809783935546875</LatitudeDegrees>
              <LongitudeDegrees>-1.79732889868319034576416015625</LongitudeDegrees>
            </Position>
            <AltitudeMeters>56.59999847412109375</AltitudeMeters>
            <DistanceMeters>NAN</DistanceMeters>
          </Trackpoint>
          <Trackpoint>
            <Time>2021-08-11T12:20:03.000Z</Time>
            <Position>
              <LatitudeDegrees>43.31997223198413848876953125</LatitudeDegrees>
              <LongitudeDegrees>-1.79737575352191925048828125</LongitudeDegrees>
            </Position>
            <AltitudeMeters>56.799999237060546875</AltitudeMeters>
            <DistanceMeters>NAN</DistanceMeters>
          </Trackpoint>
          <Trackpoint>
            <Time>2021-08-11T12:20:04.000Z</Time>
            <Position>
              <LatitudeDegrees>43.3199559710919857025146484375</LatitudeDegrees>
              <LongitudeDegrees>-1.7974215187132358551025390625</LongitudeDegrees>
            </Position>
            <AltitudeMeters>56.799999237060546875</AltitudeMeters>
            <DistanceMeters>NAN</DistanceMeters>
          </Trackpoint>
          <Trackpoint>
            <Time>2021-08-11T12:20:05.000Z</Time>
            <Position>
              <LatitudeDegrees>43.3199395425617694854736328125</LatitudeDegrees>
              <LongitudeDegrees>-1.797469295561313629150390625</LongitudeDegrees>
            </Position>
            <AltitudeMeters>57</AltitudeMeters>
            <DistanceMeters>NAN</DistanceMeters>
          </Trackpoint>
          <Trackpoint>
            <Time>2021-08-11T12:20:06.000Z</Time>
            <Position>
              <LatitudeDegrees>43.319920599460601806640625</LatitudeDegrees>
              <LongitudeDegrees>-1.79751682095229625701904296875</LongitudeDegrees>
            </Position>
            <AltitudeMeters>57</AltitudeMeters>
            <DistanceMeters>NAN</DistanceMeters>
          </Trackpoint>
          <Trackpoint>
            <Time>2021-08-11T12:20:07.000Z</Time>
            <Position>
              <LatitudeDegrees>43.31989721395075321197509765625</LatitudeDegrees>
              <LongitudeDegrees>-1.79755688644945621490478515625</LongitudeDegrees>
            </Position>
            <AltitudeMeters>57.40000152587890625</AltitudeMeters>
            <DistanceMeters>NAN</DistanceMeters>
          </Trackpoint>
          <Trackpoint>
            <Time>2021-08-11T12:20:08.000Z</Time>
            <Position>
              <LatitudeDegrees>43.31987139768898487091064453125</LatitudeDegrees>
              <LongitudeDegrees>-1.79759301245212554931640625</LongitudeDegrees>
            </Position>
            <AltitudeMeters>57.40000152587890625</AltitudeMeters>
            <DistanceMeters>NAN</DistanceMeters>
          </Trackpoint>
          <Trackpoint>
            <Time>2021-08-11T12:20:09.000Z</Time>
            <Position>
              <LatitudeDegrees>43.3198441565036773681640625</LatitudeDegrees>
              <LongitudeDegrees>-1.79762477986514568328857421875</LongitudeDegrees>
            </Position>
            <AltitudeMeters>57.59999847412109375</AltitudeMeters>
            <DistanceMeters>NAN</DistanceMeters>
          </Trackpoint>
          <Trackpoint>
            <Time>2021-08-11T12:20:10.000Z</Time>
            <Position>
              <LatitudeDegrees>43.3198168314993381500244140625</LatitudeDegrees>
              <LongitudeDegrees>-1.7976555414497852325439453125</LongitudeDegrees>
            </Position>
            <AltitudeMeters>57.799999237060546875</AltitudeMeters>
            <DistanceMeters>NAN</DistanceMeters>
          </Trackpoint>
          <Trackpoint>
            <Time>2021-08-11T12:20:11.000Z</Time>
            <Position>
              <LatitudeDegrees>43.319786489009857177734375</LatitudeDegrees>
              <LongitudeDegrees>-1.79768127389252185821533203125</LongitudeDegrees>
            </Position>
            <AltitudeMeters>58</AltitudeMeters>
            <DistanceMeters>NAN</DistanceMeters>
          </Trackpoint>
          <Trackpoint>
            <Time>2021-08-11T12:20:12.000Z</Time>
            <Position>
              <LatitudeDegrees>43.31975555978715419769287109375</LatitudeDegrees>
              <LongitudeDegrees>-1.7977078445255756378173828125</LongitudeDegrees>
            </Position>
            <AltitudeMeters>58</AltitudeMeters>
            <DistanceMeters>NAN</DistanceMeters>
          </Trackpoint>
          <Trackpoint>
            <Time>2021-08-11T12:20:13.000Z</Time>
            <Position>
              <LatitudeDegrees>43.31972488202154636383056640625</LatitudeDegrees>
              <LongitudeDegrees>-1.7977376841008663177490234375</LongitudeDegrees>
            </Position>
            <AltitudeMeters>58.200000762939453125</AltitudeMeters>
            <DistanceMeters>NAN</DistanceMeters>
          </Trackpoint>
          <Trackpoint>
            <Time>2021-08-11T12:20:14.000Z</Time>
            <Position>
              <LatitudeDegrees>43.319693617522716522216796875</LatitudeDegrees>
              <LongitudeDegrees>-1.79776668548583984375</LongitudeDegrees>
            </Position>
            <AltitudeMeters>58.40000152587890625</AltitudeMeters>
            <DistanceMeters>NAN</DistanceMeters>
          </Trackpoint>
          <Trackpoint>
            <Time>2021-08-11T12:20:15.000Z</Time>
            <Position>
              <LatitudeDegrees>43.319663442671298980712890625</LatitudeDegrees>
              <LongitudeDegrees>-1.797794513404369354248046875</LongitudeDegrees>
            </Position>
            <AltitudeMeters>58.59999847412109375</AltitudeMeters>
            <DistanceMeters>NAN</DistanceMeters>
          </Trackpoint>
          <Trackpoint>
            <Time>2021-08-11T12:20:16.000Z</Time>
            <Position>
              <LatitudeDegrees>43.3196310885250568389892578125</LatitudeDegrees>
              <LongitudeDegrees>-1.79782309569418430328369140625</LongitudeDegrees>
            </Position>
            <AltitudeMeters>58.799999237060546875</AltitudeMeters>
            <DistanceMeters>NAN</DistanceMeters>
          </Trackpoint>
          <Trackpoint>
            <Time>2021-08-11T12:20:17.000Z</Time>
            <Position>
              <LatitudeDegrees>43.31960015930235385894775390625</LatitudeDegrees>
              <LongitudeDegrees>-1.79785452783107757568359375</LongitudeDegrees>
            </Position>
            <AltitudeMeters>58.799999237060546875</AltitudeMeters>
            <DistanceMeters>NAN</DistanceMeters>
          </Trackpoint>
          <Trackpoint>
            <Time>2021-08-11T12:20:18.000Z</Time>
            <Position>
              <LatitudeDegrees>43.3195705711841583251953125</LatitudeDegrees>
              <LongitudeDegrees>-1.79788713343441486358642578125</LongitudeDegrees>
            </Position>
            <AltitudeMeters>59</AltitudeMeters>
            <DistanceMeters>NAN</DistanceMeters>
          </Trackpoint>
          <Trackpoint>
            <Time>2021-08-11T12:20:19.000Z</Time>
            <Position>
              <LatitudeDegrees>43.3195425756275653839111328125</LatitudeDegrees>
              <LongitudeDegrees>-1.7979207448661327362060546875</LongitudeDegrees>
            </Position>
            <AltitudeMeters>59</AltitudeMeters>
            <DistanceMeters>NAN</DistanceMeters>
          </Trackpoint>
          <Trackpoint>
            <Time>2021-08-11T12:20:20.000Z</Time>
            <Position>
              <LatitudeDegrees>43.3195130713284015655517578125</LatitudeDegrees>
              <LongitudeDegrees>-1.79795033298432826995849609375</LongitudeDegrees>
            </Position>
            <AltitudeMeters>59.200000762939453125</AltitudeMeters>
            <DistanceMeters>NAN</DistanceMeters>
          </Trackpoint>
          <Trackpoint>
            <Time>2021-08-11T12:20:21.000Z</Time>
            <Position>
              <LatitudeDegrees>43.31948264501988887786865234375</LatitudeDegrees>
              <LongitudeDegrees>-1.79798285476863384246826171875</LongitudeDegrees>
            </Position>
            <AltitudeMeters>59.40000152587890625</AltitudeMeters>
            <DistanceMeters>NAN</DistanceMeters>
          </Trackpoint>
          <Trackpoint>
            <Time>2021-08-11T12:20:22.000Z</Time>
            <Position>
              <LatitudeDegrees>43.319451548159122467041015625</LatitudeDegrees>
              <LongitudeDegrees>-1.798019818961620330810546875</LongitudeDegrees>
            </Position>
            <AltitudeMeters>59.59999847412109375</AltitudeMeters>
            <DistanceMeters>NAN</DistanceMeters>
          </Trackpoint>
          <Trackpoint>
            <Time>2021-08-11T12:20:23.000Z</Time>
            <Position>
              <LatitudeDegrees>43.319421708583831787109375</LatitudeDegrees>
              <LongitudeDegrees>-1.79805678315460681915283203125</LongitudeDegrees>
            </Position>
            <AltitudeMeters>59.799999237060546875</AltitudeMeters>
            <DistanceMeters>NAN</DistanceMeters>
          </Trackpoint>
          <Trackpoint>
            <Time>2021-08-11T12:20:24.000Z</Time>
            <Position>
              <LatitudeDegrees>43.3193839900195598602294921875</LatitudeDegrees>
              <LongitudeDegrees>-1.79809869267046451568603515625</LongitudeDegrees>
            </Position>
            <AltitudeMeters>59.799999237060546875</AltitudeMeters>
            <DistanceMeters>NAN</DistanceMeters>
          </Trackpoint>
          <Trackpoint>
            <Time>2021-08-11T12:20:25.000Z</Time>
            <Position>
              <LatitudeDegrees>43.3193586766719818115234375</LatitudeDegrees>
              <LongitudeDegrees>-1.798127777874469757080078125</LongitudeDegrees>
            </Position>
            <AltitudeMeters>60</AltitudeMeters>
            <DistanceMeters>NAN</DistanceMeters>
          </Trackpoint>
          <Trackpoint>
            <Time>2021-08-11T12:20:26.000Z</Time>
            <Position>
              <LatitudeDegrees>43.3193264901638031005859375</LatitudeDegrees>
              <LongitudeDegrees>-1.79816004820168018341064453125</LongitudeDegrees>
            </Position>
            <AltitudeMeters>60</AltitudeMeters>
            <DistanceMeters>NAN</DistanceMeters>
          </Trackpoint>
          <Trackpoint>
            <Time>2021-08-11T12:20:27.000Z</Time>
            <Position>
              <LatitudeDegrees>43.3192964829504489898681640625</LatitudeDegrees>
              <LongitudeDegrees>-1.798191480338573455810546875</LongitudeDegrees>
            </Position>
            <AltitudeMeters>60.200000762939453125</AltitudeMeters>
            <DistanceMeters>NAN</DistanceMeters>
          </Trackpoint>
          <Trackpoint>
            <Time>2021-08-11T12:20:28.000Z</Time>
            <Position>
              <LatitudeDegrees>43.31926739774644374847412109375</LatitudeDegrees>
              <LongitudeDegrees>-1.7982213199138641357421875</LongitudeDegrees>
            </Position>
            <AltitudeMeters>60.200000762939453125</AltitudeMeters>
            <DistanceMeters>NAN</DistanceMeters>
          </Trackpoint>
          <Trackpoint>
            <Time>2021-08-11T12:20:29.000Z</Time>
            <Position>
              <LatitudeDegrees>43.31923663616180419921875</LatitudeDegrees>
              <LongitudeDegrees>-1.79824705235660076141357421875</LongitudeDegrees>
            </Position>
            <AltitudeMeters>60.40000152587890625</AltitudeMeters>
            <DistanceMeters>NAN</DistanceMeters>
          </Trackpoint>
          <Trackpoint>
            <Time>2021-08-11T12:20:30.000Z</Time>
            <Position>
              <LatitudeDegrees>43.31920486874878406524658203125</LatitudeDegrees>
              <LongitudeDegrees>-1.79827571846544742584228515625</LongitudeDegrees>
            </Position>
            <AltitudeMeters>60.59999847412109375</AltitudeMeters>
            <DistanceMeters>NAN</DistanceMeters>
          </Trackpoint>
          <Trackpoint>
            <Time>2021-08-11T12:20:31.000Z</Time>
            <Position>
              <LatitudeDegrees>43.3191731013357639312744140625</LatitudeDegrees>
              <LongitudeDegrees>-1.7983032949268817901611328125</LongitudeDegrees>
            </Position>
            <AltitudeMeters>60.40000152587890625</AltitudeMeters>
            <DistanceMeters>NAN</DistanceMeters>
          </Trackpoint>
          <Trackpoint>
            <Time>2021-08-11T12:20:32.000Z</Time>
            <Position>
              <LatitudeDegrees>43.31914166919887065887451171875</LatitudeDegrees>
              <LongitudeDegrees>-1.79833070375025272369384765625</LongitudeDegrees>
            </Position>
            <AltitudeMeters>60.799999237060546875</AltitudeMeters>
            <DistanceMeters>NAN</DistanceMeters>
          </Trackpoint>
          <Trackpoint>
            <Time>2021-08-11T12:20:33.000Z</Time>
            <Position>
              <LatitudeDegrees>43.31911032088100910186767578125</LatitudeDegrees>
              <LongitudeDegrees>-1.79835165850818157196044921875</LongitudeDegrees>
            </Position>
            <AltitudeMeters>61</AltitudeMeters>
            <DistanceMeters>NAN</DistanceMeters>
          </Trackpoint>
          <Trackpoint>
            <Time>2021-08-11T12:20:34.000Z</Time>
            <Position>
              <LatitudeDegrees>43.31908131949603557586669921875</LatitudeDegrees>
              <LongitudeDegrees>-1.798369847238063812255859375</LongitudeDegrees>
            </Position>
            <AltitudeMeters>61</AltitudeMeters>
            <DistanceMeters>NAN</DistanceMeters>
          </Trackpoint>
          <Trackpoint>
            <Time>2021-08-11T12:20:35.000Z</Time>
            <Position>
              <LatitudeDegrees>43.31905223429203033447265625</LatitudeDegrees>
              <LongitudeDegrees>-1.79838719777762889862060546875</LongitudeDegrees>
            </Position>
            <AltitudeMeters>61</AltitudeMeters>
            <DistanceMeters>NAN</DistanceMeters>
          </Trackpoint>
          <Trackpoint>
            <Time>2021-08-11T12:20:36.000Z</Time>
            <Position>
              <LatitudeDegrees>43.3190218918025493621826171875</LatitudeDegrees>
              <LongitudeDegrees>-1.79839792661368846893310546875</LongitudeDegrees>
            </Position>
            <AltitudeMeters>61.200000762939453125</AltitudeMeters>
            <DistanceMeters>NAN</DistanceMeters>
          </Trackpoint>
          <Trackpoint>
            <Time>2021-08-11T12:20:37.000Z</Time>
            <Position>
              <LatitudeDegrees>43.31898626871407032012939453125</LatitudeDegrees>
              <LongitudeDegrees>-1.7984115891158580780029296875</LongitudeDegrees>
            </Position>
            <AltitudeMeters>61.40000152587890625</AltitudeMeters>
            <DistanceMeters>NAN</DistanceMeters>
          </Trackpoint>
          <Trackpoint>
            <Time>2021-08-11T12:20:38.000Z</Time>
            <Position>
              <LatitudeDegrees>43.3189494721591472625732421875</LatitudeDegrees>
              <LongitudeDegrees>-1.798429526388645172119140625</LongitudeDegrees>
            </Position>
            <AltitudeMeters>61.40000152587890625</AltitudeMeters>
            <DistanceMeters>NAN</DistanceMeters>
          </Trackpoint>
          <Trackpoint>
            <Time>2021-08-11T12:20:39.000Z</Time>
            <Position>
              <LatitudeDegrees>43.31891418434679508209228515625</LatitudeDegrees>
              <LongitudeDegrees>-1.79844595491886138916015625</LongitudeDegrees>
            </Position>
            <AltitudeMeters>61.59999847412109375</AltitudeMeters>
            <DistanceMeters>NAN</DistanceMeters>
          </Trackpoint>
          <Trackpoint>
            <Time>2021-08-11T12:20:40.000Z</Time>
            <Position>
              <LatitudeDegrees>43.3188800700008869171142578125</LatitudeDegrees>
              <LongitudeDegrees>-1.79846263490617275238037109375</LongitudeDegrees>
            </Position>
            <AltitudeMeters>61.799999237060546875</AltitudeMeters>
            <DistanceMeters>NAN</DistanceMeters>
          </Trackpoint>
          <Trackpoint>
            <Time>2021-08-11T12:20:41.000Z</Time>
            <Position>
              <LatitudeDegrees>43.31884411163628101348876953125</LatitudeDegrees>
              <LongitudeDegrees>-1.7984776385128498077392578125</LongitudeDegrees>
            </Position>
            <AltitudeMeters>62</AltitudeMeters>
            <DistanceMeters>NAN</DistanceMeters>
          </Trackpoint>
          <Trackpoint>
            <Time>2021-08-11T12:20:42.000Z</Time>
            <Position>
              <LatitudeDegrees>43.31880874000489711761474609375</LatitudeDegrees>
              <LongitudeDegrees>-1.7984940670430660247802734375</LongitudeDegrees>
            </Position>
            <AltitudeMeters>62.200000762939453125</AltitudeMeters>
            <DistanceMeters>NAN</DistanceMeters>
          </Trackpoint>
          <Trackpoint>
            <Time>2021-08-11T12:20:43.000Z</Time>
            <Position>
              <LatitudeDegrees>43.31877571530640125274658203125</LatitudeDegrees>
              <LongitudeDegrees>-1.79850496351718902587890625</LongitudeDegrees>
            </Position>
            <AltitudeMeters>62.40000152587890625</AltitudeMeters>
            <DistanceMeters>NAN</DistanceMeters>
          </Trackpoint>
          <Trackpoint>
            <Time>2021-08-11T12:20:44.000Z</Time>
            <Position>
              <LatitudeDegrees>43.31874109804630279541015625</LatitudeDegrees>
              <LongitudeDegrees>-1.79852105677127838134765625</LongitudeDegrees>
            </Position>
            <AltitudeMeters>62.59999847412109375</AltitudeMeters>
            <DistanceMeters>NAN</DistanceMeters>
          </Trackpoint>
          <Trackpoint>
            <Time>2021-08-11T12:20:45.000Z</Time>
            <Position>
              <LatitudeDegrees>43.31870564259588718414306640625</LatitudeDegrees>
              <LongitudeDegrees>-1.79854142479598522186279296875</LongitudeDegrees>
            </Position>
            <AltitudeMeters>62.799999237060546875</AltitudeMeters>
            <DistanceMeters>NAN</DistanceMeters>
          </Trackpoint>
          <Trackpoint>
            <Time>2021-08-11T12:20:46.000Z</Time>
            <Position>
              <LatitudeDegrees>43.31866800785064697265625</LatitudeDegrees>
              <LongitudeDegrees>-1.7985587753355503082275390625</LongitudeDegrees>
            </Position>
            <AltitudeMeters>62.799999237060546875</AltitudeMeters>
            <DistanceMeters>NAN</DistanceMeters>
          </Trackpoint>
          <Trackpoint>
            <Time>2021-08-11T12:20:47.000Z</Time>
            <Position>
              <LatitudeDegrees>43.318630792200565338134765625</LatitudeDegrees>
              <LongitudeDegrees>-1.79857780225574970245361328125</LongitudeDegrees>
            </Position>
            <AltitudeMeters>63</AltitudeMeters>
            <DistanceMeters>NAN</DistanceMeters>
          </Trackpoint>
          <Trackpoint>
            <Time>2021-08-11T12:20:48.000Z</Time>
            <Position>
              <LatitudeDegrees>43.318595588207244873046875</LatitudeDegrees>
              <LongitudeDegrees>-1.79859423078596591949462890625</LongitudeDegrees>
            </Position>
            <AltitudeMeters>63.40000152587890625</AltitudeMeters>
            <DistanceMeters>NAN</DistanceMeters>
          </Trackpoint>
          <Trackpoint>
            <Time>2021-08-11T12:20:49.000Z</Time>
            <Position>
              <LatitudeDegrees>43.3185622282326221466064453125</LatitudeDegrees>
              <LongitudeDegrees>-1.79861065931618213653564453125</LongitudeDegrees>
            </Position>
            <AltitudeMeters>63.59999847412109375</AltitudeMeters>
            <DistanceMeters>NAN</DistanceMeters>
          </Trackpoint>
          <Trackpoint>
            <Time>2021-08-11T12:20:50.000Z</Time>
            <Position>
              <LatitudeDegrees>43.31852878443896770477294921875</LatitudeDegrees>
              <LongitudeDegrees>-1.79862658493220806121826171875</LongitudeDegrees>
            </Position>
            <AltitudeMeters>63.799999237060546875</AltitudeMeters>
            <DistanceMeters>NAN</DistanceMeters>
          </Trackpoint>
          <Trackpoint>
            <Time>2021-08-11T12:20:51.000Z</Time>
            <Position>
              <LatitudeDegrees>43.318494670093059539794921875</LatitudeDegrees>
              <LongitudeDegrees>-1.798638068139553070068359375</LongitudeDegrees>
            </Position>
            <AltitudeMeters>64</AltitudeMeters>
            <DistanceMeters>NAN</DistanceMeters>
          </Trackpoint>
          <Trackpoint>
            <Time>2021-08-11T12:20:52.000Z</Time>
            <Position>
              <LatitudeDegrees>43.3184574544429779052734375</LatitudeDegrees>
              <LongitudeDegrees>-1.79864753969013690948486328125</LongitudeDegrees>
            </Position>
            <AltitudeMeters>64.1999969482421875</AltitudeMeters>
            <DistanceMeters>NAN</DistanceMeters>
          </Trackpoint>
          <Trackpoint>
            <Time>2021-08-11T12:20:53.000Z</Time>
            <Position>
              <LatitudeDegrees>43.3184194006025791168212890625</LatitudeDegrees>
              <LongitudeDegrees>-1.7986610345542430877685546875</LongitudeDegrees>
            </Position>
            <AltitudeMeters>64.40000152587890625</AltitudeMeters>
            <DistanceMeters>NAN</DistanceMeters>
          </Trackpoint>
          <Trackpoint>
            <Time>2021-08-11T12:20:54.000Z</Time>
            <Position>
              <LatitudeDegrees>43.31838713027536869049072265625</LatitudeDegrees>
              <LongitudeDegrees>-1.798675619065761566162109375</LongitudeDegrees>
            </Position>
            <AltitudeMeters>64.59999847412109375</AltitudeMeters>
            <DistanceMeters>NAN</DistanceMeters>
          </Trackpoint>
          <Trackpoint>
            <Time>2021-08-11T12:20:55.000Z</Time>
            <Position>
              <LatitudeDegrees>43.31835754215717315673828125</LatitudeDegrees>
              <LongitudeDegrees>-1.79869045503437519073486328125</LongitudeDegrees>
            </Position>
            <AltitudeMeters>64.8000030517578125</AltitudeMeters>
            <DistanceMeters>NAN</DistanceMeters>
          </Trackpoint>
          <Trackpoint>
            <Time>2021-08-11T12:20:56.000Z</Time>
            <Position>
              <LatitudeDegrees>43.318327702581882476806640625</LatitudeDegrees>
              <LongitudeDegrees>-1.79870470426976680755615234375</LongitudeDegrees>
            </Position>
            <AltitudeMeters>65</AltitudeMeters>
            <DistanceMeters>NAN</DistanceMeters>
          </Trackpoint>
          <Trackpoint>
            <Time>2021-08-11T12:20:57.000Z</Time>
            <Position>
              <LatitudeDegrees>43.31829057075083255767822265625</LatitudeDegrees>
              <LongitudeDegrees>-1.79872347973287105560302734375</LongitudeDegrees>
            </Position>
            <AltitudeMeters>65.40000152587890625</AltitudeMeters>
            <DistanceMeters>NAN</DistanceMeters>
          </Trackpoint>
          <Trackpoint>
            <Time>2021-08-11T12:20:58.000Z</Time>
            <Position>
              <LatitudeDegrees>43.3182588033378124237060546875</LatitudeDegrees>
              <LongitudeDegrees>-1.79874527268111705780029296875</LongitudeDegrees>
            </Position>
            <AltitudeMeters>65.40000152587890625</AltitudeMeters>
            <DistanceMeters>NAN</DistanceMeters>
          </Trackpoint>
          <Trackpoint>
            <Time>2021-08-11T12:20:59.000Z</Time>
            <Position>
              <LatitudeDegrees>43.31823357380926609039306640625</LatitudeDegrees>
              <LongitudeDegrees>-1.7987684905529022216796875</LongitudeDegrees>
            </Position>
            <AltitudeMeters>65.8000030517578125</AltitudeMeters>
            <DistanceMeters>NAN</DistanceMeters>
          </Trackpoint>
          <Trackpoint>
            <Time>2021-08-11T12:21:00.000Z</Time>
            <Position>
              <LatitudeDegrees>43.3182028122246265411376953125</LatitudeDegrees>
              <LongitudeDegrees>-1.79879019968211650848388671875</LongitudeDegrees>
            </Position>
            <AltitudeMeters>66.40000152587890625</AltitudeMeters>
            <DistanceMeters>NAN</DistanceMeters>
          </Trackpoint>
          <Trackpoint>
            <Time>2021-08-11T12:21:01.000Z</Time>
            <Position>
              <LatitudeDegrees>43.31817506812512874603271484375</LatitudeDegrees>
              <LongitudeDegrees>-1.79882003925740718841552734375</LongitudeDegrees>
            </Position>
            <AltitudeMeters>66.59999847412109375</AltitudeMeters>
            <DistanceMeters>NAN</DistanceMeters>
          </Trackpoint>
          <Trackpoint>
            <Time>2021-08-11T12:21:02.000Z</Time>
            <Position>
              <LatitudeDegrees>43.31814439035952091217041015625</LatitudeDegrees>
              <LongitudeDegrees>-1.79885172285139560699462890625</LongitudeDegrees>
            </Position>
            <AltitudeMeters>66.8000030517578125</AltitudeMeters>
            <DistanceMeters>NAN</DistanceMeters>
          </Trackpoint>
          <Trackpoint>
            <Time>2021-08-11T12:21:03.000Z</Time>
            <Position>
              <LatitudeDegrees>43.31811874173581600189208984375</LatitudeDegrees>
              <LongitudeDegrees>-1.79888005368411540985107421875</LongitudeDegrees>
            </Position>
            <AltitudeMeters>67</AltitudeMeters>
            <DistanceMeters>NAN</DistanceMeters>
          </Trackpoint>
          <Trackpoint>
            <Time>2021-08-11T12:21:04.000Z</Time>
            <Position>
              <LatitudeDegrees>43.3180928416550159454345703125</LatitudeDegrees>
              <LongitudeDegrees>-1.7989084683358669281005859375</LongitudeDegrees>
            </Position>
            <AltitudeMeters>67.1999969482421875</AltitudeMeters>
            <DistanceMeters>NAN</DistanceMeters>
          </Trackpoint>
          <Trackpoint>
            <Time>2021-08-11T12:21:05.000Z</Time>
            <Position>
              <LatitudeDegrees>43.31806912086904048919677734375</LatitudeDegrees>
              <LongitudeDegrees>-1.79893721826374530792236328125</LongitudeDegrees>
            </Position>
            <AltitudeMeters>67.40000152587890625</AltitudeMeters>
            <DistanceMeters>NAN</DistanceMeters>
          </Trackpoint>
          <Trackpoint>
            <Time>2021-08-11T12:21:06.000Z</Time>
            <Position>
              <LatitudeDegrees>43.3180516026914119720458984375</LatitudeDegrees>
              <LongitudeDegrees>-1.7989624477922916412353515625</LongitudeDegrees>
            </Position>
            <AltitudeMeters>67.8000030517578125</AltitudeMeters>
            <DistanceMeters>NAN</DistanceMeters>
          </Trackpoint>
          <Trackpoint>
            <Time>2021-08-11T12:21:07.000Z</Time>
            <Position>
              <LatitudeDegrees>43.3180402033030986785888671875</LatitudeDegrees>
              <LongitudeDegrees>-1.79899220354855060577392578125</LongitudeDegrees>
            </Position>
            <AltitudeMeters>68.1999969482421875</AltitudeMeters>
            <DistanceMeters>NAN</DistanceMeters>
          </Trackpoint>
          <Trackpoint>
            <Time>2021-08-11T12:21:08.000Z</Time>
            <Position>
              <LatitudeDegrees>43.31802452914416790008544921875</LatitudeDegrees>
              <LongitudeDegrees>-1.799024306237697601318359375</LongitudeDegrees>
            </Position>
            <AltitudeMeters>68.1999969482421875</AltitudeMeters>
            <DistanceMeters>NAN</DistanceMeters>
          </Trackpoint>
          <Trackpoint>
            <Time>2021-08-11T12:21:09.000Z</Time>
            <Position>
              <LatitudeDegrees>43.31800885498523712158203125</LatitudeDegrees>
              <LongitudeDegrees>-1.79905825294554233551025390625</LongitudeDegrees>
            </Position>
            <AltitudeMeters>68.59999847412109375</AltitudeMeters>
            <DistanceMeters>NAN</DistanceMeters>
          </Trackpoint>
          <Trackpoint>
            <Time>2021-08-11T12:21:10.000Z</Time>
            <Position>
              <LatitudeDegrees>43.31799552775919437408447265625</LatitudeDegrees>
              <LongitudeDegrees>-1.79909245111048221588134765625</LongitudeDegrees>
            </Position>
            <AltitudeMeters>68.59999847412109375</AltitudeMeters>
            <DistanceMeters>NAN</DistanceMeters>
          </Trackpoint>
          <Trackpoint>
            <Time>2021-08-11T12:21:11.000Z</Time>
            <Position>
              <LatitudeDegrees>43.31798479892313480377197265625</LatitudeDegrees>
              <LongitudeDegrees>-1.7991253919899463653564453125</LongitudeDegrees>
            </Position>
            <AltitudeMeters>69</AltitudeMeters>
            <DistanceMeters>NAN</DistanceMeters>
          </Trackpoint>
          <Trackpoint>
            <Time>2021-08-11T12:21:12.000Z</Time>
            <Position>
              <LatitudeDegrees>43.3179734833538532257080078125</LatitudeDegrees>
              <LongitudeDegrees>-1.7991629429161548614501953125</LongitudeDegrees>
            </Position>
            <AltitudeMeters>69</AltitudeMeters>
            <DistanceMeters>NAN</DistanceMeters>
          </Trackpoint>
          <Trackpoint>
            <Time>2021-08-11T12:21:13.000Z</Time>
            <Position>
              <LatitudeDegrees>43.31796233542263507843017578125</LatitudeDegrees>
              <LongitudeDegrees>-1.7992030084133148193359375</LongitudeDegrees>
            </Position>
            <AltitudeMeters>69.59999847412109375</AltitudeMeters>
            <DistanceMeters>NAN</DistanceMeters>
          </Trackpoint>
          <Trackpoint>
            <Time>2021-08-11T12:21:14.000Z</Time>
            <Position>
              <LatitudeDegrees>43.31794741563498973846435546875</LatitudeDegrees>
              <LongitudeDegrees>-1.79924382828176021575927734375</LongitudeDegrees>
            </Position>
            <AltitudeMeters>70</AltitudeMeters>
            <DistanceMeters>NAN</DistanceMeters>
          </Trackpoint>
          <Trackpoint>
            <Time>2021-08-11T12:21:15.000Z</Time>
            <Position>
              <LatitudeDegrees>43.31793115474283695220947265625</LatitudeDegrees>
              <LongitudeDegrees>-1.79928322322666645050048828125</LongitudeDegrees>
            </Position>
            <AltitudeMeters>70.1999969482421875</AltitudeMeters>
            <DistanceMeters>NAN</DistanceMeters>
          </Trackpoint>
          <Trackpoint>
            <Time>2021-08-11T12:21:16.000Z</Time>
            <Position>
              <LatitudeDegrees>43.317915312945842742919921875</LatitudeDegrees>
              <LongitudeDegrees>-1.79932680912315845489501953125</LongitudeDegrees>
            </Position>
            <AltitudeMeters>70.40000152587890625</AltitudeMeters>
            <DistanceMeters>NAN</DistanceMeters>
          </Trackpoint>
          <Trackpoint>
            <Time>2021-08-11T12:21:17.000Z</Time>
            <Position>
              <LatitudeDegrees>43.3179037459194660186767578125</LatitudeDegrees>
              <LongitudeDegrees>-1.79937039501965045928955078125</LongitudeDegrees>
            </Position>
            <AltitudeMeters>70.59999847412109375</AltitudeMeters>
            <DistanceMeters>NAN</DistanceMeters>
          </Trackpoint>
          <Trackpoint>
            <Time>2021-08-11T12:21:18.000Z</Time>
            <Position>
              <LatitudeDegrees>43.3178940229117870330810546875</LatitudeDegrees>
              <LongitudeDegrees>-1.7994123883545398712158203125</LongitudeDegrees>
            </Position>
            <AltitudeMeters>70.8000030517578125</AltitudeMeters>
            <DistanceMeters>NAN</DistanceMeters>
          </Trackpoint>
          <Trackpoint>
            <Time>2021-08-11T12:21:19.000Z</Time>
            <Position>
              <LatitudeDegrees>43.31788086332380771636962890625</LatitudeDegrees>
              <LongitudeDegrees>-1.7994623444974422454833984375</LongitudeDegrees>
            </Position>
            <AltitudeMeters>71</AltitudeMeters>
            <DistanceMeters>NAN</DistanceMeters>
          </Trackpoint>
          <Trackpoint>
            <Time>2021-08-11T12:21:20.000Z</Time>
            <Position>
              <LatitudeDegrees>43.31786963157355785369873046875</LatitudeDegrees>
              <LongitudeDegrees>-1.79950400255620479583740234375</LongitudeDegrees>
            </Position>
            <AltitudeMeters>71.1999969482421875</AltitudeMeters>
            <DistanceMeters>NAN</DistanceMeters>
          </Trackpoint>
          <Trackpoint>
            <Time>2021-08-11T12:21:21.000Z</Time>
            <Position>
              <LatitudeDegrees>43.3178539574146270751953125</LatitudeDegrees>
              <LongitudeDegrees>-1.79955345578491687774658203125</LongitudeDegrees>
            </Position>
            <AltitudeMeters>71.40000152587890625</AltitudeMeters>
            <DistanceMeters>NAN</DistanceMeters>
          </Trackpoint>
          <Trackpoint>
            <Time>2021-08-11T12:21:22.000Z</Time>
            <Position>
              <LatitudeDegrees>43.31784431822597980499267578125</LatitudeDegrees>
              <LongitudeDegrees>-1.7995863966643810272216796875</LongitudeDegrees>
            </Position>
            <AltitudeMeters>71.59999847412109375</AltitudeMeters>
            <DistanceMeters>NAN</DistanceMeters>
          </Trackpoint>
          <Trackpoint>
            <Time>2021-08-11T12:21:23.000Z</Time>
            <Position>
              <LatitudeDegrees>43.31783308647572994232177734375</LatitudeDegrees>
              <LongitudeDegrees>-1.799629144370555877685546875</LongitudeDegrees>
            </Position>
            <AltitudeMeters>71.8000030517578125</AltitudeMeters>
            <DistanceMeters>NAN</DistanceMeters>
          </Trackpoint>
          <Trackpoint>
            <Time>2021-08-11T12:21:24.000Z</Time>
            <Position>
              <LatitudeDegrees>43.31782135181128978729248046875</LatitudeDegrees>
              <LongitudeDegrees>-1.7996718920767307281494140625</LongitudeDegrees>
            </Position>
            <AltitudeMeters>72</AltitudeMeters>
            <DistanceMeters>NAN</DistanceMeters>
          </Trackpoint>
          <Trackpoint>
            <Time>2021-08-11T12:21:25.000Z</Time>
            <Position>
              <LatitudeDegrees>43.31781045533716678619384765625</LatitudeDegrees>
              <LongitudeDegrees>-1.79971304722130298614501953125</LongitudeDegrees>
            </Position>
            <AltitudeMeters>72</AltitudeMeters>
            <DistanceMeters>NAN</DistanceMeters>
          </Trackpoint>
          <Trackpoint>
            <Time>2021-08-11T12:21:26.000Z</Time>
            <Position>
              <LatitudeDegrees>43.317797966301441192626953125</LatitudeDegrees>
              <LongitudeDegrees>-1.79975260980427265167236328125</LongitudeDegrees>
            </Position>
            <AltitudeMeters>72</AltitudeMeters>
            <DistanceMeters>NAN</DistanceMeters>
          </Trackpoint>
          <Trackpoint>
            <Time>2021-08-11T12:21:27.000Z</Time>
            <Position>
              <LatitudeDegrees>43.31778354942798614501953125</LatitudeDegrees>
              <LongitudeDegrees>-1.79979133419692516326904296875</LongitudeDegrees>
            </Position>
            <AltitudeMeters>72.40000152587890625</AltitudeMeters>
            <DistanceMeters>NAN</DistanceMeters>
          </Trackpoint>
          <Trackpoint>
            <Time>2021-08-11T12:21:28.000Z</Time>
            <Position>
              <LatitudeDegrees>43.31777013838291168212890625</LatitudeDegrees>
              <LongitudeDegrees>-1.79983190260827541351318359375</LongitudeDegrees>
            </Position>
            <AltitudeMeters>72.8000030517578125</AltitudeMeters>
            <DistanceMeters>NAN</DistanceMeters>
          </Trackpoint>
          <Trackpoint>
            <Time>2021-08-11T12:21:29.000Z</Time>
            <Position>
              <LatitudeDegrees>43.317758403718471527099609375</LatitudeDegrees>
              <LongitudeDegrees>-1.79987297393381595611572265625</LongitudeDegrees>
            </Position>
            <AltitudeMeters>72.8000030517578125</AltitudeMeters>
            <DistanceMeters>NAN</DistanceMeters>
          </Trackpoint>
          <Trackpoint>
            <Time>2021-08-11T12:21:30.000Z</Time>
            <Position>
              <LatitudeDegrees>43.3177491836249828338623046875</LatitudeDegrees>
              <LongitudeDegrees>-1.7999122850596904754638671875</LongitudeDegrees>
            </Position>
            <AltitudeMeters>73.1999969482421875</AltitudeMeters>
            <DistanceMeters>NAN</DistanceMeters>
          </Trackpoint>
          <Trackpoint>
            <Time>2021-08-11T12:21:31.000Z</Time>
            <Position>
              <LatitudeDegrees>43.31774256192147731781005859375</LatitudeDegrees>
              <LongitudeDegrees>-1.799957044422626495361328125</LongitudeDegrees>
            </Position>
            <AltitudeMeters>73.1999969482421875</AltitudeMeters>
            <DistanceMeters>NAN</DistanceMeters>
          </Trackpoint>
          <Trackpoint>
            <Time>2021-08-11T12:21:32.000Z</Time>
            <Position>
              <LatitudeDegrees>43.31773987971246242523193359375</LatitudeDegrees>
              <LongitudeDegrees>-1.80000473745167255401611328125</LongitudeDegrees>
            </Position>
            <AltitudeMeters>73.59999847412109375</AltitudeMeters>
            <DistanceMeters>NAN</DistanceMeters>
          </Trackpoint>
          <Trackpoint>
            <Time>2021-08-11T12:21:33.000Z</Time>
            <Position>
              <LatitudeDegrees>43.3177387900650501251220703125</LatitudeDegrees>
              <LongitudeDegrees>-1.80004999972879886627197265625</LongitudeDegrees>
            </Position>
            <AltitudeMeters>73.8000030517578125</AltitudeMeters>
            <DistanceMeters>NAN</DistanceMeters>
          </Trackpoint>
          <Trackpoint>
            <Time>2021-08-11T12:21:34.000Z</Time>
            <Position>
              <LatitudeDegrees>43.3177394606173038482666015625</LatitudeDegrees>
              <LongitudeDegrees>-1.80009241215884685516357421875</LongitudeDegrees>
            </Position>
            <AltitudeMeters>74</AltitudeMeters>
            <DistanceMeters>NAN</DistanceMeters>
          </Trackpoint>
          <Trackpoint>
            <Time>2021-08-11T12:21:35.000Z</Time>
            <Position>
              <LatitudeDegrees>43.31774038262665271759033203125</LatitudeDegrees>
              <LongitudeDegrees>-1.8001318909227848052978515625</LongitudeDegrees>
            </Position>
            <AltitudeMeters>74.1999969482421875</AltitudeMeters>
            <DistanceMeters>NAN</DistanceMeters>
          </Trackpoint>
          <Trackpoint>
            <Time>2021-08-11T12:21:36.000Z</Time>
            <Position>
              <LatitudeDegrees>43.317738287150859832763671875</LatitudeDegrees>
              <LongitudeDegrees>-1.80017120204865932464599609375</LongitudeDegrees>
            </Position>
            <AltitudeMeters>74.40000152587890625</AltitudeMeters>
            <DistanceMeters>NAN</DistanceMeters>
          </Trackpoint>
          <Trackpoint>
            <Time>2021-08-11T12:21:37.000Z</Time>
            <Position>
              <LatitudeDegrees>43.31773635931313037872314453125</LatitudeDegrees>
              <LongitudeDegrees>-1.80021143518388271331787109375</LongitudeDegrees>
            </Position>
            <AltitudeMeters>74.8000030517578125</AltitudeMeters>
            <DistanceMeters>NAN</DistanceMeters>
          </Trackpoint>
          <Trackpoint>
            <Time>2021-08-11T12:21:38.000Z</Time>
            <Position>
              <LatitudeDegrees>43.31773459911346435546875</LatitudeDegrees>
              <LongitudeDegrees>-1.80025183595716953277587890625</LongitudeDegrees>
            </Position>
            <AltitudeMeters>75</AltitudeMeters>
            <DistanceMeters>NAN</DistanceMeters>
          </Trackpoint>
          <Trackpoint>
            <Time>2021-08-11T12:21:39.000Z</Time>
            <Position>
              <LatitudeDegrees>43.3177334256470203399658203125</LatitudeDegrees>
              <LongitudeDegrees>-1.80029139854013919830322265625</LongitudeDegrees>
            </Position>
            <AltitudeMeters>75.40000152587890625</AltitudeMeters>
            <DistanceMeters>NAN</DistanceMeters>
          </Trackpoint>
          <Trackpoint>
            <Time>2021-08-11T12:21:40.000Z</Time>
            <Position>
              <LatitudeDegrees>43.317735604941844940185546875</LatitudeDegrees>
              <LongitudeDegrees>-1.80033029057085514068603515625</LongitudeDegrees>
            </Position>
            <AltitudeMeters>75.59999847412109375</AltitudeMeters>
            <DistanceMeters>NAN</DistanceMeters>
          </Trackpoint>
          <Trackpoint>
            <Time>2021-08-11T12:21:41.000Z</Time>
            <Position>
              <LatitudeDegrees>43.3177361078560352325439453125</LatitudeDegrees>
              <LongitudeDegrees>-1.8003642372786998748779296875</LongitudeDegrees>
            </Position>
            <AltitudeMeters>76.1999969482421875</AltitudeMeters>
            <DistanceMeters>NAN</DistanceMeters>
          </Trackpoint>
          <Trackpoint>
            <Time>2021-08-11T12:21:42.000Z</Time>
            <Position>
              <LatitudeDegrees>43.31773384474217891693115234375</LatitudeDegrees>
              <LongitudeDegrees>-1.800398267805576324462890625</LongitudeDegrees>
            </Position>
            <AltitudeMeters>76.1999969482421875</AltitudeMeters>
            <DistanceMeters>NAN</DistanceMeters>
          </Trackpoint>
          <Trackpoint>
            <Time>2021-08-11T12:21:43.000Z</Time>
            <Position>
              <LatitudeDegrees>43.3177314139902591705322265625</LatitudeDegrees>
              <LongitudeDegrees>-1.80043187923729419708251953125</LongitudeDegrees>
            </Position>
            <AltitudeMeters>76.40000152587890625</AltitudeMeters>
            <DistanceMeters>NAN</DistanceMeters>
          </Trackpoint>
          <Trackpoint>
            <Time>2021-08-11T12:21:44.000Z</Time>
            <Position>
              <LatitudeDegrees>43.31772814504802227020263671875</LatitudeDegrees>
              <LongitudeDegrees>-1.80046699941158294677734375</LongitudeDegrees>
            </Position>
            <AltitudeMeters>76.8000030517578125</AltitudeMeters>
            <DistanceMeters>NAN</DistanceMeters>
          </Trackpoint>
          <Trackpoint>
            <Time>2021-08-11T12:21:45.000Z</Time>
            <Position>
              <LatitudeDegrees>43.31772931851446628570556640625</LatitudeDegrees>
              <LongitudeDegrees>-1.8004993535578250885009765625</LongitudeDegrees>
            </Position>
            <AltitudeMeters>77</AltitudeMeters>
            <DistanceMeters>NAN</DistanceMeters>
          </Trackpoint>
          <Trackpoint>
            <Time>2021-08-11T12:21:46.000Z</Time>
            <Position>
              <LatitudeDegrees>43.3177283965051174163818359375</LatitudeDegrees>
              <LongitudeDegrees>-1.80053028278052806854248046875</LongitudeDegrees>
            </Position>
            <AltitudeMeters>77.40000152587890625</AltitudeMeters>
            <DistanceMeters>NAN</DistanceMeters>
          </Trackpoint>
          <Trackpoint>
            <Time>2021-08-11T12:21:47.000Z</Time>
            <Position>
              <LatitudeDegrees>43.317722864449024200439453125</LatitudeDegrees>
              <LongitudeDegrees>-1.80056666024029254913330078125</LongitudeDegrees>
            </Position>
            <AltitudeMeters>77.59999847412109375</AltitudeMeters>
            <DistanceMeters>NAN</DistanceMeters>
          </Trackpoint>
          <Trackpoint>
            <Time>2021-08-11T12:21:48.000Z</Time>
            <Position>
              <LatitudeDegrees>43.31771791912615299224853515625</LatitudeDegrees>
              <LongitudeDegrees>-1.80059096775949001312255859375</LongitudeDegrees>
            </Position>
            <AltitudeMeters>77.8000030517578125</AltitudeMeters>
            <DistanceMeters>NAN</DistanceMeters>
          </Trackpoint>
          <Trackpoint>
            <Time>2021-08-11T12:21:49.000Z</Time>
            <Position>
              <LatitudeDegrees>43.31771205179393291473388671875</LatitudeDegrees>
              <LongitudeDegrees>-1.80062080733478069305419921875</LongitudeDegrees>
            </Position>
            <AltitudeMeters>78</AltitudeMeters>
            <DistanceMeters>NAN</DistanceMeters>
          </Trackpoint>
          <Trackpoint>
            <Time>2021-08-11T12:21:50.000Z</Time>
            <Position>
              <LatitudeDegrees>43.317702747881412506103515625</LatitudeDegrees>
              <LongitudeDegrees>-1.8006525747478008270263671875</LongitudeDegrees>
            </Position>
            <AltitudeMeters>78.40000152587890625</AltitudeMeters>
            <DistanceMeters>NAN</DistanceMeters>
          </Trackpoint>
          <Trackpoint>
            <Time>2021-08-11T12:21:51.000Z</Time>
            <Position>
              <LatitudeDegrees>43.3176925219595432281494140625</LatitudeDegrees>
              <LongitudeDegrees>-1.80068559944629669189453125</LongitudeDegrees>
            </Position>
            <AltitudeMeters>78.40000152587890625</AltitudeMeters>
            <DistanceMeters>NAN</DistanceMeters>
          </Trackpoint>
          <Trackpoint>
            <Time>2021-08-11T12:21:52.000Z</Time>
            <Position>
              <LatitudeDegrees>43.31768724136054515838623046875</LatitudeDegrees>
              <LongitudeDegrees>-1.8007179535925388336181640625</LongitudeDegrees>
            </Position>
            <AltitudeMeters>78.59999847412109375</AltitudeMeters>
            <DistanceMeters>NAN</DistanceMeters>
          </Trackpoint>
          <Trackpoint>
            <Time>2021-08-11T12:21:53.000Z</Time>
            <Position>
              <LatitudeDegrees>43.31767626106739044189453125</LatitudeDegrees>
              <LongitudeDegrees>-1.80075131356716156005859375</LongitudeDegrees>
            </Position>
            <AltitudeMeters>79</AltitudeMeters>
            <DistanceMeters>NAN</DistanceMeters>
          </Trackpoint>
          <Trackpoint>
            <Time>2021-08-11T12:21:54.000Z</Time>
            <Position>
              <LatitudeDegrees>43.3176662027835845947265625</LatitudeDegrees>
              <LongitudeDegrees>-1.8007814884185791015625</LongitudeDegrees>
            </Position>
            <AltitudeMeters>79</AltitudeMeters>
            <DistanceMeters>NAN</DistanceMeters>
          </Trackpoint>
          <Trackpoint>
            <Time>2021-08-11T12:21:55.000Z</Time>
            <Position>
              <LatitudeDegrees>43.31765656359493732452392578125</LatitudeDegrees>
              <LongitudeDegrees>-1.8008081428706645965576171875</LongitudeDegrees>
            </Position>
            <AltitudeMeters>79.1999969482421875</AltitudeMeters>
            <DistanceMeters>NAN</DistanceMeters>
          </Trackpoint>
          <Trackpoint>
            <Time>2021-08-11T12:21:56.000Z</Time>
            <Position>
              <LatitudeDegrees>43.31764885224401950836181640625</LatitudeDegrees>
              <LongitudeDegrees>-1.80083605460822582244873046875</LongitudeDegrees>
            </Position>
            <AltitudeMeters>79.59999847412109375</AltitudeMeters>
            <DistanceMeters>NAN</DistanceMeters>
          </Trackpoint>
          <Trackpoint>
            <Time>2021-08-11T12:21:57.000Z</Time>
            <Position>
              <LatitudeDegrees>43.31764030270278453826904296875</LatitudeDegrees>
              <LongitudeDegrees>-1.80086757056415081024169921875</LongitudeDegrees>
            </Position>
            <AltitudeMeters>80</AltitudeMeters>
            <DistanceMeters>NAN</DistanceMeters>
          </Trackpoint>
          <Trackpoint>
            <Time>2021-08-11T12:21:58.000Z</Time>
            <Position>
              <LatitudeDegrees>43.31762890331447124481201171875</LatitudeDegrees>
              <LongitudeDegrees>-1.80089824832975864410400390625</LongitudeDegrees>
            </Position>
            <AltitudeMeters>80.1999969482421875</AltitudeMeters>
            <DistanceMeters>NAN</DistanceMeters>
          </Trackpoint>
          <Trackpoint>
            <Time>2021-08-11T12:21:59.000Z</Time>
            <Position>
              <LatitudeDegrees>43.31761968322098255157470703125</LatitudeDegrees>
              <LongitudeDegrees>-1.80092842318117618560791015625</LongitudeDegrees>
            </Position>
            <AltitudeMeters>80.40000152587890625</AltitudeMeters>
            <DistanceMeters>NAN</DistanceMeters>
          </Trackpoint>
          <Trackpoint>
            <Time>2021-08-11T12:22:00.000Z</Time>
            <Position>
              <LatitudeDegrees>43.31761213950812816619873046875</LatitudeDegrees>
              <LongitudeDegrees>-1.80096329189836978912353515625</LongitudeDegrees>
            </Position>
            <AltitudeMeters>80.8000030517578125</AltitudeMeters>
            <DistanceMeters>NAN</DistanceMeters>
          </Trackpoint>
          <Trackpoint>
            <Time>2021-08-11T12:22:01.000Z</Time>
            <Position>
              <LatitudeDegrees>43.31760442815721035003662109375</LatitudeDegrees>
              <LongitudeDegrees>-1.8009969033300876617431640625</LongitudeDegrees>
            </Position>
            <AltitudeMeters>80.8000030517578125</AltitudeMeters>
            <DistanceMeters>NAN</DistanceMeters>
          </Trackpoint>
          <Trackpoint>
            <Time>2021-08-11T12:22:02.000Z</Time>
            <Position>
              <LatitudeDegrees>43.3175937831401824951171875</LatitudeDegrees>
              <LongitudeDegrees>-1.80103017948567867279052734375</LongitudeDegrees>
            </Position>
            <AltitudeMeters>81.1999969482421875</AltitudeMeters>
            <DistanceMeters>NAN</DistanceMeters>
          </Trackpoint>
          <Trackpoint>
            <Time>2021-08-11T12:22:03.000Z</Time>
            <Position>
              <LatitudeDegrees>43.317581377923488616943359375</LatitudeDegrees>
              <LongitudeDegrees>-1.8010589294135570526123046875</LongitudeDegrees>
            </Position>
            <AltitudeMeters>81.40000152587890625</AltitudeMeters>
            <DistanceMeters>NAN</DistanceMeters>
          </Trackpoint>
          <Trackpoint>
            <Time>2021-08-11T12:22:04.000Z</Time>
            <Position>
              <LatitudeDegrees>43.31757173873484134674072265625</LatitudeDegrees>
              <LongitudeDegrees>-1.8010870926082134246826171875</LongitudeDegrees>
            </Position>
            <AltitudeMeters>81.59999847412109375</AltitudeMeters>
            <DistanceMeters>NAN</DistanceMeters>
          </Trackpoint>
          <Trackpoint>
            <Time>2021-08-11T12:22:05.000Z</Time>
            <Position>
              <LatitudeDegrees>43.31756352446973323822021484375</LatitudeDegrees>
              <LongitudeDegrees>-1.80111366324126720428466796875</LongitudeDegrees>
            </Position>
            <AltitudeMeters>82</AltitudeMeters>
            <DistanceMeters>NAN</DistanceMeters>
          </Trackpoint>
          <Trackpoint>
            <Time>2021-08-11T12:22:06.000Z</Time>
            <Position>
              <LatitudeDegrees>43.31755531020462512969970703125</LatitudeDegrees>
              <LongitudeDegrees>-1.80114031769335269927978515625</LongitudeDegrees>
            </Position>
            <AltitudeMeters>82.1999969482421875</AltitudeMeters>
            <DistanceMeters>NAN</DistanceMeters>
          </Trackpoint>
          <Trackpoint>
            <Time>2021-08-11T12:22:07.000Z</Time>
            <Position>
              <LatitudeDegrees>43.31754592247307300567626953125</LatitudeDegrees>
              <LongitudeDegrees>-1.80116848088800907135009765625</LongitudeDegrees>
            </Position>
            <AltitudeMeters>82.8000030517578125</AltitudeMeters>
            <DistanceMeters>NAN</DistanceMeters>
          </Trackpoint>
          <Trackpoint>
            <Time>2021-08-11T12:22:08.000Z</Time>
            <Position>
              <LatitudeDegrees>43.317537792026996612548828125</LatitudeDegrees>
              <LongitudeDegrees>-1.8011973984539508819580078125</LongitudeDegrees>
            </Position>
            <AltitudeMeters>83</AltitudeMeters>
            <DistanceMeters>NAN</DistanceMeters>
          </Trackpoint>
          <Trackpoint>
            <Time>2021-08-11T12:22:09.000Z</Time>
            <Position>
              <LatitudeDegrees>43.31753049977123737335205078125</LatitudeDegrees>
              <LongitudeDegrees>-1.8012282438576221466064453125</LongitudeDegrees>
            </Position>
            <AltitudeMeters>83.1999969482421875</AltitudeMeters>
            <DistanceMeters>NAN</DistanceMeters>
          </Trackpoint>
          <Trackpoint>
            <Time>2021-08-11T12:22:10.000Z</Time>
            <Position>
              <LatitudeDegrees>43.31752245314419269561767578125</LatitudeDegrees>
              <LongitudeDegrees>-1.801254563033580780029296875</LongitudeDegrees>
            </Position>
            <AltitudeMeters>83.40000152587890625</AltitudeMeters>
            <DistanceMeters>NAN</DistanceMeters>
          </Trackpoint>
          <Trackpoint>
            <Time>2021-08-11T12:22:11.000Z</Time>
            <Position>
              <LatitudeDegrees>43.31751172430813312530517578125</LatitudeDegrees>
              <LongitudeDegrees>-1.80128130130469799041748046875</LongitudeDegrees>
            </Position>
            <AltitudeMeters>83.8000030517578125</AltitudeMeters>
            <DistanceMeters>NAN</DistanceMeters>
          </Trackpoint>
          <Trackpoint>
            <Time>2021-08-11T12:22:12.000Z</Time>
            <Position>
              <LatitudeDegrees>43.317499570548534393310546875</LatitudeDegrees>
              <LongitudeDegrees>-1.8013077042996883392333984375</LongitudeDegrees>
            </Position>
            <AltitudeMeters>83.8000030517578125</AltitudeMeters>
            <DistanceMeters>NAN</DistanceMeters>
          </Trackpoint>
          <Trackpoint>
            <Time>2021-08-11T12:22:13.000Z</Time>
            <Position>
              <LatitudeDegrees>43.317487500607967376708984375</LatitudeDegrees>
              <LongitudeDegrees>-1.80133796297013759613037109375</LongitudeDegrees>
            </Position>
            <AltitudeMeters>84.1999969482421875</AltitudeMeters>
            <DistanceMeters>NAN</DistanceMeters>
          </Trackpoint>
          <Trackpoint>
            <Time>2021-08-11T12:22:14.000Z</Time>
            <Position>
              <LatitudeDegrees>43.3174749277532100677490234375</LatitudeDegrees>
              <LongitudeDegrees>-1.801363863050937652587890625</LongitudeDegrees>
            </Position>
            <AltitudeMeters>84.40000152587890625</AltitudeMeters>
            <DistanceMeters>NAN</DistanceMeters>
          </Trackpoint>
          <Trackpoint>
            <Time>2021-08-11T12:22:15.000Z</Time>
            <Position>
              <LatitudeDegrees>43.31745992414653301239013671875</LatitudeDegrees>
              <LongitudeDegrees>-1.80138724856078624725341796875</LongitudeDegrees>
            </Position>
            <AltitudeMeters>84.59999847412109375</AltitudeMeters>
            <DistanceMeters>NAN</DistanceMeters>
          </Trackpoint>
          <Trackpoint>
            <Time>2021-08-11T12:22:16.000Z</Time>
            <Position>
              <LatitudeDegrees>43.31744383089244365692138671875</LatitudeDegrees>
              <LongitudeDegrees>-1.80140870623290538787841796875</LongitudeDegrees>
            </Position>
            <AltitudeMeters>84.8000030517578125</AltitudeMeters>
            <DistanceMeters>NAN</DistanceMeters>
          </Trackpoint>
          <Trackpoint>
            <Time>2021-08-11T12:22:17.000Z</Time>
            <Position>
              <LatitudeDegrees>43.317425809800624847412109375</LatitudeDegrees>
              <LongitudeDegrees>-1.80142697878181934356689453125</LongitudeDegrees>
            </Position>
            <AltitudeMeters>85</AltitudeMeters>
            <DistanceMeters>NAN</DistanceMeters>
          </Trackpoint>
          <Trackpoint>
            <Time>2021-08-11T12:22:18.000Z</Time>
            <Position>
              <LatitudeDegrees>43.317409716546535491943359375</LatitudeDegrees>
              <LongitudeDegrees>-1.8014441616833209991455078125</LongitudeDegrees>
            </Position>
            <AltitudeMeters>85.1999969482421875</AltitudeMeters>
            <DistanceMeters>NAN</DistanceMeters>
          </Trackpoint>
          <Trackpoint>
            <Time>2021-08-11T12:22:19.000Z</Time>
            <Position>
              <LatitudeDegrees>43.3173954673111438751220703125</LatitudeDegrees>
              <LongitudeDegrees>-1.80145673453807830810546875</LongitudeDegrees>
            </Position>
            <AltitudeMeters>85.40000152587890625</AltitudeMeters>
            <DistanceMeters>NAN</DistanceMeters>
          </Trackpoint>
          <Trackpoint>
            <Time>2021-08-11T12:22:20.000Z</Time>
            <Position>
              <LatitudeDegrees>43.31737987697124481201171875</LatitudeDegrees>
              <LongitudeDegrees>-1.80146620608866214752197265625</LongitudeDegrees>
            </Position>
            <AltitudeMeters>85.8000030517578125</AltitudeMeters>
            <DistanceMeters>NAN</DistanceMeters>
          </Trackpoint>
          <Trackpoint>
            <Time>2021-08-11T12:22:21.000Z</Time>
            <Position>
              <LatitudeDegrees>43.31736353226006031036376953125</LatitudeDegrees>
              <LongitudeDegrees>-1.801475845277309417724609375</LongitudeDegrees>
            </Position>
            <AltitudeMeters>86</AltitudeMeters>
            <DistanceMeters>NAN</DistanceMeters>
          </Trackpoint>
          <Trackpoint>
            <Time>2021-08-11T12:22:22.000Z</Time>
            <Position>
              <LatitudeDegrees>43.3173470199108123779296875</LatitudeDegrees>
              <LongitudeDegrees>-1.80148598738014698028564453125</LongitudeDegrees>
            </Position>
            <AltitudeMeters>86.1999969482421875</AltitudeMeters>
            <DistanceMeters>NAN</DistanceMeters>
          </Trackpoint>
          <Trackpoint>
            <Time>2021-08-11T12:22:23.000Z</Time>
            <Position>
              <LatitudeDegrees>43.317329585552215576171875</LatitudeDegrees>
              <LongitudeDegrees>-1.801492609083652496337890625</LongitudeDegrees>
            </Position>
            <AltitudeMeters>86.40000152587890625</AltitudeMeters>
            <DistanceMeters>NAN</DistanceMeters>
          </Trackpoint>
          <Trackpoint>
            <Time>2021-08-11T12:22:24.000Z</Time>
            <Position>
              <LatitudeDegrees>43.31731148064136505126953125</LatitudeDegrees>
              <LongitudeDegrees>-1.8015003204345703125</LongitudeDegrees>
            </Position>
            <AltitudeMeters>86.59999847412109375</AltitudeMeters>
            <DistanceMeters>NAN</DistanceMeters>
          </Trackpoint>
          <Trackpoint>
            <Time>2021-08-11T12:22:25.000Z</Time>
            <Position>
              <LatitudeDegrees>43.31729211844503879547119140625</LatitudeDegrees>
              <LongitudeDegrees>-1.80150895379483699798583984375</LongitudeDegrees>
            </Position>
            <AltitudeMeters>86.8000030517578125</AltitudeMeters>
            <DistanceMeters>NAN</DistanceMeters>
          </Trackpoint>
          <Trackpoint>
            <Time>2021-08-11T12:22:26.000Z</Time>
            <Position>
              <LatitudeDegrees>43.31727099604904651641845703125</LatitudeDegrees>
              <LongitudeDegrees>-1.801515407860279083251953125</LongitudeDegrees>
            </Position>
            <AltitudeMeters>87</AltitudeMeters>
            <DistanceMeters>NAN</DistanceMeters>
          </Trackpoint>
          <Trackpoint>
            <Time>2021-08-11T12:22:27.000Z</Time>
            <Position>
              <LatitudeDegrees>43.31725188530981540679931640625</LatitudeDegrees>
              <LongitudeDegrees>-1.80152244865894317626953125</LongitudeDegrees>
            </Position>
            <AltitudeMeters>87.1999969482421875</AltitudeMeters>
            <DistanceMeters>NAN</DistanceMeters>
          </Trackpoint>
          <Trackpoint>
            <Time>2021-08-11T12:22:28.000Z</Time>
            <Position>
              <LatitudeDegrees>43.31723545677959918975830078125</LatitudeDegrees>
              <LongitudeDegrees>-1.80153359659016132354736328125</LongitudeDegrees>
            </Position>
            <AltitudeMeters>87.59999847412109375</AltitudeMeters>
            <DistanceMeters>NAN</DistanceMeters>
          </Trackpoint>
          <Trackpoint>
            <Time>2021-08-11T12:22:29.000Z</Time>
            <Position>
              <LatitudeDegrees>43.31721450202167034149169921875</LatitudeDegrees>
              <LongitudeDegrees>-1.8015444092452526092529296875</LongitudeDegrees>
            </Position>
            <AltitudeMeters>87.8000030517578125</AltitudeMeters>
            <DistanceMeters>NAN</DistanceMeters>
          </Trackpoint>
          <Trackpoint>
            <Time>2021-08-11T12:22:30.000Z</Time>
            <Position>
              <LatitudeDegrees>43.3171919547021389007568359375</LatitudeDegrees>
              <LongitudeDegrees>-1.8015579879283905029296875</LongitudeDegrees>
            </Position>
            <AltitudeMeters>88</AltitudeMeters>
            <DistanceMeters>NAN</DistanceMeters>
          </Trackpoint>
          <Trackpoint>
            <Time>2021-08-11T12:22:31.000Z</Time>
            <Position>
              <LatitudeDegrees>43.3171718381345272064208984375</LatitudeDegrees>
              <LongitudeDegrees>-1.801567710936069488525390625</LongitudeDegrees>
            </Position>
            <AltitudeMeters>88.1999969482421875</AltitudeMeters>
            <DistanceMeters>NAN</DistanceMeters>
          </Trackpoint>
          <Trackpoint>
            <Time>2021-08-11T12:22:32.000Z</Time>
            <Position>
              <LatitudeDegrees>43.31715247593820095062255859375</LatitudeDegrees>
              <LongitudeDegrees>-1.8015812896192073822021484375</LongitudeDegrees>
            </Position>
            <AltitudeMeters>88.1999969482421875</AltitudeMeters>
            <DistanceMeters>NAN</DistanceMeters>
          </Trackpoint>
          <Trackpoint>
            <Time>2021-08-11T12:22:33.000Z</Time>
            <Position>
              <LatitudeDegrees>43.31713370047509670257568359375</LatitudeDegrees>
              <LongitudeDegrees>-1.801593191921710968017578125</LongitudeDegrees>
            </Position>
            <AltitudeMeters>88.59999847412109375</AltitudeMeters>
            <DistanceMeters>NAN</DistanceMeters>
          </Trackpoint>
          <Trackpoint>
            <Time>2021-08-11T12:22:34.000Z</Time>
            <Position>
              <LatitudeDegrees>43.3171124942600727081298828125</LatitudeDegrees>
              <LongitudeDegrees>-1.801598556339740753173828125</LongitudeDegrees>
            </Position>
            <AltitudeMeters>89</AltitudeMeters>
            <DistanceMeters>NAN</DistanceMeters>
          </Trackpoint>
          <Trackpoint>
            <Time>2021-08-11T12:22:35.000Z</Time>
            <Position>
              <LatitudeDegrees>43.31709145568311214447021484375</LatitudeDegrees>
              <LongitudeDegrees>-1.80160216055810451507568359375</LongitudeDegrees>
            </Position>
            <AltitudeMeters>89.1999969482421875</AltitudeMeters>
            <DistanceMeters>NAN</DistanceMeters>
          </Trackpoint>
          <Trackpoint>
            <Time>2021-08-11T12:22:36.000Z</Time>
            <Position>
              <LatitudeDegrees>43.31707703880965709686279296875</LatitudeDegrees>
              <LongitudeDegrees>-1.8016101233661174774169921875</LongitudeDegrees>
            </Position>
            <AltitudeMeters>89.1999969482421875</AltitudeMeters>
            <DistanceMeters>NAN</DistanceMeters>
          </Trackpoint>
          <Trackpoint>
            <Time>2021-08-11T12:22:37.000Z</Time>
            <Position>
              <LatitudeDegrees>43.31706061027944087982177734375</LatitudeDegrees>
              <LongitudeDegrees>-1.80162278003990650177001953125</LongitudeDegrees>
            </Position>
            <AltitudeMeters>89.59999847412109375</AltitudeMeters>
            <DistanceMeters>NAN</DistanceMeters>
          </Trackpoint>
          <Trackpoint>
            <Time>2021-08-11T12:22:38.000Z</Time>
            <Position>
              <LatitudeDegrees>43.31704418174922466278076171875</LatitudeDegrees>
              <LongitudeDegrees>-1.80163484998047351837158203125</LongitudeDegrees>
            </Position>
            <AltitudeMeters>89.8000030517578125</AltitudeMeters>
            <DistanceMeters>NAN</DistanceMeters>
          </Trackpoint>
          <Trackpoint>
            <Time>2021-08-11T12:22:39.000Z</Time>
            <Position>
              <LatitudeDegrees>43.317026831209659576416015625</LatitudeDegrees>
              <LongitudeDegrees>-1.80164624936878681182861328125</LongitudeDegrees>
            </Position>
            <AltitudeMeters>90</AltitudeMeters>
            <DistanceMeters>NAN</DistanceMeters>
          </Trackpoint>
          <Trackpoint>
            <Time>2021-08-11T12:22:40.000Z</Time>
            <Position>
              <LatitudeDegrees>43.31700797192752361297607421875</LatitudeDegrees>
              <LongitudeDegrees>-1.8016560561954975128173828125</LongitudeDegrees>
            </Position>
            <AltitudeMeters>90.1999969482421875</AltitudeMeters>
            <DistanceMeters>NAN</DistanceMeters>
          </Trackpoint>
          <Trackpoint>
            <Time>2021-08-11T12:22:41.000Z</Time>
            <Position>
              <LatitudeDegrees>43.31698282621800899505615234375</LatitudeDegrees>
              <LongitudeDegrees>-1.8016620911657810211181640625</LongitudeDegrees>
            </Position>
            <AltitudeMeters>90.40000152587890625</AltitudeMeters>
            <DistanceMeters>NAN</DistanceMeters>
          </Trackpoint>
          <Trackpoint>
            <Time>2021-08-11T12:22:42.000Z</Time>
            <Position>
              <LatitudeDegrees>43.3169539086520671844482421875</LatitudeDegrees>
              <LongitudeDegrees>-1.801674664020538330078125</LongitudeDegrees>
            </Position>
            <AltitudeMeters>90.8000030517578125</AltitudeMeters>
            <DistanceMeters>NAN</DistanceMeters>
          </Trackpoint>
          <Trackpoint>
            <Time>2021-08-11T12:22:43.000Z</Time>
            <Position>
              <LatitudeDegrees>43.31693136133253574371337890625</LatitudeDegrees>
              <LongitudeDegrees>-1.801683045923709869384765625</LongitudeDegrees>
            </Position>
            <AltitudeMeters>91</AltitudeMeters>
            <DistanceMeters>NAN</DistanceMeters>
          </Trackpoint>
          <Trackpoint>
            <Time>2021-08-11T12:22:44.000Z</Time>
            <Position>
              <LatitudeDegrees>43.31691158004105091094970703125</LatitudeDegrees>
              <LongitudeDegrees>-1.801697127521038055419921875</LongitudeDegrees>
            </Position>
            <AltitudeMeters>91.1999969482421875</AltitudeMeters>
            <DistanceMeters>NAN</DistanceMeters>
          </Trackpoint>
          <Trackpoint>
            <Time>2021-08-11T12:22:45.000Z</Time>
            <Position>
              <LatitudeDegrees>43.31689037382602691650390625</LatitudeDegrees>
              <LongitudeDegrees>-1.80171179585158824920654296875</LongitudeDegrees>
            </Position>
            <AltitudeMeters>91.40000152587890625</AltitudeMeters>
            <DistanceMeters>NAN</DistanceMeters>
          </Trackpoint>
          <Trackpoint>
            <Time>2021-08-11T12:22:46.000Z</Time>
            <Position>
              <LatitudeDegrees>43.316872604191303253173828125</LatitudeDegrees>
              <LongitudeDegrees>-1.80172135122120380401611328125</LongitudeDegrees>
            </Position>
            <AltitudeMeters>91.8000030517578125</AltitudeMeters>
            <DistanceMeters>NAN</DistanceMeters>
          </Trackpoint>
          <Trackpoint>
            <Time>2021-08-11T12:22:47.000Z</Time>
            <Position>
              <LatitudeDegrees>43.3168509788811206817626953125</LatitudeDegrees>
              <LongitudeDegrees>-1.80172839201986789703369140625</LongitudeDegrees>
            </Position>
            <AltitudeMeters>92</AltitudeMeters>
            <DistanceMeters>NAN</DistanceMeters>
          </Trackpoint>
          <Trackpoint>
            <Time>2021-08-11T12:22:48.000Z</Time>
            <Position>
              <LatitudeDegrees>43.31683379597961902618408203125</LatitudeDegrees>
              <LongitudeDegrees>-1.80173409171402454376220703125</LongitudeDegrees>
            </Position>
            <AltitudeMeters>92.40000152587890625</AltitudeMeters>
            <DistanceMeters>NAN</DistanceMeters>
          </Trackpoint>
          <Trackpoint>
            <Time>2021-08-11T12:22:49.000Z</Time>
            <Position>
              <LatitudeDegrees>43.31681258976459503173828125</LatitudeDegrees>
              <LongitudeDegrees>-1.80173794738948345184326171875</LongitudeDegrees>
            </Position>
            <AltitudeMeters>92.59999847412109375</AltitudeMeters>
            <DistanceMeters>NAN</DistanceMeters>
          </Trackpoint>
          <Trackpoint>
            <Time>2021-08-11T12:22:50.000Z</Time>
            <Position>
              <LatitudeDegrees>43.31679004244506359100341796875</LatitudeDegrees>
              <LongitudeDegrees>-1.80175135843455791473388671875</LongitudeDegrees>
            </Position>
            <AltitudeMeters>92.8000030517578125</AltitudeMeters>
            <DistanceMeters>NAN</DistanceMeters>
          </Trackpoint>
          <Trackpoint>
            <Time>2021-08-11T12:22:51.000Z</Time>
            <Position>
              <LatitudeDegrees>43.31677294336259365081787109375</LatitudeDegrees>
              <LongitudeDegrees>-1.8017660267651081085205078125</LongitudeDegrees>
            </Position>
            <AltitudeMeters>93</AltitudeMeters>
            <DistanceMeters>NAN</DistanceMeters>
          </Trackpoint>
          <Trackpoint>
            <Time>2021-08-11T12:22:52.000Z</Time>
            <Position>
              <LatitudeDegrees>43.31675182096660137176513671875</LatitudeDegrees>
              <LongitudeDegrees>-1.80177717469632625579833984375</LongitudeDegrees>
            </Position>
            <AltitudeMeters>93.1999969482421875</AltitudeMeters>
            <DistanceMeters>NAN</DistanceMeters>
          </Trackpoint>
          <Trackpoint>
            <Time>2021-08-11T12:22:53.000Z</Time>
            <Position>
              <LatitudeDegrees>43.3167354762554168701171875</LatitudeDegrees>
              <LongitudeDegrees>-1.801789663732051849365234375</LongitudeDegrees>
            </Position>
            <AltitudeMeters>93.59999847412109375</AltitudeMeters>
            <DistanceMeters>NAN</DistanceMeters>
          </Trackpoint>
          <Trackpoint>
            <Time>2021-08-11T12:22:54.000Z</Time>
            <Position>
              <LatitudeDegrees>43.31671561114490032196044921875</LatitudeDegrees>
              <LongitudeDegrees>-1.801797710359096527099609375</LongitudeDegrees>
            </Position>
            <AltitudeMeters>93.8000030517578125</AltitudeMeters>
            <DistanceMeters>NAN</DistanceMeters>
          </Trackpoint>
          <Trackpoint>
            <Time>2021-08-11T12:22:55.000Z</Time>
            <Position>
              <LatitudeDegrees>43.31669616512954235076904296875</LatitudeDegrees>
              <LongitudeDegrees>-1.8018122948706150054931640625</LongitudeDegrees>
            </Position>
            <AltitudeMeters>94</AltitudeMeters>
            <DistanceMeters>NAN</DistanceMeters>
          </Trackpoint>
          <Trackpoint>
            <Time>2021-08-11T12:22:56.000Z</Time>
            <Position>
              <LatitudeDegrees>43.316667079925537109375</LatitudeDegrees>
              <LongitudeDegrees>-1.80182662792503833770751953125</LongitudeDegrees>
            </Position>
            <AltitudeMeters>94.1999969482421875</AltitudeMeters>
            <DistanceMeters>NAN</DistanceMeters>
          </Trackpoint>
          <Trackpoint>
            <Time>2021-08-11T12:22:57.000Z</Time>
            <Position>
              <LatitudeDegrees>43.31664537079632282257080078125</LatitudeDegrees>
              <LongitudeDegrees>-1.801840625703334808349609375</LongitudeDegrees>
            </Position>
            <AltitudeMeters>94.59999847412109375</AltitudeMeters>
            <DistanceMeters>NAN</DistanceMeters>
          </Trackpoint>
          <Trackpoint>
            <Time>2021-08-11T12:22:58.000Z</Time>
            <Position>
              <LatitudeDegrees>43.31663028337061405181884765625</LatitudeDegrees>
              <LongitudeDegrees>-1.80186518467962741851806640625</LongitudeDegrees>
            </Position>
            <AltitudeMeters>94.8000030517578125</AltitudeMeters>
            <DistanceMeters>NAN</DistanceMeters>
          </Trackpoint>
          <Trackpoint>
            <Time>2021-08-11T12:22:59.000Z</Time>
            <Position>
              <LatitudeDegrees>43.3166156150400638580322265625</LatitudeDegrees>
              <LongitudeDegrees>-1.80188563652336597442626953125</LongitudeDegrees>
            </Position>
            <AltitudeMeters>95</AltitudeMeters>
            <DistanceMeters>NAN</DistanceMeters>
          </Trackpoint>
          <Trackpoint>
            <Time>2021-08-11T12:23:00.000Z</Time>
            <Position>
              <LatitudeDegrees>43.31659533083438873291015625</LatitudeDegrees>
              <LongitudeDegrees>-1.8019101954996585845947265625</LongitudeDegrees>
            </Position>
            <AltitudeMeters>95.1999969482421875</AltitudeMeters>
            <DistanceMeters>NAN</DistanceMeters>
          </Trackpoint>
          <Trackpoint>
            <Time>2021-08-11T12:23:01.000Z</Time>
            <Position>
              <LatitudeDegrees>43.31657747738063335418701171875</LatitudeDegrees>
              <LongitudeDegrees>-1.80192410945892333984375</LongitudeDegrees>
            </Position>
            <AltitudeMeters>95.40000152587890625</AltitudeMeters>
            <DistanceMeters>NAN</DistanceMeters>
          </Trackpoint>
          <Trackpoint>
            <Time>2021-08-11T12:23:02.000Z</Time>
            <Position>
              <LatitudeDegrees>43.3165512420237064361572265625</LatitudeDegrees>
              <LongitudeDegrees>-1.8019517697393894195556640625</LongitudeDegrees>
            </Position>
            <AltitudeMeters>95.59999847412109375</AltitudeMeters>
            <DistanceMeters>NAN</DistanceMeters>
          </Trackpoint>
          <Trackpoint>
            <Time>2021-08-11T12:23:03.000Z</Time>
            <Position>
              <LatitudeDegrees>43.3165378309786319732666015625</LatitudeDegrees>
              <LongitudeDegrees>-1.80197230540215969085693359375</LongitudeDegrees>
            </Position>
            <AltitudeMeters>95.8000030517578125</AltitudeMeters>
            <DistanceMeters>NAN</DistanceMeters>
          </Trackpoint>
          <Trackpoint>
            <Time>2021-08-11T12:23:04.000Z</Time>
            <Position>
              <LatitudeDegrees>43.316524587571620941162109375</LatitudeDegrees>
              <LongitudeDegrees>-1.80198135785758495330810546875</LongitudeDegrees>
            </Position>
            <AltitudeMeters>96</AltitudeMeters>
            <DistanceMeters>NAN</DistanceMeters>
          </Trackpoint>
          <Trackpoint>
            <Time>2021-08-11T12:23:05.000Z</Time>
            <Position>
              <LatitudeDegrees>43.31650681793689727783203125</LatitudeDegrees>
              <LongitudeDegrees>-1.8020184896886348724365234375</LongitudeDegrees>
            </Position>
            <AltitudeMeters>96.40000152587890625</AltitudeMeters>
            <DistanceMeters>NAN</DistanceMeters>
          </Trackpoint>
          <Trackpoint>
            <Time>2021-08-11T12:23:06.000Z</Time>
            <Position>
              <LatitudeDegrees>43.31648862920701503753662109375</LatitudeDegrees>
              <LongitudeDegrees>-1.80204371921718120574951171875</LongitudeDegrees>
            </Position>
            <AltitudeMeters>96.40000152587890625</AltitudeMeters>
            <DistanceMeters>NAN</DistanceMeters>
          </Trackpoint>
          <Trackpoint>
            <Time>2021-08-11T12:23:07.000Z</Time>
            <Position>
              <LatitudeDegrees>43.31646800972521305084228515625</LatitudeDegrees>
              <LongitudeDegrees>-1.8020649254322052001953125</LongitudeDegrees>
            </Position>
            <AltitudeMeters>96.8000030517578125</AltitudeMeters>
            <DistanceMeters>NAN</DistanceMeters>
          </Trackpoint>
          <Trackpoint>
            <Time>2021-08-11T12:23:08.000Z</Time>
            <Position>
              <LatitudeDegrees>43.31645459868013858795166015625</LatitudeDegrees>
              <LongitudeDegrees>-1.802082359790802001953125</LongitudeDegrees>
            </Position>
            <AltitudeMeters>96.8000030517578125</AltitudeMeters>
            <DistanceMeters>NAN</DistanceMeters>
          </Trackpoint>
          <Trackpoint>
            <Time>2021-08-11T12:23:09.000Z</Time>
            <Position>
              <LatitudeDegrees>43.31645208410918712615966796875</LatitudeDegrees>
              <LongitudeDegrees>-1.80208504199981689453125</LongitudeDegrees>
            </Position>
            <AltitudeMeters>97</AltitudeMeters>
            <DistanceMeters>NAN</DistanceMeters>
          </Trackpoint>
          <Trackpoint>
            <Time>2021-08-11T12:23:10.000Z</Time>
            <Position>
              <LatitudeDegrees>43.3164439536631107330322265625</LatitudeDegrees>
              <LongitudeDegrees>-1.80210121907293796539306640625</LongitudeDegrees>
            </Position>
            <AltitudeMeters>97.40000152587890625</AltitudeMeters>
            <DistanceMeters>NAN</DistanceMeters>
          </Trackpoint>
          <Trackpoint>
            <Time>2021-08-11T12:23:11.000Z</Time>
            <Position>
              <LatitudeDegrees>43.31644051708281040191650390625</LatitudeDegrees>
              <LongitudeDegrees>-1.8021132051944732666015625</LongitudeDegrees>
            </Position>
            <AltitudeMeters>97.40000152587890625</AltitudeMeters>
            <DistanceMeters>NAN</DistanceMeters>
          </Trackpoint>
          <Trackpoint>
            <Time>2021-08-11T12:23:12.000Z</Time>
            <Position>
              <LatitudeDegrees>43.3164298720657825469970703125</LatitudeDegrees>
              <LongitudeDegrees>-1.80212552659213542938232421875</LongitudeDegrees>
            </Position>
            <AltitudeMeters>97.8000030517578125</AltitudeMeters>
            <DistanceMeters>NAN</DistanceMeters>
          </Trackpoint>
          <Trackpoint>
            <Time>2021-08-11T12:23:13.000Z</Time>
            <Position>
              <LatitudeDegrees>43.3164167962968349456787109375</LatitudeDegrees>
              <LongitudeDegrees>-1.80214497260749340057373046875</LongitudeDegrees>
            </Position>
            <AltitudeMeters>98</AltitudeMeters>
            <DistanceMeters>NAN</DistanceMeters>
          </Trackpoint>
          <Trackpoint>
            <Time>2021-08-11T12:23:14.000Z</Time>
            <Position>
              <LatitudeDegrees>43.3164023794233798980712890625</LatitudeDegrees>
              <LongitudeDegrees>-1.80216609500348567962646484375</LongitudeDegrees>
            </Position>
            <AltitudeMeters>98.1999969482421875</AltitudeMeters>
            <DistanceMeters>NAN</DistanceMeters>
          </Trackpoint>
          <Trackpoint>
            <Time>2021-08-11T12:23:15.000Z</Time>
            <Position>
              <LatitudeDegrees>43.31638972274959087371826171875</LatitudeDegrees>
              <LongitudeDegrees>-1.8021898157894611358642578125</LongitudeDegrees>
            </Position>
            <AltitudeMeters>98.40000152587890625</AltitudeMeters>
            <DistanceMeters>NAN</DistanceMeters>
          </Trackpoint>
          <Trackpoint>
            <Time>2021-08-11T12:23:16.000Z</Time>
            <Position>
              <LatitudeDegrees>43.31637798808515071868896484375</LatitudeDegrees>
              <LongitudeDegrees>-1.80221579968929290771484375</LongitudeDegrees>
            </Position>
            <AltitudeMeters>98.59999847412109375</AltitudeMeters>
            <DistanceMeters>NAN</DistanceMeters>
          </Trackpoint>
          <Trackpoint>
            <Time>2021-08-11T12:23:17.000Z</Time>
            <Position>
              <LatitudeDegrees>43.316363655030727386474609375</LatitudeDegrees>
              <LongitudeDegrees>-1.80223918519914150238037109375</LongitudeDegrees>
            </Position>
            <AltitudeMeters>98.8000030517578125</AltitudeMeters>
            <DistanceMeters>NAN</DistanceMeters>
          </Trackpoint>
          <Trackpoint>
            <Time>2021-08-11T12:23:18.000Z</Time>
            <Position>
              <LatitudeDegrees>43.316350914537906646728515625</LatitudeDegrees>
              <LongitudeDegrees>-1.80226282216608524322509765625</LongitudeDegrees>
            </Position>
            <AltitudeMeters>98.8000030517578125</AltitudeMeters>
            <DistanceMeters>NAN</DistanceMeters>
          </Trackpoint>
          <Trackpoint>
            <Time>2021-08-11T12:23:19.000Z</Time>
            <Position>
              <LatitudeDegrees>43.31633859314024448394775390625</LatitudeDegrees>
              <LongitudeDegrees>-1.80228562094271183013916015625</LongitudeDegrees>
            </Position>
            <AltitudeMeters>99</AltitudeMeters>
            <DistanceMeters>NAN</DistanceMeters>
          </Trackpoint>
          <Trackpoint>
            <Time>2021-08-11T12:23:20.000Z</Time>
            <Position>
              <LatitudeDegrees>43.3163256011903285980224609375</LatitudeDegrees>
              <LongitudeDegrees>-1.8023038096725940704345703125</LongitudeDegrees>
            </Position>
            <AltitudeMeters>99.1999969482421875</AltitudeMeters>
            <DistanceMeters>NAN</DistanceMeters>
          </Trackpoint>
          <Trackpoint>
            <Time>2021-08-11T12:23:21.000Z</Time>
            <Position>
              <LatitudeDegrees>43.3163135312497615814208984375</LatitudeDegrees>
              <LongitudeDegrees>-1.8023212440311908721923828125</LongitudeDegrees>
            </Position>
            <AltitudeMeters>99.40000152587890625</AltitudeMeters>
            <DistanceMeters>NAN</DistanceMeters>
          </Trackpoint>
          <Trackpoint>
            <Time>2021-08-11T12:23:22.000Z</Time>
            <Position>
              <LatitudeDegrees>43.31630229949951171875</LatitudeDegrees>
              <LongitudeDegrees>-1.80233892984688282012939453125</LongitudeDegrees>
            </Position>
            <AltitudeMeters>99.59999847412109375</AltitudeMeters>
            <DistanceMeters>NAN</DistanceMeters>
          </Trackpoint>
          <Trackpoint>
            <Time>2021-08-11T12:23:23.000Z</Time>
            <Position>
              <LatitudeDegrees>43.31628629006445407867431640625</LatitudeDegrees>
              <LongitudeDegrees>-1.80236860178411006927490234375</LongitudeDegrees>
            </Position>
            <AltitudeMeters>99.8000030517578125</AltitudeMeters>
            <DistanceMeters>NAN</DistanceMeters>
          </Trackpoint>
          <Trackpoint>
            <Time>2021-08-11T12:23:24.000Z</Time>
            <Position>
              <LatitudeDegrees>43.316275142133235931396484375</LatitudeDegrees>
              <LongitudeDegrees>-1.8023963458836078643798828125</LongitudeDegrees>
            </Position>
            <AltitudeMeters>100</AltitudeMeters>
            <DistanceMeters>NAN</DistanceMeters>
          </Trackpoint>
          <Trackpoint>
            <Time>2021-08-11T12:23:25.000Z</Time>
            <Position>
              <LatitudeDegrees>43.3162665925920009613037109375</LatitudeDegrees>
              <LongitudeDegrees>-1.80242476053535938262939453125</LongitudeDegrees>
            </Position>
            <AltitudeMeters>100.1999969482421875</AltitudeMeters>
            <DistanceMeters>NAN</DistanceMeters>
          </Trackpoint>
          <Trackpoint>
            <Time>2021-08-11T12:23:26.000Z</Time>
            <Position>
              <LatitudeDegrees>43.31625712104141712188720703125</LatitudeDegrees>
              <LongitudeDegrees>-1.80245342664420604705810546875</LongitudeDegrees>
            </Position>
            <AltitudeMeters>100.40000152587890625</AltitudeMeters>
            <DistanceMeters>NAN</DistanceMeters>
          </Trackpoint>
          <Trackpoint>
            <Time>2021-08-11T12:23:27.000Z</Time>
            <Position>
              <LatitudeDegrees>43.3162484876811504364013671875</LatitudeDegrees>
              <LongitudeDegrees>-1.80247706361114978790283203125</LongitudeDegrees>
            </Position>
            <AltitudeMeters>100.8000030517578125</AltitudeMeters>
            <DistanceMeters>NAN</DistanceMeters>
          </Trackpoint>
          <Trackpoint>
            <Time>2021-08-11T12:23:28.000Z</Time>
            <Position>
              <LatitudeDegrees>43.3162370882928371429443359375</LatitudeDegrees>
              <LongitudeDegrees>-1.802499108016490936279296875</LongitudeDegrees>
            </Position>
            <AltitudeMeters>101.1999969482421875</AltitudeMeters>
            <DistanceMeters>NAN</DistanceMeters>
          </Trackpoint>
          <Trackpoint>
            <Time>2021-08-11T12:23:29.000Z</Time>
            <Position>
              <LatitudeDegrees>43.3162285387516021728515625</LatitudeDegrees>
              <LongitudeDegrees>-1.80252559483051300048828125</LongitudeDegrees>
            </Position>
            <AltitudeMeters>101.1999969482421875</AltitudeMeters>
            <DistanceMeters>NAN</DistanceMeters>
          </Trackpoint>
          <Trackpoint>
            <Time>2021-08-11T12:23:30.000Z</Time>
            <Position>
              <LatitudeDegrees>43.31622225232422351837158203125</LatitudeDegrees>
              <LongitudeDegrees>-1.80255241692066192626953125</LongitudeDegrees>
            </Position>
            <AltitudeMeters>101.40000152587890625</AltitudeMeters>
            <DistanceMeters>NAN</DistanceMeters>
          </Trackpoint>
          <Trackpoint>
            <Time>2021-08-11T12:23:31.000Z</Time>
            <Position>
              <LatitudeDegrees>43.31621370278298854827880859375</LatitudeDegrees>
              <LongitudeDegrees>-1.8025814183056354522705078125</LongitudeDegrees>
            </Position>
            <AltitudeMeters>101.59999847412109375</AltitudeMeters>
            <DistanceMeters>NAN</DistanceMeters>
          </Trackpoint>
          <Trackpoint>
            <Time>2021-08-11T12:23:32.000Z</Time>
            <Position>
              <LatitudeDegrees>43.31620314158499240875244140625</LatitudeDegrees>
              <LongitudeDegrees>-1.802608072757720947265625</LongitudeDegrees>
            </Position>
            <AltitudeMeters>101.8000030517578125</AltitudeMeters>
            <DistanceMeters>NAN</DistanceMeters>
          </Trackpoint>
          <Trackpoint>
            <Time>2021-08-11T12:23:33.000Z</Time>
            <Position>
              <LatitudeDegrees>43.31619442440569400787353515625</LatitudeDegrees>
              <LongitudeDegrees>-1.802631206810474395751953125</LongitudeDegrees>
            </Position>
            <AltitudeMeters>102</AltitudeMeters>
            <DistanceMeters>NAN</DistanceMeters>
          </Trackpoint>
          <Trackpoint>
            <Time>2021-08-11T12:23:34.000Z</Time>
            <Position>
              <LatitudeDegrees>43.31618352793157100677490234375</LatitudeDegrees>
              <LongitudeDegrees>-1.80265626870095729827880859375</LongitudeDegrees>
            </Position>
            <AltitudeMeters>102.40000152587890625</AltitudeMeters>
            <DistanceMeters>NAN</DistanceMeters>
          </Trackpoint>
          <Trackpoint>
            <Time>2021-08-11T12:23:35.000Z</Time>
            <Position>
              <LatitudeDegrees>43.31617288291454315185546875</LatitudeDegrees>
              <LongitudeDegrees>-1.802678816020488739013671875</LongitudeDegrees>
            </Position>
            <AltitudeMeters>102.59999847412109375</AltitudeMeters>
            <DistanceMeters>NAN</DistanceMeters>
          </Trackpoint>
          <Trackpoint>
            <Time>2021-08-11T12:23:36.000Z</Time>
            <Position>
              <LatitudeDegrees>43.3161614835262298583984375</LatitudeDegrees>
              <LongitudeDegrees>-1.8027031235396862030029296875</LongitudeDegrees>
            </Position>
            <AltitudeMeters>102.8000030517578125</AltitudeMeters>
            <DistanceMeters>NAN</DistanceMeters>
          </Trackpoint>
          <Trackpoint>
            <Time>2021-08-11T12:23:37.000Z</Time>
            <Position>
              <LatitudeDegrees>43.31615318544209003448486328125</LatitudeDegrees>
              <LongitudeDegrees>-1.80272785015404224395751953125</LongitudeDegrees>
            </Position>
            <AltitudeMeters>103</AltitudeMeters>
            <DistanceMeters>NAN</DistanceMeters>
          </Trackpoint>
          <Trackpoint>
            <Time>2021-08-11T12:23:38.000Z</Time>
            <Position>
              <LatitudeDegrees>43.3161435462534427642822265625</LatitudeDegrees>
              <LongitudeDegrees>-1.80275064893066883087158203125</LongitudeDegrees>
            </Position>
            <AltitudeMeters>103</AltitudeMeters>
            <DistanceMeters>NAN</DistanceMeters>
          </Trackpoint>
          <Trackpoint>
            <Time>2021-08-11T12:23:39.000Z</Time>
            <Position>
              <LatitudeDegrees>43.316134326159954071044921875</LatitudeDegrees>
              <LongitudeDegrees>-1.80277478881180286407470703125</LongitudeDegrees>
            </Position>
            <AltitudeMeters>103.1999969482421875</AltitudeMeters>
            <DistanceMeters>NAN</DistanceMeters>
          </Trackpoint>
          <Trackpoint>
            <Time>2021-08-11T12:23:40.000Z</Time>
            <Position>
              <LatitudeDegrees>43.3161266148090362548828125</LatitudeDegrees>
              <LongitudeDegrees>-1.80279926396906375885009765625</LongitudeDegrees>
            </Position>
            <AltitudeMeters>103.40000152587890625</AltitudeMeters>
            <DistanceMeters>NAN</DistanceMeters>
          </Trackpoint>
          <Trackpoint>
            <Time>2021-08-11T12:23:41.000Z</Time>
            <Position>
              <LatitudeDegrees>43.31611848436295986175537109375</LatitudeDegrees>
              <LongitudeDegrees>-1.80282021872699260711669921875</LongitudeDegrees>
            </Position>
            <AltitudeMeters>103.40000152587890625</AltitudeMeters>
            <DistanceMeters>NAN</DistanceMeters>
          </Trackpoint>
          <Trackpoint>
            <Time>2021-08-11T12:23:42.000Z</Time>
            <Position>
              <LatitudeDegrees>43.31611144356429576873779296875</LatitudeDegrees>
              <LongitudeDegrees>-1.80284000001847743988037109375</LongitudeDegrees>
            </Position>
            <AltitudeMeters>103.59999847412109375</AltitudeMeters>
            <DistanceMeters>NAN</DistanceMeters>
          </Trackpoint>
          <Trackpoint>
            <Time>2021-08-11T12:23:43.000Z</Time>
            <Position>
              <LatitudeDegrees>43.31610448658466339111328125</LatitudeDegrees>
              <LongitudeDegrees>-1.80286011658608913421630859375</LongitudeDegrees>
            </Position>
            <AltitudeMeters>103.8000030517578125</AltitudeMeters>
            <DistanceMeters>NAN</DistanceMeters>
          </Trackpoint>
          <Trackpoint>
            <Time>2021-08-11T12:23:44.000Z</Time>
            <Position>
              <LatitudeDegrees>43.3160966075956821441650390625</LatitudeDegrees>
              <LongitudeDegrees>-1.80288207717239856719970703125</LongitudeDegrees>
            </Position>
            <AltitudeMeters>104</AltitudeMeters>
            <DistanceMeters>NAN</DistanceMeters>
          </Trackpoint>
          <Trackpoint>
            <Time>2021-08-11T12:23:45.000Z</Time>
            <Position>
              <LatitudeDegrees>43.31608839333057403564453125</LatitudeDegrees>
              <LongitudeDegrees>-1.8029029481112957000732421875</LongitudeDegrees>
            </Position>
            <AltitudeMeters>104</AltitudeMeters>
            <DistanceMeters>NAN</DistanceMeters>
          </Trackpoint>
          <Trackpoint>
            <Time>2021-08-11T12:23:46.000Z</Time>
            <Position>
              <LatitudeDegrees>43.31607959233224391937255859375</LatitudeDegrees>
              <LongitudeDegrees>-1.80292298085987567901611328125</LongitudeDegrees>
            </Position>
            <AltitudeMeters>104.1999969482421875</AltitudeMeters>
            <DistanceMeters>NAN</DistanceMeters>
          </Trackpoint>
          <Trackpoint>
            <Time>2021-08-11T12:23:47.000Z</Time>
            <Position>
              <LatitudeDegrees>43.31607221625745296478271484375</LatitudeDegrees>
              <LongitudeDegrees>-1.80294334888458251953125</LongitudeDegrees>
            </Position>
            <AltitudeMeters>104.1999969482421875</AltitudeMeters>
            <DistanceMeters>NAN</DistanceMeters>
          </Trackpoint>
          <Trackpoint>
            <Time>2021-08-11T12:23:48.000Z</Time>
            <Position>
              <LatitudeDegrees>43.3160624094307422637939453125</LatitudeDegrees>
              <LongitudeDegrees>-1.80296187289059162139892578125</LongitudeDegrees>
            </Position>
            <AltitudeMeters>104.1999969482421875</AltitudeMeters>
            <DistanceMeters>NAN</DistanceMeters>
          </Trackpoint>
          <Trackpoint>
            <Time>2021-08-11T12:23:49.000Z</Time>
            <Position>
              <LatitudeDegrees>43.31605486571788787841796875</LatitudeDegrees>
              <LongitudeDegrees>-1.80297830142080783843994140625</LongitudeDegrees>
            </Position>
            <AltitudeMeters>104.1999969482421875</AltitudeMeters>
            <DistanceMeters>NAN</DistanceMeters>
          </Trackpoint>
          <Trackpoint>
            <Time>2021-08-11T12:23:50.000Z</Time>
            <Position>
              <LatitudeDegrees>43.3160488307476043701171875</LatitudeDegrees>
              <LongitudeDegrees>-1.80299741216003894805908203125</LongitudeDegrees>
            </Position>
            <AltitudeMeters>104.1999969482421875</AltitudeMeters>
            <DistanceMeters>NAN</DistanceMeters>
          </Trackpoint>
          <Trackpoint>
            <Time>2021-08-11T12:23:51.000Z</Time>
            <Position>
              <LatitudeDegrees>43.31604489125311374664306640625</LatitudeDegrees>
              <LongitudeDegrees>-1.80301375687122344970703125</LongitudeDegrees>
            </Position>
            <AltitudeMeters>104.1999969482421875</AltitudeMeters>
            <DistanceMeters>NAN</DistanceMeters>
          </Trackpoint>
          <Trackpoint>
            <Time>2021-08-11T12:23:52.000Z</Time>
            <Position>
              <LatitudeDegrees>43.3160434663295745849609375</LatitudeDegrees>
              <LongitudeDegrees>-1.803028844296932220458984375</LongitudeDegrees>
            </Position>
            <AltitudeMeters>104.1999969482421875</AltitudeMeters>
            <DistanceMeters>NAN</DistanceMeters>
          </Trackpoint>
          <Trackpoint>
            <Time>2021-08-11T12:23:53.000Z</Time>
            <Position>
              <LatitudeDegrees>43.31604070030152797698974609375</LatitudeDegrees>
              <LongitudeDegrees>-1.80304602719843387603759765625</LongitudeDegrees>
            </Position>
            <AltitudeMeters>104.1999969482421875</AltitudeMeters>
            <DistanceMeters>NAN</DistanceMeters>
          </Trackpoint>
          <Trackpoint>
            <Time>2021-08-11T12:23:54.000Z</Time>
            <Position>
              <LatitudeDegrees>43.31603516824543476104736328125</LatitudeDegrees>
              <LongitudeDegrees>-1.80306245572865009307861328125</LongitudeDegrees>
            </Position>
            <AltitudeMeters>104.1999969482421875</AltitudeMeters>
            <DistanceMeters>NAN</DistanceMeters>
          </Trackpoint>
          <Trackpoint>
            <Time>2021-08-11T12:23:55.000Z</Time>
            <Position>
              <LatitudeDegrees>43.316029720008373260498046875</LatitudeDegrees>
              <LongitudeDegrees>-1.80308089591562747955322265625</LongitudeDegrees>
            </Position>
            <AltitudeMeters>104</AltitudeMeters>
            <DistanceMeters>NAN</DistanceMeters>
          </Trackpoint>
          <Trackpoint>
            <Time>2021-08-11T12:23:56.000Z</Time>
            <Position>
              <LatitudeDegrees>43.31602402031421661376953125</LatitudeDegrees>
              <LongitudeDegrees>-1.80309950374066829681396484375</LongitudeDegrees>
            </Position>
            <AltitudeMeters>104</AltitudeMeters>
            <DistanceMeters>NAN</DistanceMeters>
          </Trackpoint>
          <Trackpoint>
            <Time>2021-08-11T12:23:57.000Z</Time>
            <Position>
              <LatitudeDegrees>43.31602075137197971343994140625</LatitudeDegrees>
              <LongitudeDegrees>-1.80310855619609355926513671875</LongitudeDegrees>
            </Position>
            <AltitudeMeters>103.8000030517578125</AltitudeMeters>
            <DistanceMeters>NAN</DistanceMeters>
          </Trackpoint>
          <Trackpoint>
            <Time>2021-08-11T12:24:01.000Z</Time>
            <Position>
              <LatitudeDegrees>43.31602075137197971343994140625</LatitudeDegrees>
              <LongitudeDegrees>-1.80310855619609355926513671875</LongitudeDegrees>
            </Position>
            <AltitudeMeters>103.59999847412109375</AltitudeMeters>
            <DistanceMeters>NAN</DistanceMeters>
          </Trackpoint>
          <Trackpoint>
            <Time>2021-08-11T12:24:21.000Z</Time>
            <Position>
              <LatitudeDegrees>43.31602075137197971343994140625</LatitudeDegrees>
              <LongitudeDegrees>-1.80310855619609355926513671875</LongitudeDegrees>
            </Position>
            <AltitudeMeters>103.59999847412109375</AltitudeMeters>
            <DistanceMeters>NAN</DistanceMeters>
          </Trackpoint>
          <Trackpoint>
            <Time>2021-08-11T12:25:33.000Z</Time>
            <Position>
              <LatitudeDegrees>43.3160208351910114288330078125</LatitudeDegrees>
              <LongitudeDegrees>-1.80310855619609355926513671875</LongitudeDegrees>
            </Position>
            <AltitudeMeters>103.59999847412109375</AltitudeMeters>
            <DistanceMeters>NAN</DistanceMeters>
          </Trackpoint>
          <Trackpoint>
            <Time>2021-08-11T12:26:11.000Z</Time>
            <Position>
              <LatitudeDegrees>43.3160208351910114288330078125</LatitudeDegrees>
              <LongitudeDegrees>-1.80310855619609355926513671875</LongitudeDegrees>
            </Position>
            <AltitudeMeters>103.59999847412109375</AltitudeMeters>
            <DistanceMeters>NAN</DistanceMeters>
          </Trackpoint>
          <Trackpoint>
            <Time>2021-08-11T12:26:47.000Z</Time>
            <Position>
              <LatitudeDegrees>43.31602058373391628265380859375</LatitudeDegrees>
              <LongitudeDegrees>-1.8031148426234722137451171875</LongitudeDegrees>
            </Position>
            <AltitudeMeters>104</AltitudeMeters>
            <DistanceMeters>NAN</DistanceMeters>
          </Trackpoint>
          <Trackpoint>
            <Time>2021-08-11T12:27:23.000Z</Time>
            <Position>
              <LatitudeDegrees>43.31602158956229686737060546875</LatitudeDegrees>
              <LongitudeDegrees>-1.803113333880901336669921875</LongitudeDegrees>
            </Position>
            <AltitudeMeters>103.8000030517578125</AltitudeMeters>
            <DistanceMeters>NAN</DistanceMeters>
          </Trackpoint>
          <Trackpoint>
            <Time>2021-08-11T12:28:14.000Z</Time>
            <Position>
              <LatitudeDegrees>43.3160218410193920135498046875</LatitudeDegrees>
              <LongitudeDegrees>-1.80311274714767932891845703125</LongitudeDegrees>
            </Position>
            <AltitudeMeters>104</AltitudeMeters>
            <DistanceMeters>NAN</DistanceMeters>
          </Trackpoint>
          <Trackpoint>
            <Time>2021-08-11T12:28:20.000Z</Time>
            <Position>
              <LatitudeDegrees>43.3160218410193920135498046875</LatitudeDegrees>
              <LongitudeDegrees>-1.803112663328647613525390625</LongitudeDegrees>
            </Position>
            <AltitudeMeters>104</AltitudeMeters>
            <DistanceMeters>NAN</DistanceMeters>
          </Trackpoint>
          <Trackpoint>
            <Time>2021-08-11T12:29:09.000Z</Time>
            <Position>
              <LatitudeDegrees>43.3160198293626308441162109375</LatitudeDegrees>
              <LongitudeDegrees>-1.8031145073473453521728515625</LongitudeDegrees>
            </Position>
            <AltitudeMeters>104.40000152587890625</AltitudeMeters>
            <DistanceMeters>NAN</DistanceMeters>
          </Trackpoint>
          <Trackpoint>
            <Time>2021-08-11T12:29:12.000Z</Time>
            <Position>
              <LatitudeDegrees>43.31599007360637187957763671875</LatitudeDegrees>
              <LongitudeDegrees>-1.80321031250059604644775390625</LongitudeDegrees>
            </Position>
            <AltitudeMeters>104.40000152587890625</AltitudeMeters>
            <DistanceMeters>NAN</DistanceMeters>
          </Trackpoint>
          <Trackpoint>
            <Time>2021-08-11T12:29:17.000Z</Time>
            <Position>
              <LatitudeDegrees>43.315910361707210540771484375</LatitudeDegrees>
              <LongitudeDegrees>-1.8035208620131015777587890625</LongitudeDegrees>
            </Position>
            <AltitudeMeters>104.1999969482421875</AltitudeMeters>
            <DistanceMeters>NAN</DistanceMeters>
          </Trackpoint>
          <Trackpoint>
            <Time>2021-08-11T12:29:21.000Z</Time>
            <Position>
              <LatitudeDegrees>43.31583718769252300262451171875</LatitudeDegrees>
              <LongitudeDegrees>-1.80390064604580402374267578125</LongitudeDegrees>
            </Position>
            <AltitudeMeters>103.59999847412109375</AltitudeMeters>
            <DistanceMeters>NAN</DistanceMeters>
          </Trackpoint>
          <Trackpoint>
            <Time>2021-08-11T12:29:22.000Z</Time>
            <Position>
              <LatitudeDegrees>43.315812461078166961669921875</LatitudeDegrees>
              <LongitudeDegrees>-1.80397993884980678558349609375</LongitudeDegrees>
            </Position>
            <AltitudeMeters>103.1999969482421875</AltitudeMeters>
            <DistanceMeters>NAN</DistanceMeters>
          </Trackpoint>
          <Trackpoint>
            <Time>2021-08-11T12:29:23.000Z</Time>
            <Position>
              <LatitudeDegrees>43.31576786935329437255859375</LatitudeDegrees>
              <LongitudeDegrees>-1.80407901294529438018798828125</LongitudeDegrees>
            </Position>
            <AltitudeMeters>102.8000030517578125</AltitudeMeters>
            <DistanceMeters>NAN</DistanceMeters>
          </Trackpoint>
          <Trackpoint>
            <Time>2021-08-11T12:29:24.000Z</Time>
            <Position>
              <LatitudeDegrees>43.31570223905146121978759765625</LatitudeDegrees>
              <LongitudeDegrees>-1.80418697185814380645751953125</LongitudeDegrees>
            </Position>
            <AltitudeMeters>102.59999847412109375</AltitudeMeters>
            <DistanceMeters>NAN</DistanceMeters>
          </Trackpoint>
          <Trackpoint>
            <Time>2021-08-11T12:29:25.000Z</Time>
            <Position>
              <LatitudeDegrees>43.31563971005380153656005859375</LatitudeDegrees>
              <LongitudeDegrees>-1.80426693521440029144287109375</LongitudeDegrees>
            </Position>
            <AltitudeMeters>102</AltitudeMeters>
            <DistanceMeters>NAN</DistanceMeters>
          </Trackpoint>
          <Trackpoint>
            <Time>2021-08-11T12:29:26.000Z</Time>
            <Position>
              <LatitudeDegrees>43.31557567231357097625732421875</LatitudeDegrees>
              <LongitudeDegrees>-1.80434639565646648406982421875</LongitudeDegrees>
            </Position>
            <AltitudeMeters>101.8000030517578125</AltitudeMeters>
            <DistanceMeters>NAN</DistanceMeters>
          </Trackpoint>
          <Trackpoint>
            <Time>2021-08-11T12:29:28.000Z</Time>
            <Position>
              <LatitudeDegrees>43.31546519882977008819580078125</LatitudeDegrees>
              <LongitudeDegrees>-1.80449442006647586822509765625</LongitudeDegrees>
            </Position>
            <AltitudeMeters>100.40000152587890625</AltitudeMeters>
            <DistanceMeters>NAN</DistanceMeters>
          </Trackpoint>
          <Trackpoint>
            <Time>2021-08-11T12:29:29.000Z</Time>
            <Position>
              <LatitudeDegrees>43.3154113031923770904541015625</LatitudeDegrees>
              <LongitudeDegrees>-1.80458829738199710845947265625</LongitudeDegrees>
            </Position>
            <AltitudeMeters>100.1999969482421875</AltitudeMeters>
            <DistanceMeters>NAN</DistanceMeters>
          </Trackpoint>
          <Trackpoint>
            <Time>2021-08-11T12:29:31.000Z</Time>
            <Position>
              <LatitudeDegrees>43.31533360294997692108154296875</LatitudeDegrees>
              <LongitudeDegrees>-1.80479851551353931427001953125</LongitudeDegrees>
            </Position>
            <AltitudeMeters>99</AltitudeMeters>
            <DistanceMeters>NAN</DistanceMeters>
          </Trackpoint>
          <Trackpoint>
            <Time>2021-08-11T12:29:33.000Z</Time>
            <Position>
              <LatitudeDegrees>43.31526101566851139068603515625</LatitudeDegrees>
              <LongitudeDegrees>-1.8050182051956653594970703125</LongitudeDegrees>
            </Position>
            <AltitudeMeters>98.59999847412109375</AltitudeMeters>
            <DistanceMeters>NAN</DistanceMeters>
          </Trackpoint>
          <Trackpoint>
            <Time>2021-08-11T12:29:35.000Z</Time>
            <Position>
              <LatitudeDegrees>43.31518759019672870635986328125</LatitudeDegrees>
              <LongitudeDegrees>-1.80522414855659008026123046875</LongitudeDegrees>
            </Position>
            <AltitudeMeters>98.1999969482421875</AltitudeMeters>
            <DistanceMeters>NAN</DistanceMeters>
          </Trackpoint>
          <Trackpoint>
            <Time>2021-08-11T12:29:36.000Z</Time>
            <Position>
              <LatitudeDegrees>43.31515364348888397216796875</LatitudeDegrees>
              <LongitudeDegrees>-1.80532271973788738250732421875</LongitudeDegrees>
            </Position>
            <AltitudeMeters>98.1999969482421875</AltitudeMeters>
            <DistanceMeters>NAN</DistanceMeters>
          </Trackpoint>
          <Trackpoint>
            <Time>2021-08-11T12:29:37.000Z</Time>
            <Position>
              <LatitudeDegrees>43.31512338481843471527099609375</LatitudeDegrees>
              <LongitudeDegrees>-1.8054228834807872772216796875</LongitudeDegrees>
            </Position>
            <AltitudeMeters>98.1999969482421875</AltitudeMeters>
            <DistanceMeters>NAN</DistanceMeters>
          </Trackpoint>
          <Trackpoint>
            <Time>2021-08-11T12:29:38.000Z</Time>
            <Position>
              <LatitudeDegrees>43.315092958509922027587890625</LatitudeDegrees>
              <LongitudeDegrees>-1.80551759898662567138671875</LongitudeDegrees>
            </Position>
            <AltitudeMeters>98.1999969482421875</AltitudeMeters>
            <DistanceMeters>NAN</DistanceMeters>
          </Trackpoint>
          <Trackpoint>
            <Time>2021-08-11T12:29:39.000Z</Time>
            <Position>
              <LatitudeDegrees>43.3150599338114261627197265625</LatitudeDegrees>
              <LongitudeDegrees>-1.80560502223670482635498046875</LongitudeDegrees>
            </Position>
            <AltitudeMeters>98.40000152587890625</AltitudeMeters>
            <DistanceMeters>NAN</DistanceMeters>
          </Trackpoint>
          <Trackpoint>
            <Time>2021-08-11T12:29:40.000Z</Time>
            <Position>
              <LatitudeDegrees>43.31502263434231281280517578125</LatitudeDegrees>
              <LongitudeDegrees>-1.80569755844771862030029296875</LongitudeDegrees>
            </Position>
            <AltitudeMeters>98.59999847412109375</AltitudeMeters>
            <DistanceMeters>NAN</DistanceMeters>
          </Trackpoint>
          <Trackpoint>
            <Time>2021-08-11T12:29:43.000Z</Time>
            <Position>
              <LatitudeDegrees>43.314913921058177947998046875</LatitudeDegrees>
              <LongitudeDegrees>-1.80595907382667064666748046875</LongitudeDegrees>
            </Position>
            <AltitudeMeters>99.8000030517578125</AltitudeMeters>
            <DistanceMeters>NAN</DistanceMeters>
          </Trackpoint>
          <Trackpoint>
            <Time>2021-08-11T12:29:44.000Z</Time>
            <Position>
              <LatitudeDegrees>43.31487243063747882843017578125</LatitudeDegrees>
              <LongitudeDegrees>-1.80604222230613231658935546875</LongitudeDegrees>
            </Position>
            <AltitudeMeters>100</AltitudeMeters>
            <DistanceMeters>NAN</DistanceMeters>
          </Trackpoint>
          <Trackpoint>
            <Time>2021-08-11T12:29:45.000Z</Time>
            <Position>
              <LatitudeDegrees>43.3148306049406528472900390625</LatitudeDegrees>
              <LongitudeDegrees>-1.8061296455562114715576171875</LongitudeDegrees>
            </Position>
            <AltitudeMeters>100.1999969482421875</AltitudeMeters>
            <DistanceMeters>NAN</DistanceMeters>
          </Trackpoint>
          <Trackpoint>
            <Time>2021-08-11T12:29:46.000Z</Time>
            <Position>
              <LatitudeDegrees>43.3147907070815563201904296875</LatitudeDegrees>
              <LongitudeDegrees>-1.806217320263385772705078125</LongitudeDegrees>
            </Position>
            <AltitudeMeters>100.59999847412109375</AltitudeMeters>
            <DistanceMeters>NAN</DistanceMeters>
          </Trackpoint>
          <Trackpoint>
            <Time>2021-08-11T12:29:51.000Z</Time>
            <Position>
              <LatitudeDegrees>43.314583338797092437744140625</LatitudeDegrees>
              <LongitudeDegrees>-1.80668477900326251983642578125</LongitudeDegrees>
            </Position>
            <AltitudeMeters>100.59999847412109375</AltitudeMeters>
            <DistanceMeters>NAN</DistanceMeters>
          </Trackpoint>
          <Trackpoint>
            <Time>2021-08-11T12:29:56.000Z</Time>
            <Position>
              <LatitudeDegrees>43.31437421031296253204345703125</LatitudeDegrees>
              <LongitudeDegrees>-1.8072783015668392181396484375</LongitudeDegrees>
            </Position>
            <AltitudeMeters>99.59999847412109375</AltitudeMeters>
            <DistanceMeters>NAN</DistanceMeters>
          </Trackpoint>
          <Trackpoint>
            <Time>2021-08-11T12:29:58.000Z</Time>
            <Position>
              <LatitudeDegrees>43.314290307462215423583984375</LatitudeDegrees>
              <LongitudeDegrees>-1.80751693435013294219970703125</LongitudeDegrees>
            </Position>
            <AltitudeMeters>98.59999847412109375</AltitudeMeters>
            <DistanceMeters>NAN</DistanceMeters>
          </Trackpoint>
          <Trackpoint>
            <Time>2021-08-11T12:29:59.000Z</Time>
            <Position>
              <LatitudeDegrees>43.3142468892037868499755859375</LatitudeDegrees>
              <LongitudeDegrees>-1.8076358735561370849609375</LongitudeDegrees>
            </Position>
            <AltitudeMeters>98.1999969482421875</AltitudeMeters>
            <DistanceMeters>NAN</DistanceMeters>
          </Trackpoint>
          <Trackpoint>
            <Time>2021-08-11T12:30:00.000Z</Time>
            <Position>
              <LatitudeDegrees>43.3142012916505336761474609375</LatitudeDegrees>
              <LongitudeDegrees>-1.80774894542992115020751953125</LongitudeDegrees>
            </Position>
            <AltitudeMeters>97.40000152587890625</AltitudeMeters>
            <DistanceMeters>NAN</DistanceMeters>
          </Trackpoint>
          <Trackpoint>
            <Time>2021-08-11T12:30:01.000Z</Time>
            <Position>
              <LatitudeDegrees>43.31416122615337371826171875</LatitudeDegrees>
              <LongitudeDegrees>-1.80785539560019969940185546875</LongitudeDegrees>
            </Position>
            <AltitudeMeters>97.1999969482421875</AltitudeMeters>
            <DistanceMeters>NAN</DistanceMeters>
          </Trackpoint>
          <Trackpoint>
            <Time>2021-08-11T12:30:02.000Z</Time>
            <Position>
              <LatitudeDegrees>43.3141235075891017913818359375</LatitudeDegrees>
              <LongitudeDegrees>-1.80798212997615337371826171875</LongitudeDegrees>
            </Position>
            <AltitudeMeters>96.40000152587890625</AltitudeMeters>
            <DistanceMeters>NAN</DistanceMeters>
          </Trackpoint>
          <Trackpoint>
            <Time>2021-08-11T12:30:03.000Z</Time>
            <Position>
              <LatitudeDegrees>43.3140782453119754791259765625</LatitudeDegrees>
              <LongitudeDegrees>-1.80810182355344295501708984375</LongitudeDegrees>
            </Position>
            <AltitudeMeters>96.1999969482421875</AltitudeMeters>
            <DistanceMeters>NAN</DistanceMeters>
          </Trackpoint>
          <Trackpoint>
            <Time>2021-08-11T12:30:04.000Z</Time>
            <Position>
              <LatitudeDegrees>43.3140366710722446441650390625</LatitudeDegrees>
              <LongitudeDegrees>-1.808210201561450958251953125</LongitudeDegrees>
            </Position>
            <AltitudeMeters>96</AltitudeMeters>
            <DistanceMeters>NAN</DistanceMeters>
          </Trackpoint>
          <Trackpoint>
            <Time>2021-08-11T12:30:05.000Z</Time>
            <Position>
              <LatitudeDegrees>43.31399400718510150909423828125</LatitudeDegrees>
              <LongitudeDegrees>-1.80830365978181362152099609375</LongitudeDegrees>
            </Position>
            <AltitudeMeters>95.8000030517578125</AltitudeMeters>
            <DistanceMeters>NAN</DistanceMeters>
          </Trackpoint>
          <Trackpoint>
            <Time>2021-08-11T12:30:06.000Z</Time>
            <Position>
              <LatitudeDegrees>43.31395444460213184356689453125</LatitudeDegrees>
              <LongitudeDegrees>-1.808402650058269500732421875</LongitudeDegrees>
            </Position>
            <AltitudeMeters>95.8000030517578125</AltitudeMeters>
            <DistanceMeters>NAN</DistanceMeters>
          </Trackpoint>
          <Trackpoint>
            <Time>2021-08-11T12:30:07.000Z</Time>
            <Position>
              <LatitudeDegrees>43.31391714513301849365234375</LatitudeDegrees>
              <LongitudeDegrees>-1.80848571471869945526123046875</LongitudeDegrees>
            </Position>
            <AltitudeMeters>95.59999847412109375</AltitudeMeters>
            <DistanceMeters>NAN</DistanceMeters>
          </Trackpoint>
          <Trackpoint>
            <Time>2021-08-11T12:30:08.000Z</Time>
            <Position>
              <LatitudeDegrees>43.31388001330196857452392578125</LatitudeDegrees>
              <LongitudeDegrees>-1.80856383405625820159912109375</LongitudeDegrees>
            </Position>
            <AltitudeMeters>95.59999847412109375</AltitudeMeters>
            <DistanceMeters>NAN</DistanceMeters>
          </Trackpoint>
          <Trackpoint>
            <Time>2021-08-11T12:30:09.000Z</Time>
            <Position>
              <LatitudeDegrees>43.31384112127125263214111328125</LatitudeDegrees>
              <LongitudeDegrees>-1.80863793008029460906982421875</LongitudeDegrees>
            </Position>
            <AltitudeMeters>95.59999847412109375</AltitudeMeters>
            <DistanceMeters>NAN</DistanceMeters>
          </Trackpoint>
          <Trackpoint>
            <Time>2021-08-11T12:30:10.000Z</Time>
            <Position>
              <LatitudeDegrees>43.31380315124988555908203125</LatitudeDegrees>
              <LongitudeDegrees>-1.80871319957077503204345703125</LongitudeDegrees>
            </Position>
            <AltitudeMeters>95.59999847412109375</AltitudeMeters>
            <DistanceMeters>NAN</DistanceMeters>
          </Trackpoint>
          <Trackpoint>
            <Time>2021-08-11T12:30:11.000Z</Time>
            <Position>
              <LatitudeDegrees>43.31377423368394374847412109375</LatitudeDegrees>
              <LongitudeDegrees>-1.80877388454973697662353515625</LongitudeDegrees>
            </Position>
            <AltitudeMeters>95.8000030517578125</AltitudeMeters>
            <DistanceMeters>NAN</DistanceMeters>
          </Trackpoint>
          <Trackpoint>
            <Time>2021-08-11T12:30:12.000Z</Time>
            <Position>
              <LatitudeDegrees>43.31373743712902069091796875</LatitudeDegrees>
              <LongitudeDegrees>-1.80884747765958309173583984375</LongitudeDegrees>
            </Position>
            <AltitudeMeters>95.8000030517578125</AltitudeMeters>
            <DistanceMeters>NAN</DistanceMeters>
          </Trackpoint>
          <Trackpoint>
            <Time>2021-08-11T12:30:14.000Z</Time>
            <Position>
              <LatitudeDegrees>43.3136534504592418670654296875</LatitudeDegrees>
              <LongitudeDegrees>-1.80900053121149539947509765625</LongitudeDegrees>
            </Position>
            <AltitudeMeters>96.1999969482421875</AltitudeMeters>
            <DistanceMeters>NAN</DistanceMeters>
          </Trackpoint>
          <Trackpoint>
            <Time>2021-08-11T12:30:15.000Z</Time>
            <Position>
              <LatitudeDegrees>43.31361539661884307861328125</LatitudeDegrees>
              <LongitudeDegrees>-1.80906926281750202178955078125</LongitudeDegrees>
            </Position>
            <AltitudeMeters>96</AltitudeMeters>
            <DistanceMeters>NAN</DistanceMeters>
          </Trackpoint>
          <Trackpoint>
            <Time>2021-08-11T12:30:16.000Z</Time>
            <Position>
              <LatitudeDegrees>43.313579857349395751953125</LatitudeDegrees>
              <LongitudeDegrees>-1.80914369411766529083251953125</LongitudeDegrees>
            </Position>
            <AltitudeMeters>96.40000152587890625</AltitudeMeters>
            <DistanceMeters>NAN</DistanceMeters>
          </Trackpoint>
          <Trackpoint>
            <Time>2021-08-11T12:30:17.000Z</Time>
            <Position>
              <LatitudeDegrees>43.31354389898478984832763671875</LatitudeDegrees>
              <LongitudeDegrees>-1.80921175517141819000244140625</LongitudeDegrees>
            </Position>
            <AltitudeMeters>96.8000030517578125</AltitudeMeters>
            <DistanceMeters>NAN</DistanceMeters>
          </Trackpoint>
          <Trackpoint>
            <Time>2021-08-11T12:30:18.000Z</Time>
            <Position>
              <LatitudeDegrees>43.313510455191135406494140625</LatitudeDegrees>
              <LongitudeDegrees>-1.80927009321749210357666015625</LongitudeDegrees>
            </Position>
            <AltitudeMeters>96.8000030517578125</AltitudeMeters>
            <DistanceMeters>NAN</DistanceMeters>
          </Trackpoint>
          <Trackpoint>
            <Time>2021-08-11T12:30:19.000Z</Time>
            <Position>
              <LatitudeDegrees>43.3134787715971469879150390625</LatitudeDegrees>
              <LongitudeDegrees>-1.80932524614036083221435546875</LongitudeDegrees>
            </Position>
            <AltitudeMeters>96.8000030517578125</AltitudeMeters>
            <DistanceMeters>NAN</DistanceMeters>
          </Trackpoint>
          <Trackpoint>
            <Time>2021-08-11T12:30:20.000Z</Time>
            <Position>
              <LatitudeDegrees>43.31345052458345890045166015625</LatitudeDegrees>
              <LongitudeDegrees>-1.80937637574970722198486328125</LongitudeDegrees>
            </Position>
            <AltitudeMeters>97</AltitudeMeters>
            <DistanceMeters>NAN</DistanceMeters>
          </Trackpoint>
          <Trackpoint>
            <Time>2021-08-11T12:30:21.000Z</Time>
            <Position>
              <LatitudeDegrees>43.31342051737010478973388671875</LatitudeDegrees>
              <LongitudeDegrees>-1.80942884646356105804443359375</LongitudeDegrees>
            </Position>
            <AltitudeMeters>97.40000152587890625</AltitudeMeters>
            <DistanceMeters>NAN</DistanceMeters>
          </Trackpoint>
          <Trackpoint>
            <Time>2021-08-11T12:30:22.000Z</Time>
            <Position>
              <LatitudeDegrees>43.313389755785465240478515625</LatitudeDegrees>
              <LongitudeDegrees>-1.80947897024452686309814453125</LongitudeDegrees>
            </Position>
            <AltitudeMeters>97.40000152587890625</AltitudeMeters>
            <DistanceMeters>NAN</DistanceMeters>
          </Trackpoint>
          <Trackpoint>
            <Time>2021-08-11T12:30:23.000Z</Time>
            <Position>
              <LatitudeDegrees>43.31336100585758686065673828125</LatitudeDegrees>
              <LongitudeDegrees>-1.80952892638742923736572265625</LongitudeDegrees>
            </Position>
            <AltitudeMeters>97.8000030517578125</AltitudeMeters>
            <DistanceMeters>NAN</DistanceMeters>
          </Trackpoint>
          <Trackpoint>
            <Time>2021-08-11T12:30:24.000Z</Time>
            <Position>
              <LatitudeDegrees>43.3133325912058353424072265625</LatitudeDegrees>
              <LongitudeDegrees>-1.8095742724835872650146484375</LongitudeDegrees>
            </Position>
            <AltitudeMeters>98</AltitudeMeters>
            <DistanceMeters>NAN</DistanceMeters>
          </Trackpoint>
          <Trackpoint>
            <Time>2021-08-11T12:30:25.000Z</Time>
            <Position>
              <LatitudeDegrees>43.31330551765859127044677734375</LatitudeDegrees>
              <LongitudeDegrees>-1.80961878038942813873291015625</LongitudeDegrees>
            </Position>
            <AltitudeMeters>98.8000030517578125</AltitudeMeters>
            <DistanceMeters>NAN</DistanceMeters>
          </Trackpoint>
          <Trackpoint>
            <Time>2021-08-11T12:30:27.000Z</Time>
            <Position>
              <LatitudeDegrees>43.31325195729732513427734375</LatitudeDegrees>
              <LongitudeDegrees>-1.809700839221477508544921875</LongitudeDegrees>
            </Position>
            <AltitudeMeters>99.59999847412109375</AltitudeMeters>
            <DistanceMeters>NAN</DistanceMeters>
          </Trackpoint>
          <Trackpoint>
            <Time>2021-08-11T12:30:28.000Z</Time>
            <Position>
              <LatitudeDegrees>43.3132276497781276702880859375</LatitudeDegrees>
              <LongitudeDegrees>-1.8097445927560329437255859375</LongitudeDegrees>
            </Position>
            <AltitudeMeters>100</AltitudeMeters>
            <DistanceMeters>NAN</DistanceMeters>
          </Trackpoint>
          <Trackpoint>
            <Time>2021-08-11T12:30:29.000Z</Time>
            <Position>
              <LatitudeDegrees>43.31320342607796192169189453125</LatitudeDegrees>
              <LongitudeDegrees>-1.80978524498641490936279296875</LongitudeDegrees>
            </Position>
            <AltitudeMeters>100.40000152587890625</AltitudeMeters>
            <DistanceMeters>NAN</DistanceMeters>
          </Trackpoint>
          <Trackpoint>
            <Time>2021-08-11T12:30:30.000Z</Time>
            <Position>
              <LatitudeDegrees>43.31318062730133533477783203125</LatitudeDegrees>
              <LongitudeDegrees>-1.80982598103582859039306640625</LongitudeDegrees>
            </Position>
            <AltitudeMeters>100.59999847412109375</AltitudeMeters>
            <DistanceMeters>NAN</DistanceMeters>
          </Trackpoint>
          <Trackpoint>
            <Time>2021-08-11T12:30:31.000Z</Time>
            <Position>
              <LatitudeDegrees>43.313157074153423309326171875</LatitudeDegrees>
              <LongitudeDegrees>-1.8098642863333225250244140625</LongitudeDegrees>
            </Position>
            <AltitudeMeters>100.8000030517578125</AltitudeMeters>
            <DistanceMeters>NAN</DistanceMeters>
          </Trackpoint>
          <Trackpoint>
            <Time>2021-08-11T12:30:32.000Z</Time>
            <Position>
              <LatitudeDegrees>43.31313662230968475341796875</LatitudeDegrees>
              <LongitudeDegrees>-1.809902004897594451904296875</LongitudeDegrees>
            </Position>
            <AltitudeMeters>101.1999969482421875</AltitudeMeters>
            <DistanceMeters>NAN</DistanceMeters>
          </Trackpoint>
          <Trackpoint>
            <Time>2021-08-11T12:30:33.000Z</Time>
            <Position>
              <LatitudeDegrees>43.3131139911711215972900390625</LatitudeDegrees>
              <LongitudeDegrees>-1.809940226376056671142578125</LongitudeDegrees>
            </Position>
            <AltitudeMeters>101.40000152587890625</AltitudeMeters>
            <DistanceMeters>NAN</DistanceMeters>
          </Trackpoint>
          <Trackpoint>
            <Time>2021-08-11T12:30:34.000Z</Time>
            <Position>
              <LatitudeDegrees>43.313089348375797271728515625</LatitudeDegrees>
              <LongitudeDegrees>-1.80997970513999462127685546875</LongitudeDegrees>
            </Position>
            <AltitudeMeters>101.8000030517578125</AltitudeMeters>
            <DistanceMeters>NAN</DistanceMeters>
          </Trackpoint>
          <Trackpoint>
            <Time>2021-08-11T12:30:35.000Z</Time>
            <Position>
              <LatitudeDegrees>43.31306596286594867706298828125</LatitudeDegrees>
              <LongitudeDegrees>-1.8100232072174549102783203125</LongitudeDegrees>
            </Position>
            <AltitudeMeters>102.1999969482421875</AltitudeMeters>
            <DistanceMeters>NAN</DistanceMeters>
          </Trackpoint>
          <Trackpoint>
            <Time>2021-08-11T12:30:36.000Z</Time>
            <Position>
              <LatitudeDegrees>43.3130496181547641754150390625</LatitudeDegrees>
              <LongitudeDegrees>-1.8100741691887378692626953125</LongitudeDegrees>
            </Position>
            <AltitudeMeters>102.40000152587890625</AltitudeMeters>
            <DistanceMeters>NAN</DistanceMeters>
          </Trackpoint>
          <Trackpoint>
            <Time>2021-08-11T12:30:37.000Z</Time>
            <Position>
              <LatitudeDegrees>43.31303738057613372802734375</LatitudeDegrees>
              <LongitudeDegrees>-1.8101211078464984893798828125</LongitudeDegrees>
            </Position>
            <AltitudeMeters>102.8000030517578125</AltitudeMeters>
            <DistanceMeters>NAN</DistanceMeters>
          </Trackpoint>
          <Trackpoint>
            <Time>2021-08-11T12:30:38.000Z</Time>
            <Position>
              <LatitudeDegrees>43.3130268193781375885009765625</LatitudeDegrees>
              <LongitudeDegrees>-1.81017181836068630218505859375</LongitudeDegrees>
            </Position>
            <AltitudeMeters>103</AltitudeMeters>
            <DistanceMeters>NAN</DistanceMeters>
          </Trackpoint>
          <Trackpoint>
            <Time>2021-08-11T12:30:39.000Z</Time>
            <Position>
              <LatitudeDegrees>43.313019275665283203125</LatitudeDegrees>
              <LongitudeDegrees>-1.81022345088422298431396484375</LongitudeDegrees>
            </Position>
            <AltitudeMeters>103.40000152587890625</AltitudeMeters>
            <DistanceMeters>NAN</DistanceMeters>
          </Trackpoint>
          <Trackpoint>
            <Time>2021-08-11T12:30:40.000Z</Time>
            <Position>
              <LatitudeDegrees>43.3130152523517608642578125</LatitudeDegrees>
              <LongitudeDegrees>-1.810276173055171966552734375</LongitudeDegrees>
            </Position>
            <AltitudeMeters>103.40000152587890625</AltitudeMeters>
            <DistanceMeters>NAN</DistanceMeters>
          </Trackpoint>
          <Trackpoint>
            <Time>2021-08-11T12:30:41.000Z</Time>
            <Position>
              <LatitudeDegrees>43.31301324069499969482421875</LatitudeDegrees>
              <LongitudeDegrees>-1.81033090688288211822509765625</LongitudeDegrees>
            </Position>
            <AltitudeMeters>103.59999847412109375</AltitudeMeters>
            <DistanceMeters>NAN</DistanceMeters>
          </Trackpoint>
          <Trackpoint>
            <Time>2021-08-11T12:30:42.000Z</Time>
            <Position>
              <LatitudeDegrees>43.31301466561853885650634765625</LatitudeDegrees>
              <LongitudeDegrees>-1.81038421578705310821533203125</LongitudeDegrees>
            </Position>
            <AltitudeMeters>103.8000030517578125</AltitudeMeters>
            <DistanceMeters>NAN</DistanceMeters>
          </Trackpoint>
          <Trackpoint>
            <Time>2021-08-11T12:30:43.000Z</Time>
            <Position>
              <LatitudeDegrees>43.3130191080272197723388671875</LatitudeDegrees>
              <LongitudeDegrees>-1.81043811142444610595703125</LongitudeDegrees>
            </Position>
            <AltitudeMeters>104</AltitudeMeters>
            <DistanceMeters>NAN</DistanceMeters>
          </Trackpoint>
          <Trackpoint>
            <Time>2021-08-11T12:30:44.000Z</Time>
            <Position>
              <LatitudeDegrees>43.3130232989788055419921875</LatitudeDegrees>
              <LongitudeDegrees>-1.8104919232428073883056640625</LongitudeDegrees>
            </Position>
            <AltitudeMeters>104.1999969482421875</AltitudeMeters>
            <DistanceMeters>NAN</DistanceMeters>
          </Trackpoint>
          <Trackpoint>
            <Time>2021-08-11T12:30:45.000Z</Time>
            <Position>
              <LatitudeDegrees>43.3130300045013427734375</LatitudeDegrees>
              <LongitudeDegrees>-1.81054850108921527862548828125</LongitudeDegrees>
            </Position>
            <AltitudeMeters>104.40000152587890625</AltitudeMeters>
            <DistanceMeters>NAN</DistanceMeters>
          </Trackpoint>
          <Trackpoint>
            <Time>2021-08-11T12:30:46.000Z</Time>
            <Position>
              <LatitudeDegrees>43.3130368776619434356689453125</LatitudeDegrees>
              <LongitudeDegrees>-1.8106049112975597381591796875</LongitudeDegrees>
            </Position>
            <AltitudeMeters>104.40000152587890625</AltitudeMeters>
            <DistanceMeters>NAN</DistanceMeters>
          </Trackpoint>
          <Trackpoint>
            <Time>2021-08-11T12:30:47.000Z</Time>
            <Position>
              <LatitudeDegrees>43.313043080270290374755859375</LatitudeDegrees>
              <LongitudeDegrees>-1.81066601537168025970458984375</LongitudeDegrees>
            </Position>
            <AltitudeMeters>104.40000152587890625</AltitudeMeters>
            <DistanceMeters>NAN</DistanceMeters>
          </Trackpoint>
          <Trackpoint>
            <Time>2021-08-11T12:30:48.000Z</Time>
            <Position>
              <LatitudeDegrees>43.31304953433573246002197265625</LatitudeDegrees>
              <LongitudeDegrees>-1.81072569452226161956787109375</LongitudeDegrees>
            </Position>
            <AltitudeMeters>104.40000152587890625</AltitudeMeters>
            <DistanceMeters>NAN</DistanceMeters>
          </Trackpoint>
          <Trackpoint>
            <Time>2021-08-11T12:30:49.000Z</Time>
            <Position>
              <LatitudeDegrees>43.313055150210857391357421875</LatitudeDegrees>
              <LongitudeDegrees>-1.81078939698636531829833984375</LongitudeDegrees>
            </Position>
            <AltitudeMeters>104.40000152587890625</AltitudeMeters>
            <DistanceMeters>NAN</DistanceMeters>
          </Trackpoint>
          <Trackpoint>
            <Time>2021-08-11T12:30:50.000Z</Time>
            <Position>
              <LatitudeDegrees>43.31306110136210918426513671875</LatitudeDegrees>
              <LongitudeDegrees>-1.81085192598402500152587890625</LongitudeDegrees>
            </Position>
            <AltitudeMeters>104.59999847412109375</AltitudeMeters>
            <DistanceMeters>NAN</DistanceMeters>
          </Trackpoint>
          <Trackpoint>
            <Time>2021-08-11T12:30:51.000Z</Time>
            <Position>
              <LatitudeDegrees>43.313067220151424407958984375</LatitudeDegrees>
              <LongitudeDegrees>-1.8109090067446231842041015625</LongitudeDegrees>
            </Position>
            <AltitudeMeters>104.59999847412109375</AltitudeMeters>
            <DistanceMeters>NAN</DistanceMeters>
          </Trackpoint>
          <Trackpoint>
            <Time>2021-08-11T12:30:52.000Z</Time>
            <Position>
              <LatitudeDegrees>43.3130710758268833160400390625</LatitudeDegrees>
              <LongitudeDegrees>-1.81096491403877735137939453125</LongitudeDegrees>
            </Position>
            <AltitudeMeters>104.59999847412109375</AltitudeMeters>
            <DistanceMeters>NAN</DistanceMeters>
          </Trackpoint>
          <Trackpoint>
            <Time>2021-08-11T12:30:53.000Z</Time>
            <Position>
              <LatitudeDegrees>43.3130767755210399627685546875</LatitudeDegrees>
              <LongitudeDegrees>-1.81102308444678783416748046875</LongitudeDegrees>
            </Position>
            <AltitudeMeters>104.59999847412109375</AltitudeMeters>
            <DistanceMeters>NAN</DistanceMeters>
          </Trackpoint>
          <Trackpoint>
            <Time>2021-08-11T12:30:54.000Z</Time>
            <Position>
              <LatitudeDegrees>43.3130851574242115020751953125</LatitudeDegrees>
              <LongitudeDegrees>-1.8110811710357666015625</LongitudeDegrees>
            </Position>
            <AltitudeMeters>104.59999847412109375</AltitudeMeters>
            <DistanceMeters>NAN</DistanceMeters>
          </Trackpoint>
          <Trackpoint>
            <Time>2021-08-11T12:30:55.000Z</Time>
            <Position>
              <LatitudeDegrees>43.31309295259416103363037109375</LatitudeDegrees>
              <LongitudeDegrees>-1.8111447058618068695068359375</LongitudeDegrees>
            </Position>
            <AltitudeMeters>104.40000152587890625</AltitudeMeters>
            <DistanceMeters>NAN</DistanceMeters>
          </Trackpoint>
          <Trackpoint>
            <Time>2021-08-11T12:30:56.000Z</Time>
            <Position>
              <LatitudeDegrees>43.313102424144744873046875</LatitudeDegrees>
              <LongitudeDegrees>-1.81120597757399082183837890625</LongitudeDegrees>
            </Position>
            <AltitudeMeters>104.40000152587890625</AltitudeMeters>
            <DistanceMeters>NAN</DistanceMeters>
          </Trackpoint>
          <Trackpoint>
            <Time>2021-08-11T12:30:57.000Z</Time>
            <Position>
              <LatitudeDegrees>43.31311256624758243560791015625</LatitudeDegrees>
              <LongitudeDegrees>-1.8112664110958576202392578125</LongitudeDegrees>
            </Position>
            <AltitudeMeters>104.40000152587890625</AltitudeMeters>
            <DistanceMeters>NAN</DistanceMeters>
          </Trackpoint>
          <Trackpoint>
            <Time>2021-08-11T12:30:58.000Z</Time>
            <Position>
              <LatitudeDegrees>43.3131227083504199981689453125</LatitudeDegrees>
              <LongitudeDegrees>-1.81132298894226551055908203125</LongitudeDegrees>
            </Position>
            <AltitudeMeters>104.59999847412109375</AltitudeMeters>
            <DistanceMeters>NAN</DistanceMeters>
          </Trackpoint>
          <Trackpoint>
            <Time>2021-08-11T12:30:59.000Z</Time>
            <Position>
              <LatitudeDegrees>43.3131304197013378143310546875</LatitudeDegrees>
              <LongitudeDegrees>-1.81138434447348117828369140625</LongitudeDegrees>
            </Position>
            <AltitudeMeters>104.59999847412109375</AltitudeMeters>
            <DistanceMeters>NAN</DistanceMeters>
          </Trackpoint>
          <Trackpoint>
            <Time>2021-08-11T12:31:00.000Z</Time>
            <Position>
              <LatitudeDegrees>43.3131361193954944610595703125</LatitudeDegrees>
              <LongitudeDegrees>-1.81144720874726772308349609375</LongitudeDegrees>
            </Position>
            <AltitudeMeters>104.59999847412109375</AltitudeMeters>
            <DistanceMeters>NAN</DistanceMeters>
          </Trackpoint>
          <Trackpoint>
            <Time>2021-08-11T12:31:01.000Z</Time>
            <Position>
              <LatitudeDegrees>43.3131377957761287689208984375</LatitudeDegrees>
              <LongitudeDegrees>-1.8115103244781494140625</LongitudeDegrees>
            </Position>
            <AltitudeMeters>104.59999847412109375</AltitudeMeters>
            <DistanceMeters>NAN</DistanceMeters>
          </Trackpoint>
          <Trackpoint>
            <Time>2021-08-11T12:31:02.000Z</Time>
            <Position>
              <LatitudeDegrees>43.3131398074328899383544921875</LatitudeDegrees>
              <LongitudeDegrees>-1.81157092563807964324951171875</LongitudeDegrees>
            </Position>
            <AltitudeMeters>104.59999847412109375</AltitudeMeters>
            <DistanceMeters>NAN</DistanceMeters>
          </Trackpoint>
          <Trackpoint>
            <Time>2021-08-11T12:31:03.000Z</Time>
            <Position>
              <LatitudeDegrees>43.313140310347080230712890625</LatitudeDegrees>
              <LongitudeDegrees>-1.8116308562457561492919921875</LongitudeDegrees>
            </Position>
            <AltitudeMeters>104.59999847412109375</AltitudeMeters>
            <DistanceMeters>NAN</DistanceMeters>
          </Trackpoint>
          <Trackpoint>
            <Time>2021-08-11T12:31:04.000Z</Time>
            <Position>
              <LatitudeDegrees>43.31313502974808216094970703125</LatitudeDegrees>
              <LongitudeDegrees>-1.81169338524341583251953125</LongitudeDegrees>
            </Position>
            <AltitudeMeters>104.59999847412109375</AltitudeMeters>
            <DistanceMeters>NAN</DistanceMeters>
          </Trackpoint>
          <Trackpoint>
            <Time>2021-08-11T12:31:08.000Z</Time>
            <Position>
              <LatitudeDegrees>43.313112817704677581787109375</LatitudeDegrees>
              <LongitudeDegrees>-1.81191743351519107818603515625</LongitudeDegrees>
            </Position>
            <AltitudeMeters>105</AltitudeMeters>
            <DistanceMeters>NAN</DistanceMeters>
          </Trackpoint>
          <Trackpoint>
            <Time>2021-08-11T12:31:12.000Z</Time>
            <Position>
              <LatitudeDegrees>43.31306126900017261505126953125</LatitudeDegrees>
              <LongitudeDegrees>-1.8121381290256977081298828125</LongitudeDegrees>
            </Position>
            <AltitudeMeters>105.1999969482421875</AltitudeMeters>
            <DistanceMeters>NAN</DistanceMeters>
          </Trackpoint>
          <Trackpoint>
            <Time>2021-08-11T12:31:15.000Z</Time>
            <Position>
              <LatitudeDegrees>43.313006870448589324951171875</LatitudeDegrees>
              <LongitudeDegrees>-1.8122963793575763702392578125</LongitudeDegrees>
            </Position>
            <AltitudeMeters>105.40000152587890625</AltitudeMeters>
            <DistanceMeters>NAN</DistanceMeters>
          </Trackpoint>
          <Trackpoint>
            <Time>2021-08-11T12:31:16.000Z</Time>
            <Position>
              <LatitudeDegrees>43.31299337558448314666748046875</LatitudeDegrees>
              <LongitudeDegrees>-1.812337450683116912841796875</LongitudeDegrees>
            </Position>
            <AltitudeMeters>105.59999847412109375</AltitudeMeters>
            <DistanceMeters>NAN</DistanceMeters>
          </Trackpoint>
          <Trackpoint>
            <Time>2021-08-11T12:31:17.000Z</Time>
            <Position>
              <LatitudeDegrees>43.3129775337874889373779296875</LatitudeDegrees>
              <LongitudeDegrees>-1.81239956058561801910400390625</LongitudeDegrees>
            </Position>
            <AltitudeMeters>105.59999847412109375</AltitudeMeters>
            <DistanceMeters>NAN</DistanceMeters>
          </Trackpoint>
          <Trackpoint>
            <Time>2021-08-11T12:31:18.000Z</Time>
            <Position>
              <LatitudeDegrees>43.31296521238982677459716796875</LatitudeDegrees>
              <LongitudeDegrees>-1.81245379149913787841796875</LongitudeDegrees>
            </Position>
            <AltitudeMeters>105.8000030517578125</AltitudeMeters>
            <DistanceMeters>NAN</DistanceMeters>
          </Trackpoint>
          <Trackpoint>
            <Time>2021-08-11T12:31:19.000Z</Time>
            <Position>
              <LatitudeDegrees>43.31295314244925975799560546875</LatitudeDegrees>
              <LongitudeDegrees>-1.81250819005072116851806640625</LongitudeDegrees>
            </Position>
            <AltitudeMeters>105.8000030517578125</AltitudeMeters>
            <DistanceMeters>NAN</DistanceMeters>
          </Trackpoint>
          <Trackpoint>
            <Time>2021-08-11T12:31:20.000Z</Time>
            <Position>
              <LatitudeDegrees>43.31294174306094646453857421875</LatitudeDegrees>
              <LongitudeDegrees>-1.81256317533552646636962890625</LongitudeDegrees>
            </Position>
            <AltitudeMeters>105.8000030517578125</AltitudeMeters>
            <DistanceMeters>NAN</DistanceMeters>
          </Trackpoint>
          <Trackpoint>
            <Time>2021-08-11T12:31:21.000Z</Time>
            <Position>
              <LatitudeDegrees>43.31293101422488689422607421875</LatitudeDegrees>
              <LongitudeDegrees>-1.81261749006807804107666015625</LongitudeDegrees>
            </Position>
            <AltitudeMeters>106.1999969482421875</AltitudeMeters>
            <DistanceMeters>NAN</DistanceMeters>
          </Trackpoint>
          <Trackpoint>
            <Time>2021-08-11T12:31:22.000Z</Time>
            <Position>
              <LatitudeDegrees>43.312921039760112762451171875</LatitudeDegrees>
              <LongitudeDegrees>-1.81267364881932735443115234375</LongitudeDegrees>
            </Position>
            <AltitudeMeters>106.40000152587890625</AltitudeMeters>
            <DistanceMeters>NAN</DistanceMeters>
          </Trackpoint>
          <Trackpoint>
            <Time>2021-08-11T12:31:23.000Z</Time>
            <Position>
              <LatitudeDegrees>43.31291056238114833831787109375</LatitudeDegrees>
              <LongitudeDegrees>-1.81273248977959156036376953125</LongitudeDegrees>
            </Position>
            <AltitudeMeters>106.59999847412109375</AltitudeMeters>
            <DistanceMeters>NAN</DistanceMeters>
          </Trackpoint>
          <Trackpoint>
            <Time>2021-08-11T12:31:24.000Z</Time>
            <Position>
              <LatitudeDegrees>43.3129037730395793914794921875</LatitudeDegrees>
              <LongitudeDegrees>-1.8127875588834285736083984375</LongitudeDegrees>
            </Position>
            <AltitudeMeters>106.59999847412109375</AltitudeMeters>
            <DistanceMeters>NAN</DistanceMeters>
          </Trackpoint>
          <Trackpoint>
            <Time>2021-08-11T12:31:31.000Z</Time>
            <Position>
              <LatitudeDegrees>43.31288793124258518218994140625</LatitudeDegrees>
              <LongitudeDegrees>-1.81319835595786571502685546875</LongitudeDegrees>
            </Position>
            <AltitudeMeters>107.59999847412109375</AltitudeMeters>
            <DistanceMeters>NAN</DistanceMeters>
          </Trackpoint>
          <Trackpoint>
            <Time>2021-08-11T12:31:32.000Z</Time>
            <Position>
              <LatitudeDegrees>43.31288323737680912017822265625</LatitudeDegrees>
              <LongitudeDegrees>-1.81325669400393962860107421875</LongitudeDegrees>
            </Position>
            <AltitudeMeters>107.8000030517578125</AltitudeMeters>
            <DistanceMeters>NAN</DistanceMeters>
          </Trackpoint>
          <Trackpoint>
            <Time>2021-08-11T12:31:33.000Z</Time>
            <Position>
              <LatitudeDegrees>43.3128799684345722198486328125</LatitudeDegrees>
              <LongitudeDegrees>-1.81331100873649120330810546875</LongitudeDegrees>
            </Position>
            <AltitudeMeters>107.8000030517578125</AltitudeMeters>
            <DistanceMeters>NAN</DistanceMeters>
          </Trackpoint>
          <Trackpoint>
            <Time>2021-08-11T12:31:34.000Z</Time>
            <Position>
              <LatitudeDegrees>43.31287720240652561187744140625</LatitudeDegrees>
              <LongitudeDegrees>-1.8133645690977573394775390625</LongitudeDegrees>
            </Position>
            <AltitudeMeters>107.8000030517578125</AltitudeMeters>
            <DistanceMeters>NAN</DistanceMeters>
          </Trackpoint>
          <Trackpoint>
            <Time>2021-08-11T12:31:35.000Z</Time>
            <Position>
              <LatitudeDegrees>43.3128732629120349884033203125</LatitudeDegrees>
              <LongitudeDegrees>-1.81341628544032573699951171875</LongitudeDegrees>
            </Position>
            <AltitudeMeters>108</AltitudeMeters>
            <DistanceMeters>NAN</DistanceMeters>
          </Trackpoint>
          <Trackpoint>
            <Time>2021-08-11T12:31:36.000Z</Time>
            <Position>
              <LatitudeDegrees>43.3128662221133708953857421875</LatitudeDegrees>
              <LongitudeDegrees>-1.81346909143030643463134765625</LongitudeDegrees>
            </Position>
            <AltitudeMeters>108.1999969482421875</AltitudeMeters>
            <DistanceMeters>NAN</DistanceMeters>
          </Trackpoint>
          <Trackpoint>
            <Time>2021-08-11T12:31:37.000Z</Time>
            <Position>
              <LatitudeDegrees>43.31285239197313785552978515625</LatitudeDegrees>
              <LongitudeDegrees>-1.813527010381221771240234375</LongitudeDegrees>
            </Position>
            <AltitudeMeters>108.40000152587890625</AltitudeMeters>
            <DistanceMeters>NAN</DistanceMeters>
          </Trackpoint>
          <Trackpoint>
            <Time>2021-08-11T12:31:38.000Z</Time>
            <Position>
              <LatitudeDegrees>43.31283621490001678466796875</LatitudeDegrees>
              <LongitudeDegrees>-1.8135767988860607147216796875</LongitudeDegrees>
            </Position>
            <AltitudeMeters>108.40000152587890625</AltitudeMeters>
            <DistanceMeters>NAN</DistanceMeters>
          </Trackpoint>
          <Trackpoint>
            <Time>2021-08-11T12:31:39.000Z</Time>
            <Position>
              <LatitudeDegrees>43.31281702034175395965576171875</LatitudeDegrees>
              <LongitudeDegrees>-1.8136220611631870269775390625</LongitudeDegrees>
            </Position>
            <AltitudeMeters>108.59999847412109375</AltitudeMeters>
            <DistanceMeters>NAN</DistanceMeters>
          </Trackpoint>
          <Trackpoint>
            <Time>2021-08-11T12:31:40.000Z</Time>
            <Position>
              <LatitudeDegrees>43.31279388628900051116943359375</LatitudeDegrees>
              <LongitudeDegrees>-1.81366204284131526947021484375</LongitudeDegrees>
            </Position>
            <AltitudeMeters>108.8000030517578125</AltitudeMeters>
            <DistanceMeters>NAN</DistanceMeters>
          </Trackpoint>
          <Trackpoint>
            <Time>2021-08-11T12:31:41.000Z</Time>
            <Position>
              <LatitudeDegrees>43.31276907585561275482177734375</LatitudeDegrees>
              <LongitudeDegrees>-1.81370076723396778106689453125</LongitudeDegrees>
            </Position>
            <AltitudeMeters>109</AltitudeMeters>
            <DistanceMeters>NAN</DistanceMeters>
          </Trackpoint>
          <Trackpoint>
            <Time>2021-08-11T12:31:42.000Z</Time>
            <Position>
              <LatitudeDegrees>43.312744013965129852294921875</LatitudeDegrees>
              <LongitudeDegrees>-1.813742257654666900634765625</LongitudeDegrees>
            </Position>
            <AltitudeMeters>109.1999969482421875</AltitudeMeters>
            <DistanceMeters>NAN</DistanceMeters>
          </Trackpoint>
          <Trackpoint>
            <Time>2021-08-11T12:31:43.000Z</Time>
            <Position>
              <LatitudeDegrees>43.31272012554109096527099609375</LatitudeDegrees>
              <LongitudeDegrees>-1.81378408335149288177490234375</LongitudeDegrees>
            </Position>
            <AltitudeMeters>109.40000152587890625</AltitudeMeters>
            <DistanceMeters>NAN</DistanceMeters>
          </Trackpoint>
          <Trackpoint>
            <Time>2021-08-11T12:31:44.000Z</Time>
            <Position>
              <LatitudeDegrees>43.31269674003124237060546875</LatitudeDegrees>
              <LongitudeDegrees>-1.81382163427770137786865234375</LongitudeDegrees>
            </Position>
            <AltitudeMeters>109.59999847412109375</AltitudeMeters>
            <DistanceMeters>NAN</DistanceMeters>
          </Trackpoint>
          <Trackpoint>
            <Time>2021-08-11T12:31:45.000Z</Time>
            <Position>
              <LatitudeDegrees>43.31267486326396465301513671875</LatitudeDegrees>
              <LongitudeDegrees>-1.81385817937552928924560546875</LongitudeDegrees>
            </Position>
            <AltitudeMeters>109.59999847412109375</AltitudeMeters>
            <DistanceMeters>NAN</DistanceMeters>
          </Trackpoint>
          <Trackpoint>
            <Time>2021-08-11T12:31:46.000Z</Time>
            <Position>
              <LatitudeDegrees>43.3126504719257354736328125</LatitudeDegrees>
              <LongitudeDegrees>-1.81389807723462581634521484375</LongitudeDegrees>
            </Position>
            <AltitudeMeters>109.8000030517578125</AltitudeMeters>
            <DistanceMeters>NAN</DistanceMeters>
          </Trackpoint>
          <Trackpoint>
            <Time>2021-08-11T12:31:47.000Z</Time>
            <Position>
              <LatitudeDegrees>43.31262440420687198638916015625</LatitudeDegrees>
              <LongitudeDegrees>-1.81393864564597606658935546875</LongitudeDegrees>
            </Position>
            <AltitudeMeters>109.8000030517578125</AltitudeMeters>
            <DistanceMeters>NAN</DistanceMeters>
          </Trackpoint>
          <Trackpoint>
            <Time>2021-08-11T12:31:48.000Z</Time>
            <Position>
              <LatitudeDegrees>43.312597833573818206787109375</LatitudeDegrees>
              <LongitudeDegrees>-1.81398172862827777862548828125</LongitudeDegrees>
            </Position>
            <AltitudeMeters>110</AltitudeMeters>
            <DistanceMeters>NAN</DistanceMeters>
          </Trackpoint>
          <Trackpoint>
            <Time>2021-08-11T12:31:49.000Z</Time>
            <Position>
              <LatitudeDegrees>43.31256933510303497314453125</LatitudeDegrees>
              <LongitudeDegrees>-1.8140383064746856689453125</LongitudeDegrees>
            </Position>
            <AltitudeMeters>110.1999969482421875</AltitudeMeters>
            <DistanceMeters>NAN</DistanceMeters>
          </Trackpoint>
          <Trackpoint>
            <Time>2021-08-11T12:31:50.000Z</Time>
            <Position>
              <LatitudeDegrees>43.31253874115645885467529296875</LatitudeDegrees>
              <LongitudeDegrees>-1.8140973150730133056640625</LongitudeDegrees>
            </Position>
            <AltitudeMeters>110.40000152587890625</AltitudeMeters>
            <DistanceMeters>NAN</DistanceMeters>
          </Trackpoint>
          <Trackpoint>
            <Time>2021-08-11T12:31:51.000Z</Time>
            <Position>
              <LatitudeDegrees>43.3125135116279125213623046875</LatitudeDegrees>
              <LongitudeDegrees>-1.814158000051975250244140625</LongitudeDegrees>
            </Position>
            <AltitudeMeters>110.40000152587890625</AltitudeMeters>
            <DistanceMeters>NAN</DistanceMeters>
          </Trackpoint>
          <Trackpoint>
            <Time>2021-08-11T12:31:52.000Z</Time>
            <Position>
              <LatitudeDegrees>43.31249431706964969635009765625</LatitudeDegrees>
              <LongitudeDegrees>-1.81421156041324138641357421875</LongitudeDegrees>
            </Position>
            <AltitudeMeters>110.59999847412109375</AltitudeMeters>
            <DistanceMeters>NAN</DistanceMeters>
          </Trackpoint>
          <Trackpoint>
            <Time>2021-08-11T12:31:53.000Z</Time>
            <Position>
              <LatitudeDegrees>43.31247679889202117919921875</LatitudeDegrees>
              <LongitudeDegrees>-1.814274005591869354248046875</LongitudeDegrees>
            </Position>
            <AltitudeMeters>110.8000030517578125</AltitudeMeters>
            <DistanceMeters>NAN</DistanceMeters>
          </Trackpoint>
          <Trackpoint>
            <Time>2021-08-11T12:31:54.000Z</Time>
            <Position>
              <LatitudeDegrees>43.312465734779834747314453125</LatitudeDegrees>
              <LongitudeDegrees>-1.814335696399211883544921875</LongitudeDegrees>
            </Position>
            <AltitudeMeters>111</AltitudeMeters>
            <DistanceMeters>NAN</DistanceMeters>
          </Trackpoint>
          <Trackpoint>
            <Time>2021-08-11T12:31:55.000Z</Time>
            <Position>
              <LatitudeDegrees>43.31245877780020236968994140625</LatitudeDegrees>
              <LongitudeDegrees>-1.8143918551504611968994140625</LongitudeDegrees>
            </Position>
            <AltitudeMeters>111.1999969482421875</AltitudeMeters>
            <DistanceMeters>NAN</DistanceMeters>
          </Trackpoint>
          <Trackpoint>
            <Time>2021-08-11T12:31:56.000Z</Time>
            <Position>
              <LatitudeDegrees>43.31244855187833309173583984375</LatitudeDegrees>
              <LongitudeDegrees>-1.81444340385496616363525390625</LongitudeDegrees>
            </Position>
            <AltitudeMeters>111.1999969482421875</AltitudeMeters>
            <DistanceMeters>NAN</DistanceMeters>
          </Trackpoint>
          <Trackpoint>
            <Time>2021-08-11T12:31:57.000Z</Time>
            <Position>
              <LatitudeDegrees>43.31244838424026966094970703125</LatitudeDegrees>
              <LongitudeDegrees>-1.814506351947784423828125</LongitudeDegrees>
            </Position>
            <AltitudeMeters>111.1999969482421875</AltitudeMeters>
            <DistanceMeters>NAN</DistanceMeters>
          </Trackpoint>
          <Trackpoint>
            <Time>2021-08-11T12:31:58.000Z</Time>
            <Position>
              <LatitudeDegrees>43.3124555088579654693603515625</LatitudeDegrees>
              <LongitudeDegrees>-1.81456678546965122222900390625</LongitudeDegrees>
            </Position>
            <AltitudeMeters>111.40000152587890625</AltitudeMeters>
            <DistanceMeters>NAN</DistanceMeters>
          </Trackpoint>
          <Trackpoint>
            <Time>2021-08-11T12:31:59.000Z</Time>
            <Position>
              <LatitudeDegrees>43.31246816553175449371337890625</LatitudeDegrees>
              <LongitudeDegrees>-1.81462596170604228973388671875</LongitudeDegrees>
            </Position>
            <AltitudeMeters>111.59999847412109375</AltitudeMeters>
            <DistanceMeters>NAN</DistanceMeters>
          </Trackpoint>
          <Trackpoint>
            <Time>2021-08-11T12:32:00.000Z</Time>
            <Position>
              <LatitudeDegrees>43.312487192451953887939453125</LatitudeDegrees>
              <LongitudeDegrees>-1.81469821371138095855712890625</LongitudeDegrees>
            </Position>
            <AltitudeMeters>111.8000030517578125</AltitudeMeters>
            <DistanceMeters>NAN</DistanceMeters>
          </Trackpoint>
          <Trackpoint>
            <Time>2021-08-11T12:32:01.000Z</Time>
            <Position>
              <LatitudeDegrees>43.3125125057995319366455078125</LatitudeDegrees>
              <LongitudeDegrees>-1.8147690407931804656982421875</LongitudeDegrees>
            </Position>
            <AltitudeMeters>111.8000030517578125</AltitudeMeters>
            <DistanceMeters>NAN</DistanceMeters>
          </Trackpoint>
          <Trackpoint>
            <Time>2021-08-11T12:32:02.000Z</Time>
            <Position>
              <LatitudeDegrees>43.31252516247332096099853515625</LatitudeDegrees>
              <LongitudeDegrees>-1.814833246171474456787109375</LongitudeDegrees>
            </Position>
            <AltitudeMeters>112</AltitudeMeters>
            <DistanceMeters>NAN</DistanceMeters>
          </Trackpoint>
          <Trackpoint>
            <Time>2021-08-11T12:32:03.000Z</Time>
            <Position>
              <LatitudeDegrees>43.31254385411739349365234375</LatitudeDegrees>
              <LongitudeDegrees>-1.814892590045928955078125</LongitudeDegrees>
            </Position>
            <AltitudeMeters>112</AltitudeMeters>
            <DistanceMeters>NAN</DistanceMeters>
          </Trackpoint>
          <Trackpoint>
            <Time>2021-08-11T12:32:04.000Z</Time>
            <Position>
              <LatitudeDegrees>43.31256472505629062652587890625</LatitudeDegrees>
              <LongitudeDegrees>-1.81494891643524169921875</LongitudeDegrees>
            </Position>
            <AltitudeMeters>112.1999969482421875</AltitudeMeters>
            <DistanceMeters>NAN</DistanceMeters>
          </Trackpoint>
          <Trackpoint>
            <Time>2021-08-11T12:32:05.000Z</Time>
            <Position>
              <LatitudeDegrees>43.3125819079577922821044921875</LatitudeDegrees>
              <LongitudeDegrees>-1.81500859558582305908203125</LongitudeDegrees>
            </Position>
            <AltitudeMeters>112.40000152587890625</AltitudeMeters>
            <DistanceMeters>NAN</DistanceMeters>
          </Trackpoint>
          <Trackpoint>
            <Time>2021-08-11T12:32:06.000Z</Time>
            <Position>
              <LatitudeDegrees>43.31260059960186481475830078125</LatitudeDegrees>
              <LongitudeDegrees>-1.81507355533540248870849609375</LongitudeDegrees>
            </Position>
            <AltitudeMeters>112.59999847412109375</AltitudeMeters>
            <DistanceMeters>NAN</DistanceMeters>
          </Trackpoint>
          <Trackpoint>
            <Time>2021-08-11T12:32:07.000Z</Time>
            <Position>
              <LatitudeDegrees>43.3126261644065380096435546875</LatitudeDegrees>
              <LongitudeDegrees>-1.8151277862489223480224609375</LongitudeDegrees>
            </Position>
            <AltitudeMeters>112.8000030517578125</AltitudeMeters>
            <DistanceMeters>NAN</DistanceMeters>
          </Trackpoint>
          <Trackpoint>
            <Time>2021-08-11T12:32:08.000Z</Time>
            <Position>
              <LatitudeDegrees>43.31265893764793872833251953125</LatitudeDegrees>
              <LongitudeDegrees>-1.81519509293138980865478515625</LongitudeDegrees>
            </Position>
            <AltitudeMeters>112.8000030517578125</AltitudeMeters>
            <DistanceMeters>NAN</DistanceMeters>
          </Trackpoint>
          <Trackpoint>
            <Time>2021-08-11T12:32:09.000Z</Time>
            <Position>
              <LatitudeDegrees>43.3126724325120449066162109375</LatitudeDegrees>
              <LongitudeDegrees>-1.81525829248130321502685546875</LongitudeDegrees>
            </Position>
            <AltitudeMeters>113.1999969482421875</AltitudeMeters>
            <DistanceMeters>NAN</DistanceMeters>
          </Trackpoint>
          <Trackpoint>
            <Time>2021-08-11T12:32:10.000Z</Time>
            <Position>
              <LatitudeDegrees>43.3126657269895076751708984375</LatitudeDegrees>
              <LongitudeDegrees>-1.8153242580592632293701171875</LongitudeDegrees>
            </Position>
            <AltitudeMeters>113.1999969482421875</AltitudeMeters>
            <DistanceMeters>NAN</DistanceMeters>
          </Trackpoint>
          <Trackpoint>
            <Time>2021-08-11T12:32:11.000Z</Time>
            <Position>
              <LatitudeDegrees>43.31264703534543514251708984375</LatitudeDegrees>
              <LongitudeDegrees>-1.81538267992436885833740234375</LongitudeDegrees>
            </Position>
            <AltitudeMeters>113.40000152587890625</AltitudeMeters>
            <DistanceMeters>NAN</DistanceMeters>
          </Trackpoint>
          <Trackpoint>
            <Time>2021-08-11T12:32:12.000Z</Time>
            <Position>
              <LatitudeDegrees>43.31263463012874126434326171875</LatitudeDegrees>
              <LongitudeDegrees>-1.815437413752079010009765625</LongitudeDegrees>
            </Position>
            <AltitudeMeters>113.59999847412109375</AltitudeMeters>
            <DistanceMeters>NAN</DistanceMeters>
          </Trackpoint>
          <Trackpoint>
            <Time>2021-08-11T12:32:13.000Z</Time>
            <Position>
              <LatitudeDegrees>43.3126191236078739166259765625</LatitudeDegrees>
              <LongitudeDegrees>-1.81549114175140857696533203125</LongitudeDegrees>
            </Position>
            <AltitudeMeters>113.8000030517578125</AltitudeMeters>
            <DistanceMeters>NAN</DistanceMeters>
          </Trackpoint>
          <Trackpoint>
            <Time>2021-08-11T12:32:14.000Z</Time>
            <Position>
              <LatitudeDegrees>43.3126008510589599609375</LatitudeDegrees>
              <LongitudeDegrees>-1.8155478872358798980712890625</LongitudeDegrees>
            </Position>
            <AltitudeMeters>114</AltitudeMeters>
            <DistanceMeters>NAN</DistanceMeters>
          </Trackpoint>
          <Trackpoint>
            <Time>2021-08-11T12:32:15.000Z</Time>
            <Position>
              <LatitudeDegrees>43.3125812374055385589599609375</LatitudeDegrees>
              <LongitudeDegrees>-1.81560329161584377288818359375</LongitudeDegrees>
            </Position>
            <AltitudeMeters>113.8000030517578125</AltitudeMeters>
            <DistanceMeters>NAN</DistanceMeters>
          </Trackpoint>
          <Trackpoint>
            <Time>2021-08-11T12:32:16.000Z</Time>
            <Position>
              <LatitudeDegrees>43.31256304867565631866455078125</LatitudeDegrees>
              <LongitudeDegrees>-1.81565978564321994781494140625</LongitudeDegrees>
            </Position>
            <AltitudeMeters>114</AltitudeMeters>
            <DistanceMeters>NAN</DistanceMeters>
          </Trackpoint>
          <Trackpoint>
            <Time>2021-08-11T12:32:17.000Z</Time>
            <Position>
              <LatitudeDegrees>43.312547542154788970947265625</LatitudeDegrees>
              <LongitudeDegrees>-1.81571644730865955352783203125</LongitudeDegrees>
            </Position>
            <AltitudeMeters>114.1999969482421875</AltitudeMeters>
            <DistanceMeters>NAN</DistanceMeters>
          </Trackpoint>
          <Trackpoint>
            <Time>2021-08-11T12:32:18.000Z</Time>
            <Position>
              <LatitudeDegrees>43.31253035925328731536865234375</LatitudeDegrees>
              <LongitudeDegrees>-1.81577193550765514373779296875</LongitudeDegrees>
            </Position>
            <AltitudeMeters>114.40000152587890625</AltitudeMeters>
            <DistanceMeters>NAN</DistanceMeters>
          </Trackpoint>
          <Trackpoint>
            <Time>2021-08-11T12:32:19.000Z</Time>
            <Position>
              <LatitudeDegrees>43.312514014542102813720703125</LatitudeDegrees>
              <LongitudeDegrees>-1.8158275075256824493408203125</LongitudeDegrees>
            </Position>
            <AltitudeMeters>114.40000152587890625</AltitudeMeters>
            <DistanceMeters>NAN</DistanceMeters>
          </Trackpoint>
          <Trackpoint>
            <Time>2021-08-11T12:32:20.000Z</Time>
            <Position>
              <LatitudeDegrees>43.31249423325061798095703125</LatitudeDegrees>
              <LongitudeDegrees>-1.815879642963409423828125</LongitudeDegrees>
            </Position>
            <AltitudeMeters>114.59999847412109375</AltitudeMeters>
            <DistanceMeters>NAN</DistanceMeters>
          </Trackpoint>
          <Trackpoint>
            <Time>2021-08-11T12:32:21.000Z</Time>
            <Position>
              <LatitudeDegrees>43.31247453577816486358642578125</LatitudeDegrees>
              <LongitudeDegrees>-1.81593001820147037506103515625</LongitudeDegrees>
            </Position>
            <AltitudeMeters>114.8000030517578125</AltitudeMeters>
            <DistanceMeters>NAN</DistanceMeters>
          </Trackpoint>
          <Trackpoint>
            <Time>2021-08-11T12:32:22.000Z</Time>
            <Position>
              <LatitudeDegrees>43.3124558441340923309326171875</LatitudeDegrees>
              <LongitudeDegrees>-1.815981231629848480224609375</LongitudeDegrees>
            </Position>
            <AltitudeMeters>114.8000030517578125</AltitudeMeters>
            <DistanceMeters>NAN</DistanceMeters>
          </Trackpoint>
          <Trackpoint>
            <Time>2021-08-11T12:32:23.000Z</Time>
            <Position>
              <LatitudeDegrees>43.3124397508800029754638671875</LatitudeDegrees>
              <LongitudeDegrees>-1.81603127159178256988525390625</LongitudeDegrees>
            </Position>
            <AltitudeMeters>115</AltitudeMeters>
            <DistanceMeters>NAN</DistanceMeters>
          </Trackpoint>
          <Trackpoint>
            <Time>2021-08-11T12:32:24.000Z</Time>
            <Position>
              <LatitudeDegrees>43.31242374144494533538818359375</LatitudeDegrees>
              <LongitudeDegrees>-1.81608072482049465179443359375</LongitudeDegrees>
            </Position>
            <AltitudeMeters>115</AltitudeMeters>
            <DistanceMeters>NAN</DistanceMeters>
          </Trackpoint>
          <Trackpoint>
            <Time>2021-08-11T12:32:25.000Z</Time>
            <Position>
              <LatitudeDegrees>43.3124115876853466033935546875</LatitudeDegrees>
              <LongitudeDegrees>-1.81612850166857242584228515625</LongitudeDegrees>
            </Position>
            <AltitudeMeters>115.1999969482421875</AltitudeMeters>
            <DistanceMeters>NAN</DistanceMeters>
          </Trackpoint>
          <Trackpoint>
            <Time>2021-08-11T12:32:26.000Z</Time>
            <Position>
              <LatitudeDegrees>43.312394320964813232421875</LatitudeDegrees>
              <LongitudeDegrees>-1.81617728434503078460693359375</LongitudeDegrees>
            </Position>
            <AltitudeMeters>115.40000152587890625</AltitudeMeters>
            <DistanceMeters>NAN</DistanceMeters>
          </Trackpoint>
          <Trackpoint>
            <Time>2021-08-11T12:32:27.000Z</Time>
            <Position>
              <LatitudeDegrees>43.31237579695880413055419921875</LatitudeDegrees>
              <LongitudeDegrees>-1.8162301741540431976318359375</LongitudeDegrees>
            </Position>
            <AltitudeMeters>115.40000152587890625</AltitudeMeters>
            <DistanceMeters>NAN</DistanceMeters>
          </Trackpoint>
          <Trackpoint>
            <Time>2021-08-11T12:32:28.000Z</Time>
            <Position>
              <LatitudeDegrees>43.31236414611339569091796875</LatitudeDegrees>
              <LongitudeDegrees>-1.8162804655730724334716796875</LongitudeDegrees>
            </Position>
            <AltitudeMeters>115.8000030517578125</AltitudeMeters>
            <DistanceMeters>NAN</DistanceMeters>
          </Trackpoint>
          <Trackpoint>
            <Time>2021-08-11T12:32:29.000Z</Time>
            <Position>
              <LatitudeDegrees>43.31236138008534908294677734375</LatitudeDegrees>
              <LongitudeDegrees>-1.8163314275443553924560546875</LongitudeDegrees>
            </Position>
            <AltitudeMeters>115.8000030517578125</AltitudeMeters>
            <DistanceMeters>NAN</DistanceMeters>
          </Trackpoint>
          <Trackpoint>
            <Time>2021-08-11T12:32:30.000Z</Time>
            <Position>
              <LatitudeDegrees>43.31236506812274456024169921875</LatitudeDegrees>
              <LongitudeDegrees>-1.8163793720304965972900390625</LongitudeDegrees>
            </Position>
            <AltitudeMeters>116.1999969482421875</AltitudeMeters>
            <DistanceMeters>NAN</DistanceMeters>
          </Trackpoint>
          <Trackpoint>
            <Time>2021-08-11T12:32:31.000Z</Time>
            <Position>
              <LatitudeDegrees>43.31237177364528179168701171875</LatitudeDegrees>
              <LongitudeDegrees>-1.81642949581146240234375</LongitudeDegrees>
            </Position>
            <AltitudeMeters>116.1999969482421875</AltitudeMeters>
            <DistanceMeters>NAN</DistanceMeters>
          </Trackpoint>
          <Trackpoint>
            <Time>2021-08-11T12:32:32.000Z</Time>
            <Position>
              <LatitudeDegrees>43.312381245195865631103515625</LatitudeDegrees>
              <LongitudeDegrees>-1.81647710502147674560546875</LongitudeDegrees>
            </Position>
            <AltitudeMeters>116.40000152587890625</AltitudeMeters>
            <DistanceMeters>NAN</DistanceMeters>
          </Trackpoint>
          <Trackpoint>
            <Time>2021-08-11T12:32:33.000Z</Time>
            <Position>
              <LatitudeDegrees>43.31239004619419574737548828125</LatitudeDegrees>
              <LongitudeDegrees>-1.81652261875569820404052734375</LongitudeDegrees>
            </Position>
            <AltitudeMeters>116.59999847412109375</AltitudeMeters>
            <DistanceMeters>NAN</DistanceMeters>
          </Trackpoint>
          <Trackpoint>
            <Time>2021-08-11T12:32:34.000Z</Time>
            <Position>
              <LatitudeDegrees>43.31240144558250904083251953125</LatitudeDegrees>
              <LongitudeDegrees>-1.81656955741345882415771484375</LongitudeDegrees>
            </Position>
            <AltitudeMeters>116.8000030517578125</AltitudeMeters>
            <DistanceMeters>NAN</DistanceMeters>
          </Trackpoint>
          <Trackpoint>
            <Time>2021-08-11T12:32:35.000Z</Time>
            <Position>
              <LatitudeDegrees>43.312418125569820404052734375</LatitudeDegrees>
              <LongitudeDegrees>-1.8166172504425048828125</LongitudeDegrees>
            </Position>
            <AltitudeMeters>117</AltitudeMeters>
            <DistanceMeters>NAN</DistanceMeters>
          </Trackpoint>
          <Trackpoint>
            <Time>2021-08-11T12:32:36.000Z</Time>
            <Position>
              <LatitudeDegrees>43.31243924796581268310546875</LatitudeDegrees>
              <LongitudeDegrees>-1.81667433120310306549072265625</LongitudeDegrees>
            </Position>
            <AltitudeMeters>117.1999969482421875</AltitudeMeters>
            <DistanceMeters>NAN</DistanceMeters>
          </Trackpoint>
          <Trackpoint>
            <Time>2021-08-11T12:32:37.000Z</Time>
            <Position>
              <LatitudeDegrees>43.31245391629636287689208984375</LatitudeDegrees>
              <LongitudeDegrees>-1.81673048995435237884521484375</LongitudeDegrees>
            </Position>
            <AltitudeMeters>117.40000152587890625</AltitudeMeters>
            <DistanceMeters>NAN</DistanceMeters>
          </Trackpoint>
          <Trackpoint>
            <Time>2021-08-11T12:32:38.000Z</Time>
            <Position>
              <LatitudeDegrees>43.31246866844594478607177734375</LatitudeDegrees>
              <LongitudeDegrees>-1.8167783506214618682861328125</LongitudeDegrees>
            </Position>
            <AltitudeMeters>117.40000152587890625</AltitudeMeters>
            <DistanceMeters>NAN</DistanceMeters>
          </Trackpoint>
          <Trackpoint>
            <Time>2021-08-11T12:32:39.000Z</Time>
            <Position>
              <LatitudeDegrees>43.31248090602457523345947265625</LatitudeDegrees>
              <LongitudeDegrees>-1.8168366886675357818603515625</LongitudeDegrees>
            </Position>
            <AltitudeMeters>117.59999847412109375</AltitudeMeters>
            <DistanceMeters>NAN</DistanceMeters>
          </Trackpoint>
          <Trackpoint>
            <Time>2021-08-11T12:32:40.000Z</Time>
            <Position>
              <LatitudeDegrees>43.312497250735759735107421875</LatitudeDegrees>
              <LongitudeDegrees>-1.8168977089226245880126953125</LongitudeDegrees>
            </Position>
            <AltitudeMeters>117.59999847412109375</AltitudeMeters>
            <DistanceMeters>NAN</DistanceMeters>
          </Trackpoint>
          <Trackpoint>
            <Time>2021-08-11T12:32:41.000Z</Time>
            <Position>
              <LatitudeDegrees>43.312515355646610260009765625</LatitudeDegrees>
              <LongitudeDegrees>-1.81695864535868167877197265625</LongitudeDegrees>
            </Position>
            <AltitudeMeters>117.8000030517578125</AltitudeMeters>
            <DistanceMeters>NAN</DistanceMeters>
          </Trackpoint>
          <Trackpoint>
            <Time>2021-08-11T12:32:42.000Z</Time>
            <Position>
              <LatitudeDegrees>43.3125306107103824615478515625</LatitudeDegrees>
              <LongitudeDegrees>-1.81702159345149993896484375</LongitudeDegrees>
            </Position>
            <AltitudeMeters>118</AltitudeMeters>
            <DistanceMeters>NAN</DistanceMeters>
          </Trackpoint>
          <Trackpoint>
            <Time>2021-08-11T12:32:43.000Z</Time>
            <Position>
              <LatitudeDegrees>43.31254209391772747039794921875</LatitudeDegrees>
              <LongitudeDegrees>-1.81708504445850849151611328125</LongitudeDegrees>
            </Position>
            <AltitudeMeters>118</AltitudeMeters>
            <DistanceMeters>NAN</DistanceMeters>
          </Trackpoint>
          <Trackpoint>
            <Time>2021-08-11T12:32:44.000Z</Time>
            <Position>
              <LatitudeDegrees>43.3125507272779941558837890625</LatitudeDegrees>
              <LongitudeDegrees>-1.8171458132565021514892578125</LongitudeDegrees>
            </Position>
            <AltitudeMeters>118</AltitudeMeters>
            <DistanceMeters>NAN</DistanceMeters>
          </Trackpoint>
          <Trackpoint>
            <Time>2021-08-11T12:32:45.000Z</Time>
            <Position>
              <LatitudeDegrees>43.312558941543102264404296875</LatitudeDegrees>
              <LongitudeDegrees>-1.8172038160264492034912109375</LongitudeDegrees>
            </Position>
            <AltitudeMeters>118.1999969482421875</AltitudeMeters>
            <DistanceMeters>NAN</DistanceMeters>
          </Trackpoint>
          <Trackpoint>
            <Time>2021-08-11T12:32:46.000Z</Time>
            <Position>
              <LatitudeDegrees>43.31255148164927959442138671875</LatitudeDegrees>
              <LongitudeDegrees>-1.8172685243189334869384765625</LongitudeDegrees>
            </Position>
            <AltitudeMeters>118.1999969482421875</AltitudeMeters>
            <DistanceMeters>NAN</DistanceMeters>
          </Trackpoint>
          <Trackpoint>
            <Time>2021-08-11T12:32:47.000Z</Time>
            <Position>
              <LatitudeDegrees>43.312544189393520355224609375</LatitudeDegrees>
              <LongitudeDegrees>-1.817322671413421630859375</LongitudeDegrees>
            </Position>
            <AltitudeMeters>118.1999969482421875</AltitudeMeters>
            <DistanceMeters>NAN</DistanceMeters>
          </Trackpoint>
          <Trackpoint>
            <Time>2021-08-11T12:32:48.000Z</Time>
            <Position>
              <LatitudeDegrees>43.3125289343297481536865234375</LatitudeDegrees>
              <LongitudeDegrees>-1.81739567779004573822021484375</LongitudeDegrees>
            </Position>
            <AltitudeMeters>118.1999969482421875</AltitudeMeters>
            <DistanceMeters>NAN</DistanceMeters>
          </Trackpoint>
          <Trackpoint>
            <Time>2021-08-11T12:32:49.000Z</Time>
            <Position>
              <LatitudeDegrees>43.31251828931272029876708984375</LatitudeDegrees>
              <LongitudeDegrees>-1.81746072135865688323974609375</LongitudeDegrees>
            </Position>
            <AltitudeMeters>118.1999969482421875</AltitudeMeters>
            <DistanceMeters>NAN</DistanceMeters>
          </Trackpoint>
          <Trackpoint>
            <Time>2021-08-11T12:32:50.000Z</Time>
            <Position>
              <LatitudeDegrees>43.312508650124073028564453125</LatitudeDegrees>
              <LongitudeDegrees>-1.81752718985080718994140625</LongitudeDegrees>
            </Position>
            <AltitudeMeters>118.1999969482421875</AltitudeMeters>
            <DistanceMeters>NAN</DistanceMeters>
          </Trackpoint>
          <Trackpoint>
            <Time>2021-08-11T12:32:51.000Z</Time>
            <Position>
              <LatitudeDegrees>43.31249968148767948150634765625</LatitudeDegrees>
              <LongitudeDegrees>-1.81759466417133808135986328125</LongitudeDegrees>
            </Position>
            <AltitudeMeters>118.1999969482421875</AltitudeMeters>
            <DistanceMeters>NAN</DistanceMeters>
          </Trackpoint>
          <Trackpoint>
            <Time>2021-08-11T12:32:52.000Z</Time>
            <Position>
              <LatitudeDegrees>43.312495909631252288818359375</LatitudeDegrees>
              <LongitudeDegrees>-1.8176594562828540802001953125</LongitudeDegrees>
            </Position>
            <AltitudeMeters>118</AltitudeMeters>
            <DistanceMeters>NAN</DistanceMeters>
          </Trackpoint>
          <Trackpoint>
            <Time>2021-08-11T12:32:53.000Z</Time>
            <Position>
              <LatitudeDegrees>43.3124975860118865966796875</LatitudeDegrees>
              <LongitudeDegrees>-1.81772374548017978668212890625</LongitudeDegrees>
            </Position>
            <AltitudeMeters>118</AltitudeMeters>
            <DistanceMeters>NAN</DistanceMeters>
          </Trackpoint>
          <Trackpoint>
            <Time>2021-08-11T12:32:54.000Z</Time>
            <Position>
              <LatitudeDegrees>43.31250655464828014373779296875</LatitudeDegrees>
              <LongitudeDegrees>-1.817790381610393524169921875</LongitudeDegrees>
            </Position>
            <AltitudeMeters>118</AltitudeMeters>
            <DistanceMeters>NAN</DistanceMeters>
          </Trackpoint>
          <Trackpoint>
            <Time>2021-08-11T12:32:55.000Z</Time>
            <Position>
              <LatitudeDegrees>43.31252633593976497650146484375</LatitudeDegrees>
              <LongitudeDegrees>-1.8178529106080532073974609375</LongitudeDegrees>
            </Position>
            <AltitudeMeters>117.8000030517578125</AltitudeMeters>
            <DistanceMeters>NAN</DistanceMeters>
          </Trackpoint>
          <Trackpoint>
            <Time>2021-08-11T12:32:56.000Z</Time>
            <Position>
              <LatitudeDegrees>43.3125510625541210174560546875</LatitudeDegrees>
              <LongitudeDegrees>-1.817900352180004119873046875</LongitudeDegrees>
            </Position>
            <AltitudeMeters>117.8000030517578125</AltitudeMeters>
            <DistanceMeters>NAN</DistanceMeters>
          </Trackpoint>
          <Trackpoint>
            <Time>2021-08-11T12:32:57.000Z</Time>
            <Position>
              <LatitudeDegrees>43.31258475780487060546875</LatitudeDegrees>
              <LongitudeDegrees>-1.8179588578641414642333984375</LongitudeDegrees>
            </Position>
            <AltitudeMeters>117.8000030517578125</AltitudeMeters>
            <DistanceMeters>NAN</DistanceMeters>
          </Trackpoint>
          <Trackpoint>
            <Time>2021-08-11T12:32:58.000Z</Time>
            <Position>
              <LatitudeDegrees>43.3126197941601276397705078125</LatitudeDegrees>
              <LongitudeDegrees>-1.81801258586347103118896484375</LongitudeDegrees>
            </Position>
            <AltitudeMeters>117.8000030517578125</AltitudeMeters>
            <DistanceMeters>NAN</DistanceMeters>
          </Trackpoint>
          <Trackpoint>
            <Time>2021-08-11T12:32:59.000Z</Time>
            <Position>
              <LatitudeDegrees>43.3126586861908435821533203125</LatitudeDegrees>
              <LongitudeDegrees>-1.8180373124778270721435546875</LongitudeDegrees>
            </Position>
            <AltitudeMeters>117.8000030517578125</AltitudeMeters>
            <DistanceMeters>NAN</DistanceMeters>
          </Trackpoint>
          <Trackpoint>
            <Time>2021-08-11T12:33:00.000Z</Time>
            <Position>
              <LatitudeDegrees>43.3127002604305744171142578125</LatitudeDegrees>
              <LongitudeDegrees>-1.81803957559168338775634765625</LongitudeDegrees>
            </Position>
            <AltitudeMeters>117.59999847412109375</AltitudeMeters>
            <DistanceMeters>NAN</DistanceMeters>
          </Trackpoint>
          <Trackpoint>
            <Time>2021-08-11T12:33:01.000Z</Time>
            <Position>
              <LatitudeDegrees>43.31274510361254215240478515625</LatitudeDegrees>
              <LongitudeDegrees>-1.81804309599101543426513671875</LongitudeDegrees>
            </Position>
            <AltitudeMeters>117.59999847412109375</AltitudeMeters>
            <DistanceMeters>NAN</DistanceMeters>
          </Trackpoint>
          <Trackpoint>
            <Time>2021-08-11T12:33:02.000Z</Time>
            <Position>
              <LatitudeDegrees>43.31278097815811634063720703125</LatitudeDegrees>
              <LongitudeDegrees>-1.81804762221872806549072265625</LongitudeDegrees>
            </Position>
            <AltitudeMeters>117.59999847412109375</AltitudeMeters>
            <DistanceMeters>NAN</DistanceMeters>
          </Trackpoint>
          <Trackpoint>
            <Time>2021-08-11T12:33:03.000Z</Time>
            <Position>
              <LatitudeDegrees>43.3128367178142070770263671875</LatitudeDegrees>
              <LongitudeDegrees>-1.81805985979735851287841796875</LongitudeDegrees>
            </Position>
            <AltitudeMeters>117.59999847412109375</AltitudeMeters>
            <DistanceMeters>NAN</DistanceMeters>
          </Trackpoint>
          <Trackpoint>
            <Time>2021-08-11T12:33:07.000Z</Time>
            <Position>
              <LatitudeDegrees>43.31298231147229671478271484375</LatitudeDegrees>
              <LongitudeDegrees>-1.81813211180269718170166015625</LongitudeDegrees>
            </Position>
            <AltitudeMeters>117.40000152587890625</AltitudeMeters>
            <DistanceMeters>NAN</DistanceMeters>
          </Trackpoint>
          <Trackpoint>
            <Time>2021-08-11T12:33:08.000Z</Time>
            <Position>
              <LatitudeDegrees>43.31301324069499969482421875</LatitudeDegrees>
              <LongitudeDegrees>-1.81814686395227909088134765625</LongitudeDegrees>
            </Position>
            <AltitudeMeters>117.40000152587890625</AltitudeMeters>
            <DistanceMeters>NAN</DistanceMeters>
          </Trackpoint>
          <Trackpoint>
            <Time>2021-08-11T12:33:09.000Z</Time>
            <Position>
              <LatitudeDegrees>43.31304634921252727508544921875</LatitudeDegrees>
              <LongitudeDegrees>-1.818159855902194976806640625</LongitudeDegrees>
            </Position>
            <AltitudeMeters>117.40000152587890625</AltitudeMeters>
            <DistanceMeters>NAN</DistanceMeters>
          </Trackpoint>
          <Trackpoint>
            <Time>2021-08-11T12:33:10.000Z</Time>
            <Position>
              <LatitudeDegrees>43.31308121792972087860107421875</LatitudeDegrees>
              <LongitudeDegrees>-1.8181717582046985626220703125</LongitudeDegrees>
            </Position>
            <AltitudeMeters>117.1999969482421875</AltitudeMeters>
            <DistanceMeters>NAN</DistanceMeters>
          </Trackpoint>
          <Trackpoint>
            <Time>2021-08-11T12:33:11.000Z</Time>
            <Position>
              <LatitudeDegrees>43.31311005167663097381591796875</LatitudeDegrees>
              <LongitudeDegrees>-1.8181836605072021484375</LongitudeDegrees>
            </Position>
            <AltitudeMeters>117.1999969482421875</AltitudeMeters>
            <DistanceMeters>NAN</DistanceMeters>
          </Trackpoint>
          <Trackpoint>
            <Time>2021-08-11T12:33:12.000Z</Time>
            <Position>
              <LatitudeDegrees>43.31313536502420902252197265625</LatitudeDegrees>
              <LongitudeDegrees>-1.81819011457264423370361328125</LongitudeDegrees>
            </Position>
            <AltitudeMeters>117.1999969482421875</AltitudeMeters>
            <DistanceMeters>NAN</DistanceMeters>
          </Trackpoint>
          <Trackpoint>
            <Time>2021-08-11T12:33:13.000Z</Time>
            <Position>
              <LatitudeDegrees>43.31315539777278900146484375</LatitudeDegrees>
              <LongitudeDegrees>-1.81819313205778598785400390625</LongitudeDegrees>
            </Position>
            <AltitudeMeters>117.1999969482421875</AltitudeMeters>
            <DistanceMeters>NAN</DistanceMeters>
          </Trackpoint>
          <Trackpoint>
            <Time>2021-08-11T12:33:14.000Z</Time>
            <Position>
              <LatitudeDegrees>43.31317241303622722625732421875</LatitudeDegrees>
              <LongitudeDegrees>-1.81819749064743518829345703125</LongitudeDegrees>
            </Position>
            <AltitudeMeters>117</AltitudeMeters>
            <DistanceMeters>NAN</DistanceMeters>
          </Trackpoint>
          <Trackpoint>
            <Time>2021-08-11T12:33:15.000Z</Time>
            <Position>
              <LatitudeDegrees>43.3131894282996654510498046875</LatitudeDegrees>
              <LongitudeDegrees>-1.81820201687514781951904296875</LongitudeDegrees>
            </Position>
            <AltitudeMeters>117</AltitudeMeters>
            <DistanceMeters>NAN</DistanceMeters>
          </Trackpoint>
          <Trackpoint>
            <Time>2021-08-11T12:33:16.000Z</Time>
            <Position>
              <LatitudeDegrees>43.313197977840900421142578125</LatitudeDegrees>
              <LongitudeDegrees>-1.81820821948349475860595703125</LongitudeDegrees>
            </Position>
            <AltitudeMeters>116.8000030517578125</AltitudeMeters>
            <DistanceMeters>NAN</DistanceMeters>
          </Trackpoint>
          <Trackpoint>
            <Time>2021-08-11T12:33:17.000Z</Time>
            <Position>
              <LatitudeDegrees>43.31320258788764476776123046875</LatitudeDegrees>
              <LongitudeDegrees>-1.8182210437953472137451171875</LongitudeDegrees>
            </Position>
            <AltitudeMeters>116.8000030517578125</AltitudeMeters>
            <DistanceMeters>NAN</DistanceMeters>
          </Trackpoint>
          <Trackpoint>
            <Time>2021-08-11T12:33:18.000Z</Time>
            <Position>
              <LatitudeDegrees>43.3131998218595981597900390625</LatitudeDegrees>
              <LongitudeDegrees>-1.818234287202358245849609375</LongitudeDegrees>
            </Position>
            <AltitudeMeters>116.8000030517578125</AltitudeMeters>
            <DistanceMeters>NAN</DistanceMeters>
          </Trackpoint>
          <Trackpoint>
            <Time>2021-08-11T12:33:19.000Z</Time>
            <Position>
              <LatitudeDegrees>43.3131874166429042816162109375</LatitudeDegrees>
              <LongitudeDegrees>-1.81824711151421070098876953125</LongitudeDegrees>
            </Position>
            <AltitudeMeters>116.8000030517578125</AltitudeMeters>
            <DistanceMeters>NAN</DistanceMeters>
          </Trackpoint>
          <Trackpoint>
            <Time>2021-08-11T12:33:22.000Z</Time>
            <Position>
              <LatitudeDegrees>43.31310535781085491180419921875</LatitudeDegrees>
              <LongitudeDegrees>-1.81823235936462879180908203125</LongitudeDegrees>
            </Position>
            <AltitudeMeters>116.8000030517578125</AltitudeMeters>
            <DistanceMeters>NAN</DistanceMeters>
          </Trackpoint>
          <Trackpoint>
            <Time>2021-08-11T12:33:23.000Z</Time>
            <Position>
              <LatitudeDegrees>43.313070572912693023681640625</LatitudeDegrees>
              <LongitudeDegrees>-1.818216852843761444091796875</LongitudeDegrees>
            </Position>
            <AltitudeMeters>116.8000030517578125</AltitudeMeters>
            <DistanceMeters>NAN</DistanceMeters>
          </Trackpoint>
          <Trackpoint>
            <Time>2021-08-11T12:33:24.000Z</Time>
            <Position>
              <LatitudeDegrees>43.31303159706294536590576171875</LatitudeDegrees>
              <LongitudeDegrees>-1.81820553727447986602783203125</LongitudeDegrees>
            </Position>
            <AltitudeMeters>116.8000030517578125</AltitudeMeters>
            <DistanceMeters>NAN</DistanceMeters>
          </Trackpoint>
          <Trackpoint>
            <Time>2021-08-11T12:33:29.000Z</Time>
            <Position>
              <LatitudeDegrees>43.31282808445394039154052734375</LatitudeDegrees>
              <LongitudeDegrees>-1.818134374916553497314453125</LongitudeDegrees>
            </Position>
            <AltitudeMeters>116.8000030517578125</AltitudeMeters>
            <DistanceMeters>NAN</DistanceMeters>
          </Trackpoint>
          <Trackpoint>
            <Time>2021-08-11T12:33:30.000Z</Time>
            <Position>
              <LatitudeDegrees>43.31278751604259014129638671875</LatitudeDegrees>
              <LongitudeDegrees>-1.81811735965311527252197265625</LongitudeDegrees>
            </Position>
            <AltitudeMeters>117</AltitudeMeters>
            <DistanceMeters>NAN</DistanceMeters>
          </Trackpoint>
          <Trackpoint>
            <Time>2021-08-11T12:33:31.000Z</Time>
            <Position>
              <LatitudeDegrees>43.31275868229568004608154296875</LatitudeDegrees>
              <LongitudeDegrees>-1.81810227222740650177001953125</LongitudeDegrees>
            </Position>
            <AltitudeMeters>117</AltitudeMeters>
            <DistanceMeters>NAN</DistanceMeters>
          </Trackpoint>
          <Trackpoint>
            <Time>2021-08-11T12:33:34.000Z</Time>
            <Position>
              <LatitudeDegrees>43.3126385696232318878173828125</LatitudeDegrees>
              <LongitudeDegrees>-1.81803924031555652618408203125</LongitudeDegrees>
            </Position>
            <AltitudeMeters>117.1999969482421875</AltitudeMeters>
            <DistanceMeters>NAN</DistanceMeters>
          </Trackpoint>
          <Trackpoint>
            <Time>2021-08-11T12:33:37.000Z</Time>
            <Position>
              <LatitudeDegrees>43.31254460848867893218994140625</LatitudeDegrees>
              <LongitudeDegrees>-1.81796246208250522613525390625</LongitudeDegrees>
            </Position>
            <AltitudeMeters>117.1999969482421875</AltitudeMeters>
            <DistanceMeters>NAN</DistanceMeters>
          </Trackpoint>
          <Trackpoint>
            <Time>2021-08-11T12:33:38.000Z</Time>
            <Position>
              <LatitudeDegrees>43.31251678057014942169189453125</LatitudeDegrees>
              <LongitudeDegrees>-1.81793798692524433135986328125</LongitudeDegrees>
            </Position>
            <AltitudeMeters>117.40000152587890625</AltitudeMeters>
            <DistanceMeters>NAN</DistanceMeters>
          </Trackpoint>
          <Trackpoint>
            <Time>2021-08-11T12:33:39.000Z</Time>
            <Position>
              <LatitudeDegrees>43.3124922215938568115234375</LatitudeDegrees>
              <LongitudeDegrees>-1.817913763225078582763671875</LongitudeDegrees>
            </Position>
            <AltitudeMeters>117.40000152587890625</AltitudeMeters>
            <DistanceMeters>NAN</DistanceMeters>
          </Trackpoint>
          <Trackpoint>
            <Time>2021-08-11T12:33:40.000Z</Time>
            <Position>
              <LatitudeDegrees>43.3124726079404354095458984375</LatitudeDegrees>
              <LongitudeDegrees>-1.81789289228618144989013671875</LongitudeDegrees>
            </Position>
            <AltitudeMeters>117.40000152587890625</AltitudeMeters>
            <DistanceMeters>NAN</DistanceMeters>
          </Trackpoint>
          <Trackpoint>
            <Time>2021-08-11T12:33:41.000Z</Time>
            <Position>
              <LatitudeDegrees>43.31246062181890010833740234375</LatitudeDegrees>
              <LongitudeDegrees>-1.81788082234561443328857421875</LongitudeDegrees>
            </Position>
            <AltitudeMeters>117.59999847412109375</AltitudeMeters>
            <DistanceMeters>NAN</DistanceMeters>
          </Trackpoint>
          <Trackpoint>
            <Time>2021-08-11T12:33:42.000Z</Time>
            <Position>
              <LatitudeDegrees>43.3124424330890178680419921875</LatitudeDegrees>
              <LongitudeDegrees>-1.8178814090788364410400390625</LongitudeDegrees>
            </Position>
            <AltitudeMeters>117.59999847412109375</AltitudeMeters>
            <DistanceMeters>NAN</DistanceMeters>
          </Trackpoint>
          <Trackpoint>
            <Time>2021-08-11T12:33:43.000Z</Time>
            <Position>
              <LatitudeDegrees>43.31242877058684825897216796875</LatitudeDegrees>
              <LongitudeDegrees>-1.81789272464811801910400390625</LongitudeDegrees>
            </Position>
            <AltitudeMeters>117.59999847412109375</AltitudeMeters>
            <DistanceMeters>NAN</DistanceMeters>
          </Trackpoint>
          <Trackpoint>
            <Time>2021-08-11T12:33:44.000Z</Time>
            <Position>
              <LatitudeDegrees>43.31241569481790065765380859375</LatitudeDegrees>
              <LongitudeDegrees>-1.817908398807048797607421875</LongitudeDegrees>
            </Position>
            <AltitudeMeters>117.59999847412109375</AltitudeMeters>
            <DistanceMeters>NAN</DistanceMeters>
          </Trackpoint>
          <Trackpoint>
            <Time>2021-08-11T12:33:45.000Z</Time>
            <Position>
              <LatitudeDegrees>43.3124055527150630950927734375</LatitudeDegrees>
              <LongitudeDegrees>-1.817932538688182830810546875</LongitudeDegrees>
            </Position>
            <AltitudeMeters>117.59999847412109375</AltitudeMeters>
            <DistanceMeters>NAN</DistanceMeters>
          </Trackpoint>
          <Trackpoint>
            <Time>2021-08-11T12:33:47.000Z</Time>
            <Position>
              <LatitudeDegrees>43.3123854361474514007568359375</LatitudeDegrees>
              <LongitudeDegrees>-1.81797788478434085845947265625</LongitudeDegrees>
            </Position>
            <AltitudeMeters>117.59999847412109375</AltitudeMeters>
            <DistanceMeters>NAN</DistanceMeters>
          </Trackpoint>
          <Trackpoint>
            <Time>2021-08-11T12:33:51.000Z</Time>
            <Position>
              <LatitudeDegrees>43.3123827539384365081787109375</LatitudeDegrees>
              <LongitudeDegrees>-1.8179819919168949127197265625</LongitudeDegrees>
            </Position>
            <AltitudeMeters>117.59999847412109375</AltitudeMeters>
            <DistanceMeters>NAN</DistanceMeters>
          </Trackpoint>
          <Trackpoint>
            <Time>2021-08-11T12:35:23.000Z</Time>
            <Position>
              <LatitudeDegrees>43.31233304925262928009033203125</LatitudeDegrees>
              <LongitudeDegrees>-1.81807461194694042205810546875</LongitudeDegrees>
            </Position>
            <AltitudeMeters>117.40000152587890625</AltitudeMeters>
            <DistanceMeters>NAN</DistanceMeters>
          </Trackpoint>
          <Trackpoint>
            <Time>2021-08-11T12:35:26.000Z</Time>
            <Position>
              <LatitudeDegrees>43.31227236427366733551025390625</LatitudeDegrees>
              <LongitudeDegrees>-1.8181821517646312713623046875</LongitudeDegrees>
            </Position>
            <AltitudeMeters>117.40000152587890625</AltitudeMeters>
            <DistanceMeters>NAN</DistanceMeters>
          </Trackpoint>
          <Trackpoint>
            <Time>2021-08-11T12:35:27.000Z</Time>
            <Position>
              <LatitudeDegrees>43.31225090660154819488525390625</LatitudeDegrees>
              <LongitudeDegrees>-1.81821777485311031341552734375</LongitudeDegrees>
            </Position>
            <AltitudeMeters>117.40000152587890625</AltitudeMeters>
            <DistanceMeters>NAN</DistanceMeters>
          </Trackpoint>
          <Trackpoint>
            <Time>2021-08-11T12:35:28.000Z</Time>
            <Position>
              <LatitudeDegrees>43.312230370938777923583984375</LatitudeDegrees>
              <LongitudeDegrees>-1.81825163774192333221435546875</LongitudeDegrees>
            </Position>
            <AltitudeMeters>117.40000152587890625</AltitudeMeters>
            <DistanceMeters>NAN</DistanceMeters>
          </Trackpoint>
          <Trackpoint>
            <Time>2021-08-11T12:35:29.000Z</Time>
            <Position>
              <LatitudeDegrees>43.31220815889537334442138671875</LatitudeDegrees>
              <LongitudeDegrees>-1.81828516535460948944091796875</LongitudeDegrees>
            </Position>
            <AltitudeMeters>117.40000152587890625</AltitudeMeters>
            <DistanceMeters>NAN</DistanceMeters>
          </Trackpoint>
          <Trackpoint>
            <Time>2021-08-11T12:35:36.000Z</Time>
            <Position>
              <LatitudeDegrees>43.3120496571063995361328125</LatitudeDegrees>
              <LongitudeDegrees>-1.8185055255889892578125</LongitudeDegrees>
            </Position>
            <AltitudeMeters>118.40000152587890625</AltitudeMeters>
            <DistanceMeters>NAN</DistanceMeters>
          </Trackpoint>
          <Trackpoint>
            <Time>2021-08-11T12:35:38.000Z</Time>
            <Position>
              <LatitudeDegrees>43.3120062388479709625244140625</LatitudeDegrees>
              <LongitudeDegrees>-1.8185744248330593109130859375</LongitudeDegrees>
            </Position>
            <AltitudeMeters>119</AltitudeMeters>
            <DistanceMeters>NAN</DistanceMeters>
          </Trackpoint>
          <Trackpoint>
            <Time>2021-08-11T12:35:43.000Z</Time>
            <Position>
              <LatitudeDegrees>43.31190523691475391387939453125</LatitudeDegrees>
              <LongitudeDegrees>-1.81873560883104801177978515625</LongitudeDegrees>
            </Position>
            <AltitudeMeters>119.8000030517578125</AltitudeMeters>
            <DistanceMeters>NAN</DistanceMeters>
          </Trackpoint>
          <Trackpoint>
            <Time>2021-08-11T12:35:45.000Z</Time>
            <Position>
              <LatitudeDegrees>43.31186257302761077880859375</LatitudeDegrees>
              <LongitudeDegrees>-1.81880082003772258758544921875</LongitudeDegrees>
            </Position>
            <AltitudeMeters>120.1999969482421875</AltitudeMeters>
            <DistanceMeters>NAN</DistanceMeters>
          </Trackpoint>
          <Trackpoint>
            <Time>2021-08-11T12:35:47.000Z</Time>
            <Position>
              <LatitudeDegrees>43.31182728521525859832763671875</LatitudeDegrees>
              <LongitudeDegrees>-1.81887106038630008697509765625</LongitudeDegrees>
            </Position>
            <AltitudeMeters>120.40000152587890625</AltitudeMeters>
            <DistanceMeters>NAN</DistanceMeters>
          </Trackpoint>
          <Trackpoint>
            <Time>2021-08-11T12:35:48.000Z</Time>
            <Position>
              <LatitudeDegrees>43.31180700100958347320556640625</LatitudeDegrees>
              <LongitudeDegrees>-1.81890609674155712127685546875</LongitudeDegrees>
            </Position>
            <AltitudeMeters>120.40000152587890625</AltitudeMeters>
            <DistanceMeters>NAN</DistanceMeters>
          </Trackpoint>
          <Trackpoint>
            <Time>2021-08-11T12:35:49.000Z</Time>
            <Position>
              <LatitudeDegrees>43.3117849566042423248291015625</LatitudeDegrees>
              <LongitudeDegrees>-1.81894415058195590972900390625</LongitudeDegrees>
            </Position>
            <AltitudeMeters>120.59999847412109375</AltitudeMeters>
            <DistanceMeters>NAN</DistanceMeters>
          </Trackpoint>
          <Trackpoint>
            <Time>2021-08-11T12:35:50.000Z</Time>
            <Position>
              <LatitudeDegrees>43.3117665164172649383544921875</LatitudeDegrees>
              <LongitudeDegrees>-1.818981952965259552001953125</LongitudeDegrees>
            </Position>
            <AltitudeMeters>120.59999847412109375</AltitudeMeters>
            <DistanceMeters>NAN</DistanceMeters>
          </Trackpoint>
          <Trackpoint>
            <Time>2021-08-11T12:35:51.000Z</Time>
            <Position>
              <LatitudeDegrees>43.31174899823963642120361328125</LatitudeDegrees>
              <LongitudeDegrees>-1.819016151130199432373046875</LongitudeDegrees>
            </Position>
            <AltitudeMeters>120.8000030517578125</AltitudeMeters>
            <DistanceMeters>NAN</DistanceMeters>
          </Trackpoint>
          <Trackpoint>
            <Time>2021-08-11T12:35:52.000Z</Time>
            <Position>
              <LatitudeDegrees>43.31173340789973735809326171875</LatitudeDegrees>
              <LongitudeDegrees>-1.81904976256191730499267578125</LongitudeDegrees>
            </Position>
            <AltitudeMeters>121</AltitudeMeters>
            <DistanceMeters>NAN</DistanceMeters>
          </Trackpoint>
          <Trackpoint>
            <Time>2021-08-11T12:35:53.000Z</Time>
            <Position>
              <LatitudeDegrees>43.311718739569187164306640625</LatitudeDegrees>
              <LongitudeDegrees>-1.81908479891717433929443359375</LongitudeDegrees>
            </Position>
            <AltitudeMeters>121.1999969482421875</AltitudeMeters>
            <DistanceMeters>NAN</DistanceMeters>
          </Trackpoint>
          <Trackpoint>
            <Time>2021-08-11T12:35:54.000Z</Time>
            <Position>
              <LatitudeDegrees>43.31170138902962207794189453125</LatitudeDegrees>
              <LongitudeDegrees>-1.819120757281780242919921875</LongitudeDegrees>
            </Position>
            <AltitudeMeters>121.59999847412109375</AltitudeMeters>
            <DistanceMeters>NAN</DistanceMeters>
          </Trackpoint>
          <Trackpoint>
            <Time>2021-08-11T12:35:55.000Z</Time>
            <Position>
              <LatitudeDegrees>43.31168278120458126068115234375</LatitudeDegrees>
              <LongitudeDegrees>-1.8191594816744327545166015625</LongitudeDegrees>
            </Position>
            <AltitudeMeters>121.8000030517578125</AltitudeMeters>
            <DistanceMeters>NAN</DistanceMeters>
          </Trackpoint>
          <Trackpoint>
            <Time>2021-08-11T12:35:56.000Z</Time>
            <Position>
              <LatitudeDegrees>43.31166769377887248992919921875</LatitudeDegrees>
              <LongitudeDegrees>-1.8191953562200069427490234375</LongitudeDegrees>
            </Position>
            <AltitudeMeters>122</AltitudeMeters>
            <DistanceMeters>NAN</DistanceMeters>
          </Trackpoint>
          <Trackpoint>
            <Time>2021-08-11T12:35:57.000Z</Time>
            <Position>
              <LatitudeDegrees>43.31165512092411518096923828125</LatitudeDegrees>
              <LongitudeDegrees>-1.8192262016236782073974609375</LongitudeDegrees>
            </Position>
            <AltitudeMeters>122.1999969482421875</AltitudeMeters>
            <DistanceMeters>NAN</DistanceMeters>
          </Trackpoint>
          <Trackpoint>
            <Time>2021-08-11T12:35:58.000Z</Time>
            <Position>
              <LatitudeDegrees>43.3116407878696918487548828125</LatitudeDegrees>
              <LongitudeDegrees>-1.8192552030086517333984375</LongitudeDegrees>
            </Position>
            <AltitudeMeters>122.59999847412109375</AltitudeMeters>
            <DistanceMeters>NAN</DistanceMeters>
          </Trackpoint>
          <Trackpoint>
            <Time>2021-08-11T12:35:59.000Z</Time>
            <Position>
              <LatitudeDegrees>43.3116324059665203094482421875</LatitudeDegrees>
              <LongitudeDegrees>-1.8192825280129909515380859375</LongitudeDegrees>
            </Position>
            <AltitudeMeters>123</AltitudeMeters>
            <DistanceMeters>NAN</DistanceMeters>
          </Trackpoint>
          <Trackpoint>
            <Time>2021-08-11T12:36:00.000Z</Time>
            <Position>
              <LatitudeDegrees>43.311622180044651031494140625</LatitudeDegrees>
              <LongitudeDegrees>-1.8193113617599010467529296875</LongitudeDegrees>
            </Position>
            <AltitudeMeters>123.1999969482421875</AltitudeMeters>
            <DistanceMeters>NAN</DistanceMeters>
          </Trackpoint>
          <Trackpoint>
            <Time>2021-08-11T12:36:01.000Z</Time>
            <Position>
              <LatitudeDegrees>43.31161304377019405364990234375</LatitudeDegrees>
              <LongitudeDegrees>-1.81933810003101825714111328125</LongitudeDegrees>
            </Position>
            <AltitudeMeters>124</AltitudeMeters>
            <DistanceMeters>NAN</DistanceMeters>
          </Trackpoint>
          <Trackpoint>
            <Time>2021-08-11T12:36:02.000Z</Time>
            <Position>
              <LatitudeDegrees>43.31160231493413448333740234375</LatitudeDegrees>
              <LongitudeDegrees>-1.81936911307275295257568359375</LongitudeDegrees>
            </Position>
            <AltitudeMeters>124.40000152587890625</AltitudeMeters>
            <DistanceMeters>NAN</DistanceMeters>
          </Trackpoint>
          <Trackpoint>
            <Time>2021-08-11T12:36:03.000Z</Time>
            <Position>
              <LatitudeDegrees>43.3115923404693603515625</LatitudeDegrees>
              <LongitudeDegrees>-1.8193995393812656402587890625</LongitudeDegrees>
            </Position>
            <AltitudeMeters>125</AltitudeMeters>
            <DistanceMeters>NAN</DistanceMeters>
          </Trackpoint>
          <Trackpoint>
            <Time>2021-08-11T12:36:04.000Z</Time>
            <Position>
              <LatitudeDegrees>43.3115757443010807037353515625</LatitudeDegrees>
              <LongitudeDegrees>-1.8194344080984592437744140625</LongitudeDegrees>
            </Position>
            <AltitudeMeters>125.40000152587890625</AltitudeMeters>
            <DistanceMeters>NAN</DistanceMeters>
          </Trackpoint>
          <Trackpoint>
            <Time>2021-08-11T12:36:05.000Z</Time>
            <Position>
              <LatitudeDegrees>43.31156275235116481781005859375</LatitudeDegrees>
              <LongitudeDegrees>-1.81946349330246448516845703125</LongitudeDegrees>
            </Position>
            <AltitudeMeters>125.8000030517578125</AltitudeMeters>
            <DistanceMeters>NAN</DistanceMeters>
          </Trackpoint>
          <Trackpoint>
            <Time>2021-08-11T12:36:06.000Z</Time>
            <Position>
              <LatitudeDegrees>43.31155336461961269378662109375</LatitudeDegrees>
              <LongitudeDegrees>-1.81949936784803867340087890625</LongitudeDegrees>
            </Position>
            <AltitudeMeters>126</AltitudeMeters>
            <DistanceMeters>NAN</DistanceMeters>
          </Trackpoint>
          <Trackpoint>
            <Time>2021-08-11T12:36:07.000Z</Time>
            <Position>
              <LatitudeDegrees>43.31154749728739261627197265625</LatitudeDegrees>
              <LongitudeDegrees>-1.81953339837491512298583984375</LongitudeDegrees>
            </Position>
            <AltitudeMeters>126.1999969482421875</AltitudeMeters>
            <DistanceMeters>NAN</DistanceMeters>
          </Trackpoint>
          <Trackpoint>
            <Time>2021-08-11T12:36:08.000Z</Time>
            <Position>
              <LatitudeDegrees>43.31153559498488903045654296875</LatitudeDegrees>
              <LongitudeDegrees>-1.81956290267407894134521484375</LongitudeDegrees>
            </Position>
            <AltitudeMeters>126.8000030517578125</AltitudeMeters>
            <DistanceMeters>NAN</DistanceMeters>
          </Trackpoint>
          <Trackpoint>
            <Time>2021-08-11T12:36:09.000Z</Time>
            <Position>
              <LatitudeDegrees>43.3115241117775440216064453125</LatitudeDegrees>
              <LongitudeDegrees>-1.819591484963893890380859375</LongitudeDegrees>
            </Position>
            <AltitudeMeters>127</AltitudeMeters>
            <DistanceMeters>NAN</DistanceMeters>
          </Trackpoint>
          <Trackpoint>
            <Time>2021-08-11T12:36:10.000Z</Time>
            <Position>
              <LatitudeDegrees>43.31150357611477375030517578125</LatitudeDegrees>
              <LongitudeDegrees>-1.819624342024326324462890625</LongitudeDegrees>
            </Position>
            <AltitudeMeters>127.40000152587890625</AltitudeMeters>
            <DistanceMeters>NAN</DistanceMeters>
          </Trackpoint>
          <Trackpoint>
            <Time>2021-08-11T12:36:11.000Z</Time>
            <Position>
              <LatitudeDegrees>43.311480693519115447998046875</LatitudeDegrees>
              <LongitudeDegrees>-1.819655857980251312255859375</LongitudeDegrees>
            </Position>
            <AltitudeMeters>127.40000152587890625</AltitudeMeters>
            <DistanceMeters>NAN</DistanceMeters>
          </Trackpoint>
          <Trackpoint>
            <Time>2021-08-11T12:36:12.000Z</Time>
            <Position>
              <LatitudeDegrees>43.31146501936018466949462890625</LatitudeDegrees>
              <LongitudeDegrees>-1.819690056145191192626953125</LongitudeDegrees>
            </Position>
            <AltitudeMeters>127.59999847412109375</AltitudeMeters>
            <DistanceMeters>NAN</DistanceMeters>
          </Trackpoint>
          <Trackpoint>
            <Time>2021-08-11T12:36:13.000Z</Time>
            <Position>
              <LatitudeDegrees>43.3114506863057613372802734375</LatitudeDegrees>
              <LongitudeDegrees>-1.819730289280414581298828125</LongitudeDegrees>
            </Position>
            <AltitudeMeters>128</AltitudeMeters>
            <DistanceMeters>NAN</DistanceMeters>
          </Trackpoint>
          <Trackpoint>
            <Time>2021-08-11T12:36:14.000Z</Time>
            <Position>
              <LatitudeDegrees>43.3114369399845600128173828125</LatitudeDegrees>
              <LongitudeDegrees>-1.8197629787027835845947265625</LongitudeDegrees>
            </Position>
            <AltitudeMeters>128.1999969482421875</AltitudeMeters>
            <DistanceMeters>NAN</DistanceMeters>
          </Trackpoint>
          <Trackpoint>
            <Time>2021-08-11T12:36:15.000Z</Time>
            <Position>
              <LatitudeDegrees>43.3114211820065975189208984375</LatitudeDegrees>
              <LongitudeDegrees>-1.81979424320161342620849609375</LongitudeDegrees>
            </Position>
            <AltitudeMeters>128.1999969482421875</AltitudeMeters>
            <DistanceMeters>NAN</DistanceMeters>
          </Trackpoint>
          <Trackpoint>
            <Time>2021-08-11T12:36:16.000Z</Time>
            <Position>
              <LatitudeDegrees>43.31140466965734958648681640625</LatitudeDegrees>
              <LongitudeDegrees>-1.81982844136655330657958984375</LongitudeDegrees>
            </Position>
            <AltitudeMeters>128.399993896484375</AltitudeMeters>
            <DistanceMeters>NAN</DistanceMeters>
          </Trackpoint>
          <Trackpoint>
            <Time>2021-08-11T12:36:17.000Z</Time>
            <Position>
              <LatitudeDegrees>43.31138891167938709259033203125</LatitudeDegrees>
              <LongitudeDegrees>-1.81985802948474884033203125</LongitudeDegrees>
            </Position>
            <AltitudeMeters>128.600006103515625</AltitudeMeters>
            <DistanceMeters>NAN</DistanceMeters>
          </Trackpoint>
          <Trackpoint>
            <Time>2021-08-11T12:36:18.000Z</Time>
            <Position>
              <LatitudeDegrees>43.31136980094015598297119140625</LatitudeDegrees>
              <LongitudeDegrees>-1.819897592067718505859375</LongitudeDegrees>
            </Position>
            <AltitudeMeters>128.8000030517578125</AltitudeMeters>
            <DistanceMeters>NAN</DistanceMeters>
          </Trackpoint>
          <Trackpoint>
            <Time>2021-08-11T12:36:19.000Z</Time>
            <Position>
              <LatitudeDegrees>43.3113561384379863739013671875</LatitudeDegrees>
              <LongitudeDegrees>-1.819922737777233123779296875</LongitudeDegrees>
            </Position>
            <AltitudeMeters>129</AltitudeMeters>
            <DistanceMeters>NAN</DistanceMeters>
          </Trackpoint>
          <Trackpoint>
            <Time>2021-08-11T12:36:20.000Z</Time>
            <Position>
              <LatitudeDegrees>43.31134079955518245697021484375</LatitudeDegrees>
              <LongitudeDegrees>-1.81995618157088756561279296875</LongitudeDegrees>
            </Position>
            <AltitudeMeters>129</AltitudeMeters>
            <DistanceMeters>NAN</DistanceMeters>
          </Trackpoint>
          <Trackpoint>
            <Time>2021-08-11T12:36:21.000Z</Time>
            <Position>
              <LatitudeDegrees>43.311326801776885986328125</LatitudeDegrees>
              <LongitudeDegrees>-1.81998702697455883026123046875</LongitudeDegrees>
            </Position>
            <AltitudeMeters>129.1999969482421875</AltitudeMeters>
            <DistanceMeters>NAN</DistanceMeters>
          </Trackpoint>
          <Trackpoint>
            <Time>2021-08-11T12:36:22.000Z</Time>
            <Position>
              <LatitudeDegrees>43.3113148994743824005126953125</LatitudeDegrees>
              <LongitudeDegrees>-1.82002021931111812591552734375</LongitudeDegrees>
            </Position>
            <AltitudeMeters>129.399993896484375</AltitudeMeters>
            <DistanceMeters>NAN</DistanceMeters>
          </Trackpoint>
          <Trackpoint>
            <Time>2021-08-11T12:36:23.000Z</Time>
            <Position>
              <LatitudeDegrees>43.3113008178770542144775390625</LatitudeDegrees>
              <LongitudeDegrees>-1.82005207054316997528076171875</LongitudeDegrees>
            </Position>
            <AltitudeMeters>129.600006103515625</AltitudeMeters>
            <DistanceMeters>NAN</DistanceMeters>
          </Trackpoint>
          <Trackpoint>
            <Time>2021-08-11T12:36:24.000Z</Time>
            <Position>
              <LatitudeDegrees>43.31128858029842376708984375</LatitudeDegrees>
              <LongitudeDegrees>-1.82008358649909496307373046875</LongitudeDegrees>
            </Position>
            <AltitudeMeters>129.600006103515625</AltitudeMeters>
            <DistanceMeters>NAN</DistanceMeters>
          </Trackpoint>
          <Trackpoint>
            <Time>2021-08-11T12:36:25.000Z</Time>
            <Position>
              <LatitudeDegrees>43.311278857290744781494140625</LatitudeDegrees>
              <LongitudeDegrees>-1.82011795230209827423095703125</LongitudeDegrees>
            </Position>
            <AltitudeMeters>129.8000030517578125</AltitudeMeters>
            <DistanceMeters>NAN</DistanceMeters>
          </Trackpoint>
          <Trackpoint>
            <Time>2021-08-11T12:36:26.000Z</Time>
            <Position>
              <LatitudeDegrees>43.31126485951244831085205078125</LatitudeDegrees>
              <LongitudeDegrees>-1.82015416212379932403564453125</LongitudeDegrees>
            </Position>
            <AltitudeMeters>129.8000030517578125</AltitudeMeters>
            <DistanceMeters>NAN</DistanceMeters>
          </Trackpoint>
          <Trackpoint>
            <Time>2021-08-11T12:36:27.000Z</Time>
            <Position>
              <LatitudeDegrees>43.311248011887073516845703125</LatitudeDegrees>
              <LongitudeDegrees>-1.82019188068807125091552734375</LongitudeDegrees>
            </Position>
            <AltitudeMeters>130</AltitudeMeters>
            <DistanceMeters>NAN</DistanceMeters>
          </Trackpoint>
          <Trackpoint>
            <Time>2021-08-11T12:36:28.000Z</Time>
            <Position>
              <LatitudeDegrees>43.31123166717588901519775390625</LatitudeDegrees>
              <LongitudeDegrees>-1.82022674940526485443115234375</LongitudeDegrees>
            </Position>
            <AltitudeMeters>130</AltitudeMeters>
            <DistanceMeters>NAN</DistanceMeters>
          </Trackpoint>
          <Trackpoint>
            <Time>2021-08-11T12:36:29.000Z</Time>
            <Position>
              <LatitudeDegrees>43.31121523864567279815673828125</LatitudeDegrees>
              <LongitudeDegrees>-1.82026036083698272705078125</LongitudeDegrees>
            </Position>
            <AltitudeMeters>130</AltitudeMeters>
            <DistanceMeters>NAN</DistanceMeters>
          </Trackpoint>
          <Trackpoint>
            <Time>2021-08-11T12:36:30.000Z</Time>
            <Position>
              <LatitudeDegrees>43.31120006740093231201171875</LatitudeDegrees>
              <LongitudeDegrees>-1.8202959001064300537109375</LongitudeDegrees>
            </Position>
            <AltitudeMeters>130</AltitudeMeters>
            <DistanceMeters>NAN</DistanceMeters>
          </Trackpoint>
          <Trackpoint>
            <Time>2021-08-11T12:36:31.000Z</Time>
            <Position>
              <LatitudeDegrees>43.31118774600327014923095703125</LatitudeDegrees>
              <LongitudeDegrees>-1.8203332833945751190185546875</LongitudeDegrees>
            </Position>
            <AltitudeMeters>130.1999969482421875</AltitudeMeters>
            <DistanceMeters>NAN</DistanceMeters>
          </Trackpoint>
          <Trackpoint>
            <Time>2021-08-11T12:36:32.000Z</Time>
            <Position>
              <LatitudeDegrees>43.31117651425302028656005859375</LatitudeDegrees>
              <LongitudeDegrees>-1.82037192396819591522216796875</LongitudeDegrees>
            </Position>
            <AltitudeMeters>130.1999969482421875</AltitudeMeters>
            <DistanceMeters>NAN</DistanceMeters>
          </Trackpoint>
          <Trackpoint>
            <Time>2021-08-11T12:36:33.000Z</Time>
            <Position>
              <LatitudeDegrees>43.3111640252172946929931640625</LatitudeDegrees>
              <LongitudeDegrees>-1.8204114027321338653564453125</LongitudeDegrees>
            </Position>
            <AltitudeMeters>130.1999969482421875</AltitudeMeters>
            <DistanceMeters>NAN</DistanceMeters>
          </Trackpoint>
          <Trackpoint>
            <Time>2021-08-11T12:36:34.000Z</Time>
            <Position>
              <LatitudeDegrees>43.3111479319632053375244140625</LatitudeDegrees>
              <LongitudeDegrees>-1.8204536475241184234619140625</LongitudeDegrees>
            </Position>
            <AltitudeMeters>130.1999969482421875</AltitudeMeters>
            <DistanceMeters>NAN</DistanceMeters>
          </Trackpoint>
          <Trackpoint>
            <Time>2021-08-11T12:36:35.000Z</Time>
            <Position>
              <LatitudeDegrees>43.3111323416233062744140625</LatitudeDegrees>
              <LongitudeDegrees>-1.82049195282161235809326171875</LongitudeDegrees>
            </Position>
            <AltitudeMeters>130.1999969482421875</AltitudeMeters>
            <DistanceMeters>NAN</DistanceMeters>
          </Trackpoint>
          <Trackpoint>
            <Time>2021-08-11T12:36:36.000Z</Time>
            <Position>
              <LatitudeDegrees>43.3111180923879146575927734375</LatitudeDegrees>
              <LongitudeDegrees>-1.82053126394748687744140625</LongitudeDegrees>
            </Position>
            <AltitudeMeters>130.1999969482421875</AltitudeMeters>
            <DistanceMeters>NAN</DistanceMeters>
          </Trackpoint>
          <Trackpoint>
            <Time>2021-08-11T12:36:37.000Z</Time>
            <Position>
              <LatitudeDegrees>43.31110141240060329437255859375</LatitudeDegrees>
              <LongitudeDegrees>-1.82056839577853679656982421875</LongitudeDegrees>
            </Position>
            <AltitudeMeters>130.1999969482421875</AltitudeMeters>
            <DistanceMeters>NAN</DistanceMeters>
          </Trackpoint>
          <Trackpoint>
            <Time>2021-08-11T12:36:38.000Z</Time>
            <Position>
              <LatitudeDegrees>43.3110838942229747772216796875</LatitudeDegrees>
              <LongitudeDegrees>-1.82059790007770061492919921875</LongitudeDegrees>
            </Position>
            <AltitudeMeters>130.1999969482421875</AltitudeMeters>
            <DistanceMeters>NAN</DistanceMeters>
          </Trackpoint>
          <Trackpoint>
            <Time>2021-08-11T12:36:39.000Z</Time>
            <Position>
              <LatitudeDegrees>43.31106922589242458343505859375</LatitudeDegrees>
              <LongitudeDegrees>-1.820626817643642425537109375</LongitudeDegrees>
            </Position>
            <AltitudeMeters>130.1999969482421875</AltitudeMeters>
            <DistanceMeters>NAN</DistanceMeters>
          </Trackpoint>
          <Trackpoint>
            <Time>2021-08-11T12:36:40.000Z</Time>
            <Position>
              <LatitudeDegrees>43.31105547957122325897216796875</LatitudeDegrees>
              <LongitudeDegrees>-1.8206595070660114288330078125</LongitudeDegrees>
            </Position>
            <AltitudeMeters>130.1999969482421875</AltitudeMeters>
            <DistanceMeters>NAN</DistanceMeters>
          </Trackpoint>
          <Trackpoint>
            <Time>2021-08-11T12:36:41.000Z</Time>
            <Position>
              <LatitudeDegrees>43.3110389672219753265380859375</LatitudeDegrees>
              <LongitudeDegrees>-1.820694543421268463134765625</LongitudeDegrees>
            </Position>
            <AltitudeMeters>130.1999969482421875</AltitudeMeters>
            <DistanceMeters>NAN</DistanceMeters>
          </Trackpoint>
          <Trackpoint>
            <Time>2021-08-11T12:36:42.000Z</Time>
            <Position>
              <LatitudeDegrees>43.311021365225315093994140625</LatitudeDegrees>
              <LongitudeDegrees>-1.820727400481700897216796875</LongitudeDegrees>
            </Position>
            <AltitudeMeters>130.399993896484375</AltitudeMeters>
            <DistanceMeters>NAN</DistanceMeters>
          </Trackpoint>
          <Trackpoint>
            <Time>2021-08-11T12:36:43.000Z</Time>
            <Position>
              <LatitudeDegrees>43.3110061101615428924560546875</LatitudeDegrees>
              <LongitudeDegrees>-1.82075682096183300018310546875</LongitudeDegrees>
            </Position>
            <AltitudeMeters>130.399993896484375</AltitudeMeters>
            <DistanceMeters>NAN</DistanceMeters>
          </Trackpoint>
          <Trackpoint>
            <Time>2021-08-11T12:36:44.000Z</Time>
            <Position>
              <LatitudeDegrees>43.31098976545035839080810546875</LatitudeDegrees>
              <LongitudeDegrees>-1.82078867219388484954833984375</LongitudeDegrees>
            </Position>
            <AltitudeMeters>130.399993896484375</AltitudeMeters>
            <DistanceMeters>NAN</DistanceMeters>
          </Trackpoint>
          <Trackpoint>
            <Time>2021-08-11T12:36:45.000Z</Time>
            <Position>
              <LatitudeDegrees>43.31097367219626903533935546875</LatitudeDegrees>
              <LongitudeDegrees>-1.82081834413111209869384765625</LongitudeDegrees>
            </Position>
            <AltitudeMeters>130.399993896484375</AltitudeMeters>
            <DistanceMeters>NAN</DistanceMeters>
          </Trackpoint>
          <Trackpoint>
            <Time>2021-08-11T12:36:46.000Z</Time>
            <Position>
              <LatitudeDegrees>43.3109571598470211029052734375</LatitudeDegrees>
              <LongitudeDegrees>-1.82085086591541767120361328125</LongitudeDegrees>
            </Position>
            <AltitudeMeters>130.399993896484375</AltitudeMeters>
            <DistanceMeters>NAN</DistanceMeters>
          </Trackpoint>
          <Trackpoint>
            <Time>2021-08-11T12:36:47.000Z</Time>
            <Position>
              <LatitudeDegrees>43.3109397254884243011474609375</LatitudeDegrees>
              <LongitudeDegrees>-1.82088590227067470550537109375</LongitudeDegrees>
            </Position>
            <AltitudeMeters>130.399993896484375</AltitudeMeters>
            <DistanceMeters>NAN</DistanceMeters>
          </Trackpoint>
          <Trackpoint>
            <Time>2021-08-11T12:36:48.000Z</Time>
            <Position>
              <LatitudeDegrees>43.31091835163533687591552734375</LatitudeDegrees>
              <LongitudeDegrees>-1.820921860635280609130859375</LongitudeDegrees>
            </Position>
            <AltitudeMeters>130.399993896484375</AltitudeMeters>
            <DistanceMeters>NAN</DistanceMeters>
          </Trackpoint>
          <Trackpoint>
            <Time>2021-08-11T12:36:53.000Z</Time>
            <Position>
              <LatitudeDegrees>43.31080536358058452606201171875</LatitudeDegrees>
              <LongitudeDegrees>-1.82105018757283687591552734375</LongitudeDegrees>
            </Position>
            <AltitudeMeters>130.8000030517578125</AltitudeMeters>
            <DistanceMeters>NAN</DistanceMeters>
          </Trackpoint>
          <Trackpoint>
            <Time>2021-08-11T12:36:59.000Z</Time>
            <Position>
              <LatitudeDegrees>43.310680054128170013427734375</LatitudeDegrees>
              <LongitudeDegrees>-1.82120944373309612274169921875</LongitudeDegrees>
            </Position>
            <AltitudeMeters>131</AltitudeMeters>
            <DistanceMeters>NAN</DistanceMeters>
          </Trackpoint>
          <Trackpoint>
            <Time>2021-08-11T12:37:01.000Z</Time>
            <Position>
              <LatitudeDegrees>43.31064443103969097137451171875</LatitudeDegrees>
              <LongitudeDegrees>-1.82127716951072216033935546875</LongitudeDegrees>
            </Position>
            <AltitudeMeters>131.1999969482421875</AltitudeMeters>
            <DistanceMeters>NAN</DistanceMeters>
          </Trackpoint>
          <Trackpoint>
            <Time>2021-08-11T12:37:03.000Z</Time>
            <Position>
              <LatitudeDegrees>43.3106218837201595306396484375</LatitudeDegrees>
              <LongitudeDegrees>-1.821367777884006500244140625</LongitudeDegrees>
            </Position>
            <AltitudeMeters>131.399993896484375</AltitudeMeters>
            <DistanceMeters>NAN</DistanceMeters>
          </Trackpoint>
          <Trackpoint>
            <Time>2021-08-11T12:37:04.000Z</Time>
            <Position>
              <LatitudeDegrees>43.31061760894954204559326171875</LatitudeDegrees>
              <LongitudeDegrees>-1.821410357952117919921875</LongitudeDegrees>
            </Position>
            <AltitudeMeters>131.600006103515625</AltitudeMeters>
            <DistanceMeters>NAN</DistanceMeters>
          </Trackpoint>
          <Trackpoint>
            <Time>2021-08-11T12:37:06.000Z</Time>
            <Position>
              <LatitudeDegrees>43.3106128312647342681884765625</LatitudeDegrees>
              <LongitudeDegrees>-1.82150079868733882904052734375</LongitudeDegrees>
            </Position>
            <AltitudeMeters>131.8000030517578125</AltitudeMeters>
            <DistanceMeters>NAN</DistanceMeters>
          </Trackpoint>
          <Trackpoint>
            <Time>2021-08-11T12:37:11.000Z</Time>
            <Position>
              <LatitudeDegrees>43.31058827228844165802001953125</LatitudeDegrees>
              <LongitudeDegrees>-1.82170850224792957305908203125</LongitudeDegrees>
            </Position>
            <AltitudeMeters>132</AltitudeMeters>
            <DistanceMeters>NAN</DistanceMeters>
          </Trackpoint>
          <Trackpoint>
            <Time>2021-08-11T12:37:13.000Z</Time>
            <Position>
              <LatitudeDegrees>43.31057511270046234130859375</LatitudeDegrees>
              <LongitudeDegrees>-1.8217954225838184356689453125</LongitudeDegrees>
            </Position>
            <AltitudeMeters>132.1999969482421875</AltitudeMeters>
            <DistanceMeters>NAN</DistanceMeters>
          </Trackpoint>
          <Trackpoint>
            <Time>2021-08-11T12:37:21.000Z</Time>
            <Position>
              <LatitudeDegrees>43.31053647212684154510498046875</LatitudeDegrees>
              <LongitudeDegrees>-1.82212491519749164581298828125</LongitudeDegrees>
            </Position>
            <AltitudeMeters>133</AltitudeMeters>
            <DistanceMeters>NAN</DistanceMeters>
          </Trackpoint>
          <Trackpoint>
            <Time>2021-08-11T12:37:22.000Z</Time>
            <Position>
              <LatitudeDegrees>43.31053261645138263702392578125</LatitudeDegrees>
              <LongitudeDegrees>-1.82217403315007686614990234375</LongitudeDegrees>
            </Position>
            <AltitudeMeters>133.1999969482421875</AltitudeMeters>
            <DistanceMeters>NAN</DistanceMeters>
          </Trackpoint>
          <Trackpoint>
            <Time>2021-08-11T12:37:30.000Z</Time>
            <Position>
              <LatitudeDegrees>43.31048752181231975555419921875</LatitudeDegrees>
              <LongitudeDegrees>-1.82249061763286590576171875</LongitudeDegrees>
            </Position>
            <AltitudeMeters>134</AltitudeMeters>
            <DistanceMeters>NAN</DistanceMeters>
          </Trackpoint>
          <Trackpoint>
            <Time>2021-08-11T12:37:31.000Z</Time>
            <Position>
              <LatitudeDegrees>43.31048282794654369354248046875</LatitudeDegrees>
              <LongitudeDegrees>-1.8225390650331974029541015625</LongitudeDegrees>
            </Position>
            <AltitudeMeters>134.1999969482421875</AltitudeMeters>
            <DistanceMeters>NAN</DistanceMeters>
          </Trackpoint>
          <Trackpoint>
            <Time>2021-08-11T12:37:33.000Z</Time>
            <Position>
              <LatitudeDegrees>43.31047813408076763153076171875</LatitudeDegrees>
              <LongitudeDegrees>-1.822609640657901763916015625</LongitudeDegrees>
            </Position>
            <AltitudeMeters>134.399993896484375</AltitudeMeters>
            <DistanceMeters>NAN</DistanceMeters>
          </Trackpoint>
          <Trackpoint>
            <Time>2021-08-11T12:37:34.000Z</Time>
            <Position>
              <LatitudeDegrees>43.31047528423368930816650390625</LatitudeDegrees>
              <LongitudeDegrees>-1.82264777831733226776123046875</LongitudeDegrees>
            </Position>
            <AltitudeMeters>134.600006103515625</AltitudeMeters>
            <DistanceMeters>NAN</DistanceMeters>
          </Trackpoint>
          <Trackpoint>
            <Time>2021-08-11T12:37:35.000Z</Time>
            <Position>
              <LatitudeDegrees>43.31047092564404010772705078125</LatitudeDegrees>
              <LongitudeDegrees>-1.8226859159767627716064453125</LongitudeDegrees>
            </Position>
            <AltitudeMeters>134.600006103515625</AltitudeMeters>
            <DistanceMeters>NAN</DistanceMeters>
          </Trackpoint>
          <Trackpoint>
            <Time>2021-08-11T12:37:36.000Z</Time>
            <Position>
              <LatitudeDegrees>43.31046556122601032257080078125</LatitudeDegrees>
              <LongitudeDegrees>-1.822733022272586822509765625</LongitudeDegrees>
            </Position>
            <AltitudeMeters>135</AltitudeMeters>
            <DistanceMeters>NAN</DistanceMeters>
          </Trackpoint>
          <Trackpoint>
            <Time>2021-08-11T12:37:37.000Z</Time>
            <Position>
              <LatitudeDegrees>43.31046472303569316864013671875</LatitudeDegrees>
              <LongitudeDegrees>-1.82275976054370403289794921875</LongitudeDegrees>
            </Position>
            <AltitudeMeters>135</AltitudeMeters>
            <DistanceMeters>NAN</DistanceMeters>
          </Trackpoint>
          <Trackpoint>
            <Time>2021-08-11T12:37:38.000Z</Time>
            <Position>
              <LatitudeDegrees>43.31046589650213718414306640625</LatitudeDegrees>
              <LongitudeDegrees>-1.82279328815639019012451171875</LongitudeDegrees>
            </Position>
            <AltitudeMeters>135.399993896484375</AltitudeMeters>
            <DistanceMeters>NAN</DistanceMeters>
          </Trackpoint>
          <Trackpoint>
            <Time>2021-08-11T12:37:39.000Z</Time>
            <Position>
              <LatitudeDegrees>43.310467489063739776611328125</LatitudeDegrees>
              <LongitudeDegrees>-1.82282413356006145477294921875</LongitudeDegrees>
            </Position>
            <AltitudeMeters>135.600006103515625</AltitudeMeters>
            <DistanceMeters>NAN</DistanceMeters>
          </Trackpoint>
          <Trackpoint>
            <Time>2021-08-11T12:37:40.000Z</Time>
            <Position>
              <LatitudeDegrees>43.310469500720500946044921875</LatitudeDegrees>
              <LongitudeDegrees>-1.82285162620246410369873046875</LongitudeDegrees>
            </Position>
            <AltitudeMeters>135.600006103515625</AltitudeMeters>
            <DistanceMeters>NAN</DistanceMeters>
          </Trackpoint>
          <Trackpoint>
            <Time>2021-08-11T12:37:41.000Z</Time>
            <Position>
              <LatitudeDegrees>43.310472182929515838623046875</LatitudeDegrees>
              <LongitudeDegrees>-1.82288012467324733734130859375</LongitudeDegrees>
            </Position>
            <AltitudeMeters>135.8000030517578125</AltitudeMeters>
            <DistanceMeters>NAN</DistanceMeters>
          </Trackpoint>
          <Trackpoint>
            <Time>2021-08-11T12:37:42.000Z</Time>
            <Position>
              <LatitudeDegrees>43.310474865138530731201171875</LatitudeDegrees>
              <LongitudeDegrees>-1.82290912605822086334228515625</LongitudeDegrees>
            </Position>
            <AltitudeMeters>136</AltitudeMeters>
            <DistanceMeters>NAN</DistanceMeters>
          </Trackpoint>
          <Trackpoint>
            <Time>2021-08-11T12:37:43.000Z</Time>
            <Position>
              <LatitudeDegrees>43.3104810677468776702880859375</LatitudeDegrees>
              <LongitudeDegrees>-1.82293846271932125091552734375</LongitudeDegrees>
            </Position>
            <AltitudeMeters>136.1999969482421875</AltitudeMeters>
            <DistanceMeters>NAN</DistanceMeters>
          </Trackpoint>
          <Trackpoint>
            <Time>2021-08-11T12:37:44.000Z</Time>
            <Position>
              <LatitudeDegrees>43.310487605631351470947265625</LatitudeDegrees>
              <LongitudeDegrees>-1.8229682184755802154541015625</LongitudeDegrees>
            </Position>
            <AltitudeMeters>136.399993896484375</AltitudeMeters>
            <DistanceMeters>NAN</DistanceMeters>
          </Trackpoint>
          <Trackpoint>
            <Time>2021-08-11T12:37:45.000Z</Time>
            <Position>
              <LatitudeDegrees>43.31048953346908092498779296875</LatitudeDegrees>
              <LongitudeDegrees>-1.82300266809761524200439453125</LongitudeDegrees>
            </Position>
            <AltitudeMeters>136.600006103515625</AltitudeMeters>
            <DistanceMeters>NAN</DistanceMeters>
          </Trackpoint>
          <Trackpoint>
            <Time>2021-08-11T12:37:46.000Z</Time>
            <Position>
              <LatitudeDegrees>43.31048416905105113983154296875</LatitudeDegrees>
              <LongitudeDegrees>-1.8230443261563777923583984375</LongitudeDegrees>
            </Position>
            <AltitudeMeters>136.600006103515625</AltitudeMeters>
            <DistanceMeters>NAN</DistanceMeters>
          </Trackpoint>
          <Trackpoint>
            <Time>2021-08-11T12:37:47.000Z</Time>
            <Position>
              <LatitudeDegrees>43.31047394312918186187744140625</LatitudeDegrees>
              <LongitudeDegrees>-1.82309168390929698944091796875</LongitudeDegrees>
            </Position>
            <AltitudeMeters>136.8000030517578125</AltitudeMeters>
            <DistanceMeters>NAN</DistanceMeters>
          </Trackpoint>
          <Trackpoint>
            <Time>2021-08-11T12:37:48.000Z</Time>
            <Position>
              <LatitudeDegrees>43.310462795197963714599609375</LatitudeDegrees>
              <LongitudeDegrees>-1.82314080186188220977783203125</LongitudeDegrees>
            </Position>
            <AltitudeMeters>136.8000030517578125</AltitudeMeters>
            <DistanceMeters>NAN</DistanceMeters>
          </Trackpoint>
          <Trackpoint>
            <Time>2021-08-11T12:37:49.000Z</Time>
            <Position>
              <LatitudeDegrees>43.310447372496128082275390625</LatitudeDegrees>
              <LongitudeDegrees>-1.82318371720612049102783203125</LongitudeDegrees>
            </Position>
            <AltitudeMeters>136.8000030517578125</AltitudeMeters>
            <DistanceMeters>NAN</DistanceMeters>
          </Trackpoint>
          <Trackpoint>
            <Time>2021-08-11T12:37:50.000Z</Time>
            <Position>
              <LatitudeDegrees>43.31043102778494358062744140625</LatitudeDegrees>
              <LongitudeDegrees>-1.82321883738040924072265625</LongitudeDegrees>
            </Position>
            <AltitudeMeters>137</AltitudeMeters>
            <DistanceMeters>NAN</DistanceMeters>
          </Trackpoint>
          <Trackpoint>
            <Time>2021-08-11T12:37:51.000Z</Time>
            <Position>
              <LatitudeDegrees>43.3104135096073150634765625</LatitudeDegrees>
              <LongitudeDegrees>-1.82325060479342937469482421875</LongitudeDegrees>
            </Position>
            <AltitudeMeters>137</AltitudeMeters>
            <DistanceMeters>NAN</DistanceMeters>
          </Trackpoint>
          <Trackpoint>
            <Time>2021-08-11T12:37:52.000Z</Time>
            <Position>
              <LatitudeDegrees>43.31039632670581340789794921875</LatitudeDegrees>
              <LongitudeDegrees>-1.8232830427587032318115234375</LongitudeDegrees>
            </Position>
            <AltitudeMeters>137</AltitudeMeters>
            <DistanceMeters>NAN</DistanceMeters>
          </Trackpoint>
          <Trackpoint>
            <Time>2021-08-11T12:37:53.000Z</Time>
            <Position>
              <LatitudeDegrees>43.31038157455623149871826171875</LatitudeDegrees>
              <LongitudeDegrees>-1.82331313379108905792236328125</LongitudeDegrees>
            </Position>
            <AltitudeMeters>137</AltitudeMeters>
            <DistanceMeters>NAN</DistanceMeters>
          </Trackpoint>
          <Trackpoint>
            <Time>2021-08-11T12:37:54.000Z</Time>
            <Position>
              <LatitudeDegrees>43.3103660680353641510009765625</LatitudeDegrees>
              <LongitudeDegrees>-1.8233428895473480224609375</LongitudeDegrees>
            </Position>
            <AltitudeMeters>137</AltitudeMeters>
            <DistanceMeters>NAN</DistanceMeters>
          </Trackpoint>
          <Trackpoint>
            <Time>2021-08-11T12:37:55.000Z</Time>
            <Position>
              <LatitudeDegrees>43.31035089679062366485595703125</LatitudeDegrees>
              <LongitudeDegrees>-1.82337214238941669464111328125</LongitudeDegrees>
            </Position>
            <AltitudeMeters>137</AltitudeMeters>
            <DistanceMeters>NAN</DistanceMeters>
          </Trackpoint>
          <Trackpoint>
            <Time>2021-08-11T12:37:56.000Z</Time>
            <Position>
              <LatitudeDegrees>43.31033782102167606353759765625</LatitudeDegrees>
              <LongitudeDegrees>-1.8233967013657093048095703125</LongitudeDegrees>
            </Position>
            <AltitudeMeters>137.1999969482421875</AltitudeMeters>
            <DistanceMeters>NAN</DistanceMeters>
          </Trackpoint>
          <Trackpoint>
            <Time>2021-08-11T12:37:57.000Z</Time>
            <Position>
              <LatitudeDegrees>43.31032491289079189300537109375</LatitudeDegrees>
              <LongitudeDegrees>-1.82342075742781162261962890625</LongitudeDegrees>
            </Position>
            <AltitudeMeters>137.1999969482421875</AltitudeMeters>
            <DistanceMeters>NAN</DistanceMeters>
          </Trackpoint>
          <Trackpoint>
            <Time>2021-08-11T12:37:58.000Z</Time>
            <Position>
              <LatitudeDegrees>43.31031921319663524627685546875</LatitudeDegrees>
              <LongitudeDegrees>-1.8234540335834026336669921875</LongitudeDegrees>
            </Position>
            <AltitudeMeters>137.1999969482421875</AltitudeMeters>
            <DistanceMeters>NAN</DistanceMeters>
          </Trackpoint>
          <Trackpoint>
            <Time>2021-08-11T12:37:59.000Z</Time>
            <Position>
              <LatitudeDegrees>43.31030965782701969146728515625</LatitudeDegrees>
              <LongitudeDegrees>-1.82348169386386871337890625</LongitudeDegrees>
            </Position>
            <AltitudeMeters>137.1999969482421875</AltitudeMeters>
            <DistanceMeters>NAN</DistanceMeters>
          </Trackpoint>
          <Trackpoint>
            <Time>2021-08-11T12:38:00.000Z</Time>
            <Position>
              <LatitudeDegrees>43.3102996833622455596923828125</LatitudeDegrees>
              <LongitudeDegrees>-1.82350717484951019287109375</LongitudeDegrees>
            </Position>
            <AltitudeMeters>137.1999969482421875</AltitudeMeters>
            <DistanceMeters>NAN</DistanceMeters>
          </Trackpoint>
          <Trackpoint>
            <Time>2021-08-11T12:38:01.000Z</Time>
            <Position>
              <LatitudeDegrees>43.31029105000197887420654296875</LatitudeDegrees>
              <LongitudeDegrees>-1.8235334940254688262939453125</LongitudeDegrees>
            </Position>
            <AltitudeMeters>137.399993896484375</AltitudeMeters>
            <DistanceMeters>NAN</DistanceMeters>
          </Trackpoint>
          <Trackpoint>
            <Time>2021-08-11T12:38:02.000Z</Time>
            <Position>
              <LatitudeDegrees>43.31028199754655361175537109375</LatitudeDegrees>
              <LongitudeDegrees>-1.8235583044588565826416015625</LongitudeDegrees>
            </Position>
            <AltitudeMeters>137.600006103515625</AltitudeMeters>
            <DistanceMeters>NAN</DistanceMeters>
          </Trackpoint>
          <Trackpoint>
            <Time>2021-08-11T12:38:03.000Z</Time>
            <Position>
              <LatitudeDegrees>43.310272358357906341552734375</LatitudeDegrees>
              <LongitudeDegrees>-1.8235821090638637542724609375</LongitudeDegrees>
            </Position>
            <AltitudeMeters>137.8000030517578125</AltitudeMeters>
            <DistanceMeters>NAN</DistanceMeters>
          </Trackpoint>
          <Trackpoint>
            <Time>2021-08-11T12:38:04.000Z</Time>
            <Position>
              <LatitudeDegrees>43.3102634735405445098876953125</LatitudeDegrees>
              <LongitudeDegrees>-1.823608763515949249267578125</LongitudeDegrees>
            </Position>
            <AltitudeMeters>138.1999969482421875</AltitudeMeters>
            <DistanceMeters>NAN</DistanceMeters>
          </Trackpoint>
          <Trackpoint>
            <Time>2021-08-11T12:38:05.000Z</Time>
            <Position>
              <LatitudeDegrees>43.3102550916373729705810546875</LatitudeDegrees>
              <LongitudeDegrees>-1.8236337415874004364013671875</LongitudeDegrees>
            </Position>
            <AltitudeMeters>138.399993896484375</AltitudeMeters>
            <DistanceMeters>NAN</DistanceMeters>
          </Trackpoint>
          <Trackpoint>
            <Time>2021-08-11T12:38:06.000Z</Time>
            <Position>
              <LatitudeDegrees>43.31024612300097942352294921875</LatitudeDegrees>
              <LongitudeDegrees>-1.82366148568689823150634765625</LongitudeDegrees>
            </Position>
            <AltitudeMeters>138.8000030517578125</AltitudeMeters>
            <DistanceMeters>NAN</DistanceMeters>
          </Trackpoint>
          <Trackpoint>
            <Time>2021-08-11T12:38:07.000Z</Time>
            <Position>
              <LatitudeDegrees>43.31023891456425189971923828125</LatitudeDegrees>
              <LongitudeDegrees>-1.82368151843547821044921875</LongitudeDegrees>
            </Position>
            <AltitudeMeters>139</AltitudeMeters>
            <DistanceMeters>NAN</DistanceMeters>
          </Trackpoint>
          <Trackpoint>
            <Time>2021-08-11T12:38:08.000Z</Time>
            <Position>
              <LatitudeDegrees>43.31022952683269977569580078125</LatitudeDegrees>
              <LongitudeDegrees>-1.82370741851627826690673828125</LongitudeDegrees>
            </Position>
            <AltitudeMeters>139.1999969482421875</AltitudeMeters>
            <DistanceMeters>NAN</DistanceMeters>
          </Trackpoint>
          <Trackpoint>
            <Time>2021-08-11T12:38:09.000Z</Time>
            <Position>
              <LatitudeDegrees>43.3102208934724330902099609375</LatitudeDegrees>
              <LongitudeDegrees>-1.82373323477804660797119140625</LongitudeDegrees>
            </Position>
            <AltitudeMeters>139.8000030517578125</AltitudeMeters>
            <DistanceMeters>NAN</DistanceMeters>
          </Trackpoint>
          <Trackpoint>
            <Time>2021-08-11T12:38:10.000Z</Time>
            <Position>
              <LatitudeDegrees>43.31021477468311786651611328125</LatitudeDegrees>
              <LongitudeDegrees>-1.82375653646886348724365234375</LongitudeDegrees>
            </Position>
            <AltitudeMeters>140</AltitudeMeters>
            <DistanceMeters>NAN</DistanceMeters>
          </Trackpoint>
          <Trackpoint>
            <Time>2021-08-11T12:38:11.000Z</Time>
            <Position>
              <LatitudeDegrees>43.3102048002183437347412109375</LatitudeDegrees>
              <LongitudeDegrees>-1.82378654368221759796142578125</LongitudeDegrees>
            </Position>
            <AltitudeMeters>140.1999969482421875</AltitudeMeters>
            <DistanceMeters>NAN</DistanceMeters>
          </Trackpoint>
          <Trackpoint>
            <Time>2021-08-11T12:38:12.000Z</Time>
            <Position>
              <LatitudeDegrees>43.31019549630582332611083984375</LatitudeDegrees>
              <LongitudeDegrees>-1.8238127790391445159912109375</LongitudeDegrees>
            </Position>
            <AltitudeMeters>140.399993896484375</AltitudeMeters>
            <DistanceMeters>NAN</DistanceMeters>
          </Trackpoint>
          <Trackpoint>
            <Time>2021-08-11T12:38:13.000Z</Time>
            <Position>
              <LatitudeDegrees>43.310190550982952117919921875</LatitudeDegrees>
              <LongitudeDegrees>-1.8238332308828830718994140625</LongitudeDegrees>
            </Position>
            <AltitudeMeters>140.8000030517578125</AltitudeMeters>
            <DistanceMeters>NAN</DistanceMeters>
          </Trackpoint>
          <Trackpoint>
            <Time>2021-08-11T12:38:14.000Z</Time>
            <Position>
              <LatitudeDegrees>43.3101836778223514556884765625</LatitudeDegrees>
              <LongitudeDegrees>-1.82386013679206371307373046875</LongitudeDegrees>
            </Position>
            <AltitudeMeters>141</AltitudeMeters>
            <DistanceMeters>NAN</DistanceMeters>
          </Trackpoint>
          <Trackpoint>
            <Time>2021-08-11T12:38:15.000Z</Time>
            <Position>
              <LatitudeDegrees>43.3101759664714336395263671875</LatitudeDegrees>
              <LongitudeDegrees>-1.8238811753690242767333984375</LongitudeDegrees>
            </Position>
            <AltitudeMeters>141.1999969482421875</AltitudeMeters>
            <DistanceMeters>NAN</DistanceMeters>
          </Trackpoint>
          <Trackpoint>
            <Time>2021-08-11T12:38:16.000Z</Time>
            <Position>
              <LatitudeDegrees>43.31016599200665950775146484375</LatitudeDegrees>
              <LongitudeDegrees>-1.82390506379306316375732421875</LongitudeDegrees>
            </Position>
            <AltitudeMeters>141.600006103515625</AltitudeMeters>
            <DistanceMeters>NAN</DistanceMeters>
          </Trackpoint>
          <Trackpoint>
            <Time>2021-08-11T12:38:17.000Z</Time>
            <Position>
              <LatitudeDegrees>43.31015777774155139923095703125</LatitudeDegrees>
              <LongitudeDegrees>-1.8239247612655162811279296875</LongitudeDegrees>
            </Position>
            <AltitudeMeters>141.8000030517578125</AltitudeMeters>
            <DistanceMeters>NAN</DistanceMeters>
          </Trackpoint>
          <Trackpoint>
            <Time>2021-08-11T12:38:18.000Z</Time>
            <Position>
              <LatitudeDegrees>43.31014839000999927520751953125</LatitudeDegrees>
              <LongitudeDegrees>-1.82395015843212604522705078125</LongitudeDegrees>
            </Position>
            <AltitudeMeters>142</AltitudeMeters>
            <DistanceMeters>NAN</DistanceMeters>
          </Trackpoint>
          <Trackpoint>
            <Time>2021-08-11T12:38:19.000Z</Time>
            <Position>
              <LatitudeDegrees>43.3101397566497325897216796875</LatitudeDegrees>
              <LongitudeDegrees>-1.8239812552928924560546875</LongitudeDegrees>
            </Position>
            <AltitudeMeters>142.1999969482421875</AltitudeMeters>
            <DistanceMeters>NAN</DistanceMeters>
          </Trackpoint>
          <Trackpoint>
            <Time>2021-08-11T12:38:20.000Z</Time>
            <Position>
              <LatitudeDegrees>43.3101323805749416351318359375</LatitudeDegrees>
              <LongitudeDegrees>-1.82400204241275787353515625</LongitudeDegrees>
            </Position>
            <AltitudeMeters>142.399993896484375</AltitudeMeters>
            <DistanceMeters>NAN</DistanceMeters>
          </Trackpoint>
          <Trackpoint>
            <Time>2021-08-11T12:38:21.000Z</Time>
            <Position>
              <LatitudeDegrees>43.31012324430048465728759765625</LatitudeDegrees>
              <LongitudeDegrees>-1.82403448037803173065185546875</LongitudeDegrees>
            </Position>
            <AltitudeMeters>142.600006103515625</AltitudeMeters>
            <DistanceMeters>NAN</DistanceMeters>
          </Trackpoint>
          <Trackpoint>
            <Time>2021-08-11T12:38:22.000Z</Time>
            <Position>
              <LatitudeDegrees>43.3101162873208522796630859375</LatitudeDegrees>
              <LongitudeDegrees>-1.8240528367459774017333984375</LongitudeDegrees>
            </Position>
            <AltitudeMeters>142.8000030517578125</AltitudeMeters>
            <DistanceMeters>NAN</DistanceMeters>
          </Trackpoint>
          <Trackpoint>
            <Time>2021-08-11T12:38:23.000Z</Time>
            <Position>
              <LatitudeDegrees>43.3101072348654270172119140625</LatitudeDegrees>
              <LongitudeDegrees>-1.8240763060748577117919921875</LongitudeDegrees>
            </Position>
            <AltitudeMeters>143.1999969482421875</AltitudeMeters>
            <DistanceMeters>NAN</DistanceMeters>
          </Trackpoint>
          <Trackpoint>
            <Time>2021-08-11T12:38:24.000Z</Time>
            <Position>
              <LatitudeDegrees>43.31009843386709690093994140625</LatitudeDegrees>
              <LongitudeDegrees>-1.82410086505115032196044921875</LongitudeDegrees>
            </Position>
            <AltitudeMeters>143.1999969482421875</AltitudeMeters>
            <DistanceMeters>NAN</DistanceMeters>
          </Trackpoint>
          <Trackpoint>
            <Time>2021-08-11T12:38:25.000Z</Time>
            <Position>
              <LatitudeDegrees>43.31008770503103733062744140625</LatitudeDegrees>
              <LongitudeDegrees>-1.8241302855312824249267578125</LongitudeDegrees>
            </Position>
            <AltitudeMeters>143.600006103515625</AltitudeMeters>
            <DistanceMeters>NAN</DistanceMeters>
          </Trackpoint>
          <Trackpoint>
            <Time>2021-08-11T12:38:26.000Z</Time>
            <Position>
              <LatitudeDegrees>43.31007999368011951446533203125</LatitudeDegrees>
              <LongitudeDegrees>-1.82415652088820934295654296875</LongitudeDegrees>
            </Position>
            <AltitudeMeters>143.8000030517578125</AltitudeMeters>
            <DistanceMeters>NAN</DistanceMeters>
          </Trackpoint>
          <Trackpoint>
            <Time>2021-08-11T12:38:27.000Z</Time>
            <Position>
              <LatitudeDegrees>43.3100750483572483062744140625</LatitudeDegrees>
              <LongitudeDegrees>-1.82417596690356731414794921875</LongitudeDegrees>
            </Position>
            <AltitudeMeters>144</AltitudeMeters>
            <DistanceMeters>NAN</DistanceMeters>
          </Trackpoint>
          <Trackpoint>
            <Time>2021-08-11T12:38:28.000Z</Time>
            <Position>
              <LatitudeDegrees>43.310068510472774505615234375</LatitudeDegrees>
              <LongitudeDegrees>-1.824199855327606201171875</LongitudeDegrees>
            </Position>
            <AltitudeMeters>144.1999969482421875</AltitudeMeters>
            <DistanceMeters>NAN</DistanceMeters>
          </Trackpoint>
          <Trackpoint>
            <Time>2021-08-11T12:38:29.000Z</Time>
            <Position>
              <LatitudeDegrees>43.31006348133087158203125</LatitudeDegrees>
              <LongitudeDegrees>-1.82422659359872341156005859375</LongitudeDegrees>
            </Position>
            <AltitudeMeters>144.399993896484375</AltitudeMeters>
            <DistanceMeters>NAN</DistanceMeters>
          </Trackpoint>
          <Trackpoint>
            <Time>2021-08-11T12:38:30.000Z</Time>
            <Position>
              <LatitudeDegrees>43.31006038002669811248779296875</LatitudeDegrees>
              <LongitudeDegrees>-1.82425081729888916015625</LongitudeDegrees>
            </Position>
            <AltitudeMeters>144.8000030517578125</AltitudeMeters>
            <DistanceMeters>NAN</DistanceMeters>
          </Trackpoint>
          <Trackpoint>
            <Time>2021-08-11T12:38:31.000Z</Time>
            <Position>
              <LatitudeDegrees>43.31005853600800037384033203125</LatitudeDegrees>
              <LongitudeDegrees>-1.8242761306464672088623046875</LongitudeDegrees>
            </Position>
            <AltitudeMeters>145</AltitudeMeters>
            <DistanceMeters>NAN</DistanceMeters>
          </Trackpoint>
          <Trackpoint>
            <Time>2021-08-11T12:38:32.000Z</Time>
            <Position>
              <LatitudeDegrees>43.31006172113120555877685546875</LatitudeDegrees>
              <LongitudeDegrees>-1.82429633103311061859130859375</LongitudeDegrees>
            </Position>
            <AltitudeMeters>145.399993896484375</AltitudeMeters>
            <DistanceMeters>NAN</DistanceMeters>
          </Trackpoint>
          <Trackpoint>
            <Time>2021-08-11T12:38:33.000Z</Time>
            <Position>
              <LatitudeDegrees>43.31006490625441074371337890625</LatitudeDegrees>
              <LongitudeDegrees>-1.82431343011558055877685546875</LongitudeDegrees>
            </Position>
            <AltitudeMeters>145.600006103515625</AltitudeMeters>
            <DistanceMeters>NAN</DistanceMeters>
          </Trackpoint>
          <Trackpoint>
            <Time>2021-08-11T12:38:34.000Z</Time>
            <Position>
              <LatitudeDegrees>43.310064487159252166748046875</LatitudeDegrees>
              <LongitudeDegrees>-1.824331618845462799072265625</LongitudeDegrees>
            </Position>
            <AltitudeMeters>146</AltitudeMeters>
            <DistanceMeters>NAN</DistanceMeters>
          </Trackpoint>
          <Trackpoint>
            <Time>2021-08-11T12:38:35.000Z</Time>
            <Position>
              <LatitudeDegrees>43.31006322987377643585205078125</LatitudeDegrees>
              <LongitudeDegrees>-1.8243532441556453704833984375</LongitudeDegrees>
            </Position>
            <AltitudeMeters>146.1999969482421875</AltitudeMeters>
            <DistanceMeters>NAN</DistanceMeters>
          </Trackpoint>
          <Trackpoint>
            <Time>2021-08-11T12:38:36.000Z</Time>
            <Position>
              <LatitudeDegrees>43.31006021238863468170166015625</LatitudeDegrees>
              <LongitudeDegrees>-1.82437260635197162628173828125</LongitudeDegrees>
            </Position>
            <AltitudeMeters>146.399993896484375</AltitudeMeters>
            <DistanceMeters>NAN</DistanceMeters>
          </Trackpoint>
          <Trackpoint>
            <Time>2021-08-11T12:38:37.000Z</Time>
            <Position>
              <LatitudeDegrees>43.3100567758083343505859375</LatitudeDegrees>
              <LongitudeDegrees>-1.82439104653894901275634765625</LongitudeDegrees>
            </Position>
            <AltitudeMeters>147</AltitudeMeters>
            <DistanceMeters>NAN</DistanceMeters>
          </Trackpoint>
          <Trackpoint>
            <Time>2021-08-11T12:38:38.000Z</Time>
            <Position>
              <LatitudeDegrees>43.310055769979953765869140625</LatitudeDegrees>
              <LongitudeDegrees>-1.82441174983978271484375</LongitudeDegrees>
            </Position>
            <AltitudeMeters>147.1999969482421875</AltitudeMeters>
            <DistanceMeters>NAN</DistanceMeters>
          </Trackpoint>
          <Trackpoint>
            <Time>2021-08-11T12:38:39.000Z</Time>
            <Position>
              <LatitudeDegrees>43.31005610525608062744140625</LatitudeDegrees>
              <LongitudeDegrees>-1.8244330398738384246826171875</LongitudeDegrees>
            </Position>
            <AltitudeMeters>147.600006103515625</AltitudeMeters>
            <DistanceMeters>NAN</DistanceMeters>
          </Trackpoint>
          <Trackpoint>
            <Time>2021-08-11T12:38:40.000Z</Time>
            <Position>
              <LatitudeDegrees>43.31005602143704891204833984375</LatitudeDegrees>
              <LongitudeDegrees>-1.824457012116909027099609375</LongitudeDegrees>
            </Position>
            <AltitudeMeters>147.8000030517578125</AltitudeMeters>
            <DistanceMeters>NAN</DistanceMeters>
          </Trackpoint>
          <Trackpoint>
            <Time>2021-08-11T12:38:41.000Z</Time>
            <Position>
              <LatitudeDegrees>43.3100566081702709197998046875</LatitudeDegrees>
              <LongitudeDegrees>-1.8244801461696624755859375</LongitudeDegrees>
            </Position>
            <AltitudeMeters>148.399993896484375</AltitudeMeters>
            <DistanceMeters>NAN</DistanceMeters>
          </Trackpoint>
          <Trackpoint>
            <Time>2021-08-11T12:38:42.000Z</Time>
            <Position>
              <LatitudeDegrees>43.3100582845509052276611328125</LatitudeDegrees>
              <LongitudeDegrees>-1.82450068183243274688720703125</LongitudeDegrees>
            </Position>
            <AltitudeMeters>148.600006103515625</AltitudeMeters>
            <DistanceMeters>NAN</DistanceMeters>
          </Trackpoint>
          <Trackpoint>
            <Time>2021-08-11T12:38:43.000Z</Time>
            <Position>
              <LatitudeDegrees>43.310056440532207489013671875</LatitudeDegrees>
              <LongitudeDegrees>-1.82451275177299976348876953125</LongitudeDegrees>
            </Position>
            <AltitudeMeters>149</AltitudeMeters>
            <DistanceMeters>NAN</DistanceMeters>
          </Trackpoint>
          <Trackpoint>
            <Time>2021-08-11T12:38:44.000Z</Time>
            <Position>
              <LatitudeDegrees>43.31005585379898548126220703125</LatitudeDegrees>
              <LongitudeDegrees>-1.82453152723610401153564453125</LongitudeDegrees>
            </Position>
            <AltitudeMeters>149.399993896484375</AltitudeMeters>
            <DistanceMeters>NAN</DistanceMeters>
          </Trackpoint>
          <Trackpoint>
            <Time>2021-08-11T12:38:45.000Z</Time>
            <Position>
              <LatitudeDegrees>43.31005333922803401947021484375</LatitudeDegrees>
              <LongitudeDegrees>-1.82454611174762248992919921875</LongitudeDegrees>
            </Position>
            <AltitudeMeters>149.399993896484375</AltitudeMeters>
            <DistanceMeters>NAN</DistanceMeters>
          </Trackpoint>
          <Trackpoint>
            <Time>2021-08-11T12:38:46.000Z</Time>
            <Position>
              <LatitudeDegrees>43.3100514113903045654296875</LatitudeDegrees>
              <LongitudeDegrees>-1.8245631270110607147216796875</LongitudeDegrees>
            </Position>
            <AltitudeMeters>149.600006103515625</AltitudeMeters>
            <DistanceMeters>NAN</DistanceMeters>
          </Trackpoint>
          <Trackpoint>
            <Time>2021-08-11T12:38:47.000Z</Time>
            <Position>
              <LatitudeDegrees>43.31004998646676540374755859375</LatitudeDegrees>
              <LongitudeDegrees>-1.8245765380561351776123046875</LongitudeDegrees>
            </Position>
            <AltitudeMeters>149.8000030517578125</AltitudeMeters>
            <DistanceMeters>NAN</DistanceMeters>
          </Trackpoint>
          <Trackpoint>
            <Time>2021-08-11T12:38:48.000Z</Time>
            <Position>
              <LatitudeDegrees>43.31004680134356021881103515625</LatitudeDegrees>
              <LongitudeDegrees>-1.824598498642444610595703125</LongitudeDegrees>
            </Position>
            <AltitudeMeters>150.1999969482421875</AltitudeMeters>
            <DistanceMeters>NAN</DistanceMeters>
          </Trackpoint>
          <Trackpoint>
            <Time>2021-08-11T12:38:49.000Z</Time>
            <Position>
              <LatitudeDegrees>43.31003925763070583343505859375</LatitudeDegrees>
              <LongitudeDegrees>-1.82461199350655078887939453125</LongitudeDegrees>
            </Position>
            <AltitudeMeters>150.600006103515625</AltitudeMeters>
            <DistanceMeters>NAN</DistanceMeters>
          </Trackpoint>
          <Trackpoint>
            <Time>2021-08-11T12:38:50.000Z</Time>
            <Position>
              <LatitudeDegrees>43.31003188155591487884521484375</LatitudeDegrees>
              <LongitudeDegrees>-1.824625320732593536376953125</LongitudeDegrees>
            </Position>
            <AltitudeMeters>151</AltitudeMeters>
            <DistanceMeters>NAN</DistanceMeters>
          </Trackpoint>
          <Trackpoint>
            <Time>2021-08-11T12:38:51.000Z</Time>
            <Position>
              <LatitudeDegrees>43.31002702005207538604736328125</LatitudeDegrees>
              <LongitudeDegrees>-1.82463965378701686859130859375</LongitudeDegrees>
            </Position>
            <AltitudeMeters>151.1999969482421875</AltitudeMeters>
            <DistanceMeters>NAN</DistanceMeters>
          </Trackpoint>
          <Trackpoint>
            <Time>2021-08-11T12:38:52.000Z</Time>
            <Position>
              <LatitudeDegrees>43.31002333201467990875244140625</LatitudeDegrees>
              <LongitudeDegrees>-1.8246529810130596160888671875</LongitudeDegrees>
            </Position>
            <AltitudeMeters>151.399993896484375</AltitudeMeters>
            <DistanceMeters>NAN</DistanceMeters>
          </Trackpoint>
          <Trackpoint>
            <Time>2021-08-11T12:38:53.000Z</Time>
            <Position>
              <LatitudeDegrees>43.3100173808634281158447265625</LatitudeDegrees>
              <LongitudeDegrees>-1.82467133738100528717041015625</LongitudeDegrees>
            </Position>
            <AltitudeMeters>151.8000030517578125</AltitudeMeters>
            <DistanceMeters>NAN</DistanceMeters>
          </Trackpoint>
          <Trackpoint>
            <Time>2021-08-11T12:38:54.000Z</Time>
            <Position>
              <LatitudeDegrees>43.31001109443604946136474609375</LatitudeDegrees>
              <LongitudeDegrees>-1.82469111867249011993408203125</LongitudeDegrees>
            </Position>
            <AltitudeMeters>152.1999969482421875</AltitudeMeters>
            <DistanceMeters>NAN</DistanceMeters>
          </Trackpoint>
          <Trackpoint>
            <Time>2021-08-11T12:38:55.000Z</Time>
            <Position>
              <LatitudeDegrees>43.310004808008670806884765625</LatitudeDegrees>
              <LongitudeDegrees>-1.82470746338367462158203125</LongitudeDegrees>
            </Position>
            <AltitudeMeters>152.1999969482421875</AltitudeMeters>
            <DistanceMeters>NAN</DistanceMeters>
          </Trackpoint>
          <Trackpoint>
            <Time>2021-08-11T12:38:56.000Z</Time>
            <Position>
              <LatitudeDegrees>43.3099996112287044525146484375</LatitudeDegrees>
              <LongitudeDegrees>-1.82472263462841510772705078125</LongitudeDegrees>
            </Position>
            <AltitudeMeters>152.399993896484375</AltitudeMeters>
            <DistanceMeters>NAN</DistanceMeters>
          </Trackpoint>
          <Trackpoint>
            <Time>2021-08-11T12:38:57.000Z</Time>
            <Position>
              <LatitudeDegrees>43.30999516882002353668212890625</LatitudeDegrees>
              <LongitudeDegrees>-1.824745349586009979248046875</LongitudeDegrees>
            </Position>
            <AltitudeMeters>152.8000030517578125</AltitudeMeters>
            <DistanceMeters>NAN</DistanceMeters>
          </Trackpoint>
          <Trackpoint>
            <Time>2021-08-11T12:38:58.000Z</Time>
            <Position>
              <LatitudeDegrees>43.30998896621167659759521484375</LatitudeDegrees>
              <LongitudeDegrees>-1.8247612752020359039306640625</LongitudeDegrees>
            </Position>
            <AltitudeMeters>153.1999969482421875</AltitudeMeters>
            <DistanceMeters>NAN</DistanceMeters>
          </Trackpoint>
          <Trackpoint>
            <Time>2021-08-11T12:38:59.000Z</Time>
            <Position>
              <LatitudeDegrees>43.30998175777494907379150390625</LatitudeDegrees>
              <LongitudeDegrees>-1.82477653026580810546875</LongitudeDegrees>
            </Position>
            <AltitudeMeters>153.1999969482421875</AltitudeMeters>
            <DistanceMeters>NAN</DistanceMeters>
          </Trackpoint>
          <Trackpoint>
            <Time>2021-08-11T12:39:00.000Z</Time>
            <Position>
              <LatitudeDegrees>43.30997773446142673492431640625</LatitudeDegrees>
              <LongitudeDegrees>-1.8247924558818340301513671875</LongitudeDegrees>
            </Position>
            <AltitudeMeters>153.600006103515625</AltitudeMeters>
            <DistanceMeters>NAN</DistanceMeters>
          </Trackpoint>
          <Trackpoint>
            <Time>2021-08-11T12:39:01.000Z</Time>
            <Position>
              <LatitudeDegrees>43.3099744655191898345947265625</LatitudeDegrees>
              <LongitudeDegrees>-1.82480963878333568572998046875</LongitudeDegrees>
            </Position>
            <AltitudeMeters>153.8000030517578125</AltitudeMeters>
            <DistanceMeters>NAN</DistanceMeters>
          </Trackpoint>
          <Trackpoint>
            <Time>2021-08-11T12:39:02.000Z</Time>
            <Position>
              <LatitudeDegrees>43.309968598186969757080078125</LatitudeDegrees>
              <LongitudeDegrees>-1.82482791133224964141845703125</LongitudeDegrees>
            </Position>
            <AltitudeMeters>154</AltitudeMeters>
            <DistanceMeters>NAN</DistanceMeters>
          </Trackpoint>
          <Trackpoint>
            <Time>2021-08-11T12:39:03.000Z</Time>
            <Position>
              <LatitudeDegrees>43.3099637366831302642822265625</LatitudeDegrees>
              <LongitudeDegrees>-1.82485037483274936676025390625</LongitudeDegrees>
            </Position>
            <AltitudeMeters>154</AltitudeMeters>
            <DistanceMeters>NAN</DistanceMeters>
          </Trackpoint>
          <Trackpoint>
            <Time>2021-08-11T12:39:04.000Z</Time>
            <Position>
              <LatitudeDegrees>43.30996063537895679473876953125</LatitudeDegrees>
              <LongitudeDegrees>-1.8248685635626316070556640625</LongitudeDegrees>
            </Position>
            <AltitudeMeters>154.1999969482421875</AltitudeMeters>
            <DistanceMeters>NAN</DistanceMeters>
          </Trackpoint>
          <Trackpoint>
            <Time>2021-08-11T12:39:05.000Z</Time>
            <Position>
              <LatitudeDegrees>43.309957198798656463623046875</LatitudeDegrees>
              <LongitudeDegrees>-1.8248735927045345306396484375</LongitudeDegrees>
            </Position>
            <AltitudeMeters>154.600006103515625</AltitudeMeters>
            <DistanceMeters>NAN</DistanceMeters>
          </Trackpoint>
          <Trackpoint>
            <Time>2021-08-11T12:39:06.000Z</Time>
            <Position>
              <LatitudeDegrees>43.3099526725709438323974609375</LatitudeDegrees>
              <LongitudeDegrees>-1.8248819746077060699462890625</LongitudeDegrees>
            </Position>
            <AltitudeMeters>154.600006103515625</AltitudeMeters>
            <DistanceMeters>NAN</DistanceMeters>
          </Trackpoint>
          <Trackpoint>
            <Time>2021-08-11T12:39:07.000Z</Time>
            <Position>
              <LatitudeDegrees>43.3099509961903095245361328125</LatitudeDegrees>
              <LongitudeDegrees>-1.82489178143441677093505859375</LongitudeDegrees>
            </Position>
            <AltitudeMeters>154.8000030517578125</AltitudeMeters>
            <DistanceMeters>NAN</DistanceMeters>
          </Trackpoint>
          <Trackpoint>
            <Time>2021-08-11T12:39:08.000Z</Time>
            <Position>
              <LatitudeDegrees>43.3099452964961528778076171875</LatitudeDegrees>
              <LongitudeDegrees>-1.8249087966978549957275390625</LongitudeDegrees>
            </Position>
            <AltitudeMeters>154.8000030517578125</AltitudeMeters>
            <DistanceMeters>NAN</DistanceMeters>
          </Trackpoint>
          <Trackpoint>
            <Time>2021-08-11T12:39:09.000Z</Time>
            <Position>
              <LatitudeDegrees>43.3099387586116790771484375</LatitudeDegrees>
              <LongitudeDegrees>-1.82493519969284534454345703125</LongitudeDegrees>
            </Position>
            <AltitudeMeters>155.1999969482421875</AltitudeMeters>
            <DistanceMeters>NAN</DistanceMeters>
          </Trackpoint>
          <Trackpoint>
            <Time>2021-08-11T12:39:10.000Z</Time>
            <Position>
              <LatitudeDegrees>43.30993414856493473052978515625</LatitudeDegrees>
              <LongitudeDegrees>-1.82495422661304473876953125</LongitudeDegrees>
            </Position>
            <AltitudeMeters>155.1999969482421875</AltitudeMeters>
            <DistanceMeters>NAN</DistanceMeters>
          </Trackpoint>
          <Trackpoint>
            <Time>2021-08-11T12:39:11.000Z</Time>
            <Position>
              <LatitudeDegrees>43.30992761068046092987060546875</LatitudeDegrees>
              <LongitudeDegrees>-1.8249857425689697265625</LongitudeDegrees>
            </Position>
            <AltitudeMeters>155.399993896484375</AltitudeMeters>
            <DistanceMeters>NAN</DistanceMeters>
          </Trackpoint>
          <Trackpoint>
            <Time>2021-08-11T12:39:12.000Z</Time>
            <Position>
              <LatitudeDegrees>43.3099218271672725677490234375</LatitudeDegrees>
              <LongitudeDegrees>-1.82501231320202350616455078125</LongitudeDegrees>
            </Position>
            <AltitudeMeters>155.399993896484375</AltitudeMeters>
            <DistanceMeters>NAN</DistanceMeters>
          </Trackpoint>
          <Trackpoint>
            <Time>2021-08-11T12:39:13.000Z</Time>
            <Position>
              <LatitudeDegrees>43.30991654656827449798583984375</LatitudeDegrees>
              <LongitudeDegrees>-1.8250311724841594696044921875</LongitudeDegrees>
            </Position>
            <AltitudeMeters>155.600006103515625</AltitudeMeters>
            <DistanceMeters>NAN</DistanceMeters>
          </Trackpoint>
          <Trackpoint>
            <Time>2021-08-11T12:39:14.000Z</Time>
            <Position>
              <LatitudeDegrees>43.3099157921969890594482421875</LatitudeDegrees>
              <LongitudeDegrees>-1.82504567317664623260498046875</LongitudeDegrees>
            </Position>
            <AltitudeMeters>155.8000030517578125</AltitudeMeters>
            <DistanceMeters>NAN</DistanceMeters>
          </Trackpoint>
          <Trackpoint>
            <Time>2021-08-11T12:39:15.000Z</Time>
            <Position>
              <LatitudeDegrees>43.30991931259632110595703125</LatitudeDegrees>
              <LongitudeDegrees>-1.825052462518215179443359375</LongitudeDegrees>
            </Position>
            <AltitudeMeters>156</AltitudeMeters>
            <DistanceMeters>NAN</DistanceMeters>
          </Trackpoint>
          <Trackpoint>
            <Time>2021-08-11T12:39:16.000Z</Time>
            <Position>
              <LatitudeDegrees>43.3099188096821308135986328125</LatitudeDegrees>
              <LongitudeDegrees>-1.82506629265844821929931640625</LongitudeDegrees>
            </Position>
            <AltitudeMeters>156.1999969482421875</AltitudeMeters>
            <DistanceMeters>NAN</DistanceMeters>
          </Trackpoint>
          <Trackpoint>
            <Time>2021-08-11T12:39:17.000Z</Time>
            <Position>
              <LatitudeDegrees>43.309906907379627227783203125</LatitudeDegrees>
              <LongitudeDegrees>-1.8250861577689647674560546875</LongitudeDegrees>
            </Position>
            <AltitudeMeters>156.1999969482421875</AltitudeMeters>
            <DistanceMeters>NAN</DistanceMeters>
          </Trackpoint>
          <Trackpoint>
            <Time>2021-08-11T12:39:18.000Z</Time>
            <Position>
              <LatitudeDegrees>43.3098973520100116729736328125</LatitudeDegrees>
              <LongitudeDegrees>-1.8250921927392482757568359375</LongitudeDegrees>
            </Position>
            <AltitudeMeters>156.600006103515625</AltitudeMeters>
            <DistanceMeters>NAN</DistanceMeters>
          </Trackpoint>
          <Trackpoint>
            <Time>2021-08-11T12:39:19.000Z</Time>
            <Position>
              <LatitudeDegrees>43.30989458598196506500244140625</LatitudeDegrees>
              <LongitudeDegrees>-1.82510132901370525360107421875</LongitudeDegrees>
            </Position>
            <AltitudeMeters>156.8000030517578125</AltitudeMeters>
            <DistanceMeters>NAN</DistanceMeters>
          </Trackpoint>
          <Trackpoint>
            <Time>2021-08-11T12:39:20.000Z</Time>
            <Position>
              <LatitudeDegrees>43.3098946698009967803955078125</LatitudeDegrees>
              <LongitudeDegrees>-1.82511784136295318603515625</LongitudeDegrees>
            </Position>
            <AltitudeMeters>157.1999969482421875</AltitudeMeters>
            <DistanceMeters>NAN</DistanceMeters>
          </Trackpoint>
          <Trackpoint>
            <Time>2021-08-11T12:39:21.000Z</Time>
            <Position>
              <LatitudeDegrees>43.30989207141101360321044921875</LatitudeDegrees>
              <LongitudeDegrees>-1.82513904757797718048095703125</LongitudeDegrees>
            </Position>
            <AltitudeMeters>157.600006103515625</AltitudeMeters>
            <DistanceMeters>NAN</DistanceMeters>
          </Trackpoint>
          <Trackpoint>
            <Time>2021-08-11T12:39:22.000Z</Time>
            <Position>
              <LatitudeDegrees>43.30989022739231586456298828125</LatitudeDegrees>
              <LongitudeDegrees>-1.82515664957463741302490234375</LongitudeDegrees>
            </Position>
            <AltitudeMeters>157.8000030517578125</AltitudeMeters>
            <DistanceMeters>NAN</DistanceMeters>
          </Trackpoint>
          <Trackpoint>
            <Time>2021-08-11T12:39:23.000Z</Time>
            <Position>
              <LatitudeDegrees>43.30988444387912750244140625</LatitudeDegrees>
              <LongitudeDegrees>-1.825181543827056884765625</LongitudeDegrees>
            </Position>
            <AltitudeMeters>158.399993896484375</AltitudeMeters>
            <DistanceMeters>NAN</DistanceMeters>
          </Trackpoint>
          <Trackpoint>
            <Time>2021-08-11T12:39:24.000Z</Time>
            <Position>
              <LatitudeDegrees>43.309880085289478302001953125</LatitudeDegrees>
              <LongitudeDegrees>-1.82520124129951000213623046875</LongitudeDegrees>
            </Position>
            <AltitudeMeters>158.600006103515625</AltitudeMeters>
            <DistanceMeters>NAN</DistanceMeters>
          </Trackpoint>
          <Trackpoint>
            <Time>2021-08-11T12:39:25.000Z</Time>
            <Position>
              <LatitudeDegrees>43.30987614579498767852783203125</LatitudeDegrees>
              <LongitudeDegrees>-1.8252122215926647186279296875</LongitudeDegrees>
            </Position>
            <AltitudeMeters>159.1999969482421875</AltitudeMeters>
            <DistanceMeters>NAN</DistanceMeters>
          </Trackpoint>
          <Trackpoint>
            <Time>2021-08-11T12:39:26.000Z</Time>
            <Position>
              <LatitudeDegrees>43.30986742861568927764892578125</LatitudeDegrees>
              <LongitudeDegrees>-1.82522722519934177398681640625</LongitudeDegrees>
            </Position>
            <AltitudeMeters>159.399993896484375</AltitudeMeters>
            <DistanceMeters>NAN</DistanceMeters>
          </Trackpoint>
          <Trackpoint>
            <Time>2021-08-11T12:39:27.000Z</Time>
            <Position>
              <LatitudeDegrees>43.3098641596734523773193359375</LatitudeDegrees>
              <LongitudeDegrees>-1.8252511136233806610107421875</LongitudeDegrees>
            </Position>
            <AltitudeMeters>159.600006103515625</AltitudeMeters>
            <DistanceMeters>NAN</DistanceMeters>
          </Trackpoint>
          <Trackpoint>
            <Time>2021-08-11T12:39:28.000Z</Time>
            <Position>
              <LatitudeDegrees>43.30986566841602325439453125</LatitudeDegrees>
              <LongitudeDegrees>-1.8252568133175373077392578125</LongitudeDegrees>
            </Position>
            <AltitudeMeters>160</AltitudeMeters>
            <DistanceMeters>NAN</DistanceMeters>
          </Trackpoint>
          <Trackpoint>
            <Time>2021-08-11T12:39:29.000Z</Time>
            <Position>
              <LatitudeDegrees>43.30985686741769313812255859375</LatitudeDegrees>
              <LongitudeDegrees>-1.82526343502104282379150390625</LongitudeDegrees>
            </Position>
            <AltitudeMeters>160.1999969482421875</AltitudeMeters>
            <DistanceMeters>NAN</DistanceMeters>
          </Trackpoint>
          <Trackpoint>
            <Time>2021-08-11T12:39:30.000Z</Time>
            <Position>
              <LatitudeDegrees>43.309845887124538421630859375</LatitudeDegrees>
              <LongitudeDegrees>-1.8252713978290557861328125</LongitudeDegrees>
            </Position>
            <AltitudeMeters>160.600006103515625</AltitudeMeters>
            <DistanceMeters>NAN</DistanceMeters>
          </Trackpoint>
          <Trackpoint>
            <Time>2021-08-11T12:39:31.000Z</Time>
            <Position>
              <LatitudeDegrees>43.309840522706508636474609375</LatitudeDegrees>
              <LongitudeDegrees>-1.8252843059599399566650390625</LongitudeDegrees>
            </Position>
            <AltitudeMeters>160.8000030517578125</AltitudeMeters>
            <DistanceMeters>NAN</DistanceMeters>
          </Trackpoint>
          <Trackpoint>
            <Time>2021-08-11T12:39:32.000Z</Time>
            <Position>
              <LatitudeDegrees>43.30983054824173450469970703125</LatitudeDegrees>
              <LongitudeDegrees>-1.825296878814697265625</LongitudeDegrees>
            </Position>
            <AltitudeMeters>161.1999969482421875</AltitudeMeters>
            <DistanceMeters>NAN</DistanceMeters>
          </Trackpoint>
          <Trackpoint>
            <Time>2021-08-11T12:39:33.000Z</Time>
            <Position>
              <LatitudeDegrees>43.30981680192053318023681640625</LatitudeDegrees>
              <LongitudeDegrees>-1.8253014050424098968505859375</LongitudeDegrees>
            </Position>
            <AltitudeMeters>161.1999969482421875</AltitudeMeters>
            <DistanceMeters>NAN</DistanceMeters>
          </Trackpoint>
          <Trackpoint>
            <Time>2021-08-11T12:39:34.000Z</Time>
            <Position>
              <LatitudeDegrees>43.30980925820767879486083984375</LatitudeDegrees>
              <LongitudeDegrees>-1.8253128044307231903076171875</LongitudeDegrees>
            </Position>
            <AltitudeMeters>161.8000030517578125</AltitudeMeters>
            <DistanceMeters>NAN</DistanceMeters>
          </Trackpoint>
          <Trackpoint>
            <Time>2021-08-11T12:39:35.000Z</Time>
            <Position>
              <LatitudeDegrees>43.3098041452467441558837890625</LatitudeDegrees>
              <LongitudeDegrees>-1.825332082808017730712890625</LongitudeDegrees>
            </Position>
            <AltitudeMeters>162.1999969482421875</AltitudeMeters>
            <DistanceMeters>NAN</DistanceMeters>
          </Trackpoint>
          <Trackpoint>
            <Time>2021-08-11T12:39:36.000Z</Time>
            <Position>
              <LatitudeDegrees>43.30979635007679462432861328125</LatitudeDegrees>
              <LongitudeDegrees>-1.82535328902304172515869140625</LongitudeDegrees>
            </Position>
            <AltitudeMeters>162.399993896484375</AltitudeMeters>
            <DistanceMeters>NAN</DistanceMeters>
          </Trackpoint>
          <Trackpoint>
            <Time>2021-08-11T12:39:37.000Z</Time>
            <Position>
              <LatitudeDegrees>43.3097927458584308624267578125</LatitudeDegrees>
              <LongitudeDegrees>-1.8253684602677822113037109375</LongitudeDegrees>
            </Position>
            <AltitudeMeters>162.8000030517578125</AltitudeMeters>
            <DistanceMeters>NAN</DistanceMeters>
          </Trackpoint>
          <Trackpoint>
            <Time>2021-08-11T12:39:38.000Z</Time>
            <Position>
              <LatitudeDegrees>43.30978595651686191558837890625</LatitudeDegrees>
              <LongitudeDegrees>-1.82539050467312335968017578125</LongitudeDegrees>
            </Position>
            <AltitudeMeters>163</AltitudeMeters>
            <DistanceMeters>NAN</DistanceMeters>
          </Trackpoint>
          <Trackpoint>
            <Time>2021-08-11T12:39:39.000Z</Time>
            <Position>
              <LatitudeDegrees>43.309776484966278076171875</LatitudeDegrees>
              <LongitudeDegrees>-1.82539947330951690673828125</LongitudeDegrees>
            </Position>
            <AltitudeMeters>163.399993896484375</AltitudeMeters>
            <DistanceMeters>NAN</DistanceMeters>
          </Trackpoint>
          <Trackpoint>
            <Time>2021-08-11T12:39:40.000Z</Time>
            <Position>
              <LatitudeDegrees>43.30977103672921657562255859375</LatitudeDegrees>
              <LongitudeDegrees>-1.82541280053555965423583984375</LongitudeDegrees>
            </Position>
            <AltitudeMeters>163.600006103515625</AltitudeMeters>
            <DistanceMeters>NAN</DistanceMeters>
          </Trackpoint>
          <Trackpoint>
            <Time>2021-08-11T12:39:41.000Z</Time>
            <Position>
              <LatitudeDegrees>43.30976785160601139068603515625</LatitudeDegrees>
              <LongitudeDegrees>-1.82542629539966583251953125</LongitudeDegrees>
            </Position>
            <AltitudeMeters>163.600006103515625</AltitudeMeters>
            <DistanceMeters>NAN</DistanceMeters>
          </Trackpoint>
          <Trackpoint>
            <Time>2021-08-11T12:39:42.000Z</Time>
            <Position>
              <LatitudeDegrees>43.30976349301636219024658203125</LatitudeDegrees>
              <LongitudeDegrees>-1.825446747243404388427734375</LongitudeDegrees>
            </Position>
            <AltitudeMeters>164.1999969482421875</AltitudeMeters>
            <DistanceMeters>NAN</DistanceMeters>
          </Trackpoint>
          <Trackpoint>
            <Time>2021-08-11T12:39:43.000Z</Time>
            <Position>
              <LatitudeDegrees>43.3097375929355621337890625</LatitudeDegrees>
              <LongitudeDegrees>-1.8254730664193630218505859375</LongitudeDegrees>
            </Position>
            <AltitudeMeters>164</AltitudeMeters>
            <DistanceMeters>NAN</DistanceMeters>
          </Trackpoint>
          <Trackpoint>
            <Time>2021-08-11T12:39:44.000Z</Time>
            <Position>
              <LatitudeDegrees>43.30971823073923587799072265625</LatitudeDegrees>
              <LongitudeDegrees>-1.8254941888153553009033203125</LongitudeDegrees>
            </Position>
            <AltitudeMeters>164.1999969482421875</AltitudeMeters>
            <DistanceMeters>NAN</DistanceMeters>
          </Trackpoint>
          <Trackpoint>
            <Time>2021-08-11T12:39:45.000Z</Time>
            <Position>
              <LatitudeDegrees>43.30970607697963714599609375</LatitudeDegrees>
              <LongitudeDegrees>-1.82550969533622264862060546875</LongitudeDegrees>
            </Position>
            <AltitudeMeters>164.600006103515625</AltitudeMeters>
            <DistanceMeters>NAN</DistanceMeters>
          </Trackpoint>
          <Trackpoint>
            <Time>2021-08-11T12:39:46.000Z</Time>
            <Position>
              <LatitudeDegrees>43.309697695076465606689453125</LatitudeDegrees>
              <LongitudeDegrees>-1.82552277110517024993896484375</LongitudeDegrees>
            </Position>
            <AltitudeMeters>165</AltitudeMeters>
            <DistanceMeters>NAN</DistanceMeters>
          </Trackpoint>
          <Trackpoint>
            <Time>2021-08-11T12:39:47.000Z</Time>
            <Position>
              <LatitudeDegrees>43.30969543196260929107666015625</LatitudeDegrees>
              <LongitudeDegrees>-1.82553852908313274383544921875</LongitudeDegrees>
            </Position>
            <AltitudeMeters>165.1999969482421875</AltitudeMeters>
            <DistanceMeters>NAN</DistanceMeters>
          </Trackpoint>
          <Trackpoint>
            <Time>2021-08-11T12:39:48.000Z</Time>
            <Position>
              <LatitudeDegrees>43.30969509668648242950439453125</LatitudeDegrees>
              <LongitudeDegrees>-1.82554506696760654449462890625</LongitudeDegrees>
            </Position>
            <AltitudeMeters>165.600006103515625</AltitudeMeters>
            <DistanceMeters>NAN</DistanceMeters>
          </Trackpoint>
          <Trackpoint>
            <Time>2021-08-11T12:39:49.000Z</Time>
            <Position>
              <LatitudeDegrees>43.309695683419704437255859375</LatitudeDegrees>
              <LongitudeDegrees>-1.82555914856493473052978515625</LongitudeDegrees>
            </Position>
            <AltitudeMeters>166</AltitudeMeters>
            <DistanceMeters>NAN</DistanceMeters>
          </Trackpoint>
          <Trackpoint>
            <Time>2021-08-11T12:39:50.000Z</Time>
            <Position>
              <LatitudeDegrees>43.30969333648681640625</LatitudeDegrees>
              <LongitudeDegrees>-1.82558630593121051788330078125</LongitudeDegrees>
            </Position>
            <AltitudeMeters>166</AltitudeMeters>
            <DistanceMeters>NAN</DistanceMeters>
          </Trackpoint>
          <Trackpoint>
            <Time>2021-08-11T12:39:51.000Z</Time>
            <Position>
              <LatitudeDegrees>43.30968654714524745941162109375</LatitudeDegrees>
              <LongitudeDegrees>-1.82560860179364681243896484375</LongitudeDegrees>
            </Position>
            <AltitudeMeters>166.399993896484375</AltitudeMeters>
            <DistanceMeters>NAN</DistanceMeters>
          </Trackpoint>
          <Trackpoint>
            <Time>2021-08-11T12:39:52.000Z</Time>
            <Position>
              <LatitudeDegrees>43.30968051217496395111083984375</LatitudeDegrees>
              <LongitudeDegrees>-1.825631819665431976318359375</LongitudeDegrees>
            </Position>
            <AltitudeMeters>166.600006103515625</AltitudeMeters>
            <DistanceMeters>NAN</DistanceMeters>
          </Trackpoint>
          <Trackpoint>
            <Time>2021-08-11T12:39:53.000Z</Time>
            <Position>
              <LatitudeDegrees>43.30967296846210956573486328125</LatitudeDegrees>
              <LongitudeDegrees>-1.8256588093936443328857421875</LongitudeDegrees>
            </Position>
            <AltitudeMeters>167</AltitudeMeters>
            <DistanceMeters>NAN</DistanceMeters>
          </Trackpoint>
          <Trackpoint>
            <Time>2021-08-11T12:39:54.000Z</Time>
            <Position>
              <LatitudeDegrees>43.30966676585376262664794921875</LatitudeDegrees>
              <LongitudeDegrees>-1.82569057680666446685791015625</LongitudeDegrees>
            </Position>
            <AltitudeMeters>167.1999969482421875</AltitudeMeters>
            <DistanceMeters>NAN</DistanceMeters>
          </Trackpoint>
          <Trackpoint>
            <Time>2021-08-11T12:39:55.000Z</Time>
            <Position>
              <LatitudeDegrees>43.3096552826464176177978515625</LatitudeDegrees>
              <LongitudeDegrees>-1.82570700533688068389892578125</LongitudeDegrees>
            </Position>
            <AltitudeMeters>167.399993896484375</AltitudeMeters>
            <DistanceMeters>NAN</DistanceMeters>
          </Trackpoint>
          <Trackpoint>
            <Time>2021-08-11T12:39:56.000Z</Time>
            <Position>
              <LatitudeDegrees>43.3096539415419101715087890625</LatitudeDegrees>
              <LongitudeDegrees>-1.82571304030716419219970703125</LongitudeDegrees>
            </Position>
            <AltitudeMeters>167.8000030517578125</AltitudeMeters>
            <DistanceMeters>NAN</DistanceMeters>
          </Trackpoint>
          <Trackpoint>
            <Time>2021-08-11T12:39:57.000Z</Time>
            <Position>
              <LatitudeDegrees>43.309651426970958709716796875</LatitudeDegrees>
              <LongitudeDegrees>-1.8257248587906360626220703125</LongitudeDegrees>
            </Position>
            <AltitudeMeters>168</AltitudeMeters>
            <DistanceMeters>NAN</DistanceMeters>
          </Trackpoint>
          <Trackpoint>
            <Time>2021-08-11T12:39:58.000Z</Time>
            <Position>
              <LatitudeDegrees>43.3096442185342311859130859375</LatitudeDegrees>
              <LongitudeDegrees>-1.8257456459105014801025390625</LongitudeDegrees>
            </Position>
            <AltitudeMeters>168.399993896484375</AltitudeMeters>
            <DistanceMeters>NAN</DistanceMeters>
          </Trackpoint>
          <Trackpoint>
            <Time>2021-08-11T12:39:59.000Z</Time>
            <Position>
              <LatitudeDegrees>43.30964128486812114715576171875</LatitudeDegrees>
              <LongitudeDegrees>-1.82576467283070087432861328125</LongitudeDegrees>
            </Position>
            <AltitudeMeters>168.600006103515625</AltitudeMeters>
            <DistanceMeters>NAN</DistanceMeters>
          </Trackpoint>
          <Trackpoint>
            <Time>2021-08-11T12:40:00.000Z</Time>
            <Position>
              <LatitudeDegrees>43.3096321485936641693115234375</LatitudeDegrees>
              <LongitudeDegrees>-1.82577758096158504486083984375</LongitudeDegrees>
            </Position>
            <AltitudeMeters>169.1999969482421875</AltitudeMeters>
            <DistanceMeters>NAN</DistanceMeters>
          </Trackpoint>
          <Trackpoint>
            <Time>2021-08-11T12:40:01.000Z</Time>
            <Position>
              <LatitudeDegrees>43.3096304722130298614501953125</LatitudeDegrees>
              <LongitudeDegrees>-1.8257875554263591766357421875</LongitudeDegrees>
            </Position>
            <AltitudeMeters>169.399993896484375</AltitudeMeters>
            <DistanceMeters>NAN</DistanceMeters>
          </Trackpoint>
          <Trackpoint>
            <Time>2021-08-11T12:40:02.000Z</Time>
            <Position>
              <LatitudeDegrees>43.30963231623172760009765625</LatitudeDegrees>
              <LongitudeDegrees>-1.82580624707043170928955078125</LongitudeDegrees>
            </Position>
            <AltitudeMeters>169.8000030517578125</AltitudeMeters>
            <DistanceMeters>NAN</DistanceMeters>
          </Trackpoint>
          <Trackpoint>
            <Time>2021-08-11T12:40:03.000Z</Time>
            <Position>
              <LatitudeDegrees>43.309635333716869354248046875</LatitudeDegrees>
              <LongitudeDegrees>-1.82581194676458835601806640625</LongitudeDegrees>
            </Position>
            <AltitudeMeters>170</AltitudeMeters>
            <DistanceMeters>NAN</DistanceMeters>
          </Trackpoint>
          <Trackpoint>
            <Time>2021-08-11T12:40:04.000Z</Time>
            <Position>
              <LatitudeDegrees>43.3096385188400745391845703125</LatitudeDegrees>
              <LongitudeDegrees>-1.825826950371265411376953125</LongitudeDegrees>
            </Position>
            <AltitudeMeters>170.1999969482421875</AltitudeMeters>
            <DistanceMeters>NAN</DistanceMeters>
          </Trackpoint>
          <Trackpoint>
            <Time>2021-08-11T12:40:05.000Z</Time>
            <Position>
              <LatitudeDegrees>43.30963877029716968536376953125</LatitudeDegrees>
              <LongitudeDegrees>-1.82585570029914379119873046875</LongitudeDegrees>
            </Position>
            <AltitudeMeters>170.600006103515625</AltitudeMeters>
            <DistanceMeters>NAN</DistanceMeters>
          </Trackpoint>
          <Trackpoint>
            <Time>2021-08-11T12:40:06.000Z</Time>
            <Position>
              <LatitudeDegrees>43.30963659100234508514404296875</LatitudeDegrees>
              <LongitudeDegrees>-1.82586349546909332275390625</LongitudeDegrees>
            </Position>
            <AltitudeMeters>170.8000030517578125</AltitudeMeters>
            <DistanceMeters>NAN</DistanceMeters>
          </Trackpoint>
          <Trackpoint>
            <Time>2021-08-11T12:40:07.000Z</Time>
            <Position>
              <LatitudeDegrees>43.30963055603206157684326171875</LatitudeDegrees>
              <LongitudeDegrees>-1.82587422430515289306640625</LongitudeDegrees>
            </Position>
            <AltitudeMeters>171</AltitudeMeters>
            <DistanceMeters>NAN</DistanceMeters>
          </Trackpoint>
          <Trackpoint>
            <Time>2021-08-11T12:40:08.000Z</Time>
            <Position>
              <LatitudeDegrees>43.30962535925209522247314453125</LatitudeDegrees>
              <LongitudeDegrees>-1.82588738389313220977783203125</LongitudeDegrees>
            </Position>
            <AltitudeMeters>171.1999969482421875</AltitudeMeters>
            <DistanceMeters>NAN</DistanceMeters>
          </Trackpoint>
          <Trackpoint>
            <Time>2021-08-11T12:40:09.000Z</Time>
            <Position>
              <LatitudeDegrees>43.30961898900568485260009765625</LatitudeDegrees>
              <LongitudeDegrees>-1.82589911855757236480712890625</LongitudeDegrees>
            </Position>
            <AltitudeMeters>171.399993896484375</AltitudeMeters>
            <DistanceMeters>NAN</DistanceMeters>
          </Trackpoint>
          <Trackpoint>
            <Time>2021-08-11T12:40:10.000Z</Time>
            <Position>
              <LatitudeDegrees>43.30961446277797222137451171875</LatitudeDegrees>
              <LongitudeDegrees>-1.82591755874454975128173828125</LongitudeDegrees>
            </Position>
            <AltitudeMeters>171.600006103515625</AltitudeMeters>
            <DistanceMeters>NAN</DistanceMeters>
          </Trackpoint>
          <Trackpoint>
            <Time>2021-08-11T12:40:11.000Z</Time>
            <Position>
              <LatitudeDegrees>43.3096137084066867828369140625</LatitudeDegrees>
              <LongitudeDegrees>-1.82593482546508312225341796875</LongitudeDegrees>
            </Position>
            <AltitudeMeters>171.600006103515625</AltitudeMeters>
            <DistanceMeters>NAN</DistanceMeters>
          </Trackpoint>
          <Trackpoint>
            <Time>2021-08-11T12:40:12.000Z</Time>
            <Position>
              <LatitudeDegrees>43.30961429513990879058837890625</LatitudeDegrees>
              <LongitudeDegrees>-1.82593859732151031494140625</LongitudeDegrees>
            </Position>
            <AltitudeMeters>171.8000030517578125</AltitudeMeters>
            <DistanceMeters>NAN</DistanceMeters>
          </Trackpoint>
          <Trackpoint>
            <Time>2021-08-11T12:40:13.000Z</Time>
            <Position>
              <LatitudeDegrees>43.30961429513990879058837890625</LatitudeDegrees>
              <LongitudeDegrees>-1.82593859732151031494140625</LongitudeDegrees>
            </Position>
            <AltitudeMeters>171.8000030517578125</AltitudeMeters>
            <DistanceMeters>NAN</DistanceMeters>
          </Trackpoint>
          <Trackpoint>
            <Time>2021-08-11T12:40:14.000Z</Time>
            <Position>
              <LatitudeDegrees>43.3096157200634479522705078125</LatitudeDegrees>
              <LongitudeDegrees>-1.82594873942434787750244140625</LongitudeDegrees>
            </Position>
            <AltitudeMeters>172</AltitudeMeters>
            <DistanceMeters>NAN</DistanceMeters>
          </Trackpoint>
          <Trackpoint>
            <Time>2021-08-11T12:40:15.000Z</Time>
            <Position>
              <LatitudeDegrees>43.309612534940242767333984375</LatitudeDegrees>
              <LongitudeDegrees>-1.82596466504037380218505859375</LongitudeDegrees>
            </Position>
            <AltitudeMeters>172.1999969482421875</AltitudeMeters>
            <DistanceMeters>NAN</DistanceMeters>
          </Trackpoint>
          <Trackpoint>
            <Time>2021-08-11T12:40:16.000Z</Time>
            <Position>
              <LatitudeDegrees>43.309601806104183197021484375</LatitudeDegrees>
              <LongitudeDegrees>-1.82598729617893695831298828125</LongitudeDegrees>
            </Position>
            <AltitudeMeters>172.399993896484375</AltitudeMeters>
            <DistanceMeters>NAN</DistanceMeters>
          </Trackpoint>
          <Trackpoint>
            <Time>2021-08-11T12:40:17.000Z</Time>
            <Position>
              <LatitudeDegrees>43.30960021354258060455322265625</LatitudeDegrees>
              <LongitudeDegrees>-1.8259937502443790435791015625</LongitudeDegrees>
            </Position>
            <AltitudeMeters>172.399993896484375</AltitudeMeters>
            <DistanceMeters>NAN</DistanceMeters>
          </Trackpoint>
          <Trackpoint>
            <Time>2021-08-11T12:40:18.000Z</Time>
            <Position>
              <LatitudeDegrees>43.3095929212868213653564453125</LatitudeDegrees>
              <LongitudeDegrees>-1.8260014615952968597412109375</LongitudeDegrees>
            </Position>
            <AltitudeMeters>172.600006103515625</AltitudeMeters>
            <DistanceMeters>NAN</DistanceMeters>
          </Trackpoint>
          <Trackpoint>
            <Time>2021-08-11T12:40:19.000Z</Time>
            <Position>
              <LatitudeDegrees>43.30958059988915920257568359375</LatitudeDegrees>
              <LongitudeDegrees>-1.82601747103035449981689453125</LongitudeDegrees>
            </Position>
            <AltitudeMeters>172.8000030517578125</AltitudeMeters>
            <DistanceMeters>NAN</DistanceMeters>
          </Trackpoint>
          <Trackpoint>
            <Time>2021-08-11T12:40:20.000Z</Time>
            <Position>
              <LatitudeDegrees>43.309570960700511932373046875</LatitudeDegrees>
              <LongitudeDegrees>-1.82603607885539531707763671875</LongitudeDegrees>
            </Position>
            <AltitudeMeters>173</AltitudeMeters>
            <DistanceMeters>NAN</DistanceMeters>
          </Trackpoint>
          <Trackpoint>
            <Time>2021-08-11T12:40:21.000Z</Time>
            <Position>
              <LatitudeDegrees>43.30956526100635528564453125</LatitudeDegrees>
              <LongitudeDegrees>-1.8260626494884490966796875</LongitudeDegrees>
            </Position>
            <AltitudeMeters>173.1999969482421875</AltitudeMeters>
            <DistanceMeters>NAN</DistanceMeters>
          </Trackpoint>
          <Trackpoint>
            <Time>2021-08-11T12:40:22.000Z</Time>
            <Position>
              <LatitudeDegrees>43.30956350080668926239013671875</LatitudeDegrees>
              <LongitudeDegrees>-1.82609458453953266143798828125</LongitudeDegrees>
            </Position>
            <AltitudeMeters>173.1999969482421875</AltitudeMeters>
            <DistanceMeters>NAN</DistanceMeters>
          </Trackpoint>
          <Trackpoint>
            <Time>2021-08-11T12:40:23.000Z</Time>
            <Position>
              <LatitudeDegrees>43.30956316553056240081787109375</LatitudeDegrees>
              <LongitudeDegrees>-1.8261224962770938873291015625</LongitudeDegrees>
            </Position>
            <AltitudeMeters>173.600006103515625</AltitudeMeters>
            <DistanceMeters>NAN</DistanceMeters>
          </Trackpoint>
          <Trackpoint>
            <Time>2021-08-11T12:40:24.000Z</Time>
            <Position>
              <LatitudeDegrees>43.30955176614224910736083984375</LatitudeDegrees>
              <LongitudeDegrees>-1.82614923454821109771728515625</LongitudeDegrees>
            </Position>
            <AltitudeMeters>173.8000030517578125</AltitudeMeters>
            <DistanceMeters>NAN</DistanceMeters>
          </Trackpoint>
          <Trackpoint>
            <Time>2021-08-11T12:40:25.000Z</Time>
            <Position>
              <LatitudeDegrees>43.30953584052622318267822265625</LatitudeDegrees>
              <LongitudeDegrees>-1.82617387734353542327880859375</LongitudeDegrees>
            </Position>
            <AltitudeMeters>173.8000030517578125</AltitudeMeters>
            <DistanceMeters>NAN</DistanceMeters>
          </Trackpoint>
          <Trackpoint>
            <Time>2021-08-11T12:40:26.000Z</Time>
            <Position>
              <LatitudeDegrees>43.30953282304108142852783203125</LatitudeDegrees>
              <LongitudeDegrees>-1.8261779844760894775390625</LongitudeDegrees>
            </Position>
            <AltitudeMeters>174.1999969482421875</AltitudeMeters>
            <DistanceMeters>NAN</DistanceMeters>
          </Trackpoint>
          <Trackpoint>
            <Time>2021-08-11T12:40:27.000Z</Time>
            <Position>
              <LatitudeDegrees>43.30953282304108142852783203125</LatitudeDegrees>
              <LongitudeDegrees>-1.8261779844760894775390625</LongitudeDegrees>
            </Position>
            <AltitudeMeters>174.1999969482421875</AltitudeMeters>
            <DistanceMeters>NAN</DistanceMeters>
          </Trackpoint>
          <Trackpoint>
            <Time>2021-08-11T12:40:28.000Z</Time>
            <Position>
              <LatitudeDegrees>43.30953282304108142852783203125</LatitudeDegrees>
              <LongitudeDegrees>-1.8261779844760894775390625</LongitudeDegrees>
            </Position>
            <AltitudeMeters>174.600006103515625</AltitudeMeters>
            <DistanceMeters>NAN</DistanceMeters>
          </Trackpoint>
          <Trackpoint>
            <Time>2021-08-11T12:40:29.000Z</Time>
            <Position>
              <LatitudeDegrees>43.3095238544046878814697265625</LatitudeDegrees>
              <LongitudeDegrees>-1.82620187290012836456298828125</LongitudeDegrees>
            </Position>
            <AltitudeMeters>174.8000030517578125</AltitudeMeters>
            <DistanceMeters>NAN</DistanceMeters>
          </Trackpoint>
          <Trackpoint>
            <Time>2021-08-11T12:40:30.000Z</Time>
            <Position>
              <LatitudeDegrees>43.3095154725015163421630859375</LatitudeDegrees>
              <LongitudeDegrees>-1.826238669455051422119140625</LongitudeDegrees>
            </Position>
            <AltitudeMeters>175</AltitudeMeters>
            <DistanceMeters>NAN</DistanceMeters>
          </Trackpoint>
          <Trackpoint>
            <Time>2021-08-11T12:40:31.000Z</Time>
            <Position>
              <LatitudeDegrees>43.30950491130352020263671875</LatitudeDegrees>
              <LongitudeDegrees>-1.8262535892426967620849609375</LongitudeDegrees>
            </Position>
            <AltitudeMeters>175.399993896484375</AltitudeMeters>
            <DistanceMeters>NAN</DistanceMeters>
          </Trackpoint>
          <Trackpoint>
            <Time>2021-08-11T12:40:32.000Z</Time>
            <Position>
              <LatitudeDegrees>43.309505917131900787353515625</LatitudeDegrees>
              <LongitudeDegrees>-1.8262693472206592559814453125</LongitudeDegrees>
            </Position>
            <AltitudeMeters>175.399993896484375</AltitudeMeters>
            <DistanceMeters>NAN</DistanceMeters>
          </Trackpoint>
          <Trackpoint>
            <Time>2021-08-11T12:40:33.000Z</Time>
            <Position>
              <LatitudeDegrees>43.3095080964267253875732421875</LatitudeDegrees>
              <LongitudeDegrees>-1.8262799084186553955078125</LongitudeDegrees>
            </Position>
            <AltitudeMeters>175.8000030517578125</AltitudeMeters>
            <DistanceMeters>NAN</DistanceMeters>
          </Trackpoint>
          <Trackpoint>
            <Time>2021-08-11T12:40:34.000Z</Time>
            <Position>
              <LatitudeDegrees>43.309513628482818603515625</LatitudeDegrees>
              <LongitudeDegrees>-1.82631134055554866790771484375</LongitudeDegrees>
            </Position>
            <AltitudeMeters>175.8000030517578125</AltitudeMeters>
            <DistanceMeters>NAN</DistanceMeters>
          </Trackpoint>
          <Trackpoint>
            <Time>2021-08-11T12:40:35.000Z</Time>
            <Position>
              <LatitudeDegrees>43.309519328176975250244140625</LatitudeDegrees>
              <LongitudeDegrees>-1.82633648626506328582763671875</LongitudeDegrees>
            </Position>
            <AltitudeMeters>176</AltitudeMeters>
            <DistanceMeters>NAN</DistanceMeters>
          </Trackpoint>
          <Trackpoint>
            <Time>2021-08-11T12:40:36.000Z</Time>
            <Position>
              <LatitudeDegrees>43.30951857380568981170654296875</LatitudeDegrees>
              <LongitudeDegrees>-1.8263551779091358184814453125</LongitudeDegrees>
            </Position>
            <AltitudeMeters>176.1999969482421875</AltitudeMeters>
            <DistanceMeters>NAN</DistanceMeters>
          </Trackpoint>
          <Trackpoint>
            <Time>2021-08-11T12:40:37.000Z</Time>
            <Position>
              <LatitudeDegrees>43.3095144666731357574462890625</LatitudeDegrees>
              <LongitudeDegrees>-1.82638878934085369110107421875</LongitudeDegrees>
            </Position>
            <AltitudeMeters>176.1999969482421875</AltitudeMeters>
            <DistanceMeters>NAN</DistanceMeters>
          </Trackpoint>
          <Trackpoint>
            <Time>2021-08-11T12:40:38.000Z</Time>
            <Position>
              <LatitudeDegrees>43.309515304863452911376953125</LatitudeDegrees>
              <LongitudeDegrees>-1.82642047293484210968017578125</LongitudeDegrees>
            </Position>
            <AltitudeMeters>176.399993896484375</AltitudeMeters>
            <DistanceMeters>NAN</DistanceMeters>
          </Trackpoint>
          <Trackpoint>
            <Time>2021-08-11T12:40:39.000Z</Time>
            <Position>
              <LatitudeDegrees>43.3095188252627849578857421875</LatitudeDegrees>
              <LongitudeDegrees>-1.82646699249744415283203125</LongitudeDegrees>
            </Position>
            <AltitudeMeters>176.600006103515625</AltitudeMeters>
            <DistanceMeters>NAN</DistanceMeters>
          </Trackpoint>
          <Trackpoint>
            <Time>2021-08-11T12:40:40.000Z</Time>
            <Position>
              <LatitudeDegrees>43.30952326767146587371826171875</LatitudeDegrees>
              <LongitudeDegrees>-1.82648903690278530120849609375</LongitudeDegrees>
            </Position>
            <AltitudeMeters>177</AltitudeMeters>
            <DistanceMeters>NAN</DistanceMeters>
          </Trackpoint>
          <Trackpoint>
            <Time>2021-08-11T12:40:41.000Z</Time>
            <Position>
              <LatitudeDegrees>43.30951790325343608856201171875</LatitudeDegrees>
              <LongitudeDegrees>-1.82650445960462093353271484375</LongitudeDegrees>
            </Position>
            <AltitudeMeters>177.1999969482421875</AltitudeMeters>
            <DistanceMeters>NAN</DistanceMeters>
          </Trackpoint>
          <Trackpoint>
            <Time>2021-08-11T12:40:42.000Z</Time>
            <Position>
              <LatitudeDegrees>43.3095054142177104949951171875</LatitudeDegrees>
              <LongitudeDegrees>-1.82651401497423648834228515625</LongitudeDegrees>
            </Position>
            <AltitudeMeters>177.1999969482421875</AltitudeMeters>
            <DistanceMeters>NAN</DistanceMeters>
          </Trackpoint>
          <Trackpoint>
            <Time>2021-08-11T12:40:43.000Z</Time>
            <Position>
              <LatitudeDegrees>43.30948471091687679290771484375</LatitudeDegrees>
              <LongitudeDegrees>-1.8265261687338352203369140625</LongitudeDegrees>
            </Position>
            <AltitudeMeters>177.399993896484375</AltitudeMeters>
            <DistanceMeters>NAN</DistanceMeters>
          </Trackpoint>
          <Trackpoint>
            <Time>2021-08-11T12:40:44.000Z</Time>
            <Position>
              <LatitudeDegrees>43.30946694128215312957763671875</LatitudeDegrees>
              <LongitudeDegrees>-1.82655676268041133880615234375</LongitudeDegrees>
            </Position>
            <AltitudeMeters>177.8000030517578125</AltitudeMeters>
            <DistanceMeters>NAN</DistanceMeters>
          </Trackpoint>
          <Trackpoint>
            <Time>2021-08-11T12:40:45.000Z</Time>
            <Position>
              <LatitudeDegrees>43.30945487134158611297607421875</LatitudeDegrees>
              <LongitudeDegrees>-1.8265845067799091339111328125</LongitudeDegrees>
            </Position>
            <AltitudeMeters>178</AltitudeMeters>
            <DistanceMeters>NAN</DistanceMeters>
          </Trackpoint>
          <Trackpoint>
            <Time>2021-08-11T12:40:46.000Z</Time>
            <Position>
              <LatitudeDegrees>43.309446908533573150634765625</LatitudeDegrees>
              <LongitudeDegrees>-1.8266017735004425048828125</LongitudeDegrees>
            </Position>
            <AltitudeMeters>178.1999969482421875</AltitudeMeters>
            <DistanceMeters>NAN</DistanceMeters>
          </Trackpoint>
          <Trackpoint>
            <Time>2021-08-11T12:40:47.000Z</Time>
            <Position>
              <LatitudeDegrees>43.309426121413707733154296875</LatitudeDegrees>
              <LongitudeDegrees>-1.8266109935939311981201171875</LongitudeDegrees>
            </Position>
            <AltitudeMeters>178.600006103515625</AltitudeMeters>
            <DistanceMeters>NAN</DistanceMeters>
          </Trackpoint>
          <Trackpoint>
            <Time>2021-08-11T12:40:48.000Z</Time>
            <Position>
              <LatitudeDegrees>43.30942017026245594024658203125</LatitudeDegrees>
              <LongitudeDegrees>-1.82662985287606716156005859375</LongitudeDegrees>
            </Position>
            <AltitudeMeters>178.600006103515625</AltitudeMeters>
            <DistanceMeters>NAN</DistanceMeters>
          </Trackpoint>
          <Trackpoint>
            <Time>2021-08-11T12:40:49.000Z</Time>
            <Position>
              <LatitudeDegrees>43.30942167900502681732177734375</LatitudeDegrees>
              <LongitudeDegrees>-1.82662515901029109954833984375</LongitudeDegrees>
            </Position>
            <AltitudeMeters>179</AltitudeMeters>
            <DistanceMeters>NAN</DistanceMeters>
          </Trackpoint>
          <Trackpoint>
            <Time>2021-08-11T12:40:50.000Z</Time>
            <Position>
              <LatitudeDegrees>43.309410698711872100830078125</LatitudeDegrees>
              <LongitudeDegrees>-1.82664209045469760894775390625</LongitudeDegrees>
            </Position>
            <AltitudeMeters>179</AltitudeMeters>
            <DistanceMeters>NAN</DistanceMeters>
          </Trackpoint>
          <Trackpoint>
            <Time>2021-08-11T12:40:51.000Z</Time>
            <Position>
              <LatitudeDegrees>43.30939837731420993804931640625</LatitudeDegrees>
              <LongitudeDegrees>-1.826670505106449127197265625</LongitudeDegrees>
            </Position>
            <AltitudeMeters>179.399993896484375</AltitudeMeters>
            <DistanceMeters>NAN</DistanceMeters>
          </Trackpoint>
          <Trackpoint>
            <Time>2021-08-11T12:40:52.000Z</Time>
            <Position>
              <LatitudeDegrees>43.309377841651439666748046875</LatitudeDegrees>
              <LongitudeDegrees>-1.82670411653816699981689453125</LongitudeDegrees>
            </Position>
            <AltitudeMeters>179.8000030517578125</AltitudeMeters>
            <DistanceMeters>NAN</DistanceMeters>
          </Trackpoint>
          <Trackpoint>
            <Time>2021-08-11T12:40:53.000Z</Time>
            <Position>
              <LatitudeDegrees>43.30936049111187458038330078125</LatitudeDegrees>
              <LongitudeDegrees>-1.8267216347157955169677734375</LongitudeDegrees>
            </Position>
            <AltitudeMeters>180</AltitudeMeters>
            <DistanceMeters>NAN</DistanceMeters>
          </Trackpoint>
          <Trackpoint>
            <Time>2021-08-11T12:40:54.000Z</Time>
            <Position>
              <LatitudeDegrees>43.30934791825711727142333984375</LatitudeDegrees>
              <LongitudeDegrees>-1.82673144154250621795654296875</LongitudeDegrees>
            </Position>
            <AltitudeMeters>180.1999969482421875</AltitudeMeters>
            <DistanceMeters>NAN</DistanceMeters>
          </Trackpoint>
          <Trackpoint>
            <Time>2021-08-11T12:40:55.000Z</Time>
            <Position>
              <LatitudeDegrees>43.309355713427066802978515625</LatitudeDegrees>
              <LongitudeDegrees>-1.8267239816486835479736328125</LongitudeDegrees>
            </Position>
            <AltitudeMeters>180.399993896484375</AltitudeMeters>
            <DistanceMeters>NAN</DistanceMeters>
          </Trackpoint>
          <Trackpoint>
            <Time>2021-08-11T12:40:56.000Z</Time>
            <Position>
              <LatitudeDegrees>43.3093397878110408782958984375</LatitudeDegrees>
              <LongitudeDegrees>-1.82674418203532695770263671875</LongitudeDegrees>
            </Position>
            <AltitudeMeters>180.8000030517578125</AltitudeMeters>
            <DistanceMeters>NAN</DistanceMeters>
          </Trackpoint>
          <Trackpoint>
            <Time>2021-08-11T12:40:57.000Z</Time>
            <Position>
              <LatitudeDegrees>43.30933333374559879302978515625</LatitudeDegrees>
              <LongitudeDegrees>-1.82676647789776325225830078125</LongitudeDegrees>
            </Position>
            <AltitudeMeters>180.8000030517578125</AltitudeMeters>
            <DistanceMeters>NAN</DistanceMeters>
          </Trackpoint>
          <Trackpoint>
            <Time>2021-08-11T12:40:58.000Z</Time>
            <Position>
              <LatitudeDegrees>43.30932386219501495361328125</LatitudeDegrees>
              <LongitudeDegrees>-1.82678843848407268524169921875</LongitudeDegrees>
            </Position>
            <AltitudeMeters>181.1999969482421875</AltitudeMeters>
            <DistanceMeters>NAN</DistanceMeters>
          </Trackpoint>
          <Trackpoint>
            <Time>2021-08-11T12:40:59.000Z</Time>
            <Position>
              <LatitudeDegrees>43.309314139187335968017578125</LatitudeDegrees>
              <LongitudeDegrees>-1.8268056213855743408203125</LongitudeDegrees>
            </Position>
            <AltitudeMeters>181.600006103515625</AltitudeMeters>
            <DistanceMeters>NAN</DistanceMeters>
          </Trackpoint>
          <Trackpoint>
            <Time>2021-08-11T12:41:00.000Z</Time>
            <Position>
              <LatitudeDegrees>43.3093045838177204132080078125</LatitudeDegrees>
              <LongitudeDegrees>-1.82683805935084819793701171875</LongitudeDegrees>
            </Position>
            <AltitudeMeters>181.600006103515625</AltitudeMeters>
            <DistanceMeters>NAN</DistanceMeters>
          </Trackpoint>
          <Trackpoint>
            <Time>2021-08-11T12:41:01.000Z</Time>
            <Position>
              <LatitudeDegrees>43.3092931844294071197509765625</LatitudeDegrees>
              <LongitudeDegrees>-1.826859600841999053955078125</LongitudeDegrees>
            </Position>
            <AltitudeMeters>181.8000030517578125</AltitudeMeters>
            <DistanceMeters>NAN</DistanceMeters>
          </Trackpoint>
          <Trackpoint>
            <Time>2021-08-11T12:41:02.000Z</Time>
            <Position>
              <LatitudeDegrees>43.30928689800202846527099609375</LatitudeDegrees>
              <LongitudeDegrees>-1.82687343098223209381103515625</LongitudeDegrees>
            </Position>
            <AltitudeMeters>182.1999969482421875</AltitudeMeters>
            <DistanceMeters>NAN</DistanceMeters>
          </Trackpoint>
          <Trackpoint>
            <Time>2021-08-11T12:41:03.000Z</Time>
            <Position>
              <LatitudeDegrees>43.30928388051688671112060546875</LatitudeDegrees>
              <LongitudeDegrees>-1.82688047178089618682861328125</LongitudeDegrees>
            </Position>
            <AltitudeMeters>182.600006103515625</AltitudeMeters>
            <DistanceMeters>NAN</DistanceMeters>
          </Trackpoint>
          <Trackpoint>
            <Time>2021-08-11T12:41:04.000Z</Time>
            <Position>
              <LatitudeDegrees>43.30927968956530094146728515625</LatitudeDegrees>
              <LongitudeDegrees>-1.826889105141162872314453125</LongitudeDegrees>
            </Position>
            <AltitudeMeters>182.8000030517578125</AltitudeMeters>
            <DistanceMeters>NAN</DistanceMeters>
          </Trackpoint>
          <Trackpoint>
            <Time>2021-08-11T12:41:05.000Z</Time>
            <Position>
              <LatitudeDegrees>43.30927834846079349517822265625</LatitudeDegrees>
              <LongitudeDegrees>-1.82689891196787357330322265625</LongitudeDegrees>
            </Position>
            <AltitudeMeters>183</AltitudeMeters>
            <DistanceMeters>NAN</DistanceMeters>
          </Trackpoint>
          <Trackpoint>
            <Time>2021-08-11T12:41:06.000Z</Time>
            <Position>
              <LatitudeDegrees>43.30928354524075984954833984375</LatitudeDegrees>
              <LongitudeDegrees>-1.82691668160259723663330078125</LongitudeDegrees>
            </Position>
            <AltitudeMeters>183</AltitudeMeters>
            <DistanceMeters>NAN</DistanceMeters>
          </Trackpoint>
          <Trackpoint>
            <Time>2021-08-11T12:41:07.000Z</Time>
            <Position>
              <LatitudeDegrees>43.3092837966978549957275390625</LatitudeDegrees>
              <LongitudeDegrees>-1.82693143375217914581298828125</LongitudeDegrees>
            </Position>
            <AltitudeMeters>183.399993896484375</AltitudeMeters>
            <DistanceMeters>NAN</DistanceMeters>
          </Trackpoint>
          <Trackpoint>
            <Time>2021-08-11T12:41:08.000Z</Time>
            <Position>
              <LatitudeDegrees>43.3092827908694744110107421875</LatitudeDegrees>
              <LongitudeDegrees>-1.82695205323398113250732421875</LongitudeDegrees>
            </Position>
            <AltitudeMeters>183.8000030517578125</AltitudeMeters>
            <DistanceMeters>NAN</DistanceMeters>
          </Trackpoint>
          <Trackpoint>
            <Time>2021-08-11T12:41:09.000Z</Time>
            <Position>
              <LatitudeDegrees>43.30928287468850612640380859375</LatitudeDegrees>
              <LongitudeDegrees>-1.82696261443197727203369140625</LongitudeDegrees>
            </Position>
            <AltitudeMeters>183.8000030517578125</AltitudeMeters>
            <DistanceMeters>NAN</DistanceMeters>
          </Trackpoint>
          <Trackpoint>
            <Time>2021-08-11T12:41:10.000Z</Time>
            <Position>
              <LatitudeDegrees>43.3092807792127132415771484375</LatitudeDegrees>
              <LongitudeDegrees>-1.8269724212586879730224609375</LongitudeDegrees>
            </Position>
            <AltitudeMeters>184.1999969482421875</AltitudeMeters>
            <DistanceMeters>NAN</DistanceMeters>
          </Trackpoint>
          <Trackpoint>
            <Time>2021-08-11T12:41:11.000Z</Time>
            <Position>
              <LatitudeDegrees>43.30927214585244655609130859375</LatitudeDegrees>
              <LongitudeDegrees>-1.82698692195117473602294921875</LongitudeDegrees>
            </Position>
            <AltitudeMeters>184.399993896484375</AltitudeMeters>
            <DistanceMeters>NAN</DistanceMeters>
          </Trackpoint>
          <Trackpoint>
            <Time>2021-08-11T12:41:12.000Z</Time>
            <Position>
              <LatitudeDegrees>43.3092646859586238861083984375</LatitudeDegrees>
              <LongitudeDegrees>-1.8270029313862323760986328125</LongitudeDegrees>
            </Position>
            <AltitudeMeters>184.8000030517578125</AltitudeMeters>
            <DistanceMeters>NAN</DistanceMeters>
          </Trackpoint>
          <Trackpoint>
            <Time>2021-08-11T12:41:13.000Z</Time>
            <Position>
              <LatitudeDegrees>43.30925873480737209320068359375</LatitudeDegrees>
              <LongitudeDegrees>-1.82701223529875278472900390625</LongitudeDegrees>
            </Position>
            <AltitudeMeters>185</AltitudeMeters>
            <DistanceMeters>NAN</DistanceMeters>
          </Trackpoint>
          <Trackpoint>
            <Time>2021-08-11T12:41:14.000Z</Time>
            <Position>
              <LatitudeDegrees>43.309253118932247161865234375</LatitudeDegrees>
              <LongitudeDegrees>-1.827026903629302978515625</LongitudeDegrees>
            </Position>
            <AltitudeMeters>185.1999969482421875</AltitudeMeters>
            <DistanceMeters>NAN</DistanceMeters>
          </Trackpoint>
          <Trackpoint>
            <Time>2021-08-11T12:41:15.000Z</Time>
            <Position>
              <LatitudeDegrees>43.30924817360937595367431640625</LatitudeDegrees>
              <LongitudeDegrees>-1.82703721337020397186279296875</LongitudeDegrees>
            </Position>
            <AltitudeMeters>185.600006103515625</AltitudeMeters>
            <DistanceMeters>NAN</DistanceMeters>
          </Trackpoint>
          <Trackpoint>
            <Time>2021-08-11T12:41:16.000Z</Time>
            <Position>
              <LatitudeDegrees>43.309246413409709930419921875</LatitudeDegrees>
              <LongitudeDegrees>-1.82704308070242404937744140625</LongitudeDegrees>
            </Position>
            <AltitudeMeters>185.8000030517578125</AltitudeMeters>
            <DistanceMeters>NAN</DistanceMeters>
          </Trackpoint>
          <Trackpoint>
            <Time>2021-08-11T12:41:17.000Z</Time>
            <Position>
              <LatitudeDegrees>43.309246413409709930419921875</LatitudeDegrees>
              <LongitudeDegrees>-1.82704308070242404937744140625</LongitudeDegrees>
            </Position>
            <AltitudeMeters>186.1999969482421875</AltitudeMeters>
            <DistanceMeters>NAN</DistanceMeters>
          </Trackpoint>
          <Trackpoint>
            <Time>2021-08-11T12:41:18.000Z</Time>
            <Position>
              <LatitudeDegrees>43.309242725372314453125</LatitudeDegrees>
              <LongitudeDegrees>-1.82705171406269073486328125</LongitudeDegrees>
            </Position>
            <AltitudeMeters>186.1999969482421875</AltitudeMeters>
            <DistanceMeters>NAN</DistanceMeters>
          </Trackpoint>
          <Trackpoint>
            <Time>2021-08-11T12:41:19.000Z</Time>
            <Position>
              <LatitudeDegrees>43.30923803150653839111328125</LatitudeDegrees>
              <LongitudeDegrees>-1.82707124389708042144775390625</LongitudeDegrees>
            </Position>
            <AltitudeMeters>186.600006103515625</AltitudeMeters>
            <DistanceMeters>NAN</DistanceMeters>
          </Trackpoint>
          <Trackpoint>
            <Time>2021-08-11T12:41:20.000Z</Time>
            <Position>
              <LatitudeDegrees>43.3092378638684749603271484375</LatitudeDegrees>
              <LongitudeDegrees>-1.8270914442837238311767578125</LongitudeDegrees>
            </Position>
            <AltitudeMeters>186.8000030517578125</AltitudeMeters>
            <DistanceMeters>NAN</DistanceMeters>
          </Trackpoint>
          <Trackpoint>
            <Time>2021-08-11T12:41:21.000Z</Time>
            <Position>
              <LatitudeDegrees>43.3092415519058704376220703125</LatitudeDegrees>
              <LongitudeDegrees>-1.82711097411811351776123046875</LongitudeDegrees>
            </Position>
            <AltitudeMeters>187</AltitudeMeters>
            <DistanceMeters>NAN</DistanceMeters>
          </Trackpoint>
          <Trackpoint>
            <Time>2021-08-11T12:41:22.000Z</Time>
            <Position>
              <LatitudeDegrees>43.30924197100102901458740234375</LatitudeDegrees>
              <LongitudeDegrees>-1.82712907902896404266357421875</LongitudeDegrees>
            </Position>
            <AltitudeMeters>187.1999969482421875</AltitudeMeters>
            <DistanceMeters>NAN</DistanceMeters>
          </Trackpoint>
          <Trackpoint>
            <Time>2021-08-11T12:41:23.000Z</Time>
            <Position>
              <LatitudeDegrees>43.309240043163299560546875</LatitudeDegrees>
              <LongitudeDegrees>-1.82714768685400485992431640625</LongitudeDegrees>
            </Position>
            <AltitudeMeters>187.1999969482421875</AltitudeMeters>
            <DistanceMeters>NAN</DistanceMeters>
          </Trackpoint>
          <Trackpoint>
            <Time>2021-08-11T12:41:24.000Z</Time>
            <Position>
              <LatitudeDegrees>43.3092412166297435760498046875</LatitudeDegrees>
              <LongitudeDegrees>-1.82716294191777706146240234375</LongitudeDegrees>
            </Position>
            <AltitudeMeters>188</AltitudeMeters>
            <DistanceMeters>NAN</DistanceMeters>
          </Trackpoint>
          <Trackpoint>
            <Time>2021-08-11T12:41:25.000Z</Time>
            <Position>
              <LatitudeDegrees>43.309239037334918975830078125</LatitudeDegrees>
              <LongitudeDegrees>-1.82718087919056415557861328125</LongitudeDegrees>
            </Position>
            <AltitudeMeters>188</AltitudeMeters>
            <DistanceMeters>NAN</DistanceMeters>
          </Trackpoint>
          <Trackpoint>
            <Time>2021-08-11T12:41:26.000Z</Time>
            <Position>
              <LatitudeDegrees>43.309233672916889190673828125</LatitudeDegrees>
              <LongitudeDegrees>-1.8271972239017486572265625</LongitudeDegrees>
            </Position>
            <AltitudeMeters>188.399993896484375</AltitudeMeters>
            <DistanceMeters>NAN</DistanceMeters>
          </Trackpoint>
          <Trackpoint>
            <Time>2021-08-11T12:41:27.000Z</Time>
            <Position>
              <LatitudeDegrees>43.30922788940370082855224609375</LatitudeDegrees>
              <LongitudeDegrees>-1.82721608318388462066650390625</LongitudeDegrees>
            </Position>
            <AltitudeMeters>188.399993896484375</AltitudeMeters>
            <DistanceMeters>NAN</DistanceMeters>
          </Trackpoint>
          <Trackpoint>
            <Time>2021-08-11T12:41:28.000Z</Time>
            <Position>
              <LatitudeDegrees>43.3092281408607959747314453125</LatitudeDegrees>
              <LongitudeDegrees>-1.8272463418543338775634765625</LongitudeDegrees>
            </Position>
            <AltitudeMeters>188.600006103515625</AltitudeMeters>
            <DistanceMeters>NAN</DistanceMeters>
          </Trackpoint>
          <Trackpoint>
            <Time>2021-08-11T12:41:29.000Z</Time>
            <Position>
              <LatitudeDegrees>43.30923409201204776763916015625</LatitudeDegrees>
              <LongitudeDegrees>-1.82727023027837276458740234375</LongitudeDegrees>
            </Position>
            <AltitudeMeters>188.8000030517578125</AltitudeMeters>
            <DistanceMeters>NAN</DistanceMeters>
          </Trackpoint>
          <Trackpoint>
            <Time>2021-08-11T12:41:30.000Z</Time>
            <Position>
              <LatitudeDegrees>43.30923928879201412200927734375</LatitudeDegrees>
              <LongitudeDegrees>-1.82729185558855533599853515625</LongitudeDegrees>
            </Position>
            <AltitudeMeters>188.8000030517578125</AltitudeMeters>
            <DistanceMeters>NAN</DistanceMeters>
          </Trackpoint>
          <Trackpoint>
            <Time>2021-08-11T12:41:31.000Z</Time>
            <Position>
              <LatitudeDegrees>43.30924079753458499908447265625</LatitudeDegrees>
              <LongitudeDegrees>-1.82729856111109256744384765625</LongitudeDegrees>
            </Position>
            <AltitudeMeters>189</AltitudeMeters>
            <DistanceMeters>NAN</DistanceMeters>
          </Trackpoint>
          <Trackpoint>
            <Time>2021-08-11T12:41:32.000Z</Time>
            <Position>
              <LatitudeDegrees>43.30924431793391704559326171875</LatitudeDegrees>
              <LongitudeDegrees>-1.8273157440125942230224609375</LongitudeDegrees>
            </Position>
            <AltitudeMeters>189</AltitudeMeters>
            <DistanceMeters>NAN</DistanceMeters>
          </Trackpoint>
          <Trackpoint>
            <Time>2021-08-11T12:41:33.000Z</Time>
            <Position>
              <LatitudeDegrees>43.3092502690851688385009765625</LatitudeDegrees>
              <LongitudeDegrees>-1.82734013535082340240478515625</LongitudeDegrees>
            </Position>
            <AltitudeMeters>189.1999969482421875</AltitudeMeters>
            <DistanceMeters>NAN</DistanceMeters>
          </Trackpoint>
          <Trackpoint>
            <Time>2021-08-11T12:41:34.000Z</Time>
            <Position>
              <LatitudeDegrees>43.30925236456096172332763671875</LatitudeDegrees>
              <LongitudeDegrees>-1.82736016809940338134765625</LongitudeDegrees>
            </Position>
            <AltitudeMeters>189.399993896484375</AltitudeMeters>
            <DistanceMeters>NAN</DistanceMeters>
          </Trackpoint>
          <Trackpoint>
            <Time>2021-08-11T12:41:35.000Z</Time>
            <Position>
              <LatitudeDegrees>43.309257812798023223876953125</LatitudeDegrees>
              <LongitudeDegrees>-1.8273757584393024444580078125</LongitudeDegrees>
            </Position>
            <AltitudeMeters>189.600006103515625</AltitudeMeters>
            <DistanceMeters>NAN</DistanceMeters>
          </Trackpoint>
          <Trackpoint>
            <Time>2021-08-11T12:41:36.000Z</Time>
            <Position>
              <LatitudeDegrees>43.30925337038934230804443359375</LatitudeDegrees>
              <LongitudeDegrees>-1.82739947922527790069580078125</LongitudeDegrees>
            </Position>
            <AltitudeMeters>189.8000030517578125</AltitudeMeters>
            <DistanceMeters>NAN</DistanceMeters>
          </Trackpoint>
          <Trackpoint>
            <Time>2021-08-11T12:41:37.000Z</Time>
            <Position>
              <LatitudeDegrees>43.30925823189318180084228515625</LatitudeDegrees>
              <LongitudeDegrees>-1.8274089507758617401123046875</LongitudeDegrees>
            </Position>
            <AltitudeMeters>189.8000030517578125</AltitudeMeters>
            <DistanceMeters>NAN</DistanceMeters>
          </Trackpoint>
          <Trackpoint>
            <Time>2021-08-11T12:41:38.000Z</Time>
            <Position>
              <LatitudeDegrees>43.3092660270631313323974609375</LatitudeDegrees>
              <LongitudeDegrees>-1.8274240382015705108642578125</LongitudeDegrees>
            </Position>
            <AltitudeMeters>190.1999969482421875</AltitudeMeters>
            <DistanceMeters>NAN</DistanceMeters>
          </Trackpoint>
          <Trackpoint>
            <Time>2021-08-11T12:41:39.000Z</Time>
            <Position>
              <LatitudeDegrees>43.3092616684734821319580078125</LatitudeDegrees>
              <LongitudeDegrees>-1.82744105346500873565673828125</LongitudeDegrees>
            </Position>
            <AltitudeMeters>190.399993896484375</AltitudeMeters>
            <DistanceMeters>NAN</DistanceMeters>
          </Trackpoint>
          <Trackpoint>
            <Time>2021-08-11T12:41:40.000Z</Time>
            <Position>
              <LatitudeDegrees>43.30925144255161285400390625</LatitudeDegrees>
              <LongitudeDegrees>-1.82745932601392269134521484375</LongitudeDegrees>
            </Position>
            <AltitudeMeters>190.600006103515625</AltitudeMeters>
            <DistanceMeters>NAN</DistanceMeters>
          </Trackpoint>
          <Trackpoint>
            <Time>2021-08-11T12:41:41.000Z</Time>
            <Position>
              <LatitudeDegrees>43.30924213863909244537353515625</LatitudeDegrees>
              <LongitudeDegrees>-1.82747407816350460052490234375</LongitudeDegrees>
            </Position>
            <AltitudeMeters>190.8000030517578125</AltitudeMeters>
            <DistanceMeters>NAN</DistanceMeters>
          </Trackpoint>
          <Trackpoint>
            <Time>2021-08-11T12:41:42.000Z</Time>
            <Position>
              <LatitudeDegrees>43.30923928879201412200927734375</LatitudeDegrees>
              <LongitudeDegrees>-1.82749159634113311767578125</LongitudeDegrees>
            </Position>
            <AltitudeMeters>191</AltitudeMeters>
            <DistanceMeters>NAN</DistanceMeters>
          </Trackpoint>
          <Trackpoint>
            <Time>2021-08-11T12:41:43.000Z</Time>
            <Position>
              <LatitudeDegrees>43.30923803150653839111328125</LatitudeDegrees>
              <LongitudeDegrees>-1.82751280255615711212158203125</LongitudeDegrees>
            </Position>
            <AltitudeMeters>191.1999969482421875</AltitudeMeters>
            <DistanceMeters>NAN</DistanceMeters>
          </Trackpoint>
          <Trackpoint>
            <Time>2021-08-11T12:41:44.000Z</Time>
            <Position>
              <LatitudeDegrees>43.309237696230411529541015625</LatitudeDegrees>
              <LongitudeDegrees>-1.8275246210396289825439453125</LongitudeDegrees>
            </Position>
            <AltitudeMeters>191.399993896484375</AltitudeMeters>
            <DistanceMeters>NAN</DistanceMeters>
          </Trackpoint>
          <Trackpoint>
            <Time>2021-08-11T12:41:45.000Z</Time>
            <Position>
              <LatitudeDegrees>43.30923643894493579864501953125</LatitudeDegrees>
              <LongitudeDegrees>-1.82754230685532093048095703125</LongitudeDegrees>
            </Position>
            <AltitudeMeters>191.600006103515625</AltitudeMeters>
            <DistanceMeters>NAN</DistanceMeters>
          </Trackpoint>
          <Trackpoint>
            <Time>2021-08-11T12:41:46.000Z</Time>
            <Position>
              <LatitudeDegrees>43.3092319965362548828125</LatitudeDegrees>
              <LongitudeDegrees>-1.82756108231842517852783203125</LongitudeDegrees>
            </Position>
            <AltitudeMeters>191.600006103515625</AltitudeMeters>
            <DistanceMeters>NAN</DistanceMeters>
          </Trackpoint>
          <Trackpoint>
            <Time>2021-08-11T12:41:47.000Z</Time>
            <Position>
              <LatitudeDegrees>43.30922520719468593597412109375</LatitudeDegrees>
              <LongitudeDegrees>-1.8275772593915462493896484375</LongitudeDegrees>
            </Position>
            <AltitudeMeters>191.8000030517578125</AltitudeMeters>
            <DistanceMeters>NAN</DistanceMeters>
          </Trackpoint>
          <Trackpoint>
            <Time>2021-08-11T12:41:48.000Z</Time>
            <Position>
              <LatitudeDegrees>43.30922051332890987396240234375</LatitudeDegrees>
              <LongitudeDegrees>-1.8275910057127475738525390625</LongitudeDegrees>
            </Position>
            <AltitudeMeters>191.8000030517578125</AltitudeMeters>
            <DistanceMeters>NAN</DistanceMeters>
          </Trackpoint>
          <Trackpoint>
            <Time>2021-08-11T12:41:49.000Z</Time>
            <Position>
              <LatitudeDegrees>43.309218250215053558349609375</LatitudeDegrees>
              <LongitudeDegrees>-1.82759561575949192047119140625</LongitudeDegrees>
            </Position>
            <AltitudeMeters>192</AltitudeMeters>
            <DistanceMeters>NAN</DistanceMeters>
          </Trackpoint>
          <Trackpoint>
            <Time>2021-08-11T12:41:50.000Z</Time>
            <Position>
              <LatitudeDegrees>43.3092200942337512969970703125</LatitudeDegrees>
              <LongitudeDegrees>-1.8276013992726802825927734375</LongitudeDegrees>
            </Position>
            <AltitudeMeters>192</AltitudeMeters>
            <DistanceMeters>NAN</DistanceMeters>
          </Trackpoint>
          <Trackpoint>
            <Time>2021-08-11T12:41:51.000Z</Time>
            <Position>
              <LatitudeDegrees>43.30921933986246585845947265625</LatitudeDegrees>
              <LongitudeDegrees>-1.82761321775615215301513671875</LongitudeDegrees>
            </Position>
            <AltitudeMeters>192</AltitudeMeters>
            <DistanceMeters>NAN</DistanceMeters>
          </Trackpoint>
          <Trackpoint>
            <Time>2021-08-11T12:41:52.000Z</Time>
            <Position>
              <LatitudeDegrees>43.3092184178531169891357421875</LatitudeDegrees>
              <LongitudeDegrees>-1.82763283140957355499267578125</LongitudeDegrees>
            </Position>
            <AltitudeMeters>192.1999969482421875</AltitudeMeters>
            <DistanceMeters>NAN</DistanceMeters>
          </Trackpoint>
          <Trackpoint>
            <Time>2021-08-11T12:41:53.000Z</Time>
            <Position>
              <LatitudeDegrees>43.30921833403408527374267578125</LatitudeDegrees>
              <LongitudeDegrees>-1.82764607481658458709716796875</LongitudeDegrees>
            </Position>
            <AltitudeMeters>192.1999969482421875</AltitudeMeters>
            <DistanceMeters>NAN</DistanceMeters>
          </Trackpoint>
          <Trackpoint>
            <Time>2021-08-11T12:41:54.000Z</Time>
            <Position>
              <LatitudeDegrees>43.30921749584376811981201171875</LatitudeDegrees>
              <LongitudeDegrees>-1.82766619138419628143310546875</LongitudeDegrees>
            </Position>
            <AltitudeMeters>192.1999969482421875</AltitudeMeters>
            <DistanceMeters>NAN</DistanceMeters>
          </Trackpoint>
          <Trackpoint>
            <Time>2021-08-11T12:41:55.000Z</Time>
            <Position>
              <LatitudeDegrees>43.3092177473008632659912109375</LatitudeDegrees>
              <LongitudeDegrees>-1.8276882357895374298095703125</LongitudeDegrees>
            </Position>
            <AltitudeMeters>192.1999969482421875</AltitudeMeters>
            <DistanceMeters>NAN</DistanceMeters>
          </Trackpoint>
          <Trackpoint>
            <Time>2021-08-11T12:41:56.000Z</Time>
            <Position>
              <LatitudeDegrees>43.3092180825769901275634765625</LatitudeDegrees>
              <LongitudeDegrees>-1.82770139537751674652099609375</LongitudeDegrees>
            </Position>
            <AltitudeMeters>192.1999969482421875</AltitudeMeters>
            <DistanceMeters>NAN</DistanceMeters>
          </Trackpoint>
          <Trackpoint>
            <Time>2021-08-11T12:41:57.000Z</Time>
            <Position>
              <LatitudeDegrees>43.309221602976322174072265625</LatitudeDegrees>
              <LongitudeDegrees>-1.82771782390773296356201171875</LongitudeDegrees>
            </Position>
            <AltitudeMeters>192.1999969482421875</AltitudeMeters>
            <DistanceMeters>NAN</DistanceMeters>
          </Trackpoint>
          <Trackpoint>
            <Time>2021-08-11T12:41:58.000Z</Time>
            <Position>
              <LatitudeDegrees>43.309226967394351959228515625</LatitudeDegrees>
              <LongitudeDegrees>-1.82772972621023654937744140625</LongitudeDegrees>
            </Position>
            <AltitudeMeters>192.1999969482421875</AltitudeMeters>
            <DistanceMeters>NAN</DistanceMeters>
          </Trackpoint>
          <Trackpoint>
            <Time>2021-08-11T12:41:59.000Z</Time>
            <Position>
              <LatitudeDegrees>43.309222273528575897216796875</LatitudeDegrees>
              <LongitudeDegrees>-1.8277459032833576202392578125</LongitudeDegrees>
            </Position>
            <AltitudeMeters>192.1999969482421875</AltitudeMeters>
            <DistanceMeters>NAN</DistanceMeters>
          </Trackpoint>
          <Trackpoint>
            <Time>2021-08-11T12:42:00.000Z</Time>
            <Position>
              <LatitudeDegrees>43.30921179614961147308349609375</LatitudeDegrees>
              <LongitudeDegrees>-1.82776006869971752166748046875</LongitudeDegrees>
            </Position>
            <AltitudeMeters>192.1999969482421875</AltitudeMeters>
            <DistanceMeters>NAN</DistanceMeters>
          </Trackpoint>
          <Trackpoint>
            <Time>2021-08-11T12:42:01.000Z</Time>
            <Position>
              <LatitudeDegrees>43.3092009834945201873779296875</LatitudeDegrees>
              <LongitudeDegrees>-1.8277784250676631927490234375</LongitudeDegrees>
            </Position>
            <AltitudeMeters>192.399993896484375</AltitudeMeters>
            <DistanceMeters>NAN</DistanceMeters>
          </Trackpoint>
          <Trackpoint>
            <Time>2021-08-11T12:42:02.000Z</Time>
            <Position>
              <LatitudeDegrees>43.30919218249619007110595703125</LatitudeDegrees>
              <LongitudeDegrees>-1.827797032892704010009765625</LongitudeDegrees>
            </Position>
            <AltitudeMeters>192.399993896484375</AltitudeMeters>
            <DistanceMeters>NAN</DistanceMeters>
          </Trackpoint>
          <Trackpoint>
            <Time>2021-08-11T12:42:03.000Z</Time>
            <Position>
              <LatitudeDegrees>43.309187404811382293701171875</LatitudeDegrees>
              <LongitudeDegrees>-1.82780633680522441864013671875</LongitudeDegrees>
            </Position>
            <AltitudeMeters>192.399993896484375</AltitudeMeters>
            <DistanceMeters>NAN</DistanceMeters>
          </Trackpoint>
          <Trackpoint>
            <Time>2021-08-11T12:42:04.000Z</Time>
            <Position>
              <LatitudeDegrees>43.30918581224977970123291015625</LatitudeDegrees>
              <LongitudeDegrees>-1.82782578282058238983154296875</LongitudeDegrees>
            </Position>
            <AltitudeMeters>192.399993896484375</AltitudeMeters>
            <DistanceMeters>NAN</DistanceMeters>
          </Trackpoint>
          <Trackpoint>
            <Time>2021-08-11T12:42:05.000Z</Time>
            <Position>
              <LatitudeDegrees>43.3091845549643039703369140625</LatitudeDegrees>
              <LongitudeDegrees>-1.827833242714405059814453125</LongitudeDegrees>
            </Position>
            <AltitudeMeters>192.399993896484375</AltitudeMeters>
            <DistanceMeters>NAN</DistanceMeters>
          </Trackpoint>
          <Trackpoint>
            <Time>2021-08-11T12:42:06.000Z</Time>
            <Position>
              <LatitudeDegrees>43.30918530933558940887451171875</LatitudeDegrees>
              <LongitudeDegrees>-1.82784690521657466888427734375</LongitudeDegrees>
            </Position>
            <AltitudeMeters>192.600006103515625</AltitudeMeters>
            <DistanceMeters>NAN</DistanceMeters>
          </Trackpoint>
          <Trackpoint>
            <Time>2021-08-11T12:42:07.000Z</Time>
            <Position>
              <LatitudeDegrees>43.3091850578784942626953125</LatitudeDegrees>
              <LongitudeDegrees>-1.8278570473194122314453125</LongitudeDegrees>
            </Position>
            <AltitudeMeters>192.600006103515625</AltitudeMeters>
            <DistanceMeters>NAN</DistanceMeters>
          </Trackpoint>
          <Trackpoint>
            <Time>2021-08-11T12:42:08.000Z</Time>
            <Position>
              <LatitudeDegrees>43.309186398983001708984375</LatitudeDegrees>
              <LongitudeDegrees>-1.82787020690739154815673828125</LongitudeDegrees>
            </Position>
            <AltitudeMeters>192.600006103515625</AltitudeMeters>
            <DistanceMeters>NAN</DistanceMeters>
          </Trackpoint>
          <Trackpoint>
            <Time>2021-08-11T12:42:09.000Z</Time>
            <Position>
              <LatitudeDegrees>43.30918748863041400909423828125</LatitudeDegrees>
              <LongitudeDegrees>-1.827884875237941741943359375</LongitudeDegrees>
            </Position>
            <AltitudeMeters>192.8000030517578125</AltitudeMeters>
            <DistanceMeters>NAN</DistanceMeters>
          </Trackpoint>
          <Trackpoint>
            <Time>2021-08-11T12:42:10.000Z</Time>
            <Position>
              <LatitudeDegrees>43.3091845549643039703369140625</LatitudeDegrees>
              <LongitudeDegrees>-1.8278863839805126190185546875</LongitudeDegrees>
            </Position>
            <AltitudeMeters>192.8000030517578125</AltitudeMeters>
            <DistanceMeters>NAN</DistanceMeters>
          </Trackpoint>
          <Trackpoint>
            <Time>2021-08-11T12:42:11.000Z</Time>
            <Position>
              <LatitudeDegrees>43.3091845549643039703369140625</LatitudeDegrees>
              <LongitudeDegrees>-1.827879846096038818359375</LongitudeDegrees>
            </Position>
            <AltitudeMeters>192.8000030517578125</AltitudeMeters>
            <DistanceMeters>NAN</DistanceMeters>
          </Trackpoint>
          <Trackpoint>
            <Time>2021-08-11T12:42:12.000Z</Time>
            <Position>
              <LatitudeDegrees>43.3091823756694793701171875</LatitudeDegrees>
              <LongitudeDegrees>-1.82786266319453716278076171875</LongitudeDegrees>
            </Position>
            <AltitudeMeters>192.8000030517578125</AltitudeMeters>
            <DistanceMeters>NAN</DistanceMeters>
          </Trackpoint>
          <Trackpoint>
            <Time>2021-08-11T12:42:13.000Z</Time>
            <Position>
              <LatitudeDegrees>43.30918841063976287841796875</LatitudeDegrees>
              <LongitudeDegrees>-1.82784824632108211517333984375</LongitudeDegrees>
            </Position>
            <AltitudeMeters>192.8000030517578125</AltitudeMeters>
            <DistanceMeters>NAN</DistanceMeters>
          </Trackpoint>
          <Trackpoint>
            <Time>2021-08-11T12:42:14.000Z</Time>
            <Position>
              <LatitudeDegrees>43.30919922329485416412353515625</LatitudeDegrees>
              <LongitudeDegrees>-1.82784237898886203765869140625</LongitudeDegrees>
            </Position>
            <AltitudeMeters>192.8000030517578125</AltitudeMeters>
            <DistanceMeters>NAN</DistanceMeters>
          </Trackpoint>
          <Trackpoint>
            <Time>2021-08-11T12:42:15.000Z</Time>
            <Position>
              <LatitudeDegrees>43.30920827575027942657470703125</LatitudeDegrees>
              <LongitudeDegrees>-1.82782930321991443634033203125</LongitudeDegrees>
            </Position>
            <AltitudeMeters>192.8000030517578125</AltitudeMeters>
            <DistanceMeters>NAN</DistanceMeters>
          </Trackpoint>
          <Trackpoint>
            <Time>2021-08-11T12:42:16.000Z</Time>
            <Position>
              <LatitudeDegrees>43.30921162851154804229736328125</LatitudeDegrees>
              <LongitudeDegrees>-1.827811114490032196044921875</LongitudeDegrees>
            </Position>
            <AltitudeMeters>192.8000030517578125</AltitudeMeters>
            <DistanceMeters>NAN</DistanceMeters>
          </Trackpoint>
          <Trackpoint>
            <Time>2021-08-11T12:42:17.000Z</Time>
            <Position>
              <LatitudeDegrees>43.309204839169979095458984375</LatitudeDegrees>
              <LongitudeDegrees>-1.8277898244559764862060546875</LongitudeDegrees>
            </Position>
            <AltitudeMeters>192.8000030517578125</AltitudeMeters>
            <DistanceMeters>NAN</DistanceMeters>
          </Trackpoint>
          <Trackpoint>
            <Time>2021-08-11T12:42:18.000Z</Time>
            <Position>
              <LatitudeDegrees>43.3091850578784942626953125</LatitudeDegrees>
              <LongitudeDegrees>-1.82778202928602695465087890625</LongitudeDegrees>
            </Position>
            <AltitudeMeters>192.8000030517578125</AltitudeMeters>
            <DistanceMeters>NAN</DistanceMeters>
          </Trackpoint>
          <Trackpoint>
            <Time>2021-08-11T12:42:19.000Z</Time>
            <Position>
              <LatitudeDegrees>43.30917726270854473114013671875</LatitudeDegrees>
              <LongitudeDegrees>-1.8277888186275959014892578125</LongitudeDegrees>
            </Position>
            <AltitudeMeters>192.8000030517578125</AltitudeMeters>
            <DistanceMeters>NAN</DistanceMeters>
          </Trackpoint>
          <Trackpoint>
            <Time>2021-08-11T12:42:20.000Z</Time>
            <Position>
              <LatitudeDegrees>43.30917558632791042327880859375</LatitudeDegrees>
              <LongitudeDegrees>-1.82780566625297069549560546875</LongitudeDegrees>
            </Position>
            <AltitudeMeters>192.8000030517578125</AltitudeMeters>
            <DistanceMeters>NAN</DistanceMeters>
          </Trackpoint>
          <Trackpoint>
            <Time>2021-08-11T12:42:22.000Z</Time>
            <Position>
              <LatitudeDegrees>43.30918011255562305450439453125</LatitudeDegrees>
              <LongitudeDegrees>-1.8278327398002147674560546875</LongitudeDegrees>
            </Position>
            <AltitudeMeters>192.8000030517578125</AltitudeMeters>
            <DistanceMeters>NAN</DistanceMeters>
          </Trackpoint>
          <Trackpoint>
            <Time>2021-08-11T12:42:24.000Z</Time>
            <Position>
              <LatitudeDegrees>43.30918011255562305450439453125</LatitudeDegrees>
              <LongitudeDegrees>-1.8278327398002147674560546875</LongitudeDegrees>
            </Position>
            <AltitudeMeters>192.8000030517578125</AltitudeMeters>
            <DistanceMeters>NAN</DistanceMeters>
          </Trackpoint>
          <Trackpoint>
            <Time>2021-08-11T12:42:27.000Z</Time>
            <Position>
              <LatitudeDegrees>43.30917977727949619293212890625</LatitudeDegrees>
              <LongitudeDegrees>-1.82783282361924648284912109375</LongitudeDegrees>
            </Position>
            <AltitudeMeters>192.8000030517578125</AltitudeMeters>
            <DistanceMeters>NAN</DistanceMeters>
          </Trackpoint>
          <Trackpoint>
            <Time>2021-08-11T12:42:31.000Z</Time>
            <Position>
              <LatitudeDegrees>43.30918044783174991607666015625</LatitudeDegrees>
              <LongitudeDegrees>-1.827828548848628997802734375</LongitudeDegrees>
            </Position>
            <AltitudeMeters>192.8000030517578125</AltitudeMeters>
            <DistanceMeters>NAN</DistanceMeters>
          </Trackpoint>
          <Trackpoint>
            <Time>2021-08-11T12:45:08.000Z</Time>
            <Position>
              <LatitudeDegrees>43.30918078310787677764892578125</LatitudeDegrees>
              <LongitudeDegrees>-1.82783282361924648284912109375</LongitudeDegrees>
            </Position>
            <AltitudeMeters>192.399993896484375</AltitudeMeters>
            <DistanceMeters>NAN</DistanceMeters>
          </Trackpoint>
          <Trackpoint>
            <Time>2021-08-11T12:50:03.000Z</Time>
            <Position>
              <LatitudeDegrees>43.3091842196881771087646484375</LatitudeDegrees>
              <LongitudeDegrees>-1.8278394453227519989013671875</LongitudeDegrees>
            </Position>
            <AltitudeMeters>191.8000030517578125</AltitudeMeters>
            <DistanceMeters>NAN</DistanceMeters>
          </Trackpoint>
          <Trackpoint>
            <Time>2021-08-11T12:50:04.000Z</Time>
            <Position>
              <LatitudeDegrees>43.30917608924210071563720703125</LatitudeDegrees>
              <LongitudeDegrees>-1.8278639204800128936767578125</LongitudeDegrees>
            </Position>
            <AltitudeMeters>191.8000030517578125</AltitudeMeters>
            <DistanceMeters>NAN</DistanceMeters>
          </Trackpoint>
          <Trackpoint>
            <Time>2021-08-11T12:50:06.000Z</Time>
            <Position>
              <LatitudeDegrees>43.3091654442250728607177734375</LatitudeDegrees>
              <LongitudeDegrees>-1.82789451442658901214599609375</LongitudeDegrees>
            </Position>
            <AltitudeMeters>191.8000030517578125</AltitudeMeters>
            <DistanceMeters>NAN</DistanceMeters>
          </Trackpoint>
          <Trackpoint>
            <Time>2021-08-11T12:50:07.000Z</Time>
            <Position>
              <LatitudeDegrees>43.3091637678444385528564453125</LatitudeDegrees>
              <LongitudeDegrees>-1.82791731320321559906005859375</LongitudeDegrees>
            </Position>
            <AltitudeMeters>191.8000030517578125</AltitudeMeters>
            <DistanceMeters>NAN</DistanceMeters>
          </Trackpoint>
          <Trackpoint>
            <Time>2021-08-11T12:50:08.000Z</Time>
            <Position>
              <LatitudeDegrees>43.30916318111121654510498046875</LatitudeDegrees>
              <LongitudeDegrees>-1.82792343199253082275390625</LongitudeDegrees>
            </Position>
            <AltitudeMeters>192</AltitudeMeters>
            <DistanceMeters>NAN</DistanceMeters>
          </Trackpoint>
          <Trackpoint>
            <Time>2021-08-11T12:50:09.000Z</Time>
            <Position>
              <LatitudeDegrees>43.3091624267399311065673828125</LatitudeDegrees>
              <LongitudeDegrees>-1.8279266171157360076904296875</LongitudeDegrees>
            </Position>
            <AltitudeMeters>192</AltitudeMeters>
            <DistanceMeters>NAN</DistanceMeters>
          </Trackpoint>
          <Trackpoint>
            <Time>2021-08-11T12:50:17.000Z</Time>
            <Position>
              <LatitudeDegrees>43.30916016362607479095458984375</LatitudeDegrees>
              <LongitudeDegrees>-1.82793625630438327789306640625</LongitudeDegrees>
            </Position>
            <AltitudeMeters>192</AltitudeMeters>
            <DistanceMeters>NAN</DistanceMeters>
          </Trackpoint>
          <Trackpoint>
            <Time>2021-08-11T12:50:38.000Z</Time>
            <Position>
              <LatitudeDegrees>43.30916016362607479095458984375</LatitudeDegrees>
              <LongitudeDegrees>-1.82793625630438327789306640625</LongitudeDegrees>
            </Position>
            <AltitudeMeters>191.8000030517578125</AltitudeMeters>
            <DistanceMeters>NAN</DistanceMeters>
          </Trackpoint>
          <Trackpoint>
            <Time>2021-08-11T12:50:45.000Z</Time>
            <Position>
              <LatitudeDegrees>43.3091609179973602294921875</LatitudeDegrees>
              <LongitudeDegrees>-1.82793625630438327789306640625</LongitudeDegrees>
            </Position>
            <AltitudeMeters>192.1999969482421875</AltitudeMeters>
            <DistanceMeters>NAN</DistanceMeters>
          </Trackpoint>
          <Trackpoint>
            <Time>2021-08-11T12:50:49.000Z</Time>
            <Position>
              <LatitudeDegrees>43.3091609179973602294921875</LatitudeDegrees>
              <LongitudeDegrees>-1.82793684303760528564453125</LongitudeDegrees>
            </Position>
            <AltitudeMeters>192</AltitudeMeters>
            <DistanceMeters>NAN</DistanceMeters>
          </Trackpoint>
          <Trackpoint>
            <Time>2021-08-11T12:52:42.000Z</Time>
            <Position>
              <LatitudeDegrees>43.30917659215629100799560546875</LatitudeDegrees>
              <LongitudeDegrees>-1.82793877087533473968505859375</LongitudeDegrees>
            </Position>
            <AltitudeMeters>192.1999969482421875</AltitudeMeters>
            <DistanceMeters>NAN</DistanceMeters>
          </Trackpoint>
          <Trackpoint>
            <Time>2021-08-11T12:52:45.000Z</Time>
            <Position>
              <LatitudeDegrees>43.3091743290424346923828125</LatitudeDegrees>
              <LongitudeDegrees>-1.827952601015567779541015625</LongitudeDegrees>
            </Position>
            <AltitudeMeters>192.1999969482421875</AltitudeMeters>
            <DistanceMeters>NAN</DistanceMeters>
          </Trackpoint>
          <Trackpoint>
            <Time>2021-08-11T12:52:50.000Z</Time>
            <Position>
              <LatitudeDegrees>43.30913753248751163482666015625</LatitudeDegrees>
              <LongitudeDegrees>-1.828090734779834747314453125</LongitudeDegrees>
            </Position>
            <AltitudeMeters>192.1999969482421875</AltitudeMeters>
            <DistanceMeters>NAN</DistanceMeters>
          </Trackpoint>
          <Trackpoint>
            <Time>2021-08-11T12:52:51.000Z</Time>
            <Position>
              <LatitudeDegrees>43.30912864767014980316162109375</LatitudeDegrees>
              <LongitudeDegrees>-1.82813624851405620574951171875</LongitudeDegrees>
            </Position>
            <AltitudeMeters>192.1999969482421875</AltitudeMeters>
            <DistanceMeters>NAN</DistanceMeters>
          </Trackpoint>
          <Trackpoint>
            <Time>2021-08-11T12:52:52.000Z</Time>
            <Position>
              <LatitudeDegrees>43.309112973511219024658203125</LatitudeDegrees>
              <LongitudeDegrees>-1.8281770683825016021728515625</LongitudeDegrees>
            </Position>
            <AltitudeMeters>192.1999969482421875</AltitudeMeters>
            <DistanceMeters>NAN</DistanceMeters>
          </Trackpoint>
          <Trackpoint>
            <Time>2021-08-11T12:52:55.000Z</Time>
            <Position>
              <LatitudeDegrees>43.30907919444143772125244140625</LatitudeDegrees>
              <LongitudeDegrees>-1.82828511111438274383544921875</LongitudeDegrees>
            </Position>
            <AltitudeMeters>192.399993896484375</AltitudeMeters>
            <DistanceMeters>NAN</DistanceMeters>
          </Trackpoint>
          <Trackpoint>
            <Time>2021-08-11T12:52:59.000Z</Time>
            <Position>
              <LatitudeDegrees>43.3090299926698207855224609375</LatitudeDegrees>
              <LongitudeDegrees>-1.82841905392706394195556640625</LongitudeDegrees>
            </Position>
            <AltitudeMeters>192.8000030517578125</AltitudeMeters>
            <DistanceMeters>NAN</DistanceMeters>
          </Trackpoint>
          <Trackpoint>
            <Time>2021-08-11T12:53:01.000Z</Time>
            <Position>
              <LatitudeDegrees>43.3089904300868511199951171875</LatitudeDegrees>
              <LongitudeDegrees>-1.828480660915374755859375</LongitudeDegrees>
            </Position>
            <AltitudeMeters>193</AltitudeMeters>
            <DistanceMeters>NAN</DistanceMeters>
          </Trackpoint>
          <Trackpoint>
            <Time>2021-08-11T12:53:02.000Z</Time>
            <Position>
              <LatitudeDegrees>43.3089743368327617645263671875</LatitudeDegrees>
              <LongitudeDegrees>-1.828511171042919158935546875</LongitudeDegrees>
            </Position>
            <AltitudeMeters>193.1999969482421875</AltitudeMeters>
            <DistanceMeters>NAN</DistanceMeters>
          </Trackpoint>
          <Trackpoint>
            <Time>2021-08-11T12:53:03.000Z</Time>
            <Position>
              <LatitudeDegrees>43.3089716546237468719482421875</LatitudeDegrees>
              <LongitudeDegrees>-1.828534640371799468994140625</LongitudeDegrees>
            </Position>
            <AltitudeMeters>193.399993896484375</AltitudeMeters>
            <DistanceMeters>NAN</DistanceMeters>
          </Trackpoint>
          <Trackpoint>
            <Time>2021-08-11T12:53:04.000Z</Time>
            <Position>
              <LatitudeDegrees>43.30896704457700252532958984375</LatitudeDegrees>
              <LongitudeDegrees>-1.82857386767864227294921875</LongitudeDegrees>
            </Position>
            <AltitudeMeters>193.399993896484375</AltitudeMeters>
            <DistanceMeters>NAN</DistanceMeters>
          </Trackpoint>
          <Trackpoint>
            <Time>2021-08-11T12:53:05.000Z</Time>
            <Position>
              <LatitudeDegrees>43.30895480699837207794189453125</LatitudeDegrees>
              <LongitudeDegrees>-1.82861032895743846893310546875</LongitudeDegrees>
            </Position>
            <AltitudeMeters>193.600006103515625</AltitudeMeters>
            <DistanceMeters>NAN</DistanceMeters>
          </Trackpoint>
          <Trackpoint>
            <Time>2021-08-11T12:53:06.000Z</Time>
            <Position>
              <LatitudeDegrees>43.3089314214885234832763671875</LatitudeDegrees>
              <LongitudeDegrees>-1.8286444433033466339111328125</LongitudeDegrees>
            </Position>
            <AltitudeMeters>193.600006103515625</AltitudeMeters>
            <DistanceMeters>NAN</DistanceMeters>
          </Trackpoint>
          <Trackpoint>
            <Time>2021-08-11T12:53:07.000Z</Time>
            <Position>
              <LatitudeDegrees>43.30890770070254802703857421875</LatitudeDegrees>
              <LongitudeDegrees>-1.82867302559316158294677734375</LongitudeDegrees>
            </Position>
            <AltitudeMeters>193.8000030517578125</AltitudeMeters>
            <DistanceMeters>NAN</DistanceMeters>
          </Trackpoint>
          <Trackpoint>
            <Time>2021-08-11T12:53:08.000Z</Time>
            <Position>
              <LatitudeDegrees>43.30889060162007808685302734375</LatitudeDegrees>
              <LongitudeDegrees>-1.8286974169313907623291015625</LongitudeDegrees>
            </Position>
            <AltitudeMeters>193.8000030517578125</AltitudeMeters>
            <DistanceMeters>NAN</DistanceMeters>
          </Trackpoint>
          <Trackpoint>
            <Time>2021-08-11T12:53:09.000Z</Time>
            <Position>
              <LatitudeDegrees>43.3088754303753376007080078125</LatitudeDegrees>
              <LongitudeDegrees>-1.82873739860951900482177734375</LongitudeDegrees>
            </Position>
            <AltitudeMeters>194</AltitudeMeters>
            <DistanceMeters>NAN</DistanceMeters>
          </Trackpoint>
          <Trackpoint>
            <Time>2021-08-11T12:53:10.000Z</Time>
            <Position>
              <LatitudeDegrees>43.30886528827250003814697265625</LatitudeDegrees>
              <LongitudeDegrees>-1.82877930812537670135498046875</LongitudeDegrees>
            </Position>
            <AltitudeMeters>194</AltitudeMeters>
            <DistanceMeters>NAN</DistanceMeters>
          </Trackpoint>
          <Trackpoint>
            <Time>2021-08-11T12:53:11.000Z</Time>
            <Position>
              <LatitudeDegrees>43.3088553138077259063720703125</LatitudeDegrees>
              <LongitudeDegrees>-1.828829348087310791015625</LongitudeDegrees>
            </Position>
            <AltitudeMeters>194.1999969482421875</AltitudeMeters>
            <DistanceMeters>NAN</DistanceMeters>
          </Trackpoint>
          <Trackpoint>
            <Time>2021-08-11T12:53:12.000Z</Time>
            <Position>
              <LatitudeDegrees>43.3088429085910320281982421875</LatitudeDegrees>
              <LongitudeDegrees>-1.82888072915375232696533203125</LongitudeDegrees>
            </Position>
            <AltitudeMeters>194.1999969482421875</AltitudeMeters>
            <DistanceMeters>NAN</DistanceMeters>
          </Trackpoint>
          <Trackpoint>
            <Time>2021-08-11T12:53:13.000Z</Time>
            <Position>
              <LatitudeDegrees>43.30882706679403781890869140625</LatitudeDegrees>
              <LongitudeDegrees>-1.82893303222954273223876953125</LongitudeDegrees>
            </Position>
            <AltitudeMeters>194.399993896484375</AltitudeMeters>
            <DistanceMeters>NAN</DistanceMeters>
          </Trackpoint>
          <Trackpoint>
            <Time>2021-08-11T12:53:15.000Z</Time>
            <Position>
              <LatitudeDegrees>43.308789432048797607421875</LatitudeDegrees>
              <LongitudeDegrees>-1.82900394313037395477294921875</LongitudeDegrees>
            </Position>
            <AltitudeMeters>194.8000030517578125</AltitudeMeters>
            <DistanceMeters>NAN</DistanceMeters>
          </Trackpoint>
          <Trackpoint>
            <Time>2021-08-11T12:53:17.000Z</Time>
            <Position>
              <LatitudeDegrees>43.308740817010402679443359375</LatitudeDegrees>
              <LongitudeDegrees>-1.8290632031857967376708984375</LongitudeDegrees>
            </Position>
            <AltitudeMeters>195.399993896484375</AltitudeMeters>
            <DistanceMeters>NAN</DistanceMeters>
          </Trackpoint>
          <Trackpoint>
            <Time>2021-08-11T12:53:18.000Z</Time>
            <Position>
              <LatitudeDegrees>43.30870217643678188323974609375</LatitudeDegrees>
              <LongitudeDegrees>-1.8291165120899677276611328125</LongitudeDegrees>
            </Position>
            <AltitudeMeters>195.600006103515625</AltitudeMeters>
            <DistanceMeters>NAN</DistanceMeters>
          </Trackpoint>
          <Trackpoint>
            <Time>2021-08-11T12:53:19.000Z</Time>
            <Position>
              <LatitudeDegrees>43.30868708901107311248779296875</LatitudeDegrees>
              <LongitudeDegrees>-1.829156912863254547119140625</LongitudeDegrees>
            </Position>
            <AltitudeMeters>195.8000030517578125</AltitudeMeters>
            <DistanceMeters>NAN</DistanceMeters>
          </Trackpoint>
          <Trackpoint>
            <Time>2021-08-11T12:53:20.000Z</Time>
            <Position>
              <LatitudeDegrees>43.30868641845881938934326171875</LatitudeDegrees>
              <LongitudeDegrees>-1.82919220067560672760009765625</LongitudeDegrees>
            </Position>
            <AltitudeMeters>196</AltitudeMeters>
            <DistanceMeters>NAN</DistanceMeters>
          </Trackpoint>
          <Trackpoint>
            <Time>2021-08-11T12:53:21.000Z</Time>
            <Position>
              <LatitudeDegrees>43.30867451615631580352783203125</LatitudeDegrees>
              <LongitudeDegrees>-1.82923209853470325469970703125</LongitudeDegrees>
            </Position>
            <AltitudeMeters>196.600006103515625</AltitudeMeters>
            <DistanceMeters>NAN</DistanceMeters>
          </Trackpoint>
          <Trackpoint>
            <Time>2021-08-11T12:53:22.000Z</Time>
            <Position>
              <LatitudeDegrees>43.30867066048085689544677734375</LatitudeDegrees>
              <LongitudeDegrees>-1.82927249930799007415771484375</LongitudeDegrees>
            </Position>
            <AltitudeMeters>196.600006103515625</AltitudeMeters>
            <DistanceMeters>NAN</DistanceMeters>
          </Trackpoint>
          <Trackpoint>
            <Time>2021-08-11T12:53:23.000Z</Time>
            <Position>
              <LatitudeDegrees>43.30866328440606594085693359375</LatitudeDegrees>
              <LongitudeDegrees>-1.82931683957576751708984375</LongitudeDegrees>
            </Position>
            <AltitudeMeters>196.8000030517578125</AltitudeMeters>
            <DistanceMeters>NAN</DistanceMeters>
          </Trackpoint>
          <Trackpoint>
            <Time>2021-08-11T12:53:24.000Z</Time>
            <Position>
              <LatitudeDegrees>43.30865808762609958648681640625</LatitudeDegrees>
              <LongitudeDegrees>-1.8293455056846141815185546875</LongitudeDegrees>
            </Position>
            <AltitudeMeters>197</AltitudeMeters>
            <DistanceMeters>NAN</DistanceMeters>
          </Trackpoint>
          <Trackpoint>
            <Time>2021-08-11T12:53:25.000Z</Time>
            <Position>
              <LatitudeDegrees>43.308647610247135162353515625</LatitudeDegrees>
              <LongitudeDegrees>-1.82938565500080585479736328125</LongitudeDegrees>
            </Position>
            <AltitudeMeters>197.1999969482421875</AltitudeMeters>
            <DistanceMeters>NAN</DistanceMeters>
          </Trackpoint>
          <Trackpoint>
            <Time>2021-08-11T12:53:26.000Z</Time>
            <Position>
              <LatitudeDegrees>43.30864249728620052337646484375</LatitudeDegrees>
              <LongitudeDegrees>-1.8294209428131580352783203125</LongitudeDegrees>
            </Position>
            <AltitudeMeters>197.600006103515625</AltitudeMeters>
            <DistanceMeters>NAN</DistanceMeters>
          </Trackpoint>
          <Trackpoint>
            <Time>2021-08-11T12:53:27.000Z</Time>
            <Position>
              <LatitudeDegrees>43.30863210372626781463623046875</LatitudeDegrees>
              <LongitudeDegrees>-1.82945690117776393890380859375</LongitudeDegrees>
            </Position>
            <AltitudeMeters>197.8000030517578125</AltitudeMeters>
            <DistanceMeters>NAN</DistanceMeters>
          </Trackpoint>
          <Trackpoint>
            <Time>2021-08-11T12:53:28.000Z</Time>
            <Position>
              <LatitudeDegrees>43.308630846440792083740234375</LatitudeDegrees>
              <LongitudeDegrees>-1.8294993974268436431884765625</LongitudeDegrees>
            </Position>
            <AltitudeMeters>198.1999969482421875</AltitudeMeters>
            <DistanceMeters>NAN</DistanceMeters>
          </Trackpoint>
          <Trackpoint>
            <Time>2021-08-11T12:53:29.000Z</Time>
            <Position>
              <LatitudeDegrees>43.30861718393862247467041015625</LatitudeDegrees>
              <LongitudeDegrees>-1.8295503593981266021728515625</LongitudeDegrees>
            </Position>
            <AltitudeMeters>198.399993896484375</AltitudeMeters>
            <DistanceMeters>NAN</DistanceMeters>
          </Trackpoint>
          <Trackpoint>
            <Time>2021-08-11T12:53:30.000Z</Time>
            <Position>
              <LatitudeDegrees>43.3086031861603260040283203125</LatitudeDegrees>
              <LongitudeDegrees>-1.82960509322583675384521484375</LongitudeDegrees>
            </Position>
            <AltitudeMeters>198.600006103515625</AltitudeMeters>
            <DistanceMeters>NAN</DistanceMeters>
          </Trackpoint>
          <Trackpoint>
            <Time>2021-08-11T12:53:31.000Z</Time>
            <Position>
              <LatitudeDegrees>43.30859840847551822662353515625</LatitudeDegrees>
              <LongitudeDegrees>-1.8296459130942821502685546875</LongitudeDegrees>
            </Position>
            <AltitudeMeters>198.8000030517578125</AltitudeMeters>
            <DistanceMeters>NAN</DistanceMeters>
          </Trackpoint>
          <Trackpoint>
            <Time>2021-08-11T12:53:32.000Z</Time>
            <Position>
              <LatitudeDegrees>43.30860410816967487335205078125</LatitudeDegrees>
              <LongitudeDegrees>-1.82969327084720134735107421875</LongitudeDegrees>
            </Position>
            <AltitudeMeters>199.1999969482421875</AltitudeMeters>
            <DistanceMeters>NAN</DistanceMeters>
          </Trackpoint>
          <Trackpoint>
            <Time>2021-08-11T12:53:33.000Z</Time>
            <Position>
              <LatitudeDegrees>43.30860628746449947357177734375</LatitudeDegrees>
              <LongitudeDegrees>-1.82973082177340984344482421875</LongitudeDegrees>
            </Position>
            <AltitudeMeters>199.600006103515625</AltitudeMeters>
            <DistanceMeters>NAN</DistanceMeters>
          </Trackpoint>
          <Trackpoint>
            <Time>2021-08-11T12:53:34.000Z</Time>
            <Position>
              <LatitudeDegrees>43.30860846675932407379150390625</LatitudeDegrees>
              <LongitudeDegrees>-1.8297619186341762542724609375</LongitudeDegrees>
            </Position>
            <AltitudeMeters>199.8000030517578125</AltitudeMeters>
            <DistanceMeters>NAN</DistanceMeters>
          </Trackpoint>
          <Trackpoint>
            <Time>2021-08-11T12:53:35.000Z</Time>
            <Position>
              <LatitudeDegrees>43.308609388768672943115234375</LatitudeDegrees>
              <LongitudeDegrees>-1.829783879220485687255859375</LongitudeDegrees>
            </Position>
            <AltitudeMeters>200</AltitudeMeters>
            <DistanceMeters>NAN</DistanceMeters>
          </Trackpoint>
          <Trackpoint>
            <Time>2021-08-11T12:53:36.000Z</Time>
            <Position>
              <LatitudeDegrees>43.30862380564212799072265625</LatitudeDegrees>
              <LongitudeDegrees>-1.8298112042248249053955078125</LongitudeDegrees>
            </Position>
            <AltitudeMeters>200.1999969482421875</AltitudeMeters>
            <DistanceMeters>NAN</DistanceMeters>
          </Trackpoint>
          <Trackpoint>
            <Time>2021-08-11T12:53:37.000Z</Time>
            <Position>
              <LatitudeDegrees>43.3086189441382884979248046875</LatitudeDegrees>
              <LongitudeDegrees>-1.8298410438001155853271484375</LongitudeDegrees>
            </Position>
            <AltitudeMeters>200.600006103515625</AltitudeMeters>
            <DistanceMeters>NAN</DistanceMeters>
          </Trackpoint>
          <Trackpoint>
            <Time>2021-08-11T12:53:38.000Z</Time>
            <Position>
              <LatitudeDegrees>43.3086199499666690826416015625</LatitudeDegrees>
              <LongitudeDegrees>-1.82986074127256870269775390625</LongitudeDegrees>
            </Position>
            <AltitudeMeters>200.8000030517578125</AltitudeMeters>
            <DistanceMeters>NAN</DistanceMeters>
          </Trackpoint>
          <Trackpoint>
            <Time>2021-08-11T12:53:39.000Z</Time>
            <Position>
              <LatitudeDegrees>43.308620788156986236572265625</LatitudeDegrees>
              <LongitudeDegrees>-1.829879097640514373779296875</LongitudeDegrees>
            </Position>
            <AltitudeMeters>201</AltitudeMeters>
            <DistanceMeters>NAN</DistanceMeters>
          </Trackpoint>
          <Trackpoint>
            <Time>2021-08-11T12:53:40.000Z</Time>
            <Position>
              <LatitudeDegrees>43.3086179383099079132080078125</LatitudeDegrees>
              <LongitudeDegrees>-1.82988949120044708251953125</LongitudeDegrees>
            </Position>
            <AltitudeMeters>201.1999969482421875</AltitudeMeters>
            <DistanceMeters>NAN</DistanceMeters>
          </Trackpoint>
          <Trackpoint>
            <Time>2021-08-11T12:53:41.000Z</Time>
            <Position>
              <LatitudeDegrees>43.3086165972054004669189453125</LatitudeDegrees>
              <LongitudeDegrees>-1.82989443652331829071044921875</LongitudeDegrees>
            </Position>
            <AltitudeMeters>201.600006103515625</AltitudeMeters>
            <DistanceMeters>NAN</DistanceMeters>
          </Trackpoint>
          <Trackpoint>
            <Time>2021-08-11T12:53:42.000Z</Time>
            <Position>
              <LatitudeDegrees>43.3086159266531467437744140625</LatitudeDegrees>
              <LongitudeDegrees>-1.82991673238575458526611328125</LongitudeDegrees>
            </Position>
            <AltitudeMeters>202</AltitudeMeters>
            <DistanceMeters>NAN</DistanceMeters>
          </Trackpoint>
          <Trackpoint>
            <Time>2021-08-11T12:53:43.000Z</Time>
            <Position>
              <LatitudeDegrees>43.308622129261493682861328125</LatitudeDegrees>
              <LongitudeDegrees>-1.829946152865886688232421875</LongitudeDegrees>
            </Position>
            <AltitudeMeters>202</AltitudeMeters>
            <DistanceMeters>NAN</DistanceMeters>
          </Trackpoint>
          <Trackpoint>
            <Time>2021-08-11T12:53:44.000Z</Time>
            <Position>
              <LatitudeDegrees>43.30861500464379787445068359375</LatitudeDegrees>
              <LongitudeDegrees>-1.82997071184217929840087890625</LongitudeDegrees>
            </Position>
            <AltitudeMeters>202.1999969482421875</AltitudeMeters>
            <DistanceMeters>NAN</DistanceMeters>
          </Trackpoint>
          <Trackpoint>
            <Time>2021-08-11T12:53:45.000Z</Time>
            <Position>
              <LatitudeDegrees>43.3086129091680049896240234375</LatitudeDegrees>
              <LongitudeDegrees>-1.8299811892211437225341796875</LongitudeDegrees>
            </Position>
            <AltitudeMeters>202.1999969482421875</AltitudeMeters>
            <DistanceMeters>NAN</DistanceMeters>
          </Trackpoint>
          <Trackpoint>
            <Time>2021-08-11T12:53:46.000Z</Time>
            <Position>
              <LatitudeDegrees>43.3086115680634975433349609375</LatitudeDegrees>
              <LongitudeDegrees>-1.82998512871563434600830078125</LongitudeDegrees>
            </Position>
            <AltitudeMeters>202.1999969482421875</AltitudeMeters>
            <DistanceMeters>NAN</DistanceMeters>
          </Trackpoint>
          <Trackpoint>
            <Time>2021-08-11T12:53:47.000Z</Time>
            <Position>
              <LatitudeDegrees>43.308612070977687835693359375</LatitudeDegrees>
              <LongitudeDegrees>-1.8299952708184719085693359375</LongitudeDegrees>
            </Position>
            <AltitudeMeters>202.1999969482421875</AltitudeMeters>
            <DistanceMeters>NAN</DistanceMeters>
          </Trackpoint>
          <Trackpoint>
            <Time>2021-08-11T12:53:48.000Z</Time>
            <Position>
              <LatitudeDegrees>43.30860980786383152008056640625</LatitudeDegrees>
              <LongitudeDegrees>-1.83001077733933925628662109375</LongitudeDegrees>
            </Position>
            <AltitudeMeters>202.1999969482421875</AltitudeMeters>
            <DistanceMeters>NAN</DistanceMeters>
          </Trackpoint>
          <Trackpoint>
            <Time>2021-08-11T12:53:49.000Z</Time>
            <Position>
              <LatitudeDegrees>43.3086058683693408966064453125</LatitudeDegrees>
              <LongitudeDegrees>-1.83002586476504802703857421875</LongitudeDegrees>
            </Position>
            <AltitudeMeters>202.1999969482421875</AltitudeMeters>
            <DistanceMeters>NAN</DistanceMeters>
          </Trackpoint>
          <Trackpoint>
            <Time>2021-08-11T12:53:50.000Z</Time>
            <Position>
              <LatitudeDegrees>43.30859304405748844146728515625</LatitudeDegrees>
              <LongitudeDegrees>-1.830054782330989837646484375</LongitudeDegrees>
            </Position>
            <AltitudeMeters>202.1999969482421875</AltitudeMeters>
            <DistanceMeters>NAN</DistanceMeters>
          </Trackpoint>
          <Trackpoint>
            <Time>2021-08-11T12:53:51.000Z</Time>
            <Position>
              <LatitudeDegrees>43.3085880987346172332763671875</LatitudeDegrees>
              <LongitudeDegrees>-1.83007858693599700927734375</LongitudeDegrees>
            </Position>
            <AltitudeMeters>202.1999969482421875</AltitudeMeters>
            <DistanceMeters>NAN</DistanceMeters>
          </Trackpoint>
          <Trackpoint>
            <Time>2021-08-11T12:53:52.000Z</Time>
            <Position>
              <LatitudeDegrees>43.30858047120273113250732421875</LatitudeDegrees>
              <LongitudeDegrees>-1.8301005475223064422607421875</LongitudeDegrees>
            </Position>
            <AltitudeMeters>202.1999969482421875</AltitudeMeters>
            <DistanceMeters>NAN</DistanceMeters>
          </Trackpoint>
          <Trackpoint>
            <Time>2021-08-11T12:53:53.000Z</Time>
            <Position>
              <LatitudeDegrees>43.30856689251959323883056640625</LatitudeDegrees>
              <LongitudeDegrees>-1.83013114146888256072998046875</LongitudeDegrees>
            </Position>
            <AltitudeMeters>202.1999969482421875</AltitudeMeters>
            <DistanceMeters>NAN</DistanceMeters>
          </Trackpoint>
          <Trackpoint>
            <Time>2021-08-11T12:53:54.000Z</Time>
            <Position>
              <LatitudeDegrees>43.30855297856032848358154296875</LatitudeDegrees>
              <LongitudeDegrees>-1.8301570415496826171875</LongitudeDegrees>
            </Position>
            <AltitudeMeters>202.1999969482421875</AltitudeMeters>
            <DistanceMeters>NAN</DistanceMeters>
          </Trackpoint>
          <Trackpoint>
            <Time>2021-08-11T12:53:55.000Z</Time>
            <Position>
              <LatitudeDegrees>43.308537639677524566650390625</LatitudeDegrees>
              <LongitudeDegrees>-1.83017916977405548095703125</LongitudeDegrees>
            </Position>
            <AltitudeMeters>202.1999969482421875</AltitudeMeters>
            <DistanceMeters>NAN</DistanceMeters>
          </Trackpoint>
          <Trackpoint>
            <Time>2021-08-11T12:53:56.000Z</Time>
            <Position>
              <LatitudeDegrees>43.30852917395532131195068359375</LatitudeDegrees>
              <LongitudeDegrees>-1.830200292170047760009765625</LongitudeDegrees>
            </Position>
            <AltitudeMeters>202.1999969482421875</AltitudeMeters>
            <DistanceMeters>NAN</DistanceMeters>
          </Trackpoint>
          <Trackpoint>
            <Time>2021-08-11T12:53:57.000Z</Time>
            <Position>
              <LatitudeDegrees>43.30853152088820934295654296875</LatitudeDegrees>
              <LongitudeDegrees>-1.8302292935550212860107421875</LongitudeDegrees>
            </Position>
            <AltitudeMeters>202.1999969482421875</AltitudeMeters>
            <DistanceMeters>NAN</DistanceMeters>
          </Trackpoint>
          <Trackpoint>
            <Time>2021-08-11T12:53:58.000Z</Time>
            <Position>
              <LatitudeDegrees>43.3085384778678417205810546875</LatitudeDegrees>
              <LongitudeDegrees>-1.83025854639708995819091796875</LongitudeDegrees>
            </Position>
            <AltitudeMeters>202</AltitudeMeters>
            <DistanceMeters>NAN</DistanceMeters>
          </Trackpoint>
          <Trackpoint>
            <Time>2021-08-11T12:53:59.000Z</Time>
            <Position>
              <LatitudeDegrees>43.30854828469455242156982421875</LatitudeDegrees>
              <LongitudeDegrees>-1.83029324747622013092041015625</LongitudeDegrees>
            </Position>
            <AltitudeMeters>202</AltitudeMeters>
            <DistanceMeters>NAN</DistanceMeters>
          </Trackpoint>
          <Trackpoint>
            <Time>2021-08-11T12:54:00.000Z</Time>
            <Position>
              <LatitudeDegrees>43.30854660831391811370849609375</LatitudeDegrees>
              <LongitudeDegrees>-1.83033515699207782745361328125</LongitudeDegrees>
            </Position>
            <AltitudeMeters>201.8000030517578125</AltitudeMeters>
            <DistanceMeters>NAN</DistanceMeters>
          </Trackpoint>
          <Trackpoint>
            <Time>2021-08-11T12:54:01.000Z</Time>
            <Position>
              <LatitudeDegrees>43.3085414953529834747314453125</LatitudeDegrees>
              <LongitudeDegrees>-1.8303677625954151153564453125</LongitudeDegrees>
            </Position>
            <AltitudeMeters>201.8000030517578125</AltitudeMeters>
            <DistanceMeters>NAN</DistanceMeters>
          </Trackpoint>
          <Trackpoint>
            <Time>2021-08-11T12:54:02.000Z</Time>
            <Position>
              <LatitudeDegrees>43.30854292027652263641357421875</LatitudeDegrees>
              <LongitudeDegrees>-1.8303912319242954254150390625</LongitudeDegrees>
            </Position>
            <AltitudeMeters>201.8000030517578125</AltitudeMeters>
            <DistanceMeters>NAN</DistanceMeters>
          </Trackpoint>
          <Trackpoint>
            <Time>2021-08-11T12:54:03.000Z</Time>
            <Position>
              <LatitudeDegrees>43.30854057334363460540771484375</LatitudeDegrees>
              <LongitudeDegrees>-1.83042903430759906768798828125</LongitudeDegrees>
            </Position>
            <AltitudeMeters>201.600006103515625</AltitudeMeters>
            <DistanceMeters>NAN</DistanceMeters>
          </Trackpoint>
          <Trackpoint>
            <Time>2021-08-11T12:54:04.000Z</Time>
            <Position>
              <LatitudeDegrees>43.3085361309349536895751953125</LatitudeDegrees>
              <LongitudeDegrees>-1.830455102026462554931640625</LongitudeDegrees>
            </Position>
            <AltitudeMeters>201.600006103515625</AltitudeMeters>
            <DistanceMeters>NAN</DistanceMeters>
          </Trackpoint>
          <Trackpoint>
            <Time>2021-08-11T12:54:06.000Z</Time>
            <Position>
              <LatitudeDegrees>43.30852028913795948028564453125</LatitudeDegrees>
              <LongitudeDegrees>-1.830539591610431671142578125</LongitudeDegrees>
            </Position>
            <AltitudeMeters>201.1999969482421875</AltitudeMeters>
            <DistanceMeters>NAN</DistanceMeters>
          </Trackpoint>
          <Trackpoint>
            <Time>2021-08-11T12:54:07.000Z</Time>
            <Position>
              <LatitudeDegrees>43.30851919949054718017578125</LatitudeDegrees>
              <LongitudeDegrees>-1.83055602014064788818359375</LongitudeDegrees>
            </Position>
            <AltitudeMeters>201</AltitudeMeters>
            <DistanceMeters>NAN</DistanceMeters>
          </Trackpoint>
          <Trackpoint>
            <Time>2021-08-11T12:54:08.000Z</Time>
            <Position>
              <LatitudeDegrees>43.30851827748119831085205078125</LatitudeDegrees>
              <LongitudeDegrees>-1.8305615521967411041259765625</LongitudeDegrees>
            </Position>
            <AltitudeMeters>200.8000030517578125</AltitudeMeters>
            <DistanceMeters>NAN</DistanceMeters>
          </Trackpoint>
          <Trackpoint>
            <Time>2021-08-11T12:54:09.000Z</Time>
            <Position>
              <LatitudeDegrees>43.3085096441209316253662109375</LatitudeDegrees>
              <LongitudeDegrees>-1.8305789865553379058837890625</LongitudeDegrees>
            </Position>
            <AltitudeMeters>200.600006103515625</AltitudeMeters>
            <DistanceMeters>NAN</DistanceMeters>
          </Trackpoint>
          <Trackpoint>
            <Time>2021-08-11T12:54:10.000Z</Time>
            <Position>
              <LatitudeDegrees>43.30850972793996334075927734375</LatitudeDegrees>
              <LongitudeDegrees>-1.83059625327587127685546875</LongitudeDegrees>
            </Position>
            <AltitudeMeters>200.1999969482421875</AltitudeMeters>
            <DistanceMeters>NAN</DistanceMeters>
          </Trackpoint>
          <Trackpoint>
            <Time>2021-08-11T12:54:11.000Z</Time>
            <Position>
              <LatitudeDegrees>43.30851408652961254119873046875</LatitudeDegrees>
              <LongitudeDegrees>-1.83062039315700531005859375</LongitudeDegrees>
            </Position>
            <AltitudeMeters>200.1999969482421875</AltitudeMeters>
            <DistanceMeters>NAN</DistanceMeters>
          </Trackpoint>
          <Trackpoint>
            <Time>2021-08-11T12:54:12.000Z</Time>
            <Position>
              <LatitudeDegrees>43.30851643346250057220458984375</LatitudeDegrees>
              <LongitudeDegrees>-1.8306433595716953277587890625</LongitudeDegrees>
            </Position>
            <AltitudeMeters>200</AltitudeMeters>
            <DistanceMeters>NAN</DistanceMeters>
          </Trackpoint>
          <Trackpoint>
            <Time>2021-08-11T12:54:13.000Z</Time>
            <Position>
              <LatitudeDegrees>43.30850738100707530975341796875</LatitudeDegrees>
              <LongitudeDegrees>-1.83066540397703647613525390625</LongitudeDegrees>
            </Position>
            <AltitudeMeters>200</AltitudeMeters>
            <DistanceMeters>NAN</DistanceMeters>
          </Trackpoint>
          <Trackpoint>
            <Time>2021-08-11T12:54:14.000Z</Time>
            <Position>
              <LatitudeDegrees>43.30849707126617431640625</LatitudeDegrees>
              <LongitudeDegrees>-1.83068753220140933990478515625</LongitudeDegrees>
            </Position>
            <AltitudeMeters>199.8000030517578125</AltitudeMeters>
            <DistanceMeters>NAN</DistanceMeters>
          </Trackpoint>
          <Trackpoint>
            <Time>2021-08-11T12:54:15.000Z</Time>
            <Position>
              <LatitudeDegrees>43.30849329940974712371826171875</LatitudeDegrees>
              <LongitudeDegrees>-1.83070664294064044952392578125</LongitudeDegrees>
            </Position>
            <AltitudeMeters>199.600006103515625</AltitudeMeters>
            <DistanceMeters>NAN</DistanceMeters>
          </Trackpoint>
          <Trackpoint>
            <Time>2021-08-11T12:54:16.000Z</Time>
            <Position>
              <LatitudeDegrees>43.3084876835346221923828125</LatitudeDegrees>
              <LongitudeDegrees>-1.830738075077533721923828125</LongitudeDegrees>
            </Position>
            <AltitudeMeters>199.399993896484375</AltitudeMeters>
            <DistanceMeters>NAN</DistanceMeters>
          </Trackpoint>
          <Trackpoint>
            <Time>2021-08-11T12:54:17.000Z</Time>
            <Position>
              <LatitudeDegrees>43.30848458223044872283935546875</LatitudeDegrees>
              <LongitudeDegrees>-1.83076648972928524017333984375</LongitudeDegrees>
            </Position>
            <AltitudeMeters>199.399993896484375</AltitudeMeters>
            <DistanceMeters>NAN</DistanceMeters>
          </Trackpoint>
          <Trackpoint>
            <Time>2021-08-11T12:54:18.000Z</Time>
            <Position>
              <LatitudeDegrees>43.308483324944972991943359375</LatitudeDegrees>
              <LongitudeDegrees>-1.8307999335229396820068359375</LongitudeDegrees>
            </Position>
            <AltitudeMeters>199.1999969482421875</AltitudeMeters>
            <DistanceMeters>NAN</DistanceMeters>
          </Trackpoint>
          <Trackpoint>
            <Time>2021-08-11T12:54:20.000Z</Time>
            <Position>
              <LatitudeDegrees>43.30847821198403835296630859375</LatitudeDegrees>
              <LongitudeDegrees>-1.8308468721807003021240234375</LongitudeDegrees>
            </Position>
            <AltitudeMeters>199.1999969482421875</AltitudeMeters>
            <DistanceMeters>NAN</DistanceMeters>
          </Trackpoint>
          <Trackpoint>
            <Time>2021-08-11T12:54:22.000Z</Time>
            <Position>
              <LatitudeDegrees>43.30847754143178462982177734375</LatitudeDegrees>
              <LongitudeDegrees>-1.8308860994875431060791015625</LongitudeDegrees>
            </Position>
            <AltitudeMeters>199</AltitudeMeters>
            <DistanceMeters>NAN</DistanceMeters>
          </Trackpoint>
          <Trackpoint>
            <Time>2021-08-11T12:54:23.000Z</Time>
            <Position>
              <LatitudeDegrees>43.308475948870182037353515625</LatitudeDegrees>
              <LongitudeDegrees>-1.83089263737201690673828125</LongitudeDegrees>
            </Position>
            <AltitudeMeters>199</AltitudeMeters>
            <DistanceMeters>NAN</DistanceMeters>
          </Trackpoint>
          <Trackpoint>
            <Time>2021-08-11T12:54:25.000Z</Time>
            <Position>
              <LatitudeDegrees>43.308475948870182037353515625</LatitudeDegrees>
              <LongitudeDegrees>-1.83089263737201690673828125</LongitudeDegrees>
            </Position>
            <AltitudeMeters>198.8000030517578125</AltitudeMeters>
            <DistanceMeters>NAN</DistanceMeters>
          </Trackpoint>
          <Trackpoint>
            <Time>2021-08-11T12:54:33.000Z</Time>
            <Position>
              <LatitudeDegrees>43.308475948870182037353515625</LatitudeDegrees>
              <LongitudeDegrees>-1.83089263737201690673828125</LongitudeDegrees>
            </Position>
            <AltitudeMeters>197.8000030517578125</AltitudeMeters>
            <DistanceMeters>NAN</DistanceMeters>
          </Trackpoint>
          <Trackpoint>
            <Time>2021-08-11T12:54:50.000Z</Time>
            <Position>
              <LatitudeDegrees>43.30847603268921375274658203125</LatitudeDegrees>
              <LongitudeDegrees>-1.8308964930474758148193359375</LongitudeDegrees>
            </Position>
            <AltitudeMeters>197.8000030517578125</AltitudeMeters>
            <DistanceMeters>NAN</DistanceMeters>
          </Trackpoint>
          <Trackpoint>
            <Time>2021-08-11T12:54:53.000Z</Time>
            <Position>
              <LatitudeDegrees>43.3084742724895477294921875</LatitudeDegrees>
              <LongitudeDegrees>-1.8309756182134151458740234375</LongitudeDegrees>
            </Position>
            <AltitudeMeters>197.8000030517578125</AltitudeMeters>
            <DistanceMeters>NAN</DistanceMeters>
          </Trackpoint>
          <Trackpoint>
            <Time>2021-08-11T12:54:56.000Z</Time>
            <Position>
              <LatitudeDegrees>43.30848558805882930755615234375</LatitudeDegrees>
              <LongitudeDegrees>-1.8310810625553131103515625</LongitudeDegrees>
            </Position>
            <AltitudeMeters>197.8000030517578125</AltitudeMeters>
            <DistanceMeters>NAN</DistanceMeters>
          </Trackpoint>
          <Trackpoint>
            <Time>2021-08-11T12:54:57.000Z</Time>
            <Position>
              <LatitudeDegrees>43.3084932155907154083251953125</LatitudeDegrees>
              <LongitudeDegrees>-1.83111249469220638275146484375</LongitudeDegrees>
            </Position>
            <AltitudeMeters>197.8000030517578125</AltitudeMeters>
            <DistanceMeters>NAN</DistanceMeters>
          </Trackpoint>
          <Trackpoint>
            <Time>2021-08-11T12:54:58.000Z</Time>
            <Position>
              <LatitudeDegrees>43.308500088751316070556640625</LatitudeDegrees>
              <LongitudeDegrees>-1.8311559967696666717529296875</LongitudeDegrees>
            </Position>
            <AltitudeMeters>197.399993896484375</AltitudeMeters>
            <DistanceMeters>NAN</DistanceMeters>
          </Trackpoint>
          <Trackpoint>
            <Time>2021-08-11T12:54:59.000Z</Time>
            <Position>
              <LatitudeDegrees>43.30850436352193355560302734375</LatitudeDegrees>
              <LongitudeDegrees>-1.8312032707035541534423828125</LongitudeDegrees>
            </Position>
            <AltitudeMeters>197.399993896484375</AltitudeMeters>
            <DistanceMeters>NAN</DistanceMeters>
          </Trackpoint>
          <Trackpoint>
            <Time>2021-08-11T12:55:00.000Z</Time>
            <Position>
              <LatitudeDegrees>43.3085079677402973175048828125</LatitudeDegrees>
              <LongitudeDegrees>-1.83125180192291736602783203125</LongitudeDegrees>
            </Position>
            <AltitudeMeters>197</AltitudeMeters>
            <DistanceMeters>NAN</DistanceMeters>
          </Trackpoint>
          <Trackpoint>
            <Time>2021-08-11T12:55:01.000Z</Time>
            <Position>
              <LatitudeDegrees>43.30850578844547271728515625</LatitudeDegrees>
              <LongitudeDegrees>-1.83130167424678802490234375</LongitudeDegrees>
            </Position>
            <AltitudeMeters>196.600006103515625</AltitudeMeters>
            <DistanceMeters>NAN</DistanceMeters>
          </Trackpoint>
          <Trackpoint>
            <Time>2021-08-11T12:55:03.000Z</Time>
            <Position>
              <LatitudeDegrees>43.308504782617092132568359375</LatitudeDegrees>
              <LongitudeDegrees>-1.8314082920551300048828125</LongitudeDegrees>
            </Position>
            <AltitudeMeters>196.1999969482421875</AltitudeMeters>
            <DistanceMeters>NAN</DistanceMeters>
          </Trackpoint>
          <Trackpoint>
            <Time>2021-08-11T12:55:04.000Z</Time>
            <Position>
              <LatitudeDegrees>43.30850956030189990997314453125</LatitudeDegrees>
              <LongitudeDegrees>-1.8314550630748271942138671875</LongitudeDegrees>
            </Position>
            <AltitudeMeters>196</AltitudeMeters>
            <DistanceMeters>NAN</DistanceMeters>
          </Trackpoint>
          <Trackpoint>
            <Time>2021-08-11T12:55:05.000Z</Time>
            <Position>
              <LatitudeDegrees>43.3085116557776927947998046875</LatitudeDegrees>
              <LongitudeDegrees>-1.83150057680904865264892578125</LongitudeDegrees>
            </Position>
            <AltitudeMeters>195.600006103515625</AltitudeMeters>
            <DistanceMeters>NAN</DistanceMeters>
          </Trackpoint>
          <Trackpoint>
            <Time>2021-08-11T12:55:06.000Z</Time>
            <Position>
              <LatitudeDegrees>43.30850939266383647918701171875</LatitudeDegrees>
              <LongitudeDegrees>-1.831552125513553619384765625</LongitudeDegrees>
            </Position>
            <AltitudeMeters>195.399993896484375</AltitudeMeters>
            <DistanceMeters>NAN</DistanceMeters>
          </Trackpoint>
          <Trackpoint>
            <Time>2021-08-11T12:55:07.000Z</Time>
            <Position>
              <LatitudeDegrees>43.30850821919739246368408203125</LatitudeDegrees>
              <LongitudeDegrees>-1.83161457069218158721923828125</LongitudeDegrees>
            </Position>
            <AltitudeMeters>195</AltitudeMeters>
            <DistanceMeters>NAN</DistanceMeters>
          </Trackpoint>
          <Trackpoint>
            <Time>2021-08-11T12:55:11.000Z</Time>
            <Position>
              <LatitudeDegrees>43.30850687809288501739501953125</LatitudeDegrees>
              <LongitudeDegrees>-1.83186770416796207427978515625</LongitudeDegrees>
            </Position>
            <AltitudeMeters>194.399993896484375</AltitudeMeters>
            <DistanceMeters>NAN</DistanceMeters>
          </Trackpoint>
          <Trackpoint>
            <Time>2021-08-11T12:55:13.000Z</Time>
            <Position>
              <LatitudeDegrees>43.30851006321609020233154296875</LatitudeDegrees>
              <LongitudeDegrees>-1.83204623870551586151123046875</LongitudeDegrees>
            </Position>
            <AltitudeMeters>194</AltitudeMeters>
            <DistanceMeters>NAN</DistanceMeters>
          </Trackpoint>
          <Trackpoint>
            <Time>2021-08-11T12:55:15.000Z</Time>
            <Position>
              <LatitudeDegrees>43.30849505960941314697265625</LatitudeDegrees>
              <LongitudeDegrees>-1.83221169747412204742431640625</LongitudeDegrees>
            </Position>
            <AltitudeMeters>193</AltitudeMeters>
            <DistanceMeters>NAN</DistanceMeters>
          </Trackpoint>
          <Trackpoint>
            <Time>2021-08-11T12:55:17.000Z</Time>
            <Position>
              <LatitudeDegrees>43.30849883146584033966064453125</LatitudeDegrees>
              <LongitudeDegrees>-1.83238402940332889556884765625</LongitudeDegrees>
            </Position>
            <AltitudeMeters>192</AltitudeMeters>
            <DistanceMeters>NAN</DistanceMeters>
          </Trackpoint>
          <Trackpoint>
            <Time>2021-08-11T12:55:19.000Z</Time>
            <Position>
              <LatitudeDegrees>43.3084955625236034393310546875</LatitudeDegrees>
              <LongitudeDegrees>-1.8325603008270263671875</LongitudeDegrees>
            </Position>
            <AltitudeMeters>191</AltitudeMeters>
            <DistanceMeters>NAN</DistanceMeters>
          </Trackpoint>
          <Trackpoint>
            <Time>2021-08-11T12:55:20.000Z</Time>
            <Position>
              <LatitudeDegrees>43.3085002563893795013427734375</LatitudeDegrees>
              <LongitudeDegrees>-1.83265208266675472259521484375</LongitudeDegrees>
            </Position>
            <AltitudeMeters>190.8000030517578125</AltitudeMeters>
            <DistanceMeters>NAN</DistanceMeters>
          </Trackpoint>
          <Trackpoint>
            <Time>2021-08-11T12:55:22.000Z</Time>
            <Position>
              <LatitudeDegrees>43.30850754864513874053955078125</LatitudeDegrees>
              <LongitudeDegrees>-1.83281821198761463165283203125</LongitudeDegrees>
            </Position>
            <AltitudeMeters>189.399993896484375</AltitudeMeters>
            <DistanceMeters>NAN</DistanceMeters>
          </Trackpoint>
          <Trackpoint>
            <Time>2021-08-11T12:55:24.000Z</Time>
            <Position>
              <LatitudeDegrees>43.30851852893829345703125</LatitudeDegrees>
              <LongitudeDegrees>-1.83298719115555286407470703125</LongitudeDegrees>
            </Position>
            <AltitudeMeters>187.8000030517578125</AltitudeMeters>
            <DistanceMeters>NAN</DistanceMeters>
          </Trackpoint>
          <Trackpoint>
            <Time>2021-08-11T12:55:26.000Z</Time>
            <Position>
              <LatitudeDegrees>43.30853101797401905059814453125</LatitudeDegrees>
              <LongitudeDegrees>-1.83314166963100433349609375</LongitudeDegrees>
            </Position>
            <AltitudeMeters>186.600006103515625</AltitudeMeters>
            <DistanceMeters>NAN</DistanceMeters>
          </Trackpoint>
          <Trackpoint>
            <Time>2021-08-11T12:55:28.000Z</Time>
            <Position>
              <LatitudeDegrees>43.30853738822042942047119140625</LatitudeDegrees>
              <LongitudeDegrees>-1.83330151252448558807373046875</LongitudeDegrees>
            </Position>
            <AltitudeMeters>185.1999969482421875</AltitudeMeters>
            <DistanceMeters>NAN</DistanceMeters>
          </Trackpoint>
          <Trackpoint>
            <Time>2021-08-11T12:55:31.000Z</Time>
            <Position>
              <LatitudeDegrees>43.3085706643760204315185546875</LatitudeDegrees>
              <LongitudeDegrees>-1.83354006148874759674072265625</LongitudeDegrees>
            </Position>
            <AltitudeMeters>183.600006103515625</AltitudeMeters>
            <DistanceMeters>NAN</DistanceMeters>
          </Trackpoint>
          <Trackpoint>
            <Time>2021-08-11T12:55:32.000Z</Time>
            <Position>
              <LatitudeDegrees>43.3085954748094081878662109375</LatitudeDegrees>
              <LongitudeDegrees>-1.833619773387908935546875</LongitudeDegrees>
            </Position>
            <AltitudeMeters>182.8000030517578125</AltitudeMeters>
            <DistanceMeters>NAN</DistanceMeters>
          </Trackpoint>
          <Trackpoint>
            <Time>2021-08-11T12:55:33.000Z</Time>
            <Position>
              <LatitudeDegrees>43.3086233027279376983642578125</LatitudeDegrees>
              <LongitudeDegrees>-1.83369428850710391998291015625</LongitudeDegrees>
            </Position>
            <AltitudeMeters>181.8000030517578125</AltitudeMeters>
            <DistanceMeters>NAN</DistanceMeters>
          </Trackpoint>
          <Trackpoint>
            <Time>2021-08-11T12:55:34.000Z</Time>
            <Position>
              <LatitudeDegrees>43.30865724943578243255615234375</LatitudeDegrees>
              <LongitudeDegrees>-1.83375849388539791107177734375</LongitudeDegrees>
            </Position>
            <AltitudeMeters>181.600006103515625</AltitudeMeters>
            <DistanceMeters>NAN</DistanceMeters>
          </Trackpoint>
          <Trackpoint>
            <Time>2021-08-11T12:55:35.000Z</Time>
            <Position>
              <LatitudeDegrees>43.30869144760072231292724609375</LatitudeDegrees>
              <LongitudeDegrees>-1.83382320217788219451904296875</LongitudeDegrees>
            </Position>
            <AltitudeMeters>180.8000030517578125</AltitudeMeters>
            <DistanceMeters>NAN</DistanceMeters>
          </Trackpoint>
          <Trackpoint>
            <Time>2021-08-11T12:55:37.000Z</Time>
            <Position>
              <LatitudeDegrees>43.30876001156866550445556640625</LatitudeDegrees>
              <LongitudeDegrees>-1.83394155465066432952880859375</LongitudeDegrees>
            </Position>
            <AltitudeMeters>179.600006103515625</AltitudeMeters>
            <DistanceMeters>NAN</DistanceMeters>
          </Trackpoint>
          <Trackpoint>
            <Time>2021-08-11T12:55:39.000Z</Time>
            <Position>
              <LatitudeDegrees>43.30880661495029926300048828125</LatitudeDegrees>
              <LongitudeDegrees>-1.83406208641827106475830078125</LongitudeDegrees>
            </Position>
            <AltitudeMeters>178.399993896484375</AltitudeMeters>
            <DistanceMeters>NAN</DistanceMeters>
          </Trackpoint>
          <Trackpoint>
            <Time>2021-08-11T12:55:40.000Z</Time>
            <Position>
              <LatitudeDegrees>43.3088234625756740570068359375</LatitudeDegrees>
              <LongitudeDegrees>-1.83412210084497928619384765625</LongitudeDegrees>
            </Position>
            <AltitudeMeters>177.8000030517578125</AltitudeMeters>
            <DistanceMeters>NAN</DistanceMeters>
          </Trackpoint>
          <Trackpoint>
            <Time>2021-08-11T12:55:41.000Z</Time>
            <Position>
              <LatitudeDegrees>43.3088348619639873504638671875</LatitudeDegrees>
              <LongitudeDegrees>-1.8341790139675140380859375</LongitudeDegrees>
            </Position>
            <AltitudeMeters>177</AltitudeMeters>
            <DistanceMeters>NAN</DistanceMeters>
          </Trackpoint>
          <Trackpoint>
            <Time>2021-08-11T12:55:42.000Z</Time>
            <Position>
              <LatitudeDegrees>43.308843411505222320556640625</LatitudeDegrees>
              <LongitudeDegrees>-1.8342328257858753204345703125</LongitudeDegrees>
            </Position>
            <AltitudeMeters>176.1999969482421875</AltitudeMeters>
            <DistanceMeters>NAN</DistanceMeters>
          </Trackpoint>
          <Trackpoint>
            <Time>2021-08-11T12:55:43.000Z</Time>
            <Position>
              <LatitudeDegrees>43.30885623581707477569580078125</LatitudeDegrees>
              <LongitudeDegrees>-1.83427968062460422515869140625</LongitudeDegrees>
            </Position>
            <AltitudeMeters>175.1999969482421875</AltitudeMeters>
            <DistanceMeters>NAN</DistanceMeters>
          </Trackpoint>
          <Trackpoint>
            <Time>2021-08-11T12:55:44.000Z</Time>
            <Position>
              <LatitudeDegrees>43.3088677190244197845458984375</LatitudeDegrees>
              <LongitudeDegrees>-1.834320835769176483154296875</LongitudeDegrees>
            </Position>
            <AltitudeMeters>174.8000030517578125</AltitudeMeters>
            <DistanceMeters>NAN</DistanceMeters>
          </Trackpoint>
          <Trackpoint>
            <Time>2021-08-11T12:55:45.000Z</Time>
            <Position>
              <LatitudeDegrees>43.308875262737274169921875</LatitudeDegrees>
              <LongitudeDegrees>-1.8343627452850341796875</LongitudeDegrees>
            </Position>
            <AltitudeMeters>174.399993896484375</AltitudeMeters>
            <DistanceMeters>NAN</DistanceMeters>
          </Trackpoint>
          <Trackpoint>
            <Time>2021-08-11T12:55:46.000Z</Time>
            <Position>
              <LatitudeDegrees>43.30888087861239910125732421875</LatitudeDegrees>
              <LongitudeDegrees>-1.83440054766833782196044921875</LongitudeDegrees>
            </Position>
            <AltitudeMeters>174</AltitudeMeters>
            <DistanceMeters>NAN</DistanceMeters>
          </Trackpoint>
          <Trackpoint>
            <Time>2021-08-11T12:55:47.000Z</Time>
            <Position>
              <LatitudeDegrees>43.3088834770023822784423828125</LatitudeDegrees>
              <LongitudeDegrees>-1.83443424291908740997314453125</LongitudeDegrees>
            </Position>
            <AltitudeMeters>173.1999969482421875</AltitudeMeters>
            <DistanceMeters>NAN</DistanceMeters>
          </Trackpoint>
          <Trackpoint>
            <Time>2021-08-11T12:55:48.000Z</Time>
            <Position>
              <LatitudeDegrees>43.3088848181068897247314453125</LatitudeDegrees>
              <LongitudeDegrees>-1.83446559123694896697998046875</LongitudeDegrees>
            </Position>
            <AltitudeMeters>172.600006103515625</AltitudeMeters>
            <DistanceMeters>NAN</DistanceMeters>
          </Trackpoint>
          <Trackpoint>
            <Time>2021-08-11T12:55:49.000Z</Time>
            <Position>
              <LatitudeDegrees>43.308889679610729217529296875</LatitudeDegrees>
              <LongitudeDegrees>-1.83449677191674709320068359375</LongitudeDegrees>
            </Position>
            <AltitudeMeters>171.1999969482421875</AltitudeMeters>
            <DistanceMeters>NAN</DistanceMeters>
          </Trackpoint>
          <Trackpoint>
            <Time>2021-08-11T12:55:51.000Z</Time>
            <Position>
              <LatitudeDegrees>43.30891205929219722747802734375</LatitudeDegrees>
              <LongitudeDegrees>-1.83456332422792911529541015625</LongitudeDegrees>
            </Position>
            <AltitudeMeters>170</AltitudeMeters>
            <DistanceMeters>NAN</DistanceMeters>
          </Trackpoint>
          <Trackpoint>
            <Time>2021-08-11T12:55:52.000Z</Time>
            <Position>
              <LatitudeDegrees>43.30892982892692089080810546875</LatitudeDegrees>
              <LongitudeDegrees>-1.8345942534506320953369140625</LongitudeDegrees>
            </Position>
            <AltitudeMeters>169.1999969482421875</AltitudeMeters>
            <DistanceMeters>NAN</DistanceMeters>
          </Trackpoint>
          <Trackpoint>
            <Time>2021-08-11T12:55:53.000Z</Time>
            <Position>
              <LatitudeDegrees>43.3089528791606426239013671875</LatitudeDegrees>
              <LongitudeDegrees>-1.83463071472942829132080078125</LongitudeDegrees>
            </Position>
            <AltitudeMeters>168.8000030517578125</AltitudeMeters>
            <DistanceMeters>NAN</DistanceMeters>
          </Trackpoint>
          <Trackpoint>
            <Time>2021-08-11T12:55:55.000Z</Time>
            <Position>
              <LatitudeDegrees>43.3090025000274181365966796875</LatitudeDegrees>
              <LongitudeDegrees>-1.83471235446631908416748046875</LongitudeDegrees>
            </Position>
            <AltitudeMeters>167.399993896484375</AltitudeMeters>
            <DistanceMeters>NAN</DistanceMeters>
          </Trackpoint>
          <Trackpoint>
            <Time>2021-08-11T12:55:57.000Z</Time>
            <Position>
              <LatitudeDegrees>43.30905773676931858062744140625</LatitudeDegrees>
              <LongitudeDegrees>-1.83481679297983646392822265625</LongitudeDegrees>
            </Position>
            <AltitudeMeters>166</AltitudeMeters>
            <DistanceMeters>NAN</DistanceMeters>
          </Trackpoint>
          <Trackpoint>
            <Time>2021-08-11T12:55:58.000Z</Time>
            <Position>
              <LatitudeDegrees>43.309086821973323822021484375</LatitudeDegrees>
              <LongitudeDegrees>-1.8348705209791660308837890625</LongitudeDegrees>
            </Position>
            <AltitudeMeters>165.399993896484375</AltitudeMeters>
            <DistanceMeters>NAN</DistanceMeters>
          </Trackpoint>
          <Trackpoint>
            <Time>2021-08-11T12:55:59.000Z</Time>
            <Position>
              <LatitudeDegrees>43.3091128058731555938720703125</LatitudeDegrees>
              <LongitudeDegrees>-1.834921650588512420654296875</LongitudeDegrees>
            </Position>
            <AltitudeMeters>164.1999969482421875</AltitudeMeters>
            <DistanceMeters>NAN</DistanceMeters>
          </Trackpoint>
          <Trackpoint>
            <Time>2021-08-11T12:56:00.000Z</Time>
            <Position>
              <LatitudeDegrees>43.3091314136981964111328125</LatitudeDegrees>
              <LongitudeDegrees>-1.83496892452239990234375</LongitudeDegrees>
            </Position>
            <AltitudeMeters>163.8000030517578125</AltitudeMeters>
            <DistanceMeters>NAN</DistanceMeters>
          </Trackpoint>
          <Trackpoint>
            <Time>2021-08-11T12:56:01.000Z</Time>
            <Position>
              <LatitudeDegrees>43.3091429807245731353759765625</LatitudeDegrees>
              <LongitudeDegrees>-1.83501477353274822235107421875</LongitudeDegrees>
            </Position>
            <AltitudeMeters>162.399993896484375</AltitudeMeters>
            <DistanceMeters>NAN</DistanceMeters>
          </Trackpoint>
          <Trackpoint>
            <Time>2021-08-11T12:56:02.000Z</Time>
            <Position>
              <LatitudeDegrees>43.30914725549519062042236328125</LatitudeDegrees>
              <LongitudeDegrees>-1.8350629694759845733642578125</LongitudeDegrees>
            </Position>
            <AltitudeMeters>162.1999969482421875</AltitudeMeters>
            <DistanceMeters>NAN</DistanceMeters>
          </Trackpoint>
          <Trackpoint>
            <Time>2021-08-11T12:56:03.000Z</Time>
            <Position>
              <LatitudeDegrees>43.30914960242807865142822265625</LatitudeDegrees>
              <LongitudeDegrees>-1.83509968221187591552734375</LongitudeDegrees>
            </Position>
            <AltitudeMeters>161.1999969482421875</AltitudeMeters>
            <DistanceMeters>NAN</DistanceMeters>
          </Trackpoint>
          <Trackpoint>
            <Time>2021-08-11T12:56:04.000Z</Time>
            <Position>
              <LatitudeDegrees>43.30915546976029872894287109375</LatitudeDegrees>
              <LongitudeDegrees>-1.835127510130405426025390625</LongitudeDegrees>
            </Position>
            <AltitudeMeters>160.399993896484375</AltitudeMeters>
            <DistanceMeters>NAN</DistanceMeters>
          </Trackpoint>
          <Trackpoint>
            <Time>2021-08-11T12:56:05.000Z</Time>
            <Position>
              <LatitudeDegrees>43.30915982834994792938232421875</LatitudeDegrees>
              <LongitudeDegrees>-1.835148967802524566650390625</LongitudeDegrees>
            </Position>
            <AltitudeMeters>160.1999969482421875</AltitudeMeters>
            <DistanceMeters>NAN</DistanceMeters>
          </Trackpoint>
          <Trackpoint>
            <Time>2021-08-11T12:56:06.000Z</Time>
            <Position>
              <LatitudeDegrees>43.309159576892852783203125</LatitudeDegrees>
              <LongitudeDegrees>-1.83517344295978546142578125</LongitudeDegrees>
            </Position>
            <AltitudeMeters>159</AltitudeMeters>
            <DistanceMeters>NAN</DistanceMeters>
          </Trackpoint>
          <Trackpoint>
            <Time>2021-08-11T12:56:07.000Z</Time>
            <Position>
              <LatitudeDegrees>43.30916427075862884521484375</LatitudeDegrees>
              <LongitudeDegrees>-1.8351955711841583251953125</LongitudeDegrees>
            </Position>
            <AltitudeMeters>158.600006103515625</AltitudeMeters>
            <DistanceMeters>NAN</DistanceMeters>
          </Trackpoint>
          <Trackpoint>
            <Time>2021-08-11T12:56:08.000Z</Time>
            <Position>
              <LatitudeDegrees>43.3091644383966922760009765625</LatitudeDegrees>
              <LongitudeDegrees>-1.83521895669400691986083984375</LongitudeDegrees>
            </Position>
            <AltitudeMeters>158.1999969482421875</AltitudeMeters>
            <DistanceMeters>NAN</DistanceMeters>
          </Trackpoint>
          <Trackpoint>
            <Time>2021-08-11T12:56:09.000Z</Time>
            <Position>
              <LatitudeDegrees>43.30916921608150005340576171875</LatitudeDegrees>
              <LongitudeDegrees>-1.83524142019450664520263671875</LongitudeDegrees>
            </Position>
            <AltitudeMeters>158</AltitudeMeters>
            <DistanceMeters>NAN</DistanceMeters>
          </Trackpoint>
          <Trackpoint>
            <Time>2021-08-11T12:56:10.000Z</Time>
            <Position>
              <LatitudeDegrees>43.30916871316730976104736328125</LatitudeDegrees>
              <LongitudeDegrees>-1.8352591060101985931396484375</LongitudeDegrees>
            </Position>
            <AltitudeMeters>157.600006103515625</AltitudeMeters>
            <DistanceMeters>NAN</DistanceMeters>
          </Trackpoint>
          <Trackpoint>
            <Time>2021-08-11T12:56:11.000Z</Time>
            <Position>
              <LatitudeDegrees>43.30916292965412139892578125</LatitudeDegrees>
              <LongitudeDegrees>-1.8352788873016834259033203125</LongitudeDegrees>
            </Position>
            <AltitudeMeters>157.1999969482421875</AltitudeMeters>
            <DistanceMeters>NAN</DistanceMeters>
          </Trackpoint>
          <Trackpoint>
            <Time>2021-08-11T12:56:12.000Z</Time>
            <Position>
              <LatitudeDegrees>43.30915463156998157501220703125</LatitudeDegrees>
              <LongitudeDegrees>-1.83529892005026340484619140625</LongitudeDegrees>
            </Position>
            <AltitudeMeters>157.1999969482421875</AltitudeMeters>
            <DistanceMeters>NAN</DistanceMeters>
          </Trackpoint>
          <Trackpoint>
            <Time>2021-08-11T12:56:13.000Z</Time>
            <Position>
              <LatitudeDegrees>43.30914909951388835906982421875</LatitudeDegrees>
              <LongitudeDegrees>-1.8353315256536006927490234375</LongitudeDegrees>
            </Position>
            <AltitudeMeters>157</AltitudeMeters>
            <DistanceMeters>NAN</DistanceMeters>
          </Trackpoint>
          <Trackpoint>
            <Time>2021-08-11T12:56:14.000Z</Time>
            <Position>
              <LatitudeDegrees>43.30914859659969806671142578125</LatitudeDegrees>
              <LongitudeDegrees>-1.8353650532662868499755859375</LongitudeDegrees>
            </Position>
            <AltitudeMeters>156.8000030517578125</AltitudeMeters>
            <DistanceMeters>NAN</DistanceMeters>
          </Trackpoint>
          <Trackpoint>
            <Time>2021-08-11T12:56:15.000Z</Time>
            <Position>
              <LatitudeDegrees>43.30915077589452266693115234375</LatitudeDegrees>
              <LongitudeDegrees>-1.835401766002178192138671875</LongitudeDegrees>
            </Position>
            <AltitudeMeters>156.600006103515625</AltitudeMeters>
            <DistanceMeters>NAN</DistanceMeters>
          </Trackpoint>
          <Trackpoint>
            <Time>2021-08-11T12:56:16.000Z</Time>
            <Position>
              <LatitudeDegrees>43.3091540448367595672607421875</LatitudeDegrees>
              <LongitudeDegrees>-1.83543923310935497283935546875</LongitudeDegrees>
            </Position>
            <AltitudeMeters>156.600006103515625</AltitudeMeters>
            <DistanceMeters>NAN</DistanceMeters>
          </Trackpoint>
          <Trackpoint>
            <Time>2021-08-11T12:56:17.000Z</Time>
            <Position>
              <LatitudeDegrees>43.3091500215232372283935546875</LatitudeDegrees>
              <LongitudeDegrees>-1.8354736827313899993896484375</LongitudeDegrees>
            </Position>
            <AltitudeMeters>156.399993896484375</AltitudeMeters>
            <DistanceMeters>NAN</DistanceMeters>
          </Trackpoint>
          <Trackpoint>
            <Time>2021-08-11T12:56:18.000Z</Time>
            <Position>
              <LatitudeDegrees>43.309144489467144012451171875</LatitudeDegrees>
              <LongitudeDegrees>-1.8354907818138599395751953125</LongitudeDegrees>
            </Position>
            <AltitudeMeters>156.1999969482421875</AltitudeMeters>
            <DistanceMeters>NAN</DistanceMeters>
          </Trackpoint>
          <Trackpoint>
            <Time>2021-08-11T12:56:19.000Z</Time>
            <Position>
              <LatitudeDegrees>43.3091510273516178131103515625</LatitudeDegrees>
              <LongitudeDegrees>-1.83550737798213958740234375</LongitudeDegrees>
            </Position>
            <AltitudeMeters>156.1999969482421875</AltitudeMeters>
            <DistanceMeters>NAN</DistanceMeters>
          </Trackpoint>
          <Trackpoint>
            <Time>2021-08-11T12:56:20.000Z</Time>
            <Position>
              <LatitudeDegrees>43.309154547750949859619140625</LatitudeDegrees>
              <LongitudeDegrees>-1.83552573435008525848388671875</LongitudeDegrees>
            </Position>
            <AltitudeMeters>155.8000030517578125</AltitudeMeters>
            <DistanceMeters>NAN</DistanceMeters>
          </Trackpoint>
          <Trackpoint>
            <Time>2021-08-11T12:56:21.000Z</Time>
            <Position>
              <LatitudeDegrees>43.30915446393191814422607421875</LatitudeDegrees>
              <LongitudeDegrees>-1.83554224669933319091796875</LongitudeDegrees>
            </Position>
            <AltitudeMeters>155.600006103515625</AltitudeMeters>
            <DistanceMeters>NAN</DistanceMeters>
          </Trackpoint>
          <Trackpoint>
            <Time>2021-08-11T12:56:22.000Z</Time>
            <Position>
              <LatitudeDegrees>43.30915848724544048309326171875</LatitudeDegrees>
              <LongitudeDegrees>-1.835560686886310577392578125</LongitudeDegrees>
            </Position>
            <AltitudeMeters>155.399993896484375</AltitudeMeters>
            <DistanceMeters>NAN</DistanceMeters>
          </Trackpoint>
          <Trackpoint>
            <Time>2021-08-11T12:56:23.000Z</Time>
            <Position>
              <LatitudeDegrees>43.30915882252156734466552734375</LatitudeDegrees>
              <LongitudeDegrees>-1.835592202842235565185546875</LongitudeDegrees>
            </Position>
            <AltitudeMeters>155.1999969482421875</AltitudeMeters>
            <DistanceMeters>NAN</DistanceMeters>
          </Trackpoint>
          <Trackpoint>
            <Time>2021-08-11T12:56:24.000Z</Time>
            <Position>
              <LatitudeDegrees>43.30915597267448902130126953125</LatitudeDegrees>
              <LongitudeDegrees>-1.83562162332236766815185546875</LongitudeDegrees>
            </Position>
            <AltitudeMeters>154.8000030517578125</AltitudeMeters>
            <DistanceMeters>NAN</DistanceMeters>
          </Trackpoint>
          <Trackpoint>
            <Time>2021-08-11T12:56:25.000Z</Time>
            <Position>
              <LatitudeDegrees>43.3091567270457744598388671875</LatitudeDegrees>
              <LongitudeDegrees>-1.8356515467166900634765625</LongitudeDegrees>
            </Position>
            <AltitudeMeters>154.600006103515625</AltitudeMeters>
            <DistanceMeters>NAN</DistanceMeters>
          </Trackpoint>
          <Trackpoint>
            <Time>2021-08-11T12:56:28.000Z</Time>
            <Position>
              <LatitudeDegrees>43.309175670146942138671875</LatitudeDegrees>
              <LongitudeDegrees>-1.83576495386660099029541015625</LongitudeDegrees>
            </Position>
            <AltitudeMeters>153.8000030517578125</AltitudeMeters>
            <DistanceMeters>NAN</DistanceMeters>
          </Trackpoint>
          <Trackpoint>
            <Time>2021-08-11T12:56:29.000Z</Time>
            <Position>
              <LatitudeDegrees>43.30919922329485416412353515625</LatitudeDegrees>
              <LongitudeDegrees>-1.83580644428730010986328125</LongitudeDegrees>
            </Position>
            <AltitudeMeters>153.399993896484375</AltitudeMeters>
            <DistanceMeters>NAN</DistanceMeters>
          </Trackpoint>
          <Trackpoint>
            <Time>2021-08-11T12:56:30.000Z</Time>
            <Position>
              <LatitudeDegrees>43.30921079032123088836669921875</LatitudeDegrees>
              <LongitudeDegrees>-1.83584474958479404449462890625</LongitudeDegrees>
            </Position>
            <AltitudeMeters>153.1999969482421875</AltitudeMeters>
            <DistanceMeters>NAN</DistanceMeters>
          </Trackpoint>
          <Trackpoint>
            <Time>2021-08-11T12:56:32.000Z</Time>
            <Position>
              <LatitudeDegrees>43.30923392437398433685302734375</LatitudeDegrees>
              <LongitudeDegrees>-1.835919432342052459716796875</LongitudeDegrees>
            </Position>
            <AltitudeMeters>152.1999969482421875</AltitudeMeters>
            <DistanceMeters>NAN</DistanceMeters>
          </Trackpoint>
          <Trackpoint>
            <Time>2021-08-11T12:56:34.000Z</Time>
            <Position>
              <LatitudeDegrees>43.30926745198667049407958984375</LatitudeDegrees>
              <LongitudeDegrees>-1.8359760940074920654296875</LongitudeDegrees>
            </Position>
            <AltitudeMeters>151.8000030517578125</AltitudeMeters>
            <DistanceMeters>NAN</DistanceMeters>
          </Trackpoint>
          <Trackpoint>
            <Time>2021-08-11T12:56:36.000Z</Time>
            <Position>
              <LatitudeDegrees>43.3092884905636310577392578125</LatitudeDegrees>
              <LongitudeDegrees>-1.83606804348528385162353515625</LongitudeDegrees>
            </Position>
            <AltitudeMeters>150.8000030517578125</AltitudeMeters>
            <DistanceMeters>NAN</DistanceMeters>
          </Trackpoint>
          <Trackpoint>
            <Time>2021-08-11T12:56:38.000Z</Time>
            <Position>
              <LatitudeDegrees>43.30931388773024082183837890625</LatitudeDegrees>
              <LongitudeDegrees>-1.8361583165824413299560546875</LongitudeDegrees>
            </Position>
            <AltitudeMeters>149.600006103515625</AltitudeMeters>
            <DistanceMeters>NAN</DistanceMeters>
          </Trackpoint>
          <Trackpoint>
            <Time>2021-08-11T12:56:39.000Z</Time>
            <Position>
              <LatitudeDegrees>43.3093330822885036468505859375</LatitudeDegrees>
              <LongitudeDegrees>-1.8361998908221721649169921875</LongitudeDegrees>
            </Position>
            <AltitudeMeters>148.8000030517578125</AltitudeMeters>
            <DistanceMeters>NAN</DistanceMeters>
          </Trackpoint>
          <Trackpoint>
            <Time>2021-08-11T12:56:41.000Z</Time>
            <Position>
              <LatitudeDegrees>43.30935537815093994140625</LatitudeDegrees>
              <LongitudeDegrees>-1.8363169021904468536376953125</LongitudeDegrees>
            </Position>
            <AltitudeMeters>147.8000030517578125</AltitudeMeters>
            <DistanceMeters>NAN</DistanceMeters>
          </Trackpoint>
          <Trackpoint>
            <Time>2021-08-11T12:56:43.000Z</Time>
            <Position>
              <LatitudeDegrees>43.309387229382991790771484375</LatitudeDegrees>
              <LongitudeDegrees>-1.83643986470997333526611328125</LongitudeDegrees>
            </Position>
            <AltitudeMeters>146</AltitudeMeters>
            <DistanceMeters>NAN</DistanceMeters>
          </Trackpoint>
          <Trackpoint>
            <Time>2021-08-11T12:56:44.000Z</Time>
            <Position>
              <LatitudeDegrees>43.30936334095895290374755859375</LatitudeDegrees>
              <LongitudeDegrees>-1.8364825285971164703369140625</LongitudeDegrees>
            </Position>
            <AltitudeMeters>145.399993896484375</AltitudeMeters>
            <DistanceMeters>NAN</DistanceMeters>
          </Trackpoint>
          <Trackpoint>
            <Time>2021-08-11T12:56:46.000Z</Time>
            <Position>
              <LatitudeDegrees>43.30930508673191070556640625</LatitudeDegrees>
              <LongitudeDegrees>-1.83656710200011730194091796875</LongitudeDegrees>
            </Position>
            <AltitudeMeters>144.1999969482421875</AltitudeMeters>
            <DistanceMeters>NAN</DistanceMeters>
          </Trackpoint>
          <Trackpoint>
            <Time>2021-08-11T12:56:47.000Z</Time>
            <Position>
              <LatitudeDegrees>43.30929980613291263580322265625</LatitudeDegrees>
              <LongitudeDegrees>-1.8366049043834209442138671875</LongitudeDegrees>
            </Position>
            <AltitudeMeters>144</AltitudeMeters>
            <DistanceMeters>NAN</DistanceMeters>
          </Trackpoint>
          <Trackpoint>
            <Time>2021-08-11T12:56:48.000Z</Time>
            <Position>
              <LatitudeDegrees>43.30930030904710292816162109375</LatitudeDegrees>
              <LongitudeDegrees>-1.83664119802415370941162109375</LongitudeDegrees>
            </Position>
            <AltitudeMeters>143.1999969482421875</AltitudeMeters>
            <DistanceMeters>NAN</DistanceMeters>
          </Trackpoint>
          <Trackpoint>
            <Time>2021-08-11T12:56:50.000Z</Time>
            <Position>
              <LatitudeDegrees>43.30929947085678577423095703125</LatitudeDegrees>
              <LongitudeDegrees>-1.83673641644418239593505859375</LongitudeDegrees>
            </Position>
            <AltitudeMeters>142.399993896484375</AltitudeMeters>
            <DistanceMeters>NAN</DistanceMeters>
          </Trackpoint>
          <Trackpoint>
            <Time>2021-08-11T12:56:51.000Z</Time>
            <Position>
              <LatitudeDegrees>43.3092938549816608428955078125</LatitudeDegrees>
              <LongitudeDegrees>-1.83678536675870418548583984375</LongitudeDegrees>
            </Position>
            <AltitudeMeters>142.1999969482421875</AltitudeMeters>
            <DistanceMeters>NAN</DistanceMeters>
          </Trackpoint>
          <Trackpoint>
            <Time>2021-08-11T12:56:52.000Z</Time>
            <Position>
              <LatitudeDegrees>43.309292681515216827392578125</LatitudeDegrees>
              <LongitudeDegrees>-1.836830042302608489990234375</LongitudeDegrees>
            </Position>
            <AltitudeMeters>141.399993896484375</AltitudeMeters>
            <DistanceMeters>NAN</DistanceMeters>
          </Trackpoint>
          <Trackpoint>
            <Time>2021-08-11T12:56:53.000Z</Time>
            <Position>
              <LatitudeDegrees>43.30929578281939029693603515625</LatitudeDegrees>
              <LongitudeDegrees>-1.83686717413365840911865234375</LongitudeDegrees>
            </Position>
            <AltitudeMeters>140.1999969482421875</AltitudeMeters>
            <DistanceMeters>NAN</DistanceMeters>
          </Trackpoint>
          <Trackpoint>
            <Time>2021-08-11T12:56:55.000Z</Time>
            <Position>
              <LatitudeDegrees>43.3092730678617954254150390625</LatitudeDegrees>
              <LongitudeDegrees>-1.8369834311306476593017578125</LongitudeDegrees>
            </Position>
            <AltitudeMeters>139.399993896484375</AltitudeMeters>
            <DistanceMeters>NAN</DistanceMeters>
          </Trackpoint>
          <Trackpoint>
            <Time>2021-08-11T12:56:56.000Z</Time>
            <Position>
              <LatitudeDegrees>43.3092489279806613922119140625</LatitudeDegrees>
              <LongitudeDegrees>-1.83705459348857402801513671875</LongitudeDegrees>
            </Position>
            <AltitudeMeters>138.8000030517578125</AltitudeMeters>
            <DistanceMeters>NAN</DistanceMeters>
          </Trackpoint>
          <Trackpoint>
            <Time>2021-08-11T12:56:59.000Z</Time>
            <Position>
              <LatitudeDegrees>43.30923627130687236785888671875</LatitudeDegrees>
              <LongitudeDegrees>-1.83727051131427288055419921875</LongitudeDegrees>
            </Position>
            <AltitudeMeters>137</AltitudeMeters>
            <DistanceMeters>NAN</DistanceMeters>
          </Trackpoint>
          <Trackpoint>
            <Time>2021-08-11T12:57:00.000Z</Time>
            <Position>
              <LatitudeDegrees>43.309235014021396636962890625</LatitudeDegrees>
              <LongitudeDegrees>-1.8373475410044193267822265625</LongitudeDegrees>
            </Position>
            <AltitudeMeters>136.600006103515625</AltitudeMeters>
            <DistanceMeters>NAN</DistanceMeters>
          </Trackpoint>
          <Trackpoint>
            <Time>2021-08-11T12:57:01.000Z</Time>
            <Position>
              <LatitudeDegrees>43.30923174507915973663330078125</LatitudeDegrees>
              <LongitudeDegrees>-1.83741803281009197235107421875</LongitudeDegrees>
            </Position>
            <AltitudeMeters>135.8000030517578125</AltitudeMeters>
            <DistanceMeters>NAN</DistanceMeters>
          </Trackpoint>
          <Trackpoint>
            <Time>2021-08-11T12:57:02.000Z</Time>
            <Position>
              <LatitudeDegrees>43.30923493020236492156982421875</LatitudeDegrees>
              <LongitudeDegrees>-1.83749799616634845733642578125</LongitudeDegrees>
            </Position>
            <AltitudeMeters>135</AltitudeMeters>
            <DistanceMeters>NAN</DistanceMeters>
          </Trackpoint>
          <Trackpoint>
            <Time>2021-08-11T12:57:03.000Z</Time>
            <Position>
              <LatitudeDegrees>43.30924767069518566131591796875</LatitudeDegrees>
              <LongitudeDegrees>-1.83754560537636280059814453125</LongitudeDegrees>
            </Position>
            <AltitudeMeters>134.8000030517578125</AltitudeMeters>
            <DistanceMeters>NAN</DistanceMeters>
          </Trackpoint>
          <Trackpoint>
            <Time>2021-08-11T12:57:04.000Z</Time>
            <Position>
              <LatitudeDegrees>43.3092670328915119171142578125</LatitudeDegrees>
              <LongitudeDegrees>-1.8376000039279460906982421875</LongitudeDegrees>
            </Position>
            <AltitudeMeters>134.399993896484375</AltitudeMeters>
            <DistanceMeters>NAN</DistanceMeters>
          </Trackpoint>
          <Trackpoint>
            <Time>2021-08-11T12:57:05.000Z</Time>
            <Position>
              <LatitudeDegrees>43.30929704010486602783203125</LatitudeDegrees>
              <LongitudeDegrees>-1.83766580186784267425537109375</LongitudeDegrees>
            </Position>
            <AltitudeMeters>134.1999969482421875</AltitudeMeters>
            <DistanceMeters>NAN</DistanceMeters>
          </Trackpoint>
          <Trackpoint>
            <Time>2021-08-11T12:57:06.000Z</Time>
            <Position>
              <LatitudeDegrees>43.30933056771755218505859375</LatitudeDegrees>
              <LongitudeDegrees>-1.83771391399204730987548828125</LongitudeDegrees>
            </Position>
            <AltitudeMeters>133.600006103515625</AltitudeMeters>
            <DistanceMeters>NAN</DistanceMeters>
          </Trackpoint>
          <Trackpoint>
            <Time>2021-08-11T12:57:07.000Z</Time>
            <Position>
              <LatitudeDegrees>43.30936568789184093475341796875</LatitudeDegrees>
              <LongitudeDegrees>-1.8377495370805263519287109375</LongitudeDegrees>
            </Position>
            <AltitudeMeters>133.399993896484375</AltitudeMeters>
            <DistanceMeters>NAN</DistanceMeters>
          </Trackpoint>
          <Trackpoint>
            <Time>2021-08-11T12:57:08.000Z</Time>
            <Position>
              <LatitudeDegrees>43.30940642394125461578369140625</LatitudeDegrees>
              <LongitudeDegrees>-1.83777057565748691558837890625</LongitudeDegrees>
            </Position>
            <AltitudeMeters>133.399993896484375</AltitudeMeters>
            <DistanceMeters>NAN</DistanceMeters>
          </Trackpoint>
          <Trackpoint>
            <Time>2021-08-11T12:57:09.000Z</Time>
            <Position>
              <LatitudeDegrees>43.30944213084876537322998046875</LatitudeDegrees>
              <LongitudeDegrees>-1.8377931229770183563232421875</LongitudeDegrees>
            </Position>
            <AltitudeMeters>133.1999969482421875</AltitudeMeters>
            <DistanceMeters>NAN</DistanceMeters>
          </Trackpoint>
          <Trackpoint>
            <Time>2021-08-11T12:57:10.000Z</Time>
            <Position>
              <LatitudeDegrees>43.30948051996529102325439453125</LatitudeDegrees>
              <LongitudeDegrees>-1.83782279491424560546875</LongitudeDegrees>
            </Position>
            <AltitudeMeters>133</AltitudeMeters>
            <DistanceMeters>NAN</DistanceMeters>
          </Trackpoint>
          <Trackpoint>
            <Time>2021-08-11T12:57:11.000Z</Time>
            <Position>
              <LatitudeDegrees>43.30951756797730922698974609375</LatitudeDegrees>
              <LongitudeDegrees>-1.837864704430103302001953125</LongitudeDegrees>
            </Position>
            <AltitudeMeters>133</AltitudeMeters>
            <DistanceMeters>NAN</DistanceMeters>
          </Trackpoint>
          <Trackpoint>
            <Time>2021-08-11T12:57:12.000Z</Time>
            <Position>
              <LatitudeDegrees>43.3095409534871578216552734375</LatitudeDegrees>
              <LongitudeDegrees>-1.83791725896298885345458984375</LongitudeDegrees>
            </Position>
            <AltitudeMeters>133</AltitudeMeters>
            <DistanceMeters>NAN</DistanceMeters>
          </Trackpoint>
          <Trackpoint>
            <Time>2021-08-11T12:57:13.000Z</Time>
            <Position>
              <LatitudeDegrees>43.309558890759944915771484375</LatitudeDegrees>
              <LongitudeDegrees>-1.837959922850131988525390625</LongitudeDegrees>
            </Position>
            <AltitudeMeters>132.8000030517578125</AltitudeMeters>
            <DistanceMeters>NAN</DistanceMeters>
          </Trackpoint>
          <Trackpoint>
            <Time>2021-08-11T12:57:14.000Z</Time>
            <Position>
              <LatitudeDegrees>43.30957372672855854034423828125</LatitudeDegrees>
              <LongitudeDegrees>-1.83799604885280132293701171875</LongitudeDegrees>
            </Position>
            <AltitudeMeters>132.8000030517578125</AltitudeMeters>
            <DistanceMeters>NAN</DistanceMeters>
          </Trackpoint>
          <Trackpoint>
            <Time>2021-08-11T12:57:15.000Z</Time>
            <Position>
              <LatitudeDegrees>43.3095818571746349334716796875</LatitudeDegrees>
              <LongitudeDegrees>-1.8380375392735004425048828125</LongitudeDegrees>
            </Position>
            <AltitudeMeters>132.600006103515625</AltitudeMeters>
            <DistanceMeters>NAN</DistanceMeters>
          </Trackpoint>
          <Trackpoint>
            <Time>2021-08-11T12:57:16.000Z</Time>
            <Position>
              <LatitudeDegrees>43.30957624129951000213623046875</LatitudeDegrees>
              <LongitudeDegrees>-1.83810736052691936492919921875</LongitudeDegrees>
            </Position>
            <AltitudeMeters>132.600006103515625</AltitudeMeters>
            <DistanceMeters>NAN</DistanceMeters>
          </Trackpoint>
          <Trackpoint>
            <Time>2021-08-11T12:57:17.000Z</Time>
            <Position>
              <LatitudeDegrees>43.309574313461780548095703125</LatitudeDegrees>
              <LongitudeDegrees>-1.83818078599870204925537109375</LongitudeDegrees>
            </Position>
            <AltitudeMeters>132.8000030517578125</AltitudeMeters>
            <DistanceMeters>NAN</DistanceMeters>
          </Trackpoint>
          <Trackpoint>
            <Time>2021-08-11T12:57:18.000Z</Time>
            <Position>
              <LatitudeDegrees>43.309567607939243316650390625</LatitudeDegrees>
              <LongitudeDegrees>-1.83822906576097011566162109375</LongitudeDegrees>
            </Position>
            <AltitudeMeters>132.8000030517578125</AltitudeMeters>
            <DistanceMeters>NAN</DistanceMeters>
          </Trackpoint>
          <Trackpoint>
            <Time>2021-08-11T12:57:19.000Z</Time>
            <Position>
              <LatitudeDegrees>43.3095583878457546234130859375</LatitudeDegrees>
              <LongitudeDegrees>-1.8382739089429378509521484375</LongitudeDegrees>
            </Position>
            <AltitudeMeters>132.8000030517578125</AltitudeMeters>
            <DistanceMeters>NAN</DistanceMeters>
          </Trackpoint>
          <Trackpoint>
            <Time>2021-08-11T12:57:20.000Z</Time>
            <Position>
              <LatitudeDegrees>43.3095496706664562225341796875</LatitudeDegrees>
              <LongitudeDegrees>-1.83831254951655864715576171875</LongitudeDegrees>
            </Position>
            <AltitudeMeters>132.8000030517578125</AltitudeMeters>
            <DistanceMeters>NAN</DistanceMeters>
          </Trackpoint>
          <Trackpoint>
            <Time>2021-08-11T12:57:21.000Z</Time>
            <Position>
              <LatitudeDegrees>43.30954187549650669097900390625</LatitudeDegrees>
              <LongitudeDegrees>-1.83834322728216648101806640625</LongitudeDegrees>
            </Position>
            <AltitudeMeters>132.8000030517578125</AltitudeMeters>
            <DistanceMeters>NAN</DistanceMeters>
          </Trackpoint>
          <Trackpoint>
            <Time>2021-08-11T12:57:22.000Z</Time>
            <Position>
              <LatitudeDegrees>43.309531398117542266845703125</LatitudeDegrees>
              <LongitudeDegrees>-1.838368289172649383544921875</LongitudeDegrees>
            </Position>
            <AltitudeMeters>133</AltitudeMeters>
            <DistanceMeters>NAN</DistanceMeters>
          </Trackpoint>
          <Trackpoint>
            <Time>2021-08-11T12:57:23.000Z</Time>
            <Position>
              <LatitudeDegrees>43.30951966345310211181640625</LatitudeDegrees>
              <LongitudeDegrees>-1.8383949436247348785400390625</LongitudeDegrees>
            </Position>
            <AltitudeMeters>133</AltitudeMeters>
            <DistanceMeters>NAN</DistanceMeters>
          </Trackpoint>
          <Trackpoint>
            <Time>2021-08-11T12:57:24.000Z</Time>
            <Position>
              <LatitudeDegrees>43.30950935371220111846923828125</LatitudeDegrees>
              <LongitudeDegrees>-1.83842620812356472015380859375</LongitudeDegrees>
            </Position>
            <AltitudeMeters>133.1999969482421875</AltitudeMeters>
            <DistanceMeters>NAN</DistanceMeters>
          </Trackpoint>
          <Trackpoint>
            <Time>2021-08-11T12:57:26.000Z</Time>
            <Position>
              <LatitudeDegrees>43.3095010556280612945556640625</LatitudeDegrees>
              <LongitudeDegrees>-1.83849041350185871124267578125</LongitudeDegrees>
            </Position>
            <AltitudeMeters>133.399993896484375</AltitudeMeters>
            <DistanceMeters>NAN</DistanceMeters>
          </Trackpoint>
          <Trackpoint>
            <Time>2021-08-11T12:57:27.000Z</Time>
            <Position>
              <LatitudeDegrees>43.30949711613357067108154296875</LatitudeDegrees>
              <LongitudeDegrees>-1.83852612040936946868896484375</LongitudeDegrees>
            </Position>
            <AltitudeMeters>133.600006103515625</AltitudeMeters>
            <DistanceMeters>NAN</DistanceMeters>
          </Trackpoint>
          <Trackpoint>
            <Time>2021-08-11T12:57:28.000Z</Time>
            <Position>
              <LatitudeDegrees>43.30949091352522373199462890625</LatitudeDegrees>
              <LongitudeDegrees>-1.83856383897364139556884765625</LongitudeDegrees>
            </Position>
            <AltitudeMeters>133.600006103515625</AltitudeMeters>
            <DistanceMeters>NAN</DistanceMeters>
          </Trackpoint>
          <Trackpoint>
            <Time>2021-08-11T12:57:29.000Z</Time>
            <Position>
              <LatitudeDegrees>43.30948336981236934661865234375</LatitudeDegrees>
              <LongitudeDegrees>-1.8386075086891651153564453125</LongitudeDegrees>
            </Position>
            <AltitudeMeters>133.8000030517578125</AltitudeMeters>
            <DistanceMeters>NAN</DistanceMeters>
          </Trackpoint>
          <Trackpoint>
            <Time>2021-08-11T12:57:30.000Z</Time>
            <Position>
              <LatitudeDegrees>43.3094842918217182159423828125</LatitudeDegrees>
              <LongitudeDegrees>-1.83864464052021503448486328125</LongitudeDegrees>
            </Position>
            <AltitudeMeters>134.1999969482421875</AltitudeMeters>
            <DistanceMeters>NAN</DistanceMeters>
          </Trackpoint>
          <Trackpoint>
            <Time>2021-08-11T12:57:31.000Z</Time>
            <Position>
              <LatitudeDegrees>43.30948906950652599334716796875</LatitudeDegrees>
              <LongitudeDegrees>-1.83868177235126495361328125</LongitudeDegrees>
            </Position>
            <AltitudeMeters>134.399993896484375</AltitudeMeters>
            <DistanceMeters>NAN</DistanceMeters>
          </Trackpoint>
          <Trackpoint>
            <Time>2021-08-11T12:57:34.000Z</Time>
            <Position>
              <LatitudeDegrees>43.30947951413691043853759765625</LatitudeDegrees>
              <LongitudeDegrees>-1.8387724645435810089111328125</LongitudeDegrees>
            </Position>
            <AltitudeMeters>135</AltitudeMeters>
            <DistanceMeters>NAN</DistanceMeters>
          </Trackpoint>
          <Trackpoint>
            <Time>2021-08-11T12:57:35.000Z</Time>
            <Position>
              <LatitudeDegrees>43.30947079695761203765869140625</LatitudeDegrees>
              <LongitudeDegrees>-1.8388044834136962890625</LongitudeDegrees>
            </Position>
            <AltitudeMeters>135</AltitudeMeters>
            <DistanceMeters>NAN</DistanceMeters>
          </Trackpoint>
          <Trackpoint>
            <Time>2021-08-11T12:57:36.000Z</Time>
            <Position>
              <LatitudeDegrees>43.309471718966960906982421875</LatitudeDegrees>
              <LongitudeDegrees>-1.83882183395326137542724609375</LongitudeDegrees>
            </Position>
            <AltitudeMeters>135.1999969482421875</AltitudeMeters>
            <DistanceMeters>NAN</DistanceMeters>
          </Trackpoint>
          <Trackpoint>
            <Time>2021-08-11T12:57:37.000Z</Time>
            <Position>
              <LatitudeDegrees>43.30947029404342174530029296875</LatitudeDegrees>
              <LongitudeDegrees>-1.8388385139405727386474609375</LongitudeDegrees>
            </Position>
            <AltitudeMeters>135.399993896484375</AltitudeMeters>
            <DistanceMeters>NAN</DistanceMeters>
          </Trackpoint>
          <Trackpoint>
            <Time>2021-08-11T12:57:38.000Z</Time>
            <Position>
              <LatitudeDegrees>43.30946861766278743743896484375</LatitudeDegrees>
              <LongitudeDegrees>-1.83887145482003688812255859375</LongitudeDegrees>
            </Position>
            <AltitudeMeters>135.600006103515625</AltitudeMeters>
            <DistanceMeters>NAN</DistanceMeters>
          </Trackpoint>
          <Trackpoint>
            <Time>2021-08-11T12:57:39.000Z</Time>
            <Position>
              <LatitudeDegrees>43.309465683996677398681640625</LatitudeDegrees>
              <LongitudeDegrees>-1.83890976011753082275390625</LongitudeDegrees>
            </Position>
            <AltitudeMeters>135.8000030517578125</AltitudeMeters>
            <DistanceMeters>NAN</DistanceMeters>
          </Trackpoint>
          <Trackpoint>
            <Time>2021-08-11T12:57:40.000Z</Time>
            <Position>
              <LatitudeDegrees>43.30946191214025020599365234375</LatitudeDegrees>
              <LongitudeDegrees>-1.83894689194858074188232421875</LongitudeDegrees>
            </Position>
            <AltitudeMeters>135.8000030517578125</AltitudeMeters>
            <DistanceMeters>NAN</DistanceMeters>
          </Trackpoint>
          <Trackpoint>
            <Time>2021-08-11T12:57:41.000Z</Time>
            <Position>
              <LatitudeDegrees>43.309462331235408782958984375</LatitudeDegrees>
              <LongitudeDegrees>-1.83897974900901317596435546875</LongitudeDegrees>
            </Position>
            <AltitudeMeters>136</AltitudeMeters>
            <DistanceMeters>NAN</DistanceMeters>
          </Trackpoint>
          <Trackpoint>
            <Time>2021-08-11T12:57:43.000Z</Time>
            <Position>
              <LatitudeDegrees>43.30945889465510845184326171875</LatitudeDegrees>
              <LongitudeDegrees>-1.839060969650745391845703125</LongitudeDegrees>
            </Position>
            <AltitudeMeters>136.399993896484375</AltitudeMeters>
            <DistanceMeters>NAN</DistanceMeters>
          </Trackpoint>
          <Trackpoint>
            <Time>2021-08-11T12:57:46.000Z</Time>
            <Position>
              <LatitudeDegrees>43.30945688299834728240966796875</LatitudeDegrees>
              <LongitudeDegrees>-1.83916859328746795654296875</LongitudeDegrees>
            </Position>
            <AltitudeMeters>136.8000030517578125</AltitudeMeters>
            <DistanceMeters>NAN</DistanceMeters>
          </Trackpoint>
          <Trackpoint>
            <Time>2021-08-11T12:57:47.000Z</Time>
            <Position>
              <LatitudeDegrees>43.309463001787662506103515625</LatitudeDegrees>
              <LongitudeDegrees>-1.83919231407344341278076171875</LongitudeDegrees>
            </Position>
            <AltitudeMeters>136.8000030517578125</AltitudeMeters>
            <DistanceMeters>NAN</DistanceMeters>
          </Trackpoint>
          <Trackpoint>
            <Time>2021-08-11T12:57:48.000Z</Time>
            <Position>
              <LatitudeDegrees>43.30946275033056735992431640625</LatitudeDegrees>
              <LongitudeDegrees>-1.83922148309648036956787109375</LongitudeDegrees>
            </Position>
            <AltitudeMeters>137</AltitudeMeters>
            <DistanceMeters>NAN</DistanceMeters>
          </Trackpoint>
          <Trackpoint>
            <Time>2021-08-11T12:57:49.000Z</Time>
            <Position>
              <LatitudeDegrees>43.30945587716996669769287109375</LatitudeDegrees>
              <LongitudeDegrees>-1.8392525799572467803955078125</LongitudeDegrees>
            </Position>
            <AltitudeMeters>137</AltitudeMeters>
            <DistanceMeters>NAN</DistanceMeters>
          </Trackpoint>
          <Trackpoint>
            <Time>2021-08-11T12:57:50.000Z</Time>
            <Position>
              <LatitudeDegrees>43.3094671927392482757568359375</LatitudeDegrees>
              <LongitudeDegrees>-1.83927328325808048248291015625</LongitudeDegrees>
            </Position>
            <AltitudeMeters>137.399993896484375</AltitudeMeters>
            <DistanceMeters>NAN</DistanceMeters>
          </Trackpoint>
          <Trackpoint>
            <Time>2021-08-11T12:57:51.000Z</Time>
            <Position>
              <LatitudeDegrees>43.3094624988734722137451171875</LatitudeDegrees>
              <LongitudeDegrees>-1.8393045477569103240966796875</LongitudeDegrees>
            </Position>
            <AltitudeMeters>137.600006103515625</AltitudeMeters>
            <DistanceMeters>NAN</DistanceMeters>
          </Trackpoint>
          <Trackpoint>
            <Time>2021-08-11T12:57:52.000Z</Time>
            <Position>
              <LatitudeDegrees>43.30945705063641071319580078125</LatitudeDegrees>
              <LongitudeDegrees>-1.83933815918862819671630859375</LongitudeDegrees>
            </Position>
            <AltitudeMeters>137.600006103515625</AltitudeMeters>
            <DistanceMeters>NAN</DistanceMeters>
          </Trackpoint>
          <Trackpoint>
            <Time>2021-08-11T12:57:53.000Z</Time>
            <Position>
              <LatitudeDegrees>43.309450261294841766357421875</LatitudeDegrees>
              <LongitudeDegrees>-1.83937269262969493865966796875</LongitudeDegrees>
            </Position>
            <AltitudeMeters>137.600006103515625</AltitudeMeters>
            <DistanceMeters>NAN</DistanceMeters>
          </Trackpoint>
          <Trackpoint>
            <Time>2021-08-11T12:57:54.000Z</Time>
            <Position>
              <LatitudeDegrees>43.3094450645148754119873046875</LatitudeDegrees>
              <LongitudeDegrees>-1.83940655551850795745849609375</LongitudeDegrees>
            </Position>
            <AltitudeMeters>137.600006103515625</AltitudeMeters>
            <DistanceMeters>NAN</DistanceMeters>
          </Trackpoint>
          <Trackpoint>
            <Time>2021-08-11T12:57:55.000Z</Time>
            <Position>
              <LatitudeDegrees>43.30943919718265533447265625</LatitudeDegrees>
              <LongitudeDegrees>-1.83944444172084331512451171875</LongitudeDegrees>
            </Position>
            <AltitudeMeters>137.8000030517578125</AltitudeMeters>
            <DistanceMeters>NAN</DistanceMeters>
          </Trackpoint>
          <Trackpoint>
            <Time>2021-08-11T12:57:56.000Z</Time>
            <Position>
              <LatitudeDegrees>43.30943710170686244964599609375</LatitudeDegrees>
              <LongitudeDegrees>-1.83948081918060779571533203125</LongitudeDegrees>
            </Position>
            <AltitudeMeters>137.8000030517578125</AltitudeMeters>
            <DistanceMeters>NAN</DistanceMeters>
          </Trackpoint>
          <Trackpoint>
            <Time>2021-08-11T12:57:57.000Z</Time>
            <Position>
              <LatitudeDegrees>43.30943425185978412628173828125</LatitudeDegrees>
              <LongitudeDegrees>-1.839516945183277130126953125</LongitudeDegrees>
            </Position>
            <AltitudeMeters>137.8000030517578125</AltitudeMeters>
            <DistanceMeters>NAN</DistanceMeters>
          </Trackpoint>
          <Trackpoint>
            <Time>2021-08-11T12:57:58.000Z</Time>
            <Position>
              <LatitudeDegrees>43.30943156965076923370361328125</LatitudeDegrees>
              <LongitudeDegrees>-1.8395526520907878875732421875</LongitudeDegrees>
            </Position>
            <AltitudeMeters>138</AltitudeMeters>
            <DistanceMeters>NAN</DistanceMeters>
          </Trackpoint>
          <Trackpoint>
            <Time>2021-08-11T12:57:59.000Z</Time>
            <Position>
              <LatitudeDegrees>43.3094266243278980255126953125</LatitudeDegrees>
              <LongitudeDegrees>-1.8395885266363620758056640625</LongitudeDegrees>
            </Position>
            <AltitudeMeters>138</AltitudeMeters>
            <DistanceMeters>NAN</DistanceMeters>
          </Trackpoint>
          <Trackpoint>
            <Time>2021-08-11T12:58:00.000Z</Time>
            <Position>
              <LatitudeDegrees>43.30942302010953426361083984375</LatitudeDegrees>
              <LongitudeDegrees>-1.8396227248013019561767578125</LongitudeDegrees>
            </Position>
            <AltitudeMeters>138.1999969482421875</AltitudeMeters>
            <DistanceMeters>NAN</DistanceMeters>
          </Trackpoint>
          <Trackpoint>
            <Time>2021-08-11T12:58:01.000Z</Time>
            <Position>
              <LatitudeDegrees>43.30942167900502681732177734375</LatitudeDegrees>
              <LongitudeDegrees>-1.83965801261365413665771484375</LongitudeDegrees>
            </Position>
            <AltitudeMeters>138.600006103515625</AltitudeMeters>
            <DistanceMeters>NAN</DistanceMeters>
          </Trackpoint>
          <Trackpoint>
            <Time>2021-08-11T12:58:02.000Z</Time>
            <Position>
              <LatitudeDegrees>43.30941975116729736328125</LatitudeDegrees>
              <LongitudeDegrees>-1.8396907858550548553466796875</LongitudeDegrees>
            </Position>
            <AltitudeMeters>139</AltitudeMeters>
            <DistanceMeters>NAN</DistanceMeters>
          </Trackpoint>
          <Trackpoint>
            <Time>2021-08-11T12:58:03.000Z</Time>
            <Position>
              <LatitudeDegrees>43.30941866151988506317138671875</LatitudeDegrees>
              <LongitudeDegrees>-1.83972255326807498931884765625</LongitudeDegrees>
            </Position>
            <AltitudeMeters>139</AltitudeMeters>
            <DistanceMeters>NAN</DistanceMeters>
          </Trackpoint>
          <Trackpoint>
            <Time>2021-08-11T12:58:04.000Z</Time>
            <Position>
              <LatitudeDegrees>43.3094189129769802093505859375</LatitudeDegrees>
              <LongitudeDegrees>-1.83975708670914173126220703125</LongitudeDegrees>
            </Position>
            <AltitudeMeters>139.1999969482421875</AltitudeMeters>
            <DistanceMeters>NAN</DistanceMeters>
          </Trackpoint>
          <Trackpoint>
            <Time>2021-08-11T12:58:05.000Z</Time>
            <Position>
              <LatitudeDegrees>43.30942067317664623260498046875</LatitudeDegrees>
              <LongitudeDegrees>-1.83978742919862270355224609375</LongitudeDegrees>
            </Position>
            <AltitudeMeters>139.1999969482421875</AltitudeMeters>
            <DistanceMeters>NAN</DistanceMeters>
          </Trackpoint>
          <Trackpoint>
            <Time>2021-08-11T12:58:06.000Z</Time>
            <Position>
              <LatitudeDegrees>43.3094219304621219635009765625</LatitudeDegrees>
              <LongitudeDegrees>-1.839818023145198822021484375</LongitudeDegrees>
            </Position>
            <AltitudeMeters>139.399993896484375</AltitudeMeters>
            <DistanceMeters>NAN</DistanceMeters>
          </Trackpoint>
          <Trackpoint>
            <Time>2021-08-11T12:58:07.000Z</Time>
            <Position>
              <LatitudeDegrees>43.3094236068427562713623046875</LatitudeDegrees>
              <LongitudeDegrees>-1.839847527444362640380859375</LongitudeDegrees>
            </Position>
            <AltitudeMeters>139.399993896484375</AltitudeMeters>
            <DistanceMeters>NAN</DistanceMeters>
          </Trackpoint>
          <Trackpoint>
            <Time>2021-08-11T12:58:08.000Z</Time>
            <Position>
              <LatitudeDegrees>43.30942167900502681732177734375</LatitudeDegrees>
              <LongitudeDegrees>-1.83988013304769992828369140625</LongitudeDegrees>
            </Position>
            <AltitudeMeters>139.399993896484375</AltitudeMeters>
            <DistanceMeters>NAN</DistanceMeters>
          </Trackpoint>
          <Trackpoint>
            <Time>2021-08-11T12:58:09.000Z</Time>
            <Position>
              <LatitudeDegrees>43.30941916443407535552978515625</LatitudeDegrees>
              <LongitudeDegrees>-1.83991282247006893157958984375</LongitudeDegrees>
            </Position>
            <AltitudeMeters>139.399993896484375</AltitudeMeters>
            <DistanceMeters>NAN</DistanceMeters>
          </Trackpoint>
          <Trackpoint>
            <Time>2021-08-11T12:58:10.000Z</Time>
            <Position>
              <LatitudeDegrees>43.30941933207213878631591796875</LatitudeDegrees>
              <LongitudeDegrees>-1.83994400314986705780029296875</LongitudeDegrees>
            </Position>
            <AltitudeMeters>139.399993896484375</AltitudeMeters>
            <DistanceMeters>NAN</DistanceMeters>
          </Trackpoint>
          <Trackpoint>
            <Time>2021-08-11T12:58:11.000Z</Time>
            <Position>
              <LatitudeDegrees>43.3094212599098682403564453125</LatitudeDegrees>
              <LongitudeDegrees>-1.83997325599193572998046875</LongitudeDegrees>
            </Position>
            <AltitudeMeters>139.600006103515625</AltitudeMeters>
            <DistanceMeters>NAN</DistanceMeters>
          </Trackpoint>
          <Trackpoint>
            <Time>2021-08-11T12:58:12.000Z</Time>
            <Position>
              <LatitudeDegrees>43.30942251719534397125244140625</LatitudeDegrees>
              <LongitudeDegrees>-1.8400039337575435638427734375</LongitudeDegrees>
            </Position>
            <AltitudeMeters>139.600006103515625</AltitudeMeters>
            <DistanceMeters>NAN</DistanceMeters>
          </Trackpoint>
          <Trackpoint>
            <Time>2021-08-11T12:58:13.000Z</Time>
            <Position>
              <LatitudeDegrees>43.30942302010953426361083984375</LatitudeDegrees>
              <LongitudeDegrees>-1.84003301896154880523681640625</LongitudeDegrees>
            </Position>
            <AltitudeMeters>139.600006103515625</AltitudeMeters>
            <DistanceMeters>NAN</DistanceMeters>
          </Trackpoint>
          <Trackpoint>
            <Time>2021-08-11T12:58:14.000Z</Time>
            <Position>
              <LatitudeDegrees>43.30942385829985141754150390625</LatitudeDegrees>
              <LongitudeDegrees>-1.8400629423558712005615234375</LongitudeDegrees>
            </Position>
            <AltitudeMeters>140</AltitudeMeters>
            <DistanceMeters>NAN</DistanceMeters>
          </Trackpoint>
          <Trackpoint>
            <Time>2021-08-11T12:58:15.000Z</Time>
            <Position>
              <LatitudeDegrees>43.30942385829985141754150390625</LatitudeDegrees>
              <LongitudeDegrees>-1.8400917761027812957763671875</LongitudeDegrees>
            </Position>
            <AltitudeMeters>140</AltitudeMeters>
            <DistanceMeters>NAN</DistanceMeters>
          </Trackpoint>
          <Trackpoint>
            <Time>2021-08-11T12:58:16.000Z</Time>
            <Position>
              <LatitudeDegrees>43.30942536704242229461669921875</LatitudeDegrees>
              <LongitudeDegrees>-1.8401226215064525604248046875</LongitudeDegrees>
            </Position>
            <AltitudeMeters>140.399993896484375</AltitudeMeters>
            <DistanceMeters>NAN</DistanceMeters>
          </Trackpoint>
          <Trackpoint>
            <Time>2021-08-11T12:58:17.000Z</Time>
            <Position>
              <LatitudeDegrees>43.3094251155853271484375</LatitudeDegrees>
              <LongitudeDegrees>-1.840153634548187255859375</LongitudeDegrees>
            </Position>
            <AltitudeMeters>140.399993896484375</AltitudeMeters>
            <DistanceMeters>NAN</DistanceMeters>
          </Trackpoint>
          <Trackpoint>
            <Time>2021-08-11T12:58:18.000Z</Time>
            <Position>
              <LatitudeDegrees>43.3094239421188831329345703125</LatitudeDegrees>
              <LongitudeDegrees>-1.84018380939960479736328125</LongitudeDegrees>
            </Position>
            <AltitudeMeters>140.600006103515625</AltitudeMeters>
            <DistanceMeters>NAN</DistanceMeters>
          </Trackpoint>
          <Trackpoint>
            <Time>2021-08-11T12:58:19.000Z</Time>
            <Position>
              <LatitudeDegrees>43.3094202540814876556396484375</LatitudeDegrees>
              <LongitudeDegrees>-1.8402134813368320465087890625</LongitudeDegrees>
            </Position>
            <AltitudeMeters>140.8000030517578125</AltitudeMeters>
            <DistanceMeters>NAN</DistanceMeters>
          </Trackpoint>
          <Trackpoint>
            <Time>2021-08-11T12:58:20.000Z</Time>
            <Position>
              <LatitudeDegrees>43.3094189129769802093505859375</LatitudeDegrees>
              <LongitudeDegrees>-1.84024415910243988037109375</LongitudeDegrees>
            </Position>
            <AltitudeMeters>141</AltitudeMeters>
            <DistanceMeters>NAN</DistanceMeters>
          </Trackpoint>
          <Trackpoint>
            <Time>2021-08-11T12:58:21.000Z</Time>
            <Position>
              <LatitudeDegrees>43.30941849388182163238525390625</LatitudeDegrees>
              <LongitudeDegrees>-1.84027575887739658355712890625</LongitudeDegrees>
            </Position>
            <AltitudeMeters>141</AltitudeMeters>
            <DistanceMeters>NAN</DistanceMeters>
          </Trackpoint>
          <Trackpoint>
            <Time>2021-08-11T12:58:22.000Z</Time>
            <Position>
              <LatitudeDegrees>43.30941815860569477081298828125</LatitudeDegrees>
              <LongitudeDegrees>-1.840306855738162994384765625</LongitudeDegrees>
            </Position>
            <AltitudeMeters>141.1999969482421875</AltitudeMeters>
            <DistanceMeters>NAN</DistanceMeters>
          </Trackpoint>
          <Trackpoint>
            <Time>2021-08-11T12:58:23.000Z</Time>
            <Position>
              <LatitudeDegrees>43.309417068958282470703125</LatitudeDegrees>
              <LongitudeDegrees>-1.8403361923992633819580078125</LongitudeDegrees>
            </Position>
            <AltitudeMeters>141.1999969482421875</AltitudeMeters>
            <DistanceMeters>NAN</DistanceMeters>
          </Trackpoint>
          <Trackpoint>
            <Time>2021-08-11T12:58:24.000Z</Time>
            <Position>
              <LatitudeDegrees>43.30941505730152130126953125</LatitudeDegrees>
              <LongitudeDegrees>-1.8403673730790615081787109375</LongitudeDegrees>
            </Position>
            <AltitudeMeters>141.1999969482421875</AltitudeMeters>
            <DistanceMeters>NAN</DistanceMeters>
          </Trackpoint>
          <Trackpoint>
            <Time>2021-08-11T12:58:25.000Z</Time>
            <Position>
              <LatitudeDegrees>43.30941463820636272430419921875</LatitudeDegrees>
              <LongitudeDegrees>-1.8403938598930835723876953125</LongitudeDegrees>
            </Position>
            <AltitudeMeters>141.399993896484375</AltitudeMeters>
            <DistanceMeters>NAN</DistanceMeters>
          </Trackpoint>
          <Trackpoint>
            <Time>2021-08-11T12:58:26.000Z</Time>
            <Position>
              <LatitudeDegrees>43.309414051473140716552734375</LatitudeDegrees>
              <LongitudeDegrees>-1.840426884591579437255859375</LongitudeDegrees>
            </Position>
            <AltitudeMeters>141.600006103515625</AltitudeMeters>
            <DistanceMeters>NAN</DistanceMeters>
          </Trackpoint>
          <Trackpoint>
            <Time>2021-08-11T12:58:27.000Z</Time>
            <Position>
              <LatitudeDegrees>43.30941396765410900115966796875</LatitudeDegrees>
              <LongitudeDegrees>-1.8404578976333141326904296875</LongitudeDegrees>
            </Position>
            <AltitudeMeters>141.600006103515625</AltitudeMeters>
            <DistanceMeters>NAN</DistanceMeters>
          </Trackpoint>
          <Trackpoint>
            <Time>2021-08-11T12:58:28.000Z</Time>
            <Position>
              <LatitudeDegrees>43.3094155602157115936279296875</LatitudeDegrees>
              <LongitudeDegrees>-1.840488910675048828125</LongitudeDegrees>
            </Position>
            <AltitudeMeters>141.8000030517578125</AltitudeMeters>
            <DistanceMeters>NAN</DistanceMeters>
          </Trackpoint>
          <Trackpoint>
            <Time>2021-08-11T12:58:29.000Z</Time>
            <Position>
              <LatitudeDegrees>43.30941639840602874755859375</LatitudeDegrees>
              <LongitudeDegrees>-1.8405209295451641082763671875</LongitudeDegrees>
            </Position>
            <AltitudeMeters>141.8000030517578125</AltitudeMeters>
            <DistanceMeters>NAN</DistanceMeters>
          </Trackpoint>
          <Trackpoint>
            <Time>2021-08-11T12:58:30.000Z</Time>
            <Position>
              <LatitudeDegrees>43.30941732041537761688232421875</LatitudeDegrees>
              <LongitudeDegrees>-1.8405534513294696807861328125</LongitudeDegrees>
            </Position>
            <AltitudeMeters>141.8000030517578125</AltitudeMeters>
            <DistanceMeters>NAN</DistanceMeters>
          </Trackpoint>
          <Trackpoint>
            <Time>2021-08-11T12:58:31.000Z</Time>
            <Position>
              <LatitudeDegrees>43.30941773951053619384765625</LatitudeDegrees>
              <LongitudeDegrees>-1.84058538638055324554443359375</LongitudeDegrees>
            </Position>
            <AltitudeMeters>141.8000030517578125</AltitudeMeters>
            <DistanceMeters>NAN</DistanceMeters>
          </Trackpoint>
          <Trackpoint>
            <Time>2021-08-11T12:58:32.000Z</Time>
            <Position>
              <LatitudeDegrees>43.30941765569150447845458984375</LatitudeDegrees>
              <LongitudeDegrees>-1.84061908163130283355712890625</LongitudeDegrees>
            </Position>
            <AltitudeMeters>142</AltitudeMeters>
            <DistanceMeters>NAN</DistanceMeters>
          </Trackpoint>
          <Trackpoint>
            <Time>2021-08-11T12:58:33.000Z</Time>
            <Position>
              <LatitudeDegrees>43.3094226010143756866455078125</LatitudeDegrees>
              <LongitudeDegrees>-1.84064975939691066741943359375</LongitudeDegrees>
            </Position>
            <AltitudeMeters>142</AltitudeMeters>
            <DistanceMeters>NAN</DistanceMeters>
          </Trackpoint>
          <Trackpoint>
            <Time>2021-08-11T12:58:34.000Z</Time>
            <Position>
              <LatitudeDegrees>43.30942846834659576416015625</LatitudeDegrees>
              <LongitudeDegrees>-1.84067926369607448577880859375</LongitudeDegrees>
            </Position>
            <AltitudeMeters>142</AltitudeMeters>
            <DistanceMeters>NAN</DistanceMeters>
          </Trackpoint>
          <Trackpoint>
            <Time>2021-08-11T12:58:35.000Z</Time>
            <Position>
              <LatitudeDegrees>43.3094333298504352569580078125</LatitudeDegrees>
              <LongitudeDegrees>-1.84070860035717487335205078125</LongitudeDegrees>
            </Position>
            <AltitudeMeters>142.1999969482421875</AltitudeMeters>
            <DistanceMeters>NAN</DistanceMeters>
          </Trackpoint>
          <Trackpoint>
            <Time>2021-08-11T12:58:36.000Z</Time>
            <Position>
              <LatitudeDegrees>43.3094413764774799346923828125</LatitudeDegrees>
              <LongitudeDegrees>-1.840733997523784637451171875</LongitudeDegrees>
            </Position>
            <AltitudeMeters>142.1999969482421875</AltitudeMeters>
            <DistanceMeters>NAN</DistanceMeters>
          </Trackpoint>
          <Trackpoint>
            <Time>2021-08-11T12:58:37.000Z</Time>
            <Position>
              <LatitudeDegrees>43.30944833345711231231689453125</LatitudeDegrees>
              <LongitudeDegrees>-1.840765178203582763671875</LongitudeDegrees>
            </Position>
            <AltitudeMeters>142.399993896484375</AltitudeMeters>
            <DistanceMeters>NAN</DistanceMeters>
          </Trackpoint>
          <Trackpoint>
            <Time>2021-08-11T12:58:38.000Z</Time>
            <Position>
              <LatitudeDegrees>43.30945503897964954376220703125</LatitudeDegrees>
              <LongitudeDegrees>-1.84079409576952457427978515625</LongitudeDegrees>
            </Position>
            <AltitudeMeters>142.399993896484375</AltitudeMeters>
            <DistanceMeters>NAN</DistanceMeters>
          </Trackpoint>
          <Trackpoint>
            <Time>2021-08-11T12:58:39.000Z</Time>
            <Position>
              <LatitudeDegrees>43.30945906229317188262939453125</LatitudeDegrees>
              <LongitudeDegrees>-1.8408255279064178466796875</LongitudeDegrees>
            </Position>
            <AltitudeMeters>142.399993896484375</AltitudeMeters>
            <DistanceMeters>NAN</DistanceMeters>
          </Trackpoint>
          <Trackpoint>
            <Time>2021-08-11T12:58:40.000Z</Time>
            <Position>
              <LatitudeDegrees>43.3094651810824871063232421875</LatitudeDegrees>
              <LongitudeDegrees>-1.840855367481708526611328125</LongitudeDegrees>
            </Position>
            <AltitudeMeters>142.600006103515625</AltitudeMeters>
            <DistanceMeters>NAN</DistanceMeters>
          </Trackpoint>
          <Trackpoint>
            <Time>2021-08-11T12:58:41.000Z</Time>
            <Position>
              <LatitudeDegrees>43.30947213806211948394775390625</LatitudeDegrees>
              <LongitudeDegrees>-1.840887553989887237548828125</LongitudeDegrees>
            </Position>
            <AltitudeMeters>142.600006103515625</AltitudeMeters>
            <DistanceMeters>NAN</DistanceMeters>
          </Trackpoint>
          <Trackpoint>
            <Time>2021-08-11T12:58:45.000Z</Time>
            <Position>
              <LatitudeDegrees>43.3094980381429195404052734375</LatitudeDegrees>
              <LongitudeDegrees>-1.84101127088069915771484375</LongitudeDegrees>
            </Position>
            <AltitudeMeters>142.8000030517578125</AltitudeMeters>
            <DistanceMeters>NAN</DistanceMeters>
          </Trackpoint>
          <Trackpoint>
            <Time>2021-08-11T12:58:50.000Z</Time>
            <Position>
              <LatitudeDegrees>43.3095096051692962646484375</LatitudeDegrees>
              <LongitudeDegrees>-1.84117488563060760498046875</LongitudeDegrees>
            </Position>
            <AltitudeMeters>143.600006103515625</AltitudeMeters>
            <DistanceMeters>NAN</DistanceMeters>
          </Trackpoint>
          <Trackpoint>
            <Time>2021-08-11T12:58:51.000Z</Time>
            <Position>
              <LatitudeDegrees>43.30950516276061534881591796875</LatitudeDegrees>
              <LongitudeDegrees>-1.84120765887200832366943359375</LongitudeDegrees>
            </Position>
            <AltitudeMeters>143.600006103515625</AltitudeMeters>
            <DistanceMeters>NAN</DistanceMeters>
          </Trackpoint>
          <Trackpoint>
            <Time>2021-08-11T12:58:52.000Z</Time>
            <Position>
              <LatitudeDegrees>43.3095050789415836334228515625</LatitudeDegrees>
              <LongitudeDegrees>-1.8412397615611553192138671875</LongitudeDegrees>
            </Position>
            <AltitudeMeters>143.600006103515625</AltitudeMeters>
            <DistanceMeters>NAN</DistanceMeters>
          </Trackpoint>
          <Trackpoint>
            <Time>2021-08-11T12:58:53.000Z</Time>
            <Position>
              <LatitudeDegrees>43.30950700677931308746337890625</LatitudeDegrees>
              <LongitudeDegrees>-1.84127102605998516082763671875</LongitudeDegrees>
            </Position>
            <AltitudeMeters>144</AltitudeMeters>
            <DistanceMeters>NAN</DistanceMeters>
          </Trackpoint>
          <Trackpoint>
            <Time>2021-08-11T12:58:54.000Z</Time>
            <Position>
              <LatitudeDegrees>43.30950667150318622589111328125</LatitudeDegrees>
              <LongitudeDegrees>-1.841303296387195587158203125</LongitudeDegrees>
            </Position>
            <AltitudeMeters>144.600006103515625</AltitudeMeters>
            <DistanceMeters>NAN</DistanceMeters>
          </Trackpoint>
          <Trackpoint>
            <Time>2021-08-11T12:58:55.000Z</Time>
            <Position>
              <LatitudeDegrees>43.309504576027393341064453125</LatitudeDegrees>
              <LongitudeDegrees>-1.84133254922926425933837890625</LongitudeDegrees>
            </Position>
            <AltitudeMeters>144.8000030517578125</AltitudeMeters>
            <DistanceMeters>NAN</DistanceMeters>
          </Trackpoint>
          <Trackpoint>
            <Time>2021-08-11T12:58:56.000Z</Time>
            <Position>
              <LatitudeDegrees>43.30950248055160045623779296875</LatitudeDegrees>
              <LongitudeDegrees>-1.84136020950973033905029296875</LongitudeDegrees>
            </Position>
            <AltitudeMeters>145</AltitudeMeters>
            <DistanceMeters>NAN</DistanceMeters>
          </Trackpoint>
          <Trackpoint>
            <Time>2021-08-11T12:58:57.000Z</Time>
            <Position>
              <LatitudeDegrees>43.30950164236128330230712890625</LatitudeDegrees>
              <LongitudeDegrees>-1.841388456523418426513671875</LongitudeDegrees>
            </Position>
            <AltitudeMeters>145.1999969482421875</AltitudeMeters>
            <DistanceMeters>NAN</DistanceMeters>
          </Trackpoint>
          <Trackpoint>
            <Time>2021-08-11T12:58:58.000Z</Time>
            <Position>
              <LatitudeDegrees>43.30950264818966388702392578125</LatitudeDegrees>
              <LongitudeDegrees>-1.84141620062291622161865234375</LongitudeDegrees>
            </Position>
            <AltitudeMeters>145.8000030517578125</AltitudeMeters>
            <DistanceMeters>NAN</DistanceMeters>
          </Trackpoint>
          <Trackpoint>
            <Time>2021-08-11T12:58:59.000Z</Time>
            <Position>
              <LatitudeDegrees>43.30950482748448848724365234375</LatitudeDegrees>
              <LongitudeDegrees>-1.84144017286598682403564453125</LongitudeDegrees>
            </Position>
            <AltitudeMeters>146</AltitudeMeters>
            <DistanceMeters>NAN</DistanceMeters>
          </Trackpoint>
          <Trackpoint>
            <Time>2021-08-11T12:59:00.000Z</Time>
            <Position>
              <LatitudeDegrees>43.30950750969350337982177734375</LatitudeDegrees>
              <LongitudeDegrees>-1.841460205614566802978515625</LongitudeDegrees>
            </Position>
            <AltitudeMeters>146.1999969482421875</AltitudeMeters>
            <DistanceMeters>NAN</DistanceMeters>
          </Trackpoint>
          <Trackpoint>
            <Time>2021-08-11T12:59:01.000Z</Time>
            <Position>
              <LatitudeDegrees>43.30950901843607425689697265625</LatitudeDegrees>
              <LongitudeDegrees>-1.8414851836860179901123046875</LongitudeDegrees>
            </Position>
            <AltitudeMeters>146.399993896484375</AltitudeMeters>
            <DistanceMeters>NAN</DistanceMeters>
          </Trackpoint>
          <Trackpoint>
            <Time>2021-08-11T12:59:02.000Z</Time>
            <Position>
              <LatitudeDegrees>43.30951069481670856475830078125</LatitudeDegrees>
              <LongitudeDegrees>-1.8415109999477863311767578125</LongitudeDegrees>
            </Position>
            <AltitudeMeters>146.600006103515625</AltitudeMeters>
            <DistanceMeters>NAN</DistanceMeters>
          </Trackpoint>
          <Trackpoint>
            <Time>2021-08-11T12:59:03.000Z</Time>
            <Position>
              <LatitudeDegrees>43.3095101080834865570068359375</LatitudeDegrees>
              <LongitudeDegrees>-1.84153153561055660247802734375</LongitudeDegrees>
            </Position>
            <AltitudeMeters>147</AltitudeMeters>
            <DistanceMeters>NAN</DistanceMeters>
          </Trackpoint>
          <Trackpoint>
            <Time>2021-08-11T12:59:04.000Z</Time>
            <Position>
              <LatitudeDegrees>43.30951371230185031890869140625</LatitudeDegrees>
              <LongitudeDegrees>-1.84155148454010486602783203125</LongitudeDegrees>
            </Position>
            <AltitudeMeters>147.1999969482421875</AltitudeMeters>
            <DistanceMeters>NAN</DistanceMeters>
          </Trackpoint>
          <Trackpoint>
            <Time>2021-08-11T12:59:05.000Z</Time>
            <Position>
              <LatitudeDegrees>43.309518657624721527099609375</LatitudeDegrees>
              <LongitudeDegrees>-1.8415743671357631683349609375</LongitudeDegrees>
            </Position>
            <AltitudeMeters>147.600006103515625</AltitudeMeters>
            <DistanceMeters>NAN</DistanceMeters>
          </Trackpoint>
          <Trackpoint>
            <Time>2021-08-11T12:59:06.000Z</Time>
            <Position>
              <LatitudeDegrees>43.3095228485763072967529296875</LatitudeDegrees>
              <LongitudeDegrees>-1.84159758500754833221435546875</LongitudeDegrees>
            </Position>
            <AltitudeMeters>147.600006103515625</AltitudeMeters>
            <DistanceMeters>NAN</DistanceMeters>
          </Trackpoint>
          <Trackpoint>
            <Time>2021-08-11T12:59:07.000Z</Time>
            <Position>
              <LatitudeDegrees>43.3095265366137027740478515625</LatitudeDegrees>
              <LongitudeDegrees>-1.84162281453609466552734375</LongitudeDegrees>
            </Position>
            <AltitudeMeters>148</AltitudeMeters>
            <DistanceMeters>NAN</DistanceMeters>
          </Trackpoint>
          <Trackpoint>
            <Time>2021-08-11T12:59:08.000Z</Time>
            <Position>
              <LatitudeDegrees>43.3095292188227176666259765625</LatitudeDegrees>
              <LongitudeDegrees>-1.84164133854210376739501953125</LongitudeDegrees>
            </Position>
            <AltitudeMeters>148.399993896484375</AltitudeMeters>
            <DistanceMeters>NAN</DistanceMeters>
          </Trackpoint>
          <Trackpoint>
            <Time>2021-08-11T12:59:09.000Z</Time>
            <Position>
              <LatitudeDegrees>43.30953366123139858245849609375</LatitudeDegrees>
              <LongitudeDegrees>-1.84166313149034976959228515625</LongitudeDegrees>
            </Position>
            <AltitudeMeters>148.600006103515625</AltitudeMeters>
            <DistanceMeters>NAN</DistanceMeters>
          </Trackpoint>
          <Trackpoint>
            <Time>2021-08-11T12:59:10.000Z</Time>
            <Position>
              <LatitudeDegrees>43.3095382712781429290771484375</LatitudeDegrees>
              <LongitudeDegrees>-1.8416933901607990264892578125</LongitudeDegrees>
            </Position>
            <AltitudeMeters>148.8000030517578125</AltitudeMeters>
            <DistanceMeters>NAN</DistanceMeters>
          </Trackpoint>
          <Trackpoint>
            <Time>2021-08-11T12:59:11.000Z</Time>
            <Position>
              <LatitudeDegrees>43.3095433004200458526611328125</LatitudeDegrees>
              <LongitudeDegrees>-1.8417182005941867828369140625</LongitudeDegrees>
            </Position>
            <AltitudeMeters>149</AltitudeMeters>
            <DistanceMeters>NAN</DistanceMeters>
          </Trackpoint>
          <Trackpoint>
            <Time>2021-08-11T12:59:12.000Z</Time>
            <Position>
              <LatitudeDegrees>43.3095473237335681915283203125</LatitudeDegrees>
              <LongitudeDegrees>-1.84174695052206516265869140625</LongitudeDegrees>
            </Position>
            <AltitudeMeters>149.399993896484375</AltitudeMeters>
            <DistanceMeters>NAN</DistanceMeters>
          </Trackpoint>
          <Trackpoint>
            <Time>2021-08-11T12:59:13.000Z</Time>
            <Position>
              <LatitudeDegrees>43.3095500059425830841064453125</LatitudeDegrees>
              <LongitudeDegrees>-1.8417802266776561737060546875</LongitudeDegrees>
            </Position>
            <AltitudeMeters>149.600006103515625</AltitudeMeters>
            <DistanceMeters>NAN</DistanceMeters>
          </Trackpoint>
          <Trackpoint>
            <Time>2021-08-11T12:59:14.000Z</Time>
            <Position>
              <LatitudeDegrees>43.3095510117709636688232421875</LatitudeDegrees>
              <LongitudeDegrees>-1.84180654585361480712890625</LongitudeDegrees>
            </Position>
            <AltitudeMeters>150</AltitudeMeters>
            <DistanceMeters>NAN</DistanceMeters>
          </Trackpoint>
          <Trackpoint>
            <Time>2021-08-11T12:59:15.000Z</Time>
            <Position>
              <LatitudeDegrees>43.3095510117709636688232421875</LatitudeDegrees>
              <LongitudeDegrees>-1.841831691563129425048828125</LongitudeDegrees>
            </Position>
            <AltitudeMeters>150.399993896484375</AltitudeMeters>
            <DistanceMeters>NAN</DistanceMeters>
          </Trackpoint>
          <Trackpoint>
            <Time>2021-08-11T12:59:16.000Z</Time>
            <Position>
              <LatitudeDegrees>43.30954740755259990692138671875</LatitudeDegrees>
              <LongitudeDegrees>-1.84185490943491458892822265625</LongitudeDegrees>
            </Position>
            <AltitudeMeters>150.600006103515625</AltitudeMeters>
            <DistanceMeters>NAN</DistanceMeters>
          </Trackpoint>
          <Trackpoint>
            <Time>2021-08-11T12:59:17.000Z</Time>
            <Position>
              <LatitudeDegrees>43.30954405479133129119873046875</LatitudeDegrees>
              <LongitudeDegrees>-1.84187971986830234527587890625</LongitudeDegrees>
            </Position>
            <AltitudeMeters>150.8000030517578125</AltitudeMeters>
            <DistanceMeters>NAN</DistanceMeters>
          </Trackpoint>
          <Trackpoint>
            <Time>2021-08-11T12:59:18.000Z</Time>
            <Position>
              <LatitudeDegrees>43.30954355187714099884033203125</LatitudeDegrees>
              <LongitudeDegrees>-1.8419022671878337860107421875</LongitudeDegrees>
            </Position>
            <AltitudeMeters>151</AltitudeMeters>
            <DistanceMeters>NAN</DistanceMeters>
          </Trackpoint>
          <Trackpoint>
            <Time>2021-08-11T12:59:19.000Z</Time>
            <Position>
              <LatitudeDegrees>43.30954371951520442962646484375</LatitudeDegrees>
              <LongitudeDegrees>-1.84193001128733158111572265625</LongitudeDegrees>
            </Position>
            <AltitudeMeters>151.399993896484375</AltitudeMeters>
            <DistanceMeters>NAN</DistanceMeters>
          </Trackpoint>
          <Trackpoint>
            <Time>2021-08-11T12:59:20.000Z</Time>
            <Position>
              <LatitudeDegrees>43.30954405479133129119873046875</LatitudeDegrees>
              <LongitudeDegrees>-1.84196052141487598419189453125</LongitudeDegrees>
            </Position>
            <AltitudeMeters>151.399993896484375</AltitudeMeters>
            <DistanceMeters>NAN</DistanceMeters>
          </Trackpoint>
          <Trackpoint>
            <Time>2021-08-11T12:59:21.000Z</Time>
            <Position>
              <LatitudeDegrees>43.30954757519066333770751953125</LatitudeDegrees>
              <LongitudeDegrees>-1.8419815599918365478515625</LongitudeDegrees>
            </Position>
            <AltitudeMeters>151.600006103515625</AltitudeMeters>
            <DistanceMeters>NAN</DistanceMeters>
          </Trackpoint>
          <Trackpoint>
            <Time>2021-08-11T12:59:22.000Z</Time>
            <Position>
              <LatitudeDegrees>43.30954472534358501434326171875</LatitudeDegrees>
              <LongitudeDegrees>-1.8420092202723026275634765625</LongitudeDegrees>
            </Position>
            <AltitudeMeters>152</AltitudeMeters>
            <DistanceMeters>NAN</DistanceMeters>
          </Trackpoint>
          <Trackpoint>
            <Time>2021-08-11T12:59:23.000Z</Time>
            <Position>
              <LatitudeDegrees>43.30954355187714099884033203125</LatitudeDegrees>
              <LongitudeDegrees>-1.84203143231570720672607421875</LongitudeDegrees>
            </Position>
            <AltitudeMeters>152.1999969482421875</AltitudeMeters>
            <DistanceMeters>NAN</DistanceMeters>
          </Trackpoint>
          <Trackpoint>
            <Time>2021-08-11T12:59:24.000Z</Time>
            <Position>
              <LatitudeDegrees>43.309540115296840667724609375</LatitudeDegrees>
              <LongitudeDegrees>-1.84205724857747554779052734375</LongitudeDegrees>
            </Position>
            <AltitudeMeters>152.399993896484375</AltitudeMeters>
            <DistanceMeters>NAN</DistanceMeters>
          </Trackpoint>
          <Trackpoint>
            <Time>2021-08-11T12:59:25.000Z</Time>
            <Position>
              <LatitudeDegrees>43.30953885801136493682861328125</LatitudeDegrees>
              <LongitudeDegrees>-1.84208138845860958099365234375</LongitudeDegrees>
            </Position>
            <AltitudeMeters>152.600006103515625</AltitudeMeters>
            <DistanceMeters>NAN</DistanceMeters>
          </Trackpoint>
          <Trackpoint>
            <Time>2021-08-11T12:59:26.000Z</Time>
            <Position>
              <LatitudeDegrees>43.309540115296840667724609375</LatitudeDegrees>
              <LongitudeDegrees>-1.8421076238155364990234375</LongitudeDegrees>
            </Position>
            <AltitudeMeters>153</AltitudeMeters>
            <DistanceMeters>NAN</DistanceMeters>
          </Trackpoint>
          <Trackpoint>
            <Time>2021-08-11T12:59:27.000Z</Time>
            <Position>
              <LatitudeDegrees>43.309540115296840667724609375</LatitudeDegrees>
              <LongitudeDegrees>-1.84213637374341487884521484375</LongitudeDegrees>
            </Position>
            <AltitudeMeters>153</AltitudeMeters>
            <DistanceMeters>NAN</DistanceMeters>
          </Trackpoint>
          <Trackpoint>
            <Time>2021-08-11T12:59:28.000Z</Time>
            <Position>
              <LatitudeDegrees>43.30953978002071380615234375</LatitudeDegrees>
              <LongitudeDegrees>-1.84216889552772045135498046875</LongitudeDegrees>
            </Position>
            <AltitudeMeters>153.1999969482421875</AltitudeMeters>
            <DistanceMeters>NAN</DistanceMeters>
          </Trackpoint>
          <Trackpoint>
            <Time>2021-08-11T12:59:29.000Z</Time>
            <Position>
              <LatitudeDegrees>43.30953818745911121368408203125</LatitudeDegrees>
              <LongitudeDegrees>-1.84219890274107456207275390625</LongitudeDegrees>
            </Position>
            <AltitudeMeters>153.399993896484375</AltitudeMeters>
            <DistanceMeters>NAN</DistanceMeters>
          </Trackpoint>
          <Trackpoint>
            <Time>2021-08-11T12:59:30.000Z</Time>
            <Position>
              <LatitudeDegrees>43.3095349185168743133544921875</LatitudeDegrees>
              <LongitudeDegrees>-1.84222362935543060302734375</LongitudeDegrees>
            </Position>
            <AltitudeMeters>153.600006103515625</AltitudeMeters>
            <DistanceMeters>NAN</DistanceMeters>
          </Trackpoint>
          <Trackpoint>
            <Time>2021-08-11T12:59:31.000Z</Time>
            <Position>
              <LatitudeDegrees>43.309531398117542266845703125</LatitudeDegrees>
              <LongitudeDegrees>-1.842246092855930328369140625</LongitudeDegrees>
            </Position>
            <AltitudeMeters>153.8000030517578125</AltitudeMeters>
            <DistanceMeters>NAN</DistanceMeters>
          </Trackpoint>
          <Trackpoint>
            <Time>2021-08-11T12:59:32.000Z</Time>
            <Position>
              <LatitudeDegrees>43.30953047610819339752197265625</LatitudeDegrees>
              <LongitudeDegrees>-1.8422739207744598388671875</LongitudeDegrees>
            </Position>
            <AltitudeMeters>154</AltitudeMeters>
            <DistanceMeters>NAN</DistanceMeters>
          </Trackpoint>
          <Trackpoint>
            <Time>2021-08-11T12:59:33.000Z</Time>
            <Position>
              <LatitudeDegrees>43.3095256984233856201171875</LatitudeDegrees>
              <LongitudeDegrees>-1.8423141539096832275390625</LongitudeDegrees>
            </Position>
            <AltitudeMeters>154.399993896484375</AltitudeMeters>
            <DistanceMeters>NAN</DistanceMeters>
          </Trackpoint>
          <Trackpoint>
            <Time>2021-08-11T12:59:34.000Z</Time>
            <Position>
              <LatitudeDegrees>43.30952829681336879730224609375</LatitudeDegrees>
              <LongitudeDegrees>-1.84233804233372211456298828125</LongitudeDegrees>
            </Position>
            <AltitudeMeters>154.8000030517578125</AltitudeMeters>
            <DistanceMeters>NAN</DistanceMeters>
          </Trackpoint>
          <Trackpoint>
            <Time>2021-08-11T12:59:35.000Z</Time>
            <Position>
              <LatitudeDegrees>43.30952192656695842742919921875</LatitudeDegrees>
              <LongitudeDegrees>-1.84236771427094936370849609375</LongitudeDegrees>
            </Position>
            <AltitudeMeters>155.1999969482421875</AltitudeMeters>
            <DistanceMeters>NAN</DistanceMeters>
          </Trackpoint>
          <Trackpoint>
            <Time>2021-08-11T12:59:36.000Z</Time>
            <Position>
              <LatitudeDegrees>43.3095265366137027740478515625</LatitudeDegrees>
              <LongitudeDegrees>-1.84239353053271770477294921875</LongitudeDegrees>
            </Position>
            <AltitudeMeters>155.399993896484375</AltitudeMeters>
            <DistanceMeters>NAN</DistanceMeters>
          </Trackpoint>
          <Trackpoint>
            <Time>2021-08-11T12:59:37.000Z</Time>
            <Position>
              <LatitudeDegrees>43.3095285482704639434814453125</LatitudeDegrees>
              <LongitudeDegrees>-1.84242236427962779998779296875</LongitudeDegrees>
            </Position>
            <AltitudeMeters>155.600006103515625</AltitudeMeters>
            <DistanceMeters>NAN</DistanceMeters>
          </Trackpoint>
          <Trackpoint>
            <Time>2021-08-11T12:59:38.000Z</Time>
            <Position>
              <LatitudeDegrees>43.3095292188227176666259765625</LatitudeDegrees>
              <LongitudeDegrees>-1.84244667179882526397705078125</LongitudeDegrees>
            </Position>
            <AltitudeMeters>156</AltitudeMeters>
            <DistanceMeters>NAN</DistanceMeters>
          </Trackpoint>
          <Trackpoint>
            <Time>2021-08-11T12:59:39.000Z</Time>
            <Position>
              <LatitudeDegrees>43.309526704251766204833984375</LatitudeDegrees>
              <LongitudeDegrees>-1.842471398413181304931640625</LongitudeDegrees>
            </Position>
            <AltitudeMeters>156.1999969482421875</AltitudeMeters>
            <DistanceMeters>NAN</DistanceMeters>
          </Trackpoint>
          <Trackpoint>
            <Time>2021-08-11T12:59:40.000Z</Time>
            <Position>
              <LatitudeDegrees>43.30952192656695842742919921875</LatitudeDegrees>
              <LongitudeDegrees>-1.8424953706562519073486328125</LongitudeDegrees>
            </Position>
            <AltitudeMeters>156.600006103515625</AltitudeMeters>
            <DistanceMeters>NAN</DistanceMeters>
          </Trackpoint>
          <Trackpoint>
            <Time>2021-08-11T12:59:41.000Z</Time>
            <Position>
              <LatitudeDegrees>43.3095149695873260498046875</LatitudeDegrees>
              <LongitudeDegrees>-1.84251775033771991729736328125</LongitudeDegrees>
            </Position>
            <AltitudeMeters>156.8000030517578125</AltitudeMeters>
            <DistanceMeters>NAN</DistanceMeters>
          </Trackpoint>
          <Trackpoint>
            <Time>2021-08-11T12:59:42.000Z</Time>
            <Position>
              <LatitudeDegrees>43.309513963758945465087890625</LatitudeDegrees>
              <LongitudeDegrees>-1.84251758269965648651123046875</LongitudeDegrees>
            </Position>
            <AltitudeMeters>157.1999969482421875</AltitudeMeters>
            <DistanceMeters>NAN</DistanceMeters>
          </Trackpoint>
          <Trackpoint>
            <Time>2021-08-11T12:59:43.000Z</Time>
            <Position>
              <LatitudeDegrees>43.3095070905983448028564453125</LatitudeDegrees>
              <LongitudeDegrees>-1.842501573264598846435546875</LongitudeDegrees>
            </Position>
            <AltitudeMeters>157.600006103515625</AltitudeMeters>
            <DistanceMeters>NAN</DistanceMeters>
          </Trackpoint>
          <Trackpoint>
            <Time>2021-08-11T12:59:44.000Z</Time>
            <Position>
              <LatitudeDegrees>43.3094960264861583709716796875</LatitudeDegrees>
              <LongitudeDegrees>-1.842497885227203369140625</LongitudeDegrees>
            </Position>
            <AltitudeMeters>157.8000030517578125</AltitudeMeters>
            <DistanceMeters>NAN</DistanceMeters>
          </Trackpoint>
          <Trackpoint>
            <Time>2021-08-11T12:59:45.000Z</Time>
            <Position>
              <LatitudeDegrees>43.3094826154410839080810546875</LatitudeDegrees>
              <LongitudeDegrees>-1.84249243699014186859130859375</LongitudeDegrees>
            </Position>
            <AltitudeMeters>158.1999969482421875</AltitudeMeters>
            <DistanceMeters>NAN</DistanceMeters>
          </Trackpoint>
          <Trackpoint>
            <Time>2021-08-11T12:59:46.000Z</Time>
            <Position>
              <LatitudeDegrees>43.30947113223373889923095703125</LatitudeDegrees>
              <LongitudeDegrees>-1.842482127249240875244140625</LongitudeDegrees>
            </Position>
            <AltitudeMeters>158.399993896484375</AltitudeMeters>
            <DistanceMeters>NAN</DistanceMeters>
          </Trackpoint>
          <Trackpoint>
            <Time>2021-08-11T12:59:47.000Z</Time>
            <Position>
              <LatitudeDegrees>43.30945302732288837432861328125</LatitudeDegrees>
              <LongitudeDegrees>-1.8424732424318790435791015625</LongitudeDegrees>
            </Position>
            <AltitudeMeters>158.600006103515625</AltitudeMeters>
            <DistanceMeters>NAN</DistanceMeters>
          </Trackpoint>
          <Trackpoint>
            <Time>2021-08-11T12:59:48.000Z</Time>
            <Position>
              <LatitudeDegrees>43.30943626351654529571533203125</LatitudeDegrees>
              <LongitudeDegrees>-1.84246444143354892730712890625</LongitudeDegrees>
            </Position>
            <AltitudeMeters>158.600006103515625</AltitudeMeters>
            <DistanceMeters>NAN</DistanceMeters>
          </Trackpoint>
          <Trackpoint>
            <Time>2021-08-11T12:59:49.000Z</Time>
            <Position>
              <LatitudeDegrees>43.30941975116729736328125</LatitudeDegrees>
              <LongitudeDegrees>-1.84245840646326541900634765625</LongitudeDegrees>
            </Position>
            <AltitudeMeters>158.8000030517578125</AltitudeMeters>
            <DistanceMeters>NAN</DistanceMeters>
          </Trackpoint>
          <Trackpoint>
            <Time>2021-08-11T12:59:50.000Z</Time>
            <Position>
              <LatitudeDegrees>43.30940592102706432342529296875</LatitudeDegrees>
              <LongitudeDegrees>-1.8424534611403942108154296875</LongitudeDegrees>
            </Position>
            <AltitudeMeters>159</AltitudeMeters>
            <DistanceMeters>NAN</DistanceMeters>
          </Trackpoint>
          <Trackpoint>
            <Time>2021-08-11T12:59:51.000Z</Time>
            <Position>
              <LatitudeDegrees>43.30939167179167270660400390625</LatitudeDegrees>
              <LongitudeDegrees>-1.84245605953037738800048828125</LongitudeDegrees>
            </Position>
            <AltitudeMeters>159</AltitudeMeters>
            <DistanceMeters>NAN</DistanceMeters>
          </Trackpoint>
          <Trackpoint>
            <Time>2021-08-11T12:59:52.000Z</Time>
            <Position>
              <LatitudeDegrees>43.3093773387372493743896484375</LatitudeDegrees>
              <LongitudeDegrees>-1.84246092103421688079833984375</LongitudeDegrees>
            </Position>
            <AltitudeMeters>159.1999969482421875</AltitudeMeters>
            <DistanceMeters>NAN</DistanceMeters>
          </Trackpoint>
          <Trackpoint>
            <Time>2021-08-11T12:59:53.000Z</Time>
            <Position>
              <LatitudeDegrees>43.30936501733958721160888671875</LatitudeDegrees>
              <LongitudeDegrees>-1.84246310032904148101806640625</LongitudeDegrees>
            </Position>
            <AltitudeMeters>159.1999969482421875</AltitudeMeters>
            <DistanceMeters>NAN</DistanceMeters>
          </Trackpoint>
          <Trackpoint>
            <Time>2021-08-11T12:59:54.000Z</Time>
            <Position>
              <LatitudeDegrees>43.30935210920870304107666015625</LatitudeDegrees>
              <LongitudeDegrees>-1.84247114695608615875244140625</LongitudeDegrees>
            </Position>
            <AltitudeMeters>159.399993896484375</AltitudeMeters>
            <DistanceMeters>NAN</DistanceMeters>
          </Trackpoint>
          <Trackpoint>
            <Time>2021-08-11T12:59:55.000Z</Time>
            <Position>
              <LatitudeDegrees>43.3093381114304065704345703125</LatitudeDegrees>
              <LongitudeDegrees>-1.84248112142086029052734375</LongitudeDegrees>
            </Position>
            <AltitudeMeters>159.600006103515625</AltitudeMeters>
            <DistanceMeters>NAN</DistanceMeters>
          </Trackpoint>
          <Trackpoint>
            <Time>2021-08-11T12:59:56.000Z</Time>
            <Position>
              <LatitudeDegrees>43.30932428129017353057861328125</LatitudeDegrees>
              <LongitudeDegrees>-1.84249059297144412994384765625</LongitudeDegrees>
            </Position>
            <AltitudeMeters>159.8000030517578125</AltitudeMeters>
            <DistanceMeters>NAN</DistanceMeters>
          </Trackpoint>
          <Trackpoint>
            <Time>2021-08-11T12:59:57.000Z</Time>
            <Position>
              <LatitudeDegrees>43.30931304953992366790771484375</LatitudeDegrees>
              <LongitudeDegrees>-1.8425000645220279693603515625</LongitudeDegrees>
            </Position>
            <AltitudeMeters>160</AltitudeMeters>
            <DistanceMeters>NAN</DistanceMeters>
          </Trackpoint>
          <Trackpoint>
            <Time>2021-08-11T12:59:58.000Z</Time>
            <Position>
              <LatitudeDegrees>43.3093035779893398284912109375</LatitudeDegrees>
              <LongitudeDegrees>-1.84251389466226100921630859375</LongitudeDegrees>
            </Position>
            <AltitudeMeters>160.1999969482421875</AltitudeMeters>
            <DistanceMeters>NAN</DistanceMeters>
          </Trackpoint>
          <Trackpoint>
            <Time>2021-08-11T12:59:59.000Z</Time>
            <Position>
              <LatitudeDegrees>43.30929972231388092041015625</LatitudeDegrees>
              <LongitudeDegrees>-1.84253116138279438018798828125</LongitudeDegrees>
            </Position>
            <AltitudeMeters>160.600006103515625</AltitudeMeters>
            <DistanceMeters>NAN</DistanceMeters>
          </Trackpoint>
          <Trackpoint>
            <Time>2021-08-11T13:00:00.000Z</Time>
            <Position>
              <LatitudeDegrees>43.30929427407681941986083984375</LatitudeDegrees>
              <LongitudeDegrees>-1.84255010448396205902099609375</LongitudeDegrees>
            </Position>
            <AltitudeMeters>160.600006103515625</AltitudeMeters>
            <DistanceMeters>NAN</DistanceMeters>
          </Trackpoint>
          <Trackpoint>
            <Time>2021-08-11T13:00:01.000Z</Time>
            <Position>
              <LatitudeDegrees>43.3092878200113773345947265625</LatitudeDegrees>
              <LongitudeDegrees>-1.84257005341351032257080078125</LongitudeDegrees>
            </Position>
            <AltitudeMeters>161</AltitudeMeters>
            <DistanceMeters>NAN</DistanceMeters>
          </Trackpoint>
          <Trackpoint>
            <Time>2021-08-11T13:00:02.000Z</Time>
            <Position>
              <LatitudeDegrees>43.309281282126903533935546875</LatitudeDegrees>
              <LongitudeDegrees>-1.842591762542724609375</LongitudeDegrees>
            </Position>
            <AltitudeMeters>161</AltitudeMeters>
            <DistanceMeters>NAN</DistanceMeters>
          </Trackpoint>
          <Trackpoint>
            <Time>2021-08-11T13:00:03.000Z</Time>
            <Position>
              <LatitudeDegrees>43.30928103066980838775634765625</LatitudeDegrees>
              <LongitudeDegrees>-1.84261296875774860382080078125</LongitudeDegrees>
            </Position>
            <AltitudeMeters>161.399993896484375</AltitudeMeters>
            <DistanceMeters>NAN</DistanceMeters>
          </Trackpoint>
          <Trackpoint>
            <Time>2021-08-11T13:00:04.000Z</Time>
            <Position>
              <LatitudeDegrees>43.3092816174030303955078125</LatitudeDegrees>
              <LongitudeDegrees>-1.84263425879180431365966796875</LongitudeDegrees>
            </Position>
            <AltitudeMeters>161.8000030517578125</AltitudeMeters>
            <DistanceMeters>NAN</DistanceMeters>
          </Trackpoint>
          <Trackpoint>
            <Time>2021-08-11T13:00:05.000Z</Time>
            <Position>
              <LatitudeDegrees>43.3092780970036983489990234375</LatitudeDegrees>
              <LongitudeDegrees>-1.84265320189297199249267578125</LongitudeDegrees>
            </Position>
            <AltitudeMeters>161.8000030517578125</AltitudeMeters>
            <DistanceMeters>NAN</DistanceMeters>
          </Trackpoint>
          <Trackpoint>
            <Time>2021-08-11T13:00:06.000Z</Time>
            <Position>
              <LatitudeDegrees>43.30927231349050998687744140625</LatitudeDegrees>
              <LongitudeDegrees>-1.8426690436899662017822265625</LongitudeDegrees>
            </Position>
            <AltitudeMeters>162</AltitudeMeters>
            <DistanceMeters>NAN</DistanceMeters>
          </Trackpoint>
          <Trackpoint>
            <Time>2021-08-11T13:00:07.000Z</Time>
            <Position>
              <LatitudeDegrees>43.309267871081829071044921875</LatitudeDegrees>
              <LongitudeDegrees>-1.842683963477611541748046875</LongitudeDegrees>
            </Position>
            <AltitudeMeters>162.1999969482421875</AltitudeMeters>
            <DistanceMeters>NAN</DistanceMeters>
          </Trackpoint>
          <Trackpoint>
            <Time>2021-08-11T13:00:08.000Z</Time>
            <Position>
              <LatitudeDegrees>43.30926745198667049407958984375</LatitudeDegrees>
              <LongitudeDegrees>-1.84270064346492290496826171875</LongitudeDegrees>
            </Position>
            <AltitudeMeters>162.399993896484375</AltitudeMeters>
            <DistanceMeters>NAN</DistanceMeters>
          </Trackpoint>
          <Trackpoint>
            <Time>2021-08-11T13:00:09.000Z</Time>
            <Position>
              <LatitudeDegrees>43.3092687092721462249755859375</LatitudeDegrees>
              <LongitudeDegrees>-1.84271589852869510650634765625</LongitudeDegrees>
            </Position>
            <AltitudeMeters>162.600006103515625</AltitudeMeters>
            <DistanceMeters>NAN</DistanceMeters>
          </Trackpoint>
          <Trackpoint>
            <Time>2021-08-11T13:00:10.000Z</Time>
            <Position>
              <LatitudeDegrees>43.3092717267572879791259765625</LatitudeDegrees>
              <LongitudeDegrees>-1.8427287228405475616455078125</LongitudeDegrees>
            </Position>
            <AltitudeMeters>163</AltitudeMeters>
            <DistanceMeters>NAN</DistanceMeters>
          </Trackpoint>
          <Trackpoint>
            <Time>2021-08-11T13:00:11.000Z</Time>
            <Position>
              <LatitudeDegrees>43.3092749118804931640625</LatitudeDegrees>
              <LongitudeDegrees>-1.84274255298078060150146484375</LongitudeDegrees>
            </Position>
            <AltitudeMeters>163.1999969482421875</AltitudeMeters>
            <DistanceMeters>NAN</DistanceMeters>
          </Trackpoint>
          <Trackpoint>
            <Time>2021-08-11T13:00:12.000Z</Time>
            <Position>
              <LatitudeDegrees>43.30927692353725433349609375</LatitudeDegrees>
              <LongitudeDegrees>-1.84275847859680652618408203125</LongitudeDegrees>
            </Position>
            <AltitudeMeters>163.399993896484375</AltitudeMeters>
            <DistanceMeters>NAN</DistanceMeters>
          </Trackpoint>
          <Trackpoint>
            <Time>2021-08-11T13:00:13.000Z</Time>
            <Position>
              <LatitudeDegrees>43.30927549861371517181396484375</LatitudeDegrees>
              <LongitudeDegrees>-1.84277750551700592041015625</LongitudeDegrees>
            </Position>
            <AltitudeMeters>163.600006103515625</AltitudeMeters>
            <DistanceMeters>NAN</DistanceMeters>
          </Trackpoint>
          <Trackpoint>
            <Time>2021-08-11T13:00:14.000Z</Time>
            <Position>
              <LatitudeDegrees>43.30927650444209575653076171875</LatitudeDegrees>
              <LongitudeDegrees>-1.84279787354171276092529296875</LongitudeDegrees>
            </Position>
            <AltitudeMeters>163.600006103515625</AltitudeMeters>
            <DistanceMeters>NAN</DistanceMeters>
          </Trackpoint>
          <Trackpoint>
            <Time>2021-08-11T13:00:15.000Z</Time>
            <Position>
              <LatitudeDegrees>43.30928455106914043426513671875</LatitudeDegrees>
              <LongitudeDegrees>-1.842814050614833831787109375</LongitudeDegrees>
            </Position>
            <AltitudeMeters>163.8000030517578125</AltitudeMeters>
            <DistanceMeters>NAN</DistanceMeters>
          </Trackpoint>
          <Trackpoint>
            <Time>2021-08-11T13:00:16.000Z</Time>
            <Position>
              <LatitudeDegrees>43.30929444171488285064697265625</LatitudeDegrees>
              <LongitudeDegrees>-1.842829473316669464111328125</LongitudeDegrees>
            </Position>
            <AltitudeMeters>163.8000030517578125</AltitudeMeters>
            <DistanceMeters>NAN</DistanceMeters>
          </Trackpoint>
          <Trackpoint>
            <Time>2021-08-11T13:00:17.000Z</Time>
            <Position>
              <LatitudeDegrees>43.30930215306580066680908203125</LatitudeDegrees>
              <LongitudeDegrees>-1.84284715913236141204833984375</LongitudeDegrees>
            </Position>
            <AltitudeMeters>164</AltitudeMeters>
            <DistanceMeters>NAN</DistanceMeters>
          </Trackpoint>
          <Trackpoint>
            <Time>2021-08-11T13:00:18.000Z</Time>
            <Position>
              <LatitudeDegrees>43.30931338481605052947998046875</LatitudeDegrees>
              <LongitudeDegrees>-1.8428559601306915283203125</LongitudeDegrees>
            </Position>
            <AltitudeMeters>164</AltitudeMeters>
            <DistanceMeters>NAN</DistanceMeters>
          </Trackpoint>
          <Trackpoint>
            <Time>2021-08-11T13:00:19.000Z</Time>
            <Position>
              <LatitudeDegrees>43.3093245327472686767578125</LatitudeDegrees>
              <LongitudeDegrees>-1.8428601510822772979736328125</LongitudeDegrees>
            </Position>
            <AltitudeMeters>164</AltitudeMeters>
            <DistanceMeters>NAN</DistanceMeters>
          </Trackpoint>
          <Trackpoint>
            <Time>2021-08-11T13:00:20.000Z</Time>
            <Position>
              <LatitudeDegrees>43.30933048389852046966552734375</LatitudeDegrees>
              <LongitudeDegrees>-1.84286409057676792144775390625</LongitudeDegrees>
            </Position>
            <AltitudeMeters>164</AltitudeMeters>
            <DistanceMeters>NAN</DistanceMeters>
          </Trackpoint>
          <Trackpoint>
            <Time>2021-08-11T13:00:21.000Z</Time>
            <Position>
              <LatitudeDegrees>43.30933769233524799346923828125</LatitudeDegrees>
              <LongitudeDegrees>-1.84286174364387989044189453125</LongitudeDegrees>
            </Position>
            <AltitudeMeters>164</AltitudeMeters>
            <DistanceMeters>NAN</DistanceMeters>
          </Trackpoint>
          <Trackpoint>
            <Time>2021-08-11T13:00:22.000Z</Time>
            <Position>
              <LatitudeDegrees>43.30934624187648296356201171875</LatitudeDegrees>
              <LongitudeDegrees>-1.84285252355039119720458984375</LongitudeDegrees>
            </Position>
            <AltitudeMeters>164</AltitudeMeters>
            <DistanceMeters>NAN</DistanceMeters>
          </Trackpoint>
          <Trackpoint>
            <Time>2021-08-11T13:00:23.000Z</Time>
            <Position>
              <LatitudeDegrees>43.30935470759868621826171875</LatitudeDegrees>
              <LongitudeDegrees>-1.8428386934101581573486328125</LongitudeDegrees>
            </Position>
            <AltitudeMeters>164</AltitudeMeters>
            <DistanceMeters>NAN</DistanceMeters>
          </Trackpoint>
          <Trackpoint>
            <Time>2021-08-11T13:00:24.000Z</Time>
            <Position>
              <LatitudeDegrees>43.30936166457831859588623046875</LatitudeDegrees>
              <LongitudeDegrees>-1.8428264558315277099609375</LongitudeDegrees>
            </Position>
            <AltitudeMeters>164</AltitudeMeters>
            <DistanceMeters>NAN</DistanceMeters>
          </Trackpoint>
          <Trackpoint>
            <Time>2021-08-11T13:00:25.000Z</Time>
            <Position>
              <LatitudeDegrees>43.30936870537698268890380859375</LatitudeDegrees>
              <LongitudeDegrees>-1.84281446970999240875244140625</LongitudeDegrees>
            </Position>
            <AltitudeMeters>164</AltitudeMeters>
            <DistanceMeters>NAN</DistanceMeters>
          </Trackpoint>
          <Trackpoint>
            <Time>2021-08-11T13:00:26.000Z</Time>
            <Position>
              <LatitudeDegrees>43.30937440507113933563232421875</LatitudeDegrees>
              <LongitudeDegrees>-1.8428044952452182769775390625</LongitudeDegrees>
            </Position>
            <AltitudeMeters>164</AltitudeMeters>
            <DistanceMeters>NAN</DistanceMeters>
          </Trackpoint>
          <Trackpoint>
            <Time>2021-08-11T13:00:27.000Z</Time>
            <Position>
              <LatitudeDegrees>43.30938077531754970550537109375</LatitudeDegrees>
              <LongitudeDegrees>-1.842795275151729583740234375</LongitudeDegrees>
            </Position>
            <AltitudeMeters>164</AltitudeMeters>
            <DistanceMeters>NAN</DistanceMeters>
          </Trackpoint>
          <Trackpoint>
            <Time>2021-08-11T13:00:28.000Z</Time>
            <Position>
              <LatitudeDegrees>43.30939267762005329132080078125</LatitudeDegrees>
              <LongitudeDegrees>-1.842787228524684906005859375</LongitudeDegrees>
            </Position>
            <AltitudeMeters>164</AltitudeMeters>
            <DistanceMeters>NAN</DistanceMeters>
          </Trackpoint>
          <Trackpoint>
            <Time>2021-08-11T13:00:29.000Z</Time>
            <Position>
              <LatitudeDegrees>43.3094081841409206390380859375</LatitudeDegrees>
              <LongitudeDegrees>-1.84278362430632114410400390625</LongitudeDegrees>
            </Position>
            <AltitudeMeters>164</AltitudeMeters>
            <DistanceMeters>NAN</DistanceMeters>
          </Trackpoint>
          <Trackpoint>
            <Time>2021-08-11T13:00:30.000Z</Time>
            <Position>
              <LatitudeDegrees>43.3094264566898345947265625</LatitudeDegrees>
              <LongitudeDegrees>-1.842781193554401397705078125</LongitudeDegrees>
            </Position>
            <AltitudeMeters>164</AltitudeMeters>
            <DistanceMeters>NAN</DistanceMeters>
          </Trackpoint>
          <Trackpoint>
            <Time>2021-08-11T13:00:31.000Z</Time>
            <Position>
              <LatitudeDegrees>43.30944699235260486602783203125</LatitudeDegrees>
              <LongitudeDegrees>-1.84278144501149654388427734375</LongitudeDegrees>
            </Position>
            <AltitudeMeters>164</AltitudeMeters>
            <DistanceMeters>NAN</DistanceMeters>
          </Trackpoint>
          <Trackpoint>
            <Time>2021-08-11T13:00:32.000Z</Time>
            <Position>
              <LatitudeDegrees>43.309467025101184844970703125</LatitudeDegrees>
              <LongitudeDegrees>-1.84278245083987712860107421875</LongitudeDegrees>
            </Position>
            <AltitudeMeters>164</AltitudeMeters>
            <DistanceMeters>NAN</DistanceMeters>
          </Trackpoint>
          <Trackpoint>
            <Time>2021-08-11T13:00:33.000Z</Time>
            <Position>
              <LatitudeDegrees>43.30948303453624248504638671875</LatitudeDegrees>
              <LongitudeDegrees>-1.84278278611600399017333984375</LongitudeDegrees>
            </Position>
            <AltitudeMeters>164</AltitudeMeters>
            <DistanceMeters>NAN</DistanceMeters>
          </Trackpoint>
          <Trackpoint>
            <Time>2021-08-11T13:00:34.000Z</Time>
            <Position>
              <LatitudeDegrees>43.30949686467647552490234375</LatitudeDegrees>
              <LongitudeDegrees>-1.842779852449893951416015625</LongitudeDegrees>
            </Position>
            <AltitudeMeters>164</AltitudeMeters>
            <DistanceMeters>NAN</DistanceMeters>
          </Trackpoint>
          <Trackpoint>
            <Time>2021-08-11T13:00:35.000Z</Time>
            <Position>
              <LatitudeDegrees>43.309506587684154510498046875</LatitudeDegrees>
              <LongitudeDegrees>-1.84277750551700592041015625</LongitudeDegrees>
            </Position>
            <AltitudeMeters>164</AltitudeMeters>
            <DistanceMeters>NAN</DistanceMeters>
          </Trackpoint>
          <Trackpoint>
            <Time>2021-08-11T13:00:37.000Z</Time>
            <Position>
              <LatitudeDegrees>43.30951119773089885711669921875</LatitudeDegrees>
              <LongitudeDegrees>-1.84277616441249847412109375</LongitudeDegrees>
            </Position>
            <AltitudeMeters>163.8000030517578125</AltitudeMeters>
            <DistanceMeters>NAN</DistanceMeters>
          </Trackpoint>
          <Trackpoint>
            <Time>2021-08-11T13:01:06.000Z</Time>
            <Position>
              <LatitudeDegrees>43.30951119773089885711669921875</LatitudeDegrees>
              <LongitudeDegrees>-1.84277616441249847412109375</LongitudeDegrees>
            </Position>
            <AltitudeMeters>163.8000030517578125</AltitudeMeters>
            <DistanceMeters>NAN</DistanceMeters>
          </Trackpoint>
          <Trackpoint>
            <Time>2021-08-11T13:01:55.000Z</Time>
            <Position>
              <LatitudeDegrees>43.30951119773089885711669921875</LatitudeDegrees>
              <LongitudeDegrees>-1.84277616441249847412109375</LongitudeDegrees>
            </Position>
            <AltitudeMeters>163.8000030517578125</AltitudeMeters>
            <DistanceMeters>NAN</DistanceMeters>
          </Trackpoint>
          <Trackpoint>
            <Time>2021-08-11T13:03:27.000Z</Time>
            <Position>
              <LatitudeDegrees>43.30951186828315258026123046875</LatitudeDegrees>
              <LongitudeDegrees>-1.842782534658908843994140625</LongitudeDegrees>
            </Position>
            <AltitudeMeters>163.600006103515625</AltitudeMeters>
            <DistanceMeters>NAN</DistanceMeters>
          </Trackpoint>
          <Trackpoint>
            <Time>2021-08-11T13:03:30.000Z</Time>
            <Position>
              <LatitudeDegrees>43.30951404757797718048095703125</LatitudeDegrees>
              <LongitudeDegrees>-1.84278278611600399017333984375</LongitudeDegrees>
            </Position>
            <AltitudeMeters>163.600006103515625</AltitudeMeters>
            <DistanceMeters>NAN</DistanceMeters>
          </Trackpoint>
          <Trackpoint>
            <Time>2021-08-11T13:03:33.000Z</Time>
            <Position>
              <LatitudeDegrees>43.30956366844475269317626953125</LatitudeDegrees>
              <LongitudeDegrees>-1.84282335452735424041748046875</LongitudeDegrees>
            </Position>
            <AltitudeMeters>163.399993896484375</AltitudeMeters>
            <DistanceMeters>NAN</DistanceMeters>
          </Trackpoint>
          <Trackpoint>
            <Time>2021-08-11T13:03:34.000Z</Time>
            <Position>
              <LatitudeDegrees>43.309576325118541717529296875</LatitudeDegrees>
              <LongitudeDegrees>-1.84284548275172710418701171875</LongitudeDegrees>
            </Position>
            <AltitudeMeters>163.399993896484375</AltitudeMeters>
            <DistanceMeters>NAN</DistanceMeters>
          </Trackpoint>
          <Trackpoint>
            <Time>2021-08-11T13:03:35.000Z</Time>
            <Position>
              <LatitudeDegrees>43.3095821924507617950439453125</LatitudeDegrees>
              <LongitudeDegrees>-1.8428765796124935150146484375</LongitudeDegrees>
            </Position>
            <AltitudeMeters>163.600006103515625</AltitudeMeters>
            <DistanceMeters>NAN</DistanceMeters>
          </Trackpoint>
          <Trackpoint>
            <Time>2021-08-11T13:03:36.000Z</Time>
            <Position>
              <LatitudeDegrees>43.3095831982791423797607421875</LatitudeDegrees>
              <LongitudeDegrees>-1.84290482662618160247802734375</LongitudeDegrees>
            </Position>
            <AltitudeMeters>163.399993896484375</AltitudeMeters>
            <DistanceMeters>NAN</DistanceMeters>
          </Trackpoint>
          <Trackpoint>
            <Time>2021-08-11T13:03:37.000Z</Time>
            <Position>
              <LatitudeDegrees>43.30958261154592037200927734375</LatitudeDegrees>
              <LongitudeDegrees>-1.84293441474437713623046875</LongitudeDegrees>
            </Position>
            <AltitudeMeters>163.399993896484375</AltitudeMeters>
            <DistanceMeters>NAN</DistanceMeters>
          </Trackpoint>
          <Trackpoint>
            <Time>2021-08-11T13:03:45.000Z</Time>
            <Position>
              <LatitudeDegrees>43.30954338423907756805419921875</LatitudeDegrees>
              <LongitudeDegrees>-1.8431407772004604339599609375</LongitudeDegrees>
            </Position>
            <AltitudeMeters>163.600006103515625</AltitudeMeters>
            <DistanceMeters>NAN</DistanceMeters>
          </Trackpoint>
          <Trackpoint>
            <Time>2021-08-11T13:03:46.000Z</Time>
            <Position>
              <LatitudeDegrees>43.309526033699512481689453125</LatitudeDegrees>
              <LongitudeDegrees>-1.8431697785854339599609375</LongitudeDegrees>
            </Position>
            <AltitudeMeters>163.8000030517578125</AltitudeMeters>
            <DistanceMeters>NAN</DistanceMeters>
          </Trackpoint>
          <Trackpoint>
            <Time>2021-08-11T13:03:47.000Z</Time>
            <Position>
              <LatitudeDegrees>43.30950851552188396453857421875</LatitudeDegrees>
              <LongitudeDegrees>-1.843198947608470916748046875</LongitudeDegrees>
            </Position>
            <AltitudeMeters>163.8000030517578125</AltitudeMeters>
            <DistanceMeters>NAN</DistanceMeters>
          </Trackpoint>
          <Trackpoint>
            <Time>2021-08-11T13:03:49.000Z</Time>
            <Position>
              <LatitudeDegrees>43.30947364680469036102294921875</LatitudeDegrees>
              <LongitudeDegrees>-1.84325837530195713043212890625</LongitudeDegrees>
            </Position>
            <AltitudeMeters>163.8000030517578125</AltitudeMeters>
            <DistanceMeters>NAN</DistanceMeters>
          </Trackpoint>
          <Trackpoint>
            <Time>2021-08-11T13:03:52.000Z</Time>
            <Position>
              <LatitudeDegrees>43.30943760462105274200439453125</LatitudeDegrees>
              <LongitudeDegrees>-1.84334873221814632415771484375</LongitudeDegrees>
            </Position>
            <AltitudeMeters>163.8000030517578125</AltitudeMeters>
            <DistanceMeters>NAN</DistanceMeters>
          </Trackpoint>
          <Trackpoint>
            <Time>2021-08-11T13:04:01.000Z</Time>
            <Position>
              <LatitudeDegrees>43.30933869816362857818603515625</LatitudeDegrees>
              <LongitudeDegrees>-1.84366154484450817108154296875</LongitudeDegrees>
            </Position>
            <AltitudeMeters>164.1999969482421875</AltitudeMeters>
            <DistanceMeters>NAN</DistanceMeters>
          </Trackpoint>
          <Trackpoint>
            <Time>2021-08-11T13:04:10.000Z</Time>
            <Position>
              <LatitudeDegrees>43.30917525105178356170654296875</LatitudeDegrees>
              <LongitudeDegrees>-1.844055242836475372314453125</LongitudeDegrees>
            </Position>
            <AltitudeMeters>164.1999969482421875</AltitudeMeters>
            <DistanceMeters>NAN</DistanceMeters>
          </Trackpoint>
          <Trackpoint>
            <Time>2021-08-11T13:04:17.000Z</Time>
            <Position>
              <LatitudeDegrees>43.30905253998935222625732421875</LatitudeDegrees>
              <LongitudeDegrees>-1.84435640461742877960205078125</LongitudeDegrees>
            </Position>
            <AltitudeMeters>163.8000030517578125</AltitudeMeters>
            <DistanceMeters>NAN</DistanceMeters>
          </Trackpoint>
          <Trackpoint>
            <Time>2021-08-11T13:04:18.000Z</Time>
            <Position>
              <LatitudeDegrees>43.30904223024845123291015625</LatitudeDegrees>
              <LongitudeDegrees>-1.84438808821141719818115234375</LongitudeDegrees>
            </Position>
            <AltitudeMeters>163.8000030517578125</AltitudeMeters>
            <DistanceMeters>NAN</DistanceMeters>
          </Trackpoint>
          <Trackpoint>
            <Time>2021-08-11T13:04:19.000Z</Time>
            <Position>
              <LatitudeDegrees>43.30902337096631526947021484375</LatitudeDegrees>
              <LongitudeDegrees>-1.84442094527184963226318359375</LongitudeDegrees>
            </Position>
            <AltitudeMeters>163.8000030517578125</AltitudeMeters>
            <DistanceMeters>NAN</DistanceMeters>
          </Trackpoint>
          <Trackpoint>
            <Time>2021-08-11T13:04:20.000Z</Time>
            <Position>
              <LatitudeDegrees>43.30901616252958774566650390625</LatitudeDegrees>
              <LongitudeDegrees>-1.844442822039127349853515625</LongitudeDegrees>
            </Position>
            <AltitudeMeters>163.8000030517578125</AltitudeMeters>
            <DistanceMeters>NAN</DistanceMeters>
          </Trackpoint>
          <Trackpoint>
            <Time>2021-08-11T13:04:21.000Z</Time>
            <Position>
              <LatitudeDegrees>43.30901264213025569915771484375</LatitudeDegrees>
              <LongitudeDegrees>-1.844450868666172027587890625</LongitudeDegrees>
            </Position>
            <AltitudeMeters>163.8000030517578125</AltitudeMeters>
            <DistanceMeters>NAN</DistanceMeters>
          </Trackpoint>
          <Trackpoint>
            <Time>2021-08-11T13:04:25.000Z</Time>
            <Position>
              <LatitudeDegrees>43.30901264213025569915771484375</LatitudeDegrees>
              <LongitudeDegrees>-1.844450868666172027587890625</LongitudeDegrees>
            </Position>
            <AltitudeMeters>164</AltitudeMeters>
            <DistanceMeters>NAN</DistanceMeters>
          </Trackpoint>
          <Trackpoint>
            <Time>2021-08-11T13:04:54.000Z</Time>
            <Position>
              <LatitudeDegrees>43.30901264213025569915771484375</LatitudeDegrees>
              <LongitudeDegrees>-1.844450868666172027587890625</LongitudeDegrees>
            </Position>
            <AltitudeMeters>164</AltitudeMeters>
            <DistanceMeters>NAN</DistanceMeters>
          </Trackpoint>
          <Trackpoint>
            <Time>2021-08-11T13:04:59.000Z</Time>
            <Position>
              <LatitudeDegrees>43.30901205539703369140625</LatitudeDegrees>
              <LongitudeDegrees>-1.84445246122777462005615234375</LongitudeDegrees>
            </Position>
            <AltitudeMeters>164</AltitudeMeters>
            <DistanceMeters>NAN</DistanceMeters>
          </Trackpoint>
          <Trackpoint>
            <Time>2021-08-11T13:05:02.000Z</Time>
            <Position>
              <LatitudeDegrees>43.30899504013359546661376953125</LatitudeDegrees>
              <LongitudeDegrees>-1.84451281093060970306396484375</LongitudeDegrees>
            </Position>
            <AltitudeMeters>164</AltitudeMeters>
            <DistanceMeters>NAN</DistanceMeters>
          </Trackpoint>
          <Trackpoint>
            <Time>2021-08-11T13:05:06.000Z</Time>
            <Position>
              <LatitudeDegrees>43.3089605905115604400634765625</LatitudeDegrees>
              <LongitudeDegrees>-1.8446193449199199676513671875</LongitudeDegrees>
            </Position>
            <AltitudeMeters>164</AltitudeMeters>
            <DistanceMeters>NAN</DistanceMeters>
          </Trackpoint>
          <Trackpoint>
            <Time>2021-08-11T13:05:09.000Z</Time>
            <Position>
              <LatitudeDegrees>43.308934271335601806640625</LatitudeDegrees>
              <LongitudeDegrees>-1.844702325761318206787109375</LongitudeDegrees>
            </Position>
            <AltitudeMeters>164.1999969482421875</AltitudeMeters>
            <DistanceMeters>NAN</DistanceMeters>
          </Trackpoint>
          <Trackpoint>
            <Time>2021-08-11T13:05:15.000Z</Time>
            <Position>
              <LatitudeDegrees>43.30886243842542171478271484375</LatitudeDegrees>
              <LongitudeDegrees>-1.84486485086381435394287109375</LongitudeDegrees>
            </Position>
            <AltitudeMeters>165</AltitudeMeters>
            <DistanceMeters>NAN</DistanceMeters>
          </Trackpoint>
          <Trackpoint>
            <Time>2021-08-11T13:05:16.000Z</Time>
            <Position>
              <LatitudeDegrees>43.3088536374270915985107421875</LatitudeDegrees>
              <LongitudeDegrees>-1.8448915891349315643310546875</LongitudeDegrees>
            </Position>
            <AltitudeMeters>165</AltitudeMeters>
            <DistanceMeters>NAN</DistanceMeters>
          </Trackpoint>
          <Trackpoint>
            <Time>2021-08-11T13:05:18.000Z</Time>
            <Position>
              <LatitudeDegrees>43.30883595161139965057373046875</LatitudeDegrees>
              <LongitudeDegrees>-1.84494632296264171600341796875</LongitudeDegrees>
            </Position>
            <AltitudeMeters>165.399993896484375</AltitudeMeters>
            <DistanceMeters>NAN</DistanceMeters>
          </Trackpoint>
          <Trackpoint>
            <Time>2021-08-11T13:05:19.000Z</Time>
            <Position>
              <LatitudeDegrees>43.3088298328220844268798828125</LatitudeDegrees>
              <LongitudeDegrees>-1.84497213922441005706787109375</LongitudeDegrees>
            </Position>
            <AltitudeMeters>165.399993896484375</AltitudeMeters>
            <DistanceMeters>NAN</DistanceMeters>
          </Trackpoint>
          <Trackpoint>
            <Time>2021-08-11T13:05:24.000Z</Time>
            <Position>
              <LatitudeDegrees>43.30877275206148624420166015625</LatitudeDegrees>
              <LongitudeDegrees>-1.84512846171855926513671875</LongitudeDegrees>
            </Position>
            <AltitudeMeters>166</AltitudeMeters>
            <DistanceMeters>NAN</DistanceMeters>
          </Trackpoint>
          <Trackpoint>
            <Time>2021-08-11T13:05:25.000Z</Time>
            <Position>
              <LatitudeDegrees>43.3087611012160778045654296875</LatitudeDegrees>
              <LongitudeDegrees>-1.84516509063541889190673828125</LongitudeDegrees>
            </Position>
            <AltitudeMeters>166.1999969482421875</AltitudeMeters>
            <DistanceMeters>NAN</DistanceMeters>
          </Trackpoint>
          <Trackpoint>
            <Time>2021-08-11T13:05:31.000Z</Time>
            <Position>
              <LatitudeDegrees>43.308680467307567596435546875</LatitudeDegrees>
              <LongitudeDegrees>-1.8453596346080303192138671875</LongitudeDegrees>
            </Position>
            <AltitudeMeters>167</AltitudeMeters>
            <DistanceMeters>NAN</DistanceMeters>
          </Trackpoint>
          <Trackpoint>
            <Time>2021-08-11T13:05:32.000Z</Time>
            <Position>
              <LatitudeDegrees>43.30866730771958827972412109375</LatitudeDegrees>
              <LongitudeDegrees>-1.84538838453590869903564453125</LongitudeDegrees>
            </Position>
            <AltitudeMeters>167</AltitudeMeters>
            <DistanceMeters>NAN</DistanceMeters>
          </Trackpoint>
          <Trackpoint>
            <Time>2021-08-11T13:05:33.000Z</Time>
            <Position>
              <LatitudeDegrees>43.30864568240940570831298828125</LatitudeDegrees>
              <LongitudeDegrees>-1.84541705064475536346435546875</LongitudeDegrees>
            </Position>
            <AltitudeMeters>167.1999969482421875</AltitudeMeters>
            <DistanceMeters>NAN</DistanceMeters>
          </Trackpoint>
          <Trackpoint>
            <Time>2021-08-11T13:05:35.000Z</Time>
            <Position>
              <LatitudeDegrees>43.3086350373923778533935546875</LatitudeDegrees>
              <LongitudeDegrees>-1.84545929543673992156982421875</LongitudeDegrees>
            </Position>
            <AltitudeMeters>167.600006103515625</AltitudeMeters>
            <DistanceMeters>NAN</DistanceMeters>
          </Trackpoint>
          <Trackpoint>
            <Time>2021-08-11T13:05:36.000Z</Time>
            <Position>
              <LatitudeDegrees>43.30862489528954029083251953125</LatitudeDegrees>
              <LongitudeDegrees>-1.84548779390752315521240234375</LongitudeDegrees>
            </Position>
            <AltitudeMeters>167.8000030517578125</AltitudeMeters>
            <DistanceMeters>NAN</DistanceMeters>
          </Trackpoint>
          <Trackpoint>
            <Time>2021-08-11T13:05:37.000Z</Time>
            <Position>
              <LatitudeDegrees>43.30861282534897327423095703125</LatitudeDegrees>
              <LongitudeDegrees>-1.8455148674547672271728515625</LongitudeDegrees>
            </Position>
            <AltitudeMeters>167.8000030517578125</AltitudeMeters>
            <DistanceMeters>NAN</DistanceMeters>
          </Trackpoint>
          <Trackpoint>
            <Time>2021-08-11T13:05:38.000Z</Time>
            <Position>
              <LatitudeDegrees>43.308601677417755126953125</LatitudeDegrees>
              <LongitudeDegrees>-1.8455457128584384918212890625</LongitudeDegrees>
            </Position>
            <AltitudeMeters>168</AltitudeMeters>
            <DistanceMeters>NAN</DistanceMeters>
          </Trackpoint>
          <Trackpoint>
            <Time>2021-08-11T13:05:39.000Z</Time>
            <Position>
              <LatitudeDegrees>43.30859136767685413360595703125</LatitudeDegrees>
              <LongitudeDegrees>-1.84557144530117511749267578125</LongitudeDegrees>
            </Position>
            <AltitudeMeters>168</AltitudeMeters>
            <DistanceMeters>NAN</DistanceMeters>
          </Trackpoint>
          <Trackpoint>
            <Time>2021-08-11T13:05:40.000Z</Time>
            <Position>
              <LatitudeDegrees>43.308581225574016571044921875</LatitudeDegrees>
              <LongitudeDegrees>-1.8456013686954975128173828125</LongitudeDegrees>
            </Position>
            <AltitudeMeters>168.1999969482421875</AltitudeMeters>
            <DistanceMeters>NAN</DistanceMeters>
          </Trackpoint>
          <Trackpoint>
            <Time>2021-08-11T13:05:41.000Z</Time>
            <Position>
              <LatitudeDegrees>43.308577202260494232177734375</LatitudeDegrees>
              <LongitudeDegrees>-1.84562274254858493804931640625</LongitudeDegrees>
            </Position>
            <AltitudeMeters>168.399993896484375</AltitudeMeters>
            <DistanceMeters>NAN</DistanceMeters>
          </Trackpoint>
          <Trackpoint>
            <Time>2021-08-11T13:05:42.000Z</Time>
            <Position>
              <LatitudeDegrees>43.308571167290210723876953125</LatitudeDegrees>
              <LongitudeDegrees>-1.845654509961605072021484375</LongitudeDegrees>
            </Position>
            <AltitudeMeters>168.600006103515625</AltitudeMeters>
            <DistanceMeters>NAN</DistanceMeters>
          </Trackpoint>
          <Trackpoint>
            <Time>2021-08-11T13:05:43.000Z</Time>
            <Position>
              <LatitudeDegrees>43.308565132319927215576171875</LatitudeDegrees>
              <LongitudeDegrees>-1.84567538090050220489501953125</LongitudeDegrees>
            </Position>
            <AltitudeMeters>168.600006103515625</AltitudeMeters>
            <DistanceMeters>NAN</DistanceMeters>
          </Trackpoint>
          <Trackpoint>
            <Time>2021-08-11T13:05:44.000Z</Time>
            <Position>
              <LatitudeDegrees>43.3085549063980579376220703125</LatitudeDegrees>
              <LongitudeDegrees>-1.845701448619365692138671875</LongitudeDegrees>
            </Position>
            <AltitudeMeters>168.600006103515625</AltitudeMeters>
            <DistanceMeters>NAN</DistanceMeters>
          </Trackpoint>
          <Trackpoint>
            <Time>2021-08-11T13:05:45.000Z</Time>
            <Position>
              <LatitudeDegrees>43.30854526720941066741943359375</LatitudeDegrees>
              <LongitudeDegrees>-1.845729611814022064208984375</LongitudeDegrees>
            </Position>
            <AltitudeMeters>168.8000030517578125</AltitudeMeters>
            <DistanceMeters>NAN</DistanceMeters>
          </Trackpoint>
          <Trackpoint>
            <Time>2021-08-11T13:05:46.000Z</Time>
            <Position>
              <LatitudeDegrees>43.30853487364947795867919921875</LatitudeDegrees>
              <LongitudeDegrees>-1.84575249440968036651611328125</LongitudeDegrees>
            </Position>
            <AltitudeMeters>168.8000030517578125</AltitudeMeters>
            <DistanceMeters>NAN</DistanceMeters>
          </Trackpoint>
          <Trackpoint>
            <Time>2021-08-11T13:05:47.000Z</Time>
            <Position>
              <LatitudeDegrees>43.30852732993662357330322265625</LatitudeDegrees>
              <LongitudeDegrees>-1.8457713536918163299560546875</LongitudeDegrees>
            </Position>
            <AltitudeMeters>168.8000030517578125</AltitudeMeters>
            <DistanceMeters>NAN</DistanceMeters>
          </Trackpoint>
          <Trackpoint>
            <Time>2021-08-11T13:05:48.000Z</Time>
            <Position>
              <LatitudeDegrees>43.30851844511926174163818359375</LatitudeDegrees>
              <LongitudeDegrees>-1.8457934819161891937255859375</LongitudeDegrees>
            </Position>
            <AltitudeMeters>169</AltitudeMeters>
            <DistanceMeters>NAN</DistanceMeters>
          </Trackpoint>
          <Trackpoint>
            <Time>2021-08-11T13:05:49.000Z</Time>
            <Position>
              <LatitudeDegrees>43.308511488139629364013671875</LatitudeDegrees>
              <LongitudeDegrees>-1.84581100009381771087646484375</LongitudeDegrees>
            </Position>
            <AltitudeMeters>169</AltitudeMeters>
            <DistanceMeters>NAN</DistanceMeters>
          </Trackpoint>
          <Trackpoint>
            <Time>2021-08-11T13:05:50.000Z</Time>
            <Position>
              <LatitudeDegrees>43.30849480815231800079345703125</LatitudeDegrees>
              <LongitudeDegrees>-1.84584368951618671417236328125</LongitudeDegrees>
            </Position>
            <AltitudeMeters>169.1999969482421875</AltitudeMeters>
            <DistanceMeters>NAN</DistanceMeters>
          </Trackpoint>
          <Trackpoint>
            <Time>2021-08-11T13:05:51.000Z</Time>
            <Position>
              <LatitudeDegrees>43.30847754143178462982177734375</LatitudeDegrees>
              <LongitudeDegrees>-1.845873780548572540283203125</LongitudeDegrees>
            </Position>
            <AltitudeMeters>169.1999969482421875</AltitudeMeters>
            <DistanceMeters>NAN</DistanceMeters>
          </Trackpoint>
          <Trackpoint>
            <Time>2021-08-11T13:05:52.000Z</Time>
            <Position>
              <LatitudeDegrees>43.30846077762544155120849609375</LatitudeDegrees>
              <LongitudeDegrees>-1.8459044583141803741455078125</LongitudeDegrees>
            </Position>
            <AltitudeMeters>169.1999969482421875</AltitudeMeters>
            <DistanceMeters>NAN</DistanceMeters>
          </Trackpoint>
          <Trackpoint>
            <Time>2021-08-11T13:05:53.000Z</Time>
            <Position>
              <LatitudeDegrees>43.30844250507652759552001953125</LatitudeDegrees>
              <LongitudeDegrees>-1.845931448042392730712890625</LongitudeDegrees>
            </Position>
            <AltitudeMeters>169.1999969482421875</AltitudeMeters>
            <DistanceMeters>NAN</DistanceMeters>
          </Trackpoint>
          <Trackpoint>
            <Time>2021-08-11T13:05:54.000Z</Time>
            <Position>
              <LatitudeDegrees>43.3084191195666790008544921875</LatitudeDegrees>
              <LongitudeDegrees>-1.84596019797027111053466796875</LongitudeDegrees>
            </Position>
            <AltitudeMeters>169.399993896484375</AltitudeMeters>
            <DistanceMeters>NAN</DistanceMeters>
          </Trackpoint>
          <Trackpoint>
            <Time>2021-08-11T13:05:55.000Z</Time>
            <Position>
              <LatitudeDegrees>43.3083939738571643829345703125</LatitudeDegrees>
              <LongitudeDegrees>-1.84598945081233978271484375</LongitudeDegrees>
            </Position>
            <AltitudeMeters>169.399993896484375</AltitudeMeters>
            <DistanceMeters>NAN</DistanceMeters>
          </Trackpoint>
          <Trackpoint>
            <Time>2021-08-11T13:05:56.000Z</Time>
            <Position>
              <LatitudeDegrees>43.30836857669055461883544921875</LatitudeDegrees>
              <LongitudeDegrees>-1.84601384215056896209716796875</LongitudeDegrees>
            </Position>
            <AltitudeMeters>169.399993896484375</AltitudeMeters>
            <DistanceMeters>NAN</DistanceMeters>
          </Trackpoint>
          <Trackpoint>
            <Time>2021-08-11T13:05:57.000Z</Time>
            <Position>
              <LatitudeDegrees>43.308339826762676239013671875</LatitudeDegrees>
              <LongitudeDegrees>-1.84604309499263763427734375</LongitudeDegrees>
            </Position>
            <AltitudeMeters>169.399993896484375</AltitudeMeters>
            <DistanceMeters>NAN</DistanceMeters>
          </Trackpoint>
          <Trackpoint>
            <Time>2021-08-11T13:05:58.000Z</Time>
            <Position>
              <LatitudeDegrees>43.3083088137209415435791015625</LatitudeDegrees>
              <LongitudeDegrees>-1.8460700847208499908447265625</LongitudeDegrees>
            </Position>
            <AltitudeMeters>169.399993896484375</AltitudeMeters>
            <DistanceMeters>NAN</DistanceMeters>
          </Trackpoint>
          <Trackpoint>
            <Time>2021-08-11T13:06:00.000Z</Time>
            <Position>
              <LatitudeDegrees>43.3082387410104274749755859375</LatitudeDegrees>
              <LongitudeDegrees>-1.84612431563436985015869140625</LongitudeDegrees>
            </Position>
            <AltitudeMeters>169.1999969482421875</AltitudeMeters>
            <DistanceMeters>NAN</DistanceMeters>
          </Trackpoint>
          <Trackpoint>
            <Time>2021-08-11T13:06:02.000Z</Time>
            <Position>
              <LatitudeDegrees>43.308169841766357421875</LatitudeDegrees>
              <LongitudeDegrees>-1.84618256986141204833984375</LongitudeDegrees>
            </Position>
            <AltitudeMeters>169</AltitudeMeters>
            <DistanceMeters>NAN</DistanceMeters>
          </Trackpoint>
          <Trackpoint>
            <Time>2021-08-11T13:06:07.000Z</Time>
            <Position>
              <LatitudeDegrees>43.3079914748668670654296875</LatitudeDegrees>
              <LongitudeDegrees>-1.84632279910147190093994140625</LongitudeDegrees>
            </Position>
            <AltitudeMeters>168.399993896484375</AltitudeMeters>
            <DistanceMeters>NAN</DistanceMeters>
          </Trackpoint>
          <Trackpoint>
            <Time>2021-08-11T13:06:09.000Z</Time>
            <Position>
              <LatitudeDegrees>43.3079158701002597808837890625</LatitudeDegrees>
              <LongitudeDegrees>-1.8463805504143238067626953125</LongitudeDegrees>
            </Position>
            <AltitudeMeters>168.1999969482421875</AltitudeMeters>
            <DistanceMeters>NAN</DistanceMeters>
          </Trackpoint>
          <Trackpoint>
            <Time>2021-08-11T13:06:13.000Z</Time>
            <Position>
              <LatitudeDegrees>43.30775435082614421844482421875</LatitudeDegrees>
              <LongitudeDegrees>-1.8465166725218296051025390625</LongitudeDegrees>
            </Position>
            <AltitudeMeters>167.8000030517578125</AltitudeMeters>
            <DistanceMeters>NAN</DistanceMeters>
          </Trackpoint>
          <Trackpoint>
            <Time>2021-08-11T13:06:14.000Z</Time>
            <Position>
              <LatitudeDegrees>43.30771093256771564483642578125</LatitudeDegrees>
              <LongitudeDegrees>-1.84655196033418178558349609375</LongitudeDegrees>
            </Position>
            <AltitudeMeters>167.8000030517578125</AltitudeMeters>
            <DistanceMeters>NAN</DistanceMeters>
          </Trackpoint>
          <Trackpoint>
            <Time>2021-08-11T13:06:17.000Z</Time>
            <Position>
              <LatitudeDegrees>43.3075681887567043304443359375</LatitudeDegrees>
              <LongitudeDegrees>-1.84664927423000335693359375</LongitudeDegrees>
            </Position>
            <AltitudeMeters>167.1999969482421875</AltitudeMeters>
            <DistanceMeters>NAN</DistanceMeters>
          </Trackpoint>
          <Trackpoint>
            <Time>2021-08-11T13:06:21.000Z</Time>
            <Position>
              <LatitudeDegrees>43.30735302530229091644287109375</LatitudeDegrees>
              <LongitudeDegrees>-1.8467661179602146148681640625</LongitudeDegrees>
            </Position>
            <AltitudeMeters>166.600006103515625</AltitudeMeters>
            <DistanceMeters>NAN</DistanceMeters>
          </Trackpoint>
          <Trackpoint>
            <Time>2021-08-11T13:06:22.000Z</Time>
            <Position>
              <LatitudeDegrees>43.3072860538959503173828125</LatitudeDegrees>
              <LongitudeDegrees>-1.84680006466805934906005859375</LongitudeDegrees>
            </Position>
            <AltitudeMeters>166.1999969482421875</AltitudeMeters>
            <DistanceMeters>NAN</DistanceMeters>
          </Trackpoint>
          <Trackpoint>
            <Time>2021-08-11T13:06:25.000Z</Time>
            <Position>
              <LatitudeDegrees>43.30708731897175312042236328125</LatitudeDegrees>
              <LongitudeDegrees>-1.84689226560294628143310546875</LongitudeDegrees>
            </Position>
            <AltitudeMeters>165</AltitudeMeters>
            <DistanceMeters>NAN</DistanceMeters>
          </Trackpoint>
          <Trackpoint>
            <Time>2021-08-11T13:06:26.000Z</Time>
            <Position>
              <LatitudeDegrees>43.307021521031856536865234375</LatitudeDegrees>
              <LongitudeDegrees>-1.84691975824534893035888671875</LongitudeDegrees>
            </Position>
            <AltitudeMeters>164.1999969482421875</AltitudeMeters>
            <DistanceMeters>NAN</DistanceMeters>
          </Trackpoint>
          <Trackpoint>
            <Time>2021-08-11T13:06:27.000Z</Time>
            <Position>
              <LatitudeDegrees>43.3069606684148311614990234375</LatitudeDegrees>
              <LongitudeDegrees>-1.84694322757422924041748046875</LongitudeDegrees>
            </Position>
            <AltitudeMeters>163.8000030517578125</AltitudeMeters>
            <DistanceMeters>NAN</DistanceMeters>
          </Trackpoint>
          <Trackpoint>
            <Time>2021-08-11T13:06:28.000Z</Time>
            <Position>
              <LatitudeDegrees>43.30690006725490093231201171875</LatitudeDegrees>
              <LongitudeDegrees>-1.84697516262531280517578125</LongitudeDegrees>
            </Position>
            <AltitudeMeters>163.600006103515625</AltitudeMeters>
            <DistanceMeters>NAN</DistanceMeters>
          </Trackpoint>
          <Trackpoint>
            <Time>2021-08-11T13:06:33.000Z</Time>
            <Position>
              <LatitudeDegrees>43.3065975643694400787353515625</LatitudeDegrees>
              <LongitudeDegrees>-1.8471355922520160675048828125</LongitudeDegrees>
            </Position>
            <AltitudeMeters>162.600006103515625</AltitudeMeters>
            <DistanceMeters>NAN</DistanceMeters>
          </Trackpoint>
          <Trackpoint>
            <Time>2021-08-11T13:06:36.000Z</Time>
            <Position>
              <LatitudeDegrees>43.30641827546060085296630859375</LatitudeDegrees>
              <LongitudeDegrees>-1.84722921811044216156005859375</LongitudeDegrees>
            </Position>
            <AltitudeMeters>162</AltitudeMeters>
            <DistanceMeters>NAN</DistanceMeters>
          </Trackpoint>
          <Trackpoint>
            <Time>2021-08-11T13:06:38.000Z</Time>
            <Position>
              <LatitudeDegrees>43.30630361102521419525146484375</LatitudeDegrees>
              <LongitudeDegrees>-1.84727959334850311279296875</LongitudeDegrees>
            </Position>
            <AltitudeMeters>161.8000030517578125</AltitudeMeters>
            <DistanceMeters>NAN</DistanceMeters>
          </Trackpoint>
          <Trackpoint>
            <Time>2021-08-11T13:06:39.000Z</Time>
            <Position>
              <LatitudeDegrees>43.30624326132237911224365234375</LatitudeDegrees>
              <LongitudeDegrees>-1.847304739058017730712890625</LongitudeDegrees>
            </Position>
            <AltitudeMeters>161.600006103515625</AltitudeMeters>
            <DistanceMeters>NAN</DistanceMeters>
          </Trackpoint>
          <Trackpoint>
            <Time>2021-08-11T13:06:42.000Z</Time>
            <Position>
              <LatitudeDegrees>43.3060490526258945465087890625</LatitudeDegrees>
              <LongitudeDegrees>-1.84741462580859661102294921875</LongitudeDegrees>
            </Position>
            <AltitudeMeters>161</AltitudeMeters>
            <DistanceMeters>NAN</DistanceMeters>
          </Trackpoint>
          <Trackpoint>
            <Time>2021-08-11T13:06:43.000Z</Time>
            <Position>
              <LatitudeDegrees>43.30598442815244197845458984375</LatitudeDegrees>
              <LongitudeDegrees>-1.84746843762695789337158203125</LongitudeDegrees>
            </Position>
            <AltitudeMeters>160.600006103515625</AltitudeMeters>
            <DistanceMeters>NAN</DistanceMeters>
          </Trackpoint>
          <Trackpoint>
            <Time>2021-08-11T13:06:46.000Z</Time>
            <Position>
              <LatitudeDegrees>43.305805809795856475830078125</LatitudeDegrees>
              <LongitudeDegrees>-1.8476757220923900604248046875</LongitudeDegrees>
            </Position>
            <AltitudeMeters>159.8000030517578125</AltitudeMeters>
            <DistanceMeters>NAN</DistanceMeters>
          </Trackpoint>
          <Trackpoint>
            <Time>2021-08-11T13:06:47.000Z</Time>
            <Position>
              <LatitudeDegrees>43.30574722029268741607666015625</LatitudeDegrees>
              <LongitudeDegrees>-1.8477558530867099761962890625</LongitudeDegrees>
            </Position>
            <AltitudeMeters>159.1999969482421875</AltitudeMeters>
            <DistanceMeters>NAN</DistanceMeters>
          </Trackpoint>
          <Trackpoint>
            <Time>2021-08-11T13:06:48.000Z</Time>
            <Position>
              <LatitudeDegrees>43.30569273792207241058349609375</LatitudeDegrees>
              <LongitudeDegrees>-1.84783372096717357635498046875</LongitudeDegrees>
            </Position>
            <AltitudeMeters>159</AltitudeMeters>
            <DistanceMeters>NAN</DistanceMeters>
          </Trackpoint>
          <Trackpoint>
            <Time>2021-08-11T13:06:50.000Z</Time>
            <Position>
              <LatitudeDegrees>43.30558712594211101531982421875</LatitudeDegrees>
              <LongitudeDegrees>-1.8479932285845279693603515625</LongitudeDegrees>
            </Position>
            <AltitudeMeters>157.8000030517578125</AltitudeMeters>
            <DistanceMeters>NAN</DistanceMeters>
          </Trackpoint>
          <Trackpoint>
            <Time>2021-08-11T13:06:53.000Z</Time>
            <Position>
              <LatitudeDegrees>43.3054297976195812225341796875</LatitudeDegrees>
              <LongitudeDegrees>-1.848263628780841827392578125</LongitudeDegrees>
            </Position>
            <AltitudeMeters>156.600006103515625</AltitudeMeters>
            <DistanceMeters>NAN</DistanceMeters>
          </Trackpoint>
          <Trackpoint>
            <Time>2021-08-11T13:06:55.000Z</Time>
            <Position>
              <LatitudeDegrees>43.3053307235240936279296875</LatitudeDegrees>
              <LongitudeDegrees>-1.8484642915427684783935546875</LongitudeDegrees>
            </Position>
            <AltitudeMeters>155.399993896484375</AltitudeMeters>
            <DistanceMeters>NAN</DistanceMeters>
          </Trackpoint>
          <Trackpoint>
            <Time>2021-08-11T13:06:57.000Z</Time>
            <Position>
              <LatitudeDegrees>43.305231146514415740966796875</LatitudeDegrees>
              <LongitudeDegrees>-1.8486738391220569610595703125</LongitudeDegrees>
            </Position>
            <AltitudeMeters>154.1999969482421875</AltitudeMeters>
            <DistanceMeters>NAN</DistanceMeters>
          </Trackpoint>
          <Trackpoint>
            <Time>2021-08-11T13:06:59.000Z</Time>
            <Position>
              <LatitudeDegrees>43.30513425171375274658203125</LatitudeDegrees>
              <LongitudeDegrees>-1.84888447634875774383544921875</LongitudeDegrees>
            </Position>
            <AltitudeMeters>152.600006103515625</AltitudeMeters>
            <DistanceMeters>NAN</DistanceMeters>
          </Trackpoint>
          <Trackpoint>
            <Time>2021-08-11T13:07:01.000Z</Time>
            <Position>
              <LatitudeDegrees>43.305035345256328582763671875</LatitudeDegrees>
              <LongitudeDegrees>-1.84909285046160221099853515625</LongitudeDegrees>
            </Position>
            <AltitudeMeters>151.8000030517578125</AltitudeMeters>
            <DistanceMeters>NAN</DistanceMeters>
          </Trackpoint>
          <Trackpoint>
            <Time>2021-08-11T13:07:03.000Z</Time>
            <Position>
              <LatitudeDegrees>43.30493501387536525726318359375</LatitudeDegrees>
              <LongitudeDegrees>-1.84929435141384601593017578125</LongitudeDegrees>
            </Position>
            <AltitudeMeters>150.399993896484375</AltitudeMeters>
            <DistanceMeters>NAN</DistanceMeters>
          </Trackpoint>
          <Trackpoint>
            <Time>2021-08-11T13:07:05.000Z</Time>
            <Position>
              <LatitudeDegrees>43.304816745221614837646484375</LatitudeDegrees>
              <LongitudeDegrees>-1.84950054623186588287353515625</LongitudeDegrees>
            </Position>
            <AltitudeMeters>149.1999969482421875</AltitudeMeters>
            <DistanceMeters>NAN</DistanceMeters>
          </Trackpoint>
          <Trackpoint>
            <Time>2021-08-11T13:07:06.000Z</Time>
            <Position>
              <LatitudeDegrees>43.304744325578212738037109375</LatitudeDegrees>
              <LongitudeDegrees>-1.84959727339446544647216796875</LongitudeDegrees>
            </Position>
            <AltitudeMeters>148.399993896484375</AltitudeMeters>
            <DistanceMeters>NAN</DistanceMeters>
          </Trackpoint>
          <Trackpoint>
            <Time>2021-08-11T13:07:07.000Z</Time>
            <Position>
              <LatitudeDegrees>43.30465790815651416778564453125</LatitudeDegrees>
              <LongitudeDegrees>-1.84968209825456142425537109375</LongitudeDegrees>
            </Position>
            <AltitudeMeters>148</AltitudeMeters>
            <DistanceMeters>NAN</DistanceMeters>
          </Trackpoint>
          <Trackpoint>
            <Time>2021-08-11T13:07:08.000Z</Time>
            <Position>
              <LatitudeDegrees>43.304565288126468658447265625</LatitudeDegrees>
              <LongitudeDegrees>-1.84975652955472469329833984375</LongitudeDegrees>
            </Position>
            <AltitudeMeters>147</AltitudeMeters>
            <DistanceMeters>NAN</DistanceMeters>
          </Trackpoint>
          <Trackpoint>
            <Time>2021-08-11T13:07:09.000Z</Time>
            <Position>
              <LatitudeDegrees>43.304468058049678802490234375</LatitudeDegrees>
              <LongitudeDegrees>-1.84982157312333583831787109375</LongitudeDegrees>
            </Position>
            <AltitudeMeters>146.600006103515625</AltitudeMeters>
            <DistanceMeters>NAN</DistanceMeters>
          </Trackpoint>
          <Trackpoint>
            <Time>2021-08-11T13:07:10.000Z</Time>
            <Position>
              <LatitudeDegrees>43.30436789430677890777587890625</LatitudeDegrees>
              <LongitudeDegrees>-1.84988745488226413726806640625</LongitudeDegrees>
            </Position>
            <AltitudeMeters>145.399993896484375</AltitudeMeters>
            <DistanceMeters>NAN</DistanceMeters>
          </Trackpoint>
          <Trackpoint>
            <Time>2021-08-11T13:07:11.000Z</Time>
            <Position>
              <LatitudeDegrees>43.30426412634551525115966796875</LatitudeDegrees>
              <LongitudeDegrees>-1.84995400719344615936279296875</LongitudeDegrees>
            </Position>
            <AltitudeMeters>144.1999969482421875</AltitudeMeters>
            <DistanceMeters>NAN</DistanceMeters>
          </Trackpoint>
          <Trackpoint>
            <Time>2021-08-11T13:07:13.000Z</Time>
            <Position>
              <LatitudeDegrees>43.30405239947140216827392578125</LatitudeDegrees>
              <LongitudeDegrees>-1.85008979402482509613037109375</LongitudeDegrees>
            </Position>
            <AltitudeMeters>142.600006103515625</AltitudeMeters>
            <DistanceMeters>NAN</DistanceMeters>
          </Trackpoint>
          <Trackpoint>
            <Time>2021-08-11T13:07:14.000Z</Time>
            <Position>
              <LatitudeDegrees>43.3039525710046291351318359375</LatitudeDegrees>
              <LongitudeDegrees>-1.85015534050762653350830078125</LongitudeDegrees>
            </Position>
            <AltitudeMeters>142</AltitudeMeters>
            <DistanceMeters>NAN</DistanceMeters>
          </Trackpoint>
          <Trackpoint>
            <Time>2021-08-11T13:07:15.000Z</Time>
            <Position>
              <LatitudeDegrees>43.30385391600430011749267578125</LatitudeDegrees>
              <LongitudeDegrees>-1.85022423975169658660888671875</LongitudeDegrees>
            </Position>
            <AltitudeMeters>141</AltitudeMeters>
            <DistanceMeters>NAN</DistanceMeters>
          </Trackpoint>
          <Trackpoint>
            <Time>2021-08-11T13:07:16.000Z</Time>
            <Position>
              <LatitudeDegrees>43.30375961959362030029296875</LatitudeDegrees>
              <LongitudeDegrees>-1.85029297135770320892333984375</LongitudeDegrees>
            </Position>
            <AltitudeMeters>140.399993896484375</AltitudeMeters>
            <DistanceMeters>NAN</DistanceMeters>
          </Trackpoint>
          <Trackpoint>
            <Time>2021-08-11T13:07:17.000Z</Time>
            <Position>
              <LatitudeDegrees>43.30366917885839939117431640625</LatitudeDegrees>
              <LongitudeDegrees>-1.850366480648517608642578125</LongitudeDegrees>
            </Position>
            <AltitudeMeters>139.600006103515625</AltitudeMeters>
            <DistanceMeters>NAN</DistanceMeters>
          </Trackpoint>
          <Trackpoint>
            <Time>2021-08-11T13:07:18.000Z</Time>
            <Position>
              <LatitudeDegrees>43.30358301289379596710205078125</LatitudeDegrees>
              <LongitudeDegrees>-1.8504437617957592010498046875</LongitudeDegrees>
            </Position>
            <AltitudeMeters>138.600006103515625</AltitudeMeters>
            <DistanceMeters>NAN</DistanceMeters>
          </Trackpoint>
          <Trackpoint>
            <Time>2021-08-11T13:07:19.000Z</Time>
            <Position>
              <LatitudeDegrees>43.3035079948604106903076171875</LatitudeDegrees>
              <LongitudeDegrees>-1.8505245633423328399658203125</LongitudeDegrees>
            </Position>
            <AltitudeMeters>138.399993896484375</AltitudeMeters>
            <DistanceMeters>NAN</DistanceMeters>
          </Trackpoint>
          <Trackpoint>
            <Time>2021-08-11T13:07:20.000Z</Time>
            <Position>
              <LatitudeDegrees>43.3034432865679264068603515625</LatitudeDegrees>
              <LongitudeDegrees>-1.85061718337237834930419921875</LongitudeDegrees>
            </Position>
            <AltitudeMeters>137.8000030517578125</AltitudeMeters>
            <DistanceMeters>NAN</DistanceMeters>
          </Trackpoint>
          <Trackpoint>
            <Time>2021-08-11T13:07:21.000Z</Time>
            <Position>
              <LatitudeDegrees>43.30339089967310428619384765625</LatitudeDegrees>
              <LongitudeDegrees>-1.850720532238483428955078125</LongitudeDegrees>
            </Position>
            <AltitudeMeters>137.399993896484375</AltitudeMeters>
            <DistanceMeters>NAN</DistanceMeters>
          </Trackpoint>
          <Trackpoint>
            <Time>2021-08-11T13:07:22.000Z</Time>
            <Position>
              <LatitudeDegrees>43.30334790050983428955078125</LatitudeDegrees>
              <LongitudeDegrees>-1.85083008371293544769287109375</LongitudeDegrees>
            </Position>
            <AltitudeMeters>136.600006103515625</AltitudeMeters>
            <DistanceMeters>NAN</DistanceMeters>
          </Trackpoint>
          <Trackpoint>
            <Time>2021-08-11T13:07:23.000Z</Time>
            <Position>
              <LatitudeDegrees>43.30331009812653064727783203125</LatitudeDegrees>
              <LongitudeDegrees>-1.850951872766017913818359375</LongitudeDegrees>
            </Position>
            <AltitudeMeters>136.399993896484375</AltitudeMeters>
            <DistanceMeters>NAN</DistanceMeters>
          </Trackpoint>
          <Trackpoint>
            <Time>2021-08-11T13:07:24.000Z</Time>
            <Position>
              <LatitudeDegrees>43.30328109674155712127685546875</LatitudeDegrees>
              <LongitudeDegrees>-1.851075924932956695556640625</LongitudeDegrees>
            </Position>
            <AltitudeMeters>135.399993896484375</AltitudeMeters>
            <DistanceMeters>NAN</DistanceMeters>
          </Trackpoint>
          <Trackpoint>
            <Time>2021-08-11T13:07:25.000Z</Time>
            <Position>
              <LatitudeDegrees>43.303259052336215972900390625</LatitudeDegrees>
              <LongitudeDegrees>-1.8512003123760223388671875</LongitudeDegrees>
            </Position>
            <AltitudeMeters>134.600006103515625</AltitudeMeters>
            <DistanceMeters>NAN</DistanceMeters>
          </Trackpoint>
          <Trackpoint>
            <Time>2021-08-11T13:07:26.000Z</Time>
            <Position>
              <LatitudeDegrees>43.3032386004924774169921875</LatitudeDegrees>
              <LongitudeDegrees>-1.85132897458970546722412109375</LongitudeDegrees>
            </Position>
            <AltitudeMeters>134</AltitudeMeters>
            <DistanceMeters>NAN</DistanceMeters>
          </Trackpoint>
          <Trackpoint>
            <Time>2021-08-11T13:07:27.000Z</Time>
            <Position>
              <LatitudeDegrees>43.303224183619022369384765625</LatitudeDegrees>
              <LongitudeDegrees>-1.8514593131840229034423828125</LongitudeDegrees>
            </Position>
            <AltitudeMeters>133</AltitudeMeters>
            <DistanceMeters>NAN</DistanceMeters>
          </Trackpoint>
          <Trackpoint>
            <Time>2021-08-11T13:07:28.000Z</Time>
            <Position>
              <LatitudeDegrees>43.30322041176259517669677734375</LatitudeDegrees>
              <LongitudeDegrees>-1.85158998705446720123291015625</LongitudeDegrees>
            </Position>
            <AltitudeMeters>132.399993896484375</AltitudeMeters>
            <DistanceMeters>NAN</DistanceMeters>
          </Trackpoint>
          <Trackpoint>
            <Time>2021-08-11T13:07:30.000Z</Time>
            <Position>
              <LatitudeDegrees>43.30323080532252788543701171875</LatitudeDegrees>
              <LongitudeDegrees>-1.85185451991856098175048828125</LongitudeDegrees>
            </Position>
            <AltitudeMeters>130.600006103515625</AltitudeMeters>
            <DistanceMeters>NAN</DistanceMeters>
          </Trackpoint>
          <Trackpoint>
            <Time>2021-08-11T13:07:31.000Z</Time>
            <Position>
              <LatitudeDegrees>43.30322460271418094635009765625</LatitudeDegrees>
              <LongitudeDegrees>-1.85198309831321239471435546875</LongitudeDegrees>
            </Position>
            <AltitudeMeters>129.600006103515625</AltitudeMeters>
            <DistanceMeters>NAN</DistanceMeters>
          </Trackpoint>
          <Trackpoint>
            <Time>2021-08-11T13:07:33.000Z</Time>
            <Position>
              <LatitudeDegrees>43.30316953361034393310546875</LatitudeDegrees>
              <LongitudeDegrees>-1.85221946798264980316162109375</LongitudeDegrees>
            </Position>
            <AltitudeMeters>127.40000152587890625</AltitudeMeters>
            <DistanceMeters>NAN</DistanceMeters>
          </Trackpoint>
          <Trackpoint>
            <Time>2021-08-11T13:07:34.000Z</Time>
            <Position>
              <LatitudeDegrees>43.303119242191314697265625</LatitudeDegrees>
              <LongitudeDegrees>-1.852332539856433868408203125</LongitudeDegrees>
            </Position>
            <AltitudeMeters>126.1999969482421875</AltitudeMeters>
            <DistanceMeters>NAN</DistanceMeters>
          </Trackpoint>
          <Trackpoint>
            <Time>2021-08-11T13:07:35.000Z</Time>
            <Position>
              <LatitudeDegrees>43.3030459843575954437255859375</LatitudeDegrees>
              <LongitudeDegrees>-1.85243639163672924041748046875</LongitudeDegrees>
            </Position>
            <AltitudeMeters>125.40000152587890625</AltitudeMeters>
            <DistanceMeters>NAN</DistanceMeters>
          </Trackpoint>
          <Trackpoint>
            <Time>2021-08-11T13:07:36.000Z</Time>
            <Position>
              <LatitudeDegrees>43.30294934101402759552001953125</LatitudeDegrees>
              <LongitudeDegrees>-1.8525275029242038726806640625</LongitudeDegrees>
            </Position>
            <AltitudeMeters>123.59999847412109375</AltitudeMeters>
            <DistanceMeters>NAN</DistanceMeters>
          </Trackpoint>
          <Trackpoint>
            <Time>2021-08-11T13:07:37.000Z</Time>
            <Position>
              <LatitudeDegrees>43.302850686013698577880859375</LatitudeDegrees>
              <LongitudeDegrees>-1.8525972403585910797119140625</LongitudeDegrees>
            </Position>
            <AltitudeMeters>123</AltitudeMeters>
            <DistanceMeters>NAN</DistanceMeters>
          </Trackpoint>
          <Trackpoint>
            <Time>2021-08-11T13:07:38.000Z</Time>
            <Position>
              <LatitudeDegrees>43.30274431966245174407958984375</LatitudeDegrees>
              <LongitudeDegrees>-1.85264711268246173858642578125</LongitudeDegrees>
            </Position>
            <AltitudeMeters>121.8000030517578125</AltitudeMeters>
            <DistanceMeters>NAN</DistanceMeters>
          </Trackpoint>
          <Trackpoint>
            <Time>2021-08-11T13:07:39.000Z</Time>
            <Position>
              <LatitudeDegrees>43.30263367854058742523193359375</LatitudeDegrees>
              <LongitudeDegrees>-1.8526840768754482269287109375</LongitudeDegrees>
            </Position>
            <AltitudeMeters>121.40000152587890625</AltitudeMeters>
            <DistanceMeters>NAN</DistanceMeters>
          </Trackpoint>
          <Trackpoint>
            <Time>2021-08-11T13:07:40.000Z</Time>
            <Position>
              <LatitudeDegrees>43.302512727677822113037109375</LatitudeDegrees>
              <LongitudeDegrees>-1.852709390223026275634765625</LongitudeDegrees>
            </Position>
            <AltitudeMeters>120.1999969482421875</AltitudeMeters>
            <DistanceMeters>NAN</DistanceMeters>
          </Trackpoint>
          <Trackpoint>
            <Time>2021-08-11T13:07:41.000Z</Time>
            <Position>
              <LatitudeDegrees>43.3023989014327526092529296875</LatitudeDegrees>
              <LongitudeDegrees>-1.85272472910583019256591796875</LongitudeDegrees>
            </Position>
            <AltitudeMeters>119</AltitudeMeters>
            <DistanceMeters>NAN</DistanceMeters>
          </Trackpoint>
          <Trackpoint>
            <Time>2021-08-11T13:07:43.000Z</Time>
            <Position>
              <LatitudeDegrees>43.30218206159770488739013671875</LatitudeDegrees>
              <LongitudeDegrees>-1.85273026116192340850830078125</LongitudeDegrees>
            </Position>
            <AltitudeMeters>117.59999847412109375</AltitudeMeters>
            <DistanceMeters>NAN</DistanceMeters>
          </Trackpoint>
          <Trackpoint>
            <Time>2021-08-11T13:07:44.000Z</Time>
            <Position>
              <LatitudeDegrees>43.30208265222609043121337890625</LatitudeDegrees>
              <LongitudeDegrees>-1.85273193754255771636962890625</LongitudeDegrees>
            </Position>
            <AltitudeMeters>117</AltitudeMeters>
            <DistanceMeters>NAN</DistanceMeters>
          </Trackpoint>
          <Trackpoint>
            <Time>2021-08-11T13:07:45.000Z</Time>
            <Position>
              <LatitudeDegrees>43.301988355815410614013671875</LatitudeDegrees>
              <LongitudeDegrees>-1.85274065472185611724853515625</LongitudeDegrees>
            </Position>
            <AltitudeMeters>116.40000152587890625</AltitudeMeters>
            <DistanceMeters>NAN</DistanceMeters>
          </Trackpoint>
          <Trackpoint>
            <Time>2021-08-11T13:07:46.000Z</Time>
            <Position>
              <LatitudeDegrees>43.30189950764179229736328125</LatitudeDegrees>
              <LongitudeDegrees>-1.852752305567264556884765625</LongitudeDegrees>
            </Position>
            <AltitudeMeters>116.1999969482421875</AltitudeMeters>
            <DistanceMeters>NAN</DistanceMeters>
          </Trackpoint>
          <Trackpoint>
            <Time>2021-08-11T13:07:47.000Z</Time>
            <Position>
              <LatitudeDegrees>43.3018143475055694580078125</LatitudeDegrees>
              <LongitudeDegrees>-1.85277250595390796661376953125</LongitudeDegrees>
            </Position>
            <AltitudeMeters>116</AltitudeMeters>
            <DistanceMeters>NAN</DistanceMeters>
          </Trackpoint>
          <Trackpoint>
            <Time>2021-08-11T13:07:48.000Z</Time>
            <Position>
              <LatitudeDegrees>43.30173497088253498077392578125</LatitudeDegrees>
              <LongitudeDegrees>-1.85279211960732936859130859375</LongitudeDegrees>
            </Position>
            <AltitudeMeters>115.59999847412109375</AltitudeMeters>
            <DistanceMeters>NAN</DistanceMeters>
          </Trackpoint>
          <Trackpoint>
            <Time>2021-08-11T13:07:49.000Z</Time>
            <Position>
              <LatitudeDegrees>43.301659114658832550048828125</LatitudeDegrees>
              <LongitudeDegrees>-1.852814666926860809326171875</LongitudeDegrees>
            </Position>
            <AltitudeMeters>115.59999847412109375</AltitudeMeters>
            <DistanceMeters>NAN</DistanceMeters>
          </Trackpoint>
          <Trackpoint>
            <Time>2021-08-11T13:07:50.000Z</Time>
            <Position>
              <LatitudeDegrees>43.30158242024481296539306640625</LatitudeDegrees>
              <LongitudeDegrees>-1.85283989645540714263916015625</LongitudeDegrees>
            </Position>
            <AltitudeMeters>115.59999847412109375</AltitudeMeters>
            <DistanceMeters>NAN</DistanceMeters>
          </Trackpoint>
          <Trackpoint>
            <Time>2021-08-11T13:07:51.000Z</Time>
            <Position>
              <LatitudeDegrees>43.3015040494501590728759765625</LatitudeDegrees>
              <LongitudeDegrees>-1.8528657965362071990966796875</LongitudeDegrees>
            </Position>
            <AltitudeMeters>115.40000152587890625</AltitudeMeters>
            <DistanceMeters>NAN</DistanceMeters>
          </Trackpoint>
          <Trackpoint>
            <Time>2021-08-11T13:07:52.000Z</Time>
            <Position>
              <LatitudeDegrees>43.30142400227487087249755859375</LatitudeDegrees>
              <LongitudeDegrees>-1.8528922833502292633056640625</LongitudeDegrees>
            </Position>
            <AltitudeMeters>115.40000152587890625</AltitudeMeters>
            <DistanceMeters>NAN</DistanceMeters>
          </Trackpoint>
          <Trackpoint>
            <Time>2021-08-11T13:07:53.000Z</Time>
            <Position>
              <LatitudeDegrees>43.3013422787189483642578125</LatitudeDegrees>
              <LongitudeDegrees>-1.85291935689747333526611328125</LongitudeDegrees>
            </Position>
            <AltitudeMeters>115.1999969482421875</AltitudeMeters>
            <DistanceMeters>NAN</DistanceMeters>
          </Trackpoint>
          <Trackpoint>
            <Time>2021-08-11T13:07:54.000Z</Time>
            <Position>
              <LatitudeDegrees>43.301260136067867279052734375</LatitudeDegrees>
              <LongitudeDegrees>-1.85294651426374912261962890625</LongitudeDegrees>
            </Position>
            <AltitudeMeters>115.1999969482421875</AltitudeMeters>
            <DistanceMeters>NAN</DistanceMeters>
          </Trackpoint>
          <Trackpoint>
            <Time>2021-08-11T13:07:58.000Z</Time>
            <Position>
              <LatitudeDegrees>43.30092796124517917633056640625</LatitudeDegrees>
              <LongitudeDegrees>-1.85304659418761730194091796875</LongitudeDegrees>
            </Position>
            <AltitudeMeters>114.1999969482421875</AltitudeMeters>
            <DistanceMeters>NAN</DistanceMeters>
          </Trackpoint>
          <Trackpoint>
            <Time>2021-08-11T13:08:00.000Z</Time>
            <Position>
              <LatitudeDegrees>43.30076233483850955963134765625</LatitudeDegrees>
              <LongitudeDegrees>-1.85309520922601222991943359375</LongitudeDegrees>
            </Position>
            <AltitudeMeters>113</AltitudeMeters>
            <DistanceMeters>NAN</DistanceMeters>
          </Trackpoint>
          <Trackpoint>
            <Time>2021-08-11T13:08:01.000Z</Time>
            <Position>
              <LatitudeDegrees>43.30068170092999935150146484375</LatitudeDegrees>
              <LongitudeDegrees>-1.8531269766390323638916015625</LongitudeDegrees>
            </Position>
            <AltitudeMeters>112.40000152587890625</AltitudeMeters>
            <DistanceMeters>NAN</DistanceMeters>
          </Trackpoint>
          <Trackpoint>
            <Time>2021-08-11T13:08:02.000Z</Time>
            <Position>
              <LatitudeDegrees>43.3006115444004535675048828125</LatitudeDegrees>
              <LongitudeDegrees>-1.85317550785839557647705078125</LongitudeDegrees>
            </Position>
            <AltitudeMeters>111.1999969482421875</AltitudeMeters>
            <DistanceMeters>NAN</DistanceMeters>
          </Trackpoint>
          <Trackpoint>
            <Time>2021-08-11T13:08:03.000Z</Time>
            <Position>
              <LatitudeDegrees>43.30055345781147480010986328125</LatitudeDegrees>
              <LongitudeDegrees>-1.8532441556453704833984375</LongitudeDegrees>
            </Position>
            <AltitudeMeters>110.59999847412109375</AltitudeMeters>
            <DistanceMeters>NAN</DistanceMeters>
          </Trackpoint>
          <Trackpoint>
            <Time>2021-08-11T13:08:04.000Z</Time>
            <Position>
              <LatitudeDegrees>43.300517834722995758056640625</LatitudeDegrees>
              <LongitudeDegrees>-1.853317916393280029296875</LongitudeDegrees>
            </Position>
            <AltitudeMeters>109.8000030517578125</AltitudeMeters>
            <DistanceMeters>NAN</DistanceMeters>
          </Trackpoint>
          <Trackpoint>
            <Time>2021-08-11T13:08:05.000Z</Time>
            <Position>
              <LatitudeDegrees>43.3004812896251678466796875</LatitudeDegrees>
              <LongitudeDegrees>-1.8534418009221553802490234375</LongitudeDegrees>
            </Position>
            <AltitudeMeters>109.1999969482421875</AltitudeMeters>
            <DistanceMeters>NAN</DistanceMeters>
          </Trackpoint>
          <Trackpoint>
            <Time>2021-08-11T13:08:06.000Z</Time>
            <Position>
              <LatitudeDegrees>43.3004690520465373992919921875</LatitudeDegrees>
              <LongitudeDegrees>-1.8535678647458553314208984375</LongitudeDegrees>
            </Position>
            <AltitudeMeters>108.1999969482421875</AltitudeMeters>
            <DistanceMeters>NAN</DistanceMeters>
          </Trackpoint>
          <Trackpoint>
            <Time>2021-08-11T13:08:07.000Z</Time>
            <Position>
              <LatitudeDegrees>43.30046477727591991424560546875</LatitudeDegrees>
              <LongitudeDegrees>-1.85369937680661678314208984375</LongitudeDegrees>
            </Position>
            <AltitudeMeters>107.59999847412109375</AltitudeMeters>
            <DistanceMeters>NAN</DistanceMeters>
          </Trackpoint>
          <Trackpoint>
            <Time>2021-08-11T13:08:08.000Z</Time>
            <Position>
              <LatitudeDegrees>43.3004613406956195831298828125</LatitudeDegrees>
              <LongitudeDegrees>-1.8538317270576953887939453125</LongitudeDegrees>
            </Position>
            <AltitudeMeters>106.40000152587890625</AltitudeMeters>
            <DistanceMeters>NAN</DistanceMeters>
          </Trackpoint>
          <Trackpoint>
            <Time>2021-08-11T13:08:09.000Z</Time>
            <Position>
              <LatitudeDegrees>43.30045136623084545135498046875</LatitudeDegrees>
              <LongitudeDegrees>-1.85396625660359859466552734375</LongitudeDegrees>
            </Position>
            <AltitudeMeters>104.8000030517578125</AltitudeMeters>
            <DistanceMeters>NAN</DistanceMeters>
          </Trackpoint>
          <Trackpoint>
            <Time>2021-08-11T13:08:11.000Z</Time>
            <Position>
              <LatitudeDegrees>43.30041364766657352447509765625</LatitudeDegrees>
              <LongitudeDegrees>-1.85421117581427097320556640625</LongitudeDegrees>
            </Position>
            <AltitudeMeters>102.40000152587890625</AltitudeMeters>
            <DistanceMeters>NAN</DistanceMeters>
          </Trackpoint>
          <Trackpoint>
            <Time>2021-08-11T13:08:12.000Z</Time>
            <Position>
              <LatitudeDegrees>43.3003527112305164337158203125</LatitudeDegrees>
              <LongitudeDegrees>-1.8542927317321300506591796875</LongitudeDegrees>
            </Position>
            <AltitudeMeters>101.8000030517578125</AltitudeMeters>
            <DistanceMeters>NAN</DistanceMeters>
          </Trackpoint>
          <Trackpoint>
            <Time>2021-08-11T13:08:13.000Z</Time>
            <Position>
              <LatitudeDegrees>43.3002709038555622100830078125</LatitudeDegrees>
              <LongitudeDegrees>-1.85434813611209392547607421875</LongitudeDegrees>
            </Position>
            <AltitudeMeters>100.8000030517578125</AltitudeMeters>
            <DistanceMeters>NAN</DistanceMeters>
          </Trackpoint>
          <Trackpoint>
            <Time>2021-08-11T13:08:14.000Z</Time>
            <Position>
              <LatitudeDegrees>43.30017945729196071624755859375</LatitudeDegrees>
              <LongitudeDegrees>-1.85438610613346099853515625</LongitudeDegrees>
            </Position>
            <AltitudeMeters>100.1999969482421875</AltitudeMeters>
            <DistanceMeters>NAN</DistanceMeters>
          </Trackpoint>
          <Trackpoint>
            <Time>2021-08-11T13:08:15.000Z</Time>
            <Position>
              <LatitudeDegrees>43.300096727907657623291015625</LatitudeDegrees>
              <LongitudeDegrees>-1.85440848581492900848388671875</LongitudeDegrees>
            </Position>
            <AltitudeMeters>99.1999969482421875</AltitudeMeters>
            <DistanceMeters>NAN</DistanceMeters>
          </Trackpoint>
          <Trackpoint>
            <Time>2021-08-11T13:08:17.000Z</Time>
            <Position>
              <LatitudeDegrees>43.29992682673037052154541015625</LatitudeDegrees>
              <LongitudeDegrees>-1.85445584356784820556640625</LongitudeDegrees>
            </Position>
            <AltitudeMeters>98</AltitudeMeters>
            <DistanceMeters>NAN</DistanceMeters>
          </Trackpoint>
          <Trackpoint>
            <Time>2021-08-11T13:08:18.000Z</Time>
            <Position>
              <LatitudeDegrees>43.2998440973460674285888671875</LatitudeDegrees>
              <LongitudeDegrees>-1.854494400322437286376953125</LongitudeDegrees>
            </Position>
            <AltitudeMeters>97.1999969482421875</AltitudeMeters>
            <DistanceMeters>NAN</DistanceMeters>
          </Trackpoint>
          <Trackpoint>
            <Time>2021-08-11T13:08:19.000Z</Time>
            <Position>
              <LatitudeDegrees>43.29976472072303295135498046875</LatitudeDegrees>
              <LongitudeDegrees>-1.85454829595983028411865234375</LongitudeDegrees>
            </Position>
            <AltitudeMeters>97</AltitudeMeters>
            <DistanceMeters>NAN</DistanceMeters>
          </Trackpoint>
          <Trackpoint>
            <Time>2021-08-11T13:08:20.000Z</Time>
            <Position>
              <LatitudeDegrees>43.299685008823871612548828125</LatitudeDegrees>
              <LongitudeDegrees>-1.85460864566266536712646484375</LongitudeDegrees>
            </Position>
            <AltitudeMeters>96</AltitudeMeters>
            <DistanceMeters>NAN</DistanceMeters>
          </Trackpoint>
          <Trackpoint>
            <Time>2021-08-11T13:08:21.000Z</Time>
            <Position>
              <LatitudeDegrees>43.299604542553424835205078125</LatitudeDegrees>
              <LongitudeDegrees>-1.85467503033578395843505859375</LongitudeDegrees>
            </Position>
            <AltitudeMeters>95.8000030517578125</AltitudeMeters>
            <DistanceMeters>NAN</DistanceMeters>
          </Trackpoint>
          <Trackpoint>
            <Time>2021-08-11T13:08:23.000Z</Time>
            <Position>
              <LatitudeDegrees>43.29943849705159664154052734375</LatitudeDegrees>
              <LongitudeDegrees>-1.85483696870505809783935546875</LongitudeDegrees>
            </Position>
            <AltitudeMeters>94.40000152587890625</AltitudeMeters>
            <DistanceMeters>NAN</DistanceMeters>
          </Trackpoint>
          <Trackpoint>
            <Time>2021-08-11T13:08:24.000Z</Time>
            <Position>
              <LatitudeDegrees>43.2993492297828197479248046875</LatitudeDegrees>
              <LongitudeDegrees>-1.854930929839611053466796875</LongitudeDegrees>
            </Position>
            <AltitudeMeters>94</AltitudeMeters>
            <DistanceMeters>NAN</DistanceMeters>
          </Trackpoint>
          <Trackpoint>
            <Time>2021-08-11T13:08:25.000Z</Time>
            <Position>
              <LatitudeDegrees>43.29926163889467716217041015625</LatitudeDegrees>
              <LongitudeDegrees>-1.855014078319072723388671875</LongitudeDegrees>
            </Position>
            <AltitudeMeters>92.8000030517578125</AltitudeMeters>
            <DistanceMeters>NAN</DistanceMeters>
          </Trackpoint>
          <Trackpoint>
            <Time>2021-08-11T13:08:27.000Z</Time>
            <Position>
              <LatitudeDegrees>43.2990722917020320892333984375</LatitudeDegrees>
              <LongitudeDegrees>-1.855140812695026397705078125</LongitudeDegrees>
            </Position>
            <AltitudeMeters>91.59999847412109375</AltitudeMeters>
            <DistanceMeters>NAN</DistanceMeters>
          </Trackpoint>
          <Trackpoint>
            <Time>2021-08-11T13:08:28.000Z</Time>
            <Position>
              <LatitudeDegrees>43.2989767380058765411376953125</LatitudeDegrees>
              <LongitudeDegrees>-1.85518213547766208648681640625</LongitudeDegrees>
            </Position>
            <AltitudeMeters>91.40000152587890625</AltitudeMeters>
            <DistanceMeters>NAN</DistanceMeters>
          </Trackpoint>
          <Trackpoint>
            <Time>2021-08-11T13:08:29.000Z</Time>
            <Position>
              <LatitudeDegrees>43.2988882251083850860595703125</LatitudeDegrees>
              <LongitudeDegrees>-1.85521348379552364349365234375</LongitudeDegrees>
            </Position>
            <AltitudeMeters>91.1999969482421875</AltitudeMeters>
            <DistanceMeters>NAN</DistanceMeters>
          </Trackpoint>
          <Trackpoint>
            <Time>2021-08-11T13:08:30.000Z</Time>
            <Position>
              <LatitudeDegrees>43.29880164004862308502197265625</LatitudeDegrees>
              <LongitudeDegrees>-1.85524642467498779296875</LongitudeDegrees>
            </Position>
            <AltitudeMeters>91</AltitudeMeters>
            <DistanceMeters>NAN</DistanceMeters>
          </Trackpoint>
          <Trackpoint>
            <Time>2021-08-11T13:08:31.000Z</Time>
            <Position>
              <LatitudeDegrees>43.29871849156916141510009765625</LatitudeDegrees>
              <LongitudeDegrees>-1.8552838079631328582763671875</LongitudeDegrees>
            </Position>
            <AltitudeMeters>91</AltitudeMeters>
            <DistanceMeters>NAN</DistanceMeters>
          </Trackpoint>
          <Trackpoint>
            <Time>2021-08-11T13:08:32.000Z</Time>
            <Position>
              <LatitudeDegrees>43.298642970621585845947265625</LatitudeDegrees>
              <LongitudeDegrees>-1.85533066280186176300048828125</LongitudeDegrees>
            </Position>
            <AltitudeMeters>91</AltitudeMeters>
            <DistanceMeters>NAN</DistanceMeters>
          </Trackpoint>
          <Trackpoint>
            <Time>2021-08-11T13:08:33.000Z</Time>
            <Position>
              <LatitudeDegrees>43.29857616685330867767333984375</LatitudeDegrees>
              <LongitudeDegrees>-1.85538254678249359130859375</LongitudeDegrees>
            </Position>
            <AltitudeMeters>91</AltitudeMeters>
            <DistanceMeters>NAN</DistanceMeters>
          </Trackpoint>
          <Trackpoint>
            <Time>2021-08-11T13:08:34.000Z</Time>
            <Position>
              <LatitudeDegrees>43.2985133863985538482666015625</LatitudeDegrees>
              <LongitudeDegrees>-1.85543409548699855804443359375</LongitudeDegrees>
            </Position>
            <AltitudeMeters>91.1999969482421875</AltitudeMeters>
            <DistanceMeters>NAN</DistanceMeters>
          </Trackpoint>
          <Trackpoint>
            <Time>2021-08-11T13:08:35.000Z</Time>
            <Position>
              <LatitudeDegrees>43.2984553836286067962646484375</LatitudeDegrees>
              <LongitudeDegrees>-1.85548556037247180938720703125</LongitudeDegrees>
            </Position>
            <AltitudeMeters>91.59999847412109375</AltitudeMeters>
            <DistanceMeters>NAN</DistanceMeters>
          </Trackpoint>
          <Trackpoint>
            <Time>2021-08-11T13:08:36.000Z</Time>
            <Position>
              <LatitudeDegrees>43.29840400256216526031494140625</LatitudeDegrees>
              <LongitudeDegrees>-1.855537109076976776123046875</LongitudeDegrees>
            </Position>
            <AltitudeMeters>92.8000030517578125</AltitudeMeters>
            <DistanceMeters>NAN</DistanceMeters>
          </Trackpoint>
          <Trackpoint>
            <Time>2021-08-11T13:08:37.000Z</Time>
            <Position>
              <LatitudeDegrees>43.29835605807602405548095703125</LatitudeDegrees>
              <LongitudeDegrees>-1.85559016652405261993408203125</LongitudeDegrees>
            </Position>
            <AltitudeMeters>93.1999969482421875</AltitudeMeters>
            <DistanceMeters>NAN</DistanceMeters>
          </Trackpoint>
          <Trackpoint>
            <Time>2021-08-11T13:08:38.000Z</Time>
            <Position>
              <LatitudeDegrees>43.29831314273178577423095703125</LatitudeDegrees>
              <LongitudeDegrees>-1.85564163140952587127685546875</LongitudeDegrees>
            </Position>
            <AltitudeMeters>94</AltitudeMeters>
            <DistanceMeters>NAN</DistanceMeters>
          </Trackpoint>
          <Trackpoint>
            <Time>2021-08-11T13:08:39.000Z</Time>
            <Position>
              <LatitudeDegrees>43.2982713170349597930908203125</LatitudeDegrees>
              <LongitudeDegrees>-1.85569711960852146148681640625</LongitudeDegrees>
            </Position>
            <AltitudeMeters>94.8000030517578125</AltitudeMeters>
            <DistanceMeters>NAN</DistanceMeters>
          </Trackpoint>
          <Trackpoint>
            <Time>2021-08-11T13:08:40.000Z</Time>
            <Position>
              <LatitudeDegrees>43.29823418520390987396240234375</LatitudeDegrees>
              <LongitudeDegrees>-1.85575193725526332855224609375</LongitudeDegrees>
            </Position>
            <AltitudeMeters>95.1999969482421875</AltitudeMeters>
            <DistanceMeters>NAN</DistanceMeters>
          </Trackpoint>
          <Trackpoint>
            <Time>2021-08-11T13:08:41.000Z</Time>
            <Position>
              <LatitudeDegrees>43.2981987297534942626953125</LatitudeDegrees>
              <LongitudeDegrees>-1.85580960474908351898193359375</LongitudeDegrees>
            </Position>
            <AltitudeMeters>96</AltitudeMeters>
            <DistanceMeters>NAN</DistanceMeters>
          </Trackpoint>
          <Trackpoint>
            <Time>2021-08-11T13:08:42.000Z</Time>
            <Position>
              <LatitudeDegrees>43.29816243611276149749755859375</LatitudeDegrees>
              <LongitudeDegrees>-1.85587079264223575592041015625</LongitudeDegrees>
            </Position>
            <AltitudeMeters>96.1999969482421875</AltitudeMeters>
            <DistanceMeters>NAN</DistanceMeters>
          </Trackpoint>
          <Trackpoint>
            <Time>2021-08-11T13:08:45.000Z</Time>
            <Position>
              <LatitudeDegrees>43.298049867153167724609375</LatitudeDegrees>
              <LongitudeDegrees>-1.8560810945928096771240234375</LongitudeDegrees>
            </Position>
            <AltitudeMeters>97.1999969482421875</AltitudeMeters>
            <DistanceMeters>NAN</DistanceMeters>
          </Trackpoint>
          <Trackpoint>
            <Time>2021-08-11T13:08:47.000Z</Time>
            <Position>
              <LatitudeDegrees>43.29799379222095012664794921875</LatitudeDegrees>
              <LongitudeDegrees>-1.85624487698078155517578125</LongitudeDegrees>
            </Position>
            <AltitudeMeters>97.1999969482421875</AltitudeMeters>
            <DistanceMeters>NAN</DistanceMeters>
          </Trackpoint>
          <Trackpoint>
            <Time>2021-08-11T13:08:48.000Z</Time>
            <Position>
              <LatitudeDegrees>43.297973088920116424560546875</LatitudeDegrees>
              <LongitudeDegrees>-1.8563369102776050567626953125</LongitudeDegrees>
            </Position>
            <AltitudeMeters>97.1999969482421875</AltitudeMeters>
            <DistanceMeters>NAN</DistanceMeters>
          </Trackpoint>
          <Trackpoint>
            <Time>2021-08-11T13:08:50.000Z</Time>
            <Position>
              <LatitudeDegrees>43.2979471050202846527099609375</LatitudeDegrees>
              <LongitudeDegrees>-1.85651636682450771331787109375</LongitudeDegrees>
            </Position>
            <AltitudeMeters>97.1999969482421875</AltitudeMeters>
            <DistanceMeters>NAN</DistanceMeters>
          </Trackpoint>
          <Trackpoint>
            <Time>2021-08-11T13:08:51.000Z</Time>
            <Position>
              <LatitudeDegrees>43.297936208546161651611328125</LatitudeDegrees>
              <LongitudeDegrees>-1.8566068075597286224365234375</LongitudeDegrees>
            </Position>
            <AltitudeMeters>97</AltitudeMeters>
            <DistanceMeters>NAN</DistanceMeters>
          </Trackpoint>
          <Trackpoint>
            <Time>2021-08-11T13:08:52.000Z</Time>
            <Position>
              <LatitudeDegrees>43.29792522825300693511962890625</LatitudeDegrees>
              <LongitudeDegrees>-1.85669925995171070098876953125</LongitudeDegrees>
            </Position>
            <AltitudeMeters>96.8000030517578125</AltitudeMeters>
            <DistanceMeters>NAN</DistanceMeters>
          </Trackpoint>
          <Trackpoint>
            <Time>2021-08-11T13:08:54.000Z</Time>
            <Position>
              <LatitudeDegrees>43.29790997318923473358154296875</LatitudeDegrees>
              <LongitudeDegrees>-1.85689154081046581268310546875</LongitudeDegrees>
            </Position>
            <AltitudeMeters>96.40000152587890625</AltitudeMeters>
            <DistanceMeters>NAN</DistanceMeters>
          </Trackpoint>
          <Trackpoint>
            <Time>2021-08-11T13:08:55.000Z</Time>
            <Position>
              <LatitudeDegrees>43.29790762625634670257568359375</LatitudeDegrees>
              <LongitudeDegrees>-1.85698793269693851470947265625</LongitudeDegrees>
            </Position>
            <AltitudeMeters>96.1999969482421875</AltitudeMeters>
            <DistanceMeters>NAN</DistanceMeters>
          </Trackpoint>
          <Trackpoint>
            <Time>2021-08-11T13:08:58.000Z</Time>
            <Position>
              <LatitudeDegrees>43.29792321659624576568603515625</LatitudeDegrees>
              <LongitudeDegrees>-1.85729496181011199951171875</LongitudeDegrees>
            </Position>
            <AltitudeMeters>95.40000152587890625</AltitudeMeters>
            <DistanceMeters>NAN</DistanceMeters>
          </Trackpoint>
          <Trackpoint>
            <Time>2021-08-11T13:08:59.000Z</Time>
            <Position>
              <LatitudeDegrees>43.2979363761842250823974609375</LatitudeDegrees>
              <LongitudeDegrees>-1.85739462263882160186767578125</LongitudeDegrees>
            </Position>
            <AltitudeMeters>95</AltitudeMeters>
            <DistanceMeters>NAN</DistanceMeters>
          </Trackpoint>
          <Trackpoint>
            <Time>2021-08-11T13:09:00.000Z</Time>
            <Position>
              <LatitudeDegrees>43.29795523546636104583740234375</LatitudeDegrees>
              <LongitudeDegrees>-1.85749386437237262725830078125</LongitudeDegrees>
            </Position>
            <AltitudeMeters>94.1999969482421875</AltitudeMeters>
            <DistanceMeters>NAN</DistanceMeters>
          </Trackpoint>
          <Trackpoint>
            <Time>2021-08-11T13:09:01.000Z</Time>
            <Position>
              <LatitudeDegrees>43.29798775725066661834716796875</LatitudeDegrees>
              <LongitudeDegrees>-1.8575908429920673370361328125</LongitudeDegrees>
            </Position>
            <AltitudeMeters>94.1999969482421875</AltitudeMeters>
            <DistanceMeters>NAN</DistanceMeters>
          </Trackpoint>
          <Trackpoint>
            <Time>2021-08-11T13:09:02.000Z</Time>
            <Position>
              <LatitudeDegrees>43.298030756413936614990234375</LatitudeDegrees>
              <LongitudeDegrees>-1.85768547467887401580810546875</LongitudeDegrees>
            </Position>
            <AltitudeMeters>93.1999969482421875</AltitudeMeters>
            <DistanceMeters>NAN</DistanceMeters>
          </Trackpoint>
          <Trackpoint>
            <Time>2021-08-11T13:09:03.000Z</Time>
            <Position>
              <LatitudeDegrees>43.29808213748037815093994140625</LatitudeDegrees>
              <LongitudeDegrees>-1.85777231119573116302490234375</LongitudeDegrees>
            </Position>
            <AltitudeMeters>92.8000030517578125</AltitudeMeters>
            <DistanceMeters>NAN</DistanceMeters>
          </Trackpoint>
          <Trackpoint>
            <Time>2021-08-11T13:09:04.000Z</Time>
            <Position>
              <LatitudeDegrees>43.29814282245934009552001953125</LatitudeDegrees>
              <LongitudeDegrees>-1.857865937054157257080078125</LongitudeDegrees>
            </Position>
            <AltitudeMeters>92.1999969482421875</AltitudeMeters>
            <DistanceMeters>NAN</DistanceMeters>
          </Trackpoint>
          <Trackpoint>
            <Time>2021-08-11T13:09:05.000Z</Time>
            <Position>
              <LatitudeDegrees>43.2982092909514904022216796875</LatitudeDegrees>
              <LongitudeDegrees>-1.8579526059329509735107421875</LongitudeDegrees>
            </Position>
            <AltitudeMeters>91.8000030517578125</AltitudeMeters>
            <DistanceMeters>NAN</DistanceMeters>
          </Trackpoint>
          <Trackpoint>
            <Time>2021-08-11T13:09:06.000Z</Time>
            <Position>
              <LatitudeDegrees>43.29827911220490932464599609375</LatitudeDegrees>
              <LongitudeDegrees>-1.85803483240306377410888671875</LongitudeDegrees>
            </Position>
            <AltitudeMeters>90.8000030517578125</AltitudeMeters>
            <DistanceMeters>NAN</DistanceMeters>
          </Trackpoint>
          <Trackpoint>
            <Time>2021-08-11T13:09:08.000Z</Time>
            <Position>
              <LatitudeDegrees>43.29842663370072841644287109375</LatitudeDegrees>
              <LongitudeDegrees>-1.85818084515631198883056640625</LongitudeDegrees>
            </Position>
            <AltitudeMeters>89.40000152587890625</AltitudeMeters>
            <DistanceMeters>NAN</DistanceMeters>
          </Trackpoint>
          <Trackpoint>
            <Time>2021-08-11T13:09:09.000Z</Time>
            <Position>
              <LatitudeDegrees>43.29849821515381336212158203125</LatitudeDegrees>
              <LongitudeDegrees>-1.85825309716165065765380859375</LongitudeDegrees>
            </Position>
            <AltitudeMeters>88.8000030517578125</AltitudeMeters>
            <DistanceMeters>NAN</DistanceMeters>
          </Trackpoint>
          <Trackpoint>
            <Time>2021-08-11T13:09:10.000Z</Time>
            <Position>
              <LatitudeDegrees>43.2985670305788516998291015625</LatitudeDegrees>
              <LongitudeDegrees>-1.85832166112959384918212890625</LongitudeDegrees>
            </Position>
            <AltitudeMeters>88</AltitudeMeters>
            <DistanceMeters>NAN</DistanceMeters>
          </Trackpoint>
          <Trackpoint>
            <Time>2021-08-11T13:09:11.000Z</Time>
            <Position>
              <LatitudeDegrees>43.29863517545163631439208984375</LatitudeDegrees>
              <LongitudeDegrees>-1.858384273946285247802734375</LongitudeDegrees>
            </Position>
            <AltitudeMeters>86.8000030517578125</AltitudeMeters>
            <DistanceMeters>NAN</DistanceMeters>
          </Trackpoint>
          <Trackpoint>
            <Time>2021-08-11T13:09:12.000Z</Time>
            <Position>
              <LatitudeDegrees>43.29869954846799373626708984375</LatitudeDegrees>
              <LongitudeDegrees>-1.85844370163977146148681640625</LongitudeDegrees>
            </Position>
            <AltitudeMeters>86.40000152587890625</AltitudeMeters>
            <DistanceMeters>NAN</DistanceMeters>
          </Trackpoint>
          <Trackpoint>
            <Time>2021-08-11T13:09:13.000Z</Time>
            <Position>
              <LatitudeDegrees>43.2987614907324314117431640625</LatitudeDegrees>
              <LongitudeDegrees>-1.858495585620403289794921875</LongitudeDegrees>
            </Position>
            <AltitudeMeters>86</AltitudeMeters>
            <DistanceMeters>NAN</DistanceMeters>
          </Trackpoint>
          <Trackpoint>
            <Time>2021-08-11T13:09:14.000Z</Time>
            <Position>
              <LatitudeDegrees>43.29881739802658557891845703125</LatitudeDegrees>
              <LongitudeDegrees>-1.85854394920170307159423828125</LongitudeDegrees>
            </Position>
            <AltitudeMeters>85.8000030517578125</AltitudeMeters>
            <DistanceMeters>NAN</DistanceMeters>
          </Trackpoint>
          <Trackpoint>
            <Time>2021-08-11T13:09:15.000Z</Time>
            <Position>
              <LatitudeDegrees>43.29887053929269313812255859375</LatitudeDegrees>
              <LongitudeDegrees>-1.858581416308879852294921875</LongitudeDegrees>
            </Position>
            <AltitudeMeters>85.8000030517578125</AltitudeMeters>
            <DistanceMeters>NAN</DistanceMeters>
          </Trackpoint>
          <Trackpoint>
            <Time>2021-08-11T13:09:16.000Z</Time>
            <Position>
              <LatitudeDegrees>43.2989220879971981048583984375</LatitudeDegrees>
              <LongitudeDegrees>-1.8586141057312488555908203125</LongitudeDegrees>
            </Position>
            <AltitudeMeters>85.8000030517578125</AltitudeMeters>
            <DistanceMeters>NAN</DistanceMeters>
          </Trackpoint>
          <Trackpoint>
            <Time>2021-08-11T13:09:17.000Z</Time>
            <Position>
              <LatitudeDegrees>43.29897330142557621002197265625</LatitudeDegrees>
              <LongitudeDegrees>-1.8586462922394275665283203125</LongitudeDegrees>
            </Position>
            <AltitudeMeters>85.8000030517578125</AltitudeMeters>
            <DistanceMeters>NAN</DistanceMeters>
          </Trackpoint>
          <Trackpoint>
            <Time>2021-08-11T13:09:18.000Z</Time>
            <Position>
              <LatitudeDegrees>43.29902107827365398406982421875</LatitudeDegrees>
              <LongitudeDegrees>-1.85867822729051113128662109375</LongitudeDegrees>
            </Position>
            <AltitudeMeters>85.8000030517578125</AltitudeMeters>
            <DistanceMeters>NAN</DistanceMeters>
          </Trackpoint>
          <Trackpoint>
            <Time>2021-08-11T13:09:19.000Z</Time>
            <Position>
              <LatitudeDegrees>43.2990624010562896728515625</LatitudeDegrees>
              <LongitudeDegrees>-1.858712173998355865478515625</LongitudeDegrees>
            </Position>
            <AltitudeMeters>85.8000030517578125</AltitudeMeters>
            <DistanceMeters>NAN</DistanceMeters>
          </Trackpoint>
          <Trackpoint>
            <Time>2021-08-11T13:09:20.000Z</Time>
            <Position>
              <LatitudeDegrees>43.2991053164005279541015625</LatitudeDegrees>
              <LongitudeDegrees>-1.85874025337398052215576171875</LongitudeDegrees>
            </Position>
            <AltitudeMeters>86.1999969482421875</AltitudeMeters>
            <DistanceMeters>NAN</DistanceMeters>
          </Trackpoint>
          <Trackpoint>
            <Time>2021-08-11T13:09:21.000Z</Time>
            <Position>
              <LatitudeDegrees>43.299146555364131927490234375</LatitudeDegrees>
              <LongitudeDegrees>-1.85876615345478057861328125</LongitudeDegrees>
            </Position>
            <AltitudeMeters>86.40000152587890625</AltitudeMeters>
            <DistanceMeters>NAN</DistanceMeters>
          </Trackpoint>
          <Trackpoint>
            <Time>2021-08-11T13:09:22.000Z</Time>
            <Position>
              <LatitudeDegrees>43.29917999915778636932373046875</LatitudeDegrees>
              <LongitudeDegrees>-1.858795322477817535400390625</LongitudeDegrees>
            </Position>
            <AltitudeMeters>87</AltitudeMeters>
            <DistanceMeters>NAN</DistanceMeters>
          </Trackpoint>
          <Trackpoint>
            <Time>2021-08-11T13:09:23.000Z</Time>
            <Position>
              <LatitudeDegrees>43.29921889118850231170654296875</LatitudeDegrees>
              <LongitudeDegrees>-1.85881552286446094512939453125</LongitudeDegrees>
            </Position>
            <AltitudeMeters>87.1999969482421875</AltitudeMeters>
            <DistanceMeters>NAN</DistanceMeters>
          </Trackpoint>
          <Trackpoint>
            <Time>2021-08-11T13:09:26.000Z</Time>
            <Position>
              <LatitudeDegrees>43.2993398420512676239013671875</LatitudeDegrees>
              <LongitudeDegrees>-1.85889028944075107574462890625</LongitudeDegrees>
            </Position>
            <AltitudeMeters>88</AltitudeMeters>
            <DistanceMeters>NAN</DistanceMeters>
          </Trackpoint>
          <Trackpoint>
            <Time>2021-08-11T13:09:27.000Z</Time>
            <Position>
              <LatitudeDegrees>43.2993810810148715972900390625</LatitudeDegrees>
              <LongitudeDegrees>-1.8589128367602825164794921875</LongitudeDegrees>
            </Position>
            <AltitudeMeters>88.40000152587890625</AltitudeMeters>
            <DistanceMeters>NAN</DistanceMeters>
          </Trackpoint>
          <Trackpoint>
            <Time>2021-08-11T13:09:28.000Z</Time>
            <Position>
              <LatitudeDegrees>43.29942055977880954742431640625</LatitudeDegrees>
              <LongitudeDegrees>-1.8589317798614501953125</LongitudeDegrees>
            </Position>
            <AltitudeMeters>88.40000152587890625</AltitudeMeters>
            <DistanceMeters>NAN</DistanceMeters>
          </Trackpoint>
          <Trackpoint>
            <Time>2021-08-11T13:09:29.000Z</Time>
            <Position>
              <LatitudeDegrees>43.299458362162113189697265625</LatitudeDegrees>
              <LongitudeDegrees>-1.85895432718098163604736328125</LongitudeDegrees>
            </Position>
            <AltitudeMeters>88.59999847412109375</AltitudeMeters>
            <DistanceMeters>NAN</DistanceMeters>
          </Trackpoint>
          <Trackpoint>
            <Time>2021-08-11T13:09:30.000Z</Time>
            <Position>
              <LatitudeDegrees>43.29949599690735340118408203125</LatitudeDegrees>
              <LongitudeDegrees>-1.85897410847246646881103515625</LongitudeDegrees>
            </Position>
            <AltitudeMeters>89</AltitudeMeters>
            <DistanceMeters>NAN</DistanceMeters>
          </Trackpoint>
          <Trackpoint>
            <Time>2021-08-11T13:09:31.000Z</Time>
            <Position>
              <LatitudeDegrees>43.2995309494435787200927734375</LatitudeDegrees>
              <LongitudeDegrees>-1.858995147049427032470703125</LongitudeDegrees>
            </Position>
            <AltitudeMeters>89.40000152587890625</AltitudeMeters>
            <DistanceMeters>NAN</DistanceMeters>
          </Trackpoint>
          <Trackpoint>
            <Time>2021-08-11T13:09:32.000Z</Time>
            <Position>
              <LatitudeDegrees>43.29956523142755031585693359375</LatitudeDegrees>
              <LongitudeDegrees>-1.85901786200702190399169921875</LongitudeDegrees>
            </Position>
            <AltitudeMeters>89.8000030517578125</AltitudeMeters>
            <DistanceMeters>NAN</DistanceMeters>
          </Trackpoint>
          <Trackpoint>
            <Time>2021-08-11T13:09:33.000Z</Time>
            <Position>
              <LatitudeDegrees>43.29959607683122158050537109375</LatitudeDegrees>
              <LongitudeDegrees>-1.85904434882104396820068359375</LongitudeDegrees>
            </Position>
            <AltitudeMeters>90</AltitudeMeters>
            <DistanceMeters>NAN</DistanceMeters>
          </Trackpoint>
          <Trackpoint>
            <Time>2021-08-11T13:09:34.000Z</Time>
            <Position>
              <LatitudeDegrees>43.29962641932070255279541015625</LatitudeDegrees>
              <LongitudeDegrees>-1.85907301492989063262939453125</LongitudeDegrees>
            </Position>
            <AltitudeMeters>90.40000152587890625</AltitudeMeters>
            <DistanceMeters>NAN</DistanceMeters>
          </Trackpoint>
          <Trackpoint>
            <Time>2021-08-11T13:09:35.000Z</Time>
            <Position>
              <LatitudeDegrees>43.29965542070567607879638671875</LatitudeDegrees>
              <LongitudeDegrees>-1.85910805128514766693115234375</LongitudeDegrees>
            </Position>
            <AltitudeMeters>90.59999847412109375</AltitudeMeters>
            <DistanceMeters>NAN</DistanceMeters>
          </Trackpoint>
          <Trackpoint>
            <Time>2021-08-11T13:09:36.000Z</Time>
            <Position>
              <LatitudeDegrees>43.29968802630901336669921875</LatitudeDegrees>
              <LongitudeDegrees>-1.85913772322237491607666015625</LongitudeDegrees>
            </Position>
            <AltitudeMeters>90.8000030517578125</AltitudeMeters>
            <DistanceMeters>NAN</DistanceMeters>
          </Trackpoint>
          <Trackpoint>
            <Time>2021-08-11T13:09:37.000Z</Time>
            <Position>
              <LatitudeDegrees>43.299718201160430908203125</LatitudeDegrees>
              <LongitudeDegrees>-1.85916940681636333465576171875</LongitudeDegrees>
            </Position>
            <AltitudeMeters>91.1999969482421875</AltitudeMeters>
            <DistanceMeters>NAN</DistanceMeters>
          </Trackpoint>
          <Trackpoint>
            <Time>2021-08-11T13:09:38.000Z</Time>
            <Position>
              <LatitudeDegrees>43.29974678345024585723876953125</LatitudeDegrees>
              <LongitudeDegrees>-1.859197653830051422119140625</LongitudeDegrees>
            </Position>
            <AltitudeMeters>91.40000152587890625</AltitudeMeters>
            <DistanceMeters>NAN</DistanceMeters>
          </Trackpoint>
          <Trackpoint>
            <Time>2021-08-11T13:09:39.000Z</Time>
            <Position>
              <LatitudeDegrees>43.2997700013220310211181640625</LatitudeDegrees>
              <LongitudeDegrees>-1.85922439210116863250732421875</LongitudeDegrees>
            </Position>
            <AltitudeMeters>91.59999847412109375</AltitudeMeters>
            <DistanceMeters>NAN</DistanceMeters>
          </Trackpoint>
          <Trackpoint>
            <Time>2021-08-11T13:09:40.000Z</Time>
            <Position>
              <LatitudeDegrees>43.2997928000986576080322265625</LatitudeDegrees>
              <LongitudeDegrees>-1.8592501245439052581787109375</LongitudeDegrees>
            </Position>
            <AltitudeMeters>91.8000030517578125</AltitudeMeters>
            <DistanceMeters>NAN</DistanceMeters>
          </Trackpoint>
          <Trackpoint>
            <Time>2021-08-11T13:09:41.000Z</Time>
            <Position>
              <LatitudeDegrees>43.29981484450399875640869140625</LatitudeDegrees>
              <LongitudeDegrees>-1.85927870683372020721435546875</LongitudeDegrees>
            </Position>
            <AltitudeMeters>92</AltitudeMeters>
            <DistanceMeters>NAN</DistanceMeters>
          </Trackpoint>
          <Trackpoint>
            <Time>2021-08-11T13:09:42.000Z</Time>
            <Position>
              <LatitudeDegrees>43.29983579926192760467529296875</LatitudeDegrees>
              <LongitudeDegrees>-1.85930888168513774871826171875</LongitudeDegrees>
            </Position>
            <AltitudeMeters>92.1999969482421875</AltitudeMeters>
            <DistanceMeters>NAN</DistanceMeters>
          </Trackpoint>
          <Trackpoint>
            <Time>2021-08-11T13:09:43.000Z</Time>
            <Position>
              <LatitudeDegrees>43.2998563349246978759765625</LatitudeDegrees>
              <LongitudeDegrees>-1.859340481460094451904296875</LongitudeDegrees>
            </Position>
            <AltitudeMeters>92.1999969482421875</AltitudeMeters>
            <DistanceMeters>NAN</DistanceMeters>
          </Trackpoint>
          <Trackpoint>
            <Time>2021-08-11T13:09:44.000Z</Time>
            <Position>
              <LatitudeDegrees>43.2998746074736118316650390625</LatitudeDegrees>
              <LongitudeDegrees>-1.8593691475689411163330078125</LongitudeDegrees>
            </Position>
            <AltitudeMeters>92.40000152587890625</AltitudeMeters>
            <DistanceMeters>NAN</DistanceMeters>
          </Trackpoint>
          <Trackpoint>
            <Time>2021-08-11T13:09:45.000Z</Time>
            <Position>
              <LatitudeDegrees>43.29989899881184101104736328125</LatitudeDegrees>
              <LongitudeDegrees>-1.859382055699825286865234375</LongitudeDegrees>
            </Position>
            <AltitudeMeters>92.40000152587890625</AltitudeMeters>
            <DistanceMeters>NAN</DistanceMeters>
          </Trackpoint>
          <Trackpoint>
            <Time>2021-08-11T13:09:46.000Z</Time>
            <Position>
              <LatitudeDegrees>43.299920372664928436279296875</LatitudeDegrees>
              <LongitudeDegrees>-1.85940678231418132781982421875</LongitudeDegrees>
            </Position>
            <AltitudeMeters>92.40000152587890625</AltitudeMeters>
            <DistanceMeters>NAN</DistanceMeters>
          </Trackpoint>
          <Trackpoint>
            <Time>2021-08-11T13:09:47.000Z</Time>
            <Position>
              <LatitudeDegrees>43.2999366335570812225341796875</LatitudeDegrees>
              <LongitudeDegrees>-1.85943159274756908416748046875</LongitudeDegrees>
            </Position>
            <AltitudeMeters>92.59999847412109375</AltitudeMeters>
            <DistanceMeters>NAN</DistanceMeters>
          </Trackpoint>
          <Trackpoint>
            <Time>2021-08-11T13:09:48.000Z</Time>
            <Position>
              <LatitudeDegrees>43.29995331354439258575439453125</LatitudeDegrees>
              <LongitudeDegrees>-1.859461180865764617919921875</LongitudeDegrees>
            </Position>
            <AltitudeMeters>92.59999847412109375</AltitudeMeters>
            <DistanceMeters>NAN</DistanceMeters>
          </Trackpoint>
          <Trackpoint>
            <Time>2021-08-11T13:09:49.000Z</Time>
            <Position>
              <LatitudeDegrees>43.2999688200652599334716796875</LatitudeDegrees>
              <LongitudeDegrees>-1.85949194245040416717529296875</LongitudeDegrees>
            </Position>
            <AltitudeMeters>92.59999847412109375</AltitudeMeters>
            <DistanceMeters>NAN</DistanceMeters>
          </Trackpoint>
          <Trackpoint>
            <Time>2021-08-11T13:09:50.000Z</Time>
            <Position>
              <LatitudeDegrees>43.2999818958342075347900390625</LatitudeDegrees>
              <LongitudeDegrees>-1.8595230393111705780029296875</LongitudeDegrees>
            </Position>
            <AltitudeMeters>92.59999847412109375</AltitudeMeters>
            <DistanceMeters>NAN</DistanceMeters>
          </Trackpoint>
          <Trackpoint>
            <Time>2021-08-11T13:09:51.000Z</Time>
            <Position>
              <LatitudeDegrees>43.2999969832599163055419921875</LatitudeDegrees>
              <LongitudeDegrees>-1.8595532141625881195068359375</LongitudeDegrees>
            </Position>
            <AltitudeMeters>92.1999969482421875</AltitudeMeters>
            <DistanceMeters>NAN</DistanceMeters>
          </Trackpoint>
          <Trackpoint>
            <Time>2021-08-11T13:09:52.000Z</Time>
            <Position>
              <LatitudeDegrees>43.30001047812402248382568359375</LatitudeDegrees>
              <LongitudeDegrees>-1.85958833433687686920166015625</LongitudeDegrees>
            </Position>
            <AltitudeMeters>92.1999969482421875</AltitudeMeters>
            <DistanceMeters>NAN</DistanceMeters>
          </Trackpoint>
          <Trackpoint>
            <Time>2021-08-11T13:09:53.000Z</Time>
            <Position>
              <LatitudeDegrees>43.30002036876976490020751953125</LatitudeDegrees>
              <LongitudeDegrees>-1.85962253250181674957275390625</LongitudeDegrees>
            </Position>
            <AltitudeMeters>92.1999969482421875</AltitudeMeters>
            <DistanceMeters>NAN</DistanceMeters>
          </Trackpoint>
          <Trackpoint>
            <Time>2021-08-11T13:09:54.000Z</Time>
            <Position>
              <LatitudeDegrees>43.300030343234539031982421875</LatitudeDegrees>
              <LongitudeDegrees>-1.8596573173999786376953125</LongitudeDegrees>
            </Position>
            <AltitudeMeters>92.1999969482421875</AltitudeMeters>
            <DistanceMeters>NAN</DistanceMeters>
          </Trackpoint>
          <Trackpoint>
            <Time>2021-08-11T13:09:55.000Z</Time>
            <Position>
              <LatitudeDegrees>43.30004283227026462554931640625</LatitudeDegrees>
              <LongitudeDegrees>-1.8596900068223476409912109375</LongitudeDegrees>
            </Position>
            <AltitudeMeters>92.1999969482421875</AltitudeMeters>
            <DistanceMeters>NAN</DistanceMeters>
          </Trackpoint>
          <Trackpoint>
            <Time>2021-08-11T13:09:56.000Z</Time>
            <Position>
              <LatitudeDegrees>43.30005641095340251922607421875</LatitudeDegrees>
              <LongitudeDegrees>-1.8597218580543994903564453125</LongitudeDegrees>
            </Position>
            <AltitudeMeters>92.1999969482421875</AltitudeMeters>
            <DistanceMeters>NAN</DistanceMeters>
          </Trackpoint>
          <Trackpoint>
            <Time>2021-08-11T13:09:57.000Z</Time>
            <Position>
              <LatitudeDegrees>43.3000695705413818359375</LatitudeDegrees>
              <LongitudeDegrees>-1.859752200543880462646484375</LongitudeDegrees>
            </Position>
            <AltitudeMeters>92.1999969482421875</AltitudeMeters>
            <DistanceMeters>NAN</DistanceMeters>
          </Trackpoint>
          <Trackpoint>
            <Time>2021-08-11T13:09:58.000Z</Time>
            <Position>
              <LatitudeDegrees>43.30008222721517086029052734375</LatitudeDegrees>
              <LongitudeDegrees>-1.8597791902720928192138671875</LongitudeDegrees>
            </Position>
            <AltitudeMeters>92.1999969482421875</AltitudeMeters>
            <DistanceMeters>NAN</DistanceMeters>
          </Trackpoint>
          <Trackpoint>
            <Time>2021-08-11T13:09:59.000Z</Time>
            <Position>
              <LatitudeDegrees>43.30009111203253269195556640625</LatitudeDegrees>
              <LongitudeDegrees>-1.85979880392551422119140625</LongitudeDegrees>
            </Position>
            <AltitudeMeters>92.1999969482421875</AltitudeMeters>
            <DistanceMeters>NAN</DistanceMeters>
          </Trackpoint>
          <Trackpoint>
            <Time>2021-08-11T13:10:00.000Z</Time>
            <Position>
              <LatitudeDegrees>43.30009974539279937744140625</LatitudeDegrees>
              <LongitudeDegrees>-1.85981229878962039947509765625</LongitudeDegrees>
            </Position>
            <AltitudeMeters>92.1999969482421875</AltitudeMeters>
            <DistanceMeters>NAN</DistanceMeters>
          </Trackpoint>
          <Trackpoint>
            <Time>2021-08-11T13:10:01.000Z</Time>
            <Position>
              <LatitudeDegrees>43.3001072891056537628173828125</LatitudeDegrees>
              <LongitudeDegrees>-1.8598204292356967926025390625</LongitudeDegrees>
            </Position>
            <AltitudeMeters>92</AltitudeMeters>
            <DistanceMeters>NAN</DistanceMeters>
          </Trackpoint>
          <Trackpoint>
            <Time>2021-08-11T13:10:02.000Z</Time>
            <Position>
              <LatitudeDegrees>43.30011072568595409393310546875</LatitudeDegrees>
              <LongitudeDegrees>-1.85982487164437770843505859375</LongitudeDegrees>
            </Position>
            <AltitudeMeters>92</AltitudeMeters>
            <DistanceMeters>NAN</DistanceMeters>
          </Trackpoint>
          <Trackpoint>
            <Time>2021-08-11T13:10:07.000Z</Time>
            <Position>
              <LatitudeDegrees>43.3001072891056537628173828125</LatitudeDegrees>
              <LongitudeDegrees>-1.859831325709819793701171875</LongitudeDegrees>
            </Position>
            <AltitudeMeters>92</AltitudeMeters>
            <DistanceMeters>NAN</DistanceMeters>
          </Trackpoint>
          <Trackpoint>
            <Time>2021-08-11T13:10:17.000Z</Time>
            <Position>
              <LatitudeDegrees>43.3001072891056537628173828125</LatitudeDegrees>
              <LongitudeDegrees>-1.859831325709819793701171875</LongitudeDegrees>
            </Position>
            <AltitudeMeters>91.8000030517578125</AltitudeMeters>
            <DistanceMeters>NAN</DistanceMeters>
          </Trackpoint>
          <Trackpoint>
            <Time>2021-08-11T13:10:34.000Z</Time>
            <Position>
              <LatitudeDegrees>43.3001072891056537628173828125</LatitudeDegrees>
              <LongitudeDegrees>-1.859831325709819793701171875</LongitudeDegrees>
            </Position>
            <AltitudeMeters>92</AltitudeMeters>
            <DistanceMeters>NAN</DistanceMeters>
          </Trackpoint>
          <Trackpoint>
            <Time>2021-08-11T13:11:36.000Z</Time>
            <Position>
              <LatitudeDegrees>43.3001072891056537628173828125</LatitudeDegrees>
              <LongitudeDegrees>-1.859831325709819793701171875</LongitudeDegrees>
            </Position>
            <AltitudeMeters>91.59999847412109375</AltitudeMeters>
            <DistanceMeters>NAN</DistanceMeters>
          </Trackpoint>
          <Trackpoint>
            <Time>2021-08-11T13:12:44.000Z</Time>
            <Position>
              <LatitudeDegrees>43.30010720528662204742431640625</LatitudeDegrees>
              <LongitudeDegrees>-1.85982696712017059326171875</LongitudeDegrees>
            </Position>
            <AltitudeMeters>92</AltitudeMeters>
            <DistanceMeters>NAN</DistanceMeters>
          </Trackpoint>
          <Trackpoint>
            <Time>2021-08-11T13:13:01.000Z</Time>
            <Position>
              <LatitudeDegrees>43.30005624331533908843994140625</LatitudeDegrees>
              <LongitudeDegrees>-1.8598911724984645843505859375</LongitudeDegrees>
            </Position>
            <AltitudeMeters>91.8000030517578125</AltitudeMeters>
            <DistanceMeters>NAN</DistanceMeters>
          </Trackpoint>
          <Trackpoint>
            <Time>2021-08-11T13:13:02.000Z</Time>
            <Position>
              <LatitudeDegrees>43.30004232935607433319091796875</LatitudeDegrees>
              <LongitudeDegrees>-1.85989980585873126983642578125</LongitudeDegrees>
            </Position>
            <AltitudeMeters>91.8000030517578125</AltitudeMeters>
            <DistanceMeters>NAN</DistanceMeters>
          </Trackpoint>
          <Trackpoint>
            <Time>2021-08-11T13:13:05.000Z</Time>
            <Position>
              <LatitudeDegrees>43.29996655695140361785888671875</LatitudeDegrees>
              <LongitudeDegrees>-1.8599585629999637603759765625</LongitudeDegrees>
            </Position>
            <AltitudeMeters>91.40000152587890625</AltitudeMeters>
            <DistanceMeters>NAN</DistanceMeters>
          </Trackpoint>
          <Trackpoint>
            <Time>2021-08-11T13:13:06.000Z</Time>
            <Position>
              <LatitudeDegrees>43.29994593746960163116455078125</LatitudeDegrees>
              <LongitudeDegrees>-1.8599820323288440704345703125</LongitudeDegrees>
            </Position>
            <AltitudeMeters>91.40000152587890625</AltitudeMeters>
            <DistanceMeters>NAN</DistanceMeters>
          </Trackpoint>
          <Trackpoint>
            <Time>2021-08-11T13:13:07.000Z</Time>
            <Position>
              <LatitudeDegrees>43.29989447258412837982177734375</LatitudeDegrees>
              <LongitudeDegrees>-1.860017739236354827880859375</LongitudeDegrees>
            </Position>
            <AltitudeMeters>91.1999969482421875</AltitudeMeters>
            <DistanceMeters>NAN</DistanceMeters>
          </Trackpoint>
          <Trackpoint>
            <Time>2021-08-11T13:13:09.000Z</Time>
            <Position>
              <LatitudeDegrees>43.299853317439556121826171875</LatitudeDegrees>
              <LongitudeDegrees>-1.8600413762032985687255859375</LongitudeDegrees>
            </Position>
            <AltitudeMeters>90.59999847412109375</AltitudeMeters>
            <DistanceMeters>NAN</DistanceMeters>
          </Trackpoint>
          <Trackpoint>
            <Time>2021-08-11T13:13:10.000Z</Time>
            <Position>
              <LatitudeDegrees>43.2998333685100078582763671875</LatitudeDegrees>
              <LongitudeDegrees>-1.860060654580593109130859375</LongitudeDegrees>
            </Position>
            <AltitudeMeters>90.1999969482421875</AltitudeMeters>
            <DistanceMeters>NAN</DistanceMeters>
          </Trackpoint>
          <Trackpoint>
            <Time>2021-08-11T13:13:11.000Z</Time>
            <Position>
              <LatitudeDegrees>43.2998333685100078582763671875</LatitudeDegrees>
              <LongitudeDegrees>-1.860060654580593109130859375</LongitudeDegrees>
            </Position>
            <AltitudeMeters>90</AltitudeMeters>
            <DistanceMeters>NAN</DistanceMeters>
          </Trackpoint>
          <Trackpoint>
            <Time>2021-08-11T13:13:12.000Z</Time>
            <Position>
              <LatitudeDegrees>43.2997914589941501617431640625</LatitudeDegrees>
              <LongitudeDegrees>-1.86009359546005725860595703125</LongitudeDegrees>
            </Position>
            <AltitudeMeters>89.59999847412109375</AltitudeMeters>
            <DistanceMeters>NAN</DistanceMeters>
          </Trackpoint>
          <Trackpoint>
            <Time>2021-08-11T13:13:13.000Z</Time>
            <Position>
              <LatitudeDegrees>43.2997706718742847442626953125</LatitudeDegrees>
              <LongitudeDegrees>-1.86010633595287799835205078125</LongitudeDegrees>
            </Position>
            <AltitudeMeters>89.40000152587890625</AltitudeMeters>
            <DistanceMeters>NAN</DistanceMeters>
          </Trackpoint>
          <Trackpoint>
            <Time>2021-08-11T13:13:14.000Z</Time>
            <Position>
              <LatitudeDegrees>43.2997463643550872802734375</LatitudeDegrees>
              <LongitudeDegrees>-1.8601171486079692840576171875</LongitudeDegrees>
            </Position>
            <AltitudeMeters>89.1999969482421875</AltitudeMeters>
            <DistanceMeters>NAN</DistanceMeters>
          </Trackpoint>
          <Trackpoint>
            <Time>2021-08-11T13:13:17.000Z</Time>
            <Position>
              <LatitudeDegrees>43.29965508542954921722412109375</LatitudeDegrees>
              <LongitudeDegrees>-1.8601687811315059661865234375</LongitudeDegrees>
            </Position>
            <AltitudeMeters>88.1999969482421875</AltitudeMeters>
            <DistanceMeters>NAN</DistanceMeters>
          </Trackpoint>
          <Trackpoint>
            <Time>2021-08-11T13:13:18.000Z</Time>
            <Position>
              <LatitudeDegrees>43.29965508542954921722412109375</LatitudeDegrees>
              <LongitudeDegrees>-1.8601687811315059661865234375</LongitudeDegrees>
            </Position>
            <AltitudeMeters>88.1999969482421875</AltitudeMeters>
            <DistanceMeters>NAN</DistanceMeters>
          </Trackpoint>
          <Trackpoint>
            <Time>2021-08-11T13:13:23.000Z</Time>
            <Position>
              <LatitudeDegrees>43.2994424365460872650146484375</LatitudeDegrees>
              <LongitudeDegrees>-1.86030934564769268035888671875</LongitudeDegrees>
            </Position>
            <AltitudeMeters>87</AltitudeMeters>
            <DistanceMeters>NAN</DistanceMeters>
          </Trackpoint>
          <Trackpoint>
            <Time>2021-08-11T13:13:25.000Z</Time>
            <Position>
              <LatitudeDegrees>43.29935082234442234039306640625</LatitudeDegrees>
              <LongitudeDegrees>-1.86035863123834133148193359375</LongitudeDegrees>
            </Position>
            <AltitudeMeters>86.59999847412109375</AltitudeMeters>
            <DistanceMeters>NAN</DistanceMeters>
          </Trackpoint>
          <Trackpoint>
            <Time>2021-08-11T13:13:26.000Z</Time>
            <Position>
              <LatitudeDegrees>43.2993089966475963592529296875</LatitudeDegrees>
              <LongitudeDegrees>-1.860367096960544586181640625</LongitudeDegrees>
            </Position>
            <AltitudeMeters>86.59999847412109375</AltitudeMeters>
            <DistanceMeters>NAN</DistanceMeters>
          </Trackpoint>
          <Trackpoint>
            <Time>2021-08-11T13:13:27.000Z</Time>
            <Position>
              <LatitudeDegrees>43.2992660813033580780029296875</LatitudeDegrees>
              <LongitudeDegrees>-1.86034706421196460723876953125</LongitudeDegrees>
            </Position>
            <AltitudeMeters>86.40000152587890625</AltitudeMeters>
            <DistanceMeters>NAN</DistanceMeters>
          </Trackpoint>
          <Trackpoint>
            <Time>2021-08-11T13:13:28.000Z</Time>
            <Position>
              <LatitudeDegrees>43.29923012293875217437744140625</LatitudeDegrees>
              <LongitudeDegrees>-1.8603052385151386260986328125</LongitudeDegrees>
            </Position>
            <AltitudeMeters>86</AltitudeMeters>
            <DistanceMeters>NAN</DistanceMeters>
          </Trackpoint>
          <Trackpoint>
            <Time>2021-08-11T13:13:30.000Z</Time>
            <Position>
              <LatitudeDegrees>43.29921587370336055755615234375</LatitudeDegrees>
              <LongitudeDegrees>-1.86025368981063365936279296875</LongitudeDegrees>
            </Position>
            <AltitudeMeters>85.59999847412109375</AltitudeMeters>
            <DistanceMeters>NAN</DistanceMeters>
          </Trackpoint>
          <Trackpoint>
            <Time>2021-08-11T13:13:31.000Z</Time>
            <Position>
              <LatitudeDegrees>43.2991691865026950836181640625</LatitudeDegrees>
              <LongitudeDegrees>-1.8601977825164794921875</LongitudeDegrees>
            </Position>
            <AltitudeMeters>85.59999847412109375</AltitudeMeters>
            <DistanceMeters>NAN</DistanceMeters>
          </Trackpoint>
          <Trackpoint>
            <Time>2021-08-11T13:13:32.000Z</Time>
            <Position>
              <LatitudeDegrees>43.2991691865026950836181640625</LatitudeDegrees>
              <LongitudeDegrees>-1.8601977825164794921875</LongitudeDegrees>
            </Position>
            <AltitudeMeters>85.59999847412109375</AltitudeMeters>
            <DistanceMeters>NAN</DistanceMeters>
          </Trackpoint>
          <Trackpoint>
            <Time>2021-08-11T13:13:33.000Z</Time>
            <Position>
              <LatitudeDegrees>43.299121074378490447998046875</LatitudeDegrees>
              <LongitudeDegrees>-1.8601858802139759063720703125</LongitudeDegrees>
            </Position>
            <AltitudeMeters>85.59999847412109375</AltitudeMeters>
            <DistanceMeters>NAN</DistanceMeters>
          </Trackpoint>
          <Trackpoint>
            <Time>2021-08-11T13:13:34.000Z</Time>
            <Position>
              <LatitudeDegrees>43.29908126033842563629150390625</LatitudeDegrees>
              <LongitudeDegrees>-1.86012527905404567718505859375</LongitudeDegrees>
            </Position>
            <AltitudeMeters>85.59999847412109375</AltitudeMeters>
            <DistanceMeters>NAN</DistanceMeters>
          </Trackpoint>
          <Trackpoint>
            <Time>2021-08-11T13:13:35.000Z</Time>
            <Position>
              <LatitudeDegrees>43.29908126033842563629150390625</LatitudeDegrees>
              <LongitudeDegrees>-1.86012527905404567718505859375</LongitudeDegrees>
            </Position>
            <AltitudeMeters>85.40000152587890625</AltitudeMeters>
            <DistanceMeters>NAN</DistanceMeters>
          </Trackpoint>
          <Trackpoint>
            <Time>2021-08-11T13:13:36.000Z</Time>
            <Position>
              <LatitudeDegrees>43.299084194004535675048828125</LatitudeDegrees>
              <LongitudeDegrees>-1.8600567989051342010498046875</LongitudeDegrees>
            </Position>
            <AltitudeMeters>85.40000152587890625</AltitudeMeters>
            <DistanceMeters>NAN</DistanceMeters>
          </Trackpoint>
          <Trackpoint>
            <Time>2021-08-11T13:13:37.000Z</Time>
            <Position>
              <LatitudeDegrees>43.2991004548966884613037109375</LatitudeDegrees>
              <LongitudeDegrees>-1.860045902431011199951171875</LongitudeDegrees>
            </Position>
            <AltitudeMeters>85.40000152587890625</AltitudeMeters>
            <DistanceMeters>NAN</DistanceMeters>
          </Trackpoint>
          <Trackpoint>
            <Time>2021-08-11T13:13:38.000Z</Time>
            <Position>
              <LatitudeDegrees>43.29911629669368267059326171875</LatitudeDegrees>
              <LongitudeDegrees>-1.8600541166961193084716796875</LongitudeDegrees>
            </Position>
            <AltitudeMeters>85.40000152587890625</AltitudeMeters>
            <DistanceMeters>NAN</DistanceMeters>
          </Trackpoint>
          <Trackpoint>
            <Time>2021-08-11T13:13:39.000Z</Time>
            <Position>
              <LatitudeDegrees>43.29911629669368267059326171875</LatitudeDegrees>
              <LongitudeDegrees>-1.8600541166961193084716796875</LongitudeDegrees>
            </Position>
            <AltitudeMeters>85.40000152587890625</AltitudeMeters>
            <DistanceMeters>NAN</DistanceMeters>
          </Trackpoint>
          <Trackpoint>
            <Time>2021-08-11T13:13:40.000Z</Time>
            <Position>
              <LatitudeDegrees>43.29913909547030925750732421875</LatitudeDegrees>
              <LongitudeDegrees>-1.8600923381745815277099609375</LongitudeDegrees>
            </Position>
            <AltitudeMeters>85.40000152587890625</AltitudeMeters>
            <DistanceMeters>NAN</DistanceMeters>
          </Trackpoint>
          <Trackpoint>
            <Time>2021-08-11T13:13:41.000Z</Time>
            <Position>
              <LatitudeDegrees>43.29913909547030925750732421875</LatitudeDegrees>
              <LongitudeDegrees>-1.8600923381745815277099609375</LongitudeDegrees>
            </Position>
            <AltitudeMeters>85.40000152587890625</AltitudeMeters>
            <DistanceMeters>NAN</DistanceMeters>
          </Trackpoint>
          <Trackpoint>
            <Time>2021-08-11T13:13:44.000Z</Time>
            <Position>
              <LatitudeDegrees>43.29917413182556629180908203125</LatitudeDegrees>
              <LongitudeDegrees>-1.86014019884169101715087890625</LongitudeDegrees>
            </Position>
            <AltitudeMeters>85.40000152587890625</AltitudeMeters>
            <DistanceMeters>NAN</DistanceMeters>
          </Trackpoint>
          <Trackpoint>
            <Time>2021-08-11T13:13:45.000Z</Time>
            <Position>
              <LatitudeDegrees>43.2991983555257320404052734375</LatitudeDegrees>
              <LongitudeDegrees>-1.86017540283501148223876953125</LongitudeDegrees>
            </Position>
            <AltitudeMeters>85.40000152587890625</AltitudeMeters>
            <DistanceMeters>NAN</DistanceMeters>
          </Trackpoint>
          <Trackpoint>
            <Time>2021-08-11T13:13:46.000Z</Time>
            <Position>
              <LatitudeDegrees>43.29920866526663303375244140625</LatitudeDegrees>
              <LongitudeDegrees>-1.8601909093558788299560546875</LongitudeDegrees>
            </Position>
            <AltitudeMeters>85.40000152587890625</AltitudeMeters>
            <DistanceMeters>NAN</DistanceMeters>
          </Trackpoint>
          <Trackpoint>
            <Time>2021-08-11T13:13:47.000Z</Time>
            <Position>
              <LatitudeDegrees>43.29921620897948741912841796875</LatitudeDegrees>
              <LongitudeDegrees>-1.86020624823868274688720703125</LongitudeDegrees>
            </Position>
            <AltitudeMeters>85.40000152587890625</AltitudeMeters>
            <DistanceMeters>NAN</DistanceMeters>
          </Trackpoint>
          <Trackpoint>
            <Time>2021-08-11T13:13:48.000Z</Time>
            <Position>
              <LatitudeDegrees>43.29921620897948741912841796875</LatitudeDegrees>
              <LongitudeDegrees>-1.86020624823868274688720703125</LongitudeDegrees>
            </Position>
            <AltitudeMeters>85.40000152587890625</AltitudeMeters>
            <DistanceMeters>NAN</DistanceMeters>
          </Trackpoint>
          <Trackpoint>
            <Time>2021-08-11T13:13:49.000Z</Time>
            <Position>
              <LatitudeDegrees>43.299221657216548919677734375</LatitudeDegrees>
              <LongitudeDegrees>-1.8602130375802516937255859375</LongitudeDegrees>
            </Position>
            <AltitudeMeters>85.40000152587890625</AltitudeMeters>
            <DistanceMeters>NAN</DistanceMeters>
          </Trackpoint>
          <Trackpoint>
            <Time>2021-08-11T13:13:50.000Z</Time>
            <Position>
              <LatitudeDegrees>43.29922442324459552764892578125</LatitudeDegrees>
              <LongitudeDegrees>-1.8602177314460277557373046875</LongitudeDegrees>
            </Position>
            <AltitudeMeters>85.40000152587890625</AltitudeMeters>
            <DistanceMeters>NAN</DistanceMeters>
          </Trackpoint>
          <Trackpoint>
            <Time>2021-08-11T13:13:52.000Z</Time>
            <Position>
              <LatitudeDegrees>43.29922442324459552764892578125</LatitudeDegrees>
              <LongitudeDegrees>-1.8602177314460277557373046875</LongitudeDegrees>
            </Position>
            <AltitudeMeters>85.40000152587890625</AltitudeMeters>
            <DistanceMeters>NAN</DistanceMeters>
          </Trackpoint>
          <Trackpoint>
            <Time>2021-08-11T13:14:02.000Z</Time>
            <Position>
              <LatitudeDegrees>43.29922442324459552764892578125</LatitudeDegrees>
              <LongitudeDegrees>-1.8602177314460277557373046875</LongitudeDegrees>
            </Position>
            <AltitudeMeters>85</AltitudeMeters>
            <DistanceMeters>NAN</DistanceMeters>
          </Trackpoint>
          <Trackpoint>
            <Time>2021-08-11T13:14:06.000Z</Time>
            <Position>
              <LatitudeDegrees>43.29922442324459552764892578125</LatitudeDegrees>
              <LongitudeDegrees>-1.8602177314460277557373046875</LongitudeDegrees>
            </Position>
            <AltitudeMeters>85</AltitudeMeters>
            <DistanceMeters>NAN</DistanceMeters>
          </Trackpoint>
          <Trackpoint>
            <Time>2021-08-11T14:35:45.000Z</Time>
            <Position>
              <LatitudeDegrees>43.2992697693407535552978515625</LatitudeDegrees>
              <LongitudeDegrees>-1.86017967760562896728515625</LongitudeDegrees>
            </Position>
            <AltitudeMeters>86.8000030517578125</AltitudeMeters>
            <DistanceMeters>NAN</DistanceMeters>
          </Trackpoint>
          <Trackpoint>
            <Time>2021-08-11T14:35:54.000Z</Time>
            <Position>
              <LatitudeDegrees>43.299375884234905242919921875</LatitudeDegrees>
              <LongitudeDegrees>-1.86025201342999935150146484375</LongitudeDegrees>
            </Position>
            <AltitudeMeters>87.1999969482421875</AltitudeMeters>
            <DistanceMeters>NAN</DistanceMeters>
          </Trackpoint>
          <Trackpoint>
            <Time>2021-08-11T14:35:55.000Z</Time>
            <Position>
              <LatitudeDegrees>43.2993663288652896881103515625</LatitudeDegrees>
              <LongitudeDegrees>-1.86025167815387248992919921875</LongitudeDegrees>
            </Position>
            <AltitudeMeters>87</AltitudeMeters>
            <DistanceMeters>NAN</DistanceMeters>
          </Trackpoint>
          <Trackpoint>
            <Time>2021-08-11T14:35:57.000Z</Time>
            <Position>
              <LatitudeDegrees>43.299369849264621734619140625</LatitudeDegrees>
              <LongitudeDegrees>-1.86026961542665958404541015625</LongitudeDegrees>
            </Position>
            <AltitudeMeters>87.1999969482421875</AltitudeMeters>
            <DistanceMeters>NAN</DistanceMeters>
          </Trackpoint>
          <Trackpoint>
            <Time>2021-08-11T14:35:59.000Z</Time>
            <Position>
              <LatitudeDegrees>43.29936004243791103363037109375</LatitudeDegrees>
              <LongitudeDegrees>-1.8602958507835865020751953125</LongitudeDegrees>
            </Position>
            <AltitudeMeters>87.1999969482421875</AltitudeMeters>
            <DistanceMeters>NAN</DistanceMeters>
          </Trackpoint>
          <Trackpoint>
            <Time>2021-08-11T14:36:00.000Z</Time>
            <Position>
              <LatitudeDegrees>43.2993589527904987335205078125</LatitudeDegrees>
              <LongitudeDegrees>-1.860298700630664825439453125</LongitudeDegrees>
            </Position>
            <AltitudeMeters>87.1999969482421875</AltitudeMeters>
            <DistanceMeters>NAN</DistanceMeters>
          </Trackpoint>
          <Trackpoint>
            <Time>2021-08-11T14:36:03.000Z</Time>
            <Position>
              <LatitudeDegrees>43.29938418231904506683349609375</LatitudeDegrees>
              <LongitudeDegrees>-1.86030800454318523406982421875</LongitudeDegrees>
            </Position>
            <AltitudeMeters>87</AltitudeMeters>
            <DistanceMeters>NAN</DistanceMeters>
          </Trackpoint>
          <Trackpoint>
            <Time>2021-08-11T14:36:20.000Z</Time>
            <Position>
              <LatitudeDegrees>43.29941251315176486968994140625</LatitudeDegrees>
              <LongitudeDegrees>-1.86034471727907657623291015625</LongitudeDegrees>
            </Position>
            <AltitudeMeters>87</AltitudeMeters>
            <DistanceMeters>NAN</DistanceMeters>
          </Trackpoint>
          <Trackpoint>
            <Time>2021-08-11T14:37:06.000Z</Time>
            <Position>
              <LatitudeDegrees>43.299355767667293548583984375</LatitudeDegrees>
              <LongitudeDegrees>-1.8603649176657199859619140625</LongitudeDegrees>
            </Position>
            <AltitudeMeters>87.1999969482421875</AltitudeMeters>
            <DistanceMeters>NAN</DistanceMeters>
          </Trackpoint>
          <Trackpoint>
            <Time>2021-08-11T14:37:09.000Z</Time>
            <Position>
              <LatitudeDegrees>43.29930840991437435150146484375</LatitudeDegrees>
              <LongitudeDegrees>-1.8603686057031154632568359375</LongitudeDegrees>
            </Position>
            <AltitudeMeters>87.1999969482421875</AltitudeMeters>
            <DistanceMeters>NAN</DistanceMeters>
          </Trackpoint>
          <Trackpoint>
            <Time>2021-08-11T14:37:11.000Z</Time>
            <Position>
              <LatitudeDegrees>43.299278318881988525390625</LatitudeDegrees>
              <LongitudeDegrees>-1.86038696207106113433837890625</LongitudeDegrees>
            </Position>
            <AltitudeMeters>87</AltitudeMeters>
            <DistanceMeters>NAN</DistanceMeters>
          </Trackpoint>
          <Trackpoint>
            <Time>2021-08-11T14:37:12.000Z</Time>
            <Position>
              <LatitudeDegrees>43.2992647401988506317138671875</LatitudeDegrees>
              <LongitudeDegrees>-1.86039718799293041229248046875</LongitudeDegrees>
            </Position>
            <AltitudeMeters>87</AltitudeMeters>
            <DistanceMeters>NAN</DistanceMeters>
          </Trackpoint>
          <Trackpoint>
            <Time>2021-08-11T14:37:16.000Z</Time>
            <Position>
              <LatitudeDegrees>43.29925610683858394622802734375</LatitudeDegrees>
              <LongitudeDegrees>-1.8604648299515247344970703125</LongitudeDegrees>
            </Position>
            <AltitudeMeters>86.8000030517578125</AltitudeMeters>
            <DistanceMeters>NAN</DistanceMeters>
          </Trackpoint>
          <Trackpoint>
            <Time>2021-08-11T14:37:19.000Z</Time>
            <Position>
              <LatitudeDegrees>43.29925811849534511566162109375</LatitudeDegrees>
              <LongitudeDegrees>-1.86051629483699798583984375</LongitudeDegrees>
            </Position>
            <AltitudeMeters>86.8000030517578125</AltitudeMeters>
            <DistanceMeters>NAN</DistanceMeters>
          </Trackpoint>
          <Trackpoint>
            <Time>2021-08-11T14:37:25.000Z</Time>
            <Position>
              <LatitudeDegrees>43.29926415346562862396240234375</LatitudeDegrees>
              <LongitudeDegrees>-1.8606284447014331817626953125</LongitudeDegrees>
            </Position>
            <AltitudeMeters>86</AltitudeMeters>
            <DistanceMeters>NAN</DistanceMeters>
          </Trackpoint>
          <Trackpoint>
            <Time>2021-08-11T14:37:26.000Z</Time>
            <Position>
              <LatitudeDegrees>43.2992701046168804168701171875</LatitudeDegrees>
              <LongitudeDegrees>-1.86064545996487140655517578125</LongitudeDegrees>
            </Position>
            <AltitudeMeters>85.8000030517578125</AltitudeMeters>
            <DistanceMeters>NAN</DistanceMeters>
          </Trackpoint>
          <Trackpoint>
            <Time>2021-08-11T14:37:27.000Z</Time>
            <Position>
              <LatitudeDegrees>43.2992724515497684478759765625</LatitudeDegrees>
              <LongitudeDegrees>-1.8606613017618656158447265625</LongitudeDegrees>
            </Position>
            <AltitudeMeters>85.8000030517578125</AltitudeMeters>
            <DistanceMeters>NAN</DistanceMeters>
          </Trackpoint>
          <Trackpoint>
            <Time>2021-08-11T14:37:29.000Z</Time>
            <Position>
              <LatitudeDegrees>43.299275301396846771240234375</LatitudeDegrees>
              <LongitudeDegrees>-1.86068435199558734893798828125</LongitudeDegrees>
            </Position>
            <AltitudeMeters>85.40000152587890625</AltitudeMeters>
            <DistanceMeters>NAN</DistanceMeters>
          </Trackpoint>
          <Trackpoint>
            <Time>2021-08-11T14:37:30.000Z</Time>
            <Position>
              <LatitudeDegrees>43.29927488230168819427490234375</LatitudeDegrees>
              <LongitudeDegrees>-1.860692985355854034423828125</LongitudeDegrees>
            </Position>
            <AltitudeMeters>85.40000152587890625</AltitudeMeters>
            <DistanceMeters>NAN</DistanceMeters>
          </Trackpoint>
          <Trackpoint>
            <Time>2021-08-11T14:37:31.000Z</Time>
            <Position>
              <LatitudeDegrees>43.29927639104425907135009765625</LatitudeDegrees>
              <LongitudeDegrees>-1.860702373087406158447265625</LongitudeDegrees>
            </Position>
            <AltitudeMeters>85.1999969482421875</AltitudeMeters>
            <DistanceMeters>NAN</DistanceMeters>
          </Trackpoint>
          <Trackpoint>
            <Time>2021-08-11T14:37:32.000Z</Time>
            <Position>
              <LatitudeDegrees>43.299278654158115386962890625</LatitudeDegrees>
              <LongitudeDegrees>-1.86070966534316539764404296875</LongitudeDegrees>
            </Position>
            <AltitudeMeters>85</AltitudeMeters>
            <DistanceMeters>NAN</DistanceMeters>
          </Trackpoint>
          <Trackpoint>
            <Time>2021-08-11T14:37:33.000Z</Time>
            <Position>
              <LatitudeDegrees>43.2992788217961788177490234375</LatitudeDegrees>
              <LongitudeDegrees>-1.86071209609508514404296875</LongitudeDegrees>
            </Position>
            <AltitudeMeters>85</AltitudeMeters>
            <DistanceMeters>NAN</DistanceMeters>
          </Trackpoint>
          <Trackpoint>
            <Time>2021-08-11T14:37:35.000Z</Time>
            <Position>
              <LatitudeDegrees>43.2992841862142086029052734375</LatitudeDegrees>
              <LongitudeDegrees>-1.86071469448506832122802734375</LongitudeDegrees>
            </Position>
            <AltitudeMeters>84.8000030517578125</AltitudeMeters>
            <DistanceMeters>NAN</DistanceMeters>
          </Trackpoint>
          <Trackpoint>
            <Time>2021-08-11T14:37:42.000Z</Time>
            <Position>
              <LatitudeDegrees>43.29927605576813220977783203125</LatitudeDegrees>
              <LongitudeDegrees>-1.860723830759525299072265625</LongitudeDegrees>
            </Position>
            <AltitudeMeters>84.40000152587890625</AltitudeMeters>
            <DistanceMeters>NAN</DistanceMeters>
          </Trackpoint>
          <Trackpoint>
            <Time>2021-08-11T14:37:50.000Z</Time>
            <Position>
              <LatitudeDegrees>43.29927102662622928619384765625</LatitudeDegrees>
              <LongitudeDegrees>-1.86072223819792270660400390625</LongitudeDegrees>
            </Position>
            <AltitudeMeters>84.1999969482421875</AltitudeMeters>
            <DistanceMeters>NAN</DistanceMeters>
          </Trackpoint>
          <Trackpoint>
            <Time>2021-08-11T14:37:59.000Z</Time>
            <Position>
              <LatitudeDegrees>43.29927102662622928619384765625</LatitudeDegrees>
              <LongitudeDegrees>-1.8607209809124469757080078125</LongitudeDegrees>
            </Position>
            <AltitudeMeters>84.59999847412109375</AltitudeMeters>
            <DistanceMeters>NAN</DistanceMeters>
          </Trackpoint>
          <Trackpoint>
            <Time>2021-08-11T14:38:01.000Z</Time>
            <Position>
              <LatitudeDegrees>43.2992724515497684478759765625</LatitudeDegrees>
              <LongitudeDegrees>-1.8607189692556858062744140625</LongitudeDegrees>
            </Position>
            <AltitudeMeters>84.59999847412109375</AltitudeMeters>
            <DistanceMeters>NAN</DistanceMeters>
          </Trackpoint>
          <Trackpoint>
            <Time>2021-08-11T14:38:02.000Z</Time>
            <Position>
              <LatitudeDegrees>43.29928427003324031829833984375</LatitudeDegrees>
              <LongitudeDegrees>-1.86070027761161327362060546875</LongitudeDegrees>
            </Position>
            <AltitudeMeters>84.59999847412109375</AltitudeMeters>
            <DistanceMeters>NAN</DistanceMeters>
          </Trackpoint>
          <Trackpoint>
            <Time>2021-08-11T14:38:03.000Z</Time>
            <Position>
              <LatitudeDegrees>43.29929047264158725738525390625</LatitudeDegrees>
              <LongitudeDegrees>-1.860682256519794464111328125</LongitudeDegrees>
            </Position>
            <AltitudeMeters>84.59999847412109375</AltitudeMeters>
            <DistanceMeters>NAN</DistanceMeters>
          </Trackpoint>
          <Trackpoint>
            <Time>2021-08-11T14:38:04.000Z</Time>
            <Position>
              <LatitudeDegrees>43.29928158782422542572021484375</LatitudeDegrees>
              <LongitudeDegrees>-1.860662810504436492919921875</LongitudeDegrees>
            </Position>
            <AltitudeMeters>84.59999847412109375</AltitudeMeters>
            <DistanceMeters>NAN</DistanceMeters>
          </Trackpoint>
          <Trackpoint>
            <Time>2021-08-11T14:38:05.000Z</Time>
            <Position>
              <LatitudeDegrees>43.29927119426429271697998046875</LatitudeDegrees>
              <LongitudeDegrees>-1.8606361560523509979248046875</LongitudeDegrees>
            </Position>
            <AltitudeMeters>84.8000030517578125</AltitudeMeters>
            <DistanceMeters>NAN</DistanceMeters>
          </Trackpoint>
          <Trackpoint>
            <Time>2021-08-11T14:38:06.000Z</Time>
            <Position>
              <LatitudeDegrees>43.2992747984826564788818359375</LatitudeDegrees>
              <LongitudeDegrees>-1.860607825219631195068359375</LongitudeDegrees>
            </Position>
            <AltitudeMeters>84.8000030517578125</AltitudeMeters>
            <DistanceMeters>NAN</DistanceMeters>
          </Trackpoint>
          <Trackpoint>
            <Time>2021-08-11T14:38:07.000Z</Time>
            <Position>
              <LatitudeDegrees>43.299271278083324432373046875</LatitudeDegrees>
              <LongitudeDegrees>-1.86057865619659423828125</LongitudeDegrees>
            </Position>
            <AltitudeMeters>84.8000030517578125</AltitudeMeters>
            <DistanceMeters>NAN</DistanceMeters>
          </Trackpoint>
          <Trackpoint>
            <Time>2021-08-11T14:38:08.000Z</Time>
            <Position>
              <LatitudeDegrees>43.299263231456279754638671875</LatitudeDegrees>
              <LongitudeDegrees>-1.8605526722967624664306640625</LongitudeDegrees>
            </Position>
            <AltitudeMeters>84.8000030517578125</AltitudeMeters>
            <DistanceMeters>NAN</DistanceMeters>
          </Trackpoint>
          <Trackpoint>
            <Time>2021-08-11T14:38:09.000Z</Time>
            <Position>
              <LatitudeDegrees>43.299255184829235076904296875</LatitudeDegrees>
              <LongitudeDegrees>-1.86052660457789897918701171875</LongitudeDegrees>
            </Position>
            <AltitudeMeters>85</AltitudeMeters>
            <DistanceMeters>NAN</DistanceMeters>
          </Trackpoint>
          <Trackpoint>
            <Time>2021-08-11T14:38:10.000Z</Time>
            <Position>
              <LatitudeDegrees>43.29924688674509525299072265625</LatitudeDegrees>
              <LongitudeDegrees>-1.86050548218190670013427734375</LongitudeDegrees>
            </Position>
            <AltitudeMeters>85.1999969482421875</AltitudeMeters>
            <DistanceMeters>NAN</DistanceMeters>
          </Trackpoint>
          <Trackpoint>
            <Time>2021-08-11T14:38:11.000Z</Time>
            <Position>
              <LatitudeDegrees>43.29924219287931919097900390625</LatitudeDegrees>
              <LongitudeDegrees>-1.86049257405102252960205078125</LongitudeDegrees>
            </Position>
            <AltitudeMeters>85.1999969482421875</AltitudeMeters>
            <DistanceMeters>NAN</DistanceMeters>
          </Trackpoint>
          <Trackpoint>
            <Time>2021-08-11T14:38:12.000Z</Time>
            <Position>
              <LatitudeDegrees>43.29923783428966999053955078125</LatitudeDegrees>
              <LongitudeDegrees>-1.86048410832881927490234375</LongitudeDegrees>
            </Position>
            <AltitudeMeters>85.59999847412109375</AltitudeMeters>
            <DistanceMeters>NAN</DistanceMeters>
          </Trackpoint>
          <Trackpoint>
            <Time>2021-08-11T14:38:13.000Z</Time>
            <Position>
              <LatitudeDegrees>43.29923339188098907470703125</LatitudeDegrees>
              <LongitudeDegrees>-1.86047874391078948974609375</LongitudeDegrees>
            </Position>
            <AltitudeMeters>85.59999847412109375</AltitudeMeters>
            <DistanceMeters>NAN</DistanceMeters>
          </Trackpoint>
          <Trackpoint>
            <Time>2021-08-11T14:38:14.000Z</Time>
            <Position>
              <LatitudeDegrees>43.29923029057681560516357421875</LatitudeDegrees>
              <LongitudeDegrees>-1.8604775704443454742431640625</LongitudeDegrees>
            </Position>
            <AltitudeMeters>86</AltitudeMeters>
            <DistanceMeters>NAN</DistanceMeters>
          </Trackpoint>
          <Trackpoint>
            <Time>2021-08-11T14:38:20.000Z</Time>
            <Position>
              <LatitudeDegrees>43.2992057316005229949951171875</LatitudeDegrees>
              <LongitudeDegrees>-1.8604701943695545196533203125</LongitudeDegrees>
            </Position>
            <AltitudeMeters>86.8000030517578125</AltitudeMeters>
            <DistanceMeters>NAN</DistanceMeters>
          </Trackpoint>
          <Trackpoint>
            <Time>2021-08-11T14:38:29.000Z</Time>
            <Position>
              <LatitudeDegrees>43.2991819269955158233642578125</LatitudeDegrees>
              <LongitudeDegrees>-1.860454939305782318115234375</LongitudeDegrees>
            </Position>
            <AltitudeMeters>87</AltitudeMeters>
            <DistanceMeters>NAN</DistanceMeters>
          </Trackpoint>
          <Trackpoint>
            <Time>2021-08-11T14:38:42.000Z</Time>
            <Position>
              <LatitudeDegrees>43.299187123775482177734375</LatitudeDegrees>
              <LongitudeDegrees>-1.860489137470722198486328125</LongitudeDegrees>
            </Position>
            <AltitudeMeters>87</AltitudeMeters>
            <DistanceMeters>NAN</DistanceMeters>
          </Trackpoint>
          <Trackpoint>
            <Time>2021-08-11T14:38:48.000Z</Time>
            <Position>
              <LatitudeDegrees>43.29916424117982387542724609375</LatitudeDegrees>
              <LongitudeDegrees>-1.86051436699926853179931640625</LongitudeDegrees>
            </Position>
            <AltitudeMeters>87</AltitudeMeters>
            <DistanceMeters>NAN</DistanceMeters>
          </Trackpoint>
          <Trackpoint>
            <Time>2021-08-11T14:38:49.000Z</Time>
            <Position>
              <LatitudeDegrees>43.29914798028767108917236328125</LatitudeDegrees>
              <LongitudeDegrees>-1.86052165925502777099609375</LongitudeDegrees>
            </Position>
            <AltitudeMeters>87</AltitudeMeters>
            <DistanceMeters>NAN</DistanceMeters>
          </Trackpoint>
          <Trackpoint>
            <Time>2021-08-11T14:38:50.000Z</Time>
            <Position>
              <LatitudeDegrees>43.2991282828152179718017578125</LatitudeDegrees>
              <LongitudeDegrees>-1.860532052814960479736328125</LongitudeDegrees>
            </Position>
            <AltitudeMeters>87</AltitudeMeters>
            <DistanceMeters>NAN</DistanceMeters>
          </Trackpoint>
          <Trackpoint>
            <Time>2021-08-11T14:38:55.000Z</Time>
            <Position>
              <LatitudeDegrees>43.29902476631104946136474609375</LatitudeDegrees>
              <LongitudeDegrees>-1.86059114523231983184814453125</LongitudeDegrees>
            </Position>
            <AltitudeMeters>86.59999847412109375</AltitudeMeters>
            <DistanceMeters>NAN</DistanceMeters>
          </Trackpoint>
          <Trackpoint>
            <Time>2021-08-11T14:38:56.000Z</Time>
            <Position>
              <LatitudeDegrees>43.29900615848600864410400390625</LatitudeDegrees>
              <LongitudeDegrees>-1.86060254462063312530517578125</LongitudeDegrees>
            </Position>
            <AltitudeMeters>86.40000152587890625</AltitudeMeters>
            <DistanceMeters>NAN</DistanceMeters>
          </Trackpoint>
          <Trackpoint>
            <Time>2021-08-11T14:38:59.000Z</Time>
            <Position>
              <LatitudeDegrees>43.2989334873855113983154296875</LatitudeDegrees>
              <LongitudeDegrees>-1.86062098480761051177978515625</LongitudeDegrees>
            </Position>
            <AltitudeMeters>85.8000030517578125</AltitudeMeters>
            <DistanceMeters>NAN</DistanceMeters>
          </Trackpoint>
          <Trackpoint>
            <Time>2021-08-11T14:39:00.000Z</Time>
            <Position>
              <LatitudeDegrees>43.2989170588552951812744140625</LatitudeDegrees>
              <LongitudeDegrees>-1.860620565712451934814453125</LongitudeDegrees>
            </Position>
            <AltitudeMeters>85.59999847412109375</AltitudeMeters>
            <DistanceMeters>NAN</DistanceMeters>
          </Trackpoint>
          <Trackpoint>
            <Time>2021-08-11T14:39:01.000Z</Time>
            <Position>
              <LatitudeDegrees>43.2989056594669818878173828125</LatitudeDegrees>
              <LongitudeDegrees>-1.8606230802834033966064453125</LongitudeDegrees>
            </Position>
            <AltitudeMeters>85.1999969482421875</AltitudeMeters>
            <DistanceMeters>NAN</DistanceMeters>
          </Trackpoint>
          <Trackpoint>
            <Time>2021-08-11T14:39:02.000Z</Time>
            <Position>
              <LatitudeDegrees>43.298895098268985748291015625</LatitudeDegrees>
              <LongitudeDegrees>-1.86062157154083251953125</LongitudeDegrees>
            </Position>
            <AltitudeMeters>85</AltitudeMeters>
            <DistanceMeters>NAN</DistanceMeters>
          </Trackpoint>
          <Trackpoint>
            <Time>2021-08-11T14:39:03.000Z</Time>
            <Position>
              <LatitudeDegrees>43.29887674190104007720947265625</LatitudeDegrees>
              <LongitudeDegrees>-1.8606200627982616424560546875</LongitudeDegrees>
            </Position>
            <AltitudeMeters>84.8000030517578125</AltitudeMeters>
            <DistanceMeters>NAN</DistanceMeters>
          </Trackpoint>
          <Trackpoint>
            <Time>2021-08-11T14:39:04.000Z</Time>
            <Position>
              <LatitudeDegrees>43.2988593913614749908447265625</LatitudeDegrees>
              <LongitudeDegrees>-1.86061629094183444976806640625</LongitudeDegrees>
            </Position>
            <AltitudeMeters>84.8000030517578125</AltitudeMeters>
            <DistanceMeters>NAN</DistanceMeters>
          </Trackpoint>
          <Trackpoint>
            <Time>2021-08-11T14:39:07.000Z</Time>
            <Position>
              <LatitudeDegrees>43.2988074235618114471435546875</LatitudeDegrees>
              <LongitudeDegrees>-1.86061729677021503448486328125</LongitudeDegrees>
            </Position>
            <AltitudeMeters>84.1999969482421875</AltitudeMeters>
            <DistanceMeters>NAN</DistanceMeters>
          </Trackpoint>
          <Trackpoint>
            <Time>2021-08-11T14:39:08.000Z</Time>
            <Position>
              <LatitudeDegrees>43.29879275523126125335693359375</LatitudeDegrees>
              <LongitudeDegrees>-1.8606247566640377044677734375</LongitudeDegrees>
            </Position>
            <AltitudeMeters>84</AltitudeMeters>
            <DistanceMeters>NAN</DistanceMeters>
          </Trackpoint>
          <Trackpoint>
            <Time>2021-08-11T14:39:09.000Z</Time>
            <Position>
              <LatitudeDegrees>43.29878604970872402191162109375</LatitudeDegrees>
              <LongitudeDegrees>-1.86063154600560665130615234375</LongitudeDegrees>
            </Position>
            <AltitudeMeters>83.59999847412109375</AltitudeMeters>
            <DistanceMeters>NAN</DistanceMeters>
          </Trackpoint>
          <Trackpoint>
            <Time>2021-08-11T14:39:10.000Z</Time>
            <Position>
              <LatitudeDegrees>43.2987795956432819366455078125</LatitudeDegrees>
              <LongitudeDegrees>-1.8606348149478435516357421875</LongitudeDegrees>
            </Position>
            <AltitudeMeters>83.40000152587890625</AltitudeMeters>
            <DistanceMeters>NAN</DistanceMeters>
          </Trackpoint>
          <Trackpoint>
            <Time>2021-08-11T14:39:11.000Z</Time>
            <Position>
              <LatitudeDegrees>43.29877280630171298980712890625</LatitudeDegrees>
              <LongitudeDegrees>-1.8606338091194629669189453125</LongitudeDegrees>
            </Position>
            <AltitudeMeters>83.1999969482421875</AltitudeMeters>
            <DistanceMeters>NAN</DistanceMeters>
          </Trackpoint>
          <Trackpoint>
            <Time>2021-08-11T14:39:12.000Z</Time>
            <Position>
              <LatitudeDegrees>43.2987618260085582733154296875</LatitudeDegrees>
              <LongitudeDegrees>-1.860621906816959381103515625</LongitudeDegrees>
            </Position>
            <AltitudeMeters>83.1999969482421875</AltitudeMeters>
            <DistanceMeters>NAN</DistanceMeters>
          </Trackpoint>
          <Trackpoint>
            <Time>2021-08-11T14:39:13.000Z</Time>
            <Position>
              <LatitudeDegrees>43.29875470139086246490478515625</LatitudeDegrees>
              <LongitudeDegrees>-1.8605986051261425018310546875</LongitudeDegrees>
            </Position>
            <AltitudeMeters>83</AltitudeMeters>
            <DistanceMeters>NAN</DistanceMeters>
          </Trackpoint>
          <Trackpoint>
            <Time>2021-08-11T14:39:15.000Z</Time>
            <Position>
              <LatitudeDegrees>43.29876475967466831207275390625</LatitudeDegrees>
              <LongitudeDegrees>-1.8605476431548595428466796875</LongitudeDegrees>
            </Position>
            <AltitudeMeters>83</AltitudeMeters>
            <DistanceMeters>NAN</DistanceMeters>
          </Trackpoint>
          <Trackpoint>
            <Time>2021-08-11T14:39:17.000Z</Time>
            <Position>
              <LatitudeDegrees>43.2987936772406101226806640625</LatitudeDegrees>
              <LongitudeDegrees>-1.86052559874951839447021484375</LongitudeDegrees>
            </Position>
            <AltitudeMeters>83</AltitudeMeters>
            <DistanceMeters>NAN</DistanceMeters>
          </Trackpoint>
          <Trackpoint>
            <Time>2021-08-11T14:39:18.000Z</Time>
            <Position>
              <LatitudeDegrees>43.298802562057971954345703125</LatitudeDegrees>
              <LongitudeDegrees>-1.86053280718624591827392578125</LongitudeDegrees>
            </Position>
            <AltitudeMeters>83</AltitudeMeters>
            <DistanceMeters>NAN</DistanceMeters>
          </Trackpoint>
          <Trackpoint>
            <Time>2021-08-11T14:39:19.000Z</Time>
            <Position>
              <LatitudeDegrees>43.2988037355244159698486328125</LatitudeDegrees>
              <LongitudeDegrees>-1.8605543486773967742919921875</LongitudeDegrees>
            </Position>
            <AltitudeMeters>82.8000030517578125</AltitudeMeters>
            <DistanceMeters>NAN</DistanceMeters>
          </Trackpoint>
          <Trackpoint>
            <Time>2021-08-11T14:39:20.000Z</Time>
            <Position>
              <LatitudeDegrees>43.298798538744449615478515625</LatitudeDegrees>
              <LongitudeDegrees>-1.86057941056787967681884765625</LongitudeDegrees>
            </Position>
            <AltitudeMeters>82.8000030517578125</AltitudeMeters>
            <DistanceMeters>NAN</DistanceMeters>
          </Trackpoint>
          <Trackpoint>
            <Time>2021-08-11T14:39:21.000Z</Time>
            <Position>
              <LatitudeDegrees>43.2987930066883563995361328125</LatitudeDegrees>
              <LongitudeDegrees>-1.8606016226112842559814453125</LongitudeDegrees>
            </Position>
            <AltitudeMeters>82.8000030517578125</AltitudeMeters>
            <DistanceMeters>NAN</DistanceMeters>
          </Trackpoint>
          <Trackpoint>
            <Time>2021-08-11T14:39:22.000Z</Time>
            <Position>
              <LatitudeDegrees>43.29879091121256351470947265625</LatitudeDegrees>
              <LongitudeDegrees>-1.86062819324433803558349609375</LongitudeDegrees>
            </Position>
            <AltitudeMeters>82.8000030517578125</AltitudeMeters>
            <DistanceMeters>NAN</DistanceMeters>
          </Trackpoint>
          <Trackpoint>
            <Time>2021-08-11T14:39:23.000Z</Time>
            <Position>
              <LatitudeDegrees>43.2987990416586399078369140625</LatitudeDegrees>
              <LongitudeDegrees>-1.86066071502864360809326171875</LongitudeDegrees>
            </Position>
            <AltitudeMeters>82.8000030517578125</AltitudeMeters>
            <DistanceMeters>NAN</DistanceMeters>
          </Trackpoint>
          <Trackpoint>
            <Time>2021-08-11T14:39:24.000Z</Time>
            <Position>
              <LatitudeDegrees>43.29881220124661922454833984375</LatitudeDegrees>
              <LongitudeDegrees>-1.8606953322887420654296875</LongitudeDegrees>
            </Position>
            <AltitudeMeters>82.8000030517578125</AltitudeMeters>
            <DistanceMeters>NAN</DistanceMeters>
          </Trackpoint>
          <Trackpoint>
            <Time>2021-08-11T14:39:25.000Z</Time>
            <Position>
              <LatitudeDegrees>43.2988268695771694183349609375</LatitudeDegrees>
              <LongitudeDegrees>-1.86073355376720428466796875</LongitudeDegrees>
            </Position>
            <AltitudeMeters>82.8000030517578125</AltitudeMeters>
            <DistanceMeters>NAN</DistanceMeters>
          </Trackpoint>
          <Trackpoint>
            <Time>2021-08-11T14:39:26.000Z</Time>
            <Position>
              <LatitudeDegrees>43.29884204082190990447998046875</LatitudeDegrees>
              <LongitudeDegrees>-1.8607712723314762115478515625</LongitudeDegrees>
            </Position>
            <AltitudeMeters>82.8000030517578125</AltitudeMeters>
            <DistanceMeters>NAN</DistanceMeters>
          </Trackpoint>
          <Trackpoint>
            <Time>2021-08-11T14:39:27.000Z</Time>
            <Position>
              <LatitudeDegrees>43.29885779879987239837646484375</LatitudeDegrees>
              <LongitudeDegrees>-1.86080454848706722259521484375</LongitudeDegrees>
            </Position>
            <AltitudeMeters>82.8000030517578125</AltitudeMeters>
            <DistanceMeters>NAN</DistanceMeters>
          </Trackpoint>
          <Trackpoint>
            <Time>2021-08-11T14:39:28.000Z</Time>
            <Position>
              <LatitudeDegrees>43.29887305386364459991455078125</LatitudeDegrees>
              <LongitudeDegrees>-1.8608363159000873565673828125</LongitudeDegrees>
            </Position>
            <AltitudeMeters>82.59999847412109375</AltitudeMeters>
            <DistanceMeters>NAN</DistanceMeters>
          </Trackpoint>
          <Trackpoint>
            <Time>2021-08-11T14:39:31.000Z</Time>
            <Position>
              <LatitudeDegrees>43.2989190705120563507080078125</LatitudeDegrees>
              <LongitudeDegrees>-1.860945113003253936767578125</LongitudeDegrees>
            </Position>
            <AltitudeMeters>81.8000030517578125</AltitudeMeters>
            <DistanceMeters>NAN</DistanceMeters>
          </Trackpoint>
          <Trackpoint>
            <Time>2021-08-11T14:39:35.000Z</Time>
            <Position>
              <LatitudeDegrees>43.2989797554910182952880859375</LatitudeDegrees>
              <LongitudeDegrees>-1.86108148656785488128662109375</LongitudeDegrees>
            </Position>
            <AltitudeMeters>80.8000030517578125</AltitudeMeters>
            <DistanceMeters>NAN</DistanceMeters>
          </Trackpoint>
          <Trackpoint>
            <Time>2021-08-11T14:39:36.000Z</Time>
            <Position>
              <LatitudeDegrees>43.2989851199090480804443359375</LatitudeDegrees>
              <LongitudeDegrees>-1.8611048720777034759521484375</LongitudeDegrees>
            </Position>
            <AltitudeMeters>80.40000152587890625</AltitudeMeters>
            <DistanceMeters>NAN</DistanceMeters>
          </Trackpoint>
          <Trackpoint>
            <Time>2021-08-11T14:39:37.000Z</Time>
            <Position>
              <LatitudeDegrees>43.29899408854544162750244140625</LatitudeDegrees>
              <LongitudeDegrees>-1.86112943105399608612060546875</LongitudeDegrees>
            </Position>
            <AltitudeMeters>80.1999969482421875</AltitudeMeters>
            <DistanceMeters>NAN</DistanceMeters>
          </Trackpoint>
          <Trackpoint>
            <Time>2021-08-11T14:39:38.000Z</Time>
            <Position>
              <LatitudeDegrees>43.29900406301021575927734375</LatitudeDegrees>
              <LongitudeDegrees>-1.86115927062928676605224609375</LongitudeDegrees>
            </Position>
            <AltitudeMeters>80</AltitudeMeters>
            <DistanceMeters>NAN</DistanceMeters>
          </Trackpoint>
          <Trackpoint>
            <Time>2021-08-11T14:39:39.000Z</Time>
            <Position>
              <LatitudeDegrees>43.2989955134689807891845703125</LatitudeDegrees>
              <LongitudeDegrees>-1.86119480989873409271240234375</LongitudeDegrees>
            </Position>
            <AltitudeMeters>79.8000030517578125</AltitudeMeters>
            <DistanceMeters>NAN</DistanceMeters>
          </Trackpoint>
          <Trackpoint>
            <Time>2021-08-11T14:39:40.000Z</Time>
            <Position>
              <LatitudeDegrees>43.2989670149981975555419921875</LatitudeDegrees>
              <LongitudeDegrees>-1.86122682876884937286376953125</LongitudeDegrees>
            </Position>
            <AltitudeMeters>79.40000152587890625</AltitudeMeters>
            <DistanceMeters>NAN</DistanceMeters>
          </Trackpoint>
          <Trackpoint>
            <Time>2021-08-11T14:39:43.000Z</Time>
            <Position>
              <LatitudeDegrees>43.298868276178836822509765625</LatitudeDegrees>
              <LongitudeDegrees>-1.8613171018660068511962890625</LongitudeDegrees>
            </Position>
            <AltitudeMeters>78.40000152587890625</AltitudeMeters>
            <DistanceMeters>NAN</DistanceMeters>
          </Trackpoint>
          <Trackpoint>
            <Time>2021-08-11T14:39:44.000Z</Time>
            <Position>
              <LatitudeDegrees>43.29883768223226070404052734375</LatitudeDegrees>
              <LongitudeDegrees>-1.86133847571909427642822265625</LongitudeDegrees>
            </Position>
            <AltitudeMeters>78.40000152587890625</AltitudeMeters>
            <DistanceMeters>NAN</DistanceMeters>
          </Trackpoint>
          <Trackpoint>
            <Time>2021-08-11T14:39:45.000Z</Time>
            <Position>
              <LatitudeDegrees>43.2988101057708263397216796875</LatitudeDegrees>
              <LongitudeDegrees>-1.86137460172176361083984375</LongitudeDegrees>
            </Position>
            <AltitudeMeters>78</AltitudeMeters>
            <DistanceMeters>NAN</DistanceMeters>
          </Trackpoint>
          <Trackpoint>
            <Time>2021-08-11T14:39:47.000Z</Time>
            <Position>
              <LatitudeDegrees>43.29875235445797443389892578125</LatitudeDegrees>
              <LongitudeDegrees>-1.8614431656897068023681640625</LongitudeDegrees>
            </Position>
            <AltitudeMeters>77.1999969482421875</AltitudeMeters>
            <DistanceMeters>NAN</DistanceMeters>
          </Trackpoint>
          <Trackpoint>
            <Time>2021-08-11T14:39:49.000Z</Time>
            <Position>
              <LatitudeDegrees>43.2987003028392791748046875</LatitudeDegrees>
              <LongitudeDegrees>-1.86150141991674900054931640625</LongitudeDegrees>
            </Position>
            <AltitudeMeters>76</AltitudeMeters>
            <DistanceMeters>NAN</DistanceMeters>
          </Trackpoint>
          <Trackpoint>
            <Time>2021-08-11T14:39:51.000Z</Time>
            <Position>
              <LatitudeDegrees>43.2986515201628208160400390625</LatitudeDegrees>
              <LongitudeDegrees>-1.86156562529504299163818359375</LongitudeDegrees>
            </Position>
            <AltitudeMeters>75</AltitudeMeters>
            <DistanceMeters>NAN</DistanceMeters>
          </Trackpoint>
          <Trackpoint>
            <Time>2021-08-11T14:39:52.000Z</Time>
            <Position>
              <LatitudeDegrees>43.2986223511397838592529296875</LatitudeDegrees>
              <LongitudeDegrees>-1.8615900166332721710205078125</LongitudeDegrees>
            </Position>
            <AltitudeMeters>74.40000152587890625</AltitudeMeters>
            <DistanceMeters>NAN</DistanceMeters>
          </Trackpoint>
          <Trackpoint>
            <Time>2021-08-11T14:39:53.000Z</Time>
            <Position>
              <LatitudeDegrees>43.2986002229154109954833984375</LatitudeDegrees>
              <LongitudeDegrees>-1.861612983047962188720703125</LongitudeDegrees>
            </Position>
            <AltitudeMeters>74</AltitudeMeters>
            <DistanceMeters>NAN</DistanceMeters>
          </Trackpoint>
          <Trackpoint>
            <Time>2021-08-11T14:39:54.000Z</Time>
            <Position>
              <LatitudeDegrees>43.29858220182359218597412109375</LatitudeDegrees>
              <LongitudeDegrees>-1.8616354465484619140625</LongitudeDegrees>
            </Position>
            <AltitudeMeters>73.40000152587890625</AltitudeMeters>
            <DistanceMeters>NAN</DistanceMeters>
          </Trackpoint>
          <Trackpoint>
            <Time>2021-08-11T14:39:55.000Z</Time>
            <Position>
              <LatitudeDegrees>43.298562504351139068603515625</LatitudeDegrees>
              <LongitudeDegrees>-1.86165547929704189300537109375</LongitudeDegrees>
            </Position>
            <AltitudeMeters>73.1999969482421875</AltitudeMeters>
            <DistanceMeters>NAN</DistanceMeters>
          </Trackpoint>
          <Trackpoint>
            <Time>2021-08-11T14:39:56.000Z</Time>
            <Position>
              <LatitudeDegrees>43.29854565672576427459716796875</LatitudeDegrees>
              <LongitudeDegrees>-1.8616728298366069793701171875</LongitudeDegrees>
            </Position>
            <AltitudeMeters>72.59999847412109375</AltitudeMeters>
            <DistanceMeters>NAN</DistanceMeters>
          </Trackpoint>
          <Trackpoint>
            <Time>2021-08-11T14:39:57.000Z</Time>
            <Position>
              <LatitudeDegrees>43.29853040166199207305908203125</LatitudeDegrees>
              <LongitudeDegrees>-1.86168934218585491180419921875</LongitudeDegrees>
            </Position>
            <AltitudeMeters>72.40000152587890625</AltitudeMeters>
            <DistanceMeters>NAN</DistanceMeters>
          </Trackpoint>
          <Trackpoint>
            <Time>2021-08-11T14:39:58.000Z</Time>
            <Position>
              <LatitudeDegrees>43.29851950518786907196044921875</LatitudeDegrees>
              <LongitudeDegrees>-1.86170962639153003692626953125</LongitudeDegrees>
            </Position>
            <AltitudeMeters>72</AltitudeMeters>
            <DistanceMeters>NAN</DistanceMeters>
          </Trackpoint>
          <Trackpoint>
            <Time>2021-08-11T14:39:59.000Z</Time>
            <Position>
              <LatitudeDegrees>43.29851665534079074859619140625</LatitudeDegrees>
              <LongitudeDegrees>-1.861728988587856292724609375</LongitudeDegrees>
            </Position>
            <AltitudeMeters>71.59999847412109375</AltitudeMeters>
            <DistanceMeters>NAN</DistanceMeters>
          </Trackpoint>
          <Trackpoint>
            <Time>2021-08-11T14:40:00.000Z</Time>
            <Position>
              <LatitudeDegrees>43.29851447604596614837646484375</LatitudeDegrees>
              <LongitudeDegrees>-1.86173896305263042449951171875</LongitudeDegrees>
            </Position>
            <AltitudeMeters>71.40000152587890625</AltitudeMeters>
            <DistanceMeters>NAN</DistanceMeters>
          </Trackpoint>
          <Trackpoint>
            <Time>2021-08-11T14:40:01.000Z</Time>
            <Position>
              <LatitudeDegrees>43.29851011745631694793701171875</LatitudeDegrees>
              <LongitudeDegrees>-1.86175639741122722625732421875</LongitudeDegrees>
            </Position>
            <AltitudeMeters>71.1999969482421875</AltitudeMeters>
            <DistanceMeters>NAN</DistanceMeters>
          </Trackpoint>
          <Trackpoint>
            <Time>2021-08-11T14:40:02.000Z</Time>
            <Position>
              <LatitudeDegrees>43.29850659705698490142822265625</LatitudeDegrees>
              <LongitudeDegrees>-1.8617710657417774200439453125</LongitudeDegrees>
            </Position>
            <AltitudeMeters>71.1999969482421875</AltitudeMeters>
            <DistanceMeters>NAN</DistanceMeters>
          </Trackpoint>
          <Trackpoint>
            <Time>2021-08-11T14:40:03.000Z</Time>
            <Position>
              <LatitudeDegrees>43.298497460782527923583984375</LatitudeDegrees>
              <LongitudeDegrees>-1.86178556643426418304443359375</LongitudeDegrees>
            </Position>
            <AltitudeMeters>71</AltitudeMeters>
            <DistanceMeters>NAN</DistanceMeters>
          </Trackpoint>
          <Trackpoint>
            <Time>2021-08-11T14:40:04.000Z</Time>
            <Position>
              <LatitudeDegrees>43.2984912581741809844970703125</LatitudeDegrees>
              <LongitudeDegrees>-1.86179311014711856842041015625</LongitudeDegrees>
            </Position>
            <AltitudeMeters>71</AltitudeMeters>
            <DistanceMeters>NAN</DistanceMeters>
          </Trackpoint>
          <Trackpoint>
            <Time>2021-08-11T14:40:05.000Z</Time>
            <Position>
              <LatitudeDegrees>43.29848430119454860687255859375</LatitudeDegrees>
              <LongitudeDegrees>-1.86180870048701763153076171875</LongitudeDegrees>
            </Position>
            <AltitudeMeters>70.59999847412109375</AltitudeMeters>
            <DistanceMeters>NAN</DistanceMeters>
          </Trackpoint>
          <Trackpoint>
            <Time>2021-08-11T14:40:06.000Z</Time>
            <Position>
              <LatitudeDegrees>43.29847809858620166778564453125</LatitudeDegrees>
              <LongitudeDegrees>-1.86182479374110698699951171875</LongitudeDegrees>
            </Position>
            <AltitudeMeters>70.40000152587890625</AltitudeMeters>
            <DistanceMeters>NAN</DistanceMeters>
          </Trackpoint>
          <Trackpoint>
            <Time>2021-08-11T14:40:07.000Z</Time>
            <Position>
              <LatitudeDegrees>43.29847072251141071319580078125</LatitudeDegrees>
              <LongitudeDegrees>-1.8618374504148960113525390625</LongitudeDegrees>
            </Position>
            <AltitudeMeters>70.1999969482421875</AltitudeMeters>
            <DistanceMeters>NAN</DistanceMeters>
          </Trackpoint>
          <Trackpoint>
            <Time>2021-08-11T14:40:08.000Z</Time>
            <Position>
              <LatitudeDegrees>43.29845814965665340423583984375</LatitudeDegrees>
              <LongitudeDegrees>-1.86185178346931934356689453125</LongitudeDegrees>
            </Position>
            <AltitudeMeters>70.1999969482421875</AltitudeMeters>
            <DistanceMeters>NAN</DistanceMeters>
          </Trackpoint>
          <Trackpoint>
            <Time>2021-08-11T14:40:09.000Z</Time>
            <Position>
              <LatitudeDegrees>43.29844239167869091033935546875</LatitudeDegrees>
              <LongitudeDegrees>-1.86186368577182292938232421875</LongitudeDegrees>
            </Position>
            <AltitudeMeters>70</AltitudeMeters>
            <DistanceMeters>NAN</DistanceMeters>
          </Trackpoint>
          <Trackpoint>
            <Time>2021-08-11T14:40:10.000Z</Time>
            <Position>
              <LatitudeDegrees>43.2984211854636669158935546875</LatitudeDegrees>
              <LongitudeDegrees>-1.8618729896843433380126953125</LongitudeDegrees>
            </Position>
            <AltitudeMeters>70</AltitudeMeters>
            <DistanceMeters>NAN</DistanceMeters>
          </Trackpoint>
          <Trackpoint>
            <Time>2021-08-11T14:40:11.000Z</Time>
            <Position>
              <LatitudeDegrees>43.29840014688670635223388671875</LatitudeDegrees>
              <LongitudeDegrees>-1.86187927611172199249267578125</LongitudeDegrees>
            </Position>
            <AltitudeMeters>70</AltitudeMeters>
            <DistanceMeters>NAN</DistanceMeters>
          </Trackpoint>
          <Trackpoint>
            <Time>2021-08-11T14:40:12.000Z</Time>
            <Position>
              <LatitudeDegrees>43.29838153906166553497314453125</LatitudeDegrees>
              <LongitudeDegrees>-1.861885897815227508544921875</LongitudeDegrees>
            </Position>
            <AltitudeMeters>70</AltitudeMeters>
            <DistanceMeters>NAN</DistanceMeters>
          </Trackpoint>
          <Trackpoint>
            <Time>2021-08-11T14:40:15.000Z</Time>
            <Position>
              <LatitudeDegrees>43.29832789488136768341064453125</LatitudeDegrees>
              <LongitudeDegrees>-1.8619350157678127288818359375</LongitudeDegrees>
            </Position>
            <AltitudeMeters>69.59999847412109375</AltitudeMeters>
            <DistanceMeters>NAN</DistanceMeters>
          </Trackpoint>
          <Trackpoint>
            <Time>2021-08-11T14:40:16.000Z</Time>
            <Position>
              <LatitudeDegrees>43.29831079579889774322509765625</LatitudeDegrees>
              <LongitudeDegrees>-1.86195471324026584625244140625</LongitudeDegrees>
            </Position>
            <AltitudeMeters>69.59999847412109375</AltitudeMeters>
            <DistanceMeters>NAN</DistanceMeters>
          </Trackpoint>
          <Trackpoint>
            <Time>2021-08-11T14:40:17.000Z</Time>
            <Position>
              <LatitudeDegrees>43.2982917688786983489990234375</LatitudeDegrees>
              <LongitudeDegrees>-1.86197130940854549407958984375</LongitudeDegrees>
            </Position>
            <AltitudeMeters>69.40000152587890625</AltitudeMeters>
            <DistanceMeters>NAN</DistanceMeters>
          </Trackpoint>
          <Trackpoint>
            <Time>2021-08-11T14:40:26.000Z</Time>
            <Position>
              <LatitudeDegrees>43.29807937145233154296875</LatitudeDegrees>
              <LongitudeDegrees>-1.86213366687297821044921875</LongitudeDegrees>
            </Position>
            <AltitudeMeters>68.59999847412109375</AltitudeMeters>
            <DistanceMeters>NAN</DistanceMeters>
          </Trackpoint>
          <Trackpoint>
            <Time>2021-08-11T14:40:27.000Z</Time>
            <Position>
              <LatitudeDegrees>43.29804978333413600921630859375</LatitudeDegrees>
              <LongitudeDegrees>-1.862147748470306396484375</LongitudeDegrees>
            </Position>
            <AltitudeMeters>68.59999847412109375</AltitudeMeters>
            <DistanceMeters>NAN</DistanceMeters>
          </Trackpoint>
          <Trackpoint>
            <Time>2021-08-11T14:40:31.000Z</Time>
            <Position>
              <LatitudeDegrees>43.2979417406022548675537109375</LatitudeDegrees>
              <LongitudeDegrees>-1.86219963245093822479248046875</LongitudeDegrees>
            </Position>
            <AltitudeMeters>68</AltitudeMeters>
            <DistanceMeters>NAN</DistanceMeters>
          </Trackpoint>
          <Trackpoint>
            <Time>2021-08-11T14:40:32.000Z</Time>
            <Position>
              <LatitudeDegrees>43.2979170978069305419921875</LatitudeDegrees>
              <LongitudeDegrees>-1.86220734380185604095458984375</LongitudeDegrees>
            </Position>
            <AltitudeMeters>68</AltitudeMeters>
            <DistanceMeters>NAN</DistanceMeters>
          </Trackpoint>
          <Trackpoint>
            <Time>2021-08-11T14:40:38.000Z</Time>
            <Position>
              <LatitudeDegrees>43.2977399043738842010498046875</LatitudeDegrees>
              <LongitudeDegrees>-1.86224757693707942962646484375</LongitudeDegrees>
            </Position>
            <AltitudeMeters>67.8000030517578125</AltitudeMeters>
            <DistanceMeters>NAN</DistanceMeters>
          </Trackpoint>
          <Trackpoint>
            <Time>2021-08-11T14:40:44.000Z</Time>
            <Position>
              <LatitudeDegrees>43.29756698571145534515380859375</LatitudeDegrees>
              <LongitudeDegrees>-1.86232385225594043731689453125</LongitudeDegrees>
            </Position>
            <AltitudeMeters>67.59999847412109375</AltitudeMeters>
            <DistanceMeters>NAN</DistanceMeters>
          </Trackpoint>
          <Trackpoint>
            <Time>2021-08-11T14:40:45.000Z</Time>
            <Position>
              <LatitudeDegrees>43.29754494130611419677734375</LatitudeDegrees>
              <LongitudeDegrees>-1.86233977787196636199951171875</LongitudeDegrees>
            </Position>
            <AltitudeMeters>67.59999847412109375</AltitudeMeters>
            <DistanceMeters>NAN</DistanceMeters>
          </Trackpoint>
          <Trackpoint>
            <Time>2021-08-11T14:40:46.000Z</Time>
            <Position>
              <LatitudeDegrees>43.29752557910978794097900390625</LatitudeDegrees>
              <LongitudeDegrees>-1.8623507581651210784912109375</LongitudeDegrees>
            </Position>
            <AltitudeMeters>67.59999847412109375</AltitudeMeters>
            <DistanceMeters>NAN</DistanceMeters>
          </Trackpoint>
          <Trackpoint>
            <Time>2021-08-11T14:40:47.000Z</Time>
            <Position>
              <LatitudeDegrees>43.29750848002731800079345703125</LatitudeDegrees>
              <LongitudeDegrees>-1.86235872097313404083251953125</LongitudeDegrees>
            </Position>
            <AltitudeMeters>67.59999847412109375</AltitudeMeters>
            <DistanceMeters>NAN</DistanceMeters>
          </Trackpoint>
          <Trackpoint>
            <Time>2021-08-11T14:40:48.000Z</Time>
            <Position>
              <LatitudeDegrees>43.29749188385903835296630859375</LatitudeDegrees>
              <LongitudeDegrees>-1.86236760579049587249755859375</LongitudeDegrees>
            </Position>
            <AltitudeMeters>67.59999847412109375</AltitudeMeters>
            <DistanceMeters>NAN</DistanceMeters>
          </Trackpoint>
          <Trackpoint>
            <Time>2021-08-11T14:40:49.000Z</Time>
            <Position>
              <LatitudeDegrees>43.2974730245769023895263671875</LatitudeDegrees>
              <LongitudeDegrees>-1.86237816698849201202392578125</LongitudeDegrees>
            </Position>
            <AltitudeMeters>67.59999847412109375</AltitudeMeters>
            <DistanceMeters>NAN</DistanceMeters>
          </Trackpoint>
          <Trackpoint>
            <Time>2021-08-11T14:40:54.000Z</Time>
            <Position>
              <LatitudeDegrees>43.2973714359104633331298828125</LatitudeDegrees>
              <LongitudeDegrees>-1.86243549920618534088134765625</LongitudeDegrees>
            </Position>
            <AltitudeMeters>67.8000030517578125</AltitudeMeters>
            <DistanceMeters>NAN</DistanceMeters>
          </Trackpoint>
          <Trackpoint>
            <Time>2021-08-11T14:40:55.000Z</Time>
            <Position>
              <LatitudeDegrees>43.29734914004802703857421875</LatitudeDegrees>
              <LongitudeDegrees>-1.8624426238238811492919921875</LongitudeDegrees>
            </Position>
            <AltitudeMeters>67.8000030517578125</AltitudeMeters>
            <DistanceMeters>NAN</DistanceMeters>
          </Trackpoint>
          <Trackpoint>
            <Time>2021-08-11T14:40:56.000Z</Time>
            <Position>
              <LatitudeDegrees>43.297328017652034759521484375</LatitudeDegrees>
              <LongitudeDegrees>-1.8624520115554332733154296875</LongitudeDegrees>
            </Position>
            <AltitudeMeters>67.8000030517578125</AltitudeMeters>
            <DistanceMeters>NAN</DistanceMeters>
          </Trackpoint>
          <Trackpoint>
            <Time>2021-08-11T14:40:57.000Z</Time>
            <Position>
              <LatitudeDegrees>43.2973100803792476654052734375</LatitudeDegrees>
              <LongitudeDegrees>-1.86246701516211032867431640625</LongitudeDegrees>
            </Position>
            <AltitudeMeters>68</AltitudeMeters>
            <DistanceMeters>NAN</DistanceMeters>
          </Trackpoint>
          <Trackpoint>
            <Time>2021-08-11T14:40:59.000Z</Time>
            <Position>
              <LatitudeDegrees>43.29727806150913238525390625</LatitudeDegrees>
              <LongitudeDegrees>-1.8625069968402385711669921875</LongitudeDegrees>
            </Position>
            <AltitudeMeters>68</AltitudeMeters>
            <DistanceMeters>NAN</DistanceMeters>
          </Trackpoint>
          <Trackpoint>
            <Time>2021-08-11T14:41:00.000Z</Time>
            <Position>
              <LatitudeDegrees>43.29726330935955047607421875</LatitudeDegrees>
              <LongitudeDegrees>-1.86252719722688198089599609375</LongitudeDegrees>
            </Position>
            <AltitudeMeters>68</AltitudeMeters>
            <DistanceMeters>NAN</DistanceMeters>
          </Trackpoint>
          <Trackpoint>
            <Time>2021-08-11T14:41:04.000Z</Time>
            <Position>
              <LatitudeDegrees>43.297179155051708221435546875</LatitudeDegrees>
              <LongitudeDegrees>-1.8625743873417377471923828125</LongitudeDegrees>
            </Position>
            <AltitudeMeters>67.8000030517578125</AltitudeMeters>
            <DistanceMeters>NAN</DistanceMeters>
          </Trackpoint>
          <Trackpoint>
            <Time>2021-08-11T14:41:06.000Z</Time>
            <Position>
              <LatitudeDegrees>43.29713213257491588592529296875</LatitudeDegrees>
              <LongitudeDegrees>-1.86259190551936626434326171875</LongitudeDegrees>
            </Position>
            <AltitudeMeters>67.8000030517578125</AltitudeMeters>
            <DistanceMeters>NAN</DistanceMeters>
          </Trackpoint>
          <Trackpoint>
            <Time>2021-08-11T14:41:08.000Z</Time>
            <Position>
              <LatitudeDegrees>43.2970829308032989501953125</LatitudeDegrees>
              <LongitudeDegrees>-1.86262962408363819122314453125</LongitudeDegrees>
            </Position>
            <AltitudeMeters>67.59999847412109375</AltitudeMeters>
            <DistanceMeters>NAN</DistanceMeters>
          </Trackpoint>
          <Trackpoint>
            <Time>2021-08-11T14:41:10.000Z</Time>
            <Position>
              <LatitudeDegrees>43.29706524498760700225830078125</LatitudeDegrees>
              <LongitudeDegrees>-1.8627123534679412841796875</LongitudeDegrees>
            </Position>
            <AltitudeMeters>67.40000152587890625</AltitudeMeters>
            <DistanceMeters>NAN</DistanceMeters>
          </Trackpoint>
          <Trackpoint>
            <Time>2021-08-11T14:41:11.000Z</Time>
            <Position>
              <LatitudeDegrees>43.2970442064106464385986328125</LatitudeDegrees>
              <LongitudeDegrees>-1.86274244450032711029052734375</LongitudeDegrees>
            </Position>
            <AltitudeMeters>67.40000152587890625</AltitudeMeters>
            <DistanceMeters>NAN</DistanceMeters>
          </Trackpoint>
          <Trackpoint>
            <Time>2021-08-11T14:41:12.000Z</Time>
            <Position>
              <LatitudeDegrees>43.29701495356857776641845703125</LatitudeDegrees>
              <LongitudeDegrees>-1.86275116167962551116943359375</LongitudeDegrees>
            </Position>
            <AltitudeMeters>67.40000152587890625</AltitudeMeters>
            <DistanceMeters>NAN</DistanceMeters>
          </Trackpoint>
          <Trackpoint>
            <Time>2021-08-11T14:41:13.000Z</Time>
            <Position>
              <LatitudeDegrees>43.2969784922897815704345703125</LatitudeDegrees>
              <LongitudeDegrees>-1.86274697072803974151611328125</LongitudeDegrees>
            </Position>
            <AltitudeMeters>67.1999969482421875</AltitudeMeters>
            <DistanceMeters>NAN</DistanceMeters>
          </Trackpoint>
          <Trackpoint>
            <Time>2021-08-11T14:41:14.000Z</Time>
            <Position>
              <LatitudeDegrees>43.2969379238784313201904296875</LatitudeDegrees>
              <LongitudeDegrees>-1.8627631478011608123779296875</LongitudeDegrees>
            </Position>
            <AltitudeMeters>67.1999969482421875</AltitudeMeters>
            <DistanceMeters>NAN</DistanceMeters>
          </Trackpoint>
          <Trackpoint>
            <Time>2021-08-11T14:41:15.000Z</Time>
            <Position>
              <LatitudeDegrees>43.2969027198851108551025390625</LatitudeDegrees>
              <LongitudeDegrees>-1.8627981841564178466796875</LongitudeDegrees>
            </Position>
            <AltitudeMeters>67.1999969482421875</AltitudeMeters>
            <DistanceMeters>NAN</DistanceMeters>
          </Trackpoint>
          <Trackpoint>
            <Time>2021-08-11T14:41:16.000Z</Time>
            <Position>
              <LatitudeDegrees>43.2968832738697528839111328125</LatitudeDegrees>
              <LongitudeDegrees>-1.86284738592803478240966796875</LongitudeDegrees>
            </Position>
            <AltitudeMeters>67</AltitudeMeters>
            <DistanceMeters>NAN</DistanceMeters>
          </Trackpoint>
          <Trackpoint>
            <Time>2021-08-11T14:41:17.000Z</Time>
            <Position>
              <LatitudeDegrees>43.2968683540821075439453125</LatitudeDegrees>
              <LongitudeDegrees>-1.8628999404609203338623046875</LongitudeDegrees>
            </Position>
            <AltitudeMeters>66.8000030517578125</AltitudeMeters>
            <DistanceMeters>NAN</DistanceMeters>
          </Trackpoint>
          <Trackpoint>
            <Time>2021-08-11T14:41:18.000Z</Time>
            <Position>
              <LatitudeDegrees>43.296843208372592926025390625</LatitudeDegrees>
              <LongitudeDegrees>-1.86295333318412303924560546875</LongitudeDegrees>
            </Position>
            <AltitudeMeters>66.8000030517578125</AltitudeMeters>
            <DistanceMeters>NAN</DistanceMeters>
          </Trackpoint>
          <Trackpoint>
            <Time>2021-08-11T14:41:19.000Z</Time>
            <Position>
              <LatitudeDegrees>43.29681278206408023834228515625</LatitudeDegrees>
              <LongitudeDegrees>-1.86299867928028106689453125</LongitudeDegrees>
            </Position>
            <AltitudeMeters>66.59999847412109375</AltitudeMeters>
            <DistanceMeters>NAN</DistanceMeters>
          </Trackpoint>
          <Trackpoint>
            <Time>2021-08-11T14:41:20.000Z</Time>
            <Position>
              <LatitudeDegrees>43.29679635353386402130126953125</LatitudeDegrees>
              <LongitudeDegrees>-1.8630516529083251953125</LongitudeDegrees>
            </Position>
            <AltitudeMeters>66.40000152587890625</AltitudeMeters>
            <DistanceMeters>NAN</DistanceMeters>
          </Trackpoint>
          <Trackpoint>
            <Time>2021-08-11T14:41:22.000Z</Time>
            <Position>
              <LatitudeDegrees>43.29676936380565166473388671875</LatitudeDegrees>
              <LongitudeDegrees>-1.8631607852876186370849609375</LongitudeDegrees>
            </Position>
            <AltitudeMeters>66.1999969482421875</AltitudeMeters>
            <DistanceMeters>NAN</DistanceMeters>
          </Trackpoint>
          <Trackpoint>
            <Time>2021-08-11T14:41:25.000Z</Time>
            <Position>
              <LatitudeDegrees>43.29671488143503665924072265625</LatitudeDegrees>
              <LongitudeDegrees>-1.8632922135293483734130859375</LongitudeDegrees>
            </Position>
            <AltitudeMeters>66</AltitudeMeters>
            <DistanceMeters>NAN</DistanceMeters>
          </Trackpoint>
          <Trackpoint>
            <Time>2021-08-11T14:41:26.000Z</Time>
            <Position>
              <LatitudeDegrees>43.29670381732285022735595703125</LatitudeDegrees>
              <LongitudeDegrees>-1.8633287586271762847900390625</LongitudeDegrees>
            </Position>
            <AltitudeMeters>65.8000030517578125</AltitudeMeters>
            <DistanceMeters>NAN</DistanceMeters>
          </Trackpoint>
          <Trackpoint>
            <Time>2021-08-11T14:41:27.000Z</Time>
            <Position>
              <LatitudeDegrees>43.29669761471450328826904296875</LatitudeDegrees>
              <LongitudeDegrees>-1.863363794982433319091796875</LongitudeDegrees>
            </Position>
            <AltitudeMeters>65.8000030517578125</AltitudeMeters>
            <DistanceMeters>NAN</DistanceMeters>
          </Trackpoint>
          <Trackpoint>
            <Time>2021-08-11T14:41:28.000Z</Time>
            <Position>
              <LatitudeDegrees>43.29669560305774211883544921875</LatitudeDegrees>
              <LongitudeDegrees>-1.8633936345577239990234375</LongitudeDegrees>
            </Position>
            <AltitudeMeters>65.59999847412109375</AltitudeMeters>
            <DistanceMeters>NAN</DistanceMeters>
          </Trackpoint>
          <Trackpoint>
            <Time>2021-08-11T14:41:29.000Z</Time>
            <Position>
              <LatitudeDegrees>43.29669476486742496490478515625</LatitudeDegrees>
              <LongitudeDegrees>-1.86342204920947551727294921875</LongitudeDegrees>
            </Position>
            <AltitudeMeters>65.59999847412109375</AltitudeMeters>
            <DistanceMeters>NAN</DistanceMeters>
          </Trackpoint>
          <Trackpoint>
            <Time>2021-08-11T14:41:30.000Z</Time>
            <Position>
              <LatitudeDegrees>43.29669426195323467254638671875</LatitudeDegrees>
              <LongitudeDegrees>-1.86345021240413188934326171875</LongitudeDegrees>
            </Position>
            <AltitudeMeters>65.59999847412109375</AltitudeMeters>
            <DistanceMeters>NAN</DistanceMeters>
          </Trackpoint>
          <Trackpoint>
            <Time>2021-08-11T14:41:31.000Z</Time>
            <Position>
              <LatitudeDegrees>43.29669602215290069580078125</LatitudeDegrees>
              <LongitudeDegrees>-1.86347451992332935333251953125</LongitudeDegrees>
            </Position>
            <AltitudeMeters>65.40000152587890625</AltitudeMeters>
            <DistanceMeters>NAN</DistanceMeters>
          </Trackpoint>
          <Trackpoint>
            <Time>2021-08-11T14:41:32.000Z</Time>
            <Position>
              <LatitudeDegrees>43.29670046456158161163330078125</LatitudeDegrees>
              <LongitudeDegrees>-1.86349782161414623260498046875</LongitudeDegrees>
            </Position>
            <AltitudeMeters>65.1999969482421875</AltitudeMeters>
            <DistanceMeters>NAN</DistanceMeters>
          </Trackpoint>
          <Trackpoint>
            <Time>2021-08-11T14:41:33.000Z</Time>
            <Position>
              <LatitudeDegrees>43.296702392399311065673828125</LatitudeDegrees>
              <LongitudeDegrees>-1.86352171003818511962890625</LongitudeDegrees>
            </Position>
            <AltitudeMeters>65</AltitudeMeters>
            <DistanceMeters>NAN</DistanceMeters>
          </Trackpoint>
          <Trackpoint>
            <Time>2021-08-11T14:41:36.000Z</Time>
            <Position>
              <LatitudeDegrees>43.2967116124927997589111328125</LatitudeDegrees>
              <LongitudeDegrees>-1.8636217899620532989501953125</LongitudeDegrees>
            </Position>
            <AltitudeMeters>64.59999847412109375</AltitudeMeters>
            <DistanceMeters>NAN</DistanceMeters>
          </Trackpoint>
          <Trackpoint>
            <Time>2021-08-11T14:41:38.000Z</Time>
            <Position>
              <LatitudeDegrees>43.29673415981233119964599609375</LatitudeDegrees>
              <LongitudeDegrees>-1.86370753683149814605712890625</LongitudeDegrees>
            </Position>
            <AltitudeMeters>64.40000152587890625</AltitudeMeters>
            <DistanceMeters>NAN</DistanceMeters>
          </Trackpoint>
          <Trackpoint>
            <Time>2021-08-11T14:41:40.000Z</Time>
            <Position>
              <LatitudeDegrees>43.29675561748445034027099609375</LatitudeDegrees>
              <LongitudeDegrees>-1.8637911044061183929443359375</LongitudeDegrees>
            </Position>
            <AltitudeMeters>64.1999969482421875</AltitudeMeters>
            <DistanceMeters>NAN</DistanceMeters>
          </Trackpoint>
          <Trackpoint>
            <Time>2021-08-11T14:41:41.000Z</Time>
            <Position>
              <LatitudeDegrees>43.296766094863414764404296875</LatitudeDegrees>
              <LongitudeDegrees>-1.86382924206554889678955078125</LongitudeDegrees>
            </Position>
            <AltitudeMeters>64</AltitudeMeters>
            <DistanceMeters>NAN</DistanceMeters>
          </Trackpoint>
          <Trackpoint>
            <Time>2021-08-11T14:41:42.000Z</Time>
            <Position>
              <LatitudeDegrees>43.29677782952785491943359375</LatitudeDegrees>
              <LongitudeDegrees>-1.8638683855533599853515625</LongitudeDegrees>
            </Position>
            <AltitudeMeters>63.799999237060546875</AltitudeMeters>
            <DistanceMeters>NAN</DistanceMeters>
          </Trackpoint>
          <Trackpoint>
            <Time>2021-08-11T14:41:47.000Z</Time>
            <Position>
              <LatitudeDegrees>43.29680976457893848419189453125</LatitudeDegrees>
              <LongitudeDegrees>-1.864070557057857513427734375</LongitudeDegrees>
            </Position>
            <AltitudeMeters>63.59999847412109375</AltitudeMeters>
            <DistanceMeters>NAN</DistanceMeters>
          </Trackpoint>
          <Trackpoint>
            <Time>2021-08-11T14:41:48.000Z</Time>
            <Position>
              <LatitudeDegrees>43.29681680537760257720947265625</LatitudeDegrees>
              <LongitudeDegrees>-1.86410643160343170166015625</LongitudeDegrees>
            </Position>
            <AltitudeMeters>63.59999847412109375</AltitudeMeters>
            <DistanceMeters>NAN</DistanceMeters>
          </Trackpoint>
          <Trackpoint>
            <Time>2021-08-11T14:41:49.000Z</Time>
            <Position>
              <LatitudeDegrees>43.2968212477862834930419921875</LatitudeDegrees>
              <LongitudeDegrees>-1.8641421385109424591064453125</LongitudeDegrees>
            </Position>
            <AltitudeMeters>63.59999847412109375</AltitudeMeters>
            <DistanceMeters>NAN</DistanceMeters>
          </Trackpoint>
          <Trackpoint>
            <Time>2021-08-11T14:41:50.000Z</Time>
            <Position>
              <LatitudeDegrees>43.29682719893753528594970703125</LatitudeDegrees>
              <LongitudeDegrees>-1.8641776777803897857666015625</LongitudeDegrees>
            </Position>
            <AltitudeMeters>63.59999847412109375</AltitudeMeters>
            <DistanceMeters>NAN</DistanceMeters>
          </Trackpoint>
          <Trackpoint>
            <Time>2021-08-11T14:41:52.000Z</Time>
            <Position>
              <LatitudeDegrees>43.2968415319919586181640625</LatitudeDegrees>
              <LongitudeDegrees>-1.8642474152147769927978515625</LongitudeDegrees>
            </Position>
            <AltitudeMeters>63.40000152587890625</AltitudeMeters>
            <DistanceMeters>NAN</DistanceMeters>
          </Trackpoint>
          <Trackpoint>
            <Time>2021-08-11T14:41:53.000Z</Time>
            <Position>
              <LatitudeDegrees>43.296847902238368988037109375</LatitudeDegrees>
              <LongitudeDegrees>-1.8642829544842243194580078125</LongitudeDegrees>
            </Position>
            <AltitudeMeters>63.40000152587890625</AltitudeMeters>
            <DistanceMeters>NAN</DistanceMeters>
          </Trackpoint>
          <Trackpoint>
            <Time>2021-08-11T14:41:54.000Z</Time>
            <Position>
              <LatitudeDegrees>43.29685452394187450408935546875</LatitudeDegrees>
              <LongitudeDegrees>-1.86432042159140110015869140625</LongitudeDegrees>
            </Position>
            <AltitudeMeters>63.40000152587890625</AltitudeMeters>
            <DistanceMeters>NAN</DistanceMeters>
          </Trackpoint>
          <Trackpoint>
            <Time>2021-08-11T14:41:55.000Z</Time>
            <Position>
              <LatitudeDegrees>43.296862654387950897216796875</LatitudeDegrees>
              <LongitudeDegrees>-1.86435998417437076568603515625</LongitudeDegrees>
            </Position>
            <AltitudeMeters>63.200000762939453125</AltitudeMeters>
            <DistanceMeters>NAN</DistanceMeters>
          </Trackpoint>
          <Trackpoint>
            <Time>2021-08-11T14:41:58.000Z</Time>
            <Position>
              <LatitudeDegrees>43.29689358361065387725830078125</LatitudeDegrees>
              <LongitudeDegrees>-1.8644941784441471099853515625</LongitudeDegrees>
            </Position>
            <AltitudeMeters>63.200000762939453125</AltitudeMeters>
            <DistanceMeters>NAN</DistanceMeters>
          </Trackpoint>
          <Trackpoint>
            <Time>2021-08-11T14:42:00.000Z</Time>
            <Position>
              <LatitudeDegrees>43.296918310225009918212890625</LatitudeDegrees>
              <LongitudeDegrees>-1.86458243988454341888427734375</LongitudeDegrees>
            </Position>
            <AltitudeMeters>63</AltitudeMeters>
            <DistanceMeters>NAN</DistanceMeters>
          </Trackpoint>
          <Trackpoint>
            <Time>2021-08-11T14:42:01.000Z</Time>
            <Position>
              <LatitudeDegrees>43.2969295419752597808837890625</LatitudeDegrees>
              <LongitudeDegrees>-1.86462518759071826934814453125</LongitudeDegrees>
            </Position>
            <AltitudeMeters>63</AltitudeMeters>
            <DistanceMeters>NAN</DistanceMeters>
          </Trackpoint>
          <Trackpoint>
            <Time>2021-08-11T14:42:06.000Z</Time>
            <Position>
              <LatitudeDegrees>43.29699567519128322601318359375</LatitudeDegrees>
              <LongitudeDegrees>-1.864851079881191253662109375</LongitudeDegrees>
            </Position>
            <AltitudeMeters>62.40000152587890625</AltitudeMeters>
            <DistanceMeters>NAN</DistanceMeters>
          </Trackpoint>
          <Trackpoint>
            <Time>2021-08-11T14:42:10.000Z</Time>
            <Position>
              <LatitudeDegrees>43.29705652780830860137939453125</LatitudeDegrees>
              <LongitudeDegrees>-1.86505836434662342071533203125</LongitudeDegrees>
            </Position>
            <AltitudeMeters>61.200000762939453125</AltitudeMeters>
            <DistanceMeters>NAN</DistanceMeters>
          </Trackpoint>
          <Trackpoint>
            <Time>2021-08-11T14:42:12.000Z</Time>
            <Position>
              <LatitudeDegrees>43.29709541983902454376220703125</LatitudeDegrees>
              <LongitudeDegrees>-1.8651643954217433929443359375</LongitudeDegrees>
            </Position>
            <AltitudeMeters>60.59999847412109375</AltitudeMeters>
            <DistanceMeters>NAN</DistanceMeters>
          </Trackpoint>
          <Trackpoint>
            <Time>2021-08-11T14:42:13.000Z</Time>
            <Position>
              <LatitudeDegrees>43.297116123139858245849609375</LatitudeDegrees>
              <LongitudeDegrees>-1.86521946452558040618896484375</LongitudeDegrees>
            </Position>
            <AltitudeMeters>60</AltitudeMeters>
            <DistanceMeters>NAN</DistanceMeters>
          </Trackpoint>
          <Trackpoint>
            <Time>2021-08-11T14:42:17.000Z</Time>
            <Position>
              <LatitudeDegrees>43.297211341559886932373046875</LatitudeDegrees>
              <LongitudeDegrees>-1.8654453568160533905029296875</LongitudeDegrees>
            </Position>
            <AltitudeMeters>58.40000152587890625</AltitudeMeters>
            <DistanceMeters>NAN</DistanceMeters>
          </Trackpoint>
          <Trackpoint>
            <Time>2021-08-11T14:42:19.000Z</Time>
            <Position>
              <LatitudeDegrees>43.297261297702789306640625</LatitudeDegrees>
              <LongitudeDegrees>-1.8655570037662982940673828125</LongitudeDegrees>
            </Position>
            <AltitudeMeters>57.799999237060546875</AltitudeMeters>
            <DistanceMeters>NAN</DistanceMeters>
          </Trackpoint>
          <Trackpoint>
            <Time>2021-08-11T14:42:20.000Z</Time>
            <Position>
              <LatitudeDegrees>43.2972872816026210784912109375</LatitudeDegrees>
              <LongitudeDegrees>-1.86560804955661296844482421875</LongitudeDegrees>
            </Position>
            <AltitudeMeters>57.40000152587890625</AltitudeMeters>
            <DistanceMeters>NAN</DistanceMeters>
          </Trackpoint>
          <Trackpoint>
            <Time>2021-08-11T14:42:22.000Z</Time>
            <Position>
              <LatitudeDegrees>43.2973296940326690673828125</LatitudeDegrees>
              <LongitudeDegrees>-1.86571382917463779449462890625</LongitudeDegrees>
            </Position>
            <AltitudeMeters>56.59999847412109375</AltitudeMeters>
            <DistanceMeters>NAN</DistanceMeters>
          </Trackpoint>
          <Trackpoint>
            <Time>2021-08-11T14:42:23.000Z</Time>
            <Position>
              <LatitudeDegrees>43.29733841121196746826171875</LatitudeDegrees>
              <LongitudeDegrees>-1.86577551998198032379150390625</LongitudeDegrees>
            </Position>
            <AltitudeMeters>56.200000762939453125</AltitudeMeters>
            <DistanceMeters>NAN</DistanceMeters>
          </Trackpoint>
          <Trackpoint>
            <Time>2021-08-11T14:42:24.000Z</Time>
            <Position>
              <LatitudeDegrees>43.297335393726825714111328125</LatitudeDegrees>
              <LongitudeDegrees>-1.86583871953189373016357421875</LongitudeDegrees>
            </Position>
            <AltitudeMeters>55.799999237060546875</AltitudeMeters>
            <DistanceMeters>NAN</DistanceMeters>
          </Trackpoint>
          <Trackpoint>
            <Time>2021-08-11T14:42:25.000Z</Time>
            <Position>
              <LatitudeDegrees>43.2973214797675609588623046875</LatitudeDegrees>
              <LongitudeDegrees>-1.8658989854156970977783203125</LongitudeDegrees>
            </Position>
            <AltitudeMeters>55.59999847412109375</AltitudeMeters>
            <DistanceMeters>NAN</DistanceMeters>
          </Trackpoint>
          <Trackpoint>
            <Time>2021-08-11T14:42:26.000Z</Time>
            <Position>
              <LatitudeDegrees>43.297304548323154449462890625</LatitudeDegrees>
              <LongitudeDegrees>-1.865955479443073272705078125</LongitudeDegrees>
            </Position>
            <AltitudeMeters>55.40000152587890625</AltitudeMeters>
            <DistanceMeters>NAN</DistanceMeters>
          </Trackpoint>
          <Trackpoint>
            <Time>2021-08-11T14:42:27.000Z</Time>
            <Position>
              <LatitudeDegrees>43.2972882874310016632080078125</LatitudeDegrees>
              <LongitudeDegrees>-1.8660082854330539703369140625</LongitudeDegrees>
            </Position>
            <AltitudeMeters>55.200000762939453125</AltitudeMeters>
            <DistanceMeters>NAN</DistanceMeters>
          </Trackpoint>
          <Trackpoint>
            <Time>2021-08-11T14:42:28.000Z</Time>
            <Position>
              <LatitudeDegrees>43.29727093689143657684326171875</LatitudeDegrees>
              <LongitudeDegrees>-1.8660605885088443756103515625</LongitudeDegrees>
            </Position>
            <AltitudeMeters>55.200000762939453125</AltitudeMeters>
            <DistanceMeters>NAN</DistanceMeters>
          </Trackpoint>
          <Trackpoint>
            <Time>2021-08-11T14:42:29.000Z</Time>
            <Position>
              <LatitudeDegrees>43.297254256904125213623046875</LatitudeDegrees>
              <LongitudeDegrees>-1.8661098740994930267333984375</LongitudeDegrees>
            </Position>
            <AltitudeMeters>55</AltitudeMeters>
            <DistanceMeters>NAN</DistanceMeters>
          </Trackpoint>
          <Trackpoint>
            <Time>2021-08-11T14:42:30.000Z</Time>
            <Position>
              <LatitudeDegrees>43.29723875038325786590576171875</LatitudeDegrees>
              <LongitudeDegrees>-1.86615572310984134674072265625</LongitudeDegrees>
            </Position>
            <AltitudeMeters>54.799999237060546875</AltitudeMeters>
            <DistanceMeters>NAN</DistanceMeters>
          </Trackpoint>
          <Trackpoint>
            <Time>2021-08-11T14:42:31.000Z</Time>
            <Position>
              <LatitudeDegrees>43.2972262613475322723388671875</LatitudeDegrees>
              <LongitudeDegrees>-1.8661973811686038970947265625</LongitudeDegrees>
            </Position>
            <AltitudeMeters>54.799999237060546875</AltitudeMeters>
            <DistanceMeters>NAN</DistanceMeters>
          </Trackpoint>
          <Trackpoint>
            <Time>2021-08-11T14:42:32.000Z</Time>
            <Position>
              <LatitudeDegrees>43.29721427522599697113037109375</LatitudeDegrees>
              <LongitudeDegrees>-1.86623300425708293914794921875</LongitudeDegrees>
            </Position>
            <AltitudeMeters>54.799999237060546875</AltitudeMeters>
            <DistanceMeters>NAN</DistanceMeters>
          </Trackpoint>
          <Trackpoint>
            <Time>2021-08-11T14:42:33.000Z</Time>
            <Position>
              <LatitudeDegrees>43.297205306589603424072265625</LatitudeDegrees>
              <LongitudeDegrees>-1.866264604032039642333984375</LongitudeDegrees>
            </Position>
            <AltitudeMeters>54.799999237060546875</AltitudeMeters>
            <DistanceMeters>NAN</DistanceMeters>
          </Trackpoint>
          <Trackpoint>
            <Time>2021-08-11T14:42:34.000Z</Time>
            <Position>
              <LatitudeDegrees>43.2971982657909393310546875</LatitudeDegrees>
              <LongitudeDegrees>-1.86629335395991802215576171875</LongitudeDegrees>
            </Position>
            <AltitudeMeters>54.799999237060546875</AltitudeMeters>
            <DistanceMeters>NAN</DistanceMeters>
          </Trackpoint>
          <Trackpoint>
            <Time>2021-08-11T14:42:35.000Z</Time>
            <Position>
              <LatitudeDegrees>43.29719281755387783050537109375</LatitudeDegrees>
              <LongitudeDegrees>-1.8663231097161769866943359375</LongitudeDegrees>
            </Position>
            <AltitudeMeters>54.799999237060546875</AltitudeMeters>
            <DistanceMeters>NAN</DistanceMeters>
          </Trackpoint>
          <Trackpoint>
            <Time>2021-08-11T14:42:36.000Z</Time>
            <Position>
              <LatitudeDegrees>43.29718762077391147613525390625</LatitudeDegrees>
              <LongitudeDegrees>-1.86635185964405536651611328125</LongitudeDegrees>
            </Position>
            <AltitudeMeters>54.799999237060546875</AltitudeMeters>
            <DistanceMeters>NAN</DistanceMeters>
          </Trackpoint>
          <Trackpoint>
            <Time>2021-08-11T14:42:38.000Z</Time>
            <Position>
              <LatitudeDegrees>43.29717387445271015167236328125</LatitudeDegrees>
              <LongitudeDegrees>-1.8664059229195117950439453125</LongitudeDegrees>
            </Position>
            <AltitudeMeters>55</AltitudeMeters>
            <DistanceMeters>NAN</DistanceMeters>
          </Trackpoint>
          <Trackpoint>
            <Time>2021-08-11T14:42:39.000Z</Time>
            <Position>
              <LatitudeDegrees>43.2971719466149806976318359375</LatitudeDegrees>
              <LongitudeDegrees>-1.8664334155619144439697265625</LongitudeDegrees>
            </Position>
            <AltitudeMeters>55</AltitudeMeters>
            <DistanceMeters>NAN</DistanceMeters>
          </Trackpoint>
          <Trackpoint>
            <Time>2021-08-11T14:42:40.000Z</Time>
            <Position>
              <LatitudeDegrees>43.2971706055104732513427734375</LatitudeDegrees>
              <LongitudeDegrees>-1.86646099202334880828857421875</LongitudeDegrees>
            </Position>
            <AltitudeMeters>55.200000762939453125</AltitudeMeters>
            <DistanceMeters>NAN</DistanceMeters>
          </Trackpoint>
          <Trackpoint>
            <Time>2021-08-11T14:42:41.000Z</Time>
            <Position>
              <LatitudeDegrees>43.29717253334820270538330078125</LatitudeDegrees>
              <LongitudeDegrees>-1.8664890713989734649658203125</LongitudeDegrees>
            </Position>
            <AltitudeMeters>55.200000762939453125</AltitudeMeters>
            <DistanceMeters>NAN</DistanceMeters>
          </Trackpoint>
          <Trackpoint>
            <Time>2021-08-11T14:42:42.000Z</Time>
            <Position>
              <LatitudeDegrees>43.29717571847140789031982421875</LatitudeDegrees>
              <LongitudeDegrees>-1.86651698313653469085693359375</LongitudeDegrees>
            </Position>
            <AltitudeMeters>55.200000762939453125</AltitudeMeters>
            <DistanceMeters>NAN</DistanceMeters>
          </Trackpoint>
          <Trackpoint>
            <Time>2021-08-11T14:42:43.000Z</Time>
            <Position>
              <LatitudeDegrees>43.29717814922332763671875</LatitudeDegrees>
              <LongitudeDegrees>-1.8665393628180027008056640625</LongitudeDegrees>
            </Position>
            <AltitudeMeters>55.40000152587890625</AltitudeMeters>
            <DistanceMeters>NAN</DistanceMeters>
          </Trackpoint>
          <Trackpoint>
            <Time>2021-08-11T14:42:46.000Z</Time>
            <Position>
              <LatitudeDegrees>43.29718477092683315277099609375</LatitudeDegrees>
              <LongitudeDegrees>-1.86659476719796657562255859375</LongitudeDegrees>
            </Position>
            <AltitudeMeters>56</AltitudeMeters>
            <DistanceMeters>NAN</DistanceMeters>
          </Trackpoint>
          <Trackpoint>
            <Time>2021-08-11T14:42:47.000Z</Time>
            <Position>
              <LatitudeDegrees>43.29718946479260921478271484375</LatitudeDegrees>
              <LongitudeDegrees>-1.86661102809011936187744140625</LongitudeDegrees>
            </Position>
            <AltitudeMeters>56.200000762939453125</AltitudeMeters>
            <DistanceMeters>NAN</DistanceMeters>
          </Trackpoint>
          <Trackpoint>
            <Time>2021-08-11T14:42:48.000Z</Time>
            <Position>
              <LatitudeDegrees>43.2971960864961147308349609375</LatitudeDegrees>
              <LongitudeDegrees>-1.8666285462677478790283203125</LongitudeDegrees>
            </Position>
            <AltitudeMeters>56.40000152587890625</AltitudeMeters>
            <DistanceMeters>NAN</DistanceMeters>
          </Trackpoint>
          <Trackpoint>
            <Time>2021-08-11T14:42:49.000Z</Time>
            <Position>
              <LatitudeDegrees>43.29720371402800083160400390625</LatitudeDegrees>
              <LongitudeDegrees>-1.86664254404604434967041015625</LongitudeDegrees>
            </Position>
            <AltitudeMeters>56.59999847412109375</AltitudeMeters>
            <DistanceMeters>NAN</DistanceMeters>
          </Trackpoint>
          <Trackpoint>
            <Time>2021-08-11T14:42:50.000Z</Time>
            <Position>
              <LatitudeDegrees>43.29720832407474517822265625</LatitudeDegrees>
              <LongitudeDegrees>-1.86665511690080165863037109375</LongitudeDegrees>
            </Position>
            <AltitudeMeters>56.799999237060546875</AltitudeMeters>
            <DistanceMeters>NAN</DistanceMeters>
          </Trackpoint>
          <Trackpoint>
            <Time>2021-08-11T14:42:51.000Z</Time>
            <Position>
              <LatitudeDegrees>43.29721226356923580169677734375</LatitudeDegrees>
              <LongitudeDegrees>-1.86666735447943210601806640625</LongitudeDegrees>
            </Position>
            <AltitudeMeters>57</AltitudeMeters>
            <DistanceMeters>NAN</DistanceMeters>
          </Trackpoint>
          <Trackpoint>
            <Time>2021-08-11T14:42:52.000Z</Time>
            <Position>
              <LatitudeDegrees>43.2972168736159801483154296875</LatitudeDegrees>
              <LongitudeDegrees>-1.866675317287445068359375</LongitudeDegrees>
            </Position>
            <AltitudeMeters>57.200000762939453125</AltitudeMeters>
            <DistanceMeters>NAN</DistanceMeters>
          </Trackpoint>
          <Trackpoint>
            <Time>2021-08-11T14:42:53.000Z</Time>
            <Position>
              <LatitudeDegrees>43.29722441732883453369140625</LatitudeDegrees>
              <LongitudeDegrees>-1.866684369742870330810546875</LongitudeDegrees>
            </Position>
            <AltitudeMeters>57.200000762939453125</AltitudeMeters>
            <DistanceMeters>NAN</DistanceMeters>
          </Trackpoint>
          <Trackpoint>
            <Time>2021-08-11T14:42:54.000Z</Time>
            <Position>
              <LatitudeDegrees>43.2972282730042934417724609375</LatitudeDegrees>
              <LongitudeDegrees>-1.86669535003602504730224609375</LongitudeDegrees>
            </Position>
            <AltitudeMeters>57.40000152587890625</AltitudeMeters>
            <DistanceMeters>NAN</DistanceMeters>
          </Trackpoint>
          <Trackpoint>
            <Time>2021-08-11T14:42:55.000Z</Time>
            <Position>
              <LatitudeDegrees>43.29722953028976917266845703125</LatitudeDegrees>
              <LongitudeDegrees>-1.86670037917792797088623046875</LongitudeDegrees>
            </Position>
            <AltitudeMeters>57.40000152587890625</AltitudeMeters>
            <DistanceMeters>NAN</DistanceMeters>
          </Trackpoint>
          <Trackpoint>
            <Time>2021-08-11T14:42:57.000Z</Time>
            <Position>
              <LatitudeDegrees>43.29722953028976917266845703125</LatitudeDegrees>
              <LongitudeDegrees>-1.86670037917792797088623046875</LongitudeDegrees>
            </Position>
            <AltitudeMeters>57.59999847412109375</AltitudeMeters>
            <DistanceMeters>NAN</DistanceMeters>
          </Trackpoint>
          <Trackpoint>
            <Time>2021-08-11T14:43:27.000Z</Time>
            <Position>
              <LatitudeDegrees>43.29722953028976917266845703125</LatitudeDegrees>
              <LongitudeDegrees>-1.86670037917792797088623046875</LongitudeDegrees>
            </Position>
            <AltitudeMeters>58.200000762939453125</AltitudeMeters>
            <DistanceMeters>NAN</DistanceMeters>
          </Trackpoint>
          <Trackpoint>
            <Time>2021-08-11T14:47:51.000Z</Time>
            <Position>
              <LatitudeDegrees>43.29722835682332515716552734375</LatitudeDegrees>
              <LongitudeDegrees>-1.86670708470046520233154296875</LongitudeDegrees>
            </Position>
            <AltitudeMeters>58.40000152587890625</AltitudeMeters>
            <DistanceMeters>NAN</DistanceMeters>
          </Trackpoint>
          <Trackpoint>
            <Time>2021-08-11T14:47:53.000Z</Time>
            <Position>
              <LatitudeDegrees>43.2972299493849277496337890625</LatitudeDegrees>
              <LongitudeDegrees>-1.86670758761465549468994140625</LongitudeDegrees>
            </Position>
            <AltitudeMeters>58.40000152587890625</AltitudeMeters>
            <DistanceMeters>NAN</DistanceMeters>
          </Trackpoint>
          <Trackpoint>
            <Time>2021-08-11T14:47:56.000Z</Time>
            <Position>
              <LatitudeDegrees>43.2972889579832553863525390625</LatitudeDegrees>
              <LongitudeDegrees>-1.86671194620430469512939453125</LongitudeDegrees>
            </Position>
            <AltitudeMeters>58.40000152587890625</AltitudeMeters>
            <DistanceMeters>NAN</DistanceMeters>
          </Trackpoint>
          <Trackpoint>
            <Time>2021-08-11T14:48:00.000Z</Time>
            <Position>
              <LatitudeDegrees>43.29738534986972808837890625</LatitudeDegrees>
              <LongitudeDegrees>-1.866756789386272430419921875</LongitudeDegrees>
            </Position>
            <AltitudeMeters>58.40000152587890625</AltitudeMeters>
            <DistanceMeters>NAN</DistanceMeters>
          </Trackpoint>
          <Trackpoint>
            <Time>2021-08-11T14:48:06.000Z</Time>
            <Position>
              <LatitudeDegrees>43.29752591438591480255126953125</LatitudeDegrees>
              <LongitudeDegrees>-1.8668330647051334381103515625</LongitudeDegrees>
            </Position>
            <AltitudeMeters>58.200000762939453125</AltitudeMeters>
            <DistanceMeters>NAN</DistanceMeters>
          </Trackpoint>
          <Trackpoint>
            <Time>2021-08-11T14:48:11.000Z</Time>
            <Position>
              <LatitudeDegrees>43.29762381501495838165283203125</LatitudeDegrees>
              <LongitudeDegrees>-1.86690171249210834503173828125</LongitudeDegrees>
            </Position>
            <AltitudeMeters>58</AltitudeMeters>
            <DistanceMeters>NAN</DistanceMeters>
          </Trackpoint>
          <Trackpoint>
            <Time>2021-08-11T14:48:12.000Z</Time>
            <Position>
              <LatitudeDegrees>43.297639824450016021728515625</LatitudeDegrees>
              <LongitudeDegrees>-1.866918392479419708251953125</LongitudeDegrees>
            </Position>
            <AltitudeMeters>58</AltitudeMeters>
            <DistanceMeters>NAN</DistanceMeters>
          </Trackpoint>
          <Trackpoint>
            <Time>2021-08-11T14:48:15.000Z</Time>
            <Position>
              <LatitudeDegrees>43.29771417193114757537841796875</LatitudeDegrees>
              <LongitudeDegrees>-1.86699491925537586212158203125</LongitudeDegrees>
            </Position>
            <AltitudeMeters>58</AltitudeMeters>
            <DistanceMeters>NAN</DistanceMeters>
          </Trackpoint>
          <Trackpoint>
            <Time>2021-08-11T14:48:20.000Z</Time>
            <Position>
              <LatitudeDegrees>43.29787082970142364501953125</LatitudeDegrees>
              <LongitudeDegrees>-1.86719231307506561279296875</LongitudeDegrees>
            </Position>
            <AltitudeMeters>57.799999237060546875</AltitudeMeters>
            <DistanceMeters>NAN</DistanceMeters>
          </Trackpoint>
          <Trackpoint>
            <Time>2021-08-11T14:48:21.000Z</Time>
            <Position>
              <LatitudeDegrees>43.29790092073380947113037109375</LatitudeDegrees>
              <LongitudeDegrees>-1.8672286905348300933837890625</LongitudeDegrees>
            </Position>
            <AltitudeMeters>57.40000152587890625</AltitudeMeters>
            <DistanceMeters>NAN</DistanceMeters>
          </Trackpoint>
          <Trackpoint>
            <Time>2021-08-11T14:48:22.000Z</Time>
            <Position>
              <LatitudeDegrees>43.29792807810008525848388671875</LatitudeDegrees>
              <LongitudeDegrees>-1.86726205050945281982421875</LongitudeDegrees>
            </Position>
            <AltitudeMeters>57.40000152587890625</AltitudeMeters>
            <DistanceMeters>NAN</DistanceMeters>
          </Trackpoint>
          <Trackpoint>
            <Time>2021-08-11T14:48:23.000Z</Time>
            <Position>
              <LatitudeDegrees>43.2979519665241241455078125</LatitudeDegrees>
              <LongitudeDegrees>-1.8672933988273143768310546875</LongitudeDegrees>
            </Position>
            <AltitudeMeters>56.799999237060546875</AltitudeMeters>
            <DistanceMeters>NAN</DistanceMeters>
          </Trackpoint>
          <Trackpoint>
            <Time>2021-08-11T14:48:24.000Z</Time>
            <Position>
              <LatitudeDegrees>43.29797350801527500152587890625</LatitudeDegrees>
              <LongitudeDegrees>-1.8673178739845752716064453125</LongitudeDegrees>
            </Position>
            <AltitudeMeters>56.40000152587890625</AltitudeMeters>
            <DistanceMeters>NAN</DistanceMeters>
          </Trackpoint>
          <Trackpoint>
            <Time>2021-08-11T14:48:25.000Z</Time>
            <Position>
              <LatitudeDegrees>43.29799421131610870361328125</LatitudeDegrees>
              <LongitudeDegrees>-1.86733857728540897369384765625</LongitudeDegrees>
            </Position>
            <AltitudeMeters>56</AltitudeMeters>
            <DistanceMeters>NAN</DistanceMeters>
          </Trackpoint>
          <Trackpoint>
            <Time>2021-08-11T14:48:26.000Z</Time>
            <Position>
              <LatitudeDegrees>43.298017345368862152099609375</LatitudeDegrees>
              <LongitudeDegrees>-1.86735332943499088287353515625</LongitudeDegrees>
            </Position>
            <AltitudeMeters>55.59999847412109375</AltitudeMeters>
            <DistanceMeters>NAN</DistanceMeters>
          </Trackpoint>
          <Trackpoint>
            <Time>2021-08-11T14:48:27.000Z</Time>
            <Position>
              <LatitudeDegrees>43.29804249107837677001953125</LatitudeDegrees>
              <LongitudeDegrees>-1.86736757867038249969482421875</LongitudeDegrees>
            </Position>
            <AltitudeMeters>55.40000152587890625</AltitudeMeters>
            <DistanceMeters>NAN</DistanceMeters>
          </Trackpoint>
          <Trackpoint>
            <Time>2021-08-11T14:48:30.000Z</Time>
            <Position>
              <LatitudeDegrees>43.29813712276518344879150390625</LatitudeDegrees>
              <LongitudeDegrees>-1.8674115836620330810546875</LongitudeDegrees>
            </Position>
            <AltitudeMeters>54.40000152587890625</AltitudeMeters>
            <DistanceMeters>NAN</DistanceMeters>
          </Trackpoint>
          <Trackpoint>
            <Time>2021-08-11T14:48:32.000Z</Time>
            <Position>
              <LatitudeDegrees>43.298191018402576446533203125</LatitudeDegrees>
              <LongitudeDegrees>-1.8674201332032680511474609375</LongitudeDegrees>
            </Position>
            <AltitudeMeters>53.59999847412109375</AltitudeMeters>
            <DistanceMeters>NAN</DistanceMeters>
          </Trackpoint>
          <Trackpoint>
            <Time>2021-08-11T14:48:33.000Z</Time>
            <Position>
              <LatitudeDegrees>43.2982183434069156646728515625</LatitudeDegrees>
              <LongitudeDegrees>-1.8674275092780590057373046875</LongitudeDegrees>
            </Position>
            <AltitudeMeters>53.200000762939453125</AltitudeMeters>
            <DistanceMeters>NAN</DistanceMeters>
          </Trackpoint>
          <Trackpoint>
            <Time>2021-08-11T14:48:34.000Z</Time>
            <Position>
              <LatitudeDegrees>43.29824902117252349853515625</LatitudeDegrees>
              <LongitudeDegrees>-1.86743480153381824493408203125</LongitudeDegrees>
            </Position>
            <AltitudeMeters>53</AltitudeMeters>
            <DistanceMeters>NAN</DistanceMeters>
          </Trackpoint>
          <Trackpoint>
            <Time>2021-08-11T14:48:37.000Z</Time>
            <Position>
              <LatitudeDegrees>43.2983366958796977996826171875</LatitudeDegrees>
              <LongitudeDegrees>-1.8674493022263050079345703125</LongitudeDegrees>
            </Position>
            <AltitudeMeters>51.799999237060546875</AltitudeMeters>
            <DistanceMeters>NAN</DistanceMeters>
          </Trackpoint>
          <Trackpoint>
            <Time>2021-08-11T14:48:41.000Z</Time>
            <Position>
              <LatitudeDegrees>43.298474662005901336669921875</LatitudeDegrees>
              <LongitudeDegrees>-1.8674640543758869171142578125</LongitudeDegrees>
            </Position>
            <AltitudeMeters>51</AltitudeMeters>
            <DistanceMeters>NAN</DistanceMeters>
          </Trackpoint>
          <Trackpoint>
            <Time>2021-08-11T14:48:42.000Z</Time>
            <Position>
              <LatitudeDegrees>43.29851447604596614837646484375</LatitudeDegrees>
              <LongitudeDegrees>-1.86746816150844097137451171875</LongitudeDegrees>
            </Position>
            <AltitudeMeters>50.200000762939453125</AltitudeMeters>
            <DistanceMeters>NAN</DistanceMeters>
          </Trackpoint>
          <Trackpoint>
            <Time>2021-08-11T14:48:45.000Z</Time>
            <Position>
              <LatitudeDegrees>43.2986230216920375823974609375</LatitudeDegrees>
              <LongitudeDegrees>-1.8674881942570209503173828125</LongitudeDegrees>
            </Position>
            <AltitudeMeters>49.40000152587890625</AltitudeMeters>
            <DistanceMeters>NAN</DistanceMeters>
          </Trackpoint>
          <Trackpoint>
            <Time>2021-08-11T14:48:46.000Z</Time>
            <Position>
              <LatitudeDegrees>43.29866199754178524017333984375</LatitudeDegrees>
              <LongitudeDegrees>-1.8674955703318119049072265625</LongitudeDegrees>
            </Position>
            <AltitudeMeters>49</AltitudeMeters>
            <DistanceMeters>NAN</DistanceMeters>
          </Trackpoint>
          <Trackpoint>
            <Time>2021-08-11T14:48:48.000Z</Time>
            <Position>
              <LatitudeDegrees>43.29873274080455303192138671875</LatitudeDegrees>
              <LongitudeDegrees>-1.86750772409141063690185546875</LongitudeDegrees>
            </Position>
            <AltitudeMeters>48</AltitudeMeters>
            <DistanceMeters>NAN</DistanceMeters>
          </Trackpoint>
          <Trackpoint>
            <Time>2021-08-11T14:48:51.000Z</Time>
            <Position>
              <LatitudeDegrees>43.29886517487466335296630859375</LatitudeDegrees>
              <LongitudeDegrees>-1.86753001995384693145751953125</LongitudeDegrees>
            </Position>
            <AltitudeMeters>47.200000762939453125</AltitudeMeters>
            <DistanceMeters>NAN</DistanceMeters>
          </Trackpoint>
          <Trackpoint>
            <Time>2021-08-11T14:48:54.000Z</Time>
            <Position>
              <LatitudeDegrees>43.29898394644260406494140625</LatitudeDegrees>
              <LongitudeDegrees>-1.867550052702426910400390625</LongitudeDegrees>
            </Position>
            <AltitudeMeters>46.40000152587890625</AltitudeMeters>
            <DistanceMeters>NAN</DistanceMeters>
          </Trackpoint>
          <Trackpoint>
            <Time>2021-08-11T14:48:55.000Z</Time>
            <Position>
              <LatitudeDegrees>43.29901755787432193756103515625</LatitudeDegrees>
              <LongitudeDegrees>-1.86756086535751819610595703125</LongitudeDegrees>
            </Position>
            <AltitudeMeters>46.200000762939453125</AltitudeMeters>
            <DistanceMeters>NAN</DistanceMeters>
          </Trackpoint>
          <Trackpoint>
            <Time>2021-08-11T14:48:56.000Z</Time>
            <Position>
              <LatitudeDegrees>43.2990504987537860870361328125</LatitudeDegrees>
              <LongitudeDegrees>-1.8675698339939117431640625</LongitudeDegrees>
            </Position>
            <AltitudeMeters>46</AltitudeMeters>
            <DistanceMeters>NAN</DistanceMeters>
          </Trackpoint>
          <Trackpoint>
            <Time>2021-08-11T14:48:57.000Z</Time>
            <Position>
              <LatitudeDegrees>43.29908964224159717559814453125</LatitudeDegrees>
              <LongitudeDegrees>-1.86757813207805156707763671875</LongitudeDegrees>
            </Position>
            <AltitudeMeters>46</AltitudeMeters>
            <DistanceMeters>NAN</DistanceMeters>
          </Trackpoint>
          <Trackpoint>
            <Time>2021-08-11T14:48:58.000Z</Time>
            <Position>
              <LatitudeDegrees>43.2991242595016956329345703125</LatitudeDegrees>
              <LongitudeDegrees>-1.86756589449942111968994140625</LongitudeDegrees>
            </Position>
            <AltitudeMeters>45.799999237060546875</AltitudeMeters>
            <DistanceMeters>NAN</DistanceMeters>
          </Trackpoint>
          <Trackpoint>
            <Time>2021-08-11T14:48:59.000Z</Time>
            <Position>
              <LatitudeDegrees>43.2991497404873371124267578125</LatitudeDegrees>
              <LongitudeDegrees>-1.867546029388904571533203125</LongitudeDegrees>
            </Position>
            <AltitudeMeters>45.59999847412109375</AltitudeMeters>
            <DistanceMeters>NAN</DistanceMeters>
          </Trackpoint>
          <Trackpoint>
            <Time>2021-08-11T14:49:00.000Z</Time>
            <Position>
              <LatitudeDegrees>43.2991782389581203460693359375</LatitudeDegrees>
              <LongitudeDegrees>-1.8675307743251323699951171875</LongitudeDegrees>
            </Position>
            <AltitudeMeters>45.200000762939453125</AltitudeMeters>
            <DistanceMeters>NAN</DistanceMeters>
          </Trackpoint>
          <Trackpoint>
            <Time>2021-08-11T14:49:01.000Z</Time>
            <Position>
              <LatitudeDegrees>43.29921352677047252655029296875</LatitudeDegrees>
              <LongitudeDegrees>-1.867535300552845001220703125</LongitudeDegrees>
            </Position>
            <AltitudeMeters>45</AltitudeMeters>
            <DistanceMeters>NAN</DistanceMeters>
          </Trackpoint>
          <Trackpoint>
            <Time>2021-08-11T14:49:02.000Z</Time>
            <Position>
              <LatitudeDegrees>43.299241773784160614013671875</LatitudeDegrees>
              <LongitudeDegrees>-1.86754929833114147186279296875</LongitudeDegrees>
            </Position>
            <AltitudeMeters>45</AltitudeMeters>
            <DistanceMeters>NAN</DistanceMeters>
          </Trackpoint>
          <Trackpoint>
            <Time>2021-08-11T14:49:03.000Z</Time>
            <Position>
              <LatitudeDegrees>43.29926046542823314666748046875</LatitudeDegrees>
              <LongitudeDegrees>-1.8675639666616916656494140625</LongitudeDegrees>
            </Position>
            <AltitudeMeters>44.799999237060546875</AltitudeMeters>
            <DistanceMeters>NAN</DistanceMeters>
          </Trackpoint>
          <Trackpoint>
            <Time>2021-08-11T14:49:04.000Z</Time>
            <Position>
              <LatitudeDegrees>43.2992769777774810791015625</LatitudeDegrees>
              <LongitudeDegrees>-1.86759196221828460693359375</LongitudeDegrees>
            </Position>
            <AltitudeMeters>44.799999237060546875</AltitudeMeters>
            <DistanceMeters>NAN</DistanceMeters>
          </Trackpoint>
          <Trackpoint>
            <Time>2021-08-11T14:49:05.000Z</Time>
            <Position>
              <LatitudeDegrees>43.2992861978709697723388671875</LatitudeDegrees>
              <LongitudeDegrees>-1.86762540601193904876708984375</LongitudeDegrees>
            </Position>
            <AltitudeMeters>44.799999237060546875</AltitudeMeters>
            <DistanceMeters>NAN</DistanceMeters>
          </Trackpoint>
          <Trackpoint>
            <Time>2021-08-11T14:49:06.000Z</Time>
            <Position>
              <LatitudeDegrees>43.29928929917514324188232421875</LatitudeDegrees>
              <LongitudeDegrees>-1.8676648847758769989013671875</LongitudeDegrees>
            </Position>
            <AltitudeMeters>44.59999847412109375</AltitudeMeters>
            <DistanceMeters>NAN</DistanceMeters>
          </Trackpoint>
          <Trackpoint>
            <Time>2021-08-11T14:49:08.000Z</Time>
            <Position>
              <LatitudeDegrees>43.29927421174943447113037109375</LatitudeDegrees>
              <LongitudeDegrees>-1.8677476979792118072509765625</LongitudeDegrees>
            </Position>
            <AltitudeMeters>44.59999847412109375</AltitudeMeters>
            <DistanceMeters>NAN</DistanceMeters>
          </Trackpoint>
          <Trackpoint>
            <Time>2021-08-11T14:49:09.000Z</Time>
            <Position>
              <LatitudeDegrees>43.299263902008533477783203125</LatitudeDegrees>
              <LongitudeDegrees>-1.8677926249802112579345703125</LongitudeDegrees>
            </Position>
            <AltitudeMeters>44.40000152587890625</AltitudeMeters>
            <DistanceMeters>NAN</DistanceMeters>
          </Trackpoint>
          <Trackpoint>
            <Time>2021-08-11T14:49:10.000Z</Time>
            <Position>
              <LatitudeDegrees>43.29925443045794963836669921875</LatitudeDegrees>
              <LongitudeDegrees>-1.86784408986568450927734375</LongitudeDegrees>
            </Position>
            <AltitudeMeters>44.40000152587890625</AltitudeMeters>
            <DistanceMeters>NAN</DistanceMeters>
          </Trackpoint>
          <Trackpoint>
            <Time>2021-08-11T14:49:11.000Z</Time>
            <Position>
              <LatitudeDegrees>43.299245797097682952880859375</LatitudeDegrees>
              <LongitudeDegrees>-1.8678972311317920684814453125</LongitudeDegrees>
            </Position>
            <AltitudeMeters>44.40000152587890625</AltitudeMeters>
            <DistanceMeters>NAN</DistanceMeters>
          </Trackpoint>
          <Trackpoint>
            <Time>2021-08-11T14:49:14.000Z</Time>
            <Position>
              <LatitudeDegrees>43.29922132194042205810546875</LatitudeDegrees>
              <LongitudeDegrees>-1.86805858276784420013427734375</LongitudeDegrees>
            </Position>
            <AltitudeMeters>44.200000762939453125</AltitudeMeters>
            <DistanceMeters>NAN</DistanceMeters>
          </Trackpoint>
          <Trackpoint>
            <Time>2021-08-11T14:49:16.000Z</Time>
            <Position>
              <LatitudeDegrees>43.2992099225521087646484375</LatitudeDegrees>
              <LongitudeDegrees>-1.86817400157451629638671875</LongitudeDegrees>
            </Position>
            <AltitudeMeters>43.799999237060546875</AltitudeMeters>
            <DistanceMeters>NAN</DistanceMeters>
          </Trackpoint>
          <Trackpoint>
            <Time>2021-08-11T14:49:20.000Z</Time>
            <Position>
              <LatitudeDegrees>43.2991903088986873626708984375</LatitudeDegrees>
              <LongitudeDegrees>-1.8684202618896961212158203125</LongitudeDegrees>
            </Position>
            <AltitudeMeters>42.799999237060546875</AltitudeMeters>
            <DistanceMeters>NAN</DistanceMeters>
          </Trackpoint>
          <Trackpoint>
            <Time>2021-08-11T14:49:21.000Z</Time>
            <Position>
              <LatitudeDegrees>43.2991856150329113006591796875</LatitudeDegrees>
              <LongitudeDegrees>-1.86847507953643798828125</LongitudeDegrees>
            </Position>
            <AltitudeMeters>42.40000152587890625</AltitudeMeters>
            <DistanceMeters>NAN</DistanceMeters>
          </Trackpoint>
          <Trackpoint>
            <Time>2021-08-11T14:49:26.000Z</Time>
            <Position>
              <LatitudeDegrees>43.2991520874202251434326171875</LatitudeDegrees>
              <LongitudeDegrees>-1.868837177753448486328125</LongitudeDegrees>
            </Position>
            <AltitudeMeters>41</AltitudeMeters>
            <DistanceMeters>NAN</DistanceMeters>
          </Trackpoint>
          <Trackpoint>
            <Time>2021-08-11T14:49:30.000Z</Time>
            <Position>
              <LatitudeDegrees>43.29912920482456684112548828125</LatitudeDegrees>
              <LongitudeDegrees>-1.8691223300993442535400390625</LongitudeDegrees>
            </Position>
            <AltitudeMeters>39.799999237060546875</AltitudeMeters>
            <DistanceMeters>NAN</DistanceMeters>
          </Trackpoint>
          <Trackpoint>
            <Time>2021-08-11T14:49:34.000Z</Time>
            <Position>
              <LatitudeDegrees>43.2990981079638004302978515625</LatitudeDegrees>
              <LongitudeDegrees>-1.86942148022353649139404296875</LongitudeDegrees>
            </Position>
            <AltitudeMeters>39</AltitudeMeters>
            <DistanceMeters>NAN</DistanceMeters>
          </Trackpoint>
          <Trackpoint>
            <Time>2021-08-11T14:49:35.000Z</Time>
            <Position>
              <LatitudeDegrees>43.29909257590770721435546875</LatitudeDegrees>
              <LongitudeDegrees>-1.86948962509632110595703125</LongitudeDegrees>
            </Position>
            <AltitudeMeters>38.40000152587890625</AltitudeMeters>
            <DistanceMeters>NAN</DistanceMeters>
          </Trackpoint>
          <Trackpoint>
            <Time>2021-08-11T14:49:36.000Z</Time>
            <Position>
              <LatitudeDegrees>43.29908746294677257537841796875</LatitudeDegrees>
              <LongitudeDegrees>-1.86955223791301250457763671875</LongitudeDegrees>
            </Position>
            <AltitudeMeters>38.200000762939453125</AltitudeMeters>
            <DistanceMeters>NAN</DistanceMeters>
          </Trackpoint>
          <Trackpoint>
            <Time>2021-08-11T14:49:37.000Z</Time>
            <Position>
              <LatitudeDegrees>43.299082182347774505615234375</LatitudeDegrees>
              <LongitudeDegrees>-1.86960940249264240264892578125</LongitudeDegrees>
            </Position>
            <AltitudeMeters>37.799999237060546875</AltitudeMeters>
            <DistanceMeters>NAN</DistanceMeters>
          </Trackpoint>
          <Trackpoint>
            <Time>2021-08-11T14:49:38.000Z</Time>
            <Position>
              <LatitudeDegrees>43.29907782375812530517578125</LatitudeDegrees>
              <LongitudeDegrees>-1.86966455541551113128662109375</LongitudeDegrees>
            </Position>
            <AltitudeMeters>37.59999847412109375</AltitudeMeters>
            <DistanceMeters>NAN</DistanceMeters>
          </Trackpoint>
          <Trackpoint>
            <Time>2021-08-11T14:49:39.000Z</Time>
            <Position>
              <LatitudeDegrees>43.2990729622542858123779296875</LatitudeDegrees>
              <LongitudeDegrees>-1.86971568502485752105712890625</LongitudeDegrees>
            </Position>
            <AltitudeMeters>37.40000152587890625</AltitudeMeters>
            <DistanceMeters>NAN</DistanceMeters>
          </Trackpoint>
          <Trackpoint>
            <Time>2021-08-11T14:49:40.000Z</Time>
            <Position>
              <LatitudeDegrees>43.299069106578826904296875</LatitudeDegrees>
              <LongitudeDegrees>-1.8697677366435527801513671875</LongitudeDegrees>
            </Position>
            <AltitudeMeters>37.200000762939453125</AltitudeMeters>
            <DistanceMeters>NAN</DistanceMeters>
          </Trackpoint>
          <Trackpoint>
            <Time>2021-08-11T14:49:42.000Z</Time>
            <Position>
              <LatitudeDegrees>43.2990575395524501800537109375</LatitudeDegrees>
              <LongitudeDegrees>-1.869870834052562713623046875</LongitudeDegrees>
            </Position>
            <AltitudeMeters>37</AltitudeMeters>
            <DistanceMeters>NAN</DistanceMeters>
          </Trackpoint>
          <Trackpoint>
            <Time>2021-08-11T14:49:43.000Z</Time>
            <Position>
              <LatitudeDegrees>43.29905393533408641815185546875</LatitudeDegrees>
              <LongitudeDegrees>-1.8699212931096553802490234375</LongitudeDegrees>
            </Position>
            <AltitudeMeters>36.799999237060546875</AltitudeMeters>
            <DistanceMeters>NAN</DistanceMeters>
          </Trackpoint>
          <Trackpoint>
            <Time>2021-08-11T14:49:44.000Z</Time>
            <Position>
              <LatitudeDegrees>43.29905100166797637939453125</LatitudeDegrees>
              <LongitudeDegrees>-1.86996781267225742340087890625</LongitudeDegrees>
            </Position>
            <AltitudeMeters>36.59999847412109375</AltitudeMeters>
            <DistanceMeters>NAN</DistanceMeters>
          </Trackpoint>
          <Trackpoint>
            <Time>2021-08-11T14:49:45.000Z</Time>
            <Position>
              <LatitudeDegrees>43.29904588870704174041748046875</LatitudeDegrees>
              <LongitudeDegrees>-1.87001357786357402801513671875</LongitudeDegrees>
            </Position>
            <AltitudeMeters>36.59999847412109375</AltitudeMeters>
            <DistanceMeters>NAN</DistanceMeters>
          </Trackpoint>
          <Trackpoint>
            <Time>2021-08-11T14:49:46.000Z</Time>
            <Position>
              <LatitudeDegrees>43.2990396022796630859375</LatitudeDegrees>
              <LongitudeDegrees>-1.87005749903619289398193359375</LongitudeDegrees>
            </Position>
            <AltitudeMeters>36.59999847412109375</AltitudeMeters>
            <DistanceMeters>NAN</DistanceMeters>
          </Trackpoint>
          <Trackpoint>
            <Time>2021-08-11T14:49:47.000Z</Time>
            <Position>
              <LatitudeDegrees>43.29903599806129932403564453125</LatitudeDegrees>
              <LongitudeDegrees>-1.87009982764720916748046875</LongitudeDegrees>
            </Position>
            <AltitudeMeters>36.40000152587890625</AltitudeMeters>
            <DistanceMeters>NAN</DistanceMeters>
          </Trackpoint>
          <Trackpoint>
            <Time>2021-08-11T14:49:48.000Z</Time>
            <Position>
              <LatitudeDegrees>43.2990344054996967315673828125</LatitudeDegrees>
              <LongitudeDegrees>-1.87014408409595489501953125</LongitudeDegrees>
            </Position>
            <AltitudeMeters>36.40000152587890625</AltitudeMeters>
            <DistanceMeters>NAN</DistanceMeters>
          </Trackpoint>
          <Trackpoint>
            <Time>2021-08-11T14:49:49.000Z</Time>
            <Position>
              <LatitudeDegrees>43.2990327291190624237060546875</LatitudeDegrees>
              <LongitudeDegrees>-1.87019177712500095367431640625</LongitudeDegrees>
            </Position>
            <AltitudeMeters>36.40000152587890625</AltitudeMeters>
            <DistanceMeters>NAN</DistanceMeters>
          </Trackpoint>
          <Trackpoint>
            <Time>2021-08-11T14:49:50.000Z</Time>
            <Position>
              <LatitudeDegrees>43.29903046600520610809326171875</LatitudeDegrees>
              <LongitudeDegrees>-1.8702408112585544586181640625</LongitudeDegrees>
            </Position>
            <AltitudeMeters>36.40000152587890625</AltitudeMeters>
            <DistanceMeters>NAN</DistanceMeters>
          </Trackpoint>
          <Trackpoint>
            <Time>2021-08-11T14:49:51.000Z</Time>
            <Position>
              <LatitudeDegrees>43.2990280352532863616943359375</LatitudeDegrees>
              <LongitudeDegrees>-1.870287247002124786376953125</LongitudeDegrees>
            </Position>
            <AltitudeMeters>36.40000152587890625</AltitudeMeters>
            <DistanceMeters>NAN</DistanceMeters>
          </Trackpoint>
          <Trackpoint>
            <Time>2021-08-11T14:49:52.000Z</Time>
            <Position>
              <LatitudeDegrees>43.2990246824920177459716796875</LatitudeDegrees>
              <LongitudeDegrees>-1.8703326769173145294189453125</LongitudeDegrees>
            </Position>
            <AltitudeMeters>36.40000152587890625</AltitudeMeters>
            <DistanceMeters>NAN</DistanceMeters>
          </Trackpoint>
          <Trackpoint>
            <Time>2021-08-11T14:49:53.000Z</Time>
            <Position>
              <LatitudeDegrees>43.299021162092685699462890625</LatitudeDegrees>
              <LongitudeDegrees>-1.87038011848926544189453125</LongitudeDegrees>
            </Position>
            <AltitudeMeters>36.40000152587890625</AltitudeMeters>
            <DistanceMeters>NAN</DistanceMeters>
          </Trackpoint>
          <Trackpoint>
            <Time>2021-08-11T14:49:54.000Z</Time>
            <Position>
              <LatitudeDegrees>43.29901822842657566070556640625</LatitudeDegrees>
              <LongitudeDegrees>-1.87042613513767719268798828125</LongitudeDegrees>
            </Position>
            <AltitudeMeters>36.40000152587890625</AltitudeMeters>
            <DistanceMeters>NAN</DistanceMeters>
          </Trackpoint>
          <Trackpoint>
            <Time>2021-08-11T14:49:55.000Z</Time>
            <Position>
              <LatitudeDegrees>43.2990142889320850372314453125</LatitudeDegrees>
              <LongitudeDegrees>-1.87047173269093036651611328125</LongitudeDegrees>
            </Position>
            <AltitudeMeters>36.59999847412109375</AltitudeMeters>
            <DistanceMeters>NAN</DistanceMeters>
          </Trackpoint>
          <Trackpoint>
            <Time>2021-08-11T14:50:00.000Z</Time>
            <Position>
              <LatitudeDegrees>43.29899509437382221221923828125</LatitudeDegrees>
              <LongitudeDegrees>-1.87071816064417362213134765625</LongitudeDegrees>
            </Position>
            <AltitudeMeters>36.799999237060546875</AltitudeMeters>
            <DistanceMeters>NAN</DistanceMeters>
          </Trackpoint>
          <Trackpoint>
            <Time>2021-08-11T14:50:08.000Z</Time>
            <Position>
              <LatitudeDegrees>43.29895041882991790771484375</LatitudeDegrees>
              <LongitudeDegrees>-1.87109936960041522979736328125</LongitudeDegrees>
            </Position>
            <AltitudeMeters>37</AltitudeMeters>
            <DistanceMeters>NAN</DistanceMeters>
          </Trackpoint>
          <Trackpoint>
            <Time>2021-08-11T14:50:09.000Z</Time>
            <Position>
              <LatitudeDegrees>43.2989438809454441070556640625</LatitudeDegrees>
              <LongitudeDegrees>-1.87113960273563861846923828125</LongitudeDegrees>
            </Position>
            <AltitudeMeters>37</AltitudeMeters>
            <DistanceMeters>NAN</DistanceMeters>
          </Trackpoint>
          <Trackpoint>
            <Time>2021-08-11T14:50:12.000Z</Time>
            <Position>
              <LatitudeDegrees>43.29893164336681365966796875</LatitudeDegrees>
              <LongitudeDegrees>-1.87126524746417999267578125</LongitudeDegrees>
            </Position>
            <AltitudeMeters>37.40000152587890625</AltitudeMeters>
            <DistanceMeters>NAN</DistanceMeters>
          </Trackpoint>
          <Trackpoint>
            <Time>2021-08-11T14:50:14.000Z</Time>
            <Position>
              <LatitudeDegrees>43.29893030226230621337890625</LatitudeDegrees>
              <LongitudeDegrees>-1.8713572807610034942626953125</LongitudeDegrees>
            </Position>
            <AltitudeMeters>37.59999847412109375</AltitudeMeters>
            <DistanceMeters>NAN</DistanceMeters>
          </Trackpoint>
          <Trackpoint>
            <Time>2021-08-11T14:50:16.000Z</Time>
            <Position>
              <LatitudeDegrees>43.2989215850830078125</LatitudeDegrees>
              <LongitudeDegrees>-1.87145166099071502685546875</LongitudeDegrees>
            </Position>
            <AltitudeMeters>37.799999237060546875</AltitudeMeters>
            <DistanceMeters>NAN</DistanceMeters>
          </Trackpoint>
          <Trackpoint>
            <Time>2021-08-11T14:50:20.000Z</Time>
            <Position>
              <LatitudeDegrees>43.298908174037933349609375</LatitudeDegrees>
              <LongitudeDegrees>-1.87162240035831928253173828125</LongitudeDegrees>
            </Position>
            <AltitudeMeters>38.200000762939453125</AltitudeMeters>
            <DistanceMeters>NAN</DistanceMeters>
          </Trackpoint>
          <Trackpoint>
            <Time>2021-08-11T14:50:22.000Z</Time>
            <Position>
              <LatitudeDegrees>43.29890239052474498748779296875</LatitudeDegrees>
              <LongitudeDegrees>-1.871712841093540191650390625</LongitudeDegrees>
            </Position>
            <AltitudeMeters>38.799999237060546875</AltitudeMeters>
            <DistanceMeters>NAN</DistanceMeters>
          </Trackpoint>
          <Trackpoint>
            <Time>2021-08-11T14:50:24.000Z</Time>
            <Position>
              <LatitudeDegrees>43.298897109925746917724609375</LatitudeDegrees>
              <LongitudeDegrees>-1.8717941455543041229248046875</LongitudeDegrees>
            </Position>
            <AltitudeMeters>39.200000762939453125</AltitudeMeters>
            <DistanceMeters>NAN</DistanceMeters>
          </Trackpoint>
          <Trackpoint>
            <Time>2021-08-11T14:50:26.000Z</Time>
            <Position>
              <LatitudeDegrees>43.29889182932674884796142578125</LatitudeDegrees>
              <LongitudeDegrees>-1.87187989242374897003173828125</LongitudeDegrees>
            </Position>
            <AltitudeMeters>39.200000762939453125</AltitudeMeters>
            <DistanceMeters>NAN</DistanceMeters>
          </Trackpoint>
          <Trackpoint>
            <Time>2021-08-11T14:50:29.000Z</Time>
            <Position>
              <LatitudeDegrees>43.2988828606903553009033203125</LatitudeDegrees>
              <LongitudeDegrees>-1.87201266176998615264892578125</LongitudeDegrees>
            </Position>
            <AltitudeMeters>39.40000152587890625</AltitudeMeters>
            <DistanceMeters>NAN</DistanceMeters>
          </Trackpoint>
          <Trackpoint>
            <Time>2021-08-11T14:50:31.000Z</Time>
            <Position>
              <LatitudeDegrees>43.29887674190104007720947265625</LatitudeDegrees>
              <LongitudeDegrees>-1.8720989115536212921142578125</LongitudeDegrees>
            </Position>
            <AltitudeMeters>39.59999847412109375</AltitudeMeters>
            <DistanceMeters>NAN</DistanceMeters>
          </Trackpoint>
          <Trackpoint>
            <Time>2021-08-11T14:50:32.000Z</Time>
            <Position>
              <LatitudeDegrees>43.2988746464252471923828125</LatitudeDegrees>
              <LongitudeDegrees>-1.87214090488851070404052734375</LongitudeDegrees>
            </Position>
            <AltitudeMeters>39.59999847412109375</AltitudeMeters>
            <DistanceMeters>NAN</DistanceMeters>
          </Trackpoint>
          <Trackpoint>
            <Time>2021-08-11T14:50:33.000Z</Time>
            <Position>
              <LatitudeDegrees>43.29887120984494686126708984375</LatitudeDegrees>
              <LongitudeDegrees>-1.8721827305853366851806640625</LongitudeDegrees>
            </Position>
            <AltitudeMeters>39.799999237060546875</AltitudeMeters>
            <DistanceMeters>NAN</DistanceMeters>
          </Trackpoint>
          <Trackpoint>
            <Time>2021-08-11T14:50:34.000Z</Time>
            <Position>
              <LatitudeDegrees>43.298868276178836822509765625</LatitudeDegrees>
              <LongitudeDegrees>-1.87222438864409923553466796875</LongitudeDegrees>
            </Position>
            <AltitudeMeters>40</AltitudeMeters>
            <DistanceMeters>NAN</DistanceMeters>
          </Trackpoint>
          <Trackpoint>
            <Time>2021-08-11T14:50:36.000Z</Time>
            <Position>
              <LatitudeDegrees>43.29885813407599925994873046875</LatitudeDegrees>
              <LongitudeDegrees>-1.87229731120169162750244140625</LongitudeDegrees>
            </Position>
            <AltitudeMeters>40.200000762939453125</AltitudeMeters>
            <DistanceMeters>NAN</DistanceMeters>
          </Trackpoint>
          <Trackpoint>
            <Time>2021-08-11T14:50:37.000Z</Time>
            <Position>
              <LatitudeDegrees>43.29885293729603290557861328125</LatitudeDegrees>
              <LongitudeDegrees>-1.8723396398127079010009765625</LongitudeDegrees>
            </Position>
            <AltitudeMeters>40.200000762939453125</AltitudeMeters>
            <DistanceMeters>NAN</DistanceMeters>
          </Trackpoint>
          <Trackpoint>
            <Time>2021-08-11T14:50:38.000Z</Time>
            <Position>
              <LatitudeDegrees>43.298848830163478851318359375</LatitudeDegrees>
              <LongitudeDegrees>-1.87239068560302257537841796875</LongitudeDegrees>
            </Position>
            <AltitudeMeters>40.40000152587890625</AltitudeMeters>
            <DistanceMeters>NAN</DistanceMeters>
          </Trackpoint>
          <Trackpoint>
            <Time>2021-08-11T14:50:39.000Z</Time>
            <Position>
              <LatitudeDegrees>43.29884472303092479705810546875</LatitudeDegrees>
              <LongitudeDegrees>-1.87243334949016571044921875</LongitudeDegrees>
            </Position>
            <AltitudeMeters>40.59999847412109375</AltitudeMeters>
            <DistanceMeters>NAN</DistanceMeters>
          </Trackpoint>
          <Trackpoint>
            <Time>2021-08-11T14:50:40.000Z</Time>
            <Position>
              <LatitudeDegrees>43.2988412864506244659423828125</LatitudeDegrees>
              <LongitudeDegrees>-1.8724777735769748687744140625</LongitudeDegrees>
            </Position>
            <AltitudeMeters>40.799999237060546875</AltitudeMeters>
            <DistanceMeters>NAN</DistanceMeters>
          </Trackpoint>
          <Trackpoint>
            <Time>2021-08-11T14:50:41.000Z</Time>
            <Position>
              <LatitudeDegrees>43.29883935861289501190185546875</LatitudeDegrees>
              <LongitudeDegrees>-1.8725206889212131500244140625</LongitudeDegrees>
            </Position>
            <AltitudeMeters>40.799999237060546875</AltitudeMeters>
            <DistanceMeters>NAN</DistanceMeters>
          </Trackpoint>
          <Trackpoint>
            <Time>2021-08-11T14:50:42.000Z</Time>
            <Position>
              <LatitudeDegrees>43.29883432947099208831787109375</LatitudeDegrees>
              <LongitudeDegrees>-1.872561760246753692626953125</LongitudeDegrees>
            </Position>
            <AltitudeMeters>41</AltitudeMeters>
            <DistanceMeters>NAN</DistanceMeters>
          </Trackpoint>
          <Trackpoint>
            <Time>2021-08-11T14:50:43.000Z</Time>
            <Position>
              <LatitudeDegrees>43.29883147962391376495361328125</LatitudeDegrees>
              <LongitudeDegrees>-1.87260232865810394287109375</LongitudeDegrees>
            </Position>
            <AltitudeMeters>41</AltitudeMeters>
            <DistanceMeters>NAN</DistanceMeters>
          </Trackpoint>
          <Trackpoint>
            <Time>2021-08-11T14:50:44.000Z</Time>
            <Position>
              <LatitudeDegrees>43.2988298870623111724853515625</LatitudeDegrees>
              <LongitudeDegrees>-1.87264214269816875457763671875</LongitudeDegrees>
            </Position>
            <AltitudeMeters>41</AltitudeMeters>
            <DistanceMeters>NAN</DistanceMeters>
          </Trackpoint>
          <Trackpoint>
            <Time>2021-08-11T14:50:45.000Z</Time>
            <Position>
              <LatitudeDegrees>43.2988308928906917572021484375</LatitudeDegrees>
              <LongitudeDegrees>-1.8726794421672821044921875</LongitudeDegrees>
            </Position>
            <AltitudeMeters>41.200000762939453125</AltitudeMeters>
            <DistanceMeters>NAN</DistanceMeters>
          </Trackpoint>
          <Trackpoint>
            <Time>2021-08-11T14:50:46.000Z</Time>
            <Position>
              <LatitudeDegrees>43.29882930032908916473388671875</LatitudeDegrees>
              <LongitudeDegrees>-1.8727208487689495086669921875</LongitudeDegrees>
            </Position>
            <AltitudeMeters>41.200000762939453125</AltitudeMeters>
            <DistanceMeters>NAN</DistanceMeters>
          </Trackpoint>
          <Trackpoint>
            <Time>2021-08-11T14:50:47.000Z</Time>
            <Position>
              <LatitudeDegrees>43.2988251931965351104736328125</LatitudeDegrees>
              <LongitudeDegrees>-1.87276937998831272125244140625</LongitudeDegrees>
            </Position>
            <AltitudeMeters>41.200000762939453125</AltitudeMeters>
            <DistanceMeters>NAN</DistanceMeters>
          </Trackpoint>
          <Trackpoint>
            <Time>2021-08-11T14:50:48.000Z</Time>
            <Position>
              <LatitudeDegrees>43.2988191582262516021728515625</LatitudeDegrees>
              <LongitudeDegrees>-1.872819922864437103271484375</LongitudeDegrees>
            </Position>
            <AltitudeMeters>41.200000762939453125</AltitudeMeters>
            <DistanceMeters>NAN</DistanceMeters>
          </Trackpoint>
          <Trackpoint>
            <Time>2021-08-11T14:50:49.000Z</Time>
            <Position>
              <LatitudeDegrees>43.2988131232559680938720703125</LatitudeDegrees>
              <LongitudeDegrees>-1.87287323176860809326171875</LongitudeDegrees>
            </Position>
            <AltitudeMeters>41.200000762939453125</AltitudeMeters>
            <DistanceMeters>NAN</DistanceMeters>
          </Trackpoint>
          <Trackpoint>
            <Time>2021-08-11T14:50:50.000Z</Time>
            <Position>
              <LatitudeDegrees>43.29880851320922374725341796875</LatitudeDegrees>
              <LongitudeDegrees>-1.87292729504406452178955078125</LongitudeDegrees>
            </Position>
            <AltitudeMeters>41.200000762939453125</AltitudeMeters>
            <DistanceMeters>NAN</DistanceMeters>
          </Trackpoint>
          <Trackpoint>
            <Time>2021-08-11T14:50:51.000Z</Time>
            <Position>
              <LatitudeDegrees>43.2988034002482891082763671875</LatitudeDegrees>
              <LongitudeDegrees>-1.8729830347001552581787109375</LongitudeDegrees>
            </Position>
            <AltitudeMeters>41.200000762939453125</AltitudeMeters>
            <DistanceMeters>NAN</DistanceMeters>
          </Trackpoint>
          <Trackpoint>
            <Time>2021-08-11T14:50:54.000Z</Time>
            <Position>
              <LatitudeDegrees>43.2987839542329311370849609375</LatitudeDegrees>
              <LongitudeDegrees>-1.873171962797641754150390625</LongitudeDegrees>
            </Position>
            <AltitudeMeters>41</AltitudeMeters>
            <DistanceMeters>NAN</DistanceMeters>
          </Trackpoint>
          <Trackpoint>
            <Time>2021-08-11T14:50:59.000Z</Time>
            <Position>
              <LatitudeDegrees>43.29876274801790714263916015625</LatitudeDegrees>
              <LongitudeDegrees>-1.8735476396977901458740234375</LongitudeDegrees>
            </Position>
            <AltitudeMeters>40</AltitudeMeters>
            <DistanceMeters>NAN</DistanceMeters>
          </Trackpoint>
          <Trackpoint>
            <Time>2021-08-11T14:51:01.000Z</Time>
            <Position>
              <LatitudeDegrees>43.298746235668659210205078125</LatitudeDegrees>
              <LongitudeDegrees>-1.87370278872549533843994140625</LongitudeDegrees>
            </Position>
            <AltitudeMeters>39.40000152587890625</AltitudeMeters>
            <DistanceMeters>NAN</DistanceMeters>
          </Trackpoint>
          <Trackpoint>
            <Time>2021-08-11T14:51:05.000Z</Time>
            <Position>
              <LatitudeDegrees>43.29871949739754199981689453125</LatitudeDegrees>
              <LongitudeDegrees>-1.8740166909992694854736328125</LongitudeDegrees>
            </Position>
            <AltitudeMeters>37.799999237060546875</AltitudeMeters>
            <DistanceMeters>NAN</DistanceMeters>
          </Trackpoint>
          <Trackpoint>
            <Time>2021-08-11T14:51:08.000Z</Time>
            <Position>
              <LatitudeDegrees>43.29869602806866168975830078125</LatitudeDegrees>
              <LongitudeDegrees>-1.87425482086837291717529296875</LongitudeDegrees>
            </Position>
            <AltitudeMeters>36.200000762939453125</AltitudeMeters>
            <DistanceMeters>NAN</DistanceMeters>
          </Trackpoint>
          <Trackpoint>
            <Time>2021-08-11T14:51:11.000Z</Time>
            <Position>
              <LatitudeDegrees>43.29867557622492313385009765625</LatitudeDegrees>
              <LongitudeDegrees>-1.87447945587337017059326171875</LongitudeDegrees>
            </Position>
            <AltitudeMeters>35.200000762939453125</AltitudeMeters>
            <DistanceMeters>NAN</DistanceMeters>
          </Trackpoint>
          <Trackpoint>
            <Time>2021-08-11T14:51:12.000Z</Time>
            <Position>
              <LatitudeDegrees>43.2986692897975444793701171875</LatitudeDegrees>
              <LongitudeDegrees>-1.87454969622194766998291015625</LongitudeDegrees>
            </Position>
            <AltitudeMeters>34.59999847412109375</AltitudeMeters>
            <DistanceMeters>NAN</DistanceMeters>
          </Trackpoint>
          <Trackpoint>
            <Time>2021-08-11T14:51:13.000Z</Time>
            <Position>
              <LatitudeDegrees>43.29866434447467327117919921875</LatitudeDegrees>
              <LongitudeDegrees>-1.8746158294379711151123046875</LongitudeDegrees>
            </Position>
            <AltitudeMeters>34.200000762939453125</AltitudeMeters>
            <DistanceMeters>NAN</DistanceMeters>
          </Trackpoint>
          <Trackpoint>
            <Time>2021-08-11T14:51:14.000Z</Time>
            <Position>
              <LatitudeDegrees>43.2986612431704998016357421875</LatitudeDegrees>
              <LongitudeDegrees>-1.87467542476952075958251953125</LongitudeDegrees>
            </Position>
            <AltitudeMeters>34</AltitudeMeters>
            <DistanceMeters>NAN</DistanceMeters>
          </Trackpoint>
          <Trackpoint>
            <Time>2021-08-11T14:51:15.000Z</Time>
            <Position>
              <LatitudeDegrees>43.29865805804729461669921875</LatitudeDegrees>
              <LongitudeDegrees>-1.87473057769238948822021484375</LongitudeDegrees>
            </Position>
            <AltitudeMeters>33.200000762939453125</AltitudeMeters>
            <DistanceMeters>NAN</DistanceMeters>
          </Trackpoint>
          <Trackpoint>
            <Time>2021-08-11T14:51:16.000Z</Time>
            <Position>
              <LatitudeDegrees>43.29865462146699428558349609375</LatitudeDegrees>
              <LongitudeDegrees>-1.8747791089117527008056640625</LongitudeDegrees>
            </Position>
            <AltitudeMeters>33</AltitudeMeters>
            <DistanceMeters>NAN</DistanceMeters>
          </Trackpoint>
          <Trackpoint>
            <Time>2021-08-11T14:51:17.000Z</Time>
            <Position>
              <LatitudeDegrees>43.2986511848866939544677734375</LatitudeDegrees>
              <LongitudeDegrees>-1.87482093460857868194580078125</LongitudeDegrees>
            </Position>
            <AltitudeMeters>32.59999847412109375</AltitudeMeters>
            <DistanceMeters>NAN</DistanceMeters>
          </Trackpoint>
          <Trackpoint>
            <Time>2021-08-11T14:51:18.000Z</Time>
            <Position>
              <LatitudeDegrees>43.2986485026776790618896484375</LatitudeDegrees>
              <LongitudeDegrees>-1.87485873699188232421875</LongitudeDegrees>
            </Position>
            <AltitudeMeters>32.200000762939453125</AltitudeMeters>
            <DistanceMeters>NAN</DistanceMeters>
          </Trackpoint>
          <Trackpoint>
            <Time>2021-08-11T14:51:19.000Z</Time>
            <Position>
              <LatitudeDegrees>43.29865411855280399322509765625</LatitudeDegrees>
              <LongitudeDegrees>-1.87489637173712253570556640625</LongitudeDegrees>
            </Position>
            <AltitudeMeters>32</AltitudeMeters>
            <DistanceMeters>NAN</DistanceMeters>
          </Trackpoint>
          <Trackpoint>
            <Time>2021-08-11T14:51:20.000Z</Time>
            <Position>
              <LatitudeDegrees>43.2986739836633205413818359375</LatitudeDegrees>
              <LongitudeDegrees>-1.8749244511127471923828125</LongitudeDegrees>
            </Position>
            <AltitudeMeters>31.6000003814697265625</AltitudeMeters>
            <DistanceMeters>NAN</DistanceMeters>
          </Trackpoint>
          <Trackpoint>
            <Time>2021-08-11T14:51:23.000Z</Time>
            <Position>
              <LatitudeDegrees>43.298757970333099365234375</LatitudeDegrees>
              <LongitudeDegrees>-1.87497298233211040496826171875</LongitudeDegrees>
            </Position>
            <AltitudeMeters>31</AltitudeMeters>
            <DistanceMeters>NAN</DistanceMeters>
          </Trackpoint>
          <Trackpoint>
            <Time>2021-08-11T14:51:24.000Z</Time>
            <Position>
              <LatitudeDegrees>43.29878655262291431427001953125</LatitudeDegrees>
              <LongitudeDegrees>-1.8749883212149143218994140625</LongitudeDegrees>
            </Position>
            <AltitudeMeters>30.799999237060546875</AltitudeMeters>
            <DistanceMeters>NAN</DistanceMeters>
          </Trackpoint>
          <Trackpoint>
            <Time>2021-08-11T14:51:26.000Z</Time>
            <Position>
              <LatitudeDegrees>43.2988473214209079742431640625</LatitudeDegrees>
              <LongitudeDegrees>-1.875022687017917633056640625</LongitudeDegrees>
            </Position>
            <AltitudeMeters>30.799999237060546875</AltitudeMeters>
            <DistanceMeters>NAN</DistanceMeters>
          </Trackpoint>
          <Trackpoint>
            <Time>2021-08-11T14:51:27.000Z</Time>
            <Position>
              <LatitudeDegrees>43.2988764904439449310302734375</LatitudeDegrees>
              <LongitudeDegrees>-1.875032745301723480224609375</LongitudeDegrees>
            </Position>
            <AltitudeMeters>30.6000003814697265625</AltitudeMeters>
            <DistanceMeters>NAN</DistanceMeters>
          </Trackpoint>
          <Trackpoint>
            <Time>2021-08-11T14:51:33.000Z</Time>
            <Position>
              <LatitudeDegrees>43.29904840327799320220947265625</LatitudeDegrees>
              <LongitudeDegrees>-1.8751579709351062774658203125</LongitudeDegrees>
            </Position>
            <AltitudeMeters>30.6000003814697265625</AltitudeMeters>
            <DistanceMeters>NAN</DistanceMeters>
          </Trackpoint>
          <Trackpoint>
            <Time>2021-08-11T14:51:39.000Z</Time>
            <Position>
              <LatitudeDegrees>43.299227692186832427978515625</LatitudeDegrees>
              <LongitudeDegrees>-1.8753360025584697723388671875</LongitudeDegrees>
            </Position>
            <AltitudeMeters>30.6000003814697265625</AltitudeMeters>
            <DistanceMeters>NAN</DistanceMeters>
          </Trackpoint>
          <Trackpoint>
            <Time>2021-08-11T14:51:48.000Z</Time>
            <Position>
              <LatitudeDegrees>43.29951426945626735687255859375</LatitudeDegrees>
              <LongitudeDegrees>-1.87560766004025936126708984375</LongitudeDegrees>
            </Position>
            <AltitudeMeters>30</AltitudeMeters>
            <DistanceMeters>NAN</DistanceMeters>
          </Trackpoint>
          <Trackpoint>
            <Time>2021-08-11T14:51:49.000Z</Time>
            <Position>
              <LatitudeDegrees>43.2995550893247127532958984375</LatitudeDegrees>
              <LongitudeDegrees>-1.87563515268266201019287109375</LongitudeDegrees>
            </Position>
            <AltitudeMeters>30</AltitudeMeters>
            <DistanceMeters>NAN</DistanceMeters>
          </Trackpoint>
          <Trackpoint>
            <Time>2021-08-11T14:51:50.000Z</Time>
            <Position>
              <LatitudeDegrees>43.29958953894674777984619140625</LatitudeDegrees>
              <LongitudeDegrees>-1.87565946020185947418212890625</LongitudeDegrees>
            </Position>
            <AltitudeMeters>30</AltitudeMeters>
            <DistanceMeters>NAN</DistanceMeters>
          </Trackpoint>
          <Trackpoint>
            <Time>2021-08-11T14:51:51.000Z</Time>
            <Position>
              <LatitudeDegrees>43.2996228151023387908935546875</LatitudeDegrees>
              <LongitudeDegrees>-1.87568259425461292266845703125</LongitudeDegrees>
            </Position>
            <AltitudeMeters>29.799999237060546875</AltitudeMeters>
            <DistanceMeters>NAN</DistanceMeters>
          </Trackpoint>
          <Trackpoint>
            <Time>2021-08-11T14:51:52.000Z</Time>
            <Position>
              <LatitudeDegrees>43.2996489666402339935302734375</LatitudeDegrees>
              <LongitudeDegrees>-1.87570053152740001678466796875</LongitudeDegrees>
            </Position>
            <AltitudeMeters>29.799999237060546875</AltitudeMeters>
            <DistanceMeters>NAN</DistanceMeters>
          </Trackpoint>
          <Trackpoint>
            <Time>2021-08-11T14:51:55.000Z</Time>
            <Position>
              <LatitudeDegrees>43.2997569255530834197998046875</LatitudeDegrees>
              <LongitudeDegrees>-1.87576943077147006988525390625</LongitudeDegrees>
            </Position>
            <AltitudeMeters>29.799999237060546875</AltitudeMeters>
            <DistanceMeters>NAN</DistanceMeters>
          </Trackpoint>
          <Trackpoint>
            <Time>2021-08-11T14:52:02.000Z</Time>
            <Position>
              <LatitudeDegrees>43.30001047812402248382568359375</LatitudeDegrees>
              <LongitudeDegrees>-1.87592080794274806976318359375</LongitudeDegrees>
            </Position>
            <AltitudeMeters>29.3999996185302734375</AltitudeMeters>
            <DistanceMeters>NAN</DistanceMeters>
          </Trackpoint>
          <Trackpoint>
            <Time>2021-08-11T14:52:08.000Z</Time>
            <Position>
              <LatitudeDegrees>43.300244249403476715087890625</LatitudeDegrees>
              <LongitudeDegrees>-1.876066736876964569091796875</LongitudeDegrees>
            </Position>
            <AltitudeMeters>29</AltitudeMeters>
            <DistanceMeters>NAN</DistanceMeters>
          </Trackpoint>
          <Trackpoint>
            <Time>2021-08-11T14:52:09.000Z</Time>
            <Position>
              <LatitudeDegrees>43.3002772741019725799560546875</LatitudeDegrees>
              <LongitudeDegrees>-1.8760886974632740020751953125</LongitudeDegrees>
            </Position>
            <AltitudeMeters>29</AltitudeMeters>
            <DistanceMeters>NAN</DistanceMeters>
          </Trackpoint>
          <Trackpoint>
            <Time>2021-08-11T14:52:10.000Z</Time>
            <Position>
              <LatitudeDegrees>43.3003121428191661834716796875</LatitudeDegrees>
              <LongitudeDegrees>-1.87611577101051807403564453125</LongitudeDegrees>
            </Position>
            <AltitudeMeters>28.799999237060546875</AltitudeMeters>
            <DistanceMeters>NAN</DistanceMeters>
          </Trackpoint>
          <Trackpoint>
            <Time>2021-08-11T14:52:13.000Z</Time>
            <Position>
              <LatitudeDegrees>43.30041079781949520111083984375</LatitudeDegrees>
              <LongitudeDegrees>-1.87620176933705806732177734375</LongitudeDegrees>
            </Position>
            <AltitudeMeters>28.799999237060546875</AltitudeMeters>
            <DistanceMeters>NAN</DistanceMeters>
          </Trackpoint>
          <Trackpoint>
            <Time>2021-08-11T14:52:14.000Z</Time>
            <Position>
              <LatitudeDegrees>43.3004499413073062896728515625</LatitudeDegrees>
              <LongitudeDegrees>-1.8762328661978244781494140625</LongitudeDegrees>
            </Position>
            <AltitudeMeters>28.799999237060546875</AltitudeMeters>
            <DistanceMeters>NAN</DistanceMeters>
          </Trackpoint>
          <Trackpoint>
            <Time>2021-08-11T14:52:15.000Z</Time>
            <Position>
              <LatitudeDegrees>43.3004925213754177093505859375</LatitudeDegrees>
              <LongitudeDegrees>-1.8762620352208614349365234375</LongitudeDegrees>
            </Position>
            <AltitudeMeters>28.799999237060546875</AltitudeMeters>
            <DistanceMeters>NAN</DistanceMeters>
          </Trackpoint>
          <Trackpoint>
            <Time>2021-08-11T14:52:16.000Z</Time>
            <Position>
              <LatitudeDegrees>43.3005344308912754058837890625</LatitudeDegrees>
              <LongitudeDegrees>-1.8762912042438983917236328125</LongitudeDegrees>
            </Position>
            <AltitudeMeters>28.799999237060546875</AltitudeMeters>
            <DistanceMeters>NAN</DistanceMeters>
          </Trackpoint>
          <Trackpoint>
            <Time>2021-08-11T14:52:21.000Z</Time>
            <Position>
              <LatitudeDegrees>43.30075076781213283538818359375</LatitudeDegrees>
              <LongitudeDegrees>-1.8764303438365459442138671875</LongitudeDegrees>
            </Position>
            <AltitudeMeters>28.3999996185302734375</AltitudeMeters>
            <DistanceMeters>NAN</DistanceMeters>
          </Trackpoint>
          <Trackpoint>
            <Time>2021-08-11T14:52:22.000Z</Time>
            <Position>
              <LatitudeDegrees>43.300785720348358154296875</LatitudeDegrees>
              <LongitudeDegrees>-1.8764524720609188079833984375</LongitudeDegrees>
            </Position>
            <AltitudeMeters>28.3999996185302734375</AltitudeMeters>
            <DistanceMeters>NAN</DistanceMeters>
          </Trackpoint>
          <Trackpoint>
            <Time>2021-08-11T14:52:23.000Z</Time>
            <Position>
              <LatitudeDegrees>43.30081279389560222625732421875</LatitudeDegrees>
              <LongitudeDegrees>-1.87647351063787937164306640625</LongitudeDegrees>
            </Position>
            <AltitudeMeters>28.3999996185302734375</AltitudeMeters>
            <DistanceMeters>NAN</DistanceMeters>
          </Trackpoint>
          <Trackpoint>
            <Time>2021-08-11T14:52:27.000Z</Time>
            <Position>
              <LatitudeDegrees>43.30096886493265628814697265625</LatitudeDegrees>
              <LongitudeDegrees>-1.876583062112331390380859375</LongitudeDegrees>
            </Position>
            <AltitudeMeters>28.200000762939453125</AltitudeMeters>
            <DistanceMeters>NAN</DistanceMeters>
          </Trackpoint>
          <Trackpoint>
            <Time>2021-08-11T14:52:28.000Z</Time>
            <Position>
              <LatitudeDegrees>43.30099836923182010650634765625</LatitudeDegrees>
              <LongitudeDegrees>-1.87660762108862400054931640625</LongitudeDegrees>
            </Position>
            <AltitudeMeters>28.200000762939453125</AltitudeMeters>
            <DistanceMeters>NAN</DistanceMeters>
          </Trackpoint>
          <Trackpoint>
            <Time>2021-08-11T14:52:29.000Z</Time>
            <Position>
              <LatitudeDegrees>43.3010282926261425018310546875</LatitudeDegrees>
              <LongitudeDegrees>-1.87662832438945770263671875</LongitudeDegrees>
            </Position>
            <AltitudeMeters>28.200000762939453125</AltitudeMeters>
            <DistanceMeters>NAN</DistanceMeters>
          </Trackpoint>
          <Trackpoint>
            <Time>2021-08-11T14:52:30.000Z</Time>
            <Position>
              <LatitudeDegrees>43.301070369780063629150390625</LatitudeDegrees>
              <LongitudeDegrees>-1.87665623612701892852783203125</LongitudeDegrees>
            </Position>
            <AltitudeMeters>28.200000762939453125</AltitudeMeters>
            <DistanceMeters>NAN</DistanceMeters>
          </Trackpoint>
          <Trackpoint>
            <Time>2021-08-11T14:52:35.000Z</Time>
            <Position>
              <LatitudeDegrees>43.30126114189624786376953125</LatitudeDegrees>
              <LongitudeDegrees>-1.87678917311131954193115234375</LongitudeDegrees>
            </Position>
            <AltitudeMeters>28.200000762939453125</AltitudeMeters>
            <DistanceMeters>NAN</DistanceMeters>
          </Trackpoint>
          <Trackpoint>
            <Time>2021-08-11T14:52:38.000Z</Time>
            <Position>
              <LatitudeDegrees>43.301371447741985321044921875</LatitudeDegrees>
              <LongitudeDegrees>-1.87689310871064662933349609375</LongitudeDegrees>
            </Position>
            <AltitudeMeters>27.799999237060546875</AltitudeMeters>
            <DistanceMeters>NAN</DistanceMeters>
          </Trackpoint>
          <Trackpoint>
            <Time>2021-08-11T14:52:40.000Z</Time>
            <Position>
              <LatitudeDegrees>43.30142601393163204193115234375</LatitudeDegrees>
              <LongitudeDegrees>-1.87696133740246295928955078125</LongitudeDegrees>
            </Position>
            <AltitudeMeters>28</AltitudeMeters>
            <DistanceMeters>NAN</DistanceMeters>
          </Trackpoint>
          <Trackpoint>
            <Time>2021-08-11T14:52:41.000Z</Time>
            <Position>
              <LatitudeDegrees>43.3014571107923984527587890625</LatitudeDegrees>
              <LongitudeDegrees>-1.87699872069060802459716796875</LongitudeDegrees>
            </Position>
            <AltitudeMeters>28</AltitudeMeters>
            <DistanceMeters>NAN</DistanceMeters>
          </Trackpoint>
          <Trackpoint>
            <Time>2021-08-11T14:52:42.000Z</Time>
            <Position>
              <LatitudeDegrees>43.30149340443313121795654296875</LatitudeDegrees>
              <LongitudeDegrees>-1.87704247422516345977783203125</LongitudeDegrees>
            </Position>
            <AltitudeMeters>28</AltitudeMeters>
            <DistanceMeters>NAN</DistanceMeters>
          </Trackpoint>
          <Trackpoint>
            <Time>2021-08-11T14:52:45.000Z</Time>
            <Position>
              <LatitudeDegrees>43.30156783573329448699951171875</LatitudeDegrees>
              <LongitudeDegrees>-1.8771823681890964508056640625</LongitudeDegrees>
            </Position>
            <AltitudeMeters>28</AltitudeMeters>
            <DistanceMeters>NAN</DistanceMeters>
          </Trackpoint>
          <Trackpoint>
            <Time>2021-08-11T14:52:48.000Z</Time>
            <Position>
              <LatitudeDegrees>43.3016291074454784393310546875</LatitudeDegrees>
              <LongitudeDegrees>-1.87732930295169353485107421875</LongitudeDegrees>
            </Position>
            <AltitudeMeters>28</AltitudeMeters>
            <DistanceMeters>NAN</DistanceMeters>
          </Trackpoint>
          <Trackpoint>
            <Time>2021-08-11T14:52:50.000Z</Time>
            <Position>
              <LatitudeDegrees>43.3016622997820377349853515625</LatitudeDegrees>
              <LongitudeDegrees>-1.87743508256971836090087890625</LongitudeDegrees>
            </Position>
            <AltitudeMeters>28.200000762939453125</AltitudeMeters>
            <DistanceMeters>NAN</DistanceMeters>
          </Trackpoint>
          <Trackpoint>
            <Time>2021-08-11T14:52:56.000Z</Time>
            <Position>
              <LatitudeDegrees>43.30173061229288578033447265625</LatitudeDegrees>
              <LongitudeDegrees>-1.87774571590125560760498046875</LongitudeDegrees>
            </Position>
            <AltitudeMeters>28.200000762939453125</AltitudeMeters>
            <DistanceMeters>NAN</DistanceMeters>
          </Trackpoint>
          <Trackpoint>
            <Time>2021-08-11T14:52:59.000Z</Time>
            <Position>
              <LatitudeDegrees>43.30176916904747486114501953125</LatitudeDegrees>
              <LongitudeDegrees>-1.8779028765857219696044921875</LongitudeDegrees>
            </Position>
            <AltitudeMeters>28.200000762939453125</AltitudeMeters>
            <DistanceMeters>NAN</DistanceMeters>
          </Trackpoint>
          <Trackpoint>
            <Time>2021-08-11T14:53:00.000Z</Time>
            <Position>
              <LatitudeDegrees>43.30177688039839267730712890625</LatitudeDegrees>
              <LongitudeDegrees>-1.87795761041343212127685546875</LongitudeDegrees>
            </Position>
            <AltitudeMeters>28.200000762939453125</AltitudeMeters>
            <DistanceMeters>NAN</DistanceMeters>
          </Trackpoint>
          <Trackpoint>
            <Time>2021-08-11T14:53:02.000Z</Time>
            <Position>
              <LatitudeDegrees>43.30178551375865936279296875</LatitudeDegrees>
              <LongitudeDegrees>-1.8780733644962310791015625</LongitudeDegrees>
            </Position>
            <AltitudeMeters>28.200000762939453125</AltitudeMeters>
            <DistanceMeters>NAN</DistanceMeters>
          </Trackpoint>
          <Trackpoint>
            <Time>2021-08-11T14:53:05.000Z</Time>
            <Position>
              <LatitudeDegrees>43.30180420540273189544677734375</LatitudeDegrees>
              <LongitudeDegrees>-1.87824980355799198150634765625</LongitudeDegrees>
            </Position>
            <AltitudeMeters>28.200000762939453125</AltitudeMeters>
            <DistanceMeters>NAN</DistanceMeters>
          </Trackpoint>
          <Trackpoint>
            <Time>2021-08-11T14:53:07.000Z</Time>
            <Position>
              <LatitudeDegrees>43.3017977513372898101806640625</LatitudeDegrees>
              <LongitudeDegrees>-1.878353990614414215087890625</LongitudeDegrees>
            </Position>
            <AltitudeMeters>28.200000762939453125</AltitudeMeters>
            <DistanceMeters>NAN</DistanceMeters>
          </Trackpoint>
          <Trackpoint>
            <Time>2021-08-11T14:53:08.000Z</Time>
            <Position>
              <LatitudeDegrees>43.30178953707218170166015625</LatitudeDegrees>
              <LongitudeDegrees>-1.87840788625180721282958984375</LongitudeDegrees>
            </Position>
            <AltitudeMeters>28.200000762939453125</AltitudeMeters>
            <DistanceMeters>NAN</DistanceMeters>
          </Trackpoint>
          <Trackpoint>
            <Time>2021-08-11T14:53:13.000Z</Time>
            <Position>
              <LatitudeDegrees>43.30173731781542301177978515625</LatitudeDegrees>
              <LongitudeDegrees>-1.87869052402675151824951171875</LongitudeDegrees>
            </Position>
            <AltitudeMeters>28.3999996185302734375</AltitudeMeters>
            <DistanceMeters>NAN</DistanceMeters>
          </Trackpoint>
          <Trackpoint>
            <Time>2021-08-11T14:53:15.000Z</Time>
            <Position>
              <LatitudeDegrees>43.30171820707619190216064453125</LatitudeDegrees>
              <LongitudeDegrees>-1.87879848293960094451904296875</LongitudeDegrees>
            </Position>
            <AltitudeMeters>28.3999996185302734375</AltitudeMeters>
            <DistanceMeters>NAN</DistanceMeters>
          </Trackpoint>
          <Trackpoint>
            <Time>2021-08-11T14:53:16.000Z</Time>
            <Position>
              <LatitudeDegrees>43.30170680768787860870361328125</LatitudeDegrees>
              <LongitudeDegrees>-1.878841817378997802734375</LongitudeDegrees>
            </Position>
            <AltitudeMeters>28.3999996185302734375</AltitudeMeters>
            <DistanceMeters>NAN</DistanceMeters>
          </Trackpoint>
          <Trackpoint>
            <Time>2021-08-11T14:53:17.000Z</Time>
            <Position>
              <LatitudeDegrees>43.3016934804618358612060546875</LatitudeDegrees>
              <LongitudeDegrees>-1.8789107166230678558349609375</LongitudeDegrees>
            </Position>
            <AltitudeMeters>28.3999996185302734375</AltitudeMeters>
            <DistanceMeters>NAN</DistanceMeters>
          </Trackpoint>
          <Trackpoint>
            <Time>2021-08-11T14:53:19.000Z</Time>
            <Position>
              <LatitudeDegrees>43.3016720227897167205810546875</LatitudeDegrees>
              <LongitudeDegrees>-1.87903158366680145263671875</LongitudeDegrees>
            </Position>
            <AltitudeMeters>28.3999996185302734375</AltitudeMeters>
            <DistanceMeters>NAN</DistanceMeters>
          </Trackpoint>
          <Trackpoint>
            <Time>2021-08-11T14:53:21.000Z</Time>
            <Position>
              <LatitudeDegrees>43.30165274441242218017578125</LatitudeDegrees>
              <LongitudeDegrees>-1.879155971109867095947265625</LongitudeDegrees>
            </Position>
            <AltitudeMeters>28.6000003814697265625</AltitudeMeters>
            <DistanceMeters>NAN</DistanceMeters>
          </Trackpoint>
          <Trackpoint>
            <Time>2021-08-11T14:53:27.000Z</Time>
            <Position>
              <LatitudeDegrees>43.30159499309957027435302734375</LatitudeDegrees>
              <LongitudeDegrees>-1.87950189225375652313232421875</LongitudeDegrees>
            </Position>
            <AltitudeMeters>28.6000003814697265625</AltitudeMeters>
            <DistanceMeters>NAN</DistanceMeters>
          </Trackpoint>
          <Trackpoint>
            <Time>2021-08-11T14:53:28.000Z</Time>
            <Position>
              <LatitudeDegrees>43.3015915565192699432373046875</LatitudeDegrees>
              <LongitudeDegrees>-1.8795494176447391510009765625</LongitudeDegrees>
            </Position>
            <AltitudeMeters>28.6000003814697265625</AltitudeMeters>
            <DistanceMeters>NAN</DistanceMeters>
          </Trackpoint>
          <Trackpoint>
            <Time>2021-08-11T14:53:29.000Z</Time>
            <Position>
              <LatitudeDegrees>43.30159180797636508941650390625</LatitudeDegrees>
              <LongitudeDegrees>-1.87962108291685581207275390625</LongitudeDegrees>
            </Position>
            <AltitudeMeters>28.6000003814697265625</AltitudeMeters>
            <DistanceMeters>NAN</DistanceMeters>
          </Trackpoint>
          <Trackpoint>
            <Time>2021-08-11T14:53:31.000Z</Time>
            <Position>
              <LatitudeDegrees>43.30159951932728290557861328125</LatitudeDegrees>
              <LongitudeDegrees>-1.87972401268780231475830078125</LongitudeDegrees>
            </Position>
            <AltitudeMeters>28.799999237060546875</AltitudeMeters>
            <DistanceMeters>NAN</DistanceMeters>
          </Trackpoint>
          <Trackpoint>
            <Time>2021-08-11T14:53:32.000Z</Time>
            <Position>
              <LatitudeDegrees>43.30160488374531269073486328125</LatitudeDegrees>
              <LongitudeDegrees>-1.87979224137961864471435546875</LongitudeDegrees>
            </Position>
            <AltitudeMeters>28.799999237060546875</AltitudeMeters>
            <DistanceMeters>NAN</DistanceMeters>
          </Trackpoint>
          <Trackpoint>
            <Time>2021-08-11T14:53:33.000Z</Time>
            <Position>
              <LatitudeDegrees>43.30160991288721561431884765625</LatitudeDegrees>
              <LongitudeDegrees>-1.8798355758190155029296875</LongitudeDegrees>
            </Position>
            <AltitudeMeters>28.799999237060546875</AltitudeMeters>
            <DistanceMeters>NAN</DistanceMeters>
          </Trackpoint>
          <Trackpoint>
            <Time>2021-08-11T14:53:34.000Z</Time>
            <Position>
              <LatitudeDegrees>43.301622234284877777099609375</LatitudeDegrees>
              <LongitudeDegrees>-1.87989215366542339324951171875</LongitudeDegrees>
            </Position>
            <AltitudeMeters>28.799999237060546875</AltitudeMeters>
            <DistanceMeters>NAN</DistanceMeters>
          </Trackpoint>
          <Trackpoint>
            <Time>2021-08-11T14:53:35.000Z</Time>
            <Position>
              <LatitudeDegrees>43.30163707025349140167236328125</LatitudeDegrees>
              <LongitudeDegrees>-1.8799369968473911285400390625</LongitudeDegrees>
            </Position>
            <AltitudeMeters>28.799999237060546875</AltitudeMeters>
            <DistanceMeters>NAN</DistanceMeters>
          </Trackpoint>
          <Trackpoint>
            <Time>2021-08-11T14:53:36.000Z</Time>
            <Position>
              <LatitudeDegrees>43.3016502298414707183837890625</LatitudeDegrees>
              <LongitudeDegrees>-1.87998033128678798675537109375</LongitudeDegrees>
            </Position>
            <AltitudeMeters>29</AltitudeMeters>
            <DistanceMeters>NAN</DistanceMeters>
          </Trackpoint>
          <Trackpoint>
            <Time>2021-08-11T14:53:37.000Z</Time>
            <Position>
              <LatitudeDegrees>43.3016690053045749664306640625</LatitudeDegrees>
              <LongitudeDegrees>-1.8800228275358676910400390625</LongitudeDegrees>
            </Position>
            <AltitudeMeters>29</AltitudeMeters>
            <DistanceMeters>NAN</DistanceMeters>
          </Trackpoint>
          <Trackpoint>
            <Time>2021-08-11T14:53:38.000Z</Time>
            <Position>
              <LatitudeDegrees>43.30168920569121837615966796875</LatitudeDegrees>
              <LongitudeDegrees>-1.88006423413753509521484375</LongitudeDegrees>
            </Position>
            <AltitudeMeters>29</AltitudeMeters>
            <DistanceMeters>NAN</DistanceMeters>
          </Trackpoint>
          <Trackpoint>
            <Time>2021-08-11T14:53:41.000Z</Time>
            <Position>
              <LatitudeDegrees>43.30177419818937778472900390625</LatitudeDegrees>
              <LongitudeDegrees>-1.88018166460096836090087890625</LongitudeDegrees>
            </Position>
            <AltitudeMeters>29.200000762939453125</AltitudeMeters>
            <DistanceMeters>NAN</DistanceMeters>
          </Trackpoint>
          <Trackpoint>
            <Time>2021-08-11T14:53:42.000Z</Time>
            <Position>
              <LatitudeDegrees>43.30180521123111248016357421875</LatitudeDegrees>
              <LongitudeDegrees>-1.88021753914654254913330078125</LongitudeDegrees>
            </Position>
            <AltitudeMeters>29.200000762939453125</AltitudeMeters>
            <DistanceMeters>NAN</DistanceMeters>
          </Trackpoint>
          <Trackpoint>
            <Time>2021-08-11T14:53:50.000Z</Time>
            <Position>
              <LatitudeDegrees>43.3020740188658237457275390625</LatitudeDegrees>
              <LongitudeDegrees>-1.8804873526096343994140625</LongitudeDegrees>
            </Position>
            <AltitudeMeters>29.3999996185302734375</AltitudeMeters>
            <DistanceMeters>NAN</DistanceMeters>
          </Trackpoint>
          <Trackpoint>
            <Time>2021-08-11T14:53:57.000Z</Time>
            <Position>
              <LatitudeDegrees>43.30231659114360809326171875</LatitudeDegrees>
              <LongitudeDegrees>-1.880775354802608489990234375</LongitudeDegrees>
            </Position>
            <AltitudeMeters>29.3999996185302734375</AltitudeMeters>
            <DistanceMeters>NAN</DistanceMeters>
          </Trackpoint>
          <Trackpoint>
            <Time>2021-08-11T14:54:03.000Z</Time>
            <Position>
              <LatitudeDegrees>43.30245648510754108428955078125</LatitudeDegrees>
              <LongitudeDegrees>-1.88109680078923702239990234375</LongitudeDegrees>
            </Position>
            <AltitudeMeters>29.6000003814697265625</AltitudeMeters>
            <DistanceMeters>NAN</DistanceMeters>
          </Trackpoint>
          <Trackpoint>
            <Time>2021-08-11T14:54:04.000Z</Time>
            <Position>
              <LatitudeDegrees>43.3024740032851696014404296875</LatitudeDegrees>
              <LongitudeDegrees>-1.8811543844640254974365234375</LongitudeDegrees>
            </Position>
            <AltitudeMeters>29.6000003814697265625</AltitudeMeters>
            <DistanceMeters>NAN</DistanceMeters>
          </Trackpoint>
          <Trackpoint>
            <Time>2021-08-11T14:54:05.000Z</Time>
            <Position>
              <LatitudeDegrees>43.30249789170920848846435546875</LatitudeDegrees>
              <LongitudeDegrees>-1.8812023289501667022705078125</LongitudeDegrees>
            </Position>
            <AltitudeMeters>29.6000003814697265625</AltitudeMeters>
            <DistanceMeters>NAN</DistanceMeters>
          </Trackpoint>
          <Trackpoint>
            <Time>2021-08-11T14:54:06.000Z</Time>
            <Position>
              <LatitudeDegrees>43.30252236686646938323974609375</LatitudeDegrees>
              <LongitudeDegrees>-1.88124365173280239105224609375</LongitudeDegrees>
            </Position>
            <AltitudeMeters>29.6000003814697265625</AltitudeMeters>
            <DistanceMeters>NAN</DistanceMeters>
          </Trackpoint>
          <Trackpoint>
            <Time>2021-08-11T14:54:07.000Z</Time>
            <Position>
              <LatitudeDegrees>43.3025393821299076080322265625</LatitudeDegrees>
              <LongitudeDegrees>-1.88127986155450344085693359375</LongitudeDegrees>
            </Position>
            <AltitudeMeters>29.6000003814697265625</AltitudeMeters>
            <DistanceMeters>NAN</DistanceMeters>
          </Trackpoint>
          <Trackpoint>
            <Time>2021-08-11T14:54:08.000Z</Time>
            <Position>
              <LatitudeDegrees>43.3025564812123775482177734375</LatitudeDegrees>
              <LongitudeDegrees>-1.8813173286616802215576171875</LongitudeDegrees>
            </Position>
            <AltitudeMeters>29.6000003814697265625</AltitudeMeters>
            <DistanceMeters>NAN</DistanceMeters>
          </Trackpoint>
          <Trackpoint>
            <Time>2021-08-11T14:54:09.000Z</Time>
            <Position>
              <LatitudeDegrees>43.3025742508471012115478515625</LatitudeDegrees>
              <LongitudeDegrees>-1.88135848380625247955322265625</LongitudeDegrees>
            </Position>
            <AltitudeMeters>29.6000003814697265625</AltitudeMeters>
            <DistanceMeters>NAN</DistanceMeters>
          </Trackpoint>
          <Trackpoint>
            <Time>2021-08-11T14:54:10.000Z</Time>
            <Position>
              <LatitudeDegrees>43.30260082148015499114990234375</LatitudeDegrees>
              <LongitudeDegrees>-1.8813974596560001373291015625</LongitudeDegrees>
            </Position>
            <AltitudeMeters>29.6000003814697265625</AltitudeMeters>
            <DistanceMeters>NAN</DistanceMeters>
          </Trackpoint>
          <Trackpoint>
            <Time>2021-08-11T14:54:13.000Z</Time>
            <Position>
              <LatitudeDegrees>43.3026299066841602325439453125</LatitudeDegrees>
              <LongitudeDegrees>-1.88151153735816478729248046875</LongitudeDegrees>
            </Position>
            <AltitudeMeters>29.6000003814697265625</AltitudeMeters>
            <DistanceMeters>NAN</DistanceMeters>
          </Trackpoint>
          <Trackpoint>
            <Time>2021-08-11T14:54:15.000Z</Time>
            <Position>
              <LatitudeDegrees>43.30266536213457584381103515625</LatitudeDegrees>
              <LongitudeDegrees>-1.881588064134120941162109375</LongitudeDegrees>
            </Position>
            <AltitudeMeters>29.6000003814697265625</AltitudeMeters>
            <DistanceMeters>NAN</DistanceMeters>
          </Trackpoint>
          <Trackpoint>
            <Time>2021-08-11T14:54:16.000Z</Time>
            <Position>
              <LatitudeDegrees>43.30267441459000110626220703125</LatitudeDegrees>
              <LongitudeDegrees>-1.88162787817418575286865234375</LongitudeDegrees>
            </Position>
            <AltitudeMeters>29.6000003814697265625</AltitudeMeters>
            <DistanceMeters>NAN</DistanceMeters>
          </Trackpoint>
          <Trackpoint>
            <Time>2021-08-11T14:54:17.000Z</Time>
            <Position>
              <LatitudeDegrees>43.30267810262739658355712890625</LatitudeDegrees>
              <LongitudeDegrees>-1.88167531974613666534423828125</LongitudeDegrees>
            </Position>
            <AltitudeMeters>29.6000003814697265625</AltitudeMeters>
            <DistanceMeters>NAN</DistanceMeters>
          </Trackpoint>
          <Trackpoint>
            <Time>2021-08-11T14:54:18.000Z</Time>
            <Position>
              <LatitudeDegrees>43.30269536934792995452880859375</LatitudeDegrees>
              <LongitudeDegrees>-1.8817159719765186309814453125</LongitudeDegrees>
            </Position>
            <AltitudeMeters>29.6000003814697265625</AltitudeMeters>
            <DistanceMeters>NAN</DistanceMeters>
          </Trackpoint>
          <Trackpoint>
            <Time>2021-08-11T14:54:19.000Z</Time>
            <Position>
              <LatitudeDegrees>43.30272923223674297332763671875</LatitudeDegrees>
              <LongitudeDegrees>-1.88175134360790252685546875</LongitudeDegrees>
            </Position>
            <AltitudeMeters>29.6000003814697265625</AltitudeMeters>
            <DistanceMeters>NAN</DistanceMeters>
          </Trackpoint>
          <Trackpoint>
            <Time>2021-08-11T14:54:20.000Z</Time>
            <Position>
              <LatitudeDegrees>43.3027584850788116455078125</LatitudeDegrees>
              <LongitudeDegrees>-1.8817893974483013153076171875</LongitudeDegrees>
            </Position>
            <AltitudeMeters>29.3999996185302734375</AltitudeMeters>
            <DistanceMeters>NAN</DistanceMeters>
          </Trackpoint>
          <Trackpoint>
            <Time>2021-08-11T14:54:21.000Z</Time>
            <Position>
              <LatitudeDegrees>43.3027888275682926177978515625</LatitudeDegrees>
              <LongitudeDegrees>-1.88183717429637908935546875</LongitudeDegrees>
            </Position>
            <AltitudeMeters>29.3999996185302734375</AltitudeMeters>
            <DistanceMeters>NAN</DistanceMeters>
          </Trackpoint>
          <Trackpoint>
            <Time>2021-08-11T14:54:22.000Z</Time>
            <Position>
              <LatitudeDegrees>43.30282059498131275177001953125</LatitudeDegrees>
              <LongitudeDegrees>-1.88189190812408924102783203125</LongitudeDegrees>
            </Position>
            <AltitudeMeters>29.200000762939453125</AltitudeMeters>
            <DistanceMeters>NAN</DistanceMeters>
          </Trackpoint>
          <Trackpoint>
            <Time>2021-08-11T14:54:24.000Z</Time>
            <Position>
              <LatitudeDegrees>43.302893601357936859130859375</LatitudeDegrees>
              <LongitudeDegrees>-1.8820079974830150604248046875</LongitudeDegrees>
            </Position>
            <AltitudeMeters>29</AltitudeMeters>
            <DistanceMeters>NAN</DistanceMeters>
          </Trackpoint>
          <Trackpoint>
            <Time>2021-08-11T14:54:25.000Z</Time>
            <Position>
              <LatitudeDegrees>43.30294079147279262542724609375</LatitudeDegrees>
              <LongitudeDegrees>-1.88206809572875499725341796875</LongitudeDegrees>
            </Position>
            <AltitudeMeters>28.799999237060546875</AltitudeMeters>
            <DistanceMeters>NAN</DistanceMeters>
          </Trackpoint>
          <Trackpoint>
            <Time>2021-08-11T14:54:27.000Z</Time>
            <Position>
              <LatitudeDegrees>43.30304187722504138946533203125</LatitudeDegrees>
              <LongitudeDegrees>-1.88215694390237331390380859375</LongitudeDegrees>
            </Position>
            <AltitudeMeters>28</AltitudeMeters>
            <DistanceMeters>NAN</DistanceMeters>
          </Trackpoint>
          <Trackpoint>
            <Time>2021-08-11T14:54:28.000Z</Time>
            <Position>
              <LatitudeDegrees>43.3030883967876434326171875</LatitudeDegrees>
              <LongitudeDegrees>-1.882186196744441986083984375</LongitudeDegrees>
            </Position>
            <AltitudeMeters>27.799999237060546875</AltitudeMeters>
            <DistanceMeters>NAN</DistanceMeters>
          </Trackpoint>
          <Trackpoint>
            <Time>2021-08-11T14:54:29.000Z</Time>
            <Position>
              <LatitudeDegrees>43.30313307233154773712158203125</LatitudeDegrees>
              <LongitudeDegrees>-1.88220874406397342681884765625</LongitudeDegrees>
            </Position>
            <AltitudeMeters>27.3999996185302734375</AltitudeMeters>
            <DistanceMeters>NAN</DistanceMeters>
          </Trackpoint>
          <Trackpoint>
            <Time>2021-08-11T14:54:30.000Z</Time>
            <Position>
              <LatitudeDegrees>43.30317623913288116455078125</LatitudeDegrees>
              <LongitudeDegrees>-1.882229112088680267333984375</LongitudeDegrees>
            </Position>
            <AltitudeMeters>26.6000003814697265625</AltitudeMeters>
            <DistanceMeters>NAN</DistanceMeters>
          </Trackpoint>
          <Trackpoint>
            <Time>2021-08-11T14:54:31.000Z</Time>
            <Position>
              <LatitudeDegrees>43.30320850946009159088134765625</LatitudeDegrees>
              <LongitudeDegrees>-1.88224813900887966156005859375</LongitudeDegrees>
            </Position>
            <AltitudeMeters>26.200000762939453125</AltitudeMeters>
            <DistanceMeters>NAN</DistanceMeters>
          </Trackpoint>
          <Trackpoint>
            <Time>2021-08-11T14:54:32.000Z</Time>
            <Position>
              <LatitudeDegrees>43.3032551966607570648193359375</LatitudeDegrees>
              <LongitudeDegrees>-1.88228032551705837249755859375</LongitudeDegrees>
            </Position>
            <AltitudeMeters>25.6000003814697265625</AltitudeMeters>
            <DistanceMeters>NAN</DistanceMeters>
          </Trackpoint>
          <Trackpoint>
            <Time>2021-08-11T14:54:33.000Z</Time>
            <Position>
              <LatitudeDegrees>43.303292579948902130126953125</LatitudeDegrees>
              <LongitudeDegrees>-1.88230396248400211334228515625</LongitudeDegrees>
            </Position>
            <AltitudeMeters>25.200000762939453125</AltitudeMeters>
            <DistanceMeters>NAN</DistanceMeters>
          </Trackpoint>
          <Trackpoint>
            <Time>2021-08-11T14:54:34.000Z</Time>
            <Position>
              <LatitudeDegrees>43.30333189107477664947509765625</LatitudeDegrees>
              <LongitudeDegrees>-1.8823380768299102783203125</LongitudeDegrees>
            </Position>
            <AltitudeMeters>24.799999237060546875</AltitudeMeters>
            <DistanceMeters>NAN</DistanceMeters>
          </Trackpoint>
          <Trackpoint>
            <Time>2021-08-11T14:54:35.000Z</Time>
            <Position>
              <LatitudeDegrees>43.3033571206033229827880859375</LatitudeDegrees>
              <LongitudeDegrees>-1.88239817507565021514892578125</LongitudeDegrees>
            </Position>
            <AltitudeMeters>24.6000003814697265625</AltitudeMeters>
            <DistanceMeters>NAN</DistanceMeters>
          </Trackpoint>
          <Trackpoint>
            <Time>2021-08-11T14:54:36.000Z</Time>
            <Position>
              <LatitudeDegrees>43.30332241952419281005859375</LatitudeDegrees>
              <LongitudeDegrees>-1.88248132355511188507080078125</LongitudeDegrees>
            </Position>
            <AltitudeMeters>24</AltitudeMeters>
            <DistanceMeters>NAN</DistanceMeters>
          </Trackpoint>
          <Trackpoint>
            <Time>2021-08-11T14:54:37.000Z</Time>
            <Position>
              <LatitudeDegrees>43.3032920770347118377685546875</LatitudeDegrees>
              <LongitudeDegrees>-1.88252222724258899688720703125</LongitudeDegrees>
            </Position>
            <AltitudeMeters>23.6000003814697265625</AltitudeMeters>
            <DistanceMeters>NAN</DistanceMeters>
          </Trackpoint>
          <Trackpoint>
            <Time>2021-08-11T14:54:38.000Z</Time>
            <Position>
              <LatitudeDegrees>43.303269781172275543212890625</LatitudeDegrees>
              <LongitudeDegrees>-1.8825618736445903778076171875</LongitudeDegrees>
            </Position>
            <AltitudeMeters>23.6000003814697265625</AltitudeMeters>
            <DistanceMeters>NAN</DistanceMeters>
          </Trackpoint>
          <Trackpoint>
            <Time>2021-08-11T14:54:39.000Z</Time>
            <Position>
              <LatitudeDegrees>43.30325058661401271820068359375</LatitudeDegrees>
              <LongitudeDegrees>-1.88258844427764415740966796875</LongitudeDegrees>
            </Position>
            <AltitudeMeters>23.3999996185302734375</AltitudeMeters>
            <DistanceMeters>NAN</DistanceMeters>
          </Trackpoint>
          <Trackpoint>
            <Time>2021-08-11T14:54:40.000Z</Time>
            <Position>
              <LatitudeDegrees>43.30323583446443080902099609375</LatitudeDegrees>
              <LongitudeDegrees>-1.882618702948093414306640625</LongitudeDegrees>
            </Position>
            <AltitudeMeters>23.3999996185302734375</AltitudeMeters>
            <DistanceMeters>NAN</DistanceMeters>
          </Trackpoint>
          <Trackpoint>
            <Time>2021-08-11T14:54:41.000Z</Time>
            <Position>
              <LatitudeDegrees>43.3032283745706081390380859375</LatitudeDegrees>
              <LongitudeDegrees>-1.88265164382755756378173828125</LongitudeDegrees>
            </Position>
            <AltitudeMeters>23.200000762939453125</AltitudeMeters>
            <DistanceMeters>NAN</DistanceMeters>
          </Trackpoint>
          <Trackpoint>
            <Time>2021-08-11T14:54:42.000Z</Time>
            <Position>
              <LatitudeDegrees>43.30322728492319583892822265625</LatitudeDegrees>
              <LongitudeDegrees>-1.88267226330935955047607421875</LongitudeDegrees>
            </Position>
            <AltitudeMeters>23.200000762939453125</AltitudeMeters>
            <DistanceMeters>NAN</DistanceMeters>
          </Trackpoint>
          <Trackpoint>
            <Time>2021-08-11T14:54:43.000Z</Time>
            <Position>
              <LatitudeDegrees>43.30322896130383014678955078125</LatitudeDegrees>
              <LongitudeDegrees>-1.8826795555651187896728515625</LongitudeDegrees>
            </Position>
            <AltitudeMeters>23.200000762939453125</AltitudeMeters>
            <DistanceMeters>NAN</DistanceMeters>
          </Trackpoint>
          <Trackpoint>
            <Time>2021-08-11T14:54:44.000Z</Time>
            <Position>
              <LatitudeDegrees>43.30322778783738613128662109375</LatitudeDegrees>
              <LongitudeDegrees>-1.8826798908412456512451171875</LongitudeDegrees>
            </Position>
            <AltitudeMeters>23.200000762939453125</AltitudeMeters>
            <DistanceMeters>NAN</DistanceMeters>
          </Trackpoint>
          <Trackpoint>
            <Time>2021-08-11T14:54:49.000Z</Time>
            <Position>
              <LatitudeDegrees>43.30322359688580036163330078125</LatitudeDegrees>
              <LongitudeDegrees>-1.8830071203410625457763671875</LongitudeDegrees>
            </Position>
            <AltitudeMeters>22.799999237060546875</AltitudeMeters>
            <DistanceMeters>NAN</DistanceMeters>
          </Trackpoint>
          <Trackpoint>
            <Time>2021-08-11T14:54:51.000Z</Time>
            <Position>
              <LatitudeDegrees>43.30323751084506511688232421875</LatitudeDegrees>
              <LongitudeDegrees>-1.88314164988696575164794921875</LongitudeDegrees>
            </Position>
            <AltitudeMeters>22.6000003814697265625</AltitudeMeters>
            <DistanceMeters>NAN</DistanceMeters>
          </Trackpoint>
          <Trackpoint>
            <Time>2021-08-11T14:54:58.000Z</Time>
            <Position>
              <LatitudeDegrees>43.30321655608713626861572265625</LatitudeDegrees>
              <LongitudeDegrees>-1.883432082831859588623046875</LongitudeDegrees>
            </Position>
            <AltitudeMeters>22.799999237060546875</AltitudeMeters>
            <DistanceMeters>NAN</DistanceMeters>
          </Trackpoint>
          <Trackpoint>
            <Time>2021-08-11T14:55:01.000Z</Time>
            <Position>
              <LatitudeDegrees>43.303214795887470245361328125</LatitudeDegrees>
              <LongitudeDegrees>-1.88357214443385601043701171875</LongitudeDegrees>
            </Position>
            <AltitudeMeters>23.200000762939453125</AltitudeMeters>
            <DistanceMeters>NAN</DistanceMeters>
          </Trackpoint>
          <Trackpoint>
            <Time>2021-08-11T14:55:02.000Z</Time>
            <Position>
              <LatitudeDegrees>43.3032186515629291534423828125</LatitudeDegrees>
              <LongitudeDegrees>-1.88360877335071563720703125</LongitudeDegrees>
            </Position>
            <AltitudeMeters>23.3999996185302734375</AltitudeMeters>
            <DistanceMeters>NAN</DistanceMeters>
          </Trackpoint>
          <Trackpoint>
            <Time>2021-08-11T14:55:03.000Z</Time>
            <Position>
              <LatitudeDegrees>43.30322443507611751556396484375</LatitudeDegrees>
              <LongitudeDegrees>-1.8836488388478755950927734375</LongitudeDegrees>
            </Position>
            <AltitudeMeters>23.3999996185302734375</AltitudeMeters>
            <DistanceMeters>NAN</DistanceMeters>
          </Trackpoint>
          <Trackpoint>
            <Time>2021-08-11T14:55:05.000Z</Time>
            <Position>
              <LatitudeDegrees>43.30322024412453174591064453125</LatitudeDegrees>
              <LongitudeDegrees>-1.8837427161633968353271484375</LongitudeDegrees>
            </Position>
            <AltitudeMeters>23.6000003814697265625</AltitudeMeters>
            <DistanceMeters>NAN</DistanceMeters>
          </Trackpoint>
          <Trackpoint>
            <Time>2021-08-11T14:55:08.000Z</Time>
            <Position>
              <LatitudeDegrees>43.30318965017795562744140625</LatitudeDegrees>
              <LongitudeDegrees>-1.88389803282916545867919921875</LongitudeDegrees>
            </Position>
            <AltitudeMeters>23.799999237060546875</AltitudeMeters>
            <DistanceMeters>NAN</DistanceMeters>
          </Trackpoint>
          <Trackpoint>
            <Time>2021-08-11T14:55:11.000Z</Time>
            <Position>
              <LatitudeDegrees>43.30315905623137950897216796875</LatitudeDegrees>
              <LongitudeDegrees>-1.88402862288057804107666015625</LongitudeDegrees>
            </Position>
            <AltitudeMeters>23.799999237060546875</AltitudeMeters>
            <DistanceMeters>NAN</DistanceMeters>
          </Trackpoint>
          <Trackpoint>
            <Time>2021-08-11T14:55:14.000Z</Time>
            <Position>
              <LatitudeDegrees>43.303132317960262298583984375</LatitudeDegrees>
              <LongitudeDegrees>-1.88414655625820159912109375</LongitudeDegrees>
            </Position>
            <AltitudeMeters>23.799999237060546875</AltitudeMeters>
            <DistanceMeters>NAN</DistanceMeters>
          </Trackpoint>
          <Trackpoint>
            <Time>2021-08-11T14:55:15.000Z</Time>
            <Position>
              <LatitudeDegrees>43.30312368459999561309814453125</LatitudeDegrees>
              <LongitudeDegrees>-1.8841753900051116943359375</LongitudeDegrees>
            </Position>
            <AltitudeMeters>23.799999237060546875</AltitudeMeters>
            <DistanceMeters>NAN</DistanceMeters>
          </Trackpoint>
          <Trackpoint>
            <Time>2021-08-11T14:55:22.000Z</Time>
            <Position>
              <LatitudeDegrees>43.30304388888180255889892578125</LatitudeDegrees>
              <LongitudeDegrees>-1.884463392198085784912109375</LongitudeDegrees>
            </Position>
            <AltitudeMeters>24</AltitudeMeters>
            <DistanceMeters>NAN</DistanceMeters>
          </Trackpoint>
          <Trackpoint>
            <Time>2021-08-11T14:55:27.000Z</Time>
            <Position>
              <LatitudeDegrees>43.30299108289182186126708984375</LatitudeDegrees>
              <LongitudeDegrees>-1.88463564030826091766357421875</LongitudeDegrees>
            </Position>
            <AltitudeMeters>24</AltitudeMeters>
            <DistanceMeters>NAN</DistanceMeters>
          </Trackpoint>
          <Trackpoint>
            <Time>2021-08-11T14:55:28.000Z</Time>
            <Position>
              <LatitudeDegrees>43.302990831434726715087890625</LatitudeDegrees>
              <LongitudeDegrees>-1.88466028310358524322509765625</LongitudeDegrees>
            </Position>
            <AltitudeMeters>24</AltitudeMeters>
            <DistanceMeters>NAN</DistanceMeters>
          </Trackpoint>
          <Trackpoint>
            <Time>2021-08-11T14:55:29.000Z</Time>
            <Position>
              <LatitudeDegrees>43.3029918372631072998046875</LatitudeDegrees>
              <LongitudeDegrees>-1.8846791423857212066650390625</LongitudeDegrees>
            </Position>
            <AltitudeMeters>24</AltitudeMeters>
            <DistanceMeters>NAN</DistanceMeters>
          </Trackpoint>
          <Trackpoint>
            <Time>2021-08-11T14:55:30.000Z</Time>
            <Position>
              <LatitudeDegrees>43.302993513643741607666015625</LatitudeDegrees>
              <LongitudeDegrees>-1.8847029469907283782958984375</LongitudeDegrees>
            </Position>
            <AltitudeMeters>24</AltitudeMeters>
            <DistanceMeters>NAN</DistanceMeters>
          </Trackpoint>
          <Trackpoint>
            <Time>2021-08-11T14:55:31.000Z</Time>
            <Position>
              <LatitudeDegrees>43.3029966987669467926025390625</LatitudeDegrees>
              <LongitudeDegrees>-1.88472683541476726531982421875</LongitudeDegrees>
            </Position>
            <AltitudeMeters>24</AltitudeMeters>
            <DistanceMeters>NAN</DistanceMeters>
          </Trackpoint>
          <Trackpoint>
            <Time>2021-08-11T14:55:32.000Z</Time>
            <Position>
              <LatitudeDegrees>43.30300315283238887786865234375</LatitudeDegrees>
              <LongitudeDegrees>-1.88474141992628574371337890625</LongitudeDegrees>
            </Position>
            <AltitudeMeters>24.200000762939453125</AltitudeMeters>
            <DistanceMeters>NAN</DistanceMeters>
          </Trackpoint>
          <Trackpoint>
            <Time>2021-08-11T14:55:33.000Z</Time>
            <Position>
              <LatitudeDegrees>43.30300969071686267852783203125</LatitudeDegrees>
              <LongitudeDegrees>-1.8847535736858844757080078125</LongitudeDegrees>
            </Position>
            <AltitudeMeters>24.200000762939453125</AltitudeMeters>
            <DistanceMeters>NAN</DistanceMeters>
          </Trackpoint>
          <Trackpoint>
            <Time>2021-08-11T14:55:34.000Z</Time>
            <Position>
              <LatitudeDegrees>43.30301807262003421783447265625</LatitudeDegrees>
              <LongitudeDegrees>-1.8847646377980709075927734375</LongitudeDegrees>
            </Position>
            <AltitudeMeters>24.200000762939453125</AltitudeMeters>
            <DistanceMeters>NAN</DistanceMeters>
          </Trackpoint>
          <Trackpoint>
            <Time>2021-08-11T14:55:35.000Z</Time>
            <Position>
              <LatitudeDegrees>43.3030312322080135345458984375</LatitudeDegrees>
              <LongitudeDegrees>-1.88477645628154277801513671875</LongitudeDegrees>
            </Position>
            <AltitudeMeters>24.200000762939453125</AltitudeMeters>
            <DistanceMeters>NAN</DistanceMeters>
          </Trackpoint>
          <Trackpoint>
            <Time>2021-08-11T14:55:36.000Z</Time>
            <Position>
              <LatitudeDegrees>43.30304824747145175933837890625</LatitudeDegrees>
              <LongitudeDegrees>-1.88478735275566577911376953125</LongitudeDegrees>
            </Position>
            <AltitudeMeters>24.200000762939453125</AltitudeMeters>
            <DistanceMeters>NAN</DistanceMeters>
          </Trackpoint>
          <Trackpoint>
            <Time>2021-08-11T14:55:37.000Z</Time>
            <Position>
              <LatitudeDegrees>43.3030723035335540771484375</LatitudeDegrees>
              <LongitudeDegrees>-1.8848015181720256805419921875</LongitudeDegrees>
            </Position>
            <AltitudeMeters>24.200000762939453125</AltitudeMeters>
            <DistanceMeters>NAN</DistanceMeters>
          </Trackpoint>
          <Trackpoint>
            <Time>2021-08-11T14:55:38.000Z</Time>
            <Position>
              <LatitudeDegrees>43.303093425929546356201171875</LatitudeDegrees>
              <LongitudeDegrees>-1.8848125822842121124267578125</LongitudeDegrees>
            </Position>
            <AltitudeMeters>24.200000762939453125</AltitudeMeters>
            <DistanceMeters>NAN</DistanceMeters>
          </Trackpoint>
          <Trackpoint>
            <Time>2021-08-11T14:55:40.000Z</Time>
            <Position>
              <LatitudeDegrees>43.303136341273784637451171875</LatitudeDegrees>
              <LongitudeDegrees>-1.88483915291726589202880859375</LongitudeDegrees>
            </Position>
            <AltitudeMeters>24</AltitudeMeters>
            <DistanceMeters>NAN</DistanceMeters>
          </Trackpoint>
          <Trackpoint>
            <Time>2021-08-11T14:55:41.000Z</Time>
            <Position>
              <LatitudeDegrees>43.30315587110817432403564453125</LatitudeDegrees>
              <LongitudeDegrees>-1.8848427571356296539306640625</LongitudeDegrees>
            </Position>
            <AltitudeMeters>24</AltitudeMeters>
            <DistanceMeters>NAN</DistanceMeters>
          </Trackpoint>
          <Trackpoint>
            <Time>2021-08-11T14:55:42.000Z</Time>
            <Position>
              <LatitudeDegrees>43.3031693659722805023193359375</LatitudeDegrees>
              <LongitudeDegrees>-1.88484619371592998504638671875</LongitudeDegrees>
            </Position>
            <AltitudeMeters>23.799999237060546875</AltitudeMeters>
            <DistanceMeters>NAN</DistanceMeters>
          </Trackpoint>
          <Trackpoint>
            <Time>2021-08-11T14:55:43.000Z</Time>
            <Position>
              <LatitudeDegrees>43.30317498184740543365478515625</LatitudeDegrees>
              <LongitudeDegrees>-1.884847618639469146728515625</LongitudeDegrees>
            </Position>
            <AltitudeMeters>23.799999237060546875</AltitudeMeters>
            <DistanceMeters>NAN</DistanceMeters>
          </Trackpoint>
          <Trackpoint>
            <Time>2021-08-11T14:55:45.000Z</Time>
            <Position>
              <LatitudeDegrees>43.30317498184740543365478515625</LatitudeDegrees>
              <LongitudeDegrees>-1.884847618639469146728515625</LongitudeDegrees>
            </Position>
            <AltitudeMeters>23.6000003814697265625</AltitudeMeters>
            <DistanceMeters>NAN</DistanceMeters>
          </Trackpoint>
          <Trackpoint>
            <Time>2021-08-11T14:55:53.000Z</Time>
            <Position>
              <LatitudeDegrees>43.30317498184740543365478515625</LatitudeDegrees>
              <LongitudeDegrees>-1.884847618639469146728515625</LongitudeDegrees>
            </Position>
            <AltitudeMeters>23.3999996185302734375</AltitudeMeters>
            <DistanceMeters>NAN</DistanceMeters>
          </Trackpoint>
          <Trackpoint>
            <Time>2021-08-11T14:56:07.000Z</Time>
            <Position>
              <LatitudeDegrees>43.30317498184740543365478515625</LatitudeDegrees>
              <LongitudeDegrees>-1.884847618639469146728515625</LongitudeDegrees>
            </Position>
            <AltitudeMeters>23.6000003814697265625</AltitudeMeters>
            <DistanceMeters>NAN</DistanceMeters>
          </Trackpoint>
          <Trackpoint>
            <Time>2021-08-11T14:56:59.000Z</Time>
            <Position>
              <LatitudeDegrees>43.30317649058997631072998046875</LatitudeDegrees>
              <LongitudeDegrees>-1.8848474510014057159423828125</LongitudeDegrees>
            </Position>
            <AltitudeMeters>23.3999996185302734375</AltitudeMeters>
            <DistanceMeters>NAN</DistanceMeters>
          </Trackpoint>
          <Trackpoint>
            <Time>2021-08-11T14:57:03.000Z</Time>
            <Position>
              <LatitudeDegrees>43.30324874259531497955322265625</LatitudeDegrees>
              <LongitudeDegrees>-1.88487217761576175689697265625</LongitudeDegrees>
            </Position>
            <AltitudeMeters>23.3999996185302734375</AltitudeMeters>
            <DistanceMeters>NAN</DistanceMeters>
          </Trackpoint>
          <Trackpoint>
            <Time>2021-08-11T14:57:04.000Z</Time>
            <Position>
              <LatitudeDegrees>43.303267098963260650634765625</LatitudeDegrees>
              <LongitudeDegrees>-1.884881146252155303955078125</LongitudeDegrees>
            </Position>
            <AltitudeMeters>23.3999996185302734375</AltitudeMeters>
            <DistanceMeters>NAN</DistanceMeters>
          </Trackpoint>
          <Trackpoint>
            <Time>2021-08-11T14:57:07.000Z</Time>
            <Position>
              <LatitudeDegrees>43.3033096790313720703125</LatitudeDegrees>
              <LongitudeDegrees>-1.88490604050457477569580078125</LongitudeDegrees>
            </Position>
            <AltitudeMeters>23.200000762939453125</AltitudeMeters>
            <DistanceMeters>NAN</DistanceMeters>
          </Trackpoint>
          <Trackpoint>
            <Time>2021-08-11T14:57:08.000Z</Time>
            <Position>
              <LatitudeDegrees>43.3033175580203533172607421875</LatitudeDegrees>
              <LongitudeDegrees>-1.8849081359803676605224609375</LongitudeDegrees>
            </Position>
            <AltitudeMeters>23.200000762939453125</AltitudeMeters>
            <DistanceMeters>NAN</DistanceMeters>
          </Trackpoint>
          <Trackpoint>
            <Time>2021-08-11T14:57:10.000Z</Time>
            <Position>
              <LatitudeDegrees>43.3033520914614200592041015625</LatitudeDegrees>
              <LongitudeDegrees>-1.88494560308754444122314453125</LongitudeDegrees>
            </Position>
            <AltitudeMeters>23.200000762939453125</AltitudeMeters>
            <DistanceMeters>NAN</DistanceMeters>
          </Trackpoint>
          <Trackpoint>
            <Time>2021-08-11T14:57:14.000Z</Time>
            <Position>
              <LatitudeDegrees>43.3033745549619197845458984375</LatitudeDegrees>
              <LongitudeDegrees>-1.8850033544003963470458984375</LongitudeDegrees>
            </Position>
            <AltitudeMeters>23</AltitudeMeters>
            <DistanceMeters>NAN</DistanceMeters>
          </Trackpoint>
          <Trackpoint>
            <Time>2021-08-11T14:57:15.000Z</Time>
            <Position>
              <LatitudeDegrees>43.30339140258729457855224609375</LatitudeDegrees>
              <LongitudeDegrees>-1.88500620424747467041015625</LongitudeDegrees>
            </Position>
            <AltitudeMeters>23</AltitudeMeters>
            <DistanceMeters>NAN</DistanceMeters>
          </Trackpoint>
          <Trackpoint>
            <Time>2021-08-11T14:57:17.000Z</Time>
            <Position>
              <LatitudeDegrees>43.3034228347241878509521484375</LatitudeDegrees>
              <LongitudeDegrees>-1.88502087257802486419677734375</LongitudeDegrees>
            </Position>
            <AltitudeMeters>23</AltitudeMeters>
            <DistanceMeters>NAN</DistanceMeters>
          </Trackpoint>
          <Trackpoint>
            <Time>2021-08-11T14:57:18.000Z</Time>
            <Position>
              <LatitudeDegrees>43.30343775451183319091796875</LatitudeDegrees>
              <LongitudeDegrees>-1.8850338645279407501220703125</LongitudeDegrees>
            </Position>
            <AltitudeMeters>23</AltitudeMeters>
            <DistanceMeters>NAN</DistanceMeters>
          </Trackpoint>
          <Trackpoint>
            <Time>2021-08-11T14:57:21.000Z</Time>
            <Position>
              <LatitudeDegrees>43.303535319864749908447265625</LatitudeDegrees>
              <LongitudeDegrees>-1.88509630970656871795654296875</LongitudeDegrees>
            </Position>
            <AltitudeMeters>23</AltitudeMeters>
            <DistanceMeters>NAN</DistanceMeters>
          </Trackpoint>
          <Trackpoint>
            <Time>2021-08-11T14:57:26.000Z</Time>
            <Position>
              <LatitudeDegrees>43.3037862740457057952880859375</LatitudeDegrees>
              <LongitudeDegrees>-1.88525187782943248748779296875</LongitudeDegrees>
            </Position>
            <AltitudeMeters>22.3999996185302734375</AltitudeMeters>
            <DistanceMeters>NAN</DistanceMeters>
          </Trackpoint>
          <Trackpoint>
            <Time>2021-08-11T14:57:27.000Z</Time>
            <Position>
              <LatitudeDegrees>43.30383933149278163909912109375</LatitudeDegrees>
              <LongitudeDegrees>-1.885286159813404083251953125</LongitudeDegrees>
            </Position>
            <AltitudeMeters>22.200000762939453125</AltitudeMeters>
            <DistanceMeters>NAN</DistanceMeters>
          </Trackpoint>
          <Trackpoint>
            <Time>2021-08-11T14:57:28.000Z</Time>
            <Position>
              <LatitudeDegrees>43.30388124100863933563232421875</LatitudeDegrees>
              <LongitudeDegrees>-1.88531474210321903228759765625</LongitudeDegrees>
            </Position>
            <AltitudeMeters>21.799999237060546875</AltitudeMeters>
            <DistanceMeters>NAN</DistanceMeters>
          </Trackpoint>
          <Trackpoint>
            <Time>2021-08-11T14:57:29.000Z</Time>
            <Position>
              <LatitudeDegrees>43.3039294369518756866455078125</LatitudeDegrees>
              <LongitudeDegrees>-1.88534894026815891265869140625</LongitudeDegrees>
            </Position>
            <AltitudeMeters>21.3999996185302734375</AltitudeMeters>
            <DistanceMeters>NAN</DistanceMeters>
          </Trackpoint>
          <Trackpoint>
            <Time>2021-08-11T14:57:30.000Z</Time>
            <Position>
              <LatitudeDegrees>43.3039760403335094451904296875</LatitudeDegrees>
              <LongitudeDegrees>-1.885382048785686492919921875</LongitudeDegrees>
            </Position>
            <AltitudeMeters>21.3999996185302734375</AltitudeMeters>
            <DistanceMeters>NAN</DistanceMeters>
          </Trackpoint>
          <Trackpoint>
            <Time>2021-08-11T14:57:31.000Z</Time>
            <Position>
              <LatitudeDegrees>43.30402876250445842742919921875</LatitudeDegrees>
              <LongitudeDegrees>-1.88541566021740436553955078125</LongitudeDegrees>
            </Position>
            <AltitudeMeters>21</AltitudeMeters>
            <DistanceMeters>NAN</DistanceMeters>
          </Trackpoint>
          <Trackpoint>
            <Time>2021-08-11T14:57:32.000Z</Time>
            <Position>
              <LatitudeDegrees>43.30407151021063327789306640625</LatitudeDegrees>
              <LongitudeDegrees>-1.88544130884110927581787109375</LongitudeDegrees>
            </Position>
            <AltitudeMeters>21</AltitudeMeters>
            <DistanceMeters>NAN</DistanceMeters>
          </Trackpoint>
          <Trackpoint>
            <Time>2021-08-11T14:57:33.000Z</Time>
            <Position>
              <LatitudeDegrees>43.304103948175907135009765625</LatitudeDegrees>
              <LongitudeDegrees>-1.8854613415896892547607421875</LongitudeDegrees>
            </Position>
            <AltitudeMeters>20.799999237060546875</AltitudeMeters>
            <DistanceMeters>NAN</DistanceMeters>
          </Trackpoint>
          <Trackpoint>
            <Time>2021-08-11T14:57:34.000Z</Time>
            <Position>
              <LatitudeDegrees>43.30414376221597194671630859375</LatitudeDegrees>
              <LongitudeDegrees>-1.88548539765179157257080078125</LongitudeDegrees>
            </Position>
            <AltitudeMeters>20.799999237060546875</AltitudeMeters>
            <DistanceMeters>NAN</DistanceMeters>
          </Trackpoint>
          <Trackpoint>
            <Time>2021-08-11T14:57:37.000Z</Time>
            <Position>
              <LatitudeDegrees>43.30425960011780261993408203125</LatitudeDegrees>
              <LongitudeDegrees>-1.88558195717632770538330078125</LongitudeDegrees>
            </Position>
            <AltitudeMeters>20.799999237060546875</AltitudeMeters>
            <DistanceMeters>NAN</DistanceMeters>
          </Trackpoint>
          <Trackpoint>
            <Time>2021-08-11T14:57:38.000Z</Time>
            <Position>
              <LatitudeDegrees>43.30428625456988811492919921875</LatitudeDegrees>
              <LongitudeDegrees>-1.88560031354427337646484375</LongitudeDegrees>
            </Position>
            <AltitudeMeters>20.799999237060546875</AltitudeMeters>
            <DistanceMeters>NAN</DistanceMeters>
          </Trackpoint>
          <Trackpoint>
            <Time>2021-08-11T14:57:39.000Z</Time>
            <Position>
              <LatitudeDegrees>43.30432045273482799530029296875</LatitudeDegrees>
              <LongitudeDegrees>-1.885620765388011932373046875</LongitudeDegrees>
            </Position>
            <AltitudeMeters>20.799999237060546875</AltitudeMeters>
            <DistanceMeters>NAN</DistanceMeters>
          </Trackpoint>
          <Trackpoint>
            <Time>2021-08-11T14:57:42.000Z</Time>
            <Position>
              <LatitudeDegrees>43.30442505888640880584716796875</LatitudeDegrees>
              <LongitudeDegrees>-1.8856749124825000762939453125</LongitudeDegrees>
            </Position>
            <AltitudeMeters>21</AltitudeMeters>
            <DistanceMeters>NAN</DistanceMeters>
          </Trackpoint>
          <Trackpoint>
            <Time>2021-08-11T14:57:43.000Z</Time>
            <Position>
              <LatitudeDegrees>43.3044608496129512786865234375</LatitudeDegrees>
              <LongitudeDegrees>-1.88569880090653896331787109375</LongitudeDegrees>
            </Position>
            <AltitudeMeters>21</AltitudeMeters>
            <DistanceMeters>NAN</DistanceMeters>
          </Trackpoint>
          <Trackpoint>
            <Time>2021-08-11T14:57:44.000Z</Time>
            <Position>
              <LatitudeDegrees>43.30449563451111316680908203125</LatitudeDegrees>
              <LongitudeDegrees>-1.88572126440703868865966796875</LongitudeDegrees>
            </Position>
            <AltitudeMeters>21</AltitudeMeters>
            <DistanceMeters>NAN</DistanceMeters>
          </Trackpoint>
          <Trackpoint>
            <Time>2021-08-11T14:57:45.000Z</Time>
            <Position>
              <LatitudeDegrees>43.3045292459428310394287109375</LatitudeDegrees>
              <LongitudeDegrees>-1.88574272207915782928466796875</LongitudeDegrees>
            </Position>
            <AltitudeMeters>21</AltitudeMeters>
            <DistanceMeters>NAN</DistanceMeters>
          </Trackpoint>
          <Trackpoint>
            <Time>2021-08-11T14:57:46.000Z</Time>
            <Position>
              <LatitudeDegrees>43.30456696450710296630859375</LatitudeDegrees>
              <LongitudeDegrees>-1.88576870597898960113525390625</LongitudeDegrees>
            </Position>
            <AltitudeMeters>21</AltitudeMeters>
            <DistanceMeters>NAN</DistanceMeters>
          </Trackpoint>
          <Trackpoint>
            <Time>2021-08-11T14:57:47.000Z</Time>
            <Position>
              <LatitudeDegrees>43.3046016655862331390380859375</LatitudeDegrees>
              <LongitudeDegrees>-1.88579116947948932647705078125</LongitudeDegrees>
            </Position>
            <AltitudeMeters>21</AltitudeMeters>
            <DistanceMeters>NAN</DistanceMeters>
          </Trackpoint>
          <Trackpoint>
            <Time>2021-08-11T14:57:51.000Z</Time>
            <Position>
              <LatitudeDegrees>43.30474189482629299163818359375</LatitudeDegrees>
              <LongitudeDegrees>-1.885879933834075927734375</LongitudeDegrees>
            </Position>
            <AltitudeMeters>21</AltitudeMeters>
            <DistanceMeters>NAN</DistanceMeters>
          </Trackpoint>
          <Trackpoint>
            <Time>2021-08-11T14:57:53.000Z</Time>
            <Position>
              <LatitudeDegrees>43.3048088662326335906982421875</LatitudeDegrees>
              <LongitudeDegrees>-1.8859220109879970550537109375</LongitudeDegrees>
            </Position>
            <AltitudeMeters>21</AltitudeMeters>
            <DistanceMeters>NAN</DistanceMeters>
          </Trackpoint>
          <Trackpoint>
            <Time>2021-08-11T14:57:54.000Z</Time>
            <Position>
              <LatitudeDegrees>43.30483426339924335479736328125</LatitudeDegrees>
              <LongitudeDegrees>-1.88593399710953235626220703125</LongitudeDegrees>
            </Position>
            <AltitudeMeters>21</AltitudeMeters>
            <DistanceMeters>NAN</DistanceMeters>
          </Trackpoint>
          <Trackpoint>
            <Time>2021-08-11T14:57:55.000Z</Time>
            <Position>
              <LatitudeDegrees>43.3048661984503269195556640625</LatitudeDegrees>
              <LongitudeDegrees>-1.885949671268463134765625</LongitudeDegrees>
            </Position>
            <AltitudeMeters>20.799999237060546875</AltitudeMeters>
            <DistanceMeters>NAN</DistanceMeters>
          </Trackpoint>
          <Trackpoint>
            <Time>2021-08-11T14:57:56.000Z</Time>
            <Position>
              <LatitudeDegrees>43.3048983849585056304931640625</LatitudeDegrees>
              <LongitudeDegrees>-1.88596484251320362091064453125</LongitudeDegrees>
            </Position>
            <AltitudeMeters>20.799999237060546875</AltitudeMeters>
            <DistanceMeters>NAN</DistanceMeters>
          </Trackpoint>
          <Trackpoint>
            <Time>2021-08-11T14:57:59.000Z</Time>
            <Position>
              <LatitudeDegrees>43.30500307492911815643310546875</LatitudeDegrees>
              <LongitudeDegrees>-1.88600842840969562530517578125</LongitudeDegrees>
            </Position>
            <AltitudeMeters>20.799999237060546875</AltitudeMeters>
            <DistanceMeters>NAN</DistanceMeters>
          </Trackpoint>
          <Trackpoint>
            <Time>2021-08-11T14:58:00.000Z</Time>
            <Position>
              <LatitudeDegrees>43.305039368569850921630859375</LatitudeDegrees>
              <LongitudeDegrees>-1.88601664267480373382568359375</LongitudeDegrees>
            </Position>
            <AltitudeMeters>20.799999237060546875</AltitudeMeters>
            <DistanceMeters>NAN</DistanceMeters>
          </Trackpoint>
          <Trackpoint>
            <Time>2021-08-11T14:58:01.000Z</Time>
            <Position>
              <LatitudeDegrees>43.30508404411375522613525390625</LatitudeDegrees>
              <LongitudeDegrees>-1.88602535985410213470458984375</LongitudeDegrees>
            </Position>
            <AltitudeMeters>20.799999237060546875</AltitudeMeters>
            <DistanceMeters>NAN</DistanceMeters>
          </Trackpoint>
          <Trackpoint>
            <Time>2021-08-11T14:58:03.000Z</Time>
            <Position>
              <LatitudeDegrees>43.3051609061658382415771484375</LatitudeDegrees>
              <LongitudeDegrees>-1.886037178337574005126953125</LongitudeDegrees>
            </Position>
            <AltitudeMeters>20.799999237060546875</AltitudeMeters>
            <DistanceMeters>NAN</DistanceMeters>
          </Trackpoint>
          <Trackpoint>
            <Time>2021-08-11T14:58:08.000Z</Time>
            <Position>
              <LatitudeDegrees>43.30534187145531177520751953125</LatitudeDegrees>
              <LongitudeDegrees>-1.88605452887713909149169921875</LongitudeDegrees>
            </Position>
            <AltitudeMeters>20.799999237060546875</AltitudeMeters>
            <DistanceMeters>NAN</DistanceMeters>
          </Trackpoint>
          <Trackpoint>
            <Time>2021-08-11T14:58:09.000Z</Time>
            <Position>
              <LatitudeDegrees>43.3053684420883655548095703125</LatitudeDegrees>
              <LongitudeDegrees>-1.88605100847780704498291015625</LongitudeDegrees>
            </Position>
            <AltitudeMeters>20.799999237060546875</AltitudeMeters>
            <DistanceMeters>NAN</DistanceMeters>
          </Trackpoint>
          <Trackpoint>
            <Time>2021-08-11T14:58:11.000Z</Time>
            <Position>
              <LatitudeDegrees>43.30543977208435535430908203125</LatitudeDegrees>
              <LongitudeDegrees>-1.88603826798498630523681640625</LongitudeDegrees>
            </Position>
            <AltitudeMeters>20.6000003814697265625</AltitudeMeters>
            <DistanceMeters>NAN</DistanceMeters>
          </Trackpoint>
          <Trackpoint>
            <Time>2021-08-11T14:58:12.000Z</Time>
            <Position>
              <LatitudeDegrees>43.30547095276415348052978515625</LatitudeDegrees>
              <LongitudeDegrees>-1.8860346637666225433349609375</LongitudeDegrees>
            </Position>
            <AltitudeMeters>20.6000003814697265625</AltitudeMeters>
            <DistanceMeters>NAN</DistanceMeters>
          </Trackpoint>
          <Trackpoint>
            <Time>2021-08-11T14:58:13.000Z</Time>
            <Position>
              <LatitudeDegrees>43.305494673550128936767578125</LatitudeDegrees>
              <LongitudeDegrees>-1.8860328197479248046875</LongitudeDegrees>
            </Position>
            <AltitudeMeters>20.6000003814697265625</AltitudeMeters>
            <DistanceMeters>NAN</DistanceMeters>
          </Trackpoint>
          <Trackpoint>
            <Time>2021-08-11T14:58:14.000Z</Time>
            <Position>
              <LatitudeDegrees>43.30552375875413417816162109375</LatitudeDegrees>
              <LongitudeDegrees>-1.88602820970118045806884765625</LongitudeDegrees>
            </Position>
            <AltitudeMeters>20.6000003814697265625</AltitudeMeters>
            <DistanceMeters>NAN</DistanceMeters>
          </Trackpoint>
          <Trackpoint>
            <Time>2021-08-11T14:58:15.000Z</Time>
            <Position>
              <LatitudeDegrees>43.30555577762424945831298828125</LatitudeDegrees>
              <LongitudeDegrees>-1.88601815141737461090087890625</LongitudeDegrees>
            </Position>
            <AltitudeMeters>20.6000003814697265625</AltitudeMeters>
            <DistanceMeters>NAN</DistanceMeters>
          </Trackpoint>
          <Trackpoint>
            <Time>2021-08-11T14:58:16.000Z</Time>
            <Position>
              <LatitudeDegrees>43.3055801689624786376953125</LatitudeDegrees>
              <LongitudeDegrees>-1.88600591383874416351318359375</LongitudeDegrees>
            </Position>
            <AltitudeMeters>20.6000003814697265625</AltitudeMeters>
            <DistanceMeters>NAN</DistanceMeters>
          </Trackpoint>
          <Trackpoint>
            <Time>2021-08-11T14:58:18.000Z</Time>
            <Position>
              <LatitudeDegrees>43.30562232993543148040771484375</LatitudeDegrees>
              <LongitudeDegrees>-1.88598311506211757659912109375</LongitudeDegrees>
            </Position>
            <AltitudeMeters>20.6000003814697265625</AltitudeMeters>
            <DistanceMeters>NAN</DistanceMeters>
          </Trackpoint>
          <Trackpoint>
            <Time>2021-08-11T14:58:19.000Z</Time>
            <Position>
              <LatitudeDegrees>43.30564563162624835968017578125</LatitudeDegrees>
              <LongitudeDegrees>-1.885972134768962860107421875</LongitudeDegrees>
            </Position>
            <AltitudeMeters>20.6000003814697265625</AltitudeMeters>
            <DistanceMeters>NAN</DistanceMeters>
          </Trackpoint>
          <Trackpoint>
            <Time>2021-08-11T14:58:20.000Z</Time>
            <Position>
              <LatitudeDegrees>43.3056725375354290008544921875</LatitudeDegrees>
              <LongitudeDegrees>-1.88596115447580814361572265625</LongitudeDegrees>
            </Position>
            <AltitudeMeters>20.6000003814697265625</AltitudeMeters>
            <DistanceMeters>NAN</DistanceMeters>
          </Trackpoint>
          <Trackpoint>
            <Time>2021-08-11T14:58:21.000Z</Time>
            <Position>
              <LatitudeDegrees>43.30569106154143810272216796875</LatitudeDegrees>
              <LongitudeDegrees>-1.88594690524041652679443359375</LongitudeDegrees>
            </Position>
            <AltitudeMeters>20.6000003814697265625</AltitudeMeters>
            <DistanceMeters>NAN</DistanceMeters>
          </Trackpoint>
          <Trackpoint>
            <Time>2021-08-11T14:58:22.000Z</Time>
            <Position>
              <LatitudeDegrees>43.3057047240436077117919921875</LatitudeDegrees>
              <LongitudeDegrees>-1.88593064434826374053955078125</LongitudeDegrees>
            </Position>
            <AltitudeMeters>20.6000003814697265625</AltitudeMeters>
            <DistanceMeters>NAN</DistanceMeters>
          </Trackpoint>
          <Trackpoint>
            <Time>2021-08-11T14:58:23.000Z</Time>
            <Position>
              <LatitudeDegrees>43.305725343525409698486328125</LatitudeDegrees>
              <LongitudeDegrees>-1.885907761752605438232421875</LongitudeDegrees>
            </Position>
            <AltitudeMeters>20.6000003814697265625</AltitudeMeters>
            <DistanceMeters>NAN</DistanceMeters>
          </Trackpoint>
          <Trackpoint>
            <Time>2021-08-11T14:58:24.000Z</Time>
            <Position>
              <LatitudeDegrees>43.30575023777782917022705078125</LatitudeDegrees>
              <LongitudeDegrees>-1.8858878128230571746826171875</LongitudeDegrees>
            </Position>
            <AltitudeMeters>20.6000003814697265625</AltitudeMeters>
            <DistanceMeters>NAN</DistanceMeters>
          </Trackpoint>
          <Trackpoint>
            <Time>2021-08-11T14:58:27.000Z</Time>
            <Position>
              <LatitudeDegrees>43.30583355389535427093505859375</LatitudeDegrees>
              <LongitudeDegrees>-1.88581757247447967529296875</LongitudeDegrees>
            </Position>
            <AltitudeMeters>20.6000003814697265625</AltitudeMeters>
            <DistanceMeters>NAN</DistanceMeters>
          </Trackpoint>
          <Trackpoint>
            <Time>2021-08-11T14:58:29.000Z</Time>
            <Position>
              <LatitudeDegrees>43.3058830909430980682373046875</LatitudeDegrees>
              <LongitudeDegrees>-1.8857701309025287628173828125</LongitudeDegrees>
            </Position>
            <AltitudeMeters>20.799999237060546875</AltitudeMeters>
            <DistanceMeters>NAN</DistanceMeters>
          </Trackpoint>
          <Trackpoint>
            <Time>2021-08-11T14:58:32.000Z</Time>
            <Position>
              <LatitudeDegrees>43.3059675805270671844482421875</LatitudeDegrees>
              <LongitudeDegrees>-1.885697878897190093994140625</LongitudeDegrees>
            </Position>
            <AltitudeMeters>20.799999237060546875</AltitudeMeters>
            <DistanceMeters>NAN</DistanceMeters>
          </Trackpoint>
          <Trackpoint>
            <Time>2021-08-11T14:58:33.000Z</Time>
            <Position>
              <LatitudeDegrees>43.30598677508533000946044921875</LatitudeDegrees>
              <LongitudeDegrees>-1.8856782652437686920166015625</LongitudeDegrees>
            </Position>
            <AltitudeMeters>20.799999237060546875</AltitudeMeters>
            <DistanceMeters>NAN</DistanceMeters>
          </Trackpoint>
          <Trackpoint>
            <Time>2021-08-11T14:58:34.000Z</Time>
            <Position>
              <LatitudeDegrees>43.30600219778716564178466796875</LatitudeDegrees>
              <LongitudeDegrees>-1.88566326163709163665771484375</LongitudeDegrees>
            </Position>
            <AltitudeMeters>20.799999237060546875</AltitudeMeters>
            <DistanceMeters>NAN</DistanceMeters>
          </Trackpoint>
          <Trackpoint>
            <Time>2021-08-11T14:58:35.000Z</Time>
            <Position>
              <LatitudeDegrees>43.30602097325026988983154296875</LatitudeDegrees>
              <LongitudeDegrees>-1.88564700074493885040283203125</LongitudeDegrees>
            </Position>
            <AltitudeMeters>20.799999237060546875</AltitudeMeters>
            <DistanceMeters>NAN</DistanceMeters>
          </Trackpoint>
          <Trackpoint>
            <Time>2021-08-11T14:58:36.000Z</Time>
            <Position>
              <LatitudeDegrees>43.3060423471033573150634765625</LatitudeDegrees>
              <LongitudeDegrees>-1.88562185503542423248291015625</LongitudeDegrees>
            </Position>
            <AltitudeMeters>20.799999237060546875</AltitudeMeters>
            <DistanceMeters>NAN</DistanceMeters>
          </Trackpoint>
          <Trackpoint>
            <Time>2021-08-11T14:58:38.000Z</Time>
            <Position>
              <LatitudeDegrees>43.3060738630592823028564453125</LatitudeDegrees>
              <LongitudeDegrees>-1.88556770794093608856201171875</LongitudeDegrees>
            </Position>
            <AltitudeMeters>20.799999237060546875</AltitudeMeters>
            <DistanceMeters>NAN</DistanceMeters>
          </Trackpoint>
          <Trackpoint>
            <Time>2021-08-11T14:58:40.000Z</Time>
            <Position>
              <LatitudeDegrees>43.30610143952071666717529296875</LatitudeDegrees>
              <LongitudeDegrees>-1.88552076928317546844482421875</LongitudeDegrees>
            </Position>
            <AltitudeMeters>21</AltitudeMeters>
            <DistanceMeters>NAN</DistanceMeters>
          </Trackpoint>
          <Trackpoint>
            <Time>2021-08-11T14:58:41.000Z</Time>
            <Position>
              <LatitudeDegrees>43.30611283890902996063232421875</LatitudeDegrees>
              <LongitudeDegrees>-1.8854935280978679656982421875</LongitudeDegrees>
            </Position>
            <AltitudeMeters>21</AltitudeMeters>
            <DistanceMeters>NAN</DistanceMeters>
          </Trackpoint>
          <Trackpoint>
            <Time>2021-08-11T14:58:42.000Z</Time>
            <Position>
              <LatitudeDegrees>43.3061191253364086151123046875</LatitudeDegrees>
              <LongitudeDegrees>-1.88547668047249317169189453125</LongitudeDegrees>
            </Position>
            <AltitudeMeters>21</AltitudeMeters>
            <DistanceMeters>NAN</DistanceMeters>
          </Trackpoint>
          <Trackpoint>
            <Time>2021-08-11T14:58:43.000Z</Time>
            <Position>
              <LatitudeDegrees>43.30613178201019763946533203125</LatitudeDegrees>
              <LongitudeDegrees>-1.88545103184878826141357421875</LongitudeDegrees>
            </Position>
            <AltitudeMeters>21</AltitudeMeters>
            <DistanceMeters>NAN</DistanceMeters>
          </Trackpoint>
          <Trackpoint>
            <Time>2021-08-11T14:58:44.000Z</Time>
            <Position>
              <LatitudeDegrees>43.30614267848432064056396484375</LatitudeDegrees>
              <LongitudeDegrees>-1.88543141819536685943603515625</LongitudeDegrees>
            </Position>
            <AltitudeMeters>21</AltitudeMeters>
            <DistanceMeters>NAN</DistanceMeters>
          </Trackpoint>
          <Trackpoint>
            <Time>2021-08-11T14:58:45.000Z</Time>
            <Position>
              <LatitudeDegrees>43.306158520281314849853515625</LatitudeDegrees>
              <LongitudeDegrees>-1.8854080326855182647705078125</LongitudeDegrees>
            </Position>
            <AltitudeMeters>21</AltitudeMeters>
            <DistanceMeters>NAN</DistanceMeters>
          </Trackpoint>
          <Trackpoint>
            <Time>2021-08-11T14:58:46.000Z</Time>
            <Position>
              <LatitudeDegrees>43.3061720989644527435302734375</LatitudeDegrees>
              <LongitudeDegrees>-1.88537877984344959259033203125</LongitudeDegrees>
            </Position>
            <AltitudeMeters>21.200000762939453125</AltitudeMeters>
            <DistanceMeters>NAN</DistanceMeters>
          </Trackpoint>
          <Trackpoint>
            <Time>2021-08-11T14:58:48.000Z</Time>
            <Position>
              <LatitudeDegrees>43.3061818219721317291259765625</LatitudeDegrees>
              <LongitudeDegrees>-1.88533368520438671112060546875</LongitudeDegrees>
            </Position>
            <AltitudeMeters>21.200000762939453125</AltitudeMeters>
            <DistanceMeters>NAN</DistanceMeters>
          </Trackpoint>
          <Trackpoint>
            <Time>2021-08-11T14:58:49.000Z</Time>
            <Position>
              <LatitudeDegrees>43.3061777986586093902587890625</LatitudeDegrees>
              <LongitudeDegrees>-1.885321699082851409912109375</LongitudeDegrees>
            </Position>
            <AltitudeMeters>21.200000762939453125</AltitudeMeters>
            <DistanceMeters>NAN</DistanceMeters>
          </Trackpoint>
          <Trackpoint>
            <Time>2021-08-11T14:58:50.000Z</Time>
            <Position>
              <LatitudeDegrees>43.30617251805961132049560546875</LatitudeDegrees>
              <LongitudeDegrees>-1.8853128142654895782470703125</LongitudeDegrees>
            </Position>
            <AltitudeMeters>21.200000762939453125</AltitudeMeters>
            <DistanceMeters>NAN</DistanceMeters>
          </Trackpoint>
          <Trackpoint>
            <Time>2021-08-11T14:58:54.000Z</Time>
            <Position>
              <LatitudeDegrees>43.30617167986929416656494140625</LatitudeDegrees>
              <LongitudeDegrees>-1.88530636020004749298095703125</LongitudeDegrees>
            </Position>
            <AltitudeMeters>21.200000762939453125</AltitudeMeters>
            <DistanceMeters>NAN</DistanceMeters>
          </Trackpoint>
          <Trackpoint>
            <Time>2021-08-11T14:59:00.000Z</Time>
            <Position>
              <LatitudeDegrees>43.3061895333230495452880859375</LatitudeDegrees>
              <LongitudeDegrees>-1.88530929386615753173828125</LongitudeDegrees>
            </Position>
            <AltitudeMeters>21.200000762939453125</AltitudeMeters>
            <DistanceMeters>NAN</DistanceMeters>
          </Trackpoint>
          <Trackpoint>
            <Time>2021-08-11T14:59:03.000Z</Time>
            <Position>
              <LatitudeDegrees>43.306245021522045135498046875</LatitudeDegrees>
              <LongitudeDegrees>-1.8853232078254222869873046875</LongitudeDegrees>
            </Position>
            <AltitudeMeters>21.200000762939453125</AltitudeMeters>
            <DistanceMeters>NAN</DistanceMeters>
          </Trackpoint>
          <Trackpoint>
            <Time>2021-08-11T14:59:06.000Z</Time>
            <Position>
              <LatitudeDegrees>43.30631442368030548095703125</LatitudeDegrees>
              <LongitudeDegrees>-1.88532295636832714080810546875</LongitudeDegrees>
            </Position>
            <AltitudeMeters>21.200000762939453125</AltitudeMeters>
            <DistanceMeters>NAN</DistanceMeters>
          </Trackpoint>
          <Trackpoint>
            <Time>2021-08-11T14:59:07.000Z</Time>
            <Position>
              <LatitudeDegrees>43.30633646808564662933349609375</LatitudeDegrees>
              <LongitudeDegrees>-1.88532630912959575653076171875</LongitudeDegrees>
            </Position>
            <AltitudeMeters>21.200000762939453125</AltitudeMeters>
            <DistanceMeters>NAN</DistanceMeters>
          </Trackpoint>
          <Trackpoint>
            <Time>2021-08-11T14:59:08.000Z</Time>
            <Position>
              <LatitudeDegrees>43.3063585124909877777099609375</LatitudeDegrees>
              <LongitudeDegrees>-1.88533217646181583404541015625</LongitudeDegrees>
            </Position>
            <AltitudeMeters>21.200000762939453125</AltitudeMeters>
            <DistanceMeters>NAN</DistanceMeters>
          </Trackpoint>
          <Trackpoint>
            <Time>2021-08-11T14:59:09.000Z</Time>
            <Position>
              <LatitudeDegrees>43.30638307146728038787841796875</LatitudeDegrees>
              <LongitudeDegrees>-1.88533150590956211090087890625</LongitudeDegrees>
            </Position>
            <AltitudeMeters>21.200000762939453125</AltitudeMeters>
            <DistanceMeters>NAN</DistanceMeters>
          </Trackpoint>
          <Trackpoint>
            <Time>2021-08-11T14:59:15.000Z</Time>
            <Position>
              <LatitudeDegrees>43.30650745891034603118896484375</LatitudeDegrees>
              <LongitudeDegrees>-1.8853403069078922271728515625</LongitudeDegrees>
            </Position>
            <AltitudeMeters>21.200000762939453125</AltitudeMeters>
            <DistanceMeters>NAN</DistanceMeters>
          </Trackpoint>
          <Trackpoint>
            <Time>2021-08-11T14:59:16.000Z</Time>
            <Position>
              <LatitudeDegrees>43.30653076060116291046142578125</LatitudeDegrees>
              <LongitudeDegrees>-1.8853171728551387786865234375</LongitudeDegrees>
            </Position>
            <AltitudeMeters>21.200000762939453125</AltitudeMeters>
            <DistanceMeters>NAN</DistanceMeters>
          </Trackpoint>
          <Trackpoint>
            <Time>2021-08-11T14:59:19.000Z</Time>
            <Position>
              <LatitudeDegrees>43.30660468898713588714599609375</LatitudeDegrees>
              <LongitudeDegrees>-1.88519974239170551300048828125</LongitudeDegrees>
            </Position>
            <AltitudeMeters>21.200000762939453125</AltitudeMeters>
            <DistanceMeters>NAN</DistanceMeters>
          </Trackpoint>
          <Trackpoint>
            <Time>2021-08-11T14:59:20.000Z</Time>
            <Position>
              <LatitudeDegrees>43.30662153661251068115234375</LatitudeDegrees>
              <LongitudeDegrees>-1.88516872934997081756591796875</LongitudeDegrees>
            </Position>
            <AltitudeMeters>21.200000762939453125</AltitudeMeters>
            <DistanceMeters>NAN</DistanceMeters>
          </Trackpoint>
          <Trackpoint>
            <Time>2021-08-11T14:59:21.000Z</Time>
            <Position>
              <LatitudeDegrees>43.3066532202064990997314453125</LatitudeDegrees>
              <LongitudeDegrees>-1.88511860556900501251220703125</LongitudeDegrees>
            </Position>
            <AltitudeMeters>21.200000762939453125</AltitudeMeters>
            <DistanceMeters>NAN</DistanceMeters>
          </Trackpoint>
          <Trackpoint>
            <Time>2021-08-11T14:59:23.000Z</Time>
            <Position>
              <LatitudeDegrees>43.306688927114009857177734375</LatitudeDegrees>
              <LongitudeDegrees>-1.8850395642220973968505859375</LongitudeDegrees>
            </Position>
            <AltitudeMeters>21</AltitudeMeters>
            <DistanceMeters>NAN</DistanceMeters>
          </Trackpoint>
          <Trackpoint>
            <Time>2021-08-11T14:59:24.000Z</Time>
            <Position>
              <LatitudeDegrees>43.306715078651905059814453125</LatitudeDegrees>
              <LongitudeDegrees>-1.8850033544003963470458984375</LongitudeDegrees>
            </Position>
            <AltitudeMeters>21</AltitudeMeters>
            <DistanceMeters>NAN</DistanceMeters>
          </Trackpoint>
          <Trackpoint>
            <Time>2021-08-11T14:59:25.000Z</Time>
            <Position>
              <LatitudeDegrees>43.30674869008362293243408203125</LatitudeDegrees>
              <LongitudeDegrees>-1.8849644623696804046630859375</LongitudeDegrees>
            </Position>
            <AltitudeMeters>20.799999237060546875</AltitudeMeters>
            <DistanceMeters>NAN</DistanceMeters>
          </Trackpoint>
          <Trackpoint>
            <Time>2021-08-11T14:59:26.000Z</Time>
            <Position>
              <LatitudeDegrees>43.3067846484482288360595703125</LatitudeDegrees>
              <LongitudeDegrees>-1.884917356073856353759765625</LongitudeDegrees>
            </Position>
            <AltitudeMeters>20.799999237060546875</AltitudeMeters>
            <DistanceMeters>NAN</DistanceMeters>
          </Trackpoint>
          <Trackpoint>
            <Time>2021-08-11T14:59:29.000Z</Time>
            <Position>
              <LatitudeDegrees>43.30687039531767368316650390625</LatitudeDegrees>
              <LongitudeDegrees>-1.884850971400737762451171875</LongitudeDegrees>
            </Position>
            <AltitudeMeters>20.3999996185302734375</AltitudeMeters>
            <DistanceMeters>NAN</DistanceMeters>
          </Trackpoint>
          <Trackpoint>
            <Time>2021-08-11T14:59:30.000Z</Time>
            <Position>
              <LatitudeDegrees>43.30690727569162845611572265625</LatitudeDegrees>
              <LongitudeDegrees>-1.88484217040240764617919921875</LongitudeDegrees>
            </Position>
            <AltitudeMeters>20.3999996185302734375</AltitudeMeters>
            <DistanceMeters>NAN</DistanceMeters>
          </Trackpoint>
          <Trackpoint>
            <Time>2021-08-11T14:59:31.000Z</Time>
            <Position>
              <LatitudeDegrees>43.30695941112935543060302734375</LatitudeDegrees>
              <LongitudeDegrees>-1.8848102353513240814208984375</LongitudeDegrees>
            </Position>
            <AltitudeMeters>20.3999996185302734375</AltitudeMeters>
            <DistanceMeters>NAN</DistanceMeters>
          </Trackpoint>
          <Trackpoint>
            <Time>2021-08-11T14:59:32.000Z</Time>
            <Position>
              <LatitudeDegrees>43.306993357837200164794921875</LatitudeDegrees>
              <LongitudeDegrees>-1.88479104079306125640869140625</LongitudeDegrees>
            </Position>
            <AltitudeMeters>20.200000762939453125</AltitudeMeters>
            <DistanceMeters>NAN</DistanceMeters>
          </Trackpoint>
          <Trackpoint>
            <Time>2021-08-11T14:59:33.000Z</Time>
            <Position>
              <LatitudeDegrees>43.3070166595280170440673828125</LatitudeDegrees>
              <LongitudeDegrees>-1.88477662391960620880126953125</LongitudeDegrees>
            </Position>
            <AltitudeMeters>20.200000762939453125</AltitudeMeters>
            <DistanceMeters>NAN</DistanceMeters>
          </Trackpoint>
          <Trackpoint>
            <Time>2021-08-11T14:59:34.000Z</Time>
            <Position>
              <LatitudeDegrees>43.30703803338110446929931640625</LatitudeDegrees>
              <LongitudeDegrees>-1.88476237468421459197998046875</LongitudeDegrees>
            </Position>
            <AltitudeMeters>20.200000762939453125</AltitudeMeters>
            <DistanceMeters>NAN</DistanceMeters>
          </Trackpoint>
          <Trackpoint>
            <Time>2021-08-11T14:59:35.000Z</Time>
            <Position>
              <LatitudeDegrees>43.3070706389844417572021484375</LatitudeDegrees>
              <LongitudeDegrees>-1.884747035801410675048828125</LongitudeDegrees>
            </Position>
            <AltitudeMeters>20.200000762939453125</AltitudeMeters>
            <DistanceMeters>NAN</DistanceMeters>
          </Trackpoint>
          <Trackpoint>
            <Time>2021-08-11T14:59:36.000Z</Time>
            <Position>
              <LatitudeDegrees>43.30709553323686122894287109375</LatitudeDegrees>
              <LongitudeDegrees>-1.8847374804317951202392578125</LongitudeDegrees>
            </Position>
            <AltitudeMeters>20.200000762939453125</AltitudeMeters>
            <DistanceMeters>NAN</DistanceMeters>
          </Trackpoint>
          <Trackpoint>
            <Time>2021-08-11T14:59:37.000Z</Time>
            <Position>
              <LatitudeDegrees>43.3071128837764263153076171875</LatitudeDegrees>
              <LongitudeDegrees>-1.88473404385149478912353515625</LongitudeDegrees>
            </Position>
            <AltitudeMeters>20.200000762939453125</AltitudeMeters>
            <DistanceMeters>NAN</DistanceMeters>
          </Trackpoint>
          <Trackpoint>
            <Time>2021-08-11T14:59:38.000Z</Time>
            <Position>
              <LatitudeDegrees>43.3071433939039707183837890625</LatitudeDegrees>
              <LongitudeDegrees>-1.8847361393272876739501953125</LongitudeDegrees>
            </Position>
            <AltitudeMeters>20.200000762939453125</AltitudeMeters>
            <DistanceMeters>NAN</DistanceMeters>
          </Trackpoint>
          <Trackpoint>
            <Time>2021-08-11T14:59:39.000Z</Time>
            <Position>
              <LatitudeDegrees>43.30716560594737529754638671875</LatitudeDegrees>
              <LongitudeDegrees>-1.8847126699984073638916015625</LongitudeDegrees>
            </Position>
            <AltitudeMeters>20.200000762939453125</AltitudeMeters>
            <DistanceMeters>NAN</DistanceMeters>
          </Trackpoint>
          <Trackpoint>
            <Time>2021-08-11T14:59:41.000Z</Time>
            <Position>
              <LatitudeDegrees>43.30721472389996051788330078125</LatitudeDegrees>
              <LongitudeDegrees>-1.8846831656992435455322265625</LongitudeDegrees>
            </Position>
            <AltitudeMeters>20.200000762939453125</AltitudeMeters>
            <DistanceMeters>NAN</DistanceMeters>
          </Trackpoint>
          <Trackpoint>
            <Time>2021-08-11T14:59:43.000Z</Time>
            <Position>
              <LatitudeDegrees>43.3072270452976226806640625</LatitudeDegrees>
              <LongitudeDegrees>-1.8846721015870571136474609375</LongitudeDegrees>
            </Position>
            <AltitudeMeters>20.200000762939453125</AltitudeMeters>
            <DistanceMeters>NAN</DistanceMeters>
          </Trackpoint>
          <Trackpoint>
            <Time>2021-08-11T14:59:44.000Z</Time>
            <Position>
              <LatitudeDegrees>43.30722930841147899627685546875</LatitudeDegrees>
              <LongitudeDegrees>-1.88467101193964481353759765625</LongitudeDegrees>
            </Position>
            <AltitudeMeters>20.200000762939453125</AltitudeMeters>
            <DistanceMeters>NAN</DistanceMeters>
          </Trackpoint>
          <Trackpoint>
            <Time>2021-08-11T14:59:45.000Z</Time>
            <Position>
              <LatitudeDegrees>43.30722930841147899627685546875</LatitudeDegrees>
              <LongitudeDegrees>-1.88467101193964481353759765625</LongitudeDegrees>
            </Position>
            <AltitudeMeters>20.3999996185302734375</AltitudeMeters>
            <DistanceMeters>NAN</DistanceMeters>
          </Trackpoint>
          <Trackpoint>
            <Time>2021-08-11T14:59:46.000Z</Time>
            <Position>
              <LatitudeDegrees>43.30723634921014308929443359375</LatitudeDegrees>
              <LongitudeDegrees>-1.88466078601777553558349609375</LongitudeDegrees>
            </Position>
            <AltitudeMeters>20.3999996185302734375</AltitudeMeters>
            <DistanceMeters>NAN</DistanceMeters>
          </Trackpoint>
          <Trackpoint>
            <Time>2021-08-11T14:59:47.000Z</Time>
            <Position>
              <LatitudeDegrees>43.30724875442683696746826171875</LatitudeDegrees>
              <LongitudeDegrees>-1.884650476276874542236328125</LongitudeDegrees>
            </Position>
            <AltitudeMeters>20.3999996185302734375</AltitudeMeters>
            <DistanceMeters>NAN</DistanceMeters>
          </Trackpoint>
          <Trackpoint>
            <Time>2021-08-11T14:59:48.000Z</Time>
            <Position>
              <LatitudeDegrees>43.30726803280413150787353515625</LatitudeDegrees>
              <LongitudeDegrees>-1.88464117236435413360595703125</LongitudeDegrees>
            </Position>
            <AltitudeMeters>20.200000762939453125</AltitudeMeters>
            <DistanceMeters>NAN</DistanceMeters>
          </Trackpoint>
          <Trackpoint>
            <Time>2021-08-11T14:59:52.000Z</Time>
            <Position>
              <LatitudeDegrees>43.30727205611765384674072265625</LatitudeDegrees>
              <LongitudeDegrees>-1.88463664613664150238037109375</LongitudeDegrees>
            </Position>
            <AltitudeMeters>20.200000762939453125</AltitudeMeters>
            <DistanceMeters>NAN</DistanceMeters>
          </Trackpoint>
          <Trackpoint>
            <Time>2021-08-11T15:00:00.000Z</Time>
            <Position>
              <LatitudeDegrees>43.30727205611765384674072265625</LatitudeDegrees>
              <LongitudeDegrees>-1.88463664613664150238037109375</LongitudeDegrees>
            </Position>
            <AltitudeMeters>20.200000762939453125</AltitudeMeters>
            <DistanceMeters>NAN</DistanceMeters>
          </Trackpoint>
          <Trackpoint>
            <Time>2021-08-11T15:00:04.000Z</Time>
            <Position>
              <LatitudeDegrees>43.3072741515934467315673828125</LatitudeDegrees>
              <LongitudeDegrees>-1.884635724127292633056640625</LongitudeDegrees>
            </Position>
            <AltitudeMeters>20</AltitudeMeters>
            <DistanceMeters>NAN</DistanceMeters>
          </Trackpoint>
          <Trackpoint>
            <Time>2021-08-11T15:00:06.000Z</Time>
            <Position>
              <LatitudeDegrees>43.30730994231998920440673828125</LatitudeDegrees>
              <LongitudeDegrees>-1.8846211396157741546630859375</LongitudeDegrees>
            </Position>
            <AltitudeMeters>20</AltitudeMeters>
            <DistanceMeters>NAN</DistanceMeters>
          </Trackpoint>
          <Trackpoint>
            <Time>2021-08-11T15:00:09.000Z</Time>
            <Position>
              <LatitudeDegrees>43.3073676936328411102294921875</LatitudeDegrees>
              <LongitudeDegrees>-1.88461166806519031524658203125</LongitudeDegrees>
            </Position>
            <AltitudeMeters>20</AltitudeMeters>
            <DistanceMeters>NAN</DistanceMeters>
          </Trackpoint>
          <Trackpoint>
            <Time>2021-08-11T15:00:10.000Z</Time>
            <Position>
              <LatitudeDegrees>43.3073854632675647735595703125</LatitudeDegrees>
              <LongitudeDegrees>-1.88462130725383758544921875</LongitudeDegrees>
            </Position>
            <AltitudeMeters>20</AltitudeMeters>
            <DistanceMeters>NAN</DistanceMeters>
          </Trackpoint>
          <Trackpoint>
            <Time>2021-08-11T15:00:11.000Z</Time>
            <Position>
              <LatitudeDegrees>43.307409770786762237548828125</LatitudeDegrees>
              <LongitudeDegrees>-1.88463161699473857879638671875</LongitudeDegrees>
            </Position>
            <AltitudeMeters>19.799999237060546875</AltitudeMeters>
            <DistanceMeters>NAN</DistanceMeters>
          </Trackpoint>
          <Trackpoint>
            <Time>2021-08-11T15:00:12.000Z</Time>
            <Position>
              <LatitudeDegrees>43.30742930062115192413330078125</LatitudeDegrees>
              <LongitudeDegrees>-1.88462122343480587005615234375</LongitudeDegrees>
            </Position>
            <AltitudeMeters>19.799999237060546875</AltitudeMeters>
            <DistanceMeters>NAN</DistanceMeters>
          </Trackpoint>
          <Trackpoint>
            <Time>2021-08-11T15:00:13.000Z</Time>
            <Position>
              <LatitudeDegrees>43.30743349157273769378662109375</LatitudeDegrees>
              <LongitudeDegrees>-1.8846191279590129852294921875</LongitudeDegrees>
            </Position>
            <AltitudeMeters>19.6000003814697265625</AltitudeMeters>
            <DistanceMeters>NAN</DistanceMeters>
          </Trackpoint>
          <Trackpoint>
            <Time>2021-08-11T15:00:14.000Z</Time>
            <Position>
              <LatitudeDegrees>43.307462073862552642822265625</LatitudeDegrees>
              <LongitudeDegrees>-1.8846127577126026153564453125</LongitudeDegrees>
            </Position>
            <AltitudeMeters>19.6000003814697265625</AltitudeMeters>
            <DistanceMeters>NAN</DistanceMeters>
          </Trackpoint>
          <Trackpoint>
            <Time>2021-08-11T15:00:15.000Z</Time>
            <Position>
              <LatitudeDegrees>43.30746668390929698944091796875</LatitudeDegrees>
              <LongitudeDegrees>-1.884612925350666046142578125</LongitudeDegrees>
            </Position>
            <AltitudeMeters>19.3999996185302734375</AltitudeMeters>
            <DistanceMeters>NAN</DistanceMeters>
          </Trackpoint>
          <Trackpoint>
            <Time>2021-08-11T15:00:16.000Z</Time>
            <Position>
              <LatitudeDegrees>43.30746668390929698944091796875</LatitudeDegrees>
              <LongitudeDegrees>-1.884612925350666046142578125</LongitudeDegrees>
            </Position>
            <AltitudeMeters>19.3999996185302734375</AltitudeMeters>
            <DistanceMeters>NAN</DistanceMeters>
          </Trackpoint>
          <Trackpoint>
            <Time>2021-08-11T15:00:17.000Z</Time>
            <Position>
              <LatitudeDegrees>43.30748478882014751434326171875</LatitudeDegrees>
              <LongitudeDegrees>-1.88461300916969776153564453125</LongitudeDegrees>
            </Position>
            <AltitudeMeters>19.200000762939453125</AltitudeMeters>
            <DistanceMeters>NAN</DistanceMeters>
          </Trackpoint>
          <Trackpoint>
            <Time>2021-08-11T15:00:18.000Z</Time>
            <Position>
              <LatitudeDegrees>43.3075034804642200469970703125</LatitudeDegrees>
              <LongitudeDegrees>-1.8846124224364757537841796875</LongitudeDegrees>
            </Position>
            <AltitudeMeters>19</AltitudeMeters>
            <DistanceMeters>NAN</DistanceMeters>
          </Trackpoint>
          <Trackpoint>
            <Time>2021-08-11T15:00:21.000Z</Time>
            <Position>
              <LatitudeDegrees>43.30754220485687255859375</LatitudeDegrees>
              <LongitudeDegrees>-1.8846003524959087371826171875</LongitudeDegrees>
            </Position>
            <AltitudeMeters>18.799999237060546875</AltitudeMeters>
            <DistanceMeters>NAN</DistanceMeters>
          </Trackpoint>
          <Trackpoint>
            <Time>2021-08-11T15:00:22.000Z</Time>
            <Position>
              <LatitudeDegrees>43.307565338909626007080078125</LatitudeDegrees>
              <LongitudeDegrees>-1.8845884501934051513671875</LongitudeDegrees>
            </Position>
            <AltitudeMeters>18.799999237060546875</AltitudeMeters>
            <DistanceMeters>NAN</DistanceMeters>
          </Trackpoint>
          <Trackpoint>
            <Time>2021-08-11T15:00:23.000Z</Time>
            <Position>
              <LatitudeDegrees>43.30761956982314586639404296875</LatitudeDegrees>
              <LongitudeDegrees>-1.88457679934799671173095703125</LongitudeDegrees>
            </Position>
            <AltitudeMeters>18.799999237060546875</AltitudeMeters>
            <DistanceMeters>NAN</DistanceMeters>
          </Trackpoint>
          <Trackpoint>
            <Time>2021-08-11T15:00:25.000Z</Time>
            <Position>
              <LatitudeDegrees>43.30765343271195888519287109375</LatitudeDegrees>
              <LongitudeDegrees>-1.88457948155701160430908203125</LongitudeDegrees>
            </Position>
            <AltitudeMeters>18.799999237060546875</AltitudeMeters>
            <DistanceMeters>NAN</DistanceMeters>
          </Trackpoint>
          <Trackpoint>
            <Time>2021-08-11T15:00:26.000Z</Time>
            <Position>
              <LatitudeDegrees>43.3076691068708896636962890625</LatitudeDegrees>
              <LongitudeDegrees>-1.8845728598535060882568359375</LongitudeDegrees>
            </Position>
            <AltitudeMeters>18.799999237060546875</AltitudeMeters>
            <DistanceMeters>NAN</DistanceMeters>
          </Trackpoint>
          <Trackpoint>
            <Time>2021-08-11T15:00:28.000Z</Time>
            <Position>
              <LatitudeDegrees>43.307701461017131805419921875</LatitudeDegrees>
              <LongitudeDegrees>-1.88458803109824657440185546875</LongitudeDegrees>
            </Position>
            <AltitudeMeters>18.6000003814697265625</AltitudeMeters>
            <DistanceMeters>NAN</DistanceMeters>
          </Trackpoint>
          <Trackpoint>
            <Time>2021-08-11T15:00:29.000Z</Time>
            <Position>
              <LatitudeDegrees>43.3077073283493518829345703125</LatitudeDegrees>
              <LongitudeDegrees>-1.8845953233540058135986328125</LongitudeDegrees>
            </Position>
            <AltitudeMeters>18.6000003814697265625</AltitudeMeters>
            <DistanceMeters>NAN</DistanceMeters>
          </Trackpoint>
          <Trackpoint>
            <Time>2021-08-11T15:00:30.000Z</Time>
            <Position>
              <LatitudeDegrees>43.307722918689250946044921875</LatitudeDegrees>
              <LongitudeDegrees>-1.884603537619113922119140625</LongitudeDegrees>
            </Position>
            <AltitudeMeters>18.6000003814697265625</AltitudeMeters>
            <DistanceMeters>NAN</DistanceMeters>
          </Trackpoint>
          <Trackpoint>
            <Time>2021-08-11T15:00:32.000Z</Time>
            <Position>
              <LatitudeDegrees>43.30775870941579341888427734375</LatitudeDegrees>
              <LongitudeDegrees>-1.88460789620876312255859375</LongitudeDegrees>
            </Position>
            <AltitudeMeters>18.6000003814697265625</AltitudeMeters>
            <DistanceMeters>NAN</DistanceMeters>
          </Trackpoint>
          <Trackpoint>
            <Time>2021-08-11T15:00:33.000Z</Time>
            <Position>
              <LatitudeDegrees>43.30777815543115139007568359375</LatitudeDegrees>
              <LongitudeDegrees>-1.88460714183747768402099609375</LongitudeDegrees>
            </Position>
            <AltitudeMeters>18.6000003814697265625</AltitudeMeters>
            <DistanceMeters>NAN</DistanceMeters>
          </Trackpoint>
          <Trackpoint>
            <Time>2021-08-11T15:00:34.000Z</Time>
            <Position>
              <LatitudeDegrees>43.307791315019130706787109375</LatitudeDegrees>
              <LongitudeDegrees>-1.88460093922913074493408203125</LongitudeDegrees>
            </Position>
            <AltitudeMeters>18.6000003814697265625</AltitudeMeters>
            <DistanceMeters>NAN</DistanceMeters>
          </Trackpoint>
          <Trackpoint>
            <Time>2021-08-11T15:00:35.000Z</Time>
            <Position>
              <LatitudeDegrees>43.30781335942447185516357421875</LatitudeDegrees>
              <LongitudeDegrees>-1.88458518125116825103759765625</LongitudeDegrees>
            </Position>
            <AltitudeMeters>18.6000003814697265625</AltitudeMeters>
            <DistanceMeters>NAN</DistanceMeters>
          </Trackpoint>
          <Trackpoint>
            <Time>2021-08-11T15:00:36.000Z</Time>
            <Position>
              <LatitudeDegrees>43.30784101970493793487548828125</LatitudeDegrees>
              <LongitudeDegrees>-1.88456539995968341827392578125</LongitudeDegrees>
            </Position>
            <AltitudeMeters>18.6000003814697265625</AltitudeMeters>
            <DistanceMeters>NAN</DistanceMeters>
          </Trackpoint>
          <Trackpoint>
            <Time>2021-08-11T15:00:37.000Z</Time>
            <Position>
              <LatitudeDegrees>43.30786968581378459930419921875</LatitudeDegrees>
              <LongitudeDegrees>-1.88456875272095203399658203125</LongitudeDegrees>
            </Position>
            <AltitudeMeters>18.6000003814697265625</AltitudeMeters>
            <DistanceMeters>NAN</DistanceMeters>
          </Trackpoint>
          <Trackpoint>
            <Time>2021-08-11T15:00:41.000Z</Time>
            <Position>
              <LatitudeDegrees>43.30804084427654743194580078125</LatitudeDegrees>
              <LongitudeDegrees>-1.8845805712044239044189453125</LongitudeDegrees>
            </Position>
            <AltitudeMeters>19.200000762939453125</AltitudeMeters>
            <DistanceMeters>NAN</DistanceMeters>
          </Trackpoint>
          <Trackpoint>
            <Time>2021-08-11T15:00:43.000Z</Time>
            <Position>
              <LatitudeDegrees>43.3080928958952426910400390625</LatitudeDegrees>
              <LongitudeDegrees>-1.88459624536335468292236328125</LongitudeDegrees>
            </Position>
            <AltitudeMeters>19.200000762939453125</AltitudeMeters>
            <DistanceMeters>NAN</DistanceMeters>
          </Trackpoint>
          <Trackpoint>
            <Time>2021-08-11T15:00:44.000Z</Time>
            <Position>
              <LatitudeDegrees>43.30810504965484142303466796875</LatitudeDegrees>
              <LongitudeDegrees>-1.8846053816378116607666015625</LongitudeDegrees>
            </Position>
            <AltitudeMeters>19.3999996185302734375</AltitudeMeters>
            <DistanceMeters>NAN</DistanceMeters>
          </Trackpoint>
          <Trackpoint>
            <Time>2021-08-11T15:00:45.000Z</Time>
            <Position>
              <LatitudeDegrees>43.3081167005002498626708984375</LatitudeDegrees>
              <LongitudeDegrees>-1.88461820594966411590576171875</LongitudeDegrees>
            </Position>
            <AltitudeMeters>19.6000003814697265625</AltitudeMeters>
            <DistanceMeters>NAN</DistanceMeters>
          </Trackpoint>
          <Trackpoint>
            <Time>2021-08-11T15:00:46.000Z</Time>
            <Position>
              <LatitudeDegrees>43.308143354952335357666015625</LatitudeDegrees>
              <LongitudeDegrees>-1.88462424091994762420654296875</LongitudeDegrees>
            </Position>
            <AltitudeMeters>19.6000003814697265625</AltitudeMeters>
            <DistanceMeters>NAN</DistanceMeters>
          </Trackpoint>
          <Trackpoint>
            <Time>2021-08-11T15:00:47.000Z</Time>
            <Position>
              <LatitudeDegrees>43.3081619627773761749267578125</LatitudeDegrees>
              <LongitudeDegrees>-1.88462725840508937835693359375</LongitudeDegrees>
            </Position>
            <AltitudeMeters>19.6000003814697265625</AltitudeMeters>
            <DistanceMeters>NAN</DistanceMeters>
          </Trackpoint>
          <Trackpoint>
            <Time>2021-08-11T15:00:49.000Z</Time>
            <Position>
              <LatitudeDegrees>43.30821082927286624908447265625</LatitudeDegrees>
              <LongitudeDegrees>-1.8846355564892292022705078125</LongitudeDegrees>
            </Position>
            <AltitudeMeters>19.799999237060546875</AltitudeMeters>
            <DistanceMeters>NAN</DistanceMeters>
          </Trackpoint>
          <Trackpoint>
            <Time>2021-08-11T15:00:50.000Z</Time>
            <Position>
              <LatitudeDegrees>43.30822994001209735870361328125</LatitudeDegrees>
              <LongitudeDegrees>-1.8846328742802143096923828125</LongitudeDegrees>
            </Position>
            <AltitudeMeters>20</AltitudeMeters>
            <DistanceMeters>NAN</DistanceMeters>
          </Trackpoint>
          <Trackpoint>
            <Time>2021-08-11T15:00:56.000Z</Time>
            <Position>
              <LatitudeDegrees>43.30835147760808467864990234375</LatitudeDegrees>
              <LongitudeDegrees>-1.88466799445450305938720703125</LongitudeDegrees>
            </Position>
            <AltitudeMeters>20.200000762939453125</AltitudeMeters>
            <DistanceMeters>NAN</DistanceMeters>
          </Trackpoint>
          <Trackpoint>
            <Time>2021-08-11T15:00:57.000Z</Time>
            <Position>
              <LatitudeDegrees>43.30835835076868534088134765625</LatitudeDegrees>
              <LongitudeDegrees>-1.8846721015870571136474609375</LongitudeDegrees>
            </Position>
            <AltitudeMeters>20.200000762939453125</AltitudeMeters>
            <DistanceMeters>NAN</DistanceMeters>
          </Trackpoint>
          <Trackpoint>
            <Time>2021-08-11T15:00:58.000Z</Time>
            <Position>
              <LatitudeDegrees>43.30837578512728214263916015625</LatitudeDegrees>
              <LongitudeDegrees>-1.88468023203313350677490234375</LongitudeDegrees>
            </Position>
            <AltitudeMeters>20.200000762939453125</AltitudeMeters>
            <DistanceMeters>NAN</DistanceMeters>
          </Trackpoint>
          <Trackpoint>
            <Time>2021-08-11T15:00:59.000Z</Time>
            <Position>
              <LatitudeDegrees>43.30839472822844982147216796875</LatitudeDegrees>
              <LongitudeDegrees>-1.8846892006695270538330078125</LongitudeDegrees>
            </Position>
            <AltitudeMeters>20.200000762939453125</AltitudeMeters>
            <DistanceMeters>NAN</DistanceMeters>
          </Trackpoint>
          <Trackpoint>
            <Time>2021-08-11T15:01:00.000Z</Time>
            <Position>
              <LatitudeDegrees>43.30841685645282268524169921875</LatitudeDegrees>
              <LongitudeDegrees>-1.88468811102211475372314453125</LongitudeDegrees>
            </Position>
            <AltitudeMeters>20.200000762939453125</AltitudeMeters>
            <DistanceMeters>NAN</DistanceMeters>
          </Trackpoint>
          <Trackpoint>
            <Time>2021-08-11T15:01:01.000Z</Time>
            <Position>
              <LatitudeDegrees>43.3084368892014026641845703125</LatitudeDegrees>
              <LongitudeDegrees>-1.88468123786151409149169921875</LongitudeDegrees>
            </Position>
            <AltitudeMeters>20.200000762939453125</AltitudeMeters>
            <DistanceMeters>NAN</DistanceMeters>
          </Trackpoint>
          <Trackpoint>
            <Time>2021-08-11T15:01:02.000Z</Time>
            <Position>
              <LatitudeDegrees>43.30845507793128490447998046875</LatitudeDegrees>
              <LongitudeDegrees>-1.88467436470091342926025390625</LongitudeDegrees>
            </Position>
            <AltitudeMeters>20.200000762939453125</AltitudeMeters>
            <DistanceMeters>NAN</DistanceMeters>
          </Trackpoint>
          <Trackpoint>
            <Time>2021-08-11T15:01:03.000Z</Time>
            <Position>
              <LatitudeDegrees>43.30848324112594127655029296875</LatitudeDegrees>
              <LongitudeDegrees>-1.8846657313406467437744140625</LongitudeDegrees>
            </Position>
            <AltitudeMeters>20.200000762939453125</AltitudeMeters>
            <DistanceMeters>NAN</DistanceMeters>
          </Trackpoint>
          <Trackpoint>
            <Time>2021-08-11T15:01:04.000Z</Time>
            <Position>
              <LatitudeDegrees>43.308510482311248779296875</LatitudeDegrees>
              <LongitudeDegrees>-1.884662210941314697265625</LongitudeDegrees>
            </Position>
            <AltitudeMeters>20</AltitudeMeters>
            <DistanceMeters>NAN</DistanceMeters>
          </Trackpoint>
          <Trackpoint>
            <Time>2021-08-11T15:01:05.000Z</Time>
            <Position>
              <LatitudeDegrees>43.30852883867919445037841796875</LatitudeDegrees>
              <LongitudeDegrees>-1.8846556730568408966064453125</LongitudeDegrees>
            </Position>
            <AltitudeMeters>20</AltitudeMeters>
            <DistanceMeters>NAN</DistanceMeters>
          </Trackpoint>
          <Trackpoint>
            <Time>2021-08-11T15:01:06.000Z</Time>
            <Position>
              <LatitudeDegrees>43.3085440099239349365234375</LatitudeDegrees>
              <LongitudeDegrees>-1.88464553095400333404541015625</LongitudeDegrees>
            </Position>
            <AltitudeMeters>20</AltitudeMeters>
            <DistanceMeters>NAN</DistanceMeters>
          </Trackpoint>
          <Trackpoint>
            <Time>2021-08-11T15:01:07.000Z</Time>
            <Position>
              <LatitudeDegrees>43.3085585944354534149169921875</LatitudeDegrees>
              <LongitudeDegrees>-1.8846392445266246795654296875</LongitudeDegrees>
            </Position>
            <AltitudeMeters>20</AltitudeMeters>
            <DistanceMeters>NAN</DistanceMeters>
          </Trackpoint>
          <Trackpoint>
            <Time>2021-08-11T15:01:08.000Z</Time>
            <Position>
              <LatitudeDegrees>43.30857410095632076263427734375</LatitudeDegrees>
              <LongitudeDegrees>-1.88464251346886157989501953125</LongitudeDegrees>
            </Position>
            <AltitudeMeters>20</AltitudeMeters>
            <DistanceMeters>NAN</DistanceMeters>
          </Trackpoint>
          <Trackpoint>
            <Time>2021-08-11T15:01:09.000Z</Time>
            <Position>
              <LatitudeDegrees>43.30859363079071044921875</LatitudeDegrees>
              <LongitudeDegrees>-1.88464653678238391876220703125</LongitudeDegrees>
            </Position>
            <AltitudeMeters>19.799999237060546875</AltitudeMeters>
            <DistanceMeters>NAN</DistanceMeters>
          </Trackpoint>
          <Trackpoint>
            <Time>2021-08-11T15:01:12.000Z</Time>
            <Position>
              <LatitudeDegrees>43.30862288363277912139892578125</LatitudeDegrees>
              <LongitudeDegrees>-1.8845964968204498291015625</LongitudeDegrees>
            </Position>
            <AltitudeMeters>19.799999237060546875</AltitudeMeters>
            <DistanceMeters>NAN</DistanceMeters>
          </Trackpoint>
          <Trackpoint>
            <Time>2021-08-11T15:01:18.000Z</Time>
            <Position>
              <LatitudeDegrees>43.308638222515583038330078125</LatitudeDegrees>
              <LongitudeDegrees>-1.8844467960298061370849609375</LongitudeDegrees>
            </Position>
            <AltitudeMeters>19.6000003814697265625</AltitudeMeters>
            <DistanceMeters>NAN</DistanceMeters>
          </Trackpoint>
          <Trackpoint>
            <Time>2021-08-11T15:01:25.000Z</Time>
            <Position>
              <LatitudeDegrees>43.30876554362475872039794921875</LatitudeDegrees>
              <LongitudeDegrees>-1.88437454402446746826171875</LongitudeDegrees>
            </Position>
            <AltitudeMeters>19.799999237060546875</AltitudeMeters>
            <DistanceMeters>NAN</DistanceMeters>
          </Trackpoint>
          <Trackpoint>
            <Time>2021-08-11T15:01:28.000Z</Time>
            <Position>
              <LatitudeDegrees>43.3088469319045543670654296875</LatitudeDegrees>
              <LongitudeDegrees>-1.88439222984015941619873046875</LongitudeDegrees>
            </Position>
            <AltitudeMeters>19.6000003814697265625</AltitudeMeters>
            <DistanceMeters>NAN</DistanceMeters>
          </Trackpoint>
          <Trackpoint>
            <Time>2021-08-11T15:01:29.000Z</Time>
            <Position>
              <LatitudeDegrees>43.3088811300694942474365234375</LatitudeDegrees>
              <LongitudeDegrees>-1.8844105862081050872802734375</LongitudeDegrees>
            </Position>
            <AltitudeMeters>19.6000003814697265625</AltitudeMeters>
            <DistanceMeters>NAN</DistanceMeters>
          </Trackpoint>
          <Trackpoint>
            <Time>2021-08-11T15:01:30.000Z</Time>
            <Position>
              <LatitudeDegrees>43.30891675315797328948974609375</LatitudeDegrees>
              <LongitudeDegrees>-1.8844350613653659820556640625</LongitudeDegrees>
            </Position>
            <AltitudeMeters>19.6000003814697265625</AltitudeMeters>
            <DistanceMeters>NAN</DistanceMeters>
          </Trackpoint>
          <Trackpoint>
            <Time>2021-08-11T15:01:35.000Z</Time>
            <Position>
              <LatitudeDegrees>43.309106938540935516357421875</LatitudeDegrees>
              <LongitudeDegrees>-1.8845804035663604736328125</LongitudeDegrees>
            </Position>
            <AltitudeMeters>19.200000762939453125</AltitudeMeters>
            <DistanceMeters>NAN</DistanceMeters>
          </Trackpoint>
          <Trackpoint>
            <Time>2021-08-11T15:01:36.000Z</Time>
            <Position>
              <LatitudeDegrees>43.30914339981973171234130859375</LatitudeDegrees>
              <LongitudeDegrees>-1.88460789620876312255859375</LongitudeDegrees>
            </Position>
            <AltitudeMeters>19</AltitudeMeters>
            <DistanceMeters>NAN</DistanceMeters>
          </Trackpoint>
          <Trackpoint>
            <Time>2021-08-11T15:01:37.000Z</Time>
            <Position>
              <LatitudeDegrees>43.30917743034660816192626953125</LatitudeDegrees>
              <LongitudeDegrees>-1.884633041918277740478515625</LongitudeDegrees>
            </Position>
            <AltitudeMeters>18.799999237060546875</AltitudeMeters>
            <DistanceMeters>NAN</DistanceMeters>
          </Trackpoint>
          <Trackpoint>
            <Time>2021-08-11T15:01:38.000Z</Time>
            <Position>
              <LatitudeDegrees>43.3092086948454380035400390625</LatitudeDegrees>
              <LongitudeDegrees>-1.8846555054187774658203125</LongitudeDegrees>
            </Position>
            <AltitudeMeters>18.799999237060546875</AltitudeMeters>
            <DistanceMeters>NAN</DistanceMeters>
          </Trackpoint>
          <Trackpoint>
            <Time>2021-08-11T15:01:39.000Z</Time>
            <Position>
              <LatitudeDegrees>43.3092318288981914520263671875</LatitudeDegrees>
              <LongitudeDegrees>-1.8846721015870571136474609375</LongitudeDegrees>
            </Position>
            <AltitudeMeters>19</AltitudeMeters>
            <DistanceMeters>NAN</DistanceMeters>
          </Trackpoint>
          <Trackpoint>
            <Time>2021-08-11T15:01:40.000Z</Time>
            <Position>
              <LatitudeDegrees>43.3092670328915119171142578125</LatitudeDegrees>
              <LongitudeDegrees>-1.88469707965850830078125</LongitudeDegrees>
            </Position>
            <AltitudeMeters>19</AltitudeMeters>
            <DistanceMeters>NAN</DistanceMeters>
          </Trackpoint>
          <Trackpoint>
            <Time>2021-08-11T15:01:41.000Z</Time>
            <Position>
              <LatitudeDegrees>43.3092931844294071197509765625</LatitudeDegrees>
              <LongitudeDegrees>-1.884712167084217071533203125</LongitudeDegrees>
            </Position>
            <AltitudeMeters>19</AltitudeMeters>
            <DistanceMeters>NAN</DistanceMeters>
          </Trackpoint>
          <Trackpoint>
            <Time>2021-08-11T15:01:42.000Z</Time>
            <Position>
              <LatitudeDegrees>43.30931522883474826812744140625</LatitudeDegrees>
              <LongitudeDegrees>-1.88472599722445011138916015625</LongitudeDegrees>
            </Position>
            <AltitudeMeters>18.799999237060546875</AltitudeMeters>
            <DistanceMeters>NAN</DistanceMeters>
          </Trackpoint>
          <Trackpoint>
            <Time>2021-08-11T15:01:43.000Z</Time>
            <Position>
              <LatitudeDegrees>43.30933735705912113189697265625</LatitudeDegrees>
              <LongitudeDegrees>-1.8847425095736980438232421875</LongitudeDegrees>
            </Position>
            <AltitudeMeters>18.799999237060546875</AltitudeMeters>
            <DistanceMeters>NAN</DistanceMeters>
          </Trackpoint>
          <Trackpoint>
            <Time>2021-08-11T15:01:44.000Z</Time>
            <Position>
              <LatitudeDegrees>43.3093599043786525726318359375</LatitudeDegrees>
              <LongitudeDegrees>-1.88476153649389743804931640625</LongitudeDegrees>
            </Position>
            <AltitudeMeters>19</AltitudeMeters>
            <DistanceMeters>NAN</DistanceMeters>
          </Trackpoint>
          <Trackpoint>
            <Time>2021-08-11T15:01:48.000Z</Time>
            <Position>
              <LatitudeDegrees>43.30944112502038478851318359375</LatitudeDegrees>
              <LongitudeDegrees>-1.884850300848484039306640625</LongitudeDegrees>
            </Position>
            <AltitudeMeters>19</AltitudeMeters>
            <DistanceMeters>NAN</DistanceMeters>
          </Trackpoint>
          <Trackpoint>
            <Time>2021-08-11T15:01:53.000Z</Time>
            <Position>
              <LatitudeDegrees>43.30955863930284976959228515625</LatitudeDegrees>
              <LongitudeDegrees>-1.88501282595098018646240234375</LongitudeDegrees>
            </Position>
            <AltitudeMeters>19</AltitudeMeters>
            <DistanceMeters>NAN</DistanceMeters>
          </Trackpoint>
          <Trackpoint>
            <Time>2021-08-11T15:01:54.000Z</Time>
            <Position>
              <LatitudeDegrees>43.3095711283385753631591796875</LatitudeDegrees>
              <LongitudeDegrees>-1.8850385583937168121337890625</LongitudeDegrees>
            </Position>
            <AltitudeMeters>19</AltitudeMeters>
            <DistanceMeters>NAN</DistanceMeters>
          </Trackpoint>
          <Trackpoint>
            <Time>2021-08-11T15:01:56.000Z</Time>
            <Position>
              <LatitudeDegrees>43.3095982857048511505126953125</LatitudeDegrees>
              <LongitudeDegrees>-1.8851156719028949737548828125</LongitudeDegrees>
            </Position>
            <AltitudeMeters>19</AltitudeMeters>
            <DistanceMeters>NAN</DistanceMeters>
          </Trackpoint>
          <Trackpoint>
            <Time>2021-08-11T15:01:57.000Z</Time>
            <Position>
              <LatitudeDegrees>43.309606499969959259033203125</LatitudeDegrees>
              <LongitudeDegrees>-1.88514157198369503021240234375</LongitudeDegrees>
            </Position>
            <AltitudeMeters>19</AltitudeMeters>
            <DistanceMeters>NAN</DistanceMeters>
          </Trackpoint>
          <Trackpoint>
            <Time>2021-08-11T15:01:58.000Z</Time>
            <Position>
              <LatitudeDegrees>43.30961295403540134429931640625</LatitudeDegrees>
              <LongitudeDegrees>-1.8851609341800212860107421875</LongitudeDegrees>
            </Position>
            <AltitudeMeters>19</AltitudeMeters>
            <DistanceMeters>NAN</DistanceMeters>
          </Trackpoint>
          <Trackpoint>
            <Time>2021-08-11T15:01:59.000Z</Time>
            <Position>
              <LatitudeDegrees>43.309619911015033721923828125</LatitudeDegrees>
              <LongitudeDegrees>-1.8851758539676666259765625</LongitudeDegrees>
            </Position>
            <AltitudeMeters>19</AltitudeMeters>
            <DistanceMeters>NAN</DistanceMeters>
          </Trackpoint>
          <Trackpoint>
            <Time>2021-08-11T15:02:00.000Z</Time>
            <Position>
              <LatitudeDegrees>43.309627287089824676513671875</LatitudeDegrees>
              <LongitudeDegrees>-1.88518993556499481201171875</LongitudeDegrees>
            </Position>
            <AltitudeMeters>19</AltitudeMeters>
            <DistanceMeters>NAN</DistanceMeters>
          </Trackpoint>
          <Trackpoint>
            <Time>2021-08-11T15:02:01.000Z</Time>
            <Position>
              <LatitudeDegrees>43.3096334896981716156005859375</LatitudeDegrees>
              <LongitudeDegrees>-1.88520242460072040557861328125</LongitudeDegrees>
            </Position>
            <AltitudeMeters>19</AltitudeMeters>
            <DistanceMeters>NAN</DistanceMeters>
          </Trackpoint>
          <Trackpoint>
            <Time>2021-08-11T15:02:03.000Z</Time>
            <Position>
              <LatitudeDegrees>43.30965151078999042510986328125</LatitudeDegrees>
              <LongitudeDegrees>-1.88522103242576122283935546875</LongitudeDegrees>
            </Position>
            <AltitudeMeters>19</AltitudeMeters>
            <DistanceMeters>NAN</DistanceMeters>
          </Trackpoint>
          <Trackpoint>
            <Time>2021-08-11T15:02:04.000Z</Time>
            <Position>
              <LatitudeDegrees>43.309660814702510833740234375</LatitudeDegrees>
              <LongitudeDegrees>-1.88523075543344020843505859375</LongitudeDegrees>
            </Position>
            <AltitudeMeters>19</AltitudeMeters>
            <DistanceMeters>NAN</DistanceMeters>
          </Trackpoint>
          <Trackpoint>
            <Time>2021-08-11T15:02:05.000Z</Time>
            <Position>
              <LatitudeDegrees>43.30967263318598270416259765625</LatitudeDegrees>
              <LongitudeDegrees>-1.88524089753627777099609375</LongitudeDegrees>
            </Position>
            <AltitudeMeters>19</AltitudeMeters>
            <DistanceMeters>NAN</DistanceMeters>
          </Trackpoint>
          <Trackpoint>
            <Time>2021-08-11T15:02:06.000Z</Time>
            <Position>
              <LatitudeDegrees>43.3096787519752979278564453125</LatitudeDegrees>
              <LongitudeDegrees>-1.88524533994495868682861328125</LongitudeDegrees>
            </Position>
            <AltitudeMeters>19</AltitudeMeters>
            <DistanceMeters>NAN</DistanceMeters>
          </Trackpoint>
          <Trackpoint>
            <Time>2021-08-11T15:02:07.000Z</Time>
            <Position>
              <LatitudeDegrees>43.3096787519752979278564453125</LatitudeDegrees>
              <LongitudeDegrees>-1.88524533994495868682861328125</LongitudeDegrees>
            </Position>
            <AltitudeMeters>19</AltitudeMeters>
            <DistanceMeters>NAN</DistanceMeters>
          </Trackpoint>
          <Trackpoint>
            <Time>2021-08-11T15:02:08.000Z</Time>
            <Position>
              <LatitudeDegrees>43.3096787519752979278564453125</LatitudeDegrees>
              <LongitudeDegrees>-1.88524533994495868682861328125</LongitudeDegrees>
            </Position>
            <AltitudeMeters>19</AltitudeMeters>
            <DistanceMeters>NAN</DistanceMeters>
          </Trackpoint>
          <Trackpoint>
            <Time>2021-08-11T15:02:11.000Z</Time>
            <Position>
              <LatitudeDegrees>43.3096787519752979278564453125</LatitudeDegrees>
              <LongitudeDegrees>-1.88524533994495868682861328125</LongitudeDegrees>
            </Position>
            <AltitudeMeters>19</AltitudeMeters>
            <DistanceMeters>NAN</DistanceMeters>
          </Trackpoint>
          <Trackpoint>
            <Time>2021-08-11T15:02:52.000Z</Time>
            <Position>
              <LatitudeDegrees>43.3096787519752979278564453125</LatitudeDegrees>
              <LongitudeDegrees>-1.88524533994495868682861328125</LongitudeDegrees>
            </Position>
            <AltitudeMeters>18.6000003814697265625</AltitudeMeters>
            <DistanceMeters>NAN</DistanceMeters>
          </Trackpoint>
          <Trackpoint>
            <Time>2021-08-11T15:04:13.000Z</Time>
            <Position>
              <LatitudeDegrees>43.3096787519752979278564453125</LatitudeDegrees>
              <LongitudeDegrees>-1.88524533994495868682861328125</LongitudeDegrees>
            </Position>
            <AltitudeMeters>18.6000003814697265625</AltitudeMeters>
            <DistanceMeters>NAN</DistanceMeters>
          </Trackpoint>
          <Trackpoint>
            <Time>2021-08-11T15:04:41.000Z</Time>
            <Position>
              <LatitudeDegrees>43.3096787519752979278564453125</LatitudeDegrees>
              <LongitudeDegrees>-1.88524533994495868682861328125</LongitudeDegrees>
            </Position>
            <AltitudeMeters>18.799999237060546875</AltitudeMeters>
            <DistanceMeters>NAN</DistanceMeters>
          </Trackpoint>
          <Trackpoint>
            <Time>2021-08-11T15:07:07.000Z</Time>
            <Position>
              <LatitudeDegrees>43.3096804283559322357177734375</LatitudeDegrees>
              <LongitudeDegrees>-1.8852460943162441253662109375</LongitudeDegrees>
            </Position>
            <AltitudeMeters>18.200000762939453125</AltitudeMeters>
            <DistanceMeters>NAN</DistanceMeters>
          </Trackpoint>
          <Trackpoint>
            <Time>2021-08-11T15:07:10.000Z</Time>
            <Position>
              <LatitudeDegrees>43.30977120436728000640869140625</LatitudeDegrees>
              <LongitudeDegrees>-1.88528439961373805999755859375</LongitudeDegrees>
            </Position>
            <AltitudeMeters>18.200000762939453125</AltitudeMeters>
            <DistanceMeters>NAN</DistanceMeters>
          </Trackpoint>
          <Trackpoint>
            <Time>2021-08-11T15:07:13.000Z</Time>
            <Position>
              <LatitudeDegrees>43.30989575944840908050537109375</LatitudeDegrees>
              <LongitudeDegrees>-1.88537090085446834564208984375</LongitudeDegrees>
            </Position>
            <AltitudeMeters>18</AltitudeMeters>
            <DistanceMeters>NAN</DistanceMeters>
          </Trackpoint>
          <Trackpoint>
            <Time>2021-08-11T15:07:14.000Z</Time>
            <Position>
              <LatitudeDegrees>43.30992325209081172943115234375</LatitudeDegrees>
              <LongitudeDegrees>-1.8854033388197422027587890625</LongitudeDegrees>
            </Position>
            <AltitudeMeters>18</AltitudeMeters>
            <DistanceMeters>NAN</DistanceMeters>
          </Trackpoint>
          <Trackpoint>
            <Time>2021-08-11T15:07:15.000Z</Time>
            <Position>
              <LatitudeDegrees>43.30994890071451663970947265625</LatitudeDegrees>
              <LongitudeDegrees>-1.8854427337646484375</LongitudeDegrees>
            </Position>
            <AltitudeMeters>18</AltitudeMeters>
            <DistanceMeters>NAN</DistanceMeters>
          </Trackpoint>
          <Trackpoint>
            <Time>2021-08-11T15:07:16.000Z</Time>
            <Position>
              <LatitudeDegrees>43.30997237004339694976806640625</LatitudeDegrees>
              <LongitudeDegrees>-1.8854844756424427032470703125</LongitudeDegrees>
            </Position>
            <AltitudeMeters>18</AltitudeMeters>
            <DistanceMeters>NAN</DistanceMeters>
          </Trackpoint>
          <Trackpoint>
            <Time>2021-08-11T15:07:19.000Z</Time>
            <Position>
              <LatitudeDegrees>43.31006322987377643585205078125</LatitudeDegrees>
              <LongitudeDegrees>-1.8856346793472766876220703125</LongitudeDegrees>
            </Position>
            <AltitudeMeters>17.799999237060546875</AltitudeMeters>
            <DistanceMeters>NAN</DistanceMeters>
          </Trackpoint>
          <Trackpoint>
            <Time>2021-08-11T15:07:21.000Z</Time>
            <Position>
              <LatitudeDegrees>43.31010899506509304046630859375</LatitudeDegrees>
              <LongitudeDegrees>-1.88571564853191375732421875</LongitudeDegrees>
            </Position>
            <AltitudeMeters>17.6000003814697265625</AltitudeMeters>
            <DistanceMeters>NAN</DistanceMeters>
          </Trackpoint>
          <Trackpoint>
            <Time>2021-08-11T15:07:22.000Z</Time>
            <Position>
              <LatitudeDegrees>43.31012927927076816558837890625</LatitudeDegrees>
              <LongitudeDegrees>-1.8857563845813274383544921875</LongitudeDegrees>
            </Position>
            <AltitudeMeters>17.6000003814697265625</AltitudeMeters>
            <DistanceMeters>NAN</DistanceMeters>
          </Trackpoint>
          <Trackpoint>
            <Time>2021-08-11T15:07:23.000Z</Time>
            <Position>
              <LatitudeDegrees>43.310150988399982452392578125</LatitudeDegrees>
              <LongitudeDegrees>-1.88579988665878772735595703125</LongitudeDegrees>
            </Position>
            <AltitudeMeters>17.3999996185302734375</AltitudeMeters>
            <DistanceMeters>NAN</DistanceMeters>
          </Trackpoint>
          <Trackpoint>
            <Time>2021-08-11T15:07:24.000Z</Time>
            <Position>
              <LatitudeDegrees>43.3101774752140045166015625</LatitudeDegrees>
              <LongitudeDegrees>-1.8858428858220577239990234375</LongitudeDegrees>
            </Position>
            <AltitudeMeters>17.3999996185302734375</AltitudeMeters>
            <DistanceMeters>NAN</DistanceMeters>
          </Trackpoint>
          <Trackpoint>
            <Time>2021-08-11T15:07:25.000Z</Time>
            <Position>
              <LatitudeDegrees>43.31020153127610683441162109375</LatitudeDegrees>
              <LongitudeDegrees>-1.8858958594501018524169921875</LongitudeDegrees>
            </Position>
            <AltitudeMeters>17.200000762939453125</AltitudeMeters>
            <DistanceMeters>NAN</DistanceMeters>
          </Trackpoint>
          <Trackpoint>
            <Time>2021-08-11T15:07:27.000Z</Time>
            <Position>
              <LatitudeDegrees>43.310227431356906890869140625</LatitudeDegrees>
              <LongitudeDegrees>-1.88604581169784069061279296875</LongitudeDegrees>
            </Position>
            <AltitudeMeters>16.799999237060546875</AltitudeMeters>
            <DistanceMeters>NAN</DistanceMeters>
          </Trackpoint>
          <Trackpoint>
            <Time>2021-08-11T15:07:28.000Z</Time>
            <Position>
              <LatitudeDegrees>43.31022240221500396728515625</LatitudeDegrees>
              <LongitudeDegrees>-1.88612644560635089874267578125</LongitudeDegrees>
            </Position>
            <AltitudeMeters>16.799999237060546875</AltitudeMeters>
            <DistanceMeters>NAN</DistanceMeters>
          </Trackpoint>
          <Trackpoint>
            <Time>2021-08-11T15:07:29.000Z</Time>
            <Position>
              <LatitudeDegrees>43.3102096617221832275390625</LatitudeDegrees>
              <LongitudeDegrees>-1.886210851371288299560546875</LongitudeDegrees>
            </Position>
            <AltitudeMeters>16.6000003814697265625</AltitudeMeters>
            <DistanceMeters>NAN</DistanceMeters>
          </Trackpoint>
          <Trackpoint>
            <Time>2021-08-11T15:07:30.000Z</Time>
            <Position>
              <LatitudeDegrees>43.31019868142902851104736328125</LatitudeDegrees>
              <LongitudeDegrees>-1.886301375925540924072265625</LongitudeDegrees>
            </Position>
            <AltitudeMeters>16.3999996185302734375</AltitudeMeters>
            <DistanceMeters>NAN</DistanceMeters>
          </Trackpoint>
          <Trackpoint>
            <Time>2021-08-11T15:07:32.000Z</Time>
            <Position>
              <LatitudeDegrees>43.31019717268645763397216796875</LatitudeDegrees>
              <LongitudeDegrees>-1.8864775635302066802978515625</LongitudeDegrees>
            </Position>
            <AltitudeMeters>16</AltitudeMeters>
            <DistanceMeters>NAN</DistanceMeters>
          </Trackpoint>
          <Trackpoint>
            <Time>2021-08-11T15:07:35.000Z</Time>
            <Position>
              <LatitudeDegrees>43.31018040888011455535888671875</LatitudeDegrees>
              <LongitudeDegrees>-1.88675592653453350067138671875</LongitudeDegrees>
            </Position>
            <AltitudeMeters>15.80000019073486328125</AltitudeMeters>
            <DistanceMeters>NAN</DistanceMeters>
          </Trackpoint>
          <Trackpoint>
            <Time>2021-08-11T15:07:37.000Z</Time>
            <Position>
              <LatitudeDegrees>43.3101372420787811279296875</LatitudeDegrees>
              <LongitudeDegrees>-1.88694275915622711181640625</LongitudeDegrees>
            </Position>
            <AltitudeMeters>15.6000003814697265625</AltitudeMeters>
            <DistanceMeters>NAN</DistanceMeters>
          </Trackpoint>
          <Trackpoint>
            <Time>2021-08-11T15:07:41.000Z</Time>
            <Position>
              <LatitudeDegrees>43.31001863814890384674072265625</LatitudeDegrees>
              <LongitudeDegrees>-1.88727795146405696868896484375</LongitudeDegrees>
            </Position>
            <AltitudeMeters>15.6000003814697265625</AltitudeMeters>
            <DistanceMeters>NAN</DistanceMeters>
          </Trackpoint>
          <Trackpoint>
            <Time>2021-08-11T15:07:42.000Z</Time>
            <Position>
              <LatitudeDegrees>43.3099962584674358367919921875</LatitudeDegrees>
              <LongitudeDegrees>-1.8873264826834201812744140625</LongitudeDegrees>
            </Position>
            <AltitudeMeters>15.6000003814697265625</AltitudeMeters>
            <DistanceMeters>NAN</DistanceMeters>
          </Trackpoint>
          <Trackpoint>
            <Time>2021-08-11T15:07:43.000Z</Time>
            <Position>
              <LatitudeDegrees>43.30995426513254642486572265625</LatitudeDegrees>
              <LongitudeDegrees>-1.88737786374986171722412109375</LongitudeDegrees>
            </Position>
            <AltitudeMeters>15.6000003814697265625</AltitudeMeters>
            <DistanceMeters>NAN</DistanceMeters>
          </Trackpoint>
          <Trackpoint>
            <Time>2021-08-11T15:07:44.000Z</Time>
            <Position>
              <LatitudeDegrees>43.3099119365215301513671875</LatitudeDegrees>
              <LongitudeDegrees>-1.88742153346538543701171875</LongitudeDegrees>
            </Position>
            <AltitudeMeters>15.6000003814697265625</AltitudeMeters>
            <DistanceMeters>NAN</DistanceMeters>
          </Trackpoint>
          <Trackpoint>
            <Time>2021-08-11T15:07:45.000Z</Time>
            <Position>
              <LatitudeDegrees>43.30987446941435337066650390625</LatitudeDegrees>
              <LongitudeDegrees>-1.8874632753431797027587890625</LongitudeDegrees>
            </Position>
            <AltitudeMeters>15.80000019073486328125</AltitudeMeters>
            <DistanceMeters>NAN</DistanceMeters>
          </Trackpoint>
          <Trackpoint>
            <Time>2021-08-11T15:07:46.000Z</Time>
            <Position>
              <LatitudeDegrees>43.30983809195458889007568359375</LatitudeDegrees>
              <LongitudeDegrees>-1.8875018320977687835693359375</LongitudeDegrees>
            </Position>
            <AltitudeMeters>15.80000019073486328125</AltitudeMeters>
            <DistanceMeters>NAN</DistanceMeters>
          </Trackpoint>
          <Trackpoint>
            <Time>2021-08-11T15:07:47.000Z</Time>
            <Position>
              <LatitudeDegrees>43.3098034746944904327392578125</LatitudeDegrees>
              <LongitudeDegrees>-1.887537539005279541015625</LongitudeDegrees>
            </Position>
            <AltitudeMeters>15.80000019073486328125</AltitudeMeters>
            <DistanceMeters>NAN</DistanceMeters>
          </Trackpoint>
          <Trackpoint>
            <Time>2021-08-11T15:07:48.000Z</Time>
            <Position>
              <LatitudeDegrees>43.309765420854091644287109375</LatitudeDegrees>
              <LongitudeDegrees>-1.88757576048374176025390625</LongitudeDegrees>
            </Position>
            <AltitudeMeters>16</AltitudeMeters>
            <DistanceMeters>NAN</DistanceMeters>
          </Trackpoint>
          <Trackpoint>
            <Time>2021-08-11T15:07:49.000Z</Time>
            <Position>
              <LatitudeDegrees>43.30974102951586246490478515625</LatitudeDegrees>
              <LongitudeDegrees>-1.887596882879734039306640625</LongitudeDegrees>
            </Position>
            <AltitudeMeters>16</AltitudeMeters>
            <DistanceMeters>NAN</DistanceMeters>
          </Trackpoint>
          <Trackpoint>
            <Time>2021-08-11T15:07:50.000Z</Time>
            <Position>
              <LatitudeDegrees>43.30971403978765010833740234375</LatitudeDegrees>
              <LongitudeDegrees>-1.88762764446437358856201171875</LongitudeDegrees>
            </Position>
            <AltitudeMeters>16.200000762939453125</AltitudeMeters>
            <DistanceMeters>NAN</DistanceMeters>
          </Trackpoint>
          <Trackpoint>
            <Time>2021-08-11T15:07:51.000Z</Time>
            <Position>
              <LatitudeDegrees>43.3096935041248798370361328125</LatitudeDegrees>
              <LongitudeDegrees>-1.8876677937805652618408203125</LongitudeDegrees>
            </Position>
            <AltitudeMeters>16.3999996185302734375</AltitudeMeters>
            <DistanceMeters>NAN</DistanceMeters>
          </Trackpoint>
          <Trackpoint>
            <Time>2021-08-11T15:07:52.000Z</Time>
            <Position>
              <LatitudeDegrees>43.30967766232788562774658203125</LatitudeDegrees>
              <LongitudeDegrees>-1.8877214379608631134033203125</LongitudeDegrees>
            </Position>
            <AltitudeMeters>16.6000003814697265625</AltitudeMeters>
            <DistanceMeters>NAN</DistanceMeters>
          </Trackpoint>
          <Trackpoint>
            <Time>2021-08-11T15:07:53.000Z</Time>
            <Position>
              <LatitudeDegrees>43.30967062152922153472900390625</LatitudeDegrees>
              <LongitudeDegrees>-1.88776929862797260284423828125</LongitudeDegrees>
            </Position>
            <AltitudeMeters>16.6000003814697265625</AltitudeMeters>
            <DistanceMeters>NAN</DistanceMeters>
          </Trackpoint>
          <Trackpoint>
            <Time>2021-08-11T15:07:54.000Z</Time>
            <Position>
              <LatitudeDegrees>43.3096696995198726654052734375</LatitudeDegrees>
              <LongitudeDegrees>-1.88781036995351314544677734375</LongitudeDegrees>
            </Position>
            <AltitudeMeters>16.799999237060546875</AltitudeMeters>
            <DistanceMeters>NAN</DistanceMeters>
          </Trackpoint>
          <Trackpoint>
            <Time>2021-08-11T15:07:55.000Z</Time>
            <Position>
              <LatitudeDegrees>43.30966425128281116485595703125</LatitudeDegrees>
              <LongitudeDegrees>-1.887873150408267974853515625</LongitudeDegrees>
            </Position>
            <AltitudeMeters>17.200000762939453125</AltitudeMeters>
            <DistanceMeters>NAN</DistanceMeters>
          </Trackpoint>
          <Trackpoint>
            <Time>2021-08-11T15:07:56.000Z</Time>
            <Position>
              <LatitudeDegrees>43.309658467769622802734375</LatitudeDegrees>
              <LongitudeDegrees>-1.88791564665734767913818359375</LongitudeDegrees>
            </Position>
            <AltitudeMeters>17.3999996185302734375</AltitudeMeters>
            <DistanceMeters>NAN</DistanceMeters>
          </Trackpoint>
          <Trackpoint>
            <Time>2021-08-11T15:07:57.000Z</Time>
            <Position>
              <LatitudeDegrees>43.30965419299900531768798828125</LatitudeDegrees>
              <LongitudeDegrees>-1.88796794973313808441162109375</LongitudeDegrees>
            </Position>
            <AltitudeMeters>17.6000003814697265625</AltitudeMeters>
            <DistanceMeters>NAN</DistanceMeters>
          </Trackpoint>
          <Trackpoint>
            <Time>2021-08-11T15:07:58.000Z</Time>
            <Position>
              <LatitudeDegrees>43.3096509240567684173583984375</LatitudeDegrees>
              <LongitudeDegrees>-1.88802192918956279754638671875</LongitudeDegrees>
            </Position>
            <AltitudeMeters>17.6000003814697265625</AltitudeMeters>
            <DistanceMeters>NAN</DistanceMeters>
          </Trackpoint>
          <Trackpoint>
            <Time>2021-08-11T15:08:01.000Z</Time>
            <Position>
              <LatitudeDegrees>43.3096244372427463531494140625</LatitudeDegrees>
              <LongitudeDegrees>-1.8881894834339618682861328125</LongitudeDegrees>
            </Position>
            <AltitudeMeters>18</AltitudeMeters>
            <DistanceMeters>NAN</DistanceMeters>
          </Trackpoint>
          <Trackpoint>
            <Time>2021-08-11T15:08:06.000Z</Time>
            <Position>
              <LatitudeDegrees>43.309581018984317779541015625</LatitudeDegrees>
              <LongitudeDegrees>-1.8884748034179210662841796875</LongitudeDegrees>
            </Position>
            <AltitudeMeters>18.200000762939453125</AltitudeMeters>
            <DistanceMeters>NAN</DistanceMeters>
          </Trackpoint>
          <Trackpoint>
            <Time>2021-08-11T15:08:09.000Z</Time>
            <Position>
              <LatitudeDegrees>43.30960457213222980499267578125</LatitudeDegrees>
              <LongitudeDegrees>-1.8886451236903667449951171875</LongitudeDegrees>
            </Position>
            <AltitudeMeters>18.200000762939453125</AltitudeMeters>
            <DistanceMeters>NAN</DistanceMeters>
          </Trackpoint>
          <Trackpoint>
            <Time>2021-08-11T15:08:10.000Z</Time>
            <Position>
              <LatitudeDegrees>43.3096053265035152435302734375</LatitudeDegrees>
              <LongitudeDegrees>-1.88869952224195003509521484375</LongitudeDegrees>
            </Position>
            <AltitudeMeters>18</AltitudeMeters>
            <DistanceMeters>NAN</DistanceMeters>
          </Trackpoint>
          <Trackpoint>
            <Time>2021-08-11T15:08:13.000Z</Time>
            <Position>
              <LatitudeDegrees>43.3096080087125301361083984375</LatitudeDegrees>
              <LongitudeDegrees>-1.88889901153743267059326171875</LongitudeDegrees>
            </Position>
            <AltitudeMeters>18</AltitudeMeters>
            <DistanceMeters>NAN</DistanceMeters>
          </Trackpoint>
          <Trackpoint>
            <Time>2021-08-11T15:08:15.000Z</Time>
            <Position>
              <LatitudeDegrees>43.30961345694959163665771484375</LatitudeDegrees>
              <LongitudeDegrees>-1.88901434652507305145263671875</LongitudeDegrees>
            </Position>
            <AltitudeMeters>17.799999237060546875</AltitudeMeters>
            <DistanceMeters>NAN</DistanceMeters>
          </Trackpoint>
          <Trackpoint>
            <Time>2021-08-11T15:08:19.000Z</Time>
            <Position>
              <LatitudeDegrees>43.30962804146111011505126953125</LatitudeDegrees>
              <LongitudeDegrees>-1.88927896320819854736328125</LongitudeDegrees>
            </Position>
            <AltitudeMeters>17.6000003814697265625</AltitudeMeters>
            <DistanceMeters>NAN</DistanceMeters>
          </Trackpoint>
          <Trackpoint>
            <Time>2021-08-11T15:08:24.000Z</Time>
            <Position>
              <LatitudeDegrees>43.30964765511453151702880859375</LatitudeDegrees>
              <LongitudeDegrees>-1.88966511748731136322021484375</LongitudeDegrees>
            </Position>
            <AltitudeMeters>17.3999996185302734375</AltitudeMeters>
            <DistanceMeters>NAN</DistanceMeters>
          </Trackpoint>
          <Trackpoint>
            <Time>2021-08-11T15:08:25.000Z</Time>
            <Position>
              <LatitudeDegrees>43.30965486355125904083251953125</LatitudeDegrees>
              <LongitudeDegrees>-1.88973686657845973968505859375</LongitudeDegrees>
            </Position>
            <AltitudeMeters>17.3999996185302734375</AltitudeMeters>
            <DistanceMeters>NAN</DistanceMeters>
          </Trackpoint>
          <Trackpoint>
            <Time>2021-08-11T15:08:26.000Z</Time>
            <Position>
              <LatitudeDegrees>43.30965821631252765655517578125</LatitudeDegrees>
              <LongitudeDegrees>-1.88979788683354854583740234375</LongitudeDegrees>
            </Position>
            <AltitudeMeters>17.3999996185302734375</AltitudeMeters>
            <DistanceMeters>NAN</DistanceMeters>
          </Trackpoint>
          <Trackpoint>
            <Time>2021-08-11T15:08:27.000Z</Time>
            <Position>
              <LatitudeDegrees>43.3096556179225444793701171875</LatitudeDegrees>
              <LongitudeDegrees>-1.88986091874539852142333984375</LongitudeDegrees>
            </Position>
            <AltitudeMeters>17.3999996185302734375</AltitudeMeters>
            <DistanceMeters>NAN</DistanceMeters>
          </Trackpoint>
          <Trackpoint>
            <Time>2021-08-11T15:08:28.000Z</Time>
            <Position>
              <LatitudeDegrees>43.3096515946090221405029296875</LatitudeDegrees>
              <LongitudeDegrees>-1.88991523347795009613037109375</LongitudeDegrees>
            </Position>
            <AltitudeMeters>17.3999996185302734375</AltitudeMeters>
            <DistanceMeters>NAN</DistanceMeters>
          </Trackpoint>
          <Trackpoint>
            <Time>2021-08-11T15:08:29.000Z</Time>
            <Position>
              <LatitudeDegrees>43.3096529357135295867919921875</LatitudeDegrees>
              <LongitudeDegrees>-1.88997038640081882476806640625</LongitudeDegrees>
            </Position>
            <AltitudeMeters>17.3999996185302734375</AltitudeMeters>
            <DistanceMeters>NAN</DistanceMeters>
          </Trackpoint>
          <Trackpoint>
            <Time>2021-08-11T15:08:30.000Z</Time>
            <Position>
              <LatitudeDegrees>43.30965167842805385589599609375</LatitudeDegrees>
              <LongitudeDegrees>-1.89002637751400470733642578125</LongitudeDegrees>
            </Position>
            <AltitudeMeters>17.3999996185302734375</AltitudeMeters>
            <DistanceMeters>NAN</DistanceMeters>
          </Trackpoint>
          <Trackpoint>
            <Time>2021-08-11T15:08:31.000Z</Time>
            <Position>
              <LatitudeDegrees>43.3096529357135295867919921875</LatitudeDegrees>
              <LongitudeDegrees>-1.8900861404836177825927734375</LongitudeDegrees>
            </Position>
            <AltitudeMeters>17.3999996185302734375</AltitudeMeters>
            <DistanceMeters>NAN</DistanceMeters>
          </Trackpoint>
          <Trackpoint>
            <Time>2021-08-11T15:08:33.000Z</Time>
            <Position>
              <LatitudeDegrees>43.30966291017830371856689453125</LatitudeDegrees>
              <LongitudeDegrees>-1.8902264535427093505859375</LongitudeDegrees>
            </Position>
            <AltitudeMeters>17.3999996185302734375</AltitudeMeters>
            <DistanceMeters>NAN</DistanceMeters>
          </Trackpoint>
          <Trackpoint>
            <Time>2021-08-11T15:08:36.000Z</Time>
            <Position>
              <LatitudeDegrees>43.309647738933563232421875</LatitudeDegrees>
              <LongitudeDegrees>-1.890420578420162200927734375</LongitudeDegrees>
            </Position>
            <AltitudeMeters>17.3999996185302734375</AltitudeMeters>
            <DistanceMeters>NAN</DistanceMeters>
          </Trackpoint>
          <Trackpoint>
            <Time>2021-08-11T15:08:37.000Z</Time>
            <Position>
              <LatitudeDegrees>43.30964245833456516265869140625</LatitudeDegrees>
              <LongitudeDegrees>-1.8904894776642322540283203125</LongitudeDegrees>
            </Position>
            <AltitudeMeters>17.3999996185302734375</AltitudeMeters>
            <DistanceMeters>NAN</DistanceMeters>
          </Trackpoint>
          <Trackpoint>
            <Time>2021-08-11T15:08:40.000Z</Time>
            <Position>
              <LatitudeDegrees>43.30961597152054309844970703125</LatitudeDegrees>
              <LongitudeDegrees>-1.89069407992064952850341796875</LongitudeDegrees>
            </Position>
            <AltitudeMeters>17.3999996185302734375</AltitudeMeters>
            <DistanceMeters>NAN</DistanceMeters>
          </Trackpoint>
          <Trackpoint>
            <Time>2021-08-11T15:08:46.000Z</Time>
            <Position>
              <LatitudeDegrees>43.30953768454492092132568359375</LatitudeDegrees>
              <LongitudeDegrees>-1.8911169469356536865234375</LongitudeDegrees>
            </Position>
            <AltitudeMeters>17</AltitudeMeters>
            <DistanceMeters>NAN</DistanceMeters>
          </Trackpoint>
          <Trackpoint>
            <Time>2021-08-11T15:08:47.000Z</Time>
            <Position>
              <LatitudeDegrees>43.3095251955091953277587890625</LatitudeDegrees>
              <LongitudeDegrees>-1.89118157140910625457763671875</LongitudeDegrees>
            </Position>
            <AltitudeMeters>17</AltitudeMeters>
            <DistanceMeters>NAN</DistanceMeters>
          </Trackpoint>
          <Trackpoint>
            <Time>2021-08-11T15:08:48.000Z</Time>
            <Position>
              <LatitudeDegrees>43.3095122873783111572265625</LatitudeDegrees>
              <LongitudeDegrees>-1.89123169519007205963134765625</LongitudeDegrees>
            </Position>
            <AltitudeMeters>16.799999237060546875</AltitudeMeters>
            <DistanceMeters>NAN</DistanceMeters>
          </Trackpoint>
          <Trackpoint>
            <Time>2021-08-11T15:08:50.000Z</Time>
            <Position>
              <LatitudeDegrees>43.30947649665176868438720703125</LatitudeDegrees>
              <LongitudeDegrees>-1.8913591839373111724853515625</LongitudeDegrees>
            </Position>
            <AltitudeMeters>16.6000003814697265625</AltitudeMeters>
            <DistanceMeters>NAN</DistanceMeters>
          </Trackpoint>
          <Trackpoint>
            <Time>2021-08-11T15:08:51.000Z</Time>
            <Position>
              <LatitudeDegrees>43.3094651810824871063232421875</LatitudeDegrees>
              <LongitudeDegrees>-1.89142716117203235626220703125</LongitudeDegrees>
            </Position>
            <AltitudeMeters>16.6000003814697265625</AltitudeMeters>
            <DistanceMeters>NAN</DistanceMeters>
          </Trackpoint>
          <Trackpoint>
            <Time>2021-08-11T15:08:52.000Z</Time>
            <Position>
              <LatitudeDegrees>43.30945436842739582061767578125</LatitudeDegrees>
              <LongitudeDegrees>-1.89148717559874057769775390625</LongitudeDegrees>
            </Position>
            <AltitudeMeters>16.6000003814697265625</AltitudeMeters>
            <DistanceMeters>NAN</DistanceMeters>
          </Trackpoint>
          <Trackpoint>
            <Time>2021-08-11T15:08:53.000Z</Time>
            <Position>
              <LatitudeDegrees>43.30944414250552654266357421875</LatitudeDegrees>
              <LongitudeDegrees>-1.8915496207773685455322265625</LongitudeDegrees>
            </Position>
            <AltitudeMeters>16.6000003814697265625</AltitudeMeters>
            <DistanceMeters>NAN</DistanceMeters>
          </Trackpoint>
          <Trackpoint>
            <Time>2021-08-11T15:08:54.000Z</Time>
            <Position>
              <LatitudeDegrees>43.3094383589923381805419921875</LatitudeDegrees>
              <LongitudeDegrees>-1.89159102737903594970703125</LongitudeDegrees>
            </Position>
            <AltitudeMeters>16.6000003814697265625</AltitudeMeters>
            <DistanceMeters>NAN</DistanceMeters>
          </Trackpoint>
          <Trackpoint>
            <Time>2021-08-11T15:08:55.000Z</Time>
            <Position>
              <LatitudeDegrees>43.3094318211078643798828125</LatitudeDegrees>
              <LongitudeDegrees>-1.89164274372160434722900390625</LongitudeDegrees>
            </Position>
            <AltitudeMeters>16.6000003814697265625</AltitudeMeters>
            <DistanceMeters>NAN</DistanceMeters>
          </Trackpoint>
          <Trackpoint>
            <Time>2021-08-11T15:08:56.000Z</Time>
            <Position>
              <LatitudeDegrees>43.30942804925143718719482421875</LatitudeDegrees>
              <LongitudeDegrees>-1.891694962978363037109375</LongitudeDegrees>
            </Position>
            <AltitudeMeters>16.6000003814697265625</AltitudeMeters>
            <DistanceMeters>NAN</DistanceMeters>
          </Trackpoint>
          <Trackpoint>
            <Time>2021-08-11T15:08:58.000Z</Time>
            <Position>
              <LatitudeDegrees>43.3094135485589504241943359375</LatitudeDegrees>
              <LongitudeDegrees>-1.8917866609990596771240234375</LongitudeDegrees>
            </Position>
            <AltitudeMeters>16.6000003814697265625</AltitudeMeters>
            <DistanceMeters>NAN</DistanceMeters>
          </Trackpoint>
          <Trackpoint>
            <Time>2021-08-11T15:08:59.000Z</Time>
            <Position>
              <LatitudeDegrees>43.30940893851220607757568359375</LatitudeDegrees>
              <LongitudeDegrees>-1.89182496629655361175537109375</LongitudeDegrees>
            </Position>
            <AltitudeMeters>16.6000003814697265625</AltitudeMeters>
            <DistanceMeters>NAN</DistanceMeters>
          </Trackpoint>
          <Trackpoint>
            <Time>2021-08-11T15:09:00.000Z</Time>
            <Position>
              <LatitudeDegrees>43.30940709449350833892822265625</LatitudeDegrees>
              <LongitudeDegrees>-1.8918647803366184234619140625</LongitudeDegrees>
            </Position>
            <AltitudeMeters>16.6000003814697265625</AltitudeMeters>
            <DistanceMeters>NAN</DistanceMeters>
          </Trackpoint>
          <Trackpoint>
            <Time>2021-08-11T15:09:01.000Z</Time>
            <Position>
              <LatitudeDegrees>43.30941639840602874755859375</LatitudeDegrees>
              <LongitudeDegrees>-1.89190627075731754302978515625</LongitudeDegrees>
            </Position>
            <AltitudeMeters>16.6000003814697265625</AltitudeMeters>
            <DistanceMeters>NAN</DistanceMeters>
          </Trackpoint>
          <Trackpoint>
            <Time>2021-08-11T15:09:06.000Z</Time>
            <Position>
              <LatitudeDegrees>43.3094370178878307342529296875</LatitudeDegrees>
              <LongitudeDegrees>-1.8921172432601451873779296875</LongitudeDegrees>
            </Position>
            <AltitudeMeters>16.3999996185302734375</AltitudeMeters>
            <DistanceMeters>NAN</DistanceMeters>
          </Trackpoint>
          <Trackpoint>
            <Time>2021-08-11T15:09:07.000Z</Time>
            <Position>
              <LatitudeDegrees>43.3094413764774799346923828125</LatitudeDegrees>
              <LongitudeDegrees>-1.89216476865112781524658203125</LongitudeDegrees>
            </Position>
            <AltitudeMeters>16.3999996185302734375</AltitudeMeters>
            <DistanceMeters>NAN</DistanceMeters>
          </Trackpoint>
          <Trackpoint>
            <Time>2021-08-11T15:09:08.000Z</Time>
            <Position>
              <LatitudeDegrees>43.309454284608364105224609375</LatitudeDegrees>
              <LongitudeDegrees>-1.8921963684260845184326171875</LongitudeDegrees>
            </Position>
            <AltitudeMeters>16.3999996185302734375</AltitudeMeters>
            <DistanceMeters>NAN</DistanceMeters>
          </Trackpoint>
          <Trackpoint>
            <Time>2021-08-11T15:09:09.000Z</Time>
            <Position>
              <LatitudeDegrees>43.309476077556610107421875</LatitudeDegrees>
              <LongitudeDegrees>-1.8922354280948638916015625</LongitudeDegrees>
            </Position>
            <AltitudeMeters>16.3999996185302734375</AltitudeMeters>
            <DistanceMeters>NAN</DistanceMeters>
          </Trackpoint>
          <Trackpoint>
            <Time>2021-08-11T15:09:10.000Z</Time>
            <Position>
              <LatitudeDegrees>43.30949845723807811737060546875</LatitudeDegrees>
              <LongitudeDegrees>-1.8922707997262477874755859375</LongitudeDegrees>
            </Position>
            <AltitudeMeters>16.3999996185302734375</AltitudeMeters>
            <DistanceMeters>NAN</DistanceMeters>
          </Trackpoint>
          <Trackpoint>
            <Time>2021-08-11T15:09:11.000Z</Time>
            <Position>
              <LatitudeDegrees>43.30952008254826068878173828125</LatitudeDegrees>
              <LongitudeDegrees>-1.8923204205930233001708984375</LongitudeDegrees>
            </Position>
            <AltitudeMeters>16.3999996185302734375</AltitudeMeters>
            <DistanceMeters>NAN</DistanceMeters>
          </Trackpoint>
          <Trackpoint>
            <Time>2021-08-11T15:09:15.000Z</Time>
            <Position>
              <LatitudeDegrees>43.3096083439886569976806640625</LatitudeDegrees>
              <LongitudeDegrees>-1.89245142973959445953369140625</LongitudeDegrees>
            </Position>
            <AltitudeMeters>16.200000762939453125</AltitudeMeters>
            <DistanceMeters>NAN</DistanceMeters>
          </Trackpoint>
          <Trackpoint>
            <Time>2021-08-11T15:09:16.000Z</Time>
            <Position>
              <LatitudeDegrees>43.30962158739566802978515625</LatitudeDegrees>
              <LongitudeDegrees>-1.892475821077823638916015625</LongitudeDegrees>
            </Position>
            <AltitudeMeters>16.200000762939453125</AltitudeMeters>
            <DistanceMeters>NAN</DistanceMeters>
          </Trackpoint>
          <Trackpoint>
            <Time>2021-08-11T15:09:17.000Z</Time>
            <Position>
              <LatitudeDegrees>43.30964514054358005523681640625</LatitudeDegrees>
              <LongitudeDegrees>-1.89250222407281398773193359375</LongitudeDegrees>
            </Position>
            <AltitudeMeters>16.200000762939453125</AltitudeMeters>
            <DistanceMeters>NAN</DistanceMeters>
          </Trackpoint>
          <Trackpoint>
            <Time>2021-08-11T15:09:22.000Z</Time>
            <Position>
              <LatitudeDegrees>43.3097565360367298126220703125</LatitudeDegrees>
              <LongitudeDegrees>-1.8926758132874965667724609375</LongitudeDegrees>
            </Position>
            <AltitudeMeters>16</AltitudeMeters>
            <DistanceMeters>NAN</DistanceMeters>
          </Trackpoint>
          <Trackpoint>
            <Time>2021-08-11T15:09:23.000Z</Time>
            <Position>
              <LatitudeDegrees>43.30977438949048519134521484375</LatitudeDegrees>
              <LongitudeDegrees>-1.8927043117582798004150390625</LongitudeDegrees>
            </Position>
            <AltitudeMeters>16</AltitudeMeters>
            <DistanceMeters>NAN</DistanceMeters>
          </Trackpoint>
          <Trackpoint>
            <Time>2021-08-11T15:09:30.000Z</Time>
            <Position>
              <LatitudeDegrees>43.3099164627492427825927734375</LatitudeDegrees>
              <LongitudeDegrees>-1.89291327260434627532958984375</LongitudeDegrees>
            </Position>
            <AltitudeMeters>15.3999996185302734375</AltitudeMeters>
            <DistanceMeters>NAN</DistanceMeters>
          </Trackpoint>
          <Trackpoint>
            <Time>2021-08-11T15:09:37.000Z</Time>
            <Position>
              <LatitudeDegrees>43.31008695065975189208984375</LatitudeDegrees>
              <LongitudeDegrees>-1.893143691122531890869140625</LongitudeDegrees>
            </Position>
            <AltitudeMeters>15.19999980926513671875</AltitudeMeters>
            <DistanceMeters>NAN</DistanceMeters>
          </Trackpoint>
          <Trackpoint>
            <Time>2021-08-11T15:09:45.000Z</Time>
            <Position>
              <LatitudeDegrees>43.31028903834521770477294921875</LatitudeDegrees>
              <LongitudeDegrees>-1.8934104032814502716064453125</LongitudeDegrees>
            </Position>
            <AltitudeMeters>15.19999980926513671875</AltitudeMeters>
            <DistanceMeters>NAN</DistanceMeters>
          </Trackpoint>
          <Trackpoint>
            <Time>2021-08-11T15:09:52.000Z</Time>
            <Position>
              <LatitudeDegrees>43.31045801751315593719482421875</LatitudeDegrees>
              <LongitudeDegrees>-1.89365557394921779632568359375</LongitudeDegrees>
            </Position>
            <AltitudeMeters>15</AltitudeMeters>
            <DistanceMeters>NAN</DistanceMeters>
          </Trackpoint>
          <Trackpoint>
            <Time>2021-08-11T15:09:55.000Z</Time>
            <Position>
              <LatitudeDegrees>43.310524486005306243896484375</LatitudeDegrees>
              <LongitudeDegrees>-1.8937560729682445526123046875</LongitudeDegrees>
            </Position>
            <AltitudeMeters>15</AltitudeMeters>
            <DistanceMeters>NAN</DistanceMeters>
          </Trackpoint>
          <Trackpoint>
            <Time>2021-08-11T15:09:58.000Z</Time>
            <Position>
              <LatitudeDegrees>43.3106010966002941131591796875</LatitudeDegrees>
              <LongitudeDegrees>-1.89385925419628620147705078125</LongitudeDegrees>
            </Position>
            <AltitudeMeters>14.80000019073486328125</AltitudeMeters>
            <DistanceMeters>NAN</DistanceMeters>
          </Trackpoint>
          <Trackpoint>
            <Time>2021-08-11T15:09:59.000Z</Time>
            <Position>
              <LatitudeDegrees>43.3106269128620624542236328125</LatitudeDegrees>
              <LongitudeDegrees>-1.89389479346573352813720703125</LongitudeDegrees>
            </Position>
            <AltitudeMeters>14.80000019073486328125</AltitudeMeters>
            <DistanceMeters>NAN</DistanceMeters>
          </Trackpoint>
          <Trackpoint>
            <Time>2021-08-11T15:10:00.000Z</Time>
            <Position>
              <LatitudeDegrees>43.31065298058092594146728515625</LatitudeDegrees>
              <LongitudeDegrees>-1.89392781816422939300537109375</LongitudeDegrees>
            </Position>
            <AltitudeMeters>14.80000019073486328125</AltitudeMeters>
            <DistanceMeters>NAN</DistanceMeters>
          </Trackpoint>
          <Trackpoint>
            <Time>2021-08-11T15:10:03.000Z</Time>
            <Position>
              <LatitudeDegrees>43.31072472967207431793212890625</LatitudeDegrees>
              <LongitudeDegrees>-1.8940299935638904571533203125</LongitudeDegrees>
            </Position>
            <AltitudeMeters>14.80000019073486328125</AltitudeMeters>
            <DistanceMeters>NAN</DistanceMeters>
          </Trackpoint>
          <Trackpoint>
            <Time>2021-08-11T15:10:09.000Z</Time>
            <Position>
              <LatitudeDegrees>43.31088197417557239532470703125</LatitudeDegrees>
              <LongitudeDegrees>-1.8942375294864177703857421875</LongitudeDegrees>
            </Position>
            <AltitudeMeters>14.80000019073486328125</AltitudeMeters>
            <DistanceMeters>NAN</DistanceMeters>
          </Trackpoint>
          <Trackpoint>
            <Time>2021-08-11T15:10:10.000Z</Time>
            <Position>
              <LatitudeDegrees>43.31090502440929412841796875</LatitudeDegrees>
              <LongitudeDegrees>-1.894274242222309112548828125</LongitudeDegrees>
            </Position>
            <AltitudeMeters>14.80000019073486328125</AltitudeMeters>
            <DistanceMeters>NAN</DistanceMeters>
          </Trackpoint>
          <Trackpoint>
            <Time>2021-08-11T15:10:16.000Z</Time>
            <Position>
              <LatitudeDegrees>43.31104994751513004302978515625</LatitudeDegrees>
              <LongitudeDegrees>-1.89447037875652313232421875</LongitudeDegrees>
            </Position>
            <AltitudeMeters>14.80000019073486328125</AltitudeMeters>
            <DistanceMeters>NAN</DistanceMeters>
          </Trackpoint>
          <Trackpoint>
            <Time>2021-08-11T15:10:17.000Z</Time>
            <Position>
              <LatitudeDegrees>43.3110721595585346221923828125</LatitudeDegrees>
              <LongitudeDegrees>-1.894497536122798919677734375</LongitudeDegrees>
            </Position>
            <AltitudeMeters>14.80000019073486328125</AltitudeMeters>
            <DistanceMeters>NAN</DistanceMeters>
          </Trackpoint>
          <Trackpoint>
            <Time>2021-08-11T15:10:18.000Z</Time>
            <Position>
              <LatitudeDegrees>43.31109252758324146270751953125</LatitudeDegrees>
              <LongitudeDegrees>-1.89452276565134525299072265625</LongitudeDegrees>
            </Position>
            <AltitudeMeters>14.80000019073486328125</AltitudeMeters>
            <DistanceMeters>NAN</DistanceMeters>
          </Trackpoint>
          <Trackpoint>
            <Time>2021-08-11T15:10:19.000Z</Time>
            <Position>
              <LatitudeDegrees>43.3111160807311534881591796875</LatitudeDegrees>
              <LongitudeDegrees>-1.89454958774149417877197265625</LongitudeDegrees>
            </Position>
            <AltitudeMeters>15</AltitudeMeters>
            <DistanceMeters>NAN</DistanceMeters>
          </Trackpoint>
          <Trackpoint>
            <Time>2021-08-11T15:10:20.000Z</Time>
            <Position>
              <LatitudeDegrees>43.311134688556194305419921875</LatitudeDegrees>
              <LongitudeDegrees>-1.89457272179424762725830078125</LongitudeDegrees>
            </Position>
            <AltitudeMeters>15</AltitudeMeters>
            <DistanceMeters>NAN</DistanceMeters>
          </Trackpoint>
          <Trackpoint>
            <Time>2021-08-11T15:10:21.000Z</Time>
            <Position>
              <LatitudeDegrees>43.31115312874317169189453125</LatitudeDegrees>
              <LongitudeDegrees>-1.8945986218750476837158203125</LongitudeDegrees>
            </Position>
            <AltitudeMeters>15</AltitudeMeters>
            <DistanceMeters>NAN</DistanceMeters>
          </Trackpoint>
          <Trackpoint>
            <Time>2021-08-11T15:10:23.000Z</Time>
            <Position>
              <LatitudeDegrees>43.31118959002196788787841796875</LatitudeDegrees>
              <LongitudeDegrees>-1.8946438841521739959716796875</LongitudeDegrees>
            </Position>
            <AltitudeMeters>15</AltitudeMeters>
            <DistanceMeters>NAN</DistanceMeters>
          </Trackpoint>
          <Trackpoint>
            <Time>2021-08-11T15:10:24.000Z</Time>
            <Position>
              <LatitudeDegrees>43.3112086169421672821044921875</LatitudeDegrees>
              <LongitudeDegrees>-1.89466123469173908233642578125</LongitudeDegrees>
            </Position>
            <AltitudeMeters>15</AltitudeMeters>
            <DistanceMeters>NAN</DistanceMeters>
          </Trackpoint>
          <Trackpoint>
            <Time>2021-08-11T15:10:25.000Z</Time>
            <Position>
              <LatitudeDegrees>43.31122554838657379150390625</LatitudeDegrees>
              <LongitudeDegrees>-1.89468093216419219970703125</LongitudeDegrees>
            </Position>
            <AltitudeMeters>15.19999980926513671875</AltitudeMeters>
            <DistanceMeters>NAN</DistanceMeters>
          </Trackpoint>
          <Trackpoint>
            <Time>2021-08-11T15:10:26.000Z</Time>
            <Position>
              <LatitudeDegrees>43.3112404681742191314697265625</LatitudeDegrees>
              <LongitudeDegrees>-1.89469861797988414764404296875</LongitudeDegrees>
            </Position>
            <AltitudeMeters>15.19999980926513671875</AltitudeMeters>
            <DistanceMeters>NAN</DistanceMeters>
          </Trackpoint>
          <Trackpoint>
            <Time>2021-08-11T15:10:27.000Z</Time>
            <Position>
              <LatitudeDegrees>43.31125371158123016357421875</LatitudeDegrees>
              <LongitudeDegrees>-1.89471437595784664154052734375</LongitudeDegrees>
            </Position>
            <AltitudeMeters>15.19999980926513671875</AltitudeMeters>
            <DistanceMeters>NAN</DistanceMeters>
          </Trackpoint>
          <Trackpoint>
            <Time>2021-08-11T15:10:28.000Z</Time>
            <Position>
              <LatitudeDegrees>43.3112656138837337493896484375</LatitudeDegrees>
              <LongitudeDegrees>-1.894728206098079681396484375</LongitudeDegrees>
            </Position>
            <AltitudeMeters>15.19999980926513671875</AltitudeMeters>
            <DistanceMeters>NAN</DistanceMeters>
          </Trackpoint>
          <Trackpoint>
            <Time>2021-08-11T15:10:29.000Z</Time>
            <Position>
              <LatitudeDegrees>43.31127625890076160430908203125</LatitudeDegrees>
              <LongitudeDegrees>-1.89474203623831272125244140625</LongitudeDegrees>
            </Position>
            <AltitudeMeters>15.19999980926513671875</AltitudeMeters>
            <DistanceMeters>NAN</DistanceMeters>
          </Trackpoint>
          <Trackpoint>
            <Time>2021-08-11T15:10:30.000Z</Time>
            <Position>
              <LatitudeDegrees>43.3112867362797260284423828125</LatitudeDegrees>
              <LongitudeDegrees>-1.89475335180759429931640625</LongitudeDegrees>
            </Position>
            <AltitudeMeters>15.3999996185302734375</AltitudeMeters>
            <DistanceMeters>NAN</DistanceMeters>
          </Trackpoint>
          <Trackpoint>
            <Time>2021-08-11T15:10:31.000Z</Time>
            <Position>
              <LatitudeDegrees>43.31129620783030986785888671875</LatitudeDegrees>
              <LongitudeDegrees>-1.8947598896920680999755859375</LongitudeDegrees>
            </Position>
            <AltitudeMeters>15.3999996185302734375</AltitudeMeters>
            <DistanceMeters>NAN</DistanceMeters>
          </Trackpoint>
          <Trackpoint>
            <Time>2021-08-11T15:10:32.000Z</Time>
            <Position>
              <LatitudeDegrees>43.31130475737154483795166015625</LatitudeDegrees>
              <LongitudeDegrees>-1.89476902596652507781982421875</LongitudeDegrees>
            </Position>
            <AltitudeMeters>15.3999996185302734375</AltitudeMeters>
            <DistanceMeters>NAN</DistanceMeters>
          </Trackpoint>
          <Trackpoint>
            <Time>2021-08-11T15:10:35.000Z</Time>
            <Position>
              <LatitudeDegrees>43.311322443187236785888671875</LatitudeDegrees>
              <LongitudeDegrees>-1.8947960995137691497802734375</LongitudeDegrees>
            </Position>
            <AltitudeMeters>15.3999996185302734375</AltitudeMeters>
            <DistanceMeters>NAN</DistanceMeters>
          </Trackpoint>
          <Trackpoint>
            <Time>2021-08-11T15:10:36.000Z</Time>
            <Position>
              <LatitudeDegrees>43.31132554449141025543212890625</LatitudeDegrees>
              <LongitudeDegrees>-1.89479635097086429595947265625</LongitudeDegrees>
            </Position>
            <AltitudeMeters>15.3999996185302734375</AltitudeMeters>
            <DistanceMeters>NAN</DistanceMeters>
          </Trackpoint>
          <Trackpoint>
            <Time>2021-08-11T15:10:37.000Z</Time>
            <Position>
              <LatitudeDegrees>43.31132554449141025543212890625</LatitudeDegrees>
              <LongitudeDegrees>-1.89479635097086429595947265625</LongitudeDegrees>
            </Position>
            <AltitudeMeters>15.3999996185302734375</AltitudeMeters>
            <DistanceMeters>NAN</DistanceMeters>
          </Trackpoint>
          <Trackpoint>
            <Time>2021-08-11T15:10:50.000Z</Time>
            <Position>
              <LatitudeDegrees>43.31132554449141025543212890625</LatitudeDegrees>
              <LongitudeDegrees>-1.89479635097086429595947265625</LongitudeDegrees>
            </Position>
            <AltitudeMeters>15.3999996185302734375</AltitudeMeters>
            <DistanceMeters>NAN</DistanceMeters>
          </Trackpoint>
          <Trackpoint>
            <Time>2021-08-11T15:11:41.000Z</Time>
            <Position>
              <LatitudeDegrees>43.31132688559591770172119140625</LatitudeDegrees>
              <LongitudeDegrees>-1.89480339176952838897705078125</LongitudeDegrees>
            </Position>
            <AltitudeMeters>14.6000003814697265625</AltitudeMeters>
            <DistanceMeters>NAN</DistanceMeters>
          </Trackpoint>
          <Trackpoint>
            <Time>2021-08-11T15:11:42.000Z</Time>
            <Position>
              <LatitudeDegrees>43.31133325584232807159423828125</LatitudeDegrees>
              <LongitudeDegrees>-1.8948041461408138275146484375</LongitudeDegrees>
            </Position>
            <AltitudeMeters>14.6000003814697265625</AltitudeMeters>
            <DistanceMeters>NAN</DistanceMeters>
          </Trackpoint>
          <Trackpoint>
            <Time>2021-08-11T15:11:44.000Z</Time>
            <Position>
              <LatitudeDegrees>43.3113413862884044647216796875</LatitudeDegrees>
              <LongitudeDegrees>-1.89481043256819248199462890625</LongitudeDegrees>
            </Position>
            <AltitudeMeters>14.6000003814697265625</AltitudeMeters>
            <DistanceMeters>NAN</DistanceMeters>
          </Trackpoint>
          <Trackpoint>
            <Time>2021-08-11T15:12:06.000Z</Time>
            <Position>
              <LatitudeDegrees>43.3113531209528446197509765625</LatitudeDegrees>
              <LongitudeDegrees>-1.89480431377887725830078125</LongitudeDegrees>
            </Position>
            <AltitudeMeters>14.80000019073486328125</AltitudeMeters>
            <DistanceMeters>NAN</DistanceMeters>
          </Trackpoint>
          <Trackpoint>
            <Time>2021-08-11T15:12:09.000Z</Time>
            <Position>
              <LatitudeDegrees>43.3113531209528446197509765625</LatitudeDegrees>
              <LongitudeDegrees>-1.89480431377887725830078125</LongitudeDegrees>
            </Position>
            <AltitudeMeters>15</AltitudeMeters>
            <DistanceMeters>NAN</DistanceMeters>
          </Trackpoint>
          <Trackpoint>
            <Time>2021-08-11T15:12:57.000Z</Time>
            <Position>
              <LatitudeDegrees>43.3113531209528446197509765625</LatitudeDegrees>
              <LongitudeDegrees>-1.89480431377887725830078125</LongitudeDegrees>
            </Position>
            <AltitudeMeters>14.80000019073486328125</AltitudeMeters>
            <DistanceMeters>NAN</DistanceMeters>
          </Trackpoint>
          <Trackpoint>
            <Time>2021-08-11T15:13:33.000Z</Time>
            <Position>
              <LatitudeDegrees>43.3113544620573520660400390625</LatitudeDegrees>
              <LongitudeDegrees>-1.89480523578822612762451171875</LongitudeDegrees>
            </Position>
            <AltitudeMeters>15</AltitudeMeters>
            <DistanceMeters>NAN</DistanceMeters>
          </Trackpoint>
          <Trackpoint>
            <Time>2021-08-11T15:13:36.000Z</Time>
            <Position>
              <LatitudeDegrees>43.3113970421254634857177734375</LatitudeDegrees>
              <LongitudeDegrees>-1.89483323134481906890869140625</LongitudeDegrees>
            </Position>
            <AltitudeMeters>15.19999980926513671875</AltitudeMeters>
            <DistanceMeters>NAN</DistanceMeters>
          </Trackpoint>
          <Trackpoint>
            <Time>2021-08-11T15:13:37.000Z</Time>
            <Position>
              <LatitudeDegrees>43.31141506321728229522705078125</LatitudeDegrees>
              <LongitudeDegrees>-1.894833482801914215087890625</LongitudeDegrees>
            </Position>
            <AltitudeMeters>15</AltitudeMeters>
            <DistanceMeters>NAN</DistanceMeters>
          </Trackpoint>
          <Trackpoint>
            <Time>2021-08-11T15:13:40.000Z</Time>
            <Position>
              <LatitudeDegrees>43.31146753393113613128662109375</LatitudeDegrees>
              <LongitudeDegrees>-1.89479165710508823394775390625</LongitudeDegrees>
            </Position>
            <AltitudeMeters>15</AltitudeMeters>
            <DistanceMeters>NAN</DistanceMeters>
          </Trackpoint>
          <Trackpoint>
            <Time>2021-08-11T15:13:41.000Z</Time>
            <Position>
              <LatitudeDegrees>43.3114845491945743560791015625</LatitudeDegrees>
              <LongitudeDegrees>-1.8947686068713665008544921875</LongitudeDegrees>
            </Position>
            <AltitudeMeters>15.19999980926513671875</AltitudeMeters>
            <DistanceMeters>NAN</DistanceMeters>
          </Trackpoint>
          <Trackpoint>
            <Time>2021-08-11T15:13:42.000Z</Time>
            <Position>
              <LatitudeDegrees>43.31150181591510772705078125</LatitudeDegrees>
              <LongitudeDegrees>-1.89474530518054962158203125</LongitudeDegrees>
            </Position>
            <AltitudeMeters>15.19999980926513671875</AltitudeMeters>
            <DistanceMeters>NAN</DistanceMeters>
          </Trackpoint>
          <Trackpoint>
            <Time>2021-08-11T15:13:43.000Z</Time>
            <Position>
              <LatitudeDegrees>43.3115158975124359130859375</LatitudeDegrees>
              <LongitudeDegrees>-1.89472091384232044219970703125</LongitudeDegrees>
            </Position>
            <AltitudeMeters>15.19999980926513671875</AltitudeMeters>
            <DistanceMeters>NAN</DistanceMeters>
          </Trackpoint>
          <Trackpoint>
            <Time>2021-08-11T15:13:45.000Z</Time>
            <Position>
              <LatitudeDegrees>43.31154431216418743133544921875</LatitudeDegrees>
              <LongitudeDegrees>-1.89467347227036952972412109375</LongitudeDegrees>
            </Position>
            <AltitudeMeters>15.19999980926513671875</AltitudeMeters>
            <DistanceMeters>NAN</DistanceMeters>
          </Trackpoint>
          <Trackpoint>
            <Time>2021-08-11T15:13:46.000Z</Time>
            <Position>
              <LatitudeDegrees>43.311555795371532440185546875</LatitudeDegrees>
              <LongitudeDegrees>-1.89464530907571315765380859375</LongitudeDegrees>
            </Position>
            <AltitudeMeters>15.19999980926513671875</AltitudeMeters>
            <DistanceMeters>NAN</DistanceMeters>
          </Trackpoint>
          <Trackpoint>
            <Time>2021-08-11T15:13:48.000Z</Time>
            <Position>
              <LatitudeDegrees>43.31156644038856029510498046875</LatitudeDegrees>
              <LongitudeDegrees>-1.8945842050015926361083984375</LongitudeDegrees>
            </Position>
            <AltitudeMeters>15.19999980926513671875</AltitudeMeters>
            <DistanceMeters>NAN</DistanceMeters>
          </Trackpoint>
          <Trackpoint>
            <Time>2021-08-11T15:13:49.000Z</Time>
            <Position>
              <LatitudeDegrees>43.31156962551176548004150390625</LatitudeDegrees>
              <LongitudeDegrees>-1.89455713145434856414794921875</LongitudeDegrees>
            </Position>
            <AltitudeMeters>15.19999980926513671875</AltitudeMeters>
            <DistanceMeters>NAN</DistanceMeters>
          </Trackpoint>
          <Trackpoint>
            <Time>2021-08-11T15:13:51.000Z</Time>
            <Position>
              <LatitudeDegrees>43.31156828440725803375244140625</LatitudeDegrees>
              <LongitudeDegrees>-1.89449946396052837371826171875</LongitudeDegrees>
            </Position>
            <AltitudeMeters>15</AltitudeMeters>
            <DistanceMeters>NAN</DistanceMeters>
          </Trackpoint>
          <Trackpoint>
            <Time>2021-08-11T15:13:52.000Z</Time>
            <Position>
              <LatitudeDegrees>43.3115653507411479949951171875</LatitudeDegrees>
              <LongitudeDegrees>-1.8944752402603626251220703125</LongitudeDegrees>
            </Position>
            <AltitudeMeters>15</AltitudeMeters>
            <DistanceMeters>NAN</DistanceMeters>
          </Trackpoint>
          <Trackpoint>
            <Time>2021-08-11T15:13:53.000Z</Time>
            <Position>
              <LatitudeDegrees>43.3115623332560062408447265625</LatitudeDegrees>
              <LongitudeDegrees>-1.8944549560546875</LongitudeDegrees>
            </Position>
            <AltitudeMeters>15</AltitudeMeters>
            <DistanceMeters>NAN</DistanceMeters>
          </Trackpoint>
          <Trackpoint>
            <Time>2021-08-11T15:13:54.000Z</Time>
            <Position>
              <LatitudeDegrees>43.31155805848538875579833984375</LatitudeDegrees>
              <LongitudeDegrees>-1.89443525858223438262939453125</LongitudeDegrees>
            </Position>
            <AltitudeMeters>15</AltitudeMeters>
            <DistanceMeters>NAN</DistanceMeters>
          </Trackpoint>
          <Trackpoint>
            <Time>2021-08-11T15:13:55.000Z</Time>
            <Position>
              <LatitudeDegrees>43.311555795371532440185546875</LatitudeDegrees>
              <LongitudeDegrees>-1.8944135494530200958251953125</LongitudeDegrees>
            </Position>
            <AltitudeMeters>15</AltitudeMeters>
            <DistanceMeters>NAN</DistanceMeters>
          </Trackpoint>
          <Trackpoint>
            <Time>2021-08-11T15:13:56.000Z</Time>
            <Position>
              <LatitudeDegrees>43.3115569688379764556884765625</LatitudeDegrees>
              <LongitudeDegrees>-1.89439083449542522430419921875</LongitudeDegrees>
            </Position>
            <AltitudeMeters>15</AltitudeMeters>
            <DistanceMeters>NAN</DistanceMeters>
          </Trackpoint>
          <Trackpoint>
            <Time>2021-08-11T15:13:57.000Z</Time>
            <Position>
              <LatitudeDegrees>43.31156308762729167938232421875</LatitudeDegrees>
              <LongitudeDegrees>-1.89436870627105236053466796875</LongitudeDegrees>
            </Position>
            <AltitudeMeters>15</AltitudeMeters>
            <DistanceMeters>NAN</DistanceMeters>
          </Trackpoint>
          <Trackpoint>
            <Time>2021-08-11T15:13:58.000Z</Time>
            <Position>
              <LatitudeDegrees>43.31157431937754154205322265625</LatitudeDegrees>
              <LongitudeDegrees>-1.8943545408546924591064453125</LongitudeDegrees>
            </Position>
            <AltitudeMeters>14.80000019073486328125</AltitudeMeters>
            <DistanceMeters>NAN</DistanceMeters>
          </Trackpoint>
          <Trackpoint>
            <Time>2021-08-11T15:13:59.000Z</Time>
            <Position>
              <LatitudeDegrees>43.3115871436893939971923828125</LatitudeDegrees>
              <LongitudeDegrees>-1.894350349903106689453125</LongitudeDegrees>
            </Position>
            <AltitudeMeters>14.80000019073486328125</AltitudeMeters>
            <DistanceMeters>NAN</DistanceMeters>
          </Trackpoint>
          <Trackpoint>
            <Time>2021-08-11T15:14:00.000Z</Time>
            <Position>
              <LatitudeDegrees>43.31159946508705615997314453125</LatitudeDegrees>
              <LongitudeDegrees>-1.89434808678925037384033203125</LongitudeDegrees>
            </Position>
            <AltitudeMeters>14.80000019073486328125</AltitudeMeters>
            <DistanceMeters>NAN</DistanceMeters>
          </Trackpoint>
          <Trackpoint>
            <Time>2021-08-11T15:14:01.000Z</Time>
            <Position>
              <LatitudeDegrees>43.31161036156117916107177734375</LatitudeDegrees>
              <LongitudeDegrees>-1.89434775151312351226806640625</LongitudeDegrees>
            </Position>
            <AltitudeMeters>14.80000019073486328125</AltitudeMeters>
            <DistanceMeters>NAN</DistanceMeters>
          </Trackpoint>
          <Trackpoint>
            <Time>2021-08-11T15:14:02.000Z</Time>
            <Position>
              <LatitudeDegrees>43.31162117421627044677734375</LatitudeDegrees>
              <LongitudeDegrees>-1.89435261301696300506591796875</LongitudeDegrees>
            </Position>
            <AltitudeMeters>14.80000019073486328125</AltitudeMeters>
            <DistanceMeters>NAN</DistanceMeters>
          </Trackpoint>
          <Trackpoint>
            <Time>2021-08-11T15:14:03.000Z</Time>
            <Position>
              <LatitudeDegrees>43.31163114868104457855224609375</LatitudeDegrees>
              <LongitudeDegrees>-1.89436250366270542144775390625</LongitudeDegrees>
            </Position>
            <AltitudeMeters>14.80000019073486328125</AltitudeMeters>
            <DistanceMeters>NAN</DistanceMeters>
          </Trackpoint>
          <Trackpoint>
            <Time>2021-08-11T15:14:04.000Z</Time>
            <Position>
              <LatitudeDegrees>43.31163592636585235595703125</LatitudeDegrees>
              <LongitudeDegrees>-1.8943736515939235687255859375</LongitudeDegrees>
            </Position>
            <AltitudeMeters>14.80000019073486328125</AltitudeMeters>
            <DistanceMeters>NAN</DistanceMeters>
          </Trackpoint>
          <Trackpoint>
            <Time>2021-08-11T15:14:05.000Z</Time>
            <Position>
              <LatitudeDegrees>43.3116397820413112640380859375</LatitudeDegrees>
              <LongitudeDegrees>-1.89438379369676113128662109375</LongitudeDegrees>
            </Position>
            <AltitudeMeters>14.80000019073486328125</AltitudeMeters>
            <DistanceMeters>NAN</DistanceMeters>
          </Trackpoint>
          <Trackpoint>
            <Time>2021-08-11T15:14:06.000Z</Time>
            <Position>
              <LatitudeDegrees>43.31164665520191192626953125</LatitudeDegrees>
              <LongitudeDegrees>-1.89439938403666019439697265625</LongitudeDegrees>
            </Position>
            <AltitudeMeters>14.80000019073486328125</AltitudeMeters>
            <DistanceMeters>NAN</DistanceMeters>
          </Trackpoint>
          <Trackpoint>
            <Time>2021-08-11T15:14:07.000Z</Time>
            <Position>
              <LatitudeDegrees>43.311654031276702880859375</LatitudeDegrees>
              <LongitudeDegrees>-1.89441631548106670379638671875</LongitudeDegrees>
            </Position>
            <AltitudeMeters>14.80000019073486328125</AltitudeMeters>
            <DistanceMeters>NAN</DistanceMeters>
          </Trackpoint>
          <Trackpoint>
            <Time>2021-08-11T15:14:08.000Z</Time>
            <Position>
              <LatitudeDegrees>43.31166232936084270477294921875</LatitudeDegrees>
              <LongitudeDegrees>-1.894434504210948944091796875</LongitudeDegrees>
            </Position>
            <AltitudeMeters>14.80000019073486328125</AltitudeMeters>
            <DistanceMeters>NAN</DistanceMeters>
          </Trackpoint>
          <Trackpoint>
            <Time>2021-08-11T15:14:10.000Z</Time>
            <Position>
              <LatitudeDegrees>43.31168931908905506134033203125</LatitudeDegrees>
              <LongitudeDegrees>-1.89447985030710697174072265625</LongitudeDegrees>
            </Position>
            <AltitudeMeters>15</AltitudeMeters>
            <DistanceMeters>NAN</DistanceMeters>
          </Trackpoint>
          <Trackpoint>
            <Time>2021-08-11T15:14:12.000Z</Time>
            <Position>
              <LatitudeDegrees>43.3117085136473178863525390625</LatitudeDegrees>
              <LongitudeDegrees>-1.8945345841348171234130859375</LongitudeDegrees>
            </Position>
            <AltitudeMeters>15</AltitudeMeters>
            <DistanceMeters>NAN</DistanceMeters>
          </Trackpoint>
          <Trackpoint>
            <Time>2021-08-11T15:14:14.000Z</Time>
            <Position>
              <LatitudeDegrees>43.31172569654881954193115234375</LatitudeDegrees>
              <LongitudeDegrees>-1.89458797685801982879638671875</LongitudeDegrees>
            </Position>
            <AltitudeMeters>15</AltitudeMeters>
            <DistanceMeters>NAN</DistanceMeters>
          </Trackpoint>
          <Trackpoint>
            <Time>2021-08-11T15:14:15.000Z</Time>
            <Position>
              <LatitudeDegrees>43.31173340789973735809326171875</LatitudeDegrees>
              <LongitudeDegrees>-1.89461614005267620086669921875</LongitudeDegrees>
            </Position>
            <AltitudeMeters>15</AltitudeMeters>
            <DistanceMeters>NAN</DistanceMeters>
          </Trackpoint>
          <Trackpoint>
            <Time>2021-08-11T15:14:16.000Z</Time>
            <Position>
              <LatitudeDegrees>43.31174095161259174346923828125</LatitudeDegrees>
              <LongitudeDegrees>-1.89464262686669826507568359375</LongitudeDegrees>
            </Position>
            <AltitudeMeters>15.19999980926513671875</AltitudeMeters>
            <DistanceMeters>NAN</DistanceMeters>
          </Trackpoint>
          <Trackpoint>
            <Time>2021-08-11T15:14:19.000Z</Time>
            <Position>
              <LatitudeDegrees>43.31177162937819957733154296875</LatitudeDegrees>
              <LongitudeDegrees>-1.89472854137420654296875</LongitudeDegrees>
            </Position>
            <AltitudeMeters>15.19999980926513671875</AltitudeMeters>
            <DistanceMeters>NAN</DistanceMeters>
          </Trackpoint>
          <Trackpoint>
            <Time>2021-08-11T15:14:26.000Z</Time>
            <Position>
              <LatitudeDegrees>43.31185092218220233917236328125</LatitudeDegrees>
              <LongitudeDegrees>-1.89493381418287754058837890625</LongitudeDegrees>
            </Position>
            <AltitudeMeters>15.3999996185302734375</AltitudeMeters>
            <DistanceMeters>NAN</DistanceMeters>
          </Trackpoint>
          <Trackpoint>
            <Time>2021-08-11T15:14:33.000Z</Time>
            <Position>
              <LatitudeDegrees>43.31198587082326412200927734375</LatitudeDegrees>
              <LongitudeDegrees>-1.89518678002059459686279296875</LongitudeDegrees>
            </Position>
            <AltitudeMeters>15.19999980926513671875</AltitudeMeters>
            <DistanceMeters>NAN</DistanceMeters>
          </Trackpoint>
          <Trackpoint>
            <Time>2021-08-11T15:14:34.000Z</Time>
            <Position>
              <LatitudeDegrees>43.31201068125665187835693359375</LatitudeDegrees>
              <LongitudeDegrees>-1.89522550441324710845947265625</LongitudeDegrees>
            </Position>
            <AltitudeMeters>15.19999980926513671875</AltitudeMeters>
            <DistanceMeters>NAN</DistanceMeters>
          </Trackpoint>
          <Trackpoint>
            <Time>2021-08-11T15:14:35.000Z</Time>
            <Position>
              <LatitudeDegrees>43.312031887471675872802734375</LatitudeDegrees>
              <LongitudeDegrees>-1.895265318453311920166015625</LongitudeDegrees>
            </Position>
            <AltitudeMeters>15.19999980926513671875</AltitudeMeters>
            <DistanceMeters>NAN</DistanceMeters>
          </Trackpoint>
          <Trackpoint>
            <Time>2021-08-11T15:14:39.000Z</Time>
            <Position>
              <LatitudeDegrees>43.3121138624846935272216796875</LatitudeDegrees>
              <LongitudeDegrees>-1.89543019048869609832763671875</LongitudeDegrees>
            </Position>
            <AltitudeMeters>15</AltitudeMeters>
            <DistanceMeters>NAN</DistanceMeters>
          </Trackpoint>
          <Trackpoint>
            <Time>2021-08-11T15:14:44.000Z</Time>
            <Position>
              <LatitudeDegrees>43.31221620552241802215576171875</LatitudeDegrees>
              <LongitudeDegrees>-1.8956423364579677581787109375</LongitudeDegrees>
            </Position>
            <AltitudeMeters>14.80000019073486328125</AltitudeMeters>
            <DistanceMeters>NAN</DistanceMeters>
          </Trackpoint>
          <Trackpoint>
            <Time>2021-08-11T15:14:45.000Z</Time>
            <Position>
              <LatitudeDegrees>43.31223615445196628570556640625</LatitudeDegrees>
              <LongitudeDegrees>-1.8956798873841762542724609375</LongitudeDegrees>
            </Position>
            <AltitudeMeters>14.6000003814697265625</AltitudeMeters>
            <DistanceMeters>NAN</DistanceMeters>
          </Trackpoint>
          <Trackpoint>
            <Time>2021-08-11T15:14:46.000Z</Time>
            <Position>
              <LatitudeDegrees>43.312255851924419403076171875</LatitudeDegrees>
              <LongitudeDegrees>-1.89571483992040157318115234375</LongitudeDegrees>
            </Position>
            <AltitudeMeters>14.6000003814697265625</AltitudeMeters>
            <DistanceMeters>NAN</DistanceMeters>
          </Trackpoint>
          <Trackpoint>
            <Time>2021-08-11T15:14:48.000Z</Time>
            <Position>
              <LatitudeDegrees>43.312288708984851837158203125</LatitudeDegrees>
              <LongitudeDegrees>-1.8957885168492794036865234375</LongitudeDegrees>
            </Position>
            <AltitudeMeters>14.6000003814697265625</AltitudeMeters>
            <DistanceMeters>NAN</DistanceMeters>
          </Trackpoint>
          <Trackpoint>
            <Time>2021-08-11T15:14:49.000Z</Time>
            <Position>
              <LatitudeDegrees>43.31230656243860721588134765625</LatitudeDegrees>
              <LongitudeDegrees>-1.89583067782223224639892578125</LongitudeDegrees>
            </Position>
            <AltitudeMeters>14.6000003814697265625</AltitudeMeters>
            <DistanceMeters>NAN</DistanceMeters>
          </Trackpoint>
          <Trackpoint>
            <Time>2021-08-11T15:14:50.000Z</Time>
            <Position>
              <LatitudeDegrees>43.31232123076915740966796875</LatitudeDegrees>
              <LongitudeDegrees>-1.89587158150970935821533203125</LongitudeDegrees>
            </Position>
            <AltitudeMeters>14.3999996185302734375</AltitudeMeters>
            <DistanceMeters>NAN</DistanceMeters>
          </Trackpoint>
          <Trackpoint>
            <Time>2021-08-11T15:14:51.000Z</Time>
            <Position>
              <LatitudeDegrees>43.31233707256615161895751953125</LatitudeDegrees>
              <LongitudeDegrees>-1.895911060273647308349609375</LongitudeDegrees>
            </Position>
            <AltitudeMeters>14.3999996185302734375</AltitudeMeters>
            <DistanceMeters>NAN</DistanceMeters>
          </Trackpoint>
          <Trackpoint>
            <Time>2021-08-11T15:14:52.000Z</Time>
            <Position>
              <LatitudeDegrees>43.3123505674302577972412109375</LatitudeDegrees>
              <LongitudeDegrees>-1.89594953320920467376708984375</LongitudeDegrees>
            </Position>
            <AltitudeMeters>14.3999996185302734375</AltitudeMeters>
            <DistanceMeters>NAN</DistanceMeters>
          </Trackpoint>
          <Trackpoint>
            <Time>2021-08-11T15:14:53.000Z</Time>
            <Position>
              <LatitudeDegrees>43.3123619668185710906982421875</LatitudeDegrees>
              <LongitudeDegrees>-1.895988173782825469970703125</LongitudeDegrees>
            </Position>
            <AltitudeMeters>14.3999996185302734375</AltitudeMeters>
            <DistanceMeters>NAN</DistanceMeters>
          </Trackpoint>
          <Trackpoint>
            <Time>2021-08-11T15:14:54.000Z</Time>
            <Position>
              <LatitudeDegrees>43.312376551330089569091796875</LatitudeDegrees>
              <LongitudeDegrees>-1.8960188515484333038330078125</LongitudeDegrees>
            </Position>
            <AltitudeMeters>14.3999996185302734375</AltitudeMeters>
            <DistanceMeters>NAN</DistanceMeters>
          </Trackpoint>
          <Trackpoint>
            <Time>2021-08-11T15:14:56.000Z</Time>
            <Position>
              <LatitudeDegrees>43.31242307089269161224365234375</LatitudeDegrees>
              <LongitudeDegrees>-1.8960959650576114654541015625</LongitudeDegrees>
            </Position>
            <AltitudeMeters>14.19999980926513671875</AltitudeMeters>
            <DistanceMeters>NAN</DistanceMeters>
          </Trackpoint>
          <Trackpoint>
            <Time>2021-08-11T15:14:57.000Z</Time>
            <Position>
              <LatitudeDegrees>43.312444947659969329833984375</LatitudeDegrees>
              <LongitudeDegrees>-1.8961311690509319305419921875</LongitudeDegrees>
            </Position>
            <AltitudeMeters>14.19999980926513671875</AltitudeMeters>
            <DistanceMeters>NAN</DistanceMeters>
          </Trackpoint>
          <Trackpoint>
            <Time>2021-08-11T15:15:04.000Z</Time>
            <Position>
              <LatitudeDegrees>43.312597163021564483642578125</LatitudeDegrees>
              <LongitudeDegrees>-1.89644289202988147735595703125</LongitudeDegrees>
            </Position>
            <AltitudeMeters>14.19999980926513671875</AltitudeMeters>
            <DistanceMeters>NAN</DistanceMeters>
          </Trackpoint>
          <Trackpoint>
            <Time>2021-08-11T15:15:11.000Z</Time>
            <Position>
              <LatitudeDegrees>43.31274325959384441375732421875</LatitudeDegrees>
              <LongitudeDegrees>-1.896738521754741668701171875</LongitudeDegrees>
            </Position>
            <AltitudeMeters>13.80000019073486328125</AltitudeMeters>
            <DistanceMeters>NAN</DistanceMeters>
          </Trackpoint>
          <Trackpoint>
            <Time>2021-08-11T15:15:12.000Z</Time>
            <Position>
              <LatitudeDegrees>43.31275884993374347686767578125</LatitudeDegrees>
              <LongitudeDegrees>-1.8967738933861255645751953125</LongitudeDegrees>
            </Position>
            <AltitudeMeters>13.80000019073486328125</AltitudeMeters>
            <DistanceMeters>NAN</DistanceMeters>
          </Trackpoint>
          <Trackpoint>
            <Time>2021-08-11T15:15:13.000Z</Time>
            <Position>
              <LatitudeDegrees>43.312769830226898193359375</LatitudeDegrees>
              <LongitudeDegrees>-1.89680012874305248260498046875</LongitudeDegrees>
            </Position>
            <AltitudeMeters>13.80000019073486328125</AltitudeMeters>
            <DistanceMeters>NAN</DistanceMeters>
          </Trackpoint>
          <Trackpoint>
            <Time>2021-08-11T15:15:14.000Z</Time>
            <Position>
              <LatitudeDegrees>43.3127844147384166717529296875</LatitudeDegrees>
              <LongitudeDegrees>-1.89683608710765838623046875</LongitudeDegrees>
            </Position>
            <AltitudeMeters>13.80000019073486328125</AltitudeMeters>
            <DistanceMeters>NAN</DistanceMeters>
          </Trackpoint>
          <Trackpoint>
            <Time>2021-08-11T15:15:15.000Z</Time>
            <Position>
              <LatitudeDegrees>43.3127951435744762420654296875</LatitudeDegrees>
              <LongitudeDegrees>-1.8968600593507289886474609375</LongitudeDegrees>
            </Position>
            <AltitudeMeters>13.80000019073486328125</AltitudeMeters>
            <DistanceMeters>NAN</DistanceMeters>
          </Trackpoint>
          <Trackpoint>
            <Time>2021-08-11T15:15:16.000Z</Time>
            <Position>
              <LatitudeDegrees>43.312810398638248443603515625</LatitudeDegrees>
              <LongitudeDegrees>-1.89689618535339832305908203125</LongitudeDegrees>
            </Position>
            <AltitudeMeters>13.80000019073486328125</AltitudeMeters>
            <DistanceMeters>NAN</DistanceMeters>
          </Trackpoint>
          <Trackpoint>
            <Time>2021-08-11T15:15:18.000Z</Time>
            <Position>
              <LatitudeDegrees>43.31283613108098506927490234375</LatitudeDegrees>
              <LongitudeDegrees>-1.8969566188752651214599609375</LongitudeDegrees>
            </Position>
            <AltitudeMeters>13.80000019073486328125</AltitudeMeters>
            <DistanceMeters>NAN</DistanceMeters>
          </Trackpoint>
          <Trackpoint>
            <Time>2021-08-11T15:15:27.000Z</Time>
            <Position>
              <LatitudeDegrees>43.3129788748919963836669921875</LatitudeDegrees>
              <LongitudeDegrees>-1.897238753736019134521484375</LongitudeDegrees>
            </Position>
            <AltitudeMeters>13.80000019073486328125</AltitudeMeters>
            <DistanceMeters>NAN</DistanceMeters>
          </Trackpoint>
          <Trackpoint>
            <Time>2021-08-11T15:15:30.000Z</Time>
            <Position>
              <LatitudeDegrees>43.31302003003656864166259765625</LatitudeDegrees>
              <LongitudeDegrees>-1.8973120115697383880615234375</LongitudeDegrees>
            </Position>
            <AltitudeMeters>13.80000019073486328125</AltitudeMeters>
            <DistanceMeters>NAN</DistanceMeters>
          </Trackpoint>
          <Trackpoint>
            <Time>2021-08-11T15:15:31.000Z</Time>
            <Position>
              <LatitudeDegrees>43.31304073333740234375</LatitudeDegrees>
              <LongitudeDegrees>-1.89732156693935394287109375</LongitudeDegrees>
            </Position>
            <AltitudeMeters>13.80000019073486328125</AltitudeMeters>
            <DistanceMeters>NAN</DistanceMeters>
          </Trackpoint>
          <Trackpoint>
            <Time>2021-08-11T15:15:32.000Z</Time>
            <Position>
              <LatitudeDegrees>43.31306344829499721527099609375</LatitudeDegrees>
              <LongitudeDegrees>-1.8973213993012905120849609375</LongitudeDegrees>
            </Position>
            <AltitudeMeters>13.80000019073486328125</AltitudeMeters>
            <DistanceMeters>NAN</DistanceMeters>
          </Trackpoint>
          <Trackpoint>
            <Time>2021-08-11T15:15:33.000Z</Time>
            <Position>
              <LatitudeDegrees>43.3130868338048458099365234375</LatitudeDegrees>
              <LongitudeDegrees>-1.89731528051197528839111328125</LongitudeDegrees>
            </Position>
            <AltitudeMeters>13.80000019073486328125</AltitudeMeters>
            <DistanceMeters>NAN</DistanceMeters>
          </Trackpoint>
          <Trackpoint>
            <Time>2021-08-11T15:15:34.000Z</Time>
            <Position>
              <LatitudeDegrees>43.31310787238180637359619140625</LatitudeDegrees>
              <LongitudeDegrees>-1.89730404876172542572021484375</LongitudeDegrees>
            </Position>
            <AltitudeMeters>13.80000019073486328125</AltitudeMeters>
            <DistanceMeters>NAN</DistanceMeters>
          </Trackpoint>
          <Trackpoint>
            <Time>2021-08-11T15:15:35.000Z</Time>
            <Position>
              <LatitudeDegrees>43.3131294138729572296142578125</LatitudeDegrees>
              <LongitudeDegrees>-1.89729013480246067047119140625</LongitudeDegrees>
            </Position>
            <AltitudeMeters>13.80000019073486328125</AltitudeMeters>
            <DistanceMeters>NAN</DistanceMeters>
          </Trackpoint>
          <Trackpoint>
            <Time>2021-08-11T15:15:36.000Z</Time>
            <Position>
              <LatitudeDegrees>43.31315028481185436248779296875</LatitudeDegrees>
              <LongitudeDegrees>-1.897274963557720184326171875</LongitudeDegrees>
            </Position>
            <AltitudeMeters>14</AltitudeMeters>
            <DistanceMeters>NAN</DistanceMeters>
          </Trackpoint>
          <Trackpoint>
            <Time>2021-08-11T15:15:37.000Z</Time>
            <Position>
              <LatitudeDegrees>43.3131736703217029571533203125</LatitudeDegrees>
              <LongitudeDegrees>-1.8972583673894405364990234375</LongitudeDegrees>
            </Position>
            <AltitudeMeters>14.19999980926513671875</AltitudeMeters>
            <DistanceMeters>NAN</DistanceMeters>
          </Trackpoint>
          <Trackpoint>
            <Time>2021-08-11T15:15:38.000Z</Time>
            <Position>
              <LatitudeDegrees>43.3131978102028369903564453125</LatitudeDegrees>
              <LongitudeDegrees>-1.89723850227892398834228515625</LongitudeDegrees>
            </Position>
            <AltitudeMeters>14.19999980926513671875</AltitudeMeters>
            <DistanceMeters>NAN</DistanceMeters>
          </Trackpoint>
          <Trackpoint>
            <Time>2021-08-11T15:15:39.000Z</Time>
            <Position>
              <LatitudeDegrees>43.3132206089794635772705078125</LatitudeDegrees>
              <LongitudeDegrees>-1.8972177989780902862548828125</LongitudeDegrees>
            </Position>
            <AltitudeMeters>14.19999980926513671875</AltitudeMeters>
            <DistanceMeters>NAN</DistanceMeters>
          </Trackpoint>
          <Trackpoint>
            <Time>2021-08-11T15:15:45.000Z</Time>
            <Position>
              <LatitudeDegrees>43.3133741654455661773681640625</LatitudeDegrees>
              <LongitudeDegrees>-1.8970920704305171966552734375</LongitudeDegrees>
            </Position>
            <AltitudeMeters>14.3999996185302734375</AltitudeMeters>
            <DistanceMeters>NAN</DistanceMeters>
          </Trackpoint>
          <Trackpoint>
            <Time>2021-08-11T15:15:48.000Z</Time>
            <Position>
              <LatitudeDegrees>43.31345790065824985504150390625</LatitudeDegrees>
              <LongitudeDegrees>-1.89701973460614681243896484375</LongitudeDegrees>
            </Position>
            <AltitudeMeters>14.19999980926513671875</AltitudeMeters>
            <DistanceMeters>NAN</DistanceMeters>
          </Trackpoint>
          <Trackpoint>
            <Time>2021-08-11T15:15:49.000Z</Time>
            <Position>
              <LatitudeDegrees>43.3134841360151767730712890625</LatitudeDegrees>
              <LongitudeDegrees>-1.897004060447216033935546875</LongitudeDegrees>
            </Position>
            <AltitudeMeters>14.19999980926513671875</AltitudeMeters>
            <DistanceMeters>NAN</DistanceMeters>
          </Trackpoint>
          <Trackpoint>
            <Time>2021-08-11T15:15:51.000Z</Time>
            <Position>
              <LatitudeDegrees>43.3135173283517360687255859375</LatitudeDegrees>
              <LongitudeDegrees>-1.89695552922785282135009765625</LongitudeDegrees>
            </Position>
            <AltitudeMeters>14</AltitudeMeters>
            <DistanceMeters>NAN</DistanceMeters>
          </Trackpoint>
          <Trackpoint>
            <Time>2021-08-11T15:15:52.000Z</Time>
            <Position>
              <LatitudeDegrees>43.313533253967761993408203125</LatitudeDegrees>
              <LongitudeDegrees>-1.8969153799116611480712890625</LongitudeDegrees>
            </Position>
            <AltitudeMeters>14</AltitudeMeters>
            <DistanceMeters>NAN</DistanceMeters>
          </Trackpoint>
          <Trackpoint>
            <Time>2021-08-11T15:15:53.000Z</Time>
            <Position>
              <LatitudeDegrees>43.3135548792779445648193359375</LatitudeDegrees>
              <LongitudeDegrees>-1.8968836963176727294921875</LongitudeDegrees>
            </Position>
            <AltitudeMeters>14</AltitudeMeters>
            <DistanceMeters>NAN</DistanceMeters>
          </Trackpoint>
          <Trackpoint>
            <Time>2021-08-11T15:15:55.000Z</Time>
            <Position>
              <LatitudeDegrees>43.31362419761717319488525390625</LatitudeDegrees>
              <LongitudeDegrees>-1.8968506716191768646240234375</LongitudeDegrees>
            </Position>
            <AltitudeMeters>13.80000019073486328125</AltitudeMeters>
            <DistanceMeters>NAN</DistanceMeters>
          </Trackpoint>
          <Trackpoint>
            <Time>2021-08-11T15:15:57.000Z</Time>
            <Position>
              <LatitudeDegrees>43.31369326449930667877197265625</LatitudeDegrees>
              <LongitudeDegrees>-1.896839775145053863525390625</LongitudeDegrees>
            </Position>
            <AltitudeMeters>13.80000019073486328125</AltitudeMeters>
            <DistanceMeters>NAN</DistanceMeters>
          </Trackpoint>
          <Trackpoint>
            <Time>2021-08-11T15:15:58.000Z</Time>
            <Position>
              <LatitudeDegrees>43.313737101852893829345703125</LatitudeDegrees>
              <LongitudeDegrees>-1.89683265052735805511474609375</LongitudeDegrees>
            </Position>
            <AltitudeMeters>13.80000019073486328125</AltitudeMeters>
            <DistanceMeters>NAN</DistanceMeters>
          </Trackpoint>
          <Trackpoint>
            <Time>2021-08-11T15:16:02.000Z</Time>
            <Position>
              <LatitudeDegrees>43.31387959420680999755859375</LatitudeDegrees>
              <LongitudeDegrees>-1.89684949815273284912109375</LongitudeDegrees>
            </Position>
            <AltitudeMeters>13.80000019073486328125</AltitudeMeters>
            <DistanceMeters>NAN</DistanceMeters>
          </Trackpoint>
          <Trackpoint>
            <Time>2021-08-11T15:16:03.000Z</Time>
            <Position>
              <LatitudeDegrees>43.31395025365054607391357421875</LatitudeDegrees>
              <LongitudeDegrees>-1.89689367078244686126708984375</LongitudeDegrees>
            </Position>
            <AltitudeMeters>14</AltitudeMeters>
            <DistanceMeters>NAN</DistanceMeters>
          </Trackpoint>
          <Trackpoint>
            <Time>2021-08-11T15:16:04.000Z</Time>
            <Position>
              <LatitudeDegrees>43.31398629583418369293212890625</LatitudeDegrees>
              <LongitudeDegrees>-1.896916888654232025146484375</LongitudeDegrees>
            </Position>
            <AltitudeMeters>14</AltitudeMeters>
            <DistanceMeters>NAN</DistanceMeters>
          </Trackpoint>
          <Trackpoint>
            <Time>2021-08-11T15:16:08.000Z</Time>
            <Position>
              <LatitudeDegrees>43.31414588727056980133056640625</LatitudeDegrees>
              <LongitudeDegrees>-1.89700213260948657989501953125</LongitudeDegrees>
            </Position>
            <AltitudeMeters>14</AltitudeMeters>
            <DistanceMeters>NAN</DistanceMeters>
          </Trackpoint>
          <Trackpoint>
            <Time>2021-08-11T15:16:09.000Z</Time>
            <Position>
              <LatitudeDegrees>43.3141858689486980438232421875</LatitudeDegrees>
              <LongitudeDegrees>-1.89702359028160572052001953125</LongitudeDegrees>
            </Position>
            <AltitudeMeters>14.19999980926513671875</AltitudeMeters>
            <DistanceMeters>NAN</DistanceMeters>
          </Trackpoint>
          <Trackpoint>
            <Time>2021-08-11T15:16:14.000Z</Time>
            <Position>
              <LatitudeDegrees>43.3143711090087890625</LatitudeDegrees>
              <LongitudeDegrees>-1.89718343317508697509765625</LongitudeDegrees>
            </Position>
            <AltitudeMeters>14.6000003814697265625</AltitudeMeters>
            <DistanceMeters>NAN</DistanceMeters>
          </Trackpoint>
          <Trackpoint>
            <Time>2021-08-11T15:16:18.000Z</Time>
            <Position>
              <LatitudeDegrees>43.3144819177687168121337890625</LatitudeDegrees>
              <LongitudeDegrees>-1.89737244509160518646240234375</LongitudeDegrees>
            </Position>
            <AltitudeMeters>15</AltitudeMeters>
            <DistanceMeters>NAN</DistanceMeters>
          </Trackpoint>
          <Trackpoint>
            <Time>2021-08-11T15:16:22.000Z</Time>
            <Position>
              <LatitudeDegrees>43.3145882003009319305419921875</LatitudeDegrees>
              <LongitudeDegrees>-1.897548548877239227294921875</LongitudeDegrees>
            </Position>
            <AltitudeMeters>15.3999996185302734375</AltitudeMeters>
            <DistanceMeters>NAN</DistanceMeters>
          </Trackpoint>
          <Trackpoint>
            <Time>2021-08-11T15:16:26.000Z</Time>
            <Position>
              <LatitudeDegrees>43.31470043398439884185791015625</LatitudeDegrees>
              <LongitudeDegrees>-1.8976888619363307952880859375</LongitudeDegrees>
            </Position>
            <AltitudeMeters>15.80000019073486328125</AltitudeMeters>
            <DistanceMeters>NAN</DistanceMeters>
          </Trackpoint>
          <Trackpoint>
            <Time>2021-08-11T15:16:27.000Z</Time>
            <Position>
              <LatitudeDegrees>43.31472625024616718292236328125</LatitudeDegrees>
              <LongitudeDegrees>-1.8977223895490169525146484375</LongitudeDegrees>
            </Position>
            <AltitudeMeters>16</AltitudeMeters>
            <DistanceMeters>NAN</DistanceMeters>
          </Trackpoint>
          <Trackpoint>
            <Time>2021-08-11T15:16:28.000Z</Time>
            <Position>
              <LatitudeDegrees>43.31475139595568180084228515625</LatitudeDegrees>
              <LongitudeDegrees>-1.897761113941669464111328125</LongitudeDegrees>
            </Position>
            <AltitudeMeters>16.200000762939453125</AltitudeMeters>
            <DistanceMeters>NAN</DistanceMeters>
          </Trackpoint>
          <Trackpoint>
            <Time>2021-08-11T15:16:34.000Z</Time>
            <Position>
              <LatitudeDegrees>43.3149030245840549468994140625</LatitudeDegrees>
              <LongitudeDegrees>-1.8979946337640285491943359375</LongitudeDegrees>
            </Position>
            <AltitudeMeters>16.799999237060546875</AltitudeMeters>
            <DistanceMeters>NAN</DistanceMeters>
          </Trackpoint>
          <Trackpoint>
            <Time>2021-08-11T15:16:36.000Z</Time>
            <Position>
              <LatitudeDegrees>43.3149492926895618438720703125</LatitudeDegrees>
              <LongitudeDegrees>-1.89806722104549407958984375</LongitudeDegrees>
            </Position>
            <AltitudeMeters>17</AltitudeMeters>
            <DistanceMeters>NAN</DistanceMeters>
          </Trackpoint>
          <Trackpoint>
            <Time>2021-08-11T15:16:37.000Z</Time>
            <Position>
              <LatitudeDegrees>43.31497418694198131561279296875</LatitudeDegrees>
              <LongitudeDegrees>-1.8981092981994152069091796875</LongitudeDegrees>
            </Position>
            <AltitudeMeters>17.200000762939453125</AltitudeMeters>
            <DistanceMeters>NAN</DistanceMeters>
          </Trackpoint>
          <Trackpoint>
            <Time>2021-08-11T15:16:39.000Z</Time>
            <Position>
              <LatitudeDegrees>43.3150242269039154052734375</LatitudeDegrees>
              <LongitudeDegrees>-1.89818968065083026885986328125</LongitudeDegrees>
            </Position>
            <AltitudeMeters>17.3999996185302734375</AltitudeMeters>
            <DistanceMeters>NAN</DistanceMeters>
          </Trackpoint>
          <Trackpoint>
            <Time>2021-08-11T15:16:40.000Z</Time>
            <Position>
              <LatitudeDegrees>43.31504635512828826904296875</LatitudeDegrees>
              <LongitudeDegrees>-1.89821876585483551025390625</LongitudeDegrees>
            </Position>
            <AltitudeMeters>17.3999996185302734375</AltitudeMeters>
            <DistanceMeters>NAN</DistanceMeters>
          </Trackpoint>
          <Trackpoint>
            <Time>2021-08-11T15:16:41.000Z</Time>
            <Position>
              <LatitudeDegrees>43.31507376395165920257568359375</LatitudeDegrees>
              <LongitudeDegrees>-1.89825371839106082916259765625</LongitudeDegrees>
            </Position>
            <AltitudeMeters>17.6000003814697265625</AltitudeMeters>
            <DistanceMeters>NAN</DistanceMeters>
          </Trackpoint>
          <Trackpoint>
            <Time>2021-08-11T15:16:42.000Z</Time>
            <Position>
              <LatitudeDegrees>43.3151020109653472900390625</LatitudeDegrees>
              <LongitudeDegrees>-1.8982900120317935943603515625</LongitudeDegrees>
            </Position>
            <AltitudeMeters>17.799999237060546875</AltitudeMeters>
            <DistanceMeters>NAN</DistanceMeters>
          </Trackpoint>
          <Trackpoint>
            <Time>2021-08-11T15:16:43.000Z</Time>
            <Position>
              <LatitudeDegrees>43.315129838883876800537109375</LatitudeDegrees>
              <LongitudeDegrees>-1.8983292393386363983154296875</LongitudeDegrees>
            </Position>
            <AltitudeMeters>17.799999237060546875</AltitudeMeters>
            <DistanceMeters>NAN</DistanceMeters>
          </Trackpoint>
          <Trackpoint>
            <Time>2021-08-11T15:16:44.000Z</Time>
            <Position>
              <LatitudeDegrees>43.3151574991643428802490234375</LatitudeDegrees>
              <LongitudeDegrees>-1.89836117438971996307373046875</LongitudeDegrees>
            </Position>
            <AltitudeMeters>18</AltitudeMeters>
            <DistanceMeters>NAN</DistanceMeters>
          </Trackpoint>
          <Trackpoint>
            <Time>2021-08-11T15:16:45.000Z</Time>
            <Position>
              <LatitudeDegrees>43.31518256105482578277587890625</LatitudeDegrees>
              <LongitudeDegrees>-1.8983909301459789276123046875</LongitudeDegrees>
            </Position>
            <AltitudeMeters>18.200000762939453125</AltitudeMeters>
            <DistanceMeters>NAN</DistanceMeters>
          </Trackpoint>
          <Trackpoint>
            <Time>2021-08-11T15:16:46.000Z</Time>
            <Position>
              <LatitudeDegrees>43.3152024261653423309326171875</LatitudeDegrees>
              <LongitudeDegrees>-1.898421607911586761474609375</LongitudeDegrees>
            </Position>
            <AltitudeMeters>18.200000762939453125</AltitudeMeters>
            <DistanceMeters>NAN</DistanceMeters>
          </Trackpoint>
          <Trackpoint>
            <Time>2021-08-11T15:16:47.000Z</Time>
            <Position>
              <LatitudeDegrees>43.31522212363779544830322265625</LatitudeDegrees>
              <LongitudeDegrees>-1.89844943583011627197265625</LongitudeDegrees>
            </Position>
            <AltitudeMeters>18.3999996185302734375</AltitudeMeters>
            <DistanceMeters>NAN</DistanceMeters>
          </Trackpoint>
          <Trackpoint>
            <Time>2021-08-11T15:16:48.000Z</Time>
            <Position>
              <LatitudeDegrees>43.3152388036251068115234375</LatitudeDegrees>
              <LongitudeDegrees>-1.89847315661609172821044921875</LongitudeDegrees>
            </Position>
            <AltitudeMeters>18.3999996185302734375</AltitudeMeters>
            <DistanceMeters>NAN</DistanceMeters>
          </Trackpoint>
          <Trackpoint>
            <Time>2021-08-11T15:16:49.000Z</Time>
            <Position>
              <LatitudeDegrees>43.31525154411792755126953125</LatitudeDegrees>
              <LongitudeDegrees>-1.898491680622100830078125</LongitudeDegrees>
            </Position>
            <AltitudeMeters>18.6000003814697265625</AltitudeMeters>
            <DistanceMeters>NAN</DistanceMeters>
          </Trackpoint>
          <Trackpoint>
            <Time>2021-08-11T15:16:51.000Z</Time>
            <Position>
              <LatitudeDegrees>43.31525632180273532867431640625</LatitudeDegrees>
              <LongitudeDegrees>-1.89849779941141605377197265625</LongitudeDegrees>
            </Position>
            <AltitudeMeters>18.6000003814697265625</AltitudeMeters>
            <DistanceMeters>NAN</DistanceMeters>
          </Trackpoint>
          <Trackpoint>
            <Time>2021-08-11T15:17:07.000Z</Time>
            <Position>
              <LatitudeDegrees>43.31525816582143306732177734375</LatitudeDegrees>
              <LongitudeDegrees>-1.898500733077526092529296875</LongitudeDegrees>
            </Position>
            <AltitudeMeters>18.200000762939453125</AltitudeMeters>
            <DistanceMeters>NAN</DistanceMeters>
          </Trackpoint>
          <Trackpoint>
            <Time>2021-08-11T15:17:10.000Z</Time>
            <Position>
              <LatitudeDegrees>43.31530476920306682586669921875</LatitudeDegrees>
              <LongitudeDegrees>-1.898560412228107452392578125</LongitudeDegrees>
            </Position>
            <AltitudeMeters>18.200000762939453125</AltitudeMeters>
            <DistanceMeters>NAN</DistanceMeters>
          </Trackpoint>
          <Trackpoint>
            <Time>2021-08-11T15:17:11.000Z</Time>
            <Position>
              <LatitudeDegrees>43.315328992903232574462890625</LatitudeDegrees>
              <LongitudeDegrees>-1.8985890783369541168212890625</LongitudeDegrees>
            </Position>
            <AltitudeMeters>18.200000762939453125</AltitudeMeters>
            <DistanceMeters>NAN</DistanceMeters>
          </Trackpoint>
          <Trackpoint>
            <Time>2021-08-11T15:17:13.000Z</Time>
            <Position>
              <LatitudeDegrees>43.315379619598388671875</LatitudeDegrees>
              <LongitudeDegrees>-1.89865672029554843902587890625</LongitudeDegrees>
            </Position>
            <AltitudeMeters>18.200000762939453125</AltitudeMeters>
            <DistanceMeters>NAN</DistanceMeters>
          </Trackpoint>
          <Trackpoint>
            <Time>2021-08-11T15:17:16.000Z</Time>
            <Position>
              <LatitudeDegrees>43.315453045070171356201171875</LatitudeDegrees>
              <LongitudeDegrees>-1.898783035576343536376953125</LongitudeDegrees>
            </Position>
            <AltitudeMeters>18.200000762939453125</AltitudeMeters>
            <DistanceMeters>NAN</DistanceMeters>
          </Trackpoint>
          <Trackpoint>
            <Time>2021-08-11T15:17:19.000Z</Time>
            <Position>
              <LatitudeDegrees>43.3155236206948757171630859375</LatitudeDegrees>
              <LongitudeDegrees>-1.8988941796123981475830078125</LongitudeDegrees>
            </Position>
            <AltitudeMeters>18.3999996185302734375</AltitudeMeters>
            <DistanceMeters>NAN</DistanceMeters>
          </Trackpoint>
          <Trackpoint>
            <Time>2021-08-11T15:17:22.000Z</Time>
            <Position>
              <LatitudeDegrees>43.31559729762375354766845703125</LatitudeDegrees>
              <LongitudeDegrees>-1.89899601973593235015869140625</LongitudeDegrees>
            </Position>
            <AltitudeMeters>18.3999996185302734375</AltitudeMeters>
            <DistanceMeters>NAN</DistanceMeters>
          </Trackpoint>
          <Trackpoint>
            <Time>2021-08-11T15:17:23.000Z</Time>
            <Position>
              <LatitudeDegrees>43.3156017400324344635009765625</LatitudeDegrees>
              <LongitudeDegrees>-1.89902787096798419952392578125</LongitudeDegrees>
            </Position>
            <AltitudeMeters>18.6000003814697265625</AltitudeMeters>
            <DistanceMeters>NAN</DistanceMeters>
          </Trackpoint>
          <Trackpoint>
            <Time>2021-08-11T15:17:24.000Z</Time>
            <Position>
              <LatitudeDegrees>43.31560534425079822540283203125</LatitudeDegrees>
              <LongitudeDegrees>-1.899061985313892364501953125</LongitudeDegrees>
            </Position>
            <AltitudeMeters>18.6000003814697265625</AltitudeMeters>
            <DistanceMeters>NAN</DistanceMeters>
          </Trackpoint>
          <Trackpoint>
            <Time>2021-08-11T15:17:25.000Z</Time>
            <Position>
              <LatitudeDegrees>43.31561255268752574920654296875</LatitudeDegrees>
              <LongitudeDegrees>-1.89909358508884906768798828125</LongitudeDegrees>
            </Position>
            <AltitudeMeters>18.6000003814697265625</AltitudeMeters>
            <DistanceMeters>NAN</DistanceMeters>
          </Trackpoint>
          <Trackpoint>
            <Time>2021-08-11T15:17:26.000Z</Time>
            <Position>
              <LatitudeDegrees>43.3156263828277587890625</LatitudeDegrees>
              <LongitudeDegrees>-1.899119317531585693359375</LongitudeDegrees>
            </Position>
            <AltitudeMeters>18.6000003814697265625</AltitudeMeters>
            <DistanceMeters>NAN</DistanceMeters>
          </Trackpoint>
          <Trackpoint>
            <Time>2021-08-11T15:17:27.000Z</Time>
            <Position>
              <LatitudeDegrees>43.31564507447183132171630859375</LatitudeDegrees>
              <LongitudeDegrees>-1.8991442956030368804931640625</LongitudeDegrees>
            </Position>
            <AltitudeMeters>18.6000003814697265625</AltitudeMeters>
            <DistanceMeters>NAN</DistanceMeters>
          </Trackpoint>
          <Trackpoint>
            <Time>2021-08-11T15:17:28.000Z</Time>
            <Position>
              <LatitudeDegrees>43.31566183827817440032958984375</LatitudeDegrees>
              <LongitudeDegrees>-1.899163909256458282470703125</LongitudeDegrees>
            </Position>
            <AltitudeMeters>18.799999237060546875</AltitudeMeters>
            <DistanceMeters>NAN</DistanceMeters>
          </Trackpoint>
          <Trackpoint>
            <Time>2021-08-11T15:17:29.000Z</Time>
            <Position>
              <LatitudeDegrees>43.3156758360564708709716796875</LatitudeDegrees>
              <LongitudeDegrees>-1.89918125979602336883544921875</LongitudeDegrees>
            </Position>
            <AltitudeMeters>18.799999237060546875</AltitudeMeters>
            <DistanceMeters>NAN</DistanceMeters>
          </Trackpoint>
          <Trackpoint>
            <Time>2021-08-11T15:17:30.000Z</Time>
            <Position>
              <LatitudeDegrees>43.31568916328251361846923828125</LatitudeDegrees>
              <LongitudeDegrees>-1.89918704330921173095703125</LongitudeDegrees>
            </Position>
            <AltitudeMeters>18.799999237060546875</AltitudeMeters>
            <DistanceMeters>NAN</DistanceMeters>
          </Trackpoint>
          <Trackpoint>
            <Time>2021-08-11T15:17:31.000Z</Time>
            <Position>
              <LatitudeDegrees>43.315699808299541473388671875</LatitudeDegrees>
              <LongitudeDegrees>-1.899192743003368377685546875</LongitudeDegrees>
            </Position>
            <AltitudeMeters>18.799999237060546875</AltitudeMeters>
            <DistanceMeters>NAN</DistanceMeters>
          </Trackpoint>
          <Trackpoint>
            <Time>2021-08-11T15:17:32.000Z</Time>
            <Position>
              <LatitudeDegrees>43.31571062095463275909423828125</LatitudeDegrees>
              <LongitudeDegrees>-1.89920288510620594024658203125</LongitudeDegrees>
            </Position>
            <AltitudeMeters>18.799999237060546875</AltitudeMeters>
            <DistanceMeters>NAN</DistanceMeters>
          </Trackpoint>
          <Trackpoint>
            <Time>2021-08-11T15:17:33.000Z</Time>
            <Position>
              <LatitudeDegrees>43.31572093069553375244140625</LatitudeDegrees>
              <LongitudeDegrees>-1.89921696670353412628173828125</LongitudeDegrees>
            </Position>
            <AltitudeMeters>18.799999237060546875</AltitudeMeters>
            <DistanceMeters>NAN</DistanceMeters>
          </Trackpoint>
          <Trackpoint>
            <Time>2021-08-11T15:17:35.000Z</Time>
            <Position>
              <LatitudeDegrees>43.31573509611189365386962890625</LatitudeDegrees>
              <LongitudeDegrees>-1.899253092706203460693359375</LongitudeDegrees>
            </Position>
            <AltitudeMeters>19</AltitudeMeters>
            <DistanceMeters>NAN</DistanceMeters>
          </Trackpoint>
          <Trackpoint>
            <Time>2021-08-11T15:17:36.000Z</Time>
            <Position>
              <LatitudeDegrees>43.31574901007115840911865234375</LatitudeDegrees>
              <LongitudeDegrees>-1.8992747180163860321044921875</LongitudeDegrees>
            </Position>
            <AltitudeMeters>19</AltitudeMeters>
            <DistanceMeters>NAN</DistanceMeters>
          </Trackpoint>
          <Trackpoint>
            <Time>2021-08-11T15:17:42.000Z</Time>
            <Position>
              <LatitudeDegrees>43.31584967672824859619140625</LatitudeDegrees>
              <LongitudeDegrees>-1.89946071244776248931884765625</LongitudeDegrees>
            </Position>
            <AltitudeMeters>19</AltitudeMeters>
            <DistanceMeters>NAN</DistanceMeters>
          </Trackpoint>
          <Trackpoint>
            <Time>2021-08-11T15:17:45.000Z</Time>
            <Position>
              <LatitudeDegrees>43.31591681577265262603759765625</LatitudeDegrees>
              <LongitudeDegrees>-1.899554170668125152587890625</LongitudeDegrees>
            </Position>
            <AltitudeMeters>19</AltitudeMeters>
            <DistanceMeters>NAN</DistanceMeters>
          </Trackpoint>
          <Trackpoint>
            <Time>2021-08-11T15:17:46.000Z</Time>
            <Position>
              <LatitudeDegrees>43.3159407041966915130615234375</LatitudeDegrees>
              <LongitudeDegrees>-1.899586357176303863525390625</LongitudeDegrees>
            </Position>
            <AltitudeMeters>19</AltitudeMeters>
            <DistanceMeters>NAN</DistanceMeters>
          </Trackpoint>
          <Trackpoint>
            <Time>2021-08-11T15:17:51.000Z</Time>
            <Position>
              <LatitudeDegrees>43.316041119396686553955078125</LatitudeDegrees>
              <LongitudeDegrees>-1.89976044930517673492431640625</LongitudeDegrees>
            </Position>
            <AltitudeMeters>19.200000762939453125</AltitudeMeters>
            <DistanceMeters>NAN</DistanceMeters>
          </Trackpoint>
          <Trackpoint>
            <Time>2021-08-11T15:17:53.000Z</Time>
            <Position>
              <LatitudeDegrees>43.31607523374259471893310546875</LatitudeDegrees>
              <LongitudeDegrees>-1.899829767644405364990234375</LongitudeDegrees>
            </Position>
            <AltitudeMeters>19.3999996185302734375</AltitudeMeters>
            <DistanceMeters>NAN</DistanceMeters>
          </Trackpoint>
          <Trackpoint>
            <Time>2021-08-11T15:17:58.000Z</Time>
            <Position>
              <LatitudeDegrees>43.31617313437163829803466796875</LatitudeDegrees>
              <LongitudeDegrees>-1.9000103138387203216552734375</LongitudeDegrees>
            </Position>
            <AltitudeMeters>20.200000762939453125</AltitudeMeters>
            <DistanceMeters>NAN</DistanceMeters>
          </Trackpoint>
          <Trackpoint>
            <Time>2021-08-11T15:18:00.000Z</Time>
            <Position>
              <LatitudeDegrees>43.31621018238365650177001953125</LatitudeDegrees>
              <LongitudeDegrees>-1.90008332021534442901611328125</LongitudeDegrees>
            </Position>
            <AltitudeMeters>20.200000762939453125</AltitudeMeters>
            <DistanceMeters>NAN</DistanceMeters>
          </Trackpoint>
          <Trackpoint>
            <Time>2021-08-11T15:18:02.000Z</Time>
            <Position>
              <LatitudeDegrees>43.31625242717564105987548828125</LatitudeDegrees>
              <LongitudeDegrees>-1.90015708096325397491455078125</LongitudeDegrees>
            </Position>
            <AltitudeMeters>20.3999996185302734375</AltitudeMeters>
            <DistanceMeters>NAN</DistanceMeters>
          </Trackpoint>
          <Trackpoint>
            <Time>2021-08-11T15:18:03.000Z</Time>
            <Position>
              <LatitudeDegrees>43.316269777715206146240234375</LatitudeDegrees>
              <LongitudeDegrees>-1.90018440596759319305419921875</LongitudeDegrees>
            </Position>
            <AltitudeMeters>20.6000003814697265625</AltitudeMeters>
            <DistanceMeters>NAN</DistanceMeters>
          </Trackpoint>
          <Trackpoint>
            <Time>2021-08-11T15:18:04.000Z</Time>
            <Position>
              <LatitudeDegrees>43.31629601307213306427001953125</LatitudeDegrees>
              <LongitudeDegrees>-1.9002245552837848663330078125</LongitudeDegrees>
            </Position>
            <AltitudeMeters>20.6000003814697265625</AltitudeMeters>
            <DistanceMeters>NAN</DistanceMeters>
          </Trackpoint>
          <Trackpoint>
            <Time>2021-08-11T15:18:05.000Z</Time>
            <Position>
              <LatitudeDegrees>43.316313363611698150634765625</LatitudeDegrees>
              <LongitudeDegrees>-1.90025414340198040008544921875</LongitudeDegrees>
            </Position>
            <AltitudeMeters>20.6000003814697265625</AltitudeMeters>
            <DistanceMeters>NAN</DistanceMeters>
          </Trackpoint>
          <Trackpoint>
            <Time>2021-08-11T15:18:07.000Z</Time>
            <Position>
              <LatitudeDegrees>43.31635535694658756256103515625</LatitudeDegrees>
              <LongitudeDegrees>-1.9003335200250148773193359375</LongitudeDegrees>
            </Position>
            <AltitudeMeters>20.799999237060546875</AltitudeMeters>
            <DistanceMeters>NAN</DistanceMeters>
          </Trackpoint>
          <Trackpoint>
            <Time>2021-08-11T15:18:13.000Z</Time>
            <Position>
              <LatitudeDegrees>43.31648678518831729888916015625</LatitudeDegrees>
              <LongitudeDegrees>-1.90055086277425289154052734375</LongitudeDegrees>
            </Position>
            <AltitudeMeters>21</AltitudeMeters>
            <DistanceMeters>NAN</DistanceMeters>
          </Trackpoint>
          <Trackpoint>
            <Time>2021-08-11T15:18:17.000Z</Time>
            <Position>
              <LatitudeDegrees>43.3165572769939899444580078125</LatitudeDegrees>
              <LongitudeDegrees>-1.900714226067066192626953125</LongitudeDegrees>
            </Position>
            <AltitudeMeters>21.6000003814697265625</AltitudeMeters>
            <DistanceMeters>NAN</DistanceMeters>
          </Trackpoint>
          <Trackpoint>
            <Time>2021-08-11T15:18:19.000Z</Time>
            <Position>
              <LatitudeDegrees>43.31659407354891300201416015625</LatitudeDegrees>
              <LongitudeDegrees>-1.90079108811914920806884765625</LongitudeDegrees>
            </Position>
            <AltitudeMeters>21.6000003814697265625</AltitudeMeters>
            <DistanceMeters>NAN</DistanceMeters>
          </Trackpoint>
          <Trackpoint>
            <Time>2021-08-11T15:18:21.000Z</Time>
            <Position>
              <LatitudeDegrees>43.31663229502737522125244140625</LatitudeDegrees>
              <LongitudeDegrees>-1.90086451359093189239501953125</LongitudeDegrees>
            </Position>
            <AltitudeMeters>21.799999237060546875</AltitudeMeters>
            <DistanceMeters>NAN</DistanceMeters>
          </Trackpoint>
          <Trackpoint>
            <Time>2021-08-11T15:18:23.000Z</Time>
            <Position>
              <LatitudeDegrees>43.31667453981935977935791015625</LatitudeDegrees>
              <LongitudeDegrees>-1.90094053745269775390625</LongitudeDegrees>
            </Position>
            <AltitudeMeters>22</AltitudeMeters>
            <DistanceMeters>NAN</DistanceMeters>
          </Trackpoint>
          <Trackpoint>
            <Time>2021-08-11T15:18:24.000Z</Time>
            <Position>
              <LatitudeDegrees>43.316696248948574066162109375</LatitudeDegrees>
              <LongitudeDegrees>-1.90097683109343051910400390625</LongitudeDegrees>
            </Position>
            <AltitudeMeters>22.200000762939453125</AltitudeMeters>
            <DistanceMeters>NAN</DistanceMeters>
          </Trackpoint>
          <Trackpoint>
            <Time>2021-08-11T15:18:29.000Z</Time>
            <Position>
              <LatitudeDegrees>43.31682239659130573272705078125</LatitudeDegrees>
              <LongitudeDegrees>-1.9011629931628704071044921875</LongitudeDegrees>
            </Position>
            <AltitudeMeters>22.6000003814697265625</AltitudeMeters>
            <DistanceMeters>NAN</DistanceMeters>
          </Trackpoint>
          <Trackpoint>
            <Time>2021-08-11T15:18:30.000Z</Time>
            <Position>
              <LatitudeDegrees>43.31684586592018604278564453125</LatitudeDegrees>
              <LongitudeDegrees>-1.90120096318423748016357421875</LongitudeDegrees>
            </Position>
            <AltitudeMeters>22.6000003814697265625</AltitudeMeters>
            <DistanceMeters>NAN</DistanceMeters>
          </Trackpoint>
          <Trackpoint>
            <Time>2021-08-11T15:18:35.000Z</Time>
            <Position>
              <LatitudeDegrees>43.31695818342268466949462890625</LatitudeDegrees>
              <LongitudeDegrees>-1.9013708643615245819091796875</LongitudeDegrees>
            </Position>
            <AltitudeMeters>23</AltitudeMeters>
            <DistanceMeters>NAN</DistanceMeters>
          </Trackpoint>
          <Trackpoint>
            <Time>2021-08-11T15:18:37.000Z</Time>
            <Position>
              <LatitudeDegrees>43.3169948123395442962646484375</LatitudeDegrees>
              <LongitudeDegrees>-1.90144688822329044342041015625</LongitudeDegrees>
            </Position>
            <AltitudeMeters>23.3999996185302734375</AltitudeMeters>
            <DistanceMeters>NAN</DistanceMeters>
          </Trackpoint>
          <Trackpoint>
            <Time>2021-08-11T15:18:38.000Z</Time>
            <Position>
              <LatitudeDegrees>43.31701115705072879791259765625</LatitudeDegrees>
              <LongitudeDegrees>-1.90148209221661090850830078125</LongitudeDegrees>
            </Position>
            <AltitudeMeters>23.3999996185302734375</AltitudeMeters>
            <DistanceMeters>NAN</DistanceMeters>
          </Trackpoint>
          <Trackpoint>
            <Time>2021-08-11T15:18:39.000Z</Time>
            <Position>
              <LatitudeDegrees>43.31703378818929195404052734375</LatitudeDegrees>
              <LongitudeDegrees>-1.90151696093380451202392578125</LongitudeDegrees>
            </Position>
            <AltitudeMeters>23.6000003814697265625</AltitudeMeters>
            <DistanceMeters>NAN</DistanceMeters>
          </Trackpoint>
          <Trackpoint>
            <Time>2021-08-11T15:18:40.000Z</Time>
            <Position>
              <LatitudeDegrees>43.3170554973185062408447265625</LatitudeDegrees>
              <LongitudeDegrees>-1.90154763869941234588623046875</LongitudeDegrees>
            </Position>
            <AltitudeMeters>23.799999237060546875</AltitudeMeters>
            <DistanceMeters>NAN</DistanceMeters>
          </Trackpoint>
          <Trackpoint>
            <Time>2021-08-11T15:18:41.000Z</Time>
            <Position>
              <LatitudeDegrees>43.31707821227610111236572265625</LatitudeDegrees>
              <LongitudeDegrees>-1.901576556265354156494140625</LongitudeDegrees>
            </Position>
            <AltitudeMeters>23.799999237060546875</AltitudeMeters>
            <DistanceMeters>NAN</DistanceMeters>
          </Trackpoint>
          <Trackpoint>
            <Time>2021-08-11T15:18:42.000Z</Time>
            <Position>
              <LatitudeDegrees>43.31710184924304485321044921875</LatitudeDegrees>
              <LongitudeDegrees>-1.9016075693070888519287109375</LongitudeDegrees>
            </Position>
            <AltitudeMeters>23.799999237060546875</AltitudeMeters>
            <DistanceMeters>NAN</DistanceMeters>
          </Trackpoint>
          <Trackpoint>
            <Time>2021-08-11T15:18:49.000Z</Time>
            <Position>
              <LatitudeDegrees>43.317297734320163726806640625</LatitudeDegrees>
              <LongitudeDegrees>-1.901786439120769500732421875</LongitudeDegrees>
            </Position>
            <AltitudeMeters>24.6000003814697265625</AltitudeMeters>
            <DistanceMeters>NAN</DistanceMeters>
          </Trackpoint>
          <Trackpoint>
            <Time>2021-08-11T15:18:54.000Z</Time>
            <Position>
              <LatitudeDegrees>43.31746126525104045867919921875</LatitudeDegrees>
              <LongitudeDegrees>-1.90186162479221820831298828125</LongitudeDegrees>
            </Position>
            <AltitudeMeters>25</AltitudeMeters>
            <DistanceMeters>NAN</DistanceMeters>
          </Trackpoint>
          <Trackpoint>
            <Time>2021-08-11T15:18:57.000Z</Time>
            <Position>
              <LatitudeDegrees>43.31756235100328922271728515625</LatitudeDegrees>
              <LongitudeDegrees>-1.9018741138279438018798828125</LongitudeDegrees>
            </Position>
            <AltitudeMeters>25</AltitudeMeters>
            <DistanceMeters>NAN</DistanceMeters>
          </Trackpoint>
          <Trackpoint>
            <Time>2021-08-11T15:18:59.000Z</Time>
            <Position>
              <LatitudeDegrees>43.31762353889644145965576171875</LatitudeDegrees>
              <LongitudeDegrees>-1.9018779695034027099609375</LongitudeDegrees>
            </Position>
            <AltitudeMeters>25.200000762939453125</AltitudeMeters>
            <DistanceMeters>NAN</DistanceMeters>
          </Trackpoint>
          <Trackpoint>
            <Time>2021-08-11T15:19:00.000Z</Time>
            <Position>
              <LatitudeDegrees>43.3176499418914318084716796875</LatitudeDegrees>
              <LongitudeDegrees>-1.9018778018653392791748046875</LongitudeDegrees>
            </Position>
            <AltitudeMeters>25.200000762939453125</AltitudeMeters>
            <DistanceMeters>NAN</DistanceMeters>
          </Trackpoint>
          <Trackpoint>
            <Time>2021-08-11T15:19:01.000Z</Time>
            <Position>
              <LatitudeDegrees>43.3176737464964389801025390625</LatitudeDegrees>
              <LongitudeDegrees>-1.90187998116016387939453125</LongitudeDegrees>
            </Position>
            <AltitudeMeters>25.200000762939453125</AltitudeMeters>
            <DistanceMeters>NAN</DistanceMeters>
          </Trackpoint>
          <Trackpoint>
            <Time>2021-08-11T15:19:02.000Z</Time>
            <Position>
              <LatitudeDegrees>43.317701406776905059814453125</LatitudeDegrees>
              <LongitudeDegrees>-1.9018833339214324951171875</LongitudeDegrees>
            </Position>
            <AltitudeMeters>25.200000762939453125</AltitudeMeters>
            <DistanceMeters>NAN</DistanceMeters>
          </Trackpoint>
          <Trackpoint>
            <Time>2021-08-11T15:19:04.000Z</Time>
            <Position>
              <LatitudeDegrees>43.31775664351880550384521484375</LatitudeDegrees>
              <LongitudeDegrees>-1.90188827924430370330810546875</LongitudeDegrees>
            </Position>
            <AltitudeMeters>25.200000762939453125</AltitudeMeters>
            <DistanceMeters>NAN</DistanceMeters>
          </Trackpoint>
          <Trackpoint>
            <Time>2021-08-11T15:19:08.000Z</Time>
            <Position>
              <LatitudeDegrees>43.31786359660327434539794921875</LatitudeDegrees>
              <LongitudeDegrees>-1.90189532004296779632568359375</LongitudeDegrees>
            </Position>
            <AltitudeMeters>25.200000762939453125</AltitudeMeters>
            <DistanceMeters>NAN</DistanceMeters>
          </Trackpoint>
          <Trackpoint>
            <Time>2021-08-11T15:19:09.000Z</Time>
            <Position>
              <LatitudeDegrees>43.317885138094425201416015625</LatitudeDegrees>
              <LongitudeDegrees>-1.9018975831568241119384765625</LongitudeDegrees>
            </Position>
            <AltitudeMeters>25.200000762939453125</AltitudeMeters>
            <DistanceMeters>NAN</DistanceMeters>
          </Trackpoint>
          <Trackpoint>
            <Time>2021-08-11T15:19:10.000Z</Time>
            <Position>
              <LatitudeDegrees>43.31790248863399028778076171875</LatitudeDegrees>
              <LongitudeDegrees>-1.9018985889852046966552734375</LongitudeDegrees>
            </Position>
            <AltitudeMeters>25.3999996185302734375</AltitudeMeters>
            <DistanceMeters>NAN</DistanceMeters>
          </Trackpoint>
          <Trackpoint>
            <Time>2021-08-11T15:19:11.000Z</Time>
            <Position>
              <LatitudeDegrees>43.3179181627929210662841796875</LatitudeDegrees>
              <LongitudeDegrees>-1.9018999300897121429443359375</LongitudeDegrees>
            </Position>
            <AltitudeMeters>25.3999996185302734375</AltitudeMeters>
            <DistanceMeters>NAN</DistanceMeters>
          </Trackpoint>
          <Trackpoint>
            <Time>2021-08-11T15:19:12.000Z</Time>
            <Position>
              <LatitudeDegrees>43.317932076752185821533203125</LatitudeDegrees>
              <LongitudeDegrees>-1.90189967863261699676513671875</LongitudeDegrees>
            </Position>
            <AltitudeMeters>25.3999996185302734375</AltitudeMeters>
            <DistanceMeters>NAN</DistanceMeters>
          </Trackpoint>
          <Trackpoint>
            <Time>2021-08-11T15:19:13.000Z</Time>
            <Position>
              <LatitudeDegrees>43.31794305704534053802490234375</LatitudeDegrees>
              <LongitudeDegrees>-1.901897750794887542724609375</LongitudeDegrees>
            </Position>
            <AltitudeMeters>25.3999996185302734375</AltitudeMeters>
            <DistanceMeters>NAN</DistanceMeters>
          </Trackpoint>
          <Trackpoint>
            <Time>2021-08-11T15:19:14.000Z</Time>
            <Position>
              <LatitudeDegrees>43.317948170006275177001953125</LatitudeDegrees>
              <LongitudeDegrees>-1.90189749933779239654541015625</LongitudeDegrees>
            </Position>
            <AltitudeMeters>25.3999996185302734375</AltitudeMeters>
            <DistanceMeters>NAN</DistanceMeters>
          </Trackpoint>
          <Trackpoint>
            <Time>2021-08-11T15:19:15.000Z</Time>
            <Position>
              <LatitudeDegrees>43.3179493434727191925048828125</LatitudeDegrees>
              <LongitudeDegrees>-1.90189532004296779632568359375</LongitudeDegrees>
            </Position>
            <AltitudeMeters>25.3999996185302734375</AltitudeMeters>
            <DistanceMeters>NAN</DistanceMeters>
          </Trackpoint>
          <Trackpoint>
            <Time>2021-08-11T15:19:17.000Z</Time>
            <Position>
              <LatitudeDegrees>43.31795043312013149261474609375</LatitudeDegrees>
              <LongitudeDegrees>-1.90189347602427005767822265625</LongitudeDegrees>
            </Position>
            <AltitudeMeters>25.200000762939453125</AltitudeMeters>
            <DistanceMeters>NAN</DistanceMeters>
          </Trackpoint>
          <Trackpoint>
            <Time>2021-08-11T15:19:28.000Z</Time>
            <Position>
              <LatitudeDegrees>43.3179537020623683929443359375</LatitudeDegrees>
              <LongitudeDegrees>-1.9018938951194286346435546875</LongitudeDegrees>
            </Position>
            <AltitudeMeters>24.799999237060546875</AltitudeMeters>
            <DistanceMeters>NAN</DistanceMeters>
          </Trackpoint>
          <Trackpoint>
            <Time>2021-08-11T15:20:07.000Z</Time>
            <Position>
              <LatitudeDegrees>43.3179557137191295623779296875</LatitudeDegrees>
              <LongitudeDegrees>-1.90189414657652378082275390625</LongitudeDegrees>
            </Position>
            <AltitudeMeters>24.6000003814697265625</AltitudeMeters>
            <DistanceMeters>NAN</DistanceMeters>
          </Trackpoint>
          <Trackpoint>
            <Time>2021-08-11T15:20:09.000Z</Time>
            <Position>
              <LatitudeDegrees>43.31799804233014583587646484375</LatitudeDegrees>
              <LongitudeDegrees>-1.9018620438873767852783203125</LongitudeDegrees>
            </Position>
            <AltitudeMeters>24.3999996185302734375</AltitudeMeters>
            <DistanceMeters>NAN</DistanceMeters>
          </Trackpoint>
          <Trackpoint>
            <Time>2021-08-11T15:20:10.000Z</Time>
            <Position>
              <LatitudeDegrees>43.31801765598356723785400390625</LatitudeDegrees>
              <LongitudeDegrees>-1.9018305279314517974853515625</LongitudeDegrees>
            </Position>
            <AltitudeMeters>24.6000003814697265625</AltitudeMeters>
            <DistanceMeters>NAN</DistanceMeters>
          </Trackpoint>
          <Trackpoint>
            <Time>2021-08-11T15:20:11.000Z</Time>
            <Position>
              <LatitudeDegrees>43.31803760491311550140380859375</LatitudeDegrees>
              <LongitudeDegrees>-1.90179490484297275543212890625</LongitudeDegrees>
            </Position>
            <AltitudeMeters>24.6000003814697265625</AltitudeMeters>
            <DistanceMeters>NAN</DistanceMeters>
          </Trackpoint>
          <Trackpoint>
            <Time>2021-08-11T15:20:12.000Z</Time>
            <Position>
              <LatitudeDegrees>43.3180536143481731414794921875</LatitudeDegrees>
              <LongitudeDegrees>-1.901761628687381744384765625</LongitudeDegrees>
            </Position>
            <AltitudeMeters>24.6000003814697265625</AltitudeMeters>
            <DistanceMeters>NAN</DistanceMeters>
          </Trackpoint>
          <Trackpoint>
            <Time>2021-08-11T15:20:13.000Z</Time>
            <Position>
              <LatitudeDegrees>43.31807993352413177490234375</LatitudeDegrees>
              <LongitudeDegrees>-1.90170438028872013092041015625</LongitudeDegrees>
            </Position>
            <AltitudeMeters>24.6000003814697265625</AltitudeMeters>
            <DistanceMeters>NAN</DistanceMeters>
          </Trackpoint>
          <Trackpoint>
            <Time>2021-08-11T15:20:15.000Z</Time>
            <Position>
              <LatitudeDegrees>43.318137936294078826904296875</LatitudeDegrees>
              <LongitudeDegrees>-1.90159927122294902801513671875</LongitudeDegrees>
            </Position>
            <AltitudeMeters>24.6000003814697265625</AltitudeMeters>
            <DistanceMeters>NAN</DistanceMeters>
          </Trackpoint>
          <Trackpoint>
            <Time>2021-08-11T15:20:18.000Z</Time>
            <Position>
              <LatitudeDegrees>43.3182474039494991302490234375</LatitudeDegrees>
              <LongitudeDegrees>-1.9014583714306354522705078125</LongitudeDegrees>
            </Position>
            <AltitudeMeters>24.3999996185302734375</AltitudeMeters>
            <DistanceMeters>NAN</DistanceMeters>
          </Trackpoint>
          <Trackpoint>
            <Time>2021-08-11T15:20:19.000Z</Time>
            <Position>
              <LatitudeDegrees>43.318290822207927703857421875</LatitudeDegrees>
              <LongitudeDegrees>-1.90141822211444377899169921875</LongitudeDegrees>
            </Position>
            <AltitudeMeters>24.3999996185302734375</AltitudeMeters>
            <DistanceMeters>NAN</DistanceMeters>
          </Trackpoint>
          <Trackpoint>
            <Time>2021-08-11T15:20:20.000Z</Time>
            <Position>
              <LatitudeDegrees>43.31833868287503719329833984375</LatitudeDegrees>
              <LongitudeDegrees>-1.90138352103531360626220703125</LongitudeDegrees>
            </Position>
            <AltitudeMeters>24.3999996185302734375</AltitudeMeters>
            <DistanceMeters>NAN</DistanceMeters>
          </Trackpoint>
          <Trackpoint>
            <Time>2021-08-11T15:20:21.000Z</Time>
            <Position>
              <LatitudeDegrees>43.3183915726840496063232421875</LatitudeDegrees>
              <LongitudeDegrees>-1.90136122517287731170654296875</LongitudeDegrees>
            </Position>
            <AltitudeMeters>24.3999996185302734375</AltitudeMeters>
            <DistanceMeters>NAN</DistanceMeters>
          </Trackpoint>
          <Trackpoint>
            <Time>2021-08-11T15:20:22.000Z</Time>
            <Position>
              <LatitudeDegrees>43.3184373378753662109375</LatitudeDegrees>
              <LongitudeDegrees>-1.9013554416596889495849609375</LongitudeDegrees>
            </Position>
            <AltitudeMeters>24.200000762939453125</AltitudeMeters>
            <DistanceMeters>NAN</DistanceMeters>
          </Trackpoint>
          <Trackpoint>
            <Time>2021-08-11T15:20:23.000Z</Time>
            <Position>
              <LatitudeDegrees>43.31850372254848480224609375</LatitudeDegrees>
              <LongitudeDegrees>-1.90135703422129154205322265625</LongitudeDegrees>
            </Position>
            <AltitudeMeters>24</AltitudeMeters>
            <DistanceMeters>NAN</DistanceMeters>
          </Trackpoint>
          <Trackpoint>
            <Time>2021-08-11T15:20:24.000Z</Time>
            <Position>
              <LatitudeDegrees>43.31855627708137035369873046875</LatitudeDegrees>
              <LongitudeDegrees>-1.901372708380222320556640625</LongitudeDegrees>
            </Position>
            <AltitudeMeters>23.799999237060546875</AltitudeMeters>
            <DistanceMeters>NAN</DistanceMeters>
          </Trackpoint>
          <Trackpoint>
            <Time>2021-08-11T15:20:25.000Z</Time>
            <Position>
              <LatitudeDegrees>43.31859500147402286529541015625</LatitudeDegrees>
              <LongitudeDegrees>-1.90139341168105602264404296875</LongitudeDegrees>
            </Position>
            <AltitudeMeters>23.799999237060546875</AltitudeMeters>
            <DistanceMeters>NAN</DistanceMeters>
          </Trackpoint>
          <Trackpoint>
            <Time>2021-08-11T15:20:26.000Z</Time>
            <Position>
              <LatitudeDegrees>43.31863992847502231597900390625</LatitudeDegrees>
              <LongitudeDegrees>-1.90142408944666385650634765625</LongitudeDegrees>
            </Position>
            <AltitudeMeters>23.3999996185302734375</AltitudeMeters>
            <DistanceMeters>NAN</DistanceMeters>
          </Trackpoint>
          <Trackpoint>
            <Time>2021-08-11T15:20:28.000Z</Time>
            <Position>
              <LatitudeDegrees>43.318730704486370086669921875</LatitudeDegrees>
              <LongitudeDegrees>-1.90148812718689441680908203125</LongitudeDegrees>
            </Position>
            <AltitudeMeters>23</AltitudeMeters>
            <DistanceMeters>NAN</DistanceMeters>
          </Trackpoint>
          <Trackpoint>
            <Time>2021-08-11T15:20:29.000Z</Time>
            <Position>
              <LatitudeDegrees>43.3187811635434627532958984375</LatitudeDegrees>
              <LongitudeDegrees>-1.90150271169841289520263671875</LongitudeDegrees>
            </Position>
            <AltitudeMeters>22.799999237060546875</AltitudeMeters>
            <DistanceMeters>NAN</DistanceMeters>
          </Trackpoint>
          <Trackpoint>
            <Time>2021-08-11T15:20:30.000Z</Time>
            <Position>
              <LatitudeDegrees>43.31883388571441173553466796875</LatitudeDegrees>
              <LongitudeDegrees>-1.901498101651668548583984375</LongitudeDegrees>
            </Position>
            <AltitudeMeters>22.799999237060546875</AltitudeMeters>
            <DistanceMeters>NAN</DistanceMeters>
          </Trackpoint>
          <Trackpoint>
            <Time>2021-08-11T15:20:31.000Z</Time>
            <Position>
              <LatitudeDegrees>43.3188879489898681640625</LatitudeDegrees>
              <LongitudeDegrees>-1.901479326188564300537109375</LongitudeDegrees>
            </Position>
            <AltitudeMeters>22.799999237060546875</AltitudeMeters>
            <DistanceMeters>NAN</DistanceMeters>
          </Trackpoint>
          <Trackpoint>
            <Time>2021-08-11T15:20:32.000Z</Time>
            <Position>
              <LatitudeDegrees>43.31893966533243656158447265625</LatitudeDegrees>
              <LongitudeDegrees>-1.90145443193614482879638671875</LongitudeDegrees>
            </Position>
            <AltitudeMeters>22.6000003814697265625</AltitudeMeters>
            <DistanceMeters>NAN</DistanceMeters>
          </Trackpoint>
          <Trackpoint>
            <Time>2021-08-11T15:20:33.000Z</Time>
            <Position>
              <LatitudeDegrees>43.31900395452976226806640625</LatitudeDegrees>
              <LongitudeDegrees>-1.9014214910566806793212890625</LongitudeDegrees>
            </Position>
            <AltitudeMeters>22.200000762939453125</AltitudeMeters>
            <DistanceMeters>NAN</DistanceMeters>
          </Trackpoint>
          <Trackpoint>
            <Time>2021-08-11T15:20:37.000Z</Time>
            <Position>
              <LatitudeDegrees>43.31923671998083591461181640625</LatitudeDegrees>
              <LongitudeDegrees>-1.901325099170207977294921875</LongitudeDegrees>
            </Position>
            <AltitudeMeters>21.799999237060546875</AltitudeMeters>
            <DistanceMeters>NAN</DistanceMeters>
          </Trackpoint>
          <Trackpoint>
            <Time>2021-08-11T15:20:38.000Z</Time>
            <Position>
              <LatitudeDegrees>43.31929790787398815155029296875</LatitudeDegrees>
              <LongitudeDegrees>-1.901299953460693359375</LongitudeDegrees>
            </Position>
            <AltitudeMeters>21.6000003814697265625</AltitudeMeters>
            <DistanceMeters>NAN</DistanceMeters>
          </Trackpoint>
          <Trackpoint>
            <Time>2021-08-11T15:20:40.000Z</Time>
            <Position>
              <LatitudeDegrees>43.3194101415574550628662109375</LatitudeDegrees>
              <LongitudeDegrees>-1.9012471474707126617431640625</LongitudeDegrees>
            </Position>
            <AltitudeMeters>21.200000762939453125</AltitudeMeters>
            <DistanceMeters>NAN</DistanceMeters>
          </Trackpoint>
          <Trackpoint>
            <Time>2021-08-11T15:20:41.000Z</Time>
            <Position>
              <LatitudeDegrees>43.31944609992206096649169921875</LatitudeDegrees>
              <LongitudeDegrees>-1.9012313894927501678466796875</LongitudeDegrees>
            </Position>
            <AltitudeMeters>21</AltitudeMeters>
            <DistanceMeters>NAN</DistanceMeters>
          </Trackpoint>
          <Trackpoint>
            <Time>2021-08-11T15:20:42.000Z</Time>
            <Position>
              <LatitudeDegrees>43.31949572078883647918701171875</LatitudeDegrees>
              <LongitudeDegrees>-1.901215128600597381591796875</LongitudeDegrees>
            </Position>
            <AltitudeMeters>20.3999996185302734375</AltitudeMeters>
            <DistanceMeters>NAN</DistanceMeters>
          </Trackpoint>
          <Trackpoint>
            <Time>2021-08-11T15:20:43.000Z</Time>
            <Position>
              <LatitudeDegrees>43.31953410990536212921142578125</LatitudeDegrees>
              <LongitudeDegrees>-1.9011981971561908721923828125</LongitudeDegrees>
            </Position>
            <AltitudeMeters>19.6000003814697265625</AltitudeMeters>
            <DistanceMeters>NAN</DistanceMeters>
          </Trackpoint>
          <Trackpoint>
            <Time>2021-08-11T15:20:44.000Z</Time>
            <Position>
              <LatitudeDegrees>43.31956327892839908599853515625</LatitudeDegrees>
              <LongitudeDegrees>-1.901184283196926116943359375</LongitudeDegrees>
            </Position>
            <AltitudeMeters>19.3999996185302734375</AltitudeMeters>
            <DistanceMeters>NAN</DistanceMeters>
          </Trackpoint>
          <Trackpoint>
            <Time>2021-08-11T15:20:45.000Z</Time>
            <Position>
              <LatitudeDegrees>43.3196049369871616363525390625</LatitudeDegrees>
              <LongitudeDegrees>-1.90116408281028270721435546875</LongitudeDegrees>
            </Position>
            <AltitudeMeters>18.799999237060546875</AltitudeMeters>
            <DistanceMeters>NAN</DistanceMeters>
          </Trackpoint>
          <Trackpoint>
            <Time>2021-08-11T15:20:46.000Z</Time>
            <Position>
              <LatitudeDegrees>43.31963703967630863189697265625</LatitudeDegrees>
              <LongitudeDegrees>-1.901146732270717620849609375</LongitudeDegrees>
            </Position>
            <AltitudeMeters>18.6000003814697265625</AltitudeMeters>
            <DistanceMeters>NAN</DistanceMeters>
          </Trackpoint>
          <Trackpoint>
            <Time>2021-08-11T15:20:47.000Z</Time>
            <Position>
              <LatitudeDegrees>43.3196646161377429962158203125</LatitudeDegrees>
              <LongitudeDegrees>-1.901129968464374542236328125</LongitudeDegrees>
            </Position>
            <AltitudeMeters>18.3999996185302734375</AltitudeMeters>
            <DistanceMeters>NAN</DistanceMeters>
          </Trackpoint>
          <Trackpoint>
            <Time>2021-08-11T15:20:48.000Z</Time>
            <Position>
              <LatitudeDegrees>43.31968816928565502166748046875</LatitudeDegrees>
              <LongitudeDegrees>-1.90111680887639522552490234375</LongitudeDegrees>
            </Position>
            <AltitudeMeters>18.3999996185302734375</AltitudeMeters>
            <DistanceMeters>NAN</DistanceMeters>
          </Trackpoint>
          <Trackpoint>
            <Time>2021-08-11T15:20:49.000Z</Time>
            <Position>
              <LatitudeDegrees>43.3197112195193767547607421875</LatitudeDegrees>
              <LongitudeDegrees>-1.901100464165210723876953125</LongitudeDegrees>
            </Position>
            <AltitudeMeters>18.200000762939453125</AltitudeMeters>
            <DistanceMeters>NAN</DistanceMeters>
          </Trackpoint>
          <Trackpoint>
            <Time>2021-08-11T15:20:50.000Z</Time>
            <Position>
              <LatitudeDegrees>43.31973074935376644134521484375</LatitudeDegrees>
              <LongitudeDegrees>-1.90108495764434337615966796875</LongitudeDegrees>
            </Position>
            <AltitudeMeters>18.200000762939453125</AltitudeMeters>
            <DistanceMeters>NAN</DistanceMeters>
          </Trackpoint>
          <Trackpoint>
            <Time>2021-08-11T15:20:54.000Z</Time>
            <Position>
              <LatitudeDegrees>43.3198339305818080902099609375</LatitudeDegrees>
              <LongitudeDegrees>-1.90100264735519886016845703125</LongitudeDegrees>
            </Position>
            <AltitudeMeters>18.200000762939453125</AltitudeMeters>
            <DistanceMeters>NAN</DistanceMeters>
          </Trackpoint>
          <Trackpoint>
            <Time>2021-08-11T15:20:57.000Z</Time>
            <Position>
              <LatitudeDegrees>43.31992520950734615325927734375</LatitudeDegrees>
              <LongitudeDegrees>-1.9009459018707275390625</LongitudeDegrees>
            </Position>
            <AltitudeMeters>18.3999996185302734375</AltitudeMeters>
            <DistanceMeters>NAN</DistanceMeters>
          </Trackpoint>
          <Trackpoint>
            <Time>2021-08-11T15:21:01.000Z</Time>
            <Position>
              <LatitudeDegrees>43.32002931274473667144775390625</LatitudeDegrees>
              <LongitudeDegrees>-1.90084657631814479827880859375</LongitudeDegrees>
            </Position>
            <AltitudeMeters>19</AltitudeMeters>
            <DistanceMeters>NAN</DistanceMeters>
          </Trackpoint>
          <Trackpoint>
            <Time>2021-08-11T15:21:04.000Z</Time>
            <Position>
              <LatitudeDegrees>43.32011195831000804901123046875</LatitudeDegrees>
              <LongitudeDegrees>-1.90077767707407474517822265625</LongitudeDegrees>
            </Position>
            <AltitudeMeters>19.3999996185302734375</AltitudeMeters>
            <DistanceMeters>NAN</DistanceMeters>
          </Trackpoint>
          <Trackpoint>
            <Time>2021-08-11T15:21:07.000Z</Time>
            <Position>
              <LatitudeDegrees>43.32020566798746585845947265625</LatitudeDegrees>
              <LongitudeDegrees>-1.9007462449371814727783203125</LongitudeDegrees>
            </Position>
            <AltitudeMeters>19.6000003814697265625</AltitudeMeters>
            <DistanceMeters>NAN</DistanceMeters>
          </Trackpoint>
          <Trackpoint>
            <Time>2021-08-11T15:21:08.000Z</Time>
            <Position>
              <LatitudeDegrees>43.32022695802152156829833984375</LatitudeDegrees>
              <LongitudeDegrees>-1.90075672231614589691162109375</LongitudeDegrees>
            </Position>
            <AltitudeMeters>19.6000003814697265625</AltitudeMeters>
            <DistanceMeters>NAN</DistanceMeters>
          </Trackpoint>
          <Trackpoint>
            <Time>2021-08-11T15:21:10.000Z</Time>
            <Position>
              <LatitudeDegrees>43.320270292460918426513671875</LatitudeDegrees>
              <LongitudeDegrees>-1.9008042477071285247802734375</LongitudeDegrees>
            </Position>
            <AltitudeMeters>19.799999237060546875</AltitudeMeters>
            <DistanceMeters>NAN</DistanceMeters>
          </Trackpoint>
          <Trackpoint>
            <Time>2021-08-11T15:21:11.000Z</Time>
            <Position>
              <LatitudeDegrees>43.3202899061143398284912109375</LatitudeDegrees>
              <LongitudeDegrees>-1.90083400346338748931884765625</LongitudeDegrees>
            </Position>
            <AltitudeMeters>19.799999237060546875</AltitudeMeters>
            <DistanceMeters>NAN</DistanceMeters>
          </Trackpoint>
          <Trackpoint>
            <Time>2021-08-11T15:21:12.000Z</Time>
            <Position>
              <LatitudeDegrees>43.320307172834873199462890625</LatitudeDegrees>
              <LongitudeDegrees>-1.9008676148951053619384765625</LongitudeDegrees>
            </Position>
            <AltitudeMeters>19.799999237060546875</AltitudeMeters>
            <DistanceMeters>NAN</DistanceMeters>
          </Trackpoint>
          <Trackpoint>
            <Time>2021-08-11T15:21:13.000Z</Time>
            <Position>
              <LatitudeDegrees>43.32032301463186740875244140625</LatitudeDegrees>
              <LongitudeDegrees>-1.900911368429660797119140625</LongitudeDegrees>
            </Position>
            <AltitudeMeters>19.799999237060546875</AltitudeMeters>
            <DistanceMeters>NAN</DistanceMeters>
          </Trackpoint>
          <Trackpoint>
            <Time>2021-08-11T15:21:16.000Z</Time>
            <Position>
              <LatitudeDegrees>43.32035453058779239654541015625</LatitudeDegrees>
              <LongitudeDegrees>-1.9010272063314914703369140625</LongitudeDegrees>
            </Position>
            <AltitudeMeters>19.799999237060546875</AltitudeMeters>
            <DistanceMeters>NAN</DistanceMeters>
          </Trackpoint>
          <Trackpoint>
            <Time>2021-08-11T15:21:17.000Z</Time>
            <Position>
              <LatitudeDegrees>43.32036257721483707427978515625</LatitudeDegrees>
              <LongitudeDegrees>-1.901056878268718719482421875</LongitudeDegrees>
            </Position>
            <AltitudeMeters>19.799999237060546875</AltitudeMeters>
            <DistanceMeters>NAN</DistanceMeters>
          </Trackpoint>
          <Trackpoint>
            <Time>2021-08-11T15:21:18.000Z</Time>
            <Position>
              <LatitudeDegrees>43.3203752338886260986328125</LatitudeDegrees>
              <LongitudeDegrees>-1.9010798446834087371826171875</LongitudeDegrees>
            </Position>
            <AltitudeMeters>19.799999237060546875</AltitudeMeters>
            <DistanceMeters>NAN</DistanceMeters>
          </Trackpoint>
          <Trackpoint>
            <Time>2021-08-11T15:21:19.000Z</Time>
            <Position>
              <LatitudeDegrees>43.32039359025657176971435546875</LatitudeDegrees>
              <LongitudeDegrees>-1.9010905735194683074951171875</LongitudeDegrees>
            </Position>
            <AltitudeMeters>19.799999237060546875</AltitudeMeters>
            <DistanceMeters>NAN</DistanceMeters>
          </Trackpoint>
          <Trackpoint>
            <Time>2021-08-11T15:21:22.000Z</Time>
            <Position>
              <LatitudeDegrees>43.32049786113202571868896484375</LatitudeDegrees>
              <LongitudeDegrees>-1.9010754860937595367431640625</LongitudeDegrees>
            </Position>
            <AltitudeMeters>19.799999237060546875</AltitudeMeters>
            <DistanceMeters>NAN</DistanceMeters>
          </Trackpoint>
          <Trackpoint>
            <Time>2021-08-11T15:21:23.000Z</Time>
            <Position>
              <LatitudeDegrees>43.3205232582986354827880859375</LatitudeDegrees>
              <LongitudeDegrees>-1.9010650925338268280029296875</LongitudeDegrees>
            </Position>
            <AltitudeMeters>19.6000003814697265625</AltitudeMeters>
            <DistanceMeters>NAN</DistanceMeters>
          </Trackpoint>
          <Trackpoint>
            <Time>2021-08-11T15:21:24.000Z</Time>
            <Position>
              <LatitudeDegrees>43.32055401988327503204345703125</LatitudeDegrees>
              <LongitudeDegrees>-1.901052184402942657470703125</LongitudeDegrees>
            </Position>
            <AltitudeMeters>19.6000003814697265625</AltitudeMeters>
            <DistanceMeters>NAN</DistanceMeters>
          </Trackpoint>
          <Trackpoint>
            <Time>2021-08-11T15:21:28.000Z</Time>
            <Position>
              <LatitudeDegrees>43.32066130824387073516845703125</LatitudeDegrees>
              <LongitudeDegrees>-1.9010034017264842987060546875</LongitudeDegrees>
            </Position>
            <AltitudeMeters>19.200000762939453125</AltitudeMeters>
            <DistanceMeters>NAN</DistanceMeters>
          </Trackpoint>
          <Trackpoint>
            <Time>2021-08-11T15:21:29.000Z</Time>
            <Position>
              <LatitudeDegrees>43.3206801675260066986083984375</LatitudeDegrees>
              <LongitudeDegrees>-1.90101387910544872283935546875</LongitudeDegrees>
            </Position>
            <AltitudeMeters>19.200000762939453125</AltitudeMeters>
            <DistanceMeters>NAN</DistanceMeters>
          </Trackpoint>
          <Trackpoint>
            <Time>2021-08-11T15:21:30.000Z</Time>
            <Position>
              <LatitudeDegrees>43.32070707343518733978271484375</LatitudeDegrees>
              <LongitudeDegrees>-1.90101387910544872283935546875</LongitudeDegrees>
            </Position>
            <AltitudeMeters>19.200000762939453125</AltitudeMeters>
            <DistanceMeters>NAN</DistanceMeters>
          </Trackpoint>
          <Trackpoint>
            <Time>2021-08-11T15:21:33.000Z</Time>
            <Position>
              <LatitudeDegrees>43.32079893909394741058349609375</LatitudeDegrees>
              <LongitudeDegrees>-1.90099158324301242828369140625</LongitudeDegrees>
            </Position>
            <AltitudeMeters>19.200000762939453125</AltitudeMeters>
            <DistanceMeters>NAN</DistanceMeters>
          </Trackpoint>
          <Trackpoint>
            <Time>2021-08-11T15:21:41.000Z</Time>
            <Position>
              <LatitudeDegrees>43.3210700936615467071533203125</LatitudeDegrees>
              <LongitudeDegrees>-1.9008417986333370208740234375</LongitudeDegrees>
            </Position>
            <AltitudeMeters>19.3999996185302734375</AltitudeMeters>
            <DistanceMeters>NAN</DistanceMeters>
          </Trackpoint>
          <Trackpoint>
            <Time>2021-08-11T15:21:49.000Z</Time>
            <Position>
              <LatitudeDegrees>43.32126463763415813446044921875</LatitudeDegrees>
              <LongitudeDegrees>-1.90053753554821014404296875</LongitudeDegrees>
            </Position>
            <AltitudeMeters>19.200000762939453125</AltitudeMeters>
            <DistanceMeters>NAN</DistanceMeters>
          </Trackpoint>
          <Trackpoint>
            <Time>2021-08-11T15:21:53.000Z</Time>
            <Position>
              <LatitudeDegrees>43.3213661424815654754638671875</LatitudeDegrees>
              <LongitudeDegrees>-1.900360845029354095458984375</LongitudeDegrees>
            </Position>
            <AltitudeMeters>19</AltitudeMeters>
            <DistanceMeters>NAN</DistanceMeters>
          </Trackpoint>
          <Trackpoint>
            <Time>2021-08-11T15:21:54.000Z</Time>
            <Position>
              <LatitudeDegrees>43.321395814418792724609375</LatitudeDegrees>
              <LongitudeDegrees>-1.90032153390347957611083984375</LongitudeDegrees>
            </Position>
            <AltitudeMeters>18.799999237060546875</AltitudeMeters>
            <DistanceMeters>NAN</DistanceMeters>
          </Trackpoint>
          <Trackpoint>
            <Time>2021-08-11T15:21:55.000Z</Time>
            <Position>
              <LatitudeDegrees>43.3214331977069377899169921875</LatitudeDegrees>
              <LongitudeDegrees>-1.9002882577478885650634765625</LongitudeDegrees>
            </Position>
            <AltitudeMeters>18.799999237060546875</AltitudeMeters>
            <DistanceMeters>NAN</DistanceMeters>
          </Trackpoint>
          <Trackpoint>
            <Time>2021-08-11T15:21:57.000Z</Time>
            <Position>
              <LatitudeDegrees>43.32152330316603183746337890625</LatitudeDegrees>
              <LongitudeDegrees>-1.90022044815123081207275390625</LongitudeDegrees>
            </Position>
            <AltitudeMeters>18.6000003814697265625</AltitudeMeters>
            <DistanceMeters>NAN</DistanceMeters>
          </Trackpoint>
          <Trackpoint>
            <Time>2021-08-11T15:21:58.000Z</Time>
            <Position>
              <LatitudeDegrees>43.32157351076602935791015625</LatitudeDegrees>
              <LongitudeDegrees>-1.90020485781133174896240234375</LongitudeDegrees>
            </Position>
            <AltitudeMeters>18.3999996185302734375</AltitudeMeters>
            <DistanceMeters>NAN</DistanceMeters>
          </Trackpoint>
          <Trackpoint>
            <Time>2021-08-11T15:21:59.000Z</Time>
            <Position>
              <LatitudeDegrees>43.3216239698231220245361328125</LatitudeDegrees>
              <LongitudeDegrees>-1.9002155028283596038818359375</LongitudeDegrees>
            </Position>
            <AltitudeMeters>18.200000762939453125</AltitudeMeters>
            <DistanceMeters>NAN</DistanceMeters>
          </Trackpoint>
          <Trackpoint>
            <Time>2021-08-11T15:22:00.000Z</Time>
            <Position>
              <LatitudeDegrees>43.32168306224048137664794921875</LatitudeDegrees>
              <LongitudeDegrees>-1.9002416543662548065185546875</LongitudeDegrees>
            </Position>
            <AltitudeMeters>18.200000762939453125</AltitudeMeters>
            <DistanceMeters>NAN</DistanceMeters>
          </Trackpoint>
          <Trackpoint>
            <Time>2021-08-11T15:22:01.000Z</Time>
            <Position>
              <LatitudeDegrees>43.3217302523553371429443359375</LatitudeDegrees>
              <LongitudeDegrees>-1.9002637825906276702880859375</LongitudeDegrees>
            </Position>
            <AltitudeMeters>18</AltitudeMeters>
            <DistanceMeters>NAN</DistanceMeters>
          </Trackpoint>
          <Trackpoint>
            <Time>2021-08-11T15:22:02.000Z</Time>
            <Position>
              <LatitudeDegrees>43.3217701502144336700439453125</LatitudeDegrees>
              <LongitudeDegrees>-1.90030627883970737457275390625</LongitudeDegrees>
            </Position>
            <AltitudeMeters>18</AltitudeMeters>
            <DistanceMeters>NAN</DistanceMeters>
          </Trackpoint>
          <Trackpoint>
            <Time>2021-08-11T15:22:03.000Z</Time>
            <Position>
              <LatitudeDegrees>43.32179856486618518829345703125</LatitudeDegrees>
              <LongitudeDegrees>-1.90034617669880390167236328125</LongitudeDegrees>
            </Position>
            <AltitudeMeters>17.799999237060546875</AltitudeMeters>
            <DistanceMeters>NAN</DistanceMeters>
          </Trackpoint>
          <Trackpoint>
            <Time>2021-08-11T15:22:04.000Z</Time>
            <Position>
              <LatitudeDegrees>43.3218298293650150299072265625</LatitudeDegrees>
              <LongitudeDegrees>-1.90039278008043766021728515625</LongitudeDegrees>
            </Position>
            <AltitudeMeters>17.6000003814697265625</AltitudeMeters>
            <DistanceMeters>NAN</DistanceMeters>
          </Trackpoint>
          <Trackpoint>
            <Time>2021-08-11T15:22:05.000Z</Time>
            <Position>
              <LatitudeDegrees>43.321856148540973663330078125</LatitudeDegrees>
              <LongitudeDegrees>-1.90043552778661251068115234375</LongitudeDegrees>
            </Position>
            <AltitudeMeters>17.3999996185302734375</AltitudeMeters>
            <DistanceMeters>NAN</DistanceMeters>
          </Trackpoint>
          <Trackpoint>
            <Time>2021-08-11T15:22:06.000Z</Time>
            <Position>
              <LatitudeDegrees>43.3218826353549957275390625</LatitudeDegrees>
              <LongitudeDegrees>-1.900477521121501922607421875</LongitudeDegrees>
            </Position>
            <AltitudeMeters>17.3999996185302734375</AltitudeMeters>
            <DistanceMeters>NAN</DistanceMeters>
          </Trackpoint>
          <Trackpoint>
            <Time>2021-08-11T15:22:08.000Z</Time>
            <Position>
              <LatitudeDegrees>43.32193535752594470977783203125</LatitudeDegrees>
              <LongitudeDegrees>-1.9005636870861053466796875</LongitudeDegrees>
            </Position>
            <AltitudeMeters>17.3999996185302734375</AltitudeMeters>
            <DistanceMeters>NAN</DistanceMeters>
          </Trackpoint>
          <Trackpoint>
            <Time>2021-08-11T15:22:09.000Z</Time>
            <Position>
              <LatitudeDegrees>43.32196201197803020477294921875</LatitudeDegrees>
              <LongitudeDegrees>-1.9006014056503772735595703125</LongitudeDegrees>
            </Position>
            <AltitudeMeters>17.3999996185302734375</AltitudeMeters>
            <DistanceMeters>NAN</DistanceMeters>
          </Trackpoint>
          <Trackpoint>
            <Time>2021-08-11T15:22:10.000Z</Time>
            <Position>
              <LatitudeDegrees>43.32199235446751117706298828125</LatitudeDegrees>
              <LongitudeDegrees>-1.90064608119428157806396484375</LongitudeDegrees>
            </Position>
            <AltitudeMeters>17.3999996185302734375</AltitudeMeters>
            <DistanceMeters>NAN</DistanceMeters>
          </Trackpoint>
          <Trackpoint>
            <Time>2021-08-11T15:22:11.000Z</Time>
            <Position>
              <LatitudeDegrees>43.3220095373690128326416015625</LatitudeDegrees>
              <LongitudeDegrees>-1.90067592076957225799560546875</LongitudeDegrees>
            </Position>
            <AltitudeMeters>17.6000003814697265625</AltitudeMeters>
            <DistanceMeters>NAN</DistanceMeters>
          </Trackpoint>
          <Trackpoint>
            <Time>2021-08-11T15:22:12.000Z</Time>
            <Position>
              <LatitudeDegrees>43.32203543744981288909912109375</LatitudeDegrees>
              <LongitudeDegrees>-1.90071581862866878509521484375</LongitudeDegrees>
            </Position>
            <AltitudeMeters>17.6000003814697265625</AltitudeMeters>
            <DistanceMeters>NAN</DistanceMeters>
          </Trackpoint>
          <Trackpoint>
            <Time>2021-08-11T15:22:13.000Z</Time>
            <Position>
              <LatitudeDegrees>43.32205605693161487579345703125</LatitudeDegrees>
              <LongitudeDegrees>-1.900741718709468841552734375</LongitudeDegrees>
            </Position>
            <AltitudeMeters>17.799999237060546875</AltitudeMeters>
            <DistanceMeters>NAN</DistanceMeters>
          </Trackpoint>
          <Trackpoint>
            <Time>2021-08-11T15:22:14.000Z</Time>
            <Position>
              <LatitudeDegrees>43.32208120264112949371337890625</LatitudeDegrees>
              <LongitudeDegrees>-1.9007693789899349212646484375</LongitudeDegrees>
            </Position>
            <AltitudeMeters>18</AltitudeMeters>
            <DistanceMeters>NAN</DistanceMeters>
          </Trackpoint>
          <Trackpoint>
            <Time>2021-08-11T15:22:16.000Z</Time>
            <Position>
              <LatitudeDegrees>43.322127722203731536865234375</LatitudeDegrees>
              <LongitudeDegrees>-1.9008146412670612335205078125</LongitudeDegrees>
            </Position>
            <AltitudeMeters>18.6000003814697265625</AltitudeMeters>
            <DistanceMeters>NAN</DistanceMeters>
          </Trackpoint>
          <Trackpoint>
            <Time>2021-08-11T15:22:17.000Z</Time>
            <Position>
              <LatitudeDegrees>43.32215278409421443939208984375</LatitudeDegrees>
              <LongitudeDegrees>-1.90083635039627552032470703125</LongitudeDegrees>
            </Position>
            <AltitudeMeters>18.799999237060546875</AltitudeMeters>
            <DistanceMeters>NAN</DistanceMeters>
          </Trackpoint>
          <Trackpoint>
            <Time>2021-08-11T15:22:18.000Z</Time>
            <Position>
              <LatitudeDegrees>43.32217709161341190338134765625</LatitudeDegrees>
              <LongitudeDegrees>-1.90085747279226779937744140625</LongitudeDegrees>
            </Position>
            <AltitudeMeters>19.200000762939453125</AltitudeMeters>
            <DistanceMeters>NAN</DistanceMeters>
          </Trackpoint>
          <Trackpoint>
            <Time>2021-08-11T15:22:19.000Z</Time>
            <Position>
              <LatitudeDegrees>43.32220173440873622894287109375</LatitudeDegrees>
              <LongitudeDegrees>-1.90087490715086460113525390625</LongitudeDegrees>
            </Position>
            <AltitudeMeters>19.3999996185302734375</AltitudeMeters>
            <DistanceMeters>NAN</DistanceMeters>
          </Trackpoint>
          <Trackpoint>
            <Time>2021-08-11T15:22:20.000Z</Time>
            <Position>
              <LatitudeDegrees>43.3222271315753459930419921875</LatitudeDegrees>
              <LongitudeDegrees>-1.90088949166238307952880859375</LongitudeDegrees>
            </Position>
            <AltitudeMeters>19.799999237060546875</AltitudeMeters>
            <DistanceMeters>NAN</DistanceMeters>
          </Trackpoint>
          <Trackpoint>
            <Time>2021-08-11T15:22:21.000Z</Time>
            <Position>
              <LatitudeDegrees>43.322253115475177764892578125</LatitudeDegrees>
              <LongitudeDegrees>-1.9009001366794109344482421875</LongitudeDegrees>
            </Position>
            <AltitudeMeters>20</AltitudeMeters>
            <DistanceMeters>NAN</DistanceMeters>
          </Trackpoint>
          <Trackpoint>
            <Time>2021-08-11T15:22:22.000Z</Time>
            <Position>
              <LatitudeDegrees>43.3222780935466289520263671875</LatitudeDegrees>
              <LongitudeDegrees>-1.90091094933450222015380859375</LongitudeDegrees>
            </Position>
            <AltitudeMeters>20.200000762939453125</AltitudeMeters>
            <DistanceMeters>NAN</DistanceMeters>
          </Trackpoint>
          <Trackpoint>
            <Time>2021-08-11T15:22:23.000Z</Time>
            <Position>
              <LatitudeDegrees>43.32230399362742900848388671875</LatitudeDegrees>
              <LongitudeDegrees>-1.9009219296276569366455078125</LongitudeDegrees>
            </Position>
            <AltitudeMeters>20.3999996185302734375</AltitudeMeters>
            <DistanceMeters>NAN</DistanceMeters>
          </Trackpoint>
          <Trackpoint>
            <Time>2021-08-11T15:22:24.000Z</Time>
            <Position>
              <LatitudeDegrees>43.32232880406081676483154296875</LatitudeDegrees>
              <LongitudeDegrees>-1.90092536620795726776123046875</LongitudeDegrees>
            </Position>
            <AltitudeMeters>20.799999237060546875</AltitudeMeters>
            <DistanceMeters>NAN</DistanceMeters>
          </Trackpoint>
          <Trackpoint>
            <Time>2021-08-11T15:22:25.000Z</Time>
            <Position>
              <LatitudeDegrees>43.322354368865489959716796875</LatitudeDegrees>
              <LongitudeDegrees>-1.90092938952147960662841796875</LongitudeDegrees>
            </Position>
            <AltitudeMeters>20.799999237060546875</AltitudeMeters>
            <DistanceMeters>NAN</DistanceMeters>
          </Trackpoint>
          <Trackpoint>
            <Time>2021-08-11T15:22:26.000Z</Time>
            <Position>
              <LatitudeDegrees>43.3223773352801799774169921875</LatitudeDegrees>
              <LongitudeDegrees>-1.90093609504401683807373046875</LongitudeDegrees>
            </Position>
            <AltitudeMeters>21.200000762939453125</AltitudeMeters>
            <DistanceMeters>NAN</DistanceMeters>
          </Trackpoint>
          <Trackpoint>
            <Time>2021-08-11T15:22:27.000Z</Time>
            <Position>
              <LatitudeDegrees>43.32240122370421886444091796875</LatitudeDegrees>
              <LongitudeDegrees>-1.90094053745269775390625</LongitudeDegrees>
            </Position>
            <AltitudeMeters>21.6000003814697265625</AltitudeMeters>
            <DistanceMeters>NAN</DistanceMeters>
          </Trackpoint>
          <Trackpoint>
            <Time>2021-08-11T15:22:28.000Z</Time>
            <Position>
              <LatitudeDegrees>43.3224259503185749053955078125</LatitudeDegrees>
              <LongitudeDegrees>-1.900942884385585784912109375</LongitudeDegrees>
            </Position>
            <AltitudeMeters>21.6000003814697265625</AltitudeMeters>
            <DistanceMeters>NAN</DistanceMeters>
          </Trackpoint>
          <Trackpoint>
            <Time>2021-08-11T15:22:29.000Z</Time>
            <Position>
              <LatitudeDegrees>43.32245168276131153106689453125</LatitudeDegrees>
              <LongitudeDegrees>-1.9009427167475223541259765625</LongitudeDegrees>
            </Position>
            <AltitudeMeters>22</AltitudeMeters>
            <DistanceMeters>NAN</DistanceMeters>
          </Trackpoint>
          <Trackpoint>
            <Time>2021-08-11T15:22:30.000Z</Time>
            <Position>
              <LatitudeDegrees>43.32247682847082614898681640625</LatitudeDegrees>
              <LongitudeDegrees>-1.900942213833332061767578125</LongitudeDegrees>
            </Position>
            <AltitudeMeters>22.200000762939453125</AltitudeMeters>
            <DistanceMeters>NAN</DistanceMeters>
          </Trackpoint>
          <Trackpoint>
            <Time>2021-08-11T15:22:31.000Z</Time>
            <Position>
              <LatitudeDegrees>43.32250130362808704376220703125</LatitudeDegrees>
              <LongitudeDegrees>-1.90094430930912494659423828125</LongitudeDegrees>
            </Position>
            <AltitudeMeters>22.3999996185302734375</AltitudeMeters>
            <DistanceMeters>NAN</DistanceMeters>
          </Trackpoint>
          <Trackpoint>
            <Time>2021-08-11T15:22:32.000Z</Time>
            <Position>
              <LatitudeDegrees>43.32252527587115764617919921875</LatitudeDegrees>
              <LongitudeDegrees>-1.9009427167475223541259765625</LongitudeDegrees>
            </Position>
            <AltitudeMeters>22.6000003814697265625</AltitudeMeters>
            <DistanceMeters>NAN</DistanceMeters>
          </Trackpoint>
          <Trackpoint>
            <Time>2021-08-11T15:22:33.000Z</Time>
            <Position>
              <LatitudeDegrees>43.3225503377616405487060546875</LatitudeDegrees>
              <LongitudeDegrees>-1.9009413756430149078369140625</LongitudeDegrees>
            </Position>
            <AltitudeMeters>23</AltitudeMeters>
            <DistanceMeters>NAN</DistanceMeters>
          </Trackpoint>
          <Trackpoint>
            <Time>2021-08-11T15:22:34.000Z</Time>
            <Position>
              <LatitudeDegrees>43.32257422618567943572998046875</LatitudeDegrees>
              <LongitudeDegrees>-1.90094145946204662322998046875</LongitudeDegrees>
            </Position>
            <AltitudeMeters>23.3999996185302734375</AltitudeMeters>
            <DistanceMeters>NAN</DistanceMeters>
          </Trackpoint>
          <Trackpoint>
            <Time>2021-08-11T15:22:35.000Z</Time>
            <Position>
              <LatitudeDegrees>43.3226006291806697845458984375</LatitudeDegrees>
              <LongitudeDegrees>-1.90094095654785633087158203125</LongitudeDegrees>
            </Position>
            <AltitudeMeters>23.6000003814697265625</AltitudeMeters>
            <DistanceMeters>NAN</DistanceMeters>
          </Trackpoint>
          <Trackpoint>
            <Time>2021-08-11T15:22:36.000Z</Time>
            <Position>
              <LatitudeDegrees>43.32262753508985042572021484375</LatitudeDegrees>
              <LongitudeDegrees>-1.90094254910945892333984375</LongitudeDegrees>
            </Position>
            <AltitudeMeters>23.799999237060546875</AltitudeMeters>
            <DistanceMeters>NAN</DistanceMeters>
          </Trackpoint>
          <Trackpoint>
            <Time>2021-08-11T15:22:37.000Z</Time>
            <Position>
              <LatitudeDegrees>43.32265301607549190521240234375</LatitudeDegrees>
              <LongitudeDegrees>-1.90094347111880779266357421875</LongitudeDegrees>
            </Position>
            <AltitudeMeters>24</AltitudeMeters>
            <DistanceMeters>NAN</DistanceMeters>
          </Trackpoint>
          <Trackpoint>
            <Time>2021-08-11T15:22:38.000Z</Time>
            <Position>
              <LatitudeDegrees>43.3226790837943553924560546875</LatitudeDegrees>
              <LongitudeDegrees>-1.9009453989565372467041015625</LongitudeDegrees>
            </Position>
            <AltitudeMeters>24.200000762939453125</AltitudeMeters>
            <DistanceMeters>NAN</DistanceMeters>
          </Trackpoint>
          <Trackpoint>
            <Time>2021-08-11T15:22:39.000Z</Time>
            <Position>
              <LatitudeDegrees>43.3227018825709819793701171875</LatitudeDegrees>
              <LongitudeDegrees>-1.90094799734652042388916015625</LongitudeDegrees>
            </Position>
            <AltitudeMeters>24.3999996185302734375</AltitudeMeters>
            <DistanceMeters>NAN</DistanceMeters>
          </Trackpoint>
          <Trackpoint>
            <Time>2021-08-11T15:22:40.000Z</Time>
            <Position>
              <LatitudeDegrees>43.32272325642406940460205078125</LatitudeDegrees>
              <LongitudeDegrees>-1.9009464047849178314208984375</LongitudeDegrees>
            </Position>
            <AltitudeMeters>24.6000003814697265625</AltitudeMeters>
            <DistanceMeters>NAN</DistanceMeters>
          </Trackpoint>
          <Trackpoint>
            <Time>2021-08-11T15:22:41.000Z</Time>
            <Position>
              <LatitudeDegrees>43.3227501623332500457763671875</LatitudeDegrees>
              <LongitudeDegrees>-1.900948584079742431640625</LongitudeDegrees>
            </Position>
            <AltitudeMeters>25</AltitudeMeters>
            <DistanceMeters>NAN</DistanceMeters>
          </Trackpoint>
          <Trackpoint>
            <Time>2021-08-11T15:22:42.000Z</Time>
            <Position>
              <LatitudeDegrees>43.3227739669382572174072265625</LatitudeDegrees>
              <LongitudeDegrees>-1.9009541161358356475830078125</LongitudeDegrees>
            </Position>
            <AltitudeMeters>25.200000762939453125</AltitudeMeters>
            <DistanceMeters>NAN</DistanceMeters>
          </Trackpoint>
          <Trackpoint>
            <Time>2021-08-11T15:22:43.000Z</Time>
            <Position>
              <LatitudeDegrees>43.32279701717197895050048828125</LatitudeDegrees>
              <LongitudeDegrees>-1.90095319412648677825927734375</LongitudeDegrees>
            </Position>
            <AltitudeMeters>25.6000003814697265625</AltitudeMeters>
            <DistanceMeters>NAN</DistanceMeters>
          </Trackpoint>
          <Trackpoint>
            <Time>2021-08-11T15:22:44.000Z</Time>
            <Position>
              <LatitudeDegrees>43.322821073234081268310546875</LatitudeDegrees>
              <LongitudeDegrees>-1.90095135010778903961181640625</LongitudeDegrees>
            </Position>
            <AltitudeMeters>25.6000003814697265625</AltitudeMeters>
            <DistanceMeters>NAN</DistanceMeters>
          </Trackpoint>
          <Trackpoint>
            <Time>2021-08-11T15:22:45.000Z</Time>
            <Position>
              <LatitudeDegrees>43.32284680567681789398193359375</LatitudeDegrees>
              <LongitudeDegrees>-1.90094950608909130096435546875</LongitudeDegrees>
            </Position>
            <AltitudeMeters>25.799999237060546875</AltitudeMeters>
            <DistanceMeters>NAN</DistanceMeters>
          </Trackpoint>
          <Trackpoint>
            <Time>2021-08-11T15:22:46.000Z</Time>
            <Position>
              <LatitudeDegrees>43.32287211902439594268798828125</LatitudeDegrees>
              <LongitudeDegrees>-1.90094833262264728546142578125</LongitudeDegrees>
            </Position>
            <AltitudeMeters>26</AltitudeMeters>
            <DistanceMeters>NAN</DistanceMeters>
          </Trackpoint>
          <Trackpoint>
            <Time>2021-08-11T15:22:47.000Z</Time>
            <Position>
              <LatitudeDegrees>43.32289516925811767578125</LatitudeDegrees>
              <LongitudeDegrees>-1.9009407050907611846923828125</LongitudeDegrees>
            </Position>
            <AltitudeMeters>26.200000762939453125</AltitudeMeters>
            <DistanceMeters>NAN</DistanceMeters>
          </Trackpoint>
          <Trackpoint>
            <Time>2021-08-11T15:22:48.000Z</Time>
            <Position>
              <LatitudeDegrees>43.32291134633123874664306640625</LatitudeDegrees>
              <LongitudeDegrees>-1.9009338319301605224609375</LongitudeDegrees>
            </Position>
            <AltitudeMeters>26.6000003814697265625</AltitudeMeters>
            <DistanceMeters>NAN</DistanceMeters>
          </Trackpoint>
          <Trackpoint>
            <Time>2021-08-11T15:22:49.000Z</Time>
            <Position>
              <LatitudeDegrees>43.3229338936507701873779296875</LatitudeDegrees>
              <LongitudeDegrees>-1.9009242765605449676513671875</LongitudeDegrees>
            </Position>
            <AltitudeMeters>26.6000003814697265625</AltitudeMeters>
            <DistanceMeters>NAN</DistanceMeters>
          </Trackpoint>
          <Trackpoint>
            <Time>2021-08-11T15:22:50.000Z</Time>
            <Position>
              <LatitudeDegrees>43.32295157946646213531494140625</LatitudeDegrees>
              <LongitudeDegrees>-1.90091480500996112823486328125</LongitudeDegrees>
            </Position>
            <AltitudeMeters>27</AltitudeMeters>
            <DistanceMeters>NAN</DistanceMeters>
          </Trackpoint>
          <Trackpoint>
            <Time>2021-08-11T15:22:51.000Z</Time>
            <Position>
              <LatitudeDegrees>43.3229667507112026214599609375</LatitudeDegrees>
              <LongitudeDegrees>-1.900906004011631011962890625</LongitudeDegrees>
            </Position>
            <AltitudeMeters>27.200000762939453125</AltitudeMeters>
            <DistanceMeters>NAN</DistanceMeters>
          </Trackpoint>
          <Trackpoint>
            <Time>2021-08-11T15:22:52.000Z</Time>
            <Position>
              <LatitudeDegrees>43.32298276014626026153564453125</LatitudeDegrees>
              <LongitudeDegrees>-1.9008991308510303497314453125</LongitudeDegrees>
            </Position>
            <AltitudeMeters>27.6000003814697265625</AltitudeMeters>
            <DistanceMeters>NAN</DistanceMeters>
          </Trackpoint>
          <Trackpoint>
            <Time>2021-08-11T15:22:53.000Z</Time>
            <Position>
              <LatitudeDegrees>43.3229982666671276092529296875</LatitudeDegrees>
              <LongitudeDegrees>-1.90089016221463680267333984375</LongitudeDegrees>
            </Position>
            <AltitudeMeters>27.6000003814697265625</AltitudeMeters>
            <DistanceMeters>NAN</DistanceMeters>
          </Trackpoint>
          <Trackpoint>
            <Time>2021-08-11T15:22:54.000Z</Time>
            <Position>
              <LatitudeDegrees>43.323010839521884918212890625</LatitudeDegrees>
              <LongitudeDegrees>-1.90087976865470409393310546875</LongitudeDegrees>
            </Position>
            <AltitudeMeters>28</AltitudeMeters>
            <DistanceMeters>NAN</DistanceMeters>
          </Trackpoint>
          <Trackpoint>
            <Time>2021-08-11T15:22:55.000Z</Time>
            <Position>
              <LatitudeDegrees>43.3230287767946720123291015625</LatitudeDegrees>
              <LongitudeDegrees>-1.9008595682680606842041015625</LongitudeDegrees>
            </Position>
            <AltitudeMeters>28.200000762939453125</AltitudeMeters>
            <DistanceMeters>NAN</DistanceMeters>
          </Trackpoint>
          <Trackpoint>
            <Time>2021-08-11T15:22:56.000Z</Time>
            <Position>
              <LatitudeDegrees>43.3230378292500972747802734375</LatitudeDegrees>
              <LongitudeDegrees>-1.90083584748208522796630859375</LongitudeDegrees>
            </Position>
            <AltitudeMeters>28.3999996185302734375</AltitudeMeters>
            <DistanceMeters>NAN</DistanceMeters>
          </Trackpoint>
          <Trackpoint>
            <Time>2021-08-11T15:22:57.000Z</Time>
            <Position>
              <LatitudeDegrees>43.3230468817055225372314453125</LatitudeDegrees>
              <LongitudeDegrees>-1.90081120468676090240478515625</LongitudeDegrees>
            </Position>
            <AltitudeMeters>28.799999237060546875</AltitudeMeters>
            <DistanceMeters>NAN</DistanceMeters>
          </Trackpoint>
          <Trackpoint>
            <Time>2021-08-11T15:22:58.000Z</Time>
            <Position>
              <LatitudeDegrees>43.32305685617029666900634765625</LatitudeDegrees>
              <LongitudeDegrees>-1.900794692337512969970703125</LongitudeDegrees>
            </Position>
            <AltitudeMeters>28.799999237060546875</AltitudeMeters>
            <DistanceMeters>NAN</DistanceMeters>
          </Trackpoint>
          <Trackpoint>
            <Time>2021-08-11T15:22:59.000Z</Time>
            <Position>
              <LatitudeDegrees>43.3230720274150371551513671875</LatitudeDegrees>
              <LongitudeDegrees>-1.90077491104602813720703125</LongitudeDegrees>
            </Position>
            <AltitudeMeters>29</AltitudeMeters>
            <DistanceMeters>NAN</DistanceMeters>
          </Trackpoint>
          <Trackpoint>
            <Time>2021-08-11T15:23:00.000Z</Time>
            <Position>
              <LatitudeDegrees>43.3230787329375743865966796875</LatitudeDegrees>
              <LongitudeDegrees>-1.90076359547674655914306640625</LongitudeDegrees>
            </Position>
            <AltitudeMeters>29</AltitudeMeters>
            <DistanceMeters>NAN</DistanceMeters>
          </Trackpoint>
          <Trackpoint>
            <Time>2021-08-11T15:23:01.000Z</Time>
            <Position>
              <LatitudeDegrees>43.32308384589850902557373046875</LatitudeDegrees>
              <LongitudeDegrees>-1.90075186081230640411376953125</LongitudeDegrees>
            </Position>
            <AltitudeMeters>29</AltitudeMeters>
            <DistanceMeters>NAN</DistanceMeters>
          </Trackpoint>
          <Trackpoint>
            <Time>2021-08-11T15:23:02.000Z</Time>
            <Position>
              <LatitudeDegrees>43.32308736629784107208251953125</LatitudeDegrees>
              <LongitudeDegrees>-1.90074004232883453369140625</LongitudeDegrees>
            </Position>
            <AltitudeMeters>29.200000762939453125</AltitudeMeters>
            <DistanceMeters>NAN</DistanceMeters>
          </Trackpoint>
          <Trackpoint>
            <Time>2021-08-11T15:23:03.000Z</Time>
            <Position>
              <LatitudeDegrees>43.3230928145349025726318359375</LatitudeDegrees>
              <LongitudeDegrees>-1.9007271341979503631591796875</LongitudeDegrees>
            </Position>
            <AltitudeMeters>29.200000762939453125</AltitudeMeters>
            <DistanceMeters>NAN</DistanceMeters>
          </Trackpoint>
          <Trackpoint>
            <Time>2021-08-11T15:23:04.000Z</Time>
            <Position>
              <LatitudeDegrees>43.32310111261904239654541015625</LatitudeDegrees>
              <LongitudeDegrees>-1.90070056356489658355712890625</LongitudeDegrees>
            </Position>
            <AltitudeMeters>29.3999996185302734375</AltitudeMeters>
            <DistanceMeters>NAN</DistanceMeters>
          </Trackpoint>
          <Trackpoint>
            <Time>2021-08-11T15:23:05.000Z</Time>
            <Position>
              <LatitudeDegrees>43.32310597412288188934326171875</LatitudeDegrees>
              <LongitudeDegrees>-1.90067541785538196563720703125</LongitudeDegrees>
            </Position>
            <AltitudeMeters>29.6000003814697265625</AltitudeMeters>
            <DistanceMeters>NAN</DistanceMeters>
          </Trackpoint>
          <Trackpoint>
            <Time>2021-08-11T15:23:06.000Z</Time>
            <Position>
              <LatitudeDegrees>43.32311267964541912078857421875</LatitudeDegrees>
              <LongitudeDegrees>-1.90065421164035797119140625</LongitudeDegrees>
            </Position>
            <AltitudeMeters>29.799999237060546875</AltitudeMeters>
            <DistanceMeters>NAN</DistanceMeters>
          </Trackpoint>
          <Trackpoint>
            <Time>2021-08-11T15:23:07.000Z</Time>
            <Position>
              <LatitudeDegrees>43.3231226541101932525634765625</LatitudeDegrees>
              <LongitudeDegrees>-1.9006443209946155548095703125</LongitudeDegrees>
            </Position>
            <AltitudeMeters>29.799999237060546875</AltitudeMeters>
            <DistanceMeters>NAN</DistanceMeters>
          </Trackpoint>
          <Trackpoint>
            <Time>2021-08-11T15:23:08.000Z</Time>
            <Position>
              <LatitudeDegrees>43.32313262857496738433837890625</LatitudeDegrees>
              <LongitudeDegrees>-1.90064884722232818603515625</LongitudeDegrees>
            </Position>
            <AltitudeMeters>29.799999237060546875</AltitudeMeters>
            <DistanceMeters>NAN</DistanceMeters>
          </Trackpoint>
          <Trackpoint>
            <Time>2021-08-11T15:23:09.000Z</Time>
            <Position>
              <LatitudeDegrees>43.32314603962004184722900390625</LatitudeDegrees>
              <LongitudeDegrees>-1.90065965987741947174072265625</LongitudeDegrees>
            </Position>
            <AltitudeMeters>30</AltitudeMeters>
            <DistanceMeters>NAN</DistanceMeters>
          </Trackpoint>
          <Trackpoint>
            <Time>2021-08-11T15:23:10.000Z</Time>
            <Position>
              <LatitudeDegrees>43.3231504820287227630615234375</LatitudeDegrees>
              <LongitudeDegrees>-1.90066284500062465667724609375</LongitudeDegrees>
            </Position>
            <AltitudeMeters>30</AltitudeMeters>
            <DistanceMeters>NAN</DistanceMeters>
          </Trackpoint>
          <Trackpoint>
            <Time>2021-08-11T15:23:14.000Z</Time>
            <Position>
              <LatitudeDegrees>43.3231504820287227630615234375</LatitudeDegrees>
              <LongitudeDegrees>-1.90066284500062465667724609375</LongitudeDegrees>
            </Position>
            <AltitudeMeters>30</AltitudeMeters>
            <DistanceMeters>NAN</DistanceMeters>
          </Trackpoint>
          <Trackpoint>
            <Time>2021-08-11T15:24:03.000Z</Time>
            <Position>
              <LatitudeDegrees>43.32315157167613506317138671875</LatitudeDegrees>
              <LongitudeDegrees>-1.90065714530646800994873046875</LongitudeDegrees>
            </Position>
            <AltitudeMeters>29.6000003814697265625</AltitudeMeters>
            <DistanceMeters>NAN</DistanceMeters>
          </Trackpoint>
          <Trackpoint>
            <Time>2021-08-11T15:24:28.000Z</Time>
            <Position>
              <LatitudeDegrees>43.32315475679934024810791015625</LatitudeDegrees>
              <LongitudeDegrees>-1.9006597436964511871337890625</LongitudeDegrees>
            </Position>
            <AltitudeMeters>29.6000003814697265625</AltitudeMeters>
            <DistanceMeters>NAN</DistanceMeters>
          </Trackpoint>
          <Trackpoint>
            <Time>2021-08-11T15:24:31.000Z</Time>
            <Position>
              <LatitudeDegrees>43.3232175372540950775146484375</LatitudeDegrees>
              <LongitudeDegrees>-1.90068949945271015167236328125</LongitudeDegrees>
            </Position>
            <AltitudeMeters>29.3999996185302734375</AltitudeMeters>
            <DistanceMeters>NAN</DistanceMeters>
          </Trackpoint>
          <Trackpoint>
            <Time>2021-08-11T15:24:37.000Z</Time>
            <Position>
              <LatitudeDegrees>43.3234089799225330352783203125</LatitudeDegrees>
              <LongitudeDegrees>-1.90076745115220546722412109375</LongitudeDegrees>
            </Position>
            <AltitudeMeters>29</AltitudeMeters>
            <DistanceMeters>NAN</DistanceMeters>
          </Trackpoint>
          <Trackpoint>
            <Time>2021-08-11T15:24:39.000Z</Time>
            <Position>
              <LatitudeDegrees>43.32348416559398174285888671875</LatitudeDegrees>
              <LongitudeDegrees>-1.90079460851848125457763671875</LongitudeDegrees>
            </Position>
            <AltitudeMeters>29</AltitudeMeters>
            <DistanceMeters>NAN</DistanceMeters>
          </Trackpoint>
          <Trackpoint>
            <Time>2021-08-11T15:24:41.000Z</Time>
            <Position>
              <LatitudeDegrees>43.3235578425228595733642578125</LatitudeDegrees>
              <LongitudeDegrees>-1.9008287228643894195556640625</LongitudeDegrees>
            </Position>
            <AltitudeMeters>28.799999237060546875</AltitudeMeters>
            <DistanceMeters>NAN</DistanceMeters>
          </Trackpoint>
          <Trackpoint>
            <Time>2021-08-11T15:24:43.000Z</Time>
            <Position>
              <LatitudeDegrees>43.3236527256667613983154296875</LatitudeDegrees>
              <LongitudeDegrees>-1.90087775699794292449951171875</LongitudeDegrees>
            </Position>
            <AltitudeMeters>28.799999237060546875</AltitudeMeters>
            <DistanceMeters>NAN</DistanceMeters>
          </Trackpoint>
          <Trackpoint>
            <Time>2021-08-11T15:24:44.000Z</Time>
            <Position>
              <LatitudeDegrees>43.32368751056492328643798828125</LatitudeDegrees>
              <LongitudeDegrees>-1.90089762210845947265625</LongitudeDegrees>
            </Position>
            <AltitudeMeters>28.799999237060546875</AltitudeMeters>
            <DistanceMeters>NAN</DistanceMeters>
          </Trackpoint>
          <Trackpoint>
            <Time>2021-08-11T15:24:45.000Z</Time>
            <Position>
              <LatitudeDegrees>43.32372975535690784454345703125</LatitudeDegrees>
              <LongitudeDegrees>-1.9009252823889255523681640625</LongitudeDegrees>
            </Position>
            <AltitudeMeters>28.799999237060546875</AltitudeMeters>
            <DistanceMeters>NAN</DistanceMeters>
          </Trackpoint>
          <Trackpoint>
            <Time>2021-08-11T15:24:48.000Z</Time>
            <Position>
              <LatitudeDegrees>43.3238418214023113250732421875</LatitudeDegrees>
              <LongitudeDegrees>-1.90101790241897106170654296875</LongitudeDegrees>
            </Position>
            <AltitudeMeters>28.799999237060546875</AltitudeMeters>
            <DistanceMeters>NAN</DistanceMeters>
          </Trackpoint>
          <Trackpoint>
            <Time>2021-08-11T15:24:49.000Z</Time>
            <Position>
              <LatitudeDegrees>43.3238703198730945587158203125</LatitudeDegrees>
              <LongitudeDegrees>-1.901047490537166595458984375</LongitudeDegrees>
            </Position>
            <AltitudeMeters>28.799999237060546875</AltitudeMeters>
            <DistanceMeters>NAN</DistanceMeters>
          </Trackpoint>
          <Trackpoint>
            <Time>2021-08-11T15:24:50.000Z</Time>
            <Position>
              <LatitudeDegrees>43.323898650705814361572265625</LatitudeDegrees>
              <LongitudeDegrees>-1.90107934176921844482421875</LongitudeDegrees>
            </Position>
            <AltitudeMeters>28.799999237060546875</AltitudeMeters>
            <DistanceMeters>NAN</DistanceMeters>
          </Trackpoint>
          <Trackpoint>
            <Time>2021-08-11T15:24:51.000Z</Time>
            <Position>
              <LatitudeDegrees>43.32392488606274127960205078125</LatitudeDegrees>
              <LongitudeDegrees>-1.90111245028674602508544921875</LongitudeDegrees>
            </Position>
            <AltitudeMeters>28.799999237060546875</AltitudeMeters>
            <DistanceMeters>NAN</DistanceMeters>
          </Trackpoint>
          <Trackpoint>
            <Time>2021-08-11T15:24:52.000Z</Time>
            <Position>
              <LatitudeDegrees>43.323950283229351043701171875</LatitudeDegrees>
              <LongitudeDegrees>-1.90114597789943218231201171875</LongitudeDegrees>
            </Position>
            <AltitudeMeters>29</AltitudeMeters>
            <DistanceMeters>NAN</DistanceMeters>
          </Trackpoint>
          <Trackpoint>
            <Time>2021-08-11T15:24:54.000Z</Time>
            <Position>
              <LatitudeDegrees>43.3240121416747570037841796875</LatitudeDegrees>
              <LongitudeDegrees>-1.9012154638767242431640625</LongitudeDegrees>
            </Position>
            <AltitudeMeters>29</AltitudeMeters>
            <DistanceMeters>NAN</DistanceMeters>
          </Trackpoint>
          <Trackpoint>
            <Time>2021-08-11T15:24:55.000Z</Time>
            <Position>
              <LatitudeDegrees>43.32403385080397129058837890625</LatitudeDegrees>
              <LongitudeDegrees>-1.90123951993882656097412109375</LongitudeDegrees>
            </Position>
            <AltitudeMeters>29</AltitudeMeters>
            <DistanceMeters>NAN</DistanceMeters>
          </Trackpoint>
          <Trackpoint>
            <Time>2021-08-11T15:24:56.000Z</Time>
            <Position>
              <LatitudeDegrees>43.32405991852283477783203125</LatitudeDegrees>
              <LongitudeDegrees>-1.90127170644700527191162109375</LongitudeDegrees>
            </Position>
            <AltitudeMeters>29</AltitudeMeters>
            <DistanceMeters>NAN</DistanceMeters>
          </Trackpoint>
          <Trackpoint>
            <Time>2021-08-11T15:24:57.000Z</Time>
            <Position>
              <LatitudeDegrees>43.324083723127841949462890625</LatitudeDegrees>
              <LongitudeDegrees>-1.90130473114550113677978515625</LongitudeDegrees>
            </Position>
            <AltitudeMeters>29.200000762939453125</AltitudeMeters>
            <DistanceMeters>NAN</DistanceMeters>
          </Trackpoint>
          <Trackpoint>
            <Time>2021-08-11T15:24:58.000Z</Time>
            <Position>
              <LatitudeDegrees>43.32411088049411773681640625</LatitudeDegrees>
              <LongitudeDegrees>-1.90134529955685138702392578125</LongitudeDegrees>
            </Position>
            <AltitudeMeters>29.200000762939453125</AltitudeMeters>
            <DistanceMeters>NAN</DistanceMeters>
          </Trackpoint>
          <Trackpoint>
            <Time>2021-08-11T15:24:59.000Z</Time>
            <Position>
              <LatitudeDegrees>43.324134685099124908447265625</LatitudeDegrees>
              <LongitudeDegrees>-1.9013802520930767059326171875</LongitudeDegrees>
            </Position>
            <AltitudeMeters>29.3999996185302734375</AltitudeMeters>
            <DistanceMeters>NAN</DistanceMeters>
          </Trackpoint>
          <Trackpoint>
            <Time>2021-08-11T15:25:00.000Z</Time>
            <Position>
              <LatitudeDegrees>43.32415857352316379547119140625</LatitudeDegrees>
              <LongitudeDegrees>-1.9014166295528411865234375</LongitudeDegrees>
            </Position>
            <AltitudeMeters>29.6000003814697265625</AltitudeMeters>
            <DistanceMeters>NAN</DistanceMeters>
          </Trackpoint>
          <Trackpoint>
            <Time>2021-08-11T15:25:09.000Z</Time>
            <Position>
              <LatitudeDegrees>43.32433241419494152069091796875</LatitudeDegrees>
              <LongitudeDegrees>-1.90175785683095455169677734375</LongitudeDegrees>
            </Position>
            <AltitudeMeters>30</AltitudeMeters>
            <DistanceMeters>NAN</DistanceMeters>
          </Trackpoint>
          <Trackpoint>
            <Time>2021-08-11T15:25:11.000Z</Time>
            <Position>
              <LatitudeDegrees>43.32436275668442249298095703125</LatitudeDegrees>
              <LongitudeDegrees>-1.9018459506332874298095703125</LongitudeDegrees>
            </Position>
            <AltitudeMeters>30</AltitudeMeters>
            <DistanceMeters>NAN</DistanceMeters>
          </Trackpoint>
          <Trackpoint>
            <Time>2021-08-11T15:25:13.000Z</Time>
            <Position>
              <LatitudeDegrees>43.32438446581363677978515625</LatitudeDegrees>
              <LongitudeDegrees>-1.9019485451281070709228515625</LongitudeDegrees>
            </Position>
            <AltitudeMeters>30.6000003814697265625</AltitudeMeters>
            <DistanceMeters>NAN</DistanceMeters>
          </Trackpoint>
          <Trackpoint>
            <Time>2021-08-11T15:25:14.000Z</Time>
            <Position>
              <LatitudeDegrees>43.32439611665904521942138671875</LatitudeDegrees>
              <LongitudeDegrees>-1.90199053846299648284912109375</LongitudeDegrees>
            </Position>
            <AltitudeMeters>30.799999237060546875</AltitudeMeters>
            <DistanceMeters>NAN</DistanceMeters>
          </Trackpoint>
          <Trackpoint>
            <Time>2021-08-11T15:25:15.000Z</Time>
            <Position>
              <LatitudeDegrees>43.32440793514251708984375</LatitudeDegrees>
              <LongitudeDegrees>-1.90202976576983928680419921875</LongitudeDegrees>
            </Position>
            <AltitudeMeters>31</AltitudeMeters>
            <DistanceMeters>NAN</DistanceMeters>
          </Trackpoint>
          <Trackpoint>
            <Time>2021-08-11T15:25:16.000Z</Time>
            <Position>
              <LatitudeDegrees>43.32441941834986209869384765625</LatitudeDegrees>
              <LongitudeDegrees>-1.90207201056182384490966796875</LongitudeDegrees>
            </Position>
            <AltitudeMeters>31.200000762939453125</AltitudeMeters>
            <DistanceMeters>NAN</DistanceMeters>
          </Trackpoint>
          <Trackpoint>
            <Time>2021-08-11T15:25:18.000Z</Time>
            <Position>
              <LatitudeDegrees>43.32443819381296634674072265625</LatitudeDegrees>
              <LongitudeDegrees>-1.90215666778385639190673828125</LongitudeDegrees>
            </Position>
            <AltitudeMeters>31.3999996185302734375</AltitudeMeters>
            <DistanceMeters>NAN</DistanceMeters>
          </Trackpoint>
          <Trackpoint>
            <Time>2021-08-11T15:25:20.000Z</Time>
            <Position>
              <LatitudeDegrees>43.32445763982832431793212890625</LatitudeDegrees>
              <LongitudeDegrees>-1.90223461948335170745849609375</LongitudeDegrees>
            </Position>
            <AltitudeMeters>31.3999996185302734375</AltitudeMeters>
            <DistanceMeters>NAN</DistanceMeters>
          </Trackpoint>
          <Trackpoint>
            <Time>2021-08-11T15:25:21.000Z</Time>
            <Position>
              <LatitudeDegrees>43.3244654349982738494873046875</LatitudeDegrees>
              <LongitudeDegrees>-1.9022722542285919189453125</LongitudeDegrees>
            </Position>
            <AltitudeMeters>31.6000003814697265625</AltitudeMeters>
            <DistanceMeters>NAN</DistanceMeters>
          </Trackpoint>
          <Trackpoint>
            <Time>2021-08-11T15:25:22.000Z</Time>
            <Position>
              <LatitudeDegrees>43.32447457127273082733154296875</LatitudeDegrees>
              <LongitudeDegrees>-1.9023116491734981536865234375</LongitudeDegrees>
            </Position>
            <AltitudeMeters>31.6000003814697265625</AltitudeMeters>
            <DistanceMeters>NAN</DistanceMeters>
          </Trackpoint>
          <Trackpoint>
            <Time>2021-08-11T15:25:23.000Z</Time>
            <Position>
              <LatitudeDegrees>43.32448462955653667449951171875</LatitudeDegrees>
              <LongitudeDegrees>-1.90235129557549953460693359375</LongitudeDegrees>
            </Position>
            <AltitudeMeters>31.799999237060546875</AltitudeMeters>
            <DistanceMeters>NAN</DistanceMeters>
          </Trackpoint>
          <Trackpoint>
            <Time>2021-08-11T15:25:24.000Z</Time>
            <Position>
              <LatitudeDegrees>43.32449351437389850616455078125</LatitudeDegrees>
              <LongitudeDegrees>-1.9023954682052135467529296875</LongitudeDegrees>
            </Position>
            <AltitudeMeters>31.799999237060546875</AltitudeMeters>
            <DistanceMeters>NAN</DistanceMeters>
          </Trackpoint>
          <Trackpoint>
            <Time>2021-08-11T15:25:25.000Z</Time>
            <Position>
              <LatitudeDegrees>43.3244977891445159912109375</LatitudeDegrees>
              <LongitudeDegrees>-1.902439892292022705078125</LongitudeDegrees>
            </Position>
            <AltitudeMeters>31.799999237060546875</AltitudeMeters>
            <DistanceMeters>NAN</DistanceMeters>
          </Trackpoint>
          <Trackpoint>
            <Time>2021-08-11T15:25:26.000Z</Time>
            <Position>
              <LatitudeDegrees>43.32450105808675289154052734375</LatitudeDegrees>
              <LongitudeDegrees>-1.9024839811027050018310546875</LongitudeDegrees>
            </Position>
            <AltitudeMeters>31.799999237060546875</AltitudeMeters>
            <DistanceMeters>NAN</DistanceMeters>
          </Trackpoint>
          <Trackpoint>
            <Time>2021-08-11T15:25:27.000Z</Time>
            <Position>
              <LatitudeDegrees>43.32450474612414836883544921875</LatitudeDegrees>
              <LongitudeDegrees>-1.90252798609435558319091796875</LongitudeDegrees>
            </Position>
            <AltitudeMeters>32</AltitudeMeters>
            <DistanceMeters>NAN</DistanceMeters>
          </Trackpoint>
          <Trackpoint>
            <Time>2021-08-11T15:25:32.000Z</Time>
            <Position>
              <LatitudeDegrees>43.32452754490077495574951171875</LatitudeDegrees>
              <LongitudeDegrees>-1.902753375470638275146484375</LongitudeDegrees>
            </Position>
            <AltitudeMeters>32</AltitudeMeters>
            <DistanceMeters>NAN</DistanceMeters>
          </Trackpoint>
          <Trackpoint>
            <Time>2021-08-11T15:25:39.000Z</Time>
            <Position>
              <LatitudeDegrees>43.32456090487539768218994140625</LatitudeDegrees>
              <LongitudeDegrees>-1.90307113341987133026123046875</LongitudeDegrees>
            </Position>
            <AltitudeMeters>32</AltitudeMeters>
            <DistanceMeters>NAN</DistanceMeters>
          </Trackpoint>
          <Trackpoint>
            <Time>2021-08-11T15:25:47.000Z</Time>
            <Position>
              <LatitudeDegrees>43.324586637318134307861328125</LatitudeDegrees>
              <LongitudeDegrees>-1.90352912060916423797607421875</LongitudeDegrees>
            </Position>
            <AltitudeMeters>32</AltitudeMeters>
            <DistanceMeters>NAN</DistanceMeters>
          </Trackpoint>
          <Trackpoint>
            <Time>2021-08-11T15:25:55.000Z</Time>
            <Position>
              <LatitudeDegrees>43.324620835483074188232421875</LatitudeDegrees>
              <LongitudeDegrees>-1.9040282629430294036865234375</LongitudeDegrees>
            </Position>
            <AltitudeMeters>31.799999237060546875</AltitudeMeters>
            <DistanceMeters>NAN</DistanceMeters>
          </Trackpoint>
          <Trackpoint>
            <Time>2021-08-11T15:26:01.000Z</Time>
            <Position>
              <LatitudeDegrees>43.32462318241596221923828125</LatitudeDegrees>
              <LongitudeDegrees>-1.9043906964361667633056640625</LongitudeDegrees>
            </Position>
            <AltitudeMeters>31.799999237060546875</AltitudeMeters>
            <DistanceMeters>NAN</DistanceMeters>
          </Trackpoint>
          <Trackpoint>
            <Time>2021-08-11T15:26:02.000Z</Time>
            <Position>
              <LatitudeDegrees>43.324620835483074188232421875</LatitudeDegrees>
              <LongitudeDegrees>-1.9044497050344944000244140625</LongitudeDegrees>
            </Position>
            <AltitudeMeters>31.799999237060546875</AltitudeMeters>
            <DistanceMeters>NAN</DistanceMeters>
          </Trackpoint>
          <Trackpoint>
            <Time>2021-08-11T15:26:03.000Z</Time>
            <Position>
              <LatitudeDegrees>43.32461387850344181060791015625</LatitudeDegrees>
              <LongitudeDegrees>-1.90451013855636119842529296875</LongitudeDegrees>
            </Position>
            <AltitudeMeters>31.799999237060546875</AltitudeMeters>
            <DistanceMeters>NAN</DistanceMeters>
          </Trackpoint>
          <Trackpoint>
            <Time>2021-08-11T15:26:04.000Z</Time>
            <Position>
              <LatitudeDegrees>43.32460834644734859466552734375</LatitudeDegrees>
              <LongitudeDegrees>-1.90456747077405452728271484375</LongitudeDegrees>
            </Position>
            <AltitudeMeters>31.799999237060546875</AltitudeMeters>
            <DistanceMeters>NAN</DistanceMeters>
          </Trackpoint>
          <Trackpoint>
            <Time>2021-08-11T15:26:06.000Z</Time>
            <Position>
              <LatitudeDegrees>43.3245956897735595703125</LatitudeDegrees>
              <LongitudeDegrees>-1.90467392094433307647705078125</LongitudeDegrees>
            </Position>
            <AltitudeMeters>32</AltitudeMeters>
            <DistanceMeters>NAN</DistanceMeters>
          </Trackpoint>
          <Trackpoint>
            <Time>2021-08-11T15:26:07.000Z</Time>
            <Position>
              <LatitudeDegrees>43.3245894871652126312255859375</LatitudeDegrees>
              <LongitudeDegrees>-1.90472337417304515838623046875</LongitudeDegrees>
            </Position>
            <AltitudeMeters>32</AltitudeMeters>
            <DistanceMeters>NAN</DistanceMeters>
          </Trackpoint>
          <Trackpoint>
            <Time>2021-08-11T15:26:08.000Z</Time>
            <Position>
              <LatitudeDegrees>43.3245847932994365692138671875</LatitudeDegrees>
              <LongitudeDegrees>-1.90477618016302585601806640625</LongitudeDegrees>
            </Position>
            <AltitudeMeters>32</AltitudeMeters>
            <DistanceMeters>NAN</DistanceMeters>
          </Trackpoint>
          <Trackpoint>
            <Time>2021-08-11T15:26:09.000Z</Time>
            <Position>
              <LatitudeDegrees>43.32457766868174076080322265625</LatitudeDegrees>
              <LongitudeDegrees>-1.90483116544783115386962890625</LongitudeDegrees>
            </Position>
            <AltitudeMeters>32</AltitudeMeters>
            <DistanceMeters>NAN</DistanceMeters>
          </Trackpoint>
          <Trackpoint>
            <Time>2021-08-11T15:26:10.000Z</Time>
            <Position>
              <LatitudeDegrees>43.3245733939111232757568359375</LatitudeDegrees>
              <LongitudeDegrees>-1.904887072741985321044921875</LongitudeDegrees>
            </Position>
            <AltitudeMeters>32</AltitudeMeters>
            <DistanceMeters>NAN</DistanceMeters>
          </Trackpoint>
          <Trackpoint>
            <Time>2021-08-11T15:26:11.000Z</Time>
            <Position>
              <LatitudeDegrees>43.3245666883885860443115234375</LatitudeDegrees>
              <LongitudeDegrees>-1.904942728579044342041015625</LongitudeDegrees>
            </Position>
            <AltitudeMeters>32</AltitudeMeters>
            <DistanceMeters>NAN</DistanceMeters>
          </Trackpoint>
          <Trackpoint>
            <Time>2021-08-11T15:26:12.000Z</Time>
            <Position>
              <LatitudeDegrees>43.32455637864768505096435546875</LatitudeDegrees>
              <LongitudeDegrees>-1.90501020289957523345947265625</LongitudeDegrees>
            </Position>
            <AltitudeMeters>32</AltitudeMeters>
            <DistanceMeters>NAN</DistanceMeters>
          </Trackpoint>
          <Trackpoint>
            <Time>2021-08-11T15:26:13.000Z</Time>
            <Position>
              <LatitudeDegrees>43.32454782910645008087158203125</LatitudeDegrees>
              <LongitudeDegrees>-1.90505529753863811492919921875</LongitudeDegrees>
            </Position>
            <AltitudeMeters>32</AltitudeMeters>
            <DistanceMeters>NAN</DistanceMeters>
          </Trackpoint>
          <Trackpoint>
            <Time>2021-08-11T15:26:14.000Z</Time>
            <Position>
              <LatitudeDegrees>43.32453743554651737213134765625</LatitudeDegrees>
              <LongitudeDegrees>-1.905111372470855712890625</LongitudeDegrees>
            </Position>
            <AltitudeMeters>32.200000762939453125</AltitudeMeters>
            <DistanceMeters>NAN</DistanceMeters>
          </Trackpoint>
          <Trackpoint>
            <Time>2021-08-11T15:26:15.000Z</Time>
            <Position>
              <LatitudeDegrees>43.32452922128140926361083984375</LatitudeDegrees>
              <LongitudeDegrees>-1.90516627393662929534912109375</LongitudeDegrees>
            </Position>
            <AltitudeMeters>32.200000762939453125</AltitudeMeters>
            <DistanceMeters>NAN</DistanceMeters>
          </Trackpoint>
          <Trackpoint>
            <Time>2021-08-11T15:26:16.000Z</Time>
            <Position>
              <LatitudeDegrees>43.32451991736888885498046875</LatitudeDegrees>
              <LongitudeDegrees>-1.905218325555324554443359375</LongitudeDegrees>
            </Position>
            <AltitudeMeters>32.40000152587890625</AltitudeMeters>
            <DistanceMeters>NAN</DistanceMeters>
          </Trackpoint>
          <Trackpoint>
            <Time>2021-08-11T15:26:20.000Z</Time>
            <Position>
              <LatitudeDegrees>43.3244821988046169281005859375</LatitudeDegrees>
              <LongitudeDegrees>-1.90543147735297679901123046875</LongitudeDegrees>
            </Position>
            <AltitudeMeters>32.59999847412109375</AltitudeMeters>
            <DistanceMeters>NAN</DistanceMeters>
          </Trackpoint>
          <Trackpoint>
            <Time>2021-08-11T15:26:30.000Z</Time>
            <Position>
              <LatitudeDegrees>43.3244039118289947509765625</LatitudeDegrees>
              <LongitudeDegrees>-1.90602860413491725921630859375</LongitudeDegrees>
            </Position>
            <AltitudeMeters>32.59999847412109375</AltitudeMeters>
            <DistanceMeters>NAN</DistanceMeters>
          </Trackpoint>
          <Trackpoint>
            <Time>2021-08-11T15:26:38.000Z</Time>
            <Position>
              <LatitudeDegrees>43.3243222720921039581298828125</LatitudeDegrees>
              <LongitudeDegrees>-1.9065208733081817626953125</LongitudeDegrees>
            </Position>
            <AltitudeMeters>31.799999237060546875</AltitudeMeters>
            <DistanceMeters>NAN</DistanceMeters>
          </Trackpoint>
          <Trackpoint>
            <Time>2021-08-11T15:26:39.000Z</Time>
            <Position>
              <LatitudeDegrees>43.32431137561798095703125</LatitudeDegrees>
              <LongitudeDegrees>-1.9065723381936550140380859375</LongitudeDegrees>
            </Position>
            <AltitudeMeters>31.3999996185302734375</AltitudeMeters>
            <DistanceMeters>NAN</DistanceMeters>
          </Trackpoint>
          <Trackpoint>
            <Time>2021-08-11T15:26:40.000Z</Time>
            <Position>
              <LatitudeDegrees>43.32429972477257251739501953125</LatitudeDegrees>
              <LongitudeDegrees>-1.90662036649882793426513671875</LongitudeDegrees>
            </Position>
            <AltitudeMeters>31.200000762939453125</AltitudeMeters>
            <DistanceMeters>NAN</DistanceMeters>
          </Trackpoint>
          <Trackpoint>
            <Time>2021-08-11T15:26:41.000Z</Time>
            <Position>
              <LatitudeDegrees>43.32428924739360809326171875</LatitudeDegrees>
              <LongitudeDegrees>-1.9066655449569225311279296875</LongitudeDegrees>
            </Position>
            <AltitudeMeters>31</AltitudeMeters>
            <DistanceMeters>NAN</DistanceMeters>
          </Trackpoint>
          <Trackpoint>
            <Time>2021-08-11T15:26:42.000Z</Time>
            <Position>
              <LatitudeDegrees>43.32428379915654659271240234375</LatitudeDegrees>
              <LongitudeDegrees>-1.90670753829181194305419921875</LongitudeDegrees>
            </Position>
            <AltitudeMeters>31</AltitudeMeters>
            <DistanceMeters>NAN</DistanceMeters>
          </Trackpoint>
          <Trackpoint>
            <Time>2021-08-11T15:26:43.000Z</Time>
            <Position>
              <LatitudeDegrees>43.32427583634853363037109375</LatitudeDegrees>
              <LongitudeDegrees>-1.90674492157995700836181640625</LongitudeDegrees>
            </Position>
            <AltitudeMeters>30.799999237060546875</AltitudeMeters>
            <DistanceMeters>NAN</DistanceMeters>
          </Trackpoint>
          <Trackpoint>
            <Time>2021-08-11T15:26:44.000Z</Time>
            <Position>
              <LatitudeDegrees>43.324268124997615814208984375</LatitudeDegrees>
              <LongitudeDegrees>-1.9067808799445629119873046875</LongitudeDegrees>
            </Position>
            <AltitudeMeters>30.6000003814697265625</AltitudeMeters>
            <DistanceMeters>NAN</DistanceMeters>
          </Trackpoint>
          <Trackpoint>
            <Time>2021-08-11T15:26:45.000Z</Time>
            <Position>
              <LatitudeDegrees>43.3242615871131420135498046875</LatitudeDegrees>
              <LongitudeDegrees>-1.90681390464305877685546875</LongitudeDegrees>
            </Position>
            <AltitudeMeters>30.3999996185302734375</AltitudeMeters>
            <DistanceMeters>NAN</DistanceMeters>
          </Trackpoint>
          <Trackpoint>
            <Time>2021-08-11T15:26:46.000Z</Time>
            <Position>
              <LatitudeDegrees>43.3242555521428585052490234375</LatitudeDegrees>
              <LongitudeDegrees>-1.90683930180966854095458984375</LongitudeDegrees>
            </Position>
            <AltitudeMeters>30.3999996185302734375</AltitudeMeters>
            <DistanceMeters>NAN</DistanceMeters>
          </Trackpoint>
          <Trackpoint>
            <Time>2021-08-11T15:26:47.000Z</Time>
            <Position>
              <LatitudeDegrees>43.32425077445805072784423828125</LatitudeDegrees>
              <LongitudeDegrees>-1.906865872442722320556640625</LongitudeDegrees>
            </Position>
            <AltitudeMeters>30.3999996185302734375</AltitudeMeters>
            <DistanceMeters>NAN</DistanceMeters>
          </Trackpoint>
          <Trackpoint>
            <Time>2021-08-11T15:26:48.000Z</Time>
            <Position>
              <LatitudeDegrees>43.32424758933484554290771484375</LatitudeDegrees>
              <LongitudeDegrees>-1.9068908505141735076904296875</LongitudeDegrees>
            </Position>
            <AltitudeMeters>30.200000762939453125</AltitudeMeters>
            <DistanceMeters>NAN</DistanceMeters>
          </Trackpoint>
          <Trackpoint>
            <Time>2021-08-11T15:26:49.000Z</Time>
            <Position>
              <LatitudeDegrees>43.3242458291351795196533203125</LatitudeDegrees>
              <LongitudeDegrees>-1.90691172145307064056396484375</LongitudeDegrees>
            </Position>
            <AltitudeMeters>30.200000762939453125</AltitudeMeters>
            <DistanceMeters>NAN</DistanceMeters>
          </Trackpoint>
          <Trackpoint>
            <Time>2021-08-11T15:26:50.000Z</Time>
            <Position>
              <LatitudeDegrees>43.324244655668735504150390625</LatitudeDegrees>
              <LongitudeDegrees>-1.9069290719926357269287109375</LongitudeDegrees>
            </Position>
            <AltitudeMeters>30</AltitudeMeters>
            <DistanceMeters>NAN</DistanceMeters>
          </Trackpoint>
          <Trackpoint>
            <Time>2021-08-11T15:26:51.000Z</Time>
            <Position>
              <LatitudeDegrees>43.32424289546906948089599609375</LatitudeDegrees>
              <LongitudeDegrees>-1.906940974295139312744140625</LongitudeDegrees>
            </Position>
            <AltitudeMeters>30</AltitudeMeters>
            <DistanceMeters>NAN</DistanceMeters>
          </Trackpoint>
          <Trackpoint>
            <Time>2021-08-11T15:26:52.000Z</Time>
            <Position>
              <LatitudeDegrees>43.324241973459720611572265625</LatitudeDegrees>
              <LongitudeDegrees>-1.9069468416273593902587890625</LongitudeDegrees>
            </Position>
            <AltitudeMeters>29.799999237060546875</AltitudeMeters>
            <DistanceMeters>NAN</DistanceMeters>
          </Trackpoint>
          <Trackpoint>
            <Time>2021-08-11T15:26:57.000Z</Time>
            <Position>
              <LatitudeDegrees>43.324241973459720611572265625</LatitudeDegrees>
              <LongitudeDegrees>-1.9069468416273593902587890625</LongitudeDegrees>
            </Position>
            <AltitudeMeters>29.6000003814697265625</AltitudeMeters>
            <DistanceMeters>NAN</DistanceMeters>
          </Trackpoint>
          <Trackpoint>
            <Time>2021-08-11T15:27:21.000Z</Time>
            <Position>
              <LatitudeDegrees>43.3242424763739109039306640625</LatitudeDegrees>
              <LongitudeDegrees>-1.9069500267505645751953125</LongitudeDegrees>
            </Position>
            <AltitudeMeters>29</AltitudeMeters>
            <DistanceMeters>NAN</DistanceMeters>
          </Trackpoint>
          <Trackpoint>
            <Time>2021-08-11T15:27:23.000Z</Time>
            <Position>
              <LatitudeDegrees>43.324256725609302520751953125</LatitudeDegrees>
              <LongitudeDegrees>-1.90700928680598735809326171875</LongitudeDegrees>
            </Position>
            <AltitudeMeters>29</AltitudeMeters>
            <DistanceMeters>NAN</DistanceMeters>
          </Trackpoint>
          <Trackpoint>
            <Time>2021-08-11T15:27:24.000Z</Time>
            <Position>
              <LatitudeDegrees>43.32425915636122226715087890625</LatitudeDegrees>
              <LongitudeDegrees>-1.9070484302937984466552734375</LongitudeDegrees>
            </Position>
            <AltitudeMeters>28.799999237060546875</AltitudeMeters>
            <DistanceMeters>NAN</DistanceMeters>
          </Trackpoint>
          <Trackpoint>
            <Time>2021-08-11T15:27:26.000Z</Time>
            <Position>
              <LatitudeDegrees>43.324251361191272735595703125</LatitudeDegrees>
              <LongitudeDegrees>-1.9071399606764316558837890625</LongitudeDegrees>
            </Position>
            <AltitudeMeters>28.799999237060546875</AltitudeMeters>
            <DistanceMeters>NAN</DistanceMeters>
          </Trackpoint>
          <Trackpoint>
            <Time>2021-08-11T15:27:27.000Z</Time>
            <Position>
              <LatitudeDegrees>43.32424390129745006561279296875</LatitudeDegrees>
              <LongitudeDegrees>-1.9071902520954608917236328125</LongitudeDegrees>
            </Position>
            <AltitudeMeters>28.6000003814697265625</AltitudeMeters>
            <DistanceMeters>NAN</DistanceMeters>
          </Trackpoint>
          <Trackpoint>
            <Time>2021-08-11T15:27:29.000Z</Time>
            <Position>
              <LatitudeDegrees>43.324236609041690826416015625</LatitudeDegrees>
              <LongitudeDegrees>-1.90730298869311809539794921875</LongitudeDegrees>
            </Position>
            <AltitudeMeters>28.3999996185302734375</AltitudeMeters>
            <DistanceMeters>NAN</DistanceMeters>
          </Trackpoint>
          <Trackpoint>
            <Time>2021-08-11T15:27:30.000Z</Time>
            <Position>
              <LatitudeDegrees>43.324227891862392425537109375</LatitudeDegrees>
              <LongitudeDegrees>-1.90736132673919200897216796875</LongitudeDegrees>
            </Position>
            <AltitudeMeters>28.3999996185302734375</AltitudeMeters>
            <DistanceMeters>NAN</DistanceMeters>
          </Trackpoint>
          <Trackpoint>
            <Time>2021-08-11T15:27:33.000Z</Time>
            <Position>
              <LatitudeDegrees>43.324196375906467437744140625</LatitudeDegrees>
              <LongitudeDegrees>-1.90754103474318981170654296875</LongitudeDegrees>
            </Position>
            <AltitudeMeters>27.799999237060546875</AltitudeMeters>
            <DistanceMeters>NAN</DistanceMeters>
          </Trackpoint>
          <Trackpoint>
            <Time>2021-08-11T15:27:35.000Z</Time>
            <Position>
              <LatitudeDegrees>43.32417617551982402801513671875</LatitudeDegrees>
              <LongitudeDegrees>-1.90767179243266582489013671875</LongitudeDegrees>
            </Position>
            <AltitudeMeters>27.6000003814697265625</AltitudeMeters>
            <DistanceMeters>NAN</DistanceMeters>
          </Trackpoint>
          <Trackpoint>
            <Time>2021-08-11T15:27:39.000Z</Time>
            <Position>
              <LatitudeDegrees>43.32414449192583560943603515625</LatitudeDegrees>
              <LongitudeDegrees>-1.90798058174550533294677734375</LongitudeDegrees>
            </Position>
            <AltitudeMeters>26.799999237060546875</AltitudeMeters>
            <DistanceMeters>NAN</DistanceMeters>
          </Trackpoint>
          <Trackpoint>
            <Time>2021-08-11T15:27:41.000Z</Time>
            <Position>
              <LatitudeDegrees>43.3241351880133152008056640625</LatitudeDegrees>
              <LongitudeDegrees>-1.908127181231975555419921875</LongitudeDegrees>
            </Position>
            <AltitudeMeters>26.3999996185302734375</AltitudeMeters>
            <DistanceMeters>NAN</DistanceMeters>
          </Trackpoint>
          <Trackpoint>
            <Time>2021-08-11T15:27:44.000Z</Time>
            <Position>
              <LatitudeDegrees>43.324140049517154693603515625</LatitudeDegrees>
              <LongitudeDegrees>-1.9084140099585056304931640625</LongitudeDegrees>
            </Position>
            <AltitudeMeters>25.799999237060546875</AltitudeMeters>
            <DistanceMeters>NAN</DistanceMeters>
          </Trackpoint>
          <Trackpoint>
            <Time>2021-08-11T15:27:46.000Z</Time>
            <Position>
              <LatitudeDegrees>43.32416561432182788848876953125</LatitudeDegrees>
              <LongitudeDegrees>-1.90859229303896427154541015625</LongitudeDegrees>
            </Position>
            <AltitudeMeters>25.3999996185302734375</AltitudeMeters>
            <DistanceMeters>NAN</DistanceMeters>
          </Trackpoint>
          <Trackpoint>
            <Time>2021-08-11T15:27:48.000Z</Time>
            <Position>
              <LatitudeDegrees>43.324203081429004669189453125</LatitudeDegrees>
              <LongitudeDegrees>-1.90881240181624889373779296875</LongitudeDegrees>
            </Position>
            <AltitudeMeters>24.799999237060546875</AltitudeMeters>
            <DistanceMeters>NAN</DistanceMeters>
          </Trackpoint>
          <Trackpoint>
            <Time>2021-08-11T15:27:49.000Z</Time>
            <Position>
              <LatitudeDegrees>43.32421858794987201690673828125</LatitudeDegrees>
              <LongitudeDegrees>-1.90888448618352413177490234375</LongitudeDegrees>
            </Position>
            <AltitudeMeters>24.799999237060546875</AltitudeMeters>
            <DistanceMeters>NAN</DistanceMeters>
          </Trackpoint>
          <Trackpoint>
            <Time>2021-08-11T15:27:50.000Z</Time>
            <Position>
              <LatitudeDegrees>43.32424096763134002685546875</LatitudeDegrees>
              <LongitudeDegrees>-1.90897031687200069427490234375</LongitudeDegrees>
            </Position>
            <AltitudeMeters>24.200000762939453125</AltitudeMeters>
            <DistanceMeters>NAN</DistanceMeters>
          </Trackpoint>
          <Trackpoint>
            <Time>2021-08-11T15:27:51.000Z</Time>
            <Position>
              <LatitudeDegrees>43.3242729865014553070068359375</LatitudeDegrees>
              <LongitudeDegrees>-1.909071318805217742919921875</LongitudeDegrees>
            </Position>
            <AltitudeMeters>23.799999237060546875</AltitudeMeters>
            <DistanceMeters>NAN</DistanceMeters>
          </Trackpoint>
          <Trackpoint>
            <Time>2021-08-11T15:27:56.000Z</Time>
            <Position>
              <LatitudeDegrees>43.3244332484900951385498046875</LatitudeDegrees>
              <LongitudeDegrees>-1.9094982929527759552001953125</LongitudeDegrees>
            </Position>
            <AltitudeMeters>22.200000762939453125</AltitudeMeters>
            <DistanceMeters>NAN</DistanceMeters>
          </Trackpoint>
          <Trackpoint>
            <Time>2021-08-11T15:27:58.000Z</Time>
            <Position>
              <LatitudeDegrees>43.32448697648942470550537109375</LatitudeDegrees>
              <LongitudeDegrees>-1.90965293906629085540771484375</LongitudeDegrees>
            </Position>
            <AltitudeMeters>21.200000762939453125</AltitudeMeters>
            <DistanceMeters>NAN</DistanceMeters>
          </Trackpoint>
          <Trackpoint>
            <Time>2021-08-11T15:27:59.000Z</Time>
            <Position>
              <LatitudeDegrees>43.32451061345636844635009765625</LatitudeDegrees>
              <LongitudeDegrees>-1.909734494984149932861328125</LongitudeDegrees>
            </Position>
            <AltitudeMeters>21</AltitudeMeters>
            <DistanceMeters>NAN</DistanceMeters>
          </Trackpoint>
          <Trackpoint>
            <Time>2021-08-11T15:28:00.000Z</Time>
            <Position>
              <LatitudeDegrees>43.32453039474785327911376953125</LatitudeDegrees>
              <LongitudeDegrees>-1.90981797873973846435546875</LongitudeDegrees>
            </Position>
            <AltitudeMeters>20.799999237060546875</AltitudeMeters>
            <DistanceMeters>NAN</DistanceMeters>
          </Trackpoint>
          <Trackpoint>
            <Time>2021-08-11T15:28:01.000Z</Time>
            <Position>
              <LatitudeDegrees>43.32454741001129150390625</LatitudeDegrees>
              <LongitudeDegrees>-1.909900121390819549560546875</LongitudeDegrees>
            </Position>
            <AltitudeMeters>20.6000003814697265625</AltitudeMeters>
            <DistanceMeters>NAN</DistanceMeters>
          </Trackpoint>
          <Trackpoint>
            <Time>2021-08-11T15:28:02.000Z</Time>
            <Position>
              <LatitudeDegrees>43.32456157542765140533447265625</LatitudeDegrees>
              <LongitudeDegrees>-1.9099934957921504974365234375</LongitudeDegrees>
            </Position>
            <AltitudeMeters>20.3999996185302734375</AltitudeMeters>
            <DistanceMeters>NAN</DistanceMeters>
          </Trackpoint>
          <Trackpoint>
            <Time>2021-08-11T15:28:03.000Z</Time>
            <Position>
              <LatitudeDegrees>43.3245660178363323211669921875</LatitudeDegrees>
              <LongitudeDegrees>-1.91005208529531955718994140625</LongitudeDegrees>
            </Position>
            <AltitudeMeters>20.3999996185302734375</AltitudeMeters>
            <DistanceMeters>NAN</DistanceMeters>
          </Trackpoint>
          <Trackpoint>
            <Time>2021-08-11T15:28:04.000Z</Time>
            <Position>
              <LatitudeDegrees>43.32456861622631549835205078125</LatitudeDegrees>
              <LongitudeDegrees>-1.9101230800151824951171875</LongitudeDegrees>
            </Position>
            <AltitudeMeters>20.200000762939453125</AltitudeMeters>
            <DistanceMeters>NAN</DistanceMeters>
          </Trackpoint>
          <Trackpoint>
            <Time>2021-08-11T15:28:05.000Z</Time>
            <Position>
              <LatitudeDegrees>43.3245653472840785980224609375</LatitudeDegrees>
              <LongitudeDegrees>-1.91018887795507907867431640625</LongitudeDegrees>
            </Position>
            <AltitudeMeters>20.200000762939453125</AltitudeMeters>
            <DistanceMeters>NAN</DistanceMeters>
          </Trackpoint>
          <Trackpoint>
            <Time>2021-08-11T15:28:06.000Z</Time>
            <Position>
              <LatitudeDegrees>43.32455721683800220489501953125</LatitudeDegrees>
              <LongitudeDegrees>-1.9102476350963115692138671875</LongitudeDegrees>
            </Position>
            <AltitudeMeters>20.200000762939453125</AltitudeMeters>
            <DistanceMeters>NAN</DistanceMeters>
          </Trackpoint>
          <Trackpoint>
            <Time>2021-08-11T15:28:07.000Z</Time>
            <Position>
              <LatitudeDegrees>43.32454405725002288818359375</LatitudeDegrees>
              <LongitudeDegrees>-1.91030153073370456695556640625</LongitudeDegrees>
            </Position>
            <AltitudeMeters>20.200000762939453125</AltitudeMeters>
            <DistanceMeters>NAN</DistanceMeters>
          </Trackpoint>
          <Trackpoint>
            <Time>2021-08-11T15:28:08.000Z</Time>
            <Position>
              <LatitudeDegrees>43.32453156821429729461669921875</LatitudeDegrees>
              <LongitudeDegrees>-1.9103552587330341339111328125</LongitudeDegrees>
            </Position>
            <AltitudeMeters>20</AltitudeMeters>
            <DistanceMeters>NAN</DistanceMeters>
          </Trackpoint>
          <Trackpoint>
            <Time>2021-08-11T15:28:09.000Z</Time>
            <Position>
              <LatitudeDegrees>43.32451497204601764678955078125</LatitudeDegrees>
              <LongitudeDegrees>-1.91040898673236370086669921875</LongitudeDegrees>
            </Position>
            <AltitudeMeters>20</AltitudeMeters>
            <DistanceMeters>NAN</DistanceMeters>
          </Trackpoint>
          <Trackpoint>
            <Time>2021-08-11T15:28:12.000Z</Time>
            <Position>
              <LatitudeDegrees>43.32443266175687313079833984375</LatitudeDegrees>
              <LongitudeDegrees>-1.91056497395038604736328125</LongitudeDegrees>
            </Position>
            <AltitudeMeters>20</AltitudeMeters>
            <DistanceMeters>NAN</DistanceMeters>
          </Trackpoint>
          <Trackpoint>
            <Time>2021-08-11T15:28:13.000Z</Time>
            <Position>
              <LatitudeDegrees>43.32439678721129894256591796875</LatitudeDegrees>
              <LongitudeDegrees>-1.91060654819011688232421875</LongitudeDegrees>
            </Position>
            <AltitudeMeters>20</AltitudeMeters>
            <DistanceMeters>NAN</DistanceMeters>
          </Trackpoint>
          <Trackpoint>
            <Time>2021-08-11T15:28:15.000Z</Time>
            <Position>
              <LatitudeDegrees>43.32432369701564311981201171875</LatitudeDegrees>
              <LongitudeDegrees>-1.91068961285054683685302734375</LongitudeDegrees>
            </Position>
            <AltitudeMeters>20</AltitudeMeters>
            <DistanceMeters>NAN</DistanceMeters>
          </Trackpoint>
          <Trackpoint>
            <Time>2021-08-11T15:28:19.000Z</Time>
            <Position>
              <LatitudeDegrees>43.324179612100124359130859375</LatitudeDegrees>
              <LongitudeDegrees>-1.9108350388705730438232421875</LongitudeDegrees>
            </Position>
            <AltitudeMeters>20</AltitudeMeters>
            <DistanceMeters>NAN</DistanceMeters>
          </Trackpoint>
          <Trackpoint>
            <Time>2021-08-11T15:28:20.000Z</Time>
            <Position>
              <LatitudeDegrees>43.324144743382930755615234375</LatitudeDegrees>
              <LongitudeDegrees>-1.91086429171264171600341796875</LongitudeDegrees>
            </Position>
            <AltitudeMeters>20</AltitudeMeters>
            <DistanceMeters>NAN</DistanceMeters>
          </Trackpoint>
          <Trackpoint>
            <Time>2021-08-11T15:28:21.000Z</Time>
            <Position>
              <LatitudeDegrees>43.32411398179829120635986328125</LatitudeDegrees>
              <LongitudeDegrees>-1.91088692285120487213134765625</LongitudeDegrees>
            </Position>
            <AltitudeMeters>20</AltitudeMeters>
            <DistanceMeters>NAN</DistanceMeters>
          </Trackpoint>
          <Trackpoint>
            <Time>2021-08-11T15:28:22.000Z</Time>
            <Position>
              <LatitudeDegrees>43.32408397458493709564208984375</LatitudeDegrees>
              <LongitudeDegrees>-1.91090988926589488983154296875</LongitudeDegrees>
            </Position>
            <AltitudeMeters>20.200000762939453125</AltitudeMeters>
            <DistanceMeters>NAN</DistanceMeters>
          </Trackpoint>
          <Trackpoint>
            <Time>2021-08-11T15:28:23.000Z</Time>
            <Position>
              <LatitudeDegrees>43.32405748777091503143310546875</LatitudeDegrees>
              <LongitudeDegrees>-1.9109342806041240692138671875</LongitudeDegrees>
            </Position>
            <AltitudeMeters>20.3999996185302734375</AltitudeMeters>
            <DistanceMeters>NAN</DistanceMeters>
          </Trackpoint>
          <Trackpoint>
            <Time>2021-08-11T15:28:24.000Z</Time>
            <Position>
              <LatitudeDegrees>43.3240305818617343902587890625</LatitudeDegrees>
              <LongitudeDegrees>-1.91095649264752864837646484375</LongitudeDegrees>
            </Position>
            <AltitudeMeters>20.3999996185302734375</AltitudeMeters>
            <DistanceMeters>NAN</DistanceMeters>
          </Trackpoint>
          <Trackpoint>
            <Time>2021-08-11T15:28:25.000Z</Time>
            <Position>
              <LatitudeDegrees>43.32400359213352203369140625</LatitudeDegrees>
              <LongitudeDegrees>-1.91097945906221866607666015625</LongitudeDegrees>
            </Position>
            <AltitudeMeters>20.6000003814697265625</AltitudeMeters>
            <DistanceMeters>NAN</DistanceMeters>
          </Trackpoint>
          <Trackpoint>
            <Time>2021-08-11T15:28:26.000Z</Time>
            <Position>
              <LatitudeDegrees>43.32397668622434139251708984375</LatitudeDegrees>
              <LongitudeDegrees>-1.91100812517106533050537109375</LongitudeDegrees>
            </Position>
            <AltitudeMeters>20.6000003814697265625</AltitudeMeters>
            <DistanceMeters>NAN</DistanceMeters>
          </Trackpoint>
          <Trackpoint>
            <Time>2021-08-11T15:28:33.000Z</Time>
            <Position>
              <LatitudeDegrees>43.3237449266016483306884765625</LatitudeDegrees>
              <LongitudeDegrees>-1.911196298897266387939453125</LongitudeDegrees>
            </Position>
            <AltitudeMeters>21.200000762939453125</AltitudeMeters>
            <DistanceMeters>NAN</DistanceMeters>
          </Trackpoint>
          <Trackpoint>
            <Time>2021-08-11T15:28:34.000Z</Time>
            <Position>
              <LatitudeDegrees>43.3237113989889621734619140625</LatitudeDegrees>
              <LongitudeDegrees>-1.91122588701546192169189453125</LongitudeDegrees>
            </Position>
            <AltitudeMeters>21.200000762939453125</AltitudeMeters>
            <DistanceMeters>NAN</DistanceMeters>
          </Trackpoint>
          <Trackpoint>
            <Time>2021-08-11T15:28:39.000Z</Time>
            <Position>
              <LatitudeDegrees>43.32354920916259288787841796875</LatitudeDegrees>
              <LongitudeDegrees>-1.91135681234300136566162109375</LongitudeDegrees>
            </Position>
            <AltitudeMeters>21.200000762939453125</AltitudeMeters>
            <DistanceMeters>NAN</DistanceMeters>
          </Trackpoint>
          <Trackpoint>
            <Time>2021-08-11T15:28:40.000Z</Time>
            <Position>
              <LatitudeDegrees>43.323521800339221954345703125</LatitudeDegrees>
              <LongitudeDegrees>-1.91138614900410175323486328125</LongitudeDegrees>
            </Position>
            <AltitudeMeters>21.200000762939453125</AltitudeMeters>
            <DistanceMeters>NAN</DistanceMeters>
          </Trackpoint>
          <Trackpoint>
            <Time>2021-08-11T15:28:48.000Z</Time>
            <Position>
              <LatitudeDegrees>43.32328635267913341522216796875</LatitudeDegrees>
              <LongitudeDegrees>-1.9116755761206150054931640625</LongitudeDegrees>
            </Position>
            <AltitudeMeters>20.799999237060546875</AltitudeMeters>
            <DistanceMeters>NAN</DistanceMeters>
          </Trackpoint>
          <Trackpoint>
            <Time>2021-08-11T15:28:50.000Z</Time>
            <Position>
              <LatitudeDegrees>43.32324746064841747283935546875</LatitudeDegrees>
              <LongitudeDegrees>-1.9117483310401439666748046875</LongitudeDegrees>
            </Position>
            <AltitudeMeters>20.799999237060546875</AltitudeMeters>
            <DistanceMeters>NAN</DistanceMeters>
          </Trackpoint>
          <Trackpoint>
            <Time>2021-08-11T15:28:51.000Z</Time>
            <Position>
              <LatitudeDegrees>43.32323019392788410186767578125</LatitudeDegrees>
              <LongitudeDegrees>-1.91178479231894016265869140625</LongitudeDegrees>
            </Position>
            <AltitudeMeters>20.6000003814697265625</AltitudeMeters>
            <DistanceMeters>NAN</DistanceMeters>
          </Trackpoint>
          <Trackpoint>
            <Time>2021-08-11T15:28:52.000Z</Time>
            <Position>
              <LatitudeDegrees>43.32320965826511383056640625</LatitudeDegrees>
              <LongitudeDegrees>-1.91181999631226062774658203125</LongitudeDegrees>
            </Position>
            <AltitudeMeters>20.6000003814697265625</AltitudeMeters>
            <DistanceMeters>NAN</DistanceMeters>
          </Trackpoint>
          <Trackpoint>
            <Time>2021-08-11T15:28:53.000Z</Time>
            <Position>
              <LatitudeDegrees>43.32318627275526523590087890625</LatitudeDegrees>
              <LongitudeDegrees>-1.91185452975332736968994140625</LongitudeDegrees>
            </Position>
            <AltitudeMeters>20.6000003814697265625</AltitudeMeters>
            <DistanceMeters>NAN</DistanceMeters>
          </Trackpoint>
          <Trackpoint>
            <Time>2021-08-11T15:28:54.000Z</Time>
            <Position>
              <LatitudeDegrees>43.3231602050364017486572265625</LatitudeDegrees>
              <LongitudeDegrees>-1.91188302822411060333251953125</LongitudeDegrees>
            </Position>
            <AltitudeMeters>20.6000003814697265625</AltitudeMeters>
            <DistanceMeters>NAN</DistanceMeters>
          </Trackpoint>
          <Trackpoint>
            <Time>2021-08-11T15:28:55.000Z</Time>
            <Position>
              <LatitudeDegrees>43.3231437765061855316162109375</LatitudeDegrees>
              <LongitudeDegrees>-1.9119179807603359222412109375</LongitudeDegrees>
            </Position>
            <AltitudeMeters>20.6000003814697265625</AltitudeMeters>
            <DistanceMeters>NAN</DistanceMeters>
          </Trackpoint>
          <Trackpoint>
            <Time>2021-08-11T15:28:56.000Z</Time>
            <Position>
              <LatitudeDegrees>43.3231164515018463134765625</LatitudeDegrees>
              <LongitudeDegrees>-1.91194656305015087127685546875</LongitudeDegrees>
            </Position>
            <AltitudeMeters>20.6000003814697265625</AltitudeMeters>
            <DistanceMeters>NAN</DistanceMeters>
          </Trackpoint>
          <Trackpoint>
            <Time>2021-08-11T15:28:57.000Z</Time>
            <Position>
              <LatitudeDegrees>43.323090970516204833984375</LatitudeDegrees>
              <LongitudeDegrees>-1.91197992302477359771728515625</LongitudeDegrees>
            </Position>
            <AltitudeMeters>20.6000003814697265625</AltitudeMeters>
            <DistanceMeters>NAN</DistanceMeters>
          </Trackpoint>
          <Trackpoint>
            <Time>2021-08-11T15:28:59.000Z</Time>
            <Position>
              <LatitudeDegrees>43.323043696582317352294921875</LatitudeDegrees>
              <LongitudeDegrees>-1.9120524264872074127197265625</LongitudeDegrees>
            </Position>
            <AltitudeMeters>20.6000003814697265625</AltitudeMeters>
            <DistanceMeters>NAN</DistanceMeters>
          </Trackpoint>
          <Trackpoint>
            <Time>2021-08-11T15:29:07.000Z</Time>
            <Position>
              <LatitudeDegrees>43.32288351841270923614501953125</LatitudeDegrees>
              <LongitudeDegrees>-1.91234386526048183441162109375</LongitudeDegrees>
            </Position>
            <AltitudeMeters>20.6000003814697265625</AltitudeMeters>
            <DistanceMeters>NAN</DistanceMeters>
          </Trackpoint>
          <Trackpoint>
            <Time>2021-08-11T15:29:14.000Z</Time>
            <Position>
              <LatitudeDegrees>43.3227716200053691864013671875</LatitudeDegrees>
              <LongitudeDegrees>-1.91264812834560871124267578125</LongitudeDegrees>
            </Position>
            <AltitudeMeters>20.6000003814697265625</AltitudeMeters>
            <DistanceMeters>NAN</DistanceMeters>
          </Trackpoint>
          <Trackpoint>
            <Time>2021-08-11T15:29:17.000Z</Time>
            <Position>
              <LatitudeDegrees>43.3227387629449367523193359375</LatitudeDegrees>
              <LongitudeDegrees>-1.9127675704658031463623046875</LongitudeDegrees>
            </Position>
            <AltitudeMeters>20.799999237060546875</AltitudeMeters>
            <DistanceMeters>NAN</DistanceMeters>
          </Trackpoint>
          <Trackpoint>
            <Time>2021-08-11T15:29:18.000Z</Time>
            <Position>
              <LatitudeDegrees>43.32273214124143123626708984375</LatitudeDegrees>
              <LongitudeDegrees>-1.91281023435294628143310546875</LongitudeDegrees>
            </Position>
            <AltitudeMeters>20.799999237060546875</AltitudeMeters>
            <DistanceMeters>NAN</DistanceMeters>
          </Trackpoint>
          <Trackpoint>
            <Time>2021-08-11T15:29:19.000Z</Time>
            <Position>
              <LatitudeDegrees>43.322735242545604705810546875</LatitudeDegrees>
              <LongitudeDegrees>-1.91285784356296062469482421875</LongitudeDegrees>
            </Position>
            <AltitudeMeters>20.799999237060546875</AltitudeMeters>
            <DistanceMeters>NAN</DistanceMeters>
          </Trackpoint>
          <Trackpoint>
            <Time>2021-08-11T15:29:20.000Z</Time>
            <Position>
              <LatitudeDegrees>43.32273767329752445220947265625</LatitudeDegrees>
              <LongitudeDegrees>-1.91290545277297496795654296875</LongitudeDegrees>
            </Position>
            <AltitudeMeters>20.799999237060546875</AltitudeMeters>
            <DistanceMeters>NAN</DistanceMeters>
          </Trackpoint>
          <Trackpoint>
            <Time>2021-08-11T15:29:21.000Z</Time>
            <Position>
              <LatitudeDegrees>43.32273733802139759063720703125</LatitudeDegrees>
              <LongitudeDegrees>-1.9129529781639575958251953125</LongitudeDegrees>
            </Position>
            <AltitudeMeters>20.799999237060546875</AltitudeMeters>
            <DistanceMeters>NAN</DistanceMeters>
          </Trackpoint>
          <Trackpoint>
            <Time>2021-08-11T15:29:29.000Z</Time>
            <Position>
              <LatitudeDegrees>43.32275879569351673126220703125</LatitudeDegrees>
              <LongitudeDegrees>-1.9133107177913188934326171875</LongitudeDegrees>
            </Position>
            <AltitudeMeters>21.3999996185302734375</AltitudeMeters>
            <DistanceMeters>NAN</DistanceMeters>
          </Trackpoint>
          <Trackpoint>
            <Time>2021-08-11T15:29:32.000Z</Time>
            <Position>
              <LatitudeDegrees>43.3227947540581226348876953125</LatitudeDegrees>
              <LongitudeDegrees>-1.91343200393021106719970703125</LongitudeDegrees>
            </Position>
            <AltitudeMeters>21.6000003814697265625</AltitudeMeters>
            <DistanceMeters>NAN</DistanceMeters>
          </Trackpoint>
          <Trackpoint>
            <Time>2021-08-11T15:29:33.000Z</Time>
            <Position>
              <LatitudeDegrees>43.322802297770977020263671875</LatitudeDegrees>
              <LongitudeDegrees>-1.9134726561605930328369140625</LongitudeDegrees>
            </Position>
            <AltitudeMeters>21.6000003814697265625</AltitudeMeters>
            <DistanceMeters>NAN</DistanceMeters>
          </Trackpoint>
          <Trackpoint>
            <Time>2021-08-11T15:29:34.000Z</Time>
            <Position>
              <LatitudeDegrees>43.3228118531405925750732421875</LatitudeDegrees>
              <LongitudeDegrees>-1.9135122187435626983642578125</LongitudeDegrees>
            </Position>
            <AltitudeMeters>21.799999237060546875</AltitudeMeters>
            <DistanceMeters>NAN</DistanceMeters>
          </Trackpoint>
          <Trackpoint>
            <Time>2021-08-11T15:29:35.000Z</Time>
            <Position>
              <LatitudeDegrees>43.322822749614715576171875</LatitudeDegrees>
              <LongitudeDegrees>-1.9135470874607563018798828125</LongitudeDegrees>
            </Position>
            <AltitudeMeters>22</AltitudeMeters>
            <DistanceMeters>NAN</DistanceMeters>
          </Trackpoint>
          <Trackpoint>
            <Time>2021-08-11T15:29:36.000Z</Time>
            <Position>
              <LatitudeDegrees>43.3228356577455997467041015625</LatitudeDegrees>
              <LongitudeDegrees>-1.91357977688312530517578125</LongitudeDegrees>
            </Position>
            <AltitudeMeters>22</AltitudeMeters>
            <DistanceMeters>NAN</DistanceMeters>
          </Trackpoint>
          <Trackpoint>
            <Time>2021-08-11T15:29:37.000Z</Time>
            <Position>
              <LatitudeDegrees>43.32285569049417972564697265625</LatitudeDegrees>
              <LongitudeDegrees>-1.9136097840964794158935546875</LongitudeDegrees>
            </Position>
            <AltitudeMeters>22.200000762939453125</AltitudeMeters>
            <DistanceMeters>NAN</DistanceMeters>
          </Trackpoint>
          <Trackpoint>
            <Time>2021-08-11T15:29:38.000Z</Time>
            <Position>
              <LatitudeDegrees>43.32287882454693317413330078125</LatitudeDegrees>
              <LongitudeDegrees>-1.9136423058807849884033203125</LongitudeDegrees>
            </Position>
            <AltitudeMeters>22.200000762939453125</AltitudeMeters>
            <DistanceMeters>NAN</DistanceMeters>
          </Trackpoint>
          <Trackpoint>
            <Time>2021-08-11T15:29:39.000Z</Time>
            <Position>
              <LatitudeDegrees>43.32289558835327625274658203125</LatitudeDegrees>
              <LongitudeDegrees>-1.913676001131534576416015625</LongitudeDegrees>
            </Position>
            <AltitudeMeters>22.3999996185302734375</AltitudeMeters>
            <DistanceMeters>NAN</DistanceMeters>
          </Trackpoint>
          <Trackpoint>
            <Time>2021-08-11T15:29:40.000Z</Time>
            <Position>
              <LatitudeDegrees>43.32291117869317531585693359375</LatitudeDegrees>
              <LongitudeDegrees>-1.91371078602969646453857421875</LongitudeDegrees>
            </Position>
            <AltitudeMeters>22.3999996185302734375</AltitudeMeters>
            <DistanceMeters>NAN</DistanceMeters>
          </Trackpoint>
          <Trackpoint>
            <Time>2021-08-11T15:29:41.000Z</Time>
            <Position>
              <LatitudeDegrees>43.32292811013758182525634765625</LatitudeDegrees>
              <LongitudeDegrees>-1.91374883987009525299072265625</LongitudeDegrees>
            </Position>
            <AltitudeMeters>22.6000003814697265625</AltitudeMeters>
            <DistanceMeters>NAN</DistanceMeters>
          </Trackpoint>
          <Trackpoint>
            <Time>2021-08-11T15:29:45.000Z</Time>
            <Position>
              <LatitudeDegrees>43.3229959197342395782470703125</LatitudeDegrees>
              <LongitudeDegrees>-1.91393206827342510223388671875</LongitudeDegrees>
            </Position>
            <AltitudeMeters>22.799999237060546875</AltitudeMeters>
            <DistanceMeters>NAN</DistanceMeters>
          </Trackpoint>
          <Trackpoint>
            <Time>2021-08-11T15:29:46.000Z</Time>
            <Position>
              <LatitudeDegrees>43.32300924696028232574462890625</LatitudeDegrees>
              <LongitudeDegrees>-1.9139745645225048065185546875</LongitudeDegrees>
            </Position>
            <AltitudeMeters>23</AltitudeMeters>
            <DistanceMeters>NAN</DistanceMeters>
          </Trackpoint>
          <Trackpoint>
            <Time>2021-08-11T15:29:47.000Z</Time>
            <Position>
              <LatitudeDegrees>43.32302081398665904998779296875</LatitudeDegrees>
              <LongitudeDegrees>-1.91401697695255279541015625</LongitudeDegrees>
            </Position>
            <AltitudeMeters>23</AltitudeMeters>
            <DistanceMeters>NAN</DistanceMeters>
          </Trackpoint>
          <Trackpoint>
            <Time>2021-08-11T15:29:48.000Z</Time>
            <Position>
              <LatitudeDegrees>43.32302584312856197357177734375</LatitudeDegrees>
              <LongitudeDegrees>-1.9140605628490447998046875</LongitudeDegrees>
            </Position>
            <AltitudeMeters>23</AltitudeMeters>
            <DistanceMeters>NAN</DistanceMeters>
          </Trackpoint>
          <Trackpoint>
            <Time>2021-08-11T15:29:51.000Z</Time>
            <Position>
              <LatitudeDegrees>43.32302190363407135009765625</LatitudeDegrees>
              <LongitudeDegrees>-1.91417614929378032684326171875</LongitudeDegrees>
            </Position>
            <AltitudeMeters>23.3999996185302734375</AltitudeMeters>
            <DistanceMeters>NAN</DistanceMeters>
          </Trackpoint>
          <Trackpoint>
            <Time>2021-08-11T15:29:52.000Z</Time>
            <Position>
              <LatitudeDegrees>43.32300924696028232574462890625</LatitudeDegrees>
              <LongitudeDegrees>-1.9142045639455318450927734375</LongitudeDegrees>
            </Position>
            <AltitudeMeters>23.3999996185302734375</AltitudeMeters>
            <DistanceMeters>NAN</DistanceMeters>
          </Trackpoint>
          <Trackpoint>
            <Time>2021-08-11T15:29:53.000Z</Time>
            <Position>
              <LatitudeDegrees>43.3229935728013515472412109375</LatitudeDegrees>
              <LongitudeDegrees>-1.9142199866473674774169921875</LongitudeDegrees>
            </Position>
            <AltitudeMeters>23.3999996185302734375</AltitudeMeters>
            <DistanceMeters>NAN</DistanceMeters>
          </Trackpoint>
          <Trackpoint>
            <Time>2021-08-11T15:29:54.000Z</Time>
            <Position>
              <LatitudeDegrees>43.32297756336629390716552734375</LatitudeDegrees>
              <LongitudeDegrees>-1.9142295420169830322265625</LongitudeDegrees>
            </Position>
            <AltitudeMeters>23.6000003814697265625</AltitudeMeters>
            <DistanceMeters>NAN</DistanceMeters>
          </Trackpoint>
          <Trackpoint>
            <Time>2021-08-11T15:29:55.000Z</Time>
            <Position>
              <LatitudeDegrees>43.32296331413090229034423828125</LatitudeDegrees>
              <LongitudeDegrees>-1.91423892974853515625</LongitudeDegrees>
            </Position>
            <AltitudeMeters>23.6000003814697265625</AltitudeMeters>
            <DistanceMeters>NAN</DistanceMeters>
          </Trackpoint>
          <Trackpoint>
            <Time>2021-08-11T15:29:56.000Z</Time>
            <Position>
              <LatitudeDegrees>43.32294537685811519622802734375</LatitudeDegrees>
              <LongitudeDegrees>-1.91424571909010410308837890625</LongitudeDegrees>
            </Position>
            <AltitudeMeters>23.6000003814697265625</AltitudeMeters>
            <DistanceMeters>NAN</DistanceMeters>
          </Trackpoint>
          <Trackpoint>
            <Time>2021-08-11T15:29:57.000Z</Time>
            <Position>
              <LatitudeDegrees>43.322938419878482818603515625</LatitudeDegrees>
              <LongitudeDegrees>-1.9142548553645610809326171875</LongitudeDegrees>
            </Position>
            <AltitudeMeters>23.799999237060546875</AltitudeMeters>
            <DistanceMeters>NAN</DistanceMeters>
          </Trackpoint>
          <Trackpoint>
            <Time>2021-08-11T15:29:58.000Z</Time>
            <Position>
              <LatitudeDegrees>43.32293196581304073333740234375</LatitudeDegrees>
              <LongitudeDegrees>-1.91426281817257404327392578125</LongitudeDegrees>
            </Position>
            <AltitudeMeters>23.799999237060546875</AltitudeMeters>
            <DistanceMeters>NAN</DistanceMeters>
          </Trackpoint>
          <Trackpoint>
            <Time>2021-08-11T15:29:59.000Z</Time>
            <Position>
              <LatitudeDegrees>43.322929702699184417724609375</LatitudeDegrees>
              <LongitudeDegrees>-1.91427555866539478302001953125</LongitudeDegrees>
            </Position>
            <AltitudeMeters>24</AltitudeMeters>
            <DistanceMeters>NAN</DistanceMeters>
          </Trackpoint>
          <Trackpoint>
            <Time>2021-08-11T15:30:00.000Z</Time>
            <Position>
              <LatitudeDegrees>43.32292945124208927154541015625</LatitudeDegrees>
              <LongitudeDegrees>-1.914283521473407745361328125</LongitudeDegrees>
            </Position>
            <AltitudeMeters>24</AltitudeMeters>
            <DistanceMeters>NAN</DistanceMeters>
          </Trackpoint>
          <Trackpoint>
            <Time>2021-08-11T15:30:06.000Z</Time>
            <Position>
              <LatitudeDegrees>43.32292945124208927154541015625</LatitudeDegrees>
              <LongitudeDegrees>-1.914283521473407745361328125</LongitudeDegrees>
            </Position>
            <AltitudeMeters>24</AltitudeMeters>
            <DistanceMeters>NAN</DistanceMeters>
          </Trackpoint>
          <Trackpoint>
            <Time>2021-08-11T15:30:26.000Z</Time>
            <Position>
              <LatitudeDegrees>43.32292945124208927154541015625</LatitudeDegrees>
              <LongitudeDegrees>-1.914283521473407745361328125</LongitudeDegrees>
            </Position>
            <AltitudeMeters>24</AltitudeMeters>
            <DistanceMeters>NAN</DistanceMeters>
          </Trackpoint>
          <Trackpoint>
            <Time>2021-08-11T15:30:50.000Z</Time>
            <Position>
              <LatitudeDegrees>43.32292760722339153289794921875</LatitudeDegrees>
              <LongitudeDegrees>-1.9142778217792510986328125</LongitudeDegrees>
            </Position>
            <AltitudeMeters>23.799999237060546875</AltitudeMeters>
            <DistanceMeters>NAN</DistanceMeters>
          </Trackpoint>
          <Trackpoint>
            <Time>2021-08-11T15:31:11.000Z</Time>
            <Position>
              <LatitudeDegrees>43.32292341627180576324462890625</LatitudeDegrees>
              <LongitudeDegrees>-1.9142491556704044342041015625</LongitudeDegrees>
            </Position>
            <AltitudeMeters>24</AltitudeMeters>
            <DistanceMeters>NAN</DistanceMeters>
          </Trackpoint>
          <Trackpoint>
            <Time>2021-08-11T15:31:13.000Z</Time>
            <Position>
              <LatitudeDegrees>43.322944454848766326904296875</LatitudeDegrees>
              <LongitudeDegrees>-1.91421772353351116180419921875</LongitudeDegrees>
            </Position>
            <AltitudeMeters>24</AltitudeMeters>
            <DistanceMeters>NAN</DistanceMeters>
          </Trackpoint>
          <Trackpoint>
            <Time>2021-08-11T15:31:14.000Z</Time>
            <Position>
              <LatitudeDegrees>43.322953842580318450927734375</LatitudeDegrees>
              <LongitudeDegrees>-1.91420833580195903778076171875</LongitudeDegrees>
            </Position>
            <AltitudeMeters>24</AltitudeMeters>
            <DistanceMeters>NAN</DistanceMeters>
          </Trackpoint>
          <Trackpoint>
            <Time>2021-08-11T15:31:15.000Z</Time>
            <Position>
              <LatitudeDegrees>43.32296113483607769012451171875</LatitudeDegrees>
              <LongitudeDegrees>-1.91419878043234348297119140625</LongitudeDegrees>
            </Position>
            <AltitudeMeters>24</AltitudeMeters>
            <DistanceMeters>NAN</DistanceMeters>
          </Trackpoint>
          <Trackpoint>
            <Time>2021-08-11T15:31:16.000Z</Time>
            <Position>
              <LatitudeDegrees>43.32296960055828094482421875</LatitudeDegrees>
              <LongitudeDegrees>-1.9141894765198230743408203125</LongitudeDegrees>
            </Position>
            <AltitudeMeters>24</AltitudeMeters>
            <DistanceMeters>NAN</DistanceMeters>
          </Trackpoint>
          <Trackpoint>
            <Time>2021-08-11T15:31:21.000Z</Time>
            <Position>
              <LatitudeDegrees>43.32303036935627460479736328125</LatitudeDegrees>
              <LongitudeDegrees>-1.9141247682273387908935546875</LongitudeDegrees>
            </Position>
            <AltitudeMeters>23.799999237060546875</AltitudeMeters>
            <DistanceMeters>NAN</DistanceMeters>
          </Trackpoint>
          <Trackpoint>
            <Time>2021-08-11T15:31:23.000Z</Time>
            <Position>
              <LatitudeDegrees>43.32306624390184879302978515625</LatitudeDegrees>
              <LongitudeDegrees>-1.91414061002433300018310546875</LongitudeDegrees>
            </Position>
            <AltitudeMeters>23.799999237060546875</AltitudeMeters>
            <DistanceMeters>NAN</DistanceMeters>
          </Trackpoint>
          <Trackpoint>
            <Time>2021-08-11T15:31:25.000Z</Time>
            <Position>
              <LatitudeDegrees>43.32308988086879253387451171875</LatitudeDegrees>
              <LongitudeDegrees>-1.9141854532063007354736328125</LongitudeDegrees>
            </Position>
            <AltitudeMeters>23.6000003814697265625</AltitudeMeters>
            <DistanceMeters>NAN</DistanceMeters>
          </Trackpoint>
          <Trackpoint>
            <Time>2021-08-11T15:31:26.000Z</Time>
            <Position>
              <LatitudeDegrees>43.32310178317129611968994140625</LatitudeDegrees>
              <LongitudeDegrees>-1.9142109341919422149658203125</LongitudeDegrees>
            </Position>
            <AltitudeMeters>23.6000003814697265625</AltitudeMeters>
            <DistanceMeters>NAN</DistanceMeters>
          </Trackpoint>
          <Trackpoint>
            <Time>2021-08-11T15:31:27.000Z</Time>
            <Position>
              <LatitudeDegrees>43.32311720587313175201416015625</LatitudeDegrees>
              <LongitudeDegrees>-1.9142404384911060333251953125</LongitudeDegrees>
            </Position>
            <AltitudeMeters>23.6000003814697265625</AltitudeMeters>
            <DistanceMeters>NAN</DistanceMeters>
          </Trackpoint>
          <Trackpoint>
            <Time>2021-08-11T15:31:31.000Z</Time>
            <Position>
              <LatitudeDegrees>43.32319163717329502105712890625</LatitudeDegrees>
              <LongitudeDegrees>-1.91437077708542346954345703125</LongitudeDegrees>
            </Position>
            <AltitudeMeters>23.3999996185302734375</AltitudeMeters>
            <DistanceMeters>NAN</DistanceMeters>
          </Trackpoint>
          <Trackpoint>
            <Time>2021-08-11T15:31:32.000Z</Time>
            <Position>
              <LatitudeDegrees>43.32321426831185817718505859375</LatitudeDegrees>
              <LongitudeDegrees>-1.91440313123166561126708984375</LongitudeDegrees>
            </Position>
            <AltitudeMeters>23.200000762939453125</AltitudeMeters>
            <DistanceMeters>NAN</DistanceMeters>
          </Trackpoint>
          <Trackpoint>
            <Time>2021-08-11T15:31:33.000Z</Time>
            <Position>
              <LatitudeDegrees>43.3232343010604381561279296875</LatitudeDegrees>
              <LongitudeDegrees>-1.9144342280924320220947265625</LongitudeDegrees>
            </Position>
            <AltitudeMeters>23.200000762939453125</AltitudeMeters>
            <DistanceMeters>NAN</DistanceMeters>
          </Trackpoint>
          <Trackpoint>
            <Time>2021-08-11T15:31:35.000Z</Time>
            <Position>
              <LatitudeDegrees>43.323264978826045989990234375</LatitudeDegrees>
              <LongitudeDegrees>-1.9144798256456851959228515625</LongitudeDegrees>
            </Position>
            <AltitudeMeters>23.200000762939453125</AltitudeMeters>
            <DistanceMeters>NAN</DistanceMeters>
          </Trackpoint>
          <Trackpoint>
            <Time>2021-08-11T15:31:36.000Z</Time>
            <Position>
              <LatitudeDegrees>43.3232718519866466522216796875</LatitudeDegrees>
              <LongitudeDegrees>-1.91449248231947422027587890625</LongitudeDegrees>
            </Position>
            <AltitudeMeters>23.200000762939453125</AltitudeMeters>
            <DistanceMeters>NAN</DistanceMeters>
          </Trackpoint>
          <Trackpoint>
            <Time>2021-08-11T15:31:37.000Z</Time>
            <Position>
              <LatitudeDegrees>43.32327495329082012176513671875</LatitudeDegrees>
              <LongitudeDegrees>-1.9144977629184722900390625</LongitudeDegrees>
            </Position>
            <AltitudeMeters>23.200000762939453125</AltitudeMeters>
            <DistanceMeters>NAN</DistanceMeters>
          </Trackpoint>
          <Trackpoint>
            <Time>2021-08-11T15:31:44.000Z</Time>
            <Position>
              <LatitudeDegrees>43.32327495329082012176513671875</LatitudeDegrees>
              <LongitudeDegrees>-1.9144977629184722900390625</LongitudeDegrees>
            </Position>
            <AltitudeMeters>23</AltitudeMeters>
            <DistanceMeters>NAN</DistanceMeters>
          </Trackpoint>
          <Trackpoint>
            <Time>2021-08-11T15:32:02.000Z</Time>
            <Position>
              <LatitudeDegrees>43.32327545620501041412353515625</LatitudeDegrees>
              <LongitudeDegrees>-1.91450036130845546722412109375</LongitudeDegrees>
            </Position>
            <AltitudeMeters>22.799999237060546875</AltitudeMeters>
            <DistanceMeters>NAN</DistanceMeters>
          </Trackpoint>
          <Trackpoint>
            <Time>2021-08-11T15:32:04.000Z</Time>
            <Position>
              <LatitudeDegrees>43.32329322583973407745361328125</LatitudeDegrees>
              <LongitudeDegrees>-1.9145733676850795745849609375</LongitudeDegrees>
            </Position>
            <AltitudeMeters>22.799999237060546875</AltitudeMeters>
            <DistanceMeters>NAN</DistanceMeters>
          </Trackpoint>
          <Trackpoint>
            <Time>2021-08-11T15:32:08.000Z</Time>
            <Position>
              <LatitudeDegrees>43.32338693551719188690185546875</LatitudeDegrees>
              <LongitudeDegrees>-1.91479121334850788116455078125</LongitudeDegrees>
            </Position>
            <AltitudeMeters>22.6000003814697265625</AltitudeMeters>
            <DistanceMeters>NAN</DistanceMeters>
          </Trackpoint>
          <Trackpoint>
            <Time>2021-08-11T15:32:12.000Z</Time>
            <Position>
              <LatitudeDegrees>43.32351408898830413818359375</LatitudeDegrees>
              <LongitudeDegrees>-1.9150497950613498687744140625</LongitudeDegrees>
            </Position>
            <AltitudeMeters>21.799999237060546875</AltitudeMeters>
            <DistanceMeters>NAN</DistanceMeters>
          </Trackpoint>
          <Trackpoint>
            <Time>2021-08-11T15:32:13.000Z</Time>
            <Position>
              <LatitudeDegrees>43.32354334183037281036376953125</LatitudeDegrees>
              <LongitudeDegrees>-1.91511022858321666717529296875</LongitudeDegrees>
            </Position>
            <AltitudeMeters>21.799999237060546875</AltitudeMeters>
            <DistanceMeters>NAN</DistanceMeters>
          </Trackpoint>
          <Trackpoint>
            <Time>2021-08-11T15:32:14.000Z</Time>
            <Position>
              <LatitudeDegrees>43.3235736005008220672607421875</LatitudeDegrees>
              <LongitudeDegrees>-1.9151637889444828033447265625</LongitudeDegrees>
            </Position>
            <AltitudeMeters>21.200000762939453125</AltitudeMeters>
            <DistanceMeters>NAN</DistanceMeters>
          </Trackpoint>
          <Trackpoint>
            <Time>2021-08-11T15:32:15.000Z</Time>
            <Position>
              <LatitudeDegrees>43.32360394299030303955078125</LatitudeDegrees>
              <LongitudeDegrees>-1.91521081142127513885498046875</LongitudeDegrees>
            </Position>
            <AltitudeMeters>21</AltitudeMeters>
            <DistanceMeters>NAN</DistanceMeters>
          </Trackpoint>
          <Trackpoint>
            <Time>2021-08-11T15:32:16.000Z</Time>
            <Position>
              <LatitudeDegrees>43.32363344728946685791015625</LatitudeDegrees>
              <LongitudeDegrees>-1.91525523550808429718017578125</LongitudeDegrees>
            </Position>
            <AltitudeMeters>20.200000762939453125</AltitudeMeters>
            <DistanceMeters>NAN</DistanceMeters>
          </Trackpoint>
          <Trackpoint>
            <Time>2021-08-11T15:32:17.000Z</Time>
            <Position>
              <LatitudeDegrees>43.32366337068378925323486328125</LatitudeDegrees>
              <LongitudeDegrees>-1.91529597155749797821044921875</LongitudeDegrees>
            </Position>
            <AltitudeMeters>19.799999237060546875</AltitudeMeters>
            <DistanceMeters>NAN</DistanceMeters>
          </Trackpoint>
          <Trackpoint>
            <Time>2021-08-11T15:32:18.000Z</Time>
            <Position>
              <LatitudeDegrees>43.3236865885555744171142578125</LatitudeDegrees>
              <LongitudeDegrees>-1.915333271026611328125</LongitudeDegrees>
            </Position>
            <AltitudeMeters>19.6000003814697265625</AltitudeMeters>
            <DistanceMeters>NAN</DistanceMeters>
          </Trackpoint>
          <Trackpoint>
            <Time>2021-08-11T15:32:19.000Z</Time>
            <Position>
              <LatitudeDegrees>43.32370662130415439605712890625</LatitudeDegrees>
              <LongitudeDegrees>-1.915368139743804931640625</LongitudeDegrees>
            </Position>
            <AltitudeMeters>19.200000762939453125</AltitudeMeters>
            <DistanceMeters>NAN</DistanceMeters>
          </Trackpoint>
          <Trackpoint>
            <Time>2021-08-11T15:32:20.000Z</Time>
            <Position>
              <LatitudeDegrees>43.32372942008078098297119140625</LatitudeDegrees>
              <LongitudeDegrees>-1.91540292464196681976318359375</LongitudeDegrees>
            </Position>
            <AltitudeMeters>19</AltitudeMeters>
            <DistanceMeters>NAN</DistanceMeters>
          </Trackpoint>
          <Trackpoint>
            <Time>2021-08-11T15:32:21.000Z</Time>
            <Position>
              <LatitudeDegrees>43.32375490106642246246337890625</LatitudeDegrees>
              <LongitudeDegrees>-1.9154424034059047698974609375</LongitudeDegrees>
            </Position>
            <AltitudeMeters>18.200000762939453125</AltitudeMeters>
            <DistanceMeters>NAN</DistanceMeters>
          </Trackpoint>
          <Trackpoint>
            <Time>2021-08-11T15:32:22.000Z</Time>
            <Position>
              <LatitudeDegrees>43.3237777836620807647705078125</LatitudeDegrees>
              <LongitudeDegrees>-1.91548942588269710540771484375</LongitudeDegrees>
            </Position>
            <AltitudeMeters>18</AltitudeMeters>
            <DistanceMeters>NAN</DistanceMeters>
          </Trackpoint>
          <Trackpoint>
            <Time>2021-08-11T15:32:24.000Z</Time>
            <Position>
              <LatitudeDegrees>43.32381474785506725311279296875</LatitudeDegrees>
              <LongitudeDegrees>-1.9155892543494701385498046875</LongitudeDegrees>
            </Position>
            <AltitudeMeters>17.200000762939453125</AltitudeMeters>
            <DistanceMeters>NAN</DistanceMeters>
          </Trackpoint>
          <Trackpoint>
            <Time>2021-08-11T15:32:26.000Z</Time>
            <Position>
              <LatitudeDegrees>43.323853723704814910888671875</LatitudeDegrees>
              <LongitudeDegrees>-1.91568153910338878631591796875</LongitudeDegrees>
            </Position>
            <AltitudeMeters>16.3999996185302734375</AltitudeMeters>
            <DistanceMeters>NAN</DistanceMeters>
          </Trackpoint>
          <Trackpoint>
            <Time>2021-08-11T15:32:27.000Z</Time>
            <Position>
              <LatitudeDegrees>43.3238773606717586517333984375</LatitudeDegrees>
              <LongitudeDegrees>-1.91571054048836231231689453125</LongitudeDegrees>
            </Position>
            <AltitudeMeters>16.200000762939453125</AltitudeMeters>
            <DistanceMeters>NAN</DistanceMeters>
          </Trackpoint>
          <Trackpoint>
            <Time>2021-08-11T15:32:28.000Z</Time>
            <Position>
              <LatitudeDegrees>43.32390091381967067718505859375</LatitudeDegrees>
              <LongitudeDegrees>-1.91573384217917919158935546875</LongitudeDegrees>
            </Position>
            <AltitudeMeters>15.80000019073486328125</AltitudeMeters>
            <DistanceMeters>NAN</DistanceMeters>
          </Trackpoint>
          <Trackpoint>
            <Time>2021-08-11T15:32:29.000Z</Time>
            <Position>
              <LatitudeDegrees>43.3239237964153289794921875</LatitudeDegrees>
              <LongitudeDegrees>-1.91575278528034687042236328125</LongitudeDegrees>
            </Position>
            <AltitudeMeters>15.6000003814697265625</AltitudeMeters>
            <DistanceMeters>NAN</DistanceMeters>
          </Trackpoint>
          <Trackpoint>
            <Time>2021-08-11T15:32:30.000Z</Time>
            <Position>
              <LatitudeDegrees>43.32394701428711414337158203125</LatitudeDegrees>
              <LongitudeDegrees>-1.91577776335179805755615234375</LongitudeDegrees>
            </Position>
            <AltitudeMeters>15.19999980926513671875</AltitudeMeters>
            <DistanceMeters>NAN</DistanceMeters>
          </Trackpoint>
          <Trackpoint>
            <Time>2021-08-11T15:32:31.000Z</Time>
            <Position>
              <LatitudeDegrees>43.323965370655059814453125</LatitudeDegrees>
              <LongitudeDegrees>-1.91581070423126220703125</LongitudeDegrees>
            </Position>
            <AltitudeMeters>14.80000019073486328125</AltitudeMeters>
            <DistanceMeters>NAN</DistanceMeters>
          </Trackpoint>
          <Trackpoint>
            <Time>2021-08-11T15:32:33.000Z</Time>
            <Position>
              <LatitudeDegrees>43.323992192745208740234375</LatitudeDegrees>
              <LongitudeDegrees>-1.91586392931640148162841796875</LongitudeDegrees>
            </Position>
            <AltitudeMeters>13.80000019073486328125</AltitudeMeters>
            <DistanceMeters>NAN</DistanceMeters>
          </Trackpoint>
          <Trackpoint>
            <Time>2021-08-11T15:32:34.000Z</Time>
            <Position>
              <LatitudeDegrees>43.32400434650480747222900390625</LatitudeDegrees>
              <LongitudeDegrees>-1.91589125432074069976806640625</LongitudeDegrees>
            </Position>
            <AltitudeMeters>13.6000003814697265625</AltitudeMeters>
            <DistanceMeters>NAN</DistanceMeters>
          </Trackpoint>
          <Trackpoint>
            <Time>2021-08-11T15:32:35.000Z</Time>
            <Position>
              <LatitudeDegrees>43.3240163326263427734375</LatitudeDegrees>
              <LongitudeDegrees>-1.9159220159053802490234375</LongitudeDegrees>
            </Position>
            <AltitudeMeters>13.3999996185302734375</AltitudeMeters>
            <DistanceMeters>NAN</DistanceMeters>
          </Trackpoint>
          <Trackpoint>
            <Time>2021-08-11T15:32:38.000Z</Time>
            <Position>
              <LatitudeDegrees>43.32405111752450466156005859375</LatitudeDegrees>
              <LongitudeDegrees>-1.91599644720554351806640625</LongitudeDegrees>
            </Position>
            <AltitudeMeters>13</AltitudeMeters>
            <DistanceMeters>NAN</DistanceMeters>
          </Trackpoint>
          <Trackpoint>
            <Time>2021-08-11T15:32:39.000Z</Time>
            <Position>
              <LatitudeDegrees>43.324060924351215362548828125</LatitudeDegrees>
              <LongitudeDegrees>-1.91602502949535846710205078125</LongitudeDegrees>
            </Position>
            <AltitudeMeters>12.80000019073486328125</AltitudeMeters>
            <DistanceMeters>NAN</DistanceMeters>
          </Trackpoint>
          <Trackpoint>
            <Time>2021-08-11T15:32:40.000Z</Time>
            <Position>
              <LatitudeDegrees>43.324060924351215362548828125</LatitudeDegrees>
              <LongitudeDegrees>-1.91602502949535846710205078125</LongitudeDegrees>
            </Position>
            <AltitudeMeters>12.80000019073486328125</AltitudeMeters>
            <DistanceMeters>NAN</DistanceMeters>
          </Trackpoint>
          <Trackpoint>
            <Time>2021-08-11T15:32:41.000Z</Time>
            <Position>
              <LatitudeDegrees>43.32408313639461994171142578125</LatitudeDegrees>
              <LongitudeDegrees>-1.9160775840282440185546875</LongitudeDegrees>
            </Position>
            <AltitudeMeters>12.80000019073486328125</AltitudeMeters>
            <DistanceMeters>NAN</DistanceMeters>
          </Trackpoint>
          <Trackpoint>
            <Time>2021-08-11T15:32:42.000Z</Time>
            <Position>
              <LatitudeDegrees>43.3240973018109798431396484375</LatitudeDegrees>
              <LongitudeDegrees>-1.91609946079552173614501953125</LongitudeDegrees>
            </Position>
            <AltitudeMeters>12.6000003814697265625</AltitudeMeters>
            <DistanceMeters>NAN</DistanceMeters>
          </Trackpoint>
          <Trackpoint>
            <Time>2021-08-11T15:32:43.000Z</Time>
            <Position>
              <LatitudeDegrees>43.32411381416022777557373046875</LatitudeDegrees>
              <LongitudeDegrees>-1.91612008027732372283935546875</LongitudeDegrees>
            </Position>
            <AltitudeMeters>12.6000003814697265625</AltitudeMeters>
            <DistanceMeters>NAN</DistanceMeters>
          </Trackpoint>
          <Trackpoint>
            <Time>2021-08-11T15:32:44.000Z</Time>
            <Position>
              <LatitudeDegrees>43.32412898540496826171875</LatitudeDegrees>
              <LongitudeDegrees>-1.91613919101655483245849609375</LongitudeDegrees>
            </Position>
            <AltitudeMeters>12.6000003814697265625</AltitudeMeters>
            <DistanceMeters>NAN</DistanceMeters>
          </Trackpoint>
          <Trackpoint>
            <Time>2021-08-11T15:32:45.000Z</Time>
            <Position>
              <LatitudeDegrees>43.324142731726169586181640625</LatitudeDegrees>
              <LongitudeDegrees>-1.9161491654813289642333984375</LongitudeDegrees>
            </Position>
            <AltitudeMeters>12.6000003814697265625</AltitudeMeters>
            <DistanceMeters>NAN</DistanceMeters>
          </Trackpoint>
          <Trackpoint>
            <Time>2021-08-11T15:32:46.000Z</Time>
            <Position>
              <LatitudeDegrees>43.3241546340286731719970703125</LatitudeDegrees>
              <LongitudeDegrees>-1.91616316325962543487548828125</LongitudeDegrees>
            </Position>
            <AltitudeMeters>12.6000003814697265625</AltitudeMeters>
            <DistanceMeters>NAN</DistanceMeters>
          </Trackpoint>
          <Trackpoint>
            <Time>2021-08-11T15:32:47.000Z</Time>
            <Position>
              <LatitudeDegrees>43.32416117191314697265625</LatitudeDegrees>
              <LongitudeDegrees>-1.91617355681955814361572265625</LongitudeDegrees>
            </Position>
            <AltitudeMeters>12.6000003814697265625</AltitudeMeters>
            <DistanceMeters>NAN</DistanceMeters>
          </Trackpoint>
          <Trackpoint>
            <Time>2021-08-11T15:32:50.000Z</Time>
            <Position>
              <LatitudeDegrees>43.32416309975087642669677734375</LatitudeDegrees>
              <LongitudeDegrees>-1.91617758013308048248291015625</LongitudeDegrees>
            </Position>
            <AltitudeMeters>12.6000003814697265625</AltitudeMeters>
            <DistanceMeters>NAN</DistanceMeters>
          </Trackpoint>
          <Trackpoint>
            <Time>2021-08-11T15:33:04.000Z</Time>
            <Position>
              <LatitudeDegrees>43.32416393794119358062744140625</LatitudeDegrees>
              <LongitudeDegrees>-1.9161793403327465057373046875</LongitudeDegrees>
            </Position>
            <AltitudeMeters>12.80000019073486328125</AltitudeMeters>
            <DistanceMeters>NAN</DistanceMeters>
          </Trackpoint>
          <Trackpoint>
            <Time>2021-08-11T15:33:06.000Z</Time>
            <Position>
              <LatitudeDegrees>43.32417181693017482757568359375</LatitudeDegrees>
              <LongitudeDegrees>-1.9162041507661342620849609375</LongitudeDegrees>
            </Position>
            <AltitudeMeters>12.80000019073486328125</AltitudeMeters>
            <DistanceMeters>NAN</DistanceMeters>
          </Trackpoint>
          <Trackpoint>
            <Time>2021-08-11T15:33:07.000Z</Time>
            <Position>
              <LatitudeDegrees>43.324166871607303619384765625</LatitudeDegrees>
              <LongitudeDegrees>-1.9162116944789886474609375</LongitudeDegrees>
            </Position>
            <AltitudeMeters>12.80000019073486328125</AltitudeMeters>
            <DistanceMeters>NAN</DistanceMeters>
          </Trackpoint>
          <Trackpoint>
            <Time>2021-08-11T15:33:08.000Z</Time>
            <Position>
              <LatitudeDegrees>43.3241620101034641265869140625</LatitudeDegrees>
              <LongitudeDegrees>-1.9162192381918430328369140625</LongitudeDegrees>
            </Position>
            <AltitudeMeters>12.80000019073486328125</AltitudeMeters>
            <DistanceMeters>NAN</DistanceMeters>
          </Trackpoint>
          <Trackpoint>
            <Time>2021-08-11T15:33:09.000Z</Time>
            <Position>
              <LatitudeDegrees>43.324162177741527557373046875</LatitudeDegrees>
              <LongitudeDegrees>-1.91623172722756862640380859375</LongitudeDegrees>
            </Position>
            <AltitudeMeters>12.80000019073486328125</AltitudeMeters>
            <DistanceMeters>NAN</DistanceMeters>
          </Trackpoint>
          <Trackpoint>
            <Time>2021-08-11T15:33:10.000Z</Time>
            <Position>
              <LatitudeDegrees>43.3241640217602252960205078125</LatitudeDegrees>
              <LongitudeDegrees>-1.91624714992940425872802734375</LongitudeDegrees>
            </Position>
            <AltitudeMeters>12.80000019073486328125</AltitudeMeters>
            <DistanceMeters>NAN</DistanceMeters>
          </Trackpoint>
          <Trackpoint>
            <Time>2021-08-11T15:33:11.000Z</Time>
            <Position>
              <LatitudeDegrees>43.32416410557925701141357421875</LatitudeDegrees>
              <LongitudeDegrees>-1.91626508720219135284423828125</LongitudeDegrees>
            </Position>
            <AltitudeMeters>12.80000019073486328125</AltitudeMeters>
            <DistanceMeters>NAN</DistanceMeters>
          </Trackpoint>
          <Trackpoint>
            <Time>2021-08-11T15:33:13.000Z</Time>
            <Position>
              <LatitudeDegrees>43.32417190074920654296875</LatitudeDegrees>
              <LongitudeDegrees>-1.91629551351070404052734375</LongitudeDegrees>
            </Position>
            <AltitudeMeters>12.80000019073486328125</AltitudeMeters>
            <DistanceMeters>NAN</DistanceMeters>
          </Trackpoint>
          <Trackpoint>
            <Time>2021-08-11T15:33:14.000Z</Time>
            <Position>
              <LatitudeDegrees>43.3241767622530460357666015625</LatitudeDegrees>
              <LongitudeDegrees>-1.91630414687097072601318359375</LongitudeDegrees>
            </Position>
            <AltitudeMeters>12.80000019073486328125</AltitudeMeters>
            <DistanceMeters>NAN</DistanceMeters>
          </Trackpoint>
          <Trackpoint>
            <Time>2021-08-11T15:33:15.000Z</Time>
            <Position>
              <LatitudeDegrees>43.32417852245271205902099609375</LatitudeDegrees>
              <LongitudeDegrees>-1.91631135530769824981689453125</LongitudeDegrees>
            </Position>
            <AltitudeMeters>12.80000019073486328125</AltitudeMeters>
            <DistanceMeters>NAN</DistanceMeters>
          </Trackpoint>
          <Trackpoint>
            <Time>2021-08-11T15:33:17.000Z</Time>
            <Position>
              <LatitudeDegrees>43.3241854794323444366455078125</LatitudeDegrees>
              <LongitudeDegrees>-1.9163292087614536285400390625</LongitudeDegrees>
            </Position>
            <AltitudeMeters>12.80000019073486328125</AltitudeMeters>
            <DistanceMeters>NAN</DistanceMeters>
          </Trackpoint>
          <Trackpoint>
            <Time>2021-08-11T15:33:18.000Z</Time>
            <Position>
              <LatitudeDegrees>43.32418573088943958282470703125</LatitudeDegrees>
              <LongitudeDegrees>-1.916339434683322906494140625</LongitudeDegrees>
            </Position>
            <AltitudeMeters>12.80000019073486328125</AltitudeMeters>
            <DistanceMeters>NAN</DistanceMeters>
          </Trackpoint>
          <Trackpoint>
            <Time>2021-08-11T15:33:19.000Z</Time>
            <Position>
              <LatitudeDegrees>43.3241858147084712982177734375</LatitudeDegrees>
              <LongitudeDegrees>-1.9163499958813190460205078125</LongitudeDegrees>
            </Position>
            <AltitudeMeters>12.80000019073486328125</AltitudeMeters>
            <DistanceMeters>NAN</DistanceMeters>
          </Trackpoint>
          <Trackpoint>
            <Time>2021-08-11T15:33:20.000Z</Time>
            <Position>
              <LatitudeDegrees>43.32418262958526611328125</LatitudeDegrees>
              <LongitudeDegrees>-1.91636114381253719329833984375</LongitudeDegrees>
            </Position>
            <AltitudeMeters>12.80000019073486328125</AltitudeMeters>
            <DistanceMeters>NAN</DistanceMeters>
          </Trackpoint>
          <Trackpoint>
            <Time>2021-08-11T15:33:21.000Z</Time>
            <Position>
              <LatitudeDegrees>43.32417718134820461273193359375</LatitudeDegrees>
              <LongitudeDegrees>-1.91637329757213592529296875</LongitudeDegrees>
            </Position>
            <AltitudeMeters>12.80000019073486328125</AltitudeMeters>
            <DistanceMeters>NAN</DistanceMeters>
          </Trackpoint>
          <Trackpoint>
            <Time>2021-08-11T15:33:22.000Z</Time>
            <Position>
              <LatitudeDegrees>43.32417332567274570465087890625</LatitudeDegrees>
              <LongitudeDegrees>-1.91638561896979808807373046875</LongitudeDegrees>
            </Position>
            <AltitudeMeters>13</AltitudeMeters>
            <DistanceMeters>NAN</DistanceMeters>
          </Trackpoint>
          <Trackpoint>
            <Time>2021-08-11T15:33:23.000Z</Time>
            <Position>
              <LatitudeDegrees>43.32417198456823825836181640625</LatitudeDegrees>
              <LongitudeDegrees>-1.91639877855777740478515625</LongitudeDegrees>
            </Position>
            <AltitudeMeters>13</AltitudeMeters>
            <DistanceMeters>NAN</DistanceMeters>
          </Trackpoint>
          <Trackpoint>
            <Time>2021-08-11T15:33:24.000Z</Time>
            <Position>
              <LatitudeDegrees>43.32417248748242855072021484375</LatitudeDegrees>
              <LongitudeDegrees>-1.91641579382121562957763671875</LongitudeDegrees>
            </Position>
            <AltitudeMeters>13</AltitudeMeters>
            <DistanceMeters>NAN</DistanceMeters>
          </Trackpoint>
          <Trackpoint>
            <Time>2021-08-11T15:33:25.000Z</Time>
            <Position>
              <LatitudeDegrees>43.32417550496757030487060546875</LatitudeDegrees>
              <LongitudeDegrees>-1.9164311327040195465087890625</LongitudeDegrees>
            </Position>
            <AltitudeMeters>13</AltitudeMeters>
            <DistanceMeters>NAN</DistanceMeters>
          </Trackpoint>
          <Trackpoint>
            <Time>2021-08-11T15:33:26.000Z</Time>
            <Position>
              <LatitudeDegrees>43.3241871558129787445068359375</LatitudeDegrees>
              <LongitudeDegrees>-1.91644596867263317108154296875</LongitudeDegrees>
            </Position>
            <AltitudeMeters>13</AltitudeMeters>
            <DistanceMeters>NAN</DistanceMeters>
          </Trackpoint>
          <Trackpoint>
            <Time>2021-08-11T15:33:27.000Z</Time>
            <Position>
              <LatitudeDegrees>43.32419713027775287628173828125</LatitudeDegrees>
              <LongitudeDegrees>-1.91646088846027851104736328125</LongitudeDegrees>
            </Position>
            <AltitudeMeters>13</AltitudeMeters>
            <DistanceMeters>NAN</DistanceMeters>
          </Trackpoint>
          <Trackpoint>
            <Time>2021-08-11T15:33:28.000Z</Time>
            <Position>
              <LatitudeDegrees>43.324205093085765838623046875</LatitudeDegrees>
              <LongitudeDegrees>-1.91647790372371673583984375</LongitudeDegrees>
            </Position>
            <AltitudeMeters>13</AltitudeMeters>
            <DistanceMeters>NAN</DistanceMeters>
          </Trackpoint>
          <Trackpoint>
            <Time>2021-08-11T15:33:29.000Z</Time>
            <Position>
              <LatitudeDegrees>43.32421322353184223175048828125</LatitudeDegrees>
              <LongitudeDegrees>-1.9164961762726306915283203125</LongitudeDegrees>
            </Position>
            <AltitudeMeters>13</AltitudeMeters>
            <DistanceMeters>NAN</DistanceMeters>
          </Trackpoint>
          <Trackpoint>
            <Time>2021-08-11T15:33:33.000Z</Time>
            <Position>
              <LatitudeDegrees>43.3242501877248287200927734375</LatitudeDegrees>
              <LongitudeDegrees>-1.9165964238345623016357421875</LongitudeDegrees>
            </Position>
            <AltitudeMeters>13</AltitudeMeters>
            <DistanceMeters>NAN</DistanceMeters>
          </Trackpoint>
          <Trackpoint>
            <Time>2021-08-11T15:33:39.000Z</Time>
            <Position>
              <LatitudeDegrees>43.324309699237346649169921875</LatitudeDegrees>
              <LongitudeDegrees>-1.91673330031335353851318359375</LongitudeDegrees>
            </Position>
            <AltitudeMeters>13</AltitudeMeters>
            <DistanceMeters>NAN</DistanceMeters>
          </Trackpoint>
          <Trackpoint>
            <Time>2021-08-11T15:33:40.000Z</Time>
            <Position>
              <LatitudeDegrees>43.32431179471313953399658203125</LatitudeDegrees>
              <LongitudeDegrees>-1.91675123758614063262939453125</LongitudeDegrees>
            </Position>
            <AltitudeMeters>13</AltitudeMeters>
            <DistanceMeters>NAN</DistanceMeters>
          </Trackpoint>
          <Trackpoint>
            <Time>2021-08-11T15:33:41.000Z</Time>
            <Position>
              <LatitudeDegrees>43.3243128843605518341064453125</LatitudeDegrees>
              <LongitudeDegrees>-1.91676892340183258056640625</LongitudeDegrees>
            </Position>
            <AltitudeMeters>13</AltitudeMeters>
            <DistanceMeters>NAN</DistanceMeters>
          </Trackpoint>
          <Trackpoint>
            <Time>2021-08-11T15:33:42.000Z</Time>
            <Position>
              <LatitudeDegrees>43.32431430928409099578857421875</LatitudeDegrees>
              <LongitudeDegrees>-1.9167865253984928131103515625</LongitudeDegrees>
            </Position>
            <AltitudeMeters>13</AltitudeMeters>
            <DistanceMeters>NAN</DistanceMeters>
          </Trackpoint>
          <Trackpoint>
            <Time>2021-08-11T15:33:43.000Z</Time>
            <Position>
              <LatitudeDegrees>43.32432285882532596588134765625</LatitudeDegrees>
              <LongitudeDegrees>-1.9168019481003284454345703125</LongitudeDegrees>
            </Position>
            <AltitudeMeters>13.19999980926513671875</AltitudeMeters>
            <DistanceMeters>NAN</DistanceMeters>
          </Trackpoint>
          <Trackpoint>
            <Time>2021-08-11T15:33:44.000Z</Time>
            <Position>
              <LatitudeDegrees>43.32433660514652729034423828125</LatitudeDegrees>
              <LongitudeDegrees>-1.9168133474886417388916015625</LongitudeDegrees>
            </Position>
            <AltitudeMeters>13</AltitudeMeters>
            <DistanceMeters>NAN</DistanceMeters>
          </Trackpoint>
          <Trackpoint>
            <Time>2021-08-11T15:33:45.000Z</Time>
            <Position>
              <LatitudeDegrees>43.32435102201998233795166015625</LatitudeDegrees>
              <LongitudeDegrees>-1.9168170355260372161865234375</LongitudeDegrees>
            </Position>
            <AltitudeMeters>13</AltitudeMeters>
            <DistanceMeters>NAN</DistanceMeters>
          </Trackpoint>
          <Trackpoint>
            <Time>2021-08-11T15:33:47.000Z</Time>
            <Position>
              <LatitudeDegrees>43.324382118880748748779296875</LatitudeDegrees>
              <LongitudeDegrees>-1.91680303774774074554443359375</LongitudeDegrees>
            </Position>
            <AltitudeMeters>13.19999980926513671875</AltitudeMeters>
            <DistanceMeters>NAN</DistanceMeters>
          </Trackpoint>
          <Trackpoint>
            <Time>2021-08-11T15:33:48.000Z</Time>
            <Position>
              <LatitudeDegrees>43.32439242862164974212646484375</LatitudeDegrees>
              <LongitudeDegrees>-1.9167848490178585052490234375</LongitudeDegrees>
            </Position>
            <AltitudeMeters>13.19999980926513671875</AltitudeMeters>
            <DistanceMeters>NAN</DistanceMeters>
          </Trackpoint>
          <Trackpoint>
            <Time>2021-08-11T15:33:50.000Z</Time>
            <Position>
              <LatitudeDegrees>43.32440634258091449737548828125</LatitudeDegrees>
              <LongitudeDegrees>-1.91674905829131603240966796875</LongitudeDegrees>
            </Position>
            <AltitudeMeters>13.19999980926513671875</AltitudeMeters>
            <DistanceMeters>NAN</DistanceMeters>
          </Trackpoint>
          <Trackpoint>
            <Time>2021-08-11T15:33:52.000Z</Time>
            <Position>
              <LatitudeDegrees>43.3244285546243190765380859375</LatitudeDegrees>
              <LongitudeDegrees>-1.916735060513019561767578125</LongitudeDegrees>
            </Position>
            <AltitudeMeters>13.3999996185302734375</AltitudeMeters>
            <DistanceMeters>NAN</DistanceMeters>
          </Trackpoint>
          <Trackpoint>
            <Time>2021-08-11T15:33:53.000Z</Time>
            <Position>
              <LatitudeDegrees>43.32444121129810810089111328125</LatitudeDegrees>
              <LongitudeDegrees>-1.91673011519014835357666015625</LongitudeDegrees>
            </Position>
            <AltitudeMeters>13.3999996185302734375</AltitudeMeters>
            <DistanceMeters>NAN</DistanceMeters>
          </Trackpoint>
          <Trackpoint>
            <Time>2021-08-11T15:33:54.000Z</Time>
            <Position>
              <LatitudeDegrees>43.32445143721997737884521484375</LatitudeDegrees>
              <LongitudeDegrees>-1.91672491841018199920654296875</LongitudeDegrees>
            </Position>
            <AltitudeMeters>13.3999996185302734375</AltitudeMeters>
            <DistanceMeters>NAN</DistanceMeters>
          </Trackpoint>
          <Trackpoint>
            <Time>2021-08-11T15:33:57.000Z</Time>
            <Position>
              <LatitudeDegrees>43.32445546053349971771240234375</LatitudeDegrees>
              <LongitudeDegrees>-1.9167248345911502838134765625</LongitudeDegrees>
            </Position>
            <AltitudeMeters>13.3999996185302734375</AltitudeMeters>
            <DistanceMeters>NAN</DistanceMeters>
          </Trackpoint>
          <Trackpoint>
            <Time>2021-08-11T15:33:58.000Z</Time>
            <Position>
              <LatitudeDegrees>43.32445747219026088714599609375</LatitudeDegrees>
              <LongitudeDegrees>-1.91672458313405513763427734375</LongitudeDegrees>
            </Position>
            <AltitudeMeters>13.3999996185302734375</AltitudeMeters>
            <DistanceMeters>NAN</DistanceMeters>
          </Trackpoint>
          <Trackpoint>
            <Time>2021-08-11T15:33:59.000Z</Time>
            <Position>
              <LatitudeDegrees>43.3244634233415126800537109375</LatitudeDegrees>
              <LongitudeDegrees>-1.9167231582105159759521484375</LongitudeDegrees>
            </Position>
            <AltitudeMeters>13.3999996185302734375</AltitudeMeters>
            <DistanceMeters>NAN</DistanceMeters>
          </Trackpoint>
          <Trackpoint>
            <Time>2021-08-11T15:34:00.000Z</Time>
            <Position>
              <LatitudeDegrees>43.32447071559727191925048828125</LatitudeDegrees>
              <LongitudeDegrees>-1.91672206856310367584228515625</LongitudeDegrees>
            </Position>
            <AltitudeMeters>13.3999996185302734375</AltitudeMeters>
            <DistanceMeters>NAN</DistanceMeters>
          </Trackpoint>
          <Trackpoint>
            <Time>2021-08-11T15:34:01.000Z</Time>
            <Position>
              <LatitudeDegrees>43.3244795165956020355224609375</LatitudeDegrees>
              <LongitudeDegrees>-1.91672424785792827606201171875</LongitudeDegrees>
            </Position>
            <AltitudeMeters>13.3999996185302734375</AltitudeMeters>
            <DistanceMeters>NAN</DistanceMeters>
          </Trackpoint>
          <Trackpoint>
            <Time>2021-08-11T15:34:02.000Z</Time>
            <Position>
              <LatitudeDegrees>43.32448773086071014404296875</LatitudeDegrees>
              <LongitudeDegrees>-1.916731707751750946044921875</LongitudeDegrees>
            </Position>
            <AltitudeMeters>13.3999996185302734375</AltitudeMeters>
            <DistanceMeters>NAN</DistanceMeters>
          </Trackpoint>
          <Trackpoint>
            <Time>2021-08-11T15:34:03.000Z</Time>
            <Position>
              <LatitudeDegrees>43.32449720241129398345947265625</LatitudeDegrees>
              <LongitudeDegrees>-1.91674101166427135467529296875</LongitudeDegrees>
            </Position>
            <AltitudeMeters>13.3999996185302734375</AltitudeMeters>
            <DistanceMeters>NAN</DistanceMeters>
          </Trackpoint>
          <Trackpoint>
            <Time>2021-08-11T15:34:04.000Z</Time>
            <Position>
              <LatitudeDegrees>43.32450055517256259918212890625</LatitudeDegrees>
              <LongitudeDegrees>-1.91674436442553997039794921875</LongitudeDegrees>
            </Position>
            <AltitudeMeters>13.3999996185302734375</AltitudeMeters>
            <DistanceMeters>NAN</DistanceMeters>
          </Trackpoint>
          <Trackpoint>
            <Time>2021-08-11T15:34:05.000Z</Time>
            <Position>
              <LatitudeDegrees>43.32450374029576778411865234375</LatitudeDegrees>
              <LongitudeDegrees>-1.91674746572971343994140625</LongitudeDegrees>
            </Position>
            <AltitudeMeters>13.3999996185302734375</AltitudeMeters>
            <DistanceMeters>NAN</DistanceMeters>
          </Trackpoint>
          <Trackpoint>
            <Time>2021-08-11T15:34:06.000Z</Time>
            <Position>
              <LatitudeDegrees>43.32451178692281246185302734375</LatitudeDegrees>
              <LongitudeDegrees>-1.91675425507128238677978515625</LongitudeDegrees>
            </Position>
            <AltitudeMeters>13.3999996185302734375</AltitudeMeters>
            <DistanceMeters>NAN</DistanceMeters>
          </Trackpoint>
          <Trackpoint>
            <Time>2021-08-11T15:34:10.000Z</Time>
            <Position>
              <LatitudeDegrees>43.32452184520661830902099609375</LatitudeDegrees>
              <LongitudeDegrees>-1.9167798198759555816650390625</LongitudeDegrees>
            </Position>
            <AltitudeMeters>13.3999996185302734375</AltitudeMeters>
            <DistanceMeters>NAN</DistanceMeters>
          </Trackpoint>
          <Trackpoint>
            <Time>2021-08-11T15:34:11.000Z</Time>
            <Position>
              <LatitudeDegrees>43.32451857626438140869140625</LatitudeDegrees>
              <LongitudeDegrees>-1.91678191535174846649169921875</LongitudeDegrees>
            </Position>
            <AltitudeMeters>13.3999996185302734375</AltitudeMeters>
            <DistanceMeters>NAN</DistanceMeters>
          </Trackpoint>
          <Trackpoint>
            <Time>2021-08-11T15:34:12.000Z</Time>
            <Position>
              <LatitudeDegrees>43.324522264301776885986328125</LatitudeDegrees>
              <LongitudeDegrees>-1.91678426228463649749755859375</LongitudeDegrees>
            </Position>
            <AltitudeMeters>13.3999996185302734375</AltitudeMeters>
            <DistanceMeters>NAN</DistanceMeters>
          </Trackpoint>
          <Trackpoint>
            <Time>2021-08-11T15:34:13.000Z</Time>
            <Position>
              <LatitudeDegrees>43.3245246112346649169921875</LatitudeDegrees>
              <LongitudeDegrees>-1.91679214127361774444580078125</LongitudeDegrees>
            </Position>
            <AltitudeMeters>13.3999996185302734375</AltitudeMeters>
            <DistanceMeters>NAN</DistanceMeters>
          </Trackpoint>
          <Trackpoint>
            <Time>2021-08-11T15:34:14.000Z</Time>
            <Position>
              <LatitudeDegrees>43.32453274168074131011962890625</LatitudeDegrees>
              <LongitudeDegrees>-1.9168017804622650146484375</LongitudeDegrees>
            </Position>
            <AltitudeMeters>13.3999996185302734375</AltitudeMeters>
            <DistanceMeters>NAN</DistanceMeters>
          </Trackpoint>
          <Trackpoint>
            <Time>2021-08-11T15:34:15.000Z</Time>
            <Position>
              <LatitudeDegrees>43.3245407044887542724609375</LatitudeDegrees>
              <LongitudeDegrees>-1.91681024618446826934814453125</LongitudeDegrees>
            </Position>
            <AltitudeMeters>13.6000003814697265625</AltitudeMeters>
            <DistanceMeters>NAN</DistanceMeters>
          </Trackpoint>
          <Trackpoint>
            <Time>2021-08-11T15:34:16.000Z</Time>
            <Position>
              <LatitudeDegrees>43.32454212941229343414306640625</LatitudeDegrees>
              <LongitudeDegrees>-1.9168146885931491851806640625</LongitudeDegrees>
            </Position>
            <AltitudeMeters>13.6000003814697265625</AltitudeMeters>
            <DistanceMeters>NAN</DistanceMeters>
          </Trackpoint>
          <Trackpoint>
            <Time>2021-08-11T15:34:17.000Z</Time>
            <Position>
              <LatitudeDegrees>43.32454212941229343414306640625</LatitudeDegrees>
              <LongitudeDegrees>-1.9168146885931491851806640625</LongitudeDegrees>
            </Position>
            <AltitudeMeters>13.6000003814697265625</AltitudeMeters>
            <DistanceMeters>NAN</DistanceMeters>
          </Trackpoint>
          <Trackpoint>
            <Time>2021-08-11T15:34:18.000Z</Time>
            <Position>
              <LatitudeDegrees>43.32454212941229343414306640625</LatitudeDegrees>
              <LongitudeDegrees>-1.9168146885931491851806640625</LongitudeDegrees>
            </Position>
            <AltitudeMeters>13.6000003814697265625</AltitudeMeters>
            <DistanceMeters>NAN</DistanceMeters>
          </Trackpoint>
          <Trackpoint>
            <Time>2021-08-11T15:34:25.000Z</Time>
            <Position>
              <LatitudeDegrees>43.32454212941229343414306640625</LatitudeDegrees>
              <LongitudeDegrees>-1.9168146885931491851806640625</LongitudeDegrees>
            </Position>
            <AltitudeMeters>13.6000003814697265625</AltitudeMeters>
            <DistanceMeters>NAN</DistanceMeters>
          </Trackpoint>
          <Trackpoint>
            <Time>2021-08-11T15:34:33.000Z</Time>
            <Position>
              <LatitudeDegrees>43.324586637318134307861328125</LatitudeDegrees>
              <LongitudeDegrees>-1.91686020232737064361572265625</LongitudeDegrees>
            </Position>
            <AltitudeMeters>13.80000019073486328125</AltitudeMeters>
            <DistanceMeters>NAN</DistanceMeters>
          </Trackpoint>
          <Trackpoint>
            <Time>2021-08-11T15:34:36.000Z</Time>
            <Position>
              <LatitudeDegrees>43.324643634259700775146484375</LatitudeDegrees>
              <LongitudeDegrees>-1.91689741797745227813720703125</LongitudeDegrees>
            </Position>
            <AltitudeMeters>13.80000019073486328125</AltitudeMeters>
            <DistanceMeters>NAN</DistanceMeters>
          </Trackpoint>
          <Trackpoint>
            <Time>2021-08-11T15:34:38.000Z</Time>
            <Position>
              <LatitudeDegrees>43.32466852851212024688720703125</LatitudeDegrees>
              <LongitudeDegrees>-1.91692876629531383514404296875</LongitudeDegrees>
            </Position>
            <AltitudeMeters>13.80000019073486328125</AltitudeMeters>
            <DistanceMeters>NAN</DistanceMeters>
          </Trackpoint>
          <Trackpoint>
            <Time>2021-08-11T15:34:39.000Z</Time>
            <Position>
              <LatitudeDegrees>43.32467339001595973968505859375</LatitudeDegrees>
              <LongitudeDegrees>-1.9169412553310394287109375</LongitudeDegrees>
            </Position>
            <AltitudeMeters>13.80000019073486328125</AltitudeMeters>
            <DistanceMeters>NAN</DistanceMeters>
          </Trackpoint>
          <Trackpoint>
            <Time>2021-08-11T15:34:40.000Z</Time>
            <Position>
              <LatitudeDegrees>43.3246815204620361328125</LatitudeDegrees>
              <LongitudeDegrees>-1.9169514812529087066650390625</LongitudeDegrees>
            </Position>
            <AltitudeMeters>13.80000019073486328125</AltitudeMeters>
            <DistanceMeters>NAN</DistanceMeters>
          </Trackpoint>
          <Trackpoint>
            <Time>2021-08-11T15:34:42.000Z</Time>
            <Position>
              <LatitudeDegrees>43.32470037974417209625244140625</LatitudeDegrees>
              <LongitudeDegrees>-1.91697604022920131683349609375</LongitudeDegrees>
            </Position>
            <AltitudeMeters>13.80000019073486328125</AltitudeMeters>
            <DistanceMeters>NAN</DistanceMeters>
          </Trackpoint>
          <Trackpoint>
            <Time>2021-08-11T15:34:43.000Z</Time>
            <Position>
              <LatitudeDegrees>43.32470725290477275848388671875</LatitudeDegrees>
              <LongitudeDegrees>-1.9169873557984828948974609375</LongitudeDegrees>
            </Position>
            <AltitudeMeters>13.80000019073486328125</AltitudeMeters>
            <DistanceMeters>NAN</DistanceMeters>
          </Trackpoint>
          <Trackpoint>
            <Time>2021-08-11T15:34:45.000Z</Time>
            <Position>
              <LatitudeDegrees>43.32472234033048152923583984375</LatitudeDegrees>
              <LongitudeDegrees>-1.917016021907329559326171875</LongitudeDegrees>
            </Position>
            <AltitudeMeters>14</AltitudeMeters>
            <DistanceMeters>NAN</DistanceMeters>
          </Trackpoint>
          <Trackpoint>
            <Time>2021-08-11T15:34:49.000Z</Time>
            <Position>
              <LatitudeDegrees>43.32475368864834308624267578125</LatitudeDegrees>
              <LongitudeDegrees>-1.9170661456882953643798828125</LongitudeDegrees>
            </Position>
            <AltitudeMeters>14</AltitudeMeters>
            <DistanceMeters>NAN</DistanceMeters>
          </Trackpoint>
          <Trackpoint>
            <Time>2021-08-11T15:34:51.000Z</Time>
            <Position>
              <LatitudeDegrees>43.3247785829007625579833984375</LatitudeDegrees>
              <LongitudeDegrees>-1.91708802245557308197021484375</LongitudeDegrees>
            </Position>
            <AltitudeMeters>14</AltitudeMeters>
            <DistanceMeters>NAN</DistanceMeters>
          </Trackpoint>
          <Trackpoint>
            <Time>2021-08-11T15:34:52.000Z</Time>
            <Position>
              <LatitudeDegrees>43.32478805445134639739990234375</LatitudeDegrees>
              <LongitudeDegrees>-1.9171048700809478759765625</LongitudeDegrees>
            </Position>
            <AltitudeMeters>14</AltitudeMeters>
            <DistanceMeters>NAN</DistanceMeters>
          </Trackpoint>
          <Trackpoint>
            <Time>2021-08-11T15:34:54.000Z</Time>
            <Position>
              <LatitudeDegrees>43.3247960172593593597412109375</LatitudeDegrees>
              <LongitudeDegrees>-1.9171207956969738006591796875</LongitudeDegrees>
            </Position>
            <AltitudeMeters>14</AltitudeMeters>
            <DistanceMeters>NAN</DistanceMeters>
          </Trackpoint>
          <Trackpoint>
            <Time>2021-08-11T15:34:55.000Z</Time>
            <Position>
              <LatitudeDegrees>43.324801884591579437255859375</LatitudeDegrees>
              <LongitudeDegrees>-1.9171214662492275238037109375</LongitudeDegrees>
            </Position>
            <AltitudeMeters>14</AltitudeMeters>
            <DistanceMeters>NAN</DistanceMeters>
          </Trackpoint>
          <Trackpoint>
            <Time>2021-08-11T15:34:56.000Z</Time>
            <Position>
              <LatitudeDegrees>43.3247953467071056365966796875</LatitudeDegrees>
              <LongitudeDegrees>-1.91712758503854274749755859375</LongitudeDegrees>
            </Position>
            <AltitudeMeters>13.80000019073486328125</AltitudeMeters>
            <DistanceMeters>NAN</DistanceMeters>
          </Trackpoint>
          <Trackpoint>
            <Time>2021-08-11T15:34:57.000Z</Time>
            <Position>
              <LatitudeDegrees>43.32480247132480144500732421875</LatitudeDegrees>
              <LongitudeDegrees>-1.9171442650258541107177734375</LongitudeDegrees>
            </Position>
            <AltitudeMeters>13.80000019073486328125</AltitudeMeters>
            <DistanceMeters>NAN</DistanceMeters>
          </Trackpoint>
          <Trackpoint>
            <Time>2021-08-11T15:34:58.000Z</Time>
            <Position>
              <LatitudeDegrees>43.3248124457895755767822265625</LatitudeDegrees>
              <LongitudeDegrees>-1.9171553291380405426025390625</LongitudeDegrees>
            </Position>
            <AltitudeMeters>13.80000019073486328125</AltitudeMeters>
            <DistanceMeters>NAN</DistanceMeters>
          </Trackpoint>
          <Trackpoint>
            <Time>2021-08-11T15:34:59.000Z</Time>
            <Position>
              <LatitudeDegrees>43.3247993700206279754638671875</LatitudeDegrees>
              <LongitudeDegrees>-1.91717770881950855255126953125</LongitudeDegrees>
            </Position>
            <AltitudeMeters>13.80000019073486328125</AltitudeMeters>
            <DistanceMeters>NAN</DistanceMeters>
          </Trackpoint>
          <Trackpoint>
            <Time>2021-08-11T15:35:01.000Z</Time>
            <Position>
              <LatitudeDegrees>43.324803896248340606689453125</LatitudeDegrees>
              <LongitudeDegrees>-1.91720117814838886260986328125</LongitudeDegrees>
            </Position>
            <AltitudeMeters>13.80000019073486328125</AltitudeMeters>
            <DistanceMeters>NAN</DistanceMeters>
          </Trackpoint>
          <Trackpoint>
            <Time>2021-08-11T15:35:02.000Z</Time>
            <Position>
              <LatitudeDegrees>43.3247928321361541748046875</LatitudeDegrees>
              <LongitudeDegrees>-1.91721525974571704864501953125</LongitudeDegrees>
            </Position>
            <AltitudeMeters>13.80000019073486328125</AltitudeMeters>
            <DistanceMeters>NAN</DistanceMeters>
          </Trackpoint>
          <Trackpoint>
            <Time>2021-08-11T15:35:03.000Z</Time>
            <Position>
              <LatitudeDegrees>43.32478973083198070526123046875</LatitudeDegrees>
              <LongitudeDegrees>-1.91722867079079151153564453125</LongitudeDegrees>
            </Position>
            <AltitudeMeters>13.80000019073486328125</AltitudeMeters>
            <DistanceMeters>NAN</DistanceMeters>
          </Trackpoint>
          <Trackpoint>
            <Time>2021-08-11T15:35:04.000Z</Time>
            <Position>
              <LatitudeDegrees>43.32479082047939300537109375</LatitudeDegrees>
              <LongitudeDegrees>-1.9172416627407073974609375</LongitudeDegrees>
            </Position>
            <AltitudeMeters>13.80000019073486328125</AltitudeMeters>
            <DistanceMeters>NAN</DistanceMeters>
          </Trackpoint>
          <Trackpoint>
            <Time>2021-08-11T15:35:05.000Z</Time>
            <Position>
              <LatitudeDegrees>43.3247883059084415435791015625</LatitudeDegrees>
              <LongitudeDegrees>-1.91725884564220905303955078125</LongitudeDegrees>
            </Position>
            <AltitudeMeters>13.80000019073486328125</AltitudeMeters>
            <DistanceMeters>NAN</DistanceMeters>
          </Trackpoint>
          <Trackpoint>
            <Time>2021-08-11T15:35:06.000Z</Time>
            <Position>
              <LatitudeDegrees>43.3247832767665386199951171875</LatitudeDegrees>
              <LongitudeDegrees>-1.91727812401950359344482421875</LongitudeDegrees>
            </Position>
            <AltitudeMeters>13.80000019073486328125</AltitudeMeters>
            <DistanceMeters>NAN</DistanceMeters>
          </Trackpoint>
          <Trackpoint>
            <Time>2021-08-11T15:35:07.000Z</Time>
            <Position>
              <LatitudeDegrees>43.3247832767665386199951171875</LatitudeDegrees>
              <LongitudeDegrees>-1.9172968156635761260986328125</LongitudeDegrees>
            </Position>
            <AltitudeMeters>13.80000019073486328125</AltitudeMeters>
            <DistanceMeters>NAN</DistanceMeters>
          </Trackpoint>
          <Trackpoint>
            <Time>2021-08-11T15:35:08.000Z</Time>
            <Position>
              <LatitudeDegrees>43.324792496860027313232421875</LatitudeDegrees>
              <LongitudeDegrees>-1.917305029928684234619140625</LongitudeDegrees>
            </Position>
            <AltitudeMeters>13.6000003814697265625</AltitudeMeters>
            <DistanceMeters>NAN</DistanceMeters>
          </Trackpoint>
          <Trackpoint>
            <Time>2021-08-11T15:35:11.000Z</Time>
            <Position>
              <LatitudeDegrees>43.3248285390436649322509765625</LatitudeDegrees>
              <LongitudeDegrees>-1.91732875071465969085693359375</LongitudeDegrees>
            </Position>
            <AltitudeMeters>13.6000003814697265625</AltitudeMeters>
            <DistanceMeters>NAN</DistanceMeters>
          </Trackpoint>
          <Trackpoint>
            <Time>2021-08-11T15:35:13.000Z</Time>
            <Position>
              <LatitudeDegrees>43.3248419500887393951416015625</LatitudeDegrees>
              <LongitudeDegrees>-1.91734819673001766204833984375</LongitudeDegrees>
            </Position>
            <AltitudeMeters>13.6000003814697265625</AltitudeMeters>
            <DistanceMeters>NAN</DistanceMeters>
          </Trackpoint>
          <Trackpoint>
            <Time>2021-08-11T15:35:14.000Z</Time>
            <Position>
              <LatitudeDegrees>43.32484714686870574951171875</LatitudeDegrees>
              <LongitudeDegrees>-1.91735959611833095550537109375</LongitudeDegrees>
            </Position>
            <AltitudeMeters>13.3999996185302734375</AltitudeMeters>
            <DistanceMeters>NAN</DistanceMeters>
          </Trackpoint>
          <Trackpoint>
            <Time>2021-08-11T15:35:15.000Z</Time>
            <Position>
              <LatitudeDegrees>43.32485259510576725006103515625</LatitudeDegrees>
              <LongitudeDegrees>-1.91736781038343906402587890625</LongitudeDegrees>
            </Position>
            <AltitudeMeters>13.6000003814697265625</AltitudeMeters>
            <DistanceMeters>NAN</DistanceMeters>
          </Trackpoint>
          <Trackpoint>
            <Time>2021-08-11T15:35:16.000Z</Time>
            <Position>
              <LatitudeDegrees>43.32485544495284557342529296875</LatitudeDegrees>
              <LongitudeDegrees>-1.91737803630530834197998046875</LongitudeDegrees>
            </Position>
            <AltitudeMeters>13.6000003814697265625</AltitudeMeters>
            <DistanceMeters>NAN</DistanceMeters>
          </Trackpoint>
          <Trackpoint>
            <Time>2021-08-11T15:35:17.000Z</Time>
            <Position>
              <LatitudeDegrees>43.3248590491712093353271484375</LatitudeDegrees>
              <LongitudeDegrees>-1.91738985478878021240234375</LongitudeDegrees>
            </Position>
            <AltitudeMeters>13.80000019073486328125</AltitudeMeters>
            <DistanceMeters>NAN</DistanceMeters>
          </Trackpoint>
          <Trackpoint>
            <Time>2021-08-11T15:35:18.000Z</Time>
            <Position>
              <LatitudeDegrees>43.32486416213214397430419921875</LatitudeDegrees>
              <LongitudeDegrees>-1.91740066744387149810791015625</LongitudeDegrees>
            </Position>
            <AltitudeMeters>13.80000019073486328125</AltitudeMeters>
            <DistanceMeters>NAN</DistanceMeters>
          </Trackpoint>
          <Trackpoint>
            <Time>2021-08-11T15:35:19.000Z</Time>
            <Position>
              <LatitudeDegrees>43.3248711191117763519287109375</LatitudeDegrees>
              <LongitudeDegrees>-1.91741055808961391448974609375</LongitudeDegrees>
            </Position>
            <AltitudeMeters>14</AltitudeMeters>
            <DistanceMeters>NAN</DistanceMeters>
          </Trackpoint>
          <Trackpoint>
            <Time>2021-08-11T15:35:20.000Z</Time>
            <Position>
              <LatitudeDegrees>43.32486734725534915924072265625</LatitudeDegrees>
              <LongitudeDegrees>-1.91742145456373691558837890625</LongitudeDegrees>
            </Position>
            <AltitudeMeters>14.19999980926513671875</AltitudeMeters>
            <DistanceMeters>NAN</DistanceMeters>
          </Trackpoint>
          <Trackpoint>
            <Time>2021-08-11T15:35:21.000Z</Time>
            <Position>
              <LatitudeDegrees>43.324868939816951751708984375</LatitudeDegrees>
              <LongitudeDegrees>-1.91742698661983013153076171875</LongitudeDegrees>
            </Position>
            <AltitudeMeters>14</AltitudeMeters>
            <DistanceMeters>NAN</DistanceMeters>
          </Trackpoint>
          <Trackpoint>
            <Time>2021-08-11T15:35:22.000Z</Time>
            <Position>
              <LatitudeDegrees>43.3248694427311420440673828125</LatitudeDegrees>
              <LongitudeDegrees>-1.91743117757141590118408203125</LongitudeDegrees>
            </Position>
            <AltitudeMeters>14.19999980926513671875</AltitudeMeters>
            <DistanceMeters>NAN</DistanceMeters>
          </Trackpoint>
          <Trackpoint>
            <Time>2021-08-11T15:35:23.000Z</Time>
            <Position>
              <LatitudeDegrees>43.3248697780072689056396484375</LatitudeDegrees>
              <LongitudeDegrees>-1.91743872128427028656005859375</LongitudeDegrees>
            </Position>
            <AltitudeMeters>14.3999996185302734375</AltitudeMeters>
            <DistanceMeters>NAN</DistanceMeters>
          </Trackpoint>
          <Trackpoint>
            <Time>2021-08-11T15:35:24.000Z</Time>
            <Position>
              <LatitudeDegrees>43.3248687721788883209228515625</LatitudeDegrees>
              <LongitudeDegrees>-1.9174455106258392333984375</LongitudeDegrees>
            </Position>
            <AltitudeMeters>14.3999996185302734375</AltitudeMeters>
            <DistanceMeters>NAN</DistanceMeters>
          </Trackpoint>
          <Trackpoint>
            <Time>2021-08-11T15:35:25.000Z</Time>
            <Position>
              <LatitudeDegrees>43.324868269264698028564453125</LatitudeDegrees>
              <LongitudeDegrees>-1.9174557365477085113525390625</LongitudeDegrees>
            </Position>
            <AltitudeMeters>14.6000003814697265625</AltitudeMeters>
            <DistanceMeters>NAN</DistanceMeters>
          </Trackpoint>
          <Trackpoint>
            <Time>2021-08-11T15:35:26.000Z</Time>
            <Position>
              <LatitudeDegrees>43.32487153820693492889404296875</LatitudeDegrees>
              <LongitudeDegrees>-1.91746671684086322784423828125</LongitudeDegrees>
            </Position>
            <AltitudeMeters>14.80000019073486328125</AltitudeMeters>
            <DistanceMeters>NAN</DistanceMeters>
          </Trackpoint>
          <Trackpoint>
            <Time>2021-08-11T15:35:27.000Z</Time>
            <Position>
              <LatitudeDegrees>43.32487002946436405181884765625</LatitudeDegrees>
              <LongitudeDegrees>-1.91747677512466907501220703125</LongitudeDegrees>
            </Position>
            <AltitudeMeters>14.80000019073486328125</AltitudeMeters>
            <DistanceMeters>NAN</DistanceMeters>
          </Trackpoint>
          <Trackpoint>
            <Time>2021-08-11T15:35:28.000Z</Time>
            <Position>
              <LatitudeDegrees>43.3248704485595226287841796875</LatitudeDegrees>
              <LongitudeDegrees>-1.917487084865570068359375</LongitudeDegrees>
            </Position>
            <AltitudeMeters>15</AltitudeMeters>
            <DistanceMeters>NAN</DistanceMeters>
          </Trackpoint>
          <Trackpoint>
            <Time>2021-08-11T15:35:29.000Z</Time>
            <Position>
              <LatitudeDegrees>43.32486969418823719024658203125</LatitudeDegrees>
              <LongitudeDegrees>-1.91749722696840763092041015625</LongitudeDegrees>
            </Position>
            <AltitudeMeters>15</AltitudeMeters>
            <DistanceMeters>NAN</DistanceMeters>
          </Trackpoint>
          <Trackpoint>
            <Time>2021-08-11T15:35:30.000Z</Time>
            <Position>
              <LatitudeDegrees>43.32487304694950580596923828125</LatitudeDegrees>
              <LongitudeDegrees>-1.91750912927091121673583984375</LongitudeDegrees>
            </Position>
            <AltitudeMeters>15.19999980926513671875</AltitudeMeters>
            <DistanceMeters>NAN</DistanceMeters>
          </Trackpoint>
          <Trackpoint>
            <Time>2021-08-11T15:35:31.000Z</Time>
            <Position>
              <LatitudeDegrees>43.32487975247204303741455078125</LatitudeDegrees>
              <LongitudeDegrees>-1.9175211153924465179443359375</LongitudeDegrees>
            </Position>
            <AltitudeMeters>15.19999980926513671875</AltitudeMeters>
            <DistanceMeters>NAN</DistanceMeters>
          </Trackpoint>
          <Trackpoint>
            <Time>2021-08-11T15:35:32.000Z</Time>
            <Position>
              <LatitudeDegrees>43.32488511689007282257080078125</LatitudeDegrees>
              <LongitudeDegrees>-1.917533688247203826904296875</LongitudeDegrees>
            </Position>
            <AltitudeMeters>15.3999996185302734375</AltitudeMeters>
            <DistanceMeters>NAN</DistanceMeters>
          </Trackpoint>
          <Trackpoint>
            <Time>2021-08-11T15:35:33.000Z</Time>
            <Position>
              <LatitudeDegrees>43.3248882181942462921142578125</LatitudeDegrees>
              <LongitudeDegrees>-1.91754416562616825103759765625</LongitudeDegrees>
            </Position>
            <AltitudeMeters>15.3999996185302734375</AltitudeMeters>
            <DistanceMeters>NAN</DistanceMeters>
          </Trackpoint>
          <Trackpoint>
            <Time>2021-08-11T15:35:34.000Z</Time>
            <Position>
              <LatitudeDegrees>43.3248929120600223541259765625</LatitudeDegrees>
              <LongitudeDegrees>-1.917555816471576690673828125</LongitudeDegrees>
            </Position>
            <AltitudeMeters>15.6000003814697265625</AltitudeMeters>
            <DistanceMeters>NAN</DistanceMeters>
          </Trackpoint>
          <Trackpoint>
            <Time>2021-08-11T15:35:35.000Z</Time>
            <Position>
              <LatitudeDegrees>43.32489986903965473175048828125</LatitudeDegrees>
              <LongitudeDegrees>-1.917567215859889984130859375</LongitudeDegrees>
            </Position>
            <AltitudeMeters>15.6000003814697265625</AltitudeMeters>
            <DistanceMeters>NAN</DistanceMeters>
          </Trackpoint>
          <Trackpoint>
            <Time>2021-08-11T15:35:36.000Z</Time>
            <Position>
              <LatitudeDegrees>43.32490405999124050140380859375</LatitudeDegrees>
              <LongitudeDegrees>-1.917570568621158599853515625</LongitudeDegrees>
            </Position>
            <AltitudeMeters>15.80000019073486328125</AltitudeMeters>
            <DistanceMeters>NAN</DistanceMeters>
          </Trackpoint>
          <Trackpoint>
            <Time>2021-08-11T15:35:37.000Z</Time>
            <Position>
              <LatitudeDegrees>43.3249096758663654327392578125</LatitudeDegrees>
              <LongitudeDegrees>-1.91757358610630035400390625</LongitudeDegrees>
            </Position>
            <AltitudeMeters>15.80000019073486328125</AltitudeMeters>
            <DistanceMeters>NAN</DistanceMeters>
          </Trackpoint>
          <Trackpoint>
            <Time>2021-08-11T15:35:38.000Z</Time>
            <Position>
              <LatitudeDegrees>43.3249177224934101104736328125</LatitudeDegrees>
              <LongitudeDegrees>-1.91757987253367900848388671875</LongitudeDegrees>
            </Position>
            <AltitudeMeters>15.80000019073486328125</AltitudeMeters>
            <DistanceMeters>NAN</DistanceMeters>
          </Trackpoint>
          <Trackpoint>
            <Time>2021-08-11T15:35:39.000Z</Time>
            <Position>
              <LatitudeDegrees>43.32492853514850139617919921875</LatitudeDegrees>
              <LongitudeDegrees>-1.91759244538843631744384765625</LongitudeDegrees>
            </Position>
            <AltitudeMeters>15.80000019073486328125</AltitudeMeters>
            <DistanceMeters>NAN</DistanceMeters>
          </Trackpoint>
          <Trackpoint>
            <Time>2021-08-11T15:35:40.000Z</Time>
            <Position>
              <LatitudeDegrees>43.32493272610008716583251953125</LatitudeDegrees>
              <LongitudeDegrees>-1.9176062755286693572998046875</LongitudeDegrees>
            </Position>
            <AltitudeMeters>15.80000019073486328125</AltitudeMeters>
            <DistanceMeters>NAN</DistanceMeters>
          </Trackpoint>
          <Trackpoint>
            <Time>2021-08-11T15:35:41.000Z</Time>
            <Position>
              <LatitudeDegrees>43.32493993453681468963623046875</LatitudeDegrees>
              <LongitudeDegrees>-1.91761926747858524322509765625</LongitudeDegrees>
            </Position>
            <AltitudeMeters>15.80000019073486328125</AltitudeMeters>
            <DistanceMeters>NAN</DistanceMeters>
          </Trackpoint>
          <Trackpoint>
            <Time>2021-08-11T15:35:42.000Z</Time>
            <Position>
              <LatitudeDegrees>43.3249388448894023895263671875</LatitudeDegrees>
              <LongitudeDegrees>-1.91763569600880146026611328125</LongitudeDegrees>
            </Position>
            <AltitudeMeters>16</AltitudeMeters>
            <DistanceMeters>NAN</DistanceMeters>
          </Trackpoint>
          <Trackpoint>
            <Time>2021-08-11T15:35:44.000Z</Time>
            <Position>
              <LatitudeDegrees>43.3249596320092678070068359375</LatitudeDegrees>
              <LongitudeDegrees>-1.91766754724085330963134765625</LongitudeDegrees>
            </Position>
            <AltitudeMeters>16</AltitudeMeters>
            <DistanceMeters>NAN</DistanceMeters>
          </Trackpoint>
          <Trackpoint>
            <Time>2021-08-11T15:35:46.000Z</Time>
            <Position>
              <LatitudeDegrees>43.3249740488827228546142578125</LatitudeDegrees>
              <LongitudeDegrees>-1.91767760552465915679931640625</LongitudeDegrees>
            </Position>
            <AltitudeMeters>16</AltitudeMeters>
            <DistanceMeters>NAN</DistanceMeters>
          </Trackpoint>
          <Trackpoint>
            <Time>2021-08-11T15:35:50.000Z</Time>
            <Position>
              <LatitudeDegrees>43.3249740488827228546142578125</LatitudeDegrees>
              <LongitudeDegrees>-1.91767760552465915679931640625</LongitudeDegrees>
            </Position>
            <AltitudeMeters>16.200000762939453125</AltitudeMeters>
            <DistanceMeters>NAN</DistanceMeters>
          </Trackpoint>
          <Trackpoint>
            <Time>2021-08-11T15:36:00.000Z</Time>
            <Position>
              <LatitudeDegrees>43.3249740488827228546142578125</LatitudeDegrees>
              <LongitudeDegrees>-1.91767760552465915679931640625</LongitudeDegrees>
            </Position>
            <AltitudeMeters>16.3999996185302734375</AltitudeMeters>
            <DistanceMeters>NAN</DistanceMeters>
          </Trackpoint>
          <Trackpoint>
            <Time>2021-08-11T15:36:02.000Z</Time>
            <Position>
              <LatitudeDegrees>43.3249740488827228546142578125</LatitudeDegrees>
              <LongitudeDegrees>-1.91767760552465915679931640625</LongitudeDegrees>
            </Position>
            <AltitudeMeters>16.3999996185302734375</AltitudeMeters>
            <DistanceMeters>NAN</DistanceMeters>
          </Trackpoint>
          <Trackpoint>
            <Time>2021-08-11T15:36:14.000Z</Time>
            <Position>
              <LatitudeDegrees>43.3249740488827228546142578125</LatitudeDegrees>
              <LongitudeDegrees>-1.91767760552465915679931640625</LongitudeDegrees>
            </Position>
            <AltitudeMeters>16.3999996185302734375</AltitudeMeters>
            <DistanceMeters>NAN</DistanceMeters>
          </Trackpoint>
          <Trackpoint>
            <Time>2021-08-11T15:37:22.000Z</Time>
            <Position>
              <LatitudeDegrees>43.32497262395918369293212890625</LatitudeDegrees>
              <LongitudeDegrees>-1.9177031703293323516845703125</LongitudeDegrees>
            </Position>
            <AltitudeMeters>16.6000003814697265625</AltitudeMeters>
            <DistanceMeters>NAN</DistanceMeters>
          </Trackpoint>
          <Trackpoint>
            <Time>2021-08-11T15:37:28.000Z</Time>
            <Position>
              <LatitudeDegrees>43.32497262395918369293212890625</LatitudeDegrees>
              <LongitudeDegrees>-1.9177031703293323516845703125</LongitudeDegrees>
            </Position>
            <AltitudeMeters>16.799999237060546875</AltitudeMeters>
            <DistanceMeters>NAN</DistanceMeters>
          </Trackpoint>
          <Trackpoint>
            <Time>2021-08-11T15:37:40.000Z</Time>
            <Position>
              <LatitudeDegrees>43.32496642135083675384521484375</LatitudeDegrees>
              <LongitudeDegrees>-1.9177244603633880615234375</LongitudeDegrees>
            </Position>
            <AltitudeMeters>16.799999237060546875</AltitudeMeters>
            <DistanceMeters>NAN</DistanceMeters>
          </Trackpoint>
          <Trackpoint>
            <Time>2021-08-11T15:37:42.000Z</Time>
            <Position>
              <LatitudeDegrees>43.3249730430543422698974609375</LatitudeDegrees>
              <LongitudeDegrees>-1.9177437387406826019287109375</LongitudeDegrees>
            </Position>
            <AltitudeMeters>16.799999237060546875</AltitudeMeters>
            <DistanceMeters>NAN</DistanceMeters>
          </Trackpoint>
          <Trackpoint>
            <Time>2021-08-11T15:37:44.000Z</Time>
            <Position>
              <LatitudeDegrees>43.3249877952039241790771484375</LatitudeDegrees>
              <LongitudeDegrees>-1.91776804625988006591796875</LongitudeDegrees>
            </Position>
            <AltitudeMeters>16.799999237060546875</AltitudeMeters>
            <DistanceMeters>NAN</DistanceMeters>
          </Trackpoint>
          <Trackpoint>
            <Time>2021-08-11T15:37:48.000Z</Time>
            <Position>
              <LatitudeDegrees>43.3249985240399837493896484375</LatitudeDegrees>
              <LongitudeDegrees>-1.9177933596074581146240234375</LongitudeDegrees>
            </Position>
            <AltitudeMeters>17</AltitudeMeters>
            <DistanceMeters>NAN</DistanceMeters>
          </Trackpoint>
          <Trackpoint>
            <Time>2021-08-11T15:37:49.000Z</Time>
            <Position>
              <LatitudeDegrees>43.3250015415251255035400390625</LatitudeDegrees>
              <LongitudeDegrees>-1.91781389527022838592529296875</LongitudeDegrees>
            </Position>
            <AltitudeMeters>17</AltitudeMeters>
            <DistanceMeters>NAN</DistanceMeters>
          </Trackpoint>
          <Trackpoint>
            <Time>2021-08-11T15:37:55.000Z</Time>
            <Position>
              <LatitudeDegrees>43.32500916905701160430908203125</LatitudeDegrees>
              <LongitudeDegrees>-1.91792135126888751983642578125</LongitudeDegrees>
            </Position>
            <AltitudeMeters>17.200000762939453125</AltitudeMeters>
            <DistanceMeters>NAN</DistanceMeters>
          </Trackpoint>
          <Trackpoint>
            <Time>2021-08-11T15:37:56.000Z</Time>
            <Position>
              <LatitudeDegrees>43.3250132761895656585693359375</LatitudeDegrees>
              <LongitudeDegrees>-1.91793358884751796722412109375</LongitudeDegrees>
            </Position>
            <AltitudeMeters>17.200000762939453125</AltitudeMeters>
            <DistanceMeters>NAN</DistanceMeters>
          </Trackpoint>
          <Trackpoint>
            <Time>2021-08-11T15:37:57.000Z</Time>
            <Position>
              <LatitudeDegrees>43.32501520402729511260986328125</LatitudeDegrees>
              <LongitudeDegrees>-1.91794616170227527618408203125</LongitudeDegrees>
            </Position>
            <AltitudeMeters>17</AltitudeMeters>
            <DistanceMeters>NAN</DistanceMeters>
          </Trackpoint>
          <Trackpoint>
            <Time>2021-08-11T15:37:58.000Z</Time>
            <Position>
              <LatitudeDegrees>43.32502258010208606719970703125</LatitudeDegrees>
              <LongitudeDegrees>-1.91795714199542999267578125</LongitudeDegrees>
            </Position>
            <AltitudeMeters>17</AltitudeMeters>
            <DistanceMeters>NAN</DistanceMeters>
          </Trackpoint>
          <Trackpoint>
            <Time>2021-08-11T15:37:59.000Z</Time>
            <Position>
              <LatitudeDegrees>43.325029201805591583251953125</LatitudeDegrees>
              <LongitudeDegrees>-1.91796652972698211669921875</LongitudeDegrees>
            </Position>
            <AltitudeMeters>17.200000762939453125</AltitudeMeters>
            <DistanceMeters>NAN</DistanceMeters>
          </Trackpoint>
          <Trackpoint>
            <Time>2021-08-11T15:38:00.000Z</Time>
            <Position>
              <LatitudeDegrees>43.32502844743430614471435546875</LatitudeDegrees>
              <LongitudeDegrees>-1.917978264391422271728515625</LongitudeDegrees>
            </Position>
            <AltitudeMeters>17</AltitudeMeters>
            <DistanceMeters>NAN</DistanceMeters>
          </Trackpoint>
          <Trackpoint>
            <Time>2021-08-11T15:38:01.000Z</Time>
            <Position>
              <LatitudeDegrees>43.325030542910099029541015625</LatitudeDegrees>
              <LongitudeDegrees>-1.9179831258952617645263671875</LongitudeDegrees>
            </Position>
            <AltitudeMeters>17</AltitudeMeters>
            <DistanceMeters>NAN</DistanceMeters>
          </Trackpoint>
          <Trackpoint>
            <Time>2021-08-11T15:38:02.000Z</Time>
            <Position>
              <LatitudeDegrees>43.3250327222049236297607421875</LatitudeDegrees>
              <LongitudeDegrees>-1.9179844669997692108154296875</LongitudeDegrees>
            </Position>
            <AltitudeMeters>17</AltitudeMeters>
            <DistanceMeters>NAN</DistanceMeters>
          </Trackpoint>
          <Trackpoint>
            <Time>2021-08-11T15:38:03.000Z</Time>
            <Position>
              <LatitudeDegrees>43.32503129728138446807861328125</LatitudeDegrees>
              <LongitudeDegrees>-1.91798086278140544891357421875</LongitudeDegrees>
            </Position>
            <AltitudeMeters>17</AltitudeMeters>
            <DistanceMeters>NAN</DistanceMeters>
          </Trackpoint>
          <Trackpoint>
            <Time>2021-08-11T15:38:04.000Z</Time>
            <Position>
              <LatitudeDegrees>43.32503129728138446807861328125</LatitudeDegrees>
              <LongitudeDegrees>-1.91798086278140544891357421875</LongitudeDegrees>
            </Position>
            <AltitudeMeters>17.200000762939453125</AltitudeMeters>
            <DistanceMeters>NAN</DistanceMeters>
          </Trackpoint>
          <Trackpoint>
            <Time>2021-08-11T15:38:12.000Z</Time>
            <Position>
              <LatitudeDegrees>43.32503129728138446807861328125</LatitudeDegrees>
              <LongitudeDegrees>-1.91798086278140544891357421875</LongitudeDegrees>
            </Position>
            <AltitudeMeters>17.3999996185302734375</AltitudeMeters>
            <DistanceMeters>NAN</DistanceMeters>
          </Trackpoint>
          <Trackpoint>
            <Time>2021-08-11T15:38:14.000Z</Time>
            <Position>
              <LatitudeDegrees>43.32503129728138446807861328125</LatitudeDegrees>
              <LongitudeDegrees>-1.91798086278140544891357421875</LongitudeDegrees>
            </Position>
            <AltitudeMeters>17.3999996185302734375</AltitudeMeters>
            <DistanceMeters>NAN</DistanceMeters>
          </Trackpoint>
          <Trackpoint>
            <Time>2021-08-11T15:39:32.000Z</Time>
            <Position>
              <LatitudeDegrees>43.32503129728138446807861328125</LatitudeDegrees>
              <LongitudeDegrees>-1.91798086278140544891357421875</LongitudeDegrees>
            </Position>
            <AltitudeMeters>18</AltitudeMeters>
            <DistanceMeters>NAN</DistanceMeters>
          </Trackpoint>
          <Trackpoint>
            <Time>2021-08-11T15:40:01.000Z</Time>
            <Position>
              <LatitudeDegrees>43.32504286430776119232177734375</LatitudeDegrees>
              <LongitudeDegrees>-1.9179901666939258575439453125</LongitudeDegrees>
            </Position>
            <AltitudeMeters>17.6000003814697265625</AltitudeMeters>
            <DistanceMeters>NAN</DistanceMeters>
          </Trackpoint>
          <Trackpoint>
            <Time>2021-08-11T15:40:04.000Z</Time>
            <Position>
              <LatitudeDegrees>43.32508720457553863525390625</LatitudeDegrees>
              <LongitudeDegrees>-1.91804439760744571685791015625</LongitudeDegrees>
            </Position>
            <AltitudeMeters>17.6000003814697265625</AltitudeMeters>
            <DistanceMeters>NAN</DistanceMeters>
          </Trackpoint>
          <Trackpoint>
            <Time>2021-08-11T15:40:06.000Z</Time>
            <Position>
              <LatitudeDegrees>43.325103633105754852294921875</LatitudeDegrees>
              <LongitudeDegrees>-1.91805780865252017974853515625</LongitudeDegrees>
            </Position>
            <AltitudeMeters>17.6000003814697265625</AltitudeMeters>
            <DistanceMeters>NAN</DistanceMeters>
          </Trackpoint>
          <Trackpoint>
            <Time>2021-08-11T15:40:07.000Z</Time>
            <Position>
              <LatitudeDegrees>43.3251095004379749298095703125</LatitudeDegrees>
              <LongitudeDegrees>-1.9180699624121189117431640625</LongitudeDegrees>
            </Position>
            <AltitudeMeters>17.6000003814697265625</AltitudeMeters>
            <DistanceMeters>NAN</DistanceMeters>
          </Trackpoint>
          <Trackpoint>
            <Time>2021-08-11T15:40:08.000Z</Time>
            <Position>
              <LatitudeDegrees>43.32511268556118011474609375</LatitudeDegrees>
              <LongitudeDegrees>-1.9180758297443389892578125</LongitudeDegrees>
            </Position>
            <AltitudeMeters>17.6000003814697265625</AltitudeMeters>
            <DistanceMeters>NAN</DistanceMeters>
          </Trackpoint>
          <Trackpoint>
            <Time>2021-08-11T15:40:09.000Z</Time>
            <Position>
              <LatitudeDegrees>43.325120396912097930908203125</LatitudeDegrees>
              <LongitudeDegrees>-1.9180803559720516204833984375</LongitudeDegrees>
            </Position>
            <AltitudeMeters>17.3999996185302734375</AltitudeMeters>
            <DistanceMeters>NAN</DistanceMeters>
          </Trackpoint>
          <Trackpoint>
            <Time>2021-08-11T15:40:10.000Z</Time>
            <Position>
              <LatitudeDegrees>43.3251316286623477935791015625</LatitudeDegrees>
              <LongitudeDegrees>-1.9180887378752231597900390625</LongitudeDegrees>
            </Position>
            <AltitudeMeters>17.200000762939453125</AltitudeMeters>
            <DistanceMeters>NAN</DistanceMeters>
          </Trackpoint>
          <Trackpoint>
            <Time>2021-08-11T15:40:12.000Z</Time>
            <Position>
              <LatitudeDegrees>43.32513556815683841705322265625</LatitudeDegrees>
              <LongitudeDegrees>-1.918096281588077545166015625</LongitudeDegrees>
            </Position>
            <AltitudeMeters>16.799999237060546875</AltitudeMeters>
            <DistanceMeters>NAN</DistanceMeters>
          </Trackpoint>
          <Trackpoint>
            <Time>2021-08-11T15:40:13.000Z</Time>
            <Position>
              <LatitudeDegrees>43.32513707689940929412841796875</LatitudeDegrees>
              <LongitudeDegrees>-1.91809837706387042999267578125</LongitudeDegrees>
            </Position>
            <AltitudeMeters>16.799999237060546875</AltitudeMeters>
            <DistanceMeters>NAN</DistanceMeters>
          </Trackpoint>
          <Trackpoint>
            <Time>2021-08-11T15:40:14.000Z</Time>
            <Position>
              <LatitudeDegrees>43.32513707689940929412841796875</LatitudeDegrees>
              <LongitudeDegrees>-1.91809837706387042999267578125</LongitudeDegrees>
            </Position>
            <AltitudeMeters>16.799999237060546875</AltitudeMeters>
            <DistanceMeters>NAN</DistanceMeters>
          </Trackpoint>
          <Trackpoint>
            <Time>2021-08-11T15:40:15.000Z</Time>
            <Position>
              <LatitudeDegrees>43.32513707689940929412841796875</LatitudeDegrees>
              <LongitudeDegrees>-1.91809837706387042999267578125</LongitudeDegrees>
            </Position>
            <AltitudeMeters>16.799999237060546875</AltitudeMeters>
            <DistanceMeters>NAN</DistanceMeters>
          </Trackpoint>
          <Trackpoint>
            <Time>2021-08-11T15:40:17.000Z</Time>
            <Position>
              <LatitudeDegrees>43.32513707689940929412841796875</LatitudeDegrees>
              <LongitudeDegrees>-1.91809837706387042999267578125</LongitudeDegrees>
            </Position>
            <AltitudeMeters>16.6000003814697265625</AltitudeMeters>
            <DistanceMeters>NAN</DistanceMeters>
          </Trackpoint>
          <Trackpoint>
            <Time>2021-08-11T15:40:25.000Z</Time>
            <Position>
              <LatitudeDegrees>43.32513707689940929412841796875</LatitudeDegrees>
              <LongitudeDegrees>-1.91809837706387042999267578125</LongitudeDegrees>
            </Position>
            <AltitudeMeters>16.3999996185302734375</AltitudeMeters>
            <DistanceMeters>NAN</DistanceMeters>
          </Trackpoint>
          <Trackpoint>
            <Time>2021-08-11T15:40:45.000Z</Time>
            <Position>
              <LatitudeDegrees>43.3251373283565044403076171875</LatitudeDegrees>
              <LongitudeDegrees>-1.91809938289225101470947265625</LongitudeDegrees>
            </Position>
            <AltitudeMeters>16.6000003814697265625</AltitudeMeters>
            <DistanceMeters>NAN</DistanceMeters>
          </Trackpoint>
          <Trackpoint>
            <Time>2021-08-11T15:40:49.000Z</Time>
            <Position>
              <LatitudeDegrees>43.32515803165733814239501953125</LatitudeDegrees>
              <LongitudeDegrees>-1.91817708313465118408203125</LongitudeDegrees>
            </Position>
            <AltitudeMeters>16.3999996185302734375</AltitudeMeters>
            <DistanceMeters>NAN</DistanceMeters>
          </Trackpoint>
          <Trackpoint>
            <Time>2021-08-11T15:40:50.000Z</Time>
            <Position>
              <LatitudeDegrees>43.3251564390957355499267578125</LatitudeDegrees>
              <LongitudeDegrees>-1.91818538121879100799560546875</LongitudeDegrees>
            </Position>
            <AltitudeMeters>16.200000762939453125</AltitudeMeters>
            <DistanceMeters>NAN</DistanceMeters>
          </Trackpoint>
          <Trackpoint>
            <Time>2021-08-11T15:40:51.000Z</Time>
            <Position>
              <LatitudeDegrees>43.32514612935483455657958984375</LatitudeDegrees>
              <LongitudeDegrees>-1.91818756051361560821533203125</LongitudeDegrees>
            </Position>
            <AltitudeMeters>16.200000762939453125</AltitudeMeters>
            <DistanceMeters>NAN</DistanceMeters>
          </Trackpoint>
          <Trackpoint>
            <Time>2021-08-11T15:40:52.000Z</Time>
            <Position>
              <LatitudeDegrees>43.32513674162328243255615234375</LatitudeDegrees>
              <LongitudeDegrees>-1.91818873398005962371826171875</LongitudeDegrees>
            </Position>
            <AltitudeMeters>16.200000762939453125</AltitudeMeters>
            <DistanceMeters>NAN</DistanceMeters>
          </Trackpoint>
          <Trackpoint>
            <Time>2021-08-11T15:40:53.000Z</Time>
            <Position>
              <LatitudeDegrees>43.325134478509426116943359375</LatitudeDegrees>
              <LongitudeDegrees>-1.91819326020777225494384765625</LongitudeDegrees>
            </Position>
            <AltitudeMeters>15.80000019073486328125</AltitudeMeters>
            <DistanceMeters>NAN</DistanceMeters>
          </Trackpoint>
          <Trackpoint>
            <Time>2021-08-11T15:40:54.000Z</Time>
            <Position>
              <LatitudeDegrees>43.32513489760458469390869140625</LatitudeDegrees>
              <LongitudeDegrees>-1.91820315085351467132568359375</LongitudeDegrees>
            </Position>
            <AltitudeMeters>15.80000019073486328125</AltitudeMeters>
            <DistanceMeters>NAN</DistanceMeters>
          </Trackpoint>
          <Trackpoint>
            <Time>2021-08-11T15:40:55.000Z</Time>
            <Position>
              <LatitudeDegrees>43.3251356519758701324462890625</LatitudeDegrees>
              <LongitudeDegrees>-1.9182077609002590179443359375</LongitudeDegrees>
            </Position>
            <AltitudeMeters>15.3999996185302734375</AltitudeMeters>
            <DistanceMeters>NAN</DistanceMeters>
          </Trackpoint>
          <Trackpoint>
            <Time>2021-08-11T15:40:56.000Z</Time>
            <Position>
              <LatitudeDegrees>43.32512584514915943145751953125</LatitudeDegrees>
              <LongitudeDegrees>-1.9182127900421619415283203125</LongitudeDegrees>
            </Position>
            <AltitudeMeters>15.3999996185302734375</AltitudeMeters>
            <DistanceMeters>NAN</DistanceMeters>
          </Trackpoint>
          <Trackpoint>
            <Time>2021-08-11T15:40:57.000Z</Time>
            <Position>
              <LatitudeDegrees>43.32512282766401767730712890625</LatitudeDegrees>
              <LongitudeDegrees>-1.91820750944316387176513671875</LongitudeDegrees>
            </Position>
            <AltitudeMeters>15.19999980926513671875</AltitudeMeters>
            <DistanceMeters>NAN</DistanceMeters>
          </Trackpoint>
          <Trackpoint>
            <Time>2021-08-11T15:41:00.000Z</Time>
            <Position>
              <LatitudeDegrees>43.32513204775750637054443359375</LatitudeDegrees>
              <LongitudeDegrees>-1.9182603992521762847900390625</LongitudeDegrees>
            </Position>
            <AltitudeMeters>15</AltitudeMeters>
            <DistanceMeters>NAN</DistanceMeters>
          </Trackpoint>
          <Trackpoint>
            <Time>2021-08-11T15:41:01.000Z</Time>
            <Position>
              <LatitudeDegrees>43.32513707689940929412841796875</LatitudeDegrees>
              <LongitudeDegrees>-1.91828261129558086395263671875</LongitudeDegrees>
            </Position>
            <AltitudeMeters>15</AltitudeMeters>
            <DistanceMeters>NAN</DistanceMeters>
          </Trackpoint>
          <Trackpoint>
            <Time>2021-08-11T15:41:03.000Z</Time>
            <Position>
              <LatitudeDegrees>43.3251376636326313018798828125</LatitudeDegrees>
              <LongitudeDegrees>-1.9183073379099369049072265625</LongitudeDegrees>
            </Position>
            <AltitudeMeters>14.3999996185302734375</AltitudeMeters>
            <DistanceMeters>NAN</DistanceMeters>
          </Trackpoint>
          <Trackpoint>
            <Time>2021-08-11T15:41:05.000Z</Time>
            <Position>
              <LatitudeDegrees>43.32513992674648761749267578125</LatitudeDegrees>
              <LongitudeDegrees>-1.91832460463047027587890625</LongitudeDegrees>
            </Position>
            <AltitudeMeters>14.19999980926513671875</AltitudeMeters>
            <DistanceMeters>NAN</DistanceMeters>
          </Trackpoint>
          <Trackpoint>
            <Time>2021-08-11T15:41:06.000Z</Time>
            <Position>
              <LatitudeDegrees>43.3251495659351348876953125</LatitudeDegrees>
              <LongitudeDegrees>-1.91834145225584506988525390625</LongitudeDegrees>
            </Position>
            <AltitudeMeters>14</AltitudeMeters>
            <DistanceMeters>NAN</DistanceMeters>
          </Trackpoint>
          <Trackpoint>
            <Time>2021-08-11T15:41:07.000Z</Time>
            <Position>
              <LatitudeDegrees>43.32516239024698734283447265625</LatitudeDegrees>
              <LongitudeDegrees>-1.91836341284215450286865234375</LongitudeDegrees>
            </Position>
            <AltitudeMeters>13.80000019073486328125</AltitudeMeters>
            <DistanceMeters>NAN</DistanceMeters>
          </Trackpoint>
          <Trackpoint>
            <Time>2021-08-11T15:41:08.000Z</Time>
            <Position>
              <LatitudeDegrees>43.32517311908304691314697265625</LatitudeDegrees>
              <LongitudeDegrees>-1.9183891452848911285400390625</LongitudeDegrees>
            </Position>
            <AltitudeMeters>13.80000019073486328125</AltitudeMeters>
            <DistanceMeters>NAN</DistanceMeters>
          </Trackpoint>
          <Trackpoint>
            <Time>2021-08-11T15:41:09.000Z</Time>
            <Position>
              <LatitudeDegrees>43.325180076062679290771484375</LatitudeDegrees>
              <LongitudeDegrees>-1.9184357486665248870849609375</LongitudeDegrees>
            </Position>
            <AltitudeMeters>13.80000019073486328125</AltitudeMeters>
            <DistanceMeters>NAN</DistanceMeters>
          </Trackpoint>
          <Trackpoint>
            <Time>2021-08-11T15:41:10.000Z</Time>
            <Position>
              <LatitudeDegrees>43.3251778967678546905517578125</LatitudeDegrees>
              <LongitudeDegrees>-1.918467767536640167236328125</LongitudeDegrees>
            </Position>
            <AltitudeMeters>13.80000019073486328125</AltitudeMeters>
            <DistanceMeters>NAN</DistanceMeters>
          </Trackpoint>
          <Trackpoint>
            <Time>2021-08-11T15:41:11.000Z</Time>
            <Position>
              <LatitudeDegrees>43.325176052749156951904296875</LatitudeDegrees>
              <LongitudeDegrees>-1.91849383525550365447998046875</LongitudeDegrees>
            </Position>
            <AltitudeMeters>13.6000003814697265625</AltitudeMeters>
            <DistanceMeters>NAN</DistanceMeters>
          </Trackpoint>
          <Trackpoint>
            <Time>2021-08-11T15:41:12.000Z</Time>
            <Position>
              <LatitudeDegrees>43.32517697475850582122802734375</LatitudeDegrees>
              <LongitudeDegrees>-1.918503977358341217041015625</LongitudeDegrees>
            </Position>
            <AltitudeMeters>13.6000003814697265625</AltitudeMeters>
            <DistanceMeters>NAN</DistanceMeters>
          </Trackpoint>
          <Trackpoint>
            <Time>2021-08-11T15:41:13.000Z</Time>
            <Position>
              <LatitudeDegrees>43.32517781294882297515869140625</LatitudeDegrees>
              <LongitudeDegrees>-1.9185222499072551727294921875</LongitudeDegrees>
            </Position>
            <AltitudeMeters>13.6000003814697265625</AltitudeMeters>
            <DistanceMeters>NAN</DistanceMeters>
          </Trackpoint>
          <Trackpoint>
            <Time>2021-08-11T15:41:14.000Z</Time>
            <Position>
              <LatitudeDegrees>43.32517898641526699066162109375</LatitudeDegrees>
              <LongitudeDegrees>-1.91852551884949207305908203125</LongitudeDegrees>
            </Position>
            <AltitudeMeters>13.6000003814697265625</AltitudeMeters>
            <DistanceMeters>NAN</DistanceMeters>
          </Trackpoint>
          <Trackpoint>
            <Time>2021-08-11T15:41:15.000Z</Time>
            <Position>
              <LatitudeDegrees>43.32517898641526699066162109375</LatitudeDegrees>
              <LongitudeDegrees>-1.91852551884949207305908203125</LongitudeDegrees>
            </Position>
            <AltitudeMeters>13.6000003814697265625</AltitudeMeters>
            <DistanceMeters>NAN</DistanceMeters>
          </Trackpoint>
          <Trackpoint>
            <Time>2021-08-11T15:41:16.000Z</Time>
            <Position>
              <LatitudeDegrees>43.32518015988171100616455078125</LatitudeDegrees>
              <LongitudeDegrees>-1.91855049692094326019287109375</LongitudeDegrees>
            </Position>
            <AltitudeMeters>13.3999996185302734375</AltitudeMeters>
            <DistanceMeters>NAN</DistanceMeters>
          </Trackpoint>
          <Trackpoint>
            <Time>2021-08-11T15:41:17.000Z</Time>
            <Position>
              <LatitudeDegrees>43.325180076062679290771484375</LatitudeDegrees>
              <LongitudeDegrees>-1.918558962643146514892578125</LongitudeDegrees>
            </Position>
            <AltitudeMeters>13.3999996185302734375</AltitudeMeters>
            <DistanceMeters>NAN</DistanceMeters>
          </Trackpoint>
          <Trackpoint>
            <Time>2021-08-11T15:41:18.000Z</Time>
            <Position>
              <LatitudeDegrees>43.32517362199723720550537109375</LatitudeDegrees>
              <LongitudeDegrees>-1.91858612000942230224609375</LongitudeDegrees>
            </Position>
            <AltitudeMeters>13.3999996185302734375</AltitudeMeters>
            <DistanceMeters>NAN</DistanceMeters>
          </Trackpoint>
          <Trackpoint>
            <Time>2021-08-11T15:41:19.000Z</Time>
            <Position>
              <LatitudeDegrees>43.325172364711761474609375</LatitudeDegrees>
              <LongitudeDegrees>-1.91859022714197635650634765625</LongitudeDegrees>
            </Position>
            <AltitudeMeters>13.3999996185302734375</AltitudeMeters>
            <DistanceMeters>NAN</DistanceMeters>
          </Trackpoint>
          <Trackpoint>
            <Time>2021-08-11T15:41:20.000Z</Time>
            <Position>
              <LatitudeDegrees>43.325172364711761474609375</LatitudeDegrees>
              <LongitudeDegrees>-1.91859022714197635650634765625</LongitudeDegrees>
            </Position>
            <AltitudeMeters>13.3999996185302734375</AltitudeMeters>
            <DistanceMeters>NAN</DistanceMeters>
          </Trackpoint>
          <Trackpoint>
            <Time>2021-08-11T15:41:25.000Z</Time>
            <Position>
              <LatitudeDegrees>43.325172364711761474609375</LatitudeDegrees>
              <LongitudeDegrees>-1.91859022714197635650634765625</LongitudeDegrees>
            </Position>
            <AltitudeMeters>13.19999980926513671875</AltitudeMeters>
            <DistanceMeters>NAN</DistanceMeters>
          </Trackpoint>
          <Trackpoint>
            <Time>2021-08-11T15:42:29.000Z</Time>
            <Position>
              <LatitudeDegrees>43.325172364711761474609375</LatitudeDegrees>
              <LongitudeDegrees>-1.9185903109610080718994140625</LongitudeDegrees>
            </Position>
            <AltitudeMeters>12.3999996185302734375</AltitudeMeters>
            <DistanceMeters>NAN</DistanceMeters>
          </Trackpoint>
          <Trackpoint>
            <Time>2021-08-11T15:43:07.000Z</Time>
            <Position>
              <LatitudeDegrees>43.325172364711761474609375</LatitudeDegrees>
              <LongitudeDegrees>-1.9185903109610080718994140625</LongitudeDegrees>
            </Position>
            <AltitudeMeters>12.19999980926513671875</AltitudeMeters>
            <DistanceMeters>NAN</DistanceMeters>
          </Trackpoint>
          <Trackpoint>
            <Time>2021-08-11T15:43:41.000Z</Time>
            <Position>
              <LatitudeDegrees>43.325172364711761474609375</LatitudeDegrees>
              <LongitudeDegrees>-1.9185903109610080718994140625</LongitudeDegrees>
            </Position>
            <AltitudeMeters>12.19999980926513671875</AltitudeMeters>
            <DistanceMeters>NAN</DistanceMeters>
          </Trackpoint>
          <Trackpoint>
            <Time>2021-08-11T15:44:21.000Z</Time>
            <Position>
              <LatitudeDegrees>43.325172364711761474609375</LatitudeDegrees>
              <LongitudeDegrees>-1.9185903109610080718994140625</LongitudeDegrees>
            </Position>
            <AltitudeMeters>12.19999980926513671875</AltitudeMeters>
            <DistanceMeters>NAN</DistanceMeters>
          </Trackpoint>
          <Trackpoint>
            <Time>2021-08-11T15:44:59.000Z</Time>
            <Position>
              <LatitudeDegrees>43.325172364711761474609375</LatitudeDegrees>
              <LongitudeDegrees>-1.9185903109610080718994140625</LongitudeDegrees>
            </Position>
            <AltitudeMeters>12.19999980926513671875</AltitudeMeters>
            <DistanceMeters>NAN</DistanceMeters>
          </Trackpoint>
          <Trackpoint>
            <Time>2021-08-11T15:45:43.000Z</Time>
            <Position>
              <LatitudeDegrees>43.325172364711761474609375</LatitudeDegrees>
              <LongitudeDegrees>-1.9185903109610080718994140625</LongitudeDegrees>
            </Position>
            <AltitudeMeters>12.3999996185302734375</AltitudeMeters>
            <DistanceMeters>NAN</DistanceMeters>
          </Trackpoint>
          <Trackpoint>
            <Time>2021-08-11T15:46:36.000Z</Time>
            <Position>
              <LatitudeDegrees>43.325172364711761474609375</LatitudeDegrees>
              <LongitudeDegrees>-1.9185903109610080718994140625</LongitudeDegrees>
            </Position>
            <AltitudeMeters>12.19999980926513671875</AltitudeMeters>
            <DistanceMeters>NAN</DistanceMeters>
          </Trackpoint>
          <Trackpoint>
            <Time>2021-08-11T15:47:39.000Z</Time>
            <Position>
              <LatitudeDegrees>43.325172364711761474609375</LatitudeDegrees>
              <LongitudeDegrees>-1.9185903109610080718994140625</LongitudeDegrees>
            </Position>
            <AltitudeMeters>12.19999980926513671875</AltitudeMeters>
            <DistanceMeters>NAN</DistanceMeters>
          </Trackpoint>
          <Trackpoint>
            <Time>2021-08-11T15:48:03.000Z</Time>
            <Position>
              <LatitudeDegrees>43.32517311908304691314697265625</LatitudeDegrees>
              <LongitudeDegrees>-1.91858938895165920257568359375</LongitudeDegrees>
            </Position>
            <AltitudeMeters>12.19999980926513671875</AltitudeMeters>
            <DistanceMeters>NAN</DistanceMeters>
          </Trackpoint>
          <Trackpoint>
            <Time>2021-08-11T15:48:04.000Z</Time>
            <Position>
              <LatitudeDegrees>43.3251752145588397979736328125</LatitudeDegrees>
              <LongitudeDegrees>-1.91858855076134204864501953125</LongitudeDegrees>
            </Position>
            <AltitudeMeters>12.19999980926513671875</AltitudeMeters>
            <DistanceMeters>NAN</DistanceMeters>
          </Trackpoint>
          <Trackpoint>
            <Time>2021-08-11T15:48:07.000Z</Time>
            <Position>
              <LatitudeDegrees>43.32518133334815502166748046875</LatitudeDegrees>
              <LongitudeDegrees>-1.91858218051493167877197265625</LongitudeDegrees>
            </Position>
            <AltitudeMeters>12.3999996185302734375</AltitudeMeters>
            <DistanceMeters>NAN</DistanceMeters>
          </Trackpoint>
          <Trackpoint>
            <Time>2021-08-11T15:48:13.000Z</Time>
            <Position>
              <LatitudeDegrees>43.32518351264297962188720703125</LatitudeDegrees>
              <LongitudeDegrees>-1.918583102524280548095703125</LongitudeDegrees>
            </Position>
            <AltitudeMeters>12.6000003814697265625</AltitudeMeters>
            <DistanceMeters>NAN</DistanceMeters>
          </Trackpoint>
          <Trackpoint>
            <Time>2021-08-11T15:48:17.000Z</Time>
            <Position>
              <LatitudeDegrees>43.32519985735416412353515625</LatitudeDegrees>
              <LongitudeDegrees>-1.91862476058304309844970703125</LongitudeDegrees>
            </Position>
            <AltitudeMeters>12.6000003814697265625</AltitudeMeters>
            <DistanceMeters>NAN</DistanceMeters>
          </Trackpoint>
          <Trackpoint>
            <Time>2021-08-11T15:48:18.000Z</Time>
            <Position>
              <LatitudeDegrees>43.32521067000925540924072265625</LatitudeDegrees>
              <LongitudeDegrees>-1.91865778528153896331787109375</LongitudeDegrees>
            </Position>
            <AltitudeMeters>12.6000003814697265625</AltitudeMeters>
            <DistanceMeters>NAN</DistanceMeters>
          </Trackpoint>
          <Trackpoint>
            <Time>2021-08-11T15:48:19.000Z</Time>
            <Position>
              <LatitudeDegrees>43.325218297541141510009765625</LatitudeDegrees>
              <LongitudeDegrees>-1.91867371089756488800048828125</LongitudeDegrees>
            </Position>
            <AltitudeMeters>12.6000003814697265625</AltitudeMeters>
            <DistanceMeters>NAN</DistanceMeters>
          </Trackpoint>
          <Trackpoint>
            <Time>2021-08-11T15:48:20.000Z</Time>
            <Position>
              <LatitudeDegrees>43.32523606717586517333984375</LatitudeDegrees>
              <LongitudeDegrees>-1.91870941780507564544677734375</LongitudeDegrees>
            </Position>
            <AltitudeMeters>12.6000003814697265625</AltitudeMeters>
            <DistanceMeters>NAN</DistanceMeters>
          </Trackpoint>
          <Trackpoint>
            <Time>2021-08-11T15:48:21.000Z</Time>
            <Position>
              <LatitudeDegrees>43.32525744102895259857177734375</LatitudeDegrees>
              <LongitudeDegrees>-1.91873389296233654022216796875</LongitudeDegrees>
            </Position>
            <AltitudeMeters>12.3999996185302734375</AltitudeMeters>
            <DistanceMeters>NAN</DistanceMeters>
          </Trackpoint>
          <Trackpoint>
            <Time>2021-08-11T15:48:22.000Z</Time>
            <Position>
              <LatitudeDegrees>43.32527906633913516998291015625</LatitudeDegrees>
              <LongitudeDegrees>-1.918763481080532073974609375</LongitudeDegrees>
            </Position>
            <AltitudeMeters>12.3999996185302734375</AltitudeMeters>
            <DistanceMeters>NAN</DistanceMeters>
          </Trackpoint>
          <Trackpoint>
            <Time>2021-08-11T15:48:24.000Z</Time>
            <Position>
              <LatitudeDegrees>43.32530370913445949554443359375</LatitudeDegrees>
              <LongitudeDegrees>-1.9188268482685089111328125</LongitudeDegrees>
            </Position>
            <AltitudeMeters>12.6000003814697265625</AltitudeMeters>
            <DistanceMeters>NAN</DistanceMeters>
          </Trackpoint>
          <Trackpoint>
            <Time>2021-08-11T15:48:25.000Z</Time>
            <Position>
              <LatitudeDegrees>43.3253069780766963958740234375</LatitudeDegrees>
              <LongitudeDegrees>-1.9188424386084079742431640625</LongitudeDegrees>
            </Position>
            <AltitudeMeters>12.6000003814697265625</AltitudeMeters>
            <DistanceMeters>NAN</DistanceMeters>
          </Trackpoint>
          <Trackpoint>
            <Time>2021-08-11T15:48:26.000Z</Time>
            <Position>
              <LatitudeDegrees>43.3253063075244426727294921875</LatitudeDegrees>
              <LongitudeDegrees>-1.91887940280139446258544921875</LongitudeDegrees>
            </Position>
            <AltitudeMeters>12.6000003814697265625</AltitudeMeters>
            <DistanceMeters>NAN</DistanceMeters>
          </Trackpoint>
          <Trackpoint>
            <Time>2021-08-11T15:48:27.000Z</Time>
            <Position>
              <LatitudeDegrees>43.32530002109706401824951171875</LatitudeDegrees>
              <LongitudeDegrees>-1.9189041294157505035400390625</LongitudeDegrees>
            </Position>
            <AltitudeMeters>12.6000003814697265625</AltitudeMeters>
            <DistanceMeters>NAN</DistanceMeters>
          </Trackpoint>
          <Trackpoint>
            <Time>2021-08-11T15:48:29.000Z</Time>
            <Position>
              <LatitudeDegrees>43.3253177069127559661865234375</LatitudeDegrees>
              <LongitudeDegrees>-1.9189175404608249664306640625</LongitudeDegrees>
            </Position>
            <AltitudeMeters>12.6000003814697265625</AltitudeMeters>
            <DistanceMeters>NAN</DistanceMeters>
          </Trackpoint>
          <Trackpoint>
            <Time>2021-08-11T15:48:30.000Z</Time>
            <Position>
              <LatitudeDegrees>43.32532994449138641357421875</LatitudeDegrees>
              <LongitudeDegrees>-1.91892650909721851348876953125</LongitudeDegrees>
            </Position>
            <AltitudeMeters>12.6000003814697265625</AltitudeMeters>
            <DistanceMeters>NAN</DistanceMeters>
          </Trackpoint>
          <Trackpoint>
            <Time>2021-08-11T15:48:31.000Z</Time>
            <Position>
              <LatitudeDegrees>43.3253327943384647369384765625</LatitudeDegrees>
              <LongitudeDegrees>-1.918927766382694244384765625</LongitudeDegrees>
            </Position>
            <AltitudeMeters>12.6000003814697265625</AltitudeMeters>
            <DistanceMeters>NAN</DistanceMeters>
          </Trackpoint>
          <Trackpoint>
            <Time>2021-08-11T15:48:34.000Z</Time>
            <Position>
              <LatitudeDegrees>43.32536925561726093292236328125</LatitudeDegrees>
              <LongitudeDegrees>-1.91897797398269176483154296875</LongitudeDegrees>
            </Position>
            <AltitudeMeters>12.6000003814697265625</AltitudeMeters>
            <DistanceMeters>NAN</DistanceMeters>
          </Trackpoint>
          <Trackpoint>
            <Time>2021-08-11T15:48:37.000Z</Time>
            <Position>
              <LatitudeDegrees>43.32540613599121570587158203125</LatitudeDegrees>
              <LongitudeDegrees>-1.9190154410898685455322265625</LongitudeDegrees>
            </Position>
            <AltitudeMeters>12.6000003814697265625</AltitudeMeters>
            <DistanceMeters>NAN</DistanceMeters>
          </Trackpoint>
          <Trackpoint>
            <Time>2021-08-11T15:48:38.000Z</Time>
            <Position>
              <LatitudeDegrees>43.32541854120790958404541015625</LatitudeDegrees>
              <LongitudeDegrees>-1.91901518963277339935302734375</LongitudeDegrees>
            </Position>
            <AltitudeMeters>12.6000003814697265625</AltitudeMeters>
            <DistanceMeters>NAN</DistanceMeters>
          </Trackpoint>
          <Trackpoint>
            <Time>2021-08-11T15:48:39.000Z</Time>
            <Position>
              <LatitudeDegrees>43.32542273215949535369873046875</LatitudeDegrees>
              <LongitudeDegrees>-1.91901552490890026092529296875</LongitudeDegrees>
            </Position>
            <AltitudeMeters>12.6000003814697265625</AltitudeMeters>
            <DistanceMeters>NAN</DistanceMeters>
          </Trackpoint>
          <Trackpoint>
            <Time>2021-08-11T15:48:40.000Z</Time>
            <Position>
              <LatitudeDegrees>43.3254511468112468719482421875</LatitudeDegrees>
              <LongitudeDegrees>-1.91904385574162006378173828125</LongitudeDegrees>
            </Position>
            <AltitudeMeters>12.6000003814697265625</AltitudeMeters>
            <DistanceMeters>NAN</DistanceMeters>
          </Trackpoint>
          <Trackpoint>
            <Time>2021-08-11T15:48:41.000Z</Time>
            <Position>
              <LatitudeDegrees>43.32546464167535305023193359375</LatitudeDegrees>
              <LongitudeDegrees>-1.9190561771392822265625</LongitudeDegrees>
            </Position>
            <AltitudeMeters>12.80000019073486328125</AltitudeMeters>
            <DistanceMeters>NAN</DistanceMeters>
          </Trackpoint>
          <Trackpoint>
            <Time>2021-08-11T15:48:42.000Z</Time>
            <Position>
              <LatitudeDegrees>43.3254752866923809051513671875</LatitudeDegrees>
              <LongitudeDegrees>-1.91906900145113468170166015625</LongitudeDegrees>
            </Position>
            <AltitudeMeters>12.80000019073486328125</AltitudeMeters>
            <DistanceMeters>NAN</DistanceMeters>
          </Trackpoint>
          <Trackpoint>
            <Time>2021-08-11T15:48:43.000Z</Time>
            <Position>
              <LatitudeDegrees>43.32548551261425018310546875</LatitudeDegrees>
              <LongitudeDegrees>-1.9190955720841884613037109375</LongitudeDegrees>
            </Position>
            <AltitudeMeters>12.80000019073486328125</AltitudeMeters>
            <DistanceMeters>NAN</DistanceMeters>
          </Trackpoint>
          <Trackpoint>
            <Time>2021-08-11T15:48:44.000Z</Time>
            <Position>
              <LatitudeDegrees>43.32549758255481719970703125</LatitudeDegrees>
              <LongitudeDegrees>-1.9191143475472927093505859375</LongitudeDegrees>
            </Position>
            <AltitudeMeters>12.80000019073486328125</AltitudeMeters>
            <DistanceMeters>NAN</DistanceMeters>
          </Trackpoint>
          <Trackpoint>
            <Time>2021-08-11T15:48:45.000Z</Time>
            <Position>
              <LatitudeDegrees>43.32550789229571819305419921875</LatitudeDegrees>
              <LongitudeDegrees>-1.91911811940371990203857421875</LongitudeDegrees>
            </Position>
            <AltitudeMeters>12.80000019073486328125</AltitudeMeters>
            <DistanceMeters>NAN</DistanceMeters>
          </Trackpoint>
          <Trackpoint>
            <Time>2021-08-11T15:48:46.000Z</Time>
            <Position>
              <LatitudeDegrees>43.3255131728947162628173828125</LatitudeDegrees>
              <LongitudeDegrees>-1.91913672722876071929931640625</LongitudeDegrees>
            </Position>
            <AltitudeMeters>13</AltitudeMeters>
            <DistanceMeters>NAN</DistanceMeters>
          </Trackpoint>
          <Trackpoint>
            <Time>2021-08-11T15:48:49.000Z</Time>
            <Position>
              <LatitudeDegrees>43.32552884705364704132080078125</LatitudeDegrees>
              <LongitudeDegrees>-1.919166482985019683837890625</LongitudeDegrees>
            </Position>
            <AltitudeMeters>13</AltitudeMeters>
            <DistanceMeters>NAN</DistanceMeters>
          </Trackpoint>
          <Trackpoint>
            <Time>2021-08-11T15:48:50.000Z</Time>
            <Position>
              <LatitudeDegrees>43.32553219981491565704345703125</LatitudeDegrees>
              <LongitudeDegrees>-1.9191710092127323150634765625</LongitudeDegrees>
            </Position>
            <AltitudeMeters>13</AltitudeMeters>
            <DistanceMeters>NAN</DistanceMeters>
          </Trackpoint>
          <Trackpoint>
            <Time>2021-08-11T15:48:51.000Z</Time>
            <Position>
              <LatitudeDegrees>43.32553471438586711883544921875</LatitudeDegrees>
              <LongitudeDegrees>-1.91917486488819122314453125</LongitudeDegrees>
            </Position>
            <AltitudeMeters>13</AltitudeMeters>
            <DistanceMeters>NAN</DistanceMeters>
          </Trackpoint>
          <Trackpoint>
            <Time>2021-08-11T15:48:55.000Z</Time>
            <Position>
              <LatitudeDegrees>43.325526416301727294921875</LatitudeDegrees>
              <LongitudeDegrees>-1.91918483935296535491943359375</LongitudeDegrees>
            </Position>
            <AltitudeMeters>13</AltitudeMeters>
            <DistanceMeters>NAN</DistanceMeters>
          </Trackpoint>
          <Trackpoint>
            <Time>2021-08-11T15:48:58.000Z</Time>
            <Position>
              <LatitudeDegrees>43.3255017735064029693603515625</LatitudeDegrees>
              <LongitudeDegrees>-1.91920612938702106475830078125</LongitudeDegrees>
            </Position>
            <AltitudeMeters>13</AltitudeMeters>
            <DistanceMeters>NAN</DistanceMeters>
          </Trackpoint>
          <Trackpoint>
            <Time>2021-08-11T15:48:59.000Z</Time>
            <Position>
              <LatitudeDegrees>43.3255017735064029693603515625</LatitudeDegrees>
              <LongitudeDegrees>-1.91920612938702106475830078125</LongitudeDegrees>
            </Position>
            <AltitudeMeters>13</AltitudeMeters>
            <DistanceMeters>NAN</DistanceMeters>
          </Trackpoint>
          <Trackpoint>
            <Time>2021-08-11T15:49:00.000Z</Time>
            <Position>
              <LatitudeDegrees>43.3255014382302761077880859375</LatitudeDegrees>
              <LongitudeDegrees>-1.91920629702508449554443359375</LongitudeDegrees>
            </Position>
            <AltitudeMeters>12.80000019073486328125</AltitudeMeters>
            <DistanceMeters>NAN</DistanceMeters>
          </Trackpoint>
          <Trackpoint>
            <Time>2021-08-11T15:49:01.000Z</Time>
            <Position>
              <LatitudeDegrees>43.325498588383197784423828125</LatitudeDegrees>
              <LongitudeDegrees>-1.9192058779299259185791015625</LongitudeDegrees>
            </Position>
            <AltitudeMeters>12.80000019073486328125</AltitudeMeters>
            <DistanceMeters>NAN</DistanceMeters>
          </Trackpoint>
          <Trackpoint>
            <Time>2021-08-11T15:49:03.000Z</Time>
            <Position>
              <LatitudeDegrees>43.32551711238920688629150390625</LatitudeDegrees>
              <LongitudeDegrees>-1.91922758705914020538330078125</LongitudeDegrees>
            </Position>
            <AltitudeMeters>12.80000019073486328125</AltitudeMeters>
            <DistanceMeters>NAN</DistanceMeters>
          </Trackpoint>
          <Trackpoint>
            <Time>2021-08-11T15:49:06.000Z</Time>
            <Position>
              <LatitudeDegrees>43.32554074935615062713623046875</LatitudeDegrees>
              <LongitudeDegrees>-1.91929765976965427398681640625</LongitudeDegrees>
            </Position>
            <AltitudeMeters>12.6000003814697265625</AltitudeMeters>
            <DistanceMeters>NAN</DistanceMeters>
          </Trackpoint>
          <Trackpoint>
            <Time>2021-08-11T15:49:07.000Z</Time>
            <Position>
              <LatitudeDegrees>43.3255456946790218353271484375</LatitudeDegrees>
              <LongitudeDegrees>-1.919316351413726806640625</LongitudeDegrees>
            </Position>
            <AltitudeMeters>12.6000003814697265625</AltitudeMeters>
            <DistanceMeters>NAN</DistanceMeters>
          </Trackpoint>
          <Trackpoint>
            <Time>2021-08-11T15:49:08.000Z</Time>
            <Position>
              <LatitudeDegrees>43.32554586231708526611328125</LatitudeDegrees>
              <LongitudeDegrees>-1.919337809085845947265625</LongitudeDegrees>
            </Position>
            <AltitudeMeters>12.6000003814697265625</AltitudeMeters>
            <DistanceMeters>NAN</DistanceMeters>
          </Trackpoint>
          <Trackpoint>
            <Time>2021-08-11T15:49:09.000Z</Time>
            <Position>
              <LatitudeDegrees>43.3255411684513092041015625</LatitudeDegrees>
              <LongitudeDegrees>-1.91936907358467578887939453125</LongitudeDegrees>
            </Position>
            <AltitudeMeters>12.6000003814697265625</AltitudeMeters>
            <DistanceMeters>NAN</DistanceMeters>
          </Trackpoint>
          <Trackpoint>
            <Time>2021-08-11T15:49:10.000Z</Time>
            <Position>
              <LatitudeDegrees>43.32553572021424770355224609375</LatitudeDegrees>
              <LongitudeDegrees>-1.91940729506313800811767578125</LongitudeDegrees>
            </Position>
            <AltitudeMeters>12.6000003814697265625</AltitudeMeters>
            <DistanceMeters>NAN</DistanceMeters>
          </Trackpoint>
          <Trackpoint>
            <Time>2021-08-11T15:49:11.000Z</Time>
            <Position>
              <LatitudeDegrees>43.325531780719757080078125</LatitudeDegrees>
              <LongitudeDegrees>-1.91941970027983188629150390625</LongitudeDegrees>
            </Position>
            <AltitudeMeters>12.6000003814697265625</AltitudeMeters>
            <DistanceMeters>NAN</DistanceMeters>
          </Trackpoint>
          <Trackpoint>
            <Time>2021-08-11T15:49:12.000Z</Time>
            <Position>
              <LatitudeDegrees>43.325537480413913726806640625</LatitudeDegrees>
              <LongitudeDegrees>-1.91942875273525714874267578125</LongitudeDegrees>
            </Position>
            <AltitudeMeters>12.6000003814697265625</AltitudeMeters>
            <DistanceMeters>NAN</DistanceMeters>
          </Trackpoint>
          <Trackpoint>
            <Time>2021-08-11T15:49:13.000Z</Time>
            <Position>
              <LatitudeDegrees>43.3255463652312755584716796875</LatitudeDegrees>
              <LongitudeDegrees>-1.919450461864471435546875</LongitudeDegrees>
            </Position>
            <AltitudeMeters>12.6000003814697265625</AltitudeMeters>
            <DistanceMeters>NAN</DistanceMeters>
          </Trackpoint>
          <Trackpoint>
            <Time>2021-08-11T15:49:14.000Z</Time>
            <Position>
              <LatitudeDegrees>43.3255617879331111907958984375</LatitudeDegrees>
              <LongitudeDegrees>-1.91945641301572322845458984375</LongitudeDegrees>
            </Position>
            <AltitudeMeters>12.80000019073486328125</AltitudeMeters>
            <DistanceMeters>NAN</DistanceMeters>
          </Trackpoint>
          <Trackpoint>
            <Time>2021-08-11T15:49:15.000Z</Time>
            <Position>
              <LatitudeDegrees>43.3255795575678348541259765625</LatitudeDegrees>
              <LongitudeDegrees>-1.919435374438762664794921875</LongitudeDegrees>
            </Position>
            <AltitudeMeters>12.80000019073486328125</AltitudeMeters>
            <DistanceMeters>NAN</DistanceMeters>
          </Trackpoint>
          <Trackpoint>
            <Time>2021-08-11T15:49:16.000Z</Time>
            <Position>
              <LatitudeDegrees>43.32558265887200832366943359375</LatitudeDegrees>
              <LongitudeDegrees>-1.9194107316434383392333984375</LongitudeDegrees>
            </Position>
            <AltitudeMeters>12.80000019073486328125</AltitudeMeters>
            <DistanceMeters>NAN</DistanceMeters>
          </Trackpoint>
          <Trackpoint>
            <Time>2021-08-11T15:49:18.000Z</Time>
            <Position>
              <LatitudeDegrees>43.32558433525264263153076171875</LatitudeDegrees>
              <LongitudeDegrees>-1.9193994998931884765625</LongitudeDegrees>
            </Position>
            <AltitudeMeters>13</AltitudeMeters>
            <DistanceMeters>NAN</DistanceMeters>
          </Trackpoint>
          <Trackpoint>
            <Time>2021-08-11T15:49:19.000Z</Time>
            <Position>
              <LatitudeDegrees>43.32558433525264263153076171875</LatitudeDegrees>
              <LongitudeDegrees>-1.9193994998931884765625</LongitudeDegrees>
            </Position>
            <AltitudeMeters>13</AltitudeMeters>
            <DistanceMeters>NAN</DistanceMeters>
          </Trackpoint>
          <Trackpoint>
            <Time>2021-08-11T15:49:20.000Z</Time>
            <Position>
              <LatitudeDegrees>43.32562029361724853515625</LatitudeDegrees>
              <LongitudeDegrees>-1.91943529061973094940185546875</LongitudeDegrees>
            </Position>
            <AltitudeMeters>13</AltitudeMeters>
            <DistanceMeters>NAN</DistanceMeters>
          </Trackpoint>
          <Trackpoint>
            <Time>2021-08-11T15:49:21.000Z</Time>
            <Position>
              <LatitudeDegrees>43.3256496302783489227294921875</LatitudeDegrees>
              <LongitudeDegrees>-1.91947753541171550750732421875</LongitudeDegrees>
            </Position>
            <AltitudeMeters>13</AltitudeMeters>
            <DistanceMeters>NAN</DistanceMeters>
          </Trackpoint>
          <Trackpoint>
            <Time>2021-08-11T15:49:22.000Z</Time>
            <Position>
              <LatitudeDegrees>43.325649797916412353515625</LatitudeDegrees>
              <LongitudeDegrees>-1.919505782425403594970703125</LongitudeDegrees>
            </Position>
            <AltitudeMeters>13</AltitudeMeters>
            <DistanceMeters>NAN</DistanceMeters>
          </Trackpoint>
          <Trackpoint>
            <Time>2021-08-11T15:49:24.000Z</Time>
            <Position>
              <LatitudeDegrees>43.3256449364125728607177734375</LatitudeDegrees>
              <LongitudeDegrees>-1.919527910649776458740234375</LongitudeDegrees>
            </Position>
            <AltitudeMeters>12.80000019073486328125</AltitudeMeters>
            <DistanceMeters>NAN</DistanceMeters>
          </Trackpoint>
          <Trackpoint>
            <Time>2021-08-11T15:49:25.000Z</Time>
            <Position>
              <LatitudeDegrees>43.325649462640285491943359375</LatitudeDegrees>
              <LongitudeDegrees>-1.91954811103641986846923828125</LongitudeDegrees>
            </Position>
            <AltitudeMeters>12.80000019073486328125</AltitudeMeters>
            <DistanceMeters>NAN</DistanceMeters>
          </Trackpoint>
          <Trackpoint>
            <Time>2021-08-11T15:49:26.000Z</Time>
            <Position>
              <LatitudeDegrees>43.32564569078385829925537109375</LatitudeDegrees>
              <LongitudeDegrees>-1.91956646740436553955078125</LongitudeDegrees>
            </Position>
            <AltitudeMeters>12.80000019073486328125</AltitudeMeters>
            <DistanceMeters>NAN</DistanceMeters>
          </Trackpoint>
          <Trackpoint>
            <Time>2021-08-11T15:49:27.000Z</Time>
            <Position>
              <LatitudeDegrees>43.32563571631908416748046875</LatitudeDegrees>
              <LongitudeDegrees>-1.91957795061171054840087890625</LongitudeDegrees>
            </Position>
            <AltitudeMeters>12.80000019073486328125</AltitudeMeters>
            <DistanceMeters>NAN</DistanceMeters>
          </Trackpoint>
          <Trackpoint>
            <Time>2021-08-11T15:49:28.000Z</Time>
            <Position>
              <LatitudeDegrees>43.32564099691808223724365234375</LatitudeDegrees>
              <LongitudeDegrees>-1.91960527561604976654052734375</LongitudeDegrees>
            </Position>
            <AltitudeMeters>12.6000003814697265625</AltitudeMeters>
            <DistanceMeters>NAN</DistanceMeters>
          </Trackpoint>
          <Trackpoint>
            <Time>2021-08-11T15:49:31.000Z</Time>
            <Position>
              <LatitudeDegrees>43.325643427670001983642578125</LatitudeDegrees>
              <LongitudeDegrees>-1.91965498030185699462890625</LongitudeDegrees>
            </Position>
            <AltitudeMeters>12.6000003814697265625</AltitudeMeters>
            <DistanceMeters>NAN</DistanceMeters>
          </Trackpoint>
          <Trackpoint>
            <Time>2021-08-11T15:49:32.000Z</Time>
            <Position>
              <LatitudeDegrees>43.3256382308900356292724609375</LatitudeDegrees>
              <LongitudeDegrees>-1.919662021100521087646484375</LongitudeDegrees>
            </Position>
            <AltitudeMeters>12.6000003814697265625</AltitudeMeters>
            <DistanceMeters>NAN</DistanceMeters>
          </Trackpoint>
          <Trackpoint>
            <Time>2021-08-11T15:49:33.000Z</Time>
            <Position>
              <LatitudeDegrees>43.325639069080352783203125</LatitudeDegrees>
              <LongitudeDegrees>-1.91966663114726543426513671875</LongitudeDegrees>
            </Position>
            <AltitudeMeters>12.6000003814697265625</AltitudeMeters>
            <DistanceMeters>NAN</DistanceMeters>
          </Trackpoint>
          <Trackpoint>
            <Time>2021-08-11T15:49:40.000Z</Time>
            <Position>
              <LatitudeDegrees>43.32564242184162139892578125</LatitudeDegrees>
              <LongitudeDegrees>-1.91966260783374309539794921875</LongitudeDegrees>
            </Position>
            <AltitudeMeters>12.3999996185302734375</AltitudeMeters>
            <DistanceMeters>NAN</DistanceMeters>
          </Trackpoint>
          <Trackpoint>
            <Time>2021-08-11T15:49:49.000Z</Time>
            <Position>
              <LatitudeDegrees>43.3256429247558116912841796875</LatitudeDegrees>
              <LongitudeDegrees>-1.919668056070804595947265625</LongitudeDegrees>
            </Position>
            <AltitudeMeters>12.80000019073486328125</AltitudeMeters>
            <DistanceMeters>NAN</DistanceMeters>
          </Trackpoint>
          <Trackpoint>
            <Time>2021-08-11T15:49:50.000Z</Time>
            <Position>
              <LatitudeDegrees>43.3256452716886997222900390625</LatitudeDegrees>
              <LongitudeDegrees>-1.91966847516596317291259765625</LongitudeDegrees>
            </Position>
            <AltitudeMeters>12.80000019073486328125</AltitudeMeters>
            <DistanceMeters>NAN</DistanceMeters>
          </Trackpoint>
          <Trackpoint>
            <Time>2021-08-11T15:49:51.000Z</Time>
            <Position>
              <LatitudeDegrees>43.32565876655280590057373046875</LatitudeDegrees>
              <LongitudeDegrees>-1.91967501305043697357177734375</LongitudeDegrees>
            </Position>
            <AltitudeMeters>12.80000019073486328125</AltitudeMeters>
            <DistanceMeters>NAN</DistanceMeters>
          </Trackpoint>
          <Trackpoint>
            <Time>2021-08-11T15:49:53.000Z</Time>
            <Position>
              <LatitudeDegrees>43.32566530443727970123291015625</LatitudeDegrees>
              <LongitudeDegrees>-1.9196796230971813201904296875</LongitudeDegrees>
            </Position>
            <AltitudeMeters>13</AltitudeMeters>
            <DistanceMeters>NAN</DistanceMeters>
          </Trackpoint>
          <Trackpoint>
            <Time>2021-08-11T15:49:57.000Z</Time>
            <Position>
              <LatitudeDegrees>43.32566530443727970123291015625</LatitudeDegrees>
              <LongitudeDegrees>-1.9196796230971813201904296875</LongitudeDegrees>
            </Position>
            <AltitudeMeters>13.19999980926513671875</AltitudeMeters>
            <DistanceMeters>NAN</DistanceMeters>
          </Trackpoint>
          <Trackpoint>
            <Time>2021-08-11T15:50:23.000Z</Time>
            <Position>
              <LatitudeDegrees>43.3260013349354267120361328125</LatitudeDegrees>
              <LongitudeDegrees>-1.92010148428380489349365234375</LongitudeDegrees>
            </Position>
            <AltitudeMeters>13</AltitudeMeters>
            <DistanceMeters>NAN</DistanceMeters>
          </Trackpoint>
          <Trackpoint>
            <Time>2021-08-11T15:50:25.000Z</Time>
            <Position>
              <LatitudeDegrees>43.3260455913841724395751953125</LatitudeDegrees>
              <LongitudeDegrees>-1.9202123768627643585205078125</LongitudeDegrees>
            </Position>
            <AltitudeMeters>13</AltitudeMeters>
            <DistanceMeters>NAN</DistanceMeters>
          </Trackpoint>
          <Trackpoint>
            <Time>2021-08-11T15:50:27.000Z</Time>
            <Position>
              <LatitudeDegrees>43.3260266482830047607421875</LatitudeDegrees>
              <LongitudeDegrees>-1.9202578067779541015625</LongitudeDegrees>
            </Position>
            <AltitudeMeters>13</AltitudeMeters>
            <DistanceMeters>NAN</DistanceMeters>
          </Trackpoint>
          <Trackpoint>
            <Time>2021-08-11T15:50:28.000Z</Time>
            <Position>
              <LatitudeDegrees>43.3260482735931873321533203125</LatitudeDegrees>
              <LongitudeDegrees>-1.92023727111518383026123046875</LongitudeDegrees>
            </Position>
            <AltitudeMeters>13</AltitudeMeters>
            <DistanceMeters>NAN</DistanceMeters>
          </Trackpoint>
          <Trackpoint>
            <Time>2021-08-11T15:50:29.000Z</Time>
            <Position>
              <LatitudeDegrees>43.32603293471038341522216796875</LatitudeDegrees>
              <LongitudeDegrees>-1.92030231468379497528076171875</LongitudeDegrees>
            </Position>
            <AltitudeMeters>13</AltitudeMeters>
            <DistanceMeters>NAN</DistanceMeters>
          </Trackpoint>
          <Trackpoint>
            <Time>2021-08-11T15:50:30.000Z</Time>
            <Position>
              <LatitudeDegrees>43.32605816423892974853515625</LatitudeDegrees>
              <LongitudeDegrees>-1.9202767498791217803955078125</LongitudeDegrees>
            </Position>
            <AltitudeMeters>13</AltitudeMeters>
            <DistanceMeters>NAN</DistanceMeters>
          </Trackpoint>
          <Trackpoint>
            <Time>2021-08-11T15:50:31.000Z</Time>
            <Position>
              <LatitudeDegrees>43.32605992443859577178955078125</LatitudeDegrees>
              <LongitudeDegrees>-1.9202779233455657958984375</LongitudeDegrees>
            </Position>
            <AltitudeMeters>13</AltitudeMeters>
            <DistanceMeters>NAN</DistanceMeters>
          </Trackpoint>
          <Trackpoint>
            <Time>2021-08-11T15:50:32.000Z</Time>
            <Position>
              <LatitudeDegrees>43.32606595940887928009033203125</LatitudeDegrees>
              <LongitudeDegrees>-1.92015462554991245269775390625</LongitudeDegrees>
            </Position>
            <AltitudeMeters>13</AltitudeMeters>
            <DistanceMeters>NAN</DistanceMeters>
          </Trackpoint>
          <Trackpoint>
            <Time>2021-08-11T15:50:33.000Z</Time>
            <Position>
              <LatitudeDegrees>43.32607903517782688140869140625</LatitudeDegrees>
              <LongitudeDegrees>-1.9201543740928173065185546875</LongitudeDegrees>
            </Position>
            <AltitudeMeters>13</AltitudeMeters>
            <DistanceMeters>NAN</DistanceMeters>
          </Trackpoint>
          <Trackpoint>
            <Time>2021-08-11T15:50:34.000Z</Time>
            <Position>
              <LatitudeDegrees>43.326089680194854736328125</LatitudeDegrees>
              <LongitudeDegrees>-1.920181028544902801513671875</LongitudeDegrees>
            </Position>
            <AltitudeMeters>12.80000019073486328125</AltitudeMeters>
            <DistanceMeters>NAN</DistanceMeters>
          </Trackpoint>
          <Trackpoint>
            <Time>2021-08-11T15:50:37.000Z</Time>
            <Position>
              <LatitudeDegrees>43.32611625082790851593017578125</LatitudeDegrees>
              <LongitudeDegrees>-1.92019435577094554901123046875</LongitudeDegrees>
            </Position>
            <AltitudeMeters>12.19999980926513671875</AltitudeMeters>
            <DistanceMeters>NAN</DistanceMeters>
          </Trackpoint>
          <Trackpoint>
            <Time>2021-08-11T15:50:40.000Z</Time>
            <Position>
              <LatitudeDegrees>43.326153717935085296630859375</LatitudeDegrees>
              <LongitudeDegrees>-1.92008706741034984588623046875</LongitudeDegrees>
            </Position>
            <AltitudeMeters>12.19999980926513671875</AltitudeMeters>
            <DistanceMeters>NAN</DistanceMeters>
          </Trackpoint>
          <Trackpoint>
            <Time>2021-08-11T15:50:41.000Z</Time>
            <Position>
              <LatitudeDegrees>43.32616402767598628997802734375</LatitudeDegrees>
              <LongitudeDegrees>-1.9200883246958255767822265625</LongitudeDegrees>
            </Position>
            <AltitudeMeters>12.19999980926513671875</AltitudeMeters>
            <DistanceMeters>NAN</DistanceMeters>
          </Trackpoint>
          <Trackpoint>
            <Time>2021-08-11T15:50:42.000Z</Time>
            <Position>
              <LatitudeDegrees>43.326174505054950714111328125</LatitudeDegrees>
              <LongitudeDegrees>-1.92009042017161846160888671875</LongitudeDegrees>
            </Position>
            <AltitudeMeters>12</AltitudeMeters>
            <DistanceMeters>NAN</DistanceMeters>
          </Trackpoint>
          <Trackpoint>
            <Time>2021-08-11T15:50:43.000Z</Time>
            <Position>
              <LatitudeDegrees>43.32618129439651966094970703125</LatitudeDegrees>
              <LongitudeDegrees>-1.92007734440267086029052734375</LongitudeDegrees>
            </Position>
            <AltitudeMeters>12</AltitudeMeters>
            <DistanceMeters>NAN</DistanceMeters>
          </Trackpoint>
          <Trackpoint>
            <Time>2021-08-11T15:50:44.000Z</Time>
            <Position>
              <LatitudeDegrees>43.32618959248065948486328125</LatitudeDegrees>
              <LongitudeDegrees>-1.92005689255893230438232421875</LongitudeDegrees>
            </Position>
            <AltitudeMeters>12</AltitudeMeters>
            <DistanceMeters>NAN</DistanceMeters>
          </Trackpoint>
          <Trackpoint>
            <Time>2021-08-11T15:50:45.000Z</Time>
            <Position>
              <LatitudeDegrees>43.32619168795645236968994140625</LatitudeDegrees>
              <LongitudeDegrees>-1.9200507737696170806884765625</LongitudeDegrees>
            </Position>
            <AltitudeMeters>12</AltitudeMeters>
            <DistanceMeters>NAN</DistanceMeters>
          </Trackpoint>
          <Trackpoint>
            <Time>2021-08-11T15:50:46.000Z</Time>
            <Position>
              <LatitudeDegrees>43.32619420252740383148193359375</LatitudeDegrees>
              <LongitudeDegrees>-1.92004197277128696441650390625</LongitudeDegrees>
            </Position>
            <AltitudeMeters>12</AltitudeMeters>
            <DistanceMeters>NAN</DistanceMeters>
          </Trackpoint>
          <Trackpoint>
            <Time>2021-08-11T15:50:47.000Z</Time>
            <Position>
              <LatitudeDegrees>43.32620426081120967864990234375</LatitudeDegrees>
              <LongitudeDegrees>-1.9200346805155277252197265625</LongitudeDegrees>
            </Position>
            <AltitudeMeters>12</AltitudeMeters>
            <DistanceMeters>NAN</DistanceMeters>
          </Trackpoint>
          <Trackpoint>
            <Time>2021-08-11T15:50:48.000Z</Time>
            <Position>
              <LatitudeDegrees>43.32620711065828800201416015625</LatitudeDegrees>
              <LongitudeDegrees>-1.92003141157329082489013671875</LongitudeDegrees>
            </Position>
            <AltitudeMeters>12</AltitudeMeters>
            <DistanceMeters>NAN</DistanceMeters>
          </Trackpoint>
          <Trackpoint>
            <Time>2021-08-11T15:50:49.000Z</Time>
            <Position>
              <LatitudeDegrees>43.32620711065828800201416015625</LatitudeDegrees>
              <LongitudeDegrees>-1.92003141157329082489013671875</LongitudeDegrees>
            </Position>
            <AltitudeMeters>12</AltitudeMeters>
            <DistanceMeters>NAN</DistanceMeters>
          </Trackpoint>
          <Trackpoint>
            <Time>2021-08-11T15:50:51.000Z</Time>
            <Position>
              <LatitudeDegrees>43.3262226171791553497314453125</LatitudeDegrees>
              <LongitudeDegrees>-1.92000626586377620697021484375</LongitudeDegrees>
            </Position>
            <AltitudeMeters>12</AltitudeMeters>
            <DistanceMeters>NAN</DistanceMeters>
          </Trackpoint>
          <Trackpoint>
            <Time>2021-08-11T15:50:52.000Z</Time>
            <Position>
              <LatitudeDegrees>43.3262331783771514892578125</LatitudeDegrees>
              <LongitudeDegrees>-1.9199887476861476898193359375</LongitudeDegrees>
            </Position>
            <AltitudeMeters>12</AltitudeMeters>
            <DistanceMeters>NAN</DistanceMeters>
          </Trackpoint>
          <Trackpoint>
            <Time>2021-08-11T15:50:54.000Z</Time>
            <Position>
              <LatitudeDegrees>43.326235525310039520263671875</LatitudeDegrees>
              <LongitudeDegrees>-1.91998598165810108184814453125</LongitudeDegrees>
            </Position>
            <AltitudeMeters>12</AltitudeMeters>
            <DistanceMeters>NAN</DistanceMeters>
          </Trackpoint>
          <Trackpoint>
            <Time>2021-08-11T15:50:59.000Z</Time>
            <Position>
              <LatitudeDegrees>43.326235525310039520263671875</LatitudeDegrees>
              <LongitudeDegrees>-1.91998598165810108184814453125</LongitudeDegrees>
            </Position>
            <AltitudeMeters>11.80000019073486328125</AltitudeMeters>
            <DistanceMeters>NAN</DistanceMeters>
          </Trackpoint>
          <Trackpoint>
            <Time>2021-08-11T15:51:27.000Z</Time>
            <Position>
              <LatitudeDegrees>43.3262370340526103973388671875</LatitudeDegrees>
              <LongitudeDegrees>-1.9199833832681179046630859375</LongitudeDegrees>
            </Position>
            <AltitudeMeters>11.80000019073486328125</AltitudeMeters>
            <DistanceMeters>NAN</DistanceMeters>
          </Trackpoint>
          <Trackpoint>
            <Time>2021-08-11T15:51:28.000Z</Time>
            <Position>
              <LatitudeDegrees>43.326244242489337921142578125</LatitudeDegrees>
              <LongitudeDegrees>-1.91996402107179164886474609375</LongitudeDegrees>
            </Position>
            <AltitudeMeters>11.80000019073486328125</AltitudeMeters>
            <DistanceMeters>NAN</DistanceMeters>
          </Trackpoint>
          <Trackpoint>
            <Time>2021-08-11T15:51:30.000Z</Time>
            <Position>
              <LatitudeDegrees>43.32626041956245899200439453125</LatitudeDegrees>
              <LongitudeDegrees>-1.91992596723139286041259765625</LongitudeDegrees>
            </Position>
            <AltitudeMeters>11.80000019073486328125</AltitudeMeters>
            <DistanceMeters>NAN</DistanceMeters>
          </Trackpoint>
          <Trackpoint>
            <Time>2021-08-11T15:51:31.000Z</Time>
            <Position>
              <LatitudeDegrees>43.326274417340755462646484375</LatitudeDegrees>
              <LongitudeDegrees>-1.91990534774959087371826171875</LongitudeDegrees>
            </Position>
            <AltitudeMeters>11.80000019073486328125</AltitudeMeters>
            <DistanceMeters>NAN</DistanceMeters>
          </Trackpoint>
          <Trackpoint>
            <Time>2021-08-11T15:51:32.000Z</Time>
            <Position>
              <LatitudeDegrees>43.32628506235778331756591796875</LatitudeDegrees>
              <LongitudeDegrees>-1.919894032180309295654296875</LongitudeDegrees>
            </Position>
            <AltitudeMeters>11.80000019073486328125</AltitudeMeters>
            <DistanceMeters>NAN</DistanceMeters>
          </Trackpoint>
          <Trackpoint>
            <Time>2021-08-11T15:51:33.000Z</Time>
            <Position>
              <LatitudeDegrees>43.32629126496613025665283203125</LatitudeDegrees>
              <LongitudeDegrees>-1.9198861531913280487060546875</LongitudeDegrees>
            </Position>
            <AltitudeMeters>12</AltitudeMeters>
            <DistanceMeters>NAN</DistanceMeters>
          </Trackpoint>
          <Trackpoint>
            <Time>2021-08-11T15:51:34.000Z</Time>
            <Position>
              <LatitudeDegrees>43.32629553973674774169921875</LatitudeDegrees>
              <LongitudeDegrees>-1.91988053731620311737060546875</LongitudeDegrees>
            </Position>
            <AltitudeMeters>12</AltitudeMeters>
            <DistanceMeters>NAN</DistanceMeters>
          </Trackpoint>
          <Trackpoint>
            <Time>2021-08-11T15:51:35.000Z</Time>
            <Position>
              <LatitudeDegrees>43.3262936957180500030517578125</LatitudeDegrees>
              <LongitudeDegrees>-1.91987534053623676300048828125</LongitudeDegrees>
            </Position>
            <AltitudeMeters>12</AltitudeMeters>
            <DistanceMeters>NAN</DistanceMeters>
          </Trackpoint>
          <Trackpoint>
            <Time>2021-08-11T15:51:37.000Z</Time>
            <Position>
              <LatitudeDegrees>43.32629696466028690338134765625</LatitudeDegrees>
              <LongitudeDegrees>-1.91989839076995849609375</LongitudeDegrees>
            </Position>
            <AltitudeMeters>12</AltitudeMeters>
            <DistanceMeters>NAN</DistanceMeters>
          </Trackpoint>
          <Trackpoint>
            <Time>2021-08-11T15:51:40.000Z</Time>
            <Position>
              <LatitudeDegrees>43.3263057656586170196533203125</LatitudeDegrees>
              <LongitudeDegrees>-1.9199029169976711273193359375</LongitudeDegrees>
            </Position>
            <AltitudeMeters>12</AltitudeMeters>
            <DistanceMeters>NAN</DistanceMeters>
          </Trackpoint>
          <Trackpoint>
            <Time>2021-08-11T15:51:42.000Z</Time>
            <Position>
              <LatitudeDegrees>43.3263520337641239166259765625</LatitudeDegrees>
              <LongitudeDegrees>-1.91992663778364658355712890625</LongitudeDegrees>
            </Position>
            <AltitudeMeters>12</AltitudeMeters>
            <DistanceMeters>NAN</DistanceMeters>
          </Trackpoint>
          <Trackpoint>
            <Time>2021-08-11T15:51:43.000Z</Time>
            <Position>
              <LatitudeDegrees>43.32635547034442424774169921875</LatitudeDegrees>
              <LongitudeDegrees>-1.91993401385843753814697265625</LongitudeDegrees>
            </Position>
            <AltitudeMeters>12</AltitudeMeters>
            <DistanceMeters>NAN</DistanceMeters>
          </Trackpoint>
          <Trackpoint>
            <Time>2021-08-11T15:51:44.000Z</Time>
            <Position>
              <LatitudeDegrees>43.32635547034442424774169921875</LatitudeDegrees>
              <LongitudeDegrees>-1.91993401385843753814697265625</LongitudeDegrees>
            </Position>
            <AltitudeMeters>11.80000019073486328125</AltitudeMeters>
            <DistanceMeters>NAN</DistanceMeters>
          </Trackpoint>
          <Trackpoint>
            <Time>2021-08-11T15:51:45.000Z</Time>
            <Position>
              <LatitudeDegrees>43.32635496743023395538330078125</LatitudeDegrees>
              <LongitudeDegrees>-1.919903419911861419677734375</LongitudeDegrees>
            </Position>
            <AltitudeMeters>11.80000019073486328125</AltitudeMeters>
            <DistanceMeters>NAN</DistanceMeters>
          </Trackpoint>
          <Trackpoint>
            <Time>2021-08-11T15:51:46.000Z</Time>
            <Position>
              <LatitudeDegrees>43.32636502571403980255126953125</LatitudeDegrees>
              <LongitudeDegrees>-1.91985346376895904541015625</LongitudeDegrees>
            </Position>
            <AltitudeMeters>11.80000019073486328125</AltitudeMeters>
            <DistanceMeters>NAN</DistanceMeters>
          </Trackpoint>
          <Trackpoint>
            <Time>2021-08-11T15:51:47.000Z</Time>
            <Position>
              <LatitudeDegrees>43.3263812027871608734130859375</LatitudeDegrees>
              <LongitudeDegrees>-1.91981465555727481842041015625</LongitudeDegrees>
            </Position>
            <AltitudeMeters>11.80000019073486328125</AltitudeMeters>
            <DistanceMeters>NAN</DistanceMeters>
          </Trackpoint>
          <Trackpoint>
            <Time>2021-08-11T15:51:48.000Z</Time>
            <Position>
              <LatitudeDegrees>43.32639855332672595977783203125</LatitudeDegrees>
              <LongitudeDegrees>-1.9197949580848217010498046875</LongitudeDegrees>
            </Position>
            <AltitudeMeters>11.80000019073486328125</AltitudeMeters>
            <DistanceMeters>NAN</DistanceMeters>
          </Trackpoint>
          <Trackpoint>
            <Time>2021-08-11T15:51:49.000Z</Time>
            <Position>
              <LatitudeDegrees>43.3263994753360748291015625</LatitudeDegrees>
              <LongitudeDegrees>-1.91978867165744304656982421875</LongitudeDegrees>
            </Position>
            <AltitudeMeters>11.80000019073486328125</AltitudeMeters>
            <DistanceMeters>NAN</DistanceMeters>
          </Trackpoint>
          <Trackpoint>
            <Time>2021-08-11T15:51:50.000Z</Time>
            <Position>
              <LatitudeDegrees>43.3263994753360748291015625</LatitudeDegrees>
              <LongitudeDegrees>-1.91978867165744304656982421875</LongitudeDegrees>
            </Position>
            <AltitudeMeters>11.80000019073486328125</AltitudeMeters>
            <DistanceMeters>NAN</DistanceMeters>
          </Trackpoint>
          <Trackpoint>
            <Time>2021-08-11T15:51:51.000Z</Time>
            <Position>
              <LatitudeDegrees>43.3263994753360748291015625</LatitudeDegrees>
              <LongitudeDegrees>-1.91978867165744304656982421875</LongitudeDegrees>
            </Position>
            <AltitudeMeters>11.80000019073486328125</AltitudeMeters>
            <DistanceMeters>NAN</DistanceMeters>
          </Trackpoint>
          <Trackpoint>
            <Time>2021-08-11T15:51:52.000Z</Time>
            <Position>
              <LatitudeDegrees>43.3263994753360748291015625</LatitudeDegrees>
              <LongitudeDegrees>-1.91978867165744304656982421875</LongitudeDegrees>
            </Position>
            <AltitudeMeters>11.80000019073486328125</AltitudeMeters>
            <DistanceMeters>NAN</DistanceMeters>
          </Trackpoint>
          <Trackpoint>
            <Time>2021-08-11T15:52:01.000Z</Time>
            <Position>
              <LatitudeDegrees>43.326409198343753814697265625</LatitudeDegrees>
              <LongitudeDegrees>-1.91978096030652523040771484375</LongitudeDegrees>
            </Position>
            <AltitudeMeters>11.6000003814697265625</AltitudeMeters>
            <DistanceMeters>NAN</DistanceMeters>
          </Trackpoint>
          <Trackpoint>
            <Time>2021-08-11T15:52:04.000Z</Time>
            <Position>
              <LatitudeDegrees>43.32640961743891239166259765625</LatitudeDegrees>
              <LongitudeDegrees>-1.91978062503039836883544921875</LongitudeDegrees>
            </Position>
            <AltitudeMeters>11.80000019073486328125</AltitudeMeters>
            <DistanceMeters>NAN</DistanceMeters>
          </Trackpoint>
          <Trackpoint>
            <Time>2021-08-11T15:52:05.000Z</Time>
            <Position>
              <LatitudeDegrees>43.32640961743891239166259765625</LatitudeDegrees>
              <LongitudeDegrees>-1.91978062503039836883544921875</LongitudeDegrees>
            </Position>
            <AltitudeMeters>11.80000019073486328125</AltitudeMeters>
            <DistanceMeters>NAN</DistanceMeters>
          </Trackpoint>
          <Trackpoint>
            <Time>2021-08-11T15:52:06.000Z</Time>
            <Position>
              <LatitudeDegrees>43.32644968293607234954833984375</LatitudeDegrees>
              <LongitudeDegrees>-1.9197329320013523101806640625</LongitudeDegrees>
            </Position>
            <AltitudeMeters>11.80000019073486328125</AltitudeMeters>
            <DistanceMeters>NAN</DistanceMeters>
          </Trackpoint>
          <Trackpoint>
            <Time>2021-08-11T15:52:07.000Z</Time>
            <Position>
              <LatitudeDegrees>43.3264506049454212188720703125</LatitudeDegrees>
              <LongitudeDegrees>-1.9197359494864940643310546875</LongitudeDegrees>
            </Position>
            <AltitudeMeters>11.80000019073486328125</AltitudeMeters>
            <DistanceMeters>NAN</DistanceMeters>
          </Trackpoint>
          <Trackpoint>
            <Time>2021-08-11T15:52:08.000Z</Time>
            <Position>
              <LatitudeDegrees>43.3264958672225475311279296875</LatitudeDegrees>
              <LongitudeDegrees>-1.91968942992389202117919921875</LongitudeDegrees>
            </Position>
            <AltitudeMeters>12</AltitudeMeters>
            <DistanceMeters>NAN</DistanceMeters>
          </Trackpoint>
          <Trackpoint>
            <Time>2021-08-11T15:52:09.000Z</Time>
            <Position>
              <LatitudeDegrees>43.32652864046394824981689453125</LatitudeDegrees>
              <LongitudeDegrees>-1.9196906872093677520751953125</LongitudeDegrees>
            </Position>
            <AltitudeMeters>12</AltitudeMeters>
            <DistanceMeters>NAN</DistanceMeters>
          </Trackpoint>
          <Trackpoint>
            <Time>2021-08-11T15:52:10.000Z</Time>
            <Position>
              <LatitudeDegrees>43.32653199322521686553955078125</LatitudeDegrees>
              <LongitudeDegrees>-1.9196903519332408905029296875</LongitudeDegrees>
            </Position>
            <AltitudeMeters>12</AltitudeMeters>
            <DistanceMeters>NAN</DistanceMeters>
          </Trackpoint>
          <Trackpoint>
            <Time>2021-08-11T15:52:11.000Z</Time>
            <Position>
              <LatitudeDegrees>43.32653199322521686553955078125</LatitudeDegrees>
              <LongitudeDegrees>-1.9196903519332408905029296875</LongitudeDegrees>
            </Position>
            <AltitudeMeters>12</AltitudeMeters>
            <DistanceMeters>NAN</DistanceMeters>
          </Trackpoint>
          <Trackpoint>
            <Time>2021-08-11T15:52:18.000Z</Time>
            <Position>
              <LatitudeDegrees>43.32653199322521686553955078125</LatitudeDegrees>
              <LongitudeDegrees>-1.9196903519332408905029296875</LongitudeDegrees>
            </Position>
            <AltitudeMeters>12</AltitudeMeters>
            <DistanceMeters>NAN</DistanceMeters>
          </Trackpoint>
          <Trackpoint>
            <Time>2021-08-11T15:52:29.000Z</Time>
            <Position>
              <LatitudeDegrees>43.32653199322521686553955078125</LatitudeDegrees>
              <LongitudeDegrees>-1.9196903519332408905029296875</LongitudeDegrees>
            </Position>
            <AltitudeMeters>12</AltitudeMeters>
            <DistanceMeters>NAN</DistanceMeters>
          </Trackpoint>
          <Trackpoint>
            <Time>2021-08-11T15:52:35.000Z</Time>
            <Position>
              <LatitudeDegrees>43.3265845477581024169921875</LatitudeDegrees>
              <LongitudeDegrees>-1.919663362205028533935546875</LongitudeDegrees>
            </Position>
            <AltitudeMeters>12</AltitudeMeters>
            <DistanceMeters>NAN</DistanceMeters>
          </Trackpoint>
          <Trackpoint>
            <Time>2021-08-11T15:52:36.000Z</Time>
            <Position>
              <LatitudeDegrees>43.32660139538347721099853515625</LatitudeDegrees>
              <LongitudeDegrees>-1.91966428421437740325927734375</LongitudeDegrees>
            </Position>
            <AltitudeMeters>12</AltitudeMeters>
            <DistanceMeters>NAN</DistanceMeters>
          </Trackpoint>
          <Trackpoint>
            <Time>2021-08-11T15:52:37.000Z</Time>
            <Position>
              <LatitudeDegrees>43.32661740481853485107421875</LatitudeDegrees>
              <LongitudeDegrees>-1.919662021100521087646484375</LongitudeDegrees>
            </Position>
            <AltitudeMeters>12</AltitudeMeters>
            <DistanceMeters>NAN</DistanceMeters>
          </Trackpoint>
          <Trackpoint>
            <Time>2021-08-11T15:52:38.000Z</Time>
            <Position>
              <LatitudeDegrees>43.32663358189165592193603515625</LatitudeDegrees>
              <LongitudeDegrees>-1.91966780461370944976806640625</LongitudeDegrees>
            </Position>
            <AltitudeMeters>12</AltitudeMeters>
            <DistanceMeters>NAN</DistanceMeters>
          </Trackpoint>
          <Trackpoint>
            <Time>2021-08-11T15:52:39.000Z</Time>
            <Position>
              <LatitudeDegrees>43.32664959132671356201171875</LatitudeDegrees>
              <LongitudeDegrees>-1.919681467115879058837890625</LongitudeDegrees>
            </Position>
            <AltitudeMeters>12</AltitudeMeters>
            <DistanceMeters>NAN</DistanceMeters>
          </Trackpoint>
          <Trackpoint>
            <Time>2021-08-11T15:52:40.000Z</Time>
            <Position>
              <LatitudeDegrees>43.3266678638756275177001953125</LatitudeDegrees>
              <LongitudeDegrees>-1.9196970574557781219482421875</LongitudeDegrees>
            </Position>
            <AltitudeMeters>12</AltitudeMeters>
            <DistanceMeters>NAN</DistanceMeters>
          </Trackpoint>
          <Trackpoint>
            <Time>2021-08-11T15:52:41.000Z</Time>
            <Position>
              <LatitudeDegrees>43.3266829513013362884521484375</LatitudeDegrees>
              <LongitudeDegrees>-1.91970451734960079193115234375</LongitudeDegrees>
            </Position>
            <AltitudeMeters>12.19999980926513671875</AltitudeMeters>
            <DistanceMeters>NAN</DistanceMeters>
          </Trackpoint>
          <Trackpoint>
            <Time>2021-08-11T15:52:42.000Z</Time>
            <Position>
              <LatitudeDegrees>43.3266852982342243194580078125</LatitudeDegrees>
              <LongitudeDegrees>-1.9197092950344085693359375</LongitudeDegrees>
            </Position>
            <AltitudeMeters>12.19999980926513671875</AltitudeMeters>
            <DistanceMeters>NAN</DistanceMeters>
          </Trackpoint>
          <Trackpoint>
            <Time>2021-08-11T15:52:43.000Z</Time>
            <Position>
              <LatitudeDegrees>43.326694853603839874267578125</LatitudeDegrees>
              <LongitudeDegrees>-1.919691525399684906005859375</LongitudeDegrees>
            </Position>
            <AltitudeMeters>12.19999980926513671875</AltitudeMeters>
            <DistanceMeters>NAN</DistanceMeters>
          </Trackpoint>
          <Trackpoint>
            <Time>2021-08-11T15:52:44.000Z</Time>
            <Position>
              <LatitudeDegrees>43.326706923544406890869140625</LatitudeDegrees>
              <LongitudeDegrees>-1.91967920400202274322509765625</LongitudeDegrees>
            </Position>
            <AltitudeMeters>12.19999980926513671875</AltitudeMeters>
            <DistanceMeters>NAN</DistanceMeters>
          </Trackpoint>
          <Trackpoint>
            <Time>2021-08-11T15:52:45.000Z</Time>
            <Position>
              <LatitudeDegrees>43.3267106115818023681640625</LatitudeDegrees>
              <LongitudeDegrees>-1.91967970691621303558349609375</LongitudeDegrees>
            </Position>
            <AltitudeMeters>12.19999980926513671875</AltitudeMeters>
            <DistanceMeters>NAN</DistanceMeters>
          </Trackpoint>
          <Trackpoint>
            <Time>2021-08-11T15:52:46.000Z</Time>
            <Position>
              <LatitudeDegrees>43.32671740092337131500244140625</LatitudeDegrees>
              <LongitudeDegrees>-1.91967702470719814300537109375</LongitudeDegrees>
            </Position>
            <AltitudeMeters>12.19999980926513671875</AltitudeMeters>
            <DistanceMeters>NAN</DistanceMeters>
          </Trackpoint>
          <Trackpoint>
            <Time>2021-08-11T15:52:47.000Z</Time>
            <Position>
              <LatitudeDegrees>43.3267298899590969085693359375</LatitudeDegrees>
              <LongitudeDegrees>-1.91967233084142208099365234375</LongitudeDegrees>
            </Position>
            <AltitudeMeters>12.19999980926513671875</AltitudeMeters>
            <DistanceMeters>NAN</DistanceMeters>
          </Trackpoint>
          <Trackpoint>
            <Time>2021-08-11T15:52:48.000Z</Time>
            <Position>
              <LatitudeDegrees>43.3267339132726192474365234375</LatitudeDegrees>
              <LongitudeDegrees>-1.9196709059178829193115234375</LongitudeDegrees>
            </Position>
            <AltitudeMeters>12</AltitudeMeters>
            <DistanceMeters>NAN</DistanceMeters>
          </Trackpoint>
          <Trackpoint>
            <Time>2021-08-11T15:52:51.000Z</Time>
            <Position>
              <LatitudeDegrees>43.326749168336391448974609375</LatitudeDegrees>
              <LongitudeDegrees>-1.91967803053557872772216796875</LongitudeDegrees>
            </Position>
            <AltitudeMeters>12</AltitudeMeters>
            <DistanceMeters>NAN</DistanceMeters>
          </Trackpoint>
          <Trackpoint>
            <Time>2021-08-11T15:53:00.000Z</Time>
            <Position>
              <LatitudeDegrees>43.3267510123550891876220703125</LatitudeDegrees>
              <LongitudeDegrees>-1.9196745939552783966064453125</LongitudeDegrees>
            </Position>
            <AltitudeMeters>11.80000019073486328125</AltitudeMeters>
            <DistanceMeters>NAN</DistanceMeters>
          </Trackpoint>
          <Trackpoint>
            <Time>2021-08-11T15:53:06.000Z</Time>
            <Position>
              <LatitudeDegrees>43.32675260491669178009033203125</LatitudeDegrees>
              <LongitudeDegrees>-1.91967417486011981964111328125</LongitudeDegrees>
            </Position>
            <AltitudeMeters>11.80000019073486328125</AltitudeMeters>
            <DistanceMeters>NAN</DistanceMeters>
          </Trackpoint>
          <Trackpoint>
            <Time>2021-08-11T15:53:07.000Z</Time>
            <Position>
              <LatitudeDegrees>43.32675880752503871917724609375</LatitudeDegrees>
              <LongitudeDegrees>-1.91966931335628032684326171875</LongitudeDegrees>
            </Position>
            <AltitudeMeters>11.80000019073486328125</AltitudeMeters>
            <DistanceMeters>NAN</DistanceMeters>
          </Trackpoint>
          <Trackpoint>
            <Time>2021-08-11T15:53:08.000Z</Time>
            <Position>
              <LatitudeDegrees>43.32675880752503871917724609375</LatitudeDegrees>
              <LongitudeDegrees>-1.91966931335628032684326171875</LongitudeDegrees>
            </Position>
            <AltitudeMeters>12</AltitudeMeters>
            <DistanceMeters>NAN</DistanceMeters>
          </Trackpoint>
          <Trackpoint>
            <Time>2021-08-11T15:53:14.000Z</Time>
            <Position>
              <LatitudeDegrees>43.3267697878181934356689453125</LatitudeDegrees>
              <LongitudeDegrees>-1.91966763697564601898193359375</LongitudeDegrees>
            </Position>
            <AltitudeMeters>12</AltitudeMeters>
            <DistanceMeters>NAN</DistanceMeters>
          </Trackpoint>
          <Trackpoint>
            <Time>2021-08-11T15:53:15.000Z</Time>
            <Position>
              <LatitudeDegrees>43.32678093574941158294677734375</LatitudeDegrees>
              <LongitudeDegrees>-1.919668056070804595947265625</LongitudeDegrees>
            </Position>
            <AltitudeMeters>12</AltitudeMeters>
            <DistanceMeters>NAN</DistanceMeters>
          </Trackpoint>
          <Trackpoint>
            <Time>2021-08-11T15:53:17.000Z</Time>
            <Position>
              <LatitudeDegrees>43.32679065875709056854248046875</LatitudeDegrees>
              <LongitudeDegrees>-1.9196695648133754730224609375</LongitudeDegrees>
            </Position>
            <AltitudeMeters>12</AltitudeMeters>
            <DistanceMeters>NAN</DistanceMeters>
          </Trackpoint>
          <Trackpoint>
            <Time>2021-08-11T15:53:19.000Z</Time>
            <Position>
              <LatitudeDegrees>43.3268388547003269195556640625</LatitudeDegrees>
              <LongitudeDegrees>-1.91969630308449268341064453125</LongitudeDegrees>
            </Position>
            <AltitudeMeters>12</AltitudeMeters>
            <DistanceMeters>NAN</DistanceMeters>
          </Trackpoint>
          <Trackpoint>
            <Time>2021-08-11T15:53:20.000Z</Time>
            <Position>
              <LatitudeDegrees>43.32686006091535091400146484375</LatitudeDegrees>
              <LongitudeDegrees>-1.9197007454931735992431640625</LongitudeDegrees>
            </Position>
            <AltitudeMeters>12</AltitudeMeters>
            <DistanceMeters>NAN</DistanceMeters>
          </Trackpoint>
          <Trackpoint>
            <Time>2021-08-11T15:53:24.000Z</Time>
            <Position>
              <LatitudeDegrees>43.3269957639276981353759765625</LatitudeDegrees>
              <LongitudeDegrees>-1.91970870830118656158447265625</LongitudeDegrees>
            </Position>
            <AltitudeMeters>12</AltitudeMeters>
            <DistanceMeters>NAN</DistanceMeters>
          </Trackpoint>
          <Trackpoint>
            <Time>2021-08-11T15:53:29.000Z</Time>
            <Position>
              <LatitudeDegrees>43.3270903117954730987548828125</LatitudeDegrees>
              <LongitudeDegrees>-1.91976821981370449066162109375</LongitudeDegrees>
            </Position>
            <AltitudeMeters>12.19999980926513671875</AltitudeMeters>
            <DistanceMeters>NAN</DistanceMeters>
          </Trackpoint>
          <Trackpoint>
            <Time>2021-08-11T15:53:31.000Z</Time>
            <Position>
              <LatitudeDegrees>43.32709726877510547637939453125</LatitudeDegrees>
              <LongitudeDegrees>-1.9197838939726352691650390625</LongitudeDegrees>
            </Position>
            <AltitudeMeters>12.19999980926513671875</AltitudeMeters>
            <DistanceMeters>NAN</DistanceMeters>
          </Trackpoint>
          <Trackpoint>
            <Time>2021-08-11T15:53:32.000Z</Time>
            <Position>
              <LatitudeDegrees>43.3271084167063236236572265625</LatitudeDegrees>
              <LongitudeDegrees>-1.91981482319533824920654296875</LongitudeDegrees>
            </Position>
            <AltitudeMeters>12.19999980926513671875</AltitudeMeters>
            <DistanceMeters>NAN</DistanceMeters>
          </Trackpoint>
          <Trackpoint>
            <Time>2021-08-11T15:53:33.000Z</Time>
            <Position>
              <LatitudeDegrees>43.32712166011333465576171875</LatitudeDegrees>
              <LongitudeDegrees>-1.91984298638999462127685546875</LongitudeDegrees>
            </Position>
            <AltitudeMeters>12.19999980926513671875</AltitudeMeters>
            <DistanceMeters>NAN</DistanceMeters>
          </Trackpoint>
          <Trackpoint>
            <Time>2021-08-11T15:53:34.000Z</Time>
            <Position>
              <LatitudeDegrees>43.3271251805126667022705078125</LatitudeDegrees>
              <LongitudeDegrees>-1.91985337994992733001708984375</LongitudeDegrees>
            </Position>
            <AltitudeMeters>12.19999980926513671875</AltitudeMeters>
            <DistanceMeters>NAN</DistanceMeters>
          </Trackpoint>
          <Trackpoint>
            <Time>2021-08-11T15:53:35.000Z</Time>
            <Position>
              <LatitudeDegrees>43.327122665941715240478515625</LatitudeDegrees>
              <LongitudeDegrees>-1.919863186776638031005859375</LongitudeDegrees>
            </Position>
            <AltitudeMeters>12.19999980926513671875</AltitudeMeters>
            <DistanceMeters>NAN</DistanceMeters>
          </Trackpoint>
          <Trackpoint>
            <Time>2021-08-11T15:53:36.000Z</Time>
            <Position>
              <LatitudeDegrees>43.3271231688559055328369140625</LatitudeDegrees>
              <LongitudeDegrees>-1.91986762918531894683837890625</LongitudeDegrees>
            </Position>
            <AltitudeMeters>12.19999980926513671875</AltitudeMeters>
            <DistanceMeters>NAN</DistanceMeters>
          </Trackpoint>
          <Trackpoint>
            <Time>2021-08-11T15:53:37.000Z</Time>
            <Position>
              <LatitudeDegrees>43.327125348150730133056640625</LatitudeDegrees>
              <LongitudeDegrees>-1.91987617872655391693115234375</LongitudeDegrees>
            </Position>
            <AltitudeMeters>12.19999980926513671875</AltitudeMeters>
            <DistanceMeters>NAN</DistanceMeters>
          </Trackpoint>
          <Trackpoint>
            <Time>2021-08-11T15:53:38.000Z</Time>
            <Position>
              <LatitudeDegrees>43.32712492905557155609130859375</LatitudeDegrees>
              <LongitudeDegrees>-1.9198791123926639556884765625</LongitudeDegrees>
            </Position>
            <AltitudeMeters>12.19999980926513671875</AltitudeMeters>
            <DistanceMeters>NAN</DistanceMeters>
          </Trackpoint>
          <Trackpoint>
            <Time>2021-08-11T15:53:39.000Z</Time>
            <Position>
              <LatitudeDegrees>43.32712928764522075653076171875</LatitudeDegrees>
              <LongitudeDegrees>-1.91989361308515071868896484375</LongitudeDegrees>
            </Position>
            <AltitudeMeters>12</AltitudeMeters>
            <DistanceMeters>NAN</DistanceMeters>
          </Trackpoint>
          <Trackpoint>
            <Time>2021-08-11T15:53:41.000Z</Time>
            <Position>
              <LatitudeDegrees>43.327143453061580657958984375</LatitudeDegrees>
              <LongitudeDegrees>-1.91991574130952358245849609375</LongitudeDegrees>
            </Position>
            <AltitudeMeters>12</AltitudeMeters>
            <DistanceMeters>NAN</DistanceMeters>
          </Trackpoint>
          <Trackpoint>
            <Time>2021-08-11T15:53:42.000Z</Time>
            <Position>
              <LatitudeDegrees>43.32714688964188098907470703125</LatitudeDegrees>
              <LongitudeDegrees>-1.919927559792995452880859375</LongitudeDegrees>
            </Position>
            <AltitudeMeters>12</AltitudeMeters>
            <DistanceMeters>NAN</DistanceMeters>
          </Trackpoint>
          <Trackpoint>
            <Time>2021-08-11T15:53:43.000Z</Time>
            <Position>
              <LatitudeDegrees>43.32715108059346675872802734375</LatitudeDegrees>
              <LongitudeDegrees>-1.91994122229516506195068359375</LongitudeDegrees>
            </Position>
            <AltitudeMeters>12</AltitudeMeters>
            <DistanceMeters>NAN</DistanceMeters>
          </Trackpoint>
          <Trackpoint>
            <Time>2021-08-11T15:53:44.000Z</Time>
            <Position>
              <LatitudeDegrees>43.32715426571667194366455078125</LatitudeDegrees>
              <LongitudeDegrees>-1.91995195113122463226318359375</LongitudeDegrees>
            </Position>
            <AltitudeMeters>12</AltitudeMeters>
            <DistanceMeters>NAN</DistanceMeters>
          </Trackpoint>
          <Trackpoint>
            <Time>2021-08-11T15:53:45.000Z</Time>
            <Position>
              <LatitudeDegrees>43.32716113887727260589599609375</LatitudeDegrees>
              <LongitudeDegrees>-1.91996477544307708740234375</LongitudeDegrees>
            </Position>
            <AltitudeMeters>12</AltitudeMeters>
            <DistanceMeters>NAN</DistanceMeters>
          </Trackpoint>
          <Trackpoint>
            <Time>2021-08-11T15:53:46.000Z</Time>
            <Position>
              <LatitudeDegrees>43.32716717384755611419677734375</LatitudeDegrees>
              <LongitudeDegrees>-1.91997558809816837310791015625</LongitudeDegrees>
            </Position>
            <AltitudeMeters>12</AltitudeMeters>
            <DistanceMeters>NAN</DistanceMeters>
          </Trackpoint>
          <Trackpoint>
            <Time>2021-08-11T15:53:47.000Z</Time>
            <Position>
              <LatitudeDegrees>43.3271697722375392913818359375</LatitudeDegrees>
              <LongitudeDegrees>-1.91997977904975414276123046875</LongitudeDegrees>
            </Position>
            <AltitudeMeters>12</AltitudeMeters>
            <DistanceMeters>NAN</DistanceMeters>
          </Trackpoint>
          <Trackpoint>
            <Time>2021-08-11T15:53:48.000Z</Time>
            <Position>
              <LatitudeDegrees>43.3271697722375392913818359375</LatitudeDegrees>
              <LongitudeDegrees>-1.91997977904975414276123046875</LongitudeDegrees>
            </Position>
            <AltitudeMeters>11.80000019073486328125</AltitudeMeters>
            <DistanceMeters>NAN</DistanceMeters>
          </Trackpoint>
          <Trackpoint>
            <Time>2021-08-11T15:53:50.000Z</Time>
            <Position>
              <LatitudeDegrees>43.3271697722375392913818359375</LatitudeDegrees>
              <LongitudeDegrees>-1.91997977904975414276123046875</LongitudeDegrees>
            </Position>
            <AltitudeMeters>11.80000019073486328125</AltitudeMeters>
            <DistanceMeters>NAN</DistanceMeters>
          </Trackpoint>
          <Trackpoint>
            <Time>2021-08-11T15:54:14.000Z</Time>
            <Position>
              <LatitudeDegrees>43.3271697722375392913818359375</LatitudeDegrees>
              <LongitudeDegrees>-1.91997977904975414276123046875</LongitudeDegrees>
            </Position>
            <AltitudeMeters>11.6000003814697265625</AltitudeMeters>
            <DistanceMeters>NAN</DistanceMeters>
          </Trackpoint>
          <Trackpoint>
            <Time>2021-08-11T15:54:43.000Z</Time>
            <Position>
              <LatitudeDegrees>43.3271706104278564453125</LatitudeDegrees>
              <LongitudeDegrees>-1.91998430527746677398681640625</LongitudeDegrees>
            </Position>
            <AltitudeMeters>11.6000003814697265625</AltitudeMeters>
            <DistanceMeters>NAN</DistanceMeters>
          </Trackpoint>
          <Trackpoint>
            <Time>2021-08-11T15:55:47.000Z</Time>
            <Position>
              <LatitudeDegrees>43.3271798305213451385498046875</LatitudeDegrees>
              <LongitudeDegrees>-1.920077092945575714111328125</LongitudeDegrees>
            </Position>
            <AltitudeMeters>11.3999996185302734375</AltitudeMeters>
            <DistanceMeters>NAN</DistanceMeters>
          </Trackpoint>
          <Trackpoint>
            <Time>2021-08-11T15:59:47.000Z</Time>
            <Position>
              <LatitudeDegrees>43.3271825127303600311279296875</LatitudeDegrees>
              <LongitudeDegrees>-1.92023157142102718353271484375</LongitudeDegrees>
            </Position>
            <AltitudeMeters>10.6000003814697265625</AltitudeMeters>
            <DistanceMeters>NAN</DistanceMeters>
          </Trackpoint>
          <Trackpoint>
            <Time>2021-08-11T15:59:57.000Z</Time>
            <Position>
              <LatitudeDegrees>43.3272146992385387420654296875</LatitudeDegrees>
              <LongitudeDegrees>-1.92018899135291576385498046875</LongitudeDegrees>
            </Position>
            <AltitudeMeters>10.6000003814697265625</AltitudeMeters>
            <DistanceMeters>NAN</DistanceMeters>
          </Trackpoint>
          <Trackpoint>
            <Time>2021-08-11T16:00:00.000Z</Time>
            <Position>
              <LatitudeDegrees>43.32722031511366367340087890625</LatitudeDegrees>
              <LongitudeDegrees>-1.9201815314590930938720703125</LongitudeDegrees>
            </Position>
            <AltitudeMeters>10.6000003814697265625</AltitudeMeters>
            <DistanceMeters>NAN</DistanceMeters>
          </Trackpoint>
          <Trackpoint>
            <Time>2021-08-11T16:00:01.000Z</Time>
            <Position>
              <LatitudeDegrees>43.32722836174070835113525390625</LatitudeDegrees>
              <LongitudeDegrees>-1.9201815314590930938720703125</LongitudeDegrees>
            </Position>
            <AltitudeMeters>10.80000019073486328125</AltitudeMeters>
            <DistanceMeters>NAN</DistanceMeters>
          </Trackpoint>
          <Trackpoint>
            <Time>2021-08-11T16:00:05.000Z</Time>
            <Position>
              <LatitudeDegrees>43.3272659964859485626220703125</LatitudeDegrees>
              <LongitudeDegrees>-1.92017910070717334747314453125</LongitudeDegrees>
            </Position>
            <AltitudeMeters>11</AltitudeMeters>
            <DistanceMeters>NAN</DistanceMeters>
          </Trackpoint>
          <Trackpoint>
            <Time>2021-08-11T16:00:06.000Z</Time>
            <Position>
              <LatitudeDegrees>43.32727664150297641754150390625</LatitudeDegrees>
              <LongitudeDegrees>-1.9201761670410633087158203125</LongitudeDegrees>
            </Position>
            <AltitudeMeters>11</AltitudeMeters>
            <DistanceMeters>NAN</DistanceMeters>
          </Trackpoint>
          <Trackpoint>
            <Time>2021-08-11T16:00:09.000Z</Time>
            <Position>
              <LatitudeDegrees>43.32731905393302440643310546875</LatitudeDegrees>
              <LongitudeDegrees>-1.920183040201663970947265625</LongitudeDegrees>
            </Position>
            <AltitudeMeters>11.19999980926513671875</AltitudeMeters>
            <DistanceMeters>NAN</DistanceMeters>
          </Trackpoint>
          <Trackpoint>
            <Time>2021-08-11T16:00:11.000Z</Time>
            <Position>
              <LatitudeDegrees>43.32734202034771442413330078125</LatitudeDegrees>
              <LongitudeDegrees>-1.92017541266977787017822265625</LongitudeDegrees>
            </Position>
            <AltitudeMeters>11.19999980926513671875</AltitudeMeters>
            <DistanceMeters>NAN</DistanceMeters>
          </Trackpoint>
          <Trackpoint>
            <Time>2021-08-11T16:00:13.000Z</Time>
            <Position>
              <LatitudeDegrees>43.32735308445990085601806640625</LatitudeDegrees>
              <LongitudeDegrees>-1.92016367800533771514892578125</LongitudeDegrees>
            </Position>
            <AltitudeMeters>11.19999980926513671875</AltitudeMeters>
            <DistanceMeters>NAN</DistanceMeters>
          </Trackpoint>
          <Trackpoint>
            <Time>2021-08-11T16:00:16.000Z</Time>
            <Position>
              <LatitudeDegrees>43.32737839780747890472412109375</LatitudeDegrees>
              <LongitudeDegrees>-1.9201547093689441680908203125</LongitudeDegrees>
            </Position>
            <AltitudeMeters>11.19999980926513671875</AltitudeMeters>
            <DistanceMeters>NAN</DistanceMeters>
          </Trackpoint>
          <Trackpoint>
            <Time>2021-08-11T16:00:17.000Z</Time>
            <Position>
              <LatitudeDegrees>43.3273863606154918670654296875</LatitudeDegrees>
              <LongitudeDegrees>-1.920156218111515045166015625</LongitudeDegrees>
            </Position>
            <AltitudeMeters>11.19999980926513671875</AltitudeMeters>
            <DistanceMeters>NAN</DistanceMeters>
          </Trackpoint>
          <Trackpoint>
            <Time>2021-08-11T16:00:21.000Z</Time>
            <Position>
              <LatitudeDegrees>43.32741611637175083160400390625</LatitudeDegrees>
              <LongitudeDegrees>-1.92018295638263225555419921875</LongitudeDegrees>
            </Position>
            <AltitudeMeters>11.19999980926513671875</AltitudeMeters>
            <DistanceMeters>NAN</DistanceMeters>
          </Trackpoint>
          <Trackpoint>
            <Time>2021-08-11T16:00:24.000Z</Time>
            <Position>
              <LatitudeDegrees>43.32743807695806026458740234375</LatitudeDegrees>
              <LongitudeDegrees>-1.9201952777802944183349609375</LongitudeDegrees>
            </Position>
            <AltitudeMeters>11</AltitudeMeters>
            <DistanceMeters>NAN</DistanceMeters>
          </Trackpoint>
          <Trackpoint>
            <Time>2021-08-11T16:00:25.000Z</Time>
            <Position>
              <LatitudeDegrees>43.3274410106241703033447265625</LatitudeDegrees>
              <LongitudeDegrees>-1.92020541988313198089599609375</LongitudeDegrees>
            </Position>
            <AltitudeMeters>11</AltitudeMeters>
            <DistanceMeters>NAN</DistanceMeters>
          </Trackpoint>
          <Trackpoint>
            <Time>2021-08-11T16:00:26.000Z</Time>
            <Position>
              <LatitudeDegrees>43.3274487219750881195068359375</LatitudeDegrees>
              <LongitudeDegrees>-1.920216567814350128173828125</LongitudeDegrees>
            </Position>
            <AltitudeMeters>11</AltitudeMeters>
            <DistanceMeters>NAN</DistanceMeters>
          </Trackpoint>
          <Trackpoint>
            <Time>2021-08-11T16:00:28.000Z</Time>
            <Position>
              <LatitudeDegrees>43.32746070809662342071533203125</LatitudeDegrees>
              <LongitudeDegrees>-1.9202328287065029144287109375</LongitudeDegrees>
            </Position>
            <AltitudeMeters>11</AltitudeMeters>
            <DistanceMeters>NAN</DistanceMeters>
          </Trackpoint>
          <Trackpoint>
            <Time>2021-08-11T16:00:29.000Z</Time>
            <Position>
              <LatitudeDegrees>43.32746908999979496002197265625</LatitudeDegrees>
              <LongitudeDegrees>-1.92023710347712039947509765625</LongitudeDegrees>
            </Position>
            <AltitudeMeters>11</AltitudeMeters>
            <DistanceMeters>NAN</DistanceMeters>
          </Trackpoint>
          <Trackpoint>
            <Time>2021-08-11T16:00:30.000Z</Time>
            <Position>
              <LatitudeDegrees>43.32747478969395160675048828125</LatitudeDegrees>
              <LongitudeDegrees>-1.92024447955191135406494140625</LongitudeDegrees>
            </Position>
            <AltitudeMeters>11</AltitudeMeters>
            <DistanceMeters>NAN</DistanceMeters>
          </Trackpoint>
          <Trackpoint>
            <Time>2021-08-11T16:00:31.000Z</Time>
            <Position>
              <LatitudeDegrees>43.32747780717909336090087890625</LatitudeDegrees>
              <LongitudeDegrees>-1.9202556274831295013427734375</LongitudeDegrees>
            </Position>
            <AltitudeMeters>11</AltitudeMeters>
            <DistanceMeters>NAN</DistanceMeters>
          </Trackpoint>
          <Trackpoint>
            <Time>2021-08-11T16:00:32.000Z</Time>
            <Position>
              <LatitudeDegrees>43.32748635672032833099365234375</LatitudeDegrees>
              <LongitudeDegrees>-1.92026711069047451019287109375</LongitudeDegrees>
            </Position>
            <AltitudeMeters>11</AltitudeMeters>
            <DistanceMeters>NAN</DistanceMeters>
          </Trackpoint>
          <Trackpoint>
            <Time>2021-08-11T16:00:34.000Z</Time>
            <Position>
              <LatitudeDegrees>43.32750714384019374847412109375</LatitudeDegrees>
              <LongitudeDegrees>-1.92028555087745189666748046875</LongitudeDegrees>
            </Position>
            <AltitudeMeters>11</AltitudeMeters>
            <DistanceMeters>NAN</DistanceMeters>
          </Trackpoint>
          <Trackpoint>
            <Time>2021-08-11T16:00:36.000Z</Time>
            <Position>
              <LatitudeDegrees>43.32752457819879055023193359375</LatitudeDegrees>
              <LongitudeDegrees>-1.92030600272119045257568359375</LongitudeDegrees>
            </Position>
            <AltitudeMeters>11</AltitudeMeters>
            <DistanceMeters>NAN</DistanceMeters>
          </Trackpoint>
          <Trackpoint>
            <Time>2021-08-11T16:00:37.000Z</Time>
            <Position>
              <LatitudeDegrees>43.32753044553101062774658203125</LatitudeDegrees>
              <LongitudeDegrees>-1.920321844518184661865234375</LongitudeDegrees>
            </Position>
            <AltitudeMeters>11</AltitudeMeters>
            <DistanceMeters>NAN</DistanceMeters>
          </Trackpoint>
          <Trackpoint>
            <Time>2021-08-11T16:00:38.000Z</Time>
            <Position>
              <LatitudeDegrees>43.32753606140613555908203125</LatitudeDegrees>
              <LongitudeDegrees>-1.92033567465841770172119140625</LongitudeDegrees>
            </Position>
            <AltitudeMeters>11.19999980926513671875</AltitudeMeters>
            <DistanceMeters>NAN</DistanceMeters>
          </Trackpoint>
          <Trackpoint>
            <Time>2021-08-11T16:00:42.000Z</Time>
            <Position>
              <LatitudeDegrees>43.32756833173334598541259765625</LatitudeDegrees>
              <LongitudeDegrees>-1.9203847087919712066650390625</LongitudeDegrees>
            </Position>
            <AltitudeMeters>11.19999980926513671875</AltitudeMeters>
            <DistanceMeters>NAN</DistanceMeters>
          </Trackpoint>
          <Trackpoint>
            <Time>2021-08-11T16:00:43.000Z</Time>
            <Position>
              <LatitudeDegrees>43.32757771946489810943603515625</LatitudeDegrees>
              <LongitudeDegrees>-1.92039535380899906158447265625</LongitudeDegrees>
            </Position>
            <AltitudeMeters>11.3999996185302734375</AltitudeMeters>
            <DistanceMeters>NAN</DistanceMeters>
          </Trackpoint>
          <Trackpoint>
            <Time>2021-08-11T16:00:47.000Z</Time>
            <Position>
              <LatitudeDegrees>43.32761191762983798980712890625</LatitudeDegrees>
              <LongitudeDegrees>-1.92045100964605808258056640625</LongitudeDegrees>
            </Position>
            <AltitudeMeters>11.6000003814697265625</AltitudeMeters>
            <DistanceMeters>NAN</DistanceMeters>
          </Trackpoint>
          <Trackpoint>
            <Time>2021-08-11T16:00:48.000Z</Time>
            <Position>
              <LatitudeDegrees>43.3276166953146457672119140625</LatitudeDegrees>
              <LongitudeDegrees>-1.920474730432033538818359375</LongitudeDegrees>
            </Position>
            <AltitudeMeters>11.6000003814697265625</AltitudeMeters>
            <DistanceMeters>NAN</DistanceMeters>
          </Trackpoint>
          <Trackpoint>
            <Time>2021-08-11T16:00:49.000Z</Time>
            <Position>
              <LatitudeDegrees>43.32762314938008785247802734375</LatitudeDegrees>
              <LongitudeDegrees>-1.9204936735332012176513671875</LongitudeDegrees>
            </Position>
            <AltitudeMeters>11.6000003814697265625</AltitudeMeters>
            <DistanceMeters>NAN</DistanceMeters>
          </Trackpoint>
          <Trackpoint>
            <Time>2021-08-11T16:00:50.000Z</Time>
            <Position>
              <LatitudeDegrees>43.32764075137674808502197265625</LatitudeDegrees>
              <LongitudeDegrees>-1.9205023907124996185302734375</LongitudeDegrees>
            </Position>
            <AltitudeMeters>11.6000003814697265625</AltitudeMeters>
            <DistanceMeters>NAN</DistanceMeters>
          </Trackpoint>
          <Trackpoint>
            <Time>2021-08-11T16:00:51.000Z</Time>
            <Position>
              <LatitudeDegrees>43.3276498876512050628662109375</LatitudeDegrees>
              <LongitudeDegrees>-1.92050934769213199615478515625</LongitudeDegrees>
            </Position>
            <AltitudeMeters>11.6000003814697265625</AltitudeMeters>
            <DistanceMeters>NAN</DistanceMeters>
          </Trackpoint>
          <Trackpoint>
            <Time>2021-08-11T16:00:52.000Z</Time>
            <Position>
              <LatitudeDegrees>43.32765944302082061767578125</LatitudeDegrees>
              <LongitudeDegrees>-1.920514293015003204345703125</LongitudeDegrees>
            </Position>
            <AltitudeMeters>11.6000003814697265625</AltitudeMeters>
            <DistanceMeters>NAN</DistanceMeters>
          </Trackpoint>
          <Trackpoint>
            <Time>2021-08-11T16:00:53.000Z</Time>
            <Position>
              <LatitudeDegrees>43.3276632986962795257568359375</LatitudeDegrees>
              <LongitudeDegrees>-1.92052175290882587432861328125</LongitudeDegrees>
            </Position>
            <AltitudeMeters>11.6000003814697265625</AltitudeMeters>
            <DistanceMeters>NAN</DistanceMeters>
          </Trackpoint>
          <Trackpoint>
            <Time>2021-08-11T16:00:54.000Z</Time>
            <Position>
              <LatitudeDegrees>43.3276673220098018646240234375</LatitudeDegrees>
              <LongitudeDegrees>-1.92053516395390033721923828125</LongitudeDegrees>
            </Position>
            <AltitudeMeters>11.6000003814697265625</AltitudeMeters>
            <DistanceMeters>NAN</DistanceMeters>
          </Trackpoint>
          <Trackpoint>
            <Time>2021-08-11T16:00:55.000Z</Time>
            <Position>
              <LatitudeDegrees>43.3276673220098018646240234375</LatitudeDegrees>
              <LongitudeDegrees>-1.920548491179943084716796875</LongitudeDegrees>
            </Position>
            <AltitudeMeters>11.6000003814697265625</AltitudeMeters>
            <DistanceMeters>NAN</DistanceMeters>
          </Trackpoint>
          <Trackpoint>
            <Time>2021-08-11T16:00:56.000Z</Time>
            <Position>
              <LatitudeDegrees>43.3276693336665630340576171875</LatitudeDegrees>
              <LongitudeDegrees>-1.9205637462437152862548828125</LongitudeDegrees>
            </Position>
            <AltitudeMeters>11.6000003814697265625</AltitudeMeters>
            <DistanceMeters>NAN</DistanceMeters>
          </Trackpoint>
          <Trackpoint>
            <Time>2021-08-11T16:00:57.000Z</Time>
            <Position>
              <LatitudeDegrees>43.32767612300813198089599609375</LatitudeDegrees>
              <LongitudeDegrees>-1.92057891748845577239990234375</LongitudeDegrees>
            </Position>
            <AltitudeMeters>11.6000003814697265625</AltitudeMeters>
            <DistanceMeters>NAN</DistanceMeters>
          </Trackpoint>
          <Trackpoint>
            <Time>2021-08-11T16:00:58.000Z</Time>
            <Position>
              <LatitudeDegrees>43.32768467254936695098876953125</LatitudeDegrees>
              <LongitudeDegrees>-1.92059266380965709686279296875</LongitudeDegrees>
            </Position>
            <AltitudeMeters>11.6000003814697265625</AltitudeMeters>
            <DistanceMeters>NAN</DistanceMeters>
          </Trackpoint>
          <Trackpoint>
            <Time>2021-08-11T16:00:59.000Z</Time>
            <Position>
              <LatitudeDegrees>43.32769095897674560546875</LatitudeDegrees>
              <LongitudeDegrees>-1.92060842178761959075927734375</LongitudeDegrees>
            </Position>
            <AltitudeMeters>11.6000003814697265625</AltitudeMeters>
            <DistanceMeters>NAN</DistanceMeters>
          </Trackpoint>
          <Trackpoint>
            <Time>2021-08-11T16:01:00.000Z</Time>
            <Position>
              <LatitudeDegrees>43.327699005603790283203125</LatitudeDegrees>
              <LongitudeDegrees>-1.92061579786241054534912109375</LongitudeDegrees>
            </Position>
            <AltitudeMeters>11.3999996185302734375</AltitudeMeters>
            <DistanceMeters>NAN</DistanceMeters>
          </Trackpoint>
          <Trackpoint>
            <Time>2021-08-11T16:01:01.000Z</Time>
            <Position>
              <LatitudeDegrees>43.32769162952899932861328125</LatitudeDegrees>
              <LongitudeDegrees>-1.920618228614330291748046875</LongitudeDegrees>
            </Position>
            <AltitudeMeters>11.3999996185302734375</AltitudeMeters>
            <DistanceMeters>NAN</DistanceMeters>
          </Trackpoint>
          <Trackpoint>
            <Time>2021-08-11T16:01:02.000Z</Time>
            <Position>
              <LatitudeDegrees>43.3276740275323390960693359375</LatitudeDegrees>
              <LongitudeDegrees>-1.92061697132885456085205078125</LongitudeDegrees>
            </Position>
            <AltitudeMeters>11.3999996185302734375</AltitudeMeters>
            <DistanceMeters>NAN</DistanceMeters>
          </Trackpoint>
          <Trackpoint>
            <Time>2021-08-11T16:01:06.000Z</Time>
            <Position>
              <LatitudeDegrees>43.3276529051363468170166015625</LatitudeDegrees>
              <LongitudeDegrees>-1.9206418655812740325927734375</LongitudeDegrees>
            </Position>
            <AltitudeMeters>11.3999996185302734375</AltitudeMeters>
            <DistanceMeters>NAN</DistanceMeters>
          </Trackpoint>
          <Trackpoint>
            <Time>2021-08-11T16:01:09.000Z</Time>
            <Position>
              <LatitudeDegrees>43.32763739861547946929931640625</LatitudeDegrees>
              <LongitudeDegrees>-1.92063373513519763946533203125</LongitudeDegrees>
            </Position>
            <AltitudeMeters>11.3999996185302734375</AltitudeMeters>
            <DistanceMeters>NAN</DistanceMeters>
          </Trackpoint>
          <Trackpoint>
            <Time>2021-08-11T16:01:10.000Z</Time>
            <Position>
              <LatitudeDegrees>43.327634297311305999755859375</LatitudeDegrees>
              <LongitudeDegrees>-1.9206507503986358642578125</LongitudeDegrees>
            </Position>
            <AltitudeMeters>11.3999996185302734375</AltitudeMeters>
            <DistanceMeters>NAN</DistanceMeters>
          </Trackpoint>
          <Trackpoint>
            <Time>2021-08-11T16:01:11.000Z</Time>
            <Position>
              <LatitudeDegrees>43.327632956206798553466796875</LatitudeDegrees>
              <LongitudeDegrees>-1.92066709510982036590576171875</LongitudeDegrees>
            </Position>
            <AltitudeMeters>11.3999996185302734375</AltitudeMeters>
            <DistanceMeters>NAN</DistanceMeters>
          </Trackpoint>
          <Trackpoint>
            <Time>2021-08-11T16:01:13.000Z</Time>
            <Position>
              <LatitudeDegrees>43.32763588987290859222412109375</LatitudeDegrees>
              <LongitudeDegrees>-1.9206936657428741455078125</LongitudeDegrees>
            </Position>
            <AltitudeMeters>11.6000003814697265625</AltitudeMeters>
            <DistanceMeters>NAN</DistanceMeters>
          </Trackpoint>
          <Trackpoint>
            <Time>2021-08-11T16:01:14.000Z</Time>
            <Position>
              <LatitudeDegrees>43.3276411704719066619873046875</LatitudeDegrees>
              <LongitudeDegrees>-1.9207105971872806549072265625</LongitudeDegrees>
            </Position>
            <AltitudeMeters>11.6000003814697265625</AltitudeMeters>
            <DistanceMeters>NAN</DistanceMeters>
          </Trackpoint>
          <Trackpoint>
            <Time>2021-08-11T16:01:15.000Z</Time>
            <Position>
              <LatitudeDegrees>43.3276475407183170318603515625</LatitudeDegrees>
              <LongitudeDegrees>-1.92072845064103603363037109375</LongitudeDegrees>
            </Position>
            <AltitudeMeters>11.6000003814697265625</AltitudeMeters>
            <DistanceMeters>NAN</DistanceMeters>
          </Trackpoint>
          <Trackpoint>
            <Time>2021-08-11T16:01:16.000Z</Time>
            <Position>
              <LatitudeDegrees>43.32764804363250732421875</LatitudeDegrees>
              <LongitudeDegrees>-1.92074395716190338134765625</LongitudeDegrees>
            </Position>
            <AltitudeMeters>11.6000003814697265625</AltitudeMeters>
            <DistanceMeters>NAN</DistanceMeters>
          </Trackpoint>
          <Trackpoint>
            <Time>2021-08-11T16:01:17.000Z</Time>
            <Position>
              <LatitudeDegrees>43.3276515640318393707275390625</LatitudeDegrees>
              <LongitudeDegrees>-1.920759044587612152099609375</LongitudeDegrees>
            </Position>
            <AltitudeMeters>11.6000003814697265625</AltitudeMeters>
            <DistanceMeters>NAN</DistanceMeters>
          </Trackpoint>
          <Trackpoint>
            <Time>2021-08-11T16:01:18.000Z</Time>
            <Position>
              <LatitudeDegrees>43.327629268169403076171875</LatitudeDegrees>
              <LongitudeDegrees>-1.920771114528179168701171875</LongitudeDegrees>
            </Position>
            <AltitudeMeters>11.6000003814697265625</AltitudeMeters>
            <DistanceMeters>NAN</DistanceMeters>
          </Trackpoint>
          <Trackpoint>
            <Time>2021-08-11T16:01:19.000Z</Time>
            <Position>
              <LatitudeDegrees>43.32762717269361019134521484375</LatitudeDegrees>
              <LongitudeDegrees>-1.92079047672450542449951171875</LongitudeDegrees>
            </Position>
            <AltitudeMeters>11.6000003814697265625</AltitudeMeters>
            <DistanceMeters>NAN</DistanceMeters>
          </Trackpoint>
          <Trackpoint>
            <Time>2021-08-11T16:01:20.000Z</Time>
            <Position>
              <LatitudeDegrees>43.3276341296732425689697265625</LatitudeDegrees>
              <LongitudeDegrees>-1.92081394605338573455810546875</LongitudeDegrees>
            </Position>
            <AltitudeMeters>11.6000003814697265625</AltitudeMeters>
            <DistanceMeters>NAN</DistanceMeters>
          </Trackpoint>
          <Trackpoint>
            <Time>2021-08-11T16:01:21.000Z</Time>
            <Position>
              <LatitudeDegrees>43.327638320624828338623046875</LatitudeDegrees>
              <LongitudeDegrees>-1.92083322443068027496337890625</LongitudeDegrees>
            </Position>
            <AltitudeMeters>11.6000003814697265625</AltitudeMeters>
            <DistanceMeters>NAN</DistanceMeters>
          </Trackpoint>
          <Trackpoint>
            <Time>2021-08-11T16:01:22.000Z</Time>
            <Position>
              <LatitudeDegrees>43.32763739861547946929931640625</LatitudeDegrees>
              <LongitudeDegrees>-1.9208628125488758087158203125</LongitudeDegrees>
            </Position>
            <AltitudeMeters>11.6000003814697265625</AltitudeMeters>
            <DistanceMeters>NAN</DistanceMeters>
          </Trackpoint>
          <Trackpoint>
            <Time>2021-08-11T16:01:23.000Z</Time>
            <Position>
              <LatitudeDegrees>43.327638991177082061767578125</LatitudeDegrees>
              <LongitudeDegrees>-1.92088234238326549530029296875</LongitudeDegrees>
            </Position>
            <AltitudeMeters>11.80000019073486328125</AltitudeMeters>
            <DistanceMeters>NAN</DistanceMeters>
          </Trackpoint>
          <Trackpoint>
            <Time>2021-08-11T16:01:24.000Z</Time>
            <Position>
              <LatitudeDegrees>43.32764544524252414703369140625</LatitudeDegrees>
              <LongitudeDegrees>-1.920893490314483642578125</LongitudeDegrees>
            </Position>
            <AltitudeMeters>11.6000003814697265625</AltitudeMeters>
            <DistanceMeters>NAN</DistanceMeters>
          </Trackpoint>
          <Trackpoint>
            <Time>2021-08-11T16:01:25.000Z</Time>
            <Position>
              <LatitudeDegrees>43.32765064202249050140380859375</LatitudeDegrees>
              <LongitudeDegrees>-1.920914612710475921630859375</LongitudeDegrees>
            </Position>
            <AltitudeMeters>11.6000003814697265625</AltitudeMeters>
            <DistanceMeters>NAN</DistanceMeters>
          </Trackpoint>
          <Trackpoint>
            <Time>2021-08-11T16:01:28.000Z</Time>
            <Position>
              <LatitudeDegrees>43.327672183513641357421875</LatitudeDegrees>
              <LongitudeDegrees>-1.9209860265254974365234375</LongitudeDegrees>
            </Position>
            <AltitudeMeters>11.6000003814697265625</AltitudeMeters>
            <DistanceMeters>NAN</DistanceMeters>
          </Trackpoint>
          <Trackpoint>
            <Time>2021-08-11T16:01:30.000Z</Time>
            <Position>
              <LatitudeDegrees>43.32767914049327373504638671875</LatitudeDegrees>
              <LongitudeDegrees>-1.92103019915521144866943359375</LongitudeDegrees>
            </Position>
            <AltitudeMeters>11.80000019073486328125</AltitudeMeters>
            <DistanceMeters>NAN</DistanceMeters>
          </Trackpoint>
          <Trackpoint>
            <Time>2021-08-11T16:01:32.000Z</Time>
            <Position>
              <LatitudeDegrees>43.32769523374736309051513671875</LatitudeDegrees>
              <LongitudeDegrees>-1.92106171511113643646240234375</LongitudeDegrees>
            </Position>
            <AltitudeMeters>11.80000019073486328125</AltitudeMeters>
            <DistanceMeters>NAN</DistanceMeters>
          </Trackpoint>
          <Trackpoint>
            <Time>2021-08-11T16:01:35.000Z</Time>
            <Position>
              <LatitudeDegrees>43.327742926776409149169921875</LatitudeDegrees>
              <LongitudeDegrees>-1.921113096177577972412109375</LongitudeDegrees>
            </Position>
            <AltitudeMeters>11.80000019073486328125</AltitudeMeters>
            <DistanceMeters>NAN</DistanceMeters>
          </Trackpoint>
          <Trackpoint>
            <Time>2021-08-11T16:01:36.000Z</Time>
            <Position>
              <LatitudeDegrees>43.32775776274502277374267578125</LatitudeDegrees>
              <LongitudeDegrees>-1.92112122662365436553955078125</LongitudeDegrees>
            </Position>
            <AltitudeMeters>11.80000019073486328125</AltitudeMeters>
            <DistanceMeters>NAN</DistanceMeters>
          </Trackpoint>
          <Trackpoint>
            <Time>2021-08-11T16:01:37.000Z</Time>
            <Position>
              <LatitudeDegrees>43.32777167670428752899169921875</LatitudeDegrees>
              <LongitudeDegrees>-1.92111737094819545745849609375</LongitudeDegrees>
            </Position>
            <AltitudeMeters>11.80000019073486328125</AltitudeMeters>
            <DistanceMeters>NAN</DistanceMeters>
          </Trackpoint>
          <Trackpoint>
            <Time>2021-08-11T16:01:38.000Z</Time>
            <Position>
              <LatitudeDegrees>43.32778357900679111480712890625</LatitudeDegrees>
              <LongitudeDegrees>-1.921131201088428497314453125</LongitudeDegrees>
            </Position>
            <AltitudeMeters>12</AltitudeMeters>
            <DistanceMeters>NAN</DistanceMeters>
          </Trackpoint>
          <Trackpoint>
            <Time>2021-08-11T16:01:40.000Z</Time>
            <Position>
              <LatitudeDegrees>43.32780788652598857879638671875</LatitudeDegrees>
              <LongitudeDegrees>-1.92114670760929584503173828125</LongitudeDegrees>
            </Position>
            <AltitudeMeters>12</AltitudeMeters>
            <DistanceMeters>NAN</DistanceMeters>
          </Trackpoint>
          <Trackpoint>
            <Time>2021-08-11T16:01:41.000Z</Time>
            <Position>
              <LatitudeDegrees>43.327810652554035186767578125</LatitudeDegrees>
              <LongitudeDegrees>-1.92115073092281818389892578125</LongitudeDegrees>
            </Position>
            <AltitudeMeters>12</AltitudeMeters>
            <DistanceMeters>NAN</DistanceMeters>
          </Trackpoint>
          <Trackpoint>
            <Time>2021-08-11T16:01:42.000Z</Time>
            <Position>
              <LatitudeDegrees>43.327808640897274017333984375</LatitudeDegrees>
              <LongitudeDegrees>-1.92116238176822662353515625</LongitudeDegrees>
            </Position>
            <AltitudeMeters>12</AltitudeMeters>
            <DistanceMeters>NAN</DistanceMeters>
          </Trackpoint>
          <Trackpoint>
            <Time>2021-08-11T16:01:43.000Z</Time>
            <Position>
              <LatitudeDegrees>43.32780319266021251678466796875</LatitudeDegrees>
              <LongitudeDegrees>-1.9211719371378421783447265625</LongitudeDegrees>
            </Position>
            <AltitudeMeters>12</AltitudeMeters>
            <DistanceMeters>NAN</DistanceMeters>
          </Trackpoint>
          <Trackpoint>
            <Time>2021-08-11T16:01:44.000Z</Time>
            <Position>
              <LatitudeDegrees>43.32780319266021251678466796875</LatitudeDegrees>
              <LongitudeDegrees>-1.9211719371378421783447265625</LongitudeDegrees>
            </Position>
            <AltitudeMeters>12</AltitudeMeters>
            <DistanceMeters>NAN</DistanceMeters>
          </Trackpoint>
          <Trackpoint>
            <Time>2021-08-11T16:01:45.000Z</Time>
            <Position>
              <LatitudeDegrees>43.32780134864151477813720703125</LatitudeDegrees>
              <LongitudeDegrees>-1.92116104066371917724609375</LongitudeDegrees>
            </Position>
            <AltitudeMeters>12</AltitudeMeters>
            <DistanceMeters>NAN</DistanceMeters>
          </Trackpoint>
          <Trackpoint>
            <Time>2021-08-11T16:01:46.000Z</Time>
            <Position>
              <LatitudeDegrees>43.3278071321547031402587890625</LatitudeDegrees>
              <LongitudeDegrees>-1.92116950638592243194580078125</LongitudeDegrees>
            </Position>
            <AltitudeMeters>12</AltitudeMeters>
            <DistanceMeters>NAN</DistanceMeters>
          </Trackpoint>
          <Trackpoint>
            <Time>2021-08-11T16:01:47.000Z</Time>
            <Position>
              <LatitudeDegrees>43.32781232893466949462890625</LatitudeDegrees>
              <LongitudeDegrees>-1.9211712665855884552001953125</LongitudeDegrees>
            </Position>
            <AltitudeMeters>12.19999980926513671875</AltitudeMeters>
            <DistanceMeters>NAN</DistanceMeters>
          </Trackpoint>
          <Trackpoint>
            <Time>2021-08-11T16:01:49.000Z</Time>
            <Position>
              <LatitudeDegrees>43.32782766781747341156005859375</LatitudeDegrees>
              <LongitudeDegrees>-1.92118744365870952606201171875</LongitudeDegrees>
            </Position>
            <AltitudeMeters>12.19999980926513671875</AltitudeMeters>
            <DistanceMeters>NAN</DistanceMeters>
          </Trackpoint>
          <Trackpoint>
            <Time>2021-08-11T16:01:51.000Z</Time>
            <Position>
              <LatitudeDegrees>43.32783185876905918121337890625</LatitudeDegrees>
              <LongitudeDegrees>-1.92119951359927654266357421875</LongitudeDegrees>
            </Position>
            <AltitudeMeters>12.19999980926513671875</AltitudeMeters>
            <DistanceMeters>NAN</DistanceMeters>
          </Trackpoint>
          <Trackpoint>
            <Time>2021-08-11T16:01:52.000Z</Time>
            <Position>
              <LatitudeDegrees>43.32784392870962619781494140625</LatitudeDegrees>
              <LongitudeDegrees>-1.92121963016688823699951171875</LongitudeDegrees>
            </Position>
            <AltitudeMeters>12.19999980926513671875</AltitudeMeters>
            <DistanceMeters>NAN</DistanceMeters>
          </Trackpoint>
          <Trackpoint>
            <Time>2021-08-11T16:01:53.000Z</Time>
            <Position>
              <LatitudeDegrees>43.3278513886034488677978515625</LatitudeDegrees>
              <LongitudeDegrees>-1.92122918553650379180908203125</LongitudeDegrees>
            </Position>
            <AltitudeMeters>12.19999980926513671875</AltitudeMeters>
            <DistanceMeters>NAN</DistanceMeters>
          </Trackpoint>
          <Trackpoint>
            <Time>2021-08-11T16:01:54.000Z</Time>
            <Position>
              <LatitudeDegrees>43.32785633392632007598876953125</LatitudeDegrees>
              <LongitudeDegrees>-1.921233795583248138427734375</LongitudeDegrees>
            </Position>
            <AltitudeMeters>12.19999980926513671875</AltitudeMeters>
            <DistanceMeters>NAN</DistanceMeters>
          </Trackpoint>
          <Trackpoint>
            <Time>2021-08-11T16:01:55.000Z</Time>
            <Position>
              <LatitudeDegrees>43.32786194980144500732421875</LatitudeDegrees>
              <LongitudeDegrees>-1.92124259658157825469970703125</LongitudeDegrees>
            </Position>
            <AltitudeMeters>12.19999980926513671875</AltitudeMeters>
            <DistanceMeters>NAN</DistanceMeters>
          </Trackpoint>
          <Trackpoint>
            <Time>2021-08-11T16:01:56.000Z</Time>
            <Position>
              <LatitudeDegrees>43.32786756567656993865966796875</LatitudeDegrees>
              <LongitudeDegrees>-1.92125299014151096343994140625</LongitudeDegrees>
            </Position>
            <AltitudeMeters>12.19999980926513671875</AltitudeMeters>
            <DistanceMeters>NAN</DistanceMeters>
          </Trackpoint>
          <Trackpoint>
            <Time>2021-08-11T16:02:07.000Z</Time>
            <Position>
              <LatitudeDegrees>43.32795674912631511688232421875</LatitudeDegrees>
              <LongitudeDegrees>-1.92134586162865161895751953125</LongitudeDegrees>
            </Position>
            <AltitudeMeters>12.3999996185302734375</AltitudeMeters>
            <DistanceMeters>NAN</DistanceMeters>
          </Trackpoint>
          <Trackpoint>
            <Time>2021-08-11T16:02:12.000Z</Time>
            <Position>
              <LatitudeDegrees>43.3280029334127902984619140625</LatitudeDegrees>
              <LongitudeDegrees>-1.92137922160327434539794921875</LongitudeDegrees>
            </Position>
            <AltitudeMeters>12.3999996185302734375</AltitudeMeters>
            <DistanceMeters>NAN</DistanceMeters>
          </Trackpoint>
          <Trackpoint>
            <Time>2021-08-11T16:02:14.000Z</Time>
            <Position>
              <LatitudeDegrees>43.32802430726587772369384765625</LatitudeDegrees>
              <LongitudeDegrees>-1.9213838316500186920166015625</LongitudeDegrees>
            </Position>
            <AltitudeMeters>12.3999996185302734375</AltitudeMeters>
            <DistanceMeters>NAN</DistanceMeters>
          </Trackpoint>
          <Trackpoint>
            <Time>2021-08-11T16:02:15.000Z</Time>
            <Position>
              <LatitudeDegrees>43.3280304260551929473876953125</LatitudeDegrees>
              <LongitudeDegrees>-1.9213905371725559234619140625</LongitudeDegrees>
            </Position>
            <AltitudeMeters>12.3999996185302734375</AltitudeMeters>
            <DistanceMeters>NAN</DistanceMeters>
          </Trackpoint>
          <Trackpoint>
            <Time>2021-08-11T16:02:18.000Z</Time>
            <Position>
              <LatitudeDegrees>43.32805062644183635711669921875</LatitudeDegrees>
              <LongitudeDegrees>-1.92141124047338962554931640625</LongitudeDegrees>
            </Position>
            <AltitudeMeters>12.3999996185302734375</AltitudeMeters>
            <DistanceMeters>NAN</DistanceMeters>
          </Trackpoint>
          <Trackpoint>
            <Time>2021-08-11T16:02:19.000Z</Time>
            <Position>
              <LatitudeDegrees>43.3280570805072784423828125</LatitudeDegrees>
              <LongitudeDegrees>-1.92141794599592685699462890625</LongitudeDegrees>
            </Position>
            <AltitudeMeters>12.19999980926513671875</AltitudeMeters>
            <DistanceMeters>NAN</DistanceMeters>
          </Trackpoint>
          <Trackpoint>
            <Time>2021-08-11T16:02:20.000Z</Time>
            <Position>
              <LatitudeDegrees>43.3280570805072784423828125</LatitudeDegrees>
              <LongitudeDegrees>-1.92141794599592685699462890625</LongitudeDegrees>
            </Position>
            <AltitudeMeters>12.19999980926513671875</AltitudeMeters>
            <DistanceMeters>NAN</DistanceMeters>
          </Trackpoint>
          <Trackpoint>
            <Time>2021-08-11T16:02:21.000Z</Time>
            <Position>
              <LatitudeDegrees>43.3280629478394985198974609375</LatitudeDegrees>
              <LongitudeDegrees>-1.92142398096621036529541015625</LongitudeDegrees>
            </Position>
            <AltitudeMeters>12.19999980926513671875</AltitudeMeters>
            <DistanceMeters>NAN</DistanceMeters>
          </Trackpoint>
          <Trackpoint>
            <Time>2021-08-11T16:02:22.000Z</Time>
            <Position>
              <LatitudeDegrees>43.32807828672230243682861328125</LatitudeDegrees>
              <LongitudeDegrees>-1.9214259088039398193359375</LongitudeDegrees>
            </Position>
            <AltitudeMeters>12.19999980926513671875</AltitudeMeters>
            <DistanceMeters>NAN</DistanceMeters>
          </Trackpoint>
          <Trackpoint>
            <Time>2021-08-11T16:02:23.000Z</Time>
            <Position>
              <LatitudeDegrees>43.32807979546487331390380859375</LatitudeDegrees>
              <LongitudeDegrees>-1.92143336869776248931884765625</LongitudeDegrees>
            </Position>
            <AltitudeMeters>12.19999980926513671875</AltitudeMeters>
            <DistanceMeters>NAN</DistanceMeters>
          </Trackpoint>
          <Trackpoint>
            <Time>2021-08-11T16:02:24.000Z</Time>
            <Position>
              <LatitudeDegrees>43.32807778380811214447021484375</LatitudeDegrees>
              <LongitudeDegrees>-1.921443007886409759521484375</LongitudeDegrees>
            </Position>
            <AltitudeMeters>12.19999980926513671875</AltitudeMeters>
            <DistanceMeters>NAN</DistanceMeters>
          </Trackpoint>
          <Trackpoint>
            <Time>2021-08-11T16:02:25.000Z</Time>
            <Position>
              <LatitudeDegrees>43.3280844055116176605224609375</LatitudeDegrees>
              <LongitudeDegrees>-1.9214515574276447296142578125</LongitudeDegrees>
            </Position>
            <AltitudeMeters>12.19999980926513671875</AltitudeMeters>
            <DistanceMeters>NAN</DistanceMeters>
          </Trackpoint>
          <Trackpoint>
            <Time>2021-08-11T16:02:26.000Z</Time>
            <Position>
              <LatitudeDegrees>43.328092955052852630615234375</LatitudeDegrees>
              <LongitudeDegrees>-1.92146010696887969970703125</LongitudeDegrees>
            </Position>
            <AltitudeMeters>12.19999980926513671875</AltitudeMeters>
            <DistanceMeters>NAN</DistanceMeters>
          </Trackpoint>
          <Trackpoint>
            <Time>2021-08-11T16:02:29.000Z</Time>
            <Position>
              <LatitudeDegrees>43.3281269855797290802001953125</LatitudeDegrees>
              <LongitudeDegrees>-1.9214820675551891326904296875</LongitudeDegrees>
            </Position>
            <AltitudeMeters>12.19999980926513671875</AltitudeMeters>
            <DistanceMeters>NAN</DistanceMeters>
          </Trackpoint>
          <Trackpoint>
            <Time>2021-08-11T16:02:30.000Z</Time>
            <Position>
              <LatitudeDegrees>43.3281390555202960968017578125</LatitudeDegrees>
              <LongitudeDegrees>-1.92148835398256778717041015625</LongitudeDegrees>
            </Position>
            <AltitudeMeters>12.19999980926513671875</AltitudeMeters>
            <DistanceMeters>NAN</DistanceMeters>
          </Trackpoint>
          <Trackpoint>
            <Time>2021-08-11T16:02:32.000Z</Time>
            <Position>
              <LatitudeDegrees>43.3281578309834003448486328125</LatitudeDegrees>
              <LongitudeDegrees>-1.92150629125535488128662109375</LongitudeDegrees>
            </Position>
            <AltitudeMeters>12.19999980926513671875</AltitudeMeters>
            <DistanceMeters>NAN</DistanceMeters>
          </Trackpoint>
          <Trackpoint>
            <Time>2021-08-11T16:02:34.000Z</Time>
            <Position>
              <LatitudeDegrees>43.32817451097071170806884765625</LatitudeDegrees>
              <LongitudeDegrees>-1.9215224683284759521484375</LongitudeDegrees>
            </Position>
            <AltitudeMeters>12.19999980926513671875</AltitudeMeters>
            <DistanceMeters>NAN</DistanceMeters>
          </Trackpoint>
          <Trackpoint>
            <Time>2021-08-11T16:02:35.000Z</Time>
            <Position>
              <LatitudeDegrees>43.32818540744483470916748046875</LatitudeDegrees>
              <LongitudeDegrees>-1.92152850329875946044921875</LongitudeDegrees>
            </Position>
            <AltitudeMeters>12.19999980926513671875</AltitudeMeters>
            <DistanceMeters>NAN</DistanceMeters>
          </Trackpoint>
          <Trackpoint>
            <Time>2021-08-11T16:02:39.000Z</Time>
            <Position>
              <LatitudeDegrees>43.3282158337533473968505859375</LatitudeDegrees>
              <LongitudeDegrees>-1.92157116718590259552001953125</LongitudeDegrees>
            </Position>
            <AltitudeMeters>12.19999980926513671875</AltitudeMeters>
            <DistanceMeters>NAN</DistanceMeters>
          </Trackpoint>
          <Trackpoint>
            <Time>2021-08-11T16:02:40.000Z</Time>
            <Position>
              <LatitudeDegrees>43.32822463475167751312255859375</LatitudeDegrees>
              <LongitudeDegrees>-1.9215829856693744659423828125</LongitudeDegrees>
            </Position>
            <AltitudeMeters>12.19999980926513671875</AltitudeMeters>
            <DistanceMeters>NAN</DistanceMeters>
          </Trackpoint>
          <Trackpoint>
            <Time>2021-08-11T16:02:41.000Z</Time>
            <Position>
              <LatitudeDegrees>43.3282349444925785064697265625</LatitudeDegrees>
              <LongitudeDegrees>-1.9215913675725460052490234375</LongitudeDegrees>
            </Position>
            <AltitudeMeters>12.19999980926513671875</AltitudeMeters>
            <DistanceMeters>NAN</DistanceMeters>
          </Trackpoint>
          <Trackpoint>
            <Time>2021-08-11T16:02:42.000Z</Time>
            <Position>
              <LatitudeDegrees>43.32824240438640117645263671875</LatitudeDegrees>
              <LongitudeDegrees>-1.92160553298890590667724609375</LongitudeDegrees>
            </Position>
            <AltitudeMeters>12.19999980926513671875</AltitudeMeters>
            <DistanceMeters>NAN</DistanceMeters>
          </Trackpoint>
          <Trackpoint>
            <Time>2021-08-11T16:02:44.000Z</Time>
            <Position>
              <LatitudeDegrees>43.32825765945017337799072265625</LatitudeDegrees>
              <LongitudeDegrees>-1.92163051106035709381103515625</LongitudeDegrees>
            </Position>
            <AltitudeMeters>12.19999980926513671875</AltitudeMeters>
            <DistanceMeters>NAN</DistanceMeters>
          </Trackpoint>
          <Trackpoint>
            <Time>2021-08-11T16:02:46.000Z</Time>
            <Position>
              <LatitudeDegrees>43.3282731659710407257080078125</LatitudeDegrees>
              <LongitudeDegrees>-1.92164652049541473388671875</LongitudeDegrees>
            </Position>
            <AltitudeMeters>12.19999980926513671875</AltitudeMeters>
            <DistanceMeters>NAN</DistanceMeters>
          </Trackpoint>
          <Trackpoint>
            <Time>2021-08-11T16:02:47.000Z</Time>
            <Position>
              <LatitudeDegrees>43.3282775245606899261474609375</LatitudeDegrees>
              <LongitudeDegrees>-1.92165817134082317352294921875</LongitudeDegrees>
            </Position>
            <AltitudeMeters>12.19999980926513671875</AltitudeMeters>
            <DistanceMeters>NAN</DistanceMeters>
          </Trackpoint>
          <Trackpoint>
            <Time>2021-08-11T16:02:48.000Z</Time>
            <Position>
              <LatitudeDegrees>43.3282795362174510955810546875</LatitudeDegrees>
              <LongitudeDegrees>-1.92167124710977077484130859375</LongitudeDegrees>
            </Position>
            <AltitudeMeters>12.19999980926513671875</AltitudeMeters>
            <DistanceMeters>NAN</DistanceMeters>
          </Trackpoint>
          <Trackpoint>
            <Time>2021-08-11T16:02:49.000Z</Time>
            <Position>
              <LatitudeDegrees>43.3282825537025928497314453125</LatitudeDegrees>
              <LongitudeDegrees>-1.92168097011744976043701171875</LongitudeDegrees>
            </Position>
            <AltitudeMeters>12.19999980926513671875</AltitudeMeters>
            <DistanceMeters>NAN</DistanceMeters>
          </Trackpoint>
          <Trackpoint>
            <Time>2021-08-11T16:02:50.000Z</Time>
            <Position>
              <LatitudeDegrees>43.32828599028289318084716796875</LatitudeDegrees>
              <LongitudeDegrees>-1.921689771115779876708984375</LongitudeDegrees>
            </Position>
            <AltitudeMeters>12.19999980926513671875</AltitudeMeters>
            <DistanceMeters>NAN</DistanceMeters>
          </Trackpoint>
          <Trackpoint>
            <Time>2021-08-11T16:02:51.000Z</Time>
            <Position>
              <LatitudeDegrees>43.32828833721578121185302734375</LatitudeDegrees>
              <LongitudeDegrees>-1.92170075140893459320068359375</LongitudeDegrees>
            </Position>
            <AltitudeMeters>12.3999996185302734375</AltitudeMeters>
            <DistanceMeters>NAN</DistanceMeters>
          </Trackpoint>
          <Trackpoint>
            <Time>2021-08-11T16:02:52.000Z</Time>
            <Position>
              <LatitudeDegrees>43.32828833721578121185302734375</LatitudeDegrees>
              <LongitudeDegrees>-1.92170075140893459320068359375</LongitudeDegrees>
            </Position>
            <AltitudeMeters>12.3999996185302734375</AltitudeMeters>
            <DistanceMeters>NAN</DistanceMeters>
          </Trackpoint>
          <Trackpoint>
            <Time>2021-08-11T16:02:53.000Z</Time>
            <Position>
              <LatitudeDegrees>43.32830225117504596710205078125</LatitudeDegrees>
              <LongitudeDegrees>-1.9217134080827236175537109375</LongitudeDegrees>
            </Position>
            <AltitudeMeters>12.3999996185302734375</AltitudeMeters>
            <DistanceMeters>NAN</DistanceMeters>
          </Trackpoint>
          <Trackpoint>
            <Time>2021-08-11T16:02:54.000Z</Time>
            <Position>
              <LatitudeDegrees>43.32831851206719875335693359375</LatitudeDegrees>
              <LongitudeDegrees>-1.92171785049140453338623046875</LongitudeDegrees>
            </Position>
            <AltitudeMeters>12.3999996185302734375</AltitudeMeters>
            <DistanceMeters>NAN</DistanceMeters>
          </Trackpoint>
          <Trackpoint>
            <Time>2021-08-11T16:02:56.000Z</Time>
            <Position>
              <LatitudeDegrees>43.3283382095396518707275390625</LatitudeDegrees>
              <LongitudeDegrees>-1.92172455601394176483154296875</LongitudeDegrees>
            </Position>
            <AltitudeMeters>12.3999996185302734375</AltitudeMeters>
            <DistanceMeters>NAN</DistanceMeters>
          </Trackpoint>
          <Trackpoint>
            <Time>2021-08-11T16:02:57.000Z</Time>
            <Position>
              <LatitudeDegrees>43.328349106013774871826171875</LatitudeDegrees>
              <LongitudeDegrees>-1.92172656767070293426513671875</LongitudeDegrees>
            </Position>
            <AltitudeMeters>12.3999996185302734375</AltitudeMeters>
            <DistanceMeters>NAN</DistanceMeters>
          </Trackpoint>
          <Trackpoint>
            <Time>2021-08-11T16:02:58.000Z</Time>
            <Position>
              <LatitudeDegrees>43.3283603377640247344970703125</LatitudeDegrees>
              <LongitudeDegrees>-1.92172908224165439605712890625</LongitudeDegrees>
            </Position>
            <AltitudeMeters>12.3999996185302734375</AltitudeMeters>
            <DistanceMeters>NAN</DistanceMeters>
          </Trackpoint>
          <Trackpoint>
            <Time>2021-08-11T16:02:59.000Z</Time>
            <Position>
              <LatitudeDegrees>43.3283603377640247344970703125</LatitudeDegrees>
              <LongitudeDegrees>-1.92172908224165439605712890625</LongitudeDegrees>
            </Position>
            <AltitudeMeters>12.3999996185302734375</AltitudeMeters>
            <DistanceMeters>NAN</DistanceMeters>
          </Trackpoint>
          <Trackpoint>
            <Time>2021-08-11T16:03:00.000Z</Time>
            <Position>
              <LatitudeDegrees>43.328381963074207305908203125</LatitudeDegrees>
              <LongitudeDegrees>-1.921731345355510711669921875</LongitudeDegrees>
            </Position>
            <AltitudeMeters>12.3999996185302734375</AltitudeMeters>
            <DistanceMeters>NAN</DistanceMeters>
          </Trackpoint>
          <Trackpoint>
            <Time>2021-08-11T16:03:02.000Z</Time>
            <Position>
              <LatitudeDegrees>43.328407108783721923828125</LatitudeDegrees>
              <LongitudeDegrees>-1.92171349190175533294677734375</LongitudeDegrees>
            </Position>
            <AltitudeMeters>12.19999980926513671875</AltitudeMeters>
            <DistanceMeters>NAN</DistanceMeters>
          </Trackpoint>
          <Trackpoint>
            <Time>2021-08-11T16:03:03.000Z</Time>
            <Position>
              <LatitudeDegrees>43.328407108783721923828125</LatitudeDegrees>
              <LongitudeDegrees>-1.92171349190175533294677734375</LongitudeDegrees>
            </Position>
            <AltitudeMeters>12</AltitudeMeters>
            <DistanceMeters>NAN</DistanceMeters>
          </Trackpoint>
          <Trackpoint>
            <Time>2021-08-11T16:03:04.000Z</Time>
            <Position>
              <LatitudeDegrees>43.32841322757303714752197265625</LatitudeDegrees>
              <LongitudeDegrees>-1.921703852713108062744140625</LongitudeDegrees>
            </Position>
            <AltitudeMeters>12</AltitudeMeters>
            <DistanceMeters>NAN</DistanceMeters>
          </Trackpoint>
          <Trackpoint>
            <Time>2021-08-11T16:03:06.000Z</Time>
            <Position>
              <LatitudeDegrees>43.32843367941677570343017578125</LatitudeDegrees>
              <LongitudeDegrees>-1.9216818921267986297607421875</LongitudeDegrees>
            </Position>
            <AltitudeMeters>11.80000019073486328125</AltitudeMeters>
            <DistanceMeters>NAN</DistanceMeters>
          </Trackpoint>
          <Trackpoint>
            <Time>2021-08-11T16:03:07.000Z</Time>
            <Position>
              <LatitudeDegrees>43.328444659709930419921875</LatitudeDegrees>
              <LongitudeDegrees>-1.92167694680392742156982421875</LongitudeDegrees>
            </Position>
            <AltitudeMeters>11.80000019073486328125</AltitudeMeters>
            <DistanceMeters>NAN</DistanceMeters>
          </Trackpoint>
          <Trackpoint>
            <Time>2021-08-11T16:03:08.000Z</Time>
            <Position>
              <LatitudeDegrees>43.328444659709930419921875</LatitudeDegrees>
              <LongitudeDegrees>-1.92167694680392742156982421875</LongitudeDegrees>
            </Position>
            <AltitudeMeters>11.80000019073486328125</AltitudeMeters>
            <DistanceMeters>NAN</DistanceMeters>
          </Trackpoint>
          <Trackpoint>
            <Time>2021-08-11T16:03:09.000Z</Time>
            <Position>
              <LatitudeDegrees>43.32846343517303466796875</LatitudeDegrees>
              <LongitudeDegrees>-1.9216637872159481048583984375</LongitudeDegrees>
            </Position>
            <AltitudeMeters>11.6000003814697265625</AltitudeMeters>
            <DistanceMeters>NAN</DistanceMeters>
          </Trackpoint>
          <Trackpoint>
            <Time>2021-08-11T16:03:10.000Z</Time>
            <Position>
              <LatitudeDegrees>43.32847575657069683074951171875</LatitudeDegrees>
              <LongitudeDegrees>-1.921659596264362335205078125</LongitudeDegrees>
            </Position>
            <AltitudeMeters>11.6000003814697265625</AltitudeMeters>
            <DistanceMeters>NAN</DistanceMeters>
          </Trackpoint>
          <Trackpoint>
            <Time>2021-08-11T16:03:11.000Z</Time>
            <Position>
              <LatitudeDegrees>43.32848832942545413970947265625</LatitudeDegrees>
              <LongitudeDegrees>-1.92165582440793514251708984375</LongitudeDegrees>
            </Position>
            <AltitudeMeters>11.3999996185302734375</AltitudeMeters>
            <DistanceMeters>NAN</DistanceMeters>
          </Trackpoint>
          <Trackpoint>
            <Time>2021-08-11T16:03:12.000Z</Time>
            <Position>
              <LatitudeDegrees>43.3284996449947357177734375</LatitudeDegrees>
              <LongitudeDegrees>-1.92165833897888660430908203125</LongitudeDegrees>
            </Position>
            <AltitudeMeters>11.3999996185302734375</AltitudeMeters>
            <DistanceMeters>NAN</DistanceMeters>
          </Trackpoint>
          <Trackpoint>
            <Time>2021-08-11T16:03:13.000Z</Time>
            <Position>
              <LatitudeDegrees>43.328514732420444488525390625</LatitudeDegrees>
              <LongitudeDegrees>-1.92165599204599857330322265625</LongitudeDegrees>
            </Position>
            <AltitudeMeters>11.3999996185302734375</AltitudeMeters>
            <DistanceMeters>NAN</DistanceMeters>
          </Trackpoint>
          <Trackpoint>
            <Time>2021-08-11T16:03:14.000Z</Time>
            <Position>
              <LatitudeDegrees>43.3285323344171047210693359375</LatitudeDegrees>
              <LongitudeDegrees>-1.9216520525515079498291015625</LongitudeDegrees>
            </Position>
            <AltitudeMeters>11.3999996185302734375</AltitudeMeters>
            <DistanceMeters>NAN</DistanceMeters>
          </Trackpoint>
          <Trackpoint>
            <Time>2021-08-11T16:03:16.000Z</Time>
            <Position>
              <LatitudeDegrees>43.32856426946818828582763671875</LatitudeDegrees>
              <LongitudeDegrees>-1.9216490350663661956787109375</LongitudeDegrees>
            </Position>
            <AltitudeMeters>11.19999980926513671875</AltitudeMeters>
            <DistanceMeters>NAN</DistanceMeters>
          </Trackpoint>
          <Trackpoint>
            <Time>2021-08-11T16:03:17.000Z</Time>
            <Position>
              <LatitudeDegrees>43.3285792730748653411865234375</LatitudeDegrees>
              <LongitudeDegrees>-1.92165062762796878814697265625</LongitudeDegrees>
            </Position>
            <AltitudeMeters>11.19999980926513671875</AltitudeMeters>
            <DistanceMeters>NAN</DistanceMeters>
          </Trackpoint>
          <Trackpoint>
            <Time>2021-08-11T16:03:18.000Z</Time>
            <Position>
              <LatitudeDegrees>43.32859343849122524261474609375</LatitudeDegrees>
              <LongitudeDegrees>-1.92165330983698368072509765625</LongitudeDegrees>
            </Position>
            <AltitudeMeters>11.19999980926513671875</AltitudeMeters>
            <DistanceMeters>NAN</DistanceMeters>
          </Trackpoint>
          <Trackpoint>
            <Time>2021-08-11T16:03:19.000Z</Time>
            <Position>
              <LatitudeDegrees>43.3286124654114246368408203125</LatitudeDegrees>
              <LongitudeDegrees>-1.9216657988727092742919921875</LongitudeDegrees>
            </Position>
            <AltitudeMeters>11.19999980926513671875</AltitudeMeters>
            <DistanceMeters>NAN</DistanceMeters>
          </Trackpoint>
          <Trackpoint>
            <Time>2021-08-11T16:03:20.000Z</Time>
            <Position>
              <LatitudeDegrees>43.3286124654114246368408203125</LatitudeDegrees>
              <LongitudeDegrees>-1.9216657988727092742919921875</LongitudeDegrees>
            </Position>
            <AltitudeMeters>11.19999980926513671875</AltitudeMeters>
            <DistanceMeters>NAN</DistanceMeters>
          </Trackpoint>
          <Trackpoint>
            <Time>2021-08-11T16:03:22.000Z</Time>
            <Position>
              <LatitudeDegrees>43.32865781150758266448974609375</LatitudeDegrees>
              <LongitudeDegrees>-1.92165791988372802734375</LongitudeDegrees>
            </Position>
            <AltitudeMeters>11</AltitudeMeters>
            <DistanceMeters>NAN</DistanceMeters>
          </Trackpoint>
          <Trackpoint>
            <Time>2021-08-11T16:03:23.000Z</Time>
            <Position>
              <LatitudeDegrees>43.32866719923913478851318359375</LatitudeDegrees>
              <LongitudeDegrees>-1.92163688130676746368408203125</LongitudeDegrees>
            </Position>
            <AltitudeMeters>11</AltitudeMeters>
            <DistanceMeters>NAN</DistanceMeters>
          </Trackpoint>
          <Trackpoint>
            <Time>2021-08-11T16:03:24.000Z</Time>
            <Position>
              <LatitudeDegrees>43.3286711387336254119873046875</LatitudeDegrees>
              <LongitudeDegrees>-1.9216275773942470550537109375</LongitudeDegrees>
            </Position>
            <AltitudeMeters>11</AltitudeMeters>
            <DistanceMeters>NAN</DistanceMeters>
          </Trackpoint>
          <Trackpoint>
            <Time>2021-08-11T16:03:25.000Z</Time>
            <Position>
              <LatitudeDegrees>43.32867776043713092803955078125</LatitudeDegrees>
              <LongitudeDegrees>-1.92163989879190921783447265625</LongitudeDegrees>
            </Position>
            <AltitudeMeters>11</AltitudeMeters>
            <DistanceMeters>NAN</DistanceMeters>
          </Trackpoint>
          <Trackpoint>
            <Time>2021-08-11T16:03:27.000Z</Time>
            <Position>
              <LatitudeDegrees>43.32870592363178730010986328125</LatitudeDegrees>
              <LongitudeDegrees>-1.92164107225835323333740234375</LongitudeDegrees>
            </Position>
            <AltitudeMeters>11.19999980926513671875</AltitudeMeters>
            <DistanceMeters>NAN</DistanceMeters>
          </Trackpoint>
          <Trackpoint>
            <Time>2021-08-11T16:03:28.000Z</Time>
            <Position>
              <LatitudeDegrees>43.32870592363178730010986328125</LatitudeDegrees>
              <LongitudeDegrees>-1.92164107225835323333740234375</LongitudeDegrees>
            </Position>
            <AltitudeMeters>11.19999980926513671875</AltitudeMeters>
            <DistanceMeters>NAN</DistanceMeters>
          </Trackpoint>
          <Trackpoint>
            <Time>2021-08-11T16:03:29.000Z</Time>
            <Position>
              <LatitudeDegrees>43.328725956380367279052734375</LatitudeDegrees>
              <LongitudeDegrees>-1.921637468039989471435546875</LongitudeDegrees>
            </Position>
            <AltitudeMeters>11.19999980926513671875</AltitudeMeters>
            <DistanceMeters>NAN</DistanceMeters>
          </Trackpoint>
          <Trackpoint>
            <Time>2021-08-11T16:03:30.000Z</Time>
            <Position>
              <LatitudeDegrees>43.3287308178842067718505859375</LatitudeDegrees>
              <LongitudeDegrees>-1.92163118161261081695556640625</LongitudeDegrees>
            </Position>
            <AltitudeMeters>11.19999980926513671875</AltitudeMeters>
            <DistanceMeters>NAN</DistanceMeters>
          </Trackpoint>
          <Trackpoint>
            <Time>2021-08-11T16:03:31.000Z</Time>
            <Position>
              <LatitudeDegrees>43.3287308178842067718505859375</LatitudeDegrees>
              <LongitudeDegrees>-1.92163118161261081695556640625</LongitudeDegrees>
            </Position>
            <AltitudeMeters>11</AltitudeMeters>
            <DistanceMeters>NAN</DistanceMeters>
          </Trackpoint>
          <Trackpoint>
            <Time>2021-08-11T16:03:32.000Z</Time>
            <Position>
              <LatitudeDegrees>43.3287308178842067718505859375</LatitudeDegrees>
              <LongitudeDegrees>-1.92162196151912212371826171875</LongitudeDegrees>
            </Position>
            <AltitudeMeters>11.19999980926513671875</AltitudeMeters>
            <DistanceMeters>NAN</DistanceMeters>
          </Trackpoint>
          <Trackpoint>
            <Time>2021-08-11T16:03:33.000Z</Time>
            <Position>
              <LatitudeDegrees>43.32872587256133556365966796875</LatitudeDegrees>
              <LongitudeDegrees>-1.92161031067371368408203125</LongitudeDegrees>
            </Position>
            <AltitudeMeters>11.19999980926513671875</AltitudeMeters>
            <DistanceMeters>NAN</DistanceMeters>
          </Trackpoint>
          <Trackpoint>
            <Time>2021-08-11T16:03:34.000Z</Time>
            <Position>
              <LatitudeDegrees>43.3287234418094158172607421875</LatitudeDegrees>
              <LongitudeDegrees>-1.9216225482523441314697265625</LongitudeDegrees>
            </Position>
            <AltitudeMeters>11</AltitudeMeters>
            <DistanceMeters>NAN</DistanceMeters>
          </Trackpoint>
          <Trackpoint>
            <Time>2021-08-11T16:03:35.000Z</Time>
            <Position>
              <LatitudeDegrees>43.3287318237125873565673828125</LatitudeDegrees>
              <LongitudeDegrees>-1.9216235540807247161865234375</LongitudeDegrees>
            </Position>
            <AltitudeMeters>11</AltitudeMeters>
            <DistanceMeters>NAN</DistanceMeters>
          </Trackpoint>
          <Trackpoint>
            <Time>2021-08-11T16:03:39.000Z</Time>
            <Position>
              <LatitudeDegrees>43.32882645539939403533935546875</LatitudeDegrees>
              <LongitudeDegrees>-1.92167476750910282135009765625</LongitudeDegrees>
            </Position>
            <AltitudeMeters>11</AltitudeMeters>
            <DistanceMeters>NAN</DistanceMeters>
          </Trackpoint>
          <Trackpoint>
            <Time>2021-08-11T16:03:41.000Z</Time>
            <Position>
              <LatitudeDegrees>43.32883601076900959014892578125</LatitudeDegrees>
              <LongitudeDegrees>-1.92186780273914337158203125</LongitudeDegrees>
            </Position>
            <AltitudeMeters>11</AltitudeMeters>
            <DistanceMeters>NAN</DistanceMeters>
          </Trackpoint>
          <Trackpoint>
            <Time>2021-08-11T16:03:42.000Z</Time>
            <Position>
              <LatitudeDegrees>43.32883559167385101318359375</LatitudeDegrees>
              <LongitudeDegrees>-1.9219655357301235198974609375</LongitudeDegrees>
            </Position>
            <AltitudeMeters>11</AltitudeMeters>
            <DistanceMeters>NAN</DistanceMeters>
          </Trackpoint>
          <Trackpoint>
            <Time>2021-08-11T16:03:43.000Z</Time>
            <Position>
              <LatitudeDegrees>43.3288417942821979522705078125</LatitudeDegrees>
              <LongitudeDegrees>-1.92201339639723300933837890625</LongitudeDegrees>
            </Position>
            <AltitudeMeters>11</AltitudeMeters>
            <DistanceMeters>NAN</DistanceMeters>
          </Trackpoint>
          <Trackpoint>
            <Time>2021-08-11T16:03:44.000Z</Time>
            <Position>
              <LatitudeDegrees>43.32885026000440120697021484375</LatitudeDegrees>
              <LongitudeDegrees>-1.9220584072172641754150390625</LongitudeDegrees>
            </Position>
            <AltitudeMeters>11</AltitudeMeters>
            <DistanceMeters>NAN</DistanceMeters>
          </Trackpoint>
          <Trackpoint>
            <Time>2021-08-11T16:03:45.000Z</Time>
            <Position>
              <LatitudeDegrees>43.3288495056331157684326171875</LatitudeDegrees>
              <LongitudeDegrees>-1.92210291512310504913330078125</LongitudeDegrees>
            </Position>
            <AltitudeMeters>11</AltitudeMeters>
            <DistanceMeters>NAN</DistanceMeters>
          </Trackpoint>
          <Trackpoint>
            <Time>2021-08-11T16:03:46.000Z</Time>
            <Position>
              <LatitudeDegrees>43.32885646261274814605712890625</LatitudeDegrees>
              <LongitudeDegrees>-1.92214901559054851531982421875</LongitudeDegrees>
            </Position>
            <AltitudeMeters>11</AltitudeMeters>
            <DistanceMeters>NAN</DistanceMeters>
          </Trackpoint>
          <Trackpoint>
            <Time>2021-08-11T16:03:47.000Z</Time>
            <Position>
              <LatitudeDegrees>43.32885646261274814605712890625</LatitudeDegrees>
              <LongitudeDegrees>-1.92214901559054851531982421875</LongitudeDegrees>
            </Position>
            <AltitudeMeters>11</AltitudeMeters>
            <DistanceMeters>NAN</DistanceMeters>
          </Trackpoint>
          <Trackpoint>
            <Time>2021-08-11T16:03:48.000Z</Time>
            <Position>
              <LatitudeDegrees>43.32886719144880771636962890625</LatitudeDegrees>
              <LongitudeDegrees>-1.9222575612366199493408203125</LongitudeDegrees>
            </Position>
            <AltitudeMeters>11</AltitudeMeters>
            <DistanceMeters>NAN</DistanceMeters>
          </Trackpoint>
          <Trackpoint>
            <Time>2021-08-11T16:03:49.000Z</Time>
            <Position>
              <LatitudeDegrees>43.3288699574768543243408203125</LatitudeDegrees>
              <LongitudeDegrees>-1.92232084460556507110595703125</LongitudeDegrees>
            </Position>
            <AltitudeMeters>11</AltitudeMeters>
            <DistanceMeters>NAN</DistanceMeters>
          </Trackpoint>
          <Trackpoint>
            <Time>2021-08-11T16:03:50.000Z</Time>
            <Position>
              <LatitudeDegrees>43.328889906406402587890625</LatitudeDegrees>
              <LongitudeDegrees>-1.92242377437651157379150390625</LongitudeDegrees>
            </Position>
            <AltitudeMeters>11.19999980926513671875</AltitudeMeters>
            <DistanceMeters>NAN</DistanceMeters>
          </Trackpoint>
          <Trackpoint>
            <Time>2021-08-11T16:03:51.000Z</Time>
            <Position>
              <LatitudeDegrees>43.32890474237501621246337890625</LatitudeDegrees>
              <LongitudeDegrees>-1.92242276854813098907470703125</LongitudeDegrees>
            </Position>
            <AltitudeMeters>11.19999980926513671875</AltitudeMeters>
            <DistanceMeters>NAN</DistanceMeters>
          </Trackpoint>
          <Trackpoint>
            <Time>2021-08-11T16:03:52.000Z</Time>
            <Position>
              <LatitudeDegrees>43.32893374375998973846435546875</LatitudeDegrees>
              <LongitudeDegrees>-1.92250692285597324371337890625</LongitudeDegrees>
            </Position>
            <AltitudeMeters>11.19999980926513671875</AltitudeMeters>
            <DistanceMeters>NAN</DistanceMeters>
          </Trackpoint>
          <Trackpoint>
            <Time>2021-08-11T16:03:55.000Z</Time>
            <Position>
              <LatitudeDegrees>43.32897783257067203521728515625</LatitudeDegrees>
              <LongitudeDegrees>-1.92264120094478130340576171875</LongitudeDegrees>
            </Position>
            <AltitudeMeters>11.19999980926513671875</AltitudeMeters>
            <DistanceMeters>NAN</DistanceMeters>
          </Trackpoint>
          <Trackpoint>
            <Time>2021-08-11T16:03:56.000Z</Time>
            <Position>
              <LatitudeDegrees>43.3289896510541439056396484375</LatitudeDegrees>
              <LongitudeDegrees>-1.92265662364661693572998046875</LongitudeDegrees>
            </Position>
            <AltitudeMeters>11.19999980926513671875</AltitudeMeters>
            <DistanceMeters>NAN</DistanceMeters>
          </Trackpoint>
          <Trackpoint>
            <Time>2021-08-11T16:03:57.000Z</Time>
            <Position>
              <LatitudeDegrees>43.32900398410856723785400390625</LatitudeDegrees>
              <LongitudeDegrees>-1.922678835690021514892578125</LongitudeDegrees>
            </Position>
            <AltitudeMeters>11.19999980926513671875</AltitudeMeters>
            <DistanceMeters>NAN</DistanceMeters>
          </Trackpoint>
          <Trackpoint>
            <Time>2021-08-11T16:03:59.000Z</Time>
            <Position>
              <LatitudeDegrees>43.32902292720973491668701171875</LatitudeDegrees>
              <LongitudeDegrees>-1.92224725149571895599365234375</LongitudeDegrees>
            </Position>
            <AltitudeMeters>11.19999980926513671875</AltitudeMeters>
            <DistanceMeters>NAN</DistanceMeters>
          </Trackpoint>
          <Trackpoint>
            <Time>2021-08-11T16:04:00.000Z</Time>
            <Position>
              <LatitudeDegrees>43.32902980037033557891845703125</LatitudeDegrees>
              <LongitudeDegrees>-1.9220879115164279937744140625</LongitudeDegrees>
            </Position>
            <AltitudeMeters>11.19999980926513671875</AltitudeMeters>
            <DistanceMeters>NAN</DistanceMeters>
          </Trackpoint>
          <Trackpoint>
            <Time>2021-08-11T16:04:01.000Z</Time>
            <Position>
              <LatitudeDegrees>43.32903206348419189453125</LatitudeDegrees>
              <LongitudeDegrees>-1.922007612884044647216796875</LongitudeDegrees>
            </Position>
            <AltitudeMeters>11.19999980926513671875</AltitudeMeters>
            <DistanceMeters>NAN</DistanceMeters>
          </Trackpoint>
          <Trackpoint>
            <Time>2021-08-11T16:04:02.000Z</Time>
            <Position>
              <LatitudeDegrees>43.32903214730322360992431640625</LatitudeDegrees>
              <LongitudeDegrees>-1.92200417630374431610107421875</LongitudeDegrees>
            </Position>
            <AltitudeMeters>11.19999980926513671875</AltitudeMeters>
            <DistanceMeters>NAN</DistanceMeters>
          </Trackpoint>
          <Trackpoint>
            <Time>2021-08-11T16:04:03.000Z</Time>
            <Position>
              <LatitudeDegrees>43.32903214730322360992431640625</LatitudeDegrees>
              <LongitudeDegrees>-1.92200417630374431610107421875</LongitudeDegrees>
            </Position>
            <AltitudeMeters>11.19999980926513671875</AltitudeMeters>
            <DistanceMeters>NAN</DistanceMeters>
          </Trackpoint>
          <Trackpoint>
            <Time>2021-08-11T16:04:04.000Z</Time>
            <Position>
              <LatitudeDegrees>43.32903281785547733306884765625</LatitudeDegrees>
              <LongitudeDegrees>-1.92200954072177410125732421875</LongitudeDegrees>
            </Position>
            <AltitudeMeters>11.19999980926513671875</AltitudeMeters>
            <DistanceMeters>NAN</DistanceMeters>
          </Trackpoint>
          <Trackpoint>
            <Time>2021-08-11T16:04:05.000Z</Time>
            <Position>
              <LatitudeDegrees>43.3290335722267627716064453125</LatitudeDegrees>
              <LongitudeDegrees>-1.92202471196651458740234375</LongitudeDegrees>
            </Position>
            <AltitudeMeters>11.19999980926513671875</AltitudeMeters>
            <DistanceMeters>NAN</DistanceMeters>
          </Trackpoint>
          <Trackpoint>
            <Time>2021-08-11T16:04:08.000Z</Time>
            <Position>
              <LatitudeDegrees>43.329035080969333648681640625</LatitudeDegrees>
              <LongitudeDegrees>-1.92203770391643047332763671875</LongitudeDegrees>
            </Position>
            <AltitudeMeters>11.3999996185302734375</AltitudeMeters>
            <DistanceMeters>NAN</DistanceMeters>
          </Trackpoint>
          <Trackpoint>
            <Time>2021-08-11T16:04:10.000Z</Time>
            <Position>
              <LatitudeDegrees>43.3290479891002178192138671875</LatitudeDegrees>
              <LongitudeDegrees>-1.922047846019268035888671875</LongitudeDegrees>
            </Position>
            <AltitudeMeters>11.3999996185302734375</AltitudeMeters>
            <DistanceMeters>NAN</DistanceMeters>
          </Trackpoint>
          <Trackpoint>
            <Time>2021-08-11T16:04:11.000Z</Time>
            <Position>
              <LatitudeDegrees>43.3290536887943744659423828125</LatitudeDegrees>
              <LongitudeDegrees>-1.922039799392223358154296875</LongitudeDegrees>
            </Position>
            <AltitudeMeters>11.6000003814697265625</AltitudeMeters>
            <DistanceMeters>NAN</DistanceMeters>
          </Trackpoint>
          <Trackpoint>
            <Time>2021-08-11T16:04:12.000Z</Time>
            <Position>
              <LatitudeDegrees>43.32906785421073436737060546875</LatitudeDegrees>
              <LongitudeDegrees>-1.92202848382294178009033203125</LongitudeDegrees>
            </Position>
            <AltitudeMeters>11.6000003814697265625</AltitudeMeters>
            <DistanceMeters>NAN</DistanceMeters>
          </Trackpoint>
          <Trackpoint>
            <Time>2021-08-11T16:04:13.000Z</Time>
            <Position>
              <LatitudeDegrees>43.329078666865825653076171875</LatitudeDegrees>
              <LongitudeDegrees>-1.9220104627311229705810546875</LongitudeDegrees>
            </Position>
            <AltitudeMeters>11.6000003814697265625</AltitudeMeters>
            <DistanceMeters>NAN</DistanceMeters>
          </Trackpoint>
          <Trackpoint>
            <Time>2021-08-11T16:04:15.000Z</Time>
            <Position>
              <LatitudeDegrees>43.32910104654729366302490234375</LatitudeDegrees>
              <LongitudeDegrees>-1.92197266034781932830810546875</LongitudeDegrees>
            </Position>
            <AltitudeMeters>11.6000003814697265625</AltitudeMeters>
            <DistanceMeters>NAN</DistanceMeters>
          </Trackpoint>
          <Trackpoint>
            <Time>2021-08-11T16:04:16.000Z</Time>
            <Position>
              <LatitudeDegrees>43.32910926081240177154541015625</LatitudeDegrees>
              <LongitudeDegrees>-1.92197148688137531280517578125</LongitudeDegrees>
            </Position>
            <AltitudeMeters>11.6000003814697265625</AltitudeMeters>
            <DistanceMeters>NAN</DistanceMeters>
          </Trackpoint>
          <Trackpoint>
            <Time>2021-08-11T16:04:17.000Z</Time>
            <Position>
              <LatitudeDegrees>43.32911630161106586456298828125</LatitudeDegrees>
              <LongitudeDegrees>-1.9219668768346309661865234375</LongitudeDegrees>
            </Position>
            <AltitudeMeters>11.80000019073486328125</AltitudeMeters>
            <DistanceMeters>NAN</DistanceMeters>
          </Trackpoint>
          <Trackpoint>
            <Time>2021-08-11T16:04:18.000Z</Time>
            <Position>
              <LatitudeDegrees>43.32912652753293514251708984375</LatitudeDegrees>
              <LongitudeDegrees>-1.9219755940139293670654296875</LongitudeDegrees>
            </Position>
            <AltitudeMeters>11.80000019073486328125</AltitudeMeters>
            <DistanceMeters>NAN</DistanceMeters>
          </Trackpoint>
          <Trackpoint>
            <Time>2021-08-11T16:04:20.000Z</Time>
            <Position>
              <LatitudeDegrees>43.32915385253727436065673828125</LatitudeDegrees>
              <LongitudeDegrees>-1.92197450436651706695556640625</LongitudeDegrees>
            </Position>
            <AltitudeMeters>12</AltitudeMeters>
            <DistanceMeters>NAN</DistanceMeters>
          </Trackpoint>
          <Trackpoint>
            <Time>2021-08-11T16:04:21.000Z</Time>
            <Position>
              <LatitudeDegrees>43.3291567862033843994140625</LatitudeDegrees>
              <LongitudeDegrees>-1.92197182215750217437744140625</LongitudeDegrees>
            </Position>
            <AltitudeMeters>12</AltitudeMeters>
            <DistanceMeters>NAN</DistanceMeters>
          </Trackpoint>
          <Trackpoint>
            <Time>2021-08-11T16:04:24.000Z</Time>
            <Position>
              <LatitudeDegrees>43.3291594684123992919921875</LatitudeDegrees>
              <LongitudeDegrees>-1.921953298151493072509765625</LongitudeDegrees>
            </Position>
            <AltitudeMeters>12.19999980926513671875</AltitudeMeters>
            <DistanceMeters>NAN</DistanceMeters>
          </Trackpoint>
          <Trackpoint>
            <Time>2021-08-11T16:04:31.000Z</Time>
            <Position>
              <LatitudeDegrees>43.32919576205313205718994140625</LatitudeDegrees>
              <LongitudeDegrees>-1.92192454822361469268798828125</LongitudeDegrees>
            </Position>
            <AltitudeMeters>12.19999980926513671875</AltitudeMeters>
            <DistanceMeters>NAN</DistanceMeters>
          </Trackpoint>
          <Trackpoint>
            <Time>2021-08-11T16:04:34.000Z</Time>
            <Position>
              <LatitudeDegrees>43.329217135906219482421875</LatitudeDegrees>
              <LongitudeDegrees>-1.92193745635449886322021484375</LongitudeDegrees>
            </Position>
            <AltitudeMeters>12.19999980926513671875</AltitudeMeters>
            <DistanceMeters>NAN</DistanceMeters>
          </Trackpoint>
          <Trackpoint>
            <Time>2021-08-11T16:04:35.000Z</Time>
            <Position>
              <LatitudeDegrees>43.3292276971042156219482421875</LatitudeDegrees>
              <LongitudeDegrees>-1.92194290459156036376953125</LongitudeDegrees>
            </Position>
            <AltitudeMeters>12.19999980926513671875</AltitudeMeters>
            <DistanceMeters>NAN</DistanceMeters>
          </Trackpoint>
          <Trackpoint>
            <Time>2021-08-11T16:04:36.000Z</Time>
            <Position>
              <LatitudeDegrees>43.32924286834895610809326171875</LatitudeDegrees>
              <LongitudeDegrees>-1.9219481013715267181396484375</LongitudeDegrees>
            </Position>
            <AltitudeMeters>12.19999980926513671875</AltitudeMeters>
            <DistanceMeters>NAN</DistanceMeters>
          </Trackpoint>
          <Trackpoint>
            <Time>2021-08-11T16:04:38.000Z</Time>
            <Position>
              <LatitudeDegrees>43.329275138676166534423828125</LatitudeDegrees>
              <LongitudeDegrees>-1.92195723764598369598388671875</LongitudeDegrees>
            </Position>
            <AltitudeMeters>12.19999980926513671875</AltitudeMeters>
            <DistanceMeters>NAN</DistanceMeters>
          </Trackpoint>
          <Trackpoint>
            <Time>2021-08-11T16:04:39.000Z</Time>
            <Position>
              <LatitudeDegrees>43.32928963936865329742431640625</LatitudeDegrees>
              <LongitudeDegrees>-1.92196360789239406585693359375</LongitudeDegrees>
            </Position>
            <AltitudeMeters>12.19999980926513671875</AltitudeMeters>
            <DistanceMeters>NAN</DistanceMeters>
          </Trackpoint>
          <Trackpoint>
            <Time>2021-08-11T16:04:41.000Z</Time>
            <Position>
              <LatitudeDegrees>43.32932149060070514678955078125</LatitudeDegrees>
              <LongitudeDegrees>-1.9219779409468173980712890625</LongitudeDegrees>
            </Position>
            <AltitudeMeters>12.3999996185302734375</AltitudeMeters>
            <DistanceMeters>NAN</DistanceMeters>
          </Trackpoint>
          <Trackpoint>
            <Time>2021-08-11T16:04:43.000Z</Time>
            <Position>
              <LatitudeDegrees>43.32934680394828319549560546875</LatitudeDegrees>
              <LongitudeDegrees>-1.9219983927905559539794921875</LongitudeDegrees>
            </Position>
            <AltitudeMeters>12.6000003814697265625</AltitudeMeters>
            <DistanceMeters>NAN</DistanceMeters>
          </Trackpoint>
          <Trackpoint>
            <Time>2021-08-11T16:04:44.000Z</Time>
            <Position>
              <LatitudeDegrees>43.32936038263142108917236328125</LatitudeDegrees>
              <LongitudeDegrees>-1.9219990633428096771240234375</LongitudeDegrees>
            </Position>
            <AltitudeMeters>12.6000003814697265625</AltitudeMeters>
            <DistanceMeters>NAN</DistanceMeters>
          </Trackpoint>
          <Trackpoint>
            <Time>2021-08-11T16:04:48.000Z</Time>
            <Position>
              <LatitudeDegrees>43.32941235043108463287353515625</LatitudeDegrees>
              <LongitudeDegrees>-1.92203787155449390411376953125</LongitudeDegrees>
            </Position>
            <AltitudeMeters>13.19999980926513671875</AltitudeMeters>
            <DistanceMeters>NAN</DistanceMeters>
          </Trackpoint>
          <Trackpoint>
            <Time>2021-08-11T16:04:49.000Z</Time>
            <Position>
              <LatitudeDegrees>43.3294251747429370880126953125</LatitudeDegrees>
              <LongitudeDegrees>-1.922045834362506866455078125</LongitudeDegrees>
            </Position>
            <AltitudeMeters>13.19999980926513671875</AltitudeMeters>
            <DistanceMeters>NAN</DistanceMeters>
          </Trackpoint>
          <Trackpoint>
            <Time>2021-08-11T16:04:51.000Z</Time>
            <Position>
              <LatitudeDegrees>43.32944805733859539031982421875</LatitudeDegrees>
              <LongitudeDegrees>-1.92206268198788166046142578125</LongitudeDegrees>
            </Position>
            <AltitudeMeters>13.3999996185302734375</AltitudeMeters>
            <DistanceMeters>NAN</DistanceMeters>
          </Trackpoint>
          <Trackpoint>
            <Time>2021-08-11T16:04:52.000Z</Time>
            <Position>
              <LatitudeDegrees>43.32944805733859539031982421875</LatitudeDegrees>
              <LongitudeDegrees>-1.92206268198788166046142578125</LongitudeDegrees>
            </Position>
            <AltitudeMeters>13.6000003814697265625</AltitudeMeters>
            <DistanceMeters>NAN</DistanceMeters>
          </Trackpoint>
          <Trackpoint>
            <Time>2021-08-11T16:04:53.000Z</Time>
            <Position>
              <LatitudeDegrees>43.32946834154427051544189453125</LatitudeDegrees>
              <LongitudeDegrees>-1.92207592539489269256591796875</LongitudeDegrees>
            </Position>
            <AltitudeMeters>13.6000003814697265625</AltitudeMeters>
            <DistanceMeters>NAN</DistanceMeters>
          </Trackpoint>
          <Trackpoint>
            <Time>2021-08-11T16:04:54.000Z</Time>
            <Position>
              <LatitudeDegrees>43.32948141731321811676025390625</LatitudeDegrees>
              <LongitudeDegrees>-1.92209319211542606353759765625</LongitudeDegrees>
            </Position>
            <AltitudeMeters>13.80000019073486328125</AltitudeMeters>
            <DistanceMeters>NAN</DistanceMeters>
          </Trackpoint>
          <Trackpoint>
            <Time>2021-08-11T16:04:55.000Z</Time>
            <Position>
              <LatitudeDegrees>43.32949684001505374908447265625</LatitudeDegrees>
              <LongitudeDegrees>-1.92211431451141834259033203125</LongitudeDegrees>
            </Position>
            <AltitudeMeters>13.80000019073486328125</AltitudeMeters>
            <DistanceMeters>NAN</DistanceMeters>
          </Trackpoint>
          <Trackpoint>
            <Time>2021-08-11T16:04:56.000Z</Time>
            <Position>
              <LatitudeDegrees>43.3295130170881748199462890625</LatitudeDegrees>
              <LongitudeDegrees>-1.92213258706033229827880859375</LongitudeDegrees>
            </Position>
            <AltitudeMeters>13.80000019073486328125</AltitudeMeters>
            <DistanceMeters>NAN</DistanceMeters>
          </Trackpoint>
          <Trackpoint>
            <Time>2021-08-11T16:04:59.000Z</Time>
            <Position>
              <LatitudeDegrees>43.32955735735595226287841796875</LatitudeDegrees>
              <LongitudeDegrees>-1.92219327203929424285888671875</LongitudeDegrees>
            </Position>
            <AltitudeMeters>14</AltitudeMeters>
            <DistanceMeters>NAN</DistanceMeters>
          </Trackpoint>
          <Trackpoint>
            <Time>2021-08-11T16:05:00.000Z</Time>
            <Position>
              <LatitudeDegrees>43.3295700140297412872314453125</LatitudeDegrees>
              <LongitudeDegrees>-1.92221841774880886077880859375</LongitudeDegrees>
            </Position>
            <AltitudeMeters>14.19999980926513671875</AltitudeMeters>
            <DistanceMeters>NAN</DistanceMeters>
          </Trackpoint>
          <Trackpoint>
            <Time>2021-08-11T16:05:04.000Z</Time>
            <Position>
              <LatitudeDegrees>43.329631872475147247314453125</LatitudeDegrees>
              <LongitudeDegrees>-1.922310031950473785400390625</LongitudeDegrees>
            </Position>
            <AltitudeMeters>14.6000003814697265625</AltitudeMeters>
            <DistanceMeters>NAN</DistanceMeters>
          </Trackpoint>
          <Trackpoint>
            <Time>2021-08-11T16:05:07.000Z</Time>
            <Position>
              <LatitudeDegrees>43.3296648971736431121826171875</LatitudeDegrees>
              <LongitudeDegrees>-1.9223541207611560821533203125</LongitudeDegrees>
            </Position>
            <AltitudeMeters>15.19999980926513671875</AltitudeMeters>
            <DistanceMeters>NAN</DistanceMeters>
          </Trackpoint>
          <Trackpoint>
            <Time>2021-08-11T16:05:09.000Z</Time>
            <Position>
              <LatitudeDegrees>43.3297017775475978851318359375</LatitudeDegrees>
              <LongitudeDegrees>-1.92241002805531024932861328125</LongitudeDegrees>
            </Position>
            <AltitudeMeters>15.6000003814697265625</AltitudeMeters>
            <DistanceMeters>NAN</DistanceMeters>
          </Trackpoint>
          <Trackpoint>
            <Time>2021-08-11T16:05:10.000Z</Time>
            <Position>
              <LatitudeDegrees>43.3297165296971797943115234375</LatitudeDegrees>
              <LongitudeDegrees>-1.92242561839520931243896484375</LongitudeDegrees>
            </Position>
            <AltitudeMeters>15.6000003814697265625</AltitudeMeters>
            <DistanceMeters>NAN</DistanceMeters>
          </Trackpoint>
          <Trackpoint>
            <Time>2021-08-11T16:05:11.000Z</Time>
            <Position>
              <LatitudeDegrees>43.3297289349138736724853515625</LatitudeDegrees>
              <LongitudeDegrees>-1.92244389094412326812744140625</LongitudeDegrees>
            </Position>
            <AltitudeMeters>15.80000019073486328125</AltitudeMeters>
            <DistanceMeters>NAN</DistanceMeters>
          </Trackpoint>
          <Trackpoint>
            <Time>2021-08-11T16:05:12.000Z</Time>
            <Position>
              <LatitudeDegrees>43.3297225646674633026123046875</LatitudeDegrees>
              <LongitudeDegrees>-1.9224687851965427398681640625</LongitudeDegrees>
            </Position>
            <AltitudeMeters>16.200000762939453125</AltitudeMeters>
            <DistanceMeters>NAN</DistanceMeters>
          </Trackpoint>
          <Trackpoint>
            <Time>2021-08-11T16:05:13.000Z</Time>
            <Position>
              <LatitudeDegrees>43.3297272585332393646240234375</LatitudeDegrees>
              <LongitudeDegrees>-1.92249007523059844970703125</LongitudeDegrees>
            </Position>
            <AltitudeMeters>16.3999996185302734375</AltitudeMeters>
            <DistanceMeters>NAN</DistanceMeters>
          </Trackpoint>
          <Trackpoint>
            <Time>2021-08-11T16:05:14.000Z</Time>
            <Position>
              <LatitudeDegrees>43.329733125865459442138671875</LatitudeDegrees>
              <LongitudeDegrees>-1.92250809632241725921630859375</LongitudeDegrees>
            </Position>
            <AltitudeMeters>16.3999996185302734375</AltitudeMeters>
            <DistanceMeters>NAN</DistanceMeters>
          </Trackpoint>
          <Trackpoint>
            <Time>2021-08-11T16:05:15.000Z</Time>
            <Position>
              <LatitudeDegrees>43.3297455310821533203125</LatitudeDegrees>
              <LongitudeDegrees>-1.922518573701381683349609375</LongitudeDegrees>
            </Position>
            <AltitudeMeters>16.3999996185302734375</AltitudeMeters>
            <DistanceMeters>NAN</DistanceMeters>
          </Trackpoint>
          <Trackpoint>
            <Time>2021-08-11T16:05:16.000Z</Time>
            <Position>
              <LatitudeDegrees>43.32975558936595916748046875</LatitudeDegrees>
              <LongitudeDegrees>-1.92251848988234996795654296875</LongitudeDegrees>
            </Position>
            <AltitudeMeters>16.3999996185302734375</AltitudeMeters>
            <DistanceMeters>NAN</DistanceMeters>
          </Trackpoint>
          <Trackpoint>
            <Time>2021-08-11T16:05:17.000Z</Time>
            <Position>
              <LatitudeDegrees>43.329765312373638153076171875</LatitudeDegrees>
              <LongitudeDegrees>-1.92252653650939464569091796875</LongitudeDegrees>
            </Position>
            <AltitudeMeters>16.3999996185302734375</AltitudeMeters>
            <DistanceMeters>NAN</DistanceMeters>
          </Trackpoint>
          <Trackpoint>
            <Time>2021-08-11T16:05:18.000Z</Time>
            <Position>
              <LatitudeDegrees>43.329765312373638153076171875</LatitudeDegrees>
              <LongitudeDegrees>-1.92252653650939464569091796875</LongitudeDegrees>
            </Position>
            <AltitudeMeters>16.3999996185302734375</AltitudeMeters>
            <DistanceMeters>NAN</DistanceMeters>
          </Trackpoint>
          <Trackpoint>
            <Time>2021-08-11T16:05:19.000Z</Time>
            <Position>
              <LatitudeDegrees>43.32979070954024791717529296875</LatitudeDegrees>
              <LongitudeDegrees>-1.92255017347633838653564453125</LongitudeDegrees>
            </Position>
            <AltitudeMeters>16.3999996185302734375</AltitudeMeters>
            <DistanceMeters>NAN</DistanceMeters>
          </Trackpoint>
          <Trackpoint>
            <Time>2021-08-11T16:05:20.000Z</Time>
            <Position>
              <LatitudeDegrees>43.32980395294725894927978515625</LatitudeDegrees>
              <LongitudeDegrees>-1.92255847156047821044921875</LongitudeDegrees>
            </Position>
            <AltitudeMeters>16.3999996185302734375</AltitudeMeters>
            <DistanceMeters>NAN</DistanceMeters>
          </Trackpoint>
          <Trackpoint>
            <Time>2021-08-11T16:05:21.000Z</Time>
            <Position>
              <LatitudeDegrees>43.3298144303262233734130859375</LatitudeDegrees>
              <LongitudeDegrees>-1.922573558986186981201171875</LongitudeDegrees>
            </Position>
            <AltitudeMeters>16.6000003814697265625</AltitudeMeters>
            <DistanceMeters>NAN</DistanceMeters>
          </Trackpoint>
          <Trackpoint>
            <Time>2021-08-11T16:05:22.000Z</Time>
            <Position>
              <LatitudeDegrees>43.32981971092522144317626953125</LatitudeDegrees>
              <LongitudeDegrees>-1.9225904904305934906005859375</LongitudeDegrees>
            </Position>
            <AltitudeMeters>16.6000003814697265625</AltitudeMeters>
            <DistanceMeters>NAN</DistanceMeters>
          </Trackpoint>
          <Trackpoint>
            <Time>2021-08-11T16:05:23.000Z</Time>
            <Position>
              <LatitudeDegrees>43.32982809282839298248291015625</LatitudeDegrees>
              <LongitudeDegrees>-1.92260733805596828460693359375</LongitudeDegrees>
            </Position>
            <AltitudeMeters>16.6000003814697265625</AltitudeMeters>
            <DistanceMeters>NAN</DistanceMeters>
          </Trackpoint>
          <Trackpoint>
            <Time>2021-08-11T16:05:24.000Z</Time>
            <Position>
              <LatitudeDegrees>43.32983479835093021392822265625</LatitudeDegrees>
              <LongitudeDegrees>-1.922623179852962493896484375</LongitudeDegrees>
            </Position>
            <AltitudeMeters>16.6000003814697265625</AltitudeMeters>
            <DistanceMeters>NAN</DistanceMeters>
          </Trackpoint>
          <Trackpoint>
            <Time>2021-08-11T16:05:25.000Z</Time>
            <Position>
              <LatitudeDegrees>43.32983479835093021392822265625</LatitudeDegrees>
              <LongitudeDegrees>-1.922623179852962493896484375</LongitudeDegrees>
            </Position>
            <AltitudeMeters>16.6000003814697265625</AltitudeMeters>
            <DistanceMeters>NAN</DistanceMeters>
          </Trackpoint>
          <Trackpoint>
            <Time>2021-08-11T16:05:26.000Z</Time>
            <Position>
              <LatitudeDegrees>43.32983647473156452178955078125</LatitudeDegrees>
              <LongitudeDegrees>-1.92267439328134059906005859375</LongitudeDegrees>
            </Position>
            <AltitudeMeters>16.6000003814697265625</AltitudeMeters>
            <DistanceMeters>NAN</DistanceMeters>
          </Trackpoint>
          <Trackpoint>
            <Time>2021-08-11T16:05:27.000Z</Time>
            <Position>
              <LatitudeDegrees>43.3298432640731334686279296875</LatitudeDegrees>
              <LongitudeDegrees>-1.92269467748701572418212890625</LongitudeDegrees>
            </Position>
            <AltitudeMeters>16.6000003814697265625</AltitudeMeters>
            <DistanceMeters>NAN</DistanceMeters>
          </Trackpoint>
          <Trackpoint>
            <Time>2021-08-11T16:05:29.000Z</Time>
            <Position>
              <LatitudeDegrees>43.32985508255660533905029296875</LatitudeDegrees>
              <LongitudeDegrees>-1.92272342741489410400390625</LongitudeDegrees>
            </Position>
            <AltitudeMeters>16.6000003814697265625</AltitudeMeters>
            <DistanceMeters>NAN</DistanceMeters>
          </Trackpoint>
          <Trackpoint>
            <Time>2021-08-11T16:05:30.000Z</Time>
            <Position>
              <LatitudeDegrees>43.32986530847847461700439453125</LatitudeDegrees>
              <LongitudeDegrees>-1.92275016568601131439208984375</LongitudeDegrees>
            </Position>
            <AltitudeMeters>16.6000003814697265625</AltitudeMeters>
            <DistanceMeters>NAN</DistanceMeters>
          </Trackpoint>
          <Trackpoint>
            <Time>2021-08-11T16:05:31.000Z</Time>
            <Position>
              <LatitudeDegrees>43.32988458685576915740966796875</LatitudeDegrees>
              <LongitudeDegrees>-1.922794170677661895751953125</LongitudeDegrees>
            </Position>
            <AltitudeMeters>16.6000003814697265625</AltitudeMeters>
            <DistanceMeters>NAN</DistanceMeters>
          </Trackpoint>
          <Trackpoint>
            <Time>2021-08-11T16:05:32.000Z</Time>
            <Position>
              <LatitudeDegrees>43.32989179529249668121337890625</LatitudeDegrees>
              <LongitudeDegrees>-1.9228112697601318359375</LongitudeDegrees>
            </Position>
            <AltitudeMeters>16.6000003814697265625</AltitudeMeters>
            <DistanceMeters>NAN</DistanceMeters>
          </Trackpoint>
          <Trackpoint>
            <Time>2021-08-11T16:05:33.000Z</Time>
            <Position>
              <LatitudeDegrees>43.329900763928890228271484375</LatitudeDegrees>
              <LongitudeDegrees>-1.922827698290348052978515625</LongitudeDegrees>
            </Position>
            <AltitudeMeters>16.6000003814697265625</AltitudeMeters>
            <DistanceMeters>NAN</DistanceMeters>
          </Trackpoint>
          <Trackpoint>
            <Time>2021-08-11T16:05:34.000Z</Time>
            <Position>
              <LatitudeDegrees>43.32990939728915691375732421875</LatitudeDegrees>
              <LongitudeDegrees>-1.92284471355378627777099609375</LongitudeDegrees>
            </Position>
            <AltitudeMeters>16.6000003814697265625</AltitudeMeters>
            <DistanceMeters>NAN</DistanceMeters>
          </Trackpoint>
          <Trackpoint>
            <Time>2021-08-11T16:05:35.000Z</Time>
            <Position>
              <LatitudeDegrees>43.32991610281169414520263671875</LatitudeDegrees>
              <LongitudeDegrees>-1.92286365665495395660400390625</LongitudeDegrees>
            </Position>
            <AltitudeMeters>16.6000003814697265625</AltitudeMeters>
            <DistanceMeters>NAN</DistanceMeters>
          </Trackpoint>
          <Trackpoint>
            <Time>2021-08-11T16:05:37.000Z</Time>
            <Position>
              <LatitudeDegrees>43.32991652190685272216796875</LatitudeDegrees>
              <LongitudeDegrees>-1.9229136966168880462646484375</LongitudeDegrees>
            </Position>
            <AltitudeMeters>16.6000003814697265625</AltitudeMeters>
            <DistanceMeters>NAN</DistanceMeters>
          </Trackpoint>
          <Trackpoint>
            <Time>2021-08-11T16:05:38.000Z</Time>
            <Position>
              <LatitudeDegrees>43.3299180306494235992431640625</LatitudeDegrees>
              <LongitudeDegrees>-1.92294714041054248809814453125</LongitudeDegrees>
            </Position>
            <AltitudeMeters>16.6000003814697265625</AltitudeMeters>
            <DistanceMeters>NAN</DistanceMeters>
          </Trackpoint>
          <Trackpoint>
            <Time>2021-08-11T16:05:39.000Z</Time>
            <Position>
              <LatitudeDegrees>43.329925239086151123046875</LatitudeDegrees>
              <LongitudeDegrees>-1.92297463305294513702392578125</LongitudeDegrees>
            </Position>
            <AltitudeMeters>16.799999237060546875</AltitudeMeters>
            <DistanceMeters>NAN</DistanceMeters>
          </Trackpoint>
          <Trackpoint>
            <Time>2021-08-11T16:05:40.000Z</Time>
            <Position>
              <LatitudeDegrees>43.32993756048381328582763671875</LatitudeDegrees>
              <LongitudeDegrees>-1.922991313040256500244140625</LongitudeDegrees>
            </Position>
            <AltitudeMeters>16.799999237060546875</AltitudeMeters>
            <DistanceMeters>NAN</DistanceMeters>
          </Trackpoint>
          <Trackpoint>
            <Time>2021-08-11T16:05:41.000Z</Time>
            <Position>
              <LatitudeDegrees>43.32995080389082431793212890625</LatitudeDegrees>
              <LongitudeDegrees>-1.92299843765795230865478515625</LongitudeDegrees>
            </Position>
            <AltitudeMeters>16.799999237060546875</AltitudeMeters>
            <DistanceMeters>NAN</DistanceMeters>
          </Trackpoint>
          <Trackpoint>
            <Time>2021-08-11T16:05:42.000Z</Time>
            <Position>
              <LatitudeDegrees>43.32996404729783535003662109375</LatitudeDegrees>
              <LongitudeDegrees>-1.92300732247531414031982421875</LongitudeDegrees>
            </Position>
            <AltitudeMeters>16.799999237060546875</AltitudeMeters>
            <DistanceMeters>NAN</DistanceMeters>
          </Trackpoint>
          <Trackpoint>
            <Time>2021-08-11T16:05:43.000Z</Time>
            <Position>
              <LatitudeDegrees>43.3299746923148632049560546875</LatitudeDegrees>
              <LongitudeDegrees>-1.9230209849774837493896484375</LongitudeDegrees>
            </Position>
            <AltitudeMeters>16.799999237060546875</AltitudeMeters>
            <DistanceMeters>NAN</DistanceMeters>
          </Trackpoint>
          <Trackpoint>
            <Time>2021-08-11T16:05:44.000Z</Time>
            <Position>
              <LatitudeDegrees>43.3299807272851467132568359375</LatitudeDegrees>
              <LongitudeDegrees>-1.92303800024092197418212890625</LongitudeDegrees>
            </Position>
            <AltitudeMeters>17</AltitudeMeters>
            <DistanceMeters>NAN</DistanceMeters>
          </Trackpoint>
          <Trackpoint>
            <Time>2021-08-11T16:05:45.000Z</Time>
            <Position>
              <LatitudeDegrees>43.3299887739121913909912109375</LatitudeDegrees>
              <LongitudeDegrees>-1.923048980534076690673828125</LongitudeDegrees>
            </Position>
            <AltitudeMeters>17</AltitudeMeters>
            <DistanceMeters>NAN</DistanceMeters>
          </Trackpoint>
          <Trackpoint>
            <Time>2021-08-11T16:05:46.000Z</Time>
            <Position>
              <LatitudeDegrees>43.3299887739121913909912109375</LatitudeDegrees>
              <LongitudeDegrees>-1.923048980534076690673828125</LongitudeDegrees>
            </Position>
            <AltitudeMeters>17</AltitudeMeters>
            <DistanceMeters>NAN</DistanceMeters>
          </Trackpoint>
          <Trackpoint>
            <Time>2021-08-11T16:05:47.000Z</Time>
            <Position>
              <LatitudeDegrees>43.329998664557933807373046875</LatitudeDegrees>
              <LongitudeDegrees>-1.92306046374142169952392578125</LongitudeDegrees>
            </Position>
            <AltitudeMeters>17</AltitudeMeters>
            <DistanceMeters>NAN</DistanceMeters>
          </Trackpoint>
          <Trackpoint>
            <Time>2021-08-11T16:05:48.000Z</Time>
            <Position>
              <LatitudeDegrees>43.33002808503806591033935546875</LatitudeDegrees>
              <LongitudeDegrees>-1.92310086451470851898193359375</LongitudeDegrees>
            </Position>
            <AltitudeMeters>17.200000762939453125</AltitudeMeters>
            <DistanceMeters>NAN</DistanceMeters>
          </Trackpoint>
          <Trackpoint>
            <Time>2021-08-11T16:05:49.000Z</Time>
            <Position>
              <LatitudeDegrees>43.33004434593021869659423828125</LatitudeDegrees>
              <LongitudeDegrees>-1.923127435147762298583984375</LongitudeDegrees>
            </Position>
            <AltitudeMeters>17.200000762939453125</AltitudeMeters>
            <DistanceMeters>NAN</DistanceMeters>
          </Trackpoint>
          <Trackpoint>
            <Time>2021-08-11T16:05:52.000Z</Time>
            <Position>
              <LatitudeDegrees>43.330095224082469940185546875</LatitudeDegrees>
              <LongitudeDegrees>-1.9231859408318996429443359375</LongitudeDegrees>
            </Position>
            <AltitudeMeters>17.6000003814697265625</AltitudeMeters>
            <DistanceMeters>NAN</DistanceMeters>
          </Trackpoint>
          <Trackpoint>
            <Time>2021-08-11T16:05:53.000Z</Time>
            <Position>
              <LatitudeDegrees>43.33011634647846221923828125</LatitudeDegrees>
              <LongitudeDegrees>-1.92320060916244983673095703125</LongitudeDegrees>
            </Position>
            <AltitudeMeters>18</AltitudeMeters>
            <DistanceMeters>NAN</DistanceMeters>
          </Trackpoint>
          <Trackpoint>
            <Time>2021-08-11T16:05:54.000Z</Time>
            <Position>
              <LatitudeDegrees>43.33013922907412052154541015625</LatitudeDegrees>
              <LongitudeDegrees>-1.92321452312171459197998046875</LongitudeDegrees>
            </Position>
            <AltitudeMeters>18.3999996185302734375</AltitudeMeters>
            <DistanceMeters>NAN</DistanceMeters>
          </Trackpoint>
          <Trackpoint>
            <Time>2021-08-11T16:05:55.000Z</Time>
            <Position>
              <LatitudeDegrees>43.33016194403171539306640625</LatitudeDegrees>
              <LongitudeDegrees>-1.9232338853180408477783203125</LongitudeDegrees>
            </Position>
            <AltitudeMeters>18.6000003814697265625</AltitudeMeters>
            <DistanceMeters>NAN</DistanceMeters>
          </Trackpoint>
          <Trackpoint>
            <Time>2021-08-11T16:05:57.000Z</Time>
            <Position>
              <LatitudeDegrees>43.33018667064607143402099609375</LatitudeDegrees>
              <LongitudeDegrees>-1.9232519902288913726806640625</LongitudeDegrees>
            </Position>
            <AltitudeMeters>19.200000762939453125</AltitudeMeters>
            <DistanceMeters>NAN</DistanceMeters>
          </Trackpoint>
          <Trackpoint>
            <Time>2021-08-11T16:05:59.000Z</Time>
            <Position>
              <LatitudeDegrees>43.33027535118162631988525390625</LatitudeDegrees>
              <LongitudeDegrees>-1.92330387420952320098876953125</LongitudeDegrees>
            </Position>
            <AltitudeMeters>19.3999996185302734375</AltitudeMeters>
            <DistanceMeters>NAN</DistanceMeters>
          </Trackpoint>
          <Trackpoint>
            <Time>2021-08-11T16:06:01.000Z</Time>
            <Position>
              <LatitudeDegrees>43.33033184520900249481201171875</LatitudeDegrees>
              <LongitudeDegrees>-1.92333019338548183441162109375</LongitudeDegrees>
            </Position>
            <AltitudeMeters>19.6000003814697265625</AltitudeMeters>
            <DistanceMeters>NAN</DistanceMeters>
          </Trackpoint>
          <Trackpoint>
            <Time>2021-08-11T16:06:02.000Z</Time>
            <Position>
              <LatitudeDegrees>43.33033184520900249481201171875</LatitudeDegrees>
              <LongitudeDegrees>-1.92333019338548183441162109375</LongitudeDegrees>
            </Position>
            <AltitudeMeters>19.6000003814697265625</AltitudeMeters>
            <DistanceMeters>NAN</DistanceMeters>
          </Trackpoint>
          <Trackpoint>
            <Time>2021-08-11T16:06:03.000Z</Time>
            <Position>
              <LatitudeDegrees>43.33037844859063625335693359375</LatitudeDegrees>
              <LongitudeDegrees>-1.92336170934140682220458984375</LongitudeDegrees>
            </Position>
            <AltitudeMeters>19.6000003814697265625</AltitudeMeters>
            <DistanceMeters>NAN</DistanceMeters>
          </Trackpoint>
          <Trackpoint>
            <Time>2021-08-11T16:06:04.000Z</Time>
            <Position>
              <LatitudeDegrees>43.33039973862469196319580078125</LatitudeDegrees>
              <LongitudeDegrees>-1.9233797304332256317138671875</LongitudeDegrees>
            </Position>
            <AltitudeMeters>19.6000003814697265625</AltitudeMeters>
            <DistanceMeters>NAN</DistanceMeters>
          </Trackpoint>
          <Trackpoint>
            <Time>2021-08-11T16:06:05.000Z</Time>
            <Position>
              <LatitudeDegrees>43.33042874000966548919677734375</LatitudeDegrees>
              <LongitudeDegrees>-1.92339909262955188751220703125</LongitudeDegrees>
            </Position>
            <AltitudeMeters>19.6000003814697265625</AltitudeMeters>
            <DistanceMeters>NAN</DistanceMeters>
          </Trackpoint>
          <Trackpoint>
            <Time>2021-08-11T16:06:06.000Z</Time>
            <Position>
              <LatitudeDegrees>43.33042874000966548919677734375</LatitudeDegrees>
              <LongitudeDegrees>-1.92339909262955188751220703125</LongitudeDegrees>
            </Position>
            <AltitudeMeters>19.6000003814697265625</AltitudeMeters>
            <DistanceMeters>NAN</DistanceMeters>
          </Trackpoint>
          <Trackpoint>
            <Time>2021-08-11T16:06:07.000Z</Time>
            <Position>
              <LatitudeDegrees>43.3304943703114986419677734375</LatitudeDegrees>
              <LongitudeDegrees>-1.9234139285981655120849609375</LongitudeDegrees>
            </Position>
            <AltitudeMeters>19.3999996185302734375</AltitudeMeters>
            <DistanceMeters>NAN</DistanceMeters>
          </Trackpoint>
          <Trackpoint>
            <Time>2021-08-11T16:06:08.000Z</Time>
            <Position>
              <LatitudeDegrees>43.330522365868091583251953125</LatitudeDegrees>
              <LongitudeDegrees>-1.92341401241719722747802734375</LongitudeDegrees>
            </Position>
            <AltitudeMeters>19</AltitudeMeters>
            <DistanceMeters>NAN</DistanceMeters>
          </Trackpoint>
          <Trackpoint>
            <Time>2021-08-11T16:06:09.000Z</Time>
            <Position>
              <LatitudeDegrees>43.33054441027343273162841796875</LatitudeDegrees>
              <LongitudeDegrees>-1.92341367714107036590576171875</LongitudeDegrees>
            </Position>
            <AltitudeMeters>19</AltitudeMeters>
            <DistanceMeters>NAN</DistanceMeters>
          </Trackpoint>
          <Trackpoint>
            <Time>2021-08-11T16:06:10.000Z</Time>
            <Position>
              <LatitudeDegrees>43.330573998391628265380859375</LatitudeDegrees>
              <LongitudeDegrees>-1.9234055466949939727783203125</LongitudeDegrees>
            </Position>
            <AltitudeMeters>19</AltitudeMeters>
            <DistanceMeters>NAN</DistanceMeters>
          </Trackpoint>
          <Trackpoint>
            <Time>2021-08-11T16:06:11.000Z</Time>
            <Position>
              <LatitudeDegrees>43.330600820481777191162109375</LatitudeDegrees>
              <LongitudeDegrees>-1.9233919680118560791015625</LongitudeDegrees>
            </Position>
            <AltitudeMeters>18.799999237060546875</AltitudeMeters>
            <DistanceMeters>NAN</DistanceMeters>
          </Trackpoint>
          <Trackpoint>
            <Time>2021-08-11T16:06:12.000Z</Time>
            <Position>
              <LatitudeDegrees>43.3306284807622432708740234375</LatitudeDegrees>
              <LongitudeDegrees>-1.9233705103397369384765625</LongitudeDegrees>
            </Position>
            <AltitudeMeters>18.3999996185302734375</AltitudeMeters>
            <DistanceMeters>NAN</DistanceMeters>
          </Trackpoint>
          <Trackpoint>
            <Time>2021-08-11T16:06:13.000Z</Time>
            <Position>
              <LatitudeDegrees>43.33064650185406208038330078125</LatitudeDegrees>
              <LongitudeDegrees>-1.92334662191569805145263671875</LongitudeDegrees>
            </Position>
            <AltitudeMeters>18.3999996185302734375</AltitudeMeters>
            <DistanceMeters>NAN</DistanceMeters>
          </Trackpoint>
          <Trackpoint>
            <Time>2021-08-11T16:06:14.000Z</Time>
            <Position>
              <LatitudeDegrees>43.3306603319942951202392578125</LatitudeDegrees>
              <LongitudeDegrees>-1.92332834936678409576416015625</LongitudeDegrees>
            </Position>
            <AltitudeMeters>18.200000762939453125</AltitudeMeters>
            <DistanceMeters>NAN</DistanceMeters>
          </Trackpoint>
          <Trackpoint>
            <Time>2021-08-11T16:06:15.000Z</Time>
            <Position>
              <LatitudeDegrees>43.3306603319942951202392578125</LatitudeDegrees>
              <LongitudeDegrees>-1.92332834936678409576416015625</LongitudeDegrees>
            </Position>
            <AltitudeMeters>18.200000762939453125</AltitudeMeters>
            <DistanceMeters>NAN</DistanceMeters>
          </Trackpoint>
          <Trackpoint>
            <Time>2021-08-11T16:06:16.000Z</Time>
            <Position>
              <LatitudeDegrees>43.330680616199970245361328125</LatitudeDegrees>
              <LongitudeDegrees>-1.92329063080251216888427734375</LongitudeDegrees>
            </Position>
            <AltitudeMeters>18.200000762939453125</AltitudeMeters>
            <DistanceMeters>NAN</DistanceMeters>
          </Trackpoint>
          <Trackpoint>
            <Time>2021-08-11T16:06:17.000Z</Time>
            <Position>
              <LatitudeDegrees>43.33068899810314178466796875</LatitudeDegrees>
              <LongitudeDegrees>-1.92326900549232959747314453125</LongitudeDegrees>
            </Position>
            <AltitudeMeters>18.200000762939453125</AltitudeMeters>
            <DistanceMeters>NAN</DistanceMeters>
          </Trackpoint>
          <Trackpoint>
            <Time>2021-08-11T16:06:18.000Z</Time>
            <Position>
              <LatitudeDegrees>43.33070048131048679351806640625</LatitudeDegrees>
              <LongitudeDegrees>-1.92324922420084476470947265625</LongitudeDegrees>
            </Position>
            <AltitudeMeters>17.799999237060546875</AltitudeMeters>
            <DistanceMeters>NAN</DistanceMeters>
          </Trackpoint>
          <Trackpoint>
            <Time>2021-08-11T16:06:19.000Z</Time>
            <Position>
              <LatitudeDegrees>43.33071741275489330291748046875</LatitudeDegrees>
              <LongitudeDegrees>-1.92323145456612110137939453125</LongitudeDegrees>
            </Position>
            <AltitudeMeters>18</AltitudeMeters>
            <DistanceMeters>NAN</DistanceMeters>
          </Trackpoint>
          <Trackpoint>
            <Time>2021-08-11T16:06:20.000Z</Time>
            <Position>
              <LatitudeDegrees>43.33071741275489330291748046875</LatitudeDegrees>
              <LongitudeDegrees>-1.92323145456612110137939453125</LongitudeDegrees>
            </Position>
            <AltitudeMeters>18</AltitudeMeters>
            <DistanceMeters>NAN</DistanceMeters>
          </Trackpoint>
          <Trackpoint>
            <Time>2021-08-11T16:06:21.000Z</Time>
            <Position>
              <LatitudeDegrees>43.3307582326233386993408203125</LatitudeDegrees>
              <LongitudeDegrees>-1.9231966696679592132568359375</LongitudeDegrees>
            </Position>
            <AltitudeMeters>18</AltitudeMeters>
            <DistanceMeters>NAN</DistanceMeters>
          </Trackpoint>
          <Trackpoint>
            <Time>2021-08-11T16:06:22.000Z</Time>
            <Position>
              <LatitudeDegrees>43.3307582326233386993408203125</LatitudeDegrees>
              <LongitudeDegrees>-1.9231966696679592132568359375</LongitudeDegrees>
            </Position>
            <AltitudeMeters>18</AltitudeMeters>
            <DistanceMeters>NAN</DistanceMeters>
          </Trackpoint>
          <Trackpoint>
            <Time>2021-08-11T16:06:23.000Z</Time>
            <Position>
              <LatitudeDegrees>43.3308184146881103515625</LatitudeDegrees>
              <LongitudeDegrees>-1.92316959612071514129638671875</LongitudeDegrees>
            </Position>
            <AltitudeMeters>18</AltitudeMeters>
            <DistanceMeters>NAN</DistanceMeters>
          </Trackpoint>
          <Trackpoint>
            <Time>2021-08-11T16:06:24.000Z</Time>
            <Position>
              <LatitudeDegrees>43.33084565587341785430908203125</LatitudeDegrees>
              <LongitudeDegrees>-1.9231661595404148101806640625</LongitudeDegrees>
            </Position>
            <AltitudeMeters>18</AltitudeMeters>
            <DistanceMeters>NAN</DistanceMeters>
          </Trackpoint>
          <Trackpoint>
            <Time>2021-08-11T16:06:25.000Z</Time>
            <Position>
              <LatitudeDegrees>43.33086929284036159515380859375</LatitudeDegrees>
              <LongitudeDegrees>-1.9231654889881610870361328125</LongitudeDegrees>
            </Position>
            <AltitudeMeters>18</AltitudeMeters>
            <DistanceMeters>NAN</DistanceMeters>
          </Trackpoint>
          <Trackpoint>
            <Time>2021-08-11T16:06:26.000Z</Time>
            <Position>
              <LatitudeDegrees>43.33089326508343219757080078125</LatitudeDegrees>
              <LongitudeDegrees>-1.9231701828539371490478515625</LongitudeDegrees>
            </Position>
            <AltitudeMeters>18.200000762939453125</AltitudeMeters>
            <DistanceMeters>NAN</DistanceMeters>
          </Trackpoint>
          <Trackpoint>
            <Time>2021-08-11T16:06:27.000Z</Time>
            <Position>
              <LatitudeDegrees>43.33089326508343219757080078125</LatitudeDegrees>
              <LongitudeDegrees>-1.9231701828539371490478515625</LongitudeDegrees>
            </Position>
            <AltitudeMeters>18.200000762939453125</AltitudeMeters>
            <DistanceMeters>NAN</DistanceMeters>
          </Trackpoint>
          <Trackpoint>
            <Time>2021-08-11T16:06:28.000Z</Time>
            <Position>
              <LatitudeDegrees>43.3309198357164859771728515625</LatitudeDegrees>
              <LongitudeDegrees>-1.92317563109099864959716796875</LongitudeDegrees>
            </Position>
            <AltitudeMeters>18.3999996185302734375</AltitudeMeters>
            <DistanceMeters>NAN</DistanceMeters>
          </Trackpoint>
          <Trackpoint>
            <Time>2021-08-11T16:06:30.000Z</Time>
            <Position>
              <LatitudeDegrees>43.33097155205905437469482421875</LatitudeDegrees>
              <LongitudeDegrees>-1.92317697219550609588623046875</LongitudeDegrees>
            </Position>
            <AltitudeMeters>18.6000003814697265625</AltitudeMeters>
            <DistanceMeters>NAN</DistanceMeters>
          </Trackpoint>
          <Trackpoint>
            <Time>2021-08-11T16:06:37.000Z</Time>
            <Position>
              <LatitudeDegrees>43.3311872184276580810546875</LatitudeDegrees>
              <LongitudeDegrees>-1.923227012157440185546875</LongitudeDegrees>
            </Position>
            <AltitudeMeters>19.200000762939453125</AltitudeMeters>
            <DistanceMeters>NAN</DistanceMeters>
          </Trackpoint>
          <Trackpoint>
            <Time>2021-08-11T16:06:39.000Z</Time>
            <Position>
              <LatitudeDegrees>43.331233821809291839599609375</LatitudeDegrees>
              <LongitudeDegrees>-1.923253498971462249755859375</LongitudeDegrees>
            </Position>
            <AltitudeMeters>19.3999996185302734375</AltitudeMeters>
            <DistanceMeters>NAN</DistanceMeters>
          </Trackpoint>
          <Trackpoint>
            <Time>2021-08-11T16:06:40.000Z</Time>
            <Position>
              <LatitudeDegrees>43.33125486038625240325927734375</LatitudeDegrees>
              <LongitudeDegrees>-1.92327554337680339813232421875</LongitudeDegrees>
            </Position>
            <AltitudeMeters>19.3999996185302734375</AltitudeMeters>
            <DistanceMeters>NAN</DistanceMeters>
          </Trackpoint>
          <Trackpoint>
            <Time>2021-08-11T16:06:41.000Z</Time>
            <Position>
              <LatitudeDegrees>43.33125486038625240325927734375</LatitudeDegrees>
              <LongitudeDegrees>-1.92327554337680339813232421875</LongitudeDegrees>
            </Position>
            <AltitudeMeters>19.6000003814697265625</AltitudeMeters>
            <DistanceMeters>NAN</DistanceMeters>
          </Trackpoint>
          <Trackpoint>
            <Time>2021-08-11T16:06:42.000Z</Time>
            <Position>
              <LatitudeDegrees>43.33129861392080783843994140625</LatitudeDegrees>
              <LongitudeDegrees>-1.9233294390141963958740234375</LongitudeDegrees>
            </Position>
            <AltitudeMeters>19.6000003814697265625</AltitudeMeters>
            <DistanceMeters>NAN</DistanceMeters>
          </Trackpoint>
          <Trackpoint>
            <Time>2021-08-11T16:06:43.000Z</Time>
            <Position>
              <LatitudeDegrees>43.33132065832614898681640625</LatitudeDegrees>
              <LongitudeDegrees>-1.9233545847237110137939453125</LongitudeDegrees>
            </Position>
            <AltitudeMeters>19.6000003814697265625</AltitudeMeters>
            <DistanceMeters>NAN</DistanceMeters>
          </Trackpoint>
          <Trackpoint>
            <Time>2021-08-11T16:06:48.000Z</Time>
            <Position>
              <LatitudeDegrees>43.331438004970550537109375</LatitudeDegrees>
              <LongitudeDegrees>-1.9234330393373966217041015625</LongitudeDegrees>
            </Position>
            <AltitudeMeters>20.200000762939453125</AltitudeMeters>
            <DistanceMeters>NAN</DistanceMeters>
          </Trackpoint>
          <Trackpoint>
            <Time>2021-08-11T16:06:50.000Z</Time>
            <Position>
              <LatitudeDegrees>43.33148402161896228790283203125</LatitudeDegrees>
              <LongitudeDegrees>-1.92344385199248790740966796875</LongitudeDegrees>
            </Position>
            <AltitudeMeters>20.200000762939453125</AltitudeMeters>
            <DistanceMeters>NAN</DistanceMeters>
          </Trackpoint>
          <Trackpoint>
            <Time>2021-08-11T16:06:51.000Z</Time>
            <Position>
              <LatitudeDegrees>43.33150413818657398223876953125</LatitudeDegrees>
              <LongitudeDegrees>-1.92344200797379016876220703125</LongitudeDegrees>
            </Position>
            <AltitudeMeters>20.6000003814697265625</AltitudeMeters>
            <DistanceMeters>NAN</DistanceMeters>
          </Trackpoint>
          <Trackpoint>
            <Time>2021-08-11T16:06:52.000Z</Time>
            <Position>
              <LatitudeDegrees>43.3315253444015979766845703125</LatitudeDegrees>
              <LongitudeDegrees>-1.92343287169933319091796875</LongitudeDegrees>
            </Position>
            <AltitudeMeters>20.6000003814697265625</AltitudeMeters>
            <DistanceMeters>NAN</DistanceMeters>
          </Trackpoint>
          <Trackpoint>
            <Time>2021-08-11T16:06:53.000Z</Time>
            <Position>
              <LatitudeDegrees>43.331542275846004486083984375</LatitudeDegrees>
              <LongitudeDegrees>-1.92342088557779788970947265625</LongitudeDegrees>
            </Position>
            <AltitudeMeters>20.799999237060546875</AltitudeMeters>
            <DistanceMeters>NAN</DistanceMeters>
          </Trackpoint>
          <Trackpoint>
            <Time>2021-08-11T16:06:54.000Z</Time>
            <Position>
              <LatitudeDegrees>43.331556022167205810546875</LatitudeDegrees>
              <LongitudeDegrees>-1.9234055466949939727783203125</LongitudeDegrees>
            </Position>
            <AltitudeMeters>20.799999237060546875</AltitudeMeters>
            <DistanceMeters>NAN</DistanceMeters>
          </Trackpoint>
          <Trackpoint>
            <Time>2021-08-11T16:06:56.000Z</Time>
            <Position>
              <LatitudeDegrees>43.33158225752413272857666015625</LatitudeDegrees>
              <LongitudeDegrees>-1.9233760423958301544189453125</LongitudeDegrees>
            </Position>
            <AltitudeMeters>20.799999237060546875</AltitudeMeters>
            <DistanceMeters>NAN</DistanceMeters>
          </Trackpoint>
          <Trackpoint>
            <Time>2021-08-11T16:06:57.000Z</Time>
            <Position>
              <LatitudeDegrees>43.3315970934927463531494140625</LatitudeDegrees>
              <LongitudeDegrees>-1.92336372099816799163818359375</LongitudeDegrees>
            </Position>
            <AltitudeMeters>20.799999237060546875</AltitudeMeters>
            <DistanceMeters>NAN</DistanceMeters>
          </Trackpoint>
          <Trackpoint>
            <Time>2021-08-11T16:06:58.000Z</Time>
            <Position>
              <LatitudeDegrees>43.33160941489040851593017578125</LatitudeDegrees>
              <LongitudeDegrees>-1.9233562611043453216552734375</LongitudeDegrees>
            </Position>
            <AltitudeMeters>20.799999237060546875</AltitudeMeters>
            <DistanceMeters>NAN</DistanceMeters>
          </Trackpoint>
          <Trackpoint>
            <Time>2021-08-11T16:06:59.000Z</Time>
            <Position>
              <LatitudeDegrees>43.33162031136453151702880859375</LatitudeDegrees>
              <LongitudeDegrees>-1.92335198633372783660888671875</LongitudeDegrees>
            </Position>
            <AltitudeMeters>20.799999237060546875</AltitudeMeters>
            <DistanceMeters>NAN</DistanceMeters>
          </Trackpoint>
          <Trackpoint>
            <Time>2021-08-11T16:07:00.000Z</Time>
            <Position>
              <LatitudeDegrees>43.3316346444189548492431640625</LatitudeDegrees>
              <LongitudeDegrees>-1.92334762774407863616943359375</LongitudeDegrees>
            </Position>
            <AltitudeMeters>20.6000003814697265625</AltitudeMeters>
            <DistanceMeters>NAN</DistanceMeters>
          </Trackpoint>
          <Trackpoint>
            <Time>2021-08-11T16:07:01.000Z</Time>
            <Position>
              <LatitudeDegrees>43.33164654672145843505859375</LatitudeDegrees>
              <LongitudeDegrees>-1.92334058694541454315185546875</LongitudeDegrees>
            </Position>
            <AltitudeMeters>20.6000003814697265625</AltitudeMeters>
            <DistanceMeters>NAN</DistanceMeters>
          </Trackpoint>
          <Trackpoint>
            <Time>2021-08-11T16:07:02.000Z</Time>
            <Position>
              <LatitudeDegrees>43.33164654672145843505859375</LatitudeDegrees>
              <LongitudeDegrees>-1.92334058694541454315185546875</LongitudeDegrees>
            </Position>
            <AltitudeMeters>20.3999996185302734375</AltitudeMeters>
            <DistanceMeters>NAN</DistanceMeters>
          </Trackpoint>
          <Trackpoint>
            <Time>2021-08-11T16:07:03.000Z</Time>
            <Position>
              <LatitudeDegrees>43.3316631428897380828857421875</LatitudeDegrees>
              <LongitudeDegrees>-1.923331953585147857666015625</LongitudeDegrees>
            </Position>
            <AltitudeMeters>20.3999996185302734375</AltitudeMeters>
            <DistanceMeters>NAN</DistanceMeters>
          </Trackpoint>
          <Trackpoint>
            <Time>2021-08-11T16:07:04.000Z</Time>
            <Position>
              <LatitudeDegrees>43.33167110569775104522705078125</LatitudeDegrees>
              <LongitudeDegrees>-1.923328936100006103515625</LongitudeDegrees>
            </Position>
            <AltitudeMeters>20.3999996185302734375</AltitudeMeters>
            <DistanceMeters>NAN</DistanceMeters>
          </Trackpoint>
          <Trackpoint>
            <Time>2021-08-11T16:07:05.000Z</Time>
            <Position>
              <LatitudeDegrees>43.33167831413447856903076171875</LatitudeDegrees>
              <LongitudeDegrees>-1.92332290112972259521484375</LongitudeDegrees>
            </Position>
            <AltitudeMeters>20.200000762939453125</AltitudeMeters>
            <DistanceMeters>NAN</DistanceMeters>
          </Trackpoint>
          <Trackpoint>
            <Time>2021-08-11T16:07:06.000Z</Time>
            <Position>
              <LatitudeDegrees>43.3316834270954132080078125</LatitudeDegrees>
              <LongitudeDegrees>-1.92331753671169281005859375</LongitudeDegrees>
            </Position>
            <AltitudeMeters>20.200000762939453125</AltitudeMeters>
            <DistanceMeters>NAN</DistanceMeters>
          </Trackpoint>
          <Trackpoint>
            <Time>2021-08-11T16:07:07.000Z</Time>
            <Position>
              <LatitudeDegrees>43.3316903002560138702392578125</LatitudeDegrees>
              <LongitudeDegrees>-1.92331292666494846343994140625</LongitudeDegrees>
            </Position>
            <AltitudeMeters>20</AltitudeMeters>
            <DistanceMeters>NAN</DistanceMeters>
          </Trackpoint>
          <Trackpoint>
            <Time>2021-08-11T16:07:08.000Z</Time>
            <Position>
              <LatitudeDegrees>43.331699185073375701904296875</LatitudeDegrees>
              <LongitudeDegrees>-1.923309154808521270751953125</LongitudeDegrees>
            </Position>
            <AltitudeMeters>20</AltitudeMeters>
            <DistanceMeters>NAN</DistanceMeters>
          </Trackpoint>
          <Trackpoint>
            <Time>2021-08-11T16:07:12.000Z</Time>
            <Position>
              <LatitudeDegrees>43.3317704312503337860107421875</LatitudeDegrees>
              <LongitudeDegrees>-1.9232794828712940216064453125</LongitudeDegrees>
            </Position>
            <AltitudeMeters>19.799999237060546875</AltitudeMeters>
            <DistanceMeters>NAN</DistanceMeters>
          </Trackpoint>
          <Trackpoint>
            <Time>2021-08-11T16:07:14.000Z</Time>
            <Position>
              <LatitudeDegrees>43.331799767911434173583984375</LatitudeDegrees>
              <LongitudeDegrees>-1.9232711009681224822998046875</LongitudeDegrees>
            </Position>
            <AltitudeMeters>19.799999237060546875</AltitudeMeters>
            <DistanceMeters>NAN</DistanceMeters>
          </Trackpoint>
          <Trackpoint>
            <Time>2021-08-11T16:07:15.000Z</Time>
            <Position>
              <LatitudeDegrees>43.33181426860392093658447265625</LatitudeDegrees>
              <LongitudeDegrees>-1.923269927501678466796875</LongitudeDegrees>
            </Position>
            <AltitudeMeters>19.6000003814697265625</AltitudeMeters>
            <DistanceMeters>NAN</DistanceMeters>
          </Trackpoint>
          <Trackpoint>
            <Time>2021-08-11T16:07:16.000Z</Time>
            <Position>
              <LatitudeDegrees>43.331829272210597991943359375</LatitudeDegrees>
              <LongitudeDegrees>-1.92327436991035938262939453125</LongitudeDegrees>
            </Position>
            <AltitudeMeters>19.6000003814697265625</AltitudeMeters>
            <DistanceMeters>NAN</DistanceMeters>
          </Trackpoint>
          <Trackpoint>
            <Time>2021-08-11T16:07:17.000Z</Time>
            <Position>
              <LatitudeDegrees>43.3318401686847209930419921875</LatitudeDegrees>
              <LongitudeDegrees>-1.923281662166118621826171875</LongitudeDegrees>
            </Position>
            <AltitudeMeters>19.6000003814697265625</AltitudeMeters>
            <DistanceMeters>NAN</DistanceMeters>
          </Trackpoint>
          <Trackpoint>
            <Time>2021-08-11T16:07:19.000Z</Time>
            <Position>
              <LatitudeDegrees>43.3318577706813812255859375</LatitudeDegrees>
              <LongitudeDegrees>-1.923311837017536163330078125</LongitudeDegrees>
            </Position>
            <AltitudeMeters>19.6000003814697265625</AltitudeMeters>
            <DistanceMeters>NAN</DistanceMeters>
          </Trackpoint>
          <Trackpoint>
            <Time>2021-08-11T16:07:20.000Z</Time>
            <Position>
              <LatitudeDegrees>43.33186539821326732635498046875</LatitudeDegrees>
              <LongitudeDegrees>-1.92332365550100803375244140625</LongitudeDegrees>
            </Position>
            <AltitudeMeters>19.6000003814697265625</AltitudeMeters>
            <DistanceMeters>NAN</DistanceMeters>
          </Trackpoint>
          <Trackpoint>
            <Time>2021-08-11T16:07:21.000Z</Time>
            <Position>
              <LatitudeDegrees>43.3318738639354705810546875</LatitudeDegrees>
              <LongitudeDegrees>-1.92333362996578216552734375</LongitudeDegrees>
            </Position>
            <AltitudeMeters>19.6000003814697265625</AltitudeMeters>
            <DistanceMeters>NAN</DistanceMeters>
          </Trackpoint>
          <Trackpoint>
            <Time>2021-08-11T16:07:22.000Z</Time>
            <Position>
              <LatitudeDegrees>43.33188618533313274383544921875</LatitudeDegrees>
              <LongitudeDegrees>-1.9233463704586029052734375</LongitudeDegrees>
            </Position>
            <AltitudeMeters>19.6000003814697265625</AltitudeMeters>
            <DistanceMeters>NAN</DistanceMeters>
          </Trackpoint>
          <Trackpoint>
            <Time>2021-08-11T16:07:23.000Z</Time>
            <Position>
              <LatitudeDegrees>43.33190328441560268402099609375</LatitudeDegrees>
              <LongitudeDegrees>-1.9233649782836437225341796875</LongitudeDegrees>
            </Position>
            <AltitudeMeters>19.6000003814697265625</AltitudeMeters>
            <DistanceMeters>NAN</DistanceMeters>
          </Trackpoint>
          <Trackpoint>
            <Time>2021-08-11T16:07:24.000Z</Time>
            <Position>
              <LatitudeDegrees>43.33192122168838977813720703125</LatitudeDegrees>
              <LongitudeDegrees>-1.92339154891669750213623046875</LongitudeDegrees>
            </Position>
            <AltitudeMeters>19.6000003814697265625</AltitudeMeters>
            <DistanceMeters>NAN</DistanceMeters>
          </Trackpoint>
          <Trackpoint>
            <Time>2021-08-11T16:07:28.000Z</Time>
            <Position>
              <LatitudeDegrees>43.3320104889571666717529296875</LatitudeDegrees>
              <LongitudeDegrees>-1.92347712814807891845703125</LongitudeDegrees>
            </Position>
            <AltitudeMeters>19.200000762939453125</AltitudeMeters>
            <DistanceMeters>NAN</DistanceMeters>
          </Trackpoint>
          <Trackpoint>
            <Time>2021-08-11T16:07:30.000Z</Time>
            <Position>
              <LatitudeDegrees>43.332064636051654815673828125</LatitudeDegrees>
              <LongitudeDegrees>-1.923443935811519622802734375</LongitudeDegrees>
            </Position>
            <AltitudeMeters>19.200000762939453125</AltitudeMeters>
            <DistanceMeters>NAN</DistanceMeters>
          </Trackpoint>
          <Trackpoint>
            <Time>2021-08-11T16:07:32.000Z</Time>
            <Position>
              <LatitudeDegrees>43.3321003429591655731201171875</LatitudeDegrees>
              <LongitudeDegrees>-1.92339272238314151763916015625</LongitudeDegrees>
            </Position>
            <AltitudeMeters>19.200000762939453125</AltitudeMeters>
            <DistanceMeters>NAN</DistanceMeters>
          </Trackpoint>
          <Trackpoint>
            <Time>2021-08-11T16:07:34.000Z</Time>
            <Position>
              <LatitudeDegrees>43.332123644649982452392578125</LatitudeDegrees>
              <LongitudeDegrees>-1.92335802130401134490966796875</LongitudeDegrees>
            </Position>
            <AltitudeMeters>19</AltitudeMeters>
            <DistanceMeters>NAN</DistanceMeters>
          </Trackpoint>
          <Trackpoint>
            <Time>2021-08-11T16:07:35.000Z</Time>
            <Position>
              <LatitudeDegrees>43.33213361911475658416748046875</LatitudeDegrees>
              <LongitudeDegrees>-1.9233490526676177978515625</LongitudeDegrees>
            </Position>
            <AltitudeMeters>19</AltitudeMeters>
            <DistanceMeters>NAN</DistanceMeters>
          </Trackpoint>
          <Trackpoint>
            <Time>2021-08-11T16:07:36.000Z</Time>
            <Position>
              <LatitudeDegrees>43.33213998936116695404052734375</LatitudeDegrees>
              <LongitudeDegrees>-1.92334444262087345123291015625</LongitudeDegrees>
            </Position>
            <AltitudeMeters>19</AltitudeMeters>
            <DistanceMeters>NAN</DistanceMeters>
          </Trackpoint>
          <Trackpoint>
            <Time>2021-08-11T16:07:40.000Z</Time>
            <Position>
              <LatitudeDegrees>43.33213948644697666168212890625</LatitudeDegrees>
              <LongitudeDegrees>-1.92334142513573169708251953125</LongitudeDegrees>
            </Position>
            <AltitudeMeters>18.6000003814697265625</AltitudeMeters>
            <DistanceMeters>NAN</DistanceMeters>
          </Trackpoint>
          <Trackpoint>
            <Time>2021-08-11T16:07:43.000Z</Time>
            <Position>
              <LatitudeDegrees>43.33213613368570804595947265625</LatitudeDegrees>
              <LongitudeDegrees>-1.92333907820284366607666015625</LongitudeDegrees>
            </Position>
            <AltitudeMeters>18.6000003814697265625</AltitudeMeters>
            <DistanceMeters>NAN</DistanceMeters>
          </Trackpoint>
          <Trackpoint>
            <Time>2021-08-11T16:09:45.000Z</Time>
            <Position>
              <LatitudeDegrees>43.332133702933788299560546875</LatitudeDegrees>
              <LongitudeDegrees>-1.92332088947296142578125</LongitudeDegrees>
            </Position>
            <AltitudeMeters>18</AltitudeMeters>
            <DistanceMeters>NAN</DistanceMeters>
          </Trackpoint>
          <Trackpoint>
            <Time>2021-08-11T16:10:43.000Z</Time>
            <Position>
              <LatitudeDegrees>43.33208969794213771820068359375</LatitudeDegrees>
              <LongitudeDegrees>-1.9233337976038455963134765625</LongitudeDegrees>
            </Position>
            <AltitudeMeters>18.200000762939453125</AltitudeMeters>
            <DistanceMeters>NAN</DistanceMeters>
          </Trackpoint>
          <Trackpoint>
            <Time>2021-08-11T16:10:45.000Z</Time>
            <Position>
              <LatitudeDegrees>43.33206673152744770050048828125</LatitudeDegrees>
              <LongitudeDegrees>-1.9233649782836437225341796875</LongitudeDegrees>
            </Position>
            <AltitudeMeters>18.200000762939453125</AltitudeMeters>
            <DistanceMeters>NAN</DistanceMeters>
          </Trackpoint>
          <Trackpoint>
            <Time>2021-08-11T16:10:47.000Z</Time>
            <Position>
              <LatitudeDegrees>43.3320433460175991058349609375</LatitudeDegrees>
              <LongitudeDegrees>-1.92340898327529430389404296875</LongitudeDegrees>
            </Position>
            <AltitudeMeters>18.200000762939453125</AltitudeMeters>
            <DistanceMeters>NAN</DistanceMeters>
          </Trackpoint>
          <Trackpoint>
            <Time>2021-08-11T16:10:48.000Z</Time>
            <Position>
              <LatitudeDegrees>43.332033120095729827880859375</LatitudeDegrees>
              <LongitudeDegrees>-1.92342750728130340576171875</LongitudeDegrees>
            </Position>
            <AltitudeMeters>18.200000762939453125</AltitudeMeters>
            <DistanceMeters>NAN</DistanceMeters>
          </Trackpoint>
          <Trackpoint>
            <Time>2021-08-11T16:10:50.000Z</Time>
            <Position>
              <LatitudeDegrees>43.3320064656436443328857421875</LatitudeDegrees>
              <LongitudeDegrees>-1.9234635494649410247802734375</LongitudeDegrees>
            </Position>
            <AltitudeMeters>18.3999996185302734375</AltitudeMeters>
            <DistanceMeters>NAN</DistanceMeters>
          </Trackpoint>
          <Trackpoint>
            <Time>2021-08-11T16:10:51.000Z</Time>
            <Position>
              <LatitudeDegrees>43.33199112676084041595458984375</LatitudeDegrees>
              <LongitudeDegrees>-1.92346447147428989410400390625</LongitudeDegrees>
            </Position>
            <AltitudeMeters>18.3999996185302734375</AltitudeMeters>
            <DistanceMeters>NAN</DistanceMeters>
          </Trackpoint>
          <Trackpoint>
            <Time>2021-08-11T16:10:52.000Z</Time>
            <Position>
              <LatitudeDegrees>43.33197771571576595306396484375</LatitudeDegrees>
              <LongitudeDegrees>-1.9234534911811351776123046875</LongitudeDegrees>
            </Position>
            <AltitudeMeters>18.3999996185302734375</AltitudeMeters>
            <DistanceMeters>NAN</DistanceMeters>
          </Trackpoint>
          <Trackpoint>
            <Time>2021-08-11T16:10:55.000Z</Time>
            <Position>
              <LatitudeDegrees>43.33192876540124416351318359375</LatitudeDegrees>
              <LongitudeDegrees>-1.92342440597712993621826171875</LongitudeDegrees>
            </Position>
            <AltitudeMeters>18.6000003814697265625</AltitudeMeters>
            <DistanceMeters>NAN</DistanceMeters>
          </Trackpoint>
          <Trackpoint>
            <Time>2021-08-11T16:10:56.000Z</Time>
            <Position>
              <LatitudeDegrees>43.33191066049039363861083984375</LatitudeDegrees>
              <LongitudeDegrees>-1.923410408198833465576171875</LongitudeDegrees>
            </Position>
            <AltitudeMeters>18.6000003814697265625</AltitudeMeters>
            <DistanceMeters>NAN</DistanceMeters>
          </Trackpoint>
          <Trackpoint>
            <Time>2021-08-11T16:10:58.000Z</Time>
            <Position>
              <LatitudeDegrees>43.331886939704418182373046875</LatitudeDegrees>
              <LongitudeDegrees>-1.9233636371791362762451171875</LongitudeDegrees>
            </Position>
            <AltitudeMeters>19</AltitudeMeters>
            <DistanceMeters>NAN</DistanceMeters>
          </Trackpoint>
          <Trackpoint>
            <Time>2021-08-11T16:10:59.000Z</Time>
            <Position>
              <LatitudeDegrees>43.33187243901193141937255859375</LatitudeDegrees>
              <LongitudeDegrees>-1.92334167659282684326171875</LongitudeDegrees>
            </Position>
            <AltitudeMeters>19</AltitudeMeters>
            <DistanceMeters>NAN</DistanceMeters>
          </Trackpoint>
          <Trackpoint>
            <Time>2021-08-11T16:11:00.000Z</Time>
            <Position>
              <LatitudeDegrees>43.33185718394815921783447265625</LatitudeDegrees>
              <LongitudeDegrees>-1.9233249127864837646484375</LongitudeDegrees>
            </Position>
            <AltitudeMeters>19.200000762939453125</AltitudeMeters>
            <DistanceMeters>NAN</DistanceMeters>
          </Trackpoint>
          <Trackpoint>
            <Time>2021-08-11T16:11:03.000Z</Time>
            <Position>
              <LatitudeDegrees>43.33180957473814487457275390625</LatitudeDegrees>
              <LongitudeDegrees>-1.92328040488064289093017578125</LongitudeDegrees>
            </Position>
            <AltitudeMeters>19.200000762939453125</AltitudeMeters>
            <DistanceMeters>NAN</DistanceMeters>
          </Trackpoint>
          <Trackpoint>
            <Time>2021-08-11T16:11:04.000Z</Time>
            <Position>
              <LatitudeDegrees>43.33178191445767879486083984375</LatitudeDegrees>
              <LongitudeDegrees>-1.92326347343623638153076171875</LongitudeDegrees>
            </Position>
            <AltitudeMeters>19.3999996185302734375</AltitudeMeters>
            <DistanceMeters>NAN</DistanceMeters>
          </Trackpoint>
          <Trackpoint>
            <Time>2021-08-11T16:11:05.000Z</Time>
            <Position>
              <LatitudeDegrees>43.3317576907575130462646484375</LatitudeDegrees>
              <LongitudeDegrees>-1.9232620485126972198486328125</LongitudeDegrees>
            </Position>
            <AltitudeMeters>19.3999996185302734375</AltitudeMeters>
            <DistanceMeters>NAN</DistanceMeters>
          </Trackpoint>
          <Trackpoint>
            <Time>2021-08-11T16:11:06.000Z</Time>
            <Position>
              <LatitudeDegrees>43.3317369036376476287841796875</LatitudeDegrees>
              <LongitudeDegrees>-1.9232677482068538665771484375</LongitudeDegrees>
            </Position>
            <AltitudeMeters>19.3999996185302734375</AltitudeMeters>
            <DistanceMeters>NAN</DistanceMeters>
          </Trackpoint>
          <Trackpoint>
            <Time>2021-08-11T16:11:07.000Z</Time>
            <Position>
              <LatitudeDegrees>43.33171620033681392669677734375</LatitudeDegrees>
              <LongitudeDegrees>-1.92327168770134449005126953125</LongitudeDegrees>
            </Position>
            <AltitudeMeters>19.3999996185302734375</AltitudeMeters>
            <DistanceMeters>NAN</DistanceMeters>
          </Trackpoint>
          <Trackpoint>
            <Time>2021-08-11T16:11:08.000Z</Time>
            <Position>
              <LatitudeDegrees>43.331693150103092193603515625</LatitudeDegrees>
              <LongitudeDegrees>-1.92328224889934062957763671875</LongitudeDegrees>
            </Position>
            <AltitudeMeters>19.3999996185302734375</AltitudeMeters>
            <DistanceMeters>NAN</DistanceMeters>
          </Trackpoint>
          <Trackpoint>
            <Time>2021-08-11T16:11:09.000Z</Time>
            <Position>
              <LatitudeDegrees>43.3316728658974170684814453125</LatitudeDegrees>
              <LongitudeDegrees>-1.92329633049666881561279296875</LongitudeDegrees>
            </Position>
            <AltitudeMeters>19.3999996185302734375</AltitudeMeters>
            <DistanceMeters>NAN</DistanceMeters>
          </Trackpoint>
          <Trackpoint>
            <Time>2021-08-11T16:11:10.000Z</Time>
            <Position>
              <LatitudeDegrees>43.3316728658974170684814453125</LatitudeDegrees>
              <LongitudeDegrees>-1.92329633049666881561279296875</LongitudeDegrees>
            </Position>
            <AltitudeMeters>19.3999996185302734375</AltitudeMeters>
            <DistanceMeters>NAN</DistanceMeters>
          </Trackpoint>
          <Trackpoint>
            <Time>2021-08-11T16:11:11.000Z</Time>
            <Position>
              <LatitudeDegrees>43.3316286094486713409423828125</LatitudeDegrees>
              <LongitudeDegrees>-1.92333354614675045013427734375</LongitudeDegrees>
            </Position>
            <AltitudeMeters>19.6000003814697265625</AltitudeMeters>
            <DistanceMeters>NAN</DistanceMeters>
          </Trackpoint>
          <Trackpoint>
            <Time>2021-08-11T16:11:12.000Z</Time>
            <Position>
              <LatitudeDegrees>43.3316061459481716156005859375</LatitudeDegrees>
              <LongitudeDegrees>-1.92335550673305988311767578125</LongitudeDegrees>
            </Position>
            <AltitudeMeters>19.6000003814697265625</AltitudeMeters>
            <DistanceMeters>NAN</DistanceMeters>
          </Trackpoint>
          <Trackpoint>
            <Time>2021-08-11T16:11:13.000Z</Time>
            <Position>
              <LatitudeDegrees>43.33158410154283046722412109375</LatitudeDegrees>
              <LongitudeDegrees>-1.923370175063610076904296875</LongitudeDegrees>
            </Position>
            <AltitudeMeters>19.6000003814697265625</AltitudeMeters>
            <DistanceMeters>NAN</DistanceMeters>
          </Trackpoint>
          <Trackpoint>
            <Time>2021-08-11T16:11:15.000Z</Time>
            <Position>
              <LatitudeDegrees>43.3315481431782245635986328125</LatitudeDegrees>
              <LongitudeDegrees>-1.9233985058963298797607421875</LongitudeDegrees>
            </Position>
            <AltitudeMeters>19.6000003814697265625</AltitudeMeters>
            <DistanceMeters>NAN</DistanceMeters>
          </Trackpoint>
          <Trackpoint>
            <Time>2021-08-11T16:11:16.000Z</Time>
            <Position>
              <LatitudeDegrees>43.33153255283832550048828125</LatitudeDegrees>
              <LongitudeDegrees>-1.92341920919716358184814453125</LongitudeDegrees>
            </Position>
            <AltitudeMeters>19.6000003814697265625</AltitudeMeters>
            <DistanceMeters>NAN</DistanceMeters>
          </Trackpoint>
          <Trackpoint>
            <Time>2021-08-11T16:11:17.000Z</Time>
            <Position>
              <LatitudeDegrees>43.3315119333565235137939453125</LatitudeDegrees>
              <LongitudeDegrees>-1.92343278788030147552490234375</LongitudeDegrees>
            </Position>
            <AltitudeMeters>19.6000003814697265625</AltitudeMeters>
            <DistanceMeters>NAN</DistanceMeters>
          </Trackpoint>
          <Trackpoint>
            <Time>2021-08-11T16:11:21.000Z</Time>
            <Position>
              <LatitudeDegrees>43.3314150385558605194091796875</LatitudeDegrees>
              <LongitudeDegrees>-1.9234320335090160369873046875</LongitudeDegrees>
            </Position>
            <AltitudeMeters>19.799999237060546875</AltitudeMeters>
            <DistanceMeters>NAN</DistanceMeters>
          </Trackpoint>
          <Trackpoint>
            <Time>2021-08-11T16:11:22.000Z</Time>
            <Position>
              <LatitudeDegrees>43.331392072141170501708984375</LatitudeDegrees>
              <LongitudeDegrees>-1.9234152697026729583740234375</LongitudeDegrees>
            </Position>
            <AltitudeMeters>20</AltitudeMeters>
            <DistanceMeters>NAN</DistanceMeters>
          </Trackpoint>
          <Trackpoint>
            <Time>2021-08-11T16:11:23.000Z</Time>
            <Position>
              <LatitudeDegrees>43.3313697762787342071533203125</LatitudeDegrees>
              <LongitudeDegrees>-1.923398673534393310546875</LongitudeDegrees>
            </Position>
            <AltitudeMeters>20.200000762939453125</AltitudeMeters>
            <DistanceMeters>NAN</DistanceMeters>
          </Trackpoint>
          <Trackpoint>
            <Time>2021-08-11T16:11:24.000Z</Time>
            <Position>
              <LatitudeDegrees>43.3313535153865814208984375</LatitudeDegrees>
              <LongitudeDegrees>-1.92338249646127223968505859375</LongitudeDegrees>
            </Position>
            <AltitudeMeters>20.200000762939453125</AltitudeMeters>
            <DistanceMeters>NAN</DistanceMeters>
          </Trackpoint>
          <Trackpoint>
            <Time>2021-08-11T16:11:30.000Z</Time>
            <Position>
              <LatitudeDegrees>43.331229798495769500732421875</LatitudeDegrees>
              <LongitudeDegrees>-1.92327998578548431396484375</LongitudeDegrees>
            </Position>
            <AltitudeMeters>20.200000762939453125</AltitudeMeters>
            <DistanceMeters>NAN</DistanceMeters>
          </Trackpoint>
          <Trackpoint>
            <Time>2021-08-11T16:11:31.000Z</Time>
            <Position>
              <LatitudeDegrees>43.33121865056455135345458984375</LatitudeDegrees>
              <LongitudeDegrees>-1.92327328026294708251953125</LongitudeDegrees>
            </Position>
            <AltitudeMeters>20.200000762939453125</AltitudeMeters>
            <DistanceMeters>NAN</DistanceMeters>
          </Trackpoint>
          <Trackpoint>
            <Time>2021-08-11T16:11:32.000Z</Time>
            <Position>
              <LatitudeDegrees>43.3312068320810794830322265625</LatitudeDegrees>
              <LongitudeDegrees>-1.92326481454074382781982421875</LongitudeDegrees>
            </Position>
            <AltitudeMeters>20.200000762939453125</AltitudeMeters>
            <DistanceMeters>NAN</DistanceMeters>
          </Trackpoint>
          <Trackpoint>
            <Time>2021-08-11T16:11:33.000Z</Time>
            <Position>
              <LatitudeDegrees>43.3311924152076244354248046875</LatitudeDegrees>
              <LongitudeDegrees>-1.9232556782662868499755859375</LongitudeDegrees>
            </Position>
            <AltitudeMeters>20</AltitudeMeters>
            <DistanceMeters>NAN</DistanceMeters>
          </Trackpoint>
          <Trackpoint>
            <Time>2021-08-11T16:11:39.000Z</Time>
            <Position>
              <LatitudeDegrees>43.33105922676622867584228515625</LatitudeDegrees>
              <LongitudeDegrees>-1.92322039045393466949462890625</LongitudeDegrees>
            </Position>
            <AltitudeMeters>19.799999237060546875</AltitudeMeters>
            <DistanceMeters>NAN</DistanceMeters>
          </Trackpoint>
          <Trackpoint>
            <Time>2021-08-11T16:11:45.000Z</Time>
            <Position>
              <LatitudeDegrees>43.3309376053512096405029296875</LatitudeDegrees>
              <LongitudeDegrees>-1.92321754060685634613037109375</LongitudeDegrees>
            </Position>
            <AltitudeMeters>19.200000762939453125</AltitudeMeters>
            <DistanceMeters>NAN</DistanceMeters>
          </Trackpoint>
          <Trackpoint>
            <Time>2021-08-11T16:11:46.000Z</Time>
            <Position>
              <LatitudeDegrees>43.33092427812516689300537109375</LatitudeDegrees>
              <LongitudeDegrees>-1.9232191331684589385986328125</LongitudeDegrees>
            </Position>
            <AltitudeMeters>19</AltitudeMeters>
            <DistanceMeters>NAN</DistanceMeters>
          </Trackpoint>
          <Trackpoint>
            <Time>2021-08-11T16:11:47.000Z</Time>
            <Position>
              <LatitudeDegrees>43.33090600557625293731689453125</LatitudeDegrees>
              <LongitudeDegrees>-1.92321502603590488433837890625</LongitudeDegrees>
            </Position>
            <AltitudeMeters>19</AltitudeMeters>
            <DistanceMeters>NAN</DistanceMeters>
          </Trackpoint>
          <Trackpoint>
            <Time>2021-08-11T16:11:48.000Z</Time>
            <Position>
              <LatitudeDegrees>43.3308866433799266815185546875</LatitudeDegrees>
              <LongitudeDegrees>-1.923211254179477691650390625</LongitudeDegrees>
            </Position>
            <AltitudeMeters>19</AltitudeMeters>
            <DistanceMeters>NAN</DistanceMeters>
          </Trackpoint>
          <Trackpoint>
            <Time>2021-08-11T16:11:50.000Z</Time>
            <Position>
              <LatitudeDegrees>43.33084314130246639251708984375</LatitudeDegrees>
              <LongitudeDegrees>-1.92321368493139743804931640625</LongitudeDegrees>
            </Position>
            <AltitudeMeters>18.799999237060546875</AltitudeMeters>
            <DistanceMeters>NAN</DistanceMeters>
          </Trackpoint>
          <Trackpoint>
            <Time>2021-08-11T16:11:51.000Z</Time>
            <Position>
              <LatitudeDegrees>43.33082201890647411346435546875</LatitudeDegrees>
              <LongitudeDegrees>-1.92321519367396831512451171875</LongitudeDegrees>
            </Position>
            <AltitudeMeters>18.6000003814697265625</AltitudeMeters>
            <DistanceMeters>NAN</DistanceMeters>
          </Trackpoint>
          <Trackpoint>
            <Time>2021-08-11T16:11:54.000Z</Time>
            <Position>
              <LatitudeDegrees>43.33076401613652706146240234375</LatitudeDegrees>
              <LongitudeDegrees>-1.923236735165119171142578125</LongitudeDegrees>
            </Position>
            <AltitudeMeters>18.3999996185302734375</AltitudeMeters>
            <DistanceMeters>NAN</DistanceMeters>
          </Trackpoint>
          <Trackpoint>
            <Time>2021-08-11T16:11:55.000Z</Time>
            <Position>
              <LatitudeDegrees>43.33074540831148624420166015625</LatitudeDegrees>
              <LongitudeDegrees>-1.9232553429901599884033203125</LongitudeDegrees>
            </Position>
            <AltitudeMeters>18.3999996185302734375</AltitudeMeters>
            <DistanceMeters>NAN</DistanceMeters>
          </Trackpoint>
          <Trackpoint>
            <Time>2021-08-11T16:11:57.000Z</Time>
            <Position>
              <LatitudeDegrees>43.3307139761745929718017578125</LatitudeDegrees>
              <LongitudeDegrees>-1.92331912927329540252685546875</LongitudeDegrees>
            </Position>
            <AltitudeMeters>18.200000762939453125</AltitudeMeters>
            <DistanceMeters>NAN</DistanceMeters>
          </Trackpoint>
          <Trackpoint>
            <Time>2021-08-11T16:11:58.000Z</Time>
            <Position>
              <LatitudeDegrees>43.3306975476443767547607421875</LatitudeDegrees>
              <LongitudeDegrees>-1.9233519025146961212158203125</LongitudeDegrees>
            </Position>
            <AltitudeMeters>18</AltitudeMeters>
            <DistanceMeters>NAN</DistanceMeters>
          </Trackpoint>
          <Trackpoint>
            <Time>2021-08-11T16:11:59.000Z</Time>
            <Position>
              <LatitudeDegrees>43.33068254403769969940185546875</LatitudeDegrees>
              <LongitudeDegrees>-1.923370845615863800048828125</LongitudeDegrees>
            </Position>
            <AltitudeMeters>18</AltitudeMeters>
            <DistanceMeters>NAN</DistanceMeters>
          </Trackpoint>
          <Trackpoint>
            <Time>2021-08-11T16:12:01.000Z</Time>
            <Position>
              <LatitudeDegrees>43.3306392095983028411865234375</LatitudeDegrees>
              <LongitudeDegrees>-1.92339423112571239471435546875</LongitudeDegrees>
            </Position>
            <AltitudeMeters>18</AltitudeMeters>
            <DistanceMeters>NAN</DistanceMeters>
          </Trackpoint>
          <Trackpoint>
            <Time>2021-08-11T16:12:02.000Z</Time>
            <Position>
              <LatitudeDegrees>43.330620937049388885498046875</LatitudeDegrees>
              <LongitudeDegrees>-1.9234075583517551422119140625</LongitudeDegrees>
            </Position>
            <AltitudeMeters>17.799999237060546875</AltitudeMeters>
            <DistanceMeters>NAN</DistanceMeters>
          </Trackpoint>
          <Trackpoint>
            <Time>2021-08-11T16:12:03.000Z</Time>
            <Position>
              <LatitudeDegrees>43.3305993117392063140869140625</LatitudeDegrees>
              <LongitudeDegrees>-1.92344737239181995391845703125</LongitudeDegrees>
            </Position>
            <AltitudeMeters>17.6000003814697265625</AltitudeMeters>
            <DistanceMeters>NAN</DistanceMeters>
          </Trackpoint>
          <Trackpoint>
            <Time>2021-08-11T16:12:04.000Z</Time>
            <Position>
              <LatitudeDegrees>43.3305781893432140350341796875</LatitudeDegrees>
              <LongitudeDegrees>-1.923455335199832916259765625</LongitudeDegrees>
            </Position>
            <AltitudeMeters>17.6000003814697265625</AltitudeMeters>
            <DistanceMeters>NAN</DistanceMeters>
          </Trackpoint>
          <Trackpoint>
            <Time>2021-08-11T16:12:05.000Z</Time>
            <Position>
              <LatitudeDegrees>43.33055715076625347137451171875</LatitudeDegrees>
              <LongitudeDegrees>-1.923454664647579193115234375</LongitudeDegrees>
            </Position>
            <AltitudeMeters>17.6000003814697265625</AltitudeMeters>
            <DistanceMeters>NAN</DistanceMeters>
          </Trackpoint>
          <Trackpoint>
            <Time>2021-08-11T16:12:07.000Z</Time>
            <Position>
              <LatitudeDegrees>43.33051021210849285125732421875</LatitudeDegrees>
              <LongitudeDegrees>-1.92345491610467433929443359375</LongitudeDegrees>
            </Position>
            <AltitudeMeters>17.6000003814697265625</AltitudeMeters>
            <DistanceMeters>NAN</DistanceMeters>
          </Trackpoint>
          <Trackpoint>
            <Time>2021-08-11T16:12:08.000Z</Time>
            <Position>
              <LatitudeDegrees>43.3304900117218494415283203125</LatitudeDegrees>
              <LongitudeDegrees>-1.9234501384198665618896484375</LongitudeDegrees>
            </Position>
            <AltitudeMeters>17.6000003814697265625</AltitudeMeters>
            <DistanceMeters>NAN</DistanceMeters>
          </Trackpoint>
          <Trackpoint>
            <Time>2021-08-11T16:12:09.000Z</Time>
            <Position>
              <LatitudeDegrees>43.3304719068109989166259765625</LatitudeDegrees>
              <LongitudeDegrees>-1.92344217561185359954833984375</LongitudeDegrees>
            </Position>
            <AltitudeMeters>17.799999237060546875</AltitudeMeters>
            <DistanceMeters>NAN</DistanceMeters>
          </Trackpoint>
          <Trackpoint>
            <Time>2021-08-11T16:12:10.000Z</Time>
            <Position>
              <LatitudeDegrees>43.33045430481433868408203125</LatitudeDegrees>
              <LongitudeDegrees>-1.92342859692871570587158203125</LongitudeDegrees>
            </Position>
            <AltitudeMeters>17.799999237060546875</AltitudeMeters>
            <DistanceMeters>NAN</DistanceMeters>
          </Trackpoint>
          <Trackpoint>
            <Time>2021-08-11T16:12:11.000Z</Time>
            <Position>
              <LatitudeDegrees>43.33043829537928104400634765625</LatitudeDegrees>
              <LongitudeDegrees>-1.92342122085392475128173828125</LongitudeDegrees>
            </Position>
            <AltitudeMeters>17.799999237060546875</AltitudeMeters>
            <DistanceMeters>NAN</DistanceMeters>
          </Trackpoint>
          <Trackpoint>
            <Time>2021-08-11T16:12:12.000Z</Time>
            <Position>
              <LatitudeDegrees>43.33042287267744541168212890625</LatitudeDegrees>
              <LongitudeDegrees>-1.92341183312237262725830078125</LongitudeDegrees>
            </Position>
            <AltitudeMeters>18</AltitudeMeters>
            <DistanceMeters>NAN</DistanceMeters>
          </Trackpoint>
          <Trackpoint>
            <Time>2021-08-11T16:12:14.000Z</Time>
            <Position>
              <LatitudeDegrees>43.33039051853120326995849609375</LatitudeDegrees>
              <LongitudeDegrees>-1.923393309116363525390625</LongitudeDegrees>
            </Position>
            <AltitudeMeters>18</AltitudeMeters>
            <DistanceMeters>NAN</DistanceMeters>
          </Trackpoint>
          <Trackpoint>
            <Time>2021-08-11T16:12:17.000Z</Time>
            <Position>
              <LatitudeDegrees>43.33035229705274105072021484375</LatitudeDegrees>
              <LongitudeDegrees>-1.92337176762521266937255859375</LongitudeDegrees>
            </Position>
            <AltitudeMeters>18.200000762939453125</AltitudeMeters>
            <DistanceMeters>NAN</DistanceMeters>
          </Trackpoint>
          <Trackpoint>
            <Time>2021-08-11T16:12:18.000Z</Time>
            <Position>
              <LatitudeDegrees>43.330332599580287933349609375</LatitudeDegrees>
              <LongitudeDegrees>-1.92336506210267543792724609375</LongitudeDegrees>
            </Position>
            <AltitudeMeters>18.200000762939453125</AltitudeMeters>
            <DistanceMeters>NAN</DistanceMeters>
          </Trackpoint>
          <Trackpoint>
            <Time>2021-08-11T16:12:19.000Z</Time>
            <Position>
              <LatitudeDegrees>43.3303180150687694549560546875</LatitudeDegrees>
              <LongitudeDegrees>-1.92335181869566440582275390625</LongitudeDegrees>
            </Position>
            <AltitudeMeters>18.3999996185302734375</AltitudeMeters>
            <DistanceMeters>NAN</DistanceMeters>
          </Trackpoint>
          <Trackpoint>
            <Time>2021-08-11T16:12:20.000Z</Time>
            <Position>
              <LatitudeDegrees>43.33030435256659984588623046875</LatitudeDegrees>
              <LongitudeDegrees>-1.92334343679249286651611328125</LongitudeDegrees>
            </Position>
            <AltitudeMeters>18.3999996185302734375</AltitudeMeters>
            <DistanceMeters>NAN</DistanceMeters>
          </Trackpoint>
          <Trackpoint>
            <Time>2021-08-11T16:12:21.000Z</Time>
            <Position>
              <LatitudeDegrees>43.3302886784076690673828125</LatitudeDegrees>
              <LongitudeDegrees>-1.92333304323256015777587890625</LongitudeDegrees>
            </Position>
            <AltitudeMeters>18.6000003814697265625</AltitudeMeters>
            <DistanceMeters>NAN</DistanceMeters>
          </Trackpoint>
          <Trackpoint>
            <Time>2021-08-11T16:12:23.000Z</Time>
            <Position>
              <LatitudeDegrees>43.33025984466075897216796875</LatitudeDegrees>
              <LongitudeDegrees>-1.923313848674297332763671875</LongitudeDegrees>
            </Position>
            <AltitudeMeters>18.6000003814697265625</AltitudeMeters>
            <DistanceMeters>NAN</DistanceMeters>
          </Trackpoint>
          <Trackpoint>
            <Time>2021-08-11T16:12:24.000Z</Time>
            <Position>
              <LatitudeDegrees>43.33024241030216217041015625</LatitudeDegrees>
              <LongitudeDegrees>-1.92330102436244487762451171875</LongitudeDegrees>
            </Position>
            <AltitudeMeters>18.6000003814697265625</AltitudeMeters>
            <DistanceMeters>NAN</DistanceMeters>
          </Trackpoint>
          <Trackpoint>
            <Time>2021-08-11T16:12:25.000Z</Time>
            <Position>
              <LatitudeDegrees>43.330228328704833984375</LatitudeDegrees>
              <LongitudeDegrees>-1.9232861883938312530517578125</LongitudeDegrees>
            </Position>
            <AltitudeMeters>18.6000003814697265625</AltitudeMeters>
            <DistanceMeters>NAN</DistanceMeters>
          </Trackpoint>
          <Trackpoint>
            <Time>2021-08-11T16:12:26.000Z</Time>
            <Position>
              <LatitudeDegrees>43.3302160911262035369873046875</LatitudeDegrees>
              <LongitudeDegrees>-1.92327101714909076690673828125</LongitudeDegrees>
            </Position>
            <AltitudeMeters>18.799999237060546875</AltitudeMeters>
            <DistanceMeters>NAN</DistanceMeters>
          </Trackpoint>
          <Trackpoint>
            <Time>2021-08-11T16:12:27.000Z</Time>
            <Position>
              <LatitudeDegrees>43.3302028477191925048828125</LatitudeDegrees>
              <LongitudeDegrees>-1.92325986921787261962890625</LongitudeDegrees>
            </Position>
            <AltitudeMeters>18.799999237060546875</AltitudeMeters>
            <DistanceMeters>NAN</DistanceMeters>
          </Trackpoint>
          <Trackpoint>
            <Time>2021-08-11T16:12:28.000Z</Time>
            <Position>
              <LatitudeDegrees>43.33018432371318340301513671875</LatitudeDegrees>
              <LongitudeDegrees>-1.9232496432960033416748046875</LongitudeDegrees>
            </Position>
            <AltitudeMeters>19</AltitudeMeters>
            <DistanceMeters>NAN</DistanceMeters>
          </Trackpoint>
          <Trackpoint>
            <Time>2021-08-11T16:12:31.000Z</Time>
            <Position>
              <LatitudeDegrees>43.3301299251616001129150390625</LatitudeDegrees>
              <LongitudeDegrees>-1.9232189655303955078125</LongitudeDegrees>
            </Position>
            <AltitudeMeters>19.200000762939453125</AltitudeMeters>
            <DistanceMeters>NAN</DistanceMeters>
          </Trackpoint>
          <Trackpoint>
            <Time>2021-08-11T16:12:32.000Z</Time>
            <Position>
              <LatitudeDegrees>43.33011659793555736541748046875</LatitudeDegrees>
              <LongitudeDegrees>-1.92321117036044597625732421875</LongitudeDegrees>
            </Position>
            <AltitudeMeters>19.3999996185302734375</AltitudeMeters>
            <DistanceMeters>NAN</DistanceMeters>
          </Trackpoint>
          <Trackpoint>
            <Time>2021-08-11T16:12:33.000Z</Time>
            <Position>
              <LatitudeDegrees>43.33009933121502399444580078125</LatitudeDegrees>
              <LongitudeDegrees>-1.9231956638395786285400390625</LongitudeDegrees>
            </Position>
            <AltitudeMeters>19.3999996185302734375</AltitudeMeters>
            <DistanceMeters>NAN</DistanceMeters>
          </Trackpoint>
          <Trackpoint>
            <Time>2021-08-11T16:12:34.000Z</Time>
            <Position>
              <LatitudeDegrees>43.33007737062871456146240234375</LatitudeDegrees>
              <LongitudeDegrees>-1.923179067671298980712890625</LongitudeDegrees>
            </Position>
            <AltitudeMeters>19.3999996185302734375</AltitudeMeters>
            <DistanceMeters>NAN</DistanceMeters>
          </Trackpoint>
          <Trackpoint>
            <Time>2021-08-11T16:12:36.000Z</Time>
            <Position>
              <LatitudeDegrees>43.33004803396761417388916015625</LatitudeDegrees>
              <LongitudeDegrees>-1.923158951103687286376953125</LongitudeDegrees>
            </Position>
            <AltitudeMeters>19.3999996185302734375</AltitudeMeters>
            <DistanceMeters>NAN</DistanceMeters>
          </Trackpoint>
          <Trackpoint>
            <Time>2021-08-11T16:12:37.000Z</Time>
            <Position>
              <LatitudeDegrees>43.33003395237028598785400390625</LatitudeDegrees>
              <LongitudeDegrees>-1.9231505692005157470703125</LongitudeDegrees>
            </Position>
            <AltitudeMeters>19.3999996185302734375</AltitudeMeters>
            <DistanceMeters>NAN</DistanceMeters>
          </Trackpoint>
          <Trackpoint>
            <Time>2021-08-11T16:12:38.000Z</Time>
            <Position>
              <LatitudeDegrees>43.330024145543575286865234375</LatitudeDegrees>
              <LongitudeDegrees>-1.92313891835510730743408203125</LongitudeDegrees>
            </Position>
            <AltitudeMeters>19.3999996185302734375</AltitudeMeters>
            <DistanceMeters>NAN</DistanceMeters>
          </Trackpoint>
          <Trackpoint>
            <Time>2021-08-11T16:12:39.000Z</Time>
            <Position>
              <LatitudeDegrees>43.33001232706010341644287109375</LatitudeDegrees>
              <LongitudeDegrees>-1.92311913706362247467041015625</LongitudeDegrees>
            </Position>
            <AltitudeMeters>19.3999996185302734375</AltitudeMeters>
            <DistanceMeters>NAN</DistanceMeters>
          </Trackpoint>
          <Trackpoint>
            <Time>2021-08-11T16:12:40.000Z</Time>
            <Position>
              <LatitudeDegrees>43.3300062082707881927490234375</LatitudeDegrees>
              <LongitudeDegrees>-1.92310304380953311920166015625</LongitudeDegrees>
            </Position>
            <AltitudeMeters>19.3999996185302734375</AltitudeMeters>
            <DistanceMeters>NAN</DistanceMeters>
          </Trackpoint>
          <Trackpoint>
            <Time>2021-08-11T16:12:41.000Z</Time>
            <Position>
              <LatitudeDegrees>43.33000662736594676971435546875</LatitudeDegrees>
              <LongitudeDegrees>-1.923089213669300079345703125</LongitudeDegrees>
            </Position>
            <AltitudeMeters>19.200000762939453125</AltitudeMeters>
            <DistanceMeters>NAN</DistanceMeters>
          </Trackpoint>
          <Trackpoint>
            <Time>2021-08-11T16:12:42.000Z</Time>
            <Position>
              <LatitudeDegrees>43.3300048671662807464599609375</LatitudeDegrees>
              <LongitudeDegrees>-1.9230920635163784027099609375</LongitudeDegrees>
            </Position>
            <AltitudeMeters>18.799999237060546875</AltitudeMeters>
            <DistanceMeters>NAN</DistanceMeters>
          </Trackpoint>
          <Trackpoint>
            <Time>2021-08-11T16:12:44.000Z</Time>
            <Position>
              <LatitudeDegrees>43.3300082199275493621826171875</LatitudeDegrees>
              <LongitudeDegrees>-1.92309533245861530303955078125</LongitudeDegrees>
            </Position>
            <AltitudeMeters>18.200000762939453125</AltitudeMeters>
            <DistanceMeters>NAN</DistanceMeters>
          </Trackpoint>
          <Trackpoint>
            <Time>2021-08-11T16:12:49.000Z</Time>
            <Position>
              <LatitudeDegrees>43.3299958147108554840087890625</LatitudeDegrees>
              <LongitudeDegrees>-1.92311880178749561309814453125</LongitudeDegrees>
            </Position>
            <AltitudeMeters>17.799999237060546875</AltitudeMeters>
            <DistanceMeters>NAN</DistanceMeters>
          </Trackpoint>
          <Trackpoint>
            <Time>2021-08-11T16:12:54.000Z</Time>
            <Position>
              <LatitudeDegrees>43.32999254576861858367919921875</LatitudeDegrees>
              <LongitudeDegrees>-1.92312366329133510589599609375</LongitudeDegrees>
            </Position>
            <AltitudeMeters>17.799999237060546875</AltitudeMeters>
            <DistanceMeters>NAN</DistanceMeters>
          </Trackpoint>
          <Trackpoint>
            <Time>2021-08-11T16:12:55.000Z</Time>
            <Position>
              <LatitudeDegrees>43.3299864269793033599853515625</LatitudeDegrees>
              <LongitudeDegrees>-1.923130787909030914306640625</LongitudeDegrees>
            </Position>
            <AltitudeMeters>17.799999237060546875</AltitudeMeters>
            <DistanceMeters>NAN</DistanceMeters>
          </Trackpoint>
          <Trackpoint>
            <Time>2021-08-11T16:12:57.000Z</Time>
            <Position>
              <LatitudeDegrees>43.32997678779065608978271484375</LatitudeDegrees>
              <LongitudeDegrees>-1.9231208972632884979248046875</LongitudeDegrees>
            </Position>
            <AltitudeMeters>17.799999237060546875</AltitudeMeters>
            <DistanceMeters>NAN</DistanceMeters>
          </Trackpoint>
          <Trackpoint>
            <Time>2021-08-11T16:12:58.000Z</Time>
            <Position>
              <LatitudeDegrees>43.3299730159342288970947265625</LatitudeDegrees>
              <LongitudeDegrees>-1.92309717647731304168701171875</LongitudeDegrees>
            </Position>
            <AltitudeMeters>17.799999237060546875</AltitudeMeters>
            <DistanceMeters>NAN</DistanceMeters>
          </Trackpoint>
          <Trackpoint>
            <Time>2021-08-11T16:12:59.000Z</Time>
            <Position>
              <LatitudeDegrees>43.32997175864875316619873046875</LatitudeDegrees>
              <LongitudeDegrees>-1.92306331358850002288818359375</LongitudeDegrees>
            </Position>
            <AltitudeMeters>17.799999237060546875</AltitudeMeters>
            <DistanceMeters>NAN</DistanceMeters>
          </Trackpoint>
          <Trackpoint>
            <Time>2021-08-11T16:13:04.000Z</Time>
            <Position>
              <LatitudeDegrees>43.32991610281169414520263671875</LatitudeDegrees>
              <LongitudeDegrees>-1.92291118204593658447265625</LongitudeDegrees>
            </Position>
            <AltitudeMeters>17.6000003814697265625</AltitudeMeters>
            <DistanceMeters>NAN</DistanceMeters>
          </Trackpoint>
          <Trackpoint>
            <Time>2021-08-11T16:13:08.000Z</Time>
            <Position>
              <LatitudeDegrees>43.32987419329583644866943359375</LatitudeDegrees>
              <LongitudeDegrees>-1.92280515097081661224365234375</LongitudeDegrees>
            </Position>
            <AltitudeMeters>16.799999237060546875</AltitudeMeters>
            <DistanceMeters>NAN</DistanceMeters>
          </Trackpoint>
          <Trackpoint>
            <Time>2021-08-11T16:13:09.000Z</Time>
            <Position>
              <LatitudeDegrees>43.32986195571720600128173828125</LatitudeDegrees>
              <LongitudeDegrees>-1.92278771661221981048583984375</LongitudeDegrees>
            </Position>
            <AltitudeMeters>16.799999237060546875</AltitudeMeters>
            <DistanceMeters>NAN</DistanceMeters>
          </Trackpoint>
          <Trackpoint>
            <Time>2021-08-11T16:13:10.000Z</Time>
            <Position>
              <LatitudeDegrees>43.32984971813857555389404296875</LatitudeDegrees>
              <LongitudeDegrees>-1.922771036624908447265625</LongitudeDegrees>
            </Position>
            <AltitudeMeters>16.6000003814697265625</AltitudeMeters>
            <DistanceMeters>NAN</DistanceMeters>
          </Trackpoint>
          <Trackpoint>
            <Time>2021-08-11T16:13:12.000Z</Time>
            <Position>
              <LatitudeDegrees>43.32982876338064670562744140625</LatitudeDegrees>
              <LongitudeDegrees>-1.92273507826030254364013671875</LongitudeDegrees>
            </Position>
            <AltitudeMeters>16.6000003814697265625</AltitudeMeters>
            <DistanceMeters>NAN</DistanceMeters>
          </Trackpoint>
          <Trackpoint>
            <Time>2021-08-11T16:13:13.000Z</Time>
            <Position>
              <LatitudeDegrees>43.3298191241919994354248046875</LatitudeDegrees>
              <LongitudeDegrees>-1.92271496169269084930419921875</LongitudeDegrees>
            </Position>
            <AltitudeMeters>16.6000003814697265625</AltitudeMeters>
            <DistanceMeters>NAN</DistanceMeters>
          </Trackpoint>
          <Trackpoint>
            <Time>2021-08-11T16:13:14.000Z</Time>
            <Position>
              <LatitudeDegrees>43.32980881445109844207763671875</LatitudeDegrees>
              <LongitudeDegrees>-1.92269685678184032440185546875</LongitudeDegrees>
            </Position>
            <AltitudeMeters>16.6000003814697265625</AltitudeMeters>
            <DistanceMeters>NAN</DistanceMeters>
          </Trackpoint>
          <Trackpoint>
            <Time>2021-08-11T16:13:15.000Z</Time>
            <Position>
              <LatitudeDegrees>43.32979674451053142547607421875</LatitudeDegrees>
              <LongitudeDegrees>-1.922680176794528961181640625</LongitudeDegrees>
            </Position>
            <AltitudeMeters>16.3999996185302734375</AltitudeMeters>
            <DistanceMeters>NAN</DistanceMeters>
          </Trackpoint>
          <Trackpoint>
            <Time>2021-08-11T16:13:16.000Z</Time>
            <Position>
              <LatitudeDegrees>43.32978517748415470123291015625</LatitudeDegrees>
              <LongitudeDegrees>-1.922666095197200775146484375</LongitudeDegrees>
            </Position>
            <AltitudeMeters>16.3999996185302734375</AltitudeMeters>
            <DistanceMeters>NAN</DistanceMeters>
          </Trackpoint>
          <Trackpoint>
            <Time>2021-08-11T16:13:17.000Z</Time>
            <Position>
              <LatitudeDegrees>43.329772017896175384521484375</LatitudeDegrees>
              <LongitudeDegrees>-1.92265260033309459686279296875</LongitudeDegrees>
            </Position>
            <AltitudeMeters>16.3999996185302734375</AltitudeMeters>
            <DistanceMeters>NAN</DistanceMeters>
          </Trackpoint>
          <Trackpoint>
            <Time>2021-08-11T16:13:18.000Z</Time>
            <Position>
              <LatitudeDegrees>43.3297564275562763214111328125</LatitudeDegrees>
              <LongitudeDegrees>-1.9226436316967010498046875</LongitudeDegrees>
            </Position>
            <AltitudeMeters>16.200000762939453125</AltitudeMeters>
            <DistanceMeters>NAN</DistanceMeters>
          </Trackpoint>
          <Trackpoint>
            <Time>2021-08-11T16:13:19.000Z</Time>
            <Position>
              <LatitudeDegrees>43.32974351942539215087890625</LatitudeDegrees>
              <LongitudeDegrees>-1.92263223230838775634765625</LongitudeDegrees>
            </Position>
            <AltitudeMeters>16.200000762939453125</AltitudeMeters>
            <DistanceMeters>NAN</DistanceMeters>
          </Trackpoint>
          <Trackpoint>
            <Time>2021-08-11T16:13:20.000Z</Time>
            <Position>
              <LatitudeDegrees>43.3297353051602840423583984375</LatitudeDegrees>
              <LongitudeDegrees>-1.92261488176882266998291015625</LongitudeDegrees>
            </Position>
            <AltitudeMeters>16.200000762939453125</AltitudeMeters>
            <DistanceMeters>NAN</DistanceMeters>
          </Trackpoint>
          <Trackpoint>
            <Time>2021-08-11T16:13:21.000Z</Time>
            <Position>
              <LatitudeDegrees>43.32973103038966655731201171875</LatitudeDegrees>
              <LongitudeDegrees>-1.92260130308568477630615234375</LongitudeDegrees>
            </Position>
            <AltitudeMeters>16.200000762939453125</AltitudeMeters>
            <DistanceMeters>NAN</DistanceMeters>
          </Trackpoint>
          <Trackpoint>
            <Time>2021-08-11T16:13:22.000Z</Time>
            <Position>
              <LatitudeDegrees>43.3297227323055267333984375</LatitudeDegrees>
              <LongitudeDegrees>-1.9225834496319293975830078125</LongitudeDegrees>
            </Position>
            <AltitudeMeters>16.200000762939453125</AltitudeMeters>
            <DistanceMeters>NAN</DistanceMeters>
          </Trackpoint>
          <Trackpoint>
            <Time>2021-08-11T16:13:23.000Z</Time>
            <Position>
              <LatitudeDegrees>43.32971409894526004791259765625</LatitudeDegrees>
              <LongitudeDegrees>-1.9225723855197429656982421875</LongitudeDegrees>
            </Position>
            <AltitudeMeters>16.200000762939453125</AltitudeMeters>
            <DistanceMeters>NAN</DistanceMeters>
          </Trackpoint>
          <Trackpoint>
            <Time>2021-08-11T16:13:24.000Z</Time>
            <Position>
              <LatitudeDegrees>43.32970018498599529266357421875</LatitudeDegrees>
              <LongitudeDegrees>-1.922553442418575286865234375</LongitudeDegrees>
            </Position>
            <AltitudeMeters>16.200000762939453125</AltitudeMeters>
            <DistanceMeters>NAN</DistanceMeters>
          </Trackpoint>
          <Trackpoint>
            <Time>2021-08-11T16:13:25.000Z</Time>
            <Position>
              <LatitudeDegrees>43.32968928851187229156494140625</LatitudeDegrees>
              <LongitudeDegrees>-1.92253491841256618499755859375</LongitudeDegrees>
            </Position>
            <AltitudeMeters>16.200000762939453125</AltitudeMeters>
            <DistanceMeters>NAN</DistanceMeters>
          </Trackpoint>
          <Trackpoint>
            <Time>2021-08-11T16:13:26.000Z</Time>
            <Position>
              <LatitudeDegrees>43.3296769671142101287841796875</LatitudeDegrees>
              <LongitudeDegrees>-1.922517232596874237060546875</LongitudeDegrees>
            </Position>
            <AltitudeMeters>16.200000762939453125</AltitudeMeters>
            <DistanceMeters>NAN</DistanceMeters>
          </Trackpoint>
          <Trackpoint>
            <Time>2021-08-11T16:13:27.000Z</Time>
            <Position>
              <LatitudeDegrees>43.32966514863073825836181640625</LatitudeDegrees>
              <LongitudeDegrees>-1.92249585874378681182861328125</LongitudeDegrees>
            </Position>
            <AltitudeMeters>16.200000762939453125</AltitudeMeters>
            <DistanceMeters>NAN</DistanceMeters>
          </Trackpoint>
          <Trackpoint>
            <Time>2021-08-11T16:13:28.000Z</Time>
            <Position>
              <LatitudeDegrees>43.3296558447182178497314453125</LatitudeDegrees>
              <LongitudeDegrees>-1.92247440107166767120361328125</LongitudeDegrees>
            </Position>
            <AltitudeMeters>16.200000762939453125</AltitudeMeters>
            <DistanceMeters>NAN</DistanceMeters>
          </Trackpoint>
          <Trackpoint>
            <Time>2021-08-11T16:13:29.000Z</Time>
            <Position>
              <LatitudeDegrees>43.3296420983970165252685546875</LatitudeDegrees>
              <LongitudeDegrees>-1.92245998419821262359619140625</LongitudeDegrees>
            </Position>
            <AltitudeMeters>16.200000762939453125</AltitudeMeters>
            <DistanceMeters>NAN</DistanceMeters>
          </Trackpoint>
          <Trackpoint>
            <Time>2021-08-11T16:13:32.000Z</Time>
            <Position>
              <LatitudeDegrees>43.32959289662539958953857421875</LatitudeDegrees>
              <LongitudeDegrees>-1.9224231876432895660400390625</LongitudeDegrees>
            </Position>
            <AltitudeMeters>16.200000762939453125</AltitudeMeters>
            <DistanceMeters>NAN</DistanceMeters>
          </Trackpoint>
          <Trackpoint>
            <Time>2021-08-11T16:13:36.000Z</Time>
            <Position>
              <LatitudeDegrees>43.32956649363040924072265625</LatitudeDegrees>
              <LongitudeDegrees>-1.9223531149327754974365234375</LongitudeDegrees>
            </Position>
            <AltitudeMeters>16</AltitudeMeters>
            <DistanceMeters>NAN</DistanceMeters>
          </Trackpoint>
          <Trackpoint>
            <Time>2021-08-11T16:13:37.000Z</Time>
            <Position>
              <LatitudeDegrees>43.32955970428884029388427734375</LatitudeDegrees>
              <LongitudeDegrees>-1.92233945243060588836669921875</LongitudeDegrees>
            </Position>
            <AltitudeMeters>16</AltitudeMeters>
            <DistanceMeters>NAN</DistanceMeters>
          </Trackpoint>
          <Trackpoint>
            <Time>2021-08-11T16:13:38.000Z</Time>
            <Position>
              <LatitudeDegrees>43.32955216057598590850830078125</LatitudeDegrees>
              <LongitudeDegrees>-1.9223269633948802947998046875</LongitudeDegrees>
            </Position>
            <AltitudeMeters>15.80000019073486328125</AltitudeMeters>
            <DistanceMeters>NAN</DistanceMeters>
          </Trackpoint>
          <Trackpoint>
            <Time>2021-08-11T16:13:39.000Z</Time>
            <Position>
              <LatitudeDegrees>43.32954704761505126953125</LatitudeDegrees>
              <LongitudeDegrees>-1.92231749184429645538330078125</LongitudeDegrees>
            </Position>
            <AltitudeMeters>15.80000019073486328125</AltitudeMeters>
            <DistanceMeters>NAN</DistanceMeters>
          </Trackpoint>
          <Trackpoint>
            <Time>2021-08-11T16:13:40.000Z</Time>
            <Position>
              <LatitudeDegrees>43.3295411802828311920166015625</LatitudeDegrees>
              <LongitudeDegrees>-1.9223031587898731231689453125</LongitudeDegrees>
            </Position>
            <AltitudeMeters>15.6000003814697265625</AltitudeMeters>
            <DistanceMeters>NAN</DistanceMeters>
          </Trackpoint>
          <Trackpoint>
            <Time>2021-08-11T16:13:41.000Z</Time>
            <Position>
              <LatitudeDegrees>43.32953631877899169921875</LatitudeDegrees>
              <LongitudeDegrees>-1.922293268144130706787109375</LongitudeDegrees>
            </Position>
            <AltitudeMeters>15.6000003814697265625</AltitudeMeters>
            <DistanceMeters>NAN</DistanceMeters>
          </Trackpoint>
          <Trackpoint>
            <Time>2021-08-11T16:13:42.000Z</Time>
            <Position>
              <LatitudeDegrees>43.3295324631035327911376953125</LatitudeDegrees>
              <LongitudeDegrees>-1.9222800247371196746826171875</LongitudeDegrees>
            </Position>
            <AltitudeMeters>15.6000003814697265625</AltitudeMeters>
            <DistanceMeters>NAN</DistanceMeters>
          </Trackpoint>
          <Trackpoint>
            <Time>2021-08-11T16:13:43.000Z</Time>
            <Position>
              <LatitudeDegrees>43.32952952943742275238037109375</LatitudeDegrees>
              <LongitudeDegrees>-1.9222612492740154266357421875</LongitudeDegrees>
            </Position>
            <AltitudeMeters>15.3999996185302734375</AltitudeMeters>
            <DistanceMeters>NAN</DistanceMeters>
          </Trackpoint>
          <Trackpoint>
            <Time>2021-08-11T16:13:44.000Z</Time>
            <Position>
              <LatitudeDegrees>43.3295247517526149749755859375</LatitudeDegrees>
              <LongitudeDegrees>-1.92223970778286457061767578125</LongitudeDegrees>
            </Position>
            <AltitudeMeters>15.3999996185302734375</AltitudeMeters>
            <DistanceMeters>NAN</DistanceMeters>
          </Trackpoint>
          <Trackpoint>
            <Time>2021-08-11T16:13:45.000Z</Time>
            <Position>
              <LatitudeDegrees>43.3295120112597942352294921875</LatitudeDegrees>
              <LongitudeDegrees>-1.9222240336239337921142578125</LongitudeDegrees>
            </Position>
            <AltitudeMeters>15.19999980926513671875</AltitudeMeters>
            <DistanceMeters>NAN</DistanceMeters>
          </Trackpoint>
          <Trackpoint>
            <Time>2021-08-11T16:13:48.000Z</Time>
            <Position>
              <LatitudeDegrees>43.329458199441432952880859375</LatitudeDegrees>
              <LongitudeDegrees>-1.92217893898487091064453125</LongitudeDegrees>
            </Position>
            <AltitudeMeters>15</AltitudeMeters>
            <DistanceMeters>NAN</DistanceMeters>
          </Trackpoint>
          <Trackpoint>
            <Time>2021-08-11T16:13:49.000Z</Time>
            <Position>
              <LatitudeDegrees>43.32944051362574100494384765625</LatitudeDegrees>
              <LongitudeDegrees>-1.9221599958837032318115234375</LongitudeDegrees>
            </Position>
            <AltitudeMeters>15</AltitudeMeters>
            <DistanceMeters>NAN</DistanceMeters>
          </Trackpoint>
          <Trackpoint>
            <Time>2021-08-11T16:13:51.000Z</Time>
            <Position>
              <LatitudeDegrees>43.32940514199435710906982421875</LatitudeDegrees>
              <LongitudeDegrees>-1.92212839610874652862548828125</LongitudeDegrees>
            </Position>
            <AltitudeMeters>14.6000003814697265625</AltitudeMeters>
            <DistanceMeters>NAN</DistanceMeters>
          </Trackpoint>
          <Trackpoint>
            <Time>2021-08-11T16:13:56.000Z</Time>
            <Position>
              <LatitudeDegrees>43.32933607511222362518310546875</LatitudeDegrees>
              <LongitudeDegrees>-1.92203669808804988861083984375</LongitudeDegrees>
            </Position>
            <AltitudeMeters>14</AltitudeMeters>
            <DistanceMeters>NAN</DistanceMeters>
          </Trackpoint>
          <Trackpoint>
            <Time>2021-08-11T16:13:57.000Z</Time>
            <Position>
              <LatitudeDegrees>43.329320736229419708251953125</LatitudeDegrees>
              <LongitudeDegrees>-1.92202068865299224853515625</LongitudeDegrees>
            </Position>
            <AltitudeMeters>13.80000019073486328125</AltitudeMeters>
            <DistanceMeters>NAN</DistanceMeters>
          </Trackpoint>
          <Trackpoint>
            <Time>2021-08-11T16:13:58.000Z</Time>
            <Position>
              <LatitudeDegrees>43.32930556498467922210693359375</LatitudeDegrees>
              <LongitudeDegrees>-1.9220074452459812164306640625</LongitudeDegrees>
            </Position>
            <AltitudeMeters>13.3999996185302734375</AltitudeMeters>
            <DistanceMeters>NAN</DistanceMeters>
          </Trackpoint>
          <Trackpoint>
            <Time>2021-08-11T16:13:59.000Z</Time>
            <Position>
              <LatitudeDegrees>43.32929131574928760528564453125</LatitudeDegrees>
              <LongitudeDegrees>-1.9219933636486530303955078125</LongitudeDegrees>
            </Position>
            <AltitudeMeters>13.19999980926513671875</AltitudeMeters>
            <DistanceMeters>NAN</DistanceMeters>
          </Trackpoint>
          <Trackpoint>
            <Time>2021-08-11T16:14:00.000Z</Time>
            <Position>
              <LatitudeDegrees>43.32927656359970569610595703125</LatitudeDegrees>
              <LongitudeDegrees>-1.92197903059422969818115234375</LongitudeDegrees>
            </Position>
            <AltitudeMeters>13</AltitudeMeters>
            <DistanceMeters>NAN</DistanceMeters>
          </Trackpoint>
          <Trackpoint>
            <Time>2021-08-11T16:14:01.000Z</Time>
            <Position>
              <LatitudeDegrees>43.32926332019269466400146484375</LatitudeDegrees>
              <LongitudeDegrees>-1.92196444608271121978759765625</LongitudeDegrees>
            </Position>
            <AltitudeMeters>13</AltitudeMeters>
            <DistanceMeters>NAN</DistanceMeters>
          </Trackpoint>
          <Trackpoint>
            <Time>2021-08-11T16:14:02.000Z</Time>
            <Position>
              <LatitudeDegrees>43.32925208844244480133056640625</LatitudeDegrees>
              <LongitudeDegrees>-1.921948604285717010498046875</LongitudeDegrees>
            </Position>
            <AltitudeMeters>12.80000019073486328125</AltitudeMeters>
            <DistanceMeters>NAN</DistanceMeters>
          </Trackpoint>
          <Trackpoint>
            <Time>2021-08-11T16:14:03.000Z</Time>
            <Position>
              <LatitudeDegrees>43.329240940511226654052734375</LatitudeDegrees>
              <LongitudeDegrees>-1.9219330139458179473876953125</LongitudeDegrees>
            </Position>
            <AltitudeMeters>12.6000003814697265625</AltitudeMeters>
            <DistanceMeters>NAN</DistanceMeters>
          </Trackpoint>
          <Trackpoint>
            <Time>2021-08-11T16:14:04.000Z</Time>
            <Position>
              <LatitudeDegrees>43.32922585308551788330078125</LatitudeDegrees>
              <LongitudeDegrees>-1.9219194352626800537109375</LongitudeDegrees>
            </Position>
            <AltitudeMeters>12.6000003814697265625</AltitudeMeters>
            <DistanceMeters>NAN</DistanceMeters>
          </Trackpoint>
          <Trackpoint>
            <Time>2021-08-11T16:14:06.000Z</Time>
            <Position>
              <LatitudeDegrees>43.32918168045580387115478515625</LatitudeDegrees>
              <LongitudeDegrees>-1.92190191708505153656005859375</LongitudeDegrees>
            </Position>
            <AltitudeMeters>12.19999980926513671875</AltitudeMeters>
            <DistanceMeters>NAN</DistanceMeters>
          </Trackpoint>
          <Trackpoint>
            <Time>2021-08-11T16:14:09.000Z</Time>
            <Position>
              <LatitudeDegrees>43.32909107208251953125</LatitudeDegrees>
              <LongitudeDegrees>-1.9218729995191097259521484375</LongitudeDegrees>
            </Position>
            <AltitudeMeters>11.80000019073486328125</AltitudeMeters>
            <DistanceMeters>NAN</DistanceMeters>
          </Trackpoint>
          <Trackpoint>
            <Time>2021-08-11T16:14:11.000Z</Time>
            <Position>
              <LatitudeDegrees>43.32904136739671230316162109375</LatitudeDegrees>
              <LongitudeDegrees>-1.92185514606535434722900390625</LongitudeDegrees>
            </Position>
            <AltitudeMeters>11.6000003814697265625</AltitudeMeters>
            <DistanceMeters>NAN</DistanceMeters>
          </Trackpoint>
          <Trackpoint>
            <Time>2021-08-11T16:14:12.000Z</Time>
            <Position>
              <LatitudeDegrees>43.32901387475430965423583984375</LatitudeDegrees>
              <LongitudeDegrees>-1.9218589179217815399169921875</LongitudeDegrees>
            </Position>
            <AltitudeMeters>11.3999996185302734375</AltitudeMeters>
            <DistanceMeters>NAN</DistanceMeters>
          </Trackpoint>
          <Trackpoint>
            <Time>2021-08-11T16:14:13.000Z</Time>
            <Position>
              <LatitudeDegrees>43.32899040542542934417724609375</LatitudeDegrees>
              <LongitudeDegrees>-1.9218672998249530792236328125</LongitudeDegrees>
            </Position>
            <AltitudeMeters>11.19999980926513671875</AltitudeMeters>
            <DistanceMeters>NAN</DistanceMeters>
          </Trackpoint>
          <Trackpoint>
            <Time>2021-08-11T16:14:14.000Z</Time>
            <Position>
              <LatitudeDegrees>43.32897297106683254241943359375</LatitudeDegrees>
              <LongitudeDegrees>-1.92187727428972721099853515625</LongitudeDegrees>
            </Position>
            <AltitudeMeters>11.19999980926513671875</AltitudeMeters>
            <DistanceMeters>NAN</DistanceMeters>
          </Trackpoint>
          <Trackpoint>
            <Time>2021-08-11T16:14:15.000Z</Time>
            <Position>
              <LatitudeDegrees>43.32895989529788494110107421875</LatitudeDegrees>
              <LongitudeDegrees>-1.92187509499490261077880859375</LongitudeDegrees>
            </Position>
            <AltitudeMeters>11</AltitudeMeters>
            <DistanceMeters>NAN</DistanceMeters>
          </Trackpoint>
          <Trackpoint>
            <Time>2021-08-11T16:14:16.000Z</Time>
            <Position>
              <LatitudeDegrees>43.3289487473666667938232421875</LatitudeDegrees>
              <LongitudeDegrees>-1.92185766063630580902099609375</LongitudeDegrees>
            </Position>
            <AltitudeMeters>11</AltitudeMeters>
            <DistanceMeters>NAN</DistanceMeters>
          </Trackpoint>
          <Trackpoint>
            <Time>2021-08-11T16:14:17.000Z</Time>
            <Position>
              <LatitudeDegrees>43.3289487473666667938232421875</LatitudeDegrees>
              <LongitudeDegrees>-1.92185766063630580902099609375</LongitudeDegrees>
            </Position>
            <AltitudeMeters>11</AltitudeMeters>
            <DistanceMeters>NAN</DistanceMeters>
          </Trackpoint>
          <Trackpoint>
            <Time>2021-08-11T16:14:19.000Z</Time>
            <Position>
              <LatitudeDegrees>43.32890289835631847381591796875</LatitudeDegrees>
              <LongitudeDegrees>-1.92183352075517177581787109375</LongitudeDegrees>
            </Position>
            <AltitudeMeters>10.80000019073486328125</AltitudeMeters>
            <DistanceMeters>NAN</DistanceMeters>
          </Trackpoint>
          <Trackpoint>
            <Time>2021-08-11T16:14:20.000Z</Time>
            <Position>
              <LatitudeDegrees>43.3288857154548168182373046875</LatitudeDegrees>
              <LongitudeDegrees>-1.92183720879256725311279296875</LongitudeDegrees>
            </Position>
            <AltitudeMeters>10.80000019073486328125</AltitudeMeters>
            <DistanceMeters>NAN</DistanceMeters>
          </Trackpoint>
          <Trackpoint>
            <Time>2021-08-11T16:14:21.000Z</Time>
            <Position>
              <LatitudeDegrees>43.3288692869246006011962890625</LatitudeDegrees>
              <LongitudeDegrees>-1.92183117382228374481201171875</LongitudeDegrees>
            </Position>
            <AltitudeMeters>10.80000019073486328125</AltitudeMeters>
            <DistanceMeters>NAN</DistanceMeters>
          </Trackpoint>
          <Trackpoint>
            <Time>2021-08-11T16:14:22.000Z</Time>
            <Position>
              <LatitudeDegrees>43.32885034382343292236328125</LatitudeDegrees>
              <LongitudeDegrees>-1.921819187700748443603515625</LongitudeDegrees>
            </Position>
            <AltitudeMeters>10.80000019073486328125</AltitudeMeters>
            <DistanceMeters>NAN</DistanceMeters>
          </Trackpoint>
          <Trackpoint>
            <Time>2021-08-11T16:14:23.000Z</Time>
            <Position>
              <LatitudeDegrees>43.328833915293216705322265625</LatitudeDegrees>
              <LongitudeDegrees>-1.92179630510509014129638671875</LongitudeDegrees>
            </Position>
            <AltitudeMeters>10.80000019073486328125</AltitudeMeters>
            <DistanceMeters>NAN</DistanceMeters>
          </Trackpoint>
          <Trackpoint>
            <Time>2021-08-11T16:14:24.000Z</Time>
            <Position>
              <LatitudeDegrees>43.32882176153361797332763671875</LatitudeDegrees>
              <LongitudeDegrees>-1.92177132703363895416259765625</LongitudeDegrees>
            </Position>
            <AltitudeMeters>10.80000019073486328125</AltitudeMeters>
            <DistanceMeters>NAN</DistanceMeters>
          </Trackpoint>
          <Trackpoint>
            <Time>2021-08-11T16:14:25.000Z</Time>
            <Position>
              <LatitudeDegrees>43.3288065902888774871826171875</LatitudeDegrees>
              <LongitudeDegrees>-1.92175121046602725982666015625</LongitudeDegrees>
            </Position>
            <AltitudeMeters>10.80000019073486328125</AltitudeMeters>
            <DistanceMeters>NAN</DistanceMeters>
          </Trackpoint>
          <Trackpoint>
            <Time>2021-08-11T16:14:26.000Z</Time>
            <Position>
              <LatitudeDegrees>43.3287904970347881317138671875</LatitudeDegrees>
              <LongitudeDegrees>-1.9217398948967456817626953125</LongitudeDegrees>
            </Position>
            <AltitudeMeters>10.80000019073486328125</AltitudeMeters>
            <DistanceMeters>NAN</DistanceMeters>
          </Trackpoint>
          <Trackpoint>
            <Time>2021-08-11T16:14:27.000Z</Time>
            <Position>
              <LatitudeDegrees>43.32877515815198421478271484375</LatitudeDegrees>
              <LongitudeDegrees>-1.92173746414482593536376953125</LongitudeDegrees>
            </Position>
            <AltitudeMeters>10.80000019073486328125</AltitudeMeters>
            <DistanceMeters>NAN</DistanceMeters>
          </Trackpoint>
          <Trackpoint>
            <Time>2021-08-11T16:14:28.000Z</Time>
            <Position>
              <LatitudeDegrees>43.32875470630824565887451171875</LatitudeDegrees>
              <LongitudeDegrees>-1.921740733087062835693359375</LongitudeDegrees>
            </Position>
            <AltitudeMeters>10.80000019073486328125</AltitudeMeters>
            <DistanceMeters>NAN</DistanceMeters>
          </Trackpoint>
          <Trackpoint>
            <Time>2021-08-11T16:14:33.000Z</Time>
            <Position>
              <LatitudeDegrees>43.3286285586655139923095703125</LatitudeDegrees>
              <LongitudeDegrees>-1.92172908224165439605712890625</LongitudeDegrees>
            </Position>
            <AltitudeMeters>10.6000003814697265625</AltitudeMeters>
            <DistanceMeters>NAN</DistanceMeters>
          </Trackpoint>
          <Trackpoint>
            <Time>2021-08-11T16:14:34.000Z</Time>
            <Position>
              <LatitudeDegrees>43.3286030776798725128173828125</LatitudeDegrees>
              <LongitudeDegrees>-1.9217234663665294647216796875</LongitudeDegrees>
            </Position>
            <AltitudeMeters>10.3999996185302734375</AltitudeMeters>
            <DistanceMeters>NAN</DistanceMeters>
          </Trackpoint>
          <Trackpoint>
            <Time>2021-08-11T16:14:40.000Z</Time>
            <Position>
              <LatitudeDegrees>43.32848698832094669342041015625</LatitudeDegrees>
              <LongitudeDegrees>-1.9217352010309696197509765625</LongitudeDegrees>
            </Position>
            <AltitudeMeters>10.19999980926513671875</AltitudeMeters>
            <DistanceMeters>NAN</DistanceMeters>
          </Trackpoint>
          <Trackpoint>
            <Time>2021-08-11T16:14:41.000Z</Time>
            <Position>
              <LatitudeDegrees>43.32846720702946186065673828125</LatitudeDegrees>
              <LongitudeDegrees>-1.92174014635384082794189453125</LongitudeDegrees>
            </Position>
            <AltitudeMeters>10.19999980926513671875</AltitudeMeters>
            <DistanceMeters>NAN</DistanceMeters>
          </Trackpoint>
          <Trackpoint>
            <Time>2021-08-11T16:14:42.000Z</Time>
            <Position>
              <LatitudeDegrees>43.32844709046185016632080078125</LatitudeDegrees>
              <LongitudeDegrees>-1.92174232564866542816162109375</LongitudeDegrees>
            </Position>
            <AltitudeMeters>10.19999980926513671875</AltitudeMeters>
            <DistanceMeters>NAN</DistanceMeters>
          </Trackpoint>
          <Trackpoint>
            <Time>2021-08-11T16:14:43.000Z</Time>
            <Position>
              <LatitudeDegrees>43.328428901731967926025390625</LatitudeDegrees>
              <LongitudeDegrees>-1.92173771560192108154296875</LongitudeDegrees>
            </Position>
            <AltitudeMeters>10.19999980926513671875</AltitudeMeters>
            <DistanceMeters>NAN</DistanceMeters>
          </Trackpoint>
          <Trackpoint>
            <Time>2021-08-11T16:14:44.000Z</Time>
            <Position>
              <LatitudeDegrees>43.32840912044048309326171875</LatitudeDegrees>
              <LongitudeDegrees>-1.9217284955084323883056640625</LongitudeDegrees>
            </Position>
            <AltitudeMeters>10.19999980926513671875</AltitudeMeters>
            <DistanceMeters>NAN</DistanceMeters>
          </Trackpoint>
          <Trackpoint>
            <Time>2021-08-11T16:14:45.000Z</Time>
            <Position>
              <LatitudeDegrees>43.32838674075901508331298828125</LatitudeDegrees>
              <LongitudeDegrees>-1.92171701230108737945556640625</LongitudeDegrees>
            </Position>
            <AltitudeMeters>10.3999996185302734375</AltitudeMeters>
            <DistanceMeters>NAN</DistanceMeters>
          </Trackpoint>
          <Trackpoint>
            <Time>2021-08-11T16:14:46.000Z</Time>
            <Position>
              <LatitudeDegrees>43.328366540372371673583984375</LatitudeDegrees>
              <LongitudeDegrees>-1.92170712165534496307373046875</LongitudeDegrees>
            </Position>
            <AltitudeMeters>10.3999996185302734375</AltitudeMeters>
            <DistanceMeters>NAN</DistanceMeters>
          </Trackpoint>
          <Trackpoint>
            <Time>2021-08-11T16:14:49.000Z</Time>
            <Position>
              <LatitudeDegrees>43.3282996527850627899169921875</LatitudeDegrees>
              <LongitudeDegrees>-1.92166152410209178924560546875</LongitudeDegrees>
            </Position>
            <AltitudeMeters>10.6000003814697265625</AltitudeMeters>
            <DistanceMeters>NAN</DistanceMeters>
          </Trackpoint>
          <Trackpoint>
            <Time>2021-08-11T16:14:54.000Z</Time>
            <Position>
              <LatitudeDegrees>43.32818440161645412445068359375</LatitudeDegrees>
              <LongitudeDegrees>-1.92158390767872333526611328125</LongitudeDegrees>
            </Position>
            <AltitudeMeters>11</AltitudeMeters>
            <DistanceMeters>NAN</DistanceMeters>
          </Trackpoint>
          <Trackpoint>
            <Time>2021-08-11T16:14:57.000Z</Time>
            <Position>
              <LatitudeDegrees>43.32813243381679058074951171875</LatitudeDegrees>
              <LongitudeDegrees>-1.9215313531458377838134765625</LongitudeDegrees>
            </Position>
            <AltitudeMeters>11.19999980926513671875</AltitudeMeters>
            <DistanceMeters>NAN</DistanceMeters>
          </Trackpoint>
          <Trackpoint>
            <Time>2021-08-11T16:15:00.000Z</Time>
            <Position>
              <LatitudeDegrees>43.32808717153966426849365234375</LatitudeDegrees>
              <LongitudeDegrees>-1.921477206051349639892578125</LongitudeDegrees>
            </Position>
            <AltitudeMeters>11.19999980926513671875</AltitudeMeters>
            <DistanceMeters>NAN</DistanceMeters>
          </Trackpoint>
          <Trackpoint>
            <Time>2021-08-11T16:15:01.000Z</Time>
            <Position>
              <LatitudeDegrees>43.32807040773332118988037109375</LatitudeDegrees>
              <LongitudeDegrees>-1.92146622575819492340087890625</LongitudeDegrees>
            </Position>
            <AltitudeMeters>11.19999980926513671875</AltitudeMeters>
            <DistanceMeters>NAN</DistanceMeters>
          </Trackpoint>
          <Trackpoint>
            <Time>2021-08-11T16:15:02.000Z</Time>
            <Position>
              <LatitudeDegrees>43.328050710260868072509765625</LatitudeDegrees>
              <LongitudeDegrees>-1.921451389789581298828125</LongitudeDegrees>
            </Position>
            <AltitudeMeters>11.19999980926513671875</AltitudeMeters>
            <DistanceMeters>NAN</DistanceMeters>
          </Trackpoint>
          <Trackpoint>
            <Time>2021-08-11T16:15:03.000Z</Time>
            <Position>
              <LatitudeDegrees>43.32803855650126934051513671875</LatitudeDegrees>
              <LongitudeDegrees>-1.921438984572887420654296875</LongitudeDegrees>
            </Position>
            <AltitudeMeters>11.19999980926513671875</AltitudeMeters>
            <DistanceMeters>NAN</DistanceMeters>
          </Trackpoint>
          <Trackpoint>
            <Time>2021-08-11T16:15:04.000Z</Time>
            <Position>
              <LatitudeDegrees>43.3280222117900848388671875</LatitudeDegrees>
              <LongitudeDegrees>-1.921428255736827850341796875</LongitudeDegrees>
            </Position>
            <AltitudeMeters>11.19999980926513671875</AltitudeMeters>
            <DistanceMeters>NAN</DistanceMeters>
          </Trackpoint>
          <Trackpoint>
            <Time>2021-08-11T16:15:05.000Z</Time>
            <Position>
              <LatitudeDegrees>43.3280072920024394989013671875</LatitudeDegrees>
              <LongitudeDegrees>-1.9214166887104511260986328125</LongitudeDegrees>
            </Position>
            <AltitudeMeters>11.19999980926513671875</AltitudeMeters>
            <DistanceMeters>NAN</DistanceMeters>
          </Trackpoint>
          <Trackpoint>
            <Time>2021-08-11T16:15:06.000Z</Time>
            <Position>
              <LatitudeDegrees>43.32799346186220645904541015625</LatitudeDegrees>
              <LongitudeDegrees>-1.92140772007405757904052734375</LongitudeDegrees>
            </Position>
            <AltitudeMeters>11.19999980926513671875</AltitudeMeters>
            <DistanceMeters>NAN</DistanceMeters>
          </Trackpoint>
          <Trackpoint>
            <Time>2021-08-11T16:15:07.000Z</Time>
            <Position>
              <LatitudeDegrees>43.3279787935316562652587890625</LatitudeDegrees>
              <LongitudeDegrees>-1.92139782942831516265869140625</LongitudeDegrees>
            </Position>
            <AltitudeMeters>11.19999980926513671875</AltitudeMeters>
            <DistanceMeters>NAN</DistanceMeters>
          </Trackpoint>
          <Trackpoint>
            <Time>2021-08-11T16:15:08.000Z</Time>
            <Position>
              <LatitudeDegrees>43.32796580158174037933349609375</LatitudeDegrees>
              <LongitudeDegrees>-1.92139171063899993896484375</LongitudeDegrees>
            </Position>
            <AltitudeMeters>11.19999980926513671875</AltitudeMeters>
            <DistanceMeters>NAN</DistanceMeters>
          </Trackpoint>
          <Trackpoint>
            <Time>2021-08-11T16:15:09.000Z</Time>
            <Position>
              <LatitudeDegrees>43.32795876078307628631591796875</LatitudeDegrees>
              <LongitudeDegrees>-1.92138810642063617706298828125</LongitudeDegrees>
            </Position>
            <AltitudeMeters>11.19999980926513671875</AltitudeMeters>
            <DistanceMeters>NAN</DistanceMeters>
          </Trackpoint>
          <Trackpoint>
            <Time>2021-08-11T16:15:10.000Z</Time>
            <Position>
              <LatitudeDegrees>43.32795406691730022430419921875</LatitudeDegrees>
              <LongitudeDegrees>-1.92138626240193843841552734375</LongitudeDegrees>
            </Position>
            <AltitudeMeters>11.19999980926513671875</AltitudeMeters>
            <DistanceMeters>NAN</DistanceMeters>
          </Trackpoint>
          <Trackpoint>
            <Time>2021-08-11T16:15:11.000Z</Time>
            <Position>
              <LatitudeDegrees>43.32794752903282642364501953125</LatitudeDegrees>
              <LongitudeDegrees>-1.9213883578777313232421875</LongitudeDegrees>
            </Position>
            <AltitudeMeters>11</AltitudeMeters>
            <DistanceMeters>NAN</DistanceMeters>
          </Trackpoint>
          <Trackpoint>
            <Time>2021-08-11T16:15:12.000Z</Time>
            <Position>
              <LatitudeDegrees>43.32793948240578174591064453125</LatitudeDegrees>
              <LongitudeDegrees>-1.921383999288082122802734375</LongitudeDegrees>
            </Position>
            <AltitudeMeters>11</AltitudeMeters>
            <DistanceMeters>NAN</DistanceMeters>
          </Trackpoint>
          <Trackpoint>
            <Time>2021-08-11T16:15:13.000Z</Time>
            <Position>
              <LatitudeDegrees>43.327931351959705352783203125</LatitudeDegrees>
              <LongitudeDegrees>-1.9213784672319889068603515625</LongitudeDegrees>
            </Position>
            <AltitudeMeters>11</AltitudeMeters>
            <DistanceMeters>NAN</DistanceMeters>
          </Trackpoint>
          <Trackpoint>
            <Time>2021-08-11T16:15:14.000Z</Time>
            <Position>
              <LatitudeDegrees>43.32792422734200954437255859375</LatitudeDegrees>
              <LongitudeDegrees>-1.92137352190911769866943359375</LongitudeDegrees>
            </Position>
            <AltitudeMeters>11</AltitudeMeters>
            <DistanceMeters>NAN</DistanceMeters>
          </Trackpoint>
          <Trackpoint>
            <Time>2021-08-11T16:15:15.000Z</Time>
            <Position>
              <LatitudeDegrees>43.32791693508625030517578125</LatitudeDegrees>
              <LongitudeDegrees>-1.92136715166270732879638671875</LongitudeDegrees>
            </Position>
            <AltitudeMeters>11</AltitudeMeters>
            <DistanceMeters>NAN</DistanceMeters>
          </Trackpoint>
          <Trackpoint>
            <Time>2021-08-11T16:15:16.000Z</Time>
            <Position>
              <LatitudeDegrees>43.3279103972017765045166015625</LatitudeDegrees>
              <LongitudeDegrees>-1.92135541699826717376708984375</LongitudeDegrees>
            </Position>
            <AltitudeMeters>11</AltitudeMeters>
            <DistanceMeters>NAN</DistanceMeters>
          </Trackpoint>
          <Trackpoint>
            <Time>2021-08-11T16:15:17.000Z</Time>
            <Position>
              <LatitudeDegrees>43.32790126092731952667236328125</LatitudeDegrees>
              <LongitudeDegrees>-1.92134602926671504974365234375</LongitudeDegrees>
            </Position>
            <AltitudeMeters>11</AltitudeMeters>
            <DistanceMeters>NAN</DistanceMeters>
          </Trackpoint>
          <Trackpoint>
            <Time>2021-08-11T16:15:18.000Z</Time>
            <Position>
              <LatitudeDegrees>43.32789413630962371826171875</LatitudeDegrees>
              <LongitudeDegrees>-1.92133194766938686370849609375</LongitudeDegrees>
            </Position>
            <AltitudeMeters>11</AltitudeMeters>
            <DistanceMeters>NAN</DistanceMeters>
          </Trackpoint>
          <Trackpoint>
            <Time>2021-08-11T16:15:19.000Z</Time>
            <Position>
              <LatitudeDegrees>43.32788717932999134063720703125</LatitudeDegrees>
              <LongitudeDegrees>-1.92131660878658294677734375</LongitudeDegrees>
            </Position>
            <AltitudeMeters>11</AltitudeMeters>
            <DistanceMeters>NAN</DistanceMeters>
          </Trackpoint>
          <Trackpoint>
            <Time>2021-08-11T16:15:20.000Z</Time>
            <Position>
              <LatitudeDegrees>43.32787695340812206268310546875</LatitudeDegrees>
              <LongitudeDegrees>-1.92130428738892078399658203125</LongitudeDegrees>
            </Position>
            <AltitudeMeters>11</AltitudeMeters>
            <DistanceMeters>NAN</DistanceMeters>
          </Trackpoint>
          <Trackpoint>
            <Time>2021-08-11T16:15:21.000Z</Time>
            <Position>
              <LatitudeDegrees>43.3278661407530307769775390625</LatitudeDegrees>
              <LongitudeDegrees>-1.92128919996321201324462890625</LongitudeDegrees>
            </Position>
            <AltitudeMeters>11</AltitudeMeters>
            <DistanceMeters>NAN</DistanceMeters>
          </Trackpoint>
          <Trackpoint>
            <Time>2021-08-11T16:15:22.000Z</Time>
            <Position>
              <LatitudeDegrees>43.32785935141146183013916015625</LatitudeDegrees>
              <LongitudeDegrees>-1.92127713002264499664306640625</LongitudeDegrees>
            </Position>
            <AltitudeMeters>11</AltitudeMeters>
            <DistanceMeters>NAN</DistanceMeters>
          </Trackpoint>
          <Trackpoint>
            <Time>2021-08-11T16:15:25.000Z</Time>
            <Position>
              <LatitudeDegrees>43.327831439673900604248046875</LatitudeDegrees>
              <LongitudeDegrees>-1.92123756743967533111572265625</LongitudeDegrees>
            </Position>
            <AltitudeMeters>11.19999980926513671875</AltitudeMeters>
            <DistanceMeters>NAN</DistanceMeters>
          </Trackpoint>
          <Trackpoint>
            <Time>2021-08-11T16:15:28.000Z</Time>
            <Position>
              <LatitudeDegrees>43.3278049528598785400390625</LatitudeDegrees>
              <LongitudeDegrees>-1.9211940653622150421142578125</LongitudeDegrees>
            </Position>
            <AltitudeMeters>11.19999980926513671875</AltitudeMeters>
            <DistanceMeters>NAN</DistanceMeters>
          </Trackpoint>
          <Trackpoint>
            <Time>2021-08-11T16:15:31.000Z</Time>
            <Position>
              <LatitudeDegrees>43.3277863450348377227783203125</LatitudeDegrees>
              <LongitudeDegrees>-1.9211494736373424530029296875</LongitudeDegrees>
            </Position>
            <AltitudeMeters>11.19999980926513671875</AltitudeMeters>
            <DistanceMeters>NAN</DistanceMeters>
          </Trackpoint>
          <Trackpoint>
            <Time>2021-08-11T16:15:32.000Z</Time>
            <Position>
              <LatitudeDegrees>43.32778039388358592987060546875</LatitudeDegrees>
              <LongitudeDegrees>-1.921137236058712005615234375</LongitudeDegrees>
            </Position>
            <AltitudeMeters>11.19999980926513671875</AltitudeMeters>
            <DistanceMeters>NAN</DistanceMeters>
          </Trackpoint>
          <Trackpoint>
            <Time>2021-08-11T16:15:34.000Z</Time>
            <Position>
              <LatitudeDegrees>43.32777167670428752899169921875</LatitudeDegrees>
              <LongitudeDegrees>-1.9211201369762420654296875</LongitudeDegrees>
            </Position>
            <AltitudeMeters>11.19999980926513671875</AltitudeMeters>
            <DistanceMeters>NAN</DistanceMeters>
          </Trackpoint>
          <Trackpoint>
            <Time>2021-08-11T16:15:35.000Z</Time>
            <Position>
              <LatitudeDegrees>43.3277638815343379974365234375</LatitudeDegrees>
              <LongitudeDegrees>-1.92111468873918056488037109375</LongitudeDegrees>
            </Position>
            <AltitudeMeters>11.19999980926513671875</AltitudeMeters>
            <DistanceMeters>NAN</DistanceMeters>
          </Trackpoint>
          <Trackpoint>
            <Time>2021-08-11T16:15:36.000Z</Time>
            <Position>
              <LatitudeDegrees>43.3277598582208156585693359375</LatitudeDegrees>
              <LongitudeDegrees>-1.9211038760840892791748046875</LongitudeDegrees>
            </Position>
            <AltitudeMeters>11.19999980926513671875</AltitudeMeters>
            <DistanceMeters>NAN</DistanceMeters>
          </Trackpoint>
          <Trackpoint>
            <Time>2021-08-11T16:15:37.000Z</Time>
            <Position>
              <LatitudeDegrees>43.327754996716976165771484375</LatitudeDegrees>
              <LongitudeDegrees>-1.9210834242403507232666015625</LongitudeDegrees>
            </Position>
            <AltitudeMeters>11.19999980926513671875</AltitudeMeters>
            <DistanceMeters>NAN</DistanceMeters>
          </Trackpoint>
          <Trackpoint>
            <Time>2021-08-11T16:15:38.000Z</Time>
            <Position>
              <LatitudeDegrees>43.32775197923183441162109375</LatitudeDegrees>
              <LongitudeDegrees>-1.92106758244335651397705078125</LongitudeDegrees>
            </Position>
            <AltitudeMeters>11.19999980926513671875</AltitudeMeters>
            <DistanceMeters>NAN</DistanceMeters>
          </Trackpoint>
          <Trackpoint>
            <Time>2021-08-11T16:15:42.000Z</Time>
            <Position>
              <LatitudeDegrees>43.327725492417812347412109375</LatitudeDegrees>
              <LongitudeDegrees>-1.9210170395672321319580078125</LongitudeDegrees>
            </Position>
            <AltitudeMeters>11</AltitudeMeters>
            <DistanceMeters>NAN</DistanceMeters>
          </Trackpoint>
          <Trackpoint>
            <Time>2021-08-11T16:15:43.000Z</Time>
            <Position>
              <LatitudeDegrees>43.32772113382816314697265625</LatitudeDegrees>
              <LongitudeDegrees>-1.92100320942699909210205078125</LongitudeDegrees>
            </Position>
            <AltitudeMeters>11</AltitudeMeters>
            <DistanceMeters>NAN</DistanceMeters>
          </Trackpoint>
          <Trackpoint>
            <Time>2021-08-11T16:15:45.000Z</Time>
            <Position>
              <LatitudeDegrees>43.327711410820484161376953125</LatitudeDegrees>
              <LongitudeDegrees>-1.92096867598593235015869140625</LongitudeDegrees>
            </Position>
            <AltitudeMeters>11</AltitudeMeters>
            <DistanceMeters>NAN</DistanceMeters>
          </Trackpoint>
          <Trackpoint>
            <Time>2021-08-11T16:15:46.000Z</Time>
            <Position>
              <LatitudeDegrees>43.3277055434882640838623046875</LatitudeDegrees>
              <LongitudeDegrees>-1.9209530018270015716552734375</LongitudeDegrees>
            </Position>
            <AltitudeMeters>11</AltitudeMeters>
            <DistanceMeters>NAN</DistanceMeters>
          </Trackpoint>
          <Trackpoint>
            <Time>2021-08-11T16:15:52.000Z</Time>
            <Position>
              <LatitudeDegrees>43.32767746411263942718505859375</LatitudeDegrees>
              <LongitudeDegrees>-1.92085937596857547760009765625</LongitudeDegrees>
            </Position>
            <AltitudeMeters>11</AltitudeMeters>
            <DistanceMeters>NAN</DistanceMeters>
          </Trackpoint>
          <Trackpoint>
            <Time>2021-08-11T16:15:53.000Z</Time>
            <Position>
              <LatitudeDegrees>43.32767310552299022674560546875</LatitudeDegrees>
              <LongitudeDegrees>-1.92084076814353466033935546875</LongitudeDegrees>
            </Position>
            <AltitudeMeters>11</AltitudeMeters>
            <DistanceMeters>NAN</DistanceMeters>
          </Trackpoint>
          <Trackpoint>
            <Time>2021-08-11T16:15:54.000Z</Time>
            <Position>
              <LatitudeDegrees>43.327673189342021942138671875</LatitudeDegrees>
              <LongitudeDegrees>-1.9208178855478763580322265625</LongitudeDegrees>
            </Position>
            <AltitudeMeters>11</AltitudeMeters>
            <DistanceMeters>NAN</DistanceMeters>
          </Trackpoint>
          <Trackpoint>
            <Time>2021-08-11T16:15:55.000Z</Time>
            <Position>
              <LatitudeDegrees>43.32766975276172161102294921875</LatitudeDegrees>
              <LongitudeDegrees>-1.9208014570176601409912109375</LongitudeDegrees>
            </Position>
            <AltitudeMeters>11</AltitudeMeters>
            <DistanceMeters>NAN</DistanceMeters>
          </Trackpoint>
          <Trackpoint>
            <Time>2021-08-11T16:15:56.000Z</Time>
            <Position>
              <LatitudeDegrees>43.32766070030629634857177734375</LatitudeDegrees>
              <LongitudeDegrees>-1.92079131491482257843017578125</LongitudeDegrees>
            </Position>
            <AltitudeMeters>11</AltitudeMeters>
            <DistanceMeters>NAN</DistanceMeters>
          </Trackpoint>
          <Trackpoint>
            <Time>2021-08-11T16:15:57.000Z</Time>
            <Position>
              <LatitudeDegrees>43.32765818573534488677978515625</LatitudeDegrees>
              <LongitudeDegrees>-1.92077203653752803802490234375</LongitudeDegrees>
            </Position>
            <AltitudeMeters>11</AltitudeMeters>
            <DistanceMeters>NAN</DistanceMeters>
          </Trackpoint>
          <Trackpoint>
            <Time>2021-08-11T16:16:01.000Z</Time>
            <Position>
              <LatitudeDegrees>43.32768492400646209716796875</LatitudeDegrees>
              <LongitudeDegrees>-1.9206924922764301300048828125</LongitudeDegrees>
            </Position>
            <AltitudeMeters>11</AltitudeMeters>
            <DistanceMeters>NAN</DistanceMeters>
          </Trackpoint>
          <Trackpoint>
            <Time>2021-08-11T16:16:02.000Z</Time>
            <Position>
              <LatitudeDegrees>43.32769322209060192108154296875</LatitudeDegrees>
              <LongitudeDegrees>-1.92069031298160552978515625</LongitudeDegrees>
            </Position>
            <AltitudeMeters>11</AltitudeMeters>
            <DistanceMeters>NAN</DistanceMeters>
          </Trackpoint>
          <Trackpoint>
            <Time>2021-08-11T16:16:03.000Z</Time>
            <Position>
              <LatitudeDegrees>43.3276995085179805755615234375</LatitudeDegrees>
              <LongitudeDegrees>-1.92069726996123790740966796875</LongitudeDegrees>
            </Position>
            <AltitudeMeters>11</AltitudeMeters>
            <DistanceMeters>NAN</DistanceMeters>
          </Trackpoint>
          <Trackpoint>
            <Time>2021-08-11T16:16:04.000Z</Time>
            <Position>
              <LatitudeDegrees>43.32770210690796375274658203125</LatitudeDegrees>
              <LongitudeDegrees>-1.92070062272250652313232421875</LongitudeDegrees>
            </Position>
            <AltitudeMeters>11</AltitudeMeters>
            <DistanceMeters>NAN</DistanceMeters>
          </Trackpoint>
          <Trackpoint>
            <Time>2021-08-11T16:16:05.000Z</Time>
            <Position>
              <LatitudeDegrees>43.3277062140405178070068359375</LatitudeDegrees>
              <LongitudeDegrees>-1.92069509066641330718994140625</LongitudeDegrees>
            </Position>
            <AltitudeMeters>11</AltitudeMeters>
            <DistanceMeters>NAN</DistanceMeters>
          </Trackpoint>
          <Trackpoint>
            <Time>2021-08-11T16:16:06.000Z</Time>
            <Position>
              <LatitudeDegrees>43.327710069715976715087890625</LatitudeDegrees>
              <LongitudeDegrees>-1.9206908158957958221435546875</LongitudeDegrees>
            </Position>
            <AltitudeMeters>11</AltitudeMeters>
            <DistanceMeters>NAN</DistanceMeters>
          </Trackpoint>
          <Trackpoint>
            <Time>2021-08-11T16:16:07.000Z</Time>
            <Position>
              <LatitudeDegrees>43.3277125842869281768798828125</LatitudeDegrees>
              <LongitudeDegrees>-1.92068452946841716766357421875</LongitudeDegrees>
            </Position>
            <AltitudeMeters>11</AltitudeMeters>
            <DistanceMeters>NAN</DistanceMeters>
          </Trackpoint>
          <Trackpoint>
            <Time>2021-08-11T16:16:08.000Z</Time>
            <Position>
              <LatitudeDegrees>43.32771442830562591552734375</LatitudeDegrees>
              <LongitudeDegrees>-1.9206730462610721588134765625</LongitudeDegrees>
            </Position>
            <AltitudeMeters>11</AltitudeMeters>
            <DistanceMeters>NAN</DistanceMeters>
          </Trackpoint>
          <Trackpoint>
            <Time>2021-08-11T16:16:10.000Z</Time>
            <Position>
              <LatitudeDegrees>43.3277028612792491912841796875</LatitudeDegrees>
              <LongitudeDegrees>-1.9206428714096546173095703125</LongitudeDegrees>
            </Position>
            <AltitudeMeters>11</AltitudeMeters>
            <DistanceMeters>NAN</DistanceMeters>
          </Trackpoint>
          <Trackpoint>
            <Time>2021-08-11T16:16:12.000Z</Time>
            <Position>
              <LatitudeDegrees>43.3277052082121372222900390625</LatitudeDegrees>
              <LongitudeDegrees>-1.92062870599329471588134765625</LongitudeDegrees>
            </Position>
            <AltitudeMeters>11</AltitudeMeters>
            <DistanceMeters>NAN</DistanceMeters>
          </Trackpoint>
          <Trackpoint>
            <Time>2021-08-11T16:16:13.000Z</Time>
            <Position>
              <LatitudeDegrees>43.3277038671076297760009765625</LatitudeDegrees>
              <LongitudeDegrees>-1.92062602378427982330322265625</LongitudeDegrees>
            </Position>
            <AltitudeMeters>11</AltitudeMeters>
            <DistanceMeters>NAN</DistanceMeters>
          </Trackpoint>
          <Trackpoint>
            <Time>2021-08-11T16:16:14.000Z</Time>
            <Position>
              <LatitudeDegrees>43.32770110107958316802978515625</LatitudeDegrees>
              <LongitudeDegrees>-1.920618899166584014892578125</LongitudeDegrees>
            </Position>
            <AltitudeMeters>11</AltitudeMeters>
            <DistanceMeters>NAN</DistanceMeters>
          </Trackpoint>
          <Trackpoint>
            <Time>2021-08-11T16:16:20.000Z</Time>
            <Position>
              <LatitudeDegrees>43.327714763581752777099609375</LatitudeDegrees>
              <LongitudeDegrees>-1.92063641734421253204345703125</LongitudeDegrees>
            </Position>
            <AltitudeMeters>11</AltitudeMeters>
            <DistanceMeters>NAN</DistanceMeters>
          </Trackpoint>
          <Trackpoint>
            <Time>2021-08-11T16:16:34.000Z</Time>
            <Position>
              <LatitudeDegrees>43.3277149312198162078857421875</LatitudeDegrees>
              <LongitudeDegrees>-1.9206365011632442474365234375</LongitudeDegrees>
            </Position>
            <AltitudeMeters>10.80000019073486328125</AltitudeMeters>
            <DistanceMeters>NAN</DistanceMeters>
          </Trackpoint>
          <Trackpoint>
            <Time>2021-08-11T16:16:46.000Z</Time>
            <Position>
              <LatitudeDegrees>43.32769573666155338287353515625</LatitudeDegrees>
              <LongitudeDegrees>-1.92057363688945770263671875</LongitudeDegrees>
            </Position>
            <AltitudeMeters>10.6000003814697265625</AltitudeMeters>
            <DistanceMeters>NAN</DistanceMeters>
          </Trackpoint>
          <Trackpoint>
            <Time>2021-08-11T16:16:48.000Z</Time>
            <Position>
              <LatitudeDegrees>43.3276790566742420196533203125</LatitudeDegrees>
              <LongitudeDegrees>-1.92053331993520259857177734375</LongitudeDegrees>
            </Position>
            <AltitudeMeters>10.80000019073486328125</AltitudeMeters>
            <DistanceMeters>NAN</DistanceMeters>
          </Trackpoint>
          <Trackpoint>
            <Time>2021-08-11T16:16:50.000Z</Time>
            <Position>
              <LatitudeDegrees>43.32766841165721416473388671875</LatitudeDegrees>
              <LongitudeDegrees>-1.920496858656406402587890625</LongitudeDegrees>
            </Position>
            <AltitudeMeters>11</AltitudeMeters>
            <DistanceMeters>NAN</DistanceMeters>
          </Trackpoint>
          <Trackpoint>
            <Time>2021-08-11T16:16:52.000Z</Time>
            <Position>
              <LatitudeDegrees>43.32764737308025360107421875</LatitudeDegrees>
              <LongitudeDegrees>-1.92048646509647369384765625</LongitudeDegrees>
            </Position>
            <AltitudeMeters>11</AltitudeMeters>
            <DistanceMeters>NAN</DistanceMeters>
          </Trackpoint>
          <Trackpoint>
            <Time>2021-08-11T16:16:53.000Z</Time>
            <Position>
              <LatitudeDegrees>43.3276371471583843231201171875</LatitudeDegrees>
              <LongitudeDegrees>-1.9204842858016490936279296875</LongitudeDegrees>
            </Position>
            <AltitudeMeters>11</AltitudeMeters>
            <DistanceMeters>NAN</DistanceMeters>
          </Trackpoint>
          <Trackpoint>
            <Time>2021-08-11T16:16:54.000Z</Time>
            <Position>
              <LatitudeDegrees>43.32762499339878559112548828125</LatitudeDegrees>
              <LongitudeDegrees>-1.92047397606074810028076171875</LongitudeDegrees>
            </Position>
            <AltitudeMeters>10.6000003814697265625</AltitudeMeters>
            <DistanceMeters>NAN</DistanceMeters>
          </Trackpoint>
          <Trackpoint>
            <Time>2021-08-11T16:16:55.000Z</Time>
            <Position>
              <LatitudeDegrees>43.32761778496205806732177734375</LatitudeDegrees>
              <LongitudeDegrees>-1.92045201547443866729736328125</LongitudeDegrees>
            </Position>
            <AltitudeMeters>10.6000003814697265625</AltitudeMeters>
            <DistanceMeters>NAN</DistanceMeters>
          </Trackpoint>
          <Trackpoint>
            <Time>2021-08-11T16:16:57.000Z</Time>
            <Position>
              <LatitudeDegrees>43.3276106603443622589111328125</LatitudeDegrees>
              <LongitudeDegrees>-1.9203991256654262542724609375</LongitudeDegrees>
            </Position>
            <AltitudeMeters>11</AltitudeMeters>
            <DistanceMeters>NAN</DistanceMeters>
          </Trackpoint>
          <Trackpoint>
            <Time>2021-08-11T16:17:04.000Z</Time>
            <Position>
              <LatitudeDegrees>43.32756263203918933868408203125</LatitudeDegrees>
              <LongitudeDegrees>-1.92030164413154125213623046875</LongitudeDegrees>
            </Position>
            <AltitudeMeters>10.6000003814697265625</AltitudeMeters>
            <DistanceMeters>NAN</DistanceMeters>
          </Trackpoint>
          <Trackpoint>
            <Time>2021-08-11T16:17:05.000Z</Time>
            <Position>
              <LatitudeDegrees>43.32755307666957378387451171875</LatitudeDegrees>
              <LongitudeDegrees>-1.920292675495147705078125</LongitudeDegrees>
            </Position>
            <AltitudeMeters>10.6000003814697265625</AltitudeMeters>
            <DistanceMeters>NAN</DistanceMeters>
          </Trackpoint>
          <Trackpoint>
            <Time>2021-08-11T16:17:06.000Z</Time>
            <Position>
              <LatitudeDegrees>43.32754184491932392120361328125</LatitudeDegrees>
              <LongitudeDegrees>-1.92028303630650043487548828125</LongitudeDegrees>
            </Position>
            <AltitudeMeters>10.6000003814697265625</AltitudeMeters>
            <DistanceMeters>NAN</DistanceMeters>
          </Trackpoint>
          <Trackpoint>
            <Time>2021-08-11T16:17:07.000Z</Time>
            <Position>
              <LatitudeDegrees>43.3275313675403594970703125</LatitudeDegrees>
              <LongitudeDegrees>-1.92027247510850429534912109375</LongitudeDegrees>
            </Position>
            <AltitudeMeters>10.6000003814697265625</AltitudeMeters>
            <DistanceMeters>NAN</DistanceMeters>
          </Trackpoint>
          <Trackpoint>
            <Time>2021-08-11T16:17:08.000Z</Time>
            <Position>
              <LatitudeDegrees>43.3275134302675724029541015625</LatitudeDegrees>
              <LongitudeDegrees>-1.92026459611952304840087890625</LongitudeDegrees>
            </Position>
            <AltitudeMeters>10.6000003814697265625</AltitudeMeters>
            <DistanceMeters>NAN</DistanceMeters>
          </Trackpoint>
          <Trackpoint>
            <Time>2021-08-11T16:17:11.000Z</Time>
            <Position>
              <LatitudeDegrees>43.3274688385426998138427734375</LatitudeDegrees>
              <LongitudeDegrees>-1.920234002172946929931640625</LongitudeDegrees>
            </Position>
            <AltitudeMeters>10.6000003814697265625</AltitudeMeters>
            <DistanceMeters>NAN</DistanceMeters>
          </Trackpoint>
          <Trackpoint>
            <Time>2021-08-11T16:17:13.000Z</Time>
            <Position>
              <LatitudeDegrees>43.32745148800313472747802734375</LatitudeDegrees>
              <LongitudeDegrees>-1.9202160649001598358154296875</LongitudeDegrees>
            </Position>
            <AltitudeMeters>10.6000003814697265625</AltitudeMeters>
            <DistanceMeters>NAN</DistanceMeters>
          </Trackpoint>
          <Trackpoint>
            <Time>2021-08-11T16:17:14.000Z</Time>
            <Position>
              <LatitudeDegrees>43.32743841223418712615966796875</LatitudeDegrees>
              <LongitudeDegrees>-1.9202063418924808502197265625</LongitudeDegrees>
            </Position>
            <AltitudeMeters>10.6000003814697265625</AltitudeMeters>
            <DistanceMeters>NAN</DistanceMeters>
          </Trackpoint>
          <Trackpoint>
            <Time>2021-08-11T16:17:17.000Z</Time>
            <Position>
              <LatitudeDegrees>43.3274051360785961151123046875</LatitudeDegrees>
              <LongitudeDegrees>-1.92017910070717334747314453125</LongitudeDegrees>
            </Position>
            <AltitudeMeters>10.6000003814697265625</AltitudeMeters>
            <DistanceMeters>NAN</DistanceMeters>
          </Trackpoint>
          <Trackpoint>
            <Time>2021-08-11T16:17:19.000Z</Time>
            <Position>
              <LatitudeDegrees>43.3273860253393650054931640625</LatitudeDegrees>
              <LongitudeDegrees>-1.92017264664173126220703125</LongitudeDegrees>
            </Position>
            <AltitudeMeters>10.6000003814697265625</AltitudeMeters>
            <DistanceMeters>NAN</DistanceMeters>
          </Trackpoint>
          <Trackpoint>
            <Time>2021-08-11T16:17:20.000Z</Time>
            <Position>
              <LatitudeDegrees>43.3273763023316860198974609375</LatitudeDegrees>
              <LongitudeDegrees>-1.9201701320707798004150390625</LongitudeDegrees>
            </Position>
            <AltitudeMeters>10.6000003814697265625</AltitudeMeters>
            <DistanceMeters>NAN</DistanceMeters>
          </Trackpoint>
          <Trackpoint>
            <Time>2021-08-11T16:17:21.000Z</Time>
            <Position>
              <LatitudeDegrees>43.32736683078110218048095703125</LatitudeDegrees>
              <LongitudeDegrees>-1.9201630912721157073974609375</LongitudeDegrees>
            </Position>
            <AltitudeMeters>10.6000003814697265625</AltitudeMeters>
            <DistanceMeters>NAN</DistanceMeters>
          </Trackpoint>
          <Trackpoint>
            <Time>2021-08-11T16:17:22.000Z</Time>
            <Position>
              <LatitudeDegrees>43.32735442556440830230712890625</LatitudeDegrees>
              <LongitudeDegrees>-1.92016057670116424560546875</LongitudeDegrees>
            </Position>
            <AltitudeMeters>10.6000003814697265625</AltitudeMeters>
            <DistanceMeters>NAN</DistanceMeters>
          </Trackpoint>
          <Trackpoint>
            <Time>2021-08-11T16:17:23.000Z</Time>
            <Position>
              <LatitudeDegrees>43.32734067924320697784423828125</LatitudeDegrees>
              <LongitudeDegrees>-1.92015596665441989898681640625</LongitudeDegrees>
            </Position>
            <AltitudeMeters>10.6000003814697265625</AltitudeMeters>
            <DistanceMeters>NAN</DistanceMeters>
          </Trackpoint>
          <Trackpoint>
            <Time>2021-08-11T16:17:24.000Z</Time>
            <Position>
              <LatitudeDegrees>43.327329866588115692138671875</LatitudeDegrees>
              <LongitudeDegrees>-1.92015429027378559112548828125</LongitudeDegrees>
            </Position>
            <AltitudeMeters>10.6000003814697265625</AltitudeMeters>
            <DistanceMeters>NAN</DistanceMeters>
          </Trackpoint>
          <Trackpoint>
            <Time>2021-08-11T16:17:25.000Z</Time>
            <Position>
              <LatitudeDegrees>43.32731653936207294464111328125</LatitudeDegrees>
              <LongitudeDegrees>-1.92014356143772602081298828125</LongitudeDegrees>
            </Position>
            <AltitudeMeters>10.6000003814697265625</AltitudeMeters>
            <DistanceMeters>NAN</DistanceMeters>
          </Trackpoint>
          <Trackpoint>
            <Time>2021-08-11T16:17:26.000Z</Time>
            <Position>
              <LatitudeDegrees>43.327307403087615966796875</LatitudeDegrees>
              <LongitudeDegrees>-1.92012411542236804962158203125</LongitudeDegrees>
            </Position>
            <AltitudeMeters>10.6000003814697265625</AltitudeMeters>
            <DistanceMeters>NAN</DistanceMeters>
          </Trackpoint>
          <Trackpoint>
            <Time>2021-08-11T16:17:27.000Z</Time>
            <Position>
              <LatitudeDegrees>43.3272968418896198272705078125</LatitudeDegrees>
              <LongitudeDegrees>-1.92010886035859584808349609375</LongitudeDegrees>
            </Position>
            <AltitudeMeters>10.6000003814697265625</AltitudeMeters>
            <DistanceMeters>NAN</DistanceMeters>
          </Trackpoint>
          <Trackpoint>
            <Time>2021-08-11T16:17:28.000Z</Time>
            <Position>
              <LatitudeDegrees>43.32728661596775054931640625</LatitudeDegrees>
              <LongitudeDegrees>-1.9200946949422359466552734375</LongitudeDegrees>
            </Position>
            <AltitudeMeters>10.3999996185302734375</AltitudeMeters>
            <DistanceMeters>NAN</DistanceMeters>
          </Trackpoint>
          <Trackpoint>
            <Time>2021-08-11T16:17:29.000Z</Time>
            <Position>
              <LatitudeDegrees>43.3272743783891201019287109375</LatitudeDegrees>
              <LongitudeDegrees>-1.92008472047746181488037109375</LongitudeDegrees>
            </Position>
            <AltitudeMeters>10.3999996185302734375</AltitudeMeters>
            <DistanceMeters>NAN</DistanceMeters>
          </Trackpoint>
          <Trackpoint>
            <Time>2021-08-11T16:17:30.000Z</Time>
            <Position>
              <LatitudeDegrees>43.3272633142769336700439453125</LatitudeDegrees>
              <LongitudeDegrees>-1.9200729019939899444580078125</LongitudeDegrees>
            </Position>
            <AltitudeMeters>10.6000003814697265625</AltitudeMeters>
            <DistanceMeters>NAN</DistanceMeters>
          </Trackpoint>
          <Trackpoint>
            <Time>2021-08-11T16:17:35.000Z</Time>
            <Position>
              <LatitudeDegrees>43.327210508286952972412109375</LatitudeDegrees>
              <LongitudeDegrees>-1.9200098700821399688720703125</LongitudeDegrees>
            </Position>
            <AltitudeMeters>10.6000003814697265625</AltitudeMeters>
            <DistanceMeters>NAN</DistanceMeters>
          </Trackpoint>
          <Trackpoint>
            <Time>2021-08-11T16:17:44.000Z</Time>
            <Position>
              <LatitudeDegrees>43.32714219577610492706298828125</LatitudeDegrees>
              <LongitudeDegrees>-1.919895708560943603515625</LongitudeDegrees>
            </Position>
            <AltitudeMeters>10.6000003814697265625</AltitudeMeters>
            <DistanceMeters>NAN</DistanceMeters>
          </Trackpoint>
          <Trackpoint>
            <Time>2021-08-11T16:17:45.000Z</Time>
            <Position>
              <LatitudeDegrees>43.32713616080582141876220703125</LatitudeDegrees>
              <LongitudeDegrees>-1.9198794476687908172607421875</LongitudeDegrees>
            </Position>
            <AltitudeMeters>10.6000003814697265625</AltitudeMeters>
            <DistanceMeters>NAN</DistanceMeters>
          </Trackpoint>
          <Trackpoint>
            <Time>2021-08-11T16:17:46.000Z</Time>
            <Position>
              <LatitudeDegrees>43.3271315507590770721435546875</LatitudeDegrees>
              <LongitudeDegrees>-1.91986846737563610076904296875</LongitudeDegrees>
            </Position>
            <AltitudeMeters>10.6000003814697265625</AltitudeMeters>
            <DistanceMeters>NAN</DistanceMeters>
          </Trackpoint>
          <Trackpoint>
            <Time>2021-08-11T16:17:47.000Z</Time>
            <Position>
              <LatitudeDegrees>43.32712559960782527923583984375</LatitudeDegrees>
              <LongitudeDegrees>-1.91985639743506908416748046875</LongitudeDegrees>
            </Position>
            <AltitudeMeters>10.6000003814697265625</AltitudeMeters>
            <DistanceMeters>NAN</DistanceMeters>
          </Trackpoint>
          <Trackpoint>
            <Time>2021-08-11T16:17:48.000Z</Time>
            <Position>
              <LatitudeDegrees>43.32711788825690746307373046875</LatitudeDegrees>
              <LongitudeDegrees>-1.919853128492832183837890625</LongitudeDegrees>
            </Position>
            <AltitudeMeters>10.6000003814697265625</AltitudeMeters>
            <DistanceMeters>NAN</DistanceMeters>
          </Trackpoint>
          <Trackpoint>
            <Time>2021-08-11T16:17:49.000Z</Time>
            <Position>
              <LatitudeDegrees>43.32711185328662395477294921875</LatitudeDegrees>
              <LongitudeDegrees>-1.919847764074802398681640625</LongitudeDegrees>
            </Position>
            <AltitudeMeters>10.6000003814697265625</AltitudeMeters>
            <DistanceMeters>NAN</DistanceMeters>
          </Trackpoint>
          <Trackpoint>
            <Time>2021-08-11T16:17:51.000Z</Time>
            <Position>
              <LatitudeDegrees>43.32710598595440387725830078125</LatitudeDegrees>
              <LongitudeDegrees>-1.91981733776628971099853515625</LongitudeDegrees>
            </Position>
            <AltitudeMeters>10.6000003814697265625</AltitudeMeters>
            <DistanceMeters>NAN</DistanceMeters>
          </Trackpoint>
          <Trackpoint>
            <Time>2021-08-11T16:17:52.000Z</Time>
            <Position>
              <LatitudeDegrees>43.327102549374103546142578125</LatitudeDegrees>
              <LongitudeDegrees>-1.91980459727346897125244140625</LongitudeDegrees>
            </Position>
            <AltitudeMeters>10.6000003814697265625</AltitudeMeters>
            <DistanceMeters>NAN</DistanceMeters>
          </Trackpoint>
          <Trackpoint>
            <Time>2021-08-11T16:17:53.000Z</Time>
            <Position>
              <LatitudeDegrees>43.32710213027894496917724609375</LatitudeDegrees>
              <LongitudeDegrees>-1.91979520954191684722900390625</LongitudeDegrees>
            </Position>
            <AltitudeMeters>10.6000003814697265625</AltitudeMeters>
            <DistanceMeters>NAN</DistanceMeters>
          </Trackpoint>
          <Trackpoint>
            <Time>2021-08-11T16:17:54.000Z</Time>
            <Position>
              <LatitudeDegrees>43.32710498012602329254150390625</LatitudeDegrees>
              <LongitudeDegrees>-1.91978481598198413848876953125</LongitudeDegrees>
            </Position>
            <AltitudeMeters>10.6000003814697265625</AltitudeMeters>
            <DistanceMeters>NAN</DistanceMeters>
          </Trackpoint>
          <Trackpoint>
            <Time>2021-08-11T16:17:55.000Z</Time>
            <Position>
              <LatitudeDegrees>43.32710615359246730804443359375</LatitudeDegrees>
              <LongitudeDegrees>-1.91977526061236858367919921875</LongitudeDegrees>
            </Position>
            <AltitudeMeters>10.6000003814697265625</AltitudeMeters>
            <DistanceMeters>NAN</DistanceMeters>
          </Trackpoint>
          <Trackpoint>
            <Time>2021-08-11T16:17:56.000Z</Time>
            <Position>
              <LatitudeDegrees>43.32710145972669124603271484375</LatitudeDegrees>
              <LongitudeDegrees>-1.919769980013370513916015625</LongitudeDegrees>
            </Position>
            <AltitudeMeters>10.6000003814697265625</AltitudeMeters>
            <DistanceMeters>NAN</DistanceMeters>
          </Trackpoint>
          <Trackpoint>
            <Time>2021-08-11T16:17:57.000Z</Time>
            <Position>
              <LatitudeDegrees>43.32709374837577342987060546875</LatitudeDegrees>
              <LongitudeDegrees>-1.91976922564208507537841796875</LongitudeDegrees>
            </Position>
            <AltitudeMeters>10.6000003814697265625</AltitudeMeters>
            <DistanceMeters>NAN</DistanceMeters>
          </Trackpoint>
          <Trackpoint>
            <Time>2021-08-11T16:17:58.000Z</Time>
            <Position>
              <LatitudeDegrees>43.3270836062729358673095703125</LatitudeDegrees>
              <LongitudeDegrees>-1.91976553760468959808349609375</LongitudeDegrees>
            </Position>
            <AltitudeMeters>10.6000003814697265625</AltitudeMeters>
            <DistanceMeters>NAN</DistanceMeters>
          </Trackpoint>
          <Trackpoint>
            <Time>2021-08-11T16:17:59.000Z</Time>
            <Position>
              <LatitudeDegrees>43.32707631401717662811279296875</LatitudeDegrees>
              <LongitudeDegrees>-1.91976503469049930572509765625</LongitudeDegrees>
            </Position>
            <AltitudeMeters>10.6000003814697265625</AltitudeMeters>
            <DistanceMeters>NAN</DistanceMeters>
          </Trackpoint>
          <Trackpoint>
            <Time>2021-08-11T16:18:01.000Z</Time>
            <Position>
              <LatitudeDegrees>43.3270634897053241729736328125</LatitudeDegrees>
              <LongitudeDegrees>-1.919749192893505096435546875</LongitudeDegrees>
            </Position>
            <AltitudeMeters>10.6000003814697265625</AltitudeMeters>
            <DistanceMeters>NAN</DistanceMeters>
          </Trackpoint>
          <Trackpoint>
            <Time>2021-08-11T16:18:02.000Z</Time>
            <Position>
              <LatitudeDegrees>43.3270524255931377410888671875</LatitudeDegrees>
              <LongitudeDegrees>-1.919739134609699249267578125</LongitudeDegrees>
            </Position>
            <AltitudeMeters>10.6000003814697265625</AltitudeMeters>
            <DistanceMeters>NAN</DistanceMeters>
          </Trackpoint>
          <Trackpoint>
            <Time>2021-08-11T16:18:03.000Z</Time>
            <Position>
              <LatitudeDegrees>43.3270323090255260467529296875</LatitudeDegrees>
              <LongitudeDegrees>-1.91972396336495876312255859375</LongitudeDegrees>
            </Position>
            <AltitudeMeters>10.6000003814697265625</AltitudeMeters>
            <DistanceMeters>NAN</DistanceMeters>
          </Trackpoint>
          <Trackpoint>
            <Time>2021-08-11T16:18:04.000Z</Time>
            <Position>
              <LatitudeDegrees>43.327016718685626983642578125</LatitudeDegrees>
              <LongitudeDegrees>-1.91969119012355804443359375</LongitudeDegrees>
            </Position>
            <AltitudeMeters>10.6000003814697265625</AltitudeMeters>
            <DistanceMeters>NAN</DistanceMeters>
          </Trackpoint>
          <Trackpoint>
            <Time>2021-08-11T16:18:06.000Z</Time>
            <Position>
              <LatitudeDegrees>43.32698930986225605010986328125</LatitudeDegrees>
              <LongitudeDegrees>-1.91965162754058837890625</LongitudeDegrees>
            </Position>
            <AltitudeMeters>10.6000003814697265625</AltitudeMeters>
            <DistanceMeters>NAN</DistanceMeters>
          </Trackpoint>
          <Trackpoint>
            <Time>2021-08-11T16:18:07.000Z</Time>
            <Position>
              <LatitudeDegrees>43.32697271369397640228271484375</LatitudeDegrees>
              <LongitudeDegrees>-1.919643245637416839599609375</LongitudeDegrees>
            </Position>
            <AltitudeMeters>10.6000003814697265625</AltitudeMeters>
            <DistanceMeters>NAN</DistanceMeters>
          </Trackpoint>
          <Trackpoint>
            <Time>2021-08-11T16:18:09.000Z</Time>
            <Position>
              <LatitudeDegrees>43.32693767733871936798095703125</LatitudeDegrees>
              <LongitudeDegrees>-1.91962975077331066131591796875</LongitudeDegrees>
            </Position>
            <AltitudeMeters>10.3999996185302734375</AltitudeMeters>
            <DistanceMeters>NAN</DistanceMeters>
          </Trackpoint>
          <Trackpoint>
            <Time>2021-08-11T16:18:10.000Z</Time>
            <Position>
              <LatitudeDegrees>43.32692074589431285858154296875</LatitudeDegrees>
              <LongitudeDegrees>-1.91962857730686664581298828125</LongitudeDegrees>
            </Position>
            <AltitudeMeters>10.3999996185302734375</AltitudeMeters>
            <DistanceMeters>NAN</DistanceMeters>
          </Trackpoint>
          <Trackpoint>
            <Time>2021-08-11T16:18:11.000Z</Time>
            <Position>
              <LatitudeDegrees>43.32690582610666751861572265625</LatitudeDegrees>
              <LongitudeDegrees>-1.91962203942239284515380859375</LongitudeDegrees>
            </Position>
            <AltitudeMeters>10.3999996185302734375</AltitudeMeters>
            <DistanceMeters>NAN</DistanceMeters>
          </Trackpoint>
          <Trackpoint>
            <Time>2021-08-11T16:18:13.000Z</Time>
            <Position>
              <LatitudeDegrees>43.32685369066894054412841796875</LatitudeDegrees>
              <LongitudeDegrees>-1.91960561089217662811279296875</LongitudeDegrees>
            </Position>
            <AltitudeMeters>10.19999980926513671875</AltitudeMeters>
            <DistanceMeters>NAN</DistanceMeters>
          </Trackpoint>
          <Trackpoint>
            <Time>2021-08-11T16:18:15.000Z</Time>
            <Position>
              <LatitudeDegrees>43.32683105953037738800048828125</LatitudeDegrees>
              <LongitudeDegrees>-1.919583566486835479736328125</LongitudeDegrees>
            </Position>
            <AltitudeMeters>10.19999980926513671875</AltitudeMeters>
            <DistanceMeters>NAN</DistanceMeters>
          </Trackpoint>
          <Trackpoint>
            <Time>2021-08-11T16:18:16.000Z</Time>
            <Position>
              <LatitudeDegrees>43.3268244378268718719482421875</LatitudeDegrees>
              <LongitudeDegrees>-1.91958264447748661041259765625</LongitudeDegrees>
            </Position>
            <AltitudeMeters>10.3999996185302734375</AltitudeMeters>
            <DistanceMeters>NAN</DistanceMeters>
          </Trackpoint>
          <Trackpoint>
            <Time>2021-08-11T16:18:17.000Z</Time>
            <Position>
              <LatitudeDegrees>43.326812870800495147705078125</LatitudeDegrees>
              <LongitudeDegrees>-1.9195850752294063568115234375</LongitudeDegrees>
            </Position>
            <AltitudeMeters>10.3999996185302734375</AltitudeMeters>
            <DistanceMeters>NAN</DistanceMeters>
          </Trackpoint>
          <Trackpoint>
            <Time>2021-08-11T16:18:18.000Z</Time>
            <Position>
              <LatitudeDegrees>43.32679979503154754638671875</LatitudeDegrees>
              <LongitudeDegrees>-1.9195912778377532958984375</LongitudeDegrees>
            </Position>
            <AltitudeMeters>10.3999996185302734375</AltitudeMeters>
            <DistanceMeters>NAN</DistanceMeters>
          </Trackpoint>
          <Trackpoint>
            <Time>2021-08-11T16:18:19.000Z</Time>
            <Position>
              <LatitudeDegrees>43.326795101165771484375</LatitudeDegrees>
              <LongitudeDegrees>-1.91959488205611705780029296875</LongitudeDegrees>
            </Position>
            <AltitudeMeters>10.3999996185302734375</AltitudeMeters>
            <DistanceMeters>NAN</DistanceMeters>
          </Trackpoint>
          <Trackpoint>
            <Time>2021-08-11T16:18:20.000Z</Time>
            <Position>
              <LatitudeDegrees>43.32678948529064655303955078125</LatitudeDegrees>
              <LongitudeDegrees>-1.91959270276129245758056640625</LongitudeDegrees>
            </Position>
            <AltitudeMeters>10.3999996185302734375</AltitudeMeters>
            <DistanceMeters>NAN</DistanceMeters>
          </Trackpoint>
          <Trackpoint>
            <Time>2021-08-11T16:18:21.000Z</Time>
            <Position>
              <LatitudeDegrees>43.3267842046916484832763671875</LatitudeDegrees>
              <LongitudeDegrees>-1.91959102638065814971923828125</LongitudeDegrees>
            </Position>
            <AltitudeMeters>10.3999996185302734375</AltitudeMeters>
            <DistanceMeters>NAN</DistanceMeters>
          </Trackpoint>
          <Trackpoint>
            <Time>2021-08-11T16:18:22.000Z</Time>
            <Position>
              <LatitudeDegrees>43.326778672635555267333984375</LatitudeDegrees>
              <LongitudeDegrees>-1.91958951763808727264404296875</LongitudeDegrees>
            </Position>
            <AltitudeMeters>10.3999996185302734375</AltitudeMeters>
            <DistanceMeters>NAN</DistanceMeters>
          </Trackpoint>
          <Trackpoint>
            <Time>2021-08-11T16:18:23.000Z</Time>
            <Position>
              <LatitudeDegrees>43.32677439786493778228759765625</LatitudeDegrees>
              <LongitudeDegrees>-1.91959136165678501129150390625</LongitudeDegrees>
            </Position>
            <AltitudeMeters>10.3999996185302734375</AltitudeMeters>
            <DistanceMeters>NAN</DistanceMeters>
          </Trackpoint>
          <Trackpoint>
            <Time>2021-08-11T16:18:24.000Z</Time>
            <Position>
              <LatitudeDegrees>43.3267714641988277435302734375</LatitudeDegrees>
              <LongitudeDegrees>-1.9195966422557830810546875</LongitudeDegrees>
            </Position>
            <AltitudeMeters>10.3999996185302734375</AltitudeMeters>
            <DistanceMeters>NAN</DistanceMeters>
          </Trackpoint>
          <Trackpoint>
            <Time>2021-08-11T16:18:25.000Z</Time>
            <Position>
              <LatitudeDegrees>43.32676827907562255859375</LatitudeDegrees>
              <LongitudeDegrees>-1.91960292868316173553466796875</LongitudeDegrees>
            </Position>
            <AltitudeMeters>10.6000003814697265625</AltitudeMeters>
            <DistanceMeters>NAN</DistanceMeters>
          </Trackpoint>
          <Trackpoint>
            <Time>2021-08-11T16:18:26.000Z</Time>
            <Position>
              <LatitudeDegrees>43.326763249933719635009765625</LatitudeDegrees>
              <LongitudeDegrees>-1.91960561089217662811279296875</LongitudeDegrees>
            </Position>
            <AltitudeMeters>10.6000003814697265625</AltitudeMeters>
            <DistanceMeters>NAN</DistanceMeters>
          </Trackpoint>
          <Trackpoint>
            <Time>2021-08-11T16:18:27.000Z</Time>
            <Position>
              <LatitudeDegrees>43.3267580531537532806396484375</LatitudeDegrees>
              <LongitudeDegrees>-1.9195917807519435882568359375</LongitudeDegrees>
            </Position>
            <AltitudeMeters>10.6000003814697265625</AltitudeMeters>
            <DistanceMeters>NAN</DistanceMeters>
          </Trackpoint>
          <Trackpoint>
            <Time>2021-08-11T16:18:28.000Z</Time>
            <Position>
              <LatitudeDegrees>43.326751850545406341552734375</LatitudeDegrees>
              <LongitudeDegrees>-1.91958147101104259490966796875</LongitudeDegrees>
            </Position>
            <AltitudeMeters>10.6000003814697265625</AltitudeMeters>
            <DistanceMeters>NAN</DistanceMeters>
          </Trackpoint>
          <Trackpoint>
            <Time>2021-08-11T16:18:29.000Z</Time>
            <Position>
              <LatitudeDegrees>43.3267493359744548797607421875</LatitudeDegrees>
              <LongitudeDegrees>-1.919586919248104095458984375</LongitudeDegrees>
            </Position>
            <AltitudeMeters>10.6000003814697265625</AltitudeMeters>
            <DistanceMeters>NAN</DistanceMeters>
          </Trackpoint>
          <Trackpoint>
            <Time>2021-08-11T16:18:30.000Z</Time>
            <Position>
              <LatitudeDegrees>43.32674690522253513336181640625</LatitudeDegrees>
              <LongitudeDegrees>-1.91959597170352935791015625</LongitudeDegrees>
            </Position>
            <AltitudeMeters>10.6000003814697265625</AltitudeMeters>
            <DistanceMeters>NAN</DistanceMeters>
          </Trackpoint>
          <Trackpoint>
            <Time>2021-08-11T16:18:31.000Z</Time>
            <Position>
              <LatitudeDegrees>43.32674321718513965606689453125</LatitudeDegrees>
              <LongitudeDegrees>-1.91960460506379604339599609375</LongitudeDegrees>
            </Position>
            <AltitudeMeters>10.6000003814697265625</AltitudeMeters>
            <DistanceMeters>NAN</DistanceMeters>
          </Trackpoint>
          <Trackpoint>
            <Time>2021-08-11T16:18:33.000Z</Time>
            <Position>
              <LatitudeDegrees>43.3267416246235370635986328125</LatitudeDegrees>
              <LongitudeDegrees>-1.9196169264614582061767578125</LongitudeDegrees>
            </Position>
            <AltitudeMeters>10.80000019073486328125</AltitudeMeters>
            <DistanceMeters>NAN</DistanceMeters>
          </Trackpoint>
          <Trackpoint>
            <Time>2021-08-11T16:18:34.000Z</Time>
            <Position>
              <LatitudeDegrees>43.32673936150968074798583984375</LatitudeDegrees>
              <LongitudeDegrees>-1.9196180999279022216796875</LongitudeDegrees>
            </Position>
            <AltitudeMeters>10.80000019073486328125</AltitudeMeters>
            <DistanceMeters>NAN</DistanceMeters>
          </Trackpoint>
          <Trackpoint>
            <Time>2021-08-11T16:18:35.000Z</Time>
            <Position>
              <LatitudeDegrees>43.32673701457679271697998046875</LatitudeDegrees>
              <LongitudeDegrees>-1.91961784847080707550048828125</LongitudeDegrees>
            </Position>
            <AltitudeMeters>10.80000019073486328125</AltitudeMeters>
            <DistanceMeters>NAN</DistanceMeters>
          </Trackpoint>
          <Trackpoint>
            <Time>2021-08-11T16:18:37.000Z</Time>
            <Position>
              <LatitudeDegrees>43.3267288841307163238525390625</LatitudeDegrees>
              <LongitudeDegrees>-1.919607706367969512939453125</LongitudeDegrees>
            </Position>
            <AltitudeMeters>10.80000019073486328125</AltitudeMeters>
            <DistanceMeters>NAN</DistanceMeters>
          </Trackpoint>
          <Trackpoint>
            <Time>2021-08-11T16:18:40.000Z</Time>
            <Position>
              <LatitudeDegrees>43.3267186582088470458984375</LatitudeDegrees>
              <LongitudeDegrees>-1.9195998273789882659912109375</LongitudeDegrees>
            </Position>
            <AltitudeMeters>10.3999996185302734375</AltitudeMeters>
            <DistanceMeters>NAN</DistanceMeters>
          </Trackpoint>
          <Trackpoint>
            <Time>2021-08-11T16:18:41.000Z</Time>
            <Position>
              <LatitudeDegrees>43.32672066986560821533203125</LatitudeDegrees>
              <LongitudeDegrees>-1.91960938274860382080078125</LongitudeDegrees>
            </Position>
            <AltitudeMeters>10.3999996185302734375</AltitudeMeters>
            <DistanceMeters>NAN</DistanceMeters>
          </Trackpoint>
          <Trackpoint>
            <Time>2021-08-11T16:18:42.000Z</Time>
            <Position>
              <LatitudeDegrees>43.326714299619197845458984375</LatitudeDegrees>
              <LongitudeDegrees>-1.91961315460503101348876953125</LongitudeDegrees>
            </Position>
            <AltitudeMeters>10.3999996185302734375</AltitudeMeters>
            <DistanceMeters>NAN</DistanceMeters>
          </Trackpoint>
          <Trackpoint>
            <Time>2021-08-11T16:18:43.000Z</Time>
            <Position>
              <LatitudeDegrees>43.32669996656477451324462890625</LatitudeDegrees>
              <LongitudeDegrees>-1.919605694711208343505859375</LongitudeDegrees>
            </Position>
            <AltitudeMeters>10.3999996185302734375</AltitudeMeters>
            <DistanceMeters>NAN</DistanceMeters>
          </Trackpoint>
          <Trackpoint>
            <Time>2021-08-11T16:18:44.000Z</Time>
            <Position>
              <LatitudeDegrees>43.32668923772871494293212890625</LatitudeDegrees>
              <LongitudeDegrees>-1.91959119401872158050537109375</LongitudeDegrees>
            </Position>
            <AltitudeMeters>10.3999996185302734375</AltitudeMeters>
            <DistanceMeters>NAN</DistanceMeters>
          </Trackpoint>
          <Trackpoint>
            <Time>2021-08-11T16:18:57.000Z</Time>
            <Position>
              <LatitudeDegrees>43.3264371939003467559814453125</LatitudeDegrees>
              <LongitudeDegrees>-1.9198107160627841949462890625</LongitudeDegrees>
            </Position>
            <AltitudeMeters>10.19999980926513671875</AltitudeMeters>
            <DistanceMeters>NAN</DistanceMeters>
          </Trackpoint>
          <Trackpoint>
            <Time>2021-08-11T16:18:59.000Z</Time>
            <Position>
              <LatitudeDegrees>43.3264348469674587249755859375</LatitudeDegrees>
              <LongitudeDegrees>-1.9198120571672916412353515625</LongitudeDegrees>
            </Position>
            <AltitudeMeters>10.19999980926513671875</AltitudeMeters>
            <DistanceMeters>NAN</DistanceMeters>
          </Trackpoint>
          <Trackpoint>
            <Time>2021-08-11T16:19:00.000Z</Time>
            <Position>
              <LatitudeDegrees>43.32643442787230014801025390625</LatitudeDegrees>
              <LongitudeDegrees>-1.91981163807213306427001953125</LongitudeDegrees>
            </Position>
            <AltitudeMeters>10.19999980926513671875</AltitudeMeters>
            <DistanceMeters>NAN</DistanceMeters>
          </Trackpoint>
          <Trackpoint>
            <Time>2021-08-11T16:19:05.000Z</Time>
            <Position>
              <LatitudeDegrees>43.3263875730335712432861328125</LatitudeDegrees>
              <LongitudeDegrees>-1.91988020204007625579833984375</LongitudeDegrees>
            </Position>
            <AltitudeMeters>9.80000019073486328125</AltitudeMeters>
            <DistanceMeters>NAN</DistanceMeters>
          </Trackpoint>
          <Trackpoint>
            <Time>2021-08-11T16:19:06.000Z</Time>
            <Position>
              <LatitudeDegrees>43.32635982893407344818115234375</LatitudeDegrees>
              <LongitudeDegrees>-1.91987668164074420928955078125</LongitudeDegrees>
            </Position>
            <AltitudeMeters>10</AltitudeMeters>
            <DistanceMeters>NAN</DistanceMeters>
          </Trackpoint>
          <Trackpoint>
            <Time>2021-08-11T16:19:09.000Z</Time>
            <Position>
              <LatitudeDegrees>43.32635723054409027099609375</LatitudeDegrees>
              <LongitudeDegrees>-1.91990308463573455810546875</LongitudeDegrees>
            </Position>
            <AltitudeMeters>10</AltitudeMeters>
            <DistanceMeters>NAN</DistanceMeters>
          </Trackpoint>
          <Trackpoint>
            <Time>2021-08-11T16:19:11.000Z</Time>
            <Position>
              <LatitudeDegrees>43.3263396285474300384521484375</LatitudeDegrees>
              <LongitudeDegrees>-1.91993988119065761566162109375</LongitudeDegrees>
            </Position>
            <AltitudeMeters>10</AltitudeMeters>
            <DistanceMeters>NAN</DistanceMeters>
          </Trackpoint>
          <Trackpoint>
            <Time>2021-08-11T16:19:12.000Z</Time>
            <Position>
              <LatitudeDegrees>43.32631724886596202850341796875</LatitudeDegrees>
              <LongitudeDegrees>-1.9199542142450809478759765625</LongitudeDegrees>
            </Position>
            <AltitudeMeters>10.19999980926513671875</AltitudeMeters>
            <DistanceMeters>NAN</DistanceMeters>
          </Trackpoint>
          <Trackpoint>
            <Time>2021-08-11T16:19:13.000Z</Time>
            <Position>
              <LatitudeDegrees>43.32629260607063770294189453125</LatitudeDegrees>
              <LongitudeDegrees>-1.91996720619499683380126953125</LongitudeDegrees>
            </Position>
            <AltitudeMeters>10.19999980926513671875</AltitudeMeters>
            <DistanceMeters>NAN</DistanceMeters>
          </Trackpoint>
          <Trackpoint>
            <Time>2021-08-11T16:19:15.000Z</Time>
            <Position>
              <LatitudeDegrees>43.326249606907367706298828125</LatitudeDegrees>
              <LongitudeDegrees>-1.9199917651712894439697265625</LongitudeDegrees>
            </Position>
            <AltitudeMeters>10.19999980926513671875</AltitudeMeters>
            <DistanceMeters>NAN</DistanceMeters>
          </Trackpoint>
          <Trackpoint>
            <Time>2021-08-11T16:19:16.000Z</Time>
            <Position>
              <LatitudeDegrees>43.3262304961681365966796875</LatitudeDegrees>
              <LongitudeDegrees>-1.91998715512454509735107421875</LongitudeDegrees>
            </Position>
            <AltitudeMeters>10.19999980926513671875</AltitudeMeters>
            <DistanceMeters>NAN</DistanceMeters>
          </Trackpoint>
          <Trackpoint>
            <Time>2021-08-11T16:19:17.000Z</Time>
            <Position>
              <LatitudeDegrees>43.32621239125728607177734375</LatitudeDegrees>
              <LongitudeDegrees>-1.9199803657829761505126953125</LongitudeDegrees>
            </Position>
            <AltitudeMeters>10.19999980926513671875</AltitudeMeters>
            <DistanceMeters>NAN</DistanceMeters>
          </Trackpoint>
          <Trackpoint>
            <Time>2021-08-11T16:19:18.000Z</Time>
            <Position>
              <LatitudeDegrees>43.326198644936084747314453125</LatitudeDegrees>
              <LongitudeDegrees>-1.9199746660888195037841796875</LongitudeDegrees>
            </Position>
            <AltitudeMeters>10.19999980926513671875</AltitudeMeters>
            <DistanceMeters>NAN</DistanceMeters>
          </Trackpoint>
          <Trackpoint>
            <Time>2021-08-11T16:19:19.000Z</Time>
            <Position>
              <LatitudeDegrees>43.32618364132940769195556640625</LatitudeDegrees>
              <LongitudeDegrees>-1.91996670328080654144287109375</LongitudeDegrees>
            </Position>
            <AltitudeMeters>10.19999980926513671875</AltitudeMeters>
            <DistanceMeters>NAN</DistanceMeters>
          </Trackpoint>
          <Trackpoint>
            <Time>2021-08-11T16:19:20.000Z</Time>
            <Position>
              <LatitudeDegrees>43.3261689729988574981689453125</LatitudeDegrees>
              <LongitudeDegrees>-1.91996343433856964111328125</LongitudeDegrees>
            </Position>
            <AltitudeMeters>10.19999980926513671875</AltitudeMeters>
            <DistanceMeters>NAN</DistanceMeters>
          </Trackpoint>
          <Trackpoint>
            <Time>2021-08-11T16:19:22.000Z</Time>
            <Position>
              <LatitudeDegrees>43.326149024069309234619140625</LatitudeDegrees>
              <LongitudeDegrees>-1.9199599139392375946044921875</LongitudeDegrees>
            </Position>
            <AltitudeMeters>10</AltitudeMeters>
            <DistanceMeters>NAN</DistanceMeters>
          </Trackpoint>
          <Trackpoint>
            <Time>2021-08-11T16:19:24.000Z</Time>
            <Position>
              <LatitudeDegrees>43.32612815313041210174560546875</LatitudeDegrees>
              <LongitudeDegrees>-1.91995714791119098663330078125</LongitudeDegrees>
            </Position>
            <AltitudeMeters>10</AltitudeMeters>
            <DistanceMeters>NAN</DistanceMeters>
          </Trackpoint>
          <Trackpoint>
            <Time>2021-08-11T16:19:25.000Z</Time>
            <Position>
              <LatitudeDegrees>43.3261210285127162933349609375</LatitudeDegrees>
              <LongitudeDegrees>-1.919962428510189056396484375</LongitudeDegrees>
            </Position>
            <AltitudeMeters>10</AltitudeMeters>
            <DistanceMeters>NAN</DistanceMeters>
          </Trackpoint>
          <Trackpoint>
            <Time>2021-08-11T16:19:26.000Z</Time>
            <Position>
              <LatitudeDegrees>43.326116502285003662109375</LatitudeDegrees>
              <LongitudeDegrees>-1.9199667870998382568359375</LongitudeDegrees>
            </Position>
            <AltitudeMeters>10</AltitudeMeters>
            <DistanceMeters>NAN</DistanceMeters>
          </Trackpoint>
          <Trackpoint>
            <Time>2021-08-11T16:19:27.000Z</Time>
            <Position>
              <LatitudeDegrees>43.32611180841922760009765625</LatitudeDegrees>
              <LongitudeDegrees>-1.9199632667005062103271484375</LongitudeDegrees>
            </Position>
            <AltitudeMeters>10</AltitudeMeters>
            <DistanceMeters>NAN</DistanceMeters>
          </Trackpoint>
          <Trackpoint>
            <Time>2021-08-11T16:19:28.000Z</Time>
            <Position>
              <LatitudeDegrees>43.32610619254410266876220703125</LatitudeDegrees>
              <LongitudeDegrees>-1.91995698027312755584716796875</LongitudeDegrees>
            </Position>
            <AltitudeMeters>10</AltitudeMeters>
            <DistanceMeters>NAN</DistanceMeters>
          </Trackpoint>
          <Trackpoint>
            <Time>2021-08-11T16:19:29.000Z</Time>
            <Position>
              <LatitudeDegrees>43.32609982229769229888916015625</LatitudeDegrees>
              <LongitudeDegrees>-1.91995832137763500213623046875</LongitudeDegrees>
            </Position>
            <AltitudeMeters>10</AltitudeMeters>
            <DistanceMeters>NAN</DistanceMeters>
          </Trackpoint>
          <Trackpoint>
            <Time>2021-08-11T16:19:30.000Z</Time>
            <Position>
              <LatitudeDegrees>43.32609714008867740631103515625</LatitudeDegrees>
              <LongitudeDegrees>-1.919959746301174163818359375</LongitudeDegrees>
            </Position>
            <AltitudeMeters>10</AltitudeMeters>
            <DistanceMeters>NAN</DistanceMeters>
          </Trackpoint>
          <Trackpoint>
            <Time>2021-08-11T16:19:53.000Z</Time>
            <Position>
              <LatitudeDegrees>43.325850963592529296875</LatitudeDegrees>
              <LongitudeDegrees>-1.9196812994778156280517578125</LongitudeDegrees>
            </Position>
            <AltitudeMeters>11.3999996185302734375</AltitudeMeters>
            <DistanceMeters>NAN</DistanceMeters>
          </Trackpoint>
          <Trackpoint>
            <Time>2021-08-11T16:19:57.000Z</Time>
            <Position>
              <LatitudeDegrees>43.3258380554616451263427734375</LatitudeDegrees>
              <LongitudeDegrees>-1.919730417430400848388671875</LongitudeDegrees>
            </Position>
            <AltitudeMeters>11.19999980926513671875</AltitudeMeters>
            <DistanceMeters>NAN</DistanceMeters>
          </Trackpoint>
          <Trackpoint>
            <Time>2021-08-11T16:19:58.000Z</Time>
            <Position>
              <LatitudeDegrees>43.32583880983293056488037109375</LatitudeDegrees>
              <LongitudeDegrees>-1.91973703913390636444091796875</LongitudeDegrees>
            </Position>
            <AltitudeMeters>11.19999980926513671875</AltitudeMeters>
            <DistanceMeters>NAN</DistanceMeters>
          </Trackpoint>
          <Trackpoint>
            <Time>2021-08-11T16:20:00.000Z</Time>
            <Position>
              <LatitudeDegrees>43.32577477209270000457763671875</LatitudeDegrees>
              <LongitudeDegrees>-1.91974374465644359588623046875</LongitudeDegrees>
            </Position>
            <AltitudeMeters>11.19999980926513671875</AltitudeMeters>
            <DistanceMeters>NAN</DistanceMeters>
          </Trackpoint>
          <Trackpoint>
            <Time>2021-08-11T16:20:01.000Z</Time>
            <Position>
              <LatitudeDegrees>43.32575239241123199462890625</LatitudeDegrees>
              <LongitudeDegrees>-1.9197279028594493865966796875</LongitudeDegrees>
            </Position>
            <AltitudeMeters>11</AltitudeMeters>
            <DistanceMeters>NAN</DistanceMeters>
          </Trackpoint>
          <Trackpoint>
            <Time>2021-08-11T16:20:03.000Z</Time>
            <Position>
              <LatitudeDegrees>43.3257371373474597930908203125</LatitudeDegrees>
              <LongitudeDegrees>-1.919719688594341278076171875</LongitudeDegrees>
            </Position>
            <AltitudeMeters>10.80000019073486328125</AltitudeMeters>
            <DistanceMeters>NAN</DistanceMeters>
          </Trackpoint>
          <Trackpoint>
            <Time>2021-08-11T16:20:04.000Z</Time>
            <Position>
              <LatitudeDegrees>43.32573319785296916961669921875</LatitudeDegrees>
              <LongitudeDegrees>-1.9197141565382480621337890625</LongitudeDegrees>
            </Position>
            <AltitudeMeters>10.80000019073486328125</AltitudeMeters>
            <DistanceMeters>NAN</DistanceMeters>
          </Trackpoint>
          <Trackpoint>
            <Time>2021-08-11T16:20:05.000Z</Time>
            <Position>
              <LatitudeDegrees>43.325723223388195037841796875</LatitudeDegrees>
              <LongitudeDegrees>-1.9197151623666286468505859375</LongitudeDegrees>
            </Position>
            <AltitudeMeters>10.80000019073486328125</AltitudeMeters>
            <DistanceMeters>NAN</DistanceMeters>
          </Trackpoint>
          <Trackpoint>
            <Time>2021-08-11T16:20:07.000Z</Time>
            <Position>
              <LatitudeDegrees>43.32571752369403839111328125</LatitudeDegrees>
              <LongitudeDegrees>-1.9197124801576137542724609375</LongitudeDegrees>
            </Position>
            <AltitudeMeters>10.80000019073486328125</AltitudeMeters>
            <DistanceMeters>NAN</DistanceMeters>
          </Trackpoint>
          <Trackpoint>
            <Time>2021-08-11T16:20:08.000Z</Time>
            <Position>
              <LatitudeDegrees>43.32571492530405521392822265625</LatitudeDegrees>
              <LongitudeDegrees>-1.9197066128253936767578125</LongitudeDegrees>
            </Position>
            <AltitudeMeters>10.80000019073486328125</AltitudeMeters>
            <DistanceMeters>NAN</DistanceMeters>
          </Trackpoint>
          <Trackpoint>
            <Time>2021-08-11T16:20:10.000Z</Time>
            <Position>
              <LatitudeDegrees>43.32570545375347137451171875</LatitudeDegrees>
              <LongitudeDegrees>-1.919691860675811767578125</LongitudeDegrees>
            </Position>
            <AltitudeMeters>10.80000019073486328125</AltitudeMeters>
            <DistanceMeters>NAN</DistanceMeters>
          </Trackpoint>
          <Trackpoint>
            <Time>2021-08-11T16:20:11.000Z</Time>
            <Position>
              <LatitudeDegrees>43.325694389641284942626953125</LatitudeDegrees>
              <LongitudeDegrees>-1.9196916930377483367919921875</LongitudeDegrees>
            </Position>
            <AltitudeMeters>10.80000019073486328125</AltitudeMeters>
            <DistanceMeters>NAN</DistanceMeters>
          </Trackpoint>
          <Trackpoint>
            <Time>2021-08-11T16:20:12.000Z</Time>
            <Position>
              <LatitudeDegrees>43.32568357698619365692138671875</LatitudeDegrees>
              <LongitudeDegrees>-1.9196824729442596435546875</LongitudeDegrees>
            </Position>
            <AltitudeMeters>10.80000019073486328125</AltitudeMeters>
            <DistanceMeters>NAN</DistanceMeters>
          </Trackpoint>
          <Trackpoint>
            <Time>2021-08-11T16:20:13.000Z</Time>
            <Position>
              <LatitudeDegrees>43.32566999830305576324462890625</LatitudeDegrees>
              <LongitudeDegrees>-1.9196699000895023345947265625</LongitudeDegrees>
            </Position>
            <AltitudeMeters>10.80000019073486328125</AltitudeMeters>
            <DistanceMeters>NAN</DistanceMeters>
          </Trackpoint>
          <Trackpoint>
            <Time>2021-08-11T16:20:14.000Z</Time>
            <Position>
              <LatitudeDegrees>43.3256637118756771087646484375</LatitudeDegrees>
              <LongitudeDegrees>-1.9196564890444278717041015625</LongitudeDegrees>
            </Position>
            <AltitudeMeters>10.80000019073486328125</AltitudeMeters>
            <DistanceMeters>NAN</DistanceMeters>
          </Trackpoint>
          <Trackpoint>
            <Time>2021-08-11T16:20:15.000Z</Time>
            <Position>
              <LatitudeDegrees>43.32565641961991786956787109375</LatitudeDegrees>
              <LongitudeDegrees>-1.91963595338165760040283203125</LongitudeDegrees>
            </Position>
            <AltitudeMeters>10.80000019073486328125</AltitudeMeters>
            <DistanceMeters>NAN</DistanceMeters>
          </Trackpoint>
          <Trackpoint>
            <Time>2021-08-11T16:20:17.000Z</Time>
            <Position>
              <LatitudeDegrees>43.3256375603377819061279296875</LatitudeDegrees>
              <LongitudeDegrees>-1.9196038506925106048583984375</LongitudeDegrees>
            </Position>
            <AltitudeMeters>10.80000019073486328125</AltitudeMeters>
            <DistanceMeters>NAN</DistanceMeters>
          </Trackpoint>
          <Trackpoint>
            <Time>2021-08-11T16:20:18.000Z</Time>
            <Position>
              <LatitudeDegrees>43.325628675520420074462890625</LatitudeDegrees>
              <LongitudeDegrees>-1.9195931218564510345458984375</LongitudeDegrees>
            </Position>
            <AltitudeMeters>10.80000019073486328125</AltitudeMeters>
            <DistanceMeters>NAN</DistanceMeters>
          </Trackpoint>
          <Trackpoint>
            <Time>2021-08-11T16:20:19.000Z</Time>
            <Position>
              <LatitudeDegrees>43.325620628893375396728515625</LatitudeDegrees>
              <LongitudeDegrees>-1.91958482377231121063232421875</LongitudeDegrees>
            </Position>
            <AltitudeMeters>10.80000019073486328125</AltitudeMeters>
            <DistanceMeters>NAN</DistanceMeters>
          </Trackpoint>
          <Trackpoint>
            <Time>2021-08-11T16:20:20.000Z</Time>
            <Position>
              <LatitudeDegrees>43.325613923370838165283203125</LatitudeDegrees>
              <LongitudeDegrees>-1.919573508203029632568359375</LongitudeDegrees>
            </Position>
            <AltitudeMeters>10.80000019073486328125</AltitudeMeters>
            <DistanceMeters>NAN</DistanceMeters>
          </Trackpoint>
          <Trackpoint>
            <Time>2021-08-11T16:20:22.000Z</Time>
            <Position>
              <LatitudeDegrees>43.325603194534778594970703125</LatitudeDegrees>
              <LongitudeDegrees>-1.9195492006838321685791015625</LongitudeDegrees>
            </Position>
            <AltitudeMeters>10.6000003814697265625</AltitudeMeters>
            <DistanceMeters>NAN</DistanceMeters>
          </Trackpoint>
          <Trackpoint>
            <Time>2021-08-11T16:20:23.000Z</Time>
            <Position>
              <LatitudeDegrees>43.3256000094115734100341796875</LatitudeDegrees>
              <LongitudeDegrees>-1.9195324368774890899658203125</LongitudeDegrees>
            </Position>
            <AltitudeMeters>10.6000003814697265625</AltitudeMeters>
            <DistanceMeters>NAN</DistanceMeters>
          </Trackpoint>
          <Trackpoint>
            <Time>2021-08-11T16:20:25.000Z</Time>
            <Position>
              <LatitudeDegrees>43.32558014430105686187744140625</LatitudeDegrees>
              <LongitudeDegrees>-1.91948994062840938568115234375</LongitudeDegrees>
            </Position>
            <AltitudeMeters>10.6000003814697265625</AltitudeMeters>
            <DistanceMeters>NAN</DistanceMeters>
          </Trackpoint>
          <Trackpoint>
            <Time>2021-08-11T16:20:26.000Z</Time>
            <Position>
              <LatitudeDegrees>43.32556639797985553741455078125</LatitudeDegrees>
              <LongitudeDegrees>-1.91946990787982940673828125</LongitudeDegrees>
            </Position>
            <AltitudeMeters>10.6000003814697265625</AltitudeMeters>
            <DistanceMeters>NAN</DistanceMeters>
          </Trackpoint>
          <Trackpoint>
            <Time>2021-08-11T16:20:27.000Z</Time>
            <Position>
              <LatitudeDegrees>43.3255668170750141143798828125</LatitudeDegrees>
              <LongitudeDegrees>-1.91946244798600673675537109375</LongitudeDegrees>
            </Position>
            <AltitudeMeters>10.6000003814697265625</AltitudeMeters>
            <DistanceMeters>NAN</DistanceMeters>
          </Trackpoint>
          <Trackpoint>
            <Time>2021-08-11T16:20:28.000Z</Time>
            <Position>
              <LatitudeDegrees>43.325573019683361053466796875</LatitudeDegrees>
              <LongitudeDegrees>-1.91944803111255168914794921875</LongitudeDegrees>
            </Position>
            <AltitudeMeters>10.6000003814697265625</AltitudeMeters>
            <DistanceMeters>NAN</DistanceMeters>
          </Trackpoint>
          <Trackpoint>
            <Time>2021-08-11T16:20:29.000Z</Time>
            <Position>
              <LatitudeDegrees>43.32558098249137401580810546875</LatitudeDegrees>
              <LongitudeDegrees>-1.91942908801138401031494140625</LongitudeDegrees>
            </Position>
            <AltitudeMeters>10.6000003814697265625</AltitudeMeters>
            <DistanceMeters>NAN</DistanceMeters>
          </Trackpoint>
          <Trackpoint>
            <Time>2021-08-11T16:20:30.000Z</Time>
            <Position>
              <LatitudeDegrees>43.3255832456052303314208984375</LatitudeDegrees>
              <LongitudeDegrees>-1.91942296922206878662109375</LongitudeDegrees>
            </Position>
            <AltitudeMeters>10.6000003814697265625</AltitudeMeters>
            <DistanceMeters>NAN</DistanceMeters>
          </Trackpoint>
          <Trackpoint>
            <Time>2021-08-11T16:20:31.000Z</Time>
            <Position>
              <LatitudeDegrees>43.32558165304362773895263671875</LatitudeDegrees>
              <LongitudeDegrees>-1.91942699253559112548828125</LongitudeDegrees>
            </Position>
            <AltitudeMeters>10.3999996185302734375</AltitudeMeters>
            <DistanceMeters>NAN</DistanceMeters>
          </Trackpoint>
          <Trackpoint>
            <Time>2021-08-11T16:20:32.000Z</Time>
            <Position>
              <LatitudeDegrees>43.325569666922092437744140625</LatitudeDegrees>
              <LongitudeDegrees>-1.919422633945941925048828125</LongitudeDegrees>
            </Position>
            <AltitudeMeters>10.3999996185302734375</AltitudeMeters>
            <DistanceMeters>NAN</DistanceMeters>
          </Trackpoint>
          <Trackpoint>
            <Time>2021-08-11T16:20:33.000Z</Time>
            <Position>
              <LatitudeDegrees>43.3255718462169170379638671875</LatitudeDegrees>
              <LongitudeDegrees>-1.91940930671989917755126953125</LongitudeDegrees>
            </Position>
            <AltitudeMeters>10.3999996185302734375</AltitudeMeters>
            <DistanceMeters>NAN</DistanceMeters>
          </Trackpoint>
          <Trackpoint>
            <Time>2021-08-11T16:20:34.000Z</Time>
            <Position>
              <LatitudeDegrees>43.32558215595781803131103515625</LatitudeDegrees>
              <LongitudeDegrees>-1.919389776885509490966796875</LongitudeDegrees>
            </Position>
            <AltitudeMeters>10.3999996185302734375</AltitudeMeters>
            <DistanceMeters>NAN</DistanceMeters>
          </Trackpoint>
          <Trackpoint>
            <Time>2021-08-11T16:20:35.000Z</Time>
            <Position>
              <LatitudeDegrees>43.32559104077517986297607421875</LatitudeDegrees>
              <LongitudeDegrees>-1.9193748570978641510009765625</LongitudeDegrees>
            </Position>
            <AltitudeMeters>10.3999996185302734375</AltitudeMeters>
            <DistanceMeters>NAN</DistanceMeters>
          </Trackpoint>
          <Trackpoint>
            <Time>2021-08-11T16:20:36.000Z</Time>
            <Position>
              <LatitudeDegrees>43.32560093142092227935791015625</LatitudeDegrees>
              <LongitudeDegrees>-1.91935700364410877227783203125</LongitudeDegrees>
            </Position>
            <AltitudeMeters>10.3999996185302734375</AltitudeMeters>
            <DistanceMeters>NAN</DistanceMeters>
          </Trackpoint>
          <Trackpoint>
            <Time>2021-08-11T16:20:37.000Z</Time>
            <Position>
              <LatitudeDegrees>43.32561132498085498809814453125</LatitudeDegrees>
              <LongitudeDegrees>-1.91934107802808284759521484375</LongitudeDegrees>
            </Position>
            <AltitudeMeters>10.3999996185302734375</AltitudeMeters>
            <DistanceMeters>NAN</DistanceMeters>
          </Trackpoint>
          <Trackpoint>
            <Time>2021-08-11T16:20:38.000Z</Time>
            <Position>
              <LatitudeDegrees>43.32560059614479541778564453125</LatitudeDegrees>
              <LongitudeDegrees>-1.91932682879269123077392578125</LongitudeDegrees>
            </Position>
            <AltitudeMeters>10.3999996185302734375</AltitudeMeters>
            <DistanceMeters>NAN</DistanceMeters>
          </Trackpoint>
          <Trackpoint>
            <Time>2021-08-11T16:20:39.000Z</Time>
            <Position>
              <LatitudeDegrees>43.32558810710906982421875</LatitudeDegrees>
              <LongitudeDegrees>-1.9193010963499546051025390625</LongitudeDegrees>
            </Position>
            <AltitudeMeters>10.6000003814697265625</AltitudeMeters>
            <DistanceMeters>NAN</DistanceMeters>
          </Trackpoint>
          <Trackpoint>
            <Time>2021-08-11T16:20:40.000Z</Time>
            <Position>
              <LatitudeDegrees>43.3255540765821933746337890625</LatitudeDegrees>
              <LongitudeDegrees>-1.9192397408187389373779296875</LongitudeDegrees>
            </Position>
            <AltitudeMeters>10.6000003814697265625</AltitudeMeters>
            <DistanceMeters>NAN</DistanceMeters>
          </Trackpoint>
          <Trackpoint>
            <Time>2021-08-11T16:20:41.000Z</Time>
            <Position>
              <LatitudeDegrees>43.32554745487868785858154296875</LatitudeDegrees>
              <LongitudeDegrees>-1.919207386672496795654296875</LongitudeDegrees>
            </Position>
            <AltitudeMeters>10.6000003814697265625</AltitudeMeters>
            <DistanceMeters>NAN</DistanceMeters>
          </Trackpoint>
          <Trackpoint>
            <Time>2021-08-11T16:20:42.000Z</Time>
            <Position>
              <LatitudeDegrees>43.32554393447935581207275390625</LatitudeDegrees>
              <LongitudeDegrees>-1.9191907905042171478271484375</LongitudeDegrees>
            </Position>
            <AltitudeMeters>10.6000003814697265625</AltitudeMeters>
            <DistanceMeters>NAN</DistanceMeters>
          </Trackpoint>
          <Trackpoint>
            <Time>2021-08-11T16:20:43.000Z</Time>
            <Position>
              <LatitudeDegrees>43.325537145137786865234375</LatitudeDegrees>
              <LongitudeDegrees>-1.9191780500113964080810546875</LongitudeDegrees>
            </Position>
            <AltitudeMeters>10.6000003814697265625</AltitudeMeters>
            <DistanceMeters>NAN</DistanceMeters>
          </Trackpoint>
          <Trackpoint>
            <Time>2021-08-11T16:20:44.000Z</Time>
            <Position>
              <LatitudeDegrees>43.3255309425294399261474609375</LatitudeDegrees>
              <LongitudeDegrees>-1.91916950047016143798828125</LongitudeDegrees>
            </Position>
            <AltitudeMeters>10.6000003814697265625</AltitudeMeters>
            <DistanceMeters>NAN</DistanceMeters>
          </Trackpoint>
          <Trackpoint>
            <Time>2021-08-11T16:20:45.000Z</Time>
            <Position>
              <LatitudeDegrees>43.3255259133875370025634765625</LatitudeDegrees>
              <LongitudeDegrees>-1.91916371695697307586669921875</LongitudeDegrees>
            </Position>
            <AltitudeMeters>10.6000003814697265625</AltitudeMeters>
            <DistanceMeters>NAN</DistanceMeters>
          </Trackpoint>
          <Trackpoint>
            <Time>2021-08-11T16:20:46.000Z</Time>
            <Position>
              <LatitudeDegrees>43.32552147097885608673095703125</LatitudeDegrees>
              <LongitudeDegrees>-1.91915751434862613677978515625</LongitudeDegrees>
            </Position>
            <AltitudeMeters>10.6000003814697265625</AltitudeMeters>
            <DistanceMeters>NAN</DistanceMeters>
          </Trackpoint>
          <Trackpoint>
            <Time>2021-08-11T16:20:51.000Z</Time>
            <Position>
              <LatitudeDegrees>43.32550101913511753082275390625</LatitudeDegrees>
              <LongitudeDegrees>-1.9191059656441211700439453125</LongitudeDegrees>
            </Position>
            <AltitudeMeters>10.80000019073486328125</AltitudeMeters>
            <DistanceMeters>NAN</DistanceMeters>
          </Trackpoint>
          <Trackpoint>
            <Time>2021-08-11T16:20:52.000Z</Time>
            <Position>
              <LatitudeDegrees>43.32548878155648708343505859375</LatitudeDegrees>
              <LongitudeDegrees>-1.91909112967550754547119140625</LongitudeDegrees>
            </Position>
            <AltitudeMeters>11</AltitudeMeters>
            <DistanceMeters>NAN</DistanceMeters>
          </Trackpoint>
          <Trackpoint>
            <Time>2021-08-11T16:20:53.000Z</Time>
            <Position>
              <LatitudeDegrees>43.3254692517220973968505859375</LatitudeDegrees>
              <LongitudeDegrees>-1.91907788626849651336669921875</LongitudeDegrees>
            </Position>
            <AltitudeMeters>11</AltitudeMeters>
            <DistanceMeters>NAN</DistanceMeters>
          </Trackpoint>
          <Trackpoint>
            <Time>2021-08-11T16:20:54.000Z</Time>
            <Position>
              <LatitudeDegrees>43.3254514820873737335205078125</LatitudeDegrees>
              <LongitudeDegrees>-1.9190630502998828887939453125</LongitudeDegrees>
            </Position>
            <AltitudeMeters>11.19999980926513671875</AltitudeMeters>
            <DistanceMeters>NAN</DistanceMeters>
          </Trackpoint>
          <Trackpoint>
            <Time>2021-08-11T16:20:56.000Z</Time>
            <Position>
              <LatitudeDegrees>43.32543362863361835479736328125</LatitudeDegrees>
              <LongitudeDegrees>-1.91904335282742977142333984375</LongitudeDegrees>
            </Position>
            <AltitudeMeters>11.19999980926513671875</AltitudeMeters>
            <DistanceMeters>NAN</DistanceMeters>
          </Trackpoint>
          <Trackpoint>
            <Time>2021-08-11T16:20:57.000Z</Time>
            <Position>
              <LatitudeDegrees>43.32542004995048046112060546875</LatitudeDegrees>
              <LongitudeDegrees>-1.919049136340618133544921875</LongitudeDegrees>
            </Position>
            <AltitudeMeters>11.19999980926513671875</AltitudeMeters>
            <DistanceMeters>NAN</DistanceMeters>
          </Trackpoint>
          <Trackpoint>
            <Time>2021-08-11T16:20:59.000Z</Time>
            <Position>
              <LatitudeDegrees>43.3253918029367923736572265625</LatitudeDegrees>
              <LongitudeDegrees>-1.91902290098369121551513671875</LongitudeDegrees>
            </Position>
            <AltitudeMeters>11.19999980926513671875</AltitudeMeters>
            <DistanceMeters>NAN</DistanceMeters>
          </Trackpoint>
          <Trackpoint>
            <Time>2021-08-11T16:21:01.000Z</Time>
            <Position>
              <LatitudeDegrees>43.3253532461822032928466796875</LatitudeDegrees>
              <LongitudeDegrees>-1.91899741999804973602294921875</LongitudeDegrees>
            </Position>
            <AltitudeMeters>11.19999980926513671875</AltitudeMeters>
            <DistanceMeters>NAN</DistanceMeters>
          </Trackpoint>
          <Trackpoint>
            <Time>2021-08-11T16:21:02.000Z</Time>
            <Position>
              <LatitudeDegrees>43.3253512345254421234130859375</LatitudeDegrees>
              <LongitudeDegrees>-1.918960623443126678466796875</LongitudeDegrees>
            </Position>
            <AltitudeMeters>11.19999980926513671875</AltitudeMeters>
            <DistanceMeters>NAN</DistanceMeters>
          </Trackpoint>
          <Trackpoint>
            <Time>2021-08-11T16:21:03.000Z</Time>
            <Position>
              <LatitudeDegrees>43.32534779794514179229736328125</LatitudeDegrees>
              <LongitudeDegrees>-1.91894042305648326873779296875</LongitudeDegrees>
            </Position>
            <AltitudeMeters>11.19999980926513671875</AltitudeMeters>
            <DistanceMeters>NAN</DistanceMeters>
          </Trackpoint>
          <Trackpoint>
            <Time>2021-08-11T16:21:04.000Z</Time>
            <Position>
              <LatitudeDegrees>43.32534712739288806915283203125</LatitudeDegrees>
              <LongitudeDegrees>-1.91892466507852077484130859375</LongitudeDegrees>
            </Position>
            <AltitudeMeters>11.19999980926513671875</AltitudeMeters>
            <DistanceMeters>NAN</DistanceMeters>
          </Trackpoint>
          <Trackpoint>
            <Time>2021-08-11T16:21:06.000Z</Time>
            <Position>
              <LatitudeDegrees>43.32534092478454113006591796875</LatitudeDegrees>
              <LongitudeDegrees>-1.9188920594751834869384765625</LongitudeDegrees>
            </Position>
            <AltitudeMeters>11.19999980926513671875</AltitudeMeters>
            <DistanceMeters>NAN</DistanceMeters>
          </Trackpoint>
          <Trackpoint>
            <Time>2021-08-11T16:21:07.000Z</Time>
            <Position>
              <LatitudeDegrees>43.32534025423228740692138671875</LatitudeDegrees>
              <LongitudeDegrees>-1.91887755878269672393798828125</LongitudeDegrees>
            </Position>
            <AltitudeMeters>11.19999980926513671875</AltitudeMeters>
            <DistanceMeters>NAN</DistanceMeters>
          </Trackpoint>
          <Trackpoint>
            <Time>2021-08-11T16:21:10.000Z</Time>
            <Position>
              <LatitudeDegrees>43.32533053122460842132568359375</LatitudeDegrees>
              <LongitudeDegrees>-1.91883824765682220458984375</LongitudeDegrees>
            </Position>
            <AltitudeMeters>11.19999980926513671875</AltitudeMeters>
            <DistanceMeters>NAN</DistanceMeters>
          </Trackpoint>
          <Trackpoint>
            <Time>2021-08-11T16:21:11.000Z</Time>
            <Position>
              <LatitudeDegrees>43.32532617263495922088623046875</LatitudeDegrees>
              <LongitudeDegrees>-1.91882961429655551910400390625</LongitudeDegrees>
            </Position>
            <AltitudeMeters>11</AltitudeMeters>
            <DistanceMeters>NAN</DistanceMeters>
          </Trackpoint>
          <Trackpoint>
            <Time>2021-08-11T16:21:12.000Z</Time>
            <Position>
              <LatitudeDegrees>43.32532726228237152099609375</LatitudeDegrees>
              <LongitudeDegrees>-1.9188166223466396331787109375</LongitudeDegrees>
            </Position>
            <AltitudeMeters>11</AltitudeMeters>
            <DistanceMeters>NAN</DistanceMeters>
          </Trackpoint>
          <Trackpoint>
            <Time>2021-08-11T16:21:14.000Z</Time>
            <Position>
              <LatitudeDegrees>43.325322568416595458984375</LatitudeDegrees>
              <LongitudeDegrees>-1.9188052229583263397216796875</LongitudeDegrees>
            </Position>
            <AltitudeMeters>11</AltitudeMeters>
            <DistanceMeters>NAN</DistanceMeters>
          </Trackpoint>
          <Trackpoint>
            <Time>2021-08-11T16:21:16.000Z</Time>
            <Position>
              <LatitudeDegrees>43.32530622370541095733642578125</LatitudeDegrees>
              <LongitudeDegrees>-1.91879407502710819244384765625</LongitudeDegrees>
            </Position>
            <AltitudeMeters>11</AltitudeMeters>
            <DistanceMeters>NAN</DistanceMeters>
          </Trackpoint>
          <Trackpoint>
            <Time>2021-08-11T16:21:20.000Z</Time>
            <Position>
              <LatitudeDegrees>43.32525886595249176025390625</LatitudeDegrees>
              <LongitudeDegrees>-1.91868536174297332763671875</LongitudeDegrees>
            </Position>
            <AltitudeMeters>10.80000019073486328125</AltitudeMeters>
            <DistanceMeters>NAN</DistanceMeters>
          </Trackpoint>
          <Trackpoint>
            <Time>2021-08-11T16:21:21.000Z</Time>
            <Position>
              <LatitudeDegrees>43.32525040023028850555419921875</LatitudeDegrees>
              <LongitudeDegrees>-1.9186674244701862335205078125</LongitudeDegrees>
            </Position>
            <AltitudeMeters>10.6000003814697265625</AltitudeMeters>
            <DistanceMeters>NAN</DistanceMeters>
          </Trackpoint>
          <Trackpoint>
            <Time>2021-08-11T16:21:22.000Z</Time>
            <Position>
              <LatitudeDegrees>43.32523782737553119659423828125</LatitudeDegrees>
              <LongitudeDegrees>-1.91866918466985225677490234375</LongitudeDegrees>
            </Position>
            <AltitudeMeters>10.6000003814697265625</AltitudeMeters>
            <DistanceMeters>NAN</DistanceMeters>
          </Trackpoint>
          <Trackpoint>
            <Time>2021-08-11T16:21:23.000Z</Time>
            <Position>
              <LatitudeDegrees>43.32521419040858745574951171875</LatitudeDegrees>
              <LongitudeDegrees>-1.918672285974025726318359375</LongitudeDegrees>
            </Position>
            <AltitudeMeters>10.6000003814697265625</AltitudeMeters>
            <DistanceMeters>NAN</DistanceMeters>
          </Trackpoint>
          <Trackpoint>
            <Time>2021-08-11T16:21:24.000Z</Time>
            <Position>
              <LatitudeDegrees>43.32520362921059131622314453125</LatitudeDegrees>
              <LongitudeDegrees>-1.91866633482277393341064453125</LongitudeDegrees>
            </Position>
            <AltitudeMeters>10.6000003814697265625</AltitudeMeters>
            <DistanceMeters>NAN</DistanceMeters>
          </Trackpoint>
          <Trackpoint>
            <Time>2021-08-11T16:21:25.000Z</Time>
            <Position>
              <LatitudeDegrees>43.32519591785967350006103515625</LatitudeDegrees>
              <LongitudeDegrees>-1.91865962930023670196533203125</LongitudeDegrees>
            </Position>
            <AltitudeMeters>10.80000019073486328125</AltitudeMeters>
            <DistanceMeters>NAN</DistanceMeters>
          </Trackpoint>
          <Trackpoint>
            <Time>2021-08-11T16:21:26.000Z</Time>
            <Position>
              <LatitudeDegrees>43.32518988288938999176025390625</LatitudeDegrees>
              <LongitudeDegrees>-1.9186654128134250640869140625</LongitudeDegrees>
            </Position>
            <AltitudeMeters>10.80000019073486328125</AltitudeMeters>
            <DistanceMeters>NAN</DistanceMeters>
          </Trackpoint>
          <Trackpoint>
            <Time>2021-08-11T16:21:27.000Z</Time>
            <Position>
              <LatitudeDegrees>43.3251822553575038909912109375</LatitudeDegrees>
              <LongitudeDegrees>-1.91868427209556102752685546875</LongitudeDegrees>
            </Position>
            <AltitudeMeters>11</AltitudeMeters>
            <DistanceMeters>NAN</DistanceMeters>
          </Trackpoint>
          <Trackpoint>
            <Time>2021-08-11T16:21:30.000Z</Time>
            <Position>
              <LatitudeDegrees>43.32515886984765529632568359375</LatitudeDegrees>
              <LongitudeDegrees>-1.918713860213756561279296875</LongitudeDegrees>
            </Position>
            <AltitudeMeters>11.19999980926513671875</AltitudeMeters>
            <DistanceMeters>NAN</DistanceMeters>
          </Trackpoint>
          <Trackpoint>
            <Time>2021-08-11T16:21:31.000Z</Time>
            <Position>
              <LatitudeDegrees>43.325153924524784088134765625</LatitudeDegrees>
              <LongitudeDegrees>-1.918715201318264007568359375</LongitudeDegrees>
            </Position>
            <AltitudeMeters>11.3999996185302734375</AltitudeMeters>
            <DistanceMeters>NAN</DistanceMeters>
          </Trackpoint>
          <Trackpoint>
            <Time>2021-08-11T16:21:32.000Z</Time>
            <Position>
              <LatitudeDegrees>43.325145207345485687255859375</LatitudeDegrees>
              <LongitudeDegrees>-1.91871964372694492340087890625</LongitudeDegrees>
            </Position>
            <AltitudeMeters>11.3999996185302734375</AltitudeMeters>
            <DistanceMeters>NAN</DistanceMeters>
          </Trackpoint>
          <Trackpoint>
            <Time>2021-08-11T16:21:33.000Z</Time>
            <Position>
              <LatitudeDegrees>43.325138501822948455810546875</LatitudeDegrees>
              <LongitudeDegrees>-1.91872031427919864654541015625</LongitudeDegrees>
            </Position>
            <AltitudeMeters>11.3999996185302734375</AltitudeMeters>
            <DistanceMeters>NAN</DistanceMeters>
          </Trackpoint>
          <Trackpoint>
            <Time>2021-08-11T16:21:34.000Z</Time>
            <Position>
              <LatitudeDegrees>43.3251361548900604248046875</LatitudeDegrees>
              <LongitudeDegrees>-1.91870656795799732208251953125</LongitudeDegrees>
            </Position>
            <AltitudeMeters>11.3999996185302734375</AltitudeMeters>
            <DistanceMeters>NAN</DistanceMeters>
          </Trackpoint>
          <Trackpoint>
            <Time>2021-08-11T16:21:35.000Z</Time>
            <Position>
              <LatitudeDegrees>43.32513757981359958648681640625</LatitudeDegrees>
              <LongitudeDegrees>-1.918687038123607635498046875</LongitudeDegrees>
            </Position>
            <AltitudeMeters>11.3999996185302734375</AltitudeMeters>
            <DistanceMeters>NAN</DistanceMeters>
          </Trackpoint>
          <Trackpoint>
            <Time>2021-08-11T16:21:36.000Z</Time>
            <Position>
              <LatitudeDegrees>43.325153253972530364990234375</LatitudeDegrees>
              <LongitudeDegrees>-1.9186553545296192169189453125</LongitudeDegrees>
            </Position>
            <AltitudeMeters>11.3999996185302734375</AltitudeMeters>
            <DistanceMeters>NAN</DistanceMeters>
          </Trackpoint>
          <Trackpoint>
            <Time>2021-08-11T16:21:37.000Z</Time>
            <Position>
              <LatitudeDegrees>43.3251762203872203826904296875</LatitudeDegrees>
              <LongitudeDegrees>-1.9186151213943958282470703125</LongitudeDegrees>
            </Position>
            <AltitudeMeters>11.3999996185302734375</AltitudeMeters>
            <DistanceMeters>NAN</DistanceMeters>
          </Trackpoint>
          <Trackpoint>
            <Time>2021-08-11T16:21:40.000Z</Time>
            <Position>
              <LatitudeDegrees>43.3251755498349666595458984375</LatitudeDegrees>
              <LongitudeDegrees>-1.9185371696949005126953125</LongitudeDegrees>
            </Position>
            <AltitudeMeters>11.6000003814697265625</AltitudeMeters>
            <DistanceMeters>NAN</DistanceMeters>
          </Trackpoint>
          <Trackpoint>
            <Time>2021-08-11T16:21:41.000Z</Time>
            <Position>
              <LatitudeDegrees>43.32516976632177829742431640625</LatitudeDegrees>
              <LongitudeDegrees>-1.91852442920207977294921875</LongitudeDegrees>
            </Position>
            <AltitudeMeters>11.6000003814697265625</AltitudeMeters>
            <DistanceMeters>NAN</DistanceMeters>
          </Trackpoint>
          <Trackpoint>
            <Time>2021-08-11T16:21:42.000Z</Time>
            <Position>
              <LatitudeDegrees>43.325165994465351104736328125</LatitudeDegrees>
              <LongitudeDegrees>-1.91851437091827392578125</LongitudeDegrees>
            </Position>
            <AltitudeMeters>11.6000003814697265625</AltitudeMeters>
            <DistanceMeters>NAN</DistanceMeters>
          </Trackpoint>
          <Trackpoint>
            <Time>2021-08-11T16:21:43.000Z</Time>
            <Position>
              <LatitudeDegrees>43.3251708559691905975341796875</LatitudeDegrees>
              <LongitudeDegrees>-1.91849500872194766998291015625</LongitudeDegrees>
            </Position>
            <AltitudeMeters>11.6000003814697265625</AltitudeMeters>
            <DistanceMeters>NAN</DistanceMeters>
          </Trackpoint>
          <Trackpoint>
            <Time>2021-08-11T16:21:46.000Z</Time>
            <Position>
              <LatitudeDegrees>43.32516892813146114349365234375</LatitudeDegrees>
              <LongitudeDegrees>-1.918463073670864105224609375</LongitudeDegrees>
            </Position>
            <AltitudeMeters>12</AltitudeMeters>
            <DistanceMeters>NAN</DistanceMeters>
          </Trackpoint>
          <Trackpoint>
            <Time>2021-08-11T16:21:47.000Z</Time>
            <Position>
              <LatitudeDegrees>43.32516557537019252777099609375</LatitudeDegrees>
              <LongitudeDegrees>-1.91846097819507122039794921875</LongitudeDegrees>
            </Position>
            <AltitudeMeters>12.19999980926513671875</AltitudeMeters>
            <DistanceMeters>NAN</DistanceMeters>
          </Trackpoint>
          <Trackpoint>
            <Time>2021-08-11T16:21:48.000Z</Time>
            <Position>
              <LatitudeDegrees>43.32516456954181194305419921875</LatitudeDegrees>
              <LongitudeDegrees>-1.91845527850091457366943359375</LongitudeDegrees>
            </Position>
            <AltitudeMeters>12.19999980926513671875</AltitudeMeters>
            <DistanceMeters>NAN</DistanceMeters>
          </Trackpoint>
          <Trackpoint>
            <Time>2021-08-11T16:21:49.000Z</Time>
            <Position>
              <LatitudeDegrees>43.3251654915511608123779296875</LatitudeDegrees>
              <LongitudeDegrees>-1.91843650303781032562255859375</LongitudeDegrees>
            </Position>
            <AltitudeMeters>12.19999980926513671875</AltitudeMeters>
            <DistanceMeters>NAN</DistanceMeters>
          </Trackpoint>
          <Trackpoint>
            <Time>2021-08-11T16:21:50.000Z</Time>
            <Position>
              <LatitudeDegrees>43.3251732029020786285400390625</LatitudeDegrees>
              <LongitudeDegrees>-1.918394677340984344482421875</LongitudeDegrees>
            </Position>
            <AltitudeMeters>12.3999996185302734375</AltitudeMeters>
            <DistanceMeters>NAN</DistanceMeters>
          </Trackpoint>
          <Trackpoint>
            <Time>2021-08-11T16:21:51.000Z</Time>
            <Position>
              <LatitudeDegrees>43.325131125748157501220703125</LatitudeDegrees>
              <LongitudeDegrees>-1.91833055578172206878662109375</LongitudeDegrees>
            </Position>
            <AltitudeMeters>12.3999996185302734375</AltitudeMeters>
            <DistanceMeters>NAN</DistanceMeters>
          </Trackpoint>
          <Trackpoint>
            <Time>2021-08-11T16:21:52.000Z</Time>
            <Position>
              <LatitudeDegrees>43.32512517459690570831298828125</LatitudeDegrees>
              <LongitudeDegrees>-1.91830708645284175872802734375</LongitudeDegrees>
            </Position>
            <AltitudeMeters>12.6000003814697265625</AltitudeMeters>
            <DistanceMeters>NAN</DistanceMeters>
          </Trackpoint>
          <Trackpoint>
            <Time>2021-08-11T16:21:53.000Z</Time>
            <Position>
              <LatitudeDegrees>43.3251165412366390228271484375</LatitudeDegrees>
              <LongitudeDegrees>-1.9182877242565155029296875</LongitudeDegrees>
            </Position>
            <AltitudeMeters>12.6000003814697265625</AltitudeMeters>
            <DistanceMeters>NAN</DistanceMeters>
          </Trackpoint>
          <Trackpoint>
            <Time>2021-08-11T16:21:54.000Z</Time>
            <Position>
              <LatitudeDegrees>43.32511779852211475372314453125</LatitudeDegrees>
              <LongitudeDegrees>-1.9182728044688701629638671875</LongitudeDegrees>
            </Position>
            <AltitudeMeters>12.80000019073486328125</AltitudeMeters>
            <DistanceMeters>NAN</DistanceMeters>
          </Trackpoint>
          <Trackpoint>
            <Time>2021-08-11T16:21:55.000Z</Time>
            <Position>
              <LatitudeDegrees>43.325123079121112823486328125</LatitudeDegrees>
              <LongitudeDegrees>-1.9182630814611911773681640625</LongitudeDegrees>
            </Position>
            <AltitudeMeters>13</AltitudeMeters>
            <DistanceMeters>NAN</DistanceMeters>
          </Trackpoint>
          <Trackpoint>
            <Time>2021-08-11T16:21:56.000Z</Time>
            <Position>
              <LatitudeDegrees>43.32512534223496913909912109375</LatitudeDegrees>
              <LongitudeDegrees>-1.91825344227254390716552734375</LongitudeDegrees>
            </Position>
            <AltitudeMeters>13.19999980926513671875</AltitudeMeters>
            <DistanceMeters>NAN</DistanceMeters>
          </Trackpoint>
          <Trackpoint>
            <Time>2021-08-11T16:21:57.000Z</Time>
            <Position>
              <LatitudeDegrees>43.32512743771076202392578125</LatitudeDegrees>
              <LongitudeDegrees>-1.91822997294366359710693359375</LongitudeDegrees>
            </Position>
            <AltitudeMeters>13.19999980926513671875</AltitudeMeters>
            <DistanceMeters>NAN</DistanceMeters>
          </Trackpoint>
          <Trackpoint>
            <Time>2021-08-11T16:21:58.000Z</Time>
            <Position>
              <LatitudeDegrees>43.32512282766401767730712890625</LatitudeDegrees>
              <LongitudeDegrees>-1.91821086220443248748779296875</LongitudeDegrees>
            </Position>
            <AltitudeMeters>13.3999996185302734375</AltitudeMeters>
            <DistanceMeters>NAN</DistanceMeters>
          </Trackpoint>
          <Trackpoint>
            <Time>2021-08-11T16:22:00.000Z</Time>
            <Position>
              <LatitudeDegrees>43.32511126063764095306396484375</LatitudeDegrees>
              <LongitudeDegrees>-1.91817683167755603790283203125</LongitudeDegrees>
            </Position>
            <AltitudeMeters>13.80000019073486328125</AltitudeMeters>
            <DistanceMeters>NAN</DistanceMeters>
          </Trackpoint>
          <Trackpoint>
            <Time>2021-08-11T16:22:01.000Z</Time>
            <Position>
              <LatitudeDegrees>43.32511209882795810699462890625</LatitudeDegrees>
              <LongitudeDegrees>-1.9181584753096103668212890625</LongitudeDegrees>
            </Position>
            <AltitudeMeters>14</AltitudeMeters>
            <DistanceMeters>NAN</DistanceMeters>
          </Trackpoint>
          <Trackpoint>
            <Time>2021-08-11T16:22:02.000Z</Time>
            <Position>
              <LatitudeDegrees>43.3251158706843852996826171875</LatitudeDegrees>
              <LongitudeDegrees>-1.91814397461712360382080078125</LongitudeDegrees>
            </Position>
            <AltitudeMeters>14</AltitudeMeters>
            <DistanceMeters>NAN</DistanceMeters>
          </Trackpoint>
          <Trackpoint>
            <Time>2021-08-11T16:22:03.000Z</Time>
            <Position>
              <LatitudeDegrees>43.32512131892144680023193359375</LatitudeDegrees>
              <LongitudeDegrees>-1.91812687553465366363525390625</LongitudeDegrees>
            </Position>
            <AltitudeMeters>14.19999980926513671875</AltitudeMeters>
            <DistanceMeters>NAN</DistanceMeters>
          </Trackpoint>
          <Trackpoint>
            <Time>2021-08-11T16:22:04.000Z</Time>
            <Position>
              <LatitudeDegrees>43.32512215711176395416259765625</LatitudeDegrees>
              <LongitudeDegrees>-1.91810659132897853851318359375</LongitudeDegrees>
            </Position>
            <AltitudeMeters>14.19999980926513671875</AltitudeMeters>
            <DistanceMeters>NAN</DistanceMeters>
          </Trackpoint>
          <Trackpoint>
            <Time>2021-08-11T16:22:06.000Z</Time>
            <Position>
              <LatitudeDegrees>43.32510706968605518341064453125</LatitudeDegrees>
              <LongitudeDegrees>-1.9180639274418354034423828125</LongitudeDegrees>
            </Position>
            <AltitudeMeters>14.3999996185302734375</AltitudeMeters>
            <DistanceMeters>NAN</DistanceMeters>
          </Trackpoint>
          <Trackpoint>
            <Time>2021-08-11T16:22:07.000Z</Time>
            <Position>
              <LatitudeDegrees>43.32510388456284999847412109375</LatitudeDegrees>
              <LongitudeDegrees>-1.91804087720811367034912109375</LongitudeDegrees>
            </Position>
            <AltitudeMeters>14.3999996185302734375</AltitudeMeters>
            <DistanceMeters>NAN</DistanceMeters>
          </Trackpoint>
          <Trackpoint>
            <Time>2021-08-11T16:22:08.000Z</Time>
            <Position>
              <LatitudeDegrees>43.32509793341159820556640625</LatitudeDegrees>
              <LongitudeDegrees>-1.91801883280277252197265625</LongitudeDegrees>
            </Position>
            <AltitudeMeters>14.3999996185302734375</AltitudeMeters>
            <DistanceMeters>NAN</DistanceMeters>
          </Trackpoint>
          <Trackpoint>
            <Time>2021-08-11T16:22:09.000Z</Time>
            <Position>
              <LatitudeDegrees>43.3250890485942363739013671875</LatitudeDegrees>
              <LongitudeDegrees>-1.9179958663880825042724609375</LongitudeDegrees>
            </Position>
            <AltitudeMeters>14.3999996185302734375</AltitudeMeters>
            <DistanceMeters>NAN</DistanceMeters>
          </Trackpoint>
          <Trackpoint>
            <Time>2021-08-11T16:22:10.000Z</Time>
            <Position>
              <LatitudeDegrees>43.32507907412946224212646484375</LatitudeDegrees>
              <LongitudeDegrees>-1.9179794378578662872314453125</LongitudeDegrees>
            </Position>
            <AltitudeMeters>14.6000003814697265625</AltitudeMeters>
            <DistanceMeters>NAN</DistanceMeters>
          </Trackpoint>
          <Trackpoint>
            <Time>2021-08-11T16:22:11.000Z</Time>
            <Position>
              <LatitudeDegrees>43.32506381906569004058837890625</LatitudeDegrees>
              <LongitudeDegrees>-1.9179613329470157623291015625</LongitudeDegrees>
            </Position>
            <AltitudeMeters>14.6000003814697265625</AltitudeMeters>
            <DistanceMeters>NAN</DistanceMeters>
          </Trackpoint>
          <Trackpoint>
            <Time>2021-08-11T16:22:12.000Z</Time>
            <Position>
              <LatitudeDegrees>43.3250558562576770782470703125</LatitudeDegrees>
              <LongitudeDegrees>-1.91793702542781829833984375</LongitudeDegrees>
            </Position>
            <AltitudeMeters>14.80000019073486328125</AltitudeMeters>
            <DistanceMeters>NAN</DistanceMeters>
          </Trackpoint>
          <Trackpoint>
            <Time>2021-08-11T16:22:13.000Z</Time>
            <Position>
              <LatitudeDegrees>43.3250521682202816009521484375</LatitudeDegrees>
              <LongitudeDegrees>-1.91792168654501438140869140625</LongitudeDegrees>
            </Position>
            <AltitudeMeters>15</AltitudeMeters>
            <DistanceMeters>NAN</DistanceMeters>
          </Trackpoint>
          <Trackpoint>
            <Time>2021-08-11T16:22:14.000Z</Time>
            <Position>
              <LatitudeDegrees>43.3250481449067592620849609375</LatitudeDegrees>
              <LongitudeDegrees>-1.9179050065577030181884765625</LongitudeDegrees>
            </Position>
            <AltitudeMeters>15</AltitudeMeters>
            <DistanceMeters>NAN</DistanceMeters>
          </Trackpoint>
          <Trackpoint>
            <Time>2021-08-11T16:22:15.000Z</Time>
            <Position>
              <LatitudeDegrees>43.32503867335617542266845703125</LatitudeDegrees>
              <LongitudeDegrees>-1.9178879074752330780029296875</LongitudeDegrees>
            </Position>
            <AltitudeMeters>15.19999980926513671875</AltitudeMeters>
            <DistanceMeters>NAN</DistanceMeters>
          </Trackpoint>
          <Trackpoint>
            <Time>2021-08-11T16:22:16.000Z</Time>
            <Position>
              <LatitudeDegrees>43.32502392120659351348876953125</LatitudeDegrees>
              <LongitudeDegrees>-1.91786997020244598388671875</LongitudeDegrees>
            </Position>
            <AltitudeMeters>15.19999980926513671875</AltitudeMeters>
            <DistanceMeters>NAN</DistanceMeters>
          </Trackpoint>
          <Trackpoint>
            <Time>2021-08-11T16:22:17.000Z</Time>
            <Position>
              <LatitudeDegrees>43.32501637749373912811279296875</LatitudeDegrees>
              <LongitudeDegrees>-1.9178557209670543670654296875</LongitudeDegrees>
            </Position>
            <AltitudeMeters>15.19999980926513671875</AltitudeMeters>
            <DistanceMeters>NAN</DistanceMeters>
          </Trackpoint>
          <Trackpoint>
            <Time>2021-08-11T16:22:19.000Z</Time>
            <Position>
              <LatitudeDegrees>43.3250127732753753662109375</LatitudeDegrees>
              <LongitudeDegrees>-1.917826719582080841064453125</LongitudeDegrees>
            </Position>
            <AltitudeMeters>15.3999996185302734375</AltitudeMeters>
            <DistanceMeters>NAN</DistanceMeters>
          </Trackpoint>
          <Trackpoint>
            <Time>2021-08-11T16:22:22.000Z</Time>
            <Position>
              <LatitudeDegrees>43.32500581629574298858642578125</LatitudeDegrees>
              <LongitudeDegrees>-1.91779025830328464508056640625</LongitudeDegrees>
            </Position>
            <AltitudeMeters>15.3999996185302734375</AltitudeMeters>
            <DistanceMeters>NAN</DistanceMeters>
          </Trackpoint>
          <Trackpoint>
            <Time>2021-08-11T16:22:23.000Z</Time>
            <Position>
              <LatitudeDegrees>43.3250055648386478424072265625</LatitudeDegrees>
              <LongitudeDegrees>-1.9177765958011150360107421875</LongitudeDegrees>
            </Position>
            <AltitudeMeters>15.3999996185302734375</AltitudeMeters>
            <DistanceMeters>NAN</DistanceMeters>
          </Trackpoint>
          <Trackpoint>
            <Time>2021-08-11T16:22:24.000Z</Time>
            <Position>
              <LatitudeDegrees>43.3250047266483306884765625</LatitudeDegrees>
              <LongitudeDegrees>-1.9177662022411823272705078125</LongitudeDegrees>
            </Position>
            <AltitudeMeters>15.3999996185302734375</AltitudeMeters>
            <DistanceMeters>NAN</DistanceMeters>
          </Trackpoint>
          <Trackpoint>
            <Time>2021-08-11T16:22:25.000Z</Time>
            <Position>
              <LatitudeDegrees>43.32500430755317211151123046875</LatitudeDegrees>
              <LongitudeDegrees>-1.9177548028528690338134765625</LongitudeDegrees>
            </Position>
            <AltitudeMeters>15.3999996185302734375</AltitudeMeters>
            <DistanceMeters>NAN</DistanceMeters>
          </Trackpoint>
          <Trackpoint>
            <Time>2021-08-11T16:22:26.000Z</Time>
            <Position>
              <LatitudeDegrees>43.32500229589641094207763671875</LatitudeDegrees>
              <LongitudeDegrees>-1.9177450798451900482177734375</LongitudeDegrees>
            </Position>
            <AltitudeMeters>15.3999996185302734375</AltitudeMeters>
            <DistanceMeters>NAN</DistanceMeters>
          </Trackpoint>
          <Trackpoint>
            <Time>2021-08-11T16:22:27.000Z</Time>
            <Position>
              <LatitudeDegrees>43.3249965123832225799560546875</LatitudeDegrees>
              <LongitudeDegrees>-1.91773376427590847015380859375</LongitudeDegrees>
            </Position>
            <AltitudeMeters>15.3999996185302734375</AltitudeMeters>
            <DistanceMeters>NAN</DistanceMeters>
          </Trackpoint>
          <Trackpoint>
            <Time>2021-08-11T16:22:28.000Z</Time>
            <Position>
              <LatitudeDegrees>43.32498670555651187896728515625</LatitudeDegrees>
              <LongitudeDegrees>-1.9177242927253246307373046875</LongitudeDegrees>
            </Position>
            <AltitudeMeters>15.3999996185302734375</AltitudeMeters>
            <DistanceMeters>NAN</DistanceMeters>
          </Trackpoint>
          <Trackpoint>
            <Time>2021-08-11T16:22:29.000Z</Time>
            <Position>
              <LatitudeDegrees>43.32498402334749698638916015625</LatitudeDegrees>
              <LongitudeDegrees>-1.91771632991731166839599609375</LongitudeDegrees>
            </Position>
            <AltitudeMeters>15.3999996185302734375</AltitudeMeters>
            <DistanceMeters>NAN</DistanceMeters>
          </Trackpoint>
          <Trackpoint>
            <Time>2021-08-11T16:22:30.000Z</Time>
            <Position>
              <LatitudeDegrees>43.3249797485768795013427734375</LatitudeDegrees>
              <LongitudeDegrees>-1.9177118875086307525634765625</LongitudeDegrees>
            </Position>
            <AltitudeMeters>15.3999996185302734375</AltitudeMeters>
            <DistanceMeters>NAN</DistanceMeters>
          </Trackpoint>
          <Trackpoint>
            <Time>2021-08-11T16:22:31.000Z</Time>
            <Position>
              <LatitudeDegrees>43.324973881244659423828125</LatitudeDegrees>
              <LongitudeDegrees>-1.91770501434803009033203125</LongitudeDegrees>
            </Position>
            <AltitudeMeters>15.3999996185302734375</AltitudeMeters>
            <DistanceMeters>NAN</DistanceMeters>
          </Trackpoint>
          <Trackpoint>
            <Time>2021-08-11T16:22:32.000Z</Time>
            <Position>
              <LatitudeDegrees>43.32497044466435909271240234375</LatitudeDegrees>
              <LongitudeDegrees>-1.91769537515938282012939453125</LongitudeDegrees>
            </Position>
            <AltitudeMeters>15.3999996185302734375</AltitudeMeters>
            <DistanceMeters>NAN</DistanceMeters>
          </Trackpoint>
          <Trackpoint>
            <Time>2021-08-11T16:22:33.000Z</Time>
            <Position>
              <LatitudeDegrees>43.32496340386569499969482421875</LatitudeDegrees>
              <LongitudeDegrees>-1.917685568332672119140625</LongitudeDegrees>
            </Position>
            <AltitudeMeters>15.3999996185302734375</AltitudeMeters>
            <DistanceMeters>NAN</DistanceMeters>
          </Trackpoint>
          <Trackpoint>
            <Time>2021-08-11T16:22:35.000Z</Time>
            <Position>
              <LatitudeDegrees>43.3249564468860626220703125</LatitudeDegrees>
              <LongitudeDegrees>-1.91766704432666301727294921875</LongitudeDegrees>
            </Position>
            <AltitudeMeters>15.19999980926513671875</AltitudeMeters>
            <DistanceMeters>NAN</DistanceMeters>
          </Trackpoint>
          <Trackpoint>
            <Time>2021-08-11T16:22:36.000Z</Time>
            <Position>
              <LatitudeDegrees>43.324957452714443206787109375</LatitudeDegrees>
              <LongitudeDegrees>-1.917659752070903778076171875</LongitudeDegrees>
            </Position>
            <AltitudeMeters>15.19999980926513671875</AltitudeMeters>
            <DistanceMeters>NAN</DistanceMeters>
          </Trackpoint>
          <Trackpoint>
            <Time>2021-08-11T16:22:37.000Z</Time>
            <Position>
              <LatitudeDegrees>43.324957452714443206787109375</LatitudeDegrees>
              <LongitudeDegrees>-1.9176538847386837005615234375</LongitudeDegrees>
            </Position>
            <AltitudeMeters>15.19999980926513671875</AltitudeMeters>
            <DistanceMeters>NAN</DistanceMeters>
          </Trackpoint>
          <Trackpoint>
            <Time>2021-08-11T16:22:38.000Z</Time>
            <Position>
              <LatitudeDegrees>43.3249546028673648834228515625</LatitudeDegrees>
              <LongitudeDegrees>-1.9176572374999523162841796875</LongitudeDegrees>
            </Position>
            <AltitudeMeters>15</AltitudeMeters>
            <DistanceMeters>NAN</DistanceMeters>
          </Trackpoint>
          <Trackpoint>
            <Time>2021-08-11T16:22:40.000Z</Time>
            <Position>
              <LatitudeDegrees>43.324938677251338958740234375</LatitudeDegrees>
              <LongitudeDegrees>-1.917665787041187286376953125</LongitudeDegrees>
            </Position>
            <AltitudeMeters>14.80000019073486328125</AltitudeMeters>
            <DistanceMeters>NAN</DistanceMeters>
          </Trackpoint>
          <Trackpoint>
            <Time>2021-08-11T16:22:41.000Z</Time>
            <Position>
              <LatitudeDegrees>43.32493565976619720458984375</LatitudeDegrees>
              <LongitudeDegrees>-1.91766587086021900177001953125</LongitudeDegrees>
            </Position>
            <AltitudeMeters>14.6000003814697265625</AltitudeMeters>
            <DistanceMeters>NAN</DistanceMeters>
          </Trackpoint>
          <Trackpoint>
            <Time>2021-08-11T16:22:42.000Z</Time>
            <Position>
              <LatitudeDegrees>43.32493172027170658111572265625</LatitudeDegrees>
              <LongitudeDegrees>-1.9176548905670642852783203125</LongitudeDegrees>
            </Position>
            <AltitudeMeters>14.3999996185302734375</AltitudeMeters>
            <DistanceMeters>NAN</DistanceMeters>
          </Trackpoint>
          <Trackpoint>
            <Time>2021-08-11T16:22:43.000Z</Time>
            <Position>
              <LatitudeDegrees>43.32492887042462825775146484375</LatitudeDegrees>
              <LongitudeDegrees>-1.917642652988433837890625</LongitudeDegrees>
            </Position>
            <AltitudeMeters>14.3999996185302734375</AltitudeMeters>
            <DistanceMeters>NAN</DistanceMeters>
          </Trackpoint>
          <Trackpoint>
            <Time>2021-08-11T16:22:45.000Z</Time>
            <Position>
              <LatitudeDegrees>43.32492015324532985687255859375</LatitudeDegrees>
              <LongitudeDegrees>-1.917622871696949005126953125</LongitudeDegrees>
            </Position>
            <AltitudeMeters>14.19999980926513671875</AltitudeMeters>
            <DistanceMeters>NAN</DistanceMeters>
          </Trackpoint>
          <Trackpoint>
            <Time>2021-08-11T16:22:46.000Z</Time>
            <Position>
              <LatitudeDegrees>43.32492216490209102630615234375</LatitudeDegrees>
              <LongitudeDegrees>-1.91760350950062274932861328125</LongitudeDegrees>
            </Position>
            <AltitudeMeters>14.19999980926513671875</AltitudeMeters>
            <DistanceMeters>NAN</DistanceMeters>
          </Trackpoint>
          <Trackpoint>
            <Time>2021-08-11T16:22:47.000Z</Time>
            <Position>
              <LatitudeDegrees>43.32491126842796802520751953125</LatitudeDegrees>
              <LongitudeDegrees>-1.91759428940713405609130859375</LongitudeDegrees>
            </Position>
            <AltitudeMeters>14.19999980926513671875</AltitudeMeters>
            <DistanceMeters>NAN</DistanceMeters>
          </Trackpoint>
          <Trackpoint>
            <Time>2021-08-11T16:22:48.000Z</Time>
            <Position>
              <LatitudeDegrees>43.324899114668369293212890625</LatitudeDegrees>
              <LongitudeDegrees>-1.9175693951547145843505859375</LongitudeDegrees>
            </Position>
            <AltitudeMeters>14</AltitudeMeters>
            <DistanceMeters>NAN</DistanceMeters>
          </Trackpoint>
          <Trackpoint>
            <Time>2021-08-11T16:22:49.000Z</Time>
            <Position>
              <LatitudeDegrees>43.3248771540820598602294921875</LatitudeDegrees>
              <LongitudeDegrees>-1.917528994381427764892578125</LongitudeDegrees>
            </Position>
            <AltitudeMeters>14</AltitudeMeters>
            <DistanceMeters>NAN</DistanceMeters>
          </Trackpoint>
          <Trackpoint>
            <Time>2021-08-11T16:22:50.000Z</Time>
            <Position>
              <LatitudeDegrees>43.3248459734022617340087890625</LatitudeDegrees>
              <LongitudeDegrees>-1.9175103865563869476318359375</LongitudeDegrees>
            </Position>
            <AltitudeMeters>13.80000019073486328125</AltitudeMeters>
            <DistanceMeters>NAN</DistanceMeters>
          </Trackpoint>
          <Trackpoint>
            <Time>2021-08-11T16:22:51.000Z</Time>
            <Position>
              <LatitudeDegrees>43.3248318918049335479736328125</LatitudeDegrees>
              <LongitudeDegrees>-1.91749823279678821563720703125</LongitudeDegrees>
            </Position>
            <AltitudeMeters>13.80000019073486328125</AltitudeMeters>
            <DistanceMeters>NAN</DistanceMeters>
          </Trackpoint>
          <Trackpoint>
            <Time>2021-08-11T16:22:56.000Z</Time>
            <Position>
              <LatitudeDegrees>43.32480900920927524566650390625</LatitudeDegrees>
              <LongitudeDegrees>-1.9174530543386936187744140625</LongitudeDegrees>
            </Position>
            <AltitudeMeters>13</AltitudeMeters>
            <DistanceMeters>NAN</DistanceMeters>
          </Trackpoint>
          <Trackpoint>
            <Time>2021-08-11T16:22:57.000Z</Time>
            <Position>
              <LatitudeDegrees>43.324810601770877838134765625</LatitudeDegrees>
              <LongitudeDegrees>-1.91743411123752593994140625</LongitudeDegrees>
            </Position>
            <AltitudeMeters>12.80000019073486328125</AltitudeMeters>
            <DistanceMeters>NAN</DistanceMeters>
          </Trackpoint>
          <Trackpoint>
            <Time>2021-08-11T16:22:58.000Z</Time>
            <Position>
              <LatitudeDegrees>43.32479191012680530548095703125</LatitudeDegrees>
              <LongitudeDegrees>-1.91743033938109874725341796875</LongitudeDegrees>
            </Position>
            <AltitudeMeters>12.80000019073486328125</AltitudeMeters>
            <DistanceMeters>NAN</DistanceMeters>
          </Trackpoint>
          <Trackpoint>
            <Time>2021-08-11T16:22:59.000Z</Time>
            <Position>
              <LatitudeDegrees>43.3247604779899120330810546875</LatitudeDegrees>
              <LongitudeDegrees>-1.9174222089350223541259765625</LongitudeDegrees>
            </Position>
            <AltitudeMeters>12.6000003814697265625</AltitudeMeters>
            <DistanceMeters>NAN</DistanceMeters>
          </Trackpoint>
          <Trackpoint>
            <Time>2021-08-11T16:23:00.000Z</Time>
            <Position>
              <LatitudeDegrees>43.3247460611164569854736328125</LatitudeDegrees>
              <LongitudeDegrees>-1.917418353259563446044921875</LongitudeDegrees>
            </Position>
            <AltitudeMeters>12.3999996185302734375</AltitudeMeters>
            <DistanceMeters>NAN</DistanceMeters>
          </Trackpoint>
          <Trackpoint>
            <Time>2021-08-11T16:23:01.000Z</Time>
            <Position>
              <LatitudeDegrees>43.32474119961261749267578125</LatitudeDegrees>
              <LongitudeDegrees>-1.91741139627993106842041015625</LongitudeDegrees>
            </Position>
            <AltitudeMeters>12.19999980926513671875</AltitudeMeters>
            <DistanceMeters>NAN</DistanceMeters>
          </Trackpoint>
          <Trackpoint>
            <Time>2021-08-11T16:23:02.000Z</Time>
            <Position>
              <LatitudeDegrees>43.32473826594650745391845703125</LatitudeDegrees>
              <LongitudeDegrees>-1.9174077920615673065185546875</LongitudeDegrees>
            </Position>
            <AltitudeMeters>12</AltitudeMeters>
            <DistanceMeters>NAN</DistanceMeters>
          </Trackpoint>
          <Trackpoint>
            <Time>2021-08-11T16:23:03.000Z</Time>
            <Position>
              <LatitudeDegrees>43.3247393555939197540283203125</LatitudeDegrees>
              <LongitudeDegrees>-1.9174041040241718292236328125</LongitudeDegrees>
            </Position>
            <AltitudeMeters>12</AltitudeMeters>
            <DistanceMeters>NAN</DistanceMeters>
          </Trackpoint>
          <Trackpoint>
            <Time>2021-08-11T16:23:06.000Z</Time>
            <Position>
              <LatitudeDegrees>43.32473759539425373077392578125</LatitudeDegrees>
              <LongitudeDegrees>-1.91740418784320354461669921875</LongitudeDegrees>
            </Position>
            <AltitudeMeters>11.6000003814697265625</AltitudeMeters>
            <DistanceMeters>NAN</DistanceMeters>
          </Trackpoint>
          <Trackpoint>
            <Time>2021-08-11T16:23:10.000Z</Time>
            <Position>
              <LatitudeDegrees>43.32474044524133205413818359375</LatitudeDegrees>
              <LongitudeDegrees>-1.91739262081682682037353515625</LongitudeDegrees>
            </Position>
            <AltitudeMeters>11.6000003814697265625</AltitudeMeters>
            <DistanceMeters>NAN</DistanceMeters>
          </Trackpoint>
          <Trackpoint>
            <Time>2021-08-11T16:23:13.000Z</Time>
            <Position>
              <LatitudeDegrees>43.32471982575953006744384765625</LatitudeDegrees>
              <LongitudeDegrees>-1.91737242043018341064453125</LongitudeDegrees>
            </Position>
            <AltitudeMeters>11.3999996185302734375</AltitudeMeters>
            <DistanceMeters>NAN</DistanceMeters>
          </Trackpoint>
          <Trackpoint>
            <Time>2021-08-11T16:23:14.000Z</Time>
            <Position>
              <LatitudeDegrees>43.32471278496086597442626953125</LatitudeDegrees>
              <LongitudeDegrees>-1.91737149842083454132080078125</LongitudeDegrees>
            </Position>
            <AltitudeMeters>11.3999996185302734375</AltitudeMeters>
            <DistanceMeters>NAN</DistanceMeters>
          </Trackpoint>
          <Trackpoint>
            <Time>2021-08-11T16:23:20.000Z</Time>
            <Position>
              <LatitudeDegrees>43.32470289431512355804443359375</LatitudeDegrees>
              <LongitudeDegrees>-1.917364709079265594482421875</LongitudeDegrees>
            </Position>
            <AltitudeMeters>11.3999996185302734375</AltitudeMeters>
            <DistanceMeters>NAN</DistanceMeters>
          </Trackpoint>
          <Trackpoint>
            <Time>2021-08-11T16:23:29.000Z</Time>
            <Position>
              <LatitudeDegrees>43.324703983962535858154296875</LatitudeDegrees>
              <LongitudeDegrees>-1.91734249703586101531982421875</LongitudeDegrees>
            </Position>
            <AltitudeMeters>11.6000003814697265625</AltitudeMeters>
            <DistanceMeters>NAN</DistanceMeters>
          </Trackpoint>
          <Trackpoint>
            <Time>2021-08-11T16:23:48.000Z</Time>
            <Position>
              <LatitudeDegrees>43.3247070014476776123046875</LatitudeDegrees>
              <LongitudeDegrees>-1.91733679734170436859130859375</LongitudeDegrees>
            </Position>
            <AltitudeMeters>11.3999996185302734375</AltitudeMeters>
            <DistanceMeters>NAN</DistanceMeters>
          </Trackpoint>
          <Trackpoint>
            <Time>2021-08-11T16:23:51.000Z</Time>
            <Position>
              <LatitudeDegrees>43.3247235976159572601318359375</LatitudeDegrees>
              <LongitudeDegrees>-1.91733512096107006072998046875</LongitudeDegrees>
            </Position>
            <AltitudeMeters>11.3999996185302734375</AltitudeMeters>
            <DistanceMeters>NAN</DistanceMeters>
          </Trackpoint>
          <Trackpoint>
            <Time>2021-08-11T16:23:52.000Z</Time>
            <Position>
              <LatitudeDegrees>43.32473105750977993011474609375</LatitudeDegrees>
              <LongitudeDegrees>-1.917342245578765869140625</LongitudeDegrees>
            </Position>
            <AltitudeMeters>11.3999996185302734375</AltitudeMeters>
            <DistanceMeters>NAN</DistanceMeters>
          </Trackpoint>
          <Trackpoint>
            <Time>2021-08-11T16:23:55.000Z</Time>
            <Position>
              <LatitudeDegrees>43.3247698657214641571044921875</LatitudeDegrees>
              <LongitudeDegrees>-1.91736814565956592559814453125</LongitudeDegrees>
            </Position>
            <AltitudeMeters>11.3999996185302734375</AltitudeMeters>
            <DistanceMeters>NAN</DistanceMeters>
          </Trackpoint>
          <Trackpoint>
            <Time>2021-08-11T16:23:56.000Z</Time>
            <Position>
              <LatitudeDegrees>43.32478277385234832763671875</LatitudeDegrees>
              <LongitudeDegrees>-1.917381472885608673095703125</LongitudeDegrees>
            </Position>
            <AltitudeMeters>11.3999996185302734375</AltitudeMeters>
            <DistanceMeters>NAN</DistanceMeters>
          </Trackpoint>
          <Trackpoint>
            <Time>2021-08-11T16:23:57.000Z</Time>
            <Position>
              <LatitudeDegrees>43.3247901499271392822265625</LatitudeDegrees>
              <LongitudeDegrees>-1.91739379428327083587646484375</LongitudeDegrees>
            </Position>
            <AltitudeMeters>11.3999996185302734375</AltitudeMeters>
            <DistanceMeters>NAN</DistanceMeters>
          </Trackpoint>
          <Trackpoint>
            <Time>2021-08-11T16:23:58.000Z</Time>
            <Position>
              <LatitudeDegrees>43.32479073666036128997802734375</LatitudeDegrees>
              <LongitudeDegrees>-1.917403601109981536865234375</LongitudeDegrees>
            </Position>
            <AltitudeMeters>11.6000003814697265625</AltitudeMeters>
            <DistanceMeters>NAN</DistanceMeters>
          </Trackpoint>
          <Trackpoint>
            <Time>2021-08-11T16:24:00.000Z</Time>
            <Position>
              <LatitudeDegrees>43.32478168420493602752685546875</LatitudeDegrees>
              <LongitudeDegrees>-1.917420364916324615478515625</LongitudeDegrees>
            </Position>
            <AltitudeMeters>11.6000003814697265625</AltitudeMeters>
            <DistanceMeters>NAN</DistanceMeters>
          </Trackpoint>
          <Trackpoint>
            <Time>2021-08-11T16:24:03.000Z</Time>
            <Position>
              <LatitudeDegrees>43.32476626150310039520263671875</LatitudeDegrees>
              <LongitudeDegrees>-1.91743486560881137847900390625</LongitudeDegrees>
            </Position>
            <AltitudeMeters>11.80000019073486328125</AltitudeMeters>
            <DistanceMeters>NAN</DistanceMeters>
          </Trackpoint>
          <Trackpoint>
            <Time>2021-08-11T16:24:04.000Z</Time>
            <Position>
              <LatitudeDegrees>43.324765674769878387451171875</LatitudeDegrees>
              <LongitudeDegrees>-1.9174369610846042633056640625</LongitudeDegrees>
            </Position>
            <AltitudeMeters>11.80000019073486328125</AltitudeMeters>
            <DistanceMeters>NAN</DistanceMeters>
          </Trackpoint>
          <Trackpoint>
            <Time>2021-08-11T16:24:05.000Z</Time>
            <Position>
              <LatitudeDegrees>43.32475670613348484039306640625</LatitudeDegrees>
              <LongitudeDegrees>-1.917443163692951202392578125</LongitudeDegrees>
            </Position>
            <AltitudeMeters>11.80000019073486328125</AltitudeMeters>
            <DistanceMeters>NAN</DistanceMeters>
          </Trackpoint>
          <Trackpoint>
            <Time>2021-08-11T16:24:10.000Z</Time>
            <Position>
              <LatitudeDegrees>43.324758298695087432861328125</LatitudeDegrees>
              <LongitudeDegrees>-1.9174436666071414947509765625</LongitudeDegrees>
            </Position>
            <AltitudeMeters>11.80000019073486328125</AltitudeMeters>
            <DistanceMeters>NAN</DistanceMeters>
          </Trackpoint>
          <Trackpoint>
            <Time>2021-08-11T16:24:16.000Z</Time>
            <Position>
              <LatitudeDegrees>43.32476441748440265655517578125</LatitudeDegrees>
              <LongitudeDegrees>-1.917460262775421142578125</LongitudeDegrees>
            </Position>
            <AltitudeMeters>12</AltitudeMeters>
            <DistanceMeters>NAN</DistanceMeters>
          </Trackpoint>
          <Trackpoint>
            <Time>2021-08-11T16:24:23.000Z</Time>
            <Position>
              <LatitudeDegrees>43.32476441748440265655517578125</LatitudeDegrees>
              <LongitudeDegrees>-1.917460262775421142578125</LongitudeDegrees>
            </Position>
            <AltitudeMeters>12.3999996185302734375</AltitudeMeters>
            <DistanceMeters>NAN</DistanceMeters>
          </Trackpoint>
          <Trackpoint>
            <Time>2021-08-11T16:24:28.000Z</Time>
            <Position>
              <LatitudeDegrees>43.32480490207672119140625</LatitudeDegrees>
              <LongitudeDegrees>-1.917500831186771392822265625</LongitudeDegrees>
            </Position>
            <AltitudeMeters>12.6000003814697265625</AltitudeMeters>
            <DistanceMeters>NAN</DistanceMeters>
          </Trackpoint>
          <Trackpoint>
            <Time>2021-08-11T16:24:29.000Z</Time>
            <Position>
              <LatitudeDegrees>43.3248137868940830230712890625</LatitudeDegrees>
              <LongitudeDegrees>-1.9175120629370212554931640625</LongitudeDegrees>
            </Position>
            <AltitudeMeters>12.80000019073486328125</AltitudeMeters>
            <DistanceMeters>NAN</DistanceMeters>
          </Trackpoint>
          <Trackpoint>
            <Time>2021-08-11T16:24:30.000Z</Time>
            <Position>
              <LatitudeDegrees>43.32482560537755489349365234375</LatitudeDegrees>
              <LongitudeDegrees>-1.91752052865922451019287109375</LongitudeDegrees>
            </Position>
            <AltitudeMeters>12.80000019073486328125</AltitudeMeters>
            <DistanceMeters>NAN</DistanceMeters>
          </Trackpoint>
          <Trackpoint>
            <Time>2021-08-11T16:24:32.000Z</Time>
            <Position>
              <LatitudeDegrees>43.32484723068773746490478515625</LatitudeDegrees>
              <LongitudeDegrees>-1.9175459258258342742919921875</LongitudeDegrees>
            </Position>
            <AltitudeMeters>13</AltitudeMeters>
            <DistanceMeters>NAN</DistanceMeters>
          </Trackpoint>
          <Trackpoint>
            <Time>2021-08-11T16:24:33.000Z</Time>
            <Position>
              <LatitudeDegrees>43.32485578022897243499755859375</LatitudeDegrees>
              <LongitudeDegrees>-1.91756109707057476043701171875</LongitudeDegrees>
            </Position>
            <AltitudeMeters>13.3999996185302734375</AltitudeMeters>
            <DistanceMeters>NAN</DistanceMeters>
          </Trackpoint>
          <Trackpoint>
            <Time>2021-08-11T16:24:34.000Z</Time>
            <Position>
              <LatitudeDegrees>43.3248597197234630584716796875</LatitudeDegrees>
              <LongitudeDegrees>-1.91758255474269390106201171875</LongitudeDegrees>
            </Position>
            <AltitudeMeters>13.3999996185302734375</AltitudeMeters>
            <DistanceMeters>NAN</DistanceMeters>
          </Trackpoint>
          <Trackpoint>
            <Time>2021-08-11T16:24:35.000Z</Time>
            <Position>
              <LatitudeDegrees>43.324868269264698028564453125</LatitudeDegrees>
              <LongitudeDegrees>-1.9175841473042964935302734375</LongitudeDegrees>
            </Position>
            <AltitudeMeters>13.3999996185302734375</AltitudeMeters>
            <DistanceMeters>NAN</DistanceMeters>
          </Trackpoint>
          <Trackpoint>
            <Time>2021-08-11T16:24:36.000Z</Time>
            <Position>
              <LatitudeDegrees>43.3248727954924106597900390625</LatitudeDegrees>
              <LongitudeDegrees>-1.91758858971297740936279296875</LongitudeDegrees>
            </Position>
            <AltitudeMeters>13.6000003814697265625</AltitudeMeters>
            <DistanceMeters>NAN</DistanceMeters>
          </Trackpoint>
          <Trackpoint>
            <Time>2021-08-11T16:24:37.000Z</Time>
            <Position>
              <LatitudeDegrees>43.32488008774816989898681640625</LatitudeDegrees>
              <LongitudeDegrees>-1.91759328357875347137451171875</LongitudeDegrees>
            </Position>
            <AltitudeMeters>13.6000003814697265625</AltitudeMeters>
            <DistanceMeters>NAN</DistanceMeters>
          </Trackpoint>
          <Trackpoint>
            <Time>2021-08-11T16:24:38.000Z</Time>
            <Position>
              <LatitudeDegrees>43.324889726936817169189453125</LatitudeDegrees>
              <LongitudeDegrees>-1.91759638488292694091796875</LongitudeDegrees>
            </Position>
            <AltitudeMeters>13.6000003814697265625</AltitudeMeters>
            <DistanceMeters>NAN</DistanceMeters>
          </Trackpoint>
          <Trackpoint>
            <Time>2021-08-11T16:24:39.000Z</Time>
            <Position>
              <LatitudeDegrees>43.3249002881348133087158203125</LatitudeDegrees>
              <LongitudeDegrees>-1.91759931854903697967529296875</LongitudeDegrees>
            </Position>
            <AltitudeMeters>13.80000019073486328125</AltitudeMeters>
            <DistanceMeters>NAN</DistanceMeters>
          </Trackpoint>
          <Trackpoint>
            <Time>2021-08-11T16:24:40.000Z</Time>
            <Position>
              <LatitudeDegrees>43.3249081671237945556640625</LatitudeDegrees>
              <LongitudeDegrees>-1.9176076166331768035888671875</LongitudeDegrees>
            </Position>
            <AltitudeMeters>14</AltitudeMeters>
            <DistanceMeters>NAN</DistanceMeters>
          </Trackpoint>
          <Trackpoint>
            <Time>2021-08-11T16:24:42.000Z</Time>
            <Position>
              <LatitudeDegrees>43.32491562701761722564697265625</LatitudeDegrees>
              <LongitudeDegrees>-1.9176287390291690826416015625</LongitudeDegrees>
            </Position>
            <AltitudeMeters>14.19999980926513671875</AltitudeMeters>
            <DistanceMeters>NAN</DistanceMeters>
          </Trackpoint>
          <Trackpoint>
            <Time>2021-08-11T16:24:43.000Z</Time>
            <Position>
              <LatitudeDegrees>43.324919901788234710693359375</LatitudeDegrees>
              <LongitudeDegrees>-1.917636282742023468017578125</LongitudeDegrees>
            </Position>
            <AltitudeMeters>14.3999996185302734375</AltitudeMeters>
            <DistanceMeters>NAN</DistanceMeters>
          </Trackpoint>
          <Trackpoint>
            <Time>2021-08-11T16:24:44.000Z</Time>
            <Position>
              <LatitudeDegrees>43.324925936758518218994140625</LatitudeDegrees>
              <LongitudeDegrees>-1.91764357499778270721435546875</LongitudeDegrees>
            </Position>
            <AltitudeMeters>14.3999996185302734375</AltitudeMeters>
            <DistanceMeters>NAN</DistanceMeters>
          </Trackpoint>
          <Trackpoint>
            <Time>2021-08-11T16:24:45.000Z</Time>
            <Position>
              <LatitudeDegrees>43.32493121735751628875732421875</LatitudeDegrees>
              <LongitudeDegrees>-1.91765363328158855438232421875</LongitudeDegrees>
            </Position>
            <AltitudeMeters>14.3999996185302734375</AltitudeMeters>
            <DistanceMeters>NAN</DistanceMeters>
          </Trackpoint>
          <Trackpoint>
            <Time>2021-08-11T16:24:47.000Z</Time>
            <Position>
              <LatitudeDegrees>43.32494647242128849029541015625</LatitudeDegrees>
              <LongitudeDegrees>-1.91767408512532711029052734375</LongitudeDegrees>
            </Position>
            <AltitudeMeters>14.3999996185302734375</AltitudeMeters>
            <DistanceMeters>NAN</DistanceMeters>
          </Trackpoint>
          <Trackpoint>
            <Time>2021-08-11T16:24:48.000Z</Time>
            <Position>
              <LatitudeDegrees>43.324949741363525390625</LatitudeDegrees>
              <LongitudeDegrees>-1.9176867417991161346435546875</LongitudeDegrees>
            </Position>
            <AltitudeMeters>14.6000003814697265625</AltitudeMeters>
            <DistanceMeters>NAN</DistanceMeters>
          </Trackpoint>
          <Trackpoint>
            <Time>2021-08-11T16:24:49.000Z</Time>
            <Position>
              <LatitudeDegrees>43.32495217211544513702392578125</LatitudeDegrees>
              <LongitudeDegrees>-1.9177028350532054901123046875</LongitudeDegrees>
            </Position>
            <AltitudeMeters>14.6000003814697265625</AltitudeMeters>
            <DistanceMeters>NAN</DistanceMeters>
          </Trackpoint>
          <Trackpoint>
            <Time>2021-08-11T16:24:50.000Z</Time>
            <Position>
              <LatitudeDegrees>43.324951417744159698486328125</LatitudeDegrees>
              <LongitudeDegrees>-1.91772521473467350006103515625</LongitudeDegrees>
            </Position>
            <AltitudeMeters>14.80000019073486328125</AltitudeMeters>
            <DistanceMeters>NAN</DistanceMeters>
          </Trackpoint>
          <Trackpoint>
            <Time>2021-08-11T16:24:51.000Z</Time>
            <Position>
              <LatitudeDegrees>43.32495820708572864532470703125</LatitudeDegrees>
              <LongitudeDegrees>-1.9177427329123020172119140625</LongitudeDegrees>
            </Position>
            <AltitudeMeters>14.80000019073486328125</AltitudeMeters>
            <DistanceMeters>NAN</DistanceMeters>
          </Trackpoint>
          <Trackpoint>
            <Time>2021-08-11T16:24:52.000Z</Time>
            <Position>
              <LatitudeDegrees>43.3249660022556781768798828125</LatitudeDegrees>
              <LongitudeDegrees>-1.9177574850618839263916015625</LongitudeDegrees>
            </Position>
            <AltitudeMeters>14.80000019073486328125</AltitudeMeters>
            <DistanceMeters>NAN</DistanceMeters>
          </Trackpoint>
          <Trackpoint>
            <Time>2021-08-11T16:24:53.000Z</Time>
            <Position>
              <LatitudeDegrees>43.324976228177547454833984375</LatitudeDegrees>
              <LongitudeDegrees>-1.91777382977306842803955078125</LongitudeDegrees>
            </Position>
            <AltitudeMeters>14.80000019073486328125</AltitudeMeters>
            <DistanceMeters>NAN</DistanceMeters>
          </Trackpoint>
          <Trackpoint>
            <Time>2021-08-11T16:24:54.000Z</Time>
            <Position>
              <LatitudeDegrees>43.32498335279524326324462890625</LatitudeDegrees>
              <LongitudeDegrees>-1.9177859835326671600341796875</LongitudeDegrees>
            </Position>
            <AltitudeMeters>15</AltitudeMeters>
            <DistanceMeters>NAN</DistanceMeters>
          </Trackpoint>
          <Trackpoint>
            <Time>2021-08-11T16:24:55.000Z</Time>
            <Position>
              <LatitudeDegrees>43.3249859511852264404296875</LatitudeDegrees>
              <LongitudeDegrees>-1.91778975538909435272216796875</LongitudeDegrees>
            </Position>
            <AltitudeMeters>15</AltitudeMeters>
            <DistanceMeters>NAN</DistanceMeters>
          </Trackpoint>
          <Trackpoint>
            <Time>2021-08-11T16:24:57.000Z</Time>
            <Position>
              <LatitudeDegrees>43.324982263147830963134765625</LatitudeDegrees>
              <LongitudeDegrees>-1.91779553890228271484375</LongitudeDegrees>
            </Position>
            <AltitudeMeters>15</AltitudeMeters>
            <DistanceMeters>NAN</DistanceMeters>
          </Trackpoint>
          <Trackpoint>
            <Time>2021-08-11T16:24:58.000Z</Time>
            <Position>
              <LatitudeDegrees>43.32497656345367431640625</LatitudeDegrees>
              <LongitudeDegrees>-1.9178017415106296539306640625</LongitudeDegrees>
            </Position>
            <AltitudeMeters>15.19999980926513671875</AltitudeMeters>
            <DistanceMeters>NAN</DistanceMeters>
          </Trackpoint>
          <Trackpoint>
            <Time>2021-08-11T16:24:59.000Z</Time>
            <Position>
              <LatitudeDegrees>43.32498134113848209381103515625</LatitudeDegrees>
              <LongitudeDegrees>-1.917811296880245208740234375</LongitudeDegrees>
            </Position>
            <AltitudeMeters>15.19999980926513671875</AltitudeMeters>
            <DistanceMeters>NAN</DistanceMeters>
          </Trackpoint>
          <Trackpoint>
            <Time>2021-08-11T16:25:00.000Z</Time>
            <Position>
              <LatitudeDegrees>43.32499441690742969512939453125</LatitudeDegrees>
              <LongitudeDegrees>-1.917822696268558502197265625</LongitudeDegrees>
            </Position>
            <AltitudeMeters>15.19999980926513671875</AltitudeMeters>
            <DistanceMeters>NAN</DistanceMeters>
          </Trackpoint>
          <Trackpoint>
            <Time>2021-08-11T16:25:01.000Z</Time>
            <Position>
              <LatitudeDegrees>43.32500196062028408050537109375</LatitudeDegrees>
              <LongitudeDegrees>-1.91783241927623748779296875</LongitudeDegrees>
            </Position>
            <AltitudeMeters>15.3999996185302734375</AltitudeMeters>
            <DistanceMeters>NAN</DistanceMeters>
          </Trackpoint>
          <Trackpoint>
            <Time>2021-08-11T16:25:02.000Z</Time>
            <Position>
              <LatitudeDegrees>43.325007073581218719482421875</LatitudeDegrees>
              <LongitudeDegrees>-1.917841471731662750244140625</LongitudeDegrees>
            </Position>
            <AltitudeMeters>15.3999996185302734375</AltitudeMeters>
            <DistanceMeters>NAN</DistanceMeters>
          </Trackpoint>
          <Trackpoint>
            <Time>2021-08-11T16:25:03.000Z</Time>
            <Position>
              <LatitudeDegrees>43.32500799559056758880615234375</LatitudeDegrees>
              <LongitudeDegrees>-1.91784675233066082000732421875</LongitudeDegrees>
            </Position>
            <AltitudeMeters>15.3999996185302734375</AltitudeMeters>
            <DistanceMeters>NAN</DistanceMeters>
          </Trackpoint>
          <Trackpoint>
            <Time>2021-08-11T16:25:06.000Z</Time>
            <Position>
              <LatitudeDegrees>43.3250250108540058135986328125</LatitudeDegrees>
              <LongitudeDegrees>-1.91786217503249645233154296875</LongitudeDegrees>
            </Position>
            <AltitudeMeters>15.3999996185302734375</AltitudeMeters>
            <DistanceMeters>NAN</DistanceMeters>
          </Trackpoint>
          <Trackpoint>
            <Time>2021-08-11T16:25:07.000Z</Time>
            <Position>
              <LatitudeDegrees>43.325031884014606475830078125</LatitudeDegrees>
              <LongitudeDegrees>-1.91787038929760456085205078125</LongitudeDegrees>
            </Position>
            <AltitudeMeters>15.6000003814697265625</AltitudeMeters>
            <DistanceMeters>NAN</DistanceMeters>
          </Trackpoint>
          <Trackpoint>
            <Time>2021-08-11T16:25:08.000Z</Time>
            <Position>
              <LatitudeDegrees>43.3250369131565093994140625</LatitudeDegrees>
              <LongitudeDegrees>-1.917876340448856353759765625</LongitudeDegrees>
            </Position>
            <AltitudeMeters>15.6000003814697265625</AltitudeMeters>
            <DistanceMeters>NAN</DistanceMeters>
          </Trackpoint>
          <Trackpoint>
            <Time>2021-08-11T16:25:09.000Z</Time>
            <Position>
              <LatitudeDegrees>43.3250404335558414459228515625</LatitudeDegrees>
              <LongitudeDegrees>-1.91788061521947383880615234375</LongitudeDegrees>
            </Position>
            <AltitudeMeters>15.6000003814697265625</AltitudeMeters>
            <DistanceMeters>NAN</DistanceMeters>
          </Trackpoint>
          <Trackpoint>
            <Time>2021-08-11T16:25:10.000Z</Time>
            <Position>
              <LatitudeDegrees>43.32504152320325374603271484375</LatitudeDegrees>
              <LongitudeDegrees>-1.91788430325686931610107421875</LongitudeDegrees>
            </Position>
            <AltitudeMeters>15.6000003814697265625</AltitudeMeters>
            <DistanceMeters>NAN</DistanceMeters>
          </Trackpoint>
          <Trackpoint>
            <Time>2021-08-11T16:25:11.000Z</Time>
            <Position>
              <LatitudeDegrees>43.32504252903163433074951171875</LatitudeDegrees>
              <LongitudeDegrees>-1.9178907573223114013671875</LongitudeDegrees>
            </Position>
            <AltitudeMeters>15.6000003814697265625</AltitudeMeters>
            <DistanceMeters>NAN</DistanceMeters>
          </Trackpoint>
          <Trackpoint>
            <Time>2021-08-11T16:25:12.000Z</Time>
            <Position>
              <LatitudeDegrees>43.3250476419925689697265625</LatitudeDegrees>
              <LongitudeDegrees>-1.91789872013032436370849609375</LongitudeDegrees>
            </Position>
            <AltitudeMeters>15.6000003814697265625</AltitudeMeters>
            <DistanceMeters>NAN</DistanceMeters>
          </Trackpoint>
          <Trackpoint>
            <Time>2021-08-11T16:25:13.000Z</Time>
            <Position>
              <LatitudeDegrees>43.325050659477710723876953125</LatitudeDegrees>
              <LongitudeDegrees>-1.91790877841413021087646484375</LongitudeDegrees>
            </Position>
            <AltitudeMeters>15.6000003814697265625</AltitudeMeters>
            <DistanceMeters>NAN</DistanceMeters>
          </Trackpoint>
          <Trackpoint>
            <Time>2021-08-11T16:25:14.000Z</Time>
            <Position>
              <LatitudeDegrees>43.3250575326383113861083984375</LatitudeDegrees>
              <LongitudeDegrees>-1.917920596897602081298828125</LongitudeDegrees>
            </Position>
            <AltitudeMeters>15.6000003814697265625</AltitudeMeters>
            <DistanceMeters>NAN</DistanceMeters>
          </Trackpoint>
          <Trackpoint>
            <Time>2021-08-11T16:25:15.000Z</Time>
            <Position>
              <LatitudeDegrees>43.325070440769195556640625</LatitudeDegrees>
              <LongitudeDegrees>-1.917934678494930267333984375</LongitudeDegrees>
            </Position>
            <AltitudeMeters>15.6000003814697265625</AltitudeMeters>
            <DistanceMeters>NAN</DistanceMeters>
          </Trackpoint>
          <Trackpoint>
            <Time>2021-08-11T16:25:16.000Z</Time>
            <Position>
              <LatitudeDegrees>43.32508108578622341156005859375</LatitudeDegrees>
              <LongitudeDegrees>-1.91794632934033870697021484375</LongitudeDegrees>
            </Position>
            <AltitudeMeters>15.6000003814697265625</AltitudeMeters>
            <DistanceMeters>NAN</DistanceMeters>
          </Trackpoint>
          <Trackpoint>
            <Time>2021-08-11T16:25:21.000Z</Time>
            <Position>
              <LatitudeDegrees>43.32511662505567073822021484375</LatitudeDegrees>
              <LongitudeDegrees>-1.91800701431930065155029296875</LongitudeDegrees>
            </Position>
            <AltitudeMeters>15.6000003814697265625</AltitudeMeters>
            <DistanceMeters>NAN</DistanceMeters>
          </Trackpoint>
          <Trackpoint>
            <Time>2021-08-11T16:25:22.000Z</Time>
            <Position>
              <LatitudeDegrees>43.32511939108371734619140625</LatitudeDegrees>
              <LongitudeDegrees>-1.91801757551729679107666015625</LongitudeDegrees>
            </Position>
            <AltitudeMeters>15.3999996185302734375</AltitudeMeters>
            <DistanceMeters>NAN</DistanceMeters>
          </Trackpoint>
          <Trackpoint>
            <Time>2021-08-11T16:25:23.000Z</Time>
            <Position>
              <LatitudeDegrees>43.32512333057820796966552734375</LatitudeDegrees>
              <LongitudeDegrees>-1.91802947781980037689208984375</LongitudeDegrees>
            </Position>
            <AltitudeMeters>15.3999996185302734375</AltitudeMeters>
            <DistanceMeters>NAN</DistanceMeters>
          </Trackpoint>
          <Trackpoint>
            <Time>2021-08-11T16:25:24.000Z</Time>
            <Position>
              <LatitudeDegrees>43.32513305358588695526123046875</LatitudeDegrees>
              <LongitudeDegrees>-1.91803802736103534698486328125</LongitudeDegrees>
            </Position>
            <AltitudeMeters>15.3999996185302734375</AltitudeMeters>
            <DistanceMeters>NAN</DistanceMeters>
          </Trackpoint>
          <Trackpoint>
            <Time>2021-08-11T16:25:25.000Z</Time>
            <Position>
              <LatitudeDegrees>43.3251400105655193328857421875</LatitudeDegrees>
              <LongitudeDegrees>-1.91804842092096805572509765625</LongitudeDegrees>
            </Position>
            <AltitudeMeters>15.3999996185302734375</AltitudeMeters>
            <DistanceMeters>NAN</DistanceMeters>
          </Trackpoint>
          <Trackpoint>
            <Time>2021-08-11T16:25:26.000Z</Time>
            <Position>
              <LatitudeDegrees>43.32514218986034393310546875</LatitudeDegrees>
              <LongitudeDegrees>-1.91805596463382244110107421875</LongitudeDegrees>
            </Position>
            <AltitudeMeters>15.3999996185302734375</AltitudeMeters>
            <DistanceMeters>NAN</DistanceMeters>
          </Trackpoint>
          <Trackpoint>
            <Time>2021-08-11T16:25:27.000Z</Time>
            <Position>
              <LatitudeDegrees>43.32514889538288116455078125</LatitudeDegrees>
              <LongitudeDegrees>-1.918063424527645111083984375</LongitudeDegrees>
            </Position>
            <AltitudeMeters>15.3999996185302734375</AltitudeMeters>
            <DistanceMeters>NAN</DistanceMeters>
          </Trackpoint>
          <Trackpoint>
            <Time>2021-08-11T16:25:29.000Z</Time>
            <Position>
              <LatitudeDegrees>43.32515166141092777252197265625</LatitudeDegrees>
              <LongitudeDegrees>-1.91808446310460567474365234375</LongitudeDegrees>
            </Position>
            <AltitudeMeters>15.3999996185302734375</AltitudeMeters>
            <DistanceMeters>NAN</DistanceMeters>
          </Trackpoint>
          <Trackpoint>
            <Time>2021-08-11T16:25:30.000Z</Time>
            <Position>
              <LatitudeDegrees>43.325149901211261749267578125</LatitudeDegrees>
              <LongitudeDegrees>-1.9180999696254730224609375</LongitudeDegrees>
            </Position>
            <AltitudeMeters>15.3999996185302734375</AltitudeMeters>
            <DistanceMeters>NAN</DistanceMeters>
          </Trackpoint>
          <Trackpoint>
            <Time>2021-08-11T16:25:31.000Z</Time>
            <Position>
              <LatitudeDegrees>43.32515417598187923431396484375</LatitudeDegrees>
              <LongitudeDegrees>-1.91810491494834423065185546875</LongitudeDegrees>
            </Position>
            <AltitudeMeters>15.19999980926513671875</AltitudeMeters>
            <DistanceMeters>NAN</DistanceMeters>
          </Trackpoint>
          <Trackpoint>
            <Time>2021-08-11T16:25:33.000Z</Time>
            <Position>
              <LatitudeDegrees>43.32516574300825595855712890625</LatitudeDegrees>
              <LongitudeDegrees>-1.9181267917156219482421875</LongitudeDegrees>
            </Position>
            <AltitudeMeters>15.19999980926513671875</AltitudeMeters>
            <DistanceMeters>NAN</DistanceMeters>
          </Trackpoint>
          <Trackpoint>
            <Time>2021-08-11T16:25:35.000Z</Time>
            <Position>
              <LatitudeDegrees>43.32515836693346500396728515625</LatitudeDegrees>
              <LongitudeDegrees>-1.918168365955352783203125</LongitudeDegrees>
            </Position>
            <AltitudeMeters>15</AltitudeMeters>
            <DistanceMeters>NAN</DistanceMeters>
          </Trackpoint>
          <Trackpoint>
            <Time>2021-08-11T16:25:36.000Z</Time>
            <Position>
              <LatitudeDegrees>43.3251393400132656097412109375</LatitudeDegrees>
              <LongitudeDegrees>-1.91819309256970882415771484375</LongitudeDegrees>
            </Position>
            <AltitudeMeters>14.80000019073486328125</AltitudeMeters>
            <DistanceMeters>NAN</DistanceMeters>
          </Trackpoint>
          <Trackpoint>
            <Time>2021-08-11T16:25:37.000Z</Time>
            <Position>
              <LatitudeDegrees>43.3251279406249523162841796875</LatitudeDegrees>
              <LongitudeDegrees>-1.91821002401411533355712890625</LongitudeDegrees>
            </Position>
            <AltitudeMeters>14.80000019073486328125</AltitudeMeters>
            <DistanceMeters>NAN</DistanceMeters>
          </Trackpoint>
          <Trackpoint>
            <Time>2021-08-11T16:25:38.000Z</Time>
            <Position>
              <LatitudeDegrees>43.32512064836919307708740234375</LatitudeDegrees>
              <LongitudeDegrees>-1.91822259686887264251708984375</LongitudeDegrees>
            </Position>
            <AltitudeMeters>14.80000019073486328125</AltitudeMeters>
            <DistanceMeters>NAN</DistanceMeters>
          </Trackpoint>
          <Trackpoint>
            <Time>2021-08-11T16:25:39.000Z</Time>
            <Position>
              <LatitudeDegrees>43.325123749673366546630859375</LatitudeDegrees>
              <LongitudeDegrees>-1.91823332570493221282958984375</LongitudeDegrees>
            </Position>
            <AltitudeMeters>14.80000019073486328125</AltitudeMeters>
            <DistanceMeters>NAN</DistanceMeters>
          </Trackpoint>
          <Trackpoint>
            <Time>2021-08-11T16:25:40.000Z</Time>
            <Position>
              <LatitudeDegrees>43.325125761330127716064453125</LatitudeDegrees>
              <LongitudeDegrees>-1.9182456471025943756103515625</LongitudeDegrees>
            </Position>
            <AltitudeMeters>14.80000019073486328125</AltitudeMeters>
            <DistanceMeters>NAN</DistanceMeters>
          </Trackpoint>
          <Trackpoint>
            <Time>2021-08-11T16:25:41.000Z</Time>
            <Position>
              <LatitudeDegrees>43.3251232467591762542724609375</LatitudeDegrees>
              <LongitudeDegrees>-1.91825092770159244537353515625</LongitudeDegrees>
            </Position>
            <AltitudeMeters>14.6000003814697265625</AltitudeMeters>
            <DistanceMeters>NAN</DistanceMeters>
          </Trackpoint>
          <Trackpoint>
            <Time>2021-08-11T16:25:42.000Z</Time>
            <Position>
              <LatitudeDegrees>43.32511578686535358428955078125</LatitudeDegrees>
              <LongitudeDegrees>-1.9182516820728778839111328125</LongitudeDegrees>
            </Position>
            <AltitudeMeters>14.6000003814697265625</AltitudeMeters>
            <DistanceMeters>NAN</DistanceMeters>
          </Trackpoint>
          <Trackpoint>
            <Time>2021-08-11T16:25:43.000Z</Time>
            <Position>
              <LatitudeDegrees>43.3251178823411464691162109375</LatitudeDegrees>
              <LongitudeDegrees>-1.9182523526251316070556640625</LongitudeDegrees>
            </Position>
            <AltitudeMeters>14.6000003814697265625</AltitudeMeters>
            <DistanceMeters>NAN</DistanceMeters>
          </Trackpoint>
          <Trackpoint>
            <Time>2021-08-11T16:25:44.000Z</Time>
            <Position>
              <LatitudeDegrees>43.3251074887812137603759765625</LatitudeDegrees>
              <LongitudeDegrees>-1.91825461573898792266845703125</LongitudeDegrees>
            </Position>
            <AltitudeMeters>14.3999996185302734375</AltitudeMeters>
            <DistanceMeters>NAN</DistanceMeters>
          </Trackpoint>
          <Trackpoint>
            <Time>2021-08-11T16:25:45.000Z</Time>
            <Position>
              <LatitudeDegrees>43.3251048065721988677978515625</LatitudeDegrees>
              <LongitudeDegrees>-1.91825461573898792266845703125</LongitudeDegrees>
            </Position>
            <AltitudeMeters>14.3999996185302734375</AltitudeMeters>
            <DistanceMeters>NAN</DistanceMeters>
          </Trackpoint>
          <Trackpoint>
            <Time>2021-08-11T16:25:46.000Z</Time>
            <Position>
              <LatitudeDegrees>43.32511645741760730743408203125</LatitudeDegrees>
              <LongitudeDegrees>-1.91824925132095813751220703125</LongitudeDegrees>
            </Position>
            <AltitudeMeters>14.3999996185302734375</AltitudeMeters>
            <DistanceMeters>NAN</DistanceMeters>
          </Trackpoint>
          <Trackpoint>
            <Time>2021-08-11T16:25:47.000Z</Time>
            <Position>
              <LatitudeDegrees>43.32511343993246555328369140625</LatitudeDegrees>
              <LongitudeDegrees>-1.91823877394199371337890625</LongitudeDegrees>
            </Position>
            <AltitudeMeters>14.19999980926513671875</AltitudeMeters>
            <DistanceMeters>NAN</DistanceMeters>
          </Trackpoint>
          <Trackpoint>
            <Time>2021-08-11T16:25:48.000Z</Time>
            <Position>
              <LatitudeDegrees>43.32510824315249919891357421875</LatitudeDegrees>
              <LongitudeDegrees>-1.91823600791394710540771484375</LongitudeDegrees>
            </Position>
            <AltitudeMeters>14.19999980926513671875</AltitudeMeters>
            <DistanceMeters>NAN</DistanceMeters>
          </Trackpoint>
          <Trackpoint>
            <Time>2021-08-11T16:25:59.000Z</Time>
            <Position>
              <LatitudeDegrees>43.32509466446936130523681640625</LatitudeDegrees>
              <LongitudeDegrees>-1.91823072731494903564453125</LongitudeDegrees>
            </Position>
            <AltitudeMeters>14</AltitudeMeters>
            <DistanceMeters>NAN</DistanceMeters>
          </Trackpoint>
          <Trackpoint>
            <Time>2021-08-11T16:26:03.000Z</Time>
            <Position>
              <LatitudeDegrees>43.32509164698421955108642578125</LatitudeDegrees>
              <LongitudeDegrees>-1.9182325713336467742919921875</LongitudeDegrees>
            </Position>
            <AltitudeMeters>14</AltitudeMeters>
            <DistanceMeters>NAN</DistanceMeters>
          </Trackpoint>
          <Trackpoint>
            <Time>2021-08-11T16:26:06.000Z</Time>
            <Position>
              <LatitudeDegrees>43.32508058287203311920166015625</LatitudeDegrees>
              <LongitudeDegrees>-1.91822896711528301239013671875</LongitudeDegrees>
            </Position>
            <AltitudeMeters>14</AltitudeMeters>
            <DistanceMeters>NAN</DistanceMeters>
          </Trackpoint>
          <Trackpoint>
            <Time>2021-08-11T16:26:07.000Z</Time>
            <Position>
              <LatitudeDegrees>43.3250806666910648345947265625</LatitudeDegrees>
              <LongitudeDegrees>-1.918235085904598236083984375</LongitudeDegrees>
            </Position>
            <AltitudeMeters>14</AltitudeMeters>
            <DistanceMeters>NAN</DistanceMeters>
          </Trackpoint>
          <Trackpoint>
            <Time>2021-08-11T16:26:08.000Z</Time>
            <Position>
              <LatitudeDegrees>43.3250947482883930206298828125</LatitudeDegrees>
              <LongitudeDegrees>-1.91825998015701770782470703125</LongitudeDegrees>
            </Position>
            <AltitudeMeters>14</AltitudeMeters>
            <DistanceMeters>NAN</DistanceMeters>
          </Trackpoint>
          <Trackpoint>
            <Time>2021-08-11T16:26:11.000Z</Time>
            <Position>
              <LatitudeDegrees>43.32511603832244873046875</LatitudeDegrees>
              <LongitudeDegrees>-1.9183056615293025970458984375</LongitudeDegrees>
            </Position>
            <AltitudeMeters>13.3999996185302734375</AltitudeMeters>
            <DistanceMeters>NAN</DistanceMeters>
          </Trackpoint>
          <Trackpoint>
            <Time>2021-08-11T16:26:12.000Z</Time>
            <Position>
              <LatitudeDegrees>43.32511913962662220001220703125</LatitudeDegrees>
              <LongitudeDegrees>-1.91831680946052074432373046875</LongitudeDegrees>
            </Position>
            <AltitudeMeters>13.3999996185302734375</AltitudeMeters>
            <DistanceMeters>NAN</DistanceMeters>
          </Trackpoint>
          <Trackpoint>
            <Time>2021-08-11T16:26:13.000Z</Time>
            <Position>
              <LatitudeDegrees>43.32511729560792446136474609375</LatitudeDegrees>
              <LongitudeDegrees>-1.9183227606117725372314453125</LongitudeDegrees>
            </Position>
            <AltitudeMeters>13.19999980926513671875</AltitudeMeters>
            <DistanceMeters>NAN</DistanceMeters>
          </Trackpoint>
          <Trackpoint>
            <Time>2021-08-11T16:26:15.000Z</Time>
            <Position>
              <LatitudeDegrees>43.3251173794269561767578125</LatitudeDegrees>
              <LongitudeDegrees>-1.91835452802479267120361328125</LongitudeDegrees>
            </Position>
            <AltitudeMeters>12.80000019073486328125</AltitudeMeters>
            <DistanceMeters>NAN</DistanceMeters>
          </Trackpoint>
          <Trackpoint>
            <Time>2021-08-11T16:26:18.000Z</Time>
            <Position>
              <LatitudeDegrees>43.32511603832244873046875</LatitudeDegrees>
              <LongitudeDegrees>-1.91839006729423999786376953125</LongitudeDegrees>
            </Position>
            <AltitudeMeters>12.3999996185302734375</AltitudeMeters>
            <DistanceMeters>NAN</DistanceMeters>
          </Trackpoint>
          <Trackpoint>
            <Time>2021-08-11T16:26:20.000Z</Time>
            <Position>
              <LatitudeDegrees>43.3251334726810455322265625</LatitudeDegrees>
              <LongitudeDegrees>-1.918409764766693115234375</LongitudeDegrees>
            </Position>
            <AltitudeMeters>12.19999980926513671875</AltitudeMeters>
            <DistanceMeters>NAN</DistanceMeters>
          </Trackpoint>
          <Trackpoint>
            <Time>2021-08-11T16:26:21.000Z</Time>
            <Position>
              <LatitudeDegrees>43.32513975910842418670654296875</LatitudeDegrees>
              <LongitudeDegrees>-1.91841236315667629241943359375</LongitudeDegrees>
            </Position>
            <AltitudeMeters>12.19999980926513671875</AltitudeMeters>
            <DistanceMeters>NAN</DistanceMeters>
          </Trackpoint>
          <Trackpoint>
            <Time>2021-08-11T16:26:22.000Z</Time>
            <Position>
              <LatitudeDegrees>43.32514193840324878692626953125</LatitudeDegrees>
              <LongitudeDegrees>-1.91842250525951385498046875</LongitudeDegrees>
            </Position>
            <AltitudeMeters>12.19999980926513671875</AltitudeMeters>
            <DistanceMeters>NAN</DistanceMeters>
          </Trackpoint>
          <Trackpoint>
            <Time>2021-08-11T16:26:23.000Z</Time>
            <Position>
              <LatitudeDegrees>43.32513875328004360198974609375</LatitudeDegrees>
              <LongitudeDegrees>-1.9184313900768756866455078125</LongitudeDegrees>
            </Position>
            <AltitudeMeters>12.19999980926513671875</AltitudeMeters>
            <DistanceMeters>NAN</DistanceMeters>
          </Trackpoint>
          <Trackpoint>
            <Time>2021-08-11T16:26:24.000Z</Time>
            <Position>
              <LatitudeDegrees>43.32513573579490184783935546875</LatitudeDegrees>
              <LongitudeDegrees>-1.9184387661516666412353515625</LongitudeDegrees>
            </Position>
            <AltitudeMeters>12</AltitudeMeters>
            <DistanceMeters>NAN</DistanceMeters>
          </Trackpoint>
          <Trackpoint>
            <Time>2021-08-11T16:26:25.000Z</Time>
            <Position>
              <LatitudeDegrees>43.32512819208204746246337890625</LatitudeDegrees>
              <LongitudeDegrees>-1.91844153217971324920654296875</LongitudeDegrees>
            </Position>
            <AltitudeMeters>12</AltitudeMeters>
            <DistanceMeters>NAN</DistanceMeters>
          </Trackpoint>
          <Trackpoint>
            <Time>2021-08-11T16:26:28.000Z</Time>
            <Position>
              <LatitudeDegrees>43.32511075772345066070556640625</LatitudeDegrees>
              <LongitudeDegrees>-1.918474137783050537109375</LongitudeDegrees>
            </Position>
            <AltitudeMeters>12</AltitudeMeters>
            <DistanceMeters>NAN</DistanceMeters>
          </Trackpoint>
          <Trackpoint>
            <Time>2021-08-11T16:26:29.000Z</Time>
            <Position>
              <LatitudeDegrees>43.32511863671243190765380859375</LatitudeDegrees>
              <LongitudeDegrees>-1.91848260350525379180908203125</LongitudeDegrees>
            </Position>
            <AltitudeMeters>12</AltitudeMeters>
            <DistanceMeters>NAN</DistanceMeters>
          </Trackpoint>
          <Trackpoint>
            <Time>2021-08-11T16:26:30.000Z</Time>
            <Position>
              <LatitudeDegrees>43.325129784643650054931640625</LatitudeDegrees>
              <LongitudeDegrees>-1.9184974394738674163818359375</LongitudeDegrees>
            </Position>
            <AltitudeMeters>12</AltitudeMeters>
            <DistanceMeters>NAN</DistanceMeters>
          </Trackpoint>
          <Trackpoint>
            <Time>2021-08-11T16:26:31.000Z</Time>
            <Position>
              <LatitudeDegrees>43.325141184031963348388671875</LatitudeDegrees>
              <LongitudeDegrees>-1.91851370036602020263671875</LongitudeDegrees>
            </Position>
            <AltitudeMeters>11.80000019073486328125</AltitudeMeters>
            <DistanceMeters>NAN</DistanceMeters>
          </Trackpoint>
          <Trackpoint>
            <Time>2021-08-11T16:26:32.000Z</Time>
            <Position>
              <LatitudeDegrees>43.32514998503029346466064453125</LatitudeDegrees>
              <LongitudeDegrees>-1.91852652467787265777587890625</LongitudeDegrees>
            </Position>
            <AltitudeMeters>11.80000019073486328125</AltitudeMeters>
            <DistanceMeters>NAN</DistanceMeters>
          </Trackpoint>
          <Trackpoint>
            <Time>2021-08-11T16:26:33.000Z</Time>
            <Position>
              <LatitudeDegrees>43.32516096532344818115234375</LatitudeDegrees>
              <LongitudeDegrees>-1.91854328848421573638916015625</LongitudeDegrees>
            </Position>
            <AltitudeMeters>11.80000019073486328125</AltitudeMeters>
            <DistanceMeters>NAN</DistanceMeters>
          </Trackpoint>
          <Trackpoint>
            <Time>2021-08-11T16:26:35.000Z</Time>
            <Position>
              <LatitudeDegrees>43.32517035305500030517578125</LatitudeDegrees>
              <LongitudeDegrees>-1.91856675781309604644775390625</LongitudeDegrees>
            </Position>
            <AltitudeMeters>11.80000019073486328125</AltitudeMeters>
            <DistanceMeters>NAN</DistanceMeters>
          </Trackpoint>
          <Trackpoint>
            <Time>2021-08-11T16:26:39.000Z</Time>
            <Position>
              <LatitudeDegrees>43.32520010881125926971435546875</LatitudeDegrees>
              <LongitudeDegrees>-1.91861805506050586700439453125</LongitudeDegrees>
            </Position>
            <AltitudeMeters>11.6000003814697265625</AltitudeMeters>
            <DistanceMeters>NAN</DistanceMeters>
          </Trackpoint>
          <Trackpoint>
            <Time>2021-08-11T16:26:40.000Z</Time>
            <Position>
              <LatitudeDegrees>43.32520144991576671600341796875</LatitudeDegrees>
              <LongitudeDegrees>-1.918632052838802337646484375</LongitudeDegrees>
            </Position>
            <AltitudeMeters>11.6000003814697265625</AltitudeMeters>
            <DistanceMeters>NAN</DistanceMeters>
          </Trackpoint>
          <Trackpoint>
            <Time>2021-08-11T16:26:41.000Z</Time>
            <Position>
              <LatitudeDegrees>43.3252074010670185089111328125</LatitudeDegrees>
              <LongitudeDegrees>-1.9186372496187686920166015625</LongitudeDegrees>
            </Position>
            <AltitudeMeters>11.6000003814697265625</AltitudeMeters>
            <DistanceMeters>NAN</DistanceMeters>
          </Trackpoint>
          <Trackpoint>
            <Time>2021-08-11T16:26:42.000Z</Time>
            <Position>
              <LatitudeDegrees>43.32520882599055767059326171875</LatitudeDegrees>
              <LongitudeDegrees>-1.918640434741973876953125</LongitudeDegrees>
            </Position>
            <AltitudeMeters>11.3999996185302734375</AltitudeMeters>
            <DistanceMeters>NAN</DistanceMeters>
          </Trackpoint>
          <Trackpoint>
            <Time>2021-08-11T16:26:43.000Z</Time>
            <Position>
              <LatitudeDegrees>43.32520798780024051666259765625</LatitudeDegrees>
              <LongitudeDegrees>-1.91864320077002048492431640625</LongitudeDegrees>
            </Position>
            <AltitudeMeters>11.3999996185302734375</AltitudeMeters>
            <DistanceMeters>NAN</DistanceMeters>
          </Trackpoint>
          <Trackpoint>
            <Time>2021-08-11T16:26:45.000Z</Time>
            <Position>
              <LatitudeDegrees>43.32520564086735248565673828125</LatitudeDegrees>
              <LongitudeDegrees>-1.918648816645145416259765625</LongitudeDegrees>
            </Position>
            <AltitudeMeters>11.19999980926513671875</AltitudeMeters>
            <DistanceMeters>NAN</DistanceMeters>
          </Trackpoint>
          <Trackpoint>
            <Time>2021-08-11T16:26:46.000Z</Time>
            <Position>
              <LatitudeDegrees>43.325210921466350555419921875</LatitudeDegrees>
              <LongitudeDegrees>-1.91865049302577972412109375</LongitudeDegrees>
            </Position>
            <AltitudeMeters>11.19999980926513671875</AltitudeMeters>
            <DistanceMeters>NAN</DistanceMeters>
          </Trackpoint>
          <Trackpoint>
            <Time>2021-08-11T16:26:47.000Z</Time>
            <Position>
              <LatitudeDegrees>43.3252198062837123870849609375</LatitudeDegrees>
              <LongitudeDegrees>-1.9186711125075817108154296875</LongitudeDegrees>
            </Position>
            <AltitudeMeters>11.19999980926513671875</AltitudeMeters>
            <DistanceMeters>NAN</DistanceMeters>
          </Trackpoint>
          <Trackpoint>
            <Time>2021-08-11T16:26:49.000Z</Time>
            <Position>
              <LatitudeDegrees>43.32524034194648265838623046875</LatitudeDegrees>
              <LongitudeDegrees>-1.91872785799205303192138671875</LongitudeDegrees>
            </Position>
            <AltitudeMeters>11.19999980926513671875</AltitudeMeters>
            <DistanceMeters>NAN</DistanceMeters>
          </Trackpoint>
          <Trackpoint>
            <Time>2021-08-11T16:26:51.000Z</Time>
            <Position>
              <LatitudeDegrees>43.32527738995850086212158203125</LatitudeDegrees>
              <LongitudeDegrees>-1.9187463819980621337890625</LongitudeDegrees>
            </Position>
            <AltitudeMeters>11.19999980926513671875</AltitudeMeters>
            <DistanceMeters>NAN</DistanceMeters>
          </Trackpoint>
          <Trackpoint>
            <Time>2021-08-11T16:26:57.000Z</Time>
            <Position>
              <LatitudeDegrees>43.3252939023077487945556640625</LatitudeDegrees>
              <LongitudeDegrees>-1.9187599606812000274658203125</LongitudeDegrees>
            </Position>
            <AltitudeMeters>11.3999996185302734375</AltitudeMeters>
            <DistanceMeters>NAN</DistanceMeters>
          </Trackpoint>
          <Trackpoint>
            <Time>2021-08-11T16:27:02.000Z</Time>
            <Position>
              <LatitudeDegrees>43.3252747915685176849365234375</LatitudeDegrees>
              <LongitudeDegrees>-1.91878116689622402191162109375</LongitudeDegrees>
            </Position>
            <AltitudeMeters>11.19999980926513671875</AltitudeMeters>
            <DistanceMeters>NAN</DistanceMeters>
          </Trackpoint>
          <Trackpoint>
            <Time>2021-08-11T16:27:03.000Z</Time>
            <Position>
              <LatitudeDegrees>43.32527018152177333831787109375</LatitudeDegrees>
              <LongitudeDegrees>-1.91877496428787708282470703125</LongitudeDegrees>
            </Position>
            <AltitudeMeters>11.19999980926513671875</AltitudeMeters>
            <DistanceMeters>NAN</DistanceMeters>
          </Trackpoint>
          <Trackpoint>
            <Time>2021-08-11T16:27:04.000Z</Time>
            <Position>
              <LatitudeDegrees>43.3252568542957305908203125</LatitudeDegrees>
              <LongitudeDegrees>-1.918773539364337921142578125</LongitudeDegrees>
            </Position>
            <AltitudeMeters>11.19999980926513671875</AltitudeMeters>
            <DistanceMeters>NAN</DistanceMeters>
          </Trackpoint>
          <Trackpoint>
            <Time>2021-08-11T16:27:06.000Z</Time>
            <Position>
              <LatitudeDegrees>43.3252716064453125</LatitudeDegrees>
              <LongitudeDegrees>-1.91881402395665645599365234375</LongitudeDegrees>
            </Position>
            <AltitudeMeters>11.19999980926513671875</AltitudeMeters>
            <DistanceMeters>NAN</DistanceMeters>
          </Trackpoint>
          <Trackpoint>
            <Time>2021-08-11T16:27:07.000Z</Time>
            <Position>
              <LatitudeDegrees>43.32527621649205684661865234375</LatitudeDegrees>
              <LongitudeDegrees>-1.918840594589710235595703125</LongitudeDegrees>
            </Position>
            <AltitudeMeters>11.19999980926513671875</AltitudeMeters>
            <DistanceMeters>NAN</DistanceMeters>
          </Trackpoint>
          <Trackpoint>
            <Time>2021-08-11T16:27:08.000Z</Time>
            <Position>
              <LatitudeDegrees>43.325276635587215423583984375</LatitudeDegrees>
              <LongitudeDegrees>-1.91886330954730510711669921875</LongitudeDegrees>
            </Position>
            <AltitudeMeters>11.19999980926513671875</AltitudeMeters>
            <DistanceMeters>NAN</DistanceMeters>
          </Trackpoint>
          <Trackpoint>
            <Time>2021-08-11T16:27:09.000Z</Time>
            <Position>
              <LatitudeDegrees>43.32528258673846721649169921875</LatitudeDegrees>
              <LongitudeDegrees>-1.9188778102397918701171875</LongitudeDegrees>
            </Position>
            <AltitudeMeters>11.19999980926513671875</AltitudeMeters>
            <DistanceMeters>NAN</DistanceMeters>
          </Trackpoint>
          <Trackpoint>
            <Time>2021-08-11T16:27:10.000Z</Time>
            <Position>
              <LatitudeDegrees>43.3252970874309539794921875</LatitudeDegrees>
              <LongitudeDegrees>-1.91888962872326374053955078125</LongitudeDegrees>
            </Position>
            <AltitudeMeters>11.19999980926513671875</AltitudeMeters>
            <DistanceMeters>NAN</DistanceMeters>
          </Trackpoint>
          <Trackpoint>
            <Time>2021-08-11T16:27:11.000Z</Time>
            <Position>
              <LatitudeDegrees>43.32532919012010097503662109375</LatitudeDegrees>
              <LongitudeDegrees>-1.9188944064080715179443359375</LongitudeDegrees>
            </Position>
            <AltitudeMeters>11</AltitudeMeters>
            <DistanceMeters>NAN</DistanceMeters>
          </Trackpoint>
          <Trackpoint>
            <Time>2021-08-11T16:27:12.000Z</Time>
            <Position>
              <LatitudeDegrees>43.3253455348312854766845703125</LatitudeDegrees>
              <LongitudeDegrees>-1.91890236921608448028564453125</LongitudeDegrees>
            </Position>
            <AltitudeMeters>11</AltitudeMeters>
            <DistanceMeters>NAN</DistanceMeters>
          </Trackpoint>
          <Trackpoint>
            <Time>2021-08-11T16:27:13.000Z</Time>
            <Position>
              <LatitudeDegrees>43.3253515698015689849853515625</LatitudeDegrees>
              <LongitudeDegrees>-1.91892365925014019012451171875</LongitudeDegrees>
            </Position>
            <AltitudeMeters>11</AltitudeMeters>
            <DistanceMeters>NAN</DistanceMeters>
          </Trackpoint>
          <Trackpoint>
            <Time>2021-08-11T16:27:14.000Z</Time>
            <Position>
              <LatitudeDegrees>43.32535500638186931610107421875</LatitudeDegrees>
              <LongitudeDegrees>-1.91894746385514736175537109375</LongitudeDegrees>
            </Position>
            <AltitudeMeters>11</AltitudeMeters>
            <DistanceMeters>NAN</DistanceMeters>
          </Trackpoint>
          <Trackpoint>
            <Time>2021-08-11T16:27:15.000Z</Time>
            <Position>
              <LatitudeDegrees>43.3253633044660091400146484375</LatitudeDegrees>
              <LongitudeDegrees>-1.918965987861156463623046875</LongitudeDegrees>
            </Position>
            <AltitudeMeters>11</AltitudeMeters>
            <DistanceMeters>NAN</DistanceMeters>
          </Trackpoint>
          <Trackpoint>
            <Time>2021-08-11T16:27:16.000Z</Time>
            <Position>
              <LatitudeDegrees>43.3253800682723522186279296875</LatitudeDegrees>
              <LongitudeDegrees>-1.9189715199172496795654296875</LongitudeDegrees>
            </Position>
            <AltitudeMeters>11</AltitudeMeters>
            <DistanceMeters>NAN</DistanceMeters>
          </Trackpoint>
          <Trackpoint>
            <Time>2021-08-11T16:27:18.000Z</Time>
            <Position>
              <LatitudeDegrees>43.32539121620357036590576171875</LatitudeDegrees>
              <LongitudeDegrees>-1.919007562100887298583984375</LongitudeDegrees>
            </Position>
            <AltitudeMeters>11</AltitudeMeters>
            <DistanceMeters>NAN</DistanceMeters>
          </Trackpoint>
          <Trackpoint>
            <Time>2021-08-11T16:27:19.000Z</Time>
            <Position>
              <LatitudeDegrees>43.3254018612205982208251953125</LatitudeDegrees>
              <LongitudeDegrees>-1.919015944004058837890625</LongitudeDegrees>
            </Position>
            <AltitudeMeters>11.19999980926513671875</AltitudeMeters>
            <DistanceMeters>NAN</DistanceMeters>
          </Trackpoint>
          <Trackpoint>
            <Time>2021-08-11T16:27:20.000Z</Time>
            <Position>
              <LatitudeDegrees>43.32541451789438724517822265625</LatitudeDegrees>
              <LongitudeDegrees>-1.91902935504913330078125</LongitudeDegrees>
            </Position>
            <AltitudeMeters>11.19999980926513671875</AltitudeMeters>
            <DistanceMeters>NAN</DistanceMeters>
          </Trackpoint>
          <Trackpoint>
            <Time>2021-08-11T16:27:21.000Z</Time>
            <Position>
              <LatitudeDegrees>43.32541082985699176788330078125</LatitudeDegrees>
              <LongitudeDegrees>-1.91905190236866474151611328125</LongitudeDegrees>
            </Position>
            <AltitudeMeters>11.3999996185302734375</AltitudeMeters>
            <DistanceMeters>NAN</DistanceMeters>
          </Trackpoint>
          <Trackpoint>
            <Time>2021-08-11T16:27:22.000Z</Time>
            <Position>
              <LatitudeDegrees>43.32541418261826038360595703125</LatitudeDegrees>
              <LongitudeDegrees>-1.91906279884278774261474609375</LongitudeDegrees>
            </Position>
            <AltitudeMeters>11.3999996185302734375</AltitudeMeters>
            <DistanceMeters>NAN</DistanceMeters>
          </Trackpoint>
          <Trackpoint>
            <Time>2021-08-11T16:27:24.000Z</Time>
            <Position>
              <LatitudeDegrees>43.3254229836165904998779296875</LatitudeDegrees>
              <LongitudeDegrees>-1.91907964646816253662109375</LongitudeDegrees>
            </Position>
            <AltitudeMeters>11.6000003814697265625</AltitudeMeters>
            <DistanceMeters>NAN</DistanceMeters>
          </Trackpoint>
          <Trackpoint>
            <Time>2021-08-11T16:27:25.000Z</Time>
            <Position>
              <LatitudeDegrees>43.325434215366840362548828125</LatitudeDegrees>
              <LongitudeDegrees>-1.91908006556332111358642578125</LongitudeDegrees>
            </Position>
            <AltitudeMeters>11.6000003814697265625</AltitudeMeters>
            <DistanceMeters>NAN</DistanceMeters>
          </Trackpoint>
          <Trackpoint>
            <Time>2021-08-11T16:27:26.000Z</Time>
            <Position>
              <LatitudeDegrees>43.32544301636517047882080078125</LatitudeDegrees>
              <LongitudeDegrees>-1.91908710636198520660400390625</LongitudeDegrees>
            </Position>
            <AltitudeMeters>11.6000003814697265625</AltitudeMeters>
            <DistanceMeters>NAN</DistanceMeters>
          </Trackpoint>
          <Trackpoint>
            <Time>2021-08-11T16:27:27.000Z</Time>
            <Position>
              <LatitudeDegrees>43.32544871605932712554931640625</LatitudeDegrees>
              <LongitudeDegrees>-1.91909884102642536163330078125</LongitudeDegrees>
            </Position>
            <AltitudeMeters>11.6000003814697265625</AltitudeMeters>
            <DistanceMeters>NAN</DistanceMeters>
          </Trackpoint>
          <Trackpoint>
            <Time>2021-08-11T16:27:28.000Z</Time>
            <Position>
              <LatitudeDegrees>43.3254514820873737335205078125</LatitudeDegrees>
              <LongitudeDegrees>-1.9191063009202480316162109375</LongitudeDegrees>
            </Position>
            <AltitudeMeters>11.6000003814697265625</AltitudeMeters>
            <DistanceMeters>NAN</DistanceMeters>
          </Trackpoint>
          <Trackpoint>
            <Time>2021-08-11T16:27:29.000Z</Time>
            <Position>
              <LatitudeDegrees>43.325454331934452056884765625</LatitudeDegrees>
              <LongitudeDegrees>-1.919114179909229278564453125</LongitudeDegrees>
            </Position>
            <AltitudeMeters>11.6000003814697265625</AltitudeMeters>
            <DistanceMeters>NAN</DistanceMeters>
          </Trackpoint>
          <Trackpoint>
            <Time>2021-08-11T16:27:30.000Z</Time>
            <Position>
              <LatitudeDegrees>43.32545910961925983428955078125</LatitudeDegrees>
              <LongitudeDegrees>-1.91912683658301830291748046875</LongitudeDegrees>
            </Position>
            <AltitudeMeters>11.6000003814697265625</AltitudeMeters>
            <DistanceMeters>NAN</DistanceMeters>
          </Trackpoint>
          <Trackpoint>
            <Time>2021-08-11T16:27:31.000Z</Time>
            <Position>
              <LatitudeDegrees>43.325462378561496734619140625</LatitudeDegrees>
              <LongitudeDegrees>-1.91913999617099761962890625</LongitudeDegrees>
            </Position>
            <AltitudeMeters>11.6000003814697265625</AltitudeMeters>
            <DistanceMeters>NAN</DistanceMeters>
          </Trackpoint>
          <Trackpoint>
            <Time>2021-08-11T16:27:32.000Z</Time>
            <Position>
              <LatitudeDegrees>43.325462378561496734619140625</LatitudeDegrees>
              <LongitudeDegrees>-1.91915072500705718994140625</LongitudeDegrees>
            </Position>
            <AltitudeMeters>11.6000003814697265625</AltitudeMeters>
            <DistanceMeters>NAN</DistanceMeters>
          </Trackpoint>
          <Trackpoint>
            <Time>2021-08-11T16:27:33.000Z</Time>
            <Position>
              <LatitudeDegrees>43.32546346820890903472900390625</LatitudeDegrees>
              <LongitudeDegrees>-1.91915852017700672149658203125</LongitudeDegrees>
            </Position>
            <AltitudeMeters>11.3999996185302734375</AltitudeMeters>
            <DistanceMeters>NAN</DistanceMeters>
          </Trackpoint>
          <Trackpoint>
            <Time>2021-08-11T16:27:34.000Z</Time>
            <Position>
              <LatitudeDegrees>43.3254648931324481964111328125</LatitudeDegrees>
              <LongitudeDegrees>-1.91916656680405139923095703125</LongitudeDegrees>
            </Position>
            <AltitudeMeters>11.3999996185302734375</AltitudeMeters>
            <DistanceMeters>NAN</DistanceMeters>
          </Trackpoint>
          <Trackpoint>
            <Time>2021-08-11T16:27:35.000Z</Time>
            <Position>
              <LatitudeDegrees>43.32546229474246501922607421875</LatitudeDegrees>
              <LongitudeDegrees>-1.9191803969442844390869140625</LongitudeDegrees>
            </Position>
            <AltitudeMeters>11.3999996185302734375</AltitudeMeters>
            <DistanceMeters>NAN</DistanceMeters>
          </Trackpoint>
          <Trackpoint>
            <Time>2021-08-11T16:27:36.000Z</Time>
            <Position>
              <LatitudeDegrees>43.32545726560056209564208984375</LatitudeDegrees>
              <LongitudeDegrees>-1.9191998429596424102783203125</LongitudeDegrees>
            </Position>
            <AltitudeMeters>11.3999996185302734375</AltitudeMeters>
            <DistanceMeters>NAN</DistanceMeters>
          </Trackpoint>
          <Trackpoint>
            <Time>2021-08-11T16:27:38.000Z</Time>
            <Position>
              <LatitudeDegrees>43.32543077878654003143310546875</LatitudeDegrees>
              <LongitudeDegrees>-1.91922557540237903594970703125</LongitudeDegrees>
            </Position>
            <AltitudeMeters>11.3999996185302734375</AltitudeMeters>
            <DistanceMeters>NAN</DistanceMeters>
          </Trackpoint>
          <Trackpoint>
            <Time>2021-08-11T16:27:39.000Z</Time>
            <Position>
              <LatitudeDegrees>43.32541820593178272247314453125</LatitudeDegrees>
              <LongitudeDegrees>-1.9192397408187389373779296875</LongitudeDegrees>
            </Position>
            <AltitudeMeters>11.3999996185302734375</AltitudeMeters>
            <DistanceMeters>NAN</DistanceMeters>
          </Trackpoint>
          <Trackpoint>
            <Time>2021-08-11T16:27:40.000Z</Time>
            <Position>
              <LatitudeDegrees>43.32540647126734256744384765625</LatitudeDegrees>
              <LongitudeDegrees>-1.9192548282444477081298828125</LongitudeDegrees>
            </Position>
            <AltitudeMeters>11.3999996185302734375</AltitudeMeters>
            <DistanceMeters>NAN</DistanceMeters>
          </Trackpoint>
          <Trackpoint>
            <Time>2021-08-11T16:27:41.000Z</Time>
            <Position>
              <LatitudeDegrees>43.32539255730807781219482421875</LatitudeDegrees>
              <LongitudeDegrees>-1.91926698200404644012451171875</LongitudeDegrees>
            </Position>
            <AltitudeMeters>11.3999996185302734375</AltitudeMeters>
            <DistanceMeters>NAN</DistanceMeters>
          </Trackpoint>
          <Trackpoint>
            <Time>2021-08-11T16:27:44.000Z</Time>
            <Position>
              <LatitudeDegrees>43.32536615431308746337890625</LatitudeDegrees>
              <LongitudeDegrees>-1.9192984141409397125244140625</LongitudeDegrees>
            </Position>
            <AltitudeMeters>11.3999996185302734375</AltitudeMeters>
            <DistanceMeters>NAN</DistanceMeters>
          </Trackpoint>
          <Trackpoint>
            <Time>2021-08-11T16:27:45.000Z</Time>
            <Position>
              <LatitudeDegrees>43.325357772409915924072265625</LatitudeDegrees>
              <LongitudeDegrees>-1.9193091429769992828369140625</LongitudeDegrees>
            </Position>
            <AltitudeMeters>11.3999996185302734375</AltitudeMeters>
            <DistanceMeters>NAN</DistanceMeters>
          </Trackpoint>
          <Trackpoint>
            <Time>2021-08-11T16:27:46.000Z</Time>
            <Position>
              <LatitudeDegrees>43.32535198889672756195068359375</LatitudeDegrees>
              <LongitudeDegrees>-1.91931811161339282989501953125</LongitudeDegrees>
            </Position>
            <AltitudeMeters>11.19999980926513671875</AltitudeMeters>
            <DistanceMeters>NAN</DistanceMeters>
          </Trackpoint>
          <Trackpoint>
            <Time>2021-08-11T16:27:47.000Z</Time>
            <Position>
              <LatitudeDegrees>43.3253462053835391998291015625</LatitudeDegrees>
              <LongitudeDegrees>-1.9193275831639766693115234375</LongitudeDegrees>
            </Position>
            <AltitudeMeters>11.19999980926513671875</AltitudeMeters>
            <DistanceMeters>NAN</DistanceMeters>
          </Trackpoint>
          <Trackpoint>
            <Time>2021-08-11T16:27:48.000Z</Time>
            <Position>
              <LatitudeDegrees>43.32534142769873142242431640625</LatitudeDegrees>
              <LongitudeDegrees>-1.91933722235262393951416015625</LongitudeDegrees>
            </Position>
            <AltitudeMeters>11.19999980926513671875</AltitudeMeters>
            <DistanceMeters>NAN</DistanceMeters>
          </Trackpoint>
          <Trackpoint>
            <Time>2021-08-11T16:27:49.000Z</Time>
            <Position>
              <LatitudeDegrees>43.3253373205661773681640625</LatitudeDegrees>
              <LongitudeDegrees>-1.919354237616062164306640625</LongitudeDegrees>
            </Position>
            <AltitudeMeters>11.19999980926513671875</AltitudeMeters>
            <DistanceMeters>NAN</DistanceMeters>
          </Trackpoint>
          <Trackpoint>
            <Time>2021-08-11T16:27:50.000Z</Time>
            <Position>
              <LatitudeDegrees>43.3253415115177631378173828125</LatitudeDegrees>
              <LongitudeDegrees>-1.9193671457469463348388671875</LongitudeDegrees>
            </Position>
            <AltitudeMeters>11.19999980926513671875</AltitudeMeters>
            <DistanceMeters>NAN</DistanceMeters>
          </Trackpoint>
          <Trackpoint>
            <Time>2021-08-11T16:27:51.000Z</Time>
            <Position>
              <LatitudeDegrees>43.32536104135215282440185546875</LatitudeDegrees>
              <LongitudeDegrees>-1.9193668104708194732666015625</LongitudeDegrees>
            </Position>
            <AltitudeMeters>11.19999980926513671875</AltitudeMeters>
            <DistanceMeters>NAN</DistanceMeters>
          </Trackpoint>
          <Trackpoint>
            <Time>2021-08-11T16:27:52.000Z</Time>
            <Position>
              <LatitudeDegrees>43.32537285983562469482421875</LatitudeDegrees>
              <LongitudeDegrees>-1.9193775393068790435791015625</LongitudeDegrees>
            </Position>
            <AltitudeMeters>11.19999980926513671875</AltitudeMeters>
            <DistanceMeters>NAN</DistanceMeters>
          </Trackpoint>
          <Trackpoint>
            <Time>2021-08-11T16:27:53.000Z</Time>
            <Position>
              <LatitudeDegrees>43.32537076435983180999755859375</LatitudeDegrees>
              <LongitudeDegrees>-1.91937737166881561279296875</LongitudeDegrees>
            </Position>
            <AltitudeMeters>11.19999980926513671875</AltitudeMeters>
            <DistanceMeters>NAN</DistanceMeters>
          </Trackpoint>
          <Trackpoint>
            <Time>2021-08-11T16:27:54.000Z</Time>
            <Position>
              <LatitudeDegrees>43.32536523230373859405517578125</LatitudeDegrees>
              <LongitudeDegrees>-1.91937603056430816650390625</LongitudeDegrees>
            </Position>
            <AltitudeMeters>11</AltitudeMeters>
            <DistanceMeters>NAN</DistanceMeters>
          </Trackpoint>
          <Trackpoint>
            <Time>2021-08-11T16:27:55.000Z</Time>
            <Position>
              <LatitudeDegrees>43.32536741159856319427490234375</LatitudeDegrees>
              <LongitudeDegrees>-1.919369995594024658203125</LongitudeDegrees>
            </Position>
            <AltitudeMeters>11</AltitudeMeters>
            <DistanceMeters>NAN</DistanceMeters>
          </Trackpoint>
          <Trackpoint>
            <Time>2021-08-11T16:27:56.000Z</Time>
            <Position>
              <LatitudeDegrees>43.32537353038787841796875</LatitudeDegrees>
              <LongitudeDegrees>-1.91937494091689586639404296875</LongitudeDegrees>
            </Position>
            <AltitudeMeters>11</AltitudeMeters>
            <DistanceMeters>NAN</DistanceMeters>
          </Trackpoint>
          <Trackpoint>
            <Time>2021-08-11T16:27:57.000Z</Time>
            <Position>
              <LatitudeDegrees>43.325386606156826019287109375</LatitudeDegrees>
              <LongitudeDegrees>-1.9193909503519535064697265625</LongitudeDegrees>
            </Position>
            <AltitudeMeters>11</AltitudeMeters>
            <DistanceMeters>NAN</DistanceMeters>
          </Trackpoint>
          <Trackpoint>
            <Time>2021-08-11T16:28:01.000Z</Time>
            <Position>
              <LatitudeDegrees>43.3254793100059032440185546875</LatitudeDegrees>
              <LongitudeDegrees>-1.9194513000547885894775390625</LongitudeDegrees>
            </Position>
            <AltitudeMeters>11</AltitudeMeters>
            <DistanceMeters>NAN</DistanceMeters>
          </Trackpoint>
          <Trackpoint>
            <Time>2021-08-11T16:28:03.000Z</Time>
            <Position>
              <LatitudeDegrees>43.32548878155648708343505859375</LatitudeDegrees>
              <LongitudeDegrees>-1.9194935448467731475830078125</LongitudeDegrees>
            </Position>
            <AltitudeMeters>11</AltitudeMeters>
            <DistanceMeters>NAN</DistanceMeters>
          </Trackpoint>
          <Trackpoint>
            <Time>2021-08-11T16:28:04.000Z</Time>
            <Position>
              <LatitudeDegrees>43.325485177338123321533203125</LatitudeDegrees>
              <LongitudeDegrees>-1.91952933557331562042236328125</LongitudeDegrees>
            </Position>
            <AltitudeMeters>11</AltitudeMeters>
            <DistanceMeters>NAN</DistanceMeters>
          </Trackpoint>
          <Trackpoint>
            <Time>2021-08-11T16:28:05.000Z</Time>
            <Position>
              <LatitudeDegrees>43.3254917152225971221923828125</LatitudeDegrees>
              <LongitudeDegrees>-1.91955305635929107666015625</LongitudeDegrees>
            </Position>
            <AltitudeMeters>11</AltitudeMeters>
            <DistanceMeters>NAN</DistanceMeters>
          </Trackpoint>
          <Trackpoint>
            <Time>2021-08-11T16:28:06.000Z</Time>
            <Position>
              <LatitudeDegrees>43.32549598999321460723876953125</LatitudeDegrees>
              <LongitudeDegrees>-1.91958247683942317962646484375</LongitudeDegrees>
            </Position>
            <AltitudeMeters>11</AltitudeMeters>
            <DistanceMeters>NAN</DistanceMeters>
          </Trackpoint>
          <Trackpoint>
            <Time>2021-08-11T16:28:07.000Z</Time>
            <Position>
              <LatitudeDegrees>43.32550755701959133148193359375</LatitudeDegrees>
              <LongitudeDegrees>-1.91959588788449764251708984375</LongitudeDegrees>
            </Position>
            <AltitudeMeters>11</AltitudeMeters>
            <DistanceMeters>NAN</DistanceMeters>
          </Trackpoint>
          <Trackpoint>
            <Time>2021-08-11T16:28:08.000Z</Time>
            <Position>
              <LatitudeDegrees>43.32552381791174411773681640625</LatitudeDegrees>
              <LongitudeDegrees>-1.9196011684834957122802734375</LongitudeDegrees>
            </Position>
            <AltitudeMeters>11</AltitudeMeters>
            <DistanceMeters>NAN</DistanceMeters>
          </Trackpoint>
          <Trackpoint>
            <Time>2021-08-11T16:28:09.000Z</Time>
            <Position>
              <LatitudeDegrees>43.3255550824105739593505859375</LatitudeDegrees>
              <LongitudeDegrees>-1.919596977531909942626953125</LongitudeDegrees>
            </Position>
            <AltitudeMeters>11</AltitudeMeters>
            <DistanceMeters>NAN</DistanceMeters>
          </Trackpoint>
          <Trackpoint>
            <Time>2021-08-11T16:28:10.000Z</Time>
            <Position>
              <LatitudeDegrees>43.32556388340890407562255859375</LatitudeDegrees>
              <LongitudeDegrees>-1.9196095503866672515869140625</LongitudeDegrees>
            </Position>
            <AltitudeMeters>11</AltitudeMeters>
            <DistanceMeters>NAN</DistanceMeters>
          </Trackpoint>
          <Trackpoint>
            <Time>2021-08-11T16:28:11.000Z</Time>
            <Position>
              <LatitudeDegrees>43.3255668170750141143798828125</LatitudeDegrees>
              <LongitudeDegrees>-1.91962891258299350738525390625</LongitudeDegrees>
            </Position>
            <AltitudeMeters>11</AltitudeMeters>
            <DistanceMeters>NAN</DistanceMeters>
          </Trackpoint>
          <Trackpoint>
            <Time>2021-08-11T16:28:12.000Z</Time>
            <Position>
              <LatitudeDegrees>43.32556891255080699920654296875</LatitudeDegrees>
              <LongitudeDegrees>-1.9196400605142116546630859375</LongitudeDegrees>
            </Position>
            <AltitudeMeters>11</AltitudeMeters>
            <DistanceMeters>NAN</DistanceMeters>
          </Trackpoint>
          <Trackpoint>
            <Time>2021-08-11T16:28:13.000Z</Time>
            <Position>
              <LatitudeDegrees>43.32557427696883678436279296875</LatitudeDegrees>
              <LongitudeDegrees>-1.9196357019245624542236328125</LongitudeDegrees>
            </Position>
            <AltitudeMeters>11</AltitudeMeters>
            <DistanceMeters>NAN</DistanceMeters>
          </Trackpoint>
          <Trackpoint>
            <Time>2021-08-11T16:28:14.000Z</Time>
            <Position>
              <LatitudeDegrees>43.32557695917785167694091796875</LatitudeDegrees>
              <LongitudeDegrees>-1.91963377408683300018310546875</LongitudeDegrees>
            </Position>
            <AltitudeMeters>11</AltitudeMeters>
            <DistanceMeters>NAN</DistanceMeters>
          </Trackpoint>
          <Trackpoint>
            <Time>2021-08-11T16:28:15.000Z</Time>
            <Position>
              <LatitudeDegrees>43.32558316178619861602783203125</LatitudeDegrees>
              <LongitudeDegrees>-1.91962958313524723052978515625</LongitudeDegrees>
            </Position>
            <AltitudeMeters>11</AltitudeMeters>
            <DistanceMeters>NAN</DistanceMeters>
          </Trackpoint>
          <Trackpoint>
            <Time>2021-08-11T16:28:17.000Z</Time>
            <Position>
              <LatitudeDegrees>43.3255845867097377777099609375</LatitudeDegrees>
              <LongitudeDegrees>-1.91963125951588153839111328125</LongitudeDegrees>
            </Position>
            <AltitudeMeters>11</AltitudeMeters>
            <DistanceMeters>NAN</DistanceMeters>
          </Trackpoint>
          <Trackpoint>
            <Time>2021-08-11T16:28:18.000Z</Time>
            <Position>
              <LatitudeDegrees>43.32558332942426204681396484375</LatitudeDegrees>
              <LongitudeDegrees>-1.91963762976229190826416015625</LongitudeDegrees>
            </Position>
            <AltitudeMeters>11</AltitudeMeters>
            <DistanceMeters>NAN</DistanceMeters>
          </Trackpoint>
          <Trackpoint>
            <Time>2021-08-11T16:28:19.000Z</Time>
            <Position>
              <LatitudeDegrees>43.32557343877851963043212890625</LatitudeDegrees>
              <LongitudeDegrees>-1.91965154372155666351318359375</LongitudeDegrees>
            </Position>
            <AltitudeMeters>11</AltitudeMeters>
            <DistanceMeters>NAN</DistanceMeters>
          </Trackpoint>
          <Trackpoint>
            <Time>2021-08-11T16:28:21.000Z</Time>
            <Position>
              <LatitudeDegrees>43.32559942267835140228271484375</LatitudeDegrees>
              <LongitudeDegrees>-1.91967216320335865020751953125</LongitudeDegrees>
            </Position>
            <AltitudeMeters>10.80000019073486328125</AltitudeMeters>
            <DistanceMeters>NAN</DistanceMeters>
          </Trackpoint>
          <Trackpoint>
            <Time>2021-08-11T16:28:22.000Z</Time>
            <Position>
              <LatitudeDegrees>43.32560981623828411102294921875</LatitudeDegrees>
              <LongitudeDegrees>-1.91969521343708038330078125</LongitudeDegrees>
            </Position>
            <AltitudeMeters>10.80000019073486328125</AltitudeMeters>
            <DistanceMeters>NAN</DistanceMeters>
          </Trackpoint>
          <Trackpoint>
            <Time>2021-08-11T16:28:23.000Z</Time>
            <Position>
              <LatitudeDegrees>43.32560445182025432586669921875</LatitudeDegrees>
              <LongitudeDegrees>-1.91972329281270503997802734375</LongitudeDegrees>
            </Position>
            <AltitudeMeters>10.80000019073486328125</AltitudeMeters>
            <DistanceMeters>NAN</DistanceMeters>
          </Trackpoint>
          <Trackpoint>
            <Time>2021-08-11T16:28:24.000Z</Time>
            <Position>
              <LatitudeDegrees>43.32560956478118896484375</LatitudeDegrees>
              <LongitudeDegrees>-1.91972396336495876312255859375</LongitudeDegrees>
            </Position>
            <AltitudeMeters>10.80000019073486328125</AltitudeMeters>
            <DistanceMeters>NAN</DistanceMeters>
          </Trackpoint>
          <Trackpoint>
            <Time>2021-08-11T16:28:25.000Z</Time>
            <Position>
              <LatitudeDegrees>43.32561065442860126495361328125</LatitudeDegrees>
              <LongitudeDegrees>-1.91972848959267139434814453125</LongitudeDegrees>
            </Position>
            <AltitudeMeters>10.80000019073486328125</AltitudeMeters>
            <DistanceMeters>NAN</DistanceMeters>
          </Trackpoint>
          <Trackpoint>
            <Time>2021-08-11T16:28:26.000Z</Time>
            <Position>
              <LatitudeDegrees>43.32560763694345951080322265625</LatitudeDegrees>
              <LongitudeDegrees>-1.9197476841509342193603515625</LongitudeDegrees>
            </Position>
            <AltitudeMeters>10.6000003814697265625</AltitudeMeters>
            <DistanceMeters>NAN</DistanceMeters>
          </Trackpoint>
          <Trackpoint>
            <Time>2021-08-11T16:28:27.000Z</Time>
            <Position>
              <LatitudeDegrees>43.3256090618669986724853515625</LatitudeDegrees>
              <LongitudeDegrees>-1.9197453372180461883544921875</LongitudeDegrees>
            </Position>
            <AltitudeMeters>10.6000003814697265625</AltitudeMeters>
            <DistanceMeters>NAN</DistanceMeters>
          </Trackpoint>
          <Trackpoint>
            <Time>2021-08-11T16:28:28.000Z</Time>
            <Position>
              <LatitudeDegrees>43.3256181143224239349365234375</LatitudeDegrees>
              <LongitudeDegrees>-1.9197533838450908660888671875</LongitudeDegrees>
            </Position>
            <AltitudeMeters>10.6000003814697265625</AltitudeMeters>
            <DistanceMeters>NAN</DistanceMeters>
          </Trackpoint>
          <Trackpoint>
            <Time>2021-08-11T16:28:29.000Z</Time>
            <Position>
              <LatitudeDegrees>43.32562993280589580535888671875</LatitudeDegrees>
              <LongitudeDegrees>-1.9197476841509342193603515625</LongitudeDegrees>
            </Position>
            <AltitudeMeters>10.6000003814697265625</AltitudeMeters>
            <DistanceMeters>NAN</DistanceMeters>
          </Trackpoint>
          <Trackpoint>
            <Time>2021-08-11T16:28:31.000Z</Time>
            <Position>
              <LatitudeDegrees>43.3256794698536396026611328125</LatitudeDegrees>
              <LongitudeDegrees>-1.91971709020435810089111328125</LongitudeDegrees>
            </Position>
            <AltitudeMeters>10.6000003814697265625</AltitudeMeters>
            <DistanceMeters>NAN</DistanceMeters>
          </Trackpoint>
          <Trackpoint>
            <Time>2021-08-11T16:28:32.000Z</Time>
            <Position>
              <LatitudeDegrees>43.3257357962429523468017578125</LatitudeDegrees>
              <LongitudeDegrees>-1.919655315577983856201171875</LongitudeDegrees>
            </Position>
            <AltitudeMeters>10.6000003814697265625</AltitudeMeters>
            <DistanceMeters>NAN</DistanceMeters>
          </Trackpoint>
          <Trackpoint>
            <Time>2021-08-11T16:28:33.000Z</Time>
            <Position>
              <LatitudeDegrees>43.32574141211807727813720703125</LatitudeDegrees>
              <LongitudeDegrees>-1.9196611829102039337158203125</LongitudeDegrees>
            </Position>
            <AltitudeMeters>10.6000003814697265625</AltitudeMeters>
            <DistanceMeters>NAN</DistanceMeters>
          </Trackpoint>
          <Trackpoint>
            <Time>2021-08-11T16:28:34.000Z</Time>
            <Position>
              <LatitudeDegrees>43.3257431723177433013916015625</LatitudeDegrees>
              <LongitudeDegrees>-1.9196605123579502105712890625</LongitudeDegrees>
            </Position>
            <AltitudeMeters>10.80000019073486328125</AltitudeMeters>
            <DistanceMeters>NAN</DistanceMeters>
          </Trackpoint>
          <Trackpoint>
            <Time>2021-08-11T16:28:36.000Z</Time>
            <Position>
              <LatitudeDegrees>43.32573705352842807769775390625</LatitudeDegrees>
              <LongitudeDegrees>-1.919674761593341827392578125</LongitudeDegrees>
            </Position>
            <AltitudeMeters>11</AltitudeMeters>
            <DistanceMeters>NAN</DistanceMeters>
          </Trackpoint>
          <Trackpoint>
            <Time>2021-08-11T16:28:37.000Z</Time>
            <Position>
              <LatitudeDegrees>43.3257445134222507476806640625</LatitudeDegrees>
              <LongitudeDegrees>-1.9196648709475994110107421875</LongitudeDegrees>
            </Position>
            <AltitudeMeters>11</AltitudeMeters>
            <DistanceMeters>NAN</DistanceMeters>
          </Trackpoint>
          <Trackpoint>
            <Time>2021-08-11T16:28:38.000Z</Time>
            <Position>
              <LatitudeDegrees>43.3257539011538028717041015625</LatitudeDegrees>
              <LongitudeDegrees>-1.9196454249322414398193359375</LongitudeDegrees>
            </Position>
            <AltitudeMeters>11</AltitudeMeters>
            <DistanceMeters>NAN</DistanceMeters>
          </Trackpoint>
          <Trackpoint>
            <Time>2021-08-11T16:28:39.000Z</Time>
            <Position>
              <LatitudeDegrees>43.32575281150639057159423828125</LatitudeDegrees>
              <LongitudeDegrees>-1.91965162754058837890625</LongitudeDegrees>
            </Position>
            <AltitudeMeters>11</AltitudeMeters>
            <DistanceMeters>NAN</DistanceMeters>
          </Trackpoint>
          <Trackpoint>
            <Time>2021-08-11T16:28:40.000Z</Time>
            <Position>
              <LatitudeDegrees>43.3257528953254222869873046875</LatitudeDegrees>
              <LongitudeDegrees>-1.91965992562472820281982421875</LongitudeDegrees>
            </Position>
            <AltitudeMeters>11.19999980926513671875</AltitudeMeters>
            <DistanceMeters>NAN</DistanceMeters>
          </Trackpoint>
          <Trackpoint>
            <Time>2021-08-11T16:28:41.000Z</Time>
            <Position>
              <LatitudeDegrees>43.32574409432709217071533203125</LatitudeDegrees>
              <LongitudeDegrees>-1.919676773250102996826171875</LongitudeDegrees>
            </Position>
            <AltitudeMeters>11.19999980926513671875</AltitudeMeters>
            <DistanceMeters>NAN</DistanceMeters>
          </Trackpoint>
          <Trackpoint>
            <Time>2021-08-11T16:28:48.000Z</Time>
            <Position>
              <LatitudeDegrees>43.32573839463293552398681640625</LatitudeDegrees>
              <LongitudeDegrees>-1.9196957163512706756591796875</LongitudeDegrees>
            </Position>
            <AltitudeMeters>11.3999996185302734375</AltitudeMeters>
            <DistanceMeters>NAN</DistanceMeters>
          </Trackpoint>
          <Trackpoint>
            <Time>2021-08-11T16:29:06.000Z</Time>
            <Position>
              <LatitudeDegrees>43.32600795663893222808837890625</LatitudeDegrees>
              <LongitudeDegrees>-1.9199173338711261749267578125</LongitudeDegrees>
            </Position>
            <AltitudeMeters>11.6000003814697265625</AltitudeMeters>
            <DistanceMeters>NAN</DistanceMeters>
          </Trackpoint>
          <Trackpoint>
            <Time>2021-08-11T16:29:08.000Z</Time>
            <Position>
              <LatitudeDegrees>43.3260315097868442535400390625</LatitudeDegrees>
              <LongitudeDegrees>-1.9199340976774692535400390625</LongitudeDegrees>
            </Position>
            <AltitudeMeters>11.6000003814697265625</AltitudeMeters>
            <DistanceMeters>NAN</DistanceMeters>
          </Trackpoint>
          <Trackpoint>
            <Time>2021-08-11T16:29:10.000Z</Time>
            <Position>
              <LatitudeDegrees>43.326092027127742767333984375</LatitudeDegrees>
              <LongitudeDegrees>-1.9198600016534328460693359375</LongitudeDegrees>
            </Position>
            <AltitudeMeters>11.3999996185302734375</AltitudeMeters>
            <DistanceMeters>NAN</DistanceMeters>
          </Trackpoint>
          <Trackpoint>
            <Time>2021-08-11T16:29:15.000Z</Time>
            <Position>
              <LatitudeDegrees>43.3260958828032016754150390625</LatitudeDegrees>
              <LongitudeDegrees>-1.9198764301836490631103515625</LongitudeDegrees>
            </Position>
            <AltitudeMeters>11.3999996185302734375</AltitudeMeters>
            <DistanceMeters>NAN</DistanceMeters>
          </Trackpoint>
          <Trackpoint>
            <Time>2021-08-11T16:29:17.000Z</Time>
            <Position>
              <LatitudeDegrees>43.32608574070036411285400390625</LatitudeDegrees>
              <LongitudeDegrees>-1.91992596723139286041259765625</LongitudeDegrees>
            </Position>
            <AltitudeMeters>11.3999996185302734375</AltitudeMeters>
            <DistanceMeters>NAN</DistanceMeters>
          </Trackpoint>
          <Trackpoint>
            <Time>2021-08-11T16:29:18.000Z</Time>
            <Position>
              <LatitudeDegrees>43.32609144039452075958251953125</LatitudeDegrees>
              <LongitudeDegrees>-1.91993267275393009185791015625</LongitudeDegrees>
            </Position>
            <AltitudeMeters>11.19999980926513671875</AltitudeMeters>
            <DistanceMeters>NAN</DistanceMeters>
          </Trackpoint>
          <Trackpoint>
            <Time>2021-08-11T16:29:19.000Z</Time>
            <Position>
              <LatitudeDegrees>43.32609848119318485260009765625</LatitudeDegrees>
              <LongitudeDegrees>-1.919944323599338531494140625</LongitudeDegrees>
            </Position>
            <AltitudeMeters>11</AltitudeMeters>
            <DistanceMeters>NAN</DistanceMeters>
          </Trackpoint>
          <Trackpoint>
            <Time>2021-08-11T16:29:20.000Z</Time>
            <Position>
              <LatitudeDegrees>43.32610568962991237640380859375</LatitudeDegrees>
              <LongitudeDegrees>-1.9199542142450809478759765625</LongitudeDegrees>
            </Position>
            <AltitudeMeters>11</AltitudeMeters>
            <DistanceMeters>NAN</DistanceMeters>
          </Trackpoint>
          <Trackpoint>
            <Time>2021-08-11T16:29:21.000Z</Time>
            <Position>
              <LatitudeDegrees>43.326108455657958984375</LatitudeDegrees>
              <LongitudeDegrees>-1.91996469162404537200927734375</LongitudeDegrees>
            </Position>
            <AltitudeMeters>10.80000019073486328125</AltitudeMeters>
            <DistanceMeters>NAN</DistanceMeters>
          </Trackpoint>
          <Trackpoint>
            <Time>2021-08-11T16:29:22.000Z</Time>
            <Position>
              <LatitudeDegrees>43.3261076174676418304443359375</LatitudeDegrees>
              <LongitudeDegrees>-1.9199775159358978271484375</LongitudeDegrees>
            </Position>
            <AltitudeMeters>10.6000003814697265625</AltitudeMeters>
            <DistanceMeters>NAN</DistanceMeters>
          </Trackpoint>
          <Trackpoint>
            <Time>2021-08-11T16:29:23.000Z</Time>
            <Position>
              <LatitudeDegrees>43.32610468380153179168701171875</LatitudeDegrees>
              <LongitudeDegrees>-1.91998698748648166656494140625</LongitudeDegrees>
            </Position>
            <AltitudeMeters>10.6000003814697265625</AltitudeMeters>
            <DistanceMeters>NAN</DistanceMeters>
          </Trackpoint>
          <Trackpoint>
            <Time>2021-08-11T16:29:24.000Z</Time>
            <Position>
              <LatitudeDegrees>43.3261015824973583221435546875</LatitudeDegrees>
              <LongitudeDegrees>-1.9199974648654460906982421875</LongitudeDegrees>
            </Position>
            <AltitudeMeters>10.3999996185302734375</AltitudeMeters>
            <DistanceMeters>NAN</DistanceMeters>
          </Trackpoint>
          <Trackpoint>
            <Time>2021-08-11T16:29:25.000Z</Time>
            <Position>
              <LatitudeDegrees>43.32610778510570526123046875</LatitudeDegrees>
              <LongitudeDegrees>-1.920010037720203399658203125</LongitudeDegrees>
            </Position>
            <AltitudeMeters>10.3999996185302734375</AltitudeMeters>
            <DistanceMeters>NAN</DistanceMeters>
          </Trackpoint>
          <Trackpoint>
            <Time>2021-08-11T16:29:29.000Z</Time>
            <Position>
              <LatitudeDegrees>43.32614994607865810394287109375</LatitudeDegrees>
              <LongitudeDegrees>-1.92000542767345905303955078125</LongitudeDegrees>
            </Position>
            <AltitudeMeters>10.19999980926513671875</AltitudeMeters>
            <DistanceMeters>NAN</DistanceMeters>
          </Trackpoint>
          <Trackpoint>
            <Time>2021-08-11T16:29:30.000Z</Time>
            <Position>
              <LatitudeDegrees>43.32615715451538562774658203125</LatitudeDegrees>
              <LongitudeDegrees>-1.92001280374825000762939453125</LongitudeDegrees>
            </Position>
            <AltitudeMeters>10.19999980926513671875</AltitudeMeters>
            <DistanceMeters>NAN</DistanceMeters>
          </Trackpoint>
          <Trackpoint>
            <Time>2021-08-11T16:29:31.000Z</Time>
            <Position>
              <LatitudeDegrees>43.326164782047271728515625</LatitudeDegrees>
              <LongitudeDegrees>-1.9200262986123561859130859375</LongitudeDegrees>
            </Position>
            <AltitudeMeters>10.19999980926513671875</AltitudeMeters>
            <DistanceMeters>NAN</DistanceMeters>
          </Trackpoint>
          <Trackpoint>
            <Time>2021-08-11T16:29:32.000Z</Time>
            <Position>
              <LatitudeDegrees>43.32617341540753841400146484375</LatitudeDegrees>
              <LongitudeDegrees>-1.92003476433455944061279296875</LongitudeDegrees>
            </Position>
            <AltitudeMeters>10.19999980926513671875</AltitudeMeters>
            <DistanceMeters>NAN</DistanceMeters>
          </Trackpoint>
          <Trackpoint>
            <Time>2021-08-11T16:29:33.000Z</Time>
            <Position>
              <LatitudeDegrees>43.32618598826229572296142578125</LatitudeDegrees>
              <LongitudeDegrees>-1.92001464776694774627685546875</LongitudeDegrees>
            </Position>
            <AltitudeMeters>10.19999980926513671875</AltitudeMeters>
            <DistanceMeters>NAN</DistanceMeters>
          </Trackpoint>
          <Trackpoint>
            <Time>2021-08-11T16:29:34.000Z</Time>
            <Position>
              <LatitudeDegrees>43.32619051449000835418701171875</LatitudeDegrees>
              <LongitudeDegrees>-1.92000576294958591461181640625</LongitudeDegrees>
            </Position>
            <AltitudeMeters>10.19999980926513671875</AltitudeMeters>
            <DistanceMeters>NAN</DistanceMeters>
          </Trackpoint>
          <Trackpoint>
            <Time>2021-08-11T16:29:35.000Z</Time>
            <Position>
              <LatitudeDegrees>43.3261968009173870086669921875</LatitudeDegrees>
              <LongitudeDegrees>-1.919995285570621490478515625</LongitudeDegrees>
            </Position>
            <AltitudeMeters>10.19999980926513671875</AltitudeMeters>
            <DistanceMeters>NAN</DistanceMeters>
          </Trackpoint>
          <Trackpoint>
            <Time>2021-08-11T16:29:36.000Z</Time>
            <Position>
              <LatitudeDegrees>43.32620426081120967864990234375</LatitudeDegrees>
              <LongitudeDegrees>-1.91997642628848552703857421875</LongitudeDegrees>
            </Position>
            <AltitudeMeters>10.19999980926513671875</AltitudeMeters>
            <DistanceMeters>NAN</DistanceMeters>
          </Trackpoint>
          <Trackpoint>
            <Time>2021-08-11T16:29:37.000Z</Time>
            <Position>
              <LatitudeDegrees>43.326207362115383148193359375</LatitudeDegrees>
              <LongitudeDegrees>-1.91997324116528034210205078125</LongitudeDegrees>
            </Position>
            <AltitudeMeters>10.19999980926513671875</AltitudeMeters>
            <DistanceMeters>NAN</DistanceMeters>
          </Trackpoint>
          <Trackpoint>
            <Time>2021-08-11T16:29:46.000Z</Time>
            <Position>
              <LatitudeDegrees>43.326238207519054412841796875</LatitudeDegrees>
              <LongitudeDegrees>-1.91997148096561431884765625</LongitudeDegrees>
            </Position>
            <AltitudeMeters>10.19999980926513671875</AltitudeMeters>
            <DistanceMeters>NAN</DistanceMeters>
          </Trackpoint>
          <Trackpoint>
            <Time>2021-08-11T16:29:47.000Z</Time>
            <Position>
              <LatitudeDegrees>43.32624298520386219024658203125</LatitudeDegrees>
              <LongitudeDegrees>-1.9199669547379016876220703125</LongitudeDegrees>
            </Position>
            <AltitudeMeters>10.19999980926513671875</AltitudeMeters>
            <DistanceMeters>NAN</DistanceMeters>
          </Trackpoint>
          <Trackpoint>
            <Time>2021-08-11T16:29:49.000Z</Time>
            <Position>
              <LatitudeDegrees>43.3262444101274013519287109375</LatitudeDegrees>
              <LongitudeDegrees>-1.91996485926210880279541015625</LongitudeDegrees>
            </Position>
            <AltitudeMeters>10.19999980926513671875</AltitudeMeters>
            <DistanceMeters>NAN</DistanceMeters>
          </Trackpoint>
          <Trackpoint>
            <Time>2021-08-11T16:37:16.000Z</Time>
            <Position>
              <LatitudeDegrees>43.32629428245127201080322265625</LatitudeDegrees>
              <LongitudeDegrees>-1.92004934884607791900634765625</LongitudeDegrees>
            </Position>
            <AltitudeMeters>11</AltitudeMeters>
            <DistanceMeters>NAN</DistanceMeters>
          </Trackpoint>
          <Trackpoint>
            <Time>2021-08-11T16:38:20.000Z</Time>
            <Position>
              <LatitudeDegrees>43.32628875039517879486083984375</LatitudeDegrees>
              <LongitudeDegrees>-1.92004918120801448822021484375</LongitudeDegrees>
            </Position>
            <AltitudeMeters>11</AltitudeMeters>
            <DistanceMeters>NAN</DistanceMeters>
          </Trackpoint>
          <Trackpoint>
            <Time>2021-08-11T16:38:24.000Z</Time>
            <Position>
              <LatitudeDegrees>43.32628858275711536407470703125</LatitudeDegrees>
              <LongitudeDegrees>-1.92004918120801448822021484375</LongitudeDegrees>
            </Position>
            <AltitudeMeters>11</AltitudeMeters>
            <DistanceMeters>NAN</DistanceMeters>
          </Trackpoint>
          <Trackpoint>
            <Time>2021-08-11T16:56:31.000Z</Time>
            <Position>
              <LatitudeDegrees>43.32646720111370086669921875</LatitudeDegrees>
              <LongitudeDegrees>-1.92163889296352863311767578125</LongitudeDegrees>
            </Position>
            <AltitudeMeters>12</AltitudeMeters>
            <DistanceMeters>NAN</DistanceMeters>
          </Trackpoint>
          <Trackpoint>
            <Time>2021-08-11T16:56:40.000Z</Time>
            <Position>
              <LatitudeDegrees>43.32643325440585613250732421875</LatitudeDegrees>
              <LongitudeDegrees>-1.92164115607738494873046875</LongitudeDegrees>
            </Position>
            <AltitudeMeters>11.80000019073486328125</AltitudeMeters>
            <DistanceMeters>NAN</DistanceMeters>
          </Trackpoint>
          <Trackpoint>
            <Time>2021-08-11T16:56:48.000Z</Time>
            <Position>
              <LatitudeDegrees>43.32642696797847747802734375</LatitudeDegrees>
              <LongitudeDegrees>-1.921643503010272979736328125</LongitudeDegrees>
            </Position>
            <AltitudeMeters>11.80000019073486328125</AltitudeMeters>
            <DistanceMeters>NAN</DistanceMeters>
          </Trackpoint>
          <Trackpoint>
            <Time>2021-08-11T16:57:25.000Z</Time>
            <Position>
              <LatitudeDegrees>43.3264321647584438323974609375</LatitudeDegrees>
              <LongitudeDegrees>-1.92159463651478290557861328125</LongitudeDegrees>
            </Position>
            <AltitudeMeters>12.19999980926513671875</AltitudeMeters>
            <DistanceMeters>NAN</DistanceMeters>
          </Trackpoint>
          <Trackpoint>
            <Time>2021-08-11T16:57:27.000Z</Time>
            <Position>
              <LatitudeDegrees>43.326434679329395294189453125</LatitudeDegrees>
              <LongitudeDegrees>-1.92158482968807220458984375</LongitudeDegrees>
            </Position>
            <AltitudeMeters>12.19999980926513671875</AltitudeMeters>
            <DistanceMeters>NAN</DistanceMeters>
          </Trackpoint>
          <Trackpoint>
            <Time>2021-08-11T16:57:36.000Z</Time>
            <Position>
              <LatitudeDegrees>43.32642428576946258544921875</LatitudeDegrees>
              <LongitudeDegrees>-1.92159363068640232086181640625</LongitudeDegrees>
            </Position>
            <AltitudeMeters>12</AltitudeMeters>
            <DistanceMeters>NAN</DistanceMeters>
          </Trackpoint>
          <Trackpoint>
            <Time>2021-08-11T16:57:39.000Z</Time>
            <Position>
              <LatitudeDegrees>43.32642302848398685455322265625</LatitudeDegrees>
              <LongitudeDegrees>-1.9215975701808929443359375</LongitudeDegrees>
            </Position>
            <AltitudeMeters>12</AltitudeMeters>
            <DistanceMeters>NAN</DistanceMeters>
          </Trackpoint>
          <Trackpoint>
            <Time>2021-08-11T16:57:42.000Z</Time>
            <Position>
              <LatitudeDegrees>43.3263941109180450439453125</LatitudeDegrees>
              <LongitudeDegrees>-1.92166102118790149688720703125</LongitudeDegrees>
            </Position>
            <AltitudeMeters>12.19999980926513671875</AltitudeMeters>
            <DistanceMeters>NAN</DistanceMeters>
          </Trackpoint>
          <Trackpoint>
            <Time>2021-08-11T16:57:43.000Z</Time>
            <Position>
              <LatitudeDegrees>43.32637391053140163421630859375</LatitudeDegrees>
              <LongitudeDegrees>-1.92167459987103939056396484375</LongitudeDegrees>
            </Position>
            <AltitudeMeters>12.19999980926513671875</AltitudeMeters>
            <DistanceMeters>NAN</DistanceMeters>
          </Trackpoint>
          <Trackpoint>
            <Time>2021-08-11T16:57:46.000Z</Time>
            <Position>
              <LatitudeDegrees>43.32630853168666362762451171875</LatitudeDegrees>
              <LongitudeDegrees>-1.921687424182891845703125</LongitudeDegrees>
            </Position>
            <AltitudeMeters>12.19999980926513671875</AltitudeMeters>
            <DistanceMeters>NAN</DistanceMeters>
          </Trackpoint>
          <Trackpoint>
            <Time>2021-08-11T16:57:47.000Z</Time>
            <Position>
              <LatitudeDegrees>43.32629419863224029541015625</LatitudeDegrees>
              <LongitudeDegrees>-1.92169354297220706939697265625</LongitudeDegrees>
            </Position>
            <AltitudeMeters>12.19999980926513671875</AltitudeMeters>
            <DistanceMeters>NAN</DistanceMeters>
          </Trackpoint>
          <Trackpoint>
            <Time>2021-08-11T16:57:48.000Z</Time>
            <Position>
              <LatitudeDegrees>43.3262792788445949554443359375</LatitudeDegrees>
              <LongitudeDegrees>-1.9217050261795520782470703125</LongitudeDegrees>
            </Position>
            <AltitudeMeters>12.19999980926513671875</AltitudeMeters>
            <DistanceMeters>NAN</DistanceMeters>
          </Trackpoint>
          <Trackpoint>
            <Time>2021-08-11T16:57:49.000Z</Time>
            <Position>
              <LatitudeDegrees>43.32626469433307647705078125</LatitudeDegrees>
              <LongitudeDegrees>-1.9217103905975818634033203125</LongitudeDegrees>
            </Position>
            <AltitudeMeters>12.19999980926513671875</AltitudeMeters>
            <DistanceMeters>NAN</DistanceMeters>
          </Trackpoint>
          <Trackpoint>
            <Time>2021-08-11T16:57:50.000Z</Time>
            <Position>
              <LatitudeDegrees>43.3262519538402557373046875</LatitudeDegrees>
              <LongitudeDegrees>-1.92170510999858379364013671875</LongitudeDegrees>
            </Position>
            <AltitudeMeters>12.19999980926513671875</AltitudeMeters>
            <DistanceMeters>NAN</DistanceMeters>
          </Trackpoint>
          <Trackpoint>
            <Time>2021-08-11T16:57:51.000Z</Time>
            <Position>
              <LatitudeDegrees>43.326243571937084197998046875</LatitudeDegrees>
              <LongitudeDegrees>-1.92169723100960254669189453125</LongitudeDegrees>
            </Position>
            <AltitudeMeters>12.19999980926513671875</AltitudeMeters>
            <DistanceMeters>NAN</DistanceMeters>
          </Trackpoint>
          <Trackpoint>
            <Time>2021-08-11T16:57:56.000Z</Time>
            <Position>
              <LatitudeDegrees>43.326240219175815582275390625</LatitudeDegrees>
              <LongitudeDegrees>-1.9216922856867313385009765625</LongitudeDegrees>
            </Position>
            <AltitudeMeters>12.19999980926513671875</AltitudeMeters>
            <DistanceMeters>NAN</DistanceMeters>
          </Trackpoint>
          <Trackpoint>
            <Time>2021-08-11T16:58:08.000Z</Time>
            <Position>
              <LatitudeDegrees>43.3261768519878387451171875</LatitudeDegrees>
              <LongitudeDegrees>-1.9216906093060970306396484375</LongitudeDegrees>
            </Position>
            <AltitudeMeters>12</AltitudeMeters>
            <DistanceMeters>NAN</DistanceMeters>
          </Trackpoint>
          <Trackpoint>
            <Time>2021-08-11T16:58:09.000Z</Time>
            <Position>
              <LatitudeDegrees>43.3261672966182231903076171875</LatitudeDegrees>
              <LongitudeDegrees>-1.9216875918209552764892578125</LongitudeDegrees>
            </Position>
            <AltitudeMeters>12</AltitudeMeters>
            <DistanceMeters>NAN</DistanceMeters>
          </Trackpoint>
          <Trackpoint>
            <Time>2021-08-11T16:58:13.000Z</Time>
            <Position>
              <LatitudeDegrees>43.326158411800861358642578125</LatitudeDegrees>
              <LongitudeDegrees>-1.92168415524065494537353515625</LongitudeDegrees>
            </Position>
            <AltitudeMeters>12</AltitudeMeters>
            <DistanceMeters>NAN</DistanceMeters>
          </Trackpoint>
          <Trackpoint>
            <Time>2021-08-11T16:58:28.000Z</Time>
            <Position>
              <LatitudeDegrees>43.3261133171617984771728515625</LatitudeDegrees>
              <LongitudeDegrees>-1.92170108668506145477294921875</LongitudeDegrees>
            </Position>
            <AltitudeMeters>12.19999980926513671875</AltitudeMeters>
            <DistanceMeters>NAN</DistanceMeters>
          </Trackpoint>
          <Trackpoint>
            <Time>2021-08-11T16:58:29.000Z</Time>
            <Position>
              <LatitudeDegrees>43.32610200159251689910888671875</LatitudeDegrees>
              <LongitudeDegrees>-1.9217107258737087249755859375</LongitudeDegrees>
            </Position>
            <AltitudeMeters>12.19999980926513671875</AltitudeMeters>
            <DistanceMeters>NAN</DistanceMeters>
          </Trackpoint>
          <Trackpoint>
            <Time>2021-08-11T16:58:31.000Z</Time>
            <Position>
              <LatitudeDegrees>43.326072581112384796142578125</LatitudeDegrees>
              <LongitudeDegrees>-1.921732686460018157958984375</LongitudeDegrees>
            </Position>
            <AltitudeMeters>12.19999980926513671875</AltitudeMeters>
            <DistanceMeters>NAN</DistanceMeters>
          </Trackpoint>
          <Trackpoint>
            <Time>2021-08-11T16:58:35.000Z</Time>
            <Position>
              <LatitudeDegrees>43.32598934881389141082763671875</LatitudeDegrees>
              <LongitudeDegrees>-1.92179999314248561859130859375</LongitudeDegrees>
            </Position>
            <AltitudeMeters>12</AltitudeMeters>
            <DistanceMeters>NAN</DistanceMeters>
          </Trackpoint>
          <Trackpoint>
            <Time>2021-08-11T16:58:39.000Z</Time>
            <Position>
              <LatitudeDegrees>43.3258886821568012237548828125</LatitudeDegrees>
              <LongitudeDegrees>-1.92185967229306697845458984375</LongitudeDegrees>
            </Position>
            <AltitudeMeters>12</AltitudeMeters>
            <DistanceMeters>NAN</DistanceMeters>
          </Trackpoint>
          <Trackpoint>
            <Time>2021-08-11T16:58:41.000Z</Time>
            <Position>
              <LatitudeDegrees>43.3258383907377719879150390625</LatitudeDegrees>
              <LongitudeDegrees>-1.9218884222209453582763671875</LongitudeDegrees>
            </Position>
            <AltitudeMeters>12</AltitudeMeters>
            <DistanceMeters>NAN</DistanceMeters>
          </Trackpoint>
          <Trackpoint>
            <Time>2021-08-11T16:58:46.000Z</Time>
            <Position>
              <LatitudeDegrees>43.32573018036782741546630859375</LatitudeDegrees>
              <LongitudeDegrees>-1.9219574891030788421630859375</LongitudeDegrees>
            </Position>
            <AltitudeMeters>11.80000019073486328125</AltitudeMeters>
            <DistanceMeters>NAN</DistanceMeters>
          </Trackpoint>
          <Trackpoint>
            <Time>2021-08-11T16:58:47.000Z</Time>
            <Position>
              <LatitudeDegrees>43.32570889033377170562744140625</LatitudeDegrees>
              <LongitudeDegrees>-1.92197374999523162841796875</LongitudeDegrees>
            </Position>
            <AltitudeMeters>11.80000019073486328125</AltitudeMeters>
            <DistanceMeters>NAN</DistanceMeters>
          </Trackpoint>
          <Trackpoint>
            <Time>2021-08-11T16:58:48.000Z</Time>
            <Position>
              <LatitudeDegrees>43.325687348842620849609375</LatitudeDegrees>
              <LongitudeDegrees>-1.92199160344898700714111328125</LongitudeDegrees>
            </Position>
            <AltitudeMeters>11.80000019073486328125</AltitudeMeters>
            <DistanceMeters>NAN</DistanceMeters>
          </Trackpoint>
          <Trackpoint>
            <Time>2021-08-11T16:58:49.000Z</Time>
            <Position>
              <LatitudeDegrees>43.325664214789867401123046875</LatitudeDegrees>
              <LongitudeDegrees>-1.92201155237853527069091796875</LongitudeDegrees>
            </Position>
            <AltitudeMeters>11.80000019073486328125</AltitudeMeters>
            <DistanceMeters>NAN</DistanceMeters>
          </Trackpoint>
          <Trackpoint>
            <Time>2021-08-11T16:58:56.000Z</Time>
            <Position>
              <LatitudeDegrees>43.32551040686666965484619140625</LatitudeDegrees>
              <LongitudeDegrees>-1.92218740470707416534423828125</LongitudeDegrees>
            </Position>
            <AltitudeMeters>11.80000019073486328125</AltitudeMeters>
            <DistanceMeters>NAN</DistanceMeters>
          </Trackpoint>
          <Trackpoint>
            <Time>2021-08-11T16:59:02.000Z</Time>
            <Position>
              <LatitudeDegrees>43.32538534887135028839111328125</LatitudeDegrees>
              <LongitudeDegrees>-1.9224020652472972869873046875</LongitudeDegrees>
            </Position>
            <AltitudeMeters>11.80000019073486328125</AltitudeMeters>
            <DistanceMeters>NAN</DistanceMeters>
          </Trackpoint>
          <Trackpoint>
            <Time>2021-08-11T16:59:11.000Z</Time>
            <Position>
              <LatitudeDegrees>43.32523497752845287322998046875</LatitudeDegrees>
              <LongitudeDegrees>-1.92275351844727993011474609375</LongitudeDegrees>
            </Position>
            <AltitudeMeters>11.80000019073486328125</AltitudeMeters>
            <DistanceMeters>NAN</DistanceMeters>
          </Trackpoint>
          <Trackpoint>
            <Time>2021-08-11T16:59:18.000Z</Time>
            <Position>
              <LatitudeDegrees>43.32518317736685276031494140625</LatitudeDegrees>
              <LongitudeDegrees>-1.92307923920452594757080078125</LongitudeDegrees>
            </Position>
            <AltitudeMeters>11.80000019073486328125</AltitudeMeters>
            <DistanceMeters>NAN</DistanceMeters>
          </Trackpoint>
          <Trackpoint>
            <Time>2021-08-11T16:59:26.000Z</Time>
            <Position>
              <LatitudeDegrees>43.32513171248137950897216796875</LatitudeDegrees>
              <LongitudeDegrees>-1.92348374985158443450927734375</LongitudeDegrees>
            </Position>
            <AltitudeMeters>12</AltitudeMeters>
            <DistanceMeters>NAN</DistanceMeters>
          </Trackpoint>
          <Trackpoint>
            <Time>2021-08-11T16:59:34.000Z</Time>
            <Position>
              <LatitudeDegrees>43.32508611492812633514404296875</LatitudeDegrees>
              <LongitudeDegrees>-1.923856325447559356689453125</LongitudeDegrees>
            </Position>
            <AltitudeMeters>12</AltitudeMeters>
            <DistanceMeters>NAN</DistanceMeters>
          </Trackpoint>
          <Trackpoint>
            <Time>2021-08-11T16:59:38.000Z</Time>
            <Position>
              <LatitudeDegrees>43.32506499253213405609130859375</LatitudeDegrees>
              <LongitudeDegrees>-1.9240449182689189910888671875</LongitudeDegrees>
            </Position>
            <AltitudeMeters>12</AltitudeMeters>
            <DistanceMeters>NAN</DistanceMeters>
          </Trackpoint>
          <Trackpoint>
            <Time>2021-08-11T16:59:46.000Z</Time>
            <Position>
              <LatitudeDegrees>43.3250390924513339996337890625</LatitudeDegrees>
              <LongitudeDegrees>-1.92439788021147251129150390625</LongitudeDegrees>
            </Position>
            <AltitudeMeters>12</AltitudeMeters>
            <DistanceMeters>NAN</DistanceMeters>
          </Trackpoint>
          <Trackpoint>
            <Time>2021-08-11T16:59:47.000Z</Time>
            <Position>
              <LatitudeDegrees>43.32503934390842914581298828125</LatitudeDegrees>
              <LongitudeDegrees>-1.92444113083183765411376953125</LongitudeDegrees>
            </Position>
            <AltitudeMeters>12</AltitudeMeters>
            <DistanceMeters>NAN</DistanceMeters>
          </Trackpoint>
          <Trackpoint>
            <Time>2021-08-11T16:59:48.000Z</Time>
            <Position>
              <LatitudeDegrees>43.32504093647003173828125</LatitudeDegrees>
              <LongitudeDegrees>-1.92449108697474002838134765625</LongitudeDegrees>
            </Position>
            <AltitudeMeters>12</AltitudeMeters>
            <DistanceMeters>NAN</DistanceMeters>
          </Trackpoint>
          <Trackpoint>
            <Time>2021-08-11T16:59:49.000Z</Time>
            <Position>
              <LatitudeDegrees>43.3250422775745391845703125</LatitudeDegrees>
              <LongitudeDegrees>-1.92453199066221714019775390625</LongitudeDegrees>
            </Position>
            <AltitudeMeters>12</AltitudeMeters>
            <DistanceMeters>NAN</DistanceMeters>
          </Trackpoint>
          <Trackpoint>
            <Time>2021-08-11T16:59:50.000Z</Time>
            <Position>
              <LatitudeDegrees>43.3250427804887294769287109375</LatitudeDegrees>
              <LongitudeDegrees>-1.9245599023997783660888671875</LongitudeDegrees>
            </Position>
            <AltitudeMeters>12</AltitudeMeters>
            <DistanceMeters>NAN</DistanceMeters>
          </Trackpoint>
          <Trackpoint>
            <Time>2021-08-11T16:59:52.000Z</Time>
            <Position>
              <LatitudeDegrees>43.32504906691610813140869140625</LatitudeDegrees>
              <LongitudeDegrees>-1.9246323220431804656982421875</LongitudeDegrees>
            </Position>
            <AltitudeMeters>12</AltitudeMeters>
            <DistanceMeters>NAN</DistanceMeters>
          </Trackpoint>
          <Trackpoint>
            <Time>2021-08-11T16:59:53.000Z</Time>
            <Position>
              <LatitudeDegrees>43.32505560480058193206787109375</LatitudeDegrees>
              <LongitudeDegrees>-1.9246795959770679473876953125</LongitudeDegrees>
            </Position>
            <AltitudeMeters>12</AltitudeMeters>
            <DistanceMeters>NAN</DistanceMeters>
          </Trackpoint>
          <Trackpoint>
            <Time>2021-08-11T17:00:04.000Z</Time>
            <Position>
              <LatitudeDegrees>43.32512450404465198516845703125</LatitudeDegrees>
              <LongitudeDegrees>-1.925163231790065765380859375</LongitudeDegrees>
            </Position>
            <AltitudeMeters>11.80000019073486328125</AltitudeMeters>
            <DistanceMeters>NAN</DistanceMeters>
          </Trackpoint>
          <Trackpoint>
            <Time>2021-08-11T17:00:09.000Z</Time>
            <Position>
              <LatitudeDegrees>43.3251480571925640106201171875</LatitudeDegrees>
              <LongitudeDegrees>-1.9253850169479846954345703125</LongitudeDegrees>
            </Position>
            <AltitudeMeters>11.6000003814697265625</AltitudeMeters>
            <DistanceMeters>NAN</DistanceMeters>
          </Trackpoint>
          <Trackpoint>
            <Time>2021-08-11T17:00:10.000Z</Time>
            <Position>
              <LatitudeDegrees>43.32515317015349864959716796875</LatitudeDegrees>
              <LongitudeDegrees>-1.9254252500832080841064453125</LongitudeDegrees>
            </Position>
            <AltitudeMeters>11.6000003814697265625</AltitudeMeters>
            <DistanceMeters>NAN</DistanceMeters>
          </Trackpoint>
          <Trackpoint>
            <Time>2021-08-11T17:00:11.000Z</Time>
            <Position>
              <LatitudeDegrees>43.32515685819089412689208984375</LatitudeDegrees>
              <LongitudeDegrees>-1.9254628010094165802001953125</LongitudeDegrees>
            </Position>
            <AltitudeMeters>11.6000003814697265625</AltitudeMeters>
            <DistanceMeters>NAN</DistanceMeters>
          </Trackpoint>
          <Trackpoint>
            <Time>2021-08-11T17:00:12.000Z</Time>
            <Position>
              <LatitudeDegrees>43.3251602947711944580078125</LatitudeDegrees>
              <LongitudeDegrees>-1.92549540661275386810302734375</LongitudeDegrees>
            </Position>
            <AltitudeMeters>11.6000003814697265625</AltitudeMeters>
            <DistanceMeters>NAN</DistanceMeters>
          </Trackpoint>
          <Trackpoint>
            <Time>2021-08-11T17:00:13.000Z</Time>
            <Position>
              <LatitudeDegrees>43.3251638151705265045166015625</LatitudeDegrees>
              <LongitudeDegrees>-1.925528347492218017578125</LongitudeDegrees>
            </Position>
            <AltitudeMeters>11.6000003814697265625</AltitudeMeters>
            <DistanceMeters>NAN</DistanceMeters>
          </Trackpoint>
          <Trackpoint>
            <Time>2021-08-11T17:00:14.000Z</Time>
            <Position>
              <LatitudeDegrees>43.32516825757920742034912109375</LatitudeDegrees>
              <LongitudeDegrees>-1.92555558867752552032470703125</LongitudeDegrees>
            </Position>
            <AltitudeMeters>11.6000003814697265625</AltitudeMeters>
            <DistanceMeters>NAN</DistanceMeters>
          </Trackpoint>
          <Trackpoint>
            <Time>2021-08-11T17:00:15.000Z</Time>
            <Position>
              <LatitudeDegrees>43.32517110742628574371337890625</LatitudeDegrees>
              <LongitudeDegrees>-1.9255798123776912689208984375</LongitudeDegrees>
            </Position>
            <AltitudeMeters>11.6000003814697265625</AltitudeMeters>
            <DistanceMeters>NAN</DistanceMeters>
          </Trackpoint>
          <Trackpoint>
            <Time>2021-08-11T17:00:16.000Z</Time>
            <Position>
              <LatitudeDegrees>43.32517295144498348236083984375</LatitudeDegrees>
              <LongitudeDegrees>-1.92560520954430103302001953125</LongitudeDegrees>
            </Position>
            <AltitudeMeters>11.6000003814697265625</AltitudeMeters>
            <DistanceMeters>NAN</DistanceMeters>
          </Trackpoint>
          <Trackpoint>
            <Time>2021-08-11T17:00:17.000Z</Time>
            <Position>
              <LatitudeDegrees>43.3251750469207763671875</LatitudeDegrees>
              <LongitudeDegrees>-1.9256289303302764892578125</LongitudeDegrees>
            </Position>
            <AltitudeMeters>11.6000003814697265625</AltitudeMeters>
            <DistanceMeters>NAN</DistanceMeters>
          </Trackpoint>
          <Trackpoint>
            <Time>2021-08-11T17:00:20.000Z</Time>
            <Position>
              <LatitudeDegrees>43.32519114017486572265625</LatitudeDegrees>
              <LongitudeDegrees>-1.925717778503894805908203125</LongitudeDegrees>
            </Position>
            <AltitudeMeters>11.6000003814697265625</AltitudeMeters>
            <DistanceMeters>NAN</DistanceMeters>
          </Trackpoint>
          <Trackpoint>
            <Time>2021-08-11T17:00:21.000Z</Time>
            <Position>
              <LatitudeDegrees>43.3251953311264514923095703125</LatitudeDegrees>
              <LongitudeDegrees>-1.92574434913694858551025390625</LongitudeDegrees>
            </Position>
            <AltitudeMeters>11.80000019073486328125</AltitudeMeters>
            <DistanceMeters>NAN</DistanceMeters>
          </Trackpoint>
          <Trackpoint>
            <Time>2021-08-11T17:00:22.000Z</Time>
            <Position>
              <LatitudeDegrees>43.3251993544399738311767578125</LatitudeDegrees>
              <LongitudeDegrees>-1.925771422684192657470703125</LongitudeDegrees>
            </Position>
            <AltitudeMeters>11.80000019073486328125</AltitudeMeters>
            <DistanceMeters>NAN</DistanceMeters>
          </Trackpoint>
          <Trackpoint>
            <Time>2021-08-11T17:00:23.000Z</Time>
            <Position>
              <LatitudeDegrees>43.32520312629640102386474609375</LatitudeDegrees>
              <LongitudeDegrees>-1.9258000887930393218994140625</LongitudeDegrees>
            </Position>
            <AltitudeMeters>11.80000019073486328125</AltitudeMeters>
            <DistanceMeters>NAN</DistanceMeters>
          </Trackpoint>
          <Trackpoint>
            <Time>2021-08-11T17:00:24.000Z</Time>
            <Position>
              <LatitudeDegrees>43.325205557048320770263671875</LatitudeDegrees>
              <LongitudeDegrees>-1.92583370022475719451904296875</LongitudeDegrees>
            </Position>
            <AltitudeMeters>11.80000019073486328125</AltitudeMeters>
            <DistanceMeters>NAN</DistanceMeters>
          </Trackpoint>
          <Trackpoint>
            <Time>2021-08-11T17:00:30.000Z</Time>
            <Position>
              <LatitudeDegrees>43.32519021816551685333251953125</LatitudeDegrees>
              <LongitudeDegrees>-1.92602748982608318328857421875</LongitudeDegrees>
            </Position>
            <AltitudeMeters>12</AltitudeMeters>
            <DistanceMeters>NAN</DistanceMeters>
          </Trackpoint>
          <Trackpoint>
            <Time>2021-08-11T17:00:31.000Z</Time>
            <Position>
              <LatitudeDegrees>43.3251708559691905975341796875</LatitudeDegrees>
              <LongitudeDegrees>-1.9260512106120586395263671875</LongitudeDegrees>
            </Position>
            <AltitudeMeters>12</AltitudeMeters>
            <DistanceMeters>NAN</DistanceMeters>
          </Trackpoint>
          <Trackpoint>
            <Time>2021-08-11T17:00:34.000Z</Time>
            <Position>
              <LatitudeDegrees>43.32509751431643962860107421875</LatitudeDegrees>
              <LongitudeDegrees>-1.9260728359222412109375</LongitudeDegrees>
            </Position>
            <AltitudeMeters>12</AltitudeMeters>
            <DistanceMeters>NAN</DistanceMeters>
          </Trackpoint>
          <Trackpoint>
            <Time>2021-08-11T17:00:35.000Z</Time>
            <Position>
              <LatitudeDegrees>43.3250677585601806640625</LatitudeDegrees>
              <LongitudeDegrees>-1.92608281038701534271240234375</LongitudeDegrees>
            </Position>
            <AltitudeMeters>11.80000019073486328125</AltitudeMeters>
            <DistanceMeters>NAN</DistanceMeters>
          </Trackpoint>
          <Trackpoint>
            <Time>2021-08-11T17:00:37.000Z</Time>
            <Position>
              <LatitudeDegrees>43.3250149525701999664306640625</LatitudeDegrees>
              <LongitudeDegrees>-1.9261004962027072906494140625</LongitudeDegrees>
            </Position>
            <AltitudeMeters>11.80000019073486328125</AltitudeMeters>
            <DistanceMeters>NAN</DistanceMeters>
          </Trackpoint>
          <Trackpoint>
            <Time>2021-08-11T17:00:43.000Z</Time>
            <Position>
              <LatitudeDegrees>43.32484706304967403411865234375</LatitudeDegrees>
              <LongitudeDegrees>-1.926155984401702880859375</LongitudeDegrees>
            </Position>
            <AltitudeMeters>11.80000019073486328125</AltitudeMeters>
            <DistanceMeters>NAN</DistanceMeters>
          </Trackpoint>
          <Trackpoint>
            <Time>2021-08-11T17:00:49.000Z</Time>
            <Position>
              <LatitudeDegrees>43.3246640861034393310546875</LatitudeDegrees>
              <LongitudeDegrees>-1.9261916913092136383056640625</LongitudeDegrees>
            </Position>
            <AltitudeMeters>11.6000003814697265625</AltitudeMeters>
            <DistanceMeters>NAN</DistanceMeters>
          </Trackpoint>
          <Trackpoint>
            <Time>2021-08-11T17:00:55.000Z</Time>
            <Position>
              <LatitudeDegrees>43.3244530297815799713134765625</LatitudeDegrees>
              <LongitudeDegrees>-1.92625011317431926727294921875</LongitudeDegrees>
            </Position>
            <AltitudeMeters>11.6000003814697265625</AltitudeMeters>
            <DistanceMeters>NAN</DistanceMeters>
          </Trackpoint>
          <Trackpoint>
            <Time>2021-08-11T17:00:56.000Z</Time>
            <Position>
              <LatitudeDegrees>43.32441941834986209869384765625</LatitudeDegrees>
              <LongitudeDegrees>-1.9262594170868396759033203125</LongitudeDegrees>
            </Position>
            <AltitudeMeters>11.6000003814697265625</AltitudeMeters>
            <DistanceMeters>NAN</DistanceMeters>
          </Trackpoint>
          <Trackpoint>
            <Time>2021-08-11T17:01:02.000Z</Time>
            <Position>
              <LatitudeDegrees>43.324210457503795623779296875</LatitudeDegrees>
              <LongitudeDegrees>-1.92631088197231292724609375</LongitudeDegrees>
            </Position>
            <AltitudeMeters>11.6000003814697265625</AltitudeMeters>
            <DistanceMeters>NAN</DistanceMeters>
          </Trackpoint>
          <Trackpoint>
            <Time>2021-08-11T17:01:03.000Z</Time>
            <Position>
              <LatitudeDegrees>43.3241777680814266204833984375</LatitudeDegrees>
              <LongitudeDegrees>-1.92631758749485015869140625</LongitudeDegrees>
            </Position>
            <AltitudeMeters>11.6000003814697265625</AltitudeMeters>
            <DistanceMeters>NAN</DistanceMeters>
          </Trackpoint>
          <Trackpoint>
            <Time>2021-08-11T17:01:04.000Z</Time>
            <Position>
              <LatitudeDegrees>43.32414482720196247100830078125</LatitudeDegrees>
              <LongitudeDegrees>-1.92632270045578479766845703125</LongitudeDegrees>
            </Position>
            <AltitudeMeters>11.6000003814697265625</AltitudeMeters>
            <DistanceMeters>NAN</DistanceMeters>
          </Trackpoint>
          <Trackpoint>
            <Time>2021-08-11T17:01:05.000Z</Time>
            <Position>
              <LatitudeDegrees>43.324107192456722259521484375</LatitudeDegrees>
              <LongitudeDegrees>-1.9263308309018611907958984375</LongitudeDegrees>
            </Position>
            <AltitudeMeters>11.6000003814697265625</AltitudeMeters>
            <DistanceMeters>NAN</DistanceMeters>
          </Trackpoint>
          <Trackpoint>
            <Time>2021-08-11T17:01:06.000Z</Time>
            <Position>
              <LatitudeDegrees>43.32407441921532154083251953125</LatitudeDegrees>
              <LongitudeDegrees>-1.9263397157192230224609375</LongitudeDegrees>
            </Position>
            <AltitudeMeters>11.3999996185302734375</AltitudeMeters>
            <DistanceMeters>NAN</DistanceMeters>
          </Trackpoint>
          <Trackpoint>
            <Time>2021-08-11T17:01:07.000Z</Time>
            <Position>
              <LatitudeDegrees>43.3240413106977939605712890625</LatitudeDegrees>
              <LongitudeDegrees>-1.92634633742272853851318359375</LongitudeDegrees>
            </Position>
            <AltitudeMeters>11.3999996185302734375</AltitudeMeters>
            <DistanceMeters>NAN</DistanceMeters>
          </Trackpoint>
          <Trackpoint>
            <Time>2021-08-11T17:01:08.000Z</Time>
            <Position>
              <LatitudeDegrees>43.32400635816156864166259765625</LatitudeDegrees>
              <LongitudeDegrees>-1.9263546355068683624267578125</LongitudeDegrees>
            </Position>
            <AltitudeMeters>11.3999996185302734375</AltitudeMeters>
            <DistanceMeters>NAN</DistanceMeters>
          </Trackpoint>
          <Trackpoint>
            <Time>2021-08-11T17:01:09.000Z</Time>
            <Position>
              <LatitudeDegrees>43.3239719085395336151123046875</LatitudeDegrees>
              <LongitudeDegrees>-1.9263646937906742095947265625</LongitudeDegrees>
            </Position>
            <AltitudeMeters>11.3999996185302734375</AltitudeMeters>
            <DistanceMeters>NAN</DistanceMeters>
          </Trackpoint>
          <Trackpoint>
            <Time>2021-08-11T17:01:16.000Z</Time>
            <Position>
              <LatitudeDegrees>43.32374350167810916900634765625</LatitudeDegrees>
              <LongitudeDegrees>-1.9264659471809864044189453125</LongitudeDegrees>
            </Position>
            <AltitudeMeters>11.6000003814697265625</AltitudeMeters>
            <DistanceMeters>NAN</DistanceMeters>
          </Trackpoint>
          <Trackpoint>
            <Time>2021-08-11T17:01:20.000Z</Time>
            <Position>
              <LatitudeDegrees>43.32362003624439239501953125</LatitudeDegrees>
              <LongitudeDegrees>-1.92654959857463836669921875</LongitudeDegrees>
            </Position>
            <AltitudeMeters>11.6000003814697265625</AltitudeMeters>
            <DistanceMeters>NAN</DistanceMeters>
          </Trackpoint>
          <Trackpoint>
            <Time>2021-08-11T17:01:22.000Z</Time>
            <Position>
              <LatitudeDegrees>43.32356127910315990447998046875</LatitudeDegrees>
              <LongitudeDegrees>-1.92659293301403522491455078125</LongitudeDegrees>
            </Position>
            <AltitudeMeters>11.6000003814697265625</AltitudeMeters>
            <DistanceMeters>NAN</DistanceMeters>
          </Trackpoint>
          <Trackpoint>
            <Time>2021-08-11T17:01:23.000Z</Time>
            <Position>
              <LatitudeDegrees>43.32352724857628345489501953125</LatitudeDegrees>
              <LongitudeDegrees>-1.92662143148481845855712890625</LongitudeDegrees>
            </Position>
            <AltitudeMeters>11.6000003814697265625</AltitudeMeters>
            <DistanceMeters>NAN</DistanceMeters>
          </Trackpoint>
          <Trackpoint>
            <Time>2021-08-11T17:01:24.000Z</Time>
            <Position>
              <LatitudeDegrees>43.323498331010341644287109375</LatitudeDegrees>
              <LongitudeDegrees>-1.92664615809917449951171875</LongitudeDegrees>
            </Position>
            <AltitudeMeters>11.6000003814697265625</AltitudeMeters>
            <DistanceMeters>NAN</DistanceMeters>
          </Trackpoint>
          <Trackpoint>
            <Time>2021-08-11T17:01:25.000Z</Time>
            <Position>
              <LatitudeDegrees>43.32346983253955841064453125</LatitudeDegrees>
              <LongitudeDegrees>-1.92666954360902309417724609375</LongitudeDegrees>
            </Position>
            <AltitudeMeters>11.6000003814697265625</AltitudeMeters>
            <DistanceMeters>NAN</DistanceMeters>
          </Trackpoint>
          <Trackpoint>
            <Time>2021-08-11T17:01:31.000Z</Time>
            <Position>
              <LatitudeDegrees>43.32331418059766292572021484375</LatitudeDegrees>
              <LongitudeDegrees>-1.92684506066143512725830078125</LongitudeDegrees>
            </Position>
            <AltitudeMeters>11.6000003814697265625</AltitudeMeters>
            <DistanceMeters>NAN</DistanceMeters>
          </Trackpoint>
          <Trackpoint>
            <Time>2021-08-11T17:01:32.000Z</Time>
            <Position>
              <LatitudeDegrees>43.323292471468448638916015625</LatitudeDegrees>
              <LongitudeDegrees>-1.92687959410250186920166015625</LongitudeDegrees>
            </Position>
            <AltitudeMeters>11.6000003814697265625</AltitudeMeters>
            <DistanceMeters>NAN</DistanceMeters>
          </Trackpoint>
          <Trackpoint>
            <Time>2021-08-11T17:01:33.000Z</Time>
            <Position>
              <LatitudeDegrees>43.3232748694717884063720703125</LatitudeDegrees>
              <LongitudeDegrees>-1.9269125349819660186767578125</LongitudeDegrees>
            </Position>
            <AltitudeMeters>11.6000003814697265625</AltitudeMeters>
            <DistanceMeters>NAN</DistanceMeters>
          </Trackpoint>
          <Trackpoint>
            <Time>2021-08-11T17:01:35.000Z</Time>
            <Position>
              <LatitudeDegrees>43.32324293442070484161376953125</LatitudeDegrees>
              <LongitudeDegrees>-1.92697741091251373291015625</LongitudeDegrees>
            </Position>
            <AltitudeMeters>11.6000003814697265625</AltitudeMeters>
            <DistanceMeters>NAN</DistanceMeters>
          </Trackpoint>
          <Trackpoint>
            <Time>2021-08-11T17:01:36.000Z</Time>
            <Position>
              <LatitudeDegrees>43.3232255838811397552490234375</LatitudeDegrees>
              <LongitudeDegrees>-1.927011273801326751708984375</LongitudeDegrees>
            </Position>
            <AltitudeMeters>11.6000003814697265625</AltitudeMeters>
            <DistanceMeters>NAN</DistanceMeters>
          </Trackpoint>
          <Trackpoint>
            <Time>2021-08-11T17:01:37.000Z</Time>
            <Position>
              <LatitudeDegrees>43.3232091553509235382080078125</LatitudeDegrees>
              <LongitudeDegrees>-1.9270463101565837860107421875</LongitudeDegrees>
            </Position>
            <AltitudeMeters>11.6000003814697265625</AltitudeMeters>
            <DistanceMeters>NAN</DistanceMeters>
          </Trackpoint>
          <Trackpoint>
            <Time>2021-08-11T17:01:38.000Z</Time>
            <Position>
              <LatitudeDegrees>43.32319264300167560577392578125</LatitudeDegrees>
              <LongitudeDegrees>-1.9270831905305385589599609375</LongitudeDegrees>
            </Position>
            <AltitudeMeters>11.6000003814697265625</AltitudeMeters>
            <DistanceMeters>NAN</DistanceMeters>
          </Trackpoint>
          <Trackpoint>
            <Time>2021-08-11T17:01:40.000Z</Time>
            <Position>
              <LatitudeDegrees>43.32315609790384769439697265625</LatitudeDegrees>
              <LongitudeDegrees>-1.92716784775257110595703125</LongitudeDegrees>
            </Position>
            <AltitudeMeters>11.6000003814697265625</AltitudeMeters>
            <DistanceMeters>NAN</DistanceMeters>
          </Trackpoint>
          <Trackpoint>
            <Time>2021-08-11T17:01:43.000Z</Time>
            <Position>
              <LatitudeDegrees>43.32311712205410003662109375</LatitudeDegrees>
              <LongitudeDegrees>-1.92731327377259731292724609375</LongitudeDegrees>
            </Position>
            <AltitudeMeters>11.80000019073486328125</AltitudeMeters>
            <DistanceMeters>NAN</DistanceMeters>
          </Trackpoint>
          <Trackpoint>
            <Time>2021-08-11T17:01:44.000Z</Time>
            <Position>
              <LatitudeDegrees>43.3231079019606113433837890625</LatitudeDegrees>
              <LongitudeDegrees>-1.92734965123236179351806640625</LongitudeDegrees>
            </Position>
            <AltitudeMeters>11.80000019073486328125</AltitudeMeters>
            <DistanceMeters>NAN</DistanceMeters>
          </Trackpoint>
          <Trackpoint>
            <Time>2021-08-11T17:01:48.000Z</Time>
            <Position>
              <LatitudeDegrees>43.32305450923740863800048828125</LatitudeDegrees>
              <LongitudeDegrees>-1.92752164788544178009033203125</LongitudeDegrees>
            </Position>
            <AltitudeMeters>11.80000019073486328125</AltitudeMeters>
            <DistanceMeters>NAN</DistanceMeters>
          </Trackpoint>
          <Trackpoint>
            <Time>2021-08-11T17:01:49.000Z</Time>
            <Position>
              <LatitudeDegrees>43.3230435289442539215087890625</LatitudeDegrees>
              <LongitudeDegrees>-1.92756322212517261505126953125</LongitudeDegrees>
            </Position>
            <AltitudeMeters>11.80000019073486328125</AltitudeMeters>
            <DistanceMeters>NAN</DistanceMeters>
          </Trackpoint>
          <Trackpoint>
            <Time>2021-08-11T17:01:50.000Z</Time>
            <Position>
              <LatitudeDegrees>43.3230368234217166900634765625</LatitudeDegrees>
              <LongitudeDegrees>-1.92761636339128017425537109375</LongitudeDegrees>
            </Position>
            <AltitudeMeters>11.80000019073486328125</AltitudeMeters>
            <DistanceMeters>NAN</DistanceMeters>
          </Trackpoint>
          <Trackpoint>
            <Time>2021-08-11T17:01:52.000Z</Time>
            <Position>
              <LatitudeDegrees>43.32302198745310306549072265625</LatitudeDegrees>
              <LongitudeDegrees>-1.92772038280963897705078125</LongitudeDegrees>
            </Position>
            <AltitudeMeters>11.80000019073486328125</AltitudeMeters>
            <DistanceMeters>NAN</DistanceMeters>
          </Trackpoint>
          <Trackpoint>
            <Time>2021-08-11T17:01:53.000Z</Time>
            <Position>
              <LatitudeDegrees>43.32301796413958072662353515625</LatitudeDegrees>
              <LongitudeDegrees>-1.92776774056255817413330078125</LongitudeDegrees>
            </Position>
            <AltitudeMeters>11.80000019073486328125</AltitudeMeters>
            <DistanceMeters>NAN</DistanceMeters>
          </Trackpoint>
          <Trackpoint>
            <Time>2021-08-11T17:01:54.000Z</Time>
            <Position>
              <LatitudeDegrees>43.32301679067313671112060546875</LatitudeDegrees>
              <LongitudeDegrees>-1.92781032063066959381103515625</LongitudeDegrees>
            </Position>
            <AltitudeMeters>11.80000019073486328125</AltitudeMeters>
            <DistanceMeters>NAN</DistanceMeters>
          </Trackpoint>
          <Trackpoint>
            <Time>2021-08-11T17:01:55.000Z</Time>
            <Position>
              <LatitudeDegrees>43.3230160363018512725830078125</LatitudeDegrees>
              <LongitudeDegrees>-1.92784854210913181304931640625</LongitudeDegrees>
            </Position>
            <AltitudeMeters>11.80000019073486328125</AltitudeMeters>
            <DistanceMeters>NAN</DistanceMeters>
          </Trackpoint>
          <Trackpoint>
            <Time>2021-08-11T17:01:56.000Z</Time>
            <Position>
              <LatitudeDegrees>43.323010168969631195068359375</LatitudeDegrees>
              <LongitudeDegrees>-1.92788760177791118621826171875</LongitudeDegrees>
            </Position>
            <AltitudeMeters>11.80000019073486328125</AltitudeMeters>
            <DistanceMeters>NAN</DistanceMeters>
          </Trackpoint>
          <Trackpoint>
            <Time>2021-08-11T17:01:57.000Z</Time>
            <Position>
              <LatitudeDegrees>43.3230091631412506103515625</LatitudeDegrees>
              <LongitudeDegrees>-1.9279300980269908905029296875</LongitudeDegrees>
            </Position>
            <AltitudeMeters>11.80000019073486328125</AltitudeMeters>
            <DistanceMeters>NAN</DistanceMeters>
          </Trackpoint>
          <Trackpoint>
            <Time>2021-08-11T17:01:58.000Z</Time>
            <Position>
              <LatitudeDegrees>43.3230153657495975494384765625</LatitudeDegrees>
              <LongitudeDegrees>-1.92798198200762271881103515625</LongitudeDegrees>
            </Position>
            <AltitudeMeters>11.80000019073486328125</AltitudeMeters>
            <DistanceMeters>NAN</DistanceMeters>
          </Trackpoint>
          <Trackpoint>
            <Time>2021-08-11T17:01:59.000Z</Time>
            <Position>
              <LatitudeDegrees>43.32302114926278591156005859375</LatitudeDegrees>
              <LongitudeDegrees>-1.92803529091179370880126953125</LongitudeDegrees>
            </Position>
            <AltitudeMeters>11.80000019073486328125</AltitudeMeters>
            <DistanceMeters>NAN</DistanceMeters>
          </Trackpoint>
          <Trackpoint>
            <Time>2021-08-11T17:02:00.000Z</Time>
            <Position>
              <LatitudeDegrees>43.32303238101303577423095703125</LatitudeDegrees>
              <LongitudeDegrees>-1.9280846603214740753173828125</LongitudeDegrees>
            </Position>
            <AltitudeMeters>11.80000019073486328125</AltitudeMeters>
            <DistanceMeters>NAN</DistanceMeters>
          </Trackpoint>
          <Trackpoint>
            <Time>2021-08-11T17:02:01.000Z</Time>
            <Position>
              <LatitudeDegrees>43.32303757779300212860107421875</LatitudeDegrees>
              <LongitudeDegrees>-1.9281383045017719268798828125</LongitudeDegrees>
            </Position>
            <AltitudeMeters>11.80000019073486328125</AltitudeMeters>
            <DistanceMeters>NAN</DistanceMeters>
          </Trackpoint>
          <Trackpoint>
            <Time>2021-08-11T17:02:04.000Z</Time>
            <Position>
              <LatitudeDegrees>43.3230512402951717376708984375</LatitudeDegrees>
              <LongitudeDegrees>-1.92829932086169719696044921875</LongitudeDegrees>
            </Position>
            <AltitudeMeters>11.80000019073486328125</AltitudeMeters>
            <DistanceMeters>NAN</DistanceMeters>
          </Trackpoint>
          <Trackpoint>
            <Time>2021-08-11T17:02:09.000Z</Time>
            <Position>
              <LatitudeDegrees>43.32306792028248310089111328125</LatitudeDegrees>
              <LongitudeDegrees>-1.928520016372203826904296875</LongitudeDegrees>
            </Position>
            <AltitudeMeters>11.80000019073486328125</AltitudeMeters>
            <DistanceMeters>NAN</DistanceMeters>
          </Trackpoint>
          <Trackpoint>
            <Time>2021-08-11T17:02:10.000Z</Time>
            <Position>
              <LatitudeDegrees>43.323067836463451385498046875</LatitudeDegrees>
              <LongitudeDegrees>-1.92855991423130035400390625</LongitudeDegrees>
            </Position>
            <AltitudeMeters>11.80000019073486328125</AltitudeMeters>
            <DistanceMeters>NAN</DistanceMeters>
          </Trackpoint>
          <Trackpoint>
            <Time>2021-08-11T17:02:11.000Z</Time>
            <Position>
              <LatitudeDegrees>43.3230666629970073699951171875</LatitudeDegrees>
              <LongitudeDegrees>-1.92860492505133152008056640625</LongitudeDegrees>
            </Position>
            <AltitudeMeters>11.80000019073486328125</AltitudeMeters>
            <DistanceMeters>NAN</DistanceMeters>
          </Trackpoint>
          <Trackpoint>
            <Time>2021-08-11T17:02:19.000Z</Time>
            <Position>
              <LatitudeDegrees>43.323104716837406158447265625</LatitudeDegrees>
              <LongitudeDegrees>-1.9290287978947162628173828125</LongitudeDegrees>
            </Position>
            <AltitudeMeters>11.80000019073486328125</AltitudeMeters>
            <DistanceMeters>NAN</DistanceMeters>
          </Trackpoint>
          <Trackpoint>
            <Time>2021-08-11T17:02:20.000Z</Time>
            <Position>
              <LatitudeDegrees>43.32310915924608707427978515625</LatitudeDegrees>
              <LongitudeDegrees>-1.9290787540376186370849609375</LongitudeDegrees>
            </Position>
            <AltitudeMeters>11.6000003814697265625</AltitudeMeters>
            <DistanceMeters>NAN</DistanceMeters>
          </Trackpoint>
          <Trackpoint>
            <Time>2021-08-11T17:02:21.000Z</Time>
            <Position>
              <LatitudeDegrees>43.323108740150928497314453125</LatitudeDegrees>
              <LongitudeDegrees>-1.92912007682025432586669921875</LongitudeDegrees>
            </Position>
            <AltitudeMeters>11.6000003814697265625</AltitudeMeters>
            <DistanceMeters>NAN</DistanceMeters>
          </Trackpoint>
          <Trackpoint>
            <Time>2021-08-11T17:02:24.000Z</Time>
            <Position>
              <LatitudeDegrees>43.323108740150928497314453125</LatitudeDegrees>
              <LongitudeDegrees>-1.92927782423794269561767578125</LongitudeDegrees>
            </Position>
            <AltitudeMeters>11.3999996185302734375</AltitudeMeters>
            <DistanceMeters>NAN</DistanceMeters>
          </Trackpoint>
          <Trackpoint>
            <Time>2021-08-11T17:02:25.000Z</Time>
            <Position>
              <LatitudeDegrees>43.3231109194457530975341796875</LatitudeDegrees>
              <LongitudeDegrees>-1.9293238408863544464111328125</LongitudeDegrees>
            </Position>
            <AltitudeMeters>11.3999996185302734375</AltitudeMeters>
            <DistanceMeters>NAN</DistanceMeters>
          </Trackpoint>
          <Trackpoint>
            <Time>2021-08-11T17:02:26.000Z</Time>
            <Position>
              <LatitudeDegrees>43.3231062255799770355224609375</LatitudeDegrees>
              <LongitudeDegrees>-1.9293687678873538970947265625</LongitudeDegrees>
            </Position>
            <AltitudeMeters>11.3999996185302734375</AltitudeMeters>
            <DistanceMeters>NAN</DistanceMeters>
          </Trackpoint>
          <Trackpoint>
            <Time>2021-08-11T17:02:27.000Z</Time>
            <Position>
              <LatitudeDegrees>43.32310630939900875091552734375</LatitudeDegrees>
              <LongitudeDegrees>-1.92941411398351192474365234375</LongitudeDegrees>
            </Position>
            <AltitudeMeters>11.3999996185302734375</AltitudeMeters>
            <DistanceMeters>NAN</DistanceMeters>
          </Trackpoint>
          <Trackpoint>
            <Time>2021-08-11T17:02:28.000Z</Time>
            <Position>
              <LatitudeDegrees>43.323107063770294189453125</LatitudeDegrees>
              <LongitudeDegrees>-1.92945954389870166778564453125</LongitudeDegrees>
            </Position>
            <AltitudeMeters>11.80000019073486328125</AltitudeMeters>
            <DistanceMeters>NAN</DistanceMeters>
          </Trackpoint>
          <Trackpoint>
            <Time>2021-08-11T17:02:29.000Z</Time>
            <Position>
              <LatitudeDegrees>43.32310798577964305877685546875</LatitudeDegrees>
              <LongitudeDegrees>-1.929503381252288818359375</LongitudeDegrees>
            </Position>
            <AltitudeMeters>11.80000019073486328125</AltitudeMeters>
            <DistanceMeters>NAN</DistanceMeters>
          </Trackpoint>
          <Trackpoint>
            <Time>2021-08-11T17:02:30.000Z</Time>
            <Position>
              <LatitudeDegrees>43.3231085725128650665283203125</LatitudeDegrees>
              <LongitudeDegrees>-1.92954671569168567657470703125</LongitudeDegrees>
            </Position>
            <AltitudeMeters>11.80000019073486328125</AltitudeMeters>
            <DistanceMeters>NAN</DistanceMeters>
          </Trackpoint>
          <Trackpoint>
            <Time>2021-08-11T17:02:31.000Z</Time>
            <Position>
              <LatitudeDegrees>43.3231068961322307586669921875</LatitudeDegrees>
              <LongitudeDegrees>-1.92959122359752655029296875</LongitudeDegrees>
            </Position>
            <AltitudeMeters>11.80000019073486328125</AltitudeMeters>
            <DistanceMeters>NAN</DistanceMeters>
          </Trackpoint>
          <Trackpoint>
            <Time>2021-08-11T17:02:34.000Z</Time>
            <Position>
              <LatitudeDegrees>43.32310907542705535888671875</LatitudeDegrees>
              <LongitudeDegrees>-1.92973698489367961883544921875</LongitudeDegrees>
            </Position>
            <AltitudeMeters>12</AltitudeMeters>
            <DistanceMeters>NAN</DistanceMeters>
          </Trackpoint>
          <Trackpoint>
            <Time>2021-08-11T17:02:43.000Z</Time>
            <Position>
              <LatitudeDegrees>43.3231137692928314208984375</LatitudeDegrees>
              <LongitudeDegrees>-1.9301422499120235443115234375</LongitudeDegrees>
            </Position>
            <AltitudeMeters>12</AltitudeMeters>
            <DistanceMeters>NAN</DistanceMeters>
          </Trackpoint>
          <Trackpoint>
            <Time>2021-08-11T17:02:47.000Z</Time>
            <Position>
              <LatitudeDegrees>43.32312307320535182952880859375</LatitudeDegrees>
              <LongitudeDegrees>-1.93032556213438510894775390625</LongitudeDegrees>
            </Position>
            <AltitudeMeters>12</AltitudeMeters>
            <DistanceMeters>NAN</DistanceMeters>
          </Trackpoint>
          <Trackpoint>
            <Time>2021-08-11T17:02:48.000Z</Time>
            <Position>
              <LatitudeDegrees>43.3231156133115291595458984375</LatitudeDegrees>
              <LongitudeDegrees>-1.93037132732570171356201171875</LongitudeDegrees>
            </Position>
            <AltitudeMeters>12</AltitudeMeters>
            <DistanceMeters>NAN</DistanceMeters>
          </Trackpoint>
          <Trackpoint>
            <Time>2021-08-11T17:02:54.000Z</Time>
            <Position>
              <LatitudeDegrees>43.32308770157396793365478515625</LatitudeDegrees>
              <LongitudeDegrees>-1.93065145052969455718994140625</LongitudeDegrees>
            </Position>
            <AltitudeMeters>12.19999980926513671875</AltitudeMeters>
            <DistanceMeters>NAN</DistanceMeters>
          </Trackpoint>
          <Trackpoint>
            <Time>2021-08-11T17:02:55.000Z</Time>
            <Position>
              <LatitudeDegrees>43.32308686338365077972412109375</LatitudeDegrees>
              <LongitudeDegrees>-1.93069352768361568450927734375</LongitudeDegrees>
            </Position>
            <AltitudeMeters>12.19999980926513671875</AltitudeMeters>
            <DistanceMeters>NAN</DistanceMeters>
          </Trackpoint>
          <Trackpoint>
            <Time>2021-08-11T17:02:59.000Z</Time>
            <Position>
              <LatitudeDegrees>43.32304864190518856048583984375</LatitudeDegrees>
              <LongitudeDegrees>-1.930837444961071014404296875</LongitudeDegrees>
            </Position>
            <AltitudeMeters>12.19999980926513671875</AltitudeMeters>
            <DistanceMeters>NAN</DistanceMeters>
          </Trackpoint>
          <Trackpoint>
            <Time>2021-08-11T17:03:00.000Z</Time>
            <Position>
              <LatitudeDegrees>43.32304713316261768341064453125</LatitudeDegrees>
              <LongitudeDegrees>-1.93087591789662837982177734375</LongitudeDegrees>
            </Position>
            <AltitudeMeters>12.19999980926513671875</AltitudeMeters>
            <DistanceMeters>NAN</DistanceMeters>
          </Trackpoint>
          <Trackpoint>
            <Time>2021-08-11T17:03:01.000Z</Time>
            <Position>
              <LatitudeDegrees>43.32304914481937885284423828125</LatitudeDegrees>
              <LongitudeDegrees>-1.93092294037342071533203125</LongitudeDegrees>
            </Position>
            <AltitudeMeters>12.19999980926513671875</AltitudeMeters>
            <DistanceMeters>NAN</DistanceMeters>
          </Trackpoint>
          <Trackpoint>
            <Time>2021-08-11T17:03:02.000Z</Time>
            <Position>
              <LatitudeDegrees>43.3230520784854888916015625</LatitudeDegrees>
              <LongitudeDegrees>-1.9309693761169910430908203125</LongitudeDegrees>
            </Position>
            <AltitudeMeters>12.19999980926513671875</AltitudeMeters>
            <DistanceMeters>NAN</DistanceMeters>
          </Trackpoint>
          <Trackpoint>
            <Time>2021-08-11T17:03:03.000Z</Time>
            <Position>
              <LatitudeDegrees>43.32305065356194972991943359375</LatitudeDegrees>
              <LongitudeDegrees>-1.9310136325657367706298828125</LongitudeDegrees>
            </Position>
            <AltitudeMeters>12.19999980926513671875</AltitudeMeters>
            <DistanceMeters>NAN</DistanceMeters>
          </Trackpoint>
          <Trackpoint>
            <Time>2021-08-11T17:03:04.000Z</Time>
            <Position>
              <LatitudeDegrees>43.32304864190518856048583984375</LatitudeDegrees>
              <LongitudeDegrees>-1.93105696700513362884521484375</LongitudeDegrees>
            </Position>
            <AltitudeMeters>12.19999980926513671875</AltitudeMeters>
            <DistanceMeters>NAN</DistanceMeters>
          </Trackpoint>
          <Trackpoint>
            <Time>2021-08-11T17:03:05.000Z</Time>
            <Position>
              <LatitudeDegrees>43.32304411567747592926025390625</LatitudeDegrees>
              <LongitudeDegrees>-1.93110373802483081817626953125</LongitudeDegrees>
            </Position>
            <AltitudeMeters>12.19999980926513671875</AltitudeMeters>
            <DistanceMeters>NAN</DistanceMeters>
          </Trackpoint>
          <Trackpoint>
            <Time>2021-08-11T17:03:13.000Z</Time>
            <Position>
              <LatitudeDegrees>43.32303707487881183624267578125</LatitudeDegrees>
              <LongitudeDegrees>-1.93151076324284076690673828125</LongitudeDegrees>
            </Position>
            <AltitudeMeters>12.19999980926513671875</AltitudeMeters>
            <DistanceMeters>NAN</DistanceMeters>
          </Trackpoint>
          <Trackpoint>
            <Time>2021-08-11T17:03:20.000Z</Time>
            <Position>
              <LatitudeDegrees>43.32301788032054901123046875</LatitudeDegrees>
              <LongitudeDegrees>-1.9318122602999210357666015625</LongitudeDegrees>
            </Position>
            <AltitudeMeters>12.19999980926513671875</AltitudeMeters>
            <DistanceMeters>NAN</DistanceMeters>
          </Trackpoint>
          <Trackpoint>
            <Time>2021-08-11T17:03:21.000Z</Time>
            <Position>
              <LatitudeDegrees>43.32301318645477294921875</LatitudeDegrees>
              <LongitudeDegrees>-1.93185727111995220184326171875</LongitudeDegrees>
            </Position>
            <AltitudeMeters>12.19999980926513671875</AltitudeMeters>
            <DistanceMeters>NAN</DistanceMeters>
          </Trackpoint>
          <Trackpoint>
            <Time>2021-08-11T17:03:25.000Z</Time>
            <Position>
              <LatitudeDegrees>43.32301653921604156494140625</LatitudeDegrees>
              <LongitudeDegrees>-1.9320499710738658905029296875</LongitudeDegrees>
            </Position>
            <AltitudeMeters>12.19999980926513671875</AltitudeMeters>
            <DistanceMeters>NAN</DistanceMeters>
          </Trackpoint>
          <Trackpoint>
            <Time>2021-08-11T17:03:26.000Z</Time>
            <Position>
              <LatitudeDegrees>43.32301259972155094146728515625</LatitudeDegrees>
              <LongitudeDegrees>-1.93210034631192684173583984375</LongitudeDegrees>
            </Position>
            <AltitudeMeters>12.19999980926513671875</AltitudeMeters>
            <DistanceMeters>NAN</DistanceMeters>
          </Trackpoint>
          <Trackpoint>
            <Time>2021-08-11T17:03:27.000Z</Time>
            <Position>
              <LatitudeDegrees>43.32300840876996517181396484375</LatitudeDegrees>
              <LongitudeDegrees>-1.9321522302925586700439453125</LongitudeDegrees>
            </Position>
            <AltitudeMeters>12.19999980926513671875</AltitudeMeters>
            <DistanceMeters>NAN</DistanceMeters>
          </Trackpoint>
          <Trackpoint>
            <Time>2021-08-11T17:03:30.000Z</Time>
            <Position>
              <LatitudeDegrees>43.322977982461452484130859375</LatitudeDegrees>
              <LongitudeDegrees>-1.93228374235332012176513671875</LongitudeDegrees>
            </Position>
            <AltitudeMeters>12.3999996185302734375</AltitudeMeters>
            <DistanceMeters>NAN</DistanceMeters>
          </Trackpoint>
          <Trackpoint>
            <Time>2021-08-11T17:03:31.000Z</Time>
            <Position>
              <LatitudeDegrees>43.32297362387180328369140625</LatitudeDegrees>
              <LongitudeDegrees>-1.932332776486873626708984375</LongitudeDegrees>
            </Position>
            <AltitudeMeters>12.3999996185302734375</AltitudeMeters>
            <DistanceMeters>NAN</DistanceMeters>
          </Trackpoint>
          <Trackpoint>
            <Time>2021-08-11T17:03:33.000Z</Time>
            <Position>
              <LatitudeDegrees>43.32297471351921558380126953125</LatitudeDegrees>
              <LongitudeDegrees>-1.93242455832660198211669921875</LongitudeDegrees>
            </Position>
            <AltitudeMeters>12.6000003814697265625</AltitudeMeters>
            <DistanceMeters>NAN</DistanceMeters>
          </Trackpoint>
          <Trackpoint>
            <Time>2021-08-11T17:03:34.000Z</Time>
            <Position>
              <LatitudeDegrees>43.32297270186245441436767578125</LatitudeDegrees>
              <LongitudeDegrees>-1.932456158101558685302734375</LongitudeDegrees>
            </Position>
            <AltitudeMeters>12.6000003814697265625</AltitudeMeters>
            <DistanceMeters>NAN</DistanceMeters>
          </Trackpoint>
          <Trackpoint>
            <Time>2021-08-11T17:03:35.000Z</Time>
            <Position>
              <LatitudeDegrees>43.3229677565395832061767578125</LatitudeDegrees>
              <LongitudeDegrees>-1.9324781186878681182861328125</LongitudeDegrees>
            </Position>
            <AltitudeMeters>12.6000003814697265625</AltitudeMeters>
            <DistanceMeters>NAN</DistanceMeters>
          </Trackpoint>
          <Trackpoint>
            <Time>2021-08-11T17:03:36.000Z</Time>
            <Position>
              <LatitudeDegrees>43.3229667507112026214599609375</LatitudeDegrees>
              <LongitudeDegrees>-1.93250049836933612823486328125</LongitudeDegrees>
            </Position>
            <AltitudeMeters>12.6000003814697265625</AltitudeMeters>
            <DistanceMeters>NAN</DistanceMeters>
          </Trackpoint>
          <Trackpoint>
            <Time>2021-08-11T17:03:37.000Z</Time>
            <Position>
              <LatitudeDegrees>43.32296557724475860595703125</LatitudeDegrees>
              <LongitudeDegrees>-1.932528577744960784912109375</LongitudeDegrees>
            </Position>
            <AltitudeMeters>12.6000003814697265625</AltitudeMeters>
            <DistanceMeters>NAN</DistanceMeters>
          </Trackpoint>
          <Trackpoint>
            <Time>2021-08-11T17:03:43.000Z</Time>
            <Position>
              <LatitudeDegrees>43.32293347455561161041259765625</LatitudeDegrees>
              <LongitudeDegrees>-1.932743489742279052734375</LongitudeDegrees>
            </Position>
            <AltitudeMeters>12.80000019073486328125</AltitudeMeters>
            <DistanceMeters>NAN</DistanceMeters>
          </Trackpoint>
          <Trackpoint>
            <Time>2021-08-11T17:03:47.000Z</Time>
            <Position>
              <LatitudeDegrees>43.3228936605155467987060546875</LatitudeDegrees>
              <LongitudeDegrees>-1.9329481758177280426025390625</LongitudeDegrees>
            </Position>
            <AltitudeMeters>12.80000019073486328125</AltitudeMeters>
            <DistanceMeters>NAN</DistanceMeters>
          </Trackpoint>
          <Trackpoint>
            <Time>2021-08-11T17:03:48.000Z</Time>
            <Position>
              <LatitudeDegrees>43.322879411280155181884765625</LatitudeDegrees>
              <LongitudeDegrees>-1.93300207145512104034423828125</LongitudeDegrees>
            </Position>
            <AltitudeMeters>12.80000019073486328125</AltitudeMeters>
            <DistanceMeters>NAN</DistanceMeters>
          </Trackpoint>
          <Trackpoint>
            <Time>2021-08-11T17:03:54.000Z</Time>
            <Position>
              <LatitudeDegrees>43.32284077070653438568115234375</LatitudeDegrees>
              <LongitudeDegrees>-1.93332410417497158050537109375</LongitudeDegrees>
            </Position>
            <AltitudeMeters>12.6000003814697265625</AltitudeMeters>
            <DistanceMeters>NAN</DistanceMeters>
          </Trackpoint>
          <Trackpoint>
            <Time>2021-08-11T17:04:01.000Z</Time>
            <Position>
              <LatitudeDegrees>43.32281344570219516754150390625</LatitudeDegrees>
              <LongitudeDegrees>-1.93371201865375041961669921875</LongitudeDegrees>
            </Position>
            <AltitudeMeters>12.6000003814697265625</AltitudeMeters>
            <DistanceMeters>NAN</DistanceMeters>
          </Trackpoint>
          <Trackpoint>
            <Time>2021-08-11T17:04:06.000Z</Time>
            <Position>
              <LatitudeDegrees>43.32279031164944171905517578125</LatitudeDegrees>
              <LongitudeDegrees>-1.93396163173019886016845703125</LongitudeDegrees>
            </Position>
            <AltitudeMeters>12.6000003814697265625</AltitudeMeters>
            <DistanceMeters>NAN</DistanceMeters>
          </Trackpoint>
          <Trackpoint>
            <Time>2021-08-11T17:04:07.000Z</Time>
            <Position>
              <LatitudeDegrees>43.322784863412380218505859375</LatitudeDegrees>
              <LongitudeDegrees>-1.934007816016674041748046875</LongitudeDegrees>
            </Position>
            <AltitudeMeters>12.6000003814697265625</AltitudeMeters>
            <DistanceMeters>NAN</DistanceMeters>
          </Trackpoint>
          <Trackpoint>
            <Time>2021-08-11T17:04:08.000Z</Time>
            <Position>
              <LatitudeDegrees>43.3227836899459362030029296875</LatitudeDegrees>
              <LongitudeDegrees>-1.93405584432184696197509765625</LongitudeDegrees>
            </Position>
            <AltitudeMeters>12.80000019073486328125</AltitudeMeters>
            <DistanceMeters>NAN</DistanceMeters>
          </Trackpoint>
          <Trackpoint>
            <Time>2021-08-11T17:04:09.000Z</Time>
            <Position>
              <LatitudeDegrees>43.32277975045144557952880859375</LatitudeDegrees>
              <LongitudeDegrees>-1.93410412408411502838134765625</LongitudeDegrees>
            </Position>
            <AltitudeMeters>12.80000019073486328125</AltitudeMeters>
            <DistanceMeters>NAN</DistanceMeters>
          </Trackpoint>
          <Trackpoint>
            <Time>2021-08-11T17:04:10.000Z</Time>
            <Position>
              <LatitudeDegrees>43.32277405075728893280029296875</LatitudeDegrees>
              <LongitudeDegrees>-1.93414284847676753997802734375</LongitudeDegrees>
            </Position>
            <AltitudeMeters>12.80000019073486328125</AltitudeMeters>
            <DistanceMeters>NAN</DistanceMeters>
          </Trackpoint>
          <Trackpoint>
            <Time>2021-08-11T17:04:11.000Z</Time>
            <Position>
              <LatitudeDegrees>43.3227650821208953857421875</LatitudeDegrees>
              <LongitudeDegrees>-1.9341856800019741058349609375</LongitudeDegrees>
            </Position>
            <AltitudeMeters>13</AltitudeMeters>
            <DistanceMeters>NAN</DistanceMeters>
          </Trackpoint>
          <Trackpoint>
            <Time>2021-08-11T17:04:12.000Z</Time>
            <Position>
              <LatitudeDegrees>43.32275544293224811553955078125</LatitudeDegrees>
              <LongitudeDegrees>-1.9342359714210033416748046875</LongitudeDegrees>
            </Position>
            <AltitudeMeters>13</AltitudeMeters>
            <DistanceMeters>NAN</DistanceMeters>
          </Trackpoint>
          <Trackpoint>
            <Time>2021-08-11T17:04:13.000Z</Time>
            <Position>
              <LatitudeDegrees>43.32274806685745716094970703125</LatitudeDegrees>
              <LongitudeDegrees>-1.93428617902100086212158203125</LongitudeDegrees>
            </Position>
            <AltitudeMeters>13</AltitudeMeters>
            <DistanceMeters>NAN</DistanceMeters>
          </Trackpoint>
          <Trackpoint>
            <Time>2021-08-11T17:04:16.000Z</Time>
            <Position>
              <LatitudeDegrees>43.32272510044276714324951171875</LatitudeDegrees>
              <LongitudeDegrees>-1.9344455190002918243408203125</LongitudeDegrees>
            </Position>
            <AltitudeMeters>13</AltitudeMeters>
            <DistanceMeters>NAN</DistanceMeters>
          </Trackpoint>
          <Trackpoint>
            <Time>2021-08-11T17:04:23.000Z</Time>
            <Position>
              <LatitudeDegrees>43.32263675518333911895751953125</LatitudeDegrees>
              <LongitudeDegrees>-1.934795714914798736572265625</LongitudeDegrees>
            </Position>
            <AltitudeMeters>13</AltitudeMeters>
            <DistanceMeters>NAN</DistanceMeters>
          </Trackpoint>
          <Trackpoint>
            <Time>2021-08-11T17:04:26.000Z</Time>
            <Position>
              <LatitudeDegrees>43.3226041495800018310546875</LatitudeDegrees>
              <LongitudeDegrees>-1.934945248067378997802734375</LongitudeDegrees>
            </Position>
            <AltitudeMeters>13.19999980926513671875</AltitudeMeters>
            <DistanceMeters>NAN</DistanceMeters>
          </Trackpoint>
          <Trackpoint>
            <Time>2021-08-11T17:04:27.000Z</Time>
            <Position>
              <LatitudeDegrees>43.32259098999202251434326171875</LatitudeDegrees>
              <LongitudeDegrees>-1.9349980540573596954345703125</LongitudeDegrees>
            </Position>
            <AltitudeMeters>13.19999980926513671875</AltitudeMeters>
            <DistanceMeters>NAN</DistanceMeters>
          </Trackpoint>
          <Trackpoint>
            <Time>2021-08-11T17:04:30.000Z</Time>
            <Position>
              <LatitudeDegrees>43.3225647546350955963134765625</LatitudeDegrees>
              <LongitudeDegrees>-1.93517533130943775177001953125</LongitudeDegrees>
            </Position>
            <AltitudeMeters>13.19999980926513671875</AltitudeMeters>
            <DistanceMeters>NAN</DistanceMeters>
          </Trackpoint>
          <Trackpoint>
            <Time>2021-08-11T17:04:36.000Z</Time>
            <Position>
              <LatitudeDegrees>43.32252544350922107696533203125</LatitudeDegrees>
              <LongitudeDegrees>-1.9354825280606746673583984375</LongitudeDegrees>
            </Position>
            <AltitudeMeters>13.3999996185302734375</AltitudeMeters>
            <DistanceMeters>NAN</DistanceMeters>
          </Trackpoint>
          <Trackpoint>
            <Time>2021-08-11T17:04:39.000Z</Time>
            <Position>
              <LatitudeDegrees>43.322484456002712249755859375</LatitudeDegrees>
              <LongitudeDegrees>-1.9356377609074115753173828125</LongitudeDegrees>
            </Position>
            <AltitudeMeters>13.3999996185302734375</AltitudeMeters>
            <DistanceMeters>NAN</DistanceMeters>
          </Trackpoint>
          <Trackpoint>
            <Time>2021-08-11T17:04:40.000Z</Time>
            <Position>
              <LatitudeDegrees>43.32247481681406497955322265625</LatitudeDegrees>
              <LongitudeDegrees>-1.935690231621265411376953125</LongitudeDegrees>
            </Position>
            <AltitudeMeters>13.3999996185302734375</AltitudeMeters>
            <DistanceMeters>NAN</DistanceMeters>
          </Trackpoint>
          <Trackpoint>
            <Time>2021-08-11T17:04:41.000Z</Time>
            <Position>
              <LatitudeDegrees>43.32246425561606884002685546875</LatitudeDegrees>
              <LongitudeDegrees>-1.9357400201261043548583984375</LongitudeDegrees>
            </Position>
            <AltitudeMeters>13.6000003814697265625</AltitudeMeters>
            <DistanceMeters>NAN</DistanceMeters>
          </Trackpoint>
          <Trackpoint>
            <Time>2021-08-11T17:04:42.000Z</Time>
            <Position>
              <LatitudeDegrees>43.322452604770660400390625</LatitudeDegrees>
              <LongitudeDegrees>-1.9357810914516448974609375</LongitudeDegrees>
            </Position>
            <AltitudeMeters>13.6000003814697265625</AltitudeMeters>
            <DistanceMeters>NAN</DistanceMeters>
          </Trackpoint>
          <Trackpoint>
            <Time>2021-08-11T17:04:45.000Z</Time>
            <Position>
              <LatitudeDegrees>43.3224356733262538909912109375</LatitudeDegrees>
              <LongitudeDegrees>-1.93595685996115207672119140625</LongitudeDegrees>
            </Position>
            <AltitudeMeters>13.6000003814697265625</AltitudeMeters>
            <DistanceMeters>NAN</DistanceMeters>
          </Trackpoint>
          <Trackpoint>
            <Time>2021-08-11T17:04:46.000Z</Time>
            <Position>
              <LatitudeDegrees>43.322433494031429290771484375</LatitudeDegrees>
              <LongitudeDegrees>-1.93600195460021495819091796875</LongitudeDegrees>
            </Position>
            <AltitudeMeters>13.6000003814697265625</AltitudeMeters>
            <DistanceMeters>NAN</DistanceMeters>
          </Trackpoint>
          <Trackpoint>
            <Time>2021-08-11T17:04:47.000Z</Time>
            <Position>
              <LatitudeDegrees>43.322429470717906951904296875</LatitudeDegrees>
              <LongitudeDegrees>-1.9360514916479587554931640625</LongitudeDegrees>
            </Position>
            <AltitudeMeters>13.6000003814697265625</AltitudeMeters>
            <DistanceMeters>NAN</DistanceMeters>
          </Trackpoint>
          <Trackpoint>
            <Time>2021-08-11T17:04:48.000Z</Time>
            <Position>
              <LatitudeDegrees>43.32242603413760662078857421875</LatitudeDegrees>
              <LongitudeDegrees>-1.93609398789703845977783203125</LongitudeDegrees>
            </Position>
            <AltitudeMeters>13.6000003814697265625</AltitudeMeters>
            <DistanceMeters>NAN</DistanceMeters>
          </Trackpoint>
          <Trackpoint>
            <Time>2021-08-11T17:04:49.000Z</Time>
            <Position>
              <LatitudeDegrees>43.32242553122341632843017578125</LatitudeDegrees>
              <LongitudeDegrees>-1.93612508475780487060546875</LongitudeDegrees>
            </Position>
            <AltitudeMeters>13.6000003814697265625</AltitudeMeters>
            <DistanceMeters>NAN</DistanceMeters>
          </Trackpoint>
          <Trackpoint>
            <Time>2021-08-11T17:04:50.000Z</Time>
            <Position>
              <LatitudeDegrees>43.32242419011890888214111328125</LatitudeDegrees>
              <LongitudeDegrees>-1.93615056574344635009765625</LongitudeDegrees>
            </Position>
            <AltitudeMeters>13.6000003814697265625</AltitudeMeters>
            <DistanceMeters>NAN</DistanceMeters>
          </Trackpoint>
          <Trackpoint>
            <Time>2021-08-11T17:04:51.000Z</Time>
            <Position>
              <LatitudeDegrees>43.322423435747623443603515625</LatitudeDegrees>
              <LongitudeDegrees>-1.9361688382923603057861328125</LongitudeDegrees>
            </Position>
            <AltitudeMeters>13.6000003814697265625</AltitudeMeters>
            <DistanceMeters>NAN</DistanceMeters>
          </Trackpoint>
          <Trackpoint>
            <Time>2021-08-11T17:04:52.000Z</Time>
            <Position>
              <LatitudeDegrees>43.3224168978631496429443359375</LatitudeDegrees>
              <LongitudeDegrees>-1.93619255907833576202392578125</LongitudeDegrees>
            </Position>
            <AltitudeMeters>13.6000003814697265625</AltitudeMeters>
            <DistanceMeters>NAN</DistanceMeters>
          </Trackpoint>
          <Trackpoint>
            <Time>2021-08-11T17:04:53.000Z</Time>
            <Position>
              <LatitudeDegrees>43.32241170108318328857421875</LatitudeDegrees>
              <LongitudeDegrees>-1.93621820770204067230224609375</LongitudeDegrees>
            </Position>
            <AltitudeMeters>13.6000003814697265625</AltitudeMeters>
            <DistanceMeters>NAN</DistanceMeters>
          </Trackpoint>
          <Trackpoint>
            <Time>2021-08-11T17:04:55.000Z</Time>
            <Position>
              <LatitudeDegrees>43.32240323536098003387451171875</LatitudeDegrees>
              <LongitudeDegrees>-1.9362821616232395172119140625</LongitudeDegrees>
            </Position>
            <AltitudeMeters>13.6000003814697265625</AltitudeMeters>
            <DistanceMeters>NAN</DistanceMeters>
          </Trackpoint>
          <Trackpoint>
            <Time>2021-08-11T17:05:01.000Z</Time>
            <Position>
              <LatitudeDegrees>43.32239183597266674041748046875</LatitudeDegrees>
              <LongitudeDegrees>-1.93656052462756633758544921875</LongitudeDegrees>
            </Position>
            <AltitudeMeters>13.6000003814697265625</AltitudeMeters>
            <DistanceMeters>NAN</DistanceMeters>
          </Trackpoint>
          <Trackpoint>
            <Time>2021-08-11T17:05:02.000Z</Time>
            <Position>
              <LatitudeDegrees>43.322392590343952178955078125</LatitudeDegrees>
              <LongitudeDegrees>-1.93660880438983440399169921875</LongitudeDegrees>
            </Position>
            <AltitudeMeters>13.6000003814697265625</AltitudeMeters>
            <DistanceMeters>NAN</DistanceMeters>
          </Trackpoint>
          <Trackpoint>
            <Time>2021-08-11T17:05:07.000Z</Time>
            <Position>
              <LatitudeDegrees>43.32238965667784214019775390625</LatitudeDegrees>
              <LongitudeDegrees>-1.9368501193821430206298828125</LongitudeDegrees>
            </Position>
            <AltitudeMeters>13.80000019073486328125</AltitudeMeters>
            <DistanceMeters>NAN</DistanceMeters>
          </Trackpoint>
          <Trackpoint>
            <Time>2021-08-11T17:05:10.000Z</Time>
            <Position>
              <LatitudeDegrees>43.32239015959203243255615234375</LatitudeDegrees>
              <LongitudeDegrees>-1.93698531948029994964599609375</LongitudeDegrees>
            </Position>
            <AltitudeMeters>13.80000019073486328125</AltitudeMeters>
            <DistanceMeters>NAN</DistanceMeters>
          </Trackpoint>
          <Trackpoint>
            <Time>2021-08-11T17:05:11.000Z</Time>
            <Position>
              <LatitudeDegrees>43.32239066250622272491455078125</LatitudeDegrees>
              <LongitudeDegrees>-1.937021948397159576416015625</LongitudeDegrees>
            </Position>
            <AltitudeMeters>13.80000019073486328125</AltitudeMeters>
            <DistanceMeters>NAN</DistanceMeters>
          </Trackpoint>
          <Trackpoint>
            <Time>2021-08-11T17:05:12.000Z</Time>
            <Position>
              <LatitudeDegrees>43.32239217124879360198974609375</LatitudeDegrees>
              <LongitudeDegrees>-1.9370526261627674102783203125</LongitudeDegrees>
            </Position>
            <AltitudeMeters>13.80000019073486328125</AltitudeMeters>
            <DistanceMeters>NAN</DistanceMeters>
          </Trackpoint>
          <Trackpoint>
            <Time>2021-08-11T17:05:13.000Z</Time>
            <Position>
              <LatitudeDegrees>43.3223930932581424713134765625</LatitudeDegrees>
              <LongitudeDegrees>-1.93708020262420177459716796875</LongitudeDegrees>
            </Position>
            <AltitudeMeters>14</AltitudeMeters>
            <DistanceMeters>NAN</DistanceMeters>
          </Trackpoint>
          <Trackpoint>
            <Time>2021-08-11T17:05:14.000Z</Time>
            <Position>
              <LatitudeDegrees>43.3223937638103961944580078125</LatitudeDegrees>
              <LongitudeDegrees>-1.93710752762854099273681640625</LongitudeDegrees>
            </Position>
            <AltitudeMeters>14</AltitudeMeters>
            <DistanceMeters>NAN</DistanceMeters>
          </Trackpoint>
          <Trackpoint>
            <Time>2021-08-11T17:05:15.000Z</Time>
            <Position>
              <LatitudeDegrees>43.32239300943911075592041015625</LatitudeDegrees>
              <LongitudeDegrees>-1.93714222870767116546630859375</LongitudeDegrees>
            </Position>
            <AltitudeMeters>14</AltitudeMeters>
            <DistanceMeters>NAN</DistanceMeters>
          </Trackpoint>
          <Trackpoint>
            <Time>2021-08-11T17:05:16.000Z</Time>
            <Position>
              <LatitudeDegrees>43.3223922550678253173828125</LatitudeDegrees>
              <LongitudeDegrees>-1.93716720677912235260009765625</LongitudeDegrees>
            </Position>
            <AltitudeMeters>14</AltitudeMeters>
            <DistanceMeters>NAN</DistanceMeters>
          </Trackpoint>
          <Trackpoint>
            <Time>2021-08-11T17:05:18.000Z</Time>
            <Position>
              <LatitudeDegrees>43.32238697446882724761962890625</LatitudeDegrees>
              <LongitudeDegrees>-1.93722286261618137359619140625</LongitudeDegrees>
            </Position>
            <AltitudeMeters>14</AltitudeMeters>
            <DistanceMeters>NAN</DistanceMeters>
          </Trackpoint>
          <Trackpoint>
            <Time>2021-08-11T17:05:24.000Z</Time>
            <Position>
              <LatitudeDegrees>43.3223823644220829010009765625</LatitudeDegrees>
              <LongitudeDegrees>-1.937448419630527496337890625</LongitudeDegrees>
            </Position>
            <AltitudeMeters>14.3999996185302734375</AltitudeMeters>
            <DistanceMeters>NAN</DistanceMeters>
          </Trackpoint>
          <Trackpoint>
            <Time>2021-08-11T17:05:30.000Z</Time>
            <Position>
              <LatitudeDegrees>43.32238756120204925537109375</LatitudeDegrees>
              <LongitudeDegrees>-1.93774555809795856475830078125</LongitudeDegrees>
            </Position>
            <AltitudeMeters>14.6000003814697265625</AltitudeMeters>
            <DistanceMeters>NAN</DistanceMeters>
          </Trackpoint>
          <Trackpoint>
            <Time>2021-08-11T17:05:37.000Z</Time>
            <Position>
              <LatitudeDegrees>43.32237859256565570831298828125</LatitudeDegrees>
              <LongitudeDegrees>-1.93812475539743900299072265625</LongitudeDegrees>
            </Position>
            <AltitudeMeters>15</AltitudeMeters>
            <DistanceMeters>NAN</DistanceMeters>
          </Trackpoint>
          <Trackpoint>
            <Time>2021-08-11T17:05:39.000Z</Time>
            <Position>
              <LatitudeDegrees>43.32237272523343563079833984375</LatitudeDegrees>
              <LongitudeDegrees>-1.9382284395396709442138671875</LongitudeDegrees>
            </Position>
            <AltitudeMeters>15</AltitudeMeters>
            <DistanceMeters>NAN</DistanceMeters>
          </Trackpoint>
          <Trackpoint>
            <Time>2021-08-11T17:05:42.000Z</Time>
            <Position>
              <LatitudeDegrees>43.32233618013560771942138671875</LatitudeDegrees>
              <LongitudeDegrees>-1.93835777230560779571533203125</LongitudeDegrees>
            </Position>
            <AltitudeMeters>15.3999996185302734375</AltitudeMeters>
            <DistanceMeters>NAN</DistanceMeters>
          </Trackpoint>
          <Trackpoint>
            <Time>2021-08-11T17:05:43.000Z</Time>
            <Position>
              <LatitudeDegrees>43.3223277144134044647216796875</LatitudeDegrees>
              <LongitudeDegrees>-1.9384021125733852386474609375</LongitudeDegrees>
            </Position>
            <AltitudeMeters>15.3999996185302734375</AltitudeMeters>
            <DistanceMeters>NAN</DistanceMeters>
          </Trackpoint>
          <Trackpoint>
            <Time>2021-08-11T17:05:44.000Z</Time>
            <Position>
              <LatitudeDegrees>43.322316817939281463623046875</LatitudeDegrees>
              <LongitudeDegrees>-1.93845055997371673583984375</LongitudeDegrees>
            </Position>
            <AltitudeMeters>15.3999996185302734375</AltitudeMeters>
            <DistanceMeters>NAN</DistanceMeters>
          </Trackpoint>
          <Trackpoint>
            <Time>2021-08-11T17:05:45.000Z</Time>
            <Position>
              <LatitudeDegrees>43.322310112416744232177734375</LatitudeDegrees>
              <LongitudeDegrees>-1.93848635070025920867919921875</LongitudeDegrees>
            </Position>
            <AltitudeMeters>15.6000003814697265625</AltitudeMeters>
            <DistanceMeters>NAN</DistanceMeters>
          </Trackpoint>
          <Trackpoint>
            <Time>2021-08-11T17:05:46.000Z</Time>
            <Position>
              <LatitudeDegrees>43.3223072625696659088134765625</LatitudeDegrees>
              <LongitudeDegrees>-1.93851317279040813446044921875</LongitudeDegrees>
            </Position>
            <AltitudeMeters>15.6000003814697265625</AltitudeMeters>
            <DistanceMeters>NAN</DistanceMeters>
          </Trackpoint>
          <Trackpoint>
            <Time>2021-08-11T17:05:47.000Z</Time>
            <Position>
              <LatitudeDegrees>43.32230483181774616241455078125</LatitudeDegrees>
              <LongitudeDegrees>-1.93854435347020626068115234375</LongitudeDegrees>
            </Position>
            <AltitudeMeters>15.80000019073486328125</AltitudeMeters>
            <DistanceMeters>NAN</DistanceMeters>
          </Trackpoint>
          <Trackpoint>
            <Time>2021-08-11T17:05:48.000Z</Time>
            <Position>
              <LatitudeDegrees>43.32230432890355587005615234375</LatitudeDegrees>
              <LongitudeDegrees>-1.93857804872095584869384765625</LongitudeDegrees>
            </Position>
            <AltitudeMeters>16</AltitudeMeters>
            <DistanceMeters>NAN</DistanceMeters>
          </Trackpoint>
          <Trackpoint>
            <Time>2021-08-11T17:05:49.000Z</Time>
            <Position>
              <LatitudeDegrees>43.3223029039800167083740234375</LatitudeDegrees>
              <LongitudeDegrees>-1.9386113248765468597412109375</LongitudeDegrees>
            </Position>
            <AltitudeMeters>16.200000762939453125</AltitudeMeters>
            <DistanceMeters>NAN</DistanceMeters>
          </Trackpoint>
          <Trackpoint>
            <Time>2021-08-11T17:05:50.000Z</Time>
            <Position>
              <LatitudeDegrees>43.3223005570471286773681640625</LatitudeDegrees>
              <LongitudeDegrees>-1.938639990985393524169921875</LongitudeDegrees>
            </Position>
            <AltitudeMeters>16.200000762939453125</AltitudeMeters>
            <DistanceMeters>NAN</DistanceMeters>
          </Trackpoint>
          <Trackpoint>
            <Time>2021-08-11T17:05:51.000Z</Time>
            <Position>
              <LatitudeDegrees>43.32229712046682834625244140625</LatitudeDegrees>
              <LongitudeDegrees>-1.93867075257003307342529296875</LongitudeDegrees>
            </Position>
            <AltitudeMeters>16.3999996185302734375</AltitudeMeters>
            <DistanceMeters>NAN</DistanceMeters>
          </Trackpoint>
          <Trackpoint>
            <Time>2021-08-11T17:05:57.000Z</Time>
            <Position>
              <LatitudeDegrees>43.3222442306578159332275390625</LatitudeDegrees>
              <LongitudeDegrees>-1.9389244727790355682373046875</LongitudeDegrees>
            </Position>
            <AltitudeMeters>16.799999237060546875</AltitudeMeters>
            <DistanceMeters>NAN</DistanceMeters>
          </Trackpoint>
          <Trackpoint>
            <Time>2021-08-11T17:05:58.000Z</Time>
            <Position>
              <LatitudeDegrees>43.32222771830856800079345703125</LatitudeDegrees>
              <LongitudeDegrees>-1.9389729201793670654296875</LongitudeDegrees>
            </Position>
            <AltitudeMeters>17</AltitudeMeters>
            <DistanceMeters>NAN</DistanceMeters>
          </Trackpoint>
          <Trackpoint>
            <Time>2021-08-11T17:05:59.000Z</Time>
            <Position>
              <LatitudeDegrees>43.3222133852541446685791015625</LatitudeDegrees>
              <LongitudeDegrees>-1.93900845944881439208984375</LongitudeDegrees>
            </Position>
            <AltitudeMeters>17</AltitudeMeters>
            <DistanceMeters>NAN</DistanceMeters>
          </Trackpoint>
          <Trackpoint>
            <Time>2021-08-11T17:06:00.000Z</Time>
            <Position>
              <LatitudeDegrees>43.3221956156194210052490234375</LatitudeDegrees>
              <LongitudeDegrees>-1.93903787992894649505615234375</LongitudeDegrees>
            </Position>
            <AltitudeMeters>17.200000762939453125</AltitudeMeters>
            <DistanceMeters>NAN</DistanceMeters>
          </Trackpoint>
          <Trackpoint>
            <Time>2021-08-11T17:06:01.000Z</Time>
            <Position>
              <LatitudeDegrees>43.3221798576414585113525390625</LatitudeDegrees>
              <LongitudeDegrees>-1.939058415591716766357421875</LongitudeDegrees>
            </Position>
            <AltitudeMeters>17.200000762939453125</AltitudeMeters>
            <DistanceMeters>NAN</DistanceMeters>
          </Trackpoint>
          <Trackpoint>
            <Time>2021-08-11T17:06:02.000Z</Time>
            <Position>
              <LatitudeDegrees>43.322158567607402801513671875</LatitudeDegrees>
              <LongitudeDegrees>-1.93908079527318477630615234375</LongitudeDegrees>
            </Position>
            <AltitudeMeters>17.3999996185302734375</AltitudeMeters>
            <DistanceMeters>NAN</DistanceMeters>
          </Trackpoint>
          <Trackpoint>
            <Time>2021-08-11T17:06:03.000Z</Time>
            <Position>
              <LatitudeDegrees>43.32213216461241245269775390625</LatitudeDegrees>
              <LongitudeDegrees>-1.93909940309822559356689453125</LongitudeDegrees>
            </Position>
            <AltitudeMeters>17.6000003814697265625</AltitudeMeters>
            <DistanceMeters>NAN</DistanceMeters>
          </Trackpoint>
          <Trackpoint>
            <Time>2021-08-11T17:06:04.000Z</Time>
            <Position>
              <LatitudeDegrees>43.32210458815097808837890625</LatitudeDegrees>
              <LongitudeDegrees>-1.93911365233361721038818359375</LongitudeDegrees>
            </Position>
            <AltitudeMeters>17.6000003814697265625</AltitudeMeters>
            <DistanceMeters>NAN</DistanceMeters>
          </Trackpoint>
          <Trackpoint>
            <Time>2021-08-11T17:06:05.000Z</Time>
            <Position>
              <LatitudeDegrees>43.32207784987986087799072265625</LatitudeDegrees>
              <LongitudeDegrees>-1.93912706337869167327880859375</LongitudeDegrees>
            </Position>
            <AltitudeMeters>17.799999237060546875</AltitudeMeters>
            <DistanceMeters>NAN</DistanceMeters>
          </Trackpoint>
          <Trackpoint>
            <Time>2021-08-11T17:06:06.000Z</Time>
            <Position>
              <LatitudeDegrees>43.3220490999519824981689453125</LatitudeDegrees>
              <LongitudeDegrees>-1.93913846276700496673583984375</LongitudeDegrees>
            </Position>
            <AltitudeMeters>17.799999237060546875</AltitudeMeters>
            <DistanceMeters>NAN</DistanceMeters>
          </Trackpoint>
          <Trackpoint>
            <Time>2021-08-11T17:06:07.000Z</Time>
            <Position>
              <LatitudeDegrees>43.32202856428921222686767578125</LatitudeDegrees>
              <LongitudeDegrees>-1.939140893518924713134765625</LongitudeDegrees>
            </Position>
            <AltitudeMeters>17.799999237060546875</AltitudeMeters>
            <DistanceMeters>NAN</DistanceMeters>
          </Trackpoint>
          <Trackpoint>
            <Time>2021-08-11T17:06:08.000Z</Time>
            <Position>
              <LatitudeDegrees>43.32200375385582447052001953125</LatitudeDegrees>
              <LongitudeDegrees>-1.9391387142241001129150390625</LongitudeDegrees>
            </Position>
            <AltitudeMeters>17.799999237060546875</AltitudeMeters>
            <DistanceMeters>NAN</DistanceMeters>
          </Trackpoint>
          <Trackpoint>
            <Time>2021-08-11T17:06:09.000Z</Time>
            <Position>
              <LatitudeDegrees>43.32197475247085094451904296875</LatitudeDegrees>
              <LongitudeDegrees>-1.93913259543478488922119140625</LongitudeDegrees>
            </Position>
            <AltitudeMeters>18</AltitudeMeters>
            <DistanceMeters>NAN</DistanceMeters>
          </Trackpoint>
          <Trackpoint>
            <Time>2021-08-11T17:06:10.000Z</Time>
            <Position>
              <LatitudeDegrees>43.321952708065509796142578125</LatitudeDegrees>
              <LongitudeDegrees>-1.93912287242710590362548828125</LongitudeDegrees>
            </Position>
            <AltitudeMeters>18.200000762939453125</AltitudeMeters>
            <DistanceMeters>NAN</DistanceMeters>
          </Trackpoint>
          <Trackpoint>
            <Time>2021-08-11T17:06:11.000Z</Time>
            <Position>
              <LatitudeDegrees>43.32193024456501007080078125</LatitudeDegrees>
              <LongitudeDegrees>-1.9391102157533168792724609375</LongitudeDegrees>
            </Position>
            <AltitudeMeters>18.200000762939453125</AltitudeMeters>
            <DistanceMeters>NAN</DistanceMeters>
          </Trackpoint>
          <Trackpoint>
            <Time>2021-08-11T17:06:12.000Z</Time>
            <Position>
              <LatitudeDegrees>43.32191373221576213836669921875</LatitudeDegrees>
              <LongitudeDegrees>-1.93909772671759128570556640625</LongitudeDegrees>
            </Position>
            <AltitudeMeters>18.3999996185302734375</AltitudeMeters>
            <DistanceMeters>NAN</DistanceMeters>
          </Trackpoint>
          <Trackpoint>
            <Time>2021-08-11T17:06:13.000Z</Time>
            <Position>
              <LatitudeDegrees>43.3218918554484844207763671875</LatitudeDegrees>
              <LongitudeDegrees>-1.93907828070223331451416015625</LongitudeDegrees>
            </Position>
            <AltitudeMeters>18.3999996185302734375</AltitudeMeters>
            <DistanceMeters>NAN</DistanceMeters>
          </Trackpoint>
          <Trackpoint>
            <Time>2021-08-11T17:06:14.000Z</Time>
            <Position>
              <LatitudeDegrees>43.32186863757669925689697265625</LatitudeDegrees>
              <LongitudeDegrees>-1.93905246444046497344970703125</LongitudeDegrees>
            </Position>
            <AltitudeMeters>18.3999996185302734375</AltitudeMeters>
            <DistanceMeters>NAN</DistanceMeters>
          </Trackpoint>
          <Trackpoint>
            <Time>2021-08-11T17:06:20.000Z</Time>
            <Position>
              <LatitudeDegrees>43.32179068587720394134521484375</LatitudeDegrees>
              <LongitudeDegrees>-1.93883143365383148193359375</LongitudeDegrees>
            </Position>
            <AltitudeMeters>18.6000003814697265625</AltitudeMeters>
            <DistanceMeters>NAN</DistanceMeters>
          </Trackpoint>
          <Trackpoint>
            <Time>2021-08-11T17:06:21.000Z</Time>
            <Position>
              <LatitudeDegrees>43.32179202698171138763427734375</LatitudeDegrees>
              <LongitudeDegrees>-1.93877569399774074554443359375</LongitudeDegrees>
            </Position>
            <AltitudeMeters>18.6000003814697265625</AltitudeMeters>
            <DistanceMeters>NAN</DistanceMeters>
          </Trackpoint>
          <Trackpoint>
            <Time>2021-08-11T17:06:22.000Z</Time>
            <Position>
              <LatitudeDegrees>43.321798145771026611328125</LatitudeDegrees>
              <LongitudeDegrees>-1.9387347064912319183349609375</LongitudeDegrees>
            </Position>
            <AltitudeMeters>18.6000003814697265625</AltitudeMeters>
            <DistanceMeters>NAN</DistanceMeters>
          </Trackpoint>
          <Trackpoint>
            <Time>2021-08-11T17:06:23.000Z</Time>
            <Position>
              <LatitudeDegrees>43.3218107186257839202880859375</LatitudeDegrees>
              <LongitudeDegrees>-1.93868265487253665924072265625</LongitudeDegrees>
            </Position>
            <AltitudeMeters>18.6000003814697265625</AltitudeMeters>
            <DistanceMeters>NAN</DistanceMeters>
          </Trackpoint>
          <Trackpoint>
            <Time>2021-08-11T17:06:24.000Z</Time>
            <Position>
              <LatitudeDegrees>43.3218308351933956146240234375</LatitudeDegrees>
              <LongitudeDegrees>-1.9386371411383152008056640625</LongitudeDegrees>
            </Position>
            <AltitudeMeters>18.3999996185302734375</AltitudeMeters>
            <DistanceMeters>NAN</DistanceMeters>
          </Trackpoint>
          <Trackpoint>
            <Time>2021-08-11T17:06:25.000Z</Time>
            <Position>
              <LatitudeDegrees>43.32185187377035617828369140625</LatitudeDegrees>
              <LongitudeDegrees>-1.9385969080030918121337890625</LongitudeDegrees>
            </Position>
            <AltitudeMeters>18.3999996185302734375</AltitudeMeters>
            <DistanceMeters>NAN</DistanceMeters>
          </Trackpoint>
          <Trackpoint>
            <Time>2021-08-11T17:06:26.000Z</Time>
            <Position>
              <LatitudeDegrees>43.3218801207840442657470703125</LatitudeDegrees>
              <LongitudeDegrees>-1.93855541758239269256591796875</LongitudeDegrees>
            </Position>
            <AltitudeMeters>18.3999996185302734375</AltitudeMeters>
            <DistanceMeters>NAN</DistanceMeters>
          </Trackpoint>
          <Trackpoint>
            <Time>2021-08-11T17:06:27.000Z</Time>
            <Position>
              <LatitudeDegrees>43.32190199755132198333740234375</LatitudeDegrees>
              <LongitudeDegrees>-1.93853194825351238250732421875</LongitudeDegrees>
            </Position>
            <AltitudeMeters>18.200000762939453125</AltitudeMeters>
            <DistanceMeters>NAN</DistanceMeters>
          </Trackpoint>
          <Trackpoint>
            <Time>2021-08-11T17:06:28.000Z</Time>
            <Position>
              <LatitudeDegrees>43.32193468697369098663330078125</LatitudeDegrees>
              <LongitudeDegrees>-1.938505209982395172119140625</LongitudeDegrees>
            </Position>
            <AltitudeMeters>18</AltitudeMeters>
            <DistanceMeters>NAN</DistanceMeters>
          </Trackpoint>
          <Trackpoint>
            <Time>2021-08-11T17:06:29.000Z</Time>
            <Position>
              <LatitudeDegrees>43.321973495185375213623046875</LatitudeDegrees>
              <LongitudeDegrees>-1.9384842552244663238525390625</LongitudeDegrees>
            </Position>
            <AltitudeMeters>17.799999237060546875</AltitudeMeters>
            <DistanceMeters>NAN</DistanceMeters>
          </Trackpoint>
          <Trackpoint>
            <Time>2021-08-11T17:06:30.000Z</Time>
            <Position>
              <LatitudeDegrees>43.3220128901302814483642578125</LatitudeDegrees>
              <LongitudeDegrees>-1.9384755380451679229736328125</LongitudeDegrees>
            </Position>
            <AltitudeMeters>17.6000003814697265625</AltitudeMeters>
            <DistanceMeters>NAN</DistanceMeters>
          </Trackpoint>
          <Trackpoint>
            <Time>2021-08-11T17:06:31.000Z</Time>
            <Position>
              <LatitudeDegrees>43.32205069251358509063720703125</LatitudeDegrees>
              <LongitudeDegrees>-1.93847361020743846893310546875</LongitudeDegrees>
            </Position>
            <AltitudeMeters>17.3999996185302734375</AltitudeMeters>
            <DistanceMeters>NAN</DistanceMeters>
          </Trackpoint>
          <Trackpoint>
            <Time>2021-08-11T17:06:32.000Z</Time>
            <Position>
              <LatitudeDegrees>43.322085477411746978759765625</LatitudeDegrees>
              <LongitudeDegrees>-1.9384762085974216461181640625</LongitudeDegrees>
            </Position>
            <AltitudeMeters>17.3999996185302734375</AltitudeMeters>
            <DistanceMeters>NAN</DistanceMeters>
          </Trackpoint>
          <Trackpoint>
            <Time>2021-08-11T17:06:33.000Z</Time>
            <Position>
              <LatitudeDegrees>43.32211799919605255126953125</LatitudeDegrees>
              <LongitudeDegrees>-1.93848383612930774688720703125</LongitudeDegrees>
            </Position>
            <AltitudeMeters>17.200000762939453125</AltitudeMeters>
            <DistanceMeters>NAN</DistanceMeters>
          </Trackpoint>
          <Trackpoint>
            <Time>2021-08-11T17:06:34.000Z</Time>
            <Position>
              <LatitudeDegrees>43.32214741967618465423583984375</LatitudeDegrees>
              <LongitudeDegrees>-1.9384973309934139251708984375</LongitudeDegrees>
            </Position>
            <AltitudeMeters>17</AltitudeMeters>
            <DistanceMeters>NAN</DistanceMeters>
          </Trackpoint>
          <Trackpoint>
            <Time>2021-08-11T17:06:35.000Z</Time>
            <Position>
              <LatitudeDegrees>43.32217709161341190338134765625</LatitudeDegrees>
              <LongitudeDegrees>-1.93851870484650135040283203125</LongitudeDegrees>
            </Position>
            <AltitudeMeters>16.799999237060546875</AltitudeMeters>
            <DistanceMeters>NAN</DistanceMeters>
          </Trackpoint>
          <Trackpoint>
            <Time>2021-08-11T17:06:36.000Z</Time>
            <Position>
              <LatitudeDegrees>43.322206176817417144775390625</LatitudeDegrees>
              <LongitudeDegrees>-1.93854837678372859954833984375</LongitudeDegrees>
            </Position>
            <AltitudeMeters>16.799999237060546875</AltitudeMeters>
            <DistanceMeters>NAN</DistanceMeters>
          </Trackpoint>
          <Trackpoint>
            <Time>2021-08-11T17:06:37.000Z</Time>
            <Position>
              <LatitudeDegrees>43.32223040051758289337158203125</LatitudeDegrees>
              <LongitudeDegrees>-1.93858802318572998046875</LongitudeDegrees>
            </Position>
            <AltitudeMeters>16.799999237060546875</AltitudeMeters>
            <DistanceMeters>NAN</DistanceMeters>
          </Trackpoint>
          <Trackpoint>
            <Time>2021-08-11T17:06:38.000Z</Time>
            <Position>
              <LatitudeDegrees>43.32224951125681400299072265625</LatitudeDegrees>
              <LongitudeDegrees>-1.93863437511026859283447265625</LongitudeDegrees>
            </Position>
            <AltitudeMeters>16.799999237060546875</AltitudeMeters>
            <DistanceMeters>NAN</DistanceMeters>
          </Trackpoint>
          <Trackpoint>
            <Time>2021-08-11T17:06:39.000Z</Time>
            <Position>
              <LatitudeDegrees>43.32226308993995189666748046875</LatitudeDegrees>
              <LongitudeDegrees>-1.9386854209005832672119140625</LongitudeDegrees>
            </Position>
            <AltitudeMeters>16.799999237060546875</AltitudeMeters>
            <DistanceMeters>NAN</DistanceMeters>
          </Trackpoint>
          <Trackpoint>
            <Time>2021-08-11T17:06:40.000Z</Time>
            <Position>
              <LatitudeDegrees>43.3222700469195842742919921875</LatitudeDegrees>
              <LongitudeDegrees>-1.9387395679950714111328125</LongitudeDegrees>
            </Position>
            <AltitudeMeters>16.799999237060546875</AltitudeMeters>
            <DistanceMeters>NAN</DistanceMeters>
          </Trackpoint>
          <Trackpoint>
            <Time>2021-08-11T17:06:41.000Z</Time>
            <Position>
              <LatitudeDegrees>43.3222747407853603363037109375</LatitudeDegrees>
              <LongitudeDegrees>-1.938793547451496124267578125</LongitudeDegrees>
            </Position>
            <AltitudeMeters>16.799999237060546875</AltitudeMeters>
            <DistanceMeters>NAN</DistanceMeters>
          </Trackpoint>
          <Trackpoint>
            <Time>2021-08-11T17:06:42.000Z</Time>
            <Position>
              <LatitudeDegrees>43.32227247767150402069091796875</LatitudeDegrees>
              <LongitudeDegrees>-1.9388463534414768218994140625</LongitudeDegrees>
            </Position>
            <AltitudeMeters>16.799999237060546875</AltitudeMeters>
            <DistanceMeters>NAN</DistanceMeters>
          </Trackpoint>
          <Trackpoint>
            <Time>2021-08-11T17:06:43.000Z</Time>
            <Position>
              <LatitudeDegrees>43.32226208411157131195068359375</LatitudeDegrees>
              <LongitudeDegrees>-1.93890678696334362030029296875</LongitudeDegrees>
            </Position>
            <AltitudeMeters>16.799999237060546875</AltitudeMeters>
            <DistanceMeters>NAN</DistanceMeters>
          </Trackpoint>
          <Trackpoint>
            <Time>2021-08-11T17:06:44.000Z</Time>
            <Position>
              <LatitudeDegrees>43.32225319929420948028564453125</LatitudeDegrees>
              <LongitudeDegrees>-1.9389409013092517852783203125</LongitudeDegrees>
            </Position>
            <AltitudeMeters>16.799999237060546875</AltitudeMeters>
            <DistanceMeters>NAN</DistanceMeters>
          </Trackpoint>
          <Trackpoint>
            <Time>2021-08-11T17:06:45.000Z</Time>
            <Position>
              <LatitudeDegrees>43.32223962061107158660888671875</LatitudeDegrees>
              <LongitudeDegrees>-1.93898339755833148956298828125</LongitudeDegrees>
            </Position>
            <AltitudeMeters>17</AltitudeMeters>
            <DistanceMeters>NAN</DistanceMeters>
          </Trackpoint>
          <Trackpoint>
            <Time>2021-08-11T17:06:46.000Z</Time>
            <Position>
              <LatitudeDegrees>43.3222264610230922698974609375</LatitudeDegrees>
              <LongitudeDegrees>-1.93902446888387203216552734375</LongitudeDegrees>
            </Position>
            <AltitudeMeters>17</AltitudeMeters>
            <DistanceMeters>NAN</DistanceMeters>
          </Trackpoint>
          <Trackpoint>
            <Time>2021-08-11T17:06:48.000Z</Time>
            <Position>
              <LatitudeDegrees>43.3221956156194210052490234375</LatitudeDegrees>
              <LongitudeDegrees>-1.9391016662120819091796875</LongitudeDegrees>
            </Position>
            <AltitudeMeters>17.200000762939453125</AltitudeMeters>
            <DistanceMeters>NAN</DistanceMeters>
          </Trackpoint>
          <Trackpoint>
            <Time>2021-08-11T17:06:49.000Z</Time>
            <Position>
              <LatitudeDegrees>43.3221822045743465423583984375</LatitudeDegrees>
              <LongitudeDegrees>-1.93914265371859073638916015625</LongitudeDegrees>
            </Position>
            <AltitudeMeters>17.3999996185302734375</AltitudeMeters>
            <DistanceMeters>NAN</DistanceMeters>
          </Trackpoint>
          <Trackpoint>
            <Time>2021-08-11T17:06:50.000Z</Time>
            <Position>
              <LatitudeDegrees>43.3221721462905406951904296875</LatitudeDegrees>
              <LongitudeDegrees>-1.9391859881579875946044921875</LongitudeDegrees>
            </Position>
            <AltitudeMeters>17.6000003814697265625</AltitudeMeters>
            <DistanceMeters>NAN</DistanceMeters>
          </Trackpoint>
          <Trackpoint>
            <Time>2021-08-11T17:06:51.000Z</Time>
            <Position>
              <LatitudeDegrees>43.32216435112059116363525390625</LatitudeDegrees>
              <LongitudeDegrees>-1.93923351354897022247314453125</LongitudeDegrees>
            </Position>
            <AltitudeMeters>17.799999237060546875</AltitudeMeters>
            <DistanceMeters>NAN</DistanceMeters>
          </Trackpoint>
          <Trackpoint>
            <Time>2021-08-11T17:06:52.000Z</Time>
            <Position>
              <LatitudeDegrees>43.3221580646932125091552734375</LatitudeDegrees>
              <LongitudeDegrees>-1.93928162567317485809326171875</LongitudeDegrees>
            </Position>
            <AltitudeMeters>17.799999237060546875</AltitudeMeters>
            <DistanceMeters>NAN</DistanceMeters>
          </Trackpoint>
          <Trackpoint>
            <Time>2021-08-11T17:06:54.000Z</Time>
            <Position>
              <LatitudeDegrees>43.322153873741626739501953125</LatitudeDegrees>
              <LongitudeDegrees>-1.93937935866415500640869140625</LongitudeDegrees>
            </Position>
            <AltitudeMeters>18.200000762939453125</AltitudeMeters>
            <DistanceMeters>NAN</DistanceMeters>
          </Trackpoint>
          <Trackpoint>
            <Time>2021-08-11T17:06:55.000Z</Time>
            <Position>
              <LatitudeDegrees>43.322153873741626739501953125</LatitudeDegrees>
              <LongitudeDegrees>-1.93940944969654083251953125</LongitudeDegrees>
            </Position>
            <AltitudeMeters>18.3999996185302734375</AltitudeMeters>
            <DistanceMeters>NAN</DistanceMeters>
          </Trackpoint>
          <Trackpoint>
            <Time>2021-08-11T17:06:56.000Z</Time>
            <Position>
              <LatitudeDegrees>43.32215555012226104736328125</LatitudeDegrees>
              <LongitudeDegrees>-1.939444653689861297607421875</LongitudeDegrees>
            </Position>
            <AltitudeMeters>18.6000003814697265625</AltitudeMeters>
            <DistanceMeters>NAN</DistanceMeters>
          </Trackpoint>
          <Trackpoint>
            <Time>2021-08-11T17:06:57.000Z</Time>
            <Position>
              <LatitudeDegrees>43.3221590705215930938720703125</LatitudeDegrees>
              <LongitudeDegrees>-1.9394760020077228546142578125</LongitudeDegrees>
            </Position>
            <AltitudeMeters>18.799999237060546875</AltitudeMeters>
            <DistanceMeters>NAN</DistanceMeters>
          </Trackpoint>
          <Trackpoint>
            <Time>2021-08-11T17:06:58.000Z</Time>
            <Position>
              <LatitudeDegrees>43.3221642673015594482421875</LatitudeDegrees>
              <LongitudeDegrees>-1.93950458429753780364990234375</LongitudeDegrees>
            </Position>
            <AltitudeMeters>19</AltitudeMeters>
            <DistanceMeters>NAN</DistanceMeters>
          </Trackpoint>
          <Trackpoint>
            <Time>2021-08-11T17:06:59.000Z</Time>
            <Position>
              <LatitudeDegrees>43.3221734873950481414794921875</LatitudeDegrees>
              <LongitudeDegrees>-1.9395386986434459686279296875</LongitudeDegrees>
            </Position>
            <AltitudeMeters>19.200000762939453125</AltitudeMeters>
            <DistanceMeters>NAN</DistanceMeters>
          </Trackpoint>
          <Trackpoint>
            <Time>2021-08-11T17:07:01.000Z</Time>
            <Position>
              <LatitudeDegrees>43.322184719145298004150390625</LatitudeDegrees>
              <LongitudeDegrees>-1.9395817816257476806640625</LongitudeDegrees>
            </Position>
            <AltitudeMeters>19.3999996185302734375</AltitudeMeters>
            <DistanceMeters>NAN</DistanceMeters>
          </Trackpoint>
          <Trackpoint>
            <Time>2021-08-11T17:07:02.000Z</Time>
            <Position>
              <LatitudeDegrees>43.3221808634698390960693359375</LatitudeDegrees>
              <LongitudeDegrees>-1.93960256874561309814453125</LongitudeDegrees>
            </Position>
            <AltitudeMeters>19.6000003814697265625</AltitudeMeters>
            <DistanceMeters>NAN</DistanceMeters>
          </Trackpoint>
          <Trackpoint>
            <Time>2021-08-11T17:07:03.000Z</Time>
            <Position>
              <LatitudeDegrees>43.3221724815666675567626953125</LatitudeDegrees>
              <LongitudeDegrees>-1.93962276913225650787353515625</LongitudeDegrees>
            </Position>
            <AltitudeMeters>19.799999237060546875</AltitudeMeters>
            <DistanceMeters>NAN</DistanceMeters>
          </Trackpoint>
          <Trackpoint>
            <Time>2021-08-11T17:07:04.000Z</Time>
            <Position>
              <LatitudeDegrees>43.322159238159656524658203125</LatitudeDegrees>
              <LongitudeDegrees>-1.939633078873157501220703125</LongitudeDegrees>
            </Position>
            <AltitudeMeters>20</AltitudeMeters>
            <DistanceMeters>NAN</DistanceMeters>
          </Trackpoint>
          <Trackpoint>
            <Time>2021-08-11T17:07:05.000Z</Time>
            <Position>
              <LatitudeDegrees>43.3221513591706752777099609375</LatitudeDegrees>
              <LongitudeDegrees>-1.939635761082172393798828125</LongitudeDegrees>
            </Position>
            <AltitudeMeters>20.200000762939453125</AltitudeMeters>
            <DistanceMeters>NAN</DistanceMeters>
          </Trackpoint>
          <Trackpoint>
            <Time>2021-08-11T17:07:07.000Z</Time>
            <Position>
              <LatitudeDegrees>43.32214456982910633087158203125</LatitudeDegrees>
              <LongitudeDegrees>-1.9396300613880157470703125</LongitudeDegrees>
            </Position>
            <AltitudeMeters>20.6000003814697265625</AltitudeMeters>
            <DistanceMeters>NAN</DistanceMeters>
          </Trackpoint>
          <Trackpoint>
            <Time>2021-08-11T17:07:12.000Z</Time>
            <Position>
              <LatitudeDegrees>43.322141468524932861328125</LatitudeDegrees>
              <LongitudeDegrees>-1.93963341414928436279296875</LongitudeDegrees>
            </Position>
            <AltitudeMeters>20.799999237060546875</AltitudeMeters>
            <DistanceMeters>NAN</DistanceMeters>
          </Trackpoint>
          <Trackpoint>
            <Time>2021-08-11T17:07:38.000Z</Time>
            <Position>
              <LatitudeDegrees>43.32212126813828945159912109375</LatitudeDegrees>
              <LongitudeDegrees>-1.939636766910552978515625</LongitudeDegrees>
            </Position>
            <AltitudeMeters>20.799999237060546875</AltitudeMeters>
            <DistanceMeters>NAN</DistanceMeters>
          </Trackpoint>
          <Trackpoint>
            <Time>2021-08-11T17:07:45.000Z</Time>
            <Position>
              <LatitudeDegrees>43.32211992703378200531005859375</LatitudeDegrees>
              <LongitudeDegrees>-1.93964674137532711029052734375</LongitudeDegrees>
            </Position>
            <AltitudeMeters>20.799999237060546875</AltitudeMeters>
            <DistanceMeters>NAN</DistanceMeters>
          </Trackpoint>
          <Trackpoint>
            <Time>2021-08-11T17:09:01.000Z</Time>
            <Position>
              <LatitudeDegrees>43.3221242018043994903564453125</LatitudeDegrees>
              <LongitudeDegrees>-1.93970574997365474700927734375</LongitudeDegrees>
            </Position>
            <AltitudeMeters>20.6000003814697265625</AltitudeMeters>
            <DistanceMeters>NAN</DistanceMeters>
          </Trackpoint>
          <Trackpoint>
            <Time>2021-08-11T17:09:20.000Z</Time>
            <Position>
              <LatitudeDegrees>43.32212059758603572845458984375</LatitudeDegrees>
              <LongitudeDegrees>-1.93973776884377002716064453125</LongitudeDegrees>
            </Position>
            <AltitudeMeters>20.799999237060546875</AltitudeMeters>
            <DistanceMeters>NAN</DistanceMeters>
          </Trackpoint>
          <Trackpoint>
            <Time>2021-08-11T17:09:23.000Z</Time>
            <Position>
              <LatitudeDegrees>43.3220826275646686553955078125</LatitudeDegrees>
              <LongitudeDegrees>-1.939806081354618072509765625</LongitudeDegrees>
            </Position>
            <AltitudeMeters>20.799999237060546875</AltitudeMeters>
            <DistanceMeters>NAN</DistanceMeters>
          </Trackpoint>
          <Trackpoint>
            <Time>2021-08-11T17:09:24.000Z</Time>
            <Position>
              <LatitudeDegrees>43.32206075079739093780517578125</LatitudeDegrees>
              <LongitudeDegrees>-1.93983080796897411346435546875</LongitudeDegrees>
            </Position>
            <AltitudeMeters>20.799999237060546875</AltitudeMeters>
            <DistanceMeters>NAN</DistanceMeters>
          </Trackpoint>
          <Trackpoint>
            <Time>2021-08-11T17:09:25.000Z</Time>
            <Position>
              <LatitudeDegrees>43.3220444060862064361572265625</LatitudeDegrees>
              <LongitudeDegrees>-1.93985880352556705474853515625</LongitudeDegrees>
            </Position>
            <AltitudeMeters>20.799999237060546875</AltitudeMeters>
            <DistanceMeters>NAN</DistanceMeters>
          </Trackpoint>
          <Trackpoint>
            <Time>2021-08-11T17:09:27.000Z</Time>
            <Position>
              <LatitudeDegrees>43.32203141413629055023193359375</LatitudeDegrees>
              <LongitudeDegrees>-1.93992267362773418426513671875</LongitudeDegrees>
            </Position>
            <AltitudeMeters>20.799999237060546875</AltitudeMeters>
            <DistanceMeters>NAN</DistanceMeters>
          </Trackpoint>
          <Trackpoint>
            <Time>2021-08-11T17:09:28.000Z</Time>
            <Position>
              <LatitudeDegrees>43.32203024066984653472900390625</LatitudeDegrees>
              <LongitudeDegrees>-1.9399546086788177490234375</LongitudeDegrees>
            </Position>
            <AltitudeMeters>20.799999237060546875</AltitudeMeters>
            <DistanceMeters>NAN</DistanceMeters>
          </Trackpoint>
          <Trackpoint>
            <Time>2021-08-11T17:09:29.000Z</Time>
            <Position>
              <LatitudeDegrees>43.3220252953469753265380859375</LatitudeDegrees>
              <LongitudeDegrees>-1.93999358452856540679931640625</LongitudeDegrees>
            </Position>
            <AltitudeMeters>20.799999237060546875</AltitudeMeters>
            <DistanceMeters>NAN</DistanceMeters>
          </Trackpoint>
          <Trackpoint>
            <Time>2021-08-11T17:09:31.000Z</Time>
            <Position>
              <LatitudeDegrees>43.32201129756867885589599609375</LatitudeDegrees>
              <LongitudeDegrees>-1.9400613941252231597900390625</LongitudeDegrees>
            </Position>
            <AltitudeMeters>21</AltitudeMeters>
            <DistanceMeters>NAN</DistanceMeters>
          </Trackpoint>
          <Trackpoint>
            <Time>2021-08-11T17:09:34.000Z</Time>
            <Position>
              <LatitudeDegrees>43.3219860680401325225830078125</LatitudeDegrees>
              <LongitudeDegrees>-1.94016315042972564697265625</LongitudeDegrees>
            </Position>
            <AltitudeMeters>21.3999996185302734375</AltitudeMeters>
            <DistanceMeters>NAN</DistanceMeters>
          </Trackpoint>
          <Trackpoint>
            <Time>2021-08-11T17:09:37.000Z</Time>
            <Position>
              <LatitudeDegrees>43.32195647992193698883056640625</LatitudeDegrees>
              <LongitudeDegrees>-1.94026230834424495697021484375</LongitudeDegrees>
            </Position>
            <AltitudeMeters>22</AltitudeMeters>
            <DistanceMeters>NAN</DistanceMeters>
          </Trackpoint>
          <Trackpoint>
            <Time>2021-08-11T17:09:41.000Z</Time>
            <Position>
              <LatitudeDegrees>43.32190551795065402984619140625</LatitudeDegrees>
              <LongitudeDegrees>-1.94040991365909576416015625</LongitudeDegrees>
            </Position>
            <AltitudeMeters>22.799999237060546875</AltitudeMeters>
            <DistanceMeters>NAN</DistanceMeters>
          </Trackpoint>
          <Trackpoint>
            <Time>2021-08-11T17:09:43.000Z</Time>
            <Position>
              <LatitudeDegrees>43.3218888379633426666259765625</LatitudeDegrees>
              <LongitudeDegrees>-1.94048074074089527130126953125</LongitudeDegrees>
            </Position>
            <AltitudeMeters>23.200000762939453125</AltitudeMeters>
            <DistanceMeters>NAN</DistanceMeters>
          </Trackpoint>
          <Trackpoint>
            <Time>2021-08-11T17:09:46.000Z</Time>
            <Position>
              <LatitudeDegrees>43.32185355015099048614501953125</LatitudeDegrees>
              <LongitudeDegrees>-1.94061133079230785369873046875</LongitudeDegrees>
            </Position>
            <AltitudeMeters>24</AltitudeMeters>
            <DistanceMeters>NAN</DistanceMeters>
          </Trackpoint>
          <Trackpoint>
            <Time>2021-08-11T17:09:47.000Z</Time>
            <Position>
              <LatitudeDegrees>43.32183770835399627685546875</LatitudeDegrees>
              <LongitudeDegrees>-1.94066061638295650482177734375</LongitudeDegrees>
            </Position>
            <AltitudeMeters>24.200000762939453125</AltitudeMeters>
            <DistanceMeters>NAN</DistanceMeters>
          </Trackpoint>
          <Trackpoint>
            <Time>2021-08-11T17:09:48.000Z</Time>
            <Position>
              <LatitudeDegrees>43.32182924263179302215576171875</LatitudeDegrees>
              <LongitudeDegrees>-1.94070789031684398651123046875</LongitudeDegrees>
            </Position>
            <AltitudeMeters>24.3999996185302734375</AltitudeMeters>
            <DistanceMeters>NAN</DistanceMeters>
          </Trackpoint>
          <Trackpoint>
            <Time>2021-08-11T17:09:49.000Z</Time>
            <Position>
              <LatitudeDegrees>43.321818597614765167236328125</LatitudeDegrees>
              <LongitudeDegrees>-1.9407436810433864593505859375</LongitudeDegrees>
            </Position>
            <AltitudeMeters>24.6000003814697265625</AltitudeMeters>
            <DistanceMeters>NAN</DistanceMeters>
          </Trackpoint>
          <Trackpoint>
            <Time>2021-08-11T17:09:50.000Z</Time>
            <Position>
              <LatitudeDegrees>43.32180962897837162017822265625</LatitudeDegrees>
              <LongitudeDegrees>-1.94077846594154834747314453125</LongitudeDegrees>
            </Position>
            <AltitudeMeters>24.799999237060546875</AltitudeMeters>
            <DistanceMeters>NAN</DistanceMeters>
          </Trackpoint>
          <Trackpoint>
            <Time>2021-08-11T17:09:51.000Z</Time>
            <Position>
              <LatitudeDegrees>43.32180091179907321929931640625</LatitudeDegrees>
              <LongitudeDegrees>-1.940816603600978851318359375</LongitudeDegrees>
            </Position>
            <AltitudeMeters>25.200000762939453125</AltitudeMeters>
            <DistanceMeters>NAN</DistanceMeters>
          </Trackpoint>
          <Trackpoint>
            <Time>2021-08-11T17:09:52.000Z</Time>
            <Position>
              <LatitudeDegrees>43.32179479300975799560546875</LatitudeDegrees>
              <LongitudeDegrees>-1.94086094386875629425048828125</LongitudeDegrees>
            </Position>
            <AltitudeMeters>25.3999996185302734375</AltitudeMeters>
            <DistanceMeters>NAN</DistanceMeters>
          </Trackpoint>
          <Trackpoint>
            <Time>2021-08-11T17:09:53.000Z</Time>
            <Position>
              <LatitudeDegrees>43.32178934477269649505615234375</LatitudeDegrees>
              <LongitudeDegrees>-1.9409056194126605987548828125</LongitudeDegrees>
            </Position>
            <AltitudeMeters>25.6000003814697265625</AltitudeMeters>
            <DistanceMeters>NAN</DistanceMeters>
          </Trackpoint>
          <Trackpoint>
            <Time>2021-08-11T17:09:54.000Z</Time>
            <Position>
              <LatitudeDegrees>43.32178381271660327911376953125</LatitudeDegrees>
              <LongitudeDegrees>-1.94094836711883544921875</LongitudeDegrees>
            </Position>
            <AltitudeMeters>25.799999237060546875</AltitudeMeters>
            <DistanceMeters>NAN</DistanceMeters>
          </Trackpoint>
          <Trackpoint>
            <Time>2021-08-11T17:09:55.000Z</Time>
            <Position>
              <LatitudeDegrees>43.32178129814565181732177734375</LatitudeDegrees>
              <LongitudeDegrees>-1.94098751060664653778076171875</LongitudeDegrees>
            </Position>
            <AltitudeMeters>26</AltitudeMeters>
            <DistanceMeters>NAN</DistanceMeters>
          </Trackpoint>
          <Trackpoint>
            <Time>2021-08-11T17:09:56.000Z</Time>
            <Position>
              <LatitudeDegrees>43.32177945412695407867431640625</LatitudeDegrees>
              <LongitudeDegrees>-1.94102372042834758758544921875</LongitudeDegrees>
            </Position>
            <AltitudeMeters>26.200000762939453125</AltitudeMeters>
            <DistanceMeters>NAN</DistanceMeters>
          </Trackpoint>
          <Trackpoint>
            <Time>2021-08-11T17:09:57.000Z</Time>
            <Position>
              <LatitudeDegrees>43.32177643664181232452392578125</LatitudeDegrees>
              <LongitudeDegrees>-1.94106009788811206817626953125</LongitudeDegrees>
            </Position>
            <AltitudeMeters>26.3999996185302734375</AltitudeMeters>
            <DistanceMeters>NAN</DistanceMeters>
          </Trackpoint>
          <Trackpoint>
            <Time>2021-08-11T17:09:58.000Z</Time>
            <Position>
              <LatitudeDegrees>43.32177425734698772430419921875</LatitudeDegrees>
              <LongitudeDegrees>-1.94109614007174968719482421875</LongitudeDegrees>
            </Position>
            <AltitudeMeters>26.6000003814697265625</AltitudeMeters>
            <DistanceMeters>NAN</DistanceMeters>
          </Trackpoint>
          <Trackpoint>
            <Time>2021-08-11T17:09:59.000Z</Time>
            <Position>
              <LatitudeDegrees>43.321772329509258270263671875</LatitudeDegrees>
              <LongitudeDegrees>-1.9411326013505458831787109375</LongitudeDegrees>
            </Position>
            <AltitudeMeters>27</AltitudeMeters>
            <DistanceMeters>NAN</DistanceMeters>
          </Trackpoint>
          <Trackpoint>
            <Time>2021-08-11T17:10:00.000Z</Time>
            <Position>
              <LatitudeDegrees>43.32176805473864078521728515625</LatitudeDegrees>
              <LongitudeDegrees>-1.94116151891648769378662109375</LongitudeDegrees>
            </Position>
            <AltitudeMeters>27</AltitudeMeters>
            <DistanceMeters>NAN</DistanceMeters>
          </Trackpoint>
          <Trackpoint>
            <Time>2021-08-11T17:10:01.000Z</Time>
            <Position>
              <LatitudeDegrees>43.3217651210725307464599609375</LatitudeDegrees>
              <LongitudeDegrees>-1.94120518863201141357421875</LongitudeDegrees>
            </Position>
            <AltitudeMeters>27.200000762939453125</AltitudeMeters>
            <DistanceMeters>NAN</DistanceMeters>
          </Trackpoint>
          <Trackpoint>
            <Time>2021-08-11T17:10:02.000Z</Time>
            <Position>
              <LatitudeDegrees>43.32176570780575275421142578125</LatitudeDegrees>
              <LongitudeDegrees>-1.94123678840696811676025390625</LongitudeDegrees>
            </Position>
            <AltitudeMeters>27.200000762939453125</AltitudeMeters>
            <DistanceMeters>NAN</DistanceMeters>
          </Trackpoint>
          <Trackpoint>
            <Time>2021-08-11T17:10:03.000Z</Time>
            <Position>
              <LatitudeDegrees>43.32176637835800647735595703125</LatitudeDegrees>
              <LongitudeDegrees>-1.94127668626606464385986328125</LongitudeDegrees>
            </Position>
            <AltitudeMeters>27.6000003814697265625</AltitudeMeters>
            <DistanceMeters>NAN</DistanceMeters>
          </Trackpoint>
          <Trackpoint>
            <Time>2021-08-11T17:10:04.000Z</Time>
            <Position>
              <LatitudeDegrees>43.32176528871059417724609375</LatitudeDegrees>
              <LongitudeDegrees>-1.9413156621158123016357421875</LongitudeDegrees>
            </Position>
            <AltitudeMeters>27.6000003814697265625</AltitudeMeters>
            <DistanceMeters>NAN</DistanceMeters>
          </Trackpoint>
          <Trackpoint>
            <Time>2021-08-11T17:10:05.000Z</Time>
            <Position>
              <LatitudeDegrees>43.3217624388635158538818359375</LatitudeDegrees>
              <LongitudeDegrees>-1.9413522072136402130126953125</LongitudeDegrees>
            </Position>
            <AltitudeMeters>28</AltitudeMeters>
            <DistanceMeters>NAN</DistanceMeters>
          </Trackpoint>
          <Trackpoint>
            <Time>2021-08-11T17:10:06.000Z</Time>
            <Position>
              <LatitudeDegrees>43.32176134921610355377197265625</LatitudeDegrees>
              <LongitudeDegrees>-1.94139562547206878662109375</LongitudeDegrees>
            </Position>
            <AltitudeMeters>28.200000762939453125</AltitudeMeters>
            <DistanceMeters>NAN</DistanceMeters>
          </Trackpoint>
          <Trackpoint>
            <Time>2021-08-11T17:10:07.000Z</Time>
            <Position>
              <LatitudeDegrees>43.32175950519740581512451171875</LatitudeDegrees>
              <LongitudeDegrees>-1.94143124856054782867431640625</LongitudeDegrees>
            </Position>
            <AltitudeMeters>28.200000762939453125</AltitudeMeters>
            <DistanceMeters>NAN</DistanceMeters>
          </Trackpoint>
          <Trackpoint>
            <Time>2021-08-11T17:10:08.000Z</Time>
            <Position>
              <LatitudeDegrees>43.32175916992127895355224609375</LatitudeDegrees>
              <LongitudeDegrees>-1.941464357078075408935546875</LongitudeDegrees>
            </Position>
            <AltitudeMeters>28.6000003814697265625</AltitudeMeters>
            <DistanceMeters>NAN</DistanceMeters>
          </Trackpoint>
          <Trackpoint>
            <Time>2021-08-11T17:10:09.000Z</Time>
            <Position>
              <LatitudeDegrees>43.32175682298839092254638671875</LatitudeDegrees>
              <LongitudeDegrees>-1.94148891605436801910400390625</LongitudeDegrees>
            </Position>
            <AltitudeMeters>28.6000003814697265625</AltitudeMeters>
            <DistanceMeters>NAN</DistanceMeters>
          </Trackpoint>
          <Trackpoint>
            <Time>2021-08-11T17:10:10.000Z</Time>
            <Position>
              <LatitudeDegrees>43.32175481133162975311279296875</LatitudeDegrees>
              <LongitudeDegrees>-1.94151900708675384521484375</LongitudeDegrees>
            </Position>
            <AltitudeMeters>28.799999237060546875</AltitudeMeters>
            <DistanceMeters>NAN</DistanceMeters>
          </Trackpoint>
          <Trackpoint>
            <Time>2021-08-11T17:10:11.000Z</Time>
            <Position>
              <LatitudeDegrees>43.32175665535032749176025390625</LatitudeDegrees>
              <LongitudeDegrees>-1.94154541008174419403076171875</LongitudeDegrees>
            </Position>
            <AltitudeMeters>29</AltitudeMeters>
            <DistanceMeters>NAN</DistanceMeters>
          </Trackpoint>
          <Trackpoint>
            <Time>2021-08-11T17:10:12.000Z</Time>
            <Position>
              <LatitudeDegrees>43.32176000811159610748291015625</LatitudeDegrees>
              <LongitudeDegrees>-1.94157063961029052734375</LongitudeDegrees>
            </Position>
            <AltitudeMeters>29</AltitudeMeters>
            <DistanceMeters>NAN</DistanceMeters>
          </Trackpoint>
          <Trackpoint>
            <Time>2021-08-11T17:10:13.000Z</Time>
            <Position>
              <LatitudeDegrees>43.32175833173096179962158203125</LatitudeDegrees>
              <LongitudeDegrees>-1.94159134291112422943115234375</LongitudeDegrees>
            </Position>
            <AltitudeMeters>29.200000762939453125</AltitudeMeters>
            <DistanceMeters>NAN</DistanceMeters>
          </Trackpoint>
          <Trackpoint>
            <Time>2021-08-11T17:10:14.000Z</Time>
            <Position>
              <LatitudeDegrees>43.32175414077937602996826171875</LatitudeDegrees>
              <LongitudeDegrees>-1.94160827435553073883056640625</LongitudeDegrees>
            </Position>
            <AltitudeMeters>29.200000762939453125</AltitudeMeters>
            <DistanceMeters>NAN</DistanceMeters>
          </Trackpoint>
          <Trackpoint>
            <Time>2021-08-11T17:10:15.000Z</Time>
            <Position>
              <LatitudeDegrees>43.3217490278184413909912109375</LatitudeDegrees>
              <LongitudeDegrees>-1.9416224397718906402587890625</LongitudeDegrees>
            </Position>
            <AltitudeMeters>29.3999996185302734375</AltitudeMeters>
            <DistanceMeters>NAN</DistanceMeters>
          </Trackpoint>
          <Trackpoint>
            <Time>2021-08-11T17:10:16.000Z</Time>
            <Position>
              <LatitudeDegrees>43.3217473514378070831298828125</LatitudeDegrees>
              <LongitudeDegrees>-1.9416336715221405029296875</LongitudeDegrees>
            </Position>
            <AltitudeMeters>29.3999996185302734375</AltitudeMeters>
            <DistanceMeters>NAN</DistanceMeters>
          </Trackpoint>
          <Trackpoint>
            <Time>2021-08-11T17:10:17.000Z</Time>
            <Position>
              <LatitudeDegrees>43.321745507419109344482421875</LatitudeDegrees>
              <LongitudeDegrees>-1.94165487773716449737548828125</LongitudeDegrees>
            </Position>
            <AltitudeMeters>29.6000003814697265625</AltitudeMeters>
            <DistanceMeters>NAN</DistanceMeters>
          </Trackpoint>
          <Trackpoint>
            <Time>2021-08-11T17:10:18.000Z</Time>
            <Position>
              <LatitudeDegrees>43.32174827344715595245361328125</LatitudeDegrees>
              <LongitudeDegrees>-1.94167859852313995361328125</LongitudeDegrees>
            </Position>
            <AltitudeMeters>29.6000003814697265625</AltitudeMeters>
            <DistanceMeters>NAN</DistanceMeters>
          </Trackpoint>
          <Trackpoint>
            <Time>2021-08-11T17:10:19.000Z</Time>
            <Position>
              <LatitudeDegrees>43.3217486925423145294189453125</LatitudeDegrees>
              <LongitudeDegrees>-1.94170835427939891815185546875</LongitudeDegrees>
            </Position>
            <AltitudeMeters>29.799999237060546875</AltitudeMeters>
            <DistanceMeters>NAN</DistanceMeters>
          </Trackpoint>
          <Trackpoint>
            <Time>2021-08-11T17:10:20.000Z</Time>
            <Position>
              <LatitudeDegrees>43.3217480219900608062744140625</LatitudeDegrees>
              <LongitudeDegrees>-1.94173282943665981292724609375</LongitudeDegrees>
            </Position>
            <AltitudeMeters>30</AltitudeMeters>
            <DistanceMeters>NAN</DistanceMeters>
          </Trackpoint>
          <Trackpoint>
            <Time>2021-08-11T17:10:21.000Z</Time>
            <Position>
              <LatitudeDegrees>43.32174693234264850616455078125</LatitudeDegrees>
              <LongitudeDegrees>-1.94176518358290195465087890625</LongitudeDegrees>
            </Position>
            <AltitudeMeters>30</AltitudeMeters>
            <DistanceMeters>NAN</DistanceMeters>
          </Trackpoint>
          <Trackpoint>
            <Time>2021-08-11T17:10:22.000Z</Time>
            <Position>
              <LatitudeDegrees>43.32174777053296566009521484375</LatitudeDegrees>
              <LongitudeDegrees>-1.94180198013782501220703125</LongitudeDegrees>
            </Position>
            <AltitudeMeters>30.200000762939453125</AltitudeMeters>
            <DistanceMeters>NAN</DistanceMeters>
          </Trackpoint>
          <Trackpoint>
            <Time>2021-08-11T17:10:23.000Z</Time>
            <Position>
              <LatitudeDegrees>43.32174525596201419830322265625</LatitudeDegrees>
              <LongitudeDegrees>-1.94185025990009307861328125</LongitudeDegrees>
            </Position>
            <AltitudeMeters>30.200000762939453125</AltitudeMeters>
            <DistanceMeters>NAN</DistanceMeters>
          </Trackpoint>
          <Trackpoint>
            <Time>2021-08-11T17:10:24.000Z</Time>
            <Position>
              <LatitudeDegrees>43.32173838280141353607177734375</LatitudeDegrees>
              <LongitudeDegrees>-1.94188605062663555145263671875</LongitudeDegrees>
            </Position>
            <AltitudeMeters>30.3999996185302734375</AltitudeMeters>
            <DistanceMeters>NAN</DistanceMeters>
          </Trackpoint>
          <Trackpoint>
            <Time>2021-08-11T17:10:25.000Z</Time>
            <Position>
              <LatitudeDegrees>43.32173486240208148956298828125</LatitudeDegrees>
              <LongitudeDegrees>-1.941931731998920440673828125</LongitudeDegrees>
            </Position>
            <AltitudeMeters>30.6000003814697265625</AltitudeMeters>
            <DistanceMeters>NAN</DistanceMeters>
          </Trackpoint>
          <Trackpoint>
            <Time>2021-08-11T17:10:26.000Z</Time>
            <Position>
              <LatitudeDegrees>43.32173452712595462799072265625</LatitudeDegrees>
              <LongitudeDegrees>-1.9419791735708713531494140625</LongitudeDegrees>
            </Position>
            <AltitudeMeters>30.799999237060546875</AltitudeMeters>
            <DistanceMeters>NAN</DistanceMeters>
          </Trackpoint>
          <Trackpoint>
            <Time>2021-08-11T17:10:27.000Z</Time>
            <Position>
              <LatitudeDegrees>43.3217325992882251739501953125</LatitudeDegrees>
              <LongitudeDegrees>-1.942026279866695404052734375</LongitudeDegrees>
            </Position>
            <AltitudeMeters>31</AltitudeMeters>
            <DistanceMeters>NAN</DistanceMeters>
          </Trackpoint>
          <Trackpoint>
            <Time>2021-08-11T17:10:28.000Z</Time>
            <Position>
              <LatitudeDegrees>43.32172933034598827362060546875</LatitudeDegrees>
              <LongitudeDegrees>-1.942084617912769317626953125</LongitudeDegrees>
            </Position>
            <AltitudeMeters>31</AltitudeMeters>
            <DistanceMeters>NAN</DistanceMeters>
          </Trackpoint>
          <Trackpoint>
            <Time>2021-08-11T17:10:29.000Z</Time>
            <Position>
              <LatitudeDegrees>43.32172580994665622711181640625</LatitudeDegrees>
              <LongitudeDegrees>-1.9421337358653545379638671875</LongitudeDegrees>
            </Position>
            <AltitudeMeters>31.200000762939453125</AltitudeMeters>
            <DistanceMeters>NAN</DistanceMeters>
          </Trackpoint>
          <Trackpoint>
            <Time>2021-08-11T17:10:30.000Z</Time>
            <Position>
              <LatitudeDegrees>43.3217118121683597564697265625</LatitudeDegrees>
              <LongitudeDegrees>-1.94218360818922519683837890625</LongitudeDegrees>
            </Position>
            <AltitudeMeters>31.200000762939453125</AltitudeMeters>
            <DistanceMeters>NAN</DistanceMeters>
          </Trackpoint>
          <Trackpoint>
            <Time>2021-08-11T17:10:31.000Z</Time>
            <Position>
              <LatitudeDegrees>43.3216963894665241241455078125</LatitudeDegrees>
              <LongitudeDegrees>-1.94222518242895603179931640625</LongitudeDegrees>
            </Position>
            <AltitudeMeters>31.6000003814697265625</AltitudeMeters>
            <DistanceMeters>NAN</DistanceMeters>
          </Trackpoint>
          <Trackpoint>
            <Time>2021-08-11T17:10:32.000Z</Time>
            <Position>
              <LatitudeDegrees>43.32168658263981342315673828125</LatitudeDegrees>
              <LongitudeDegrees>-1.94227748550474643707275390625</LongitudeDegrees>
            </Position>
            <AltitudeMeters>31.6000003814697265625</AltitudeMeters>
            <DistanceMeters>NAN</DistanceMeters>
          </Trackpoint>
          <Trackpoint>
            <Time>2021-08-11T17:10:33.000Z</Time>
            <Position>
              <LatitudeDegrees>43.32168289460241794586181640625</LatitudeDegrees>
              <LongitudeDegrees>-1.942335404455661773681640625</LongitudeDegrees>
            </Position>
            <AltitudeMeters>31.799999237060546875</AltitudeMeters>
            <DistanceMeters>NAN</DistanceMeters>
          </Trackpoint>
          <Trackpoint>
            <Time>2021-08-11T17:10:34.000Z</Time>
            <Position>
              <LatitudeDegrees>43.3216819725930690765380859375</LatitudeDegrees>
              <LongitudeDegrees>-1.942383013665676116943359375</LongitudeDegrees>
            </Position>
            <AltitudeMeters>32</AltitudeMeters>
            <DistanceMeters>NAN</DistanceMeters>
          </Trackpoint>
          <Trackpoint>
            <Time>2021-08-11T17:10:35.000Z</Time>
            <Position>
              <LatitudeDegrees>43.3216816373169422149658203125</LatitudeDegrees>
              <LongitudeDegrees>-1.94243439473211765289306640625</LongitudeDegrees>
            </Position>
            <AltitudeMeters>32.200000762939453125</AltitudeMeters>
            <DistanceMeters>NAN</DistanceMeters>
          </Trackpoint>
          <Trackpoint>
            <Time>2021-08-11T17:10:36.000Z</Time>
            <Position>
              <LatitudeDegrees>43.32168188877403736114501953125</LatitudeDegrees>
              <LongitudeDegrees>-1.94247764535248279571533203125</LongitudeDegrees>
            </Position>
            <AltitudeMeters>32.40000152587890625</AltitudeMeters>
            <DistanceMeters>NAN</DistanceMeters>
          </Trackpoint>
          <Trackpoint>
            <Time>2021-08-11T17:10:37.000Z</Time>
            <Position>
              <LatitudeDegrees>43.32168155349791049957275390625</LatitudeDegrees>
              <LongitudeDegrees>-1.94252927787601947784423828125</LongitudeDegrees>
            </Position>
            <AltitudeMeters>32.40000152587890625</AltitudeMeters>
            <DistanceMeters>NAN</DistanceMeters>
          </Trackpoint>
          <Trackpoint>
            <Time>2021-08-11T17:10:38.000Z</Time>
            <Position>
              <LatitudeDegrees>43.32168004475533962249755859375</LatitudeDegrees>
              <LongitudeDegrees>-1.94258074276149272918701171875</LongitudeDegrees>
            </Position>
            <AltitudeMeters>32.59999847412109375</AltitudeMeters>
            <DistanceMeters>NAN</DistanceMeters>
          </Trackpoint>
          <Trackpoint>
            <Time>2021-08-11T17:10:39.000Z</Time>
            <Position>
              <LatitudeDegrees>43.3216774463653564453125</LatitudeDegrees>
              <LongitudeDegrees>-1.94263086654245853424072265625</LongitudeDegrees>
            </Position>
            <AltitudeMeters>32.799999237060546875</AltitudeMeters>
            <DistanceMeters>NAN</DistanceMeters>
          </Trackpoint>
          <Trackpoint>
            <Time>2021-08-11T17:10:40.000Z</Time>
            <Position>
              <LatitudeDegrees>43.32167719490826129913330078125</LatitudeDegrees>
              <LongitudeDegrees>-1.94268048740923404693603515625</LongitudeDegrees>
            </Position>
            <AltitudeMeters>33</AltitudeMeters>
            <DistanceMeters>NAN</DistanceMeters>
          </Trackpoint>
          <Trackpoint>
            <Time>2021-08-11T17:10:41.000Z</Time>
            <Position>
              <LatitudeDegrees>43.32167753018438816070556640625</LatitudeDegrees>
              <LongitudeDegrees>-1.9427291862666606903076171875</LongitudeDegrees>
            </Position>
            <AltitudeMeters>33.40000152587890625</AltitudeMeters>
            <DistanceMeters>NAN</DistanceMeters>
          </Trackpoint>
          <Trackpoint>
            <Time>2021-08-11T17:10:42.000Z</Time>
            <Position>
              <LatitudeDegrees>43.32167769782245159149169921875</LatitudeDegrees>
              <LongitudeDegrees>-1.94277838803827762603759765625</LongitudeDegrees>
            </Position>
            <AltitudeMeters>33.40000152587890625</AltitudeMeters>
            <DistanceMeters>NAN</DistanceMeters>
          </Trackpoint>
          <Trackpoint>
            <Time>2021-08-11T17:10:43.000Z</Time>
            <Position>
              <LatitudeDegrees>43.321674428880214691162109375</LatitudeDegrees>
              <LongitudeDegrees>-1.9428272545337677001953125</LongitudeDegrees>
            </Position>
            <AltitudeMeters>33.799999237060546875</AltitudeMeters>
            <DistanceMeters>NAN</DistanceMeters>
          </Trackpoint>
          <Trackpoint>
            <Time>2021-08-11T17:10:44.000Z</Time>
            <Position>
              <LatitudeDegrees>43.32167266868054866790771484375</LatitudeDegrees>
              <LongitudeDegrees>-1.94288693368434906005859375</LongitudeDegrees>
            </Position>
            <AltitudeMeters>33.799999237060546875</AltitudeMeters>
            <DistanceMeters>NAN</DistanceMeters>
          </Trackpoint>
          <Trackpoint>
            <Time>2021-08-11T17:10:45.000Z</Time>
            <Position>
              <LatitudeDegrees>43.32167032174766063690185546875</LatitudeDegrees>
              <LongitudeDegrees>-1.9429372251033782958984375</LongitudeDegrees>
            </Position>
            <AltitudeMeters>34.200000762939453125</AltitudeMeters>
            <DistanceMeters>NAN</DistanceMeters>
          </Trackpoint>
          <Trackpoint>
            <Time>2021-08-11T17:10:46.000Z</Time>
            <Position>
              <LatitudeDegrees>43.321667723357677459716796875</LatitudeDegrees>
              <LongitudeDegrees>-1.9429789669811725616455078125</LongitudeDegrees>
            </Position>
            <AltitudeMeters>34.40000152587890625</AltitudeMeters>
            <DistanceMeters>NAN</DistanceMeters>
          </Trackpoint>
          <Trackpoint>
            <Time>2021-08-11T17:10:47.000Z</Time>
            <Position>
              <LatitudeDegrees>43.3216625265777111053466796875</LatitudeDegrees>
              <LongitudeDegrees>-1.94303219206631183624267578125</LongitudeDegrees>
            </Position>
            <AltitudeMeters>34.59999847412109375</AltitudeMeters>
            <DistanceMeters>NAN</DistanceMeters>
          </Trackpoint>
          <Trackpoint>
            <Time>2021-08-11T17:10:48.000Z</Time>
            <Position>
              <LatitudeDegrees>43.32165808416903018951416015625</LatitudeDegrees>
              <LongitudeDegrees>-1.94308265112340450286865234375</LongitudeDegrees>
            </Position>
            <AltitudeMeters>34.799999237060546875</AltitudeMeters>
            <DistanceMeters>NAN</DistanceMeters>
          </Trackpoint>
          <Trackpoint>
            <Time>2021-08-11T17:10:49.000Z</Time>
            <Position>
              <LatitudeDegrees>43.32165624015033245086669921875</LatitudeDegrees>
              <LongitudeDegrees>-1.9431409053504467010498046875</LongitudeDegrees>
            </Position>
            <AltitudeMeters>35</AltitudeMeters>
            <DistanceMeters>NAN</DistanceMeters>
          </Trackpoint>
          <Trackpoint>
            <Time>2021-08-11T17:10:50.000Z</Time>
            <Position>
              <LatitudeDegrees>43.321653641760349273681640625</LatitudeDegrees>
              <LongitudeDegrees>-1.9431915320456027984619140625</LongitudeDegrees>
            </Position>
            <AltitudeMeters>35.200000762939453125</AltitudeMeters>
            <DistanceMeters>NAN</DistanceMeters>
          </Trackpoint>
          <Trackpoint>
            <Time>2021-08-11T17:10:51.000Z</Time>
            <Position>
              <LatitudeDegrees>43.32165054045617580413818359375</LatitudeDegrees>
              <LongitudeDegrees>-1.9432389736175537109375</LongitudeDegrees>
            </Position>
            <AltitudeMeters>35.40000152587890625</AltitudeMeters>
            <DistanceMeters>NAN</DistanceMeters>
          </Trackpoint>
          <Trackpoint>
            <Time>2021-08-11T17:10:52.000Z</Time>
            <Position>
              <LatitudeDegrees>43.32164735533297061920166015625</LatitudeDegrees>
              <LongitudeDegrees>-1.94327459670603275299072265625</LongitudeDegrees>
            </Position>
            <AltitudeMeters>35.799999237060546875</AltitudeMeters>
            <DistanceMeters>NAN</DistanceMeters>
          </Trackpoint>
          <Trackpoint>
            <Time>2021-08-11T17:10:53.000Z</Time>
            <Position>
              <LatitudeDegrees>43.32164349965751171112060546875</LatitudeDegrees>
              <LongitudeDegrees>-1.94331801496446132659912109375</LongitudeDegrees>
            </Position>
            <AltitudeMeters>36</AltitudeMeters>
            <DistanceMeters>NAN</DistanceMeters>
          </Trackpoint>
          <Trackpoint>
            <Time>2021-08-11T17:10:54.000Z</Time>
            <Position>
              <LatitudeDegrees>43.321638219058513641357421875</LatitudeDegrees>
              <LongitudeDegrees>-1.94336310960352420806884765625</LongitudeDegrees>
            </Position>
            <AltitudeMeters>36.200000762939453125</AltitudeMeters>
            <DistanceMeters>NAN</DistanceMeters>
          </Trackpoint>
          <Trackpoint>
            <Time>2021-08-11T17:10:55.000Z</Time>
            <Position>
              <LatitudeDegrees>43.3216323517262935638427734375</LatitudeDegrees>
              <LongitudeDegrees>-1.9434074498713016510009765625</LongitudeDegrees>
            </Position>
            <AltitudeMeters>36.59999847412109375</AltitudeMeters>
            <DistanceMeters>NAN</DistanceMeters>
          </Trackpoint>
          <Trackpoint>
            <Time>2021-08-11T17:10:56.000Z</Time>
            <Position>
              <LatitudeDegrees>43.32162849605083465576171875</LatitudeDegrees>
              <LongitudeDegrees>-1.9434594176709651947021484375</LongitudeDegrees>
            </Position>
            <AltitudeMeters>36.799999237060546875</AltitudeMeters>
            <DistanceMeters>NAN</DistanceMeters>
          </Trackpoint>
          <Trackpoint>
            <Time>2021-08-11T17:10:57.000Z</Time>
            <Position>
              <LatitudeDegrees>43.321625478565692901611328125</LatitudeDegrees>
              <LongitudeDegrees>-1.9434929452836513519287109375</LongitudeDegrees>
            </Position>
            <AltitudeMeters>37</AltitudeMeters>
            <DistanceMeters>NAN</DistanceMeters>
          </Trackpoint>
          <Trackpoint>
            <Time>2021-08-11T17:10:58.000Z</Time>
            <Position>
              <LatitudeDegrees>43.32162103615701198577880859375</LatitudeDegrees>
              <LongitudeDegrees>-1.94353468716144561767578125</LongitudeDegrees>
            </Position>
            <AltitudeMeters>37.40000152587890625</AltitudeMeters>
            <DistanceMeters>NAN</DistanceMeters>
          </Trackpoint>
          <Trackpoint>
            <Time>2021-08-11T17:10:59.000Z</Time>
            <Position>
              <LatitudeDegrees>43.32161315716803073883056640625</LatitudeDegrees>
              <LongitudeDegrees>-1.94357718341052532196044921875</LongitudeDegrees>
            </Position>
            <AltitudeMeters>37.59999847412109375</AltitudeMeters>
            <DistanceMeters>NAN</DistanceMeters>
          </Trackpoint>
          <Trackpoint>
            <Time>2021-08-11T17:11:00.000Z</Time>
            <Position>
              <LatitudeDegrees>43.3216065354645252227783203125</LatitudeDegrees>
              <LongitudeDegrees>-1.94361993111670017242431640625</LongitudeDegrees>
            </Position>
            <AltitudeMeters>37.59999847412109375</AltitudeMeters>
            <DistanceMeters>NAN</DistanceMeters>
          </Trackpoint>
          <Trackpoint>
            <Time>2021-08-11T17:11:01.000Z</Time>
            <Position>
              <LatitudeDegrees>43.32160091958940029144287109375</LatitudeDegrees>
              <LongitudeDegrees>-1.9436599127948284149169921875</LongitudeDegrees>
            </Position>
            <AltitudeMeters>38</AltitudeMeters>
            <DistanceMeters>NAN</DistanceMeters>
          </Trackpoint>
          <Trackpoint>
            <Time>2021-08-11T17:11:02.000Z</Time>
            <Position>
              <LatitudeDegrees>43.321594633162021636962890625</LatitudeDegrees>
              <LongitudeDegrees>-1.943697296082973480224609375</LongitudeDegrees>
            </Position>
            <AltitudeMeters>38.200000762939453125</AltitudeMeters>
            <DistanceMeters>NAN</DistanceMeters>
          </Trackpoint>
          <Trackpoint>
            <Time>2021-08-11T17:11:03.000Z</Time>
            <Position>
              <LatitudeDegrees>43.3215877600014209747314453125</LatitudeDegrees>
              <LongitudeDegrees>-1.94373643957078456878662109375</LongitudeDegrees>
            </Position>
            <AltitudeMeters>38.40000152587890625</AltitudeMeters>
            <DistanceMeters>NAN</DistanceMeters>
          </Trackpoint>
          <Trackpoint>
            <Time>2021-08-11T17:11:04.000Z</Time>
            <Position>
              <LatitudeDegrees>43.32158155739307403564453125</LatitudeDegrees>
              <LongitudeDegrees>-1.9437759183347225189208984375</LongitudeDegrees>
            </Position>
            <AltitudeMeters>38.59999847412109375</AltitudeMeters>
            <DistanceMeters>NAN</DistanceMeters>
          </Trackpoint>
          <Trackpoint>
            <Time>2021-08-11T17:11:05.000Z</Time>
            <Position>
              <LatitudeDegrees>43.32157552242279052734375</LatitudeDegrees>
              <LongitudeDegrees>-1.94381673820316791534423828125</LongitudeDegrees>
            </Position>
            <AltitudeMeters>38.799999237060546875</AltitudeMeters>
            <DistanceMeters>NAN</DistanceMeters>
          </Trackpoint>
          <Trackpoint>
            <Time>2021-08-11T17:11:06.000Z</Time>
            <Position>
              <LatitudeDegrees>43.32156479358673095703125</LatitudeDegrees>
              <LongitudeDegrees>-1.943861581385135650634765625</LongitudeDegrees>
            </Position>
            <AltitudeMeters>39</AltitudeMeters>
            <DistanceMeters>NAN</DistanceMeters>
          </Trackpoint>
          <Trackpoint>
            <Time>2021-08-11T17:11:07.000Z</Time>
            <Position>
              <LatitudeDegrees>43.32155431620776653289794921875</LatitudeDegrees>
              <LongitudeDegrees>-1.94389435462653636932373046875</LongitudeDegrees>
            </Position>
            <AltitudeMeters>39</AltitudeMeters>
            <DistanceMeters>NAN</DistanceMeters>
          </Trackpoint>
          <Trackpoint>
            <Time>2021-08-11T17:11:08.000Z</Time>
            <Position>
              <LatitudeDegrees>43.3215471915900707244873046875</LatitudeDegrees>
              <LongitudeDegrees>-1.94392067380249500274658203125</LongitudeDegrees>
            </Position>
            <AltitudeMeters>39.200000762939453125</AltitudeMeters>
            <DistanceMeters>NAN</DistanceMeters>
          </Trackpoint>
          <Trackpoint>
            <Time>2021-08-11T17:11:09.000Z</Time>
            <Position>
              <LatitudeDegrees>43.32153537310659885406494140625</LatitudeDegrees>
              <LongitudeDegrees>-1.94395051337778568267822265625</LongitudeDegrees>
            </Position>
            <AltitudeMeters>39.40000152587890625</AltitudeMeters>
            <DistanceMeters>NAN</DistanceMeters>
          </Trackpoint>
          <Trackpoint>
            <Time>2021-08-11T17:11:10.000Z</Time>
            <Position>
              <LatitudeDegrees>43.32152682356536388397216796875</LatitudeDegrees>
              <LongitudeDegrees>-1.94398186169564723968505859375</LongitudeDegrees>
            </Position>
            <AltitudeMeters>39.59999847412109375</AltitudeMeters>
            <DistanceMeters>NAN</DistanceMeters>
          </Trackpoint>
          <Trackpoint>
            <Time>2021-08-11T17:11:11.000Z</Time>
            <Position>
              <LatitudeDegrees>43.32151894457638263702392578125</LatitudeDegrees>
              <LongitudeDegrees>-1.9440119527280330657958984375</LongitudeDegrees>
            </Position>
            <AltitudeMeters>39.799999237060546875</AltitudeMeters>
            <DistanceMeters>NAN</DistanceMeters>
          </Trackpoint>
          <Trackpoint>
            <Time>2021-08-11T17:11:12.000Z</Time>
            <Position>
              <LatitudeDegrees>43.32150779664516448974609375</LatitudeDegrees>
              <LongitudeDegrees>-1.9440391100943088531494140625</LongitudeDegrees>
            </Position>
            <AltitudeMeters>40</AltitudeMeters>
            <DistanceMeters>NAN</DistanceMeters>
          </Trackpoint>
          <Trackpoint>
            <Time>2021-08-11T17:11:13.000Z</Time>
            <Position>
              <LatitudeDegrees>43.3214963972568511962890625</LatitudeDegrees>
              <LongitudeDegrees>-1.94407037459313869476318359375</LongitudeDegrees>
            </Position>
            <AltitudeMeters>40.200000762939453125</AltitudeMeters>
            <DistanceMeters>NAN</DistanceMeters>
          </Trackpoint>
          <Trackpoint>
            <Time>2021-08-11T17:11:14.000Z</Time>
            <Position>
              <LatitudeDegrees>43.321483992040157318115234375</LatitudeDegrees>
              <LongitudeDegrees>-1.94410105235874652862548828125</LongitudeDegrees>
            </Position>
            <AltitudeMeters>40.40000152587890625</AltitudeMeters>
            <DistanceMeters>NAN</DistanceMeters>
          </Trackpoint>
          <Trackpoint>
            <Time>2021-08-11T17:11:15.000Z</Time>
            <Position>
              <LatitudeDegrees>43.32146815024316310882568359375</LatitudeDegrees>
              <LongitudeDegrees>-1.9441279582679271697998046875</LongitudeDegrees>
            </Position>
            <AltitudeMeters>40.59999847412109375</AltitudeMeters>
            <DistanceMeters>NAN</DistanceMeters>
          </Trackpoint>
          <Trackpoint>
            <Time>2021-08-11T17:11:16.000Z</Time>
            <Position>
              <LatitudeDegrees>43.3214549906551837921142578125</LatitudeDegrees>
              <LongitudeDegrees>-1.944175399839878082275390625</LongitudeDegrees>
            </Position>
            <AltitudeMeters>41</AltitudeMeters>
            <DistanceMeters>NAN</DistanceMeters>
          </Trackpoint>
          <Trackpoint>
            <Time>2021-08-11T17:11:17.000Z</Time>
            <Position>
              <LatitudeDegrees>43.321444429457187652587890625</LatitudeDegrees>
              <LongitudeDegrees>-1.9442220032215118408203125</LongitudeDegrees>
            </Position>
            <AltitudeMeters>41</AltitudeMeters>
            <DistanceMeters>NAN</DistanceMeters>
          </Trackpoint>
          <Trackpoint>
            <Time>2021-08-11T17:11:18.000Z</Time>
            <Position>
              <LatitudeDegrees>43.32143210805952548980712890625</LatitudeDegrees>
              <LongitudeDegrees>-1.9442563690245151519775390625</LongitudeDegrees>
            </Position>
            <AltitudeMeters>41.200000762939453125</AltitudeMeters>
            <DistanceMeters>NAN</DistanceMeters>
          </Trackpoint>
          <Trackpoint>
            <Time>2021-08-11T17:11:19.000Z</Time>
            <Position>
              <LatitudeDegrees>43.3214231394231319427490234375</LatitudeDegrees>
              <LongitudeDegrees>-1.944284029304981231689453125</LongitudeDegrees>
            </Position>
            <AltitudeMeters>41.40000152587890625</AltitudeMeters>
            <DistanceMeters>NAN</DistanceMeters>
          </Trackpoint>
          <Trackpoint>
            <Time>2021-08-11T17:11:20.000Z</Time>
            <Position>
              <LatitudeDegrees>43.3214147575199604034423828125</LatitudeDegrees>
              <LongitudeDegrees>-1.94431579671800136566162109375</LongitudeDegrees>
            </Position>
            <AltitudeMeters>41.59999847412109375</AltitudeMeters>
            <DistanceMeters>NAN</DistanceMeters>
          </Trackpoint>
          <Trackpoint>
            <Time>2021-08-11T17:11:21.000Z</Time>
            <Position>
              <LatitudeDegrees>43.32140394486486911773681640625</LatitudeDegrees>
              <LongitudeDegrees>-1.9443427026271820068359375</LongitudeDegrees>
            </Position>
            <AltitudeMeters>41.799999237060546875</AltitudeMeters>
            <DistanceMeters>NAN</DistanceMeters>
          </Trackpoint>
          <Trackpoint>
            <Time>2021-08-11T17:11:22.000Z</Time>
            <Position>
              <LatitudeDegrees>43.3213932998478412628173828125</LatitudeDegrees>
              <LongitudeDegrees>-1.944363825023174285888671875</LongitudeDegrees>
            </Position>
            <AltitudeMeters>42</AltitudeMeters>
            <DistanceMeters>NAN</DistanceMeters>
          </Trackpoint>
          <Trackpoint>
            <Time>2021-08-11T17:11:23.000Z</Time>
            <Position>
              <LatitudeDegrees>43.32138416357338428497314453125</LatitudeDegrees>
              <LongitudeDegrees>-1.94438218139111995697021484375</LongitudeDegrees>
            </Position>
            <AltitudeMeters>42.200000762939453125</AltitudeMeters>
            <DistanceMeters>NAN</DistanceMeters>
          </Trackpoint>
          <Trackpoint>
            <Time>2021-08-11T17:11:24.000Z</Time>
            <Position>
              <LatitudeDegrees>43.32137779332697391510009765625</LatitudeDegrees>
              <LongitudeDegrees>-1.944399364292621612548828125</LongitudeDegrees>
            </Position>
            <AltitudeMeters>42.40000152587890625</AltitudeMeters>
            <DistanceMeters>NAN</DistanceMeters>
          </Trackpoint>
          <Trackpoint>
            <Time>2021-08-11T17:11:25.000Z</Time>
            <Position>
              <LatitudeDegrees>43.3213694952428340911865234375</LatitudeDegrees>
              <LongitudeDegrees>-1.94441713392734527587890625</LongitudeDegrees>
            </Position>
            <AltitudeMeters>42.59999847412109375</AltitudeMeters>
            <DistanceMeters>NAN</DistanceMeters>
          </Trackpoint>
          <Trackpoint>
            <Time>2021-08-11T17:11:26.000Z</Time>
            <Position>
              <LatitudeDegrees>43.32136404700577259063720703125</LatitudeDegrees>
              <LongitudeDegrees>-1.9444330595433712005615234375</LongitudeDegrees>
            </Position>
            <AltitudeMeters>42.799999237060546875</AltitudeMeters>
            <DistanceMeters>NAN</DistanceMeters>
          </Trackpoint>
          <Trackpoint>
            <Time>2021-08-11T17:11:27.000Z</Time>
            <Position>
              <LatitudeDegrees>43.32136094570159912109375</LatitudeDegrees>
              <LongitudeDegrees>-1.94444722495973110198974609375</LongitudeDegrees>
            </Position>
            <AltitudeMeters>42.799999237060546875</AltitudeMeters>
            <DistanceMeters>NAN</DistanceMeters>
          </Trackpoint>
          <Trackpoint>
            <Time>2021-08-11T17:11:28.000Z</Time>
            <Position>
              <LatitudeDegrees>43.3213584311306476593017578125</LatitudeDegrees>
              <LongitudeDegrees>-1.94446248002350330352783203125</LongitudeDegrees>
            </Position>
            <AltitudeMeters>42.799999237060546875</AltitudeMeters>
            <DistanceMeters>NAN</DistanceMeters>
          </Trackpoint>
          <Trackpoint>
            <Time>2021-08-11T17:11:29.000Z</Time>
            <Position>
              <LatitudeDegrees>43.3213574253022670745849609375</LatitudeDegrees>
              <LongitudeDegrees>-1.9444826804101467132568359375</LongitudeDegrees>
            </Position>
            <AltitudeMeters>43</AltitudeMeters>
            <DistanceMeters>NAN</DistanceMeters>
          </Trackpoint>
          <Trackpoint>
            <Time>2021-08-11T17:11:30.000Z</Time>
            <Position>
              <LatitudeDegrees>43.321352563798427581787109375</LatitudeDegrees>
              <LongitudeDegrees>-1.9445081613957881927490234375</LongitudeDegrees>
            </Position>
            <AltitudeMeters>43</AltitudeMeters>
            <DistanceMeters>NAN</DistanceMeters>
          </Trackpoint>
          <Trackpoint>
            <Time>2021-08-11T17:11:31.000Z</Time>
            <Position>
              <LatitudeDegrees>43.32134963013231754302978515625</LatitudeDegrees>
              <LongitudeDegrees>-1.9445403479039669036865234375</LongitudeDegrees>
            </Position>
            <AltitudeMeters>43</AltitudeMeters>
            <DistanceMeters>NAN</DistanceMeters>
          </Trackpoint>
          <Trackpoint>
            <Time>2021-08-11T17:11:32.000Z</Time>
            <Position>
              <LatitudeDegrees>43.32134912721812725067138671875</LatitudeDegrees>
              <LongitudeDegrees>-1.94457395933568477630615234375</LongitudeDegrees>
            </Position>
            <AltitudeMeters>43.200000762939453125</AltitudeMeters>
            <DistanceMeters>NAN</DistanceMeters>
          </Trackpoint>
          <Trackpoint>
            <Time>2021-08-11T17:11:33.000Z</Time>
            <Position>
              <LatitudeDegrees>43.32134543918073177337646484375</LatitudeDegrees>
              <LongitudeDegrees>-1.94460614584386348724365234375</LongitudeDegrees>
            </Position>
            <AltitudeMeters>43.40000152587890625</AltitudeMeters>
            <DistanceMeters>NAN</DistanceMeters>
          </Trackpoint>
          <Trackpoint>
            <Time>2021-08-11T17:11:34.000Z</Time>
            <Position>
              <LatitudeDegrees>43.3213403262197971343994140625</LatitudeDegrees>
              <LongitudeDegrees>-1.9446516595780849456787109375</LongitudeDegrees>
            </Position>
            <AltitudeMeters>43.40000152587890625</AltitudeMeters>
            <DistanceMeters>NAN</DistanceMeters>
          </Trackpoint>
          <Trackpoint>
            <Time>2021-08-11T17:11:35.000Z</Time>
            <Position>
              <LatitudeDegrees>43.3213285915553569793701171875</LatitudeDegrees>
              <LongitudeDegrees>-1.94467990659177303314208984375</LongitudeDegrees>
            </Position>
            <AltitudeMeters>43.40000152587890625</AltitudeMeters>
            <DistanceMeters>NAN</DistanceMeters>
          </Trackpoint>
          <Trackpoint>
            <Time>2021-08-11T17:11:36.000Z</Time>
            <Position>
              <LatitudeDegrees>43.32130730152130126953125</LatitudeDegrees>
              <LongitudeDegrees>-1.94470941089093685150146484375</LongitudeDegrees>
            </Position>
            <AltitudeMeters>43.59999847412109375</AltitudeMeters>
            <DistanceMeters>NAN</DistanceMeters>
          </Trackpoint>
          <Trackpoint>
            <Time>2021-08-11T17:11:37.000Z</Time>
            <Position>
              <LatitudeDegrees>43.3212833292782306671142578125</LatitudeDegrees>
              <LongitudeDegrees>-1.94473237730562686920166015625</LongitudeDegrees>
            </Position>
            <AltitudeMeters>44</AltitudeMeters>
            <DistanceMeters>NAN</DistanceMeters>
          </Trackpoint>
          <Trackpoint>
            <Time>2021-08-11T17:11:38.000Z</Time>
            <Position>
              <LatitudeDegrees>43.32126237452030181884765625</LatitudeDegrees>
              <LongitudeDegrees>-1.944746710360050201416015625</LongitudeDegrees>
            </Position>
            <AltitudeMeters>44</AltitudeMeters>
            <DistanceMeters>NAN</DistanceMeters>
          </Trackpoint>
          <Trackpoint>
            <Time>2021-08-11T17:11:39.000Z</Time>
            <Position>
              <LatitudeDegrees>43.3212404139339923858642578125</LatitudeDegrees>
              <LongitudeDegrees>-1.94475752301514148712158203125</LongitudeDegrees>
            </Position>
            <AltitudeMeters>44.200000762939453125</AltitudeMeters>
            <DistanceMeters>NAN</DistanceMeters>
          </Trackpoint>
          <Trackpoint>
            <Time>2021-08-11T17:11:40.000Z</Time>
            <Position>
              <LatitudeDegrees>43.32121250219643115997314453125</LatitudeDegrees>
              <LongitudeDegrees>-1.9447664916515350341796875</LongitudeDegrees>
            </Position>
            <AltitudeMeters>44.200000762939453125</AltitudeMeters>
            <DistanceMeters>NAN</DistanceMeters>
          </Trackpoint>
          <Trackpoint>
            <Time>2021-08-11T17:11:41.000Z</Time>
            <Position>
              <LatitudeDegrees>43.321177549660205841064453125</LatitudeDegrees>
              <LongitudeDegrees>-1.94477059878408908843994140625</LongitudeDegrees>
            </Position>
            <AltitudeMeters>44.40000152587890625</AltitudeMeters>
            <DistanceMeters>NAN</DistanceMeters>
          </Trackpoint>
          <Trackpoint>
            <Time>2021-08-11T17:11:42.000Z</Time>
            <Position>
              <LatitudeDegrees>43.32113941200077533721923828125</LatitudeDegrees>
              <LongitudeDegrees>-1.94476707838475704193115234375</LongitudeDegrees>
            </Position>
            <AltitudeMeters>44.40000152587890625</AltitudeMeters>
            <DistanceMeters>NAN</DistanceMeters>
          </Trackpoint>
          <Trackpoint>
            <Time>2021-08-11T17:11:43.000Z</Time>
            <Position>
              <LatitudeDegrees>43.3211032859981060028076171875</LatitudeDegrees>
              <LongitudeDegrees>-1.94475349970161914825439453125</LongitudeDegrees>
            </Position>
            <AltitudeMeters>44.40000152587890625</AltitudeMeters>
            <DistanceMeters>NAN</DistanceMeters>
          </Trackpoint>
          <Trackpoint>
            <Time>2021-08-11T17:11:44.000Z</Time>
            <Position>
              <LatitudeDegrees>43.32107151858508586883544921875</LatitudeDegrees>
              <LongitudeDegrees>-1.9447307847440242767333984375</LongitudeDegrees>
            </Position>
            <AltitudeMeters>44.40000152587890625</AltitudeMeters>
            <DistanceMeters>NAN</DistanceMeters>
          </Trackpoint>
          <Trackpoint>
            <Time>2021-08-11T17:11:45.000Z</Time>
            <Position>
              <LatitudeDegrees>43.32104503177106380462646484375</LatitudeDegrees>
              <LongitudeDegrees>-1.94469968788325786590576171875</LongitudeDegrees>
            </Position>
            <AltitudeMeters>44.40000152587890625</AltitudeMeters>
            <DistanceMeters>NAN</DistanceMeters>
          </Trackpoint>
          <Trackpoint>
            <Time>2021-08-11T17:11:46.000Z</Time>
            <Position>
              <LatitudeDegrees>43.32102592103183269500732421875</LatitudeDegrees>
              <LongitudeDegrees>-1.9446617178618907928466796875</LongitudeDegrees>
            </Position>
            <AltitudeMeters>44.40000152587890625</AltitudeMeters>
            <DistanceMeters>NAN</DistanceMeters>
          </Trackpoint>
          <Trackpoint>
            <Time>2021-08-11T17:11:47.000Z</Time>
            <Position>
              <LatitudeDegrees>43.32100756466388702392578125</LatitudeDegrees>
              <LongitudeDegrees>-1.944623328745365142822265625</LongitudeDegrees>
            </Position>
            <AltitudeMeters>44.40000152587890625</AltitudeMeters>
            <DistanceMeters>NAN</DistanceMeters>
          </Trackpoint>
          <Trackpoint>
            <Time>2021-08-11T17:11:48.000Z</Time>
            <Position>
              <LatitudeDegrees>43.32098887301981449127197265625</LatitudeDegrees>
              <LongitudeDegrees>-1.9445839338004589080810546875</LongitudeDegrees>
            </Position>
            <AltitudeMeters>44.40000152587890625</AltitudeMeters>
            <DistanceMeters>NAN</DistanceMeters>
          </Trackpoint>
          <Trackpoint>
            <Time>2021-08-11T17:11:49.000Z</Time>
            <Position>
              <LatitudeDegrees>43.3209680020809173583984375</LatitudeDegrees>
              <LongitudeDegrees>-1.9445463828742504119873046875</LongitudeDegrees>
            </Position>
            <AltitudeMeters>44.40000152587890625</AltitudeMeters>
            <DistanceMeters>NAN</DistanceMeters>
          </Trackpoint>
          <Trackpoint>
            <Time>2021-08-11T17:11:50.000Z</Time>
            <Position>
              <LatitudeDegrees>43.3209436945617198944091796875</LatitudeDegrees>
              <LongitudeDegrees>-1.944514699280261993408203125</LongitudeDegrees>
            </Position>
            <AltitudeMeters>44.200000762939453125</AltitudeMeters>
            <DistanceMeters>NAN</DistanceMeters>
          </Trackpoint>
          <Trackpoint>
            <Time>2021-08-11T17:11:51.000Z</Time>
            <Position>
              <LatitudeDegrees>43.32091343589127063751220703125</LatitudeDegrees>
              <LongitudeDegrees>-1.9444840215146541595458984375</LongitudeDegrees>
            </Position>
            <AltitudeMeters>43.799999237060546875</AltitudeMeters>
            <DistanceMeters>NAN</DistanceMeters>
          </Trackpoint>
          <Trackpoint>
            <Time>2021-08-11T17:11:52.000Z</Time>
            <Position>
              <LatitudeDegrees>43.3208793215453624725341796875</LatitudeDegrees>
              <LongitudeDegrees>-1.94445443339645862579345703125</LongitudeDegrees>
            </Position>
            <AltitudeMeters>43.799999237060546875</AltitudeMeters>
            <DistanceMeters>NAN</DistanceMeters>
          </Trackpoint>
          <Trackpoint>
            <Time>2021-08-11T17:11:53.000Z</Time>
            <Position>
              <LatitudeDegrees>43.3208397589623928070068359375</LatitudeDegrees>
              <LongitudeDegrees>-1.94443163461983203887939453125</LongitudeDegrees>
            </Position>
            <AltitudeMeters>43.40000152587890625</AltitudeMeters>
            <DistanceMeters>NAN</DistanceMeters>
          </Trackpoint>
          <Trackpoint>
            <Time>2021-08-11T17:11:54.000Z</Time>
            <Position>
              <LatitudeDegrees>43.32080028019845485687255859375</LatitudeDegrees>
              <LongitudeDegrees>-1.94441621191799640655517578125</LongitudeDegrees>
            </Position>
            <AltitudeMeters>43.40000152587890625</AltitudeMeters>
            <DistanceMeters>NAN</DistanceMeters>
          </Trackpoint>
          <Trackpoint>
            <Time>2021-08-11T17:11:55.000Z</Time>
            <Position>
              <LatitudeDegrees>43.32076708786189556121826171875</LatitudeDegrees>
              <LongitudeDegrees>-1.94440774619579315185546875</LongitudeDegrees>
            </Position>
            <AltitudeMeters>43.200000762939453125</AltitudeMeters>
            <DistanceMeters>NAN</DistanceMeters>
          </Trackpoint>
          <Trackpoint>
            <Time>2021-08-11T17:11:56.000Z</Time>
            <Position>
              <LatitudeDegrees>43.32073741592466831207275390625</LatitudeDegrees>
              <LongitudeDegrees>-1.94440280087292194366455078125</LongitudeDegrees>
            </Position>
            <AltitudeMeters>43</AltitudeMeters>
            <DistanceMeters>NAN</DistanceMeters>
          </Trackpoint>
          <Trackpoint>
            <Time>2021-08-11T17:11:57.000Z</Time>
            <Position>
              <LatitudeDegrees>43.3207079954445362091064453125</LatitudeDegrees>
              <LongitudeDegrees>-1.9443976879119873046875</LongitudeDegrees>
            </Position>
            <AltitudeMeters>43</AltitudeMeters>
            <DistanceMeters>NAN</DistanceMeters>
          </Trackpoint>
          <Trackpoint>
            <Time>2021-08-11T17:11:58.000Z</Time>
            <Position>
              <LatitudeDegrees>43.3206821791827678680419921875</LatitudeDegrees>
              <LongitudeDegrees>-1.9443911500275135040283203125</LongitudeDegrees>
            </Position>
            <AltitudeMeters>42.799999237060546875</AltitudeMeters>
            <DistanceMeters>NAN</DistanceMeters>
          </Trackpoint>
          <Trackpoint>
            <Time>2021-08-11T17:11:59.000Z</Time>
            <Position>
              <LatitudeDegrees>43.32065678201615810394287109375</LatitudeDegrees>
              <LongitudeDegrees>-1.94438419304788112640380859375</LongitudeDegrees>
            </Position>
            <AltitudeMeters>42.799999237060546875</AltitudeMeters>
            <DistanceMeters>NAN</DistanceMeters>
          </Trackpoint>
          <Trackpoint>
            <Time>2021-08-11T17:12:00.000Z</Time>
            <Position>
              <LatitudeDegrees>43.32063180394470691680908203125</LatitudeDegrees>
              <LongitudeDegrees>-1.94437681697309017181396484375</LongitudeDegrees>
            </Position>
            <AltitudeMeters>42.799999237060546875</AltitudeMeters>
            <DistanceMeters>NAN</DistanceMeters>
          </Trackpoint>
          <Trackpoint>
            <Time>2021-08-11T17:12:02.000Z</Time>
            <Position>
              <LatitudeDegrees>43.32058369182050228118896484375</LatitudeDegrees>
              <LongitudeDegrees>-1.94434630684554576873779296875</LongitudeDegrees>
            </Position>
            <AltitudeMeters>43</AltitudeMeters>
            <DistanceMeters>NAN</DistanceMeters>
          </Trackpoint>
          <Trackpoint>
            <Time>2021-08-11T17:12:03.000Z</Time>
            <Position>
              <LatitudeDegrees>43.32056072540581226348876953125</LatitudeDegrees>
              <LongitudeDegrees>-1.9443247653543949127197265625</LongitudeDegrees>
            </Position>
            <AltitudeMeters>43.200000762939453125</AltitudeMeters>
            <DistanceMeters>NAN</DistanceMeters>
          </Trackpoint>
          <Trackpoint>
            <Time>2021-08-11T17:12:06.000Z</Time>
            <Position>
              <LatitudeDegrees>43.32049467600882053375244140625</LatitudeDegrees>
              <LongitudeDegrees>-1.944251842796802520751953125</LongitudeDegrees>
            </Position>
            <AltitudeMeters>43.799999237060546875</AltitudeMeters>
            <DistanceMeters>NAN</DistanceMeters>
          </Trackpoint>
          <Trackpoint>
            <Time>2021-08-11T17:12:07.000Z</Time>
            <Position>
              <LatitudeDegrees>43.32047707401216030120849609375</LatitudeDegrees>
              <LongitudeDegrees>-1.94423013366758823394775390625</LongitudeDegrees>
            </Position>
            <AltitudeMeters>44.200000762939453125</AltitudeMeters>
            <DistanceMeters>NAN</DistanceMeters>
          </Trackpoint>
          <Trackpoint>
            <Time>2021-08-11T17:12:08.000Z</Time>
            <Position>
              <LatitudeDegrees>43.32046148367226123809814453125</LatitudeDegrees>
              <LongitudeDegrees>-1.9442117772996425628662109375</LongitudeDegrees>
            </Position>
            <AltitudeMeters>44.200000762939453125</AltitudeMeters>
            <DistanceMeters>NAN</DistanceMeters>
          </Trackpoint>
          <Trackpoint>
            <Time>2021-08-11T17:12:09.000Z</Time>
            <Position>
              <LatitudeDegrees>43.32044673152267932891845703125</LatitudeDegrees>
              <LongitudeDegrees>-1.9441893137991428375244140625</LongitudeDegrees>
            </Position>
            <AltitudeMeters>44.59999847412109375</AltitudeMeters>
            <DistanceMeters>NAN</DistanceMeters>
          </Trackpoint>
          <Trackpoint>
            <Time>2021-08-11T17:12:11.000Z</Time>
            <Position>
              <LatitudeDegrees>43.32042074762284755706787109375</LatitudeDegrees>
              <LongitudeDegrees>-1.94413281977176666259765625</LongitudeDegrees>
            </Position>
            <AltitudeMeters>44.799999237060546875</AltitudeMeters>
            <DistanceMeters>NAN</DistanceMeters>
          </Trackpoint>
          <Trackpoint>
            <Time>2021-08-11T17:12:12.000Z</Time>
            <Position>
              <LatitudeDegrees>43.3204038999974727630615234375</LatitudeDegrees>
              <LongitudeDegrees>-1.9441039860248565673828125</LongitudeDegrees>
            </Position>
            <AltitudeMeters>45</AltitudeMeters>
            <DistanceMeters>NAN</DistanceMeters>
          </Trackpoint>
          <Trackpoint>
            <Time>2021-08-11T17:12:13.000Z</Time>
            <Position>
              <LatitudeDegrees>43.32038353197276592254638671875</LatitudeDegrees>
              <LongitudeDegrees>-1.944073475897312164306640625</LongitudeDegrees>
            </Position>
            <AltitudeMeters>45</AltitudeMeters>
            <DistanceMeters>NAN</DistanceMeters>
          </Trackpoint>
          <Trackpoint>
            <Time>2021-08-11T17:12:16.000Z</Time>
            <Position>
              <LatitudeDegrees>43.320321254432201385498046875</LatitudeDegrees>
              <LongitudeDegrees>-1.9439806044101715087890625</LongitudeDegrees>
            </Position>
            <AltitudeMeters>45.200000762939453125</AltitudeMeters>
            <DistanceMeters>NAN</DistanceMeters>
          </Trackpoint>
          <Trackpoint>
            <Time>2021-08-11T17:12:21.000Z</Time>
            <Position>
              <LatitudeDegrees>43.32020868547260761260986328125</LatitudeDegrees>
              <LongitudeDegrees>-1.94380030967295169830322265625</LongitudeDegrees>
            </Position>
            <AltitudeMeters>45.40000152587890625</AltitudeMeters>
            <DistanceMeters>NAN</DistanceMeters>
          </Trackpoint>
          <Trackpoint>
            <Time>2021-08-11T17:12:23.000Z</Time>
            <Position>
              <LatitudeDegrees>43.3201660215854644775390625</LatitudeDegrees>
              <LongitudeDegrees>-1.94376158528029918670654296875</LongitudeDegrees>
            </Position>
            <AltitudeMeters>45.40000152587890625</AltitudeMeters>
            <DistanceMeters>NAN</DistanceMeters>
          </Trackpoint>
          <Trackpoint>
            <Time>2021-08-11T17:12:24.000Z</Time>
            <Position>
              <LatitudeDegrees>43.3201391994953155517578125</LatitudeDegrees>
              <LongitudeDegrees>-1.943749599158763885498046875</LongitudeDegrees>
            </Position>
            <AltitudeMeters>45.40000152587890625</AltitudeMeters>
            <DistanceMeters>NAN</DistanceMeters>
          </Trackpoint>
          <Trackpoint>
            <Time>2021-08-11T17:12:25.000Z</Time>
            <Position>
              <LatitudeDegrees>43.32011304795742034912109375</LatitudeDegrees>
              <LongitudeDegrees>-1.943745575845241546630859375</LongitudeDegrees>
            </Position>
            <AltitudeMeters>45.40000152587890625</AltitudeMeters>
            <DistanceMeters>NAN</DistanceMeters>
          </Trackpoint>
          <Trackpoint>
            <Time>2021-08-11T17:12:26.000Z</Time>
            <Position>
              <LatitudeDegrees>43.32009117119014263153076171875</LatitudeDegrees>
              <LongitudeDegrees>-1.943748258054256439208984375</LongitudeDegrees>
            </Position>
            <AltitudeMeters>45.40000152587890625</AltitudeMeters>
            <DistanceMeters>NAN</DistanceMeters>
          </Trackpoint>
          <Trackpoint>
            <Time>2021-08-11T17:12:29.000Z</Time>
            <Position>
              <LatitudeDegrees>43.320032916963100433349609375</LatitudeDegrees>
              <LongitudeDegrees>-1.94380424916744232177734375</LongitudeDegrees>
            </Position>
            <AltitudeMeters>46</AltitudeMeters>
            <DistanceMeters>NAN</DistanceMeters>
          </Trackpoint>
          <Trackpoint>
            <Time>2021-08-11T17:12:30.000Z</Time>
            <Position>
              <LatitudeDegrees>43.320017158985137939453125</LatitudeDegrees>
              <LongitudeDegrees>-1.943832077085971832275390625</LongitudeDegrees>
            </Position>
            <AltitudeMeters>46.200000762939453125</AltitudeMeters>
            <DistanceMeters>NAN</DistanceMeters>
          </Trackpoint>
          <Trackpoint>
            <Time>2021-08-11T17:12:31.000Z</Time>
            <Position>
              <LatitudeDegrees>43.3200099505484104156494140625</LatitudeDegrees>
              <LongitudeDegrees>-1.94386325776576995849609375</LongitudeDegrees>
            </Position>
            <AltitudeMeters>46.40000152587890625</AltitudeMeters>
            <DistanceMeters>NAN</DistanceMeters>
          </Trackpoint>
          <Trackpoint>
            <Time>2021-08-11T17:12:32.000Z</Time>
            <Position>
              <LatitudeDegrees>43.32001288421452045440673828125</LatitudeDegrees>
              <LongitudeDegrees>-1.9438956119120121002197265625</LongitudeDegrees>
            </Position>
            <AltitudeMeters>46.799999237060546875</AltitudeMeters>
            <DistanceMeters>NAN</DistanceMeters>
          </Trackpoint>
          <Trackpoint>
            <Time>2021-08-11T17:12:33.000Z</Time>
            <Position>
              <LatitudeDegrees>43.3200163207948207855224609375</LatitudeDegrees>
              <LongitudeDegrees>-1.94392855279147624969482421875</LongitudeDegrees>
            </Position>
            <AltitudeMeters>47</AltitudeMeters>
            <DistanceMeters>NAN</DistanceMeters>
          </Trackpoint>
          <Trackpoint>
            <Time>2021-08-11T17:12:34.000Z</Time>
            <Position>
              <LatitudeDegrees>43.3200213499367237091064453125</LatitudeDegrees>
              <LongitudeDegrees>-1.94396023638546466827392578125</LongitudeDegrees>
            </Position>
            <AltitudeMeters>47.200000762939453125</AltitudeMeters>
            <DistanceMeters>NAN</DistanceMeters>
          </Trackpoint>
          <Trackpoint>
            <Time>2021-08-11T17:12:35.000Z</Time>
            <Position>
              <LatitudeDegrees>43.3200263790786266326904296875</LatitudeDegrees>
              <LongitudeDegrees>-1.943993009626865386962890625</LongitudeDegrees>
            </Position>
            <AltitudeMeters>47.59999847412109375</AltitudeMeters>
            <DistanceMeters>NAN</DistanceMeters>
          </Trackpoint>
          <Trackpoint>
            <Time>2021-08-11T17:12:36.000Z</Time>
            <Position>
              <LatitudeDegrees>43.32002780400216579437255859375</LatitudeDegrees>
              <LongitudeDegrees>-1.9440297223627567291259765625</LongitudeDegrees>
            </Position>
            <AltitudeMeters>47.799999237060546875</AltitudeMeters>
            <DistanceMeters>NAN</DistanceMeters>
          </Trackpoint>
          <Trackpoint>
            <Time>2021-08-11T17:12:37.000Z</Time>
            <Position>
              <LatitudeDegrees>43.32002445124089717864990234375</LatitudeDegrees>
              <LongitudeDegrees>-1.94406148977577686309814453125</LongitudeDegrees>
            </Position>
            <AltitudeMeters>48</AltitudeMeters>
            <DistanceMeters>NAN</DistanceMeters>
          </Trackpoint>
          <Trackpoint>
            <Time>2021-08-11T17:12:38.000Z</Time>
            <Position>
              <LatitudeDegrees>43.32002126611769199371337890625</LatitudeDegrees>
              <LongitudeDegrees>-1.94409065879881381988525390625</LongitudeDegrees>
            </Position>
            <AltitudeMeters>48.40000152587890625</AltitudeMeters>
            <DistanceMeters>NAN</DistanceMeters>
          </Trackpoint>
          <Trackpoint>
            <Time>2021-08-11T17:12:39.000Z</Time>
            <Position>
              <LatitudeDegrees>43.32002210430800914764404296875</LatitudeDegrees>
              <LongitudeDegrees>-1.944121420383453369140625</LongitudeDegrees>
            </Position>
            <AltitudeMeters>48.799999237060546875</AltitudeMeters>
            <DistanceMeters>NAN</DistanceMeters>
          </Trackpoint>
          <Trackpoint>
            <Time>2021-08-11T17:12:40.000Z</Time>
            <Position>
              <LatitudeDegrees>43.32002545706927776336669921875</LatitudeDegrees>
              <LongitudeDegrees>-1.94413625635206699371337890625</LongitudeDegrees>
            </Position>
            <AltitudeMeters>49.200000762939453125</AltitudeMeters>
            <DistanceMeters>NAN</DistanceMeters>
          </Trackpoint>
          <Trackpoint>
            <Time>2021-08-11T17:12:41.000Z</Time>
            <Position>
              <LatitudeDegrees>43.32003015093505382537841796875</LatitudeDegrees>
              <LongitudeDegrees>-1.94415000267326831817626953125</LongitudeDegrees>
            </Position>
            <AltitudeMeters>49.40000152587890625</AltitudeMeters>
            <DistanceMeters>NAN</DistanceMeters>
          </Trackpoint>
          <Trackpoint>
            <Time>2021-08-11T17:12:42.000Z</Time>
            <Position>
              <LatitudeDegrees>43.32003350369632244110107421875</LatitudeDegrees>
              <LongitudeDegrees>-1.9441591389477252960205078125</LongitudeDegrees>
            </Position>
            <AltitudeMeters>49.59999847412109375</AltitudeMeters>
            <DistanceMeters>NAN</DistanceMeters>
          </Trackpoint>
          <Trackpoint>
            <Time>2021-08-11T17:12:43.000Z</Time>
            <Position>
              <LatitudeDegrees>43.3200359344482421875</LatitudeDegrees>
              <LongitudeDegrees>-1.9441638328135013580322265625</LongitudeDegrees>
            </Position>
            <AltitudeMeters>49.799999237060546875</AltitudeMeters>
            <DistanceMeters>NAN</DistanceMeters>
          </Trackpoint>
          <Trackpoint>
            <Time>2021-08-11T17:12:45.000Z</Time>
            <Position>
              <LatitudeDegrees>43.3200407959520816802978515625</LatitudeDegrees>
              <LongitudeDegrees>-1.9441685266792774200439453125</LongitudeDegrees>
            </Position>
            <AltitudeMeters>50.200000762939453125</AltitudeMeters>
            <DistanceMeters>NAN</DistanceMeters>
          </Trackpoint>
          <Trackpoint>
            <Time>2021-08-11T17:12:56.000Z</Time>
            <Position>
              <LatitudeDegrees>43.32003350369632244110107421875</LatitudeDegrees>
              <LongitudeDegrees>-1.944191493093967437744140625</LongitudeDegrees>
            </Position>
            <AltitudeMeters>50.799999237060546875</AltitudeMeters>
            <DistanceMeters>NAN</DistanceMeters>
          </Trackpoint>
          <Trackpoint>
            <Time>2021-08-11T17:14:26.000Z</Time>
            <Position>
              <LatitudeDegrees>43.3200485073029994964599609375</LatitudeDegrees>
              <LongitudeDegrees>-1.944215297698974609375</LongitudeDegrees>
            </Position>
            <AltitudeMeters>50.59999847412109375</AltitudeMeters>
            <DistanceMeters>NAN</DistanceMeters>
          </Trackpoint>
          <Trackpoint>
            <Time>2021-08-11T17:16:05.000Z</Time>
            <Position>
              <LatitudeDegrees>43.3200226910412311553955078125</LatitudeDegrees>
              <LongitudeDegrees>-1.94422577507793903350830078125</LongitudeDegrees>
            </Position>
            <AltitudeMeters>50.40000152587890625</AltitudeMeters>
            <DistanceMeters>NAN</DistanceMeters>
          </Trackpoint>
          <Trackpoint>
            <Time>2021-08-11T17:16:06.000Z</Time>
            <Position>
              <LatitudeDegrees>43.32001958973705768585205078125</LatitudeDegrees>
              <LongitudeDegrees>-1.9442406110465526580810546875</LongitudeDegrees>
            </Position>
            <AltitudeMeters>50.40000152587890625</AltitudeMeters>
            <DistanceMeters>NAN</DistanceMeters>
          </Trackpoint>
          <Trackpoint>
            <Time>2021-08-11T17:16:07.000Z</Time>
            <Position>
              <LatitudeDegrees>43.32001673988997936248779296875</LatitudeDegrees>
              <LongitudeDegrees>-1.94425544701516628265380859375</LongitudeDegrees>
            </Position>
            <AltitudeMeters>50.40000152587890625</AltitudeMeters>
            <DistanceMeters>NAN</DistanceMeters>
          </Trackpoint>
          <Trackpoint>
            <Time>2021-08-11T17:16:08.000Z</Time>
            <Position>
              <LatitudeDegrees>43.32001523114740848541259765625</LatitudeDegrees>
              <LongitudeDegrees>-1.94426818750798702239990234375</LongitudeDegrees>
            </Position>
            <AltitudeMeters>50.40000152587890625</AltitudeMeters>
            <DistanceMeters>NAN</DistanceMeters>
          </Trackpoint>
          <Trackpoint>
            <Time>2021-08-11T17:16:09.000Z</Time>
            <Position>
              <LatitudeDegrees>43.3200166560709476470947265625</LatitudeDegrees>
              <LongitudeDegrees>-1.94427589885890483856201171875</LongitudeDegrees>
            </Position>
            <AltitudeMeters>50.40000152587890625</AltitudeMeters>
            <DistanceMeters>NAN</DistanceMeters>
          </Trackpoint>
          <Trackpoint>
            <Time>2021-08-11T17:16:17.000Z</Time>
            <Position>
              <LatitudeDegrees>43.32001288421452045440673828125</LatitudeDegrees>
              <LongitudeDegrees>-1.944277323782444000244140625</LongitudeDegrees>
            </Position>
            <AltitudeMeters>50.799999237060546875</AltitudeMeters>
            <DistanceMeters>NAN</DistanceMeters>
          </Trackpoint>
          <Trackpoint>
            <Time>2021-08-11T17:16:23.000Z</Time>
            <Position>
              <LatitudeDegrees>43.3200109563767910003662109375</LatitudeDegrees>
              <LongitudeDegrees>-1.94427606649696826934814453125</LongitudeDegrees>
            </Position>
            <AltitudeMeters>50.799999237060546875</AltitudeMeters>
            <DistanceMeters>NAN</DistanceMeters>
          </Trackpoint>
          <Trackpoint>
            <Time>2021-08-11T17:16:26.000Z</Time>
            <Position>
              <LatitudeDegrees>43.319997377693653106689453125</LatitudeDegrees>
              <LongitudeDegrees>-1.9443053193390369415283203125</LongitudeDegrees>
            </Position>
            <AltitudeMeters>51</AltitudeMeters>
            <DistanceMeters>NAN</DistanceMeters>
          </Trackpoint>
          <Trackpoint>
            <Time>2021-08-11T17:16:32.000Z</Time>
            <Position>
              <LatitudeDegrees>43.3199911750853061676025390625</LatitudeDegrees>
              <LongitudeDegrees>-1.94431395269930362701416015625</LongitudeDegrees>
            </Position>
            <AltitudeMeters>51</AltitudeMeters>
            <DistanceMeters>NAN</DistanceMeters>
          </Trackpoint>
          <Trackpoint>
            <Time>2021-08-11T17:16:34.000Z</Time>
            <Position>
              <LatitudeDegrees>43.3199911750853061676025390625</LatitudeDegrees>
              <LongitudeDegrees>-1.94431395269930362701416015625</LongitudeDegrees>
            </Position>
            <AltitudeMeters>51</AltitudeMeters>
            <DistanceMeters>NAN</DistanceMeters>
          </Trackpoint>
          <Trackpoint>
            <Time>2021-08-11T17:17:20.000Z</Time>
            <Position>
              <LatitudeDegrees>43.31999260000884532928466796875</LatitudeDegrees>
              <LongitudeDegrees>-1.94433323107659816741943359375</LongitudeDegrees>
            </Position>
            <AltitudeMeters>51.200000762939453125</AltitudeMeters>
            <DistanceMeters>NAN</DistanceMeters>
          </Trackpoint>
          <Trackpoint>
            <Time>2021-08-11T17:17:23.000Z</Time>
            <Position>
              <LatitudeDegrees>43.32003794610500335693359375</LatitudeDegrees>
              <LongitudeDegrees>-1.94440565072000026702880859375</LongitudeDegrees>
            </Position>
            <AltitudeMeters>51.200000762939453125</AltitudeMeters>
            <DistanceMeters>NAN</DistanceMeters>
          </Trackpoint>
          <Trackpoint>
            <Time>2021-08-11T17:17:24.000Z</Time>
            <Position>
              <LatitudeDegrees>43.32004607655107975006103515625</LatitudeDegrees>
              <LongitudeDegrees>-1.944436915218830108642578125</LongitudeDegrees>
            </Position>
            <AltitudeMeters>51.40000152587890625</AltitudeMeters>
            <DistanceMeters>NAN</DistanceMeters>
          </Trackpoint>
          <Trackpoint>
            <Time>2021-08-11T17:17:25.000Z</Time>
            <Position>
              <LatitudeDegrees>43.32005596719682216644287109375</LatitudeDegrees>
              <LongitudeDegrees>-1.9444672577083110809326171875</LongitudeDegrees>
            </Position>
            <AltitudeMeters>51.40000152587890625</AltitudeMeters>
            <DistanceMeters>NAN</DistanceMeters>
          </Trackpoint>
          <Trackpoint>
            <Time>2021-08-11T17:17:28.000Z</Time>
            <Position>
              <LatitudeDegrees>43.32011011429131031036376953125</LatitudeDegrees>
              <LongitudeDegrees>-1.944552250206470489501953125</LongitudeDegrees>
            </Position>
            <AltitudeMeters>52</AltitudeMeters>
            <DistanceMeters>NAN</DistanceMeters>
          </Trackpoint>
          <Trackpoint>
            <Time>2021-08-11T17:17:29.000Z</Time>
            <Position>
              <LatitudeDegrees>43.320120088756084442138671875</LatitudeDegrees>
              <LongitudeDegrees>-1.94458452053368091583251953125</LongitudeDegrees>
            </Position>
            <AltitudeMeters>52.200000762939453125</AltitudeMeters>
            <DistanceMeters>NAN</DistanceMeters>
          </Trackpoint>
          <Trackpoint>
            <Time>2021-08-11T17:17:34.000Z</Time>
            <Position>
              <LatitudeDegrees>43.32017205655574798583984375</LatitudeDegrees>
              <LongitudeDegrees>-1.94472215138375759124755859375</LongitudeDegrees>
            </Position>
            <AltitudeMeters>53.200000762939453125</AltitudeMeters>
            <DistanceMeters>NAN</DistanceMeters>
          </Trackpoint>
          <Trackpoint>
            <Time>2021-08-11T17:17:35.000Z</Time>
            <Position>
              <LatitudeDegrees>43.32018856890499591827392578125</LatitudeDegrees>
              <LongitudeDegrees>-1.94474159739911556243896484375</LongitudeDegrees>
            </Position>
            <AltitudeMeters>53.40000152587890625</AltitudeMeters>
            <DistanceMeters>NAN</DistanceMeters>
          </Trackpoint>
          <Trackpoint>
            <Time>2021-08-11T17:17:38.000Z</Time>
            <Position>
              <LatitudeDegrees>43.320218659937381744384765625</LatitudeDegrees>
              <LongitudeDegrees>-1.94482575170695781707763671875</LongitudeDegrees>
            </Position>
            <AltitudeMeters>54.200000762939453125</AltitudeMeters>
            <DistanceMeters>NAN</DistanceMeters>
          </Trackpoint>
          <Trackpoint>
            <Time>2021-08-11T17:17:39.000Z</Time>
            <Position>
              <LatitudeDegrees>43.32023047842085361480712890625</LatitudeDegrees>
              <LongitudeDegrees>-1.94485039450228214263916015625</LongitudeDegrees>
            </Position>
            <AltitudeMeters>54.40000152587890625</AltitudeMeters>
            <DistanceMeters>NAN</DistanceMeters>
          </Trackpoint>
          <Trackpoint>
            <Time>2021-08-11T17:17:40.000Z</Time>
            <Position>
              <LatitudeDegrees>43.32024271599948406219482421875</LatitudeDegrees>
              <LongitudeDegrees>-1.94487310945987701416015625</LongitudeDegrees>
            </Position>
            <AltitudeMeters>54.799999237060546875</AltitudeMeters>
            <DistanceMeters>NAN</DistanceMeters>
          </Trackpoint>
          <Trackpoint>
            <Time>2021-08-11T17:17:41.000Z</Time>
            <Position>
              <LatitudeDegrees>43.32025294192135334014892578125</LatitudeDegrees>
              <LongitudeDegrees>-1.94489934481680393218994140625</LongitudeDegrees>
            </Position>
            <AltitudeMeters>54.799999237060546875</AltitudeMeters>
            <DistanceMeters>NAN</DistanceMeters>
          </Trackpoint>
          <Trackpoint>
            <Time>2021-08-11T17:17:42.000Z</Time>
            <Position>
              <LatitudeDegrees>43.32026031799614429473876953125</LatitudeDegrees>
              <LongitudeDegrees>-1.9449275918304920196533203125</LongitudeDegrees>
            </Position>
            <AltitudeMeters>55.200000762939453125</AltitudeMeters>
            <DistanceMeters>NAN</DistanceMeters>
          </Trackpoint>
          <Trackpoint>
            <Time>2021-08-11T17:17:43.000Z</Time>
            <Position>
              <LatitudeDegrees>43.32026551477611064910888671875</LatitudeDegrees>
              <LongitudeDegrees>-1.94495801813900470733642578125</LongitudeDegrees>
            </Position>
            <AltitudeMeters>55.59999847412109375</AltitudeMeters>
            <DistanceMeters>NAN</DistanceMeters>
          </Trackpoint>
          <Trackpoint>
            <Time>2021-08-11T17:17:44.000Z</Time>
            <Position>
              <LatitudeDegrees>43.3202704600989818572998046875</LatitudeDegrees>
              <LongitudeDegrees>-1.94498450495302677154541015625</LongitudeDegrees>
            </Position>
            <AltitudeMeters>55.799999237060546875</AltitudeMeters>
            <DistanceMeters>NAN</DistanceMeters>
          </Trackpoint>
          <Trackpoint>
            <Time>2021-08-11T17:17:45.000Z</Time>
            <Position>
              <LatitudeDegrees>43.320273645222187042236328125</LatitudeDegrees>
              <LongitudeDegrees>-1.945006214082241058349609375</LongitudeDegrees>
            </Position>
            <AltitudeMeters>56</AltitudeMeters>
            <DistanceMeters>NAN</DistanceMeters>
          </Trackpoint>
          <Trackpoint>
            <Time>2021-08-11T17:17:46.000Z</Time>
            <Position>
              <LatitudeDegrees>43.32027574069797992706298828125</LatitudeDegrees>
              <LongitudeDegrees>-1.9450258277356624603271484375</LongitudeDegrees>
            </Position>
            <AltitudeMeters>56.200000762939453125</AltitudeMeters>
            <DistanceMeters>NAN</DistanceMeters>
          </Trackpoint>
          <Trackpoint>
            <Time>2021-08-11T17:17:47.000Z</Time>
            <Position>
              <LatitudeDegrees>43.32027800381183624267578125</LatitudeDegrees>
              <LongitudeDegrees>-1.9450449384748935699462890625</LongitudeDegrees>
            </Position>
            <AltitudeMeters>56.59999847412109375</AltitudeMeters>
            <DistanceMeters>NAN</DistanceMeters>
          </Trackpoint>
          <Trackpoint>
            <Time>2021-08-11T17:17:48.000Z</Time>
            <Position>
              <LatitudeDegrees>43.3202811889350414276123046875</LatitudeDegrees>
              <LongitudeDegrees>-1.9450710900127887725830078125</LongitudeDegrees>
            </Position>
            <AltitudeMeters>56.799999237060546875</AltitudeMeters>
            <DistanceMeters>NAN</DistanceMeters>
          </Trackpoint>
          <Trackpoint>
            <Time>2021-08-11T17:17:49.000Z</Time>
            <Position>
              <LatitudeDegrees>43.32028479315340518951416015625</LatitudeDegrees>
              <LongitudeDegrees>-1.9450962357223033905029296875</LongitudeDegrees>
            </Position>
            <AltitudeMeters>57</AltitudeMeters>
            <DistanceMeters>NAN</DistanceMeters>
          </Trackpoint>
          <Trackpoint>
            <Time>2021-08-11T17:17:50.000Z</Time>
            <Position>
              <LatitudeDegrees>43.32028739154338836669921875</LatitudeDegrees>
              <LongitudeDegrees>-1.94511945359408855438232421875</LongitudeDegrees>
            </Position>
            <AltitudeMeters>57.200000762939453125</AltitudeMeters>
            <DistanceMeters>NAN</DistanceMeters>
          </Trackpoint>
          <Trackpoint>
            <Time>2021-08-11T17:17:51.000Z</Time>
            <Position>
              <LatitudeDegrees>43.32028630189597606658935546875</LatitudeDegrees>
              <LongitudeDegrees>-1.94514778442680835723876953125</LongitudeDegrees>
            </Position>
            <AltitudeMeters>57.200000762939453125</AltitudeMeters>
            <DistanceMeters>NAN</DistanceMeters>
          </Trackpoint>
          <Trackpoint>
            <Time>2021-08-11T17:17:52.000Z</Time>
            <Position>
              <LatitudeDegrees>43.3202862180769443511962890625</LatitudeDegrees>
              <LongitudeDegrees>-1.9451683200895786285400390625</LongitudeDegrees>
            </Position>
            <AltitudeMeters>57.59999847412109375</AltitudeMeters>
            <DistanceMeters>NAN</DistanceMeters>
          </Trackpoint>
          <Trackpoint>
            <Time>2021-08-11T17:17:53.000Z</Time>
            <Position>
              <LatitudeDegrees>43.32028596661984920501708984375</LatitudeDegrees>
              <LongitudeDegrees>-1.945194303989410400390625</LongitudeDegrees>
            </Position>
            <AltitudeMeters>57.799999237060546875</AltitudeMeters>
            <DistanceMeters>NAN</DistanceMeters>
          </Trackpoint>
          <Trackpoint>
            <Time>2021-08-11T17:17:54.000Z</Time>
            <Position>
              <LatitudeDegrees>43.3202855475246906280517578125</LatitudeDegrees>
              <LongitudeDegrees>-1.9452286697924137115478515625</LongitudeDegrees>
            </Position>
            <AltitudeMeters>57.799999237060546875</AltitudeMeters>
            <DistanceMeters>NAN</DistanceMeters>
          </Trackpoint>
          <Trackpoint>
            <Time>2021-08-11T17:17:55.000Z</Time>
            <Position>
              <LatitudeDegrees>43.32028730772435665130615234375</LatitudeDegrees>
              <LongitudeDegrees>-1.94525540806353092193603515625</LongitudeDegrees>
            </Position>
            <AltitudeMeters>58</AltitudeMeters>
            <DistanceMeters>NAN</DistanceMeters>
          </Trackpoint>
          <Trackpoint>
            <Time>2021-08-11T17:17:56.000Z</Time>
            <Position>
              <LatitudeDegrees>43.3202899061143398284912109375</LatitudeDegrees>
              <LongitudeDegrees>-1.94528692401945590972900390625</LongitudeDegrees>
            </Position>
            <AltitudeMeters>58.200000762939453125</AltitudeMeters>
            <DistanceMeters>NAN</DistanceMeters>
          </Trackpoint>
          <Trackpoint>
            <Time>2021-08-11T17:17:57.000Z</Time>
            <Position>
              <LatitudeDegrees>43.32029166631400585174560546875</LatitudeDegrees>
              <LongitudeDegrees>-1.9453138299286365509033203125</LongitudeDegrees>
            </Position>
            <AltitudeMeters>58.40000152587890625</AltitudeMeters>
            <DistanceMeters>NAN</DistanceMeters>
          </Trackpoint>
          <Trackpoint>
            <Time>2021-08-11T17:17:58.000Z</Time>
            <Position>
              <LatitudeDegrees>43.32029334269464015960693359375</LatitudeDegrees>
              <LongitudeDegrees>-1.945337466895580291748046875</LongitudeDegrees>
            </Position>
            <AltitudeMeters>58.40000152587890625</AltitudeMeters>
            <DistanceMeters>NAN</DistanceMeters>
          </Trackpoint>
          <Trackpoint>
            <Time>2021-08-11T17:17:59.000Z</Time>
            <Position>
              <LatitudeDegrees>43.32029518671333789825439453125</LatitudeDegrees>
              <LongitudeDegrees>-1.94535993039608001708984375</LongitudeDegrees>
            </Position>
            <AltitudeMeters>58.59999847412109375</AltitudeMeters>
            <DistanceMeters>NAN</DistanceMeters>
          </Trackpoint>
          <Trackpoint>
            <Time>2021-08-11T17:18:00.000Z</Time>
            <Position>
              <LatitudeDegrees>43.3202947676181793212890625</LatitudeDegrees>
              <LongitudeDegrees>-1.9453833997249603271484375</LongitudeDegrees>
            </Position>
            <AltitudeMeters>58.59999847412109375</AltitudeMeters>
            <DistanceMeters>NAN</DistanceMeters>
          </Trackpoint>
          <Trackpoint>
            <Time>2021-08-11T17:18:01.000Z</Time>
            <Position>
              <LatitudeDegrees>43.32029032520949840545654296875</LatitudeDegrees>
              <LongitudeDegrees>-1.94540678523480892181396484375</LongitudeDegrees>
            </Position>
            <AltitudeMeters>59</AltitudeMeters>
            <DistanceMeters>NAN</DistanceMeters>
          </Trackpoint>
          <Trackpoint>
            <Time>2021-08-11T17:18:02.000Z</Time>
            <Position>
              <LatitudeDegrees>43.32027875818312168121337890625</LatitudeDegrees>
              <LongitudeDegrees>-1.9454263150691986083984375</LongitudeDegrees>
            </Position>
            <AltitudeMeters>59.200000762939453125</AltitudeMeters>
            <DistanceMeters>NAN</DistanceMeters>
          </Trackpoint>
          <Trackpoint>
            <Time>2021-08-11T17:18:03.000Z</Time>
            <Position>
              <LatitudeDegrees>43.32026534713804721832275390625</LatitudeDegrees>
              <LongitudeDegrees>-1.9454439170658588409423828125</LongitudeDegrees>
            </Position>
            <AltitudeMeters>59.40000152587890625</AltitudeMeters>
            <DistanceMeters>NAN</DistanceMeters>
          </Trackpoint>
          <Trackpoint>
            <Time>2021-08-11T17:18:04.000Z</Time>
            <Position>
              <LatitudeDegrees>43.3202479965984821319580078125</LatitudeDegrees>
              <LongitudeDegrees>-1.94545623846352100372314453125</LongitudeDegrees>
            </Position>
            <AltitudeMeters>59.799999237060546875</AltitudeMeters>
            <DistanceMeters>NAN</DistanceMeters>
          </Trackpoint>
          <Trackpoint>
            <Time>2021-08-11T17:18:05.000Z</Time>
            <Position>
              <LatitudeDegrees>43.3202272094786167144775390625</LatitudeDegrees>
              <LongitudeDegrees>-1.94546428509056568145751953125</LongitudeDegrees>
            </Position>
            <AltitudeMeters>59.799999237060546875</AltitudeMeters>
            <DistanceMeters>NAN</DistanceMeters>
          </Trackpoint>
          <Trackpoint>
            <Time>2021-08-11T17:18:06.000Z</Time>
            <Position>
              <LatitudeDegrees>43.32020063884556293487548828125</LatitudeDegrees>
              <LongitudeDegrees>-1.9454719126224517822265625</LongitudeDegrees>
            </Position>
            <AltitudeMeters>60.200000762939453125</AltitudeMeters>
            <DistanceMeters>NAN</DistanceMeters>
          </Trackpoint>
          <Trackpoint>
            <Time>2021-08-11T17:18:07.000Z</Time>
            <Position>
              <LatitudeDegrees>43.32017834298312664031982421875</LatitudeDegrees>
              <LongitudeDegrees>-1.94547400809824466705322265625</LongitudeDegrees>
            </Position>
            <AltitudeMeters>60.200000762939453125</AltitudeMeters>
            <DistanceMeters>NAN</DistanceMeters>
          </Trackpoint>
          <Trackpoint>
            <Time>2021-08-11T17:18:08.000Z</Time>
            <Position>
              <LatitudeDegrees>43.3201614953577518463134765625</LatitudeDegrees>
              <LongitudeDegrees>-1.94547451101243495941162109375</LongitudeDegrees>
            </Position>
            <AltitudeMeters>60.40000152587890625</AltitudeMeters>
            <DistanceMeters>NAN</DistanceMeters>
          </Trackpoint>
          <Trackpoint>
            <Time>2021-08-11T17:18:09.000Z</Time>
            <Position>
              <LatitudeDegrees>43.32014246843755245208740234375</LatitudeDegrees>
              <LongitudeDegrees>-1.94547467865049839019775390625</LongitudeDegrees>
            </Position>
            <AltitudeMeters>60.59999847412109375</AltitudeMeters>
            <DistanceMeters>NAN</DistanceMeters>
          </Trackpoint>
          <Trackpoint>
            <Time>2021-08-11T17:18:10.000Z</Time>
            <Position>
              <LatitudeDegrees>43.32012654282152652740478515625</LatitudeDegrees>
              <LongitudeDegrees>-1.94547367282211780548095703125</LongitudeDegrees>
            </Position>
            <AltitudeMeters>60.59999847412109375</AltitudeMeters>
            <DistanceMeters>NAN</DistanceMeters>
          </Trackpoint>
          <Trackpoint>
            <Time>2021-08-11T17:18:11.000Z</Time>
            <Position>
              <LatitudeDegrees>43.32011078484356403350830078125</LatitudeDegrees>
              <LongitudeDegrees>-1.94547526538372039794921875</LongitudeDegrees>
            </Position>
            <AltitudeMeters>60.59999847412109375</AltitudeMeters>
            <DistanceMeters>NAN</DistanceMeters>
          </Trackpoint>
          <Trackpoint>
            <Time>2021-08-11T17:18:12.000Z</Time>
            <Position>
              <LatitudeDegrees>43.32009569741785526275634765625</LatitudeDegrees>
              <LongitudeDegrees>-1.9454757682979106903076171875</LongitudeDegrees>
            </Position>
            <AltitudeMeters>60.59999847412109375</AltitudeMeters>
            <DistanceMeters>NAN</DistanceMeters>
          </Trackpoint>
          <Trackpoint>
            <Time>2021-08-11T17:18:13.000Z</Time>
            <Position>
              <LatitudeDegrees>43.32007558085024356842041015625</LatitudeDegrees>
              <LongitudeDegrees>-1.9454797916114330291748046875</LongitudeDegrees>
            </Position>
            <AltitudeMeters>60.59999847412109375</AltitudeMeters>
            <DistanceMeters>NAN</DistanceMeters>
          </Trackpoint>
          <Trackpoint>
            <Time>2021-08-11T17:18:14.000Z</Time>
            <Position>
              <LatitudeDegrees>43.32005898468196392059326171875</LatitudeDegrees>
              <LongitudeDegrees>-1.94548339582979679107666015625</LongitudeDegrees>
            </Position>
            <AltitudeMeters>60.799999237060546875</AltitudeMeters>
            <DistanceMeters>NAN</DistanceMeters>
          </Trackpoint>
          <Trackpoint>
            <Time>2021-08-11T17:18:15.000Z</Time>
            <Position>
              <LatitudeDegrees>43.3200387842953205108642578125</LatitudeDegrees>
              <LongitudeDegrees>-1.94548591040074825286865234375</LongitudeDegrees>
            </Position>
            <AltitudeMeters>60.799999237060546875</AltitudeMeters>
            <DistanceMeters>NAN</DistanceMeters>
          </Trackpoint>
          <Trackpoint>
            <Time>2021-08-11T17:18:16.000Z</Time>
            <Position>
              <LatitudeDegrees>43.32001958973705768585205078125</LatitudeDegrees>
              <LongitudeDegrees>-1.94548666477203369140625</LongitudeDegrees>
            </Position>
            <AltitudeMeters>60.59999847412109375</AltitudeMeters>
            <DistanceMeters>NAN</DistanceMeters>
          </Trackpoint>
          <Trackpoint>
            <Time>2021-08-11T17:18:17.000Z</Time>
            <Position>
              <LatitudeDegrees>43.31999695859849452972412109375</LatitudeDegrees>
              <LongitudeDegrees>-1.94548733532428741455078125</LongitudeDegrees>
            </Position>
            <AltitudeMeters>60.799999237060546875</AltitudeMeters>
            <DistanceMeters>NAN</DistanceMeters>
          </Trackpoint>
          <Trackpoint>
            <Time>2021-08-11T17:18:18.000Z</Time>
            <Position>
              <LatitudeDegrees>43.31998002715408802032470703125</LatitudeDegrees>
              <LongitudeDegrees>-1.9454871676862239837646484375</LongitudeDegrees>
            </Position>
            <AltitudeMeters>60.799999237060546875</AltitudeMeters>
            <DistanceMeters>NAN</DistanceMeters>
          </Trackpoint>
          <Trackpoint>
            <Time>2021-08-11T17:18:19.000Z</Time>
            <Position>
              <LatitudeDegrees>43.31996577791869640350341796875</LatitudeDegrees>
              <LongitudeDegrees>-1.945486329495906829833984375</LongitudeDegrees>
            </Position>
            <AltitudeMeters>60.799999237060546875</AltitudeMeters>
            <DistanceMeters>NAN</DistanceMeters>
          </Trackpoint>
          <Trackpoint>
            <Time>2021-08-11T17:18:20.000Z</Time>
            <Position>
              <LatitudeDegrees>43.319949097931385040283203125</LatitudeDegrees>
              <LongitudeDegrees>-1.94548758678138256072998046875</LongitudeDegrees>
            </Position>
            <AltitudeMeters>60.799999237060546875</AltitudeMeters>
            <DistanceMeters>NAN</DistanceMeters>
          </Trackpoint>
          <Trackpoint>
            <Time>2021-08-11T17:18:21.000Z</Time>
            <Position>
              <LatitudeDegrees>43.31993191502988338470458984375</LatitudeDegrees>
              <LongitudeDegrees>-1.9454878382384777069091796875</LongitudeDegrees>
            </Position>
            <AltitudeMeters>60.799999237060546875</AltitudeMeters>
            <DistanceMeters>NAN</DistanceMeters>
          </Trackpoint>
          <Trackpoint>
            <Time>2021-08-11T17:18:22.000Z</Time>
            <Position>
              <LatitudeDegrees>43.3199174143373966217041015625</LatitudeDegrees>
              <LongitudeDegrees>-1.94548674859106540679931640625</LongitudeDegrees>
            </Position>
            <AltitudeMeters>60.59999847412109375</AltitudeMeters>
            <DistanceMeters>NAN</DistanceMeters>
          </Trackpoint>
          <Trackpoint>
            <Time>2021-08-11T17:18:23.000Z</Time>
            <Position>
              <LatitudeDegrees>43.3199043385684490203857421875</LatitudeDegrees>
              <LongitudeDegrees>-1.945484317839145660400390625</LongitudeDegrees>
            </Position>
            <AltitudeMeters>60.59999847412109375</AltitudeMeters>
            <DistanceMeters>NAN</DistanceMeters>
          </Trackpoint>
          <Trackpoint>
            <Time>2021-08-11T17:18:24.000Z</Time>
            <Position>
              <LatitudeDegrees>43.31989352591335773468017578125</LatitudeDegrees>
              <LongitudeDegrees>-1.945480965077877044677734375</LongitudeDegrees>
            </Position>
            <AltitudeMeters>60.799999237060546875</AltitudeMeters>
            <DistanceMeters>NAN</DistanceMeters>
          </Trackpoint>
          <Trackpoint>
            <Time>2021-08-11T17:18:25.000Z</Time>
            <Position>
              <LatitudeDegrees>43.31988128833472728729248046875</LatitudeDegrees>
              <LongitudeDegrees>-1.945478618144989013671875</LongitudeDegrees>
            </Position>
            <AltitudeMeters>60.799999237060546875</AltitudeMeters>
            <DistanceMeters>NAN</DistanceMeters>
          </Trackpoint>
          <Trackpoint>
            <Time>2021-08-11T17:18:26.000Z</Time>
            <Position>
              <LatitudeDegrees>43.3198708109557628631591796875</LatitudeDegrees>
              <LongitudeDegrees>-1.94547853432595729827880859375</LongitudeDegrees>
            </Position>
            <AltitudeMeters>61</AltitudeMeters>
            <DistanceMeters>NAN</DistanceMeters>
          </Trackpoint>
          <Trackpoint>
            <Time>2021-08-11T17:18:27.000Z</Time>
            <Position>
              <LatitudeDegrees>43.31986150704324245452880859375</LatitudeDegrees>
              <LongitudeDegrees>-1.94547954015433788299560546875</LongitudeDegrees>
            </Position>
            <AltitudeMeters>61</AltitudeMeters>
            <DistanceMeters>NAN</DistanceMeters>
          </Trackpoint>
          <Trackpoint>
            <Time>2021-08-11T17:18:28.000Z</Time>
            <Position>
              <LatitudeDegrees>43.31985144875943660736083984375</LatitudeDegrees>
              <LongitudeDegrees>-1.94548205472528934478759765625</LongitudeDegrees>
            </Position>
            <AltitudeMeters>61</AltitudeMeters>
            <DistanceMeters>NAN</DistanceMeters>
          </Trackpoint>
          <Trackpoint>
            <Time>2021-08-11T17:18:29.000Z</Time>
            <Position>
              <LatitudeDegrees>43.3198423124849796295166015625</LatitudeDegrees>
              <LongitudeDegrees>-1.945486329495906829833984375</LongitudeDegrees>
            </Position>
            <AltitudeMeters>61</AltitudeMeters>
            <DistanceMeters>NAN</DistanceMeters>
          </Trackpoint>
          <Trackpoint>
            <Time>2021-08-11T17:18:30.000Z</Time>
            <Position>
              <LatitudeDegrees>43.3198339305818080902099609375</LatitudeDegrees>
              <LongitudeDegrees>-1.94549001753330230712890625</LongitudeDegrees>
            </Position>
            <AltitudeMeters>61</AltitudeMeters>
            <DistanceMeters>NAN</DistanceMeters>
          </Trackpoint>
          <Trackpoint>
            <Time>2021-08-11T17:18:31.000Z</Time>
            <Position>
              <LatitudeDegrees>43.31982345320284366607666015625</LatitudeDegrees>
              <LongitudeDegrees>-1.94549311883747577667236328125</LongitudeDegrees>
            </Position>
            <AltitudeMeters>61</AltitudeMeters>
            <DistanceMeters>NAN</DistanceMeters>
          </Trackpoint>
          <Trackpoint>
            <Time>2021-08-11T17:18:32.000Z</Time>
            <Position>
              <LatitudeDegrees>43.31981289200484752655029296875</LatitudeDegrees>
              <LongitudeDegrees>-1.94549764506518840789794921875</LongitudeDegrees>
            </Position>
            <AltitudeMeters>61</AltitudeMeters>
            <DistanceMeters>NAN</DistanceMeters>
          </Trackpoint>
          <Trackpoint>
            <Time>2021-08-11T17:18:33.000Z</Time>
            <Position>
              <LatitudeDegrees>43.31980057060718536376953125</LatitudeDegrees>
              <LongitudeDegrees>-1.94549739360809326171875</LongitudeDegrees>
            </Position>
            <AltitudeMeters>61</AltitudeMeters>
            <DistanceMeters>NAN</DistanceMeters>
          </Trackpoint>
          <Trackpoint>
            <Time>2021-08-11T17:18:34.000Z</Time>
            <Position>
              <LatitudeDegrees>43.31978338770568370819091796875</LatitudeDegrees>
              <LongitudeDegrees>-1.94549161009490489959716796875</LongitudeDegrees>
            </Position>
            <AltitudeMeters>61</AltitudeMeters>
            <DistanceMeters>NAN</DistanceMeters>
          </Trackpoint>
          <Trackpoint>
            <Time>2021-08-11T17:18:35.000Z</Time>
            <Position>
              <LatitudeDegrees>43.319764696061611175537109375</LatitudeDegrees>
              <LongitudeDegrees>-1.9454797916114330291748046875</LongitudeDegrees>
            </Position>
            <AltitudeMeters>61</AltitudeMeters>
            <DistanceMeters>NAN</DistanceMeters>
          </Trackpoint>
          <Trackpoint>
            <Time>2021-08-11T17:18:36.000Z</Time>
            <Position>
              <LatitudeDegrees>43.31975053064525127410888671875</LatitudeDegrees>
              <LongitudeDegrees>-1.94547015242278575897216796875</LongitudeDegrees>
            </Position>
            <AltitudeMeters>61</AltitudeMeters>
            <DistanceMeters>NAN</DistanceMeters>
          </Trackpoint>
          <Trackpoint>
            <Time>2021-08-11T17:18:37.000Z</Time>
            <Position>
              <LatitudeDegrees>43.319731168448925018310546875</LatitudeDegrees>
              <LongitudeDegrees>-1.94545120932161808013916015625</LongitudeDegrees>
            </Position>
            <AltitudeMeters>61</AltitudeMeters>
            <DistanceMeters>NAN</DistanceMeters>
          </Trackpoint>
          <Trackpoint>
            <Time>2021-08-11T17:18:38.000Z</Time>
            <Position>
              <LatitudeDegrees>43.3197152428328990936279296875</LatitudeDegrees>
              <LongitudeDegrees>-1.94542656652629375457763671875</LongitudeDegrees>
            </Position>
            <AltitudeMeters>61</AltitudeMeters>
            <DistanceMeters>NAN</DistanceMeters>
          </Trackpoint>
          <Trackpoint>
            <Time>2021-08-11T17:18:39.000Z</Time>
            <Position>
              <LatitudeDegrees>43.31970107741653919219970703125</LatitudeDegrees>
              <LongitudeDegrees>-1.94540477357804775238037109375</LongitudeDegrees>
            </Position>
            <AltitudeMeters>61</AltitudeMeters>
            <DistanceMeters>NAN</DistanceMeters>
          </Trackpoint>
          <Trackpoint>
            <Time>2021-08-11T17:18:40.000Z</Time>
            <Position>
              <LatitudeDegrees>43.31968800164759159088134765625</LatitudeDegrees>
              <LongitudeDegrees>-1.9453745149075984954833984375</LongitudeDegrees>
            </Position>
            <AltitudeMeters>61</AltitudeMeters>
            <DistanceMeters>NAN</DistanceMeters>
          </Trackpoint>
          <Trackpoint>
            <Time>2021-08-11T17:18:41.000Z</Time>
            <Position>
              <LatitudeDegrees>43.319679200649261474609375</LatitudeDegrees>
              <LongitudeDegrees>-1.94535230286419391632080078125</LongitudeDegrees>
            </Position>
            <AltitudeMeters>61</AltitudeMeters>
            <DistanceMeters>NAN</DistanceMeters>
          </Trackpoint>
          <Trackpoint>
            <Time>2021-08-11T17:18:42.000Z</Time>
            <Position>
              <LatitudeDegrees>43.319662772119045257568359375</LatitudeDegrees>
              <LongitudeDegrees>-1.945326738059520721435546875</LongitudeDegrees>
            </Position>
            <AltitudeMeters>61</AltitudeMeters>
            <DistanceMeters>NAN</DistanceMeters>
          </Trackpoint>
          <Trackpoint>
            <Time>2021-08-11T17:18:43.000Z</Time>
            <Position>
              <LatitudeDegrees>43.31964768469333648681640625</LatitudeDegrees>
              <LongitudeDegrees>-1.945312656462192535400390625</LongitudeDegrees>
            </Position>
            <AltitudeMeters>61.200000762939453125</AltitudeMeters>
            <DistanceMeters>NAN</DistanceMeters>
          </Trackpoint>
          <Trackpoint>
            <Time>2021-08-11T17:18:45.000Z</Time>
            <Position>
              <LatitudeDegrees>43.3196183480322360992431640625</LatitudeDegrees>
              <LongitudeDegrees>-1.9452712498605251312255859375</LongitudeDegrees>
            </Position>
            <AltitudeMeters>61.40000152587890625</AltitudeMeters>
            <DistanceMeters>NAN</DistanceMeters>
          </Trackpoint>
          <Trackpoint>
            <Time>2021-08-11T17:18:47.000Z</Time>
            <Position>
              <LatitudeDegrees>43.3196027576923370361328125</LatitudeDegrees>
              <LongitudeDegrees>-1.94523160345852375030517578125</LongitudeDegrees>
            </Position>
            <AltitudeMeters>61.59999847412109375</AltitudeMeters>
            <DistanceMeters>NAN</DistanceMeters>
          </Trackpoint>
          <Trackpoint>
            <Time>2021-08-11T17:18:48.000Z</Time>
            <Position>
              <LatitudeDegrees>43.3195989020168781280517578125</LatitudeDegrees>
              <LongitudeDegrees>-1.9452139176428318023681640625</LongitudeDegrees>
            </Position>
            <AltitudeMeters>61.799999237060546875</AltitudeMeters>
            <DistanceMeters>NAN</DistanceMeters>
          </Trackpoint>
          <Trackpoint>
            <Time>2021-08-11T17:18:49.000Z</Time>
            <Position>
              <LatitudeDegrees>43.319598399102687835693359375</LatitudeDegrees>
              <LongitudeDegrees>-1.9451867602765560150146484375</LongitudeDegrees>
            </Position>
            <AltitudeMeters>61.799999237060546875</AltitudeMeters>
            <DistanceMeters>NAN</DistanceMeters>
          </Trackpoint>
          <Trackpoint>
            <Time>2021-08-11T17:18:53.000Z</Time>
            <Position>
              <LatitudeDegrees>43.319579623639583587646484375</LatitudeDegrees>
              <LongitudeDegrees>-1.9450586847960948944091796875</LongitudeDegrees>
            </Position>
            <AltitudeMeters>62.40000152587890625</AltitudeMeters>
            <DistanceMeters>NAN</DistanceMeters>
          </Trackpoint>
          <Trackpoint>
            <Time>2021-08-11T17:18:54.000Z</Time>
            <Position>
              <LatitudeDegrees>43.31957484595477581024169921875</LatitudeDegrees>
              <LongitudeDegrees>-1.94502138532698154449462890625</LongitudeDegrees>
            </Position>
            <AltitudeMeters>62.40000152587890625</AltitudeMeters>
            <DistanceMeters>NAN</DistanceMeters>
          </Trackpoint>
          <Trackpoint>
            <Time>2021-08-11T17:18:55.000Z</Time>
            <Position>
              <LatitudeDegrees>43.3195693977177143096923828125</LatitudeDegrees>
              <LongitudeDegrees>-1.9449852593243122100830078125</LongitudeDegrees>
            </Position>
            <AltitudeMeters>62.59999847412109375</AltitudeMeters>
            <DistanceMeters>NAN</DistanceMeters>
          </Trackpoint>
          <Trackpoint>
            <Time>2021-08-11T17:18:59.000Z</Time>
            <Position>
              <LatitudeDegrees>43.31954986788332462310791015625</LatitudeDegrees>
              <LongitudeDegrees>-1.94483228959143161773681640625</LongitudeDegrees>
            </Position>
            <AltitudeMeters>62.799999237060546875</AltitudeMeters>
            <DistanceMeters>NAN</DistanceMeters>
          </Trackpoint>
          <Trackpoint>
            <Time>2021-08-11T17:19:00.000Z</Time>
            <Position>
              <LatitudeDegrees>43.31954710185527801513671875</LatitudeDegrees>
              <LongitudeDegrees>-1.94479926489293575286865234375</LongitudeDegrees>
            </Position>
            <AltitudeMeters>62.799999237060546875</AltitudeMeters>
            <DistanceMeters>NAN</DistanceMeters>
          </Trackpoint>
          <Trackpoint>
            <Time>2021-08-11T17:19:01.000Z</Time>
            <Position>
              <LatitudeDegrees>43.3195452578365802764892578125</LatitudeDegrees>
              <LongitudeDegrees>-1.944767497479915618896484375</LongitudeDegrees>
            </Position>
            <AltitudeMeters>62.799999237060546875</AltitudeMeters>
            <DistanceMeters>NAN</DistanceMeters>
          </Trackpoint>
          <Trackpoint>
            <Time>2021-08-11T17:19:02.000Z</Time>
            <Position>
              <LatitudeDegrees>43.319540731608867645263671875</LatitudeDegrees>
              <LongitudeDegrees>-1.94474034011363983154296875</LongitudeDegrees>
            </Position>
            <AltitudeMeters>62.799999237060546875</AltitudeMeters>
            <DistanceMeters>NAN</DistanceMeters>
          </Trackpoint>
          <Trackpoint>
            <Time>2021-08-11T17:19:04.000Z</Time>
            <Position>
              <LatitudeDegrees>43.31953964196145534515380859375</LatitudeDegrees>
              <LongitudeDegrees>-1.9446845166385173797607421875</LongitudeDegrees>
            </Position>
            <AltitudeMeters>62.59999847412109375</AltitudeMeters>
            <DistanceMeters>NAN</DistanceMeters>
          </Trackpoint>
          <Trackpoint>
            <Time>2021-08-11T17:19:05.000Z</Time>
            <Position>
              <LatitudeDegrees>43.31953528337180614471435546875</LatitudeDegrees>
              <LongitudeDegrees>-1.94465626962482929229736328125</LongitudeDegrees>
            </Position>
            <AltitudeMeters>62.59999847412109375</AltitudeMeters>
            <DistanceMeters>NAN</DistanceMeters>
          </Trackpoint>
          <Trackpoint>
            <Time>2021-08-11T17:19:06.000Z</Time>
            <Position>
              <LatitudeDegrees>43.31952941603958606719970703125</LatitudeDegrees>
              <LongitudeDegrees>-1.944626010954380035400390625</LongitudeDegrees>
            </Position>
            <AltitudeMeters>62.59999847412109375</AltitudeMeters>
            <DistanceMeters>NAN</DistanceMeters>
          </Trackpoint>
          <Trackpoint>
            <Time>2021-08-11T17:19:07.000Z</Time>
            <Position>
              <LatitudeDegrees>43.319519273936748504638671875</LatitudeDegrees>
              <LongitudeDegrees>-1.9445906393229961395263671875</LongitudeDegrees>
            </Position>
            <AltitudeMeters>62.40000152587890625</AltitudeMeters>
            <DistanceMeters>NAN</DistanceMeters>
          </Trackpoint>
          <Trackpoint>
            <Time>2021-08-11T17:19:08.000Z</Time>
            <Position>
              <LatitudeDegrees>43.3195134066045284271240234375</LatitudeDegrees>
              <LongitudeDegrees>-1.94457001984119415283203125</LongitudeDegrees>
            </Position>
            <AltitudeMeters>62.40000152587890625</AltitudeMeters>
            <DistanceMeters>NAN</DistanceMeters>
          </Trackpoint>
          <Trackpoint>
            <Time>2021-08-11T17:19:09.000Z</Time>
            <Position>
              <LatitudeDegrees>43.3195061981678009033203125</LatitudeDegrees>
              <LongitudeDegrees>-1.94454344920814037322998046875</LongitudeDegrees>
            </Position>
            <AltitudeMeters>62.59999847412109375</AltitudeMeters>
            <DistanceMeters>NAN</DistanceMeters>
          </Trackpoint>
          <Trackpoint>
            <Time>2021-08-11T17:19:10.000Z</Time>
            <Position>
              <LatitudeDegrees>43.3195030130445957183837890625</LatitudeDegrees>
              <LongitudeDegrees>-1.9445141963660717010498046875</LongitudeDegrees>
            </Position>
            <AltitudeMeters>62.40000152587890625</AltitudeMeters>
            <DistanceMeters>NAN</DistanceMeters>
          </Trackpoint>
          <Trackpoint>
            <Time>2021-08-11T17:19:11.000Z</Time>
            <Position>
              <LatitudeDegrees>43.319499827921390533447265625</LatitudeDegrees>
              <LongitudeDegrees>-1.9444835186004638671875</LongitudeDegrees>
            </Position>
            <AltitudeMeters>62.40000152587890625</AltitudeMeters>
            <DistanceMeters>NAN</DistanceMeters>
          </Trackpoint>
          <Trackpoint>
            <Time>2021-08-11T17:19:12.000Z</Time>
            <Position>
              <LatitudeDegrees>43.31949404440820217132568359375</LatitudeDegrees>
              <LongitudeDegrees>-1.94445602595806121826171875</LongitudeDegrees>
            </Position>
            <AltitudeMeters>62.40000152587890625</AltitudeMeters>
            <DistanceMeters>NAN</DistanceMeters>
          </Trackpoint>
          <Trackpoint>
            <Time>2021-08-11T17:19:13.000Z</Time>
            <Position>
              <LatitudeDegrees>43.319491781294345855712890625</LatitudeDegrees>
              <LongitudeDegrees>-1.9444333948194980621337890625</LongitudeDegrees>
            </Position>
            <AltitudeMeters>62.200000762939453125</AltitudeMeters>
            <DistanceMeters>NAN</DistanceMeters>
          </Trackpoint>
          <Trackpoint>
            <Time>2021-08-11T17:19:14.000Z</Time>
            <Position>
              <LatitudeDegrees>43.31948851235210895538330078125</LatitudeDegrees>
              <LongitudeDegrees>-1.9444095902144908905029296875</LongitudeDegrees>
            </Position>
            <AltitudeMeters>62.200000762939453125</AltitudeMeters>
            <DistanceMeters>NAN</DistanceMeters>
          </Trackpoint>
          <Trackpoint>
            <Time>2021-08-11T17:19:16.000Z</Time>
            <Position>
              <LatitudeDegrees>43.31947778351604938507080078125</LatitudeDegrees>
              <LongitudeDegrees>-1.9443358294665813446044921875</LongitudeDegrees>
            </Position>
            <AltitudeMeters>62</AltitudeMeters>
            <DistanceMeters>NAN</DistanceMeters>
          </Trackpoint>
          <Trackpoint>
            <Time>2021-08-11T17:19:19.000Z</Time>
            <Position>
              <LatitudeDegrees>43.3194537274539470672607421875</LatitudeDegrees>
              <LongitudeDegrees>-1.94417447783052921295166015625</LongitudeDegrees>
            </Position>
            <AltitudeMeters>61.59999847412109375</AltitudeMeters>
            <DistanceMeters>NAN</DistanceMeters>
          </Trackpoint>
          <Trackpoint>
            <Time>2021-08-11T17:19:21.000Z</Time>
            <Position>
              <LatitudeDegrees>43.31944056786596775054931640625</LatitudeDegrees>
              <LongitudeDegrees>-1.94406819529831409454345703125</LongitudeDegrees>
            </Position>
            <AltitudeMeters>61</AltitudeMeters>
            <DistanceMeters>NAN</DistanceMeters>
          </Trackpoint>
          <Trackpoint>
            <Time>2021-08-11T17:19:24.000Z</Time>
            <Position>
              <LatitudeDegrees>43.319413997232913970947265625</LatitudeDegrees>
              <LongitudeDegrees>-1.94391950033605098724365234375</LongitudeDegrees>
            </Position>
            <AltitudeMeters>60.40000152587890625</AltitudeMeters>
            <DistanceMeters>NAN</DistanceMeters>
          </Trackpoint>
          <Trackpoint>
            <Time>2021-08-11T17:19:25.000Z</Time>
            <Position>
              <LatitudeDegrees>43.3194098062813282012939453125</LatitudeDegrees>
              <LongitudeDegrees>-1.94388605654239654541015625</LongitudeDegrees>
            </Position>
            <AltitudeMeters>60.200000762939453125</AltitudeMeters>
            <DistanceMeters>NAN</DistanceMeters>
          </Trackpoint>
          <Trackpoint>
            <Time>2021-08-11T17:19:26.000Z</Time>
            <Position>
              <LatitudeDegrees>43.319406621158123016357421875</LatitudeDegrees>
              <LongitudeDegrees>-1.9438600726425647735595703125</LongitudeDegrees>
            </Position>
            <AltitudeMeters>60</AltitudeMeters>
            <DistanceMeters>NAN</DistanceMeters>
          </Trackpoint>
          <Trackpoint>
            <Time>2021-08-11T17:19:27.000Z</Time>
            <Position>
              <LatitudeDegrees>43.31940955482423305511474609375</LatitudeDegrees>
              <LongitudeDegrees>-1.94384322501718997955322265625</LongitudeDegrees>
            </Position>
            <AltitudeMeters>59.40000152587890625</AltitudeMeters>
            <DistanceMeters>NAN</DistanceMeters>
          </Trackpoint>
          <Trackpoint>
            <Time>2021-08-11T17:19:29.000Z</Time>
            <Position>
              <LatitudeDegrees>43.31941609270870685577392578125</LatitudeDegrees>
              <LongitudeDegrees>-1.94383903406560420989990234375</LongitudeDegrees>
            </Position>
            <AltitudeMeters>58.799999237060546875</AltitudeMeters>
            <DistanceMeters>NAN</DistanceMeters>
          </Trackpoint>
          <Trackpoint>
            <Time>2021-08-11T17:19:31.000Z</Time>
            <Position>
              <LatitudeDegrees>43.31941701471805572509765625</LatitudeDegrees>
              <LongitudeDegrees>-1.94384104572236537933349609375</LongitudeDegrees>
            </Position>
            <AltitudeMeters>58.200000762939453125</AltitudeMeters>
            <DistanceMeters>NAN</DistanceMeters>
          </Trackpoint>
          <Trackpoint>
            <Time>2021-08-11T17:19:47.000Z</Time>
            <Position>
              <LatitudeDegrees>43.3194222114980220794677734375</LatitudeDegrees>
              <LongitudeDegrees>-1.9438459910452365875244140625</LongitudeDegrees>
            </Position>
            <AltitudeMeters>57.40000152587890625</AltitudeMeters>
            <DistanceMeters>NAN</DistanceMeters>
          </Trackpoint>
          <Trackpoint>
            <Time>2021-08-11T17:19:48.000Z</Time>
            <Position>
              <LatitudeDegrees>43.3194329403340816497802734375</LatitudeDegrees>
              <LongitudeDegrees>-1.9438238628208637237548828125</LongitudeDegrees>
            </Position>
            <AltitudeMeters>57.40000152587890625</AltitudeMeters>
            <DistanceMeters>NAN</DistanceMeters>
          </Trackpoint>
          <Trackpoint>
            <Time>2021-08-11T17:19:49.000Z</Time>
            <Position>
              <LatitudeDegrees>43.3194369636476039886474609375</LatitudeDegrees>
              <LongitudeDegrees>-1.94381154142320156097412109375</LongitudeDegrees>
            </Position>
            <AltitudeMeters>57.40000152587890625</AltitudeMeters>
            <DistanceMeters>NAN</DistanceMeters>
          </Trackpoint>
          <Trackpoint>
            <Time>2021-08-11T17:19:51.000Z</Time>
            <Position>
              <LatitudeDegrees>43.31943436525762081146240234375</LatitudeDegrees>
              <LongitudeDegrees>-1.9438003934919834136962890625</LongitudeDegrees>
            </Position>
            <AltitudeMeters>57.40000152587890625</AltitudeMeters>
            <DistanceMeters>NAN</DistanceMeters>
          </Trackpoint>
          <Trackpoint>
            <Time>2021-08-11T17:19:56.000Z</Time>
            <Position>
              <LatitudeDegrees>43.31941525451838970184326171875</LatitudeDegrees>
              <LongitudeDegrees>-1.94379628635942935943603515625</LongitudeDegrees>
            </Position>
            <AltitudeMeters>57.40000152587890625</AltitudeMeters>
            <DistanceMeters>NAN</DistanceMeters>
          </Trackpoint>
          <Trackpoint>
            <Time>2021-08-11T17:20:04.000Z</Time>
            <Position>
              <LatitudeDegrees>43.31941542215645313262939453125</LatitudeDegrees>
              <LongitudeDegrees>-1.94379494525492191314697265625</LongitudeDegrees>
            </Position>
            <AltitudeMeters>57.200000762939453125</AltitudeMeters>
            <DistanceMeters>NAN</DistanceMeters>
          </Trackpoint>
          <Trackpoint>
            <Time>2021-08-11T17:21:03.000Z</Time>
            <Position>
              <LatitudeDegrees>43.3194015920162200927734375</LatitudeDegrees>
              <LongitudeDegrees>-1.9437928497791290283203125</LongitudeDegrees>
            </Position>
            <AltitudeMeters>57.40000152587890625</AltitudeMeters>
            <DistanceMeters>NAN</DistanceMeters>
          </Trackpoint>
          <Trackpoint>
            <Time>2021-08-11T17:21:06.000Z</Time>
            <Position>
              <LatitudeDegrees>43.31941877491772174835205078125</LatitudeDegrees>
              <LongitudeDegrees>-1.94387339986860752105712890625</LongitudeDegrees>
            </Position>
            <AltitudeMeters>57.40000152587890625</AltitudeMeters>
            <DistanceMeters>NAN</DistanceMeters>
          </Trackpoint>
          <Trackpoint>
            <Time>2021-08-11T17:21:10.000Z</Time>
            <Position>
              <LatitudeDegrees>43.3194352872669696807861328125</LatitudeDegrees>
              <LongitudeDegrees>-1.94399728439748287200927734375</LongitudeDegrees>
            </Position>
            <AltitudeMeters>57.59999847412109375</AltitudeMeters>
            <DistanceMeters>NAN</DistanceMeters>
          </Trackpoint>
          <Trackpoint>
            <Time>2021-08-11T17:21:11.000Z</Time>
            <Position>
              <LatitudeDegrees>43.319437801837921142578125</LatitudeDegrees>
              <LongitudeDegrees>-1.944023855030536651611328125</LongitudeDegrees>
            </Position>
            <AltitudeMeters>57.799999237060546875</AltitudeMeters>
            <DistanceMeters>NAN</DistanceMeters>
          </Trackpoint>
          <Trackpoint>
            <Time>2021-08-11T17:21:12.000Z</Time>
            <Position>
              <LatitudeDegrees>43.31943956203758716583251953125</LatitudeDegrees>
              <LongitudeDegrees>-1.94404941983520984649658203125</LongitudeDegrees>
            </Position>
            <AltitudeMeters>57.799999237060546875</AltitudeMeters>
            <DistanceMeters>NAN</DistanceMeters>
          </Trackpoint>
          <Trackpoint>
            <Time>2021-08-11T17:21:13.000Z</Time>
            <Position>
              <LatitudeDegrees>43.3194418251514434814453125</LatitudeDegrees>
              <LongitudeDegrees>-1.94407205097377300262451171875</LongitudeDegrees>
            </Position>
            <AltitudeMeters>58</AltitudeMeters>
            <DistanceMeters>NAN</DistanceMeters>
          </Trackpoint>
          <Trackpoint>
            <Time>2021-08-11T17:21:14.000Z</Time>
            <Position>
              <LatitudeDegrees>43.3194458484649658203125</LatitudeDegrees>
              <LongitudeDegrees>-1.9440930895507335662841796875</LongitudeDegrees>
            </Position>
            <AltitudeMeters>58.200000762939453125</AltitudeMeters>
            <DistanceMeters>NAN</DistanceMeters>
          </Trackpoint>
          <Trackpoint>
            <Time>2021-08-11T17:21:16.000Z</Time>
            <Position>
              <LatitudeDegrees>43.3194540627300739288330078125</LatitudeDegrees>
              <LongitudeDegrees>-1.944129802286624908447265625</LongitudeDegrees>
            </Position>
            <AltitudeMeters>58.59999847412109375</AltitudeMeters>
            <DistanceMeters>NAN</DistanceMeters>
          </Trackpoint>
          <Trackpoint>
            <Time>2021-08-11T17:21:17.000Z</Time>
            <Position>
              <LatitudeDegrees>43.31945615820586681365966796875</LatitudeDegrees>
              <LongitudeDegrees>-1.944146566092967987060546875</LongitudeDegrees>
            </Position>
            <AltitudeMeters>59</AltitudeMeters>
            <DistanceMeters>NAN</DistanceMeters>
          </Trackpoint>
          <Trackpoint>
            <Time>2021-08-11T17:21:18.000Z</Time>
            <Position>
              <LatitudeDegrees>43.31945884041488170623779296875</LatitudeDegrees>
              <LongitudeDegrees>-1.94415964186191558837890625</LongitudeDegrees>
            </Position>
            <AltitudeMeters>59.200000762939453125</AltitudeMeters>
            <DistanceMeters>NAN</DistanceMeters>
          </Trackpoint>
          <Trackpoint>
            <Time>2021-08-11T17:21:19.000Z</Time>
            <Position>
              <LatitudeDegrees>43.31946663558483123779296875</LatitudeDegrees>
              <LongitudeDegrees>-1.9441745616495609283447265625</LongitudeDegrees>
            </Position>
            <AltitudeMeters>59.40000152587890625</AltitudeMeters>
            <DistanceMeters>NAN</DistanceMeters>
          </Trackpoint>
          <Trackpoint>
            <Time>2021-08-11T17:21:20.000Z</Time>
            <Position>
              <LatitudeDegrees>43.319477699697017669677734375</LatitudeDegrees>
              <LongitudeDegrees>-1.9441886432468891143798828125</LongitudeDegrees>
            </Position>
            <AltitudeMeters>59.40000152587890625</AltitudeMeters>
            <DistanceMeters>NAN</DistanceMeters>
          </Trackpoint>
          <Trackpoint>
            <Time>2021-08-11T17:21:21.000Z</Time>
            <Position>
              <LatitudeDegrees>43.31948163919150829315185546875</LatitudeDegrees>
              <LongitudeDegrees>-1.94419945590198040008544921875</LongitudeDegrees>
            </Position>
            <AltitudeMeters>59.59999847412109375</AltitudeMeters>
            <DistanceMeters>NAN</DistanceMeters>
          </Trackpoint>
          <Trackpoint>
            <Time>2021-08-11T17:21:22.000Z</Time>
            <Position>
              <LatitudeDegrees>43.31948482431471347808837890625</LatitudeDegrees>
              <LongitudeDegrees>-1.94422041065990924835205078125</LongitudeDegrees>
            </Position>
            <AltitudeMeters>59.799999237060546875</AltitudeMeters>
            <DistanceMeters>NAN</DistanceMeters>
          </Trackpoint>
          <Trackpoint>
            <Time>2021-08-11T17:21:23.000Z</Time>
            <Position>
              <LatitudeDegrees>43.31948549486696720123291015625</LatitudeDegrees>
              <LongitudeDegrees>-1.94423449225723743438720703125</LongitudeDegrees>
            </Position>
            <AltitudeMeters>60</AltitudeMeters>
            <DistanceMeters>NAN</DistanceMeters>
          </Trackpoint>
          <Trackpoint>
            <Time>2021-08-11T17:21:24.000Z</Time>
            <Position>
              <LatitudeDegrees>43.31948247738182544708251953125</LatitudeDegrees>
              <LongitudeDegrees>-1.9442541897296905517578125</LongitudeDegrees>
            </Position>
            <AltitudeMeters>60</AltitudeMeters>
            <DistanceMeters>NAN</DistanceMeters>
          </Trackpoint>
          <Trackpoint>
            <Time>2021-08-11T17:21:25.000Z</Time>
            <Position>
              <LatitudeDegrees>43.31948448903858661651611328125</LatitudeDegrees>
              <LongitudeDegrees>-1.94427623413503170013427734375</LongitudeDegrees>
            </Position>
            <AltitudeMeters>60.200000762939453125</AltitudeMeters>
            <DistanceMeters>NAN</DistanceMeters>
          </Trackpoint>
          <Trackpoint>
            <Time>2021-08-11T17:21:26.000Z</Time>
            <Position>
              <LatitudeDegrees>43.31948750652372837066650390625</LatitudeDegrees>
              <LongitudeDegrees>-1.944296099245548248291015625</LongitudeDegrees>
            </Position>
            <AltitudeMeters>60.200000762939453125</AltitudeMeters>
            <DistanceMeters>NAN</DistanceMeters>
          </Trackpoint>
          <Trackpoint>
            <Time>2021-08-11T17:21:27.000Z</Time>
            <Position>
              <LatitudeDegrees>43.31948767416179180145263671875</LatitudeDegrees>
              <LongitudeDegrees>-1.94431730546057224273681640625</LongitudeDegrees>
            </Position>
            <AltitudeMeters>60.40000152587890625</AltitudeMeters>
            <DistanceMeters>NAN</DistanceMeters>
          </Trackpoint>
          <Trackpoint>
            <Time>2021-08-11T17:21:28.000Z</Time>
            <Position>
              <LatitudeDegrees>43.3194892667233943939208984375</LatitudeDegrees>
              <LongitudeDegrees>-1.94433909840881824493408203125</LongitudeDegrees>
            </Position>
            <AltitudeMeters>60.59999847412109375</AltitudeMeters>
            <DistanceMeters>NAN</DistanceMeters>
          </Trackpoint>
          <Trackpoint>
            <Time>2021-08-11T17:21:29.000Z</Time>
            <Position>
              <LatitudeDegrees>43.3194929547607898712158203125</LatitudeDegrees>
              <LongitudeDegrees>-1.944359801709651947021484375</LongitudeDegrees>
            </Position>
            <AltitudeMeters>60.59999847412109375</AltitudeMeters>
            <DistanceMeters>NAN</DistanceMeters>
          </Trackpoint>
          <Trackpoint>
            <Time>2021-08-11T17:21:30.000Z</Time>
            <Position>
              <LatitudeDegrees>43.31949622370302677154541015625</LatitudeDegrees>
              <LongitudeDegrees>-1.9443790800869464874267578125</LongitudeDegrees>
            </Position>
            <AltitudeMeters>60.799999237060546875</AltitudeMeters>
            <DistanceMeters>NAN</DistanceMeters>
          </Trackpoint>
          <Trackpoint>
            <Time>2021-08-11T17:21:31.000Z</Time>
            <Position>
              <LatitudeDegrees>43.3194959722459316253662109375</LatitudeDegrees>
              <LongitudeDegrees>-1.9443978555500507354736328125</LongitudeDegrees>
            </Position>
            <AltitudeMeters>61</AltitudeMeters>
            <DistanceMeters>NAN</DistanceMeters>
          </Trackpoint>
          <Trackpoint>
            <Time>2021-08-11T17:21:32.000Z</Time>
            <Position>
              <LatitudeDegrees>43.319494463503360748291015625</LatitudeDegrees>
              <LongitudeDegrees>-1.94441805593669414520263671875</LongitudeDegrees>
            </Position>
            <AltitudeMeters>61</AltitudeMeters>
            <DistanceMeters>NAN</DistanceMeters>
          </Trackpoint>
          <Trackpoint>
            <Time>2021-08-11T17:21:33.000Z</Time>
            <Position>
              <LatitudeDegrees>43.31949437968432903289794921875</LatitudeDegrees>
              <LongitudeDegrees>-1.94443515501916408538818359375</LongitudeDegrees>
            </Position>
            <AltitudeMeters>61.200000762939453125</AltitudeMeters>
            <DistanceMeters>NAN</DistanceMeters>
          </Trackpoint>
          <Trackpoint>
            <Time>2021-08-11T17:21:34.000Z</Time>
            <Position>
              <LatitudeDegrees>43.31949136219918727874755859375</LatitudeDegrees>
              <LongitudeDegrees>-1.94445543922483921051025390625</LongitudeDegrees>
            </Position>
            <AltitudeMeters>61.200000762939453125</AltitudeMeters>
            <DistanceMeters>NAN</DistanceMeters>
          </Trackpoint>
          <Trackpoint>
            <Time>2021-08-11T17:21:35.000Z</Time>
            <Position>
              <LatitudeDegrees>43.31948784179985523223876953125</LatitudeDegrees>
              <LongitudeDegrees>-1.94447438232600688934326171875</LongitudeDegrees>
            </Position>
            <AltitudeMeters>61.40000152587890625</AltitudeMeters>
            <DistanceMeters>NAN</DistanceMeters>
          </Trackpoint>
          <Trackpoint>
            <Time>2021-08-11T17:21:36.000Z</Time>
            <Position>
              <LatitudeDegrees>43.3194896019995212554931640625</LatitudeDegrees>
              <LongitudeDegrees>-1.94449081085622310638427734375</LongitudeDegrees>
            </Position>
            <AltitudeMeters>61.59999847412109375</AltitudeMeters>
            <DistanceMeters>NAN</DistanceMeters>
          </Trackpoint>
          <Trackpoint>
            <Time>2021-08-11T17:21:37.000Z</Time>
            <Position>
              <LatitudeDegrees>43.3194916136562824249267578125</LatitudeDegrees>
              <LongitudeDegrees>-1.94451143033802509307861328125</LongitudeDegrees>
            </Position>
            <AltitudeMeters>61.59999847412109375</AltitudeMeters>
            <DistanceMeters>NAN</DistanceMeters>
          </Trackpoint>
          <Trackpoint>
            <Time>2021-08-11T17:21:38.000Z</Time>
            <Position>
              <LatitudeDegrees>43.31949706189334392547607421875</LatitudeDegrees>
              <LongitudeDegrees>-1.94453246891498565673828125</LongitudeDegrees>
            </Position>
            <AltitudeMeters>61.799999237060546875</AltitudeMeters>
            <DistanceMeters>NAN</DistanceMeters>
          </Trackpoint>
          <Trackpoint>
            <Time>2021-08-11T17:21:39.000Z</Time>
            <Position>
              <LatitudeDegrees>43.319503180682659149169921875</LatitudeDegrees>
              <LongitudeDegrees>-1.94455929100513458251953125</LongitudeDegrees>
            </Position>
            <AltitudeMeters>61.799999237060546875</AltitudeMeters>
            <DistanceMeters>NAN</DistanceMeters>
          </Trackpoint>
          <Trackpoint>
            <Time>2021-08-11T17:21:40.000Z</Time>
            <Position>
              <LatitudeDegrees>43.3195117302238941192626953125</LatitudeDegrees>
              <LongitudeDegrees>-1.944592483341693878173828125</LongitudeDegrees>
            </Position>
            <AltitudeMeters>61.799999237060546875</AltitudeMeters>
            <DistanceMeters>NAN</DistanceMeters>
          </Trackpoint>
          <Trackpoint>
            <Time>2021-08-11T17:21:41.000Z</Time>
            <Position>
              <LatitudeDegrees>43.3195177651941776275634765625</LatitudeDegrees>
              <LongitudeDegrees>-1.94463313557207584381103515625</LongitudeDegrees>
            </Position>
            <AltitudeMeters>62</AltitudeMeters>
            <DistanceMeters>NAN</DistanceMeters>
          </Trackpoint>
          <Trackpoint>
            <Time>2021-08-11T17:21:42.000Z</Time>
            <Position>
              <LatitudeDegrees>43.31952472217381000518798828125</LatitudeDegrees>
              <LongitudeDegrees>-1.94467286579310894012451171875</LongitudeDegrees>
            </Position>
            <AltitudeMeters>62</AltitudeMeters>
            <DistanceMeters>NAN</DistanceMeters>
          </Trackpoint>
          <Trackpoint>
            <Time>2021-08-11T17:21:43.000Z</Time>
            <Position>
              <LatitudeDegrees>43.31953209824860095977783203125</LatitudeDegrees>
              <LongitudeDegrees>-1.944711171090602874755859375</LongitudeDegrees>
            </Position>
            <AltitudeMeters>62</AltitudeMeters>
            <DistanceMeters>NAN</DistanceMeters>
          </Trackpoint>
          <Trackpoint>
            <Time>2021-08-11T17:21:44.000Z</Time>
            <Position>
              <LatitudeDegrees>43.3195382170379161834716796875</LatitudeDegrees>
              <LongitudeDegrees>-1.94475048221647739410400390625</LongitudeDegrees>
            </Position>
            <AltitudeMeters>62.200000762939453125</AltitudeMeters>
            <DistanceMeters>NAN</DistanceMeters>
          </Trackpoint>
          <Trackpoint>
            <Time>2021-08-11T17:21:45.000Z</Time>
            <Position>
              <LatitudeDegrees>43.31954500637948513031005859375</LatitudeDegrees>
              <LongitudeDegrees>-1.944788284599781036376953125</LongitudeDegrees>
            </Position>
            <AltitudeMeters>62.200000762939453125</AltitudeMeters>
            <DistanceMeters>NAN</DistanceMeters>
          </Trackpoint>
          <Trackpoint>
            <Time>2021-08-11T17:21:46.000Z</Time>
            <Position>
              <LatitudeDegrees>43.3195512928068637847900390625</LatitudeDegrees>
              <LongitudeDegrees>-1.944827176630496978759765625</LongitudeDegrees>
            </Position>
            <AltitudeMeters>62.200000762939453125</AltitudeMeters>
            <DistanceMeters>NAN</DistanceMeters>
          </Trackpoint>
          <Trackpoint>
            <Time>2021-08-11T17:21:47.000Z</Time>
            <Position>
              <LatitudeDegrees>43.3195576630532741546630859375</LatitudeDegrees>
              <LongitudeDegrees>-1.94486799649894237518310546875</LongitudeDegrees>
            </Position>
            <AltitudeMeters>62.59999847412109375</AltitudeMeters>
            <DistanceMeters>NAN</DistanceMeters>
          </Trackpoint>
          <Trackpoint>
            <Time>2021-08-11T17:21:48.000Z</Time>
            <Position>
              <LatitudeDegrees>43.3195576630532741546630859375</LatitudeDegrees>
              <LongitudeDegrees>-1.94486799649894237518310546875</LongitudeDegrees>
            </Position>
            <AltitudeMeters>62.799999237060546875</AltitudeMeters>
            <DistanceMeters>NAN</DistanceMeters>
          </Trackpoint>
          <Trackpoint>
            <Time>2021-08-11T17:21:49.000Z</Time>
            <Position>
              <LatitudeDegrees>43.31956797279417514801025390625</LatitudeDegrees>
              <LongitudeDegrees>-1.94494477473199367523193359375</LongitudeDegrees>
            </Position>
            <AltitudeMeters>62.799999237060546875</AltitudeMeters>
            <DistanceMeters>NAN</DistanceMeters>
          </Trackpoint>
          <Trackpoint>
            <Time>2021-08-11T17:21:50.000Z</Time>
            <Position>
              <LatitudeDegrees>43.31957199610769748687744140625</LatitudeDegrees>
              <LongitudeDegrees>-1.94498349912464618682861328125</LongitudeDegrees>
            </Position>
            <AltitudeMeters>62.799999237060546875</AltitudeMeters>
            <DistanceMeters>NAN</DistanceMeters>
          </Trackpoint>
          <Trackpoint>
            <Time>2021-08-11T17:21:51.000Z</Time>
            <Position>
              <LatitudeDegrees>43.31957794725894927978515625</LatitudeDegrees>
              <LongitudeDegrees>-1.9450186192989349365234375</LongitudeDegrees>
            </Position>
            <AltitudeMeters>62.799999237060546875</AltitudeMeters>
            <DistanceMeters>NAN</DistanceMeters>
          </Trackpoint>
          <Trackpoint>
            <Time>2021-08-11T17:21:52.000Z</Time>
            <Position>
              <LatitudeDegrees>43.31957794725894927978515625</LatitudeDegrees>
              <LongitudeDegrees>-1.9450186192989349365234375</LongitudeDegrees>
            </Position>
            <AltitudeMeters>63</AltitudeMeters>
            <DistanceMeters>NAN</DistanceMeters>
          </Trackpoint>
          <Trackpoint>
            <Time>2021-08-11T17:21:53.000Z</Time>
            <Position>
              <LatitudeDegrees>43.31958389841020107269287109375</LatitudeDegrees>
              <LongitudeDegrees>-1.945088692009449005126953125</LongitudeDegrees>
            </Position>
            <AltitudeMeters>63</AltitudeMeters>
            <DistanceMeters>NAN</DistanceMeters>
          </Trackpoint>
          <Trackpoint>
            <Time>2021-08-11T17:21:54.000Z</Time>
            <Position>
              <LatitudeDegrees>43.31958758644759654998779296875</LatitudeDegrees>
              <LongitudeDegrees>-1.94512699730694293975830078125</LongitudeDegrees>
            </Position>
            <AltitudeMeters>63</AltitudeMeters>
            <DistanceMeters>NAN</DistanceMeters>
          </Trackpoint>
          <Trackpoint>
            <Time>2021-08-11T17:21:59.000Z</Time>
            <Position>
              <LatitudeDegrees>43.31964810378849506378173828125</LatitudeDegrees>
              <LongitudeDegrees>-1.9453570805490016937255859375</LongitudeDegrees>
            </Position>
            <AltitudeMeters>63</AltitudeMeters>
            <DistanceMeters>NAN</DistanceMeters>
          </Trackpoint>
          <Trackpoint>
            <Time>2021-08-11T17:22:01.000Z</Time>
            <Position>
              <LatitudeDegrees>43.319688253104686737060546875</LatitudeDegrees>
              <LongitudeDegrees>-1.94544031284749507904052734375</LongitudeDegrees>
            </Position>
            <AltitudeMeters>62.799999237060546875</AltitudeMeters>
            <DistanceMeters>NAN</DistanceMeters>
          </Trackpoint>
          <Trackpoint>
            <Time>2021-08-11T17:22:02.000Z</Time>
            <Position>
              <LatitudeDegrees>43.31970912404358386993408203125</LatitudeDegrees>
              <LongitudeDegrees>-1.94547903724014759063720703125</LongitudeDegrees>
            </Position>
            <AltitudeMeters>62.799999237060546875</AltitudeMeters>
            <DistanceMeters>NAN</DistanceMeters>
          </Trackpoint>
          <Trackpoint>
            <Time>2021-08-11T17:22:03.000Z</Time>
            <Position>
              <LatitudeDegrees>43.31972278654575347900390625</LatitudeDegrees>
              <LongitudeDegrees>-1.94551876746118068695068359375</LongitudeDegrees>
            </Position>
            <AltitudeMeters>62.40000152587890625</AltitudeMeters>
            <DistanceMeters>NAN</DistanceMeters>
          </Trackpoint>
          <Trackpoint>
            <Time>2021-08-11T17:22:04.000Z</Time>
            <Position>
              <LatitudeDegrees>43.31972622312605381011962890625</LatitudeDegrees>
              <LongitudeDegrees>-1.9455629400908946990966796875</LongitudeDegrees>
            </Position>
            <AltitudeMeters>62.200000762939453125</AltitudeMeters>
            <DistanceMeters>NAN</DistanceMeters>
          </Trackpoint>
          <Trackpoint>
            <Time>2021-08-11T17:22:05.000Z</Time>
            <Position>
              <LatitudeDegrees>43.31971339881420135498046875</LatitudeDegrees>
              <LongitudeDegrees>-1.9456087052822113037109375</LongitudeDegrees>
            </Position>
            <AltitudeMeters>62</AltitudeMeters>
            <DistanceMeters>NAN</DistanceMeters>
          </Trackpoint>
          <Trackpoint>
            <Time>2021-08-11T17:22:07.000Z</Time>
            <Position>
              <LatitudeDegrees>43.31964978016912937164306640625</LatitudeDegrees>
              <LongitudeDegrees>-1.945692859590053558349609375</LongitudeDegrees>
            </Position>
            <AltitudeMeters>61.59999847412109375</AltitudeMeters>
            <DistanceMeters>NAN</DistanceMeters>
          </Trackpoint>
          <Trackpoint>
            <Time>2021-08-11T17:22:08.000Z</Time>
            <Position>
              <LatitudeDegrees>43.31961776129901409149169921875</LatitudeDegrees>
              <LongitudeDegrees>-1.94573736749589443206787109375</LongitudeDegrees>
            </Position>
            <AltitudeMeters>61.200000762939453125</AltitudeMeters>
            <DistanceMeters>NAN</DistanceMeters>
          </Trackpoint>
          <Trackpoint>
            <Time>2021-08-11T17:22:09.000Z</Time>
            <Position>
              <LatitudeDegrees>43.3195818029344081878662109375</LatitudeDegrees>
              <LongitudeDegrees>-1.9457858987152576446533203125</LongitudeDegrees>
            </Position>
            <AltitudeMeters>61</AltitudeMeters>
            <DistanceMeters>NAN</DistanceMeters>
          </Trackpoint>
          <Trackpoint>
            <Time>2021-08-11T17:22:12.000Z</Time>
            <Position>
              <LatitudeDegrees>43.31944559700787067413330078125</LatitudeDegrees>
              <LongitudeDegrees>-1.94593450985848903656005859375</LongitudeDegrees>
            </Position>
            <AltitudeMeters>60.200000762939453125</AltitudeMeters>
            <DistanceMeters>NAN</DistanceMeters>
          </Trackpoint>
          <Trackpoint>
            <Time>2021-08-11T17:22:13.000Z</Time>
            <Position>
              <LatitudeDegrees>43.31939421594142913818359375</LatitudeDegrees>
              <LongitudeDegrees>-1.94597692228853702545166015625</LongitudeDegrees>
            </Position>
            <AltitudeMeters>59.799999237060546875</AltitudeMeters>
            <DistanceMeters>NAN</DistanceMeters>
          </Trackpoint>
          <Trackpoint>
            <Time>2021-08-11T17:22:15.000Z</Time>
            <Position>
              <LatitudeDegrees>43.31928801722824573516845703125</LatitudeDegrees>
              <LongitudeDegrees>-1.94602151401340961456298828125</LongitudeDegrees>
            </Position>
            <AltitudeMeters>59.200000762939453125</AltitudeMeters>
            <DistanceMeters>NAN</DistanceMeters>
          </Trackpoint>
          <Trackpoint>
            <Time>2021-08-11T17:22:16.000Z</Time>
            <Position>
              <LatitudeDegrees>43.319243676960468292236328125</LatitudeDegrees>
              <LongitudeDegrees>-1.94601975381374359130859375</LongitudeDegrees>
            </Position>
            <AltitudeMeters>59.200000762939453125</AltitudeMeters>
            <DistanceMeters>NAN</DistanceMeters>
          </Trackpoint>
          <Trackpoint>
            <Time>2021-08-11T17:22:17.000Z</Time>
            <Position>
              <LatitudeDegrees>43.3192015998065471649169921875</LatitudeDegrees>
              <LongitudeDegrees>-1.94600860588252544403076171875</LongitudeDegrees>
            </Position>
            <AltitudeMeters>58.200000762939453125</AltitudeMeters>
            <DistanceMeters>NAN</DistanceMeters>
          </Trackpoint>
          <Trackpoint>
            <Time>2021-08-11T17:22:18.000Z</Time>
            <Position>
              <LatitudeDegrees>43.3191663958132266998291015625</LatitudeDegrees>
              <LongitudeDegrees>-1.945993266999721527099609375</LongitudeDegrees>
            </Position>
            <AltitudeMeters>57.799999237060546875</AltitudeMeters>
            <DistanceMeters>NAN</DistanceMeters>
          </Trackpoint>
          <Trackpoint>
            <Time>2021-08-11T17:22:19.000Z</Time>
            <Position>
              <LatitudeDegrees>43.3191382326185703277587890625</LatitudeDegrees>
              <LongitudeDegrees>-1.94597876630723476409912109375</LongitudeDegrees>
            </Position>
            <AltitudeMeters>57.59999847412109375</AltitudeMeters>
            <DistanceMeters>NAN</DistanceMeters>
          </Trackpoint>
          <Trackpoint>
            <Time>2021-08-11T17:22:20.000Z</Time>
            <Position>
              <LatitudeDegrees>43.3191130869090557098388671875</LatitudeDegrees>
              <LongitudeDegrees>-1.94596904329955577850341796875</LongitudeDegrees>
            </Position>
            <AltitudeMeters>57.200000762939453125</AltitudeMeters>
            <DistanceMeters>NAN</DistanceMeters>
          </Trackpoint>
          <Trackpoint>
            <Time>2021-08-11T17:22:21.000Z</Time>
            <Position>
              <LatitudeDegrees>43.319086767733097076416015625</LatitudeDegrees>
              <LongitudeDegrees>-1.94596342742443084716796875</LongitudeDegrees>
            </Position>
            <AltitudeMeters>57</AltitudeMeters>
            <DistanceMeters>NAN</DistanceMeters>
          </Trackpoint>
          <Trackpoint>
            <Time>2021-08-11T17:22:22.000Z</Time>
            <Position>
              <LatitudeDegrees>43.31906187348067760467529296875</LatitudeDegrees>
              <LongitudeDegrees>-1.9459615834057331085205078125</LongitudeDegrees>
            </Position>
            <AltitudeMeters>56.59999847412109375</AltitudeMeters>
            <DistanceMeters>NAN</DistanceMeters>
          </Trackpoint>
          <Trackpoint>
            <Time>2021-08-11T17:22:23.000Z</Time>
            <Position>
              <LatitudeDegrees>43.31903454847633838653564453125</LatitudeDegrees>
              <LongitudeDegrees>-1.94595697335898876190185546875</LongitudeDegrees>
            </Position>
            <AltitudeMeters>56.59999847412109375</AltitudeMeters>
            <DistanceMeters>NAN</DistanceMeters>
          </Trackpoint>
          <Trackpoint>
            <Time>2021-08-11T17:22:25.000Z</Time>
            <Position>
              <LatitudeDegrees>43.31896430812776088714599609375</LatitudeDegrees>
              <LongitudeDegrees>-1.94594775326550006866455078125</LongitudeDegrees>
            </Position>
            <AltitudeMeters>56</AltitudeMeters>
            <DistanceMeters>NAN</DistanceMeters>
          </Trackpoint>
          <Trackpoint>
            <Time>2021-08-11T17:22:27.000Z</Time>
            <Position>
              <LatitudeDegrees>43.31887646578252315521240234375</LatitudeDegrees>
              <LongitudeDegrees>-1.9459493458271026611328125</LongitudeDegrees>
            </Position>
            <AltitudeMeters>55.59999847412109375</AltitudeMeters>
            <DistanceMeters>NAN</DistanceMeters>
          </Trackpoint>
          <Trackpoint>
            <Time>2021-08-11T17:22:30.000Z</Time>
            <Position>
              <LatitudeDegrees>43.318758867681026458740234375</LatitudeDegrees>
              <LongitudeDegrees>-1.94594599306583404541015625</LongitudeDegrees>
            </Position>
            <AltitudeMeters>55</AltitudeMeters>
            <DistanceMeters>NAN</DistanceMeters>
          </Trackpoint>
          <Trackpoint>
            <Time>2021-08-11T17:22:31.000Z</Time>
            <Position>
              <LatitudeDegrees>43.3187248371541500091552734375</LatitudeDegrees>
              <LongitudeDegrees>-1.945948339998722076416015625</LongitudeDegrees>
            </Position>
            <AltitudeMeters>54.59999847412109375</AltitudeMeters>
            <DistanceMeters>NAN</DistanceMeters>
          </Trackpoint>
          <Trackpoint>
            <Time>2021-08-11T17:22:32.000Z</Time>
            <Position>
              <LatitudeDegrees>43.31869281828403472900390625</LatitudeDegrees>
              <LongitudeDegrees>-1.9459532015025615692138671875</LongitudeDegrees>
            </Position>
            <AltitudeMeters>54.200000762939453125</AltitudeMeters>
            <DistanceMeters>NAN</DistanceMeters>
          </Trackpoint>
          <Trackpoint>
            <Time>2021-08-11T17:22:33.000Z</Time>
            <Position>
              <LatitudeDegrees>43.3186648227274417877197265625</LatitudeDegrees>
              <LongitudeDegrees>-1.9459555484354496002197265625</LongitudeDegrees>
            </Position>
            <AltitudeMeters>53.799999237060546875</AltitudeMeters>
            <DistanceMeters>NAN</DistanceMeters>
          </Trackpoint>
          <Trackpoint>
            <Time>2021-08-11T17:22:34.000Z</Time>
            <Position>
              <LatitudeDegrees>43.3186400122940540313720703125</LatitudeDegrees>
              <LongitudeDegrees>-1.94595781154930591583251953125</LongitudeDegrees>
            </Position>
            <AltitudeMeters>53.200000762939453125</AltitudeMeters>
            <DistanceMeters>NAN</DistanceMeters>
          </Trackpoint>
          <Trackpoint>
            <Time>2021-08-11T17:22:35.000Z</Time>
            <Position>
              <LatitudeDegrees>43.31861327402293682098388671875</LatitudeDegrees>
              <LongitudeDegrees>-1.94596879184246063232421875</LongitudeDegrees>
            </Position>
            <AltitudeMeters>53</AltitudeMeters>
            <DistanceMeters>NAN</DistanceMeters>
          </Trackpoint>
          <Trackpoint>
            <Time>2021-08-11T17:22:38.000Z</Time>
            <Position>
              <LatitudeDegrees>43.3185340650379657745361328125</LatitudeDegrees>
              <LongitudeDegrees>-1.94602151401340961456298828125</LongitudeDegrees>
            </Position>
            <AltitudeMeters>51.799999237060546875</AltitudeMeters>
            <DistanceMeters>NAN</DistanceMeters>
          </Trackpoint>
          <Trackpoint>
            <Time>2021-08-11T17:22:40.000Z</Time>
            <Position>
              <LatitudeDegrees>43.31846977584064006805419921875</LatitudeDegrees>
              <LongitudeDegrees>-1.94607851095497608184814453125</LongitudeDegrees>
            </Position>
            <AltitudeMeters>51.40000152587890625</AltitudeMeters>
            <DistanceMeters>NAN</DistanceMeters>
          </Trackpoint>
          <Trackpoint>
            <Time>2021-08-11T17:22:42.000Z</Time>
            <Position>
              <LatitudeDegrees>43.31839911639690399169921875</LatitudeDegrees>
              <LongitudeDegrees>-1.946150176227092742919921875</LongitudeDegrees>
            </Position>
            <AltitudeMeters>51</AltitudeMeters>
            <DistanceMeters>NAN</DistanceMeters>
          </Trackpoint>
          <Trackpoint>
            <Time>2021-08-11T17:22:43.000Z</Time>
            <Position>
              <LatitudeDegrees>43.31835913471877574920654296875</LatitudeDegrees>
              <LongitudeDegrees>-1.94617456756532192230224609375</LongitudeDegrees>
            </Position>
            <AltitudeMeters>50.799999237060546875</AltitudeMeters>
            <DistanceMeters>NAN</DistanceMeters>
          </Trackpoint>
          <Trackpoint>
            <Time>2021-08-11T17:22:44.000Z</Time>
            <Position>
              <LatitudeDegrees>43.31832007504999637603759765625</LatitudeDegrees>
              <LongitudeDegrees>-1.94619300775229930877685546875</LongitudeDegrees>
            </Position>
            <AltitudeMeters>50.59999847412109375</AltitudeMeters>
            <DistanceMeters>NAN</DistanceMeters>
          </Trackpoint>
          <Trackpoint>
            <Time>2021-08-11T17:22:45.000Z</Time>
            <Position>
              <LatitudeDegrees>43.3182812668383121490478515625</LatitudeDegrees>
              <LongitudeDegrees>-1.946212537586688995361328125</LongitudeDegrees>
            </Position>
            <AltitudeMeters>50.200000762939453125</AltitudeMeters>
            <DistanceMeters>NAN</DistanceMeters>
          </Trackpoint>
          <Trackpoint>
            <Time>2021-08-11T17:22:46.000Z</Time>
            <Position>
              <LatitudeDegrees>43.31824379973113536834716796875</LatitudeDegrees>
              <LongitudeDegrees>-1.946231983602046966552734375</LongitudeDegrees>
            </Position>
            <AltitudeMeters>49.799999237060546875</AltitudeMeters>
            <DistanceMeters>NAN</DistanceMeters>
          </Trackpoint>
          <Trackpoint>
            <Time>2021-08-11T17:22:47.000Z</Time>
            <Position>
              <LatitudeDegrees>43.3182051591575145721435546875</LatitudeDegrees>
              <LongitudeDegrees>-1.94625067524611949920654296875</LongitudeDegrees>
            </Position>
            <AltitudeMeters>49.799999237060546875</AltitudeMeters>
            <DistanceMeters>NAN</DistanceMeters>
          </Trackpoint>
          <Trackpoint>
            <Time>2021-08-11T17:22:49.000Z</Time>
            <Position>
              <LatitudeDegrees>43.31812695600092411041259765625</LatitudeDegrees>
              <LongitudeDegrees>-1.94628487341105937957763671875</LongitudeDegrees>
            </Position>
            <AltitudeMeters>49.40000152587890625</AltitudeMeters>
            <DistanceMeters>NAN</DistanceMeters>
          </Trackpoint>
          <Trackpoint>
            <Time>2021-08-11T17:22:51.000Z</Time>
            <Position>
              <LatitudeDegrees>43.31805311143398284912109375</LatitudeDegrees>
              <LongitudeDegrees>-1.94628126919269561767578125</LongitudeDegrees>
            </Position>
            <AltitudeMeters>49.200000762939453125</AltitudeMeters>
            <DistanceMeters>NAN</DistanceMeters>
          </Trackpoint>
          <Trackpoint>
            <Time>2021-08-11T17:22:52.000Z</Time>
            <Position>
              <LatitudeDegrees>43.31802654080092906951904296875</LatitudeDegrees>
              <LongitudeDegrees>-1.94626517593860626220703125</LongitudeDegrees>
            </Position>
            <AltitudeMeters>49.200000762939453125</AltitudeMeters>
            <DistanceMeters>NAN</DistanceMeters>
          </Trackpoint>
          <Trackpoint>
            <Time>2021-08-11T17:22:53.000Z</Time>
            <Position>
              <LatitudeDegrees>43.3179996348917484283447265625</LatitudeDegrees>
              <LongitudeDegrees>-1.9462549500167369842529296875</LongitudeDegrees>
            </Position>
            <AltitudeMeters>49.200000762939453125</AltitudeMeters>
            <DistanceMeters>NAN</DistanceMeters>
          </Trackpoint>
          <Trackpoint>
            <Time>2021-08-11T17:22:54.000Z</Time>
            <Position>
              <LatitudeDegrees>43.3179748244583606719970703125</LatitudeDegrees>
              <LongitudeDegrees>-1.94624749012291431427001953125</LongitudeDegrees>
            </Position>
            <AltitudeMeters>49.200000762939453125</AltitudeMeters>
            <DistanceMeters>NAN</DistanceMeters>
          </Trackpoint>
          <Trackpoint>
            <Time>2021-08-11T17:22:55.000Z</Time>
            <Position>
              <LatitudeDegrees>43.31795160658657550811767578125</LatitudeDegrees>
              <LongitudeDegrees>-1.94624514319002628326416015625</LongitudeDegrees>
            </Position>
            <AltitudeMeters>49.200000762939453125</AltitudeMeters>
            <DistanceMeters>NAN</DistanceMeters>
          </Trackpoint>
          <Trackpoint>
            <Time>2021-08-11T17:22:56.000Z</Time>
            <Position>
              <LatitudeDegrees>43.31792880780994892120361328125</LatitudeDegrees>
              <LongitudeDegrees>-1.9462472386658191680908203125</LongitudeDegrees>
            </Position>
            <AltitudeMeters>49.200000762939453125</AltitudeMeters>
            <DistanceMeters>NAN</DistanceMeters>
          </Trackpoint>
          <Trackpoint>
            <Time>2021-08-11T17:22:57.000Z</Time>
            <Position>
              <LatitudeDegrees>43.31790693104267120361328125</LatitudeDegrees>
              <LongitudeDegrees>-1.94625067524611949920654296875</LongitudeDegrees>
            </Position>
            <AltitudeMeters>49.200000762939453125</AltitudeMeters>
            <DistanceMeters>NAN</DistanceMeters>
          </Trackpoint>
          <Trackpoint>
            <Time>2021-08-11T17:22:58.000Z</Time>
            <Position>
              <LatitudeDegrees>43.31788639537990093231201171875</LatitudeDegrees>
              <LongitudeDegrees>-1.9462546147406101226806640625</LongitudeDegrees>
            </Position>
            <AltitudeMeters>49.200000762939453125</AltitudeMeters>
            <DistanceMeters>NAN</DistanceMeters>
          </Trackpoint>
          <Trackpoint>
            <Time>2021-08-11T17:23:00.000Z</Time>
            <Position>
              <LatitudeDegrees>43.31784783862531185150146484375</LatitudeDegrees>
              <LongitudeDegrees>-1.9462593086063861846923828125</LongitudeDegrees>
            </Position>
            <AltitudeMeters>49.59999847412109375</AltitudeMeters>
            <DistanceMeters>NAN</DistanceMeters>
          </Trackpoint>
          <Trackpoint>
            <Time>2021-08-11T17:23:01.000Z</Time>
            <Position>
              <LatitudeDegrees>43.31782872788608074188232421875</LatitudeDegrees>
              <LongitudeDegrees>-1.94626727141439914703369140625</LongitudeDegrees>
            </Position>
            <AltitudeMeters>50</AltitudeMeters>
            <DistanceMeters>NAN</DistanceMeters>
          </Trackpoint>
          <Trackpoint>
            <Time>2021-08-11T17:23:02.000Z</Time>
            <Position>
              <LatitudeDegrees>43.31780903041362762451171875</LatitudeDegrees>
              <LongitudeDegrees>-1.94627632386982440948486328125</LongitudeDegrees>
            </Position>
            <AltitudeMeters>50.40000152587890625</AltitudeMeters>
            <DistanceMeters>NAN</DistanceMeters>
          </Trackpoint>
          <Trackpoint>
            <Time>2021-08-11T17:23:03.000Z</Time>
            <Position>
              <LatitudeDegrees>43.31778866238892078399658203125</LatitudeDegrees>
              <LongitudeDegrees>-1.94628437049686908721923828125</LongitudeDegrees>
            </Position>
            <AltitudeMeters>50.59999847412109375</AltitudeMeters>
            <DistanceMeters>NAN</DistanceMeters>
          </Trackpoint>
          <Trackpoint>
            <Time>2021-08-11T17:23:04.000Z</Time>
            <Position>
              <LatitudeDegrees>43.31776745617389678955078125</LatitudeDegrees>
              <LongitudeDegrees>-1.94629241712391376495361328125</LongitudeDegrees>
            </Position>
            <AltitudeMeters>51</AltitudeMeters>
            <DistanceMeters>NAN</DistanceMeters>
          </Trackpoint>
          <Trackpoint>
            <Time>2021-08-11T17:23:05.000Z</Time>
            <Position>
              <LatitudeDegrees>43.317747004330158233642578125</LatitudeDegrees>
              <LongitudeDegrees>-1.94629861973226070404052734375</LongitudeDegrees>
            </Position>
            <AltitudeMeters>51.200000762939453125</AltitudeMeters>
            <DistanceMeters>NAN</DistanceMeters>
          </Trackpoint>
          <Trackpoint>
            <Time>2021-08-11T17:23:06.000Z</Time>
            <Position>
              <LatitudeDegrees>43.31772697158157825469970703125</LatitudeDegrees>
              <LongitudeDegrees>-1.94630566053092479705810546875</LongitudeDegrees>
            </Position>
            <AltitudeMeters>51.799999237060546875</AltitudeMeters>
            <DistanceMeters>NAN</DistanceMeters>
          </Trackpoint>
          <Trackpoint>
            <Time>2021-08-11T17:23:07.000Z</Time>
            <Position>
              <LatitudeDegrees>43.317707441747188568115234375</LatitudeDegrees>
              <LongitudeDegrees>-1.9463136233389377593994140625</LongitudeDegrees>
            </Position>
            <AltitudeMeters>52.200000762939453125</AltitudeMeters>
            <DistanceMeters>NAN</DistanceMeters>
          </Trackpoint>
          <Trackpoint>
            <Time>2021-08-11T17:23:08.000Z</Time>
            <Position>
              <LatitudeDegrees>43.31768841482698917388916015625</LatitudeDegrees>
              <LongitudeDegrees>-1.94632292725145816802978515625</LongitudeDegrees>
            </Position>
            <AltitudeMeters>52.40000152587890625</AltitudeMeters>
            <DistanceMeters>NAN</DistanceMeters>
          </Trackpoint>
          <Trackpoint>
            <Time>2021-08-11T17:23:09.000Z</Time>
            <Position>
              <LatitudeDegrees>43.317671902477741241455078125</LatitudeDegrees>
              <LongitudeDegrees>-1.9463307224214076995849609375</LongitudeDegrees>
            </Position>
            <AltitudeMeters>52.799999237060546875</AltitudeMeters>
            <DistanceMeters>NAN</DistanceMeters>
          </Trackpoint>
          <Trackpoint>
            <Time>2021-08-11T17:23:11.000Z</Time>
            <Position>
              <LatitudeDegrees>43.31764382310211658477783203125</LatitudeDegrees>
              <LongitudeDegrees>-1.94634555839002132415771484375</LongitudeDegrees>
            </Position>
            <AltitudeMeters>53.40000152587890625</AltitudeMeters>
            <DistanceMeters>NAN</DistanceMeters>
          </Trackpoint>
          <Trackpoint>
            <Time>2021-08-11T17:23:12.000Z</Time>
            <Position>
              <LatitudeDegrees>43.317629992961883544921875</LatitudeDegrees>
              <LongitudeDegrees>-1.9463531859219074249267578125</LongitudeDegrees>
            </Position>
            <AltitudeMeters>53.799999237060546875</AltitudeMeters>
            <DistanceMeters>NAN</DistanceMeters>
          </Trackpoint>
          <Trackpoint>
            <Time>2021-08-11T17:23:13.000Z</Time>
            <Position>
              <LatitudeDegrees>43.31761415116488933563232421875</LatitudeDegrees>
              <LongitudeDegrees>-1.94636316038668155670166015625</LongitudeDegrees>
            </Position>
            <AltitudeMeters>54.200000762939453125</AltitudeMeters>
            <DistanceMeters>NAN</DistanceMeters>
          </Trackpoint>
          <Trackpoint>
            <Time>2021-08-11T17:23:14.000Z</Time>
            <Position>
              <LatitudeDegrees>43.3175966329872608184814453125</LatitudeDegrees>
              <LongitudeDegrees>-1.94637388922274112701416015625</LongitudeDegrees>
            </Position>
            <AltitudeMeters>54.59999847412109375</AltitudeMeters>
            <DistanceMeters>NAN</DistanceMeters>
          </Trackpoint>
          <Trackpoint>
            <Time>2021-08-11T17:23:15.000Z</Time>
            <Position>
              <LatitudeDegrees>43.31758112646639347076416015625</LatitudeDegrees>
              <LongitudeDegrees>-1.94638176821172237396240234375</LongitudeDegrees>
            </Position>
            <AltitudeMeters>54.799999237060546875</AltitudeMeters>
            <DistanceMeters>NAN</DistanceMeters>
          </Trackpoint>
          <Trackpoint>
            <Time>2021-08-11T17:23:16.000Z</Time>
            <Position>
              <LatitudeDegrees>43.3175657875835895538330078125</LatitudeDegrees>
              <LongitudeDegrees>-1.94638947956264019012451171875</LongitudeDegrees>
            </Position>
            <AltitudeMeters>55</AltitudeMeters>
            <DistanceMeters>NAN</DistanceMeters>
          </Trackpoint>
          <Trackpoint>
            <Time>2021-08-11T17:23:17.000Z</Time>
            <Position>
              <LatitudeDegrees>43.31755044870078563690185546875</LatitudeDegrees>
              <LongitudeDegrees>-1.94639719091355800628662109375</LongitudeDegrees>
            </Position>
            <AltitudeMeters>55</AltitudeMeters>
            <DistanceMeters>NAN</DistanceMeters>
          </Trackpoint>
          <Trackpoint>
            <Time>2021-08-11T17:23:18.000Z</Time>
            <Position>
              <LatitudeDegrees>43.3175329305231571197509765625</LatitudeDegrees>
              <LongitudeDegrees>-1.94640473462641239166259765625</LongitudeDegrees>
            </Position>
            <AltitudeMeters>55.40000152587890625</AltitudeMeters>
            <DistanceMeters>NAN</DistanceMeters>
          </Trackpoint>
          <Trackpoint>
            <Time>2021-08-11T17:23:19.000Z</Time>
            <Position>
              <LatitudeDegrees>43.317514322698116302490234375</LatitudeDegrees>
              <LongitudeDegrees>-1.94641076959669589996337890625</LongitudeDegrees>
            </Position>
            <AltitudeMeters>55.40000152587890625</AltitudeMeters>
            <DistanceMeters>NAN</DistanceMeters>
          </Trackpoint>
          <Trackpoint>
            <Time>2021-08-11T17:23:20.000Z</Time>
            <Position>
              <LatitudeDegrees>43.31749713979661464691162109375</LatitudeDegrees>
              <LongitudeDegrees>-1.94641764275729656219482421875</LongitudeDegrees>
            </Position>
            <AltitudeMeters>55.799999237060546875</AltitudeMeters>
            <DistanceMeters>NAN</DistanceMeters>
          </Trackpoint>
          <Trackpoint>
            <Time>2021-08-11T17:23:21.000Z</Time>
            <Position>
              <LatitudeDegrees>43.317478112876415252685546875</LatitudeDegrees>
              <LongitudeDegrees>-1.9464214146137237548828125</LongitudeDegrees>
            </Position>
            <AltitudeMeters>56</AltitudeMeters>
            <DistanceMeters>NAN</DistanceMeters>
          </Trackpoint>
          <Trackpoint>
            <Time>2021-08-11T17:23:22.000Z</Time>
            <Position>
              <LatitudeDegrees>43.3174551464617252349853515625</LatitudeDegrees>
              <LongitudeDegrees>-1.9464212469756603240966796875</LongitudeDegrees>
            </Position>
            <AltitudeMeters>56.200000762939453125</AltitudeMeters>
            <DistanceMeters>NAN</DistanceMeters>
          </Trackpoint>
          <Trackpoint>
            <Time>2021-08-11T17:23:23.000Z</Time>
            <Position>
              <LatitudeDegrees>43.31743360497057437896728515625</LatitudeDegrees>
              <LongitudeDegrees>-1.94642300717532634735107421875</LongitudeDegrees>
            </Position>
            <AltitudeMeters>56.59999847412109375</AltitudeMeters>
            <DistanceMeters>NAN</DistanceMeters>
          </Trackpoint>
          <Trackpoint>
            <Time>2021-08-11T17:23:24.000Z</Time>
            <Position>
              <LatitudeDegrees>43.31741482950747013092041015625</LatitudeDegrees>
              <LongitudeDegrees>-1.94643591530621051788330078125</LongitudeDegrees>
            </Position>
            <AltitudeMeters>56.59999847412109375</AltitudeMeters>
            <DistanceMeters>NAN</DistanceMeters>
          </Trackpoint>
          <Trackpoint>
            <Time>2021-08-11T17:23:25.000Z</Time>
            <Position>
              <LatitudeDegrees>43.317396976053714752197265625</LatitudeDegrees>
              <LongitudeDegrees>-1.9464494101703166961669921875</LongitudeDegrees>
            </Position>
            <AltitudeMeters>57</AltitudeMeters>
            <DistanceMeters>NAN</DistanceMeters>
          </Trackpoint>
          <Trackpoint>
            <Time>2021-08-11T17:23:26.000Z</Time>
            <Position>
              <LatitudeDegrees>43.3173840679228305816650390625</LatitudeDegrees>
              <LongitudeDegrees>-1.94646977819502353668212890625</LongitudeDegrees>
            </Position>
            <AltitudeMeters>57</AltitudeMeters>
            <DistanceMeters>NAN</DistanceMeters>
          </Trackpoint>
          <Trackpoint>
            <Time>2021-08-11T17:23:27.000Z</Time>
            <Position>
              <LatitudeDegrees>43.31737794913351535797119140625</LatitudeDegrees>
              <LongitudeDegrees>-1.94650121033191680908203125</LongitudeDegrees>
            </Position>
            <AltitudeMeters>57.200000762939453125</AltitudeMeters>
            <DistanceMeters>NAN</DistanceMeters>
          </Trackpoint>
          <Trackpoint>
            <Time>2021-08-11T17:23:28.000Z</Time>
            <Position>
              <LatitudeDegrees>43.3173790387809276580810546875</LatitudeDegrees>
              <LongitudeDegrees>-1.94653733633458614349365234375</LongitudeDegrees>
            </Position>
            <AltitudeMeters>57.59999847412109375</AltitudeMeters>
            <DistanceMeters>NAN</DistanceMeters>
          </Trackpoint>
          <Trackpoint>
            <Time>2021-08-11T17:23:29.000Z</Time>
            <Position>
              <LatitudeDegrees>43.317381553351879119873046875</LatitudeDegrees>
              <LongitudeDegrees>-1.9465701095759868621826171875</LongitudeDegrees>
            </Position>
            <AltitudeMeters>57.799999237060546875</AltitudeMeters>
            <DistanceMeters>NAN</DistanceMeters>
          </Trackpoint>
          <Trackpoint>
            <Time>2021-08-11T17:23:30.000Z</Time>
            <Position>
              <LatitudeDegrees>43.317381553351879119873046875</LatitudeDegrees>
              <LongitudeDegrees>-1.9465701095759868621826171875</LongitudeDegrees>
            </Position>
            <AltitudeMeters>58</AltitudeMeters>
            <DistanceMeters>NAN</DistanceMeters>
          </Trackpoint>
          <Trackpoint>
            <Time>2021-08-11T17:23:31.000Z</Time>
            <Position>
              <LatitudeDegrees>43.31738465465605258941650390625</LatitudeDegrees>
              <LongitudeDegrees>-1.9466009549796581268310546875</LongitudeDegrees>
            </Position>
            <AltitudeMeters>58.200000762939453125</AltitudeMeters>
            <DistanceMeters>NAN</DistanceMeters>
          </Trackpoint>
          <Trackpoint>
            <Time>2021-08-11T17:23:32.000Z</Time>
            <Position>
              <LatitudeDegrees>43.31738415174186229705810546875</LatitudeDegrees>
              <LongitudeDegrees>-1.94665401242673397064208984375</LongitudeDegrees>
            </Position>
            <AltitudeMeters>58.40000152587890625</AltitudeMeters>
            <DistanceMeters>NAN</DistanceMeters>
          </Trackpoint>
          <Trackpoint>
            <Time>2021-08-11T17:23:33.000Z</Time>
            <Position>
              <LatitudeDegrees>43.317382894456386566162109375</LatitudeDegrees>
              <LongitudeDegrees>-1.9466807506978511810302734375</LongitudeDegrees>
            </Position>
            <AltitudeMeters>58.59999847412109375</AltitudeMeters>
            <DistanceMeters>NAN</DistanceMeters>
          </Trackpoint>
          <Trackpoint>
            <Time>2021-08-11T17:23:34.000Z</Time>
            <Position>
              <LatitudeDegrees>43.3173817209899425506591796875</LatitudeDegrees>
              <LongitudeDegrees>-1.94670698605477809906005859375</LongitudeDegrees>
            </Position>
            <AltitudeMeters>59</AltitudeMeters>
            <DistanceMeters>NAN</DistanceMeters>
          </Trackpoint>
          <Trackpoint>
            <Time>2021-08-11T17:23:35.000Z</Time>
            <Position>
              <LatitudeDegrees>43.3173723332583904266357421875</LatitudeDegrees>
              <LongitudeDegrees>-1.94673665799200534820556640625</LongitudeDegrees>
            </Position>
            <AltitudeMeters>59.200000762939453125</AltitudeMeters>
            <DistanceMeters>NAN</DistanceMeters>
          </Trackpoint>
          <Trackpoint>
            <Time>2021-08-11T17:23:36.000Z</Time>
            <Position>
              <LatitudeDegrees>43.31735573709011077880859375</LatitudeDegrees>
              <LongitudeDegrees>-1.9467622227966785430908203125</LongitudeDegrees>
            </Position>
            <AltitudeMeters>59.40000152587890625</AltitudeMeters>
            <DistanceMeters>NAN</DistanceMeters>
          </Trackpoint>
          <Trackpoint>
            <Time>2021-08-11T17:23:37.000Z</Time>
            <Position>
              <LatitudeDegrees>43.31733721308410167694091796875</LatitudeDegrees>
              <LongitudeDegrees>-1.94678275845944881439208984375</LongitudeDegrees>
            </Position>
            <AltitudeMeters>59.59999847412109375</AltitudeMeters>
            <DistanceMeters>NAN</DistanceMeters>
          </Trackpoint>
          <Trackpoint>
            <Time>2021-08-11T17:23:38.000Z</Time>
            <Position>
              <LatitudeDegrees>43.3173123188316822052001953125</LatitudeDegrees>
              <LongitudeDegrees>-1.946797929704189300537109375</LongitudeDegrees>
            </Position>
            <AltitudeMeters>59.799999237060546875</AltitudeMeters>
            <DistanceMeters>NAN</DistanceMeters>
          </Trackpoint>
          <Trackpoint>
            <Time>2021-08-11T17:23:39.000Z</Time>
            <Position>
              <LatitudeDegrees>43.3173123188316822052001953125</LatitudeDegrees>
              <LongitudeDegrees>-1.946797929704189300537109375</LongitudeDegrees>
            </Position>
            <AltitudeMeters>59.799999237060546875</AltitudeMeters>
            <DistanceMeters>NAN</DistanceMeters>
          </Trackpoint>
          <Trackpoint>
            <Time>2021-08-11T17:23:40.000Z</Time>
            <Position>
              <LatitudeDegrees>43.31725121475756168365478515625</LatitudeDegrees>
              <LongitudeDegrees>-1.9468125142157077789306640625</LongitudeDegrees>
            </Position>
            <AltitudeMeters>60</AltitudeMeters>
            <DistanceMeters>NAN</DistanceMeters>
          </Trackpoint>
          <Trackpoint>
            <Time>2021-08-11T17:23:41.000Z</Time>
            <Position>
              <LatitudeDegrees>43.31721223890781402587890625</LatitudeDegrees>
              <LongitudeDegrees>-1.9468215666711330413818359375</LongitudeDegrees>
            </Position>
            <AltitudeMeters>60</AltitudeMeters>
            <DistanceMeters>NAN</DistanceMeters>
          </Trackpoint>
          <Trackpoint>
            <Time>2021-08-11T17:23:42.000Z</Time>
            <Position>
              <LatitudeDegrees>43.31716890446841716766357421875</LatitudeDegrees>
              <LongitudeDegrees>-1.9468329660594463348388671875</LongitudeDegrees>
            </Position>
            <AltitudeMeters>60</AltitudeMeters>
            <DistanceMeters>NAN</DistanceMeters>
          </Trackpoint>
          <Trackpoint>
            <Time>2021-08-11T17:23:43.000Z</Time>
            <Position>
              <LatitudeDegrees>43.31712104380130767822265625</LatitudeDegrees>
              <LongitudeDegrees>-1.946844868361949920654296875</LongitudeDegrees>
            </Position>
            <AltitudeMeters>60</AltitudeMeters>
            <DistanceMeters>NAN</DistanceMeters>
          </Trackpoint>
          <Trackpoint>
            <Time>2021-08-11T17:23:44.000Z</Time>
            <Position>
              <LatitudeDegrees>43.3170672319829463958740234375</LatitudeDegrees>
              <LongitudeDegrees>-1.94685584865510463714599609375</LongitudeDegrees>
            </Position>
            <AltitudeMeters>60</AltitudeMeters>
            <DistanceMeters>NAN</DistanceMeters>
          </Trackpoint>
          <Trackpoint>
            <Time>2021-08-11T17:23:45.000Z</Time>
            <Position>
              <LatitudeDegrees>43.31701082177460193634033203125</LatitudeDegrees>
              <LongitudeDegrees>-1.946868002414703369140625</LongitudeDegrees>
            </Position>
            <AltitudeMeters>59.799999237060546875</AltitudeMeters>
            <DistanceMeters>NAN</DistanceMeters>
          </Trackpoint>
          <Trackpoint>
            <Time>2021-08-11T17:23:46.000Z</Time>
            <Position>
              <LatitudeDegrees>43.316953070461750030517578125</LatitudeDegrees>
              <LongitudeDegrees>-1.94687646813690662384033203125</LongitudeDegrees>
            </Position>
            <AltitudeMeters>59.59999847412109375</AltitudeMeters>
            <DistanceMeters>NAN</DistanceMeters>
          </Trackpoint>
          <Trackpoint>
            <Time>2021-08-11T17:23:47.000Z</Time>
            <Position>
              <LatitudeDegrees>43.316893391311168670654296875</LatitudeDegrees>
              <LongitudeDegrees>-1.946879737079143524169921875</LongitudeDegrees>
            </Position>
            <AltitudeMeters>59.40000152587890625</AltitudeMeters>
            <DistanceMeters>NAN</DistanceMeters>
          </Trackpoint>
          <Trackpoint>
            <Time>2021-08-11T17:23:48.000Z</Time>
            <Position>
              <LatitudeDegrees>43.316845782101154327392578125</LatitudeDegrees>
              <LongitudeDegrees>-1.946913264691829681396484375</LongitudeDegrees>
            </Position>
            <AltitudeMeters>59</AltitudeMeters>
            <DistanceMeters>NAN</DistanceMeters>
          </Trackpoint>
          <Trackpoint>
            <Time>2021-08-11T17:23:49.000Z</Time>
            <Position>
              <LatitudeDegrees>43.31681401468813419342041015625</LatitudeDegrees>
              <LongitudeDegrees>-1.9469741173088550567626953125</LongitudeDegrees>
            </Position>
            <AltitudeMeters>58.40000152587890625</AltitudeMeters>
            <DistanceMeters>NAN</DistanceMeters>
          </Trackpoint>
          <Trackpoint>
            <Time>2021-08-11T17:23:50.000Z</Time>
            <Position>
              <LatitudeDegrees>43.31680228002369403839111328125</LatitudeDegrees>
              <LongitudeDegrees>-1.94703857414424419403076171875</LongitudeDegrees>
            </Position>
            <AltitudeMeters>58</AltitudeMeters>
            <DistanceMeters>NAN</DistanceMeters>
          </Trackpoint>
          <Trackpoint>
            <Time>2021-08-11T17:23:51.000Z</Time>
            <Position>
              <LatitudeDegrees>43.3168065547943115234375</LatitudeDegrees>
              <LongitudeDegrees>-1.94709775038063526153564453125</LongitudeDegrees>
            </Position>
            <AltitudeMeters>57.59999847412109375</AltitudeMeters>
            <DistanceMeters>NAN</DistanceMeters>
          </Trackpoint>
          <Trackpoint>
            <Time>2021-08-11T17:23:52.000Z</Time>
            <Position>
              <LatitudeDegrees>43.31681418232619762420654296875</LatitudeDegrees>
              <LongitudeDegrees>-1.9471457786858081817626953125</LongitudeDegrees>
            </Position>
            <AltitudeMeters>57.200000762939453125</AltitudeMeters>
            <DistanceMeters>NAN</DistanceMeters>
          </Trackpoint>
          <Trackpoint>
            <Time>2021-08-11T17:23:53.000Z</Time>
            <Position>
              <LatitudeDegrees>43.3168214745819568634033203125</LatitudeDegrees>
              <LongitudeDegrees>-1.94718785583972930908203125</LongitudeDegrees>
            </Position>
            <AltitudeMeters>56.59999847412109375</AltitudeMeters>
            <DistanceMeters>NAN</DistanceMeters>
          </Trackpoint>
          <Trackpoint>
            <Time>2021-08-11T17:23:54.000Z</Time>
            <Position>
              <LatitudeDegrees>43.31682491116225719451904296875</LatitudeDegrees>
              <LongitudeDegrees>-1.94722431711852550506591796875</LongitudeDegrees>
            </Position>
            <AltitudeMeters>56.40000152587890625</AltitudeMeters>
            <DistanceMeters>NAN</DistanceMeters>
          </Trackpoint>
          <Trackpoint>
            <Time>2021-08-11T17:23:55.000Z</Time>
            <Position>
              <LatitudeDegrees>43.31682926975190639495849609375</LatitudeDegrees>
              <LongitudeDegrees>-1.94725700654089450836181640625</LongitudeDegrees>
            </Position>
            <AltitudeMeters>56</AltitudeMeters>
            <DistanceMeters>NAN</DistanceMeters>
          </Trackpoint>
          <Trackpoint>
            <Time>2021-08-11T17:23:56.000Z</Time>
            <Position>
              <LatitudeDegrees>43.316835723817348480224609375</LatitudeDegrees>
              <LongitudeDegrees>-1.94728785194456577301025390625</LongitudeDegrees>
            </Position>
            <AltitudeMeters>56</AltitudeMeters>
            <DistanceMeters>NAN</DistanceMeters>
          </Trackpoint>
          <Trackpoint>
            <Time>2021-08-11T17:23:57.000Z</Time>
            <Position>
              <LatitudeDegrees>43.31683966331183910369873046875</LatitudeDegrees>
              <LongitudeDegrees>-1.94731785915791988372802734375</LongitudeDegrees>
            </Position>
            <AltitudeMeters>55.799999237060546875</AltitudeMeters>
            <DistanceMeters>NAN</DistanceMeters>
          </Trackpoint>
          <Trackpoint>
            <Time>2021-08-11T17:23:58.000Z</Time>
            <Position>
              <LatitudeDegrees>43.31684066914021968841552734375</LatitudeDegrees>
              <LongitudeDegrees>-1.94734652526676654815673828125</LongitudeDegrees>
            </Position>
            <AltitudeMeters>55.799999237060546875</AltitudeMeters>
            <DistanceMeters>NAN</DistanceMeters>
          </Trackpoint>
          <Trackpoint>
            <Time>2021-08-11T17:24:02.000Z</Time>
            <Position>
              <LatitudeDegrees>43.31684687174856662750244140625</LatitudeDegrees>
              <LongitudeDegrees>-1.947472505271434783935546875</LongitudeDegrees>
            </Position>
            <AltitudeMeters>55.799999237060546875</AltitudeMeters>
            <DistanceMeters>NAN</DistanceMeters>
          </Trackpoint>
          <Trackpoint>
            <Time>2021-08-11T17:24:03.000Z</Time>
            <Position>
              <LatitudeDegrees>43.316849805414676666259765625</LatitudeDegrees>
              <LongitudeDegrees>-1.94750561378896236419677734375</LongitudeDegrees>
            </Position>
            <AltitudeMeters>56</AltitudeMeters>
            <DistanceMeters>NAN</DistanceMeters>
          </Trackpoint>
          <Trackpoint>
            <Time>2021-08-11T17:24:04.000Z</Time>
            <Position>
              <LatitudeDegrees>43.31685240380465984344482421875</LatitudeDegrees>
              <LongitudeDegrees>-1.9475363753736019134521484375</LongitudeDegrees>
            </Position>
            <AltitudeMeters>56</AltitudeMeters>
            <DistanceMeters>NAN</DistanceMeters>
          </Trackpoint>
          <Trackpoint>
            <Time>2021-08-11T17:24:10.000Z</Time>
            <Position>
              <LatitudeDegrees>43.31686447374522686004638671875</LatitudeDegrees>
              <LongitudeDegrees>-1.9477191008627414703369140625</LongitudeDegrees>
            </Position>
            <AltitudeMeters>56.40000152587890625</AltitudeMeters>
            <DistanceMeters>NAN</DistanceMeters>
          </Trackpoint>
          <Trackpoint>
            <Time>2021-08-11T17:24:13.000Z</Time>
            <Position>
              <LatitudeDegrees>43.3168741129338741302490234375</LatitudeDegrees>
              <LongitudeDegrees>-1.94780836813151836395263671875</LongitudeDegrees>
            </Position>
            <AltitudeMeters>56.59999847412109375</AltitudeMeters>
            <DistanceMeters>NAN</DistanceMeters>
          </Trackpoint>
          <Trackpoint>
            <Time>2021-08-11T17:24:14.000Z</Time>
            <Position>
              <LatitudeDegrees>43.31687771715223789215087890625</LatitudeDegrees>
              <LongitudeDegrees>-1.94783695042133331298828125</LongitudeDegrees>
            </Position>
            <AltitudeMeters>56.799999237060546875</AltitudeMeters>
            <DistanceMeters>NAN</DistanceMeters>
          </Trackpoint>
          <Trackpoint>
            <Time>2021-08-11T17:24:15.000Z</Time>
            <Position>
              <LatitudeDegrees>43.31688174046576023101806640625</LatitudeDegrees>
              <LongitudeDegrees>-1.94786905311048030853271484375</LongitudeDegrees>
            </Position>
            <AltitudeMeters>56.799999237060546875</AltitudeMeters>
            <DistanceMeters>NAN</DistanceMeters>
          </Trackpoint>
          <Trackpoint>
            <Time>2021-08-11T17:24:16.000Z</Time>
            <Position>
              <LatitudeDegrees>43.3168848417699337005615234375</LatitudeDegrees>
              <LongitudeDegrees>-1.9478998146951198577880859375</LongitudeDegrees>
            </Position>
            <AltitudeMeters>57</AltitudeMeters>
            <DistanceMeters>NAN</DistanceMeters>
          </Trackpoint>
          <Trackpoint>
            <Time>2021-08-11T17:24:17.000Z</Time>
            <Position>
              <LatitudeDegrees>43.31688911654055118560791015625</LatitudeDegrees>
              <LongitudeDegrees>-1.94793644361197948455810546875</LongitudeDegrees>
            </Position>
            <AltitudeMeters>57</AltitudeMeters>
            <DistanceMeters>NAN</DistanceMeters>
          </Trackpoint>
          <Trackpoint>
            <Time>2021-08-11T17:24:18.000Z</Time>
            <Position>
              <LatitudeDegrees>43.31689397804439067840576171875</LatitudeDegrees>
              <LongitudeDegrees>-1.94796703755855560302734375</LongitudeDegrees>
            </Position>
            <AltitudeMeters>57.200000762939453125</AltitudeMeters>
            <DistanceMeters>NAN</DistanceMeters>
          </Trackpoint>
          <Trackpoint>
            <Time>2021-08-11T17:24:19.000Z</Time>
            <Position>
              <LatitudeDegrees>43.31690110266208648681640625</LatitudeDegrees>
              <LongitudeDegrees>-1.9479950331151485443115234375</LongitudeDegrees>
            </Position>
            <AltitudeMeters>57.200000762939453125</AltitudeMeters>
            <DistanceMeters>NAN</DistanceMeters>
          </Trackpoint>
          <Trackpoint>
            <Time>2021-08-11T17:24:20.000Z</Time>
            <Position>
              <LatitudeDegrees>43.3169062994420528411865234375</LatitudeDegrees>
              <LongitudeDegrees>-1.9480161555111408233642578125</LongitudeDegrees>
            </Position>
            <AltitudeMeters>57.40000152587890625</AltitudeMeters>
            <DistanceMeters>NAN</DistanceMeters>
          </Trackpoint>
          <Trackpoint>
            <Time>2021-08-11T17:24:22.000Z</Time>
            <Position>
              <LatitudeDegrees>43.3169150166213512420654296875</LatitudeDegrees>
              <LongitudeDegrees>-1.9480711407959461212158203125</LongitudeDegrees>
            </Position>
            <AltitudeMeters>57.59999847412109375</AltitudeMeters>
            <DistanceMeters>NAN</DistanceMeters>
          </Trackpoint>
          <Trackpoint>
            <Time>2021-08-11T17:24:23.000Z</Time>
            <Position>
              <LatitudeDegrees>43.31691811792552471160888671875</LatitudeDegrees>
              <LongitudeDegrees>-1.94809041917324066162109375</LongitudeDegrees>
            </Position>
            <AltitudeMeters>57.59999847412109375</AltitudeMeters>
            <DistanceMeters>NAN</DistanceMeters>
          </Trackpoint>
          <Trackpoint>
            <Time>2021-08-11T17:24:24.000Z</Time>
            <Position>
              <LatitudeDegrees>43.31692130304872989654541015625</LatitudeDegrees>
              <LongitudeDegrees>-1.948112882673740386962890625</LongitudeDegrees>
            </Position>
            <AltitudeMeters>58</AltitudeMeters>
            <DistanceMeters>NAN</DistanceMeters>
          </Trackpoint>
          <Trackpoint>
            <Time>2021-08-11T17:24:26.000Z</Time>
            <Position>
              <LatitudeDegrees>43.31692432053387165069580078125</LatitudeDegrees>
              <LongitudeDegrees>-1.9481670297682285308837890625</LongitudeDegrees>
            </Position>
            <AltitudeMeters>58.40000152587890625</AltitudeMeters>
            <DistanceMeters>NAN</DistanceMeters>
          </Trackpoint>
          <Trackpoint>
            <Time>2021-08-11T17:24:27.000Z</Time>
            <Position>
              <LatitudeDegrees>43.31692666746675968170166015625</LatitudeDegrees>
              <LongitudeDegrees>-1.94819368422031402587890625</LongitudeDegrees>
            </Position>
            <AltitudeMeters>58.40000152587890625</AltitudeMeters>
            <DistanceMeters>NAN</DistanceMeters>
          </Trackpoint>
          <Trackpoint>
            <Time>2021-08-11T17:24:28.000Z</Time>
            <Position>
              <LatitudeDegrees>43.31693002022802829742431640625</LatitudeDegrees>
              <LongitudeDegrees>-1.94821757264435291290283203125</LongitudeDegrees>
            </Position>
            <AltitudeMeters>58.59999847412109375</AltitudeMeters>
            <DistanceMeters>NAN</DistanceMeters>
          </Trackpoint>
          <Trackpoint>
            <Time>2021-08-11T17:24:29.000Z</Time>
            <Position>
              <LatitudeDegrees>43.31693085841834545135498046875</LatitudeDegrees>
              <LongitudeDegrees>-1.9482384435832500457763671875</LongitudeDegrees>
            </Position>
            <AltitudeMeters>58.59999847412109375</AltitudeMeters>
            <DistanceMeters>NAN</DistanceMeters>
          </Trackpoint>
          <Trackpoint>
            <Time>2021-08-11T17:24:30.000Z</Time>
            <Position>
              <LatitudeDegrees>43.316930942237377166748046875</LatitudeDegrees>
              <LongitudeDegrees>-1.94825914688408374786376953125</LongitudeDegrees>
            </Position>
            <AltitudeMeters>59</AltitudeMeters>
            <DistanceMeters>NAN</DistanceMeters>
          </Trackpoint>
          <Trackpoint>
            <Time>2021-08-11T17:24:31.000Z</Time>
            <Position>
              <LatitudeDegrees>43.31693287007510662078857421875</LatitudeDegrees>
              <LongitudeDegrees>-1.94828613661229610443115234375</LongitudeDegrees>
            </Position>
            <AltitudeMeters>59</AltitudeMeters>
            <DistanceMeters>NAN</DistanceMeters>
          </Trackpoint>
          <Trackpoint>
            <Time>2021-08-11T17:24:35.000Z</Time>
            <Position>
              <LatitudeDegrees>43.3169485442340373992919921875</LatitudeDegrees>
              <LongitudeDegrees>-1.94838789291679859161376953125</LongitudeDegrees>
            </Position>
            <AltitudeMeters>59.799999237060546875</AltitudeMeters>
            <DistanceMeters>NAN</DistanceMeters>
          </Trackpoint>
          <Trackpoint>
            <Time>2021-08-11T17:24:36.000Z</Time>
            <Position>
              <LatitudeDegrees>43.3169508911669254302978515625</LatitudeDegrees>
              <LongitudeDegrees>-1.94841354154050350189208984375</LongitudeDegrees>
            </Position>
            <AltitudeMeters>59.799999237060546875</AltitudeMeters>
            <DistanceMeters>NAN</DistanceMeters>
          </Trackpoint>
          <Trackpoint>
            <Time>2021-08-11T17:24:37.000Z</Time>
            <Position>
              <LatitudeDegrees>43.316951058804988861083984375</LatitudeDegrees>
              <LongitudeDegrees>-1.9484389387071132659912109375</LongitudeDegrees>
            </Position>
            <AltitudeMeters>60</AltitudeMeters>
            <DistanceMeters>NAN</DistanceMeters>
          </Trackpoint>
          <Trackpoint>
            <Time>2021-08-11T17:24:38.000Z</Time>
            <Position>
              <LatitudeDegrees>43.31695348955690860748291015625</LatitudeDegrees>
              <LongitudeDegrees>-1.94846433587372303009033203125</LongitudeDegrees>
            </Position>
            <AltitudeMeters>60.200000762939453125</AltitudeMeters>
            <DistanceMeters>NAN</DistanceMeters>
          </Trackpoint>
          <Trackpoint>
            <Time>2021-08-11T17:24:39.000Z</Time>
            <Position>
              <LatitudeDegrees>43.31695700995624065399169921875</LatitudeDegrees>
              <LongitudeDegrees>-1.9484962709248065948486328125</LongitudeDegrees>
            </Position>
            <AltitudeMeters>60.40000152587890625</AltitudeMeters>
            <DistanceMeters>NAN</DistanceMeters>
          </Trackpoint>
          <Trackpoint>
            <Time>2021-08-11T17:24:40.000Z</Time>
            <Position>
              <LatitudeDegrees>43.31695885397493839263916015625</LatitudeDegrees>
              <LongitudeDegrees>-1.94851848296821117401123046875</LongitudeDegrees>
            </Position>
            <AltitudeMeters>60.59999847412109375</AltitudeMeters>
            <DistanceMeters>NAN</DistanceMeters>
          </Trackpoint>
          <Trackpoint>
            <Time>2021-08-11T17:24:41.000Z</Time>
            <Position>
              <LatitudeDegrees>43.31696086563169956207275390625</LatitudeDegrees>
              <LongitudeDegrees>-1.94854505360126495361328125</LongitudeDegrees>
            </Position>
            <AltitudeMeters>60.799999237060546875</AltitudeMeters>
            <DistanceMeters>NAN</DistanceMeters>
          </Trackpoint>
          <Trackpoint>
            <Time>2021-08-11T17:24:42.000Z</Time>
            <Position>
              <LatitudeDegrees>43.31696187146008014678955078125</LatitudeDegrees>
              <LongitudeDegrees>-1.94857263006269931793212890625</LongitudeDegrees>
            </Position>
            <AltitudeMeters>61</AltitudeMeters>
            <DistanceMeters>NAN</DistanceMeters>
          </Trackpoint>
          <Trackpoint>
            <Time>2021-08-11T17:24:43.000Z</Time>
            <Position>
              <LatitudeDegrees>43.316964469850063323974609375</LatitudeDegrees>
              <LongitudeDegrees>-1.94860163144767284393310546875</LongitudeDegrees>
            </Position>
            <AltitudeMeters>61</AltitudeMeters>
            <DistanceMeters>NAN</DistanceMeters>
          </Trackpoint>
          <Trackpoint>
            <Time>2021-08-11T17:24:44.000Z</Time>
            <Position>
              <LatitudeDegrees>43.3169676549732685089111328125</LatitudeDegrees>
              <LongitudeDegrees>-1.94863365031778812408447265625</LongitudeDegrees>
            </Position>
            <AltitudeMeters>61.200000762939453125</AltitudeMeters>
            <DistanceMeters>NAN</DistanceMeters>
          </Trackpoint>
          <Trackpoint>
            <Time>2021-08-11T17:24:45.000Z</Time>
            <Position>
              <LatitudeDegrees>43.316969163715839385986328125</LatitudeDegrees>
              <LongitudeDegrees>-1.94865058176219463348388671875</LongitudeDegrees>
            </Position>
            <AltitudeMeters>61.40000152587890625</AltitudeMeters>
            <DistanceMeters>NAN</DistanceMeters>
          </Trackpoint>
          <Trackpoint>
            <Time>2021-08-11T17:24:46.000Z</Time>
            <Position>
              <LatitudeDegrees>43.31697218120098114013671875</LatitudeDegrees>
              <LongitudeDegrees>-1.94867069832980632781982421875</LongitudeDegrees>
            </Position>
            <AltitudeMeters>61.59999847412109375</AltitudeMeters>
            <DistanceMeters>NAN</DistanceMeters>
          </Trackpoint>
          <Trackpoint>
            <Time>2021-08-11T17:24:47.000Z</Time>
            <Position>
              <LatitudeDegrees>43.3169736899435520172119140625</LatitudeDegrees>
              <LongitudeDegrees>-1.94868930615484714508056640625</LongitudeDegrees>
            </Position>
            <AltitudeMeters>61.799999237060546875</AltitudeMeters>
            <DistanceMeters>NAN</DistanceMeters>
          </Trackpoint>
          <Trackpoint>
            <Time>2021-08-11T17:24:48.000Z</Time>
            <Position>
              <LatitudeDegrees>43.3169741928577423095703125</LatitudeDegrees>
              <LongitudeDegrees>-1.94870824925601482391357421875</LongitudeDegrees>
            </Position>
            <AltitudeMeters>61.799999237060546875</AltitudeMeters>
            <DistanceMeters>NAN</DistanceMeters>
          </Trackpoint>
          <Trackpoint>
            <Time>2021-08-11T17:24:49.000Z</Time>
            <Position>
              <LatitudeDegrees>43.31697486340999603271484375</LatitudeDegrees>
              <LongitudeDegrees>-1.9487245939671993255615234375</LongitudeDegrees>
            </Position>
            <AltitudeMeters>62.200000762939453125</AltitudeMeters>
            <DistanceMeters>NAN</DistanceMeters>
          </Trackpoint>
          <Trackpoint>
            <Time>2021-08-11T17:24:50.000Z</Time>
            <Position>
              <LatitudeDegrees>43.31697762943804264068603515625</LatitudeDegrees>
              <LongitudeDegrees>-1.948743872344493865966796875</LongitudeDegrees>
            </Position>
            <AltitudeMeters>62.200000762939453125</AltitudeMeters>
            <DistanceMeters>NAN</DistanceMeters>
          </Trackpoint>
          <Trackpoint>
            <Time>2021-08-11T17:24:51.000Z</Time>
            <Position>
              <LatitudeDegrees>43.316980898380279541015625</LatitudeDegrees>
              <LongitudeDegrees>-1.94875971414148807525634765625</LongitudeDegrees>
            </Position>
            <AltitudeMeters>62.200000762939453125</AltitudeMeters>
            <DistanceMeters>NAN</DistanceMeters>
          </Trackpoint>
          <Trackpoint>
            <Time>2021-08-11T17:24:52.000Z</Time>
            <Position>
              <LatitudeDegrees>43.3169822394847869873046875</LatitudeDegrees>
              <LongitudeDegrees>-1.9487768970429897308349609375</LongitudeDegrees>
            </Position>
            <AltitudeMeters>62.40000152587890625</AltitudeMeters>
            <DistanceMeters>NAN</DistanceMeters>
          </Trackpoint>
          <Trackpoint>
            <Time>2021-08-11T17:24:53.000Z</Time>
            <Position>
              <LatitudeDegrees>43.3169822394847869873046875</LatitudeDegrees>
              <LongitudeDegrees>-1.94880128838121891021728515625</LongitudeDegrees>
            </Position>
            <AltitudeMeters>62.59999847412109375</AltitudeMeters>
            <DistanceMeters>NAN</DistanceMeters>
          </Trackpoint>
          <Trackpoint>
            <Time>2021-08-11T17:24:54.000Z</Time>
            <Position>
              <LatitudeDegrees>43.31698601134121417999267578125</LatitudeDegrees>
              <LongitudeDegrees>-1.9488328881561756134033203125</LongitudeDegrees>
            </Position>
            <AltitudeMeters>62.59999847412109375</AltitudeMeters>
            <DistanceMeters>NAN</DistanceMeters>
          </Trackpoint>
          <Trackpoint>
            <Time>2021-08-11T17:24:55.000Z</Time>
            <Position>
              <LatitudeDegrees>43.3169914595782756805419921875</LatitudeDegrees>
              <LongitudeDegrees>-1.94885644130408763885498046875</LongitudeDegrees>
            </Position>
            <AltitudeMeters>62.799999237060546875</AltitudeMeters>
            <DistanceMeters>NAN</DistanceMeters>
          </Trackpoint>
          <Trackpoint>
            <Time>2021-08-11T17:24:56.000Z</Time>
            <Position>
              <LatitudeDegrees>43.31700277514755725860595703125</LatitudeDegrees>
              <LongitudeDegrees>-1.94887605495750904083251953125</LongitudeDegrees>
            </Position>
            <AltitudeMeters>63</AltitudeMeters>
            <DistanceMeters>NAN</DistanceMeters>
          </Trackpoint>
          <Trackpoint>
            <Time>2021-08-11T17:24:57.000Z</Time>
            <Position>
              <LatitudeDegrees>43.31701266579329967498779296875</LatitudeDegrees>
              <LongitudeDegrees>-1.9488922320306301116943359375</LongitudeDegrees>
            </Position>
            <AltitudeMeters>63.200000762939453125</AltitudeMeters>
            <DistanceMeters>NAN</DistanceMeters>
          </Trackpoint>
          <Trackpoint>
            <Time>2021-08-11T17:24:58.000Z</Time>
            <Position>
              <LatitudeDegrees>43.31702842377126216888427734375</LatitudeDegrees>
              <LongitudeDegrees>-1.94890849292278289794921875</LongitudeDegrees>
            </Position>
            <AltitudeMeters>63.200000762939453125</AltitudeMeters>
            <DistanceMeters>NAN</DistanceMeters>
          </Trackpoint>
          <Trackpoint>
            <Time>2021-08-11T17:24:59.000Z</Time>
            <Position>
              <LatitudeDegrees>43.3170464448630809783935546875</LatitudeDegrees>
              <LongitudeDegrees>-1.94891679100692272186279296875</LongitudeDegrees>
            </Position>
            <AltitudeMeters>63.40000152587890625</AltitudeMeters>
            <DistanceMeters>NAN</DistanceMeters>
          </Trackpoint>
          <Trackpoint>
            <Time>2021-08-11T17:25:00.000Z</Time>
            <Position>
              <LatitudeDegrees>43.31706874072551727294921875</LatitudeDegrees>
              <LongitudeDegrees>-1.9489234127104282379150390625</LongitudeDegrees>
            </Position>
            <AltitudeMeters>63.40000152587890625</AltitudeMeters>
            <DistanceMeters>NAN</DistanceMeters>
          </Trackpoint>
          <Trackpoint>
            <Time>2021-08-11T17:25:01.000Z</Time>
            <Position>
              <LatitudeDegrees>43.3170863427221775054931640625</LatitudeDegrees>
              <LongitudeDegrees>-1.94892332889139652252197265625</LongitudeDegrees>
            </Position>
            <AltitudeMeters>63.59999847412109375</AltitudeMeters>
            <DistanceMeters>NAN</DistanceMeters>
          </Trackpoint>
          <Trackpoint>
            <Time>2021-08-11T17:25:02.000Z</Time>
            <Position>
              <LatitudeDegrees>43.31711039878427982330322265625</LatitudeDegrees>
              <LongitudeDegrees>-1.94892249070107936859130859375</LongitudeDegrees>
            </Position>
            <AltitudeMeters>63.799999237060546875</AltitudeMeters>
            <DistanceMeters>NAN</DistanceMeters>
          </Trackpoint>
          <Trackpoint>
            <Time>2021-08-11T17:25:03.000Z</Time>
            <Position>
              <LatitudeDegrees>43.3171351253986358642578125</LatitudeDegrees>
              <LongitudeDegrees>-1.948922574520111083984375</LongitudeDegrees>
            </Position>
            <AltitudeMeters>63.799999237060546875</AltitudeMeters>
            <DistanceMeters>NAN</DistanceMeters>
          </Trackpoint>
          <Trackpoint>
            <Time>2021-08-11T17:25:04.000Z</Time>
            <Position>
              <LatitudeDegrees>43.3171590976417064666748046875</LatitudeDegrees>
              <LongitudeDegrees>-1.948924921452999114990234375</LongitudeDegrees>
            </Position>
            <AltitudeMeters>63.799999237060546875</AltitudeMeters>
            <DistanceMeters>NAN</DistanceMeters>
          </Trackpoint>
          <Trackpoint>
            <Time>2021-08-11T17:25:05.000Z</Time>
            <Position>
              <LatitudeDegrees>43.31717980094254016876220703125</LatitudeDegrees>
              <LongitudeDegrees>-1.94892986677587032318115234375</LongitudeDegrees>
            </Position>
            <AltitudeMeters>64</AltitudeMeters>
            <DistanceMeters>NAN</DistanceMeters>
          </Trackpoint>
          <Trackpoint>
            <Time>2021-08-11T17:25:06.000Z</Time>
            <Position>
              <LatitudeDegrees>43.31719690002501010894775390625</LatitudeDegrees>
              <LongitudeDegrees>-1.94894109852612018585205078125</LongitudeDegrees>
            </Position>
            <AltitudeMeters>64</AltitudeMeters>
            <DistanceMeters>NAN</DistanceMeters>
          </Trackpoint>
          <Trackpoint>
            <Time>2021-08-11T17:25:07.000Z</Time>
            <Position>
              <LatitudeDegrees>43.3172114007174968719482421875</LatitudeDegrees>
              <LongitudeDegrees>-1.94895417429506778717041015625</LongitudeDegrees>
            </Position>
            <AltitudeMeters>64</AltitudeMeters>
            <DistanceMeters>NAN</DistanceMeters>
          </Trackpoint>
          <Trackpoint>
            <Time>2021-08-11T17:25:08.000Z</Time>
            <Position>
              <LatitudeDegrees>43.31722321920096874237060546875</LatitudeDegrees>
              <LongitudeDegrees>-1.94897546432912349700927734375</LongitudeDegrees>
            </Position>
            <AltitudeMeters>64</AltitudeMeters>
            <DistanceMeters>NAN</DistanceMeters>
          </Trackpoint>
          <Trackpoint>
            <Time>2021-08-11T17:25:09.000Z</Time>
            <Position>
              <LatitudeDegrees>43.31723260693252086639404296875</LatitudeDegrees>
              <LongitudeDegrees>-1.94900211878120899200439453125</LongitudeDegrees>
            </Position>
            <AltitudeMeters>64.1999969482421875</AltitudeMeters>
            <DistanceMeters>NAN</DistanceMeters>
          </Trackpoint>
          <Trackpoint>
            <Time>2021-08-11T17:25:10.000Z</Time>
            <Position>
              <LatitudeDegrees>43.31723948009312152862548828125</LatitudeDegrees>
              <LongitudeDegrees>-1.94903346709907054901123046875</LongitudeDegrees>
            </Position>
            <AltitudeMeters>64.1999969482421875</AltitudeMeters>
            <DistanceMeters>NAN</DistanceMeters>
          </Trackpoint>
          <Trackpoint>
            <Time>2021-08-11T17:25:11.000Z</Time>
            <Position>
              <LatitudeDegrees>43.3172397315502166748046875</LatitudeDegrees>
              <LongitudeDegrees>-1.949062049388885498046875</LongitudeDegrees>
            </Position>
            <AltitudeMeters>64.1999969482421875</AltitudeMeters>
            <DistanceMeters>NAN</DistanceMeters>
          </Trackpoint>
          <Trackpoint>
            <Time>2021-08-11T17:25:12.000Z</Time>
            <Position>
              <LatitudeDegrees>43.317235372960567474365234375</LatitudeDegrees>
              <LongitudeDegrees>-1.949088536202907562255859375</LongitudeDegrees>
            </Position>
            <AltitudeMeters>64.1999969482421875</AltitudeMeters>
            <DistanceMeters>NAN</DistanceMeters>
          </Trackpoint>
          <Trackpoint>
            <Time>2021-08-11T17:25:13.000Z</Time>
            <Position>
              <LatitudeDegrees>43.3172301761806011199951171875</LatitudeDegrees>
              <LongitudeDegrees>-1.9491121731698513031005859375</LongitudeDegrees>
            </Position>
            <AltitudeMeters>64.1999969482421875</AltitudeMeters>
            <DistanceMeters>NAN</DistanceMeters>
          </Trackpoint>
          <Trackpoint>
            <Time>2021-08-11T17:25:14.000Z</Time>
            <Position>
              <LatitudeDegrees>43.31722137518227100372314453125</LatitudeDegrees>
              <LongitudeDegrees>-1.94913379848003387451171875</LongitudeDegrees>
            </Position>
            <AltitudeMeters>64.40000152587890625</AltitudeMeters>
            <DistanceMeters>NAN</DistanceMeters>
          </Trackpoint>
          <Trackpoint>
            <Time>2021-08-11T17:25:15.000Z</Time>
            <Position>
              <LatitudeDegrees>43.31721316091716289520263671875</LatitudeDegrees>
              <LongitudeDegrees>-1.949155591428279876708984375</LongitudeDegrees>
            </Position>
            <AltitudeMeters>64.40000152587890625</AltitudeMeters>
            <DistanceMeters>NAN</DistanceMeters>
          </Trackpoint>
          <Trackpoint>
            <Time>2021-08-11T17:25:16.000Z</Time>
            <Position>
              <LatitudeDegrees>43.31720578484237194061279296875</LatitudeDegrees>
              <LongitudeDegrees>-1.94917981512844562530517578125</LongitudeDegrees>
            </Position>
            <AltitudeMeters>64.59999847412109375</AltitudeMeters>
            <DistanceMeters>NAN</DistanceMeters>
          </Trackpoint>
          <Trackpoint>
            <Time>2021-08-11T17:25:17.000Z</Time>
            <Position>
              <LatitudeDegrees>43.31719991751015186309814453125</LatitudeDegrees>
              <LongitudeDegrees>-1.9492037035524845123291015625</LongitudeDegrees>
            </Position>
            <AltitudeMeters>64.59999847412109375</AltitudeMeters>
            <DistanceMeters>NAN</DistanceMeters>
          </Trackpoint>
          <Trackpoint>
            <Time>2021-08-11T17:25:18.000Z</Time>
            <Position>
              <LatitudeDegrees>43.31719405017793178558349609375</LatitudeDegrees>
              <LongitudeDegrees>-1.94922742433845996856689453125</LongitudeDegrees>
            </Position>
            <AltitudeMeters>64.8000030517578125</AltitudeMeters>
            <DistanceMeters>NAN</DistanceMeters>
          </Trackpoint>
          <Trackpoint>
            <Time>2021-08-11T17:25:19.000Z</Time>
            <Position>
              <LatitudeDegrees>43.3171872608363628387451171875</LatitudeDegrees>
              <LongitudeDegrees>-1.94925047457218170166015625</LongitudeDegrees>
            </Position>
            <AltitudeMeters>64.8000030517578125</AltitudeMeters>
            <DistanceMeters>NAN</DistanceMeters>
          </Trackpoint>
          <Trackpoint>
            <Time>2021-08-11T17:25:20.000Z</Time>
            <Position>
              <LatitudeDegrees>43.31718063913285732269287109375</LatitudeDegrees>
              <LongitudeDegrees>-1.9492751173675060272216796875</LongitudeDegrees>
            </Position>
            <AltitudeMeters>65</AltitudeMeters>
            <DistanceMeters>NAN</DistanceMeters>
          </Trackpoint>
          <Trackpoint>
            <Time>2021-08-11T17:25:21.000Z</Time>
            <Position>
              <LatitudeDegrees>43.31717577762901782989501953125</LatitudeDegrees>
              <LongitudeDegrees>-1.94930009543895721435546875</LongitudeDegrees>
            </Position>
            <AltitudeMeters>65.1999969482421875</AltitudeMeters>
            <DistanceMeters>NAN</DistanceMeters>
          </Trackpoint>
          <Trackpoint>
            <Time>2021-08-11T17:25:23.000Z</Time>
            <Position>
              <LatitudeDegrees>43.317159600555896759033203125</LatitudeDegrees>
              <LongitudeDegrees>-1.94934812374413013458251953125</LongitudeDegrees>
            </Position>
            <AltitudeMeters>65.40000152587890625</AltitudeMeters>
            <DistanceMeters>NAN</DistanceMeters>
          </Trackpoint>
          <Trackpoint>
            <Time>2021-08-11T17:25:25.000Z</Time>
            <Position>
              <LatitudeDegrees>43.31714057363569736480712890625</LatitudeDegrees>
              <LongitudeDegrees>-1.94940009154379367828369140625</LongitudeDegrees>
            </Position>
            <AltitudeMeters>65.59999847412109375</AltitudeMeters>
            <DistanceMeters>NAN</DistanceMeters>
          </Trackpoint>
          <Trackpoint>
            <Time>2021-08-11T17:25:29.000Z</Time>
            <Position>
              <LatitudeDegrees>43.31711760722100734710693359375</LatitudeDegrees>
              <LongitudeDegrees>-1.94951542653143405914306640625</LongitudeDegrees>
            </Position>
            <AltitudeMeters>66.40000152587890625</AltitudeMeters>
            <DistanceMeters>NAN</DistanceMeters>
          </Trackpoint>
          <Trackpoint>
            <Time>2021-08-11T17:25:30.000Z</Time>
            <Position>
              <LatitudeDegrees>43.31711157225072383880615234375</LatitudeDegrees>
              <LongitudeDegrees>-1.94954291917383670806884765625</LongitudeDegrees>
            </Position>
            <AltitudeMeters>66.59999847412109375</AltitudeMeters>
            <DistanceMeters>NAN</DistanceMeters>
          </Trackpoint>
          <Trackpoint>
            <Time>2021-08-11T17:25:31.000Z</Time>
            <Position>
              <LatitudeDegrees>43.317105956375598907470703125</LatitudeDegrees>
              <LongitudeDegrees>-1.94957057945430278778076171875</LongitudeDegrees>
            </Position>
            <AltitudeMeters>66.8000030517578125</AltitudeMeters>
            <DistanceMeters>NAN</DistanceMeters>
          </Trackpoint>
          <Trackpoint>
            <Time>2021-08-11T17:25:32.000Z</Time>
            <Position>
              <LatitudeDegrees>43.317102603614330291748046875</LatitudeDegrees>
              <LongitudeDegrees>-1.94959974847733974456787109375</LongitudeDegrees>
            </Position>
            <AltitudeMeters>67</AltitudeMeters>
            <DistanceMeters>NAN</DistanceMeters>
          </Trackpoint>
          <Trackpoint>
            <Time>2021-08-11T17:25:33.000Z</Time>
            <Position>
              <LatitudeDegrees>43.317101262509822845458984375</LatitudeDegrees>
              <LongitudeDegrees>-1.9496295042335987091064453125</LongitudeDegrees>
            </Position>
            <AltitudeMeters>67.1999969482421875</AltitudeMeters>
            <DistanceMeters>NAN</DistanceMeters>
          </Trackpoint>
          <Trackpoint>
            <Time>2021-08-11T17:25:34.000Z</Time>
            <Position>
              <LatitudeDegrees>43.31710067577660083770751953125</LatitudeDegrees>
              <LongitudeDegrees>-1.94965808652341365814208984375</LongitudeDegrees>
            </Position>
            <AltitudeMeters>67.40000152587890625</AltitudeMeters>
            <DistanceMeters>NAN</DistanceMeters>
          </Trackpoint>
          <Trackpoint>
            <Time>2021-08-11T17:25:35.000Z</Time>
            <Position>
              <LatitudeDegrees>43.31709816120564937591552734375</LatitudeDegrees>
              <LongitudeDegrees>-1.9496858306229114532470703125</LongitudeDegrees>
            </Position>
            <AltitudeMeters>67.40000152587890625</AltitudeMeters>
            <DistanceMeters>NAN</DistanceMeters>
          </Trackpoint>
          <Trackpoint>
            <Time>2021-08-11T17:25:36.000Z</Time>
            <Position>
              <LatitudeDegrees>43.3170975744724273681640625</LatitudeDegrees>
              <LongitudeDegrees>-1.9497173465788364410400390625</LongitudeDegrees>
            </Position>
            <AltitudeMeters>67.8000030517578125</AltitudeMeters>
            <DistanceMeters>NAN</DistanceMeters>
          </Trackpoint>
          <Trackpoint>
            <Time>2021-08-11T17:25:37.000Z</Time>
            <Position>
              <LatitudeDegrees>43.31709715537726879119873046875</LatitudeDegrees>
              <LongitudeDegrees>-1.949745006859302520751953125</LongitudeDegrees>
            </Position>
            <AltitudeMeters>67.8000030517578125</AltitudeMeters>
            <DistanceMeters>NAN</DistanceMeters>
          </Trackpoint>
          <Trackpoint>
            <Time>2021-08-11T17:25:38.000Z</Time>
            <Position>
              <LatitudeDegrees>43.31709732301533222198486328125</LatitudeDegrees>
              <LongitudeDegrees>-1.94977107457816600799560546875</LongitudeDegrees>
            </Position>
            <AltitudeMeters>68</AltitudeMeters>
            <DistanceMeters>NAN</DistanceMeters>
          </Trackpoint>
          <Trackpoint>
            <Time>2021-08-11T17:25:39.000Z</Time>
            <Position>
              <LatitudeDegrees>43.31709782592952251434326171875</LatitudeDegrees>
              <LongitudeDegrees>-1.94979764521121978759765625</LongitudeDegrees>
            </Position>
            <AltitudeMeters>68</AltitudeMeters>
            <DistanceMeters>NAN</DistanceMeters>
          </Trackpoint>
          <Trackpoint>
            <Time>2021-08-11T17:25:40.000Z</Time>
            <Position>
              <LatitudeDegrees>43.31710034050047397613525390625</LatitudeDegrees>
              <LongitudeDegrees>-1.9498253054916858673095703125</LongitudeDegrees>
            </Position>
            <AltitudeMeters>68.1999969482421875</AltitudeMeters>
            <DistanceMeters>NAN</DistanceMeters>
          </Trackpoint>
          <Trackpoint>
            <Time>2021-08-11T17:25:41.000Z</Time>
            <Position>
              <LatitudeDegrees>43.3171017654240131378173828125</LatitudeDegrees>
              <LongitudeDegrees>-1.949852965772151947021484375</LongitudeDegrees>
            </Position>
            <AltitudeMeters>68.40000152587890625</AltitudeMeters>
            <DistanceMeters>NAN</DistanceMeters>
          </Trackpoint>
          <Trackpoint>
            <Time>2021-08-11T17:25:42.000Z</Time>
            <Position>
              <LatitudeDegrees>43.31710159778594970703125</LatitudeDegrees>
              <LongitudeDegrees>-1.9498802907764911651611328125</LongitudeDegrees>
            </Position>
            <AltitudeMeters>68.40000152587890625</AltitudeMeters>
            <DistanceMeters>NAN</DistanceMeters>
          </Trackpoint>
          <Trackpoint>
            <Time>2021-08-11T17:25:43.000Z</Time>
            <Position>
              <LatitudeDegrees>43.31710134632885456085205078125</LatitudeDegrees>
              <LongitudeDegrees>-1.9499067775905132293701171875</LongitudeDegrees>
            </Position>
            <AltitudeMeters>68.59999847412109375</AltitudeMeters>
            <DistanceMeters>NAN</DistanceMeters>
          </Trackpoint>
          <Trackpoint>
            <Time>2021-08-11T17:25:44.000Z</Time>
            <Position>
              <LatitudeDegrees>43.31710285507142543792724609375</LatitudeDegrees>
              <LongitudeDegrees>-1.94993452169001102447509765625</LongitudeDegrees>
            </Position>
            <AltitudeMeters>68.8000030517578125</AltitudeMeters>
            <DistanceMeters>NAN</DistanceMeters>
          </Trackpoint>
          <Trackpoint>
            <Time>2021-08-11T17:25:45.000Z</Time>
            <Position>
              <LatitudeDegrees>43.31710495054721832275390625</LatitudeDegrees>
              <LongitudeDegrees>-1.94996100850403308868408203125</LongitudeDegrees>
            </Position>
            <AltitudeMeters>69</AltitudeMeters>
            <DistanceMeters>NAN</DistanceMeters>
          </Trackpoint>
          <Trackpoint>
            <Time>2021-08-11T17:25:46.000Z</Time>
            <Position>
              <LatitudeDegrees>43.31710889004170894622802734375</LatitudeDegrees>
              <LongitudeDegrees>-1.94998850114643573760986328125</LongitudeDegrees>
            </Position>
            <AltitudeMeters>69</AltitudeMeters>
            <DistanceMeters>NAN</DistanceMeters>
          </Trackpoint>
          <Trackpoint>
            <Time>2021-08-11T17:25:47.000Z</Time>
            <Position>
              <LatitudeDegrees>43.3171108178794384002685546875</LatitudeDegrees>
              <LongitudeDegrees>-1.95001649670302867889404296875</LongitudeDegrees>
            </Position>
            <AltitudeMeters>69.1999969482421875</AltitudeMeters>
            <DistanceMeters>NAN</DistanceMeters>
          </Trackpoint>
          <Trackpoint>
            <Time>2021-08-11T17:25:48.000Z</Time>
            <Position>
              <LatitudeDegrees>43.31711291335523128509521484375</LatitudeDegrees>
              <LongitudeDegrees>-1.9500442408025264739990234375</LongitudeDegrees>
            </Position>
            <AltitudeMeters>69.40000152587890625</AltitudeMeters>
            <DistanceMeters>NAN</DistanceMeters>
          </Trackpoint>
          <Trackpoint>
            <Time>2021-08-11T17:25:49.000Z</Time>
            <Position>
              <LatitudeDegrees>43.3171155117452144622802734375</LatitudeDegrees>
              <LongitudeDegrees>-1.9500719010829925537109375</LongitudeDegrees>
            </Position>
            <AltitudeMeters>69.40000152587890625</AltitudeMeters>
            <DistanceMeters>NAN</DistanceMeters>
          </Trackpoint>
          <Trackpoint>
            <Time>2021-08-11T17:25:50.000Z</Time>
            <Position>
              <LatitudeDegrees>43.31711878068745136260986328125</LatitudeDegrees>
              <LongitudeDegrees>-1.95010031573474407196044921875</LongitudeDegrees>
            </Position>
            <AltitudeMeters>69.59999847412109375</AltitudeMeters>
            <DistanceMeters>NAN</DistanceMeters>
          </Trackpoint>
          <Trackpoint>
            <Time>2021-08-11T17:25:51.000Z</Time>
            <Position>
              <LatitudeDegrees>43.31712531857192516326904296875</LatitudeDegrees>
              <LongitudeDegrees>-1.9501282274723052978515625</LongitudeDegrees>
            </Position>
            <AltitudeMeters>69.59999847412109375</AltitudeMeters>
            <DistanceMeters>NAN</DistanceMeters>
          </Trackpoint>
          <Trackpoint>
            <Time>2021-08-11T17:25:52.000Z</Time>
            <Position>
              <LatitudeDegrees>43.3171282522380352020263671875</LatitudeDegrees>
              <LongitudeDegrees>-1.9501602463424205780029296875</LongitudeDegrees>
            </Position>
            <AltitudeMeters>69.59999847412109375</AltitudeMeters>
            <DistanceMeters>NAN</DistanceMeters>
          </Trackpoint>
          <Trackpoint>
            <Time>2021-08-11T17:25:53.000Z</Time>
            <Position>
              <LatitudeDegrees>43.3171295933425426483154296875</LatitudeDegrees>
              <LongitudeDegrees>-1.950190253555774688720703125</LongitudeDegrees>
            </Position>
            <AltitudeMeters>69.8000030517578125</AltitudeMeters>
            <DistanceMeters>NAN</DistanceMeters>
          </Trackpoint>
          <Trackpoint>
            <Time>2021-08-11T17:25:54.000Z</Time>
            <Position>
              <LatitudeDegrees>43.317132107913494110107421875</LatitudeDegrees>
              <LongitudeDegrees>-1.950221098959445953369140625</LongitudeDegrees>
            </Position>
            <AltitudeMeters>69.8000030517578125</AltitudeMeters>
            <DistanceMeters>NAN</DistanceMeters>
          </Trackpoint>
          <Trackpoint>
            <Time>2021-08-11T17:25:55.000Z</Time>
            <Position>
              <LatitudeDegrees>43.3171352930366992950439453125</LatitudeDegrees>
              <LongitudeDegrees>-1.9502507708966732025146484375</LongitudeDegrees>
            </Position>
            <AltitudeMeters>70</AltitudeMeters>
            <DistanceMeters>NAN</DistanceMeters>
          </Trackpoint>
          <Trackpoint>
            <Time>2021-08-11T17:25:56.000Z</Time>
            <Position>
              <LatitudeDegrees>43.31713847815990447998046875</LatitudeDegrees>
              <LongitudeDegrees>-1.950280778110027313232421875</LongitudeDegrees>
            </Position>
            <AltitudeMeters>70</AltitudeMeters>
            <DistanceMeters>NAN</DistanceMeters>
          </Trackpoint>
          <Trackpoint>
            <Time>2021-08-11T17:25:57.000Z</Time>
            <Position>
              <LatitudeDegrees>43.31714359112083911895751953125</LatitudeDegrees>
              <LongitudeDegrees>-1.95031053386628627777099609375</LongitudeDegrees>
            </Position>
            <AltitudeMeters>70.1999969482421875</AltitudeMeters>
            <DistanceMeters>NAN</DistanceMeters>
          </Trackpoint>
          <Trackpoint>
            <Time>2021-08-11T17:25:58.000Z</Time>
            <Position>
              <LatitudeDegrees>43.3171490393579006195068359375</LatitudeDegrees>
              <LongitudeDegrees>-1.95033811032772064208984375</LongitudeDegrees>
            </Position>
            <AltitudeMeters>70.40000152587890625</AltitudeMeters>
            <DistanceMeters>NAN</DistanceMeters>
          </Trackpoint>
          <Trackpoint>
            <Time>2021-08-11T17:25:59.000Z</Time>
            <Position>
              <LatitudeDegrees>43.31715247593820095062255859375</LatitudeDegrees>
              <LongitudeDegrees>-1.95036820136010646820068359375</LongitudeDegrees>
            </Position>
            <AltitudeMeters>70.59999847412109375</AltitudeMeters>
            <DistanceMeters>NAN</DistanceMeters>
          </Trackpoint>
          <Trackpoint>
            <Time>2021-08-11T17:26:00.000Z</Time>
            <Position>
              <LatitudeDegrees>43.31715482287108898162841796875</LatitudeDegrees>
              <LongitudeDegrees>-1.95039418525993824005126953125</LongitudeDegrees>
            </Position>
            <AltitudeMeters>70.59999847412109375</AltitudeMeters>
            <DistanceMeters>NAN</DistanceMeters>
          </Trackpoint>
          <Trackpoint>
            <Time>2021-08-11T17:26:01.000Z</Time>
            <Position>
              <LatitudeDegrees>43.31715800799429416656494140625</LatitudeDegrees>
              <LongitudeDegrees>-1.9504152238368988037109375</LongitudeDegrees>
            </Position>
            <AltitudeMeters>70.59999847412109375</AltitudeMeters>
            <DistanceMeters>NAN</DistanceMeters>
          </Trackpoint>
          <Trackpoint>
            <Time>2021-08-11T17:26:02.000Z</Time>
            <Position>
              <LatitudeDegrees>43.3171619474887847900390625</LatitudeDegrees>
              <LongitudeDegrees>-1.9504378549754619598388671875</LongitudeDegrees>
            </Position>
            <AltitudeMeters>70.59999847412109375</AltitudeMeters>
            <DistanceMeters>NAN</DistanceMeters>
          </Trackpoint>
          <Trackpoint>
            <Time>2021-08-11T17:26:03.000Z</Time>
            <Position>
              <LatitudeDegrees>43.31716655753552913665771484375</LatitudeDegrees>
              <LongitudeDegrees>-1.95046425797045230865478515625</LongitudeDegrees>
            </Position>
            <AltitudeMeters>70.8000030517578125</AltitudeMeters>
            <DistanceMeters>NAN</DistanceMeters>
          </Trackpoint>
          <Trackpoint>
            <Time>2021-08-11T17:26:04.000Z</Time>
            <Position>
              <LatitudeDegrees>43.3171713352203369140625</LatitudeDegrees>
              <LongitudeDegrees>-1.95049175061285495758056640625</LongitudeDegrees>
            </Position>
            <AltitudeMeters>71</AltitudeMeters>
            <DistanceMeters>NAN</DistanceMeters>
          </Trackpoint>
          <Trackpoint>
            <Time>2021-08-11T17:26:05.000Z</Time>
            <Position>
              <LatitudeDegrees>43.31717527471482753753662109375</LatitudeDegrees>
              <LongitudeDegrees>-1.95051806978881359100341796875</LongitudeDegrees>
            </Position>
            <AltitudeMeters>71.1999969482421875</AltitudeMeters>
            <DistanceMeters>NAN</DistanceMeters>
          </Trackpoint>
          <Trackpoint>
            <Time>2021-08-11T17:26:06.000Z</Time>
            <Position>
              <LatitudeDegrees>43.3171788789331912994384765625</LatitudeDegrees>
              <LongitudeDegrees>-1.9505439698696136474609375</LongitudeDegrees>
            </Position>
            <AltitudeMeters>71.1999969482421875</AltitudeMeters>
            <DistanceMeters>NAN</DistanceMeters>
          </Trackpoint>
          <Trackpoint>
            <Time>2021-08-11T17:26:07.000Z</Time>
            <Position>
              <LatitudeDegrees>43.31718130968511104583740234375</LatitudeDegrees>
              <LongitudeDegrees>-1.95057238452136516571044921875</LongitudeDegrees>
            </Position>
            <AltitudeMeters>71.1999969482421875</AltitudeMeters>
            <DistanceMeters>NAN</DistanceMeters>
          </Trackpoint>
          <Trackpoint>
            <Time>2021-08-11T17:26:08.000Z</Time>
            <Position>
              <LatitudeDegrees>43.317183740437030792236328125</LatitudeDegrees>
              <LongitudeDegrees>-1.950599290430545806884765625</LongitudeDegrees>
            </Position>
            <AltitudeMeters>71.40000152587890625</AltitudeMeters>
            <DistanceMeters>NAN</DistanceMeters>
          </Trackpoint>
          <Trackpoint>
            <Time>2021-08-11T17:26:09.000Z</Time>
            <Position>
              <LatitudeDegrees>43.31718466244637966156005859375</LatitudeDegrees>
              <LongitudeDegrees>-1.9506289623677730560302734375</LongitudeDegrees>
            </Position>
            <AltitudeMeters>71.40000152587890625</AltitudeMeters>
            <DistanceMeters>NAN</DistanceMeters>
          </Trackpoint>
          <Trackpoint>
            <Time>2021-08-11T17:26:10.000Z</Time>
            <Position>
              <LatitudeDegrees>43.31718851812183856964111328125</LatitudeDegrees>
              <LongitudeDegrees>-1.9506594724953174591064453125</LongitudeDegrees>
            </Position>
            <AltitudeMeters>71.40000152587890625</AltitudeMeters>
            <DistanceMeters>NAN</DistanceMeters>
          </Trackpoint>
          <Trackpoint>
            <Time>2021-08-11T17:26:11.000Z</Time>
            <Position>
              <LatitudeDegrees>43.317191116511821746826171875</LatitudeDegrees>
              <LongitudeDegrees>-1.9506926648318767547607421875</LongitudeDegrees>
            </Position>
            <AltitudeMeters>71.40000152587890625</AltitudeMeters>
            <DistanceMeters>NAN</DistanceMeters>
          </Trackpoint>
          <Trackpoint>
            <Time>2021-08-11T17:26:12.000Z</Time>
            <Position>
              <LatitudeDegrees>43.31719589419662952423095703125</LatitudeDegrees>
              <LongitudeDegrees>-1.950726024806499481201171875</LongitudeDegrees>
            </Position>
            <AltitudeMeters>71.59999847412109375</AltitudeMeters>
            <DistanceMeters>NAN</DistanceMeters>
          </Trackpoint>
          <Trackpoint>
            <Time>2021-08-11T17:26:13.000Z</Time>
            <Position>
              <LatitudeDegrees>43.317199833691120147705078125</LatitudeDegrees>
              <LongitudeDegrees>-1.95075913332402706146240234375</LongitudeDegrees>
            </Position>
            <AltitudeMeters>71.59999847412109375</AltitudeMeters>
            <DistanceMeters>NAN</DistanceMeters>
          </Trackpoint>
          <Trackpoint>
            <Time>2021-08-11T17:26:14.000Z</Time>
            <Position>
              <LatitudeDegrees>43.31720276735723018646240234375</LatitudeDegrees>
              <LongitudeDegrees>-1.95079299621284008026123046875</LongitudeDegrees>
            </Position>
            <AltitudeMeters>71.59999847412109375</AltitudeMeters>
            <DistanceMeters>NAN</DistanceMeters>
          </Trackpoint>
          <Trackpoint>
            <Time>2021-08-11T17:26:15.000Z</Time>
            <Position>
              <LatitudeDegrees>43.31720829941332340240478515625</LatitudeDegrees>
              <LongitudeDegrees>-1.9508324749767780303955078125</LongitudeDegrees>
            </Position>
            <AltitudeMeters>71.59999847412109375</AltitudeMeters>
            <DistanceMeters>NAN</DistanceMeters>
          </Trackpoint>
          <Trackpoint>
            <Time>2021-08-11T17:26:16.000Z</Time>
            <Position>
              <LatitudeDegrees>43.31721131689846515655517578125</LatitudeDegrees>
              <LongitudeDegrees>-1.95085938088595867156982421875</LongitudeDegrees>
            </Position>
            <AltitudeMeters>71.8000030517578125</AltitudeMeters>
            <DistanceMeters>NAN</DistanceMeters>
          </Trackpoint>
          <Trackpoint>
            <Time>2021-08-11T17:26:19.000Z</Time>
            <Position>
              <LatitudeDegrees>43.31721785478293895721435546875</LatitudeDegrees>
              <LongitudeDegrees>-1.9509618915617465972900390625</LongitudeDegrees>
            </Position>
            <AltitudeMeters>72</AltitudeMeters>
            <DistanceMeters>NAN</DistanceMeters>
          </Trackpoint>
          <Trackpoint>
            <Time>2021-08-11T17:26:22.000Z</Time>
            <Position>
              <LatitudeDegrees>43.31722858361899852752685546875</LatitudeDegrees>
              <LongitudeDegrees>-1.95106909610331058502197265625</LongitudeDegrees>
            </Position>
            <AltitudeMeters>72.1999969482421875</AltitudeMeters>
            <DistanceMeters>NAN</DistanceMeters>
          </Trackpoint>
          <Trackpoint>
            <Time>2021-08-11T17:26:29.000Z</Time>
            <Position>
              <LatitudeDegrees>43.31724601797759532928466796875</LatitudeDegrees>
              <LongitudeDegrees>-1.9513142667710781097412109375</LongitudeDegrees>
            </Position>
            <AltitudeMeters>72.59999847412109375</AltitudeMeters>
            <DistanceMeters>NAN</DistanceMeters>
          </Trackpoint>
          <Trackpoint>
            <Time>2021-08-11T17:26:39.000Z</Time>
            <Position>
              <LatitudeDegrees>43.31728440709412097930908203125</LatitudeDegrees>
              <LongitudeDegrees>-1.951690614223480224609375</LongitudeDegrees>
            </Position>
            <AltitudeMeters>73.1999969482421875</AltitudeMeters>
            <DistanceMeters>NAN</DistanceMeters>
          </Trackpoint>
          <Trackpoint>
            <Time>2021-08-11T17:26:48.000Z</Time>
            <Position>
              <LatitudeDegrees>43.31730921752750873565673828125</LatitudeDegrees>
              <LongitudeDegrees>-1.95200367830693721771240234375</LongitudeDegrees>
            </Position>
            <AltitudeMeters>73.40000152587890625</AltitudeMeters>
            <DistanceMeters>NAN</DistanceMeters>
          </Trackpoint>
          <Trackpoint>
            <Time>2021-08-11T17:26:49.000Z</Time>
            <Position>
              <LatitudeDegrees>43.3173123188316822052001953125</LatitudeDegrees>
              <LongitudeDegrees>-1.95205799303948879241943359375</LongitudeDegrees>
            </Position>
            <AltitudeMeters>73.40000152587890625</AltitudeMeters>
            <DistanceMeters>NAN</DistanceMeters>
          </Trackpoint>
          <Trackpoint>
            <Time>2021-08-11T17:26:50.000Z</Time>
            <Position>
              <LatitudeDegrees>43.31731357611715793609619140625</LatitudeDegrees>
              <LongitudeDegrees>-1.95208699442446231842041015625</LongitudeDegrees>
            </Position>
            <AltitudeMeters>73.40000152587890625</AltitudeMeters>
            <DistanceMeters>NAN</DistanceMeters>
          </Trackpoint>
          <Trackpoint>
            <Time>2021-08-11T17:26:51.000Z</Time>
            <Position>
              <LatitudeDegrees>43.3173180185258388519287109375</LatitudeDegrees>
              <LongitudeDegrees>-1.95211700163781642913818359375</LongitudeDegrees>
            </Position>
            <AltitudeMeters>73.40000152587890625</AltitudeMeters>
            <DistanceMeters>NAN</DistanceMeters>
          </Trackpoint>
          <Trackpoint>
            <Time>2021-08-11T17:26:52.000Z</Time>
            <Position>
              <LatitudeDegrees>43.31732195802032947540283203125</LatitudeDegrees>
              <LongitudeDegrees>-1.95215287618339061737060546875</LongitudeDegrees>
            </Position>
            <AltitudeMeters>73.40000152587890625</AltitudeMeters>
            <DistanceMeters>NAN</DistanceMeters>
          </Trackpoint>
          <Trackpoint>
            <Time>2021-08-11T17:26:53.000Z</Time>
            <Position>
              <LatitudeDegrees>43.31732396967709064483642578125</LatitudeDegrees>
              <LongitudeDegrees>-1.95218724198639392852783203125</LongitudeDegrees>
            </Position>
            <AltitudeMeters>73.1999969482421875</AltitudeMeters>
            <DistanceMeters>NAN</DistanceMeters>
          </Trackpoint>
          <Trackpoint>
            <Time>2021-08-11T17:26:54.000Z</Time>
            <Position>
              <LatitudeDegrees>43.31732447259128093719482421875</LatitudeDegrees>
              <LongitudeDegrees>-1.95222211070358753204345703125</LongitudeDegrees>
            </Position>
            <AltitudeMeters>73.1999969482421875</AltitudeMeters>
            <DistanceMeters>NAN</DistanceMeters>
          </Trackpoint>
          <Trackpoint>
            <Time>2021-08-11T17:26:55.000Z</Time>
            <Position>
              <LatitudeDegrees>43.317325897514820098876953125</LatitudeDegrees>
              <LongitudeDegrees>-1.95225597359240055084228515625</LongitudeDegrees>
            </Position>
            <AltitudeMeters>73.1999969482421875</AltitudeMeters>
            <DistanceMeters>NAN</DistanceMeters>
          </Trackpoint>
          <Trackpoint>
            <Time>2021-08-11T17:26:56.000Z</Time>
            <Position>
              <LatitudeDegrees>43.3173300884664058685302734375</LatitudeDegrees>
              <LongitudeDegrees>-1.95228413678705692291259765625</LongitudeDegrees>
            </Position>
            <AltitudeMeters>73.1999969482421875</AltitudeMeters>
            <DistanceMeters>NAN</DistanceMeters>
          </Trackpoint>
          <Trackpoint>
            <Time>2021-08-11T17:26:57.000Z</Time>
            <Position>
              <LatitudeDegrees>43.3173331059515476226806640625</LatitudeDegrees>
              <LongitudeDegrees>-1.95230685174465179443359375</LongitudeDegrees>
            </Position>
            <AltitudeMeters>73.1999969482421875</AltitudeMeters>
            <DistanceMeters>NAN</DistanceMeters>
          </Trackpoint>
          <Trackpoint>
            <Time>2021-08-11T17:26:58.000Z</Time>
            <Position>
              <LatitudeDegrees>43.317334949970245361328125</LatitudeDegrees>
              <LongitudeDegrees>-1.95232428610324859619140625</LongitudeDegrees>
            </Position>
            <AltitudeMeters>73.1999969482421875</AltitudeMeters>
            <DistanceMeters>NAN</DistanceMeters>
          </Trackpoint>
          <Trackpoint>
            <Time>2021-08-11T17:26:59.000Z</Time>
            <Position>
              <LatitudeDegrees>43.31733419559895992279052734375</LatitudeDegrees>
              <LongitudeDegrees>-1.9523422233760356903076171875</LongitudeDegrees>
            </Position>
            <AltitudeMeters>73.1999969482421875</AltitudeMeters>
            <DistanceMeters>NAN</DistanceMeters>
          </Trackpoint>
          <Trackpoint>
            <Time>2021-08-11T17:27:00.000Z</Time>
            <Position>
              <LatitudeDegrees>43.31733419559895992279052734375</LatitudeDegrees>
              <LongitudeDegrees>-1.9523490965366363525390625</LongitudeDegrees>
            </Position>
            <AltitudeMeters>73.1999969482421875</AltitudeMeters>
            <DistanceMeters>NAN</DistanceMeters>
          </Trackpoint>
          <Trackpoint>
            <Time>2021-08-11T17:27:01.000Z</Time>
            <Position>
              <LatitudeDegrees>43.3173334412276744842529296875</LatitudeDegrees>
              <LongitudeDegrees>-1.95235781371593475341796875</LongitudeDegrees>
            </Position>
            <AltitudeMeters>73.1999969482421875</AltitudeMeters>
            <DistanceMeters>NAN</DistanceMeters>
          </Trackpoint>
          <Trackpoint>
            <Time>2021-08-11T17:27:02.000Z</Time>
            <Position>
              <LatitudeDegrees>43.3173314295709133148193359375</LatitudeDegrees>
              <LongitudeDegrees>-1.95236896164715290069580078125</LongitudeDegrees>
            </Position>
            <AltitudeMeters>73.1999969482421875</AltitudeMeters>
            <DistanceMeters>NAN</DistanceMeters>
          </Trackpoint>
          <Trackpoint>
            <Time>2021-08-11T17:27:06.000Z</Time>
            <Position>
              <LatitudeDegrees>43.31732899881899356842041015625</LatitudeDegrees>
              <LongitudeDegrees>-1.952468790113925933837890625</LongitudeDegrees>
            </Position>
            <AltitudeMeters>73.1999969482421875</AltitudeMeters>
            <DistanceMeters>NAN</DistanceMeters>
          </Trackpoint>
          <Trackpoint>
            <Time>2021-08-11T17:27:09.000Z</Time>
            <Position>
              <LatitudeDegrees>43.3173173479735851287841796875</LatitudeDegrees>
              <LongitudeDegrees>-1.952649168670177459716796875</LongitudeDegrees>
            </Position>
            <AltitudeMeters>73.1999969482421875</AltitudeMeters>
            <DistanceMeters>NAN</DistanceMeters>
          </Trackpoint>
          <Trackpoint>
            <Time>2021-08-11T17:27:10.000Z</Time>
            <Position>
              <LatitudeDegrees>43.3173173479735851287841796875</LatitudeDegrees>
              <LongitudeDegrees>-1.952649168670177459716796875</LongitudeDegrees>
            </Position>
            <AltitudeMeters>73</AltitudeMeters>
            <DistanceMeters>NAN</DistanceMeters>
          </Trackpoint>
          <Trackpoint>
            <Time>2021-08-11T17:27:11.000Z</Time>
            <Position>
              <LatitudeDegrees>43.31731039099395275115966796875</LatitudeDegrees>
              <LongitudeDegrees>-1.9527167268097400665283203125</LongitudeDegrees>
            </Position>
            <AltitudeMeters>73</AltitudeMeters>
            <DistanceMeters>NAN</DistanceMeters>
          </Trackpoint>
          <Trackpoint>
            <Time>2021-08-11T17:27:12.000Z</Time>
            <Position>
              <LatitudeDegrees>43.31730988807976245880126953125</LatitudeDegrees>
              <LongitudeDegrees>-1.95275033824145793914794921875</LongitudeDegrees>
            </Position>
            <AltitudeMeters>72.8000030517578125</AltitudeMeters>
            <DistanceMeters>NAN</DistanceMeters>
          </Trackpoint>
          <Trackpoint>
            <Time>2021-08-11T17:27:13.000Z</Time>
            <Position>
              <LatitudeDegrees>43.31731148064136505126953125</LatitudeDegrees>
              <LongitudeDegrees>-1.9527876377105712890625</LongitudeDegrees>
            </Position>
            <AltitudeMeters>72.8000030517578125</AltitudeMeters>
            <DistanceMeters>NAN</DistanceMeters>
          </Trackpoint>
          <Trackpoint>
            <Time>2021-08-11T17:27:23.000Z</Time>
            <Position>
              <LatitudeDegrees>43.317270912230014801025390625</LatitudeDegrees>
              <LongitudeDegrees>-1.9532343931496143341064453125</LongitudeDegrees>
            </Position>
            <AltitudeMeters>72</AltitudeMeters>
            <DistanceMeters>NAN</DistanceMeters>
          </Trackpoint>
          <Trackpoint>
            <Time>2021-08-11T17:27:24.000Z</Time>
            <Position>
              <LatitudeDegrees>43.31726722419261932373046875</LatitudeDegrees>
              <LongitudeDegrees>-1.95327068679034709930419921875</LongitudeDegrees>
            </Position>
            <AltitudeMeters>71.8000030517578125</AltitudeMeters>
            <DistanceMeters>NAN</DistanceMeters>
          </Trackpoint>
          <Trackpoint>
            <Time>2021-08-11T17:27:25.000Z</Time>
            <Position>
              <LatitudeDegrees>43.31726361997425556182861328125</LatitudeDegrees>
              <LongitudeDegrees>-1.953299604356288909912109375</LongitudeDegrees>
            </Position>
            <AltitudeMeters>71.8000030517578125</AltitudeMeters>
            <DistanceMeters>NAN</DistanceMeters>
          </Trackpoint>
          <Trackpoint>
            <Time>2021-08-11T17:27:26.000Z</Time>
            <Position>
              <LatitudeDegrees>43.31726412288844585418701171875</LatitudeDegrees>
              <LongitudeDegrees>-1.95331879891455173492431640625</LongitudeDegrees>
            </Position>
            <AltitudeMeters>71.59999847412109375</AltitudeMeters>
            <DistanceMeters>NAN</DistanceMeters>
          </Trackpoint>
          <Trackpoint>
            <Time>2021-08-11T17:27:27.000Z</Time>
            <Position>
              <LatitudeDegrees>43.3172613568603992462158203125</LatitudeDegrees>
              <LongitudeDegrees>-1.95333841256797313690185546875</LongitudeDegrees>
            </Position>
            <AltitudeMeters>71.59999847412109375</AltitudeMeters>
            <DistanceMeters>NAN</DistanceMeters>
          </Trackpoint>
          <Trackpoint>
            <Time>2021-08-11T17:27:28.000Z</Time>
            <Position>
              <LatitudeDegrees>43.3172536455094814300537109375</LatitudeDegrees>
              <LongitudeDegrees>-1.95336095988750457763671875</LongitudeDegrees>
            </Position>
            <AltitudeMeters>71.40000152587890625</AltitudeMeters>
            <DistanceMeters>NAN</DistanceMeters>
          </Trackpoint>
          <Trackpoint>
            <Time>2021-08-11T17:27:29.000Z</Time>
            <Position>
              <LatitudeDegrees>43.3172398991882801055908203125</LatitudeDegrees>
              <LongitudeDegrees>-1.95338099263608455657958984375</LongitudeDegrees>
            </Position>
            <AltitudeMeters>71.1999969482421875</AltitudeMeters>
            <DistanceMeters>NAN</DistanceMeters>
          </Trackpoint>
          <Trackpoint>
            <Time>2021-08-11T17:27:30.000Z</Time>
            <Position>
              <LatitudeDegrees>43.3172184415161609649658203125</LatitudeDegrees>
              <LongitudeDegrees>-1.953400187194347381591796875</LongitudeDegrees>
            </Position>
            <AltitudeMeters>71.1999969482421875</AltitudeMeters>
            <DistanceMeters>NAN</DistanceMeters>
          </Trackpoint>
          <Trackpoint>
            <Time>2021-08-11T17:27:31.000Z</Time>
            <Position>
              <LatitudeDegrees>43.31719304434955120086669921875</LatitudeDegrees>
              <LongitudeDegrees>-1.9534261710941791534423828125</LongitudeDegrees>
            </Position>
            <AltitudeMeters>71</AltitudeMeters>
            <DistanceMeters>NAN</DistanceMeters>
          </Trackpoint>
          <Trackpoint>
            <Time>2021-08-11T17:27:32.000Z</Time>
            <Position>
              <LatitudeDegrees>43.3171725086867809295654296875</LatitudeDegrees>
              <LongitudeDegrees>-1.95345751941204071044921875</LongitudeDegrees>
            </Position>
            <AltitudeMeters>71</AltitudeMeters>
            <DistanceMeters>NAN</DistanceMeters>
          </Trackpoint>
          <Trackpoint>
            <Time>2021-08-11T17:27:33.000Z</Time>
            <Position>
              <LatitudeDegrees>43.3171533979475498199462890625</LatitudeDegrees>
              <LongitudeDegrees>-1.9534868560731410980224609375</LongitudeDegrees>
            </Position>
            <AltitudeMeters>70.8000030517578125</AltitudeMeters>
            <DistanceMeters>NAN</DistanceMeters>
          </Trackpoint>
          <Trackpoint>
            <Time>2021-08-11T17:27:35.000Z</Time>
            <Position>
              <LatitudeDegrees>43.31710268743336200714111328125</LatitudeDegrees>
              <LongitudeDegrees>-1.953529603779315948486328125</LongitudeDegrees>
            </Position>
            <AltitudeMeters>70.8000030517578125</AltitudeMeters>
            <DistanceMeters>NAN</DistanceMeters>
          </Trackpoint>
          <Trackpoint>
            <Time>2021-08-11T17:27:36.000Z</Time>
            <Position>
              <LatitudeDegrees>43.3170658908784389495849609375</LatitudeDegrees>
              <LongitudeDegrees>-1.9535453617572784423828125</LongitudeDegrees>
            </Position>
            <AltitudeMeters>70.59999847412109375</AltitudeMeters>
            <DistanceMeters>NAN</DistanceMeters>
          </Trackpoint>
          <Trackpoint>
            <Time>2021-08-11T17:27:37.000Z</Time>
            <Position>
              <LatitudeDegrees>43.31702808849513530731201171875</LatitudeDegrees>
              <LongitudeDegrees>-1.953556425869464874267578125</LongitudeDegrees>
            </Position>
            <AltitudeMeters>70.59999847412109375</AltitudeMeters>
            <DistanceMeters>NAN</DistanceMeters>
          </Trackpoint>
          <Trackpoint>
            <Time>2021-08-11T17:27:38.000Z</Time>
            <Position>
              <LatitudeDegrees>43.31699389033019542694091796875</LatitudeDegrees>
              <LongitudeDegrees>-1.95356857962906360626220703125</LongitudeDegrees>
            </Position>
            <AltitudeMeters>70.59999847412109375</AltitudeMeters>
            <DistanceMeters>NAN</DistanceMeters>
          </Trackpoint>
          <Trackpoint>
            <Time>2021-08-11T17:27:39.000Z</Time>
            <Position>
              <LatitudeDegrees>43.316971845924854278564453125</LatitudeDegrees>
              <LongitudeDegrees>-1.95359137840569019317626953125</LongitudeDegrees>
            </Position>
            <AltitudeMeters>70.59999847412109375</AltitudeMeters>
            <DistanceMeters>NAN</DistanceMeters>
          </Trackpoint>
          <Trackpoint>
            <Time>2021-08-11T17:27:40.000Z</Time>
            <Position>
              <LatitudeDegrees>43.3169575966894626617431640625</LatitudeDegrees>
              <LongitudeDegrees>-1.95361702702939510345458984375</LongitudeDegrees>
            </Position>
            <AltitudeMeters>70.59999847412109375</AltitudeMeters>
            <DistanceMeters>NAN</DistanceMeters>
          </Trackpoint>
          <Trackpoint>
            <Time>2021-08-11T17:27:41.000Z</Time>
            <Position>
              <LatitudeDegrees>43.31695072352886199951171875</LatitudeDegrees>
              <LongitudeDegrees>-1.953642256557941436767578125</LongitudeDegrees>
            </Position>
            <AltitudeMeters>70.40000152587890625</AltitudeMeters>
            <DistanceMeters>NAN</DistanceMeters>
          </Trackpoint>
          <Trackpoint>
            <Time>2021-08-11T17:27:42.000Z</Time>
            <Position>
              <LatitudeDegrees>43.31694963388144969940185546875</LatitudeDegrees>
              <LongitudeDegrees>-1.9536714255809783935546875</LongitudeDegrees>
            </Position>
            <AltitudeMeters>70.40000152587890625</AltitudeMeters>
            <DistanceMeters>NAN</DistanceMeters>
          </Trackpoint>
          <Trackpoint>
            <Time>2021-08-11T17:27:43.000Z</Time>
            <Position>
              <LatitudeDegrees>43.316950388252735137939453125</LatitudeDegrees>
              <LongitudeDegrees>-1.9537031091749668121337890625</LongitudeDegrees>
            </Position>
            <AltitudeMeters>70.40000152587890625</AltitudeMeters>
            <DistanceMeters>NAN</DistanceMeters>
          </Trackpoint>
          <Trackpoint>
            <Time>2021-08-11T17:27:44.000Z</Time>
            <Position>
              <LatitudeDegrees>43.31695206463336944580078125</LatitudeDegrees>
              <LongitudeDegrees>-1.95373722352087497711181640625</LongitudeDegrees>
            </Position>
            <AltitudeMeters>70.40000152587890625</AltitudeMeters>
            <DistanceMeters>NAN</DistanceMeters>
          </Trackpoint>
          <Trackpoint>
            <Time>2021-08-11T17:27:45.000Z</Time>
            <Position>
              <LatitudeDegrees>43.316953741014003753662109375</LatitudeDegrees>
              <LongitudeDegrees>-1.953773014247417449951171875</LongitudeDegrees>
            </Position>
            <AltitudeMeters>70.1999969482421875</AltitudeMeters>
            <DistanceMeters>NAN</DistanceMeters>
          </Trackpoint>
          <Trackpoint>
            <Time>2021-08-11T17:27:47.000Z</Time>
            <Position>
              <LatitudeDegrees>43.316951729357242584228515625</LatitudeDegrees>
              <LongitudeDegrees>-1.95384317077696323394775390625</LongitudeDegrees>
            </Position>
            <AltitudeMeters>70.1999969482421875</AltitudeMeters>
            <DistanceMeters>NAN</DistanceMeters>
          </Trackpoint>
          <Trackpoint>
            <Time>2021-08-11T17:27:48.000Z</Time>
            <Position>
              <LatitudeDegrees>43.3169317804276943206787109375</LatitudeDegrees>
              <LongitudeDegrees>-1.95385842584073543548583984375</LongitudeDegrees>
            </Position>
            <AltitudeMeters>70.1999969482421875</AltitudeMeters>
            <DistanceMeters>NAN</DistanceMeters>
          </Trackpoint>
          <Trackpoint>
            <Time>2021-08-11T17:27:50.000Z</Time>
            <Position>
              <LatitudeDegrees>43.316877968609333038330078125</LatitudeDegrees>
              <LongitudeDegrees>-1.953862197697162628173828125</LongitudeDegrees>
            </Position>
            <AltitudeMeters>70.1999969482421875</AltitudeMeters>
            <DistanceMeters>NAN</DistanceMeters>
          </Trackpoint>
          <Trackpoint>
            <Time>2021-08-11T17:27:56.000Z</Time>
            <Position>
              <LatitudeDegrees>43.31672097556293010711669921875</LatitudeDegrees>
              <LongitudeDegrees>-1.95390720851719379425048828125</LongitudeDegrees>
            </Position>
            <AltitudeMeters>70.1999969482421875</AltitudeMeters>
            <DistanceMeters>NAN</DistanceMeters>
          </Trackpoint>
          <Trackpoint>
            <Time>2021-08-11T17:27:58.000Z</Time>
            <Position>
              <LatitudeDegrees>43.3166759647428989410400390625</LatitudeDegrees>
              <LongitudeDegrees>-1.95393168367445468902587890625</LongitudeDegrees>
            </Position>
            <AltitudeMeters>70.1999969482421875</AltitudeMeters>
            <DistanceMeters>NAN</DistanceMeters>
          </Trackpoint>
          <Trackpoint>
            <Time>2021-08-11T17:28:06.000Z</Time>
            <Position>
              <LatitudeDegrees>43.31651243381202220916748046875</LatitudeDegrees>
              <LongitudeDegrees>-1.95407786406576633453369140625</LongitudeDegrees>
            </Position>
            <AltitudeMeters>70.40000152587890625</AltitudeMeters>
            <DistanceMeters>NAN</DistanceMeters>
          </Trackpoint>
          <Trackpoint>
            <Time>2021-08-11T17:28:13.000Z</Time>
            <Position>
              <LatitudeDegrees>43.31629760563373565673828125</LatitudeDegrees>
              <LongitudeDegrees>-1.95429227314889430999755859375</LongitudeDegrees>
            </Position>
            <AltitudeMeters>70.59999847412109375</AltitudeMeters>
            <DistanceMeters>NAN</DistanceMeters>
          </Trackpoint>
          <Trackpoint>
            <Time>2021-08-11T17:28:18.000Z</Time>
            <Position>
              <LatitudeDegrees>43.3161663450300693511962890625</LatitudeDegrees>
              <LongitudeDegrees>-1.954395957291126251220703125</LongitudeDegrees>
            </Position>
            <AltitudeMeters>70.40000152587890625</AltitudeMeters>
            <DistanceMeters>NAN</DistanceMeters>
          </Trackpoint>
          <Trackpoint>
            <Time>2021-08-11T17:28:19.000Z</Time>
            <Position>
              <LatitudeDegrees>43.31614228896796703338623046875</LatitudeDegrees>
              <LongitudeDegrees>-1.9544125534594058990478515625</LongitudeDegrees>
            </Position>
            <AltitudeMeters>70.40000152587890625</AltitudeMeters>
            <DistanceMeters>NAN</DistanceMeters>
          </Trackpoint>
          <Trackpoint>
            <Time>2021-08-11T17:28:20.000Z</Time>
            <Position>
              <LatitudeDegrees>43.31612183712422847747802734375</LatitudeDegrees>
              <LongitudeDegrees>-1.95443158037960529327392578125</LongitudeDegrees>
            </Position>
            <AltitudeMeters>70.40000152587890625</AltitudeMeters>
            <DistanceMeters>NAN</DistanceMeters>
          </Trackpoint>
          <Trackpoint>
            <Time>2021-08-11T17:28:21.000Z</Time>
            <Position>
              <LatitudeDegrees>43.31610423512756824493408203125</LatitudeDegrees>
              <LongitudeDegrees>-1.9544527865946292877197265625</LongitudeDegrees>
            </Position>
            <AltitudeMeters>70.40000152587890625</AltitudeMeters>
            <DistanceMeters>NAN</DistanceMeters>
          </Trackpoint>
          <Trackpoint>
            <Time>2021-08-11T17:28:25.000Z</Time>
            <Position>
              <LatitudeDegrees>43.3159963600337505340576171875</LatitudeDegrees>
              <LongitudeDegrees>-1.95453300140798091888427734375</LongitudeDegrees>
            </Position>
            <AltitudeMeters>70.59999847412109375</AltitudeMeters>
            <DistanceMeters>NAN</DistanceMeters>
          </Trackpoint>
          <Trackpoint>
            <Time>2021-08-11T17:28:31.000Z</Time>
            <Position>
              <LatitudeDegrees>43.31582956016063690185546875</LatitudeDegrees>
              <LongitudeDegrees>-1.95466157980263233184814453125</LongitudeDegrees>
            </Position>
            <AltitudeMeters>70.8000030517578125</AltitudeMeters>
            <DistanceMeters>NAN</DistanceMeters>
          </Trackpoint>
          <Trackpoint>
            <Time>2021-08-11T17:28:34.000Z</Time>
            <Position>
              <LatitudeDegrees>43.315764851868152618408203125</LatitudeDegrees>
              <LongitudeDegrees>-1.9547402858734130859375</LongitudeDegrees>
            </Position>
            <AltitudeMeters>71</AltitudeMeters>
            <DistanceMeters>NAN</DistanceMeters>
          </Trackpoint>
          <Trackpoint>
            <Time>2021-08-11T17:28:35.000Z</Time>
            <Position>
              <LatitudeDegrees>43.315743394196033477783203125</LatitudeDegrees>
              <LongitudeDegrees>-1.95476199500262737274169921875</LongitudeDegrees>
            </Position>
            <AltitudeMeters>71</AltitudeMeters>
            <DistanceMeters>NAN</DistanceMeters>
          </Trackpoint>
          <Trackpoint>
            <Time>2021-08-11T17:28:36.000Z</Time>
            <Position>
              <LatitudeDegrees>43.31571615301072597503662109375</LatitudeDegrees>
              <LongitudeDegrees>-1.95478915236890316009521484375</LongitudeDegrees>
            </Position>
            <AltitudeMeters>71</AltitudeMeters>
            <DistanceMeters>NAN</DistanceMeters>
          </Trackpoint>
          <Trackpoint>
            <Time>2021-08-11T17:28:37.000Z</Time>
            <Position>
              <LatitudeDegrees>43.31569410860538482666015625</LatitudeDegrees>
              <LongitudeDegrees>-1.95480910129845142364501953125</LongitudeDegrees>
            </Position>
            <AltitudeMeters>71</AltitudeMeters>
            <DistanceMeters>NAN</DistanceMeters>
          </Trackpoint>
          <Trackpoint>
            <Time>2021-08-11T17:28:38.000Z</Time>
            <Position>
              <LatitudeDegrees>43.31567860208451747894287109375</LatitudeDegrees>
              <LongitudeDegrees>-1.954826451838016510009765625</LongitudeDegrees>
            </Position>
            <AltitudeMeters>71</AltitudeMeters>
            <DistanceMeters>NAN</DistanceMeters>
          </Trackpoint>
          <Trackpoint>
            <Time>2021-08-11T17:28:39.000Z</Time>
            <Position>
              <LatitudeDegrees>43.31566032953560352325439453125</LatitudeDegrees>
              <LongitudeDegrees>-1.9548437185585498809814453125</LongitudeDegrees>
            </Position>
            <AltitudeMeters>71</AltitudeMeters>
            <DistanceMeters>NAN</DistanceMeters>
          </Trackpoint>
          <Trackpoint>
            <Time>2021-08-11T17:28:40.000Z</Time>
            <Position>
              <LatitudeDegrees>43.31563820131123065948486328125</LatitudeDegrees>
              <LongitudeDegrees>-1.95486023090779781341552734375</LongitudeDegrees>
            </Position>
            <AltitudeMeters>71</AltitudeMeters>
            <DistanceMeters>NAN</DistanceMeters>
          </Trackpoint>
          <Trackpoint>
            <Time>2021-08-11T17:28:41.000Z</Time>
            <Position>
              <LatitudeDegrees>43.31561489962041378021240234375</LatitudeDegrees>
              <LongitudeDegrees>-1.95488001219928264617919921875</LongitudeDegrees>
            </Position>
            <AltitudeMeters>71</AltitudeMeters>
            <DistanceMeters>NAN</DistanceMeters>
          </Trackpoint>
          <Trackpoint>
            <Time>2021-08-11T17:28:42.000Z</Time>
            <Position>
              <LatitudeDegrees>43.315589167177677154541015625</LatitudeDegrees>
              <LongitudeDegrees>-1.9549025595188140869140625</LongitudeDegrees>
            </Position>
            <AltitudeMeters>71</AltitudeMeters>
            <DistanceMeters>NAN</DistanceMeters>
          </Trackpoint>
          <Trackpoint>
            <Time>2021-08-11T17:28:44.000Z</Time>
            <Position>
              <LatitudeDegrees>43.31553854048252105712890625</LatitudeDegrees>
              <LongitudeDegrees>-1.954949162900447845458984375</LongitudeDegrees>
            </Position>
            <AltitudeMeters>71</AltitudeMeters>
            <DistanceMeters>NAN</DistanceMeters>
          </Trackpoint>
          <Trackpoint>
            <Time>2021-08-11T17:28:46.000Z</Time>
            <Position>
              <LatitudeDegrees>43.315486572682857513427734375</LatitudeDegrees>
              <LongitudeDegrees>-1.95497891865670680999755859375</LongitudeDegrees>
            </Position>
            <AltitudeMeters>71</AltitudeMeters>
            <DistanceMeters>NAN</DistanceMeters>
          </Trackpoint>
          <Trackpoint>
            <Time>2021-08-11T17:28:48.000Z</Time>
            <Position>
              <LatitudeDegrees>43.31544742919504642486572265625</LatitudeDegrees>
              <LongitudeDegrees>-1.95502200163900852203369140625</LongitudeDegrees>
            </Position>
            <AltitudeMeters>71.1999969482421875</AltitudeMeters>
            <DistanceMeters>NAN</DistanceMeters>
          </Trackpoint>
          <Trackpoint>
            <Time>2021-08-11T17:28:49.000Z</Time>
            <Position>
              <LatitudeDegrees>43.31542597152292728424072265625</LatitudeDegrees>
              <LongitudeDegrees>-1.95503742434084415435791015625</LongitudeDegrees>
            </Position>
            <AltitudeMeters>71.1999969482421875</AltitudeMeters>
            <DistanceMeters>NAN</DistanceMeters>
          </Trackpoint>
          <Trackpoint>
            <Time>2021-08-11T17:28:51.000Z</Time>
            <Position>
              <LatitudeDegrees>43.31537987105548381805419921875</LatitudeDegrees>
              <LongitudeDegrees>-1.95507614873349666595458984375</LongitudeDegrees>
            </Position>
            <AltitudeMeters>71.1999969482421875</AltitudeMeters>
            <DistanceMeters>NAN</DistanceMeters>
          </Trackpoint>
          <Trackpoint>
            <Time>2021-08-11T17:28:52.000Z</Time>
            <Position>
              <LatitudeDegrees>43.3153616823256015777587890625</LatitudeDegrees>
              <LongitudeDegrees>-1.95509660057723522186279296875</LongitudeDegrees>
            </Position>
            <AltitudeMeters>71.1999969482421875</AltitudeMeters>
            <DistanceMeters>NAN</DistanceMeters>
          </Trackpoint>
          <Trackpoint>
            <Time>2021-08-11T17:28:53.000Z</Time>
            <Position>
              <LatitudeDegrees>43.31534265540540218353271484375</LatitudeDegrees>
              <LongitudeDegrees>-1.95511722005903720855712890625</LongitudeDegrees>
            </Position>
            <AltitudeMeters>71.1999969482421875</AltitudeMeters>
            <DistanceMeters>NAN</DistanceMeters>
          </Trackpoint>
          <Trackpoint>
            <Time>2021-08-11T17:28:54.000Z</Time>
            <Position>
              <LatitudeDegrees>43.3153214491903781890869140625</LatitudeDegrees>
              <LongitudeDegrees>-1.9551360793411731719970703125</LongitudeDegrees>
            </Position>
            <AltitudeMeters>71.1999969482421875</AltitudeMeters>
            <DistanceMeters>NAN</DistanceMeters>
          </Trackpoint>
          <Trackpoint>
            <Time>2021-08-11T17:28:55.000Z</Time>
            <Position>
              <LatitudeDegrees>43.31530191935598850250244140625</LatitudeDegrees>
              <LongitudeDegrees>-1.95516181178390979766845703125</LongitudeDegrees>
            </Position>
            <AltitudeMeters>71.1999969482421875</AltitudeMeters>
            <DistanceMeters>NAN</DistanceMeters>
          </Trackpoint>
          <Trackpoint>
            <Time>2021-08-11T17:28:56.000Z</Time>
            <Position>
              <LatitudeDegrees>43.315286077558994293212890625</LatitudeDegrees>
              <LongitudeDegrees>-1.955182515084743499755859375</LongitudeDegrees>
            </Position>
            <AltitudeMeters>71.1999969482421875</AltitudeMeters>
            <DistanceMeters>NAN</DistanceMeters>
          </Trackpoint>
          <Trackpoint>
            <Time>2021-08-11T17:28:57.000Z</Time>
            <Position>
              <LatitudeDegrees>43.3152656257152557373046875</LatitudeDegrees>
              <LongitudeDegrees>-1.9552017934620380401611328125</LongitudeDegrees>
            </Position>
            <AltitudeMeters>71.1999969482421875</AltitudeMeters>
            <DistanceMeters>NAN</DistanceMeters>
          </Trackpoint>
          <Trackpoint>
            <Time>2021-08-11T17:28:58.000Z</Time>
            <Position>
              <LatitudeDegrees>43.3152656257152557373046875</LatitudeDegrees>
              <LongitudeDegrees>-1.9552017934620380401611328125</LongitudeDegrees>
            </Position>
            <AltitudeMeters>71.1999969482421875</AltitudeMeters>
            <DistanceMeters>NAN</DistanceMeters>
          </Trackpoint>
          <Trackpoint>
            <Time>2021-08-11T17:29:00.000Z</Time>
            <Position>
              <LatitudeDegrees>43.315205611288547515869140625</LatitudeDegrees>
              <LongitudeDegrees>-1.95524814538657665252685546875</LongitudeDegrees>
            </Position>
            <AltitudeMeters>71.40000152587890625</AltitudeMeters>
            <DistanceMeters>NAN</DistanceMeters>
          </Trackpoint>
          <Trackpoint>
            <Time>2021-08-11T17:29:01.000Z</Time>
            <Position>
              <LatitudeDegrees>43.31518189050257205963134765625</LatitudeDegrees>
              <LongitudeDegrees>-1.955263316631317138671875</LongitudeDegrees>
            </Position>
            <AltitudeMeters>71.40000152587890625</AltitudeMeters>
            <DistanceMeters>NAN</DistanceMeters>
          </Trackpoint>
          <Trackpoint>
            <Time>2021-08-11T17:29:02.000Z</Time>
            <Position>
              <LatitudeDegrees>43.31515188328921794891357421875</LatitudeDegrees>
              <LongitudeDegrees>-1.95528008043766021728515625</LongitudeDegrees>
            </Position>
            <AltitudeMeters>71.40000152587890625</AltitudeMeters>
            <DistanceMeters>NAN</DistanceMeters>
          </Trackpoint>
          <Trackpoint>
            <Time>2021-08-11T17:29:03.000Z</Time>
            <Position>
              <LatitudeDegrees>43.31515188328921794891357421875</LatitudeDegrees>
              <LongitudeDegrees>-1.95528008043766021728515625</LongitudeDegrees>
            </Position>
            <AltitudeMeters>71.40000152587890625</AltitudeMeters>
            <DistanceMeters>NAN</DistanceMeters>
          </Trackpoint>
          <Trackpoint>
            <Time>2021-08-11T17:29:04.000Z</Time>
            <Position>
              <LatitudeDegrees>43.31510938704013824462890625</LatitudeDegrees>
              <LongitudeDegrees>-1.9553084112703800201416015625</LongitudeDegrees>
            </Position>
            <AltitudeMeters>71.40000152587890625</AltitudeMeters>
            <DistanceMeters>NAN</DistanceMeters>
          </Trackpoint>
          <Trackpoint>
            <Time>2021-08-11T17:29:05.000Z</Time>
            <Position>
              <LatitudeDegrees>43.31507275812327861785888671875</LatitudeDegrees>
              <LongitudeDegrees>-1.955319978296756744384765625</LongitudeDegrees>
            </Position>
            <AltitudeMeters>71.59999847412109375</AltitudeMeters>
            <DistanceMeters>NAN</DistanceMeters>
          </Trackpoint>
          <Trackpoint>
            <Time>2021-08-11T17:29:06.000Z</Time>
            <Position>
              <LatitudeDegrees>43.31505046226084232330322265625</LatitudeDegrees>
              <LongitudeDegrees>-1.95532643236219882965087890625</LongitudeDegrees>
            </Position>
            <AltitudeMeters>71.59999847412109375</AltitudeMeters>
            <DistanceMeters>NAN</DistanceMeters>
          </Trackpoint>
          <Trackpoint>
            <Time>2021-08-11T17:29:07.000Z</Time>
            <Position>
              <LatitudeDegrees>43.31504057161509990692138671875</LatitudeDegrees>
              <LongitudeDegrees>-1.9553459621965885162353515625</LongitudeDegrees>
            </Position>
            <AltitudeMeters>71.59999847412109375</AltitudeMeters>
            <DistanceMeters>NAN</DistanceMeters>
          </Trackpoint>
          <Trackpoint>
            <Time>2021-08-11T17:29:08.000Z</Time>
            <Position>
              <LatitudeDegrees>43.3150337822735309600830078125</LatitudeDegrees>
              <LongitudeDegrees>-1.95536800660192966461181640625</LongitudeDegrees>
            </Position>
            <AltitudeMeters>71.59999847412109375</AltitudeMeters>
            <DistanceMeters>NAN</DistanceMeters>
          </Trackpoint>
          <Trackpoint>
            <Time>2021-08-11T17:29:09.000Z</Time>
            <Position>
              <LatitudeDegrees>43.3150337822735309600830078125</LatitudeDegrees>
              <LongitudeDegrees>-1.95536800660192966461181640625</LongitudeDegrees>
            </Position>
            <AltitudeMeters>71.59999847412109375</AltitudeMeters>
            <DistanceMeters>NAN</DistanceMeters>
          </Trackpoint>
          <Trackpoint>
            <Time>2021-08-11T17:29:10.000Z</Time>
            <Position>
              <LatitudeDegrees>43.3150108158588409423828125</LatitudeDegrees>
              <LongitudeDegrees>-1.95536993443965911865234375</LongitudeDegrees>
            </Position>
            <AltitudeMeters>71.59999847412109375</AltitudeMeters>
            <DistanceMeters>NAN</DistanceMeters>
          </Trackpoint>
          <Trackpoint>
            <Time>2021-08-11T17:29:12.000Z</Time>
            <Position>
              <LatitudeDegrees>43.31498122774064540863037109375</LatitudeDegrees>
              <LongitudeDegrees>-1.9553268514573574066162109375</LongitudeDegrees>
            </Position>
            <AltitudeMeters>71.59999847412109375</AltitudeMeters>
            <DistanceMeters>NAN</DistanceMeters>
          </Trackpoint>
          <Trackpoint>
            <Time>2021-08-11T17:29:13.000Z</Time>
            <Position>
              <LatitudeDegrees>43.31496429629623889923095703125</LatitudeDegrees>
              <LongitudeDegrees>-1.9553124345839023590087890625</LongitudeDegrees>
            </Position>
            <AltitudeMeters>71.59999847412109375</AltitudeMeters>
            <DistanceMeters>NAN</DistanceMeters>
          </Trackpoint>
          <Trackpoint>
            <Time>2021-08-11T17:29:14.000Z</Time>
            <Position>
              <LatitudeDegrees>43.314940743148326873779296875</LatitudeDegrees>
              <LongitudeDegrees>-1.955311596393585205078125</LongitudeDegrees>
            </Position>
            <AltitudeMeters>71.59999847412109375</AltitudeMeters>
            <DistanceMeters>NAN</DistanceMeters>
          </Trackpoint>
          <Trackpoint>
            <Time>2021-08-11T17:29:15.000Z</Time>
            <Position>
              <LatitudeDegrees>43.3149150945246219635009765625</LatitudeDegrees>
              <LongitudeDegrees>-1.95532022975385189056396484375</LongitudeDegrees>
            </Position>
            <AltitudeMeters>71.59999847412109375</AltitudeMeters>
            <DistanceMeters>NAN</DistanceMeters>
          </Trackpoint>
          <Trackpoint>
            <Time>2021-08-11T17:29:17.000Z</Time>
            <Position>
              <LatitudeDegrees>43.314864970743656158447265625</LatitudeDegrees>
              <LongitudeDegrees>-1.95536063052713871002197265625</LongitudeDegrees>
            </Position>
            <AltitudeMeters>71.59999847412109375</AltitudeMeters>
            <DistanceMeters>NAN</DistanceMeters>
          </Trackpoint>
          <Trackpoint>
            <Time>2021-08-11T17:29:18.000Z</Time>
            <Position>
              <LatitudeDegrees>43.31484175287187099456787109375</LatitudeDegrees>
              <LongitudeDegrees>-1.955384351313114166259765625</LongitudeDegrees>
            </Position>
            <AltitudeMeters>71.59999847412109375</AltitudeMeters>
            <DistanceMeters>NAN</DistanceMeters>
          </Trackpoint>
          <Trackpoint>
            <Time>2021-08-11T17:29:19.000Z</Time>
            <Position>
              <LatitudeDegrees>43.3148192055523395538330078125</LatitudeDegrees>
              <LongitudeDegrees>-1.95540748536586761474609375</LongitudeDegrees>
            </Position>
            <AltitudeMeters>71.59999847412109375</AltitudeMeters>
            <DistanceMeters>NAN</DistanceMeters>
          </Trackpoint>
          <Trackpoint>
            <Time>2021-08-11T17:29:20.000Z</Time>
            <Position>
              <LatitudeDegrees>43.31479263491928577423095703125</LatitudeDegrees>
              <LongitudeDegrees>-1.95543296635150909423828125</LongitudeDegrees>
            </Position>
            <AltitudeMeters>71.8000030517578125</AltitudeMeters>
            <DistanceMeters>NAN</DistanceMeters>
          </Trackpoint>
          <Trackpoint>
            <Time>2021-08-11T17:29:22.000Z</Time>
            <Position>
              <LatitudeDegrees>43.3147387392818927764892578125</LatitudeDegrees>
              <LongitudeDegrees>-1.9554800726473331451416015625</LongitudeDegrees>
            </Position>
            <AltitudeMeters>71.8000030517578125</AltitudeMeters>
            <DistanceMeters>NAN</DistanceMeters>
          </Trackpoint>
          <Trackpoint>
            <Time>2021-08-11T17:29:29.000Z</Time>
            <Position>
              <LatitudeDegrees>43.3145680837333202362060546875</LatitudeDegrees>
              <LongitudeDegrees>-1.95562751032412052154541015625</LongitudeDegrees>
            </Position>
            <AltitudeMeters>72.40000152587890625</AltitudeMeters>
            <DistanceMeters>NAN</DistanceMeters>
          </Trackpoint>
          <Trackpoint>
            <Time>2021-08-11T17:29:30.000Z</Time>
            <Position>
              <LatitudeDegrees>43.3145680837333202362060546875</LatitudeDegrees>
              <LongitudeDegrees>-1.95562751032412052154541015625</LongitudeDegrees>
            </Position>
            <AltitudeMeters>72.59999847412109375</AltitudeMeters>
            <DistanceMeters>NAN</DistanceMeters>
          </Trackpoint>
          <Trackpoint>
            <Time>2021-08-11T17:29:31.000Z</Time>
            <Position>
              <LatitudeDegrees>43.31453111954033374786376953125</LatitudeDegrees>
              <LongitudeDegrees>-1.9556644745171070098876953125</LongitudeDegrees>
            </Position>
            <AltitudeMeters>72.59999847412109375</AltitudeMeters>
            <DistanceMeters>NAN</DistanceMeters>
          </Trackpoint>
          <Trackpoint>
            <Time>2021-08-11T17:29:32.000Z</Time>
            <Position>
              <LatitudeDegrees>43.3145144395530223846435546875</LatitudeDegrees>
              <LongitudeDegrees>-1.955683417618274688720703125</LongitudeDegrees>
            </Position>
            <AltitudeMeters>73</AltitudeMeters>
            <DistanceMeters>NAN</DistanceMeters>
          </Trackpoint>
          <Trackpoint>
            <Time>2021-08-11T17:29:33.000Z</Time>
            <Position>
              <LatitudeDegrees>43.3145144395530223846435546875</LatitudeDegrees>
              <LongitudeDegrees>-1.955683417618274688720703125</LongitudeDegrees>
            </Position>
            <AltitudeMeters>73.1999969482421875</AltitudeMeters>
            <DistanceMeters>NAN</DistanceMeters>
          </Trackpoint>
          <Trackpoint>
            <Time>2021-08-11T17:29:35.000Z</Time>
            <Position>
              <LatitudeDegrees>43.3144664950668811798095703125</LatitudeDegrees>
              <LongitudeDegrees>-1.955740414559841156005859375</LongitudeDegrees>
            </Position>
            <AltitudeMeters>73.59999847412109375</AltitudeMeters>
            <DistanceMeters>NAN</DistanceMeters>
          </Trackpoint>
          <Trackpoint>
            <Time>2021-08-11T17:29:36.000Z</Time>
            <Position>
              <LatitudeDegrees>43.31444763578474521636962890625</LatitudeDegrees>
              <LongitudeDegrees>-1.95575709454715251922607421875</LongitudeDegrees>
            </Position>
            <AltitudeMeters>73.59999847412109375</AltitudeMeters>
            <DistanceMeters>NAN</DistanceMeters>
          </Trackpoint>
          <Trackpoint>
            <Time>2021-08-11T17:29:37.000Z</Time>
            <Position>
              <LatitudeDegrees>43.31443271599709987640380859375</LatitudeDegrees>
              <LongitudeDegrees>-1.95577084086835384368896484375</LongitudeDegrees>
            </Position>
            <AltitudeMeters>73.8000030517578125</AltitudeMeters>
            <DistanceMeters>NAN</DistanceMeters>
          </Trackpoint>
          <Trackpoint>
            <Time>2021-08-11T17:29:38.000Z</Time>
            <Position>
              <LatitudeDegrees>43.31442408263683319091796875</LatitudeDegrees>
              <LongitudeDegrees>-1.955781318247318267822265625</LongitudeDegrees>
            </Position>
            <AltitudeMeters>73.8000030517578125</AltitudeMeters>
            <DistanceMeters>NAN</DistanceMeters>
          </Trackpoint>
          <Trackpoint>
            <Time>2021-08-11T17:29:39.000Z</Time>
            <Position>
              <LatitudeDegrees>43.31441846676170825958251953125</LatitudeDegrees>
              <LongitudeDegrees>-1.955792047083377838134765625</LongitudeDegrees>
            </Position>
            <AltitudeMeters>74</AltitudeMeters>
            <DistanceMeters>NAN</DistanceMeters>
          </Trackpoint>
          <Trackpoint>
            <Time>2021-08-11T17:29:40.000Z</Time>
            <Position>
              <LatitudeDegrees>43.31441846676170825958251953125</LatitudeDegrees>
              <LongitudeDegrees>-1.955792047083377838134765625</LongitudeDegrees>
            </Position>
            <AltitudeMeters>74</AltitudeMeters>
            <DistanceMeters>NAN</DistanceMeters>
          </Trackpoint>
          <Trackpoint>
            <Time>2021-08-11T17:29:41.000Z</Time>
            <Position>
              <LatitudeDegrees>43.314411006867885589599609375</LatitudeDegrees>
              <LongitudeDegrees>-1.95580420084297657012939453125</LongitudeDegrees>
            </Position>
            <AltitudeMeters>74.1999969482421875</AltitudeMeters>
            <DistanceMeters>NAN</DistanceMeters>
          </Trackpoint>
          <Trackpoint>
            <Time>2021-08-11T17:29:42.000Z</Time>
            <Position>
              <LatitudeDegrees>43.31439860165119171142578125</LatitudeDegrees>
              <LongitudeDegrees>-1.9558180309832096099853515625</LongitudeDegrees>
            </Position>
            <AltitudeMeters>74.40000152587890625</AltitudeMeters>
            <DistanceMeters>NAN</DistanceMeters>
          </Trackpoint>
          <Trackpoint>
            <Time>2021-08-11T17:29:43.000Z</Time>
            <Position>
              <LatitudeDegrees>43.314390890300273895263671875</LatitudeDegrees>
              <LongitudeDegrees>-1.95582297630608081817626953125</LongitudeDegrees>
            </Position>
            <AltitudeMeters>74.59999847412109375</AltitudeMeters>
            <DistanceMeters>NAN</DistanceMeters>
          </Trackpoint>
          <Trackpoint>
            <Time>2021-08-11T17:29:44.000Z</Time>
            <Position>
              <LatitudeDegrees>43.314390890300273895263671875</LatitudeDegrees>
              <LongitudeDegrees>-1.95582297630608081817626953125</LongitudeDegrees>
            </Position>
            <AltitudeMeters>74.59999847412109375</AltitudeMeters>
            <DistanceMeters>NAN</DistanceMeters>
          </Trackpoint>
          <Trackpoint>
            <Time>2021-08-11T17:29:45.000Z</Time>
            <Position>
              <LatitudeDegrees>43.31438359804451465606689453125</LatitudeDegrees>
              <LongitudeDegrees>-1.95582859218120574951171875</LongitudeDegrees>
            </Position>
            <AltitudeMeters>74.59999847412109375</AltitudeMeters>
            <DistanceMeters>NAN</DistanceMeters>
          </Trackpoint>
          <Trackpoint>
            <Time>2021-08-11T17:29:46.000Z</Time>
            <Position>
              <LatitudeDegrees>43.31437655724585056304931640625</LatitudeDegrees>
              <LongitudeDegrees>-1.95583261549472808837890625</LongitudeDegrees>
            </Position>
            <AltitudeMeters>74.8000030517578125</AltitudeMeters>
            <DistanceMeters>NAN</DistanceMeters>
          </Trackpoint>
          <Trackpoint>
            <Time>2021-08-11T17:29:47.000Z</Time>
            <Position>
              <LatitudeDegrees>43.314373791217803955078125</LatitudeDegrees>
              <LongitudeDegrees>-1.9558347947895526885986328125</LongitudeDegrees>
            </Position>
            <AltitudeMeters>74.8000030517578125</AltitudeMeters>
            <DistanceMeters>NAN</DistanceMeters>
          </Trackpoint>
          <Trackpoint>
            <Time>2021-08-11T17:29:48.000Z</Time>
            <Position>
              <LatitudeDegrees>43.314373791217803955078125</LatitudeDegrees>
              <LongitudeDegrees>-1.9558347947895526885986328125</LongitudeDegrees>
            </Position>
            <AltitudeMeters>75</AltitudeMeters>
            <DistanceMeters>NAN</DistanceMeters>
          </Trackpoint>
          <Trackpoint>
            <Time>2021-08-11T17:29:51.000Z</Time>
            <Position>
              <LatitudeDegrees>43.314373791217803955078125</LatitudeDegrees>
              <LongitudeDegrees>-1.9558347947895526885986328125</LongitudeDegrees>
            </Position>
            <AltitudeMeters>75.1999969482421875</AltitudeMeters>
            <DistanceMeters>NAN</DistanceMeters>
          </Trackpoint>
          <Trackpoint>
            <Time>2021-08-11T17:29:54.000Z</Time>
            <Position>
              <LatitudeDegrees>43.31435970962047576904296875</LatitudeDegrees>
              <LongitudeDegrees>-1.955837309360504150390625</LongitudeDegrees>
            </Position>
            <AltitudeMeters>75.1999969482421875</AltitudeMeters>
            <DistanceMeters>NAN</DistanceMeters>
          </Trackpoint>
          <Trackpoint>
            <Time>2021-08-11T17:29:55.000Z</Time>
            <Position>
              <LatitudeDegrees>43.31434705294668674468994140625</LatitudeDegrees>
              <LongitudeDegrees>-1.95584426634013652801513671875</LongitudeDegrees>
            </Position>
            <AltitudeMeters>75.40000152587890625</AltitudeMeters>
            <DistanceMeters>NAN</DistanceMeters>
          </Trackpoint>
          <Trackpoint>
            <Time>2021-08-11T17:29:56.000Z</Time>
            <Position>
              <LatitudeDegrees>43.3143340609967708587646484375</LatitudeDegrees>
              <LongitudeDegrees>-1.95585415698587894439697265625</LongitudeDegrees>
            </Position>
            <AltitudeMeters>75.40000152587890625</AltitudeMeters>
            <DistanceMeters>NAN</DistanceMeters>
          </Trackpoint>
          <Trackpoint>
            <Time>2021-08-11T17:29:57.000Z</Time>
            <Position>
              <LatitudeDegrees>43.314321823418140411376953125</LatitudeDegrees>
              <LongitudeDegrees>-1.9558669812977313995361328125</LongitudeDegrees>
            </Position>
            <AltitudeMeters>75.40000152587890625</AltitudeMeters>
            <DistanceMeters>NAN</DistanceMeters>
          </Trackpoint>
          <Trackpoint>
            <Time>2021-08-11T17:29:58.000Z</Time>
            <Position>
              <LatitudeDegrees>43.31430363468825817108154296875</LatitudeDegrees>
              <LongitudeDegrees>-1.9558797217905521392822265625</LongitudeDegrees>
            </Position>
            <AltitudeMeters>75.40000152587890625</AltitudeMeters>
            <DistanceMeters>NAN</DistanceMeters>
          </Trackpoint>
          <Trackpoint>
            <Time>2021-08-11T17:30:01.000Z</Time>
            <Position>
              <LatitudeDegrees>43.31424429081380367279052734375</LatitudeDegrees>
              <LongitudeDegrees>-1.9559202902019023895263671875</LongitudeDegrees>
            </Position>
            <AltitudeMeters>75.40000152587890625</AltitudeMeters>
            <DistanceMeters>NAN</DistanceMeters>
          </Trackpoint>
          <Trackpoint>
            <Time>2021-08-11T17:30:02.000Z</Time>
            <Position>
              <LatitudeDegrees>43.3142271079123020172119140625</LatitudeDegrees>
              <LongitudeDegrees>-1.95593051612377166748046875</LongitudeDegrees>
            </Position>
            <AltitudeMeters>75.59999847412109375</AltitudeMeters>
            <DistanceMeters>NAN</DistanceMeters>
          </Trackpoint>
          <Trackpoint>
            <Time>2021-08-11T17:30:03.000Z</Time>
            <Position>
              <LatitudeDegrees>43.31419182009994983673095703125</LatitudeDegrees>
              <LongitudeDegrees>-1.95594795048236846923828125</LongitudeDegrees>
            </Position>
            <AltitudeMeters>75.8000030517578125</AltitudeMeters>
            <DistanceMeters>NAN</DistanceMeters>
          </Trackpoint>
          <Trackpoint>
            <Time>2021-08-11T17:30:04.000Z</Time>
            <Position>
              <LatitudeDegrees>43.31417136825621128082275390625</LatitudeDegrees>
              <LongitudeDegrees>-1.95596077479422092437744140625</LongitudeDegrees>
            </Position>
            <AltitudeMeters>76</AltitudeMeters>
            <DistanceMeters>NAN</DistanceMeters>
          </Trackpoint>
          <Trackpoint>
            <Time>2021-08-11T17:30:06.000Z</Time>
            <Position>
              <LatitudeDegrees>43.31415183842182159423828125</LatitudeDegrees>
              <LongitudeDegrees>-1.9559779576957225799560546875</LongitudeDegrees>
            </Position>
            <AltitudeMeters>76.1999969482421875</AltitudeMeters>
            <DistanceMeters>NAN</DistanceMeters>
          </Trackpoint>
          <Trackpoint>
            <Time>2021-08-11T17:30:11.000Z</Time>
            <Position>
              <LatitudeDegrees>43.31402971409261226654052734375</LatitudeDegrees>
              <LongitudeDegrees>-1.95606973953545093536376953125</LongitudeDegrees>
            </Position>
            <AltitudeMeters>77.40000152587890625</AltitudeMeters>
            <DistanceMeters>NAN</DistanceMeters>
          </Trackpoint>
          <Trackpoint>
            <Time>2021-08-11T17:30:13.000Z</Time>
            <Position>
              <LatitudeDegrees>43.31397724337875843048095703125</LatitudeDegrees>
              <LongitudeDegrees>-1.956113241612911224365234375</LongitudeDegrees>
            </Position>
            <AltitudeMeters>77.8000030517578125</AltitudeMeters>
            <DistanceMeters>NAN</DistanceMeters>
          </Trackpoint>
          <Trackpoint>
            <Time>2021-08-11T17:30:14.000Z</Time>
            <Position>
              <LatitudeDegrees>43.31395260058343410491943359375</LatitudeDegrees>
              <LongitudeDegrees>-1.9561244733631610870361328125</LongitudeDegrees>
            </Position>
            <AltitudeMeters>78</AltitudeMeters>
            <DistanceMeters>NAN</DistanceMeters>
          </Trackpoint>
          <Trackpoint>
            <Time>2021-08-11T17:30:15.000Z</Time>
            <Position>
              <LatitudeDegrees>43.31394287757575511932373046875</LatitudeDegrees>
              <LongitudeDegrees>-1.9561248086392879486083984375</LongitudeDegrees>
            </Position>
            <AltitudeMeters>78</AltitudeMeters>
            <DistanceMeters>NAN</DistanceMeters>
          </Trackpoint>
          <Trackpoint>
            <Time>2021-08-11T17:30:16.000Z</Time>
            <Position>
              <LatitudeDegrees>43.3139334060251712799072265625</LatitudeDegrees>
              <LongitudeDegrees>-1.95609890855848789215087890625</LongitudeDegrees>
            </Position>
            <AltitudeMeters>78.40000152587890625</AltitudeMeters>
            <DistanceMeters>NAN</DistanceMeters>
          </Trackpoint>
          <Trackpoint>
            <Time>2021-08-11T17:30:17.000Z</Time>
            <Position>
              <LatitudeDegrees>43.31391018815338611602783203125</LatitudeDegrees>
              <LongitudeDegrees>-1.95604861713945865631103515625</LongitudeDegrees>
            </Position>
            <AltitudeMeters>78.8000030517578125</AltitudeMeters>
            <DistanceMeters>NAN</DistanceMeters>
          </Trackpoint>
          <Trackpoint>
            <Time>2021-08-11T17:30:18.000Z</Time>
            <Position>
              <LatitudeDegrees>43.31388168968260288238525390625</LatitudeDegrees>
              <LongitudeDegrees>-1.95601525716483592987060546875</LongitudeDegrees>
            </Position>
            <AltitudeMeters>79</AltitudeMeters>
            <DistanceMeters>NAN</DistanceMeters>
          </Trackpoint>
          <Trackpoint>
            <Time>2021-08-11T17:30:19.000Z</Time>
            <Position>
              <LatitudeDegrees>43.31384740769863128662109375</LatitudeDegrees>
              <LongitudeDegrees>-1.956005953252315521240234375</LongitudeDegrees>
            </Position>
            <AltitudeMeters>79.1999969482421875</AltitudeMeters>
            <DistanceMeters>NAN</DistanceMeters>
          </Trackpoint>
          <Trackpoint>
            <Time>2021-08-11T17:30:20.000Z</Time>
            <Position>
              <LatitudeDegrees>43.31381362862884998321533203125</LatitudeDegrees>
              <LongitudeDegrees>-1.95601022802293300628662109375</LongitudeDegrees>
            </Position>
            <AltitudeMeters>79.1999969482421875</AltitudeMeters>
            <DistanceMeters>NAN</DistanceMeters>
          </Trackpoint>
          <Trackpoint>
            <Time>2021-08-11T17:30:21.000Z</Time>
            <Position>
              <LatitudeDegrees>43.31377892754971981048583984375</LatitudeDegrees>
              <LongitudeDegrees>-1.9560141675174236297607421875</LongitudeDegrees>
            </Position>
            <AltitudeMeters>79.40000152587890625</AltitudeMeters>
            <DistanceMeters>NAN</DistanceMeters>
          </Trackpoint>
          <Trackpoint>
            <Time>2021-08-11T17:30:22.000Z</Time>
            <Position>
              <LatitudeDegrees>43.313741795718669891357421875</LatitudeDegrees>
              <LongitudeDegrees>-1.9560171850025653839111328125</LongitudeDegrees>
            </Position>
            <AltitudeMeters>79.40000152587890625</AltitudeMeters>
            <DistanceMeters>NAN</DistanceMeters>
          </Trackpoint>
          <Trackpoint>
            <Time>2021-08-11T17:30:23.000Z</Time>
            <Position>
              <LatitudeDegrees>43.31369762308895587921142578125</LatitudeDegrees>
              <LongitudeDegrees>-1.95603109896183013916015625</LongitudeDegrees>
            </Position>
            <AltitudeMeters>79.40000152587890625</AltitudeMeters>
            <DistanceMeters>NAN</DistanceMeters>
          </Trackpoint>
          <Trackpoint>
            <Time>2021-08-11T17:30:24.000Z</Time>
            <Position>
              <LatitudeDegrees>43.313649594783782958984375</LatitudeDegrees>
              <LongitudeDegrees>-1.95605163462460041046142578125</LongitudeDegrees>
            </Position>
            <AltitudeMeters>79.59999847412109375</AltitudeMeters>
            <DistanceMeters>NAN</DistanceMeters>
          </Trackpoint>
          <Trackpoint>
            <Time>2021-08-11T17:30:25.000Z</Time>
            <Position>
              <LatitudeDegrees>43.3136142231523990631103515625</LatitudeDegrees>
              <LongitudeDegrees>-1.9560500420629978179931640625</LongitudeDegrees>
            </Position>
            <AltitudeMeters>79.59999847412109375</AltitudeMeters>
            <DistanceMeters>NAN</DistanceMeters>
          </Trackpoint>
          <Trackpoint>
            <Time>2021-08-11T17:30:26.000Z</Time>
            <Position>
              <LatitudeDegrees>43.313597626984119415283203125</LatitudeDegrees>
              <LongitudeDegrees>-1.95601425133645534515380859375</LongitudeDegrees>
            </Position>
            <AltitudeMeters>79.59999847412109375</AltitudeMeters>
            <DistanceMeters>NAN</DistanceMeters>
          </Trackpoint>
          <Trackpoint>
            <Time>2021-08-11T17:30:27.000Z</Time>
            <Position>
              <LatitudeDegrees>43.31358010880649089813232421875</LatitudeDegrees>
              <LongitudeDegrees>-1.95598684251308441162109375</LongitudeDegrees>
            </Position>
            <AltitudeMeters>79.59999847412109375</AltitudeMeters>
            <DistanceMeters>NAN</DistanceMeters>
          </Trackpoint>
          <Trackpoint>
            <Time>2021-08-11T17:30:28.000Z</Time>
            <Position>
              <LatitudeDegrees>43.3135568909347057342529296875</LatitudeDegrees>
              <LongitudeDegrees>-1.95596672594547271728515625</LongitudeDegrees>
            </Position>
            <AltitudeMeters>79.59999847412109375</AltitudeMeters>
            <DistanceMeters>NAN</DistanceMeters>
          </Trackpoint>
          <Trackpoint>
            <Time>2021-08-11T17:30:29.000Z</Time>
            <Position>
              <LatitudeDegrees>43.3135516941547393798828125</LatitudeDegrees>
              <LongitudeDegrees>-1.9559370540082454681396484375</LongitudeDegrees>
            </Position>
            <AltitudeMeters>79.59999847412109375</AltitudeMeters>
            <DistanceMeters>NAN</DistanceMeters>
          </Trackpoint>
          <Trackpoint>
            <Time>2021-08-11T17:30:30.000Z</Time>
            <Position>
              <LatitudeDegrees>43.3135448209941387176513671875</LatitudeDegrees>
              <LongitudeDegrees>-1.9559164345264434814453125</LongitudeDegrees>
            </Position>
            <AltitudeMeters>79.59999847412109375</AltitudeMeters>
            <DistanceMeters>NAN</DistanceMeters>
          </Trackpoint>
          <Trackpoint>
            <Time>2021-08-11T17:30:31.000Z</Time>
            <Position>
              <LatitudeDegrees>43.3135361038148403167724609375</LatitudeDegrees>
              <LongitudeDegrees>-1.95589363574981689453125</LongitudeDegrees>
            </Position>
            <AltitudeMeters>79.59999847412109375</AltitudeMeters>
            <DistanceMeters>NAN</DistanceMeters>
          </Trackpoint>
          <Trackpoint>
            <Time>2021-08-11T17:30:32.000Z</Time>
            <Position>
              <LatitudeDegrees>43.31352596171200275421142578125</LatitudeDegrees>
              <LongitudeDegrees>-1.95587217807769775390625</LongitudeDegrees>
            </Position>
            <AltitudeMeters>79.59999847412109375</AltitudeMeters>
            <DistanceMeters>NAN</DistanceMeters>
          </Trackpoint>
          <Trackpoint>
            <Time>2021-08-11T17:30:33.000Z</Time>
            <Position>
              <LatitudeDegrees>43.31351154483854770660400390625</LatitudeDegrees>
              <LongitudeDegrees>-1.9558596052229404449462890625</LongitudeDegrees>
            </Position>
            <AltitudeMeters>79.8000030517578125</AltitudeMeters>
            <DistanceMeters>NAN</DistanceMeters>
          </Trackpoint>
          <Trackpoint>
            <Time>2021-08-11T17:30:34.000Z</Time>
            <Position>
              <LatitudeDegrees>43.31349042244255542755126953125</LatitudeDegrees>
              <LongitudeDegrees>-1.95586304180324077606201171875</LongitudeDegrees>
            </Position>
            <AltitudeMeters>79.8000030517578125</AltitudeMeters>
            <DistanceMeters>NAN</DistanceMeters>
          </Trackpoint>
          <Trackpoint>
            <Time>2021-08-11T17:30:35.000Z</Time>
            <Position>
              <LatitudeDegrees>43.31347349099814891815185546875</LatitudeDegrees>
              <LongitudeDegrees>-1.95587025023996829986572265625</LongitudeDegrees>
            </Position>
            <AltitudeMeters>80</AltitudeMeters>
            <DistanceMeters>NAN</DistanceMeters>
          </Trackpoint>
          <Trackpoint>
            <Time>2021-08-11T17:30:36.000Z</Time>
            <Position>
              <LatitudeDegrees>43.3134650252759456634521484375</LatitudeDegrees>
              <LongitudeDegrees>-1.95588232018053531646728515625</LongitudeDegrees>
            </Position>
            <AltitudeMeters>80</AltitudeMeters>
            <DistanceMeters>NAN</DistanceMeters>
          </Trackpoint>
          <Trackpoint>
            <Time>2021-08-11T17:30:37.000Z</Time>
            <Position>
              <LatitudeDegrees>43.3134593255817890167236328125</LatitudeDegrees>
              <LongitudeDegrees>-1.95589740760624408721923828125</LongitudeDegrees>
            </Position>
            <AltitudeMeters>80</AltitudeMeters>
            <DistanceMeters>NAN</DistanceMeters>
          </Trackpoint>
          <Trackpoint>
            <Time>2021-08-11T17:30:38.000Z</Time>
            <Position>
              <LatitudeDegrees>43.3134573139250278472900390625</LatitudeDegrees>
              <LongitudeDegrees>-1.9559041969478130340576171875</LongitudeDegrees>
            </Position>
            <AltitudeMeters>80</AltitudeMeters>
            <DistanceMeters>NAN</DistanceMeters>
          </Trackpoint>
          <Trackpoint>
            <Time>2021-08-11T17:30:39.000Z</Time>
            <Position>
              <LatitudeDegrees>43.3134573139250278472900390625</LatitudeDegrees>
              <LongitudeDegrees>-1.9559041969478130340576171875</LongitudeDegrees>
            </Position>
            <AltitudeMeters>80.1999969482421875</AltitudeMeters>
            <DistanceMeters>NAN</DistanceMeters>
          </Trackpoint>
          <Trackpoint>
            <Time>2021-08-11T17:30:40.000Z</Time>
            <Position>
              <LatitudeDegrees>43.3134455792605876922607421875</LatitudeDegrees>
              <LongitudeDegrees>-1.9558746926486492156982421875</LongitudeDegrees>
            </Position>
            <AltitudeMeters>80.1999969482421875</AltitudeMeters>
            <DistanceMeters>NAN</DistanceMeters>
          </Trackpoint>
          <Trackpoint>
            <Time>2021-08-11T17:30:41.000Z</Time>
            <Position>
              <LatitudeDegrees>43.31343208439648151397705078125</LatitudeDegrees>
              <LongitudeDegrees>-1.9558555819094181060791015625</LongitudeDegrees>
            </Position>
            <AltitudeMeters>80.1999969482421875</AltitudeMeters>
            <DistanceMeters>NAN</DistanceMeters>
          </Trackpoint>
          <Trackpoint>
            <Time>2021-08-11T17:30:44.000Z</Time>
            <Position>
              <LatitudeDegrees>43.3134076930582523345947265625</LatitudeDegrees>
              <LongitudeDegrees>-1.9558032788336277008056640625</LongitudeDegrees>
            </Position>
            <AltitudeMeters>80.40000152587890625</AltitudeMeters>
            <DistanceMeters>NAN</DistanceMeters>
          </Trackpoint>
          <Trackpoint>
            <Time>2021-08-11T17:30:47.000Z</Time>
            <Position>
              <LatitudeDegrees>43.3133746683597564697265625</LatitudeDegrees>
              <LongitudeDegrees>-1.9557174481451511383056640625</LongitudeDegrees>
            </Position>
            <AltitudeMeters>80.8000030517578125</AltitudeMeters>
            <DistanceMeters>NAN</DistanceMeters>
          </Trackpoint>
          <Trackpoint>
            <Time>2021-08-11T17:30:48.000Z</Time>
            <Position>
              <LatitudeDegrees>43.31336150877177715301513671875</LatitudeDegrees>
              <LongitudeDegrees>-1.95569171570241451263427734375</LongitudeDegrees>
            </Position>
            <AltitudeMeters>80.8000030517578125</AltitudeMeters>
            <DistanceMeters>NAN</DistanceMeters>
          </Trackpoint>
          <Trackpoint>
            <Time>2021-08-11T17:30:49.000Z</Time>
            <Position>
              <LatitudeDegrees>43.3133486844599246978759765625</LatitudeDegrees>
              <LongitudeDegrees>-1.95566724054515361785888671875</LongitudeDegrees>
            </Position>
            <AltitudeMeters>81</AltitudeMeters>
            <DistanceMeters>NAN</DistanceMeters>
          </Trackpoint>
          <Trackpoint>
            <Time>2021-08-11T17:30:53.000Z</Time>
            <Position>
              <LatitudeDegrees>43.31328992731869220733642578125</LatitudeDegrees>
              <LongitudeDegrees>-1.9555719383060932159423828125</LongitudeDegrees>
            </Position>
            <AltitudeMeters>81.40000152587890625</AltitudeMeters>
            <DistanceMeters>NAN</DistanceMeters>
          </Trackpoint>
          <Trackpoint>
            <Time>2021-08-11T17:30:54.000Z</Time>
            <Position>
              <LatitudeDegrees>43.31327031366527080535888671875</LatitudeDegrees>
              <LongitudeDegrees>-1.95555173791944980621337890625</LongitudeDegrees>
            </Position>
            <AltitudeMeters>81.8000030517578125</AltitudeMeters>
            <DistanceMeters>NAN</DistanceMeters>
          </Trackpoint>
          <Trackpoint>
            <Time>2021-08-11T17:30:55.000Z</Time>
            <Position>
              <LatitudeDegrees>43.3132512867450714111328125</LatitudeDegrees>
              <LongitudeDegrees>-1.95553631521761417388916015625</LongitudeDegrees>
            </Position>
            <AltitudeMeters>81.8000030517578125</AltitudeMeters>
            <DistanceMeters>NAN</DistanceMeters>
          </Trackpoint>
          <Trackpoint>
            <Time>2021-08-11T17:30:56.000Z</Time>
            <Position>
              <LatitudeDegrees>43.313231505453586578369140625</LatitudeDegrees>
              <LongitudeDegrees>-1.95553782396018505096435546875</LongitudeDegrees>
            </Position>
            <AltitudeMeters>82</AltitudeMeters>
            <DistanceMeters>NAN</DistanceMeters>
          </Trackpoint>
          <Trackpoint>
            <Time>2021-08-11T17:30:57.000Z</Time>
            <Position>
              <LatitudeDegrees>43.3131971396505832672119140625</LatitudeDegrees>
              <LongitudeDegrees>-1.95556682534515857696533203125</LongitudeDegrees>
            </Position>
            <AltitudeMeters>82.1999969482421875</AltitudeMeters>
            <DistanceMeters>NAN</DistanceMeters>
          </Trackpoint>
          <Trackpoint>
            <Time>2021-08-11T17:30:58.000Z</Time>
            <Position>
              <LatitudeDegrees>43.3131971396505832672119140625</LatitudeDegrees>
              <LongitudeDegrees>-1.95556682534515857696533203125</LongitudeDegrees>
            </Position>
            <AltitudeMeters>82.1999969482421875</AltitudeMeters>
            <DistanceMeters>NAN</DistanceMeters>
          </Trackpoint>
          <Trackpoint>
            <Time>2021-08-11T17:30:59.000Z</Time>
            <Position>
              <LatitudeDegrees>43.31317928619682788848876953125</LatitudeDegrees>
              <LongitudeDegrees>-1.9555823318660259246826171875</LongitudeDegrees>
            </Position>
            <AltitudeMeters>82.40000152587890625</AltitudeMeters>
            <DistanceMeters>NAN</DistanceMeters>
          </Trackpoint>
          <Trackpoint>
            <Time>2021-08-11T17:31:01.000Z</Time>
            <Position>
              <LatitudeDegrees>43.31310854293406009674072265625</LatitudeDegrees>
              <LongitudeDegrees>-1.95562751032412052154541015625</LongitudeDegrees>
            </Position>
            <AltitudeMeters>82.40000152587890625</AltitudeMeters>
            <DistanceMeters>NAN</DistanceMeters>
          </Trackpoint>
          <Trackpoint>
            <Time>2021-08-11T17:31:02.000Z</Time>
            <Position>
              <LatitudeDegrees>43.313083313405513763427734375</LatitudeDegrees>
              <LongitudeDegrees>-1.95564620196819305419921875</LongitudeDegrees>
            </Position>
            <AltitudeMeters>82.59999847412109375</AltitudeMeters>
            <DistanceMeters>NAN</DistanceMeters>
          </Trackpoint>
          <Trackpoint>
            <Time>2021-08-11T17:31:03.000Z</Time>
            <Position>
              <LatitudeDegrees>43.313083313405513763427734375</LatitudeDegrees>
              <LongitudeDegrees>-1.95564620196819305419921875</LongitudeDegrees>
            </Position>
            <AltitudeMeters>82.59999847412109375</AltitudeMeters>
            <DistanceMeters>NAN</DistanceMeters>
          </Trackpoint>
          <Trackpoint>
            <Time>2021-08-11T17:31:04.000Z</Time>
            <Position>
              <LatitudeDegrees>43.31306227482855319976806640625</LatitudeDegrees>
              <LongitudeDegrees>-1.95566405542194843292236328125</LongitudeDegrees>
            </Position>
            <AltitudeMeters>82.59999847412109375</AltitudeMeters>
            <DistanceMeters>NAN</DistanceMeters>
          </Trackpoint>
          <Trackpoint>
            <Time>2021-08-11T17:31:05.000Z</Time>
            <Position>
              <LatitudeDegrees>43.3130382187664508819580078125</LatitudeDegrees>
              <LongitudeDegrees>-1.9556798972189426422119140625</LongitudeDegrees>
            </Position>
            <AltitudeMeters>82.59999847412109375</AltitudeMeters>
            <DistanceMeters>NAN</DistanceMeters>
          </Trackpoint>
          <Trackpoint>
            <Time>2021-08-11T17:31:06.000Z</Time>
            <Position>
              <LatitudeDegrees>43.3130080439150333404541015625</LatitudeDegrees>
              <LongitudeDegrees>-1.95569724775850772857666015625</LongitudeDegrees>
            </Position>
            <AltitudeMeters>82.59999847412109375</AltitudeMeters>
            <DistanceMeters>NAN</DistanceMeters>
          </Trackpoint>
          <Trackpoint>
            <Time>2021-08-11T17:31:07.000Z</Time>
            <Position>
              <LatitudeDegrees>43.31298507750034332275390625</LatitudeDegrees>
              <LongitudeDegrees>-1.9557117484509944915771484375</LongitudeDegrees>
            </Position>
            <AltitudeMeters>82.59999847412109375</AltitudeMeters>
            <DistanceMeters>NAN</DistanceMeters>
          </Trackpoint>
          <Trackpoint>
            <Time>2021-08-11T17:31:10.000Z</Time>
            <Position>
              <LatitudeDegrees>43.31289430148899555206298828125</LatitudeDegrees>
              <LongitudeDegrees>-1.9557482935488224029541015625</LongitudeDegrees>
            </Position>
            <AltitudeMeters>82.8000030517578125</AltitudeMeters>
            <DistanceMeters>NAN</DistanceMeters>
          </Trackpoint>
          <Trackpoint>
            <Time>2021-08-11T17:31:13.000Z</Time>
            <Position>
              <LatitudeDegrees>43.3128259889781475067138671875</LatitudeDegrees>
              <LongitudeDegrees>-1.95580604486167430877685546875</LongitudeDegrees>
            </Position>
            <AltitudeMeters>83</AltitudeMeters>
            <DistanceMeters>NAN</DistanceMeters>
          </Trackpoint>
          <Trackpoint>
            <Time>2021-08-11T17:31:15.000Z</Time>
            <Position>
              <LatitudeDegrees>43.31278164871037006378173828125</LatitudeDegrees>
              <LongitudeDegrees>-1.95583320222795009613037109375</LongitudeDegrees>
            </Position>
            <AltitudeMeters>83</AltitudeMeters>
            <DistanceMeters>NAN</DistanceMeters>
          </Trackpoint>
          <Trackpoint>
            <Time>2021-08-11T17:31:16.000Z</Time>
            <Position>
              <LatitudeDegrees>43.312758766114711761474609375</LatitudeDegrees>
              <LongitudeDegrees>-1.95584334433078765869140625</LongitudeDegrees>
            </Position>
            <AltitudeMeters>83</AltitudeMeters>
            <DistanceMeters>NAN</DistanceMeters>
          </Trackpoint>
          <Trackpoint>
            <Time>2021-08-11T17:31:17.000Z</Time>
            <Position>
              <LatitudeDegrees>43.3127468638122081756591796875</LatitudeDegrees>
              <LongitudeDegrees>-1.9558609463274478912353515625</LongitudeDegrees>
            </Position>
            <AltitudeMeters>83.1999969482421875</AltitudeMeters>
            <DistanceMeters>NAN</DistanceMeters>
          </Trackpoint>
          <Trackpoint>
            <Time>2021-08-11T17:31:18.000Z</Time>
            <Position>
              <LatitudeDegrees>43.312730602920055389404296875</LatitudeDegrees>
              <LongitudeDegrees>-1.95588215254247188568115234375</LongitudeDegrees>
            </Position>
            <AltitudeMeters>83.1999969482421875</AltitudeMeters>
            <DistanceMeters>NAN</DistanceMeters>
          </Trackpoint>
          <Trackpoint>
            <Time>2021-08-11T17:31:19.000Z</Time>
            <Position>
              <LatitudeDegrees>43.312722556293010711669921875</LatitudeDegrees>
              <LongitudeDegrees>-1.9558998383581638336181640625</LongitudeDegrees>
            </Position>
            <AltitudeMeters>83.1999969482421875</AltitudeMeters>
            <DistanceMeters>NAN</DistanceMeters>
          </Trackpoint>
          <Trackpoint>
            <Time>2021-08-11T17:31:20.000Z</Time>
            <Position>
              <LatitudeDegrees>43.312706463038921356201171875</LatitudeDegrees>
              <LongitudeDegrees>-1.95591584779322147369384765625</LongitudeDegrees>
            </Position>
            <AltitudeMeters>83.1999969482421875</AltitudeMeters>
            <DistanceMeters>NAN</DistanceMeters>
          </Trackpoint>
          <Trackpoint>
            <Time>2021-08-11T17:31:21.000Z</Time>
            <Position>
              <LatitudeDegrees>43.31268928013741970062255859375</LatitudeDegrees>
              <LongitudeDegrees>-1.95593277923762798309326171875</LongitudeDegrees>
            </Position>
            <AltitudeMeters>83.1999969482421875</AltitudeMeters>
            <DistanceMeters>NAN</DistanceMeters>
          </Trackpoint>
          <Trackpoint>
            <Time>2021-08-11T17:31:22.000Z</Time>
            <Position>
              <LatitudeDegrees>43.312668241560459136962890625</LatitudeDegrees>
              <LongitudeDegrees>-1.95595071651041507720947265625</LongitudeDegrees>
            </Position>
            <AltitudeMeters>83.1999969482421875</AltitudeMeters>
            <DistanceMeters>NAN</DistanceMeters>
          </Trackpoint>
          <Trackpoint>
            <Time>2021-08-11T17:31:23.000Z</Time>
            <Position>
              <LatitudeDegrees>43.3126482926309108734130859375</LatitudeDegrees>
              <LongitudeDegrees>-1.95596915669739246368408203125</LongitudeDegrees>
            </Position>
            <AltitudeMeters>83.1999969482421875</AltitudeMeters>
            <DistanceMeters>NAN</DistanceMeters>
          </Trackpoint>
          <Trackpoint>
            <Time>2021-08-11T17:31:31.000Z</Time>
            <Position>
              <LatitudeDegrees>43.3124628849327564239501953125</LatitudeDegrees>
              <LongitudeDegrees>-1.95611315779387950897216796875</LongitudeDegrees>
            </Position>
            <AltitudeMeters>83.40000152587890625</AltitudeMeters>
            <DistanceMeters>NAN</DistanceMeters>
          </Trackpoint>
          <Trackpoint>
            <Time>2021-08-11T17:31:37.000Z</Time>
            <Position>
              <LatitudeDegrees>43.312329947948455810546875</LatitudeDegrees>
              <LongitudeDegrees>-1.95620988495647907257080078125</LongitudeDegrees>
            </Position>
            <AltitudeMeters>83.59999847412109375</AltitudeMeters>
            <DistanceMeters>NAN</DistanceMeters>
          </Trackpoint>
          <Trackpoint>
            <Time>2021-08-11T17:31:38.000Z</Time>
            <Position>
              <LatitudeDegrees>43.31230807118117809295654296875</LatitudeDegrees>
              <LongitudeDegrees>-1.9562274031341075897216796875</LongitudeDegrees>
            </Position>
            <AltitudeMeters>83.59999847412109375</AltitudeMeters>
            <DistanceMeters>NAN</DistanceMeters>
          </Trackpoint>
          <Trackpoint>
            <Time>2021-08-11T17:31:39.000Z</Time>
            <Position>
              <LatitudeDegrees>43.31228636205196380615234375</LatitudeDegrees>
              <LongitudeDegrees>-1.956246681511402130126953125</LongitudeDegrees>
            </Position>
            <AltitudeMeters>83.59999847412109375</AltitudeMeters>
            <DistanceMeters>NAN</DistanceMeters>
          </Trackpoint>
          <Trackpoint>
            <Time>2021-08-11T17:31:44.000Z</Time>
            <Position>
              <LatitudeDegrees>43.3121676743030548095703125</LatitudeDegrees>
              <LongitudeDegrees>-1.95635975338518619537353515625</LongitudeDegrees>
            </Position>
            <AltitudeMeters>83.59999847412109375</AltitudeMeters>
            <DistanceMeters>NAN</DistanceMeters>
          </Trackpoint>
          <Trackpoint>
            <Time>2021-08-11T17:31:50.000Z</Time>
            <Position>
              <LatitudeDegrees>43.31193155609071254730224609375</LatitudeDegrees>
              <LongitudeDegrees>-1.956577263772487640380859375</LongitudeDegrees>
            </Position>
            <AltitudeMeters>83</AltitudeMeters>
            <DistanceMeters>NAN</DistanceMeters>
          </Trackpoint>
          <Trackpoint>
            <Time>2021-08-11T17:31:51.000Z</Time>
            <Position>
              <LatitudeDegrees>43.31193155609071254730224609375</LatitudeDegrees>
              <LongitudeDegrees>-1.956577263772487640380859375</LongitudeDegrees>
            </Position>
            <AltitudeMeters>83</AltitudeMeters>
            <DistanceMeters>NAN</DistanceMeters>
          </Trackpoint>
          <Trackpoint>
            <Time>2021-08-11T17:31:55.000Z</Time>
            <Position>
              <LatitudeDegrees>43.31176794134080410003662109375</LatitudeDegrees>
              <LongitudeDegrees>-1.95670441724359989166259765625</LongitudeDegrees>
            </Position>
            <AltitudeMeters>82.1999969482421875</AltitudeMeters>
            <DistanceMeters>NAN</DistanceMeters>
          </Trackpoint>
          <Trackpoint>
            <Time>2021-08-11T17:31:56.000Z</Time>
            <Position>
              <LatitudeDegrees>43.31176794134080410003662109375</LatitudeDegrees>
              <LongitudeDegrees>-1.95670441724359989166259765625</LongitudeDegrees>
            </Position>
            <AltitudeMeters>82</AltitudeMeters>
            <DistanceMeters>NAN</DistanceMeters>
          </Trackpoint>
          <Trackpoint>
            <Time>2021-08-11T17:31:57.000Z</Time>
            <Position>
              <LatitudeDegrees>43.31174078397452831268310546875</LatitudeDegrees>
              <LongitudeDegrees>-1.95672704838216304779052734375</LongitudeDegrees>
            </Position>
            <AltitudeMeters>81.8000030517578125</AltitudeMeters>
            <DistanceMeters>NAN</DistanceMeters>
          </Trackpoint>
          <Trackpoint>
            <Time>2021-08-11T17:31:58.000Z</Time>
            <Position>
              <LatitudeDegrees>43.31171371042728424072265625</LatitudeDegrees>
              <LongitudeDegrees>-1.95674951188266277313232421875</LongitudeDegrees>
            </Position>
            <AltitudeMeters>81.8000030517578125</AltitudeMeters>
            <DistanceMeters>NAN</DistanceMeters>
          </Trackpoint>
          <Trackpoint>
            <Time>2021-08-11T17:31:59.000Z</Time>
            <Position>
              <LatitudeDegrees>43.31168713979423046112060546875</LatitudeDegrees>
              <LongitudeDegrees>-1.95676795206964015960693359375</LongitudeDegrees>
            </Position>
            <AltitudeMeters>81.59999847412109375</AltitudeMeters>
            <DistanceMeters>NAN</DistanceMeters>
          </Trackpoint>
          <Trackpoint>
            <Time>2021-08-11T17:32:00.000Z</Time>
            <Position>
              <LatitudeDegrees>43.311664760112762451171875</LatitudeDegrees>
              <LongitudeDegrees>-1.9567913375794887542724609375</LongitudeDegrees>
            </Position>
            <AltitudeMeters>81.59999847412109375</AltitudeMeters>
            <DistanceMeters>NAN</DistanceMeters>
          </Trackpoint>
          <Trackpoint>
            <Time>2021-08-11T17:32:01.000Z</Time>
            <Position>
              <LatitudeDegrees>43.31165126524865627288818359375</LatitudeDegrees>
              <LongitudeDegrees>-1.956817992031574249267578125</LongitudeDegrees>
            </Position>
            <AltitudeMeters>81.40000152587890625</AltitudeMeters>
            <DistanceMeters>NAN</DistanceMeters>
          </Trackpoint>
          <Trackpoint>
            <Time>2021-08-11T17:32:02.000Z</Time>
            <Position>
              <LatitudeDegrees>43.31164556555449962615966796875</LatitudeDegrees>
              <LongitudeDegrees>-1.956846155226230621337890625</LongitudeDegrees>
            </Position>
            <AltitudeMeters>81.40000152587890625</AltitudeMeters>
            <DistanceMeters>NAN</DistanceMeters>
          </Trackpoint>
          <Trackpoint>
            <Time>2021-08-11T17:32:03.000Z</Time>
            <Position>
              <LatitudeDegrees>43.3116446435451507568359375</LatitudeDegrees>
              <LongitudeDegrees>-1.956867612898349761962890625</LongitudeDegrees>
            </Position>
            <AltitudeMeters>81.1999969482421875</AltitudeMeters>
            <DistanceMeters>NAN</DistanceMeters>
          </Trackpoint>
          <Trackpoint>
            <Time>2021-08-11T17:32:04.000Z</Time>
            <Position>
              <LatitudeDegrees>43.31164020113646984100341796875</LatitudeDegrees>
              <LongitudeDegrees>-1.95688965730369091033935546875</LongitudeDegrees>
            </Position>
            <AltitudeMeters>81</AltitudeMeters>
            <DistanceMeters>NAN</DistanceMeters>
          </Trackpoint>
          <Trackpoint>
            <Time>2021-08-11T17:32:06.000Z</Time>
            <Position>
              <LatitudeDegrees>43.31158286891877651214599609375</LatitudeDegrees>
              <LongitudeDegrees>-1.9569314830005168914794921875</LongitudeDegrees>
            </Position>
            <AltitudeMeters>81</AltitudeMeters>
            <DistanceMeters>NAN</DistanceMeters>
          </Trackpoint>
          <Trackpoint>
            <Time>2021-08-11T17:32:07.000Z</Time>
            <Position>
              <LatitudeDegrees>43.31157029606401920318603515625</LatitudeDegrees>
              <LongitudeDegrees>-1.956913881003856658935546875</LongitudeDegrees>
            </Position>
            <AltitudeMeters>81</AltitudeMeters>
            <DistanceMeters>NAN</DistanceMeters>
          </Trackpoint>
          <Trackpoint>
            <Time>2021-08-11T17:32:09.000Z</Time>
            <Position>
              <LatitudeDegrees>43.31156074069440364837646484375</LatitudeDegrees>
              <LongitudeDegrees>-1.95688446052372455596923828125</LongitudeDegrees>
            </Position>
            <AltitudeMeters>80.8000030517578125</AltitudeMeters>
            <DistanceMeters>NAN</DistanceMeters>
          </Trackpoint>
          <Trackpoint>
            <Time>2021-08-11T17:32:11.000Z</Time>
            <Position>
              <LatitudeDegrees>43.3115324936807155609130859375</LatitudeDegrees>
              <LongitudeDegrees>-1.95678806863725185394287109375</LongitudeDegrees>
            </Position>
            <AltitudeMeters>80.59999847412109375</AltitudeMeters>
            <DistanceMeters>NAN</DistanceMeters>
          </Trackpoint>
          <Trackpoint>
            <Time>2021-08-11T17:32:12.000Z</Time>
            <Position>
              <LatitudeDegrees>43.3115324936807155609130859375</LatitudeDegrees>
              <LongitudeDegrees>-1.95678806863725185394287109375</LongitudeDegrees>
            </Position>
            <AltitudeMeters>80.59999847412109375</AltitudeMeters>
            <DistanceMeters>NAN</DistanceMeters>
          </Trackpoint>
          <Trackpoint>
            <Time>2021-08-11T17:32:13.000Z</Time>
            <Position>
              <LatitudeDegrees>43.311519585549831390380859375</LatitudeDegrees>
              <LongitudeDegrees>-1.95674984715878963470458984375</LongitudeDegrees>
            </Position>
            <AltitudeMeters>80.59999847412109375</AltitudeMeters>
            <DistanceMeters>NAN</DistanceMeters>
          </Trackpoint>
          <Trackpoint>
            <Time>2021-08-11T17:32:15.000Z</Time>
            <Position>
              <LatitudeDegrees>43.31147625111043453216552734375</LatitudeDegrees>
              <LongitudeDegrees>-1.9566059298813343048095703125</LongitudeDegrees>
            </Position>
            <AltitudeMeters>80.40000152587890625</AltitudeMeters>
            <DistanceMeters>NAN</DistanceMeters>
          </Trackpoint>
          <Trackpoint>
            <Time>2021-08-11T17:32:20.000Z</Time>
            <Position>
              <LatitudeDegrees>43.31139394082129001617431640625</LatitudeDegrees>
              <LongitudeDegrees>-1.95638808421790599822998046875</LongitudeDegrees>
            </Position>
            <AltitudeMeters>80</AltitudeMeters>
            <DistanceMeters>NAN</DistanceMeters>
          </Trackpoint>
          <Trackpoint>
            <Time>2021-08-11T17:32:21.000Z</Time>
            <Position>
              <LatitudeDegrees>43.3113601617515087127685546875</LatitudeDegrees>
              <LongitudeDegrees>-1.9563004933297634124755859375</LongitudeDegrees>
            </Position>
            <AltitudeMeters>79.8000030517578125</AltitudeMeters>
            <DistanceMeters>NAN</DistanceMeters>
          </Trackpoint>
          <Trackpoint>
            <Time>2021-08-11T17:32:22.000Z</Time>
            <Position>
              <LatitudeDegrees>43.3113433979451656341552734375</LatitudeDegrees>
              <LongitudeDegrees>-1.95626042783260345458984375</LongitudeDegrees>
            </Position>
            <AltitudeMeters>79.8000030517578125</AltitudeMeters>
            <DistanceMeters>NAN</DistanceMeters>
          </Trackpoint>
          <Trackpoint>
            <Time>2021-08-11T17:32:23.000Z</Time>
            <Position>
              <LatitudeDegrees>43.3113433979451656341552734375</LatitudeDegrees>
              <LongitudeDegrees>-1.95626042783260345458984375</LongitudeDegrees>
            </Position>
            <AltitudeMeters>79.8000030517578125</AltitudeMeters>
            <DistanceMeters>NAN</DistanceMeters>
          </Trackpoint>
          <Trackpoint>
            <Time>2021-08-11T17:32:24.000Z</Time>
            <Position>
              <LatitudeDegrees>43.311328478157520294189453125</LatitudeDegrees>
              <LongitudeDegrees>-1.95622128434479236602783203125</LongitudeDegrees>
            </Position>
            <AltitudeMeters>79.8000030517578125</AltitudeMeters>
            <DistanceMeters>NAN</DistanceMeters>
          </Trackpoint>
          <Trackpoint>
            <Time>2021-08-11T17:32:25.000Z</Time>
            <Position>
              <LatitudeDegrees>43.311311043798923492431640625</LatitudeDegrees>
              <LongitudeDegrees>-1.9561811350286006927490234375</LongitudeDegrees>
            </Position>
            <AltitudeMeters>79.8000030517578125</AltitudeMeters>
            <DistanceMeters>NAN</DistanceMeters>
          </Trackpoint>
          <Trackpoint>
            <Time>2021-08-11T17:32:26.000Z</Time>
            <Position>
              <LatitudeDegrees>43.31127827055752277374267578125</LatitudeDegrees>
              <LongitudeDegrees>-1.95610092021524906158447265625</LongitudeDegrees>
            </Position>
            <AltitudeMeters>79.59999847412109375</AltitudeMeters>
            <DistanceMeters>NAN</DistanceMeters>
          </Trackpoint>
          <Trackpoint>
            <Time>2021-08-11T17:32:27.000Z</Time>
            <Position>
              <LatitudeDegrees>43.31126184202730655670166015625</LatitudeDegrees>
              <LongitudeDegrees>-1.95606454275548458099365234375</LongitudeDegrees>
            </Position>
            <AltitudeMeters>79.59999847412109375</AltitudeMeters>
            <DistanceMeters>NAN</DistanceMeters>
          </Trackpoint>
          <Trackpoint>
            <Time>2021-08-11T17:32:28.000Z</Time>
            <Position>
              <LatitudeDegrees>43.31126184202730655670166015625</LatitudeDegrees>
              <LongitudeDegrees>-1.95606454275548458099365234375</LongitudeDegrees>
            </Position>
            <AltitudeMeters>79.59999847412109375</AltitudeMeters>
            <DistanceMeters>NAN</DistanceMeters>
          </Trackpoint>
          <Trackpoint>
            <Time>2021-08-11T17:32:29.000Z</Time>
            <Position>
              <LatitudeDegrees>43.31123082898557186126708984375</LatitudeDegrees>
              <LongitudeDegrees>-1.9559990800917148590087890625</LongitudeDegrees>
            </Position>
            <AltitudeMeters>79.59999847412109375</AltitudeMeters>
            <DistanceMeters>NAN</DistanceMeters>
          </Trackpoint>
          <Trackpoint>
            <Time>2021-08-11T17:32:30.000Z</Time>
            <Position>
              <LatitudeDegrees>43.31121616065502166748046875</LatitudeDegrees>
              <LongitudeDegrees>-1.95596379227936267852783203125</LongitudeDegrees>
            </Position>
            <AltitudeMeters>79.59999847412109375</AltitudeMeters>
            <DistanceMeters>NAN</DistanceMeters>
          </Trackpoint>
          <Trackpoint>
            <Time>2021-08-11T17:32:31.000Z</Time>
            <Position>
              <LatitudeDegrees>43.31120367161929607391357421875</LatitudeDegrees>
              <LongitudeDegrees>-1.95593076758086681365966796875</LongitudeDegrees>
            </Position>
            <AltitudeMeters>79.59999847412109375</AltitudeMeters>
            <DistanceMeters>NAN</DistanceMeters>
          </Trackpoint>
          <Trackpoint>
            <Time>2021-08-11T17:32:32.000Z</Time>
            <Position>
              <LatitudeDegrees>43.31120367161929607391357421875</LatitudeDegrees>
              <LongitudeDegrees>-1.95593076758086681365966796875</LongitudeDegrees>
            </Position>
            <AltitudeMeters>79.8000030517578125</AltitudeMeters>
            <DistanceMeters>NAN</DistanceMeters>
          </Trackpoint>
          <Trackpoint>
            <Time>2021-08-11T17:32:33.000Z</Time>
            <Position>
              <LatitudeDegrees>43.31118036992847919464111328125</LatitudeDegrees>
              <LongitudeDegrees>-1.95587209425866603851318359375</LongitudeDegrees>
            </Position>
            <AltitudeMeters>79.8000030517578125</AltitudeMeters>
            <DistanceMeters>NAN</DistanceMeters>
          </Trackpoint>
          <Trackpoint>
            <Time>2021-08-11T17:32:34.000Z</Time>
            <Position>
              <LatitudeDegrees>43.31118036992847919464111328125</LatitudeDegrees>
              <LongitudeDegrees>-1.95587209425866603851318359375</LongitudeDegrees>
            </Position>
            <AltitudeMeters>79.8000030517578125</AltitudeMeters>
            <DistanceMeters>NAN</DistanceMeters>
          </Trackpoint>
          <Trackpoint>
            <Time>2021-08-11T17:32:35.000Z</Time>
            <Position>
              <LatitudeDegrees>43.31115723587572574615478515625</LatitudeDegrees>
              <LongitudeDegrees>-1.955823563039302825927734375</LongitudeDegrees>
            </Position>
            <AltitudeMeters>80</AltitudeMeters>
            <DistanceMeters>NAN</DistanceMeters>
          </Trackpoint>
          <Trackpoint>
            <Time>2021-08-11T17:32:36.000Z</Time>
            <Position>
              <LatitudeDegrees>43.31115723587572574615478515625</LatitudeDegrees>
              <LongitudeDegrees>-1.955823563039302825927734375</LongitudeDegrees>
            </Position>
            <AltitudeMeters>80.1999969482421875</AltitudeMeters>
            <DistanceMeters>NAN</DistanceMeters>
          </Trackpoint>
          <Trackpoint>
            <Time>2021-08-11T17:32:37.000Z</Time>
            <Position>
              <LatitudeDegrees>43.3111403882503509521484375</LatitudeDegrees>
              <LongitudeDegrees>-1.95577151142060756683349609375</LongitudeDegrees>
            </Position>
            <AltitudeMeters>80.1999969482421875</AltitudeMeters>
            <DistanceMeters>NAN</DistanceMeters>
          </Trackpoint>
          <Trackpoint>
            <Time>2021-08-11T17:32:40.000Z</Time>
            <Position>
              <LatitudeDegrees>43.311124630272388458251953125</LatitudeDegrees>
              <LongitudeDegrees>-1.9557090662419795989990234375</LongitudeDegrees>
            </Position>
            <AltitudeMeters>80.8000030517578125</AltitudeMeters>
            <DistanceMeters>NAN</DistanceMeters>
          </Trackpoint>
          <Trackpoint>
            <Time>2021-08-11T17:32:42.000Z</Time>
            <Position>
              <LatitudeDegrees>43.311101496219635009765625</LatitudeDegrees>
              <LongitudeDegrees>-1.95561879314482212066650390625</LongitudeDegrees>
            </Position>
            <AltitudeMeters>81</AltitudeMeters>
            <DistanceMeters>NAN</DistanceMeters>
          </Trackpoint>
          <Trackpoint>
            <Time>2021-08-11T17:32:43.000Z</Time>
            <Position>
              <LatitudeDegrees>43.3110969699919223785400390625</LatitudeDegrees>
              <LongitudeDegrees>-1.95559197105467319488525390625</LongitudeDegrees>
            </Position>
            <AltitudeMeters>80.8000030517578125</AltitudeMeters>
            <DistanceMeters>NAN</DistanceMeters>
          </Trackpoint>
          <Trackpoint>
            <Time>2021-08-11T17:32:44.000Z</Time>
            <Position>
              <LatitudeDegrees>43.31109168939292430877685546875</LatitudeDegrees>
              <LongitudeDegrees>-1.95556665770709514617919921875</LongitudeDegrees>
            </Position>
            <AltitudeMeters>81</AltitudeMeters>
            <DistanceMeters>NAN</DistanceMeters>
          </Trackpoint>
          <Trackpoint>
            <Time>2021-08-11T17:32:45.000Z</Time>
            <Position>
              <LatitudeDegrees>43.31108381040394306182861328125</LatitudeDegrees>
              <LongitudeDegrees>-1.95553866215050220489501953125</LongitudeDegrees>
            </Position>
            <AltitudeMeters>81</AltitudeMeters>
            <DistanceMeters>NAN</DistanceMeters>
          </Trackpoint>
          <Trackpoint>
            <Time>2021-08-11T17:32:46.000Z</Time>
            <Position>
              <LatitudeDegrees>43.31108381040394306182861328125</LatitudeDegrees>
              <LongitudeDegrees>-1.95553866215050220489501953125</LongitudeDegrees>
            </Position>
            <AltitudeMeters>81.1999969482421875</AltitudeMeters>
            <DistanceMeters>NAN</DistanceMeters>
          </Trackpoint>
          <Trackpoint>
            <Time>2021-08-11T17:32:47.000Z</Time>
            <Position>
              <LatitudeDegrees>43.31105682067573070526123046875</LatitudeDegrees>
              <LongitudeDegrees>-1.9554991833865642547607421875</LongitudeDegrees>
            </Position>
            <AltitudeMeters>81.40000152587890625</AltitudeMeters>
            <DistanceMeters>NAN</DistanceMeters>
          </Trackpoint>
          <Trackpoint>
            <Time>2021-08-11T17:32:48.000Z</Time>
            <Position>
              <LatitudeDegrees>43.31105682067573070526123046875</LatitudeDegrees>
              <LongitudeDegrees>-1.9554991833865642547607421875</LongitudeDegrees>
            </Position>
            <AltitudeMeters>81.59999847412109375</AltitudeMeters>
            <DistanceMeters>NAN</DistanceMeters>
          </Trackpoint>
          <Trackpoint>
            <Time>2021-08-11T17:32:49.000Z</Time>
            <Position>
              <LatitudeDegrees>43.31100921146571636199951171875</LatitudeDegrees>
              <LongitudeDegrees>-1.95550940930843353271484375</LongitudeDegrees>
            </Position>
            <AltitudeMeters>81.59999847412109375</AltitudeMeters>
            <DistanceMeters>NAN</DistanceMeters>
          </Trackpoint>
          <Trackpoint>
            <Time>2021-08-11T17:32:51.000Z</Time>
            <Position>
              <LatitudeDegrees>43.31099219620227813720703125</LatitudeDegrees>
              <LongitudeDegrees>-1.9555102474987506866455078125</LongitudeDegrees>
            </Position>
            <AltitudeMeters>82</AltitudeMeters>
            <DistanceMeters>NAN</DistanceMeters>
          </Trackpoint>
          <Trackpoint>
            <Time>2021-08-11T17:32:52.000Z</Time>
            <Position>
              <LatitudeDegrees>43.310979120433330535888671875</LatitudeDegrees>
              <LongitudeDegrees>-1.95551200769841670989990234375</LongitudeDegrees>
            </Position>
            <AltitudeMeters>82</AltitudeMeters>
            <DistanceMeters>NAN</DistanceMeters>
          </Trackpoint>
          <Trackpoint>
            <Time>2021-08-11T17:32:53.000Z</Time>
            <Position>
              <LatitudeDegrees>43.310963697731494903564453125</LatitudeDegrees>
              <LongitudeDegrees>-1.9555105827748775482177734375</LongitudeDegrees>
            </Position>
            <AltitudeMeters>82.1999969482421875</AltitudeMeters>
            <DistanceMeters>NAN</DistanceMeters>
          </Trackpoint>
          <Trackpoint>
            <Time>2021-08-11T17:32:54.000Z</Time>
            <Position>
              <LatitudeDegrees>43.3109293319284915924072265625</LatitudeDegrees>
              <LongitudeDegrees>-1.95549390278756618499755859375</LongitudeDegrees>
            </Position>
            <AltitudeMeters>82.1999969482421875</AltitudeMeters>
            <DistanceMeters>NAN</DistanceMeters>
          </Trackpoint>
          <Trackpoint>
            <Time>2021-08-11T17:32:55.000Z</Time>
            <Position>
              <LatitudeDegrees>43.3109293319284915924072265625</LatitudeDegrees>
              <LongitudeDegrees>-1.95549390278756618499755859375</LongitudeDegrees>
            </Position>
            <AltitudeMeters>82.1999969482421875</AltitudeMeters>
            <DistanceMeters>NAN</DistanceMeters>
          </Trackpoint>
          <Trackpoint>
            <Time>2021-08-11T17:32:56.000Z</Time>
            <Position>
              <LatitudeDegrees>43.31090946681797504425048828125</LatitudeDegrees>
              <LongitudeDegrees>-1.9554968364536762237548828125</LongitudeDegrees>
            </Position>
            <AltitudeMeters>82.1999969482421875</AltitudeMeters>
            <DistanceMeters>NAN</DistanceMeters>
          </Trackpoint>
          <Trackpoint>
            <Time>2021-08-11T17:32:58.000Z</Time>
            <Position>
              <LatitudeDegrees>43.3108626119792461395263671875</LatitudeDegrees>
              <LongitudeDegrees>-1.95548987947404384613037109375</LongitudeDegrees>
            </Position>
            <AltitudeMeters>82.40000152587890625</AltitudeMeters>
            <DistanceMeters>NAN</DistanceMeters>
          </Trackpoint>
          <Trackpoint>
            <Time>2021-08-11T17:32:59.000Z</Time>
            <Position>
              <LatitudeDegrees>43.31083235330879688262939453125</LatitudeDegrees>
              <LongitudeDegrees>-1.955442018806934356689453125</LongitudeDegrees>
            </Position>
            <AltitudeMeters>82.40000152587890625</AltitudeMeters>
            <DistanceMeters>NAN</DistanceMeters>
          </Trackpoint>
          <Trackpoint>
            <Time>2021-08-11T17:33:00.000Z</Time>
            <Position>
              <LatitudeDegrees>43.31083235330879688262939453125</LatitudeDegrees>
              <LongitudeDegrees>-1.955442018806934356689453125</LongitudeDegrees>
            </Position>
            <AltitudeMeters>82.59999847412109375</AltitudeMeters>
            <DistanceMeters>NAN</DistanceMeters>
          </Trackpoint>
          <Trackpoint>
            <Time>2021-08-11T17:33:04.000Z</Time>
            <Position>
              <LatitudeDegrees>43.31076010130345821380615234375</LatitudeDegrees>
              <LongitudeDegrees>-1.955338753759860992431640625</LongitudeDegrees>
            </Position>
            <AltitudeMeters>83</AltitudeMeters>
            <DistanceMeters>NAN</DistanceMeters>
          </Trackpoint>
          <Trackpoint>
            <Time>2021-08-11T17:33:06.000Z</Time>
            <Position>
              <LatitudeDegrees>43.31073445267975330352783203125</LatitudeDegrees>
              <LongitudeDegrees>-1.95530598051846027374267578125</LongitudeDegrees>
            </Position>
            <AltitudeMeters>83.1999969482421875</AltitudeMeters>
            <DistanceMeters>NAN</DistanceMeters>
          </Trackpoint>
          <Trackpoint>
            <Time>2021-08-11T17:33:07.000Z</Time>
            <Position>
              <LatitudeDegrees>43.31072422675788402557373046875</LatitudeDegrees>
              <LongitudeDegrees>-1.95529617369174957275390625</LongitudeDegrees>
            </Position>
            <AltitudeMeters>83.59999847412109375</AltitudeMeters>
            <DistanceMeters>NAN</DistanceMeters>
          </Trackpoint>
          <Trackpoint>
            <Time>2021-08-11T17:33:08.000Z</Time>
            <Position>
              <LatitudeDegrees>43.31071215681731700897216796875</LatitudeDegrees>
              <LongitudeDegrees>-1.955281086266040802001953125</LongitudeDegrees>
            </Position>
            <AltitudeMeters>83.59999847412109375</AltitudeMeters>
            <DistanceMeters>NAN</DistanceMeters>
          </Trackpoint>
          <Trackpoint>
            <Time>2021-08-11T17:33:09.000Z</Time>
            <Position>
              <LatitudeDegrees>43.310702182352542877197265625</LatitudeDegrees>
              <LongitudeDegrees>-1.95526759140193462371826171875</LongitudeDegrees>
            </Position>
            <AltitudeMeters>84</AltitudeMeters>
            <DistanceMeters>NAN</DistanceMeters>
          </Trackpoint>
          <Trackpoint>
            <Time>2021-08-11T17:33:10.000Z</Time>
            <Position>
              <LatitudeDegrees>43.310692794620990753173828125</LatitudeDegrees>
              <LongitudeDegrees>-1.95525870658457279205322265625</LongitudeDegrees>
            </Position>
            <AltitudeMeters>84.1999969482421875</AltitudeMeters>
            <DistanceMeters>NAN</DistanceMeters>
          </Trackpoint>
          <Trackpoint>
            <Time>2021-08-11T17:33:11.000Z</Time>
            <Position>
              <LatitudeDegrees>43.3106785453855991363525390625</LatitudeDegrees>
              <LongitudeDegrees>-1.95525250397622585296630859375</LongitudeDegrees>
            </Position>
            <AltitudeMeters>84.40000152587890625</AltitudeMeters>
            <DistanceMeters>NAN</DistanceMeters>
          </Trackpoint>
          <Trackpoint>
            <Time>2021-08-11T17:33:12.000Z</Time>
            <Position>
              <LatitudeDegrees>43.31066228449344635009765625</LatitudeDegrees>
              <LongitudeDegrees>-1.9552527554333209991455078125</LongitudeDegrees>
            </Position>
            <AltitudeMeters>84.8000030517578125</AltitudeMeters>
            <DistanceMeters>NAN</DistanceMeters>
          </Trackpoint>
          <Trackpoint>
            <Time>2021-08-11T17:33:13.000Z</Time>
            <Position>
              <LatitudeDegrees>43.31064577214419841766357421875</LatitudeDegrees>
              <LongitudeDegrees>-1.9552552700042724609375</LongitudeDegrees>
            </Position>
            <AltitudeMeters>85</AltitudeMeters>
            <DistanceMeters>NAN</DistanceMeters>
          </Trackpoint>
          <Trackpoint>
            <Time>2021-08-11T17:33:14.000Z</Time>
            <Position>
              <LatitudeDegrees>43.31062984652817249298095703125</LatitudeDegrees>
              <LongitudeDegrees>-1.95525183342397212982177734375</LongitudeDegrees>
            </Position>
            <AltitudeMeters>85.1999969482421875</AltitudeMeters>
            <DistanceMeters>NAN</DistanceMeters>
          </Trackpoint>
          <Trackpoint>
            <Time>2021-08-11T17:33:15.000Z</Time>
            <Position>
              <LatitudeDegrees>43.31061425618827342987060546875</LatitudeDegrees>
              <LongitudeDegrees>-1.9552405178546905517578125</LongitudeDegrees>
            </Position>
            <AltitudeMeters>85.1999969482421875</AltitudeMeters>
            <DistanceMeters>NAN</DistanceMeters>
          </Trackpoint>
          <Trackpoint>
            <Time>2021-08-11T17:33:16.000Z</Time>
            <Position>
              <LatitudeDegrees>43.3105997554957866668701171875</LatitudeDegrees>
              <LongitudeDegrees>-1.95522132329642772674560546875</LongitudeDegrees>
            </Position>
            <AltitudeMeters>85.40000152587890625</AltitudeMeters>
            <DistanceMeters>NAN</DistanceMeters>
          </Trackpoint>
          <Trackpoint>
            <Time>2021-08-11T17:33:17.000Z</Time>
            <Position>
              <LatitudeDegrees>43.31058927811682224273681640625</LatitudeDegrees>
              <LongitudeDegrees>-1.95518947206437587738037109375</LongitudeDegrees>
            </Position>
            <AltitudeMeters>85.59999847412109375</AltitudeMeters>
            <DistanceMeters>NAN</DistanceMeters>
          </Trackpoint>
          <Trackpoint>
            <Time>2021-08-11T17:33:18.000Z</Time>
            <Position>
              <LatitudeDegrees>43.310586176812648773193359375</LatitudeDegrees>
              <LongitudeDegrees>-1.95516608655452728271484375</LongitudeDegrees>
            </Position>
            <AltitudeMeters>85.8000030517578125</AltitudeMeters>
            <DistanceMeters>NAN</DistanceMeters>
          </Trackpoint>
          <Trackpoint>
            <Time>2021-08-11T17:33:19.000Z</Time>
            <Position>
              <LatitudeDegrees>43.31058039329946041107177734375</LatitudeDegrees>
              <LongitudeDegrees>-1.95513934828341007232666015625</LongitudeDegrees>
            </Position>
            <AltitudeMeters>86</AltitudeMeters>
            <DistanceMeters>NAN</DistanceMeters>
          </Trackpoint>
          <Trackpoint>
            <Time>2021-08-11T17:33:20.000Z</Time>
            <Position>
              <LatitudeDegrees>43.31057352013885974884033203125</LatitudeDegrees>
              <LongitudeDegrees>-1.95511638186872005462646484375</LongitudeDegrees>
            </Position>
            <AltitudeMeters>86</AltitudeMeters>
            <DistanceMeters>NAN</DistanceMeters>
          </Trackpoint>
          <Trackpoint>
            <Time>2021-08-11T17:33:21.000Z</Time>
            <Position>
              <LatitudeDegrees>43.310573436319828033447265625</LatitudeDegrees>
              <LongitudeDegrees>-1.95509240962564945220947265625</LongitudeDegrees>
            </Position>
            <AltitudeMeters>86</AltitudeMeters>
            <DistanceMeters>NAN</DistanceMeters>
          </Trackpoint>
          <Trackpoint>
            <Time>2021-08-11T17:33:22.000Z</Time>
            <Position>
              <LatitudeDegrees>43.31057620234787464141845703125</LatitudeDegrees>
              <LongitudeDegrees>-1.955067850649356842041015625</LongitudeDegrees>
            </Position>
            <AltitudeMeters>86</AltitudeMeters>
            <DistanceMeters>NAN</DistanceMeters>
          </Trackpoint>
          <Trackpoint>
            <Time>2021-08-11T17:33:23.000Z</Time>
            <Position>
              <LatitudeDegrees>43.31057838164269924163818359375</LatitudeDegrees>
              <LongitudeDegrees>-1.9550391845405101776123046875</LongitudeDegrees>
            </Position>
            <AltitudeMeters>86</AltitudeMeters>
            <DistanceMeters>NAN</DistanceMeters>
          </Trackpoint>
          <Trackpoint>
            <Time>2021-08-11T17:33:24.000Z</Time>
            <Position>
              <LatitudeDegrees>43.31057888455688953399658203125</LatitudeDegrees>
              <LongitudeDegrees>-1.95500917732715606689453125</LongitudeDegrees>
            </Position>
            <AltitudeMeters>86</AltitudeMeters>
            <DistanceMeters>NAN</DistanceMeters>
          </Trackpoint>
          <Trackpoint>
            <Time>2021-08-11T17:33:25.000Z</Time>
            <Position>
              <LatitudeDegrees>43.31057268194854259490966796875</LatitudeDegrees>
              <LongitudeDegrees>-1.95498059503734111785888671875</LongitudeDegrees>
            </Position>
            <AltitudeMeters>86.1999969482421875</AltitudeMeters>
            <DistanceMeters>NAN</DistanceMeters>
          </Trackpoint>
          <Trackpoint>
            <Time>2021-08-11T17:33:26.000Z</Time>
            <Position>
              <LatitudeDegrees>43.3105595223605632781982421875</LatitudeDegrees>
              <LongitudeDegrees>-1.9549530185759067535400390625</LongitudeDegrees>
            </Position>
            <AltitudeMeters>86.1999969482421875</AltitudeMeters>
            <DistanceMeters>NAN</DistanceMeters>
          </Trackpoint>
          <Trackpoint>
            <Time>2021-08-11T17:33:27.000Z</Time>
            <Position>
              <LatitudeDegrees>43.31054502166807651519775390625</LatitudeDegrees>
              <LongitudeDegrees>-1.95492736995220184326171875</LongitudeDegrees>
            </Position>
            <AltitudeMeters>86.1999969482421875</AltitudeMeters>
            <DistanceMeters>NAN</DistanceMeters>
          </Trackpoint>
          <Trackpoint>
            <Time>2021-08-11T17:33:28.000Z</Time>
            <Position>
              <LatitudeDegrees>43.310531191527843475341796875</LatitudeDegrees>
              <LongitudeDegrees>-1.95490163750946521759033203125</LongitudeDegrees>
            </Position>
            <AltitudeMeters>86.1999969482421875</AltitudeMeters>
            <DistanceMeters>NAN</DistanceMeters>
          </Trackpoint>
          <Trackpoint>
            <Time>2021-08-11T17:33:29.000Z</Time>
            <Position>
              <LatitudeDegrees>43.31051970832049846649169921875</LatitudeDegrees>
              <LongitudeDegrees>-1.95487699471414089202880859375</LongitudeDegrees>
            </Position>
            <AltitudeMeters>86.1999969482421875</AltitudeMeters>
            <DistanceMeters>NAN</DistanceMeters>
          </Trackpoint>
          <Trackpoint>
            <Time>2021-08-11T17:33:30.000Z</Time>
            <Position>
              <LatitudeDegrees>43.31050763837993144989013671875</LatitudeDegrees>
              <LongitudeDegrees>-1.9548517651855945587158203125</LongitudeDegrees>
            </Position>
            <AltitudeMeters>86.40000152587890625</AltitudeMeters>
            <DistanceMeters>NAN</DistanceMeters>
          </Trackpoint>
          <Trackpoint>
            <Time>2021-08-11T17:33:31.000Z</Time>
            <Position>
              <LatitudeDegrees>43.3104944787919521331787109375</LatitudeDegrees>
              <LongitudeDegrees>-1.95482636801898479461669921875</LongitudeDegrees>
            </Position>
            <AltitudeMeters>86.40000152587890625</AltitudeMeters>
            <DistanceMeters>NAN</DistanceMeters>
          </Trackpoint>
          <Trackpoint>
            <Time>2021-08-11T17:33:32.000Z</Time>
            <Position>
              <LatitudeDegrees>43.3104837499558925628662109375</LatitudeDegrees>
              <LongitudeDegrees>-1.95480725727975368499755859375</LongitudeDegrees>
            </Position>
            <AltitudeMeters>86.59999847412109375</AltitudeMeters>
            <DistanceMeters>NAN</DistanceMeters>
          </Trackpoint>
          <Trackpoint>
            <Time>2021-08-11T17:33:33.000Z</Time>
            <Position>
              <LatitudeDegrees>43.3104837499558925628662109375</LatitudeDegrees>
              <LongitudeDegrees>-1.95480725727975368499755859375</LongitudeDegrees>
            </Position>
            <AltitudeMeters>86.59999847412109375</AltitudeMeters>
            <DistanceMeters>NAN</DistanceMeters>
          </Trackpoint>
          <Trackpoint>
            <Time>2021-08-11T17:33:34.000Z</Time>
            <Position>
              <LatitudeDegrees>43.310476876795291900634765625</LatitudeDegrees>
              <LongitudeDegrees>-1.95479284040629863739013671875</LongitudeDegrees>
            </Position>
            <AltitudeMeters>86.59999847412109375</AltitudeMeters>
            <DistanceMeters>NAN</DistanceMeters>
          </Trackpoint>
          <Trackpoint>
            <Time>2021-08-11T17:33:35.000Z</Time>
            <Position>
              <LatitudeDegrees>43.310464136302471160888671875</LatitudeDegrees>
              <LongitudeDegrees>-1.95476953871548175811767578125</LongitudeDegrees>
            </Position>
            <AltitudeMeters>86.8000030517578125</AltitudeMeters>
            <DistanceMeters>NAN</DistanceMeters>
          </Trackpoint>
          <Trackpoint>
            <Time>2021-08-11T17:33:36.000Z</Time>
            <Position>
              <LatitudeDegrees>43.3104555867612361907958984375</LatitudeDegrees>
              <LongitudeDegrees>-1.95475294254720211029052734375</LongitudeDegrees>
            </Position>
            <AltitudeMeters>87</AltitudeMeters>
            <DistanceMeters>NAN</DistanceMeters>
          </Trackpoint>
          <Trackpoint>
            <Time>2021-08-11T17:33:37.000Z</Time>
            <Position>
              <LatitudeDegrees>43.3104555867612361907958984375</LatitudeDegrees>
              <LongitudeDegrees>-1.95475294254720211029052734375</LongitudeDegrees>
            </Position>
            <AltitudeMeters>87</AltitudeMeters>
            <DistanceMeters>NAN</DistanceMeters>
          </Trackpoint>
          <Trackpoint>
            <Time>2021-08-11T17:33:38.000Z</Time>
            <Position>
              <LatitudeDegrees>43.31044577993452548980712890625</LatitudeDegrees>
              <LongitudeDegrees>-1.954734586179256439208984375</LongitudeDegrees>
            </Position>
            <AltitudeMeters>87</AltitudeMeters>
            <DistanceMeters>NAN</DistanceMeters>
          </Trackpoint>
          <Trackpoint>
            <Time>2021-08-11T17:33:40.000Z</Time>
            <Position>
              <LatitudeDegrees>43.31040873192250728607177734375</LatitudeDegrees>
              <LongitudeDegrees>-1.95466442964971065521240234375</LongitudeDegrees>
            </Position>
            <AltitudeMeters>87.1999969482421875</AltitudeMeters>
            <DistanceMeters>NAN</DistanceMeters>
          </Trackpoint>
          <Trackpoint>
            <Time>2021-08-11T17:33:41.000Z</Time>
            <Position>
              <LatitudeDegrees>43.31038601696491241455078125</LatitudeDegrees>
              <LongitudeDegrees>-1.9546455703675746917724609375</LongitudeDegrees>
            </Position>
            <AltitudeMeters>87.1999969482421875</AltitudeMeters>
            <DistanceMeters>NAN</DistanceMeters>
          </Trackpoint>
          <Trackpoint>
            <Time>2021-08-11T17:33:42.000Z</Time>
            <Position>
              <LatitudeDegrees>43.31036187708377838134765625</LatitudeDegrees>
              <LongitudeDegrees>-1.9546284712851047515869140625</LongitudeDegrees>
            </Position>
            <AltitudeMeters>87.1999969482421875</AltitudeMeters>
            <DistanceMeters>NAN</DistanceMeters>
          </Trackpoint>
          <Trackpoint>
            <Time>2021-08-11T17:33:43.000Z</Time>
            <Position>
              <LatitudeDegrees>43.31036187708377838134765625</LatitudeDegrees>
              <LongitudeDegrees>-1.9546284712851047515869140625</LongitudeDegrees>
            </Position>
            <AltitudeMeters>87.1999969482421875</AltitudeMeters>
            <DistanceMeters>NAN</DistanceMeters>
          </Trackpoint>
          <Trackpoint>
            <Time>2021-08-11T17:33:44.000Z</Time>
            <Position>
              <LatitudeDegrees>43.31033580936491489410400390625</LatitudeDegrees>
              <LongitudeDegrees>-1.95460617542266845703125</LongitudeDegrees>
            </Position>
            <AltitudeMeters>87.1999969482421875</AltitudeMeters>
            <DistanceMeters>NAN</DistanceMeters>
          </Trackpoint>
          <Trackpoint>
            <Time>2021-08-11T17:33:47.000Z</Time>
            <Position>
              <LatitudeDegrees>43.31024025566875934600830078125</LatitudeDegrees>
              <LongitudeDegrees>-1.95454859174787998199462890625</LongitudeDegrees>
            </Position>
            <AltitudeMeters>87</AltitudeMeters>
            <DistanceMeters>NAN</DistanceMeters>
          </Trackpoint>
          <Trackpoint>
            <Time>2021-08-11T17:33:48.000Z</Time>
            <Position>
              <LatitudeDegrees>43.3102118410170078277587890625</LatitudeDegrees>
              <LongitudeDegrees>-1.954555548727512359619140625</LongitudeDegrees>
            </Position>
            <AltitudeMeters>87</AltitudeMeters>
            <DistanceMeters>NAN</DistanceMeters>
          </Trackpoint>
          <Trackpoint>
            <Time>2021-08-11T17:33:49.000Z</Time>
            <Position>
              <LatitudeDegrees>43.3102118410170078277587890625</LatitudeDegrees>
              <LongitudeDegrees>-1.954555548727512359619140625</LongitudeDegrees>
            </Position>
            <AltitudeMeters>87</AltitudeMeters>
            <DistanceMeters>NAN</DistanceMeters>
          </Trackpoint>
          <Trackpoint>
            <Time>2021-08-11T17:33:50.000Z</Time>
            <Position>
              <LatitudeDegrees>43.31015593372285366058349609375</LatitudeDegrees>
              <LongitudeDegrees>-1.9545738212764263153076171875</LongitudeDegrees>
            </Position>
            <AltitudeMeters>87</AltitudeMeters>
            <DistanceMeters>NAN</DistanceMeters>
          </Trackpoint>
          <Trackpoint>
            <Time>2021-08-11T17:33:51.000Z</Time>
            <Position>
              <LatitudeDegrees>43.31012760289013385772705078125</LatitudeDegrees>
              <LongitudeDegrees>-1.9545832090079784393310546875</LongitudeDegrees>
            </Position>
            <AltitudeMeters>87</AltitudeMeters>
            <DistanceMeters>NAN</DistanceMeters>
          </Trackpoint>
          <Trackpoint>
            <Time>2021-08-11T17:33:54.000Z</Time>
            <Position>
              <LatitudeDegrees>43.31005300395190715789794921875</LatitudeDegrees>
              <LongitudeDegrees>-1.954599134624004364013671875</LongitudeDegrees>
            </Position>
            <AltitudeMeters>87.1999969482421875</AltitudeMeters>
            <DistanceMeters>NAN</DistanceMeters>
          </Trackpoint>
          <Trackpoint>
            <Time>2021-08-11T17:33:55.000Z</Time>
            <Position>
              <LatitudeDegrees>43.3100324682891368865966796875</LatitudeDegrees>
              <LongitudeDegrees>-1.954600811004638671875</LongitudeDegrees>
            </Position>
            <AltitudeMeters>87.1999969482421875</AltitudeMeters>
            <DistanceMeters>NAN</DistanceMeters>
          </Trackpoint>
          <Trackpoint>
            <Time>2021-08-11T17:33:56.000Z</Time>
            <Position>
              <LatitudeDegrees>43.31001511774957180023193359375</LatitudeDegrees>
              <LongitudeDegrees>-1.9545993022620677947998046875</LongitudeDegrees>
            </Position>
            <AltitudeMeters>87.40000152587890625</AltitudeMeters>
            <DistanceMeters>NAN</DistanceMeters>
          </Trackpoint>
          <Trackpoint>
            <Time>2021-08-11T17:33:57.000Z</Time>
            <Position>
              <LatitudeDegrees>43.31000053323805332183837890625</LatitudeDegrees>
              <LongitudeDegrees>-1.9546023197472095489501953125</LongitudeDegrees>
            </Position>
            <AltitudeMeters>87.59999847412109375</AltitudeMeters>
            <DistanceMeters>NAN</DistanceMeters>
          </Trackpoint>
          <Trackpoint>
            <Time>2021-08-11T17:33:58.000Z</Time>
            <Position>
              <LatitudeDegrees>43.30998770892620086669921875</LatitudeDegrees>
              <LongitudeDegrees>-1.954602487385272979736328125</LongitudeDegrees>
            </Position>
            <AltitudeMeters>88</AltitudeMeters>
            <DistanceMeters>NAN</DistanceMeters>
          </Trackpoint>
          <Trackpoint>
            <Time>2021-08-11T17:33:59.000Z</Time>
            <Position>
              <LatitudeDegrees>43.30998770892620086669921875</LatitudeDegrees>
              <LongitudeDegrees>-1.954602487385272979736328125</LongitudeDegrees>
            </Position>
            <AltitudeMeters>88.1999969482421875</AltitudeMeters>
            <DistanceMeters>NAN</DistanceMeters>
          </Trackpoint>
          <Trackpoint>
            <Time>2021-08-11T17:34:00.000Z</Time>
            <Position>
              <LatitudeDegrees>43.309959881007671356201171875</LatitudeDegrees>
              <LongitudeDegrees>-1.9545828737318515777587890625</LongitudeDegrees>
            </Position>
            <AltitudeMeters>88.59999847412109375</AltitudeMeters>
            <DistanceMeters>NAN</DistanceMeters>
          </Trackpoint>
          <Trackpoint>
            <Time>2021-08-11T17:34:01.000Z</Time>
            <Position>
              <LatitudeDegrees>43.30994211137294769287109375</LatitudeDegrees>
              <LongitudeDegrees>-1.9545687921345233917236328125</LongitudeDegrees>
            </Position>
            <AltitudeMeters>89</AltitudeMeters>
            <DistanceMeters>NAN</DistanceMeters>
          </Trackpoint>
          <Trackpoint>
            <Time>2021-08-11T17:34:02.000Z</Time>
            <Position>
              <LatitudeDegrees>43.30992643721401691436767578125</LatitudeDegrees>
              <LongitudeDegrees>-1.9545567221939563751220703125</LongitudeDegrees>
            </Position>
            <AltitudeMeters>89.1999969482421875</AltitudeMeters>
            <DistanceMeters>NAN</DistanceMeters>
          </Trackpoint>
          <Trackpoint>
            <Time>2021-08-11T17:34:03.000Z</Time>
            <Position>
              <LatitudeDegrees>43.30991352908313274383544921875</LatitudeDegrees>
              <LongitudeDegrees>-1.9545431435108184814453125</LongitudeDegrees>
            </Position>
            <AltitudeMeters>89.1999969482421875</AltitudeMeters>
            <DistanceMeters>NAN</DistanceMeters>
          </Trackpoint>
          <Trackpoint>
            <Time>2021-08-11T17:34:04.000Z</Time>
            <Position>
              <LatitudeDegrees>43.3099010400474071502685546875</LatitudeDegrees>
              <LongitudeDegrees>-1.95453174412250518798828125</LongitudeDegrees>
            </Position>
            <AltitudeMeters>89.40000152587890625</AltitudeMeters>
            <DistanceMeters>NAN</DistanceMeters>
          </Trackpoint>
          <Trackpoint>
            <Time>2021-08-11T17:34:05.000Z</Time>
            <Position>
              <LatitudeDegrees>43.3099010400474071502685546875</LatitudeDegrees>
              <LongitudeDegrees>-1.95453174412250518798828125</LongitudeDegrees>
            </Position>
            <AltitudeMeters>89.59999847412109375</AltitudeMeters>
            <DistanceMeters>NAN</DistanceMeters>
          </Trackpoint>
          <Trackpoint>
            <Time>2021-08-11T17:34:06.000Z</Time>
            <Position>
              <LatitudeDegrees>43.30988754518330097198486328125</LatitudeDegrees>
              <LongitudeDegrees>-1.9545198418200016021728515625</LongitudeDegrees>
            </Position>
            <AltitudeMeters>89.59999847412109375</AltitudeMeters>
            <DistanceMeters>NAN</DistanceMeters>
          </Trackpoint>
          <Trackpoint>
            <Time>2021-08-11T17:34:07.000Z</Time>
            <Position>
              <LatitudeDegrees>43.3098618127405643463134765625</LatitudeDegrees>
              <LongitudeDegrees>-1.95449612103402614593505859375</LongitudeDegrees>
            </Position>
            <AltitudeMeters>90</AltitudeMeters>
            <DistanceMeters>NAN</DistanceMeters>
          </Trackpoint>
          <Trackpoint>
            <Time>2021-08-11T17:34:08.000Z</Time>
            <Position>
              <LatitudeDegrees>43.30984421074390411376953125</LatitudeDegrees>
              <LongitudeDegrees>-1.95448212325572967529296875</LongitudeDegrees>
            </Position>
            <AltitudeMeters>90.1999969482421875</AltitudeMeters>
            <DistanceMeters>NAN</DistanceMeters>
          </Trackpoint>
          <Trackpoint>
            <Time>2021-08-11T17:34:09.000Z</Time>
            <Position>
              <LatitudeDegrees>43.30984421074390411376953125</LatitudeDegrees>
              <LongitudeDegrees>-1.95448212325572967529296875</LongitudeDegrees>
            </Position>
            <AltitudeMeters>90.40000152587890625</AltitudeMeters>
            <DistanceMeters>NAN</DistanceMeters>
          </Trackpoint>
          <Trackpoint>
            <Time>2021-08-11T17:34:10.000Z</Time>
            <Position>
              <LatitudeDegrees>43.3098323084414005279541015625</LatitudeDegrees>
              <LongitudeDegrees>-1.9544672034680843353271484375</LongitudeDegrees>
            </Position>
            <AltitudeMeters>90.8000030517578125</AltitudeMeters>
            <DistanceMeters>NAN</DistanceMeters>
          </Trackpoint>
          <Trackpoint>
            <Time>2021-08-11T17:34:11.000Z</Time>
            <Position>
              <LatitudeDegrees>43.30981764011085033416748046875</LatitudeDegrees>
              <LongitudeDegrees>-1.95445337332785129547119140625</LongitudeDegrees>
            </Position>
            <AltitudeMeters>91</AltitudeMeters>
            <DistanceMeters>NAN</DistanceMeters>
          </Trackpoint>
          <Trackpoint>
            <Time>2021-08-11T17:34:12.000Z</Time>
            <Position>
              <LatitudeDegrees>43.309779502451419830322265625</LatitudeDegrees>
              <LongitudeDegrees>-1.95442604832351207733154296875</LongitudeDegrees>
            </Position>
            <AltitudeMeters>91.1999969482421875</AltitudeMeters>
            <DistanceMeters>NAN</DistanceMeters>
          </Trackpoint>
          <Trackpoint>
            <Time>2021-08-11T17:34:13.000Z</Time>
            <Position>
              <LatitudeDegrees>43.30976181663572788238525390625</LatitudeDegrees>
              <LongitudeDegrees>-1.95441280491650104522705078125</LongitudeDegrees>
            </Position>
            <AltitudeMeters>91.40000152587890625</AltitudeMeters>
            <DistanceMeters>NAN</DistanceMeters>
          </Trackpoint>
          <Trackpoint>
            <Time>2021-08-11T17:34:14.000Z</Time>
            <Position>
              <LatitudeDegrees>43.30976181663572788238525390625</LatitudeDegrees>
              <LongitudeDegrees>-1.95441280491650104522705078125</LongitudeDegrees>
            </Position>
            <AltitudeMeters>91.40000152587890625</AltitudeMeters>
            <DistanceMeters>NAN</DistanceMeters>
          </Trackpoint>
          <Trackpoint>
            <Time>2021-08-11T17:34:15.000Z</Time>
            <Position>
              <LatitudeDegrees>43.30974387936294078826904296875</LatitudeDegrees>
              <LongitudeDegrees>-1.9543988071382045745849609375</LongitudeDegrees>
            </Position>
            <AltitudeMeters>91.59999847412109375</AltitudeMeters>
            <DistanceMeters>NAN</DistanceMeters>
          </Trackpoint>
          <Trackpoint>
            <Time>2021-08-11T17:34:16.000Z</Time>
            <Position>
              <LatitudeDegrees>43.3097266964614391326904296875</LatitudeDegrees>
              <LongitudeDegrees>-1.95438900031149387359619140625</LongitudeDegrees>
            </Position>
            <AltitudeMeters>91.8000030517578125</AltitudeMeters>
            <DistanceMeters>NAN</DistanceMeters>
          </Trackpoint>
          <Trackpoint>
            <Time>2021-08-11T17:34:17.000Z</Time>
            <Position>
              <LatitudeDegrees>43.30969677306711673736572265625</LatitudeDegrees>
              <LongitudeDegrees>-1.95435798726975917816162109375</LongitudeDegrees>
            </Position>
            <AltitudeMeters>92</AltitudeMeters>
            <DistanceMeters>NAN</DistanceMeters>
          </Trackpoint>
          <Trackpoint>
            <Time>2021-08-11T17:34:18.000Z</Time>
            <Position>
              <LatitudeDegrees>43.3096837811172008514404296875</LatitudeDegrees>
              <LongitudeDegrees>-1.95435010828077793121337890625</LongitudeDegrees>
            </Position>
            <AltitudeMeters>92.1999969482421875</AltitudeMeters>
            <DistanceMeters>NAN</DistanceMeters>
          </Trackpoint>
          <Trackpoint>
            <Time>2021-08-11T17:34:19.000Z</Time>
            <Position>
              <LatitudeDegrees>43.309676907956600189208984375</LatitudeDegrees>
              <LongitudeDegrees>-1.95434239692986011505126953125</LongitudeDegrees>
            </Position>
            <AltitudeMeters>92.40000152587890625</AltitudeMeters>
            <DistanceMeters>NAN</DistanceMeters>
          </Trackpoint>
          <Trackpoint>
            <Time>2021-08-11T17:34:20.000Z</Time>
            <Position>
              <LatitudeDegrees>43.309676907956600189208984375</LatitudeDegrees>
              <LongitudeDegrees>-1.95434239692986011505126953125</LongitudeDegrees>
            </Position>
            <AltitudeMeters>92.40000152587890625</AltitudeMeters>
            <DistanceMeters>NAN</DistanceMeters>
          </Trackpoint>
          <Trackpoint>
            <Time>2021-08-11T17:34:21.000Z</Time>
            <Position>
              <LatitudeDegrees>43.309674896299839019775390625</LatitudeDegrees>
              <LongitudeDegrees>-1.95433300919830799102783203125</LongitudeDegrees>
            </Position>
            <AltitudeMeters>92.8000030517578125</AltitudeMeters>
            <DistanceMeters>NAN</DistanceMeters>
          </Trackpoint>
          <Trackpoint>
            <Time>2021-08-11T17:34:22.000Z</Time>
            <Position>
              <LatitudeDegrees>43.30966458655893802642822265625</LatitudeDegrees>
              <LongitudeDegrees>-1.95432194508612155914306640625</LongitudeDegrees>
            </Position>
            <AltitudeMeters>93</AltitudeMeters>
            <DistanceMeters>NAN</DistanceMeters>
          </Trackpoint>
          <Trackpoint>
            <Time>2021-08-11T17:34:23.000Z</Time>
            <Position>
              <LatitudeDegrees>43.3096529357135295867919921875</LatitudeDegrees>
              <LongitudeDegrees>-1.954312138259410858154296875</LongitudeDegrees>
            </Position>
            <AltitudeMeters>93.1999969482421875</AltitudeMeters>
            <DistanceMeters>NAN</DistanceMeters>
          </Trackpoint>
          <Trackpoint>
            <Time>2021-08-11T17:34:24.000Z</Time>
            <Position>
              <LatitudeDegrees>43.309629969298839569091796875</LatitudeDegrees>
              <LongitudeDegrees>-1.9542918540537357330322265625</LongitudeDegrees>
            </Position>
            <AltitudeMeters>93.40000152587890625</AltitudeMeters>
            <DistanceMeters>NAN</DistanceMeters>
          </Trackpoint>
          <Trackpoint>
            <Time>2021-08-11T17:34:25.000Z</Time>
            <Position>
              <LatitudeDegrees>43.309629969298839569091796875</LatitudeDegrees>
              <LongitudeDegrees>-1.9542918540537357330322265625</LongitudeDegrees>
            </Position>
            <AltitudeMeters>93.59999847412109375</AltitudeMeters>
            <DistanceMeters>NAN</DistanceMeters>
          </Trackpoint>
          <Trackpoint>
            <Time>2021-08-11T17:34:26.000Z</Time>
            <Position>
              <LatitudeDegrees>43.309618569910526275634765625</LatitudeDegrees>
              <LongitudeDegrees>-1.95428338833153247833251953125</LongitudeDegrees>
            </Position>
            <AltitudeMeters>93.8000030517578125</AltitudeMeters>
            <DistanceMeters>NAN</DistanceMeters>
          </Trackpoint>
          <Trackpoint>
            <Time>2021-08-11T17:34:27.000Z</Time>
            <Position>
              <LatitudeDegrees>43.30960758961737155914306640625</LatitudeDegrees>
              <LongitudeDegrees>-1.9542740844190120697021484375</LongitudeDegrees>
            </Position>
            <AltitudeMeters>94</AltitudeMeters>
            <DistanceMeters>NAN</DistanceMeters>
          </Trackpoint>
          <Trackpoint>
            <Time>2021-08-11T17:34:28.000Z</Time>
            <Position>
              <LatitudeDegrees>43.30958562903106212615966796875</LatitudeDegrees>
              <LongitudeDegrees>-1.9542583264410495758056640625</LongitudeDegrees>
            </Position>
            <AltitudeMeters>94.1999969482421875</AltitudeMeters>
            <DistanceMeters>NAN</DistanceMeters>
          </Trackpoint>
          <Trackpoint>
            <Time>2021-08-11T17:34:29.000Z</Time>
            <Position>
              <LatitudeDegrees>43.30957339145243167877197265625</LatitudeDegrees>
              <LongitudeDegrees>-1.954251118004322052001953125</LongitudeDegrees>
            </Position>
            <AltitudeMeters>94.40000152587890625</AltitudeMeters>
            <DistanceMeters>NAN</DistanceMeters>
          </Trackpoint>
          <Trackpoint>
            <Time>2021-08-11T17:34:30.000Z</Time>
            <Position>
              <LatitudeDegrees>43.30957339145243167877197265625</LatitudeDegrees>
              <LongitudeDegrees>-1.954251118004322052001953125</LongitudeDegrees>
            </Position>
            <AltitudeMeters>94.59999847412109375</AltitudeMeters>
            <DistanceMeters>NAN</DistanceMeters>
          </Trackpoint>
          <Trackpoint>
            <Time>2021-08-11T17:34:31.000Z</Time>
            <Position>
              <LatitudeDegrees>43.3095552027225494384765625</LatitudeDegrees>
              <LongitudeDegrees>-1.95423728786408901214599609375</LongitudeDegrees>
            </Position>
            <AltitudeMeters>94.8000030517578125</AltitudeMeters>
            <DistanceMeters>NAN</DistanceMeters>
          </Trackpoint>
          <Trackpoint>
            <Time>2021-08-11T17:34:32.000Z</Time>
            <Position>
              <LatitudeDegrees>43.3095268718898296356201171875</LatitudeDegrees>
              <LongitudeDegrees>-1.954211890697479248046875</LongitudeDegrees>
            </Position>
            <AltitudeMeters>94.8000030517578125</AltitudeMeters>
            <DistanceMeters>NAN</DistanceMeters>
          </Trackpoint>
          <Trackpoint>
            <Time>2021-08-11T17:34:33.000Z</Time>
            <Position>
              <LatitudeDegrees>43.30951371230185031890869140625</LatitudeDegrees>
              <LongitudeDegrees>-1.95420124568045139312744140625</LongitudeDegrees>
            </Position>
            <AltitudeMeters>95</AltitudeMeters>
            <DistanceMeters>NAN</DistanceMeters>
          </Trackpoint>
          <Trackpoint>
            <Time>2021-08-11T17:34:34.000Z</Time>
            <Position>
              <LatitudeDegrees>43.3095020614564418792724609375</LatitudeDegrees>
              <LongitudeDegrees>-1.95418900810182094573974609375</LongitudeDegrees>
            </Position>
            <AltitudeMeters>95</AltitudeMeters>
            <DistanceMeters>NAN</DistanceMeters>
          </Trackpoint>
          <Trackpoint>
            <Time>2021-08-11T17:34:35.000Z</Time>
            <Position>
              <LatitudeDegrees>43.3095020614564418792724609375</LatitudeDegrees>
              <LongitudeDegrees>-1.95418900810182094573974609375</LongitudeDegrees>
            </Position>
            <AltitudeMeters>95.40000152587890625</AltitudeMeters>
            <DistanceMeters>NAN</DistanceMeters>
          </Trackpoint>
          <Trackpoint>
            <Time>2021-08-11T17:34:36.000Z</Time>
            <Position>
              <LatitudeDegrees>43.3094881474971771240234375</LatitudeDegrees>
              <LongitudeDegrees>-1.9541778601706027984619140625</LongitudeDegrees>
            </Position>
            <AltitudeMeters>95.59999847412109375</AltitudeMeters>
            <DistanceMeters>NAN</DistanceMeters>
          </Trackpoint>
          <Trackpoint>
            <Time>2021-08-11T17:34:37.000Z</Time>
            <Position>
              <LatitudeDegrees>43.3094742335379123687744140625</LatitudeDegrees>
              <LongitudeDegrees>-1.954166628420352935791015625</LongitudeDegrees>
            </Position>
            <AltitudeMeters>95.8000030517578125</AltitudeMeters>
            <DistanceMeters>NAN</DistanceMeters>
          </Trackpoint>
          <Trackpoint>
            <Time>2021-08-11T17:34:38.000Z</Time>
            <Position>
              <LatitudeDegrees>43.30944682471454143524169921875</LatitudeDegrees>
              <LongitudeDegrees>-1.95413880050182342529296875</LongitudeDegrees>
            </Position>
            <AltitudeMeters>96.1999969482421875</AltitudeMeters>
            <DistanceMeters>NAN</DistanceMeters>
          </Trackpoint>
          <Trackpoint>
            <Time>2021-08-11T17:34:39.000Z</Time>
            <Position>
              <LatitudeDegrees>43.30944682471454143524169921875</LatitudeDegrees>
              <LongitudeDegrees>-1.95413880050182342529296875</LongitudeDegrees>
            </Position>
            <AltitudeMeters>96.1999969482421875</AltitudeMeters>
            <DistanceMeters>NAN</DistanceMeters>
          </Trackpoint>
          <Trackpoint>
            <Time>2021-08-11T17:34:40.000Z</Time>
            <Position>
              <LatitudeDegrees>43.3094078488647937774658203125</LatitudeDegrees>
              <LongitudeDegrees>-1.95410317741334438323974609375</LongitudeDegrees>
            </Position>
            <AltitudeMeters>96.40000152587890625</AltitudeMeters>
            <DistanceMeters>NAN</DistanceMeters>
          </Trackpoint>
          <Trackpoint>
            <Time>2021-08-11T17:34:41.000Z</Time>
            <Position>
              <LatitudeDegrees>43.3094078488647937774658203125</LatitudeDegrees>
              <LongitudeDegrees>-1.95410317741334438323974609375</LongitudeDegrees>
            </Position>
            <AltitudeMeters>96.59999847412109375</AltitudeMeters>
            <DistanceMeters>NAN</DistanceMeters>
          </Trackpoint>
          <Trackpoint>
            <Time>2021-08-11T17:34:42.000Z</Time>
            <Position>
              <LatitudeDegrees>43.309397287666797637939453125</LatitudeDegrees>
              <LongitudeDegrees>-1.95409127511084079742431640625</LongitudeDegrees>
            </Position>
            <AltitudeMeters>96.8000030517578125</AltitudeMeters>
            <DistanceMeters>NAN</DistanceMeters>
          </Trackpoint>
          <Trackpoint>
            <Time>2021-08-11T17:34:43.000Z</Time>
            <Position>
              <LatitudeDegrees>43.30938429571688175201416015625</LatitudeDegrees>
              <LongitudeDegrees>-1.95407635532319545745849609375</LongitudeDegrees>
            </Position>
            <AltitudeMeters>97</AltitudeMeters>
            <DistanceMeters>NAN</DistanceMeters>
          </Trackpoint>
          <Trackpoint>
            <Time>2021-08-11T17:34:44.000Z</Time>
            <Position>
              <LatitudeDegrees>43.30936803482472896575927734375</LatitudeDegrees>
              <LongitudeDegrees>-1.95405757986009120941162109375</LongitudeDegrees>
            </Position>
            <AltitudeMeters>97.1999969482421875</AltitudeMeters>
            <DistanceMeters>NAN</DistanceMeters>
          </Trackpoint>
          <Trackpoint>
            <Time>2021-08-11T17:34:45.000Z</Time>
            <Position>
              <LatitudeDegrees>43.3093607425689697265625</LatitudeDegrees>
              <LongitudeDegrees>-1.954043246805667877197265625</LongitudeDegrees>
            </Position>
            <AltitudeMeters>97.40000152587890625</AltitudeMeters>
            <DistanceMeters>NAN</DistanceMeters>
          </Trackpoint>
          <Trackpoint>
            <Time>2021-08-11T17:34:46.000Z</Time>
            <Position>
              <LatitudeDegrees>43.3093607425689697265625</LatitudeDegrees>
              <LongitudeDegrees>-1.954043246805667877197265625</LongitudeDegrees>
            </Position>
            <AltitudeMeters>97.59999847412109375</AltitudeMeters>
            <DistanceMeters>NAN</DistanceMeters>
          </Trackpoint>
          <Trackpoint>
            <Time>2021-08-11T17:34:47.000Z</Time>
            <Position>
              <LatitudeDegrees>43.3093407936394214630126953125</LatitudeDegrees>
              <LongitudeDegrees>-1.95402287878096103668212890625</LongitudeDegrees>
            </Position>
            <AltitudeMeters>97.8000030517578125</AltitudeMeters>
            <DistanceMeters>NAN</DistanceMeters>
          </Trackpoint>
          <Trackpoint>
            <Time>2021-08-11T17:34:48.000Z</Time>
            <Position>
              <LatitudeDegrees>43.30931313335895538330078125</LatitudeDegrees>
              <LongitudeDegrees>-1.953998990356922149658203125</LongitudeDegrees>
            </Position>
            <AltitudeMeters>97.8000030517578125</AltitudeMeters>
            <DistanceMeters>NAN</DistanceMeters>
          </Trackpoint>
          <Trackpoint>
            <Time>2021-08-11T17:34:49.000Z</Time>
            <Position>
              <LatitudeDegrees>43.3092777617275714874267578125</LatitudeDegrees>
              <LongitudeDegrees>-1.95396588183939456939697265625</LongitudeDegrees>
            </Position>
            <AltitudeMeters>98.1999969482421875</AltitudeMeters>
            <DistanceMeters>NAN</DistanceMeters>
          </Trackpoint>
          <Trackpoint>
            <Time>2021-08-11T17:34:50.000Z</Time>
            <Position>
              <LatitudeDegrees>43.30926460213959217071533203125</LatitudeDegrees>
              <LongitudeDegrees>-1.9539488665759563446044921875</LongitudeDegrees>
            </Position>
            <AltitudeMeters>98.40000152587890625</AltitudeMeters>
            <DistanceMeters>NAN</DistanceMeters>
          </Trackpoint>
          <Trackpoint>
            <Time>2021-08-11T17:34:51.000Z</Time>
            <Position>
              <LatitudeDegrees>43.30926460213959217071533203125</LatitudeDegrees>
              <LongitudeDegrees>-1.9539488665759563446044921875</LongitudeDegrees>
            </Position>
            <AltitudeMeters>98.40000152587890625</AltitudeMeters>
            <DistanceMeters>NAN</DistanceMeters>
          </Trackpoint>
          <Trackpoint>
            <Time>2021-08-11T17:34:52.000Z</Time>
            <Position>
              <LatitudeDegrees>43.30925320275127887725830078125</LatitudeDegrees>
              <LongitudeDegrees>-1.95393285714089870452880859375</LongitudeDegrees>
            </Position>
            <AltitudeMeters>98.59999847412109375</AltitudeMeters>
            <DistanceMeters>NAN</DistanceMeters>
          </Trackpoint>
          <Trackpoint>
            <Time>2021-08-11T17:34:53.000Z</Time>
            <Position>
              <LatitudeDegrees>43.3092361874878406524658203125</LatitudeDegrees>
              <LongitudeDegrees>-1.95391592569649219512939453125</LongitudeDegrees>
            </Position>
            <AltitudeMeters>98.59999847412109375</AltitudeMeters>
            <DistanceMeters>NAN</DistanceMeters>
          </Trackpoint>
          <Trackpoint>
            <Time>2021-08-11T17:34:54.000Z</Time>
            <Position>
              <LatitudeDegrees>43.30920291133224964141845703125</LatitudeDegrees>
              <LongitudeDegrees>-1.953884996473789215087890625</LongitudeDegrees>
            </Position>
            <AltitudeMeters>98.8000030517578125</AltitudeMeters>
            <DistanceMeters>NAN</DistanceMeters>
          </Trackpoint>
          <Trackpoint>
            <Time>2021-08-11T17:34:55.000Z</Time>
            <Position>
              <LatitudeDegrees>43.30920291133224964141845703125</LatitudeDegrees>
              <LongitudeDegrees>-1.953884996473789215087890625</LongitudeDegrees>
            </Position>
            <AltitudeMeters>99</AltitudeMeters>
            <DistanceMeters>NAN</DistanceMeters>
          </Trackpoint>
          <Trackpoint>
            <Time>2021-08-11T17:34:56.000Z</Time>
            <Position>
              <LatitudeDegrees>43.3091647736728191375732421875</LatitudeDegrees>
              <LongitudeDegrees>-1.953842081129550933837890625</LongitudeDegrees>
            </Position>
            <AltitudeMeters>99.40000152587890625</AltitudeMeters>
            <DistanceMeters>NAN</DistanceMeters>
          </Trackpoint>
          <Trackpoint>
            <Time>2021-08-11T17:34:57.000Z</Time>
            <Position>
              <LatitudeDegrees>43.3091647736728191375732421875</LatitudeDegrees>
              <LongitudeDegrees>-1.953842081129550933837890625</LongitudeDegrees>
            </Position>
            <AltitudeMeters>99.59999847412109375</AltitudeMeters>
            <DistanceMeters>NAN</DistanceMeters>
          </Trackpoint>
          <Trackpoint>
            <Time>2021-08-11T17:34:58.000Z</Time>
            <Position>
              <LatitudeDegrees>43.30914105288684368133544921875</LatitudeDegrees>
              <LongitudeDegrees>-1.953795813024044036865234375</LongitudeDegrees>
            </Position>
            <AltitudeMeters>99.8000030517578125</AltitudeMeters>
            <DistanceMeters>NAN</DistanceMeters>
          </Trackpoint>
          <Trackpoint>
            <Time>2021-08-11T17:34:59.000Z</Time>
            <Position>
              <LatitudeDegrees>43.30913267098367214202880859375</LatitudeDegrees>
              <LongitudeDegrees>-1.9537731818854808807373046875</LongitudeDegrees>
            </Position>
            <AltitudeMeters>100</AltitudeMeters>
            <DistanceMeters>NAN</DistanceMeters>
          </Trackpoint>
          <Trackpoint>
            <Time>2021-08-11T17:35:00.000Z</Time>
            <Position>
              <LatitudeDegrees>43.30911573953926563262939453125</LatitudeDegrees>
              <LongitudeDegrees>-1.9537527300417423248291015625</LongitudeDegrees>
            </Position>
            <AltitudeMeters>100</AltitudeMeters>
            <DistanceMeters>NAN</DistanceMeters>
          </Trackpoint>
          <Trackpoint>
            <Time>2021-08-11T17:35:01.000Z</Time>
            <Position>
              <LatitudeDegrees>43.30909713171422481536865234375</LatitudeDegrees>
              <LongitudeDegrees>-1.9537411630153656005859375</LongitudeDegrees>
            </Position>
            <AltitudeMeters>100.40000152587890625</AltitudeMeters>
            <DistanceMeters>NAN</DistanceMeters>
          </Trackpoint>
          <Trackpoint>
            <Time>2021-08-11T17:35:02.000Z</Time>
            <Position>
              <LatitudeDegrees>43.309076763689517974853515625</LatitudeDegrees>
              <LongitudeDegrees>-1.95371928624808788299560546875</LongitudeDegrees>
            </Position>
            <AltitudeMeters>100.40000152587890625</AltitudeMeters>
            <DistanceMeters>NAN</DistanceMeters>
          </Trackpoint>
          <Trackpoint>
            <Time>2021-08-11T17:35:03.000Z</Time>
            <Position>
              <LatitudeDegrees>43.3090668730437755584716796875</LatitudeDegrees>
              <LongitudeDegrees>-1.953704617917537689208984375</LongitudeDegrees>
            </Position>
            <AltitudeMeters>100.8000030517578125</AltitudeMeters>
            <DistanceMeters>NAN</DistanceMeters>
          </Trackpoint>
          <Trackpoint>
            <Time>2021-08-11T17:35:04.000Z</Time>
            <Position>
              <LatitudeDegrees>43.30905488692224025726318359375</LatitudeDegrees>
              <LongitudeDegrees>-1.953713335096836090087890625</LongitudeDegrees>
            </Position>
            <AltitudeMeters>101.1999969482421875</AltitudeMeters>
            <DistanceMeters>NAN</DistanceMeters>
          </Trackpoint>
          <Trackpoint>
            <Time>2021-08-11T17:35:05.000Z</Time>
            <Position>
              <LatitudeDegrees>43.3090447448194026947021484375</LatitudeDegrees>
              <LongitudeDegrees>-1.9537007622420787811279296875</LongitudeDegrees>
            </Position>
            <AltitudeMeters>101.1999969482421875</AltitudeMeters>
            <DistanceMeters>NAN</DistanceMeters>
          </Trackpoint>
          <Trackpoint>
            <Time>2021-08-11T17:35:06.000Z</Time>
            <Position>
              <LatitudeDegrees>43.30903460271656513214111328125</LatitudeDegrees>
              <LongitudeDegrees>-1.95368978194892406463623046875</LongitudeDegrees>
            </Position>
            <AltitudeMeters>101.59999847412109375</AltitudeMeters>
            <DistanceMeters>NAN</DistanceMeters>
          </Trackpoint>
          <Trackpoint>
            <Time>2021-08-11T17:35:07.000Z</Time>
            <Position>
              <LatitudeDegrees>43.30903460271656513214111328125</LatitudeDegrees>
              <LongitudeDegrees>-1.95368978194892406463623046875</LongitudeDegrees>
            </Position>
            <AltitudeMeters>101.8000030517578125</AltitudeMeters>
            <DistanceMeters>NAN</DistanceMeters>
          </Trackpoint>
          <Trackpoint>
            <Time>2021-08-11T17:35:08.000Z</Time>
            <Position>
              <LatitudeDegrees>43.309025466442108154296875</LatitudeDegrees>
              <LongitudeDegrees>-1.95367855019867420196533203125</LongitudeDegrees>
            </Position>
            <AltitudeMeters>102</AltitudeMeters>
            <DistanceMeters>NAN</DistanceMeters>
          </Trackpoint>
          <Trackpoint>
            <Time>2021-08-11T17:35:09.000Z</Time>
            <Position>
              <LatitudeDegrees>43.30901582725346088409423828125</LatitudeDegrees>
              <LongitudeDegrees>-1.95366949774324893951416015625</LongitudeDegrees>
            </Position>
            <AltitudeMeters>102.1999969482421875</AltitudeMeters>
            <DistanceMeters>NAN</DistanceMeters>
          </Trackpoint>
          <Trackpoint>
            <Time>2021-08-11T17:35:10.000Z</Time>
            <Position>
              <LatitudeDegrees>43.30899772234261035919189453125</LatitudeDegrees>
              <LongitudeDegrees>-1.9536521472036838531494140625</LongitudeDegrees>
            </Position>
            <AltitudeMeters>102.40000152587890625</AltitudeMeters>
            <DistanceMeters>NAN</DistanceMeters>
          </Trackpoint>
          <Trackpoint>
            <Time>2021-08-11T17:35:11.000Z</Time>
            <Position>
              <LatitudeDegrees>43.308987580239772796630859375</LatitudeDegrees>
              <LongitudeDegrees>-1.95363722741603851318359375</LongitudeDegrees>
            </Position>
            <AltitudeMeters>102.8000030517578125</AltitudeMeters>
            <DistanceMeters>NAN</DistanceMeters>
          </Trackpoint>
          <Trackpoint>
            <Time>2021-08-11T17:35:12.000Z</Time>
            <Position>
              <LatitudeDegrees>43.30897517502307891845703125</LatitudeDegrees>
              <LongitudeDegrees>-1.95362423546612262725830078125</LongitudeDegrees>
            </Position>
            <AltitudeMeters>103</AltitudeMeters>
            <DistanceMeters>NAN</DistanceMeters>
          </Trackpoint>
          <Trackpoint>
            <Time>2021-08-11T17:35:13.000Z</Time>
            <Position>
              <LatitudeDegrees>43.30897517502307891845703125</LatitudeDegrees>
              <LongitudeDegrees>-1.95362423546612262725830078125</LongitudeDegrees>
            </Position>
            <AltitudeMeters>103.40000152587890625</AltitudeMeters>
            <DistanceMeters>NAN</DistanceMeters>
          </Trackpoint>
          <Trackpoint>
            <Time>2021-08-11T17:35:14.000Z</Time>
            <Position>
              <LatitudeDegrees>43.308958746492862701416015625</LatitudeDegrees>
              <LongitudeDegrees>-1.95360763929784297943115234375</LongitudeDegrees>
            </Position>
            <AltitudeMeters>103.59999847412109375</AltitudeMeters>
            <DistanceMeters>NAN</DistanceMeters>
          </Trackpoint>
          <Trackpoint>
            <Time>2021-08-11T17:35:15.000Z</Time>
            <Position>
              <LatitudeDegrees>43.30894005484879016876220703125</LatitudeDegrees>
              <LongitudeDegrees>-1.95358299650251865386962890625</LongitudeDegrees>
            </Position>
            <AltitudeMeters>104</AltitudeMeters>
            <DistanceMeters>NAN</DistanceMeters>
          </Trackpoint>
          <Trackpoint>
            <Time>2021-08-11T17:35:16.000Z</Time>
            <Position>
              <LatitudeDegrees>43.30894005484879016876220703125</LatitudeDegrees>
              <LongitudeDegrees>-1.95358299650251865386962890625</LongitudeDegrees>
            </Position>
            <AltitudeMeters>104.40000152587890625</AltitudeMeters>
            <DistanceMeters>NAN</DistanceMeters>
          </Trackpoint>
          <Trackpoint>
            <Time>2021-08-11T17:35:17.000Z</Time>
            <Position>
              <LatitudeDegrees>43.30891692079603672027587890625</LatitudeDegrees>
              <LongitudeDegrees>-1.9535542465746402740478515625</LongitudeDegrees>
            </Position>
            <AltitudeMeters>104.59999847412109375</AltitudeMeters>
            <DistanceMeters>NAN</DistanceMeters>
          </Trackpoint>
          <Trackpoint>
            <Time>2021-08-11T17:35:18.000Z</Time>
            <Position>
              <LatitudeDegrees>43.30891692079603672027587890625</LatitudeDegrees>
              <LongitudeDegrees>-1.9535542465746402740478515625</LongitudeDegrees>
            </Position>
            <AltitudeMeters>105</AltitudeMeters>
            <DistanceMeters>NAN</DistanceMeters>
          </Trackpoint>
          <Trackpoint>
            <Time>2021-08-11T17:35:19.000Z</Time>
            <Position>
              <LatitudeDegrees>43.30890719778835773468017578125</LatitudeDegrees>
              <LongitudeDegrees>-1.95353471674025058746337890625</LongitudeDegrees>
            </Position>
            <AltitudeMeters>105.1999969482421875</AltitudeMeters>
            <DistanceMeters>NAN</DistanceMeters>
          </Trackpoint>
          <Trackpoint>
            <Time>2021-08-11T17:35:20.000Z</Time>
            <Position>
              <LatitudeDegrees>43.30889613367617130279541015625</LatitudeDegrees>
              <LongitudeDegrees>-1.953510828316211700439453125</LongitudeDegrees>
            </Position>
            <AltitudeMeters>105.40000152587890625</AltitudeMeters>
            <DistanceMeters>NAN</DistanceMeters>
          </Trackpoint>
          <Trackpoint>
            <Time>2021-08-11T17:35:21.000Z</Time>
            <Position>
              <LatitudeDegrees>43.30885925330221652984619140625</LatitudeDegrees>
              <LongitudeDegrees>-1.95347093045711517333984375</LongitudeDegrees>
            </Position>
            <AltitudeMeters>105.40000152587890625</AltitudeMeters>
            <DistanceMeters>NAN</DistanceMeters>
          </Trackpoint>
          <Trackpoint>
            <Time>2021-08-11T17:35:22.000Z</Time>
            <Position>
              <LatitudeDegrees>43.30883678980171680450439453125</LatitudeDegrees>
              <LongitudeDegrees>-1.9534667395055294036865234375</LongitudeDegrees>
            </Position>
            <AltitudeMeters>105.8000030517578125</AltitudeMeters>
            <DistanceMeters>NAN</DistanceMeters>
          </Trackpoint>
          <Trackpoint>
            <Time>2021-08-11T17:35:23.000Z</Time>
            <Position>
              <LatitudeDegrees>43.30883678980171680450439453125</LatitudeDegrees>
              <LongitudeDegrees>-1.9534667395055294036865234375</LongitudeDegrees>
            </Position>
            <AltitudeMeters>106</AltitudeMeters>
            <DistanceMeters>NAN</DistanceMeters>
          </Trackpoint>
          <Trackpoint>
            <Time>2021-08-11T17:35:24.000Z</Time>
            <Position>
              <LatitudeDegrees>43.30882170237600803375244140625</LatitudeDegrees>
              <LongitudeDegrees>-1.95347101427614688873291015625</LongitudeDegrees>
            </Position>
            <AltitudeMeters>106.1999969482421875</AltitudeMeters>
            <DistanceMeters>NAN</DistanceMeters>
          </Trackpoint>
          <Trackpoint>
            <Time>2021-08-11T17:35:25.000Z</Time>
            <Position>
              <LatitudeDegrees>43.3088100515305995941162109375</LatitudeDegrees>
              <LongitudeDegrees>-1.95348593406379222869873046875</LongitudeDegrees>
            </Position>
            <AltitudeMeters>106.59999847412109375</AltitudeMeters>
            <DistanceMeters>NAN</DistanceMeters>
          </Trackpoint>
          <Trackpoint>
            <Time>2021-08-11T17:35:26.000Z</Time>
            <Position>
              <LatitudeDegrees>43.30880493856966495513916015625</LatitudeDegrees>
              <LongitudeDegrees>-1.95350454188883304595947265625</LongitudeDegrees>
            </Position>
            <AltitudeMeters>106.59999847412109375</AltitudeMeters>
            <DistanceMeters>NAN</DistanceMeters>
          </Trackpoint>
          <Trackpoint>
            <Time>2021-08-11T17:35:27.000Z</Time>
            <Position>
              <LatitudeDegrees>43.308811895549297332763671875</LatitudeDegrees>
              <LongitudeDegrees>-1.95354645140469074249267578125</LongitudeDegrees>
            </Position>
            <AltitudeMeters>107</AltitudeMeters>
            <DistanceMeters>NAN</DistanceMeters>
          </Trackpoint>
          <Trackpoint>
            <Time>2021-08-11T17:35:28.000Z</Time>
            <Position>
              <LatitudeDegrees>43.308811895549297332763671875</LatitudeDegrees>
              <LongitudeDegrees>-1.95354645140469074249267578125</LongitudeDegrees>
            </Position>
            <AltitudeMeters>107</AltitudeMeters>
            <DistanceMeters>NAN</DistanceMeters>
          </Trackpoint>
          <Trackpoint>
            <Time>2021-08-11T17:35:29.000Z</Time>
            <Position>
              <LatitudeDegrees>43.3088187687098979949951171875</LatitudeDegrees>
              <LongitudeDegrees>-1.95357494987547397613525390625</LongitudeDegrees>
            </Position>
            <AltitudeMeters>107.1999969482421875</AltitudeMeters>
            <DistanceMeters>NAN</DistanceMeters>
          </Trackpoint>
          <Trackpoint>
            <Time>2021-08-11T17:35:30.000Z</Time>
            <Position>
              <LatitudeDegrees>43.30882765352725982666015625</LatitudeDegrees>
              <LongitudeDegrees>-1.9536008499562740325927734375</LongitudeDegrees>
            </Position>
            <AltitudeMeters>107.40000152587890625</AltitudeMeters>
            <DistanceMeters>NAN</DistanceMeters>
          </Trackpoint>
          <Trackpoint>
            <Time>2021-08-11T17:35:31.000Z</Time>
            <Position>
              <LatitudeDegrees>43.30883662216365337371826171875</LatitudeDegrees>
              <LongitudeDegrees>-1.9536169432103633880615234375</LongitudeDegrees>
            </Position>
            <AltitudeMeters>107.59999847412109375</AltitudeMeters>
            <DistanceMeters>NAN</DistanceMeters>
          </Trackpoint>
          <Trackpoint>
            <Time>2021-08-11T17:35:32.000Z</Time>
            <Position>
              <LatitudeDegrees>43.308843076229095458984375</LatitudeDegrees>
              <LongitudeDegrees>-1.9536303542554378509521484375</LongitudeDegrees>
            </Position>
            <AltitudeMeters>107.59999847412109375</AltitudeMeters>
            <DistanceMeters>NAN</DistanceMeters>
          </Trackpoint>
          <Trackpoint>
            <Time>2021-08-11T17:35:33.000Z</Time>
            <Position>
              <LatitudeDegrees>43.30884651280939579010009765625</LatitudeDegrees>
              <LongitudeDegrees>-1.9536437653005123138427734375</LongitudeDegrees>
            </Position>
            <AltitudeMeters>107.59999847412109375</AltitudeMeters>
            <DistanceMeters>NAN</DistanceMeters>
          </Trackpoint>
          <Trackpoint>
            <Time>2021-08-11T17:35:34.000Z</Time>
            <Position>
              <LatitudeDegrees>43.30885313451290130615234375</LatitudeDegrees>
              <LongitudeDegrees>-1.95366648025810718536376953125</LongitudeDegrees>
            </Position>
            <AltitudeMeters>107.8000030517578125</AltitudeMeters>
            <DistanceMeters>NAN</DistanceMeters>
          </Trackpoint>
          <Trackpoint>
            <Time>2021-08-11T17:35:35.000Z</Time>
            <Position>
              <LatitudeDegrees>43.3088590018451213836669921875</LatitudeDegrees>
              <LongitudeDegrees>-1.95368240587413311004638671875</LongitudeDegrees>
            </Position>
            <AltitudeMeters>107.8000030517578125</AltitudeMeters>
            <DistanceMeters>NAN</DistanceMeters>
          </Trackpoint>
          <Trackpoint>
            <Time>2021-08-11T17:35:36.000Z</Time>
            <Position>
              <LatitudeDegrees>43.30886922776699066162109375</LatitudeDegrees>
              <LongitudeDegrees>-1.9537034444510936737060546875</LongitudeDegrees>
            </Position>
            <AltitudeMeters>108.1999969482421875</AltitudeMeters>
            <DistanceMeters>NAN</DistanceMeters>
          </Trackpoint>
          <Trackpoint>
            <Time>2021-08-11T17:35:37.000Z</Time>
            <Position>
              <LatitudeDegrees>43.308876268565654754638671875</LatitudeDegrees>
              <LongitudeDegrees>-1.9537141732871532440185546875</LongitudeDegrees>
            </Position>
            <AltitudeMeters>108.40000152587890625</AltitudeMeters>
            <DistanceMeters>NAN</DistanceMeters>
          </Trackpoint>
          <Trackpoint>
            <Time>2021-08-11T17:35:38.000Z</Time>
            <Position>
              <LatitudeDegrees>43.30888775177299976348876953125</LatitudeDegrees>
              <LongitudeDegrees>-1.9537460245192050933837890625</LongitudeDegrees>
            </Position>
            <AltitudeMeters>108.40000152587890625</AltitudeMeters>
            <DistanceMeters>NAN</DistanceMeters>
          </Trackpoint>
          <Trackpoint>
            <Time>2021-08-11T17:35:39.000Z</Time>
            <Position>
              <LatitudeDegrees>43.30888775177299976348876953125</LatitudeDegrees>
              <LongitudeDegrees>-1.9537460245192050933837890625</LongitudeDegrees>
            </Position>
            <AltitudeMeters>108.59999847412109375</AltitudeMeters>
            <DistanceMeters>NAN</DistanceMeters>
          </Trackpoint>
          <Trackpoint>
            <Time>2021-08-11T17:35:40.000Z</Time>
            <Position>
              <LatitudeDegrees>43.30888397991657257080078125</LatitudeDegrees>
              <LongitudeDegrees>-1.95376329123973846435546875</LongitudeDegrees>
            </Position>
            <AltitudeMeters>108.59999847412109375</AltitudeMeters>
            <DistanceMeters>NAN</DistanceMeters>
          </Trackpoint>
          <Trackpoint>
            <Time>2021-08-11T17:35:41.000Z</Time>
            <Position>
              <LatitudeDegrees>43.30887601710855960845947265625</LatitudeDegrees>
              <LongitudeDegrees>-1.95377125404775142669677734375</LongitudeDegrees>
            </Position>
            <AltitudeMeters>108.59999847412109375</AltitudeMeters>
            <DistanceMeters>NAN</DistanceMeters>
          </Trackpoint>
          <Trackpoint>
            <Time>2021-08-11T17:35:42.000Z</Time>
            <Position>
              <LatitudeDegrees>43.3088631927967071533203125</LatitudeDegrees>
              <LongitudeDegrees>-1.953756250441074371337890625</LongitudeDegrees>
            </Position>
            <AltitudeMeters>108.59999847412109375</AltitudeMeters>
            <DistanceMeters>NAN</DistanceMeters>
          </Trackpoint>
          <Trackpoint>
            <Time>2021-08-11T17:35:43.000Z</Time>
            <Position>
              <LatitudeDegrees>43.3088579960167407989501953125</LatitudeDegrees>
              <LongitudeDegrees>-1.95373638533055782318115234375</LongitudeDegrees>
            </Position>
            <AltitudeMeters>108.8000030517578125</AltitudeMeters>
            <DistanceMeters>NAN</DistanceMeters>
          </Trackpoint>
          <Trackpoint>
            <Time>2021-08-11T17:35:44.000Z</Time>
            <Position>
              <LatitudeDegrees>43.3088579960167407989501953125</LatitudeDegrees>
              <LongitudeDegrees>-1.95373638533055782318115234375</LongitudeDegrees>
            </Position>
            <AltitudeMeters>108.8000030517578125</AltitudeMeters>
            <DistanceMeters>NAN</DistanceMeters>
          </Trackpoint>
          <Trackpoint>
            <Time>2021-08-11T17:35:45.000Z</Time>
            <Position>
              <LatitudeDegrees>43.30885305069386959075927734375</LatitudeDegrees>
              <LongitudeDegrees>-1.95371308363974094390869140625</LongitudeDegrees>
            </Position>
            <AltitudeMeters>108.8000030517578125</AltitudeMeters>
            <DistanceMeters>NAN</DistanceMeters>
          </Trackpoint>
          <Trackpoint>
            <Time>2021-08-11T17:35:46.000Z</Time>
            <Position>
              <LatitudeDegrees>43.30885179340839385986328125</LatitudeDegrees>
              <LongitudeDegrees>-1.95369422435760498046875</LongitudeDegrees>
            </Position>
            <AltitudeMeters>108.8000030517578125</AltitudeMeters>
            <DistanceMeters>NAN</DistanceMeters>
          </Trackpoint>
          <Trackpoint>
            <Time>2021-08-11T17:35:47.000Z</Time>
            <Position>
              <LatitudeDegrees>43.30884240567684173583984375</LatitudeDegrees>
              <LongitudeDegrees>-1.95365407504141330718994140625</LongitudeDegrees>
            </Position>
            <AltitudeMeters>108.8000030517578125</AltitudeMeters>
            <DistanceMeters>NAN</DistanceMeters>
          </Trackpoint>
          <Trackpoint>
            <Time>2021-08-11T17:35:48.000Z</Time>
            <Position>
              <LatitudeDegrees>43.30884240567684173583984375</LatitudeDegrees>
              <LongitudeDegrees>-1.95365407504141330718994140625</LongitudeDegrees>
            </Position>
            <AltitudeMeters>108.8000030517578125</AltitudeMeters>
            <DistanceMeters>NAN</DistanceMeters>
          </Trackpoint>
          <Trackpoint>
            <Time>2021-08-11T17:35:49.000Z</Time>
            <Position>
              <LatitudeDegrees>43.3088351972401142120361328125</LatitudeDegrees>
              <LongitudeDegrees>-1.95361736230552196502685546875</LongitudeDegrees>
            </Position>
            <AltitudeMeters>108.8000030517578125</AltitudeMeters>
            <DistanceMeters>NAN</DistanceMeters>
          </Trackpoint>
          <Trackpoint>
            <Time>2021-08-11T17:35:50.000Z</Time>
            <Position>
              <LatitudeDegrees>43.3088351972401142120361328125</LatitudeDegrees>
              <LongitudeDegrees>-1.95361736230552196502685546875</LongitudeDegrees>
            </Position>
            <AltitudeMeters>108.59999847412109375</AltitudeMeters>
            <DistanceMeters>NAN</DistanceMeters>
          </Trackpoint>
          <Trackpoint>
            <Time>2021-08-11T17:35:51.000Z</Time>
            <Position>
              <LatitudeDegrees>43.30883142538368701934814453125</LatitudeDegrees>
              <LongitudeDegrees>-1.9536018557846546173095703125</LongitudeDegrees>
            </Position>
            <AltitudeMeters>108.59999847412109375</AltitudeMeters>
            <DistanceMeters>NAN</DistanceMeters>
          </Trackpoint>
          <Trackpoint>
            <Time>2021-08-11T17:35:52.000Z</Time>
            <Position>
              <LatitudeDegrees>43.30881885252892971038818359375</LatitudeDegrees>
              <LongitudeDegrees>-1.9535713456571102142333984375</LongitudeDegrees>
            </Position>
            <AltitudeMeters>108.40000152587890625</AltitudeMeters>
            <DistanceMeters>NAN</DistanceMeters>
          </Trackpoint>
          <Trackpoint>
            <Time>2021-08-11T17:35:53.000Z</Time>
            <Position>
              <LatitudeDegrees>43.30881885252892971038818359375</LatitudeDegrees>
              <LongitudeDegrees>-1.9535713456571102142333984375</LongitudeDegrees>
            </Position>
            <AltitudeMeters>108.40000152587890625</AltitudeMeters>
            <DistanceMeters>NAN</DistanceMeters>
          </Trackpoint>
          <Trackpoint>
            <Time>2021-08-11T17:35:54.000Z</Time>
            <Position>
              <LatitudeDegrees>43.3088144101202487945556640625</LatitudeDegrees>
              <LongitudeDegrees>-1.953530944883823394775390625</LongitudeDegrees>
            </Position>
            <AltitudeMeters>108.40000152587890625</AltitudeMeters>
            <DistanceMeters>NAN</DistanceMeters>
          </Trackpoint>
          <Trackpoint>
            <Time>2021-08-11T17:35:55.000Z</Time>
            <Position>
              <LatitudeDegrees>43.3088144101202487945556640625</LatitudeDegrees>
              <LongitudeDegrees>-1.953530944883823394775390625</LongitudeDegrees>
            </Position>
            <AltitudeMeters>108.1999969482421875</AltitudeMeters>
            <DistanceMeters>NAN</DistanceMeters>
          </Trackpoint>
          <Trackpoint>
            <Time>2021-08-11T17:35:56.000Z</Time>
            <Position>
              <LatitudeDegrees>43.3088130690157413482666015625</LatitudeDegrees>
              <LongitudeDegrees>-1.95351107977330684661865234375</LongitudeDegrees>
            </Position>
            <AltitudeMeters>108.1999969482421875</AltitudeMeters>
            <DistanceMeters>NAN</DistanceMeters>
          </Trackpoint>
          <Trackpoint>
            <Time>2021-08-11T17:35:57.000Z</Time>
            <Position>
              <LatitudeDegrees>43.3088170923292636871337890625</LatitudeDegrees>
              <LongitudeDegrees>-1.95349238812923431396484375</LongitudeDegrees>
            </Position>
            <AltitudeMeters>108</AltitudeMeters>
            <DistanceMeters>NAN</DistanceMeters>
          </Trackpoint>
          <Trackpoint>
            <Time>2021-08-11T17:35:58.000Z</Time>
            <Position>
              <LatitudeDegrees>43.30881851725280284881591796875</LatitudeDegrees>
              <LongitudeDegrees>-1.9534700922667980194091796875</LongitudeDegrees>
            </Position>
            <AltitudeMeters>108</AltitudeMeters>
            <DistanceMeters>NAN</DistanceMeters>
          </Trackpoint>
          <Trackpoint>
            <Time>2021-08-11T17:35:59.000Z</Time>
            <Position>
              <LatitudeDegrees>43.30881424248218536376953125</LatitudeDegrees>
              <LongitudeDegrees>-1.953457854688167572021484375</LongitudeDegrees>
            </Position>
            <AltitudeMeters>108</AltitudeMeters>
            <DistanceMeters>NAN</DistanceMeters>
          </Trackpoint>
          <Trackpoint>
            <Time>2021-08-11T17:36:00.000Z</Time>
            <Position>
              <LatitudeDegrees>43.30880946479737758636474609375</LatitudeDegrees>
              <LongitudeDegrees>-1.95344947278499603271484375</LongitudeDegrees>
            </Position>
            <AltitudeMeters>107.8000030517578125</AltitudeMeters>
            <DistanceMeters>NAN</DistanceMeters>
          </Trackpoint>
          <Trackpoint>
            <Time>2021-08-11T17:36:01.000Z</Time>
            <Position>
              <LatitudeDegrees>43.308801166713237762451171875</LatitudeDegrees>
              <LongitudeDegrees>-1.953447125852108001708984375</LongitudeDegrees>
            </Position>
            <AltitudeMeters>107.8000030517578125</AltitudeMeters>
            <DistanceMeters>NAN</DistanceMeters>
          </Trackpoint>
          <Trackpoint>
            <Time>2021-08-11T17:36:02.000Z</Time>
            <Position>
              <LatitudeDegrees>43.3087973110377788543701171875</LatitudeDegrees>
              <LongitudeDegrees>-1.9534526579082012176513671875</LongitudeDegrees>
            </Position>
            <AltitudeMeters>107.59999847412109375</AltitudeMeters>
            <DistanceMeters>NAN</DistanceMeters>
          </Trackpoint>
          <Trackpoint>
            <Time>2021-08-11T17:36:03.000Z</Time>
            <Position>
              <LatitudeDegrees>43.30879270099103450775146484375</LatitudeDegrees>
              <LongitudeDegrees>-1.95345676504075527191162109375</LongitudeDegrees>
            </Position>
            <AltitudeMeters>107.59999847412109375</AltitudeMeters>
            <DistanceMeters>NAN</DistanceMeters>
          </Trackpoint>
          <Trackpoint>
            <Time>2021-08-11T17:36:04.000Z</Time>
            <Position>
              <LatitudeDegrees>43.30879538320004940032958984375</LatitudeDegrees>
              <LongitudeDegrees>-1.95343782193958759307861328125</LongitudeDegrees>
            </Position>
            <AltitudeMeters>107.59999847412109375</AltitudeMeters>
            <DistanceMeters>NAN</DistanceMeters>
          </Trackpoint>
          <Trackpoint>
            <Time>2021-08-11T17:36:05.000Z</Time>
            <Position>
              <LatitudeDegrees>43.30879538320004940032958984375</LatitudeDegrees>
              <LongitudeDegrees>-1.95343782193958759307861328125</LongitudeDegrees>
            </Position>
            <AltitudeMeters>107.40000152587890625</AltitudeMeters>
            <DistanceMeters>NAN</DistanceMeters>
          </Trackpoint>
          <Trackpoint>
            <Time>2021-08-11T17:36:12.000Z</Time>
            <Position>
              <LatitudeDegrees>43.30879538320004940032958984375</LatitudeDegrees>
              <LongitudeDegrees>-1.95343782193958759307861328125</LongitudeDegrees>
            </Position>
            <AltitudeMeters>107.40000152587890625</AltitudeMeters>
            <DistanceMeters>NAN</DistanceMeters>
          </Trackpoint>
          <Trackpoint>
            <Time>2021-08-11T17:37:42.000Z</Time>
            <Position>
              <LatitudeDegrees>43.30879538320004940032958984375</LatitudeDegrees>
              <LongitudeDegrees>-1.95343782193958759307861328125</LongitudeDegrees>
            </Position>
            <AltitudeMeters>107</AltitudeMeters>
            <DistanceMeters>NAN</DistanceMeters>
          </Trackpoint>
          <Trackpoint>
            <Time>2021-08-11T17:40:30.000Z</Time>
            <Position>
              <LatitudeDegrees>43.3087183535099029541015625</LatitudeDegrees>
              <LongitudeDegrees>-1.95351518690586090087890625</LongitudeDegrees>
            </Position>
            <AltitudeMeters>106.8000030517578125</AltitudeMeters>
            <DistanceMeters>NAN</DistanceMeters>
          </Trackpoint>
          <Trackpoint>
            <Time>2021-08-11T17:40:34.000Z</Time>
            <Position>
              <LatitudeDegrees>43.30863143317401409149169921875</LatitudeDegrees>
              <LongitudeDegrees>-1.95360546000301837921142578125</LongitudeDegrees>
            </Position>
            <AltitudeMeters>106.40000152587890625</AltitudeMeters>
            <DistanceMeters>NAN</DistanceMeters>
          </Trackpoint>
          <Trackpoint>
            <Time>2021-08-11T17:40:35.000Z</Time>
            <Position>
              <LatitudeDegrees>43.30857896246016025543212890625</LatitudeDegrees>
              <LongitudeDegrees>-1.953654326498508453369140625</LongitudeDegrees>
            </Position>
            <AltitudeMeters>106.40000152587890625</AltitudeMeters>
            <DistanceMeters>NAN</DistanceMeters>
          </Trackpoint>
          <Trackpoint>
            <Time>2021-08-11T17:40:36.000Z</Time>
            <Position>
              <LatitudeDegrees>43.3085535652935504913330078125</LatitudeDegrees>
              <LongitudeDegrees>-1.9536776281893253326416015625</LongitudeDegrees>
            </Position>
            <AltitudeMeters>106</AltitudeMeters>
            <DistanceMeters>NAN</DistanceMeters>
          </Trackpoint>
          <Trackpoint>
            <Time>2021-08-11T17:40:37.000Z</Time>
            <Position>
              <LatitudeDegrees>43.3085535652935504913330078125</LatitudeDegrees>
              <LongitudeDegrees>-1.9536776281893253326416015625</LongitudeDegrees>
            </Position>
            <AltitudeMeters>105.8000030517578125</AltitudeMeters>
            <DistanceMeters>NAN</DistanceMeters>
          </Trackpoint>
          <Trackpoint>
            <Time>2021-08-11T17:40:38.000Z</Time>
            <Position>
              <LatitudeDegrees>43.3084984123706817626953125</LatitudeDegrees>
              <LongitudeDegrees>-1.95373973809182643890380859375</LongitudeDegrees>
            </Position>
            <AltitudeMeters>105.1999969482421875</AltitudeMeters>
            <DistanceMeters>NAN</DistanceMeters>
          </Trackpoint>
          <Trackpoint>
            <Time>2021-08-11T17:40:39.000Z</Time>
            <Position>
              <LatitudeDegrees>43.30847335048019886016845703125</LatitudeDegrees>
              <LongitudeDegrees>-1.95378365926444530487060546875</LongitudeDegrees>
            </Position>
            <AltitudeMeters>104.8000030517578125</AltitudeMeters>
            <DistanceMeters>NAN</DistanceMeters>
          </Trackpoint>
          <Trackpoint>
            <Time>2021-08-11T17:40:40.000Z</Time>
            <Position>
              <LatitudeDegrees>43.3084486238658428192138671875</LatitudeDegrees>
              <LongitudeDegrees>-1.9538538157939910888671875</LongitudeDegrees>
            </Position>
            <AltitudeMeters>104</AltitudeMeters>
            <DistanceMeters>NAN</DistanceMeters>
          </Trackpoint>
          <Trackpoint>
            <Time>2021-08-11T17:40:41.000Z</Time>
            <Position>
              <LatitudeDegrees>43.30844082869589328765869140625</LatitudeDegrees>
              <LongitudeDegrees>-1.9539235532283782958984375</LongitudeDegrees>
            </Position>
            <AltitudeMeters>103</AltitudeMeters>
            <DistanceMeters>NAN</DistanceMeters>
          </Trackpoint>
          <Trackpoint>
            <Time>2021-08-11T17:40:42.000Z</Time>
            <Position>
              <LatitudeDegrees>43.30843797884881496429443359375</LatitudeDegrees>
              <LongitudeDegrees>-1.9539944641292095184326171875</LongitudeDegrees>
            </Position>
            <AltitudeMeters>102.8000030517578125</AltitudeMeters>
            <DistanceMeters>NAN</DistanceMeters>
          </Trackpoint>
          <Trackpoint>
            <Time>2021-08-11T17:40:43.000Z</Time>
            <Position>
              <LatitudeDegrees>43.30843864940106868743896484375</LatitudeDegrees>
              <LongitudeDegrees>-1.95406260900199413299560546875</LongitudeDegrees>
            </Position>
            <AltitudeMeters>101.59999847412109375</AltitudeMeters>
            <DistanceMeters>NAN</DistanceMeters>
          </Trackpoint>
          <Trackpoint>
            <Time>2021-08-11T17:40:44.000Z</Time>
            <Position>
              <LatitudeDegrees>43.30844082869589328765869140625</LatitudeDegrees>
              <LongitudeDegrees>-1.95412681438028812408447265625</LongitudeDegrees>
            </Position>
            <AltitudeMeters>101.40000152587890625</AltitudeMeters>
            <DistanceMeters>NAN</DistanceMeters>
          </Trackpoint>
          <Trackpoint>
            <Time>2021-08-11T17:40:45.000Z</Time>
            <Position>
              <LatitudeDegrees>43.30843999050557613372802734375</LatitudeDegrees>
              <LongitudeDegrees>-1.95418615825474262237548828125</LongitudeDegrees>
            </Position>
            <AltitudeMeters>100</AltitudeMeters>
            <DistanceMeters>NAN</DistanceMeters>
          </Trackpoint>
          <Trackpoint>
            <Time>2021-08-11T17:40:46.000Z</Time>
            <Position>
              <LatitudeDegrees>43.3084352128207683563232421875</LatitudeDegrees>
              <LongitudeDegrees>-1.954246424138545989990234375</LongitudeDegrees>
            </Position>
            <AltitudeMeters>99.59999847412109375</AltitudeMeters>
            <DistanceMeters>NAN</DistanceMeters>
          </Trackpoint>
          <Trackpoint>
            <Time>2021-08-11T17:40:47.000Z</Time>
            <Position>
              <LatitudeDegrees>43.30842557363212108612060546875</LatitudeDegrees>
              <LongitudeDegrees>-1.95431171916425228118896484375</LongitudeDegrees>
            </Position>
            <AltitudeMeters>98.40000152587890625</AltitudeMeters>
            <DistanceMeters>NAN</DistanceMeters>
          </Trackpoint>
          <Trackpoint>
            <Time>2021-08-11T17:40:48.000Z</Time>
            <Position>
              <LatitudeDegrees>43.3084174431860446929931640625</LatitudeDegrees>
              <LongitudeDegrees>-1.95438045077025890350341796875</LongitudeDegrees>
            </Position>
            <AltitudeMeters>97.40000152587890625</AltitudeMeters>
            <DistanceMeters>NAN</DistanceMeters>
          </Trackpoint>
          <Trackpoint>
            <Time>2021-08-11T17:40:49.000Z</Time>
            <Position>
              <LatitudeDegrees>43.3083976618945598602294921875</LatitudeDegrees>
              <LongitudeDegrees>-1.9544497691094875335693359375</LongitudeDegrees>
            </Position>
            <AltitudeMeters>97</AltitudeMeters>
            <DistanceMeters>NAN</DistanceMeters>
          </Trackpoint>
          <Trackpoint>
            <Time>2021-08-11T17:40:50.000Z</Time>
            <Position>
              <LatitudeDegrees>43.30837394110858440399169921875</LatitudeDegrees>
              <LongitudeDegrees>-1.954515986144542694091796875</LongitudeDegrees>
            </Position>
            <AltitudeMeters>95.8000030517578125</AltitudeMeters>
            <DistanceMeters>NAN</DistanceMeters>
          </Trackpoint>
          <Trackpoint>
            <Time>2021-08-11T17:40:51.000Z</Time>
            <Position>
              <LatitudeDegrees>43.30834728665649890899658203125</LatitudeDegrees>
              <LongitudeDegrees>-1.95457465946674346923828125</LongitudeDegrees>
            </Position>
            <AltitudeMeters>95.40000152587890625</AltitudeMeters>
            <DistanceMeters>NAN</DistanceMeters>
          </Trackpoint>
          <Trackpoint>
            <Time>2021-08-11T17:40:52.000Z</Time>
            <Position>
              <LatitudeDegrees>43.3083192072808742523193359375</LatitudeDegrees>
              <LongitudeDegrees>-1.9546365179121494293212890625</LongitudeDegrees>
            </Position>
            <AltitudeMeters>94.59999847412109375</AltitudeMeters>
            <DistanceMeters>NAN</DistanceMeters>
          </Trackpoint>
          <Trackpoint>
            <Time>2021-08-11T17:40:54.000Z</Time>
            <Position>
              <LatitudeDegrees>43.30825508572161197662353515625</LatitudeDegrees>
              <LongitudeDegrees>-1.95476735942065715789794921875</LongitudeDegrees>
            </Position>
            <AltitudeMeters>93</AltitudeMeters>
            <DistanceMeters>NAN</DistanceMeters>
          </Trackpoint>
          <Trackpoint>
            <Time>2021-08-11T17:40:55.000Z</Time>
            <Position>
              <LatitudeDegrees>43.30821921117603778839111328125</LatitudeDegrees>
              <LongitudeDegrees>-1.95482988841831684112548828125</LongitudeDegrees>
            </Position>
            <AltitudeMeters>92.1999969482421875</AltitudeMeters>
            <DistanceMeters>NAN</DistanceMeters>
          </Trackpoint>
          <Trackpoint>
            <Time>2021-08-11T17:40:56.000Z</Time>
            <Position>
              <LatitudeDegrees>43.30819456838071346282958984375</LatitudeDegrees>
              <LongitudeDegrees>-1.9548795931041240692138671875</LongitudeDegrees>
            </Position>
            <AltitudeMeters>91.59999847412109375</AltitudeMeters>
            <DistanceMeters>NAN</DistanceMeters>
          </Trackpoint>
          <Trackpoint>
            <Time>2021-08-11T17:40:57.000Z</Time>
            <Position>
              <LatitudeDegrees>43.3081750385463237762451171875</LatitudeDegrees>
              <LongitudeDegrees>-1.95493063889443874359130859375</LongitudeDegrees>
            </Position>
            <AltitudeMeters>90.1999969482421875</AltitudeMeters>
            <DistanceMeters>NAN</DistanceMeters>
          </Trackpoint>
          <Trackpoint>
            <Time>2021-08-11T17:40:58.000Z</Time>
            <Position>
              <LatitudeDegrees>43.30817361362278461456298828125</LatitudeDegrees>
              <LongitudeDegrees>-1.95497305132448673248291015625</LongitudeDegrees>
            </Position>
            <AltitudeMeters>89.59999847412109375</AltitudeMeters>
            <DistanceMeters>NAN</DistanceMeters>
          </Trackpoint>
          <Trackpoint>
            <Time>2021-08-11T17:40:59.000Z</Time>
            <Position>
              <LatitudeDegrees>43.3081622980535030364990234375</LatitudeDegrees>
              <LongitudeDegrees>-1.95501990616321563720703125</LongitudeDegrees>
            </Position>
            <AltitudeMeters>88.59999847412109375</AltitudeMeters>
            <DistanceMeters>NAN</DistanceMeters>
          </Trackpoint>
          <Trackpoint>
            <Time>2021-08-11T17:41:00.000Z</Time>
            <Position>
              <LatitudeDegrees>43.30814729444682598114013671875</LatitudeDegrees>
              <LongitudeDegrees>-1.95507246069610118865966796875</LongitudeDegrees>
            </Position>
            <AltitudeMeters>88.1999969482421875</AltitudeMeters>
            <DistanceMeters>NAN</DistanceMeters>
          </Trackpoint>
          <Trackpoint>
            <Time>2021-08-11T17:41:01.000Z</Time>
            <Position>
              <LatitudeDegrees>43.308127932250499725341796875</LatitudeDegrees>
              <LongitudeDegrees>-1.95511889643967151641845703125</LongitudeDegrees>
            </Position>
            <AltitudeMeters>87.40000152587890625</AltitudeMeters>
            <DistanceMeters>NAN</DistanceMeters>
          </Trackpoint>
          <Trackpoint>
            <Time>2021-08-11T17:41:02.000Z</Time>
            <Position>
              <LatitudeDegrees>43.3081068098545074462890625</LatitudeDegrees>
              <LongitudeDegrees>-1.95516248233616352081298828125</LongitudeDegrees>
            </Position>
            <AltitudeMeters>86.59999847412109375</AltitudeMeters>
            <DistanceMeters>NAN</DistanceMeters>
          </Trackpoint>
          <Trackpoint>
            <Time>2021-08-11T17:41:03.000Z</Time>
            <Position>
              <LatitudeDegrees>43.30808795057237148284912109375</LatitudeDegrees>
              <LongitudeDegrees>-1.9552088342607021331787109375</LongitudeDegrees>
            </Position>
            <AltitudeMeters>86.1999969482421875</AltitudeMeters>
            <DistanceMeters>NAN</DistanceMeters>
          </Trackpoint>
          <Trackpoint>
            <Time>2021-08-11T17:41:04.000Z</Time>
            <Position>
              <LatitudeDegrees>43.3080660738050937652587890625</LatitudeDegrees>
              <LongitudeDegrees>-1.95525216870009899139404296875</LongitudeDegrees>
            </Position>
            <AltitudeMeters>85.40000152587890625</AltitudeMeters>
            <DistanceMeters>NAN</DistanceMeters>
          </Trackpoint>
          <Trackpoint>
            <Time>2021-08-11T17:41:05.000Z</Time>
            <Position>
              <LatitudeDegrees>43.30804151482880115509033203125</LatitudeDegrees>
              <LongitudeDegrees>-1.9552946649491786956787109375</LongitudeDegrees>
            </Position>
            <AltitudeMeters>84.8000030517578125</AltitudeMeters>
            <DistanceMeters>NAN</DistanceMeters>
          </Trackpoint>
          <Trackpoint>
            <Time>2021-08-11T17:41:07.000Z</Time>
            <Position>
              <LatitudeDegrees>43.30799273215234279632568359375</LatitudeDegrees>
              <LongitudeDegrees>-1.955381669104099273681640625</LongitudeDegrees>
            </Position>
            <AltitudeMeters>83.40000152587890625</AltitudeMeters>
            <DistanceMeters>NAN</DistanceMeters>
          </Trackpoint>
          <Trackpoint>
            <Time>2021-08-11T17:41:08.000Z</Time>
            <Position>
              <LatitudeDegrees>43.307972364127635955810546875</LatitudeDegrees>
              <LongitudeDegrees>-1.95541419088840484619140625</LongitudeDegrees>
            </Position>
            <AltitudeMeters>83</AltitudeMeters>
            <DistanceMeters>NAN</DistanceMeters>
          </Trackpoint>
          <Trackpoint>
            <Time>2021-08-11T17:41:09.000Z</Time>
            <Position>
              <LatitudeDegrees>43.30794948153197765350341796875</LatitudeDegrees>
              <LongitudeDegrees>-1.95543296635150909423828125</LongitudeDegrees>
            </Position>
            <AltitudeMeters>82.1999969482421875</AltitudeMeters>
            <DistanceMeters>NAN</DistanceMeters>
          </Trackpoint>
          <Trackpoint>
            <Time>2021-08-11T17:41:10.000Z</Time>
            <Position>
              <LatitudeDegrees>43.30793472938239574432373046875</LatitudeDegrees>
              <LongitudeDegrees>-1.95544763468205928802490234375</LongitudeDegrees>
            </Position>
            <AltitudeMeters>81.8000030517578125</AltitudeMeters>
            <DistanceMeters>NAN</DistanceMeters>
          </Trackpoint>
          <Trackpoint>
            <Time>2021-08-11T17:41:11.000Z</Time>
            <Position>
              <LatitudeDegrees>43.30791302025318145751953125</LatitudeDegrees>
              <LongitudeDegrees>-1.9554700143635272979736328125</LongitudeDegrees>
            </Position>
            <AltitudeMeters>80.59999847412109375</AltitudeMeters>
            <DistanceMeters>NAN</DistanceMeters>
          </Trackpoint>
          <Trackpoint>
            <Time>2021-08-11T17:41:12.000Z</Time>
            <Position>
              <LatitudeDegrees>43.307895921170711517333984375</LatitudeDegrees>
              <LongitudeDegrees>-1.9554881192743778228759765625</LongitudeDegrees>
            </Position>
            <AltitudeMeters>80</AltitudeMeters>
            <DistanceMeters>NAN</DistanceMeters>
          </Trackpoint>
          <Trackpoint>
            <Time>2021-08-11T17:41:13.000Z</Time>
            <Position>
              <LatitudeDegrees>43.30788217484951019287109375</LatitudeDegrees>
              <LongitudeDegrees>-1.95550764910876750946044921875</LongitudeDegrees>
            </Position>
            <AltitudeMeters>79.1999969482421875</AltitudeMeters>
            <DistanceMeters>NAN</DistanceMeters>
          </Trackpoint>
          <Trackpoint>
            <Time>2021-08-11T17:41:15.000Z</Time>
            <Position>
              <LatitudeDegrees>43.307845629751682281494140625</LatitudeDegrees>
              <LongitudeDegrees>-1.9555462896823883056640625</LongitudeDegrees>
            </Position>
            <AltitudeMeters>78</AltitudeMeters>
            <DistanceMeters>NAN</DistanceMeters>
          </Trackpoint>
          <Trackpoint>
            <Time>2021-08-11T17:41:16.000Z</Time>
            <Position>
              <LatitudeDegrees>43.3078199811279773712158203125</LatitudeDegrees>
              <LongitudeDegrees>-1.95556414313614368438720703125</LongitudeDegrees>
            </Position>
            <AltitudeMeters>77.40000152587890625</AltitudeMeters>
            <DistanceMeters>NAN</DistanceMeters>
          </Trackpoint>
          <Trackpoint>
            <Time>2021-08-11T17:41:17.000Z</Time>
            <Position>
              <LatitudeDegrees>43.30780665390193462371826171875</LatitudeDegrees>
              <LongitudeDegrees>-1.9555679149925708770751953125</LongitudeDegrees>
            </Position>
            <AltitudeMeters>77.1999969482421875</AltitudeMeters>
            <DistanceMeters>NAN</DistanceMeters>
          </Trackpoint>
          <Trackpoint>
            <Time>2021-08-11T17:41:18.000Z</Time>
            <Position>
              <LatitudeDegrees>43.307802379131317138671875</LatitudeDegrees>
              <LongitudeDegrees>-1.9555545039474964141845703125</LongitudeDegrees>
            </Position>
            <AltitudeMeters>76.59999847412109375</AltitudeMeters>
            <DistanceMeters>NAN</DistanceMeters>
          </Trackpoint>
          <Trackpoint>
            <Time>2021-08-11T17:41:19.000Z</Time>
            <Position>
              <LatitudeDegrees>43.307806067168712615966796875</LatitudeDegrees>
              <LongitudeDegrees>-1.955542601644992828369140625</LongitudeDegrees>
            </Position>
            <AltitudeMeters>76.40000152587890625</AltitudeMeters>
            <DistanceMeters>NAN</DistanceMeters>
          </Trackpoint>
          <Trackpoint>
            <Time>2021-08-11T17:41:20.000Z</Time>
            <Position>
              <LatitudeDegrees>43.3077985234558582305908203125</LatitudeDegrees>
              <LongitudeDegrees>-1.95553623139858245849609375</LongitudeDegrees>
            </Position>
            <AltitudeMeters>76.1999969482421875</AltitudeMeters>
            <DistanceMeters>NAN</DistanceMeters>
          </Trackpoint>
          <Trackpoint>
            <Time>2021-08-11T17:41:21.000Z</Time>
            <Position>
              <LatitudeDegrees>43.30779768526554107666015625</LatitudeDegrees>
              <LongitudeDegrees>-1.95552860386669635772705078125</LongitudeDegrees>
            </Position>
            <AltitudeMeters>76</AltitudeMeters>
            <DistanceMeters>NAN</DistanceMeters>
          </Trackpoint>
          <Trackpoint>
            <Time>2021-08-11T17:41:22.000Z</Time>
            <Position>
              <LatitudeDegrees>43.307796008884906768798828125</LatitudeDegrees>
              <LongitudeDegrees>-1.955519132316112518310546875</LongitudeDegrees>
            </Position>
            <AltitudeMeters>76</AltitudeMeters>
            <DistanceMeters>NAN</DistanceMeters>
          </Trackpoint>
          <Trackpoint>
            <Time>2021-08-11T17:41:23.000Z</Time>
            <Position>
              <LatitudeDegrees>43.30779642798006534576416015625</LatitudeDegrees>
              <LongitudeDegrees>-1.955515779554843902587890625</LongitudeDegrees>
            </Position>
            <AltitudeMeters>75.8000030517578125</AltitudeMeters>
            <DistanceMeters>NAN</DistanceMeters>
          </Trackpoint>
          <Trackpoint>
            <Time>2021-08-11T17:41:24.000Z</Time>
            <Position>
              <LatitudeDegrees>43.30779642798006534576416015625</LatitudeDegrees>
              <LongitudeDegrees>-1.95551075041294097900390625</LongitudeDegrees>
            </Position>
            <AltitudeMeters>75.8000030517578125</AltitudeMeters>
            <DistanceMeters>NAN</DistanceMeters>
          </Trackpoint>
          <Trackpoint>
            <Time>2021-08-11T17:41:25.000Z</Time>
            <Position>
              <LatitudeDegrees>43.30779626034200191497802734375</LatitudeDegrees>
              <LongitudeDegrees>-1.95550002157688140869140625</LongitudeDegrees>
            </Position>
            <AltitudeMeters>75.8000030517578125</AltitudeMeters>
            <DistanceMeters>NAN</DistanceMeters>
          </Trackpoint>
          <Trackpoint>
            <Time>2021-08-11T17:41:26.000Z</Time>
            <Position>
              <LatitudeDegrees>43.3077971823513507843017578125</LatitudeDegrees>
              <LongitudeDegrees>-1.95549021475017070770263671875</LongitudeDegrees>
            </Position>
            <AltitudeMeters>75.8000030517578125</AltitudeMeters>
            <DistanceMeters>NAN</DistanceMeters>
          </Trackpoint>
          <Trackpoint>
            <Time>2021-08-11T17:41:27.000Z</Time>
            <Position>
              <LatitudeDegrees>43.307797349989414215087890625</LatitudeDegrees>
              <LongitudeDegrees>-1.9554805755615234375</LongitudeDegrees>
            </Position>
            <AltitudeMeters>75.8000030517578125</AltitudeMeters>
            <DistanceMeters>NAN</DistanceMeters>
          </Trackpoint>
          <Trackpoint>
            <Time>2021-08-11T17:41:28.000Z</Time>
            <Position>
              <LatitudeDegrees>43.3077951706945896148681640625</LatitudeDegrees>
              <LongitudeDegrees>-1.95547579787671566009521484375</LongitudeDegrees>
            </Position>
            <AltitudeMeters>75.8000030517578125</AltitudeMeters>
            <DistanceMeters>NAN</DistanceMeters>
          </Trackpoint>
          <Trackpoint>
            <Time>2021-08-11T17:41:30.000Z</Time>
            <Position>
              <LatitudeDegrees>43.3077814243733882904052734375</LatitudeDegrees>
              <LongitudeDegrees>-1.9554824195802211761474609375</LongitudeDegrees>
            </Position>
            <AltitudeMeters>75.8000030517578125</AltitudeMeters>
            <DistanceMeters>NAN</DistanceMeters>
          </Trackpoint>
          <Trackpoint>
            <Time>2021-08-11T17:41:31.000Z</Time>
            <Position>
              <LatitudeDegrees>43.3077673427760601043701171875</LatitudeDegrees>
              <LongitudeDegrees>-1.95548015646636486053466796875</LongitudeDegrees>
            </Position>
            <AltitudeMeters>75.8000030517578125</AltitudeMeters>
            <DistanceMeters>NAN</DistanceMeters>
          </Trackpoint>
          <Trackpoint>
            <Time>2021-08-11T17:41:34.000Z</Time>
            <Position>
              <LatitudeDegrees>43.30771763809025287628173828125</LatitudeDegrees>
              <LongitudeDegrees>-1.9554197229444980621337890625</LongitudeDegrees>
            </Position>
            <AltitudeMeters>75.59999847412109375</AltitudeMeters>
            <DistanceMeters>NAN</DistanceMeters>
          </Trackpoint>
          <Trackpoint>
            <Time>2021-08-11T17:41:35.000Z</Time>
            <Position>
              <LatitudeDegrees>43.30770087428390979766845703125</LatitudeDegrees>
              <LongitudeDegrees>-1.95540614426136016845703125</LongitudeDegrees>
            </Position>
            <AltitudeMeters>75.59999847412109375</AltitudeMeters>
            <DistanceMeters>NAN</DistanceMeters>
          </Trackpoint>
          <Trackpoint>
            <Time>2021-08-11T17:41:36.000Z</Time>
            <Position>
              <LatitudeDegrees>43.307679332792758941650390625</LatitudeDegrees>
              <LongitudeDegrees>-1.95539516396820545196533203125</LongitudeDegrees>
            </Position>
            <AltitudeMeters>75.59999847412109375</AltitudeMeters>
            <DistanceMeters>NAN</DistanceMeters>
          </Trackpoint>
          <Trackpoint>
            <Time>2021-08-11T17:41:37.000Z</Time>
            <Position>
              <LatitudeDegrees>43.30765561200678348541259765625</LatitudeDegrees>
              <LongitudeDegrees>-1.95538334548473358154296875</LongitudeDegrees>
            </Position>
            <AltitudeMeters>75.40000152587890625</AltitudeMeters>
            <DistanceMeters>NAN</DistanceMeters>
          </Trackpoint>
          <Trackpoint>
            <Time>2021-08-11T17:41:38.000Z</Time>
            <Position>
              <LatitudeDegrees>43.3076261915266513824462890625</LatitudeDegrees>
              <LongitudeDegrees>-1.95536415092647075653076171875</LongitudeDegrees>
            </Position>
            <AltitudeMeters>75.40000152587890625</AltitudeMeters>
            <DistanceMeters>NAN</DistanceMeters>
          </Trackpoint>
          <Trackpoint>
            <Time>2021-08-11T17:41:39.000Z</Time>
            <Position>
              <LatitudeDegrees>43.307604230940341949462890625</LatitudeDegrees>
              <LongitudeDegrees>-1.95533196441829204559326171875</LongitudeDegrees>
            </Position>
            <AltitudeMeters>75.1999969482421875</AltitudeMeters>
            <DistanceMeters>NAN</DistanceMeters>
          </Trackpoint>
          <Trackpoint>
            <Time>2021-08-11T17:41:40.000Z</Time>
            <Position>
              <LatitudeDegrees>43.30759392119944095611572265625</LatitudeDegrees>
              <LongitudeDegrees>-1.9552953355014324188232421875</LongitudeDegrees>
            </Position>
            <AltitudeMeters>75.1999969482421875</AltitudeMeters>
            <DistanceMeters>NAN</DistanceMeters>
          </Trackpoint>
          <Trackpoint>
            <Time>2021-08-11T17:41:41.000Z</Time>
            <Position>
              <LatitudeDegrees>43.30759358592331409454345703125</LatitudeDegrees>
              <LongitudeDegrees>-1.95526205934584140777587890625</LongitudeDegrees>
            </Position>
            <AltitudeMeters>75.1999969482421875</AltitudeMeters>
            <DistanceMeters>NAN</DistanceMeters>
          </Trackpoint>
          <Trackpoint>
            <Time>2021-08-11T17:41:42.000Z</Time>
            <Position>
              <LatitudeDegrees>43.30759576521813869476318359375</LatitudeDegrees>
              <LongitudeDegrees>-1.95522987283766269683837890625</LongitudeDegrees>
            </Position>
            <AltitudeMeters>75</AltitudeMeters>
            <DistanceMeters>NAN</DistanceMeters>
          </Trackpoint>
          <Trackpoint>
            <Time>2021-08-11T17:41:43.000Z</Time>
            <Position>
              <LatitudeDegrees>43.307595513761043548583984375</LatitudeDegrees>
              <LongitudeDegrees>-1.9551970995962619781494140625</LongitudeDegrees>
            </Position>
            <AltitudeMeters>75</AltitudeMeters>
            <DistanceMeters>NAN</DistanceMeters>
          </Trackpoint>
          <Trackpoint>
            <Time>2021-08-11T17:41:44.000Z</Time>
            <Position>
              <LatitudeDegrees>43.30759442411363124847412109375</LatitudeDegrees>
              <LongitudeDegrees>-1.95516449399292469024658203125</LongitudeDegrees>
            </Position>
            <AltitudeMeters>75</AltitudeMeters>
            <DistanceMeters>NAN</DistanceMeters>
          </Trackpoint>
          <Trackpoint>
            <Time>2021-08-11T17:41:45.000Z</Time>
            <Position>
              <LatitudeDegrees>43.30759140662848949432373046875</LatitudeDegrees>
              <LongitudeDegrees>-1.9551303796470165252685546875</LongitudeDegrees>
            </Position>
            <AltitudeMeters>75</AltitudeMeters>
            <DistanceMeters>NAN</DistanceMeters>
          </Trackpoint>
          <Trackpoint>
            <Time>2021-08-11T17:41:47.000Z</Time>
            <Position>
              <LatitudeDegrees>43.30759794451296329498291015625</LatitudeDegrees>
              <LongitudeDegrees>-1.9550581276416778564453125</LongitudeDegrees>
            </Position>
            <AltitudeMeters>75</AltitudeMeters>
            <DistanceMeters>NAN</DistanceMeters>
          </Trackpoint>
          <Trackpoint>
            <Time>2021-08-11T17:41:48.000Z</Time>
            <Position>
              <LatitudeDegrees>43.30760951153934001922607421875</LatitudeDegrees>
              <LongitudeDegrees>-1.95503038354218006134033203125</LongitudeDegrees>
            </Position>
            <AltitudeMeters>75.1999969482421875</AltitudeMeters>
            <DistanceMeters>NAN</DistanceMeters>
          </Trackpoint>
          <Trackpoint>
            <Time>2021-08-11T17:41:49.000Z</Time>
            <Position>
              <LatitudeDegrees>43.3076235093176364898681640625</LatitudeDegrees>
              <LongitudeDegrees>-1.95501395501196384429931640625</LongitudeDegrees>
            </Position>
            <AltitudeMeters>75.1999969482421875</AltitudeMeters>
            <DistanceMeters>NAN</DistanceMeters>
          </Trackpoint>
          <Trackpoint>
            <Time>2021-08-11T17:41:50.000Z</Time>
            <Position>
              <LatitudeDegrees>43.30763985402882099151611328125</LatitudeDegrees>
              <LongitudeDegrees>-1.9550100155174732208251953125</LongitudeDegrees>
            </Position>
            <AltitudeMeters>75.40000152587890625</AltitudeMeters>
            <DistanceMeters>NAN</DistanceMeters>
          </Trackpoint>
          <Trackpoint>
            <Time>2021-08-11T17:41:51.000Z</Time>
            <Position>
              <LatitudeDegrees>43.307651169598102569580078125</LatitudeDegrees>
              <LongitudeDegrees>-1.9550125300884246826171875</LongitudeDegrees>
            </Position>
            <AltitudeMeters>75.59999847412109375</AltitudeMeters>
            <DistanceMeters>NAN</DistanceMeters>
          </Trackpoint>
          <Trackpoint>
            <Time>2021-08-11T17:41:52.000Z</Time>
            <Position>
              <LatitudeDegrees>43.3076644130051136016845703125</LatitudeDegrees>
              <LongitudeDegrees>-1.95501378737390041351318359375</LongitudeDegrees>
            </Position>
            <AltitudeMeters>75.59999847412109375</AltitudeMeters>
            <DistanceMeters>NAN</DistanceMeters>
          </Trackpoint>
          <Trackpoint>
            <Time>2021-08-11T17:41:53.000Z</Time>
            <Position>
              <LatitudeDegrees>43.3076771534979343414306640625</LatitudeDegrees>
              <LongitudeDegrees>-1.95501512847840785980224609375</LongitudeDegrees>
            </Position>
            <AltitudeMeters>75.8000030517578125</AltitudeMeters>
            <DistanceMeters>NAN</DistanceMeters>
          </Trackpoint>
          <Trackpoint>
            <Time>2021-08-11T17:41:54.000Z</Time>
            <Position>
              <LatitudeDegrees>43.307690732181072235107421875</LatitudeDegrees>
              <LongitudeDegrees>-1.95501965470612049102783203125</LongitudeDegrees>
            </Position>
            <AltitudeMeters>76</AltitudeMeters>
            <DistanceMeters>NAN</DistanceMeters>
          </Trackpoint>
          <Trackpoint>
            <Time>2021-08-11T17:41:55.000Z</Time>
            <Position>
              <LatitudeDegrees>43.30770246684551239013671875</LatitudeDegrees>
              <LongitudeDegrees>-1.9550224207341670989990234375</LongitudeDegrees>
            </Position>
            <AltitudeMeters>76.1999969482421875</AltitudeMeters>
            <DistanceMeters>NAN</DistanceMeters>
          </Trackpoint>
          <Trackpoint>
            <Time>2021-08-11T17:41:56.000Z</Time>
            <Position>
              <LatitudeDegrees>43.3077136985957622528076171875</LatitudeDegrees>
              <LongitudeDegrees>-1.955022253096103668212890625</LongitudeDegrees>
            </Position>
            <AltitudeMeters>76.40000152587890625</AltitudeMeters>
            <DistanceMeters>NAN</DistanceMeters>
          </Trackpoint>
          <Trackpoint>
            <Time>2021-08-11T17:41:57.000Z</Time>
            <Position>
              <LatitudeDegrees>43.30772283487021923065185546875</LatitudeDegrees>
              <LongitudeDegrees>-1.9550178945064544677734375</LongitudeDegrees>
            </Position>
            <AltitudeMeters>76.40000152587890625</AltitudeMeters>
            <DistanceMeters>NAN</DistanceMeters>
          </Trackpoint>
          <Trackpoint>
            <Time>2021-08-11T17:41:58.000Z</Time>
            <Position>
              <LatitudeDegrees>43.3077284507453441619873046875</LatitudeDegrees>
              <LongitudeDegrees>-1.9550103507936000823974609375</LongitudeDegrees>
            </Position>
            <AltitudeMeters>76.40000152587890625</AltitudeMeters>
            <DistanceMeters>NAN</DistanceMeters>
          </Trackpoint>
          <Trackpoint>
            <Time>2021-08-11T17:41:59.000Z</Time>
            <Position>
              <LatitudeDegrees>43.30772954039275646209716796875</LatitudeDegrees>
              <LongitudeDegrees>-1.9550053216516971588134765625</LongitudeDegrees>
            </Position>
            <AltitudeMeters>76.40000152587890625</AltitudeMeters>
            <DistanceMeters>NAN</DistanceMeters>
          </Trackpoint>
          <Trackpoint>
            <Time>2021-08-11T17:42:00.000Z</Time>
            <Position>
              <LatitudeDegrees>43.30772954039275646209716796875</LatitudeDegrees>
              <LongitudeDegrees>-1.9550053216516971588134765625</LongitudeDegrees>
            </Position>
            <AltitudeMeters>76.59999847412109375</AltitudeMeters>
            <DistanceMeters>NAN</DistanceMeters>
          </Trackpoint>
          <Trackpoint>
            <Time>2021-08-11T17:42:01.000Z</Time>
            <Position>
              <LatitudeDegrees>43.30772954039275646209716796875</LatitudeDegrees>
              <LongitudeDegrees>-1.9550053216516971588134765625</LongitudeDegrees>
            </Position>
            <AltitudeMeters>76.59999847412109375</AltitudeMeters>
            <DistanceMeters>NAN</DistanceMeters>
          </Trackpoint>
          <Trackpoint>
            <Time>2021-08-11T17:42:02.000Z</Time>
            <Position>
              <LatitudeDegrees>43.3077254332602024078369140625</LatitudeDegrees>
              <LongitudeDegrees>-1.955002136528491973876953125</LongitudeDegrees>
            </Position>
            <AltitudeMeters>76.59999847412109375</AltitudeMeters>
            <DistanceMeters>NAN</DistanceMeters>
          </Trackpoint>
          <Trackpoint>
            <Time>2021-08-11T17:42:05.000Z</Time>
            <Position>
              <LatitudeDegrees>43.30772484652698040008544921875</LatitudeDegrees>
              <LongitudeDegrees>-1.95499869994819164276123046875</LongitudeDegrees>
            </Position>
            <AltitudeMeters>76.8000030517578125</AltitudeMeters>
            <DistanceMeters>NAN</DistanceMeters>
          </Trackpoint>
          <Trackpoint>
            <Time>2021-08-11T17:42:12.000Z</Time>
            <Position>
              <LatitudeDegrees>43.30772484652698040008544921875</LatitudeDegrees>
              <LongitudeDegrees>-1.95499869994819164276123046875</LongitudeDegrees>
            </Position>
            <AltitudeMeters>76.59999847412109375</AltitudeMeters>
            <DistanceMeters>NAN</DistanceMeters>
          </Trackpoint>
          <Trackpoint>
            <Time>2021-08-11T17:46:33.000Z</Time>
            <Position>
              <LatitudeDegrees>43.30769433639943599700927734375</LatitudeDegrees>
              <LongitudeDegrees>-1.95497564971446990966796875</LongitudeDegrees>
            </Position>
            <AltitudeMeters>75.1999969482421875</AltitudeMeters>
            <DistanceMeters>NAN</DistanceMeters>
          </Trackpoint>
          <Trackpoint>
            <Time>2021-08-11T17:46:34.000Z</Time>
            <Position>
              <LatitudeDegrees>43.30769333057105541229248046875</LatitudeDegrees>
              <LongitudeDegrees>-1.95497640408575534820556640625</LongitudeDegrees>
            </Position>
            <AltitudeMeters>77.1999969482421875</AltitudeMeters>
            <DistanceMeters>NAN</DistanceMeters>
          </Trackpoint>
          <Trackpoint>
            <Time>2021-08-11T17:46:39.000Z</Time>
            <Position>
              <LatitudeDegrees>43.30764773301780223846435546875</LatitudeDegrees>
              <LongitudeDegrees>-1.9550230912864208221435546875</LongitudeDegrees>
            </Position>
            <AltitudeMeters>77.59999847412109375</AltitudeMeters>
            <DistanceMeters>NAN</DistanceMeters>
          </Trackpoint>
          <Trackpoint>
            <Time>2021-08-11T17:46:40.000Z</Time>
            <Position>
              <LatitudeDegrees>43.3076409436762332916259765625</LatitudeDegrees>
              <LongitudeDegrees>-1.9550388492643833160400390625</LongitudeDegrees>
            </Position>
            <AltitudeMeters>77.59999847412109375</AltitudeMeters>
            <DistanceMeters>NAN</DistanceMeters>
          </Trackpoint>
          <Trackpoint>
            <Time>2021-08-11T17:46:41.000Z</Time>
            <Position>
              <LatitudeDegrees>43.30763750709593296051025390625</LatitudeDegrees>
              <LongitudeDegrees>-1.95505687035620212554931640625</LongitudeDegrees>
            </Position>
            <AltitudeMeters>77.1999969482421875</AltitudeMeters>
            <DistanceMeters>NAN</DistanceMeters>
          </Trackpoint>
          <Trackpoint>
            <Time>2021-08-11T17:46:42.000Z</Time>
            <Position>
              <LatitudeDegrees>43.307636417448520660400390625</LatitudeDegrees>
              <LongitudeDegrees>-1.9550757296383380889892578125</LongitudeDegrees>
            </Position>
            <AltitudeMeters>77</AltitudeMeters>
            <DistanceMeters>NAN</DistanceMeters>
          </Trackpoint>
          <Trackpoint>
            <Time>2021-08-11T17:46:43.000Z</Time>
            <Position>
              <LatitudeDegrees>43.30763549543917179107666015625</LatitudeDegrees>
              <LongitudeDegrees>-1.9550985284149646759033203125</LongitudeDegrees>
            </Position>
            <AltitudeMeters>77</AltitudeMeters>
            <DistanceMeters>NAN</DistanceMeters>
          </Trackpoint>
          <Trackpoint>
            <Time>2021-08-11T17:46:44.000Z</Time>
            <Position>
              <LatitudeDegrees>43.30764035694301128387451171875</LatitudeDegrees>
              <LongitudeDegrees>-1.9551216624677181243896484375</LongitudeDegrees>
            </Position>
            <AltitudeMeters>77.1999969482421875</AltitudeMeters>
            <DistanceMeters>NAN</DistanceMeters>
          </Trackpoint>
          <Trackpoint>
            <Time>2021-08-11T17:46:45.000Z</Time>
            <Position>
              <LatitudeDegrees>43.307652175426483154296875</LatitudeDegrees>
              <LongitudeDegrees>-1.95515795610845088958740234375</LongitudeDegrees>
            </Position>
            <AltitudeMeters>77.40000152587890625</AltitudeMeters>
            <DistanceMeters>NAN</DistanceMeters>
          </Trackpoint>
          <Trackpoint>
            <Time>2021-08-11T17:46:46.000Z</Time>
            <Position>
              <LatitudeDegrees>43.30765611492097377777099609375</LatitudeDegrees>
              <LongitudeDegrees>-1.9551833532750606536865234375</LongitudeDegrees>
            </Position>
            <AltitudeMeters>77.40000152587890625</AltitudeMeters>
            <DistanceMeters>NAN</DistanceMeters>
          </Trackpoint>
          <Trackpoint>
            <Time>2021-08-11T17:46:49.000Z</Time>
            <Position>
              <LatitudeDegrees>43.30765510909259319305419921875</LatitudeDegrees>
              <LongitudeDegrees>-1.95527312345802783966064453125</LongitudeDegrees>
            </Position>
            <AltitudeMeters>76.8000030517578125</AltitudeMeters>
            <DistanceMeters>NAN</DistanceMeters>
          </Trackpoint>
          <Trackpoint>
            <Time>2021-08-11T17:46:50.000Z</Time>
            <Position>
              <LatitudeDegrees>43.30765821039676666259765625</LatitudeDegrees>
              <LongitudeDegrees>-1.9553089141845703125</LongitudeDegrees>
            </Position>
            <AltitudeMeters>76.8000030517578125</AltitudeMeters>
            <DistanceMeters>NAN</DistanceMeters>
          </Trackpoint>
          <Trackpoint>
            <Time>2021-08-11T17:46:51.000Z</Time>
            <Position>
              <LatitudeDegrees>43.30766298808157444000244140625</LatitudeDegrees>
              <LongitudeDegrees>-1.955333054065704345703125</LongitudeDegrees>
            </Position>
            <AltitudeMeters>76.59999847412109375</AltitudeMeters>
            <DistanceMeters>NAN</DistanceMeters>
          </Trackpoint>
          <Trackpoint>
            <Time>2021-08-11T17:46:55.000Z</Time>
            <Position>
              <LatitudeDegrees>43.30768327228724956512451171875</LatitudeDegrees>
              <LongitudeDegrees>-1.9554726965725421905517578125</LongitudeDegrees>
            </Position>
            <AltitudeMeters>76</AltitudeMeters>
            <DistanceMeters>NAN</DistanceMeters>
          </Trackpoint>
          <Trackpoint>
            <Time>2021-08-11T17:46:57.000Z</Time>
            <Position>
              <LatitudeDegrees>43.3076949231326580047607421875</LatitudeDegrees>
              <LongitudeDegrees>-1.955545283854007720947265625</LongitudeDegrees>
            </Position>
            <AltitudeMeters>75.59999847412109375</AltitudeMeters>
            <DistanceMeters>NAN</DistanceMeters>
          </Trackpoint>
          <Trackpoint>
            <Time>2021-08-11T17:46:58.000Z</Time>
            <Position>
              <LatitudeDegrees>43.30770238302648067474365234375</LatitudeDegrees>
              <LongitudeDegrees>-1.95557587780058383941650390625</LongitudeDegrees>
            </Position>
            <AltitudeMeters>75.40000152587890625</AltitudeMeters>
            <DistanceMeters>NAN</DistanceMeters>
          </Trackpoint>
          <Trackpoint>
            <Time>2021-08-11T17:46:59.000Z</Time>
            <Position>
              <LatitudeDegrees>43.30771051347255706787109375</LatitudeDegrees>
              <LongitudeDegrees>-1.95560990832746028900146484375</LongitudeDegrees>
            </Position>
            <AltitudeMeters>75.40000152587890625</AltitudeMeters>
            <DistanceMeters>NAN</DistanceMeters>
          </Trackpoint>
          <Trackpoint>
            <Time>2021-08-11T17:47:00.000Z</Time>
            <Position>
              <LatitudeDegrees>43.30772124230861663818359375</LatitudeDegrees>
              <LongitudeDegrees>-1.95564662106335163116455078125</LongitudeDegrees>
            </Position>
            <AltitudeMeters>75</AltitudeMeters>
            <DistanceMeters>NAN</DistanceMeters>
          </Trackpoint>
          <Trackpoint>
            <Time>2021-08-11T17:47:01.000Z</Time>
            <Position>
              <LatitudeDegrees>43.30772954039275646209716796875</LatitudeDegrees>
              <LongitudeDegrees>-1.955684088170528411865234375</LongitudeDegrees>
            </Position>
            <AltitudeMeters>75</AltitudeMeters>
            <DistanceMeters>NAN</DistanceMeters>
          </Trackpoint>
          <Trackpoint>
            <Time>2021-08-11T17:47:04.000Z</Time>
            <Position>
              <LatitudeDegrees>43.30775083042681217193603515625</LatitudeDegrees>
              <LongitudeDegrees>-1.95579766295850276947021484375</LongitudeDegrees>
            </Position>
            <AltitudeMeters>74.40000152587890625</AltitudeMeters>
            <DistanceMeters>NAN</DistanceMeters>
          </Trackpoint>
          <Trackpoint>
            <Time>2021-08-11T17:47:06.000Z</Time>
            <Position>
              <LatitudeDegrees>43.30773465335369110107421875</LatitudeDegrees>
              <LongitudeDegrees>-1.955879889428615570068359375</LongitudeDegrees>
            </Position>
            <AltitudeMeters>74.1999969482421875</AltitudeMeters>
            <DistanceMeters>NAN</DistanceMeters>
          </Trackpoint>
          <Trackpoint>
            <Time>2021-08-11T17:47:07.000Z</Time>
            <Position>
              <LatitudeDegrees>43.307716548442840576171875</LatitudeDegrees>
              <LongitudeDegrees>-1.95592121221125125885009765625</LongitudeDegrees>
            </Position>
            <AltitudeMeters>74</AltitudeMeters>
            <DistanceMeters>NAN</DistanceMeters>
          </Trackpoint>
          <Trackpoint>
            <Time>2021-08-11T17:47:08.000Z</Time>
            <Position>
              <LatitudeDegrees>43.307691402733325958251953125</LatitudeDegrees>
              <LongitudeDegrees>-1.95595826022326946258544921875</LongitudeDegrees>
            </Position>
            <AltitudeMeters>73.8000030517578125</AltitudeMeters>
            <DistanceMeters>NAN</DistanceMeters>
          </Trackpoint>
          <Trackpoint>
            <Time>2021-08-11T17:47:09.000Z</Time>
            <Position>
              <LatitudeDegrees>43.30766315571963787078857421875</LatitudeDegrees>
              <LongitudeDegrees>-1.95598826743662357330322265625</LongitudeDegrees>
            </Position>
            <AltitudeMeters>73.59999847412109375</AltitudeMeters>
            <DistanceMeters>NAN</DistanceMeters>
          </Trackpoint>
          <Trackpoint>
            <Time>2021-08-11T17:47:10.000Z</Time>
            <Position>
              <LatitudeDegrees>43.30763733945786952972412109375</LatitudeDegrees>
              <LongitudeDegrees>-1.9560098089277744293212890625</LongitudeDegrees>
            </Position>
            <AltitudeMeters>73.40000152587890625</AltitudeMeters>
            <DistanceMeters>NAN</DistanceMeters>
          </Trackpoint>
          <Trackpoint>
            <Time>2021-08-11T17:47:11.000Z</Time>
            <Position>
              <LatitudeDegrees>43.30761839635670185089111328125</LatitudeDegrees>
              <LongitudeDegrees>-1.956026069819927215576171875</LongitudeDegrees>
            </Position>
            <AltitudeMeters>73.1999969482421875</AltitudeMeters>
            <DistanceMeters>NAN</DistanceMeters>
          </Trackpoint>
          <Trackpoint>
            <Time>2021-08-11T17:47:12.000Z</Time>
            <Position>
              <LatitudeDegrees>43.30760481767356395721435546875</LatitudeDegrees>
              <LongitudeDegrees>-1.9560369662940502166748046875</LongitudeDegrees>
            </Position>
            <AltitudeMeters>73.1999969482421875</AltitudeMeters>
            <DistanceMeters>NAN</DistanceMeters>
          </Trackpoint>
          <Trackpoint>
            <Time>2021-08-11T17:47:13.000Z</Time>
            <Position>
              <LatitudeDegrees>43.3075913228094577789306640625</LatitudeDegrees>
              <LongitudeDegrees>-1.95605113171041011810302734375</LongitudeDegrees>
            </Position>
            <AltitudeMeters>73</AltitudeMeters>
            <DistanceMeters>NAN</DistanceMeters>
          </Trackpoint>
          <Trackpoint>
            <Time>2021-08-11T17:47:14.000Z</Time>
            <Position>
              <LatitudeDegrees>43.3075789175927639007568359375</LatitudeDegrees>
              <LongitudeDegrees>-1.95606219582259654998779296875</LongitudeDegrees>
            </Position>
            <AltitudeMeters>72.59999847412109375</AltitudeMeters>
            <DistanceMeters>NAN</DistanceMeters>
          </Trackpoint>
          <Trackpoint>
            <Time>2021-08-11T17:47:15.000Z</Time>
            <Position>
              <LatitudeDegrees>43.3075676858425140380859375</LatitudeDegrees>
              <LongitudeDegrees>-1.9560728408396244049072265625</LongitudeDegrees>
            </Position>
            <AltitudeMeters>72.59999847412109375</AltitudeMeters>
            <DistanceMeters>NAN</DistanceMeters>
          </Trackpoint>
          <Trackpoint>
            <Time>2021-08-11T17:47:16.000Z</Time>
            <Position>
              <LatitudeDegrees>43.3075561188161373138427734375</LatitudeDegrees>
              <LongitudeDegrees>-1.9560795463621616363525390625</LongitudeDegrees>
            </Position>
            <AltitudeMeters>72.1999969482421875</AltitudeMeters>
            <DistanceMeters>NAN</DistanceMeters>
          </Trackpoint>
          <Trackpoint>
            <Time>2021-08-11T17:47:18.000Z</Time>
            <Position>
              <LatitudeDegrees>43.30753524787724018096923828125</LatitudeDegrees>
              <LongitudeDegrees>-1.95608566515147686004638671875</LongitudeDegrees>
            </Position>
            <AltitudeMeters>71.8000030517578125</AltitudeMeters>
            <DistanceMeters>NAN</DistanceMeters>
          </Trackpoint>
          <Trackpoint>
            <Time>2021-08-11T17:47:19.000Z</Time>
            <Position>
              <LatitudeDegrees>43.3075246028602123260498046875</LatitudeDegrees>
              <LongitudeDegrees>-1.95608365349471569061279296875</LongitudeDegrees>
            </Position>
            <AltitudeMeters>71.59999847412109375</AltitudeMeters>
            <DistanceMeters>NAN</DistanceMeters>
          </Trackpoint>
          <Trackpoint>
            <Time>2021-08-11T17:47:20.000Z</Time>
            <Position>
              <LatitudeDegrees>43.3075142093002796173095703125</LatitudeDegrees>
              <LongitudeDegrees>-1.956082396209239959716796875</LongitudeDegrees>
            </Position>
            <AltitudeMeters>71.59999847412109375</AltitudeMeters>
            <DistanceMeters>NAN</DistanceMeters>
          </Trackpoint>
          <Trackpoint>
            <Time>2021-08-11T17:47:21.000Z</Time>
            <Position>
              <LatitudeDegrees>43.3075018040835857391357421875</LatitudeDegrees>
              <LongitudeDegrees>-1.95608717389404773712158203125</LongitudeDegrees>
            </Position>
            <AltitudeMeters>71.59999847412109375</AltitudeMeters>
            <DistanceMeters>NAN</DistanceMeters>
          </Trackpoint>
          <Trackpoint>
            <Time>2021-08-11T17:47:22.000Z</Time>
            <Position>
              <LatitudeDegrees>43.30749451182782649993896484375</LatitudeDegrees>
              <LongitudeDegrees>-1.9560983218252658843994140625</LongitudeDegrees>
            </Position>
            <AltitudeMeters>71.40000152587890625</AltitudeMeters>
            <DistanceMeters>NAN</DistanceMeters>
          </Trackpoint>
          <Trackpoint>
            <Time>2021-08-11T17:47:23.000Z</Time>
            <Position>
              <LatitudeDegrees>43.3074917457997798919677734375</LatitudeDegrees>
              <LongitudeDegrees>-1.95611248724162578582763671875</LongitudeDegrees>
            </Position>
            <AltitudeMeters>71.40000152587890625</AltitudeMeters>
            <DistanceMeters>NAN</DistanceMeters>
          </Trackpoint>
          <Trackpoint>
            <Time>2021-08-11T17:47:24.000Z</Time>
            <Position>
              <LatitudeDegrees>43.3074900694191455841064453125</LatitudeDegrees>
              <LongitudeDegrees>-1.9561258144676685333251953125</LongitudeDegrees>
            </Position>
            <AltitudeMeters>71.1999969482421875</AltitudeMeters>
            <DistanceMeters>NAN</DistanceMeters>
          </Trackpoint>
          <Trackpoint>
            <Time>2021-08-11T17:47:25.000Z</Time>
            <Position>
              <LatitudeDegrees>43.30748713575303554534912109375</LatitudeDegrees>
              <LongitudeDegrees>-1.9561390578746795654296875</LongitudeDegrees>
            </Position>
            <AltitudeMeters>71.1999969482421875</AltitudeMeters>
            <DistanceMeters>NAN</DistanceMeters>
          </Trackpoint>
          <Trackpoint>
            <Time>2021-08-11T17:47:26.000Z</Time>
            <Position>
              <LatitudeDegrees>43.30748311243951320648193359375</LatitudeDegrees>
              <LongitudeDegrees>-1.9561559893190860748291015625</LongitudeDegrees>
            </Position>
            <AltitudeMeters>71.1999969482421875</AltitudeMeters>
            <DistanceMeters>NAN</DistanceMeters>
          </Trackpoint>
          <Trackpoint>
            <Time>2021-08-11T17:47:28.000Z</Time>
            <Position>
              <LatitudeDegrees>43.30748386681079864501953125</LatitudeDegrees>
              <LongitudeDegrees>-1.95620452053844928741455078125</LongitudeDegrees>
            </Position>
            <AltitudeMeters>71</AltitudeMeters>
            <DistanceMeters>NAN</DistanceMeters>
          </Trackpoint>
          <Trackpoint>
            <Time>2021-08-11T17:47:29.000Z</Time>
            <Position>
              <LatitudeDegrees>43.30748227424919605255126953125</LatitudeDegrees>
              <LongitudeDegrees>-1.9562314264476299285888671875</LongitudeDegrees>
            </Position>
            <AltitudeMeters>71</AltitudeMeters>
            <DistanceMeters>NAN</DistanceMeters>
          </Trackpoint>
          <Trackpoint>
            <Time>2021-08-11T17:47:35.000Z</Time>
            <Position>
              <LatitudeDegrees>43.30750205554068088531494140625</LatitudeDegrees>
              <LongitudeDegrees>-1.95643343031406402587890625</LongitudeDegrees>
            </Position>
            <AltitudeMeters>70.59999847412109375</AltitudeMeters>
            <DistanceMeters>NAN</DistanceMeters>
          </Trackpoint>
          <Trackpoint>
            <Time>2021-08-11T17:47:36.000Z</Time>
            <Position>
              <LatitudeDegrees>43.30750398337841033935546875</LatitudeDegrees>
              <LongitudeDegrees>-1.9564728252589702606201171875</LongitudeDegrees>
            </Position>
            <AltitudeMeters>70.59999847412109375</AltitudeMeters>
            <DistanceMeters>NAN</DistanceMeters>
          </Trackpoint>
          <Trackpoint>
            <Time>2021-08-11T17:47:42.000Z</Time>
            <Position>
              <LatitudeDegrees>43.307494930922985076904296875</LatitudeDegrees>
              <LongitudeDegrees>-1.9567631743848323822021484375</LongitudeDegrees>
            </Position>
            <AltitudeMeters>69.40000152587890625</AltitudeMeters>
            <DistanceMeters>NAN</DistanceMeters>
          </Trackpoint>
          <Trackpoint>
            <Time>2021-08-11T17:47:47.000Z</Time>
            <Position>
              <LatitudeDegrees>43.30749250017106533050537109375</LatitudeDegrees>
              <LongitudeDegrees>-1.957070790231227874755859375</LongitudeDegrees>
            </Position>
            <AltitudeMeters>68.40000152587890625</AltitudeMeters>
            <DistanceMeters>NAN</DistanceMeters>
          </Trackpoint>
          <Trackpoint>
            <Time>2021-08-11T17:47:48.000Z</Time>
            <Position>
              <LatitudeDegrees>43.30749451182782649993896484375</LatitudeDegrees>
              <LongitudeDegrees>-1.95712485350668430328369140625</LongitudeDegrees>
            </Position>
            <AltitudeMeters>68.1999969482421875</AltitudeMeters>
            <DistanceMeters>NAN</DistanceMeters>
          </Trackpoint>
          <Trackpoint>
            <Time>2021-08-11T17:47:49.000Z</Time>
            <Position>
              <LatitudeDegrees>43.3074954338371753692626953125</LatitudeDegrees>
              <LongitudeDegrees>-1.95717464201152324676513671875</LongitudeDegrees>
            </Position>
            <AltitudeMeters>67.8000030517578125</AltitudeMeters>
            <DistanceMeters>NAN</DistanceMeters>
          </Trackpoint>
          <Trackpoint>
            <Time>2021-08-11T17:47:50.000Z</Time>
            <Position>
              <LatitudeDegrees>43.30749602057039737701416015625</LatitudeDegrees>
              <LongitudeDegrees>-1.95722258649766445159912109375</LongitudeDegrees>
            </Position>
            <AltitudeMeters>67.59999847412109375</AltitudeMeters>
            <DistanceMeters>NAN</DistanceMeters>
          </Trackpoint>
          <Trackpoint>
            <Time>2021-08-11T17:47:51.000Z</Time>
            <Position>
              <LatitudeDegrees>43.30748965032398700714111328125</LatitudeDegrees>
              <LongitudeDegrees>-1.95726818405091762542724609375</LongitudeDegrees>
            </Position>
            <AltitudeMeters>67</AltitudeMeters>
            <DistanceMeters>NAN</DistanceMeters>
          </Trackpoint>
          <Trackpoint>
            <Time>2021-08-11T17:47:52.000Z</Time>
            <Position>
              <LatitudeDegrees>43.3074733056128025054931640625</LatitudeDegrees>
              <LongitudeDegrees>-1.95730254985392093658447265625</LongitudeDegrees>
            </Position>
            <AltitudeMeters>66.59999847412109375</AltitudeMeters>
            <DistanceMeters>NAN</DistanceMeters>
          </Trackpoint>
          <Trackpoint>
            <Time>2021-08-11T17:47:53.000Z</Time>
            <Position>
              <LatitudeDegrees>43.3074458129703998565673828125</LatitudeDegrees>
              <LongitudeDegrees>-1.9573214091360569000244140625</LongitudeDegrees>
            </Position>
            <AltitudeMeters>66.40000152587890625</AltitudeMeters>
            <DistanceMeters>NAN</DistanceMeters>
          </Trackpoint>
          <Trackpoint>
            <Time>2021-08-11T17:47:54.000Z</Time>
            <Position>
              <LatitudeDegrees>43.30741806887090206146240234375</LatitudeDegrees>
              <LongitudeDegrees>-1.957321576774120330810546875</LongitudeDegrees>
            </Position>
            <AltitudeMeters>66</AltitudeMeters>
            <DistanceMeters>NAN</DistanceMeters>
          </Trackpoint>
          <Trackpoint>
            <Time>2021-08-11T17:47:55.000Z</Time>
            <Position>
              <LatitudeDegrees>43.30740197561681270599365234375</LatitudeDegrees>
              <LongitudeDegrees>-1.95730288513004779815673828125</LongitudeDegrees>
            </Position>
            <AltitudeMeters>65.8000030517578125</AltitudeMeters>
            <DistanceMeters>NAN</DistanceMeters>
          </Trackpoint>
          <Trackpoint>
            <Time>2021-08-11T17:47:56.000Z</Time>
            <Position>
              <LatitudeDegrees>43.30739677883684635162353515625</LatitudeDegrees>
              <LongitudeDegrees>-1.957276649773120880126953125</LongitudeDegrees>
            </Position>
            <AltitudeMeters>65.59999847412109375</AltitudeMeters>
            <DistanceMeters>NAN</DistanceMeters>
          </Trackpoint>
          <Trackpoint>
            <Time>2021-08-11T17:47:57.000Z</Time>
            <Position>
              <LatitudeDegrees>43.30739711411297321319580078125</LatitudeDegrees>
              <LongitudeDegrees>-1.95724806748330593109130859375</LongitudeDegrees>
            </Position>
            <AltitudeMeters>65.40000152587890625</AltitudeMeters>
            <DistanceMeters>NAN</DistanceMeters>
          </Trackpoint>
          <Trackpoint>
            <Time>2021-08-11T17:47:58.000Z</Time>
            <Position>
              <LatitudeDegrees>43.30739778466522693634033203125</LatitudeDegrees>
              <LongitudeDegrees>-1.95721722207963466644287109375</LongitudeDegrees>
            </Position>
            <AltitudeMeters>65</AltitudeMeters>
            <DistanceMeters>NAN</DistanceMeters>
          </Trackpoint>
          <Trackpoint>
            <Time>2021-08-11T17:47:59.000Z</Time>
            <Position>
              <LatitudeDegrees>43.30739392898976802825927734375</LatitudeDegrees>
              <LongitudeDegrees>-1.95718704722821712493896484375</LongitudeDegrees>
            </Position>
            <AltitudeMeters>64.8000030517578125</AltitudeMeters>
            <DistanceMeters>NAN</DistanceMeters>
          </Trackpoint>
          <Trackpoint>
            <Time>2021-08-11T17:48:00.000Z</Time>
            <Position>
              <LatitudeDegrees>43.30738856457173824310302734375</LatitudeDegrees>
              <LongitudeDegrees>-1.957161985337734222412109375</LongitudeDegrees>
            </Position>
            <AltitudeMeters>64.59999847412109375</AltitudeMeters>
            <DistanceMeters>NAN</DistanceMeters>
          </Trackpoint>
          <Trackpoint>
            <Time>2021-08-11T17:48:01.000Z</Time>
            <Position>
              <LatitudeDegrees>43.30738219432532787322998046875</LatitudeDegrees>
              <LongitudeDegrees>-1.9571448862552642822265625</LongitudeDegrees>
            </Position>
            <AltitudeMeters>64.40000152587890625</AltitudeMeters>
            <DistanceMeters>NAN</DistanceMeters>
          </Trackpoint>
          <Trackpoint>
            <Time>2021-08-11T17:48:02.000Z</Time>
            <Position>
              <LatitudeDegrees>43.3073784224689006805419921875</LatitudeDegrees>
              <LongitudeDegrees>-1.957131810486316680908203125</LongitudeDegrees>
            </Position>
            <AltitudeMeters>64.40000152587890625</AltitudeMeters>
            <DistanceMeters>NAN</DistanceMeters>
          </Trackpoint>
          <Trackpoint>
            <Time>2021-08-11T17:48:03.000Z</Time>
            <Position>
              <LatitudeDegrees>43.30737649463117122650146484375</LatitudeDegrees>
              <LongitudeDegrees>-1.95712267421185970306396484375</LongitudeDegrees>
            </Position>
            <AltitudeMeters>64.1999969482421875</AltitudeMeters>
            <DistanceMeters>NAN</DistanceMeters>
          </Trackpoint>
          <Trackpoint>
            <Time>2021-08-11T17:48:04.000Z</Time>
            <Position>
              <LatitudeDegrees>43.30737682990729808807373046875</LatitudeDegrees>
              <LongitudeDegrees>-1.9571180641651153564453125</LongitudeDegrees>
            </Position>
            <AltitudeMeters>64.1999969482421875</AltitudeMeters>
            <DistanceMeters>NAN</DistanceMeters>
          </Trackpoint>
          <Trackpoint>
            <Time>2021-08-11T17:48:06.000Z</Time>
            <Position>
              <LatitudeDegrees>43.30737817101180553436279296875</LatitudeDegrees>
              <LongitudeDegrees>-1.9571145437657833099365234375</LongitudeDegrees>
            </Position>
            <AltitudeMeters>64</AltitudeMeters>
            <DistanceMeters>NAN</DistanceMeters>
          </Trackpoint>
          <Trackpoint>
            <Time>2021-08-11T17:48:27.000Z</Time>
            <Position>
              <LatitudeDegrees>43.3073866367340087890625</LatitudeDegrees>
              <LongitudeDegrees>-1.95708478800952434539794921875</LongitudeDegrees>
            </Position>
            <AltitudeMeters>64</AltitudeMeters>
            <DistanceMeters>NAN</DistanceMeters>
          </Trackpoint>
          <Trackpoint>
            <Time>2021-08-11T17:48:34.000Z</Time>
            <Position>
              <LatitudeDegrees>43.30738487653434276580810546875</LatitudeDegrees>
              <LongitudeDegrees>-1.957082189619541168212890625</LongitudeDegrees>
            </Position>
            <AltitudeMeters>64</AltitudeMeters>
            <DistanceMeters>NAN</DistanceMeters>
          </Trackpoint>
          <Trackpoint>
            <Time>2021-08-11T17:48:36.000Z</Time>
            <Position>
              <LatitudeDegrees>43.3073616586625576019287109375</LatitudeDegrees>
              <LongitudeDegrees>-1.95702728815376758575439453125</LongitudeDegrees>
            </Position>
            <AltitudeMeters>64</AltitudeMeters>
            <DistanceMeters>NAN</DistanceMeters>
          </Trackpoint>
          <Trackpoint>
            <Time>2021-08-11T17:48:37.000Z</Time>
            <Position>
              <LatitudeDegrees>43.30734984017908573150634765625</LatitudeDegrees>
              <LongitudeDegrees>-1.9569948501884937286376953125</LongitudeDegrees>
            </Position>
            <AltitudeMeters>64</AltitudeMeters>
            <DistanceMeters>NAN</DistanceMeters>
          </Trackpoint>
          <Trackpoint>
            <Time>2021-08-11T17:48:38.000Z</Time>
            <Position>
              <LatitudeDegrees>43.30733626149594783782958984375</LatitudeDegrees>
              <LongitudeDegrees>-1.9569603167474269866943359375</LongitudeDegrees>
            </Position>
            <AltitudeMeters>64</AltitudeMeters>
            <DistanceMeters>NAN</DistanceMeters>
          </Trackpoint>
          <Trackpoint>
            <Time>2021-08-11T17:48:42.000Z</Time>
            <Position>
              <LatitudeDegrees>43.307283706963062286376953125</LatitudeDegrees>
              <LongitudeDegrees>-1.95681556127965450286865234375</LongitudeDegrees>
            </Position>
            <AltitudeMeters>64</AltitudeMeters>
            <DistanceMeters>NAN</DistanceMeters>
          </Trackpoint>
          <Trackpoint>
            <Time>2021-08-11T17:48:45.000Z</Time>
            <Position>
              <LatitudeDegrees>43.30724758096039295196533203125</LatitudeDegrees>
              <LongitudeDegrees>-1.95668010972440242767333984375</LongitudeDegrees>
            </Position>
            <AltitudeMeters>63.799999237060546875</AltitudeMeters>
            <DistanceMeters>NAN</DistanceMeters>
          </Trackpoint>
          <Trackpoint>
            <Time>2021-08-11T17:48:46.000Z</Time>
            <Position>
              <LatitudeDegrees>43.3072324097156524658203125</LatitudeDegrees>
              <LongitudeDegrees>-1.9566367752850055694580078125</LongitudeDegrees>
            </Position>
            <AltitudeMeters>63.799999237060546875</AltitudeMeters>
            <DistanceMeters>NAN</DistanceMeters>
          </Trackpoint>
          <Trackpoint>
            <Time>2021-08-11T17:48:47.000Z</Time>
            <Position>
              <LatitudeDegrees>43.307217322289943695068359375</LatitudeDegrees>
              <LongitudeDegrees>-1.956590004265308380126953125</LongitudeDegrees>
            </Position>
            <AltitudeMeters>63.59999847412109375</AltitudeMeters>
            <DistanceMeters>NAN</DistanceMeters>
          </Trackpoint>
          <Trackpoint>
            <Time>2021-08-11T17:48:48.000Z</Time>
            <Position>
              <LatitudeDegrees>43.30720935948193073272705078125</LatitudeDegrees>
              <LongitudeDegrees>-1.95654549635946750640869140625</LongitudeDegrees>
            </Position>
            <AltitudeMeters>63.40000152587890625</AltitudeMeters>
            <DistanceMeters>NAN</DistanceMeters>
          </Trackpoint>
          <Trackpoint>
            <Time>2021-08-11T17:48:51.000Z</Time>
            <Position>
              <LatitudeDegrees>43.3071735687553882598876953125</LatitudeDegrees>
              <LongitudeDegrees>-1.95637316443026065826416015625</LongitudeDegrees>
            </Position>
            <AltitudeMeters>62.200000762939453125</AltitudeMeters>
            <DistanceMeters>NAN</DistanceMeters>
          </Trackpoint>
          <Trackpoint>
            <Time>2021-08-11T17:48:54.000Z</Time>
            <Position>
              <LatitudeDegrees>43.307124115526676177978515625</LatitudeDegrees>
              <LongitudeDegrees>-1.95618792437016963958740234375</LongitudeDegrees>
            </Position>
            <AltitudeMeters>61</AltitudeMeters>
            <DistanceMeters>NAN</DistanceMeters>
          </Trackpoint>
          <Trackpoint>
            <Time>2021-08-11T17:48:55.000Z</Time>
            <Position>
              <LatitudeDegrees>43.3071159012615680694580078125</LatitudeDegrees>
              <LongitudeDegrees>-1.95613277144730091094970703125</LongitudeDegrees>
            </Position>
            <AltitudeMeters>60.59999847412109375</AltitudeMeters>
            <DistanceMeters>NAN</DistanceMeters>
          </Trackpoint>
          <Trackpoint>
            <Time>2021-08-11T17:48:57.000Z</Time>
            <Position>
              <LatitudeDegrees>43.30709771253168582916259765625</LatitudeDegrees>
              <LongitudeDegrees>-1.9560128264129161834716796875</LongitudeDegrees>
            </Position>
            <AltitudeMeters>59.59999847412109375</AltitudeMeters>
            <DistanceMeters>NAN</DistanceMeters>
          </Trackpoint>
          <Trackpoint>
            <Time>2021-08-11T17:48:59.000Z</Time>
            <Position>
              <LatitudeDegrees>43.30708287656307220458984375</LatitudeDegrees>
              <LongitudeDegrees>-1.955880559980869293212890625</LongitudeDegrees>
            </Position>
            <AltitudeMeters>58.59999847412109375</AltitudeMeters>
            <DistanceMeters>NAN</DistanceMeters>
          </Trackpoint>
          <Trackpoint>
            <Time>2021-08-11T17:49:01.000Z</Time>
            <Position>
              <LatitudeDegrees>43.30707306973636150360107421875</LatitudeDegrees>
              <LongitudeDegrees>-1.95574753917753696441650390625</LongitudeDegrees>
            </Position>
            <AltitudeMeters>58</AltitudeMeters>
            <DistanceMeters>NAN</DistanceMeters>
          </Trackpoint>
          <Trackpoint>
            <Time>2021-08-11T17:49:03.000Z</Time>
            <Position>
              <LatitudeDegrees>43.3070542104542255401611328125</LatitudeDegrees>
              <LongitudeDegrees>-1.95562541484832763671875</LongitudeDegrees>
            </Position>
            <AltitudeMeters>57.200000762939453125</AltitudeMeters>
            <DistanceMeters>NAN</DistanceMeters>
          </Trackpoint>
          <Trackpoint>
            <Time>2021-08-11T17:49:04.000Z</Time>
            <Position>
              <LatitudeDegrees>43.30704675056040287017822265625</LatitudeDegrees>
              <LongitudeDegrees>-1.9555709324777126312255859375</LongitudeDegrees>
            </Position>
            <AltitudeMeters>56.799999237060546875</AltitudeMeters>
            <DistanceMeters>NAN</DistanceMeters>
          </Trackpoint>
          <Trackpoint>
            <Time>2021-08-11T17:49:05.000Z</Time>
            <Position>
              <LatitudeDegrees>43.30704021267592906951904296875</LatitudeDegrees>
              <LongitudeDegrees>-1.95552013814449310302734375</LongitudeDegrees>
            </Position>
            <AltitudeMeters>56.59999847412109375</AltitudeMeters>
            <DistanceMeters>NAN</DistanceMeters>
          </Trackpoint>
          <Trackpoint>
            <Time>2021-08-11T17:49:06.000Z</Time>
            <Position>
              <LatitudeDegrees>43.3070350997149944305419921875</LatitudeDegrees>
              <LongitudeDegrees>-1.955473534762859344482421875</LongitudeDegrees>
            </Position>
            <AltitudeMeters>56.59999847412109375</AltitudeMeters>
            <DistanceMeters>NAN</DistanceMeters>
          </Trackpoint>
          <Trackpoint>
            <Time>2021-08-11T17:49:07.000Z</Time>
            <Position>
              <LatitudeDegrees>43.307029567658901214599609375</LatitudeDegrees>
              <LongitudeDegrees>-1.95542952977120876312255859375</LongitudeDegrees>
            </Position>
            <AltitudeMeters>56.40000152587890625</AltitudeMeters>
            <DistanceMeters>NAN</DistanceMeters>
          </Trackpoint>
          <Trackpoint>
            <Time>2021-08-11T17:49:08.000Z</Time>
            <Position>
              <LatitudeDegrees>43.30703317187726497650146484375</LatitudeDegrees>
              <LongitudeDegrees>-1.95537521503865718841552734375</LongitudeDegrees>
            </Position>
            <AltitudeMeters>56.40000152587890625</AltitudeMeters>
            <DistanceMeters>NAN</DistanceMeters>
          </Trackpoint>
          <Trackpoint>
            <Time>2021-08-11T17:49:13.000Z</Time>
            <Position>
              <LatitudeDegrees>43.3069945313036441802978515625</LatitudeDegrees>
              <LongitudeDegrees>-1.95511688478291034698486328125</LongitudeDegrees>
            </Position>
            <AltitudeMeters>56.200000762939453125</AltitudeMeters>
            <DistanceMeters>NAN</DistanceMeters>
          </Trackpoint>
          <Trackpoint>
            <Time>2021-08-11T17:49:17.000Z</Time>
            <Position>
              <LatitudeDegrees>43.3068931102752685546875</LatitudeDegrees>
              <LongitudeDegrees>-1.954878754913806915283203125</LongitudeDegrees>
            </Position>
            <AltitudeMeters>55.40000152587890625</AltitudeMeters>
            <DistanceMeters>NAN</DistanceMeters>
          </Trackpoint>
          <Trackpoint>
            <Time>2021-08-11T17:49:18.000Z</Time>
            <Position>
              <LatitudeDegrees>43.306851871311664581298828125</LatitudeDegrees>
              <LongitudeDegrees>-1.95479971356689929962158203125</LongitudeDegrees>
            </Position>
            <AltitudeMeters>55</AltitudeMeters>
            <DistanceMeters>NAN</DistanceMeters>
          </Trackpoint>
          <Trackpoint>
            <Time>2021-08-11T17:49:21.000Z</Time>
            <Position>
              <LatitudeDegrees>43.3066998235881328582763671875</LatitudeDegrees>
              <LongitudeDegrees>-1.954542808234691619873046875</LongitudeDegrees>
            </Position>
            <AltitudeMeters>53.799999237060546875</AltitudeMeters>
            <DistanceMeters>NAN</DistanceMeters>
          </Trackpoint>
          <Trackpoint>
            <Time>2021-08-11T17:49:22.000Z</Time>
            <Position>
              <LatitudeDegrees>43.30665112473070621490478515625</LatitudeDegrees>
              <LongitudeDegrees>-1.954481787979602813720703125</LongitudeDegrees>
            </Position>
            <AltitudeMeters>53.200000762939453125</AltitudeMeters>
            <DistanceMeters>NAN</DistanceMeters>
          </Trackpoint>
          <Trackpoint>
            <Time>2021-08-11T17:49:23.000Z</Time>
            <Position>
              <LatitudeDegrees>43.30660468898713588714599609375</LatitudeDegrees>
              <LongitudeDegrees>-1.9544326700270175933837890625</LongitudeDegrees>
            </Position>
            <AltitudeMeters>52.799999237060546875</AltitudeMeters>
            <DistanceMeters>NAN</DistanceMeters>
          </Trackpoint>
          <Trackpoint>
            <Time>2021-08-11T17:49:24.000Z</Time>
            <Position>
              <LatitudeDegrees>43.3065620250999927520751953125</LatitudeDegrees>
              <LongitudeDegrees>-1.9543924368917942047119140625</LongitudeDegrees>
            </Position>
            <AltitudeMeters>51.799999237060546875</AltitudeMeters>
            <DistanceMeters>NAN</DistanceMeters>
          </Trackpoint>
          <Trackpoint>
            <Time>2021-08-11T17:49:25.000Z</Time>
            <Position>
              <LatitudeDegrees>43.30652757547795772552490234375</LatitudeDegrees>
              <LongitudeDegrees>-1.95435874164104461669921875</LongitudeDegrees>
            </Position>
            <AltitudeMeters>50.40000152587890625</AltitudeMeters>
            <DistanceMeters>NAN</DistanceMeters>
          </Trackpoint>
          <Trackpoint>
            <Time>2021-08-11T17:49:26.000Z</Time>
            <Position>
              <LatitudeDegrees>43.30650460906326770782470703125</LatitudeDegrees>
              <LongitudeDegrees>-1.9543277285993099212646484375</LongitudeDegrees>
            </Position>
            <AltitudeMeters>50</AltitudeMeters>
            <DistanceMeters>NAN</DistanceMeters>
          </Trackpoint>
          <Trackpoint>
            <Time>2021-08-11T17:49:27.000Z</Time>
            <Position>
              <LatitudeDegrees>43.30649304203689098358154296875</LatitudeDegrees>
              <LongitudeDegrees>-1.95430333726108074188232421875</LongitudeDegrees>
            </Position>
            <AltitudeMeters>49.200000762939453125</AltitudeMeters>
            <DistanceMeters>NAN</DistanceMeters>
          </Trackpoint>
          <Trackpoint>
            <Time>2021-08-11T17:49:28.000Z</Time>
            <Position>
              <LatitudeDegrees>43.3064882643520832061767578125</LatitudeDegrees>
              <LongitudeDegrees>-1.954296045005321502685546875</LongitudeDegrees>
            </Position>
            <AltitudeMeters>49</AltitudeMeters>
            <DistanceMeters>NAN</DistanceMeters>
          </Trackpoint>
          <Trackpoint>
            <Time>2021-08-11T17:49:30.000Z</Time>
            <Position>
              <LatitudeDegrees>43.3064882643520832061767578125</LatitudeDegrees>
              <LongitudeDegrees>-1.954296045005321502685546875</LongitudeDegrees>
            </Position>
            <AltitudeMeters>48.200000762939453125</AltitudeMeters>
            <DistanceMeters>NAN</DistanceMeters>
          </Trackpoint>
          <Trackpoint>
            <Time>2021-08-11T17:49:31.000Z</Time>
            <Position>
              <LatitudeDegrees>43.3064882643520832061767578125</LatitudeDegrees>
              <LongitudeDegrees>-1.954296045005321502685546875</LongitudeDegrees>
            </Position>
            <AltitudeMeters>48</AltitudeMeters>
            <DistanceMeters>NAN</DistanceMeters>
          </Trackpoint>
          <Trackpoint>
            <Time>2021-08-11T17:49:47.000Z</Time>
            <Position>
              <LatitudeDegrees>43.30648549832403659820556640625</LatitudeDegrees>
              <LongitudeDegrees>-1.9542963802814483642578125</LongitudeDegrees>
            </Position>
            <AltitudeMeters>47.799999237060546875</AltitudeMeters>
            <DistanceMeters>NAN</DistanceMeters>
          </Trackpoint>
          <Trackpoint>
            <Time>2021-08-11T17:49:49.000Z</Time>
            <Position>
              <LatitudeDegrees>43.3064362965524196624755859375</LatitudeDegrees>
              <LongitudeDegrees>-1.95428892038762569427490234375</LongitudeDegrees>
            </Position>
            <AltitudeMeters>47.799999237060546875</AltitudeMeters>
            <DistanceMeters>NAN</DistanceMeters>
          </Trackpoint>
          <Trackpoint>
            <Time>2021-08-11T17:49:51.000Z</Time>
            <Position>
              <LatitudeDegrees>43.30638022162020206451416015625</LatitudeDegrees>
              <LongitudeDegrees>-1.9542549736797809600830078125</LongitudeDegrees>
            </Position>
            <AltitudeMeters>47.799999237060546875</AltitudeMeters>
            <DistanceMeters>NAN</DistanceMeters>
          </Trackpoint>
          <Trackpoint>
            <Time>2021-08-11T17:49:52.000Z</Time>
            <Position>
              <LatitudeDegrees>43.30635256133973598480224609375</LatitudeDegrees>
              <LongitudeDegrees>-1.95423561148345470428466796875</LongitudeDegrees>
            </Position>
            <AltitudeMeters>47.799999237060546875</AltitudeMeters>
            <DistanceMeters>NAN</DistanceMeters>
          </Trackpoint>
          <Trackpoint>
            <Time>2021-08-11T17:49:56.000Z</Time>
            <Position>
              <LatitudeDegrees>43.30623923800885677337646484375</LatitudeDegrees>
              <LongitudeDegrees>-1.95414223708212375640869140625</LongitudeDegrees>
            </Position>
            <AltitudeMeters>47.799999237060546875</AltitudeMeters>
            <DistanceMeters>NAN</DistanceMeters>
          </Trackpoint>
          <Trackpoint>
            <Time>2021-08-11T17:49:57.000Z</Time>
            <Position>
              <LatitudeDegrees>43.3062180317938327789306640625</LatitudeDegrees>
              <LongitudeDegrees>-1.9541111402213573455810546875</LongitudeDegrees>
            </Position>
            <AltitudeMeters>48</AltitudeMeters>
            <DistanceMeters>NAN</DistanceMeters>
          </Trackpoint>
          <Trackpoint>
            <Time>2021-08-11T17:49:58.000Z</Time>
            <Position>
              <LatitudeDegrees>43.306198753416538238525390625</LatitudeDegrees>
              <LongitudeDegrees>-1.9540833123028278350830078125</LongitudeDegrees>
            </Position>
            <AltitudeMeters>48</AltitudeMeters>
            <DistanceMeters>NAN</DistanceMeters>
          </Trackpoint>
          <Trackpoint>
            <Time>2021-08-11T17:50:03.000Z</Time>
            <Position>
              <LatitudeDegrees>43.306094147264957427978515625</LatitudeDegrees>
              <LongitudeDegrees>-1.953918524086475372314453125</LongitudeDegrees>
            </Position>
            <AltitudeMeters>48.200000762939453125</AltitudeMeters>
            <DistanceMeters>NAN</DistanceMeters>
          </Trackpoint>
          <Trackpoint>
            <Time>2021-08-11T17:50:05.000Z</Time>
            <Position>
              <LatitudeDegrees>43.3060279302299022674560546875</LatitudeDegrees>
              <LongitudeDegrees>-1.95382473058998584747314453125</LongitudeDegrees>
            </Position>
            <AltitudeMeters>48.40000152587890625</AltitudeMeters>
            <DistanceMeters>NAN</DistanceMeters>
          </Trackpoint>
          <Trackpoint>
            <Time>2021-08-11T17:50:08.000Z</Time>
            <Position>
              <LatitudeDegrees>43.30591209232807159423828125</LatitudeDegrees>
              <LongitudeDegrees>-1.95369933731853961944580078125</LongitudeDegrees>
            </Position>
            <AltitudeMeters>48.40000152587890625</AltitudeMeters>
            <DistanceMeters>NAN</DistanceMeters>
          </Trackpoint>
          <Trackpoint>
            <Time>2021-08-11T17:50:09.000Z</Time>
            <Position>
              <LatitudeDegrees>43.30587454140186309814453125</LatitudeDegrees>
              <LongitudeDegrees>-1.953659020364284515380859375</LongitudeDegrees>
            </Position>
            <AltitudeMeters>48.200000762939453125</AltitudeMeters>
            <DistanceMeters>NAN</DistanceMeters>
          </Trackpoint>
          <Trackpoint>
            <Time>2021-08-11T17:50:12.000Z</Time>
            <Position>
              <LatitudeDegrees>43.3057620562613010406494140625</LatitudeDegrees>
              <LongitudeDegrees>-1.95353639312088489532470703125</LongitudeDegrees>
            </Position>
            <AltitudeMeters>47</AltitudeMeters>
            <DistanceMeters>NAN</DistanceMeters>
          </Trackpoint>
          <Trackpoint>
            <Time>2021-08-11T17:50:15.000Z</Time>
            <Position>
              <LatitudeDegrees>43.30564596690237522125244140625</LatitudeDegrees>
              <LongitudeDegrees>-1.95345458574593067169189453125</LongitudeDegrees>
            </Position>
            <AltitudeMeters>46.200000762939453125</AltitudeMeters>
            <DistanceMeters>NAN</DistanceMeters>
          </Trackpoint>
          <Trackpoint>
            <Time>2021-08-11T17:50:16.000Z</Time>
            <Position>
              <LatitudeDegrees>43.305614702403545379638671875</LatitudeDegrees>
              <LongitudeDegrees>-1.95342139340937137603759765625</LongitudeDegrees>
            </Position>
            <AltitudeMeters>46</AltitudeMeters>
            <DistanceMeters>NAN</DistanceMeters>
          </Trackpoint>
          <Trackpoint>
            <Time>2021-08-11T17:50:17.000Z</Time>
            <Position>
              <LatitudeDegrees>43.305590562522411346435546875</LatitudeDegrees>
              <LongitudeDegrees>-1.95337931625545024871826171875</LongitudeDegrees>
            </Position>
            <AltitudeMeters>45.799999237060546875</AltitudeMeters>
            <DistanceMeters>NAN</DistanceMeters>
          </Trackpoint>
          <Trackpoint>
            <Time>2021-08-11T17:50:18.000Z</Time>
            <Position>
              <LatitudeDegrees>43.30557270906865596771240234375</LatitudeDegrees>
              <LongitudeDegrees>-1.95333019830286502838134765625</LongitudeDegrees>
            </Position>
            <AltitudeMeters>45.40000152587890625</AltitudeMeters>
            <DistanceMeters>NAN</DistanceMeters>
          </Trackpoint>
          <Trackpoint>
            <Time>2021-08-11T17:50:19.000Z</Time>
            <Position>
              <LatitudeDegrees>43.30555812455713748931884765625</LatitudeDegrees>
              <LongitudeDegrees>-1.95327973924577236175537109375</LongitudeDegrees>
            </Position>
            <AltitudeMeters>45</AltitudeMeters>
            <DistanceMeters>NAN</DistanceMeters>
          </Trackpoint>
          <Trackpoint>
            <Time>2021-08-11T17:50:20.000Z</Time>
            <Position>
              <LatitudeDegrees>43.30554655753076076507568359375</LatitudeDegrees>
              <LongitudeDegrees>-1.95322944782674312591552734375</LongitudeDegrees>
            </Position>
            <AltitudeMeters>45</AltitudeMeters>
            <DistanceMeters>NAN</DistanceMeters>
          </Trackpoint>
          <Trackpoint>
            <Time>2021-08-11T17:50:21.000Z</Time>
            <Position>
              <LatitudeDegrees>43.30553499050438404083251953125</LatitudeDegrees>
              <LongitudeDegrees>-1.9531804136931896209716796875</LongitudeDegrees>
            </Position>
            <AltitudeMeters>44.59999847412109375</AltitudeMeters>
            <DistanceMeters>NAN</DistanceMeters>
          </Trackpoint>
          <Trackpoint>
            <Time>2021-08-11T17:50:22.000Z</Time>
            <Position>
              <LatitudeDegrees>43.3055273629724979400634765625</LatitudeDegrees>
              <LongitudeDegrees>-1.95313188247382640838623046875</LongitudeDegrees>
            </Position>
            <AltitudeMeters>44.200000762939453125</AltitudeMeters>
            <DistanceMeters>NAN</DistanceMeters>
          </Trackpoint>
          <Trackpoint>
            <Time>2021-08-11T17:50:23.000Z</Time>
            <Position>
              <LatitudeDegrees>43.30552585422992706298828125</LatitudeDegrees>
              <LongitudeDegrees>-1.95308092050254344940185546875</LongitudeDegrees>
            </Position>
            <AltitudeMeters>43.799999237060546875</AltitudeMeters>
            <DistanceMeters>NAN</DistanceMeters>
          </Trackpoint>
          <Trackpoint>
            <Time>2021-08-11T17:50:24.000Z</Time>
            <Position>
              <LatitudeDegrees>43.30552987754344940185546875</LatitudeDegrees>
              <LongitudeDegrees>-1.95302828215062618255615234375</LongitudeDegrees>
            </Position>
            <AltitudeMeters>43.799999237060546875</AltitudeMeters>
            <DistanceMeters>NAN</DistanceMeters>
          </Trackpoint>
          <Trackpoint>
            <Time>2021-08-11T17:50:25.000Z</Time>
            <Position>
              <LatitudeDegrees>43.30553951673209667205810546875</LatitudeDegrees>
              <LongitudeDegrees>-1.95297472178936004638671875</LongitudeDegrees>
            </Position>
            <AltitudeMeters>43.59999847412109375</AltitudeMeters>
            <DistanceMeters>NAN</DistanceMeters>
          </Trackpoint>
          <Trackpoint>
            <Time>2021-08-11T17:50:26.000Z</Time>
            <Position>
              <LatitudeDegrees>43.30555376596748828887939453125</LatitudeDegrees>
              <LongitudeDegrees>-1.95292317308485507965087890625</LongitudeDegrees>
            </Position>
            <AltitudeMeters>43.59999847412109375</AltitudeMeters>
            <DistanceMeters>NAN</DistanceMeters>
          </Trackpoint>
          <Trackpoint>
            <Time>2021-08-11T17:50:27.000Z</Time>
            <Position>
              <LatitudeDegrees>43.3055726252496242523193359375</LatitudeDegrees>
              <LongitudeDegrees>-1.9528773240745067596435546875</LongitudeDegrees>
            </Position>
            <AltitudeMeters>43.59999847412109375</AltitudeMeters>
            <DistanceMeters>NAN</DistanceMeters>
          </Trackpoint>
          <Trackpoint>
            <Time>2021-08-11T17:50:28.000Z</Time>
            <Position>
              <LatitudeDegrees>43.3055974356830120086669921875</LatitudeDegrees>
              <LongitudeDegrees>-1.9528372585773468017578125</LongitudeDegrees>
            </Position>
            <AltitudeMeters>43.59999847412109375</AltitudeMeters>
            <DistanceMeters>NAN</DistanceMeters>
          </Trackpoint>
          <Trackpoint>
            <Time>2021-08-11T17:50:29.000Z</Time>
            <Position>
              <LatitudeDegrees>43.305626772344112396240234375</LatitudeDegrees>
              <LongitudeDegrees>-1.95280574262142181396484375</LongitudeDegrees>
            </Position>
            <AltitudeMeters>43.59999847412109375</AltitudeMeters>
            <DistanceMeters>NAN</DistanceMeters>
          </Trackpoint>
          <Trackpoint>
            <Time>2021-08-11T17:50:30.000Z</Time>
            <Position>
              <LatitudeDegrees>43.30565602518618106842041015625</LatitudeDegrees>
              <LongitudeDegrees>-1.952779255807399749755859375</LongitudeDegrees>
            </Position>
            <AltitudeMeters>43.59999847412109375</AltitudeMeters>
            <DistanceMeters>NAN</DistanceMeters>
          </Trackpoint>
          <Trackpoint>
            <Time>2021-08-11T17:50:31.000Z</Time>
            <Position>
              <LatitudeDegrees>43.30568435601890087127685546875</LatitudeDegrees>
              <LongitudeDegrees>-1.95275302045047283172607421875</LongitudeDegrees>
            </Position>
            <AltitudeMeters>43.59999847412109375</AltitudeMeters>
            <DistanceMeters>NAN</DistanceMeters>
          </Trackpoint>
          <Trackpoint>
            <Time>2021-08-11T17:50:32.000Z</Time>
            <Position>
              <LatitudeDegrees>43.30570665188133716583251953125</LatitudeDegrees>
              <LongitudeDegrees>-1.952722929418087005615234375</LongitudeDegrees>
            </Position>
            <AltitudeMeters>43.799999237060546875</AltitudeMeters>
            <DistanceMeters>NAN</DistanceMeters>
          </Trackpoint>
          <Trackpoint>
            <Time>2021-08-11T17:50:34.000Z</Time>
            <Position>
              <LatitudeDegrees>43.30572827719151973724365234375</LatitudeDegrees>
              <LongitudeDegrees>-1.95265176706016063690185546875</LongitudeDegrees>
            </Position>
            <AltitudeMeters>44</AltitudeMeters>
            <DistanceMeters>NAN</DistanceMeters>
          </Trackpoint>
          <Trackpoint>
            <Time>2021-08-11T17:50:35.000Z</Time>
            <Position>
              <LatitudeDegrees>43.30573732964694499969482421875</LatitudeDegrees>
              <LongitudeDegrees>-1.952621676027774810791015625</LongitudeDegrees>
            </Position>
            <AltitudeMeters>44</AltitudeMeters>
            <DistanceMeters>NAN</DistanceMeters>
          </Trackpoint>
          <Trackpoint>
            <Time>2021-08-11T17:50:36.000Z</Time>
            <Position>
              <LatitudeDegrees>43.30574512481689453125</LatitudeDegrees>
              <LongitudeDegrees>-1.952596865594387054443359375</LongitudeDegrees>
            </Position>
            <AltitudeMeters>44.200000762939453125</AltitudeMeters>
            <DistanceMeters>NAN</DistanceMeters>
          </Trackpoint>
          <Trackpoint>
            <Time>2021-08-11T17:50:37.000Z</Time>
            <Position>
              <LatitudeDegrees>43.30575593747198581695556640625</LatitudeDegrees>
              <LongitudeDegrees>-1.95257951505482196807861328125</LongitudeDegrees>
            </Position>
            <AltitudeMeters>44.59999847412109375</AltitudeMeters>
            <DistanceMeters>NAN</DistanceMeters>
          </Trackpoint>
          <Trackpoint>
            <Time>2021-08-11T17:50:38.000Z</Time>
            <Position>
              <LatitudeDegrees>43.3057650737464427947998046875</LatitudeDegrees>
              <LongitudeDegrees>-1.9525611586868762969970703125</LongitudeDegrees>
            </Position>
            <AltitudeMeters>44.59999847412109375</AltitudeMeters>
            <DistanceMeters>NAN</DistanceMeters>
          </Trackpoint>
          <Trackpoint>
            <Time>2021-08-11T17:50:39.000Z</Time>
            <Position>
              <LatitudeDegrees>43.30577286891639232635498046875</LatitudeDegrees>
              <LongitudeDegrees>-1.9525450654327869415283203125</LongitudeDegrees>
            </Position>
            <AltitudeMeters>44.799999237060546875</AltitudeMeters>
            <DistanceMeters>NAN</DistanceMeters>
          </Trackpoint>
          <Trackpoint>
            <Time>2021-08-11T17:50:40.000Z</Time>
            <Position>
              <LatitudeDegrees>43.30577504821121692657470703125</LatitudeDegrees>
              <LongitudeDegrees>-1.95253676734864711761474609375</LongitudeDegrees>
            </Position>
            <AltitudeMeters>45</AltitudeMeters>
            <DistanceMeters>NAN</DistanceMeters>
          </Trackpoint>
          <Trackpoint>
            <Time>2021-08-11T17:50:43.000Z</Time>
            <Position>
              <LatitudeDegrees>43.30577320419251918792724609375</LatitudeDegrees>
              <LongitudeDegrees>-1.95253207348287105560302734375</LongitudeDegrees>
            </Position>
            <AltitudeMeters>45</AltitudeMeters>
            <DistanceMeters>NAN</DistanceMeters>
          </Trackpoint>
          <Trackpoint>
            <Time>2021-08-11T17:50:52.000Z</Time>
            <Position>
              <LatitudeDegrees>43.30577320419251918792724609375</LatitudeDegrees>
              <LongitudeDegrees>-1.95253207348287105560302734375</LongitudeDegrees>
            </Position>
            <AltitudeMeters>45.200000762939453125</AltitudeMeters>
            <DistanceMeters>NAN</DistanceMeters>
          </Trackpoint>
          <Trackpoint>
            <Time>2021-08-11T17:50:57.000Z</Time>
            <Position>
              <LatitudeDegrees>43.30577320419251918792724609375</LatitudeDegrees>
              <LongitudeDegrees>-1.95253207348287105560302734375</LongitudeDegrees>
            </Position>
            <AltitudeMeters>45.200000762939453125</AltitudeMeters>
            <DistanceMeters>NAN</DistanceMeters>
          </Trackpoint>
          <Trackpoint>
            <Time>2021-08-12T08:33:27.000Z</Time>
            <Position>
              <LatitudeDegrees>43.30578510649502277374267578125</LatitudeDegrees>
              <LongitudeDegrees>-1.9526010565459728240966796875</LongitudeDegrees>
            </Position>
            <AltitudeMeters>42.59999847412109375</AltitudeMeters>
            <DistanceMeters>NAN</DistanceMeters>
          </Trackpoint>
          <Trackpoint>
            <Time>2021-08-12T08:33:28.000Z</Time>
            <Position>
              <LatitudeDegrees>43.305785357952117919921875</LatitudeDegrees>
              <LongitudeDegrees>-1.95260147564113140106201171875</LongitudeDegrees>
            </Position>
            <AltitudeMeters>40</AltitudeMeters>
            <DistanceMeters>NAN</DistanceMeters>
          </Trackpoint>
          <Trackpoint>
            <Time>2021-08-12T08:33:36.000Z</Time>
            <Position>
              <LatitudeDegrees>43.30578577704727649688720703125</LatitudeDegrees>
              <LongitudeDegrees>-1.95260097272694110870361328125</LongitudeDegrees>
            </Position>
            <AltitudeMeters>40.59999847412109375</AltitudeMeters>
            <DistanceMeters>NAN</DistanceMeters>
          </Trackpoint>
          <Trackpoint>
            <Time>2021-08-12T08:33:39.000Z</Time>
            <Position>
              <LatitudeDegrees>43.3057674206793308258056640625</LatitudeDegrees>
              <LongitudeDegrees>-1.952570043504238128662109375</LongitudeDegrees>
            </Position>
            <AltitudeMeters>40.59999847412109375</AltitudeMeters>
            <DistanceMeters>NAN</DistanceMeters>
          </Trackpoint>
          <Trackpoint>
            <Time>2021-08-12T08:33:40.000Z</Time>
            <Position>
              <LatitudeDegrees>43.30576431937515735626220703125</LatitudeDegrees>
              <LongitudeDegrees>-1.95258119143545627593994140625</LongitudeDegrees>
            </Position>
            <AltitudeMeters>40.59999847412109375</AltitudeMeters>
            <DistanceMeters>NAN</DistanceMeters>
          </Trackpoint>
          <Trackpoint>
            <Time>2021-08-12T08:33:41.000Z</Time>
            <Position>
              <LatitudeDegrees>43.30576230771839618682861328125</LatitudeDegrees>
              <LongitudeDegrees>-1.95259627886116504669189453125</LongitudeDegrees>
            </Position>
            <AltitudeMeters>40.40000152587890625</AltitudeMeters>
            <DistanceMeters>NAN</DistanceMeters>
          </Trackpoint>
          <Trackpoint>
            <Time>2021-08-12T08:33:44.000Z</Time>
            <Position>
              <LatitudeDegrees>43.30575878731906414031982421875</LatitudeDegrees>
              <LongitudeDegrees>-1.952634751796722412109375</LongitudeDegrees>
            </Position>
            <AltitudeMeters>40.40000152587890625</AltitudeMeters>
            <DistanceMeters>NAN</DistanceMeters>
          </Trackpoint>
          <Trackpoint>
            <Time>2021-08-12T08:33:46.000Z</Time>
            <Position>
              <LatitudeDegrees>43.30575375817716121673583984375</LatitudeDegrees>
              <LongitudeDegrees>-1.9526604004204273223876953125</LongitudeDegrees>
            </Position>
            <AltitudeMeters>40.40000152587890625</AltitudeMeters>
            <DistanceMeters>NAN</DistanceMeters>
          </Trackpoint>
          <Trackpoint>
            <Time>2021-08-12T08:33:47.000Z</Time>
            <Position>
              <LatitudeDegrees>43.3057476393878459930419921875</LatitudeDegrees>
              <LongitudeDegrees>-1.9526748172938823699951171875</LongitudeDegrees>
            </Position>
            <AltitudeMeters>40.40000152587890625</AltitudeMeters>
            <DistanceMeters>NAN</DistanceMeters>
          </Trackpoint>
          <Trackpoint>
            <Time>2021-08-12T08:33:48.000Z</Time>
            <Position>
              <LatitudeDegrees>43.30574051477015018463134765625</LatitudeDegrees>
              <LongitudeDegrees>-1.95268495939671993255615234375</LongitudeDegrees>
            </Position>
            <AltitudeMeters>40.40000152587890625</AltitudeMeters>
            <DistanceMeters>NAN</DistanceMeters>
          </Trackpoint>
          <Trackpoint>
            <Time>2021-08-12T08:33:50.000Z</Time>
            <Position>
              <LatitudeDegrees>43.3057275228202342987060546875</LatitudeDegrees>
              <LongitudeDegrees>-1.95269552059471607208251953125</LongitudeDegrees>
            </Position>
            <AltitudeMeters>40.40000152587890625</AltitudeMeters>
            <DistanceMeters>NAN</DistanceMeters>
          </Trackpoint>
          <Trackpoint>
            <Time>2021-08-12T08:33:51.000Z</Time>
            <Position>
              <LatitudeDegrees>43.30572509206831455230712890625</LatitudeDegrees>
              <LongitudeDegrees>-1.95270641706883907318115234375</LongitudeDegrees>
            </Position>
            <AltitudeMeters>40.40000152587890625</AltitudeMeters>
            <DistanceMeters>NAN</DistanceMeters>
          </Trackpoint>
          <Trackpoint>
            <Time>2021-08-12T08:33:52.000Z</Time>
            <Position>
              <LatitudeDegrees>43.30572240985929965972900390625</LatitudeDegrees>
              <LongitudeDegrees>-1.95271865464746952056884765625</LongitudeDegrees>
            </Position>
            <AltitudeMeters>40.40000152587890625</AltitudeMeters>
            <DistanceMeters>NAN</DistanceMeters>
          </Trackpoint>
          <Trackpoint>
            <Time>2021-08-12T08:33:53.000Z</Time>
            <Position>
              <LatitudeDegrees>43.30571905709803104400634765625</LatitudeDegrees>
              <LongitudeDegrees>-1.9527304731309413909912109375</LongitudeDegrees>
            </Position>
            <AltitudeMeters>40.200000762939453125</AltitudeMeters>
            <DistanceMeters>NAN</DistanceMeters>
          </Trackpoint>
          <Trackpoint>
            <Time>2021-08-12T08:33:56.000Z</Time>
            <Position>
              <LatitudeDegrees>43.30570111982524394989013671875</LatitudeDegrees>
              <LongitudeDegrees>-1.952764503657817840576171875</LongitudeDegrees>
            </Position>
            <AltitudeMeters>40.200000762939453125</AltitudeMeters>
            <DistanceMeters>NAN</DistanceMeters>
          </Trackpoint>
          <Trackpoint>
            <Time>2021-08-12T08:33:57.000Z</Time>
            <Position>
              <LatitudeDegrees>43.30568904988467693328857421875</LatitudeDegrees>
              <LongitudeDegrees>-1.95277431048452854156494140625</LongitudeDegrees>
            </Position>
            <AltitudeMeters>40.200000762939453125</AltitudeMeters>
            <DistanceMeters>NAN</DistanceMeters>
          </Trackpoint>
          <Trackpoint>
            <Time>2021-08-12T08:33:58.000Z</Time>
            <Position>
              <LatitudeDegrees>43.3056767284870147705078125</LatitudeDegrees>
              <LongitudeDegrees>-1.952782608568668365478515625</LongitudeDegrees>
            </Position>
            <AltitudeMeters>40.200000762939453125</AltitudeMeters>
            <DistanceMeters>NAN</DistanceMeters>
          </Trackpoint>
          <Trackpoint>
            <Time>2021-08-12T08:33:59.000Z</Time>
            <Position>
              <LatitudeDegrees>43.30566524527966976165771484375</LatitudeDegrees>
              <LongitudeDegrees>-1.9527918286621570587158203125</LongitudeDegrees>
            </Position>
            <AltitudeMeters>40</AltitudeMeters>
            <DistanceMeters>NAN</DistanceMeters>
          </Trackpoint>
          <Trackpoint>
            <Time>2021-08-12T08:34:00.000Z</Time>
            <Position>
              <LatitudeDegrees>43.30565267242491245269775390625</LatitudeDegrees>
              <LongitudeDegrees>-1.95280415005981922149658203125</LongitudeDegrees>
            </Position>
            <AltitudeMeters>40</AltitudeMeters>
            <DistanceMeters>NAN</DistanceMeters>
          </Trackpoint>
          <Trackpoint>
            <Time>2021-08-12T08:34:05.000Z</Time>
            <Position>
              <LatitudeDegrees>43.3055903948843479156494140625</LatitudeDegrees>
              <LongitudeDegrees>-1.95288889110088348388671875</LongitudeDegrees>
            </Position>
            <AltitudeMeters>39.799999237060546875</AltitudeMeters>
            <DistanceMeters>NAN</DistanceMeters>
          </Trackpoint>
          <Trackpoint>
            <Time>2021-08-12T08:34:07.000Z</Time>
            <Position>
              <LatitudeDegrees>43.305575810372829437255859375</LatitudeDegrees>
              <LongitudeDegrees>-1.9529416970908641815185546875</LongitudeDegrees>
            </Position>
            <AltitudeMeters>39.59999847412109375</AltitudeMeters>
            <DistanceMeters>NAN</DistanceMeters>
          </Trackpoint>
          <Trackpoint>
            <Time>2021-08-12T08:34:08.000Z</Time>
            <Position>
              <LatitudeDegrees>43.3055706135928630828857421875</LatitudeDegrees>
              <LongitudeDegrees>-1.95296675898134708404541015625</LongitudeDegrees>
            </Position>
            <AltitudeMeters>39.59999847412109375</AltitudeMeters>
            <DistanceMeters>NAN</DistanceMeters>
          </Trackpoint>
          <Trackpoint>
            <Time>2021-08-12T08:34:09.000Z</Time>
            <Position>
              <LatitudeDegrees>43.305564410984516143798828125</LatitudeDegrees>
              <LongitudeDegrees>-1.95299643091857433319091796875</LongitudeDegrees>
            </Position>
            <AltitudeMeters>39.59999847412109375</AltitudeMeters>
            <DistanceMeters>NAN</DistanceMeters>
          </Trackpoint>
          <Trackpoint>
            <Time>2021-08-12T08:34:10.000Z</Time>
            <Position>
              <LatitudeDegrees>43.305560387670993804931640625</LatitudeDegrees>
              <LongitudeDegrees>-1.95303046144545078277587890625</LongitudeDegrees>
            </Position>
            <AltitudeMeters>39.40000152587890625</AltitudeMeters>
            <DistanceMeters>NAN</DistanceMeters>
          </Trackpoint>
          <Trackpoint>
            <Time>2021-08-12T08:34:11.000Z</Time>
            <Position>
              <LatitudeDegrees>43.30555862747132778167724609375</LatitudeDegrees>
              <LongitudeDegrees>-1.9530590437352657318115234375</LongitudeDegrees>
            </Position>
            <AltitudeMeters>39.40000152587890625</AltitudeMeters>
            <DistanceMeters>NAN</DistanceMeters>
          </Trackpoint>
          <Trackpoint>
            <Time>2021-08-12T08:34:15.000Z</Time>
            <Position>
              <LatitudeDegrees>43.305564410984516143798828125</LatitudeDegrees>
              <LongitudeDegrees>-1.95316658355295658111572265625</LongitudeDegrees>
            </Position>
            <AltitudeMeters>38.799999237060546875</AltitudeMeters>
            <DistanceMeters>NAN</DistanceMeters>
          </Trackpoint>
          <Trackpoint>
            <Time>2021-08-12T08:34:16.000Z</Time>
            <Position>
              <LatitudeDegrees>43.3055726252496242523193359375</LatitudeDegrees>
              <LongitudeDegrees>-1.95319675840437412261962890625</LongitudeDegrees>
            </Position>
            <AltitudeMeters>38.799999237060546875</AltitudeMeters>
            <DistanceMeters>NAN</DistanceMeters>
          </Trackpoint>
          <Trackpoint>
            <Time>2021-08-12T08:34:17.000Z</Time>
            <Position>
              <LatitudeDegrees>43.30558025278151035308837890625</LatitudeDegrees>
              <LongitudeDegrees>-1.9532149471342563629150390625</LongitudeDegrees>
            </Position>
            <AltitudeMeters>38.799999237060546875</AltitudeMeters>
            <DistanceMeters>NAN</DistanceMeters>
          </Trackpoint>
          <Trackpoint>
            <Time>2021-08-12T08:34:18.000Z</Time>
            <Position>
              <LatitudeDegrees>43.30558779649436473846435546875</LatitudeDegrees>
              <LongitudeDegrees>-1.95323213003575801849365234375</LongitudeDegrees>
            </Position>
            <AltitudeMeters>38.799999237060546875</AltitudeMeters>
            <DistanceMeters>NAN</DistanceMeters>
          </Trackpoint>
          <Trackpoint>
            <Time>2021-08-12T08:34:19.000Z</Time>
            <Position>
              <LatitudeDegrees>43.305593915283679962158203125</LatitudeDegrees>
              <LongitudeDegrees>-1.95324696600437164306640625</LongitudeDegrees>
            </Position>
            <AltitudeMeters>38.799999237060546875</AltitudeMeters>
            <DistanceMeters>NAN</DistanceMeters>
          </Trackpoint>
          <Trackpoint>
            <Time>2021-08-12T08:34:20.000Z</Time>
            <Position>
              <LatitudeDegrees>43.30559869296848773956298828125</LatitudeDegrees>
              <LongitudeDegrees>-1.95325878448784351348876953125</LongitudeDegrees>
            </Position>
            <AltitudeMeters>38.59999847412109375</AltitudeMeters>
            <DistanceMeters>NAN</DistanceMeters>
          </Trackpoint>
          <Trackpoint>
            <Time>2021-08-12T08:34:21.000Z</Time>
            <Position>
              <LatitudeDegrees>43.3056024648249149322509765625</LatitudeDegrees>
              <LongitudeDegrees>-1.953268758952617645263671875</LongitudeDegrees>
            </Position>
            <AltitudeMeters>38.59999847412109375</AltitudeMeters>
            <DistanceMeters>NAN</DistanceMeters>
          </Trackpoint>
          <Trackpoint>
            <Time>2021-08-12T08:34:22.000Z</Time>
            <Position>
              <LatitudeDegrees>43.30560925416648387908935546875</LatitudeDegrees>
              <LongitudeDegrees>-1.95328317582607269287109375</LongitudeDegrees>
            </Position>
            <AltitudeMeters>38.59999847412109375</AltitudeMeters>
            <DistanceMeters>NAN</DistanceMeters>
          </Trackpoint>
          <Trackpoint>
            <Time>2021-08-12T08:34:25.000Z</Time>
            <Position>
              <LatitudeDegrees>43.30561612732708454132080078125</LatitudeDegrees>
              <LongitudeDegrees>-1.95334310643374919891357421875</LongitudeDegrees>
            </Position>
            <AltitudeMeters>38.59999847412109375</AltitudeMeters>
            <DistanceMeters>NAN</DistanceMeters>
          </Trackpoint>
          <Trackpoint>
            <Time>2021-08-12T08:34:26.000Z</Time>
            <Position>
              <LatitudeDegrees>43.30561277456581592559814453125</LatitudeDegrees>
              <LongitudeDegrees>-1.953358948230743408203125</LongitudeDegrees>
            </Position>
            <AltitudeMeters>38.40000152587890625</AltitudeMeters>
            <DistanceMeters>NAN</DistanceMeters>
          </Trackpoint>
          <Trackpoint>
            <Time>2021-08-12T08:34:27.000Z</Time>
            <Position>
              <LatitudeDegrees>43.30561109818518161773681640625</LatitudeDegrees>
              <LongitudeDegrees>-1.953375376760959625244140625</LongitudeDegrees>
            </Position>
            <AltitudeMeters>38.40000152587890625</AltitudeMeters>
            <DistanceMeters>NAN</DistanceMeters>
          </Trackpoint>
          <Trackpoint>
            <Time>2021-08-12T08:34:30.000Z</Time>
            <Position>
              <LatitudeDegrees>43.3056074939668178558349609375</LatitudeDegrees>
              <LongitudeDegrees>-1.95343497209250926971435546875</LongitudeDegrees>
            </Position>
            <AltitudeMeters>38.40000152587890625</AltitudeMeters>
            <DistanceMeters>NAN</DistanceMeters>
          </Trackpoint>
          <Trackpoint>
            <Time>2021-08-12T08:34:31.000Z</Time>
            <Position>
              <LatitudeDegrees>43.30559500493109226226806640625</LatitudeDegrees>
              <LongitudeDegrees>-1.95344746112823486328125</LongitudeDegrees>
            </Position>
            <AltitudeMeters>38.59999847412109375</AltitudeMeters>
            <DistanceMeters>NAN</DistanceMeters>
          </Trackpoint>
          <Trackpoint>
            <Time>2021-08-12T08:34:37.000Z</Time>
            <Position>
              <LatitudeDegrees>43.30548671074211597442626953125</LatitudeDegrees>
              <LongitudeDegrees>-1.953454501926898956298828125</LongitudeDegrees>
            </Position>
            <AltitudeMeters>38.40000152587890625</AltitudeMeters>
            <DistanceMeters>NAN</DistanceMeters>
          </Trackpoint>
          <Trackpoint>
            <Time>2021-08-12T08:34:42.000Z</Time>
            <Position>
              <LatitudeDegrees>43.30530700273811817169189453125</LatitudeDegrees>
              <LongitudeDegrees>-1.95346732623875141143798828125</LongitudeDegrees>
            </Position>
            <AltitudeMeters>38</AltitudeMeters>
            <DistanceMeters>NAN</DistanceMeters>
          </Trackpoint>
          <Trackpoint>
            <Time>2021-08-12T08:34:43.000Z</Time>
            <Position>
              <LatitudeDegrees>43.30526023171842098236083984375</LatitudeDegrees>
              <LongitudeDegrees>-1.95347185246646404266357421875</LongitudeDegrees>
            </Position>
            <AltitudeMeters>37.799999237060546875</AltitudeMeters>
            <DistanceMeters>NAN</DistanceMeters>
          </Trackpoint>
          <Trackpoint>
            <Time>2021-08-12T08:34:46.000Z</Time>
            <Position>
              <LatitudeDegrees>43.3051273785531520843505859375</LatitudeDegrees>
              <LongitudeDegrees>-1.9534938968718051910400390625</LongitudeDegrees>
            </Position>
            <AltitudeMeters>37.40000152587890625</AltitudeMeters>
            <DistanceMeters>NAN</DistanceMeters>
          </Trackpoint>
          <Trackpoint>
            <Time>2021-08-12T08:34:47.000Z</Time>
            <Position>
              <LatitudeDegrees>43.3050911687314510345458984375</LatitudeDegrees>
              <LongitudeDegrees>-1.95350320078432559967041015625</LongitudeDegrees>
            </Position>
            <AltitudeMeters>37.200000762939453125</AltitudeMeters>
            <DistanceMeters>NAN</DistanceMeters>
          </Trackpoint>
          <Trackpoint>
            <Time>2021-08-12T08:34:48.000Z</Time>
            <Position>
              <LatitudeDegrees>43.3050542883574962615966796875</LatitudeDegrees>
              <LongitudeDegrees>-1.95351057685911655426025390625</LongitudeDegrees>
            </Position>
            <AltitudeMeters>37</AltitudeMeters>
            <DistanceMeters>NAN</DistanceMeters>
          </Trackpoint>
          <Trackpoint>
            <Time>2021-08-12T08:34:49.000Z</Time>
            <Position>
              <LatitudeDegrees>43.30501849763095378875732421875</LatitudeDegrees>
              <LongitudeDegrees>-1.95351745001971721649169921875</LongitudeDegrees>
            </Position>
            <AltitudeMeters>36.59999847412109375</AltitudeMeters>
            <DistanceMeters>NAN</DistanceMeters>
          </Trackpoint>
          <Trackpoint>
            <Time>2021-08-12T08:34:50.000Z</Time>
            <Position>
              <LatitudeDegrees>43.30498698167502880096435546875</LatitudeDegrees>
              <LongitudeDegrees>-1.9535239040851593017578125</LongitudeDegrees>
            </Position>
            <AltitudeMeters>36.40000152587890625</AltitudeMeters>
            <DistanceMeters>NAN</DistanceMeters>
          </Trackpoint>
          <Trackpoint>
            <Time>2021-08-12T08:34:51.000Z</Time>
            <Position>
              <LatitudeDegrees>43.30495965667068958282470703125</LatitudeDegrees>
              <LongitudeDegrees>-1.9535294361412525177001953125</LongitudeDegrees>
            </Position>
            <AltitudeMeters>36</AltitudeMeters>
            <DistanceMeters>NAN</DistanceMeters>
          </Trackpoint>
          <Trackpoint>
            <Time>2021-08-12T08:34:52.000Z</Time>
            <Position>
              <LatitudeDegrees>43.3049399591982364654541015625</LatitudeDegrees>
              <LongitudeDegrees>-1.9535324536263942718505859375</LongitudeDegrees>
            </Position>
            <AltitudeMeters>36</AltitudeMeters>
            <DistanceMeters>NAN</DistanceMeters>
          </Trackpoint>
          <Trackpoint>
            <Time>2021-08-12T08:34:53.000Z</Time>
            <Position>
              <LatitudeDegrees>43.30491020344197750091552734375</LatitudeDegrees>
              <LongitudeDegrees>-1.9535373151302337646484375</LongitudeDegrees>
            </Position>
            <AltitudeMeters>35.799999237060546875</AltitudeMeters>
            <DistanceMeters>NAN</DistanceMeters>
          </Trackpoint>
          <Trackpoint>
            <Time>2021-08-12T08:34:54.000Z</Time>
            <Position>
              <LatitudeDegrees>43.30488346517086029052734375</LatitudeDegrees>
              <LongitudeDegrees>-1.9535401649773120880126953125</LongitudeDegrees>
            </Position>
            <AltitudeMeters>35.799999237060546875</AltitudeMeters>
            <DistanceMeters>NAN</DistanceMeters>
          </Trackpoint>
          <Trackpoint>
            <Time>2021-08-12T08:34:55.000Z</Time>
            <Position>
              <LatitudeDegrees>43.304856307804584503173828125</LatitudeDegrees>
              <LongitudeDegrees>-1.9535386562347412109375</LongitudeDegrees>
            </Position>
            <AltitudeMeters>35.59999847412109375</AltitudeMeters>
            <DistanceMeters>NAN</DistanceMeters>
          </Trackpoint>
          <Trackpoint>
            <Time>2021-08-12T08:34:56.000Z</Time>
            <Position>
              <LatitudeDegrees>43.30483007244765758514404296875</LatitudeDegrees>
              <LongitudeDegrees>-1.953541003167629241943359375</LongitudeDegrees>
            </Position>
            <AltitudeMeters>35.40000152587890625</AltitudeMeters>
            <DistanceMeters>NAN</DistanceMeters>
          </Trackpoint>
          <Trackpoint>
            <Time>2021-08-12T08:34:57.000Z</Time>
            <Position>
              <LatitudeDegrees>43.30480325035750865936279296875</LatitudeDegrees>
              <LongitudeDegrees>-1.95354410447180271148681640625</LongitudeDegrees>
            </Position>
            <AltitudeMeters>35.40000152587890625</AltitudeMeters>
            <DistanceMeters>NAN</DistanceMeters>
          </Trackpoint>
          <Trackpoint>
            <Time>2021-08-12T08:35:03.000Z</Time>
            <Position>
              <LatitudeDegrees>43.30463175661861896514892578125</LatitudeDegrees>
              <LongitudeDegrees>-1.9535958208143711090087890625</LongitudeDegrees>
            </Position>
            <AltitudeMeters>35.200000762939453125</AltitudeMeters>
            <DistanceMeters>NAN</DistanceMeters>
          </Trackpoint>
          <Trackpoint>
            <Time>2021-08-12T08:35:08.000Z</Time>
            <Position>
              <LatitudeDegrees>43.30448725260794162750244140625</LatitudeDegrees>
              <LongitudeDegrees>-1.95360898040235042572021484375</LongitudeDegrees>
            </Position>
            <AltitudeMeters>34.799999237060546875</AltitudeMeters>
            <DistanceMeters>NAN</DistanceMeters>
          </Trackpoint>
          <Trackpoint>
            <Time>2021-08-12T08:35:10.000Z</Time>
            <Position>
              <LatitudeDegrees>43.3044402301311492919921875</LatitudeDegrees>
              <LongitudeDegrees>-1.95360210724174976348876953125</LongitudeDegrees>
            </Position>
            <AltitudeMeters>34.799999237060546875</AltitudeMeters>
            <DistanceMeters>NAN</DistanceMeters>
          </Trackpoint>
          <Trackpoint>
            <Time>2021-08-12T08:35:11.000Z</Time>
            <Position>
              <LatitudeDegrees>43.30442137084901332855224609375</LatitudeDegrees>
              <LongitudeDegrees>-1.9535990059375762939453125</LongitudeDegrees>
            </Position>
            <AltitudeMeters>34.799999237060546875</AltitudeMeters>
            <DistanceMeters>NAN</DistanceMeters>
          </Trackpoint>
          <Trackpoint>
            <Time>2021-08-12T08:35:12.000Z</Time>
            <Position>
              <LatitudeDegrees>43.30440259538590908050537109375</LatitudeDegrees>
              <LongitudeDegrees>-1.95359439589083194732666015625</LongitudeDegrees>
            </Position>
            <AltitudeMeters>34.799999237060546875</AltitudeMeters>
            <DistanceMeters>NAN</DistanceMeters>
          </Trackpoint>
          <Trackpoint>
            <Time>2021-08-12T08:35:13.000Z</Time>
            <Position>
              <LatitudeDegrees>43.304381556808948516845703125</LatitudeDegrees>
              <LongitudeDegrees>-1.953589618206024169921875</LongitudeDegrees>
            </Position>
            <AltitudeMeters>34.799999237060546875</AltitudeMeters>
            <DistanceMeters>NAN</DistanceMeters>
          </Trackpoint>
          <Trackpoint>
            <Time>2021-08-12T08:35:18.000Z</Time>
            <Position>
              <LatitudeDegrees>43.30426261760294437408447265625</LatitudeDegrees>
              <LongitudeDegrees>-1.9535545818507671356201171875</LongitudeDegrees>
            </Position>
            <AltitudeMeters>34.799999237060546875</AltitudeMeters>
            <DistanceMeters>NAN</DistanceMeters>
          </Trackpoint>
          <Trackpoint>
            <Time>2021-08-12T08:35:19.000Z</Time>
            <Position>
              <LatitudeDegrees>43.30424535088241100311279296875</LatitudeDegrees>
              <LongitudeDegrees>-1.95354527793824672698974609375</LongitudeDegrees>
            </Position>
            <AltitudeMeters>34.799999237060546875</AltitudeMeters>
            <DistanceMeters>NAN</DistanceMeters>
          </Trackpoint>
          <Trackpoint>
            <Time>2021-08-12T08:35:20.000Z</Time>
            <Position>
              <LatitudeDegrees>43.30423193983733654022216796875</LatitudeDegrees>
              <LongitudeDegrees>-1.95354041643440723419189453125</LongitudeDegrees>
            </Position>
            <AltitudeMeters>34.59999847412109375</AltitudeMeters>
            <DistanceMeters>NAN</DistanceMeters>
          </Trackpoint>
          <Trackpoint>
            <Time>2021-08-12T08:35:21.000Z</Time>
            <Position>
              <LatitudeDegrees>43.304219953715801239013671875</LatitudeDegrees>
              <LongitudeDegrees>-1.953534968197345733642578125</LongitudeDegrees>
            </Position>
            <AltitudeMeters>34.59999847412109375</AltitudeMeters>
            <DistanceMeters>NAN</DistanceMeters>
          </Trackpoint>
          <Trackpoint>
            <Time>2021-08-12T08:35:24.000Z</Time>
            <Position>
              <LatitudeDegrees>43.3041631244122982025146484375</LatitudeDegrees>
              <LongitudeDegrees>-1.9534952379763126373291015625</LongitudeDegrees>
            </Position>
            <AltitudeMeters>34.59999847412109375</AltitudeMeters>
            <DistanceMeters>NAN</DistanceMeters>
          </Trackpoint>
          <Trackpoint>
            <Time>2021-08-12T08:35:27.000Z</Time>
            <Position>
              <LatitudeDegrees>43.3040762878954410552978515625</LatitudeDegrees>
              <LongitudeDegrees>-1.95344519801437854766845703125</LongitudeDegrees>
            </Position>
            <AltitudeMeters>34.200000762939453125</AltitudeMeters>
            <DistanceMeters>NAN</DistanceMeters>
          </Trackpoint>
          <Trackpoint>
            <Time>2021-08-12T08:35:29.000Z</Time>
            <Position>
              <LatitudeDegrees>43.3040142618119716644287109375</LatitudeDegrees>
              <LongitudeDegrees>-1.9534104131162166595458984375</LongitudeDegrees>
            </Position>
            <AltitudeMeters>33.799999237060546875</AltitudeMeters>
            <DistanceMeters>NAN</DistanceMeters>
          </Trackpoint>
          <Trackpoint>
            <Time>2021-08-12T08:35:30.000Z</Time>
            <Position>
              <LatitudeDegrees>43.30398333258926868438720703125</LatitudeDegrees>
              <LongitudeDegrees>-1.95338912308216094970703125</LongitudeDegrees>
            </Position>
            <AltitudeMeters>33.799999237060546875</AltitudeMeters>
            <DistanceMeters>NAN</DistanceMeters>
          </Trackpoint>
          <Trackpoint>
            <Time>2021-08-12T08:35:33.000Z</Time>
            <Position>
              <LatitudeDegrees>43.30388509668409824371337890625</LatitudeDegrees>
              <LongitudeDegrees>-1.953322403132915496826171875</LongitudeDegrees>
            </Position>
            <AltitudeMeters>32.799999237060546875</AltitudeMeters>
            <DistanceMeters>NAN</DistanceMeters>
          </Trackpoint>
          <Trackpoint>
            <Time>2021-08-12T08:35:36.000Z</Time>
            <Position>
              <LatitudeDegrees>43.30378132872283458709716796875</LatitudeDegrees>
              <LongitudeDegrees>-1.95325434207916259765625</LongitudeDegrees>
            </Position>
            <AltitudeMeters>31</AltitudeMeters>
            <DistanceMeters>NAN</DistanceMeters>
          </Trackpoint>
          <Trackpoint>
            <Time>2021-08-12T08:35:38.000Z</Time>
            <Position>
              <LatitudeDegrees>43.30370999872684478759765625</LatitudeDegrees>
              <LongitudeDegrees>-1.95321477949619293212890625</LongitudeDegrees>
            </Position>
            <AltitudeMeters>29.6000003814697265625</AltitudeMeters>
            <DistanceMeters>NAN</DistanceMeters>
          </Trackpoint>
          <Trackpoint>
            <Time>2021-08-12T08:35:40.000Z</Time>
            <Position>
              <LatitudeDegrees>43.30363531596958637237548828125</LatitudeDegrees>
              <LongitudeDegrees>-1.9531951658427715301513671875</LongitudeDegrees>
            </Position>
            <AltitudeMeters>28.3999996185302734375</AltitudeMeters>
            <DistanceMeters>NAN</DistanceMeters>
          </Trackpoint>
          <Trackpoint>
            <Time>2021-08-12T08:35:41.000Z</Time>
            <Position>
              <LatitudeDegrees>43.30359407700598239898681640625</LatitudeDegrees>
              <LongitudeDegrees>-1.95319323800504207611083984375</LongitudeDegrees>
            </Position>
            <AltitudeMeters>27.799999237060546875</AltitudeMeters>
            <DistanceMeters>NAN</DistanceMeters>
          </Trackpoint>
          <Trackpoint>
            <Time>2021-08-12T08:35:42.000Z</Time>
            <Position>
              <LatitudeDegrees>43.3035559393465518951416015625</LatitudeDegrees>
              <LongitudeDegrees>-1.95319960825145244598388671875</LongitudeDegrees>
            </Position>
            <AltitudeMeters>27.3999996185302734375</AltitudeMeters>
            <DistanceMeters>NAN</DistanceMeters>
          </Trackpoint>
          <Trackpoint>
            <Time>2021-08-12T08:35:44.000Z</Time>
            <Position>
              <LatitudeDegrees>43.30349533818662166595458984375</LatitudeDegrees>
              <LongitudeDegrees>-1.9532139413058757781982421875</LongitudeDegrees>
            </Position>
            <AltitudeMeters>26</AltitudeMeters>
            <DistanceMeters>NAN</DistanceMeters>
          </Trackpoint>
          <Trackpoint>
            <Time>2021-08-12T08:35:45.000Z</Time>
            <Position>
              <LatitudeDegrees>43.3034677617251873016357421875</LatitudeDegrees>
              <LongitudeDegrees>-1.953217126429080963134765625</LongitudeDegrees>
            </Position>
            <AltitudeMeters>25.200000762939453125</AltitudeMeters>
            <DistanceMeters>NAN</DistanceMeters>
          </Trackpoint>
          <Trackpoint>
            <Time>2021-08-12T08:35:46.000Z</Time>
            <Position>
              <LatitudeDegrees>43.30343917943537235260009765625</LatitudeDegrees>
              <LongitudeDegrees>-1.95321452803909778594970703125</LongitudeDegrees>
            </Position>
            <AltitudeMeters>24.3999996185302734375</AltitudeMeters>
            <DistanceMeters>NAN</DistanceMeters>
          </Trackpoint>
          <Trackpoint>
            <Time>2021-08-12T08:35:47.000Z</Time>
            <Position>
              <LatitudeDegrees>43.303414285182952880859375</LatitudeDegrees>
              <LongitudeDegrees>-1.9532100856304168701171875</LongitudeDegrees>
            </Position>
            <AltitudeMeters>23.3999996185302734375</AltitudeMeters>
            <DistanceMeters>NAN</DistanceMeters>
          </Trackpoint>
          <Trackpoint>
            <Time>2021-08-12T08:35:48.000Z</Time>
            <Position>
              <LatitudeDegrees>43.30338989384472370147705078125</LatitudeDegrees>
              <LongitudeDegrees>-1.95320195518434047698974609375</LongitudeDegrees>
            </Position>
            <AltitudeMeters>22.6000003814697265625</AltitudeMeters>
            <DistanceMeters>NAN</DistanceMeters>
          </Trackpoint>
          <Trackpoint>
            <Time>2021-08-12T08:35:50.000Z</Time>
            <Position>
              <LatitudeDegrees>43.3033282868564128875732421875</LatitudeDegrees>
              <LongitudeDegrees>-1.953167505562305450439453125</LongitudeDegrees>
            </Position>
            <AltitudeMeters>21.200000762939453125</AltitudeMeters>
            <DistanceMeters>NAN</DistanceMeters>
          </Trackpoint>
          <Trackpoint>
            <Time>2021-08-12T08:35:52.000Z</Time>
            <Position>
              <LatitudeDegrees>43.30326450057327747344970703125</LatitudeDegrees>
              <LongitudeDegrees>-1.9531260989606380462646484375</LongitudeDegrees>
            </Position>
            <AltitudeMeters>20.3999996185302734375</AltitudeMeters>
            <DistanceMeters>NAN</DistanceMeters>
          </Trackpoint>
          <Trackpoint>
            <Time>2021-08-12T08:35:53.000Z</Time>
            <Position>
              <LatitudeDegrees>43.3032401092350482940673828125</LatitudeDegrees>
              <LongitudeDegrees>-1.953109167516231536865234375</LongitudeDegrees>
            </Position>
            <AltitudeMeters>20.200000762939453125</AltitudeMeters>
            <DistanceMeters>NAN</DistanceMeters>
          </Trackpoint>
          <Trackpoint>
            <Time>2021-08-12T08:35:54.000Z</Time>
            <Position>
              <LatitudeDegrees>43.30321856774389743804931640625</LatitudeDegrees>
              <LongitudeDegrees>-1.9530979357659816741943359375</LongitudeDegrees>
            </Position>
            <AltitudeMeters>19.799999237060546875</AltitudeMeters>
            <DistanceMeters>NAN</DistanceMeters>
          </Trackpoint>
          <Trackpoint>
            <Time>2021-08-12T08:35:55.000Z</Time>
            <Position>
              <LatitudeDegrees>43.30320063047111034393310546875</LatitudeDegrees>
              <LongitudeDegrees>-1.953080333769321441650390625</LongitudeDegrees>
            </Position>
            <AltitudeMeters>19.6000003814697265625</AltitudeMeters>
            <DistanceMeters>NAN</DistanceMeters>
          </Trackpoint>
          <Trackpoint>
            <Time>2021-08-12T08:35:56.000Z</Time>
            <Position>
              <LatitudeDegrees>43.30318562686443328857421875</LatitudeDegrees>
              <LongitudeDegrees>-1.95306080393493175506591796875</LongitudeDegrees>
            </Position>
            <AltitudeMeters>19.3999996185302734375</AltitudeMeters>
            <DistanceMeters>NAN</DistanceMeters>
          </Trackpoint>
          <Trackpoint>
            <Time>2021-08-12T08:35:57.000Z</Time>
            <Position>
              <LatitudeDegrees>43.3031723834574222564697265625</LatitudeDegrees>
              <LongitudeDegrees>-1.95303750224411487579345703125</LongitudeDegrees>
            </Position>
            <AltitudeMeters>19.3999996185302734375</AltitudeMeters>
            <DistanceMeters>NAN</DistanceMeters>
          </Trackpoint>
          <Trackpoint>
            <Time>2021-08-12T08:35:58.000Z</Time>
            <Position>
              <LatitudeDegrees>43.30315955914556980133056640625</LatitudeDegrees>
              <LongitudeDegrees>-1.9530067406594753265380859375</LongitudeDegrees>
            </Position>
            <AltitudeMeters>19.3999996185302734375</AltitudeMeters>
            <DistanceMeters>NAN</DistanceMeters>
          </Trackpoint>
          <Trackpoint>
            <Time>2021-08-12T08:35:59.000Z</Time>
            <Position>
              <LatitudeDegrees>43.30314564518630504608154296875</LatitudeDegrees>
              <LongitudeDegrees>-1.9529745541512966156005859375</LongitudeDegrees>
            </Position>
            <AltitudeMeters>19.3999996185302734375</AltitudeMeters>
            <DistanceMeters>NAN</DistanceMeters>
          </Trackpoint>
          <Trackpoint>
            <Time>2021-08-12T08:36:04.000Z</Time>
            <Position>
              <LatitudeDegrees>43.3031230978667736053466796875</LatitudeDegrees>
              <LongitudeDegrees>-1.95278956554830074310302734375</LongitudeDegrees>
            </Position>
            <AltitudeMeters>19.3999996185302734375</AltitudeMeters>
            <DistanceMeters>NAN</DistanceMeters>
          </Trackpoint>
          <Trackpoint>
            <Time>2021-08-12T08:36:05.000Z</Time>
            <Position>
              <LatitudeDegrees>43.3031287975609302520751953125</LatitudeDegrees>
              <LongitudeDegrees>-1.9527526013553142547607421875</LongitudeDegrees>
            </Position>
            <AltitudeMeters>19.3999996185302734375</AltitudeMeters>
            <DistanceMeters>NAN</DistanceMeters>
          </Trackpoint>
          <Trackpoint>
            <Time>2021-08-12T08:36:11.000Z</Time>
            <Position>
              <LatitudeDegrees>43.3031401969492435455322265625</LatitudeDegrees>
              <LongitudeDegrees>-1.9525413773953914642333984375</LongitudeDegrees>
            </Position>
            <AltitudeMeters>19.3999996185302734375</AltitudeMeters>
            <DistanceMeters>NAN</DistanceMeters>
          </Trackpoint>
          <Trackpoint>
            <Time>2021-08-12T08:36:12.000Z</Time>
            <Position>
              <LatitudeDegrees>43.30314002931118011474609375</LatitudeDegrees>
              <LongitudeDegrees>-1.95251028053462505340576171875</LongitudeDegrees>
            </Position>
            <AltitudeMeters>19.3999996185302734375</AltitudeMeters>
            <DistanceMeters>NAN</DistanceMeters>
          </Trackpoint>
          <Trackpoint>
            <Time>2021-08-12T08:36:13.000Z</Time>
            <Position>
              <LatitudeDegrees>43.30314380116760730743408203125</LatitudeDegrees>
              <LongitudeDegrees>-1.95247993804514408111572265625</LongitudeDegrees>
            </Position>
            <AltitudeMeters>19.6000003814697265625</AltitudeMeters>
            <DistanceMeters>NAN</DistanceMeters>
          </Trackpoint>
          <Trackpoint>
            <Time>2021-08-12T08:36:14.000Z</Time>
            <Position>
              <LatitudeDegrees>43.30314673483371734619140625</LatitudeDegrees>
              <LongitudeDegrees>-1.9524478353559970855712890625</LongitudeDegrees>
            </Position>
            <AltitudeMeters>19.6000003814697265625</AltitudeMeters>
            <DistanceMeters>NAN</DistanceMeters>
          </Trackpoint>
          <Trackpoint>
            <Time>2021-08-12T08:36:15.000Z</Time>
            <Position>
              <LatitudeDegrees>43.3031509257853031158447265625</LatitudeDegrees>
              <LongitudeDegrees>-1.9524143077433109283447265625</LongitudeDegrees>
            </Position>
            <AltitudeMeters>19.6000003814697265625</AltitudeMeters>
            <DistanceMeters>NAN</DistanceMeters>
          </Trackpoint>
          <Trackpoint>
            <Time>2021-08-12T08:36:22.000Z</Time>
            <Position>
              <LatitudeDegrees>43.3031700365245342254638671875</LatitudeDegrees>
              <LongitudeDegrees>-1.95215924642980098724365234375</LongitudeDegrees>
            </Position>
            <AltitudeMeters>19.799999237060546875</AltitudeMeters>
            <DistanceMeters>NAN</DistanceMeters>
          </Trackpoint>
          <Trackpoint>
            <Time>2021-08-12T08:36:28.000Z</Time>
            <Position>
              <LatitudeDegrees>43.3031807653605937957763671875</LatitudeDegrees>
              <LongitudeDegrees>-1.95197761058807373046875</LongitudeDegrees>
            </Position>
            <AltitudeMeters>20.200000762939453125</AltitudeMeters>
            <DistanceMeters>NAN</DistanceMeters>
          </Trackpoint>
          <Trackpoint>
            <Time>2021-08-12T08:36:29.000Z</Time>
            <Position>
              <LatitudeDegrees>43.30318202264606952667236328125</LatitudeDegrees>
              <LongitudeDegrees>-1.95194500498473644256591796875</LongitudeDegrees>
            </Position>
            <AltitudeMeters>20.200000762939453125</AltitudeMeters>
            <DistanceMeters>NAN</DistanceMeters>
          </Trackpoint>
          <Trackpoint>
            <Time>2021-08-12T08:36:30.000Z</Time>
            <Position>
              <LatitudeDegrees>43.3031841181218624114990234375</LatitudeDegrees>
              <LongitudeDegrees>-1.95191449485719203948974609375</LongitudeDegrees>
            </Position>
            <AltitudeMeters>20.200000762939453125</AltitudeMeters>
            <DistanceMeters>NAN</DistanceMeters>
          </Trackpoint>
          <Trackpoint>
            <Time>2021-08-12T08:36:31.000Z</Time>
            <Position>
              <LatitudeDegrees>43.3031831122934818267822265625</LatitudeDegrees>
              <LongitudeDegrees>-1.95188599638640880584716796875</LongitudeDegrees>
            </Position>
            <AltitudeMeters>20.200000762939453125</AltitudeMeters>
            <DistanceMeters>NAN</DistanceMeters>
          </Trackpoint>
          <Trackpoint>
            <Time>2021-08-12T08:36:32.000Z</Time>
            <Position>
              <LatitudeDegrees>43.303180597722530364990234375</LatitudeDegrees>
              <LongitudeDegrees>-1.95185883902013301849365234375</LongitudeDegrees>
            </Position>
            <AltitudeMeters>20.3999996185302734375</AltitudeMeters>
            <DistanceMeters>NAN</DistanceMeters>
          </Trackpoint>
          <Trackpoint>
            <Time>2021-08-12T08:36:33.000Z</Time>
            <Position>
              <LatitudeDegrees>43.30317892134189605712890625</LatitudeDegrees>
              <LongitudeDegrees>-1.95183553732931613922119140625</LongitudeDegrees>
            </Position>
            <AltitudeMeters>20.3999996185302734375</AltitudeMeters>
            <DistanceMeters>NAN</DistanceMeters>
          </Trackpoint>
          <Trackpoint>
            <Time>2021-08-12T08:36:34.000Z</Time>
            <Position>
              <LatitudeDegrees>43.3031777478754520416259765625</LatitudeDegrees>
              <LongitudeDegrees>-1.9518094696104526519775390625</LongitudeDegrees>
            </Position>
            <AltitudeMeters>20.3999996185302734375</AltitudeMeters>
            <DistanceMeters>NAN</DistanceMeters>
          </Trackpoint>
          <Trackpoint>
            <Time>2021-08-12T08:36:35.000Z</Time>
            <Position>
              <LatitudeDegrees>43.30317355692386627197265625</LatitudeDegrees>
              <LongitudeDegrees>-1.95178708992898464202880859375</LongitudeDegrees>
            </Position>
            <AltitudeMeters>20.6000003814697265625</AltitudeMeters>
            <DistanceMeters>NAN</DistanceMeters>
          </Trackpoint>
          <Trackpoint>
            <Time>2021-08-12T08:36:36.000Z</Time>
            <Position>
              <LatitudeDegrees>43.303166516125202178955078125</LatitudeDegrees>
              <LongitudeDegrees>-1.951766721904277801513671875</LongitudeDegrees>
            </Position>
            <AltitudeMeters>20.6000003814697265625</AltitudeMeters>
            <DistanceMeters>NAN</DistanceMeters>
          </Trackpoint>
          <Trackpoint>
            <Time>2021-08-12T08:36:37.000Z</Time>
            <Position>
              <LatitudeDegrees>43.30315612256526947021484375</LatitudeDegrees>
              <LongitudeDegrees>-1.9517477788031101226806640625</LongitudeDegrees>
            </Position>
            <AltitudeMeters>20.799999237060546875</AltitudeMeters>
            <DistanceMeters>NAN</DistanceMeters>
          </Trackpoint>
          <Trackpoint>
            <Time>2021-08-12T08:36:38.000Z</Time>
            <Position>
              <LatitudeDegrees>43.303145729005336761474609375</LatitudeDegrees>
              <LongitudeDegrees>-1.95173009298741817474365234375</LongitudeDegrees>
            </Position>
            <AltitudeMeters>20.799999237060546875</AltitudeMeters>
            <DistanceMeters>NAN</DistanceMeters>
          </Trackpoint>
          <Trackpoint>
            <Time>2021-08-12T08:36:39.000Z</Time>
            <Position>
              <LatitudeDegrees>43.3031328208744525909423828125</LatitudeDegrees>
              <LongitudeDegrees>-1.95171676576137542724609375</LongitudeDegrees>
            </Position>
            <AltitudeMeters>20.799999237060546875</AltitudeMeters>
            <DistanceMeters>NAN</DistanceMeters>
          </Trackpoint>
          <Trackpoint>
            <Time>2021-08-12T08:36:40.000Z</Time>
            <Position>
              <LatitudeDegrees>43.3031200803816318511962890625</LatitudeDegrees>
              <LongitudeDegrees>-1.951705701649188995361328125</LongitudeDegrees>
            </Position>
            <AltitudeMeters>20.799999237060546875</AltitudeMeters>
            <DistanceMeters>NAN</DistanceMeters>
          </Trackpoint>
          <Trackpoint>
            <Time>2021-08-12T08:36:41.000Z</Time>
            <Position>
              <LatitudeDegrees>43.30310490913689136505126953125</LatitudeDegrees>
              <LongitudeDegrees>-1.9516954757273197174072265625</LongitudeDegrees>
            </Position>
            <AltitudeMeters>21.200000762939453125</AltitudeMeters>
            <DistanceMeters>NAN</DistanceMeters>
          </Trackpoint>
          <Trackpoint>
            <Time>2021-08-12T08:36:42.000Z</Time>
            <Position>
              <LatitudeDegrees>43.30309216864407062530517578125</LatitudeDegrees>
              <LongitudeDegrees>-1.95168265141546726226806640625</LongitudeDegrees>
            </Position>
            <AltitudeMeters>21.200000762939453125</AltitudeMeters>
            <DistanceMeters>NAN</DistanceMeters>
          </Trackpoint>
          <Trackpoint>
            <Time>2021-08-12T08:36:43.000Z</Time>
            <Position>
              <LatitudeDegrees>43.30307959578931331634521484375</LatitudeDegrees>
              <LongitudeDegrees>-1.95166655816137790679931640625</LongitudeDegrees>
            </Position>
            <AltitudeMeters>21.3999996185302734375</AltitudeMeters>
            <DistanceMeters>NAN</DistanceMeters>
          </Trackpoint>
          <Trackpoint>
            <Time>2021-08-12T08:36:44.000Z</Time>
            <Position>
              <LatitudeDegrees>43.3030650950968265533447265625</LatitudeDegrees>
              <LongitudeDegrees>-1.95165214128792285919189453125</LongitudeDegrees>
            </Position>
            <AltitudeMeters>21.6000003814697265625</AltitudeMeters>
            <DistanceMeters>NAN</DistanceMeters>
          </Trackpoint>
          <Trackpoint>
            <Time>2021-08-12T08:36:45.000Z</Time>
            <Position>
              <LatitudeDegrees>43.3030503429472446441650390625</LatitudeDegrees>
              <LongitudeDegrees>-1.95164208300411701202392578125</LongitudeDegrees>
            </Position>
            <AltitudeMeters>21.799999237060546875</AltitudeMeters>
            <DistanceMeters>NAN</DistanceMeters>
          </Trackpoint>
          <Trackpoint>
            <Time>2021-08-12T08:36:46.000Z</Time>
            <Position>
              <LatitudeDegrees>43.30303466878831386566162109375</LatitudeDegrees>
              <LongitudeDegrees>-1.9516311027109622955322265625</LongitudeDegrees>
            </Position>
            <AltitudeMeters>22</AltitudeMeters>
            <DistanceMeters>NAN</DistanceMeters>
          </Trackpoint>
          <Trackpoint>
            <Time>2021-08-12T08:36:48.000Z</Time>
            <Position>
              <LatitudeDegrees>43.30300549976527690887451171875</LatitudeDegrees>
              <LongitudeDegrees>-1.95160754956305027008056640625</LongitudeDegrees>
            </Position>
            <AltitudeMeters>22.200000762939453125</AltitudeMeters>
            <DistanceMeters>NAN</DistanceMeters>
          </Trackpoint>
          <Trackpoint>
            <Time>2021-08-12T08:36:50.000Z</Time>
            <Position>
              <LatitudeDegrees>43.3029775880277156829833984375</LatitudeDegrees>
              <LongitudeDegrees>-1.95158659480512142181396484375</LongitudeDegrees>
            </Position>
            <AltitudeMeters>22.200000762939453125</AltitudeMeters>
            <DistanceMeters>NAN</DistanceMeters>
          </Trackpoint>
          <Trackpoint>
            <Time>2021-08-12T08:36:51.000Z</Time>
            <Position>
              <LatitudeDegrees>43.3029628358781337738037109375</LatitudeDegrees>
              <LongitudeDegrees>-1.95158223621547222137451171875</LongitudeDegrees>
            </Position>
            <AltitudeMeters>22.3999996185302734375</AltitudeMeters>
            <DistanceMeters>NAN</DistanceMeters>
          </Trackpoint>
          <Trackpoint>
            <Time>2021-08-12T08:36:52.000Z</Time>
            <Position>
              <LatitudeDegrees>43.30294297076761722564697265625</LatitudeDegrees>
              <LongitudeDegrees>-1.9515838287770748138427734375</LongitudeDegrees>
            </Position>
            <AltitudeMeters>22.3999996185302734375</AltitudeMeters>
            <DistanceMeters>NAN</DistanceMeters>
          </Trackpoint>
          <Trackpoint>
            <Time>2021-08-12T08:36:53.000Z</Time>
            <Position>
              <LatitudeDegrees>43.302921764552593231201171875</LatitudeDegrees>
              <LongitudeDegrees>-1.9515873491764068603515625</LongitudeDegrees>
            </Position>
            <AltitudeMeters>22.6000003814697265625</AltitudeMeters>
            <DistanceMeters>NAN</DistanceMeters>
          </Trackpoint>
          <Trackpoint>
            <Time>2021-08-12T08:36:54.000Z</Time>
            <Position>
              <LatitudeDegrees>43.30289837904274463653564453125</LatitudeDegrees>
              <LongitudeDegrees>-1.95159346796572208404541015625</LongitudeDegrees>
            </Position>
            <AltitudeMeters>22.6000003814697265625</AltitudeMeters>
            <DistanceMeters>NAN</DistanceMeters>
          </Trackpoint>
          <Trackpoint>
            <Time>2021-08-12T08:36:55.000Z</Time>
            <Position>
              <LatitudeDegrees>43.30287708900868892669677734375</LatitudeDegrees>
              <LongitudeDegrees>-1.95160537026822566986083984375</LongitudeDegrees>
            </Position>
            <AltitudeMeters>22.799999237060546875</AltitudeMeters>
            <DistanceMeters>NAN</DistanceMeters>
          </Trackpoint>
          <Trackpoint>
            <Time>2021-08-12T08:36:56.000Z</Time>
            <Position>
              <LatitudeDegrees>43.30285839736461639404296875</LatitudeDegrees>
              <LongitudeDegrees>-1.95162288844585418701171875</LongitudeDegrees>
            </Position>
            <AltitudeMeters>22.799999237060546875</AltitudeMeters>
            <DistanceMeters>NAN</DistanceMeters>
          </Trackpoint>
          <Trackpoint>
            <Time>2021-08-12T08:36:57.000Z</Time>
            <Position>
              <LatitudeDegrees>43.3028421364724636077880859375</LatitudeDegrees>
              <LongitudeDegrees>-1.95164476521313190460205078125</LongitudeDegrees>
            </Position>
            <AltitudeMeters>22.799999237060546875</AltitudeMeters>
            <DistanceMeters>NAN</DistanceMeters>
          </Trackpoint>
          <Trackpoint>
            <Time>2021-08-12T08:36:58.000Z</Time>
            <Position>
              <LatitudeDegrees>43.30282528884708881378173828125</LatitudeDegrees>
              <LongitudeDegrees>-1.95166924037039279937744140625</LongitudeDegrees>
            </Position>
            <AltitudeMeters>22.799999237060546875</AltitudeMeters>
            <DistanceMeters>NAN</DistanceMeters>
          </Trackpoint>
          <Trackpoint>
            <Time>2021-08-12T08:36:59.000Z</Time>
            <Position>
              <LatitudeDegrees>43.3028096146881580352783203125</LatitudeDegrees>
              <LongitudeDegrees>-1.9516954757273197174072265625</LongitudeDegrees>
            </Position>
            <AltitudeMeters>22.799999237060546875</AltitudeMeters>
            <DistanceMeters>NAN</DistanceMeters>
          </Trackpoint>
          <Trackpoint>
            <Time>2021-08-12T08:37:01.000Z</Time>
            <Position>
              <LatitudeDegrees>43.302771560847759246826171875</LatitudeDegrees>
              <LongitudeDegrees>-1.95175859145820140838623046875</LongitudeDegrees>
            </Position>
            <AltitudeMeters>22.799999237060546875</AltitudeMeters>
            <DistanceMeters>NAN</DistanceMeters>
          </Trackpoint>
          <Trackpoint>
            <Time>2021-08-12T08:37:04.000Z</Time>
            <Position>
              <LatitudeDegrees>43.3027289807796478271484375</LatitudeDegrees>
              <LongitudeDegrees>-1.95186772383749485015869140625</LongitudeDegrees>
            </Position>
            <AltitudeMeters>21.799999237060546875</AltitudeMeters>
            <DistanceMeters>NAN</DistanceMeters>
          </Trackpoint>
          <Trackpoint>
            <Time>2021-08-12T08:37:05.000Z</Time>
            <Position>
              <LatitudeDegrees>43.3027221076190471649169921875</LatitudeDegrees>
              <LongitudeDegrees>-1.95190242491662502288818359375</LongitudeDegrees>
            </Position>
            <AltitudeMeters>21.6000003814697265625</AltitudeMeters>
            <DistanceMeters>NAN</DistanceMeters>
          </Trackpoint>
          <Trackpoint>
            <Time>2021-08-12T08:37:06.000Z</Time>
            <Position>
              <LatitudeDegrees>43.30272185616195201873779296875</LatitudeDegrees>
              <LongitudeDegrees>-1.95194031111896038055419921875</LongitudeDegrees>
            </Position>
            <AltitudeMeters>21</AltitudeMeters>
            <DistanceMeters>NAN</DistanceMeters>
          </Trackpoint>
          <Trackpoint>
            <Time>2021-08-12T08:37:07.000Z</Time>
            <Position>
              <LatitudeDegrees>43.30272118560969829559326171875</LatitudeDegrees>
              <LongitudeDegrees>-1.9519774429500102996826171875</LongitudeDegrees>
            </Position>
            <AltitudeMeters>20.200000762939453125</AltitudeMeters>
            <DistanceMeters>NAN</DistanceMeters>
          </Trackpoint>
          <Trackpoint>
            <Time>2021-08-12T08:37:09.000Z</Time>
            <Position>
              <LatitudeDegrees>43.30272437073290348052978515625</LatitudeDegrees>
              <LongitudeDegrees>-1.95205028168857097625732421875</LongitudeDegrees>
            </Position>
            <AltitudeMeters>19.3999996185302734375</AltitudeMeters>
            <DistanceMeters>NAN</DistanceMeters>
          </Trackpoint>
          <Trackpoint>
            <Time>2021-08-12T08:37:11.000Z</Time>
            <Position>
              <LatitudeDegrees>43.30273275263607501983642578125</LatitudeDegrees>
              <LongitudeDegrees>-1.95211951620876789093017578125</LongitudeDegrees>
            </Position>
            <AltitudeMeters>18.3999996185302734375</AltitudeMeters>
            <DistanceMeters>NAN</DistanceMeters>
          </Trackpoint>
          <Trackpoint>
            <Time>2021-08-12T08:37:12.000Z</Time>
            <Position>
              <LatitudeDegrees>43.3027370274066925048828125</LatitudeDegrees>
              <LongitudeDegrees>-1.95215396583080291748046875</LongitudeDegrees>
            </Position>
            <AltitudeMeters>18</AltitudeMeters>
            <DistanceMeters>NAN</DistanceMeters>
          </Trackpoint>
          <Trackpoint>
            <Time>2021-08-12T08:37:13.000Z</Time>
            <Position>
              <LatitudeDegrees>43.30274079926311969757080078125</LatitudeDegrees>
              <LongitudeDegrees>-1.95218539796769618988037109375</LongitudeDegrees>
            </Position>
            <AltitudeMeters>17.3999996185302734375</AltitudeMeters>
            <DistanceMeters>NAN</DistanceMeters>
          </Trackpoint>
          <Trackpoint>
            <Time>2021-08-12T08:37:14.000Z</Time>
            <Position>
              <LatitudeDegrees>43.30274281091988086700439453125</LatitudeDegrees>
              <LongitudeDegrees>-1.95221624337136745452880859375</LongitudeDegrees>
            </Position>
            <AltitudeMeters>16.6000003814697265625</AltitudeMeters>
            <DistanceMeters>NAN</DistanceMeters>
          </Trackpoint>
          <Trackpoint>
            <Time>2021-08-12T08:37:15.000Z</Time>
            <Position>
              <LatitudeDegrees>43.3027415536344051361083984375</LatitudeDegrees>
              <LongitudeDegrees>-1.95224583148956298828125</LongitudeDegrees>
            </Position>
            <AltitudeMeters>16.3999996185302734375</AltitudeMeters>
            <DistanceMeters>NAN</DistanceMeters>
          </Trackpoint>
          <Trackpoint>
            <Time>2021-08-12T08:37:16.000Z</Time>
            <Position>
              <LatitudeDegrees>43.30273895524442195892333984375</LatitudeDegrees>
              <LongitudeDegrees>-1.9522741623222827911376953125</LongitudeDegrees>
            </Position>
            <AltitudeMeters>15.80000019073486328125</AltitudeMeters>
            <DistanceMeters>NAN</DistanceMeters>
          </Trackpoint>
          <Trackpoint>
            <Time>2021-08-12T08:37:17.000Z</Time>
            <Position>
              <LatitudeDegrees>43.30273560248315334320068359375</LatitudeDegrees>
              <LongitudeDegrees>-1.95230039767920970916748046875</LongitudeDegrees>
            </Position>
            <AltitudeMeters>15.3999996185302734375</AltitudeMeters>
            <DistanceMeters>NAN</DistanceMeters>
          </Trackpoint>
          <Trackpoint>
            <Time>2021-08-12T08:37:18.000Z</Time>
            <Position>
              <LatitudeDegrees>43.3027325011789798736572265625</LatitudeDegrees>
              <LongitudeDegrees>-1.95232101716101169586181640625</LongitudeDegrees>
            </Position>
            <AltitudeMeters>14.80000019073486328125</AltitudeMeters>
            <DistanceMeters>NAN</DistanceMeters>
          </Trackpoint>
          <Trackpoint>
            <Time>2021-08-12T08:37:19.000Z</Time>
            <Position>
              <LatitudeDegrees>43.30272696912288665771484375</LatitudeDegrees>
              <LongitudeDegrees>-1.95233828388154506683349609375</LongitudeDegrees>
            </Position>
            <AltitudeMeters>14.6000003814697265625</AltitudeMeters>
            <DistanceMeters>NAN</DistanceMeters>
          </Trackpoint>
          <Trackpoint>
            <Time>2021-08-12T08:37:20.000Z</Time>
            <Position>
              <LatitudeDegrees>43.3027190901339054107666015625</LatitudeDegrees>
              <LongitudeDegrees>-1.95235689170658588409423828125</LongitudeDegrees>
            </Position>
            <AltitudeMeters>13.80000019073486328125</AltitudeMeters>
            <DistanceMeters>NAN</DistanceMeters>
          </Trackpoint>
          <Trackpoint>
            <Time>2021-08-12T08:37:21.000Z</Time>
            <Position>
              <LatitudeDegrees>43.30270978622138500213623046875</LatitudeDegrees>
              <LongitudeDegrees>-1.952375583350658416748046875</LongitudeDegrees>
            </Position>
            <AltitudeMeters>13.19999980926513671875</AltitudeMeters>
            <DistanceMeters>NAN</DistanceMeters>
          </Trackpoint>
          <Trackpoint>
            <Time>2021-08-12T08:37:25.000Z</Time>
            <Position>
              <LatitudeDegrees>43.30266217701137065887451171875</LatitudeDegrees>
              <LongitudeDegrees>-1.952431239187717437744140625</LongitudeDegrees>
            </Position>
            <AltitudeMeters>12</AltitudeMeters>
            <DistanceMeters>NAN</DistanceMeters>
          </Trackpoint>
          <Trackpoint>
            <Time>2021-08-12T08:37:26.000Z</Time>
            <Position>
              <LatitudeDegrees>43.30263988114893436431884765625</LatitudeDegrees>
              <LongitudeDegrees>-1.95244121365249156951904296875</LongitudeDegrees>
            </Position>
            <AltitudeMeters>12</AltitudeMeters>
            <DistanceMeters>NAN</DistanceMeters>
          </Trackpoint>
          <Trackpoint>
            <Time>2021-08-12T08:37:27.000Z</Time>
            <Position>
              <LatitudeDegrees>43.302615992724895477294921875</LatitudeDegrees>
              <LongitudeDegrees>-1.95244674570858478546142578125</LongitudeDegrees>
            </Position>
            <AltitudeMeters>11.80000019073486328125</AltitudeMeters>
            <DistanceMeters>NAN</DistanceMeters>
          </Trackpoint>
          <Trackpoint>
            <Time>2021-08-12T08:37:28.000Z</Time>
            <Position>
              <LatitudeDegrees>43.302595205605030059814453125</LatitudeDegrees>
              <LongitudeDegrees>-1.9524508528411388397216796875</LongitudeDegrees>
            </Position>
            <AltitudeMeters>11.3999996185302734375</AltitudeMeters>
            <DistanceMeters>NAN</DistanceMeters>
          </Trackpoint>
          <Trackpoint>
            <Time>2021-08-12T08:37:29.000Z</Time>
            <Position>
              <LatitudeDegrees>43.30257919616997241973876953125</LatitudeDegrees>
              <LongitudeDegrees>-1.95245713926851749420166015625</LongitudeDegrees>
            </Position>
            <AltitudeMeters>11.19999980926513671875</AltitudeMeters>
            <DistanceMeters>NAN</DistanceMeters>
          </Trackpoint>
          <Trackpoint>
            <Time>2021-08-12T08:37:30.000Z</Time>
            <Position>
              <LatitudeDegrees>43.30256628803908824920654296875</LatitudeDegrees>
              <LongitudeDegrees>-1.9524645991623401641845703125</LongitudeDegrees>
            </Position>
            <AltitudeMeters>11</AltitudeMeters>
            <DistanceMeters>NAN</DistanceMeters>
          </Trackpoint>
          <Trackpoint>
            <Time>2021-08-12T08:37:31.000Z</Time>
            <Position>
              <LatitudeDegrees>43.3025625161826610565185546875</LatitudeDegrees>
              <LongitudeDegrees>-1.95246434770524501800537109375</LongitudeDegrees>
            </Position>
            <AltitudeMeters>10.80000019073486328125</AltitudeMeters>
            <DistanceMeters>NAN</DistanceMeters>
          </Trackpoint>
          <Trackpoint>
            <Time>2021-08-12T08:37:32.000Z</Time>
            <Position>
              <LatitudeDegrees>43.30256125889718532562255859375</LatitudeDegrees>
              <LongitudeDegrees>-1.9524671137332916259765625</LongitudeDegrees>
            </Position>
            <AltitudeMeters>10.3999996185302734375</AltitudeMeters>
            <DistanceMeters>NAN</DistanceMeters>
          </Trackpoint>
          <Trackpoint>
            <Time>2021-08-12T08:37:34.000Z</Time>
            <Position>
              <LatitudeDegrees>43.30256293527781963348388671875</LatitudeDegrees>
              <LongitudeDegrees>-1.952470131218433380126953125</LongitudeDegrees>
            </Position>
            <AltitudeMeters>9.6000003814697265625</AltitudeMeters>
            <DistanceMeters>NAN</DistanceMeters>
          </Trackpoint>
          <Trackpoint>
            <Time>2021-08-12T08:38:11.000Z</Time>
            <Position>
              <LatitudeDegrees>43.3025078661739826202392578125</LatitudeDegrees>
              <LongitudeDegrees>-1.9525443948805332183837890625</LongitudeDegrees>
            </Position>
            <AltitudeMeters>8.80000019073486328125</AltitudeMeters>
            <DistanceMeters>NAN</DistanceMeters>
          </Trackpoint>
          <Trackpoint>
            <Time>2021-08-12T08:38:12.000Z</Time>
            <Position>
              <LatitudeDegrees>43.302491270005702972412109375</LatitudeDegrees>
              <LongitudeDegrees>-1.95256702601909637451171875</LongitudeDegrees>
            </Position>
            <AltitudeMeters>8.80000019073486328125</AltitudeMeters>
            <DistanceMeters>NAN</DistanceMeters>
          </Trackpoint>
          <Trackpoint>
            <Time>2021-08-12T08:38:13.000Z</Time>
            <Position>
              <LatitudeDegrees>43.30248381011188030242919921875</LatitudeDegrees>
              <LongitudeDegrees>-1.952600218355655670166015625</LongitudeDegrees>
            </Position>
            <AltitudeMeters>8.80000019073486328125</AltitudeMeters>
            <DistanceMeters>NAN</DistanceMeters>
          </Trackpoint>
          <Trackpoint>
            <Time>2021-08-12T08:38:14.000Z</Time>
            <Position>
              <LatitudeDegrees>43.30248330719769001007080078125</LatitudeDegrees>
              <LongitudeDegrees>-1.9526345841586589813232421875</LongitudeDegrees>
            </Position>
            <AltitudeMeters>8.6000003814697265625</AltitudeMeters>
            <DistanceMeters>NAN</DistanceMeters>
          </Trackpoint>
          <Trackpoint>
            <Time>2021-08-12T08:38:15.000Z</Time>
            <Position>
              <LatitudeDegrees>43.30248263664543628692626953125</LatitudeDegrees>
              <LongitudeDegrees>-1.95267339237034320831298828125</LongitudeDegrees>
            </Position>
            <AltitudeMeters>8.6000003814697265625</AltitudeMeters>
            <DistanceMeters>NAN</DistanceMeters>
          </Trackpoint>
          <Trackpoint>
            <Time>2021-08-12T08:38:16.000Z</Time>
            <Position>
              <LatitudeDegrees>43.30247844569385051727294921875</LatitudeDegrees>
              <LongitudeDegrees>-1.95271496661007404327392578125</LongitudeDegrees>
            </Position>
            <AltitudeMeters>8.3999996185302734375</AltitudeMeters>
            <DistanceMeters>NAN</DistanceMeters>
          </Trackpoint>
          <Trackpoint>
            <Time>2021-08-12T08:38:17.000Z</Time>
            <Position>
              <LatitudeDegrees>43.3024666272103786468505859375</LatitudeDegrees>
              <LongitudeDegrees>-1.95275955833494663238525390625</LongitudeDegrees>
            </Position>
            <AltitudeMeters>8.3999996185302734375</AltitudeMeters>
            <DistanceMeters>NAN</DistanceMeters>
          </Trackpoint>
          <Trackpoint>
            <Time>2021-08-12T08:38:18.000Z</Time>
            <Position>
              <LatitudeDegrees>43.30244927667081356048583984375</LatitudeDegrees>
              <LongitudeDegrees>-1.952801048755645751953125</LongitudeDegrees>
            </Position>
            <AltitudeMeters>8.3999996185302734375</AltitudeMeters>
            <DistanceMeters>NAN</DistanceMeters>
          </Trackpoint>
          <Trackpoint>
            <Time>2021-08-12T08:38:19.000Z</Time>
            <Position>
              <LatitudeDegrees>43.3024250529706478118896484375</LatitudeDegrees>
              <LongitudeDegrees>-1.952838264405727386474609375</LongitudeDegrees>
            </Position>
            <AltitudeMeters>8.19999980926513671875</AltitudeMeters>
            <DistanceMeters>NAN</DistanceMeters>
          </Trackpoint>
          <Trackpoint>
            <Time>2021-08-12T08:38:20.000Z</Time>
            <Position>
              <LatitudeDegrees>43.30239864997565746307373046875</LatitudeDegrees>
              <LongitudeDegrees>-1.95287338458001613616943359375</LongitudeDegrees>
            </Position>
            <AltitudeMeters>8.19999980926513671875</AltitudeMeters>
            <DistanceMeters>NAN</DistanceMeters>
          </Trackpoint>
          <Trackpoint>
            <Time>2021-08-12T08:38:21.000Z</Time>
            <Position>
              <LatitudeDegrees>43.3023734204471111297607421875</LatitudeDegrees>
              <LongitudeDegrees>-1.952908672392368316650390625</LongitudeDegrees>
            </Position>
            <AltitudeMeters>8.19999980926513671875</AltitudeMeters>
            <DistanceMeters>NAN</DistanceMeters>
          </Trackpoint>
          <Trackpoint>
            <Time>2021-08-12T08:38:22.000Z</Time>
            <Position>
              <LatitudeDegrees>43.3023502863943576812744140625</LatitudeDegrees>
              <LongitudeDegrees>-1.95294320583343505859375</LongitudeDegrees>
            </Position>
            <AltitudeMeters>8.19999980926513671875</AltitudeMeters>
            <DistanceMeters>NAN</DistanceMeters>
          </Trackpoint>
          <Trackpoint>
            <Time>2021-08-12T08:38:23.000Z</Time>
            <Position>
              <LatitudeDegrees>43.30232958309352397918701171875</LatitudeDegrees>
              <LongitudeDegrees>-1.95297480560839176177978515625</LongitudeDegrees>
            </Position>
            <AltitudeMeters>8.19999980926513671875</AltitudeMeters>
            <DistanceMeters>NAN</DistanceMeters>
          </Trackpoint>
          <Trackpoint>
            <Time>2021-08-12T08:38:24.000Z</Time>
            <Position>
              <LatitudeDegrees>43.302314914762973785400390625</LatitudeDegrees>
              <LongitudeDegrees>-1.9530050642788410186767578125</LongitudeDegrees>
            </Position>
            <AltitudeMeters>8</AltitudeMeters>
            <DistanceMeters>NAN</DistanceMeters>
          </Trackpoint>
          <Trackpoint>
            <Time>2021-08-12T08:38:25.000Z</Time>
            <Position>
              <LatitudeDegrees>43.30230762250721454620361328125</LatitudeDegrees>
              <LongitudeDegrees>-1.9530357420444488525390625</LongitudeDegrees>
            </Position>
            <AltitudeMeters>8</AltitudeMeters>
            <DistanceMeters>NAN</DistanceMeters>
          </Trackpoint>
          <Trackpoint>
            <Time>2021-08-12T08:38:26.000Z</Time>
            <Position>
              <LatitudeDegrees>43.30229974351823329925537109375</LatitudeDegrees>
              <LongitudeDegrees>-1.95306901820003986358642578125</LongitudeDegrees>
            </Position>
            <AltitudeMeters>8</AltitudeMeters>
            <DistanceMeters>NAN</DistanceMeters>
          </Trackpoint>
          <Trackpoint>
            <Time>2021-08-12T08:38:27.000Z</Time>
            <Position>
              <LatitudeDegrees>43.30228750593960285186767578125</LatitudeDegrees>
              <LongitudeDegrees>-1.95309986360371112823486328125</LongitudeDegrees>
            </Position>
            <AltitudeMeters>8</AltitudeMeters>
            <DistanceMeters>NAN</DistanceMeters>
          </Trackpoint>
          <Trackpoint>
            <Time>2021-08-12T08:38:30.000Z</Time>
            <Position>
              <LatitudeDegrees>43.3022379688918590545654296875</LatitudeDegrees>
              <LongitudeDegrees>-1.9531991891562938690185546875</LongitudeDegrees>
            </Position>
            <AltitudeMeters>7.80000019073486328125</AltitudeMeters>
            <DistanceMeters>NAN</DistanceMeters>
          </Trackpoint>
          <Trackpoint>
            <Time>2021-08-12T08:38:38.000Z</Time>
            <Position>
              <LatitudeDegrees>43.3021625317633152008056640625</LatitudeDegrees>
              <LongitudeDegrees>-1.95350822992622852325439453125</LongitudeDegrees>
            </Position>
            <AltitudeMeters>8</AltitudeMeters>
            <DistanceMeters>NAN</DistanceMeters>
          </Trackpoint>
          <Trackpoint>
            <Time>2021-08-12T08:38:39.000Z</Time>
            <Position>
              <LatitudeDegrees>43.3021578378975391387939453125</LatitudeDegrees>
              <LongitudeDegrees>-1.9535373151302337646484375</LongitudeDegrees>
            </Position>
            <AltitudeMeters>8</AltitudeMeters>
            <DistanceMeters>NAN</DistanceMeters>
          </Trackpoint>
          <Trackpoint>
            <Time>2021-08-12T08:38:40.000Z</Time>
            <Position>
              <LatitudeDegrees>43.3021518029272556304931640625</LatitudeDegrees>
              <LongitudeDegrees>-1.9535656459629535675048828125</LongitudeDegrees>
            </Position>
            <AltitudeMeters>8</AltitudeMeters>
            <DistanceMeters>NAN</DistanceMeters>
          </Trackpoint>
          <Trackpoint>
            <Time>2021-08-12T08:38:41.000Z</Time>
            <Position>
              <LatitudeDegrees>43.30214736051857471466064453125</LatitudeDegrees>
              <LongitudeDegrees>-1.953596659004688262939453125</LongitudeDegrees>
            </Position>
            <AltitudeMeters>8</AltitudeMeters>
            <DistanceMeters>NAN</DistanceMeters>
          </Trackpoint>
          <Trackpoint>
            <Time>2021-08-12T08:38:46.000Z</Time>
            <Position>
              <LatitudeDegrees>43.30211383290588855743408203125</LatitudeDegrees>
              <LongitudeDegrees>-1.95378969423472881317138671875</LongitudeDegrees>
            </Position>
            <AltitudeMeters>8.19999980926513671875</AltitudeMeters>
            <DistanceMeters>NAN</DistanceMeters>
          </Trackpoint>
          <Trackpoint>
            <Time>2021-08-12T08:38:53.000Z</Time>
            <Position>
              <LatitudeDegrees>43.30206437967717647552490234375</LatitudeDegrees>
              <LongitudeDegrees>-1.9540558196604251861572265625</LongitudeDegrees>
            </Position>
            <AltitudeMeters>8.19999980926513671875</AltitudeMeters>
            <DistanceMeters>NAN</DistanceMeters>
          </Trackpoint>
          <Trackpoint>
            <Time>2021-08-12T08:38:54.000Z</Time>
            <Position>
              <LatitudeDegrees>43.30205666832625865936279296875</LatitudeDegrees>
              <LongitudeDegrees>-1.9540896825492382049560546875</LongitudeDegrees>
            </Position>
            <AltitudeMeters>8</AltitudeMeters>
            <DistanceMeters>NAN</DistanceMeters>
          </Trackpoint>
          <Trackpoint>
            <Time>2021-08-12T08:38:55.000Z</Time>
            <Position>
              <LatitudeDegrees>43.302052058279514312744140625</LatitudeDegrees>
              <LongitudeDegrees>-1.95412312634289264678955078125</LongitudeDegrees>
            </Position>
            <AltitudeMeters>8</AltitudeMeters>
            <DistanceMeters>NAN</DistanceMeters>
          </Trackpoint>
          <Trackpoint>
            <Time>2021-08-12T08:38:57.000Z</Time>
            <Position>
              <LatitudeDegrees>43.3020589314401149749755859375</LatitudeDegrees>
              <LongitudeDegrees>-1.95420124568045139312744140625</LongitudeDegrees>
            </Position>
            <AltitudeMeters>8</AltitudeMeters>
            <DistanceMeters>NAN</DistanceMeters>
          </Trackpoint>
          <Trackpoint>
            <Time>2021-08-12T08:38:58.000Z</Time>
            <Position>
              <LatitudeDegrees>43.302074857056140899658203125</LatitudeDegrees>
              <LongitudeDegrees>-1.9542361982166767120361328125</LongitudeDegrees>
            </Position>
            <AltitudeMeters>8</AltitudeMeters>
            <DistanceMeters>NAN</DistanceMeters>
          </Trackpoint>
          <Trackpoint>
            <Time>2021-08-12T08:38:59.000Z</Time>
            <Position>
              <LatitudeDegrees>43.30209405161440372467041015625</LatitudeDegrees>
              <LongitudeDegrees>-1.95426754653453826904296875</LongitudeDegrees>
            </Position>
            <AltitudeMeters>8</AltitudeMeters>
            <DistanceMeters>NAN</DistanceMeters>
          </Trackpoint>
          <Trackpoint>
            <Time>2021-08-12T08:39:00.000Z</Time>
            <Position>
              <LatitudeDegrees>43.3021139167249202728271484375</LatitudeDegrees>
              <LongitudeDegrees>-1.954297721385955810546875</LongitudeDegrees>
            </Position>
            <AltitudeMeters>8</AltitudeMeters>
            <DistanceMeters>NAN</DistanceMeters>
          </Trackpoint>
          <Trackpoint>
            <Time>2021-08-12T08:39:01.000Z</Time>
            <Position>
              <LatitudeDegrees>43.30213277600705623626708984375</LatitudeDegrees>
              <LongitudeDegrees>-1.9543253816664218902587890625</LongitudeDegrees>
            </Position>
            <AltitudeMeters>8</AltitudeMeters>
            <DistanceMeters>NAN</DistanceMeters>
          </Trackpoint>
          <Trackpoint>
            <Time>2021-08-12T08:39:02.000Z</Time>
            <Position>
              <LatitudeDegrees>43.3021518029272556304931640625</LatitudeDegrees>
              <LongitudeDegrees>-1.95434977300465106964111328125</LongitudeDegrees>
            </Position>
            <AltitudeMeters>8</AltitudeMeters>
            <DistanceMeters>NAN</DistanceMeters>
          </Trackpoint>
          <Trackpoint>
            <Time>2021-08-12T08:39:07.000Z</Time>
            <Position>
              <LatitudeDegrees>43.3022735081613063812255859375</LatitudeDegrees>
              <LongitudeDegrees>-1.9544554688036441802978515625</LongitudeDegrees>
            </Position>
            <AltitudeMeters>8</AltitudeMeters>
            <DistanceMeters>NAN</DistanceMeters>
          </Trackpoint>
          <Trackpoint>
            <Time>2021-08-12T08:39:09.000Z</Time>
            <Position>
              <LatitudeDegrees>43.30231449566781520843505859375</LatitudeDegrees>
              <LongitudeDegrees>-1.95448656566441059112548828125</LongitudeDegrees>
            </Position>
            <AltitudeMeters>8</AltitudeMeters>
            <DistanceMeters>NAN</DistanceMeters>
          </Trackpoint>
          <Trackpoint>
            <Time>2021-08-12T08:39:10.000Z</Time>
            <Position>
              <LatitudeDegrees>43.30232924781739711761474609375</LatitudeDegrees>
              <LongitudeDegrees>-1.9545003958046436309814453125</LongitudeDegrees>
            </Position>
            <AltitudeMeters>8</AltitudeMeters>
            <DistanceMeters>NAN</DistanceMeters>
          </Trackpoint>
          <Trackpoint>
            <Time>2021-08-12T08:39:11.000Z</Time>
            <Position>
              <LatitudeDegrees>43.3023435808718204498291015625</LatitudeDegrees>
              <LongitudeDegrees>-1.95451556704938411712646484375</LongitudeDegrees>
            </Position>
            <AltitudeMeters>8</AltitudeMeters>
            <DistanceMeters>NAN</DistanceMeters>
          </Trackpoint>
          <Trackpoint>
            <Time>2021-08-12T08:39:13.000Z</Time>
            <Position>
              <LatitudeDegrees>43.3023754321038722991943359375</LatitudeDegrees>
              <LongitudeDegrees>-1.954562254250049591064453125</LongitudeDegrees>
            </Position>
            <AltitudeMeters>8</AltitudeMeters>
            <DistanceMeters>NAN</DistanceMeters>
          </Trackpoint>
          <Trackpoint>
            <Time>2021-08-12T08:39:15.000Z</Time>
            <Position>
              <LatitudeDegrees>43.30239445902407169342041015625</LatitudeDegrees>
              <LongitudeDegrees>-1.95462771691381931304931640625</LongitudeDegrees>
            </Position>
            <AltitudeMeters>8</AltitudeMeters>
            <DistanceMeters>NAN</DistanceMeters>
          </Trackpoint>
          <Trackpoint>
            <Time>2021-08-12T08:39:16.000Z</Time>
            <Position>
              <LatitudeDegrees>43.30239697359502315521240234375</LatitudeDegrees>
              <LongitudeDegrees>-1.9546666927635669708251953125</LongitudeDegrees>
            </Position>
            <AltitudeMeters>8</AltitudeMeters>
            <DistanceMeters>NAN</DistanceMeters>
          </Trackpoint>
          <Trackpoint>
            <Time>2021-08-12T08:39:17.000Z</Time>
            <Position>
              <LatitudeDegrees>43.3023995719850063323974609375</LatitudeDegrees>
              <LongitudeDegrees>-1.95470399223268032073974609375</LongitudeDegrees>
            </Position>
            <AltitudeMeters>8</AltitudeMeters>
            <DistanceMeters>NAN</DistanceMeters>
          </Trackpoint>
          <Trackpoint>
            <Time>2021-08-12T08:39:18.000Z</Time>
            <Position>
              <LatitudeDegrees>43.30240518786013126373291015625</LatitudeDegrees>
              <LongitudeDegrees>-1.95473684929311275482177734375</LongitudeDegrees>
            </Position>
            <AltitudeMeters>8</AltitudeMeters>
            <DistanceMeters>NAN</DistanceMeters>
          </Trackpoint>
          <Trackpoint>
            <Time>2021-08-12T08:39:24.000Z</Time>
            <Position>
              <LatitudeDegrees>43.30239211209118366241455078125</LatitudeDegrees>
              <LongitudeDegrees>-1.95498176850378513336181640625</LongitudeDegrees>
            </Position>
            <AltitudeMeters>8.19999980926513671875</AltitudeMeters>
            <DistanceMeters>NAN</DistanceMeters>
          </Trackpoint>
          <Trackpoint>
            <Time>2021-08-12T08:39:25.000Z</Time>
            <Position>
              <LatitudeDegrees>43.30237685702741146087646484375</LatitudeDegrees>
              <LongitudeDegrees>-1.95503071881830692291259765625</LongitudeDegrees>
            </Position>
            <AltitudeMeters>8.19999980926513671875</AltitudeMeters>
            <DistanceMeters>NAN</DistanceMeters>
          </Trackpoint>
          <Trackpoint>
            <Time>2021-08-12T08:39:29.000Z</Time>
            <Position>
              <LatitudeDegrees>43.30228038132190704345703125</LatitudeDegrees>
              <LongitudeDegrees>-1.95519701577723026275634765625</LongitudeDegrees>
            </Position>
            <AltitudeMeters>8.19999980926513671875</AltitudeMeters>
            <DistanceMeters>NAN</DistanceMeters>
          </Trackpoint>
          <Trackpoint>
            <Time>2021-08-12T08:39:30.000Z</Time>
            <Position>
              <LatitudeDegrees>43.3022554032504558563232421875</LatitudeDegrees>
              <LongitudeDegrees>-1.9552302919328212738037109375</LongitudeDegrees>
            </Position>
            <AltitudeMeters>8.19999980926513671875</AltitudeMeters>
            <DistanceMeters>NAN</DistanceMeters>
          </Trackpoint>
          <Trackpoint>
            <Time>2021-08-12T08:39:31.000Z</Time>
            <Position>
              <LatitudeDegrees>43.30223017372190952301025390625</LatitudeDegrees>
              <LongitudeDegrees>-1.95526105351746082305908203125</LongitudeDegrees>
            </Position>
            <AltitudeMeters>8.19999980926513671875</AltitudeMeters>
            <DistanceMeters>NAN</DistanceMeters>
          </Trackpoint>
          <Trackpoint>
            <Time>2021-08-12T08:39:32.000Z</Time>
            <Position>
              <LatitudeDegrees>43.30220486037433147430419921875</LatitudeDegrees>
              <LongitudeDegrees>-1.95529055781662464141845703125</LongitudeDegrees>
            </Position>
            <AltitudeMeters>8.19999980926513671875</AltitudeMeters>
            <DistanceMeters>NAN</DistanceMeters>
          </Trackpoint>
          <Trackpoint>
            <Time>2021-08-12T08:39:33.000Z</Time>
            <Position>
              <LatitudeDegrees>43.30217971466481685638427734375</LatitudeDegrees>
              <LongitudeDegrees>-1.95532006211578845977783203125</LongitudeDegrees>
            </Position>
            <AltitudeMeters>8.19999980926513671875</AltitudeMeters>
            <DistanceMeters>NAN</DistanceMeters>
          </Trackpoint>
          <Trackpoint>
            <Time>2021-08-12T08:39:34.000Z</Time>
            <Position>
              <LatitudeDegrees>43.30215540714561939239501953125</LatitudeDegrees>
              <LongitudeDegrees>-1.955349147319793701171875</LongitudeDegrees>
            </Position>
            <AltitudeMeters>8.19999980926513671875</AltitudeMeters>
            <DistanceMeters>NAN</DistanceMeters>
          </Trackpoint>
          <Trackpoint>
            <Time>2021-08-12T08:39:35.000Z</Time>
            <Position>
              <LatitudeDegrees>43.30213076435029506683349609375</LatitudeDegrees>
              <LongitudeDegrees>-1.95537890307605266571044921875</LongitudeDegrees>
            </Position>
            <AltitudeMeters>8.19999980926513671875</AltitudeMeters>
            <DistanceMeters>NAN</DistanceMeters>
          </Trackpoint>
          <Trackpoint>
            <Time>2021-08-12T08:39:36.000Z</Time>
            <Position>
              <LatitudeDegrees>43.3021080493927001953125</LatitudeDegrees>
              <LongitudeDegrees>-1.95541108958423137664794921875</LongitudeDegrees>
            </Position>
            <AltitudeMeters>8.19999980926513671875</AltitudeMeters>
            <DistanceMeters>NAN</DistanceMeters>
          </Trackpoint>
          <Trackpoint>
            <Time>2021-08-12T08:39:37.000Z</Time>
            <Position>
              <LatitudeDegrees>43.3020857535302639007568359375</LatitudeDegrees>
              <LongitudeDegrees>-1.955444701015949249267578125</LongitudeDegrees>
            </Position>
            <AltitudeMeters>8.19999980926513671875</AltitudeMeters>
            <DistanceMeters>NAN</DistanceMeters>
          </Trackpoint>
          <Trackpoint>
            <Time>2021-08-12T08:39:38.000Z</Time>
            <Position>
              <LatitudeDegrees>43.3020642958581447601318359375</LatitudeDegrees>
              <LongitudeDegrees>-1.9554804079234600067138671875</LongitudeDegrees>
            </Position>
            <AltitudeMeters>8.19999980926513671875</AltitudeMeters>
            <DistanceMeters>NAN</DistanceMeters>
          </Trackpoint>
          <Trackpoint>
            <Time>2021-08-12T08:39:39.000Z</Time>
            <Position>
              <LatitudeDegrees>43.302046023309230804443359375</LatitudeDegrees>
              <LongitudeDegrees>-1.9555152766406536102294921875</LongitudeDegrees>
            </Position>
            <AltitudeMeters>8.19999980926513671875</AltitudeMeters>
            <DistanceMeters>NAN</DistanceMeters>
          </Trackpoint>
          <Trackpoint>
            <Time>2021-08-12T08:39:40.000Z</Time>
            <Position>
              <LatitudeDegrees>43.30203085206449031829833984375</LatitudeDegrees>
              <LongitudeDegrees>-1.95554939098656177520751953125</LongitudeDegrees>
            </Position>
            <AltitudeMeters>8.19999980926513671875</AltitudeMeters>
            <DistanceMeters>NAN</DistanceMeters>
          </Trackpoint>
          <Trackpoint>
            <Time>2021-08-12T08:39:43.000Z</Time>
            <Position>
              <LatitudeDegrees>43.30199497751891613006591796875</LatitudeDegrees>
              <LongitudeDegrees>-1.9556463696062564849853515625</LongitudeDegrees>
            </Position>
            <AltitudeMeters>8</AltitudeMeters>
            <DistanceMeters>NAN</DistanceMeters>
          </Trackpoint>
          <Trackpoint>
            <Time>2021-08-12T08:39:44.000Z</Time>
            <Position>
              <LatitudeDegrees>43.3019871823489665985107421875</LatitudeDegrees>
              <LongitudeDegrees>-1.95568232797086238861083984375</LongitudeDegrees>
            </Position>
            <AltitudeMeters>8</AltitudeMeters>
            <DistanceMeters>NAN</DistanceMeters>
          </Trackpoint>
          <Trackpoint>
            <Time>2021-08-12T08:39:45.000Z</Time>
            <Position>
              <LatitudeDegrees>43.30197863280773162841796875</LatitudeDegrees>
              <LongitudeDegrees>-1.95571904070675373077392578125</LongitudeDegrees>
            </Position>
            <AltitudeMeters>8</AltitudeMeters>
            <DistanceMeters>NAN</DistanceMeters>
          </Trackpoint>
          <Trackpoint>
            <Time>2021-08-12T08:39:46.000Z</Time>
            <Position>
              <LatitudeDegrees>43.3019720949232578277587890625</LatitudeDegrees>
              <LongitudeDegrees>-1.95575944148004055023193359375</LongitudeDegrees>
            </Position>
            <AltitudeMeters>8</AltitudeMeters>
            <DistanceMeters>NAN</DistanceMeters>
          </Trackpoint>
          <Trackpoint>
            <Time>2021-08-12T08:39:47.000Z</Time>
            <Position>
              <LatitudeDegrees>43.3019677363336086273193359375</LatitudeDegrees>
              <LongitudeDegrees>-1.9557932205498218536376953125</LongitudeDegrees>
            </Position>
            <AltitudeMeters>8</AltitudeMeters>
            <DistanceMeters>NAN</DistanceMeters>
          </Trackpoint>
          <Trackpoint>
            <Time>2021-08-12T08:39:48.000Z</Time>
            <Position>
              <LatitudeDegrees>43.301965892314910888671875</LatitudeDegrees>
              <LongitudeDegrees>-1.9558337889611721038818359375</LongitudeDegrees>
            </Position>
            <AltitudeMeters>8</AltitudeMeters>
            <DistanceMeters>NAN</DistanceMeters>
          </Trackpoint>
          <Trackpoint>
            <Time>2021-08-12T08:39:49.000Z</Time>
            <Position>
              <LatitudeDegrees>43.3019650541245937347412109375</LatitudeDegrees>
              <LongitudeDegrees>-1.95588114671409130096435546875</LongitudeDegrees>
            </Position>
            <AltitudeMeters>8</AltitudeMeters>
            <DistanceMeters>NAN</DistanceMeters>
          </Trackpoint>
          <Trackpoint>
            <Time>2021-08-12T08:39:50.000Z</Time>
            <Position>
              <LatitudeDegrees>43.30196731723845005035400390625</LatitudeDegrees>
              <LongitudeDegrees>-1.95591936819255352020263671875</LongitudeDegrees>
            </Position>
            <AltitudeMeters>8</AltitudeMeters>
            <DistanceMeters>NAN</DistanceMeters>
          </Trackpoint>
          <Trackpoint>
            <Time>2021-08-12T08:39:58.000Z</Time>
            <Position>
              <LatitudeDegrees>43.3019580133259296417236328125</LatitudeDegrees>
              <LongitudeDegrees>-1.95625296793878078460693359375</LongitudeDegrees>
            </Position>
            <AltitudeMeters>7.80000019073486328125</AltitudeMeters>
            <DistanceMeters>NAN</DistanceMeters>
          </Trackpoint>
          <Trackpoint>
            <Time>2021-08-12T08:40:03.000Z</Time>
            <Position>
              <LatitudeDegrees>43.30190327949821949005126953125</LatitudeDegrees>
              <LongitudeDegrees>-1.95645262487232685089111328125</LongitudeDegrees>
            </Position>
            <AltitudeMeters>7.80000019073486328125</AltitudeMeters>
            <DistanceMeters>NAN</DistanceMeters>
          </Trackpoint>
          <Trackpoint>
            <Time>2021-08-12T08:40:04.000Z</Time>
            <Position>
              <LatitudeDegrees>43.3018912933766841888427734375</LatitudeDegrees>
              <LongitudeDegrees>-1.9564877450466156005859375</LongitudeDegrees>
            </Position>
            <AltitudeMeters>7.599999904632568359375</AltitudeMeters>
            <DistanceMeters>NAN</DistanceMeters>
          </Trackpoint>
          <Trackpoint>
            <Time>2021-08-12T08:40:05.000Z</Time>
            <Position>
              <LatitudeDegrees>43.301874697208404541015625</LatitudeDegrees>
              <LongitudeDegrees>-1.95652722381055355072021484375</LongitudeDegrees>
            </Position>
            <AltitudeMeters>7.599999904632568359375</AltitudeMeters>
            <DistanceMeters>NAN</DistanceMeters>
          </Trackpoint>
          <Trackpoint>
            <Time>2021-08-12T08:40:06.000Z</Time>
            <Position>
              <LatitudeDegrees>43.3018611185252666473388671875</LatitudeDegrees>
              <LongitudeDegrees>-1.95656242780387401580810546875</LongitudeDegrees>
            </Position>
            <AltitudeMeters>7.599999904632568359375</AltitudeMeters>
            <DistanceMeters>NAN</DistanceMeters>
          </Trackpoint>
          <Trackpoint>
            <Time>2021-08-12T08:40:07.000Z</Time>
            <Position>
              <LatitudeDegrees>43.3018467016518115997314453125</LatitudeDegrees>
              <LongitudeDegrees>-1.95659779943525791168212890625</LongitudeDegrees>
            </Position>
            <AltitudeMeters>7.400000095367431640625</AltitudeMeters>
            <DistanceMeters>NAN</DistanceMeters>
          </Trackpoint>
          <Trackpoint>
            <Time>2021-08-12T08:40:08.000Z</Time>
            <Position>
              <LatitudeDegrees>43.3018326200544834136962890625</LatitudeDegrees>
              <LongitudeDegrees>-1.956623531877994537353515625</LongitudeDegrees>
            </Position>
            <AltitudeMeters>7.400000095367431640625</AltitudeMeters>
            <DistanceMeters>NAN</DistanceMeters>
          </Trackpoint>
          <Trackpoint>
            <Time>2021-08-12T08:40:11.000Z</Time>
            <Position>
              <LatitudeDegrees>43.30180487595498561859130859375</LatitudeDegrees>
              <LongitudeDegrees>-1.9567531161010265350341796875</LongitudeDegrees>
            </Position>
            <AltitudeMeters>7.19999980926513671875</AltitudeMeters>
            <DistanceMeters>NAN</DistanceMeters>
          </Trackpoint>
          <Trackpoint>
            <Time>2021-08-12T08:40:12.000Z</Time>
            <Position>
              <LatitudeDegrees>43.30180604942142963409423828125</LatitudeDegrees>
              <LongitudeDegrees>-1.9567983783781528472900390625</LongitudeDegrees>
            </Position>
            <AltitudeMeters>7.19999980926513671875</AltitudeMeters>
            <DistanceMeters>NAN</DistanceMeters>
          </Trackpoint>
          <Trackpoint>
            <Time>2021-08-12T08:40:13.000Z</Time>
            <Position>
              <LatitudeDegrees>43.30180839635431766510009765625</LatitudeDegrees>
              <LongitudeDegrees>-1.9568439759314060211181640625</LongitudeDegrees>
            </Position>
            <AltitudeMeters>7.19999980926513671875</AltitudeMeters>
            <DistanceMeters>NAN</DistanceMeters>
          </Trackpoint>
          <Trackpoint>
            <Time>2021-08-12T08:40:14.000Z</Time>
            <Position>
              <LatitudeDegrees>43.30181443132460117340087890625</LatitudeDegrees>
              <LongitudeDegrees>-1.95687867701053619384765625</LongitudeDegrees>
            </Position>
            <AltitudeMeters>7.19999980926513671875</AltitudeMeters>
            <DistanceMeters>NAN</DistanceMeters>
          </Trackpoint>
          <Trackpoint>
            <Time>2021-08-12T08:40:15.000Z</Time>
            <Position>
              <LatitudeDegrees>43.30182977020740509033203125</LatitudeDegrees>
              <LongitudeDegrees>-1.9569184072315692901611328125</LongitudeDegrees>
            </Position>
            <AltitudeMeters>7.19999980926513671875</AltitudeMeters>
            <DistanceMeters>NAN</DistanceMeters>
          </Trackpoint>
          <Trackpoint>
            <Time>2021-08-12T08:40:16.000Z</Time>
            <Position>
              <LatitudeDegrees>43.3018557541072368621826171875</LatitudeDegrees>
              <LongitudeDegrees>-1.95696316659450531005859375</LongitudeDegrees>
            </Position>
            <AltitudeMeters>6.80000019073486328125</AltitudeMeters>
            <DistanceMeters>NAN</DistanceMeters>
          </Trackpoint>
          <Trackpoint>
            <Time>2021-08-12T08:40:17.000Z</Time>
            <Position>
              <LatitudeDegrees>43.3018798939883708953857421875</LatitudeDegrees>
              <LongitudeDegrees>-1.95699878968298435211181640625</LongitudeDegrees>
            </Position>
            <AltitudeMeters>6.80000019073486328125</AltitudeMeters>
            <DistanceMeters>NAN</DistanceMeters>
          </Trackpoint>
          <Trackpoint>
            <Time>2021-08-12T08:40:18.000Z</Time>
            <Position>
              <LatitudeDegrees>43.30190621316432952880859375</LatitudeDegrees>
              <LongitudeDegrees>-1.9570327363908290863037109375</LongitudeDegrees>
            </Position>
            <AltitudeMeters>6.80000019073486328125</AltitudeMeters>
            <DistanceMeters>NAN</DistanceMeters>
          </Trackpoint>
          <Trackpoint>
            <Time>2021-08-12T08:40:19.000Z</Time>
            <Position>
              <LatitudeDegrees>43.3019295148551464080810546875</LatitudeDegrees>
              <LongitudeDegrees>-1.95705897174775600433349609375</LongitudeDegrees>
            </Position>
            <AltitudeMeters>6.80000019073486328125</AltitudeMeters>
            <DistanceMeters>NAN</DistanceMeters>
          </Trackpoint>
          <Trackpoint>
            <Time>2021-08-12T08:40:23.000Z</Time>
            <Position>
              <LatitudeDegrees>43.3020582608878612518310546875</LatitudeDegrees>
              <LongitudeDegrees>-1.95720280520617961883544921875</LongitudeDegrees>
            </Position>
            <AltitudeMeters>6.400000095367431640625</AltitudeMeters>
            <DistanceMeters>NAN</DistanceMeters>
          </Trackpoint>
          <Trackpoint>
            <Time>2021-08-12T08:40:27.000Z</Time>
            <Position>
              <LatitudeDegrees>43.30217041075229644775390625</LatitudeDegrees>
              <LongitudeDegrees>-1.9573361612856388092041015625</LongitudeDegrees>
            </Position>
            <AltitudeMeters>6.400000095367431640625</AltitudeMeters>
            <DistanceMeters>NAN</DistanceMeters>
          </Trackpoint>
          <Trackpoint>
            <Time>2021-08-12T08:40:31.000Z</Time>
            <Position>
              <LatitudeDegrees>43.3022698201239109039306640625</LatitudeDegrees>
              <LongitudeDegrees>-1.95744194090366363525390625</LongitudeDegrees>
            </Position>
            <AltitudeMeters>6.400000095367431640625</AltitudeMeters>
            <DistanceMeters>NAN</DistanceMeters>
          </Trackpoint>
          <Trackpoint>
            <Time>2021-08-12T08:40:32.000Z</Time>
            <Position>
              <LatitudeDegrees>43.3023025095462799072265625</LatitudeDegrees>
              <LongitudeDegrees>-1.95747052319347858428955078125</LongitudeDegrees>
            </Position>
            <AltitudeMeters>6.400000095367431640625</AltitudeMeters>
            <DistanceMeters>NAN</DistanceMeters>
          </Trackpoint>
          <Trackpoint>
            <Time>2021-08-12T08:40:33.000Z</Time>
            <Position>
              <LatitudeDegrees>43.30232773907482624053955078125</LatitudeDegrees>
              <LongitudeDegrees>-1.95749918930232524871826171875</LongitudeDegrees>
            </Position>
            <AltitudeMeters>6.400000095367431640625</AltitudeMeters>
            <DistanceMeters>NAN</DistanceMeters>
          </Trackpoint>
          <Trackpoint>
            <Time>2021-08-12T08:40:34.000Z</Time>
            <Position>
              <LatitudeDegrees>43.30235389061272144317626953125</LatitudeDegrees>
              <LongitudeDegrees>-1.9575284421443939208984375</LongitudeDegrees>
            </Position>
            <AltitudeMeters>6.400000095367431640625</AltitudeMeters>
            <DistanceMeters>NAN</DistanceMeters>
          </Trackpoint>
          <Trackpoint>
            <Time>2021-08-12T08:40:35.000Z</Time>
            <Position>
              <LatitudeDegrees>43.302375264465808868408203125</LatitudeDegrees>
              <LongitudeDegrees>-1.95755191147327423095703125</LongitudeDegrees>
            </Position>
            <AltitudeMeters>6.19999980926513671875</AltitudeMeters>
            <DistanceMeters>NAN</DistanceMeters>
          </Trackpoint>
          <Trackpoint>
            <Time>2021-08-12T08:40:36.000Z</Time>
            <Position>
              <LatitudeDegrees>43.302398733794689178466796875</LatitudeDegrees>
              <LongitudeDegrees>-1.9575785659253597259521484375</LongitudeDegrees>
            </Position>
            <AltitudeMeters>6.19999980926513671875</AltitudeMeters>
            <DistanceMeters>NAN</DistanceMeters>
          </Trackpoint>
          <Trackpoint>
            <Time>2021-08-12T08:40:37.000Z</Time>
            <Position>
              <LatitudeDegrees>43.3024206943809986114501953125</LatitudeDegrees>
              <LongitudeDegrees>-1.95760513655841350555419921875</LongitudeDegrees>
            </Position>
            <AltitudeMeters>6.19999980926513671875</AltitudeMeters>
            <DistanceMeters>NAN</DistanceMeters>
          </Trackpoint>
          <Trackpoint>
            <Time>2021-08-12T08:40:38.000Z</Time>
            <Position>
              <LatitudeDegrees>43.30244424752891063690185546875</LatitudeDegrees>
              <LongitudeDegrees>-1.95763983763754367828369140625</LongitudeDegrees>
            </Position>
            <AltitudeMeters>6.19999980926513671875</AltitudeMeters>
            <DistanceMeters>NAN</DistanceMeters>
          </Trackpoint>
          <Trackpoint>
            <Time>2021-08-12T08:40:39.000Z</Time>
            <Position>
              <LatitudeDegrees>43.30246134661138057708740234375</LatitudeDegrees>
              <LongitudeDegrees>-1.95767353288829326629638671875</LongitudeDegrees>
            </Position>
            <AltitudeMeters>6.19999980926513671875</AltitudeMeters>
            <DistanceMeters>NAN</DistanceMeters>
          </Trackpoint>
          <Trackpoint>
            <Time>2021-08-12T08:40:41.000Z</Time>
            <Position>
              <LatitudeDegrees>43.30248984508216381072998046875</LatitudeDegrees>
              <LongitudeDegrees>-1.95773438550531864166259765625</LongitudeDegrees>
            </Position>
            <AltitudeMeters>6</AltitudeMeters>
            <DistanceMeters>NAN</DistanceMeters>
          </Trackpoint>
          <Trackpoint>
            <Time>2021-08-12T08:40:42.000Z</Time>
            <Position>
              <LatitudeDegrees>43.3025061897933483123779296875</LatitudeDegrees>
              <LongitudeDegrees>-1.9577671587467193603515625</LongitudeDegrees>
            </Position>
            <AltitudeMeters>6</AltitudeMeters>
            <DistanceMeters>NAN</DistanceMeters>
          </Trackpoint>
          <Trackpoint>
            <Time>2021-08-12T08:40:43.000Z</Time>
            <Position>
              <LatitudeDegrees>43.30252806656062602996826171875</LatitudeDegrees>
              <LongitudeDegrees>-1.95780362002551555633544921875</LongitudeDegrees>
            </Position>
            <AltitudeMeters>6</AltitudeMeters>
            <DistanceMeters>NAN</DistanceMeters>
          </Trackpoint>
          <Trackpoint>
            <Time>2021-08-12T08:40:44.000Z</Time>
            <Position>
              <LatitudeDegrees>43.30254768021404743194580078125</LatitudeDegrees>
              <LongitudeDegrees>-1.957831196486949920654296875</LongitudeDegrees>
            </Position>
            <AltitudeMeters>6</AltitudeMeters>
            <DistanceMeters>NAN</DistanceMeters>
          </Trackpoint>
          <Trackpoint>
            <Time>2021-08-12T08:40:45.000Z</Time>
            <Position>
              <LatitudeDegrees>43.3025662042200565338134765625</LatitudeDegrees>
              <LongitudeDegrees>-1.957856677472591400146484375</LongitudeDegrees>
            </Position>
            <AltitudeMeters>6</AltitudeMeters>
            <DistanceMeters>NAN</DistanceMeters>
          </Trackpoint>
          <Trackpoint>
            <Time>2021-08-12T08:40:46.000Z</Time>
            <Position>
              <LatitudeDegrees>43.302581794559955596923828125</LatitudeDegrees>
              <LongitudeDegrees>-1.95787570439279079437255859375</LongitudeDegrees>
            </Position>
            <AltitudeMeters>6</AltitudeMeters>
            <DistanceMeters>NAN</DistanceMeters>
          </Trackpoint>
          <Trackpoint>
            <Time>2021-08-12T08:40:47.000Z</Time>
            <Position>
              <LatitudeDegrees>43.30260082148015499114990234375</LatitudeDegrees>
              <LongitudeDegrees>-1.95789900608360767364501953125</LongitudeDegrees>
            </Position>
            <AltitudeMeters>6</AltitudeMeters>
            <DistanceMeters>NAN</DistanceMeters>
          </Trackpoint>
          <Trackpoint>
            <Time>2021-08-12T08:40:48.000Z</Time>
            <Position>
              <LatitudeDegrees>43.30262395553290843963623046875</LatitudeDegrees>
              <LongitudeDegrees>-1.9579262472689151763916015625</LongitudeDegrees>
            </Position>
            <AltitudeMeters>6</AltitudeMeters>
            <DistanceMeters>NAN</DistanceMeters>
          </Trackpoint>
          <Trackpoint>
            <Time>2021-08-12T08:40:49.000Z</Time>
            <Position>
              <LatitudeDegrees>43.3026433177292346954345703125</LatitudeDegrees>
              <LongitudeDegrees>-1.9579500518739223480224609375</LongitudeDegrees>
            </Position>
            <AltitudeMeters>6</AltitudeMeters>
            <DistanceMeters>NAN</DistanceMeters>
          </Trackpoint>
          <Trackpoint>
            <Time>2021-08-12T08:40:50.000Z</Time>
            <Position>
              <LatitudeDegrees>43.302661590278148651123046875</LatitudeDegrees>
              <LongitudeDegrees>-1.95797645486891269683837890625</LongitudeDegrees>
            </Position>
            <AltitudeMeters>6</AltitudeMeters>
            <DistanceMeters>NAN</DistanceMeters>
          </Trackpoint>
          <Trackpoint>
            <Time>2021-08-12T08:40:51.000Z</Time>
            <Position>
              <LatitudeDegrees>43.3026761747896671295166015625</LatitudeDegrees>
              <LongitudeDegrees>-1.95799690671265125274658203125</LongitudeDegrees>
            </Position>
            <AltitudeMeters>6</AltitudeMeters>
            <DistanceMeters>NAN</DistanceMeters>
          </Trackpoint>
          <Trackpoint>
            <Time>2021-08-12T08:40:52.000Z</Time>
            <Position>
              <LatitudeDegrees>43.302695117890834808349609375</LatitudeDegrees>
              <LongitudeDegrees>-1.95801995694637298583984375</LongitudeDegrees>
            </Position>
            <AltitudeMeters>6</AltitudeMeters>
            <DistanceMeters>NAN</DistanceMeters>
          </Trackpoint>
          <Trackpoint>
            <Time>2021-08-12T08:40:53.000Z</Time>
            <Position>
              <LatitudeDegrees>43.30271221697330474853515625</LatitudeDegrees>
              <LongitudeDegrees>-1.95804418064653873443603515625</LongitudeDegrees>
            </Position>
            <AltitudeMeters>5.80000019073486328125</AltitudeMeters>
            <DistanceMeters>NAN</DistanceMeters>
          </Trackpoint>
          <Trackpoint>
            <Time>2021-08-12T08:40:54.000Z</Time>
            <Position>
              <LatitudeDegrees>43.30272965133190155029296875</LatitudeDegrees>
              <LongitudeDegrees>-1.95807318203151226043701171875</LongitudeDegrees>
            </Position>
            <AltitudeMeters>5.80000019073486328125</AltitudeMeters>
            <DistanceMeters>NAN</DistanceMeters>
          </Trackpoint>
          <Trackpoint>
            <Time>2021-08-12T08:40:55.000Z</Time>
            <Position>
              <LatitudeDegrees>43.3027423918247222900390625</LatitudeDegrees>
              <LongitudeDegrees>-1.95809279568493366241455078125</LongitudeDegrees>
            </Position>
            <AltitudeMeters>5.80000019073486328125</AltitudeMeters>
            <DistanceMeters>NAN</DistanceMeters>
          </Trackpoint>
          <Trackpoint>
            <Time>2021-08-12T08:40:56.000Z</Time>
            <Position>
              <LatitudeDegrees>43.30275622196495532989501953125</LatitudeDegrees>
              <LongitudeDegrees>-1.95810955949127674102783203125</LongitudeDegrees>
            </Position>
            <AltitudeMeters>5.80000019073486328125</AltitudeMeters>
            <DistanceMeters>NAN</DistanceMeters>
          </Trackpoint>
          <Trackpoint>
            <Time>2021-08-12T08:40:57.000Z</Time>
            <Position>
              <LatitudeDegrees>43.30276695080101490020751953125</LatitudeDegrees>
              <LongitudeDegrees>-1.9581240601837635040283203125</LongitudeDegrees>
            </Position>
            <AltitudeMeters>5.80000019073486328125</AltitudeMeters>
            <DistanceMeters>NAN</DistanceMeters>
          </Trackpoint>
          <Trackpoint>
            <Time>2021-08-12T08:40:58.000Z</Time>
            <Position>
              <LatitudeDegrees>43.30277784727513790130615234375</LatitudeDegrees>
              <LongitudeDegrees>-1.95814074017107486724853515625</LongitudeDegrees>
            </Position>
            <AltitudeMeters>5.80000019073486328125</AltitudeMeters>
            <DistanceMeters>NAN</DistanceMeters>
          </Trackpoint>
          <Trackpoint>
            <Time>2021-08-12T08:40:59.000Z</Time>
            <Position>
              <LatitudeDegrees>43.30279159359633922576904296875</LatitudeDegrees>
              <LongitudeDegrees>-1.95816035382449626922607421875</LongitudeDegrees>
            </Position>
            <AltitudeMeters>5.80000019073486328125</AltitudeMeters>
            <DistanceMeters>NAN</DistanceMeters>
          </Trackpoint>
          <Trackpoint>
            <Time>2021-08-12T08:41:00.000Z</Time>
            <Position>
              <LatitudeDegrees>43.30280433408915996551513671875</LatitudeDegrees>
              <LongitudeDegrees>-1.9581803865730762481689453125</LongitudeDegrees>
            </Position>
            <AltitudeMeters>5.80000019073486328125</AltitudeMeters>
            <DistanceMeters>NAN</DistanceMeters>
          </Trackpoint>
          <Trackpoint>
            <Time>2021-08-12T08:41:04.000Z</Time>
            <Position>
              <LatitudeDegrees>43.302866108715534210205078125</LatitudeDegrees>
              <LongitudeDegrees>-1.95829882286489009857177734375</LongitudeDegrees>
            </Position>
            <AltitudeMeters>5.80000019073486328125</AltitudeMeters>
            <DistanceMeters>NAN</DistanceMeters>
          </Trackpoint>
          <Trackpoint>
            <Time>2021-08-12T08:41:11.000Z</Time>
            <Position>
              <LatitudeDegrees>43.3030034042894840240478515625</LatitudeDegrees>
              <LongitudeDegrees>-1.95853737182915210723876953125</LongitudeDegrees>
            </Position>
            <AltitudeMeters>5.80000019073486328125</AltitudeMeters>
            <DistanceMeters>NAN</DistanceMeters>
          </Trackpoint>
          <Trackpoint>
            <Time>2021-08-12T08:41:17.000Z</Time>
            <Position>
              <LatitudeDegrees>43.30310088582336902618408203125</LatitudeDegrees>
              <LongitudeDegrees>-1.9587423093616962432861328125</LongitudeDegrees>
            </Position>
            <AltitudeMeters>6.400000095367431640625</AltitudeMeters>
            <DistanceMeters>NAN</DistanceMeters>
          </Trackpoint>
          <Trackpoint>
            <Time>2021-08-12T08:41:18.000Z</Time>
            <Position>
              <LatitudeDegrees>43.30311027355492115020751953125</LatitudeDegrees>
              <LongitudeDegrees>-1.95876351557672023773193359375</LongitudeDegrees>
            </Position>
            <AltitudeMeters>6.599999904632568359375</AltitudeMeters>
            <DistanceMeters>NAN</DistanceMeters>
          </Trackpoint>
          <Trackpoint>
            <Time>2021-08-12T08:41:19.000Z</Time>
            <Position>
              <LatitudeDegrees>43.30312049947679042816162109375</LatitudeDegrees>
              <LongitudeDegrees>-1.958783380687236785888671875</LongitudeDegrees>
            </Position>
            <AltitudeMeters>6.599999904632568359375</AltitudeMeters>
            <DistanceMeters>NAN</DistanceMeters>
          </Trackpoint>
          <Trackpoint>
            <Time>2021-08-12T08:41:20.000Z</Time>
            <Position>
              <LatitudeDegrees>43.30312888137996196746826171875</LatitudeDegrees>
              <LongitudeDegrees>-1.95880115032196044921875</LongitudeDegrees>
            </Position>
            <AltitudeMeters>6.80000019073486328125</AltitudeMeters>
            <DistanceMeters>NAN</DistanceMeters>
          </Trackpoint>
          <Trackpoint>
            <Time>2021-08-12T08:41:21.000Z</Time>
            <Position>
              <LatitudeDegrees>43.30314011313021183013916015625</LatitudeDegrees>
              <LongitudeDegrees>-1.95881900377571582794189453125</LongitudeDegrees>
            </Position>
            <AltitudeMeters>7</AltitudeMeters>
            <DistanceMeters>NAN</DistanceMeters>
          </Trackpoint>
          <Trackpoint>
            <Time>2021-08-12T08:41:22.000Z</Time>
            <Position>
              <LatitudeDegrees>43.3031489141285419464111328125</LatitudeDegrees>
              <LongitudeDegrees>-1.958831660449504852294921875</LongitudeDegrees>
            </Position>
            <AltitudeMeters>7</AltitudeMeters>
            <DistanceMeters>NAN</DistanceMeters>
          </Trackpoint>
          <Trackpoint>
            <Time>2021-08-12T08:41:23.000Z</Time>
            <Position>
              <LatitudeDegrees>43.30315419472754001617431640625</LatitudeDegrees>
              <LongitudeDegrees>-1.95884163491427898406982421875</LongitudeDegrees>
            </Position>
            <AltitudeMeters>7</AltitudeMeters>
            <DistanceMeters>NAN</DistanceMeters>
          </Trackpoint>
          <Trackpoint>
            <Time>2021-08-12T08:41:24.000Z</Time>
            <Position>
              <LatitudeDegrees>43.30315620638430118560791015625</LatitudeDegrees>
              <LongitudeDegrees>-1.95884599350392818450927734375</LongitudeDegrees>
            </Position>
            <AltitudeMeters>7</AltitudeMeters>
            <DistanceMeters>NAN</DistanceMeters>
          </Trackpoint>
          <Trackpoint>
            <Time>2021-08-12T08:41:25.000Z</Time>
            <Position>
              <LatitudeDegrees>43.30315746366977691650390625</LatitudeDegrees>
              <LongitudeDegrees>-1.95884699933230876922607421875</LongitudeDegrees>
            </Position>
            <AltitudeMeters>7.19999980926513671875</AltitudeMeters>
            <DistanceMeters>NAN</DistanceMeters>
          </Trackpoint>
          <Trackpoint>
            <Time>2021-08-12T08:41:31.000Z</Time>
            <Position>
              <LatitudeDegrees>43.30314849503338336944580078125</LatitudeDegrees>
              <LongitudeDegrees>-1.9588559679687023162841796875</LongitudeDegrees>
            </Position>
            <AltitudeMeters>7.400000095367431640625</AltitudeMeters>
            <DistanceMeters>NAN</DistanceMeters>
          </Trackpoint>
          <Trackpoint>
            <Time>2021-08-12T08:41:52.000Z</Time>
            <Position>
              <LatitudeDegrees>43.30314212478697299957275390625</LatitudeDegrees>
              <LongitudeDegrees>-1.9588601589202880859375</LongitudeDegrees>
            </Position>
            <AltitudeMeters>7.400000095367431640625</AltitudeMeters>
            <DistanceMeters>NAN</DistanceMeters>
          </Trackpoint>
          <Trackpoint>
            <Time>2021-08-12T08:41:54.000Z</Time>
            <Position>
              <LatitudeDegrees>43.30314002931118011474609375</LatitudeDegrees>
              <LongitudeDegrees>-1.9588630087673664093017578125</LongitudeDegrees>
            </Position>
            <AltitudeMeters>7.400000095367431640625</AltitudeMeters>
            <DistanceMeters>NAN</DistanceMeters>
          </Trackpoint>
          <Trackpoint>
            <Time>2021-08-12T08:41:55.000Z</Time>
            <Position>
              <LatitudeDegrees>43.30314849503338336944580078125</LatitudeDegrees>
              <LongitudeDegrees>-1.95887826383113861083984375</LongitudeDegrees>
            </Position>
            <AltitudeMeters>7.400000095367431640625</AltitudeMeters>
            <DistanceMeters>NAN</DistanceMeters>
          </Trackpoint>
          <Trackpoint>
            <Time>2021-08-12T08:41:56.000Z</Time>
            <Position>
              <LatitudeDegrees>43.30316022969782352447509765625</LatitudeDegrees>
              <LongitudeDegrees>-1.95890114642679691314697265625</LongitudeDegrees>
            </Position>
            <AltitudeMeters>7.400000095367431640625</AltitudeMeters>
            <DistanceMeters>NAN</DistanceMeters>
          </Trackpoint>
          <Trackpoint>
            <Time>2021-08-12T08:41:57.000Z</Time>
            <Position>
              <LatitudeDegrees>43.30317489802837371826171875</LatitudeDegrees>
              <LongitudeDegrees>-1.95892520248889923095703125</LongitudeDegrees>
            </Position>
            <AltitudeMeters>7.400000095367431640625</AltitudeMeters>
            <DistanceMeters>NAN</DistanceMeters>
          </Trackpoint>
          <Trackpoint>
            <Time>2021-08-12T08:41:59.000Z</Time>
            <Position>
              <LatitudeDegrees>43.3031988702714443206787109375</LatitudeDegrees>
              <LongitudeDegrees>-1.958975158631801605224609375</LongitudeDegrees>
            </Position>
            <AltitudeMeters>7.400000095367431640625</AltitudeMeters>
            <DistanceMeters>NAN</DistanceMeters>
          </Trackpoint>
          <Trackpoint>
            <Time>2021-08-12T08:42:00.000Z</Time>
            <Position>
              <LatitudeDegrees>43.30320172011852264404296875</LatitudeDegrees>
              <LongitudeDegrees>-1.95900357328355312347412109375</LongitudeDegrees>
            </Position>
            <AltitudeMeters>7.400000095367431640625</AltitudeMeters>
            <DistanceMeters>NAN</DistanceMeters>
          </Trackpoint>
          <Trackpoint>
            <Time>2021-08-12T08:42:01.000Z</Time>
            <Position>
              <LatitudeDegrees>43.30320230685174465179443359375</LatitudeDegrees>
              <LongitudeDegrees>-1.95902788080275058746337890625</LongitudeDegrees>
            </Position>
            <AltitudeMeters>7.400000095367431640625</AltitudeMeters>
            <DistanceMeters>NAN</DistanceMeters>
          </Trackpoint>
          <Trackpoint>
            <Time>2021-08-12T08:42:02.000Z</Time>
            <Position>
              <LatitudeDegrees>43.30320314504206180572509765625</LatitudeDegrees>
              <LongitudeDegrees>-1.95905260741710662841796875</LongitudeDegrees>
            </Position>
            <AltitudeMeters>7.400000095367431640625</AltitudeMeters>
            <DistanceMeters>NAN</DistanceMeters>
          </Trackpoint>
          <Trackpoint>
            <Time>2021-08-12T08:42:03.000Z</Time>
            <Position>
              <LatitudeDegrees>43.30320431850850582122802734375</LatitudeDegrees>
              <LongitudeDegrees>-1.95907984860241413116455078125</LongitudeDegrees>
            </Position>
            <AltitudeMeters>7.400000095367431640625</AltitudeMeters>
            <DistanceMeters>NAN</DistanceMeters>
          </Trackpoint>
          <Trackpoint>
            <Time>2021-08-12T08:42:08.000Z</Time>
            <Position>
              <LatitudeDegrees>43.30324321053922176361083984375</LatitudeDegrees>
              <LongitudeDegrees>-1.95919300429522991180419921875</LongitudeDegrees>
            </Position>
            <AltitudeMeters>7.400000095367431640625</AltitudeMeters>
            <DistanceMeters>NAN</DistanceMeters>
          </Trackpoint>
          <Trackpoint>
            <Time>2021-08-12T08:42:13.000Z</Time>
            <Position>
              <LatitudeDegrees>43.303319402039051055908203125</LatitudeDegrees>
              <LongitudeDegrees>-1.95938050746917724609375</LongitudeDegrees>
            </Position>
            <AltitudeMeters>7.400000095367431640625</AltitudeMeters>
            <DistanceMeters>NAN</DistanceMeters>
          </Trackpoint>
          <Trackpoint>
            <Time>2021-08-12T08:42:15.000Z</Time>
            <Position>
              <LatitudeDegrees>43.30335150472819805145263671875</LatitudeDegrees>
              <LongitudeDegrees>-1.95945988409221172332763671875</LongitudeDegrees>
            </Position>
            <AltitudeMeters>7.400000095367431640625</AltitudeMeters>
            <DistanceMeters>NAN</DistanceMeters>
          </Trackpoint>
          <Trackpoint>
            <Time>2021-08-12T08:42:21.000Z</Time>
            <Position>
              <LatitudeDegrees>43.3034442923963069915771484375</LatitudeDegrees>
              <LongitudeDegrees>-1.9597099162638187408447265625</LongitudeDegrees>
            </Position>
            <AltitudeMeters>7.19999980926513671875</AltitudeMeters>
            <DistanceMeters>NAN</DistanceMeters>
          </Trackpoint>
          <Trackpoint>
            <Time>2021-08-12T08:42:32.000Z</Time>
            <Position>
              <LatitudeDegrees>43.30363917164504528045654296875</LatitudeDegrees>
              <LongitudeDegrees>-1.96020654402673244476318359375</LongitudeDegrees>
            </Position>
            <AltitudeMeters>6.599999904632568359375</AltitudeMeters>
            <DistanceMeters>NAN</DistanceMeters>
          </Trackpoint>
          <Trackpoint>
            <Time>2021-08-12T08:42:34.000Z</Time>
            <Position>
              <LatitudeDegrees>43.30367689020931720733642578125</LatitudeDegrees>
              <LongitudeDegrees>-1.9602862559258937835693359375</LongitudeDegrees>
            </Position>
            <AltitudeMeters>6.400000095367431640625</AltitudeMeters>
            <DistanceMeters>NAN</DistanceMeters>
          </Trackpoint>
          <Trackpoint>
            <Time>2021-08-12T08:42:37.000Z</Time>
            <Position>
              <LatitudeDegrees>43.303738497197628021240234375</LatitudeDegrees>
              <LongitudeDegrees>-1.960400752723217010498046875</LongitudeDegrees>
            </Position>
            <AltitudeMeters>6</AltitudeMeters>
            <DistanceMeters>NAN</DistanceMeters>
          </Trackpoint>
          <Trackpoint>
            <Time>2021-08-12T08:42:38.000Z</Time>
            <Position>
              <LatitudeDegrees>43.3037527464330196380615234375</LatitudeDegrees>
              <LongitudeDegrees>-1.96042799390852451324462890625</LongitudeDegrees>
            </Position>
            <AltitudeMeters>6</AltitudeMeters>
            <DistanceMeters>NAN</DistanceMeters>
          </Trackpoint>
          <Trackpoint>
            <Time>2021-08-12T08:42:39.000Z</Time>
            <Position>
              <LatitudeDegrees>43.30376942642033100128173828125</LatitudeDegrees>
              <LongitudeDegrees>-1.96046747267246246337890625</LongitudeDegrees>
            </Position>
            <AltitudeMeters>6</AltitudeMeters>
            <DistanceMeters>NAN</DistanceMeters>
          </Trackpoint>
          <Trackpoint>
            <Time>2021-08-12T08:42:40.000Z</Time>
            <Position>
              <LatitudeDegrees>43.3037804067134857177734375</LatitudeDegrees>
              <LongitudeDegrees>-1.9605098851025104522705078125</LongitudeDegrees>
            </Position>
            <AltitudeMeters>5.80000019073486328125</AltitudeMeters>
            <DistanceMeters>NAN</DistanceMeters>
          </Trackpoint>
          <Trackpoint>
            <Time>2021-08-12T08:42:41.000Z</Time>
            <Position>
              <LatitudeDegrees>43.3037899620831012725830078125</LatitudeDegrees>
              <LongitudeDegrees>-1.96055372245609760284423828125</LongitudeDegrees>
            </Position>
            <AltitudeMeters>5.80000019073486328125</AltitudeMeters>
            <DistanceMeters>NAN</DistanceMeters>
          </Trackpoint>
          <Trackpoint>
            <Time>2021-08-12T08:42:45.000Z</Time>
            <Position>
              <LatitudeDegrees>43.30385123379528522491455078125</LatitudeDegrees>
              <LongitudeDegrees>-1.96073108352720737457275390625</LongitudeDegrees>
            </Position>
            <AltitudeMeters>5.80000019073486328125</AltitudeMeters>
            <DistanceMeters>NAN</DistanceMeters>
          </Trackpoint>
          <Trackpoint>
            <Time>2021-08-12T08:42:53.000Z</Time>
            <Position>
              <LatitudeDegrees>43.30399272032082080841064453125</LatitudeDegrees>
              <LongitudeDegrees>-1.96109184063971042633056640625</LongitudeDegrees>
            </Position>
            <AltitudeMeters>5.599999904632568359375</AltitudeMeters>
            <DistanceMeters>NAN</DistanceMeters>
          </Trackpoint>
          <Trackpoint>
            <Time>2021-08-12T08:42:54.000Z</Time>
            <Position>
              <LatitudeDegrees>43.30400277860462665557861328125</LatitudeDegrees>
              <LongitudeDegrees>-1.9611210934817790985107421875</LongitudeDegrees>
            </Position>
            <AltitudeMeters>5.599999904632568359375</AltitudeMeters>
            <DistanceMeters>NAN</DistanceMeters>
          </Trackpoint>
          <Trackpoint>
            <Time>2021-08-12T08:42:56.000Z</Time>
            <Position>
              <LatitudeDegrees>43.304028175771236419677734375</LatitudeDegrees>
              <LongitudeDegrees>-1.96120114065706729888916015625</LongitudeDegrees>
            </Position>
            <AltitudeMeters>5.599999904632568359375</AltitudeMeters>
            <DistanceMeters>NAN</DistanceMeters>
          </Trackpoint>
          <Trackpoint>
            <Time>2021-08-12T08:42:57.000Z</Time>
            <Position>
              <LatitudeDegrees>43.304042927920818328857421875</LatitudeDegrees>
              <LongitudeDegrees>-1.96124170906841754913330078125</LongitudeDegrees>
            </Position>
            <AltitudeMeters>5.599999904632568359375</AltitudeMeters>
            <DistanceMeters>NAN</DistanceMeters>
          </Trackpoint>
          <Trackpoint>
            <Time>2021-08-12T08:42:58.000Z</Time>
            <Position>
              <LatitudeDegrees>43.3040591888129711151123046875</LatitudeDegrees>
              <LongitudeDegrees>-1.96128361858427524566650390625</LongitudeDegrees>
            </Position>
            <AltitudeMeters>5.599999904632568359375</AltitudeMeters>
            <DistanceMeters>NAN</DistanceMeters>
          </Trackpoint>
          <Trackpoint>
            <Time>2021-08-12T08:42:59.000Z</Time>
            <Position>
              <LatitudeDegrees>43.30407586880028247833251953125</LatitudeDegrees>
              <LongitudeDegrees>-1.96132519282400608062744140625</LongitudeDegrees>
            </Position>
            <AltitudeMeters>5.599999904632568359375</AltitudeMeters>
            <DistanceMeters>NAN</DistanceMeters>
          </Trackpoint>
          <Trackpoint>
            <Time>2021-08-12T08:43:00.000Z</Time>
            <Position>
              <LatitudeDegrees>43.3040917105972766876220703125</LatitudeDegrees>
              <LongitudeDegrees>-1.96136525832116603851318359375</LongitudeDegrees>
            </Position>
            <AltitudeMeters>5.599999904632568359375</AltitudeMeters>
            <DistanceMeters>NAN</DistanceMeters>
          </Trackpoint>
          <Trackpoint>
            <Time>2021-08-12T08:43:01.000Z</Time>
            <Position>
              <LatitudeDegrees>43.30410822294652462005615234375</LatitudeDegrees>
              <LongitudeDegrees>-1.96140280924737453460693359375</LongitudeDegrees>
            </Position>
            <AltitudeMeters>5.599999904632568359375</AltitudeMeters>
            <DistanceMeters>NAN</DistanceMeters>
          </Trackpoint>
          <Trackpoint>
            <Time>2021-08-12T08:43:02.000Z</Time>
            <Position>
              <LatitudeDegrees>43.3041228912770748138427734375</LatitudeDegrees>
              <LongitudeDegrees>-1.9614385999739170074462890625</LongitudeDegrees>
            </Position>
            <AltitudeMeters>5.80000019073486328125</AltitudeMeters>
            <DistanceMeters>NAN</DistanceMeters>
          </Trackpoint>
          <Trackpoint>
            <Time>2021-08-12T08:43:03.000Z</Time>
            <Position>
              <LatitudeDegrees>43.30413806252181529998779296875</LatitudeDegrees>
              <LongitudeDegrees>-1.961472295224666595458984375</LongitudeDegrees>
            </Position>
            <AltitudeMeters>5.80000019073486328125</AltitudeMeters>
            <DistanceMeters>NAN</DistanceMeters>
          </Trackpoint>
          <Trackpoint>
            <Time>2021-08-12T08:43:04.000Z</Time>
            <Position>
              <LatitudeDegrees>43.3041530661284923553466796875</LatitudeDegrees>
              <LongitudeDegrees>-1.96150816977024078369140625</LongitudeDegrees>
            </Position>
            <AltitudeMeters>5.80000019073486328125</AltitudeMeters>
            <DistanceMeters>NAN</DistanceMeters>
          </Trackpoint>
          <Trackpoint>
            <Time>2021-08-12T08:43:05.000Z</Time>
            <Position>
              <LatitudeDegrees>43.3041661418974399566650390625</LatitudeDegrees>
              <LongitudeDegrees>-1.96154479868710041046142578125</LongitudeDegrees>
            </Position>
            <AltitudeMeters>5.80000019073486328125</AltitudeMeters>
            <DistanceMeters>NAN</DistanceMeters>
          </Trackpoint>
          <Trackpoint>
            <Time>2021-08-12T08:43:06.000Z</Time>
            <Position>
              <LatitudeDegrees>43.304179720580577850341796875</LatitudeDegrees>
              <LongitudeDegrees>-1.96157933212816715240478515625</LongitudeDegrees>
            </Position>
            <AltitudeMeters>5.80000019073486328125</AltitudeMeters>
            <DistanceMeters>NAN</DistanceMeters>
          </Trackpoint>
          <Trackpoint>
            <Time>2021-08-12T08:43:07.000Z</Time>
            <Position>
              <LatitudeDegrees>43.3041946403682231903076171875</LatitudeDegrees>
              <LongitudeDegrees>-1.96161906234920024871826171875</LongitudeDegrees>
            </Position>
            <AltitudeMeters>5.80000019073486328125</AltitudeMeters>
            <DistanceMeters>NAN</DistanceMeters>
          </Trackpoint>
          <Trackpoint>
            <Time>2021-08-12T08:43:09.000Z</Time>
            <Position>
              <LatitudeDegrees>43.3042254857718944549560546875</LatitudeDegrees>
              <LongitudeDegrees>-1.96170304901897907257080078125</LongitudeDegrees>
            </Position>
            <AltitudeMeters>5.80000019073486328125</AltitudeMeters>
            <DistanceMeters>NAN</DistanceMeters>
          </Trackpoint>
          <Trackpoint>
            <Time>2021-08-12T08:43:17.000Z</Time>
            <Position>
              <LatitudeDegrees>43.30434593372046947479248046875</LatitudeDegrees>
              <LongitudeDegrees>-1.9620273448526859283447265625</LongitudeDegrees>
            </Position>
            <AltitudeMeters>6</AltitudeMeters>
            <DistanceMeters>NAN</DistanceMeters>
          </Trackpoint>
          <Trackpoint>
            <Time>2021-08-12T08:43:23.000Z</Time>
            <Position>
              <LatitudeDegrees>43.30442690290510654449462890625</LatitudeDegrees>
              <LongitudeDegrees>-1.96229430846869945526123046875</LongitudeDegrees>
            </Position>
            <AltitudeMeters>6</AltitudeMeters>
            <DistanceMeters>NAN</DistanceMeters>
          </Trackpoint>
          <Trackpoint>
            <Time>2021-08-12T08:43:24.000Z</Time>
            <Position>
              <LatitudeDegrees>43.3044424094259738922119140625</LatitudeDegrees>
              <LongitudeDegrees>-1.96233336813747882843017578125</LongitudeDegrees>
            </Position>
            <AltitudeMeters>6</AltitudeMeters>
            <DistanceMeters>NAN</DistanceMeters>
          </Trackpoint>
          <Trackpoint>
            <Time>2021-08-12T08:43:26.000Z</Time>
            <Position>
              <LatitudeDegrees>43.30447685904800891876220703125</LatitudeDegrees>
              <LongitudeDegrees>-1.96240846998989582061767578125</LongitudeDegrees>
            </Position>
            <AltitudeMeters>6</AltitudeMeters>
            <DistanceMeters>NAN</DistanceMeters>
          </Trackpoint>
          <Trackpoint>
            <Time>2021-08-12T08:43:29.000Z</Time>
            <Position>
              <LatitudeDegrees>43.304510973393917083740234375</LatitudeDegrees>
              <LongitudeDegrees>-1.96251575835049152374267578125</LongitudeDegrees>
            </Position>
            <AltitudeMeters>6</AltitudeMeters>
            <DistanceMeters>NAN</DistanceMeters>
          </Trackpoint>
          <Trackpoint>
            <Time>2021-08-12T08:43:30.000Z</Time>
            <Position>
              <LatitudeDegrees>43.30452404916286468505859375</LatitudeDegrees>
              <LongitudeDegrees>-1.96254928596317768096923828125</LongitudeDegrees>
            </Position>
            <AltitudeMeters>6</AltitudeMeters>
            <DistanceMeters>NAN</DistanceMeters>
          </Trackpoint>
          <Trackpoint>
            <Time>2021-08-12T08:43:31.000Z</Time>
            <Position>
              <LatitudeDegrees>43.30453922040760517120361328125</LatitudeDegrees>
              <LongitudeDegrees>-1.96258532814681529998779296875</LongitudeDegrees>
            </Position>
            <AltitudeMeters>6</AltitudeMeters>
            <DistanceMeters>NAN</DistanceMeters>
          </Trackpoint>
          <Trackpoint>
            <Time>2021-08-12T08:43:32.000Z</Time>
            <Position>
              <LatitudeDegrees>43.30455246381461620330810546875</LatitudeDegrees>
              <LongitudeDegrees>-1.96262061595916748046875</LongitudeDegrees>
            </Position>
            <AltitudeMeters>6</AltitudeMeters>
            <DistanceMeters>NAN</DistanceMeters>
          </Trackpoint>
          <Trackpoint>
            <Time>2021-08-12T08:43:33.000Z</Time>
            <Position>
              <LatitudeDegrees>43.3045651204884052276611328125</LatitudeDegrees>
              <LongitudeDegrees>-1.96265540085732936859130859375</LongitudeDegrees>
            </Position>
            <AltitudeMeters>6</AltitudeMeters>
            <DistanceMeters>NAN</DistanceMeters>
          </Trackpoint>
          <Trackpoint>
            <Time>2021-08-12T08:43:34.000Z</Time>
            <Position>
              <LatitudeDegrees>43.3045778609812259674072265625</LatitudeDegrees>
              <LongitudeDegrees>-1.96269026957452297210693359375</LongitudeDegrees>
            </Position>
            <AltitudeMeters>6</AltitudeMeters>
            <DistanceMeters>NAN</DistanceMeters>
          </Trackpoint>
          <Trackpoint>
            <Time>2021-08-12T08:43:35.000Z</Time>
            <Position>
              <LatitudeDegrees>43.30459051765501499176025390625</LatitudeDegrees>
              <LongitudeDegrees>-1.962727569043636322021484375</LongitudeDegrees>
            </Position>
            <AltitudeMeters>6</AltitudeMeters>
            <DistanceMeters>NAN</DistanceMeters>
          </Trackpoint>
          <Trackpoint>
            <Time>2021-08-12T08:43:36.000Z</Time>
            <Position>
              <LatitudeDegrees>43.30460585653781890869140625</LatitudeDegrees>
              <LongitudeDegrees>-1.9627721607685089111328125</LongitudeDegrees>
            </Position>
            <AltitudeMeters>6</AltitudeMeters>
            <DistanceMeters>NAN</DistanceMeters>
          </Trackpoint>
          <Trackpoint>
            <Time>2021-08-12T08:43:41.000Z</Time>
            <Position>
              <LatitudeDegrees>43.3046794496476650238037109375</LatitudeDegrees>
              <LongitudeDegrees>-1.96295731700956821441650390625</LongitudeDegrees>
            </Position>
            <AltitudeMeters>6</AltitudeMeters>
            <DistanceMeters>NAN</DistanceMeters>
          </Trackpoint>
          <Trackpoint>
            <Time>2021-08-12T08:43:50.000Z</Time>
            <Position>
              <LatitudeDegrees>43.3048071898519992828369140625</LatitudeDegrees>
              <LongitudeDegrees>-1.96334011852741241455078125</LongitudeDegrees>
            </Position>
            <AltitudeMeters>6.19999980926513671875</AltitudeMeters>
            <DistanceMeters>NAN</DistanceMeters>
          </Trackpoint>
          <Trackpoint>
            <Time>2021-08-12T08:43:57.000Z</Time>
            <Position>
              <LatitudeDegrees>43.30489394254982471466064453125</LatitudeDegrees>
              <LongitudeDegrees>-1.9636802561581134796142578125</LongitudeDegrees>
            </Position>
            <AltitudeMeters>6.19999980926513671875</AltitudeMeters>
            <DistanceMeters>NAN</DistanceMeters>
          </Trackpoint>
          <Trackpoint>
            <Time>2021-08-12T08:43:58.000Z</Time>
            <Position>
              <LatitudeDegrees>43.30491456203162670135498046875</LatitudeDegrees>
              <LongitudeDegrees>-1.9637124426662921905517578125</LongitudeDegrees>
            </Position>
            <AltitudeMeters>6.19999980926513671875</AltitudeMeters>
            <DistanceMeters>NAN</DistanceMeters>
          </Trackpoint>
          <Trackpoint>
            <Time>2021-08-12T08:43:59.000Z</Time>
            <Position>
              <LatitudeDegrees>43.304934762418270111083984375</LatitudeDegrees>
              <LongitudeDegrees>-1.9637382589280605316162109375</LongitudeDegrees>
            </Position>
            <AltitudeMeters>6.19999980926513671875</AltitudeMeters>
            <DistanceMeters>NAN</DistanceMeters>
          </Trackpoint>
          <Trackpoint>
            <Time>2021-08-12T08:44:00.000Z</Time>
            <Position>
              <LatitudeDegrees>43.3049557171761989593505859375</LatitudeDegrees>
              <LongitudeDegrees>-1.9637593813240528106689453125</LongitudeDegrees>
            </Position>
            <AltitudeMeters>6.19999980926513671875</AltitudeMeters>
            <DistanceMeters>NAN</DistanceMeters>
          </Trackpoint>
          <Trackpoint>
            <Time>2021-08-12T08:44:01.000Z</Time>
            <Position>
              <LatitudeDegrees>43.30497876740992069244384765625</LatitudeDegrees>
              <LongitudeDegrees>-1.9637744687497615814208984375</LongitudeDegrees>
            </Position>
            <AltitudeMeters>6.19999980926513671875</AltitudeMeters>
            <DistanceMeters>NAN</DistanceMeters>
          </Trackpoint>
          <Trackpoint>
            <Time>2021-08-12T08:44:02.000Z</Time>
            <Position>
              <LatitudeDegrees>43.3050026558339595794677734375</LatitudeDegrees>
              <LongitudeDegrees>-1.96378444321453571319580078125</LongitudeDegrees>
            </Position>
            <AltitudeMeters>6.400000095367431640625</AltitudeMeters>
            <DistanceMeters>NAN</DistanceMeters>
          </Trackpoint>
          <Trackpoint>
            <Time>2021-08-12T08:44:03.000Z</Time>
            <Position>
              <LatitudeDegrees>43.305027298629283905029296875</LatitudeDegrees>
              <LongitudeDegrees>-1.96379131637513637542724609375</LongitudeDegrees>
            </Position>
            <AltitudeMeters>6.400000095367431640625</AltitudeMeters>
            <DistanceMeters>NAN</DistanceMeters>
          </Trackpoint>
          <Trackpoint>
            <Time>2021-08-12T08:44:04.000Z</Time>
            <Position>
              <LatitudeDegrees>43.30504171550273895263671875</LatitudeDegrees>
              <LongitudeDegrees>-1.963789723813533782958984375</LongitudeDegrees>
            </Position>
            <AltitudeMeters>6.400000095367431640625</AltitudeMeters>
            <DistanceMeters>NAN</DistanceMeters>
          </Trackpoint>
          <Trackpoint>
            <Time>2021-08-12T08:44:05.000Z</Time>
            <Position>
              <LatitudeDegrees>43.30505873076617717742919921875</LatitudeDegrees>
              <LongitudeDegrees>-1.9637831859290599822998046875</LongitudeDegrees>
            </Position>
            <AltitudeMeters>6.599999904632568359375</AltitudeMeters>
            <DistanceMeters>NAN</DistanceMeters>
          </Trackpoint>
          <Trackpoint>
            <Time>2021-08-12T08:44:06.000Z</Time>
            <Position>
              <LatitudeDegrees>43.30507096834480762481689453125</LatitudeDegrees>
              <LongitudeDegrees>-1.96377874352037906646728515625</LongitudeDegrees>
            </Position>
            <AltitudeMeters>6.599999904632568359375</AltitudeMeters>
            <DistanceMeters>NAN</DistanceMeters>
          </Trackpoint>
          <Trackpoint>
            <Time>2021-08-12T08:44:07.000Z</Time>
            <Position>
              <LatitudeDegrees>43.30508169718086719512939453125</LatitudeDegrees>
              <LongitudeDegrees>-1.96377136744558811187744140625</LongitudeDegrees>
            </Position>
            <AltitudeMeters>6.599999904632568359375</AltitudeMeters>
            <DistanceMeters>NAN</DistanceMeters>
          </Trackpoint>
          <Trackpoint>
            <Time>2021-08-12T08:44:08.000Z</Time>
            <Position>
              <LatitudeDegrees>43.3050898276269435882568359375</LatitudeDegrees>
              <LongitudeDegrees>-1.963763572275638580322265625</LongitudeDegrees>
            </Position>
            <AltitudeMeters>6.599999904632568359375</AltitudeMeters>
            <DistanceMeters>NAN</DistanceMeters>
          </Trackpoint>
          <Trackpoint>
            <Time>2021-08-12T08:44:09.000Z</Time>
            <Position>
              <LatitudeDegrees>43.30509670078754425048828125</LatitudeDegrees>
              <LongitudeDegrees>-1.963756866753101348876953125</LongitudeDegrees>
            </Position>
            <AltitudeMeters>6.599999904632568359375</AltitudeMeters>
            <DistanceMeters>NAN</DistanceMeters>
          </Trackpoint>
          <Trackpoint>
            <Time>2021-08-12T08:44:13.000Z</Time>
            <Position>
              <LatitudeDegrees>43.30510013736784458160400390625</LatitudeDegrees>
              <LongitudeDegrees>-1.96374689228832721710205078125</LongitudeDegrees>
            </Position>
            <AltitudeMeters>6.80000019073486328125</AltitudeMeters>
            <DistanceMeters>NAN</DistanceMeters>
          </Trackpoint>
          <Trackpoint>
            <Time>2021-08-12T08:45:02.000Z</Time>
            <Position>
              <LatitudeDegrees>43.30511304549872875213623046875</LatitudeDegrees>
              <LongitudeDegrees>-1.963697187602519989013671875</LongitudeDegrees>
            </Position>
            <AltitudeMeters>6.400000095367431640625</AltitudeMeters>
            <DistanceMeters>NAN</DistanceMeters>
          </Trackpoint>
          <Trackpoint>
            <Time>2021-08-12T08:45:04.000Z</Time>
            <Position>
              <LatitudeDegrees>43.30514556728303432464599609375</LatitudeDegrees>
              <LongitudeDegrees>-1.96367296390235424041748046875</LongitudeDegrees>
            </Position>
            <AltitudeMeters>6.400000095367431640625</AltitudeMeters>
            <DistanceMeters>NAN</DistanceMeters>
          </Trackpoint>
          <Trackpoint>
            <Time>2021-08-12T08:45:05.000Z</Time>
            <Position>
              <LatitudeDegrees>43.30516400747001171112060546875</LatitudeDegrees>
              <LongitudeDegrees>-1.96367631666362285614013671875</LongitudeDegrees>
            </Position>
            <AltitudeMeters>6.400000095367431640625</AltitudeMeters>
            <DistanceMeters>NAN</DistanceMeters>
          </Trackpoint>
          <Trackpoint>
            <Time>2021-08-12T08:45:08.000Z</Time>
            <Position>
              <LatitudeDegrees>43.30522787757217884063720703125</LatitudeDegrees>
              <LongitudeDegrees>-1.963727362453937530517578125</LongitudeDegrees>
            </Position>
            <AltitudeMeters>6.19999980926513671875</AltitudeMeters>
            <DistanceMeters>NAN</DistanceMeters>
          </Trackpoint>
          <Trackpoint>
            <Time>2021-08-12T08:45:09.000Z</Time>
            <Position>
              <LatitudeDegrees>43.3052433840930461883544921875</LatitudeDegrees>
              <LongitudeDegrees>-1.9637419469654560089111328125</LongitudeDegrees>
            </Position>
            <AltitudeMeters>6.19999980926513671875</AltitudeMeters>
            <DistanceMeters>NAN</DistanceMeters>
          </Trackpoint>
          <Trackpoint>
            <Time>2021-08-12T08:45:10.000Z</Time>
            <Position>
              <LatitudeDegrees>43.30525872297585010528564453125</LatitudeDegrees>
              <LongitudeDegrees>-1.96376751177012920379638671875</LongitudeDegrees>
            </Position>
            <AltitudeMeters>6.19999980926513671875</AltitudeMeters>
            <DistanceMeters>NAN</DistanceMeters>
          </Trackpoint>
          <Trackpoint>
            <Time>2021-08-12T08:45:11.000Z</Time>
            <Position>
              <LatitudeDegrees>43.30526425503194332122802734375</LatitudeDegrees>
              <LongitudeDegrees>-1.96381227113306522369384765625</LongitudeDegrees>
            </Position>
            <AltitudeMeters>6.19999980926513671875</AltitudeMeters>
            <DistanceMeters>NAN</DistanceMeters>
          </Trackpoint>
          <Trackpoint>
            <Time>2021-08-12T08:45:14.000Z</Time>
            <Position>
              <LatitudeDegrees>43.30524631775915622711181640625</LatitudeDegrees>
              <LongitudeDegrees>-1.96395426057279109954833984375</LongitudeDegrees>
            </Position>
            <AltitudeMeters>6.19999980926513671875</AltitudeMeters>
            <DistanceMeters>NAN</DistanceMeters>
          </Trackpoint>
          <Trackpoint>
            <Time>2021-08-12T08:45:15.000Z</Time>
            <Position>
              <LatitudeDegrees>43.30523860640823841094970703125</LatitudeDegrees>
              <LongitudeDegrees>-1.9639927335083484649658203125</LongitudeDegrees>
            </Position>
            <AltitudeMeters>6.19999980926513671875</AltitudeMeters>
            <DistanceMeters>NAN</DistanceMeters>
          </Trackpoint>
          <Trackpoint>
            <Time>2021-08-12T08:45:16.000Z</Time>
            <Position>
              <LatitudeDegrees>43.305229134857654571533203125</LatitudeDegrees>
              <LongitudeDegrees>-1.964051239192485809326171875</LongitudeDegrees>
            </Position>
            <AltitudeMeters>6.19999980926513671875</AltitudeMeters>
            <DistanceMeters>NAN</DistanceMeters>
          </Trackpoint>
          <Trackpoint>
            <Time>2021-08-12T08:45:22.000Z</Time>
            <Position>
              <LatitudeDegrees>43.305130563676357269287109375</LatitudeDegrees>
              <LongitudeDegrees>-1.964324153959751129150390625</LongitudeDegrees>
            </Position>
            <AltitudeMeters>6.400000095367431640625</AltitudeMeters>
            <DistanceMeters>NAN</DistanceMeters>
          </Trackpoint>
          <Trackpoint>
            <Time>2021-08-12T08:45:28.000Z</Time>
            <Position>
              <LatitudeDegrees>43.30510298721492290496826171875</LatitudeDegrees>
              <LongitudeDegrees>-1.96461014449596405029296875</LongitudeDegrees>
            </Position>
            <AltitudeMeters>6.400000095367431640625</AltitudeMeters>
            <DistanceMeters>NAN</DistanceMeters>
          </Trackpoint>
          <Trackpoint>
            <Time>2021-08-12T08:45:36.000Z</Time>
            <Position>
              <LatitudeDegrees>43.30518546514213085174560546875</LatitudeDegrees>
              <LongitudeDegrees>-1.9649931974709033966064453125</LongitudeDegrees>
            </Position>
            <AltitudeMeters>6.19999980926513671875</AltitudeMeters>
            <DistanceMeters>NAN</DistanceMeters>
          </Trackpoint>
          <Trackpoint>
            <Time>2021-08-12T08:45:41.000Z</Time>
            <Position>
              <LatitudeDegrees>43.30529124476015567779541015625</LatitudeDegrees>
              <LongitudeDegrees>-1.96528698317706584930419921875</LongitudeDegrees>
            </Position>
            <AltitudeMeters>6</AltitudeMeters>
            <DistanceMeters>NAN</DistanceMeters>
          </Trackpoint>
          <Trackpoint>
            <Time>2021-08-12T08:45:42.000Z</Time>
            <Position>
              <LatitudeDegrees>43.30530993640422821044921875</LatitudeDegrees>
              <LongitudeDegrees>-1.96532805450260639190673828125</LongitudeDegrees>
            </Position>
            <AltitudeMeters>6</AltitudeMeters>
            <DistanceMeters>NAN</DistanceMeters>
          </Trackpoint>
          <Trackpoint>
            <Time>2021-08-12T08:45:43.000Z</Time>
            <Position>
              <LatitudeDegrees>43.30532996915280818939208984375</LatitudeDegrees>
              <LongitudeDegrees>-1.9653687067329883575439453125</LongitudeDegrees>
            </Position>
            <AltitudeMeters>6</AltitudeMeters>
            <DistanceMeters>NAN</DistanceMeters>
          </Trackpoint>
          <Trackpoint>
            <Time>2021-08-12T08:45:44.000Z</Time>
            <Position>
              <LatitudeDegrees>43.305350840091705322265625</LatitudeDegrees>
              <LongitudeDegrees>-1.96541036479175090789794921875</LongitudeDegrees>
            </Position>
            <AltitudeMeters>6.19999980926513671875</AltitudeMeters>
            <DistanceMeters>NAN</DistanceMeters>
          </Trackpoint>
          <Trackpoint>
            <Time>2021-08-12T08:45:45.000Z</Time>
            <Position>
              <LatitudeDegrees>43.30537305213510990142822265625</LatitudeDegrees>
              <LongitudeDegrees>-1.9654488377273082733154296875</LongitudeDegrees>
            </Position>
            <AltitudeMeters>6.19999980926513671875</AltitudeMeters>
            <DistanceMeters>NAN</DistanceMeters>
          </Trackpoint>
          <Trackpoint>
            <Time>2021-08-12T08:45:46.000Z</Time>
            <Position>
              <LatitudeDegrees>43.30539585091173648834228515625</LatitudeDegrees>
              <LongitudeDegrees>-1.9654837064445018768310546875</LongitudeDegrees>
            </Position>
            <AltitudeMeters>6.400000095367431640625</AltitudeMeters>
            <DistanceMeters>NAN</DistanceMeters>
          </Trackpoint>
          <Trackpoint>
            <Time>2021-08-12T08:45:47.000Z</Time>
            <Position>
              <LatitudeDegrees>43.30541764385998249053955078125</LatitudeDegrees>
              <LongitudeDegrees>-1.9655185751616954803466796875</LongitudeDegrees>
            </Position>
            <AltitudeMeters>6.19999980926513671875</AltitudeMeters>
            <DistanceMeters>NAN</DistanceMeters>
          </Trackpoint>
          <Trackpoint>
            <Time>2021-08-12T08:45:48.000Z</Time>
            <Position>
              <LatitudeDegrees>43.30544027499854564666748046875</LatitudeDegrees>
              <LongitudeDegrees>-1.96555185131728649139404296875</LongitudeDegrees>
            </Position>
            <AltitudeMeters>6.400000095367431640625</AltitudeMeters>
            <DistanceMeters>NAN</DistanceMeters>
          </Trackpoint>
          <Trackpoint>
            <Time>2021-08-12T08:45:49.000Z</Time>
            <Position>
              <LatitudeDegrees>43.3054629899561405181884765625</LatitudeDegrees>
              <LongitudeDegrees>-1.9655879773199558258056640625</LongitudeDegrees>
            </Position>
            <AltitudeMeters>6.400000095367431640625</AltitudeMeters>
            <DistanceMeters>NAN</DistanceMeters>
          </Trackpoint>
          <Trackpoint>
            <Time>2021-08-12T08:45:50.000Z</Time>
            <Position>
              <LatitudeDegrees>43.30548763275146484375</LatitudeDegrees>
              <LongitudeDegrees>-1.9656241871416568756103515625</LongitudeDegrees>
            </Position>
            <AltitudeMeters>6.599999904632568359375</AltitudeMeters>
            <DistanceMeters>NAN</DistanceMeters>
          </Trackpoint>
          <Trackpoint>
            <Time>2021-08-12T08:45:51.000Z</Time>
            <Position>
              <LatitudeDegrees>43.3055149577558040618896484375</LatitudeDegrees>
              <LongitudeDegrees>-1.965657211840152740478515625</LongitudeDegrees>
            </Position>
            <AltitudeMeters>6.599999904632568359375</AltitudeMeters>
            <DistanceMeters>NAN</DistanceMeters>
          </Trackpoint>
          <Trackpoint>
            <Time>2021-08-12T08:45:52.000Z</Time>
            <Position>
              <LatitudeDegrees>43.3055421151220798492431640625</LatitudeDegrees>
              <LongitudeDegrees>-1.9656895659863948822021484375</LongitudeDegrees>
            </Position>
            <AltitudeMeters>6.80000019073486328125</AltitudeMeters>
            <DistanceMeters>NAN</DistanceMeters>
          </Trackpoint>
          <Trackpoint>
            <Time>2021-08-12T08:45:53.000Z</Time>
            <Position>
              <LatitudeDegrees>43.3055689372122287750244140625</LatitudeDegrees>
              <LongitudeDegrees>-1.96572200395166873931884765625</LongitudeDegrees>
            </Position>
            <AltitudeMeters>6.80000019073486328125</AltitudeMeters>
            <DistanceMeters>NAN</DistanceMeters>
          </Trackpoint>
          <Trackpoint>
            <Time>2021-08-12T08:45:55.000Z</Time>
            <Position>
              <LatitudeDegrees>43.3056271076202392578125</LatitudeDegrees>
              <LongitudeDegrees>-1.96577548049390316009521484375</LongitudeDegrees>
            </Position>
            <AltitudeMeters>6.80000019073486328125</AltitudeMeters>
            <DistanceMeters>NAN</DistanceMeters>
          </Trackpoint>
          <Trackpoint>
            <Time>2021-08-12T08:45:58.000Z</Time>
            <Position>
              <LatitudeDegrees>43.305713944137096405029296875</LatitudeDegrees>
              <LongitudeDegrees>-1.96583096869289875030517578125</LongitudeDegrees>
            </Position>
            <AltitudeMeters>6.80000019073486328125</AltitudeMeters>
            <DistanceMeters>NAN</DistanceMeters>
          </Trackpoint>
          <Trackpoint>
            <Time>2021-08-12T08:46:05.000Z</Time>
            <Position>
              <LatitudeDegrees>43.3059682510793209075927734375</LatitudeDegrees>
              <LongitudeDegrees>-1.9659410230815410614013671875</LongitudeDegrees>
            </Position>
            <AltitudeMeters>6.599999904632568359375</AltitudeMeters>
            <DistanceMeters>NAN</DistanceMeters>
          </Trackpoint>
          <Trackpoint>
            <Time>2021-08-12T08:46:10.000Z</Time>
            <Position>
              <LatitudeDegrees>43.3061462827026844024658203125</LatitudeDegrees>
              <LongitudeDegrees>-1.9659618102014064788818359375</LongitudeDegrees>
            </Position>
            <AltitudeMeters>6.400000095367431640625</AltitudeMeters>
            <DistanceMeters>NAN</DistanceMeters>
          </Trackpoint>
          <Trackpoint>
            <Time>2021-08-12T08:46:11.000Z</Time>
            <Position>
              <LatitudeDegrees>43.30618056468665599822998046875</LatitudeDegrees>
              <LongitudeDegrees>-1.9659665040671825408935546875</LongitudeDegrees>
            </Position>
            <AltitudeMeters>6.400000095367431640625</AltitudeMeters>
            <DistanceMeters>NAN</DistanceMeters>
          </Trackpoint>
          <Trackpoint>
            <Time>2021-08-12T08:46:12.000Z</Time>
            <Position>
              <LatitudeDegrees>43.30621425993740558624267578125</LatitudeDegrees>
              <LongitudeDegrees>-1.96597362868487834930419921875</LongitudeDegrees>
            </Position>
            <AltitudeMeters>6.400000095367431640625</AltitudeMeters>
            <DistanceMeters>NAN</DistanceMeters>
          </Trackpoint>
          <Trackpoint>
            <Time>2021-08-12T08:46:13.000Z</Time>
            <Position>
              <LatitudeDegrees>43.30624912865459918975830078125</LatitudeDegrees>
              <LongitudeDegrees>-1.96597999893128871917724609375</LongitudeDegrees>
            </Position>
            <AltitudeMeters>6.400000095367431640625</AltitudeMeters>
            <DistanceMeters>NAN</DistanceMeters>
          </Trackpoint>
          <Trackpoint>
            <Time>2021-08-12T08:46:14.000Z</Time>
            <Position>
              <LatitudeDegrees>43.3062800578773021697998046875</LatitudeDegrees>
              <LongitudeDegrees>-1.9659829325973987579345703125</LongitudeDegrees>
            </Position>
            <AltitudeMeters>6.400000095367431640625</AltitudeMeters>
            <DistanceMeters>NAN</DistanceMeters>
          </Trackpoint>
          <Trackpoint>
            <Time>2021-08-12T08:46:15.000Z</Time>
            <Position>
              <LatitudeDegrees>43.30632054246962070465087890625</LatitudeDegrees>
              <LongitudeDegrees>-1.9659836031496524810791015625</LongitudeDegrees>
            </Position>
            <AltitudeMeters>6.400000095367431640625</AltitudeMeters>
            <DistanceMeters>NAN</DistanceMeters>
          </Trackpoint>
          <Trackpoint>
            <Time>2021-08-12T08:46:20.000Z</Time>
            <Position>
              <LatitudeDegrees>43.30653729848563671112060546875</LatitudeDegrees>
              <LongitudeDegrees>-1.96599290706217288970947265625</LongitudeDegrees>
            </Position>
            <AltitudeMeters>6.19999980926513671875</AltitudeMeters>
            <DistanceMeters>NAN</DistanceMeters>
          </Trackpoint>
          <Trackpoint>
            <Time>2021-08-12T08:46:26.000Z</Time>
            <Position>
              <LatitudeDegrees>43.30676293931901454925537109375</LatitudeDegrees>
              <LongitudeDegrees>-1.966017298400402069091796875</LongitudeDegrees>
            </Position>
            <AltitudeMeters>5.80000019073486328125</AltitudeMeters>
            <DistanceMeters>NAN</DistanceMeters>
          </Trackpoint>
          <Trackpoint>
            <Time>2021-08-12T08:46:27.000Z</Time>
            <Position>
              <LatitudeDegrees>43.30679311417043209075927734375</LatitudeDegrees>
              <LongitudeDegrees>-1.96601604111492633819580078125</LongitudeDegrees>
            </Position>
            <AltitudeMeters>5.80000019073486328125</AltitudeMeters>
            <DistanceMeters>NAN</DistanceMeters>
          </Trackpoint>
          <Trackpoint>
            <Time>2021-08-12T08:46:28.000Z</Time>
            <Position>
              <LatitudeDegrees>43.30682060681283473968505859375</LatitudeDegrees>
              <LongitudeDegrees>-1.96601587347686290740966796875</LongitudeDegrees>
            </Position>
            <AltitudeMeters>5.80000019073486328125</AltitudeMeters>
            <DistanceMeters>NAN</DistanceMeters>
          </Trackpoint>
          <Trackpoint>
            <Time>2021-08-12T08:46:29.000Z</Time>
            <Position>
              <LatitudeDegrees>43.30685094930231571197509765625</LatitudeDegrees>
              <LongitudeDegrees>-1.96600665338337421417236328125</LongitudeDegrees>
            </Position>
            <AltitudeMeters>5.80000019073486328125</AltitudeMeters>
            <DistanceMeters>NAN</DistanceMeters>
          </Trackpoint>
          <Trackpoint>
            <Time>2021-08-12T08:46:30.000Z</Time>
            <Position>
              <LatitudeDegrees>43.30688296817243099212646484375</LatitudeDegrees>
              <LongitudeDegrees>-1.96600380353629589080810546875</LongitudeDegrees>
            </Position>
            <AltitudeMeters>5.80000019073486328125</AltitudeMeters>
            <DistanceMeters>NAN</DistanceMeters>
          </Trackpoint>
          <Trackpoint>
            <Time>2021-08-12T08:46:31.000Z</Time>
            <Position>
              <LatitudeDegrees>43.30691817216575145721435546875</LatitudeDegrees>
              <LongitudeDegrees>-1.96600246243178844451904296875</LongitudeDegrees>
            </Position>
            <AltitudeMeters>5.80000019073486328125</AltitudeMeters>
            <DistanceMeters>NAN</DistanceMeters>
          </Trackpoint>
          <Trackpoint>
            <Time>2021-08-12T08:46:32.000Z</Time>
            <Position>
              <LatitudeDegrees>43.30694935284554958343505859375</LatitudeDegrees>
              <LongitudeDegrees>-1.96600698865950107574462890625</LongitudeDegrees>
            </Position>
            <AltitudeMeters>5.80000019073486328125</AltitudeMeters>
            <DistanceMeters>NAN</DistanceMeters>
          </Trackpoint>
          <Trackpoint>
            <Time>2021-08-12T08:46:33.000Z</Time>
            <Position>
              <LatitudeDegrees>43.30697952769696712493896484375</LatitudeDegrees>
              <LongitudeDegrees>-1.9660114310681819915771484375</LongitudeDegrees>
            </Position>
            <AltitudeMeters>5.80000019073486328125</AltitudeMeters>
            <DistanceMeters>NAN</DistanceMeters>
          </Trackpoint>
          <Trackpoint>
            <Time>2021-08-12T08:46:34.000Z</Time>
            <Position>
              <LatitudeDegrees>43.307008109986782073974609375</LatitudeDegrees>
              <LongitudeDegrees>-1.9660171307623386383056640625</LongitudeDegrees>
            </Position>
            <AltitudeMeters>5.80000019073486328125</AltitudeMeters>
            <DistanceMeters>NAN</DistanceMeters>
          </Trackpoint>
          <Trackpoint>
            <Time>2021-08-12T08:46:35.000Z</Time>
            <Position>
              <LatitudeDegrees>43.307038955390453338623046875</LatitudeDegrees>
              <LongitudeDegrees>-1.966023333370685577392578125</LongitudeDegrees>
            </Position>
            <AltitudeMeters>5.80000019073486328125</AltitudeMeters>
            <DistanceMeters>NAN</DistanceMeters>
          </Trackpoint>
          <Trackpoint>
            <Time>2021-08-12T08:46:36.000Z</Time>
            <Position>
              <LatitudeDegrees>43.30707323737442493438720703125</LatitudeDegrees>
              <LongitudeDegrees>-1.96602878160774707794189453125</LongitudeDegrees>
            </Position>
            <AltitudeMeters>5.80000019073486328125</AltitudeMeters>
            <DistanceMeters>NAN</DistanceMeters>
          </Trackpoint>
          <Trackpoint>
            <Time>2021-08-12T08:46:44.000Z</Time>
            <Position>
              <LatitudeDegrees>43.3073542825877666473388671875</LatitudeDegrees>
              <LongitudeDegrees>-1.96605962701141834259033203125</LongitudeDegrees>
            </Position>
            <AltitudeMeters>5.80000019073486328125</AltitudeMeters>
            <DistanceMeters>NAN</DistanceMeters>
          </Trackpoint>
          <Trackpoint>
            <Time>2021-08-12T08:46:51.000Z</Time>
            <Position>
              <LatitudeDegrees>43.30761261284351348876953125</LatitudeDegrees>
              <LongitudeDegrees>-1.9660680927336215972900390625</LongitudeDegrees>
            </Position>
            <AltitudeMeters>5.80000019073486328125</AltitudeMeters>
            <DistanceMeters>NAN</DistanceMeters>
          </Trackpoint>
          <Trackpoint>
            <Time>2021-08-12T08:46:53.000Z</Time>
            <Position>
              <LatitudeDegrees>43.30768025480210781097412109375</LatitudeDegrees>
              <LongitudeDegrees>-1.966064907610416412353515625</LongitudeDegrees>
            </Position>
            <AltitudeMeters>5.80000019073486328125</AltitudeMeters>
            <DistanceMeters>NAN</DistanceMeters>
          </Trackpoint>
          <Trackpoint>
            <Time>2021-08-12T08:46:54.000Z</Time>
            <Position>
              <LatitudeDegrees>43.30770908854901790618896484375</LatitudeDegrees>
              <LongitudeDegrees>-1.96606113575398921966552734375</LongitudeDegrees>
            </Position>
            <AltitudeMeters>5.599999904632568359375</AltitudeMeters>
            <DistanceMeters>NAN</DistanceMeters>
          </Trackpoint>
          <Trackpoint>
            <Time>2021-08-12T08:46:55.000Z</Time>
            <Position>
              <LatitudeDegrees>43.30773591063916683197021484375</LatitudeDegrees>
              <LongitudeDegrees>-1.9660590402781963348388671875</LongitudeDegrees>
            </Position>
            <AltitudeMeters>5.599999904632568359375</AltitudeMeters>
            <DistanceMeters>NAN</DistanceMeters>
          </Trackpoint>
          <Trackpoint>
            <Time>2021-08-12T08:46:56.000Z</Time>
            <Position>
              <LatitudeDegrees>43.30776281654834747314453125</LatitudeDegrees>
              <LongitudeDegrees>-1.96605711244046688079833984375</LongitudeDegrees>
            </Position>
            <AltitudeMeters>5.599999904632568359375</AltitudeMeters>
            <DistanceMeters>NAN</DistanceMeters>
          </Trackpoint>
          <Trackpoint>
            <Time>2021-08-12T08:46:57.000Z</Time>
            <Position>
              <LatitudeDegrees>43.30778234638273715972900390625</LatitudeDegrees>
              <LongitudeDegrees>-1.966054178774356842041015625</LongitudeDegrees>
            </Position>
            <AltitudeMeters>5.599999904632568359375</AltitudeMeters>
            <DistanceMeters>NAN</DistanceMeters>
          </Trackpoint>
          <Trackpoint>
            <Time>2021-08-12T08:46:58.000Z</Time>
            <Position>
              <LatitudeDegrees>43.30779760144650936126708984375</LatitudeDegrees>
              <LongitudeDegrees>-1.9660543464124202728271484375</LongitudeDegrees>
            </Position>
            <AltitudeMeters>5.599999904632568359375</AltitudeMeters>
            <DistanceMeters>NAN</DistanceMeters>
          </Trackpoint>
          <Trackpoint>
            <Time>2021-08-12T08:46:59.000Z</Time>
            <Position>
              <LatitudeDegrees>43.30781134776771068572998046875</LatitudeDegrees>
              <LongitudeDegrees>-1.9660533405840396881103515625</LongitudeDegrees>
            </Position>
            <AltitudeMeters>5.599999904632568359375</AltitudeMeters>
            <DistanceMeters>NAN</DistanceMeters>
          </Trackpoint>
          <Trackpoint>
            <Time>2021-08-12T08:47:00.000Z</Time>
            <Position>
              <LatitudeDegrees>43.30782450735569000244140625</LatitudeDegrees>
              <LongitudeDegrees>-1.9660506583750247955322265625</LongitudeDegrees>
            </Position>
            <AltitudeMeters>5.599999904632568359375</AltitudeMeters>
            <DistanceMeters>NAN</DistanceMeters>
          </Trackpoint>
          <Trackpoint>
            <Time>2021-08-12T08:47:01.000Z</Time>
            <Position>
              <LatitudeDegrees>43.30783188343048095703125</LatitudeDegrees>
              <LongitudeDegrees>-1.9660496525466442108154296875</LongitudeDegrees>
            </Position>
            <AltitudeMeters>5.400000095367431640625</AltitudeMeters>
            <DistanceMeters>NAN</DistanceMeters>
          </Trackpoint>
          <Trackpoint>
            <Time>2021-08-12T08:47:03.000Z</Time>
            <Position>
              <LatitudeDegrees>43.307834900915622711181640625</LatitudeDegrees>
              <LongitudeDegrees>-1.96604504249989986419677734375</LongitudeDegrees>
            </Position>
            <AltitudeMeters>5.400000095367431640625</AltitudeMeters>
            <DistanceMeters>NAN</DistanceMeters>
          </Trackpoint>
          <Trackpoint>
            <Time>2021-08-12T08:47:28.000Z</Time>
            <Position>
              <LatitudeDegrees>43.30786867998540401458740234375</LatitudeDegrees>
              <LongitudeDegrees>-1.96604487486183643341064453125</LongitudeDegrees>
            </Position>
            <AltitudeMeters>5.19999980926513671875</AltitudeMeters>
            <DistanceMeters>NAN</DistanceMeters>
          </Trackpoint>
          <Trackpoint>
            <Time>2021-08-12T08:47:30.000Z</Time>
            <Position>
              <LatitudeDegrees>43.30792835913598537445068359375</LatitudeDegrees>
              <LongitudeDegrees>-1.96603112854063510894775390625</LongitudeDegrees>
            </Position>
            <AltitudeMeters>5.19999980926513671875</AltitudeMeters>
            <DistanceMeters>NAN</DistanceMeters>
          </Trackpoint>
          <Trackpoint>
            <Time>2021-08-12T08:47:35.000Z</Time>
            <Position>
              <LatitudeDegrees>43.3080751262605190277099609375</LatitudeDegrees>
              <LongitudeDegrees>-1.965993158519268035888671875</LongitudeDegrees>
            </Position>
            <AltitudeMeters>5.19999980926513671875</AltitudeMeters>
            <DistanceMeters>NAN</DistanceMeters>
          </Trackpoint>
          <Trackpoint>
            <Time>2021-08-12T08:47:36.000Z</Time>
            <Position>
              <LatitudeDegrees>43.30810605548322200775146484375</LatitudeDegrees>
              <LongitudeDegrees>-1.96598636917769908905029296875</LongitudeDegrees>
            </Position>
            <AltitudeMeters>5.19999980926513671875</AltitudeMeters>
            <DistanceMeters>NAN</DistanceMeters>
          </Trackpoint>
          <Trackpoint>
            <Time>2021-08-12T08:47:37.000Z</Time>
            <Position>
              <LatitudeDegrees>43.30813019536435604095458984375</LatitudeDegrees>
              <LongitudeDegrees>-1.96598385460674762725830078125</LongitudeDegrees>
            </Position>
            <AltitudeMeters>5.19999980926513671875</AltitudeMeters>
            <DistanceMeters>NAN</DistanceMeters>
          </Trackpoint>
          <Trackpoint>
            <Time>2021-08-12T08:47:40.000Z</Time>
            <Position>
              <LatitudeDegrees>43.3081975020468235015869140625</LatitudeDegrees>
              <LongitudeDegrees>-1.965978406369686126708984375</LongitudeDegrees>
            </Position>
            <AltitudeMeters>5.400000095367431640625</AltitudeMeters>
            <DistanceMeters>NAN</DistanceMeters>
          </Trackpoint>
          <Trackpoint>
            <Time>2021-08-12T08:47:41.000Z</Time>
            <Position>
              <LatitudeDegrees>43.3082263357937335968017578125</LatitudeDegrees>
              <LongitudeDegrees>-1.9659752212464809417724609375</LongitudeDegrees>
            </Position>
            <AltitudeMeters>5.400000095367431640625</AltitudeMeters>
            <DistanceMeters>NAN</DistanceMeters>
          </Trackpoint>
          <Trackpoint>
            <Time>2021-08-12T08:47:42.000Z</Time>
            <Position>
              <LatitudeDegrees>43.3082568459212779998779296875</LatitudeDegrees>
              <LongitudeDegrees>-1.96596868336200714111328125</LongitudeDegrees>
            </Position>
            <AltitudeMeters>5.599999904632568359375</AltitudeMeters>
            <DistanceMeters>NAN</DistanceMeters>
          </Trackpoint>
          <Trackpoint>
            <Time>2021-08-12T08:47:43.000Z</Time>
            <Position>
              <LatitudeDegrees>43.30829129554331302642822265625</LatitudeDegrees>
              <LongitudeDegrees>-1.96595971472561359405517578125</LongitudeDegrees>
            </Position>
            <AltitudeMeters>5.599999904632568359375</AltitudeMeters>
            <DistanceMeters>NAN</DistanceMeters>
          </Trackpoint>
          <Trackpoint>
            <Time>2021-08-12T08:47:46.000Z</Time>
            <Position>
              <LatitudeDegrees>43.3083979971706867218017578125</LatitudeDegrees>
              <LongitudeDegrees>-1.96593758650124073028564453125</LongitudeDegrees>
            </Position>
            <AltitudeMeters>5.80000019073486328125</AltitudeMeters>
            <DistanceMeters>NAN</DistanceMeters>
          </Trackpoint>
          <Trackpoint>
            <Time>2021-08-12T08:47:50.000Z</Time>
            <Position>
              <LatitudeDegrees>43.3085404895246028900146484375</LatitudeDegrees>
              <LongitudeDegrees>-1.965902633965015411376953125</LongitudeDegrees>
            </Position>
            <AltitudeMeters>5.80000019073486328125</AltitudeMeters>
            <DistanceMeters>NAN</DistanceMeters>
          </Trackpoint>
          <Trackpoint>
            <Time>2021-08-12T08:47:54.000Z</Time>
            <Position>
              <LatitudeDegrees>43.30868147313594818115234375</LatitudeDegrees>
              <LongitudeDegrees>-1.965872459113597869873046875</LongitudeDegrees>
            </Position>
            <AltitudeMeters>5.80000019073486328125</AltitudeMeters>
            <DistanceMeters>NAN</DistanceMeters>
          </Trackpoint>
          <Trackpoint>
            <Time>2021-08-12T08:47:59.000Z</Time>
            <Position>
              <LatitudeDegrees>43.30886813811957836151123046875</LatitudeDegrees>
              <LongitudeDegrees>-1.96582744829356670379638671875</LongitudeDegrees>
            </Position>
            <AltitudeMeters>5.80000019073486328125</AltitudeMeters>
            <DistanceMeters>NAN</DistanceMeters>
          </Trackpoint>
          <Trackpoint>
            <Time>2021-08-12T08:48:07.000Z</Time>
            <Position>
              <LatitudeDegrees>43.3091689646244049072265625</LatitudeDegrees>
              <LongitudeDegrees>-1.9657579623162746429443359375</LongitudeDegrees>
            </Position>
            <AltitudeMeters>5.80000019073486328125</AltitudeMeters>
            <DistanceMeters>NAN</DistanceMeters>
          </Trackpoint>
          <Trackpoint>
            <Time>2021-08-12T08:48:08.000Z</Time>
            <Position>
              <LatitudeDegrees>43.30920509062707424163818359375</LatitudeDegrees>
              <LongitudeDegrees>-1.96574362926185131072998046875</LongitudeDegrees>
            </Position>
            <AltitudeMeters>5.80000019073486328125</AltitudeMeters>
            <DistanceMeters>NAN</DistanceMeters>
          </Trackpoint>
          <Trackpoint>
            <Time>2021-08-12T08:48:09.000Z</Time>
            <Position>
              <LatitudeDegrees>43.30924297682940959930419921875</LatitudeDegrees>
              <LongitudeDegrees>-1.9657321460545063018798828125</LongitudeDegrees>
            </Position>
            <AltitudeMeters>5.80000019073486328125</AltitudeMeters>
            <DistanceMeters>NAN</DistanceMeters>
          </Trackpoint>
          <Trackpoint>
            <Time>2021-08-12T08:48:10.000Z</Time>
            <Position>
              <LatitudeDegrees>43.30927826464176177978515625</LatitudeDegrees>
              <LongitudeDegrees>-1.96571932174265384674072265625</LongitudeDegrees>
            </Position>
            <AltitudeMeters>5.599999904632568359375</AltitudeMeters>
            <DistanceMeters>NAN</DistanceMeters>
          </Trackpoint>
          <Trackpoint>
            <Time>2021-08-12T08:48:11.000Z</Time>
            <Position>
              <LatitudeDegrees>43.30931187607347965240478515625</LatitudeDegrees>
              <LongitudeDegrees>-1.96570448577404022216796875</LongitudeDegrees>
            </Position>
            <AltitudeMeters>5.599999904632568359375</AltitudeMeters>
            <DistanceMeters>NAN</DistanceMeters>
          </Trackpoint>
          <Trackpoint>
            <Time>2021-08-12T08:48:12.000Z</Time>
            <Position>
              <LatitudeDegrees>43.30934557132422924041748046875</LatitudeDegrees>
              <LongitudeDegrees>-1.9656865485012531280517578125</LongitudeDegrees>
            </Position>
            <AltitudeMeters>5.599999904632568359375</AltitudeMeters>
            <DistanceMeters>NAN</DistanceMeters>
          </Trackpoint>
          <Trackpoint>
            <Time>2021-08-12T08:48:13.000Z</Time>
            <Position>
              <LatitudeDegrees>43.309377841651439666748046875</LatitudeDegrees>
              <LongitudeDegrees>-1.9656691141426563262939453125</LongitudeDegrees>
            </Position>
            <AltitudeMeters>5.599999904632568359375</AltitudeMeters>
            <DistanceMeters>NAN</DistanceMeters>
          </Trackpoint>
          <Trackpoint>
            <Time>2021-08-12T08:48:14.000Z</Time>
            <Position>
              <LatitudeDegrees>43.30940994434058666229248046875</LatitudeDegrees>
              <LongitudeDegrees>-1.96565126068890094757080078125</LongitudeDegrees>
            </Position>
            <AltitudeMeters>5.599999904632568359375</AltitudeMeters>
            <DistanceMeters>NAN</DistanceMeters>
          </Trackpoint>
          <Trackpoint>
            <Time>2021-08-12T08:48:17.000Z</Time>
            <Position>
              <LatitudeDegrees>43.3095124550163745880126953125</LatitudeDegrees>
              <LongitudeDegrees>-1.965600550174713134765625</LongitudeDegrees>
            </Position>
            <AltitudeMeters>5.599999904632568359375</AltitudeMeters>
            <DistanceMeters>NAN</DistanceMeters>
          </Trackpoint>
          <Trackpoint>
            <Time>2021-08-12T08:48:18.000Z</Time>
            <Position>
              <LatitudeDegrees>43.3095444738864898681640625</LatitudeDegrees>
              <LongitudeDegrees>-1.9655809365212917327880859375</LongitudeDegrees>
            </Position>
            <AltitudeMeters>5.599999904632568359375</AltitudeMeters>
            <DistanceMeters>NAN</DistanceMeters>
          </Trackpoint>
          <Trackpoint>
            <Time>2021-08-12T08:48:19.000Z</Time>
            <Position>
              <LatitudeDegrees>43.3095761574804782867431640625</LatitudeDegrees>
              <LongitudeDegrees>-1.96555855683982372283935546875</LongitudeDegrees>
            </Position>
            <AltitudeMeters>5.599999904632568359375</AltitudeMeters>
            <DistanceMeters>NAN</DistanceMeters>
          </Trackpoint>
          <Trackpoint>
            <Time>2021-08-12T08:48:20.000Z</Time>
            <Position>
              <LatitudeDegrees>43.3096086792647838592529296875</LatitudeDegrees>
              <LongitudeDegrees>-1.96553860791027545928955078125</LongitudeDegrees>
            </Position>
            <AltitudeMeters>5.19999980926513671875</AltitudeMeters>
            <DistanceMeters>NAN</DistanceMeters>
          </Trackpoint>
          <Trackpoint>
            <Time>2021-08-12T08:48:26.000Z</Time>
            <Position>
              <LatitudeDegrees>43.30980439670383930206298828125</LatitudeDegrees>
              <LongitudeDegrees>-1.9654065929353237152099609375</LongitudeDegrees>
            </Position>
            <AltitudeMeters>5.19999980926513671875</AltitudeMeters>
            <DistanceMeters>NAN</DistanceMeters>
          </Trackpoint>
          <Trackpoint>
            <Time>2021-08-12T08:48:35.000Z</Time>
            <Position>
              <LatitudeDegrees>43.31008301116526126861572265625</LatitudeDegrees>
              <LongitudeDegrees>-1.9652101211249828338623046875</LongitudeDegrees>
            </Position>
            <AltitudeMeters>5.19999980926513671875</AltitudeMeters>
            <DistanceMeters>NAN</DistanceMeters>
          </Trackpoint>
          <Trackpoint>
            <Time>2021-08-12T08:48:36.000Z</Time>
            <Position>
              <LatitudeDegrees>43.31011922098696231842041015625</LatitudeDegrees>
              <LongitudeDegrees>-1.96519109420478343963623046875</LongitudeDegrees>
            </Position>
            <AltitudeMeters>5.19999980926513671875</AltitudeMeters>
            <DistanceMeters>NAN</DistanceMeters>
          </Trackpoint>
          <Trackpoint>
            <Time>2021-08-12T08:48:37.000Z</Time>
            <Position>
              <LatitudeDegrees>43.310147635638713836669921875</LatitudeDegrees>
              <LongitudeDegrees>-1.96517751552164554595947265625</LongitudeDegrees>
            </Position>
            <AltitudeMeters>5.19999980926513671875</AltitudeMeters>
            <DistanceMeters>NAN</DistanceMeters>
          </Trackpoint>
          <Trackpoint>
            <Time>2021-08-12T08:48:38.000Z</Time>
            <Position>
              <LatitudeDegrees>43.3101752959191799163818359375</LatitudeDegrees>
              <LongitudeDegrees>-1.96516075171530246734619140625</LongitudeDegrees>
            </Position>
            <AltitudeMeters>5.19999980926513671875</AltitudeMeters>
            <DistanceMeters>NAN</DistanceMeters>
          </Trackpoint>
          <Trackpoint>
            <Time>2021-08-12T08:48:39.000Z</Time>
            <Position>
              <LatitudeDegrees>43.3102054707705974578857421875</LatitudeDegrees>
              <LongitudeDegrees>-1.96514566428959369659423828125</LongitudeDegrees>
            </Position>
            <AltitudeMeters>5.19999980926513671875</AltitudeMeters>
            <DistanceMeters>NAN</DistanceMeters>
          </Trackpoint>
          <Trackpoint>
            <Time>2021-08-12T08:48:40.000Z</Time>
            <Position>
              <LatitudeDegrees>43.31023639999330043792724609375</LatitudeDegrees>
              <LongitudeDegrees>-1.96513057686388492584228515625</LongitudeDegrees>
            </Position>
            <AltitudeMeters>5.19999980926513671875</AltitudeMeters>
            <DistanceMeters>NAN</DistanceMeters>
          </Trackpoint>
          <Trackpoint>
            <Time>2021-08-12T08:48:41.000Z</Time>
            <Position>
              <LatitudeDegrees>43.31025986932218074798583984375</LatitudeDegrees>
              <LongitudeDegrees>-1.9651185907423496246337890625</LongitudeDegrees>
            </Position>
            <AltitudeMeters>5.19999980926513671875</AltitudeMeters>
            <DistanceMeters>NAN</DistanceMeters>
          </Trackpoint>
          <Trackpoint>
            <Time>2021-08-12T08:48:42.000Z</Time>
            <Position>
              <LatitudeDegrees>43.31028954125940799713134765625</LatitudeDegrees>
              <LongitudeDegrees>-1.96510677225887775421142578125</LongitudeDegrees>
            </Position>
            <AltitudeMeters>5.19999980926513671875</AltitudeMeters>
            <DistanceMeters>NAN</DistanceMeters>
          </Trackpoint>
          <Trackpoint>
            <Time>2021-08-12T08:48:43.000Z</Time>
            <Position>
              <LatitudeDegrees>43.31032030284404754638671875</LatitudeDegrees>
              <LongitudeDegrees>-1.96509302593767642974853515625</LongitudeDegrees>
            </Position>
            <AltitudeMeters>5.19999980926513671875</AltitudeMeters>
            <DistanceMeters>NAN</DistanceMeters>
          </Trackpoint>
          <Trackpoint>
            <Time>2021-08-12T08:48:44.000Z</Time>
            <Position>
              <LatitudeDegrees>43.3103523217141628265380859375</LatitudeDegrees>
              <LongitudeDegrees>-1.96507961489260196685791015625</LongitudeDegrees>
            </Position>
            <AltitudeMeters>5.19999980926513671875</AltitudeMeters>
            <DistanceMeters>NAN</DistanceMeters>
          </Trackpoint>
          <Trackpoint>
            <Time>2021-08-12T08:48:45.000Z</Time>
            <Position>
              <LatitudeDegrees>43.31039364449679851531982421875</LatitudeDegrees>
              <LongitudeDegrees>-1.9650639407336711883544921875</LongitudeDegrees>
            </Position>
            <AltitudeMeters>5.19999980926513671875</AltitudeMeters>
            <DistanceMeters>NAN</DistanceMeters>
          </Trackpoint>
          <Trackpoint>
            <Time>2021-08-12T08:48:47.000Z</Time>
            <Position>
              <LatitudeDegrees>43.31046237610280513763427734375</LatitudeDegrees>
              <LongitudeDegrees>-1.9650273956358432769775390625</LongitudeDegrees>
            </Position>
            <AltitudeMeters>5.19999980926513671875</AltitudeMeters>
            <DistanceMeters>NAN</DistanceMeters>
          </Trackpoint>
          <Trackpoint>
            <Time>2021-08-12T08:48:54.000Z</Time>
            <Position>
              <LatitudeDegrees>43.31069690175354480743408203125</LatitudeDegrees>
              <LongitudeDegrees>-1.9649549759924411773681640625</LongitudeDegrees>
            </Position>
            <AltitudeMeters>5.19999980926513671875</AltitudeMeters>
            <DistanceMeters>NAN</DistanceMeters>
          </Trackpoint>
          <Trackpoint>
            <Time>2021-08-12T08:48:55.000Z</Time>
            <Position>
              <LatitudeDegrees>43.310731016099452972412109375</LatitudeDegrees>
              <LongitudeDegrees>-1.96494416333734989166259765625</LongitudeDegrees>
            </Position>
            <AltitudeMeters>5.19999980926513671875</AltitudeMeters>
            <DistanceMeters>NAN</DistanceMeters>
          </Trackpoint>
          <Trackpoint>
            <Time>2021-08-12T08:48:56.000Z</Time>
            <Position>
              <LatitudeDegrees>43.31075741909444332122802734375</LatitudeDegrees>
              <LongitudeDegrees>-1.96493293158710002899169921875</LongitudeDegrees>
            </Position>
            <AltitudeMeters>5.19999980926513671875</AltitudeMeters>
            <DistanceMeters>NAN</DistanceMeters>
          </Trackpoint>
          <Trackpoint>
            <Time>2021-08-12T08:48:59.000Z</Time>
            <Position>
              <LatitudeDegrees>43.3108606003224849700927734375</LatitudeDegrees>
              <LongitudeDegrees>-1.964892446994781494140625</LongitudeDegrees>
            </Position>
            <AltitudeMeters>5.19999980926513671875</AltitudeMeters>
            <DistanceMeters>NAN</DistanceMeters>
          </Trackpoint>
          <Trackpoint>
            <Time>2021-08-12T08:49:02.000Z</Time>
            <Position>
              <LatitudeDegrees>43.310961686074733734130859375</LatitudeDegrees>
              <LongitudeDegrees>-1.9648781977593898773193359375</LongitudeDegrees>
            </Position>
            <AltitudeMeters>5.19999980926513671875</AltitudeMeters>
            <DistanceMeters>NAN</DistanceMeters>
          </Trackpoint>
          <Trackpoint>
            <Time>2021-08-12T08:49:03.000Z</Time>
            <Position>
              <LatitudeDegrees>43.3109903521835803985595703125</LatitudeDegrees>
              <LongitudeDegrees>-1.96487962268292903900146484375</LongitudeDegrees>
            </Position>
            <AltitudeMeters>5.19999980926513671875</AltitudeMeters>
            <DistanceMeters>NAN</DistanceMeters>
          </Trackpoint>
          <Trackpoint>
            <Time>2021-08-12T08:49:04.000Z</Time>
            <Position>
              <LatitudeDegrees>43.31101759336888790130615234375</LatitudeDegrees>
              <LongitudeDegrees>-1.96487492881715297698974609375</LongitudeDegrees>
            </Position>
            <AltitudeMeters>5.19999980926513671875</AltitudeMeters>
            <DistanceMeters>NAN</DistanceMeters>
          </Trackpoint>
          <Trackpoint>
            <Time>2021-08-12T08:49:05.000Z</Time>
            <Position>
              <LatitudeDegrees>43.3110344409942626953125</LatitudeDegrees>
              <LongitudeDegrees>-1.96487174369394779205322265625</LongitudeDegrees>
            </Position>
            <AltitudeMeters>5.19999980926513671875</AltitudeMeters>
            <DistanceMeters>NAN</DistanceMeters>
          </Trackpoint>
          <Trackpoint>
            <Time>2021-08-12T08:49:06.000Z</Time>
            <Position>
              <LatitudeDegrees>43.3110600896179676055908203125</LatitudeDegrees>
              <LongitudeDegrees>-1.9648631103336811065673828125</LongitudeDegrees>
            </Position>
            <AltitudeMeters>5.19999980926513671875</AltitudeMeters>
            <DistanceMeters>NAN</DistanceMeters>
          </Trackpoint>
          <Trackpoint>
            <Time>2021-08-12T08:49:07.000Z</Time>
            <Position>
              <LatitudeDegrees>43.3110798709094524383544921875</LatitudeDegrees>
              <LongitudeDegrees>-1.96485464461147785186767578125</LongitudeDegrees>
            </Position>
            <AltitudeMeters>5.19999980926513671875</AltitudeMeters>
            <DistanceMeters>NAN</DistanceMeters>
          </Trackpoint>
          <Trackpoint>
            <Time>2021-08-12T08:49:14.000Z</Time>
            <Position>
              <LatitudeDegrees>43.311268799006938934326171875</LatitudeDegrees>
              <LongitudeDegrees>-1.96478222496807575225830078125</LongitudeDegrees>
            </Position>
            <AltitudeMeters>5.19999980926513671875</AltitudeMeters>
            <DistanceMeters>NAN</DistanceMeters>
          </Trackpoint>
          <Trackpoint>
            <Time>2021-08-12T08:49:20.000Z</Time>
            <Position>
              <LatitudeDegrees>43.3114074356853961944580078125</LatitudeDegrees>
              <LongitudeDegrees>-1.96474467404186725616455078125</LongitudeDegrees>
            </Position>
            <AltitudeMeters>5.19999980926513671875</AltitudeMeters>
            <DistanceMeters>NAN</DistanceMeters>
          </Trackpoint>
          <Trackpoint>
            <Time>2021-08-12T08:49:21.000Z</Time>
            <Position>
              <LatitudeDegrees>43.3114248700439929962158203125</LatitudeDegrees>
              <LongitudeDegrees>-1.9647517986595630645751953125</LongitudeDegrees>
            </Position>
            <AltitudeMeters>5.19999980926513671875</AltitudeMeters>
            <DistanceMeters>NAN</DistanceMeters>
          </Trackpoint>
          <Trackpoint>
            <Time>2021-08-12T08:49:22.000Z</Time>
            <Position>
              <LatitudeDegrees>43.31143476068973541259765625</LatitudeDegrees>
              <LongitudeDegrees>-1.964772753417491912841796875</LongitudeDegrees>
            </Position>
            <AltitudeMeters>5.19999980926513671875</AltitudeMeters>
            <DistanceMeters>NAN</DistanceMeters>
          </Trackpoint>
          <Trackpoint>
            <Time>2021-08-12T08:49:23.000Z</Time>
            <Position>
              <LatitudeDegrees>43.31143585033714771270751953125</LatitudeDegrees>
              <LongitudeDegrees>-1.964801251888275146484375</LongitudeDegrees>
            </Position>
            <AltitudeMeters>5.19999980926513671875</AltitudeMeters>
            <DistanceMeters>NAN</DistanceMeters>
          </Trackpoint>
          <Trackpoint>
            <Time>2021-08-12T08:49:24.000Z</Time>
            <Position>
              <LatitudeDegrees>43.3114352636039257049560546875</LatitudeDegrees>
              <LongitudeDegrees>-1.964828073978424072265625</LongitudeDegrees>
            </Position>
            <AltitudeMeters>5.19999980926513671875</AltitudeMeters>
            <DistanceMeters>NAN</DistanceMeters>
          </Trackpoint>
          <Trackpoint>
            <Time>2021-08-12T08:49:25.000Z</Time>
            <Position>
              <LatitudeDegrees>43.3114354312419891357421875</LatitudeDegrees>
              <LongitudeDegrees>-1.96485850028693675994873046875</LongitudeDegrees>
            </Position>
            <AltitudeMeters>5.19999980926513671875</AltitudeMeters>
            <DistanceMeters>NAN</DistanceMeters>
          </Trackpoint>
          <Trackpoint>
            <Time>2021-08-12T08:49:26.000Z</Time>
            <Position>
              <LatitudeDegrees>43.31143853254616260528564453125</LatitudeDegrees>
              <LongitudeDegrees>-1.96488867513835430145263671875</LongitudeDegrees>
            </Position>
            <AltitudeMeters>5.19999980926513671875</AltitudeMeters>
            <DistanceMeters>NAN</DistanceMeters>
          </Trackpoint>
          <Trackpoint>
            <Time>2021-08-12T08:49:27.000Z</Time>
            <Position>
              <LatitudeDegrees>43.31144356168806552886962890625</LatitudeDegrees>
              <LongitudeDegrees>-1.96491868235170841217041015625</LongitudeDegrees>
            </Position>
            <AltitudeMeters>5.19999980926513671875</AltitudeMeters>
            <DistanceMeters>NAN</DistanceMeters>
          </Trackpoint>
          <Trackpoint>
            <Time>2021-08-12T08:49:28.000Z</Time>
            <Position>
              <LatitudeDegrees>43.31144750118255615234375</LatitudeDegrees>
              <LongitudeDegrees>-1.9649526290595531463623046875</LongitudeDegrees>
            </Position>
            <AltitudeMeters>5.19999980926513671875</AltitudeMeters>
            <DistanceMeters>NAN</DistanceMeters>
          </Trackpoint>
          <Trackpoint>
            <Time>2021-08-12T08:49:29.000Z</Time>
            <Position>
              <LatitudeDegrees>43.31145009957253932952880859375</LatitudeDegrees>
              <LongitudeDegrees>-1.96498942561447620391845703125</LongitudeDegrees>
            </Position>
            <AltitudeMeters>5.19999980926513671875</AltitudeMeters>
            <DistanceMeters>NAN</DistanceMeters>
          </Trackpoint>
          <Trackpoint>
            <Time>2021-08-12T08:49:37.000Z</Time>
            <Position>
              <LatitudeDegrees>43.31149385310709476470947265625</LatitudeDegrees>
              <LongitudeDegrees>-1.9653036631643772125244140625</LongitudeDegrees>
            </Position>
            <AltitudeMeters>5.19999980926513671875</AltitudeMeters>
            <DistanceMeters>NAN</DistanceMeters>
          </Trackpoint>
          <Trackpoint>
            <Time>2021-08-12T08:49:41.000Z</Time>
            <Position>
              <LatitudeDegrees>43.31152134574949741363525390625</LatitudeDegrees>
              <LongitudeDegrees>-1.96544808335602283477783203125</LongitudeDegrees>
            </Position>
            <AltitudeMeters>5</AltitudeMeters>
            <DistanceMeters>NAN</DistanceMeters>
          </Trackpoint>
          <Trackpoint>
            <Time>2021-08-12T08:49:42.000Z</Time>
            <Position>
              <LatitudeDegrees>43.31152335740625858306884765625</LatitudeDegrees>
              <LongitudeDegrees>-1.9654689542949199676513671875</LongitudeDegrees>
            </Position>
            <AltitudeMeters>5</AltitudeMeters>
            <DistanceMeters>NAN</DistanceMeters>
          </Trackpoint>
          <Trackpoint>
            <Time>2021-08-12T08:49:43.000Z</Time>
            <Position>
              <LatitudeDegrees>43.3115247823297977447509765625</LatitudeDegrees>
              <LongitudeDegrees>-1.96548596955835819244384765625</LongitudeDegrees>
            </Position>
            <AltitudeMeters>4.80000019073486328125</AltitudeMeters>
            <DistanceMeters>NAN</DistanceMeters>
          </Trackpoint>
          <Trackpoint>
            <Time>2021-08-12T08:49:44.000Z</Time>
            <Position>
              <LatitudeDegrees>43.31152922473847866058349609375</LatitudeDegrees>
              <LongitudeDegrees>-1.96549904532730579376220703125</LongitudeDegrees>
            </Position>
            <AltitudeMeters>4.80000019073486328125</AltitudeMeters>
            <DistanceMeters>NAN</DistanceMeters>
          </Trackpoint>
          <Trackpoint>
            <Time>2021-08-12T08:49:45.000Z</Time>
            <Position>
              <LatitudeDegrees>43.31153190694749355316162109375</LatitudeDegrees>
              <LongitudeDegrees>-1.9655199162662029266357421875</LongitudeDegrees>
            </Position>
            <AltitudeMeters>4.599999904632568359375</AltitudeMeters>
            <DistanceMeters>NAN</DistanceMeters>
          </Trackpoint>
          <Trackpoint>
            <Time>2021-08-12T08:49:46.000Z</Time>
            <Position>
              <LatitudeDegrees>43.31153090111911296844482421875</LatitudeDegrees>
              <LongitudeDegrees>-1.96554581634700298309326171875</LongitudeDegrees>
            </Position>
            <AltitudeMeters>4.400000095367431640625</AltitudeMeters>
            <DistanceMeters>NAN</DistanceMeters>
          </Trackpoint>
          <Trackpoint>
            <Time>2021-08-12T08:49:47.000Z</Time>
            <Position>
              <LatitudeDegrees>43.31153106875717639923095703125</LatitudeDegrees>
              <LongitudeDegrees>-1.9655804336071014404296875</LongitudeDegrees>
            </Position>
            <AltitudeMeters>4.19999980926513671875</AltitudeMeters>
            <DistanceMeters>NAN</DistanceMeters>
          </Trackpoint>
          <Trackpoint>
            <Time>2021-08-12T08:49:51.000Z</Time>
            <Position>
              <LatitudeDegrees>43.31154682673513889312744140625</LatitudeDegrees>
              <LongitudeDegrees>-1.9657009653747081756591796875</LongitudeDegrees>
            </Position>
            <AltitudeMeters>4</AltitudeMeters>
            <DistanceMeters>NAN</DistanceMeters>
          </Trackpoint>
          <Trackpoint>
            <Time>2021-08-12T08:49:52.000Z</Time>
            <Position>
              <LatitudeDegrees>43.31155856139957904815673828125</LatitudeDegrees>
              <LongitudeDegrees>-1.965729631483554840087890625</LongitudeDegrees>
            </Position>
            <AltitudeMeters>4</AltitudeMeters>
            <DistanceMeters>NAN</DistanceMeters>
          </Trackpoint>
          <Trackpoint>
            <Time>2021-08-12T08:49:54.000Z</Time>
            <Position>
              <LatitudeDegrees>43.31157884560525417327880859375</LatitudeDegrees>
              <LongitudeDegrees>-1.96580029092729091644287109375</LongitudeDegrees>
            </Position>
            <AltitudeMeters>4</AltitudeMeters>
            <DistanceMeters>NAN</DistanceMeters>
          </Trackpoint>
          <Trackpoint>
            <Time>2021-08-12T08:49:55.000Z</Time>
            <Position>
              <LatitudeDegrees>43.311587311327457427978515625</LatitudeDegrees>
              <LongitudeDegrees>-1.96584974415600299835205078125</LongitudeDegrees>
            </Position>
            <AltitudeMeters>4</AltitudeMeters>
            <DistanceMeters>NAN</DistanceMeters>
          </Trackpoint>
          <Trackpoint>
            <Time>2021-08-12T08:49:56.000Z</Time>
            <Position>
              <LatitudeDegrees>43.31159477122128009796142578125</LatitudeDegrees>
              <LongitudeDegrees>-1.96589224040508270263671875</LongitudeDegrees>
            </Position>
            <AltitudeMeters>4</AltitudeMeters>
            <DistanceMeters>NAN</DistanceMeters>
          </Trackpoint>
          <Trackpoint>
            <Time>2021-08-12T08:49:57.000Z</Time>
            <Position>
              <LatitudeDegrees>43.311594016849994659423828125</LatitudeDegrees>
              <LongitudeDegrees>-1.96593557484447956085205078125</LongitudeDegrees>
            </Position>
            <AltitudeMeters>4</AltitudeMeters>
            <DistanceMeters>NAN</DistanceMeters>
          </Trackpoint>
          <Trackpoint>
            <Time>2021-08-12T08:49:58.000Z</Time>
            <Position>
              <LatitudeDegrees>43.31157959997653961181640625</LatitudeDegrees>
              <LongitudeDegrees>-1.965977735817432403564453125</LongitudeDegrees>
            </Position>
            <AltitudeMeters>4</AltitudeMeters>
            <DistanceMeters>NAN</DistanceMeters>
          </Trackpoint>
          <Trackpoint>
            <Time>2021-08-12T08:49:59.000Z</Time>
            <Position>
              <LatitudeDegrees>43.31156291998922824859619140625</LatitudeDegrees>
              <LongitudeDegrees>-1.9660255126655101776123046875</LongitudeDegrees>
            </Position>
            <AltitudeMeters>4</AltitudeMeters>
            <DistanceMeters>NAN</DistanceMeters>
          </Trackpoint>
          <Trackpoint>
            <Time>2021-08-12T08:50:00.000Z</Time>
            <Position>
              <LatitudeDegrees>43.31154431216418743133544921875</LatitudeDegrees>
              <LongitudeDegrees>-1.9660734571516513824462890625</LongitudeDegrees>
            </Position>
            <AltitudeMeters>4</AltitudeMeters>
            <DistanceMeters>NAN</DistanceMeters>
          </Trackpoint>
          <Trackpoint>
            <Time>2021-08-12T08:50:01.000Z</Time>
            <Position>
              <LatitudeDegrees>43.31152654252946376800537109375</LatitudeDegrees>
              <LongitudeDegrees>-1.96611679159104824066162109375</LongitudeDegrees>
            </Position>
            <AltitudeMeters>4</AltitudeMeters>
            <DistanceMeters>NAN</DistanceMeters>
          </Trackpoint>
          <Trackpoint>
            <Time>2021-08-12T08:50:02.000Z</Time>
            <Position>
              <LatitudeDegrees>43.3115050010383129119873046875</LatitudeDegrees>
              <LongitudeDegrees>-1.9661602936685085296630859375</LongitudeDegrees>
            </Position>
            <AltitudeMeters>4</AltitudeMeters>
            <DistanceMeters>NAN</DistanceMeters>
          </Trackpoint>
          <Trackpoint>
            <Time>2021-08-12T08:50:10.000Z</Time>
            <Position>
              <LatitudeDegrees>43.31133057363331317901611328125</LatitudeDegrees>
              <LongitudeDegrees>-1.9665358029305934906005859375</LongitudeDegrees>
            </Position>
            <AltitudeMeters>3.599999904632568359375</AltitudeMeters>
            <DistanceMeters>NAN</DistanceMeters>
          </Trackpoint>
          <Trackpoint>
            <Time>2021-08-12T08:50:15.000Z</Time>
            <Position>
              <LatitudeDegrees>43.311223872005939483642578125</LatitudeDegrees>
              <LongitudeDegrees>-1.96675716899335384368896484375</LongitudeDegrees>
            </Position>
            <AltitudeMeters>3.400000095367431640625</AltitudeMeters>
            <DistanceMeters>NAN</DistanceMeters>
          </Trackpoint>
          <Trackpoint>
            <Time>2021-08-12T08:50:16.000Z</Time>
            <Position>
              <LatitudeDegrees>43.3112062700092792510986328125</LatitudeDegrees>
              <LongitudeDegrees>-1.96679187007248401641845703125</LongitudeDegrees>
            </Position>
            <AltitudeMeters>3.400000095367431640625</AltitudeMeters>
            <DistanceMeters>NAN</DistanceMeters>
          </Trackpoint>
          <Trackpoint>
            <Time>2021-08-12T08:50:17.000Z</Time>
            <Position>
              <LatitudeDegrees>43.3111801184713840484619140625</LatitudeDegrees>
              <LongitudeDegrees>-1.96684886701405048370361328125</LongitudeDegrees>
            </Position>
            <AltitudeMeters>3.400000095367431640625</AltitudeMeters>
            <DistanceMeters>NAN</DistanceMeters>
          </Trackpoint>
          <Trackpoint>
            <Time>2021-08-12T08:50:20.000Z</Time>
            <Position>
              <LatitudeDegrees>43.31111666746437549591064453125</LatitudeDegrees>
              <LongitudeDegrees>-1.9669778645038604736328125</LongitudeDegrees>
            </Position>
            <AltitudeMeters>3.2000000476837158203125</AltitudeMeters>
            <DistanceMeters>NAN</DistanceMeters>
          </Trackpoint>
          <Trackpoint>
            <Time>2021-08-12T08:50:21.000Z</Time>
            <Position>
              <LatitudeDegrees>43.31109680235385894775390625</LatitudeDegrees>
              <LongitudeDegrees>-1.9670212827622890472412109375</LongitudeDegrees>
            </Position>
            <AltitudeMeters>3.2000000476837158203125</AltitudeMeters>
            <DistanceMeters>NAN</DistanceMeters>
          </Trackpoint>
          <Trackpoint>
            <Time>2021-08-12T08:50:22.000Z</Time>
            <Position>
              <LatitudeDegrees>43.3110773563385009765625</LatitudeDegrees>
              <LongitudeDegrees>-1.96706277318298816680908203125</LongitudeDegrees>
            </Position>
            <AltitudeMeters>3.2000000476837158203125</AltitudeMeters>
            <DistanceMeters>NAN</DistanceMeters>
          </Trackpoint>
          <Trackpoint>
            <Time>2021-08-12T08:50:23.000Z</Time>
            <Position>
              <LatitudeDegrees>43.31105816178023815155029296875</LatitudeDegrees>
              <LongitudeDegrees>-1.9671064428985118865966796875</LongitudeDegrees>
            </Position>
            <AltitudeMeters>3.2000000476837158203125</AltitudeMeters>
            <DistanceMeters>NAN</DistanceMeters>
          </Trackpoint>
          <Trackpoint>
            <Time>2021-08-12T08:50:24.000Z</Time>
            <Position>
              <LatitudeDegrees>43.311042487621307373046875</LatitudeDegrees>
              <LongitudeDegrees>-1.9671387970447540283203125</LongitudeDegrees>
            </Position>
            <AltitudeMeters>3.2000000476837158203125</AltitudeMeters>
            <DistanceMeters>NAN</DistanceMeters>
          </Trackpoint>
          <Trackpoint>
            <Time>2021-08-12T08:50:25.000Z</Time>
            <Position>
              <LatitudeDegrees>43.311023712158203125</LatitudeDegrees>
              <LongitudeDegrees>-1.9671788625419139862060546875</LongitudeDegrees>
            </Position>
            <AltitudeMeters>3.2000000476837158203125</AltitudeMeters>
            <DistanceMeters>NAN</DistanceMeters>
          </Trackpoint>
          <Trackpoint>
            <Time>2021-08-12T08:50:26.000Z</Time>
            <Position>
              <LatitudeDegrees>43.311004601418972015380859375</LatitudeDegrees>
              <LongitudeDegrees>-1.967222951352596282958984375</LongitudeDegrees>
            </Position>
            <AltitudeMeters>3.2000000476837158203125</AltitudeMeters>
            <DistanceMeters>NAN</DistanceMeters>
          </Trackpoint>
          <Trackpoint>
            <Time>2021-08-12T08:50:27.000Z</Time>
            <Position>
              <LatitudeDegrees>43.31098289228975772857666015625</LatitudeDegrees>
              <LongitudeDegrees>-1.96726259775459766387939453125</LongitudeDegrees>
            </Position>
            <AltitudeMeters>3.2000000476837158203125</AltitudeMeters>
            <DistanceMeters>NAN</DistanceMeters>
          </Trackpoint>
          <Trackpoint>
            <Time>2021-08-12T08:50:28.000Z</Time>
            <Position>
              <LatitudeDegrees>43.31095732748508453369140625</LatitudeDegrees>
              <LongitudeDegrees>-1.9673119671642780303955078125</LongitudeDegrees>
            </Position>
            <AltitudeMeters>3.2000000476837158203125</AltitudeMeters>
            <DistanceMeters>NAN</DistanceMeters>
          </Trackpoint>
          <Trackpoint>
            <Time>2021-08-12T08:50:29.000Z</Time>
            <Position>
              <LatitudeDegrees>43.3109353668987751007080078125</LatitudeDegrees>
              <LongitudeDegrees>-1.9673545472323894500732421875</LongitudeDegrees>
            </Position>
            <AltitudeMeters>3.2000000476837158203125</AltitudeMeters>
            <DistanceMeters>NAN</DistanceMeters>
          </Trackpoint>
          <Trackpoint>
            <Time>2021-08-12T08:50:36.000Z</Time>
            <Position>
              <LatitudeDegrees>43.3108015917241573333740234375</LatitudeDegrees>
              <LongitudeDegrees>-1.96765570901334285736083984375</LongitudeDegrees>
            </Position>
            <AltitudeMeters>3</AltitudeMeters>
            <DistanceMeters>NAN</DistanceMeters>
          </Trackpoint>
          <Trackpoint>
            <Time>2021-08-12T08:50:38.000Z</Time>
            <Position>
              <LatitudeDegrees>43.3107811398804187774658203125</LatitudeDegrees>
              <LongitudeDegrees>-1.967725194990634918212890625</LongitudeDegrees>
            </Position>
            <AltitudeMeters>3</AltitudeMeters>
            <DistanceMeters>NAN</DistanceMeters>
          </Trackpoint>
          <Trackpoint>
            <Time>2021-08-12T08:50:39.000Z</Time>
            <Position>
              <LatitudeDegrees>43.3107657171785831451416015625</LatitudeDegrees>
              <LongitudeDegrees>-1.96777137927711009979248046875</LongitudeDegrees>
            </Position>
            <AltitudeMeters>3</AltitudeMeters>
            <DistanceMeters>NAN</DistanceMeters>
          </Trackpoint>
          <Trackpoint>
            <Time>2021-08-12T08:50:40.000Z</Time>
            <Position>
              <LatitudeDegrees>43.31075456924736499786376953125</LatitudeDegrees>
              <LongitudeDegrees>-1.96780264377593994140625</LongitudeDegrees>
            </Position>
            <AltitudeMeters>3</AltitudeMeters>
            <DistanceMeters>NAN</DistanceMeters>
          </Trackpoint>
          <Trackpoint>
            <Time>2021-08-12T08:50:41.000Z</Time>
            <Position>
              <LatitudeDegrees>43.31074275076389312744140625</LatitudeDegrees>
              <LongitudeDegrees>-1.96783072315156459808349609375</LongitudeDegrees>
            </Position>
            <AltitudeMeters>3</AltitudeMeters>
            <DistanceMeters>NAN</DistanceMeters>
          </Trackpoint>
          <Trackpoint>
            <Time>2021-08-12T08:50:42.000Z</Time>
            <Position>
              <LatitudeDegrees>43.31073277629911899566650390625</LatitudeDegrees>
              <LongitudeDegrees>-1.96785251609981060028076171875</LongitudeDegrees>
            </Position>
            <AltitudeMeters>3</AltitudeMeters>
            <DistanceMeters>NAN</DistanceMeters>
          </Trackpoint>
          <Trackpoint>
            <Time>2021-08-12T08:50:43.000Z</Time>
            <Position>
              <LatitudeDegrees>43.310720622539520263671875</LatitudeDegrees>
              <LongitudeDegrees>-1.9678792543709278106689453125</LongitudeDegrees>
            </Position>
            <AltitudeMeters>3</AltitudeMeters>
            <DistanceMeters>NAN</DistanceMeters>
          </Trackpoint>
          <Trackpoint>
            <Time>2021-08-12T08:50:44.000Z</Time>
            <Position>
              <LatitudeDegrees>43.31070545129477977752685546875</LatitudeDegrees>
              <LongitudeDegrees>-1.96791236288845539093017578125</LongitudeDegrees>
            </Position>
            <AltitudeMeters>3</AltitudeMeters>
            <DistanceMeters>NAN</DistanceMeters>
          </Trackpoint>
          <Trackpoint>
            <Time>2021-08-12T08:50:47.000Z</Time>
            <Position>
              <LatitudeDegrees>43.3106755279004573822021484375</LatitudeDegrees>
              <LongitudeDegrees>-1.96798478253185749053955078125</LongitudeDegrees>
            </Position>
            <AltitudeMeters>3</AltitudeMeters>
            <DistanceMeters>NAN</DistanceMeters>
          </Trackpoint>
          <Trackpoint>
            <Time>2021-08-12T08:50:48.000Z</Time>
            <Position>
              <LatitudeDegrees>43.3106678165495395660400390625</LatitudeDegrees>
              <LongitudeDegrees>-1.9679999537765979766845703125</LongitudeDegrees>
            </Position>
            <AltitudeMeters>3</AltitudeMeters>
            <DistanceMeters>NAN</DistanceMeters>
          </Trackpoint>
          <Trackpoint>
            <Time>2021-08-12T08:50:49.000Z</Time>
            <Position>
              <LatitudeDegrees>43.31066035665571689605712890625</LatitudeDegrees>
              <LongitudeDegrees>-1.96801562793552875518798828125</LongitudeDegrees>
            </Position>
            <AltitudeMeters>3</AltitudeMeters>
            <DistanceMeters>NAN</DistanceMeters>
          </Trackpoint>
          <Trackpoint>
            <Time>2021-08-12T08:50:50.000Z</Time>
            <Position>
              <LatitudeDegrees>43.31065465696156024932861328125</LatitudeDegrees>
              <LongitudeDegrees>-1.9680328108370304107666015625</LongitudeDegrees>
            </Position>
            <AltitudeMeters>3</AltitudeMeters>
            <DistanceMeters>NAN</DistanceMeters>
          </Trackpoint>
          <Trackpoint>
            <Time>2021-08-12T08:50:51.000Z</Time>
            <Position>
              <LatitudeDegrees>43.31064887344837188720703125</LatitudeDegrees>
              <LongitudeDegrees>-1.968049071729183197021484375</LongitudeDegrees>
            </Position>
            <AltitudeMeters>3</AltitudeMeters>
            <DistanceMeters>NAN</DistanceMeters>
          </Trackpoint>
          <Trackpoint>
            <Time>2021-08-12T08:50:52.000Z</Time>
            <Position>
              <LatitudeDegrees>43.31064644269645214080810546875</LatitudeDegrees>
              <LongitudeDegrees>-1.96806374005973339080810546875</LongitudeDegrees>
            </Position>
            <AltitudeMeters>3</AltitudeMeters>
            <DistanceMeters>NAN</DistanceMeters>
          </Trackpoint>
          <Trackpoint>
            <Time>2021-08-12T08:50:53.000Z</Time>
            <Position>
              <LatitudeDegrees>43.3106490410864353179931640625</LatitudeDegrees>
              <LongitudeDegrees>-1.96808360517024993896484375</LongitudeDegrees>
            </Position>
            <AltitudeMeters>2.7999999523162841796875</AltitudeMeters>
            <DistanceMeters>NAN</DistanceMeters>
          </Trackpoint>
          <Trackpoint>
            <Time>2021-08-12T08:50:54.000Z</Time>
            <Position>
              <LatitudeDegrees>43.3106549084186553955078125</LatitudeDegrees>
              <LongitudeDegrees>-1.968110091984272003173828125</LongitudeDegrees>
            </Position>
            <AltitudeMeters>2.7999999523162841796875</AltitudeMeters>
            <DistanceMeters>NAN</DistanceMeters>
          </Trackpoint>
          <Trackpoint>
            <Time>2021-08-12T08:50:55.000Z</Time>
            <Position>
              <LatitudeDegrees>43.3106694929301738739013671875</LatitudeDegrees>
              <LongitudeDegrees>-1.9681397639214992523193359375</LongitudeDegrees>
            </Position>
            <AltitudeMeters>2.7999999523162841796875</AltitudeMeters>
            <DistanceMeters>NAN</DistanceMeters>
          </Trackpoint>
          <Trackpoint>
            <Time>2021-08-12T08:50:57.000Z</Time>
            <Position>
              <LatitudeDegrees>43.310718275606632232666015625</LatitudeDegrees>
              <LongitudeDegrees>-1.96819701232016086578369140625</LongitudeDegrees>
            </Position>
            <AltitudeMeters>2.7999999523162841796875</AltitudeMeters>
            <DistanceMeters>NAN</DistanceMeters>
          </Trackpoint>
          <Trackpoint>
            <Time>2021-08-12T08:50:58.000Z</Time>
            <Position>
              <LatitudeDegrees>43.3107489533722400665283203125</LatitudeDegrees>
              <LongitudeDegrees>-1.96822710335254669189453125</LongitudeDegrees>
            </Position>
            <AltitudeMeters>2.7999999523162841796875</AltitudeMeters>
            <DistanceMeters>NAN</DistanceMeters>
          </Trackpoint>
          <Trackpoint>
            <Time>2021-08-12T08:50:59.000Z</Time>
            <Position>
              <LatitudeDegrees>43.31077787093818187713623046875</LatitudeDegrees>
              <LongitudeDegrees>-1.9682571105659008026123046875</LongitudeDegrees>
            </Position>
            <AltitudeMeters>2.7999999523162841796875</AltitudeMeters>
            <DistanceMeters>NAN</DistanceMeters>
          </Trackpoint>
          <Trackpoint>
            <Time>2021-08-12T08:51:01.000Z</Time>
            <Position>
              <LatitudeDegrees>43.31083419732749462127685546875</LatitudeDegrees>
              <LongitudeDegrees>-1.96831561625003814697265625</LongitudeDegrees>
            </Position>
            <AltitudeMeters>2.7999999523162841796875</AltitudeMeters>
            <DistanceMeters>NAN</DistanceMeters>
          </Trackpoint>
          <Trackpoint>
            <Time>2021-08-12T08:51:09.000Z</Time>
            <Position>
              <LatitudeDegrees>43.31106436438858509063720703125</LatitudeDegrees>
              <LongitudeDegrees>-1.96860755793750286102294921875</LongitudeDegrees>
            </Position>
            <AltitudeMeters>3</AltitudeMeters>
            <DistanceMeters>NAN</DistanceMeters>
          </Trackpoint>
          <Trackpoint>
            <Time>2021-08-12T08:51:17.000Z</Time>
            <Position>
              <LatitudeDegrees>43.31129050813615322113037109375</LatitudeDegrees>
              <LongitudeDegrees>-1.968960352241992950439453125</LongitudeDegrees>
            </Position>
            <AltitudeMeters>3.2000000476837158203125</AltitudeMeters>
            <DistanceMeters>NAN</DistanceMeters>
          </Trackpoint>
          <Trackpoint>
            <Time>2021-08-12T08:51:20.000Z</Time>
            <Position>
              <LatitudeDegrees>43.31135697662830352783203125</LatitudeDegrees>
              <LongitudeDegrees>-1.96907979436218738555908203125</LongitudeDegrees>
            </Position>
            <AltitudeMeters>3.2000000476837158203125</AltitudeMeters>
            <DistanceMeters>NAN</DistanceMeters>
          </Trackpoint>
          <Trackpoint>
            <Time>2021-08-12T08:51:21.000Z</Time>
            <Position>
              <LatitudeDegrees>43.31137332133948802947998046875</LatitudeDegrees>
              <LongitudeDegrees>-1.969107873737812042236328125</LongitudeDegrees>
            </Position>
            <AltitudeMeters>3.2000000476837158203125</AltitudeMeters>
            <DistanceMeters>NAN</DistanceMeters>
          </Trackpoint>
          <Trackpoint>
            <Time>2021-08-12T08:51:22.000Z</Time>
            <Position>
              <LatitudeDegrees>43.311388827860355377197265625</LatitudeDegrees>
              <LongitudeDegrees>-1.96914332918822765350341796875</LongitudeDegrees>
            </Position>
            <AltitudeMeters>3.2000000476837158203125</AltitudeMeters>
            <DistanceMeters>NAN</DistanceMeters>
          </Trackpoint>
          <Trackpoint>
            <Time>2021-08-12T08:51:23.000Z</Time>
            <Position>
              <LatitudeDegrees>43.31140391528606414794921875</LatitudeDegrees>
              <LongitudeDegrees>-1.9691754318773746490478515625</LongitudeDegrees>
            </Position>
            <AltitudeMeters>3.2000000476837158203125</AltitudeMeters>
            <DistanceMeters>NAN</DistanceMeters>
          </Trackpoint>
          <Trackpoint>
            <Time>2021-08-12T08:51:24.000Z</Time>
            <Position>
              <LatitudeDegrees>43.311412297189235687255859375</LatitudeDegrees>
              <LongitudeDegrees>-1.969195045530796051025390625</LongitudeDegrees>
            </Position>
            <AltitudeMeters>3.2000000476837158203125</AltitudeMeters>
            <DistanceMeters>NAN</DistanceMeters>
          </Trackpoint>
          <Trackpoint>
            <Time>2021-08-12T08:51:25.000Z</Time>
            <Position>
              <LatitudeDegrees>43.3114211820065975189208984375</LatitudeDegrees>
              <LongitudeDegrees>-1.96922195143997669219970703125</LongitudeDegrees>
            </Position>
            <AltitudeMeters>3.2000000476837158203125</AltitudeMeters>
            <DistanceMeters>NAN</DistanceMeters>
          </Trackpoint>
          <Trackpoint>
            <Time>2021-08-12T08:51:29.000Z</Time>
            <Position>
              <LatitudeDegrees>43.3114563859999179840087890625</LatitudeDegrees>
              <LongitudeDegrees>-1.9693373702466487884521484375</LongitudeDegrees>
            </Position>
            <AltitudeMeters>3.400000095367431640625</AltitudeMeters>
            <DistanceMeters>NAN</DistanceMeters>
          </Trackpoint>
          <Trackpoint>
            <Time>2021-08-12T08:51:30.000Z</Time>
            <Position>
              <LatitudeDegrees>43.31146418116986751556396484375</LatitudeDegrees>
              <LongitudeDegrees>-1.96936226449906826019287109375</LongitudeDegrees>
            </Position>
            <AltitudeMeters>3.400000095367431640625</AltitudeMeters>
            <DistanceMeters>NAN</DistanceMeters>
          </Trackpoint>
          <Trackpoint>
            <Time>2021-08-12T08:51:31.000Z</Time>
            <Position>
              <LatitudeDegrees>43.3114741556346416473388671875</LatitudeDegrees>
              <LongitudeDegrees>-1.9693816266953945159912109375</LongitudeDegrees>
            </Position>
            <AltitudeMeters>3.400000095367431640625</AltitudeMeters>
            <DistanceMeters>NAN</DistanceMeters>
          </Trackpoint>
          <Trackpoint>
            <Time>2021-08-12T08:51:32.000Z</Time>
            <Position>
              <LatitudeDegrees>43.311492763459682464599609375</LatitudeDegrees>
              <LongitudeDegrees>-1.96939042769372463226318359375</LongitudeDegrees>
            </Position>
            <AltitudeMeters>3.400000095367431640625</AltitudeMeters>
            <DistanceMeters>NAN</DistanceMeters>
          </Trackpoint>
          <Trackpoint>
            <Time>2021-08-12T08:51:33.000Z</Time>
            <Position>
              <LatitudeDegrees>43.31150474958121776580810546875</LatitudeDegrees>
              <LongitudeDegrees>-1.969381459057331085205078125</LongitudeDegrees>
            </Position>
            <AltitudeMeters>3.400000095367431640625</AltitudeMeters>
            <DistanceMeters>NAN</DistanceMeters>
          </Trackpoint>
          <Trackpoint>
            <Time>2021-08-12T08:51:34.000Z</Time>
            <Position>
              <LatitudeDegrees>43.31152318976819515228271484375</LatitudeDegrees>
              <LongitudeDegrees>-1.96936561726033687591552734375</LongitudeDegrees>
            </Position>
            <AltitudeMeters>3.599999904632568359375</AltitudeMeters>
            <DistanceMeters>NAN</DistanceMeters>
          </Trackpoint>
          <Trackpoint>
            <Time>2021-08-12T08:51:35.000Z</Time>
            <Position>
              <LatitudeDegrees>43.31153525970876216888427734375</LatitudeDegrees>
              <LongitudeDegrees>-1.9693534635007381439208984375</LongitudeDegrees>
            </Position>
            <AltitudeMeters>3.599999904632568359375</AltitudeMeters>
            <DistanceMeters>NAN</DistanceMeters>
          </Trackpoint>
          <Trackpoint>
            <Time>2021-08-12T08:51:36.000Z</Time>
            <Position>
              <LatitudeDegrees>43.31155319698154926300048828125</LatitudeDegrees>
              <LongitudeDegrees>-1.96933829225599765777587890625</LongitudeDegrees>
            </Position>
            <AltitudeMeters>3.599999904632568359375</AltitudeMeters>
            <DistanceMeters>NAN</DistanceMeters>
          </Trackpoint>
          <Trackpoint>
            <Time>2021-08-12T08:51:37.000Z</Time>
            <Position>
              <LatitudeDegrees>43.31157624721527099609375</LatitudeDegrees>
              <LongitudeDegrees>-1.9693313352763652801513671875</LongitudeDegrees>
            </Position>
            <AltitudeMeters>3.599999904632568359375</AltitudeMeters>
            <DistanceMeters>NAN</DistanceMeters>
          </Trackpoint>
          <Trackpoint>
            <Time>2021-08-12T08:51:38.000Z</Time>
            <Position>
              <LatitudeDegrees>43.31159569323062896728515625</LatitudeDegrees>
              <LongitudeDegrees>-1.96933485567569732666015625</LongitudeDegrees>
            </Position>
            <AltitudeMeters>3.7999999523162841796875</AltitudeMeters>
            <DistanceMeters>NAN</DistanceMeters>
          </Trackpoint>
          <Trackpoint>
            <Time>2021-08-12T08:51:39.000Z</Time>
            <Position>
              <LatitudeDegrees>43.3116186596453189849853515625</LatitudeDegrees>
              <LongitudeDegrees>-1.969363689422607421875</LongitudeDegrees>
            </Position>
            <AltitudeMeters>3.7999999523162841796875</AltitudeMeters>
            <DistanceMeters>NAN</DistanceMeters>
          </Trackpoint>
          <Trackpoint>
            <Time>2021-08-12T08:51:41.000Z</Time>
            <Position>
              <LatitudeDegrees>43.31165604293346405029296875</LatitudeDegrees>
              <LongitudeDegrees>-1.96942982263863086700439453125</LongitudeDegrees>
            </Position>
            <AltitudeMeters>3.7999999523162841796875</AltitudeMeters>
            <DistanceMeters>NAN</DistanceMeters>
          </Trackpoint>
          <Trackpoint>
            <Time>2021-08-12T08:51:42.000Z</Time>
            <Position>
              <LatitudeDegrees>43.31167280673980712890625</LatitudeDegrees>
              <LongitudeDegrees>-1.96946335025131702423095703125</LongitudeDegrees>
            </Position>
            <AltitudeMeters>4</AltitudeMeters>
            <DistanceMeters>NAN</DistanceMeters>
          </Trackpoint>
          <Trackpoint>
            <Time>2021-08-12T08:51:43.000Z</Time>
            <Position>
              <LatitudeDegrees>43.3116902410984039306640625</LatitudeDegrees>
              <LongitudeDegrees>-1.96949553675949573516845703125</LongitudeDegrees>
            </Position>
            <AltitudeMeters>4</AltitudeMeters>
            <DistanceMeters>NAN</DistanceMeters>
          </Trackpoint>
          <Trackpoint>
            <Time>2021-08-12T08:51:48.000Z</Time>
            <Position>
              <LatitudeDegrees>43.3117725513875484466552734375</LatitudeDegrees>
              <LongitudeDegrees>-1.9696438126266002655029296875</LongitudeDegrees>
            </Position>
            <AltitudeMeters>4</AltitudeMeters>
            <DistanceMeters>NAN</DistanceMeters>
          </Trackpoint>
          <Trackpoint>
            <Time>2021-08-12T08:51:49.000Z</Time>
            <Position>
              <LatitudeDegrees>43.3117919974029064178466796875</LatitudeDegrees>
              <LongitudeDegrees>-1.9696761667728424072265625</LongitudeDegrees>
            </Position>
            <AltitudeMeters>4</AltitudeMeters>
            <DistanceMeters>NAN</DistanceMeters>
          </Trackpoint>
          <Trackpoint>
            <Time>2021-08-12T08:51:50.000Z</Time>
            <Position>
              <LatitudeDegrees>43.3118141256272792816162109375</LatitudeDegrees>
              <LongitudeDegrees>-1.96971732191741466522216796875</LongitudeDegrees>
            </Position>
            <AltitudeMeters>4</AltitudeMeters>
            <DistanceMeters>NAN</DistanceMeters>
          </Trackpoint>
          <Trackpoint>
            <Time>2021-08-12T08:51:53.000Z</Time>
            <Position>
              <LatitudeDegrees>43.31187824718654155731201171875</LatitudeDegrees>
              <LongitudeDegrees>-1.96980021893978118896484375</LongitudeDegrees>
            </Position>
            <AltitudeMeters>4</AltitudeMeters>
            <DistanceMeters>NAN</DistanceMeters>
          </Trackpoint>
          <Trackpoint>
            <Time>2021-08-12T08:51:54.000Z</Time>
            <Position>
              <LatitudeDegrees>43.3119026385247707366943359375</LatitudeDegrees>
              <LongitudeDegrees>-1.969809271395206451416015625</LongitudeDegrees>
            </Position>
            <AltitudeMeters>4</AltitudeMeters>
            <DistanceMeters>NAN</DistanceMeters>
          </Trackpoint>
          <Trackpoint>
            <Time>2021-08-12T08:51:55.000Z</Time>
            <Position>
              <LatitudeDegrees>43.31192635931074619293212890625</LatitudeDegrees>
              <LongitudeDegrees>-1.96980558335781097412109375</LongitudeDegrees>
            </Position>
            <AltitudeMeters>4</AltitudeMeters>
            <DistanceMeters>NAN</DistanceMeters>
          </Trackpoint>
          <Trackpoint>
            <Time>2021-08-12T08:51:56.000Z</Time>
            <Position>
              <LatitudeDegrees>43.31194597296416759490966796875</LatitudeDegrees>
              <LongitudeDegrees>-1.969794519245624542236328125</LongitudeDegrees>
            </Position>
            <AltitudeMeters>4.19999980926513671875</AltitudeMeters>
            <DistanceMeters>NAN</DistanceMeters>
          </Trackpoint>
          <Trackpoint>
            <Time>2021-08-12T08:51:57.000Z</Time>
            <Position>
              <LatitudeDegrees>43.3119653351604938507080078125</LatitudeDegrees>
              <LongitudeDegrees>-1.96979208849370479583740234375</LongitudeDegrees>
            </Position>
            <AltitudeMeters>4.19999980926513671875</AltitudeMeters>
            <DistanceMeters>NAN</DistanceMeters>
          </Trackpoint>
          <Trackpoint>
            <Time>2021-08-12T08:51:58.000Z</Time>
            <Position>
              <LatitudeDegrees>43.31198469735682010650634765625</LatitudeDegrees>
              <LongitudeDegrees>-1.96980063803493976593017578125</LongitudeDegrees>
            </Position>
            <AltitudeMeters>4.19999980926513671875</AltitudeMeters>
            <DistanceMeters>NAN</DistanceMeters>
          </Trackpoint>
          <Trackpoint>
            <Time>2021-08-12T08:51:59.000Z</Time>
            <Position>
              <LatitudeDegrees>43.31199928186833858489990234375</LatitudeDegrees>
              <LongitudeDegrees>-1.96982301771640777587890625</LongitudeDegrees>
            </Position>
            <AltitudeMeters>4.19999980926513671875</AltitudeMeters>
            <DistanceMeters>NAN</DistanceMeters>
          </Trackpoint>
          <Trackpoint>
            <Time>2021-08-12T08:52:01.000Z</Time>
            <Position>
              <LatitudeDegrees>43.31201721914112567901611328125</LatitudeDegrees>
              <LongitudeDegrees>-1.969887055456638336181640625</LongitudeDegrees>
            </Position>
            <AltitudeMeters>4.19999980926513671875</AltitudeMeters>
            <DistanceMeters>NAN</DistanceMeters>
          </Trackpoint>
          <Trackpoint>
            <Time>2021-08-12T08:52:02.000Z</Time>
            <Position>
              <LatitudeDegrees>43.31202593632042407989501953125</LatitudeDegrees>
              <LongitudeDegrees>-1.9699187390506267547607421875</LongitudeDegrees>
            </Position>
            <AltitudeMeters>4.19999980926513671875</AltitudeMeters>
            <DistanceMeters>NAN</DistanceMeters>
          </Trackpoint>
          <Trackpoint>
            <Time>2021-08-12T08:52:03.000Z</Time>
            <Position>
              <LatitudeDegrees>43.31203381530940532684326171875</LatitudeDegrees>
              <LongitudeDegrees>-1.969950087368488311767578125</LongitudeDegrees>
            </Position>
            <AltitudeMeters>4.19999980926513671875</AltitudeMeters>
            <DistanceMeters>NAN</DistanceMeters>
          </Trackpoint>
          <Trackpoint>
            <Time>2021-08-12T08:52:07.000Z</Time>
            <Position>
              <LatitudeDegrees>43.31204270012676715850830078125</LatitudeDegrees>
              <LongitudeDegrees>-1.9701011292636394500732421875</LongitudeDegrees>
            </Position>
            <AltitudeMeters>4.400000095367431640625</AltitudeMeters>
            <DistanceMeters>NAN</DistanceMeters>
          </Trackpoint>
          <Trackpoint>
            <Time>2021-08-12T08:52:10.000Z</Time>
            <Position>
              <LatitudeDegrees>43.3120407722890377044677734375</LatitudeDegrees>
              <LongitudeDegrees>-1.97021059691905975341796875</LongitudeDegrees>
            </Position>
            <AltitudeMeters>4.599999904632568359375</AltitudeMeters>
            <DistanceMeters>NAN</DistanceMeters>
          </Trackpoint>
          <Trackpoint>
            <Time>2021-08-12T08:52:12.000Z</Time>
            <Position>
              <LatitudeDegrees>43.3120236732065677642822265625</LatitudeDegrees>
              <LongitudeDegrees>-1.9702727906405925750732421875</LongitudeDegrees>
            </Position>
            <AltitudeMeters>4.599999904632568359375</AltitudeMeters>
            <DistanceMeters>NAN</DistanceMeters>
          </Trackpoint>
          <Trackpoint>
            <Time>2021-08-12T08:52:13.000Z</Time>
            <Position>
              <LatitudeDegrees>43.31201076507568359375</LatitudeDegrees>
              <LongitudeDegrees>-1.97030405513942241668701171875</LongitudeDegrees>
            </Position>
            <AltitudeMeters>4.80000019073486328125</AltitudeMeters>
            <DistanceMeters>NAN</DistanceMeters>
          </Trackpoint>
          <Trackpoint>
            <Time>2021-08-12T08:52:14.000Z</Time>
            <Position>
              <LatitudeDegrees>43.31199827603995800018310546875</LatitudeDegrees>
              <LongitudeDegrees>-1.97033422999083995819091796875</LongitudeDegrees>
            </Position>
            <AltitudeMeters>4.80000019073486328125</AltitudeMeters>
            <DistanceMeters>NAN</DistanceMeters>
          </Trackpoint>
          <Trackpoint>
            <Time>2021-08-12T08:52:20.000Z</Time>
            <Position>
              <LatitudeDegrees>43.31193507649004459381103515625</LatitudeDegrees>
              <LongitudeDegrees>-1.9705425202846527099609375</LongitudeDegrees>
            </Position>
            <AltitudeMeters>5.19999980926513671875</AltitudeMeters>
            <DistanceMeters>NAN</DistanceMeters>
          </Trackpoint>
          <Trackpoint>
            <Time>2021-08-12T08:52:22.000Z</Time>
            <Position>
              <LatitudeDegrees>43.31192770041525363922119140625</LatitudeDegrees>
              <LongitudeDegrees>-1.9706283509731292724609375</LongitudeDegrees>
            </Position>
            <AltitudeMeters>5.19999980926513671875</AltitudeMeters>
            <DistanceMeters>NAN</DistanceMeters>
          </Trackpoint>
          <Trackpoint>
            <Time>2021-08-12T08:52:26.000Z</Time>
            <Position>
              <LatitudeDegrees>43.3119096793234348297119140625</LatitudeDegrees>
              <LongitudeDegrees>-1.970750726759433746337890625</LongitudeDegrees>
            </Position>
            <AltitudeMeters>5.599999904632568359375</AltitudeMeters>
            <DistanceMeters>NAN</DistanceMeters>
          </Trackpoint>
          <Trackpoint>
            <Time>2021-08-12T08:52:28.000Z</Time>
            <Position>
              <LatitudeDegrees>43.31190456636250019073486328125</LatitudeDegrees>
              <LongitudeDegrees>-1.9708026945590972900390625</LongitudeDegrees>
            </Position>
            <AltitudeMeters>5.599999904632568359375</AltitudeMeters>
            <DistanceMeters>NAN</DistanceMeters>
          </Trackpoint>
          <Trackpoint>
            <Time>2021-08-12T08:52:29.000Z</Time>
            <Position>
              <LatitudeDegrees>43.3119009621441364288330078125</LatitudeDegrees>
              <LongitudeDegrees>-1.97082817554473876953125</LongitudeDegrees>
            </Position>
            <AltitudeMeters>5.80000019073486328125</AltitudeMeters>
            <DistanceMeters>NAN</DistanceMeters>
          </Trackpoint>
          <Trackpoint>
            <Time>2021-08-12T08:52:30.000Z</Time>
            <Position>
              <LatitudeDegrees>43.3118996210396289825439453125</LatitudeDegrees>
              <LongitudeDegrees>-1.97086648084223270416259765625</LongitudeDegrees>
            </Position>
            <AltitudeMeters>5.80000019073486328125</AltitudeMeters>
            <DistanceMeters>NAN</DistanceMeters>
          </Trackpoint>
          <Trackpoint>
            <Time>2021-08-12T08:52:33.000Z</Time>
            <Position>
              <LatitudeDegrees>43.31189853139221668243408203125</LatitudeDegrees>
              <LongitudeDegrees>-1.97100075893104076385498046875</LongitudeDegrees>
            </Position>
            <AltitudeMeters>6</AltitudeMeters>
            <DistanceMeters>NAN</DistanceMeters>
          </Trackpoint>
          <Trackpoint>
            <Time>2021-08-12T08:52:35.000Z</Time>
            <Position>
              <LatitudeDegrees>43.31189752556383609771728515625</LatitudeDegrees>
              <LongitudeDegrees>-1.9710958935320377349853515625</LongitudeDegrees>
            </Position>
            <AltitudeMeters>6.19999980926513671875</AltitudeMeters>
            <DistanceMeters>NAN</DistanceMeters>
          </Trackpoint>
          <Trackpoint>
            <Time>2021-08-12T08:52:36.000Z</Time>
            <Position>
              <LatitudeDegrees>43.31189350225031375885009765625</LatitudeDegrees>
              <LongitudeDegrees>-1.97113486938178539276123046875</LongitudeDegrees>
            </Position>
            <AltitudeMeters>6.19999980926513671875</AltitudeMeters>
            <DistanceMeters>NAN</DistanceMeters>
          </Trackpoint>
          <Trackpoint>
            <Time>2021-08-12T08:52:37.000Z</Time>
            <Position>
              <LatitudeDegrees>43.31188847310841083526611328125</LatitudeDegrees>
              <LongitudeDegrees>-1.97116755880415439605712890625</LongitudeDegrees>
            </Position>
            <AltitudeMeters>6.400000095367431640625</AltitudeMeters>
            <DistanceMeters>NAN</DistanceMeters>
          </Trackpoint>
          <Trackpoint>
            <Time>2021-08-12T08:52:38.000Z</Time>
            <Position>
              <LatitudeDegrees>43.31188545562326908111572265625</LatitudeDegrees>
              <LongitudeDegrees>-1.97119471617043018341064453125</LongitudeDegrees>
            </Position>
            <AltitudeMeters>6.400000095367431640625</AltitudeMeters>
            <DistanceMeters>NAN</DistanceMeters>
          </Trackpoint>
          <Trackpoint>
            <Time>2021-08-12T08:52:39.000Z</Time>
            <Position>
              <LatitudeDegrees>43.31188092939555644989013671875</LatitudeDegrees>
              <LongitudeDegrees>-1.9712179340422153472900390625</LongitudeDegrees>
            </Position>
            <AltitudeMeters>6.400000095367431640625</AltitudeMeters>
            <DistanceMeters>NAN</DistanceMeters>
          </Trackpoint>
          <Trackpoint>
            <Time>2021-08-12T08:52:40.000Z</Time>
            <Position>
              <LatitudeDegrees>43.31187891773879528045654296875</LatitudeDegrees>
              <LongitudeDegrees>-1.97123914025723934173583984375</LongitudeDegrees>
            </Position>
            <AltitudeMeters>6.599999904632568359375</AltitudeMeters>
            <DistanceMeters>NAN</DistanceMeters>
          </Trackpoint>
          <Trackpoint>
            <Time>2021-08-12T08:52:41.000Z</Time>
            <Position>
              <LatitudeDegrees>43.31187774427235126495361328125</LatitudeDegrees>
              <LongitudeDegrees>-1.97127132676541805267333984375</LongitudeDegrees>
            </Position>
            <AltitudeMeters>6.80000019073486328125</AltitudeMeters>
            <DistanceMeters>NAN</DistanceMeters>
          </Trackpoint>
          <Trackpoint>
            <Time>2021-08-12T08:52:42.000Z</Time>
            <Position>
              <LatitudeDegrees>43.31187170930206775665283203125</LatitudeDegrees>
              <LongitudeDegrees>-1.97131105698645114898681640625</LongitudeDegrees>
            </Position>
            <AltitudeMeters>6.80000019073486328125</AltitudeMeters>
            <DistanceMeters>NAN</DistanceMeters>
          </Trackpoint>
          <Trackpoint>
            <Time>2021-08-12T08:52:43.000Z</Time>
            <Position>
              <LatitudeDegrees>43.31187196075916290283203125</LatitudeDegrees>
              <LongitudeDegrees>-1.97134894318878650665283203125</LongitudeDegrees>
            </Position>
            <AltitudeMeters>6.80000019073486328125</AltitudeMeters>
            <DistanceMeters>NAN</DistanceMeters>
          </Trackpoint>
          <Trackpoint>
            <Time>2021-08-12T08:52:44.000Z</Time>
            <Position>
              <LatitudeDegrees>43.31187355332076549530029296875</LatitudeDegrees>
              <LongitudeDegrees>-1.9713902659714221954345703125</LongitudeDegrees>
            </Position>
            <AltitudeMeters>7</AltitudeMeters>
            <DistanceMeters>NAN</DistanceMeters>
          </Trackpoint>
          <Trackpoint>
            <Time>2021-08-12T08:52:45.000Z</Time>
            <Position>
              <LatitudeDegrees>43.31187305040657520294189453125</LatitudeDegrees>
              <LongitudeDegrees>-1.97143142111599445343017578125</LongitudeDegrees>
            </Position>
            <AltitudeMeters>7.19999980926513671875</AltitudeMeters>
            <DistanceMeters>NAN</DistanceMeters>
          </Trackpoint>
          <Trackpoint>
            <Time>2021-08-12T08:52:46.000Z</Time>
            <Position>
              <LatitudeDegrees>43.31187707372009754180908203125</LatitudeDegrees>
              <LongitudeDegrees>-1.9714858196675777435302734375</LongitudeDegrees>
            </Position>
            <AltitudeMeters>7.400000095367431640625</AltitudeMeters>
            <DistanceMeters>NAN</DistanceMeters>
          </Trackpoint>
          <Trackpoint>
            <Time>2021-08-12T08:52:47.000Z</Time>
            <Position>
              <LatitudeDegrees>43.311876989901065826416015625</LatitudeDegrees>
              <LongitudeDegrees>-1.9715592451393604278564453125</LongitudeDegrees>
            </Position>
            <AltitudeMeters>7.400000095367431640625</AltitudeMeters>
            <DistanceMeters>NAN</DistanceMeters>
          </Trackpoint>
          <Trackpoint>
            <Time>2021-08-12T08:52:53.000Z</Time>
            <Position>
              <LatitudeDegrees>43.31189878284931182861328125</LatitudeDegrees>
              <LongitudeDegrees>-1.97187499143183231353759765625</LongitudeDegrees>
            </Position>
            <AltitudeMeters>7.80000019073486328125</AltitudeMeters>
            <DistanceMeters>NAN</DistanceMeters>
          </Trackpoint>
          <Trackpoint>
            <Time>2021-08-12T08:52:57.000Z</Time>
            <Position>
              <LatitudeDegrees>43.31189207732677459716796875</LatitudeDegrees>
              <LongitudeDegrees>-1.9720598123967647552490234375</LongitudeDegrees>
            </Position>
            <AltitudeMeters>8</AltitudeMeters>
            <DistanceMeters>NAN</DistanceMeters>
          </Trackpoint>
          <Trackpoint>
            <Time>2021-08-12T08:52:58.000Z</Time>
            <Position>
              <LatitudeDegrees>43.3118805103003978729248046875</LatitudeDegrees>
              <LongitudeDegrees>-1.97209778241813182830810546875</LongitudeDegrees>
            </Position>
            <AltitudeMeters>8</AltitudeMeters>
            <DistanceMeters>NAN</DistanceMeters>
          </Trackpoint>
          <Trackpoint>
            <Time>2021-08-12T08:52:59.000Z</Time>
            <Position>
              <LatitudeDegrees>43.31185854971408843994140625</LatitudeDegrees>
              <LongitudeDegrees>-1.972115300595760345458984375</LongitudeDegrees>
            </Position>
            <AltitudeMeters>8</AltitudeMeters>
            <DistanceMeters>NAN</DistanceMeters>
          </Trackpoint>
          <Trackpoint>
            <Time>2021-08-12T08:53:00.000Z</Time>
            <Position>
              <LatitudeDegrees>43.3118466474115848541259765625</LatitudeDegrees>
              <LongitudeDegrees>-1.9721379317343235015869140625</LongitudeDegrees>
            </Position>
            <AltitudeMeters>8</AltitudeMeters>
            <DistanceMeters>NAN</DistanceMeters>
          </Trackpoint>
          <Trackpoint>
            <Time>2021-08-12T08:53:01.000Z</Time>
            <Position>
              <LatitudeDegrees>43.31184254027903079986572265625</LatitudeDegrees>
              <LongitudeDegrees>-1.97216249071061611175537109375</LongitudeDegrees>
            </Position>
            <AltitudeMeters>8</AltitudeMeters>
            <DistanceMeters>NAN</DistanceMeters>
          </Trackpoint>
          <Trackpoint>
            <Time>2021-08-12T08:53:05.000Z</Time>
            <Position>
              <LatitudeDegrees>43.3118372596800327301025390625</LatitudeDegrees>
              <LongitudeDegrees>-1.97232208214700222015380859375</LongitudeDegrees>
            </Position>
            <AltitudeMeters>8</AltitudeMeters>
            <DistanceMeters>NAN</DistanceMeters>
          </Trackpoint>
          <Trackpoint>
            <Time>2021-08-12T08:53:08.000Z</Time>
            <Position>
              <LatitudeDegrees>43.3118329010903835296630859375</LatitudeDegrees>
              <LongitudeDegrees>-1.9724688492715358734130859375</LongitudeDegrees>
            </Position>
            <AltitudeMeters>8.19999980926513671875</AltitudeMeters>
            <DistanceMeters>NAN</DistanceMeters>
          </Trackpoint>
          <Trackpoint>
            <Time>2021-08-12T08:53:09.000Z</Time>
            <Position>
              <LatitudeDegrees>43.31183977425098419189453125</LatitudeDegrees>
              <LongitudeDegrees>-1.9725124351680278778076171875</LongitudeDegrees>
            </Position>
            <AltitudeMeters>8.19999980926513671875</AltitudeMeters>
            <DistanceMeters>NAN</DistanceMeters>
          </Trackpoint>
          <Trackpoint>
            <Time>2021-08-12T08:53:11.000Z</Time>
            <Position>
              <LatitudeDegrees>43.31183575093746185302734375</LatitudeDegrees>
              <LongitudeDegrees>-1.9725754670798778533935546875</LongitudeDegrees>
            </Position>
            <AltitudeMeters>8.19999980926513671875</AltitudeMeters>
            <DistanceMeters>NAN</DistanceMeters>
          </Trackpoint>
          <Trackpoint>
            <Time>2021-08-12T08:53:12.000Z</Time>
            <Position>
              <LatitudeDegrees>43.31182979978621006011962890625</LatitudeDegrees>
              <LongitudeDegrees>-1.9726123474538326263427734375</LongitudeDegrees>
            </Position>
            <AltitudeMeters>8.19999980926513671875</AltitudeMeters>
            <DistanceMeters>NAN</DistanceMeters>
          </Trackpoint>
          <Trackpoint>
            <Time>2021-08-12T08:53:13.000Z</Time>
            <Position>
              <LatitudeDegrees>43.3118295483291149139404296875</LatitudeDegrees>
              <LongitudeDegrees>-1.97265014983713626861572265625</LongitudeDegrees>
            </Position>
            <AltitudeMeters>8.3999996185302734375</AltitudeMeters>
            <DistanceMeters>NAN</DistanceMeters>
          </Trackpoint>
          <Trackpoint>
            <Time>2021-08-12T08:53:16.000Z</Time>
            <Position>
              <LatitudeDegrees>43.3118270337581634521484375</LatitudeDegrees>
              <LongitudeDegrees>-1.972753666341304779052734375</LongitudeDegrees>
            </Position>
            <AltitudeMeters>8.3999996185302734375</AltitudeMeters>
            <DistanceMeters>NAN</DistanceMeters>
          </Trackpoint>
          <Trackpoint>
            <Time>2021-08-12T08:53:17.000Z</Time>
            <Position>
              <LatitudeDegrees>43.31182728521525859832763671875</LatitudeDegrees>
              <LongitudeDegrees>-1.97278308682143688201904296875</LongitudeDegrees>
            </Position>
            <AltitudeMeters>8.3999996185302734375</AltitudeMeters>
            <DistanceMeters>NAN</DistanceMeters>
          </Trackpoint>
          <Trackpoint>
            <Time>2021-08-12T08:53:18.000Z</Time>
            <Position>
              <LatitudeDegrees>43.31182770431041717529296875</LatitudeDegrees>
              <LongitudeDegrees>-1.9728135131299495697021484375</LongitudeDegrees>
            </Position>
            <AltitudeMeters>8.3999996185302734375</AltitudeMeters>
            <DistanceMeters>NAN</DistanceMeters>
          </Trackpoint>
          <Trackpoint>
            <Time>2021-08-12T08:53:19.000Z</Time>
            <Position>
              <LatitudeDegrees>43.31182946451008319854736328125</LatitudeDegrees>
              <LongitudeDegrees>-1.97284528054296970367431640625</LongitudeDegrees>
            </Position>
            <AltitudeMeters>8.3999996185302734375</AltitudeMeters>
            <DistanceMeters>NAN</DistanceMeters>
          </Trackpoint>
          <Trackpoint>
            <Time>2021-08-12T08:53:20.000Z</Time>
            <Position>
              <LatitudeDegrees>43.311831057071685791015625</LatitudeDegrees>
              <LongitudeDegrees>-1.97287880815565586090087890625</LongitudeDegrees>
            </Position>
            <AltitudeMeters>8.6000003814697265625</AltitudeMeters>
            <DistanceMeters>NAN</DistanceMeters>
          </Trackpoint>
          <Trackpoint>
            <Time>2021-08-12T08:53:21.000Z</Time>
            <Position>
              <LatitudeDegrees>43.31183482892811298370361328125</LatitudeDegrees>
              <LongitudeDegrees>-1.9729189574718475341796875</LongitudeDegrees>
            </Position>
            <AltitudeMeters>8.6000003814697265625</AltitudeMeters>
            <DistanceMeters>NAN</DistanceMeters>
          </Trackpoint>
          <Trackpoint>
            <Time>2021-08-12T08:53:22.000Z</Time>
            <Position>
              <LatitudeDegrees>43.311840109527111053466796875</LatitudeDegrees>
              <LongitudeDegrees>-1.972952820360660552978515625</LongitudeDegrees>
            </Position>
            <AltitudeMeters>8.6000003814697265625</AltitudeMeters>
            <DistanceMeters>NAN</DistanceMeters>
          </Trackpoint>
          <Trackpoint>
            <Time>2021-08-12T08:53:23.000Z</Time>
            <Position>
              <LatitudeDegrees>43.311840109527111053466796875</LatitudeDegrees>
              <LongitudeDegrees>-1.972952820360660552978515625</LongitudeDegrees>
            </Position>
            <AltitudeMeters>8.6000003814697265625</AltitudeMeters>
            <DistanceMeters>NAN</DistanceMeters>
          </Trackpoint>
          <Trackpoint>
            <Time>2021-08-12T08:53:24.000Z</Time>
            <Position>
              <LatitudeDegrees>43.31184321083128452301025390625</LatitudeDegrees>
              <LongitudeDegrees>-1.97301895357668399810791015625</LongitudeDegrees>
            </Position>
            <AltitudeMeters>8.6000003814697265625</AltitudeMeters>
            <DistanceMeters>NAN</DistanceMeters>
          </Trackpoint>
          <Trackpoint>
            <Time>2021-08-12T08:53:25.000Z</Time>
            <Position>
              <LatitudeDegrees>43.311846815049648284912109375</LatitudeDegrees>
              <LongitudeDegrees>-1.973054409027099609375</LongitudeDegrees>
            </Position>
            <AltitudeMeters>8.6000003814697265625</AltitudeMeters>
            <DistanceMeters>NAN</DistanceMeters>
          </Trackpoint>
          <Trackpoint>
            <Time>2021-08-12T08:53:26.000Z</Time>
            <Position>
              <LatitudeDegrees>43.3118513412773609161376953125</LatitudeDegrees>
              <LongitudeDegrees>-1.97309506125748157501220703125</LongitudeDegrees>
            </Position>
            <AltitudeMeters>8.6000003814697265625</AltitudeMeters>
            <DistanceMeters>NAN</DistanceMeters>
          </Trackpoint>
          <Trackpoint>
            <Time>2021-08-12T08:53:27.000Z</Time>
            <Position>
              <LatitudeDegrees>43.311849497258663177490234375</LatitudeDegrees>
              <LongitudeDegrees>-1.9731410779058933258056640625</LongitudeDegrees>
            </Position>
            <AltitudeMeters>8.6000003814697265625</AltitudeMeters>
            <DistanceMeters>NAN</DistanceMeters>
          </Trackpoint>
          <Trackpoint>
            <Time>2021-08-12T08:53:29.000Z</Time>
            <Position>
              <LatitudeDegrees>43.3118483237922191619873046875</LatitudeDegrees>
              <LongitudeDegrees>-1.97323973290622234344482421875</LongitudeDegrees>
            </Position>
            <AltitudeMeters>8.6000003814697265625</AltitudeMeters>
            <DistanceMeters>NAN</DistanceMeters>
          </Trackpoint>
          <Trackpoint>
            <Time>2021-08-12T08:53:36.000Z</Time>
            <Position>
              <LatitudeDegrees>43.31182904541492462158203125</LatitudeDegrees>
              <LongitudeDegrees>-1.9735313393175601959228515625</LongitudeDegrees>
            </Position>
            <AltitudeMeters>8.3999996185302734375</AltitudeMeters>
            <DistanceMeters>NAN</DistanceMeters>
          </Trackpoint>
          <Trackpoint>
            <Time>2021-08-12T08:53:37.000Z</Time>
            <Position>
              <LatitudeDegrees>43.31181001849472522735595703125</LatitudeDegrees>
              <LongitudeDegrees>-1.97356495074927806854248046875</LongitudeDegrees>
            </Position>
            <AltitudeMeters>8.3999996185302734375</AltitudeMeters>
            <DistanceMeters>NAN</DistanceMeters>
          </Trackpoint>
          <Trackpoint>
            <Time>2021-08-12T08:53:38.000Z</Time>
            <Position>
              <LatitudeDegrees>43.3117841184139251708984375</LatitudeDegrees>
              <LongitudeDegrees>-1.97357450611889362335205078125</LongitudeDegrees>
            </Position>
            <AltitudeMeters>8.3999996185302734375</AltitudeMeters>
            <DistanceMeters>NAN</DistanceMeters>
          </Trackpoint>
          <Trackpoint>
            <Time>2021-08-12T08:53:39.000Z</Time>
            <Position>
              <LatitudeDegrees>43.31175528466701507568359375</LatitudeDegrees>
              <LongitudeDegrees>-1.97357014752924442291259765625</LongitudeDegrees>
            </Position>
            <AltitudeMeters>8.3999996185302734375</AltitudeMeters>
            <DistanceMeters>NAN</DistanceMeters>
          </Trackpoint>
          <Trackpoint>
            <Time>2021-08-12T08:53:41.000Z</Time>
            <Position>
              <LatitudeDegrees>43.31169627606868743896484375</LatitudeDegrees>
              <LongitudeDegrees>-1.97356428019702434539794921875</LongitudeDegrees>
            </Position>
            <AltitudeMeters>8.3999996185302734375</AltitudeMeters>
            <DistanceMeters>NAN</DistanceMeters>
          </Trackpoint>
          <Trackpoint>
            <Time>2021-08-12T08:53:42.000Z</Time>
            <Position>
              <LatitudeDegrees>43.3116645924746990203857421875</LatitudeDegrees>
              <LongitudeDegrees>-1.9735658727586269378662109375</LongitudeDegrees>
            </Position>
            <AltitudeMeters>8.3999996185302734375</AltitudeMeters>
            <DistanceMeters>NAN</DistanceMeters>
          </Trackpoint>
          <Trackpoint>
            <Time>2021-08-12T08:53:46.000Z</Time>
            <Position>
              <LatitudeDegrees>43.31153006292879581451416015625</LatitudeDegrees>
              <LongitudeDegrees>-1.9735628552734851837158203125</LongitudeDegrees>
            </Position>
            <AltitudeMeters>8.6000003814697265625</AltitudeMeters>
            <DistanceMeters>NAN</DistanceMeters>
          </Trackpoint>
          <Trackpoint>
            <Time>2021-08-12T08:53:55.000Z</Time>
            <Position>
              <LatitudeDegrees>43.3112327568233013153076171875</LatitudeDegrees>
              <LongitudeDegrees>-1.97355455718934535980224609375</LongitudeDegrees>
            </Position>
            <AltitudeMeters>8.80000019073486328125</AltitudeMeters>
            <DistanceMeters>NAN</DistanceMeters>
          </Trackpoint>
          <Trackpoint>
            <Time>2021-08-12T08:53:56.000Z</Time>
            <Position>
              <LatitudeDegrees>43.3111993968486785888671875</LatitudeDegrees>
              <LongitudeDegrees>-1.97355221025645732879638671875</LongitudeDegrees>
            </Position>
            <AltitudeMeters>8.80000019073486328125</AltitudeMeters>
            <DistanceMeters>NAN</DistanceMeters>
          </Trackpoint>
          <Trackpoint>
            <Time>2021-08-12T08:53:57.000Z</Time>
            <Position>
              <LatitudeDegrees>43.3111657015979290008544921875</LatitudeDegrees>
              <LongitudeDegrees>-1.97355153970420360565185546875</LongitudeDegrees>
            </Position>
            <AltitudeMeters>9</AltitudeMeters>
            <DistanceMeters>NAN</DistanceMeters>
          </Trackpoint>
          <Trackpoint>
            <Time>2021-08-12T08:53:58.000Z</Time>
            <Position>
              <LatitudeDegrees>43.31113158725202083587646484375</LatitudeDegrees>
              <LongitudeDegrees>-1.97355053387582302093505859375</LongitudeDegrees>
            </Position>
            <AltitudeMeters>9</AltitudeMeters>
            <DistanceMeters>NAN</DistanceMeters>
          </Trackpoint>
          <Trackpoint>
            <Time>2021-08-12T08:54:07.000Z</Time>
            <Position>
              <LatitudeDegrees>43.31082078628242015838623046875</LatitudeDegrees>
              <LongitudeDegrees>-1.973535530269145965576171875</LongitudeDegrees>
            </Position>
            <AltitudeMeters>9.19999980926513671875</AltitudeMeters>
            <DistanceMeters>NAN</DistanceMeters>
          </Trackpoint>
          <Trackpoint>
            <Time>2021-08-12T08:54:14.000Z</Time>
            <Position>
              <LatitudeDegrees>43.310575783252716064453125</LatitudeDegrees>
              <LongitudeDegrees>-1.97352572344243526458740234375</LongitudeDegrees>
            </Position>
            <AltitudeMeters>9.3999996185302734375</AltitudeMeters>
            <DistanceMeters>NAN</DistanceMeters>
          </Trackpoint>
          <Trackpoint>
            <Time>2021-08-12T08:54:15.000Z</Time>
            <Position>
              <LatitudeDegrees>43.31054158508777618408203125</LatitudeDegrees>
              <LongitudeDegrees>-1.9735236279666423797607421875</LongitudeDegrees>
            </Position>
            <AltitudeMeters>9.3999996185302734375</AltitudeMeters>
            <DistanceMeters>NAN</DistanceMeters>
          </Trackpoint>
          <Trackpoint>
            <Time>2021-08-12T08:54:16.000Z</Time>
            <Position>
              <LatitudeDegrees>43.3105065487325191497802734375</LatitudeDegrees>
              <LongitudeDegrees>-1.97352102957665920257568359375</LongitudeDegrees>
            </Position>
            <AltitudeMeters>9.6000003814697265625</AltitudeMeters>
            <DistanceMeters>NAN</DistanceMeters>
          </Trackpoint>
          <Trackpoint>
            <Time>2021-08-12T08:54:20.000Z</Time>
            <Position>
              <LatitudeDegrees>43.310364224016666412353515625</LatitudeDegrees>
              <LongitudeDegrees>-1.97351566515862941741943359375</LongitudeDegrees>
            </Position>
            <AltitudeMeters>9.6000003814697265625</AltitudeMeters>
            <DistanceMeters>NAN</DistanceMeters>
          </Trackpoint>
          <Trackpoint>
            <Time>2021-08-12T08:54:26.000Z</Time>
            <Position>
              <LatitudeDegrees>43.31015325151383876800537109375</LatitudeDegrees>
              <LongitudeDegrees>-1.97349588386714458465576171875</LongitudeDegrees>
            </Position>
            <AltitudeMeters>9.80000019073486328125</AltitudeMeters>
            <DistanceMeters>NAN</DistanceMeters>
          </Trackpoint>
          <Trackpoint>
            <Time>2021-08-12T08:54:38.000Z</Time>
            <Position>
              <LatitudeDegrees>43.309715129435062408447265625</LatitudeDegrees>
              <LongitudeDegrees>-1.97345967404544353485107421875</LongitudeDegrees>
            </Position>
            <AltitudeMeters>10.3999996185302734375</AltitudeMeters>
            <DistanceMeters>NAN</DistanceMeters>
          </Trackpoint>
          <Trackpoint>
            <Time>2021-08-12T08:54:39.000Z</Time>
            <Position>
              <LatitudeDegrees>43.3096810989081859588623046875</LatitudeDegrees>
              <LongitudeDegrees>-1.973457075655460357666015625</LongitudeDegrees>
            </Position>
            <AltitudeMeters>10.3999996185302734375</AltitudeMeters>
            <DistanceMeters>NAN</DistanceMeters>
          </Trackpoint>
          <Trackpoint>
            <Time>2021-08-12T08:54:40.000Z</Time>
            <Position>
              <LatitudeDegrees>43.30964782275259494781494140625</LatitudeDegrees>
              <LongitudeDegrees>-1.973456405103206634521484375</LongitudeDegrees>
            </Position>
            <AltitudeMeters>10.3999996185302734375</AltitudeMeters>
            <DistanceMeters>NAN</DistanceMeters>
          </Trackpoint>
          <Trackpoint>
            <Time>2021-08-12T08:54:41.000Z</Time>
            <Position>
              <LatitudeDegrees>43.30961496569216251373291015625</LatitudeDegrees>
              <LongitudeDegrees>-1.97345682419836521148681640625</LongitudeDegrees>
            </Position>
            <AltitudeMeters>10.6000003814697265625</AltitudeMeters>
            <DistanceMeters>NAN</DistanceMeters>
          </Trackpoint>
          <Trackpoint>
            <Time>2021-08-12T08:54:42.000Z</Time>
            <Position>
              <LatitudeDegrees>43.30958344973623752593994140625</LatitudeDegrees>
              <LongitudeDegrees>-1.9734585843980312347412109375</LongitudeDegrees>
            </Position>
            <AltitudeMeters>10.6000003814697265625</AltitudeMeters>
            <DistanceMeters>NAN</DistanceMeters>
          </Trackpoint>
          <Trackpoint>
            <Time>2021-08-12T08:54:43.000Z</Time>
            <Position>
              <LatitudeDegrees>43.30954422242939472198486328125</LatitudeDegrees>
              <LongitudeDegrees>-1.97345766238868236541748046875</LongitudeDegrees>
            </Position>
            <AltitudeMeters>10.80000019073486328125</AltitudeMeters>
            <DistanceMeters>NAN</DistanceMeters>
          </Trackpoint>
          <Trackpoint>
            <Time>2021-08-12T08:54:44.000Z</Time>
            <Position>
              <LatitudeDegrees>43.3095181547105312347412109375</LatitudeDegrees>
              <LongitudeDegrees>-1.97345615364611148834228515625</LongitudeDegrees>
            </Position>
            <AltitudeMeters>10.80000019073486328125</AltitudeMeters>
            <DistanceMeters>NAN</DistanceMeters>
          </Trackpoint>
          <Trackpoint>
            <Time>2021-08-12T08:54:45.000Z</Time>
            <Position>
              <LatitudeDegrees>43.30948806367814540863037109375</LatitudeDegrees>
              <LongitudeDegrees>-1.97345598600804805755615234375</LongitudeDegrees>
            </Position>
            <AltitudeMeters>11</AltitudeMeters>
            <DistanceMeters>NAN</DistanceMeters>
          </Trackpoint>
          <Trackpoint>
            <Time>2021-08-12T08:54:46.000Z</Time>
            <Position>
              <LatitudeDegrees>43.309458978474140167236328125</LatitudeDegrees>
              <LongitudeDegrees>-1.97345741093158721923828125</LongitudeDegrees>
            </Position>
            <AltitudeMeters>11</AltitudeMeters>
            <DistanceMeters>NAN</DistanceMeters>
          </Trackpoint>
          <Trackpoint>
            <Time>2021-08-12T08:54:47.000Z</Time>
            <Position>
              <LatitudeDegrees>43.30942955799400806427001953125</LatitudeDegrees>
              <LongitudeDegrees>-1.9734559021890163421630859375</LongitudeDegrees>
            </Position>
            <AltitudeMeters>11.19999980926513671875</AltitudeMeters>
            <DistanceMeters>NAN</DistanceMeters>
          </Trackpoint>
          <Trackpoint>
            <Time>2021-08-12T08:54:48.000Z</Time>
            <Position>
              <LatitudeDegrees>43.30940005369484424591064453125</LatitudeDegrees>
              <LongitudeDegrees>-1.9734542258083820343017578125</LongitudeDegrees>
            </Position>
            <AltitudeMeters>11.19999980926513671875</AltitudeMeters>
            <DistanceMeters>NAN</DistanceMeters>
          </Trackpoint>
          <Trackpoint>
            <Time>2021-08-12T08:54:49.000Z</Time>
            <Position>
              <LatitudeDegrees>43.30937172286212444305419921875</LatitudeDegrees>
              <LongitudeDegrees>-1.9734542258083820343017578125</LongitudeDegrees>
            </Position>
            <AltitudeMeters>11.19999980926513671875</AltitudeMeters>
            <DistanceMeters>NAN</DistanceMeters>
          </Trackpoint>
          <Trackpoint>
            <Time>2021-08-12T08:54:50.000Z</Time>
            <Position>
              <LatitudeDegrees>43.30934205092489719390869140625</LatitudeDegrees>
              <LongitudeDegrees>-1.97344877757132053375244140625</LongitudeDegrees>
            </Position>
            <AltitudeMeters>11.19999980926513671875</AltitudeMeters>
            <DistanceMeters>NAN</DistanceMeters>
          </Trackpoint>
          <Trackpoint>
            <Time>2021-08-12T08:54:51.000Z</Time>
            <Position>
              <LatitudeDegrees>43.3093133009970188140869140625</LatitudeDegrees>
              <LongitudeDegrees>-1.97343922220170497894287109375</LongitudeDegrees>
            </Position>
            <AltitudeMeters>11.19999980926513671875</AltitudeMeters>
            <DistanceMeters>NAN</DistanceMeters>
          </Trackpoint>
          <Trackpoint>
            <Time>2021-08-12T08:54:52.000Z</Time>
            <Position>
              <LatitudeDegrees>43.30928287468850612640380859375</LatitudeDegrees>
              <LongitudeDegrees>-1.9734320975840091705322265625</LongitudeDegrees>
            </Position>
            <AltitudeMeters>11.3999996185302734375</AltitudeMeters>
            <DistanceMeters>NAN</DistanceMeters>
          </Trackpoint>
          <Trackpoint>
            <Time>2021-08-12T08:54:55.000Z</Time>
            <Position>
              <LatitudeDegrees>43.309188075363636016845703125</LatitudeDegrees>
              <LongitudeDegrees>-1.9734227098524570465087890625</LongitudeDegrees>
            </Position>
            <AltitudeMeters>11.3999996185302734375</AltitudeMeters>
            <DistanceMeters>NAN</DistanceMeters>
          </Trackpoint>
          <Trackpoint>
            <Time>2021-08-12T08:54:59.000Z</Time>
            <Position>
              <LatitudeDegrees>43.3090534619987010955810546875</LatitudeDegrees>
              <LongitudeDegrees>-1.973412819206714630126953125</LongitudeDegrees>
            </Position>
            <AltitudeMeters>11.80000019073486328125</AltitudeMeters>
            <DistanceMeters>NAN</DistanceMeters>
          </Trackpoint>
          <Trackpoint>
            <Time>2021-08-12T08:55:05.000Z</Time>
            <Position>
              <LatitudeDegrees>43.30886025913059711456298828125</LatitudeDegrees>
              <LongitudeDegrees>-1.97339840233325958251953125</LongitudeDegrees>
            </Position>
            <AltitudeMeters>12.3999996185302734375</AltitudeMeters>
            <DistanceMeters>NAN</DistanceMeters>
          </Trackpoint>
          <Trackpoint>
            <Time>2021-08-12T08:55:07.000Z</Time>
            <Position>
              <LatitudeDegrees>43.3087969757616519927978515625</LatitudeDegrees>
              <LongitudeDegrees>-1.9733921997249126434326171875</LongitudeDegrees>
            </Position>
            <AltitudeMeters>12.6000003814697265625</AltitudeMeters>
            <DistanceMeters>NAN</DistanceMeters>
          </Trackpoint>
          <Trackpoint>
            <Time>2021-08-12T08:55:09.000Z</Time>
            <Position>
              <LatitudeDegrees>43.30873587168753147125244140625</LatitudeDegrees>
              <LongitudeDegrees>-1.97338842786848545074462890625</LongitudeDegrees>
            </Position>
            <AltitudeMeters>12.6000003814697265625</AltitudeMeters>
            <DistanceMeters>NAN</DistanceMeters>
          </Trackpoint>
          <Trackpoint>
            <Time>2021-08-12T08:55:13.000Z</Time>
            <Position>
              <LatitudeDegrees>43.3086233027279376983642578125</LatitudeDegrees>
              <LongitudeDegrees>-1.97338088415563106536865234375</LongitudeDegrees>
            </Position>
            <AltitudeMeters>12.80000019073486328125</AltitudeMeters>
            <DistanceMeters>NAN</DistanceMeters>
          </Trackpoint>
          <Trackpoint>
            <Time>2021-08-12T08:55:14.000Z</Time>
            <Position>
              <LatitudeDegrees>43.30859857611358165740966796875</LatitudeDegrees>
              <LongitudeDegrees>-1.97338893078267574310302734375</LongitudeDegrees>
            </Position>
            <AltitudeMeters>13</AltitudeMeters>
            <DistanceMeters>NAN</DistanceMeters>
          </Trackpoint>
          <Trackpoint>
            <Time>2021-08-12T08:55:18.000Z</Time>
            <Position>
              <LatitudeDegrees>43.30847938545048236846923828125</LatitudeDegrees>
              <LongitudeDegrees>-1.97339932434260845184326171875</LongitudeDegrees>
            </Position>
            <AltitudeMeters>13.19999980926513671875</AltitudeMeters>
            <DistanceMeters>NAN</DistanceMeters>
          </Trackpoint>
          <Trackpoint>
            <Time>2021-08-12T08:55:19.000Z</Time>
            <Position>
              <LatitudeDegrees>43.30844971351325511932373046875</LatitudeDegrees>
              <LongitudeDegrees>-1.97340418584644794464111328125</LongitudeDegrees>
            </Position>
            <AltitudeMeters>13.3999996185302734375</AltitudeMeters>
            <DistanceMeters>NAN</DistanceMeters>
          </Trackpoint>
          <Trackpoint>
            <Time>2021-08-12T08:55:24.000Z</Time>
            <Position>
              <LatitudeDegrees>43.30829716287553310394287109375</LatitudeDegrees>
              <LongitudeDegrees>-1.97342564351856708526611328125</LongitudeDegrees>
            </Position>
            <AltitudeMeters>13.6000003814697265625</AltitudeMeters>
            <DistanceMeters>NAN</DistanceMeters>
          </Trackpoint>
          <Trackpoint>
            <Time>2021-08-12T08:55:27.000Z</Time>
            <Position>
              <LatitudeDegrees>43.30820831470191478729248046875</LatitudeDegrees>
              <LongitudeDegrees>-1.9734475202858448028564453125</LongitudeDegrees>
            </Position>
            <AltitudeMeters>13.80000019073486328125</AltitudeMeters>
            <DistanceMeters>NAN</DistanceMeters>
          </Trackpoint>
          <Trackpoint>
            <Time>2021-08-12T08:55:33.000Z</Time>
            <Position>
              <LatitudeDegrees>43.308040089905261993408203125</LatitudeDegrees>
              <LongitudeDegrees>-1.973520107567310333251953125</LongitudeDegrees>
            </Position>
            <AltitudeMeters>14.3999996185302734375</AltitudeMeters>
            <DistanceMeters>NAN</DistanceMeters>
          </Trackpoint>
          <Trackpoint>
            <Time>2021-08-12T08:55:34.000Z</Time>
            <Position>
              <LatitudeDegrees>43.3080089092254638671875</LatitudeDegrees>
              <LongitudeDegrees>-1.973534189164638519287109375</LongitudeDegrees>
            </Position>
            <AltitudeMeters>14.3999996185302734375</AltitudeMeters>
            <DistanceMeters>NAN</DistanceMeters>
          </Trackpoint>
          <Trackpoint>
            <Time>2021-08-12T08:55:41.000Z</Time>
            <Position>
              <LatitudeDegrees>43.3077995292842388153076171875</LatitudeDegrees>
              <LongitudeDegrees>-1.973687745630741119384765625</LongitudeDegrees>
            </Position>
            <AltitudeMeters>14.3999996185302734375</AltitudeMeters>
            <DistanceMeters>NAN</DistanceMeters>
          </Trackpoint>
          <Trackpoint>
            <Time>2021-08-12T08:55:46.000Z</Time>
            <Position>
              <LatitudeDegrees>43.3076282031834125518798828125</LatitudeDegrees>
              <LongitudeDegrees>-1.97386317886412143707275390625</LongitudeDegrees>
            </Position>
            <AltitudeMeters>14.19999980926513671875</AltitudeMeters>
            <DistanceMeters>NAN</DistanceMeters>
          </Trackpoint>
          <Trackpoint>
            <Time>2021-08-12T08:55:47.000Z</Time>
            <Position>
              <LatitudeDegrees>43.3075872994959354400634765625</LatitudeDegrees>
              <LongitudeDegrees>-1.97391263209283351898193359375</LongitudeDegrees>
            </Position>
            <AltitudeMeters>14</AltitudeMeters>
            <DistanceMeters>NAN</DistanceMeters>
          </Trackpoint>
          <Trackpoint>
            <Time>2021-08-12T08:55:51.000Z</Time>
            <Position>
              <LatitudeDegrees>43.30743835307657718658447265625</LatitudeDegrees>
              <LongitudeDegrees>-1.97413709945976734161376953125</LongitudeDegrees>
            </Position>
            <AltitudeMeters>13.3999996185302734375</AltitudeMeters>
            <DistanceMeters>NAN</DistanceMeters>
          </Trackpoint>
          <Trackpoint>
            <Time>2021-08-12T08:55:52.000Z</Time>
            <Position>
              <LatitudeDegrees>43.30740080215036869049072265625</LatitudeDegrees>
              <LongitudeDegrees>-1.9742052443325519561767578125</LongitudeDegrees>
            </Position>
            <AltitudeMeters>13</AltitudeMeters>
            <DistanceMeters>NAN</DistanceMeters>
          </Trackpoint>
          <Trackpoint>
            <Time>2021-08-12T08:55:55.000Z</Time>
            <Position>
              <LatitudeDegrees>43.307323269546031951904296875</LatitudeDegrees>
              <LongitudeDegrees>-1.9743792526423931121826171875</LongitudeDegrees>
            </Position>
            <AltitudeMeters>11.80000019073486328125</AltitudeMeters>
            <DistanceMeters>NAN</DistanceMeters>
          </Trackpoint>
          <Trackpoint>
            <Time>2021-08-12T08:55:57.000Z</Time>
            <Position>
              <LatitudeDegrees>43.3072726428508758544921875</LatitudeDegrees>
              <LongitudeDegrees>-1.97451931424438953399658203125</LongitudeDegrees>
            </Position>
            <AltitudeMeters>11</AltitudeMeters>
            <DistanceMeters>NAN</DistanceMeters>
          </Trackpoint>
          <Trackpoint>
            <Time>2021-08-12T08:55:58.000Z</Time>
            <Position>
              <LatitudeDegrees>43.3072490058839321136474609375</LatitudeDegrees>
              <LongitudeDegrees>-1.97459072805941104888916015625</LongitudeDegrees>
            </Position>
            <AltitudeMeters>10.80000019073486328125</AltitudeMeters>
            <DistanceMeters>NAN</DistanceMeters>
          </Trackpoint>
          <Trackpoint>
            <Time>2021-08-12T08:56:00.000Z</Time>
            <Position>
              <LatitudeDegrees>43.30720483325421810150146484375</LatitudeDegrees>
              <LongitudeDegrees>-1.9747269339859485626220703125</LongitudeDegrees>
            </Position>
            <AltitudeMeters>9.3999996185302734375</AltitudeMeters>
            <DistanceMeters>NAN</DistanceMeters>
          </Trackpoint>
          <Trackpoint>
            <Time>2021-08-12T08:56:03.000Z</Time>
            <Position>
              <LatitudeDegrees>43.3071480877697467803955078125</LatitudeDegrees>
              <LongitudeDegrees>-1.9749324582517147064208984375</LongitudeDegrees>
            </Position>
            <AltitudeMeters>8.6000003814697265625</AltitudeMeters>
            <DistanceMeters>NAN</DistanceMeters>
          </Trackpoint>
          <Trackpoint>
            <Time>2021-08-12T08:56:04.000Z</Time>
            <Position>
              <LatitudeDegrees>43.30713828094303607940673828125</LatitudeDegrees>
              <LongitudeDegrees>-1.97497696615755558013916015625</LongitudeDegrees>
            </Position>
            <AltitudeMeters>8</AltitudeMeters>
            <DistanceMeters>NAN</DistanceMeters>
          </Trackpoint>
          <Trackpoint>
            <Time>2021-08-12T08:56:05.000Z</Time>
            <Position>
              <LatitudeDegrees>43.3071279712021350860595703125</LatitudeDegrees>
              <LongitudeDegrees>-1.9750290177762508392333984375</LongitudeDegrees>
            </Position>
            <AltitudeMeters>7.80000019073486328125</AltitudeMeters>
            <DistanceMeters>NAN</DistanceMeters>
          </Trackpoint>
          <Trackpoint>
            <Time>2021-08-12T08:56:06.000Z</Time>
            <Position>
              <LatitudeDegrees>43.307118751108646392822265625</LatitudeDegrees>
              <LongitudeDegrees>-1.97508148849010467529296875</LongitudeDegrees>
            </Position>
            <AltitudeMeters>7</AltitudeMeters>
            <DistanceMeters>NAN</DistanceMeters>
          </Trackpoint>
          <Trackpoint>
            <Time>2021-08-12T08:56:07.000Z</Time>
            <Position>
              <LatitudeDegrees>43.30710793845355510711669921875</LatitudeDegrees>
              <LongitudeDegrees>-1.97513043880462646484375</LongitudeDegrees>
            </Position>
            <AltitudeMeters>6.80000019073486328125</AltitudeMeters>
            <DistanceMeters>NAN</DistanceMeters>
          </Trackpoint>
          <Trackpoint>
            <Time>2021-08-12T08:56:08.000Z</Time>
            <Position>
              <LatitudeDegrees>43.30710207112133502960205078125</LatitudeDegrees>
              <LongitudeDegrees>-1.9751862622797489166259765625</LongitudeDegrees>
            </Position>
            <AltitudeMeters>6.400000095367431640625</AltitudeMeters>
            <DistanceMeters>NAN</DistanceMeters>
          </Trackpoint>
          <Trackpoint>
            <Time>2021-08-12T08:56:10.000Z</Time>
            <Position>
              <LatitudeDegrees>43.3070907555520534515380859375</LatitudeDegrees>
              <LongitudeDegrees>-1.9752881862223148345947265625</LongitudeDegrees>
            </Position>
            <AltitudeMeters>5.599999904632568359375</AltitudeMeters>
            <DistanceMeters>NAN</DistanceMeters>
          </Trackpoint>
          <Trackpoint>
            <Time>2021-08-12T08:56:11.000Z</Time>
            <Position>
              <LatitudeDegrees>43.30708413384854793548583984375</LatitudeDegrees>
              <LongitudeDegrees>-1.9753351248800754547119140625</LongitudeDegrees>
            </Position>
            <AltitudeMeters>5.19999980926513671875</AltitudeMeters>
            <DistanceMeters>NAN</DistanceMeters>
          </Trackpoint>
          <Trackpoint>
            <Time>2021-08-12T08:56:12.000Z</Time>
            <Position>
              <LatitudeDegrees>43.30707876943051815032958984375</LatitudeDegrees>
              <LongitudeDegrees>-1.97537359781563282012939453125</LongitudeDegrees>
            </Position>
            <AltitudeMeters>5</AltitudeMeters>
            <DistanceMeters>NAN</DistanceMeters>
          </Trackpoint>
          <Trackpoint>
            <Time>2021-08-12T08:56:13.000Z</Time>
            <Position>
              <LatitudeDegrees>43.307073153555393218994140625</LatitudeDegrees>
              <LongitudeDegrees>-1.97540058754384517669677734375</LongitudeDegrees>
            </Position>
            <AltitudeMeters>4.80000019073486328125</AltitudeMeters>
            <DistanceMeters>NAN</DistanceMeters>
          </Trackpoint>
          <Trackpoint>
            <Time>2021-08-12T08:56:14.000Z</Time>
            <Position>
              <LatitudeDegrees>43.307067789137363433837890625</LatitudeDegrees>
              <LongitudeDegrees>-1.97542120702564716339111328125</LongitudeDegrees>
            </Position>
            <AltitudeMeters>4.599999904632568359375</AltitudeMeters>
            <DistanceMeters>NAN</DistanceMeters>
          </Trackpoint>
          <Trackpoint>
            <Time>2021-08-12T08:56:15.000Z</Time>
            <Position>
              <LatitudeDegrees>43.3070632629096508026123046875</LatitudeDegrees>
              <LongitudeDegrees>-1.9754397310316562652587890625</LongitudeDegrees>
            </Position>
            <AltitudeMeters>4.599999904632568359375</AltitudeMeters>
            <DistanceMeters>NAN</DistanceMeters>
          </Trackpoint>
          <Trackpoint>
            <Time>2021-08-12T08:56:16.000Z</Time>
            <Position>
              <LatitudeDegrees>43.30706049688160419464111328125</LatitudeDegrees>
              <LongitudeDegrees>-1.9754601828753948211669921875</LongitudeDegrees>
            </Position>
            <AltitudeMeters>4.599999904632568359375</AltitudeMeters>
            <DistanceMeters>NAN</DistanceMeters>
          </Trackpoint>
          <Trackpoint>
            <Time>2021-08-12T08:56:17.000Z</Time>
            <Position>
              <LatitudeDegrees>43.30706032924354076385498046875</LatitudeDegrees>
              <LongitudeDegrees>-1.97548055090010166168212890625</LongitudeDegrees>
            </Position>
            <AltitudeMeters>4.400000095367431640625</AltitudeMeters>
            <DistanceMeters>NAN</DistanceMeters>
          </Trackpoint>
          <Trackpoint>
            <Time>2021-08-12T08:56:18.000Z</Time>
            <Position>
              <LatitudeDegrees>43.3070635981857776641845703125</LatitudeDegrees>
              <LongitudeDegrees>-1.975496225059032440185546875</LongitudeDegrees>
            </Position>
            <AltitudeMeters>4.400000095367431640625</AltitudeMeters>
            <DistanceMeters>NAN</DistanceMeters>
          </Trackpoint>
          <Trackpoint>
            <Time>2021-08-12T08:56:19.000Z</Time>
            <Position>
              <LatitudeDegrees>43.30706686712801456451416015625</LatitudeDegrees>
              <LongitudeDegrees>-1.97551122866570949554443359375</LongitudeDegrees>
            </Position>
            <AltitudeMeters>4.400000095367431640625</AltitudeMeters>
            <DistanceMeters>NAN</DistanceMeters>
          </Trackpoint>
          <Trackpoint>
            <Time>2021-08-12T08:56:20.000Z</Time>
            <Position>
              <LatitudeDegrees>43.3070682920515537261962890625</LatitudeDegrees>
              <LongitudeDegrees>-1.97551927529275417327880859375</LongitudeDegrees>
            </Position>
            <AltitudeMeters>4.400000095367431640625</AltitudeMeters>
            <DistanceMeters>NAN</DistanceMeters>
          </Trackpoint>
          <Trackpoint>
            <Time>2021-08-12T08:56:21.000Z</Time>
            <Position>
              <LatitudeDegrees>43.30706971697509288787841796875</LatitudeDegrees>
              <LongitudeDegrees>-1.975523047149181365966796875</LongitudeDegrees>
            </Position>
            <AltitudeMeters>4.400000095367431640625</AltitudeMeters>
            <DistanceMeters>NAN</DistanceMeters>
          </Trackpoint>
          <Trackpoint>
            <Time>2021-08-12T08:56:26.000Z</Time>
            <Position>
              <LatitudeDegrees>43.30706971697509288787841796875</LatitudeDegrees>
              <LongitudeDegrees>-1.975523047149181365966796875</LongitudeDegrees>
            </Position>
            <AltitudeMeters>4.400000095367431640625</AltitudeMeters>
            <DistanceMeters>NAN</DistanceMeters>
          </Trackpoint>
          <Trackpoint>
            <Time>2021-08-12T08:56:29.000Z</Time>
            <Position>
              <LatitudeDegrees>43.30706887878477573394775390625</LatitudeDegrees>
              <LongitudeDegrees>-1.97556051425635814666748046875</LongitudeDegrees>
            </Position>
            <AltitudeMeters>4.400000095367431640625</AltitudeMeters>
            <DistanceMeters>NAN</DistanceMeters>
          </Trackpoint>
          <Trackpoint>
            <Time>2021-08-12T08:56:31.000Z</Time>
            <Position>
              <LatitudeDegrees>43.307075835764408111572265625</LatitudeDegrees>
              <LongitudeDegrees>-1.9756036810576915740966796875</LongitudeDegrees>
            </Position>
            <AltitudeMeters>4.400000095367431640625</AltitudeMeters>
            <DistanceMeters>NAN</DistanceMeters>
          </Trackpoint>
          <Trackpoint>
            <Time>2021-08-12T08:56:33.000Z</Time>
            <Position>
              <LatitudeDegrees>43.30705982632935047149658203125</LatitudeDegrees>
              <LongitudeDegrees>-1.97566260583698749542236328125</LongitudeDegrees>
            </Position>
            <AltitudeMeters>4.599999904632568359375</AltitudeMeters>
            <DistanceMeters>NAN</DistanceMeters>
          </Trackpoint>
          <Trackpoint>
            <Time>2021-08-12T08:56:35.000Z</Time>
            <Position>
              <LatitudeDegrees>43.307013809680938720703125</LatitudeDegrees>
              <LongitudeDegrees>-1.97569596581161022186279296875</LongitudeDegrees>
            </Position>
            <AltitudeMeters>4.599999904632568359375</AltitudeMeters>
            <DistanceMeters>NAN</DistanceMeters>
          </Trackpoint>
          <Trackpoint>
            <Time>2021-08-12T08:56:36.000Z</Time>
            <Position>
              <LatitudeDegrees>43.306990005075931549072265625</LatitudeDegrees>
              <LongitudeDegrees>-1.97570015676319599151611328125</LongitudeDegrees>
            </Position>
            <AltitudeMeters>4.599999904632568359375</AltitudeMeters>
            <DistanceMeters>NAN</DistanceMeters>
          </Trackpoint>
          <Trackpoint>
            <Time>2021-08-12T08:56:37.000Z</Time>
            <Position>
              <LatitudeDegrees>43.30696829594671726226806640625</LatitudeDegrees>
              <LongitudeDegrees>-1.97570233605802059173583984375</LongitudeDegrees>
            </Position>
            <AltitudeMeters>4.599999904632568359375</AltitudeMeters>
            <DistanceMeters>NAN</DistanceMeters>
          </Trackpoint>
          <Trackpoint>
            <Time>2021-08-12T08:56:38.000Z</Time>
            <Position>
              <LatitudeDegrees>43.30694901756942272186279296875</LatitudeDegrees>
              <LongitudeDegrees>-1.97570803575217723846435546875</LongitudeDegrees>
            </Position>
            <AltitudeMeters>4.599999904632568359375</AltitudeMeters>
            <DistanceMeters>NAN</DistanceMeters>
          </Trackpoint>
          <Trackpoint>
            <Time>2021-08-12T08:56:40.000Z</Time>
            <Position>
              <LatitudeDegrees>43.30691867507994174957275390625</LatitudeDegrees>
              <LongitudeDegrees>-1.975725553929805755615234375</LongitudeDegrees>
            </Position>
            <AltitudeMeters>4.599999904632568359375</AltitudeMeters>
            <DistanceMeters>NAN</DistanceMeters>
          </Trackpoint>
          <Trackpoint>
            <Time>2021-08-12T08:56:41.000Z</Time>
            <Position>
              <LatitudeDegrees>43.30691465176641941070556640625</LatitudeDegrees>
              <LongitudeDegrees>-1.97573016397655010223388671875</LongitudeDegrees>
            </Position>
            <AltitudeMeters>4.599999904632568359375</AltitudeMeters>
            <DistanceMeters>NAN</DistanceMeters>
          </Trackpoint>
          <Trackpoint>
            <Time>2021-08-12T08:56:42.000Z</Time>
            <Position>
              <LatitudeDegrees>43.30691792070865631103515625</LatitudeDegrees>
              <LongitudeDegrees>-1.9757361151278018951416015625</LongitudeDegrees>
            </Position>
            <AltitudeMeters>4.599999904632568359375</AltitudeMeters>
            <DistanceMeters>NAN</DistanceMeters>
          </Trackpoint>
          <Trackpoint>
            <Time>2021-08-12T08:56:43.000Z</Time>
            <Position>
              <LatitudeDegrees>43.30692462623119354248046875</LatitudeDegrees>
              <LongitudeDegrees>-1.975758410990238189697265625</LongitudeDegrees>
            </Position>
            <AltitudeMeters>4.599999904632568359375</AltitudeMeters>
            <DistanceMeters>NAN</DistanceMeters>
          </Trackpoint>
          <Trackpoint>
            <Time>2021-08-12T08:56:44.000Z</Time>
            <Position>
              <LatitudeDegrees>43.30693267285823822021484375</LatitudeDegrees>
              <LongitudeDegrees>-1.975787244737148284912109375</LongitudeDegrees>
            </Position>
            <AltitudeMeters>4.599999904632568359375</AltitudeMeters>
            <DistanceMeters>NAN</DistanceMeters>
          </Trackpoint>
          <Trackpoint>
            <Time>2021-08-12T08:56:46.000Z</Time>
            <Position>
              <LatitudeDegrees>43.3069427311420440673828125</LatitudeDegrees>
              <LongitudeDegrees>-1.97583393193781375885009765625</LongitudeDegrees>
            </Position>
            <AltitudeMeters>4.80000019073486328125</AltitudeMeters>
            <DistanceMeters>NAN</DistanceMeters>
          </Trackpoint>
          <Trackpoint>
            <Time>2021-08-12T08:56:47.000Z</Time>
            <Position>
              <LatitudeDegrees>43.30694432370364665985107421875</LatitudeDegrees>
              <LongitudeDegrees>-1.97584994137287139892578125</LongitudeDegrees>
            </Position>
            <AltitudeMeters>4.80000019073486328125</AltitudeMeters>
            <DistanceMeters>NAN</DistanceMeters>
          </Trackpoint>
          <Trackpoint>
            <Time>2021-08-12T08:56:48.000Z</Time>
            <Position>
              <LatitudeDegrees>43.30694549717009067535400390625</LatitudeDegrees>
              <LongitudeDegrees>-1.9758698903024196624755859375</LongitudeDegrees>
            </Position>
            <AltitudeMeters>4.80000019073486328125</AltitudeMeters>
            <DistanceMeters>NAN</DistanceMeters>
          </Trackpoint>
          <Trackpoint>
            <Time>2021-08-12T08:56:51.000Z</Time>
            <Position>
              <LatitudeDegrees>43.3069526217877864837646484375</LatitudeDegrees>
              <LongitudeDegrees>-1.9759739935398101806640625</LongitudeDegrees>
            </Position>
            <AltitudeMeters>4.80000019073486328125</AltitudeMeters>
            <DistanceMeters>NAN</DistanceMeters>
          </Trackpoint>
          <Trackpoint>
            <Time>2021-08-12T08:56:54.000Z</Time>
            <Position>
              <LatitudeDegrees>43.3069824613630771636962890625</LatitudeDegrees>
              <LongitudeDegrees>-1.97611120529472827911376953125</LongitudeDegrees>
            </Position>
            <AltitudeMeters>5</AltitudeMeters>
            <DistanceMeters>NAN</DistanceMeters>
          </Trackpoint>
          <Trackpoint>
            <Time>2021-08-12T08:56:56.000Z</Time>
            <Position>
              <LatitudeDegrees>43.306973911821842193603515625</LatitudeDegrees>
              <LongitudeDegrees>-1.9762108661234378814697265625</LongitudeDegrees>
            </Position>
            <AltitudeMeters>5</AltitudeMeters>
            <DistanceMeters>NAN</DistanceMeters>
          </Trackpoint>
          <Trackpoint>
            <Time>2021-08-12T08:56:57.000Z</Time>
            <Position>
              <LatitudeDegrees>43.306978605687618255615234375</LatitudeDegrees>
              <LongitudeDegrees>-1.97626509703695774078369140625</LongitudeDegrees>
            </Position>
            <AltitudeMeters>5</AltitudeMeters>
            <DistanceMeters>NAN</DistanceMeters>
          </Trackpoint>
          <Trackpoint>
            <Time>2021-08-12T08:56:58.000Z</Time>
            <Position>
              <LatitudeDegrees>43.30698422156274318695068359375</LatitudeDegrees>
              <LongitudeDegrees>-1.976315639913082122802734375</LongitudeDegrees>
            </Position>
            <AltitudeMeters>5</AltitudeMeters>
            <DistanceMeters>NAN</DistanceMeters>
          </Trackpoint>
          <Trackpoint>
            <Time>2021-08-12T08:56:59.000Z</Time>
            <Position>
              <LatitudeDegrees>43.30698958598077297210693359375</LatitudeDegrees>
              <LongitudeDegrees>-1.97636635042726993560791015625</LongitudeDegrees>
            </Position>
            <AltitudeMeters>5</AltitudeMeters>
            <DistanceMeters>NAN</DistanceMeters>
          </Trackpoint>
          <Trackpoint>
            <Time>2021-08-12T08:57:00.000Z</Time>
            <Position>
              <LatitudeDegrees>43.3069952018558979034423828125</LatitudeDegrees>
              <LongitudeDegrees>-1.9764157198369503021240234375</LongitudeDegrees>
            </Position>
            <AltitudeMeters>5</AltitudeMeters>
            <DistanceMeters>NAN</DistanceMeters>
          </Trackpoint>
          <Trackpoint>
            <Time>2021-08-12T08:57:01.000Z</Time>
            <Position>
              <LatitudeDegrees>43.30700081773102283477783203125</LatitudeDegrees>
              <LongitudeDegrees>-1.97645075619220733642578125</LongitudeDegrees>
            </Position>
            <AltitudeMeters>5</AltitudeMeters>
            <DistanceMeters>NAN</DistanceMeters>
          </Trackpoint>
          <Trackpoint>
            <Time>2021-08-12T08:57:02.000Z</Time>
            <Position>
              <LatitudeDegrees>43.30700970254838466644287109375</LatitudeDegrees>
              <LongitudeDegrees>-1.9764978624880313873291015625</LongitudeDegrees>
            </Position>
            <AltitudeMeters>5</AltitudeMeters>
            <DistanceMeters>NAN</DistanceMeters>
          </Trackpoint>
          <Trackpoint>
            <Time>2021-08-12T08:57:03.000Z</Time>
            <Position>
              <LatitudeDegrees>43.30700970254838466644287109375</LatitudeDegrees>
              <LongitudeDegrees>-1.9764978624880313873291015625</LongitudeDegrees>
            </Position>
            <AltitudeMeters>5</AltitudeMeters>
            <DistanceMeters>NAN</DistanceMeters>
          </Trackpoint>
          <Trackpoint>
            <Time>2021-08-12T08:57:04.000Z</Time>
            <Position>
              <LatitudeDegrees>43.3070339262485504150390625</LatitudeDegrees>
              <LongitudeDegrees>-1.976594589650630950927734375</LongitudeDegrees>
            </Position>
            <AltitudeMeters>5</AltitudeMeters>
            <DistanceMeters>NAN</DistanceMeters>
          </Trackpoint>
          <Trackpoint>
            <Time>2021-08-12T08:57:10.000Z</Time>
            <Position>
              <LatitudeDegrees>43.307148925960063934326171875</LatitudeDegrees>
              <LongitudeDegrees>-1.9769239984452724456787109375</LongitudeDegrees>
            </Position>
            <AltitudeMeters>4.80000019073486328125</AltitudeMeters>
            <DistanceMeters>NAN</DistanceMeters>
          </Trackpoint>
          <Trackpoint>
            <Time>2021-08-12T08:57:18.000Z</Time>
            <Position>
              <LatitudeDegrees>43.30732469446957111358642578125</LatitudeDegrees>
              <LongitudeDegrees>-1.97735331952571868896484375</LongitudeDegrees>
            </Position>
            <AltitudeMeters>5</AltitudeMeters>
            <DistanceMeters>NAN</DistanceMeters>
          </Trackpoint>
          <Trackpoint>
            <Time>2021-08-12T08:57:19.000Z</Time>
            <Position>
              <LatitudeDegrees>43.30734095536172389984130859375</LatitudeDegrees>
              <LongitudeDegrees>-1.97738458402454853057861328125</LongitudeDegrees>
            </Position>
            <AltitudeMeters>5</AltitudeMeters>
            <DistanceMeters>NAN</DistanceMeters>
          </Trackpoint>
          <Trackpoint>
            <Time>2021-08-12T08:57:20.000Z</Time>
            <Position>
              <LatitudeDegrees>43.3073640055954456329345703125</LatitudeDegrees>
              <LongitudeDegrees>-1.977416016161441802978515625</LongitudeDegrees>
            </Position>
            <AltitudeMeters>5</AltitudeMeters>
            <DistanceMeters>NAN</DistanceMeters>
          </Trackpoint>
          <Trackpoint>
            <Time>2021-08-12T08:57:21.000Z</Time>
            <Position>
              <LatitudeDegrees>43.30738605000078678131103515625</LatitudeDegrees>
              <LongitudeDegrees>-1.97744510136544704437255859375</LongitudeDegrees>
            </Position>
            <AltitudeMeters>5</AltitudeMeters>
            <DistanceMeters>NAN</DistanceMeters>
          </Trackpoint>
          <Trackpoint>
            <Time>2021-08-12T08:57:22.000Z</Time>
            <Position>
              <LatitudeDegrees>43.30740834586322307586669921875</LatitudeDegrees>
              <LongitudeDegrees>-1.97748969309031963348388671875</LongitudeDegrees>
            </Position>
            <AltitudeMeters>5</AltitudeMeters>
            <DistanceMeters>NAN</DistanceMeters>
          </Trackpoint>
          <Trackpoint>
            <Time>2021-08-12T08:57:23.000Z</Time>
            <Position>
              <LatitudeDegrees>43.30743013881146907806396484375</LatitudeDegrees>
              <LongitudeDegrees>-1.97751827538013458251953125</LongitudeDegrees>
            </Position>
            <AltitudeMeters>5</AltitudeMeters>
            <DistanceMeters>NAN</DistanceMeters>
          </Trackpoint>
          <Trackpoint>
            <Time>2021-08-12T08:57:24.000Z</Time>
            <Position>
              <LatitudeDegrees>43.3074515126645565032958984375</LatitudeDegrees>
              <LongitudeDegrees>-1.9775392301380634307861328125</LongitudeDegrees>
            </Position>
            <AltitudeMeters>4.80000019073486328125</AltitudeMeters>
            <DistanceMeters>NAN</DistanceMeters>
          </Trackpoint>
          <Trackpoint>
            <Time>2021-08-12T08:57:25.000Z</Time>
            <Position>
              <LatitudeDegrees>43.30747540108859539031982421875</LatitudeDegrees>
              <LongitudeDegrees>-1.977557837963104248046875</LongitudeDegrees>
            </Position>
            <AltitudeMeters>4.80000019073486328125</AltitudeMeters>
            <DistanceMeters>NAN</DistanceMeters>
          </Trackpoint>
          <Trackpoint>
            <Time>2021-08-12T08:57:26.000Z</Time>
            <Position>
              <LatitudeDegrees>43.3075028099119663238525390625</LatitudeDegrees>
              <LongitudeDegrees>-1.9776059500873088836669921875</LongitudeDegrees>
            </Position>
            <AltitudeMeters>4.80000019073486328125</AltitudeMeters>
            <DistanceMeters>NAN</DistanceMeters>
          </Trackpoint>
          <Trackpoint>
            <Time>2021-08-12T08:57:27.000Z</Time>
            <Position>
              <LatitudeDegrees>43.307526446878910064697265625</LatitudeDegrees>
              <LongitudeDegrees>-1.97764744050800800323486328125</LongitudeDegrees>
            </Position>
            <AltitudeMeters>4.80000019073486328125</AltitudeMeters>
            <DistanceMeters>NAN</DistanceMeters>
          </Trackpoint>
          <Trackpoint>
            <Time>2021-08-12T08:57:28.000Z</Time>
            <Position>
              <LatitudeDegrees>43.30754966475069522857666015625</LatitudeDegrees>
              <LongitudeDegrees>-1.97767929174005985260009765625</LongitudeDegrees>
            </Position>
            <AltitudeMeters>4.80000019073486328125</AltitudeMeters>
            <DistanceMeters>NAN</DistanceMeters>
          </Trackpoint>
          <Trackpoint>
            <Time>2021-08-12T08:57:29.000Z</Time>
            <Position>
              <LatitudeDegrees>43.30756944604218006134033203125</LatitudeDegrees>
              <LongitudeDegrees>-1.9777025096118450164794921875</LongitudeDegrees>
            </Position>
            <AltitudeMeters>4.80000019073486328125</AltitudeMeters>
            <DistanceMeters>NAN</DistanceMeters>
          </Trackpoint>
          <Trackpoint>
            <Time>2021-08-12T08:57:30.000Z</Time>
            <Position>
              <LatitudeDegrees>43.3075876347720623016357421875</LatitudeDegrees>
              <LongitudeDegrees>-1.9777259789407253265380859375</LongitudeDegrees>
            </Position>
            <AltitudeMeters>4.80000019073486328125</AltitudeMeters>
            <DistanceMeters>NAN</DistanceMeters>
          </Trackpoint>
          <Trackpoint>
            <Time>2021-08-12T08:57:31.000Z</Time>
            <Position>
              <LatitudeDegrees>43.30760397948324680328369140625</LatitudeDegrees>
              <LongitudeDegrees>-1.97775003500282764434814453125</LongitudeDegrees>
            </Position>
            <AltitudeMeters>4.80000019073486328125</AltitudeMeters>
            <DistanceMeters>NAN</DistanceMeters>
          </Trackpoint>
          <Trackpoint>
            <Time>2021-08-12T08:57:32.000Z</Time>
            <Position>
              <LatitudeDegrees>43.3076208271086215972900390625</LatitudeDegrees>
              <LongitudeDegrees>-1.97777098976075649261474609375</LongitudeDegrees>
            </Position>
            <AltitudeMeters>4.80000019073486328125</AltitudeMeters>
            <DistanceMeters>NAN</DistanceMeters>
          </Trackpoint>
          <Trackpoint>
            <Time>2021-08-12T08:57:33.000Z</Time>
            <Position>
              <LatitudeDegrees>43.307636417448520660400390625</LatitudeDegrees>
              <LongitudeDegrees>-1.9777930341660976409912109375</LongitudeDegrees>
            </Position>
            <AltitudeMeters>4.80000019073486328125</AltitudeMeters>
            <DistanceMeters>NAN</DistanceMeters>
          </Trackpoint>
          <Trackpoint>
            <Time>2021-08-12T08:57:36.000Z</Time>
            <Position>
              <LatitudeDegrees>43.30771562643349170684814453125</LatitudeDegrees>
              <LongitudeDegrees>-1.9778617657721042633056640625</LongitudeDegrees>
            </Position>
            <AltitudeMeters>5</AltitudeMeters>
            <DistanceMeters>NAN</DistanceMeters>
          </Trackpoint>
          <Trackpoint>
            <Time>2021-08-12T08:57:37.000Z</Time>
            <Position>
              <LatitudeDegrees>43.30773389898240566253662109375</LatitudeDegrees>
              <LongitudeDegrees>-1.97787861339747905731201171875</LongitudeDegrees>
            </Position>
            <AltitudeMeters>5</AltitudeMeters>
            <DistanceMeters>NAN</DistanceMeters>
          </Trackpoint>
          <Trackpoint>
            <Time>2021-08-12T08:57:38.000Z</Time>
            <Position>
              <LatitudeDegrees>43.3077552728354930877685546875</LatitudeDegrees>
              <LongitudeDegrees>-1.977895796298980712890625</LongitudeDegrees>
            </Position>
            <AltitudeMeters>5</AltitudeMeters>
            <DistanceMeters>NAN</DistanceMeters>
          </Trackpoint>
          <Trackpoint>
            <Time>2021-08-12T08:57:39.000Z</Time>
            <Position>
              <LatitudeDegrees>43.30777312628924846649169921875</LatitudeDegrees>
              <LongitudeDegrees>-1.97791951708495616912841796875</LongitudeDegrees>
            </Position>
            <AltitudeMeters>5</AltitudeMeters>
            <DistanceMeters>NAN</DistanceMeters>
          </Trackpoint>
          <Trackpoint>
            <Time>2021-08-12T08:57:40.000Z</Time>
            <Position>
              <LatitudeDegrees>43.30779072828590869903564453125</LatitudeDegrees>
              <LongitudeDegrees>-1.9779395498335361480712890625</LongitudeDegrees>
            </Position>
            <AltitudeMeters>5</AltitudeMeters>
            <DistanceMeters>NAN</DistanceMeters>
          </Trackpoint>
          <Trackpoint>
            <Time>2021-08-12T08:57:41.000Z</Time>
            <Position>
              <LatitudeDegrees>43.30780967138707637786865234375</LatitudeDegrees>
              <LongitudeDegrees>-1.97795622982084751129150390625</LongitudeDegrees>
            </Position>
            <AltitudeMeters>5</AltitudeMeters>
            <DistanceMeters>NAN</DistanceMeters>
          </Trackpoint>
          <Trackpoint>
            <Time>2021-08-12T08:57:43.000Z</Time>
            <Position>
              <LatitudeDegrees>43.30785258673131465911865234375</LatitudeDegrees>
              <LongitudeDegrees>-1.9780183397233486175537109375</LongitudeDegrees>
            </Position>
            <AltitudeMeters>4.80000019073486328125</AltitudeMeters>
            <DistanceMeters>NAN</DistanceMeters>
          </Trackpoint>
          <Trackpoint>
            <Time>2021-08-12T08:57:44.000Z</Time>
            <Position>
              <LatitudeDegrees>43.30785376019775867462158203125</LatitudeDegrees>
              <LongitudeDegrees>-1.97803367860615253448486328125</LongitudeDegrees>
            </Position>
            <AltitudeMeters>4.80000019073486328125</AltitudeMeters>
            <DistanceMeters>NAN</DistanceMeters>
          </Trackpoint>
          <Trackpoint>
            <Time>2021-08-12T08:57:45.000Z</Time>
            <Position>
              <LatitudeDegrees>43.30786549486219882965087890625</LatitudeDegrees>
              <LongitudeDegrees>-1.97804323397576808929443359375</LongitudeDegrees>
            </Position>
            <AltitudeMeters>4.80000019073486328125</AltitudeMeters>
            <DistanceMeters>NAN</DistanceMeters>
          </Trackpoint>
          <Trackpoint>
            <Time>2021-08-12T08:57:47.000Z</Time>
            <Position>
              <LatitudeDegrees>43.30788209103047847747802734375</LatitudeDegrees>
              <LongitudeDegrees>-1.978060416877269744873046875</LongitudeDegrees>
            </Position>
            <AltitudeMeters>4.80000019073486328125</AltitudeMeters>
            <DistanceMeters>NAN</DistanceMeters>
          </Trackpoint>
          <Trackpoint>
            <Time>2021-08-12T08:57:48.000Z</Time>
            <Position>
              <LatitudeDegrees>43.307889215648174285888671875</LatitudeDegrees>
              <LongitudeDegrees>-1.97806703858077526092529296875</LongitudeDegrees>
            </Position>
            <AltitudeMeters>4.80000019073486328125</AltitudeMeters>
            <DistanceMeters>NAN</DistanceMeters>
          </Trackpoint>
          <Trackpoint>
            <Time>2021-08-12T08:57:49.000Z</Time>
            <Position>
              <LatitudeDegrees>43.30789952538907527923583984375</LatitudeDegrees>
              <LongitudeDegrees>-1.97807474993169307708740234375</LongitudeDegrees>
            </Position>
            <AltitudeMeters>4.599999904632568359375</AltitudeMeters>
            <DistanceMeters>NAN</DistanceMeters>
          </Trackpoint>
          <Trackpoint>
            <Time>2021-08-12T08:57:50.000Z</Time>
            <Position>
              <LatitudeDegrees>43.3079078234732151031494140625</LatitudeDegrees>
              <LongitudeDegrees>-1.978081203997135162353515625</LongitudeDegrees>
            </Position>
            <AltitudeMeters>4.599999904632568359375</AltitudeMeters>
            <DistanceMeters>NAN</DistanceMeters>
          </Trackpoint>
          <Trackpoint>
            <Time>2021-08-12T08:57:51.000Z</Time>
            <Position>
              <LatitudeDegrees>43.30791025422513484954833984375</LatitudeDegrees>
              <LongitudeDegrees>-1.9780857302248477935791015625</LongitudeDegrees>
            </Position>
            <AltitudeMeters>4.599999904632568359375</AltitudeMeters>
            <DistanceMeters>NAN</DistanceMeters>
          </Trackpoint>
          <Trackpoint>
            <Time>2021-08-12T08:57:52.000Z</Time>
            <Position>
              <LatitudeDegrees>43.30791025422513484954833984375</LatitudeDegrees>
              <LongitudeDegrees>-1.9780857302248477935791015625</LongitudeDegrees>
            </Position>
            <AltitudeMeters>4.599999904632568359375</AltitudeMeters>
            <DistanceMeters>NAN</DistanceMeters>
          </Trackpoint>
          <Trackpoint>
            <Time>2021-08-12T08:58:00.000Z</Time>
            <Position>
              <LatitudeDegrees>43.30791025422513484954833984375</LatitudeDegrees>
              <LongitudeDegrees>-1.9780857302248477935791015625</LongitudeDegrees>
            </Position>
            <AltitudeMeters>4.400000095367431640625</AltitudeMeters>
            <DistanceMeters>NAN</DistanceMeters>
          </Trackpoint>
          <Trackpoint>
            <Time>2021-08-12T08:58:26.000Z</Time>
            <Position>
              <LatitudeDegrees>43.30791167914867401123046875</LatitudeDegrees>
              <LongitudeDegrees>-1.97808648459613323211669921875</LongitudeDegrees>
            </Position>
            <AltitudeMeters>4.400000095367431640625</AltitudeMeters>
            <DistanceMeters>NAN</DistanceMeters>
          </Trackpoint>
          <Trackpoint>
            <Time>2021-08-12T08:58:29.000Z</Time>
            <Position>
              <LatitudeDegrees>43.30797160975635051727294921875</LatitudeDegrees>
              <LongitudeDegrees>-1.9781400449573993682861328125</LongitudeDegrees>
            </Position>
            <AltitudeMeters>4.400000095367431640625</AltitudeMeters>
            <DistanceMeters>NAN</DistanceMeters>
          </Trackpoint>
          <Trackpoint>
            <Time>2021-08-12T08:58:36.000Z</Time>
            <Position>
              <LatitudeDegrees>43.308120556175708770751953125</LatitudeDegrees>
              <LongitudeDegrees>-1.97827373631298542022705078125</LongitudeDegrees>
            </Position>
            <AltitudeMeters>4.400000095367431640625</AltitudeMeters>
            <DistanceMeters>NAN</DistanceMeters>
          </Trackpoint>
          <Trackpoint>
            <Time>2021-08-12T08:58:37.000Z</Time>
            <Position>
              <LatitudeDegrees>43.3081418462097644805908203125</LatitudeDegrees>
              <LongitudeDegrees>-1.97829150594770908355712890625</LongitudeDegrees>
            </Position>
            <AltitudeMeters>4.400000095367431640625</AltitudeMeters>
            <DistanceMeters>NAN</DistanceMeters>
          </Trackpoint>
          <Trackpoint>
            <Time>2021-08-12T08:58:38.000Z</Time>
            <Position>
              <LatitudeDegrees>43.30816187895834445953369140625</LatitudeDegrees>
              <LongitudeDegrees>-1.97830684483051300048828125</LongitudeDegrees>
            </Position>
            <AltitudeMeters>4.400000095367431640625</AltitudeMeters>
            <DistanceMeters>NAN</DistanceMeters>
          </Trackpoint>
          <Trackpoint>
            <Time>2021-08-12T08:58:39.000Z</Time>
            <Position>
              <LatitudeDegrees>43.30818316899240016937255859375</LatitudeDegrees>
              <LongitudeDegrees>-1.97832469828426837921142578125</LongitudeDegrees>
            </Position>
            <AltitudeMeters>4.400000095367431640625</AltitudeMeters>
            <DistanceMeters>NAN</DistanceMeters>
          </Trackpoint>
          <Trackpoint>
            <Time>2021-08-12T08:58:40.000Z</Time>
            <Position>
              <LatitudeDegrees>43.30819926224648952484130859375</LatitudeDegrees>
              <LongitudeDegrees>-1.97833978570997714996337890625</LongitudeDegrees>
            </Position>
            <AltitudeMeters>4.400000095367431640625</AltitudeMeters>
            <DistanceMeters>NAN</DistanceMeters>
          </Trackpoint>
          <Trackpoint>
            <Time>2021-08-12T08:58:41.000Z</Time>
            <Position>
              <LatitudeDegrees>43.30821149982511997222900390625</LatitudeDegrees>
              <LongitudeDegrees>-1.9783576391637325286865234375</LongitudeDegrees>
            </Position>
            <AltitudeMeters>4.400000095367431640625</AltitudeMeters>
            <DistanceMeters>NAN</DistanceMeters>
          </Trackpoint>
          <Trackpoint>
            <Time>2021-08-12T08:58:42.000Z</Time>
            <Position>
              <LatitudeDegrees>43.30822424031794071197509765625</LatitudeDegrees>
              <LongitudeDegrees>-1.9783754087984561920166015625</LongitudeDegrees>
            </Position>
            <AltitudeMeters>4.400000095367431640625</AltitudeMeters>
            <DistanceMeters>NAN</DistanceMeters>
          </Trackpoint>
          <Trackpoint>
            <Time>2021-08-12T08:58:43.000Z</Time>
            <Position>
              <LatitudeDegrees>43.3082380704581737518310546875</LatitudeDegrees>
              <LongitudeDegrees>-1.97839225642383098602294921875</LongitudeDegrees>
            </Position>
            <AltitudeMeters>4.400000095367431640625</AltitudeMeters>
            <DistanceMeters>NAN</DistanceMeters>
          </Trackpoint>
          <Trackpoint>
            <Time>2021-08-12T08:58:44.000Z</Time>
            <Position>
              <LatitudeDegrees>43.30825206823647022247314453125</LatitudeDegrees>
              <LongitudeDegrees>-1.97840650565922260284423828125</LongitudeDegrees>
            </Position>
            <AltitudeMeters>4.400000095367431640625</AltitudeMeters>
            <DistanceMeters>NAN</DistanceMeters>
          </Trackpoint>
          <Trackpoint>
            <Time>2021-08-12T08:58:47.000Z</Time>
            <Position>
              <LatitudeDegrees>43.3083108253777027130126953125</LatitudeDegrees>
              <LongitudeDegrees>-1.97846802882850170135498046875</LongitudeDegrees>
            </Position>
            <AltitudeMeters>4.400000095367431640625</AltitudeMeters>
            <DistanceMeters>NAN</DistanceMeters>
          </Trackpoint>
          <Trackpoint>
            <Time>2021-08-12T08:58:49.000Z</Time>
            <Position>
              <LatitudeDegrees>43.3083570934832096099853515625</LatitudeDegrees>
              <LongitudeDegrees>-1.97851605713367462158203125</LongitudeDegrees>
            </Position>
            <AltitudeMeters>4.400000095367431640625</AltitudeMeters>
            <DistanceMeters>NAN</DistanceMeters>
          </Trackpoint>
          <Trackpoint>
            <Time>2021-08-12T08:58:53.000Z</Time>
            <Position>
              <LatitudeDegrees>43.30846731550991535186767578125</LatitudeDegrees>
              <LongitudeDegrees>-1.97860633023083209991455078125</LongitudeDegrees>
            </Position>
            <AltitudeMeters>4.400000095367431640625</AltitudeMeters>
            <DistanceMeters>NAN</DistanceMeters>
          </Trackpoint>
          <Trackpoint>
            <Time>2021-08-12T08:59:00.000Z</Time>
            <Position>
              <LatitudeDegrees>43.30868742428719997406005859375</LatitudeDegrees>
              <LongitudeDegrees>-1.97877212427556514739990234375</LongitudeDegrees>
            </Position>
            <AltitudeMeters>4.400000095367431640625</AltitudeMeters>
            <DistanceMeters>NAN</DistanceMeters>
          </Trackpoint>
          <Trackpoint>
            <Time>2021-08-12T08:59:01.000Z</Time>
            <Position>
              <LatitudeDegrees>43.30870938487350940704345703125</LatitudeDegrees>
              <LongitudeDegrees>-1.97879777289927005767822265625</LongitudeDegrees>
            </Position>
            <AltitudeMeters>4.400000095367431640625</AltitudeMeters>
            <DistanceMeters>NAN</DistanceMeters>
          </Trackpoint>
          <Trackpoint>
            <Time>2021-08-12T08:59:03.000Z</Time>
            <Position>
              <LatitudeDegrees>43.30875816754996776580810546875</LatitudeDegrees>
              <LongitudeDegrees>-1.97883482091128826141357421875</LongitudeDegrees>
            </Position>
            <AltitudeMeters>4.400000095367431640625</AltitudeMeters>
            <DistanceMeters>NAN</DistanceMeters>
          </Trackpoint>
          <Trackpoint>
            <Time>2021-08-12T08:59:04.000Z</Time>
            <Position>
              <LatitudeDegrees>43.30878205597400665283203125</LatitudeDegrees>
              <LongitudeDegrees>-1.9788464717566967010498046875</LongitudeDegrees>
            </Position>
            <AltitudeMeters>4.400000095367431640625</AltitudeMeters>
            <DistanceMeters>NAN</DistanceMeters>
          </Trackpoint>
          <Trackpoint>
            <Time>2021-08-12T08:59:05.000Z</Time>
            <Position>
              <LatitudeDegrees>43.3088041841983795166015625</LatitudeDegrees>
              <LongitudeDegrees>-1.9788654148578643798828125</LongitudeDegrees>
            </Position>
            <AltitudeMeters>4.400000095367431640625</AltitudeMeters>
            <DistanceMeters>NAN</DistanceMeters>
          </Trackpoint>
          <Trackpoint>
            <Time>2021-08-12T08:59:06.000Z</Time>
            <Position>
              <LatitudeDegrees>43.30883377231657505035400390625</LatitudeDegrees>
              <LongitudeDegrees>-1.9788766466081142425537109375</LongitudeDegrees>
            </Position>
            <AltitudeMeters>4.400000095367431640625</AltitudeMeters>
            <DistanceMeters>NAN</DistanceMeters>
          </Trackpoint>
          <Trackpoint>
            <Time>2021-08-12T08:59:10.000Z</Time>
            <Position>
              <LatitudeDegrees>43.3089444972574710845947265625</LatitudeDegrees>
              <LongitudeDegrees>-1.97889802046120166778564453125</LongitudeDegrees>
            </Position>
            <AltitudeMeters>4.19999980926513671875</AltitudeMeters>
            <DistanceMeters>NAN</DistanceMeters>
          </Trackpoint>
          <Trackpoint>
            <Time>2021-08-12T08:59:16.000Z</Time>
            <Position>
              <LatitudeDegrees>43.3091506920754909515380859375</LatitudeDegrees>
              <LongitudeDegrees>-1.97898988611996173858642578125</LongitudeDegrees>
            </Position>
            <AltitudeMeters>4.19999980926513671875</AltitudeMeters>
            <DistanceMeters>NAN</DistanceMeters>
          </Trackpoint>
          <Trackpoint>
            <Time>2021-08-12T08:59:19.000Z</Time>
            <Position>
              <LatitudeDegrees>43.30928237177431583404541015625</LatitudeDegrees>
              <LongitudeDegrees>-1.97902156971395015716552734375</LongitudeDegrees>
            </Position>
            <AltitudeMeters>4.19999980926513671875</AltitudeMeters>
            <DistanceMeters>NAN</DistanceMeters>
          </Trackpoint>
          <Trackpoint>
            <Time>2021-08-12T08:59:20.000Z</Time>
            <Position>
              <LatitudeDegrees>43.30933148972690105438232421875</LatitudeDegrees>
              <LongitudeDegrees>-1.97901503182947635650634765625</LongitudeDegrees>
            </Position>
            <AltitudeMeters>4.19999980926513671875</AltitudeMeters>
            <DistanceMeters>NAN</DistanceMeters>
          </Trackpoint>
          <Trackpoint>
            <Time>2021-08-12T08:59:21.000Z</Time>
            <Position>
              <LatitudeDegrees>43.309383206069469451904296875</LatitudeDegrees>
              <LongitudeDegrees>-1.9790191389620304107666015625</LongitudeDegrees>
            </Position>
            <AltitudeMeters>4.19999980926513671875</AltitudeMeters>
            <DistanceMeters>NAN</DistanceMeters>
          </Trackpoint>
          <Trackpoint>
            <Time>2021-08-12T08:59:23.000Z</Time>
            <Position>
              <LatitudeDegrees>43.3094759099185466766357421875</LatitudeDegrees>
              <LongitudeDegrees>-1.97902676649391651153564453125</LongitudeDegrees>
            </Position>
            <AltitudeMeters>4.19999980926513671875</AltitudeMeters>
            <DistanceMeters>NAN</DistanceMeters>
          </Trackpoint>
          <Trackpoint>
            <Time>2021-08-12T08:59:24.000Z</Time>
            <Position>
              <LatitudeDegrees>43.30950633622705936431884765625</LatitudeDegrees>
              <LongitudeDegrees>-1.97903296910226345062255859375</LongitudeDegrees>
            </Position>
            <AltitudeMeters>4.19999980926513671875</AltitudeMeters>
            <DistanceMeters>NAN</DistanceMeters>
          </Trackpoint>
          <Trackpoint>
            <Time>2021-08-12T08:59:26.000Z</Time>
            <Position>
              <LatitudeDegrees>43.3095808513462543487548828125</LatitudeDegrees>
              <LongitudeDegrees>-1.97906129993498325347900390625</LongitudeDegrees>
            </Position>
            <AltitudeMeters>4.19999980926513671875</AltitudeMeters>
            <DistanceMeters>NAN</DistanceMeters>
          </Trackpoint>
          <Trackpoint>
            <Time>2021-08-12T08:59:27.000Z</Time>
            <Position>
              <LatitudeDegrees>43.3096157200634479522705078125</LatitudeDegrees>
              <LongitudeDegrees>-1.9790724478662014007568359375</LongitudeDegrees>
            </Position>
            <AltitudeMeters>4.400000095367431640625</AltitudeMeters>
            <DistanceMeters>NAN</DistanceMeters>
          </Trackpoint>
          <Trackpoint>
            <Time>2021-08-12T08:59:28.000Z</Time>
            <Position>
              <LatitudeDegrees>43.30965184606611728668212890625</LatitudeDegrees>
              <LongitudeDegrees>-1.979083009064197540283203125</LongitudeDegrees>
            </Position>
            <AltitudeMeters>4.400000095367431640625</AltitudeMeters>
            <DistanceMeters>NAN</DistanceMeters>
          </Trackpoint>
          <Trackpoint>
            <Time>2021-08-12T08:59:29.000Z</Time>
            <Position>
              <LatitudeDegrees>43.30967078916728496551513671875</LatitudeDegrees>
              <LongitudeDegrees>-1.9790949113667011260986328125</LongitudeDegrees>
            </Position>
            <AltitudeMeters>4.400000095367431640625</AltitudeMeters>
            <DistanceMeters>NAN</DistanceMeters>
          </Trackpoint>
          <Trackpoint>
            <Time>2021-08-12T08:59:30.000Z</Time>
            <Position>
              <LatitudeDegrees>43.30968839116394519805908203125</LatitudeDegrees>
              <LongitudeDegrees>-1.97910002432763576507568359375</LongitudeDegrees>
            </Position>
            <AltitudeMeters>4.400000095367431640625</AltitudeMeters>
            <DistanceMeters>NAN</DistanceMeters>
          </Trackpoint>
          <Trackpoint>
            <Time>2021-08-12T08:59:31.000Z</Time>
            <Position>
              <LatitudeDegrees>43.30970071256160736083984375</LatitudeDegrees>
              <LongitudeDegrees>-1.9791039638221263885498046875</LongitudeDegrees>
            </Position>
            <AltitudeMeters>4.400000095367431640625</AltitudeMeters>
            <DistanceMeters>NAN</DistanceMeters>
          </Trackpoint>
          <Trackpoint>
            <Time>2021-08-12T08:59:32.000Z</Time>
            <Position>
              <LatitudeDegrees>43.30971521325409412384033203125</LatitudeDegrees>
              <LongitudeDegrees>-1.9791059754788875579833984375</LongitudeDegrees>
            </Position>
            <AltitudeMeters>4.19999980926513671875</AltitudeMeters>
            <DistanceMeters>NAN</DistanceMeters>
          </Trackpoint>
          <Trackpoint>
            <Time>2021-08-12T08:59:33.000Z</Time>
            <Position>
              <LatitudeDegrees>43.30972057767212390899658203125</LatitudeDegrees>
              <LongitudeDegrees>-1.97910622693598270416259765625</LongitudeDegrees>
            </Position>
            <AltitudeMeters>4.19999980926513671875</AltitudeMeters>
            <DistanceMeters>NAN</DistanceMeters>
          </Trackpoint>
          <Trackpoint>
            <Time>2021-08-12T08:59:35.000Z</Time>
            <Position>
              <LatitudeDegrees>43.30972057767212390899658203125</LatitudeDegrees>
              <LongitudeDegrees>-1.97910622693598270416259765625</LongitudeDegrees>
            </Position>
            <AltitudeMeters>4.19999980926513671875</AltitudeMeters>
            <DistanceMeters>NAN</DistanceMeters>
          </Trackpoint>
          <Trackpoint>
            <Time>2021-08-12T09:00:05.000Z</Time>
            <Position>
              <LatitudeDegrees>43.3097260259091854095458984375</LatitudeDegrees>
              <LongitudeDegrees>-1.97910522110760211944580078125</LongitudeDegrees>
            </Position>
            <AltitudeMeters>4</AltitudeMeters>
            <DistanceMeters>NAN</DistanceMeters>
          </Trackpoint>
          <Trackpoint>
            <Time>2021-08-12T09:00:08.000Z</Time>
            <Position>
              <LatitudeDegrees>43.3098366670310497283935546875</LatitudeDegrees>
              <LongitudeDegrees>-1.97910572402179241180419921875</LongitudeDegrees>
            </Position>
            <AltitudeMeters>4</AltitudeMeters>
            <DistanceMeters>NAN</DistanceMeters>
          </Trackpoint>
          <Trackpoint>
            <Time>2021-08-12T09:00:13.000Z</Time>
            <Position>
              <LatitudeDegrees>43.30998980440199375152587890625</LatitudeDegrees>
              <LongitudeDegrees>-1.979137323796749114990234375</LongitudeDegrees>
            </Position>
            <AltitudeMeters>4</AltitudeMeters>
            <DistanceMeters>NAN</DistanceMeters>
          </Trackpoint>
          <Trackpoint>
            <Time>2021-08-12T09:00:18.000Z</Time>
            <Position>
              <LatitudeDegrees>43.31016113050282001495361328125</LatitudeDegrees>
              <LongitudeDegrees>-1.9791529141366481781005859375</LongitudeDegrees>
            </Position>
            <AltitudeMeters>4.19999980926513671875</AltitudeMeters>
            <DistanceMeters>NAN</DistanceMeters>
          </Trackpoint>
          <Trackpoint>
            <Time>2021-08-12T09:00:19.000Z</Time>
            <Position>
              <LatitudeDegrees>43.31018845550715923309326171875</LatitudeDegrees>
              <LongitudeDegrees>-1.9791666604578495025634765625</LongitudeDegrees>
            </Position>
            <AltitudeMeters>4.19999980926513671875</AltitudeMeters>
            <DistanceMeters>NAN</DistanceMeters>
          </Trackpoint>
          <Trackpoint>
            <Time>2021-08-12T09:00:25.000Z</Time>
            <Position>
              <LatitudeDegrees>43.31039808690547943115234375</LatitudeDegrees>
              <LongitudeDegrees>-1.979214437305927276611328125</LongitudeDegrees>
            </Position>
            <AltitudeMeters>4.19999980926513671875</AltitudeMeters>
            <DistanceMeters>NAN</DistanceMeters>
          </Trackpoint>
          <Trackpoint>
            <Time>2021-08-12T09:00:30.000Z</Time>
            <Position>
              <LatitudeDegrees>43.31052607856690883636474609375</LatitudeDegrees>
              <LongitudeDegrees>-1.9792551733553409576416015625</LongitudeDegrees>
            </Position>
            <AltitudeMeters>4.19999980926513671875</AltitudeMeters>
            <DistanceMeters>NAN</DistanceMeters>
          </Trackpoint>
          <Trackpoint>
            <Time>2021-08-12T09:00:31.000Z</Time>
            <Position>
              <LatitudeDegrees>43.310553319752216339111328125</LatitudeDegrees>
              <LongitudeDegrees>-1.97927118279039859771728515625</LongitudeDegrees>
            </Position>
            <AltitudeMeters>4.19999980926513671875</AltitudeMeters>
            <DistanceMeters>NAN</DistanceMeters>
          </Trackpoint>
          <Trackpoint>
            <Time>2021-08-12T09:00:32.000Z</Time>
            <Position>
              <LatitudeDegrees>43.31058450043201446533203125</LatitudeDegrees>
              <LongitudeDegrees>-1.9792712666094303131103515625</LongitudeDegrees>
            </Position>
            <AltitudeMeters>4.19999980926513671875</AltitudeMeters>
            <DistanceMeters>NAN</DistanceMeters>
          </Trackpoint>
          <Trackpoint>
            <Time>2021-08-12T09:00:33.000Z</Time>
            <Position>
              <LatitudeDegrees>43.31061241216957569122314453125</LatitudeDegrees>
              <LongitudeDegrees>-1.979272104799747467041015625</LongitudeDegrees>
            </Position>
            <AltitudeMeters>4.19999980926513671875</AltitudeMeters>
            <DistanceMeters>NAN</DistanceMeters>
          </Trackpoint>
          <Trackpoint>
            <Time>2021-08-12T09:00:34.000Z</Time>
            <Position>
              <LatitudeDegrees>43.31064543686807155609130859375</LatitudeDegrees>
              <LongitudeDegrees>-1.97927109897136688232421875</LongitudeDegrees>
            </Position>
            <AltitudeMeters>4.19999980926513671875</AltitudeMeters>
            <DistanceMeters>NAN</DistanceMeters>
          </Trackpoint>
          <Trackpoint>
            <Time>2021-08-12T09:00:35.000Z</Time>
            <Position>
              <LatitudeDegrees>43.310672342777252197265625</LatitudeDegrees>
              <LongitudeDegrees>-1.97927839122712612152099609375</LongitudeDegrees>
            </Position>
            <AltitudeMeters>4</AltitudeMeters>
            <DistanceMeters>NAN</DistanceMeters>
          </Trackpoint>
          <Trackpoint>
            <Time>2021-08-12T09:00:36.000Z</Time>
            <Position>
              <LatitudeDegrees>43.3106949739158153533935546875</LatitudeDegrees>
              <LongitudeDegrees>-1.97928610257804393768310546875</LongitudeDegrees>
            </Position>
            <AltitudeMeters>4</AltitudeMeters>
            <DistanceMeters>NAN</DistanceMeters>
          </Trackpoint>
          <Trackpoint>
            <Time>2021-08-12T09:00:37.000Z</Time>
            <Position>
              <LatitudeDegrees>43.31071534194052219390869140625</LatitudeDegrees>
              <LongitudeDegrees>-1.97929632849991321563720703125</LongitudeDegrees>
            </Position>
            <AltitudeMeters>4</AltitudeMeters>
            <DistanceMeters>NAN</DistanceMeters>
          </Trackpoint>
          <Trackpoint>
            <Time>2021-08-12T09:00:38.000Z</Time>
            <Position>
              <LatitudeDegrees>43.31073646433651447296142578125</LatitudeDegrees>
              <LongitudeDegrees>-1.9793044589459896087646484375</LongitudeDegrees>
            </Position>
            <AltitudeMeters>4</AltitudeMeters>
            <DistanceMeters>NAN</DistanceMeters>
          </Trackpoint>
          <Trackpoint>
            <Time>2021-08-12T09:00:39.000Z</Time>
            <Position>
              <LatitudeDegrees>43.31075909547507762908935546875</LatitudeDegrees>
              <LongitudeDegrees>-1.97931543923914432525634765625</LongitudeDegrees>
            </Position>
            <AltitudeMeters>4</AltitudeMeters>
            <DistanceMeters>NAN</DistanceMeters>
          </Trackpoint>
          <Trackpoint>
            <Time>2021-08-12T09:00:40.000Z</Time>
            <Position>
              <LatitudeDegrees>43.31078759394586086273193359375</LatitudeDegrees>
              <LongitudeDegrees>-1.9793245755136013031005859375</LongitudeDegrees>
            </Position>
            <AltitudeMeters>4</AltitudeMeters>
            <DistanceMeters>NAN</DistanceMeters>
          </Trackpoint>
          <Trackpoint>
            <Time>2021-08-12T09:00:42.000Z</Time>
            <Position>
              <LatitudeDegrees>43.31085967831313610076904296875</LatitudeDegrees>
              <LongitudeDegrees>-1.9793319515883922576904296875</LongitudeDegrees>
            </Position>
            <AltitudeMeters>4</AltitudeMeters>
            <DistanceMeters>NAN</DistanceMeters>
          </Trackpoint>
          <Trackpoint>
            <Time>2021-08-12T09:00:45.000Z</Time>
            <Position>
              <LatitudeDegrees>43.3109638653695583343505859375</LatitudeDegrees>
              <LongitudeDegrees>-1.97935030795633792877197265625</LongitudeDegrees>
            </Position>
            <AltitudeMeters>4.19999980926513671875</AltitudeMeters>
            <DistanceMeters>NAN</DistanceMeters>
          </Trackpoint>
          <Trackpoint>
            <Time>2021-08-12T09:00:46.000Z</Time>
            <Position>
              <LatitudeDegrees>43.31099345348775386810302734375</LatitudeDegrees>
              <LongitudeDegrees>-1.97935952804982662200927734375</LongitudeDegrees>
            </Position>
            <AltitudeMeters>4.19999980926513671875</AltitudeMeters>
            <DistanceMeters>NAN</DistanceMeters>
          </Trackpoint>
          <Trackpoint>
            <Time>2021-08-12T09:00:47.000Z</Time>
            <Position>
              <LatitudeDegrees>43.31102647818624973297119140625</LatitudeDegrees>
              <LongitudeDegrees>-1.97936405427753925323486328125</LongitudeDegrees>
            </Position>
            <AltitudeMeters>4.19999980926513671875</AltitudeMeters>
            <DistanceMeters>NAN</DistanceMeters>
          </Trackpoint>
          <Trackpoint>
            <Time>2021-08-12T09:00:48.000Z</Time>
            <Position>
              <LatitudeDegrees>43.3110550604760646820068359375</LatitudeDegrees>
              <LongitudeDegrees>-1.9793705083429813385009765625</LongitudeDegrees>
            </Position>
            <AltitudeMeters>4.19999980926513671875</AltitudeMeters>
            <DistanceMeters>NAN</DistanceMeters>
          </Trackpoint>
          <Trackpoint>
            <Time>2021-08-12T09:00:49.000Z</Time>
            <Position>
              <LatitudeDegrees>43.31107534468173980712890625</LatitudeDegrees>
              <LongitudeDegrees>-1.97938098572194576263427734375</LongitudeDegrees>
            </Position>
            <AltitudeMeters>4.19999980926513671875</AltitudeMeters>
            <DistanceMeters>NAN</DistanceMeters>
          </Trackpoint>
          <Trackpoint>
            <Time>2021-08-12T09:00:50.000Z</Time>
            <Position>
              <LatitudeDegrees>43.311096131801605224609375</LatitudeDegrees>
              <LongitudeDegrees>-1.97938911616802215576171875</LongitudeDegrees>
            </Position>
            <AltitudeMeters>4.19999980926513671875</AltitudeMeters>
            <DistanceMeters>NAN</DistanceMeters>
          </Trackpoint>
          <Trackpoint>
            <Time>2021-08-12T09:00:51.000Z</Time>
            <Position>
              <LatitudeDegrees>43.31111381761729717254638671875</LatitudeDegrees>
              <LongitudeDegrees>-1.9793911278247833251953125</LongitudeDegrees>
            </Position>
            <AltitudeMeters>4.19999980926513671875</AltitudeMeters>
            <DistanceMeters>NAN</DistanceMeters>
          </Trackpoint>
          <Trackpoint>
            <Time>2021-08-12T09:00:52.000Z</Time>
            <Position>
              <LatitudeDegrees>43.31113024614751338958740234375</LatitudeDegrees>
              <LongitudeDegrees>-1.9793923012912273406982421875</LongitudeDegrees>
            </Position>
            <AltitudeMeters>4.19999980926513671875</AltitudeMeters>
            <DistanceMeters>NAN</DistanceMeters>
          </Trackpoint>
          <Trackpoint>
            <Time>2021-08-12T09:00:53.000Z</Time>
            <Position>
              <LatitudeDegrees>43.311149775981903076171875</LatitudeDegrees>
              <LongitudeDegrees>-1.9793896190822124481201171875</LongitudeDegrees>
            </Position>
            <AltitudeMeters>4.19999980926513671875</AltitudeMeters>
            <DistanceMeters>NAN</DistanceMeters>
          </Trackpoint>
          <Trackpoint>
            <Time>2021-08-12T09:00:55.000Z</Time>
            <Position>
              <LatitudeDegrees>43.3111781068146228790283203125</LatitudeDegrees>
              <LongitudeDegrees>-1.979408897459506988525390625</LongitudeDegrees>
            </Position>
            <AltitudeMeters>4.19999980926513671875</AltitudeMeters>
            <DistanceMeters>NAN</DistanceMeters>
          </Trackpoint>
          <Trackpoint>
            <Time>2021-08-12T09:00:56.000Z</Time>
            <Position>
              <LatitudeDegrees>43.3111871592700481414794921875</LatitudeDegrees>
              <LongitudeDegrees>-1.97942524217069149017333984375</LongitudeDegrees>
            </Position>
            <AltitudeMeters>4.19999980926513671875</AltitudeMeters>
            <DistanceMeters>NAN</DistanceMeters>
          </Trackpoint>
          <Trackpoint>
            <Time>2021-08-12T09:00:57.000Z</Time>
            <Position>
              <LatitudeDegrees>43.31119294278323650360107421875</LatitudeDegrees>
              <LongitudeDegrees>-1.97944150306284427642822265625</LongitudeDegrees>
            </Position>
            <AltitudeMeters>4.19999980926513671875</AltitudeMeters>
            <DistanceMeters>NAN</DistanceMeters>
          </Trackpoint>
          <Trackpoint>
            <Time>2021-08-12T09:00:58.000Z</Time>
            <Position>
              <LatitudeDegrees>43.3111988939344882965087890625</LatitudeDegrees>
              <LongitudeDegrees>-1.97946111671626567840576171875</LongitudeDegrees>
            </Position>
            <AltitudeMeters>4.19999980926513671875</AltitudeMeters>
            <DistanceMeters>NAN</DistanceMeters>
          </Trackpoint>
          <Trackpoint>
            <Time>2021-08-12T09:00:59.000Z</Time>
            <Position>
              <LatitudeDegrees>43.31120870076119899749755859375</LatitudeDegrees>
              <LongitudeDegrees>-1.97948475368320941925048828125</LongitudeDegrees>
            </Position>
            <AltitudeMeters>4.19999980926513671875</AltitudeMeters>
            <DistanceMeters>NAN</DistanceMeters>
          </Trackpoint>
          <Trackpoint>
            <Time>2021-08-12T09:01:00.000Z</Time>
            <Position>
              <LatitudeDegrees>43.31121750175952911376953125</LatitudeDegrees>
              <LongitudeDegrees>-1.97950487025082111358642578125</LongitudeDegrees>
            </Position>
            <AltitudeMeters>4.19999980926513671875</AltitudeMeters>
            <DistanceMeters>NAN</DistanceMeters>
          </Trackpoint>
          <Trackpoint>
            <Time>2021-08-12T09:01:03.000Z</Time>
            <Position>
              <LatitudeDegrees>43.311252035200595855712890625</LatitudeDegrees>
              <LongitudeDegrees>-1.97957913391292095184326171875</LongitudeDegrees>
            </Position>
            <AltitudeMeters>4.19999980926513671875</AltitudeMeters>
            <DistanceMeters>NAN</DistanceMeters>
          </Trackpoint>
          <Trackpoint>
            <Time>2021-08-12T09:01:04.000Z</Time>
            <Position>
              <LatitudeDegrees>43.31125480122864246368408203125</LatitudeDegrees>
              <LongitudeDegrees>-1.97961232624948024749755859375</LongitudeDegrees>
            </Position>
            <AltitudeMeters>4.19999980926513671875</AltitudeMeters>
            <DistanceMeters>NAN</DistanceMeters>
          </Trackpoint>
          <Trackpoint>
            <Time>2021-08-12T09:01:05.000Z</Time>
            <Position>
              <LatitudeDegrees>43.31125480122864246368408203125</LatitudeDegrees>
              <LongitudeDegrees>-1.9796464405953884124755859375</LongitudeDegrees>
            </Position>
            <AltitudeMeters>4.19999980926513671875</AltitudeMeters>
            <DistanceMeters>NAN</DistanceMeters>
          </Trackpoint>
          <Trackpoint>
            <Time>2021-08-12T09:01:06.000Z</Time>
            <Position>
              <LatitudeDegrees>43.31125563941895961761474609375</LatitudeDegrees>
              <LongitudeDegrees>-1.97967669926583766937255859375</LongitudeDegrees>
            </Position>
            <AltitudeMeters>4.19999980926513671875</AltitudeMeters>
            <DistanceMeters>NAN</DistanceMeters>
          </Trackpoint>
          <Trackpoint>
            <Time>2021-08-12T09:01:07.000Z</Time>
            <Position>
              <LatitudeDegrees>43.311256058514118194580078125</LatitudeDegrees>
              <LongitudeDegrees>-1.97971877641975879669189453125</LongitudeDegrees>
            </Position>
            <AltitudeMeters>4.19999980926513671875</AltitudeMeters>
            <DistanceMeters>NAN</DistanceMeters>
          </Trackpoint>
          <Trackpoint>
            <Time>2021-08-12T09:01:09.000Z</Time>
            <Position>
              <LatitudeDegrees>43.31124239601194858551025390625</LatitudeDegrees>
              <LongitudeDegrees>-1.9797852449119091033935546875</LongitudeDegrees>
            </Position>
            <AltitudeMeters>4.19999980926513671875</AltitudeMeters>
            <DistanceMeters>NAN</DistanceMeters>
          </Trackpoint>
          <Trackpoint>
            <Time>2021-08-12T09:01:10.000Z</Time>
            <Position>
              <LatitudeDegrees>43.31124164164066314697265625</LatitudeDegrees>
              <LongitudeDegrees>-1.97982170619070529937744140625</LongitudeDegrees>
            </Position>
            <AltitudeMeters>4.19999980926513671875</AltitudeMeters>
            <DistanceMeters>NAN</DistanceMeters>
          </Trackpoint>
          <Trackpoint>
            <Time>2021-08-12T09:01:11.000Z</Time>
            <Position>
              <LatitudeDegrees>43.31124222837388515472412109375</LatitudeDegrees>
              <LongitudeDegrees>-1.9798539765179157257080078125</LongitudeDegrees>
            </Position>
            <AltitudeMeters>4.400000095367431640625</AltitudeMeters>
            <DistanceMeters>NAN</DistanceMeters>
          </Trackpoint>
          <Trackpoint>
            <Time>2021-08-12T09:01:12.000Z</Time>
            <Position>
              <LatitudeDegrees>43.31123485229909420013427734375</LatitudeDegrees>
              <LongitudeDegrees>-1.97988172061741352081298828125</LongitudeDegrees>
            </Position>
            <AltitudeMeters>4.400000095367431640625</AltitudeMeters>
            <DistanceMeters>NAN</DistanceMeters>
          </Trackpoint>
          <Trackpoint>
            <Time>2021-08-12T09:01:13.000Z</Time>
            <Position>
              <LatitudeDegrees>43.31122647039592266082763671875</LatitudeDegrees>
              <LongitudeDegrees>-1.9799079559743404388427734375</LongitudeDegrees>
            </Position>
            <AltitudeMeters>4.400000095367431640625</AltitudeMeters>
            <DistanceMeters>NAN</DistanceMeters>
          </Trackpoint>
          <Trackpoint>
            <Time>2021-08-12T09:01:16.000Z</Time>
            <Position>
              <LatitudeDegrees>43.3112139813601970672607421875</LatitudeDegrees>
              <LongitudeDegrees>-1.9800058566033840179443359375</LongitudeDegrees>
            </Position>
            <AltitudeMeters>4.400000095367431640625</AltitudeMeters>
            <DistanceMeters>NAN</DistanceMeters>
          </Trackpoint>
          <Trackpoint>
            <Time>2021-08-12T09:01:17.000Z</Time>
            <Position>
              <LatitudeDegrees>43.31121339462697505950927734375</LatitudeDegrees>
              <LongitudeDegrees>-1.9800377078354358673095703125</LongitudeDegrees>
            </Position>
            <AltitudeMeters>4.400000095367431640625</AltitudeMeters>
            <DistanceMeters>NAN</DistanceMeters>
          </Trackpoint>
          <Trackpoint>
            <Time>2021-08-12T09:01:18.000Z</Time>
            <Position>
              <LatitudeDegrees>43.31121624447405338287353515625</LatitudeDegrees>
              <LongitudeDegrees>-1.98007081635296344757080078125</LongitudeDegrees>
            </Position>
            <AltitudeMeters>4.400000095367431640625</AltitudeMeters>
            <DistanceMeters>NAN</DistanceMeters>
          </Trackpoint>
          <Trackpoint>
            <Time>2021-08-12T09:01:19.000Z</Time>
            <Position>
              <LatitudeDegrees>43.31121758557856082916259765625</LatitudeDegrees>
              <LongitudeDegrees>-1.980103589594364166259765625</LongitudeDegrees>
            </Position>
            <AltitudeMeters>4.400000095367431640625</AltitudeMeters>
            <DistanceMeters>NAN</DistanceMeters>
          </Trackpoint>
          <Trackpoint>
            <Time>2021-08-12T09:01:20.000Z</Time>
            <Position>
              <LatitudeDegrees>43.31121976487338542938232421875</LatitudeDegrees>
              <LongitudeDegrees>-1.98013183660805225372314453125</LongitudeDegrees>
            </Position>
            <AltitudeMeters>4.400000095367431640625</AltitudeMeters>
            <DistanceMeters>NAN</DistanceMeters>
          </Trackpoint>
          <Trackpoint>
            <Time>2021-08-12T09:01:21.000Z</Time>
            <Position>
              <LatitudeDegrees>43.31122278235852718353271484375</LatitudeDegrees>
              <LongitudeDegrees>-1.9801563955843448638916015625</LongitudeDegrees>
            </Position>
            <AltitudeMeters>4.400000095367431640625</AltitudeMeters>
            <DistanceMeters>NAN</DistanceMeters>
          </Trackpoint>
          <Trackpoint>
            <Time>2021-08-12T09:01:22.000Z</Time>
            <Position>
              <LatitudeDegrees>43.31122554838657379150390625</LatitudeDegrees>
              <LongitudeDegrees>-1.98017768561840057373046875</LongitudeDegrees>
            </Position>
            <AltitudeMeters>4.400000095367431640625</AltitudeMeters>
            <DistanceMeters>NAN</DistanceMeters>
          </Trackpoint>
          <Trackpoint>
            <Time>2021-08-12T09:01:23.000Z</Time>
            <Position>
              <LatitudeDegrees>43.311227224767208099365234375</LatitudeDegrees>
              <LongitudeDegrees>-1.9802016578614711761474609375</LongitudeDegrees>
            </Position>
            <AltitudeMeters>4.400000095367431640625</AltitudeMeters>
            <DistanceMeters>NAN</DistanceMeters>
          </Trackpoint>
          <Trackpoint>
            <Time>2021-08-12T09:01:25.000Z</Time>
            <Position>
              <LatitudeDegrees>43.3112317509949207305908203125</LatitudeDegrees>
              <LongitudeDegrees>-1.98023778386414051055908203125</LongitudeDegrees>
            </Position>
            <AltitudeMeters>4.400000095367431640625</AltitudeMeters>
            <DistanceMeters>NAN</DistanceMeters>
          </Trackpoint>
          <Trackpoint>
            <Time>2021-08-12T09:01:26.000Z</Time>
            <Position>
              <LatitudeDegrees>43.311230577528476715087890625</LatitudeDegrees>
              <LongitudeDegrees>-1.98024331592023372650146484375</LongitudeDegrees>
            </Position>
            <AltitudeMeters>4.400000095367431640625</AltitudeMeters>
            <DistanceMeters>NAN</DistanceMeters>
          </Trackpoint>
          <Trackpoint>
            <Time>2021-08-12T09:01:27.000Z</Time>
            <Position>
              <LatitudeDegrees>43.311230577528476715087890625</LatitudeDegrees>
              <LongitudeDegrees>-1.98024331592023372650146484375</LongitudeDegrees>
            </Position>
            <AltitudeMeters>4.400000095367431640625</AltitudeMeters>
            <DistanceMeters>NAN</DistanceMeters>
          </Trackpoint>
          <Trackpoint>
            <Time>2021-08-12T09:01:54.000Z</Time>
            <Position>
              <LatitudeDegrees>43.31123501993715763092041015625</LatitudeDegrees>
              <LongitudeDegrees>-1.98032747022807598114013671875</LongitudeDegrees>
            </Position>
            <AltitudeMeters>4</AltitudeMeters>
            <DistanceMeters>NAN</DistanceMeters>
          </Trackpoint>
          <Trackpoint>
            <Time>2021-08-12T09:01:56.000Z</Time>
            <Position>
              <LatitudeDegrees>43.31124541349709033966064453125</LatitudeDegrees>
              <LongitudeDegrees>-1.9803884066641330718994140625</LongitudeDegrees>
            </Position>
            <AltitudeMeters>4</AltitudeMeters>
            <DistanceMeters>NAN</DistanceMeters>
          </Trackpoint>
          <Trackpoint>
            <Time>2021-08-12T09:01:58.000Z</Time>
            <Position>
              <LatitudeDegrees>43.31127877347171306610107421875</LatitudeDegrees>
              <LongitudeDegrees>-1.9804232753813266754150390625</LongitudeDegrees>
            </Position>
            <AltitudeMeters>4</AltitudeMeters>
            <DistanceMeters>NAN</DistanceMeters>
          </Trackpoint>
          <Trackpoint>
            <Time>2021-08-12T09:01:59.000Z</Time>
            <Position>
              <LatitudeDegrees>43.3112961240112781524658203125</LatitudeDegrees>
              <LongitudeDegrees>-1.9804470799863338470458984375</LongitudeDegrees>
            </Position>
            <AltitudeMeters>4</AltitudeMeters>
            <DistanceMeters>NAN</DistanceMeters>
          </Trackpoint>
          <Trackpoint>
            <Time>2021-08-12T09:02:00.000Z</Time>
            <Position>
              <LatitudeDegrees>43.31131272017955780029296875</LatitudeDegrees>
              <LongitudeDegrees>-1.98046267032623291015625</LongitudeDegrees>
            </Position>
            <AltitudeMeters>4</AltitudeMeters>
            <DistanceMeters>NAN</DistanceMeters>
          </Trackpoint>
          <Trackpoint>
            <Time>2021-08-12T09:02:01.000Z</Time>
            <Position>
              <LatitudeDegrees>43.31133141182363033294677734375</LatitudeDegrees>
              <LongitudeDegrees>-1.98047130368649959564208984375</LongitudeDegrees>
            </Position>
            <AltitudeMeters>4</AltitudeMeters>
            <DistanceMeters>NAN</DistanceMeters>
          </Trackpoint>
          <Trackpoint>
            <Time>2021-08-12T09:02:02.000Z</Time>
            <Position>
              <LatitudeDegrees>43.31135286949574947357177734375</LatitudeDegrees>
              <LongitudeDegrees>-1.98047633282840251922607421875</LongitudeDegrees>
            </Position>
            <AltitudeMeters>4</AltitudeMeters>
            <DistanceMeters>NAN</DistanceMeters>
          </Trackpoint>
          <Trackpoint>
            <Time>2021-08-12T09:02:03.000Z</Time>
            <Position>
              <LatitudeDegrees>43.3113718964159488677978515625</LatitudeDegrees>
              <LongitudeDegrees>-1.98047784157097339630126953125</LongitudeDegrees>
            </Position>
            <AltitudeMeters>4</AltitudeMeters>
            <DistanceMeters>NAN</DistanceMeters>
          </Trackpoint>
          <Trackpoint>
            <Time>2021-08-12T09:02:04.000Z</Time>
            <Position>
              <LatitudeDegrees>43.31139327026903629302978515625</LatitudeDegrees>
              <LongitudeDegrees>-1.98048102669417858123779296875</LongitudeDegrees>
            </Position>
            <AltitudeMeters>4</AltitudeMeters>
            <DistanceMeters>NAN</DistanceMeters>
          </Trackpoint>
          <Trackpoint>
            <Time>2021-08-12T09:02:06.000Z</Time>
            <Position>
              <LatitudeDegrees>43.31144121475517749786376953125</LatitudeDegrees>
              <LongitudeDegrees>-1.98048069141805171966552734375</LongitudeDegrees>
            </Position>
            <AltitudeMeters>4.19999980926513671875</AltitudeMeters>
            <DistanceMeters>NAN</DistanceMeters>
          </Trackpoint>
          <Trackpoint>
            <Time>2021-08-12T09:02:09.000Z</Time>
            <Position>
              <LatitudeDegrees>43.3115438930690288543701171875</LatitudeDegrees>
              <LongitudeDegrees>-1.98050432838499546051025390625</LongitudeDegrees>
            </Position>
            <AltitudeMeters>4.19999980926513671875</AltitudeMeters>
            <DistanceMeters>NAN</DistanceMeters>
          </Trackpoint>
          <Trackpoint>
            <Time>2021-08-12T09:02:11.000Z</Time>
            <Position>
              <LatitudeDegrees>43.3116039074957370758056640625</LatitudeDegrees>
              <LongitudeDegrees>-1.9805251993238925933837890625</LongitudeDegrees>
            </Position>
            <AltitudeMeters>4.19999980926513671875</AltitudeMeters>
            <DistanceMeters>NAN</DistanceMeters>
          </Trackpoint>
          <Trackpoint>
            <Time>2021-08-12T09:02:17.000Z</Time>
            <Position>
              <LatitudeDegrees>43.31179275177419185638427734375</LatitudeDegrees>
              <LongitudeDegrees>-1.98057406581938266754150390625</LongitudeDegrees>
            </Position>
            <AltitudeMeters>4.19999980926513671875</AltitudeMeters>
            <DistanceMeters>NAN</DistanceMeters>
          </Trackpoint>
          <Trackpoint>
            <Time>2021-08-12T09:02:19.000Z</Time>
            <Position>
              <LatitudeDegrees>43.3118513412773609161376953125</LatitudeDegrees>
              <LongitudeDegrees>-1.98058940470218658447265625</LongitudeDegrees>
            </Position>
            <AltitudeMeters>4.19999980926513671875</AltitudeMeters>
            <DistanceMeters>NAN</DistanceMeters>
          </Trackpoint>
          <Trackpoint>
            <Time>2021-08-12T09:02:20.000Z</Time>
            <Position>
              <LatitudeDegrees>43.311868607997894287109375</LatitudeDegrees>
              <LongitudeDegrees>-1.98059569112956523895263671875</LongitudeDegrees>
            </Position>
            <AltitudeMeters>4.19999980926513671875</AltitudeMeters>
            <DistanceMeters>NAN</DistanceMeters>
          </Trackpoint>
          <Trackpoint>
            <Time>2021-08-12T09:02:21.000Z</Time>
            <Position>
              <LatitudeDegrees>43.31188612617552280426025390625</LatitudeDegrees>
              <LongitudeDegrees>-1.98060340248048305511474609375</LongitudeDegrees>
            </Position>
            <AltitudeMeters>4.19999980926513671875</AltitudeMeters>
            <DistanceMeters>NAN</DistanceMeters>
          </Trackpoint>
          <Trackpoint>
            <Time>2021-08-12T09:02:22.000Z</Time>
            <Position>
              <LatitudeDegrees>43.311906494200229644775390625</LatitudeDegrees>
              <LongitudeDegrees>-1.9806080125272274017333984375</LongitudeDegrees>
            </Position>
            <AltitudeMeters>4.19999980926513671875</AltitudeMeters>
            <DistanceMeters>NAN</DistanceMeters>
          </Trackpoint>
          <Trackpoint>
            <Time>2021-08-12T09:02:23.000Z</Time>
            <Position>
              <LatitudeDegrees>43.31192233599722385406494140625</LatitudeDegrees>
              <LongitudeDegrees>-1.98061211965978145599365234375</LongitudeDegrees>
            </Position>
            <AltitudeMeters>4</AltitudeMeters>
            <DistanceMeters>NAN</DistanceMeters>
          </Trackpoint>
          <Trackpoint>
            <Time>2021-08-12T09:02:24.000Z</Time>
            <Position>
              <LatitudeDegrees>43.31193692050874233245849609375</LatitudeDegrees>
              <LongitudeDegrees>-1.98062284849584102630615234375</LongitudeDegrees>
            </Position>
            <AltitudeMeters>4.19999980926513671875</AltitudeMeters>
            <DistanceMeters>NAN</DistanceMeters>
          </Trackpoint>
          <Trackpoint>
            <Time>2021-08-12T09:02:26.000Z</Time>
            <Position>
              <LatitudeDegrees>43.3119633235037326812744140625</LatitudeDegrees>
              <LongitudeDegrees>-1.980641372501850128173828125</LongitudeDegrees>
            </Position>
            <AltitudeMeters>4.19999980926513671875</AltitudeMeters>
            <DistanceMeters>NAN</DistanceMeters>
          </Trackpoint>
          <Trackpoint>
            <Time>2021-08-12T09:02:27.000Z</Time>
            <Position>
              <LatitudeDegrees>43.31197254359722137451171875</LatitudeDegrees>
              <LongitudeDegrees>-1.98065067641437053680419921875</LongitudeDegrees>
            </Position>
            <AltitudeMeters>4.19999980926513671875</AltitudeMeters>
            <DistanceMeters>NAN</DistanceMeters>
          </Trackpoint>
          <Trackpoint>
            <Time>2021-08-12T09:02:28.000Z</Time>
            <Position>
              <LatitudeDegrees>43.31197581253945827484130859375</LatitudeDegrees>
              <LongitudeDegrees>-1.98065520264208316802978515625</LongitudeDegrees>
            </Position>
            <AltitudeMeters>4.19999980926513671875</AltitudeMeters>
            <DistanceMeters>NAN</DistanceMeters>
          </Trackpoint>
          <Trackpoint>
            <Time>2021-08-12T09:02:35.000Z</Time>
            <Position>
              <LatitudeDegrees>43.31197581253945827484130859375</LatitudeDegrees>
              <LongitudeDegrees>-1.98065520264208316802978515625</LongitudeDegrees>
            </Position>
            <AltitudeMeters>4.19999980926513671875</AltitudeMeters>
            <DistanceMeters>NAN</DistanceMeters>
          </Trackpoint>
          <Trackpoint>
            <Time>2021-08-12T09:02:50.000Z</Time>
            <Position>
              <LatitudeDegrees>43.31197815947234630584716796875</LatitudeDegrees>
              <LongitudeDegrees>-1.98065704666078090667724609375</LongitudeDegrees>
            </Position>
            <AltitudeMeters>4</AltitudeMeters>
            <DistanceMeters>NAN</DistanceMeters>
          </Trackpoint>
          <Trackpoint>
            <Time>2021-08-12T09:02:52.000Z</Time>
            <Position>
              <LatitudeDegrees>43.31201839260756969451904296875</LatitudeDegrees>
              <LongitudeDegrees>-1.98067531920969486236572265625</LongitudeDegrees>
            </Position>
            <AltitudeMeters>4</AltitudeMeters>
            <DistanceMeters>NAN</DistanceMeters>
          </Trackpoint>
          <Trackpoint>
            <Time>2021-08-12T09:02:55.000Z</Time>
            <Position>
              <LatitudeDegrees>43.31207622773945331573486328125</LatitudeDegrees>
              <LongitudeDegrees>-1.98070398531854152679443359375</LongitudeDegrees>
            </Position>
            <AltitudeMeters>4</AltitudeMeters>
            <DistanceMeters>NAN</DistanceMeters>
          </Trackpoint>
          <Trackpoint>
            <Time>2021-08-12T09:02:58.000Z</Time>
            <Position>
              <LatitudeDegrees>43.31215501762926578521728515625</LatitudeDegrees>
              <LongitudeDegrees>-1.98073416016995906829833984375</LongitudeDegrees>
            </Position>
            <AltitudeMeters>4</AltitudeMeters>
            <DistanceMeters>NAN</DistanceMeters>
          </Trackpoint>
          <Trackpoint>
            <Time>2021-08-12T09:03:03.000Z</Time>
            <Position>
              <LatitudeDegrees>43.31231662072241306304931640625</LatitudeDegrees>
              <LongitudeDegrees>-1.98081127367913722991943359375</LongitudeDegrees>
            </Position>
            <AltitudeMeters>4.19999980926513671875</AltitudeMeters>
            <DistanceMeters>NAN</DistanceMeters>
          </Trackpoint>
          <Trackpoint>
            <Time>2021-08-12T09:03:05.000Z</Time>
            <Position>
              <LatitudeDegrees>43.31238015554845333099365234375</LatitudeDegrees>
              <LongitudeDegrees>-1.98084731586277484893798828125</LongitudeDegrees>
            </Position>
            <AltitudeMeters>4.19999980926513671875</AltitudeMeters>
            <DistanceMeters>NAN</DistanceMeters>
          </Trackpoint>
          <Trackpoint>
            <Time>2021-08-12T09:03:12.000Z</Time>
            <Position>
              <LatitudeDegrees>43.31257872283458709716796875</LatitudeDegrees>
              <LongitudeDegrees>-1.980965249240398406982421875</LongitudeDegrees>
            </Position>
            <AltitudeMeters>4.19999980926513671875</AltitudeMeters>
            <DistanceMeters>NAN</DistanceMeters>
          </Trackpoint>
          <Trackpoint>
            <Time>2021-08-12T09:03:13.000Z</Time>
            <Position>
              <LatitudeDegrees>43.31260562874376773834228515625</LatitudeDegrees>
              <LongitudeDegrees>-1.98098209686577320098876953125</LongitudeDegrees>
            </Position>
            <AltitudeMeters>4.19999980926513671875</AltitudeMeters>
            <DistanceMeters>NAN</DistanceMeters>
          </Trackpoint>
          <Trackpoint>
            <Time>2021-08-12T09:03:14.000Z</Time>
            <Position>
              <LatitudeDegrees>43.31263043917715549468994140625</LatitudeDegrees>
              <LongitudeDegrees>-1.980996094644069671630859375</LongitudeDegrees>
            </Position>
            <AltitudeMeters>4.19999980926513671875</AltitudeMeters>
            <DistanceMeters>NAN</DistanceMeters>
          </Trackpoint>
          <Trackpoint>
            <Time>2021-08-12T09:03:15.000Z</Time>
            <Position>
              <LatitudeDegrees>43.31265860237181186676025390625</LatitudeDegrees>
              <LongitudeDegrees>-1.9810006208717823028564453125</LongitudeDegrees>
            </Position>
            <AltitudeMeters>4.19999980926513671875</AltitudeMeters>
            <DistanceMeters>NAN</DistanceMeters>
          </Trackpoint>
          <Trackpoint>
            <Time>2021-08-12T09:03:16.000Z</Time>
            <Position>
              <LatitudeDegrees>43.3126902021467685699462890625</LatitudeDegrees>
              <LongitudeDegrees>-1.98100087232887744903564453125</LongitudeDegrees>
            </Position>
            <AltitudeMeters>4.19999980926513671875</AltitudeMeters>
            <DistanceMeters>NAN</DistanceMeters>
          </Trackpoint>
          <Trackpoint>
            <Time>2021-08-12T09:03:18.000Z</Time>
            <Position>
              <LatitudeDegrees>43.3127418346703052520751953125</LatitudeDegrees>
              <LongitudeDegrees>-1.9810190610587596893310546875</LongitudeDegrees>
            </Position>
            <AltitudeMeters>4.19999980926513671875</AltitudeMeters>
            <DistanceMeters>NAN</DistanceMeters>
          </Trackpoint>
          <Trackpoint>
            <Time>2021-08-12T09:03:20.000Z</Time>
            <Position>
              <LatitudeDegrees>43.312788940966129302978515625</LatitudeDegrees>
              <LongitudeDegrees>-1.9810532592236995697021484375</LongitudeDegrees>
            </Position>
            <AltitudeMeters>4.19999980926513671875</AltitudeMeters>
            <DistanceMeters>NAN</DistanceMeters>
          </Trackpoint>
          <Trackpoint>
            <Time>2021-08-12T09:03:21.000Z</Time>
            <Position>
              <LatitudeDegrees>43.3128085546195507049560546875</LatitudeDegrees>
              <LongitudeDegrees>-1.98107949458062648773193359375</LongitudeDegrees>
            </Position>
            <AltitudeMeters>4.19999980926513671875</AltitudeMeters>
            <DistanceMeters>NAN</DistanceMeters>
          </Trackpoint>
          <Trackpoint>
            <Time>2021-08-12T09:03:22.000Z</Time>
            <Position>
              <LatitudeDegrees>43.31282414495944976806640625</LatitudeDegrees>
              <LongitudeDegrees>-1.9811065681278705596923828125</LongitudeDegrees>
            </Position>
            <AltitudeMeters>4.19999980926513671875</AltitudeMeters>
            <DistanceMeters>NAN</DistanceMeters>
          </Trackpoint>
          <Trackpoint>
            <Time>2021-08-12T09:03:23.000Z</Time>
            <Position>
              <LatitudeDegrees>43.31282414495944976806640625</LatitudeDegrees>
              <LongitudeDegrees>-1.9811065681278705596923828125</LongitudeDegrees>
            </Position>
            <AltitudeMeters>4.19999980926513671875</AltitudeMeters>
            <DistanceMeters>NAN</DistanceMeters>
          </Trackpoint>
          <Trackpoint>
            <Time>2021-08-12T09:03:24.000Z</Time>
            <Position>
              <LatitudeDegrees>43.31284434534609317779541015625</LatitudeDegrees>
              <LongitudeDegrees>-1.98117571882903575897216796875</LongitudeDegrees>
            </Position>
            <AltitudeMeters>4.19999980926513671875</AltitudeMeters>
            <DistanceMeters>NAN</DistanceMeters>
          </Trackpoint>
          <Trackpoint>
            <Time>2021-08-12T09:03:25.000Z</Time>
            <Position>
              <LatitudeDegrees>43.3128601871430873870849609375</LatitudeDegrees>
              <LongitudeDegrees>-1.98120337910950183868408203125</LongitudeDegrees>
            </Position>
            <AltitudeMeters>4.19999980926513671875</AltitudeMeters>
            <DistanceMeters>NAN</DistanceMeters>
          </Trackpoint>
          <Trackpoint>
            <Time>2021-08-12T09:03:26.000Z</Time>
            <Position>
              <LatitudeDegrees>43.3128806389868259429931640625</LatitudeDegrees>
              <LongitudeDegrees>-1.98122332803905010223388671875</LongitudeDegrees>
            </Position>
            <AltitudeMeters>4.19999980926513671875</AltitudeMeters>
            <DistanceMeters>NAN</DistanceMeters>
          </Trackpoint>
          <Trackpoint>
            <Time>2021-08-12T09:03:27.000Z</Time>
            <Position>
              <LatitudeDegrees>43.31290058791637420654296875</LatitudeDegrees>
              <LongitudeDegrees>-1.98124478571116924285888671875</LongitudeDegrees>
            </Position>
            <AltitudeMeters>4.19999980926513671875</AltitudeMeters>
            <DistanceMeters>NAN</DistanceMeters>
          </Trackpoint>
          <Trackpoint>
            <Time>2021-08-12T09:03:28.000Z</Time>
            <Position>
              <LatitudeDegrees>43.31292464397847652435302734375</LatitudeDegrees>
              <LongitudeDegrees>-1.98126121424138545989990234375</LongitudeDegrees>
            </Position>
            <AltitudeMeters>4.19999980926513671875</AltitudeMeters>
            <DistanceMeters>NAN</DistanceMeters>
          </Trackpoint>
          <Trackpoint>
            <Time>2021-08-12T09:03:29.000Z</Time>
            <Position>
              <LatitudeDegrees>43.31295557320117950439453125</LatitudeDegrees>
              <LongitudeDegrees>-1.98127982206642627716064453125</LongitudeDegrees>
            </Position>
            <AltitudeMeters>4.19999980926513671875</AltitudeMeters>
            <DistanceMeters>NAN</DistanceMeters>
          </Trackpoint>
          <Trackpoint>
            <Time>2021-08-12T09:03:31.000Z</Time>
            <Position>
              <LatitudeDegrees>43.31301617436110973358154296875</LatitudeDegrees>
              <LongitudeDegrees>-1.9813198037445545196533203125</LongitudeDegrees>
            </Position>
            <AltitudeMeters>4.599999904632568359375</AltitudeMeters>
            <DistanceMeters>NAN</DistanceMeters>
          </Trackpoint>
          <Trackpoint>
            <Time>2021-08-12T09:03:32.000Z</Time>
            <Position>
              <LatitudeDegrees>43.31304182298481464385986328125</LatitudeDegrees>
              <LongitudeDegrees>-1.98133933357894420623779296875</LongitudeDegrees>
            </Position>
            <AltitudeMeters>4.400000095367431640625</AltitudeMeters>
            <DistanceMeters>NAN</DistanceMeters>
          </Trackpoint>
          <Trackpoint>
            <Time>2021-08-12T09:03:37.000Z</Time>
            <Position>
              <LatitudeDegrees>43.31316336058080196380615234375</LatitudeDegrees>
              <LongitudeDegrees>-1.9814203865826129913330078125</LongitudeDegrees>
            </Position>
            <AltitudeMeters>4.599999904632568359375</AltitudeMeters>
            <DistanceMeters>NAN</DistanceMeters>
          </Trackpoint>
          <Trackpoint>
            <Time>2021-08-12T09:03:38.000Z</Time>
            <Position>
              <LatitudeDegrees>43.31318431533873081207275390625</LatitudeDegrees>
              <LongitudeDegrees>-1.98143991641700267791748046875</LongitudeDegrees>
            </Position>
            <AltitudeMeters>4.599999904632568359375</AltitudeMeters>
            <DistanceMeters>NAN</DistanceMeters>
          </Trackpoint>
          <Trackpoint>
            <Time>2021-08-12T09:03:39.000Z</Time>
            <Position>
              <LatitudeDegrees>43.31320501863956451416015625</LatitudeDegrees>
              <LongitudeDegrees>-1.98145441710948944091796875</LongitudeDegrees>
            </Position>
            <AltitudeMeters>4.599999904632568359375</AltitudeMeters>
            <DistanceMeters>NAN</DistanceMeters>
          </Trackpoint>
          <Trackpoint>
            <Time>2021-08-12T09:03:40.000Z</Time>
            <Position>
              <LatitudeDegrees>43.313222788274288177490234375</LatitudeDegrees>
              <LongitudeDegrees>-1.98147579096257686614990234375</LongitudeDegrees>
            </Position>
            <AltitudeMeters>4.599999904632568359375</AltitudeMeters>
            <DistanceMeters>NAN</DistanceMeters>
          </Trackpoint>
          <Trackpoint>
            <Time>2021-08-12T09:03:41.000Z</Time>
            <Position>
              <LatitudeDegrees>43.31326243467628955841064453125</LatitudeDegrees>
              <LongitudeDegrees>-1.981482245028018951416015625</LongitudeDegrees>
            </Position>
            <AltitudeMeters>4.599999904632568359375</AltitudeMeters>
            <DistanceMeters>NAN</DistanceMeters>
          </Trackpoint>
          <Trackpoint>
            <Time>2021-08-12T09:03:42.000Z</Time>
            <Position>
              <LatitudeDegrees>43.3132947050034999847412109375</LatitudeDegrees>
              <LongitudeDegrees>-1.98148886673152446746826171875</LongitudeDegrees>
            </Position>
            <AltitudeMeters>4.599999904632568359375</AltitudeMeters>
            <DistanceMeters>NAN</DistanceMeters>
          </Trackpoint>
          <Trackpoint>
            <Time>2021-08-12T09:03:43.000Z</Time>
            <Position>
              <LatitudeDegrees>43.3133238740265369415283203125</LatitudeDegrees>
              <LongitudeDegrees>-1.9814980030059814453125</LongitudeDegrees>
            </Position>
            <AltitudeMeters>4.80000019073486328125</AltitudeMeters>
            <DistanceMeters>NAN</DistanceMeters>
          </Trackpoint>
          <Trackpoint>
            <Time>2021-08-12T09:03:44.000Z</Time>
            <Position>
              <LatitudeDegrees>43.31334675662219524383544921875</LatitudeDegrees>
              <LongitudeDegrees>-1.9815045408904552459716796875</LongitudeDegrees>
            </Position>
            <AltitudeMeters>4.80000019073486328125</AltitudeMeters>
            <DistanceMeters>NAN</DistanceMeters>
          </Trackpoint>
          <Trackpoint>
            <Time>2021-08-12T09:03:45.000Z</Time>
            <Position>
              <LatitudeDegrees>43.31335916183888912200927734375</LatitudeDegrees>
              <LongitudeDegrees>-1.98150881566107273101806640625</LongitudeDegrees>
            </Position>
            <AltitudeMeters>4.80000019073486328125</AltitudeMeters>
            <DistanceMeters>NAN</DistanceMeters>
          </Trackpoint>
          <Trackpoint>
            <Time>2021-08-12T09:03:46.000Z</Time>
            <Position>
              <LatitudeDegrees>43.31337793730199337005615234375</LatitudeDegrees>
              <LongitudeDegrees>-1.981512419879436492919921875</LongitudeDegrees>
            </Position>
            <AltitudeMeters>4.80000019073486328125</AltitudeMeters>
            <DistanceMeters>NAN</DistanceMeters>
          </Trackpoint>
          <Trackpoint>
            <Time>2021-08-12T09:03:48.000Z</Time>
            <Position>
              <LatitudeDegrees>43.3134227804839611053466796875</LatitudeDegrees>
              <LongitudeDegrees>-1.98153882287442684173583984375</LongitudeDegrees>
            </Position>
            <AltitudeMeters>4.80000019073486328125</AltitudeMeters>
            <DistanceMeters>NAN</DistanceMeters>
          </Trackpoint>
          <Trackpoint>
            <Time>2021-08-12T09:03:49.000Z</Time>
            <Position>
              <LatitudeDegrees>43.3134425617754459381103515625</LatitudeDegrees>
              <LongitudeDegrees>-1.98156380094587802886962890625</LongitudeDegrees>
            </Position>
            <AltitudeMeters>4.80000019073486328125</AltitudeMeters>
            <DistanceMeters>NAN</DistanceMeters>
          </Trackpoint>
          <Trackpoint>
            <Time>2021-08-12T09:03:50.000Z</Time>
            <Position>
              <LatitudeDegrees>43.313461504876613616943359375</LatitudeDegrees>
              <LongitudeDegrees>-1.98158944956958293914794921875</LongitudeDegrees>
            </Position>
            <AltitudeMeters>4.80000019073486328125</AltitudeMeters>
            <DistanceMeters>NAN</DistanceMeters>
          </Trackpoint>
          <Trackpoint>
            <Time>2021-08-12T09:03:51.000Z</Time>
            <Position>
              <LatitudeDegrees>43.313480950891971588134765625</LatitudeDegrees>
              <LongitudeDegrees>-1.98161375708878040313720703125</LongitudeDegrees>
            </Position>
            <AltitudeMeters>4.80000019073486328125</AltitudeMeters>
            <DistanceMeters>NAN</DistanceMeters>
          </Trackpoint>
          <Trackpoint>
            <Time>2021-08-12T09:03:52.000Z</Time>
            <Position>
              <LatitudeDegrees>43.3135007321834564208984375</LatitudeDegrees>
              <LongitudeDegrees>-1.9816433452069759368896484375</LongitudeDegrees>
            </Position>
            <AltitudeMeters>4.80000019073486328125</AltitudeMeters>
            <DistanceMeters>NAN</DistanceMeters>
          </Trackpoint>
          <Trackpoint>
            <Time>2021-08-12T09:03:55.000Z</Time>
            <Position>
              <LatitudeDegrees>43.31357843242585659027099609375</LatitudeDegrees>
              <LongitudeDegrees>-1.98172272183001041412353515625</LongitudeDegrees>
            </Position>
            <AltitudeMeters>4.80000019073486328125</AltitudeMeters>
            <DistanceMeters>NAN</DistanceMeters>
          </Trackpoint>
          <Trackpoint>
            <Time>2021-08-12T09:03:58.000Z</Time>
            <Position>
              <LatitudeDegrees>43.31365202553570270538330078125</LatitudeDegrees>
              <LongitudeDegrees>-1.981797404587268829345703125</LongitudeDegrees>
            </Position>
            <AltitudeMeters>4.80000019073486328125</AltitudeMeters>
            <DistanceMeters>NAN</DistanceMeters>
          </Trackpoint>
          <Trackpoint>
            <Time>2021-08-12T09:03:59.000Z</Time>
            <Position>
              <LatitudeDegrees>43.3136792667210102081298828125</LatitudeDegrees>
              <LongitudeDegrees>-1.9818086363375186920166015625</LongitudeDegrees>
            </Position>
            <AltitudeMeters>4.80000019073486328125</AltitudeMeters>
            <DistanceMeters>NAN</DistanceMeters>
          </Trackpoint>
          <Trackpoint>
            <Time>2021-08-12T09:04:00.000Z</Time>
            <Position>
              <LatitudeDegrees>43.31370181404054164886474609375</LatitudeDegrees>
              <LongitudeDegrees>-1.98182112537324428558349609375</LongitudeDegrees>
            </Position>
            <AltitudeMeters>4.80000019073486328125</AltitudeMeters>
            <DistanceMeters>NAN</DistanceMeters>
          </Trackpoint>
          <Trackpoint>
            <Time>2021-08-12T09:04:02.000Z</Time>
            <Position>
              <LatitudeDegrees>43.3137439750134944915771484375</LatitudeDegrees>
              <LongitudeDegrees>-1.981853730976581573486328125</LongitudeDegrees>
            </Position>
            <AltitudeMeters>4.599999904632568359375</AltitudeMeters>
            <DistanceMeters>NAN</DistanceMeters>
          </Trackpoint>
          <Trackpoint>
            <Time>2021-08-12T09:04:03.000Z</Time>
            <Position>
              <LatitudeDegrees>43.31376216374337673187255859375</LatitudeDegrees>
              <LongitudeDegrees>-1.981871165335178375244140625</LongitudeDegrees>
            </Position>
            <AltitudeMeters>4.80000019073486328125</AltitudeMeters>
            <DistanceMeters>NAN</DistanceMeters>
          </Trackpoint>
          <Trackpoint>
            <Time>2021-08-12T09:04:04.000Z</Time>
            <Position>
              <LatitudeDegrees>43.31377825699746608734130859375</LatitudeDegrees>
              <LongitudeDegrees>-1.981889270246028900146484375</LongitudeDegrees>
            </Position>
            <AltitudeMeters>5</AltitudeMeters>
            <DistanceMeters>NAN</DistanceMeters>
          </Trackpoint>
          <Trackpoint>
            <Time>2021-08-12T09:04:05.000Z</Time>
            <Position>
              <LatitudeDegrees>43.31379317678511142730712890625</LatitudeDegrees>
              <LongitudeDegrees>-1.98191265575587749481201171875</LongitudeDegrees>
            </Position>
            <AltitudeMeters>5</AltitudeMeters>
            <DistanceMeters>NAN</DistanceMeters>
          </Trackpoint>
          <Trackpoint>
            <Time>2021-08-12T09:04:07.000Z</Time>
            <Position>
              <LatitudeDegrees>43.31382385455071926116943359375</LatitudeDegrees>
              <LongitudeDegrees>-1.9819574989378452301025390625</LongitudeDegrees>
            </Position>
            <AltitudeMeters>4.80000019073486328125</AltitudeMeters>
            <DistanceMeters>NAN</DistanceMeters>
          </Trackpoint>
          <Trackpoint>
            <Time>2021-08-12T09:04:08.000Z</Time>
            <Position>
              <LatitudeDegrees>43.31383944489061832427978515625</LatitudeDegrees>
              <LongitudeDegrees>-1.98197937570512294769287109375</LongitudeDegrees>
            </Position>
            <AltitudeMeters>4.80000019073486328125</AltitudeMeters>
            <DistanceMeters>NAN</DistanceMeters>
          </Trackpoint>
          <Trackpoint>
            <Time>2021-08-12T09:04:09.000Z</Time>
            <Position>
              <LatitudeDegrees>43.3138593100011348724365234375</LatitudeDegrees>
              <LongitudeDegrees>-1.98200234211981296539306640625</LongitudeDegrees>
            </Position>
            <AltitudeMeters>4.80000019073486328125</AltitudeMeters>
            <DistanceMeters>NAN</DistanceMeters>
          </Trackpoint>
          <Trackpoint>
            <Time>2021-08-12T09:04:11.000Z</Time>
            <Position>
              <LatitudeDegrees>43.31391312181949615478515625</LatitudeDegrees>
              <LongitudeDegrees>-1.9820517115294933319091796875</LongitudeDegrees>
            </Position>
            <AltitudeMeters>4.80000019073486328125</AltitudeMeters>
            <DistanceMeters>NAN</DistanceMeters>
          </Trackpoint>
          <Trackpoint>
            <Time>2021-08-12T09:04:16.000Z</Time>
            <Position>
              <LatitudeDegrees>43.314081095159053802490234375</LatitudeDegrees>
              <LongitudeDegrees>-1.98210393078625202178955078125</LongitudeDegrees>
            </Position>
            <AltitudeMeters>4.80000019073486328125</AltitudeMeters>
            <DistanceMeters>NAN</DistanceMeters>
          </Trackpoint>
          <Trackpoint>
            <Time>2021-08-12T09:04:17.000Z</Time>
            <Position>
              <LatitudeDegrees>43.31411303021013736724853515625</LatitudeDegrees>
              <LongitudeDegrees>-1.98212706483900547027587890625</LongitudeDegrees>
            </Position>
            <AltitudeMeters>4.80000019073486328125</AltitudeMeters>
            <DistanceMeters>NAN</DistanceMeters>
          </Trackpoint>
          <Trackpoint>
            <Time>2021-08-12T09:04:18.000Z</Time>
            <Position>
              <LatitudeDegrees>43.31414245069026947021484375</LatitudeDegrees>
              <LongitudeDegrees>-1.982155144214630126953125</LongitudeDegrees>
            </Position>
            <AltitudeMeters>4.80000019073486328125</AltitudeMeters>
            <DistanceMeters>NAN</DistanceMeters>
          </Trackpoint>
          <Trackpoint>
            <Time>2021-08-12T09:04:19.000Z</Time>
            <Position>
              <LatitudeDegrees>43.31417606212198734283447265625</LatitudeDegrees>
              <LongitudeDegrees>-1.9821814633905887603759765625</LongitudeDegrees>
            </Position>
            <AltitudeMeters>4.80000019073486328125</AltitudeMeters>
            <DistanceMeters>NAN</DistanceMeters>
          </Trackpoint>
          <Trackpoint>
            <Time>2021-08-12T09:04:26.000Z</Time>
            <Position>
              <LatitudeDegrees>43.3144074864685535430908203125</LatitudeDegrees>
              <LongitudeDegrees>-1.9823377020657062530517578125</LongitudeDegrees>
            </Position>
            <AltitudeMeters>5</AltitudeMeters>
            <DistanceMeters>NAN</DistanceMeters>
          </Trackpoint>
          <Trackpoint>
            <Time>2021-08-12T09:04:27.000Z</Time>
            <Position>
              <LatitudeDegrees>43.314434476196765899658203125</LatitudeDegrees>
              <LongitudeDegrees>-1.982359997928142547607421875</LongitudeDegrees>
            </Position>
            <AltitudeMeters>5</AltitudeMeters>
            <DistanceMeters>NAN</DistanceMeters>
          </Trackpoint>
          <Trackpoint>
            <Time>2021-08-12T09:04:28.000Z</Time>
            <Position>
              <LatitudeDegrees>43.31446322612464427947998046875</LatitudeDegrees>
              <LongitudeDegrees>-1.9823836348950862884521484375</LongitudeDegrees>
            </Position>
            <AltitudeMeters>5</AltitudeMeters>
            <DistanceMeters>NAN</DistanceMeters>
          </Trackpoint>
          <Trackpoint>
            <Time>2021-08-12T09:04:29.000Z</Time>
            <Position>
              <LatitudeDegrees>43.31449809484183788299560546875</LatitudeDegrees>
              <LongitudeDegrees>-1.98240333236753940582275390625</LongitudeDegrees>
            </Position>
            <AltitudeMeters>5</AltitudeMeters>
            <DistanceMeters>NAN</DistanceMeters>
          </Trackpoint>
          <Trackpoint>
            <Time>2021-08-12T09:04:32.000Z</Time>
            <Position>
              <LatitudeDegrees>43.31460647284984588623046875</LatitudeDegrees>
              <LongitudeDegrees>-1.98244440369307994842529296875</LongitudeDegrees>
            </Position>
            <AltitudeMeters>5.19999980926513671875</AltitudeMeters>
            <DistanceMeters>NAN</DistanceMeters>
          </Trackpoint>
          <Trackpoint>
            <Time>2021-08-12T09:04:37.000Z</Time>
            <Position>
              <LatitudeDegrees>43.3147876895964145660400390625</LatitudeDegrees>
              <LongitudeDegrees>-1.9825677014887332916259765625</LongitudeDegrees>
            </Position>
            <AltitudeMeters>5</AltitudeMeters>
            <DistanceMeters>NAN</DistanceMeters>
          </Trackpoint>
          <Trackpoint>
            <Time>2021-08-12T09:04:41.000Z</Time>
            <Position>
              <LatitudeDegrees>43.3149134181439876556396484375</LatitudeDegrees>
              <LongitudeDegrees>-1.982619501650333404541015625</LongitudeDegrees>
            </Position>
            <AltitudeMeters>5.19999980926513671875</AltitudeMeters>
            <DistanceMeters>NAN</DistanceMeters>
          </Trackpoint>
          <Trackpoint>
            <Time>2021-08-12T09:04:42.000Z</Time>
            <Position>
              <LatitudeDegrees>43.3149383962154388427734375</LatitudeDegrees>
              <LongitudeDegrees>-1.98263014666736125946044921875</LongitudeDegrees>
            </Position>
            <AltitudeMeters>5.19999980926513671875</AltitudeMeters>
            <DistanceMeters>NAN</DistanceMeters>
          </Trackpoint>
          <Trackpoint>
            <Time>2021-08-12T09:04:43.000Z</Time>
            <Position>
              <LatitudeDegrees>43.3149383962154388427734375</LatitudeDegrees>
              <LongitudeDegrees>-1.98263014666736125946044921875</LongitudeDegrees>
            </Position>
            <AltitudeMeters>5.19999980926513671875</AltitudeMeters>
            <DistanceMeters>NAN</DistanceMeters>
          </Trackpoint>
          <Trackpoint>
            <Time>2021-08-12T09:04:45.000Z</Time>
            <Position>
              <LatitudeDegrees>43.31502397544682025909423828125</LatitudeDegrees>
              <LongitudeDegrees>-1.98270055465400218963623046875</LongitudeDegrees>
            </Position>
            <AltitudeMeters>5.19999980926513671875</AltitudeMeters>
            <DistanceMeters>NAN</DistanceMeters>
          </Trackpoint>
          <Trackpoint>
            <Time>2021-08-12T09:04:46.000Z</Time>
            <Position>
              <LatitudeDegrees>43.31505482085049152374267578125</LatitudeDegrees>
              <LongitudeDegrees>-1.98273726738989353179931640625</LongitudeDegrees>
            </Position>
            <AltitudeMeters>5.19999980926513671875</AltitudeMeters>
            <DistanceMeters>NAN</DistanceMeters>
          </Trackpoint>
          <Trackpoint>
            <Time>2021-08-12T09:04:48.000Z</Time>
            <Position>
              <LatitudeDegrees>43.31511600874364376068115234375</LatitudeDegrees>
              <LongitudeDegrees>-1.9827856309711933135986328125</LongitudeDegrees>
            </Position>
            <AltitudeMeters>5.19999980926513671875</AltitudeMeters>
            <DistanceMeters>NAN</DistanceMeters>
          </Trackpoint>
          <Trackpoint>
            <Time>2021-08-12T09:04:49.000Z</Time>
            <Position>
              <LatitudeDegrees>43.31514534540474414825439453125</LatitudeDegrees>
              <LongitudeDegrees>-1.982817985117435455322265625</LongitudeDegrees>
            </Position>
            <AltitudeMeters>5.19999980926513671875</AltitudeMeters>
            <DistanceMeters>NAN</DistanceMeters>
          </Trackpoint>
          <Trackpoint>
            <Time>2021-08-12T09:04:56.000Z</Time>
            <Position>
              <LatitudeDegrees>43.3153606764972209930419921875</LatitudeDegrees>
              <LongitudeDegrees>-1.9829646684229373931884765625</LongitudeDegrees>
            </Position>
            <AltitudeMeters>5.400000095367431640625</AltitudeMeters>
            <DistanceMeters>NAN</DistanceMeters>
          </Trackpoint>
          <Trackpoint>
            <Time>2021-08-12T09:04:57.000Z</Time>
            <Position>
              <LatitudeDegrees>43.315390013158321380615234375</LatitudeDegrees>
              <LongitudeDegrees>-1.9829841144382953643798828125</LongitudeDegrees>
            </Position>
            <AltitudeMeters>5.400000095367431640625</AltitudeMeters>
            <DistanceMeters>NAN</DistanceMeters>
          </Trackpoint>
          <Trackpoint>
            <Time>2021-08-12T09:04:58.000Z</Time>
            <Position>
              <LatitudeDegrees>43.31541473977267742156982421875</LatitudeDegrees>
              <LongitudeDegrees>-1.98300414718687534332275390625</LongitudeDegrees>
            </Position>
            <AltitudeMeters>5.599999904632568359375</AltitudeMeters>
            <DistanceMeters>NAN</DistanceMeters>
          </Trackpoint>
          <Trackpoint>
            <Time>2021-08-12T09:04:59.000Z</Time>
            <Position>
              <LatitudeDegrees>43.31543854437768459320068359375</LatitudeDegrees>
              <LongitudeDegrees>-1.98302510194480419158935546875</LongitudeDegrees>
            </Position>
            <AltitudeMeters>5.599999904632568359375</AltitudeMeters>
            <DistanceMeters>NAN</DistanceMeters>
          </Trackpoint>
          <Trackpoint>
            <Time>2021-08-12T09:05:01.000Z</Time>
            <Position>
              <LatitudeDegrees>43.31550124101340770721435546875</LatitudeDegrees>
              <LongitudeDegrees>-1.98306650854647159576416015625</LongitudeDegrees>
            </Position>
            <AltitudeMeters>5.599999904632568359375</AltitudeMeters>
            <DistanceMeters>NAN</DistanceMeters>
          </Trackpoint>
          <Trackpoint>
            <Time>2021-08-12T09:05:04.000Z</Time>
            <Position>
              <LatitudeDegrees>43.315589837729930877685546875</LatitudeDegrees>
              <LongitudeDegrees>-1.98313859291374683380126953125</LongitudeDegrees>
            </Position>
            <AltitudeMeters>5.599999904632568359375</AltitudeMeters>
            <DistanceMeters>NAN</DistanceMeters>
          </Trackpoint>
          <Trackpoint>
            <Time>2021-08-12T09:05:05.000Z</Time>
            <Position>
              <LatitudeDegrees>43.315609283745288848876953125</LatitudeDegrees>
              <LongitudeDegrees>-1.98316776193678379058837890625</LongitudeDegrees>
            </Position>
            <AltitudeMeters>5.599999904632568359375</AltitudeMeters>
            <DistanceMeters>NAN</DistanceMeters>
          </Trackpoint>
          <Trackpoint>
            <Time>2021-08-12T09:05:06.000Z</Time>
            <Position>
              <LatitudeDegrees>43.315630741417407989501953125</LatitudeDegrees>
              <LongitudeDegrees>-1.9831849448382854461669921875</LongitudeDegrees>
            </Position>
            <AltitudeMeters>5.599999904632568359375</AltitudeMeters>
            <DistanceMeters>NAN</DistanceMeters>
          </Trackpoint>
          <Trackpoint>
            <Time>2021-08-12T09:05:07.000Z</Time>
            <Position>
              <LatitudeDegrees>43.31566535867750644683837890625</LatitudeDegrees>
              <LongitudeDegrees>-1.9832077436149120330810546875</LongitudeDegrees>
            </Position>
            <AltitudeMeters>5.80000019073486328125</AltitudeMeters>
            <DistanceMeters>NAN</DistanceMeters>
          </Trackpoint>
          <Trackpoint>
            <Time>2021-08-12T09:05:08.000Z</Time>
            <Position>
              <LatitudeDegrees>43.31569586880505084991455078125</LatitudeDegrees>
              <LongitudeDegrees>-1.9832194782793521881103515625</LongitudeDegrees>
            </Position>
            <AltitudeMeters>5.80000019073486328125</AltitudeMeters>
            <DistanceMeters>NAN</DistanceMeters>
          </Trackpoint>
          <Trackpoint>
            <Time>2021-08-12T09:05:09.000Z</Time>
            <Position>
              <LatitudeDegrees>43.315720260143280029296875</LatitudeDegrees>
              <LongitudeDegrees>-1.9832295365631580352783203125</LongitudeDegrees>
            </Position>
            <AltitudeMeters>5.80000019073486328125</AltitudeMeters>
            <DistanceMeters>NAN</DistanceMeters>
          </Trackpoint>
          <Trackpoint>
            <Time>2021-08-12T09:05:11.000Z</Time>
            <Position>
              <LatitudeDegrees>43.31575856544077396392822265625</LatitudeDegrees>
              <LongitudeDegrees>-1.98326130397617816925048828125</LongitudeDegrees>
            </Position>
            <AltitudeMeters>5.80000019073486328125</AltitudeMeters>
            <DistanceMeters>NAN</DistanceMeters>
          </Trackpoint>
          <Trackpoint>
            <Time>2021-08-12T09:05:12.000Z</Time>
            <Position>
              <LatitudeDegrees>43.3157861419022083282470703125</LatitudeDegrees>
              <LongitudeDegrees>-1.9832868687808513641357421875</LongitudeDegrees>
            </Position>
            <AltitudeMeters>5.80000019073486328125</AltitudeMeters>
            <DistanceMeters>NAN</DistanceMeters>
          </Trackpoint>
          <Trackpoint>
            <Time>2021-08-12T09:05:13.000Z</Time>
            <Position>
              <LatitudeDegrees>43.31581749022006988525390625</LatitudeDegrees>
              <LongitudeDegrees>-1.9833116792142391204833984375</LongitudeDegrees>
            </Position>
            <AltitudeMeters>5.80000019073486328125</AltitudeMeters>
            <DistanceMeters>NAN</DistanceMeters>
          </Trackpoint>
          <Trackpoint>
            <Time>2021-08-12T09:05:14.000Z</Time>
            <Position>
              <LatitudeDegrees>43.31584389321506023406982421875</LatitudeDegrees>
              <LongitudeDegrees>-1.9833311252295970916748046875</LongitudeDegrees>
            </Position>
            <AltitudeMeters>5.80000019073486328125</AltitudeMeters>
            <DistanceMeters>NAN</DistanceMeters>
          </Trackpoint>
          <Trackpoint>
            <Time>2021-08-12T09:05:15.000Z</Time>
            <Position>
              <LatitudeDegrees>43.3158639259636402130126953125</LatitudeDegrees>
              <LongitudeDegrees>-1.98335073888301849365234375</LongitudeDegrees>
            </Position>
            <AltitudeMeters>5.80000019073486328125</AltitudeMeters>
            <DistanceMeters>NAN</DistanceMeters>
          </Trackpoint>
          <Trackpoint>
            <Time>2021-08-12T09:05:16.000Z</Time>
            <Position>
              <LatitudeDegrees>43.315880186855792999267578125</LatitudeDegrees>
              <LongitudeDegrees>-1.9833653233945369720458984375</LongitudeDegrees>
            </Position>
            <AltitudeMeters>6</AltitudeMeters>
            <DistanceMeters>NAN</DistanceMeters>
          </Trackpoint>
          <Trackpoint>
            <Time>2021-08-12T09:05:17.000Z</Time>
            <Position>
              <LatitudeDegrees>43.315897285938262939453125</LatitudeDegrees>
              <LongitudeDegrees>-1.983382590115070343017578125</LongitudeDegrees>
            </Position>
            <AltitudeMeters>6</AltitudeMeters>
            <DistanceMeters>NAN</DistanceMeters>
          </Trackpoint>
          <Trackpoint>
            <Time>2021-08-12T09:05:18.000Z</Time>
            <Position>
              <LatitudeDegrees>43.31591513939201831817626953125</LatitudeDegrees>
              <LongitudeDegrees>-1.983398683369159698486328125</LongitudeDegrees>
            </Position>
            <AltitudeMeters>6</AltitudeMeters>
            <DistanceMeters>NAN</DistanceMeters>
          </Trackpoint>
          <Trackpoint>
            <Time>2021-08-12T09:05:19.000Z</Time>
            <Position>
              <LatitudeDegrees>43.3159323222935199737548828125</LatitudeDegrees>
              <LongitudeDegrees>-1.9834085740149021148681640625</LongitudeDegrees>
            </Position>
            <AltitudeMeters>6</AltitudeMeters>
            <DistanceMeters>NAN</DistanceMeters>
          </Trackpoint>
          <Trackpoint>
            <Time>2021-08-12T09:05:20.000Z</Time>
            <Position>
              <LatitudeDegrees>43.31594615243375301361083984375</LatitudeDegrees>
              <LongitudeDegrees>-1.98341804556548595428466796875</LongitudeDegrees>
            </Position>
            <AltitudeMeters>6</AltitudeMeters>
            <DistanceMeters>NAN</DistanceMeters>
          </Trackpoint>
          <Trackpoint>
            <Time>2021-08-12T09:05:21.000Z</Time>
            <Position>
              <LatitudeDegrees>43.31594984047114849090576171875</LatitudeDegrees>
              <LongitudeDegrees>-1.98342056013643741607666015625</LongitudeDegrees>
            </Position>
            <AltitudeMeters>6</AltitudeMeters>
            <DistanceMeters>NAN</DistanceMeters>
          </Trackpoint>
          <Trackpoint>
            <Time>2021-08-12T09:05:23.000Z</Time>
            <Position>
              <LatitudeDegrees>43.31594984047114849090576171875</LatitudeDegrees>
              <LongitudeDegrees>-1.98342056013643741607666015625</LongitudeDegrees>
            </Position>
            <AltitudeMeters>6</AltitudeMeters>
            <DistanceMeters>NAN</DistanceMeters>
          </Trackpoint>
          <Trackpoint>
            <Time>2021-08-12T09:05:31.000Z</Time>
            <Position>
              <LatitudeDegrees>43.31594984047114849090576171875</LatitudeDegrees>
              <LongitudeDegrees>-1.98342056013643741607666015625</LongitudeDegrees>
            </Position>
            <AltitudeMeters>6</AltitudeMeters>
            <DistanceMeters>NAN</DistanceMeters>
          </Trackpoint>
          <Trackpoint>
            <Time>2021-08-12T09:05:49.000Z</Time>
            <Position>
              <LatitudeDegrees>43.31595185212790966033935546875</LatitudeDegrees>
              <LongitudeDegrees>-1.9834216497838497161865234375</LongitudeDegrees>
            </Position>
            <AltitudeMeters>6.19999980926513671875</AltitudeMeters>
            <DistanceMeters>NAN</DistanceMeters>
          </Trackpoint>
          <Trackpoint>
            <Time>2021-08-12T09:05:51.000Z</Time>
            <Position>
              <LatitudeDegrees>43.31598789431154727935791015625</LatitudeDegrees>
              <LongitudeDegrees>-1.98343665339052677154541015625</LongitudeDegrees>
            </Position>
            <AltitudeMeters>6.19999980926513671875</AltitudeMeters>
            <DistanceMeters>NAN</DistanceMeters>
          </Trackpoint>
          <Trackpoint>
            <Time>2021-08-12T09:05:53.000Z</Time>
            <Position>
              <LatitudeDegrees>43.31602594815194606781005859375</LatitudeDegrees>
              <LongitudeDegrees>-1.98344327509403228759765625</LongitudeDegrees>
            </Position>
            <AltitudeMeters>6.19999980926513671875</AltitudeMeters>
            <DistanceMeters>NAN</DistanceMeters>
          </Trackpoint>
          <Trackpoint>
            <Time>2021-08-12T09:05:54.000Z</Time>
            <Position>
              <LatitudeDegrees>43.31605042330920696258544921875</LatitudeDegrees>
              <LongitudeDegrees>-1.98344889096915721893310546875</LongitudeDegrees>
            </Position>
            <AltitudeMeters>6.19999980926513671875</AltitudeMeters>
            <DistanceMeters>NAN</DistanceMeters>
          </Trackpoint>
          <Trackpoint>
            <Time>2021-08-12T09:05:58.000Z</Time>
            <Position>
              <LatitudeDegrees>43.31616642884910106658935546875</LatitudeDegrees>
              <LongitudeDegrees>-1.98349147103726863861083984375</LongitudeDegrees>
            </Position>
            <AltitudeMeters>6.19999980926513671875</AltitudeMeters>
            <DistanceMeters>NAN</DistanceMeters>
          </Trackpoint>
          <Trackpoint>
            <Time>2021-08-12T09:05:59.000Z</Time>
            <Position>
              <LatitudeDegrees>43.31618000753223896026611328125</LatitudeDegrees>
              <LongitudeDegrees>-1.9835024513304233551025390625</LongitudeDegrees>
            </Position>
            <AltitudeMeters>6.19999980926513671875</AltitudeMeters>
            <DistanceMeters>NAN</DistanceMeters>
          </Trackpoint>
          <Trackpoint>
            <Time>2021-08-12T09:06:00.000Z</Time>
            <Position>
              <LatitudeDegrees>43.31618922762572765350341796875</LatitudeDegrees>
              <LongitudeDegrees>-1.98351762257516384124755859375</LongitudeDegrees>
            </Position>
            <AltitudeMeters>6.19999980926513671875</AltitudeMeters>
            <DistanceMeters>NAN</DistanceMeters>
          </Trackpoint>
          <Trackpoint>
            <Time>2021-08-12T09:06:01.000Z</Time>
            <Position>
              <LatitudeDegrees>43.31619693897664546966552734375</LatitudeDegrees>
              <LongitudeDegrees>-1.9835245795547962188720703125</LongitudeDegrees>
            </Position>
            <AltitudeMeters>6</AltitudeMeters>
            <DistanceMeters>NAN</DistanceMeters>
          </Trackpoint>
          <Trackpoint>
            <Time>2021-08-12T09:06:02.000Z</Time>
            <Position>
              <LatitudeDegrees>43.31620247103273868560791015625</LatitudeDegrees>
              <LongitudeDegrees>-1.98353237472474575042724609375</LongitudeDegrees>
            </Position>
            <AltitudeMeters>6</AltitudeMeters>
            <DistanceMeters>NAN</DistanceMeters>
          </Trackpoint>
          <Trackpoint>
            <Time>2021-08-12T09:06:03.000Z</Time>
            <Position>
              <LatitudeDegrees>43.31619911827147006988525390625</LatitudeDegrees>
              <LongitudeDegrees>-1.98354327119886875152587890625</LongitudeDegrees>
            </Position>
            <AltitudeMeters>6</AltitudeMeters>
            <DistanceMeters>NAN</DistanceMeters>
          </Trackpoint>
          <Trackpoint>
            <Time>2021-08-12T09:06:07.000Z</Time>
            <Position>
              <LatitudeDegrees>43.31615469418466091156005859375</LatitudeDegrees>
              <LongitudeDegrees>-1.98363966308534145355224609375</LongitudeDegrees>
            </Position>
            <AltitudeMeters>6</AltitudeMeters>
            <DistanceMeters>NAN</DistanceMeters>
          </Trackpoint>
          <Trackpoint>
            <Time>2021-08-12T09:06:08.000Z</Time>
            <Position>
              <LatitudeDegrees>43.316141702234745025634765625</LatitudeDegrees>
              <LongitudeDegrees>-1.9836804829537868499755859375</LongitudeDegrees>
            </Position>
            <AltitudeMeters>6</AltitudeMeters>
            <DistanceMeters>NAN</DistanceMeters>
          </Trackpoint>
          <Trackpoint>
            <Time>2021-08-12T09:06:09.000Z</Time>
            <Position>
              <LatitudeDegrees>43.3161361701786518096923828125</LatitudeDegrees>
              <LongitudeDegrees>-1.9837217219173908233642578125</LongitudeDegrees>
            </Position>
            <AltitudeMeters>6</AltitudeMeters>
            <DistanceMeters>NAN</DistanceMeters>
          </Trackpoint>
          <Trackpoint>
            <Time>2021-08-12T09:06:10.000Z</Time>
            <Position>
              <LatitudeDegrees>43.31612887792289257049560546875</LatitudeDegrees>
              <LongitudeDegrees>-1.98375935666263103485107421875</LongitudeDegrees>
            </Position>
            <AltitudeMeters>6.19999980926513671875</AltitudeMeters>
            <DistanceMeters>NAN</DistanceMeters>
          </Trackpoint>
          <Trackpoint>
            <Time>2021-08-12T09:06:11.000Z</Time>
            <Position>
              <LatitudeDegrees>43.31611798144876956939697265625</LatitudeDegrees>
              <LongitudeDegrees>-1.9837985001504421234130859375</LongitudeDegrees>
            </Position>
            <AltitudeMeters>6.19999980926513671875</AltitudeMeters>
            <DistanceMeters>NAN</DistanceMeters>
          </Trackpoint>
          <Trackpoint>
            <Time>2021-08-12T09:06:13.000Z</Time>
            <Position>
              <LatitudeDegrees>43.3160868845880031585693359375</LatitudeDegrees>
              <LongitudeDegrees>-1.9838504679501056671142578125</LongitudeDegrees>
            </Position>
            <AltitudeMeters>6.19999980926513671875</AltitudeMeters>
            <DistanceMeters>NAN</DistanceMeters>
          </Trackpoint>
          <Trackpoint>
            <Time>2021-08-12T09:06:14.000Z</Time>
            <Position>
              <LatitudeDegrees>43.3160704560577869415283203125</LatitudeDegrees>
              <LongitudeDegrees>-1.98388709686696529388427734375</LongitudeDegrees>
            </Position>
            <AltitudeMeters>6.400000095367431640625</AltitudeMeters>
            <DistanceMeters>NAN</DistanceMeters>
          </Trackpoint>
          <Trackpoint>
            <Time>2021-08-12T09:06:15.000Z</Time>
            <Position>
              <LatitudeDegrees>43.31606115214526653289794921875</LatitudeDegrees>
              <LongitudeDegrees>-1.98394577018916606903076171875</LongitudeDegrees>
            </Position>
            <AltitudeMeters>6.400000095367431640625</AltitudeMeters>
            <DistanceMeters>NAN</DistanceMeters>
          </Trackpoint>
          <Trackpoint>
            <Time>2021-08-12T09:06:17.000Z</Time>
            <Position>
              <LatitudeDegrees>43.31604413688182830810546875</LatitudeDegrees>
              <LongitudeDegrees>-1.98401584289968013763427734375</LongitudeDegrees>
            </Position>
            <AltitudeMeters>6.599999904632568359375</AltitudeMeters>
            <DistanceMeters>NAN</DistanceMeters>
          </Trackpoint>
          <Trackpoint>
            <Time>2021-08-12T09:06:18.000Z</Time>
            <Position>
              <LatitudeDegrees>43.316034413874149322509765625</LatitudeDegrees>
              <LongitudeDegrees>-1.98404987342655658721923828125</LongitudeDegrees>
            </Position>
            <AltitudeMeters>6.599999904632568359375</AltitudeMeters>
            <DistanceMeters>NAN</DistanceMeters>
          </Trackpoint>
          <Trackpoint>
            <Time>2021-08-12T09:06:19.000Z</Time>
            <Position>
              <LatitudeDegrees>43.31602728925645351409912109375</LatitudeDegrees>
              <LongitudeDegrees>-1.98408910073339939117431640625</LongitudeDegrees>
            </Position>
            <AltitudeMeters>6.599999904632568359375</AltitudeMeters>
            <DistanceMeters>NAN</DistanceMeters>
          </Trackpoint>
          <Trackpoint>
            <Time>2021-08-12T09:06:20.000Z</Time>
            <Position>
              <LatitudeDegrees>43.3160255290567874908447265625</LatitudeDegrees>
              <LongitudeDegrees>-1.98412782512605190277099609375</LongitudeDegrees>
            </Position>
            <AltitudeMeters>6.80000019073486328125</AltitudeMeters>
            <DistanceMeters>NAN</DistanceMeters>
          </Trackpoint>
          <Trackpoint>
            <Time>2021-08-12T09:06:21.000Z</Time>
            <Position>
              <LatitudeDegrees>43.3160255290567874908447265625</LatitudeDegrees>
              <LongitudeDegrees>-1.98412782512605190277099609375</LongitudeDegrees>
            </Position>
            <AltitudeMeters>6.80000019073486328125</AltitudeMeters>
            <DistanceMeters>NAN</DistanceMeters>
          </Trackpoint>
          <Trackpoint>
            <Time>2021-08-12T09:06:22.000Z</Time>
            <Position>
              <LatitudeDegrees>43.3160285465419292449951171875</LatitudeDegrees>
              <LongitudeDegrees>-1.984171830117702484130859375</LongitudeDegrees>
            </Position>
            <AltitudeMeters>7</AltitudeMeters>
            <DistanceMeters>NAN</DistanceMeters>
          </Trackpoint>
          <Trackpoint>
            <Time>2021-08-12T09:06:23.000Z</Time>
            <Position>
              <LatitudeDegrees>43.31603919155895709991455078125</LatitudeDegrees>
              <LongitudeDegrees>-1.9842110574245452880859375</LongitudeDegrees>
            </Position>
            <AltitudeMeters>7</AltitudeMeters>
            <DistanceMeters>NAN</DistanceMeters>
          </Trackpoint>
          <Trackpoint>
            <Time>2021-08-12T09:06:24.000Z</Time>
            <Position>
              <LatitudeDegrees>43.31607841886579990386962890625</LatitudeDegrees>
              <LongitudeDegrees>-1.9842745922505855560302734375</LongitudeDegrees>
            </Position>
            <AltitudeMeters>7</AltitudeMeters>
            <DistanceMeters>NAN</DistanceMeters>
          </Trackpoint>
          <Trackpoint>
            <Time>2021-08-12T09:06:25.000Z</Time>
            <Position>
              <LatitudeDegrees>43.3161059953272342681884765625</LatitudeDegrees>
              <LongitudeDegrees>-1.98429093696177005767822265625</LongitudeDegrees>
            </Position>
            <AltitudeMeters>7.19999980926513671875</AltitudeMeters>
            <DistanceMeters>NAN</DistanceMeters>
          </Trackpoint>
          <Trackpoint>
            <Time>2021-08-12T09:06:26.000Z</Time>
            <Position>
              <LatitudeDegrees>43.3161059953272342681884765625</LatitudeDegrees>
              <LongitudeDegrees>-1.98429093696177005767822265625</LongitudeDegrees>
            </Position>
            <AltitudeMeters>7</AltitudeMeters>
            <DistanceMeters>NAN</DistanceMeters>
          </Trackpoint>
          <Trackpoint>
            <Time>2021-08-12T09:06:27.000Z</Time>
            <Position>
              <LatitudeDegrees>43.31613667309284210205078125</LatitudeDegrees>
              <LongitudeDegrees>-1.98430585674941539764404296875</LongitudeDegrees>
            </Position>
            <AltitudeMeters>7</AltitudeMeters>
            <DistanceMeters>NAN</DistanceMeters>
          </Trackpoint>
          <Trackpoint>
            <Time>2021-08-12T09:06:29.000Z</Time>
            <Position>
              <LatitudeDegrees>43.316226862370967864990234375</LatitudeDegrees>
              <LongitudeDegrees>-1.98435120284557342529296875</LongitudeDegrees>
            </Position>
            <AltitudeMeters>7</AltitudeMeters>
            <DistanceMeters>NAN</DistanceMeters>
          </Trackpoint>
          <Trackpoint>
            <Time>2021-08-12T09:06:30.000Z</Time>
            <Position>
              <LatitudeDegrees>43.31625125370919704437255859375</LatitudeDegrees>
              <LongitudeDegrees>-1.98436729609966278076171875</LongitudeDegrees>
            </Position>
            <AltitudeMeters>7</AltitudeMeters>
            <DistanceMeters>NAN</DistanceMeters>
          </Trackpoint>
          <Trackpoint>
            <Time>2021-08-12T09:06:31.000Z</Time>
            <Position>
              <LatitudeDegrees>43.3162605576217174530029296875</LatitudeDegrees>
              <LongitudeDegrees>-1.98438364081084728240966796875</LongitudeDegrees>
            </Position>
            <AltitudeMeters>7</AltitudeMeters>
            <DistanceMeters>NAN</DistanceMeters>
          </Trackpoint>
          <Trackpoint>
            <Time>2021-08-12T09:06:32.000Z</Time>
            <Position>
              <LatitudeDegrees>43.3162605576217174530029296875</LatitudeDegrees>
              <LongitudeDegrees>-1.98438364081084728240966796875</LongitudeDegrees>
            </Position>
            <AltitudeMeters>7</AltitudeMeters>
            <DistanceMeters>NAN</DistanceMeters>
          </Trackpoint>
          <Trackpoint>
            <Time>2021-08-12T09:06:33.000Z</Time>
            <Position>
              <LatitudeDegrees>43.316273801028728485107421875</LatitudeDegrees>
              <LongitudeDegrees>-1.98439948260784149169921875</LongitudeDegrees>
            </Position>
            <AltitudeMeters>6.80000019073486328125</AltitudeMeters>
            <DistanceMeters>NAN</DistanceMeters>
          </Trackpoint>
          <Trackpoint>
            <Time>2021-08-12T09:06:34.000Z</Time>
            <Position>
              <LatitudeDegrees>43.3162890560925006866455078125</LatitudeDegrees>
              <LongitudeDegrees>-1.9844174198806285858154296875</LongitudeDegrees>
            </Position>
            <AltitudeMeters>6.80000019073486328125</AltitudeMeters>
            <DistanceMeters>NAN</DistanceMeters>
          </Trackpoint>
          <Trackpoint>
            <Time>2021-08-12T09:06:35.000Z</Time>
            <Position>
              <LatitudeDegrees>43.31629760563373565673828125</LatitudeDegrees>
              <LongitudeDegrees>-1.98443971574306488037109375</LongitudeDegrees>
            </Position>
            <AltitudeMeters>6.80000019073486328125</AltitudeMeters>
            <DistanceMeters>NAN</DistanceMeters>
          </Trackpoint>
          <Trackpoint>
            <Time>2021-08-12T09:06:36.000Z</Time>
            <Position>
              <LatitudeDegrees>43.316301293671131134033203125</LatitudeDegrees>
              <LongitudeDegrees>-1.98448665440082550048828125</LongitudeDegrees>
            </Position>
            <AltitudeMeters>6.80000019073486328125</AltitudeMeters>
            <DistanceMeters>NAN</DistanceMeters>
          </Trackpoint>
          <Trackpoint>
            <Time>2021-08-12T09:06:37.000Z</Time>
            <Position>
              <LatitudeDegrees>43.316301293671131134033203125</LatitudeDegrees>
              <LongitudeDegrees>-1.98448665440082550048828125</LongitudeDegrees>
            </Position>
            <AltitudeMeters>6.80000019073486328125</AltitudeMeters>
            <DistanceMeters>NAN</DistanceMeters>
          </Trackpoint>
          <Trackpoint>
            <Time>2021-08-12T09:06:38.000Z</Time>
            <Position>
              <LatitudeDegrees>43.3163024671375751495361328125</LatitudeDegrees>
              <LongitudeDegrees>-1.984506435692310333251953125</LongitudeDegrees>
            </Position>
            <AltitudeMeters>6.599999904632568359375</AltitudeMeters>
            <DistanceMeters>NAN</DistanceMeters>
          </Trackpoint>
          <Trackpoint>
            <Time>2021-08-12T09:06:40.000Z</Time>
            <Position>
              <LatitudeDegrees>43.3163024671375751495361328125</LatitudeDegrees>
              <LongitudeDegrees>-1.984506435692310333251953125</LongitudeDegrees>
            </Position>
            <AltitudeMeters>6.599999904632568359375</AltitudeMeters>
            <DistanceMeters>NAN</DistanceMeters>
          </Trackpoint>
          <Trackpoint>
            <Time>2021-08-12T09:06:49.000Z</Time>
            <Position>
              <LatitudeDegrees>43.3163024671375751495361328125</LatitudeDegrees>
              <LongitudeDegrees>-1.984506435692310333251953125</LongitudeDegrees>
            </Position>
            <AltitudeMeters>6.400000095367431640625</AltitudeMeters>
            <DistanceMeters>NAN</DistanceMeters>
          </Trackpoint>
          <Trackpoint>
            <Time>2021-08-12T09:07:46.000Z</Time>
            <Position>
              <LatitudeDegrees>43.3163363300263881683349609375</LatitudeDegrees>
              <LongitudeDegrees>-1.98452093638479709625244140625</LongitudeDegrees>
            </Position>
            <AltitudeMeters>6.19999980926513671875</AltitudeMeters>
            <DistanceMeters>NAN</DistanceMeters>
          </Trackpoint>
          <Trackpoint>
            <Time>2021-08-12T09:07:48.000Z</Time>
            <Position>
              <LatitudeDegrees>43.31633917987346649169921875</LatitudeDegrees>
              <LongitudeDegrees>-1.98452747426927089691162109375</LongitudeDegrees>
            </Position>
            <AltitudeMeters>6.19999980926513671875</AltitudeMeters>
            <DistanceMeters>NAN</DistanceMeters>
          </Trackpoint>
          <Trackpoint>
            <Time>2021-08-12T09:07:51.000Z</Time>
            <Position>
              <LatitudeDegrees>43.3163453824818134307861328125</LatitudeDegrees>
              <LongitudeDegrees>-1.98453183285892009735107421875</LongitudeDegrees>
            </Position>
            <AltitudeMeters>6.19999980926513671875</AltitudeMeters>
            <DistanceMeters>NAN</DistanceMeters>
          </Trackpoint>
          <Trackpoint>
            <Time>2021-08-12T09:07:53.000Z</Time>
            <Position>
              <LatitudeDegrees>43.31641939468681812286376953125</LatitudeDegrees>
              <LongitudeDegrees>-1.98457516729831695556640625</LongitudeDegrees>
            </Position>
            <AltitudeMeters>6.19999980926513671875</AltitudeMeters>
            <DistanceMeters>NAN</DistanceMeters>
          </Trackpoint>
          <Trackpoint>
            <Time>2021-08-12T09:07:54.000Z</Time>
            <Position>
              <LatitudeDegrees>43.31644772551953792572021484375</LatitudeDegrees>
              <LongitudeDegrees>-1.9846102036535739898681640625</LongitudeDegrees>
            </Position>
            <AltitudeMeters>6.19999980926513671875</AltitudeMeters>
            <DistanceMeters>NAN</DistanceMeters>
          </Trackpoint>
          <Trackpoint>
            <Time>2021-08-12T09:07:56.000Z</Time>
            <Position>
              <LatitudeDegrees>43.31650841049849987030029296875</LatitudeDegrees>
              <LongitudeDegrees>-1.98466342873871326446533203125</LongitudeDegrees>
            </Position>
            <AltitudeMeters>6.19999980926513671875</AltitudeMeters>
            <DistanceMeters>NAN</DistanceMeters>
          </Trackpoint>
          <Trackpoint>
            <Time>2021-08-12T09:07:58.000Z</Time>
            <Position>
              <LatitudeDegrees>43.31654411740601062774658203125</LatitudeDegrees>
              <LongitudeDegrees>-1.9846732355654239654541015625</LongitudeDegrees>
            </Position>
            <AltitudeMeters>6.400000095367431640625</AltitudeMeters>
            <DistanceMeters>NAN</DistanceMeters>
          </Trackpoint>
          <Trackpoint>
            <Time>2021-08-12T09:07:59.000Z</Time>
            <Position>
              <LatitudeDegrees>43.31657982431352138519287109375</LatitudeDegrees>
              <LongitudeDegrees>-1.98468958027660846710205078125</LongitudeDegrees>
            </Position>
            <AltitudeMeters>6.400000095367431640625</AltitudeMeters>
            <DistanceMeters>NAN</DistanceMeters>
          </Trackpoint>
          <Trackpoint>
            <Time>2021-08-12T09:08:00.000Z</Time>
            <Position>
              <LatitudeDegrees>43.3166407607495784759521484375</LatitudeDegrees>
              <LongitudeDegrees>-1.98472696356475353240966796875</LongitudeDegrees>
            </Position>
            <AltitudeMeters>6.400000095367431640625</AltitudeMeters>
            <DistanceMeters>NAN</DistanceMeters>
          </Trackpoint>
          <Trackpoint>
            <Time>2021-08-12T09:08:01.000Z</Time>
            <Position>
              <LatitudeDegrees>43.3166407607495784759521484375</LatitudeDegrees>
              <LongitudeDegrees>-1.98472696356475353240966796875</LongitudeDegrees>
            </Position>
            <AltitudeMeters>6.400000095367431640625</AltitudeMeters>
            <DistanceMeters>NAN</DistanceMeters>
          </Trackpoint>
          <Trackpoint>
            <Time>2021-08-12T09:08:02.000Z</Time>
            <Position>
              <LatitudeDegrees>43.316665403544902801513671875</LatitudeDegrees>
              <LongitudeDegrees>-1.98474221862852573394775390625</LongitudeDegrees>
            </Position>
            <AltitudeMeters>6.599999904632568359375</AltitudeMeters>
            <DistanceMeters>NAN</DistanceMeters>
          </Trackpoint>
          <Trackpoint>
            <Time>2021-08-12T09:08:03.000Z</Time>
            <Position>
              <LatitudeDegrees>43.3166880346834659576416015625</LatitudeDegrees>
              <LongitudeDegrees>-1.98476199992001056671142578125</LongitudeDegrees>
            </Position>
            <AltitudeMeters>6.599999904632568359375</AltitudeMeters>
            <DistanceMeters>NAN</DistanceMeters>
          </Trackpoint>
          <Trackpoint>
            <Time>2021-08-12T09:08:04.000Z</Time>
            <Position>
              <LatitudeDegrees>43.31673690117895603179931640625</LatitudeDegrees>
              <LongitudeDegrees>-1.98479888029396533966064453125</LongitudeDegrees>
            </Position>
            <AltitudeMeters>6.599999904632568359375</AltitudeMeters>
            <DistanceMeters>NAN</DistanceMeters>
          </Trackpoint>
          <Trackpoint>
            <Time>2021-08-12T09:08:05.000Z</Time>
            <Position>
              <LatitudeDegrees>43.3167584426701068878173828125</LatitudeDegrees>
              <LongitudeDegrees>-1.98482201434671878814697265625</LongitudeDegrees>
            </Position>
            <AltitudeMeters>6.80000019073486328125</AltitudeMeters>
            <DistanceMeters>NAN</DistanceMeters>
          </Trackpoint>
          <Trackpoint>
            <Time>2021-08-12T09:08:06.000Z</Time>
            <Position>
              <LatitudeDegrees>43.3167584426701068878173828125</LatitudeDegrees>
              <LongitudeDegrees>-1.98482201434671878814697265625</LongitudeDegrees>
            </Position>
            <AltitudeMeters>6.80000019073486328125</AltitudeMeters>
            <DistanceMeters>NAN</DistanceMeters>
          </Trackpoint>
          <Trackpoint>
            <Time>2021-08-12T09:08:07.000Z</Time>
            <Position>
              <LatitudeDegrees>43.31677897833287715911865234375</LatitudeDegrees>
              <LongitudeDegrees>-1.9848492555320262908935546875</LongitudeDegrees>
            </Position>
            <AltitudeMeters>6.80000019073486328125</AltitudeMeters>
            <DistanceMeters>NAN</DistanceMeters>
          </Trackpoint>
          <Trackpoint>
            <Time>2021-08-12T09:08:09.000Z</Time>
            <Position>
              <LatitudeDegrees>43.3168627135455608367919921875</LatitudeDegrees>
              <LongitudeDegrees>-1.9849206693470478057861328125</LongitudeDegrees>
            </Position>
            <AltitudeMeters>6.80000019073486328125</AltitudeMeters>
            <DistanceMeters>NAN</DistanceMeters>
          </Trackpoint>
          <Trackpoint>
            <Time>2021-08-12T09:08:12.000Z</Time>
            <Position>
              <LatitudeDegrees>43.31692163832485675811767578125</LatitudeDegrees>
              <LongitudeDegrees>-1.98497456498444080352783203125</LongitudeDegrees>
            </Position>
            <AltitudeMeters>7</AltitudeMeters>
            <DistanceMeters>NAN</DistanceMeters>
          </Trackpoint>
          <Trackpoint>
            <Time>2021-08-12T09:08:13.000Z</Time>
            <Position>
              <LatitudeDegrees>43.31693387590348720550537109375</LatitudeDegrees>
              <LongitudeDegrees>-1.98500842787325382232666015625</LongitudeDegrees>
            </Position>
            <AltitudeMeters>7</AltitudeMeters>
            <DistanceMeters>NAN</DistanceMeters>
          </Trackpoint>
          <Trackpoint>
            <Time>2021-08-12T09:08:14.000Z</Time>
            <Position>
              <LatitudeDegrees>43.3169549144804477691650390625</LatitudeDegrees>
              <LongitudeDegrees>-1.98503726162016391754150390625</LongitudeDegrees>
            </Position>
            <AltitudeMeters>7</AltitudeMeters>
            <DistanceMeters>NAN</DistanceMeters>
          </Trackpoint>
          <Trackpoint>
            <Time>2021-08-12T09:08:17.000Z</Time>
            <Position>
              <LatitudeDegrees>43.317048959434032440185546875</LatitudeDegrees>
              <LongitudeDegrees>-1.98511789552867412567138671875</LongitudeDegrees>
            </Position>
            <AltitudeMeters>7</AltitudeMeters>
            <DistanceMeters>NAN</DistanceMeters>
          </Trackpoint>
          <Trackpoint>
            <Time>2021-08-12T09:08:22.000Z</Time>
            <Position>
              <LatitudeDegrees>43.31721232272684574127197265625</LatitudeDegrees>
              <LongitudeDegrees>-1.98524110950529575347900390625</LongitudeDegrees>
            </Position>
            <AltitudeMeters>7</AltitudeMeters>
            <DistanceMeters>NAN</DistanceMeters>
          </Trackpoint>
          <Trackpoint>
            <Time>2021-08-12T09:08:23.000Z</Time>
            <Position>
              <LatitudeDegrees>43.3172506280243396759033203125</LatitudeDegrees>
              <LongitudeDegrees>-1.98526960797607898712158203125</LongitudeDegrees>
            </Position>
            <AltitudeMeters>7.19999980926513671875</AltitudeMeters>
            <DistanceMeters>NAN</DistanceMeters>
          </Trackpoint>
          <Trackpoint>
            <Time>2021-08-12T09:08:24.000Z</Time>
            <Position>
              <LatitudeDegrees>43.3172506280243396759033203125</LatitudeDegrees>
              <LongitudeDegrees>-1.98526960797607898712158203125</LongitudeDegrees>
            </Position>
            <AltitudeMeters>7.19999980926513671875</AltitudeMeters>
            <DistanceMeters>NAN</DistanceMeters>
          </Trackpoint>
          <Trackpoint>
            <Time>2021-08-12T09:08:25.000Z</Time>
            <Position>
              <LatitudeDegrees>43.3172692358493804931640625</LatitudeDegrees>
              <LongitudeDegrees>-1.985287629067897796630859375</LongitudeDegrees>
            </Position>
            <AltitudeMeters>7.19999980926513671875</AltitudeMeters>
            <DistanceMeters>NAN</DistanceMeters>
          </Trackpoint>
          <Trackpoint>
            <Time>2021-08-12T09:08:26.000Z</Time>
            <Position>
              <LatitudeDegrees>43.31730569712817668914794921875</LatitudeDegrees>
              <LongitudeDegrees>-1.98532207868993282318115234375</LongitudeDegrees>
            </Position>
            <AltitudeMeters>7.19999980926513671875</AltitudeMeters>
            <DistanceMeters>NAN</DistanceMeters>
          </Trackpoint>
          <Trackpoint>
            <Time>2021-08-12T09:08:28.000Z</Time>
            <Position>
              <LatitudeDegrees>43.3173290826380252838134765625</LatitudeDegrees>
              <LongitudeDegrees>-1.985328532755374908447265625</LongitudeDegrees>
            </Position>
            <AltitudeMeters>7.19999980926513671875</AltitudeMeters>
            <DistanceMeters>NAN</DistanceMeters>
          </Trackpoint>
          <Trackpoint>
            <Time>2021-08-12T09:08:29.000Z</Time>
            <Position>
              <LatitudeDegrees>43.3173552341759204864501953125</LatitudeDegrees>
              <LongitudeDegrees>-1.98531621135771274566650390625</LongitudeDegrees>
            </Position>
            <AltitudeMeters>7.19999980926513671875</AltitudeMeters>
            <DistanceMeters>NAN</DistanceMeters>
          </Trackpoint>
          <Trackpoint>
            <Time>2021-08-12T09:08:30.000Z</Time>
            <Position>
              <LatitudeDegrees>43.31738398410379886627197265625</LatitudeDegrees>
              <LongitudeDegrees>-1.985309422016143798828125</LongitudeDegrees>
            </Position>
            <AltitudeMeters>7.19999980926513671875</AltitudeMeters>
            <DistanceMeters>NAN</DistanceMeters>
          </Trackpoint>
          <Trackpoint>
            <Time>2021-08-12T09:08:31.000Z</Time>
            <Position>
              <LatitudeDegrees>43.31740393303334712982177734375</LatitudeDegrees>
              <LongitudeDegrees>-1.98531210422515869140625</LongitudeDegrees>
            </Position>
            <AltitudeMeters>7.19999980926513671875</AltitudeMeters>
            <DistanceMeters>NAN</DistanceMeters>
          </Trackpoint>
          <Trackpoint>
            <Time>2021-08-12T09:08:32.000Z</Time>
            <Position>
              <LatitudeDegrees>43.31742505542933940887451171875</LatitudeDegrees>
              <LongitudeDegrees>-1.98532216250896453857421875</LongitudeDegrees>
            </Position>
            <AltitudeMeters>7.19999980926513671875</AltitudeMeters>
            <DistanceMeters>NAN</DistanceMeters>
          </Trackpoint>
          <Trackpoint>
            <Time>2021-08-12T09:08:34.000Z</Time>
            <Position>
              <LatitudeDegrees>43.3174812979996204376220703125</LatitudeDegrees>
              <LongitudeDegrees>-1.98534185998141765594482421875</LongitudeDegrees>
            </Position>
            <AltitudeMeters>7.19999980926513671875</AltitudeMeters>
            <DistanceMeters>NAN</DistanceMeters>
          </Trackpoint>
          <Trackpoint>
            <Time>2021-08-12T09:08:35.000Z</Time>
            <Position>
              <LatitudeDegrees>43.31750728189945220947265625</LatitudeDegrees>
              <LongitudeDegrees>-1.98532752692699432373046875</LongitudeDegrees>
            </Position>
            <AltitudeMeters>7.19999980926513671875</AltitudeMeters>
            <DistanceMeters>NAN</DistanceMeters>
          </Trackpoint>
          <Trackpoint>
            <Time>2021-08-12T09:08:36.000Z</Time>
            <Position>
              <LatitudeDegrees>43.3175320923328399658203125</LatitudeDegrees>
              <LongitudeDegrees>-1.98531679809093475341796875</LongitudeDegrees>
            </Position>
            <AltitudeMeters>7.19999980926513671875</AltitudeMeters>
            <DistanceMeters>NAN</DistanceMeters>
          </Trackpoint>
          <Trackpoint>
            <Time>2021-08-12T09:08:37.000Z</Time>
            <Position>
              <LatitudeDegrees>43.3175537176430225372314453125</LatitudeDegrees>
              <LongitudeDegrees>-1.9853297062218189239501953125</LongitudeDegrees>
            </Position>
            <AltitudeMeters>7.19999980926513671875</AltitudeMeters>
            <DistanceMeters>NAN</DistanceMeters>
          </Trackpoint>
          <Trackpoint>
            <Time>2021-08-12T09:08:40.000Z</Time>
            <Position>
              <LatitudeDegrees>43.3175991475582122802734375</LatitudeDegrees>
              <LongitudeDegrees>-1.98537505231797695159912109375</LongitudeDegrees>
            </Position>
            <AltitudeMeters>7.19999980926513671875</AltitudeMeters>
            <DistanceMeters>NAN</DistanceMeters>
          </Trackpoint>
          <Trackpoint>
            <Time>2021-08-12T09:08:41.000Z</Time>
            <Position>
              <LatitudeDegrees>43.31761113367974758148193359375</LatitudeDegrees>
              <LongitudeDegrees>-1.9853883795440196990966796875</LongitudeDegrees>
            </Position>
            <AltitudeMeters>7</AltitudeMeters>
            <DistanceMeters>NAN</DistanceMeters>
          </Trackpoint>
          <Trackpoint>
            <Time>2021-08-12T09:08:42.000Z</Time>
            <Position>
              <LatitudeDegrees>43.31761725246906280517578125</LatitudeDegrees>
              <LongitudeDegrees>-1.9853987731039524078369140625</LongitudeDegrees>
            </Position>
            <AltitudeMeters>7</AltitudeMeters>
            <DistanceMeters>NAN</DistanceMeters>
          </Trackpoint>
          <Trackpoint>
            <Time>2021-08-12T09:08:43.000Z</Time>
            <Position>
              <LatitudeDegrees>43.31762387417256832122802734375</LatitudeDegrees>
              <LongitudeDegrees>-1.98543020524084568023681640625</LongitudeDegrees>
            </Position>
            <AltitudeMeters>7</AltitudeMeters>
            <DistanceMeters>NAN</DistanceMeters>
          </Trackpoint>
          <Trackpoint>
            <Time>2021-08-12T09:08:44.000Z</Time>
            <Position>
              <LatitudeDegrees>43.31762840040028095245361328125</LatitudeDegrees>
              <LongitudeDegrees>-1.98546339757740497589111328125</LongitudeDegrees>
            </Position>
            <AltitudeMeters>7</AltitudeMeters>
            <DistanceMeters>NAN</DistanceMeters>
          </Trackpoint>
          <Trackpoint>
            <Time>2021-08-12T09:08:45.000Z</Time>
            <Position>
              <LatitudeDegrees>43.31763577647507190704345703125</LatitudeDegrees>
              <LongitudeDegrees>-1.9854966737329959869384765625</LongitudeDegrees>
            </Position>
            <AltitudeMeters>7</AltitudeMeters>
            <DistanceMeters>NAN</DistanceMeters>
          </Trackpoint>
          <Trackpoint>
            <Time>2021-08-12T09:08:46.000Z</Time>
            <Position>
              <LatitudeDegrees>43.31764415837824344635009765625</LatitudeDegrees>
              <LongitudeDegrees>-1.98552408255636692047119140625</LongitudeDegrees>
            </Position>
            <AltitudeMeters>6.80000019073486328125</AltitudeMeters>
            <DistanceMeters>NAN</DistanceMeters>
          </Trackpoint>
          <Trackpoint>
            <Time>2021-08-12T09:08:48.000Z</Time>
            <Position>
              <LatitudeDegrees>43.3176724053919315338134765625</LatitudeDegrees>
              <LongitudeDegrees>-1.985576637089252471923828125</LongitudeDegrees>
            </Position>
            <AltitudeMeters>6.80000019073486328125</AltitudeMeters>
            <DistanceMeters>NAN</DistanceMeters>
          </Trackpoint>
          <Trackpoint>
            <Time>2021-08-12T09:08:49.000Z</Time>
            <Position>
              <LatitudeDegrees>43.31768296658992767333984375</LatitudeDegrees>
              <LongitudeDegrees>-1.9855918921530246734619140625</LongitudeDegrees>
            </Position>
            <AltitudeMeters>6.599999904632568359375</AltitudeMeters>
            <DistanceMeters>NAN</DistanceMeters>
          </Trackpoint>
          <Trackpoint>
            <Time>2021-08-12T09:08:51.000Z</Time>
            <Position>
              <LatitudeDegrees>43.3177009038627147674560546875</LatitudeDegrees>
              <LongitudeDegrees>-1.98563254438340663909912109375</LongitudeDegrees>
            </Position>
            <AltitudeMeters>6.599999904632568359375</AltitudeMeters>
            <DistanceMeters>NAN</DistanceMeters>
          </Trackpoint>
          <Trackpoint>
            <Time>2021-08-12T09:08:54.000Z</Time>
            <Position>
              <LatitudeDegrees>43.3177055977284908294677734375</LatitudeDegrees>
              <LongitudeDegrees>-1.98569105006754398345947265625</LongitudeDegrees>
            </Position>
            <AltitudeMeters>6.400000095367431640625</AltitudeMeters>
            <DistanceMeters>NAN</DistanceMeters>
          </Trackpoint>
          <Trackpoint>
            <Time>2021-08-12T09:08:55.000Z</Time>
            <Position>
              <LatitudeDegrees>43.31771138124167919158935546875</LatitudeDegrees>
              <LongitudeDegrees>-1.985711418092250823974609375</LongitudeDegrees>
            </Position>
            <AltitudeMeters>6.400000095367431640625</AltitudeMeters>
            <DistanceMeters>NAN</DistanceMeters>
          </Trackpoint>
          <Trackpoint>
            <Time>2021-08-12T09:08:56.000Z</Time>
            <Position>
              <LatitudeDegrees>43.31771758385002613067626953125</LatitudeDegrees>
              <LongitudeDegrees>-1.9857343845069408416748046875</LongitudeDegrees>
            </Position>
            <AltitudeMeters>6.19999980926513671875</AltitudeMeters>
            <DistanceMeters>NAN</DistanceMeters>
          </Trackpoint>
          <Trackpoint>
            <Time>2021-08-12T09:08:57.000Z</Time>
            <Position>
              <LatitudeDegrees>43.3177198469638824462890625</LatitudeDegrees>
              <LongitudeDegrees>-1.98575743474066257476806640625</LongitudeDegrees>
            </Position>
            <AltitudeMeters>6.19999980926513671875</AltitudeMeters>
            <DistanceMeters>NAN</DistanceMeters>
          </Trackpoint>
          <Trackpoint>
            <Time>2021-08-12T09:08:58.000Z</Time>
            <Position>
              <LatitudeDegrees>43.31772378645837306976318359375</LatitudeDegrees>
              <LongitudeDegrees>-1.9857783056795597076416015625</LongitudeDegrees>
            </Position>
            <AltitudeMeters>6</AltitudeMeters>
            <DistanceMeters>NAN</DistanceMeters>
          </Trackpoint>
          <Trackpoint>
            <Time>2021-08-12T09:08:59.000Z</Time>
            <Position>
              <LatitudeDegrees>43.317725546658039093017578125</LatitudeDegrees>
              <LongitudeDegrees>-1.98579431511461734771728515625</LongitudeDegrees>
            </Position>
            <AltitudeMeters>6</AltitudeMeters>
            <DistanceMeters>NAN</DistanceMeters>
          </Trackpoint>
          <Trackpoint>
            <Time>2021-08-12T09:09:00.000Z</Time>
            <Position>
              <LatitudeDegrees>43.317733593285083770751953125</LatitudeDegrees>
              <LongitudeDegrees>-1.98581107892096042633056640625</LongitudeDegrees>
            </Position>
            <AltitudeMeters>6</AltitudeMeters>
            <DistanceMeters>NAN</DistanceMeters>
          </Trackpoint>
          <Trackpoint>
            <Time>2021-08-12T09:09:01.000Z</Time>
            <Position>
              <LatitudeDegrees>43.31773652695119380950927734375</LatitudeDegrees>
              <LongitudeDegrees>-1.985826753079891204833984375</LongitudeDegrees>
            </Position>
            <AltitudeMeters>6</AltitudeMeters>
            <DistanceMeters>NAN</DistanceMeters>
          </Trackpoint>
          <Trackpoint>
            <Time>2021-08-12T09:09:02.000Z</Time>
            <Position>
              <LatitudeDegrees>43.3177371136844158172607421875</LatitudeDegrees>
              <LongitudeDegrees>-1.98583790101110935211181640625</LongitudeDegrees>
            </Position>
            <AltitudeMeters>6</AltitudeMeters>
            <DistanceMeters>NAN</DistanceMeters>
          </Trackpoint>
          <Trackpoint>
            <Time>2021-08-12T09:09:03.000Z</Time>
            <Position>
              <LatitudeDegrees>43.31773853860795497894287109375</LatitudeDegrees>
              <LongitudeDegrees>-1.985851228237152099609375</LongitudeDegrees>
            </Position>
            <AltitudeMeters>6</AltitudeMeters>
            <DistanceMeters>NAN</DistanceMeters>
          </Trackpoint>
          <Trackpoint>
            <Time>2021-08-12T09:09:04.000Z</Time>
            <Position>
              <LatitudeDegrees>43.31773853860795497894287109375</LatitudeDegrees>
              <LongitudeDegrees>-1.9858597777783870697021484375</LongitudeDegrees>
            </Position>
            <AltitudeMeters>6</AltitudeMeters>
            <DistanceMeters>NAN</DistanceMeters>
          </Trackpoint>
          <Trackpoint>
            <Time>2021-08-12T09:09:05.000Z</Time>
            <Position>
              <LatitudeDegrees>43.31773786805570125579833984375</LatitudeDegrees>
              <LongitudeDegrees>-1.98586639948189258575439453125</LongitudeDegrees>
            </Position>
            <AltitudeMeters>6</AltitudeMeters>
            <DistanceMeters>NAN</DistanceMeters>
          </Trackpoint>
          <Trackpoint>
            <Time>2021-08-12T09:09:06.000Z</Time>
            <Position>
              <LatitudeDegrees>43.31773635931313037872314453125</LatitudeDegrees>
              <LongitudeDegrees>-1.98587000370025634765625</LongitudeDegrees>
            </Position>
            <AltitudeMeters>6</AltitudeMeters>
            <DistanceMeters>NAN</DistanceMeters>
          </Trackpoint>
          <Trackpoint>
            <Time>2021-08-12T09:09:07.000Z</Time>
            <Position>
              <LatitudeDegrees>43.31773635931313037872314453125</LatitudeDegrees>
              <LongitudeDegrees>-1.98587000370025634765625</LongitudeDegrees>
            </Position>
            <AltitudeMeters>6</AltitudeMeters>
            <DistanceMeters>NAN</DistanceMeters>
          </Trackpoint>
          <Trackpoint>
            <Time>2021-08-12T09:09:34.000Z</Time>
            <Position>
              <LatitudeDegrees>43.31773635931313037872314453125</LatitudeDegrees>
              <LongitudeDegrees>-1.98587000370025634765625</LongitudeDegrees>
            </Position>
            <AltitudeMeters>5.80000019073486328125</AltitudeMeters>
            <DistanceMeters>NAN</DistanceMeters>
          </Trackpoint>
          <Trackpoint>
            <Time>2021-08-12T09:11:07.000Z</Time>
            <Position>
              <LatitudeDegrees>43.31773635931313037872314453125</LatitudeDegrees>
              <LongitudeDegrees>-1.98587000370025634765625</LongitudeDegrees>
            </Position>
            <AltitudeMeters>5.80000019073486328125</AltitudeMeters>
            <DistanceMeters>NAN</DistanceMeters>
          </Trackpoint>
          <Trackpoint>
            <Time>2021-08-12T09:12:29.000Z</Time>
            <Position>
              <LatitudeDegrees>43.31773635931313037872314453125</LatitudeDegrees>
              <LongitudeDegrees>-1.98587000370025634765625</LongitudeDegrees>
            </Position>
            <AltitudeMeters>5.599999904632568359375</AltitudeMeters>
            <DistanceMeters>NAN</DistanceMeters>
          </Trackpoint>
          <Trackpoint>
            <Time>2021-08-12T09:29:33.000Z</Time>
            <Position>
              <LatitudeDegrees>43.3177803643047809600830078125</LatitudeDegrees>
              <LongitudeDegrees>-1.98594150133430957794189453125</LongitudeDegrees>
            </Position>
            <AltitudeMeters>4.19999980926513671875</AltitudeMeters>
            <DistanceMeters>NAN</DistanceMeters>
          </Trackpoint>
          <Trackpoint>
            <Time>2021-08-12T09:29:35.000Z</Time>
            <Position>
              <LatitudeDegrees>43.3177585713565349578857421875</LatitudeDegrees>
              <LongitudeDegrees>-1.9858852587640285491943359375</LongitudeDegrees>
            </Position>
            <AltitudeMeters>4</AltitudeMeters>
            <DistanceMeters>NAN</DistanceMeters>
          </Trackpoint>
          <Trackpoint>
            <Time>2021-08-12T09:29:41.000Z</Time>
            <Position>
              <LatitudeDegrees>43.31773350946605205535888671875</LatitudeDegrees>
              <LongitudeDegrees>-1.985795907676219940185546875</LongitudeDegrees>
            </Position>
            <AltitudeMeters>4</AltitudeMeters>
            <DistanceMeters>NAN</DistanceMeters>
          </Trackpoint>
          <Trackpoint>
            <Time>2021-08-12T09:29:42.000Z</Time>
            <Position>
              <LatitudeDegrees>43.3177347667515277862548828125</LatitudeDegrees>
              <LongitudeDegrees>-1.98578291572630405426025390625</LongitudeDegrees>
            </Position>
            <AltitudeMeters>4</AltitudeMeters>
            <DistanceMeters>NAN</DistanceMeters>
          </Trackpoint>
          <Trackpoint>
            <Time>2021-08-12T09:29:44.000Z</Time>
            <Position>
              <LatitudeDegrees>43.3177314139902591705322265625</LatitudeDegrees>
              <LongitudeDegrees>-1.98576472699642181396484375</LongitudeDegrees>
            </Position>
            <AltitudeMeters>4</AltitudeMeters>
            <DistanceMeters>NAN</DistanceMeters>
          </Trackpoint>
          <Trackpoint>
            <Time>2021-08-12T09:29:46.000Z</Time>
            <Position>
              <LatitudeDegrees>43.31773116253316402435302734375</LatitudeDegrees>
              <LongitudeDegrees>-1.98574217967689037322998046875</LongitudeDegrees>
            </Position>
            <AltitudeMeters>4.19999980926513671875</AltitudeMeters>
            <DistanceMeters>NAN</DistanceMeters>
          </Trackpoint>
          <Trackpoint>
            <Time>2021-08-12T09:29:47.000Z</Time>
            <Position>
              <LatitudeDegrees>43.31772831268608570098876953125</LatitudeDegrees>
              <LongitudeDegrees>-1.98572985827922821044921875</LongitudeDegrees>
            </Position>
            <AltitudeMeters>4.19999980926513671875</AltitudeMeters>
            <DistanceMeters>NAN</DistanceMeters>
          </Trackpoint>
          <Trackpoint>
            <Time>2021-08-12T09:29:49.000Z</Time>
            <Position>
              <LatitudeDegrees>43.31773401238024234771728515625</LatitudeDegrees>
              <LongitudeDegrees>-1.9857102446258068084716796875</LongitudeDegrees>
            </Position>
            <AltitudeMeters>4.19999980926513671875</AltitudeMeters>
            <DistanceMeters>NAN</DistanceMeters>
          </Trackpoint>
          <Trackpoint>
            <Time>2021-08-12T09:29:50.000Z</Time>
            <Position>
              <LatitudeDegrees>43.3177337609231472015380859375</LatitudeDegrees>
              <LongitudeDegrees>-1.98570731095969676971435546875</LongitudeDegrees>
            </Position>
            <AltitudeMeters>4.19999980926513671875</AltitudeMeters>
            <DistanceMeters>NAN</DistanceMeters>
          </Trackpoint>
          <Trackpoint>
            <Time>2021-08-12T09:29:53.000Z</Time>
            <Position>
              <LatitudeDegrees>43.317731581628322601318359375</LatitudeDegrees>
              <LongitudeDegrees>-1.985716782510280609130859375</LongitudeDegrees>
            </Position>
            <AltitudeMeters>4.19999980926513671875</AltitudeMeters>
            <DistanceMeters>NAN</DistanceMeters>
          </Trackpoint>
          <Trackpoint>
            <Time>2021-08-12T09:29:57.000Z</Time>
            <Position>
              <LatitudeDegrees>43.317721523344516754150390625</LatitudeDegrees>
              <LongitudeDegrees>-1.98570546694099903106689453125</LongitudeDegrees>
            </Position>
            <AltitudeMeters>4.400000095367431640625</AltitudeMeters>
            <DistanceMeters>NAN</DistanceMeters>
          </Trackpoint>
          <Trackpoint>
            <Time>2021-08-12T09:29:59.000Z</Time>
            <Position>
              <LatitudeDegrees>43.31770668737590312957763671875</LatitudeDegrees>
              <LongitudeDegrees>-1.98567059822380542755126953125</LongitudeDegrees>
            </Position>
            <AltitudeMeters>4.400000095367431640625</AltitudeMeters>
            <DistanceMeters>NAN</DistanceMeters>
          </Trackpoint>
          <Trackpoint>
            <Time>2021-08-12T09:30:01.000Z</Time>
            <Position>
              <LatitudeDegrees>43.3176921866834163665771484375</LatitudeDegrees>
              <LongitudeDegrees>-1.98563539423048496246337890625</LongitudeDegrees>
            </Position>
            <AltitudeMeters>4.400000095367431640625</AltitudeMeters>
            <DistanceMeters>NAN</DistanceMeters>
          </Trackpoint>
          <Trackpoint>
            <Time>2021-08-12T09:30:02.000Z</Time>
            <Position>
              <LatitudeDegrees>43.31768757663667201995849609375</LatitudeDegrees>
              <LongitudeDegrees>-1.98561812750995159149169921875</LongitudeDegrees>
            </Position>
            <AltitudeMeters>4.400000095367431640625</AltitudeMeters>
            <DistanceMeters>NAN</DistanceMeters>
          </Trackpoint>
          <Trackpoint>
            <Time>2021-08-12T09:30:03.000Z</Time>
            <Position>
              <LatitudeDegrees>43.3176730759441852569580078125</LatitudeDegrees>
              <LongitudeDegrees>-1.98560153134167194366455078125</LongitudeDegrees>
            </Position>
            <AltitudeMeters>4.599999904632568359375</AltitudeMeters>
            <DistanceMeters>NAN</DistanceMeters>
          </Trackpoint>
          <Trackpoint>
            <Time>2021-08-12T09:30:04.000Z</Time>
            <Position>
              <LatitudeDegrees>43.31765974871814250946044921875</LatitudeDegrees>
              <LongitudeDegrees>-1.9855897128582000732421875</LongitudeDegrees>
            </Position>
            <AltitudeMeters>4.80000019073486328125</AltitudeMeters>
            <DistanceMeters>NAN</DistanceMeters>
          </Trackpoint>
          <Trackpoint>
            <Time>2021-08-12T09:30:05.000Z</Time>
            <Position>
              <LatitudeDegrees>43.31765212118625640869140625</LatitudeDegrees>
              <LongitudeDegrees>-1.98556783609092235565185546875</LongitudeDegrees>
            </Position>
            <AltitudeMeters>4.80000019073486328125</AltitudeMeters>
            <DistanceMeters>NAN</DistanceMeters>
          </Trackpoint>
          <Trackpoint>
            <Time>2021-08-12T09:30:07.000Z</Time>
            <Position>
              <LatitudeDegrees>43.3176382072269916534423828125</LatitudeDegrees>
              <LongitudeDegrees>-1.9855131022632122039794921875</LongitudeDegrees>
            </Position>
            <AltitudeMeters>4.80000019073486328125</AltitudeMeters>
            <DistanceMeters>NAN</DistanceMeters>
          </Trackpoint>
          <Trackpoint>
            <Time>2021-08-12T09:30:08.000Z</Time>
            <Position>
              <LatitudeDegrees>43.31763443537056446075439453125</LatitudeDegrees>
              <LongitudeDegrees>-1.985486112534999847412109375</LongitudeDegrees>
            </Position>
            <AltitudeMeters>5</AltitudeMeters>
            <DistanceMeters>NAN</DistanceMeters>
          </Trackpoint>
          <Trackpoint>
            <Time>2021-08-12T09:30:09.000Z</Time>
            <Position>
              <LatitudeDegrees>43.3176358602941036224365234375</LatitudeDegrees>
              <LongitudeDegrees>-1.98546138592064380645751953125</LongitudeDegrees>
            </Position>
            <AltitudeMeters>4.80000019073486328125</AltitudeMeters>
            <DistanceMeters>NAN</DistanceMeters>
          </Trackpoint>
          <Trackpoint>
            <Time>2021-08-12T09:30:11.000Z</Time>
            <Position>
              <LatitudeDegrees>43.31763074733316898345947265625</LatitudeDegrees>
              <LongitudeDegrees>-1.9854249246418476104736328125</LongitudeDegrees>
            </Position>
            <AltitudeMeters>5</AltitudeMeters>
            <DistanceMeters>NAN</DistanceMeters>
          </Trackpoint>
          <Trackpoint>
            <Time>2021-08-12T09:30:12.000Z</Time>
            <Position>
              <LatitudeDegrees>43.31763074733316898345947265625</LatitudeDegrees>
              <LongitudeDegrees>-1.9854071550071239471435546875</LongitudeDegrees>
            </Position>
            <AltitudeMeters>5</AltitudeMeters>
            <DistanceMeters>NAN</DistanceMeters>
          </Trackpoint>
          <Trackpoint>
            <Time>2021-08-12T09:30:13.000Z</Time>
            <Position>
              <LatitudeDegrees>43.31761649809777736663818359375</LatitudeDegrees>
              <LongitudeDegrees>-1.98539634235203266143798828125</LongitudeDegrees>
            </Position>
            <AltitudeMeters>5</AltitudeMeters>
            <DistanceMeters>NAN</DistanceMeters>
          </Trackpoint>
          <Trackpoint>
            <Time>2021-08-12T09:30:14.000Z</Time>
            <Position>
              <LatitudeDegrees>43.31760157831013202667236328125</LatitudeDegrees>
              <LongitudeDegrees>-1.98539189994335174560546875</LongitudeDegrees>
            </Position>
            <AltitudeMeters>5</AltitudeMeters>
            <DistanceMeters>NAN</DistanceMeters>
          </Trackpoint>
          <Trackpoint>
            <Time>2021-08-12T09:30:15.000Z</Time>
            <Position>
              <LatitudeDegrees>43.31758766435086727142333984375</LatitudeDegrees>
              <LongitudeDegrees>-1.9853927381336688995361328125</LongitudeDegrees>
            </Position>
            <AltitudeMeters>5</AltitudeMeters>
            <DistanceMeters>NAN</DistanceMeters>
          </Trackpoint>
          <Trackpoint>
            <Time>2021-08-12T09:30:18.000Z</Time>
            <Position>
              <LatitudeDegrees>43.31757442094385623931884765625</LatitudeDegrees>
              <LongitudeDegrees>-1.98539734818041324615478515625</LongitudeDegrees>
            </Position>
            <AltitudeMeters>5.19999980926513671875</AltitudeMeters>
            <DistanceMeters>NAN</DistanceMeters>
          </Trackpoint>
          <Trackpoint>
            <Time>2021-08-12T09:30:27.000Z</Time>
            <Position>
              <LatitudeDegrees>43.31755430437624454498291015625</LatitudeDegrees>
              <LongitudeDegrees>-1.98543188162147998809814453125</LongitudeDegrees>
            </Position>
            <AltitudeMeters>5.19999980926513671875</AltitudeMeters>
            <DistanceMeters>NAN</DistanceMeters>
          </Trackpoint>
          <Trackpoint>
            <Time>2021-08-12T09:30:36.000Z</Time>
            <Position>
              <LatitudeDegrees>43.3175547234714031219482421875</LatitudeDegrees>
              <LongitudeDegrees>-1.9854282774031162261962890625</LongitudeDegrees>
            </Position>
            <AltitudeMeters>5.400000095367431640625</AltitudeMeters>
            <DistanceMeters>NAN</DistanceMeters>
          </Trackpoint>
          <Trackpoint>
            <Time>2021-08-12T09:30:37.000Z</Time>
            <Position>
              <LatitudeDegrees>43.3175486885011196136474609375</LatitudeDegrees>
              <LongitudeDegrees>-1.985417716205120086669921875</LongitudeDegrees>
            </Position>
            <AltitudeMeters>5.400000095367431640625</AltitudeMeters>
            <DistanceMeters>NAN</DistanceMeters>
          </Trackpoint>
          <Trackpoint>
            <Time>2021-08-12T09:30:40.000Z</Time>
            <Position>
              <LatitudeDegrees>43.31753904931247234344482421875</LatitudeDegrees>
              <LongitudeDegrees>-1.98539164848625659942626953125</LongitudeDegrees>
            </Position>
            <AltitudeMeters>5.400000095367431640625</AltitudeMeters>
            <DistanceMeters>NAN</DistanceMeters>
          </Trackpoint>
          <Trackpoint>
            <Time>2021-08-12T09:30:54.000Z</Time>
            <Position>
              <LatitudeDegrees>43.31753787584602832794189453125</LatitudeDegrees>
              <LongitudeDegrees>-1.9853890500962734222412109375</LongitudeDegrees>
            </Position>
            <AltitudeMeters>5.400000095367431640625</AltitudeMeters>
            <DistanceMeters>NAN</DistanceMeters>
          </Trackpoint>
          <Trackpoint>
            <Time>2021-08-12T09:30:55.000Z</Time>
            <Position>
              <LatitudeDegrees>43.31752731464803218841552734375</LatitudeDegrees>
              <LongitudeDegrees>-1.98537991382181644439697265625</LongitudeDegrees>
            </Position>
            <AltitudeMeters>5.400000095367431640625</AltitudeMeters>
            <DistanceMeters>NAN</DistanceMeters>
          </Trackpoint>
          <Trackpoint>
            <Time>2021-08-12T09:30:58.000Z</Time>
            <Position>
              <LatitudeDegrees>43.3174806274473667144775390625</LatitudeDegrees>
              <LongitudeDegrees>-1.98536717332899570465087890625</LongitudeDegrees>
            </Position>
            <AltitudeMeters>5.400000095367431640625</AltitudeMeters>
            <DistanceMeters>NAN</DistanceMeters>
          </Trackpoint>
          <Trackpoint>
            <Time>2021-08-12T09:30:59.000Z</Time>
            <Position>
              <LatitudeDegrees>43.3174524642527103424072265625</LatitudeDegrees>
              <LongitudeDegrees>-1.98536281473934650421142578125</LongitudeDegrees>
            </Position>
            <AltitudeMeters>5.400000095367431640625</AltitudeMeters>
            <DistanceMeters>NAN</DistanceMeters>
          </Trackpoint>
          <Trackpoint>
            <Time>2021-08-12T09:31:00.000Z</Time>
            <Position>
              <LatitudeDegrees>43.3174196071922779083251953125</LatitudeDegrees>
              <LongitudeDegrees>-1.98534722439944744110107421875</LongitudeDegrees>
            </Position>
            <AltitudeMeters>5.400000095367431640625</AltitudeMeters>
            <DistanceMeters>NAN</DistanceMeters>
          </Trackpoint>
          <Trackpoint>
            <Time>2021-08-12T09:31:02.000Z</Time>
            <Position>
              <LatitudeDegrees>43.3173518814146518707275390625</LatitudeDegrees>
              <LongitudeDegrees>-1.9853008724749088287353515625</LongitudeDegrees>
            </Position>
            <AltitudeMeters>5.400000095367431640625</AltitudeMeters>
            <DistanceMeters>NAN</DistanceMeters>
          </Trackpoint>
          <Trackpoint>
            <Time>2021-08-12T09:31:04.000Z</Time>
            <Position>
              <LatitudeDegrees>43.31728876568377017974853515625</LatitudeDegrees>
              <LongitudeDegrees>-1.985273547470569610595703125</LongitudeDegrees>
            </Position>
            <AltitudeMeters>5.400000095367431640625</AltitudeMeters>
            <DistanceMeters>NAN</DistanceMeters>
          </Trackpoint>
          <Trackpoint>
            <Time>2021-08-12T09:31:05.000Z</Time>
            <Position>
              <LatitudeDegrees>43.31726412288844585418701171875</LatitudeDegrees>
              <LongitudeDegrees>-1.98525510728359222412109375</LongitudeDegrees>
            </Position>
            <AltitudeMeters>5.400000095367431640625</AltitudeMeters>
            <DistanceMeters>NAN</DistanceMeters>
          </Trackpoint>
          <Trackpoint>
            <Time>2021-08-12T09:31:06.000Z</Time>
            <Position>
              <LatitudeDegrees>43.31724098883569240570068359375</LatitudeDegrees>
              <LongitudeDegrees>-1.98523306287825107574462890625</LongitudeDegrees>
            </Position>
            <AltitudeMeters>5.400000095367431640625</AltitudeMeters>
            <DistanceMeters>NAN</DistanceMeters>
          </Trackpoint>
          <Trackpoint>
            <Time>2021-08-12T09:31:07.000Z</Time>
            <Position>
              <LatitudeDegrees>43.31722070463001728057861328125</LatitudeDegrees>
              <LongitudeDegrees>-1.9852143712341785430908203125</LongitudeDegrees>
            </Position>
            <AltitudeMeters>5.400000095367431640625</AltitudeMeters>
            <DistanceMeters>NAN</DistanceMeters>
          </Trackpoint>
          <Trackpoint>
            <Time>2021-08-12T09:31:08.000Z</Time>
            <Position>
              <LatitudeDegrees>43.31722070463001728057861328125</LatitudeDegrees>
              <LongitudeDegrees>-1.9852143712341785430908203125</LongitudeDegrees>
            </Position>
            <AltitudeMeters>5.400000095367431640625</AltitudeMeters>
            <DistanceMeters>NAN</DistanceMeters>
          </Trackpoint>
          <Trackpoint>
            <Time>2021-08-12T09:31:09.000Z</Time>
            <Position>
              <LatitudeDegrees>43.31718273460865020751953125</LatitudeDegrees>
              <LongitudeDegrees>-1.98517690412700176239013671875</LongitudeDegrees>
            </Position>
            <AltitudeMeters>5.400000095367431640625</AltitudeMeters>
            <DistanceMeters>NAN</DistanceMeters>
          </Trackpoint>
          <Trackpoint>
            <Time>2021-08-12T09:31:10.000Z</Time>
            <Position>
              <LatitudeDegrees>43.317174352705478668212890625</LatitudeDegrees>
              <LongitudeDegrees>-1.9851496629416942596435546875</LongitudeDegrees>
            </Position>
            <AltitudeMeters>5.400000095367431640625</AltitudeMeters>
            <DistanceMeters>NAN</DistanceMeters>
          </Trackpoint>
          <Trackpoint>
            <Time>2021-08-12T09:31:11.000Z</Time>
            <Position>
              <LatitudeDegrees>43.31716991029679775238037109375</LatitudeDegrees>
              <LongitudeDegrees>-1.98512502014636993408203125</LongitudeDegrees>
            </Position>
            <AltitudeMeters>5.400000095367431640625</AltitudeMeters>
            <DistanceMeters>NAN</DistanceMeters>
          </Trackpoint>
          <Trackpoint>
            <Time>2021-08-12T09:31:12.000Z</Time>
            <Position>
              <LatitudeDegrees>43.3171646296977996826171875</LatitudeDegrees>
              <LongitudeDegrees>-1.9851090945303440093994140625</LongitudeDegrees>
            </Position>
            <AltitudeMeters>5.19999980926513671875</AltitudeMeters>
            <DistanceMeters>NAN</DistanceMeters>
          </Trackpoint>
          <Trackpoint>
            <Time>2021-08-12T09:31:13.000Z</Time>
            <Position>
              <LatitudeDegrees>43.3171611092984676361083984375</LatitudeDegrees>
              <LongitudeDegrees>-1.9850956834852695465087890625</LongitudeDegrees>
            </Position>
            <AltitudeMeters>5.19999980926513671875</AltitudeMeters>
            <DistanceMeters>NAN</DistanceMeters>
          </Trackpoint>
          <Trackpoint>
            <Time>2021-08-12T09:31:14.000Z</Time>
            <Position>
              <LatitudeDegrees>43.31715834327042102813720703125</LatitudeDegrees>
              <LongitudeDegrees>-1.9850814342498779296875</LongitudeDegrees>
            </Position>
            <AltitudeMeters>5.19999980926513671875</AltitudeMeters>
            <DistanceMeters>NAN</DistanceMeters>
          </Trackpoint>
          <Trackpoint>
            <Time>2021-08-12T09:31:15.000Z</Time>
            <Position>
              <LatitudeDegrees>43.31715323030948638916015625</LatitudeDegrees>
              <LongitudeDegrees>-1.98507162742316722869873046875</LongitudeDegrees>
            </Position>
            <AltitudeMeters>5.19999980926513671875</AltitudeMeters>
            <DistanceMeters>NAN</DistanceMeters>
          </Trackpoint>
          <Trackpoint>
            <Time>2021-08-12T09:31:16.000Z</Time>
            <Position>
              <LatitudeDegrees>43.3171378076076507568359375</LatitudeDegrees>
              <LongitudeDegrees>-1.98505838401615619659423828125</LongitudeDegrees>
            </Position>
            <AltitudeMeters>5.19999980926513671875</AltitudeMeters>
            <DistanceMeters>NAN</DistanceMeters>
          </Trackpoint>
          <Trackpoint>
            <Time>2021-08-12T09:31:20.000Z</Time>
            <Position>
              <LatitudeDegrees>43.31706094555556774139404296875</LatitudeDegrees>
              <LongitudeDegrees>-1.98500323109328746795654296875</LongitudeDegrees>
            </Position>
            <AltitudeMeters>5.19999980926513671875</AltitudeMeters>
            <DistanceMeters>NAN</DistanceMeters>
          </Trackpoint>
          <Trackpoint>
            <Time>2021-08-12T09:31:21.000Z</Time>
            <Position>
              <LatitudeDegrees>43.31704594194889068603515625</LatitudeDegrees>
              <LongitudeDegrees>-1.98498780839145183563232421875</LongitudeDegrees>
            </Position>
            <AltitudeMeters>5.19999980926513671875</AltitudeMeters>
            <DistanceMeters>NAN</DistanceMeters>
          </Trackpoint>
          <Trackpoint>
            <Time>2021-08-12T09:31:22.000Z</Time>
            <Position>
              <LatitudeDegrees>43.31702708266675472259521484375</LatitudeDegrees>
              <LongitudeDegrees>-1.98497422970831394195556640625</LongitudeDegrees>
            </Position>
            <AltitudeMeters>5.400000095367431640625</AltitudeMeters>
            <DistanceMeters>NAN</DistanceMeters>
          </Trackpoint>
          <Trackpoint>
            <Time>2021-08-12T09:31:23.000Z</Time>
            <Position>
              <LatitudeDegrees>43.3170021884143352508544921875</LatitudeDegrees>
              <LongitudeDegrees>-1.9849468208849430084228515625</LongitudeDegrees>
            </Position>
            <AltitudeMeters>5.400000095367431640625</AltitudeMeters>
            <DistanceMeters>NAN</DistanceMeters>
          </Trackpoint>
          <Trackpoint>
            <Time>2021-08-12T09:31:28.000Z</Time>
            <Position>
              <LatitudeDegrees>43.3168965764343738555908203125</LatitudeDegrees>
              <LongitudeDegrees>-1.98485587723553180694580078125</LongitudeDegrees>
            </Position>
            <AltitudeMeters>5.400000095367431640625</AltitudeMeters>
            <DistanceMeters>NAN</DistanceMeters>
          </Trackpoint>
          <Trackpoint>
            <Time>2021-08-12T09:31:29.000Z</Time>
            <Position>
              <LatitudeDegrees>43.316873945295810699462890625</LatitudeDegrees>
              <LongitudeDegrees>-1.98484280146658420562744140625</LongitudeDegrees>
            </Position>
            <AltitudeMeters>5.400000095367431640625</AltitudeMeters>
            <DistanceMeters>NAN</DistanceMeters>
          </Trackpoint>
          <Trackpoint>
            <Time>2021-08-12T09:31:34.000Z</Time>
            <Position>
              <LatitudeDegrees>43.31677109934389591217041015625</LatitudeDegrees>
              <LongitudeDegrees>-1.9847811944782733917236328125</LongitudeDegrees>
            </Position>
            <AltitudeMeters>5.19999980926513671875</AltitudeMeters>
            <DistanceMeters>NAN</DistanceMeters>
          </Trackpoint>
          <Trackpoint>
            <Time>2021-08-12T09:31:35.000Z</Time>
            <Position>
              <LatitudeDegrees>43.31675282679498195648193359375</LatitudeDegrees>
              <LongitudeDegrees>-1.9847734831273555755615234375</LongitudeDegrees>
            </Position>
            <AltitudeMeters>5.19999980926513671875</AltitudeMeters>
            <DistanceMeters>NAN</DistanceMeters>
          </Trackpoint>
          <Trackpoint>
            <Time>2021-08-12T09:31:36.000Z</Time>
            <Position>
              <LatitudeDegrees>43.31674545072019100189208984375</LatitudeDegrees>
              <LongitudeDegrees>-1.98476920835673809051513671875</LongitudeDegrees>
            </Position>
            <AltitudeMeters>5.19999980926513671875</AltitudeMeters>
            <DistanceMeters>NAN</DistanceMeters>
          </Trackpoint>
          <Trackpoint>
            <Time>2021-08-12T09:31:42.000Z</Time>
            <Position>
              <LatitudeDegrees>43.316696584224700927734375</LatitudeDegrees>
              <LongitudeDegrees>-1.98475780896842479705810546875</LongitudeDegrees>
            </Position>
            <AltitudeMeters>5.19999980926513671875</AltitudeMeters>
            <DistanceMeters>NAN</DistanceMeters>
          </Trackpoint>
          <Trackpoint>
            <Time>2021-08-12T09:31:47.000Z</Time>
            <Position>
              <LatitudeDegrees>43.31666649319231510162353515625</LatitudeDegrees>
              <LongitudeDegrees>-1.9847369380295276641845703125</LongitudeDegrees>
            </Position>
            <AltitudeMeters>5.400000095367431640625</AltitudeMeters>
            <DistanceMeters>NAN</DistanceMeters>
          </Trackpoint>
          <Trackpoint>
            <Time>2021-08-12T09:31:48.000Z</Time>
            <Position>
              <LatitudeDegrees>43.3166568540036678314208984375</LatitudeDegrees>
              <LongitudeDegrees>-1.98472805321216583251953125</LongitudeDegrees>
            </Position>
            <AltitudeMeters>5.400000095367431640625</AltitudeMeters>
            <DistanceMeters>NAN</DistanceMeters>
          </Trackpoint>
          <Trackpoint>
            <Time>2021-08-12T09:31:49.000Z</Time>
            <Position>
              <LatitudeDegrees>43.31664922647178173065185546875</LatitudeDegrees>
              <LongitudeDegrees>-1.98471841402351856231689453125</LongitudeDegrees>
            </Position>
            <AltitudeMeters>5.19999980926513671875</AltitudeMeters>
            <DistanceMeters>NAN</DistanceMeters>
          </Trackpoint>
          <Trackpoint>
            <Time>2021-08-12T09:31:50.000Z</Time>
            <Position>
              <LatitudeDegrees>43.316646628081798553466796875</LatitudeDegrees>
              <LongitudeDegrees>-1.98471036739647388458251953125</LongitudeDegrees>
            </Position>
            <AltitudeMeters>5.19999980926513671875</AltitudeMeters>
            <DistanceMeters>NAN</DistanceMeters>
          </Trackpoint>
          <Trackpoint>
            <Time>2021-08-12T09:31:51.000Z</Time>
            <Position>
              <LatitudeDegrees>43.3166442811489105224609375</LatitudeDegrees>
              <LongitudeDegrees>-1.984703578054904937744140625</LongitudeDegrees>
            </Position>
            <AltitudeMeters>5.19999980926513671875</AltitudeMeters>
            <DistanceMeters>NAN</DistanceMeters>
          </Trackpoint>
          <Trackpoint>
            <Time>2021-08-12T09:31:52.000Z</Time>
            <Position>
              <LatitudeDegrees>43.3166337199509143829345703125</LatitudeDegrees>
              <LongitudeDegrees>-1.9846906699240207672119140625</LongitudeDegrees>
            </Position>
            <AltitudeMeters>5.19999980926513671875</AltitudeMeters>
            <DistanceMeters>NAN</DistanceMeters>
          </Trackpoint>
          <Trackpoint>
            <Time>2021-08-12T09:31:53.000Z</Time>
            <Position>
              <LatitudeDegrees>43.3166270144283771514892578125</LatitudeDegrees>
              <LongitudeDegrees>-1.98467885144054889678955078125</LongitudeDegrees>
            </Position>
            <AltitudeMeters>5.19999980926513671875</AltitudeMeters>
            <DistanceMeters>NAN</DistanceMeters>
          </Trackpoint>
          <Trackpoint>
            <Time>2021-08-12T09:31:54.000Z</Time>
            <Position>
              <LatitudeDegrees>43.31662475131452083587646484375</LatitudeDegrees>
              <LongitudeDegrees>-1.98467415757477283477783203125</LongitudeDegrees>
            </Position>
            <AltitudeMeters>5.19999980926513671875</AltitudeMeters>
            <DistanceMeters>NAN</DistanceMeters>
          </Trackpoint>
          <Trackpoint>
            <Time>2021-08-12T09:31:57.000Z</Time>
            <Position>
              <LatitudeDegrees>43.31661955453455448150634765625</LatitudeDegrees>
              <LongitudeDegrees>-1.98467248119413852691650390625</LongitudeDegrees>
            </Position>
            <AltitudeMeters>5.19999980926513671875</AltitudeMeters>
            <DistanceMeters>NAN</DistanceMeters>
          </Trackpoint>
          <Trackpoint>
            <Time>2021-08-12T09:31:58.000Z</Time>
            <Position>
              <LatitudeDegrees>43.3166042156517505645751953125</LatitudeDegrees>
              <LongitudeDegrees>-1.98466108180582523345947265625</LongitudeDegrees>
            </Position>
            <AltitudeMeters>5.400000095367431640625</AltitudeMeters>
            <DistanceMeters>NAN</DistanceMeters>
          </Trackpoint>
          <Trackpoint>
            <Time>2021-08-12T09:31:59.000Z</Time>
            <Position>
              <LatitudeDegrees>43.3165874518454074859619140625</LatitudeDegrees>
              <LongitudeDegrees>-1.98464691638946533203125</LongitudeDegrees>
            </Position>
            <AltitudeMeters>5.400000095367431640625</AltitudeMeters>
            <DistanceMeters>NAN</DistanceMeters>
          </Trackpoint>
          <Trackpoint>
            <Time>2021-08-12T09:32:01.000Z</Time>
            <Position>
              <LatitudeDegrees>43.31654193811118602752685546875</LatitudeDegrees>
              <LongitudeDegrees>-1.98461649008095264434814453125</LongitudeDegrees>
            </Position>
            <AltitudeMeters>5.400000095367431640625</AltitudeMeters>
            <DistanceMeters>NAN</DistanceMeters>
          </Trackpoint>
          <Trackpoint>
            <Time>2021-08-12T09:32:02.000Z</Time>
            <Position>
              <LatitudeDegrees>43.31651226617395877838134765625</LatitudeDegrees>
              <LongitudeDegrees>-1.9846018217504024505615234375</LongitudeDegrees>
            </Position>
            <AltitudeMeters>5.400000095367431640625</AltitudeMeters>
            <DistanceMeters>NAN</DistanceMeters>
          </Trackpoint>
          <Trackpoint>
            <Time>2021-08-12T09:32:05.000Z</Time>
            <Position>
              <LatitudeDegrees>43.31641989760100841522216796875</LatitudeDegrees>
              <LongitudeDegrees>-1.9845441542565822601318359375</LongitudeDegrees>
            </Position>
            <AltitudeMeters>5.400000095367431640625</AltitudeMeters>
            <DistanceMeters>NAN</DistanceMeters>
          </Trackpoint>
          <Trackpoint>
            <Time>2021-08-12T09:32:06.000Z</Time>
            <Position>
              <LatitudeDegrees>43.3163996972143650054931640625</LatitudeDegrees>
              <LongitudeDegrees>-1.98452278040349483489990234375</LongitudeDegrees>
            </Position>
            <AltitudeMeters>5.400000095367431640625</AltitudeMeters>
            <DistanceMeters>NAN</DistanceMeters>
          </Trackpoint>
          <Trackpoint>
            <Time>2021-08-12T09:32:07.000Z</Time>
            <Position>
              <LatitudeDegrees>43.31637932918965816497802734375</LatitudeDegrees>
              <LongitudeDegrees>-1.9845035858452320098876953125</LongitudeDegrees>
            </Position>
            <AltitudeMeters>5.400000095367431640625</AltitudeMeters>
            <DistanceMeters>NAN</DistanceMeters>
          </Trackpoint>
          <Trackpoint>
            <Time>2021-08-12T09:32:08.000Z</Time>
            <Position>
              <LatitudeDegrees>43.31635686568915843963623046875</LatitudeDegrees>
              <LongitudeDegrees>-1.9844827987253665924072265625</LongitudeDegrees>
            </Position>
            <AltitudeMeters>5.400000095367431640625</AltitudeMeters>
            <DistanceMeters>NAN</DistanceMeters>
          </Trackpoint>
          <Trackpoint>
            <Time>2021-08-12T09:32:09.000Z</Time>
            <Position>
              <LatitudeDegrees>43.316329456865787506103515625</LatitudeDegrees>
              <LongitudeDegrees>-1.98446460999548435211181640625</LongitudeDegrees>
            </Position>
            <AltitudeMeters>5.400000095367431640625</AltitudeMeters>
            <DistanceMeters>NAN</DistanceMeters>
          </Trackpoint>
          <Trackpoint>
            <Time>2021-08-12T09:32:12.000Z</Time>
            <Position>
              <LatitudeDegrees>43.3162337355315685272216796875</LatitudeDegrees>
              <LongitudeDegrees>-1.98441146872937679290771484375</LongitudeDegrees>
            </Position>
            <AltitudeMeters>5.599999904632568359375</AltitudeMeters>
            <DistanceMeters>NAN</DistanceMeters>
          </Trackpoint>
          <Trackpoint>
            <Time>2021-08-12T09:32:13.000Z</Time>
            <Position>
              <LatitudeDegrees>43.31620196811854839324951171875</LatitudeDegrees>
              <LongitudeDegrees>-1.98439856059849262237548828125</LongitudeDegrees>
            </Position>
            <AltitudeMeters>5.599999904632568359375</AltitudeMeters>
            <DistanceMeters>NAN</DistanceMeters>
          </Trackpoint>
          <Trackpoint>
            <Time>2021-08-12T09:32:14.000Z</Time>
            <Position>
              <LatitudeDegrees>43.3161740563809871673583984375</LatitudeDegrees>
              <LongitudeDegrees>-1.984382383525371551513671875</LongitudeDegrees>
            </Position>
            <AltitudeMeters>5.599999904632568359375</AltitudeMeters>
            <DistanceMeters>NAN</DistanceMeters>
          </Trackpoint>
          <Trackpoint>
            <Time>2021-08-12T09:32:15.000Z</Time>
            <Position>
              <LatitudeDegrees>43.3161509223282337188720703125</LatitudeDegrees>
              <LongitudeDegrees>-1.98436805047094821929931640625</LongitudeDegrees>
            </Position>
            <AltitudeMeters>5.599999904632568359375</AltitudeMeters>
            <DistanceMeters>NAN</DistanceMeters>
          </Trackpoint>
          <Trackpoint>
            <Time>2021-08-12T09:32:16.000Z</Time>
            <Position>
              <LatitudeDegrees>43.3161314763128757476806640625</LatitudeDegrees>
              <LongitudeDegrees>-1.984364278614521026611328125</LongitudeDegrees>
            </Position>
            <AltitudeMeters>5.599999904632568359375</AltitudeMeters>
            <DistanceMeters>NAN</DistanceMeters>
          </Trackpoint>
          <Trackpoint>
            <Time>2021-08-12T09:32:17.000Z</Time>
            <Position>
              <LatitudeDegrees>43.3161180652678012847900390625</LatitudeDegrees>
              <LongitudeDegrees>-1.9843647815287113189697265625</LongitudeDegrees>
            </Position>
            <AltitudeMeters>5.599999904632568359375</AltitudeMeters>
            <DistanceMeters>NAN</DistanceMeters>
          </Trackpoint>
          <Trackpoint>
            <Time>2021-08-12T09:32:18.000Z</Time>
            <Position>
              <LatitudeDegrees>43.31610859371721744537353515625</LatitudeDegrees>
              <LongitudeDegrees>-1.9843644462525844573974609375</LongitudeDegrees>
            </Position>
            <AltitudeMeters>5.599999904632568359375</AltitudeMeters>
            <DistanceMeters>NAN</DistanceMeters>
          </Trackpoint>
          <Trackpoint>
            <Time>2021-08-12T09:32:19.000Z</Time>
            <Position>
              <LatitudeDegrees>43.31609618850052356719970703125</LatitudeDegrees>
              <LongitudeDegrees>-1.98436796665191650390625</LongitudeDegrees>
            </Position>
            <AltitudeMeters>5.599999904632568359375</AltitudeMeters>
            <DistanceMeters>NAN</DistanceMeters>
          </Trackpoint>
          <Trackpoint>
            <Time>2021-08-12T09:32:20.000Z</Time>
            <Position>
              <LatitudeDegrees>43.3160595595836639404296875</LatitudeDegrees>
              <LongitudeDegrees>-1.98437458835542201995849609375</LongitudeDegrees>
            </Position>
            <AltitudeMeters>5.599999904632568359375</AltitudeMeters>
            <DistanceMeters>NAN</DistanceMeters>
          </Trackpoint>
          <Trackpoint>
            <Time>2021-08-12T09:32:22.000Z</Time>
            <Position>
              <LatitudeDegrees>43.3160000480711460113525390625</LatitudeDegrees>
              <LongitudeDegrees>-1.98442169465124607086181640625</LongitudeDegrees>
            </Position>
            <AltitudeMeters>5.80000019073486328125</AltitudeMeters>
            <DistanceMeters>NAN</DistanceMeters>
          </Trackpoint>
          <Trackpoint>
            <Time>2021-08-12T09:32:23.000Z</Time>
            <Position>
              <LatitudeDegrees>43.3159749023616313934326171875</LatitudeDegrees>
              <LongitudeDegrees>-1.98445321060717105865478515625</LongitudeDegrees>
            </Position>
            <AltitudeMeters>6</AltitudeMeters>
            <DistanceMeters>NAN</DistanceMeters>
          </Trackpoint>
          <Trackpoint>
            <Time>2021-08-12T09:32:24.000Z</Time>
            <Position>
              <LatitudeDegrees>43.31596207804977893829345703125</LatitudeDegrees>
              <LongitudeDegrees>-1.98449696414172649383544921875</LongitudeDegrees>
            </Position>
            <AltitudeMeters>6.19999980926513671875</AltitudeMeters>
            <DistanceMeters>NAN</DistanceMeters>
          </Trackpoint>
          <Trackpoint>
            <Time>2021-08-12T09:32:25.000Z</Time>
            <Position>
              <LatitudeDegrees>43.31595235504209995269775390625</LatitudeDegrees>
              <LongitudeDegrees>-1.98453099466860294342041015625</LongitudeDegrees>
            </Position>
            <AltitudeMeters>6.19999980926513671875</AltitudeMeters>
            <DistanceMeters>NAN</DistanceMeters>
          </Trackpoint>
          <Trackpoint>
            <Time>2021-08-12T09:32:26.000Z</Time>
            <Position>
              <LatitudeDegrees>43.3159380219876766204833984375</LatitudeDegrees>
              <LongitudeDegrees>-1.9845609180629253387451171875</LongitudeDegrees>
            </Position>
            <AltitudeMeters>6.400000095367431640625</AltitudeMeters>
            <DistanceMeters>NAN</DistanceMeters>
          </Trackpoint>
          <Trackpoint>
            <Time>2021-08-12T09:32:32.000Z</Time>
            <Position>
              <LatitudeDegrees>43.31584908999502658843994140625</LatitudeDegrees>
              <LongitudeDegrees>-1.9847295619547367095947265625</LongitudeDegrees>
            </Position>
            <AltitudeMeters>6.599999904632568359375</AltitudeMeters>
            <DistanceMeters>NAN</DistanceMeters>
          </Trackpoint>
          <Trackpoint>
            <Time>2021-08-12T09:32:33.000Z</Time>
            <Position>
              <LatitudeDegrees>43.315837942063808441162109375</LatitudeDegrees>
              <LongitudeDegrees>-1.9847520254552364349365234375</LongitudeDegrees>
            </Position>
            <AltitudeMeters>6.80000019073486328125</AltitudeMeters>
            <DistanceMeters>NAN</DistanceMeters>
          </Trackpoint>
          <Trackpoint>
            <Time>2021-08-12T09:32:34.000Z</Time>
            <Position>
              <LatitudeDegrees>43.31582662649452686309814453125</LatitudeDegrees>
              <LongitudeDegrees>-1.98477189056575298309326171875</LongitudeDegrees>
            </Position>
            <AltitudeMeters>6.80000019073486328125</AltitudeMeters>
            <DistanceMeters>NAN</DistanceMeters>
          </Trackpoint>
          <Trackpoint>
            <Time>2021-08-12T09:32:35.000Z</Time>
            <Position>
              <LatitudeDegrees>43.31581740640103816986083984375</LatitudeDegrees>
              <LongitudeDegrees>-1.98479100130498409271240234375</LongitudeDegrees>
            </Position>
            <AltitudeMeters>6.80000019073486328125</AltitudeMeters>
            <DistanceMeters>NAN</DistanceMeters>
          </Trackpoint>
          <Trackpoint>
            <Time>2021-08-12T09:32:36.000Z</Time>
            <Position>
              <LatitudeDegrees>43.31580676138401031494140625</LatitudeDegrees>
              <LongitudeDegrees>-1.98480390943586826324462890625</LongitudeDegrees>
            </Position>
            <AltitudeMeters>7</AltitudeMeters>
            <DistanceMeters>NAN</DistanceMeters>
          </Trackpoint>
          <Trackpoint>
            <Time>2021-08-12T09:32:37.000Z</Time>
            <Position>
              <LatitudeDegrees>43.31579561345279216766357421875</LatitudeDegrees>
              <LongitudeDegrees>-1.9848172366619110107421875</LongitudeDegrees>
            </Position>
            <AltitudeMeters>7</AltitudeMeters>
            <DistanceMeters>NAN</DistanceMeters>
          </Trackpoint>
          <Trackpoint>
            <Time>2021-08-12T09:32:38.000Z</Time>
            <Position>
              <LatitudeDegrees>43.31578136421740055084228515625</LatitudeDegrees>
              <LongitudeDegrees>-1.98483156971633434295654296875</LongitudeDegrees>
            </Position>
            <AltitudeMeters>7</AltitudeMeters>
            <DistanceMeters>NAN</DistanceMeters>
          </Trackpoint>
          <Trackpoint>
            <Time>2021-08-12T09:32:41.000Z</Time>
            <Position>
              <LatitudeDegrees>43.315722607076168060302734375</LatitudeDegrees>
              <LongitudeDegrees>-1.9848668575286865234375</LongitudeDegrees>
            </Position>
            <AltitudeMeters>7</AltitudeMeters>
            <DistanceMeters>NAN</DistanceMeters>
          </Trackpoint>
          <Trackpoint>
            <Time>2021-08-12T09:32:42.000Z</Time>
            <Position>
              <LatitudeDegrees>43.31570617854595184326171875</LatitudeDegrees>
              <LongitudeDegrees>-1.98488269932568073272705078125</LongitudeDegrees>
            </Position>
            <AltitudeMeters>7.19999980926513671875</AltitudeMeters>
            <DistanceMeters>NAN</DistanceMeters>
          </Trackpoint>
          <Trackpoint>
            <Time>2021-08-12T09:32:44.000Z</Time>
            <Position>
              <LatitudeDegrees>43.315677680075168609619140625</LatitudeDegrees>
              <LongitudeDegrees>-1.98493885807693004608154296875</LongitudeDegrees>
            </Position>
            <AltitudeMeters>7.19999980926513671875</AltitudeMeters>
            <DistanceMeters>NAN</DistanceMeters>
          </Trackpoint>
          <Trackpoint>
            <Time>2021-08-12T09:32:45.000Z</Time>
            <Position>
              <LatitudeDegrees>43.315668962895870208740234375</LatitudeDegrees>
              <LongitudeDegrees>-1.9849699549376964569091796875</LongitudeDegrees>
            </Position>
            <AltitudeMeters>7.19999980926513671875</AltitudeMeters>
            <DistanceMeters>NAN</DistanceMeters>
          </Trackpoint>
          <Trackpoint>
            <Time>2021-08-12T09:32:46.000Z</Time>
            <Position>
              <LatitudeDegrees>43.31566393375396728515625</LatitudeDegrees>
              <LongitudeDegrees>-1.98500121943652629852294921875</LongitudeDegrees>
            </Position>
            <AltitudeMeters>7.19999980926513671875</AltitudeMeters>
            <DistanceMeters>NAN</DistanceMeters>
          </Trackpoint>
          <Trackpoint>
            <Time>2021-08-12T09:32:47.000Z</Time>
            <Position>
              <LatitudeDegrees>43.31566183827817440032958984375</LatitudeDegrees>
              <LongitudeDegrees>-1.98503122664988040924072265625</LongitudeDegrees>
            </Position>
            <AltitudeMeters>7.400000095367431640625</AltitudeMeters>
            <DistanceMeters>NAN</DistanceMeters>
          </Trackpoint>
          <Trackpoint>
            <Time>2021-08-12T09:32:48.000Z</Time>
            <Position>
              <LatitudeDegrees>43.31565479747951030731201171875</LatitudeDegrees>
              <LongitudeDegrees>-1.98506106622517108917236328125</LongitudeDegrees>
            </Position>
            <AltitudeMeters>7.400000095367431640625</AltitudeMeters>
            <DistanceMeters>NAN</DistanceMeters>
          </Trackpoint>
          <Trackpoint>
            <Time>2021-08-12T09:32:53.000Z</Time>
            <Position>
              <LatitudeDegrees>43.315620683133602142333984375</LatitudeDegrees>
              <LongitudeDegrees>-1.9852405227720737457275390625</LongitudeDegrees>
            </Position>
            <AltitudeMeters>7.599999904632568359375</AltitudeMeters>
            <DistanceMeters>NAN</DistanceMeters>
          </Trackpoint>
          <Trackpoint>
            <Time>2021-08-12T09:32:56.000Z</Time>
            <Position>
              <LatitudeDegrees>43.315583132207393646240234375</LatitudeDegrees>
              <LongitudeDegrees>-1.9853310473263263702392578125</LongitudeDegrees>
            </Position>
            <AltitudeMeters>7.80000019073486328125</AltitudeMeters>
            <DistanceMeters>NAN</DistanceMeters>
          </Trackpoint>
          <Trackpoint>
            <Time>2021-08-12T09:32:57.000Z</Time>
            <Position>
              <LatitudeDegrees>43.3155705593526363372802734375</LatitudeDegrees>
              <LongitudeDegrees>-1.98535879142582416534423828125</LongitudeDegrees>
            </Position>
            <AltitudeMeters>7.80000019073486328125</AltitudeMeters>
            <DistanceMeters>NAN</DistanceMeters>
          </Trackpoint>
          <Trackpoint>
            <Time>2021-08-12T09:32:59.000Z</Time>
            <Position>
              <LatitudeDegrees>43.31554382108151912689208984375</LatitudeDegrees>
              <LongitudeDegrees>-1.98542115278542041778564453125</LongitudeDegrees>
            </Position>
            <AltitudeMeters>7.80000019073486328125</AltitudeMeters>
            <DistanceMeters>NAN</DistanceMeters>
          </Trackpoint>
          <Trackpoint>
            <Time>2021-08-12T09:33:00.000Z</Time>
            <Position>
              <LatitudeDegrees>43.31553627736866474151611328125</LatitudeDegrees>
              <LongitudeDegrees>-1.9854607991874217987060546875</LongitudeDegrees>
            </Position>
            <AltitudeMeters>8</AltitudeMeters>
            <DistanceMeters>NAN</DistanceMeters>
          </Trackpoint>
          <Trackpoint>
            <Time>2021-08-12T09:33:01.000Z</Time>
            <Position>
              <LatitudeDegrees>43.3155340142548084259033203125</LatitudeDegrees>
              <LongitudeDegrees>-1.9854929856956005096435546875</LongitudeDegrees>
            </Position>
            <AltitudeMeters>8</AltitudeMeters>
            <DistanceMeters>NAN</DistanceMeters>
          </Trackpoint>
          <Trackpoint>
            <Time>2021-08-12T09:33:02.000Z</Time>
            <Position>
              <LatitudeDegrees>43.31553661264479160308837890625</LatitudeDegrees>
              <LongitudeDegrees>-1.9855245016515254974365234375</LongitudeDegrees>
            </Position>
            <AltitudeMeters>8</AltitudeMeters>
            <DistanceMeters>NAN</DistanceMeters>
          </Trackpoint>
          <Trackpoint>
            <Time>2021-08-12T09:33:03.000Z</Time>
            <Position>
              <LatitudeDegrees>43.31553761847317218780517578125</LatitudeDegrees>
              <LongitudeDegrees>-1.98556381277740001678466796875</LongitudeDegrees>
            </Position>
            <AltitudeMeters>8.19999980926513671875</AltitudeMeters>
            <DistanceMeters>NAN</DistanceMeters>
          </Trackpoint>
          <Trackpoint>
            <Time>2021-08-12T09:33:04.000Z</Time>
            <Position>
              <LatitudeDegrees>43.315537534654140472412109375</LatitudeDegrees>
              <LongitudeDegrees>-1.98560572229325771331787109375</LongitudeDegrees>
            </Position>
            <AltitudeMeters>8.19999980926513671875</AltitudeMeters>
            <DistanceMeters>NAN</DistanceMeters>
          </Trackpoint>
          <Trackpoint>
            <Time>2021-08-12T09:33:05.000Z</Time>
            <Position>
              <LatitudeDegrees>43.3155323378741741180419921875</LatitudeDegrees>
              <LongitudeDegrees>-1.985636986792087554931640625</LongitudeDegrees>
            </Position>
            <AltitudeMeters>8.19999980926513671875</AltitudeMeters>
            <DistanceMeters>NAN</DistanceMeters>
          </Trackpoint>
          <Trackpoint>
            <Time>2021-08-12T09:33:06.000Z</Time>
            <Position>
              <LatitudeDegrees>43.3155249617993831634521484375</LatitudeDegrees>
              <LongitudeDegrees>-1.9856720231473445892333984375</LongitudeDegrees>
            </Position>
            <AltitudeMeters>8.19999980926513671875</AltitudeMeters>
            <DistanceMeters>NAN</DistanceMeters>
          </Trackpoint>
          <Trackpoint>
            <Time>2021-08-12T09:33:07.000Z</Time>
            <Position>
              <LatitudeDegrees>43.3155219443142414093017578125</LatitudeDegrees>
              <LongitudeDegrees>-1.98569524101912975311279296875</LongitudeDegrees>
            </Position>
            <AltitudeMeters>8.19999980926513671875</AltitudeMeters>
            <DistanceMeters>NAN</DistanceMeters>
          </Trackpoint>
          <Trackpoint>
            <Time>2021-08-12T09:33:08.000Z</Time>
            <Position>
              <LatitudeDegrees>43.31552236340939998626708984375</LatitudeDegrees>
              <LongitudeDegrees>-1.985712088644504547119140625</LongitudeDegrees>
            </Position>
            <AltitudeMeters>8.3999996185302734375</AltitudeMeters>
            <DistanceMeters>NAN</DistanceMeters>
          </Trackpoint>
          <Trackpoint>
            <Time>2021-08-12T09:33:09.000Z</Time>
            <Position>
              <LatitudeDegrees>43.31552370451390743255615234375</LatitudeDegrees>
              <LongitudeDegrees>-1.98571753688156604766845703125</LongitudeDegrees>
            </Position>
            <AltitudeMeters>8.3999996185302734375</AltitudeMeters>
            <DistanceMeters>NAN</DistanceMeters>
          </Trackpoint>
          <Trackpoint>
            <Time>2021-08-12T09:33:14.000Z</Time>
            <Position>
              <LatitudeDegrees>43.31554524600505828857421875</LatitudeDegrees>
              <LongitudeDegrees>-1.98572591878473758697509765625</LongitudeDegrees>
            </Position>
            <AltitudeMeters>8.6000003814697265625</AltitudeMeters>
            <DistanceMeters>NAN</DistanceMeters>
          </Trackpoint>
          <Trackpoint>
            <Time>2021-08-12T09:33:19.000Z</Time>
            <Position>
              <LatitudeDegrees>43.31555253826081752777099609375</LatitudeDegrees>
              <LongitudeDegrees>-1.9857655651867389678955078125</LongitudeDegrees>
            </Position>
            <AltitudeMeters>8.6000003814697265625</AltitudeMeters>
            <DistanceMeters>NAN</DistanceMeters>
          </Trackpoint>
          <Trackpoint>
            <Time>2021-08-12T09:33:20.000Z</Time>
            <Position>
              <LatitudeDegrees>43.315553963184356689453125</LatitudeDegrees>
              <LongitudeDegrees>-1.9857779704034328460693359375</LongitudeDegrees>
            </Position>
            <AltitudeMeters>8.6000003814697265625</AltitudeMeters>
            <DistanceMeters>NAN</DistanceMeters>
          </Trackpoint>
          <Trackpoint>
            <Time>2021-08-12T09:33:23.000Z</Time>
            <Position>
              <LatitudeDegrees>43.31557475030422210693359375</LatitudeDegrees>
              <LongitudeDegrees>-1.98581007309257984161376953125</LongitudeDegrees>
            </Position>
            <AltitudeMeters>8.6000003814697265625</AltitudeMeters>
            <DistanceMeters>NAN</DistanceMeters>
          </Trackpoint>
          <Trackpoint>
            <Time>2021-08-12T09:33:24.000Z</Time>
            <Position>
              <LatitudeDegrees>43.3155821263790130615234375</LatitudeDegrees>
              <LongitudeDegrees>-1.98581359349191188812255859375</LongitudeDegrees>
            </Position>
            <AltitudeMeters>8.6000003814697265625</AltitudeMeters>
            <DistanceMeters>NAN</DistanceMeters>
          </Trackpoint>
          <Trackpoint>
            <Time>2021-08-12T09:33:26.000Z</Time>
            <Position>
              <LatitudeDegrees>43.31559897400438785552978515625</LatitudeDegrees>
              <LongitudeDegrees>-1.985828094184398651123046875</LongitudeDegrees>
            </Position>
            <AltitudeMeters>8.6000003814697265625</AltitudeMeters>
            <DistanceMeters>NAN</DistanceMeters>
          </Trackpoint>
          <Trackpoint>
            <Time>2021-08-12T09:33:28.000Z</Time>
            <Position>
              <LatitudeDegrees>43.31561054103076457977294921875</LatitudeDegrees>
              <LongitudeDegrees>-1.985836140811443328857421875</LongitudeDegrees>
            </Position>
            <AltitudeMeters>8.6000003814697265625</AltitudeMeters>
            <DistanceMeters>NAN</DistanceMeters>
          </Trackpoint>
          <Trackpoint>
            <Time>2021-08-12T09:33:33.000Z</Time>
            <Position>
              <LatitudeDegrees>43.3155863173305988311767578125</LatitudeDegrees>
              <LongitudeDegrees>-1.98584209196269512176513671875</LongitudeDegrees>
            </Position>
            <AltitudeMeters>8.3999996185302734375</AltitudeMeters>
            <DistanceMeters>NAN</DistanceMeters>
          </Trackpoint>
          <Trackpoint>
            <Time>2021-08-12T09:33:39.000Z</Time>
            <Position>
              <LatitudeDegrees>43.31557483412325382232666015625</LatitudeDegrees>
              <LongitudeDegrees>-1.9858406670391559600830078125</LongitudeDegrees>
            </Position>
            <AltitudeMeters>8.3999996185302734375</AltitudeMeters>
            <DistanceMeters>NAN</DistanceMeters>
          </Trackpoint>
          <Trackpoint>
            <Time>2021-08-12T09:33:48.000Z</Time>
            <Position>
              <LatitudeDegrees>43.31557818688452243804931640625</LatitudeDegrees>
              <LongitudeDegrees>-1.9858493842184543609619140625</LongitudeDegrees>
            </Position>
            <AltitudeMeters>8.6000003814697265625</AltitudeMeters>
            <DistanceMeters>NAN</DistanceMeters>
          </Trackpoint>
          <Trackpoint>
            <Time>2021-08-12T09:33:56.000Z</Time>
            <Position>
              <LatitudeDegrees>43.3156174980103969573974609375</LatitudeDegrees>
              <LongitudeDegrees>-1.98589590378105640411376953125</LongitudeDegrees>
            </Position>
            <AltitudeMeters>8.3999996185302734375</AltitudeMeters>
            <DistanceMeters>NAN</DistanceMeters>
          </Trackpoint>
          <Trackpoint>
            <Time>2021-08-12T09:33:59.000Z</Time>
            <Position>
              <LatitudeDegrees>43.31562571227550506591796875</LatitudeDegrees>
              <LongitudeDegrees>-1.985904872417449951171875</LongitudeDegrees>
            </Position>
            <AltitudeMeters>8.3999996185302734375</AltitudeMeters>
            <DistanceMeters>NAN</DistanceMeters>
          </Trackpoint>
          <Trackpoint>
            <Time>2021-08-12T10:42:03.000Z</Time>
            <Position>
              <LatitudeDegrees>43.3153583295643329620361328125</LatitudeDegrees>
              <LongitudeDegrees>-1.98581493459641933441162109375</LongitudeDegrees>
            </Position>
            <AltitudeMeters>5.80000019073486328125</AltitudeMeters>
            <DistanceMeters>NAN</DistanceMeters>
          </Trackpoint>
          <Trackpoint>
            <Time>2021-08-12T10:42:08.000Z</Time>
            <Position>
              <LatitudeDegrees>43.315372578799724578857421875</LatitudeDegrees>
              <LongitudeDegrees>-1.98581510223448276519775390625</LongitudeDegrees>
            </Position>
            <AltitudeMeters>5.80000019073486328125</AltitudeMeters>
            <DistanceMeters>NAN</DistanceMeters>
          </Trackpoint>
          <Trackpoint>
            <Time>2021-08-12T10:42:15.000Z</Time>
            <Position>
              <LatitudeDegrees>43.3154257200658321380615234375</LatitudeDegrees>
              <LongitudeDegrees>-1.985859610140323638916015625</LongitudeDegrees>
            </Position>
            <AltitudeMeters>6</AltitudeMeters>
            <DistanceMeters>NAN</DistanceMeters>
          </Trackpoint>
          <Trackpoint>
            <Time>2021-08-12T10:42:18.000Z</Time>
            <Position>
              <LatitudeDegrees>43.3154843933880329132080078125</LatitudeDegrees>
              <LongitudeDegrees>-1.9859281741082668304443359375</LongitudeDegrees>
            </Position>
            <AltitudeMeters>5.80000019073486328125</AltitudeMeters>
            <DistanceMeters>NAN</DistanceMeters>
          </Trackpoint>
          <Trackpoint>
            <Time>2021-08-12T10:42:21.000Z</Time>
            <Position>
              <LatitudeDegrees>43.315583132207393646240234375</LatitudeDegrees>
              <LongitudeDegrees>-1.9859958998858928680419921875</LongitudeDegrees>
            </Position>
            <AltitudeMeters>5.400000095367431640625</AltitudeMeters>
            <DistanceMeters>NAN</DistanceMeters>
          </Trackpoint>
          <Trackpoint>
            <Time>2021-08-12T10:42:22.000Z</Time>
            <Position>
              <LatitudeDegrees>43.31561992876231670379638671875</LatitudeDegrees>
              <LongitudeDegrees>-1.9860089756548404693603515625</LongitudeDegrees>
            </Position>
            <AltitudeMeters>5.19999980926513671875</AltitudeMeters>
            <DistanceMeters>NAN</DistanceMeters>
          </Trackpoint>
          <Trackpoint>
            <Time>2021-08-12T10:42:23.000Z</Time>
            <Position>
              <LatitudeDegrees>43.3156506903469562530517578125</LatitudeDegrees>
              <LongitudeDegrees>-1.9860247336328029632568359375</LongitudeDegrees>
            </Position>
            <AltitudeMeters>5</AltitudeMeters>
            <DistanceMeters>NAN</DistanceMeters>
          </Trackpoint>
          <Trackpoint>
            <Time>2021-08-12T10:42:24.000Z</Time>
            <Position>
              <LatitudeDegrees>43.315671645104885101318359375</LatitudeDegrees>
              <LongitudeDegrees>-1.986042670905590057373046875</LongitudeDegrees>
            </Position>
            <AltitudeMeters>5</AltitudeMeters>
            <DistanceMeters>NAN</DistanceMeters>
          </Trackpoint>
          <Trackpoint>
            <Time>2021-08-12T10:42:25.000Z</Time>
            <Position>
              <LatitudeDegrees>43.31568782217800617218017578125</LatitudeDegrees>
              <LongitudeDegrees>-1.98605951853096485137939453125</LongitudeDegrees>
            </Position>
            <AltitudeMeters>4.80000019073486328125</AltitudeMeters>
            <DistanceMeters>NAN</DistanceMeters>
          </Trackpoint>
          <Trackpoint>
            <Time>2021-08-12T10:42:26.000Z</Time>
            <Position>
              <LatitudeDegrees>43.31570223905146121978759765625</LatitudeDegrees>
              <LongitudeDegrees>-1.98607209138572216033935546875</LongitudeDegrees>
            </Position>
            <AltitudeMeters>4.80000019073486328125</AltitudeMeters>
            <DistanceMeters>NAN</DistanceMeters>
          </Trackpoint>
          <Trackpoint>
            <Time>2021-08-12T10:42:27.000Z</Time>
            <Position>
              <LatitudeDegrees>43.3157170750200748443603515625</LatitudeDegrees>
              <LongitudeDegrees>-1.98608734644949436187744140625</LongitudeDegrees>
            </Position>
            <AltitudeMeters>4.80000019073486328125</AltitudeMeters>
            <DistanceMeters>NAN</DistanceMeters>
          </Trackpoint>
          <Trackpoint>
            <Time>2021-08-12T10:42:28.000Z</Time>
            <Position>
              <LatitudeDegrees>43.31573006696999073028564453125</LatitudeDegrees>
              <LongitudeDegrees>-1.98609841056168079376220703125</LongitudeDegrees>
            </Position>
            <AltitudeMeters>4.599999904632568359375</AltitudeMeters>
            <DistanceMeters>NAN</DistanceMeters>
          </Trackpoint>
          <Trackpoint>
            <Time>2021-08-12T10:42:34.000Z</Time>
            <Position>
              <LatitudeDegrees>43.31578689627349376678466796875</LatitudeDegrees>
              <LongitudeDegrees>-1.986121125519275665283203125</LongitudeDegrees>
            </Position>
            <AltitudeMeters>4.19999980926513671875</AltitudeMeters>
            <DistanceMeters>NAN</DistanceMeters>
          </Trackpoint>
          <Trackpoint>
            <Time>2021-08-12T10:42:51.000Z</Time>
            <Position>
              <LatitudeDegrees>43.315889574587345123291015625</LatitudeDegrees>
              <LongitudeDegrees>-1.98619647882878780364990234375</LongitudeDegrees>
            </Position>
            <AltitudeMeters>4</AltitudeMeters>
            <DistanceMeters>NAN</DistanceMeters>
          </Trackpoint>
          <Trackpoint>
            <Time>2021-08-12T10:43:30.000Z</Time>
            <Position>
              <LatitudeDegrees>43.31588647328317165374755859375</LatitudeDegrees>
              <LongitudeDegrees>-1.9861652143299579620361328125</LongitudeDegrees>
            </Position>
            <AltitudeMeters>4</AltitudeMeters>
            <DistanceMeters>NAN</DistanceMeters>
          </Trackpoint>
          <Trackpoint>
            <Time>2021-08-12T10:43:32.000Z</Time>
            <Position>
              <LatitudeDegrees>43.315864093601703643798828125</LatitudeDegrees>
              <LongitudeDegrees>-1.9861652143299579620361328125</LongitudeDegrees>
            </Position>
            <AltitudeMeters>4</AltitudeMeters>
            <DistanceMeters>NAN</DistanceMeters>
          </Trackpoint>
          <Trackpoint>
            <Time>2021-08-12T10:43:34.000Z</Time>
            <Position>
              <LatitudeDegrees>43.315854035317897796630859375</LatitudeDegrees>
              <LongitudeDegrees>-1.9861866720020771026611328125</LongitudeDegrees>
            </Position>
            <AltitudeMeters>4</AltitudeMeters>
            <DistanceMeters>NAN</DistanceMeters>
          </Trackpoint>
          <Trackpoint>
            <Time>2021-08-12T10:43:36.000Z</Time>
            <Position>
              <LatitudeDegrees>43.31588228233158588409423828125</LatitudeDegrees>
              <LongitudeDegrees>-1.98622765950858592987060546875</LongitudeDegrees>
            </Position>
            <AltitudeMeters>4.19999980926513671875</AltitudeMeters>
            <DistanceMeters>NAN</DistanceMeters>
          </Trackpoint>
          <Trackpoint>
            <Time>2021-08-12T10:43:38.000Z</Time>
            <Position>
              <LatitudeDegrees>43.31591145135462284088134765625</LatitudeDegrees>
              <LongitudeDegrees>-1.98625666089355945587158203125</LongitudeDegrees>
            </Position>
            <AltitudeMeters>4</AltitudeMeters>
            <DistanceMeters>NAN</DistanceMeters>
          </Trackpoint>
          <Trackpoint>
            <Time>2021-08-12T10:43:39.000Z</Time>
            <Position>
              <LatitudeDegrees>43.3159272931516170501708984375</LatitudeDegrees>
              <LongitudeDegrees>-1.98627677746117115020751953125</LongitudeDegrees>
            </Position>
            <AltitudeMeters>4</AltitudeMeters>
            <DistanceMeters>NAN</DistanceMeters>
          </Trackpoint>
          <Trackpoint>
            <Time>2021-08-12T10:43:41.000Z</Time>
            <Position>
              <LatitudeDegrees>43.31595554016530513763427734375</LatitudeDegrees>
              <LongitudeDegrees>-1.98629924096167087554931640625</LongitudeDegrees>
            </Position>
            <AltitudeMeters>4</AltitudeMeters>
            <DistanceMeters>NAN</DistanceMeters>
          </Trackpoint>
          <Trackpoint>
            <Time>2021-08-12T10:43:42.000Z</Time>
            <Position>
              <LatitudeDegrees>43.31596710719168186187744140625</LatitudeDegrees>
              <LongitudeDegrees>-1.9863046891987323760986328125</LongitudeDegrees>
            </Position>
            <AltitudeMeters>4</AltitudeMeters>
            <DistanceMeters>NAN</DistanceMeters>
          </Trackpoint>
          <Trackpoint>
            <Time>2021-08-12T10:43:43.000Z</Time>
            <Position>
              <LatitudeDegrees>43.315977752208709716796875</LatitudeDegrees>
              <LongitudeDegrees>-1.98631315492093563079833984375</LongitudeDegrees>
            </Position>
            <AltitudeMeters>4</AltitudeMeters>
            <DistanceMeters>NAN</DistanceMeters>
          </Trackpoint>
          <Trackpoint>
            <Time>2021-08-12T10:43:44.000Z</Time>
            <Position>
              <LatitudeDegrees>43.3159869723021984100341796875</LatitudeDegrees>
              <LongitudeDegrees>-1.9863227941095829010009765625</LongitudeDegrees>
            </Position>
            <AltitudeMeters>3.7999999523162841796875</AltitudeMeters>
            <DistanceMeters>NAN</DistanceMeters>
          </Trackpoint>
          <Trackpoint>
            <Time>2021-08-12T10:43:45.000Z</Time>
            <Position>
              <LatitudeDegrees>43.31599845550954341888427734375</LatitudeDegrees>
              <LongitudeDegrees>-1.98634274303913116455078125</LongitudeDegrees>
            </Position>
            <AltitudeMeters>3.7999999523162841796875</AltitudeMeters>
            <DistanceMeters>NAN</DistanceMeters>
          </Trackpoint>
          <Trackpoint>
            <Time>2021-08-12T10:43:46.000Z</Time>
            <Position>
              <LatitudeDegrees>43.31600901670753955841064453125</LatitudeDegrees>
              <LongitudeDegrees>-1.986352466046810150146484375</LongitudeDegrees>
            </Position>
            <AltitudeMeters>3.7999999523162841796875</AltitudeMeters>
            <DistanceMeters>NAN</DistanceMeters>
          </Trackpoint>
          <Trackpoint>
            <Time>2021-08-12T10:43:47.000Z</Time>
            <Position>
              <LatitudeDegrees>43.31602259539067745208740234375</LatitudeDegrees>
              <LongitudeDegrees>-1.9863590039312839508056640625</LongitudeDegrees>
            </Position>
            <AltitudeMeters>3.7999999523162841796875</AltitudeMeters>
            <DistanceMeters>NAN</DistanceMeters>
          </Trackpoint>
          <Trackpoint>
            <Time>2021-08-12T10:43:48.000Z</Time>
            <Position>
              <LatitudeDegrees>43.316040448844432830810546875</LatitudeDegrees>
              <LongitudeDegrees>-1.98635942302644252777099609375</LongitudeDegrees>
            </Position>
            <AltitudeMeters>3.7999999523162841796875</AltitudeMeters>
            <DistanceMeters>NAN</DistanceMeters>
          </Trackpoint>
          <Trackpoint>
            <Time>2021-08-12T10:43:49.000Z</Time>
            <Position>
              <LatitudeDegrees>43.3160563744604587554931640625</LatitudeDegrees>
              <LongitudeDegrees>-1.98636495508253574371337890625</LongitudeDegrees>
            </Position>
            <AltitudeMeters>3.7999999523162841796875</AltitudeMeters>
            <DistanceMeters>NAN</DistanceMeters>
          </Trackpoint>
          <Trackpoint>
            <Time>2021-08-12T10:43:52.000Z</Time>
            <Position>
              <LatitudeDegrees>43.31610691733658313751220703125</LatitudeDegrees>
              <LongitudeDegrees>-1.986377947032451629638671875</LongitudeDegrees>
            </Position>
            <AltitudeMeters>3.7999999523162841796875</AltitudeMeters>
            <DistanceMeters>NAN</DistanceMeters>
          </Trackpoint>
          <Trackpoint>
            <Time>2021-08-12T10:43:54.000Z</Time>
            <Position>
              <LatitudeDegrees>43.31616492010653018951416015625</LatitudeDegrees>
              <LongitudeDegrees>-1.98638943023979663848876953125</LongitudeDegrees>
            </Position>
            <AltitudeMeters>3.7999999523162841796875</AltitudeMeters>
            <DistanceMeters>NAN</DistanceMeters>
          </Trackpoint>
          <Trackpoint>
            <Time>2021-08-12T10:43:56.000Z</Time>
            <Position>
              <LatitudeDegrees>43.31622225232422351837158203125</LatitudeDegrees>
              <LongitudeDegrees>-1.986386664211750030517578125</LongitudeDegrees>
            </Position>
            <AltitudeMeters>3.7999999523162841796875</AltitudeMeters>
            <DistanceMeters>NAN</DistanceMeters>
          </Trackpoint>
          <Trackpoint>
            <Time>2021-08-12T10:43:57.000Z</Time>
            <Position>
              <LatitudeDegrees>43.3162424527108669281005859375</LatitudeDegrees>
              <LongitudeDegrees>-1.98638171888887882232666015625</LongitudeDegrees>
            </Position>
            <AltitudeMeters>3.599999904632568359375</AltitudeMeters>
            <DistanceMeters>NAN</DistanceMeters>
          </Trackpoint>
          <Trackpoint>
            <Time>2021-08-12T10:43:58.000Z</Time>
            <Position>
              <LatitudeDegrees>43.3162682689726352691650390625</LatitudeDegrees>
              <LongitudeDegrees>-1.9863764382898807525634765625</LongitudeDegrees>
            </Position>
            <AltitudeMeters>3.599999904632568359375</AltitudeMeters>
            <DistanceMeters>NAN</DistanceMeters>
          </Trackpoint>
          <Trackpoint>
            <Time>2021-08-12T10:43:59.000Z</Time>
            <Position>
              <LatitudeDegrees>43.31628830172121524810791015625</LatitudeDegrees>
              <LongitudeDegrees>-1.98637618683278560638427734375</LongitudeDegrees>
            </Position>
            <AltitudeMeters>3.599999904632568359375</AltitudeMeters>
            <DistanceMeters>NAN</DistanceMeters>
          </Trackpoint>
          <Trackpoint>
            <Time>2021-08-12T10:44:06.000Z</Time>
            <Position>
              <LatitudeDegrees>43.31636927090585231781005859375</LatitudeDegrees>
              <LongitudeDegrees>-1.9863487780094146728515625</LongitudeDegrees>
            </Position>
            <AltitudeMeters>3.599999904632568359375</AltitudeMeters>
            <DistanceMeters>NAN</DistanceMeters>
          </Trackpoint>
          <Trackpoint>
            <Time>2021-08-12T10:44:16.000Z</Time>
            <Position>
              <LatitudeDegrees>43.316428028047084808349609375</LatitudeDegrees>
              <LongitudeDegrees>-1.98633092455565929412841796875</LongitudeDegrees>
            </Position>
            <AltitudeMeters>3.599999904632568359375</AltitudeMeters>
            <DistanceMeters>NAN</DistanceMeters>
          </Trackpoint>
          <Trackpoint>
            <Time>2021-08-12T10:44:17.000Z</Time>
            <Position>
              <LatitudeDegrees>43.31643800251185894012451171875</LatitudeDegrees>
              <LongitudeDegrees>-1.98634332977235317230224609375</LongitudeDegrees>
            </Position>
            <AltitudeMeters>3.599999904632568359375</AltitudeMeters>
            <DistanceMeters>NAN</DistanceMeters>
          </Trackpoint>
          <Trackpoint>
            <Time>2021-08-12T10:44:18.000Z</Time>
            <Position>
              <LatitudeDegrees>43.31644638441503047943115234375</LatitudeDegrees>
              <LongitudeDegrees>-1.9863556511700153350830078125</LongitudeDegrees>
            </Position>
            <AltitudeMeters>3.599999904632568359375</AltitudeMeters>
            <DistanceMeters>NAN</DistanceMeters>
          </Trackpoint>
          <Trackpoint>
            <Time>2021-08-12T10:44:20.000Z</Time>
            <Position>
              <LatitudeDegrees>43.3164389245212078094482421875</LatitudeDegrees>
              <LongitudeDegrees>-1.9863863289356231689453125</LongitudeDegrees>
            </Position>
            <AltitudeMeters>3.599999904632568359375</AltitudeMeters>
            <DistanceMeters>NAN</DistanceMeters>
          </Trackpoint>
          <Trackpoint>
            <Time>2021-08-12T10:44:21.000Z</Time>
            <Position>
              <LatitudeDegrees>43.31645258702337741851806640625</LatitudeDegrees>
              <LongitudeDegrees>-1.98640577495098114013671875</LongitudeDegrees>
            </Position>
            <AltitudeMeters>3.599999904632568359375</AltitudeMeters>
            <DistanceMeters>NAN</DistanceMeters>
          </Trackpoint>
          <Trackpoint>
            <Time>2021-08-12T10:44:23.000Z</Time>
            <Position>
              <LatitudeDegrees>43.31647622399032115936279296875</LatitudeDegrees>
              <LongitudeDegrees>-1.9864471815526485443115234375</LongitudeDegrees>
            </Position>
            <AltitudeMeters>3.599999904632568359375</AltitudeMeters>
            <DistanceMeters>NAN</DistanceMeters>
          </Trackpoint>
          <Trackpoint>
            <Time>2021-08-12T10:44:24.000Z</Time>
            <Position>
              <LatitudeDegrees>43.31648510880768299102783203125</LatitudeDegrees>
              <LongitudeDegrees>-1.98646252043545246124267578125</LongitudeDegrees>
            </Position>
            <AltitudeMeters>3.599999904632568359375</AltitudeMeters>
            <DistanceMeters>NAN</DistanceMeters>
          </Trackpoint>
          <Trackpoint>
            <Time>2021-08-12T10:44:25.000Z</Time>
            <Position>
              <LatitudeDegrees>43.31649466417729854583740234375</LatitudeDegrees>
              <LongitudeDegrees>-1.98647760786116123199462890625</LongitudeDegrees>
            </Position>
            <AltitudeMeters>3.599999904632568359375</AltitudeMeters>
            <DistanceMeters>NAN</DistanceMeters>
          </Trackpoint>
          <Trackpoint>
            <Time>2021-08-12T10:44:26.000Z</Time>
            <Position>
              <LatitudeDegrees>43.31650304608047008514404296875</LatitudeDegrees>
              <LongitudeDegrees>-1.986495964229106903076171875</LongitudeDegrees>
            </Position>
            <AltitudeMeters>3.599999904632568359375</AltitudeMeters>
            <DistanceMeters>NAN</DistanceMeters>
          </Trackpoint>
          <Trackpoint>
            <Time>2021-08-12T10:44:29.000Z</Time>
            <Position>
              <LatitudeDegrees>43.3165371604263782501220703125</LatitudeDegrees>
              <LongitudeDegrees>-1.98656536638736724853515625</LongitudeDegrees>
            </Position>
            <AltitudeMeters>3.7999999523162841796875</AltitudeMeters>
            <DistanceMeters>NAN</DistanceMeters>
          </Trackpoint>
          <Trackpoint>
            <Time>2021-08-12T10:44:35.000Z</Time>
            <Position>
              <LatitudeDegrees>43.31662978045642375946044921875</LatitudeDegrees>
              <LongitudeDegrees>-1.98670618236064910888671875</LongitudeDegrees>
            </Position>
            <AltitudeMeters>3.599999904632568359375</AltitudeMeters>
            <DistanceMeters>NAN</DistanceMeters>
          </Trackpoint>
          <Trackpoint>
            <Time>2021-08-12T10:44:36.000Z</Time>
            <Position>
              <LatitudeDegrees>43.3166410960257053375244140625</LatitudeDegrees>
              <LongitudeDegrees>-1.9867080263793468475341796875</LongitudeDegrees>
            </Position>
            <AltitudeMeters>3.599999904632568359375</AltitudeMeters>
            <DistanceMeters>NAN</DistanceMeters>
          </Trackpoint>
          <Trackpoint>
            <Time>2021-08-12T10:44:37.000Z</Time>
            <Position>
              <LatitudeDegrees>43.3166518248617649078369140625</LatitudeDegrees>
              <LongitudeDegrees>-1.9867100380361080169677734375</LongitudeDegrees>
            </Position>
            <AltitudeMeters>3.599999904632568359375</AltitudeMeters>
            <DistanceMeters>NAN</DistanceMeters>
          </Trackpoint>
          <Trackpoint>
            <Time>2021-08-12T10:44:38.000Z</Time>
            <Position>
              <LatitudeDegrees>43.31666213460266590118408203125</LatitudeDegrees>
              <LongitudeDegrees>-1.9867147319018840789794921875</LongitudeDegrees>
            </Position>
            <AltitudeMeters>3.599999904632568359375</AltitudeMeters>
            <DistanceMeters>NAN</DistanceMeters>
          </Trackpoint>
          <Trackpoint>
            <Time>2021-08-12T10:44:39.000Z</Time>
            <Position>
              <LatitudeDegrees>43.31666833721101284027099609375</LatitudeDegrees>
              <LongitudeDegrees>-1.9867301546037197113037109375</LongitudeDegrees>
            </Position>
            <AltitudeMeters>3.599999904632568359375</AltitudeMeters>
            <DistanceMeters>NAN</DistanceMeters>
          </Trackpoint>
          <Trackpoint>
            <Time>2021-08-12T10:44:41.000Z</Time>
            <Position>
              <LatitudeDegrees>43.31667806021869182586669921875</LatitudeDegrees>
              <LongitudeDegrees>-1.9867304898798465728759765625</LongitudeDegrees>
            </Position>
            <AltitudeMeters>3.599999904632568359375</AltitudeMeters>
            <DistanceMeters>NAN</DistanceMeters>
          </Trackpoint>
          <Trackpoint>
            <Time>2021-08-12T10:44:44.000Z</Time>
            <Position>
              <LatitudeDegrees>43.31670823507010936737060546875</LatitudeDegrees>
              <LongitudeDegrees>-1.986713223159313201904296875</LongitudeDegrees>
            </Position>
            <AltitudeMeters>3.2000000476837158203125</AltitudeMeters>
            <DistanceMeters>NAN</DistanceMeters>
          </Trackpoint>
          <Trackpoint>
            <Time>2021-08-12T10:44:46.000Z</Time>
            <Position>
              <LatitudeDegrees>43.3167467080056667327880859375</LatitudeDegrees>
              <LongitudeDegrees>-1.98667022399604320526123046875</LongitudeDegrees>
            </Position>
            <AltitudeMeters>3</AltitudeMeters>
            <DistanceMeters>NAN</DistanceMeters>
          </Trackpoint>
          <Trackpoint>
            <Time>2021-08-12T10:44:48.000Z</Time>
            <Position>
              <LatitudeDegrees>43.316787444055080413818359375</LatitudeDegrees>
              <LongitudeDegrees>-1.98662144131958484649658203125</LongitudeDegrees>
            </Position>
            <AltitudeMeters>2.7999999523162841796875</AltitudeMeters>
            <DistanceMeters>NAN</DistanceMeters>
          </Trackpoint>
          <Trackpoint>
            <Time>2021-08-12T10:44:50.000Z</Time>
            <Position>
              <LatitudeDegrees>43.31683111377060413360595703125</LatitudeDegrees>
              <LongitudeDegrees>-1.9865682162344455718994140625</LongitudeDegrees>
            </Position>
            <AltitudeMeters>2.599999904632568359375</AltitudeMeters>
            <DistanceMeters>NAN</DistanceMeters>
          </Trackpoint>
          <Trackpoint>
            <Time>2021-08-12T10:44:54.000Z</Time>
            <Position>
              <LatitudeDegrees>43.31692080013453960418701171875</LatitudeDegrees>
              <LongitudeDegrees>-1.9864649511873722076416015625</LongitudeDegrees>
            </Position>
            <AltitudeMeters>2.599999904632568359375</AltitudeMeters>
            <DistanceMeters>NAN</DistanceMeters>
          </Trackpoint>
          <Trackpoint>
            <Time>2021-08-12T10:44:55.000Z</Time>
            <Position>
              <LatitudeDegrees>43.31694066524505615234375</LatitudeDegrees>
              <LongitudeDegrees>-1.9864367879927158355712890625</LongitudeDegrees>
            </Position>
            <AltitudeMeters>2.400000095367431640625</AltitudeMeters>
            <DistanceMeters>NAN</DistanceMeters>
          </Trackpoint>
          <Trackpoint>
            <Time>2021-08-12T10:45:00.000Z</Time>
            <Position>
              <LatitudeDegrees>43.31705742515623569488525390625</LatitudeDegrees>
              <LongitudeDegrees>-1.98629370890557765960693359375</LongitudeDegrees>
            </Position>
            <AltitudeMeters>2.400000095367431640625</AltitudeMeters>
            <DistanceMeters>NAN</DistanceMeters>
          </Trackpoint>
          <Trackpoint>
            <Time>2021-08-12T10:45:05.000Z</Time>
            <Position>
              <LatitudeDegrees>43.3171661384403705596923828125</LatitudeDegrees>
              <LongitudeDegrees>-1.9861903600394725799560546875</LongitudeDegrees>
            </Position>
            <AltitudeMeters>2.7999999523162841796875</AltitudeMeters>
            <DistanceMeters>NAN</DistanceMeters>
          </Trackpoint>
          <Trackpoint>
            <Time>2021-08-12T10:45:06.000Z</Time>
            <Position>
              <LatitudeDegrees>43.31718767993152141571044921875</LatitudeDegrees>
              <LongitudeDegrees>-1.98617585934698581695556640625</LongitudeDegrees>
            </Position>
            <AltitudeMeters>2.599999904632568359375</AltitudeMeters>
            <DistanceMeters>NAN</DistanceMeters>
          </Trackpoint>
          <Trackpoint>
            <Time>2021-08-12T10:45:07.000Z</Time>
            <Position>
              <LatitudeDegrees>43.31720192916691303253173828125</LatitudeDegrees>
              <LongitudeDegrees>-1.98616345413029193878173828125</LongitudeDegrees>
            </Position>
            <AltitudeMeters>2.599999904632568359375</AltitudeMeters>
            <DistanceMeters>NAN</DistanceMeters>
          </Trackpoint>
          <Trackpoint>
            <Time>2021-08-12T10:45:08.000Z</Time>
            <Position>
              <LatitudeDegrees>43.31722271628677845001220703125</LatitudeDegrees>
              <LongitudeDegrees>-1.9861434213817119598388671875</LongitudeDegrees>
            </Position>
            <AltitudeMeters>2.599999904632568359375</AltitudeMeters>
            <DistanceMeters>NAN</DistanceMeters>
          </Trackpoint>
          <Trackpoint>
            <Time>2021-08-12T10:45:09.000Z</Time>
            <Position>
              <LatitudeDegrees>43.31724685616791248321533203125</LatitudeDegrees>
              <LongitudeDegrees>-1.98612690903246402740478515625</LongitudeDegrees>
            </Position>
            <AltitudeMeters>2.599999904632568359375</AltitudeMeters>
            <DistanceMeters>NAN</DistanceMeters>
          </Trackpoint>
          <Trackpoint>
            <Time>2021-08-12T10:45:10.000Z</Time>
            <Position>
              <LatitudeDegrees>43.31726646982133388519287109375</LatitudeDegrees>
              <LongitudeDegrees>-1.986105702817440032958984375</LongitudeDegrees>
            </Position>
            <AltitudeMeters>2.599999904632568359375</AltitudeMeters>
            <DistanceMeters>NAN</DistanceMeters>
          </Trackpoint>
          <Trackpoint>
            <Time>2021-08-12T10:45:11.000Z</Time>
            <Position>
              <LatitudeDegrees>43.317286670207977294921875</LatitudeDegrees>
              <LongitudeDegrees>-1.986085586249828338623046875</LongitudeDegrees>
            </Position>
            <AltitudeMeters>2.599999904632568359375</AltitudeMeters>
            <DistanceMeters>NAN</DistanceMeters>
          </Trackpoint>
          <Trackpoint>
            <Time>2021-08-12T10:45:12.000Z</Time>
            <Position>
              <LatitudeDegrees>43.31730787642300128936767578125</LatitudeDegrees>
              <LongitudeDegrees>-1.98606303893029689788818359375</LongitudeDegrees>
            </Position>
            <AltitudeMeters>2.599999904632568359375</AltitudeMeters>
            <DistanceMeters>NAN</DistanceMeters>
          </Trackpoint>
          <Trackpoint>
            <Time>2021-08-12T10:45:21.000Z</Time>
            <Position>
              <LatitudeDegrees>43.31752345897257328033447265625</LatitudeDegrees>
              <LongitudeDegrees>-1.98582817800343036651611328125</LongitudeDegrees>
            </Position>
            <AltitudeMeters>2.599999904632568359375</AltitudeMeters>
            <DistanceMeters>NAN</DistanceMeters>
          </Trackpoint>
          <Trackpoint>
            <Time>2021-08-12T10:45:25.000Z</Time>
            <Position>
              <LatitudeDegrees>43.3176170848309993743896484375</LatitudeDegrees>
              <LongitudeDegrees>-1.985728852450847625732421875</LongitudeDegrees>
            </Position>
            <AltitudeMeters>2.599999904632568359375</AltitudeMeters>
            <DistanceMeters>NAN</DistanceMeters>
          </Trackpoint>
          <Trackpoint>
            <Time>2021-08-12T10:45:26.000Z</Time>
            <Position>
              <LatitudeDegrees>43.31763200461864471435546875</LatitudeDegrees>
              <LongitudeDegrees>-1.98572156019508838653564453125</LongitudeDegrees>
            </Position>
            <AltitudeMeters>2.400000095367431640625</AltitudeMeters>
            <DistanceMeters>NAN</DistanceMeters>
          </Trackpoint>
          <Trackpoint>
            <Time>2021-08-12T10:45:27.000Z</Time>
            <Position>
              <LatitudeDegrees>43.317651115357875823974609375</LatitudeDegrees>
              <LongitudeDegrees>-1.985710076987743377685546875</LongitudeDegrees>
            </Position>
            <AltitudeMeters>2.400000095367431640625</AltitudeMeters>
            <DistanceMeters>NAN</DistanceMeters>
          </Trackpoint>
          <Trackpoint>
            <Time>2021-08-12T10:45:28.000Z</Time>
            <Position>
              <LatitudeDegrees>43.317669890820980072021484375</LatitudeDegrees>
              <LongitudeDegrees>-1.98569457046687602996826171875</LongitudeDegrees>
            </Position>
            <AltitudeMeters>2.400000095367431640625</AltitudeMeters>
            <DistanceMeters>NAN</DistanceMeters>
          </Trackpoint>
          <Trackpoint>
            <Time>2021-08-12T10:45:29.000Z</Time>
            <Position>
              <LatitudeDegrees>43.3176834695041179656982421875</LatitudeDegrees>
              <LongitudeDegrees>-1.98568266816437244415283203125</LongitudeDegrees>
            </Position>
            <AltitudeMeters>2.400000095367431640625</AltitudeMeters>
            <DistanceMeters>NAN</DistanceMeters>
          </Trackpoint>
          <Trackpoint>
            <Time>2021-08-12T10:45:33.000Z</Time>
            <Position>
              <LatitudeDegrees>43.3177471719682216644287109375</LatitudeDegrees>
              <LongitudeDegrees>-1.9856247492134571075439453125</LongitudeDegrees>
            </Position>
            <AltitudeMeters>2.400000095367431640625</AltitudeMeters>
            <DistanceMeters>NAN</DistanceMeters>
          </Trackpoint>
          <Trackpoint>
            <Time>2021-08-12T10:45:38.000Z</Time>
            <Position>
              <LatitudeDegrees>43.31785705871880054473876953125</LatitudeDegrees>
              <LongitudeDegrees>-1.9855345599353313446044921875</LongitudeDegrees>
            </Position>
            <AltitudeMeters>2.599999904632568359375</AltitudeMeters>
            <DistanceMeters>NAN</DistanceMeters>
          </Trackpoint>
          <Trackpoint>
            <Time>2021-08-12T10:45:39.000Z</Time>
            <Position>
              <LatitudeDegrees>43.317880444228649139404296875</LatitudeDegrees>
              <LongitudeDegrees>-1.98551435954868793487548828125</LongitudeDegrees>
            </Position>
            <AltitudeMeters>2.599999904632568359375</AltitudeMeters>
            <DistanceMeters>NAN</DistanceMeters>
          </Trackpoint>
          <Trackpoint>
            <Time>2021-08-12T10:45:40.000Z</Time>
            <Position>
              <LatitudeDegrees>43.31790248863399028778076171875</LatitudeDegrees>
              <LongitudeDegrees>-1.98549591936171054840087890625</LongitudeDegrees>
            </Position>
            <AltitudeMeters>2.599999904632568359375</AltitudeMeters>
            <DistanceMeters>NAN</DistanceMeters>
          </Trackpoint>
          <Trackpoint>
            <Time>2021-08-12T10:45:49.000Z</Time>
            <Position>
              <LatitudeDegrees>43.31812863238155841827392578125</LatitudeDegrees>
              <LongitudeDegrees>-1.98529793880879878997802734375</LongitudeDegrees>
            </Position>
            <AltitudeMeters>2.400000095367431640625</AltitudeMeters>
            <DistanceMeters>NAN</DistanceMeters>
          </Trackpoint>
          <Trackpoint>
            <Time>2021-08-12T10:45:57.000Z</Time>
            <Position>
              <LatitudeDegrees>43.31833885051310062408447265625</LatitudeDegrees>
              <LongitudeDegrees>-1.9851389341056346893310546875</LongitudeDegrees>
            </Position>
            <AltitudeMeters>2.2000000476837158203125</AltitudeMeters>
            <DistanceMeters>NAN</DistanceMeters>
          </Trackpoint>
          <Trackpoint>
            <Time>2021-08-12T10:46:00.000Z</Time>
            <Position>
              <LatitudeDegrees>43.31841378472745418548583984375</LatitudeDegrees>
              <LongitudeDegrees>-1.98508478701114654541015625</LongitudeDegrees>
            </Position>
            <AltitudeMeters>2.400000095367431640625</AltitudeMeters>
            <DistanceMeters>NAN</DistanceMeters>
          </Trackpoint>
          <Trackpoint>
            <Time>2021-08-12T10:46:01.000Z</Time>
            <Position>
              <LatitudeDegrees>43.31843524239957332611083984375</LatitudeDegrees>
              <LongitudeDegrees>-1.985065676271915435791015625</LongitudeDegrees>
            </Position>
            <AltitudeMeters>2.400000095367431640625</AltitudeMeters>
            <DistanceMeters>NAN</DistanceMeters>
          </Trackpoint>
          <Trackpoint>
            <Time>2021-08-12T10:46:02.000Z</Time>
            <Position>
              <LatitudeDegrees>43.31845787353813648223876953125</LatitudeDegrees>
              <LongitudeDegrees>-1.98504681698977947235107421875</LongitudeDegrees>
            </Position>
            <AltitudeMeters>2.400000095367431640625</AltitudeMeters>
            <DistanceMeters>NAN</DistanceMeters>
          </Trackpoint>
          <Trackpoint>
            <Time>2021-08-12T10:46:03.000Z</Time>
            <Position>
              <LatitudeDegrees>43.31848100759088993072509765625</LatitudeDegrees>
              <LongitudeDegrees>-1.98502720333635807037353515625</LongitudeDegrees>
            </Position>
            <AltitudeMeters>2.400000095367431640625</AltitudeMeters>
            <DistanceMeters>NAN</DistanceMeters>
          </Trackpoint>
          <Trackpoint>
            <Time>2021-08-12T10:46:04.000Z</Time>
            <Position>
              <LatitudeDegrees>43.3185015432536602020263671875</LatitudeDegrees>
              <LongitudeDegrees>-1.98500876314938068389892578125</LongitudeDegrees>
            </Position>
            <AltitudeMeters>2.400000095367431640625</AltitudeMeters>
            <DistanceMeters>NAN</DistanceMeters>
          </Trackpoint>
          <Trackpoint>
            <Time>2021-08-12T10:46:05.000Z</Time>
            <Position>
              <LatitudeDegrees>43.3185246773064136505126953125</LatitudeDegrees>
              <LongitudeDegrees>-1.9849917478859424591064453125</LongitudeDegrees>
            </Position>
            <AltitudeMeters>2.400000095367431640625</AltitudeMeters>
            <DistanceMeters>NAN</DistanceMeters>
          </Trackpoint>
          <Trackpoint>
            <Time>2021-08-12T10:46:06.000Z</Time>
            <Position>
              <LatitudeDegrees>43.31854672171175479888916015625</LatitudeDegrees>
              <LongitudeDegrees>-1.9849763251841068267822265625</LongitudeDegrees>
            </Position>
            <AltitudeMeters>2.400000095367431640625</AltitudeMeters>
            <DistanceMeters>NAN</DistanceMeters>
          </Trackpoint>
          <Trackpoint>
            <Time>2021-08-12T10:46:07.000Z</Time>
            <Position>
              <LatitudeDegrees>43.3185692690312862396240234375</LatitudeDegrees>
              <LongitudeDegrees>-1.984958387911319732666015625</LongitudeDegrees>
            </Position>
            <AltitudeMeters>2.2000000476837158203125</AltitudeMeters>
            <DistanceMeters>NAN</DistanceMeters>
          </Trackpoint>
          <Trackpoint>
            <Time>2021-08-12T10:46:08.000Z</Time>
            <Position>
              <LatitudeDegrees>43.31859089434146881103515625</LatitudeDegrees>
              <LongitudeDegrees>-1.984940953552722930908203125</LongitudeDegrees>
            </Position>
            <AltitudeMeters>2.2000000476837158203125</AltitudeMeters>
            <DistanceMeters>NAN</DistanceMeters>
          </Trackpoint>
          <Trackpoint>
            <Time>2021-08-12T10:46:09.000Z</Time>
            <Position>
              <LatitudeDegrees>43.31861629150807857513427734375</LatitudeDegrees>
              <LongitudeDegrees>-1.98492192663252353668212890625</LongitudeDegrees>
            </Position>
            <AltitudeMeters>2</AltitudeMeters>
            <DistanceMeters>NAN</DistanceMeters>
          </Trackpoint>
          <Trackpoint>
            <Time>2021-08-12T10:46:10.000Z</Time>
            <Position>
              <LatitudeDegrees>43.31864546053111553192138671875</LatitudeDegrees>
              <LongitudeDegrees>-1.98489828966557979583740234375</LongitudeDegrees>
            </Position>
            <AltitudeMeters>2</AltitudeMeters>
            <DistanceMeters>NAN</DistanceMeters>
          </Trackpoint>
          <Trackpoint>
            <Time>2021-08-12T10:46:13.000Z</Time>
            <Position>
              <LatitudeDegrees>43.3186990208923816680908203125</LatitudeDegrees>
              <LongitudeDegrees>-1.98481212370097637176513671875</LongitudeDegrees>
            </Position>
            <AltitudeMeters>1.7999999523162841796875</AltitudeMeters>
            <DistanceMeters>NAN</DistanceMeters>
          </Trackpoint>
          <Trackpoint>
            <Time>2021-08-12T10:46:14.000Z</Time>
            <Position>
              <LatitudeDegrees>43.3187147788703441619873046875</LatitudeDegrees>
              <LongitudeDegrees>-1.98477423749864101409912109375</LongitudeDegrees>
            </Position>
            <AltitudeMeters>1.7999999523162841796875</AltitudeMeters>
            <DistanceMeters>NAN</DistanceMeters>
          </Trackpoint>
          <Trackpoint>
            <Time>2021-08-12T10:46:21.000Z</Time>
            <Position>
              <LatitudeDegrees>43.3188492245972156524658203125</LatitudeDegrees>
              <LongitudeDegrees>-1.98449067771434783935546875</LongitudeDegrees>
            </Position>
            <AltitudeMeters>1.60000002384185791015625</AltitudeMeters>
            <DistanceMeters>NAN</DistanceMeters>
          </Trackpoint>
          <Trackpoint>
            <Time>2021-08-12T10:46:23.000Z</Time>
            <Position>
              <LatitudeDegrees>43.31887344829738140106201171875</LatitudeDegrees>
              <LongitudeDegrees>-1.984422616660594940185546875</LongitudeDegrees>
            </Position>
            <AltitudeMeters>1.60000002384185791015625</AltitudeMeters>
            <DistanceMeters>NAN</DistanceMeters>
          </Trackpoint>
          <Trackpoint>
            <Time>2021-08-12T10:46:24.000Z</Time>
            <Position>
              <LatitudeDegrees>43.31887244246900081634521484375</LatitudeDegrees>
              <LongitudeDegrees>-1.984385736286640167236328125</LongitudeDegrees>
            </Position>
            <AltitudeMeters>1.60000002384185791015625</AltitudeMeters>
            <DistanceMeters>NAN</DistanceMeters>
          </Trackpoint>
          <Trackpoint>
            <Time>2021-08-12T10:46:25.000Z</Time>
            <Position>
              <LatitudeDegrees>43.31886741332709789276123046875</LatitudeDegrees>
              <LongitudeDegrees>-1.98435178957879543304443359375</LongitudeDegrees>
            </Position>
            <AltitudeMeters>1.39999997615814208984375</AltitudeMeters>
            <DistanceMeters>NAN</DistanceMeters>
          </Trackpoint>
          <Trackpoint>
            <Time>2021-08-12T10:46:26.000Z</Time>
            <Position>
              <LatitudeDegrees>43.3188651502132415771484375</LatitudeDegrees>
              <LongitudeDegrees>-1.98432429693639278411865234375</LongitudeDegrees>
            </Position>
            <AltitudeMeters>1.39999997615814208984375</AltitudeMeters>
            <DistanceMeters>NAN</DistanceMeters>
          </Trackpoint>
          <Trackpoint>
            <Time>2021-08-12T10:46:27.000Z</Time>
            <Position>
              <LatitudeDegrees>43.3188659884035587310791015625</LatitudeDegrees>
              <LongitudeDegrees>-1.98430820368230342864990234375</LongitudeDegrees>
            </Position>
            <AltitudeMeters>1.39999997615814208984375</AltitudeMeters>
            <DistanceMeters>NAN</DistanceMeters>
          </Trackpoint>
          <Trackpoint>
            <Time>2021-08-12T10:46:29.000Z</Time>
            <Position>
              <LatitudeDegrees>43.31886691041290760040283203125</LatitudeDegrees>
              <LongitudeDegrees>-1.984306611120700836181640625</LongitudeDegrees>
            </Position>
            <AltitudeMeters>1.2000000476837158203125</AltitudeMeters>
            <DistanceMeters>NAN</DistanceMeters>
          </Trackpoint>
          <Trackpoint>
            <Time>2021-08-12T10:46:39.000Z</Time>
            <Position>
              <LatitudeDegrees>43.31887126900255680084228515625</LatitudeDegrees>
              <LongitudeDegrees>-1.9843228720128536224365234375</LongitudeDegrees>
            </Position>
            <AltitudeMeters>1</AltitudeMeters>
            <DistanceMeters>NAN</DistanceMeters>
          </Trackpoint>
          <Trackpoint>
            <Time>2021-08-12T10:46:42.000Z</Time>
            <Position>
              <LatitudeDegrees>43.31888082437217235565185546875</LatitudeDegrees>
              <LongitudeDegrees>-1.9843379594385623931884765625</LongitudeDegrees>
            </Position>
            <AltitudeMeters>1</AltitudeMeters>
            <DistanceMeters>NAN</DistanceMeters>
          </Trackpoint>
          <Trackpoint>
            <Time>2021-08-12T10:46:44.000Z</Time>
            <Position>
              <LatitudeDegrees>43.31889473833143711090087890625</LatitudeDegrees>
              <LongitudeDegrees>-1.98438070714473724365234375</LongitudeDegrees>
            </Position>
            <AltitudeMeters>1</AltitudeMeters>
            <DistanceMeters>NAN</DistanceMeters>
          </Trackpoint>
          <Trackpoint>
            <Time>2021-08-12T10:46:46.000Z</Time>
            <Position>
              <LatitudeDegrees>43.3189112506806850433349609375</LatitudeDegrees>
              <LongitudeDegrees>-1.98440576903522014617919921875</LongitudeDegrees>
            </Position>
            <AltitudeMeters>1</AltitudeMeters>
            <DistanceMeters>NAN</DistanceMeters>
          </Trackpoint>
          <Trackpoint>
            <Time>2021-08-12T10:46:47.000Z</Time>
            <Position>
              <LatitudeDegrees>43.3189276792109012603759765625</LatitudeDegrees>
              <LongitudeDegrees>-1.9844093732535839080810546875</LongitudeDegrees>
            </Position>
            <AltitudeMeters>1</AltitudeMeters>
            <DistanceMeters>NAN</DistanceMeters>
          </Trackpoint>
          <Trackpoint>
            <Time>2021-08-12T10:46:49.000Z</Time>
            <Position>
              <LatitudeDegrees>43.318968079984188079833984375</LatitudeDegrees>
              <LongitudeDegrees>-1.98441348038613796234130859375</LongitudeDegrees>
            </Position>
            <AltitudeMeters>1</AltitudeMeters>
            <DistanceMeters>NAN</DistanceMeters>
          </Trackpoint>
          <Trackpoint>
            <Time>2021-08-12T10:46:54.000Z</Time>
            <Position>
              <LatitudeDegrees>43.31909188069403171539306640625</LatitudeDegrees>
              <LongitudeDegrees>-1.9844908453524112701416015625</LongitudeDegrees>
            </Position>
            <AltitudeMeters>1</AltitudeMeters>
            <DistanceMeters>NAN</DistanceMeters>
          </Trackpoint>
          <Trackpoint>
            <Time>2021-08-12T10:46:57.000Z</Time>
            <Position>
              <LatitudeDegrees>43.319179974496364593505859375</LatitudeDegrees>
              <LongitudeDegrees>-1.98454977013170719146728515625</LongitudeDegrees>
            </Position>
            <AltitudeMeters>1</AltitudeMeters>
            <DistanceMeters>NAN</DistanceMeters>
          </Trackpoint>
          <Trackpoint>
            <Time>2021-08-12T10:46:58.000Z</Time>
            <Position>
              <LatitudeDegrees>43.3192103169858455657958984375</LatitudeDegrees>
              <LongitudeDegrees>-1.9845723174512386322021484375</LongitudeDegrees>
            </Position>
            <AltitudeMeters>1</AltitudeMeters>
            <DistanceMeters>NAN</DistanceMeters>
          </Trackpoint>
          <Trackpoint>
            <Time>2021-08-12T10:47:01.000Z</Time>
            <Position>
              <LatitudeDegrees>43.319305367767810821533203125</LatitudeDegrees>
              <LongitudeDegrees>-1.98463928885757923126220703125</LongitudeDegrees>
            </Position>
            <AltitudeMeters>1.2000000476837158203125</AltitudeMeters>
            <DistanceMeters>NAN</DistanceMeters>
          </Trackpoint>
          <Trackpoint>
            <Time>2021-08-12T10:47:09.000Z</Time>
            <Position>
              <LatitudeDegrees>43.31955489702522754669189453125</LatitudeDegrees>
              <LongitudeDegrees>-1.98477105237543582916259765625</LongitudeDegrees>
            </Position>
            <AltitudeMeters>1.60000002384185791015625</AltitudeMeters>
            <DistanceMeters>NAN</DistanceMeters>
          </Trackpoint>
          <Trackpoint>
            <Time>2021-08-12T10:47:11.000Z</Time>
            <Position>
              <LatitudeDegrees>43.31961289979517459869384765625</LatitudeDegrees>
              <LongitudeDegrees>-1.9847810268402099609375</LongitudeDegrees>
            </Position>
            <AltitudeMeters>1.60000002384185791015625</AltitudeMeters>
            <DistanceMeters>NAN</DistanceMeters>
          </Trackpoint>
          <Trackpoint>
            <Time>2021-08-12T10:47:12.000Z</Time>
            <Position>
              <LatitudeDegrees>43.31964106298983097076416015625</LatitudeDegrees>
              <LongitudeDegrees>-1.98478412814438343048095703125</LongitudeDegrees>
            </Position>
            <AltitudeMeters>1.60000002384185791015625</AltitudeMeters>
            <DistanceMeters>NAN</DistanceMeters>
          </Trackpoint>
          <Trackpoint>
            <Time>2021-08-12T10:47:13.000Z</Time>
            <Position>
              <LatitudeDegrees>43.3196669630706310272216796875</LatitudeDegrees>
              <LongitudeDegrees>-1.9847828708589076995849609375</LongitudeDegrees>
            </Position>
            <AltitudeMeters>1.60000002384185791015625</AltitudeMeters>
            <DistanceMeters>NAN</DistanceMeters>
          </Trackpoint>
          <Trackpoint>
            <Time>2021-08-12T10:47:14.000Z</Time>
            <Position>
              <LatitudeDegrees>43.3196926116943359375</LatitudeDegrees>
              <LongitudeDegrees>-1.9847754947841167449951171875</LongitudeDegrees>
            </Position>
            <AltitudeMeters>1.60000002384185791015625</AltitudeMeters>
            <DistanceMeters>NAN</DistanceMeters>
          </Trackpoint>
          <Trackpoint>
            <Time>2021-08-12T10:47:15.000Z</Time>
            <Position>
              <LatitudeDegrees>43.31971515901386737823486328125</LatitudeDegrees>
              <LongitudeDegrees>-1.98475613258779048919677734375</LongitudeDegrees>
            </Position>
            <AltitudeMeters>1.60000002384185791015625</AltitudeMeters>
            <DistanceMeters>NAN</DistanceMeters>
          </Trackpoint>
          <Trackpoint>
            <Time>2021-08-12T10:47:16.000Z</Time>
            <Position>
              <LatitudeDegrees>43.3197310008108615875244140625</LatitudeDegrees>
              <LongitudeDegrees>-1.98472813703119754791259765625</LongitudeDegrees>
            </Position>
            <AltitudeMeters>1.60000002384185791015625</AltitudeMeters>
            <DistanceMeters>NAN</DistanceMeters>
          </Trackpoint>
          <Trackpoint>
            <Time>2021-08-12T10:47:17.000Z</Time>
            <Position>
              <LatitudeDegrees>43.31974617205560207366943359375</LatitudeDegrees>
              <LongitudeDegrees>-1.98469662107527256011962890625</LongitudeDegrees>
            </Position>
            <AltitudeMeters>1.60000002384185791015625</AltitudeMeters>
            <DistanceMeters>NAN</DistanceMeters>
          </Trackpoint>
          <Trackpoint>
            <Time>2021-08-12T10:47:18.000Z</Time>
            <Position>
              <LatitudeDegrees>43.31976276822388172149658203125</LatitudeDegrees>
              <LongitudeDegrees>-1.98466024361550807952880859375</LongitudeDegrees>
            </Position>
            <AltitudeMeters>1.60000002384185791015625</AltitudeMeters>
            <DistanceMeters>NAN</DistanceMeters>
          </Trackpoint>
          <Trackpoint>
            <Time>2021-08-12T10:47:19.000Z</Time>
            <Position>
              <LatitudeDegrees>43.3197796158492565155029296875</LatitudeDegrees>
              <LongitudeDegrees>-1.98461665771901607513427734375</LongitudeDegrees>
            </Position>
            <AltitudeMeters>1.60000002384185791015625</AltitudeMeters>
            <DistanceMeters>NAN</DistanceMeters>
          </Trackpoint>
          <Trackpoint>
            <Time>2021-08-12T10:47:20.000Z</Time>
            <Position>
              <LatitudeDegrees>43.319797217845916748046875</LatitudeDegrees>
              <LongitudeDegrees>-1.9845729880034923553466796875</LongitudeDegrees>
            </Position>
            <AltitudeMeters>1.60000002384185791015625</AltitudeMeters>
            <DistanceMeters>NAN</DistanceMeters>
          </Trackpoint>
          <Trackpoint>
            <Time>2021-08-12T10:47:23.000Z</Time>
            <Position>
              <LatitudeDegrees>43.31984817981719970703125</LatitudeDegrees>
              <LongitudeDegrees>-1.984447427093982696533203125</LongitudeDegrees>
            </Position>
            <AltitudeMeters>1.60000002384185791015625</AltitudeMeters>
            <DistanceMeters>NAN</DistanceMeters>
          </Trackpoint>
          <Trackpoint>
            <Time>2021-08-12T10:47:24.000Z</Time>
            <Position>
              <LatitudeDegrees>43.31986553035676479339599609375</LatitudeDegrees>
              <LongitudeDegrees>-1.98441046290099620819091796875</LongitudeDegrees>
            </Position>
            <AltitudeMeters>1.60000002384185791015625</AltitudeMeters>
            <DistanceMeters>NAN</DistanceMeters>
          </Trackpoint>
          <Trackpoint>
            <Time>2021-08-12T10:47:25.000Z</Time>
            <Position>
              <LatitudeDegrees>43.319881372153759002685546875</LatitudeDegrees>
              <LongitudeDegrees>-1.98437157087028026580810546875</LongitudeDegrees>
            </Position>
            <AltitudeMeters>1.60000002384185791015625</AltitudeMeters>
            <DistanceMeters>NAN</DistanceMeters>
          </Trackpoint>
          <Trackpoint>
            <Time>2021-08-12T10:47:26.000Z</Time>
            <Position>
              <LatitudeDegrees>43.31989402882754802703857421875</LatitudeDegrees>
              <LongitudeDegrees>-1.9843272306025028228759765625</LongitudeDegrees>
            </Position>
            <AltitudeMeters>1.39999997615814208984375</AltitudeMeters>
            <DistanceMeters>NAN</DistanceMeters>
          </Trackpoint>
          <Trackpoint>
            <Time>2021-08-12T10:47:27.000Z</Time>
            <Position>
              <LatitudeDegrees>43.31990727223455905914306640625</LatitudeDegrees>
              <LongitudeDegrees>-1.984282471239566802978515625</LongitudeDegrees>
            </Position>
            <AltitudeMeters>1.39999997615814208984375</AltitudeMeters>
            <DistanceMeters>NAN</DistanceMeters>
          </Trackpoint>
          <Trackpoint>
            <Time>2021-08-12T10:47:29.000Z</Time>
            <Position>
              <LatitudeDegrees>43.31993644125759601593017578125</LatitudeDegrees>
              <LongitudeDegrees>-1.9842102192342281341552734375</LongitudeDegrees>
            </Position>
            <AltitudeMeters>1.39999997615814208984375</AltitudeMeters>
            <DistanceMeters>NAN</DistanceMeters>
          </Trackpoint>
          <Trackpoint>
            <Time>2021-08-12T10:47:30.000Z</Time>
            <Position>
              <LatitudeDegrees>43.31995001994073390960693359375</LatitudeDegrees>
              <LongitudeDegrees>-1.9841753505170345306396484375</LongitudeDegrees>
            </Position>
            <AltitudeMeters>1.2000000476837158203125</AltitudeMeters>
            <DistanceMeters>NAN</DistanceMeters>
          </Trackpoint>
          <Trackpoint>
            <Time>2021-08-12T10:47:31.000Z</Time>
            <Position>
              <LatitudeDegrees>43.31995890475809574127197265625</LatitudeDegrees>
              <LongitudeDegrees>-1.98414869606494903564453125</LongitudeDegrees>
            </Position>
            <AltitudeMeters>1.2000000476837158203125</AltitudeMeters>
            <DistanceMeters>NAN</DistanceMeters>
          </Trackpoint>
          <Trackpoint>
            <Time>2021-08-12T10:47:32.000Z</Time>
            <Position>
              <LatitudeDegrees>43.31996141932904720306396484375</LatitudeDegrees>
              <LongitudeDegrees>-1.984134279191493988037109375</LongitudeDegrees>
            </Position>
            <AltitudeMeters>1.2000000476837158203125</AltitudeMeters>
            <DistanceMeters>NAN</DistanceMeters>
          </Trackpoint>
          <Trackpoint>
            <Time>2021-08-12T10:47:33.000Z</Time>
            <Position>
              <LatitudeDegrees>43.31996108405292034149169921875</LatitudeDegrees>
              <LongitudeDegrees>-1.98412966914474964141845703125</LongitudeDegrees>
            </Position>
            <AltitudeMeters>1.2000000476837158203125</AltitudeMeters>
            <DistanceMeters>NAN</DistanceMeters>
          </Trackpoint>
          <Trackpoint>
            <Time>2021-08-12T10:47:44.000Z</Time>
            <Position>
              <LatitudeDegrees>43.31999301910400390625</LatitudeDegrees>
              <LongitudeDegrees>-1.9840543158352375030517578125</LongitudeDegrees>
            </Position>
            <AltitudeMeters>1</AltitudeMeters>
            <DistanceMeters>NAN</DistanceMeters>
          </Trackpoint>
          <Trackpoint>
            <Time>2021-08-12T10:47:46.000Z</Time>
            <Position>
              <LatitudeDegrees>43.32001238130033016204833984375</LatitudeDegrees>
              <LongitudeDegrees>-1.984014250338077545166015625</LongitudeDegrees>
            </Position>
            <AltitudeMeters>1</AltitudeMeters>
            <DistanceMeters>NAN</DistanceMeters>
          </Trackpoint>
          <Trackpoint>
            <Time>2021-08-12T10:47:48.000Z</Time>
            <Position>
              <LatitudeDegrees>43.3200357668101787567138671875</LatitudeDegrees>
              <LongitudeDegrees>-1.98399052955210208892822265625</LongitudeDegrees>
            </Position>
            <AltitudeMeters>0.800000011920928955078125</AltitudeMeters>
            <DistanceMeters>NAN</DistanceMeters>
          </Trackpoint>
          <Trackpoint>
            <Time>2021-08-12T10:47:49.000Z</Time>
            <Position>
              <LatitudeDegrees>43.32005479373037815093994140625</LatitudeDegrees>
              <LongitudeDegrees>-1.98399991728365421295166015625</LongitudeDegrees>
            </Position>
            <AltitudeMeters>0.800000011920928955078125</AltitudeMeters>
            <DistanceMeters>NAN</DistanceMeters>
          </Trackpoint>
          <Trackpoint>
            <Time>2021-08-12T10:47:50.000Z</Time>
            <Position>
              <LatitudeDegrees>43.3200706355273723602294921875</LatitudeDegrees>
              <LongitudeDegrees>-1.9840117357671260833740234375</LongitudeDegrees>
            </Position>
            <AltitudeMeters>0.800000011920928955078125</AltitudeMeters>
            <DistanceMeters>NAN</DistanceMeters>
          </Trackpoint>
          <Trackpoint>
            <Time>2021-08-12T10:47:52.000Z</Time>
            <Position>
              <LatitudeDegrees>43.32010558806359767913818359375</LatitudeDegrees>
              <LongitudeDegrees>-1.98403595946729183197021484375</LongitudeDegrees>
            </Position>
            <AltitudeMeters>0.800000011920928955078125</AltitudeMeters>
            <DistanceMeters>NAN</DistanceMeters>
          </Trackpoint>
          <Trackpoint>
            <Time>2021-08-12T10:47:53.000Z</Time>
            <Position>
              <LatitudeDegrees>43.32012738101184368133544921875</LatitudeDegrees>
              <LongitudeDegrees>-1.9840514659881591796875</LongitudeDegrees>
            </Position>
            <AltitudeMeters>0.800000011920928955078125</AltitudeMeters>
            <DistanceMeters>NAN</DistanceMeters>
          </Trackpoint>
          <Trackpoint>
            <Time>2021-08-12T10:47:57.000Z</Time>
            <Position>
              <LatitudeDegrees>43.32021656446158885955810546875</LatitudeDegrees>
              <LongitudeDegrees>-1.98412899859249591827392578125</LongitudeDegrees>
            </Position>
            <AltitudeMeters>0.60000002384185791015625</AltitudeMeters>
            <DistanceMeters>NAN</DistanceMeters>
          </Trackpoint>
          <Trackpoint>
            <Time>2021-08-12T10:48:01.000Z</Time>
            <Position>
              <LatitudeDegrees>43.320328630506992340087890625</LatitudeDegrees>
              <LongitudeDegrees>-1.984218768775463104248046875</LongitudeDegrees>
            </Position>
            <AltitudeMeters>0.800000011920928955078125</AltitudeMeters>
            <DistanceMeters>NAN</DistanceMeters>
          </Trackpoint>
          <Trackpoint>
            <Time>2021-08-12T10:48:02.000Z</Time>
            <Position>
              <LatitudeDegrees>43.320360481739044189453125</LatitudeDegrees>
              <LongitudeDegrees>-1.98423394002020359039306640625</LongitudeDegrees>
            </Position>
            <AltitudeMeters>0.800000011920928955078125</AltitudeMeters>
            <DistanceMeters>NAN</DistanceMeters>
          </Trackpoint>
          <Trackpoint>
            <Time>2021-08-12T10:48:09.000Z</Time>
            <Position>
              <LatitudeDegrees>43.32055502571165561676025390625</LatitudeDegrees>
              <LongitudeDegrees>-1.9843916036188602447509765625</LongitudeDegrees>
            </Position>
            <AltitudeMeters>0.800000011920928955078125</AltitudeMeters>
            <DistanceMeters>NAN</DistanceMeters>
          </Trackpoint>
          <Trackpoint>
            <Time>2021-08-12T10:48:14.000Z</Time>
            <Position>
              <LatitudeDegrees>43.32071746699512004852294921875</LatitudeDegrees>
              <LongitudeDegrees>-1.98448774404823780059814453125</LongitudeDegrees>
            </Position>
            <AltitudeMeters>1</AltitudeMeters>
            <DistanceMeters>NAN</DistanceMeters>
          </Trackpoint>
          <Trackpoint>
            <Time>2021-08-12T10:48:15.000Z</Time>
            <Position>
              <LatitudeDegrees>43.32074780948460102081298828125</LatitudeDegrees>
              <LongitudeDegrees>-1.9845005683600902557373046875</LongitudeDegrees>
            </Position>
            <AltitudeMeters>1.2000000476837158203125</AltitudeMeters>
            <DistanceMeters>NAN</DistanceMeters>
          </Trackpoint>
          <Trackpoint>
            <Time>2021-08-12T10:48:17.000Z</Time>
            <Position>
              <LatitudeDegrees>43.3208095841109752655029296875</LatitudeDegrees>
              <LongitudeDegrees>-1.9845163263380527496337890625</LongitudeDegrees>
            </Position>
            <AltitudeMeters>1.2000000476837158203125</AltitudeMeters>
            <DistanceMeters>NAN</DistanceMeters>
          </Trackpoint>
          <Trackpoint>
            <Time>2021-08-12T10:48:18.000Z</Time>
            <Position>
              <LatitudeDegrees>43.3208364062011241912841796875</LatitudeDegrees>
              <LongitudeDegrees>-1.98453552089631557464599609375</LongitudeDegrees>
            </Position>
            <AltitudeMeters>1.2000000476837158203125</AltitudeMeters>
            <DistanceMeters>NAN</DistanceMeters>
          </Trackpoint>
          <Trackpoint>
            <Time>2021-08-12T10:48:19.000Z</Time>
            <Position>
              <LatitudeDegrees>43.320858366787433624267578125</LatitudeDegrees>
              <LongitudeDegrees>-1.9845511950552463531494140625</LongitudeDegrees>
            </Position>
            <AltitudeMeters>1.2000000476837158203125</AltitudeMeters>
            <DistanceMeters>NAN</DistanceMeters>
          </Trackpoint>
          <Trackpoint>
            <Time>2021-08-12T10:48:20.000Z</Time>
            <Position>
              <LatitudeDegrees>43.3208794891834259033203125</LatitudeDegrees>
              <LongitudeDegrees>-1.9845662824809551239013671875</LongitudeDegrees>
            </Position>
            <AltitudeMeters>1.2000000476837158203125</AltitudeMeters>
            <DistanceMeters>NAN</DistanceMeters>
          </Trackpoint>
          <Trackpoint>
            <Time>2021-08-12T10:48:21.000Z</Time>
            <Position>
              <LatitudeDegrees>43.32090698182582855224609375</LatitudeDegrees>
              <LongitudeDegrees>-1.98459218256175518035888671875</LongitudeDegrees>
            </Position>
            <AltitudeMeters>1.2000000476837158203125</AltitudeMeters>
            <DistanceMeters>NAN</DistanceMeters>
          </Trackpoint>
          <Trackpoint>
            <Time>2021-08-12T10:48:22.000Z</Time>
            <Position>
              <LatitudeDegrees>43.3209373243153095245361328125</LatitudeDegrees>
              <LongitudeDegrees>-1.98461632244288921356201171875</LongitudeDegrees>
            </Position>
            <AltitudeMeters>1.2000000476837158203125</AltitudeMeters>
            <DistanceMeters>NAN</DistanceMeters>
          </Trackpoint>
          <Trackpoint>
            <Time>2021-08-12T10:48:23.000Z</Time>
            <Position>
              <LatitudeDegrees>43.32096791826188564300537109375</LatitudeDegrees>
              <LongitudeDegrees>-1.98463962413370609283447265625</LongitudeDegrees>
            </Position>
            <AltitudeMeters>1.39999997615814208984375</AltitudeMeters>
            <DistanceMeters>NAN</DistanceMeters>
          </Trackpoint>
          <Trackpoint>
            <Time>2021-08-12T10:48:28.000Z</Time>
            <Position>
              <LatitudeDegrees>43.32114972174167633056640625</LatitudeDegrees>
              <LongitudeDegrees>-1.9847744889557361602783203125</LongitudeDegrees>
            </Position>
            <AltitudeMeters>1.39999997615814208984375</AltitudeMeters>
            <DistanceMeters>NAN</DistanceMeters>
          </Trackpoint>
          <Trackpoint>
            <Time>2021-08-12T10:48:29.000Z</Time>
            <Position>
              <LatitudeDegrees>43.3211825788021087646484375</LatitudeDegrees>
              <LongitudeDegrees>-1.9847976230084896087646484375</LongitudeDegrees>
            </Position>
            <AltitudeMeters>1.39999997615814208984375</AltitudeMeters>
            <DistanceMeters>NAN</DistanceMeters>
          </Trackpoint>
          <Trackpoint>
            <Time>2021-08-12T10:48:30.000Z</Time>
            <Position>
              <LatitudeDegrees>43.3212159387767314910888671875</LatitudeDegrees>
              <LongitudeDegrees>-1.9848279654979705810546875</LongitudeDegrees>
            </Position>
            <AltitudeMeters>1.39999997615814208984375</AltitudeMeters>
            <DistanceMeters>NAN</DistanceMeters>
          </Trackpoint>
          <Trackpoint>
            <Time>2021-08-12T10:48:35.000Z</Time>
            <Position>
              <LatitudeDegrees>43.32136522047221660614013671875</LatitudeDegrees>
              <LongitudeDegrees>-1.984928213059902191162109375</LongitudeDegrees>
            </Position>
            <AltitudeMeters>1</AltitudeMeters>
            <DistanceMeters>NAN</DistanceMeters>
          </Trackpoint>
          <Trackpoint>
            <Time>2021-08-12T10:48:37.000Z</Time>
            <Position>
              <LatitudeDegrees>43.32142758183181285858154296875</LatitudeDegrees>
              <LongitudeDegrees>-1.9849505089223384857177734375</LongitudeDegrees>
            </Position>
            <AltitudeMeters>1</AltitudeMeters>
            <DistanceMeters>NAN</DistanceMeters>
          </Trackpoint>
          <Trackpoint>
            <Time>2021-08-12T10:48:39.000Z</Time>
            <Position>
              <LatitudeDegrees>43.32147602923214435577392578125</LatitudeDegrees>
              <LongitudeDegrees>-1.9849997945129871368408203125</LongitudeDegrees>
            </Position>
            <AltitudeMeters>1</AltitudeMeters>
            <DistanceMeters>NAN</DistanceMeters>
          </Trackpoint>
          <Trackpoint>
            <Time>2021-08-12T10:48:40.000Z</Time>
            <Position>
              <LatitudeDegrees>43.321513831615447998046875</LatitudeDegrees>
              <LongitudeDegrees>-1.9850078411400318145751953125</LongitudeDegrees>
            </Position>
            <AltitudeMeters>1</AltitudeMeters>
            <DistanceMeters>NAN</DistanceMeters>
          </Trackpoint>
          <Trackpoint>
            <Time>2021-08-12T10:48:41.000Z</Time>
            <Position>
              <LatitudeDegrees>43.3215421624481678009033203125</LatitudeDegrees>
              <LongitudeDegrees>-1.985018737614154815673828125</LongitudeDegrees>
            </Position>
            <AltitudeMeters>0.800000011920928955078125</AltitudeMeters>
            <DistanceMeters>NAN</DistanceMeters>
          </Trackpoint>
          <Trackpoint>
            <Time>2021-08-12T10:48:42.000Z</Time>
            <Position>
              <LatitudeDegrees>43.3215659670531749725341796875</LatitudeDegrees>
              <LongitudeDegrees>-1.985030137002468109130859375</LongitudeDegrees>
            </Position>
            <AltitudeMeters>0.800000011920928955078125</AltitudeMeters>
            <DistanceMeters>NAN</DistanceMeters>
          </Trackpoint>
          <Trackpoint>
            <Time>2021-08-12T10:48:43.000Z</Time>
            <Position>
              <LatitudeDegrees>43.321588933467864990234375</LatitudeDegrees>
              <LongitudeDegrees>-1.98503877036273479461669921875</LongitudeDegrees>
            </Position>
            <AltitudeMeters>0.800000011920928955078125</AltitudeMeters>
            <DistanceMeters>NAN</DistanceMeters>
          </Trackpoint>
          <Trackpoint>
            <Time>2021-08-12T10:48:44.000Z</Time>
            <Position>
              <LatitudeDegrees>43.32161064259707927703857421875</LatitudeDegrees>
              <LongitudeDegrees>-1.985047571361064910888671875</LongitudeDegrees>
            </Position>
            <AltitudeMeters>0.800000011920928955078125</AltitudeMeters>
            <DistanceMeters>NAN</DistanceMeters>
          </Trackpoint>
          <Trackpoint>
            <Time>2021-08-12T10:48:45.000Z</Time>
            <Position>
              <LatitudeDegrees>43.32163210026919841766357421875</LatitudeDegrees>
              <LongitudeDegrees>-1.98505067266523838043212890625</LongitudeDegrees>
            </Position>
            <AltitudeMeters>0.800000011920928955078125</AltitudeMeters>
            <DistanceMeters>NAN</DistanceMeters>
          </Trackpoint>
          <Trackpoint>
            <Time>2021-08-12T10:48:48.000Z</Time>
            <Position>
              <LatitudeDegrees>43.3216890133917331695556640625</LatitudeDegrees>
              <LongitudeDegrees>-1.98503675870597362518310546875</LongitudeDegrees>
            </Position>
            <AltitudeMeters>0.60000002384185791015625</AltitudeMeters>
            <DistanceMeters>NAN</DistanceMeters>
          </Trackpoint>
          <Trackpoint>
            <Time>2021-08-12T10:48:49.000Z</Time>
            <Position>
              <LatitudeDegrees>43.32170653156936168670654296875</LatitudeDegrees>
              <LongitudeDegrees>-1.98503675870597362518310546875</LongitudeDegrees>
            </Position>
            <AltitudeMeters>0.60000002384185791015625</AltitudeMeters>
            <DistanceMeters>NAN</DistanceMeters>
          </Trackpoint>
          <Trackpoint>
            <Time>2021-08-12T10:48:50.000Z</Time>
            <Position>
              <LatitudeDegrees>43.32172547467052936553955078125</LatitudeDegrees>
              <LongitudeDegrees>-1.98504731990396976470947265625</LongitudeDegrees>
            </Position>
            <AltitudeMeters>0.60000002384185791015625</AltitudeMeters>
            <DistanceMeters>NAN</DistanceMeters>
          </Trackpoint>
          <Trackpoint>
            <Time>2021-08-12T10:48:51.000Z</Time>
            <Position>
              <LatitudeDegrees>43.32174383103847503662109375</LatitudeDegrees>
              <LongitudeDegrees>-1.98506307788193225860595703125</LongitudeDegrees>
            </Position>
            <AltitudeMeters>0.4000000059604644775390625</AltitudeMeters>
            <DistanceMeters>NAN</DistanceMeters>
          </Trackpoint>
          <Trackpoint>
            <Time>2021-08-12T10:48:52.000Z</Time>
            <Position>
              <LatitudeDegrees>43.32176034338772296905517578125</LatitudeDegrees>
              <LongitudeDegrees>-1.98507380671799182891845703125</LongitudeDegrees>
            </Position>
            <AltitudeMeters>0.4000000059604644775390625</AltitudeMeters>
            <DistanceMeters>NAN</DistanceMeters>
          </Trackpoint>
          <Trackpoint>
            <Time>2021-08-12T10:48:53.000Z</Time>
            <Position>
              <LatitudeDegrees>43.32177693955600261688232421875</LatitudeDegrees>
              <LongitudeDegrees>-1.98508051224052906036376953125</LongitudeDegrees>
            </Position>
            <AltitudeMeters>0.20000000298023223876953125</AltitudeMeters>
            <DistanceMeters>NAN</DistanceMeters>
          </Trackpoint>
          <Trackpoint>
            <Time>2021-08-12T10:48:54.000Z</Time>
            <Position>
              <LatitudeDegrees>43.3217889256775379180908203125</LatitudeDegrees>
              <LongitudeDegrees>-1.985083110630512237548828125</LongitudeDegrees>
            </Position>
            <AltitudeMeters>0.20000000298023223876953125</AltitudeMeters>
            <DistanceMeters>NAN</DistanceMeters>
          </Trackpoint>
          <Trackpoint>
            <Time>2021-08-12T10:48:55.000Z</Time>
            <Position>
              <LatitudeDegrees>43.32179739139974117279052734375</LatitudeDegrees>
              <LongitudeDegrees>-1.98508604429662227630615234375</LongitudeDegrees>
            </Position>
            <AltitudeMeters>0.20000000298023223876953125</AltitudeMeters>
            <DistanceMeters>NAN</DistanceMeters>
          </Trackpoint>
          <Trackpoint>
            <Time>2021-08-12T10:48:56.000Z</Time>
            <Position>
              <LatitudeDegrees>43.32180677913129329681396484375</LatitudeDegrees>
              <LongitudeDegrees>-1.9850876368582248687744140625</LongitudeDegrees>
            </Position>
            <AltitudeMeters>0.20000000298023223876953125</AltitudeMeters>
            <DistanceMeters>NAN</DistanceMeters>
          </Trackpoint>
          <Trackpoint>
            <Time>2021-08-12T10:48:57.000Z</Time>
            <Position>
              <LatitudeDegrees>43.32181700505316257476806640625</LatitudeDegrees>
              <LongitudeDegrees>-1.98508839122951030731201171875</LongitudeDegrees>
            </Position>
            <AltitudeMeters>0.20000000298023223876953125</AltitudeMeters>
            <DistanceMeters>NAN</DistanceMeters>
          </Trackpoint>
          <Trackpoint>
            <Time>2021-08-12T10:48:58.000Z</Time>
            <Position>
              <LatitudeDegrees>43.32182102836668491363525390625</LatitudeDegrees>
              <LongitudeDegrees>-1.98508889414370059967041015625</LongitudeDegrees>
            </Position>
            <AltitudeMeters>0.20000000298023223876953125</AltitudeMeters>
            <DistanceMeters>NAN</DistanceMeters>
          </Trackpoint>
          <Trackpoint>
            <Time>2021-08-12T10:49:02.000Z</Time>
            <Position>
              <LatitudeDegrees>43.321822620928287506103515625</LatitudeDegrees>
              <LongitudeDegrees>-1.985085122287273406982421875</LongitudeDegrees>
            </Position>
            <AltitudeMeters>0.20000000298023223876953125</AltitudeMeters>
            <DistanceMeters>NAN</DistanceMeters>
          </Trackpoint>
          <Trackpoint>
            <Time>2021-08-12T10:49:10.000Z</Time>
            <Position>
              <LatitudeDegrees>43.32184215076267719268798828125</LatitudeDegrees>
              <LongitudeDegrees>-1.985119320452213287353515625</LongitudeDegrees>
            </Position>
            <AltitudeMeters>0.60000002384185791015625</AltitudeMeters>
            <DistanceMeters>NAN</DistanceMeters>
          </Trackpoint>
          <Trackpoint>
            <Time>2021-08-12T10:49:11.000Z</Time>
            <Position>
              <LatitudeDegrees>43.32185287959873676300048828125</LatitudeDegrees>
              <LongitudeDegrees>-1.9851275347173213958740234375</LongitudeDegrees>
            </Position>
            <AltitudeMeters>0.60000002384185791015625</AltitudeMeters>
            <DistanceMeters>NAN</DistanceMeters>
          </Trackpoint>
          <Trackpoint>
            <Time>2021-08-12T10:49:12.000Z</Time>
            <Position>
              <LatitudeDegrees>43.32186494953930377960205078125</LatitudeDegrees>
              <LongitudeDegrees>-1.98513516224920749664306640625</LongitudeDegrees>
            </Position>
            <AltitudeMeters>0.60000002384185791015625</AltitudeMeters>
            <DistanceMeters>NAN</DistanceMeters>
          </Trackpoint>
          <Trackpoint>
            <Time>2021-08-12T10:49:13.000Z</Time>
            <Position>
              <LatitudeDegrees>43.32187718711793422698974609375</LatitudeDegrees>
              <LongitudeDegrees>-1.98513767682015895843505859375</LongitudeDegrees>
            </Position>
            <AltitudeMeters>0.60000002384185791015625</AltitudeMeters>
            <DistanceMeters>NAN</DistanceMeters>
          </Trackpoint>
          <Trackpoint>
            <Time>2021-08-12T10:49:15.000Z</Time>
            <Position>
              <LatitudeDegrees>43.32189428620040416717529296875</LatitudeDegrees>
              <LongitudeDegrees>-1.98513415642082691192626953125</LongitudeDegrees>
            </Position>
            <AltitudeMeters>0.60000002384185791015625</AltitudeMeters>
            <DistanceMeters>NAN</DistanceMeters>
          </Trackpoint>
          <Trackpoint>
            <Time>2021-08-12T10:49:16.000Z</Time>
            <Position>
              <LatitudeDegrees>43.32189998589456081390380859375</LatitudeDegrees>
              <LongitudeDegrees>-1.9851359166204929351806640625</LongitudeDegrees>
            </Position>
            <AltitudeMeters>0.60000002384185791015625</AltitudeMeters>
            <DistanceMeters>NAN</DistanceMeters>
          </Trackpoint>
          <Trackpoint>
            <Time>2021-08-12T10:49:59.000Z</Time>
            <Position>
              <LatitudeDegrees>43.32193887792527675628662109375</LatitudeDegrees>
              <LongitudeDegrees>-1.98513968847692012786865234375</LongitudeDegrees>
            </Position>
            <AltitudeMeters>0.800000011920928955078125</AltitudeMeters>
            <DistanceMeters>NAN</DistanceMeters>
          </Trackpoint>
          <Trackpoint>
            <Time>2021-08-12T10:50:23.000Z</Time>
            <Position>
              <LatitudeDegrees>43.32196871750056743621826171875</LatitudeDegrees>
              <LongitudeDegrees>-1.98514320887625217437744140625</LongitudeDegrees>
            </Position>
            <AltitudeMeters>1.2000000476837158203125</AltitudeMeters>
            <DistanceMeters>NAN</DistanceMeters>
          </Trackpoint>
          <Trackpoint>
            <Time>2021-08-12T10:51:10.000Z</Time>
            <Position>
              <LatitudeDegrees>43.32200576551258563995361328125</LatitudeDegrees>
              <LongitudeDegrees>-1.98508839122951030731201171875</LongitudeDegrees>
            </Position>
            <AltitudeMeters>0.60000002384185791015625</AltitudeMeters>
            <DistanceMeters>NAN</DistanceMeters>
          </Trackpoint>
          <Trackpoint>
            <Time>2021-08-12T10:52:32.000Z</Time>
            <Position>
              <LatitudeDegrees>43.32197492010891437530517578125</LatitudeDegrees>
              <LongitudeDegrees>-1.9851667620241641998291015625</LongitudeDegrees>
            </Position>
            <AltitudeMeters>1.2000000476837158203125</AltitudeMeters>
            <DistanceMeters>NAN</DistanceMeters>
          </Trackpoint>
          <Trackpoint>
            <Time>2021-08-12T10:53:06.000Z</Time>
            <Position>
              <LatitudeDegrees>43.32198464311659336090087890625</LatitudeDegrees>
              <LongitudeDegrees>-1.98516516946256160736083984375</LongitudeDegrees>
            </Position>
            <AltitudeMeters>1.7999999523162841796875</AltitudeMeters>
            <DistanceMeters>NAN</DistanceMeters>
          </Trackpoint>
          <Trackpoint>
            <Time>2021-08-12T10:53:09.000Z</Time>
            <Position>
              <LatitudeDegrees>43.32201833836734294891357421875</LatitudeDegrees>
              <LongitudeDegrees>-1.98517673648893833160400390625</LongitudeDegrees>
            </Position>
            <AltitudeMeters>1.7999999523162841796875</AltitudeMeters>
            <DistanceMeters>NAN</DistanceMeters>
          </Trackpoint>
          <Trackpoint>
            <Time>2021-08-12T10:53:11.000Z</Time>
            <Position>
              <LatitudeDegrees>43.32202705554664134979248046875</LatitudeDegrees>
              <LongitudeDegrees>-1.985186040401458740234375</LongitudeDegrees>
            </Position>
            <AltitudeMeters>1.7999999523162841796875</AltitudeMeters>
            <DistanceMeters>NAN</DistanceMeters>
          </Trackpoint>
          <Trackpoint>
            <Time>2021-08-12T10:53:12.000Z</Time>
            <Position>
              <LatitudeDegrees>43.3220328390598297119140625</LatitudeDegrees>
              <LongitudeDegrees>-1.98519475758075714111328125</LongitudeDegrees>
            </Position>
            <AltitudeMeters>1.7999999523162841796875</AltitudeMeters>
            <DistanceMeters>NAN</DistanceMeters>
          </Trackpoint>
          <Trackpoint>
            <Time>2021-08-12T10:53:13.000Z</Time>
            <Position>
              <LatitudeDegrees>43.32203996367752552032470703125</LatitudeDegrees>
              <LongitudeDegrees>-1.98520657606422901153564453125</LongitudeDegrees>
            </Position>
            <AltitudeMeters>1.7999999523162841796875</AltitudeMeters>
            <DistanceMeters>NAN</DistanceMeters>
          </Trackpoint>
          <Trackpoint>
            <Time>2021-08-12T10:53:15.000Z</Time>
            <Position>
              <LatitudeDegrees>43.32204901613295078277587890625</LatitudeDegrees>
              <LongitudeDegrees>-1.98523172177374362945556640625</LongitudeDegrees>
            </Position>
            <AltitudeMeters>1.7999999523162841796875</AltitudeMeters>
            <DistanceMeters>NAN</DistanceMeters>
          </Trackpoint>
          <Trackpoint>
            <Time>2021-08-12T10:53:16.000Z</Time>
            <Position>
              <LatitudeDegrees>43.32205337472259998321533203125</LatitudeDegrees>
              <LongitudeDegrees>-1.98524815030395984649658203125</LongitudeDegrees>
            </Position>
            <AltitudeMeters>1.7999999523162841796875</AltitudeMeters>
            <DistanceMeters>NAN</DistanceMeters>
          </Trackpoint>
          <Trackpoint>
            <Time>2021-08-12T10:53:17.000Z</Time>
            <Position>
              <LatitudeDegrees>43.32205018959939479827880859375</LatitudeDegrees>
              <LongitudeDegrees>-1.98526047170162200927734375</LongitudeDegrees>
            </Position>
            <AltitudeMeters>1.7999999523162841796875</AltitudeMeters>
            <DistanceMeters>NAN</DistanceMeters>
          </Trackpoint>
          <Trackpoint>
            <Time>2021-08-12T10:53:18.000Z</Time>
            <Position>
              <LatitudeDegrees>43.32204733975231647491455078125</LatitudeDegrees>
              <LongitudeDegrees>-1.985276900231838226318359375</LongitudeDegrees>
            </Position>
            <AltitudeMeters>1.7999999523162841796875</AltitudeMeters>
            <DistanceMeters>NAN</DistanceMeters>
          </Trackpoint>
          <Trackpoint>
            <Time>2021-08-12T10:53:19.000Z</Time>
            <Position>
              <LatitudeDegrees>43.322044573724269866943359375</LatitudeDegrees>
              <LongitudeDegrees>-1.98529341258108615875244140625</LongitudeDegrees>
            </Position>
            <AltitudeMeters>1.7999999523162841796875</AltitudeMeters>
            <DistanceMeters>NAN</DistanceMeters>
          </Trackpoint>
          <Trackpoint>
            <Time>2021-08-12T10:53:20.000Z</Time>
            <Position>
              <LatitudeDegrees>43.32204013131558895111083984375</LatitudeDegrees>
              <LongitudeDegrees>-1.98530917055904865264892578125</LongitudeDegrees>
            </Position>
            <AltitudeMeters>1.60000002384185791015625</AltitudeMeters>
            <DistanceMeters>NAN</DistanceMeters>
          </Trackpoint>
          <Trackpoint>
            <Time>2021-08-12T10:53:21.000Z</Time>
            <Position>
              <LatitudeDegrees>43.322031833231449127197265625</LatitudeDegrees>
              <LongitudeDegrees>-1.98532861657440662384033203125</LongitudeDegrees>
            </Position>
            <AltitudeMeters>1.60000002384185791015625</AltitudeMeters>
            <DistanceMeters>NAN</DistanceMeters>
          </Trackpoint>
          <Trackpoint>
            <Time>2021-08-12T10:53:27.000Z</Time>
            <Position>
              <LatitudeDegrees>43.32198363728821277618408203125</LatitudeDegrees>
              <LongitudeDegrees>-1.9854996912181377410888671875</LongitudeDegrees>
            </Position>
            <AltitudeMeters>1.60000002384185791015625</AltitudeMeters>
            <DistanceMeters>NAN</DistanceMeters>
          </Trackpoint>
          <Trackpoint>
            <Time>2021-08-12T10:53:30.000Z</Time>
            <Position>
              <LatitudeDegrees>43.3219652809202671051025390625</LatitudeDegrees>
              <LongitudeDegrees>-1.98562550358474254608154296875</LongitudeDegrees>
            </Position>
            <AltitudeMeters>1.60000002384185791015625</AltitudeMeters>
            <DistanceMeters>NAN</DistanceMeters>
          </Trackpoint>
          <Trackpoint>
            <Time>2021-08-12T10:53:31.000Z</Time>
            <Position>
              <LatitudeDegrees>43.3219585753977298736572265625</LatitudeDegrees>
              <LongitudeDegrees>-1.98565718717873096466064453125</LongitudeDegrees>
            </Position>
            <AltitudeMeters>1.60000002384185791015625</AltitudeMeters>
            <DistanceMeters>NAN</DistanceMeters>
          </Trackpoint>
          <Trackpoint>
            <Time>2021-08-12T10:53:32.000Z</Time>
            <Position>
              <LatitudeDegrees>43.32195103168487548828125</LatitudeDegrees>
              <LongitudeDegrees>-1.98568199761211872100830078125</LongitudeDegrees>
            </Position>
            <AltitudeMeters>1.60000002384185791015625</AltitudeMeters>
            <DistanceMeters>NAN</DistanceMeters>
          </Trackpoint>
          <Trackpoint>
            <Time>2021-08-12T10:53:34.000Z</Time>
            <Position>
              <LatitudeDegrees>43.3219304122030735015869140625</LatitudeDegrees>
              <LongitudeDegrees>-1.98574125766754150390625</LongitudeDegrees>
            </Position>
            <AltitudeMeters>1.60000002384185791015625</AltitudeMeters>
            <DistanceMeters>NAN</DistanceMeters>
          </Trackpoint>
          <Trackpoint>
            <Time>2021-08-12T10:53:37.000Z</Time>
            <Position>
              <LatitudeDegrees>43.321905769407749176025390625</LatitudeDegrees>
              <LongitudeDegrees>-1.9858108274638652801513671875</LongitudeDegrees>
            </Position>
            <AltitudeMeters>1.60000002384185791015625</AltitudeMeters>
            <DistanceMeters>NAN</DistanceMeters>
          </Trackpoint>
          <Trackpoint>
            <Time>2021-08-12T10:53:38.000Z</Time>
            <Position>
              <LatitudeDegrees>43.32190166227519512176513671875</LatitudeDegrees>
              <LongitudeDegrees>-1.98583354242146015167236328125</LongitudeDegrees>
            </Position>
            <AltitudeMeters>1.60000002384185791015625</AltitudeMeters>
            <DistanceMeters>NAN</DistanceMeters>
          </Trackpoint>
          <Trackpoint>
            <Time>2021-08-12T10:53:39.000Z</Time>
            <Position>
              <LatitudeDegrees>43.321899063885211944580078125</LatitudeDegrees>
              <LongitudeDegrees>-1.98585382662713527679443359375</LongitudeDegrees>
            </Position>
            <AltitudeMeters>1.60000002384185791015625</AltitudeMeters>
            <DistanceMeters>NAN</DistanceMeters>
          </Trackpoint>
          <Trackpoint>
            <Time>2021-08-12T10:53:40.000Z</Time>
            <Position>
              <LatitudeDegrees>43.321895040571689605712890625</LatitudeDegrees>
              <LongitudeDegrees>-1.9858718477189540863037109375</LongitudeDegrees>
            </Position>
            <AltitudeMeters>1.60000002384185791015625</AltitudeMeters>
            <DistanceMeters>NAN</DistanceMeters>
          </Trackpoint>
          <Trackpoint>
            <Time>2021-08-12T10:53:41.000Z</Time>
            <Position>
              <LatitudeDegrees>43.32189512439072132110595703125</LatitudeDegrees>
              <LongitudeDegrees>-1.98588919825851917266845703125</LongitudeDegrees>
            </Position>
            <AltitudeMeters>1.60000002384185791015625</AltitudeMeters>
            <DistanceMeters>NAN</DistanceMeters>
          </Trackpoint>
          <Trackpoint>
            <Time>2021-08-12T10:53:42.000Z</Time>
            <Position>
              <LatitudeDegrees>43.3218942023813724517822265625</LatitudeDegrees>
              <LongitudeDegrees>-1.98590847663581371307373046875</LongitudeDegrees>
            </Position>
            <AltitudeMeters>1.60000002384185791015625</AltitudeMeters>
            <DistanceMeters>NAN</DistanceMeters>
          </Trackpoint>
          <Trackpoint>
            <Time>2021-08-12T10:53:43.000Z</Time>
            <Position>
              <LatitudeDegrees>43.321882970631122589111328125</LatitudeDegrees>
              <LongitudeDegrees>-1.98593412525951862335205078125</LongitudeDegrees>
            </Position>
            <AltitudeMeters>1.60000002384185791015625</AltitudeMeters>
            <DistanceMeters>NAN</DistanceMeters>
          </Trackpoint>
          <Trackpoint>
            <Time>2021-08-12T10:53:44.000Z</Time>
            <Position>
              <LatitudeDegrees>43.32186595536768436431884765625</LatitudeDegrees>
              <LongitudeDegrees>-1.98596178553998470306396484375</LongitudeDegrees>
            </Position>
            <AltitudeMeters>1.60000002384185791015625</AltitudeMeters>
            <DistanceMeters>NAN</DistanceMeters>
          </Trackpoint>
          <Trackpoint>
            <Time>2021-08-12T10:53:45.000Z</Time>
            <Position>
              <LatitudeDegrees>43.3218519575893878936767578125</LatitudeDegrees>
              <LongitudeDegrees>-1.985986344516277313232421875</LongitudeDegrees>
            </Position>
            <AltitudeMeters>1.60000002384185791015625</AltitudeMeters>
            <DistanceMeters>NAN</DistanceMeters>
          </Trackpoint>
          <Trackpoint>
            <Time>2021-08-12T10:53:46.000Z</Time>
            <Position>
              <LatitudeDegrees>43.3218465931713581085205078125</LatitudeDegrees>
              <LongitudeDegrees>-1.98601123876869678497314453125</LongitudeDegrees>
            </Position>
            <AltitudeMeters>1.60000002384185791015625</AltitudeMeters>
            <DistanceMeters>NAN</DistanceMeters>
          </Trackpoint>
          <Trackpoint>
            <Time>2021-08-12T10:53:47.000Z</Time>
            <Position>
              <LatitudeDegrees>43.321846425533294677734375</LatitudeDegrees>
              <LongitudeDegrees>-1.9860337860882282257080078125</LongitudeDegrees>
            </Position>
            <AltitudeMeters>1.60000002384185791015625</AltitudeMeters>
            <DistanceMeters>NAN</DistanceMeters>
          </Trackpoint>
          <Trackpoint>
            <Time>2021-08-12T10:53:48.000Z</Time>
            <Position>
              <LatitudeDegrees>43.32184097729623317718505859375</LatitudeDegrees>
              <LongitudeDegrees>-1.98605750687420368194580078125</LongitudeDegrees>
            </Position>
            <AltitudeMeters>1.60000002384185791015625</AltitudeMeters>
            <DistanceMeters>NAN</DistanceMeters>
          </Trackpoint>
          <Trackpoint>
            <Time>2021-08-12T10:53:49.000Z</Time>
            <Position>
              <LatitudeDegrees>43.3218304999172687530517578125</LatitudeDegrees>
              <LongitudeDegrees>-1.9860817305743694305419921875</LongitudeDegrees>
            </Position>
            <AltitudeMeters>1.60000002384185791015625</AltitudeMeters>
            <DistanceMeters>NAN</DistanceMeters>
          </Trackpoint>
          <Trackpoint>
            <Time>2021-08-12T10:53:52.000Z</Time>
            <Position>
              <LatitudeDegrees>43.321799822151660919189453125</LatitudeDegrees>
              <LongitudeDegrees>-1.98614895343780517578125</LongitudeDegrees>
            </Position>
            <AltitudeMeters>1.60000002384185791015625</AltitudeMeters>
            <DistanceMeters>NAN</DistanceMeters>
          </Trackpoint>
          <Trackpoint>
            <Time>2021-08-12T10:53:54.000Z</Time>
            <Position>
              <LatitudeDegrees>43.32178750075399875640869140625</LatitudeDegrees>
              <LongitudeDegrees>-1.9861878454685211181640625</LongitudeDegrees>
            </Position>
            <AltitudeMeters>1.60000002384185791015625</AltitudeMeters>
            <DistanceMeters>NAN</DistanceMeters>
          </Trackpoint>
          <Trackpoint>
            <Time>2021-08-12T10:53:59.000Z</Time>
            <Position>
              <LatitudeDegrees>43.321749866008758544921875</LatitudeDegrees>
              <LongitudeDegrees>-1.98631416074931621551513671875</LongitudeDegrees>
            </Position>
            <AltitudeMeters>1.39999997615814208984375</AltitudeMeters>
            <DistanceMeters>NAN</DistanceMeters>
          </Trackpoint>
          <Trackpoint>
            <Time>2021-08-12T10:54:02.000Z</Time>
            <Position>
              <LatitudeDegrees>43.32174810580909252166748046875</LatitudeDegrees>
              <LongitudeDegrees>-1.98639244772493839263916015625</LongitudeDegrees>
            </Position>
            <AltitudeMeters>1.2000000476837158203125</AltitudeMeters>
            <DistanceMeters>NAN</DistanceMeters>
          </Trackpoint>
          <Trackpoint>
            <Time>2021-08-12T10:54:03.000Z</Time>
            <Position>
              <LatitudeDegrees>43.3217547275125980377197265625</LatitudeDegrees>
              <LongitudeDegrees>-1.9864166714251041412353515625</LongitudeDegrees>
            </Position>
            <AltitudeMeters>1</AltitudeMeters>
            <DistanceMeters>NAN</DistanceMeters>
          </Trackpoint>
          <Trackpoint>
            <Time>2021-08-12T10:54:04.000Z</Time>
            <Position>
              <LatitudeDegrees>43.32176201976835727691650390625</LatitudeDegrees>
              <LongitudeDegrees>-1.986441314220428466796875</LongitudeDegrees>
            </Position>
            <AltitudeMeters>1</AltitudeMeters>
            <DistanceMeters>NAN</DistanceMeters>
          </Trackpoint>
          <Trackpoint>
            <Time>2021-08-12T10:54:05.000Z</Time>
            <Position>
              <LatitudeDegrees>43.32176755182445049285888671875</LatitudeDegrees>
              <LongitudeDegrees>-1.9864679686725139617919921875</LongitudeDegrees>
            </Position>
            <AltitudeMeters>0.800000011920928955078125</AltitudeMeters>
            <DistanceMeters>NAN</DistanceMeters>
          </Trackpoint>
          <Trackpoint>
            <Time>2021-08-12T10:54:08.000Z</Time>
            <Position>
              <LatitudeDegrees>43.3217795379459857940673828125</LatitudeDegrees>
              <LongitudeDegrees>-1.98654390871524810791015625</LongitudeDegrees>
            </Position>
            <AltitudeMeters>0.800000011920928955078125</AltitudeMeters>
            <DistanceMeters>NAN</DistanceMeters>
          </Trackpoint>
          <Trackpoint>
            <Time>2021-08-12T10:54:09.000Z</Time>
            <Position>
              <LatitudeDegrees>43.3217941224575042724609375</LatitudeDegrees>
              <LongitudeDegrees>-1.98656134307384490966796875</LongitudeDegrees>
            </Position>
            <AltitudeMeters>0.800000011920928955078125</AltitudeMeters>
            <DistanceMeters>NAN</DistanceMeters>
          </Trackpoint>
          <Trackpoint>
            <Time>2021-08-12T10:54:10.000Z</Time>
            <Position>
              <LatitudeDegrees>43.321807868778705596923828125</LatitudeDegrees>
              <LongitudeDegrees>-1.98657383210957050323486328125</LongitudeDegrees>
            </Position>
            <AltitudeMeters>1</AltitudeMeters>
            <DistanceMeters>NAN</DistanceMeters>
          </Trackpoint>
          <Trackpoint>
            <Time>2021-08-12T10:54:11.000Z</Time>
            <Position>
              <LatitudeDegrees>43.3218191005289554595947265625</LatitudeDegrees>
              <LongitudeDegrees>-1.9865901768207550048828125</LongitudeDegrees>
            </Position>
            <AltitudeMeters>1</AltitudeMeters>
            <DistanceMeters>NAN</DistanceMeters>
          </Trackpoint>
          <Trackpoint>
            <Time>2021-08-12T10:54:12.000Z</Time>
            <Position>
              <LatitudeDegrees>43.32182840444147586822509765625</LatitudeDegrees>
              <LongitudeDegrees>-1.98660828173160552978515625</LongitudeDegrees>
            </Position>
            <AltitudeMeters>1</AltitudeMeters>
            <DistanceMeters>NAN</DistanceMeters>
          </Trackpoint>
          <Trackpoint>
            <Time>2021-08-12T10:54:13.000Z</Time>
            <Position>
              <LatitudeDegrees>43.3218343555927276611328125</LatitudeDegrees>
              <LongitudeDegrees>-1.98662437498569488525390625</LongitudeDegrees>
            </Position>
            <AltitudeMeters>1</AltitudeMeters>
            <DistanceMeters>NAN</DistanceMeters>
          </Trackpoint>
          <Trackpoint>
            <Time>2021-08-12T10:54:14.000Z</Time>
            <Position>
              <LatitudeDegrees>43.32183762453496456146240234375</LatitudeDegrees>
              <LongitudeDegrees>-1.98663376271724700927734375</LongitudeDegrees>
            </Position>
            <AltitudeMeters>1</AltitudeMeters>
            <DistanceMeters>NAN</DistanceMeters>
          </Trackpoint>
          <Trackpoint>
            <Time>2021-08-12T10:54:19.000Z</Time>
            <Position>
              <LatitudeDegrees>43.3218318410217761993408203125</LatitudeDegrees>
              <LongitudeDegrees>-1.9866429828107357025146484375</LongitudeDegrees>
            </Position>
            <AltitudeMeters>1</AltitudeMeters>
            <DistanceMeters>NAN</DistanceMeters>
          </Trackpoint>
          <Trackpoint>
            <Time>2021-08-12T10:54:33.000Z</Time>
            <Position>
              <LatitudeDegrees>43.3218412287533283233642578125</LatitudeDegrees>
              <LongitudeDegrees>-1.9866711460053920745849609375</LongitudeDegrees>
            </Position>
            <AltitudeMeters>0.800000011920928955078125</AltitudeMeters>
            <DistanceMeters>NAN</DistanceMeters>
          </Trackpoint>
          <Trackpoint>
            <Time>2021-08-12T10:54:35.000Z</Time>
            <Position>
              <LatitudeDegrees>43.32185388542711734771728515625</LatitudeDegrees>
              <LongitudeDegrees>-1.98671716265380382537841796875</LongitudeDegrees>
            </Position>
            <AltitudeMeters>0.800000011920928955078125</AltitudeMeters>
            <DistanceMeters>NAN</DistanceMeters>
          </Trackpoint>
          <Trackpoint>
            <Time>2021-08-12T10:54:36.000Z</Time>
            <Position>
              <LatitudeDegrees>43.32186042331159114837646484375</LatitudeDegrees>
              <LongitudeDegrees>-1.9867425598204135894775390625</LongitudeDegrees>
            </Position>
            <AltitudeMeters>0.800000011920928955078125</AltitudeMeters>
            <DistanceMeters>NAN</DistanceMeters>
          </Trackpoint>
          <Trackpoint>
            <Time>2021-08-12T10:54:38.000Z</Time>
            <Position>
              <LatitudeDegrees>43.32189076580107212066650390625</LatitudeDegrees>
              <LongitudeDegrees>-1.98678773827850818634033203125</LongitudeDegrees>
            </Position>
            <AltitudeMeters>0.60000002384185791015625</AltitudeMeters>
            <DistanceMeters>NAN</DistanceMeters>
          </Trackpoint>
          <Trackpoint>
            <Time>2021-08-12T10:54:40.000Z</Time>
            <Position>
              <LatitudeDegrees>43.32193150185048580169677734375</LatitudeDegrees>
              <LongitudeDegrees>-1.9868106208741664886474609375</LongitudeDegrees>
            </Position>
            <AltitudeMeters>0.60000002384185791015625</AltitudeMeters>
            <DistanceMeters>NAN</DistanceMeters>
          </Trackpoint>
          <Trackpoint>
            <Time>2021-08-12T10:54:41.000Z</Time>
            <Position>
              <LatitudeDegrees>43.32195329479873180389404296875</LatitudeDegrees>
              <LongitudeDegrees>-1.98681472800672054290771484375</LongitudeDegrees>
            </Position>
            <AltitudeMeters>0.800000011920928955078125</AltitudeMeters>
            <DistanceMeters>NAN</DistanceMeters>
          </Trackpoint>
          <Trackpoint>
            <Time>2021-08-12T10:54:42.000Z</Time>
            <Position>
              <LatitudeDegrees>43.321977518498897552490234375</LatitudeDegrees>
              <LongitudeDegrees>-1.98681539855897426605224609375</LongitudeDegrees>
            </Position>
            <AltitudeMeters>0.800000011920928955078125</AltitudeMeters>
            <DistanceMeters>NAN</DistanceMeters>
          </Trackpoint>
          <Trackpoint>
            <Time>2021-08-12T10:54:43.000Z</Time>
            <Position>
              <LatitudeDegrees>43.32200006581842899322509765625</LatitudeDegrees>
              <LongitudeDegrees>-1.986824534833431243896484375</LongitudeDegrees>
            </Position>
            <AltitudeMeters>0.800000011920928955078125</AltitudeMeters>
            <DistanceMeters>NAN</DistanceMeters>
          </Trackpoint>
          <Trackpoint>
            <Time>2021-08-12T10:54:45.000Z</Time>
            <Position>
              <LatitudeDegrees>43.3220454119145870208740234375</LatitudeDegrees>
              <LongitudeDegrees>-1.9868505187332630157470703125</LongitudeDegrees>
            </Position>
            <AltitudeMeters>0.60000002384185791015625</AltitudeMeters>
            <DistanceMeters>NAN</DistanceMeters>
          </Trackpoint>
          <Trackpoint>
            <Time>2021-08-12T10:54:53.000Z</Time>
            <Position>
              <LatitudeDegrees>43.32223308272659778594970703125</LatitudeDegrees>
              <LongitudeDegrees>-1.9869482517242431640625</LongitudeDegrees>
            </Position>
            <AltitudeMeters>0</AltitudeMeters>
            <DistanceMeters>NAN</DistanceMeters>
          </Trackpoint>
          <Trackpoint>
            <Time>2021-08-12T10:54:56.000Z</Time>
            <Position>
              <LatitudeDegrees>43.32230483181774616241455078125</LatitudeDegrees>
              <LongitudeDegrees>-1.9869951903820037841796875</LongitudeDegrees>
            </Position>
            <AltitudeMeters>-0.20000000298023223876953125</AltitudeMeters>
            <DistanceMeters>NAN</DistanceMeters>
          </Trackpoint>
          <Trackpoint>
            <Time>2021-08-12T10:54:58.000Z</Time>
            <Position>
              <LatitudeDegrees>43.3223434723913669586181640625</LatitudeDegrees>
              <LongitudeDegrees>-1.98702544905245304107666015625</LongitudeDegrees>
            </Position>
            <AltitudeMeters>-0.20000000298023223876953125</AltitudeMeters>
            <DistanceMeters>NAN</DistanceMeters>
          </Trackpoint>
          <Trackpoint>
            <Time>2021-08-12T10:54:59.000Z</Time>
            <Position>
              <LatitudeDegrees>43.32236333750188350677490234375</LatitudeDegrees>
              <LongitudeDegrees>-1.9870463199913501739501953125</LongitudeDegrees>
            </Position>
            <AltitudeMeters>-0.20000000298023223876953125</AltitudeMeters>
            <DistanceMeters>NAN</DistanceMeters>
          </Trackpoint>
          <Trackpoint>
            <Time>2021-08-12T10:55:00.000Z</Time>
            <Position>
              <LatitudeDegrees>43.32238932140171527862548828125</LatitudeDegrees>
              <LongitudeDegrees>-1.987059228122234344482421875</LongitudeDegrees>
            </Position>
            <AltitudeMeters>-0.20000000298023223876953125</AltitudeMeters>
            <DistanceMeters>NAN</DistanceMeters>
          </Trackpoint>
          <Trackpoint>
            <Time>2021-08-12T10:55:02.000Z</Time>
            <Position>
              <LatitudeDegrees>43.32243575714528560638427734375</LatitudeDegrees>
              <LongitudeDegrees>-1.987071968615055084228515625</LongitudeDegrees>
            </Position>
            <AltitudeMeters>-0.4000000059604644775390625</AltitudeMeters>
            <DistanceMeters>NAN</DistanceMeters>
          </Trackpoint>
          <Trackpoint>
            <Time>2021-08-12T10:55:03.000Z</Time>
            <Position>
              <LatitudeDegrees>43.3224598132073879241943359375</LatitudeDegrees>
              <LongitudeDegrees>-1.98708194307982921600341796875</LongitudeDegrees>
            </Position>
            <AltitudeMeters>-0.4000000059604644775390625</AltitudeMeters>
            <DistanceMeters>NAN</DistanceMeters>
          </Trackpoint>
          <Trackpoint>
            <Time>2021-08-12T10:55:04.000Z</Time>
            <Position>
              <LatitudeDegrees>43.32247875630855560302734375</LatitudeDegrees>
              <LongitudeDegrees>-1.98709904216229915618896484375</LongitudeDegrees>
            </Position>
            <AltitudeMeters>-0.4000000059604644775390625</AltitudeMeters>
            <DistanceMeters>NAN</DistanceMeters>
          </Trackpoint>
          <Trackpoint>
            <Time>2021-08-12T10:55:05.000Z</Time>
            <Position>
              <LatitudeDegrees>43.322500549256801605224609375</LatitudeDegrees>
              <LongitudeDegrees>-1.98710038326680660247802734375</LongitudeDegrees>
            </Position>
            <AltitudeMeters>-0.4000000059604644775390625</AltitudeMeters>
            <DistanceMeters>NAN</DistanceMeters>
          </Trackpoint>
          <Trackpoint>
            <Time>2021-08-12T10:55:06.000Z</Time>
            <Position>
              <LatitudeDegrees>43.3225235156714916229248046875</LatitudeDegrees>
              <LongitudeDegrees>-1.98710189200937747955322265625</LongitudeDegrees>
            </Position>
            <AltitudeMeters>-0.4000000059604644775390625</AltitudeMeters>
            <DistanceMeters>NAN</DistanceMeters>
          </Trackpoint>
          <Trackpoint>
            <Time>2021-08-12T10:55:07.000Z</Time>
            <Position>
              <LatitudeDegrees>43.32254304550588130950927734375</LatitudeDegrees>
              <LongitudeDegrees>-1.98711882345378398895263671875</LongitudeDegrees>
            </Position>
            <AltitudeMeters>-0.4000000059604644775390625</AltitudeMeters>
            <DistanceMeters>NAN</DistanceMeters>
          </Trackpoint>
          <Trackpoint>
            <Time>2021-08-12T10:55:08.000Z</Time>
            <Position>
              <LatitudeDegrees>43.32256726920604705810546875</LatitudeDegrees>
              <LongitudeDegrees>-1.98712234385311603546142578125</LongitudeDegrees>
            </Position>
            <AltitudeMeters>-0.4000000059604644775390625</AltitudeMeters>
            <DistanceMeters>NAN</DistanceMeters>
          </Trackpoint>
          <Trackpoint>
            <Time>2021-08-12T10:55:09.000Z</Time>
            <Position>
              <LatitudeDegrees>43.3225962705910205841064453125</LatitudeDegrees>
              <LongitudeDegrees>-1.98712418787181377410888671875</LongitudeDegrees>
            </Position>
            <AltitudeMeters>-0.4000000059604644775390625</AltitudeMeters>
            <DistanceMeters>NAN</DistanceMeters>
          </Trackpoint>
          <Trackpoint>
            <Time>2021-08-12T10:55:10.000Z</Time>
            <Position>
              <LatitudeDegrees>43.32262418232858180999755859375</LatitudeDegrees>
              <LongitudeDegrees>-1.9871241040527820587158203125</LongitudeDegrees>
            </Position>
            <AltitudeMeters>-0.4000000059604644775390625</AltitudeMeters>
            <DistanceMeters>NAN</DistanceMeters>
          </Trackpoint>
          <Trackpoint>
            <Time>2021-08-12T10:55:11.000Z</Time>
            <Position>
              <LatitudeDegrees>43.32264781929552555084228515625</LatitudeDegrees>
              <LongitudeDegrees>-1.98713005520403385162353515625</LongitudeDegrees>
            </Position>
            <AltitudeMeters>-0.4000000059604644775390625</AltitudeMeters>
            <DistanceMeters>NAN</DistanceMeters>
          </Trackpoint>
          <Trackpoint>
            <Time>2021-08-12T10:55:12.000Z</Time>
            <Position>
              <LatitudeDegrees>43.32267095334827899932861328125</LatitudeDegrees>
              <LongitudeDegrees>-1.98714346624910831451416015625</LongitudeDegrees>
            </Position>
            <AltitudeMeters>-0.4000000059604644775390625</AltitudeMeters>
            <DistanceMeters>NAN</DistanceMeters>
          </Trackpoint>
          <Trackpoint>
            <Time>2021-08-12T10:55:14.000Z</Time>
            <Position>
              <LatitudeDegrees>43.3227166347205638885498046875</LatitudeDegrees>
              <LongitudeDegrees>-1.987172551453113555908203125</LongitudeDegrees>
            </Position>
            <AltitudeMeters>-0.4000000059604644775390625</AltitudeMeters>
            <DistanceMeters>NAN</DistanceMeters>
          </Trackpoint>
          <Trackpoint>
            <Time>2021-08-12T10:55:15.000Z</Time>
            <Position>
              <LatitudeDegrees>43.322736583650112152099609375</LatitudeDegrees>
              <LongitudeDegrees>-1.98718738742172718048095703125</LongitudeDegrees>
            </Position>
            <AltitudeMeters>-0.4000000059604644775390625</AltitudeMeters>
            <DistanceMeters>NAN</DistanceMeters>
          </Trackpoint>
          <Trackpoint>
            <Time>2021-08-12T10:55:16.000Z</Time>
            <Position>
              <LatitudeDegrees>43.3227561973035335540771484375</LatitudeDegrees>
              <LongitudeDegrees>-1.987199373543262481689453125</LongitudeDegrees>
            </Position>
            <AltitudeMeters>-0.60000002384185791015625</AltitudeMeters>
            <DistanceMeters>NAN</DistanceMeters>
          </Trackpoint>
          <Trackpoint>
            <Time>2021-08-12T10:55:19.000Z</Time>
            <Position>
              <LatitudeDegrees>43.3228255994617938995361328125</LatitudeDegrees>
              <LongitudeDegrees>-1.98724329471588134765625</LongitudeDegrees>
            </Position>
            <AltitudeMeters>-0.60000002384185791015625</AltitudeMeters>
            <DistanceMeters>NAN</DistanceMeters>
          </Trackpoint>
          <Trackpoint>
            <Time>2021-08-12T10:55:20.000Z</Time>
            <Position>
              <LatitudeDegrees>43.32284496165812015533447265625</LatitudeDegrees>
              <LongitudeDegrees>-1.9872578792273998260498046875</LongitudeDegrees>
            </Position>
            <AltitudeMeters>-0.60000002384185791015625</AltitudeMeters>
            <DistanceMeters>NAN</DistanceMeters>
          </Trackpoint>
          <Trackpoint>
            <Time>2021-08-12T10:55:21.000Z</Time>
            <Position>
              <LatitudeDegrees>43.32285652868449687957763671875</LatitudeDegrees>
              <LongitudeDegrees>-1.98727120645344257354736328125</LongitudeDegrees>
            </Position>
            <AltitudeMeters>-0.4000000059604644775390625</AltitudeMeters>
            <DistanceMeters>NAN</DistanceMeters>
          </Trackpoint>
          <Trackpoint>
            <Time>2021-08-12T10:55:23.000Z</Time>
            <Position>
              <LatitudeDegrees>43.32288335077464580535888671875</LatitudeDegrees>
              <LongitudeDegrees>-1.9872940890491008758544921875</LongitudeDegrees>
            </Position>
            <AltitudeMeters>-0.4000000059604644775390625</AltitudeMeters>
            <DistanceMeters>NAN</DistanceMeters>
          </Trackpoint>
          <Trackpoint>
            <Time>2021-08-12T10:55:24.000Z</Time>
            <Position>
              <LatitudeDegrees>43.322895504534244537353515625</LatitudeDegrees>
              <LongitudeDegrees>-1.98730926029384136199951171875</LongitudeDegrees>
            </Position>
            <AltitudeMeters>-0.4000000059604644775390625</AltitudeMeters>
            <DistanceMeters>NAN</DistanceMeters>
          </Trackpoint>
          <Trackpoint>
            <Time>2021-08-12T10:55:25.000Z</Time>
            <Position>
              <LatitudeDegrees>43.322910927236080169677734375</LatitudeDegrees>
              <LongitudeDegrees>-1.98732443153858184814453125</LongitudeDegrees>
            </Position>
            <AltitudeMeters>-0.20000000298023223876953125</AltitudeMeters>
            <DistanceMeters>NAN</DistanceMeters>
          </Trackpoint>
          <Trackpoint>
            <Time>2021-08-12T10:55:26.000Z</Time>
            <Position>
              <LatitudeDegrees>43.3229271881282329559326171875</LatitudeDegrees>
              <LongitudeDegrees>-1.9873370043933391571044921875</LongitudeDegrees>
            </Position>
            <AltitudeMeters>-0.20000000298023223876953125</AltitudeMeters>
            <DistanceMeters>NAN</DistanceMeters>
          </Trackpoint>
          <Trackpoint>
            <Time>2021-08-12T10:55:27.000Z</Time>
            <Position>
              <LatitudeDegrees>43.322942443192005157470703125</LatitudeDegrees>
              <LongitudeDegrees>-1.98734865523874759674072265625</LongitudeDegrees>
            </Position>
            <AltitudeMeters>-0.20000000298023223876953125</AltitudeMeters>
            <DistanceMeters>NAN</DistanceMeters>
          </Trackpoint>
          <Trackpoint>
            <Time>2021-08-12T10:55:28.000Z</Time>
            <Position>
              <LatitudeDegrees>43.32295887172222137451171875</LatitudeDegrees>
              <LongitudeDegrees>-1.98735804297029972076416015625</LongitudeDegrees>
            </Position>
            <AltitudeMeters>0</AltitudeMeters>
            <DistanceMeters>NAN</DistanceMeters>
          </Trackpoint>
          <Trackpoint>
            <Time>2021-08-12T10:55:29.000Z</Time>
            <Position>
              <LatitudeDegrees>43.3229734562337398529052734375</LatitudeDegrees>
              <LongitudeDegrees>-1.98736709542572498321533203125</LongitudeDegrees>
            </Position>
            <AltitudeMeters>0</AltitudeMeters>
            <DistanceMeters>NAN</DistanceMeters>
          </Trackpoint>
          <Trackpoint>
            <Time>2021-08-12T10:55:30.000Z</Time>
            <Position>
              <LatitudeDegrees>43.3229895494878292083740234375</LatitudeDegrees>
              <LongitudeDegrees>-1.98737782426178455352783203125</LongitudeDegrees>
            </Position>
            <AltitudeMeters>0</AltitudeMeters>
            <DistanceMeters>NAN</DistanceMeters>
          </Trackpoint>
          <Trackpoint>
            <Time>2021-08-12T10:55:31.000Z</Time>
            <Position>
              <LatitudeDegrees>43.32300405018031597137451171875</LatitudeDegrees>
              <LongitudeDegrees>-1.98738880455493927001953125</LongitudeDegrees>
            </Position>
            <AltitudeMeters>0</AltitudeMeters>
            <DistanceMeters>NAN</DistanceMeters>
          </Trackpoint>
          <Trackpoint>
            <Time>2021-08-12T10:55:33.000Z</Time>
            <Position>
              <LatitudeDegrees>43.32303958944976329803466796875</LatitudeDegrees>
              <LongitudeDegrees>-1.98740548454225063323974609375</LongitudeDegrees>
            </Position>
            <AltitudeMeters>0</AltitudeMeters>
            <DistanceMeters>NAN</DistanceMeters>
          </Trackpoint>
          <Trackpoint>
            <Time>2021-08-12T10:55:36.000Z</Time>
            <Position>
              <LatitudeDegrees>43.3231062255799770355224609375</LatitudeDegrees>
              <LongitudeDegrees>-1.9874104298651218414306640625</LongitudeDegrees>
            </Position>
            <AltitudeMeters>0</AltitudeMeters>
            <DistanceMeters>NAN</DistanceMeters>
          </Trackpoint>
          <Trackpoint>
            <Time>2021-08-12T10:55:42.000Z</Time>
            <Position>
              <LatitudeDegrees>43.32326539792120456695556640625</LatitudeDegrees>
              <LongitudeDegrees>-1.98749542236328125</LongitudeDegrees>
            </Position>
            <AltitudeMeters>-0.20000000298023223876953125</AltitudeMeters>
            <DistanceMeters>NAN</DistanceMeters>
          </Trackpoint>
          <Trackpoint>
            <Time>2021-08-12T10:55:46.000Z</Time>
            <Position>
              <LatitudeDegrees>43.32337805069983005523681640625</LatitudeDegrees>
              <LongitudeDegrees>-1.9876179657876491546630859375</LongitudeDegrees>
            </Position>
            <AltitudeMeters>-0.4000000059604644775390625</AltitudeMeters>
            <DistanceMeters>NAN</DistanceMeters>
          </Trackpoint>
          <Trackpoint>
            <Time>2021-08-12T10:55:48.000Z</Time>
            <Position>
              <LatitudeDegrees>43.32343974150717258453369140625</LatitudeDegrees>
              <LongitudeDegrees>-1.98768074624240398406982421875</LongitudeDegrees>
            </Position>
            <AltitudeMeters>-0.60000002384185791015625</AltitudeMeters>
            <DistanceMeters>NAN</DistanceMeters>
          </Trackpoint>
          <Trackpoint>
            <Time>2021-08-12T10:55:52.000Z</Time>
            <Position>
              <LatitudeDegrees>43.3235400728881359100341796875</LatitudeDegrees>
              <LongitudeDegrees>-1.9877721928060054779052734375</LongitudeDegrees>
            </Position>
            <AltitudeMeters>-0.60000002384185791015625</AltitudeMeters>
            <DistanceMeters>NAN</DistanceMeters>
          </Trackpoint>
          <Trackpoint>
            <Time>2021-08-12T10:55:53.000Z</Time>
            <Position>
              <LatitudeDegrees>43.32355876453220844268798828125</LatitudeDegrees>
              <LongitudeDegrees>-1.9877944886684417724609375</LongitudeDegrees>
            </Position>
            <AltitudeMeters>-0.60000002384185791015625</AltitudeMeters>
            <DistanceMeters>NAN</DistanceMeters>
          </Trackpoint>
          <Trackpoint>
            <Time>2021-08-12T10:55:55.000Z</Time>
            <Position>
              <LatitudeDegrees>43.32358055748045444488525390625</LatitudeDegrees>
              <LongitudeDegrees>-1.9878506474196910858154296875</LongitudeDegrees>
            </Position>
            <AltitudeMeters>-0.800000011920928955078125</AltitudeMeters>
            <DistanceMeters>NAN</DistanceMeters>
          </Trackpoint>
          <Trackpoint>
            <Time>2021-08-12T10:55:56.000Z</Time>
            <Position>
              <LatitudeDegrees>43.32358575426042079925537109375</LatitudeDegrees>
              <LongitudeDegrees>-1.98787755332887172698974609375</LongitudeDegrees>
            </Position>
            <AltitudeMeters>-0.800000011920928955078125</AltitudeMeters>
            <DistanceMeters>NAN</DistanceMeters>
          </Trackpoint>
          <Trackpoint>
            <Time>2021-08-12T10:55:57.000Z</Time>
            <Position>
              <LatitudeDegrees>43.32359212450683116912841796875</LatitudeDegrees>
              <LongitudeDegrees>-1.98790370486676692962646484375</LongitudeDegrees>
            </Position>
            <AltitudeMeters>-0.800000011920928955078125</AltitudeMeters>
            <DistanceMeters>NAN</DistanceMeters>
          </Trackpoint>
          <Trackpoint>
            <Time>2021-08-12T10:55:59.000Z</Time>
            <Position>
              <LatitudeDegrees>43.32359723746776580810546875</LatitudeDegrees>
              <LongitudeDegrees>-1.9879576005041599273681640625</LongitudeDegrees>
            </Position>
            <AltitudeMeters>-1</AltitudeMeters>
            <DistanceMeters>NAN</DistanceMeters>
          </Trackpoint>
          <Trackpoint>
            <Time>2021-08-12T10:56:00.000Z</Time>
            <Position>
              <LatitudeDegrees>43.3235974051058292388916015625</LatitudeDegrees>
              <LongitudeDegrees>-1.987985260784626007080078125</LongitudeDegrees>
            </Position>
            <AltitudeMeters>-1</AltitudeMeters>
            <DistanceMeters>NAN</DistanceMeters>
          </Trackpoint>
          <Trackpoint>
            <Time>2021-08-12T10:56:01.000Z</Time>
            <Position>
              <LatitudeDegrees>43.323592208325862884521484375</LatitudeDegrees>
              <LongitudeDegrees>-1.988014765083789825439453125</LongitudeDegrees>
            </Position>
            <AltitudeMeters>-1</AltitudeMeters>
            <DistanceMeters>NAN</DistanceMeters>
          </Trackpoint>
          <Trackpoint>
            <Time>2021-08-12T10:56:02.000Z</Time>
            <Position>
              <LatitudeDegrees>43.3235906995832920074462890625</LatitudeDegrees>
              <LongitudeDegrees>-1.98804167099297046661376953125</LongitudeDegrees>
            </Position>
            <AltitudeMeters>-1</AltitudeMeters>
            <DistanceMeters>NAN</DistanceMeters>
          </Trackpoint>
          <Trackpoint>
            <Time>2021-08-12T10:56:03.000Z</Time>
            <Position>
              <LatitudeDegrees>43.3235903643071651458740234375</LatitudeDegrees>
              <LongitudeDegrees>-1.9880705885589122772216796875</LongitudeDegrees>
            </Position>
            <AltitudeMeters>-1.2000000476837158203125</AltitudeMeters>
            <DistanceMeters>NAN</DistanceMeters>
          </Trackpoint>
          <Trackpoint>
            <Time>2021-08-12T10:56:04.000Z</Time>
            <Position>
              <LatitudeDegrees>43.32359262742102146148681640625</LatitudeDegrees>
              <LongitudeDegrees>-1.98809598572552204132080078125</LongitudeDegrees>
            </Position>
            <AltitudeMeters>-1.2000000476837158203125</AltitudeMeters>
            <DistanceMeters>NAN</DistanceMeters>
          </Trackpoint>
          <Trackpoint>
            <Time>2021-08-12T10:56:05.000Z</Time>
            <Position>
              <LatitudeDegrees>43.32359111867845058441162109375</LatitudeDegrees>
              <LongitudeDegrees>-1.988117359578609466552734375</LongitudeDegrees>
            </Position>
            <AltitudeMeters>-1.2000000476837158203125</AltitudeMeters>
            <DistanceMeters>NAN</DistanceMeters>
          </Trackpoint>
          <Trackpoint>
            <Time>2021-08-12T10:56:06.000Z</Time>
            <Position>
              <LatitudeDegrees>43.32358642481267452239990234375</LatitudeDegrees>
              <LongitudeDegrees>-1.98813848197460174560546875</LongitudeDegrees>
            </Position>
            <AltitudeMeters>-1.2000000476837158203125</AltitudeMeters>
            <DistanceMeters>NAN</DistanceMeters>
          </Trackpoint>
          <Trackpoint>
            <Time>2021-08-12T10:56:07.000Z</Time>
            <Position>
              <LatitudeDegrees>43.32357980310916900634765625</LatitudeDegrees>
              <LongitudeDegrees>-1.9881619513034820556640625</LongitudeDegrees>
            </Position>
            <AltitudeMeters>-1.2000000476837158203125</AltitudeMeters>
            <DistanceMeters>NAN</DistanceMeters>
          </Trackpoint>
          <Trackpoint>
            <Time>2021-08-12T10:56:08.000Z</Time>
            <Position>
              <LatitudeDegrees>43.3235752768814563751220703125</LatitudeDegrees>
              <LongitudeDegrees>-1.98818718083202838897705078125</LongitudeDegrees>
            </Position>
            <AltitudeMeters>-1.2000000476837158203125</AltitudeMeters>
            <DistanceMeters>NAN</DistanceMeters>
          </Trackpoint>
          <Trackpoint>
            <Time>2021-08-12T10:56:09.000Z</Time>
            <Position>
              <LatitudeDegrees>43.3235692419111728668212890625</LatitudeDegrees>
              <LongitudeDegrees>-1.98822439648211002349853515625</LongitudeDegrees>
            </Position>
            <AltitudeMeters>-1.2000000476837158203125</AltitudeMeters>
            <DistanceMeters>NAN</DistanceMeters>
          </Trackpoint>
          <Trackpoint>
            <Time>2021-08-12T10:56:10.000Z</Time>
            <Position>
              <LatitudeDegrees>43.3235638774931430816650390625</LatitudeDegrees>
              <LongitudeDegrees>-1.98824903927743434906005859375</LongitudeDegrees>
            </Position>
            <AltitudeMeters>-1.2000000476837158203125</AltitudeMeters>
            <DistanceMeters>NAN</DistanceMeters>
          </Trackpoint>
          <Trackpoint>
            <Time>2021-08-12T10:56:16.000Z</Time>
            <Position>
              <LatitudeDegrees>43.32353127188980579376220703125</LatitudeDegrees>
              <LongitudeDegrees>-1.98840158991515636444091796875</LongitudeDegrees>
            </Position>
            <AltitudeMeters>-1</AltitudeMeters>
            <DistanceMeters>NAN</DistanceMeters>
          </Trackpoint>
          <Trackpoint>
            <Time>2021-08-12T10:56:20.000Z</Time>
            <Position>
              <LatitudeDegrees>43.32348751835525035858154296875</LatitudeDegrees>
              <LongitudeDegrees>-1.98848448693752288818359375</LongitudeDegrees>
            </Position>
            <AltitudeMeters>-1</AltitudeMeters>
            <DistanceMeters>NAN</DistanceMeters>
          </Trackpoint>
          <Trackpoint>
            <Time>2021-08-12T10:56:21.000Z</Time>
            <Position>
              <LatitudeDegrees>43.32347796298563480377197265625</LatitudeDegrees>
              <LongitudeDegrees>-1.98850418440997600555419921875</LongitudeDegrees>
            </Position>
            <AltitudeMeters>-1</AltitudeMeters>
            <DistanceMeters>NAN</DistanceMeters>
          </Trackpoint>
          <Trackpoint>
            <Time>2021-08-12T10:56:22.000Z</Time>
            <Position>
              <LatitudeDegrees>43.3234679885208606719970703125</LatitudeDegrees>
              <LongitudeDegrees>-1.9885238818824291229248046875</LongitudeDegrees>
            </Position>
            <AltitudeMeters>-1</AltitudeMeters>
            <DistanceMeters>NAN</DistanceMeters>
          </Trackpoint>
          <Trackpoint>
            <Time>2021-08-12T10:56:23.000Z</Time>
            <Position>
              <LatitudeDegrees>43.32345633767545223236083984375</LatitudeDegrees>
              <LongitudeDegrees>-1.98854525573551654815673828125</LongitudeDegrees>
            </Position>
            <AltitudeMeters>-1</AltitudeMeters>
            <DistanceMeters>NAN</DistanceMeters>
          </Trackpoint>
          <Trackpoint>
            <Time>2021-08-12T10:56:24.000Z</Time>
            <Position>
              <LatitudeDegrees>43.3234425075352191925048828125</LatitudeDegrees>
              <LongitudeDegrees>-1.988565959036350250244140625</LongitudeDegrees>
            </Position>
            <AltitudeMeters>-1</AltitudeMeters>
            <DistanceMeters>NAN</DistanceMeters>
          </Trackpoint>
          <Trackpoint>
            <Time>2021-08-12T10:56:25.000Z</Time>
            <Position>
              <LatitudeDegrees>43.323428928852081298828125</LatitudeDegrees>
              <LongitudeDegrees>-1.9885882548987865447998046875</LongitudeDegrees>
            </Position>
            <AltitudeMeters>-1</AltitudeMeters>
            <DistanceMeters>NAN</DistanceMeters>
          </Trackpoint>
          <Trackpoint>
            <Time>2021-08-12T10:56:27.000Z</Time>
            <Position>
              <LatitudeDegrees>43.3234016038477420806884765625</LatitudeDegrees>
              <LongitudeDegrees>-1.9886367022991180419921875</LongitudeDegrees>
            </Position>
            <AltitudeMeters>-0.800000011920928955078125</AltitudeMeters>
            <DistanceMeters>NAN</DistanceMeters>
          </Trackpoint>
          <Trackpoint>
            <Time>2021-08-12T10:56:28.000Z</Time>
            <Position>
              <LatitudeDegrees>43.3233955688774585723876953125</LatitudeDegrees>
              <LongitudeDegrees>-1.988661177456378936767578125</LongitudeDegrees>
            </Position>
            <AltitudeMeters>-0.800000011920928955078125</AltitudeMeters>
            <DistanceMeters>NAN</DistanceMeters>
          </Trackpoint>
          <Trackpoint>
            <Time>2021-08-12T10:56:29.000Z</Time>
            <Position>
              <LatitudeDegrees>43.32338090054690837860107421875</LatitudeDegrees>
              <LongitudeDegrees>-1.98868137784302234649658203125</LongitudeDegrees>
            </Position>
            <AltitudeMeters>-0.800000011920928955078125</AltitudeMeters>
            <DistanceMeters>NAN</DistanceMeters>
          </Trackpoint>
          <Trackpoint>
            <Time>2021-08-12T10:56:30.000Z</Time>
            <Position>
              <LatitudeDegrees>43.323361873626708984375</LatitudeDegrees>
              <LongitudeDegrees>-1.98870149441063404083251953125</LongitudeDegrees>
            </Position>
            <AltitudeMeters>-0.800000011920928955078125</AltitudeMeters>
            <DistanceMeters>NAN</DistanceMeters>
          </Trackpoint>
          <Trackpoint>
            <Time>2021-08-12T10:56:31.000Z</Time>
            <Position>
              <LatitudeDegrees>43.32334510982036590576171875</LatitudeDegrees>
              <LongitudeDegrees>-1.98871473781764507293701171875</LongitudeDegrees>
            </Position>
            <AltitudeMeters>-0.800000011920928955078125</AltitudeMeters>
            <DistanceMeters>NAN</DistanceMeters>
          </Trackpoint>
          <Trackpoint>
            <Time>2021-08-12T10:56:32.000Z</Time>
            <Position>
              <LatitudeDegrees>43.3233345486223697662353515625</LatitudeDegrees>
              <LongitudeDegrees>-1.988716833293437957763671875</LongitudeDegrees>
            </Position>
            <AltitudeMeters>-1</AltitudeMeters>
            <DistanceMeters>NAN</DistanceMeters>
          </Trackpoint>
          <Trackpoint>
            <Time>2021-08-12T10:56:33.000Z</Time>
            <Position>
              <LatitudeDegrees>43.32332943566143512725830078125</LatitudeDegrees>
              <LongitudeDegrees>-1.9887183420360088348388671875</LongitudeDegrees>
            </Position>
            <AltitudeMeters>-1</AltitudeMeters>
            <DistanceMeters>NAN</DistanceMeters>
          </Trackpoint>
          <Trackpoint>
            <Time>2021-08-12T10:56:41.000Z</Time>
            <Position>
              <LatitudeDegrees>43.32332432270050048828125</LatitudeDegrees>
              <LongitudeDegrees>-1.9887052662670612335205078125</LongitudeDegrees>
            </Position>
            <AltitudeMeters>-0.800000011920928955078125</AltitudeMeters>
            <DistanceMeters>NAN</DistanceMeters>
          </Trackpoint>
          <Trackpoint>
            <Time>2021-08-12T10:56:52.000Z</Time>
            <Position>
              <LatitudeDegrees>43.323319964110851287841796875</LatitudeDegrees>
              <LongitudeDegrees>-1.98870576918125152587890625</LongitudeDegrees>
            </Position>
            <AltitudeMeters>-0.60000002384185791015625</AltitudeMeters>
            <DistanceMeters>NAN</DistanceMeters>
          </Trackpoint>
          <Trackpoint>
            <Time>2021-08-12T11:01:00.000Z</Time>
            <Position>
              <LatitudeDegrees>43.32330487668514251708984375</LatitudeDegrees>
              <LongitudeDegrees>-1.9887022487819194793701171875</LongitudeDegrees>
            </Position>
            <AltitudeMeters>-1</AltitudeMeters>
            <DistanceMeters>NAN</DistanceMeters>
          </Trackpoint>
          <Trackpoint>
            <Time>2021-08-12T11:01:17.000Z</Time>
            <Position>
              <LatitudeDegrees>43.32330596633255481719970703125</LatitudeDegrees>
              <LongitudeDegrees>-1.9887257181107997894287109375</LongitudeDegrees>
            </Position>
            <AltitudeMeters>-1</AltitudeMeters>
            <DistanceMeters>NAN</DistanceMeters>
          </Trackpoint>
          <Trackpoint>
            <Time>2021-08-12T11:01:19.000Z</Time>
            <Position>
              <LatitudeDegrees>43.32329926081001758575439453125</LatitudeDegrees>
              <LongitudeDegrees>-1.98877282440662384033203125</LongitudeDegrees>
            </Position>
            <AltitudeMeters>-1</AltitudeMeters>
            <DistanceMeters>NAN</DistanceMeters>
          </Trackpoint>
          <Trackpoint>
            <Time>2021-08-12T11:01:21.000Z</Time>
            <Position>
              <LatitudeDegrees>43.3232835866510868072509765625</LatitudeDegrees>
              <LongitudeDegrees>-1.9888309948146343231201171875</LongitudeDegrees>
            </Position>
            <AltitudeMeters>-1</AltitudeMeters>
            <DistanceMeters>NAN</DistanceMeters>
          </Trackpoint>
          <Trackpoint>
            <Time>2021-08-12T11:01:25.000Z</Time>
            <Position>
              <LatitudeDegrees>43.32325433380901813507080078125</LatitudeDegrees>
              <LongitudeDegrees>-1.9889449886977672576904296875</LongitudeDegrees>
            </Position>
            <AltitudeMeters>-1</AltitudeMeters>
            <DistanceMeters>NAN</DistanceMeters>
          </Trackpoint>
          <Trackpoint>
            <Time>2021-08-12T11:01:31.000Z</Time>
            <Position>
              <LatitudeDegrees>43.3231823332607746124267578125</LatitudeDegrees>
              <LongitudeDegrees>-1.9890878163278102874755859375</LongitudeDegrees>
            </Position>
            <AltitudeMeters>-1</AltitudeMeters>
            <DistanceMeters>NAN</DistanceMeters>
          </Trackpoint>
          <Trackpoint>
            <Time>2021-08-12T11:01:32.000Z</Time>
            <Position>
              <LatitudeDegrees>43.323175795376300811767578125</LatitudeDegrees>
              <LongitudeDegrees>-1.98911438696086406707763671875</LongitudeDegrees>
            </Position>
            <AltitudeMeters>-1</AltitudeMeters>
            <DistanceMeters>NAN</DistanceMeters>
          </Trackpoint>
          <Trackpoint>
            <Time>2021-08-12T11:01:37.000Z</Time>
            <Position>
              <LatitudeDegrees>43.3231387473642826080322265625</LatitudeDegrees>
              <LongitudeDegrees>-1.98925520293414592742919921875</LongitudeDegrees>
            </Position>
            <AltitudeMeters>-0.800000011920928955078125</AltitudeMeters>
            <DistanceMeters>NAN</DistanceMeters>
          </Trackpoint>
          <Trackpoint>
            <Time>2021-08-12T11:01:38.000Z</Time>
            <Position>
              <LatitudeDegrees>43.3231337182223796844482421875</LatitudeDegrees>
              <LongitudeDegrees>-1.98927967809140682220458984375</LongitudeDegrees>
            </Position>
            <AltitudeMeters>-0.800000011920928955078125</AltitudeMeters>
            <DistanceMeters>NAN</DistanceMeters>
          </Trackpoint>
          <Trackpoint>
            <Time>2021-08-12T11:01:39.000Z</Time>
            <Position>
              <LatitudeDegrees>43.32313053309917449951171875</LatitudeDegrees>
              <LongitudeDegrees>-1.98930029757320880889892578125</LongitudeDegrees>
            </Position>
            <AltitudeMeters>-0.800000011920928955078125</AltitudeMeters>
            <DistanceMeters>NAN</DistanceMeters>
          </Trackpoint>
          <Trackpoint>
            <Time>2021-08-12T11:01:40.000Z</Time>
            <Position>
              <LatitudeDegrees>43.323130197823047637939453125</LatitudeDegrees>
              <LongitudeDegrees>-1.9893144629895687103271484375</LongitudeDegrees>
            </Position>
            <AltitudeMeters>-0.800000011920928955078125</AltitudeMeters>
            <DistanceMeters>NAN</DistanceMeters>
          </Trackpoint>
          <Trackpoint>
            <Time>2021-08-12T11:01:41.000Z</Time>
            <Position>
              <LatitudeDegrees>43.32313313148915767669677734375</LatitudeDegrees>
              <LongitudeDegrees>-1.98932879604399204254150390625</LongitudeDegrees>
            </Position>
            <AltitudeMeters>-0.800000011920928955078125</AltitudeMeters>
            <DistanceMeters>NAN</DistanceMeters>
          </Trackpoint>
          <Trackpoint>
            <Time>2021-08-12T11:01:42.000Z</Time>
            <Position>
              <LatitudeDegrees>43.323132880032062530517578125</LatitudeDegrees>
              <LongitudeDegrees>-1.9893449731171131134033203125</LongitudeDegrees>
            </Position>
            <AltitudeMeters>-0.800000011920928955078125</AltitudeMeters>
            <DistanceMeters>NAN</DistanceMeters>
          </Trackpoint>
          <Trackpoint>
            <Time>2021-08-12T11:01:43.000Z</Time>
            <Position>
              <LatitudeDegrees>43.32313162274658679962158203125</LatitudeDegrees>
              <LongitudeDegrees>-1.98936115019023418426513671875</LongitudeDegrees>
            </Position>
            <AltitudeMeters>-0.800000011920928955078125</AltitudeMeters>
            <DistanceMeters>NAN</DistanceMeters>
          </Trackpoint>
          <Trackpoint>
            <Time>2021-08-12T11:01:44.000Z</Time>
            <Position>
              <LatitudeDegrees>43.32313053309917449951171875</LatitudeDegrees>
              <LongitudeDegrees>-1.98937556706368923187255859375</LongitudeDegrees>
            </Position>
            <AltitudeMeters>-0.800000011920928955078125</AltitudeMeters>
            <DistanceMeters>NAN</DistanceMeters>
          </Trackpoint>
          <Trackpoint>
            <Time>2021-08-12T11:01:45.000Z</Time>
            <Position>
              <LatitudeDegrees>43.32313011400401592254638671875</LatitudeDegrees>
              <LongitudeDegrees>-1.98938839137554168701171875</LongitudeDegrees>
            </Position>
            <AltitudeMeters>-0.800000011920928955078125</AltitudeMeters>
            <DistanceMeters>NAN</DistanceMeters>
          </Trackpoint>
          <Trackpoint>
            <Time>2021-08-12T11:01:46.000Z</Time>
            <Position>
              <LatitudeDegrees>43.323130868375301361083984375</LatitudeDegrees>
              <LongitudeDegrees>-1.98940339498221874237060546875</LongitudeDegrees>
            </Position>
            <AltitudeMeters>-0.800000011920928955078125</AltitudeMeters>
            <DistanceMeters>NAN</DistanceMeters>
          </Trackpoint>
          <Trackpoint>
            <Time>2021-08-12T11:01:47.000Z</Time>
            <Position>
              <LatitudeDegrees>43.32312860526144504547119140625</LatitudeDegrees>
              <LongitudeDegrees>-1.989417560398578643798828125</LongitudeDegrees>
            </Position>
            <AltitudeMeters>-0.800000011920928955078125</AltitudeMeters>
            <DistanceMeters>NAN</DistanceMeters>
          </Trackpoint>
          <Trackpoint>
            <Time>2021-08-12T11:01:48.000Z</Time>
            <Position>
              <LatitudeDegrees>43.32312743179500102996826171875</LatitudeDegrees>
              <LongitudeDegrees>-1.9894331507384777069091796875</LongitudeDegrees>
            </Position>
            <AltitudeMeters>-0.60000002384185791015625</AltitudeMeters>
            <DistanceMeters>NAN</DistanceMeters>
          </Trackpoint>
          <Trackpoint>
            <Time>2021-08-12T11:01:49.000Z</Time>
            <Position>
              <LatitudeDegrees>43.323122821748256683349609375</LatitudeDegrees>
              <LongitudeDegrees>-1.989448070526123046875</LongitudeDegrees>
            </Position>
            <AltitudeMeters>-0.60000002384185791015625</AltitudeMeters>
            <DistanceMeters>NAN</DistanceMeters>
          </Trackpoint>
          <Trackpoint>
            <Time>2021-08-12T11:01:50.000Z</Time>
            <Position>
              <LatitudeDegrees>43.3231196366250514984130859375</LatitudeDegrees>
              <LongitudeDegrees>-1.98946324177086353302001953125</LongitudeDegrees>
            </Position>
            <AltitudeMeters>-0.60000002384185791015625</AltitudeMeters>
            <DistanceMeters>NAN</DistanceMeters>
          </Trackpoint>
          <Trackpoint>
            <Time>2021-08-12T11:01:52.000Z</Time>
            <Position>
              <LatitudeDegrees>43.323112092912197113037109375</LatitudeDegrees>
              <LongitudeDegrees>-1.989496685564517974853515625</LongitudeDegrees>
            </Position>
            <AltitudeMeters>-0.60000002384185791015625</AltitudeMeters>
            <DistanceMeters>NAN</DistanceMeters>
          </Trackpoint>
          <Trackpoint>
            <Time>2021-08-12T11:01:54.000Z</Time>
            <Position>
              <LatitudeDegrees>43.32310982979834079742431640625</LatitudeDegrees>
              <LongitudeDegrees>-1.98953700251877307891845703125</LongitudeDegrees>
            </Position>
            <AltitudeMeters>-0.4000000059604644775390625</AltitudeMeters>
            <DistanceMeters>NAN</DistanceMeters>
          </Trackpoint>
          <Trackpoint>
            <Time>2021-08-12T11:01:55.000Z</Time>
            <Position>
              <LatitudeDegrees>43.32310865633189678192138671875</LatitudeDegrees>
              <LongitudeDegrees>-1.98955359868705272674560546875</LongitudeDegrees>
            </Position>
            <AltitudeMeters>-0.4000000059604644775390625</AltitudeMeters>
            <DistanceMeters>NAN</DistanceMeters>
          </Trackpoint>
          <Trackpoint>
            <Time>2021-08-12T11:01:57.000Z</Time>
            <Position>
              <LatitudeDegrees>43.3231085725128650665283203125</LatitudeDegrees>
              <LongitudeDegrees>-1.98957472108304500579833984375</LongitudeDegrees>
            </Position>
            <AltitudeMeters>-0.20000000298023223876953125</AltitudeMeters>
            <DistanceMeters>NAN</DistanceMeters>
          </Trackpoint>
          <Trackpoint>
            <Time>2021-08-12T11:01:58.000Z</Time>
            <Position>
              <LatitudeDegrees>43.32310480065643787384033203125</LatitudeDegrees>
              <LongitudeDegrees>-1.98958553373813629150390625</LongitudeDegrees>
            </Position>
            <AltitudeMeters>-0.20000000298023223876953125</AltitudeMeters>
            <DistanceMeters>NAN</DistanceMeters>
          </Trackpoint>
          <Trackpoint>
            <Time>2021-08-12T11:01:59.000Z</Time>
            <Position>
              <LatitudeDegrees>43.323098681867122650146484375</LatitudeDegrees>
              <LongitudeDegrees>-1.98959483765065670013427734375</LongitudeDegrees>
            </Position>
            <AltitudeMeters>-0.20000000298023223876953125</AltitudeMeters>
            <DistanceMeters>NAN</DistanceMeters>
          </Trackpoint>
          <Trackpoint>
            <Time>2021-08-12T11:02:00.000Z</Time>
            <Position>
              <LatitudeDegrees>43.32309792749583721160888671875</LatitudeDegrees>
              <LongitudeDegrees>-1.98960925452411174774169921875</LongitudeDegrees>
            </Position>
            <AltitudeMeters>-0.20000000298023223876953125</AltitudeMeters>
            <DistanceMeters>NAN</DistanceMeters>
          </Trackpoint>
          <Trackpoint>
            <Time>2021-08-12T11:02:03.000Z</Time>
            <Position>
              <LatitudeDegrees>43.3230777271091938018798828125</LatitudeDegrees>
              <LongitudeDegrees>-1.98966993950307369232177734375</LongitudeDegrees>
            </Position>
            <AltitudeMeters>0</AltitudeMeters>
            <DistanceMeters>NAN</DistanceMeters>
          </Trackpoint>
          <Trackpoint>
            <Time>2021-08-12T11:02:04.000Z</Time>
            <Position>
              <LatitudeDegrees>43.32307596690952777862548828125</LatitudeDegrees>
              <LongitudeDegrees>-1.9896906428039073944091796875</LongitudeDegrees>
            </Position>
            <AltitudeMeters>0</AltitudeMeters>
            <DistanceMeters>NAN</DistanceMeters>
          </Trackpoint>
          <Trackpoint>
            <Time>2021-08-12T11:02:05.000Z</Time>
            <Position>
              <LatitudeDegrees>43.32307554781436920166015625</LatitudeDegrees>
              <LongitudeDegrees>-1.9897007010877132415771484375</LongitudeDegrees>
            </Position>
            <AltitudeMeters>0</AltitudeMeters>
            <DistanceMeters>NAN</DistanceMeters>
          </Trackpoint>
          <Trackpoint>
            <Time>2021-08-12T11:02:06.000Z</Time>
            <Position>
              <LatitudeDegrees>43.3230747096240520477294921875</LatitudeDegrees>
              <LongitudeDegrees>-1.9897144474089145660400390625</LongitudeDegrees>
            </Position>
            <AltitudeMeters>0</AltitudeMeters>
            <DistanceMeters>NAN</DistanceMeters>
          </Trackpoint>
          <Trackpoint>
            <Time>2021-08-12T11:02:07.000Z</Time>
            <Position>
              <LatitudeDegrees>43.3230696804821491241455078125</LatitudeDegrees>
              <LongitudeDegrees>-1.989730037748813629150390625</LongitudeDegrees>
            </Position>
            <AltitudeMeters>0</AltitudeMeters>
            <DistanceMeters>NAN</DistanceMeters>
          </Trackpoint>
          <Trackpoint>
            <Time>2021-08-12T11:02:08.000Z</Time>
            <Position>
              <LatitudeDegrees>43.323061466217041015625</LatitudeDegrees>
              <LongitudeDegrees>-1.98974571190774440765380859375</LongitudeDegrees>
            </Position>
            <AltitudeMeters>0</AltitudeMeters>
            <DistanceMeters>NAN</DistanceMeters>
          </Trackpoint>
          <Trackpoint>
            <Time>2021-08-12T11:02:09.000Z</Time>
            <Position>
              <LatitudeDegrees>43.32305836491286754608154296875</LatitudeDegrees>
              <LongitudeDegrees>-1.98976096697151660919189453125</LongitudeDegrees>
            </Position>
            <AltitudeMeters>0</AltitudeMeters>
            <DistanceMeters>NAN</DistanceMeters>
          </Trackpoint>
          <Trackpoint>
            <Time>2021-08-12T11:02:10.000Z</Time>
            <Position>
              <LatitudeDegrees>43.3230586163699626922607421875</LatitudeDegrees>
              <LongitudeDegrees>-1.98977773077785968780517578125</LongitudeDegrees>
            </Position>
            <AltitudeMeters>0</AltitudeMeters>
            <DistanceMeters>NAN</DistanceMeters>
          </Trackpoint>
          <Trackpoint>
            <Time>2021-08-12T11:02:11.000Z</Time>
            <Position>
              <LatitudeDegrees>43.3230576105415821075439453125</LatitudeDegrees>
              <LongitudeDegrees>-1.9897905550897121429443359375</LongitudeDegrees>
            </Position>
            <AltitudeMeters>0</AltitudeMeters>
            <DistanceMeters>NAN</DistanceMeters>
          </Trackpoint>
          <Trackpoint>
            <Time>2021-08-12T11:02:12.000Z</Time>
            <Position>
              <LatitudeDegrees>43.3230566047132015228271484375</LatitudeDegrees>
              <LongitudeDegrees>-1.98980388231575489044189453125</LongitudeDegrees>
            </Position>
            <AltitudeMeters>0</AltitudeMeters>
            <DistanceMeters>NAN</DistanceMeters>
          </Trackpoint>
          <Trackpoint>
            <Time>2021-08-12T11:02:13.000Z</Time>
            <Position>
              <LatitudeDegrees>43.3230529166758060455322265625</LatitudeDegrees>
              <LongitudeDegrees>-1.98982031084597110748291015625</LongitudeDegrees>
            </Position>
            <AltitudeMeters>0</AltitudeMeters>
            <DistanceMeters>NAN</DistanceMeters>
          </Trackpoint>
          <Trackpoint>
            <Time>2021-08-12T11:02:14.000Z</Time>
            <Position>
              <LatitudeDegrees>43.3230535872280597686767578125</LatitudeDegrees>
              <LongitudeDegrees>-1.98983632028102874755859375</LongitudeDegrees>
            </Position>
            <AltitudeMeters>0</AltitudeMeters>
            <DistanceMeters>NAN</DistanceMeters>
          </Trackpoint>
          <Trackpoint>
            <Time>2021-08-12T11:02:15.000Z</Time>
            <Position>
              <LatitudeDegrees>43.32305417396128177642822265625</LatitudeDegrees>
              <LongitudeDegrees>-1.9898535870015621185302734375</LongitudeDegrees>
            </Position>
            <AltitudeMeters>0</AltitudeMeters>
            <DistanceMeters>NAN</DistanceMeters>
          </Trackpoint>
          <Trackpoint>
            <Time>2021-08-12T11:02:17.000Z</Time>
            <Position>
              <LatitudeDegrees>43.32305199466645717620849609375</LatitudeDegrees>
              <LongitudeDegrees>-1.98988149873912334442138671875</LongitudeDegrees>
            </Position>
            <AltitudeMeters>0</AltitudeMeters>
            <DistanceMeters>NAN</DistanceMeters>
          </Trackpoint>
          <Trackpoint>
            <Time>2021-08-12T11:02:18.000Z</Time>
            <Position>
              <LatitudeDegrees>43.32305274903774261474609375</LatitudeDegrees>
              <LongitudeDegrees>-1.9898944906890392303466796875</LongitudeDegrees>
            </Position>
            <AltitudeMeters>0</AltitudeMeters>
            <DistanceMeters>NAN</DistanceMeters>
          </Trackpoint>
          <Trackpoint>
            <Time>2021-08-12T11:02:19.000Z</Time>
            <Position>
              <LatitudeDegrees>43.3230529166758060455322265625</LatitudeDegrees>
              <LongitudeDegrees>-1.98990798555314540863037109375</LongitudeDegrees>
            </Position>
            <AltitudeMeters>0</AltitudeMeters>
            <DistanceMeters>NAN</DistanceMeters>
          </Trackpoint>
          <Trackpoint>
            <Time>2021-08-12T11:02:20.000Z</Time>
            <Position>
              <LatitudeDegrees>43.32305199466645717620849609375</LatitudeDegrees>
              <LongitudeDegrees>-1.9899189658463001251220703125</LongitudeDegrees>
            </Position>
            <AltitudeMeters>0</AltitudeMeters>
            <DistanceMeters>NAN</DistanceMeters>
          </Trackpoint>
          <Trackpoint>
            <Time>2021-08-12T11:02:21.000Z</Time>
            <Position>
              <LatitudeDegrees>43.32305274903774261474609375</LatitudeDegrees>
              <LongitudeDegrees>-1.98993246071040630340576171875</LongitudeDegrees>
            </Position>
            <AltitudeMeters>0</AltitudeMeters>
            <DistanceMeters>NAN</DistanceMeters>
          </Trackpoint>
          <Trackpoint>
            <Time>2021-08-12T11:02:23.000Z</Time>
            <Position>
              <LatitudeDegrees>43.32305199466645717620849609375</LatitudeDegrees>
              <LongitudeDegrees>-1.989960372447967529296875</LongitudeDegrees>
            </Position>
            <AltitudeMeters>0</AltitudeMeters>
            <DistanceMeters>NAN</DistanceMeters>
          </Trackpoint>
          <Trackpoint>
            <Time>2021-08-12T11:02:24.000Z</Time>
            <Position>
              <LatitudeDegrees>43.3230465464293956756591796875</LatitudeDegrees>
              <LongitudeDegrees>-1.98996934108436107635498046875</LongitudeDegrees>
            </Position>
            <AltitudeMeters>0</AltitudeMeters>
            <DistanceMeters>NAN</DistanceMeters>
          </Trackpoint>
          <Trackpoint>
            <Time>2021-08-12T11:02:25.000Z</Time>
            <Position>
              <LatitudeDegrees>43.323041684925556182861328125</LatitudeDegrees>
              <LongitudeDegrees>-1.98998241685330867767333984375</LongitudeDegrees>
            </Position>
            <AltitudeMeters>0</AltitudeMeters>
            <DistanceMeters>NAN</DistanceMeters>
          </Trackpoint>
          <Trackpoint>
            <Time>2021-08-12T11:02:26.000Z</Time>
            <Position>
              <LatitudeDegrees>43.32303891889750957489013671875</LatitudeDegrees>
              <LongitudeDegrees>-1.9899952411651611328125</LongitudeDegrees>
            </Position>
            <AltitudeMeters>0</AltitudeMeters>
            <DistanceMeters>NAN</DistanceMeters>
          </Trackpoint>
          <Trackpoint>
            <Time>2021-08-12T11:02:27.000Z</Time>
            <Position>
              <LatitudeDegrees>43.3230358175933361053466796875</LatitudeDegrees>
              <LongitudeDegrees>-1.99000806547701358795166015625</LongitudeDegrees>
            </Position>
            <AltitudeMeters>0</AltitudeMeters>
            <DistanceMeters>NAN</DistanceMeters>
          </Trackpoint>
          <Trackpoint>
            <Time>2021-08-12T11:02:28.000Z</Time>
            <Position>
              <LatitudeDegrees>43.32302953116595745086669921875</LatitudeDegrees>
              <LongitudeDegrees>-1.99001762084662914276123046875</LongitudeDegrees>
            </Position>
            <AltitudeMeters>0</AltitudeMeters>
            <DistanceMeters>NAN</DistanceMeters>
          </Trackpoint>
          <Trackpoint>
            <Time>2021-08-12T11:02:29.000Z</Time>
            <Position>
              <LatitudeDegrees>43.3230254240334033966064453125</LatitudeDegrees>
              <LongitudeDegrees>-1.99002809822559356689453125</LongitudeDegrees>
            </Position>
            <AltitudeMeters>0</AltitudeMeters>
            <DistanceMeters>NAN</DistanceMeters>
          </Trackpoint>
          <Trackpoint>
            <Time>2021-08-12T11:02:30.000Z</Time>
            <Position>
              <LatitudeDegrees>43.32302316091954708099365234375</LatitudeDegrees>
              <LongitudeDegrees>-1.9900400005280971527099609375</LongitudeDegrees>
            </Position>
            <AltitudeMeters>0</AltitudeMeters>
            <DistanceMeters>NAN</DistanceMeters>
          </Trackpoint>
          <Trackpoint>
            <Time>2021-08-12T11:02:32.000Z</Time>
            <Position>
              <LatitudeDegrees>43.32301477901637554168701171875</LatitudeDegrees>
              <LongitudeDegrees>-1.990068666636943817138671875</LongitudeDegrees>
            </Position>
            <AltitudeMeters>0.20000000298023223876953125</AltitudeMeters>
            <DistanceMeters>NAN</DistanceMeters>
          </Trackpoint>
          <Trackpoint>
            <Time>2021-08-12T11:02:34.000Z</Time>
            <Position>
              <LatitudeDegrees>43.323000781238079071044921875</LatitudeDegrees>
              <LongitudeDegrees>-1.99011350981891155242919921875</LongitudeDegrees>
            </Position>
            <AltitudeMeters>0.20000000298023223876953125</AltitudeMeters>
            <DistanceMeters>NAN</DistanceMeters>
          </Trackpoint>
          <Trackpoint>
            <Time>2021-08-12T11:02:35.000Z</Time>
            <Position>
              <LatitudeDegrees>43.322996087372303009033203125</LatitudeDegrees>
              <LongitudeDegrees>-1.9901311956346035003662109375</LongitudeDegrees>
            </Position>
            <AltitudeMeters>0.20000000298023223876953125</AltitudeMeters>
            <DistanceMeters>NAN</DistanceMeters>
          </Trackpoint>
          <Trackpoint>
            <Time>2021-08-12T11:02:36.000Z</Time>
            <Position>
              <LatitudeDegrees>43.32298661582171916961669921875</LatitudeDegrees>
              <LongitudeDegrees>-1.9901442714035511016845703125</LongitudeDegrees>
            </Position>
            <AltitudeMeters>0.20000000298023223876953125</AltitudeMeters>
            <DistanceMeters>NAN</DistanceMeters>
          </Trackpoint>
          <Trackpoint>
            <Time>2021-08-12T11:02:37.000Z</Time>
            <Position>
              <LatitudeDegrees>43.322975300252437591552734375</LatitudeDegrees>
              <LongitudeDegrees>-1.9901560060679912567138671875</LongitudeDegrees>
            </Position>
            <AltitudeMeters>0.20000000298023223876953125</AltitudeMeters>
            <DistanceMeters>NAN</DistanceMeters>
          </Trackpoint>
          <Trackpoint>
            <Time>2021-08-12T11:02:38.000Z</Time>
            <Position>
              <LatitudeDegrees>43.32296297885477542877197265625</LatitudeDegrees>
              <LongitudeDegrees>-1.99015206657350063323974609375</LongitudeDegrees>
            </Position>
            <AltitudeMeters>0.20000000298023223876953125</AltitudeMeters>
            <DistanceMeters>NAN</DistanceMeters>
          </Trackpoint>
          <Trackpoint>
            <Time>2021-08-12T11:02:39.000Z</Time>
            <Position>
              <LatitudeDegrees>43.322962559759616851806640625</LatitudeDegrees>
              <LongitudeDegrees>-1.99013010598719120025634765625</LongitudeDegrees>
            </Position>
            <AltitudeMeters>0</AltitudeMeters>
            <DistanceMeters>NAN</DistanceMeters>
          </Trackpoint>
          <Trackpoint>
            <Time>2021-08-12T11:02:41.000Z</Time>
            <Position>
              <LatitudeDegrees>43.322973959147930145263671875</LatitudeDegrees>
              <LongitudeDegrees>-1.99010127224028110504150390625</LongitudeDegrees>
            </Position>
            <AltitudeMeters>0</AltitudeMeters>
            <DistanceMeters>NAN</DistanceMeters>
          </Trackpoint>
          <Trackpoint>
            <Time>2021-08-12T11:02:43.000Z</Time>
            <Position>
              <LatitudeDegrees>43.32297856919467449188232421875</LatitudeDegrees>
              <LongitudeDegrees>-1.9900966621935367584228515625</LongitudeDegrees>
            </Position>
            <AltitudeMeters>0</AltitudeMeters>
            <DistanceMeters>NAN</DistanceMeters>
          </Trackpoint>
          <Trackpoint>
            <Time>2021-08-12T11:02:51.000Z</Time>
            <Position>
              <LatitudeDegrees>43.3229731209576129913330078125</LatitudeDegrees>
              <LongitudeDegrees>-1.99009087868034839630126953125</LongitudeDegrees>
            </Position>
            <AltitudeMeters>0</AltitudeMeters>
            <DistanceMeters>NAN</DistanceMeters>
          </Trackpoint>
          <Trackpoint>
            <Time>2021-08-12T11:03:14.000Z</Time>
            <Position>
              <LatitudeDegrees>43.32298661582171916961669921875</LatitudeDegrees>
              <LongitudeDegrees>-1.990102194249629974365234375</LongitudeDegrees>
            </Position>
            <AltitudeMeters>-0.20000000298023223876953125</AltitudeMeters>
            <DistanceMeters>NAN</DistanceMeters>
          </Trackpoint>
          <Trackpoint>
            <Time>2021-08-12T11:05:15.000Z</Time>
            <Position>
              <LatitudeDegrees>43.3229801617562770843505859375</LatitudeDegrees>
              <LongitudeDegrees>-1.99013144709169864654541015625</LongitudeDegrees>
            </Position>
            <AltitudeMeters>0.20000000298023223876953125</AltitudeMeters>
            <DistanceMeters>NAN</DistanceMeters>
          </Trackpoint>
          <Trackpoint>
            <Time>2021-08-12T11:05:16.000Z</Time>
            <Position>
              <LatitudeDegrees>43.3229801617562770843505859375</LatitudeDegrees>
              <LongitudeDegrees>-1.99013144709169864654541015625</LongitudeDegrees>
            </Position>
            <AltitudeMeters>0.20000000298023223876953125</AltitudeMeters>
            <DistanceMeters>NAN</DistanceMeters>
          </Trackpoint>
          <Trackpoint>
            <Time>2021-08-12T11:05:30.000Z</Time>
            <Position>
              <LatitudeDegrees>43.32297991029918193817138671875</LatitudeDegrees>
              <LongitudeDegrees>-1.99015961028635501861572265625</LongitudeDegrees>
            </Position>
            <AltitudeMeters>-0.20000000298023223876953125</AltitudeMeters>
            <DistanceMeters>NAN</DistanceMeters>
          </Trackpoint>
          <Trackpoint>
            <Time>2021-08-12T11:05:32.000Z</Time>
            <Position>
              <LatitudeDegrees>43.322977311909198760986328125</LatitudeDegrees>
              <LongitudeDegrees>-1.9902032800018787384033203125</LongitudeDegrees>
            </Position>
            <AltitudeMeters>-0.20000000298023223876953125</AltitudeMeters>
            <DistanceMeters>NAN</DistanceMeters>
          </Trackpoint>
          <Trackpoint>
            <Time>2021-08-12T11:05:33.000Z</Time>
            <Position>
              <LatitudeDegrees>43.322972618043422698974609375</LatitudeDegrees>
              <LongitudeDegrees>-1.99021895416080951690673828125</LongitudeDegrees>
            </Position>
            <AltitudeMeters>-0.20000000298023223876953125</AltitudeMeters>
            <DistanceMeters>NAN</DistanceMeters>
          </Trackpoint>
          <Trackpoint>
            <Time>2021-08-12T11:05:37.000Z</Time>
            <Position>
              <LatitudeDegrees>43.322964571416378021240234375</LatitudeDegrees>
              <LongitudeDegrees>-1.990233622491359710693359375</LongitudeDegrees>
            </Position>
            <AltitudeMeters>-0.20000000298023223876953125</AltitudeMeters>
            <DistanceMeters>NAN</DistanceMeters>
          </Trackpoint>
          <Trackpoint>
            <Time>2021-08-12T11:05:46.000Z</Time>
            <Position>
              <LatitudeDegrees>43.3229674212634563446044921875</LatitudeDegrees>
              <LongitudeDegrees>-1.99024192057549953460693359375</LongitudeDegrees>
            </Position>
            <AltitudeMeters>0</AltitudeMeters>
            <DistanceMeters>NAN</DistanceMeters>
          </Trackpoint>
          <Trackpoint>
            <Time>2021-08-12T11:05:54.000Z</Time>
            <Position>
              <LatitudeDegrees>43.3229674212634563446044921875</LatitudeDegrees>
              <LongitudeDegrees>-1.99024192057549953460693359375</LongitudeDegrees>
            </Position>
            <AltitudeMeters>0</AltitudeMeters>
            <DistanceMeters>NAN</DistanceMeters>
          </Trackpoint>
          <Trackpoint>
            <Time>2021-08-12T11:07:33.000Z</Time>
            <Position>
              <LatitudeDegrees>43.32295342348515987396240234375</LatitudeDegrees>
              <LongitudeDegrees>-1.99024275876581668853759765625</LongitudeDegrees>
            </Position>
            <AltitudeMeters>-1</AltitudeMeters>
            <DistanceMeters>NAN</DistanceMeters>
          </Trackpoint>
          <Trackpoint>
            <Time>2021-08-12T11:07:38.000Z</Time>
            <Position>
              <LatitudeDegrees>43.32295677624642848968505859375</LatitudeDegrees>
              <LongitudeDegrees>-1.99024460278451442718505859375</LongitudeDegrees>
            </Position>
            <AltitudeMeters>-1</AltitudeMeters>
            <DistanceMeters>NAN</DistanceMeters>
          </Trackpoint>
          <Trackpoint>
            <Time>2021-08-12T11:07:48.000Z</Time>
            <Position>
              <LatitudeDegrees>43.32296800799667835235595703125</LatitudeDegrees>
              <LongitudeDegrees>-1.99026145040988922119140625</LongitudeDegrees>
            </Position>
            <AltitudeMeters>-1.2000000476837158203125</AltitudeMeters>
            <DistanceMeters>NAN</DistanceMeters>
          </Trackpoint>
          <Trackpoint>
            <Time>2021-08-12T11:07:50.000Z</Time>
            <Position>
              <LatitudeDegrees>43.32296465523540973663330078125</LatitudeDegrees>
              <LongitudeDegrees>-1.99028885923326015472412109375</LongitudeDegrees>
            </Position>
            <AltitudeMeters>-1</AltitudeMeters>
            <DistanceMeters>NAN</DistanceMeters>
          </Trackpoint>
          <Trackpoint>
            <Time>2021-08-12T11:07:51.000Z</Time>
            <Position>
              <LatitudeDegrees>43.32296423614025115966796875</LatitudeDegrees>
              <LongitudeDegrees>-1.9902956485748291015625</LongitudeDegrees>
            </Position>
            <AltitudeMeters>-1</AltitudeMeters>
            <DistanceMeters>NAN</DistanceMeters>
          </Trackpoint>
          <Trackpoint>
            <Time>2021-08-12T11:07:52.000Z</Time>
            <Position>
              <LatitudeDegrees>43.3229555189609527587890625</LatitudeDegrees>
              <LongitudeDegrees>-1.99029766023159027099609375</LongitudeDegrees>
            </Position>
            <AltitudeMeters>-1</AltitudeMeters>
            <DistanceMeters>NAN</DistanceMeters>
          </Trackpoint>
          <Trackpoint>
            <Time>2021-08-12T11:07:53.000Z</Time>
            <Position>
              <LatitudeDegrees>43.32294990308582782745361328125</LatitudeDegrees>
              <LongitudeDegrees>-1.99029355309903621673583984375</LongitudeDegrees>
            </Position>
            <AltitudeMeters>-1</AltitudeMeters>
            <DistanceMeters>NAN</DistanceMeters>
          </Trackpoint>
          <Trackpoint>
            <Time>2021-08-12T11:07:54.000Z</Time>
            <Position>
              <LatitudeDegrees>43.322949819266796112060546875</LatitudeDegrees>
              <LongitudeDegrees>-1.99028148315846920013427734375</LongitudeDegrees>
            </Position>
            <AltitudeMeters>-1</AltitudeMeters>
            <DistanceMeters>NAN</DistanceMeters>
          </Trackpoint>
          <Trackpoint>
            <Time>2021-08-12T11:08:00.000Z</Time>
            <Position>
              <LatitudeDegrees>43.3229593746364116668701171875</LatitudeDegrees>
              <LongitudeDegrees>-1.99024535715579986572265625</LongitudeDegrees>
            </Position>
            <AltitudeMeters>-1.2000000476837158203125</AltitudeMeters>
            <DistanceMeters>NAN</DistanceMeters>
          </Trackpoint>
          <Trackpoint>
            <Time>2021-08-12T11:08:23.000Z</Time>
            <Position>
              <LatitudeDegrees>43.3229747973382472991943359375</LatitudeDegrees>
              <LongitudeDegrees>-1.99017989449203014373779296875</LongitudeDegrees>
            </Position>
            <AltitudeMeters>-1</AltitudeMeters>
            <DistanceMeters>NAN</DistanceMeters>
          </Trackpoint>
          <Trackpoint>
            <Time>2021-08-12T11:08:25.000Z</Time>
            <Position>
              <LatitudeDegrees>43.32298141904175281524658203125</LatitudeDegrees>
              <LongitudeDegrees>-1.990142762660980224609375</LongitudeDegrees>
            </Position>
            <AltitudeMeters>-1</AltitudeMeters>
            <DistanceMeters>NAN</DistanceMeters>
          </Trackpoint>
          <Trackpoint>
            <Time>2021-08-12T11:08:30.000Z</Time>
            <Position>
              <LatitudeDegrees>43.32299516536295413970947265625</LatitudeDegrees>
              <LongitudeDegrees>-1.99005718342959880828857421875</LongitudeDegrees>
            </Position>
            <AltitudeMeters>-1</AltitudeMeters>
            <DistanceMeters>NAN</DistanceMeters>
          </Trackpoint>
          <Trackpoint>
            <Time>2021-08-12T11:08:31.000Z</Time>
            <Position>
              <LatitudeDegrees>43.32299499772489070892333984375</LatitudeDegrees>
              <LongitudeDegrees>-1.9900446943938732147216796875</LongitudeDegrees>
            </Position>
            <AltitudeMeters>-1</AltitudeMeters>
            <DistanceMeters>NAN</DistanceMeters>
          </Trackpoint>
          <Trackpoint>
            <Time>2021-08-12T11:08:34.000Z</Time>
            <Position>
              <LatitudeDegrees>43.3230053074657917022705078125</LatitudeDegrees>
              <LongitudeDegrees>-1.990001611411571502685546875</LongitudeDegrees>
            </Position>
            <AltitudeMeters>-1.2000000476837158203125</AltitudeMeters>
            <DistanceMeters>NAN</DistanceMeters>
          </Trackpoint>
          <Trackpoint>
            <Time>2021-08-12T11:08:35.000Z</Time>
            <Position>
              <LatitudeDegrees>43.32300991751253604888916015625</LatitudeDegrees>
              <LongitudeDegrees>-1.9899890385568141937255859375</LongitudeDegrees>
            </Position>
            <AltitudeMeters>-1.2000000476837158203125</AltitudeMeters>
            <DistanceMeters>NAN</DistanceMeters>
          </Trackpoint>
          <Trackpoint>
            <Time>2021-08-12T11:08:36.000Z</Time>
            <Position>
              <LatitudeDegrees>43.323014192283153533935546875</LatitudeDegrees>
              <LongitudeDegrees>-1.98997671715915203094482421875</LongitudeDegrees>
            </Position>
            <AltitudeMeters>-1.2000000476837158203125</AltitudeMeters>
            <DistanceMeters>NAN</DistanceMeters>
          </Trackpoint>
          <Trackpoint>
            <Time>2021-08-12T11:08:37.000Z</Time>
            <Position>
              <LatitudeDegrees>43.323015868663787841796875</LatitudeDegrees>
              <LongitudeDegrees>-1.98996498249471187591552734375</LongitudeDegrees>
            </Position>
            <AltitudeMeters>-1.39999997615814208984375</AltitudeMeters>
            <DistanceMeters>NAN</DistanceMeters>
          </Trackpoint>
          <Trackpoint>
            <Time>2021-08-12T11:08:38.000Z</Time>
            <Position>
              <LatitudeDegrees>43.3230145275592803955078125</LatitudeDegrees>
              <LongitudeDegrees>-1.98995257727801799774169921875</LongitudeDegrees>
            </Position>
            <AltitudeMeters>-1.39999997615814208984375</AltitudeMeters>
            <DistanceMeters>NAN</DistanceMeters>
          </Trackpoint>
          <Trackpoint>
            <Time>2021-08-12T11:08:39.000Z</Time>
            <Position>
              <LatitudeDegrees>43.32301092334091663360595703125</LatitudeDegrees>
              <LongitudeDegrees>-1.9899384118616580963134765625</LongitudeDegrees>
            </Position>
            <AltitudeMeters>-1.39999997615814208984375</AltitudeMeters>
            <DistanceMeters>NAN</DistanceMeters>
          </Trackpoint>
          <Trackpoint>
            <Time>2021-08-12T11:08:40.000Z</Time>
            <Position>
              <LatitudeDegrees>43.32301092334091663360595703125</LatitudeDegrees>
              <LongitudeDegrees>-1.9899250008165836334228515625</LongitudeDegrees>
            </Position>
            <AltitudeMeters>-1.39999997615814208984375</AltitudeMeters>
            <DistanceMeters>NAN</DistanceMeters>
          </Trackpoint>
          <Trackpoint>
            <Time>2021-08-12T11:08:41.000Z</Time>
            <Position>
              <LatitudeDegrees>43.3230126835405826568603515625</LatitudeDegrees>
              <LongitudeDegrees>-1.98991200886666774749755859375</LongitudeDegrees>
            </Position>
            <AltitudeMeters>-1.39999997615814208984375</AltitudeMeters>
            <DistanceMeters>NAN</DistanceMeters>
          </Trackpoint>
          <Trackpoint>
            <Time>2021-08-12T11:08:42.000Z</Time>
            <Position>
              <LatitudeDegrees>43.32301612012088298797607421875</LatitudeDegrees>
              <LongitudeDegrees>-1.9899000227451324462890625</LongitudeDegrees>
            </Position>
            <AltitudeMeters>-1.39999997615814208984375</AltitudeMeters>
            <DistanceMeters>NAN</DistanceMeters>
          </Trackpoint>
          <Trackpoint>
            <Time>2021-08-12T11:08:43.000Z</Time>
            <Position>
              <LatitudeDegrees>43.32302047871053218841552734375</LatitudeDegrees>
              <LongitudeDegrees>-1.98988971300423145294189453125</LongitudeDegrees>
            </Position>
            <AltitudeMeters>-1.39999997615814208984375</AltitudeMeters>
            <DistanceMeters>NAN</DistanceMeters>
          </Trackpoint>
          <Trackpoint>
            <Time>2021-08-12T11:08:44.000Z</Time>
            <Position>
              <LatitudeDegrees>43.32302735187113285064697265625</LatitudeDegrees>
              <LongitudeDegrees>-1.9898770563304424285888671875</LongitudeDegrees>
            </Position>
            <AltitudeMeters>-1.39999997615814208984375</AltitudeMeters>
            <DistanceMeters>NAN</DistanceMeters>
          </Trackpoint>
          <Trackpoint>
            <Time>2021-08-12T11:08:45.000Z</Time>
            <Position>
              <LatitudeDegrees>43.32303120754659175872802734375</LatitudeDegrees>
              <LongitudeDegrees>-1.9898673333227634429931640625</LongitudeDegrees>
            </Position>
            <AltitudeMeters>-1.39999997615814208984375</AltitudeMeters>
            <DistanceMeters>NAN</DistanceMeters>
          </Trackpoint>
          <Trackpoint>
            <Time>2021-08-12T11:08:46.000Z</Time>
            <Position>
              <LatitudeDegrees>43.32303472794592380523681640625</LatitudeDegrees>
              <LongitudeDegrees>-1.989854089915752410888671875</LongitudeDegrees>
            </Position>
            <AltitudeMeters>-1.60000002384185791015625</AltitudeMeters>
            <DistanceMeters>NAN</DistanceMeters>
          </Trackpoint>
          <Trackpoint>
            <Time>2021-08-12T11:08:47.000Z</Time>
            <Position>
              <LatitudeDegrees>43.32304160110652446746826171875</LatitudeDegrees>
              <LongitudeDegrees>-1.9898425228893756866455078125</LongitudeDegrees>
            </Position>
            <AltitudeMeters>-1.60000002384185791015625</AltitudeMeters>
            <DistanceMeters>NAN</DistanceMeters>
          </Trackpoint>
          <Trackpoint>
            <Time>2021-08-12T11:08:51.000Z</Time>
            <Position>
              <LatitudeDegrees>43.32305434159934520721435546875</LatitudeDegrees>
              <LongitudeDegrees>-1.989732049405574798583984375</LongitudeDegrees>
            </Position>
            <AltitudeMeters>-1.60000002384185791015625</AltitudeMeters>
            <DistanceMeters>NAN</DistanceMeters>
          </Trackpoint>
          <Trackpoint>
            <Time>2021-08-12T11:08:52.000Z</Time>
            <Position>
              <LatitudeDegrees>43.32306213676929473876953125</LatitudeDegrees>
              <LongitudeDegrees>-1.9896983541548252105712890625</LongitudeDegrees>
            </Position>
            <AltitudeMeters>-1.60000002384185791015625</AltitudeMeters>
            <DistanceMeters>NAN</DistanceMeters>
          </Trackpoint>
          <Trackpoint>
            <Time>2021-08-12T11:08:53.000Z</Time>
            <Position>
              <LatitudeDegrees>43.32307060249149799346923828125</LatitudeDegrees>
              <LongitudeDegrees>-1.9896644912660121917724609375</LongitudeDegrees>
            </Position>
            <AltitudeMeters>-1.39999997615814208984375</AltitudeMeters>
            <DistanceMeters>NAN</DistanceMeters>
          </Trackpoint>
          <Trackpoint>
            <Time>2021-08-12T11:08:58.000Z</Time>
            <Position>
              <LatitudeDegrees>43.32310907542705535888671875</LatitudeDegrees>
              <LongitudeDegrees>-1.98953314684331417083740234375</LongitudeDegrees>
            </Position>
            <AltitudeMeters>-1.39999997615814208984375</AltitudeMeters>
            <DistanceMeters>NAN</DistanceMeters>
          </Trackpoint>
          <Trackpoint>
            <Time>2021-08-12T11:09:00.000Z</Time>
            <Position>
              <LatitudeDegrees>43.3231213130056858062744140625</LatitudeDegrees>
              <LongitudeDegrees>-1.98948671109974384307861328125</LongitudeDegrees>
            </Position>
            <AltitudeMeters>-1.2000000476837158203125</AltitudeMeters>
            <DistanceMeters>NAN</DistanceMeters>
          </Trackpoint>
          <Trackpoint>
            <Time>2021-08-12T11:09:01.000Z</Time>
            <Position>
              <LatitudeDegrees>43.32312424667179584503173828125</LatitudeDegrees>
              <LongitudeDegrees>-1.98947153985500335693359375</LongitudeDegrees>
            </Position>
            <AltitudeMeters>-1.2000000476837158203125</AltitudeMeters>
            <DistanceMeters>NAN</DistanceMeters>
          </Trackpoint>
          <Trackpoint>
            <Time>2021-08-12T11:09:02.000Z</Time>
            <Position>
              <LatitudeDegrees>43.3231293596327304840087890625</LatitudeDegrees>
              <LongitudeDegrees>-1.9894559495151042938232421875</LongitudeDegrees>
            </Position>
            <AltitudeMeters>-1.2000000476837158203125</AltitudeMeters>
            <DistanceMeters>NAN</DistanceMeters>
          </Trackpoint>
          <Trackpoint>
            <Time>2021-08-12T11:09:03.000Z</Time>
            <Position>
              <LatitudeDegrees>43.32313531078398227691650390625</LatitudeDegrees>
              <LongitudeDegrees>-1.98944228701293468475341796875</LongitudeDegrees>
            </Position>
            <AltitudeMeters>-1.2000000476837158203125</AltitudeMeters>
            <DistanceMeters>NAN</DistanceMeters>
          </Trackpoint>
          <Trackpoint>
            <Time>2021-08-12T11:09:04.000Z</Time>
            <Position>
              <LatitudeDegrees>43.32313832826912403106689453125</LatitudeDegrees>
              <LongitudeDegrees>-1.989429630339145660400390625</LongitudeDegrees>
            </Position>
            <AltitudeMeters>-1.39999997615814208984375</AltitudeMeters>
            <DistanceMeters>NAN</DistanceMeters>
          </Trackpoint>
          <Trackpoint>
            <Time>2021-08-12T11:09:05.000Z</Time>
            <Position>
              <LatitudeDegrees>43.32314352504909038543701171875</LatitudeDegrees>
              <LongitudeDegrees>-1.989416889846324920654296875</LongitudeDegrees>
            </Position>
            <AltitudeMeters>-1.60000002384185791015625</AltitudeMeters>
            <DistanceMeters>NAN</DistanceMeters>
          </Trackpoint>
          <Trackpoint>
            <Time>2021-08-12T11:09:06.000Z</Time>
            <Position>
              <LatitudeDegrees>43.32314972765743732452392578125</LatitudeDegrees>
              <LongitudeDegrees>-1.98939350433647632598876953125</LongitudeDegrees>
            </Position>
            <AltitudeMeters>-1.60000002384185791015625</AltitudeMeters>
            <DistanceMeters>NAN</DistanceMeters>
          </Trackpoint>
          <Trackpoint>
            <Time>2021-08-12T11:09:07.000Z</Time>
            <Position>
              <LatitudeDegrees>43.32315064966678619384765625</LatitudeDegrees>
              <LongitudeDegrees>-1.98936617933213710784912109375</LongitudeDegrees>
            </Position>
            <AltitudeMeters>-1.60000002384185791015625</AltitudeMeters>
            <DistanceMeters>NAN</DistanceMeters>
          </Trackpoint>
          <Trackpoint>
            <Time>2021-08-12T11:09:10.000Z</Time>
            <Position>
              <LatitudeDegrees>43.3231679163873195648193359375</LatitudeDegrees>
              <LongitudeDegrees>-1.98928118683397769927978515625</LongitudeDegrees>
            </Position>
            <AltitudeMeters>-1.60000002384185791015625</AltitudeMeters>
            <DistanceMeters>NAN</DistanceMeters>
          </Trackpoint>
          <Trackpoint>
            <Time>2021-08-12T11:09:11.000Z</Time>
            <Position>
              <LatitudeDegrees>43.3231794834136962890625</LatitudeDegrees>
              <LongitudeDegrees>-1.98924514465034008026123046875</LongitudeDegrees>
            </Position>
            <AltitudeMeters>-1.60000002384185791015625</AltitudeMeters>
            <DistanceMeters>NAN</DistanceMeters>
          </Trackpoint>
          <Trackpoint>
            <Time>2021-08-12T11:09:12.000Z</Time>
            <Position>
              <LatitudeDegrees>43.32318912260234355926513671875</LatitudeDegrees>
              <LongitudeDegrees>-1.9892111979424953460693359375</LongitudeDegrees>
            </Position>
            <AltitudeMeters>-1.60000002384185791015625</AltitudeMeters>
            <DistanceMeters>NAN</DistanceMeters>
          </Trackpoint>
          <Trackpoint>
            <Time>2021-08-12T11:09:13.000Z</Time>
            <Position>
              <LatitudeDegrees>43.32319892942905426025390625</LatitudeDegrees>
              <LongitudeDegrees>-1.9891800172626972198486328125</LongitudeDegrees>
            </Position>
            <AltitudeMeters>-1.7999999523162841796875</AltitudeMeters>
            <DistanceMeters>NAN</DistanceMeters>
          </Trackpoint>
          <Trackpoint>
            <Time>2021-08-12T11:09:14.000Z</Time>
            <Position>
              <LatitudeDegrees>43.32321661524474620819091796875</LatitudeDegrees>
              <LongitudeDegrees>-1.98915503919124603271484375</LongitudeDegrees>
            </Position>
            <AltitudeMeters>-1.7999999523162841796875</AltitudeMeters>
            <DistanceMeters>NAN</DistanceMeters>
          </Trackpoint>
          <Trackpoint>
            <Time>2021-08-12T11:09:15.000Z</Time>
            <Position>
              <LatitudeDegrees>43.32322885282337665557861328125</LatitudeDegrees>
              <LongitudeDegrees>-1.9891384430229663848876953125</LongitudeDegrees>
            </Position>
            <AltitudeMeters>-1.7999999523162841796875</AltitudeMeters>
            <DistanceMeters>NAN</DistanceMeters>
          </Trackpoint>
          <Trackpoint>
            <Time>2021-08-12T11:09:16.000Z</Time>
            <Position>
              <LatitudeDegrees>43.323246538639068603515625</LatitudeDegrees>
              <LongitudeDegrees>-1.98911421932280063629150390625</LongitudeDegrees>
            </Position>
            <AltitudeMeters>-1.7999999523162841796875</AltitudeMeters>
            <DistanceMeters>NAN</DistanceMeters>
          </Trackpoint>
          <Trackpoint>
            <Time>2021-08-12T11:09:19.000Z</Time>
            <Position>
              <LatitudeDegrees>43.323268331587314605712890625</LatitudeDegrees>
              <LongitudeDegrees>-1.9890283048152923583984375</LongitudeDegrees>
            </Position>
            <AltitudeMeters>-1.7999999523162841796875</AltitudeMeters>
            <DistanceMeters>NAN</DistanceMeters>
          </Trackpoint>
          <Trackpoint>
            <Time>2021-08-12T11:09:20.000Z</Time>
            <Position>
              <LatitudeDegrees>43.32327344454824924468994140625</LatitudeDegrees>
              <LongitudeDegrees>-1.98900508694350719451904296875</LongitudeDegrees>
            </Position>
            <AltitudeMeters>-2</AltitudeMeters>
            <DistanceMeters>NAN</DistanceMeters>
          </Trackpoint>
          <Trackpoint>
            <Time>2021-08-12T11:09:21.000Z</Time>
            <Position>
              <LatitudeDegrees>43.3232819102704524993896484375</LatitudeDegrees>
              <LongitudeDegrees>-1.98897725902497768402099609375</LongitudeDegrees>
            </Position>
            <AltitudeMeters>-2</AltitudeMeters>
            <DistanceMeters>NAN</DistanceMeters>
          </Trackpoint>
          <Trackpoint>
            <Time>2021-08-12T11:09:22.000Z</Time>
            <Position>
              <LatitudeDegrees>43.32329121418297290802001953125</LatitudeDegrees>
              <LongitudeDegrees>-1.98894725181162357330322265625</LongitudeDegrees>
            </Position>
            <AltitudeMeters>-2</AltitudeMeters>
            <DistanceMeters>NAN</DistanceMeters>
          </Trackpoint>
          <Trackpoint>
            <Time>2021-08-12T11:09:23.000Z</Time>
            <Position>
              <LatitudeDegrees>43.32329557277262210845947265625</LatitudeDegrees>
              <LongitudeDegrees>-1.98892512358725070953369140625</LongitudeDegrees>
            </Position>
            <AltitudeMeters>-2</AltitudeMeters>
            <DistanceMeters>NAN</DistanceMeters>
          </Trackpoint>
          <Trackpoint>
            <Time>2021-08-12T11:09:24.000Z</Time>
            <Position>
              <LatitudeDegrees>43.3233006857335567474365234375</LatitudeDegrees>
              <LongitudeDegrees>-1.9889067672193050384521484375</LongitudeDegrees>
            </Position>
            <AltitudeMeters>-2</AltitudeMeters>
            <DistanceMeters>NAN</DistanceMeters>
          </Trackpoint>
          <Trackpoint>
            <Time>2021-08-12T11:09:25.000Z</Time>
            <Position>
              <LatitudeDegrees>43.3233083970844745635986328125</LatitudeDegrees>
              <LongitudeDegrees>-1.98889461345970630645751953125</LongitudeDegrees>
            </Position>
            <AltitudeMeters>-2</AltitudeMeters>
            <DistanceMeters>NAN</DistanceMeters>
          </Trackpoint>
          <Trackpoint>
            <Time>2021-08-12T11:09:26.000Z</Time>
            <Position>
              <LatitudeDegrees>43.323316276073455810546875</LatitudeDegrees>
              <LongitudeDegrees>-1.988869719207286834716796875</LongitudeDegrees>
            </Position>
            <AltitudeMeters>-2</AltitudeMeters>
            <DistanceMeters>NAN</DistanceMeters>
          </Trackpoint>
          <Trackpoint>
            <Time>2021-08-12T11:09:27.000Z</Time>
            <Position>
              <LatitudeDegrees>43.32332625053822994232177734375</LatitudeDegrees>
              <LongitudeDegrees>-1.98885253630578517913818359375</LongitudeDegrees>
            </Position>
            <AltitudeMeters>-1.7999999523162841796875</AltitudeMeters>
            <DistanceMeters>NAN</DistanceMeters>
          </Trackpoint>
          <Trackpoint>
            <Time>2021-08-12T11:09:28.000Z</Time>
            <Position>
              <LatitudeDegrees>43.32334510982036590576171875</LatitudeDegrees>
              <LongitudeDegrees>-1.98882169090211391448974609375</LongitudeDegrees>
            </Position>
            <AltitudeMeters>-1.7999999523162841796875</AltitudeMeters>
            <DistanceMeters>NAN</DistanceMeters>
          </Trackpoint>
          <Trackpoint>
            <Time>2021-08-12T11:09:30.000Z</Time>
            <Position>
              <LatitudeDegrees>43.32337318919599056243896484375</LatitudeDegrees>
              <LongitudeDegrees>-1.9887515343725681304931640625</LongitudeDegrees>
            </Position>
            <AltitudeMeters>-1.60000002384185791015625</AltitudeMeters>
            <DistanceMeters>NAN</DistanceMeters>
          </Trackpoint>
          <Trackpoint>
            <Time>2021-08-12T11:09:35.000Z</Time>
            <Position>
              <LatitudeDegrees>43.3234763704240322113037109375</LatitudeDegrees>
              <LongitudeDegrees>-1.9885020889341831207275390625</LongitudeDegrees>
            </Position>
            <AltitudeMeters>-1.7999999523162841796875</AltitudeMeters>
            <DistanceMeters>NAN</DistanceMeters>
          </Trackpoint>
          <Trackpoint>
            <Time>2021-08-12T11:09:36.000Z</Time>
            <Position>
              <LatitudeDegrees>43.32349254749715328216552734375</LatitudeDegrees>
              <LongitudeDegrees>-1.98846462182700634002685546875</LongitudeDegrees>
            </Position>
            <AltitudeMeters>-1.7999999523162841796875</AltitudeMeters>
            <DistanceMeters>NAN</DistanceMeters>
          </Trackpoint>
          <Trackpoint>
            <Time>2021-08-12T11:09:40.000Z</Time>
            <Position>
              <LatitudeDegrees>43.3235575072467327117919921875</LatitudeDegrees>
              <LongitudeDegrees>-1.98827116750180721282958984375</LongitudeDegrees>
            </Position>
            <AltitudeMeters>-2</AltitudeMeters>
            <DistanceMeters>NAN</DistanceMeters>
          </Trackpoint>
          <Trackpoint>
            <Time>2021-08-12T11:09:42.000Z</Time>
            <Position>
              <LatitudeDegrees>43.32357452251017093658447265625</LatitudeDegrees>
              <LongitudeDegrees>-1.9881916232407093048095703125</LongitudeDegrees>
            </Position>
            <AltitudeMeters>-2</AltitudeMeters>
            <DistanceMeters>NAN</DistanceMeters>
          </Trackpoint>
          <Trackpoint>
            <Time>2021-08-12T11:09:43.000Z</Time>
            <Position>
              <LatitudeDegrees>43.32358273677527904510498046875</LatitudeDegrees>
              <LongitudeDegrees>-1.98814518749713897705078125</LongitudeDegrees>
            </Position>
            <AltitudeMeters>-2</AltitudeMeters>
            <DistanceMeters>NAN</DistanceMeters>
          </Trackpoint>
          <Trackpoint>
            <Time>2021-08-12T11:09:44.000Z</Time>
            <Position>
              <LatitudeDegrees>43.32358357496559619903564453125</LatitudeDegrees>
              <LongitudeDegrees>-1.98810470290482044219970703125</LongitudeDegrees>
            </Position>
            <AltitudeMeters>-2</AltitudeMeters>
            <DistanceMeters>NAN</DistanceMeters>
          </Trackpoint>
          <Trackpoint>
            <Time>2021-08-12T11:09:45.000Z</Time>
            <Position>
              <LatitudeDegrees>43.32358374260365962982177734375</LatitudeDegrees>
              <LongitudeDegrees>-1.9880655594170093536376953125</LongitudeDegrees>
            </Position>
            <AltitudeMeters>-2</AltitudeMeters>
            <DistanceMeters>NAN</DistanceMeters>
          </Trackpoint>
          <Trackpoint>
            <Time>2021-08-12T11:09:46.000Z</Time>
            <Position>
              <LatitudeDegrees>43.3235853351652622222900390625</LatitudeDegrees>
              <LongitudeDegrees>-1.98802608065307140350341796875</LongitudeDegrees>
            </Position>
            <AltitudeMeters>-2.2000000476837158203125</AltitudeMeters>
            <DistanceMeters>NAN</DistanceMeters>
          </Trackpoint>
          <Trackpoint>
            <Time>2021-08-12T11:09:47.000Z</Time>
            <Position>
              <LatitudeDegrees>43.3235870115458965301513671875</LatitudeDegrees>
              <LongitudeDegrees>-1.987995319068431854248046875</LongitudeDegrees>
            </Position>
            <AltitudeMeters>-2.2000000476837158203125</AltitudeMeters>
            <DistanceMeters>NAN</DistanceMeters>
          </Trackpoint>
          <Trackpoint>
            <Time>2021-08-12T11:09:48.000Z</Time>
            <Position>
              <LatitudeDegrees>43.323586843907833099365234375</LatitudeDegrees>
              <LongitudeDegrees>-1.98795299045741558074951171875</LongitudeDegrees>
            </Position>
            <AltitudeMeters>-2.2000000476837158203125</AltitudeMeters>
            <DistanceMeters>NAN</DistanceMeters>
          </Trackpoint>
          <Trackpoint>
            <Time>2021-08-12T11:09:50.000Z</Time>
            <Position>
              <LatitudeDegrees>43.32357267849147319793701171875</LatitudeDegrees>
              <LongitudeDegrees>-1.9878910481929779052734375</LongitudeDegrees>
            </Position>
            <AltitudeMeters>-2.2000000476837158203125</AltitudeMeters>
            <DistanceMeters>NAN</DistanceMeters>
          </Trackpoint>
          <Trackpoint>
            <Time>2021-08-12T11:09:51.000Z</Time>
            <Position>
              <LatitudeDegrees>43.32356027327477931976318359375</LatitudeDegrees>
              <LongitudeDegrees>-1.987860538065433502197265625</LongitudeDegrees>
            </Position>
            <AltitudeMeters>-2.2000000476837158203125</AltitudeMeters>
            <DistanceMeters>NAN</DistanceMeters>
          </Trackpoint>
          <Trackpoint>
            <Time>2021-08-12T11:09:52.000Z</Time>
            <Position>
              <LatitudeDegrees>43.323552645742893218994140625</LatitudeDegrees>
              <LongitudeDegrees>-1.98784033767879009246826171875</LongitudeDegrees>
            </Position>
            <AltitudeMeters>-2.2000000476837158203125</AltitudeMeters>
            <DistanceMeters>NAN</DistanceMeters>
          </Trackpoint>
          <Trackpoint>
            <Time>2021-08-12T11:09:53.000Z</Time>
            <Position>
              <LatitudeDegrees>43.32354300655424594879150390625</LatitudeDegrees>
              <LongitudeDegrees>-1.98781703598797321319580078125</LongitudeDegrees>
            </Position>
            <AltitudeMeters>-2.2000000476837158203125</AltitudeMeters>
            <DistanceMeters>NAN</DistanceMeters>
          </Trackpoint>
          <Trackpoint>
            <Time>2021-08-12T11:09:54.000Z</Time>
            <Position>
              <LatitudeDegrees>43.3235310204327106475830078125</LatitudeDegrees>
              <LongitudeDegrees>-1.98779792524874210357666015625</LongitudeDegrees>
            </Position>
            <AltitudeMeters>-2.2000000476837158203125</AltitudeMeters>
            <DistanceMeters>NAN</DistanceMeters>
          </Trackpoint>
          <Trackpoint>
            <Time>2021-08-12T11:09:55.000Z</Time>
            <Position>
              <LatitudeDegrees>43.323515094816684722900390625</LatitudeDegrees>
              <LongitudeDegrees>-1.9877775572240352630615234375</LongitudeDegrees>
            </Position>
            <AltitudeMeters>-2.2000000476837158203125</AltitudeMeters>
            <DistanceMeters>NAN</DistanceMeters>
          </Trackpoint>
          <Trackpoint>
            <Time>2021-08-12T11:09:56.000Z</Time>
            <Position>
              <LatitudeDegrees>43.323501683771610260009765625</LatitudeDegrees>
              <LongitudeDegrees>-1.9877651520073413848876953125</LongitudeDegrees>
            </Position>
            <AltitudeMeters>-2.2000000476837158203125</AltitudeMeters>
            <DistanceMeters>NAN</DistanceMeters>
          </Trackpoint>
          <Trackpoint>
            <Time>2021-08-12T11:09:59.000Z</Time>
            <Position>
              <LatitudeDegrees>43.32346069626510143280029296875</LatitudeDegrees>
              <LongitudeDegrees>-1.98771595023572444915771484375</LongitudeDegrees>
            </Position>
            <AltitudeMeters>-2.2000000476837158203125</AltitudeMeters>
            <DistanceMeters>NAN</DistanceMeters>
          </Trackpoint>
          <Trackpoint>
            <Time>2021-08-12T11:10:00.000Z</Time>
            <Position>
              <LatitudeDegrees>43.32344594411551952362060546875</LatitudeDegrees>
              <LongitudeDegrees>-1.987685859203338623046875</LongitudeDegrees>
            </Position>
            <AltitudeMeters>-2</AltitudeMeters>
            <DistanceMeters>NAN</DistanceMeters>
          </Trackpoint>
          <Trackpoint>
            <Time>2021-08-12T11:10:01.000Z</Time>
            <Position>
              <LatitudeDegrees>43.32343169488012790679931640625</LatitudeDegrees>
              <LongitudeDegrees>-1.98765543289482593536376953125</LongitudeDegrees>
            </Position>
            <AltitudeMeters>-2</AltitudeMeters>
            <DistanceMeters>NAN</DistanceMeters>
          </Trackpoint>
          <Trackpoint>
            <Time>2021-08-12T11:10:02.000Z</Time>
            <Position>
              <LatitudeDegrees>43.32341744564473628997802734375</LatitudeDegrees>
              <LongitudeDegrees>-1.98763129301369190216064453125</LongitudeDegrees>
            </Position>
            <AltitudeMeters>-2</AltitudeMeters>
            <DistanceMeters>NAN</DistanceMeters>
          </Trackpoint>
          <Trackpoint>
            <Time>2021-08-12T11:10:08.000Z</Time>
            <Position>
              <LatitudeDegrees>43.32332289777696132659912109375</LatitudeDegrees>
              <LongitudeDegrees>-1.98748662136495113372802734375</LongitudeDegrees>
            </Position>
            <AltitudeMeters>-1.60000002384185791015625</AltitudeMeters>
            <DistanceMeters>NAN</DistanceMeters>
          </Trackpoint>
          <Trackpoint>
            <Time>2021-08-12T11:10:09.000Z</Time>
            <Position>
              <LatitudeDegrees>43.32329280674457550048828125</LatitudeDegrees>
              <LongitudeDegrees>-1.98746516369283199310302734375</LongitudeDegrees>
            </Position>
            <AltitudeMeters>-1.39999997615814208984375</AltitudeMeters>
            <DistanceMeters>NAN</DistanceMeters>
          </Trackpoint>
          <Trackpoint>
            <Time>2021-08-12T11:10:10.000Z</Time>
            <Position>
              <LatitudeDegrees>43.32325123250484466552734375</LatitudeDegrees>
              <LongitudeDegrees>-1.9874592125415802001953125</LongitudeDegrees>
            </Position>
            <AltitudeMeters>-1.39999997615814208984375</AltitudeMeters>
            <DistanceMeters>NAN</DistanceMeters>
          </Trackpoint>
          <Trackpoint>
            <Time>2021-08-12T11:10:16.000Z</Time>
            <Position>
              <LatitudeDegrees>43.323100022971630096435546875</LatitudeDegrees>
              <LongitudeDegrees>-1.98737916536629199981689453125</LongitudeDegrees>
            </Position>
            <AltitudeMeters>-1.2000000476837158203125</AltitudeMeters>
            <DistanceMeters>NAN</DistanceMeters>
          </Trackpoint>
          <Trackpoint>
            <Time>2021-08-12T11:10:17.000Z</Time>
            <Position>
              <LatitudeDegrees>43.3230844326317310333251953125</LatitudeDegrees>
              <LongitudeDegrees>-1.98737539350986480712890625</LongitudeDegrees>
            </Position>
            <AltitudeMeters>-1</AltitudeMeters>
            <DistanceMeters>NAN</DistanceMeters>
          </Trackpoint>
          <Trackpoint>
            <Time>2021-08-12T11:10:18.000Z</Time>
            <Position>
              <LatitudeDegrees>43.323080241680145263671875</LatitudeDegrees>
              <LongitudeDegrees>-1.98737002909183502197265625</LongitudeDegrees>
            </Position>
            <AltitudeMeters>-1</AltitudeMeters>
            <DistanceMeters>NAN</DistanceMeters>
          </Trackpoint>
          <Trackpoint>
            <Time>2021-08-12T11:10:19.000Z</Time>
            <Position>
              <LatitudeDegrees>43.323082588613033294677734375</LatitudeDegrees>
              <LongitudeDegrees>-1.98735418729484081268310546875</LongitudeDegrees>
            </Position>
            <AltitudeMeters>-1</AltitudeMeters>
            <DistanceMeters>NAN</DistanceMeters>
          </Trackpoint>
          <Trackpoint>
            <Time>2021-08-12T11:10:20.000Z</Time>
            <Position>
              <LatitudeDegrees>43.3230797387659549713134765625</LatitudeDegrees>
              <LongitudeDegrees>-1.98734664358198642730712890625</LongitudeDegrees>
            </Position>
            <AltitudeMeters>-1</AltitudeMeters>
            <DistanceMeters>NAN</DistanceMeters>
          </Trackpoint>
          <Trackpoint>
            <Time>2021-08-12T11:10:21.000Z</Time>
            <Position>
              <LatitudeDegrees>43.32307060249149799346923828125</LatitudeDegrees>
              <LongitudeDegrees>-1.98734429664909839630126953125</LongitudeDegrees>
            </Position>
            <AltitudeMeters>-0.800000011920928955078125</AltitudeMeters>
            <DistanceMeters>NAN</DistanceMeters>
          </Trackpoint>
          <Trackpoint>
            <Time>2021-08-12T11:10:22.000Z</Time>
            <Position>
              <LatitudeDegrees>43.3230612985789775848388671875</LatitudeDegrees>
              <LongitudeDegrees>-1.98732652701437473297119140625</LongitudeDegrees>
            </Position>
            <AltitudeMeters>-0.800000011920928955078125</AltitudeMeters>
            <DistanceMeters>NAN</DistanceMeters>
          </Trackpoint>
          <Trackpoint>
            <Time>2021-08-12T11:10:23.000Z</Time>
            <Position>
              <LatitudeDegrees>43.3230146951973438262939453125</LatitudeDegrees>
              <LongitudeDegrees>-1.987297944724559783935546875</LongitudeDegrees>
            </Position>
            <AltitudeMeters>-0.800000011920928955078125</AltitudeMeters>
            <DistanceMeters>NAN</DistanceMeters>
          </Trackpoint>
          <Trackpoint>
            <Time>2021-08-12T11:10:24.000Z</Time>
            <Position>
              <LatitudeDegrees>43.32301561720669269561767578125</LatitudeDegrees>
              <LongitudeDegrees>-1.9872634112834930419921875</LongitudeDegrees>
            </Position>
            <AltitudeMeters>-0.60000002384185791015625</AltitudeMeters>
            <DistanceMeters>NAN</DistanceMeters>
          </Trackpoint>
          <Trackpoint>
            <Time>2021-08-12T11:10:25.000Z</Time>
            <Position>
              <LatitudeDegrees>43.32303858362138271331787109375</LatitudeDegrees>
              <LongitudeDegrees>-1.98723348788917064666748046875</LongitudeDegrees>
            </Position>
            <AltitudeMeters>-0.60000002384185791015625</AltitudeMeters>
            <DistanceMeters>NAN</DistanceMeters>
          </Trackpoint>
          <Trackpoint>
            <Time>2021-08-12T11:10:26.000Z</Time>
            <Position>
              <LatitudeDegrees>43.32304679788649082183837890625</LatitudeDegrees>
              <LongitudeDegrees>-1.9872186519205570220947265625</LongitudeDegrees>
            </Position>
            <AltitudeMeters>-0.60000002384185791015625</AltitudeMeters>
            <DistanceMeters>NAN</DistanceMeters>
          </Trackpoint>
          <Trackpoint>
            <Time>2021-08-12T11:10:27.000Z</Time>
            <Position>
              <LatitudeDegrees>43.32305534742772579193115234375</LatitudeDegrees>
              <LongitudeDegrees>-1.987208425998687744140625</LongitudeDegrees>
            </Position>
            <AltitudeMeters>-0.60000002384185791015625</AltitudeMeters>
            <DistanceMeters>NAN</DistanceMeters>
          </Trackpoint>
          <Trackpoint>
            <Time>2021-08-12T11:10:28.000Z</Time>
            <Position>
              <LatitudeDegrees>43.32306255586445331573486328125</LatitudeDegrees>
              <LongitudeDegrees>-1.987195350229740142822265625</LongitudeDegrees>
            </Position>
            <AltitudeMeters>-0.60000002384185791015625</AltitudeMeters>
            <DistanceMeters>NAN</DistanceMeters>
          </Trackpoint>
          <Trackpoint>
            <Time>2021-08-12T11:10:29.000Z</Time>
            <Position>
              <LatitudeDegrees>43.32305987365543842315673828125</LatitudeDegrees>
              <LongitudeDegrees>-1.98718537576496601104736328125</LongitudeDegrees>
            </Position>
            <AltitudeMeters>-0.4000000059604644775390625</AltitudeMeters>
            <DistanceMeters>NAN</DistanceMeters>
          </Trackpoint>
          <Trackpoint>
            <Time>2021-08-12T11:10:31.000Z</Time>
            <Position>
              <LatitudeDegrees>43.32306071184575557708740234375</LatitudeDegrees>
              <LongitudeDegrees>-1.98717313818633556365966796875</LongitudeDegrees>
            </Position>
            <AltitudeMeters>-0.4000000059604644775390625</AltitudeMeters>
            <DistanceMeters>NAN</DistanceMeters>
          </Trackpoint>
          <Trackpoint>
            <Time>2021-08-12T11:10:32.000Z</Time>
            <Position>
              <LatitudeDegrees>43.323062472045421600341796875</LatitudeDegrees>
              <LongitudeDegrees>-1.987163834273815155029296875</LongitudeDegrees>
            </Position>
            <AltitudeMeters>-0.4000000059604644775390625</AltitudeMeters>
            <DistanceMeters>NAN</DistanceMeters>
          </Trackpoint>
          <Trackpoint>
            <Time>2021-08-12T11:10:34.000Z</Time>
            <Position>
              <LatitudeDegrees>43.3230639807879924774169921875</LatitudeDegrees>
              <LongitudeDegrees>-1.98715939186513423919677734375</LongitudeDegrees>
            </Position>
            <AltitudeMeters>-0.20000000298023223876953125</AltitudeMeters>
            <DistanceMeters>NAN</DistanceMeters>
          </Trackpoint>
          <Trackpoint>
            <Time>2021-08-12T11:10:35.000Z</Time>
            <Position>
              <LatitudeDegrees>43.32306750118732452392578125</LatitudeDegrees>
              <LongitudeDegrees>-1.9871552847325801849365234375</LongitudeDegrees>
            </Position>
            <AltitudeMeters>-0.20000000298023223876953125</AltitudeMeters>
            <DistanceMeters>NAN</DistanceMeters>
          </Trackpoint>
          <Trackpoint>
            <Time>2021-08-12T11:10:37.000Z</Time>
            <Position>
              <LatitudeDegrees>43.32308518700301647186279296875</LatitudeDegrees>
              <LongitudeDegrees>-1.98714070022106170654296875</LongitudeDegrees>
            </Position>
            <AltitudeMeters>0</AltitudeMeters>
            <DistanceMeters>NAN</DistanceMeters>
          </Trackpoint>
          <Trackpoint>
            <Time>2021-08-12T11:10:38.000Z</Time>
            <Position>
              <LatitudeDegrees>43.32309222780168056488037109375</LatitudeDegrees>
              <LongitudeDegrees>-1.98712971992790699005126953125</LongitudeDegrees>
            </Position>
            <AltitudeMeters>0</AltitudeMeters>
            <DistanceMeters>NAN</DistanceMeters>
          </Trackpoint>
          <Trackpoint>
            <Time>2021-08-12T11:10:39.000Z</Time>
            <Position>
              <LatitudeDegrees>43.3230981789529323577880859375</LatitudeDegrees>
              <LongitudeDegrees>-1.98711966164410114288330078125</LongitudeDegrees>
            </Position>
            <AltitudeMeters>0</AltitudeMeters>
            <DistanceMeters>NAN</DistanceMeters>
          </Trackpoint>
          <Trackpoint>
            <Time>2021-08-12T11:10:40.000Z</Time>
            <Position>
              <LatitudeDegrees>43.3231005258858203887939453125</LatitudeDegrees>
              <LongitudeDegrees>-1.9871110282838344573974609375</LongitudeDegrees>
            </Position>
            <AltitudeMeters>0.20000000298023223876953125</AltitudeMeters>
            <DistanceMeters>NAN</DistanceMeters>
          </Trackpoint>
          <Trackpoint>
            <Time>2021-08-12T11:10:41.000Z</Time>
            <Position>
              <LatitudeDegrees>43.3231038786470890045166015625</LatitudeDegrees>
              <LongitudeDegrees>-1.98710440658032894134521484375</LongitudeDegrees>
            </Position>
            <AltitudeMeters>0.20000000298023223876953125</AltitudeMeters>
            <DistanceMeters>NAN</DistanceMeters>
          </Trackpoint>
          <Trackpoint>
            <Time>2021-08-12T11:10:42.000Z</Time>
            <Position>
              <LatitudeDegrees>43.323108740150928497314453125</LatitudeDegrees>
              <LongitudeDegrees>-1.98709216900169849395751953125</LongitudeDegrees>
            </Position>
            <AltitudeMeters>0.20000000298023223876953125</AltitudeMeters>
            <DistanceMeters>NAN</DistanceMeters>
          </Trackpoint>
          <Trackpoint>
            <Time>2021-08-12T11:10:43.000Z</Time>
            <Position>
              <LatitudeDegrees>43.323110751807689666748046875</LatitudeDegrees>
              <LongitudeDegrees>-1.98708160780370235443115234375</LongitudeDegrees>
            </Position>
            <AltitudeMeters>0.4000000059604644775390625</AltitudeMeters>
            <DistanceMeters>NAN</DistanceMeters>
          </Trackpoint>
          <Trackpoint>
            <Time>2021-08-12T11:10:44.000Z</Time>
            <Position>
              <LatitudeDegrees>43.323112763464450836181640625</LatitudeDegrees>
              <LongitudeDegrees>-1.98707154951989650726318359375</LongitudeDegrees>
            </Position>
            <AltitudeMeters>0.60000002384185791015625</AltitudeMeters>
            <DistanceMeters>NAN</DistanceMeters>
          </Trackpoint>
          <Trackpoint>
            <Time>2021-08-12T11:10:46.000Z</Time>
            <Position>
              <LatitudeDegrees>43.3231196366250514984130859375</LatitudeDegrees>
              <LongitudeDegrees>-1.98705478571355342864990234375</LongitudeDegrees>
            </Position>
            <AltitudeMeters>0.800000011920928955078125</AltitudeMeters>
            <DistanceMeters>NAN</DistanceMeters>
          </Trackpoint>
          <Trackpoint>
            <Time>2021-08-12T11:10:47.000Z</Time>
            <Position>
              <LatitudeDegrees>43.32311921752989292144775390625</LatitudeDegrees>
              <LongitudeDegrees>-1.98704036884009838104248046875</LongitudeDegrees>
            </Position>
            <AltitudeMeters>0.800000011920928955078125</AltitudeMeters>
            <DistanceMeters>NAN</DistanceMeters>
          </Trackpoint>
          <Trackpoint>
            <Time>2021-08-12T11:10:48.000Z</Time>
            <Position>
              <LatitudeDegrees>43.3231223188340663909912109375</LatitudeDegrees>
              <LongitudeDegrees>-1.98702938854694366455078125</LongitudeDegrees>
            </Position>
            <AltitudeMeters>1</AltitudeMeters>
            <DistanceMeters>NAN</DistanceMeters>
          </Trackpoint>
          <Trackpoint>
            <Time>2021-08-12T11:10:49.000Z</Time>
            <Position>
              <LatitudeDegrees>43.32312257029116153717041015625</LatitudeDegrees>
              <LongitudeDegrees>-1.98702326975762844085693359375</LongitudeDegrees>
            </Position>
            <AltitudeMeters>1</AltitudeMeters>
            <DistanceMeters>NAN</DistanceMeters>
          </Trackpoint>
          <Trackpoint>
            <Time>2021-08-12T11:10:53.000Z</Time>
            <Position>
              <LatitudeDegrees>43.32311988808214664459228515625</LatitudeDegrees>
              <LongitudeDegrees>-1.98700298555195331573486328125</LongitudeDegrees>
            </Position>
            <AltitudeMeters>1</AltitudeMeters>
            <DistanceMeters>NAN</DistanceMeters>
          </Trackpoint>
          <Trackpoint>
            <Time>2021-08-12T11:11:00.000Z</Time>
            <Position>
              <LatitudeDegrees>43.32313179038465023040771484375</LatitudeDegrees>
              <LongitudeDegrees>-1.9869839586317539215087890625</LongitudeDegrees>
            </Position>
            <AltitudeMeters>1</AltitudeMeters>
            <DistanceMeters>NAN</DistanceMeters>
          </Trackpoint>
          <Trackpoint>
            <Time>2021-08-12T11:11:02.000Z</Time>
            <Position>
              <LatitudeDegrees>43.32313396967947483062744140625</LatitudeDegrees>
              <LongitudeDegrees>-1.98696057312190532684326171875</LongitudeDegrees>
            </Position>
            <AltitudeMeters>1</AltitudeMeters>
            <DistanceMeters>NAN</DistanceMeters>
          </Trackpoint>
          <Trackpoint>
            <Time>2021-08-12T11:11:03.000Z</Time>
            <Position>
              <LatitudeDegrees>43.32313849590718746185302734375</LatitudeDegrees>
              <LongitudeDegrees>-1.98694934137165546417236328125</LongitudeDegrees>
            </Position>
            <AltitudeMeters>1</AltitudeMeters>
            <DistanceMeters>NAN</DistanceMeters>
          </Trackpoint>
          <Trackpoint>
            <Time>2021-08-12T11:11:04.000Z</Time>
            <Position>
              <LatitudeDegrees>43.32314126193523406982421875</LatitudeDegrees>
              <LongitudeDegrees>-1.98694280348718166351318359375</LongitudeDegrees>
            </Position>
            <AltitudeMeters>1</AltitudeMeters>
            <DistanceMeters>NAN</DistanceMeters>
          </Trackpoint>
          <Trackpoint>
            <Time>2021-08-12T11:11:05.000Z</Time>
            <Position>
              <LatitudeDegrees>43.32314134575426578521728515625</LatitudeDegrees>
              <LongitudeDegrees>-1.98693727143108844757080078125</LongitudeDegrees>
            </Position>
            <AltitudeMeters>1</AltitudeMeters>
            <DistanceMeters>NAN</DistanceMeters>
          </Trackpoint>
          <Trackpoint>
            <Time>2021-08-12T11:11:06.000Z</Time>
            <Position>
              <LatitudeDegrees>43.32314218394458293914794921875</LatitudeDegrees>
              <LongitudeDegrees>-1.98693710379302501678466796875</LongitudeDegrees>
            </Position>
            <AltitudeMeters>1</AltitudeMeters>
            <DistanceMeters>NAN</DistanceMeters>
          </Trackpoint>
          <Trackpoint>
            <Time>2021-08-12T11:11:07.000Z</Time>
            <Position>
              <LatitudeDegrees>43.3231447823345661163330078125</LatitudeDegrees>
              <LongitudeDegrees>-1.986931152641773223876953125</LongitudeDegrees>
            </Position>
            <AltitudeMeters>1</AltitudeMeters>
            <DistanceMeters>NAN</DistanceMeters>
          </Trackpoint>
          <Trackpoint>
            <Time>2021-08-12T11:11:09.000Z</Time>
            <Position>
              <LatitudeDegrees>43.32315257750451564788818359375</LatitudeDegrees>
              <LongitudeDegrees>-1.98690391145646572113037109375</LongitudeDegrees>
            </Position>
            <AltitudeMeters>1.2000000476837158203125</AltitudeMeters>
            <DistanceMeters>NAN</DistanceMeters>
          </Trackpoint>
          <Trackpoint>
            <Time>2021-08-12T11:11:11.000Z</Time>
            <Position>
              <LatitudeDegrees>43.32315861247479915618896484375</LatitudeDegrees>
              <LongitudeDegrees>-1.986875496804714202880859375</LongitudeDegrees>
            </Position>
            <AltitudeMeters>1.2000000476837158203125</AltitudeMeters>
            <DistanceMeters>NAN</DistanceMeters>
          </Trackpoint>
          <Trackpoint>
            <Time>2021-08-12T11:11:12.000Z</Time>
            <Position>
              <LatitudeDegrees>43.32316263578832149505615234375</LatitudeDegrees>
              <LongitudeDegrees>-1.9868595711886882781982421875</LongitudeDegrees>
            </Position>
            <AltitudeMeters>1.2000000476837158203125</AltitudeMeters>
            <DistanceMeters>NAN</DistanceMeters>
          </Trackpoint>
          <Trackpoint>
            <Time>2021-08-12T11:11:13.000Z</Time>
            <Position>
              <LatitudeDegrees>43.3231669105589389801025390625</LatitudeDegrees>
              <LongitudeDegrees>-1.98685144074261188507080078125</LongitudeDegrees>
            </Position>
            <AltitudeMeters>1.2000000476837158203125</AltitudeMeters>
            <DistanceMeters>NAN</DistanceMeters>
          </Trackpoint>
          <Trackpoint>
            <Time>2021-08-12T11:11:14.000Z</Time>
            <Position>
              <LatitudeDegrees>43.32317118532955646514892578125</LatitudeDegrees>
              <LongitudeDegrees>-1.986842639744281768798828125</LongitudeDegrees>
            </Position>
            <AltitudeMeters>1.2000000476837158203125</AltitudeMeters>
            <DistanceMeters>NAN</DistanceMeters>
          </Trackpoint>
          <Trackpoint>
            <Time>2021-08-12T11:11:15.000Z</Time>
            <Position>
              <LatitudeDegrees>43.32317185588181018829345703125</LatitudeDegrees>
              <LongitudeDegrees>-1.9868391193449497222900390625</LongitudeDegrees>
            </Position>
            <AltitudeMeters>1.2000000476837158203125</AltitudeMeters>
            <DistanceMeters>NAN</DistanceMeters>
          </Trackpoint>
          <Trackpoint>
            <Time>2021-08-12T11:11:16.000Z</Time>
            <Position>
              <LatitudeDegrees>43.32317344844341278076171875</LatitudeDegrees>
              <LongitudeDegrees>-1.9868364371359348297119140625</LongitudeDegrees>
            </Position>
            <AltitudeMeters>1.2000000476837158203125</AltitudeMeters>
            <DistanceMeters>NAN</DistanceMeters>
          </Trackpoint>
          <Trackpoint>
            <Time>2021-08-12T11:11:20.000Z</Time>
            <Position>
              <LatitudeDegrees>43.3231933973729610443115234375</LatitudeDegrees>
              <LongitudeDegrees>-1.98679335415363311767578125</LongitudeDegrees>
            </Position>
            <AltitudeMeters>1.39999997615814208984375</AltitudeMeters>
            <DistanceMeters>NAN</DistanceMeters>
          </Trackpoint>
          <Trackpoint>
            <Time>2021-08-12T11:11:21.000Z</Time>
            <Position>
              <LatitudeDegrees>43.32319557666778564453125</LatitudeDegrees>
              <LongitudeDegrees>-1.98678639717400074005126953125</LongitudeDegrees>
            </Position>
            <AltitudeMeters>1.39999997615814208984375</AltitudeMeters>
            <DistanceMeters>NAN</DistanceMeters>
          </Trackpoint>
          <Trackpoint>
            <Time>2021-08-12T11:11:22.000Z</Time>
            <Position>
              <LatitudeDegrees>43.3232022821903228759765625</LatitudeDegrees>
              <LongitudeDegrees>-1.98677399195730686187744140625</LongitudeDegrees>
            </Position>
            <AltitudeMeters>1.39999997615814208984375</AltitudeMeters>
            <DistanceMeters>NAN</DistanceMeters>
          </Trackpoint>
          <Trackpoint>
            <Time>2021-08-12T11:11:24.000Z</Time>
            <Position>
              <LatitudeDegrees>43.323222063481807708740234375</LatitudeDegrees>
              <LongitudeDegrees>-1.9867482595145702362060546875</LongitudeDegrees>
            </Position>
            <AltitudeMeters>1.60000002384185791015625</AltitudeMeters>
            <DistanceMeters>NAN</DistanceMeters>
          </Trackpoint>
          <Trackpoint>
            <Time>2021-08-12T11:11:25.000Z</Time>
            <Position>
              <LatitudeDegrees>43.3232306130230426788330078125</LatitudeDegrees>
              <LongitudeDegrees>-1.9867388717830181121826171875</LongitudeDegrees>
            </Position>
            <AltitudeMeters>1.60000002384185791015625</AltitudeMeters>
            <DistanceMeters>NAN</DistanceMeters>
          </Trackpoint>
          <Trackpoint>
            <Time>2021-08-12T11:11:27.000Z</Time>
            <Position>
              <LatitudeDegrees>43.32323790527880191802978515625</LatitudeDegrees>
              <LongitudeDegrees>-1.98673174716532230377197265625</LongitudeDegrees>
            </Position>
            <AltitudeMeters>1.60000002384185791015625</AltitudeMeters>
            <DistanceMeters>NAN</DistanceMeters>
          </Trackpoint>
          <Trackpoint>
            <Time>2021-08-12T11:11:30.000Z</Time>
            <Position>
              <LatitudeDegrees>43.32325316034257411956787109375</LatitudeDegrees>
              <LongitudeDegrees>-1.98670291341841220855712890625</LongitudeDegrees>
            </Position>
            <AltitudeMeters>1.60000002384185791015625</AltitudeMeters>
            <DistanceMeters>NAN</DistanceMeters>
          </Trackpoint>
          <Trackpoint>
            <Time>2021-08-12T11:11:31.000Z</Time>
            <Position>
              <LatitudeDegrees>43.323257602751255035400390625</LatitudeDegrees>
              <LongitudeDegrees>-1.9866869039833545684814453125</LongitudeDegrees>
            </Position>
            <AltitudeMeters>1.60000002384185791015625</AltitudeMeters>
            <DistanceMeters>NAN</DistanceMeters>
          </Trackpoint>
          <Trackpoint>
            <Time>2021-08-12T11:11:34.000Z</Time>
            <Position>
              <LatitudeDegrees>43.32326707430183887481689453125</LatitudeDegrees>
              <LongitudeDegrees>-1.9866614229977130889892578125</LongitudeDegrees>
            </Position>
            <AltitudeMeters>1.60000002384185791015625</AltitudeMeters>
            <DistanceMeters>NAN</DistanceMeters>
          </Trackpoint>
          <Trackpoint>
            <Time>2021-08-12T11:11:35.000Z</Time>
            <Position>
              <LatitudeDegrees>43.32327176816761493682861328125</LatitudeDegrees>
              <LongitudeDegrees>-1.98664558120071887969970703125</LongitudeDegrees>
            </Position>
            <AltitudeMeters>1.60000002384185791015625</AltitudeMeters>
            <DistanceMeters>NAN</DistanceMeters>
          </Trackpoint>
          <Trackpoint>
            <Time>2021-08-12T11:11:36.000Z</Time>
            <Position>
              <LatitudeDegrees>43.3232745341956615447998046875</LatitudeDegrees>
              <LongitudeDegrees>-1.986628733575344085693359375</LongitudeDegrees>
            </Position>
            <AltitudeMeters>1.60000002384185791015625</AltitudeMeters>
            <DistanceMeters>NAN</DistanceMeters>
          </Trackpoint>
          <Trackpoint>
            <Time>2021-08-12T11:11:40.000Z</Time>
            <Position>
              <LatitudeDegrees>43.323295153677463531494140625</LatitudeDegrees>
              <LongitudeDegrees>-1.98658883571624755859375</LongitudeDegrees>
            </Position>
            <AltitudeMeters>1.60000002384185791015625</AltitudeMeters>
            <DistanceMeters>NAN</DistanceMeters>
          </Trackpoint>
          <Trackpoint>
            <Time>2021-08-12T11:11:41.000Z</Time>
            <Position>
              <LatitudeDegrees>43.32330353558063507080078125</LatitudeDegrees>
              <LongitudeDegrees>-1.98657198809087276458740234375</LongitudeDegrees>
            </Position>
            <AltitudeMeters>1.60000002384185791015625</AltitudeMeters>
            <DistanceMeters>NAN</DistanceMeters>
          </Trackpoint>
          <Trackpoint>
            <Time>2021-08-12T11:11:42.000Z</Time>
            <Position>
              <LatitudeDegrees>43.32330881617963314056396484375</LatitudeDegrees>
              <LongitudeDegrees>-1.9865561462938785552978515625</LongitudeDegrees>
            </Position>
            <AltitudeMeters>1.60000002384185791015625</AltitudeMeters>
            <DistanceMeters>NAN</DistanceMeters>
          </Trackpoint>
          <Trackpoint>
            <Time>2021-08-12T11:11:43.000Z</Time>
            <Position>
              <LatitudeDegrees>43.323309905827045440673828125</LatitudeDegrees>
              <LongitudeDegrees>-1.9865410588681697845458984375</LongitudeDegrees>
            </Position>
            <AltitudeMeters>1.60000002384185791015625</AltitudeMeters>
            <DistanceMeters>NAN</DistanceMeters>
          </Trackpoint>
          <Trackpoint>
            <Time>2021-08-12T11:11:44.000Z</Time>
            <Position>
              <LatitudeDegrees>43.32330931909382343292236328125</LatitudeDegrees>
              <LongitudeDegrees>-1.986529491841793060302734375</LongitudeDegrees>
            </Position>
            <AltitudeMeters>1.39999997615814208984375</AltitudeMeters>
            <DistanceMeters>NAN</DistanceMeters>
          </Trackpoint>
          <Trackpoint>
            <Time>2021-08-12T11:11:45.000Z</Time>
            <Position>
              <LatitudeDegrees>43.32331216894090175628662109375</LatitudeDegrees>
              <LongitudeDegrees>-1.98651867918670177459716796875</LongitudeDegrees>
            </Position>
            <AltitudeMeters>1.60000002384185791015625</AltitudeMeters>
            <DistanceMeters>NAN</DistanceMeters>
          </Trackpoint>
          <Trackpoint>
            <Time>2021-08-12T11:11:46.000Z</Time>
            <Position>
              <LatitudeDegrees>43.323314599692821502685546875</LatitudeDegrees>
              <LongitudeDegrees>-1.9865115545690059661865234375</LongitudeDegrees>
            </Position>
            <AltitudeMeters>1.60000002384185791015625</AltitudeMeters>
            <DistanceMeters>NAN</DistanceMeters>
          </Trackpoint>
          <Trackpoint>
            <Time>2021-08-12T11:11:47.000Z</Time>
            <Position>
              <LatitudeDegrees>43.323316276073455810546875</LatitudeDegrees>
              <LongitudeDegrees>-1.98650744743645191192626953125</LongitudeDegrees>
            </Position>
            <AltitudeMeters>1.60000002384185791015625</AltitudeMeters>
            <DistanceMeters>NAN</DistanceMeters>
          </Trackpoint>
          <Trackpoint>
            <Time>2021-08-12T11:11:55.000Z</Time>
            <Position>
              <LatitudeDegrees>43.3233197964727878570556640625</LatitudeDegrees>
              <LongitudeDegrees>-1.98650627397000789642333984375</LongitudeDegrees>
            </Position>
            <AltitudeMeters>1.60000002384185791015625</AltitudeMeters>
            <DistanceMeters>NAN</DistanceMeters>
          </Trackpoint>
          <Trackpoint>
            <Time>2021-08-12T11:11:58.000Z</Time>
            <Position>
              <LatitudeDegrees>43.3233311958611011505126953125</LatitudeDegrees>
              <LongitudeDegrees>-1.98648984543979167938232421875</LongitudeDegrees>
            </Position>
            <AltitudeMeters>1.60000002384185791015625</AltitudeMeters>
            <DistanceMeters>NAN</DistanceMeters>
          </Trackpoint>
          <Trackpoint>
            <Time>2021-08-12T11:11:59.000Z</Time>
            <Position>
              <LatitudeDegrees>43.32333429716527462005615234375</LatitudeDegrees>
              <LongitudeDegrees>-1.9864802062511444091796875</LongitudeDegrees>
            </Position>
            <AltitudeMeters>1.60000002384185791015625</AltitudeMeters>
            <DistanceMeters>NAN</DistanceMeters>
          </Trackpoint>
          <Trackpoint>
            <Time>2021-08-12T11:12:00.000Z</Time>
            <Position>
              <LatitudeDegrees>43.3233348838984966278076171875</LatitudeDegrees>
              <LongitudeDegrees>-1.986469142138957977294921875</LongitudeDegrees>
            </Position>
            <AltitudeMeters>1.60000002384185791015625</AltitudeMeters>
            <DistanceMeters>NAN</DistanceMeters>
          </Trackpoint>
          <Trackpoint>
            <Time>2021-08-12T11:12:02.000Z</Time>
            <Position>
              <LatitudeDegrees>43.32333865575492382049560546875</LatitudeDegrees>
              <LongitudeDegrees>-1.98644441552460193634033203125</LongitudeDegrees>
            </Position>
            <AltitudeMeters>1.60000002384185791015625</AltitudeMeters>
            <DistanceMeters>NAN</DistanceMeters>
          </Trackpoint>
          <Trackpoint>
            <Time>2021-08-12T11:12:10.000Z</Time>
            <Position>
              <LatitudeDegrees>43.32333094440400600433349609375</LatitudeDegrees>
              <LongitudeDegrees>-1.98642010800540447235107421875</LongitudeDegrees>
            </Position>
            <AltitudeMeters>1.60000002384185791015625</AltitudeMeters>
            <DistanceMeters>NAN</DistanceMeters>
          </Trackpoint>
          <Trackpoint>
            <Time>2021-08-12T11:12:15.000Z</Time>
            <Position>
              <LatitudeDegrees>43.323363550007343292236328125</LatitudeDegrees>
              <LongitudeDegrees>-1.98641122318804264068603515625</LongitudeDegrees>
            </Position>
            <AltitudeMeters>1.2000000476837158203125</AltitudeMeters>
            <DistanceMeters>NAN</DistanceMeters>
          </Trackpoint>
          <Trackpoint>
            <Time>2021-08-12T11:12:16.000Z</Time>
            <Position>
              <LatitudeDegrees>43.3233640529215335845947265625</LatitudeDegrees>
              <LongitudeDegrees>-1.98641273193061351776123046875</LongitudeDegrees>
            </Position>
            <AltitudeMeters>1.2000000476837158203125</AltitudeMeters>
            <DistanceMeters>NAN</DistanceMeters>
          </Trackpoint>
          <Trackpoint>
            <Time>2021-08-12T11:17:04.000Z</Time>
            <Position>
              <LatitudeDegrees>43.32340286113321781158447265625</LatitudeDegrees>
              <LongitudeDegrees>-1.9865043461322784423828125</LongitudeDegrees>
            </Position>
            <AltitudeMeters>1.60000002384185791015625</AltitudeMeters>
            <DistanceMeters>NAN</DistanceMeters>
          </Trackpoint>
          <Trackpoint>
            <Time>2021-08-12T11:17:09.000Z</Time>
            <Position>
              <LatitudeDegrees>43.32340009510517120361328125</LatitudeDegrees>
              <LongitudeDegrees>-1.98649252764880657196044921875</LongitudeDegrees>
            </Position>
            <AltitudeMeters>1.7999999523162841796875</AltitudeMeters>
            <DistanceMeters>NAN</DistanceMeters>
          </Trackpoint>
          <Trackpoint>
            <Time>2021-08-12T11:17:10.000Z</Time>
            <Position>
              <LatitudeDegrees>43.3233995921909809112548828125</LatitudeDegrees>
              <LongitudeDegrees>-1.9864921085536479949951171875</LongitudeDegrees>
            </Position>
            <AltitudeMeters>1.7999999523162841796875</AltitudeMeters>
            <DistanceMeters>NAN</DistanceMeters>
          </Trackpoint>
          <Trackpoint>
            <Time>2021-08-12T11:17:18.000Z</Time>
            <Position>
              <LatitudeDegrees>43.32339045591652393341064453125</LatitudeDegrees>
              <LongitudeDegrees>-1.98645271360874176025390625</LongitudeDegrees>
            </Position>
            <AltitudeMeters>2</AltitudeMeters>
            <DistanceMeters>NAN</DistanceMeters>
          </Trackpoint>
          <Trackpoint>
            <Time>2021-08-12T11:17:22.000Z</Time>
            <Position>
              <LatitudeDegrees>43.32338609732687473297119140625</LatitudeDegrees>
              <LongitudeDegrees>-1.9864126481115818023681640625</LongitudeDegrees>
            </Position>
            <AltitudeMeters>2.2000000476837158203125</AltitudeMeters>
            <DistanceMeters>NAN</DistanceMeters>
          </Trackpoint>
          <Trackpoint>
            <Time>2021-08-12T11:17:34.000Z</Time>
            <Position>
              <LatitudeDegrees>43.32337084226310253143310546875</LatitudeDegrees>
              <LongitudeDegrees>-1.9863569922745227813720703125</LongitudeDegrees>
            </Position>
            <AltitudeMeters>2</AltitudeMeters>
            <DistanceMeters>NAN</DistanceMeters>
          </Trackpoint>
          <Trackpoint>
            <Time>2021-08-12T11:17:43.000Z</Time>
            <Position>
              <LatitudeDegrees>43.32337033934891223907470703125</LatitudeDegrees>
              <LongitudeDegrees>-1.98635271750390529632568359375</LongitudeDegrees>
            </Position>
            <AltitudeMeters>1.60000002384185791015625</AltitudeMeters>
            <DistanceMeters>NAN</DistanceMeters>
          </Trackpoint>
          <Trackpoint>
            <Time>2021-08-12T11:18:10.000Z</Time>
            <Position>
              <LatitudeDegrees>43.32336933352053165435791015625</LatitudeDegrees>
              <LongitudeDegrees>-1.98625900782644748687744140625</LongitudeDegrees>
            </Position>
            <AltitudeMeters>1</AltitudeMeters>
            <DistanceMeters>NAN</DistanceMeters>
          </Trackpoint>
          <Trackpoint>
            <Time>2021-08-12T11:18:11.000Z</Time>
            <Position>
              <LatitudeDegrees>43.323372267186641693115234375</LatitudeDegrees>
              <LongitudeDegrees>-1.9862468540668487548828125</LongitudeDegrees>
            </Position>
            <AltitudeMeters>1</AltitudeMeters>
            <DistanceMeters>NAN</DistanceMeters>
          </Trackpoint>
          <Trackpoint>
            <Time>2021-08-12T11:18:12.000Z</Time>
            <Position>
              <LatitudeDegrees>43.3233712613582611083984375</LatitudeDegrees>
              <LongitudeDegrees>-1.986233107745647430419921875</LongitudeDegrees>
            </Position>
            <AltitudeMeters>1</AltitudeMeters>
            <DistanceMeters>NAN</DistanceMeters>
          </Trackpoint>
          <Trackpoint>
            <Time>2021-08-12T11:18:13.000Z</Time>
            <Position>
              <LatitudeDegrees>43.32337553612887859344482421875</LatitudeDegrees>
              <LongitudeDegrees>-1.9862158410251140594482421875</LongitudeDegrees>
            </Position>
            <AltitudeMeters>1</AltitudeMeters>
            <DistanceMeters>NAN</DistanceMeters>
          </Trackpoint>
          <Trackpoint>
            <Time>2021-08-12T11:18:17.000Z</Time>
            <Position>
              <LatitudeDegrees>43.3233861811459064483642578125</LatitudeDegrees>
              <LongitudeDegrees>-1.98617602698504924774169921875</LongitudeDegrees>
            </Position>
            <AltitudeMeters>1</AltitudeMeters>
            <DistanceMeters>NAN</DistanceMeters>
          </Trackpoint>
          <Trackpoint>
            <Time>2021-08-12T11:18:19.000Z</Time>
            <Position>
              <LatitudeDegrees>43.32339095883071422576904296875</LatitudeDegrees>
              <LongitudeDegrees>-1.98616035282611846923828125</LongitudeDegrees>
            </Position>
            <AltitudeMeters>0.800000011920928955078125</AltitudeMeters>
            <DistanceMeters>NAN</DistanceMeters>
          </Trackpoint>
          <Trackpoint>
            <Time>2021-08-12T11:18:20.000Z</Time>
            <Position>
              <LatitudeDegrees>43.32339179702103137969970703125</LatitudeDegrees>
              <LongitudeDegrees>-1.9861529767513275146484375</LongitudeDegrees>
            </Position>
            <AltitudeMeters>0.800000011920928955078125</AltitudeMeters>
            <DistanceMeters>NAN</DistanceMeters>
          </Trackpoint>
          <Trackpoint>
            <Time>2021-08-12T11:18:21.000Z</Time>
            <Position>
              <LatitudeDegrees>43.32339514978229999542236328125</LatitudeDegrees>
              <LongitudeDegrees>-1.9861450977623462677001953125</LongitudeDegrees>
            </Position>
            <AltitudeMeters>0.800000011920928955078125</AltitudeMeters>
            <DistanceMeters>NAN</DistanceMeters>
          </Trackpoint>
          <Trackpoint>
            <Time>2021-08-12T11:18:22.000Z</Time>
            <Position>
              <LatitudeDegrees>43.3233985863626003265380859375</LatitudeDegrees>
              <LongitudeDegrees>-1.9861316867172718048095703125</LongitudeDegrees>
            </Position>
            <AltitudeMeters>0.800000011920928955078125</AltitudeMeters>
            <DistanceMeters>NAN</DistanceMeters>
          </Trackpoint>
          <Trackpoint>
            <Time>2021-08-12T11:18:23.000Z</Time>
            <Position>
              <LatitudeDegrees>43.32340135239064693450927734375</LatitudeDegrees>
              <LongitudeDegrees>-1.98612020350992679595947265625</LongitudeDegrees>
            </Position>
            <AltitudeMeters>0.800000011920928955078125</AltitudeMeters>
            <DistanceMeters>NAN</DistanceMeters>
          </Trackpoint>
          <Trackpoint>
            <Time>2021-08-12T11:18:26.000Z</Time>
            <Position>
              <LatitudeDegrees>43.3234096504747867584228515625</LatitudeDegrees>
              <LongitudeDegrees>-1.98607158847153186798095703125</LongitudeDegrees>
            </Position>
            <AltitudeMeters>0.800000011920928955078125</AltitudeMeters>
            <DistanceMeters>NAN</DistanceMeters>
          </Trackpoint>
          <Trackpoint>
            <Time>2021-08-12T11:18:27.000Z</Time>
            <Position>
              <LatitudeDegrees>43.323415853083133697509765625</LatitudeDegrees>
              <LongitudeDegrees>-1.98606002144515514373779296875</LongitudeDegrees>
            </Position>
            <AltitudeMeters>0.800000011920928955078125</AltitudeMeters>
            <DistanceMeters>NAN</DistanceMeters>
          </Trackpoint>
          <Trackpoint>
            <Time>2021-08-12T11:18:29.000Z</Time>
            <Position>
              <LatitudeDegrees>43.3234233967959880828857421875</LatitudeDegrees>
              <LongitudeDegrees>-1.98603236116468906402587890625</LongitudeDegrees>
            </Position>
            <AltitudeMeters>0.800000011920928955078125</AltitudeMeters>
            <DistanceMeters>NAN</DistanceMeters>
          </Trackpoint>
          <Trackpoint>
            <Time>2021-08-12T11:18:34.000Z</Time>
            <Position>
              <LatitudeDegrees>43.32344527356326580047607421875</LatitudeDegrees>
              <LongitudeDegrees>-1.9859677366912364959716796875</LongitudeDegrees>
            </Position>
            <AltitudeMeters>0.800000011920928955078125</AltitudeMeters>
            <DistanceMeters>NAN</DistanceMeters>
          </Trackpoint>
          <Trackpoint>
            <Time>2021-08-12T11:18:35.000Z</Time>
            <Position>
              <LatitudeDegrees>43.32344862632453441619873046875</LatitudeDegrees>
              <LongitudeDegrees>-1.9859544932842254638671875</LongitudeDegrees>
            </Position>
            <AltitudeMeters>0.60000002384185791015625</AltitudeMeters>
            <DistanceMeters>NAN</DistanceMeters>
          </Trackpoint>
          <Trackpoint>
            <Time>2021-08-12T11:18:36.000Z</Time>
            <Position>
              <LatitudeDegrees>43.32345080561935901641845703125</LatitudeDegrees>
              <LongitudeDegrees>-1.98594468645751476287841796875</LongitudeDegrees>
            </Position>
            <AltitudeMeters>0.60000002384185791015625</AltitudeMeters>
            <DistanceMeters>NAN</DistanceMeters>
          </Trackpoint>
          <Trackpoint>
            <Time>2021-08-12T11:18:37.000Z</Time>
            <Position>
              <LatitudeDegrees>43.32345097325742244720458984375</LatitudeDegrees>
              <LongitudeDegrees>-1.9859382323920726776123046875</LongitudeDegrees>
            </Position>
            <AltitudeMeters>0.60000002384185791015625</AltitudeMeters>
            <DistanceMeters>NAN</DistanceMeters>
          </Trackpoint>
          <Trackpoint>
            <Time>2021-08-12T11:18:38.000Z</Time>
            <Position>
              <LatitudeDegrees>43.323454074561595916748046875</LatitudeDegrees>
              <LongitudeDegrees>-1.98593244887888431549072265625</LongitudeDegrees>
            </Position>
            <AltitudeMeters>0.60000002384185791015625</AltitudeMeters>
            <DistanceMeters>NAN</DistanceMeters>
          </Trackpoint>
          <Trackpoint>
            <Time>2021-08-12T11:18:39.000Z</Time>
            <Position>
              <LatitudeDegrees>43.3234592713415622711181640625</LatitudeDegrees>
              <LongitudeDegrees>-1.98592255823314189910888671875</LongitudeDegrees>
            </Position>
            <AltitudeMeters>0.60000002384185791015625</AltitudeMeters>
            <DistanceMeters>NAN</DistanceMeters>
          </Trackpoint>
          <Trackpoint>
            <Time>2021-08-12T11:18:40.000Z</Time>
            <Position>
              <LatitudeDegrees>43.32346103154122829437255859375</LatitudeDegrees>
              <LongitudeDegrees>-1.98591384105384349822998046875</LongitudeDegrees>
            </Position>
            <AltitudeMeters>0.60000002384185791015625</AltitudeMeters>
            <DistanceMeters>NAN</DistanceMeters>
          </Trackpoint>
          <Trackpoint>
            <Time>2021-08-12T11:18:41.000Z</Time>
            <Position>
              <LatitudeDegrees>43.32346287555992603302001953125</LatitudeDegrees>
              <LongitudeDegrees>-1.9859104044735431671142578125</LongitudeDegrees>
            </Position>
            <AltitudeMeters>0.60000002384185791015625</AltitudeMeters>
            <DistanceMeters>NAN</DistanceMeters>
          </Trackpoint>
          <Trackpoint>
            <Time>2021-08-12T11:18:42.000Z</Time>
            <Position>
              <LatitudeDegrees>43.32347058691084384918212890625</LatitudeDegrees>
              <LongitudeDegrees>-1.98590445332229137420654296875</LongitudeDegrees>
            </Position>
            <AltitudeMeters>0.60000002384185791015625</AltitudeMeters>
            <DistanceMeters>NAN</DistanceMeters>
          </Trackpoint>
          <Trackpoint>
            <Time>2021-08-12T11:18:43.000Z</Time>
            <Position>
              <LatitudeDegrees>43.3234798908233642578125</LatitudeDegrees>
              <LongitudeDegrees>-1.9858919642865657806396484375</LongitudeDegrees>
            </Position>
            <AltitudeMeters>0.60000002384185791015625</AltitudeMeters>
            <DistanceMeters>NAN</DistanceMeters>
          </Trackpoint>
          <Trackpoint>
            <Time>2021-08-12T11:18:44.000Z</Time>
            <Position>
              <LatitudeDegrees>43.32348366267979145050048828125</LatitudeDegrees>
              <LongitudeDegrees>-1.98588131926953792572021484375</LongitudeDegrees>
            </Position>
            <AltitudeMeters>0.60000002384185791015625</AltitudeMeters>
            <DistanceMeters>NAN</DistanceMeters>
          </Trackpoint>
          <Trackpoint>
            <Time>2021-08-12T11:18:45.000Z</Time>
            <Position>
              <LatitudeDegrees>43.32348818890750408172607421875</LatitudeDegrees>
              <LongitudeDegrees>-1.98588048107922077178955078125</LongitudeDegrees>
            </Position>
            <AltitudeMeters>0.60000002384185791015625</AltitudeMeters>
            <DistanceMeters>NAN</DistanceMeters>
          </Trackpoint>
          <Trackpoint>
            <Time>2021-08-12T11:18:46.000Z</Time>
            <Position>
              <LatitudeDegrees>43.3234954811632633209228515625</LatitudeDegrees>
              <LongitudeDegrees>-1.98588299565017223358154296875</LongitudeDegrees>
            </Position>
            <AltitudeMeters>0.60000002384185791015625</AltitudeMeters>
            <DistanceMeters>NAN</DistanceMeters>
          </Trackpoint>
          <Trackpoint>
            <Time>2021-08-12T11:18:48.000Z</Time>
            <Position>
              <LatitudeDegrees>43.32349975593388080596923828125</LatitudeDegrees>
              <LongitudeDegrees>-1.98588014580309391021728515625</LongitudeDegrees>
            </Position>
            <AltitudeMeters>0.60000002384185791015625</AltitudeMeters>
            <DistanceMeters>NAN</DistanceMeters>
          </Trackpoint>
          <Trackpoint>
            <Time>2021-08-12T11:18:55.000Z</Time>
            <Position>
              <LatitudeDegrees>43.32351065240800380706787109375</LatitudeDegrees>
              <LongitudeDegrees>-1.9857977516949176788330078125</LongitudeDegrees>
            </Position>
            <AltitudeMeters>0.60000002384185791015625</AltitudeMeters>
            <DistanceMeters>NAN</DistanceMeters>
          </Trackpoint>
          <Trackpoint>
            <Time>2021-08-12T11:18:56.000Z</Time>
            <Position>
              <LatitudeDegrees>43.3235132507979869842529296875</LatitudeDegrees>
              <LongitudeDegrees>-1.985784508287906646728515625</LongitudeDegrees>
            </Position>
            <AltitudeMeters>0.60000002384185791015625</AltitudeMeters>
            <DistanceMeters>NAN</DistanceMeters>
          </Trackpoint>
          <Trackpoint>
            <Time>2021-08-12T11:18:57.000Z</Time>
            <Position>
              <LatitudeDegrees>43.32351903431117534637451171875</LatitudeDegrees>
              <LongitudeDegrees>-1.985773779451847076416015625</LongitudeDegrees>
            </Position>
            <AltitudeMeters>0.60000002384185791015625</AltitudeMeters>
            <DistanceMeters>NAN</DistanceMeters>
          </Trackpoint>
          <Trackpoint>
            <Time>2021-08-12T11:18:58.000Z</Time>
            <Position>
              <LatitudeDegrees>43.32352213561534881591796875</LatitudeDegrees>
              <LongitudeDegrees>-1.985767073929309844970703125</LongitudeDegrees>
            </Position>
            <AltitudeMeters>0.4000000059604644775390625</AltitudeMeters>
            <DistanceMeters>NAN</DistanceMeters>
          </Trackpoint>
          <Trackpoint>
            <Time>2021-08-12T11:19:03.000Z</Time>
            <Position>
              <LatitudeDegrees>43.3235216327011585235595703125</LatitudeDegrees>
              <LongitudeDegrees>-1.98571376502513885498046875</LongitudeDegrees>
            </Position>
            <AltitudeMeters>0.4000000059604644775390625</AltitudeMeters>
            <DistanceMeters>NAN</DistanceMeters>
          </Trackpoint>
          <Trackpoint>
            <Time>2021-08-12T11:19:05.000Z</Time>
            <Position>
              <LatitudeDegrees>43.3235256560146808624267578125</LatitudeDegrees>
              <LongitudeDegrees>-1.9857015274465084075927734375</LongitudeDegrees>
            </Position>
            <AltitudeMeters>0.4000000059604644775390625</AltitudeMeters>
            <DistanceMeters>NAN</DistanceMeters>
          </Trackpoint>
          <Trackpoint>
            <Time>2021-08-12T11:19:07.000Z</Time>
            <Position>
              <LatitudeDegrees>43.3235357142984867095947265625</LatitudeDegrees>
              <LongitudeDegrees>-1.985688619315624237060546875</LongitudeDegrees>
            </Position>
            <AltitudeMeters>0.4000000059604644775390625</AltitudeMeters>
            <DistanceMeters>NAN</DistanceMeters>
          </Trackpoint>
          <Trackpoint>
            <Time>2021-08-12T11:19:08.000Z</Time>
            <Position>
              <LatitudeDegrees>43.32354099489748477935791015625</LatitudeDegrees>
              <LongitudeDegrees>-1.9856817461550235748291015625</LongitudeDegrees>
            </Position>
            <AltitudeMeters>0.4000000059604644775390625</AltitudeMeters>
            <DistanceMeters>NAN</DistanceMeters>
          </Trackpoint>
          <Trackpoint>
            <Time>2021-08-12T11:19:09.000Z</Time>
            <Position>
              <LatitudeDegrees>43.32354032434523105621337890625</LatitudeDegrees>
              <LongitudeDegrees>-1.98567294515669345855712890625</LongitudeDegrees>
            </Position>
            <AltitudeMeters>0.20000000298023223876953125</AltitudeMeters>
            <DistanceMeters>NAN</DistanceMeters>
          </Trackpoint>
          <Trackpoint>
            <Time>2021-08-12T11:19:10.000Z</Time>
            <Position>
              <LatitudeDegrees>43.32353780977427959442138671875</LatitudeDegrees>
              <LongitudeDegrees>-1.98566640727221965789794921875</LongitudeDegrees>
            </Position>
            <AltitudeMeters>0.20000000298023223876953125</AltitudeMeters>
            <DistanceMeters>NAN</DistanceMeters>
          </Trackpoint>
          <Trackpoint>
            <Time>2021-08-12T11:19:11.000Z</Time>
            <Position>
              <LatitudeDegrees>43.32353730686008930206298828125</LatitudeDegrees>
              <LongitudeDegrees>-1.98566548526287078857421875</LongitudeDegrees>
            </Position>
            <AltitudeMeters>0.20000000298023223876953125</AltitudeMeters>
            <DistanceMeters>NAN</DistanceMeters>
          </Trackpoint>
          <Trackpoint>
            <Time>2021-08-12T11:19:13.000Z</Time>
            <Position>
              <LatitudeDegrees>43.32353848032653331756591796875</LatitudeDegrees>
              <LongitudeDegrees>-1.9856750406324863433837890625</LongitudeDegrees>
            </Position>
            <AltitudeMeters>0.20000000298023223876953125</AltitudeMeters>
            <DistanceMeters>NAN</DistanceMeters>
          </Trackpoint>
          <Trackpoint>
            <Time>2021-08-12T11:19:14.000Z</Time>
            <Position>
              <LatitudeDegrees>43.32353613339364528656005859375</LatitudeDegrees>
              <LongitudeDegrees>-1.9856740348041057586669921875</LongitudeDegrees>
            </Position>
            <AltitudeMeters>0</AltitudeMeters>
            <DistanceMeters>NAN</DistanceMeters>
          </Trackpoint>
          <Trackpoint>
            <Time>2021-08-12T11:19:15.000Z</Time>
            <Position>
              <LatitudeDegrees>43.323534540832042694091796875</LatitudeDegrees>
              <LongitudeDegrees>-1.98566825129091739654541015625</LongitudeDegrees>
            </Position>
            <AltitudeMeters>0</AltitudeMeters>
            <DistanceMeters>NAN</DistanceMeters>
          </Trackpoint>
          <Trackpoint>
            <Time>2021-08-12T11:19:19.000Z</Time>
            <Position>
              <LatitudeDegrees>43.3235471136868000030517578125</LatitudeDegrees>
              <LongitudeDegrees>-1.98562952689826488494873046875</LongitudeDegrees>
            </Position>
            <AltitudeMeters>0</AltitudeMeters>
            <DistanceMeters>NAN</DistanceMeters>
          </Trackpoint>
          <Trackpoint>
            <Time>2021-08-12T11:19:26.000Z</Time>
            <Position>
              <LatitudeDegrees>43.32354535348713397979736328125</LatitudeDegrees>
              <LongitudeDegrees>-1.98561041615903377532958984375</LongitudeDegrees>
            </Position>
            <AltitudeMeters>-0.4000000059604644775390625</AltitudeMeters>
            <DistanceMeters>NAN</DistanceMeters>
          </Trackpoint>
          <Trackpoint>
            <Time>2021-08-12T11:19:28.000Z</Time>
            <Position>
              <LatitudeDegrees>43.323547281324863433837890625</LatitudeDegrees>
              <LongitudeDegrees>-1.98559532873332500457763671875</LongitudeDegrees>
            </Position>
            <AltitudeMeters>-0.4000000059604644775390625</AltitudeMeters>
            <DistanceMeters>NAN</DistanceMeters>
          </Trackpoint>
          <Trackpoint>
            <Time>2021-08-12T11:19:40.000Z</Time>
            <Position>
              <LatitudeDegrees>43.3235538192093372344970703125</LatitudeDegrees>
              <LongitudeDegrees>-1.98556683026254177093505859375</LongitudeDegrees>
            </Position>
            <AltitudeMeters>-0.60000002384185791015625</AltitudeMeters>
            <DistanceMeters>NAN</DistanceMeters>
          </Trackpoint>
          <Trackpoint>
            <Time>2021-08-12T11:19:44.000Z</Time>
            <Position>
              <LatitudeDegrees>43.3235538192093372344970703125</LatitudeDegrees>
              <LongitudeDegrees>-1.98556683026254177093505859375</LongitudeDegrees>
            </Position>
            <AltitudeMeters>-0.60000002384185791015625</AltitudeMeters>
            <DistanceMeters>NAN</DistanceMeters>
          </Trackpoint>
          <Trackpoint>
            <Time>2021-08-12T11:20:01.000Z</Time>
            <Position>
              <LatitudeDegrees>43.3235689066350460052490234375</LatitudeDegrees>
              <LongitudeDegrees>-1.985520981252193450927734375</LongitudeDegrees>
            </Position>
            <AltitudeMeters>-0.60000002384185791015625</AltitudeMeters>
            <DistanceMeters>NAN</DistanceMeters>
          </Trackpoint>
          <Trackpoint>
            <Time>2021-08-12T11:20:03.000Z</Time>
            <Position>
              <LatitudeDegrees>43.3235702477395534515380859375</LatitudeDegrees>
              <LongitudeDegrees>-1.9855114258825778961181640625</LongitudeDegrees>
            </Position>
            <AltitudeMeters>-0.60000002384185791015625</AltitudeMeters>
            <DistanceMeters>NAN</DistanceMeters>
          </Trackpoint>
          <Trackpoint>
            <Time>2021-08-12T11:20:10.000Z</Time>
            <Position>
              <LatitudeDegrees>43.32358273677527904510498046875</LatitudeDegrees>
              <LongitudeDegrees>-1.98548351414501667022705078125</LongitudeDegrees>
            </Position>
            <AltitudeMeters>-0.4000000059604644775390625</AltitudeMeters>
            <DistanceMeters>NAN</DistanceMeters>
          </Trackpoint>
          <Trackpoint>
            <Time>2021-08-12T11:20:16.000Z</Time>
            <Position>
              <LatitudeDegrees>43.32358122803270816802978515625</LatitudeDegrees>
              <LongitudeDegrees>-1.9854768924415111541748046875</LongitudeDegrees>
            </Position>
            <AltitudeMeters>-0.4000000059604644775390625</AltitudeMeters>
            <DistanceMeters>NAN</DistanceMeters>
          </Trackpoint>
          <Trackpoint>
            <Time>2021-08-12T11:20:21.000Z</Time>
            <Position>
              <LatitudeDegrees>43.3235823176801204681396484375</LatitudeDegrees>
              <LongitudeDegrees>-1.98545627295970916748046875</LongitudeDegrees>
            </Position>
            <AltitudeMeters>-0.20000000298023223876953125</AltitudeMeters>
            <DistanceMeters>NAN</DistanceMeters>
          </Trackpoint>
          <Trackpoint>
            <Time>2021-08-12T11:20:38.000Z</Time>
            <Position>
              <LatitudeDegrees>43.32358877174556255340576171875</LatitudeDegrees>
              <LongitudeDegrees>-1.9853970967233180999755859375</LongitudeDegrees>
            </Position>
            <AltitudeMeters>0</AltitudeMeters>
            <DistanceMeters>NAN</DistanceMeters>
          </Trackpoint>
          <Trackpoint>
            <Time>2021-08-12T11:20:40.000Z</Time>
            <Position>
              <LatitudeDegrees>43.32359866239130496978759765625</LatitudeDegrees>
              <LongitudeDegrees>-1.9853759743273258209228515625</LongitudeDegrees>
            </Position>
            <AltitudeMeters>0</AltitudeMeters>
            <DistanceMeters>NAN</DistanceMeters>
          </Trackpoint>
          <Trackpoint>
            <Time>2021-08-12T11:20:41.000Z</Time>
            <Position>
              <LatitudeDegrees>43.32360570318996906280517578125</LatitudeDegrees>
              <LongitudeDegrees>-1.98535895906388759613037109375</LongitudeDegrees>
            </Position>
            <AltitudeMeters>0</AltitudeMeters>
            <DistanceMeters>NAN</DistanceMeters>
          </Trackpoint>
          <Trackpoint>
            <Time>2021-08-12T11:20:42.000Z</Time>
            <Position>
              <LatitudeDegrees>43.3236151747405529022216796875</LatitudeDegrees>
              <LongitudeDegrees>-1.98534370400011539459228515625</LongitudeDegrees>
            </Position>
            <AltitudeMeters>0</AltitudeMeters>
            <DistanceMeters>NAN</DistanceMeters>
          </Trackpoint>
          <Trackpoint>
            <Time>2021-08-12T11:20:45.000Z</Time>
            <Position>
              <LatitudeDegrees>43.32363571040332317352294921875</LatitudeDegrees>
              <LongitudeDegrees>-1.98529475368559360504150390625</LongitudeDegrees>
            </Position>
            <AltitudeMeters>0.20000000298023223876953125</AltitudeMeters>
            <DistanceMeters>NAN</DistanceMeters>
          </Trackpoint>
          <Trackpoint>
            <Time>2021-08-12T11:20:46.000Z</Time>
            <Position>
              <LatitudeDegrees>43.32364275120198726654052734375</LatitudeDegrees>
              <LongitudeDegrees>-1.98528603650629520416259765625</LongitudeDegrees>
            </Position>
            <AltitudeMeters>0.20000000298023223876953125</AltitudeMeters>
            <DistanceMeters>NAN</DistanceMeters>
          </Trackpoint>
          <Trackpoint>
            <Time>2021-08-12T11:20:48.000Z</Time>
            <Position>
              <LatitudeDegrees>43.32365415059030055999755859375</LatitudeDegrees>
              <LongitudeDegrees>-1.98526340536773204803466796875</LongitudeDegrees>
            </Position>
            <AltitudeMeters>0.20000000298023223876953125</AltitudeMeters>
            <DistanceMeters>NAN</DistanceMeters>
          </Trackpoint>
          <Trackpoint>
            <Time>2021-08-12T11:20:49.000Z</Time>
            <Position>
              <LatitudeDegrees>43.32366186194121837615966796875</LatitudeDegrees>
              <LongitudeDegrees>-1.9852509163320064544677734375</LongitudeDegrees>
            </Position>
            <AltitudeMeters>0.20000000298023223876953125</AltitudeMeters>
            <DistanceMeters>NAN</DistanceMeters>
          </Trackpoint>
          <Trackpoint>
            <Time>2021-08-12T11:20:50.000Z</Time>
            <Position>
              <LatitudeDegrees>43.323665298521518707275390625</LatitudeDegrees>
              <LongitudeDegrees>-1.9852378405630588531494140625</LongitudeDegrees>
            </Position>
            <AltitudeMeters>0.20000000298023223876953125</AltitudeMeters>
            <DistanceMeters>NAN</DistanceMeters>
          </Trackpoint>
          <Trackpoint>
            <Time>2021-08-12T11:20:51.000Z</Time>
            <Position>
              <LatitudeDegrees>43.3236582577228546142578125</LatitudeDegrees>
              <LongitudeDegrees>-1.98522233404219150543212890625</LongitudeDegrees>
            </Position>
            <AltitudeMeters>0.4000000059604644775390625</AltitudeMeters>
            <DistanceMeters>NAN</DistanceMeters>
          </Trackpoint>
          <Trackpoint>
            <Time>2021-08-12T11:20:52.000Z</Time>
            <Position>
              <LatitudeDegrees>43.3236513845622539520263671875</LatitudeDegrees>
              <LongitudeDegrees>-1.985210515558719635009765625</LongitudeDegrees>
            </Position>
            <AltitudeMeters>0.4000000059604644775390625</AltitudeMeters>
            <DistanceMeters>NAN</DistanceMeters>
          </Trackpoint>
          <Trackpoint>
            <Time>2021-08-12T11:20:53.000Z</Time>
            <Position>
              <LatitudeDegrees>43.32364761270582675933837890625</LatitudeDegrees>
              <LongitudeDegrees>-1.98519517667591571807861328125</LongitudeDegrees>
            </Position>
            <AltitudeMeters>0.4000000059604644775390625</AltitudeMeters>
            <DistanceMeters>NAN</DistanceMeters>
          </Trackpoint>
          <Trackpoint>
            <Time>2021-08-12T11:20:54.000Z</Time>
            <Position>
              <LatitudeDegrees>43.323647193610668182373046875</LatitudeDegrees>
              <LongitudeDegrees>-1.98517137207090854644775390625</LongitudeDegrees>
            </Position>
            <AltitudeMeters>0.4000000059604644775390625</AltitudeMeters>
            <DistanceMeters>NAN</DistanceMeters>
          </Trackpoint>
          <Trackpoint>
            <Time>2021-08-12T11:20:55.000Z</Time>
            <Position>
              <LatitudeDegrees>43.3236433379352092742919921875</LatitudeDegrees>
              <LongitudeDegrees>-1.98514916002750396728515625</LongitudeDegrees>
            </Position>
            <AltitudeMeters>0.4000000059604644775390625</AltitudeMeters>
            <DistanceMeters>NAN</DistanceMeters>
          </Trackpoint>
          <Trackpoint>
            <Time>2021-08-12T11:20:56.000Z</Time>
            <Position>
              <LatitudeDegrees>43.32364392466843128204345703125</LatitudeDegrees>
              <LongitudeDegrees>-1.9851231761276721954345703125</LongitudeDegrees>
            </Position>
            <AltitudeMeters>0.4000000059604644775390625</AltitudeMeters>
            <DistanceMeters>NAN</DistanceMeters>
          </Trackpoint>
          <Trackpoint>
            <Time>2021-08-12T11:20:57.000Z</Time>
            <Position>
              <LatitudeDegrees>43.3236470259726047515869140625</LatitudeDegrees>
              <LongitudeDegrees>-1.985094510018825531005859375</LongitudeDegrees>
            </Position>
            <AltitudeMeters>0.4000000059604644775390625</AltitudeMeters>
            <DistanceMeters>NAN</DistanceMeters>
          </Trackpoint>
          <Trackpoint>
            <Time>2021-08-12T11:20:59.000Z</Time>
            <Position>
              <LatitudeDegrees>43.3236483670771121978759765625</LatitudeDegrees>
              <LongitudeDegrees>-1.98503977619111537933349609375</LongitudeDegrees>
            </Position>
            <AltitudeMeters>0.4000000059604644775390625</AltitudeMeters>
            <DistanceMeters>NAN</DistanceMeters>
          </Trackpoint>
          <Trackpoint>
            <Time>2021-08-12T11:21:00.000Z</Time>
            <Position>
              <LatitudeDegrees>43.32364283502101898193359375</LatitudeDegrees>
              <LongitudeDegrees>-1.9850219227373600006103515625</LongitudeDegrees>
            </Position>
            <AltitudeMeters>0.4000000059604644775390625</AltitudeMeters>
            <DistanceMeters>NAN</DistanceMeters>
          </Trackpoint>
          <Trackpoint>
            <Time>2021-08-12T11:21:01.000Z</Time>
            <Position>
              <LatitudeDegrees>43.323637135326862335205078125</LatitudeDegrees>
              <LongitudeDegrees>-1.985003650188446044921875</LongitudeDegrees>
            </Position>
            <AltitudeMeters>0.20000000298023223876953125</AltitudeMeters>
            <DistanceMeters>NAN</DistanceMeters>
          </Trackpoint>
          <Trackpoint>
            <Time>2021-08-12T11:21:02.000Z</Time>
            <Position>
              <LatitudeDegrees>43.323633112013339996337890625</LatitudeDegrees>
              <LongitudeDegrees>-1.98499702848494052886962890625</LongitudeDegrees>
            </Position>
            <AltitudeMeters>0.20000000298023223876953125</AltitudeMeters>
            <DistanceMeters>NAN</DistanceMeters>
          </Trackpoint>
          <Trackpoint>
            <Time>2021-08-12T11:21:05.000Z</Time>
            <Position>
              <LatitudeDegrees>43.323619365692138671875</LatitudeDegrees>
              <LongitudeDegrees>-1.98497389443218708038330078125</LongitudeDegrees>
            </Position>
            <AltitudeMeters>0.20000000298023223876953125</AltitudeMeters>
            <DistanceMeters>NAN</DistanceMeters>
          </Trackpoint>
          <Trackpoint>
            <Time>2021-08-12T11:21:08.000Z</Time>
            <Position>
              <LatitudeDegrees>43.323614336550235748291015625</LatitudeDegrees>
              <LongitudeDegrees>-1.98500038124620914459228515625</LongitudeDegrees>
            </Position>
            <AltitudeMeters>0.20000000298023223876953125</AltitudeMeters>
            <DistanceMeters>NAN</DistanceMeters>
          </Trackpoint>
          <Trackpoint>
            <Time>2021-08-12T11:21:09.000Z</Time>
            <Position>
              <LatitudeDegrees>43.323606289923191070556640625</LatitudeDegrees>
              <LongitudeDegrees>-1.98501949198544025421142578125</LongitudeDegrees>
            </Position>
            <AltitudeMeters>0.20000000298023223876953125</AltitudeMeters>
            <DistanceMeters>NAN</DistanceMeters>
          </Trackpoint>
          <Trackpoint>
            <Time>2021-08-12T11:21:20.000Z</Time>
            <Position>
              <LatitudeDegrees>43.323596902191638946533203125</LatitudeDegrees>
              <LongitudeDegrees>-1.98502234183251857757568359375</LongitudeDegrees>
            </Position>
            <AltitudeMeters>0</AltitudeMeters>
            <DistanceMeters>NAN</DistanceMeters>
          </Trackpoint>
          <Trackpoint>
            <Time>2021-08-12T11:21:32.000Z</Time>
            <Position>
              <LatitudeDegrees>43.32360369153320789337158203125</LatitudeDegrees>
              <LongitudeDegrees>-1.985020078718662261962890625</LongitudeDegrees>
            </Position>
            <AltitudeMeters>0</AltitudeMeters>
            <DistanceMeters>NAN</DistanceMeters>
          </Trackpoint>
          <Trackpoint>
            <Time>2021-08-12T11:22:06.000Z</Time>
            <Position>
              <LatitudeDegrees>43.32363101653754711151123046875</LatitudeDegrees>
              <LongitudeDegrees>-1.98500490747392177581787109375</LongitudeDegrees>
            </Position>
            <AltitudeMeters>-0.20000000298023223876953125</AltitudeMeters>
            <DistanceMeters>NAN</DistanceMeters>
          </Trackpoint>
          <Trackpoint>
            <Time>2021-08-12T11:22:34.000Z</Time>
            <Position>
              <LatitudeDegrees>43.3236540667712688446044921875</LatitudeDegrees>
              <LongitudeDegrees>-1.9849890656769275665283203125</LongitudeDegrees>
            </Position>
            <AltitudeMeters>-0.20000000298023223876953125</AltitudeMeters>
            <DistanceMeters>NAN</DistanceMeters>
          </Trackpoint>
          <Trackpoint>
            <Time>2021-08-12T11:22:45.000Z</Time>
            <Position>
              <LatitudeDegrees>43.323646523058414459228515625</LatitudeDegrees>
              <LongitudeDegrees>-1.98497707955539226531982421875</LongitudeDegrees>
            </Position>
            <AltitudeMeters>0</AltitudeMeters>
            <DistanceMeters>NAN</DistanceMeters>
          </Trackpoint>
          <Trackpoint>
            <Time>2021-08-12T11:23:23.000Z</Time>
            <Position>
              <LatitudeDegrees>43.32361844368278980255126953125</LatitudeDegrees>
              <LongitudeDegrees>-1.9849096052348613739013671875</LongitudeDegrees>
            </Position>
            <AltitudeMeters>-0.20000000298023223876953125</AltitudeMeters>
            <DistanceMeters>NAN</DistanceMeters>
          </Trackpoint>
          <Trackpoint>
            <Time>2021-08-12T11:23:24.000Z</Time>
            <Position>
              <LatitudeDegrees>43.32361659966409206390380859375</LatitudeDegrees>
              <LongitudeDegrees>-1.9849065877497196197509765625</LongitudeDegrees>
            </Position>
            <AltitudeMeters>-0.20000000298023223876953125</AltitudeMeters>
            <DistanceMeters>NAN</DistanceMeters>
          </Trackpoint>
          <Trackpoint>
            <Time>2021-08-12T11:23:25.000Z</Time>
            <Position>
              <LatitudeDegrees>43.32361559383571147918701171875</LatitudeDegrees>
              <LongitudeDegrees>-1.9849008880555629730224609375</LongitudeDegrees>
            </Position>
            <AltitudeMeters>-0.20000000298023223876953125</AltitudeMeters>
            <DistanceMeters>NAN</DistanceMeters>
          </Trackpoint>
          <Trackpoint>
            <Time>2021-08-12T11:23:26.000Z</Time>
            <Position>
              <LatitudeDegrees>43.3236145041882991790771484375</LatitudeDegrees>
              <LongitudeDegrees>-1.98489862494170665740966796875</LongitudeDegrees>
            </Position>
            <AltitudeMeters>-0.20000000298023223876953125</AltitudeMeters>
            <DistanceMeters>NAN</DistanceMeters>
          </Trackpoint>
          <Trackpoint>
            <Time>2021-08-12T11:23:27.000Z</Time>
            <Position>
              <LatitudeDegrees>43.3236128278076648712158203125</LatitudeDegrees>
              <LongitudeDegrees>-1.98489812202751636505126953125</LongitudeDegrees>
            </Position>
            <AltitudeMeters>-0.20000000298023223876953125</AltitudeMeters>
            <DistanceMeters>NAN</DistanceMeters>
          </Trackpoint>
          <Trackpoint>
            <Time>2021-08-12T11:23:31.000Z</Time>
            <Position>
              <LatitudeDegrees>43.32361089996993541717529296875</LatitudeDegrees>
              <LongitudeDegrees>-1.98489778675138950347900390625</LongitudeDegrees>
            </Position>
            <AltitudeMeters>-0.20000000298023223876953125</AltitudeMeters>
            <DistanceMeters>NAN</DistanceMeters>
          </Trackpoint>
          <Trackpoint>
            <Time>2021-08-12T11:23:35.000Z</Time>
            <Position>
              <LatitudeDegrees>43.32361089996993541717529296875</LatitudeDegrees>
              <LongitudeDegrees>-1.98489778675138950347900390625</LongitudeDegrees>
            </Position>
            <AltitudeMeters>-0.20000000298023223876953125</AltitudeMeters>
            <DistanceMeters>NAN</DistanceMeters>
          </Trackpoint>
          <Trackpoint>
            <Time>2021-08-12T11:24:38.000Z</Time>
            <Position>
              <LatitudeDegrees>43.32355842925608158111572265625</LatitudeDegrees>
              <LongitudeDegrees>-1.98486258275806903839111328125</LongitudeDegrees>
            </Position>
            <AltitudeMeters>-0.4000000059604644775390625</AltitudeMeters>
            <DistanceMeters>NAN</DistanceMeters>
          </Trackpoint>
          <Trackpoint>
            <Time>2021-08-12T11:24:39.000Z</Time>
            <Position>
              <LatitudeDegrees>43.3235632069408893585205078125</LatitudeDegrees>
              <LongitudeDegrees>-1.98485336266458034515380859375</LongitudeDegrees>
            </Position>
            <AltitudeMeters>-0.4000000059604644775390625</AltitudeMeters>
            <DistanceMeters>NAN</DistanceMeters>
          </Trackpoint>
          <Trackpoint>
            <Time>2021-08-12T11:24:41.000Z</Time>
            <Position>
              <LatitudeDegrees>43.32358541898429393768310546875</LatitudeDegrees>
              <LongitudeDegrees>-1.98484917171299457550048828125</LongitudeDegrees>
            </Position>
            <AltitudeMeters>-0.60000002384185791015625</AltitudeMeters>
            <DistanceMeters>NAN</DistanceMeters>
          </Trackpoint>
          <Trackpoint>
            <Time>2021-08-12T11:24:43.000Z</Time>
            <Position>
              <LatitudeDegrees>43.3236094750463962554931640625</LatitudeDegrees>
              <LongitudeDegrees>-1.98484866879880428314208984375</LongitudeDegrees>
            </Position>
            <AltitudeMeters>-0.60000002384185791015625</AltitudeMeters>
            <DistanceMeters>NAN</DistanceMeters>
          </Trackpoint>
          <Trackpoint>
            <Time>2021-08-12T11:24:44.000Z</Time>
            <Position>
              <LatitudeDegrees>43.3236238919198513031005859375</LatitudeDegrees>
              <LongitudeDegrees>-1.9848526082932949066162109375</LongitudeDegrees>
            </Position>
            <AltitudeMeters>-0.60000002384185791015625</AltitudeMeters>
            <DistanceMeters>NAN</DistanceMeters>
          </Trackpoint>
          <Trackpoint>
            <Time>2021-08-12T11:24:47.000Z</Time>
            <Position>
              <LatitudeDegrees>43.32365113310515880584716796875</LatitudeDegrees>
              <LongitudeDegrees>-1.98488420806825160980224609375</LongitudeDegrees>
            </Position>
            <AltitudeMeters>-0.60000002384185791015625</AltitudeMeters>
            <DistanceMeters>NAN</DistanceMeters>
          </Trackpoint>
          <Trackpoint>
            <Time>2021-08-12T11:24:48.000Z</Time>
            <Position>
              <LatitudeDegrees>43.3236580900847911834716796875</LatitudeDegrees>
              <LongitudeDegrees>-1.9848950207233428955078125</LongitudeDegrees>
            </Position>
            <AltitudeMeters>-0.4000000059604644775390625</AltitudeMeters>
            <DistanceMeters>NAN</DistanceMeters>
          </Trackpoint>
          <Trackpoint>
            <Time>2021-08-12T11:24:49.000Z</Time>
            <Position>
              <LatitudeDegrees>43.323659598827362060546875</LatitudeDegrees>
              <LongitudeDegrees>-1.98489611037075519561767578125</LongitudeDegrees>
            </Position>
            <AltitudeMeters>-0.4000000059604644775390625</AltitudeMeters>
            <DistanceMeters>NAN</DistanceMeters>
          </Trackpoint>
          <Trackpoint>
            <Time>2021-08-12T11:24:50.000Z</Time>
            <Position>
              <LatitudeDegrees>43.32366152666509151458740234375</LatitudeDegrees>
              <LongitudeDegrees>-1.9848975352942943572998046875</LongitudeDegrees>
            </Position>
            <AltitudeMeters>-0.60000002384185791015625</AltitudeMeters>
            <DistanceMeters>NAN</DistanceMeters>
          </Trackpoint>
          <Trackpoint>
            <Time>2021-08-12T11:24:51.000Z</Time>
            <Position>
              <LatitudeDegrees>43.32365985028445720672607421875</LatitudeDegrees>
              <LongitudeDegrees>-1.9848992116749286651611328125</LongitudeDegrees>
            </Position>
            <AltitudeMeters>-0.60000002384185791015625</AltitudeMeters>
            <DistanceMeters>NAN</DistanceMeters>
          </Trackpoint>
          <Trackpoint>
            <Time>2021-08-12T11:25:01.000Z</Time>
            <Position>
              <LatitudeDegrees>43.3236731775104999542236328125</LatitudeDegrees>
              <LongitudeDegrees>-1.984923183917999267578125</LongitudeDegrees>
            </Position>
            <AltitudeMeters>-0.4000000059604644775390625</AltitudeMeters>
            <DistanceMeters>NAN</DistanceMeters>
          </Trackpoint>
          <Trackpoint>
            <Time>2021-08-12T11:25:30.000Z</Time>
            <Position>
              <LatitudeDegrees>43.3236743509769439697265625</LatitudeDegrees>
              <LongitudeDegrees>-1.984941959381103515625</LongitudeDegrees>
            </Position>
            <AltitudeMeters>-0.4000000059604644775390625</AltitudeMeters>
            <DistanceMeters>NAN</DistanceMeters>
          </Trackpoint>
          <Trackpoint>
            <Time>2021-08-12T11:25:32.000Z</Time>
            <Position>
              <LatitudeDegrees>43.323665298521518707275390625</LatitudeDegrees>
              <LongitudeDegrees>-1.98492310009896755218505859375</LongitudeDegrees>
            </Position>
            <AltitudeMeters>-0.4000000059604644775390625</AltitudeMeters>
            <DistanceMeters>NAN</DistanceMeters>
          </Trackpoint>
          <Trackpoint>
            <Time>2021-08-12T11:25:33.000Z</Time>
            <Position>
              <LatitudeDegrees>43.32365817390382289886474609375</LatitudeDegrees>
              <LongitudeDegrees>-1.98492293246090412139892578125</LongitudeDegrees>
            </Position>
            <AltitudeMeters>-0.4000000059604644775390625</AltitudeMeters>
            <DistanceMeters>NAN</DistanceMeters>
          </Trackpoint>
          <Trackpoint>
            <Time>2021-08-12T11:25:34.000Z</Time>
            <Position>
              <LatitudeDegrees>43.32364744506776332855224609375</LatitudeDegrees>
              <LongitudeDegrees>-1.98492913506925106048583984375</LongitudeDegrees>
            </Position>
            <AltitudeMeters>-0.4000000059604644775390625</AltitudeMeters>
            <DistanceMeters>NAN</DistanceMeters>
          </Trackpoint>
          <Trackpoint>
            <Time>2021-08-12T11:25:35.000Z</Time>
            <Position>
              <LatitudeDegrees>43.3236359618604183197021484375</LatitudeDegrees>
              <LongitudeDegrees>-1.9849340803921222686767578125</LongitudeDegrees>
            </Position>
            <AltitudeMeters>-0.4000000059604644775390625</AltitudeMeters>
            <DistanceMeters>NAN</DistanceMeters>
          </Trackpoint>
          <Trackpoint>
            <Time>2021-08-12T11:25:36.000Z</Time>
            <Position>
              <LatitudeDegrees>43.32362716086208820343017578125</LatitudeDegrees>
              <LongitudeDegrees>-1.98493567295372486114501953125</LongitudeDegrees>
            </Position>
            <AltitudeMeters>-0.4000000059604644775390625</AltitudeMeters>
            <DistanceMeters>NAN</DistanceMeters>
          </Trackpoint>
          <Trackpoint>
            <Time>2021-08-12T11:25:42.000Z</Time>
            <Position>
              <LatitudeDegrees>43.323624394834041595458984375</LatitudeDegrees>
              <LongitudeDegrees>-1.98493969626724720001220703125</LongitudeDegrees>
            </Position>
            <AltitudeMeters>-0.60000002384185791015625</AltitudeMeters>
            <DistanceMeters>NAN</DistanceMeters>
          </Trackpoint>
          <Trackpoint>
            <Time>2021-08-12T11:26:05.000Z</Time>
            <Position>
              <LatitudeDegrees>43.32360754720866680145263671875</LatitudeDegrees>
              <LongitudeDegrees>-1.98491203598678112030029296875</LongitudeDegrees>
            </Position>
            <AltitudeMeters>-0.800000011920928955078125</AltitudeMeters>
            <DistanceMeters>NAN</DistanceMeters>
          </Trackpoint>
          <Trackpoint>
            <Time>2021-08-12T11:26:06.000Z</Time>
            <Position>
              <LatitudeDegrees>43.3236041106283664703369140625</LatitudeDegrees>
              <LongitudeDegrees>-1.98489979840815067291259765625</LongitudeDegrees>
            </Position>
            <AltitudeMeters>-0.800000011920928955078125</AltitudeMeters>
            <DistanceMeters>NAN</DistanceMeters>
          </Trackpoint>
          <Trackpoint>
            <Time>2021-08-12T11:26:07.000Z</Time>
            <Position>
              <LatitudeDegrees>43.323601596057415008544921875</LatitudeDegrees>
              <LongitudeDegrees>-1.98488764464855194091796875</LongitudeDegrees>
            </Position>
            <AltitudeMeters>-0.800000011920928955078125</AltitudeMeters>
            <DistanceMeters>NAN</DistanceMeters>
          </Trackpoint>
          <Trackpoint>
            <Time>2021-08-12T11:26:08.000Z</Time>
            <Position>
              <LatitudeDegrees>43.32359966821968555450439453125</LatitudeDegrees>
              <LongitudeDegrees>-1.9848774187266826629638671875</LongitudeDegrees>
            </Position>
            <AltitudeMeters>-0.800000011920928955078125</AltitudeMeters>
            <DistanceMeters>NAN</DistanceMeters>
          </Trackpoint>
          <Trackpoint>
            <Time>2021-08-12T11:26:09.000Z</Time>
            <Position>
              <LatitudeDegrees>43.32359883002936840057373046875</LatitudeDegrees>
              <LongitudeDegrees>-1.9848680309951305389404296875</LongitudeDegrees>
            </Position>
            <AltitudeMeters>-0.800000011920928955078125</AltitudeMeters>
            <DistanceMeters>NAN</DistanceMeters>
          </Trackpoint>
          <Trackpoint>
            <Time>2021-08-12T11:26:12.000Z</Time>
            <Position>
              <LatitudeDegrees>43.32359631545841693878173828125</LatitudeDegrees>
              <LongitudeDegrees>-1.98483458720147609710693359375</LongitudeDegrees>
            </Position>
            <AltitudeMeters>-0.60000002384185791015625</AltitudeMeters>
            <DistanceMeters>NAN</DistanceMeters>
          </Trackpoint>
          <Trackpoint>
            <Time>2021-08-12T11:26:13.000Z</Time>
            <Position>
              <LatitudeDegrees>43.32359589636325836181640625</LatitudeDegrees>
              <LongitudeDegrees>-1.98482788167893886566162109375</LongitudeDegrees>
            </Position>
            <AltitudeMeters>-0.60000002384185791015625</AltitudeMeters>
            <DistanceMeters>NAN</DistanceMeters>
          </Trackpoint>
          <Trackpoint>
            <Time>2021-08-12T11:26:18.000Z</Time>
            <Position>
              <LatitudeDegrees>43.32359078340232372283935546875</LatitudeDegrees>
              <LongitudeDegrees>-1.98478094302117824554443359375</LongitudeDegrees>
            </Position>
            <AltitudeMeters>-0.60000002384185791015625</AltitudeMeters>
            <DistanceMeters>NAN</DistanceMeters>
          </Trackpoint>
          <Trackpoint>
            <Time>2021-08-12T11:26:21.000Z</Time>
            <Position>
              <LatitudeDegrees>43.3235831558704376220703125</LatitudeDegrees>
              <LongitudeDegrees>-1.98475227691233158111572265625</LongitudeDegrees>
            </Position>
            <AltitudeMeters>-0.60000002384185791015625</AltitudeMeters>
            <DistanceMeters>NAN</DistanceMeters>
          </Trackpoint>
          <Trackpoint>
            <Time>2021-08-12T11:26:22.000Z</Time>
            <Position>
              <LatitudeDegrees>43.32358307205140590667724609375</LatitudeDegrees>
              <LongitudeDegrees>-1.98474305681884288787841796875</LongitudeDegrees>
            </Position>
            <AltitudeMeters>-0.60000002384185791015625</AltitudeMeters>
            <DistanceMeters>NAN</DistanceMeters>
          </Trackpoint>
          <Trackpoint>
            <Time>2021-08-12T11:26:23.000Z</Time>
            <Position>
              <LatitudeDegrees>43.32358424551784992218017578125</LatitudeDegrees>
              <LongitudeDegrees>-1.984734423458576202392578125</LongitudeDegrees>
            </Position>
            <AltitudeMeters>-0.60000002384185791015625</AltitudeMeters>
            <DistanceMeters>NAN</DistanceMeters>
          </Trackpoint>
          <Trackpoint>
            <Time>2021-08-12T11:26:27.000Z</Time>
            <Position>
              <LatitudeDegrees>43.3235766179859638214111328125</LatitudeDegrees>
              <LongitudeDegrees>-1.9847101159393787384033203125</LongitudeDegrees>
            </Position>
            <AltitudeMeters>-0.60000002384185791015625</AltitudeMeters>
            <DistanceMeters>NAN</DistanceMeters>
          </Trackpoint>
          <Trackpoint>
            <Time>2021-08-12T11:26:29.000Z</Time>
            <Position>
              <LatitudeDegrees>43.32357318140566349029541015625</LatitudeDegrees>
              <LongitudeDegrees>-1.9847044162452220916748046875</LongitudeDegrees>
            </Position>
            <AltitudeMeters>-0.60000002384185791015625</AltitudeMeters>
            <DistanceMeters>NAN</DistanceMeters>
          </Trackpoint>
          <Trackpoint>
            <Time>2021-08-12T11:26:30.000Z</Time>
            <Position>
              <LatitudeDegrees>43.32357016392052173614501953125</LatitudeDegrees>
              <LongitudeDegrees>-1.9846997223794460296630859375</LongitudeDegrees>
            </Position>
            <AltitudeMeters>-0.60000002384185791015625</AltitudeMeters>
            <DistanceMeters>NAN</DistanceMeters>
          </Trackpoint>
          <Trackpoint>
            <Time>2021-08-12T11:26:31.000Z</Time>
            <Position>
              <LatitudeDegrees>43.32356899045407772064208984375</LatitudeDegrees>
              <LongitudeDegrees>-1.98469008319079875946044921875</LongitudeDegrees>
            </Position>
            <AltitudeMeters>-0.60000002384185791015625</AltitudeMeters>
            <DistanceMeters>NAN</DistanceMeters>
          </Trackpoint>
          <Trackpoint>
            <Time>2021-08-12T11:26:32.000Z</Time>
            <Position>
              <LatitudeDegrees>43.32356932573020458221435546875</LatitudeDegrees>
              <LongitudeDegrees>-1.98467935435473918914794921875</LongitudeDegrees>
            </Position>
            <AltitudeMeters>-0.60000002384185791015625</AltitudeMeters>
            <DistanceMeters>NAN</DistanceMeters>
          </Trackpoint>
          <Trackpoint>
            <Time>2021-08-12T11:26:33.000Z</Time>
            <Position>
              <LatitudeDegrees>43.32356773316860198974609375</LatitudeDegrees>
              <LongitudeDegrees>-1.98467315174639225006103515625</LongitudeDegrees>
            </Position>
            <AltitudeMeters>-0.60000002384185791015625</AltitudeMeters>
            <DistanceMeters>NAN</DistanceMeters>
          </Trackpoint>
          <Trackpoint>
            <Time>2021-08-12T11:26:34.000Z</Time>
            <Position>
              <LatitudeDegrees>43.323568738996982574462890625</LatitudeDegrees>
              <LongitudeDegrees>-1.9846712239086627960205078125</LongitudeDegrees>
            </Position>
            <AltitudeMeters>-0.800000011920928955078125</AltitudeMeters>
            <DistanceMeters>NAN</DistanceMeters>
          </Trackpoint>
          <Trackpoint>
            <Time>2021-08-12T11:26:35.000Z</Time>
            <Position>
              <LatitudeDegrees>43.32356932573020458221435546875</LatitudeDegrees>
              <LongitudeDegrees>-1.98466929607093334197998046875</LongitudeDegrees>
            </Position>
            <AltitudeMeters>-0.800000011920928955078125</AltitudeMeters>
            <DistanceMeters>NAN</DistanceMeters>
          </Trackpoint>
          <Trackpoint>
            <Time>2021-08-12T11:26:36.000Z</Time>
            <Position>
              <LatitudeDegrees>43.32356882281601428985595703125</LatitudeDegrees>
              <LongitudeDegrees>-1.9846661947667598724365234375</LongitudeDegrees>
            </Position>
            <AltitudeMeters>-0.800000011920928955078125</AltitudeMeters>
            <DistanceMeters>NAN</DistanceMeters>
          </Trackpoint>
          <Trackpoint>
            <Time>2021-08-12T11:26:37.000Z</Time>
            <Position>
              <LatitudeDegrees>43.3235692419111728668212890625</LatitudeDegrees>
              <LongitudeDegrees>-1.98466896079480648040771484375</LongitudeDegrees>
            </Position>
            <AltitudeMeters>-0.800000011920928955078125</AltitudeMeters>
            <DistanceMeters>NAN</DistanceMeters>
          </Trackpoint>
          <Trackpoint>
            <Time>2021-08-12T11:26:39.000Z</Time>
            <Position>
              <LatitudeDegrees>43.32356127910315990447998046875</LatitudeDegrees>
              <LongitudeDegrees>-1.9846792705357074737548828125</LongitudeDegrees>
            </Position>
            <AltitudeMeters>-0.800000011920928955078125</AltitudeMeters>
            <DistanceMeters>NAN</DistanceMeters>
          </Trackpoint>
          <Trackpoint>
            <Time>2021-08-12T11:26:41.000Z</Time>
            <Position>
              <LatitudeDegrees>43.32356530241668224334716796875</LatitudeDegrees>
              <LongitudeDegrees>-1.98468103073537349700927734375</LongitudeDegrees>
            </Position>
            <AltitudeMeters>-1</AltitudeMeters>
            <DistanceMeters>NAN</DistanceMeters>
          </Trackpoint>
          <Trackpoint>
            <Time>2021-08-12T11:26:42.000Z</Time>
            <Position>
              <LatitudeDegrees>43.32356949336826801300048828125</LatitudeDegrees>
              <LongitudeDegrees>-1.98468119837343692779541015625</LongitudeDegrees>
            </Position>
            <AltitudeMeters>-1</AltitudeMeters>
            <DistanceMeters>NAN</DistanceMeters>
          </Trackpoint>
          <Trackpoint>
            <Time>2021-08-12T11:26:43.000Z</Time>
            <Position>
              <LatitudeDegrees>43.323575444519519805908203125</LatitudeDegrees>
              <LongitudeDegrees>-1.98468170128762722015380859375</LongitudeDegrees>
            </Position>
            <AltitudeMeters>-1</AltitudeMeters>
            <DistanceMeters>NAN</DistanceMeters>
          </Trackpoint>
          <Trackpoint>
            <Time>2021-08-12T11:26:48.000Z</Time>
            <Position>
              <LatitudeDegrees>43.3236265741288661956787109375</LatitudeDegrees>
              <LongitudeDegrees>-1.98458078317344188690185546875</LongitudeDegrees>
            </Position>
            <AltitudeMeters>-1</AltitudeMeters>
            <DistanceMeters>NAN</DistanceMeters>
          </Trackpoint>
          <Trackpoint>
            <Time>2021-08-12T11:26:50.000Z</Time>
            <Position>
              <LatitudeDegrees>43.32363612949848175048828125</LatitudeDegrees>
              <LongitudeDegrees>-1.98456301353871822357177734375</LongitudeDegrees>
            </Position>
            <AltitudeMeters>-1</AltitudeMeters>
            <DistanceMeters>NAN</DistanceMeters>
          </Trackpoint>
          <Trackpoint>
            <Time>2021-08-12T11:26:51.000Z</Time>
            <Position>
              <LatitudeDegrees>43.3236406557261943817138671875</LatitudeDegrees>
              <LongitudeDegrees>-1.98454163968563079833984375</LongitudeDegrees>
            </Position>
            <AltitudeMeters>-1</AltitudeMeters>
            <DistanceMeters>NAN</DistanceMeters>
          </Trackpoint>
          <Trackpoint>
            <Time>2021-08-12T11:26:52.000Z</Time>
            <Position>
              <LatitudeDegrees>43.3236443437635898590087890625</LatitudeDegrees>
              <LongitudeDegrees>-1.98452244512736797332763671875</LongitudeDegrees>
            </Position>
            <AltitudeMeters>-1</AltitudeMeters>
            <DistanceMeters>NAN</DistanceMeters>
          </Trackpoint>
          <Trackpoint>
            <Time>2021-08-12T11:26:57.000Z</Time>
            <Position>
              <LatitudeDegrees>43.32365130074322223663330078125</LatitudeDegrees>
              <LongitudeDegrees>-1.98441817425191402435302734375</LongitudeDegrees>
            </Position>
            <AltitudeMeters>-1</AltitudeMeters>
            <DistanceMeters>NAN</DistanceMeters>
          </Trackpoint>
          <Trackpoint>
            <Time>2021-08-12T11:26:59.000Z</Time>
            <Position>
              <LatitudeDegrees>43.3236309327185153961181640625</LatitudeDegrees>
              <LongitudeDegrees>-1.98439101688563823699951171875</LongitudeDegrees>
            </Position>
            <AltitudeMeters>-1</AltitudeMeters>
            <DistanceMeters>NAN</DistanceMeters>
          </Trackpoint>
          <Trackpoint>
            <Time>2021-08-12T11:27:00.000Z</Time>
            <Position>
              <LatitudeDegrees>43.32363235764205455780029296875</LatitudeDegrees>
              <LongitudeDegrees>-1.9843822158873081207275390625</LongitudeDegrees>
            </Position>
            <AltitudeMeters>-1</AltitudeMeters>
            <DistanceMeters>NAN</DistanceMeters>
          </Trackpoint>
          <Trackpoint>
            <Time>2021-08-12T11:27:03.000Z</Time>
            <Position>
              <LatitudeDegrees>43.3236346207559108734130859375</LatitudeDegrees>
              <LongitudeDegrees>-1.9843631051480770111083984375</LongitudeDegrees>
            </Position>
            <AltitudeMeters>-1</AltitudeMeters>
            <DistanceMeters>NAN</DistanceMeters>
          </Trackpoint>
          <Trackpoint>
            <Time>2021-08-12T11:27:04.000Z</Time>
            <Position>
              <LatitudeDegrees>43.32363604567945003509521484375</LatitudeDegrees>
              <LongitudeDegrees>-1.9843570701777935028076171875</LongitudeDegrees>
            </Position>
            <AltitudeMeters>-1</AltitudeMeters>
            <DistanceMeters>NAN</DistanceMeters>
          </Trackpoint>
          <Trackpoint>
            <Time>2021-08-12T11:27:05.000Z</Time>
            <Position>
              <LatitudeDegrees>43.3236373029649257659912109375</LatitudeDegrees>
              <LongitudeDegrees>-1.98435296304523944854736328125</LongitudeDegrees>
            </Position>
            <AltitudeMeters>-1</AltitudeMeters>
            <DistanceMeters>NAN</DistanceMeters>
          </Trackpoint>
          <Trackpoint>
            <Time>2021-08-12T11:27:13.000Z</Time>
            <Position>
              <LatitudeDegrees>43.3236356265842914581298828125</LatitudeDegrees>
              <LongitudeDegrees>-1.98432035744190216064453125</LongitudeDegrees>
            </Position>
            <AltitudeMeters>-1</AltitudeMeters>
            <DistanceMeters>NAN</DistanceMeters>
          </Trackpoint>
          <Trackpoint>
            <Time>2021-08-12T11:27:19.000Z</Time>
            <Position>
              <LatitudeDegrees>43.32362674176692962646484375</LatitudeDegrees>
              <LongitudeDegrees>-1.98433653451502323150634765625</LongitudeDegrees>
            </Position>
            <AltitudeMeters>-1.39999997615814208984375</AltitudeMeters>
            <DistanceMeters>NAN</DistanceMeters>
          </Trackpoint>
          <Trackpoint>
            <Time>2021-08-12T11:27:27.000Z</Time>
            <Position>
              <LatitudeDegrees>43.32363076508045196533203125</LatitudeDegrees>
              <LongitudeDegrees>-1.98428942821919918060302734375</LongitudeDegrees>
            </Position>
            <AltitudeMeters>-1.60000002384185791015625</AltitudeMeters>
            <DistanceMeters>NAN</DistanceMeters>
          </Trackpoint>
          <Trackpoint>
            <Time>2021-08-12T11:27:29.000Z</Time>
            <Position>
              <LatitudeDegrees>43.32363017834722995758056640625</LatitudeDegrees>
              <LongitudeDegrees>-1.98428791947662830352783203125</LongitudeDegrees>
            </Position>
            <AltitudeMeters>-1.60000002384185791015625</AltitudeMeters>
            <DistanceMeters>NAN</DistanceMeters>
          </Trackpoint>
          <Trackpoint>
            <Time>2021-08-12T11:27:35.000Z</Time>
            <Position>
              <LatitudeDegrees>43.32364526577293872833251953125</LatitudeDegrees>
              <LongitudeDegrees>-1.9842300005257129669189453125</LongitudeDegrees>
            </Position>
            <AltitudeMeters>-1.60000002384185791015625</AltitudeMeters>
            <DistanceMeters>NAN</DistanceMeters>
          </Trackpoint>
          <Trackpoint>
            <Time>2021-08-12T11:27:36.000Z</Time>
            <Position>
              <LatitudeDegrees>43.32364861853420734405517578125</LatitudeDegrees>
              <LongitudeDegrees>-1.98422723449766635894775390625</LongitudeDegrees>
            </Position>
            <AltitudeMeters>-1.60000002384185791015625</AltitudeMeters>
            <DistanceMeters>NAN</DistanceMeters>
          </Trackpoint>
          <Trackpoint>
            <Time>2021-08-12T11:27:38.000Z</Time>
            <Position>
              <LatitudeDegrees>43.3236515522003173828125</LatitudeDegrees>
              <LongitudeDegrees>-1.98422052897512912750244140625</LongitudeDegrees>
            </Position>
            <AltitudeMeters>-1.60000002384185791015625</AltitudeMeters>
            <DistanceMeters>NAN</DistanceMeters>
          </Trackpoint>
          <Trackpoint>
            <Time>2021-08-12T11:27:40.000Z</Time>
            <Position>
              <LatitudeDegrees>43.32364392466843128204345703125</LatitudeDegrees>
              <LongitudeDegrees>-1.98421415872871875762939453125</LongitudeDegrees>
            </Position>
            <AltitudeMeters>-1.60000002384185791015625</AltitudeMeters>
            <DistanceMeters>NAN</DistanceMeters>
          </Trackpoint>
          <Trackpoint>
            <Time>2021-08-12T11:27:45.000Z</Time>
            <Position>
              <LatitudeDegrees>43.3236510492861270904541015625</LatitudeDegrees>
              <LongitudeDegrees>-1.98416939936578273773193359375</LongitudeDegrees>
            </Position>
            <AltitudeMeters>-1.60000002384185791015625</AltitudeMeters>
            <DistanceMeters>NAN</DistanceMeters>
          </Trackpoint>
          <Trackpoint>
            <Time>2021-08-12T11:27:46.000Z</Time>
            <Position>
              <LatitudeDegrees>43.32365264184772968292236328125</LatitudeDegrees>
              <LongitudeDegrees>-1.9841629453003406524658203125</LongitudeDegrees>
            </Position>
            <AltitudeMeters>-1.60000002384185791015625</AltitudeMeters>
            <DistanceMeters>NAN</DistanceMeters>
          </Trackpoint>
          <Trackpoint>
            <Time>2021-08-12T11:27:53.000Z</Time>
            <Position>
              <LatitudeDegrees>43.32364685833454132080078125</LatitudeDegrees>
              <LongitudeDegrees>-1.98409278877079486846923828125</LongitudeDegrees>
            </Position>
            <AltitudeMeters>-1.60000002384185791015625</AltitudeMeters>
            <DistanceMeters>NAN</DistanceMeters>
          </Trackpoint>
          <Trackpoint>
            <Time>2021-08-12T11:28:04.000Z</Time>
            <Position>
              <LatitudeDegrees>43.32362766377627849578857421875</LatitudeDegrees>
              <LongitudeDegrees>-1.98400159366428852081298828125</LongitudeDegrees>
            </Position>
            <AltitudeMeters>-1.60000002384185791015625</AltitudeMeters>
            <DistanceMeters>NAN</DistanceMeters>
          </Trackpoint>
          <Trackpoint>
            <Time>2021-08-12T11:28:18.000Z</Time>
            <Position>
              <LatitudeDegrees>43.3235860057175159454345703125</LatitudeDegrees>
              <LongitudeDegrees>-1.98395314626395702362060546875</LongitudeDegrees>
            </Position>
            <AltitudeMeters>-1.7999999523162841796875</AltitudeMeters>
            <DistanceMeters>NAN</DistanceMeters>
          </Trackpoint>
          <Trackpoint>
            <Time>2021-08-12T11:28:31.000Z</Time>
            <Position>
              <LatitudeDegrees>43.32358877174556255340576171875</LatitudeDegrees>
              <LongitudeDegrees>-1.98395566083490848541259765625</LongitudeDegrees>
            </Position>
            <AltitudeMeters>-1.7999999523162841796875</AltitudeMeters>
            <DistanceMeters>NAN</DistanceMeters>
          </Trackpoint>
          <Trackpoint>
            <Time>2021-08-12T11:29:12.000Z</Time>
            <Position>
              <LatitudeDegrees>43.32362565211951732635498046875</LatitudeDegrees>
              <LongitudeDegrees>-1.98396739549934864044189453125</LongitudeDegrees>
            </Position>
            <AltitudeMeters>-1.7999999523162841796875</AltitudeMeters>
            <DistanceMeters>NAN</DistanceMeters>
          </Trackpoint>
          <Trackpoint>
            <Time>2021-08-12T11:30:37.000Z</Time>
            <Position>
              <LatitudeDegrees>43.323673345148563385009765625</LatitudeDegrees>
              <LongitudeDegrees>-1.9840288348495960235595703125</LongitudeDegrees>
            </Position>
            <AltitudeMeters>-2.2000000476837158203125</AltitudeMeters>
            <DistanceMeters>NAN</DistanceMeters>
          </Trackpoint>
          <Trackpoint>
            <Time>2021-08-12T11:30:52.000Z</Time>
            <Position>
              <LatitudeDegrees>43.32366320304572582244873046875</LatitudeDegrees>
              <LongitudeDegrees>-1.9840248115360736846923828125</LongitudeDegrees>
            </Position>
            <AltitudeMeters>-2</AltitudeMeters>
            <DistanceMeters>NAN</DistanceMeters>
          </Trackpoint>
          <Trackpoint>
            <Time>2021-08-12T11:30:59.000Z</Time>
            <Position>
              <LatitudeDegrees>43.32365230657160282135009765625</LatitudeDegrees>
              <LongitudeDegrees>-1.9840217940509319305419921875</LongitudeDegrees>
            </Position>
            <AltitudeMeters>-2.2000000476837158203125</AltitudeMeters>
            <DistanceMeters>NAN</DistanceMeters>
          </Trackpoint>
          <Trackpoint>
            <Time>2021-08-12T11:31:21.000Z</Time>
            <Position>
              <LatitudeDegrees>43.32366907037794589996337890625</LatitudeDegrees>
              <LongitudeDegrees>-1.9840251468122005462646484375</LongitudeDegrees>
            </Position>
            <AltitudeMeters>-2.400000095367431640625</AltitudeMeters>
            <DistanceMeters>NAN</DistanceMeters>
          </Trackpoint>
          <Trackpoint>
            <Time>2021-08-12T11:32:11.000Z</Time>
            <Position>
              <LatitudeDegrees>43.32367560826241970062255859375</LatitudeDegrees>
              <LongitudeDegrees>-1.9840358756482601165771484375</LongitudeDegrees>
            </Position>
            <AltitudeMeters>-2.599999904632568359375</AltitudeMeters>
            <DistanceMeters>NAN</DistanceMeters>
          </Trackpoint>
          <Trackpoint>
            <Time>2021-08-12T11:32:20.000Z</Time>
            <Position>
              <LatitudeDegrees>43.3236969821155071258544921875</LatitudeDegrees>
              <LongitudeDegrees>-1.9840234704315662384033203125</LongitudeDegrees>
            </Position>
            <AltitudeMeters>-2.599999904632568359375</AltitudeMeters>
            <DistanceMeters>NAN</DistanceMeters>
          </Trackpoint>
          <Trackpoint>
            <Time>2021-08-12T11:32:21.000Z</Time>
            <Position>
              <LatitudeDegrees>43.32370427437126636505126953125</LatitudeDegrees>
              <LongitudeDegrees>-1.9840181060135364532470703125</LongitudeDegrees>
            </Position>
            <AltitudeMeters>-2.599999904632568359375</AltitudeMeters>
            <DistanceMeters>NAN</DistanceMeters>
          </Trackpoint>
          <Trackpoint>
            <Time>2021-08-12T11:32:22.000Z</Time>
            <Position>
              <LatitudeDegrees>43.32371282391250133514404296875</LatitudeDegrees>
              <LongitudeDegrees>-1.98401953093707561492919921875</LongitudeDegrees>
            </Position>
            <AltitudeMeters>-2.599999904632568359375</AltitudeMeters>
            <DistanceMeters>NAN</DistanceMeters>
          </Trackpoint>
          <Trackpoint>
            <Time>2021-08-12T11:32:23.000Z</Time>
            <Position>
              <LatitudeDegrees>43.32371927797794342041015625</LatitudeDegrees>
              <LongitudeDegrees>-1.9840221293270587921142578125</LongitudeDegrees>
            </Position>
            <AltitudeMeters>-2.599999904632568359375</AltitudeMeters>
            <DistanceMeters>NAN</DistanceMeters>
          </Trackpoint>
          <Trackpoint>
            <Time>2021-08-12T11:32:24.000Z</Time>
            <Position>
              <LatitudeDegrees>43.32372556440532207489013671875</LatitudeDegrees>
              <LongitudeDegrees>-1.9840211234986782073974609375</LongitudeDegrees>
            </Position>
            <AltitudeMeters>-2.599999904632568359375</AltitudeMeters>
            <DistanceMeters>NAN</DistanceMeters>
          </Trackpoint>
          <Trackpoint>
            <Time>2021-08-12T11:32:25.000Z</Time>
            <Position>
              <LatitudeDegrees>43.32373864017426967620849609375</LatitudeDegrees>
              <LongitudeDegrees>-1.98402103967964649200439453125</LongitudeDegrees>
            </Position>
            <AltitudeMeters>-2.599999904632568359375</AltitudeMeters>
            <DistanceMeters>NAN</DistanceMeters>
          </Trackpoint>
          <Trackpoint>
            <Time>2021-08-12T11:32:26.000Z</Time>
            <Position>
              <LatitudeDegrees>43.323746435344219207763671875</LatitudeDegrees>
              <LongitudeDegrees>-1.98401818983256816864013671875</LongitudeDegrees>
            </Position>
            <AltitudeMeters>-2.599999904632568359375</AltitudeMeters>
            <DistanceMeters>NAN</DistanceMeters>
          </Trackpoint>
          <Trackpoint>
            <Time>2021-08-12T11:32:28.000Z</Time>
            <Position>
              <LatitudeDegrees>43.323761187493801116943359375</LatitudeDegrees>
              <LongitudeDegrees>-1.98401064611971378326416015625</LongitudeDegrees>
            </Position>
            <AltitudeMeters>-2.599999904632568359375</AltitudeMeters>
            <DistanceMeters>NAN</DistanceMeters>
          </Trackpoint>
          <Trackpoint>
            <Time>2021-08-12T11:32:29.000Z</Time>
            <Position>
              <LatitudeDegrees>43.3237687312066555023193359375</LatitudeDegrees>
              <LongitudeDegrees>-1.98399773798882961273193359375</LongitudeDegrees>
            </Position>
            <AltitudeMeters>-2.599999904632568359375</AltitudeMeters>
            <DistanceMeters>NAN</DistanceMeters>
          </Trackpoint>
          <Trackpoint>
            <Time>2021-08-12T11:32:30.000Z</Time>
            <Position>
              <LatitudeDegrees>43.32377702929079532623291015625</LatitudeDegrees>
              <LongitudeDegrees>-1.98398231528699398040771484375</LongitudeDegrees>
            </Position>
            <AltitudeMeters>-2.599999904632568359375</AltitudeMeters>
            <DistanceMeters>NAN</DistanceMeters>
          </Trackpoint>
          <Trackpoint>
            <Time>2021-08-12T11:32:31.000Z</Time>
            <Position>
              <LatitudeDegrees>43.32378205843269824981689453125</LatitudeDegrees>
              <LongitudeDegrees>-1.983979381620883941650390625</LongitudeDegrees>
            </Position>
            <AltitudeMeters>-2.599999904632568359375</AltitudeMeters>
            <DistanceMeters>NAN</DistanceMeters>
          </Trackpoint>
          <Trackpoint>
            <Time>2021-08-12T11:32:32.000Z</Time>
            <Position>
              <LatitudeDegrees>43.32379178144037723541259765625</LatitudeDegrees>
              <LongitudeDegrees>-1.98397594504058361053466796875</LongitudeDegrees>
            </Position>
            <AltitudeMeters>-2.599999904632568359375</AltitudeMeters>
            <DistanceMeters>NAN</DistanceMeters>
          </Trackpoint>
          <Trackpoint>
            <Time>2021-08-12T11:32:33.000Z</Time>
            <Position>
              <LatitudeDegrees>43.323799408972263336181640625</LatitudeDegrees>
              <LongitudeDegrees>-1.98397091589868068695068359375</LongitudeDegrees>
            </Position>
            <AltitudeMeters>-2.599999904632568359375</AltitudeMeters>
            <DistanceMeters>NAN</DistanceMeters>
          </Trackpoint>
          <Trackpoint>
            <Time>2021-08-12T11:32:34.000Z</Time>
            <Position>
              <LatitudeDegrees>43.32380653358995914459228515625</LatitudeDegrees>
              <LongitudeDegrees>-1.9839567504823207855224609375</LongitudeDegrees>
            </Position>
            <AltitudeMeters>-2.599999904632568359375</AltitudeMeters>
            <DistanceMeters>NAN</DistanceMeters>
          </Trackpoint>
          <Trackpoint>
            <Time>2021-08-12T11:32:35.000Z</Time>
            <Position>
              <LatitudeDegrees>43.32380703650414943695068359375</LatitudeDegrees>
              <LongitudeDegrees>-1.98393680155277252197265625</LongitudeDegrees>
            </Position>
            <AltitudeMeters>-2.599999904632568359375</AltitudeMeters>
            <DistanceMeters>NAN</DistanceMeters>
          </Trackpoint>
          <Trackpoint>
            <Time>2021-08-12T11:32:37.000Z</Time>
            <Position>
              <LatitudeDegrees>43.323808796703815460205078125</LatitudeDegrees>
              <LongitudeDegrees>-1.98389329947531223297119140625</LongitudeDegrees>
            </Position>
            <AltitudeMeters>-2.599999904632568359375</AltitudeMeters>
            <DistanceMeters>NAN</DistanceMeters>
          </Trackpoint>
          <Trackpoint>
            <Time>2021-08-12T11:32:38.000Z</Time>
            <Position>
              <LatitudeDegrees>43.32381156273186206817626953125</LatitudeDegrees>
              <LongitudeDegrees>-1.98388089425861835479736328125</LongitudeDegrees>
            </Position>
            <AltitudeMeters>-2.599999904632568359375</AltitudeMeters>
            <DistanceMeters>NAN</DistanceMeters>
          </Trackpoint>
          <Trackpoint>
            <Time>2021-08-12T11:32:42.000Z</Time>
            <Position>
              <LatitudeDegrees>43.32381508313119411468505859375</LatitudeDegrees>
              <LongitudeDegrees>-1.98381953872740268707275390625</LongitudeDegrees>
            </Position>
            <AltitudeMeters>-2.599999904632568359375</AltitudeMeters>
            <DistanceMeters>NAN</DistanceMeters>
          </Trackpoint>
          <Trackpoint>
            <Time>2021-08-12T11:32:43.000Z</Time>
            <Position>
              <LatitudeDegrees>43.32381893880665302276611328125</LatitudeDegrees>
              <LongitudeDegrees>-1.9838140904903411865234375</LongitudeDegrees>
            </Position>
            <AltitudeMeters>-2.599999904632568359375</AltitudeMeters>
            <DistanceMeters>NAN</DistanceMeters>
          </Trackpoint>
          <Trackpoint>
            <Time>2021-08-12T11:32:44.000Z</Time>
            <Position>
              <LatitudeDegrees>43.323819525539875030517578125</LatitudeDegrees>
              <LongitudeDegrees>-1.98380478657782077789306640625</LongitudeDegrees>
            </Position>
            <AltitudeMeters>-2.7999999523162841796875</AltitudeMeters>
            <DistanceMeters>NAN</DistanceMeters>
          </Trackpoint>
          <Trackpoint>
            <Time>2021-08-12T11:32:45.000Z</Time>
            <Position>
              <LatitudeDegrees>43.3238257281482219696044921875</LatitudeDegrees>
              <LongitudeDegrees>-1.98379472829401493072509765625</LongitudeDegrees>
            </Position>
            <AltitudeMeters>-2.7999999523162841796875</AltitudeMeters>
            <DistanceMeters>NAN</DistanceMeters>
          </Trackpoint>
          <Trackpoint>
            <Time>2021-08-12T11:32:46.000Z</Time>
            <Position>
              <LatitudeDegrees>43.32383587025105953216552734375</LatitudeDegrees>
              <LongitudeDegrees>-1.98378534056246280670166015625</LongitudeDegrees>
            </Position>
            <AltitudeMeters>-2.7999999523162841796875</AltitudeMeters>
            <DistanceMeters>NAN</DistanceMeters>
          </Trackpoint>
          <Trackpoint>
            <Time>2021-08-12T11:32:47.000Z</Time>
            <Position>
              <LatitudeDegrees>43.32383327186107635498046875</LatitudeDegrees>
              <LongitudeDegrees>-1.9837780483067035675048828125</LongitudeDegrees>
            </Position>
            <AltitudeMeters>-2.7999999523162841796875</AltitudeMeters>
            <DistanceMeters>NAN</DistanceMeters>
          </Trackpoint>
          <Trackpoint>
            <Time>2021-08-12T11:32:48.000Z</Time>
            <Position>
              <LatitudeDegrees>43.3238213695585727691650390625</LatitudeDegrees>
              <LongitudeDegrees>-1.98375851847231388092041015625</LongitudeDegrees>
            </Position>
            <AltitudeMeters>-2.7999999523162841796875</AltitudeMeters>
            <DistanceMeters>NAN</DistanceMeters>
          </Trackpoint>
          <Trackpoint>
            <Time>2021-08-12T11:32:49.000Z</Time>
            <Position>
              <LatitudeDegrees>43.3238230459392070770263671875</LatitudeDegrees>
              <LongitudeDegrees>-1.983739994466304779052734375</LongitudeDegrees>
            </Position>
            <AltitudeMeters>-2.7999999523162841796875</AltitudeMeters>
            <DistanceMeters>NAN</DistanceMeters>
          </Trackpoint>
          <Trackpoint>
            <Time>2021-08-12T11:32:50.000Z</Time>
            <Position>
              <LatitudeDegrees>43.32381810061633586883544921875</LatitudeDegrees>
              <LongitudeDegrees>-1.98372088372707366943359375</LongitudeDegrees>
            </Position>
            <AltitudeMeters>-2.7999999523162841796875</AltitudeMeters>
            <DistanceMeters>NAN</DistanceMeters>
          </Trackpoint>
          <Trackpoint>
            <Time>2021-08-12T11:32:54.000Z</Time>
            <Position>
              <LatitudeDegrees>43.32382329739630222320556640625</LatitudeDegrees>
              <LongitudeDegrees>-1.98365642689168453216552734375</LongitudeDegrees>
            </Position>
            <AltitudeMeters>-2.7999999523162841796875</AltitudeMeters>
            <DistanceMeters>NAN</DistanceMeters>
          </Trackpoint>
          <Trackpoint>
            <Time>2021-08-12T11:32:55.000Z</Time>
            <Position>
              <LatitudeDegrees>43.32382262684404850006103515625</LatitudeDegrees>
              <LongitudeDegrees>-1.98364217765629291534423828125</LongitudeDegrees>
            </Position>
            <AltitudeMeters>-2.7999999523162841796875</AltitudeMeters>
            <DistanceMeters>NAN</DistanceMeters>
          </Trackpoint>
          <Trackpoint>
            <Time>2021-08-12T11:32:59.000Z</Time>
            <Position>
              <LatitudeDegrees>43.32384877838194370269775390625</LatitudeDegrees>
              <LongitudeDegrees>-1.983582079410552978515625</LongitudeDegrees>
            </Position>
            <AltitudeMeters>-2.7999999523162841796875</AltitudeMeters>
            <DistanceMeters>NAN</DistanceMeters>
          </Trackpoint>
          <Trackpoint>
            <Time>2021-08-12T11:33:00.000Z</Time>
            <Position>
              <LatitudeDegrees>43.3238555677235126495361328125</LatitudeDegrees>
              <LongitudeDegrees>-1.9835731945931911468505859375</LongitudeDegrees>
            </Position>
            <AltitudeMeters>-2.7999999523162841796875</AltitudeMeters>
            <DistanceMeters>NAN</DistanceMeters>
          </Trackpoint>
          <Trackpoint>
            <Time>2021-08-12T11:33:01.000Z</Time>
            <Position>
              <LatitudeDegrees>43.3238609321415424346923828125</LatitudeDegrees>
              <LongitudeDegrees>-1.98356556706130504608154296875</LongitudeDegrees>
            </Position>
            <AltitudeMeters>-2.7999999523162841796875</AltitudeMeters>
            <DistanceMeters>NAN</DistanceMeters>
          </Trackpoint>
          <Trackpoint>
            <Time>2021-08-12T11:33:02.000Z</Time>
            <Position>
              <LatitudeDegrees>43.32386654801666736602783203125</LatitudeDegrees>
              <LongitudeDegrees>-1.98356070555746555328369140625</LongitudeDegrees>
            </Position>
            <AltitudeMeters>-2.7999999523162841796875</AltitudeMeters>
            <DistanceMeters>NAN</DistanceMeters>
          </Trackpoint>
          <Trackpoint>
            <Time>2021-08-12T11:33:03.000Z</Time>
            <Position>
              <LatitudeDegrees>43.32387241534888744354248046875</LatitudeDegrees>
              <LongitudeDegrees>-1.9835597835481166839599609375</LongitudeDegrees>
            </Position>
            <AltitudeMeters>-2.599999904632568359375</AltitudeMeters>
            <DistanceMeters>NAN</DistanceMeters>
          </Trackpoint>
          <Trackpoint>
            <Time>2021-08-12T11:33:04.000Z</Time>
            <Position>
              <LatitudeDegrees>43.323878534138202667236328125</LatitudeDegrees>
              <LongitudeDegrees>-1.9835557602345943450927734375</LongitudeDegrees>
            </Position>
            <AltitudeMeters>-2.599999904632568359375</AltitudeMeters>
            <DistanceMeters>NAN</DistanceMeters>
          </Trackpoint>
          <Trackpoint>
            <Time>2021-08-12T11:33:05.000Z</Time>
            <Position>
              <LatitudeDegrees>43.3238854072988033294677734375</LatitudeDegrees>
              <LongitudeDegrees>-1.9835500605404376983642578125</LongitudeDegrees>
            </Position>
            <AltitudeMeters>-2.599999904632568359375</AltitudeMeters>
            <DistanceMeters>NAN</DistanceMeters>
          </Trackpoint>
          <Trackpoint>
            <Time>2021-08-12T11:33:07.000Z</Time>
            <Position>
              <LatitudeDegrees>43.32389337010681629180908203125</LatitudeDegrees>
              <LongitudeDegrees>-1.983537487685680389404296875</LongitudeDegrees>
            </Position>
            <AltitudeMeters>-2.400000095367431640625</AltitudeMeters>
            <DistanceMeters>NAN</DistanceMeters>
          </Trackpoint>
          <Trackpoint>
            <Time>2021-08-12T11:33:08.000Z</Time>
            <Position>
              <LatitudeDegrees>43.32389630377292633056640625</LatitudeDegrees>
              <LongitudeDegrees>-1.98353111743927001953125</LongitudeDegrees>
            </Position>
            <AltitudeMeters>-2.400000095367431640625</AltitudeMeters>
            <DistanceMeters>NAN</DistanceMeters>
          </Trackpoint>
          <Trackpoint>
            <Time>2021-08-12T11:33:09.000Z</Time>
            <Position>
              <LatitudeDegrees>43.32389219664037227630615234375</LatitudeDegrees>
              <LongitudeDegrees>-1.9835262559354305267333984375</LongitudeDegrees>
            </Position>
            <AltitudeMeters>-2.400000095367431640625</AltitudeMeters>
            <DistanceMeters>NAN</DistanceMeters>
          </Trackpoint>
          <Trackpoint>
            <Time>2021-08-12T11:33:10.000Z</Time>
            <Position>
              <LatitudeDegrees>43.32388213835656642913818359375</LatitudeDegrees>
              <LongitudeDegrees>-1.98351711966097354888916015625</LongitudeDegrees>
            </Position>
            <AltitudeMeters>-2.400000095367431640625</AltitudeMeters>
            <DistanceMeters>NAN</DistanceMeters>
          </Trackpoint>
          <Trackpoint>
            <Time>2021-08-12T11:33:11.000Z</Time>
            <Position>
              <LatitudeDegrees>43.3238773606717586517333984375</LatitudeDegrees>
              <LongitudeDegrees>-1.98350437916815280914306640625</LongitudeDegrees>
            </Position>
            <AltitudeMeters>-2.599999904632568359375</AltitudeMeters>
            <DistanceMeters>NAN</DistanceMeters>
          </Trackpoint>
          <Trackpoint>
            <Time>2021-08-12T11:33:12.000Z</Time>
            <Position>
              <LatitudeDegrees>43.3238709904253482818603515625</LatitudeDegrees>
              <LongitudeDegrees>-1.98349147103726863861083984375</LongitudeDegrees>
            </Position>
            <AltitudeMeters>-2.599999904632568359375</AltitudeMeters>
            <DistanceMeters>NAN</DistanceMeters>
          </Trackpoint>
          <Trackpoint>
            <Time>2021-08-12T11:33:14.000Z</Time>
            <Position>
              <LatitudeDegrees>43.3238612674176692962646484375</LatitudeDegrees>
              <LongitudeDegrees>-1.9834615476429462432861328125</LongitudeDegrees>
            </Position>
            <AltitudeMeters>-2.599999904632568359375</AltitudeMeters>
            <DistanceMeters>NAN</DistanceMeters>
          </Trackpoint>
          <Trackpoint>
            <Time>2021-08-12T11:33:15.000Z</Time>
            <Position>
              <LatitudeDegrees>43.32386679947376251220703125</LatitudeDegrees>
              <LongitudeDegrees>-1.98345324955880641937255859375</LongitudeDegrees>
            </Position>
            <AltitudeMeters>-2.599999904632568359375</AltitudeMeters>
            <DistanceMeters>NAN</DistanceMeters>
          </Trackpoint>
          <Trackpoint>
            <Time>2021-08-12T11:33:18.000Z</Time>
            <Position>
              <LatitudeDegrees>43.323874510824680328369140625</LatitudeDegrees>
              <LongitudeDegrees>-1.98342072777450084686279296875</LongitudeDegrees>
            </Position>
            <AltitudeMeters>-2.7999999523162841796875</AltitudeMeters>
            <DistanceMeters>NAN</DistanceMeters>
          </Trackpoint>
          <Trackpoint>
            <Time>2021-08-12T11:33:19.000Z</Time>
            <Position>
              <LatitudeDegrees>43.3238750137388706207275390625</LatitudeDegrees>
              <LongitudeDegrees>-1.9834125973284244537353515625</LongitudeDegrees>
            </Position>
            <AltitudeMeters>-2.7999999523162841796875</AltitudeMeters>
            <DistanceMeters>NAN</DistanceMeters>
          </Trackpoint>
          <Trackpoint>
            <Time>2021-08-12T11:33:20.000Z</Time>
            <Position>
              <LatitudeDegrees>43.323873169720172882080078125</LatitudeDegrees>
              <LongitudeDegrees>-1.98340748436748981475830078125</LongitudeDegrees>
            </Position>
            <AltitudeMeters>-3</AltitudeMeters>
            <DistanceMeters>NAN</DistanceMeters>
          </Trackpoint>
          <Trackpoint>
            <Time>2021-08-12T11:33:21.000Z</Time>
            <Position>
              <LatitudeDegrees>43.3238699845969676971435546875</LatitudeDegrees>
              <LongitudeDegrees>-1.98340614326298236846923828125</LongitudeDegrees>
            </Position>
            <AltitudeMeters>-3</AltitudeMeters>
            <DistanceMeters>NAN</DistanceMeters>
          </Trackpoint>
          <Trackpoint>
            <Time>2021-08-12T11:33:22.000Z</Time>
            <Position>
              <LatitudeDegrees>43.32386654801666736602783203125</LatitudeDegrees>
              <LongitudeDegrees>-1.98340396396815776824951171875</LongitudeDegrees>
            </Position>
            <AltitudeMeters>-3</AltitudeMeters>
            <DistanceMeters>NAN</DistanceMeters>
          </Trackpoint>
          <Trackpoint>
            <Time>2021-08-12T11:33:23.000Z</Time>
            <Position>
              <LatitudeDegrees>43.3238642849028110504150390625</LatitudeDegrees>
              <LongitudeDegrees>-1.98340438306331634521484375</LongitudeDegrees>
            </Position>
            <AltitudeMeters>-3</AltitudeMeters>
            <DistanceMeters>NAN</DistanceMeters>
          </Trackpoint>
          <Trackpoint>
            <Time>2021-08-12T11:33:24.000Z</Time>
            <Position>
              <LatitudeDegrees>43.32386001013219356536865234375</LatitudeDegrees>
              <LongitudeDegrees>-1.983403377234935760498046875</LongitudeDegrees>
            </Position>
            <AltitudeMeters>-3</AltitudeMeters>
            <DistanceMeters>NAN</DistanceMeters>
          </Trackpoint>
          <Trackpoint>
            <Time>2021-08-12T11:33:26.000Z</Time>
            <Position>
              <LatitudeDegrees>43.3238495327532291412353515625</LatitudeDegrees>
              <LongitudeDegrees>-1.9834075681865215301513671875</LongitudeDegrees>
            </Position>
            <AltitudeMeters>-3</AltitudeMeters>
            <DistanceMeters>NAN</DistanceMeters>
          </Trackpoint>
          <Trackpoint>
            <Time>2021-08-12T11:33:27.000Z</Time>
            <Position>
              <LatitudeDegrees>43.32384190522134304046630859375</LatitudeDegrees>
              <LongitudeDegrees>-1.9834072329103946685791015625</LongitudeDegrees>
            </Position>
            <AltitudeMeters>-3</AltitudeMeters>
            <DistanceMeters>NAN</DistanceMeters>
          </Trackpoint>
          <Trackpoint>
            <Time>2021-08-12T11:33:28.000Z</Time>
            <Position>
              <LatitudeDegrees>43.32383595407009124755859375</LatitudeDegrees>
              <LongitudeDegrees>-1.9834048859775066375732421875</LongitudeDegrees>
            </Position>
            <AltitudeMeters>-3</AltitudeMeters>
            <DistanceMeters>NAN</DistanceMeters>
          </Trackpoint>
          <Trackpoint>
            <Time>2021-08-12T11:33:29.000Z</Time>
            <Position>
              <LatitudeDegrees>43.323832266032695770263671875</LatitudeDegrees>
              <LongitudeDegrees>-1.9834055565297603607177734375</LongitudeDegrees>
            </Position>
            <AltitudeMeters>-3</AltitudeMeters>
            <DistanceMeters>NAN</DistanceMeters>
          </Trackpoint>
          <Trackpoint>
            <Time>2021-08-12T11:33:35.000Z</Time>
            <Position>
              <LatitudeDegrees>43.32383436150848865509033203125</LatitudeDegrees>
              <LongitudeDegrees>-1.98340564034879207611083984375</LongitudeDegrees>
            </Position>
            <AltitudeMeters>-2.7999999523162841796875</AltitudeMeters>
            <DistanceMeters>NAN</DistanceMeters>
          </Trackpoint>
          <Trackpoint>
            <Time>2021-08-12T11:34:29.000Z</Time>
            <Position>
              <LatitudeDegrees>43.32383729517459869384765625</LatitudeDegrees>
              <LongitudeDegrees>-1.983378231525421142578125</LongitudeDegrees>
            </Position>
            <AltitudeMeters>-2.599999904632568359375</AltitudeMeters>
            <DistanceMeters>NAN</DistanceMeters>
          </Trackpoint>
          <Trackpoint>
            <Time>2021-08-12T11:34:31.000Z</Time>
            <Position>
              <LatitudeDegrees>43.3238136582076549530029296875</LatitudeDegrees>
              <LongitudeDegrees>-1.98337613604962825775146484375</LongitudeDegrees>
            </Position>
            <AltitudeMeters>-2.599999904632568359375</AltitudeMeters>
            <DistanceMeters>NAN</DistanceMeters>
          </Trackpoint>
          <Trackpoint>
            <Time>2021-08-12T11:34:32.000Z</Time>
            <Position>
              <LatitudeDegrees>43.32380351610481739044189453125</LatitudeDegrees>
              <LongitudeDegrees>-1.98337278328835964202880859375</LongitudeDegrees>
            </Position>
            <AltitudeMeters>-2.599999904632568359375</AltitudeMeters>
            <DistanceMeters>NAN</DistanceMeters>
          </Trackpoint>
          <Trackpoint>
            <Time>2021-08-12T11:34:35.000Z</Time>
            <Position>
              <LatitudeDegrees>43.3237663842737674713134765625</LatitudeDegrees>
              <LongitudeDegrees>-1.983346045017242431640625</LongitudeDegrees>
            </Position>
            <AltitudeMeters>-2.599999904632568359375</AltitudeMeters>
            <DistanceMeters>NAN</DistanceMeters>
          </Trackpoint>
          <Trackpoint>
            <Time>2021-08-12T11:34:36.000Z</Time>
            <Position>
              <LatitudeDegrees>43.3237576670944690704345703125</LatitudeDegrees>
              <LongitudeDegrees>-1.9833385013043880462646484375</LongitudeDegrees>
            </Position>
            <AltitudeMeters>-2.599999904632568359375</AltitudeMeters>
            <DistanceMeters>NAN</DistanceMeters>
          </Trackpoint>
          <Trackpoint>
            <Time>2021-08-12T11:34:38.000Z</Time>
            <Position>
              <LatitudeDegrees>43.32373746670782566070556640625</LatitudeDegrees>
              <LongitudeDegrees>-1.98332182131707668304443359375</LongitudeDegrees>
            </Position>
            <AltitudeMeters>-2.599999904632568359375</AltitudeMeters>
            <DistanceMeters>NAN</DistanceMeters>
          </Trackpoint>
          <Trackpoint>
            <Time>2021-08-12T11:34:39.000Z</Time>
            <Position>
              <LatitudeDegrees>43.32372958771884441375732421875</LatitudeDegrees>
              <LongitudeDegrees>-1.9833110086619853973388671875</LongitudeDegrees>
            </Position>
            <AltitudeMeters>-2.400000095367431640625</AltitudeMeters>
            <DistanceMeters>NAN</DistanceMeters>
          </Trackpoint>
          <Trackpoint>
            <Time>2021-08-12T11:34:40.000Z</Time>
            <Position>
              <LatitudeDegrees>43.32371927797794342041015625</LatitudeDegrees>
              <LongitudeDegrees>-1.983308494091033935546875</LongitudeDegrees>
            </Position>
            <AltitudeMeters>-2.400000095367431640625</AltitudeMeters>
            <DistanceMeters>NAN</DistanceMeters>
          </Trackpoint>
          <Trackpoint>
            <Time>2021-08-12T11:34:42.000Z</Time>
            <Position>
              <LatitudeDegrees>43.32369647920131683349609375</LatitudeDegrees>
              <LongitudeDegrees>-1.9833002798259258270263671875</LongitudeDegrees>
            </Position>
            <AltitudeMeters>-2.400000095367431640625</AltitudeMeters>
            <DistanceMeters>NAN</DistanceMeters>
          </Trackpoint>
          <Trackpoint>
            <Time>2021-08-12T11:34:44.000Z</Time>
            <Position>
              <LatitudeDegrees>43.3236829005181789398193359375</LatitudeDegrees>
              <LongitudeDegrees>-1.98328292928636074066162109375</LongitudeDegrees>
            </Position>
            <AltitudeMeters>-2.400000095367431640625</AltitudeMeters>
            <DistanceMeters>NAN</DistanceMeters>
          </Trackpoint>
          <Trackpoint>
            <Time>2021-08-12T11:34:45.000Z</Time>
            <Position>
              <LatitudeDegrees>43.32367242313921451568603515625</LatitudeDegrees>
              <LongitudeDegrees>-1.9832781516015529632568359375</LongitudeDegrees>
            </Position>
            <AltitudeMeters>-2.400000095367431640625</AltitudeMeters>
            <DistanceMeters>NAN</DistanceMeters>
          </Trackpoint>
          <Trackpoint>
            <Time>2021-08-12T11:34:46.000Z</Time>
            <Position>
              <LatitudeDegrees>43.32366697490215301513671875</LatitudeDegrees>
              <LongitudeDegrees>-1.98326759040355682373046875</LongitudeDegrees>
            </Position>
            <AltitudeMeters>-2.400000095367431640625</AltitudeMeters>
            <DistanceMeters>NAN</DistanceMeters>
          </Trackpoint>
          <Trackpoint>
            <Time>2021-08-12T11:34:47.000Z</Time>
            <Position>
              <LatitudeDegrees>43.323657922446727752685546875</LatitudeDegrees>
              <LongitudeDegrees>-1.98326063342392444610595703125</LongitudeDegrees>
            </Position>
            <AltitudeMeters>-2.400000095367431640625</AltitudeMeters>
            <DistanceMeters>NAN</DistanceMeters>
          </Trackpoint>
          <Trackpoint>
            <Time>2021-08-12T11:34:48.000Z</Time>
            <Position>
              <LatitudeDegrees>43.323649205267429351806640625</LatitudeDegrees>
              <LongitudeDegrees>-1.98325158096849918365478515625</LongitudeDegrees>
            </Position>
            <AltitudeMeters>-2.400000095367431640625</AltitudeMeters>
            <DistanceMeters>NAN</DistanceMeters>
          </Trackpoint>
          <Trackpoint>
            <Time>2021-08-12T11:34:49.000Z</Time>
            <Position>
              <LatitudeDegrees>43.32364241592586040496826171875</LatitudeDegrees>
              <LongitudeDegrees>-1.98324152268469333648681640625</LongitudeDegrees>
            </Position>
            <AltitudeMeters>-2.400000095367431640625</AltitudeMeters>
            <DistanceMeters>NAN</DistanceMeters>
          </Trackpoint>
          <Trackpoint>
            <Time>2021-08-12T11:34:50.000Z</Time>
            <Position>
              <LatitudeDegrees>43.3236336149275302886962890625</LatitudeDegrees>
              <LongitudeDegrees>-1.983233392238616943359375</LongitudeDegrees>
            </Position>
            <AltitudeMeters>-2.2000000476837158203125</AltitudeMeters>
            <DistanceMeters>NAN</DistanceMeters>
          </Trackpoint>
          <Trackpoint>
            <Time>2021-08-12T11:34:51.000Z</Time>
            <Position>
              <LatitudeDegrees>43.32362950779497623443603515625</LatitudeDegrees>
              <LongitudeDegrees>-1.9832191430032253265380859375</LongitudeDegrees>
            </Position>
            <AltitudeMeters>-2.2000000476837158203125</AltitudeMeters>
            <DistanceMeters>NAN</DistanceMeters>
          </Trackpoint>
          <Trackpoint>
            <Time>2021-08-12T11:34:52.000Z</Time>
            <Position>
              <LatitudeDegrees>43.3236232213675975799560546875</LatitudeDegrees>
              <LongitudeDegrees>-1.98320983909070491790771484375</LongitudeDegrees>
            </Position>
            <AltitudeMeters>-2.2000000476837158203125</AltitudeMeters>
            <DistanceMeters>NAN</DistanceMeters>
          </Trackpoint>
          <Trackpoint>
            <Time>2021-08-12T11:34:53.000Z</Time>
            <Position>
              <LatitudeDegrees>43.32361844368278980255126953125</LatitudeDegrees>
              <LongitudeDegrees>-1.9831990264356136322021484375</LongitudeDegrees>
            </Position>
            <AltitudeMeters>-2.2000000476837158203125</AltitudeMeters>
            <DistanceMeters>NAN</DistanceMeters>
          </Trackpoint>
          <Trackpoint>
            <Time>2021-08-12T11:34:54.000Z</Time>
            <Position>
              <LatitudeDegrees>43.32361190579831600189208984375</LatitudeDegrees>
              <LongitudeDegrees>-1.98319248855113983154296875</LongitudeDegrees>
            </Position>
            <AltitudeMeters>-2.2000000476837158203125</AltitudeMeters>
            <DistanceMeters>NAN</DistanceMeters>
          </Trackpoint>
          <Trackpoint>
            <Time>2021-08-12T11:34:55.000Z</Time>
            <Position>
              <LatitudeDegrees>43.3236037753522396087646484375</LatitudeDegrees>
              <LongitudeDegrees>-1.98319005779922008514404296875</LongitudeDegrees>
            </Position>
            <AltitudeMeters>-2</AltitudeMeters>
            <DistanceMeters>NAN</DistanceMeters>
          </Trackpoint>
          <Trackpoint>
            <Time>2021-08-12T11:34:56.000Z</Time>
            <Position>
              <LatitudeDegrees>43.32359598018229007720947265625</LatitudeDegrees>
              <LongitudeDegrees>-1.98319223709404468536376953125</LongitudeDegrees>
            </Position>
            <AltitudeMeters>-2</AltitudeMeters>
            <DistanceMeters>NAN</DistanceMeters>
          </Trackpoint>
          <Trackpoint>
            <Time>2021-08-12T11:34:57.000Z</Time>
            <Position>
              <LatitudeDegrees>43.32358893938362598419189453125</LatitudeDegrees>
              <LongitudeDegrees>-1.9831931591033935546875</LongitudeDegrees>
            </Position>
            <AltitudeMeters>-2</AltitudeMeters>
            <DistanceMeters>NAN</DistanceMeters>
          </Trackpoint>
          <Trackpoint>
            <Time>2021-08-12T11:34:59.000Z</Time>
            <Position>
              <LatitudeDegrees>43.3235715888440608978271484375</LatitudeDegrees>
              <LongitudeDegrees>-1.98319223709404468536376953125</LongitudeDegrees>
            </Position>
            <AltitudeMeters>-2</AltitudeMeters>
            <DistanceMeters>NAN</DistanceMeters>
          </Trackpoint>
          <Trackpoint>
            <Time>2021-08-12T11:35:00.000Z</Time>
            <Position>
              <LatitudeDegrees>43.3235705830156803131103515625</LatitudeDegrees>
              <LongitudeDegrees>-1.9831886328756809234619140625</LongitudeDegrees>
            </Position>
            <AltitudeMeters>-2</AltitudeMeters>
            <DistanceMeters>NAN</DistanceMeters>
          </Trackpoint>
          <Trackpoint>
            <Time>2021-08-12T11:35:05.000Z</Time>
            <Position>
              <LatitudeDegrees>43.32356228493154048919677734375</LatitudeDegrees>
              <LongitudeDegrees>-1.98319458402693271636962890625</LongitudeDegrees>
            </Position>
            <AltitudeMeters>-1.7999999523162841796875</AltitudeMeters>
            <DistanceMeters>NAN</DistanceMeters>
          </Trackpoint>
          <Trackpoint>
            <Time>2021-08-12T11:35:11.000Z</Time>
            <Position>
              <LatitudeDegrees>43.32356027327477931976318359375</LatitudeDegrees>
              <LongitudeDegrees>-1.9831567816436290740966796875</LongitudeDegrees>
            </Position>
            <AltitudeMeters>-2</AltitudeMeters>
            <DistanceMeters>NAN</DistanceMeters>
          </Trackpoint>
          <Trackpoint>
            <Time>2021-08-12T11:35:18.000Z</Time>
            <Position>
              <LatitudeDegrees>43.323512412607669830322265625</LatitudeDegrees>
              <LongitudeDegrees>-1.98311872780323028564453125</LongitudeDegrees>
            </Position>
            <AltitudeMeters>-2</AltitudeMeters>
            <DistanceMeters>NAN</DistanceMeters>
          </Trackpoint>
          <Trackpoint>
            <Time>2021-08-12T11:35:20.000Z</Time>
            <Position>
              <LatitudeDegrees>43.32348818890750408172607421875</LatitudeDegrees>
              <LongitudeDegrees>-1.983111687004566192626953125</LongitudeDegrees>
            </Position>
            <AltitudeMeters>-2</AltitudeMeters>
            <DistanceMeters>NAN</DistanceMeters>
          </Trackpoint>
          <Trackpoint>
            <Time>2021-08-12T11:35:21.000Z</Time>
            <Position>
              <LatitudeDegrees>43.3234785497188568115234375</LatitudeDegrees>
              <LongitudeDegrees>-1.983105652034282684326171875</LongitudeDegrees>
            </Position>
            <AltitudeMeters>-2</AltitudeMeters>
            <DistanceMeters>NAN</DistanceMeters>
          </Trackpoint>
          <Trackpoint>
            <Time>2021-08-12T11:35:23.000Z</Time>
            <Position>
              <LatitudeDegrees>43.3234485425055027008056640625</LatitudeDegrees>
              <LongitudeDegrees>-1.98308226652443408966064453125</LongitudeDegrees>
            </Position>
            <AltitudeMeters>-2</AltitudeMeters>
            <DistanceMeters>NAN</DistanceMeters>
          </Trackpoint>
          <Trackpoint>
            <Time>2021-08-12T11:35:25.000Z</Time>
            <Position>
              <LatitudeDegrees>43.32342767156660556793212890625</LatitudeDegrees>
              <LongitudeDegrees>-1.98305745609104633331298828125</LongitudeDegrees>
            </Position>
            <AltitudeMeters>-2</AltitudeMeters>
            <DistanceMeters>NAN</DistanceMeters>
          </Trackpoint>
          <Trackpoint>
            <Time>2021-08-12T11:35:27.000Z</Time>
            <Position>
              <LatitudeDegrees>43.32340948283672332763671875</LatitudeDegrees>
              <LongitudeDegrees>-1.983043290674686431884765625</LongitudeDegrees>
            </Position>
            <AltitudeMeters>-2</AltitudeMeters>
            <DistanceMeters>NAN</DistanceMeters>
          </Trackpoint>
          <Trackpoint>
            <Time>2021-08-12T11:35:28.000Z</Time>
            <Position>
              <LatitudeDegrees>43.32339942455291748046875</LatitudeDegrees>
              <LongitudeDegrees>-1.98302526958286762237548828125</LongitudeDegrees>
            </Position>
            <AltitudeMeters>-2</AltitudeMeters>
            <DistanceMeters>NAN</DistanceMeters>
          </Trackpoint>
          <Trackpoint>
            <Time>2021-08-12T11:35:29.000Z</Time>
            <Position>
              <LatitudeDegrees>43.323389030992984771728515625</LatitudeDegrees>
              <LongitudeDegrees>-1.98300833813846111297607421875</LongitudeDegrees>
            </Position>
            <AltitudeMeters>-2</AltitudeMeters>
            <DistanceMeters>NAN</DistanceMeters>
          </Trackpoint>
          <Trackpoint>
            <Time>2021-08-12T11:35:30.000Z</Time>
            <Position>
              <LatitudeDegrees>43.323382325470447540283203125</LatitudeDegrees>
              <LongitudeDegrees>-1.98298604227602481842041015625</LongitudeDegrees>
            </Position>
            <AltitudeMeters>-2</AltitudeMeters>
            <DistanceMeters>NAN</DistanceMeters>
          </Trackpoint>
          <Trackpoint>
            <Time>2021-08-12T11:35:31.000Z</Time>
            <Position>
              <LatitudeDegrees>43.3233801461756229400634765625</LatitudeDegrees>
              <LongitudeDegrees>-1.98296559043228626251220703125</LongitudeDegrees>
            </Position>
            <AltitudeMeters>-2</AltitudeMeters>
            <DistanceMeters>NAN</DistanceMeters>
          </Trackpoint>
          <Trackpoint>
            <Time>2021-08-12T11:35:32.000Z</Time>
            <Position>
              <LatitudeDegrees>43.32337805069983005523681640625</LatitudeDegrees>
              <LongitudeDegrees>-1.9829391874372959136962890625</LongitudeDegrees>
            </Position>
            <AltitudeMeters>-2</AltitudeMeters>
            <DistanceMeters>NAN</DistanceMeters>
          </Trackpoint>
          <Trackpoint>
            <Time>2021-08-12T11:35:33.000Z</Time>
            <Position>
              <LatitudeDegrees>43.3233814872801303863525390625</LatitudeDegrees>
              <LongitudeDegrees>-1.9829385168850421905517578125</LongitudeDegrees>
            </Position>
            <AltitudeMeters>-2</AltitudeMeters>
            <DistanceMeters>NAN</DistanceMeters>
          </Trackpoint>
          <Trackpoint>
            <Time>2021-08-12T11:35:34.000Z</Time>
            <Position>
              <LatitudeDegrees>43.323396742343902587890625</LatitudeDegrees>
              <LongitudeDegrees>-1.98294966481626033782958984375</LongitudeDegrees>
            </Position>
            <AltitudeMeters>-2</AltitudeMeters>
            <DistanceMeters>NAN</DistanceMeters>
          </Trackpoint>
          <Trackpoint>
            <Time>2021-08-12T11:35:35.000Z</Time>
            <Position>
              <LatitudeDegrees>43.323404788970947265625</LatitudeDegrees>
              <LongitudeDegrees>-1.9829747267067432403564453125</LongitudeDegrees>
            </Position>
            <AltitudeMeters>-2</AltitudeMeters>
            <DistanceMeters>NAN</DistanceMeters>
          </Trackpoint>
          <Trackpoint>
            <Time>2021-08-12T11:35:36.000Z</Time>
            <Position>
              <LatitudeDegrees>43.32340252585709095001220703125</LatitudeDegrees>
              <LongitudeDegrees>-1.98298654519021511077880859375</LongitudeDegrees>
            </Position>
            <AltitudeMeters>-2</AltitudeMeters>
            <DistanceMeters>NAN</DistanceMeters>
          </Trackpoint>
          <Trackpoint>
            <Time>2021-08-12T11:35:37.000Z</Time>
            <Position>
              <LatitudeDegrees>43.323387689888477325439453125</LatitudeDegrees>
              <LongitudeDegrees>-1.9829958491027355194091796875</LongitudeDegrees>
            </Position>
            <AltitudeMeters>-2</AltitudeMeters>
            <DistanceMeters>NAN</DistanceMeters>
          </Trackpoint>
          <Trackpoint>
            <Time>2021-08-12T11:35:50.000Z</Time>
            <Position>
              <LatitudeDegrees>43.3233617059886455535888671875</LatitudeDegrees>
              <LongitudeDegrees>-1.98305376805365085601806640625</LongitudeDegrees>
            </Position>
            <AltitudeMeters>-2.2000000476837158203125</AltitudeMeters>
            <DistanceMeters>NAN</DistanceMeters>
          </Trackpoint>
          <Trackpoint>
            <Time>2021-08-12T11:35:51.000Z</Time>
            <Position>
              <LatitudeDegrees>43.32336254417896270751953125</LatitudeDegrees>
              <LongitudeDegrees>-1.98304169811308383941650390625</LongitudeDegrees>
            </Position>
            <AltitudeMeters>-2.2000000476837158203125</AltitudeMeters>
            <DistanceMeters>NAN</DistanceMeters>
          </Trackpoint>
          <Trackpoint>
            <Time>2021-08-12T11:35:52.000Z</Time>
            <Position>
              <LatitudeDegrees>43.32336564548313617706298828125</LatitudeDegrees>
              <LongitudeDegrees>-1.98303163982927799224853515625</LongitudeDegrees>
            </Position>
            <AltitudeMeters>-2.2000000476837158203125</AltitudeMeters>
            <DistanceMeters>NAN</DistanceMeters>
          </Trackpoint>
          <Trackpoint>
            <Time>2021-08-12T11:35:53.000Z</Time>
            <Position>
              <LatitudeDegrees>43.323370926082134246826171875</LatitudeDegrees>
              <LongitudeDegrees>-1.98302753269672393798828125</LongitudeDegrees>
            </Position>
            <AltitudeMeters>-2.2000000476837158203125</AltitudeMeters>
            <DistanceMeters>NAN</DistanceMeters>
          </Trackpoint>
          <Trackpoint>
            <Time>2021-08-12T11:35:55.000Z</Time>
            <Position>
              <LatitudeDegrees>43.32338760606944561004638671875</LatitudeDegrees>
              <LongitudeDegrees>-1.9830203242599964141845703125</LongitudeDegrees>
            </Position>
            <AltitudeMeters>-2</AltitudeMeters>
            <DistanceMeters>NAN</DistanceMeters>
          </Trackpoint>
          <Trackpoint>
            <Time>2021-08-12T11:35:56.000Z</Time>
            <Position>
              <LatitudeDegrees>43.32339799962937831878662109375</LatitudeDegrees>
              <LongitudeDegrees>-1.98301814496517181396484375</LongitudeDegrees>
            </Position>
            <AltitudeMeters>-2</AltitudeMeters>
            <DistanceMeters>NAN</DistanceMeters>
          </Trackpoint>
          <Trackpoint>
            <Time>2021-08-12T11:35:57.000Z</Time>
            <Position>
              <LatitudeDegrees>43.32339917309582233428955078125</LatitudeDegrees>
              <LongitudeDegrees>-1.98302443139255046844482421875</LongitudeDegrees>
            </Position>
            <AltitudeMeters>-2</AltitudeMeters>
            <DistanceMeters>NAN</DistanceMeters>
          </Trackpoint>
          <Trackpoint>
            <Time>2021-08-12T11:35:59.000Z</Time>
            <Position>
              <LatitudeDegrees>43.3234099857509136199951171875</LatitudeDegrees>
              <LongitudeDegrees>-1.9830109365284442901611328125</LongitudeDegrees>
            </Position>
            <AltitudeMeters>-2</AltitudeMeters>
            <DistanceMeters>NAN</DistanceMeters>
          </Trackpoint>
          <Trackpoint>
            <Time>2021-08-12T11:36:00.000Z</Time>
            <Position>
              <LatitudeDegrees>43.32342029549181461334228515625</LatitudeDegrees>
              <LongitudeDegrees>-1.98300766758620738983154296875</LongitudeDegrees>
            </Position>
            <AltitudeMeters>-2</AltitudeMeters>
            <DistanceMeters>NAN</DistanceMeters>
          </Trackpoint>
          <Trackpoint>
            <Time>2021-08-12T11:36:01.000Z</Time>
            <Position>
              <LatitudeDegrees>43.3234302699565887451171875</LatitudeDegrees>
              <LongitudeDegrees>-1.98300465010106563568115234375</LongitudeDegrees>
            </Position>
            <AltitudeMeters>-2</AltitudeMeters>
            <DistanceMeters>NAN</DistanceMeters>
          </Trackpoint>
          <Trackpoint>
            <Time>2021-08-12T11:36:02.000Z</Time>
            <Position>
              <LatitudeDegrees>43.32343764603137969970703125</LatitudeDegrees>
              <LongitudeDegrees>-1.98300112970173358917236328125</LongitudeDegrees>
            </Position>
            <AltitudeMeters>-2</AltitudeMeters>
            <DistanceMeters>NAN</DistanceMeters>
          </Trackpoint>
          <Trackpoint>
            <Time>2021-08-12T11:36:03.000Z</Time>
            <Position>
              <LatitudeDegrees>43.32344611175358295440673828125</LatitudeDegrees>
              <LongitudeDegrees>-1.98299928568303585052490234375</LongitudeDegrees>
            </Position>
            <AltitudeMeters>-2</AltitudeMeters>
            <DistanceMeters>NAN</DistanceMeters>
          </Trackpoint>
          <Trackpoint>
            <Time>2021-08-12T11:36:04.000Z</Time>
            <Position>
              <LatitudeDegrees>43.32345281727612018585205078125</LatitudeDegrees>
              <LongitudeDegrees>-1.9829958491027355194091796875</LongitudeDegrees>
            </Position>
            <AltitudeMeters>-2</AltitudeMeters>
            <DistanceMeters>NAN</DistanceMeters>
          </Trackpoint>
          <Trackpoint>
            <Time>2021-08-12T11:36:06.000Z</Time>
            <Position>
              <LatitudeDegrees>43.32346354611217975616455078125</LatitudeDegrees>
              <LongitudeDegrees>-1.98298939503729343414306640625</LongitudeDegrees>
            </Position>
            <AltitudeMeters>-2</AltitudeMeters>
            <DistanceMeters>NAN</DistanceMeters>
          </Trackpoint>
          <Trackpoint>
            <Time>2021-08-12T11:36:07.000Z</Time>
            <Position>
              <LatitudeDegrees>43.3234710060060024261474609375</LatitudeDegrees>
              <LongitudeDegrees>-1.98298788629472255706787109375</LongitudeDegrees>
            </Position>
            <AltitudeMeters>-2</AltitudeMeters>
            <DistanceMeters>NAN</DistanceMeters>
          </Trackpoint>
          <Trackpoint>
            <Time>2021-08-12T11:36:08.000Z</Time>
            <Position>
              <LatitudeDegrees>43.32347511313855648040771484375</LatitudeDegrees>
              <LongitudeDegrees>-1.9829871319234371185302734375</LongitudeDegrees>
            </Position>
            <AltitudeMeters>-2</AltitudeMeters>
            <DistanceMeters>NAN</DistanceMeters>
          </Trackpoint>
          <Trackpoint>
            <Time>2021-08-12T11:36:09.000Z</Time>
            <Position>
              <LatitudeDegrees>43.32347787916660308837890625</LatitudeDegrees>
              <LongitudeDegrees>-1.98298864066600799560546875</LongitudeDegrees>
            </Position>
            <AltitudeMeters>-2</AltitudeMeters>
            <DistanceMeters>NAN</DistanceMeters>
          </Trackpoint>
          <Trackpoint>
            <Time>2021-08-12T11:36:18.000Z</Time>
            <Position>
              <LatitudeDegrees>43.32348592579364776611328125</LatitudeDegrees>
              <LongitudeDegrees>-1.982945390045642852783203125</LongitudeDegrees>
            </Position>
            <AltitudeMeters>-2</AltitudeMeters>
            <DistanceMeters>NAN</DistanceMeters>
          </Trackpoint>
          <Trackpoint>
            <Time>2021-08-12T11:36:26.000Z</Time>
            <Position>
              <LatitudeDegrees>43.3234941400587558746337890625</LatitudeDegrees>
              <LongitudeDegrees>-1.9829375110566616058349609375</LongitudeDegrees>
            </Position>
            <AltitudeMeters>-1.7999999523162841796875</AltitudeMeters>
            <DistanceMeters>NAN</DistanceMeters>
          </Trackpoint>
          <Trackpoint>
            <Time>2021-08-12T11:36:43.000Z</Time>
            <Position>
              <LatitudeDegrees>43.32349372096359729766845703125</LatitudeDegrees>
              <LongitudeDegrees>-1.9829173944890499114990234375</LongitudeDegrees>
            </Position>
            <AltitudeMeters>-1.7999999523162841796875</AltitudeMeters>
            <DistanceMeters>NAN</DistanceMeters>
          </Trackpoint>
          <Trackpoint>
            <Time>2021-08-12T11:38:33.000Z</Time>
            <Position>
              <LatitudeDegrees>43.32353227771818637847900390625</LatitudeDegrees>
              <LongitudeDegrees>-1.98301001451909542083740234375</LongitudeDegrees>
            </Position>
            <AltitudeMeters>-0.60000002384185791015625</AltitudeMeters>
            <DistanceMeters>NAN</DistanceMeters>
          </Trackpoint>
          <Trackpoint>
            <Time>2021-08-12T11:39:01.000Z</Time>
            <Position>
              <LatitudeDegrees>43.3235813118517398834228515625</LatitudeDegrees>
              <LongitudeDegrees>-1.983003728091716766357421875</LongitudeDegrees>
            </Position>
            <AltitudeMeters>-0.20000000298023223876953125</AltitudeMeters>
            <DistanceMeters>NAN</DistanceMeters>
          </Trackpoint>
          <Trackpoint>
            <Time>2021-08-12T11:39:09.000Z</Time>
            <Position>
              <LatitudeDegrees>43.3235451020300388336181640625</LatitudeDegrees>
              <LongitudeDegrees>-1.983016468584537506103515625</LongitudeDegrees>
            </Position>
            <AltitudeMeters>-0.4000000059604644775390625</AltitudeMeters>
            <DistanceMeters>NAN</DistanceMeters>
          </Trackpoint>
          <Trackpoint>
            <Time>2021-08-12T11:39:11.000Z</Time>
            <Position>
              <LatitudeDegrees>43.32353797741234302520751953125</LatitudeDegrees>
              <LongitudeDegrees>-1.98301772587001323699951171875</LongitudeDegrees>
            </Position>
            <AltitudeMeters>-0.4000000059604644775390625</AltitudeMeters>
            <DistanceMeters>NAN</DistanceMeters>
          </Trackpoint>
          <Trackpoint>
            <Time>2021-08-12T11:39:12.000Z</Time>
            <Position>
              <LatitudeDegrees>43.3235290087759494781494140625</LatitudeDegrees>
              <LongitudeDegrees>-1.9830193184316158294677734375</LongitudeDegrees>
            </Position>
            <AltitudeMeters>-0.20000000298023223876953125</AltitudeMeters>
            <DistanceMeters>NAN</DistanceMeters>
          </Trackpoint>
          <Trackpoint>
            <Time>2021-08-12T11:39:13.000Z</Time>
            <Position>
              <LatitudeDegrees>43.32352540455758571624755859375</LatitudeDegrees>
              <LongitudeDegrees>-1.9830201566219329833984375</LongitudeDegrees>
            </Position>
            <AltitudeMeters>-0.20000000298023223876953125</AltitudeMeters>
            <DistanceMeters>NAN</DistanceMeters>
          </Trackpoint>
          <Trackpoint>
            <Time>2021-08-12T11:39:15.000Z</Time>
            <Position>
              <LatitudeDegrees>43.3235189504921436309814453125</LatitudeDegrees>
              <LongitudeDegrees>-1.983022503554821014404296875</LongitudeDegrees>
            </Position>
            <AltitudeMeters>-0.20000000298023223876953125</AltitudeMeters>
            <DistanceMeters>NAN</DistanceMeters>
          </Trackpoint>
          <Trackpoint>
            <Time>2021-08-12T11:39:17.000Z</Time>
            <Position>
              <LatitudeDegrees>43.32350830547511577606201171875</LatitudeDegrees>
              <LongitudeDegrees>-1.98302040807902812957763671875</LongitudeDegrees>
            </Position>
            <AltitudeMeters>-0.20000000298023223876953125</AltitudeMeters>
            <DistanceMeters>NAN</DistanceMeters>
          </Trackpoint>
          <Trackpoint>
            <Time>2021-08-12T11:39:18.000Z</Time>
            <Position>
              <LatitudeDegrees>43.3235075511038303375244140625</LatitudeDegrees>
              <LongitudeDegrees>-1.98301772587001323699951171875</LongitudeDegrees>
            </Position>
            <AltitudeMeters>-0.20000000298023223876953125</AltitudeMeters>
            <DistanceMeters>NAN</DistanceMeters>
          </Trackpoint>
          <Trackpoint>
            <Time>2021-08-12T11:39:20.000Z</Time>
            <Position>
              <LatitudeDegrees>43.32349640317261219024658203125</LatitudeDegrees>
              <LongitudeDegrees>-1.9830102659761905670166015625</LongitudeDegrees>
            </Position>
            <AltitudeMeters>-0.20000000298023223876953125</AltitudeMeters>
            <DistanceMeters>NAN</DistanceMeters>
          </Trackpoint>
          <Trackpoint>
            <Time>2021-08-12T11:39:21.000Z</Time>
            <Position>
              <LatitudeDegrees>43.32348349504172801971435546875</LatitudeDegrees>
              <LongitudeDegrees>-1.9830062426626682281494140625</LongitudeDegrees>
            </Position>
            <AltitudeMeters>-0.20000000298023223876953125</AltitudeMeters>
            <DistanceMeters>NAN</DistanceMeters>
          </Trackpoint>
          <Trackpoint>
            <Time>2021-08-12T11:39:22.000Z</Time>
            <Position>
              <LatitudeDegrees>43.3234700001776218414306640625</LatitudeDegrees>
              <LongitudeDegrees>-1.9830082543194293975830078125</LongitudeDegrees>
            </Position>
            <AltitudeMeters>-0.20000000298023223876953125</AltitudeMeters>
            <DistanceMeters>NAN</DistanceMeters>
          </Trackpoint>
          <Trackpoint>
            <Time>2021-08-12T11:39:23.000Z</Time>
            <Position>
              <LatitudeDegrees>43.32345306873321533203125</LatitudeDegrees>
              <LongitudeDegrees>-1.98300800286233425140380859375</LongitudeDegrees>
            </Position>
            <AltitudeMeters>-0.20000000298023223876953125</AltitudeMeters>
            <DistanceMeters>NAN</DistanceMeters>
          </Trackpoint>
          <Trackpoint>
            <Time>2021-08-12T11:39:24.000Z</Time>
            <Position>
              <LatitudeDegrees>43.3234351314604282379150390625</LatitudeDegrees>
              <LongitudeDegrees>-1.98301102034747600555419921875</LongitudeDegrees>
            </Position>
            <AltitudeMeters>-0.20000000298023223876953125</AltitudeMeters>
            <DistanceMeters>NAN</DistanceMeters>
          </Trackpoint>
          <Trackpoint>
            <Time>2021-08-12T11:39:25.000Z</Time>
            <Position>
              <LatitudeDegrees>43.32342465408146381378173828125</LatitudeDegrees>
              <LongitudeDegrees>-1.98301169089972972869873046875</LongitudeDegrees>
            </Position>
            <AltitudeMeters>-0.20000000298023223876953125</AltitudeMeters>
            <DistanceMeters>NAN</DistanceMeters>
          </Trackpoint>
          <Trackpoint>
            <Time>2021-08-12T11:39:26.000Z</Time>
            <Position>
              <LatitudeDegrees>43.3234130032360553741455078125</LatitudeDegrees>
              <LongitudeDegrees>-1.98300800286233425140380859375</LongitudeDegrees>
            </Position>
            <AltitudeMeters>-0.20000000298023223876953125</AltitudeMeters>
            <DistanceMeters>NAN</DistanceMeters>
          </Trackpoint>
          <Trackpoint>
            <Time>2021-08-12T11:39:27.000Z</Time>
            <Position>
              <LatitudeDegrees>43.32339699380099773406982421875</LatitudeDegrees>
              <LongitudeDegrees>-1.982999034225940704345703125</LongitudeDegrees>
            </Position>
            <AltitudeMeters>-0.4000000059604644775390625</AltitudeMeters>
            <DistanceMeters>NAN</DistanceMeters>
          </Trackpoint>
          <Trackpoint>
            <Time>2021-08-12T11:39:28.000Z</Time>
            <Position>
              <LatitudeDegrees>43.32337704487144947052001953125</LatitudeDegrees>
              <LongitudeDegrees>-1.98298688046634197235107421875</LongitudeDegrees>
            </Position>
            <AltitudeMeters>-0.4000000059604644775390625</AltitudeMeters>
            <DistanceMeters>NAN</DistanceMeters>
          </Trackpoint>
          <Trackpoint>
            <Time>2021-08-12T11:39:29.000Z</Time>
            <Position>
              <LatitudeDegrees>43.323361873626708984375</LatitudeDegrees>
              <LongitudeDegrees>-1.9829750619828701019287109375</LongitudeDegrees>
            </Position>
            <AltitudeMeters>-0.4000000059604644775390625</AltitudeMeters>
            <DistanceMeters>NAN</DistanceMeters>
          </Trackpoint>
          <Trackpoint>
            <Time>2021-08-12T11:39:30.000Z</Time>
            <Position>
              <LatitudeDegrees>43.3233496360480785369873046875</LatitudeDegrees>
              <LongitudeDegrees>-1.98296559043228626251220703125</LongitudeDegrees>
            </Position>
            <AltitudeMeters>-0.4000000059604644775390625</AltitudeMeters>
            <DistanceMeters>NAN</DistanceMeters>
          </Trackpoint>
          <Trackpoint>
            <Time>2021-08-12T11:39:32.000Z</Time>
            <Position>
              <LatitudeDegrees>43.32334284670650959014892578125</LatitudeDegrees>
              <LongitudeDegrees>-1.9829505868256092071533203125</LongitudeDegrees>
            </Position>
            <AltitudeMeters>-0.4000000059604644775390625</AltitudeMeters>
            <DistanceMeters>NAN</DistanceMeters>
          </Trackpoint>
          <Trackpoint>
            <Time>2021-08-12T11:39:36.000Z</Time>
            <Position>
              <LatitudeDegrees>43.323348462581634521484375</LatitudeDegrees>
              <LongitudeDegrees>-1.9829354993999004364013671875</LongitudeDegrees>
            </Position>
            <AltitudeMeters>-0.20000000298023223876953125</AltitudeMeters>
            <DistanceMeters>NAN</DistanceMeters>
          </Trackpoint>
          <Trackpoint>
            <Time>2021-08-12T11:39:44.000Z</Time>
            <Position>
              <LatitudeDegrees>43.323364891111850738525390625</LatitudeDegrees>
              <LongitudeDegrees>-1.98287741281092166900634765625</LongitudeDegrees>
            </Position>
            <AltitudeMeters>0</AltitudeMeters>
            <DistanceMeters>NAN</DistanceMeters>
          </Trackpoint>
          <Trackpoint>
            <Time>2021-08-12T11:39:48.000Z</Time>
            <Position>
              <LatitudeDegrees>43.323409147560596466064453125</LatitudeDegrees>
              <LongitudeDegrees>-1.98276869952678680419921875</LongitudeDegrees>
            </Position>
            <AltitudeMeters>0</AltitudeMeters>
            <DistanceMeters>NAN</DistanceMeters>
          </Trackpoint>
          <Trackpoint>
            <Time>2021-08-12T11:39:50.000Z</Time>
            <Position>
              <LatitudeDegrees>43.3234106563031673431396484375</LatitudeDegrees>
              <LongitudeDegrees>-1.98270424269139766693115234375</LongitudeDegrees>
            </Position>
            <AltitudeMeters>0</AltitudeMeters>
            <DistanceMeters>NAN</DistanceMeters>
          </Trackpoint>
          <Trackpoint>
            <Time>2021-08-12T11:39:55.000Z</Time>
            <Position>
              <LatitudeDegrees>43.3234302699565887451171875</LatitudeDegrees>
              <LongitudeDegrees>-1.98257331736385822296142578125</LongitudeDegrees>
            </Position>
            <AltitudeMeters>0</AltitudeMeters>
            <DistanceMeters>NAN</DistanceMeters>
          </Trackpoint>
          <Trackpoint>
            <Time>2021-08-12T11:39:56.000Z</Time>
            <Position>
              <LatitudeDegrees>43.32343873567879199981689453125</LatitudeDegrees>
              <LongitudeDegrees>-1.98256191797554492950439453125</LongitudeDegrees>
            </Position>
            <AltitudeMeters>0</AltitudeMeters>
            <DistanceMeters>NAN</DistanceMeters>
          </Trackpoint>
          <Trackpoint>
            <Time>2021-08-12T11:39:57.000Z</Time>
            <Position>
              <LatitudeDegrees>43.32345097325742244720458984375</LatitudeDegrees>
              <LongitudeDegrees>-1.98255202732980251312255859375</LongitudeDegrees>
            </Position>
            <AltitudeMeters>0</AltitudeMeters>
            <DistanceMeters>NAN</DistanceMeters>
          </Trackpoint>
          <Trackpoint>
            <Time>2021-08-12T11:39:58.000Z</Time>
            <Position>
              <LatitudeDegrees>43.32346304319798946380615234375</LatitudeDegrees>
              <LongitudeDegrees>-1.9825415499508380889892578125</LongitudeDegrees>
            </Position>
            <AltitudeMeters>-0.20000000298023223876953125</AltitudeMeters>
            <DistanceMeters>NAN</DistanceMeters>
          </Trackpoint>
          <Trackpoint>
            <Time>2021-08-12T11:39:59.000Z</Time>
            <Position>
              <LatitudeDegrees>43.3234756998717784881591796875</LatitudeDegrees>
              <LongitudeDegrees>-1.98253124020993709564208984375</LongitudeDegrees>
            </Position>
            <AltitudeMeters>-0.20000000298023223876953125</AltitudeMeters>
            <DistanceMeters>NAN</DistanceMeters>
          </Trackpoint>
          <Trackpoint>
            <Time>2021-08-12T11:40:00.000Z</Time>
            <Position>
              <LatitudeDegrees>43.32348634488880634307861328125</LatitudeDegrees>
              <LongitudeDegrees>-1.98252202011644840240478515625</LongitudeDegrees>
            </Position>
            <AltitudeMeters>-0.20000000298023223876953125</AltitudeMeters>
            <DistanceMeters>NAN</DistanceMeters>
          </Trackpoint>
          <Trackpoint>
            <Time>2021-08-12T11:40:01.000Z</Time>
            <Position>
              <LatitudeDegrees>43.32349673844873905181884765625</LatitudeDegrees>
              <LongitudeDegrees>-1.98251112364232540130615234375</LongitudeDegrees>
            </Position>
            <AltitudeMeters>-0.20000000298023223876953125</AltitudeMeters>
            <DistanceMeters>NAN</DistanceMeters>
          </Trackpoint>
          <Trackpoint>
            <Time>2021-08-12T11:40:02.000Z</Time>
            <Position>
              <LatitudeDegrees>43.3235021866858005523681640625</LatitudeDegrees>
              <LongitudeDegrees>-1.98250240646302700042724609375</LongitudeDegrees>
            </Position>
            <AltitudeMeters>-0.4000000059604644775390625</AltitudeMeters>
            <DistanceMeters>NAN</DistanceMeters>
          </Trackpoint>
          <Trackpoint>
            <Time>2021-08-12T11:40:03.000Z</Time>
            <Position>
              <LatitudeDegrees>43.32350646145641803741455078125</LatitudeDegrees>
              <LongitudeDegrees>-1.9824902527034282684326171875</LongitudeDegrees>
            </Position>
            <AltitudeMeters>-0.4000000059604644775390625</AltitudeMeters>
            <DistanceMeters>NAN</DistanceMeters>
          </Trackpoint>
          <Trackpoint>
            <Time>2021-08-12T11:40:04.000Z</Time>
            <Position>
              <LatitudeDegrees>43.3235115744173526763916015625</LatitudeDegrees>
              <LongitudeDegrees>-1.9824808649718761444091796875</LongitudeDegrees>
            </Position>
            <AltitudeMeters>-0.4000000059604644775390625</AltitudeMeters>
            <DistanceMeters>NAN</DistanceMeters>
          </Trackpoint>
          <Trackpoint>
            <Time>2021-08-12T11:40:05.000Z</Time>
            <Position>
              <LatitudeDegrees>43.32351484335958957672119140625</LatitudeDegrees>
              <LongitudeDegrees>-1.98246737010776996612548828125</LongitudeDegrees>
            </Position>
            <AltitudeMeters>-0.4000000059604644775390625</AltitudeMeters>
            <DistanceMeters>NAN</DistanceMeters>
          </Trackpoint>
          <Trackpoint>
            <Time>2021-08-12T11:40:06.000Z</Time>
            <Position>
              <LatitudeDegrees>43.32351987250149250030517578125</LatitudeDegrees>
              <LongitudeDegrees>-1.982452534139156341552734375</LongitudeDegrees>
            </Position>
            <AltitudeMeters>-0.4000000059604644775390625</AltitudeMeters>
            <DistanceMeters>NAN</DistanceMeters>
          </Trackpoint>
          <Trackpoint>
            <Time>2021-08-12T11:40:07.000Z</Time>
            <Position>
              <LatitudeDegrees>43.32352213561534881591796875</LatitudeDegrees>
              <LongitudeDegrees>-1.98243702761828899383544921875</LongitudeDegrees>
            </Position>
            <AltitudeMeters>-0.4000000059604644775390625</AltitudeMeters>
            <DistanceMeters>NAN</DistanceMeters>
          </Trackpoint>
          <Trackpoint>
            <Time>2021-08-12T11:40:08.000Z</Time>
            <Position>
              <LatitudeDegrees>43.32352205179631710052490234375</LatitudeDegrees>
              <LongitudeDegrees>-1.98241640813648700714111328125</LongitudeDegrees>
            </Position>
            <AltitudeMeters>-0.60000002384185791015625</AltitudeMeters>
            <DistanceMeters>NAN</DistanceMeters>
          </Trackpoint>
          <Trackpoint>
            <Time>2021-08-12T11:40:09.000Z</Time>
            <Position>
              <LatitudeDegrees>43.3235212974250316619873046875</LatitudeDegrees>
              <LongitudeDegrees>-1.98238916695117950439453125</LongitudeDegrees>
            </Position>
            <AltitudeMeters>-0.60000002384185791015625</AltitudeMeters>
            <DistanceMeters>NAN</DistanceMeters>
          </Trackpoint>
          <Trackpoint>
            <Time>2021-08-12T11:40:10.000Z</Time>
            <Position>
              <LatitudeDegrees>43.32352138124406337738037109375</LatitudeDegrees>
              <LongitudeDegrees>-1.98236796073615550994873046875</LongitudeDegrees>
            </Position>
            <AltitudeMeters>-0.60000002384185791015625</AltitudeMeters>
            <DistanceMeters>NAN</DistanceMeters>
          </Trackpoint>
          <Trackpoint>
            <Time>2021-08-12T11:40:15.000Z</Time>
            <Position>
              <LatitudeDegrees>43.32355943508446216583251953125</LatitudeDegrees>
              <LongitudeDegrees>-1.98223049752414226531982421875</LongitudeDegrees>
            </Position>
            <AltitudeMeters>-0.60000002384185791015625</AltitudeMeters>
            <DistanceMeters>NAN</DistanceMeters>
          </Trackpoint>
          <Trackpoint>
            <Time>2021-08-12T11:40:16.000Z</Time>
            <Position>
              <LatitudeDegrees>43.3235665597021579742431640625</LatitudeDegrees>
              <LongitudeDegrees>-1.98219738900661468505859375</LongitudeDegrees>
            </Position>
            <AltitudeMeters>-0.60000002384185791015625</AltitudeMeters>
            <DistanceMeters>NAN</DistanceMeters>
          </Trackpoint>
          <Trackpoint>
            <Time>2021-08-12T11:40:22.000Z</Time>
            <Position>
              <LatitudeDegrees>43.3236369676887989044189453125</LatitudeDegrees>
              <LongitudeDegrees>-1.982004940509796142578125</LongitudeDegrees>
            </Position>
            <AltitudeMeters>-0.4000000059604644775390625</AltitudeMeters>
            <DistanceMeters>NAN</DistanceMeters>
          </Trackpoint>
          <Trackpoint>
            <Time>2021-08-12T11:40:24.000Z</Time>
            <Position>
              <LatitudeDegrees>43.32366538234055042266845703125</LatitudeDegrees>
              <LongitudeDegrees>-1.98192355223000049591064453125</LongitudeDegrees>
            </Position>
            <AltitudeMeters>-0.4000000059604644775390625</AltitudeMeters>
            <DistanceMeters>NAN</DistanceMeters>
          </Trackpoint>
          <Trackpoint>
            <Time>2021-08-12T11:40:25.000Z</Time>
            <Position>
              <LatitudeDegrees>43.32367795519530773162841796875</LatitudeDegrees>
              <LongitudeDegrees>-1.98188650421798229217529296875</LongitudeDegrees>
            </Position>
            <AltitudeMeters>-0.20000000298023223876953125</AltitudeMeters>
            <DistanceMeters>NAN</DistanceMeters>
          </Trackpoint>
          <Trackpoint>
            <Time>2021-08-12T11:40:28.000Z</Time>
            <Position>
              <LatitudeDegrees>43.3237124048173427581787109375</LatitudeDegrees>
              <LongitudeDegrees>-1.981790699064731597900390625</LongitudeDegrees>
            </Position>
            <AltitudeMeters>-0.20000000298023223876953125</AltitudeMeters>
            <DistanceMeters>NAN</DistanceMeters>
          </Trackpoint>
          <Trackpoint>
            <Time>2021-08-12T11:40:32.000Z</Time>
            <Position>
              <LatitudeDegrees>43.3237673901021480560302734375</LatitudeDegrees>
              <LongitudeDegrees>-1.981655247509479522705078125</LongitudeDegrees>
            </Position>
            <AltitudeMeters>0</AltitudeMeters>
            <DistanceMeters>NAN</DistanceMeters>
          </Trackpoint>
          <Trackpoint>
            <Time>2021-08-12T11:40:33.000Z</Time>
            <Position>
              <LatitudeDegrees>43.32378138788044452667236328125</LatitudeDegrees>
              <LongitudeDegrees>-1.98162632994353771209716796875</LongitudeDegrees>
            </Position>
            <AltitudeMeters>0.20000000298023223876953125</AltitudeMeters>
            <DistanceMeters>NAN</DistanceMeters>
          </Trackpoint>
          <Trackpoint>
            <Time>2021-08-12T11:40:34.000Z</Time>
            <Position>
              <LatitudeDegrees>43.323795385658740997314453125</LatitudeDegrees>
              <LongitudeDegrees>-1.981597244739532470703125</LongitudeDegrees>
            </Position>
            <AltitudeMeters>0.20000000298023223876953125</AltitudeMeters>
            <DistanceMeters>NAN</DistanceMeters>
          </Trackpoint>
          <Trackpoint>
            <Time>2021-08-12T11:40:35.000Z</Time>
            <Position>
              <LatitudeDegrees>43.323806114494800567626953125</LatitudeDegrees>
              <LongitudeDegrees>-1.98157302103936672210693359375</LongitudeDegrees>
            </Position>
            <AltitudeMeters>0.4000000059604644775390625</AltitudeMeters>
            <DistanceMeters>NAN</DistanceMeters>
          </Trackpoint>
          <Trackpoint>
            <Time>2021-08-12T11:40:36.000Z</Time>
            <Position>
              <LatitudeDegrees>43.3238230459392070770263671875</LatitudeDegrees>
              <LongitudeDegrees>-1.98153899051249027252197265625</LongitudeDegrees>
            </Position>
            <AltitudeMeters>0.4000000059604644775390625</AltitudeMeters>
            <DistanceMeters>NAN</DistanceMeters>
          </Trackpoint>
          <Trackpoint>
            <Time>2021-08-12T11:40:37.000Z</Time>
            <Position>
              <LatitudeDegrees>43.3238367922604084014892578125</LatitudeDegrees>
              <LongitudeDegrees>-1.98151032440364360809326171875</LongitudeDegrees>
            </Position>
            <AltitudeMeters>0.60000002384185791015625</AltitudeMeters>
            <DistanceMeters>NAN</DistanceMeters>
          </Trackpoint>
          <Trackpoint>
            <Time>2021-08-12T11:40:38.000Z</Time>
            <Position>
              <LatitudeDegrees>43.32385070621967315673828125</LatitudeDegrees>
              <LongitudeDegrees>-1.9814765453338623046875</LongitudeDegrees>
            </Position>
            <AltitudeMeters>0.60000002384185791015625</AltitudeMeters>
            <DistanceMeters>NAN</DistanceMeters>
          </Trackpoint>
          <Trackpoint>
            <Time>2021-08-12T11:40:39.000Z</Time>
            <Position>
              <LatitudeDegrees>43.32386068068444728851318359375</LatitudeDegrees>
              <LongitudeDegrees>-1.9814418442547321319580078125</LongitudeDegrees>
            </Position>
            <AltitudeMeters>0.60000002384185791015625</AltitudeMeters>
            <DistanceMeters>NAN</DistanceMeters>
          </Trackpoint>
          <Trackpoint>
            <Time>2021-08-12T11:40:40.000Z</Time>
            <Position>
              <LatitudeDegrees>43.323877193033695220947265625</LatitudeDegrees>
              <LongitudeDegrees>-1.98140890337526798248291015625</LongitudeDegrees>
            </Position>
            <AltitudeMeters>0.800000011920928955078125</AltitudeMeters>
            <DistanceMeters>NAN</DistanceMeters>
          </Trackpoint>
          <Trackpoint>
            <Time>2021-08-12T11:40:41.000Z</Time>
            <Position>
              <LatitudeDegrees>43.32388021051883697509765625</LatitudeDegrees>
              <LongitudeDegrees>-1.981373615562915802001953125</LongitudeDegrees>
            </Position>
            <AltitudeMeters>0.800000011920928955078125</AltitudeMeters>
            <DistanceMeters>NAN</DistanceMeters>
          </Trackpoint>
          <Trackpoint>
            <Time>2021-08-12T11:40:42.000Z</Time>
            <Position>
              <LatitudeDegrees>43.323877863585948944091796875</LatitudeDegrees>
              <LongitudeDegrees>-1.9813479669392108917236328125</LongitudeDegrees>
            </Position>
            <AltitudeMeters>0.800000011920928955078125</AltitudeMeters>
            <DistanceMeters>NAN</DistanceMeters>
          </Trackpoint>
          <Trackpoint>
            <Time>2021-08-12T11:40:43.000Z</Time>
            <Position>
              <LatitudeDegrees>43.323880545794963836669921875</LatitudeDegrees>
              <LongitudeDegrees>-1.9813258387148380279541015625</LongitudeDegrees>
            </Position>
            <AltitudeMeters>0.800000011920928955078125</AltitudeMeters>
            <DistanceMeters>NAN</DistanceMeters>
          </Trackpoint>
          <Trackpoint>
            <Time>2021-08-12T11:40:44.000Z</Time>
            <Position>
              <LatitudeDegrees>43.323889933526515960693359375</LatitudeDegrees>
              <LongitudeDegrees>-1.98130932636559009552001953125</LongitudeDegrees>
            </Position>
            <AltitudeMeters>0.800000011920928955078125</AltitudeMeters>
            <DistanceMeters>NAN</DistanceMeters>
          </Trackpoint>
          <Trackpoint>
            <Time>2021-08-12T11:40:45.000Z</Time>
            <Position>
              <LatitudeDegrees>43.32389806397259235382080078125</LatitudeDegrees>
              <LongitudeDegrees>-1.9812939874827861785888671875</LongitudeDegrees>
            </Position>
            <AltitudeMeters>0.800000011920928955078125</AltitudeMeters>
            <DistanceMeters>NAN</DistanceMeters>
          </Trackpoint>
          <Trackpoint>
            <Time>2021-08-12T11:40:46.000Z</Time>
            <Position>
              <LatitudeDegrees>43.32391231320798397064208984375</LatitudeDegrees>
              <LongitudeDegrees>-1.98127563111484050750732421875</LongitudeDegrees>
            </Position>
            <AltitudeMeters>0.800000011920928955078125</AltitudeMeters>
            <DistanceMeters>NAN</DistanceMeters>
          </Trackpoint>
          <Trackpoint>
            <Time>2021-08-12T11:40:47.000Z</Time>
            <Position>
              <LatitudeDegrees>43.32393117249011993408203125</LatitudeDegrees>
              <LongitudeDegrees>-1.98126490227878093719482421875</LongitudeDegrees>
            </Position>
            <AltitudeMeters>0.800000011920928955078125</AltitudeMeters>
            <DistanceMeters>NAN</DistanceMeters>
          </Trackpoint>
          <Trackpoint>
            <Time>2021-08-12T11:40:48.000Z</Time>
            <Position>
              <LatitudeDegrees>43.32394869066774845123291015625</LatitudeDegrees>
              <LongitudeDegrees>-1.98125182650983333587646484375</LongitudeDegrees>
            </Position>
            <AltitudeMeters>0.800000011920928955078125</AltitudeMeters>
            <DistanceMeters>NAN</DistanceMeters>
          </Trackpoint>
          <Trackpoint>
            <Time>2021-08-12T11:40:49.000Z</Time>
            <Position>
              <LatitudeDegrees>43.3239655382931232452392578125</LatitudeDegrees>
              <LongitudeDegrees>-1.9812359847128391265869140625</LongitudeDegrees>
            </Position>
            <AltitudeMeters>0.800000011920928955078125</AltitudeMeters>
            <DistanceMeters>NAN</DistanceMeters>
          </Trackpoint>
          <Trackpoint>
            <Time>2021-08-12T11:40:50.000Z</Time>
            <Position>
              <LatitudeDegrees>43.32398054189980030059814453125</LatitudeDegrees>
              <LongitudeDegrees>-1.98121578432619571685791015625</LongitudeDegrees>
            </Position>
            <AltitudeMeters>0.800000011920928955078125</AltitudeMeters>
            <DistanceMeters>NAN</DistanceMeters>
          </Trackpoint>
          <Trackpoint>
            <Time>2021-08-12T11:40:51.000Z</Time>
            <Position>
              <LatitudeDegrees>43.32399018108844757080078125</LatitudeDegrees>
              <LongitudeDegrees>-1.98119692504405975341796875</LongitudeDegrees>
            </Position>
            <AltitudeMeters>0.800000011920928955078125</AltitudeMeters>
            <DistanceMeters>NAN</DistanceMeters>
          </Trackpoint>
          <Trackpoint>
            <Time>2021-08-12T11:40:52.000Z</Time>
            <Position>
              <LatitudeDegrees>43.32399152219295501708984375</LatitudeDegrees>
              <LongitudeDegrees>-1.98118083178997039794921875</LongitudeDegrees>
            </Position>
            <AltitudeMeters>0.800000011920928955078125</AltitudeMeters>
            <DistanceMeters>NAN</DistanceMeters>
          </Trackpoint>
          <Trackpoint>
            <Time>2021-08-12T11:40:53.000Z</Time>
            <Position>
              <LatitudeDegrees>43.32399152219295501708984375</LatitudeDegrees>
              <LongitudeDegrees>-1.981169097125530242919921875</LongitudeDegrees>
            </Position>
            <AltitudeMeters>0.800000011920928955078125</AltitudeMeters>
            <DistanceMeters>NAN</DistanceMeters>
          </Trackpoint>
          <Trackpoint>
            <Time>2021-08-12T11:40:54.000Z</Time>
            <Position>
              <LatitudeDegrees>43.32399261184036731719970703125</LatitudeDegrees>
              <LongitudeDegrees>-1.9811602123081684112548828125</LongitudeDegrees>
            </Position>
            <AltitudeMeters>0.800000011920928955078125</AltitudeMeters>
            <DistanceMeters>NAN</DistanceMeters>
          </Trackpoint>
          <Trackpoint>
            <Time>2021-08-12T11:40:55.000Z</Time>
            <Position>
              <LatitudeDegrees>43.3239876665174961090087890625</LatitudeDegrees>
              <LongitudeDegrees>-1.98114353232085704803466796875</LongitudeDegrees>
            </Position>
            <AltitudeMeters>0.800000011920928955078125</AltitudeMeters>
            <DistanceMeters>NAN</DistanceMeters>
          </Trackpoint>
          <Trackpoint>
            <Time>2021-08-12T11:40:56.000Z</Time>
            <Position>
              <LatitudeDegrees>43.3239806257188320159912109375</LatitudeDegrees>
              <LongitudeDegrees>-1.9811332225799560546875</LongitudeDegrees>
            </Position>
            <AltitudeMeters>0.800000011920928955078125</AltitudeMeters>
            <DistanceMeters>NAN</DistanceMeters>
          </Trackpoint>
          <Trackpoint>
            <Time>2021-08-12T11:40:57.000Z</Time>
            <Position>
              <LatitudeDegrees>43.323976099491119384765625</LatitudeDegrees>
              <LongitudeDegrees>-1.981125175952911376953125</LongitudeDegrees>
            </Position>
            <AltitudeMeters>0.800000011920928955078125</AltitudeMeters>
            <DistanceMeters>NAN</DistanceMeters>
          </Trackpoint>
          <Trackpoint>
            <Time>2021-08-12T11:41:00.000Z</Time>
            <Position>
              <LatitudeDegrees>43.32397735677659511566162109375</LatitudeDegrees>
              <LongitudeDegrees>-1.98112006299197673797607421875</LongitudeDegrees>
            </Position>
            <AltitudeMeters>0.800000011920928955078125</AltitudeMeters>
            <DistanceMeters>NAN</DistanceMeters>
          </Trackpoint>
          <Trackpoint>
            <Time>2021-08-12T11:41:30.000Z</Time>
            <Position>
              <LatitudeDegrees>43.323969729244709014892578125</LatitudeDegrees>
              <LongitudeDegrees>-1.98112023063004016876220703125</LongitudeDegrees>
            </Position>
            <AltitudeMeters>0.60000002384185791015625</AltitudeMeters>
            <DistanceMeters>NAN</DistanceMeters>
          </Trackpoint>
          <Trackpoint>
            <Time>2021-08-12T11:42:18.000Z</Time>
            <Position>
              <LatitudeDegrees>43.3239434100687503814697265625</LatitudeDegrees>
              <LongitudeDegrees>-1.981112100183963775634765625</LongitudeDegrees>
            </Position>
            <AltitudeMeters>0.800000011920928955078125</AltitudeMeters>
            <DistanceMeters>NAN</DistanceMeters>
          </Trackpoint>
          <Trackpoint>
            <Time>2021-08-12T11:42:20.000Z</Time>
            <Position>
              <LatitudeDegrees>43.32391935400664806365966796875</LatitudeDegrees>
              <LongitudeDegrees>-1.98111033998429775238037109375</LongitudeDegrees>
            </Position>
            <AltitudeMeters>0.800000011920928955078125</AltitudeMeters>
            <DistanceMeters>NAN</DistanceMeters>
          </Trackpoint>
          <Trackpoint>
            <Time>2021-08-12T11:42:21.000Z</Time>
            <Position>
              <LatitudeDegrees>43.3238974772393703460693359375</LatitudeDegrees>
              <LongitudeDegrees>-1.9811022095382213592529296875</LongitudeDegrees>
            </Position>
            <AltitudeMeters>0.800000011920928955078125</AltitudeMeters>
            <DistanceMeters>NAN</DistanceMeters>
          </Trackpoint>
          <Trackpoint>
            <Time>2021-08-12T11:42:22.000Z</Time>
            <Position>
              <LatitudeDegrees>43.323873840272426605224609375</LatitudeDegrees>
              <LongitudeDegrees>-1.981089301407337188720703125</LongitudeDegrees>
            </Position>
            <AltitudeMeters>0.800000011920928955078125</AltitudeMeters>
            <DistanceMeters>NAN</DistanceMeters>
          </Trackpoint>
          <Trackpoint>
            <Time>2021-08-12T11:42:23.000Z</Time>
            <Position>
              <LatitudeDegrees>43.32385347224771976470947265625</LatitudeDegrees>
              <LongitudeDegrees>-1.98107781819999217987060546875</LongitudeDegrees>
            </Position>
            <AltitudeMeters>0.800000011920928955078125</AltitudeMeters>
            <DistanceMeters>NAN</DistanceMeters>
          </Trackpoint>
          <Trackpoint>
            <Time>2021-08-12T11:42:24.000Z</Time>
            <Position>
              <LatitudeDegrees>43.3238223753869533538818359375</LatitudeDegrees>
              <LongitudeDegrees>-1.98105879127979278564453125</LongitudeDegrees>
            </Position>
            <AltitudeMeters>0.800000011920928955078125</AltitudeMeters>
            <DistanceMeters>NAN</DistanceMeters>
          </Trackpoint>
          <Trackpoint>
            <Time>2021-08-12T11:42:26.000Z</Time>
            <Position>
              <LatitudeDegrees>43.3237683959305286407470703125</LatitudeDegrees>
              <LongitudeDegrees>-1.98102635331451892852783203125</LongitudeDegrees>
            </Position>
            <AltitudeMeters>0.800000011920928955078125</AltitudeMeters>
            <DistanceMeters>NAN</DistanceMeters>
          </Trackpoint>
          <Trackpoint>
            <Time>2021-08-12T11:42:30.000Z</Time>
            <Position>
              <LatitudeDegrees>43.32364442758262157440185546875</LatitudeDegrees>
              <LongitudeDegrees>-1.98094840161502361297607421875</LongitudeDegrees>
            </Position>
            <AltitudeMeters>0.60000002384185791015625</AltitudeMeters>
            <DistanceMeters>NAN</DistanceMeters>
          </Trackpoint>
          <Trackpoint>
            <Time>2021-08-12T11:42:31.000Z</Time>
            <Position>
              <LatitudeDegrees>43.32361458800733089447021484375</LatitudeDegrees>
              <LongitudeDegrees>-1.98092878796160221099853515625</LongitudeDegrees>
            </Position>
            <AltitudeMeters>0.60000002384185791015625</AltitudeMeters>
            <DistanceMeters>NAN</DistanceMeters>
          </Trackpoint>
          <Trackpoint>
            <Time>2021-08-12T11:42:36.000Z</Time>
            <Position>
              <LatitudeDegrees>43.32348265685141086578369140625</LatitudeDegrees>
              <LongitudeDegrees>-1.9808413647115230560302734375</LongitudeDegrees>
            </Position>
            <AltitudeMeters>0.800000011920928955078125</AltitudeMeters>
            <DistanceMeters>NAN</DistanceMeters>
          </Trackpoint>
          <Trackpoint>
            <Time>2021-08-12T11:42:37.000Z</Time>
            <Position>
              <LatitudeDegrees>43.32346069626510143280029296875</LatitudeDegrees>
              <LongitudeDegrees>-1.98082652874290943145751953125</LongitudeDegrees>
            </Position>
            <AltitudeMeters>0.800000011920928955078125</AltitudeMeters>
            <DistanceMeters>NAN</DistanceMeters>
          </Trackpoint>
          <Trackpoint>
            <Time>2021-08-12T11:42:39.000Z</Time>
            <Position>
              <LatitudeDegrees>43.32342046312987804412841796875</LatitudeDegrees>
              <LongitudeDegrees>-1.98079518042504787445068359375</LongitudeDegrees>
            </Position>
            <AltitudeMeters>1</AltitudeMeters>
            <DistanceMeters>NAN</DistanceMeters>
          </Trackpoint>
          <Trackpoint>
            <Time>2021-08-12T11:42:40.000Z</Time>
            <Position>
              <LatitudeDegrees>43.3233995921909809112548828125</LatitudeDegrees>
              <LongitudeDegrees>-1.98078528977930545806884765625</LongitudeDegrees>
            </Position>
            <AltitudeMeters>1</AltitudeMeters>
            <DistanceMeters>NAN</DistanceMeters>
          </Trackpoint>
          <Trackpoint>
            <Time>2021-08-12T11:42:41.000Z</Time>
            <Position>
              <LatitudeDegrees>43.32338140346109867095947265625</LatitudeDegrees>
              <LongitudeDegrees>-1.98077271692454814910888671875</LongitudeDegrees>
            </Position>
            <AltitudeMeters>1</AltitudeMeters>
            <DistanceMeters>NAN</DistanceMeters>
          </Trackpoint>
          <Trackpoint>
            <Time>2021-08-12T11:42:42.000Z</Time>
            <Position>
              <LatitudeDegrees>43.32337151281535625457763671875</LatitudeDegrees>
              <LongitudeDegrees>-1.980758719146251678466796875</LongitudeDegrees>
            </Position>
            <AltitudeMeters>1</AltitudeMeters>
            <DistanceMeters>NAN</DistanceMeters>
          </Trackpoint>
          <Trackpoint>
            <Time>2021-08-12T11:42:43.000Z</Time>
            <Position>
              <LatitudeDegrees>43.3233660645782947540283203125</LatitudeDegrees>
              <LongitudeDegrees>-1.98075360618531703948974609375</LongitudeDegrees>
            </Position>
            <AltitudeMeters>1.2000000476837158203125</AltitudeMeters>
            <DistanceMeters>NAN</DistanceMeters>
          </Trackpoint>
          <Trackpoint>
            <Time>2021-08-12T11:42:44.000Z</Time>
            <Position>
              <LatitudeDegrees>43.3233566768467426300048828125</LatitudeDegrees>
              <LongitudeDegrees>-1.980751343071460723876953125</LongitudeDegrees>
            </Position>
            <AltitudeMeters>1.2000000476837158203125</AltitudeMeters>
            <DistanceMeters>NAN</DistanceMeters>
          </Trackpoint>
          <Trackpoint>
            <Time>2021-08-12T11:42:45.000Z</Time>
            <Position>
              <LatitudeDegrees>43.32334754057228565216064453125</LatitudeDegrees>
              <LongitudeDegrees>-1.98074321262538433074951171875</LongitudeDegrees>
            </Position>
            <AltitudeMeters>1.2000000476837158203125</AltitudeMeters>
            <DistanceMeters>NAN</DistanceMeters>
          </Trackpoint>
          <Trackpoint>
            <Time>2021-08-12T11:42:46.000Z</Time>
            <Position>
              <LatitudeDegrees>43.32333974540233612060546875</LatitudeDegrees>
              <LongitudeDegrees>-1.9807349145412445068359375</LongitudeDegrees>
            </Position>
            <AltitudeMeters>1.2000000476837158203125</AltitudeMeters>
            <DistanceMeters>NAN</DistanceMeters>
          </Trackpoint>
          <Trackpoint>
            <Time>2021-08-12T11:42:50.000Z</Time>
            <Position>
              <LatitudeDegrees>43.32330378703773021697998046875</LatitudeDegrees>
              <LongitudeDegrees>-1.9806938432157039642333984375</LongitudeDegrees>
            </Position>
            <AltitudeMeters>1.39999997615814208984375</AltitudeMeters>
            <DistanceMeters>NAN</DistanceMeters>
          </Trackpoint>
          <Trackpoint>
            <Time>2021-08-12T11:42:51.000Z</Time>
            <Position>
              <LatitudeDegrees>43.32330546341836452484130859375</LatitudeDegrees>
              <LongitudeDegrees>-1.9806646741926670074462890625</LongitudeDegrees>
            </Position>
            <AltitudeMeters>1.39999997615814208984375</AltitudeMeters>
            <DistanceMeters>NAN</DistanceMeters>
          </Trackpoint>
          <Trackpoint>
            <Time>2021-08-12T11:42:52.000Z</Time>
            <Position>
              <LatitudeDegrees>43.323313258588314056396484375</LatitudeDegrees>
              <LongitudeDegrees>-1.9806398637592792510986328125</LongitudeDegrees>
            </Position>
            <AltitudeMeters>1.39999997615814208984375</AltitudeMeters>
            <DistanceMeters>NAN</DistanceMeters>
          </Trackpoint>
          <Trackpoint>
            <Time>2021-08-12T11:42:54.000Z</Time>
            <Position>
              <LatitudeDegrees>43.32333832047879695892333984375</LatitudeDegrees>
              <LongitudeDegrees>-1.9805835373699665069580078125</LongitudeDegrees>
            </Position>
            <AltitudeMeters>1.39999997615814208984375</AltitudeMeters>
            <DistanceMeters>NAN</DistanceMeters>
          </Trackpoint>
          <Trackpoint>
            <Time>2021-08-12T11:42:55.000Z</Time>
            <Position>
              <LatitudeDegrees>43.3233516477048397064208984375</LatitudeDegrees>
              <LongitudeDegrees>-1.98055143468081951141357421875</LongitudeDegrees>
            </Position>
            <AltitudeMeters>1.39999997615814208984375</AltitudeMeters>
            <DistanceMeters>NAN</DistanceMeters>
          </Trackpoint>
          <Trackpoint>
            <Time>2021-08-12T11:42:57.000Z</Time>
            <Position>
              <LatitudeDegrees>43.3233794756233692169189453125</LatitudeDegrees>
              <LongitudeDegrees>-1.98047943413257598876953125</LongitudeDegrees>
            </Position>
            <AltitudeMeters>1.39999997615814208984375</AltitudeMeters>
            <DistanceMeters>NAN</DistanceMeters>
          </Trackpoint>
          <Trackpoint>
            <Time>2021-08-12T11:42:59.000Z</Time>
            <Position>
              <LatitudeDegrees>43.32340839318931102752685546875</LatitudeDegrees>
              <LongitudeDegrees>-1.9804061762988567352294921875</LongitudeDegrees>
            </Position>
            <AltitudeMeters>1.39999997615814208984375</AltitudeMeters>
            <DistanceMeters>NAN</DistanceMeters>
          </Trackpoint>
          <Trackpoint>
            <Time>2021-08-12T11:43:00.000Z</Time>
            <Position>
              <LatitudeDegrees>43.3234187029302120208740234375</LatitudeDegrees>
              <LongitudeDegrees>-1.98038027621805667877197265625</LongitudeDegrees>
            </Position>
            <AltitudeMeters>1.39999997615814208984375</AltitudeMeters>
            <DistanceMeters>NAN</DistanceMeters>
          </Trackpoint>
          <Trackpoint>
            <Time>2021-08-12T11:43:01.000Z</Time>
            <Position>
              <LatitudeDegrees>43.3234314434230327606201171875</LatitudeDegrees>
              <LongitudeDegrees>-1.98034792207181453704833984375</LongitudeDegrees>
            </Position>
            <AltitudeMeters>1.39999997615814208984375</AltitudeMeters>
            <DistanceMeters>NAN</DistanceMeters>
          </Trackpoint>
          <Trackpoint>
            <Time>2021-08-12T11:43:05.000Z</Time>
            <Position>
              <LatitudeDegrees>43.32347528077661991119384765625</LatitudeDegrees>
              <LongitudeDegrees>-1.980230323970317840576171875</LongitudeDegrees>
            </Position>
            <AltitudeMeters>1.39999997615814208984375</AltitudeMeters>
            <DistanceMeters>NAN</DistanceMeters>
          </Trackpoint>
          <Trackpoint>
            <Time>2021-08-12T11:43:06.000Z</Time>
            <Position>
              <LatitudeDegrees>43.323485590517520904541015625</LatitudeDegrees>
              <LongitudeDegrees>-1.9802043400704860687255859375</LongitudeDegrees>
            </Position>
            <AltitudeMeters>1.39999997615814208984375</AltitudeMeters>
            <DistanceMeters>NAN</DistanceMeters>
          </Trackpoint>
          <Trackpoint>
            <Time>2021-08-12T11:43:07.000Z</Time>
            <Position>
              <LatitudeDegrees>43.32349673844873905181884765625</LatitudeDegrees>
              <LongitudeDegrees>-1.98017902672290802001953125</LongitudeDegrees>
            </Position>
            <AltitudeMeters>1.39999997615814208984375</AltitudeMeters>
            <DistanceMeters>NAN</DistanceMeters>
          </Trackpoint>
          <Trackpoint>
            <Time>2021-08-12T11:43:08.000Z</Time>
            <Position>
              <LatitudeDegrees>43.32350931130349636077880859375</LatitudeDegrees>
              <LongitudeDegrees>-1.98014943860471248626708984375</LongitudeDegrees>
            </Position>
            <AltitudeMeters>1.39999997615814208984375</AltitudeMeters>
            <DistanceMeters>NAN</DistanceMeters>
          </Trackpoint>
          <Trackpoint>
            <Time>2021-08-12T11:43:09.000Z</Time>
            <Position>
              <LatitudeDegrees>43.32351802848279476165771484375</LatitudeDegrees>
              <LongitudeDegrees>-1.98012538254261016845703125</LongitudeDegrees>
            </Position>
            <AltitudeMeters>1.39999997615814208984375</AltitudeMeters>
            <DistanceMeters>NAN</DistanceMeters>
          </Trackpoint>
          <Trackpoint>
            <Time>2021-08-12T11:43:10.000Z</Time>
            <Position>
              <LatitudeDegrees>43.32352590747177600860595703125</LatitudeDegrees>
              <LongitudeDegrees>-1.9801064394414424896240234375</LongitudeDegrees>
            </Position>
            <AltitudeMeters>1.39999997615814208984375</AltitudeMeters>
            <DistanceMeters>NAN</DistanceMeters>
          </Trackpoint>
          <Trackpoint>
            <Time>2021-08-12T11:43:11.000Z</Time>
            <Position>
              <LatitudeDegrees>43.323535881936550140380859375</LatitudeDegrees>
              <LongitudeDegrees>-1.9800769351422786712646484375</LongitudeDegrees>
            </Position>
            <AltitudeMeters>1.60000002384185791015625</AltitudeMeters>
            <DistanceMeters>NAN</DistanceMeters>
          </Trackpoint>
          <Trackpoint>
            <Time>2021-08-12T11:43:12.000Z</Time>
            <Position>
              <LatitudeDegrees>43.323541581630706787109375</LatitudeDegrees>
              <LongitudeDegrees>-1.98005707003176212310791015625</LongitudeDegrees>
            </Position>
            <AltitudeMeters>1.60000002384185791015625</AltitudeMeters>
            <DistanceMeters>NAN</DistanceMeters>
          </Trackpoint>
          <Trackpoint>
            <Time>2021-08-12T11:43:13.000Z</Time>
            <Position>
              <LatitudeDegrees>43.3235541544854640960693359375</LatitudeDegrees>
              <LongitudeDegrees>-1.98002387769520282745361328125</LongitudeDegrees>
            </Position>
            <AltitudeMeters>1.60000002384185791015625</AltitudeMeters>
            <DistanceMeters>NAN</DistanceMeters>
          </Trackpoint>
          <Trackpoint>
            <Time>2021-08-12T11:43:14.000Z</Time>
            <Position>
              <LatitudeDegrees>43.323568068444728851318359375</LatitudeDegrees>
              <LongitudeDegrees>-1.9799921102821826934814453125</LongitudeDegrees>
            </Position>
            <AltitudeMeters>1.60000002384185791015625</AltitudeMeters>
            <DistanceMeters>NAN</DistanceMeters>
          </Trackpoint>
          <Trackpoint>
            <Time>2021-08-12T11:43:15.000Z</Time>
            <Position>
              <LatitudeDegrees>43.3235823176801204681396484375</LatitudeDegrees>
              <LongitudeDegrees>-1.9799595884978771209716796875</LongitudeDegrees>
            </Position>
            <AltitudeMeters>1.60000002384185791015625</AltitudeMeters>
            <DistanceMeters>NAN</DistanceMeters>
          </Trackpoint>
          <Trackpoint>
            <Time>2021-08-12T11:43:21.000Z</Time>
            <Position>
              <LatitudeDegrees>43.32364761270582675933837890625</LatitudeDegrees>
              <LongitudeDegrees>-1.97976789437234401702880859375</LongitudeDegrees>
            </Position>
            <AltitudeMeters>1.60000002384185791015625</AltitudeMeters>
            <DistanceMeters>NAN</DistanceMeters>
          </Trackpoint>
          <Trackpoint>
            <Time>2021-08-12T11:43:26.000Z</Time>
            <Position>
              <LatitudeDegrees>43.32370913587510585784912109375</LatitudeDegrees>
              <LongitudeDegrees>-1.9796052016317844390869140625</LongitudeDegrees>
            </Position>
            <AltitudeMeters>1.60000002384185791015625</AltitudeMeters>
            <DistanceMeters>NAN</DistanceMeters>
          </Trackpoint>
          <Trackpoint>
            <Time>2021-08-12T11:43:27.000Z</Time>
            <Position>
              <LatitudeDegrees>43.3237187750637531280517578125</LatitudeDegrees>
              <LongitudeDegrees>-1.97957896627485752105712890625</LongitudeDegrees>
            </Position>
            <AltitudeMeters>1.60000002384185791015625</AltitudeMeters>
            <DistanceMeters>NAN</DistanceMeters>
          </Trackpoint>
          <Trackpoint>
            <Time>2021-08-12T11:43:28.000Z</Time>
            <Position>
              <LatitudeDegrees>43.323732353746891021728515625</LatitudeDegrees>
              <LongitudeDegrees>-1.97954870760440826416015625</LongitudeDegrees>
            </Position>
            <AltitudeMeters>1.60000002384185791015625</AltitudeMeters>
            <DistanceMeters>NAN</DistanceMeters>
          </Trackpoint>
          <Trackpoint>
            <Time>2021-08-12T11:43:29.000Z</Time>
            <Position>
              <LatitudeDegrees>43.323745429515838623046875</LatitudeDegrees>
              <LongitudeDegrees>-1.9795163534581661224365234375</LongitudeDegrees>
            </Position>
            <AltitudeMeters>1.60000002384185791015625</AltitudeMeters>
            <DistanceMeters>NAN</DistanceMeters>
          </Trackpoint>
          <Trackpoint>
            <Time>2021-08-12T11:43:30.000Z</Time>
            <Position>
              <LatitudeDegrees>43.323755152523517608642578125</LatitudeDegrees>
              <LongitudeDegrees>-1.97948508895933628082275390625</LongitudeDegrees>
            </Position>
            <AltitudeMeters>1.39999997615814208984375</AltitudeMeters>
            <DistanceMeters>NAN</DistanceMeters>
          </Trackpoint>
          <Trackpoint>
            <Time>2021-08-12T11:43:31.000Z</Time>
            <Position>
              <LatitudeDegrees>43.32376529462635517120361328125</LatitudeDegrees>
              <LongitudeDegrees>-1.9794556684792041778564453125</LongitudeDegrees>
            </Position>
            <AltitudeMeters>1.39999997615814208984375</AltitudeMeters>
            <DistanceMeters>NAN</DistanceMeters>
          </Trackpoint>
          <Trackpoint>
            <Time>2021-08-12T11:43:32.000Z</Time>
            <Position>
              <LatitudeDegrees>43.32377283833920955657958984375</LatitudeDegrees>
              <LongitudeDegrees>-1.979435384273529052734375</LongitudeDegrees>
            </Position>
            <AltitudeMeters>1.39999997615814208984375</AltitudeMeters>
            <DistanceMeters>NAN</DistanceMeters>
          </Trackpoint>
          <Trackpoint>
            <Time>2021-08-12T11:43:33.000Z</Time>
            <Position>
              <LatitudeDegrees>43.32378499209880828857421875</LatitudeDegrees>
              <LongitudeDegrees>-1.9794072210788726806640625</LongitudeDegrees>
            </Position>
            <AltitudeMeters>1.39999997615814208984375</AltitudeMeters>
            <DistanceMeters>NAN</DistanceMeters>
          </Trackpoint>
          <Trackpoint>
            <Time>2021-08-12T11:43:34.000Z</Time>
            <Position>
              <LatitudeDegrees>43.32379530183970928192138671875</LatitudeDegrees>
              <LongitudeDegrees>-1.9793845899403095245361328125</LongitudeDegrees>
            </Position>
            <AltitudeMeters>1.39999997615814208984375</AltitudeMeters>
            <DistanceMeters>NAN</DistanceMeters>
          </Trackpoint>
          <Trackpoint>
            <Time>2021-08-12T11:43:35.000Z</Time>
            <Position>
              <LatitudeDegrees>43.323807455599308013916015625</LatitudeDegrees>
              <LongitudeDegrees>-1.97936757467687129974365234375</LongitudeDegrees>
            </Position>
            <AltitudeMeters>1.39999997615814208984375</AltitudeMeters>
            <DistanceMeters>NAN</DistanceMeters>
          </Trackpoint>
          <Trackpoint>
            <Time>2021-08-12T11:43:36.000Z</Time>
            <Position>
              <LatitudeDegrees>43.32382698543369770050048828125</LatitudeDegrees>
              <LongitudeDegrees>-1.979361288249492645263671875</LongitudeDegrees>
            </Position>
            <AltitudeMeters>1.2000000476837158203125</AltitudeMeters>
            <DistanceMeters>NAN</DistanceMeters>
          </Trackpoint>
          <Trackpoint>
            <Time>2021-08-12T11:43:37.000Z</Time>
            <Position>
              <LatitudeDegrees>43.32382698543369770050048828125</LatitudeDegrees>
              <LongitudeDegrees>-1.979361288249492645263671875</LongitudeDegrees>
            </Position>
            <AltitudeMeters>1.2000000476837158203125</AltitudeMeters>
            <DistanceMeters>NAN</DistanceMeters>
          </Trackpoint>
          <Trackpoint>
            <Time>2021-08-12T11:43:38.000Z</Time>
            <Position>
              <LatitudeDegrees>43.3238693140447139739990234375</LatitudeDegrees>
              <LongitudeDegrees>-1.9793748669326305389404296875</LongitudeDegrees>
            </Position>
            <AltitudeMeters>1.2000000476837158203125</AltitudeMeters>
            <DistanceMeters>NAN</DistanceMeters>
          </Trackpoint>
          <Trackpoint>
            <Time>2021-08-12T11:43:39.000Z</Time>
            <Position>
              <LatitudeDegrees>43.3238864131271839141845703125</LatitudeDegrees>
              <LongitudeDegrees>-1.97938651777803897857666015625</LongitudeDegrees>
            </Position>
            <AltitudeMeters>1.2000000476837158203125</AltitudeMeters>
            <DistanceMeters>NAN</DistanceMeters>
          </Trackpoint>
          <Trackpoint>
            <Time>2021-08-12T11:43:40.000Z</Time>
            <Position>
              <LatitudeDegrees>43.32390175200998783111572265625</LatitudeDegrees>
              <LongitudeDegrees>-1.9793980009853839874267578125</LongitudeDegrees>
            </Position>
            <AltitudeMeters>1.2000000476837158203125</AltitudeMeters>
            <DistanceMeters>NAN</DistanceMeters>
          </Trackpoint>
          <Trackpoint>
            <Time>2021-08-12T11:43:41.000Z</Time>
            <Position>
              <LatitudeDegrees>43.3239189349114894866943359375</LatitudeDegrees>
              <LongitudeDegrees>-1.9794090650975704193115234375</LongitudeDegrees>
            </Position>
            <AltitudeMeters>1.2000000476837158203125</AltitudeMeters>
            <DistanceMeters>NAN</DistanceMeters>
          </Trackpoint>
          <Trackpoint>
            <Time>2021-08-12T11:43:42.000Z</Time>
            <Position>
              <LatitudeDegrees>43.32393293268978595733642578125</LatitudeDegrees>
              <LongitudeDegrees>-1.97941887192428112030029296875</LongitudeDegrees>
            </Position>
            <AltitudeMeters>1.2000000476837158203125</AltitudeMeters>
            <DistanceMeters>NAN</DistanceMeters>
          </Trackpoint>
          <Trackpoint>
            <Time>2021-08-12T11:43:43.000Z</Time>
            <Position>
              <LatitudeDegrees>43.32395439036190509796142578125</LatitudeDegrees>
              <LongitudeDegrees>-1.9794340431690216064453125</LongitudeDegrees>
            </Position>
            <AltitudeMeters>1.2000000476837158203125</AltitudeMeters>
            <DistanceMeters>NAN</DistanceMeters>
          </Trackpoint>
          <Trackpoint>
            <Time>2021-08-12T11:43:44.000Z</Time>
            <Position>
              <LatitudeDegrees>43.32397249527275562286376953125</LatitudeDegrees>
              <LongitudeDegrees>-1.97944544255733489990234375</LongitudeDegrees>
            </Position>
            <AltitudeMeters>1.39999997615814208984375</AltitudeMeters>
            <DistanceMeters>NAN</DistanceMeters>
          </Trackpoint>
          <Trackpoint>
            <Time>2021-08-12T11:43:47.000Z</Time>
            <Position>
              <LatitudeDegrees>43.3240211941301822662353515625</LatitudeDegrees>
              <LongitudeDegrees>-1.97948894463479518890380859375</LongitudeDegrees>
            </Position>
            <AltitudeMeters>1.2000000476837158203125</AltitudeMeters>
            <DistanceMeters>NAN</DistanceMeters>
          </Trackpoint>
          <Trackpoint>
            <Time>2021-08-12T11:43:48.000Z</Time>
            <Position>
              <LatitudeDegrees>43.3240403048694133758544921875</LatitudeDegrees>
              <LongitudeDegrees>-1.97950101457536220550537109375</LongitudeDegrees>
            </Position>
            <AltitudeMeters>1.2000000476837158203125</AltitudeMeters>
            <DistanceMeters>NAN</DistanceMeters>
          </Trackpoint>
          <Trackpoint>
            <Time>2021-08-12T11:43:49.000Z</Time>
            <Position>
              <LatitudeDegrees>43.3240587450563907623291015625</LatitudeDegrees>
              <LongitudeDegrees>-1.9795140065252780914306640625</LongitudeDegrees>
            </Position>
            <AltitudeMeters>1.2000000476837158203125</AltitudeMeters>
            <DistanceMeters>NAN</DistanceMeters>
          </Trackpoint>
          <Trackpoint>
            <Time>2021-08-12T11:43:50.000Z</Time>
            <Position>
              <LatitudeDegrees>43.3240798674523830413818359375</LatitudeDegrees>
              <LongitudeDegrees>-1.97953018359839916229248046875</LongitudeDegrees>
            </Position>
            <AltitudeMeters>1.2000000476837158203125</AltitudeMeters>
            <DistanceMeters>NAN</DistanceMeters>
          </Trackpoint>
          <Trackpoint>
            <Time>2021-08-12T11:43:56.000Z</Time>
            <Position>
              <LatitudeDegrees>43.32421657629311084747314453125</LatitudeDegrees>
              <LongitudeDegrees>-1.97959824465215206146240234375</LongitudeDegrees>
            </Position>
            <AltitudeMeters>1.2000000476837158203125</AltitudeMeters>
            <DistanceMeters>NAN</DistanceMeters>
          </Trackpoint>
          <Trackpoint>
            <Time>2021-08-12T11:43:59.000Z</Time>
            <Position>
              <LatitudeDegrees>43.3242910914123058319091796875</LatitudeDegrees>
              <LongitudeDegrees>-1.97963797487318515777587890625</LongitudeDegrees>
            </Position>
            <AltitudeMeters>1.39999997615814208984375</AltitudeMeters>
            <DistanceMeters>NAN</DistanceMeters>
          </Trackpoint>
          <Trackpoint>
            <Time>2021-08-12T11:44:01.000Z</Time>
            <Position>
              <LatitudeDegrees>43.3243387006223201751708984375</LatitudeDegrees>
              <LongitudeDegrees>-1.97968038730323314666748046875</LongitudeDegrees>
            </Position>
            <AltitudeMeters>1.39999997615814208984375</AltitudeMeters>
            <DistanceMeters>NAN</DistanceMeters>
          </Trackpoint>
          <Trackpoint>
            <Time>2021-08-12T11:44:02.000Z</Time>
            <Position>
              <LatitudeDegrees>43.324357978999614715576171875</LatitudeDegrees>
              <LongitudeDegrees>-1.97970067150890827178955078125</LongitudeDegrees>
            </Position>
            <AltitudeMeters>1.60000002384185791015625</AltitudeMeters>
            <DistanceMeters>NAN</DistanceMeters>
          </Trackpoint>
          <Trackpoint>
            <Time>2021-08-12T11:44:04.000Z</Time>
            <Position>
              <LatitudeDegrees>43.32438714802265167236328125</LatitudeDegrees>
              <LongitudeDegrees>-1.97973738424479961395263671875</LongitudeDegrees>
            </Position>
            <AltitudeMeters>1.60000002384185791015625</AltitudeMeters>
            <DistanceMeters>NAN</DistanceMeters>
          </Trackpoint>
          <Trackpoint>
            <Time>2021-08-12T11:44:05.000Z</Time>
            <Position>
              <LatitudeDegrees>43.324397541582584381103515625</LatitudeDegrees>
              <LongitudeDegrees>-1.979755572974681854248046875</LongitudeDegrees>
            </Position>
            <AltitudeMeters>1.60000002384185791015625</AltitudeMeters>
            <DistanceMeters>NAN</DistanceMeters>
          </Trackpoint>
          <Trackpoint>
            <Time>2021-08-12T11:44:06.000Z</Time>
            <Position>
              <LatitudeDegrees>43.3244181610643863677978515625</LatitudeDegrees>
              <LongitudeDegrees>-1.97976722382009029388427734375</LongitudeDegrees>
            </Position>
            <AltitudeMeters>1.60000002384185791015625</AltitudeMeters>
            <DistanceMeters>NAN</DistanceMeters>
          </Trackpoint>
          <Trackpoint>
            <Time>2021-08-12T11:44:08.000Z</Time>
            <Position>
              <LatitudeDegrees>43.32446803338825702667236328125</LatitudeDegrees>
              <LongitudeDegrees>-1.97978097014129161834716796875</LongitudeDegrees>
            </Position>
            <AltitudeMeters>1.7999999523162841796875</AltitudeMeters>
            <DistanceMeters>NAN</DistanceMeters>
          </Trackpoint>
          <Trackpoint>
            <Time>2021-08-12T11:44:09.000Z</Time>
            <Position>
              <LatitudeDegrees>43.32449217326939105987548828125</LatitudeDegrees>
              <LongitudeDegrees>-1.97978666983544826507568359375</LongitudeDegrees>
            </Position>
            <AltitudeMeters>1.7999999523162841796875</AltitudeMeters>
            <DistanceMeters>NAN</DistanceMeters>
          </Trackpoint>
          <Trackpoint>
            <Time>2021-08-12T11:44:10.000Z</Time>
            <Position>
              <LatitudeDegrees>43.32451648078858852386474609375</LatitudeDegrees>
              <LongitudeDegrees>-1.979787759482860565185546875</LongitudeDegrees>
            </Position>
            <AltitudeMeters>1.7999999523162841796875</AltitudeMeters>
            <DistanceMeters>NAN</DistanceMeters>
          </Trackpoint>
          <Trackpoint>
            <Time>2021-08-12T11:44:11.000Z</Time>
            <Position>
              <LatitudeDegrees>43.32454095594584941864013671875</LatitudeDegrees>
              <LongitudeDegrees>-1.97978650219738483428955078125</LongitudeDegrees>
            </Position>
            <AltitudeMeters>1.7999999523162841796875</AltitudeMeters>
            <DistanceMeters>NAN</DistanceMeters>
          </Trackpoint>
          <Trackpoint>
            <Time>2021-08-12T11:44:12.000Z</Time>
            <Position>
              <LatitudeDegrees>43.32456476055085659027099609375</LatitudeDegrees>
              <LongitudeDegrees>-1.97978398762643337249755859375</LongitudeDegrees>
            </Position>
            <AltitudeMeters>2</AltitudeMeters>
            <DistanceMeters>NAN</DistanceMeters>
          </Trackpoint>
          <Trackpoint>
            <Time>2021-08-12T11:44:13.000Z</Time>
            <Position>
              <LatitudeDegrees>43.32458437420427799224853515625</LatitudeDegrees>
              <LongitudeDegrees>-1.9797854125499725341796875</LongitudeDegrees>
            </Position>
            <AltitudeMeters>2</AltitudeMeters>
            <DistanceMeters>NAN</DistanceMeters>
          </Trackpoint>
          <Trackpoint>
            <Time>2021-08-12T11:44:14.000Z</Time>
            <Position>
              <LatitudeDegrees>43.324598371982574462890625</LatitudeDegrees>
              <LongitudeDegrees>-1.97979991324245929718017578125</LongitudeDegrees>
            </Position>
            <AltitudeMeters>2</AltitudeMeters>
            <DistanceMeters>NAN</DistanceMeters>
          </Trackpoint>
          <Trackpoint>
            <Time>2021-08-12T11:44:15.000Z</Time>
            <Position>
              <LatitudeDegrees>43.3246131241321563720703125</LatitudeDegrees>
              <LongitudeDegrees>-1.97982539422810077667236328125</LongitudeDegrees>
            </Position>
            <AltitudeMeters>2</AltitudeMeters>
            <DistanceMeters>NAN</DistanceMeters>
          </Trackpoint>
          <Trackpoint>
            <Time>2021-08-12T11:44:17.000Z</Time>
            <Position>
              <LatitudeDegrees>43.32464505918323993682861328125</LatitudeDegrees>
              <LongitudeDegrees>-1.97987099178135395050048828125</LongitudeDegrees>
            </Position>
            <AltitudeMeters>2</AltitudeMeters>
            <DistanceMeters>NAN</DistanceMeters>
          </Trackpoint>
          <Trackpoint>
            <Time>2021-08-12T11:44:18.000Z</Time>
            <Position>
              <LatitudeDegrees>43.32467012107372283935546875</LatitudeDegrees>
              <LongitudeDegrees>-1.97988155297935009002685546875</LongitudeDegrees>
            </Position>
            <AltitudeMeters>2</AltitudeMeters>
            <DistanceMeters>NAN</DistanceMeters>
          </Trackpoint>
          <Trackpoint>
            <Time>2021-08-12T11:44:19.000Z</Time>
            <Position>
              <LatitudeDegrees>43.32470054738223552703857421875</LatitudeDegrees>
              <LongitudeDegrees>-1.979876942932605743408203125</LongitudeDegrees>
            </Position>
            <AltitudeMeters>2</AltitudeMeters>
            <DistanceMeters>NAN</DistanceMeters>
          </Trackpoint>
          <Trackpoint>
            <Time>2021-08-12T11:44:23.000Z</Time>
            <Position>
              <LatitudeDegrees>43.32479475997388362884521484375</LatitudeDegrees>
              <LongitudeDegrees>-1.979780383408069610595703125</LongitudeDegrees>
            </Position>
            <AltitudeMeters>2</AltitudeMeters>
            <DistanceMeters>NAN</DistanceMeters>
          </Trackpoint>
          <Trackpoint>
            <Time>2021-08-12T11:44:24.000Z</Time>
            <Position>
              <LatitudeDegrees>43.324805237352848052978515625</LatitudeDegrees>
              <LongitudeDegrees>-1.97976060211658477783203125</LongitudeDegrees>
            </Position>
            <AltitudeMeters>1.7999999523162841796875</AltitudeMeters>
            <DistanceMeters>NAN</DistanceMeters>
          </Trackpoint>
          <Trackpoint>
            <Time>2021-08-12T11:44:25.000Z</Time>
            <Position>
              <LatitudeDegrees>43.32481118850409984588623046875</LatitudeDegrees>
              <LongitudeDegrees>-1.97973973117768764495849609375</LongitudeDegrees>
            </Position>
            <AltitudeMeters>1.7999999523162841796875</AltitudeMeters>
            <DistanceMeters>NAN</DistanceMeters>
          </Trackpoint>
          <Trackpoint>
            <Time>2021-08-12T11:44:26.000Z</Time>
            <Position>
              <LatitudeDegrees>43.32481353543698787689208984375</LatitudeDegrees>
              <LongitudeDegrees>-1.97971710003912448883056640625</LongitudeDegrees>
            </Position>
            <AltitudeMeters>1.60000002384185791015625</AltitudeMeters>
            <DistanceMeters>NAN</DistanceMeters>
          </Trackpoint>
          <Trackpoint>
            <Time>2021-08-12T11:44:27.000Z</Time>
            <Position>
              <LatitudeDegrees>43.324820660054683685302734375</LatitudeDegrees>
              <LongitudeDegrees>-1.9796994142234325408935546875</LongitudeDegrees>
            </Position>
            <AltitudeMeters>1.60000002384185791015625</AltitudeMeters>
            <DistanceMeters>NAN</DistanceMeters>
          </Trackpoint>
          <Trackpoint>
            <Time>2021-08-12T11:44:28.000Z</Time>
            <Position>
              <LatitudeDegrees>43.3248303830623626708984375</LatitudeDegrees>
              <LongitudeDegrees>-1.97968441061675548553466796875</LongitudeDegrees>
            </Position>
            <AltitudeMeters>1.39999997615814208984375</AltitudeMeters>
            <DistanceMeters>NAN</DistanceMeters>
          </Trackpoint>
          <Trackpoint>
            <Time>2021-08-12T11:44:29.000Z</Time>
            <Position>
              <LatitudeDegrees>43.32484002225100994110107421875</LatitudeDegrees>
              <LongitudeDegrees>-1.9796675629913806915283203125</LongitudeDegrees>
            </Position>
            <AltitudeMeters>1.39999997615814208984375</AltitudeMeters>
            <DistanceMeters>NAN</DistanceMeters>
          </Trackpoint>
          <Trackpoint>
            <Time>2021-08-12T11:44:30.000Z</Time>
            <Position>
              <LatitudeDegrees>43.3248496614396572113037109375</LatitudeDegrees>
              <LongitudeDegrees>-1.9796497933566570281982421875</LongitudeDegrees>
            </Position>
            <AltitudeMeters>1.39999997615814208984375</AltitudeMeters>
            <DistanceMeters>NAN</DistanceMeters>
          </Trackpoint>
          <Trackpoint>
            <Time>2021-08-12T11:44:31.000Z</Time>
            <Position>
              <LatitudeDegrees>43.32486215047538280487060546875</LatitudeDegrees>
              <LongitudeDegrees>-1.979632861912250518798828125</LongitudeDegrees>
            </Position>
            <AltitudeMeters>1.39999997615814208984375</AltitudeMeters>
            <DistanceMeters>NAN</DistanceMeters>
          </Trackpoint>
          <Trackpoint>
            <Time>2021-08-12T11:44:32.000Z</Time>
            <Position>
              <LatitudeDegrees>43.3248738013207912445068359375</LatitudeDegrees>
              <LongitudeDegrees>-1.97961584664881229400634765625</LongitudeDegrees>
            </Position>
            <AltitudeMeters>1.39999997615814208984375</AltitudeMeters>
            <DistanceMeters>NAN</DistanceMeters>
          </Trackpoint>
          <Trackpoint>
            <Time>2021-08-12T11:44:33.000Z</Time>
            <Position>
              <LatitudeDegrees>43.3248867094516754150390625</LatitudeDegrees>
              <LongitudeDegrees>-1.9795998372137546539306640625</LongitudeDegrees>
            </Position>
            <AltitudeMeters>1.39999997615814208984375</AltitudeMeters>
            <DistanceMeters>NAN</DistanceMeters>
          </Trackpoint>
          <Trackpoint>
            <Time>2021-08-12T11:44:34.000Z</Time>
            <Position>
              <LatitudeDegrees>43.32489651627838611602783203125</LatitudeDegrees>
              <LongitudeDegrees>-1.97958064265549182891845703125</LongitudeDegrees>
            </Position>
            <AltitudeMeters>1.2000000476837158203125</AltitudeMeters>
            <DistanceMeters>NAN</DistanceMeters>
          </Trackpoint>
          <Trackpoint>
            <Time>2021-08-12T11:44:35.000Z</Time>
            <Position>
              <LatitudeDegrees>43.324903137981891632080078125</LatitudeDegrees>
              <LongitudeDegrees>-1.9795575924217700958251953125</LongitudeDegrees>
            </Position>
            <AltitudeMeters>1.2000000476837158203125</AltitudeMeters>
            <DistanceMeters>NAN</DistanceMeters>
          </Trackpoint>
          <Trackpoint>
            <Time>2021-08-12T11:44:36.000Z</Time>
            <Position>
              <LatitudeDegrees>43.32490992732346057891845703125</LatitudeDegrees>
              <LongitudeDegrees>-1.97953663766384124755859375</LongitudeDegrees>
            </Position>
            <AltitudeMeters>1.2000000476837158203125</AltitudeMeters>
            <DistanceMeters>NAN</DistanceMeters>
          </Trackpoint>
          <Trackpoint>
            <Time>2021-08-12T11:44:37.000Z</Time>
            <Position>
              <LatitudeDegrees>43.32491730339825153350830078125</LatitudeDegrees>
              <LongitudeDegrees>-1.97951777838170528411865234375</LongitudeDegrees>
            </Position>
            <AltitudeMeters>1.2000000476837158203125</AltitudeMeters>
            <DistanceMeters>NAN</DistanceMeters>
          </Trackpoint>
          <Trackpoint>
            <Time>2021-08-12T11:44:38.000Z</Time>
            <Position>
              <LatitudeDegrees>43.3249240927398204803466796875</LatitudeDegrees>
              <LongitudeDegrees>-1.97949707508087158203125</LongitudeDegrees>
            </Position>
            <AltitudeMeters>1.2000000476837158203125</AltitudeMeters>
            <DistanceMeters>NAN</DistanceMeters>
          </Trackpoint>
          <Trackpoint>
            <Time>2021-08-12T11:44:41.000Z</Time>
            <Position>
              <LatitudeDegrees>43.32494747824966907501220703125</LatitudeDegrees>
              <LongitudeDegrees>-1.97944435290992259979248046875</LongitudeDegrees>
            </Position>
            <AltitudeMeters>0.800000011920928955078125</AltitudeMeters>
            <DistanceMeters>NAN</DistanceMeters>
          </Trackpoint>
          <Trackpoint>
            <Time>2021-08-12T11:44:42.000Z</Time>
            <Position>
              <LatitudeDegrees>43.3249529264867305755615234375</LatitudeDegrees>
              <LongitudeDegrees>-1.979427337646484375</LongitudeDegrees>
            </Position>
            <AltitudeMeters>1</AltitudeMeters>
            <DistanceMeters>NAN</DistanceMeters>
          </Trackpoint>
          <Trackpoint>
            <Time>2021-08-12T11:44:43.000Z</Time>
            <Position>
              <LatitudeDegrees>43.324956782162189483642578125</LatitudeDegrees>
              <LongitudeDegrees>-1.9794117473065853118896484375</LongitudeDegrees>
            </Position>
            <AltitudeMeters>0.800000011920928955078125</AltitudeMeters>
            <DistanceMeters>NAN</DistanceMeters>
          </Trackpoint>
          <Trackpoint>
            <Time>2021-08-12T11:44:44.000Z</Time>
            <Position>
              <LatitudeDegrees>43.3249613083899021148681640625</LatitudeDegrees>
              <LongitudeDegrees>-1.97939523495733737945556640625</LongitudeDegrees>
            </Position>
            <AltitudeMeters>1</AltitudeMeters>
            <DistanceMeters>NAN</DistanceMeters>
          </Trackpoint>
          <Trackpoint>
            <Time>2021-08-12T11:44:45.000Z</Time>
            <Position>
              <LatitudeDegrees>43.32496239803731441497802734375</LatitudeDegrees>
              <LongitudeDegrees>-1.9793750345706939697265625</LongitudeDegrees>
            </Position>
            <AltitudeMeters>1</AltitudeMeters>
            <DistanceMeters>NAN</DistanceMeters>
          </Trackpoint>
          <Trackpoint>
            <Time>2021-08-12T11:44:46.000Z</Time>
            <Position>
              <LatitudeDegrees>43.32496440969407558441162109375</LatitudeDegrees>
              <LongitudeDegrees>-1.9793567620217800140380859375</LongitudeDegrees>
            </Position>
            <AltitudeMeters>1</AltitudeMeters>
            <DistanceMeters>NAN</DistanceMeters>
          </Trackpoint>
          <Trackpoint>
            <Time>2021-08-12T11:44:47.000Z</Time>
            <Position>
              <LatitudeDegrees>43.32497111521661281585693359375</LatitudeDegrees>
              <LongitudeDegrees>-1.9793415069580078125</LongitudeDegrees>
            </Position>
            <AltitudeMeters>1</AltitudeMeters>
            <DistanceMeters>NAN</DistanceMeters>
          </Trackpoint>
          <Trackpoint>
            <Time>2021-08-12T11:44:48.000Z</Time>
            <Position>
              <LatitudeDegrees>43.32497731782495975494384765625</LatitudeDegrees>
              <LongitudeDegrees>-1.97932817973196506500244140625</LongitudeDegrees>
            </Position>
            <AltitudeMeters>1</AltitudeMeters>
            <DistanceMeters>NAN</DistanceMeters>
          </Trackpoint>
          <Trackpoint>
            <Time>2021-08-12T11:44:49.000Z</Time>
            <Position>
              <LatitudeDegrees>43.3249810896813869476318359375</LatitudeDegrees>
              <LongitudeDegrees>-1.9793158583343029022216796875</LongitudeDegrees>
            </Position>
            <AltitudeMeters>1</AltitudeMeters>
            <DistanceMeters>NAN</DistanceMeters>
          </Trackpoint>
          <Trackpoint>
            <Time>2021-08-12T11:44:53.000Z</Time>
            <Position>
              <LatitudeDegrees>43.32497547380626201629638671875</LatitudeDegrees>
              <LongitudeDegrees>-1.979308985173702239990234375</LongitudeDegrees>
            </Position>
            <AltitudeMeters>1</AltitudeMeters>
            <DistanceMeters>NAN</DistanceMeters>
          </Trackpoint>
          <Trackpoint>
            <Time>2021-08-12T11:45:00.000Z</Time>
            <Position>
              <LatitudeDegrees>43.32497111521661281585693359375</LatitudeDegrees>
              <LongitudeDegrees>-1.9792860187590122222900390625</LongitudeDegrees>
            </Position>
            <AltitudeMeters>1</AltitudeMeters>
            <DistanceMeters>NAN</DistanceMeters>
          </Trackpoint>
          <Trackpoint>
            <Time>2021-08-12T11:45:33.000Z</Time>
            <Position>
              <LatitudeDegrees>43.32495468668639659881591796875</LatitudeDegrees>
              <LongitudeDegrees>-1.97928476147353649139404296875</LongitudeDegrees>
            </Position>
            <AltitudeMeters>1.39999997615814208984375</AltitudeMeters>
            <DistanceMeters>NAN</DistanceMeters>
          </Trackpoint>
          <Trackpoint>
            <Time>2021-08-12T11:45:45.000Z</Time>
            <Position>
              <LatitudeDegrees>43.3249582909047603607177734375</LatitudeDegrees>
              <LongitudeDegrees>-1.979252994060516357421875</LongitudeDegrees>
            </Position>
            <AltitudeMeters>1.60000002384185791015625</AltitudeMeters>
            <DistanceMeters>NAN</DistanceMeters>
          </Trackpoint>
          <Trackpoint>
            <Time>2021-08-12T11:45:47.000Z</Time>
            <Position>
              <LatitudeDegrees>43.32495870999991893768310546875</LatitudeDegrees>
              <LongitudeDegrees>-1.9791951589286327362060546875</LongitudeDegrees>
            </Position>
            <AltitudeMeters>1.39999997615814208984375</AltitudeMeters>
            <DistanceMeters>NAN</DistanceMeters>
          </Trackpoint>
          <Trackpoint>
            <Time>2021-08-12T11:45:50.000Z</Time>
            <Position>
              <LatitudeDegrees>43.324962817132472991943359375</LatitudeDegrees>
              <LongitudeDegrees>-1.97910890914499759674072265625</LongitudeDegrees>
            </Position>
            <AltitudeMeters>1.39999997615814208984375</AltitudeMeters>
            <DistanceMeters>NAN</DistanceMeters>
          </Trackpoint>
          <Trackpoint>
            <Time>2021-08-12T11:45:54.000Z</Time>
            <Position>
              <LatitudeDegrees>43.3249686844646930694580078125</LatitudeDegrees>
              <LongitudeDegrees>-1.97899089194834232330322265625</LongitudeDegrees>
            </Position>
            <AltitudeMeters>1.39999997615814208984375</AltitudeMeters>
            <DistanceMeters>NAN</DistanceMeters>
          </Trackpoint>
          <Trackpoint>
            <Time>2021-08-12T11:46:00.000Z</Time>
            <Position>
              <LatitudeDegrees>43.32496642135083675384521484375</LatitudeDegrees>
              <LongitudeDegrees>-1.97876038961112499237060546875</LongitudeDegrees>
            </Position>
            <AltitudeMeters>1.39999997615814208984375</AltitudeMeters>
            <DistanceMeters>NAN</DistanceMeters>
          </Trackpoint>
          <Trackpoint>
            <Time>2021-08-12T11:46:01.000Z</Time>
            <Position>
              <LatitudeDegrees>43.3249703608453273773193359375</LatitudeDegrees>
              <LongitudeDegrees>-1.978722251951694488525390625</LongitudeDegrees>
            </Position>
            <AltitudeMeters>1.39999997615814208984375</AltitudeMeters>
            <DistanceMeters>NAN</DistanceMeters>
          </Trackpoint>
          <Trackpoint>
            <Time>2021-08-12T11:46:02.000Z</Time>
            <Position>
              <LatitudeDegrees>43.3249733783304691314697265625</LatitudeDegrees>
              <LongitudeDegrees>-1.97868579067289829254150390625</LongitudeDegrees>
            </Position>
            <AltitudeMeters>1.39999997615814208984375</AltitudeMeters>
            <DistanceMeters>NAN</DistanceMeters>
          </Trackpoint>
          <Trackpoint>
            <Time>2021-08-12T11:46:03.000Z</Time>
            <Position>
              <LatitudeDegrees>43.3249753899872303009033203125</LatitudeDegrees>
              <LongitudeDegrees>-1.97864949703216552734375</LongitudeDegrees>
            </Position>
            <AltitudeMeters>1.39999997615814208984375</AltitudeMeters>
            <DistanceMeters>NAN</DistanceMeters>
          </Trackpoint>
          <Trackpoint>
            <Time>2021-08-12T11:46:10.000Z</Time>
            <Position>
              <LatitudeDegrees>43.32498569972813129425048828125</LatitudeDegrees>
              <LongitudeDegrees>-1.978388316929340362548828125</LongitudeDegrees>
            </Position>
            <AltitudeMeters>1.39999997615814208984375</AltitudeMeters>
            <DistanceMeters>NAN</DistanceMeters>
          </Trackpoint>
          <Trackpoint>
            <Time>2021-08-12T11:46:17.000Z</Time>
            <Position>
              <LatitudeDegrees>43.32502056844532489776611328125</LatitudeDegrees>
              <LongitudeDegrees>-1.9781128875911235809326171875</LongitudeDegrees>
            </Position>
            <AltitudeMeters>1.2000000476837158203125</AltitudeMeters>
            <DistanceMeters>NAN</DistanceMeters>
          </Trackpoint>
          <Trackpoint>
            <Time>2021-08-12T11:46:22.000Z</Time>
            <Position>
              <LatitudeDegrees>43.325031213462352752685546875</LatitudeDegrees>
              <LongitudeDegrees>-1.97793393395841121673583984375</LongitudeDegrees>
            </Position>
            <AltitudeMeters>1.2000000476837158203125</AltitudeMeters>
            <DistanceMeters>NAN</DistanceMeters>
          </Trackpoint>
          <Trackpoint>
            <Time>2021-08-12T11:46:23.000Z</Time>
            <Position>
              <LatitudeDegrees>43.3250310458242893218994140625</LatitudeDegrees>
              <LongitudeDegrees>-1.97790241800248622894287109375</LongitudeDegrees>
            </Position>
            <AltitudeMeters>1.2000000476837158203125</AltitudeMeters>
            <DistanceMeters>NAN</DistanceMeters>
          </Trackpoint>
          <Trackpoint>
            <Time>2021-08-12T11:46:24.000Z</Time>
            <Position>
              <LatitudeDegrees>43.3250310458242893218994140625</LatitudeDegrees>
              <LongitudeDegrees>-1.9778765179216861724853515625</LongitudeDegrees>
            </Position>
            <AltitudeMeters>1.2000000476837158203125</AltitudeMeters>
            <DistanceMeters>NAN</DistanceMeters>
          </Trackpoint>
          <Trackpoint>
            <Time>2021-08-12T11:46:25.000Z</Time>
            <Position>
              <LatitudeDegrees>43.32502895034849643707275390625</LatitudeDegrees>
              <LongitudeDegrees>-1.977845169603824615478515625</LongitudeDegrees>
            </Position>
            <AltitudeMeters>1.2000000476837158203125</AltitudeMeters>
            <DistanceMeters>NAN</DistanceMeters>
          </Trackpoint>
          <Trackpoint>
            <Time>2021-08-12T11:46:26.000Z</Time>
            <Position>
              <LatitudeDegrees>43.3250216580927371978759765625</LatitudeDegrees>
              <LongitudeDegrees>-1.97781264781951904296875</LongitudeDegrees>
            </Position>
            <AltitudeMeters>1.2000000476837158203125</AltitudeMeters>
            <DistanceMeters>NAN</DistanceMeters>
          </Trackpoint>
          <Trackpoint>
            <Time>2021-08-12T11:46:27.000Z</Time>
            <Position>
              <LatitudeDegrees>43.3250095881521701812744140625</LatitudeDegrees>
              <LongitudeDegrees>-1.9777829758822917938232421875</LongitudeDegrees>
            </Position>
            <AltitudeMeters>1.2000000476837158203125</AltitudeMeters>
            <DistanceMeters>NAN</DistanceMeters>
          </Trackpoint>
          <Trackpoint>
            <Time>2021-08-12T11:46:28.000Z</Time>
            <Position>
              <LatitudeDegrees>43.32499374635517597198486328125</LatitudeDegrees>
              <LongitudeDegrees>-1.9777581654489040374755859375</LongitudeDegrees>
            </Position>
            <AltitudeMeters>1.2000000476837158203125</AltitudeMeters>
            <DistanceMeters>NAN</DistanceMeters>
          </Trackpoint>
          <Trackpoint>
            <Time>2021-08-12T11:46:29.000Z</Time>
            <Position>
              <LatitudeDegrees>43.32497932948172092437744140625</LatitudeDegrees>
              <LongitudeDegrees>-1.97773209773004055023193359375</LongitudeDegrees>
            </Position>
            <AltitudeMeters>1</AltitudeMeters>
            <DistanceMeters>NAN</DistanceMeters>
          </Trackpoint>
          <Trackpoint>
            <Time>2021-08-12T11:46:30.000Z</Time>
            <Position>
              <LatitudeDegrees>43.324969522655010223388671875</LatitudeDegrees>
              <LongitudeDegrees>-1.97770510800182819366455078125</LongitudeDegrees>
            </Position>
            <AltitudeMeters>1</AltitudeMeters>
            <DistanceMeters>NAN</DistanceMeters>
          </Trackpoint>
          <Trackpoint>
            <Time>2021-08-12T11:46:31.000Z</Time>
            <Position>
              <LatitudeDegrees>43.3249660022556781768798828125</LatitudeDegrees>
              <LongitudeDegrees>-1.9776773639023303985595703125</LongitudeDegrees>
            </Position>
            <AltitudeMeters>1</AltitudeMeters>
            <DistanceMeters>NAN</DistanceMeters>
          </Trackpoint>
          <Trackpoint>
            <Time>2021-08-12T11:46:32.000Z</Time>
            <Position>
              <LatitudeDegrees>43.32496658898890018463134765625</LatitudeDegrees>
              <LongitudeDegrees>-1.97764844633638858795166015625</LongitudeDegrees>
            </Position>
            <AltitudeMeters>1</AltitudeMeters>
            <DistanceMeters>NAN</DistanceMeters>
          </Trackpoint>
          <Trackpoint>
            <Time>2021-08-12T11:46:33.000Z</Time>
            <Position>
              <LatitudeDegrees>43.324966840445995330810546875</LatitudeDegrees>
              <LongitudeDegrees>-1.977622210979461669921875</LongitudeDegrees>
            </Position>
            <AltitudeMeters>1</AltitudeMeters>
            <DistanceMeters>NAN</DistanceMeters>
          </Trackpoint>
          <Trackpoint>
            <Time>2021-08-12T11:46:34.000Z</Time>
            <Position>
              <LatitudeDegrees>43.32496776245534420013427734375</LatitudeDegrees>
              <LongitudeDegrees>-1.9776002503931522369384765625</LongitudeDegrees>
            </Position>
            <AltitudeMeters>0.800000011920928955078125</AltitudeMeters>
            <DistanceMeters>NAN</DistanceMeters>
          </Trackpoint>
          <Trackpoint>
            <Time>2021-08-12T11:46:35.000Z</Time>
            <Position>
              <LatitudeDegrees>43.32496927119791507720947265625</LatitudeDegrees>
              <LongitudeDegrees>-1.97757602669298648834228515625</LongitudeDegrees>
            </Position>
            <AltitudeMeters>0.800000011920928955078125</AltitudeMeters>
            <DistanceMeters>NAN</DistanceMeters>
          </Trackpoint>
          <Trackpoint>
            <Time>2021-08-12T11:46:40.000Z</Time>
            <Position>
              <LatitudeDegrees>43.3249698579311370849609375</LatitudeDegrees>
              <LongitudeDegrees>-1.9774178601801395416259765625</LongitudeDegrees>
            </Position>
            <AltitudeMeters>1</AltitudeMeters>
            <DistanceMeters>NAN</DistanceMeters>
          </Trackpoint>
          <Trackpoint>
            <Time>2021-08-12T11:46:41.000Z</Time>
            <Position>
              <LatitudeDegrees>43.32497077994048595428466796875</LatitudeDegrees>
              <LongitudeDegrees>-1.9773839972913265228271484375</LongitudeDegrees>
            </Position>
            <AltitudeMeters>0.800000011920928955078125</AltitudeMeters>
            <DistanceMeters>NAN</DistanceMeters>
          </Trackpoint>
          <Trackpoint>
            <Time>2021-08-12T11:46:48.000Z</Time>
            <Position>
              <LatitudeDegrees>43.32498419098556041717529296875</LatitudeDegrees>
              <LongitudeDegrees>-1.9771385751664638519287109375</LongitudeDegrees>
            </Position>
            <AltitudeMeters>0.800000011920928955078125</AltitudeMeters>
            <DistanceMeters>NAN</DistanceMeters>
          </Trackpoint>
          <Trackpoint>
            <Time>2021-08-12T11:46:52.000Z</Time>
            <Position>
              <LatitudeDegrees>43.3249965123832225799560546875</LatitudeDegrees>
              <LongitudeDegrees>-1.97700823657214641571044921875</LongitudeDegrees>
            </Position>
            <AltitudeMeters>0.800000011920928955078125</AltitudeMeters>
            <DistanceMeters>NAN</DistanceMeters>
          </Trackpoint>
          <Trackpoint>
            <Time>2021-08-12T11:46:53.000Z</Time>
            <Position>
              <LatitudeDegrees>43.32499760203063488006591796875</LatitudeDegrees>
              <LongitudeDegrees>-1.97697621770203113555908203125</LongitudeDegrees>
            </Position>
            <AltitudeMeters>0.800000011920928955078125</AltitudeMeters>
            <DistanceMeters>NAN</DistanceMeters>
          </Trackpoint>
          <Trackpoint>
            <Time>2021-08-12T11:46:54.000Z</Time>
            <Position>
              <LatitudeDegrees>43.32499944604933261871337890625</LatitudeDegrees>
              <LongitudeDegrees>-1.97694252245128154754638671875</LongitudeDegrees>
            </Position>
            <AltitudeMeters>0.800000011920928955078125</AltitudeMeters>
            <DistanceMeters>NAN</DistanceMeters>
          </Trackpoint>
          <Trackpoint>
            <Time>2021-08-12T11:46:55.000Z</Time>
            <Position>
              <LatitudeDegrees>43.324998356401920318603515625</LatitudeDegrees>
              <LongitudeDegrees>-1.97691150940954685211181640625</LongitudeDegrees>
            </Position>
            <AltitudeMeters>0.800000011920928955078125</AltitudeMeters>
            <DistanceMeters>NAN</DistanceMeters>
          </Trackpoint>
          <Trackpoint>
            <Time>2021-08-12T11:46:56.000Z</Time>
            <Position>
              <LatitudeDegrees>43.3249993622303009033203125</LatitudeDegrees>
              <LongitudeDegrees>-1.976881921291351318359375</LongitudeDegrees>
            </Position>
            <AltitudeMeters>0.800000011920928955078125</AltitudeMeters>
            <DistanceMeters>NAN</DistanceMeters>
          </Trackpoint>
          <Trackpoint>
            <Time>2021-08-12T11:46:57.000Z</Time>
            <Position>
              <LatitudeDegrees>43.3250025473535060882568359375</LatitudeDegrees>
              <LongitudeDegrees>-1.976850740611553192138671875</LongitudeDegrees>
            </Position>
            <AltitudeMeters>0.800000011920928955078125</AltitudeMeters>
            <DistanceMeters>NAN</DistanceMeters>
          </Trackpoint>
          <Trackpoint>
            <Time>2021-08-12T11:46:58.000Z</Time>
            <Position>
              <LatitudeDegrees>43.32500950433313846588134765625</LatitudeDegrees>
              <LongitudeDegrees>-1.97681981138885021209716796875</LongitudeDegrees>
            </Position>
            <AltitudeMeters>0.800000011920928955078125</AltitudeMeters>
            <DistanceMeters>NAN</DistanceMeters>
          </Trackpoint>
          <Trackpoint>
            <Time>2021-08-12T11:46:59.000Z</Time>
            <Position>
              <LatitudeDegrees>43.3250162936747074127197265625</LatitudeDegrees>
              <LongitudeDegrees>-1.9767908938229084014892578125</LongitudeDegrees>
            </Position>
            <AltitudeMeters>0.60000002384185791015625</AltitudeMeters>
            <DistanceMeters>NAN</DistanceMeters>
          </Trackpoint>
          <Trackpoint>
            <Time>2021-08-12T11:47:00.000Z</Time>
            <Position>
              <LatitudeDegrees>43.32502140663564205169677734375</LatitudeDegrees>
              <LongitudeDegrees>-1.97676465846598148345947265625</LongitudeDegrees>
            </Position>
            <AltitudeMeters>0.60000002384185791015625</AltitudeMeters>
            <DistanceMeters>NAN</DistanceMeters>
          </Trackpoint>
          <Trackpoint>
            <Time>2021-08-12T11:47:01.000Z</Time>
            <Position>
              <LatitudeDegrees>43.32502325065433979034423828125</LatitudeDegrees>
              <LongitudeDegrees>-1.97673775255680084228515625</LongitudeDegrees>
            </Position>
            <AltitudeMeters>0.60000002384185791015625</AltitudeMeters>
            <DistanceMeters>NAN</DistanceMeters>
          </Trackpoint>
          <Trackpoint>
            <Time>2021-08-12T11:47:02.000Z</Time>
            <Position>
              <LatitudeDegrees>43.32502325065433979034423828125</LatitudeDegrees>
              <LongitudeDegrees>-1.97671336121857166290283203125</LongitudeDegrees>
            </Position>
            <AltitudeMeters>0.60000002384185791015625</AltitudeMeters>
            <DistanceMeters>NAN</DistanceMeters>
          </Trackpoint>
          <Trackpoint>
            <Time>2021-08-12T11:47:03.000Z</Time>
            <Position>
              <LatitudeDegrees>43.325023837387561798095703125</LatitudeDegrees>
              <LongitudeDegrees>-1.9766896404325962066650390625</LongitudeDegrees>
            </Position>
            <AltitudeMeters>0.60000002384185791015625</AltitudeMeters>
            <DistanceMeters>NAN</DistanceMeters>
          </Trackpoint>
          <Trackpoint>
            <Time>2021-08-12T11:47:04.000Z</Time>
            <Position>
              <LatitudeDegrees>43.32502878271043300628662109375</LatitudeDegrees>
              <LongitudeDegrees>-1.9766701944172382354736328125</LongitudeDegrees>
            </Position>
            <AltitudeMeters>0.800000011920928955078125</AltitudeMeters>
            <DistanceMeters>NAN</DistanceMeters>
          </Trackpoint>
          <Trackpoint>
            <Time>2021-08-12T11:47:05.000Z</Time>
            <Position>
              <LatitudeDegrees>43.3250369131565093994140625</LatitudeDegrees>
              <LongitudeDegrees>-1.9766534306108951568603515625</LongitudeDegrees>
            </Position>
            <AltitudeMeters>0.800000011920928955078125</AltitudeMeters>
            <DistanceMeters>NAN</DistanceMeters>
          </Trackpoint>
          <Trackpoint>
            <Time>2021-08-12T11:47:06.000Z</Time>
            <Position>
              <LatitudeDegrees>43.32504269666969776153564453125</LatitudeDegrees>
              <LongitudeDegrees>-1.9766373373568058013916015625</LongitudeDegrees>
            </Position>
            <AltitudeMeters>0.800000011920928955078125</AltitudeMeters>
            <DistanceMeters>NAN</DistanceMeters>
          </Trackpoint>
          <Trackpoint>
            <Time>2021-08-12T11:47:07.000Z</Time>
            <Position>
              <LatitudeDegrees>43.32504219375550746917724609375</LatitudeDegrees>
              <LongitudeDegrees>-1.9766202382743358612060546875</LongitudeDegrees>
            </Position>
            <AltitudeMeters>0.800000011920928955078125</AltitudeMeters>
            <DistanceMeters>NAN</DistanceMeters>
          </Trackpoint>
          <Trackpoint>
            <Time>2021-08-12T11:47:08.000Z</Time>
            <Position>
              <LatitudeDegrees>43.32503532059490680694580078125</LatitudeDegrees>
              <LongitudeDegrees>-1.97660624049603939056396484375</LongitudeDegrees>
            </Position>
            <AltitudeMeters>0.800000011920928955078125</AltitudeMeters>
            <DistanceMeters>NAN</DistanceMeters>
          </Trackpoint>
          <Trackpoint>
            <Time>2021-08-12T11:47:09.000Z</Time>
            <Position>
              <LatitudeDegrees>43.3250276930630207061767578125</LatitudeDegrees>
              <LongitudeDegrees>-1.976599283516407012939453125</LongitudeDegrees>
            </Position>
            <AltitudeMeters>0.800000011920928955078125</AltitudeMeters>
            <DistanceMeters>NAN</DistanceMeters>
          </Trackpoint>
          <Trackpoint>
            <Time>2021-08-12T11:47:10.000Z</Time>
            <Position>
              <LatitudeDegrees>43.3250169642269611358642578125</LatitudeDegrees>
              <LongitudeDegrees>-1.97659115307033061981201171875</LongitudeDegrees>
            </Position>
            <AltitudeMeters>0.800000011920928955078125</AltitudeMeters>
            <DistanceMeters>NAN</DistanceMeters>
          </Trackpoint>
          <Trackpoint>
            <Time>2021-08-12T11:47:11.000Z</Time>
            <Position>
              <LatitudeDegrees>43.3250099234282970428466796875</LatitudeDegrees>
              <LongitudeDegrees>-1.9765779934823513031005859375</LongitudeDegrees>
            </Position>
            <AltitudeMeters>0.800000011920928955078125</AltitudeMeters>
            <DistanceMeters>NAN</DistanceMeters>
          </Trackpoint>
          <Trackpoint>
            <Time>2021-08-12T11:47:12.000Z</Time>
            <Position>
              <LatitudeDegrees>43.32500581629574298858642578125</LatitudeDegrees>
              <LongitudeDegrees>-1.97656282223761081695556640625</LongitudeDegrees>
            </Position>
            <AltitudeMeters>0.800000011920928955078125</AltitudeMeters>
            <DistanceMeters>NAN</DistanceMeters>
          </Trackpoint>
          <Trackpoint>
            <Time>2021-08-12T11:47:13.000Z</Time>
            <Position>
              <LatitudeDegrees>43.324999697506427764892578125</LatitudeDegrees>
              <LongitudeDegrees>-1.9765478186309337615966796875</LongitudeDegrees>
            </Position>
            <AltitudeMeters>0.800000011920928955078125</AltitudeMeters>
            <DistanceMeters>NAN</DistanceMeters>
          </Trackpoint>
          <Trackpoint>
            <Time>2021-08-12T11:47:14.000Z</Time>
            <Position>
              <LatitudeDegrees>43.3249904774129390716552734375</LatitudeDegrees>
              <LongitudeDegrees>-1.97653465904295444488525390625</LongitudeDegrees>
            </Position>
            <AltitudeMeters>0.800000011920928955078125</AltitudeMeters>
            <DistanceMeters>NAN</DistanceMeters>
          </Trackpoint>
          <Trackpoint>
            <Time>2021-08-12T11:47:15.000Z</Time>
            <Position>
              <LatitudeDegrees>43.32497966475784778594970703125</LatitudeDegrees>
              <LongitudeDegrees>-1.97652476839721202850341796875</LongitudeDegrees>
            </Position>
            <AltitudeMeters>1</AltitudeMeters>
            <DistanceMeters>NAN</DistanceMeters>
          </Trackpoint>
          <Trackpoint>
            <Time>2021-08-12T11:47:16.000Z</Time>
            <Position>
              <LatitudeDegrees>43.32496927119791507720947265625</LatitudeDegrees>
              <LongitudeDegrees>-1.9765157997608184814453125</LongitudeDegrees>
            </Position>
            <AltitudeMeters>1</AltitudeMeters>
            <DistanceMeters>NAN</DistanceMeters>
          </Trackpoint>
          <Trackpoint>
            <Time>2021-08-12T11:47:17.000Z</Time>
            <Position>
              <LatitudeDegrees>43.32495988346636295318603515625</LatitudeDegrees>
              <LongitudeDegrees>-1.97650817222893238067626953125</LongitudeDegrees>
            </Position>
            <AltitudeMeters>1</AltitudeMeters>
            <DistanceMeters>NAN</DistanceMeters>
          </Trackpoint>
          <Trackpoint>
            <Time>2021-08-12T11:47:18.000Z</Time>
            <Position>
              <LatitudeDegrees>43.32495653070509433746337890625</LatitudeDegrees>
              <LongitudeDegrees>-1.9765049032866954803466796875</LongitudeDegrees>
            </Position>
            <AltitudeMeters>1</AltitudeMeters>
            <DistanceMeters>NAN</DistanceMeters>
          </Trackpoint>
          <Trackpoint>
            <Time>2021-08-12T11:47:20.000Z</Time>
            <Position>
              <LatitudeDegrees>43.32495845854282379150390625</LatitudeDegrees>
              <LongitudeDegrees>-1.97649777866899967193603515625</LongitudeDegrees>
            </Position>
            <AltitudeMeters>1</AltitudeMeters>
            <DistanceMeters>NAN</DistanceMeters>
          </Trackpoint>
          <Trackpoint>
            <Time>2021-08-12T11:47:30.000Z</Time>
            <Position>
              <LatitudeDegrees>43.32496290095150470733642578125</LatitudeDegrees>
              <LongitudeDegrees>-1.97650247253477573394775390625</LongitudeDegrees>
            </Position>
            <AltitudeMeters>0.800000011920928955078125</AltitudeMeters>
            <DistanceMeters>NAN</DistanceMeters>
          </Trackpoint>
          <Trackpoint>
            <Time>2021-08-12T11:47:45.000Z</Time>
            <Position>
              <LatitudeDegrees>43.3249629847705364227294921875</LatitudeDegrees>
              <LongitudeDegrees>-1.97650247253477573394775390625</LongitudeDegrees>
            </Position>
            <AltitudeMeters>0.60000002384185791015625</AltitudeMeters>
            <DistanceMeters>NAN</DistanceMeters>
          </Trackpoint>
          <Trackpoint>
            <Time>2021-08-12T11:48:52.000Z</Time>
            <Position>
              <LatitudeDegrees>43.3249639905989170074462890625</LatitudeDegrees>
              <LongitudeDegrees>-1.97648738510906696319580078125</LongitudeDegrees>
            </Position>
            <AltitudeMeters>0.800000011920928955078125</AltitudeMeters>
            <DistanceMeters>NAN</DistanceMeters>
          </Trackpoint>
          <Trackpoint>
            <Time>2021-08-12T11:49:53.000Z</Time>
            <Position>
              <LatitudeDegrees>43.32496591843664646148681640625</LatitudeDegrees>
              <LongitudeDegrees>-1.97653918527066707611083984375</LongitudeDegrees>
            </Position>
            <AltitudeMeters>1.39999997615814208984375</AltitudeMeters>
            <DistanceMeters>NAN</DistanceMeters>
          </Trackpoint>
          <Trackpoint>
            <Time>2021-08-12T11:49:54.000Z</Time>
            <Position>
              <LatitudeDegrees>43.32494965754449367523193359375</LatitudeDegrees>
              <LongitudeDegrees>-1.976557709276676177978515625</LongitudeDegrees>
            </Position>
            <AltitudeMeters>1.39999997615814208984375</AltitudeMeters>
            <DistanceMeters>NAN</DistanceMeters>
          </Trackpoint>
          <Trackpoint>
            <Time>2021-08-12T11:49:55.000Z</Time>
            <Position>
              <LatitudeDegrees>43.32493088208138942718505859375</LatitudeDegrees>
              <LongitudeDegrees>-1.97657455690205097198486328125</LongitudeDegrees>
            </Position>
            <AltitudeMeters>1.39999997615814208984375</AltitudeMeters>
            <DistanceMeters>NAN</DistanceMeters>
          </Trackpoint>
          <Trackpoint>
            <Time>2021-08-12T11:49:56.000Z</Time>
            <Position>
              <LatitudeDegrees>43.32491286098957061767578125</LatitudeDegrees>
              <LongitudeDegrees>-1.976592577993869781494140625</LongitudeDegrees>
            </Position>
            <AltitudeMeters>1.39999997615814208984375</AltitudeMeters>
            <DistanceMeters>NAN</DistanceMeters>
          </Trackpoint>
          <Trackpoint>
            <Time>2021-08-12T11:50:01.000Z</Time>
            <Position>
              <LatitudeDegrees>43.32483449019491672515869140625</LatitudeDegrees>
              <LongitudeDegrees>-1.97668871842324733734130859375</LongitudeDegrees>
            </Position>
            <AltitudeMeters>1.2000000476837158203125</AltitudeMeters>
            <DistanceMeters>NAN</DistanceMeters>
          </Trackpoint>
          <Trackpoint>
            <Time>2021-08-12T11:50:04.000Z</Time>
            <Position>
              <LatitudeDegrees>43.3248157985508441925048828125</LatitudeDegrees>
              <LongitudeDegrees>-1.97675594128668308258056640625</LongitudeDegrees>
            </Position>
            <AltitudeMeters>1.2000000476837158203125</AltitudeMeters>
            <DistanceMeters>NAN</DistanceMeters>
          </Trackpoint>
          <Trackpoint>
            <Time>2021-08-12T11:50:05.000Z</Time>
            <Position>
              <LatitudeDegrees>43.32481370307505130767822265625</LatitudeDegrees>
              <LongitudeDegrees>-1.9767845235764980316162109375</LongitudeDegrees>
            </Position>
            <AltitudeMeters>1.2000000476837158203125</AltitudeMeters>
            <DistanceMeters>NAN</DistanceMeters>
          </Trackpoint>
          <Trackpoint>
            <Time>2021-08-12T11:50:06.000Z</Time>
            <Position>
              <LatitudeDegrees>43.324809260666370391845703125</LatitudeDegrees>
              <LongitudeDegrees>-1.97681486606597900390625</LongitudeDegrees>
            </Position>
            <AltitudeMeters>1.2000000476837158203125</AltitudeMeters>
            <DistanceMeters>NAN</DistanceMeters>
          </Trackpoint>
          <Trackpoint>
            <Time>2021-08-12T11:50:07.000Z</Time>
            <Position>
              <LatitudeDegrees>43.3248043991625308990478515625</LatitudeDegrees>
              <LongitudeDegrees>-1.97684814222157001495361328125</LongitudeDegrees>
            </Position>
            <AltitudeMeters>1.2000000476837158203125</AltitudeMeters>
            <DistanceMeters>NAN</DistanceMeters>
          </Trackpoint>
          <Trackpoint>
            <Time>2021-08-12T11:50:14.000Z</Time>
            <Position>
              <LatitudeDegrees>43.324740864336490631103515625</LatitudeDegrees>
              <LongitudeDegrees>-1.97702717967331409454345703125</LongitudeDegrees>
            </Position>
            <AltitudeMeters>1.60000002384185791015625</AltitudeMeters>
            <DistanceMeters>NAN</DistanceMeters>
          </Trackpoint>
          <Trackpoint>
            <Time>2021-08-12T11:50:16.000Z</Time>
            <Position>
              <LatitudeDegrees>43.324726112186908721923828125</LatitudeDegrees>
              <LongitudeDegrees>-1.97706892155110836029052734375</LongitudeDegrees>
            </Position>
            <AltitudeMeters>1.60000002384185791015625</AltitudeMeters>
            <DistanceMeters>NAN</DistanceMeters>
          </Trackpoint>
          <Trackpoint>
            <Time>2021-08-12T11:50:17.000Z</Time>
            <Position>
              <LatitudeDegrees>43.32471764646470546722412109375</LatitudeDegrees>
              <LongitudeDegrees>-1.97708769701421260833740234375</LongitudeDegrees>
            </Position>
            <AltitudeMeters>1.60000002384185791015625</AltitudeMeters>
            <DistanceMeters>NAN</DistanceMeters>
          </Trackpoint>
          <Trackpoint>
            <Time>2021-08-12T11:50:18.000Z</Time>
            <Position>
              <LatitudeDegrees>43.324709348380565643310546875</LatitudeDegrees>
              <LongitudeDegrees>-1.97710647247731685638427734375</LongitudeDegrees>
            </Position>
            <AltitudeMeters>1.60000002384185791015625</AltitudeMeters>
            <DistanceMeters>NAN</DistanceMeters>
          </Trackpoint>
          <Trackpoint>
            <Time>2021-08-12T11:50:19.000Z</Time>
            <Position>
              <LatitudeDegrees>43.3247029781341552734375</LatitudeDegrees>
              <LongitudeDegrees>-1.9771265052258968353271484375</LongitudeDegrees>
            </Position>
            <AltitudeMeters>1.60000002384185791015625</AltitudeMeters>
            <DistanceMeters>NAN</DistanceMeters>
          </Trackpoint>
          <Trackpoint>
            <Time>2021-08-12T11:50:20.000Z</Time>
            <Position>
              <LatitudeDegrees>43.32469853572547435760498046875</LatitudeDegrees>
              <LongitudeDegrees>-1.97715215384960174560546875</LongitudeDegrees>
            </Position>
            <AltitudeMeters>1.7999999523162841796875</AltitudeMeters>
            <DistanceMeters>NAN</DistanceMeters>
          </Trackpoint>
          <Trackpoint>
            <Time>2021-08-12T11:50:21.000Z</Time>
            <Position>
              <LatitudeDegrees>43.32469233311712741851806640625</LatitudeDegrees>
              <LongitudeDegrees>-1.9771791435778141021728515625</LongitudeDegrees>
            </Position>
            <AltitudeMeters>1.7999999523162841796875</AltitudeMeters>
            <DistanceMeters>NAN</DistanceMeters>
          </Trackpoint>
          <Trackpoint>
            <Time>2021-08-12T11:50:22.000Z</Time>
            <Position>
              <LatitudeDegrees>43.32468244247138500213623046875</LatitudeDegrees>
              <LongitudeDegrees>-1.97720722295343875885009765625</LongitudeDegrees>
            </Position>
            <AltitudeMeters>1.7999999523162841796875</AltitudeMeters>
            <DistanceMeters>NAN</DistanceMeters>
          </Trackpoint>
          <Trackpoint>
            <Time>2021-08-12T11:50:31.000Z</Time>
            <Position>
              <LatitudeDegrees>43.32458320073783397674560546875</LatitudeDegrees>
              <LongitudeDegrees>-1.97744585573673248291015625</LongitudeDegrees>
            </Position>
            <AltitudeMeters>1.60000002384185791015625</AltitudeMeters>
            <DistanceMeters>NAN</DistanceMeters>
          </Trackpoint>
          <Trackpoint>
            <Time>2021-08-12T11:50:33.000Z</Time>
            <Position>
              <LatitudeDegrees>43.3245626650750637054443359375</LatitudeDegrees>
              <LongitudeDegrees>-1.9774867594242095947265625</LongitudeDegrees>
            </Position>
            <AltitudeMeters>1.60000002384185791015625</AltitudeMeters>
            <DistanceMeters>NAN</DistanceMeters>
          </Trackpoint>
          <Trackpoint>
            <Time>2021-08-12T11:50:34.000Z</Time>
            <Position>
              <LatitudeDegrees>43.3245546184480190277099609375</LatitudeDegrees>
              <LongitudeDegrees>-1.97750712744891643524169921875</LongitudeDegrees>
            </Position>
            <AltitudeMeters>1.60000002384185791015625</AltitudeMeters>
            <DistanceMeters>NAN</DistanceMeters>
          </Trackpoint>
          <Trackpoint>
            <Time>2021-08-12T11:50:35.000Z</Time>
            <Position>
              <LatitudeDegrees>43.324546404182910919189453125</LatitudeDegrees>
              <LongitudeDegrees>-1.97752623818814754486083984375</LongitudeDegrees>
            </Position>
            <AltitudeMeters>1.60000002384185791015625</AltitudeMeters>
            <DistanceMeters>NAN</DistanceMeters>
          </Trackpoint>
          <Trackpoint>
            <Time>2021-08-12T11:50:36.000Z</Time>
            <Position>
              <LatitudeDegrees>43.324539363384246826171875</LatitudeDegrees>
              <LongitudeDegrees>-1.97754300199449062347412109375</LongitudeDegrees>
            </Position>
            <AltitudeMeters>1.60000002384185791015625</AltitudeMeters>
            <DistanceMeters>NAN</DistanceMeters>
          </Trackpoint>
          <Trackpoint>
            <Time>2021-08-12T11:50:37.000Z</Time>
            <Position>
              <LatitudeDegrees>43.3245328254997730255126953125</LatitudeDegrees>
              <LongitudeDegrees>-1.97755875997245311737060546875</LongitudeDegrees>
            </Position>
            <AltitudeMeters>1.60000002384185791015625</AltitudeMeters>
            <DistanceMeters>NAN</DistanceMeters>
          </Trackpoint>
          <Trackpoint>
            <Time>2021-08-12T11:50:38.000Z</Time>
            <Position>
              <LatitudeDegrees>43.324526958167552947998046875</LatitudeDegrees>
              <LongitudeDegrees>-1.9775690697133541107177734375</LongitudeDegrees>
            </Position>
            <AltitudeMeters>1.60000002384185791015625</AltitudeMeters>
            <DistanceMeters>NAN</DistanceMeters>
          </Trackpoint>
          <Trackpoint>
            <Time>2021-08-12T11:50:39.000Z</Time>
            <Position>
              <LatitudeDegrees>43.32451991736888885498046875</LatitudeDegrees>
              <LongitudeDegrees>-1.97758533060550689697265625</LongitudeDegrees>
            </Position>
            <AltitudeMeters>1.7999999523162841796875</AltitudeMeters>
            <DistanceMeters>NAN</DistanceMeters>
          </Trackpoint>
          <Trackpoint>
            <Time>2021-08-12T11:50:40.000Z</Time>
            <Position>
              <LatitudeDegrees>43.32451061345636844635009765625</LatitudeDegrees>
              <LongitudeDegrees>-1.977603435516357421875</LongitudeDegrees>
            </Position>
            <AltitudeMeters>1.7999999523162841796875</AltitudeMeters>
            <DistanceMeters>NAN</DistanceMeters>
          </Trackpoint>
          <Trackpoint>
            <Time>2021-08-12T11:50:41.000Z</Time>
            <Position>
              <LatitudeDegrees>43.32450122572481632232666015625</LatitudeDegrees>
              <LongitudeDegrees>-1.977623216807842254638671875</LongitudeDegrees>
            </Position>
            <AltitudeMeters>1.7999999523162841796875</AltitudeMeters>
            <DistanceMeters>NAN</DistanceMeters>
          </Trackpoint>
          <Trackpoint>
            <Time>2021-08-12T11:50:42.000Z</Time>
            <Position>
              <LatitudeDegrees>43.32449502311646938323974609375</LatitudeDegrees>
              <LongitudeDegrees>-1.9776455126702785491943359375</LongitudeDegrees>
            </Position>
            <AltitudeMeters>1.7999999523162841796875</AltitudeMeters>
            <DistanceMeters>NAN</DistanceMeters>
          </Trackpoint>
          <Trackpoint>
            <Time>2021-08-12T11:50:43.000Z</Time>
            <Position>
              <LatitudeDegrees>43.32448773086071014404296875</LatitudeDegrees>
              <LongitudeDegrees>-1.9776666350662708282470703125</LongitudeDegrees>
            </Position>
            <AltitudeMeters>1.7999999523162841796875</AltitudeMeters>
            <DistanceMeters>NAN</DistanceMeters>
          </Trackpoint>
          <Trackpoint>
            <Time>2021-08-12T11:50:44.000Z</Time>
            <Position>
              <LatitudeDegrees>43.32447976805269718170166015625</LatitudeDegrees>
              <LongitudeDegrees>-1.977686919271945953369140625</LongitudeDegrees>
            </Position>
            <AltitudeMeters>1.7999999523162841796875</AltitudeMeters>
            <DistanceMeters>NAN</DistanceMeters>
          </Trackpoint>
          <Trackpoint>
            <Time>2021-08-12T11:50:45.000Z</Time>
            <Position>
              <LatitudeDegrees>43.32447272725403308868408203125</LatitudeDegrees>
              <LongitudeDegrees>-1.977710388600826263427734375</LongitudeDegrees>
            </Position>
            <AltitudeMeters>1.7999999523162841796875</AltitudeMeters>
            <DistanceMeters>NAN</DistanceMeters>
          </Trackpoint>
          <Trackpoint>
            <Time>2021-08-12T11:50:46.000Z</Time>
            <Position>
              <LatitudeDegrees>43.3244610764086246490478515625</LatitudeDegrees>
              <LongitudeDegrees>-1.9777340255677700042724609375</LongitudeDegrees>
            </Position>
            <AltitudeMeters>1.7999999523162841796875</AltitudeMeters>
            <DistanceMeters>NAN</DistanceMeters>
          </Trackpoint>
          <Trackpoint>
            <Time>2021-08-12T11:50:54.000Z</Time>
            <Position>
              <LatitudeDegrees>43.32438589073717594146728515625</LatitudeDegrees>
              <LongitudeDegrees>-1.97791029699146747589111328125</LongitudeDegrees>
            </Position>
            <AltitudeMeters>1.7999999523162841796875</AltitudeMeters>
            <DistanceMeters>NAN</DistanceMeters>
          </Trackpoint>
          <Trackpoint>
            <Time>2021-08-12T11:51:03.000Z</Time>
            <Position>
              <LatitudeDegrees>43.3242857269942760467529296875</LatitudeDegrees>
              <LongitudeDegrees>-1.978155635297298431396484375</LongitudeDegrees>
            </Position>
            <AltitudeMeters>1.7999999523162841796875</AltitudeMeters>
            <DistanceMeters>NAN</DistanceMeters>
          </Trackpoint>
          <Trackpoint>
            <Time>2021-08-12T11:51:06.000Z</Time>
            <Position>
              <LatitudeDegrees>43.32424960099160671234130859375</LatitudeDegrees>
              <LongitudeDegrees>-1.97821740992367267608642578125</LongitudeDegrees>
            </Position>
            <AltitudeMeters>1.7999999523162841796875</AltitudeMeters>
            <DistanceMeters>NAN</DistanceMeters>
          </Trackpoint>
          <Trackpoint>
            <Time>2021-08-12T11:51:08.000Z</Time>
            <Position>
              <LatitudeDegrees>43.32423292100429534912109375</LatitudeDegrees>
              <LongitudeDegrees>-1.9782617501914501190185546875</LongitudeDegrees>
            </Position>
            <AltitudeMeters>2</AltitudeMeters>
            <DistanceMeters>NAN</DistanceMeters>
          </Trackpoint>
          <Trackpoint>
            <Time>2021-08-12T11:51:09.000Z</Time>
            <Position>
              <LatitudeDegrees>43.3242240361869335174560546875</LatitudeDegrees>
              <LongitudeDegrees>-1.978283710777759552001953125</LongitudeDegrees>
            </Position>
            <AltitudeMeters>2</AltitudeMeters>
            <DistanceMeters>NAN</DistanceMeters>
          </Trackpoint>
          <Trackpoint>
            <Time>2021-08-12T11:51:10.000Z</Time>
            <Position>
              <LatitudeDegrees>43.32421406172215938568115234375</LatitudeDegrees>
              <LongitudeDegrees>-1.978302486240863800048828125</LongitudeDegrees>
            </Position>
            <AltitudeMeters>2</AltitudeMeters>
            <DistanceMeters>NAN</DistanceMeters>
          </Trackpoint>
          <Trackpoint>
            <Time>2021-08-12T11:51:11.000Z</Time>
            <Position>
              <LatitudeDegrees>43.3242049254477024078369140625</LatitudeDegrees>
              <LongitudeDegrees>-1.97832436300814151763916015625</LongitudeDegrees>
            </Position>
            <AltitudeMeters>2</AltitudeMeters>
            <DistanceMeters>NAN</DistanceMeters>
          </Trackpoint>
          <Trackpoint>
            <Time>2021-08-12T11:51:12.000Z</Time>
            <Position>
              <LatitudeDegrees>43.3241962082684040069580078125</LatitudeDegrees>
              <LongitudeDegrees>-1.9783504307270050048828125</LongitudeDegrees>
            </Position>
            <AltitudeMeters>2</AltitudeMeters>
            <DistanceMeters>NAN</DistanceMeters>
          </Trackpoint>
          <Trackpoint>
            <Time>2021-08-12T11:51:13.000Z</Time>
            <Position>
              <LatitudeDegrees>43.3241861499845981597900390625</LatitudeDegrees>
              <LongitudeDegrees>-1.97837733663618564605712890625</LongitudeDegrees>
            </Position>
            <AltitudeMeters>2</AltitudeMeters>
            <DistanceMeters>NAN</DistanceMeters>
          </Trackpoint>
          <Trackpoint>
            <Time>2021-08-12T11:51:16.000Z</Time>
            <Position>
              <LatitudeDegrees>43.32415656186640262603759765625</LatitudeDegrees>
              <LongitudeDegrees>-1.97845394723117351531982421875</LongitudeDegrees>
            </Position>
            <AltitudeMeters>2</AltitudeMeters>
            <DistanceMeters>NAN</DistanceMeters>
          </Trackpoint>
          <Trackpoint>
            <Time>2021-08-12T11:51:17.000Z</Time>
            <Position>
              <LatitudeDegrees>43.32414784468710422515869140625</LatitudeDegrees>
              <LongitudeDegrees>-1.978476829826831817626953125</LongitudeDegrees>
            </Position>
            <AltitudeMeters>2</AltitudeMeters>
            <DistanceMeters>NAN</DistanceMeters>
          </Trackpoint>
          <Trackpoint>
            <Time>2021-08-12T11:51:22.000Z</Time>
            <Position>
              <LatitudeDegrees>43.32409973256289958953857421875</LatitudeDegrees>
              <LongitudeDegrees>-1.97858453728258609771728515625</LongitudeDegrees>
            </Position>
            <AltitudeMeters>1.7999999523162841796875</AltitudeMeters>
            <DistanceMeters>NAN</DistanceMeters>
          </Trackpoint>
          <Trackpoint>
            <Time>2021-08-12T11:51:23.000Z</Time>
            <Position>
              <LatitudeDegrees>43.3240939490497112274169921875</LatitudeDegrees>
              <LongitudeDegrees>-1.97860658168792724609375</LongitudeDegrees>
            </Position>
            <AltitudeMeters>1.7999999523162841796875</AltitudeMeters>
            <DistanceMeters>NAN</DistanceMeters>
          </Trackpoint>
          <Trackpoint>
            <Time>2021-08-12T11:51:24.000Z</Time>
            <Position>
              <LatitudeDegrees>43.32408565096557140350341796875</LatitudeDegrees>
              <LongitudeDegrees>-1.97862946428358554840087890625</LongitudeDegrees>
            </Position>
            <AltitudeMeters>1.7999999523162841796875</AltitudeMeters>
            <DistanceMeters>NAN</DistanceMeters>
          </Trackpoint>
          <Trackpoint>
            <Time>2021-08-12T11:51:25.000Z</Time>
            <Position>
              <LatitudeDegrees>43.3240714855492115020751953125</LatitudeDegrees>
              <LongitudeDegrees>-1.97865016758441925048828125</LongitudeDegrees>
            </Position>
            <AltitudeMeters>1.7999999523162841796875</AltitudeMeters>
            <DistanceMeters>NAN</DistanceMeters>
          </Trackpoint>
          <Trackpoint>
            <Time>2021-08-12T11:51:26.000Z</Time>
            <Position>
              <LatitudeDegrees>43.32406134344637393951416015625</LatitudeDegrees>
              <LongitudeDegrees>-1.9786674343049526214599609375</LongitudeDegrees>
            </Position>
            <AltitudeMeters>2</AltitudeMeters>
            <DistanceMeters>NAN</DistanceMeters>
          </Trackpoint>
          <Trackpoint>
            <Time>2021-08-12T11:51:28.000Z</Time>
            <Position>
              <LatitudeDegrees>43.324042148888111114501953125</LatitudeDegrees>
              <LongitudeDegrees>-1.97871009819209575653076171875</LongitudeDegrees>
            </Position>
            <AltitudeMeters>2</AltitudeMeters>
            <DistanceMeters>NAN</DistanceMeters>
          </Trackpoint>
          <Trackpoint>
            <Time>2021-08-12T11:51:31.000Z</Time>
            <Position>
              <LatitudeDegrees>43.32401700317859649658203125</LatitudeDegrees>
              <LongitudeDegrees>-1.978779248893260955810546875</LongitudeDegrees>
            </Position>
            <AltitudeMeters>1.7999999523162841796875</AltitudeMeters>
            <DistanceMeters>NAN</DistanceMeters>
          </Trackpoint>
          <Trackpoint>
            <Time>2021-08-12T11:51:32.000Z</Time>
            <Position>
              <LatitudeDegrees>43.32400904037058353424072265625</LatitudeDegrees>
              <LongitudeDegrees>-1.97879643179476261138916015625</LongitudeDegrees>
            </Position>
            <AltitudeMeters>2</AltitudeMeters>
            <DistanceMeters>NAN</DistanceMeters>
          </Trackpoint>
          <Trackpoint>
            <Time>2021-08-12T11:51:33.000Z</Time>
            <Position>
              <LatitudeDegrees>43.3240040950477123260498046875</LatitudeDegrees>
              <LongitudeDegrees>-1.97882291860878467559814453125</LongitudeDegrees>
            </Position>
            <AltitudeMeters>2</AltitudeMeters>
            <DistanceMeters>NAN</DistanceMeters>
          </Trackpoint>
          <Trackpoint>
            <Time>2021-08-12T11:51:34.000Z</Time>
            <Position>
              <LatitudeDegrees>43.323997557163238525390625</LatitudeDegrees>
              <LongitudeDegrees>-1.97884638793766498565673828125</LongitudeDegrees>
            </Position>
            <AltitudeMeters>2</AltitudeMeters>
            <DistanceMeters>NAN</DistanceMeters>
          </Trackpoint>
          <Trackpoint>
            <Time>2021-08-12T11:51:35.000Z</Time>
            <Position>
              <LatitudeDegrees>43.32399018108844757080078125</LatitudeDegrees>
              <LongitudeDegrees>-1.97886566631495952606201171875</LongitudeDegrees>
            </Position>
            <AltitudeMeters>2</AltitudeMeters>
            <DistanceMeters>NAN</DistanceMeters>
          </Trackpoint>
          <Trackpoint>
            <Time>2021-08-12T11:51:37.000Z</Time>
            <Position>
              <LatitudeDegrees>43.32398691214621067047119140625</LatitudeDegrees>
              <LongitudeDegrees>-1.97890707291662693023681640625</LongitudeDegrees>
            </Position>
            <AltitudeMeters>2</AltitudeMeters>
            <DistanceMeters>NAN</DistanceMeters>
          </Trackpoint>
          <Trackpoint>
            <Time>2021-08-12T11:51:38.000Z</Time>
            <Position>
              <LatitudeDegrees>43.323981463909149169921875</LatitudeDegrees>
              <LongitudeDegrees>-1.9789289496839046478271484375</LongitudeDegrees>
            </Position>
            <AltitudeMeters>2</AltitudeMeters>
            <DistanceMeters>NAN</DistanceMeters>
          </Trackpoint>
          <Trackpoint>
            <Time>2021-08-12T11:51:39.000Z</Time>
            <Position>
              <LatitudeDegrees>43.32397500984370708465576171875</LatitudeDegrees>
              <LongitudeDegrees>-1.97895132936537265777587890625</LongitudeDegrees>
            </Position>
            <AltitudeMeters>2.2000000476837158203125</AltitudeMeters>
            <DistanceMeters>NAN</DistanceMeters>
          </Trackpoint>
          <Trackpoint>
            <Time>2021-08-12T11:51:40.000Z</Time>
            <Position>
              <LatitudeDegrees>43.32396746613085269927978515625</LatitudeDegrees>
              <LongitudeDegrees>-1.9789700210094451904296875</LongitudeDegrees>
            </Position>
            <AltitudeMeters>2.2000000476837158203125</AltitudeMeters>
            <DistanceMeters>NAN</DistanceMeters>
          </Trackpoint>
          <Trackpoint>
            <Time>2021-08-12T11:51:41.000Z</Time>
            <Position>
              <LatitudeDegrees>43.3239598385989665985107421875</LatitudeDegrees>
              <LongitudeDegrees>-1.9789889641106128692626953125</LongitudeDegrees>
            </Position>
            <AltitudeMeters>2.2000000476837158203125</AltitudeMeters>
            <DistanceMeters>NAN</DistanceMeters>
          </Trackpoint>
          <Trackpoint>
            <Time>2021-08-12T11:51:42.000Z</Time>
            <Position>
              <LatitudeDegrees>43.32395271398127079010009765625</LatitudeDegrees>
              <LongitudeDegrees>-1.97900748811662197113037109375</LongitudeDegrees>
            </Position>
            <AltitudeMeters>2.2000000476837158203125</AltitudeMeters>
            <DistanceMeters>NAN</DistanceMeters>
          </Trackpoint>
          <Trackpoint>
            <Time>2021-08-12T11:51:43.000Z</Time>
            <Position>
              <LatitudeDegrees>43.3239454217255115509033203125</LatitudeDegrees>
              <LongitudeDegrees>-1.9790236651897430419921875</LongitudeDegrees>
            </Position>
            <AltitudeMeters>2.2000000476837158203125</AltitudeMeters>
            <DistanceMeters>NAN</DistanceMeters>
          </Trackpoint>
          <Trackpoint>
            <Time>2021-08-12T11:51:44.000Z</Time>
            <Position>
              <LatitudeDegrees>43.32393628545105457305908203125</LatitudeDegrees>
              <LongitudeDegrees>-1.97903866879642009735107421875</LongitudeDegrees>
            </Position>
            <AltitudeMeters>2.2000000476837158203125</AltitudeMeters>
            <DistanceMeters>NAN</DistanceMeters>
          </Trackpoint>
          <Trackpoint>
            <Time>2021-08-12T11:51:45.000Z</Time>
            <Position>
              <LatitudeDegrees>43.32392957992851734161376953125</LatitudeDegrees>
              <LongitudeDegrees>-1.9790563546121120452880859375</LongitudeDegrees>
            </Position>
            <AltitudeMeters>2.2000000476837158203125</AltitudeMeters>
            <DistanceMeters>NAN</DistanceMeters>
          </Trackpoint>
          <Trackpoint>
            <Time>2021-08-12T11:51:46.000Z</Time>
            <Position>
              <LatitudeDegrees>43.323922120034694671630859375</LatitudeDegrees>
              <LongitudeDegrees>-1.979074291884899139404296875</LongitudeDegrees>
            </Position>
            <AltitudeMeters>2.2000000476837158203125</AltitudeMeters>
            <DistanceMeters>NAN</DistanceMeters>
          </Trackpoint>
          <Trackpoint>
            <Time>2021-08-12T11:51:47.000Z</Time>
            <Position>
              <LatitudeDegrees>43.32391507923603057861328125</LatitudeDegrees>
              <LongitudeDegrees>-1.9790907204151153564453125</LongitudeDegrees>
            </Position>
            <AltitudeMeters>2.2000000476837158203125</AltitudeMeters>
            <DistanceMeters>NAN</DistanceMeters>
          </Trackpoint>
          <Trackpoint>
            <Time>2021-08-12T11:51:49.000Z</Time>
            <Position>
              <LatitudeDegrees>43.3239055238664150238037109375</LatitudeDegrees>
              <LongitudeDegrees>-1.97911821305751800537109375</LongitudeDegrees>
            </Position>
            <AltitudeMeters>2.2000000476837158203125</AltitudeMeters>
            <DistanceMeters>NAN</DistanceMeters>
          </Trackpoint>
          <Trackpoint>
            <Time>2021-08-12T11:51:50.000Z</Time>
            <Position>
              <LatitudeDegrees>43.32390158437192440032958984375</LatitudeDegrees>
              <LongitudeDegrees>-1.9791304506361484527587890625</LongitudeDegrees>
            </Position>
            <AltitudeMeters>2.2000000476837158203125</AltitudeMeters>
            <DistanceMeters>NAN</DistanceMeters>
          </Trackpoint>
          <Trackpoint>
            <Time>2021-08-12T11:51:51.000Z</Time>
            <Position>
              <LatitudeDegrees>43.32389856688678264617919921875</LatitudeDegrees>
              <LongitudeDegrees>-1.97914143092930316925048828125</LongitudeDegrees>
            </Position>
            <AltitudeMeters>2.2000000476837158203125</AltitudeMeters>
            <DistanceMeters>NAN</DistanceMeters>
          </Trackpoint>
          <Trackpoint>
            <Time>2021-08-12T11:51:52.000Z</Time>
            <Position>
              <LatitudeDegrees>43.32389772869646549224853515625</LatitudeDegrees>
              <LongitudeDegrees>-1.97914905846118927001953125</LongitudeDegrees>
            </Position>
            <AltitudeMeters>2.2000000476837158203125</AltitudeMeters>
            <DistanceMeters>NAN</DistanceMeters>
          </Trackpoint>
          <Trackpoint>
            <Time>2021-08-12T11:51:53.000Z</Time>
            <Position>
              <LatitudeDegrees>43.3238968066871166229248046875</LatitudeDegrees>
              <LongitudeDegrees>-1.97915517725050449371337890625</LongitudeDegrees>
            </Position>
            <AltitudeMeters>2.2000000476837158203125</AltitudeMeters>
            <DistanceMeters>NAN</DistanceMeters>
          </Trackpoint>
          <Trackpoint>
            <Time>2021-08-12T11:52:03.000Z</Time>
            <Position>
              <LatitudeDegrees>43.3239092119038105010986328125</LatitudeDegrees>
              <LongitudeDegrees>-1.979167498648166656494140625</LongitudeDegrees>
            </Position>
            <AltitudeMeters>2</AltitudeMeters>
            <DistanceMeters>NAN</DistanceMeters>
          </Trackpoint>
          <Trackpoint>
            <Time>2021-08-12T11:52:06.000Z</Time>
            <Position>
              <LatitudeDegrees>43.32389001734554767608642578125</LatitudeDegrees>
              <LongitudeDegrees>-1.97921636514365673065185546875</LongitudeDegrees>
            </Position>
            <AltitudeMeters>2</AltitudeMeters>
            <DistanceMeters>NAN</DistanceMeters>
          </Trackpoint>
          <Trackpoint>
            <Time>2021-08-12T11:52:07.000Z</Time>
            <Position>
              <LatitudeDegrees>43.3238807134330272674560546875</LatitudeDegrees>
              <LongitudeDegrees>-1.97923765517771244049072265625</LongitudeDegrees>
            </Position>
            <AltitudeMeters>2</AltitudeMeters>
            <DistanceMeters>NAN</DistanceMeters>
          </Trackpoint>
          <Trackpoint>
            <Time>2021-08-12T11:52:10.000Z</Time>
            <Position>
              <LatitudeDegrees>43.32385347224771976470947265625</LatitudeDegrees>
              <LongitudeDegrees>-1.97930202819406986236572265625</LongitudeDegrees>
            </Position>
            <AltitudeMeters>1.7999999523162841796875</AltitudeMeters>
            <DistanceMeters>NAN</DistanceMeters>
          </Trackpoint>
          <Trackpoint>
            <Time>2021-08-12T11:52:11.000Z</Time>
            <Position>
              <LatitudeDegrees>43.32383863627910614013671875</LatitudeDegrees>
              <LongitudeDegrees>-1.9793228991329669952392578125</LongitudeDegrees>
            </Position>
            <AltitudeMeters>1.7999999523162841796875</AltitudeMeters>
            <DistanceMeters>NAN</DistanceMeters>
          </Trackpoint>
          <Trackpoint>
            <Time>2021-08-12T11:52:14.000Z</Time>
            <Position>
              <LatitudeDegrees>43.32379815168678760528564453125</LatitudeDegrees>
              <LongitudeDegrees>-1.9793911278247833251953125</LongitudeDegrees>
            </Position>
            <AltitudeMeters>1.7999999523162841796875</AltitudeMeters>
            <DistanceMeters>NAN</DistanceMeters>
          </Trackpoint>
          <Trackpoint>
            <Time>2021-08-12T11:52:21.000Z</Time>
            <Position>
              <LatitudeDegrees>43.3237187750637531280517578125</LatitudeDegrees>
              <LongitudeDegrees>-1.97958298958837985992431640625</LongitudeDegrees>
            </Position>
            <AltitudeMeters>2</AltitudeMeters>
            <DistanceMeters>NAN</DistanceMeters>
          </Trackpoint>
          <Trackpoint>
            <Time>2021-08-12T11:52:27.000Z</Time>
            <Position>
              <LatitudeDegrees>43.32366303540766239166259765625</LatitudeDegrees>
              <LongitudeDegrees>-1.9797386415302753448486328125</LongitudeDegrees>
            </Position>
            <AltitudeMeters>2.2000000476837158203125</AltitudeMeters>
            <DistanceMeters>NAN</DistanceMeters>
          </Trackpoint>
          <Trackpoint>
            <Time>2021-08-12T11:52:28.000Z</Time>
            <Position>
              <LatitudeDegrees>43.32365490496158599853515625</LatitudeDegrees>
              <LongitudeDegrees>-1.9797611050307750701904296875</LongitudeDegrees>
            </Position>
            <AltitudeMeters>2.2000000476837158203125</AltitudeMeters>
            <DistanceMeters>NAN</DistanceMeters>
          </Trackpoint>
          <Trackpoint>
            <Time>2021-08-12T11:52:29.000Z</Time>
            <Position>
              <LatitudeDegrees>43.3236470259726047515869140625</LatitudeDegrees>
              <LongitudeDegrees>-1.9797859154641628265380859375</LongitudeDegrees>
            </Position>
            <AltitudeMeters>2.400000095367431640625</AltitudeMeters>
            <DistanceMeters>NAN</DistanceMeters>
          </Trackpoint>
          <Trackpoint>
            <Time>2021-08-12T11:52:30.000Z</Time>
            <Position>
              <LatitudeDegrees>43.32363990135490894317626953125</LatitudeDegrees>
              <LongitudeDegrees>-1.97981332428753376007080078125</LongitudeDegrees>
            </Position>
            <AltitudeMeters>2.400000095367431640625</AltitudeMeters>
            <DistanceMeters>NAN</DistanceMeters>
          </Trackpoint>
          <Trackpoint>
            <Time>2021-08-12T11:52:31.000Z</Time>
            <Position>
              <LatitudeDegrees>43.32363101653754711151123046875</LatitudeDegrees>
              <LongitudeDegrees>-1.979843415319919586181640625</LongitudeDegrees>
            </Position>
            <AltitudeMeters>2.400000095367431640625</AltitudeMeters>
            <DistanceMeters>NAN</DistanceMeters>
          </Trackpoint>
          <Trackpoint>
            <Time>2021-08-12T11:52:32.000Z</Time>
            <Position>
              <LatitudeDegrees>43.32362028770148754119873046875</LatitudeDegrees>
              <LongitudeDegrees>-1.97986847721040248870849609375</LongitudeDegrees>
            </Position>
            <AltitudeMeters>2.400000095367431640625</AltitudeMeters>
            <DistanceMeters>NAN</DistanceMeters>
          </Trackpoint>
          <Trackpoint>
            <Time>2021-08-12T11:52:33.000Z</Time>
            <Position>
              <LatitudeDegrees>43.32361022941768169403076171875</LatitudeDegrees>
              <LongitudeDegrees>-1.97989295236766338348388671875</LongitudeDegrees>
            </Position>
            <AltitudeMeters>2.400000095367431640625</AltitudeMeters>
            <DistanceMeters>NAN</DistanceMeters>
          </Trackpoint>
          <Trackpoint>
            <Time>2021-08-12T11:52:34.000Z</Time>
            <Position>
              <LatitudeDegrees>43.32360134460031986236572265625</LatitudeDegrees>
              <LongitudeDegrees>-1.97991809807717800140380859375</LongitudeDegrees>
            </Position>
            <AltitudeMeters>2.400000095367431640625</AltitudeMeters>
            <DistanceMeters>NAN</DistanceMeters>
          </Trackpoint>
          <Trackpoint>
            <Time>2021-08-12T11:52:35.000Z</Time>
            <Position>
              <LatitudeDegrees>43.323592208325862884521484375</LatitudeDegrees>
              <LongitudeDegrees>-1.97994626127183437347412109375</LongitudeDegrees>
            </Position>
            <AltitudeMeters>2.2000000476837158203125</AltitudeMeters>
            <DistanceMeters>NAN</DistanceMeters>
          </Trackpoint>
          <Trackpoint>
            <Time>2021-08-12T11:52:40.000Z</Time>
            <Position>
              <LatitudeDegrees>43.32353244535624980926513671875</LatitudeDegrees>
              <LongitudeDegrees>-1.980084814131259918212890625</LongitudeDegrees>
            </Position>
            <AltitudeMeters>2.2000000476837158203125</AltitudeMeters>
            <DistanceMeters>NAN</DistanceMeters>
          </Trackpoint>
          <Trackpoint>
            <Time>2021-08-12T11:52:47.000Z</Time>
            <Position>
              <LatitudeDegrees>43.32344032824039459228515625</LatitudeDegrees>
              <LongitudeDegrees>-1.9803297333419322967529296875</LongitudeDegrees>
            </Position>
            <AltitudeMeters>2.2000000476837158203125</AltitudeMeters>
            <DistanceMeters>NAN</DistanceMeters>
          </Trackpoint>
          <Trackpoint>
            <Time>2021-08-12T11:52:52.000Z</Time>
            <Position>
              <LatitudeDegrees>43.32338131964206695556640625</LatitudeDegrees>
              <LongitudeDegrees>-1.9804849661886692047119140625</LongitudeDegrees>
            </Position>
            <AltitudeMeters>2.400000095367431640625</AltitudeMeters>
            <DistanceMeters>NAN</DistanceMeters>
          </Trackpoint>
          <Trackpoint>
            <Time>2021-08-12T11:52:53.000Z</Time>
            <Position>
              <LatitudeDegrees>43.32337218336760997772216796875</LatitudeDegrees>
              <LongitudeDegrees>-1.98050885461270809173583984375</LongitudeDegrees>
            </Position>
            <AltitudeMeters>2.599999904632568359375</AltitudeMeters>
            <DistanceMeters>NAN</DistanceMeters>
          </Trackpoint>
          <Trackpoint>
            <Time>2021-08-12T11:52:54.000Z</Time>
            <Position>
              <LatitudeDegrees>43.323364220559597015380859375</LatitudeDegrees>
              <LongitudeDegrees>-1.98052763007581233978271484375</LongitudeDegrees>
            </Position>
            <AltitudeMeters>2.599999904632568359375</AltitudeMeters>
            <DistanceMeters>NAN</DistanceMeters>
          </Trackpoint>
          <Trackpoint>
            <Time>2021-08-12T11:52:55.000Z</Time>
            <Position>
              <LatitudeDegrees>43.32335927523672580718994140625</LatitudeDegrees>
              <LongitudeDegrees>-1.9805396161973476409912109375</LongitudeDegrees>
            </Position>
            <AltitudeMeters>2.599999904632568359375</AltitudeMeters>
            <DistanceMeters>NAN</DistanceMeters>
          </Trackpoint>
          <Trackpoint>
            <Time>2021-08-12T11:52:56.000Z</Time>
            <Position>
              <LatitudeDegrees>43.32335609011352062225341796875</LatitudeDegrees>
              <LongitudeDegrees>-1.98054959066212177276611328125</LongitudeDegrees>
            </Position>
            <AltitudeMeters>2.599999904632568359375</AltitudeMeters>
            <DistanceMeters>NAN</DistanceMeters>
          </Trackpoint>
          <Trackpoint>
            <Time>2021-08-12T11:52:57.000Z</Time>
            <Position>
              <LatitudeDegrees>43.32335357554256916046142578125</LatitudeDegrees>
              <LongitudeDegrees>-1.9805583916604518890380859375</LongitudeDegrees>
            </Position>
            <AltitudeMeters>2.599999904632568359375</AltitudeMeters>
            <DistanceMeters>NAN</DistanceMeters>
          </Trackpoint>
          <Trackpoint>
            <Time>2021-08-12T11:53:01.000Z</Time>
            <Position>
              <LatitudeDegrees>43.323353491723537445068359375</LatitudeDegrees>
              <LongitudeDegrees>-1.9805640913546085357666015625</LongitudeDegrees>
            </Position>
            <AltitudeMeters>2.599999904632568359375</AltitudeMeters>
            <DistanceMeters>NAN</DistanceMeters>
          </Trackpoint>
          <Trackpoint>
            <Time>2021-08-12T11:53:02.000Z</Time>
            <Position>
              <LatitudeDegrees>43.32335449755191802978515625</LatitudeDegrees>
              <LongitudeDegrees>-1.9805650971829891204833984375</LongitudeDegrees>
            </Position>
            <AltitudeMeters>2.599999904632568359375</AltitudeMeters>
            <DistanceMeters>NAN</DistanceMeters>
          </Trackpoint>
          <Trackpoint>
            <Time>2021-08-12T11:53:16.000Z</Time>
            <Position>
              <LatitudeDegrees>43.32335122860968112945556640625</LatitudeDegrees>
              <LongitudeDegrees>-1.9805801846086978912353515625</LongitudeDegrees>
            </Position>
            <AltitudeMeters>2.400000095367431640625</AltitudeMeters>
            <DistanceMeters>NAN</DistanceMeters>
          </Trackpoint>
          <Trackpoint>
            <Time>2021-08-12T11:53:42.000Z</Time>
            <Position>
              <LatitudeDegrees>43.32334452308714389801025390625</LatitudeDegrees>
              <LongitudeDegrees>-1.98060055263340473175048828125</LongitudeDegrees>
            </Position>
            <AltitudeMeters>2.400000095367431640625</AltitudeMeters>
            <DistanceMeters>NAN</DistanceMeters>
          </Trackpoint>
          <Trackpoint>
            <Time>2021-08-12T11:53:44.000Z</Time>
            <Position>
              <LatitudeDegrees>43.3233234845101833343505859375</LatitudeDegrees>
              <LongitudeDegrees>-1.98065319098532199859619140625</LongitudeDegrees>
            </Position>
            <AltitudeMeters>2.400000095367431640625</AltitudeMeters>
            <DistanceMeters>NAN</DistanceMeters>
          </Trackpoint>
          <Trackpoint>
            <Time>2021-08-12T11:53:47.000Z</Time>
            <Position>
              <LatitudeDegrees>43.32329951226711273193359375</LatitudeDegrees>
              <LongitudeDegrees>-1.98073918931186199188232421875</LongitudeDegrees>
            </Position>
            <AltitudeMeters>2.599999904632568359375</AltitudeMeters>
            <DistanceMeters>NAN</DistanceMeters>
          </Trackpoint>
          <Trackpoint>
            <Time>2021-08-12T11:53:50.000Z</Time>
            <Position>
              <LatitudeDegrees>43.32325584255158901214599609375</LatitudeDegrees>
              <LongitudeDegrees>-1.98083725757896900177001953125</LongitudeDegrees>
            </Position>
            <AltitudeMeters>2.400000095367431640625</AltitudeMeters>
            <DistanceMeters>NAN</DistanceMeters>
          </Trackpoint>
          <Trackpoint>
            <Time>2021-08-12T11:53:53.000Z</Time>
            <Position>
              <LatitudeDegrees>43.32321703433990478515625</LatitudeDegrees>
              <LongitudeDegrees>-1.9809496589004993438720703125</LongitudeDegrees>
            </Position>
            <AltitudeMeters>2.400000095367431640625</AltitudeMeters>
            <DistanceMeters>NAN</DistanceMeters>
          </Trackpoint>
          <Trackpoint>
            <Time>2021-08-12T11:53:54.000Z</Time>
            <Position>
              <LatitudeDegrees>43.3232044614851474761962890625</LatitudeDegrees>
              <LongitudeDegrees>-1.98098276741802692413330078125</LongitudeDegrees>
            </Position>
            <AltitudeMeters>2.400000095367431640625</AltitudeMeters>
            <DistanceMeters>NAN</DistanceMeters>
          </Trackpoint>
          <Trackpoint>
            <Time>2021-08-12T11:53:55.000Z</Time>
            <Position>
              <LatitudeDegrees>43.3231910504400730133056640625</LatitudeDegrees>
              <LongitudeDegrees>-1.98101830668747425079345703125</LongitudeDegrees>
            </Position>
            <AltitudeMeters>2.400000095367431640625</AltitudeMeters>
            <DistanceMeters>NAN</DistanceMeters>
          </Trackpoint>
          <Trackpoint>
            <Time>2021-08-12T11:53:56.000Z</Time>
            <Position>
              <LatitudeDegrees>43.3231835067272186279296875</LatitudeDegrees>
              <LongitudeDegrees>-1.98106071911752223968505859375</LongitudeDegrees>
            </Position>
            <AltitudeMeters>2.400000095367431640625</AltitudeMeters>
            <DistanceMeters>NAN</DistanceMeters>
          </Trackpoint>
          <Trackpoint>
            <Time>2021-08-12T11:54:01.000Z</Time>
            <Position>
              <LatitudeDegrees>43.32312785089015960693359375</LatitudeDegrees>
              <LongitudeDegrees>-1.98128183372318744659423828125</LongitudeDegrees>
            </Position>
            <AltitudeMeters>2</AltitudeMeters>
            <DistanceMeters>NAN</DistanceMeters>
          </Trackpoint>
          <Trackpoint>
            <Time>2021-08-12T11:54:06.000Z</Time>
            <Position>
              <LatitudeDegrees>43.32308183424174785614013671875</LatitudeDegrees>
              <LongitudeDegrees>-1.9815234839916229248046875</LongitudeDegrees>
            </Position>
            <AltitudeMeters>1.60000002384185791015625</AltitudeMeters>
            <DistanceMeters>NAN</DistanceMeters>
          </Trackpoint>
          <Trackpoint>
            <Time>2021-08-12T11:54:07.000Z</Time>
            <Position>
              <LatitudeDegrees>43.323069512844085693359375</LatitudeDegrees>
              <LongitudeDegrees>-1.981572099030017852783203125</LongitudeDegrees>
            </Position>
            <AltitudeMeters>1.60000002384185791015625</AltitudeMeters>
            <DistanceMeters>NAN</DistanceMeters>
          </Trackpoint>
          <Trackpoint>
            <Time>2021-08-12T11:54:13.000Z</Time>
            <Position>
              <LatitudeDegrees>43.32299374043941497802734375</LatitudeDegrees>
              <LongitudeDegrees>-1.98186370544135570526123046875</LongitudeDegrees>
            </Position>
            <AltitudeMeters>1.2000000476837158203125</AltitudeMeters>
            <DistanceMeters>NAN</DistanceMeters>
          </Trackpoint>
          <Trackpoint>
            <Time>2021-08-12T11:54:20.000Z</Time>
            <Position>
              <LatitudeDegrees>43.32289190031588077545166015625</LatitudeDegrees>
              <LongitudeDegrees>-1.98216428048908710479736328125</LongitudeDegrees>
            </Position>
            <AltitudeMeters>1</AltitudeMeters>
            <DistanceMeters>NAN</DistanceMeters>
          </Trackpoint>
          <Trackpoint>
            <Time>2021-08-12T11:54:22.000Z</Time>
            <Position>
              <LatitudeDegrees>43.32286373712122440338134765625</LatitudeDegrees>
              <LongitudeDegrees>-1.98224256746470928192138671875</LongitudeDegrees>
            </Position>
            <AltitudeMeters>1</AltitudeMeters>
            <DistanceMeters>NAN</DistanceMeters>
          </Trackpoint>
          <Trackpoint>
            <Time>2021-08-12T11:54:23.000Z</Time>
            <Position>
              <LatitudeDegrees>43.32285015843808650970458984375</LatitudeDegrees>
              <LongitudeDegrees>-1.9822803698480129241943359375</LongitudeDegrees>
            </Position>
            <AltitudeMeters>0.800000011920928955078125</AltitudeMeters>
            <DistanceMeters>NAN</DistanceMeters>
          </Trackpoint>
          <Trackpoint>
            <Time>2021-08-12T11:54:24.000Z</Time>
            <Position>
              <LatitudeDegrees>43.3228366635739803314208984375</LatitudeDegrees>
              <LongitudeDegrees>-1.98231532238423824310302734375</LongitudeDegrees>
            </Position>
            <AltitudeMeters>0.800000011920928955078125</AltitudeMeters>
            <DistanceMeters>NAN</DistanceMeters>
          </Trackpoint>
          <Trackpoint>
            <Time>2021-08-12T11:54:25.000Z</Time>
            <Position>
              <LatitudeDegrees>43.322822749614715576171875</LatitudeDegrees>
              <LongitudeDegrees>-1.98234667070209980010986328125</LongitudeDegrees>
            </Position>
            <AltitudeMeters>0.800000011920928955078125</AltitudeMeters>
            <DistanceMeters>NAN</DistanceMeters>
          </Trackpoint>
          <Trackpoint>
            <Time>2021-08-12T11:54:26.000Z</Time>
            <Position>
              <LatitudeDegrees>43.322810344398021697998046875</LatitudeDegrees>
              <LongitudeDegrees>-1.98237483389675617218017578125</LongitudeDegrees>
            </Position>
            <AltitudeMeters>0.800000011920928955078125</AltitudeMeters>
            <DistanceMeters>NAN</DistanceMeters>
          </Trackpoint>
          <Trackpoint>
            <Time>2021-08-12T11:54:27.000Z</Time>
            <Position>
              <LatitudeDegrees>43.322801291942596435546875</LatitudeDegrees>
              <LongitudeDegrees>-1.98240123689174652099609375</LongitudeDegrees>
            </Position>
            <AltitudeMeters>0.800000011920928955078125</AltitudeMeters>
            <DistanceMeters>NAN</DistanceMeters>
          </Trackpoint>
          <Trackpoint>
            <Time>2021-08-12T11:54:28.000Z</Time>
            <Position>
              <LatitudeDegrees>43.3227893896400928497314453125</LatitudeDegrees>
              <LongitudeDegrees>-1.98241976089775562286376953125</LongitudeDegrees>
            </Position>
            <AltitudeMeters>1</AltitudeMeters>
            <DistanceMeters>NAN</DistanceMeters>
          </Trackpoint>
          <Trackpoint>
            <Time>2021-08-12T11:54:29.000Z</Time>
            <Position>
              <LatitudeDegrees>43.32277991808950901031494140625</LatitudeDegrees>
              <LongitudeDegrees>-1.9824434816837310791015625</LongitudeDegrees>
            </Position>
            <AltitudeMeters>1</AltitudeMeters>
            <DistanceMeters>NAN</DistanceMeters>
          </Trackpoint>
          <Trackpoint>
            <Time>2021-08-12T11:54:30.000Z</Time>
            <Position>
              <LatitudeDegrees>43.3227696083486080169677734375</LatitudeDegrees>
              <LongitudeDegrees>-1.98246820829808712005615234375</LongitudeDegrees>
            </Position>
            <AltitudeMeters>0.800000011920928955078125</AltitudeMeters>
            <DistanceMeters>NAN</DistanceMeters>
          </Trackpoint>
          <Trackpoint>
            <Time>2021-08-12T11:54:32.000Z</Time>
            <Position>
              <LatitudeDegrees>43.32274991087615489959716796875</LatitudeDegrees>
              <LongitudeDegrees>-1.98252202011644840240478515625</LongitudeDegrees>
            </Position>
            <AltitudeMeters>0.800000011920928955078125</AltitudeMeters>
            <DistanceMeters>NAN</DistanceMeters>
          </Trackpoint>
          <Trackpoint>
            <Time>2021-08-12T11:54:33.000Z</Time>
            <Position>
              <LatitudeDegrees>43.3227417804300785064697265625</LatitudeDegrees>
              <LongitudeDegrees>-1.98254062794148921966552734375</LongitudeDegrees>
            </Position>
            <AltitudeMeters>0.800000011920928955078125</AltitudeMeters>
            <DistanceMeters>NAN</DistanceMeters>
          </Trackpoint>
          <Trackpoint>
            <Time>2021-08-12T11:54:34.000Z</Time>
            <Position>
              <LatitudeDegrees>43.32273649983108043670654296875</LatitudeDegrees>
              <LongitudeDegrees>-1.9825561344623565673828125</LongitudeDegrees>
            </Position>
            <AltitudeMeters>0.800000011920928955078125</AltitudeMeters>
            <DistanceMeters>NAN</DistanceMeters>
          </Trackpoint>
          <Trackpoint>
            <Time>2021-08-12T11:54:35.000Z</Time>
            <Position>
              <LatitudeDegrees>43.3227320574223995208740234375</LatitudeDegrees>
              <LongitudeDegrees>-1.9825723953545093536376953125</LongitudeDegrees>
            </Position>
            <AltitudeMeters>0.800000011920928955078125</AltitudeMeters>
            <DistanceMeters>NAN</DistanceMeters>
          </Trackpoint>
          <Trackpoint>
            <Time>2021-08-12T11:54:36.000Z</Time>
            <Position>
              <LatitudeDegrees>43.32272560335695743560791015625</LatitudeDegrees>
              <LongitudeDegrees>-1.9825910031795501708984375</LongitudeDegrees>
            </Position>
            <AltitudeMeters>0.800000011920928955078125</AltitudeMeters>
            <DistanceMeters>NAN</DistanceMeters>
          </Trackpoint>
          <Trackpoint>
            <Time>2021-08-12T11:54:37.000Z</Time>
            <Position>
              <LatitudeDegrees>43.322718143463134765625</LatitudeDegrees>
              <LongitudeDegrees>-1.98261581361293792724609375</LongitudeDegrees>
            </Position>
            <AltitudeMeters>0.60000002384185791015625</AltitudeMeters>
            <DistanceMeters>NAN</DistanceMeters>
          </Trackpoint>
          <Trackpoint>
            <Time>2021-08-12T11:54:38.000Z</Time>
            <Position>
              <LatitudeDegrees>43.32270699553191661834716796875</LatitudeDegrees>
              <LongitudeDegrees>-1.9826441444456577301025390625</LongitudeDegrees>
            </Position>
            <AltitudeMeters>0.60000002384185791015625</AltitudeMeters>
            <DistanceMeters>NAN</DistanceMeters>
          </Trackpoint>
          <Trackpoint>
            <Time>2021-08-12T11:54:40.000Z</Time>
            <Position>
              <LatitudeDegrees>43.322690315544605255126953125</LatitudeDegrees>
              <LongitudeDegrees>-1.98268555104732513427734375</LongitudeDegrees>
            </Position>
            <AltitudeMeters>0.4000000059604644775390625</AltitudeMeters>
            <DistanceMeters>NAN</DistanceMeters>
          </Trackpoint>
          <Trackpoint>
            <Time>2021-08-12T11:54:41.000Z</Time>
            <Position>
              <LatitudeDegrees>43.322684951126575469970703125</LatitudeDegrees>
              <LongitudeDegrees>-1.9827008061110973358154296875</LongitudeDegrees>
            </Position>
            <AltitudeMeters>0.4000000059604644775390625</AltitudeMeters>
            <DistanceMeters>NAN</DistanceMeters>
          </Trackpoint>
          <Trackpoint>
            <Time>2021-08-12T11:54:42.000Z</Time>
            <Position>
              <LatitudeDegrees>43.32267799414694309234619140625</LatitudeDegrees>
              <LongitudeDegrees>-1.98271463625133037567138671875</LongitudeDegrees>
            </Position>
            <AltitudeMeters>0.4000000059604644775390625</AltitudeMeters>
            <DistanceMeters>NAN</DistanceMeters>
          </Trackpoint>
          <Trackpoint>
            <Time>2021-08-12T11:54:43.000Z</Time>
            <Position>
              <LatitudeDegrees>43.32266743294894695281982421875</LatitudeDegrees>
              <LongitudeDegrees>-1.98272402398288249969482421875</LongitudeDegrees>
            </Position>
            <AltitudeMeters>0.4000000059604644775390625</AltitudeMeters>
            <DistanceMeters>NAN</DistanceMeters>
          </Trackpoint>
          <Trackpoint>
            <Time>2021-08-12T11:54:44.000Z</Time>
            <Position>
              <LatitudeDegrees>43.3226509205996990203857421875</LatitudeDegrees>
              <LongitudeDegrees>-1.9827266223728656768798828125</LongitudeDegrees>
            </Position>
            <AltitudeMeters>0.4000000059604644775390625</AltitudeMeters>
            <DistanceMeters>NAN</DistanceMeters>
          </Trackpoint>
          <Trackpoint>
            <Time>2021-08-12T11:54:45.000Z</Time>
            <Position>
              <LatitudeDegrees>43.3226375095546245574951171875</LatitudeDegrees>
              <LongitudeDegrees>-1.98273592628538608551025390625</LongitudeDegrees>
            </Position>
            <AltitudeMeters>0.4000000059604644775390625</AltitudeMeters>
            <DistanceMeters>NAN</DistanceMeters>
          </Trackpoint>
          <Trackpoint>
            <Time>2021-08-12T11:54:46.000Z</Time>
            <Position>
              <LatitudeDegrees>43.32262518815696239471435546875</LatitudeDegrees>
              <LongitudeDegrees>-1.9827440567314624786376953125</LongitudeDegrees>
            </Position>
            <AltitudeMeters>0.4000000059604644775390625</AltitudeMeters>
            <DistanceMeters>NAN</DistanceMeters>
          </Trackpoint>
          <Trackpoint>
            <Time>2021-08-12T11:54:47.000Z</Time>
            <Position>
              <LatitudeDegrees>43.322613537311553955078125</LatitudeDegrees>
              <LongitudeDegrees>-1.9827474094927310943603515625</LongitudeDegrees>
            </Position>
            <AltitudeMeters>0.4000000059604644775390625</AltitudeMeters>
            <DistanceMeters>NAN</DistanceMeters>
          </Trackpoint>
          <Trackpoint>
            <Time>2021-08-12T11:54:48.000Z</Time>
            <Position>
              <LatitudeDegrees>43.3226012997329235076904296875</LatitudeDegrees>
              <LongitudeDegrees>-1.982746906578540802001953125</LongitudeDegrees>
            </Position>
            <AltitudeMeters>0.60000002384185791015625</AltitudeMeters>
            <DistanceMeters>NAN</DistanceMeters>
          </Trackpoint>
          <Trackpoint>
            <Time>2021-08-12T11:54:49.000Z</Time>
            <Position>
              <LatitudeDegrees>43.32259266637265682220458984375</LatitudeDegrees>
              <LongitudeDegrees>-1.98274699039757251739501953125</LongitudeDegrees>
            </Position>
            <AltitudeMeters>0.60000002384185791015625</AltitudeMeters>
            <DistanceMeters>NAN</DistanceMeters>
          </Trackpoint>
          <Trackpoint>
            <Time>2021-08-12T11:54:50.000Z</Time>
            <Position>
              <LatitudeDegrees>43.3225878886878490447998046875</LatitudeDegrees>
              <LongitudeDegrees>-1.982750259339809417724609375</LongitudeDegrees>
            </Position>
            <AltitudeMeters>0.60000002384185791015625</AltitudeMeters>
            <DistanceMeters>NAN</DistanceMeters>
          </Trackpoint>
          <Trackpoint>
            <Time>2021-08-12T11:54:51.000Z</Time>
            <Position>
              <LatitudeDegrees>43.32258872687816619873046875</LatitudeDegrees>
              <LongitudeDegrees>-1.98274967260658740997314453125</LongitudeDegrees>
            </Position>
            <AltitudeMeters>0.60000002384185791015625</AltitudeMeters>
            <DistanceMeters>NAN</DistanceMeters>
          </Trackpoint>
          <Trackpoint>
            <Time>2021-08-12T11:54:59.000Z</Time>
            <Position>
              <LatitudeDegrees>43.32257204689085483551025390625</LatitudeDegrees>
              <LongitudeDegrees>-1.98274447582662105560302734375</LongitudeDegrees>
            </Position>
            <AltitudeMeters>0.60000002384185791015625</AltitudeMeters>
            <DistanceMeters>NAN</DistanceMeters>
          </Trackpoint>
          <Trackpoint>
            <Time>2021-08-12T11:55:01.000Z</Time>
            <Position>
              <LatitudeDegrees>43.32254472188651561737060546875</LatitudeDegrees>
              <LongitudeDegrees>-1.98273374699056148529052734375</LongitudeDegrees>
            </Position>
            <AltitudeMeters>0.60000002384185791015625</AltitudeMeters>
            <DistanceMeters>NAN</DistanceMeters>
          </Trackpoint>
          <Trackpoint>
            <Time>2021-08-12T11:55:03.000Z</Time>
            <Position>
              <LatitudeDegrees>43.32250767387449741363525390625</LatitudeDegrees>
              <LongitudeDegrees>-1.98273022659122943878173828125</LongitudeDegrees>
            </Position>
            <AltitudeMeters>0.60000002384185791015625</AltitudeMeters>
            <DistanceMeters>NAN</DistanceMeters>
          </Trackpoint>
          <Trackpoint>
            <Time>2021-08-12T11:55:04.000Z</Time>
            <Position>
              <LatitudeDegrees>43.32248772494494915008544921875</LatitudeDegrees>
              <LongitudeDegrees>-1.9827383570373058319091796875</LongitudeDegrees>
            </Position>
            <AltitudeMeters>0.60000002384185791015625</AltitudeMeters>
            <DistanceMeters>NAN</DistanceMeters>
          </Trackpoint>
          <Trackpoint>
            <Time>2021-08-12T11:55:05.000Z</Time>
            <Position>
              <LatitudeDegrees>43.32246978767216205596923828125</LatitudeDegrees>
              <LongitudeDegrees>-1.9827534444630146026611328125</LongitudeDegrees>
            </Position>
            <AltitudeMeters>0.60000002384185791015625</AltitudeMeters>
            <DistanceMeters>NAN</DistanceMeters>
          </Trackpoint>
          <Trackpoint>
            <Time>2021-08-12T11:55:08.000Z</Time>
            <Position>
              <LatitudeDegrees>43.322427459061145782470703125</LatitudeDegrees>
              <LongitudeDegrees>-1.98284070007503032684326171875</LongitudeDegrees>
            </Position>
            <AltitudeMeters>0.60000002384185791015625</AltitudeMeters>
            <DistanceMeters>NAN</DistanceMeters>
          </Trackpoint>
          <Trackpoint>
            <Time>2021-08-12T11:55:13.000Z</Time>
            <Position>
              <LatitudeDegrees>43.322343640029430389404296875</LatitudeDegrees>
              <LongitudeDegrees>-1.98304471559822559356689453125</LongitudeDegrees>
            </Position>
            <AltitudeMeters>0.60000002384185791015625</AltitudeMeters>
            <DistanceMeters>NAN</DistanceMeters>
          </Trackpoint>
          <Trackpoint>
            <Time>2021-08-12T11:55:14.000Z</Time>
            <Position>
              <LatitudeDegrees>43.32232913933694362640380859375</LatitudeDegrees>
              <LongitudeDegrees>-1.98308520019054412841796875</LongitudeDegrees>
            </Position>
            <AltitudeMeters>0.60000002384185791015625</AltitudeMeters>
            <DistanceMeters>NAN</DistanceMeters>
          </Trackpoint>
          <Trackpoint>
            <Time>2021-08-12T11:55:15.000Z</Time>
            <Position>
              <LatitudeDegrees>43.322312124073505401611328125</LatitudeDegrees>
              <LongitudeDegrees>-1.9831195659935474395751953125</LongitudeDegrees>
            </Position>
            <AltitudeMeters>0.60000002384185791015625</AltitudeMeters>
            <DistanceMeters>NAN</DistanceMeters>
          </Trackpoint>
          <Trackpoint>
            <Time>2021-08-12T11:55:16.000Z</Time>
            <Position>
              <LatitudeDegrees>43.3223002217710018157958984375</LatitudeDegrees>
              <LongitudeDegrees>-1.9831557758152484893798828125</LongitudeDegrees>
            </Position>
            <AltitudeMeters>0.60000002384185791015625</AltitudeMeters>
            <DistanceMeters>NAN</DistanceMeters>
          </Trackpoint>
          <Trackpoint>
            <Time>2021-08-12T11:55:17.000Z</Time>
            <Position>
              <LatitudeDegrees>43.3222903311252593994140625</LatitudeDegrees>
              <LongitudeDegrees>-1.983188800513744354248046875</LongitudeDegrees>
            </Position>
            <AltitudeMeters>0.60000002384185791015625</AltitudeMeters>
            <DistanceMeters>NAN</DistanceMeters>
          </Trackpoint>
          <Trackpoint>
            <Time>2021-08-12T11:55:18.000Z</Time>
            <Position>
              <LatitudeDegrees>43.3222834579646587371826171875</LatitudeDegrees>
              <LongitudeDegrees>-1.98321067728102207183837890625</LongitudeDegrees>
            </Position>
            <AltitudeMeters>0.60000002384185791015625</AltitudeMeters>
            <DistanceMeters>NAN</DistanceMeters>
          </Trackpoint>
          <Trackpoint>
            <Time>2021-08-12T11:55:19.000Z</Time>
            <Position>
              <LatitudeDegrees>43.32227851264178752899169921875</LatitudeDegrees>
              <LongitudeDegrees>-1.98322811163961887359619140625</LongitudeDegrees>
            </Position>
            <AltitudeMeters>0.800000011920928955078125</AltitudeMeters>
            <DistanceMeters>NAN</DistanceMeters>
          </Trackpoint>
          <Trackpoint>
            <Time>2021-08-12T11:55:20.000Z</Time>
            <Position>
              <LatitudeDegrees>43.322275243699550628662109375</LatitudeDegrees>
              <LongitudeDegrees>-1.98324588127434253692626953125</LongitudeDegrees>
            </Position>
            <AltitudeMeters>0.800000011920928955078125</AltitudeMeters>
            <DistanceMeters>NAN</DistanceMeters>
          </Trackpoint>
          <Trackpoint>
            <Time>2021-08-12T11:55:21.000Z</Time>
            <Position>
              <LatitudeDegrees>43.3222693763673305511474609375</LatitudeDegrees>
              <LongitudeDegrees>-1.98326515965163707733154296875</LongitudeDegrees>
            </Position>
            <AltitudeMeters>0.800000011920928955078125</AltitudeMeters>
            <DistanceMeters>NAN</DistanceMeters>
          </Trackpoint>
          <Trackpoint>
            <Time>2021-08-12T11:55:22.000Z</Time>
            <Position>
              <LatitudeDegrees>43.3222552947700023651123046875</LatitudeDegrees>
              <LongitudeDegrees>-1.9832821749150753021240234375</LongitudeDegrees>
            </Position>
            <AltitudeMeters>0.800000011920928955078125</AltitudeMeters>
            <DistanceMeters>NAN</DistanceMeters>
          </Trackpoint>
          <Trackpoint>
            <Time>2021-08-12T11:55:23.000Z</Time>
            <Position>
              <LatitudeDegrees>43.3222365193068981170654296875</LatitudeDegrees>
              <LongitudeDegrees>-1.98330723680555820465087890625</LongitudeDegrees>
            </Position>
            <AltitudeMeters>1</AltitudeMeters>
            <DistanceMeters>NAN</DistanceMeters>
          </Trackpoint>
          <Trackpoint>
            <Time>2021-08-12T11:55:28.000Z</Time>
            <Position>
              <LatitudeDegrees>43.32215957343578338623046875</LatitudeDegrees>
              <LongitudeDegrees>-1.98350119404494762420654296875</LongitudeDegrees>
            </Position>
            <AltitudeMeters>1</AltitudeMeters>
            <DistanceMeters>NAN</DistanceMeters>
          </Trackpoint>
          <Trackpoint>
            <Time>2021-08-12T11:55:29.000Z</Time>
            <Position>
              <LatitudeDegrees>43.322149850428104400634765625</LatitudeDegrees>
              <LongitudeDegrees>-1.98353891260921955108642578125</LongitudeDegrees>
            </Position>
            <AltitudeMeters>0.800000011920928955078125</AltitudeMeters>
            <DistanceMeters>NAN</DistanceMeters>
          </Trackpoint>
          <Trackpoint>
            <Time>2021-08-12T11:55:35.000Z</Time>
            <Position>
              <LatitudeDegrees>43.3220569789409637451171875</LatitudeDegrees>
              <LongitudeDegrees>-1.9837485440075397491455078125</LongitudeDegrees>
            </Position>
            <AltitudeMeters>0.800000011920928955078125</AltitudeMeters>
            <DistanceMeters>NAN</DistanceMeters>
          </Trackpoint>
          <Trackpoint>
            <Time>2021-08-12T11:55:37.000Z</Time>
            <Position>
              <LatitudeDegrees>43.32203241996467113494873046875</LatitudeDegrees>
              <LongitudeDegrees>-1.98382356204092502593994140625</LongitudeDegrees>
            </Position>
            <AltitudeMeters>1</AltitudeMeters>
            <DistanceMeters>NAN</DistanceMeters>
          </Trackpoint>
          <Trackpoint>
            <Time>2021-08-12T11:55:39.000Z</Time>
            <Position>
              <LatitudeDegrees>43.3220014907419681549072265625</LatitudeDegrees>
              <LongitudeDegrees>-1.98390939272940158843994140625</LongitudeDegrees>
            </Position>
            <AltitudeMeters>1</AltitudeMeters>
            <DistanceMeters>NAN</DistanceMeters>
          </Trackpoint>
          <Trackpoint>
            <Time>2021-08-12T11:55:42.000Z</Time>
            <Position>
              <LatitudeDegrees>43.3219602517783641815185546875</LatitudeDegrees>
              <LongitudeDegrees>-1.98403201997280120849609375</LongitudeDegrees>
            </Position>
            <AltitudeMeters>1</AltitudeMeters>
            <DistanceMeters>NAN</DistanceMeters>
          </Trackpoint>
          <Trackpoint>
            <Time>2021-08-12T11:55:45.000Z</Time>
            <Position>
              <LatitudeDegrees>43.32191859371960163116455078125</LatitudeDegrees>
              <LongitudeDegrees>-1.98414735496044158935546875</LongitudeDegrees>
            </Position>
            <AltitudeMeters>1</AltitudeMeters>
            <DistanceMeters>NAN</DistanceMeters>
          </Trackpoint>
          <Trackpoint>
            <Time>2021-08-12T11:55:46.000Z</Time>
            <Position>
              <LatitudeDegrees>43.32190467976033687591552734375</LatitudeDegrees>
              <LongitudeDegrees>-1.9841797091066837310791015625</LongitudeDegrees>
            </Position>
            <AltitudeMeters>1</AltitudeMeters>
            <DistanceMeters>NAN</DistanceMeters>
          </Trackpoint>
          <Trackpoint>
            <Time>2021-08-12T11:55:50.000Z</Time>
            <Position>
              <LatitudeDegrees>43.321827985346317291259765625</LatitudeDegrees>
              <LongitudeDegrees>-1.98434315621852874755859375</LongitudeDegrees>
            </Position>
            <AltitudeMeters>1</AltitudeMeters>
            <DistanceMeters>NAN</DistanceMeters>
          </Trackpoint>
          <Trackpoint>
            <Time>2021-08-12T11:55:51.000Z</Time>
            <Position>
              <LatitudeDegrees>43.32181298173964023590087890625</LatitudeDegrees>
              <LongitudeDegrees>-1.98438473045825958251953125</LongitudeDegrees>
            </Position>
            <AltitudeMeters>1</AltitudeMeters>
            <DistanceMeters>NAN</DistanceMeters>
          </Trackpoint>
          <Trackpoint>
            <Time>2021-08-12T11:55:52.000Z</Time>
            <Position>
              <LatitudeDegrees>43.321803845465183258056640625</LatitudeDegrees>
              <LongitudeDegrees>-1.984421946108341217041015625</LongitudeDegrees>
            </Position>
            <AltitudeMeters>1</AltitudeMeters>
            <DistanceMeters>NAN</DistanceMeters>
          </Trackpoint>
          <Trackpoint>
            <Time>2021-08-12T11:55:54.000Z</Time>
            <Position>
              <LatitudeDegrees>43.32178180105984210968017578125</LatitudeDegrees>
              <LongitudeDegrees>-1.98450048454105854034423828125</LongitudeDegrees>
            </Position>
            <AltitudeMeters>1</AltitudeMeters>
            <DistanceMeters>NAN</DistanceMeters>
          </Trackpoint>
          <Trackpoint>
            <Time>2021-08-12T11:55:56.000Z</Time>
            <Position>
              <LatitudeDegrees>43.3217295818030834197998046875</LatitudeDegrees>
              <LongitudeDegrees>-1.9845716468989849090576171875</LongitudeDegrees>
            </Position>
            <AltitudeMeters>1</AltitudeMeters>
            <DistanceMeters>NAN</DistanceMeters>
          </Trackpoint>
          <Trackpoint>
            <Time>2021-08-12T11:55:57.000Z</Time>
            <Position>
              <LatitudeDegrees>43.3217136561870574951171875</LatitudeDegrees>
              <LongitudeDegrees>-1.98460592888295650482177734375</LongitudeDegrees>
            </Position>
            <AltitudeMeters>1</AltitudeMeters>
            <DistanceMeters>NAN</DistanceMeters>
          </Trackpoint>
          <Trackpoint>
            <Time>2021-08-12T11:55:58.000Z</Time>
            <Position>
              <LatitudeDegrees>43.3216987363994121551513671875</LatitudeDegrees>
              <LongitudeDegrees>-1.9846423901617527008056640625</LongitudeDegrees>
            </Position>
            <AltitudeMeters>1</AltitudeMeters>
            <DistanceMeters>NAN</DistanceMeters>
          </Trackpoint>
          <Trackpoint>
            <Time>2021-08-12T11:55:59.000Z</Time>
            <Position>
              <LatitudeDegrees>43.32167853601276874542236328125</LatitudeDegrees>
              <LongitudeDegrees>-1.98467851616442203521728515625</LongitudeDegrees>
            </Position>
            <AltitudeMeters>1</AltitudeMeters>
            <DistanceMeters>NAN</DistanceMeters>
          </Trackpoint>
          <Trackpoint>
            <Time>2021-08-12T11:56:00.000Z</Time>
            <Position>
              <LatitudeDegrees>43.32166344858705997467041015625</LatitudeDegrees>
              <LongitudeDegrees>-1.9847010634839534759521484375</LongitudeDegrees>
            </Position>
            <AltitudeMeters>1</AltitudeMeters>
            <DistanceMeters>NAN</DistanceMeters>
          </Trackpoint>
          <Trackpoint>
            <Time>2021-08-12T11:56:01.000Z</Time>
            <Position>
              <LatitudeDegrees>43.3216524682939052581787109375</LatitudeDegrees>
              <LongitudeDegrees>-1.98472000658512115478515625</LongitudeDegrees>
            </Position>
            <AltitudeMeters>1</AltitudeMeters>
            <DistanceMeters>NAN</DistanceMeters>
          </Trackpoint>
          <Trackpoint>
            <Time>2021-08-12T11:56:02.000Z</Time>
            <Position>
              <LatitudeDegrees>43.321642242372035980224609375</LatitudeDegrees>
              <LongitudeDegrees>-1.9847355969250202178955078125</LongitudeDegrees>
            </Position>
            <AltitudeMeters>1.2000000476837158203125</AltitudeMeters>
            <DistanceMeters>NAN</DistanceMeters>
          </Trackpoint>
          <Trackpoint>
            <Time>2021-08-12T11:56:03.000Z</Time>
            <Position>
              <LatitudeDegrees>43.32163578830659389495849609375</LatitudeDegrees>
              <LongitudeDegrees>-1.98475361801683902740478515625</LongitudeDegrees>
            </Position>
            <AltitudeMeters>1.2000000476837158203125</AltitudeMeters>
            <DistanceMeters>NAN</DistanceMeters>
          </Trackpoint>
          <Trackpoint>
            <Time>2021-08-12T11:56:04.000Z</Time>
            <Position>
              <LatitudeDegrees>43.32163059152662754058837890625</LatitudeDegrees>
              <LongitudeDegrees>-1.984774656593799591064453125</LongitudeDegrees>
            </Position>
            <AltitudeMeters>1.2000000476837158203125</AltitudeMeters>
            <DistanceMeters>NAN</DistanceMeters>
          </Trackpoint>
          <Trackpoint>
            <Time>2021-08-12T11:56:05.000Z</Time>
            <Position>
              <LatitudeDegrees>43.321624137461185455322265625</LatitudeDegrees>
              <LongitudeDegrees>-1.9847949407994747161865234375</LongitudeDegrees>
            </Position>
            <AltitudeMeters>1.2000000476837158203125</AltitudeMeters>
            <DistanceMeters>NAN</DistanceMeters>
          </Trackpoint>
          <Trackpoint>
            <Time>2021-08-12T11:56:07.000Z</Time>
            <Position>
              <LatitudeDegrees>43.32160594873130321502685546875</LatitudeDegrees>
              <LongitudeDegrees>-1.984826624393463134765625</LongitudeDegrees>
            </Position>
            <AltitudeMeters>1.2000000476837158203125</AltitudeMeters>
            <DistanceMeters>NAN</DistanceMeters>
          </Trackpoint>
          <Trackpoint>
            <Time>2021-08-12T11:56:08.000Z</Time>
            <Position>
              <LatitudeDegrees>43.32159890793263912200927734375</LatitudeDegrees>
              <LongitudeDegrees>-1.98484414257109165191650390625</LongitudeDegrees>
            </Position>
            <AltitudeMeters>1.2000000476837158203125</AltitudeMeters>
            <DistanceMeters>NAN</DistanceMeters>
          </Trackpoint>
          <Trackpoint>
            <Time>2021-08-12T11:56:09.000Z</Time>
            <Position>
              <LatitudeDegrees>43.32159589044749736785888671875</LatitudeDegrees>
              <LongitudeDegrees>-1.98485285975039005279541015625</LongitudeDegrees>
            </Position>
            <AltitudeMeters>1.2000000476837158203125</AltitudeMeters>
            <DistanceMeters>NAN</DistanceMeters>
          </Trackpoint>
          <Trackpoint>
            <Time>2021-08-12T11:56:10.000Z</Time>
            <Position>
              <LatitudeDegrees>43.321590609848499298095703125</LatitudeDegrees>
              <LongitudeDegrees>-1.98485839180648326873779296875</LongitudeDegrees>
            </Position>
            <AltitudeMeters>1.2000000476837158203125</AltitudeMeters>
            <DistanceMeters>NAN</DistanceMeters>
          </Trackpoint>
          <Trackpoint>
            <Time>2021-08-12T11:56:11.000Z</Time>
            <Position>
              <LatitudeDegrees>43.3215867541730403900146484375</LatitudeDegrees>
              <LongitudeDegrees>-1.984865851700305938720703125</LongitudeDegrees>
            </Position>
            <AltitudeMeters>1.2000000476837158203125</AltitudeMeters>
            <DistanceMeters>NAN</DistanceMeters>
          </Trackpoint>
          <Trackpoint>
            <Time>2021-08-12T11:56:12.000Z</Time>
            <Position>
              <LatitudeDegrees>43.3215854130685329437255859375</LatitudeDegrees>
              <LongitudeDegrees>-1.98487096466124057769775390625</LongitudeDegrees>
            </Position>
            <AltitudeMeters>1.2000000476837158203125</AltitudeMeters>
            <DistanceMeters>NAN</DistanceMeters>
          </Trackpoint>
          <Trackpoint>
            <Time>2021-08-12T11:56:13.000Z</Time>
            <Position>
              <LatitudeDegrees>43.32158415578305721282958984375</LatitudeDegrees>
              <LongitudeDegrees>-1.98487079702317714691162109375</LongitudeDegrees>
            </Position>
            <AltitudeMeters>1.2000000476837158203125</AltitudeMeters>
            <DistanceMeters>NAN</DistanceMeters>
          </Trackpoint>
          <Trackpoint>
            <Time>2021-08-12T11:56:25.000Z</Time>
            <Position>
              <LatitudeDegrees>43.32159094512462615966796875</LatitudeDegrees>
              <LongitudeDegrees>-1.98487632907927036285400390625</LongitudeDegrees>
            </Position>
            <AltitudeMeters>1</AltitudeMeters>
            <DistanceMeters>NAN</DistanceMeters>
          </Trackpoint>
          <Trackpoint>
            <Time>2021-08-12T11:56:30.000Z</Time>
            <Position>
              <LatitudeDegrees>43.32157711498439311981201171875</LatitudeDegrees>
              <LongitudeDegrees>-1.98488990776240825653076171875</LongitudeDegrees>
            </Position>
            <AltitudeMeters>0.800000011920928955078125</AltitudeMeters>
            <DistanceMeters>NAN</DistanceMeters>
          </Trackpoint>
          <Trackpoint>
            <Time>2021-08-12T11:56:32.000Z</Time>
            <Position>
              <LatitudeDegrees>43.3215602673590183258056640625</LatitudeDegrees>
              <LongitudeDegrees>-1.984920166432857513427734375</LongitudeDegrees>
            </Position>
            <AltitudeMeters>0.800000011920928955078125</AltitudeMeters>
            <DistanceMeters>NAN</DistanceMeters>
          </Trackpoint>
          <Trackpoint>
            <Time>2021-08-12T11:56:33.000Z</Time>
            <Position>
              <LatitudeDegrees>43.3215562440454959869384765625</LatitudeDegrees>
              <LongitudeDegrees>-1.98493835516273975372314453125</LongitudeDegrees>
            </Position>
            <AltitudeMeters>0.800000011920928955078125</AltitudeMeters>
            <DistanceMeters>NAN</DistanceMeters>
          </Trackpoint>
          <Trackpoint>
            <Time>2021-08-12T11:56:34.000Z</Time>
            <Position>
              <LatitudeDegrees>43.32154978998005390167236328125</LatitudeDegrees>
              <LongitudeDegrees>-1.98495629243552684783935546875</LongitudeDegrees>
            </Position>
            <AltitudeMeters>0.800000011920928955078125</AltitudeMeters>
            <DistanceMeters>NAN</DistanceMeters>
          </Trackpoint>
          <Trackpoint>
            <Time>2021-08-12T11:56:35.000Z</Time>
            <Position>
              <LatitudeDegrees>43.3215341158211231231689453125</LatitudeDegrees>
              <LongitudeDegrees>-1.98497406207025051116943359375</LongitudeDegrees>
            </Position>
            <AltitudeMeters>0.800000011920928955078125</AltitudeMeters>
            <DistanceMeters>NAN</DistanceMeters>
          </Trackpoint>
          <Trackpoint>
            <Time>2021-08-12T11:56:37.000Z</Time>
            <Position>
              <LatitudeDegrees>43.32147988490760326385498046875</LatitudeDegrees>
              <LongitudeDegrees>-1.98497657664120197296142578125</LongitudeDegrees>
            </Position>
            <AltitudeMeters>0.800000011920928955078125</AltitudeMeters>
            <DistanceMeters>NAN</DistanceMeters>
          </Trackpoint>
          <Trackpoint>
            <Time>2021-08-12T11:56:40.000Z</Time>
            <Position>
              <LatitudeDegrees>43.3214057050645351409912109375</LatitudeDegrees>
              <LongitudeDegrees>-1.98493148200213909149169921875</LongitudeDegrees>
            </Position>
            <AltitudeMeters>0.800000011920928955078125</AltitudeMeters>
            <DistanceMeters>NAN</DistanceMeters>
          </Trackpoint>
          <Trackpoint>
            <Time>2021-08-12T11:56:41.000Z</Time>
            <Position>
              <LatitudeDegrees>43.32137770950794219970703125</LatitudeDegrees>
              <LongitudeDegrees>-1.98491203598678112030029296875</LongitudeDegrees>
            </Position>
            <AltitudeMeters>0.800000011920928955078125</AltitudeMeters>
            <DistanceMeters>NAN</DistanceMeters>
          </Trackpoint>
          <Trackpoint>
            <Time>2021-08-12T11:56:43.000Z</Time>
            <Position>
              <LatitudeDegrees>43.32132029347121715545654296875</LatitudeDegrees>
              <LongitudeDegrees>-1.98487767018377780914306640625</LongitudeDegrees>
            </Position>
            <AltitudeMeters>0.800000011920928955078125</AltitudeMeters>
            <DistanceMeters>NAN</DistanceMeters>
          </Trackpoint>
          <Trackpoint>
            <Time>2021-08-12T11:56:44.000Z</Time>
            <Position>
              <LatitudeDegrees>43.32129531539976596832275390625</LatitudeDegrees>
              <LongitudeDegrees>-1.98486191220581531524658203125</LongitudeDegrees>
            </Position>
            <AltitudeMeters>0.800000011920928955078125</AltitudeMeters>
            <DistanceMeters>NAN</DistanceMeters>
          </Trackpoint>
          <Trackpoint>
            <Time>2021-08-12T11:56:45.000Z</Time>
            <Position>
              <LatitudeDegrees>43.32127176225185394287109375</LatitudeDegrees>
              <LongitudeDegrees>-1.98484548367559909820556640625</LongitudeDegrees>
            </Position>
            <AltitudeMeters>0.800000011920928955078125</AltitudeMeters>
            <DistanceMeters>NAN</DistanceMeters>
          </Trackpoint>
          <Trackpoint>
            <Time>2021-08-12T11:56:51.000Z</Time>
            <Position>
              <LatitudeDegrees>43.3210949040949344635009765625</LatitudeDegrees>
              <LongitudeDegrees>-1.9847097806632518768310546875</LongitudeDegrees>
            </Position>
            <AltitudeMeters>0.60000002384185791015625</AltitudeMeters>
            <DistanceMeters>NAN</DistanceMeters>
          </Trackpoint>
          <Trackpoint>
            <Time>2021-08-12T11:56:57.000Z</Time>
            <Position>
              <LatitudeDegrees>43.32093958742916584014892578125</LatitudeDegrees>
              <LongitudeDegrees>-1.984594278037548065185546875</LongitudeDegrees>
            </Position>
            <AltitudeMeters>0.60000002384185791015625</AltitudeMeters>
            <DistanceMeters>NAN</DistanceMeters>
          </Trackpoint>
          <Trackpoint>
            <Time>2021-08-12T11:56:58.000Z</Time>
            <Position>
              <LatitudeDegrees>43.320918381214141845703125</LatitudeDegrees>
              <LongitudeDegrees>-1.984575502574443817138671875</LongitudeDegrees>
            </Position>
            <AltitudeMeters>0.60000002384185791015625</AltitudeMeters>
            <DistanceMeters>NAN</DistanceMeters>
          </Trackpoint>
          <Trackpoint>
            <Time>2021-08-12T11:56:59.000Z</Time>
            <Position>
              <LatitudeDegrees>43.320895247161388397216796875</LatitudeDegrees>
              <LongitudeDegrees>-1.984561420977115631103515625</LongitudeDegrees>
            </Position>
            <AltitudeMeters>0.60000002384185791015625</AltitudeMeters>
            <DistanceMeters>NAN</DistanceMeters>
          </Trackpoint>
          <Trackpoint>
            <Time>2021-08-12T11:57:00.000Z</Time>
            <Position>
              <LatitudeDegrees>43.32086783833801746368408203125</LatitudeDegrees>
              <LongitudeDegrees>-1.984554715454578399658203125</LongitudeDegrees>
            </Position>
            <AltitudeMeters>0.800000011920928955078125</AltitudeMeters>
            <DistanceMeters>NAN</DistanceMeters>
          </Trackpoint>
          <Trackpoint>
            <Time>2021-08-12T11:57:01.000Z</Time>
            <Position>
              <LatitudeDegrees>43.320842944085597991943359375</LatitudeDegrees>
              <LongitudeDegrees>-1.98453719727694988250732421875</LongitudeDegrees>
            </Position>
            <AltitudeMeters>0.800000011920928955078125</AltitudeMeters>
            <DistanceMeters>NAN</DistanceMeters>
          </Trackpoint>
          <Trackpoint>
            <Time>2021-08-12T11:57:02.000Z</Time>
            <Position>
              <LatitudeDegrees>43.32082257606089115142822265625</LatitudeDegrees>
              <LongitudeDegrees>-1.98450903408229351043701171875</LongitudeDegrees>
            </Position>
            <AltitudeMeters>0.800000011920928955078125</AltitudeMeters>
            <DistanceMeters>NAN</DistanceMeters>
          </Trackpoint>
          <Trackpoint>
            <Time>2021-08-12T11:57:03.000Z</Time>
            <Position>
              <LatitudeDegrees>43.32080011256039142608642578125</LatitudeDegrees>
              <LongitudeDegrees>-1.98448221199214458465576171875</LongitudeDegrees>
            </Position>
            <AltitudeMeters>0.800000011920928955078125</AltitudeMeters>
            <DistanceMeters>NAN</DistanceMeters>
          </Trackpoint>
          <Trackpoint>
            <Time>2021-08-12T11:57:05.000Z</Time>
            <Position>
              <LatitudeDegrees>43.3207435347139835357666015625</LatitudeDegrees>
              <LongitudeDegrees>-1.98443703353404998779296875</LongitudeDegrees>
            </Position>
            <AltitudeMeters>0.800000011920928955078125</AltitudeMeters>
            <DistanceMeters>NAN</DistanceMeters>
          </Trackpoint>
          <Trackpoint>
            <Time>2021-08-12T11:57:09.000Z</Time>
            <Position>
              <LatitudeDegrees>43.32061504013836383819580078125</LatitudeDegrees>
              <LongitudeDegrees>-1.9843587465584278106689453125</LongitudeDegrees>
            </Position>
            <AltitudeMeters>0.800000011920928955078125</AltitudeMeters>
            <DistanceMeters>NAN</DistanceMeters>
          </Trackpoint>
          <Trackpoint>
            <Time>2021-08-12T11:57:14.000Z</Time>
            <Position>
              <LatitudeDegrees>43.32045678980648517608642578125</LatitudeDegrees>
              <LongitudeDegrees>-1.9842397235333919525146484375</LongitudeDegrees>
            </Position>
            <AltitudeMeters>0.800000011920928955078125</AltitudeMeters>
            <DistanceMeters>NAN</DistanceMeters>
          </Trackpoint>
          <Trackpoint>
            <Time>2021-08-12T11:57:22.000Z</Time>
            <Position>
              <LatitudeDegrees>43.32016929052770137786865234375</LatitudeDegrees>
              <LongitudeDegrees>-1.984040401875972747802734375</LongitudeDegrees>
            </Position>
            <AltitudeMeters>0.60000002384185791015625</AltitudeMeters>
            <DistanceMeters>NAN</DistanceMeters>
          </Trackpoint>
          <Trackpoint>
            <Time>2021-08-12T11:57:24.000Z</Time>
            <Position>
              <LatitudeDegrees>43.32010407932102680206298828125</LatitudeDegrees>
              <LongitudeDegrees>-1.9840000011026859283447265625</LongitudeDegrees>
            </Position>
            <AltitudeMeters>0.60000002384185791015625</AltitudeMeters>
            <DistanceMeters>NAN</DistanceMeters>
          </Trackpoint>
          <Trackpoint>
            <Time>2021-08-12T11:57:25.000Z</Time>
            <Position>
              <LatitudeDegrees>43.32007340155541896820068359375</LatitudeDegrees>
              <LongitudeDegrees>-1.98399069719016551971435546875</LongitudeDegrees>
            </Position>
            <AltitudeMeters>0.4000000059604644775390625</AltitudeMeters>
            <DistanceMeters>NAN</DistanceMeters>
          </Trackpoint>
          <Trackpoint>
            <Time>2021-08-12T11:57:26.000Z</Time>
            <Position>
              <LatitudeDegrees>43.32004238851368427276611328125</LatitudeDegrees>
              <LongitudeDegrees>-1.98399740271270275115966796875</LongitudeDegrees>
            </Position>
            <AltitudeMeters>0.4000000059604644775390625</AltitudeMeters>
            <DistanceMeters>NAN</DistanceMeters>
          </Trackpoint>
          <Trackpoint>
            <Time>2021-08-12T11:57:27.000Z</Time>
            <Position>
              <LatitudeDegrees>43.32001573406159877777099609375</LatitudeDegrees>
              <LongitudeDegrees>-1.98401031084358692169189453125</LongitudeDegrees>
            </Position>
            <AltitudeMeters>0.4000000059604644775390625</AltitudeMeters>
            <DistanceMeters>NAN</DistanceMeters>
          </Trackpoint>
          <Trackpoint>
            <Time>2021-08-12T11:57:28.000Z</Time>
            <Position>
              <LatitudeDegrees>43.3199915103614330291748046875</LatitudeDegrees>
              <LongitudeDegrees>-1.984032690525054931640625</LongitudeDegrees>
            </Position>
            <AltitudeMeters>0.4000000059604644775390625</AltitudeMeters>
            <DistanceMeters>NAN</DistanceMeters>
          </Trackpoint>
          <Trackpoint>
            <Time>2021-08-12T11:57:30.000Z</Time>
            <Position>
              <LatitudeDegrees>43.31995018757879734039306640625</LatitudeDegrees>
              <LongitudeDegrees>-1.98411047458648681640625</LongitudeDegrees>
            </Position>
            <AltitudeMeters>0.20000000298023223876953125</AltitudeMeters>
            <DistanceMeters>NAN</DistanceMeters>
          </Trackpoint>
          <Trackpoint>
            <Time>2021-08-12T11:57:31.000Z</Time>
            <Position>
              <LatitudeDegrees>43.319931328296661376953125</LatitudeDegrees>
              <LongitudeDegrees>-1.98415649123489856719970703125</LongitudeDegrees>
            </Position>
            <AltitudeMeters>0.20000000298023223876953125</AltitudeMeters>
            <DistanceMeters>NAN</DistanceMeters>
          </Trackpoint>
          <Trackpoint>
            <Time>2021-08-12T11:57:32.000Z</Time>
            <Position>
              <LatitudeDegrees>43.3199143968522548675537109375</LatitudeDegrees>
              <LongitudeDegrees>-1.9842129014432430267333984375</LongitudeDegrees>
            </Position>
            <AltitudeMeters>0.20000000298023223876953125</AltitudeMeters>
            <DistanceMeters>NAN</DistanceMeters>
          </Trackpoint>
          <Trackpoint>
            <Time>2021-08-12T11:57:38.000Z</Time>
            <Position>
              <LatitudeDegrees>43.31981356255710124969482421875</LatitudeDegrees>
              <LongitudeDegrees>-1.984517164528369903564453125</LongitudeDegrees>
            </Position>
            <AltitudeMeters>0.20000000298023223876953125</AltitudeMeters>
            <DistanceMeters>NAN</DistanceMeters>
          </Trackpoint>
          <Trackpoint>
            <Time>2021-08-12T11:57:43.000Z</Time>
            <Position>
              <LatitudeDegrees>43.31971046514809131622314453125</LatitudeDegrees>
              <LongitudeDegrees>-1.9847614131867885589599609375</LongitudeDegrees>
            </Position>
            <AltitudeMeters>0.60000002384185791015625</AltitudeMeters>
            <DistanceMeters>NAN</DistanceMeters>
          </Trackpoint>
          <Trackpoint>
            <Time>2021-08-12T11:57:44.000Z</Time>
            <Position>
              <LatitudeDegrees>43.31967827863991260528564453125</LatitudeDegrees>
              <LongitudeDegrees>-1.9847801886498928070068359375</LongitudeDegrees>
            </Position>
            <AltitudeMeters>0.60000002384185791015625</AltitudeMeters>
            <DistanceMeters>NAN</DistanceMeters>
          </Trackpoint>
          <Trackpoint>
            <Time>2021-08-12T11:57:47.000Z</Time>
            <Position>
              <LatitudeDegrees>43.319572918117046356201171875</LatitudeDegrees>
              <LongitudeDegrees>-1.98478437960147857666015625</LongitudeDegrees>
            </Position>
            <AltitudeMeters>0.60000002384185791015625</AltitudeMeters>
            <DistanceMeters>NAN</DistanceMeters>
          </Trackpoint>
          <Trackpoint>
            <Time>2021-08-12T11:57:48.000Z</Time>
            <Position>
              <LatitudeDegrees>43.31953771412372589111328125</LatitudeDegrees>
              <LongitudeDegrees>-1.98477633297443389892578125</LongitudeDegrees>
            </Position>
            <AltitudeMeters>0.60000002384185791015625</AltitudeMeters>
            <DistanceMeters>NAN</DistanceMeters>
          </Trackpoint>
          <Trackpoint>
            <Time>2021-08-12T11:57:49.000Z</Time>
            <Position>
              <LatitudeDegrees>43.31950091756880283355712890625</LatitudeDegrees>
              <LongitudeDegrees>-1.98476401157677173614501953125</LongitudeDegrees>
            </Position>
            <AltitudeMeters>0.60000002384185791015625</AltitudeMeters>
            <DistanceMeters>NAN</DistanceMeters>
          </Trackpoint>
          <Trackpoint>
            <Time>2021-08-12T11:57:53.000Z</Time>
            <Position>
              <LatitudeDegrees>43.319351635873317718505859375</LatitudeDegrees>
              <LongitudeDegrees>-1.98469159193336963653564453125</LongitudeDegrees>
            </Position>
            <AltitudeMeters>0.20000000298023223876953125</AltitudeMeters>
            <DistanceMeters>NAN</DistanceMeters>
          </Trackpoint>
          <Trackpoint>
            <Time>2021-08-12T11:57:54.000Z</Time>
            <Position>
              <LatitudeDegrees>43.319318778812885284423828125</LatitudeDegrees>
              <LongitudeDegrees>-1.98466979898512363433837890625</LongitudeDegrees>
            </Position>
            <AltitudeMeters>0.20000000298023223876953125</AltitudeMeters>
            <DistanceMeters>NAN</DistanceMeters>
          </Trackpoint>
          <Trackpoint>
            <Time>2021-08-12T11:57:55.000Z</Time>
            <Position>
              <LatitudeDegrees>43.3192860893905162811279296875</LatitudeDegrees>
              <LongitudeDegrees>-1.98464691638946533203125</LongitudeDegrees>
            </Position>
            <AltitudeMeters>0.20000000298023223876953125</AltitudeMeters>
            <DistanceMeters>NAN</DistanceMeters>
          </Trackpoint>
          <Trackpoint>
            <Time>2021-08-12T11:57:56.000Z</Time>
            <Position>
              <LatitudeDegrees>43.319254405796527862548828125</LatitudeDegrees>
              <LongitudeDegrees>-1.98462319560348987579345703125</LongitudeDegrees>
            </Position>
            <AltitudeMeters>0.20000000298023223876953125</AltitudeMeters>
            <DistanceMeters>NAN</DistanceMeters>
          </Trackpoint>
          <Trackpoint>
            <Time>2021-08-12T11:58:00.000Z</Time>
            <Position>
              <LatitudeDegrees>43.31913177855312824249267578125</LatitudeDegrees>
              <LongitudeDegrees>-1.98453283868730068206787109375</LongitudeDegrees>
            </Position>
            <AltitudeMeters>0.20000000298023223876953125</AltitudeMeters>
            <DistanceMeters>NAN</DistanceMeters>
          </Trackpoint>
          <Trackpoint>
            <Time>2021-08-12T11:58:01.000Z</Time>
            <Position>
              <LatitudeDegrees>43.3191036991775035858154296875</LatitudeDegrees>
              <LongitudeDegrees>-1.98451138101518154144287109375</LongitudeDegrees>
            </Position>
            <AltitudeMeters>0.20000000298023223876953125</AltitudeMeters>
            <DistanceMeters>NAN</DistanceMeters>
          </Trackpoint>
          <Trackpoint>
            <Time>2021-08-12T11:58:02.000Z</Time>
            <Position>
              <LatitudeDegrees>43.3190768770873546600341796875</LatitudeDegrees>
              <LongitudeDegrees>-1.98449092917144298553466796875</LongitudeDegrees>
            </Position>
            <AltitudeMeters>0.20000000298023223876953125</AltitudeMeters>
            <DistanceMeters>NAN</DistanceMeters>
          </Trackpoint>
          <Trackpoint>
            <Time>2021-08-12T11:58:03.000Z</Time>
            <Position>
              <LatitudeDegrees>43.3190490491688251495361328125</LatitudeDegrees>
              <LongitudeDegrees>-1.98447215370833873748779296875</LongitudeDegrees>
            </Position>
            <AltitudeMeters>0.4000000059604644775390625</AltitudeMeters>
            <DistanceMeters>NAN</DistanceMeters>
          </Trackpoint>
          <Trackpoint>
            <Time>2021-08-12T11:58:04.000Z</Time>
            <Position>
              <LatitudeDegrees>43.31902264617383480072021484375</LatitudeDegrees>
              <LongitudeDegrees>-1.98444843292236328125</LongitudeDegrees>
            </Position>
            <AltitudeMeters>0.4000000059604644775390625</AltitudeMeters>
            <DistanceMeters>NAN</DistanceMeters>
          </Trackpoint>
          <Trackpoint>
            <Time>2021-08-12T11:58:05.000Z</Time>
            <Position>
              <LatitudeDegrees>43.31899859011173248291015625</LatitudeDegrees>
              <LongitudeDegrees>-1.98442471213638782501220703125</LongitudeDegrees>
            </Position>
            <AltitudeMeters>0.4000000059604644775390625</AltitudeMeters>
            <DistanceMeters>NAN</DistanceMeters>
          </Trackpoint>
          <Trackpoint>
            <Time>2021-08-12T11:58:06.000Z</Time>
            <Position>
              <LatitudeDegrees>43.31897151656448841094970703125</LatitudeDegrees>
              <LongitudeDegrees>-1.9844122231006622314453125</LongitudeDegrees>
            </Position>
            <AltitudeMeters>0.4000000059604644775390625</AltitudeMeters>
            <DistanceMeters>NAN</DistanceMeters>
          </Trackpoint>
          <Trackpoint>
            <Time>2021-08-12T11:58:07.000Z</Time>
            <Position>
              <LatitudeDegrees>43.31894360482692718505859375</LatitudeDegrees>
              <LongitudeDegrees>-1.98441314511001110076904296875</LongitudeDegrees>
            </Position>
            <AltitudeMeters>0.4000000059604644775390625</AltitudeMeters>
            <DistanceMeters>NAN</DistanceMeters>
          </Trackpoint>
          <Trackpoint>
            <Time>2021-08-12T11:58:08.000Z</Time>
            <Position>
              <LatitudeDegrees>43.31891569308936595916748046875</LatitudeDegrees>
              <LongitudeDegrees>-1.98442362248897552490234375</LongitudeDegrees>
            </Position>
            <AltitudeMeters>0.4000000059604644775390625</AltitudeMeters>
            <DistanceMeters>NAN</DistanceMeters>
          </Trackpoint>
          <Trackpoint>
            <Time>2021-08-12T11:58:09.000Z</Time>
            <Position>
              <LatitudeDegrees>43.31888903863728046417236328125</LatitudeDegrees>
              <LongitudeDegrees>-1.9844444096088409423828125</LongitudeDegrees>
            </Position>
            <AltitudeMeters>0.4000000059604644775390625</AltitudeMeters>
            <DistanceMeters>NAN</DistanceMeters>
          </Trackpoint>
          <Trackpoint>
            <Time>2021-08-12T11:58:10.000Z</Time>
            <Position>
              <LatitudeDegrees>43.3188676647841930389404296875</LatitudeDegrees>
              <LongitudeDegrees>-1.9844673760235309600830078125</LongitudeDegrees>
            </Position>
            <AltitudeMeters>0.4000000059604644775390625</AltitudeMeters>
            <DistanceMeters>NAN</DistanceMeters>
          </Trackpoint>
          <Trackpoint>
            <Time>2021-08-12T11:58:11.000Z</Time>
            <Position>
              <LatitudeDegrees>43.31884704530239105224609375</LatitudeDegrees>
              <LongitudeDegrees>-1.98449629358947277069091796875</LongitudeDegrees>
            </Position>
            <AltitudeMeters>0.4000000059604644775390625</AltitudeMeters>
            <DistanceMeters>NAN</DistanceMeters>
          </Trackpoint>
          <Trackpoint>
            <Time>2021-08-12T11:58:12.000Z</Time>
            <Position>
              <LatitudeDegrees>43.3188307844102382659912109375</LatitudeDegrees>
              <LongitudeDegrees>-1.98452512733638286590576171875</LongitudeDegrees>
            </Position>
            <AltitudeMeters>0.4000000059604644775390625</AltitudeMeters>
            <DistanceMeters>NAN</DistanceMeters>
          </Trackpoint>
          <Trackpoint>
            <Time>2021-08-12T11:58:13.000Z</Time>
            <Position>
              <LatitudeDegrees>43.31881427206099033355712890625</LatitudeDegrees>
              <LongitudeDegrees>-1.98455505073070526123046875</LongitudeDegrees>
            </Position>
            <AltitudeMeters>0.4000000059604644775390625</AltitudeMeters>
            <DistanceMeters>NAN</DistanceMeters>
          </Trackpoint>
          <Trackpoint>
            <Time>2021-08-12T11:58:14.000Z</Time>
            <Position>
              <LatitudeDegrees>43.3187989331781864166259765625</LatitudeDegrees>
              <LongitudeDegrees>-1.98458748869597911834716796875</LongitudeDegrees>
            </Position>
            <AltitudeMeters>0.20000000298023223876953125</AltitudeMeters>
            <DistanceMeters>NAN</DistanceMeters>
          </Trackpoint>
          <Trackpoint>
            <Time>2021-08-12T11:58:15.000Z</Time>
            <Position>
              <LatitudeDegrees>43.3187831752002239227294921875</LatitudeDegrees>
              <LongitudeDegrees>-1.98462386615574359893798828125</LongitudeDegrees>
            </Position>
            <AltitudeMeters>0.20000000298023223876953125</AltitudeMeters>
            <DistanceMeters>NAN</DistanceMeters>
          </Trackpoint>
          <Trackpoint>
            <Time>2021-08-12T11:58:17.000Z</Time>
            <Position>
              <LatitudeDegrees>43.31875107251107692718505859375</LatitudeDegrees>
              <LongitudeDegrees>-1.98470500297844409942626953125</LongitudeDegrees>
            </Position>
            <AltitudeMeters>0.20000000298023223876953125</AltitudeMeters>
            <DistanceMeters>NAN</DistanceMeters>
          </Trackpoint>
          <Trackpoint>
            <Time>2021-08-12T11:58:21.000Z</Time>
            <Position>
              <LatitudeDegrees>43.3186949975788593292236328125</LatitudeDegrees>
              <LongitudeDegrees>-1.9848469085991382598876953125</LongitudeDegrees>
            </Position>
            <AltitudeMeters>0.20000000298023223876953125</AltitudeMeters>
            <DistanceMeters>NAN</DistanceMeters>
          </Trackpoint>
          <Trackpoint>
            <Time>2021-08-12T11:58:23.000Z</Time>
            <Position>
              <LatitudeDegrees>43.3186614699661731719970703125</LatitudeDegrees>
              <LongitudeDegrees>-1.98490533046424388885498046875</LongitudeDegrees>
            </Position>
            <AltitudeMeters>0.20000000298023223876953125</AltitudeMeters>
            <DistanceMeters>NAN</DistanceMeters>
          </Trackpoint>
          <Trackpoint>
            <Time>2021-08-12T11:58:25.000Z</Time>
            <Position>
              <LatitudeDegrees>43.3186162076890468597412109375</LatitudeDegrees>
              <LongitudeDegrees>-1.98494439013302326202392578125</LongitudeDegrees>
            </Position>
            <AltitudeMeters>0.20000000298023223876953125</AltitudeMeters>
            <DistanceMeters>NAN</DistanceMeters>
          </Trackpoint>
          <Trackpoint>
            <Time>2021-08-12T11:58:26.000Z</Time>
            <Position>
              <LatitudeDegrees>43.3185900561511516571044921875</LatitudeDegrees>
              <LongitudeDegrees>-1.98496274650096893310546875</LongitudeDegrees>
            </Position>
            <AltitudeMeters>0.20000000298023223876953125</AltitudeMeters>
            <DistanceMeters>NAN</DistanceMeters>
          </Trackpoint>
          <Trackpoint>
            <Time>2021-08-12T11:58:27.000Z</Time>
            <Position>
              <LatitudeDegrees>43.3185652457177639007568359375</LatitudeDegrees>
              <LongitudeDegrees>-1.9849806837737560272216796875</LongitudeDegrees>
            </Position>
            <AltitudeMeters>0.20000000298023223876953125</AltitudeMeters>
            <DistanceMeters>NAN</DistanceMeters>
          </Trackpoint>
          <Trackpoint>
            <Time>2021-08-12T11:58:28.000Z</Time>
            <Position>
              <LatitudeDegrees>43.3185406029224395751953125</LatitudeDegrees>
              <LongitudeDegrees>-1.9850008003413677215576171875</LongitudeDegrees>
            </Position>
            <AltitudeMeters>0.20000000298023223876953125</AltitudeMeters>
            <DistanceMeters>NAN</DistanceMeters>
          </Trackpoint>
          <Trackpoint>
            <Time>2021-08-12T11:58:29.000Z</Time>
            <Position>
              <LatitudeDegrees>43.3185179717838764190673828125</LatitudeDegrees>
              <LongitudeDegrees>-1.98501965962350368499755859375</LongitudeDegrees>
            </Position>
            <AltitudeMeters>0</AltitudeMeters>
            <DistanceMeters>NAN</DistanceMeters>
          </Trackpoint>
          <Trackpoint>
            <Time>2021-08-12T11:58:30.000Z</Time>
            <Position>
              <LatitudeDegrees>43.31849693320691585540771484375</LatitudeDegrees>
              <LongitudeDegrees>-1.98503516614437103271484375</LongitudeDegrees>
            </Position>
            <AltitudeMeters>0</AltitudeMeters>
            <DistanceMeters>NAN</DistanceMeters>
          </Trackpoint>
          <Trackpoint>
            <Time>2021-08-12T11:58:31.000Z</Time>
            <Position>
              <LatitudeDegrees>43.31847681663930416107177734375</LatitudeDegrees>
              <LongitudeDegrees>-1.98505100794136524200439453125</LongitudeDegrees>
            </Position>
            <AltitudeMeters>0</AltitudeMeters>
            <DistanceMeters>NAN</DistanceMeters>
          </Trackpoint>
          <Trackpoint>
            <Time>2021-08-12T11:58:32.000Z</Time>
            <Position>
              <LatitudeDegrees>43.31846105866134166717529296875</LatitudeDegrees>
              <LongitudeDegrees>-1.985063664615154266357421875</LongitudeDegrees>
            </Position>
            <AltitudeMeters>0</AltitudeMeters>
            <DistanceMeters>NAN</DistanceMeters>
          </Trackpoint>
          <Trackpoint>
            <Time>2021-08-12T11:58:33.000Z</Time>
            <Position>
              <LatitudeDegrees>43.3184494078159332275390625</LatitudeDegrees>
              <LongitudeDegrees>-1.98507145978510379791259765625</LongitudeDegrees>
            </Position>
            <AltitudeMeters>0</AltitudeMeters>
            <DistanceMeters>NAN</DistanceMeters>
          </Trackpoint>
          <Trackpoint>
            <Time>2021-08-12T11:58:34.000Z</Time>
            <Position>
              <LatitudeDegrees>43.31843758933246135711669921875</LatitudeDegrees>
              <LongitudeDegrees>-1.98507665656507015228271484375</LongitudeDegrees>
            </Position>
            <AltitudeMeters>0</AltitudeMeters>
            <DistanceMeters>NAN</DistanceMeters>
          </Trackpoint>
          <Trackpoint>
            <Time>2021-08-12T11:58:35.000Z</Time>
            <Position>
              <LatitudeDegrees>43.3184254355728626251220703125</LatitudeDegrees>
              <LongitudeDegrees>-1.9850829429924488067626953125</LongitudeDegrees>
            </Position>
            <AltitudeMeters>-0.20000000298023223876953125</AltitudeMeters>
            <DistanceMeters>NAN</DistanceMeters>
          </Trackpoint>
          <Trackpoint>
            <Time>2021-08-12T11:58:36.000Z</Time>
            <Position>
              <LatitudeDegrees>43.318416215479373931884765625</LatitudeDegrees>
              <LongitudeDegrees>-1.98509157635271549224853515625</LongitudeDegrees>
            </Position>
            <AltitudeMeters>-0.20000000298023223876953125</AltitudeMeters>
            <DistanceMeters>NAN</DistanceMeters>
          </Trackpoint>
          <Trackpoint>
            <Time>2021-08-12T11:58:37.000Z</Time>
            <Position>
              <LatitudeDegrees>43.3184093423187732696533203125</LatitudeDegrees>
              <LongitudeDegrees>-1.9851010479032993316650390625</LongitudeDegrees>
            </Position>
            <AltitudeMeters>-0.20000000298023223876953125</AltitudeMeters>
            <DistanceMeters>NAN</DistanceMeters>
          </Trackpoint>
          <Trackpoint>
            <Time>2021-08-12T11:58:40.000Z</Time>
            <Position>
              <LatitudeDegrees>43.31837321631610393524169921875</LatitudeDegrees>
              <LongitudeDegrees>-1.9851228408515453338623046875</LongitudeDegrees>
            </Position>
            <AltitudeMeters>-0.20000000298023223876953125</AltitudeMeters>
            <DistanceMeters>NAN</DistanceMeters>
          </Trackpoint>
          <Trackpoint>
            <Time>2021-08-12T11:58:41.000Z</Time>
            <Position>
              <LatitudeDegrees>43.31834974698722362518310546875</LatitudeDegrees>
              <LongitudeDegrees>-1.985138095915317535400390625</LongitudeDegrees>
            </Position>
            <AltitudeMeters>-0.20000000298023223876953125</AltitudeMeters>
            <DistanceMeters>NAN</DistanceMeters>
          </Trackpoint>
          <Trackpoint>
            <Time>2021-08-12T11:58:44.000Z</Time>
            <Position>
              <LatitudeDegrees>43.31826408393681049346923828125</LatitudeDegrees>
              <LongitudeDegrees>-1.9852059893310070037841796875</LongitudeDegrees>
            </Position>
            <AltitudeMeters>-0.20000000298023223876953125</AltitudeMeters>
            <DistanceMeters>NAN</DistanceMeters>
          </Trackpoint>
          <Trackpoint>
            <Time>2021-08-12T11:58:48.000Z</Time>
            <Position>
              <LatitudeDegrees>43.318133912980556488037109375</LatitudeDegrees>
              <LongitudeDegrees>-1.98531218804419040679931640625</LongitudeDegrees>
            </Position>
            <AltitudeMeters>0</AltitudeMeters>
            <DistanceMeters>NAN</DistanceMeters>
          </Trackpoint>
          <Trackpoint>
            <Time>2021-08-12T11:58:51.000Z</Time>
            <Position>
              <LatitudeDegrees>43.31804011948406696319580078125</LatitudeDegrees>
              <LongitudeDegrees>-1.98537790216505527496337890625</LongitudeDegrees>
            </Position>
            <AltitudeMeters>0.20000000298023223876953125</AltitudeMeters>
            <DistanceMeters>NAN</DistanceMeters>
          </Trackpoint>
          <Trackpoint>
            <Time>2021-08-12T11:58:55.000Z</Time>
            <Position>
              <LatitudeDegrees>43.3179275505244731903076171875</LatitudeDegrees>
              <LongitudeDegrees>-1.98546976782381534576416015625</LongitudeDegrees>
            </Position>
            <AltitudeMeters>0.20000000298023223876953125</AltitudeMeters>
            <DistanceMeters>NAN</DistanceMeters>
          </Trackpoint>
          <Trackpoint>
            <Time>2021-08-12T11:58:56.000Z</Time>
            <Position>
              <LatitudeDegrees>43.3178995549678802490234375</LatitudeDegrees>
              <LongitudeDegrees>-1.98548921383917331695556640625</LongitudeDegrees>
            </Position>
            <AltitudeMeters>0.20000000298023223876953125</AltitudeMeters>
            <DistanceMeters>NAN</DistanceMeters>
          </Trackpoint>
          <Trackpoint>
            <Time>2021-08-12T11:58:57.000Z</Time>
            <Position>
              <LatitudeDegrees>43.31787382252514362335205078125</LatitudeDegrees>
              <LongitudeDegrees>-1.9855080731213092803955078125</LongitudeDegrees>
            </Position>
            <AltitudeMeters>0.20000000298023223876953125</AltitudeMeters>
            <DistanceMeters>NAN</DistanceMeters>
          </Trackpoint>
          <Trackpoint>
            <Time>2021-08-12T11:58:58.000Z</Time>
            <Position>
              <LatitudeDegrees>43.3178477548062801361083984375</LatitudeDegrees>
              <LongitudeDegrees>-1.9855226576328277587890625</LongitudeDegrees>
            </Position>
            <AltitudeMeters>0.20000000298023223876953125</AltitudeMeters>
            <DistanceMeters>NAN</DistanceMeters>
          </Trackpoint>
          <Trackpoint>
            <Time>2021-08-12T11:58:59.000Z</Time>
            <Position>
              <LatitudeDegrees>43.31782252527773380279541015625</LatitudeDegrees>
              <LongitudeDegrees>-1.98553749360144138336181640625</LongitudeDegrees>
            </Position>
            <AltitudeMeters>0.20000000298023223876953125</AltitudeMeters>
            <DistanceMeters>NAN</DistanceMeters>
          </Trackpoint>
          <Trackpoint>
            <Time>2021-08-12T11:59:00.000Z</Time>
            <Position>
              <LatitudeDegrees>43.31779419444501399993896484375</LatitudeDegrees>
              <LongitudeDegrees>-1.98556330986320972442626953125</LongitudeDegrees>
            </Position>
            <AltitudeMeters>0.20000000298023223876953125</AltitudeMeters>
            <DistanceMeters>NAN</DistanceMeters>
          </Trackpoint>
          <Trackpoint>
            <Time>2021-08-12T11:59:01.000Z</Time>
            <Position>
              <LatitudeDegrees>43.31777156330645084381103515625</LatitudeDegrees>
              <LongitudeDegrees>-1.9855818338692188262939453125</LongitudeDegrees>
            </Position>
            <AltitudeMeters>0.20000000298023223876953125</AltitudeMeters>
            <DistanceMeters>NAN</DistanceMeters>
          </Trackpoint>
          <Trackpoint>
            <Time>2021-08-12T11:59:03.000Z</Time>
            <Position>
              <LatitudeDegrees>43.3177143149077892303466796875</LatitudeDegrees>
              <LongitudeDegrees>-1.9856291078031063079833984375</LongitudeDegrees>
            </Position>
            <AltitudeMeters>0.20000000298023223876953125</AltitudeMeters>
            <DistanceMeters>NAN</DistanceMeters>
          </Trackpoint>
          <Trackpoint>
            <Time>2021-08-12T11:59:05.000Z</Time>
            <Position>
              <LatitudeDegrees>43.31766159273684024810791015625</LatitudeDegrees>
              <LongitudeDegrees>-1.98567830957472324371337890625</LongitudeDegrees>
            </Position>
            <AltitudeMeters>0.20000000298023223876953125</AltitudeMeters>
            <DistanceMeters>NAN</DistanceMeters>
          </Trackpoint>
          <Trackpoint>
            <Time>2021-08-12T11:59:06.000Z</Time>
            <Position>
              <LatitudeDegrees>43.31764030270278453826904296875</LatitudeDegrees>
              <LongitudeDegrees>-1.98570764623582363128662109375</LongitudeDegrees>
            </Position>
            <AltitudeMeters>0.20000000298023223876953125</AltitudeMeters>
            <DistanceMeters>NAN</DistanceMeters>
          </Trackpoint>
          <Trackpoint>
            <Time>2021-08-12T11:59:10.000Z</Time>
            <Position>
              <LatitudeDegrees>43.31754139624536037445068359375</LatitudeDegrees>
              <LongitudeDegrees>-1.98582549579441547393798828125</LongitudeDegrees>
            </Position>
            <AltitudeMeters>0.20000000298023223876953125</AltitudeMeters>
            <DistanceMeters>NAN</DistanceMeters>
          </Trackpoint>
          <Trackpoint>
            <Time>2021-08-12T11:59:12.000Z</Time>
            <Position>
              <LatitudeDegrees>43.31748691387474536895751953125</LatitudeDegrees>
              <LongitudeDegrees>-1.9858805648982524871826171875</LongitudeDegrees>
            </Position>
            <AltitudeMeters>0.20000000298023223876953125</AltitudeMeters>
            <DistanceMeters>NAN</DistanceMeters>
          </Trackpoint>
          <Trackpoint>
            <Time>2021-08-12T11:59:17.000Z</Time>
            <Position>
              <LatitudeDegrees>43.31733134575188159942626953125</LatitudeDegrees>
              <LongitudeDegrees>-1.986050046980381011962890625</LongitudeDegrees>
            </Position>
            <AltitudeMeters>0.4000000059604644775390625</AltitudeMeters>
            <DistanceMeters>NAN</DistanceMeters>
          </Trackpoint>
          <Trackpoint>
            <Time>2021-08-12T11:59:18.000Z</Time>
            <Position>
              <LatitudeDegrees>43.3172999136149883270263671875</LatitudeDegrees>
              <LongitudeDegrees>-1.98608458042144775390625</LongitudeDegrees>
            </Position>
            <AltitudeMeters>0.60000002384185791015625</AltitudeMeters>
            <DistanceMeters>NAN</DistanceMeters>
          </Trackpoint>
          <Trackpoint>
            <Time>2021-08-12T11:59:19.000Z</Time>
            <Position>
              <LatitudeDegrees>43.317272923886775970458984375</LatitudeDegrees>
              <LongitudeDegrees>-1.98612548410892486572265625</LongitudeDegrees>
            </Position>
            <AltitudeMeters>0.60000002384185791015625</AltitudeMeters>
            <DistanceMeters>NAN</DistanceMeters>
          </Trackpoint>
          <Trackpoint>
            <Time>2021-08-12T11:59:20.000Z</Time>
            <Position>
              <LatitudeDegrees>43.31724568270146846771240234375</LatitudeDegrees>
              <LongitudeDegrees>-1.98615959845483303070068359375</LongitudeDegrees>
            </Position>
            <AltitudeMeters>0.60000002384185791015625</AltitudeMeters>
            <DistanceMeters>NAN</DistanceMeters>
          </Trackpoint>
          <Trackpoint>
            <Time>2021-08-12T11:59:21.000Z</Time>
            <Position>
              <LatitudeDegrees>43.31721098162233829498291015625</LatitudeDegrees>
              <LongitudeDegrees>-1.98618583381175994873046875</LongitudeDegrees>
            </Position>
            <AltitudeMeters>0.60000002384185791015625</AltitudeMeters>
            <DistanceMeters>NAN</DistanceMeters>
          </Trackpoint>
          <Trackpoint>
            <Time>2021-08-12T11:59:22.000Z</Time>
            <Position>
              <LatitudeDegrees>43.31717745400965213775634765625</LatitudeDegrees>
              <LongitudeDegrees>-1.9862138293683528900146484375</LongitudeDegrees>
            </Position>
            <AltitudeMeters>0.800000011920928955078125</AltitudeMeters>
            <DistanceMeters>NAN</DistanceMeters>
          </Trackpoint>
          <Trackpoint>
            <Time>2021-08-12T11:59:24.000Z</Time>
            <Position>
              <LatitudeDegrees>43.31711693666875362396240234375</LatitudeDegrees>
              <LongitudeDegrees>-1.98626504279673099517822265625</LongitudeDegrees>
            </Position>
            <AltitudeMeters>0.800000011920928955078125</AltitudeMeters>
            <DistanceMeters>NAN</DistanceMeters>
          </Trackpoint>
          <Trackpoint>
            <Time>2021-08-12T11:59:29.000Z</Time>
            <Position>
              <LatitudeDegrees>43.31698265857994556427001953125</LatitudeDegrees>
              <LongitudeDegrees>-1.98643930256366729736328125</LongitudeDegrees>
            </Position>
            <AltitudeMeters>1</AltitudeMeters>
            <DistanceMeters>NAN</DistanceMeters>
          </Trackpoint>
          <Trackpoint>
            <Time>2021-08-12T11:59:30.000Z</Time>
            <Position>
              <LatitudeDegrees>43.31696019507944583892822265625</LatitudeDegrees>
              <LongitudeDegrees>-1.98647593148052692413330078125</LongitudeDegrees>
            </Position>
            <AltitudeMeters>1</AltitudeMeters>
            <DistanceMeters>NAN</DistanceMeters>
          </Trackpoint>
          <Trackpoint>
            <Time>2021-08-12T11:59:31.000Z</Time>
            <Position>
              <LatitudeDegrees>43.31693463027477264404296875</LatitudeDegrees>
              <LongitudeDegrees>-1.986510716378688812255859375</LongitudeDegrees>
            </Position>
            <AltitudeMeters>1</AltitudeMeters>
            <DistanceMeters>NAN</DistanceMeters>
          </Trackpoint>
          <Trackpoint>
            <Time>2021-08-12T11:59:32.000Z</Time>
            <Position>
              <LatitudeDegrees>43.31690889783203601837158203125</LatitudeDegrees>
              <LongitudeDegrees>-1.9865427352488040924072265625</LongitudeDegrees>
            </Position>
            <AltitudeMeters>1</AltitudeMeters>
            <DistanceMeters>NAN</DistanceMeters>
          </Trackpoint>
          <Trackpoint>
            <Time>2021-08-12T11:59:33.000Z</Time>
            <Position>
              <LatitudeDegrees>43.3168829977512359619140625</LatitudeDegrees>
              <LongitudeDegrees>-1.9865715689957141876220703125</LongitudeDegrees>
            </Position>
            <AltitudeMeters>1</AltitudeMeters>
            <DistanceMeters>NAN</DistanceMeters>
          </Trackpoint>
          <Trackpoint>
            <Time>2021-08-12T11:59:34.000Z</Time>
            <Position>
              <LatitudeDegrees>43.3168573491275310516357421875</LatitudeDegrees>
              <LongitudeDegrees>-1.98659864254295825958251953125</LongitudeDegrees>
            </Position>
            <AltitudeMeters>1</AltitudeMeters>
            <DistanceMeters>NAN</DistanceMeters>
          </Trackpoint>
          <Trackpoint>
            <Time>2021-08-12T11:59:37.000Z</Time>
            <Position>
              <LatitudeDegrees>43.3167832531034946441650390625</LatitudeDegrees>
              <LongitudeDegrees>-1.98668279685080051422119140625</LongitudeDegrees>
            </Position>
            <AltitudeMeters>1</AltitudeMeters>
            <DistanceMeters>NAN</DistanceMeters>
          </Trackpoint>
          <Trackpoint>
            <Time>2021-08-12T11:59:42.000Z</Time>
            <Position>
              <LatitudeDegrees>43.3166491426527500152587890625</LatitudeDegrees>
              <LongitudeDegrees>-1.986848674714565277099609375</LongitudeDegrees>
            </Position>
            <AltitudeMeters>1</AltitudeMeters>
            <DistanceMeters>NAN</DistanceMeters>
          </Trackpoint>
          <Trackpoint>
            <Time>2021-08-12T11:59:51.000Z</Time>
            <Position>
              <LatitudeDegrees>43.31641537137329578399658203125</LatitudeDegrees>
              <LongitudeDegrees>-1.98715151287615299224853515625</LongitudeDegrees>
            </Position>
            <AltitudeMeters>1</AltitudeMeters>
            <DistanceMeters>NAN</DistanceMeters>
          </Trackpoint>
          <Trackpoint>
            <Time>2021-08-12T11:59:58.000Z</Time>
            <Position>
              <LatitudeDegrees>43.31621806137263774871826171875</LatitudeDegrees>
              <LongitudeDegrees>-1.987423002719879150390625</LongitudeDegrees>
            </Position>
            <AltitudeMeters>0.800000011920928955078125</AltitudeMeters>
            <DistanceMeters>NAN</DistanceMeters>
          </Trackpoint>
          <Trackpoint>
            <Time>2021-08-12T12:00:08.000Z</Time>
            <Position>
              <LatitudeDegrees>43.3159396983683109283447265625</LatitudeDegrees>
              <LongitudeDegrees>-1.9878114201128482818603515625</LongitudeDegrees>
            </Position>
            <AltitudeMeters>0.800000011920928955078125</AltitudeMeters>
            <DistanceMeters>NAN</DistanceMeters>
          </Trackpoint>
          <Trackpoint>
            <Time>2021-08-12T12:00:09.000Z</Time>
            <Position>
              <LatitudeDegrees>43.31591195426881313323974609375</LatitudeDegrees>
              <LongitudeDegrees>-1.98785274289548397064208984375</LongitudeDegrees>
            </Position>
            <AltitudeMeters>0.800000011920928955078125</AltitudeMeters>
            <DistanceMeters>NAN</DistanceMeters>
          </Trackpoint>
          <Trackpoint>
            <Time>2021-08-12T12:00:10.000Z</Time>
            <Position>
              <LatitudeDegrees>43.315886221826076507568359375</LatitudeDegrees>
              <LongitudeDegrees>-1.9878938980400562286376953125</LongitudeDegrees>
            </Position>
            <AltitudeMeters>0.800000011920928955078125</AltitudeMeters>
            <DistanceMeters>NAN</DistanceMeters>
          </Trackpoint>
          <Trackpoint>
            <Time>2021-08-12T12:00:11.000Z</Time>
            <Position>
              <LatitudeDegrees>43.31586149521172046661376953125</LatitudeDegrees>
              <LongitudeDegrees>-1.9879312813282012939453125</LongitudeDegrees>
            </Position>
            <AltitudeMeters>0.800000011920928955078125</AltitudeMeters>
            <DistanceMeters>NAN</DistanceMeters>
          </Trackpoint>
          <Trackpoint>
            <Time>2021-08-12T12:00:12.000Z</Time>
            <Position>
              <LatitudeDegrees>43.3158350922167301177978515625</LatitudeDegrees>
              <LongitudeDegrees>-1.98796824552118778228759765625</LongitudeDegrees>
            </Position>
            <AltitudeMeters>1</AltitudeMeters>
            <DistanceMeters>NAN</DistanceMeters>
          </Trackpoint>
          <Trackpoint>
            <Time>2021-08-12T12:00:13.000Z</Time>
            <Position>
              <LatitudeDegrees>43.3158074319362640380859375</LatitudeDegrees>
              <LongitudeDegrees>-1.98800059966742992401123046875</LongitudeDegrees>
            </Position>
            <AltitudeMeters>1</AltitudeMeters>
            <DistanceMeters>NAN</DistanceMeters>
          </Trackpoint>
          <Trackpoint>
            <Time>2021-08-12T12:00:15.000Z</Time>
            <Position>
              <LatitudeDegrees>43.315758816897869110107421875</LatitudeDegrees>
              <LongitudeDegrees>-1.98807285167276859283447265625</LongitudeDegrees>
            </Position>
            <AltitudeMeters>1</AltitudeMeters>
            <DistanceMeters>NAN</DistanceMeters>
          </Trackpoint>
          <Trackpoint>
            <Time>2021-08-12T12:00:16.000Z</Time>
            <Position>
              <LatitudeDegrees>43.31573392264544963836669921875</LatitudeDegrees>
              <LongitudeDegrees>-1.9881081394851207733154296875</LongitudeDegrees>
            </Position>
            <AltitudeMeters>1</AltitudeMeters>
            <DistanceMeters>NAN</DistanceMeters>
          </Trackpoint>
          <Trackpoint>
            <Time>2021-08-12T12:00:17.000Z</Time>
            <Position>
              <LatitudeDegrees>43.31571062095463275909423828125</LatitudeDegrees>
              <LongitudeDegrees>-1.98814527131617069244384765625</LongitudeDegrees>
            </Position>
            <AltitudeMeters>1</AltitudeMeters>
            <DistanceMeters>NAN</DistanceMeters>
          </Trackpoint>
          <Trackpoint>
            <Time>2021-08-12T12:00:18.000Z</Time>
            <Position>
              <LatitudeDegrees>43.31568497233092784881591796875</LatitudeDegrees>
              <LongitudeDegrees>-1.98818148113787174224853515625</LongitudeDegrees>
            </Position>
            <AltitudeMeters>1</AltitudeMeters>
            <DistanceMeters>NAN</DistanceMeters>
          </Trackpoint>
          <Trackpoint>
            <Time>2021-08-12T12:00:19.000Z</Time>
            <Position>
              <LatitudeDegrees>43.31566200591623783111572265625</LatitudeDegrees>
              <LongitudeDegrees>-1.9882194511592388153076171875</LongitudeDegrees>
            </Position>
            <AltitudeMeters>1</AltitudeMeters>
            <DistanceMeters>NAN</DistanceMeters>
          </Trackpoint>
          <Trackpoint>
            <Time>2021-08-12T12:00:20.000Z</Time>
            <Position>
              <LatitudeDegrees>43.315641470253467559814453125</LatitudeDegrees>
              <LongitudeDegrees>-1.98826345615088939666748046875</LongitudeDegrees>
            </Position>
            <AltitudeMeters>1</AltitudeMeters>
            <DistanceMeters>NAN</DistanceMeters>
          </Trackpoint>
          <Trackpoint>
            <Time>2021-08-12T12:00:22.000Z</Time>
            <Position>
              <LatitudeDegrees>43.31559528596699237823486328125</LatitudeDegrees>
              <LongitudeDegrees>-1.9883421622216701507568359375</LongitudeDegrees>
            </Position>
            <AltitudeMeters>0.800000011920928955078125</AltitudeMeters>
            <DistanceMeters>NAN</DistanceMeters>
          </Trackpoint>
          <Trackpoint>
            <Time>2021-08-12T12:00:23.000Z</Time>
            <Position>
              <LatitudeDegrees>43.3155715651810169219970703125</LatitudeDegrees>
              <LongitudeDegrees>-1.98838256299495697021484375</LongitudeDegrees>
            </Position>
            <AltitudeMeters>0.800000011920928955078125</AltitudeMeters>
            <DistanceMeters>NAN</DistanceMeters>
          </Trackpoint>
          <Trackpoint>
            <Time>2021-08-12T12:00:29.000Z</Time>
            <Position>
              <LatitudeDegrees>43.3154569007456302642822265625</LatitudeDegrees>
              <LongitudeDegrees>-1.98860116302967071533203125</LongitudeDegrees>
            </Position>
            <AltitudeMeters>0.800000011920928955078125</AltitudeMeters>
            <DistanceMeters>NAN</DistanceMeters>
          </Trackpoint>
          <Trackpoint>
            <Time>2021-08-12T12:00:30.000Z</Time>
            <Position>
              <LatitudeDegrees>43.31544063985347747802734375</LatitudeDegrees>
              <LongitudeDegrees>-1.9886318407952785491943359375</LongitudeDegrees>
            </Position>
            <AltitudeMeters>0.800000011920928955078125</AltitudeMeters>
            <DistanceMeters>NAN</DistanceMeters>
          </Trackpoint>
          <Trackpoint>
            <Time>2021-08-12T12:00:31.000Z</Time>
            <Position>
              <LatitudeDegrees>43.3154263906180858612060546875</LatitudeDegrees>
              <LongitudeDegrees>-1.988659836351871490478515625</LongitudeDegrees>
            </Position>
            <AltitudeMeters>0.800000011920928955078125</AltitudeMeters>
            <DistanceMeters>NAN</DistanceMeters>
          </Trackpoint>
          <Trackpoint>
            <Time>2021-08-12T12:00:32.000Z</Time>
            <Position>
              <LatitudeDegrees>43.315410800278186798095703125</LatitudeDegrees>
              <LongitudeDegrees>-1.988690011203289031982421875</LongitudeDegrees>
            </Position>
            <AltitudeMeters>1</AltitudeMeters>
            <DistanceMeters>NAN</DistanceMeters>
          </Trackpoint>
          <Trackpoint>
            <Time>2021-08-12T12:00:33.000Z</Time>
            <Position>
              <LatitudeDegrees>43.31539311446249485015869140625</LatitudeDegrees>
              <LongitudeDegrees>-1.988715492188930511474609375</LongitudeDegrees>
            </Position>
            <AltitudeMeters>1</AltitudeMeters>
            <DistanceMeters>NAN</DistanceMeters>
          </Trackpoint>
          <Trackpoint>
            <Time>2021-08-12T12:00:35.000Z</Time>
            <Position>
              <LatitudeDegrees>43.3153616823256015777587890625</LatitudeDegrees>
              <LongitudeDegrees>-1.98876938782632350921630859375</LongitudeDegrees>
            </Position>
            <AltitudeMeters>1</AltitudeMeters>
            <DistanceMeters>NAN</DistanceMeters>
          </Trackpoint>
          <Trackpoint>
            <Time>2021-08-12T12:00:36.000Z</Time>
            <Position>
              <LatitudeDegrees>43.31534542143344879150390625</LatitudeDegrees>
              <LongitudeDegrees>-1.988799981772899627685546875</LongitudeDegrees>
            </Position>
            <AltitudeMeters>1</AltitudeMeters>
            <DistanceMeters>NAN</DistanceMeters>
          </Trackpoint>
          <Trackpoint>
            <Time>2021-08-12T12:00:38.000Z</Time>
            <Position>
              <LatitudeDegrees>43.31530996598303318023681640625</LatitudeDegrees>
              <LongitudeDegrees>-1.98886577971279621124267578125</LongitudeDegrees>
            </Position>
            <AltitudeMeters>1</AltitudeMeters>
            <DistanceMeters>NAN</DistanceMeters>
          </Trackpoint>
          <Trackpoint>
            <Time>2021-08-12T12:00:39.000Z</Time>
            <Position>
              <LatitudeDegrees>43.31529269926249980926513671875</LatitudeDegrees>
              <LongitudeDegrees>-1.988893188536167144775390625</LongitudeDegrees>
            </Position>
            <AltitudeMeters>1</AltitudeMeters>
            <DistanceMeters>NAN</DistanceMeters>
          </Trackpoint>
          <Trackpoint>
            <Time>2021-08-12T12:00:40.000Z</Time>
            <Position>
              <LatitudeDegrees>43.31527744419872760772705078125</LatitudeDegrees>
              <LongitudeDegrees>-1.98891908861696720123291015625</LongitudeDegrees>
            </Position>
            <AltitudeMeters>1</AltitudeMeters>
            <DistanceMeters>NAN</DistanceMeters>
          </Trackpoint>
          <Trackpoint>
            <Time>2021-08-12T12:00:41.000Z</Time>
            <Position>
              <LatitudeDegrees>43.31526587717235088348388671875</LatitudeDegrees>
              <LongitudeDegrees>-1.98894674889743328094482421875</LongitudeDegrees>
            </Position>
            <AltitudeMeters>1</AltitudeMeters>
            <DistanceMeters>NAN</DistanceMeters>
          </Trackpoint>
          <Trackpoint>
            <Time>2021-08-12T12:00:42.000Z</Time>
            <Position>
              <LatitudeDegrees>43.31525246612727642059326171875</LatitudeDegrees>
              <LongitudeDegrees>-1.9889731518924236297607421875</LongitudeDegrees>
            </Position>
            <AltitudeMeters>1</AltitudeMeters>
            <DistanceMeters>NAN</DistanceMeters>
          </Trackpoint>
          <Trackpoint>
            <Time>2021-08-12T12:00:44.000Z</Time>
            <Position>
              <LatitudeDegrees>43.3152222074568271636962890625</LatitudeDegrees>
              <LongitudeDegrees>-1.98902855627238750457763671875</LongitudeDegrees>
            </Position>
            <AltitudeMeters>0.800000011920928955078125</AltitudeMeters>
            <DistanceMeters>NAN</DistanceMeters>
          </Trackpoint>
          <Trackpoint>
            <Time>2021-08-12T12:00:45.000Z</Time>
            <Position>
              <LatitudeDegrees>43.315205276012420654296875</LatitudeDegrees>
              <LongitudeDegrees>-1.98905889876186847686767578125</LongitudeDegrees>
            </Position>
            <AltitudeMeters>0.800000011920928955078125</AltitudeMeters>
            <DistanceMeters>NAN</DistanceMeters>
          </Trackpoint>
          <Trackpoint>
            <Time>2021-08-12T12:00:47.000Z</Time>
            <Position>
              <LatitudeDegrees>43.315178118646144866943359375</LatitudeDegrees>
              <LongitudeDegrees>-1.9891287200152873992919921875</LongitudeDegrees>
            </Position>
            <AltitudeMeters>0.800000011920928955078125</AltitudeMeters>
            <DistanceMeters>NAN</DistanceMeters>
          </Trackpoint>
          <Trackpoint>
            <Time>2021-08-12T12:00:48.000Z</Time>
            <Position>
              <LatitudeDegrees>43.31516328267753124237060546875</LatitudeDegrees>
              <LongitudeDegrees>-1.9891609065234661102294921875</LongitudeDegrees>
            </Position>
            <AltitudeMeters>0.800000011920928955078125</AltitudeMeters>
            <DistanceMeters>NAN</DistanceMeters>
          </Trackpoint>
          <Trackpoint>
            <Time>2021-08-12T12:00:49.000Z</Time>
            <Position>
              <LatitudeDegrees>43.3151507936418056488037109375</LatitudeDegrees>
              <LongitudeDegrees>-1.98919250629842281341552734375</LongitudeDegrees>
            </Position>
            <AltitudeMeters>0.800000011920928955078125</AltitudeMeters>
            <DistanceMeters>NAN</DistanceMeters>
          </Trackpoint>
          <Trackpoint>
            <Time>2021-08-12T12:00:50.000Z</Time>
            <Position>
              <LatitudeDegrees>43.31513998098671436309814453125</LatitudeDegrees>
              <LongitudeDegrees>-1.98922703973948955535888671875</LongitudeDegrees>
            </Position>
            <AltitudeMeters>0.800000011920928955078125</AltitudeMeters>
            <DistanceMeters>NAN</DistanceMeters>
          </Trackpoint>
          <Trackpoint>
            <Time>2021-08-12T12:00:51.000Z</Time>
            <Position>
              <LatitudeDegrees>43.315130174160003662109375</LatitudeDegrees>
              <LongitudeDegrees>-1.9892616569995880126953125</LongitudeDegrees>
            </Position>
            <AltitudeMeters>0.800000011920928955078125</AltitudeMeters>
            <DistanceMeters>NAN</DistanceMeters>
          </Trackpoint>
          <Trackpoint>
            <Time>2021-08-12T12:01:00.000Z</Time>
            <Position>
              <LatitudeDegrees>43.3150270767509937286376953125</LatitudeDegrees>
              <LongitudeDegrees>-1.9896411895751953125</LongitudeDegrees>
            </Position>
            <AltitudeMeters>0.800000011920928955078125</AltitudeMeters>
            <DistanceMeters>NAN</DistanceMeters>
          </Trackpoint>
          <Trackpoint>
            <Time>2021-08-12T12:01:07.000Z</Time>
            <Position>
              <LatitudeDegrees>43.31496764905750751495361328125</LatitudeDegrees>
              <LongitudeDegrees>-1.9899266771972179412841796875</LongitudeDegrees>
            </Position>
            <AltitudeMeters>0.800000011920928955078125</AltitudeMeters>
            <DistanceMeters>NAN</DistanceMeters>
          </Trackpoint>
          <Trackpoint>
            <Time>2021-08-12T12:01:16.000Z</Time>
            <Position>
              <LatitudeDegrees>43.3148963190615177154541015625</LatitudeDegrees>
              <LongitudeDegrees>-1.9903259910643100738525390625</LongitudeDegrees>
            </Position>
            <AltitudeMeters>0.800000011920928955078125</AltitudeMeters>
            <DistanceMeters>NAN</DistanceMeters>
          </Trackpoint>
          <Trackpoint>
            <Time>2021-08-12T12:01:17.000Z</Time>
            <Position>
              <LatitudeDegrees>43.31489020027220249176025390625</LatitudeDegrees>
              <LongitudeDegrees>-1.990361027419567108154296875</LongitudeDegrees>
            </Position>
            <AltitudeMeters>0.800000011920928955078125</AltitudeMeters>
            <DistanceMeters>NAN</DistanceMeters>
          </Trackpoint>
          <Trackpoint>
            <Time>2021-08-12T12:01:18.000Z</Time>
            <Position>
              <LatitudeDegrees>43.314883746206760406494140625</LatitudeDegrees>
              <LongitudeDegrees>-1.990397237241268157958984375</LongitudeDegrees>
            </Position>
            <AltitudeMeters>0.800000011920928955078125</AltitudeMeters>
            <DistanceMeters>NAN</DistanceMeters>
          </Trackpoint>
          <Trackpoint>
            <Time>2021-08-12T12:01:19.000Z</Time>
            <Position>
              <LatitudeDegrees>43.31487913616001605987548828125</LatitudeDegrees>
              <LongitudeDegrees>-1.99043403379619121551513671875</LongitudeDegrees>
            </Position>
            <AltitudeMeters>1</AltitudeMeters>
            <DistanceMeters>NAN</DistanceMeters>
          </Trackpoint>
          <Trackpoint>
            <Time>2021-08-12T12:01:20.000Z</Time>
            <Position>
              <LatitudeDegrees>43.3148740231990814208984375</LatitudeDegrees>
              <LongitudeDegrees>-1.9904741831123828887939453125</LongitudeDegrees>
            </Position>
            <AltitudeMeters>1</AltitudeMeters>
            <DistanceMeters>NAN</DistanceMeters>
          </Trackpoint>
          <Trackpoint>
            <Time>2021-08-12T12:01:21.000Z</Time>
            <Position>
              <LatitudeDegrees>43.31486823968589305877685546875</LatitudeDegrees>
              <LongitudeDegrees>-1.99051626026630401611328125</LongitudeDegrees>
            </Position>
            <AltitudeMeters>1</AltitudeMeters>
            <DistanceMeters>NAN</DistanceMeters>
          </Trackpoint>
          <Trackpoint>
            <Time>2021-08-12T12:01:22.000Z</Time>
            <Position>
              <LatitudeDegrees>43.31485969014465808868408203125</LatitudeDegrees>
              <LongitudeDegrees>-1.99055917561054229736328125</LongitudeDegrees>
            </Position>
            <AltitudeMeters>1</AltitudeMeters>
            <DistanceMeters>NAN</DistanceMeters>
          </Trackpoint>
          <Trackpoint>
            <Time>2021-08-12T12:01:23.000Z</Time>
            <Position>
              <LatitudeDegrees>43.3148517273366451263427734375</LatitudeDegrees>
              <LongitudeDegrees>-1.99060209095478057861328125</LongitudeDegrees>
            </Position>
            <AltitudeMeters>1</AltitudeMeters>
            <DistanceMeters>NAN</DistanceMeters>
          </Trackpoint>
          <Trackpoint>
            <Time>2021-08-12T12:01:24.000Z</Time>
            <Position>
              <LatitudeDegrees>43.3148450218141078948974609375</LatitudeDegrees>
              <LongitudeDegrees>-1.9906414858996868133544921875</LongitudeDegrees>
            </Position>
            <AltitudeMeters>1</AltitudeMeters>
            <DistanceMeters>NAN</DistanceMeters>
          </Trackpoint>
          <Trackpoint>
            <Time>2021-08-12T12:01:25.000Z</Time>
            <Position>
              <LatitudeDegrees>43.31483772955834865570068359375</LatitudeDegrees>
              <LongitudeDegrees>-1.99068113230168819427490234375</LongitudeDegrees>
            </Position>
            <AltitudeMeters>1</AltitudeMeters>
            <DistanceMeters>NAN</DistanceMeters>
          </Trackpoint>
          <Trackpoint>
            <Time>2021-08-12T12:01:26.000Z</Time>
            <Position>
              <LatitudeDegrees>43.3148309402167797088623046875</LatitudeDegrees>
              <LongitudeDegrees>-1.990717761218547821044921875</LongitudeDegrees>
            </Position>
            <AltitudeMeters>1</AltitudeMeters>
            <DistanceMeters>NAN</DistanceMeters>
          </Trackpoint>
          <Trackpoint>
            <Time>2021-08-12T12:01:27.000Z</Time>
            <Position>
              <LatitudeDegrees>43.31482649780809879302978515625</LatitudeDegrees>
              <LongitudeDegrees>-1.99075187556445598602294921875</LongitudeDegrees>
            </Position>
            <AltitudeMeters>1</AltitudeMeters>
            <DistanceMeters>NAN</DistanceMeters>
          </Trackpoint>
          <Trackpoint>
            <Time>2021-08-12T12:01:28.000Z</Time>
            <Position>
              <LatitudeDegrees>43.31482331268489360809326171875</LatitudeDegrees>
              <LongitudeDegrees>-1.9907849840819835662841796875</LongitudeDegrees>
            </Position>
            <AltitudeMeters>1</AltitudeMeters>
            <DistanceMeters>NAN</DistanceMeters>
          </Trackpoint>
          <Trackpoint>
            <Time>2021-08-12T12:01:29.000Z</Time>
            <Position>
              <LatitudeDegrees>43.31481861881911754608154296875</LatitudeDegrees>
              <LongitudeDegrees>-1.9908141531050205230712890625</LongitudeDegrees>
            </Position>
            <AltitudeMeters>1</AltitudeMeters>
            <DistanceMeters>NAN</DistanceMeters>
          </Trackpoint>
          <Trackpoint>
            <Time>2021-08-12T12:01:30.000Z</Time>
            <Position>
              <LatitudeDegrees>43.3148138411343097686767578125</LatitudeDegrees>
              <LongitudeDegrees>-1.99084617197513580322265625</LongitudeDegrees>
            </Position>
            <AltitudeMeters>1</AltitudeMeters>
            <DistanceMeters>NAN</DistanceMeters>
          </Trackpoint>
          <Trackpoint>
            <Time>2021-08-12T12:01:31.000Z</Time>
            <Position>
              <LatitudeDegrees>43.31480956636369228363037109375</LatitudeDegrees>
              <LongitudeDegrees>-1.99087659828364849090576171875</LongitudeDegrees>
            </Position>
            <AltitudeMeters>1</AltitudeMeters>
            <DistanceMeters>NAN</DistanceMeters>
          </Trackpoint>
          <Trackpoint>
            <Time>2021-08-12T12:01:33.000Z</Time>
            <Position>
              <LatitudeDegrees>43.3147980831563472747802734375</LatitudeDegrees>
              <LongitudeDegrees>-1.99093393050134181976318359375</LongitudeDegrees>
            </Position>
            <AltitudeMeters>1</AltitudeMeters>
            <DistanceMeters>NAN</DistanceMeters>
          </Trackpoint>
          <Trackpoint>
            <Time>2021-08-12T12:01:34.000Z</Time>
            <Position>
              <LatitudeDegrees>43.3147880248725414276123046875</LatitudeDegrees>
              <LongitudeDegrees>-1.99096326716244220733642578125</LongitudeDegrees>
            </Position>
            <AltitudeMeters>1</AltitudeMeters>
            <DistanceMeters>NAN</DistanceMeters>
          </Trackpoint>
          <Trackpoint>
            <Time>2021-08-12T12:01:35.000Z</Time>
            <Position>
              <LatitudeDegrees>43.31478425301611423492431640625</LatitudeDegrees>
              <LongitudeDegrees>-1.99098790995776653289794921875</LongitudeDegrees>
            </Position>
            <AltitudeMeters>1</AltitudeMeters>
            <DistanceMeters>NAN</DistanceMeters>
          </Trackpoint>
          <Trackpoint>
            <Time>2021-08-12T12:01:36.000Z</Time>
            <Position>
              <LatitudeDegrees>43.3147828280925750732421875</LatitudeDegrees>
              <LongitudeDegrees>-1.9910024106502532958984375</LongitudeDegrees>
            </Position>
            <AltitudeMeters>1.2000000476837158203125</AltitudeMeters>
            <DistanceMeters>NAN</DistanceMeters>
          </Trackpoint>
          <Trackpoint>
            <Time>2021-08-12T12:01:37.000Z</Time>
            <Position>
              <LatitudeDegrees>43.3147806487977504730224609375</LatitudeDegrees>
              <LongitudeDegrees>-1.991008110344409942626953125</LongitudeDegrees>
            </Position>
            <AltitudeMeters>1.2000000476837158203125</AltitudeMeters>
            <DistanceMeters>NAN</DistanceMeters>
          </Trackpoint>
          <Trackpoint>
            <Time>2021-08-12T12:01:43.000Z</Time>
            <Position>
              <LatitudeDegrees>43.3147699199616909027099609375</LatitudeDegrees>
              <LongitudeDegrees>-1.9910418055951595306396484375</LongitudeDegrees>
            </Position>
            <AltitudeMeters>1.2000000476837158203125</AltitudeMeters>
            <DistanceMeters>NAN</DistanceMeters>
          </Trackpoint>
          <Trackpoint>
            <Time>2021-08-12T12:01:44.000Z</Time>
            <Position>
              <LatitudeDegrees>43.3147729374468326568603515625</LatitudeDegrees>
              <LongitudeDegrees>-1.9910605810582637786865234375</LongitudeDegrees>
            </Position>
            <AltitudeMeters>1.2000000476837158203125</AltitudeMeters>
            <DistanceMeters>NAN</DistanceMeters>
          </Trackpoint>
          <Trackpoint>
            <Time>2021-08-12T12:01:45.000Z</Time>
            <Position>
              <LatitudeDegrees>43.31478458829224109649658203125</LatitudeDegrees>
              <LongitudeDegrees>-1.99107348918914794921875</LongitudeDegrees>
            </Position>
            <AltitudeMeters>1.2000000476837158203125</AltitudeMeters>
            <DistanceMeters>NAN</DistanceMeters>
          </Trackpoint>
          <Trackpoint>
            <Time>2021-08-12T12:01:47.000Z</Time>
            <Position>
              <LatitudeDegrees>43.3148178644478321075439453125</LatitudeDegrees>
              <LongitudeDegrees>-1.99105882085859775543212890625</LongitudeDegrees>
            </Position>
            <AltitudeMeters>1</AltitudeMeters>
            <DistanceMeters>NAN</DistanceMeters>
          </Trackpoint>
          <Trackpoint>
            <Time>2021-08-12T12:01:48.000Z</Time>
            <Position>
              <LatitudeDegrees>43.31482783891260623931884765625</LatitudeDegrees>
              <LongitudeDegrees>-1.99104708619415760040283203125</LongitudeDegrees>
            </Position>
            <AltitudeMeters>1</AltitudeMeters>
            <DistanceMeters>NAN</DistanceMeters>
          </Trackpoint>
          <Trackpoint>
            <Time>2021-08-12T12:01:51.000Z</Time>
            <Position>
              <LatitudeDegrees>43.3148352988064289093017578125</LatitudeDegrees>
              <LongitudeDegrees>-1.9910426437854766845703125</LongitudeDegrees>
            </Position>
            <AltitudeMeters>1</AltitudeMeters>
            <DistanceMeters>NAN</DistanceMeters>
          </Trackpoint>
          <Trackpoint>
            <Time>2021-08-12T12:02:24.000Z</Time>
            <Position>
              <LatitudeDegrees>43.31484460271894931793212890625</LatitudeDegrees>
              <LongitudeDegrees>-1.99103719554841518402099609375</LongitudeDegrees>
            </Position>
            <AltitudeMeters>0.800000011920928955078125</AltitudeMeters>
            <DistanceMeters>NAN</DistanceMeters>
          </Trackpoint>
          <Trackpoint>
            <Time>2021-08-12T12:02:26.000Z</Time>
            <Position>
              <LatitudeDegrees>43.314840830862522125244140625</LatitudeDegrees>
              <LongitudeDegrees>-1.99107441119849681854248046875</LongitudeDegrees>
            </Position>
            <AltitudeMeters>0.60000002384185791015625</AltitudeMeters>
            <DistanceMeters>NAN</DistanceMeters>
          </Trackpoint>
          <Trackpoint>
            <Time>2021-08-12T12:02:27.000Z</Time>
            <Position>
              <LatitudeDegrees>43.314837478101253509521484375</LatitudeDegrees>
              <LongitudeDegrees>-1.991084553301334381103515625</LongitudeDegrees>
            </Position>
            <AltitudeMeters>0.60000002384185791015625</AltitudeMeters>
            <DistanceMeters>NAN</DistanceMeters>
          </Trackpoint>
          <Trackpoint>
            <Time>2021-08-12T12:02:35.000Z</Time>
            <Position>
              <LatitudeDegrees>43.31482708454132080078125</LatitudeDegrees>
              <LongitudeDegrees>-1.99112352915108203887939453125</LongitudeDegrees>
            </Position>
            <AltitudeMeters>0.60000002384185791015625</AltitudeMeters>
            <DistanceMeters>NAN</DistanceMeters>
          </Trackpoint>
          <Trackpoint>
            <Time>2021-08-12T12:02:43.000Z</Time>
            <Position>
              <LatitudeDegrees>43.3148284256458282470703125</LatitudeDegrees>
              <LongitudeDegrees>-1.99112252332270145416259765625</LongitudeDegrees>
            </Position>
            <AltitudeMeters>1</AltitudeMeters>
            <DistanceMeters>NAN</DistanceMeters>
          </Trackpoint>
          <Trackpoint>
            <Time>2021-08-12T12:03:18.000Z</Time>
            <Position>
              <LatitudeDegrees>43.314819037914276123046875</LatitudeDegrees>
              <LongitudeDegrees>-1.99111439287662506103515625</LongitudeDegrees>
            </Position>
            <AltitudeMeters>1.60000002384185791015625</AltitudeMeters>
            <DistanceMeters>NAN</DistanceMeters>
          </Trackpoint>
          <Trackpoint>
            <Time>2021-08-12T12:05:26.000Z</Time>
            <Position>
              <LatitudeDegrees>43.31484292633831501007080078125</LatitudeDegrees>
              <LongitudeDegrees>-1.99112285859882831573486328125</LongitudeDegrees>
            </Position>
            <AltitudeMeters>1.39999997615814208984375</AltitudeMeters>
            <DistanceMeters>NAN</DistanceMeters>
          </Trackpoint>
          <Trackpoint>
            <Time>2021-08-12T12:05:29.000Z</Time>
            <Position>
              <LatitudeDegrees>43.31480185501277446746826171875</LatitudeDegrees>
              <LongitudeDegrees>-1.99108363129198551177978515625</LongitudeDegrees>
            </Position>
            <AltitudeMeters>1.60000002384185791015625</AltitudeMeters>
            <DistanceMeters>NAN</DistanceMeters>
          </Trackpoint>
          <Trackpoint>
            <Time>2021-08-12T12:05:30.000Z</Time>
            <Position>
              <LatitudeDegrees>43.31479062326252460479736328125</LatitudeDegrees>
              <LongitudeDegrees>-1.99108731932938098907470703125</LongitudeDegrees>
            </Position>
            <AltitudeMeters>1.60000002384185791015625</AltitudeMeters>
            <DistanceMeters>NAN</DistanceMeters>
          </Trackpoint>
          <Trackpoint>
            <Time>2021-08-12T12:05:31.000Z</Time>
            <Position>
              <LatitudeDegrees>43.31478173844516277313232421875</LatitudeDegrees>
              <LongitudeDegrees>-1.9910989701747894287109375</LongitudeDegrees>
            </Position>
            <AltitudeMeters>1.39999997615814208984375</AltitudeMeters>
            <DistanceMeters>NAN</DistanceMeters>
          </Trackpoint>
          <Trackpoint>
            <Time>2021-08-12T12:05:34.000Z</Time>
            <Position>
              <LatitudeDegrees>43.31475491635501384735107421875</LatitudeDegrees>
              <LongitudeDegrees>-1.99115990661084651947021484375</LongitudeDegrees>
            </Position>
            <AltitudeMeters>1.60000002384185791015625</AltitudeMeters>
            <DistanceMeters>NAN</DistanceMeters>
          </Trackpoint>
          <Trackpoint>
            <Time>2021-08-12T12:05:39.000Z</Time>
            <Position>
              <LatitudeDegrees>43.31471719779074192047119140625</LatitudeDegrees>
              <LongitudeDegrees>-1.99139392934739589691162109375</LongitudeDegrees>
            </Position>
            <AltitudeMeters>1.60000002384185791015625</AltitudeMeters>
            <DistanceMeters>NAN</DistanceMeters>
          </Trackpoint>
          <Trackpoint>
            <Time>2021-08-12T12:05:44.000Z</Time>
            <Position>
              <LatitudeDegrees>43.31465919502079486846923828125</LatitudeDegrees>
              <LongitudeDegrees>-1.99170120991766452789306640625</LongitudeDegrees>
            </Position>
            <AltitudeMeters>1.7999999523162841796875</AltitudeMeters>
            <DistanceMeters>NAN</DistanceMeters>
          </Trackpoint>
          <Trackpoint>
            <Time>2021-08-12T12:05:45.000Z</Time>
            <Position>
              <LatitudeDegrees>43.3146428503096103668212890625</LatitudeDegrees>
              <LongitudeDegrees>-1.99176072143018245697021484375</LongitudeDegrees>
            </Position>
            <AltitudeMeters>1.7999999523162841796875</AltitudeMeters>
            <DistanceMeters>NAN</DistanceMeters>
          </Trackpoint>
          <Trackpoint>
            <Time>2021-08-12T12:05:47.000Z</Time>
            <Position>
              <LatitudeDegrees>43.31460907123982906341552734375</LatitudeDegrees>
              <LongitudeDegrees>-1.991881169378757476806640625</LongitudeDegrees>
            </Position>
            <AltitudeMeters>1.7999999523162841796875</AltitudeMeters>
            <DistanceMeters>NAN</DistanceMeters>
          </Trackpoint>
          <Trackpoint>
            <Time>2021-08-12T12:05:51.000Z</Time>
            <Position>
              <LatitudeDegrees>43.3145654015243053436279296875</LatitudeDegrees>
              <LongitudeDegrees>-1.99213790707290172576904296875</LongitudeDegrees>
            </Position>
            <AltitudeMeters>2</AltitudeMeters>
            <DistanceMeters>NAN</DistanceMeters>
          </Trackpoint>
          <Trackpoint>
            <Time>2021-08-12T12:06:00.000Z</Time>
            <Position>
              <LatitudeDegrees>43.31450647674500942230224609375</LatitudeDegrees>
              <LongitudeDegrees>-1.99271055869758129119873046875</LongitudeDegrees>
            </Position>
            <AltitudeMeters>2.400000095367431640625</AltitudeMeters>
            <DistanceMeters>NAN</DistanceMeters>
          </Trackpoint>
          <Trackpoint>
            <Time>2021-08-12T12:06:01.000Z</Time>
            <Position>
              <LatitudeDegrees>43.31450513564050197601318359375</LatitudeDegrees>
              <LongitudeDegrees>-1.9927673041820526123046875</LongitudeDegrees>
            </Position>
            <AltitudeMeters>2.400000095367431640625</AltitudeMeters>
            <DistanceMeters>NAN</DistanceMeters>
          </Trackpoint>
          <Trackpoint>
            <Time>2021-08-12T12:06:02.000Z</Time>
            <Position>
              <LatitudeDegrees>43.3145050518214702606201171875</LatitudeDegrees>
              <LongitudeDegrees>-1.99281751178205013275146484375</LongitudeDegrees>
            </Position>
            <AltitudeMeters>2.400000095367431640625</AltitudeMeters>
            <DistanceMeters>NAN</DistanceMeters>
          </Trackpoint>
          <Trackpoint>
            <Time>2021-08-12T12:06:03.000Z</Time>
            <Position>
              <LatitudeDegrees>43.314504213631153106689453125</LatitudeDegrees>
              <LongitudeDegrees>-1.99286713264882564544677734375</LongitudeDegrees>
            </Position>
            <AltitudeMeters>2.400000095367431640625</AltitudeMeters>
            <DistanceMeters>NAN</DistanceMeters>
          </Trackpoint>
          <Trackpoint>
            <Time>2021-08-12T12:06:04.000Z</Time>
            <Position>
              <LatitudeDegrees>43.31450362689793109893798828125</LatitudeDegrees>
              <LongitudeDegrees>-1.99292086064815521240234375</LongitudeDegrees>
            </Position>
            <AltitudeMeters>2.400000095367431640625</AltitudeMeters>
            <DistanceMeters>NAN</DistanceMeters>
          </Trackpoint>
          <Trackpoint>
            <Time>2021-08-12T12:06:06.000Z</Time>
            <Position>
              <LatitudeDegrees>43.31450127996504306793212890625</LatitudeDegrees>
              <LongitudeDegrees>-1.99303426779806613922119140625</LongitudeDegrees>
            </Position>
            <AltitudeMeters>2.599999904632568359375</AltitudeMeters>
            <DistanceMeters>NAN</DistanceMeters>
          </Trackpoint>
          <Trackpoint>
            <Time>2021-08-12T12:06:08.000Z</Time>
            <Position>
              <LatitudeDegrees>43.3144996874034404754638671875</LatitudeDegrees>
              <LongitudeDegrees>-1.9931520335376262664794921875</LongitudeDegrees>
            </Position>
            <AltitudeMeters>2.599999904632568359375</AltitudeMeters>
            <DistanceMeters>NAN</DistanceMeters>
          </Trackpoint>
          <Trackpoint>
            <Time>2021-08-12T12:06:15.000Z</Time>
            <Position>
              <LatitudeDegrees>43.3144936524331569671630859375</LatitudeDegrees>
              <LongitudeDegrees>-1.99358831159770488739013671875</LongitudeDegrees>
            </Position>
            <AltitudeMeters>2.599999904632568359375</AltitudeMeters>
            <DistanceMeters>NAN</DistanceMeters>
          </Trackpoint>
          <Trackpoint>
            <Time>2021-08-12T12:06:22.000Z</Time>
            <Position>
              <LatitudeDegrees>43.31448636017739772796630859375</LatitudeDegrees>
              <LongitudeDegrees>-1.994090639054775238037109375</LongitudeDegrees>
            </Position>
            <AltitudeMeters>3</AltitudeMeters>
            <DistanceMeters>NAN</DistanceMeters>
          </Trackpoint>
          <Trackpoint>
            <Time>2021-08-12T12:06:30.000Z</Time>
            <Position>
              <LatitudeDegrees>43.31447512842714786529541015625</LatitudeDegrees>
              <LongitudeDegrees>-1.99464015662670135498046875</LongitudeDegrees>
            </Position>
            <AltitudeMeters>3.400000095367431640625</AltitudeMeters>
            <DistanceMeters>NAN</DistanceMeters>
          </Trackpoint>
          <Trackpoint>
            <Time>2021-08-12T12:06:31.000Z</Time>
            <Position>
              <LatitudeDegrees>43.31447579897940158843994140625</LatitudeDegrees>
              <LongitudeDegrees>-1.99470461346209049224853515625</LongitudeDegrees>
            </Position>
            <AltitudeMeters>3.599999904632568359375</AltitudeMeters>
            <DistanceMeters>NAN</DistanceMeters>
          </Trackpoint>
          <Trackpoint>
            <Time>2021-08-12T12:06:32.000Z</Time>
            <Position>
              <LatitudeDegrees>43.31447596661746501922607421875</LatitudeDegrees>
              <LongitudeDegrees>-1.994762532413005828857421875</LongitudeDegrees>
            </Position>
            <AltitudeMeters>3.599999904632568359375</AltitudeMeters>
            <DistanceMeters>NAN</DistanceMeters>
          </Trackpoint>
          <Trackpoint>
            <Time>2021-08-12T12:06:33.000Z</Time>
            <Position>
              <LatitudeDegrees>43.314474038779735565185546875</LatitudeDegrees>
              <LongitudeDegrees>-1.99482196010649204254150390625</LongitudeDegrees>
            </Position>
            <AltitudeMeters>3.599999904632568359375</AltitudeMeters>
            <DistanceMeters>NAN</DistanceMeters>
          </Trackpoint>
          <Trackpoint>
            <Time>2021-08-12T12:06:34.000Z</Time>
            <Position>
              <LatitudeDegrees>43.3144743740558624267578125</LatitudeDegrees>
              <LongitudeDegrees>-1.9948830641806125640869140625</LongitudeDegrees>
            </Position>
            <AltitudeMeters>3.599999904632568359375</AltitudeMeters>
            <DistanceMeters>NAN</DistanceMeters>
          </Trackpoint>
          <Trackpoint>
            <Time>2021-08-12T12:06:35.000Z</Time>
            <Position>
              <LatitudeDegrees>43.31447345204651355743408203125</LatitudeDegrees>
              <LongitudeDegrees>-1.9949457608163356781005859375</LongitudeDegrees>
            </Position>
            <AltitudeMeters>3.599999904632568359375</AltitudeMeters>
            <DistanceMeters>NAN</DistanceMeters>
          </Trackpoint>
          <Trackpoint>
            <Time>2021-08-12T12:06:36.000Z</Time>
            <Position>
              <LatitudeDegrees>43.31447429023683071136474609375</LatitudeDegrees>
              <LongitudeDegrees>-1.9950101338326930999755859375</LongitudeDegrees>
            </Position>
            <AltitudeMeters>3.599999904632568359375</AltitudeMeters>
            <DistanceMeters>NAN</DistanceMeters>
          </Trackpoint>
          <Trackpoint>
            <Time>2021-08-12T12:06:37.000Z</Time>
            <Position>
              <LatitudeDegrees>43.31447303295135498046875</LatitudeDegrees>
              <LongitudeDegrees>-1.99507794342935085296630859375</LongitudeDegrees>
            </Position>
            <AltitudeMeters>3.7999999523162841796875</AltitudeMeters>
            <DistanceMeters>NAN</DistanceMeters>
          </Trackpoint>
          <Trackpoint>
            <Time>2021-08-12T12:06:39.000Z</Time>
            <Position>
              <LatitudeDegrees>43.31447194330394268035888671875</LatitudeDegrees>
              <LongitudeDegrees>-1.99520786292850971221923828125</LongitudeDegrees>
            </Position>
            <AltitudeMeters>3.599999904632568359375</AltitudeMeters>
            <DistanceMeters>NAN</DistanceMeters>
          </Trackpoint>
          <Trackpoint>
            <Time>2021-08-12T12:06:40.000Z</Time>
            <Position>
              <LatitudeDegrees>43.31447127275168895721435546875</LatitudeDegrees>
              <LongitudeDegrees>-1.9952679611742496490478515625</LongitudeDegrees>
            </Position>
            <AltitudeMeters>3.599999904632568359375</AltitudeMeters>
            <DistanceMeters>NAN</DistanceMeters>
          </Trackpoint>
          <Trackpoint>
            <Time>2021-08-12T12:06:41.000Z</Time>
            <Position>
              <LatitudeDegrees>43.3144728653132915496826171875</LatitudeDegrees>
              <LongitudeDegrees>-1.99532420374453067779541015625</LongitudeDegrees>
            </Position>
            <AltitudeMeters>3.599999904632568359375</AltitudeMeters>
            <DistanceMeters>NAN</DistanceMeters>
          </Trackpoint>
          <Trackpoint>
            <Time>2021-08-12T12:06:42.000Z</Time>
            <Position>
              <LatitudeDegrees>43.31447236239910125732421875</LatitudeDegrees>
              <LongitudeDegrees>-1.99538270942866802215576171875</LongitudeDegrees>
            </Position>
            <AltitudeMeters>3.599999904632568359375</AltitudeMeters>
            <DistanceMeters>NAN</DistanceMeters>
          </Trackpoint>
          <Trackpoint>
            <Time>2021-08-12T12:06:43.000Z</Time>
            <Position>
              <LatitudeDegrees>43.31447102129459381103515625</LatitudeDegrees>
              <LongitudeDegrees>-1.99544138275086879730224609375</LongitudeDegrees>
            </Position>
            <AltitudeMeters>3.599999904632568359375</AltitudeMeters>
            <DistanceMeters>NAN</DistanceMeters>
          </Trackpoint>
          <Trackpoint>
            <Time>2021-08-12T12:06:48.000Z</Time>
            <Position>
              <LatitudeDegrees>43.31448351033031940460205078125</LatitudeDegrees>
              <LongitudeDegrees>-1.99576257728040218353271484375</LongitudeDegrees>
            </Position>
            <AltitudeMeters>3.599999904632568359375</AltitudeMeters>
            <DistanceMeters>NAN</DistanceMeters>
          </Trackpoint>
          <Trackpoint>
            <Time>2021-08-12T12:06:50.000Z</Time>
            <Position>
              <LatitudeDegrees>43.3144931495189666748046875</LatitudeDegrees>
              <LongitudeDegrees>-1.9958878867328166961669921875</LongitudeDegrees>
            </Position>
            <AltitudeMeters>3.599999904632568359375</AltitudeMeters>
            <DistanceMeters>NAN</DistanceMeters>
          </Trackpoint>
          <Trackpoint>
            <Time>2021-08-12T12:06:57.000Z</Time>
            <Position>
              <LatitudeDegrees>43.31456162966787815093994140625</LatitudeDegrees>
              <LongitudeDegrees>-1.99632064439356327056884765625</LongitudeDegrees>
            </Position>
            <AltitudeMeters>3.599999904632568359375</AltitudeMeters>
            <DistanceMeters>NAN</DistanceMeters>
          </Trackpoint>
          <Trackpoint>
            <Time>2021-08-12T12:06:58.000Z</Time>
            <Position>
              <LatitudeDegrees>43.3145717717707157135009765625</LatitudeDegrees>
              <LongitudeDegrees>-1.996381245553493499755859375</LongitudeDegrees>
            </Position>
            <AltitudeMeters>3.599999904632568359375</AltitudeMeters>
            <DistanceMeters>NAN</DistanceMeters>
          </Trackpoint>
          <Trackpoint>
            <Time>2021-08-12T12:06:59.000Z</Time>
            <Position>
              <LatitudeDegrees>43.31458224914968013763427734375</LatitudeDegrees>
              <LongitudeDegrees>-1.99644067324697971343994140625</LongitudeDegrees>
            </Position>
            <AltitudeMeters>3.599999904632568359375</AltitudeMeters>
            <DistanceMeters>NAN</DistanceMeters>
          </Trackpoint>
          <Trackpoint>
            <Time>2021-08-12T12:07:00.000Z</Time>
            <Position>
              <LatitudeDegrees>43.314594067633152008056640625</LatitudeDegrees>
              <LongitudeDegrees>-1.9964994303882122039794921875</LongitudeDegrees>
            </Position>
            <AltitudeMeters>3.599999904632568359375</AltitudeMeters>
            <DistanceMeters>NAN</DistanceMeters>
          </Trackpoint>
          <Trackpoint>
            <Time>2021-08-12T12:07:01.000Z</Time>
            <Position>
              <LatitudeDegrees>43.3146089874207973480224609375</LatitudeDegrees>
              <LongitudeDegrees>-1.99657327495515346527099609375</LongitudeDegrees>
            </Position>
            <AltitudeMeters>3.599999904632568359375</AltitudeMeters>
            <DistanceMeters>NAN</DistanceMeters>
          </Trackpoint>
          <Trackpoint>
            <Time>2021-08-12T12:07:05.000Z</Time>
            <Position>
              <LatitudeDegrees>43.31465366296470165252685546875</LatitudeDegrees>
              <LongitudeDegrees>-1.99680729769170284271240234375</LongitudeDegrees>
            </Position>
            <AltitudeMeters>3.7999999523162841796875</AltitudeMeters>
            <DistanceMeters>NAN</DistanceMeters>
          </Trackpoint>
          <Trackpoint>
            <Time>2021-08-12T12:07:13.000Z</Time>
            <Position>
              <LatitudeDegrees>43.31477419473230838775634765625</LatitudeDegrees>
              <LongitudeDegrees>-1.99734625406563282012939453125</LongitudeDegrees>
            </Position>
            <AltitudeMeters>3.599999904632568359375</AltitudeMeters>
            <DistanceMeters>NAN</DistanceMeters>
          </Trackpoint>
          <Trackpoint>
            <Time>2021-08-12T12:07:16.000Z</Time>
            <Position>
              <LatitudeDegrees>43.31484259106218814849853515625</LatitudeDegrees>
              <LongitudeDegrees>-1.997558064758777618408203125</LongitudeDegrees>
            </Position>
            <AltitudeMeters>3.599999904632568359375</AltitudeMeters>
            <DistanceMeters>NAN</DistanceMeters>
          </Trackpoint>
          <Trackpoint>
            <Time>2021-08-12T12:07:19.000Z</Time>
            <Position>
              <LatitudeDegrees>43.3149214647710323333740234375</LatitudeDegrees>
              <LongitudeDegrees>-1.99774288572371006011962890625</LongitudeDegrees>
            </Position>
            <AltitudeMeters>3.599999904632568359375</AltitudeMeters>
            <DistanceMeters>NAN</DistanceMeters>
          </Trackpoint>
          <Trackpoint>
            <Time>2021-08-12T12:07:20.000Z</Time>
            <Position>
              <LatitudeDegrees>43.31494283862411975860595703125</LatitudeDegrees>
              <LongitudeDegrees>-1.99780918657779693603515625</LongitudeDegrees>
            </Position>
            <AltitudeMeters>3.7999999523162841796875</AltitudeMeters>
            <DistanceMeters>NAN</DistanceMeters>
          </Trackpoint>
          <Trackpoint>
            <Time>2021-08-12T12:07:24.000Z</Time>
            <Position>
              <LatitudeDegrees>43.3150247298181056976318359375</LatitudeDegrees>
              <LongitudeDegrees>-1.99806005693972110748291015625</LongitudeDegrees>
            </Position>
            <AltitudeMeters>3.7999999523162841796875</AltitudeMeters>
            <DistanceMeters>NAN</DistanceMeters>
          </Trackpoint>
          <Trackpoint>
            <Time>2021-08-12T12:07:25.000Z</Time>
            <Position>
              <LatitudeDegrees>43.31504409201443195343017578125</LatitudeDegrees>
              <LongitudeDegrees>-1.9981221668422222137451171875</LongitudeDegrees>
            </Position>
            <AltitudeMeters>3.599999904632568359375</AltitudeMeters>
            <DistanceMeters>NAN</DistanceMeters>
          </Trackpoint>
          <Trackpoint>
            <Time>2021-08-12T12:07:40.000Z</Time>
            <Position>
              <LatitudeDegrees>43.31542865373194217681884765625</LatitudeDegrees>
              <LongitudeDegrees>-1.99887997470796108245849609375</LongitudeDegrees>
            </Position>
            <AltitudeMeters>3.2000000476837158203125</AltitudeMeters>
            <DistanceMeters>NAN</DistanceMeters>
          </Trackpoint>
          <Trackpoint>
            <Time>2021-08-12T12:07:41.000Z</Time>
            <Position>
              <LatitudeDegrees>43.3154414780437946319580078125</LatitudeDegrees>
              <LongitudeDegrees>-1.9989124126732349395751953125</LongitudeDegrees>
            </Position>
            <AltitudeMeters>3.2000000476837158203125</AltitudeMeters>
            <DistanceMeters>NAN</DistanceMeters>
          </Trackpoint>
          <Trackpoint>
            <Time>2021-08-12T12:07:42.000Z</Time>
            <Position>
              <LatitudeDegrees>43.31544474698603153228759765625</LatitudeDegrees>
              <LongitudeDegrees>-1.99895993806421756744384765625</LongitudeDegrees>
            </Position>
            <AltitudeMeters>3</AltitudeMeters>
            <DistanceMeters>NAN</DistanceMeters>
          </Trackpoint>
          <Trackpoint>
            <Time>2021-08-12T12:07:43.000Z</Time>
            <Position>
              <LatitudeDegrees>43.31546067260205745697021484375</LatitudeDegrees>
              <LongitudeDegrees>-1.9990099780261516571044921875</LongitudeDegrees>
            </Position>
            <AltitudeMeters>3</AltitudeMeters>
            <DistanceMeters>NAN</DistanceMeters>
          </Trackpoint>
          <Trackpoint>
            <Time>2021-08-12T12:07:45.000Z</Time>
            <Position>
              <LatitudeDegrees>43.31548229791224002838134765625</LatitudeDegrees>
              <LongitudeDegrees>-1.99910067021846771240234375</LongitudeDegrees>
            </Position>
            <AltitudeMeters>2.599999904632568359375</AltitudeMeters>
            <DistanceMeters>NAN</DistanceMeters>
          </Trackpoint>
          <Trackpoint>
            <Time>2021-08-12T12:07:47.000Z</Time>
            <Position>
              <LatitudeDegrees>43.31551196984946727752685546875</LatitudeDegrees>
              <LongitudeDegrees>-1.9991849921643733978271484375</LongitudeDegrees>
            </Position>
            <AltitudeMeters>2.400000095367431640625</AltitudeMeters>
            <DistanceMeters>NAN</DistanceMeters>
          </Trackpoint>
          <Trackpoint>
            <Time>2021-08-12T12:07:49.000Z</Time>
            <Position>
              <LatitudeDegrees>43.31553644500672817230224609375</LatitudeDegrees>
              <LongitudeDegrees>-1.99927442707121372222900390625</LongitudeDegrees>
            </Position>
            <AltitudeMeters>2.2000000476837158203125</AltitudeMeters>
            <DistanceMeters>NAN</DistanceMeters>
          </Trackpoint>
          <Trackpoint>
            <Time>2021-08-12T12:07:51.000Z</Time>
            <Position>
              <LatitudeDegrees>43.31554750911891460418701171875</LatitudeDegrees>
              <LongitudeDegrees>-1.99935606680810451507568359375</LongitudeDegrees>
            </Position>
            <AltitudeMeters>2</AltitudeMeters>
            <DistanceMeters>NAN</DistanceMeters>
          </Trackpoint>
          <Trackpoint>
            <Time>2021-08-12T12:07:52.000Z</Time>
            <Position>
              <LatitudeDegrees>43.31555320881307125091552734375</LatitudeDegrees>
              <LongitudeDegrees>-1.99939395301043987274169921875</LongitudeDegrees>
            </Position>
            <AltitudeMeters>2</AltitudeMeters>
            <DistanceMeters>NAN</DistanceMeters>
          </Trackpoint>
          <Trackpoint>
            <Time>2021-08-12T12:07:53.000Z</Time>
            <Position>
              <LatitudeDegrees>43.31555739976465702056884765625</LatitudeDegrees>
              <LongitudeDegrees>-1.99942932464182376861572265625</LongitudeDegrees>
            </Position>
            <AltitudeMeters>2</AltitudeMeters>
            <DistanceMeters>NAN</DistanceMeters>
          </Trackpoint>
          <Trackpoint>
            <Time>2021-08-12T12:07:54.000Z</Time>
            <Position>
              <LatitudeDegrees>43.315562345087528228759765625</LatitudeDegrees>
              <LongitudeDegrees>-1.99946352280676364898681640625</LongitudeDegrees>
            </Position>
            <AltitudeMeters>1.7999999523162841796875</AltitudeMeters>
            <DistanceMeters>NAN</DistanceMeters>
          </Trackpoint>
          <Trackpoint>
            <Time>2021-08-12T12:07:56.000Z</Time>
            <Position>
              <LatitudeDegrees>43.31557768397033214569091796875</LatitudeDegrees>
              <LongitudeDegrees>-1.99953694827854633331298828125</LongitudeDegrees>
            </Position>
            <AltitudeMeters>1.60000002384185791015625</AltitudeMeters>
            <DistanceMeters>NAN</DistanceMeters>
          </Trackpoint>
          <Trackpoint>
            <Time>2021-08-12T12:07:57.000Z</Time>
            <Position>
              <LatitudeDegrees>43.31558539532124996185302734375</LatitudeDegrees>
              <LongitudeDegrees>-1.99957315810024738311767578125</LongitudeDegrees>
            </Position>
            <AltitudeMeters>1.60000002384185791015625</AltitudeMeters>
            <DistanceMeters>NAN</DistanceMeters>
          </Trackpoint>
          <Trackpoint>
            <Time>2021-08-12T12:07:59.000Z</Time>
            <Position>
              <LatitudeDegrees>43.31560291349887847900390625</LatitudeDegrees>
              <LongitudeDegrees>-1.9996563903987407684326171875</LongitudeDegrees>
            </Position>
            <AltitudeMeters>1.39999997615814208984375</AltitudeMeters>
            <DistanceMeters>NAN</DistanceMeters>
          </Trackpoint>
          <Trackpoint>
            <Time>2021-08-12T12:08:05.000Z</Time>
            <Position>
              <LatitudeDegrees>43.315640799701213836669921875</LatitudeDegrees>
              <LongitudeDegrees>-1.99994556605815887451171875</LongitudeDegrees>
            </Position>
            <AltitudeMeters>1</AltitudeMeters>
            <DistanceMeters>NAN</DistanceMeters>
          </Trackpoint>
          <Trackpoint>
            <Time>2021-08-12T12:08:07.000Z</Time>
            <Position>
              <LatitudeDegrees>43.3156543783843517303466796875</LatitudeDegrees>
              <LongitudeDegrees>-2.0000402815639972686767578125</LongitudeDegrees>
            </Position>
            <AltitudeMeters>0.800000011920928955078125</AltitudeMeters>
            <DistanceMeters>NAN</DistanceMeters>
          </Trackpoint>
          <Trackpoint>
            <Time>2021-08-12T12:08:11.000Z</Time>
            <Position>
              <LatitudeDegrees>43.31568078137934207916259765625</LatitudeDegrees>
              <LongitudeDegrees>-2.00024723075330257415771484375</LongitudeDegrees>
            </Position>
            <AltitudeMeters>0.4000000059604644775390625</AltitudeMeters>
            <DistanceMeters>NAN</DistanceMeters>
          </Trackpoint>
          <Trackpoint>
            <Time>2021-08-12T12:08:13.000Z</Time>
            <Position>
              <LatitudeDegrees>43.31567876972258090972900390625</LatitudeDegrees>
              <LongitudeDegrees>-2.00033607892692089080810546875</LongitudeDegrees>
            </Position>
            <AltitudeMeters>0</AltitudeMeters>
            <DistanceMeters>NAN</DistanceMeters>
          </Trackpoint>
          <Trackpoint>
            <Time>2021-08-12T12:08:14.000Z</Time>
            <Position>
              <LatitudeDegrees>43.31567692570388317108154296875</LatitudeDegrees>
              <LongitudeDegrees>-2.00036541558802127838134765625</LongitudeDegrees>
            </Position>
            <AltitudeMeters>0</AltitudeMeters>
            <DistanceMeters>NAN</DistanceMeters>
          </Trackpoint>
          <Trackpoint>
            <Time>2021-08-12T12:08:15.000Z</Time>
            <Position>
              <LatitudeDegrees>43.31567692570388317108154296875</LatitudeDegrees>
              <LongitudeDegrees>-2.00038947165012359619140625</LongitudeDegrees>
            </Position>
            <AltitudeMeters>0</AltitudeMeters>
            <DistanceMeters>NAN</DistanceMeters>
          </Trackpoint>
          <Trackpoint>
            <Time>2021-08-12T12:08:16.000Z</Time>
            <Position>
              <LatitudeDegrees>43.31567935645580291748046875</LatitudeDegrees>
              <LongitudeDegrees>-2.0004067383706569671630859375</LongitudeDegrees>
            </Position>
            <AltitudeMeters>-0.20000000298023223876953125</AltitudeMeters>
            <DistanceMeters>NAN</DistanceMeters>
          </Trackpoint>
          <Trackpoint>
            <Time>2021-08-12T12:08:17.000Z</Time>
            <Position>
              <LatitudeDegrees>43.31568078137934207916259765625</LatitudeDegrees>
              <LongitudeDegrees>-2.00041386298835277557373046875</LongitudeDegrees>
            </Position>
            <AltitudeMeters>-0.20000000298023223876953125</AltitudeMeters>
            <DistanceMeters>NAN</DistanceMeters>
          </Trackpoint>
          <Trackpoint>
            <Time>2021-08-12T12:08:20.000Z</Time>
            <Position>
              <LatitudeDegrees>43.31568078137934207916259765625</LatitudeDegrees>
              <LongitudeDegrees>-2.00041386298835277557373046875</LongitudeDegrees>
            </Position>
            <AltitudeMeters>-0.60000002384185791015625</AltitudeMeters>
            <DistanceMeters>NAN</DistanceMeters>
          </Trackpoint>
          <Trackpoint>
            <Time>2021-08-12T12:08:47.000Z</Time>
            <Position>
              <LatitudeDegrees>43.3156755007803440093994140625</LatitudeDegrees>
              <LongitudeDegrees>-2.0004392601549625396728515625</LongitudeDegrees>
            </Position>
            <AltitudeMeters>-1</AltitudeMeters>
            <DistanceMeters>NAN</DistanceMeters>
          </Trackpoint>
          <Trackpoint>
            <Time>2021-08-12T12:08:49.000Z</Time>
            <Position>
              <LatitudeDegrees>43.31566368229687213897705078125</LatitudeDegrees>
              <LongitudeDegrees>-2.00050237588584423065185546875</LongitudeDegrees>
            </Position>
            <AltitudeMeters>-1</AltitudeMeters>
            <DistanceMeters>NAN</DistanceMeters>
          </Trackpoint>
          <Trackpoint>
            <Time>2021-08-12T12:08:54.000Z</Time>
            <Position>
              <LatitudeDegrees>43.31561096012592315673828125</LatitudeDegrees>
              <LongitudeDegrees>-2.00073271058499813079833984375</LongitudeDegrees>
            </Position>
            <AltitudeMeters>-1</AltitudeMeters>
            <DistanceMeters>NAN</DistanceMeters>
          </Trackpoint>
          <Trackpoint>
            <Time>2021-08-12T12:08:55.000Z</Time>
            <Position>
              <LatitudeDegrees>43.3155960403382778167724609375</LatitudeDegrees>
              <LongitudeDegrees>-2.0007892884314060211181640625</LongitudeDegrees>
            </Position>
            <AltitudeMeters>-1</AltitudeMeters>
            <DistanceMeters>NAN</DistanceMeters>
          </Trackpoint>
          <Trackpoint>
            <Time>2021-08-12T12:08:59.000Z</Time>
            <Position>
              <LatitudeDegrees>43.31552512943744659423828125</LatitudeDegrees>
              <LongitudeDegrees>-2.00100026093423366546630859375</LongitudeDegrees>
            </Position>
            <AltitudeMeters>-1.39999997615814208984375</AltitudeMeters>
            <DistanceMeters>NAN</DistanceMeters>
          </Trackpoint>
          <Trackpoint>
            <Time>2021-08-12T12:09:00.000Z</Time>
            <Position>
              <LatitudeDegrees>43.31551247276365756988525390625</LatitudeDegrees>
              <LongitudeDegrees>-2.00105641968548297882080078125</LongitudeDegrees>
            </Position>
            <AltitudeMeters>-1.60000002384185791015625</AltitudeMeters>
            <DistanceMeters>NAN</DistanceMeters>
          </Trackpoint>
          <Trackpoint>
            <Time>2021-08-12T12:09:01.000Z</Time>
            <Position>
              <LatitudeDegrees>43.31550744362175464630126953125</LatitudeDegrees>
              <LongitudeDegrees>-2.00111676938831806182861328125</LongitudeDegrees>
            </Position>
            <AltitudeMeters>-1.60000002384185791015625</AltitudeMeters>
            <DistanceMeters>NAN</DistanceMeters>
          </Trackpoint>
          <Trackpoint>
            <Time>2021-08-12T12:09:02.000Z</Time>
            <Position>
              <LatitudeDegrees>43.31551373004913330078125</LatitudeDegrees>
              <LongitudeDegrees>-2.0011775381863117218017578125</LongitudeDegrees>
            </Position>
            <AltitudeMeters>-1.7999999523162841796875</AltitudeMeters>
            <DistanceMeters>NAN</DistanceMeters>
          </Trackpoint>
          <Trackpoint>
            <Time>2021-08-12T12:09:03.000Z</Time>
            <Position>
              <LatitudeDegrees>43.31552186049520969390869140625</LatitudeDegrees>
              <LongitudeDegrees>-2.00123897753655910491943359375</LongitudeDegrees>
            </Position>
            <AltitudeMeters>-1.7999999523162841796875</AltitudeMeters>
            <DistanceMeters>NAN</DistanceMeters>
          </Trackpoint>
          <Trackpoint>
            <Time>2021-08-12T12:09:04.000Z</Time>
            <Position>
              <LatitudeDegrees>43.31552906893193721771240234375</LatitudeDegrees>
              <LongitudeDegrees>-2.0013009198009967803955078125</LongitudeDegrees>
            </Position>
            <AltitudeMeters>-2</AltitudeMeters>
            <DistanceMeters>NAN</DistanceMeters>
          </Trackpoint>
          <Trackpoint>
            <Time>2021-08-12T12:09:05.000Z</Time>
            <Position>
              <LatitudeDegrees>43.3155418932437896728515625</LatitudeDegrees>
              <LongitudeDegrees>-2.00135934166610240936279296875</LongitudeDegrees>
            </Position>
            <AltitudeMeters>-2.2000000476837158203125</AltitudeMeters>
            <DistanceMeters>NAN</DistanceMeters>
          </Trackpoint>
          <Trackpoint>
            <Time>2021-08-12T12:09:08.000Z</Time>
            <Position>
              <LatitudeDegrees>43.3155960403382778167724609375</LatitudeDegrees>
              <LongitudeDegrees>-2.001520358026027679443359375</LongitudeDegrees>
            </Position>
            <AltitudeMeters>-2.400000095367431640625</AltitudeMeters>
            <DistanceMeters>NAN</DistanceMeters>
          </Trackpoint>
          <Trackpoint>
            <Time>2021-08-12T12:09:10.000Z</Time>
            <Position>
              <LatitudeDegrees>43.3156429789960384368896484375</LatitudeDegrees>
              <LongitudeDegrees>-2.00161314569413661956787109375</LongitudeDegrees>
            </Position>
            <AltitudeMeters>-2.400000095367431640625</AltitudeMeters>
            <DistanceMeters>NAN</DistanceMeters>
          </Trackpoint>
          <Trackpoint>
            <Time>2021-08-12T12:09:11.000Z</Time>
            <Position>
              <LatitudeDegrees>43.31565949134528636932373046875</LatitudeDegrees>
              <LongitudeDegrees>-2.00166461057960987091064453125</LongitudeDegrees>
            </Position>
            <AltitudeMeters>-2.400000095367431640625</AltitudeMeters>
            <DistanceMeters>NAN</DistanceMeters>
          </Trackpoint>
          <Trackpoint>
            <Time>2021-08-12T12:09:18.000Z</Time>
            <Position>
              <LatitudeDegrees>43.315768875181674957275390625</LatitudeDegrees>
              <LongitudeDegrees>-2.0020663551986217498779296875</LongitudeDegrees>
            </Position>
            <AltitudeMeters>-2.599999904632568359375</AltitudeMeters>
            <DistanceMeters>NAN</DistanceMeters>
          </Trackpoint>
          <Trackpoint>
            <Time>2021-08-12T12:09:26.000Z</Time>
            <Position>
              <LatitudeDegrees>43.31590063869953155517578125</LatitudeDegrees>
              <LongitudeDegrees>-2.0025032199919223785400390625</LongitudeDegrees>
            </Position>
            <AltitudeMeters>-2.599999904632568359375</AltitudeMeters>
            <DistanceMeters>NAN</DistanceMeters>
          </Trackpoint>
          <Trackpoint>
            <Time>2021-08-12T12:09:27.000Z</Time>
            <Position>
              <LatitudeDegrees>43.3159174025058746337890625</LatitudeDegrees>
              <LongitudeDegrees>-2.00255946256220340728759765625</LongitudeDegrees>
            </Position>
            <AltitudeMeters>-2.599999904632568359375</AltitudeMeters>
            <DistanceMeters>NAN</DistanceMeters>
          </Trackpoint>
          <Trackpoint>
            <Time>2021-08-12T12:09:34.000Z</Time>
            <Position>
              <LatitudeDegrees>43.31604723818600177764892578125</LatitudeDegrees>
              <LongitudeDegrees>-2.00297369621694087982177734375</LongitudeDegrees>
            </Position>
            <AltitudeMeters>-2.599999904632568359375</AltitudeMeters>
            <DistanceMeters>NAN</DistanceMeters>
          </Trackpoint>
          <Trackpoint>
            <Time>2021-08-12T12:09:38.000Z</Time>
            <Position>
              <LatitudeDegrees>43.3161106891930103302001953125</LatitudeDegrees>
              <LongitudeDegrees>-2.00318659655749797821044921875</LongitudeDegrees>
            </Position>
            <AltitudeMeters>-2.599999904632568359375</AltitudeMeters>
            <DistanceMeters>NAN</DistanceMeters>
          </Trackpoint>
          <Trackpoint>
            <Time>2021-08-12T12:09:39.000Z</Time>
            <Position>
              <LatitudeDegrees>43.31612971611320972442626953125</LatitudeDegrees>
              <LongitudeDegrees>-2.0032317750155925750732421875</LongitudeDegrees>
            </Position>
            <AltitudeMeters>-2.599999904632568359375</AltitudeMeters>
            <DistanceMeters>NAN</DistanceMeters>
          </Trackpoint>
          <Trackpoint>
            <Time>2021-08-12T12:09:40.000Z</Time>
            <Position>
              <LatitudeDegrees>43.31614698283374309539794921875</LatitudeDegrees>
              <LongitudeDegrees>-2.00327661819756031036376953125</LongitudeDegrees>
            </Position>
            <AltitudeMeters>-2.400000095367431640625</AltitudeMeters>
            <DistanceMeters>NAN</DistanceMeters>
          </Trackpoint>
          <Trackpoint>
            <Time>2021-08-12T12:09:41.000Z</Time>
            <Position>
              <LatitudeDegrees>43.31616341136395931243896484375</LatitudeDegrees>
              <LongitudeDegrees>-2.00332255102694034576416015625</LongitudeDegrees>
            </Position>
            <AltitudeMeters>-2.400000095367431640625</AltitudeMeters>
            <DistanceMeters>NAN</DistanceMeters>
          </Trackpoint>
          <Trackpoint>
            <Time>2021-08-12T12:09:46.000Z</Time>
            <Position>
              <LatitudeDegrees>43.3162377588450908660888671875</LatitudeDegrees>
              <LongitudeDegrees>-2.003611139953136444091796875</LongitudeDegrees>
            </Position>
            <AltitudeMeters>-2.599999904632568359375</AltitudeMeters>
            <DistanceMeters>NAN</DistanceMeters>
          </Trackpoint>
          <Trackpoint>
            <Time>2021-08-12T12:09:47.000Z</Time>
            <Position>
              <LatitudeDegrees>43.31625158898532390594482421875</LatitudeDegrees>
              <LongitudeDegrees>-2.0036609284579753875732421875</LongitudeDegrees>
            </Position>
            <AltitudeMeters>-2.599999904632568359375</AltitudeMeters>
            <DistanceMeters>NAN</DistanceMeters>
          </Trackpoint>
          <Trackpoint>
            <Time>2021-08-12T12:09:48.000Z</Time>
            <Position>
              <LatitudeDegrees>43.3162659220397472381591796875</LatitudeDegrees>
              <LongitudeDegrees>-2.00370577163994312286376953125</LongitudeDegrees>
            </Position>
            <AltitudeMeters>-2.7999999523162841796875</AltitudeMeters>
            <DistanceMeters>NAN</DistanceMeters>
          </Trackpoint>
          <Trackpoint>
            <Time>2021-08-12T12:09:49.000Z</Time>
            <Position>
              <LatitudeDegrees>43.31627924926578998565673828125</LatitudeDegrees>
              <LongitudeDegrees>-2.0037464238703250885009765625</LongitudeDegrees>
            </Position>
            <AltitudeMeters>-2.7999999523162841796875</AltitudeMeters>
            <DistanceMeters>NAN</DistanceMeters>
          </Trackpoint>
          <Trackpoint>
            <Time>2021-08-12T12:09:50.000Z</Time>
            <Position>
              <LatitudeDegrees>43.31629098393023014068603515625</LatitudeDegrees>
              <LongitudeDegrees>-2.0037863217294216156005859375</LongitudeDegrees>
            </Position>
            <AltitudeMeters>-2.7999999523162841796875</AltitudeMeters>
            <DistanceMeters>NAN</DistanceMeters>
          </Trackpoint>
          <Trackpoint>
            <Time>2021-08-12T12:09:51.000Z</Time>
            <Position>
              <LatitudeDegrees>43.31630154512822628021240234375</LatitudeDegrees>
              <LongitudeDegrees>-2.00382311828434467315673828125</LongitudeDegrees>
            </Position>
            <AltitudeMeters>-2.7999999523162841796875</AltitudeMeters>
            <DistanceMeters>NAN</DistanceMeters>
          </Trackpoint>
          <Trackpoint>
            <Time>2021-08-12T12:09:52.000Z</Time>
            <Position>
              <LatitudeDegrees>43.3163118548691272735595703125</LatitudeDegrees>
              <LongitudeDegrees>-2.00385748408734798431396484375</LongitudeDegrees>
            </Position>
            <AltitudeMeters>-2.7999999523162841796875</AltitudeMeters>
            <DistanceMeters>NAN</DistanceMeters>
          </Trackpoint>
          <Trackpoint>
            <Time>2021-08-12T12:09:53.000Z</Time>
            <Position>
              <LatitudeDegrees>43.31632266752421855926513671875</LatitudeDegrees>
              <LongitudeDegrees>-2.00389369390904903411865234375</LongitudeDegrees>
            </Position>
            <AltitudeMeters>-2.7999999523162841796875</AltitudeMeters>
            <DistanceMeters>NAN</DistanceMeters>
          </Trackpoint>
          <Trackpoint>
            <Time>2021-08-12T12:10:00.000Z</Time>
            <Position>
              <LatitudeDegrees>43.31642492674291133880615234375</LatitudeDegrees>
              <LongitudeDegrees>-2.00421086512506008148193359375</LongitudeDegrees>
            </Position>
            <AltitudeMeters>-2.7999999523162841796875</AltitudeMeters>
            <DistanceMeters>NAN</DistanceMeters>
          </Trackpoint>
          <Trackpoint>
            <Time>2021-08-12T12:10:06.000Z</Time>
            <Position>
              <LatitudeDegrees>43.31652886234223842620849609375</LatitudeDegrees>
              <LongitudeDegrees>-2.004465758800506591796875</LongitudeDegrees>
            </Position>
            <AltitudeMeters>-2.599999904632568359375</AltitudeMeters>
            <DistanceMeters>NAN</DistanceMeters>
          </Trackpoint>
          <Trackpoint>
            <Time>2021-08-12T12:10:07.000Z</Time>
            <Position>
              <LatitudeDegrees>43.31656188704073429107666015625</LatitudeDegrees>
              <LongitudeDegrees>-2.00449098832905292510986328125</LongitudeDegrees>
            </Position>
            <AltitudeMeters>-2.400000095367431640625</AltitudeMeters>
            <DistanceMeters>NAN</DistanceMeters>
          </Trackpoint>
          <Trackpoint>
            <Time>2021-08-12T12:10:08.000Z</Time>
            <Position>
              <LatitudeDegrees>43.31659675575792789459228515625</LatitudeDegrees>
              <LongitudeDegrees>-2.00452032499015331268310546875</LongitudeDegrees>
            </Position>
            <AltitudeMeters>-2.400000095367431640625</AltitudeMeters>
            <DistanceMeters>NAN</DistanceMeters>
          </Trackpoint>
          <Trackpoint>
            <Time>2021-08-12T12:10:10.000Z</Time>
            <Position>
              <LatitudeDegrees>43.3166716061532497406005859375</LatitudeDegrees>
              <LongitudeDegrees>-2.00459542684257030487060546875</LongitudeDegrees>
            </Position>
            <AltitudeMeters>-2.400000095367431640625</AltitudeMeters>
            <DistanceMeters>NAN</DistanceMeters>
          </Trackpoint>
          <Trackpoint>
            <Time>2021-08-12T12:10:12.000Z</Time>
            <Position>
              <LatitudeDegrees>43.31673975102603435516357421875</LatitudeDegrees>
              <LongitudeDegrees>-2.0046789944171905517578125</LongitudeDegrees>
            </Position>
            <AltitudeMeters>-2.400000095367431640625</AltitudeMeters>
            <DistanceMeters>NAN</DistanceMeters>
          </Trackpoint>
          <Trackpoint>
            <Time>2021-08-12T12:10:13.000Z</Time>
            <Position>
              <LatitudeDegrees>43.3167735300958156585693359375</LatitudeDegrees>
              <LongitudeDegrees>-2.00471914373338222503662109375</LongitudeDegrees>
            </Position>
            <AltitudeMeters>-2.400000095367431640625</AltitudeMeters>
            <DistanceMeters>NAN</DistanceMeters>
          </Trackpoint>
          <Trackpoint>
            <Time>2021-08-12T12:10:20.000Z</Time>
            <Position>
              <LatitudeDegrees>43.31704418174922466278076171875</LatitudeDegrees>
              <LongitudeDegrees>-2.00495853088796138763427734375</LongitudeDegrees>
            </Position>
            <AltitudeMeters>-2.599999904632568359375</AltitudeMeters>
            <DistanceMeters>NAN</DistanceMeters>
          </Trackpoint>
          <Trackpoint>
            <Time>2021-08-12T12:10:25.000Z</Time>
            <Position>
              <LatitudeDegrees>43.31724216230213642120361328125</LatitudeDegrees>
              <LongitudeDegrees>-2.00508677400648593902587890625</LongitudeDegrees>
            </Position>
            <AltitudeMeters>-2.7999999523162841796875</AltitudeMeters>
            <DistanceMeters>NAN</DistanceMeters>
          </Trackpoint>
          <Trackpoint>
            <Time>2021-08-12T12:10:26.000Z</Time>
            <Position>
              <LatitudeDegrees>43.31726009957492351531982421875</LatitudeDegrees>
              <LongitudeDegrees>-2.00510068796575069427490234375</LongitudeDegrees>
            </Position>
            <AltitudeMeters>-3</AltitudeMeters>
            <DistanceMeters>NAN</DistanceMeters>
          </Trackpoint>
          <Trackpoint>
            <Time>2021-08-12T12:10:27.000Z</Time>
            <Position>
              <LatitudeDegrees>43.3172754384577274322509765625</LatitudeDegrees>
              <LongitudeDegrees>-2.005109153687953948974609375</LongitudeDegrees>
            </Position>
            <AltitudeMeters>-3</AltitudeMeters>
            <DistanceMeters>NAN</DistanceMeters>
          </Trackpoint>
          <Trackpoint>
            <Time>2021-08-12T12:10:28.000Z</Time>
            <Position>
              <LatitudeDegrees>43.3172754384577274322509765625</LatitudeDegrees>
              <LongitudeDegrees>-2.005109153687953948974609375</LongitudeDegrees>
            </Position>
            <AltitudeMeters>-3</AltitudeMeters>
            <DistanceMeters>NAN</DistanceMeters>
          </Trackpoint>
          <Trackpoint>
            <Time>2021-08-12T12:10:29.000Z</Time>
            <Position>
              <LatitudeDegrees>43.3172989077866077423095703125</LatitudeDegrees>
              <LongitudeDegrees>-2.00512357056140899658203125</LongitudeDegrees>
            </Position>
            <AltitudeMeters>-3</AltitudeMeters>
            <DistanceMeters>NAN</DistanceMeters>
          </Trackpoint>
          <Trackpoint>
            <Time>2021-08-12T12:10:30.000Z</Time>
            <Position>
              <LatitudeDegrees>43.31730921752750873565673828125</LatitudeDegrees>
              <LongitudeDegrees>-2.00512801297008991241455078125</LongitudeDegrees>
            </Position>
            <AltitudeMeters>-3</AltitudeMeters>
            <DistanceMeters>NAN</DistanceMeters>
          </Trackpoint>
          <Trackpoint>
            <Time>2021-08-12T12:10:31.000Z</Time>
            <Position>
              <LatitudeDegrees>43.31731743179261684417724609375</LatitudeDegrees>
              <LongitudeDegrees>-2.0051307789981365203857421875</LongitudeDegrees>
            </Position>
            <AltitudeMeters>-3</AltitudeMeters>
            <DistanceMeters>NAN</DistanceMeters>
          </Trackpoint>
          <Trackpoint>
            <Time>2021-08-12T12:10:32.000Z</Time>
            <Position>
              <LatitudeDegrees>43.31732782535254955291748046875</LatitudeDegrees>
              <LongitudeDegrees>-2.00513295829296112060546875</LongitudeDegrees>
            </Position>
            <AltitudeMeters>-3</AltitudeMeters>
            <DistanceMeters>NAN</DistanceMeters>
          </Trackpoint>
          <Trackpoint>
            <Time>2021-08-12T12:10:33.000Z</Time>
            <Position>
              <LatitudeDegrees>43.31734291277825832366943359375</LatitudeDegrees>
              <LongitudeDegrees>-2.00513471849262714385986328125</LongitudeDegrees>
            </Position>
            <AltitudeMeters>-3</AltitudeMeters>
            <DistanceMeters>NAN</DistanceMeters>
          </Trackpoint>
          <Trackpoint>
            <Time>2021-08-12T12:10:34.000Z</Time>
            <Position>
              <LatitudeDegrees>43.3173592574894428253173828125</LatitudeDegrees>
              <LongitudeDegrees>-2.0051401667296886444091796875</LongitudeDegrees>
            </Position>
            <AltitudeMeters>-3</AltitudeMeters>
            <DistanceMeters>NAN</DistanceMeters>
          </Trackpoint>
          <Trackpoint>
            <Time>2021-08-12T12:10:37.000Z</Time>
            <Position>
              <LatitudeDegrees>43.31743729300796985626220703125</LatitudeDegrees>
              <LongitudeDegrees>-2.00517796911299228668212890625</LongitudeDegrees>
            </Position>
            <AltitudeMeters>-3</AltitudeMeters>
            <DistanceMeters>NAN</DistanceMeters>
          </Trackpoint>
          <Trackpoint>
            <Time>2021-08-12T12:10:41.000Z</Time>
            <Position>
              <LatitudeDegrees>43.31756520085036754608154296875</LatitudeDegrees>
              <LongitudeDegrees>-2.00520663522183895111083984375</LongitudeDegrees>
            </Position>
            <AltitudeMeters>-3.2000000476837158203125</AltitudeMeters>
            <DistanceMeters>NAN</DistanceMeters>
          </Trackpoint>
          <Trackpoint>
            <Time>2021-08-12T12:10:45.000Z</Time>
            <Position>
              <LatitudeDegrees>43.3176928572356700897216796875</LatitudeDegrees>
              <LongitudeDegrees>-2.0052243210375308990478515625</LongitudeDegrees>
            </Position>
            <AltitudeMeters>-3</AltitudeMeters>
            <DistanceMeters>NAN</DistanceMeters>
          </Trackpoint>
          <Trackpoint>
            <Time>2021-08-12T12:10:53.000Z</Time>
            <Position>
              <LatitudeDegrees>43.3180016465485095977783203125</LatitudeDegrees>
              <LongitudeDegrees>-2.005214430391788482666015625</LongitudeDegrees>
            </Position>
            <AltitudeMeters>-2.7999999523162841796875</AltitudeMeters>
            <DistanceMeters>NAN</DistanceMeters>
          </Trackpoint>
          <Trackpoint>
            <Time>2021-08-12T12:10:59.000Z</Time>
            <Position>
              <LatitudeDegrees>43.31825620494782924652099609375</LatitudeDegrees>
              <LongitudeDegrees>-2.0051565952599048614501953125</LongitudeDegrees>
            </Position>
            <AltitudeMeters>-2.400000095367431640625</AltitudeMeters>
            <DistanceMeters>NAN</DistanceMeters>
          </Trackpoint>
          <Trackpoint>
            <Time>2021-08-12T12:11:00.000Z</Time>
            <Position>
              <LatitudeDegrees>43.3182980306446552276611328125</LatitudeDegrees>
              <LongitudeDegrees>-2.00514025054872035980224609375</LongitudeDegrees>
            </Position>
            <AltitudeMeters>-2.400000095367431640625</AltitudeMeters>
            <DistanceMeters>NAN</DistanceMeters>
          </Trackpoint>
          <Trackpoint>
            <Time>2021-08-12T12:11:10.000Z</Time>
            <Position>
              <LatitudeDegrees>43.3187473006546497344970703125</LatitudeDegrees>
              <LongitudeDegrees>-2.0050271786749362945556640625</LongitudeDegrees>
            </Position>
            <AltitudeMeters>-2.7999999523162841796875</AltitudeMeters>
            <DistanceMeters>NAN</DistanceMeters>
          </Trackpoint>
          <Trackpoint>
            <Time>2021-08-12T12:11:17.000Z</Time>
            <Position>
              <LatitudeDegrees>43.319038487970829010009765625</LatitudeDegrees>
              <LongitudeDegrees>-2.0049718581140041351318359375</LongitudeDegrees>
            </Position>
            <AltitudeMeters>-3</AltitudeMeters>
            <DistanceMeters>NAN</DistanceMeters>
          </Trackpoint>
          <Trackpoint>
            <Time>2021-08-12T12:11:18.000Z</Time>
            <Position>
              <LatitudeDegrees>43.31907863728702068328857421875</LatitudeDegrees>
              <LongitudeDegrees>-2.0049606263637542724609375</LongitudeDegrees>
            </Position>
            <AltitudeMeters>-3</AltitudeMeters>
            <DistanceMeters>NAN</DistanceMeters>
          </Trackpoint>
          <Trackpoint>
            <Time>2021-08-12T12:11:19.000Z</Time>
            <Position>
              <LatitudeDegrees>43.31911786459386348724365234375</LatitudeDegrees>
              <LongitudeDegrees>-2.00494998134672641754150390625</LongitudeDegrees>
            </Position>
            <AltitudeMeters>-3</AltitudeMeters>
            <DistanceMeters>NAN</DistanceMeters>
          </Trackpoint>
          <Trackpoint>
            <Time>2021-08-12T12:11:20.000Z</Time>
            <Position>
              <LatitudeDegrees>43.31916086375713348388671875</LatitudeDegrees>
              <LongitudeDegrees>-2.00494386255741119384765625</LongitudeDegrees>
            </Position>
            <AltitudeMeters>-3</AltitudeMeters>
            <DistanceMeters>NAN</DistanceMeters>
          </Trackpoint>
          <Trackpoint>
            <Time>2021-08-12T12:11:24.000Z</Time>
            <Position>
              <LatitudeDegrees>43.31933252513408660888671875</LatitudeDegrees>
              <LongitudeDegrees>-2.004905305802822113037109375</LongitudeDegrees>
            </Position>
            <AltitudeMeters>-2.599999904632568359375</AltitudeMeters>
            <DistanceMeters>NAN</DistanceMeters>
          </Trackpoint>
          <Trackpoint>
            <Time>2021-08-12T12:11:25.000Z</Time>
            <Position>
              <LatitudeDegrees>43.31936965696513652801513671875</LatitudeDegrees>
              <LongitudeDegrees>-2.0048944093286991119384765625</LongitudeDegrees>
            </Position>
            <AltitudeMeters>-2.599999904632568359375</AltitudeMeters>
            <DistanceMeters>NAN</DistanceMeters>
          </Trackpoint>
          <Trackpoint>
            <Time>2021-08-12T12:11:26.000Z</Time>
            <Position>
              <LatitudeDegrees>43.31940628588199615478515625</LatitudeDegrees>
              <LongitudeDegrees>-2.00488342903554439544677734375</LongitudeDegrees>
            </Position>
            <AltitudeMeters>-2.599999904632568359375</AltitudeMeters>
            <DistanceMeters>NAN</DistanceMeters>
          </Trackpoint>
          <Trackpoint>
            <Time>2021-08-12T12:11:27.000Z</Time>
            <Position>
              <LatitudeDegrees>43.319443166255950927734375</LatitudeDegrees>
              <LongitudeDegrees>-2.00487337075173854827880859375</LongitudeDegrees>
            </Position>
            <AltitudeMeters>-2.599999904632568359375</AltitudeMeters>
            <DistanceMeters>NAN</DistanceMeters>
          </Trackpoint>
          <Trackpoint>
            <Time>2021-08-12T12:11:29.000Z</Time>
            <Position>
              <LatitudeDegrees>43.31951969303190708160400390625</LatitudeDegrees>
              <LongitudeDegrees>-2.00485325418412685394287109375</LongitudeDegrees>
            </Position>
            <AltitudeMeters>-2.7999999523162841796875</AltitudeMeters>
            <DistanceMeters>NAN</DistanceMeters>
          </Trackpoint>
          <Trackpoint>
            <Time>2021-08-12T12:11:30.000Z</Time>
            <Position>
              <LatitudeDegrees>43.3195579983294010162353515625</LatitudeDegrees>
              <LongitudeDegrees>-2.0048439502716064453125</LongitudeDegrees>
            </Position>
            <AltitudeMeters>-2.7999999523162841796875</AltitudeMeters>
            <DistanceMeters>NAN</DistanceMeters>
          </Trackpoint>
          <Trackpoint>
            <Time>2021-08-12T12:11:36.000Z</Time>
            <Position>
              <LatitudeDegrees>43.31981389783322811126708984375</LatitudeDegrees>
              <LongitudeDegrees>-2.0048018731176853179931640625</LongitudeDegrees>
            </Position>
            <AltitudeMeters>-2.7999999523162841796875</AltitudeMeters>
            <DistanceMeters>NAN</DistanceMeters>
          </Trackpoint>
          <Trackpoint>
            <Time>2021-08-12T12:11:40.000Z</Time>
            <Position>
              <LatitudeDegrees>43.31998991779983043670654296875</LatitudeDegrees>
              <LongitudeDegrees>-2.004814781248569488525390625</LongitudeDegrees>
            </Position>
            <AltitudeMeters>-2.7999999523162841796875</AltitudeMeters>
            <DistanceMeters>NAN</DistanceMeters>
          </Trackpoint>
          <Trackpoint>
            <Time>2021-08-12T12:11:43.000Z</Time>
            <Position>
              <LatitudeDegrees>43.32012369297444820404052734375</LatitudeDegrees>
              <LongitudeDegrees>-2.00484864413738250732421875</LongitudeDegrees>
            </Position>
            <AltitudeMeters>-2.7999999523162841796875</AltitudeMeters>
            <DistanceMeters>NAN</DistanceMeters>
          </Trackpoint>
          <Trackpoint>
            <Time>2021-08-12T12:11:48.000Z</Time>
            <Position>
              <LatitudeDegrees>43.32032284699380397796630859375</LatitudeDegrees>
              <LongitudeDegrees>-2.00489549897611141204833984375</LongitudeDegrees>
            </Position>
            <AltitudeMeters>-2.599999904632568359375</AltitudeMeters>
            <DistanceMeters>NAN</DistanceMeters>
          </Trackpoint>
          <Trackpoint>
            <Time>2021-08-12T12:11:49.000Z</Time>
            <Position>
              <LatitudeDegrees>43.3203616552054882049560546875</LatitudeDegrees>
              <LongitudeDegrees>-2.00489826500415802001953125</LongitudeDegrees>
            </Position>
            <AltitudeMeters>-2.599999904632568359375</AltitudeMeters>
            <DistanceMeters>NAN</DistanceMeters>
          </Trackpoint>
          <Trackpoint>
            <Time>2021-08-12T12:11:51.000Z</Time>
            <Position>
              <LatitudeDegrees>43.320431225001811981201171875</LatitudeDegrees>
              <LongitudeDegrees>-2.0048783160746097564697265625</LongitudeDegrees>
            </Position>
            <AltitudeMeters>-2.599999904632568359375</AltitudeMeters>
            <DistanceMeters>NAN</DistanceMeters>
          </Trackpoint>
          <Trackpoint>
            <Time>2021-08-12T12:11:52.000Z</Time>
            <Position>
              <LatitudeDegrees>43.32046232186257839202880859375</LatitudeDegrees>
              <LongitudeDegrees>-2.004875801503658294677734375</LongitudeDegrees>
            </Position>
            <AltitudeMeters>-2.599999904632568359375</AltitudeMeters>
            <DistanceMeters>NAN</DistanceMeters>
          </Trackpoint>
          <Trackpoint>
            <Time>2021-08-12T12:11:53.000Z</Time>
            <Position>
              <LatitudeDegrees>43.3204917423427104949951171875</LatitudeDegrees>
              <LongitudeDegrees>-2.0048833452165126800537109375</LongitudeDegrees>
            </Position>
            <AltitudeMeters>-2.599999904632568359375</AltitudeMeters>
            <DistanceMeters>NAN</DistanceMeters>
          </Trackpoint>
          <Trackpoint>
            <Time>2021-08-12T12:11:54.000Z</Time>
            <Position>
              <LatitudeDegrees>43.32051881588995456695556640625</LatitudeDegrees>
              <LongitudeDegrees>-2.00488979928195476531982421875</LongitudeDegrees>
            </Position>
            <AltitudeMeters>-2.599999904632568359375</AltitudeMeters>
            <DistanceMeters>NAN</DistanceMeters>
          </Trackpoint>
          <Trackpoint>
            <Time>2021-08-12T12:11:55.000Z</Time>
            <Position>
              <LatitudeDegrees>43.32054513506591320037841796875</LatitudeDegrees>
              <LongitudeDegrees>-2.00489348731935024261474609375</LongitudeDegrees>
            </Position>
            <AltitudeMeters>-2.599999904632568359375</AltitudeMeters>
            <DistanceMeters>NAN</DistanceMeters>
          </Trackpoint>
          <Trackpoint>
            <Time>2021-08-12T12:11:56.000Z</Time>
            <Position>
              <LatitudeDegrees>43.32057011313736438751220703125</LatitudeDegrees>
              <LongitudeDegrees>-2.00489801354706287384033203125</LongitudeDegrees>
            </Position>
            <AltitudeMeters>-2.599999904632568359375</AltitudeMeters>
            <DistanceMeters>NAN</DistanceMeters>
          </Trackpoint>
          <Trackpoint>
            <Time>2021-08-12T12:11:58.000Z</Time>
            <Position>
              <LatitudeDegrees>43.3206121064722537994384765625</LatitudeDegrees>
              <LongitudeDegrees>-2.0049071498215198516845703125</LongitudeDegrees>
            </Position>
            <AltitudeMeters>-2.400000095367431640625</AltitudeMeters>
            <DistanceMeters>NAN</DistanceMeters>
          </Trackpoint>
          <Trackpoint>
            <Time>2021-08-12T12:12:01.000Z</Time>
            <Position>
              <LatitudeDegrees>43.32067572511732578277587890625</LatitudeDegrees>
              <LongitudeDegrees>-2.00494118034839630126953125</LongitudeDegrees>
            </Position>
            <AltitudeMeters>-2.400000095367431640625</AltitudeMeters>
            <DistanceMeters>NAN</DistanceMeters>
          </Trackpoint>
          <Trackpoint>
            <Time>2021-08-12T12:12:02.000Z</Time>
            <Position>
              <LatitudeDegrees>43.3206997811794281005859375</LatitudeDegrees>
              <LongitudeDegrees>-2.0049473829567432403564453125</LongitudeDegrees>
            </Position>
            <AltitudeMeters>-2.400000095367431640625</AltitudeMeters>
            <DistanceMeters>NAN</DistanceMeters>
          </Trackpoint>
          <Trackpoint>
            <Time>2021-08-12T12:12:03.000Z</Time>
            <Position>
              <LatitudeDegrees>43.32072350196540355682373046875</LatitudeDegrees>
              <LongitudeDegrees>-2.00495350174605846405029296875</LongitudeDegrees>
            </Position>
            <AltitudeMeters>-2.400000095367431640625</AltitudeMeters>
            <DistanceMeters>NAN</DistanceMeters>
          </Trackpoint>
          <Trackpoint>
            <Time>2021-08-12T12:12:04.000Z</Time>
            <Position>
              <LatitudeDegrees>43.32074604928493499755859375</LatitudeDegrees>
              <LongitudeDegrees>-2.00495718978345394134521484375</LongitudeDegrees>
            </Position>
            <AltitudeMeters>-2.400000095367431640625</AltitudeMeters>
            <DistanceMeters>NAN</DistanceMeters>
          </Trackpoint>
          <Trackpoint>
            <Time>2021-08-12T12:12:05.000Z</Time>
            <Position>
              <LatitudeDegrees>43.32076624967157840728759765625</LatitudeDegrees>
              <LongitudeDegrees>-2.0049577765166759490966796875</LongitudeDegrees>
            </Position>
            <AltitudeMeters>-2.2000000476837158203125</AltitudeMeters>
            <DistanceMeters>NAN</DistanceMeters>
          </Trackpoint>
          <Trackpoint>
            <Time>2021-08-12T12:12:06.000Z</Time>
            <Position>
              <LatitudeDegrees>43.3207856118679046630859375</LatitudeDegrees>
              <LongitudeDegrees>-2.00495970435440540313720703125</LongitudeDegrees>
            </Position>
            <AltitudeMeters>-2.2000000476837158203125</AltitudeMeters>
            <DistanceMeters>NAN</DistanceMeters>
          </Trackpoint>
          <Trackpoint>
            <Time>2021-08-12T12:12:07.000Z</Time>
            <Position>
              <LatitudeDegrees>43.3208022080361843109130859375</LatitudeDegrees>
              <LongitudeDegrees>-2.00496372766792774200439453125</LongitudeDegrees>
            </Position>
            <AltitudeMeters>-2.2000000476837158203125</AltitudeMeters>
            <DistanceMeters>NAN</DistanceMeters>
          </Trackpoint>
          <Trackpoint>
            <Time>2021-08-12T12:12:08.000Z</Time>
            <Position>
              <LatitudeDegrees>43.32082827575504779815673828125</LatitudeDegrees>
              <LongitudeDegrees>-2.00497261248528957366943359375</LongitudeDegrees>
            </Position>
            <AltitudeMeters>-2.2000000476837158203125</AltitudeMeters>
            <DistanceMeters>NAN</DistanceMeters>
          </Trackpoint>
          <Trackpoint>
            <Time>2021-08-12T12:12:17.000Z</Time>
            <Position>
              <LatitudeDegrees>43.3210385777056217193603515625</LatitudeDegrees>
              <LongitudeDegrees>-2.0050261728465557098388671875</LongitudeDegrees>
            </Position>
            <AltitudeMeters>-2.2000000476837158203125</AltitudeMeters>
            <DistanceMeters>NAN</DistanceMeters>
          </Trackpoint>
          <Trackpoint>
            <Time>2021-08-12T12:12:22.000Z</Time>
            <Position>
              <LatitudeDegrees>43.32114242948591709136962890625</LatitudeDegrees>
              <LongitudeDegrees>-2.005050145089626312255859375</LongitudeDegrees>
            </Position>
            <AltitudeMeters>-2</AltitudeMeters>
            <DistanceMeters>NAN</DistanceMeters>
          </Trackpoint>
          <Trackpoint>
            <Time>2021-08-12T12:12:23.000Z</Time>
            <Position>
              <LatitudeDegrees>43.32116120494902133941650390625</LatitudeDegrees>
              <LongitudeDegrees>-2.00505827553570270538330078125</LongitudeDegrees>
            </Position>
            <AltitudeMeters>-2</AltitudeMeters>
            <DistanceMeters>NAN</DistanceMeters>
          </Trackpoint>
          <Trackpoint>
            <Time>2021-08-12T12:12:24.000Z</Time>
            <Position>
              <LatitudeDegrees>43.32117897458374500274658203125</LatitudeDegrees>
              <LongitudeDegrees>-2.0050627179443836212158203125</LongitudeDegrees>
            </Position>
            <AltitudeMeters>-2</AltitudeMeters>
            <DistanceMeters>NAN</DistanceMeters>
          </Trackpoint>
          <Trackpoint>
            <Time>2021-08-12T12:12:25.000Z</Time>
            <Position>
              <LatitudeDegrees>43.321195654571056365966796875</LatitudeDegrees>
              <LongitudeDegrees>-2.00506598688662052154541015625</LongitudeDegrees>
            </Position>
            <AltitudeMeters>-2</AltitudeMeters>
            <DistanceMeters>NAN</DistanceMeters>
          </Trackpoint>
          <Trackpoint>
            <Time>2021-08-12T12:12:26.000Z</Time>
            <Position>
              <LatitudeDegrees>43.32121283747255802154541015625</LatitudeDegrees>
              <LongitudeDegrees>-2.00506699271500110626220703125</LongitudeDegrees>
            </Position>
            <AltitudeMeters>-2</AltitudeMeters>
            <DistanceMeters>NAN</DistanceMeters>
          </Trackpoint>
          <Trackpoint>
            <Time>2021-08-12T12:12:27.000Z</Time>
            <Position>
              <LatitudeDegrees>43.321229517459869384765625</LatitudeDegrees>
              <LongitudeDegrees>-2.00507084839046001434326171875</LongitudeDegrees>
            </Position>
            <AltitudeMeters>-2</AltitudeMeters>
            <DistanceMeters>NAN</DistanceMeters>
          </Trackpoint>
          <Trackpoint>
            <Time>2021-08-12T12:12:28.000Z</Time>
            <Position>
              <LatitudeDegrees>43.3212474547326564788818359375</LatitudeDegrees>
              <LongitudeDegrees>-2.0050744526088237762451171875</LongitudeDegrees>
            </Position>
            <AltitudeMeters>-2</AltitudeMeters>
            <DistanceMeters>NAN</DistanceMeters>
          </Trackpoint>
          <Trackpoint>
            <Time>2021-08-12T12:12:29.000Z</Time>
            <Position>
              <LatitudeDegrees>43.3212638832628726959228515625</LatitudeDegrees>
              <LongitudeDegrees>-2.005076967179775238037109375</LongitudeDegrees>
            </Position>
            <AltitudeMeters>-2</AltitudeMeters>
            <DistanceMeters>NAN</DistanceMeters>
          </Trackpoint>
          <Trackpoint>
            <Time>2021-08-12T12:12:30.000Z</Time>
            <Position>
              <LatitudeDegrees>43.3212779648602008819580078125</LatitudeDegrees>
              <LongitudeDegrees>-2.005077302455902099609375</LongitudeDegrees>
            </Position>
            <AltitudeMeters>-2</AltitudeMeters>
            <DistanceMeters>NAN</DistanceMeters>
          </Trackpoint>
          <Trackpoint>
            <Time>2021-08-12T12:12:31.000Z</Time>
            <Position>
              <LatitudeDegrees>43.32129129208624362945556640625</LatitudeDegrees>
              <LongitudeDegrees>-2.0050791464745998382568359375</LongitudeDegrees>
            </Position>
            <AltitudeMeters>-2</AltitudeMeters>
            <DistanceMeters>NAN</DistanceMeters>
          </Trackpoint>
          <Trackpoint>
            <Time>2021-08-12T12:12:32.000Z</Time>
            <Position>
              <LatitudeDegrees>43.32130352966487407684326171875</LatitudeDegrees>
              <LongitudeDegrees>-2.0050811581313610076904296875</LongitudeDegrees>
            </Position>
            <AltitudeMeters>-2</AltitudeMeters>
            <DistanceMeters>NAN</DistanceMeters>
          </Trackpoint>
          <Trackpoint>
            <Time>2021-08-12T12:12:33.000Z</Time>
            <Position>
              <LatitudeDegrees>43.32131526432931423187255859375</LatitudeDegrees>
              <LongitudeDegrees>-2.00508291833102703094482421875</LongitudeDegrees>
            </Position>
            <AltitudeMeters>-2</AltitudeMeters>
            <DistanceMeters>NAN</DistanceMeters>
          </Trackpoint>
          <Trackpoint>
            <Time>2021-08-12T12:12:34.000Z</Time>
            <Position>
              <LatitudeDegrees>43.321326412260532379150390625</LatitudeDegrees>
              <LongitudeDegrees>-2.0050888694822788238525390625</LongitudeDegrees>
            </Position>
            <AltitudeMeters>-2</AltitudeMeters>
            <DistanceMeters>NAN</DistanceMeters>
          </Trackpoint>
          <Trackpoint>
            <Time>2021-08-12T12:12:35.000Z</Time>
            <Position>
              <LatitudeDegrees>43.32133672200143337249755859375</LatitudeDegrees>
              <LongitudeDegrees>-2.0050918869674205780029296875</LongitudeDegrees>
            </Position>
            <AltitudeMeters>-2</AltitudeMeters>
            <DistanceMeters>NAN</DistanceMeters>
          </Trackpoint>
          <Trackpoint>
            <Time>2021-08-12T12:12:36.000Z</Time>
            <Position>
              <LatitudeDegrees>43.321346528828144073486328125</LatitudeDegrees>
              <LongitudeDegrees>-2.00509213842451572418212890625</LongitudeDegrees>
            </Position>
            <AltitudeMeters>-2</AltitudeMeters>
            <DistanceMeters>NAN</DistanceMeters>
          </Trackpoint>
          <Trackpoint>
            <Time>2021-08-12T12:12:37.000Z</Time>
            <Position>
              <LatitudeDegrees>43.32135834731161594390869140625</LatitudeDegrees>
              <LongitudeDegrees>-2.00509666465222835540771484375</LongitudeDegrees>
            </Position>
            <AltitudeMeters>-2</AltitudeMeters>
            <DistanceMeters>NAN</DistanceMeters>
          </Trackpoint>
          <Trackpoint>
            <Time>2021-08-12T12:12:38.000Z</Time>
            <Position>
              <LatitudeDegrees>43.32137234508991241455078125</LatitudeDegrees>
              <LongitudeDegrees>-2.005095742642879486083984375</LongitudeDegrees>
            </Position>
            <AltitudeMeters>-2</AltitudeMeters>
            <DistanceMeters>NAN</DistanceMeters>
          </Trackpoint>
          <Trackpoint>
            <Time>2021-08-12T12:12:39.000Z</Time>
            <Position>
              <LatitudeDegrees>43.3213849179446697235107421875</LatitudeDegrees>
              <LongitudeDegrees>-2.00509767048060894012451171875</LongitudeDegrees>
            </Position>
            <AltitudeMeters>-2</AltitudeMeters>
            <DistanceMeters>NAN</DistanceMeters>
          </Trackpoint>
          <Trackpoint>
            <Time>2021-08-12T12:12:40.000Z</Time>
            <Position>
              <LatitudeDegrees>43.3213983289897441864013671875</LatitudeDegrees>
              <LongitudeDegrees>-2.00509951449930667877197265625</LongitudeDegrees>
            </Position>
            <AltitudeMeters>-2</AltitudeMeters>
            <DistanceMeters>NAN</DistanceMeters>
          </Trackpoint>
          <Trackpoint>
            <Time>2021-08-12T12:12:41.000Z</Time>
            <Position>
              <LatitudeDegrees>43.321411907672882080078125</LatitudeDegrees>
              <LongitudeDegrees>-2.00510538183152675628662109375</LongitudeDegrees>
            </Position>
            <AltitudeMeters>-2.2000000476837158203125</AltitudeMeters>
            <DistanceMeters>NAN</DistanceMeters>
          </Trackpoint>
          <Trackpoint>
            <Time>2021-08-12T12:12:42.000Z</Time>
            <Position>
              <LatitudeDegrees>43.321422971785068511962890625</LatitudeDegrees>
              <LongitudeDegrees>-2.00512298382818698883056640625</LongitudeDegrees>
            </Position>
            <AltitudeMeters>-2.2000000476837158203125</AltitudeMeters>
            <DistanceMeters>NAN</DistanceMeters>
          </Trackpoint>
          <Trackpoint>
            <Time>2021-08-12T12:12:44.000Z</Time>
            <Position>
              <LatitudeDegrees>43.3214352093636989593505859375</LatitudeDegrees>
              <LongitudeDegrees>-2.00516514480113983154296875</LongitudeDegrees>
            </Position>
            <AltitudeMeters>-2.2000000476837158203125</AltitudeMeters>
            <DistanceMeters>NAN</DistanceMeters>
          </Trackpoint>
          <Trackpoint>
            <Time>2021-08-12T12:12:45.000Z</Time>
            <Position>
              <LatitudeDegrees>43.3214415796101093292236328125</LatitudeDegrees>
              <LongitudeDegrees>-2.005180232226848602294921875</LongitudeDegrees>
            </Position>
            <AltitudeMeters>-2.2000000476837158203125</AltitudeMeters>
            <DistanceMeters>NAN</DistanceMeters>
          </Trackpoint>
          <Trackpoint>
            <Time>2021-08-12T12:12:48.000Z</Time>
            <Position>
              <LatitudeDegrees>43.32146815024316310882568359375</LatitudeDegrees>
              <LongitudeDegrees>-2.0052162744104862213134765625</LongitudeDegrees>
            </Position>
            <AltitudeMeters>-2.400000095367431640625</AltitudeMeters>
            <DistanceMeters>NAN</DistanceMeters>
          </Trackpoint>
          <Trackpoint>
            <Time>2021-08-12T12:12:49.000Z</Time>
            <Position>
              <LatitudeDegrees>43.32147695124149322509765625</LatitudeDegrees>
              <LongitudeDegrees>-2.0052216388285160064697265625</LongitudeDegrees>
            </Position>
            <AltitudeMeters>-2.400000095367431640625</AltitudeMeters>
            <DistanceMeters>NAN</DistanceMeters>
          </Trackpoint>
          <Trackpoint>
            <Time>2021-08-12T12:12:50.000Z</Time>
            <Position>
              <LatitudeDegrees>43.3214856684207916259765625</LatitudeDegrees>
              <LongitudeDegrees>-2.00522406958043575286865234375</LongitudeDegrees>
            </Position>
            <AltitudeMeters>-2.400000095367431640625</AltitudeMeters>
            <DistanceMeters>NAN</DistanceMeters>
          </Trackpoint>
          <Trackpoint>
            <Time>2021-08-12T12:12:51.000Z</Time>
            <Position>
              <LatitudeDegrees>43.321496732532978057861328125</LatitudeDegrees>
              <LongitudeDegrees>-2.00522339902818202972412109375</LongitudeDegrees>
            </Position>
            <AltitudeMeters>-2.400000095367431640625</AltitudeMeters>
            <DistanceMeters>NAN</DistanceMeters>
          </Trackpoint>
          <Trackpoint>
            <Time>2021-08-12T12:12:52.000Z</Time>
            <Position>
              <LatitudeDegrees>43.3215069584548473358154296875</LatitudeDegrees>
              <LongitudeDegrees>-2.00523127801716327667236328125</LongitudeDegrees>
            </Position>
            <AltitudeMeters>-2.400000095367431640625</AltitudeMeters>
            <DistanceMeters>NAN</DistanceMeters>
          </Trackpoint>
          <Trackpoint>
            <Time>2021-08-12T12:12:53.000Z</Time>
            <Position>
              <LatitudeDegrees>43.32151626236736774444580078125</LatitudeDegrees>
              <LongitudeDegrees>-2.00524318031966686248779296875</LongitudeDegrees>
            </Position>
            <AltitudeMeters>-2.2000000476837158203125</AltitudeMeters>
            <DistanceMeters>NAN</DistanceMeters>
          </Trackpoint>
          <Trackpoint>
            <Time>2021-08-12T12:12:54.000Z</Time>
            <Position>
              <LatitudeDegrees>43.32152481190860271453857421875</LatitudeDegrees>
              <LongitudeDegrees>-2.00526564382016658782958984375</LongitudeDegrees>
            </Position>
            <AltitudeMeters>-2.2000000476837158203125</AltitudeMeters>
            <DistanceMeters>NAN</DistanceMeters>
          </Trackpoint>
          <Trackpoint>
            <Time>2021-08-12T12:12:57.000Z</Time>
            <Position>
              <LatitudeDegrees>43.32153269089758396148681640625</LatitudeDegrees>
              <LongitudeDegrees>-2.0053534023463726043701171875</LongitudeDegrees>
            </Position>
            <AltitudeMeters>-2.2000000476837158203125</AltitudeMeters>
            <DistanceMeters>NAN</DistanceMeters>
          </Trackpoint>
          <Trackpoint>
            <Time>2021-08-12T12:12:58.000Z</Time>
            <Position>
              <LatitudeDegrees>43.32152187824249267578125</LatitudeDegrees>
              <LongitudeDegrees>-2.005374021828174591064453125</LongitudeDegrees>
            </Position>
            <AltitudeMeters>-2.2000000476837158203125</AltitudeMeters>
            <DistanceMeters>NAN</DistanceMeters>
          </Trackpoint>
          <Trackpoint>
            <Time>2021-08-12T12:12:59.000Z</Time>
            <Position>
              <LatitudeDegrees>43.3215133287012577056884765625</LatitudeDegrees>
              <LongitudeDegrees>-2.00538684614002704620361328125</LongitudeDegrees>
            </Position>
            <AltitudeMeters>-2.2000000476837158203125</AltitudeMeters>
            <DistanceMeters>NAN</DistanceMeters>
          </Trackpoint>
          <Trackpoint>
            <Time>2021-08-12T12:13:00.000Z</Time>
            <Position>
              <LatitudeDegrees>43.32150955684483051300048828125</LatitudeDegrees>
              <LongitudeDegrees>-2.00539003126323223114013671875</LongitudeDegrees>
            </Position>
            <AltitudeMeters>-2.2000000476837158203125</AltitudeMeters>
            <DistanceMeters>NAN</DistanceMeters>
          </Trackpoint>
          <Trackpoint>
            <Time>2021-08-12T12:13:02.000Z</Time>
            <Position>
              <LatitudeDegrees>43.32150955684483051300048828125</LatitudeDegrees>
              <LongitudeDegrees>-2.00539003126323223114013671875</LongitudeDegrees>
            </Position>
            <AltitudeMeters>-2</AltitudeMeters>
            <DistanceMeters>NAN</DistanceMeters>
          </Trackpoint>
          <Trackpoint>
            <Time>2021-08-12T12:13:12.000Z</Time>
            <Position>
              <LatitudeDegrees>43.32150469534099102020263671875</LatitudeDegrees>
              <LongitudeDegrees>-2.00538919307291507720947265625</LongitudeDegrees>
            </Position>
            <AltitudeMeters>-2</AltitudeMeters>
            <DistanceMeters>NAN</DistanceMeters>
          </Trackpoint>
          <Trackpoint>
            <Time>2021-08-12T12:13:14.000Z</Time>
            <Position>
              <LatitudeDegrees>43.32150469534099102020263671875</LatitudeDegrees>
              <LongitudeDegrees>-2.00538919307291507720947265625</LongitudeDegrees>
            </Position>
            <AltitudeMeters>-2</AltitudeMeters>
            <DistanceMeters>NAN</DistanceMeters>
          </Trackpoint>
          <Trackpoint>
            <Time>2021-08-12T12:27:46.000Z</Time>
            <Position>
              <LatitudeDegrees>43.32145524211227893829345703125</LatitudeDegrees>
              <LongitudeDegrees>-2.0053064636886119842529296875</LongitudeDegrees>
            </Position>
            <AltitudeMeters>-3.7999999523162841796875</AltitudeMeters>
            <DistanceMeters>NAN</DistanceMeters>
          </Trackpoint>
          <Trackpoint>
            <Time>2021-08-12T12:27:51.000Z</Time>
            <Position>
              <LatitudeDegrees>43.32145675085484981536865234375</LatitudeDegrees>
              <LongitudeDegrees>-2.00530654750764369964599609375</LongitudeDegrees>
            </Position>
            <AltitudeMeters>-3.7999999523162841796875</AltitudeMeters>
            <DistanceMeters>NAN</DistanceMeters>
          </Trackpoint>
          <Trackpoint>
            <Time>2021-08-12T12:27:55.000Z</Time>
            <Position>
              <LatitudeDegrees>43.32143696956336498260498046875</LatitudeDegrees>
              <LongitudeDegrees>-2.00524267740547657012939453125</LongitudeDegrees>
            </Position>
            <AltitudeMeters>-3.599999904632568359375</AltitudeMeters>
            <DistanceMeters>NAN</DistanceMeters>
          </Trackpoint>
          <Trackpoint>
            <Time>2021-08-12T12:27:58.000Z</Time>
            <Position>
              <LatitudeDegrees>43.32142154686152935028076171875</LatitudeDegrees>
              <LongitudeDegrees>-2.00516648590564727783203125</LongitudeDegrees>
            </Position>
            <AltitudeMeters>-3.599999904632568359375</AltitudeMeters>
            <DistanceMeters>NAN</DistanceMeters>
          </Trackpoint>
          <Trackpoint>
            <Time>2021-08-12T12:28:02.000Z</Time>
            <Position>
              <LatitudeDegrees>43.32137125544250011444091796875</LatitudeDegrees>
              <LongitudeDegrees>-2.00508208014070987701416015625</LongitudeDegrees>
            </Position>
            <AltitudeMeters>-3.7999999523162841796875</AltitudeMeters>
            <DistanceMeters>NAN</DistanceMeters>
          </Trackpoint>
          <Trackpoint>
            <Time>2021-08-12T12:28:08.000Z</Time>
            <Position>
              <LatitudeDegrees>43.32127234898507595062255859375</LatitudeDegrees>
              <LongitudeDegrees>-2.005051486194133758544921875</LongitudeDegrees>
            </Position>
            <AltitudeMeters>-4.19999980926513671875</AltitudeMeters>
            <DistanceMeters>NAN</DistanceMeters>
          </Trackpoint>
          <Trackpoint>
            <Time>2021-08-12T12:28:09.000Z</Time>
            <Position>
              <LatitudeDegrees>43.3212551660835742950439453125</LatitudeDegrees>
              <LongitudeDegrees>-2.0050483010709285736083984375</LongitudeDegrees>
            </Position>
            <AltitudeMeters>-4.19999980926513671875</AltitudeMeters>
            <DistanceMeters>NAN</DistanceMeters>
          </Trackpoint>
          <Trackpoint>
            <Time>2021-08-12T12:28:10.000Z</Time>
            <Position>
              <LatitudeDegrees>43.3212384022772312164306640625</LatitudeDegrees>
              <LongitudeDegrees>-2.0050439424812793731689453125</LongitudeDegrees>
            </Position>
            <AltitudeMeters>-4.400000095367431640625</AltitudeMeters>
            <DistanceMeters>NAN</DistanceMeters>
          </Trackpoint>
          <Trackpoint>
            <Time>2021-08-12T12:28:11.000Z</Time>
            <Position>
              <LatitudeDegrees>43.3212182857096195220947265625</LatitudeDegrees>
              <LongitudeDegrees>-2.00504100881516933441162109375</LongitudeDegrees>
            </Position>
            <AltitudeMeters>-4.400000095367431640625</AltitudeMeters>
            <DistanceMeters>NAN</DistanceMeters>
          </Trackpoint>
          <Trackpoint>
            <Time>2021-08-12T12:28:12.000Z</Time>
            <Position>
              <LatitudeDegrees>43.32119875587522983551025390625</LatitudeDegrees>
              <LongitudeDegrees>-2.0050357282161712646484375</LongitudeDegrees>
            </Position>
            <AltitudeMeters>-4.400000095367431640625</AltitudeMeters>
            <DistanceMeters>NAN</DistanceMeters>
          </Trackpoint>
          <Trackpoint>
            <Time>2021-08-12T12:28:13.000Z</Time>
            <Position>
              <LatitudeDegrees>43.32117947749793529510498046875</LatitudeDegrees>
              <LongitudeDegrees>-2.00503279455006122589111328125</LongitudeDegrees>
            </Position>
            <AltitudeMeters>-4.19999980926513671875</AltitudeMeters>
            <DistanceMeters>NAN</DistanceMeters>
          </Trackpoint>
          <Trackpoint>
            <Time>2021-08-12T12:28:14.000Z</Time>
            <Position>
              <LatitudeDegrees>43.32115986384451389312744140625</LatitudeDegrees>
              <LongitudeDegrees>-2.005030699074268341064453125</LongitudeDegrees>
            </Position>
            <AltitudeMeters>-4.19999980926513671875</AltitudeMeters>
            <DistanceMeters>NAN</DistanceMeters>
          </Trackpoint>
          <Trackpoint>
            <Time>2021-08-12T12:28:15.000Z</Time>
            <Position>
              <LatitudeDegrees>43.3211408369243144989013671875</LatitudeDegrees>
              <LongitudeDegrees>-2.00503212399780750274658203125</LongitudeDegrees>
            </Position>
            <AltitudeMeters>-4.19999980926513671875</AltitudeMeters>
            <DistanceMeters>NAN</DistanceMeters>
          </Trackpoint>
          <Trackpoint>
            <Time>2021-08-12T12:28:16.000Z</Time>
            <Position>
              <LatitudeDegrees>43.32112331874668598175048828125</LatitudeDegrees>
              <LongitudeDegrees>-2.005030028522014617919921875</LongitudeDegrees>
            </Position>
            <AltitudeMeters>-4.19999980926513671875</AltitudeMeters>
            <DistanceMeters>NAN</DistanceMeters>
          </Trackpoint>
          <Trackpoint>
            <Time>2021-08-12T12:28:17.000Z</Time>
            <Position>
              <LatitudeDegrees>43.32110605202615261077880859375</LatitudeDegrees>
              <LongitudeDegrees>-2.00502575375139713287353515625</LongitudeDegrees>
            </Position>
            <AltitudeMeters>-4.19999980926513671875</AltitudeMeters>
            <DistanceMeters>NAN</DistanceMeters>
          </Trackpoint>
          <Trackpoint>
            <Time>2021-08-12T12:28:18.000Z</Time>
            <Position>
              <LatitudeDegrees>43.32108995877206325531005859375</LatitudeDegrees>
              <LongitudeDegrees>-2.0050244964659214019775390625</LongitudeDegrees>
            </Position>
            <AltitudeMeters>-4.19999980926513671875</AltitudeMeters>
            <DistanceMeters>NAN</DistanceMeters>
          </Trackpoint>
          <Trackpoint>
            <Time>2021-08-12T12:28:19.000Z</Time>
            <Position>
              <LatitudeDegrees>43.32107671536505222320556640625</LatitudeDegrees>
              <LongitudeDegrees>-2.00502525083720684051513671875</LongitudeDegrees>
            </Position>
            <AltitudeMeters>-4</AltitudeMeters>
            <DistanceMeters>NAN</DistanceMeters>
          </Trackpoint>
          <Trackpoint>
            <Time>2021-08-12T12:28:20.000Z</Time>
            <Position>
              <LatitudeDegrees>43.32106565125286579132080078125</LatitudeDegrees>
              <LongitudeDegrees>-2.0050249993801116943359375</LongitudeDegrees>
            </Position>
            <AltitudeMeters>-4</AltitudeMeters>
            <DistanceMeters>NAN</DistanceMeters>
          </Trackpoint>
          <Trackpoint>
            <Time>2021-08-12T12:28:21.000Z</Time>
            <Position>
              <LatitudeDegrees>43.32105425186455249786376953125</LatitudeDegrees>
              <LongitudeDegrees>-2.00502156279981136322021484375</LongitudeDegrees>
            </Position>
            <AltitudeMeters>-4</AltitudeMeters>
            <DistanceMeters>NAN</DistanceMeters>
          </Trackpoint>
          <Trackpoint>
            <Time>2021-08-12T12:28:22.000Z</Time>
            <Position>
              <LatitudeDegrees>43.32104218192398548126220703125</LatitudeDegrees>
              <LongitudeDegrees>-2.005012929439544677734375</LongitudeDegrees>
            </Position>
            <AltitudeMeters>-4</AltitudeMeters>
            <DistanceMeters>NAN</DistanceMeters>
          </Trackpoint>
          <Trackpoint>
            <Time>2021-08-12T12:28:23.000Z</Time>
            <Position>
              <LatitudeDegrees>43.32102843560278415679931640625</LatitudeDegrees>
              <LongitudeDegrees>-2.005002535879611968994140625</LongitudeDegrees>
            </Position>
            <AltitudeMeters>-4</AltitudeMeters>
            <DistanceMeters>NAN</DistanceMeters>
          </Trackpoint>
          <Trackpoint>
            <Time>2021-08-12T12:28:24.000Z</Time>
            <Position>
              <LatitudeDegrees>43.3210147731006145477294921875</LatitudeDegrees>
              <LongitudeDegrees>-2.0049949921667575836181640625</LongitudeDegrees>
            </Position>
            <AltitudeMeters>-4</AltitudeMeters>
            <DistanceMeters>NAN</DistanceMeters>
          </Trackpoint>
          <Trackpoint>
            <Time>2021-08-12T12:28:25.000Z</Time>
            <Position>
              <LatitudeDegrees>43.32100111059844493865966796875</LatitudeDegrees>
              <LongitudeDegrees>-2.004990465939044952392578125</LongitudeDegrees>
            </Position>
            <AltitudeMeters>-4</AltitudeMeters>
            <DistanceMeters>NAN</DistanceMeters>
          </Trackpoint>
          <Trackpoint>
            <Time>2021-08-12T12:28:26.000Z</Time>
            <Position>
              <LatitudeDegrees>43.320988118648529052734375</LatitudeDegrees>
              <LongitudeDegrees>-2.0049847662448883056640625</LongitudeDegrees>
            </Position>
            <AltitudeMeters>-4</AltitudeMeters>
            <DistanceMeters>NAN</DistanceMeters>
          </Trackpoint>
          <Trackpoint>
            <Time>2021-08-12T12:28:27.000Z</Time>
            <Position>
              <LatitudeDegrees>43.3209760487079620361328125</LatitudeDegrees>
              <LongitudeDegrees>-2.00497948564589023590087890625</LongitudeDegrees>
            </Position>
            <AltitudeMeters>-4</AltitudeMeters>
            <DistanceMeters>NAN</DistanceMeters>
          </Trackpoint>
          <Trackpoint>
            <Time>2021-08-12T12:28:28.000Z</Time>
            <Position>
              <LatitudeDegrees>43.32096372731029987335205078125</LatitudeDegrees>
              <LongitudeDegrees>-2.00497646816074848175048828125</LongitudeDegrees>
            </Position>
            <AltitudeMeters>-4</AltitudeMeters>
            <DistanceMeters>NAN</DistanceMeters>
          </Trackpoint>
          <Trackpoint>
            <Time>2021-08-12T12:28:29.000Z</Time>
            <Position>
              <LatitudeDegrees>43.32095065154135227203369140625</LatitudeDegrees>
              <LongitudeDegrees>-2.00497194193303585052490234375</LongitudeDegrees>
            </Position>
            <AltitudeMeters>-4</AltitudeMeters>
            <DistanceMeters>NAN</DistanceMeters>
          </Trackpoint>
          <Trackpoint>
            <Time>2021-08-12T12:28:33.000Z</Time>
            <Position>
              <LatitudeDegrees>43.320850990712642669677734375</LatitudeDegrees>
              <LongitudeDegrees>-2.00496666133403778076171875</LongitudeDegrees>
            </Position>
            <AltitudeMeters>-4</AltitudeMeters>
            <DistanceMeters>NAN</DistanceMeters>
          </Trackpoint>
          <Trackpoint>
            <Time>2021-08-12T12:28:36.000Z</Time>
            <Position>
              <LatitudeDegrees>43.3207659982144832611083984375</LatitudeDegrees>
              <LongitudeDegrees>-2.004981748759746551513671875</LongitudeDegrees>
            </Position>
            <AltitudeMeters>-4</AltitudeMeters>
            <DistanceMeters>NAN</DistanceMeters>
          </Trackpoint>
          <Trackpoint>
            <Time>2021-08-12T12:28:37.000Z</Time>
            <Position>
              <LatitudeDegrees>43.320739679038524627685546875</LatitudeDegrees>
              <LongitudeDegrees>-2.0049701817333698272705078125</LongitudeDegrees>
            </Position>
            <AltitudeMeters>-4.19999980926513671875</AltitudeMeters>
            <DistanceMeters>NAN</DistanceMeters>
          </Trackpoint>
          <Trackpoint>
            <Time>2021-08-12T12:28:38.000Z</Time>
            <Position>
              <LatitudeDegrees>43.3207105100154876708984375</LatitudeDegrees>
              <LongitudeDegrees>-2.004952915012836456298828125</LongitudeDegrees>
            </Position>
            <AltitudeMeters>-4.19999980926513671875</AltitudeMeters>
            <DistanceMeters>NAN</DistanceMeters>
          </Trackpoint>
          <Trackpoint>
            <Time>2021-08-12T12:28:39.000Z</Time>
            <Position>
              <LatitudeDegrees>43.32068813033401966094970703125</LatitudeDegrees>
              <LongitudeDegrees>-2.00493522919714450836181640625</LongitudeDegrees>
            </Position>
            <AltitudeMeters>-4.19999980926513671875</AltitudeMeters>
            <DistanceMeters>NAN</DistanceMeters>
          </Trackpoint>
          <Trackpoint>
            <Time>2021-08-12T12:28:40.000Z</Time>
            <Position>
              <LatitudeDegrees>43.320664577186107635498046875</LatitudeDegrees>
              <LongitudeDegrees>-2.00492114759981632232666015625</LongitudeDegrees>
            </Position>
            <AltitudeMeters>-4.19999980926513671875</AltitudeMeters>
            <DistanceMeters>NAN</DistanceMeters>
          </Trackpoint>
          <Trackpoint>
            <Time>2021-08-12T12:28:42.000Z</Time>
            <Position>
              <LatitudeDegrees>43.320615291595458984375</LatitudeDegrees>
              <LongitudeDegrees>-2.00491729192435741424560546875</LongitudeDegrees>
            </Position>
            <AltitudeMeters>-4.400000095367431640625</AltitudeMeters>
            <DistanceMeters>NAN</DistanceMeters>
          </Trackpoint>
          <Trackpoint>
            <Time>2021-08-12T12:28:43.000Z</Time>
            <Position>
              <LatitudeDegrees>43.32059291191399097442626953125</LatitudeDegrees>
              <LongitudeDegrees>-2.00492114759981632232666015625</LongitudeDegrees>
            </Position>
            <AltitudeMeters>-4.400000095367431640625</AltitudeMeters>
            <DistanceMeters>NAN</DistanceMeters>
          </Trackpoint>
          <Trackpoint>
            <Time>2021-08-12T12:28:44.000Z</Time>
            <Position>
              <LatitudeDegrees>43.320575058460235595703125</LatitudeDegrees>
              <LongitudeDegrees>-2.00492768548429012298583984375</LongitudeDegrees>
            </Position>
            <AltitudeMeters>-4.400000095367431640625</AltitudeMeters>
            <DistanceMeters>NAN</DistanceMeters>
          </Trackpoint>
          <Trackpoint>
            <Time>2021-08-12T12:28:45.000Z</Time>
            <Position>
              <LatitudeDegrees>43.32055837847292423248291015625</LatitudeDegrees>
              <LongitudeDegrees>-2.00492818839848041534423828125</LongitudeDegrees>
            </Position>
            <AltitudeMeters>-4.599999904632568359375</AltitudeMeters>
            <DistanceMeters>NAN</DistanceMeters>
          </Trackpoint>
          <Trackpoint>
            <Time>2021-08-12T12:28:46.000Z</Time>
            <Position>
              <LatitudeDegrees>43.32054027356207370758056640625</LatitudeDegrees>
              <LongitudeDegrees>-2.004928104579448699951171875</LongitudeDegrees>
            </Position>
            <AltitudeMeters>-4.599999904632568359375</AltitudeMeters>
            <DistanceMeters>NAN</DistanceMeters>
          </Trackpoint>
          <Trackpoint>
            <Time>2021-08-12T12:28:47.000Z</Time>
            <Position>
              <LatitudeDegrees>43.320522420108318328857421875</LatitudeDegrees>
              <LongitudeDegrees>-2.0049339719116687774658203125</LongitudeDegrees>
            </Position>
            <AltitudeMeters>-4.599999904632568359375</AltitudeMeters>
            <DistanceMeters>NAN</DistanceMeters>
          </Trackpoint>
          <Trackpoint>
            <Time>2021-08-12T12:28:48.000Z</Time>
            <Position>
              <LatitudeDegrees>43.32050590775907039642333984375</LatitudeDegrees>
              <LongitudeDegrees>-2.00494193471968173980712890625</LongitudeDegrees>
            </Position>
            <AltitudeMeters>-4.80000019073486328125</AltitudeMeters>
            <DistanceMeters>NAN</DistanceMeters>
          </Trackpoint>
          <Trackpoint>
            <Time>2021-08-12T12:28:49.000Z</Time>
            <Position>
              <LatitudeDegrees>43.320489227771759033203125</LatitudeDegrees>
              <LongitudeDegrees>-2.00494394637644290924072265625</LongitudeDegrees>
            </Position>
            <AltitudeMeters>-4.80000019073486328125</AltitudeMeters>
            <DistanceMeters>NAN</DistanceMeters>
          </Trackpoint>
          <Trackpoint>
            <Time>2021-08-12T12:28:50.000Z</Time>
            <Position>
              <LatitudeDegrees>43.32047321833670139312744140625</LatitudeDegrees>
              <LongitudeDegrees>-2.004940174520015716552734375</LongitudeDegrees>
            </Position>
            <AltitudeMeters>-4.80000019073486328125</AltitudeMeters>
            <DistanceMeters>NAN</DistanceMeters>
          </Trackpoint>
          <Trackpoint>
            <Time>2021-08-12T12:28:51.000Z</Time>
            <Position>
              <LatitudeDegrees>43.32045695744454860687255859375</LatitudeDegrees>
              <LongitudeDegrees>-2.00493958778679370880126953125</LongitudeDegrees>
            </Position>
            <AltitudeMeters>-4.80000019073486328125</AltitudeMeters>
            <DistanceMeters>NAN</DistanceMeters>
          </Trackpoint>
          <Trackpoint>
            <Time>2021-08-12T12:28:52.000Z</Time>
            <Position>
              <LatitudeDegrees>43.32044404931366443634033203125</LatitudeDegrees>
              <LongitudeDegrees>-2.0049383305013179779052734375</LongitudeDegrees>
            </Position>
            <AltitudeMeters>-5</AltitudeMeters>
            <DistanceMeters>NAN</DistanceMeters>
          </Trackpoint>
          <Trackpoint>
            <Time>2021-08-12T12:28:53.000Z</Time>
            <Position>
              <LatitudeDegrees>43.32043130882084369659423828125</LatitudeDegrees>
              <LongitudeDegrees>-2.00493606738746166229248046875</LongitudeDegrees>
            </Position>
            <AltitudeMeters>-5</AltitudeMeters>
            <DistanceMeters>NAN</DistanceMeters>
          </Trackpoint>
          <Trackpoint>
            <Time>2021-08-12T12:28:54.000Z</Time>
            <Position>
              <LatitudeDegrees>43.32041756249964237213134765625</LatitudeDegrees>
              <LongitudeDegrees>-2.004935480654239654541015625</LongitudeDegrees>
            </Position>
            <AltitudeMeters>-5</AltitudeMeters>
            <DistanceMeters>NAN</DistanceMeters>
          </Trackpoint>
          <Trackpoint>
            <Time>2021-08-12T12:28:55.000Z</Time>
            <Position>
              <LatitudeDegrees>43.3204062469303607940673828125</LatitudeDegrees>
              <LongitudeDegrees>-2.0049338042736053466796875</LongitudeDegrees>
            </Position>
            <AltitudeMeters>-5</AltitudeMeters>
            <DistanceMeters>NAN</DistanceMeters>
          </Trackpoint>
          <Trackpoint>
            <Time>2021-08-12T12:28:56.000Z</Time>
            <Position>
              <LatitudeDegrees>43.32039593718945980072021484375</LatitudeDegrees>
              <LongitudeDegrees>-2.0049322955310344696044921875</LongitudeDegrees>
            </Position>
            <AltitudeMeters>-5.19999980926513671875</AltitudeMeters>
            <DistanceMeters>NAN</DistanceMeters>
          </Trackpoint>
          <Trackpoint>
            <Time>2021-08-12T12:28:57.000Z</Time>
            <Position>
              <LatitudeDegrees>43.32038487307727336883544921875</LatitudeDegrees>
              <LongitudeDegrees>-2.004926092922687530517578125</LongitudeDegrees>
            </Position>
            <AltitudeMeters>-5.19999980926513671875</AltitudeMeters>
            <DistanceMeters>NAN</DistanceMeters>
          </Trackpoint>
          <Trackpoint>
            <Time>2021-08-12T12:28:58.000Z</Time>
            <Position>
              <LatitudeDegrees>43.32037456333637237548828125</LatitudeDegrees>
              <LongitudeDegrees>-2.00492567382752895355224609375</LongitudeDegrees>
            </Position>
            <AltitudeMeters>-5.19999980926513671875</AltitudeMeters>
            <DistanceMeters>NAN</DistanceMeters>
          </Trackpoint>
          <Trackpoint>
            <Time>2021-08-12T12:28:59.000Z</Time>
            <Position>
              <LatitudeDegrees>43.32036961801350116729736328125</LatitudeDegrees>
              <LongitudeDegrees>-2.004929445683956146240234375</LongitudeDegrees>
            </Position>
            <AltitudeMeters>-5</AltitudeMeters>
            <DistanceMeters>NAN</DistanceMeters>
          </Trackpoint>
          <Trackpoint>
            <Time>2021-08-12T12:29:00.000Z</Time>
            <Position>
              <LatitudeDegrees>43.32036911509931087493896484375</LatitudeDegrees>
              <LongitudeDegrees>-2.0049311220645904541015625</LongitudeDegrees>
            </Position>
            <AltitudeMeters>-5</AltitudeMeters>
            <DistanceMeters>NAN</DistanceMeters>
          </Trackpoint>
          <Trackpoint>
            <Time>2021-08-12T12:29:11.000Z</Time>
            <Position>
              <LatitudeDegrees>43.32037246786057949066162109375</LatitudeDegrees>
              <LongitudeDegrees>-2.00491813011467456817626953125</LongitudeDegrees>
            </Position>
            <AltitudeMeters>-4.80000019073486328125</AltitudeMeters>
            <DistanceMeters>NAN</DistanceMeters>
          </Trackpoint>
          <Trackpoint>
            <Time>2021-08-12T12:29:18.000Z</Time>
            <Position>
              <LatitudeDegrees>43.320357464253902435302734375</LatitudeDegrees>
              <LongitudeDegrees>-2.004842944443225860595703125</LongitudeDegrees>
            </Position>
            <AltitudeMeters>-4.599999904632568359375</AltitudeMeters>
            <DistanceMeters>NAN</DistanceMeters>
          </Trackpoint>
          <Trackpoint>
            <Time>2021-08-12T12:29:20.000Z</Time>
            <Position>
              <LatitudeDegrees>43.32033692859113216400146484375</LatitudeDegrees>
              <LongitudeDegrees>-2.00482048094272613525390625</LongitudeDegrees>
            </Position>
            <AltitudeMeters>-4.599999904632568359375</AltitudeMeters>
            <DistanceMeters>NAN</DistanceMeters>
          </Trackpoint>
          <Trackpoint>
            <Time>2021-08-12T12:29:21.000Z</Time>
            <Position>
              <LatitudeDegrees>43.320328630506992340087890625</LatitudeDegrees>
              <LongitudeDegrees>-2.0048152841627597808837890625</LongitudeDegrees>
            </Position>
            <AltitudeMeters>-4.599999904632568359375</AltitudeMeters>
            <DistanceMeters>NAN</DistanceMeters>
          </Trackpoint>
          <Trackpoint>
            <Time>2021-08-12T12:29:22.000Z</Time>
            <Position>
              <LatitudeDegrees>43.32032435573637485504150390625</LatitudeDegrees>
              <LongitudeDegrees>-2.004812769591808319091796875</LongitudeDegrees>
            </Position>
            <AltitudeMeters>-4.599999904632568359375</AltitudeMeters>
            <DistanceMeters>NAN</DistanceMeters>
          </Trackpoint>
          <Trackpoint>
            <Time>2021-08-12T12:29:23.000Z</Time>
            <Position>
              <LatitudeDegrees>43.32032569684088230133056640625</LatitudeDegrees>
              <LongitudeDegrees>-2.00480447150766849517822265625</LongitudeDegrees>
            </Position>
            <AltitudeMeters>-4.80000019073486328125</AltitudeMeters>
            <DistanceMeters>NAN</DistanceMeters>
          </Trackpoint>
          <Trackpoint>
            <Time>2021-08-12T12:29:36.000Z</Time>
            <Position>
              <LatitudeDegrees>43.3203321509063243865966796875</LatitudeDegrees>
              <LongitudeDegrees>-2.00480706989765167236328125</LongitudeDegrees>
            </Position>
            <AltitudeMeters>-4.80000019073486328125</AltitudeMeters>
            <DistanceMeters>NAN</DistanceMeters>
          </Trackpoint>
          <Trackpoint>
            <Time>2021-08-12T12:29:47.000Z</Time>
            <Position>
              <LatitudeDegrees>43.3203321509063243865966796875</LatitudeDegrees>
              <LongitudeDegrees>-2.00480706989765167236328125</LongitudeDegrees>
            </Position>
            <AltitudeMeters>-4.599999904632568359375</AltitudeMeters>
            <DistanceMeters>NAN</DistanceMeters>
          </Trackpoint>
          <Trackpoint>
            <Time>2021-08-12T12:29:49.000Z</Time>
            <Position>
              <LatitudeDegrees>43.32031882368028163909912109375</LatitudeDegrees>
              <LongitudeDegrees>-2.004813440144062042236328125</LongitudeDegrees>
            </Position>
            <AltitudeMeters>-4.599999904632568359375</AltitudeMeters>
            <DistanceMeters>NAN</DistanceMeters>
          </Trackpoint>
          <Trackpoint>
            <Time>2021-08-12T12:29:51.000Z</Time>
            <Position>
              <LatitudeDegrees>43.32029367797076702117919921875</LatitudeDegrees>
              <LongitudeDegrees>-2.004826851189136505126953125</LongitudeDegrees>
            </Position>
            <AltitudeMeters>-4.599999904632568359375</AltitudeMeters>
            <DistanceMeters>NAN</DistanceMeters>
          </Trackpoint>
          <Trackpoint>
            <Time>2021-08-12T12:29:56.000Z</Time>
            <Position>
              <LatitudeDegrees>43.32018923945724964141845703125</LatitudeDegrees>
              <LongitudeDegrees>-2.00482106767594814300537109375</LongitudeDegrees>
            </Position>
            <AltitudeMeters>-4.400000095367431640625</AltitudeMeters>
            <DistanceMeters>NAN</DistanceMeters>
          </Trackpoint>
          <Trackpoint>
            <Time>2021-08-12T12:30:03.000Z</Time>
            <Position>
              <LatitudeDegrees>43.32005278207361698150634765625</LatitudeDegrees>
              <LongitudeDegrees>-2.00478720478713512420654296875</LongitudeDegrees>
            </Position>
            <AltitudeMeters>-4.400000095367431640625</AltitudeMeters>
            <DistanceMeters>NAN</DistanceMeters>
          </Trackpoint>
          <Trackpoint>
            <Time>2021-08-12T12:30:04.000Z</Time>
            <Position>
              <LatitudeDegrees>43.32003149203956127166748046875</LatitudeDegrees>
              <LongitudeDegrees>-2.004782259464263916015625</LongitudeDegrees>
            </Position>
            <AltitudeMeters>-4.400000095367431640625</AltitudeMeters>
            <DistanceMeters>NAN</DistanceMeters>
          </Trackpoint>
          <Trackpoint>
            <Time>2021-08-12T12:30:10.000Z</Time>
            <Position>
              <LatitudeDegrees>43.31991724669933319091796875</LatitudeDegrees>
              <LongitudeDegrees>-2.0047723688185214996337890625</LongitudeDegrees>
            </Position>
            <AltitudeMeters>-4.19999980926513671875</AltitudeMeters>
            <DistanceMeters>NAN</DistanceMeters>
          </Trackpoint>
          <Trackpoint>
            <Time>2021-08-12T12:30:11.000Z</Time>
            <Position>
              <LatitudeDegrees>43.3198969624936580657958984375</LatitudeDegrees>
              <LongitudeDegrees>-2.004769854247570037841796875</LongitudeDegrees>
            </Position>
            <AltitudeMeters>-4.19999980926513671875</AltitudeMeters>
            <DistanceMeters>NAN</DistanceMeters>
          </Trackpoint>
          <Trackpoint>
            <Time>2021-08-12T12:30:12.000Z</Time>
            <Position>
              <LatitudeDegrees>43.31988036632537841796875</LatitudeDegrees>
              <LongitudeDegrees>-2.00476549565792083740234375</LongitudeDegrees>
            </Position>
            <AltitudeMeters>-4.19999980926513671875</AltitudeMeters>
            <DistanceMeters>NAN</DistanceMeters>
          </Trackpoint>
          <Trackpoint>
            <Time>2021-08-12T12:30:13.000Z</Time>
            <Position>
              <LatitudeDegrees>43.319866955280303955078125</LatitudeDegrees>
              <LongitudeDegrees>-2.0047613047063350677490234375</LongitudeDegrees>
            </Position>
            <AltitudeMeters>-4.19999980926513671875</AltitudeMeters>
            <DistanceMeters>NAN</DistanceMeters>
          </Trackpoint>
          <Trackpoint>
            <Time>2021-08-12T12:30:14.000Z</Time>
            <Position>
              <LatitudeDegrees>43.3198527060449123382568359375</LatitudeDegrees>
              <LongitudeDegrees>-2.00476423837244510650634765625</LongitudeDegrees>
            </Position>
            <AltitudeMeters>-4.19999980926513671875</AltitudeMeters>
            <DistanceMeters>NAN</DistanceMeters>
          </Trackpoint>
          <Trackpoint>
            <Time>2021-08-12T12:30:15.000Z</Time>
            <Position>
              <LatitudeDegrees>43.3198396302759647369384765625</LatitudeDegrees>
              <LongitudeDegrees>-2.0047710277140140533447265625</LongitudeDegrees>
            </Position>
            <AltitudeMeters>-4.19999980926513671875</AltitudeMeters>
            <DistanceMeters>NAN</DistanceMeters>
          </Trackpoint>
          <Trackpoint>
            <Time>2021-08-12T12:30:16.000Z</Time>
            <Position>
              <LatitudeDegrees>43.31982211209833621978759765625</LatitudeDegrees>
              <LongitudeDegrees>-2.0047753863036632537841796875</LongitudeDegrees>
            </Position>
            <AltitudeMeters>-4.19999980926513671875</AltitudeMeters>
            <DistanceMeters>NAN</DistanceMeters>
          </Trackpoint>
          <Trackpoint>
            <Time>2021-08-12T12:30:17.000Z</Time>
            <Position>
              <LatitudeDegrees>43.31980417482554912567138671875</LatitudeDegrees>
              <LongitudeDegrees>-2.0047767274081707000732421875</LongitudeDegrees>
            </Position>
            <AltitudeMeters>-4.19999980926513671875</AltitudeMeters>
            <DistanceMeters>NAN</DistanceMeters>
          </Trackpoint>
          <Trackpoint>
            <Time>2021-08-12T12:30:21.000Z</Time>
            <Position>
              <LatitudeDegrees>43.31972278654575347900390625</LatitudeDegrees>
              <LongitudeDegrees>-2.00478200800716876983642578125</LongitudeDegrees>
            </Position>
            <AltitudeMeters>-4</AltitudeMeters>
            <DistanceMeters>NAN</DistanceMeters>
          </Trackpoint>
          <Trackpoint>
            <Time>2021-08-12T12:30:27.000Z</Time>
            <Position>
              <LatitudeDegrees>43.31957316957414150238037109375</LatitudeDegrees>
              <LongitudeDegrees>-2.00487437658011913299560546875</LongitudeDegrees>
            </Position>
            <AltitudeMeters>-3.7999999523162841796875</AltitudeMeters>
            <DistanceMeters>NAN</DistanceMeters>
          </Trackpoint>
          <Trackpoint>
            <Time>2021-08-12T12:30:28.000Z</Time>
            <Position>
              <LatitudeDegrees>43.31954534165561199188232421875</LatitudeDegrees>
              <LongitudeDegrees>-2.00488728471100330352783203125</LongitudeDegrees>
            </Position>
            <AltitudeMeters>-3.7999999523162841796875</AltitudeMeters>
            <DistanceMeters>NAN</DistanceMeters>
          </Trackpoint>
          <Trackpoint>
            <Time>2021-08-12T12:30:34.000Z</Time>
            <Position>
              <LatitudeDegrees>43.3193564973771572113037109375</LatitudeDegrees>
              <LongitudeDegrees>-2.00494394637644290924072265625</LongitudeDegrees>
            </Position>
            <AltitudeMeters>-4</AltitudeMeters>
            <DistanceMeters>NAN</DistanceMeters>
          </Trackpoint>
          <Trackpoint>
            <Time>2021-08-12T12:30:42.000Z</Time>
            <Position>
              <LatitudeDegrees>43.319043181836605072021484375</LatitudeDegrees>
              <LongitudeDegrees>-2.00501167215406894683837890625</LongitudeDegrees>
            </Position>
            <AltitudeMeters>-4</AltitudeMeters>
            <DistanceMeters>NAN</DistanceMeters>
          </Trackpoint>
          <Trackpoint>
            <Time>2021-08-12T12:30:47.000Z</Time>
            <Position>
              <LatitudeDegrees>43.318864814937114715576171875</LatitudeDegrees>
              <LongitudeDegrees>-2.005053497850894927978515625</LongitudeDegrees>
            </Position>
            <AltitudeMeters>-4</AltitudeMeters>
            <DistanceMeters>NAN</DistanceMeters>
          </Trackpoint>
          <Trackpoint>
            <Time>2021-08-12T12:30:48.000Z</Time>
            <Position>
              <LatitudeDegrees>43.31882868893444538116455078125</LatitudeDegrees>
              <LongitudeDegrees>-2.0050623826682567596435546875</LongitudeDegrees>
            </Position>
            <AltitudeMeters>-4</AltitudeMeters>
            <DistanceMeters>NAN</DistanceMeters>
          </Trackpoint>
          <Trackpoint>
            <Time>2021-08-12T12:30:49.000Z</Time>
            <Position>
              <LatitudeDegrees>43.31879281438887119293212890625</LatitudeDegrees>
              <LongitudeDegrees>-2.005071938037872314453125</LongitudeDegrees>
            </Position>
            <AltitudeMeters>-4</AltitudeMeters>
            <DistanceMeters>NAN</DistanceMeters>
          </Trackpoint>
          <Trackpoint>
            <Time>2021-08-12T12:30:50.000Z</Time>
            <Position>
              <LatitudeDegrees>43.31876121461391448974609375</LatitudeDegrees>
              <LongitudeDegrees>-2.0050804875791072845458984375</LongitudeDegrees>
            </Position>
            <AltitudeMeters>-4</AltitudeMeters>
            <DistanceMeters>NAN</DistanceMeters>
          </Trackpoint>
          <Trackpoint>
            <Time>2021-08-12T12:30:51.000Z</Time>
            <Position>
              <LatitudeDegrees>43.31872961483895778656005859375</LatitudeDegrees>
              <LongitudeDegrees>-2.0050892047584056854248046875</LongitudeDegrees>
            </Position>
            <AltitudeMeters>-4</AltitudeMeters>
            <DistanceMeters>NAN</DistanceMeters>
          </Trackpoint>
          <Trackpoint>
            <Time>2021-08-12T12:30:52.000Z</Time>
            <Position>
              <LatitudeDegrees>43.31869726069271564483642578125</LatitudeDegrees>
              <LongitudeDegrees>-2.0050989277660846710205078125</LongitudeDegrees>
            </Position>
            <AltitudeMeters>-4</AltitudeMeters>
            <DistanceMeters>NAN</DistanceMeters>
          </Trackpoint>
          <Trackpoint>
            <Time>2021-08-12T12:30:53.000Z</Time>
            <Position>
              <LatitudeDegrees>43.31866675056517124176025390625</LatitudeDegrees>
              <LongitudeDegrees>-2.00510613620281219482421875</LongitudeDegrees>
            </Position>
            <AltitudeMeters>-4</AltitudeMeters>
            <DistanceMeters>NAN</DistanceMeters>
          </Trackpoint>
          <Trackpoint>
            <Time>2021-08-12T12:30:54.000Z</Time>
            <Position>
              <LatitudeDegrees>43.3186376653611660003662109375</LatitudeDegrees>
              <LongitudeDegrees>-2.0051123388111591339111328125</LongitudeDegrees>
            </Position>
            <AltitudeMeters>-4</AltitudeMeters>
            <DistanceMeters>NAN</DistanceMeters>
          </Trackpoint>
          <Trackpoint>
            <Time>2021-08-12T12:30:55.000Z</Time>
            <Position>
              <LatitudeDegrees>43.31860841251909732818603515625</LatitudeDegrees>
              <LongitudeDegrees>-2.0051197148859500885009765625</LongitudeDegrees>
            </Position>
            <AltitudeMeters>-4</AltitudeMeters>
            <DistanceMeters>NAN</DistanceMeters>
          </Trackpoint>
          <Trackpoint>
            <Time>2021-08-12T12:30:56.000Z</Time>
            <Position>
              <LatitudeDegrees>43.31857857294380664825439453125</LatitudeDegrees>
              <LongitudeDegrees>-2.005130611360073089599609375</LongitudeDegrees>
            </Position>
            <AltitudeMeters>-4</AltitudeMeters>
            <DistanceMeters>NAN</DistanceMeters>
          </Trackpoint>
          <Trackpoint>
            <Time>2021-08-12T12:30:57.000Z</Time>
            <Position>
              <LatitudeDegrees>43.31854739226400852203369140625</LatitudeDegrees>
              <LongitudeDegrees>-2.005138657987117767333984375</LongitudeDegrees>
            </Position>
            <AltitudeMeters>-4</AltitudeMeters>
            <DistanceMeters>NAN</DistanceMeters>
          </Trackpoint>
          <Trackpoint>
            <Time>2021-08-12T12:30:58.000Z</Time>
            <Position>
              <LatitudeDegrees>43.31851579248905181884765625</LatitudeDegrees>
              <LongitudeDegrees>-2.00514628551900386810302734375</LongitudeDegrees>
            </Position>
            <AltitudeMeters>-4</AltitudeMeters>
            <DistanceMeters>NAN</DistanceMeters>
          </Trackpoint>
          <Trackpoint>
            <Time>2021-08-12T12:30:59.000Z</Time>
            <Position>
              <LatitudeDegrees>43.31848628818988800048828125</LatitudeDegrees>
              <LongitudeDegrees>-2.0051589421927928924560546875</LongitudeDegrees>
            </Position>
            <AltitudeMeters>-4</AltitudeMeters>
            <DistanceMeters>NAN</DistanceMeters>
          </Trackpoint>
          <Trackpoint>
            <Time>2021-08-12T12:31:00.000Z</Time>
            <Position>
              <LatitudeDegrees>43.31845770590007305145263671875</LatitudeDegrees>
              <LongitudeDegrees>-2.00516791082918643951416015625</LongitudeDegrees>
            </Position>
            <AltitudeMeters>-3.7999999523162841796875</AltitudeMeters>
            <DistanceMeters>NAN</DistanceMeters>
          </Trackpoint>
          <Trackpoint>
            <Time>2021-08-12T12:31:01.000Z</Time>
            <Position>
              <LatitudeDegrees>43.31843390129506587982177734375</LatitudeDegrees>
              <LongitudeDegrees>-2.005174867808818817138671875</LongitudeDegrees>
            </Position>
            <AltitudeMeters>-3.7999999523162841796875</AltitudeMeters>
            <DistanceMeters>NAN</DistanceMeters>
          </Trackpoint>
          <Trackpoint>
            <Time>2021-08-12T12:31:02.000Z</Time>
            <Position>
              <LatitudeDegrees>43.31840825267136096954345703125</LatitudeDegrees>
              <LongitudeDegrees>-2.0051824115216732025146484375</LongitudeDegrees>
            </Position>
            <AltitudeMeters>-3.7999999523162841796875</AltitudeMeters>
            <DistanceMeters>NAN</DistanceMeters>
          </Trackpoint>
          <Trackpoint>
            <Time>2021-08-12T12:31:03.000Z</Time>
            <Position>
              <LatitudeDegrees>43.3183823525905609130859375</LatitudeDegrees>
              <LongitudeDegrees>-2.00518752448260784149169921875</LongitudeDegrees>
            </Position>
            <AltitudeMeters>-3.7999999523162841796875</AltitudeMeters>
            <DistanceMeters>NAN</DistanceMeters>
          </Trackpoint>
          <Trackpoint>
            <Time>2021-08-12T12:31:04.000Z</Time>
            <Position>
              <LatitudeDegrees>43.31835544668138027191162109375</LatitudeDegrees>
              <LongitudeDegrees>-2.00519523583352565765380859375</LongitudeDegrees>
            </Position>
            <AltitudeMeters>-4</AltitudeMeters>
            <DistanceMeters>NAN</DistanceMeters>
          </Trackpoint>
          <Trackpoint>
            <Time>2021-08-12T12:31:05.000Z</Time>
            <Position>
              <LatitudeDegrees>43.31832795403897762298583984375</LatitudeDegrees>
              <LongitudeDegrees>-2.00520227663218975067138671875</LongitudeDegrees>
            </Position>
            <AltitudeMeters>-4</AltitudeMeters>
            <DistanceMeters>NAN</DistanceMeters>
          </Trackpoint>
          <Trackpoint>
            <Time>2021-08-12T12:31:06.000Z</Time>
            <Position>
              <LatitudeDegrees>43.3182966895401477813720703125</LatitudeDegrees>
              <LongitudeDegrees>-2.00521015562117099761962890625</LongitudeDegrees>
            </Position>
            <AltitudeMeters>-4</AltitudeMeters>
            <DistanceMeters>NAN</DistanceMeters>
          </Trackpoint>
          <Trackpoint>
            <Time>2021-08-12T12:31:07.000Z</Time>
            <Position>
              <LatitudeDegrees>43.3182631619274616241455078125</LatitudeDegrees>
              <LongitudeDegrees>-2.0052176155149936676025390625</LongitudeDegrees>
            </Position>
            <AltitudeMeters>-4</AltitudeMeters>
            <DistanceMeters>NAN</DistanceMeters>
          </Trackpoint>
          <Trackpoint>
            <Time>2021-08-12T12:31:08.000Z</Time>
            <Position>
              <LatitudeDegrees>43.3182319812476634979248046875</LatitudeDegrees>
              <LongitudeDegrees>-2.0052233152091503143310546875</LongitudeDegrees>
            </Position>
            <AltitudeMeters>-4</AltitudeMeters>
            <DistanceMeters>NAN</DistanceMeters>
          </Trackpoint>
          <Trackpoint>
            <Time>2021-08-12T12:31:15.000Z</Time>
            <Position>
              <LatitudeDegrees>43.3180113695561885833740234375</LatitudeDegrees>
              <LongitudeDegrees>-2.0052598603069782257080078125</LongitudeDegrees>
            </Position>
            <AltitudeMeters>-4.19999980926513671875</AltitudeMeters>
            <DistanceMeters>NAN</DistanceMeters>
          </Trackpoint>
          <Trackpoint>
            <Time>2021-08-12T12:31:22.000Z</Time>
            <Position>
              <LatitudeDegrees>43.31775262020528316497802734375</LatitudeDegrees>
              <LongitudeDegrees>-2.00524695217609405517578125</LongitudeDegrees>
            </Position>
            <AltitudeMeters>-4.400000095367431640625</AltitudeMeters>
            <DistanceMeters>NAN</DistanceMeters>
          </Trackpoint>
          <Trackpoint>
            <Time>2021-08-12T12:31:26.000Z</Time>
            <Position>
              <LatitudeDegrees>43.31758229993283748626708984375</LatitudeDegrees>
              <LongitudeDegrees>-2.005235217511653900146484375</LongitudeDegrees>
            </Position>
            <AltitudeMeters>-4.400000095367431640625</AltitudeMeters>
            <DistanceMeters>NAN</DistanceMeters>
          </Trackpoint>
          <Trackpoint>
            <Time>2021-08-12T12:31:27.000Z</Time>
            <Position>
              <LatitudeDegrees>43.3175453357398509979248046875</LatitudeDegrees>
              <LongitudeDegrees>-2.0052234828472137451171875</LongitudeDegrees>
            </Position>
            <AltitudeMeters>-4.400000095367431640625</AltitudeMeters>
            <DistanceMeters>NAN</DistanceMeters>
          </Trackpoint>
          <Trackpoint>
            <Time>2021-08-12T12:31:28.000Z</Time>
            <Position>
              <LatitudeDegrees>43.31750803627073764801025390625</LatitudeDegrees>
              <LongitudeDegrees>-2.00521132908761501312255859375</LongitudeDegrees>
            </Position>
            <AltitudeMeters>-4.400000095367431640625</AltitudeMeters>
            <DistanceMeters>NAN</DistanceMeters>
          </Trackpoint>
          <Trackpoint>
            <Time>2021-08-12T12:31:29.000Z</Time>
            <Position>
              <LatitudeDegrees>43.31747241318225860595703125</LatitudeDegrees>
              <LongitudeDegrees>-2.00519909150898456573486328125</LongitudeDegrees>
            </Position>
            <AltitudeMeters>-4.400000095367431640625</AltitudeMeters>
            <DistanceMeters>NAN</DistanceMeters>
          </Trackpoint>
          <Trackpoint>
            <Time>2021-08-12T12:31:32.000Z</Time>
            <Position>
              <LatitudeDegrees>43.31736939959228038787841796875</LatitudeDegrees>
              <LongitudeDegrees>-2.0051659829914569854736328125</LongitudeDegrees>
            </Position>
            <AltitudeMeters>-4.400000095367431640625</AltitudeMeters>
            <DistanceMeters>NAN</DistanceMeters>
          </Trackpoint>
          <Trackpoint>
            <Time>2021-08-12T12:31:33.000Z</Time>
            <Position>
              <LatitudeDegrees>43.3173354528844356536865234375</LatitudeDegrees>
              <LongitudeDegrees>-2.00515969656407833099365234375</LongitudeDegrees>
            </Position>
            <AltitudeMeters>-4.400000095367431640625</AltitudeMeters>
            <DistanceMeters>NAN</DistanceMeters>
          </Trackpoint>
          <Trackpoint>
            <Time>2021-08-12T12:31:34.000Z</Time>
            <Position>
              <LatitudeDegrees>43.3173012547194957733154296875</LatitudeDegrees>
              <LongitudeDegrees>-2.00514997355639934539794921875</LongitudeDegrees>
            </Position>
            <AltitudeMeters>-4.400000095367431640625</AltitudeMeters>
            <DistanceMeters>NAN</DistanceMeters>
          </Trackpoint>
          <Trackpoint>
            <Time>2021-08-12T12:31:35.000Z</Time>
            <Position>
              <LatitudeDegrees>43.3172697387635707855224609375</LatitudeDegrees>
              <LongitudeDegrees>-2.0051364786922931671142578125</LongitudeDegrees>
            </Position>
            <AltitudeMeters>-4.400000095367431640625</AltitudeMeters>
            <DistanceMeters>NAN</DistanceMeters>
          </Trackpoint>
          <Trackpoint>
            <Time>2021-08-12T12:31:36.000Z</Time>
            <Position>
              <LatitudeDegrees>43.31723830662667751312255859375</LatitudeDegrees>
              <LongitudeDegrees>-2.0051187090575695037841796875</LongitudeDegrees>
            </Position>
            <AltitudeMeters>-4.400000095367431640625</AltitudeMeters>
            <DistanceMeters>NAN</DistanceMeters>
          </Trackpoint>
          <Trackpoint>
            <Time>2021-08-12T12:31:37.000Z</Time>
            <Position>
              <LatitudeDegrees>43.31720930524170398712158203125</LatitudeDegrees>
              <LongitudeDegrees>-2.00509540736675262451171875</LongitudeDegrees>
            </Position>
            <AltitudeMeters>-4.400000095367431640625</AltitudeMeters>
            <DistanceMeters>NAN</DistanceMeters>
          </Trackpoint>
          <Trackpoint>
            <Time>2021-08-12T12:31:38.000Z</Time>
            <Position>
              <LatitudeDegrees>43.317179046571254730224609375</LatitudeDegrees>
              <LongitudeDegrees>-2.0050788111984729766845703125</LongitudeDegrees>
            </Position>
            <AltitudeMeters>-4.400000095367431640625</AltitudeMeters>
            <DistanceMeters>NAN</DistanceMeters>
          </Trackpoint>
          <Trackpoint>
            <Time>2021-08-12T12:31:39.000Z</Time>
            <Position>
              <LatitudeDegrees>43.3171533979475498199462890625</LatitudeDegrees>
              <LongitudeDegrees>-2.00505542568862438201904296875</LongitudeDegrees>
            </Position>
            <AltitudeMeters>-4.400000095367431640625</AltitudeMeters>
            <DistanceMeters>NAN</DistanceMeters>
          </Trackpoint>
          <Trackpoint>
            <Time>2021-08-12T12:31:40.000Z</Time>
            <Position>
              <LatitudeDegrees>43.31712774932384490966796875</LatitudeDegrees>
              <LongitudeDegrees>-2.00503715313971042633056640625</LongitudeDegrees>
            </Position>
            <AltitudeMeters>-4.400000095367431640625</AltitudeMeters>
            <DistanceMeters>NAN</DistanceMeters>
          </Trackpoint>
          <Trackpoint>
            <Time>2021-08-12T12:31:41.000Z</Time>
            <Position>
              <LatitudeDegrees>43.317099250853061676025390625</LatitudeDegrees>
              <LongitudeDegrees>-2.00501770712435245513916015625</LongitudeDegrees>
            </Position>
            <AltitudeMeters>-4.400000095367431640625</AltitudeMeters>
            <DistanceMeters>NAN</DistanceMeters>
          </Trackpoint>
          <Trackpoint>
            <Time>2021-08-12T12:31:42.000Z</Time>
            <Position>
              <LatitudeDegrees>43.3170675672590732574462890625</LatitudeDegrees>
              <LongitudeDegrees>-2.00499792583286762237548828125</LongitudeDegrees>
            </Position>
            <AltitudeMeters>-4.599999904632568359375</AltitudeMeters>
            <DistanceMeters>NAN</DistanceMeters>
          </Trackpoint>
          <Trackpoint>
            <Time>2021-08-12T12:31:45.000Z</Time>
            <Position>
              <LatitudeDegrees>43.31696757115423679351806640625</LatitudeDegrees>
              <LongitudeDegrees>-2.00494025833904743194580078125</LongitudeDegrees>
            </Position>
            <AltitudeMeters>-4.400000095367431640625</AltitudeMeters>
            <DistanceMeters>NAN</DistanceMeters>
          </Trackpoint>
          <Trackpoint>
            <Time>2021-08-12T12:31:47.000Z</Time>
            <Position>
              <LatitudeDegrees>43.316907472908496856689453125</LatitudeDegrees>
              <LongitudeDegrees>-2.00490094721317291259765625</LongitudeDegrees>
            </Position>
            <AltitudeMeters>-4.400000095367431640625</AltitudeMeters>
            <DistanceMeters>NAN</DistanceMeters>
          </Trackpoint>
          <Trackpoint>
            <Time>2021-08-12T12:31:48.000Z</Time>
            <Position>
              <LatitudeDegrees>43.316883333027362823486328125</LatitudeDegrees>
              <LongitudeDegrees>-2.004876472055912017822265625</LongitudeDegrees>
            </Position>
            <AltitudeMeters>-4.400000095367431640625</AltitudeMeters>
            <DistanceMeters>NAN</DistanceMeters>
          </Trackpoint>
          <Trackpoint>
            <Time>2021-08-12T12:31:49.000Z</Time>
            <Position>
              <LatitudeDegrees>43.31685776822268962860107421875</LatitudeDegrees>
              <LongitudeDegrees>-2.00485677458345890045166015625</LongitudeDegrees>
            </Position>
            <AltitudeMeters>-4.400000095367431640625</AltitudeMeters>
            <DistanceMeters>NAN</DistanceMeters>
          </Trackpoint>
          <Trackpoint>
            <Time>2021-08-12T12:31:51.000Z</Time>
            <Position>
              <LatitudeDegrees>43.31681015901267528533935546875</LatitudeDegrees>
              <LongitudeDegrees>-2.00481235049664974212646484375</LongitudeDegrees>
            </Position>
            <AltitudeMeters>-4.400000095367431640625</AltitudeMeters>
            <DistanceMeters>NAN</DistanceMeters>
          </Trackpoint>
          <Trackpoint>
            <Time>2021-08-12T12:31:52.000Z</Time>
            <Position>
              <LatitudeDegrees>43.31678953953087329864501953125</LatitudeDegrees>
              <LongitudeDegrees>-2.00478963553905487060546875</LongitudeDegrees>
            </Position>
            <AltitudeMeters>-4.400000095367431640625</AltitudeMeters>
            <DistanceMeters>NAN</DistanceMeters>
          </Trackpoint>
          <Trackpoint>
            <Time>2021-08-12T12:31:53.000Z</Time>
            <Position>
              <LatitudeDegrees>43.31676900386810302734375</LatitudeDegrees>
              <LongitudeDegrees>-2.00476817786693572998046875</LongitudeDegrees>
            </Position>
            <AltitudeMeters>-4.400000095367431640625</AltitudeMeters>
            <DistanceMeters>NAN</DistanceMeters>
          </Trackpoint>
          <Trackpoint>
            <Time>2021-08-12T12:31:54.000Z</Time>
            <Position>
              <LatitudeDegrees>43.31674779765307903289794921875</LatitudeDegrees>
              <LongitudeDegrees>-2.00474512763321399688720703125</LongitudeDegrees>
            </Position>
            <AltitudeMeters>-4.400000095367431640625</AltitudeMeters>
            <DistanceMeters>NAN</DistanceMeters>
          </Trackpoint>
          <Trackpoint>
            <Time>2021-08-12T12:31:55.000Z</Time>
            <Position>
              <LatitudeDegrees>43.31672768108546733856201171875</LatitudeDegrees>
              <LongitudeDegrees>-2.00472417287528514862060546875</LongitudeDegrees>
            </Position>
            <AltitudeMeters>-4.400000095367431640625</AltitudeMeters>
            <DistanceMeters>NAN</DistanceMeters>
          </Trackpoint>
          <Trackpoint>
            <Time>2021-08-12T12:31:56.000Z</Time>
            <Position>
              <LatitudeDegrees>43.31670488230884075164794921875</LatitudeDegrees>
              <LongitudeDegrees>-2.004697434604167938232421875</LongitudeDegrees>
            </Position>
            <AltitudeMeters>-4.400000095367431640625</AltitudeMeters>
            <DistanceMeters>NAN</DistanceMeters>
          </Trackpoint>
          <Trackpoint>
            <Time>2021-08-12T12:31:57.000Z</Time>
            <Position>
              <LatitudeDegrees>43.31667839549481868743896484375</LatitudeDegrees>
              <LongitudeDegrees>-2.0046707801520824432373046875</LongitudeDegrees>
            </Position>
            <AltitudeMeters>-4.400000095367431640625</AltitudeMeters>
            <DistanceMeters>NAN</DistanceMeters>
          </Trackpoint>
          <Trackpoint>
            <Time>2021-08-12T12:31:58.000Z</Time>
            <Position>
              <LatitudeDegrees>43.3166571892797946929931640625</LatitudeDegrees>
              <LongitudeDegrees>-2.00463918037712574005126953125</LongitudeDegrees>
            </Position>
            <AltitudeMeters>-4.400000095367431640625</AltitudeMeters>
            <DistanceMeters>NAN</DistanceMeters>
          </Trackpoint>
          <Trackpoint>
            <Time>2021-08-12T12:32:01.000Z</Time>
            <Position>
              <LatitudeDegrees>43.31660245545208454132080078125</LatitudeDegrees>
              <LongitudeDegrees>-2.00453256256878376007080078125</LongitudeDegrees>
            </Position>
            <AltitudeMeters>-4.400000095367431640625</AltitudeMeters>
            <DistanceMeters>NAN</DistanceMeters>
          </Trackpoint>
          <Trackpoint>
            <Time>2021-08-12T12:32:06.000Z</Time>
            <Position>
              <LatitudeDegrees>43.31647655926644802093505859375</LatitudeDegrees>
              <LongitudeDegrees>-2.00435645878314971923828125</LongitudeDegrees>
            </Position>
            <AltitudeMeters>-4</AltitudeMeters>
            <DistanceMeters>NAN</DistanceMeters>
          </Trackpoint>
          <Trackpoint>
            <Time>2021-08-12T12:32:10.000Z</Time>
            <Position>
              <LatitudeDegrees>43.31640162505209445953369140625</LatitudeDegrees>
              <LongitudeDegrees>-2.00413341633975505828857421875</LongitudeDegrees>
            </Position>
            <AltitudeMeters>-4</AltitudeMeters>
            <DistanceMeters>NAN</DistanceMeters>
          </Trackpoint>
          <Trackpoint>
            <Time>2021-08-12T12:32:11.000Z</Time>
            <Position>
              <LatitudeDegrees>43.31638821400701999664306640625</LatitudeDegrees>
              <LongitudeDegrees>-2.00408128090202808380126953125</LongitudeDegrees>
            </Position>
            <AltitudeMeters>-4</AltitudeMeters>
            <DistanceMeters>NAN</DistanceMeters>
          </Trackpoint>
          <Trackpoint>
            <Time>2021-08-12T12:32:12.000Z</Time>
            <Position>
              <LatitudeDegrees>43.31637631170451641082763671875</LatitudeDegrees>
              <LongitudeDegrees>-2.00402981601655483245849609375</LongitudeDegrees>
            </Position>
            <AltitudeMeters>-4</AltitudeMeters>
            <DistanceMeters>NAN</DistanceMeters>
          </Trackpoint>
          <Trackpoint>
            <Time>2021-08-12T12:32:13.000Z</Time>
            <Position>
              <LatitudeDegrees>43.31636407412588596343994140625</LatitudeDegrees>
              <LongitudeDegrees>-2.003976590931415557861328125</LongitudeDegrees>
            </Position>
            <AltitudeMeters>-4</AltitudeMeters>
            <DistanceMeters>NAN</DistanceMeters>
          </Trackpoint>
          <Trackpoint>
            <Time>2021-08-12T12:32:16.000Z</Time>
            <Position>
              <LatitudeDegrees>43.31632015295326709747314453125</LatitudeDegrees>
              <LongitudeDegrees>-2.00383342802524566650390625</LongitudeDegrees>
            </Position>
            <AltitudeMeters>-4</AltitudeMeters>
            <DistanceMeters>NAN</DistanceMeters>
          </Trackpoint>
          <Trackpoint>
            <Time>2021-08-12T12:32:17.000Z</Time>
            <Position>
              <LatitudeDegrees>43.3163061551749706268310546875</LatitudeDegrees>
              <LongitudeDegrees>-2.003790847957134246826171875</LongitudeDegrees>
            </Position>
            <AltitudeMeters>-4.19999980926513671875</AltitudeMeters>
            <DistanceMeters>NAN</DistanceMeters>
          </Trackpoint>
          <Trackpoint>
            <Time>2021-08-12T12:32:18.000Z</Time>
            <Position>
              <LatitudeDegrees>43.3162920735776424407958984375</LatitudeDegrees>
              <LongitudeDegrees>-2.00374835170805454254150390625</LongitudeDegrees>
            </Position>
            <AltitudeMeters>-4.19999980926513671875</AltitudeMeters>
            <DistanceMeters>NAN</DistanceMeters>
          </Trackpoint>
          <Trackpoint>
            <Time>2021-08-12T12:32:19.000Z</Time>
            <Position>
              <LatitudeDegrees>43.31627824343740940093994140625</LatitudeDegrees>
              <LongitudeDegrees>-2.0037065260112285614013671875</LongitudeDegrees>
            </Position>
            <AltitudeMeters>-4.19999980926513671875</AltitudeMeters>
            <DistanceMeters>NAN</DistanceMeters>
          </Trackpoint>
          <Trackpoint>
            <Time>2021-08-12T12:32:20.000Z</Time>
            <Position>
              <LatitudeDegrees>43.31626701168715953826904296875</LatitudeDegrees>
              <LongitudeDegrees>-2.0036651194095611572265625</LongitudeDegrees>
            </Position>
            <AltitudeMeters>-4</AltitudeMeters>
            <DistanceMeters>NAN</DistanceMeters>
          </Trackpoint>
          <Trackpoint>
            <Time>2021-08-12T12:32:21.000Z</Time>
            <Position>
              <LatitudeDegrees>43.3162558637559413909912109375</LatitudeDegrees>
              <LongitudeDegrees>-2.00362698175013065338134765625</LongitudeDegrees>
            </Position>
            <AltitudeMeters>-4.19999980926513671875</AltitudeMeters>
            <DistanceMeters>NAN</DistanceMeters>
          </Trackpoint>
          <Trackpoint>
            <Time>2021-08-12T12:32:22.000Z</Time>
            <Position>
              <LatitudeDegrees>43.3162446320056915283203125</LatitudeDegrees>
              <LongitudeDegrees>-2.00359127484261989593505859375</LongitudeDegrees>
            </Position>
            <AltitudeMeters>-4</AltitudeMeters>
            <DistanceMeters>NAN</DistanceMeters>
          </Trackpoint>
          <Trackpoint>
            <Time>2021-08-12T12:32:23.000Z</Time>
            <Position>
              <LatitudeDegrees>43.3162340708076953887939453125</LatitudeDegrees>
              <LongitudeDegrees>-2.00355489738285541534423828125</LongitudeDegrees>
            </Position>
            <AltitudeMeters>-4.19999980926513671875</AltitudeMeters>
            <DistanceMeters>NAN</DistanceMeters>
          </Trackpoint>
          <Trackpoint>
            <Time>2021-08-12T12:32:24.000Z</Time>
            <Position>
              <LatitudeDegrees>43.31622292287647724151611328125</LatitudeDegrees>
              <LongitudeDegrees>-2.00352103449404239654541015625</LongitudeDegrees>
            </Position>
            <AltitudeMeters>-4.19999980926513671875</AltitudeMeters>
            <DistanceMeters>NAN</DistanceMeters>
          </Trackpoint>
          <Trackpoint>
            <Time>2021-08-12T12:32:25.000Z</Time>
            <Position>
              <LatitudeDegrees>43.3162102662026882171630859375</LatitudeDegrees>
              <LongitudeDegrees>-2.00348968617618083953857421875</LongitudeDegrees>
            </Position>
            <AltitudeMeters>-4.19999980926513671875</AltitudeMeters>
            <DistanceMeters>NAN</DistanceMeters>
          </Trackpoint>
          <Trackpoint>
            <Time>2021-08-12T12:32:26.000Z</Time>
            <Position>
              <LatitudeDegrees>43.31619945354759693145751953125</LatitudeDegrees>
              <LongitudeDegrees>-2.003456912934780120849609375</LongitudeDegrees>
            </Position>
            <AltitudeMeters>-4.19999980926513671875</AltitudeMeters>
            <DistanceMeters>NAN</DistanceMeters>
          </Trackpoint>
          <Trackpoint>
            <Time>2021-08-12T12:32:27.000Z</Time>
            <Position>
              <LatitudeDegrees>43.31618897616863250732421875</LatitudeDegrees>
              <LongitudeDegrees>-2.003424726426601409912109375</LongitudeDegrees>
            </Position>
            <AltitudeMeters>-4.19999980926513671875</AltitudeMeters>
            <DistanceMeters>NAN</DistanceMeters>
          </Trackpoint>
          <Trackpoint>
            <Time>2021-08-12T12:32:28.000Z</Time>
            <Position>
              <LatitudeDegrees>43.3161750622093677520751953125</LatitudeDegrees>
              <LongitudeDegrees>-2.003393881022930145263671875</LongitudeDegrees>
            </Position>
            <AltitudeMeters>-4.19999980926513671875</AltitudeMeters>
            <DistanceMeters>NAN</DistanceMeters>
          </Trackpoint>
          <Trackpoint>
            <Time>2021-08-12T12:32:29.000Z</Time>
            <Position>
              <LatitudeDegrees>43.31616483628749847412109375</LatitudeDegrees>
              <LongitudeDegrees>-2.0033585093915462493896484375</LongitudeDegrees>
            </Position>
            <AltitudeMeters>-4.400000095367431640625</AltitudeMeters>
            <DistanceMeters>NAN</DistanceMeters>
          </Trackpoint>
          <Trackpoint>
            <Time>2021-08-12T12:32:30.000Z</Time>
            <Position>
              <LatitudeDegrees>43.31615519709885120391845703125</LatitudeDegrees>
              <LongitudeDegrees>-2.0033229701220989227294921875</LongitudeDegrees>
            </Position>
            <AltitudeMeters>-4.19999980926513671875</AltitudeMeters>
            <DistanceMeters>NAN</DistanceMeters>
          </Trackpoint>
          <Trackpoint>
            <Time>2021-08-12T12:32:31.000Z</Time>
            <Position>
              <LatitudeDegrees>43.31614480353891849517822265625</LatitudeDegrees>
              <LongitudeDegrees>-2.0032847486436367034912109375</LongitudeDegrees>
            </Position>
            <AltitudeMeters>-4.19999980926513671875</AltitudeMeters>
            <DistanceMeters>NAN</DistanceMeters>
          </Trackpoint>
          <Trackpoint>
            <Time>2021-08-12T12:32:37.000Z</Time>
            <Position>
              <LatitudeDegrees>43.3160734735429286956787109375</LatitudeDegrees>
              <LongitudeDegrees>-2.00305617414414882659912109375</LongitudeDegrees>
            </Position>
            <AltitudeMeters>-4.19999980926513671875</AltitudeMeters>
            <DistanceMeters>NAN</DistanceMeters>
          </Trackpoint>
          <Trackpoint>
            <Time>2021-08-12T12:32:41.000Z</Time>
            <Position>
              <LatitudeDegrees>43.31601421348750591278076171875</LatitudeDegrees>
              <LongitudeDegrees>-2.00287453830242156982421875</LongitudeDegrees>
            </Position>
            <AltitudeMeters>-4.599999904632568359375</AltitudeMeters>
            <DistanceMeters>NAN</DistanceMeters>
          </Trackpoint>
          <Trackpoint>
            <Time>2021-08-12T12:32:44.000Z</Time>
            <Position>
              <LatitudeDegrees>43.3159738965332508087158203125</LatitudeDegrees>
              <LongitudeDegrees>-2.00272039510309696197509765625</LongitudeDegrees>
            </Position>
            <AltitudeMeters>-4.80000019073486328125</AltitudeMeters>
            <DistanceMeters>NAN</DistanceMeters>
          </Trackpoint>
          <Trackpoint>
            <Time>2021-08-12T12:32:46.000Z</Time>
            <Position>
              <LatitudeDegrees>43.315941207110881805419921875</LatitudeDegrees>
              <LongitudeDegrees>-2.0026128552854061126708984375</LongitudeDegrees>
            </Position>
            <AltitudeMeters>-5</AltitudeMeters>
            <DistanceMeters>NAN</DistanceMeters>
          </Trackpoint>
          <Trackpoint>
            <Time>2021-08-12T12:32:54.000Z</Time>
            <Position>
              <LatitudeDegrees>43.31580902449786663055419921875</LatitudeDegrees>
              <LongitudeDegrees>-2.00220976956188678741455078125</LongitudeDegrees>
            </Position>
            <AltitudeMeters>-5</AltitudeMeters>
            <DistanceMeters>NAN</DistanceMeters>
          </Trackpoint>
          <Trackpoint>
            <Time>2021-08-12T12:32:57.000Z</Time>
            <Position>
              <LatitudeDegrees>43.31576426513493061065673828125</LatitudeDegrees>
              <LongitudeDegrees>-2.002062499523162841796875</LongitudeDegrees>
            </Position>
            <AltitudeMeters>-5</AltitudeMeters>
            <DistanceMeters>NAN</DistanceMeters>
          </Trackpoint>
          <Trackpoint>
            <Time>2021-08-12T12:32:58.000Z</Time>
            <Position>
              <LatitudeDegrees>43.31574783660471439361572265625</LatitudeDegrees>
              <LongitudeDegrees>-2.002005167305469512939453125</LongitudeDegrees>
            </Position>
            <AltitudeMeters>-5</AltitudeMeters>
            <DistanceMeters>NAN</DistanceMeters>
          </Trackpoint>
          <Trackpoint>
            <Time>2021-08-12T12:32:59.000Z</Time>
            <Position>
              <LatitudeDegrees>43.31573794595897197723388671875</LatitudeDegrees>
              <LongitudeDegrees>-2.0019661076366901397705078125</LongitudeDegrees>
            </Position>
            <AltitudeMeters>-5</AltitudeMeters>
            <DistanceMeters>NAN</DistanceMeters>
          </Trackpoint>
          <Trackpoint>
            <Time>2021-08-12T12:33:00.000Z</Time>
            <Position>
              <LatitudeDegrees>43.315722942352294921875</LatitudeDegrees>
              <LongitudeDegrees>-2.00191757641732692718505859375</LongitudeDegrees>
            </Position>
            <AltitudeMeters>-5</AltitudeMeters>
            <DistanceMeters>NAN</DistanceMeters>
          </Trackpoint>
          <Trackpoint>
            <Time>2021-08-12T12:33:01.000Z</Time>
            <Position>
              <LatitudeDegrees>43.31570525653660297393798828125</LatitudeDegrees>
              <LongitudeDegrees>-2.00186870992183685302734375</LongitudeDegrees>
            </Position>
            <AltitudeMeters>-5</AltitudeMeters>
            <DistanceMeters>NAN</DistanceMeters>
          </Trackpoint>
          <Trackpoint>
            <Time>2021-08-12T12:33:03.000Z</Time>
            <Position>
              <LatitudeDegrees>43.31567692570388317108154296875</LatitudeDegrees>
              <LongitudeDegrees>-2.00177189894020557403564453125</LongitudeDegrees>
            </Position>
            <AltitudeMeters>-5</AltitudeMeters>
            <DistanceMeters>NAN</DistanceMeters>
          </Trackpoint>
          <Trackpoint>
            <Time>2021-08-12T12:33:04.000Z</Time>
            <Position>
              <LatitudeDegrees>43.31566653214395046234130859375</LatitudeDegrees>
              <LongitudeDegrees>-2.00172613374888896942138671875</LongitudeDegrees>
            </Position>
            <AltitudeMeters>-5</AltitudeMeters>
            <DistanceMeters>NAN</DistanceMeters>
          </Trackpoint>
          <Trackpoint>
            <Time>2021-08-12T12:33:05.000Z</Time>
            <Position>
              <LatitudeDegrees>43.3156572282314300537109375</LatitudeDegrees>
              <LongitudeDegrees>-2.0016740821301937103271484375</LongitudeDegrees>
            </Position>
            <AltitudeMeters>-5</AltitudeMeters>
            <DistanceMeters>NAN</DistanceMeters>
          </Trackpoint>
          <Trackpoint>
            <Time>2021-08-12T12:33:06.000Z</Time>
            <Position>
              <LatitudeDegrees>43.31564675085246562957763671875</LatitudeDegrees>
              <LongitudeDegrees>-2.00163141824305057525634765625</LongitudeDegrees>
            </Position>
            <AltitudeMeters>-4.80000019073486328125</AltitudeMeters>
            <DistanceMeters>NAN</DistanceMeters>
          </Trackpoint>
          <Trackpoint>
            <Time>2021-08-12T12:33:07.000Z</Time>
            <Position>
              <LatitudeDegrees>43.3156352676451206207275390625</LatitudeDegrees>
              <LongitudeDegrees>-2.00160040520131587982177734375</LongitudeDegrees>
            </Position>
            <AltitudeMeters>-4.80000019073486328125</AltitudeMeters>
            <DistanceMeters>NAN</DistanceMeters>
          </Trackpoint>
          <Trackpoint>
            <Time>2021-08-12T12:33:08.000Z</Time>
            <Position>
              <LatitudeDegrees>43.315619342029094696044921875</LatitudeDegrees>
              <LongitudeDegrees>-2.00156293809413909912109375</LongitudeDegrees>
            </Position>
            <AltitudeMeters>-4.80000019073486328125</AltitudeMeters>
            <DistanceMeters>NAN</DistanceMeters>
          </Trackpoint>
          <Trackpoint>
            <Time>2021-08-12T12:33:09.000Z</Time>
            <Position>
              <LatitudeDegrees>43.31560417078435420989990234375</LatitudeDegrees>
              <LongitudeDegrees>-2.00152513571083545684814453125</LongitudeDegrees>
            </Position>
            <AltitudeMeters>-4.80000019073486328125</AltitudeMeters>
            <DistanceMeters>NAN</DistanceMeters>
          </Trackpoint>
          <Trackpoint>
            <Time>2021-08-12T12:33:10.000Z</Time>
            <Position>
              <LatitudeDegrees>43.31559143029153347015380859375</LatitudeDegrees>
              <LongitudeDegrees>-2.0014863274991512298583984375</LongitudeDegrees>
            </Position>
            <AltitudeMeters>-4.80000019073486328125</AltitudeMeters>
            <DistanceMeters>NAN</DistanceMeters>
          </Trackpoint>
          <Trackpoint>
            <Time>2021-08-12T12:33:11.000Z</Time>
            <Position>
              <LatitudeDegrees>43.31557919271290302276611328125</LatitudeDegrees>
              <LongitudeDegrees>-2.00144751928746700286865234375</LongitudeDegrees>
            </Position>
            <AltitudeMeters>-4.80000019073486328125</AltitudeMeters>
            <DistanceMeters>NAN</DistanceMeters>
          </Trackpoint>
          <Trackpoint>
            <Time>2021-08-12T12:33:12.000Z</Time>
            <Position>
              <LatitudeDegrees>43.3155688829720020294189453125</LatitudeDegrees>
              <LongitudeDegrees>-2.0014107227325439453125</LongitudeDegrees>
            </Position>
            <AltitudeMeters>-4.80000019073486328125</AltitudeMeters>
            <DistanceMeters>NAN</DistanceMeters>
          </Trackpoint>
          <Trackpoint>
            <Time>2021-08-12T12:33:13.000Z</Time>
            <Position>
              <LatitudeDegrees>43.31555865705013275146484375</LatitudeDegrees>
              <LongitudeDegrees>-2.0013766922056674957275390625</LongitudeDegrees>
            </Position>
            <AltitudeMeters>-4.599999904632568359375</AltitudeMeters>
            <DistanceMeters>NAN</DistanceMeters>
          </Trackpoint>
          <Trackpoint>
            <Time>2021-08-12T12:33:14.000Z</Time>
            <Position>
              <LatitudeDegrees>43.31554985605180263519287109375</LatitudeDegrees>
              <LongitudeDegrees>-2.00134257785975933074951171875</LongitudeDegrees>
            </Position>
            <AltitudeMeters>-4.599999904632568359375</AltitudeMeters>
            <DistanceMeters>NAN</DistanceMeters>
          </Trackpoint>
          <Trackpoint>
            <Time>2021-08-12T12:33:15.000Z</Time>
            <Position>
              <LatitudeDegrees>43.31554063595831394195556640625</LatitudeDegrees>
              <LongitudeDegrees>-2.001310475170612335205078125</LongitudeDegrees>
            </Position>
            <AltitudeMeters>-4.599999904632568359375</AltitudeMeters>
            <DistanceMeters>NAN</DistanceMeters>
          </Trackpoint>
          <Trackpoint>
            <Time>2021-08-12T12:33:16.000Z</Time>
            <Position>
              <LatitudeDegrees>43.315530158579349517822265625</LatitudeDegrees>
              <LongitudeDegrees>-2.0012844912707805633544921875</LongitudeDegrees>
            </Position>
            <AltitudeMeters>-4.599999904632568359375</AltitudeMeters>
            <DistanceMeters>NAN</DistanceMeters>
          </Trackpoint>
          <Trackpoint>
            <Time>2021-08-12T12:33:17.000Z</Time>
            <Position>
              <LatitudeDegrees>43.31552336923778057098388671875</LatitudeDegrees>
              <LongitudeDegrees>-2.00126253068447113037109375</LongitudeDegrees>
            </Position>
            <AltitudeMeters>-4.599999904632568359375</AltitudeMeters>
            <DistanceMeters>NAN</DistanceMeters>
          </Trackpoint>
          <Trackpoint>
            <Time>2021-08-12T12:33:18.000Z</Time>
            <Position>
              <LatitudeDegrees>43.315525464713573455810546875</LatitudeDegrees>
              <LongitudeDegrees>-2.00124249793589115142822265625</LongitudeDegrees>
            </Position>
            <AltitudeMeters>-4.599999904632568359375</AltitudeMeters>
            <DistanceMeters>NAN</DistanceMeters>
          </Trackpoint>
          <Trackpoint>
            <Time>2021-08-12T12:33:19.000Z</Time>
            <Position>
              <LatitudeDegrees>43.315533511340618133544921875</LatitudeDegrees>
              <LongitudeDegrees>-2.00122363865375518798828125</LongitudeDegrees>
            </Position>
            <AltitudeMeters>-4.599999904632568359375</AltitudeMeters>
            <DistanceMeters>NAN</DistanceMeters>
          </Trackpoint>
          <Trackpoint>
            <Time>2021-08-12T12:33:20.000Z</Time>
            <Position>
              <LatitudeDegrees>43.31554247997701168060302734375</LatitudeDegrees>
              <LongitudeDegrees>-2.00121064670383930206298828125</LongitudeDegrees>
            </Position>
            <AltitudeMeters>-4.599999904632568359375</AltitudeMeters>
            <DistanceMeters>NAN</DistanceMeters>
          </Trackpoint>
          <Trackpoint>
            <Time>2021-08-12T12:33:21.000Z</Time>
            <Position>
              <LatitudeDegrees>43.31554935313761234283447265625</LatitudeDegrees>
              <LongitudeDegrees>-2.0011922903358936309814453125</LongitudeDegrees>
            </Position>
            <AltitudeMeters>-4.599999904632568359375</AltitudeMeters>
            <DistanceMeters>NAN</DistanceMeters>
          </Trackpoint>
          <Trackpoint>
            <Time>2021-08-12T12:33:22.000Z</Time>
            <Position>
              <LatitudeDegrees>43.3155527897179126739501953125</LatitudeDegrees>
              <LongitudeDegrees>-2.00118063949048519134521484375</LongitudeDegrees>
            </Position>
            <AltitudeMeters>-4.80000019073486328125</AltitudeMeters>
            <DistanceMeters>NAN</DistanceMeters>
          </Trackpoint>
          <Trackpoint>
            <Time>2021-08-12T12:33:23.000Z</Time>
            <Position>
              <LatitudeDegrees>43.31555287353694438934326171875</LatitudeDegrees>
              <LongitudeDegrees>-2.001183070242404937744140625</LongitudeDegrees>
            </Position>
            <AltitudeMeters>-4.80000019073486328125</AltitudeMeters>
            <DistanceMeters>NAN</DistanceMeters>
          </Trackpoint>
          <Trackpoint>
            <Time>2021-08-12T12:33:24.000Z</Time>
            <Position>
              <LatitudeDegrees>43.31555186770856380462646484375</LatitudeDegrees>
              <LongitudeDegrees>-2.0011852495372295379638671875</LongitudeDegrees>
            </Position>
            <AltitudeMeters>-4.80000019073486328125</AltitudeMeters>
            <DistanceMeters>NAN</DistanceMeters>
          </Trackpoint>
          <Trackpoint>
            <Time>2021-08-12T12:34:15.000Z</Time>
            <Position>
              <LatitudeDegrees>43.3155675418674945831298828125</LatitudeDegrees>
              <LongitudeDegrees>-2.00124551542103290557861328125</LongitudeDegrees>
            </Position>
            <AltitudeMeters>-4.400000095367431640625</AltitudeMeters>
            <DistanceMeters>NAN</DistanceMeters>
          </Trackpoint>
          <Trackpoint>
            <Time>2021-08-12T12:35:13.000Z</Time>
            <Position>
              <LatitudeDegrees>43.31552823074162006378173828125</LatitudeDegrees>
              <LongitudeDegrees>-2.0012538135051727294921875</LongitudeDegrees>
            </Position>
            <AltitudeMeters>-4.19999980926513671875</AltitudeMeters>
            <DistanceMeters>NAN</DistanceMeters>
          </Trackpoint>
          <Trackpoint>
            <Time>2021-08-12T12:35:15.000Z</Time>
            <Position>
              <LatitudeDegrees>43.315493278205394744873046875</LatitudeDegrees>
              <LongitudeDegrees>-2.001264877617359161376953125</LongitudeDegrees>
            </Position>
            <AltitudeMeters>-4.19999980926513671875</AltitudeMeters>
            <DistanceMeters>NAN</DistanceMeters>
          </Trackpoint>
          <Trackpoint>
            <Time>2021-08-12T12:35:17.000Z</Time>
            <Position>
              <LatitudeDegrees>43.31545933149755001068115234375</LatitudeDegrees>
              <LongitudeDegrees>-2.00127032585442066192626953125</LongitudeDegrees>
            </Position>
            <AltitudeMeters>-4.400000095367431640625</AltitudeMeters>
            <DistanceMeters>NAN</DistanceMeters>
          </Trackpoint>
          <Trackpoint>
            <Time>2021-08-12T12:35:20.000Z</Time>
            <Position>
              <LatitudeDegrees>43.31538724713027477264404296875</LatitudeDegrees>
              <LongitudeDegrees>-2.00129530392587184906005859375</LongitudeDegrees>
            </Position>
            <AltitudeMeters>-4.400000095367431640625</AltitudeMeters>
            <DistanceMeters>NAN</DistanceMeters>
          </Trackpoint>
          <Trackpoint>
            <Time>2021-08-12T12:35:21.000Z</Time>
            <Position>
              <LatitudeDegrees>43.315363861620426177978515625</LatitudeDegrees>
              <LongitudeDegrees>-2.001315169036388397216796875</LongitudeDegrees>
            </Position>
            <AltitudeMeters>-4.400000095367431640625</AltitudeMeters>
            <DistanceMeters>NAN</DistanceMeters>
          </Trackpoint>
          <Trackpoint>
            <Time>2021-08-12T12:35:22.000Z</Time>
            <Position>
              <LatitudeDegrees>43.31535480916500091552734375</LatitudeDegrees>
              <LongitudeDegrees>-2.0013381354510784149169921875</LongitudeDegrees>
            </Position>
            <AltitudeMeters>-4.400000095367431640625</AltitudeMeters>
            <DistanceMeters>NAN</DistanceMeters>
          </Trackpoint>
          <Trackpoint>
            <Time>2021-08-12T12:35:23.000Z</Time>
            <Position>
              <LatitudeDegrees>43.31535204313695430755615234375</LatitudeDegrees>
              <LongitudeDegrees>-2.001358754932880401611328125</LongitudeDegrees>
            </Position>
            <AltitudeMeters>-4.400000095367431640625</AltitudeMeters>
            <DistanceMeters>NAN</DistanceMeters>
          </Trackpoint>
          <Trackpoint>
            <Time>2021-08-12T12:35:24.000Z</Time>
            <Position>
              <LatitudeDegrees>43.31535321660339832305908203125</LatitudeDegrees>
              <LongitudeDegrees>-2.001372836530208587646484375</LongitudeDegrees>
            </Position>
            <AltitudeMeters>-4.400000095367431640625</AltitudeMeters>
            <DistanceMeters>NAN</DistanceMeters>
          </Trackpoint>
          <Trackpoint>
            <Time>2021-08-12T12:35:25.000Z</Time>
            <Position>
              <LatitudeDegrees>43.31535288132727146148681640625</LatitudeDegrees>
              <LongitudeDegrees>-2.00138591229915618896484375</LongitudeDegrees>
            </Position>
            <AltitudeMeters>-4.19999980926513671875</AltitudeMeters>
            <DistanceMeters>NAN</DistanceMeters>
          </Trackpoint>
          <Trackpoint>
            <Time>2021-08-12T12:35:26.000Z</Time>
            <Position>
              <LatitudeDegrees>43.315349109470844268798828125</LatitudeDegrees>
              <LongitudeDegrees>-2.00139706023037433624267578125</LongitudeDegrees>
            </Position>
            <AltitudeMeters>-4.19999980926513671875</AltitudeMeters>
            <DistanceMeters>NAN</DistanceMeters>
          </Trackpoint>
          <Trackpoint>
            <Time>2021-08-12T12:35:27.000Z</Time>
            <Position>
              <LatitudeDegrees>43.3153385482728481292724609375</LatitudeDegrees>
              <LongitudeDegrees>-2.0014038495719432830810546875</LongitudeDegrees>
            </Position>
            <AltitudeMeters>-4.19999980926513671875</AltitudeMeters>
            <DistanceMeters>NAN</DistanceMeters>
          </Trackpoint>
          <Trackpoint>
            <Time>2021-08-12T12:35:28.000Z</Time>
            <Position>
              <LatitudeDegrees>43.3153259754180908203125</LatitudeDegrees>
              <LongitudeDegrees>-2.00141365639865398406982421875</LongitudeDegrees>
            </Position>
            <AltitudeMeters>-4.19999980926513671875</AltitudeMeters>
            <DistanceMeters>NAN</DistanceMeters>
          </Trackpoint>
          <Trackpoint>
            <Time>2021-08-12T12:35:29.000Z</Time>
            <Position>
              <LatitudeDegrees>43.3153120614588260650634765625</LatitudeDegrees>
              <LongitudeDegrees>-2.00142681598663330078125</LongitudeDegrees>
            </Position>
            <AltitudeMeters>-4.19999980926513671875</AltitudeMeters>
            <DistanceMeters>NAN</DistanceMeters>
          </Trackpoint>
          <Trackpoint>
            <Time>2021-08-12T12:35:30.000Z</Time>
            <Position>
              <LatitudeDegrees>43.31530191935598850250244140625</LatitudeDegrees>
              <LongitudeDegrees>-2.00144131667912006378173828125</LongitudeDegrees>
            </Position>
            <AltitudeMeters>-4</AltitudeMeters>
            <DistanceMeters>NAN</DistanceMeters>
          </Trackpoint>
          <Trackpoint>
            <Time>2021-08-12T12:35:31.000Z</Time>
            <Position>
              <LatitudeDegrees>43.31529269926249980926513671875</LatitudeDegrees>
              <LongitudeDegrees>-2.00145296752452850341796875</LongitudeDegrees>
            </Position>
            <AltitudeMeters>-4</AltitudeMeters>
            <DistanceMeters>NAN</DistanceMeters>
          </Trackpoint>
          <Trackpoint>
            <Time>2021-08-12T12:35:32.000Z</Time>
            <Position>
              <LatitudeDegrees>43.31528733484447002410888671875</LatitudeDegrees>
              <LongitudeDegrees>-2.00146503746509552001953125</LongitudeDegrees>
            </Position>
            <AltitudeMeters>-3.7999999523162841796875</AltitudeMeters>
            <DistanceMeters>NAN</DistanceMeters>
          </Trackpoint>
          <Trackpoint>
            <Time>2021-08-12T12:35:33.000Z</Time>
            <Position>
              <LatitudeDegrees>43.31527811475098133087158203125</LatitudeDegrees>
              <LongitudeDegrees>-2.001477777957916259765625</LongitudeDegrees>
            </Position>
            <AltitudeMeters>-3.7999999523162841796875</AltitudeMeters>
            <DistanceMeters>NAN</DistanceMeters>
          </Trackpoint>
          <Trackpoint>
            <Time>2021-08-12T12:35:34.000Z</Time>
            <Position>
              <LatitudeDegrees>43.3152674697339534759521484375</LatitudeDegrees>
              <LongitudeDegrees>-2.00149093754589557647705078125</LongitudeDegrees>
            </Position>
            <AltitudeMeters>-3.599999904632568359375</AltitudeMeters>
            <DistanceMeters>NAN</DistanceMeters>
          </Trackpoint>
          <Trackpoint>
            <Time>2021-08-12T12:35:35.000Z</Time>
            <Position>
              <LatitudeDegrees>43.3152575790882110595703125</LatitudeDegrees>
              <LongitudeDegrees>-2.0015044324100017547607421875</LongitudeDegrees>
            </Position>
            <AltitudeMeters>-3.599999904632568359375</AltitudeMeters>
            <DistanceMeters>NAN</DistanceMeters>
          </Trackpoint>
          <Trackpoint>
            <Time>2021-08-12T12:35:36.000Z</Time>
            <Position>
              <LatitudeDegrees>43.31524240784347057342529296875</LatitudeDegrees>
              <LongitudeDegrees>-2.00151641853153705596923828125</LongitudeDegrees>
            </Position>
            <AltitudeMeters>-3.599999904632568359375</AltitudeMeters>
            <DistanceMeters>NAN</DistanceMeters>
          </Trackpoint>
          <Trackpoint>
            <Time>2021-08-12T12:35:37.000Z</Time>
            <Position>
              <LatitudeDegrees>43.31522472202777862548828125</LatitudeDegrees>
              <LongitudeDegrees>-2.001521699130535125732421875</LongitudeDegrees>
            </Position>
            <AltitudeMeters>-3.599999904632568359375</AltitudeMeters>
            <DistanceMeters>NAN</DistanceMeters>
          </Trackpoint>
          <Trackpoint>
            <Time>2021-08-12T12:35:38.000Z</Time>
            <Position>
              <LatitudeDegrees>43.3152141608297824859619140625</LatitudeDegrees>
              <LongitudeDegrees>-2.00152899138629436492919921875</LongitudeDegrees>
            </Position>
            <AltitudeMeters>-3.599999904632568359375</AltitudeMeters>
            <DistanceMeters>NAN</DistanceMeters>
          </Trackpoint>
          <Trackpoint>
            <Time>2021-08-12T12:35:39.000Z</Time>
            <Position>
              <LatitudeDegrees>43.315204940736293792724609375</LatitudeDegrees>
              <LongitudeDegrees>-2.00153921730816364288330078125</LongitudeDegrees>
            </Position>
            <AltitudeMeters>-3.599999904632568359375</AltitudeMeters>
            <DistanceMeters>NAN</DistanceMeters>
          </Trackpoint>
          <Trackpoint>
            <Time>2021-08-12T12:35:40.000Z</Time>
            <Position>
              <LatitudeDegrees>43.3151972293853759765625</LatitudeDegrees>
              <LongitudeDegrees>-2.00154877267777919769287109375</LongitudeDegrees>
            </Position>
            <AltitudeMeters>-3.599999904632568359375</AltitudeMeters>
            <DistanceMeters>NAN</DistanceMeters>
          </Trackpoint>
          <Trackpoint>
            <Time>2021-08-12T12:35:41.000Z</Time>
            <Position>
              <LatitudeDegrees>43.315191529691219329833984375</LatitudeDegrees>
              <LongitudeDegrees>-2.0015574060380458831787109375</LongitudeDegrees>
            </Position>
            <AltitudeMeters>-3.599999904632568359375</AltitudeMeters>
            <DistanceMeters>NAN</DistanceMeters>
          </Trackpoint>
          <Trackpoint>
            <Time>2021-08-12T12:35:42.000Z</Time>
            <Position>
              <LatitudeDegrees>43.31518574617803096771240234375</LatitudeDegrees>
              <LongitudeDegrees>-2.00157291255891323089599609375</LongitudeDegrees>
            </Position>
            <AltitudeMeters>-3.599999904632568359375</AltitudeMeters>
            <DistanceMeters>NAN</DistanceMeters>
          </Trackpoint>
          <Trackpoint>
            <Time>2021-08-12T12:35:43.000Z</Time>
            <Position>
              <LatitudeDegrees>43.315178453922271728515625</LatitudeDegrees>
              <LongitudeDegrees>-2.00158565305173397064208984375</LongitudeDegrees>
            </Position>
            <AltitudeMeters>-3.599999904632568359375</AltitudeMeters>
            <DistanceMeters>NAN</DistanceMeters>
          </Trackpoint>
          <Trackpoint>
            <Time>2021-08-12T12:35:44.000Z</Time>
            <Position>
              <LatitudeDegrees>43.3151752687990665435791015625</LatitudeDegrees>
              <LongitudeDegrees>-2.00159487314522266387939453125</LongitudeDegrees>
            </Position>
            <AltitudeMeters>-3.599999904632568359375</AltitudeMeters>
            <DistanceMeters>NAN</DistanceMeters>
          </Trackpoint>
          <Trackpoint>
            <Time>2021-08-12T12:35:45.000Z</Time>
            <Position>
              <LatitudeDegrees>43.31516764126718044281005859375</LatitudeDegrees>
              <LongitudeDegrees>-2.001602165400981903076171875</LongitudeDegrees>
            </Position>
            <AltitudeMeters>-3.599999904632568359375</AltitudeMeters>
            <DistanceMeters>NAN</DistanceMeters>
          </Trackpoint>
          <Trackpoint>
            <Time>2021-08-12T12:35:46.000Z</Time>
            <Position>
              <LatitudeDegrees>43.31515741534531116485595703125</LatitudeDegrees>
              <LongitudeDegrees>-2.001612223684787750244140625</LongitudeDegrees>
            </Position>
            <AltitudeMeters>-3.599999904632568359375</AltitudeMeters>
            <DistanceMeters>NAN</DistanceMeters>
          </Trackpoint>
          <Trackpoint>
            <Time>2021-08-12T12:35:47.000Z</Time>
            <Position>
              <LatitudeDegrees>43.3151528052985668182373046875</LatitudeDegrees>
              <LongitudeDegrees>-2.00162085704505443572998046875</LongitudeDegrees>
            </Position>
            <AltitudeMeters>-3.599999904632568359375</AltitudeMeters>
            <DistanceMeters>NAN</DistanceMeters>
          </Trackpoint>
          <Trackpoint>
            <Time>2021-08-12T12:35:48.000Z</Time>
            <Position>
              <LatitudeDegrees>43.315148614346981048583984375</LatitudeDegrees>
              <LongitudeDegrees>-2.00162571854889392852783203125</LongitudeDegrees>
            </Position>
            <AltitudeMeters>-3.599999904632568359375</AltitudeMeters>
            <DistanceMeters>NAN</DistanceMeters>
          </Trackpoint>
          <Trackpoint>
            <Time>2021-08-12T12:35:49.000Z</Time>
            <Position>
              <LatitudeDegrees>43.31514266319572925567626953125</LatitudeDegrees>
              <LongitudeDegrees>-2.00164181180298328399658203125</LongitudeDegrees>
            </Position>
            <AltitudeMeters>-3.599999904632568359375</AltitudeMeters>
            <DistanceMeters>NAN</DistanceMeters>
          </Trackpoint>
          <Trackpoint>
            <Time>2021-08-12T12:35:50.000Z</Time>
            <Position>
              <LatitudeDegrees>43.3151341974735260009765625</LatitudeDegrees>
              <LongitudeDegrees>-2.0016506128013134002685546875</LongitudeDegrees>
            </Position>
            <AltitudeMeters>-3.599999904632568359375</AltitudeMeters>
            <DistanceMeters>NAN</DistanceMeters>
          </Trackpoint>
          <Trackpoint>
            <Time>2021-08-12T12:35:51.000Z</Time>
            <Position>
              <LatitudeDegrees>43.31512338481843471527099609375</LatitudeDegrees>
              <LongitudeDegrees>-2.00166427530348300933837890625</LongitudeDegrees>
            </Position>
            <AltitudeMeters>-3.599999904632568359375</AltitudeMeters>
            <DistanceMeters>NAN</DistanceMeters>
          </Trackpoint>
          <Trackpoint>
            <Time>2021-08-12T12:35:53.000Z</Time>
            <Position>
              <LatitudeDegrees>43.31509958021342754364013671875</LatitudeDegrees>
              <LongitudeDegrees>-2.00169109739363193511962890625</LongitudeDegrees>
            </Position>
            <AltitudeMeters>-3.599999904632568359375</AltitudeMeters>
            <DistanceMeters>NAN</DistanceMeters>
          </Trackpoint>
          <Trackpoint>
            <Time>2021-08-12T12:35:54.000Z</Time>
            <Position>
              <LatitudeDegrees>43.315091617405414581298828125</LatitudeDegrees>
              <LongitudeDegrees>-2.00170241296291351318359375</LongitudeDegrees>
            </Position>
            <AltitudeMeters>-3.599999904632568359375</AltitudeMeters>
            <DistanceMeters>NAN</DistanceMeters>
          </Trackpoint>
          <Trackpoint>
            <Time>2021-08-12T12:35:56.000Z</Time>
            <Position>
              <LatitudeDegrees>43.315077535808086395263671875</LatitudeDegrees>
              <LongitudeDegrees>-2.001719176769256591796875</LongitudeDegrees>
            </Position>
            <AltitudeMeters>-3.599999904632568359375</AltitudeMeters>
            <DistanceMeters>NAN</DistanceMeters>
          </Trackpoint>
          <Trackpoint>
            <Time>2021-08-12T12:35:57.000Z</Time>
            <Position>
              <LatitudeDegrees>43.3150699920952320098876953125</LatitudeDegrees>
              <LongitudeDegrees>-2.001726888120174407958984375</LongitudeDegrees>
            </Position>
            <AltitudeMeters>-3.400000095367431640625</AltitudeMeters>
            <DistanceMeters>NAN</DistanceMeters>
          </Trackpoint>
          <Trackpoint>
            <Time>2021-08-12T12:35:58.000Z</Time>
            <Position>
              <LatitudeDegrees>43.31505582667887210845947265625</LatitudeDegrees>
              <LongitudeDegrees>-2.00174004770815372467041015625</LongitudeDegrees>
            </Position>
            <AltitudeMeters>-3.400000095367431640625</AltitudeMeters>
            <DistanceMeters>NAN</DistanceMeters>
          </Trackpoint>
          <Trackpoint>
            <Time>2021-08-12T12:35:59.000Z</Time>
            <Position>
              <LatitudeDegrees>43.31505037844181060791015625</LatitudeDegrees>
              <LongitudeDegrees>-2.0017518661916255950927734375</LongitudeDegrees>
            </Position>
            <AltitudeMeters>-3.400000095367431640625</AltitudeMeters>
            <DistanceMeters>NAN</DistanceMeters>
          </Trackpoint>
          <Trackpoint>
            <Time>2021-08-12T12:36:00.000Z</Time>
            <Position>
              <LatitudeDegrees>43.315048031508922576904296875</LatitudeDegrees>
              <LongitudeDegrees>-2.00176770798861980438232421875</LongitudeDegrees>
            </Position>
            <AltitudeMeters>-3.400000095367431640625</AltitudeMeters>
            <DistanceMeters>NAN</DistanceMeters>
          </Trackpoint>
          <Trackpoint>
            <Time>2021-08-12T12:36:01.000Z</Time>
            <Position>
              <LatitudeDegrees>43.3150448463857173919677734375</LatitudeDegrees>
              <LongitudeDegrees>-2.00177374295890331268310546875</LongitudeDegrees>
            </Position>
            <AltitudeMeters>-3.400000095367431640625</AltitudeMeters>
            <DistanceMeters>NAN</DistanceMeters>
          </Trackpoint>
          <Trackpoint>
            <Time>2021-08-12T12:36:02.000Z</Time>
            <Position>
              <LatitudeDegrees>43.31504208035767078399658203125</LatitudeDegrees>
              <LongitudeDegrees>-2.0017863996326923370361328125</LongitudeDegrees>
            </Position>
            <AltitudeMeters>-3.400000095367431640625</AltitudeMeters>
            <DistanceMeters>NAN</DistanceMeters>
          </Trackpoint>
          <Trackpoint>
            <Time>2021-08-12T12:36:03.000Z</Time>
            <Position>
              <LatitudeDegrees>43.31503889523446559906005859375</LatitudeDegrees>
              <LongitudeDegrees>-2.00180928222835063934326171875</LongitudeDegrees>
            </Position>
            <AltitudeMeters>-3.400000095367431640625</AltitudeMeters>
            <DistanceMeters>NAN</DistanceMeters>
          </Trackpoint>
          <Trackpoint>
            <Time>2021-08-12T12:36:05.000Z</Time>
            <Position>
              <LatitudeDegrees>43.31502933986485004425048828125</LatitudeDegrees>
              <LongitudeDegrees>-2.0018568076193332672119140625</LongitudeDegrees>
            </Position>
            <AltitudeMeters>-3.2000000476837158203125</AltitudeMeters>
            <DistanceMeters>NAN</DistanceMeters>
          </Trackpoint>
          <Trackpoint>
            <Time>2021-08-12T12:36:06.000Z</Time>
            <Position>
              <LatitudeDegrees>43.3150119893252849578857421875</LatitudeDegrees>
              <LongitudeDegrees>-2.00188153423368930816650390625</LongitudeDegrees>
            </Position>
            <AltitudeMeters>-3.2000000476837158203125</AltitudeMeters>
            <DistanceMeters>NAN</DistanceMeters>
          </Trackpoint>
          <Trackpoint>
            <Time>2021-08-12T12:36:07.000Z</Time>
            <Position>
              <LatitudeDegrees>43.31499832682311534881591796875</LatitudeDegrees>
              <LongitudeDegrees>-2.00193752534687519073486328125</LongitudeDegrees>
            </Position>
            <AltitudeMeters>-3.2000000476837158203125</AltitudeMeters>
            <DistanceMeters>NAN</DistanceMeters>
          </Trackpoint>
          <Trackpoint>
            <Time>2021-08-12T12:36:08.000Z</Time>
            <Position>
              <LatitudeDegrees>43.314982987940311431884765625</LatitudeDegrees>
              <LongitudeDegrees>-2.00197960250079631805419921875</LongitudeDegrees>
            </Position>
            <AltitudeMeters>-3.2000000476837158203125</AltitudeMeters>
            <DistanceMeters>NAN</DistanceMeters>
          </Trackpoint>
          <Trackpoint>
            <Time>2021-08-12T12:36:09.000Z</Time>
            <Position>
              <LatitudeDegrees>43.31495423801243305206298828125</LatitudeDegrees>
              <LongitudeDegrees>-2.0020200870931148529052734375</LongitudeDegrees>
            </Position>
            <AltitudeMeters>-3.2000000476837158203125</AltitudeMeters>
            <DistanceMeters>NAN</DistanceMeters>
          </Trackpoint>
          <Trackpoint>
            <Time>2021-08-12T12:36:11.000Z</Time>
            <Position>
              <LatitudeDegrees>43.31489271484315395355224609375</LatitudeDegrees>
              <LongitudeDegrees>-2.0020973682403564453125</LongitudeDegrees>
            </Position>
            <AltitudeMeters>-3.2000000476837158203125</AltitudeMeters>
            <DistanceMeters>NAN</DistanceMeters>
          </Trackpoint>
          <Trackpoint>
            <Time>2021-08-12T12:36:12.000Z</Time>
            <Position>
              <LatitudeDegrees>43.3148678205907344818115234375</LatitudeDegrees>
              <LongitudeDegrees>-2.00214841403067111968994140625</LongitudeDegrees>
            </Position>
            <AltitudeMeters>-3</AltitudeMeters>
            <DistanceMeters>NAN</DistanceMeters>
          </Trackpoint>
          <Trackpoint>
            <Time>2021-08-12T12:36:13.000Z</Time>
            <Position>
              <LatitudeDegrees>43.31485013477504253387451171875</LatitudeDegrees>
              <LongitudeDegrees>-2.00218596495687961578369140625</LongitudeDegrees>
            </Position>
            <AltitudeMeters>-3</AltitudeMeters>
            <DistanceMeters>NAN</DistanceMeters>
          </Trackpoint>
          <Trackpoint>
            <Time>2021-08-12T12:36:14.000Z</Time>
            <Position>
              <LatitudeDegrees>43.31482901237905025482177734375</LatitudeDegrees>
              <LongitudeDegrees>-2.002220414578914642333984375</LongitudeDegrees>
            </Position>
            <AltitudeMeters>-2.7999999523162841796875</AltitudeMeters>
            <DistanceMeters>NAN</DistanceMeters>
          </Trackpoint>
          <Trackpoint>
            <Time>2021-08-12T12:36:15.000Z</Time>
            <Position>
              <LatitudeDegrees>43.3148123323917388916015625</LatitudeDegrees>
              <LongitudeDegrees>-2.00225335545837879180908203125</LongitudeDegrees>
            </Position>
            <AltitudeMeters>-2.599999904632568359375</AltitudeMeters>
            <DistanceMeters>NAN</DistanceMeters>
          </Trackpoint>
          <Trackpoint>
            <Time>2021-08-12T12:36:16.000Z</Time>
            <Position>
              <LatitudeDegrees>43.314795233309268951416015625</LatitudeDegrees>
              <LongitudeDegrees>-2.0022883079946041107177734375</LongitudeDegrees>
            </Position>
            <AltitudeMeters>-2.400000095367431640625</AltitudeMeters>
            <DistanceMeters>NAN</DistanceMeters>
          </Trackpoint>
          <Trackpoint>
            <Time>2021-08-12T12:36:17.000Z</Time>
            <Position>
              <LatitudeDegrees>43.31478341482579708099365234375</LatitudeDegrees>
              <LongitudeDegrees>-2.00232468545436859130859375</LongitudeDegrees>
            </Position>
            <AltitudeMeters>-2.400000095367431640625</AltitudeMeters>
            <DistanceMeters>NAN</DistanceMeters>
          </Trackpoint>
          <Trackpoint>
            <Time>2021-08-12T12:36:18.000Z</Time>
            <Position>
              <LatitudeDegrees>43.3147715963423252105712890625</LatitudeDegrees>
              <LongitudeDegrees>-2.002348490059375762939453125</LongitudeDegrees>
            </Position>
            <AltitudeMeters>-2.400000095367431640625</AltitudeMeters>
            <DistanceMeters>NAN</DistanceMeters>
          </Trackpoint>
          <Trackpoint>
            <Time>2021-08-12T12:36:19.000Z</Time>
            <Position>
              <LatitudeDegrees>43.31475189886987209320068359375</LatitudeDegrees>
              <LongitudeDegrees>-2.002375982701778411865234375</LongitudeDegrees>
            </Position>
            <AltitudeMeters>-2.400000095367431640625</AltitudeMeters>
            <DistanceMeters>NAN</DistanceMeters>
          </Trackpoint>
          <Trackpoint>
            <Time>2021-08-12T12:36:20.000Z</Time>
            <Position>
              <LatitudeDegrees>43.31471619196236133575439453125</LatitudeDegrees>
              <LongitudeDegrees>-2.0023939199745655059814453125</LongitudeDegrees>
            </Position>
            <AltitudeMeters>-2.2000000476837158203125</AltitudeMeters>
            <DistanceMeters>NAN</DistanceMeters>
          </Trackpoint>
          <Trackpoint>
            <Time>2021-08-12T12:36:21.000Z</Time>
            <Position>
              <LatitudeDegrees>43.31470596604049205780029296875</LatitudeDegrees>
              <LongitudeDegrees>-2.00240573845803737640380859375</LongitudeDegrees>
            </Position>
            <AltitudeMeters>-2.2000000476837158203125</AltitudeMeters>
            <DistanceMeters>NAN</DistanceMeters>
          </Trackpoint>
          <Trackpoint>
            <Time>2021-08-12T12:36:22.000Z</Time>
            <Position>
              <LatitudeDegrees>43.31468132324516773223876953125</LatitudeDegrees>
              <LongitudeDegrees>-2.002423591911792755126953125</LongitudeDegrees>
            </Position>
            <AltitudeMeters>-2.2000000476837158203125</AltitudeMeters>
            <DistanceMeters>NAN</DistanceMeters>
          </Trackpoint>
          <Trackpoint>
            <Time>2021-08-12T12:36:25.000Z</Time>
            <Position>
              <LatitudeDegrees>43.3146351389586925506591796875</LatitudeDegrees>
              <LongitudeDegrees>-2.0025233365595340728759765625</LongitudeDegrees>
            </Position>
            <AltitudeMeters>-2.2000000476837158203125</AltitudeMeters>
            <DistanceMeters>NAN</DistanceMeters>
          </Trackpoint>
          <Trackpoint>
            <Time>2021-08-12T12:36:26.000Z</Time>
            <Position>
              <LatitudeDegrees>43.31463170237839221954345703125</LatitudeDegrees>
              <LongitudeDegrees>-2.00257605873048305511474609375</LongitudeDegrees>
            </Position>
            <AltitudeMeters>-2.2000000476837158203125</AltitudeMeters>
            <DistanceMeters>NAN</DistanceMeters>
          </Trackpoint>
          <Trackpoint>
            <Time>2021-08-12T12:36:27.000Z</Time>
            <Position>
              <LatitudeDegrees>43.31461586058139801025390625</LatitudeDegrees>
              <LongitudeDegrees>-2.00263422913849353790283203125</LongitudeDegrees>
            </Position>
            <AltitudeMeters>-2.2000000476837158203125</AltitudeMeters>
            <DistanceMeters>NAN</DistanceMeters>
          </Trackpoint>
          <Trackpoint>
            <Time>2021-08-12T12:36:28.000Z</Time>
            <Position>
              <LatitudeDegrees>43.31460135988891124725341796875</LatitudeDegrees>
              <LongitudeDegrees>-2.0026887953281402587890625</LongitudeDegrees>
            </Position>
            <AltitudeMeters>-2.2000000476837158203125</AltitudeMeters>
            <DistanceMeters>NAN</DistanceMeters>
          </Trackpoint>
          <Trackpoint>
            <Time>2021-08-12T12:36:29.000Z</Time>
            <Position>
              <LatitudeDegrees>43.31458627246320247650146484375</LatitudeDegrees>
              <LongitudeDegrees>-2.00274906121194362640380859375</LongitudeDegrees>
            </Position>
            <AltitudeMeters>-2.400000095367431640625</AltitudeMeters>
            <DistanceMeters>NAN</DistanceMeters>
          </Trackpoint>
          <Trackpoint>
            <Time>2021-08-12T12:36:30.000Z</Time>
            <Position>
              <LatitudeDegrees>43.31456263549625873565673828125</LatitudeDegrees>
              <LongitudeDegrees>-2.00280438177287578582763671875</LongitudeDegrees>
            </Position>
            <AltitudeMeters>-2.400000095367431640625</AltitudeMeters>
            <DistanceMeters>NAN</DistanceMeters>
          </Trackpoint>
          <Trackpoint>
            <Time>2021-08-12T12:36:32.000Z</Time>
            <Position>
              <LatitudeDegrees>43.31450781784951686859130859375</LatitudeDegrees>
              <LongitudeDegrees>-2.0029011927545070648193359375</LongitudeDegrees>
            </Position>
            <AltitudeMeters>-2.400000095367431640625</AltitudeMeters>
            <DistanceMeters>NAN</DistanceMeters>
          </Trackpoint>
          <Trackpoint>
            <Time>2021-08-12T12:36:33.000Z</Time>
            <Position>
              <LatitudeDegrees>43.3144792355597019195556640625</LatitudeDegrees>
              <LongitudeDegrees>-2.00295374728739261627197265625</LongitudeDegrees>
            </Position>
            <AltitudeMeters>-2.400000095367431640625</AltitudeMeters>
            <DistanceMeters>NAN</DistanceMeters>
          </Trackpoint>
          <Trackpoint>
            <Time>2021-08-12T12:36:34.000Z</Time>
            <Position>
              <LatitudeDegrees>43.31444813869893550872802734375</LatitudeDegrees>
              <LongitudeDegrees>-2.0030205510556697845458984375</LongitudeDegrees>
            </Position>
            <AltitudeMeters>-2.400000095367431640625</AltitudeMeters>
            <DistanceMeters>NAN</DistanceMeters>
          </Trackpoint>
          <Trackpoint>
            <Time>2021-08-12T12:36:38.000Z</Time>
            <Position>
              <LatitudeDegrees>43.3143635652959346771240234375</LatitudeDegrees>
              <LongitudeDegrees>-2.0032284222543239593505859375</LongitudeDegrees>
            </Position>
            <AltitudeMeters>-2.599999904632568359375</AltitudeMeters>
            <DistanceMeters>NAN</DistanceMeters>
          </Trackpoint>
          <Trackpoint>
            <Time>2021-08-12T12:36:39.000Z</Time>
            <Position>
              <LatitudeDegrees>43.31433464772999286651611328125</LatitudeDegrees>
              <LongitudeDegrees>-2.00327158905565738677978515625</LongitudeDegrees>
            </Position>
            <AltitudeMeters>-2.599999904632568359375</AltitudeMeters>
            <DistanceMeters>NAN</DistanceMeters>
          </Trackpoint>
          <Trackpoint>
            <Time>2021-08-12T12:36:40.000Z</Time>
            <Position>
              <LatitudeDegrees>43.3143172971904277801513671875</LatitudeDegrees>
              <LongitudeDegrees>-2.0033058710396289825439453125</LongitudeDegrees>
            </Position>
            <AltitudeMeters>-2.599999904632568359375</AltitudeMeters>
            <DistanceMeters>NAN</DistanceMeters>
          </Trackpoint>
          <Trackpoint>
            <Time>2021-08-12T12:36:41.000Z</Time>
            <Position>
              <LatitudeDegrees>43.314310424029827117919921875</LatitudeDegrees>
              <LongitudeDegrees>-2.00335272587835788726806640625</LongitudeDegrees>
            </Position>
            <AltitudeMeters>-2.599999904632568359375</AltitudeMeters>
            <DistanceMeters>NAN</DistanceMeters>
          </Trackpoint>
          <Trackpoint>
            <Time>2021-08-12T12:36:42.000Z</Time>
            <Position>
              <LatitudeDegrees>43.3142921514809131622314453125</LatitudeDegrees>
              <LongitudeDegrees>-2.003415338695049285888671875</LongitudeDegrees>
            </Position>
            <AltitudeMeters>-2.599999904632568359375</AltitudeMeters>
            <DistanceMeters>NAN</DistanceMeters>
          </Trackpoint>
          <Trackpoint>
            <Time>2021-08-12T12:36:43.000Z</Time>
            <Position>
              <LatitudeDegrees>43.314271531999111175537109375</LatitudeDegrees>
              <LongitudeDegrees>-2.00345431454479694366455078125</LongitudeDegrees>
            </Position>
            <AltitudeMeters>-2.599999904632568359375</AltitudeMeters>
            <DistanceMeters>NAN</DistanceMeters>
          </Trackpoint>
          <Trackpoint>
            <Time>2021-08-12T12:36:45.000Z</Time>
            <Position>
              <LatitudeDegrees>43.314245045185089111328125</LatitudeDegrees>
              <LongitudeDegrees>-2.00352136977016925811767578125</LongitudeDegrees>
            </Position>
            <AltitudeMeters>-2.599999904632568359375</AltitudeMeters>
            <DistanceMeters>NAN</DistanceMeters>
          </Trackpoint>
          <Trackpoint>
            <Time>2021-08-12T12:36:46.000Z</Time>
            <Position>
              <LatitudeDegrees>43.314231298863887786865234375</LatitudeDegrees>
              <LongitudeDegrees>-2.0035486109554767608642578125</LongitudeDegrees>
            </Position>
            <AltitudeMeters>-2.599999904632568359375</AltitudeMeters>
            <DistanceMeters>NAN</DistanceMeters>
          </Trackpoint>
          <Trackpoint>
            <Time>2021-08-12T12:36:47.000Z</Time>
            <Position>
              <LatitudeDegrees>43.31422031857073307037353515625</LatitudeDegrees>
              <LongitudeDegrees>-2.0035660453140735626220703125</LongitudeDegrees>
            </Position>
            <AltitudeMeters>-2.599999904632568359375</AltitudeMeters>
            <DistanceMeters>NAN</DistanceMeters>
          </Trackpoint>
          <Trackpoint>
            <Time>2021-08-12T12:36:48.000Z</Time>
            <Position>
              <LatitudeDegrees>43.31422199495136737823486328125</LatitudeDegrees>
              <LongitudeDegrees>-2.00357367284595966339111328125</LongitudeDegrees>
            </Position>
            <AltitudeMeters>-2.599999904632568359375</AltitudeMeters>
            <DistanceMeters>NAN</DistanceMeters>
          </Trackpoint>
          <Trackpoint>
            <Time>2021-08-12T12:36:49.000Z</Time>
            <Position>
              <LatitudeDegrees>43.31421277485787868499755859375</LatitudeDegrees>
              <LongitudeDegrees>-2.0035900175571441650390625</LongitudeDegrees>
            </Position>
            <AltitudeMeters>-2.599999904632568359375</AltitudeMeters>
            <DistanceMeters>NAN</DistanceMeters>
          </Trackpoint>
          <Trackpoint>
            <Time>2021-08-12T12:36:50.000Z</Time>
            <Position>
              <LatitudeDegrees>43.31420925445854663848876953125</LatitudeDegrees>
              <LongitudeDegrees>-2.00361206196248531341552734375</LongitudeDegrees>
            </Position>
            <AltitudeMeters>-2.599999904632568359375</AltitudeMeters>
            <DistanceMeters>NAN</DistanceMeters>
          </Trackpoint>
          <Trackpoint>
            <Time>2021-08-12T12:36:51.000Z</Time>
            <Position>
              <LatitudeDegrees>43.3142059855163097381591796875</LatitudeDegrees>
              <LongitudeDegrees>-2.003619186580181121826171875</LongitudeDegrees>
            </Position>
            <AltitudeMeters>-2.599999904632568359375</AltitudeMeters>
            <DistanceMeters>NAN</DistanceMeters>
          </Trackpoint>
          <Trackpoint>
            <Time>2021-08-12T12:36:52.000Z</Time>
            <Position>
              <LatitudeDegrees>43.31420472823083400726318359375</LatitudeDegrees>
              <LongitudeDegrees>-2.00362983159720897674560546875</LongitudeDegrees>
            </Position>
            <AltitudeMeters>-2.599999904632568359375</AltitudeMeters>
            <DistanceMeters>NAN</DistanceMeters>
          </Trackpoint>
          <Trackpoint>
            <Time>2021-08-12T12:36:56.000Z</Time>
            <Position>
              <LatitudeDegrees>43.31418192945420742034912109375</LatitudeDegrees>
              <LongitudeDegrees>-2.00369722209870815277099609375</LongitudeDegrees>
            </Position>
            <AltitudeMeters>-2.599999904632568359375</AltitudeMeters>
            <DistanceMeters>NAN</DistanceMeters>
          </Trackpoint>
          <Trackpoint>
            <Time>2021-08-12T12:36:57.000Z</Time>
            <Position>
              <LatitudeDegrees>43.3141637407243251800537109375</LatitudeDegrees>
              <LongitudeDegrees>-2.00371675193309783935546875</LongitudeDegrees>
            </Position>
            <AltitudeMeters>-2.599999904632568359375</AltitudeMeters>
            <DistanceMeters>NAN</DistanceMeters>
          </Trackpoint>
          <Trackpoint>
            <Time>2021-08-12T12:36:58.000Z</Time>
            <Position>
              <LatitudeDegrees>43.31415728665888309478759765625</LatitudeDegrees>
              <LongitudeDegrees>-2.00374483130872249603271484375</LongitudeDegrees>
            </Position>
            <AltitudeMeters>-2.7999999523162841796875</AltitudeMeters>
            <DistanceMeters>NAN</DistanceMeters>
          </Trackpoint>
          <Trackpoint>
            <Time>2021-08-12T12:37:02.000Z</Time>
            <Position>
              <LatitudeDegrees>43.3140889741480350494384765625</LatitudeDegrees>
              <LongitudeDegrees>-2.0038976334035396575927734375</LongitudeDegrees>
            </Position>
            <AltitudeMeters>-2.7999999523162841796875</AltitudeMeters>
            <DistanceMeters>NAN</DistanceMeters>
          </Trackpoint>
          <Trackpoint>
            <Time>2021-08-12T12:37:06.000Z</Time>
            <Position>
              <LatitudeDegrees>43.31397573463618755340576171875</LatitudeDegrees>
              <LongitudeDegrees>-2.00402520596981048583984375</LongitudeDegrees>
            </Position>
            <AltitudeMeters>-3.2000000476837158203125</AltitudeMeters>
            <DistanceMeters>NAN</DistanceMeters>
          </Trackpoint>
          <Trackpoint>
            <Time>2021-08-12T12:37:07.000Z</Time>
            <Position>
              <LatitudeDegrees>43.31395176239311695098876953125</LatitudeDegrees>
              <LongitudeDegrees>-2.0040642656385898590087890625</LongitudeDegrees>
            </Position>
            <AltitudeMeters>-3.2000000476837158203125</AltitudeMeters>
            <DistanceMeters>NAN</DistanceMeters>
          </Trackpoint>
          <Trackpoint>
            <Time>2021-08-12T12:37:08.000Z</Time>
            <Position>
              <LatitudeDegrees>43.3139263652265071868896484375</LatitudeDegrees>
              <LongitudeDegrees>-2.0040977932512760162353515625</LongitudeDegrees>
            </Position>
            <AltitudeMeters>-3.2000000476837158203125</AltitudeMeters>
            <DistanceMeters>NAN</DistanceMeters>
          </Trackpoint>
          <Trackpoint>
            <Time>2021-08-12T12:37:10.000Z</Time>
            <Position>
              <LatitudeDegrees>43.31388554535806179046630859375</LatitudeDegrees>
              <LongitudeDegrees>-2.00415671803057193756103515625</LongitudeDegrees>
            </Position>
            <AltitudeMeters>-3.2000000476837158203125</AltitudeMeters>
            <DistanceMeters>NAN</DistanceMeters>
          </Trackpoint>
          <Trackpoint>
            <Time>2021-08-12T12:37:11.000Z</Time>
            <Position>
              <LatitudeDegrees>43.31386609934270381927490234375</LatitudeDegrees>
              <LongitudeDegrees>-2.0041913352906703948974609375</LongitudeDegrees>
            </Position>
            <AltitudeMeters>-3.2000000476837158203125</AltitudeMeters>
            <DistanceMeters>NAN</DistanceMeters>
          </Trackpoint>
          <Trackpoint>
            <Time>2021-08-12T12:37:12.000Z</Time>
            <Position>
              <LatitudeDegrees>43.313845731317996978759765625</LatitudeDegrees>
              <LongitudeDegrees>-2.0042203366756439208984375</LongitudeDegrees>
            </Position>
            <AltitudeMeters>-3.2000000476837158203125</AltitudeMeters>
            <DistanceMeters>NAN</DistanceMeters>
          </Trackpoint>
          <Trackpoint>
            <Time>2021-08-12T12:37:13.000Z</Time>
            <Position>
              <LatitudeDegrees>43.3138279616832733154296875</LatitudeDegrees>
              <LongitudeDegrees>-2.00424841605126857757568359375</LongitudeDegrees>
            </Position>
            <AltitudeMeters>-3.400000095367431640625</AltitudeMeters>
            <DistanceMeters>NAN</DistanceMeters>
          </Trackpoint>
          <Trackpoint>
            <Time>2021-08-12T12:37:17.000Z</Time>
            <Position>
              <LatitudeDegrees>43.31375629641115665435791015625</LatitudeDegrees>
              <LongitudeDegrees>-2.00440943241119384765625</LongitudeDegrees>
            </Position>
            <AltitudeMeters>-3.400000095367431640625</AltitudeMeters>
            <DistanceMeters>NAN</DistanceMeters>
          </Trackpoint>
          <Trackpoint>
            <Time>2021-08-12T12:37:18.000Z</Time>
            <Position>
              <LatitudeDegrees>43.313748501241207122802734375</LatitudeDegrees>
              <LongitudeDegrees>-2.0044510066509246826171875</LongitudeDegrees>
            </Position>
            <AltitudeMeters>-3.400000095367431640625</AltitudeMeters>
            <DistanceMeters>NAN</DistanceMeters>
          </Trackpoint>
          <Trackpoint>
            <Time>2021-08-12T12:37:19.000Z</Time>
            <Position>
              <LatitudeDegrees>43.31375093199312686920166015625</LatitudeDegrees>
              <LongitudeDegrees>-2.004495598375797271728515625</LongitudeDegrees>
            </Position>
            <AltitudeMeters>-3.400000095367431640625</AltitudeMeters>
            <DistanceMeters>NAN</DistanceMeters>
          </Trackpoint>
          <Trackpoint>
            <Time>2021-08-12T12:37:21.000Z</Time>
            <Position>
              <LatitudeDegrees>43.31372402608394622802734375</LatitudeDegrees>
              <LongitudeDegrees>-2.00460062362253665924072265625</LongitudeDegrees>
            </Position>
            <AltitudeMeters>-3.400000095367431640625</AltitudeMeters>
            <DistanceMeters>NAN</DistanceMeters>
          </Trackpoint>
          <Trackpoint>
            <Time>2021-08-12T12:37:22.000Z</Time>
            <Position>
              <LatitudeDegrees>43.31369988620281219482421875</LatitudeDegrees>
              <LongitudeDegrees>-2.0046392641961574554443359375</LongitudeDegrees>
            </Position>
            <AltitudeMeters>-3.400000095367431640625</AltitudeMeters>
            <DistanceMeters>NAN</DistanceMeters>
          </Trackpoint>
          <Trackpoint>
            <Time>2021-08-12T12:37:23.000Z</Time>
            <Position>
              <LatitudeDegrees>43.313672728836536407470703125</LatitudeDegrees>
              <LongitudeDegrees>-2.00468075461685657501220703125</LongitudeDegrees>
            </Position>
            <AltitudeMeters>-3.400000095367431640625</AltitudeMeters>
            <DistanceMeters>NAN</DistanceMeters>
          </Trackpoint>
          <Trackpoint>
            <Time>2021-08-12T12:37:24.000Z</Time>
            <Position>
              <LatitudeDegrees>43.313682116568088531494140625</LatitudeDegrees>
              <LongitudeDegrees>-2.00476541183888912200927734375</LongitudeDegrees>
            </Position>
            <AltitudeMeters>-3.400000095367431640625</AltitudeMeters>
            <DistanceMeters>NAN</DistanceMeters>
          </Trackpoint>
          <Trackpoint>
            <Time>2021-08-12T12:37:26.000Z</Time>
            <Position>
              <LatitudeDegrees>43.3135961182415485382080078125</LatitudeDegrees>
              <LongitudeDegrees>-2.00485962443053722381591796875</LongitudeDegrees>
            </Position>
            <AltitudeMeters>-3.400000095367431640625</AltitudeMeters>
            <DistanceMeters>NAN</DistanceMeters>
          </Trackpoint>
          <Trackpoint>
            <Time>2021-08-12T12:37:32.000Z</Time>
            <Position>
              <LatitudeDegrees>43.31343040801584720611572265625</LatitudeDegrees>
              <LongitudeDegrees>-2.00512868352234363555908203125</LongitudeDegrees>
            </Position>
            <AltitudeMeters>-3.400000095367431640625</AltitudeMeters>
            <DistanceMeters>NAN</DistanceMeters>
          </Trackpoint>
          <Trackpoint>
            <Time>2021-08-12T12:37:33.000Z</Time>
            <Position>
              <LatitudeDegrees>43.313409872353076934814453125</LatitudeDegrees>
              <LongitudeDegrees>-2.0051596127450466156005859375</LongitudeDegrees>
            </Position>
            <AltitudeMeters>-3.400000095367431640625</AltitudeMeters>
            <DistanceMeters>NAN</DistanceMeters>
          </Trackpoint>
          <Trackpoint>
            <Time>2021-08-12T12:37:34.000Z</Time>
            <Position>
              <LatitudeDegrees>43.313393108546733856201171875</LatitudeDegrees>
              <LongitudeDegrees>-2.005209736526012420654296875</LongitudeDegrees>
            </Position>
            <AltitudeMeters>-3.400000095367431640625</AltitudeMeters>
            <DistanceMeters>NAN</DistanceMeters>
          </Trackpoint>
          <Trackpoint>
            <Time>2021-08-12T12:37:35.000Z</Time>
            <Position>
              <LatitudeDegrees>43.3133969642221927642822265625</LatitudeDegrees>
              <LongitudeDegrees>-2.0052655600011348724365234375</LongitudeDegrees>
            </Position>
            <AltitudeMeters>-3.400000095367431640625</AltitudeMeters>
            <DistanceMeters>NAN</DistanceMeters>
          </Trackpoint>
          <Trackpoint>
            <Time>2021-08-12T12:37:36.000Z</Time>
            <Position>
              <LatitudeDegrees>43.313390426337718963623046875</LatitudeDegrees>
              <LongitudeDegrees>-2.00532264076173305511474609375</LongitudeDegrees>
            </Position>
            <AltitudeMeters>-3.599999904632568359375</AltitudeMeters>
            <DistanceMeters>NAN</DistanceMeters>
          </Trackpoint>
          <Trackpoint>
            <Time>2021-08-12T12:37:37.000Z</Time>
            <Position>
              <LatitudeDegrees>43.313373662531375885009765625</LatitudeDegrees>
              <LongitudeDegrees>-2.0053802244365215301513671875</LongitudeDegrees>
            </Position>
            <AltitudeMeters>-3.599999904632568359375</AltitudeMeters>
            <DistanceMeters>NAN</DistanceMeters>
          </Trackpoint>
          <Trackpoint>
            <Time>2021-08-12T12:37:38.000Z</Time>
            <Position>
              <LatitudeDegrees>43.31332697533071041107177734375</LatitudeDegrees>
              <LongitudeDegrees>-2.0054110698401927947998046875</LongitudeDegrees>
            </Position>
            <AltitudeMeters>-3.599999904632568359375</AltitudeMeters>
            <DistanceMeters>NAN</DistanceMeters>
          </Trackpoint>
          <Trackpoint>
            <Time>2021-08-12T12:37:39.000Z</Time>
            <Position>
              <LatitudeDegrees>43.3133185096085071563720703125</LatitudeDegrees>
              <LongitudeDegrees>-2.00546546839177608489990234375</LongitudeDegrees>
            </Position>
            <AltitudeMeters>-3.599999904632568359375</AltitudeMeters>
            <DistanceMeters>NAN</DistanceMeters>
          </Trackpoint>
          <Trackpoint>
            <Time>2021-08-12T12:37:42.000Z</Time>
            <Position>
              <LatitudeDegrees>43.31328405998647212982177734375</LatitudeDegrees>
              <LongitudeDegrees>-2.00562606565654277801513671875</LongitudeDegrees>
            </Position>
            <AltitudeMeters>-3.599999904632568359375</AltitudeMeters>
            <DistanceMeters>NAN</DistanceMeters>
          </Trackpoint>
          <Trackpoint>
            <Time>2021-08-12T12:37:43.000Z</Time>
            <Position>
              <LatitudeDegrees>43.3132539689540863037109375</LatitudeDegrees>
              <LongitudeDegrees>-2.00564584694802761077880859375</LongitudeDegrees>
            </Position>
            <AltitudeMeters>-3.599999904632568359375</AltitudeMeters>
            <DistanceMeters>NAN</DistanceMeters>
          </Trackpoint>
          <Trackpoint>
            <Time>2021-08-12T12:37:44.000Z</Time>
            <Position>
              <LatitudeDegrees>43.31322605721652507781982421875</LatitudeDegrees>
              <LongitudeDegrees>-2.005670070648193359375</LongitudeDegrees>
            </Position>
            <AltitudeMeters>-3.599999904632568359375</AltitudeMeters>
            <DistanceMeters>NAN</DistanceMeters>
          </Trackpoint>
          <Trackpoint>
            <Time>2021-08-12T12:37:45.000Z</Time>
            <Position>
              <LatitudeDegrees>43.3131981454789638519287109375</LatitudeDegrees>
              <LongitudeDegrees>-2.00570250861346721649169921875</LongitudeDegrees>
            </Position>
            <AltitudeMeters>-3.599999904632568359375</AltitudeMeters>
            <DistanceMeters>NAN</DistanceMeters>
          </Trackpoint>
          <Trackpoint>
            <Time>2021-08-12T12:37:46.000Z</Time>
            <Position>
              <LatitudeDegrees>43.31316688098013401031494140625</LatitudeDegrees>
              <LongitudeDegrees>-2.00574441812932491302490234375</LongitudeDegrees>
            </Position>
            <AltitudeMeters>-3.7999999523162841796875</AltitudeMeters>
            <DistanceMeters>NAN</DistanceMeters>
          </Trackpoint>
          <Trackpoint>
            <Time>2021-08-12T12:37:48.000Z</Time>
            <Position>
              <LatitudeDegrees>43.3131203614175319671630859375</LatitudeDegrees>
              <LongitudeDegrees>-2.0058338530361652374267578125</LongitudeDegrees>
            </Position>
            <AltitudeMeters>-3.599999904632568359375</AltitudeMeters>
            <DistanceMeters>NAN</DistanceMeters>
          </Trackpoint>
          <Trackpoint>
            <Time>2021-08-12T12:37:49.000Z</Time>
            <Position>
              <LatitudeDegrees>43.3131039328873157501220703125</LatitudeDegrees>
              <LongitudeDegrees>-2.00590283609926700592041015625</LongitudeDegrees>
            </Position>
            <AltitudeMeters>-3.7999999523162841796875</AltitudeMeters>
            <DistanceMeters>NAN</DistanceMeters>
          </Trackpoint>
          <Trackpoint>
            <Time>2021-08-12T12:37:50.000Z</Time>
            <Position>
              <LatitudeDegrees>43.3130885101854801177978515625</LatitudeDegrees>
              <LongitudeDegrees>-2.00595865957438945770263671875</LongitudeDegrees>
            </Position>
            <AltitudeMeters>-3.7999999523162841796875</AltitudeMeters>
            <DistanceMeters>NAN</DistanceMeters>
          </Trackpoint>
          <Trackpoint>
            <Time>2021-08-12T12:37:53.000Z</Time>
            <Position>
              <LatitudeDegrees>43.3129862509667873382568359375</LatitudeDegrees>
              <LongitudeDegrees>-2.0061104558408260345458984375</LongitudeDegrees>
            </Position>
            <AltitudeMeters>-4</AltitudeMeters>
            <DistanceMeters>NAN</DistanceMeters>
          </Trackpoint>
          <Trackpoint>
            <Time>2021-08-12T12:37:54.000Z</Time>
            <Position>
              <LatitudeDegrees>43.31295900978147983551025390625</LatitudeDegrees>
              <LongitudeDegrees>-2.0061620883643627166748046875</LongitudeDegrees>
            </Position>
            <AltitudeMeters>-4.19999980926513671875</AltitudeMeters>
            <DistanceMeters>NAN</DistanceMeters>
          </Trackpoint>
          <Trackpoint>
            <Time>2021-08-12T12:37:55.000Z</Time>
            <Position>
              <LatitudeDegrees>43.31293185241520404815673828125</LatitudeDegrees>
              <LongitudeDegrees>-2.00621346943080425262451171875</LongitudeDegrees>
            </Position>
            <AltitudeMeters>-4.400000095367431640625</AltitudeMeters>
            <DistanceMeters>NAN</DistanceMeters>
          </Trackpoint>
          <Trackpoint>
            <Time>2021-08-12T12:37:57.000Z</Time>
            <Position>
              <LatitudeDegrees>43.3128900267183780670166015625</LatitudeDegrees>
              <LongitudeDegrees>-2.006293348968029022216796875</LongitudeDegrees>
            </Position>
            <AltitudeMeters>-4.400000095367431640625</AltitudeMeters>
            <DistanceMeters>NAN</DistanceMeters>
          </Trackpoint>
          <Trackpoint>
            <Time>2021-08-12T12:37:58.000Z</Time>
            <Position>
              <LatitudeDegrees>43.3128776215016841888427734375</LatitudeDegrees>
              <LongitudeDegrees>-2.00631908141076564788818359375</LongitudeDegrees>
            </Position>
            <AltitudeMeters>-4.599999904632568359375</AltitudeMeters>
            <DistanceMeters>NAN</DistanceMeters>
          </Trackpoint>
          <Trackpoint>
            <Time>2021-08-12T12:37:59.000Z</Time>
            <Position>
              <LatitudeDegrees>43.3128677308559417724609375</LatitudeDegrees>
              <LongitudeDegrees>-2.0063417963683605194091796875</LongitudeDegrees>
            </Position>
            <AltitudeMeters>-4.599999904632568359375</AltitudeMeters>
            <DistanceMeters>NAN</DistanceMeters>
          </Trackpoint>
          <Trackpoint>
            <Time>2021-08-12T12:38:00.000Z</Time>
            <Position>
              <LatitudeDegrees>43.31285457126796245574951171875</LatitudeDegrees>
              <LongitudeDegrees>-2.0063676126301288604736328125</LongitudeDegrees>
            </Position>
            <AltitudeMeters>-4.599999904632568359375</AltitudeMeters>
            <DistanceMeters>NAN</DistanceMeters>
          </Trackpoint>
          <Trackpoint>
            <Time>2021-08-12T12:38:01.000Z</Time>
            <Position>
              <LatitudeDegrees>43.3128383941948413848876953125</LatitudeDegrees>
              <LongitudeDegrees>-2.00639896094799041748046875</LongitudeDegrees>
            </Position>
            <AltitudeMeters>-4.599999904632568359375</AltitudeMeters>
            <DistanceMeters>NAN</DistanceMeters>
          </Trackpoint>
          <Trackpoint>
            <Time>2021-08-12T12:38:06.000Z</Time>
            <Position>
              <LatitudeDegrees>43.3127337880432605743408203125</LatitudeDegrees>
              <LongitudeDegrees>-2.0065940916538238525390625</LongitudeDegrees>
            </Position>
            <AltitudeMeters>-4.80000019073486328125</AltitudeMeters>
            <DistanceMeters>NAN</DistanceMeters>
          </Trackpoint>
          <Trackpoint>
            <Time>2021-08-12T12:38:14.000Z</Time>
            <Position>
              <LatitudeDegrees>43.3125212229788303375244140625</LatitudeDegrees>
              <LongitudeDegrees>-2.0070043019950389862060546875</LongitudeDegrees>
            </Position>
            <AltitudeMeters>-5</AltitudeMeters>
            <DistanceMeters>NAN</DistanceMeters>
          </Trackpoint>
          <Trackpoint>
            <Time>2021-08-12T12:38:15.000Z</Time>
            <Position>
              <LatitudeDegrees>43.3124927245080471038818359375</LatitudeDegrees>
              <LongitudeDegrees>-2.00705207884311676025390625</LongitudeDegrees>
            </Position>
            <AltitudeMeters>-5</AltitudeMeters>
            <DistanceMeters>NAN</DistanceMeters>
          </Trackpoint>
          <Trackpoint>
            <Time>2021-08-12T12:38:17.000Z</Time>
            <Position>
              <LatitudeDegrees>43.31244234926998615264892578125</LatitudeDegrees>
              <LongitudeDegrees>-2.0071467943489551544189453125</LongitudeDegrees>
            </Position>
            <AltitudeMeters>-5</AltitudeMeters>
            <DistanceMeters>NAN</DistanceMeters>
          </Trackpoint>
          <Trackpoint>
            <Time>2021-08-12T12:38:18.000Z</Time>
            <Position>
              <LatitudeDegrees>43.3124233223497867584228515625</LatitudeDegrees>
              <LongitudeDegrees>-2.0071933977305889129638671875</LongitudeDegrees>
            </Position>
            <AltitudeMeters>-5</AltitudeMeters>
            <DistanceMeters>NAN</DistanceMeters>
          </Trackpoint>
          <Trackpoint>
            <Time>2021-08-12T12:38:19.000Z</Time>
            <Position>
              <LatitudeDegrees>43.31240027211606502532958984375</LatitudeDegrees>
              <LongitudeDegrees>-2.00722935609519481658935546875</LongitudeDegrees>
            </Position>
            <AltitudeMeters>-4.80000019073486328125</AltitudeMeters>
            <DistanceMeters>NAN</DistanceMeters>
          </Trackpoint>
          <Trackpoint>
            <Time>2021-08-12T12:38:22.000Z</Time>
            <Position>
              <LatitudeDegrees>43.31233992241322994232177734375</LatitudeDegrees>
              <LongitudeDegrees>-2.0073853433132171630859375</LongitudeDegrees>
            </Position>
            <AltitudeMeters>-4.80000019073486328125</AltitudeMeters>
            <DistanceMeters>NAN</DistanceMeters>
          </Trackpoint>
          <Trackpoint>
            <Time>2021-08-12T12:38:23.000Z</Time>
            <Position>
              <LatitudeDegrees>43.3123232424259185791015625</LatitudeDegrees>
              <LongitudeDegrees>-2.0074284262955188751220703125</LongitudeDegrees>
            </Position>
            <AltitudeMeters>-4.80000019073486328125</AltitudeMeters>
            <DistanceMeters>NAN</DistanceMeters>
          </Trackpoint>
          <Trackpoint>
            <Time>2021-08-12T12:38:24.000Z</Time>
            <Position>
              <LatitudeDegrees>43.3123125135898590087890625</LatitudeDegrees>
              <LongitudeDegrees>-2.007468156516551971435546875</LongitudeDegrees>
            </Position>
            <AltitudeMeters>-4.80000019073486328125</AltitudeMeters>
            <DistanceMeters>NAN</DistanceMeters>
          </Trackpoint>
          <Trackpoint>
            <Time>2021-08-12T12:38:25.000Z</Time>
            <Position>
              <LatitudeDegrees>43.31229801289737224578857421875</LatitudeDegrees>
              <LongitudeDegrees>-2.00749573297798633575439453125</LongitudeDegrees>
            </Position>
            <AltitudeMeters>-5</AltitudeMeters>
            <DistanceMeters>NAN</DistanceMeters>
          </Trackpoint>
          <Trackpoint>
            <Time>2021-08-12T12:38:26.000Z</Time>
            <Position>
              <LatitudeDegrees>43.3122815005481243133544921875</LatitudeDegrees>
              <LongitudeDegrees>-2.007517777383327484130859375</LongitudeDegrees>
            </Position>
            <AltitudeMeters>-5</AltitudeMeters>
            <DistanceMeters>NAN</DistanceMeters>
          </Trackpoint>
          <Trackpoint>
            <Time>2021-08-12T12:38:27.000Z</Time>
            <Position>
              <LatitudeDegrees>43.31227756105363368988037109375</LatitudeDegrees>
              <LongitudeDegrees>-2.00753043405711650848388671875</LongitudeDegrees>
            </Position>
            <AltitudeMeters>-5</AltitudeMeters>
            <DistanceMeters>NAN</DistanceMeters>
          </Trackpoint>
          <Trackpoint>
            <Time>2021-08-12T12:38:28.000Z</Time>
            <Position>
              <LatitudeDegrees>43.31227957271039485931396484375</LatitudeDegrees>
              <LongitudeDegrees>-2.00753747485578060150146484375</LongitudeDegrees>
            </Position>
            <AltitudeMeters>-5</AltitudeMeters>
            <DistanceMeters>NAN</DistanceMeters>
          </Trackpoint>
          <Trackpoint>
            <Time>2021-08-12T12:38:29.000Z</Time>
            <Position>
              <LatitudeDegrees>43.31228342838585376739501953125</LatitudeDegrees>
              <LongitudeDegrees>-2.007544599473476409912109375</LongitudeDegrees>
            </Position>
            <AltitudeMeters>-5.19999980926513671875</AltitudeMeters>
            <DistanceMeters>NAN</DistanceMeters>
          </Trackpoint>
          <Trackpoint>
            <Time>2021-08-12T12:38:30.000Z</Time>
            <Position>
              <LatitudeDegrees>43.31228912808001041412353515625</LatitudeDegrees>
              <LongitudeDegrees>-2.0075591839849948883056640625</LongitudeDegrees>
            </Position>
            <AltitudeMeters>-5.19999980926513671875</AltitudeMeters>
            <DistanceMeters>NAN</DistanceMeters>
          </Trackpoint>
          <Trackpoint>
            <Time>2021-08-12T12:38:31.000Z</Time>
            <Position>
              <LatitudeDegrees>43.31229968927800655364990234375</LatitudeDegrees>
              <LongitudeDegrees>-2.007577121257781982421875</LongitudeDegrees>
            </Position>
            <AltitudeMeters>-5.19999980926513671875</AltitudeMeters>
            <DistanceMeters>NAN</DistanceMeters>
          </Trackpoint>
          <Trackpoint>
            <Time>2021-08-12T12:38:32.000Z</Time>
            <Position>
              <LatitudeDegrees>43.3123143576085567474365234375</LatitudeDegrees>
              <LongitudeDegrees>-2.00759128667414188385009765625</LongitudeDegrees>
            </Position>
            <AltitudeMeters>-5.19999980926513671875</AltitudeMeters>
            <DistanceMeters>NAN</DistanceMeters>
          </Trackpoint>
          <Trackpoint>
            <Time>2021-08-12T12:38:34.000Z</Time>
            <Position>
              <LatitudeDegrees>43.31236691214144229888916015625</LatitudeDegrees>
              <LongitudeDegrees>-2.00762950815260410308837890625</LongitudeDegrees>
            </Position>
            <AltitudeMeters>-5.19999980926513671875</AltitudeMeters>
            <DistanceMeters>NAN</DistanceMeters>
          </Trackpoint>
          <Trackpoint>
            <Time>2021-08-12T12:38:35.000Z</Time>
            <Position>
              <LatitudeDegrees>43.3123862743377685546875</LatitudeDegrees>
              <LongitudeDegrees>-2.00765498913824558258056640625</LongitudeDegrees>
            </Position>
            <AltitudeMeters>-5.19999980926513671875</AltitudeMeters>
            <DistanceMeters>NAN</DistanceMeters>
          </Trackpoint>
          <Trackpoint>
            <Time>2021-08-12T12:38:37.000Z</Time>
            <Position>
              <LatitudeDegrees>43.31241116859018802642822265625</LatitudeDegrees>
              <LongitudeDegrees>-2.007681392133235931396484375</LongitudeDegrees>
            </Position>
            <AltitudeMeters>-5.19999980926513671875</AltitudeMeters>
            <DistanceMeters>NAN</DistanceMeters>
          </Trackpoint>
          <Trackpoint>
            <Time>2021-08-12T12:38:38.000Z</Time>
            <Position>
              <LatitudeDegrees>43.31240932457149028778076171875</LatitudeDegrees>
              <LongitudeDegrees>-2.0076956413686275482177734375</LongitudeDegrees>
            </Position>
            <AltitudeMeters>-5.19999980926513671875</AltitudeMeters>
            <DistanceMeters>NAN</DistanceMeters>
          </Trackpoint>
          <Trackpoint>
            <Time>2021-08-12T12:38:39.000Z</Time>
            <Position>
              <LatitudeDegrees>43.31241485662758350372314453125</LatitudeDegrees>
              <LongitudeDegrees>-2.00771517120301723480224609375</LongitudeDegrees>
            </Position>
            <AltitudeMeters>-5</AltitudeMeters>
            <DistanceMeters>NAN</DistanceMeters>
          </Trackpoint>
          <Trackpoint>
            <Time>2021-08-12T12:38:40.000Z</Time>
            <Position>
              <LatitudeDegrees>43.3124270103871822357177734375</LatitudeDegrees>
              <LongitudeDegrees>-2.00773361138999462127685546875</LongitudeDegrees>
            </Position>
            <AltitudeMeters>-5</AltitudeMeters>
            <DistanceMeters>NAN</DistanceMeters>
          </Trackpoint>
          <Trackpoint>
            <Time>2021-08-12T12:38:41.000Z</Time>
            <Position>
              <LatitudeDegrees>43.312453664839267730712890625</LatitudeDegrees>
              <LongitudeDegrees>-2.0077650435268878936767578125</LongitudeDegrees>
            </Position>
            <AltitudeMeters>-5</AltitudeMeters>
            <DistanceMeters>NAN</DistanceMeters>
          </Trackpoint>
          <Trackpoint>
            <Time>2021-08-12T12:38:42.000Z</Time>
            <Position>
              <LatitudeDegrees>43.31247000955045223236083984375</LatitudeDegrees>
              <LongitudeDegrees>-2.0077808015048503875732421875</LongitudeDegrees>
            </Position>
            <AltitudeMeters>-5</AltitudeMeters>
            <DistanceMeters>NAN</DistanceMeters>
          </Trackpoint>
          <Trackpoint>
            <Time>2021-08-12T12:38:43.000Z</Time>
            <Position>
              <LatitudeDegrees>43.3124813251197338104248046875</LatitudeDegrees>
              <LongitudeDegrees>-2.0077999122440814971923828125</LongitudeDegrees>
            </Position>
            <AltitudeMeters>-5</AltitudeMeters>
            <DistanceMeters>NAN</DistanceMeters>
          </Trackpoint>
          <Trackpoint>
            <Time>2021-08-12T12:38:44.000Z</Time>
            <Position>
              <LatitudeDegrees>43.31248819828033447265625</LatitudeDegrees>
              <LongitudeDegrees>-2.0078133232891559600830078125</LongitudeDegrees>
            </Position>
            <AltitudeMeters>-5</AltitudeMeters>
            <DistanceMeters>NAN</DistanceMeters>
          </Trackpoint>
          <Trackpoint>
            <Time>2021-08-12T12:38:45.000Z</Time>
            <Position>
              <LatitudeDegrees>43.312496244907379150390625</LatitudeDegrees>
              <LongitudeDegrees>-2.0078198611736297607421875</LongitudeDegrees>
            </Position>
            <AltitudeMeters>-5.19999980926513671875</AltitudeMeters>
            <DistanceMeters>NAN</DistanceMeters>
          </Trackpoint>
          <Trackpoint>
            <Time>2021-08-12T12:38:50.000Z</Time>
            <Position>
              <LatitudeDegrees>43.3125111646950244903564453125</LatitudeDegrees>
              <LongitudeDegrees>-2.00782061554491519927978515625</LongitudeDegrees>
            </Position>
            <AltitudeMeters>-5.19999980926513671875</AltitudeMeters>
            <DistanceMeters>NAN</DistanceMeters>
          </Trackpoint>
          <Trackpoint>
            <Time>2021-08-12T12:38:57.000Z</Time>
            <Position>
              <LatitudeDegrees>43.3125235699117183685302734375</LatitudeDegrees>
              <LongitudeDegrees>-2.00782631523907184600830078125</LongitudeDegrees>
            </Position>
            <AltitudeMeters>-5.400000095367431640625</AltitudeMeters>
            <DistanceMeters>NAN</DistanceMeters>
          </Trackpoint>
          <Trackpoint>
            <Time>2021-08-12T12:39:31.000Z</Time>
            <Position>
              <LatitudeDegrees>43.31253991462290287017822265625</LatitudeDegrees>
              <LongitudeDegrees>-2.0078377984464168548583984375</LongitudeDegrees>
            </Position>
            <AltitudeMeters>-6.400000095367431640625</AltitudeMeters>
            <DistanceMeters>NAN</DistanceMeters>
          </Trackpoint>
          <Trackpoint>
            <Time>2021-08-12T12:40:07.000Z</Time>
            <Position>
              <LatitudeDegrees>43.31255416385829448699951171875</LatitudeDegrees>
              <LongitudeDegrees>-2.00780368410050868988037109375</LongitudeDegrees>
            </Position>
            <AltitudeMeters>-7</AltitudeMeters>
            <DistanceMeters>NAN</DistanceMeters>
          </Trackpoint>
          <Trackpoint>
            <Time>2021-08-12T12:40:32.000Z</Time>
            <Position>
              <LatitudeDegrees>43.31253840588033199310302734375</LatitudeDegrees>
              <LongitudeDegrees>-2.0077948831021785736083984375</LongitudeDegrees>
            </Position>
            <AltitudeMeters>-6.80000019073486328125</AltitudeMeters>
            <DistanceMeters>NAN</DistanceMeters>
          </Trackpoint>
          <Trackpoint>
            <Time>2021-08-12T12:40:58.000Z</Time>
            <Position>
              <LatitudeDegrees>43.31254695542156696319580078125</LatitudeDegrees>
              <LongitudeDegrees>-2.0077989064157009124755859375</LongitudeDegrees>
            </Position>
            <AltitudeMeters>-7.400000095367431640625</AltitudeMeters>
            <DistanceMeters>NAN</DistanceMeters>
          </Trackpoint>
          <Trackpoint>
            <Time>2021-08-12T12:40:59.000Z</Time>
            <Position>
              <LatitudeDegrees>43.312547206878662109375</LatitudeDegrees>
              <LongitudeDegrees>-2.0077989064157009124755859375</LongitudeDegrees>
            </Position>
            <AltitudeMeters>-7.400000095367431640625</AltitudeMeters>
            <DistanceMeters>NAN</DistanceMeters>
          </Trackpoint>
          <Trackpoint>
            <Time>2021-08-12T12:41:03.000Z</Time>
            <Position>
              <LatitudeDegrees>43.31254745833575725555419921875</LatitudeDegrees>
              <LongitudeDegrees>-2.00779882259666919708251953125</LongitudeDegrees>
            </Position>
            <AltitudeMeters>-7.599999904632568359375</AltitudeMeters>
            <DistanceMeters>NAN</DistanceMeters>
          </Trackpoint>
          <Trackpoint>
            <Time>2021-08-12T12:41:11.000Z</Time>
            <Position>
              <LatitudeDegrees>43.3125473745167255401611328125</LatitudeDegrees>
              <LongitudeDegrees>-2.00779882259666919708251953125</LongitudeDegrees>
            </Position>
            <AltitudeMeters>-8</AltitudeMeters>
            <DistanceMeters>NAN</DistanceMeters>
          </Trackpoint>
          <Trackpoint>
            <Time>2021-08-12T12:41:21.000Z</Time>
            <Position>
              <LatitudeDegrees>43.3125255815684795379638671875</LatitudeDegrees>
              <LongitudeDegrees>-2.00782262720167636871337890625</LongitudeDegrees>
            </Position>
            <AltitudeMeters>-8</AltitudeMeters>
            <DistanceMeters>NAN</DistanceMeters>
          </Trackpoint>
          <Trackpoint>
            <Time>2021-08-12T12:41:37.000Z</Time>
            <Position>
              <LatitudeDegrees>43.3125185407698154449462890625</LatitudeDegrees>
              <LongitudeDegrees>-2.007836289703845977783203125</LongitudeDegrees>
            </Position>
            <AltitudeMeters>-7.80000019073486328125</AltitudeMeters>
            <DistanceMeters>NAN</DistanceMeters>
          </Trackpoint>
          <Trackpoint>
            <Time>2021-08-12T12:41:41.000Z</Time>
            <Position>
              <LatitudeDegrees>43.31251376308500766754150390625</LatitudeDegrees>
              <LongitudeDegrees>-2.0078502036631107330322265625</LongitudeDegrees>
            </Position>
            <AltitudeMeters>-7.80000019073486328125</AltitudeMeters>
            <DistanceMeters>NAN</DistanceMeters>
          </Trackpoint>
          <Trackpoint>
            <Time>2021-08-12T12:41:47.000Z</Time>
            <Position>
              <LatitudeDegrees>43.31250420771539211273193359375</LatitudeDegrees>
              <LongitudeDegrees>-2.0078421570360660552978515625</LongitudeDegrees>
            </Position>
            <AltitudeMeters>-7.80000019073486328125</AltitudeMeters>
            <DistanceMeters>NAN</DistanceMeters>
          </Trackpoint>
          <Trackpoint>
            <Time>2021-08-12T12:41:48.000Z</Time>
            <Position>
              <LatitudeDegrees>43.3125074766576290130615234375</LatitudeDegrees>
              <LongitudeDegrees>-2.00783394277095794677734375</LongitudeDegrees>
            </Position>
            <AltitudeMeters>-8</AltitudeMeters>
            <DistanceMeters>NAN</DistanceMeters>
          </Trackpoint>
          <Trackpoint>
            <Time>2021-08-12T12:41:49.000Z</Time>
            <Position>
              <LatitudeDegrees>43.312507979571819305419921875</LatitudeDegrees>
              <LongitudeDegrees>-2.0078220404684543609619140625</LongitudeDegrees>
            </Position>
            <AltitudeMeters>-7.80000019073486328125</AltitudeMeters>
            <DistanceMeters>NAN</DistanceMeters>
          </Trackpoint>
          <Trackpoint>
            <Time>2021-08-12T12:41:50.000Z</Time>
            <Position>
              <LatitudeDegrees>43.31251434981822967529296875</LatitudeDegrees>
              <LongitudeDegrees>-2.00780251063406467437744140625</LongitudeDegrees>
            </Position>
            <AltitudeMeters>-7.80000019073486328125</AltitudeMeters>
            <DistanceMeters>NAN</DistanceMeters>
          </Trackpoint>
          <Trackpoint>
            <Time>2021-08-12T12:41:52.000Z</Time>
            <Position>
              <LatitudeDegrees>43.31250940449535846710205078125</LatitudeDegrees>
              <LongitudeDegrees>-2.00775171630084514617919921875</LongitudeDegrees>
            </Position>
            <AltitudeMeters>-7.80000019073486328125</AltitudeMeters>
            <DistanceMeters>NAN</DistanceMeters>
          </Trackpoint>
          <Trackpoint>
            <Time>2021-08-12T12:41:54.000Z</Time>
            <Position>
              <LatitudeDegrees>43.31245559267699718475341796875</LatitudeDegrees>
              <LongitudeDegrees>-2.00769438408315181732177734375</LongitudeDegrees>
            </Position>
            <AltitudeMeters>-7.80000019073486328125</AltitudeMeters>
            <DistanceMeters>NAN</DistanceMeters>
          </Trackpoint>
          <Trackpoint>
            <Time>2021-08-12T12:41:55.000Z</Time>
            <Position>
              <LatitudeDegrees>43.31241016276180744171142578125</LatitudeDegrees>
              <LongitudeDegrees>-2.00764761306345462799072265625</LongitudeDegrees>
            </Position>
            <AltitudeMeters>-7.599999904632568359375</AltitudeMeters>
            <DistanceMeters>NAN</DistanceMeters>
          </Trackpoint>
          <Trackpoint>
            <Time>2021-08-12T12:41:56.000Z</Time>
            <Position>
              <LatitudeDegrees>43.312375545501708984375</LatitudeDegrees>
              <LongitudeDegrees>-2.00764375738799571990966796875</LongitudeDegrees>
            </Position>
            <AltitudeMeters>-7.599999904632568359375</AltitudeMeters>
            <DistanceMeters>NAN</DistanceMeters>
          </Trackpoint>
          <Trackpoint>
            <Time>2021-08-12T12:41:57.000Z</Time>
            <Position>
              <LatitudeDegrees>43.31234796904027462005615234375</LatitudeDegrees>
              <LongitudeDegrees>-2.00765398330986499786376953125</LongitudeDegrees>
            </Position>
            <AltitudeMeters>-7.599999904632568359375</AltitudeMeters>
            <DistanceMeters>NAN</DistanceMeters>
          </Trackpoint>
          <Trackpoint>
            <Time>2021-08-12T12:41:58.000Z</Time>
            <Position>
              <LatitudeDegrees>43.31232734955847263336181640625</LatitudeDegrees>
              <LongitudeDegrees>-2.0076637901365756988525390625</LongitudeDegrees>
            </Position>
            <AltitudeMeters>-7.599999904632568359375</AltitudeMeters>
            <DistanceMeters>NAN</DistanceMeters>
          </Trackpoint>
          <Trackpoint>
            <Time>2021-08-12T12:41:59.000Z</Time>
            <Position>
              <LatitudeDegrees>43.3123103342950344085693359375</LatitudeDegrees>
              <LongitudeDegrees>-2.00767099857330322265625</LongitudeDegrees>
            </Position>
            <AltitudeMeters>-7.400000095367431640625</AltitudeMeters>
            <DistanceMeters>NAN</DistanceMeters>
          </Trackpoint>
          <Trackpoint>
            <Time>2021-08-12T12:42:00.000Z</Time>
            <Position>
              <LatitudeDegrees>43.3122918941080570220947265625</LatitudeDegrees>
              <LongitudeDegrees>-2.00768214650452136993408203125</LongitudeDegrees>
            </Position>
            <AltitudeMeters>-7.400000095367431640625</AltitudeMeters>
            <DistanceMeters>NAN</DistanceMeters>
          </Trackpoint>
          <Trackpoint>
            <Time>2021-08-12T12:42:02.000Z</Time>
            <Position>
              <LatitudeDegrees>43.31225459463894367218017578125</LatitudeDegrees>
              <LongitudeDegrees>-2.00770963914692401885986328125</LongitudeDegrees>
            </Position>
            <AltitudeMeters>-7.400000095367431640625</AltitudeMeters>
            <DistanceMeters>NAN</DistanceMeters>
          </Trackpoint>
          <Trackpoint>
            <Time>2021-08-12T12:42:03.000Z</Time>
            <Position>
              <LatitudeDegrees>43.31224386580288410186767578125</LatitudeDegrees>
              <LongitudeDegrees>-2.00771860778331756591796875</LongitudeDegrees>
            </Position>
            <AltitudeMeters>-7.400000095367431640625</AltitudeMeters>
            <DistanceMeters>NAN</DistanceMeters>
          </Trackpoint>
          <Trackpoint>
            <Time>2021-08-12T12:42:04.000Z</Time>
            <Position>
              <LatitudeDegrees>43.31221637316048145294189453125</LatitudeDegrees>
              <LongitudeDegrees>-2.00771860778331756591796875</LongitudeDegrees>
            </Position>
            <AltitudeMeters>-7.19999980926513671875</AltitudeMeters>
            <DistanceMeters>NAN</DistanceMeters>
          </Trackpoint>
          <Trackpoint>
            <Time>2021-08-12T12:42:05.000Z</Time>
            <Position>
              <LatitudeDegrees>43.31219290383160114288330078125</LatitudeDegrees>
              <LongitudeDegrees>-2.0077170990407466888427734375</LongitudeDegrees>
            </Position>
            <AltitudeMeters>-7.19999980926513671875</AltitudeMeters>
            <DistanceMeters>NAN</DistanceMeters>
          </Trackpoint>
          <Trackpoint>
            <Time>2021-08-12T12:42:06.000Z</Time>
            <Position>
              <LatitudeDegrees>43.31217848695814609527587890625</LatitudeDegrees>
              <LongitudeDegrees>-2.00771232135593891143798828125</LongitudeDegrees>
            </Position>
            <AltitudeMeters>-7.400000095367431640625</AltitudeMeters>
            <DistanceMeters>NAN</DistanceMeters>
          </Trackpoint>
          <Trackpoint>
            <Time>2021-08-12T12:42:07.000Z</Time>
            <Position>
              <LatitudeDegrees>43.3121638186275959014892578125</LatitudeDegrees>
              <LongitudeDegrees>-2.0077053643763065338134765625</LongitudeDegrees>
            </Position>
            <AltitudeMeters>-7.19999980926513671875</AltitudeMeters>
            <DistanceMeters>NAN</DistanceMeters>
          </Trackpoint>
          <Trackpoint>
            <Time>2021-08-12T12:42:08.000Z</Time>
            <Position>
              <LatitudeDegrees>43.3121467195451259613037109375</LatitudeDegrees>
              <LongitudeDegrees>-2.007691450417041778564453125</LongitudeDegrees>
            </Position>
            <AltitudeMeters>-7.19999980926513671875</AltitudeMeters>
            <DistanceMeters>NAN</DistanceMeters>
          </Trackpoint>
          <Trackpoint>
            <Time>2021-08-12T12:42:09.000Z</Time>
            <Position>
              <LatitudeDegrees>43.312106989324092864990234375</LatitudeDegrees>
              <LongitudeDegrees>-2.00767879374325275421142578125</LongitudeDegrees>
            </Position>
            <AltitudeMeters>-7.19999980926513671875</AltitudeMeters>
            <DistanceMeters>NAN</DistanceMeters>
          </Trackpoint>
          <Trackpoint>
            <Time>2021-08-12T12:42:11.000Z</Time>
            <Position>
              <LatitudeDegrees>43.31204940564930438995361328125</LatitudeDegrees>
              <LongitudeDegrees>-2.00769044458866119384765625</LongitudeDegrees>
            </Position>
            <AltitudeMeters>-7</AltitudeMeters>
            <DistanceMeters>NAN</DistanceMeters>
          </Trackpoint>
          <Trackpoint>
            <Time>2021-08-12T12:42:12.000Z</Time>
            <Position>
              <LatitudeDegrees>43.3120142854750156402587890625</LatitudeDegrees>
              <LongitudeDegrees>-2.00770595110952854156494140625</LongitudeDegrees>
            </Position>
            <AltitudeMeters>-7</AltitudeMeters>
            <DistanceMeters>NAN</DistanceMeters>
          </Trackpoint>
          <Trackpoint>
            <Time>2021-08-12T12:42:13.000Z</Time>
            <Position>
              <LatitudeDegrees>43.31195603124797344207763671875</LatitudeDegrees>
              <LongitudeDegrees>-2.00768868438899517059326171875</LongitudeDegrees>
            </Position>
            <AltitudeMeters>-7</AltitudeMeters>
            <DistanceMeters>NAN</DistanceMeters>
          </Trackpoint>
          <Trackpoint>
            <Time>2021-08-12T12:42:14.000Z</Time>
            <Position>
              <LatitudeDegrees>43.31192367710173130035400390625</LatitudeDegrees>
              <LongitudeDegrees>-2.00766228139400482177734375</LongitudeDegrees>
            </Position>
            <AltitudeMeters>-7.19999980926513671875</AltitudeMeters>
            <DistanceMeters>NAN</DistanceMeters>
          </Trackpoint>
          <Trackpoint>
            <Time>2021-08-12T12:42:15.000Z</Time>
            <Position>
              <LatitudeDegrees>43.31191764213144779205322265625</LatitudeDegrees>
              <LongitudeDegrees>-2.00761844404041767120361328125</LongitudeDegrees>
            </Position>
            <AltitudeMeters>-7</AltitudeMeters>
            <DistanceMeters>NAN</DistanceMeters>
          </Trackpoint>
          <Trackpoint>
            <Time>2021-08-12T12:42:16.000Z</Time>
            <Position>
              <LatitudeDegrees>43.31191378645598888397216796875</LatitudeDegrees>
              <LongitudeDegrees>-2.0076252333819866180419921875</LongitudeDegrees>
            </Position>
            <AltitudeMeters>-7.19999980926513671875</AltitudeMeters>
            <DistanceMeters>NAN</DistanceMeters>
          </Trackpoint>
          <Trackpoint>
            <Time>2021-08-12T12:42:17.000Z</Time>
            <Position>
              <LatitudeDegrees>43.31190087832510471343994140625</LatitudeDegrees>
              <LongitudeDegrees>-2.00773612596094608306884765625</LongitudeDegrees>
            </Position>
            <AltitudeMeters>-7.19999980926513671875</AltitudeMeters>
            <DistanceMeters>NAN</DistanceMeters>
          </Trackpoint>
          <Trackpoint>
            <Time>2021-08-12T12:42:20.000Z</Time>
            <Position>
              <LatitudeDegrees>43.311868607997894287109375</LatitudeDegrees>
              <LongitudeDegrees>-2.00793779455125331878662109375</LongitudeDegrees>
            </Position>
            <AltitudeMeters>-7</AltitudeMeters>
            <DistanceMeters>NAN</DistanceMeters>
          </Trackpoint>
          <Trackpoint>
            <Time>2021-08-12T12:42:21.000Z</Time>
            <Position>
              <LatitudeDegrees>43.311852514743804931640625</LatitudeDegrees>
              <LongitudeDegrees>-2.00796947814524173736572265625</LongitudeDegrees>
            </Position>
            <AltitudeMeters>-7</AltitudeMeters>
            <DistanceMeters>NAN</DistanceMeters>
          </Trackpoint>
          <Trackpoint>
            <Time>2021-08-12T12:42:30.000Z</Time>
            <Position>
              <LatitudeDegrees>43.31169753335416316986083984375</LatitudeDegrees>
              <LongitudeDegrees>-2.00824457220733165740966796875</LongitudeDegrees>
            </Position>
            <AltitudeMeters>-7.19999980926513671875</AltitudeMeters>
            <DistanceMeters>NAN</DistanceMeters>
          </Trackpoint>
          <Trackpoint>
            <Time>2021-08-12T12:42:33.000Z</Time>
            <Position>
              <LatitudeDegrees>43.3116924203932285308837890625</LatitudeDegrees>
              <LongitudeDegrees>-2.00839594937860965728759765625</LongitudeDegrees>
            </Position>
            <AltitudeMeters>-7.400000095367431640625</AltitudeMeters>
            <DistanceMeters>NAN</DistanceMeters>
          </Trackpoint>
          <Trackpoint>
            <Time>2021-08-12T12:42:34.000Z</Time>
            <Position>
              <LatitudeDegrees>43.31170574761927127838134765625</LatitudeDegrees>
              <LongitudeDegrees>-2.008446156978607177734375</LongitudeDegrees>
            </Position>
            <AltitudeMeters>-7.400000095367431640625</AltitudeMeters>
            <DistanceMeters>NAN</DistanceMeters>
          </Trackpoint>
          <Trackpoint>
            <Time>2021-08-12T12:42:35.000Z</Time>
            <Position>
              <LatitudeDegrees>43.31171614117920398712158203125</LatitudeDegrees>
              <LongitudeDegrees>-2.00847239233553409576416015625</LongitudeDegrees>
            </Position>
            <AltitudeMeters>-7.400000095367431640625</AltitudeMeters>
            <DistanceMeters>NAN</DistanceMeters>
          </Trackpoint>
          <Trackpoint>
            <Time>2021-08-12T12:42:36.000Z</Time>
            <Position>
              <LatitudeDegrees>43.31171949394047260284423828125</LatitudeDegrees>
              <LongitudeDegrees>-2.0084798522293567657470703125</LongitudeDegrees>
            </Position>
            <AltitudeMeters>-7.400000095367431640625</AltitudeMeters>
            <DistanceMeters>NAN</DistanceMeters>
          </Trackpoint>
          <Trackpoint>
            <Time>2021-08-12T12:42:37.000Z</Time>
            <Position>
              <LatitudeDegrees>43.311725445091724395751953125</LatitudeDegrees>
              <LongitudeDegrees>-2.0084930956363677978515625</LongitudeDegrees>
            </Position>
            <AltitudeMeters>-7.400000095367431640625</AltitudeMeters>
            <DistanceMeters>NAN</DistanceMeters>
          </Trackpoint>
          <Trackpoint>
            <Time>2021-08-12T12:42:39.000Z</Time>
            <Position>
              <LatitudeDegrees>43.3117400296032428741455078125</LatitudeDegrees>
              <LongitudeDegrees>-2.00850407592952251434326171875</LongitudeDegrees>
            </Position>
            <AltitudeMeters>-7.400000095367431640625</AltitudeMeters>
            <DistanceMeters>NAN</DistanceMeters>
          </Trackpoint>
          <Trackpoint>
            <Time>2021-08-12T12:43:10.000Z</Time>
            <Position>
              <LatitudeDegrees>43.311820663511753082275390625</LatitudeDegrees>
              <LongitudeDegrees>-2.00851614587008953094482421875</LongitudeDegrees>
            </Position>
            <AltitudeMeters>-6.400000095367431640625</AltitudeMeters>
            <DistanceMeters>NAN</DistanceMeters>
          </Trackpoint>
          <Trackpoint>
            <Time>2021-08-12T12:43:47.000Z</Time>
            <Position>
              <LatitudeDegrees>43.31181161105632781982421875</LatitudeDegrees>
              <LongitudeDegrees>-2.00851497240364551544189453125</LongitudeDegrees>
            </Position>
            <AltitudeMeters>-6.80000019073486328125</AltitudeMeters>
            <DistanceMeters>NAN</DistanceMeters>
          </Trackpoint>
          <Trackpoint>
            <Time>2021-08-12T12:44:00.000Z</Time>
            <Position>
              <LatitudeDegrees>43.31179979257285594940185546875</LatitudeDegrees>
              <LongitudeDegrees>-2.00851882807910442352294921875</LongitudeDegrees>
            </Position>
            <AltitudeMeters>-7.400000095367431640625</AltitudeMeters>
            <DistanceMeters>NAN</DistanceMeters>
          </Trackpoint>
          <Trackpoint>
            <Time>2021-08-12T12:44:05.000Z</Time>
            <Position>
              <LatitudeDegrees>43.31179493106901645660400390625</LatitudeDegrees>
              <LongitudeDegrees>-2.00851983390748500823974609375</LongitudeDegrees>
            </Position>
            <AltitudeMeters>-7.400000095367431640625</AltitudeMeters>
            <DistanceMeters>NAN</DistanceMeters>
          </Trackpoint>
          <Trackpoint>
            <Time>2021-08-12T12:49:34.000Z</Time>
            <Position>
              <LatitudeDegrees>43.31179308705031871795654296875</LatitudeDegrees>
              <LongitudeDegrees>-2.0085861347615718841552734375</LongitudeDegrees>
            </Position>
            <AltitudeMeters>-6.599999904632568359375</AltitudeMeters>
            <DistanceMeters>NAN</DistanceMeters>
          </Trackpoint>
          <Trackpoint>
            <Time>2021-08-12T12:49:42.000Z</Time>
            <Position>
              <LatitudeDegrees>43.3117936737835407257080078125</LatitudeDegrees>
              <LongitudeDegrees>-2.0085854642093181610107421875</LongitudeDegrees>
            </Position>
            <AltitudeMeters>-6.599999904632568359375</AltitudeMeters>
            <DistanceMeters>NAN</DistanceMeters>
          </Trackpoint>
          <Trackpoint>
            <Time>2021-08-12T12:49:44.000Z</Time>
            <Position>
              <LatitudeDegrees>43.3117948472499847412109375</LatitudeDegrees>
              <LongitudeDegrees>-2.0085807703435420989990234375</LongitudeDegrees>
            </Position>
            <AltitudeMeters>-6.80000019073486328125</AltitudeMeters>
            <DistanceMeters>NAN</DistanceMeters>
          </Trackpoint>
          <Trackpoint>
            <Time>2021-08-12T12:49:45.000Z</Time>
            <Position>
              <LatitudeDegrees>43.31177665852010250091552734375</LatitudeDegrees>
              <LongitudeDegrees>-2.008573897182941436767578125</LongitudeDegrees>
            </Position>
            <AltitudeMeters>-6.80000019073486328125</AltitudeMeters>
            <DistanceMeters>NAN</DistanceMeters>
          </Trackpoint>
          <Trackpoint>
            <Time>2021-08-12T12:49:46.000Z</Time>
            <Position>
              <LatitudeDegrees>43.31176458857953548431396484375</LatitudeDegrees>
              <LongitudeDegrees>-2.0085800997912883758544921875</LongitudeDegrees>
            </Position>
            <AltitudeMeters>-6.80000019073486328125</AltitudeMeters>
            <DistanceMeters>NAN</DistanceMeters>
          </Trackpoint>
          <Trackpoint>
            <Time>2021-08-12T12:49:50.000Z</Time>
            <Position>
              <LatitudeDegrees>43.311736844480037689208984375</LatitudeDegrees>
              <LongitudeDegrees>-2.00865461491048336029052734375</LongitudeDegrees>
            </Position>
            <AltitudeMeters>-6.80000019073486328125</AltitudeMeters>
            <DistanceMeters>NAN</DistanceMeters>
          </Trackpoint>
          <Trackpoint>
            <Time>2021-08-12T12:49:51.000Z</Time>
            <Position>
              <LatitudeDegrees>43.31173382699489593505859375</LatitudeDegrees>
              <LongitudeDegrees>-2.00867154635488986968994140625</LongitudeDegrees>
            </Position>
            <AltitudeMeters>-6.599999904632568359375</AltitudeMeters>
            <DistanceMeters>NAN</DistanceMeters>
          </Trackpoint>
          <Trackpoint>
            <Time>2021-08-12T12:49:52.000Z</Time>
            <Position>
              <LatitudeDegrees>43.31172402016818523406982421875</LatitudeDegrees>
              <LongitudeDegrees>-2.00868579559028148651123046875</LongitudeDegrees>
            </Position>
            <AltitudeMeters>-6.80000019073486328125</AltitudeMeters>
            <DistanceMeters>NAN</DistanceMeters>
          </Trackpoint>
          <Trackpoint>
            <Time>2021-08-12T12:49:53.000Z</Time>
            <Position>
              <LatitudeDegrees>43.31170641817152500152587890625</LatitudeDegrees>
              <LongitudeDegrees>-2.00869895517826080322265625</LongitudeDegrees>
            </Position>
            <AltitudeMeters>-6.80000019073486328125</AltitudeMeters>
            <DistanceMeters>NAN</DistanceMeters>
          </Trackpoint>
          <Trackpoint>
            <Time>2021-08-12T12:49:54.000Z</Time>
            <Position>
              <LatitudeDegrees>43.311688899993896484375</LatitudeDegrees>
              <LongitudeDegrees>-2.00871513225138187408447265625</LongitudeDegrees>
            </Position>
            <AltitudeMeters>-6.80000019073486328125</AltitudeMeters>
            <DistanceMeters>NAN</DistanceMeters>
          </Trackpoint>
          <Trackpoint>
            <Time>2021-08-12T12:49:55.000Z</Time>
            <Position>
              <LatitudeDegrees>43.31167054362595081329345703125</LatitudeDegrees>
              <LongitudeDegrees>-2.008724100887775421142578125</LongitudeDegrees>
            </Position>
            <AltitudeMeters>-6.80000019073486328125</AltitudeMeters>
            <DistanceMeters>NAN</DistanceMeters>
          </Trackpoint>
          <Trackpoint>
            <Time>2021-08-12T12:49:56.000Z</Time>
            <Position>
              <LatitudeDegrees>43.31164875067770481109619140625</LatitudeDegrees>
              <LongitudeDegrees>-2.00872049666941165924072265625</LongitudeDegrees>
            </Position>
            <AltitudeMeters>-6.80000019073486328125</AltitudeMeters>
            <DistanceMeters>NAN</DistanceMeters>
          </Trackpoint>
          <Trackpoint>
            <Time>2021-08-12T12:49:58.000Z</Time>
            <Position>
              <LatitudeDegrees>43.31161572597920894622802734375</LatitudeDegrees>
              <LongitudeDegrees>-2.0086957700550556182861328125</LongitudeDegrees>
            </Position>
            <AltitudeMeters>-6.599999904632568359375</AltitudeMeters>
            <DistanceMeters>NAN</DistanceMeters>
          </Trackpoint>
          <Trackpoint>
            <Time>2021-08-12T12:49:59.000Z</Time>
            <Position>
              <LatitudeDegrees>43.31159963272511959075927734375</LatitudeDegrees>
              <LongitudeDegrees>-2.00867640785872936248779296875</LongitudeDegrees>
            </Position>
            <AltitudeMeters>-6.599999904632568359375</AltitudeMeters>
            <DistanceMeters>NAN</DistanceMeters>
          </Trackpoint>
          <Trackpoint>
            <Time>2021-08-12T12:50:00.000Z</Time>
            <Position>
              <LatitudeDegrees>43.31159007735550403594970703125</LatitudeDegrees>
              <LongitudeDegrees>-2.0086642540991306304931640625</LongitudeDegrees>
            </Position>
            <AltitudeMeters>-6.599999904632568359375</AltitudeMeters>
            <DistanceMeters>NAN</DistanceMeters>
          </Trackpoint>
          <Trackpoint>
            <Time>2021-08-12T12:50:01.000Z</Time>
            <Position>
              <LatitudeDegrees>43.3115883171558380126953125</LatitudeDegrees>
              <LongitudeDegrees>-2.0086598955094814300537109375</LongitudeDegrees>
            </Position>
            <AltitudeMeters>-6.599999904632568359375</AltitudeMeters>
            <DistanceMeters>NAN</DistanceMeters>
          </Trackpoint>
          <Trackpoint>
            <Time>2021-08-12T12:50:04.000Z</Time>
            <Position>
              <LatitudeDegrees>43.3116132952272891998291015625</LatitudeDegrees>
              <LongitudeDegrees>-2.00867724604904651641845703125</LongitudeDegrees>
            </Position>
            <AltitudeMeters>-6.599999904632568359375</AltitudeMeters>
            <DistanceMeters>NAN</DistanceMeters>
          </Trackpoint>
          <Trackpoint>
            <Time>2021-08-12T12:50:05.000Z</Time>
            <Position>
              <LatitudeDegrees>43.31163592636585235595703125</LatitudeDegrees>
              <LongitudeDegrees>-2.00868956744670867919921875</LongitudeDegrees>
            </Position>
            <AltitudeMeters>-6.599999904632568359375</AltitudeMeters>
            <DistanceMeters>NAN</DistanceMeters>
          </Trackpoint>
          <Trackpoint>
            <Time>2021-08-12T12:50:08.000Z</Time>
            <Position>
              <LatitudeDegrees>43.311578929424285888671875</LatitudeDegrees>
              <LongitudeDegrees>-2.008596360683441162109375</LongitudeDegrees>
            </Position>
            <AltitudeMeters>-6.400000095367431640625</AltitudeMeters>
            <DistanceMeters>NAN</DistanceMeters>
          </Trackpoint>
          <Trackpoint>
            <Time>2021-08-12T12:50:09.000Z</Time>
            <Position>
              <LatitudeDegrees>43.31156007014214992523193359375</LatitudeDegrees>
              <LongitudeDegrees>-2.0085619948804378509521484375</LongitudeDegrees>
            </Position>
            <AltitudeMeters>-6.400000095367431640625</AltitudeMeters>
            <DistanceMeters>NAN</DistanceMeters>
          </Trackpoint>
          <Trackpoint>
            <Time>2021-08-12T12:50:10.000Z</Time>
            <Position>
              <LatitudeDegrees>43.31152989529073238372802734375</LatitudeDegrees>
              <LongitudeDegrees>-2.0085157267749309539794921875</LongitudeDegrees>
            </Position>
            <AltitudeMeters>-6.400000095367431640625</AltitudeMeters>
            <DistanceMeters>NAN</DistanceMeters>
          </Trackpoint>
          <Trackpoint>
            <Time>2021-08-12T12:50:12.000Z</Time>
            <Position>
              <LatitudeDegrees>43.31148304045200347900390625</LatitudeDegrees>
              <LongitudeDegrees>-2.00843743979930877685546875</LongitudeDegrees>
            </Position>
            <AltitudeMeters>-6.400000095367431640625</AltitudeMeters>
            <DistanceMeters>NAN</DistanceMeters>
          </Trackpoint>
          <Trackpoint>
            <Time>2021-08-12T12:50:16.000Z</Time>
            <Position>
              <LatitudeDegrees>43.3113675378262996673583984375</LatitudeDegrees>
              <LongitudeDegrees>-2.00831732712686061859130859375</LongitudeDegrees>
            </Position>
            <AltitudeMeters>-6.19999980926513671875</AltitudeMeters>
            <DistanceMeters>NAN</DistanceMeters>
          </Trackpoint>
          <Trackpoint>
            <Time>2021-08-12T12:50:17.000Z</Time>
            <Position>
              <LatitudeDegrees>43.3113316632807254791259765625</LatitudeDegrees>
              <LongitudeDegrees>-2.0082719810307025909423828125</LongitudeDegrees>
            </Position>
            <AltitudeMeters>-6</AltitudeMeters>
            <DistanceMeters>NAN</DistanceMeters>
          </Trackpoint>
          <Trackpoint>
            <Time>2021-08-12T12:50:18.000Z</Time>
            <Position>
              <LatitudeDegrees>43.31131565384566783905029296875</LatitudeDegrees>
              <LongitudeDegrees>-2.00821347534656524658203125</LongitudeDegrees>
            </Position>
            <AltitudeMeters>-6</AltitudeMeters>
            <DistanceMeters>NAN</DistanceMeters>
          </Trackpoint>
          <Trackpoint>
            <Time>2021-08-12T12:50:19.000Z</Time>
            <Position>
              <LatitudeDegrees>43.31129520200192928314208984375</LatitudeDegrees>
              <LongitudeDegrees>-2.0081658661365509033203125</LongitudeDegrees>
            </Position>
            <AltitudeMeters>-5.80000019073486328125</AltitudeMeters>
            <DistanceMeters>NAN</DistanceMeters>
          </Trackpoint>
          <Trackpoint>
            <Time>2021-08-12T12:50:22.000Z</Time>
            <Position>
              <LatitudeDegrees>43.311198055744171142578125</LatitudeDegrees>
              <LongitudeDegrees>-2.0080371201038360595703125</LongitudeDegrees>
            </Position>
            <AltitudeMeters>-5.599999904632568359375</AltitudeMeters>
            <DistanceMeters>NAN</DistanceMeters>
          </Trackpoint>
          <Trackpoint>
            <Time>2021-08-12T12:50:23.000Z</Time>
            <Position>
              <LatitudeDegrees>43.31112873740494251251220703125</LatitudeDegrees>
              <LongitudeDegrees>-2.00800417922437191009521484375</LongitudeDegrees>
            </Position>
            <AltitudeMeters>-5.599999904632568359375</AltitudeMeters>
            <DistanceMeters>NAN</DistanceMeters>
          </Trackpoint>
          <Trackpoint>
            <Time>2021-08-12T12:50:24.000Z</Time>
            <Position>
              <LatitudeDegrees>43.3110812120139598846435546875</LatitudeDegrees>
              <LongitudeDegrees>-2.00797132216393947601318359375</LongitudeDegrees>
            </Position>
            <AltitudeMeters>-5.400000095367431640625</AltitudeMeters>
            <DistanceMeters>NAN</DistanceMeters>
          </Trackpoint>
          <Trackpoint>
            <Time>2021-08-12T12:50:29.000Z</Time>
            <Position>
              <LatitudeDegrees>43.31091281957924365997314453125</LatitudeDegrees>
              <LongitudeDegrees>-2.00781290419399738311767578125</LongitudeDegrees>
            </Position>
            <AltitudeMeters>-5.19999980926513671875</AltitudeMeters>
            <DistanceMeters>NAN</DistanceMeters>
          </Trackpoint>
          <Trackpoint>
            <Time>2021-08-12T12:50:31.000Z</Time>
            <Position>
              <LatitudeDegrees>43.3108545653522014617919921875</LatitudeDegrees>
              <LongitudeDegrees>-2.007759511470794677734375</LongitudeDegrees>
            </Position>
            <AltitudeMeters>-5.19999980926513671875</AltitudeMeters>
            <DistanceMeters>NAN</DistanceMeters>
          </Trackpoint>
          <Trackpoint>
            <Time>2021-08-12T12:50:32.000Z</Time>
            <Position>
              <LatitudeDegrees>43.31083486787974834442138671875</LatitudeDegrees>
              <LongitudeDegrees>-2.00773444958031177520751953125</LongitudeDegrees>
            </Position>
            <AltitudeMeters>-5.19999980926513671875</AltitudeMeters>
            <DistanceMeters>NAN</DistanceMeters>
          </Trackpoint>
          <Trackpoint>
            <Time>2021-08-12T12:50:33.000Z</Time>
            <Position>
              <LatitudeDegrees>43.310812152922153472900390625</LatitudeDegrees>
              <LongitudeDegrees>-2.007707543671131134033203125</LongitudeDegrees>
            </Position>
            <AltitudeMeters>-5.19999980926513671875</AltitudeMeters>
            <DistanceMeters>NAN</DistanceMeters>
          </Trackpoint>
          <Trackpoint>
            <Time>2021-08-12T12:50:34.000Z</Time>
            <Position>
              <LatitudeDegrees>43.31079513765871524810791015625</LatitudeDegrees>
              <LongitudeDegrees>-2.00769270770251750946044921875</LongitudeDegrees>
            </Position>
            <AltitudeMeters>-5</AltitudeMeters>
            <DistanceMeters>NAN</DistanceMeters>
          </Trackpoint>
          <Trackpoint>
            <Time>2021-08-12T12:50:35.000Z</Time>
            <Position>
              <LatitudeDegrees>43.3107774518430233001708984375</LatitudeDegrees>
              <LongitudeDegrees>-2.00767393223941326141357421875</LongitudeDegrees>
            </Position>
            <AltitudeMeters>-5</AltitudeMeters>
            <DistanceMeters>NAN</DistanceMeters>
          </Trackpoint>
          <Trackpoint>
            <Time>2021-08-12T12:50:36.000Z</Time>
            <Position>
              <LatitudeDegrees>43.310747109353542327880859375</LatitudeDegrees>
              <LongitudeDegrees>-2.00765264220535755157470703125</LongitudeDegrees>
            </Position>
            <AltitudeMeters>-5</AltitudeMeters>
            <DistanceMeters>NAN</DistanceMeters>
          </Trackpoint>
          <Trackpoint>
            <Time>2021-08-12T12:50:37.000Z</Time>
            <Position>
              <LatitudeDegrees>43.3107273280620574951171875</LatitudeDegrees>
              <LongitudeDegrees>-2.00764610432088375091552734375</LongitudeDegrees>
            </Position>
            <AltitudeMeters>-5</AltitudeMeters>
            <DistanceMeters>NAN</DistanceMeters>
          </Trackpoint>
          <Trackpoint>
            <Time>2021-08-12T12:50:38.000Z</Time>
            <Position>
              <LatitudeDegrees>43.31073009409010410308837890625</LatitudeDegrees>
              <LongitudeDegrees>-2.00763143599033355712890625</LongitudeDegrees>
            </Position>
            <AltitudeMeters>-4.80000019073486328125</AltitudeMeters>
            <DistanceMeters>NAN</DistanceMeters>
          </Trackpoint>
          <Trackpoint>
            <Time>2021-08-12T12:50:39.000Z</Time>
            <Position>
              <LatitudeDegrees>43.3107675611972808837890625</LatitudeDegrees>
              <LongitudeDegrees>-2.00763789005577564239501953125</LongitudeDegrees>
            </Position>
            <AltitudeMeters>-4.80000019073486328125</AltitudeMeters>
            <DistanceMeters>NAN</DistanceMeters>
          </Trackpoint>
          <Trackpoint>
            <Time>2021-08-12T12:50:40.000Z</Time>
            <Position>
              <LatitudeDegrees>43.31078122369945049285888671875</LatitudeDegrees>
              <LongitudeDegrees>-2.0076321065425872802734375</LongitudeDegrees>
            </Position>
            <AltitudeMeters>-4.80000019073486328125</AltitudeMeters>
            <DistanceMeters>NAN</DistanceMeters>
          </Trackpoint>
          <Trackpoint>
            <Time>2021-08-12T12:50:41.000Z</Time>
            <Position>
              <LatitudeDegrees>43.31077761948108673095703125</LatitudeDegrees>
              <LongitudeDegrees>-2.00762607157230377197265625</LongitudeDegrees>
            </Position>
            <AltitudeMeters>-4.80000019073486328125</AltitudeMeters>
            <DistanceMeters>NAN</DistanceMeters>
          </Trackpoint>
          <Trackpoint>
            <Time>2021-08-12T12:50:42.000Z</Time>
            <Position>
              <LatitudeDegrees>43.3107757754623889923095703125</LatitudeDegrees>
              <LongitudeDegrees>-2.00760637409985065460205078125</LongitudeDegrees>
            </Position>
            <AltitudeMeters>-4.80000019073486328125</AltitudeMeters>
            <DistanceMeters>NAN</DistanceMeters>
          </Trackpoint>
          <Trackpoint>
            <Time>2021-08-12T12:50:43.000Z</Time>
            <Position>
              <LatitudeDegrees>43.3107757754623889923095703125</LatitudeDegrees>
              <LongitudeDegrees>-2.00758743099868297576904296875</LongitudeDegrees>
            </Position>
            <AltitudeMeters>-4.80000019073486328125</AltitudeMeters>
            <DistanceMeters>NAN</DistanceMeters>
          </Trackpoint>
          <Trackpoint>
            <Time>2021-08-12T12:50:44.000Z</Time>
            <Position>
              <LatitudeDegrees>43.3107777871191501617431640625</LatitudeDegrees>
              <LongitudeDegrees>-2.00757737271487712860107421875</LongitudeDegrees>
            </Position>
            <AltitudeMeters>-4.80000019073486328125</AltitudeMeters>
            <DistanceMeters>NAN</DistanceMeters>
          </Trackpoint>
          <Trackpoint>
            <Time>2021-08-12T12:50:45.000Z</Time>
            <Position>
              <LatitudeDegrees>43.31078038550913333892822265625</LatitudeDegrees>
              <LongitudeDegrees>-2.00756597332656383514404296875</LongitudeDegrees>
            </Position>
            <AltitudeMeters>-5</AltitudeMeters>
            <DistanceMeters>NAN</DistanceMeters>
          </Trackpoint>
          <Trackpoint>
            <Time>2021-08-12T12:50:46.000Z</Time>
            <Position>
              <LatitudeDegrees>43.31078038550913333892822265625</LatitudeDegrees>
              <LongitudeDegrees>-2.007553987205028533935546875</LongitudeDegrees>
            </Position>
            <AltitudeMeters>-5</AltitudeMeters>
            <DistanceMeters>NAN</DistanceMeters>
          </Trackpoint>
          <Trackpoint>
            <Time>2021-08-12T12:50:47.000Z</Time>
            <Position>
              <LatitudeDegrees>43.31078139133751392364501953125</LatitudeDegrees>
              <LongitudeDegrees>-2.00754082761704921722412109375</LongitudeDegrees>
            </Position>
            <AltitudeMeters>-5</AltitudeMeters>
            <DistanceMeters>NAN</DistanceMeters>
          </Trackpoint>
          <Trackpoint>
            <Time>2021-08-12T12:50:48.000Z</Time>
            <Position>
              <LatitudeDegrees>43.31078876741230487823486328125</LatitudeDegrees>
              <LongitudeDegrees>-2.007531858980655670166015625</LongitudeDegrees>
            </Position>
            <AltitudeMeters>-5</AltitudeMeters>
            <DistanceMeters>NAN</DistanceMeters>
          </Trackpoint>
          <Trackpoint>
            <Time>2021-08-12T12:50:49.000Z</Time>
            <Position>
              <LatitudeDegrees>43.31079304218292236328125</LatitudeDegrees>
              <LongitudeDegrees>-2.0075236447155475616455078125</LongitudeDegrees>
            </Position>
            <AltitudeMeters>-5</AltitudeMeters>
            <DistanceMeters>NAN</DistanceMeters>
          </Trackpoint>
          <Trackpoint>
            <Time>2021-08-12T12:50:50.000Z</Time>
            <Position>
              <LatitudeDegrees>43.310789354145526885986328125</LatitudeDegrees>
              <LongitudeDegrees>-2.00751299969851970672607421875</LongitudeDegrees>
            </Position>
            <AltitudeMeters>-5.19999980926513671875</AltitudeMeters>
            <DistanceMeters>NAN</DistanceMeters>
          </Trackpoint>
          <Trackpoint>
            <Time>2021-08-12T12:50:51.000Z</Time>
            <Position>
              <LatitudeDegrees>43.3107881806790828704833984375</LatitudeDegrees>
              <LongitudeDegrees>-2.007499672472476959228515625</LongitudeDegrees>
            </Position>
            <AltitudeMeters>-5.19999980926513671875</AltitudeMeters>
            <DistanceMeters>NAN</DistanceMeters>
          </Trackpoint>
          <Trackpoint>
            <Time>2021-08-12T12:50:54.000Z</Time>
            <Position>
              <LatitudeDegrees>43.31078457646071910858154296875</LatitudeDegrees>
              <LongitudeDegrees>-2.00748718343675136566162109375</LongitudeDegrees>
            </Position>
            <AltitudeMeters>-5.19999980926513671875</AltitudeMeters>
            <DistanceMeters>NAN</DistanceMeters>
          </Trackpoint>
          <Trackpoint>
            <Time>2021-08-12T12:51:06.000Z</Time>
            <Position>
              <LatitudeDegrees>43.31072221510112285614013671875</LatitudeDegrees>
              <LongitudeDegrees>-2.0075015164911746978759765625</LongitudeDegrees>
            </Position>
            <AltitudeMeters>-5.400000095367431640625</AltitudeMeters>
            <DistanceMeters>NAN</DistanceMeters>
          </Trackpoint>
          <Trackpoint>
            <Time>2021-08-12T12:51:16.000Z</Time>
            <Position>
              <LatitudeDegrees>43.31065868027508258819580078125</LatitudeDegrees>
              <LongitudeDegrees>-2.00747326947748661041259765625</LongitudeDegrees>
            </Position>
            <AltitudeMeters>-5.400000095367431640625</AltitudeMeters>
            <DistanceMeters>NAN</DistanceMeters>
          </Trackpoint>
          <Trackpoint>
            <Time>2021-08-12T12:51:17.000Z</Time>
            <Position>
              <LatitudeDegrees>43.31063688732683658599853515625</LatitudeDegrees>
              <LongitudeDegrees>-2.00745650567114353179931640625</LongitudeDegrees>
            </Position>
            <AltitudeMeters>-5.400000095367431640625</AltitudeMeters>
            <DistanceMeters>NAN</DistanceMeters>
          </Trackpoint>
          <Trackpoint>
            <Time>2021-08-12T12:51:18.000Z</Time>
            <Position>
              <LatitudeDegrees>43.310615681111812591552734375</LatitudeDegrees>
              <LongitudeDegrees>-2.00743773020803928375244140625</LongitudeDegrees>
            </Position>
            <AltitudeMeters>-5.400000095367431640625</AltitudeMeters>
            <DistanceMeters>NAN</DistanceMeters>
          </Trackpoint>
          <Trackpoint>
            <Time>2021-08-12T12:51:20.000Z</Time>
            <Position>
              <LatitudeDegrees>43.31057050265371799468994140625</LatitudeDegrees>
              <LongitudeDegrees>-2.007419876754283905029296875</LongitudeDegrees>
            </Position>
            <AltitudeMeters>-5.400000095367431640625</AltitudeMeters>
            <DistanceMeters>NAN</DistanceMeters>
          </Trackpoint>
          <Trackpoint>
            <Time>2021-08-12T12:51:21.000Z</Time>
            <Position>
              <LatitudeDegrees>43.31055105663836002349853515625</LatitudeDegrees>
              <LongitudeDegrees>-2.00740571133792400360107421875</LongitudeDegrees>
            </Position>
            <AltitudeMeters>-5.400000095367431640625</AltitudeMeters>
            <DistanceMeters>NAN</DistanceMeters>
          </Trackpoint>
          <Trackpoint>
            <Time>2021-08-12T12:51:22.000Z</Time>
            <Position>
              <LatitudeDegrees>43.31053831614553928375244140625</LatitudeDegrees>
              <LongitudeDegrees>-2.00738391838967800140380859375</LongitudeDegrees>
            </Position>
            <AltitudeMeters>-5.19999980926513671875</AltitudeMeters>
            <DistanceMeters>NAN</DistanceMeters>
          </Trackpoint>
          <Trackpoint>
            <Time>2021-08-12T12:51:23.000Z</Time>
            <Position>
              <LatitudeDegrees>43.3105226419866085052490234375</LatitudeDegrees>
              <LongitudeDegrees>-2.00736589729785919189453125</LongitudeDegrees>
            </Position>
            <AltitudeMeters>-5.19999980926513671875</AltitudeMeters>
            <DistanceMeters>NAN</DistanceMeters>
          </Trackpoint>
          <Trackpoint>
            <Time>2021-08-12T12:51:24.000Z</Time>
            <Position>
              <LatitudeDegrees>43.3105047047138214111328125</LatitudeDegrees>
              <LongitudeDegrees>-2.00735173188149929046630859375</LongitudeDegrees>
            </Position>
            <AltitudeMeters>-5.19999980926513671875</AltitudeMeters>
            <DistanceMeters>NAN</DistanceMeters>
          </Trackpoint>
          <Trackpoint>
            <Time>2021-08-12T12:51:26.000Z</Time>
            <Position>
              <LatitudeDegrees>43.31048366613686084747314453125</LatitudeDegrees>
              <LongitudeDegrees>-2.00732432305812835693359375</LongitudeDegrees>
            </Position>
            <AltitudeMeters>-5.19999980926513671875</AltitudeMeters>
            <DistanceMeters>NAN</DistanceMeters>
          </Trackpoint>
          <Trackpoint>
            <Time>2021-08-12T12:51:27.000Z</Time>
            <Position>
              <LatitudeDegrees>43.3104874379932880401611328125</LatitudeDegrees>
              <LongitudeDegrees>-2.00731501914560794830322265625</LongitudeDegrees>
            </Position>
            <AltitudeMeters>-5.19999980926513671875</AltitudeMeters>
            <DistanceMeters>NAN</DistanceMeters>
          </Trackpoint>
          <Trackpoint>
            <Time>2021-08-12T12:51:28.000Z</Time>
            <Position>
              <LatitudeDegrees>43.3104814030230045318603515625</LatitudeDegrees>
              <LongitudeDegrees>-2.00730529613792896270751953125</LongitudeDegrees>
            </Position>
            <AltitudeMeters>-5.19999980926513671875</AltitudeMeters>
            <DistanceMeters>NAN</DistanceMeters>
          </Trackpoint>
          <Trackpoint>
            <Time>2021-08-12T12:51:29.000Z</Time>
            <Position>
              <LatitudeDegrees>43.3104663155972957611083984375</LatitudeDegrees>
              <LongitudeDegrees>-2.00729238800704479217529296875</LongitudeDegrees>
            </Position>
            <AltitudeMeters>-5.19999980926513671875</AltitudeMeters>
            <DistanceMeters>NAN</DistanceMeters>
          </Trackpoint>
          <Trackpoint>
            <Time>2021-08-12T12:51:30.000Z</Time>
            <Position>
              <LatitudeDegrees>43.31044502556324005126953125</LatitudeDegrees>
              <LongitudeDegrees>-2.00727998279035091400146484375</LongitudeDegrees>
            </Position>
            <AltitudeMeters>-5.19999980926513671875</AltitudeMeters>
            <DistanceMeters>NAN</DistanceMeters>
          </Trackpoint>
          <Trackpoint>
            <Time>2021-08-12T12:51:31.000Z</Time>
            <Position>
              <LatitudeDegrees>43.3104203827679157257080078125</LatitudeDegrees>
              <LongitudeDegrees>-2.0072587765753269195556640625</LongitudeDegrees>
            </Position>
            <AltitudeMeters>-5.400000095367431640625</AltitudeMeters>
            <DistanceMeters>NAN</DistanceMeters>
          </Trackpoint>
          <Trackpoint>
            <Time>2021-08-12T12:51:33.000Z</Time>
            <Position>
              <LatitudeDegrees>43.3103784732520580291748046875</LatitudeDegrees>
              <LongitudeDegrees>-2.00720806606113910675048828125</LongitudeDegrees>
            </Position>
            <AltitudeMeters>-5.400000095367431640625</AltitudeMeters>
            <DistanceMeters>NAN</DistanceMeters>
          </Trackpoint>
          <Trackpoint>
            <Time>2021-08-12T12:51:41.000Z</Time>
            <Position>
              <LatitudeDegrees>43.31021410413086414337158203125</LatitudeDegrees>
              <LongitudeDegrees>-2.00702584348618984222412109375</LongitudeDegrees>
            </Position>
            <AltitudeMeters>-5.19999980926513671875</AltitudeMeters>
            <DistanceMeters>NAN</DistanceMeters>
          </Trackpoint>
          <Trackpoint>
            <Time>2021-08-12T12:51:43.000Z</Time>
            <Position>
              <LatitudeDegrees>43.31019214354455471038818359375</LatitudeDegrees>
              <LongitudeDegrees>-2.00697504915297031402587890625</LongitudeDegrees>
            </Position>
            <AltitudeMeters>-5.19999980926513671875</AltitudeMeters>
            <DistanceMeters>NAN</DistanceMeters>
          </Trackpoint>
          <Trackpoint>
            <Time>2021-08-12T12:51:45.000Z</Time>
            <Position>
              <LatitudeDegrees>43.31017185933887958526611328125</LatitudeDegrees>
              <LongitudeDegrees>-2.0069399289786815643310546875</LongitudeDegrees>
            </Position>
            <AltitudeMeters>-5.19999980926513671875</AltitudeMeters>
            <DistanceMeters>NAN</DistanceMeters>
          </Trackpoint>
          <Trackpoint>
            <Time>2021-08-12T12:51:46.000Z</Time>
            <Position>
              <LatitudeDegrees>43.31016900949180126190185546875</LatitudeDegrees>
              <LongitudeDegrees>-2.00692442245781421661376953125</LongitudeDegrees>
            </Position>
            <AltitudeMeters>-5.19999980926513671875</AltitudeMeters>
            <DistanceMeters>NAN</DistanceMeters>
          </Trackpoint>
          <Trackpoint>
            <Time>2021-08-12T12:51:47.000Z</Time>
            <Position>
              <LatitudeDegrees>43.31016632728278636932373046875</LatitudeDegrees>
              <LongitudeDegrees>-2.00690749101340770721435546875</LongitudeDegrees>
            </Position>
            <AltitudeMeters>-5.19999980926513671875</AltitudeMeters>
            <DistanceMeters>NAN</DistanceMeters>
          </Trackpoint>
          <Trackpoint>
            <Time>2021-08-12T12:51:48.000Z</Time>
            <Position>
              <LatitudeDegrees>43.3101659081876277923583984375</LatitudeDegrees>
              <LongitudeDegrees>-2.006888799369335174560546875</LongitudeDegrees>
            </Position>
            <AltitudeMeters>-5.19999980926513671875</AltitudeMeters>
            <DistanceMeters>NAN</DistanceMeters>
          </Trackpoint>
          <Trackpoint>
            <Time>2021-08-12T12:51:49.000Z</Time>
            <Position>
              <LatitudeDegrees>43.31016716547310352325439453125</LatitudeDegrees>
              <LongitudeDegrees>-2.00687111355364322662353515625</LongitudeDegrees>
            </Position>
            <AltitudeMeters>-5.19999980926513671875</AltitudeMeters>
            <DistanceMeters>NAN</DistanceMeters>
          </Trackpoint>
          <Trackpoint>
            <Time>2021-08-12T12:51:50.000Z</Time>
            <Position>
              <LatitudeDegrees>43.31017269752919673919677734375</LatitudeDegrees>
              <LongitudeDegrees>-2.006852924823760986328125</LongitudeDegrees>
            </Position>
            <AltitudeMeters>-5.19999980926513671875</AltitudeMeters>
            <DistanceMeters>NAN</DistanceMeters>
          </Trackpoint>
          <Trackpoint>
            <Time>2021-08-12T12:51:51.000Z</Time>
            <Position>
              <LatitudeDegrees>43.31018292345106601715087890625</LatitudeDegrees>
              <LongitudeDegrees>-2.006831467151641845703125</LongitudeDegrees>
            </Position>
            <AltitudeMeters>-5.19999980926513671875</AltitudeMeters>
            <DistanceMeters>NAN</DistanceMeters>
          </Trackpoint>
          <Trackpoint>
            <Time>2021-08-12T12:51:52.000Z</Time>
            <Position>
              <LatitudeDegrees>43.31019583158195018768310546875</LatitudeDegrees>
              <LongitudeDegrees>-2.00680975802242755889892578125</LongitudeDegrees>
            </Position>
            <AltitudeMeters>-5.19999980926513671875</AltitudeMeters>
            <DistanceMeters>NAN</DistanceMeters>
          </Trackpoint>
          <Trackpoint>
            <Time>2021-08-12T12:51:53.000Z</Time>
            <Position>
              <LatitudeDegrees>43.3102094940841197967529296875</LatitudeDegrees>
              <LongitudeDegrees>-2.00678930617868900299072265625</LongitudeDegrees>
            </Position>
            <AltitudeMeters>-5.19999980926513671875</AltitudeMeters>
            <DistanceMeters>NAN</DistanceMeters>
          </Trackpoint>
          <Trackpoint>
            <Time>2021-08-12T12:51:54.000Z</Time>
            <Position>
              <LatitudeDegrees>43.310222066938877105712890625</LatitudeDegrees>
              <LongitudeDegrees>-2.00677019543945789337158203125</LongitudeDegrees>
            </Position>
            <AltitudeMeters>-5</AltitudeMeters>
            <DistanceMeters>NAN</DistanceMeters>
          </Trackpoint>
          <Trackpoint>
            <Time>2021-08-12T12:51:55.000Z</Time>
            <Position>
              <LatitudeDegrees>43.31023639999330043792724609375</LatitudeDegrees>
              <LongitudeDegrees>-2.00675971806049346923828125</LongitudeDegrees>
            </Position>
            <AltitudeMeters>-5</AltitudeMeters>
            <DistanceMeters>NAN</DistanceMeters>
          </Trackpoint>
          <Trackpoint>
            <Time>2021-08-12T12:51:56.000Z</Time>
            <Position>
              <LatitudeDegrees>43.3102473802864551544189453125</LatitudeDegrees>
              <LongitudeDegrees>-2.00675041414797306060791015625</LongitudeDegrees>
            </Position>
            <AltitudeMeters>-4.80000019073486328125</AltitudeMeters>
            <DistanceMeters>NAN</DistanceMeters>
          </Trackpoint>
          <Trackpoint>
            <Time>2021-08-12T12:51:57.000Z</Time>
            <Position>
              <LatitudeDegrees>43.3102514035999774932861328125</LatitudeDegrees>
              <LongitudeDegrees>-2.00674052350223064422607421875</LongitudeDegrees>
            </Position>
            <AltitudeMeters>-4.599999904632568359375</AltitudeMeters>
            <DistanceMeters>NAN</DistanceMeters>
          </Trackpoint>
          <Trackpoint>
            <Time>2021-08-12T12:51:58.000Z</Time>
            <Position>
              <LatitudeDegrees>43.3102567680180072784423828125</LatitudeDegrees>
              <LongitudeDegrees>-2.0067310519516468048095703125</LongitudeDegrees>
            </Position>
            <AltitudeMeters>-4.599999904632568359375</AltitudeMeters>
            <DistanceMeters>NAN</DistanceMeters>
          </Trackpoint>
          <Trackpoint>
            <Time>2021-08-12T12:51:59.000Z</Time>
            <Position>
              <LatitudeDegrees>43.31026389263570308685302734375</LatitudeDegrees>
              <LongitudeDegrees>-2.0067209936678409576416015625</LongitudeDegrees>
            </Position>
            <AltitudeMeters>-4.400000095367431640625</AltitudeMeters>
            <DistanceMeters>NAN</DistanceMeters>
          </Trackpoint>
          <Trackpoint>
            <Time>2021-08-12T12:52:00.000Z</Time>
            <Position>
              <LatitudeDegrees>43.3102661557495594024658203125</LatitudeDegrees>
              <LongitudeDegrees>-2.0067146234214305877685546875</LongitudeDegrees>
            </Position>
            <AltitudeMeters>-4.400000095367431640625</AltitudeMeters>
            <DistanceMeters>NAN</DistanceMeters>
          </Trackpoint>
          <Trackpoint>
            <Time>2021-08-12T12:52:01.000Z</Time>
            <Position>
              <LatitudeDegrees>43.31026607193052768707275390625</LatitudeDegrees>
              <LongitudeDegrees>-2.0067121088504791259765625</LongitudeDegrees>
            </Position>
            <AltitudeMeters>-4.400000095367431640625</AltitudeMeters>
            <DistanceMeters>NAN</DistanceMeters>
          </Trackpoint>
          <Trackpoint>
            <Time>2021-08-12T12:52:03.000Z</Time>
            <Position>
              <LatitudeDegrees>43.31025014631450176239013671875</LatitudeDegrees>
              <LongitudeDegrees>-2.00671286322176456451416015625</LongitudeDegrees>
            </Position>
            <AltitudeMeters>-4.400000095367431640625</AltitudeMeters>
            <DistanceMeters>NAN</DistanceMeters>
          </Trackpoint>
          <Trackpoint>
            <Time>2021-08-12T13:33:49.000Z</Time>
            <Position>
              <LatitudeDegrees>43.310380317270755767822265625</LatitudeDegrees>
              <LongitudeDegrees>-2.00664010830223560333251953125</LongitudeDegrees>
            </Position>
            <AltitudeMeters>-11.3999996185302734375</AltitudeMeters>
            <DistanceMeters>NAN</DistanceMeters>
          </Trackpoint>
          <Trackpoint>
            <Time>2021-08-12T13:33:54.000Z</Time>
            <Position>
              <LatitudeDegrees>43.3103586919605731964111328125</LatitudeDegrees>
              <LongitudeDegrees>-2.00663558207452297210693359375</LongitudeDegrees>
            </Position>
            <AltitudeMeters>-11.3999996185302734375</AltitudeMeters>
            <DistanceMeters>NAN</DistanceMeters>
          </Trackpoint>
          <Trackpoint>
            <Time>2021-08-12T13:56:51.000Z</Time>
            <Position>
              <LatitudeDegrees>43.31048014573752880096435546875</LatitudeDegrees>
              <LongitudeDegrees>-2.00669861398637294769287109375</LongitudeDegrees>
            </Position>
            <AltitudeMeters>13.6000003814697265625</AltitudeMeters>
            <DistanceMeters>NAN</DistanceMeters>
          </Trackpoint>
          <Trackpoint>
            <Time>2021-08-12T13:56:52.000Z</Time>
            <Position>
              <LatitudeDegrees>43.3104646392166614532470703125</LatitudeDegrees>
              <LongitudeDegrees>-2.00670079328119754791259765625</LongitudeDegrees>
            </Position>
            <AltitudeMeters>14.3999996185302734375</AltitudeMeters>
            <DistanceMeters>NAN</DistanceMeters>
          </Trackpoint>
          <Trackpoint>
            <Time>2021-08-12T13:56:54.000Z</Time>
            <Position>
              <LatitudeDegrees>43.310446031391620635986328125</LatitudeDegrees>
              <LongitudeDegrees>-2.00669660232961177825927734375</LongitudeDegrees>
            </Position>
            <AltitudeMeters>15.80000019073486328125</AltitudeMeters>
            <DistanceMeters>NAN</DistanceMeters>
          </Trackpoint>
          <Trackpoint>
            <Time>2021-08-12T13:56:57.000Z</Time>
            <Position>
              <LatitudeDegrees>43.3104456961154937744140625</LatitudeDegrees>
              <LongitudeDegrees>-2.00670062564313411712646484375</LongitudeDegrees>
            </Position>
            <AltitudeMeters>16</AltitudeMeters>
            <DistanceMeters>NAN</DistanceMeters>
          </Trackpoint>
          <Trackpoint>
            <Time>2021-08-12T13:57:26.000Z</Time>
            <Position>
              <LatitudeDegrees>43.31038844771683216094970703125</LatitudeDegrees>
              <LongitudeDegrees>-2.0067416131496429443359375</LongitudeDegrees>
            </Position>
            <AltitudeMeters>16</AltitudeMeters>
            <DistanceMeters>NAN</DistanceMeters>
          </Trackpoint>
          <Trackpoint>
            <Time>2021-08-12T13:57:28.000Z</Time>
            <Position>
              <LatitudeDegrees>43.31037252210080623626708984375</LatitudeDegrees>
              <LongitudeDegrees>-2.00678519904613494873046875</LongitudeDegrees>
            </Position>
            <AltitudeMeters>16</AltitudeMeters>
            <DistanceMeters>NAN</DistanceMeters>
          </Trackpoint>
          <Trackpoint>
            <Time>2021-08-12T13:57:29.000Z</Time>
            <Position>
              <LatitudeDegrees>43.3103637211024761199951171875</LatitudeDegrees>
              <LongitudeDegrees>-2.00680824927985668182373046875</LongitudeDegrees>
            </Position>
            <AltitudeMeters>16</AltitudeMeters>
            <DistanceMeters>NAN</DistanceMeters>
          </Trackpoint>
          <Trackpoint>
            <Time>2021-08-12T13:57:30.000Z</Time>
            <Position>
              <LatitudeDegrees>43.310353495180606842041015625</LatitudeDegrees>
              <LongitudeDegrees>-2.00682903639972209930419921875</LongitudeDegrees>
            </Position>
            <AltitudeMeters>16</AltitudeMeters>
            <DistanceMeters>NAN</DistanceMeters>
          </Trackpoint>
          <Trackpoint>
            <Time>2021-08-12T13:57:33.000Z</Time>
            <Position>
              <LatitudeDegrees>43.310324661433696746826171875</LatitudeDegrees>
              <LongitudeDegrees>-2.00689424760639667510986328125</LongitudeDegrees>
            </Position>
            <AltitudeMeters>16</AltitudeMeters>
            <DistanceMeters>NAN</DistanceMeters>
          </Trackpoint>
          <Trackpoint>
            <Time>2021-08-12T13:57:34.000Z</Time>
            <Position>
              <LatitudeDegrees>43.31031351350247859954833984375</LatitudeDegrees>
              <LongitudeDegrees>-2.0069164596498012542724609375</LongitudeDegrees>
            </Position>
            <AltitudeMeters>15.80000019073486328125</AltitudeMeters>
            <DistanceMeters>NAN</DistanceMeters>
          </Trackpoint>
          <Trackpoint>
            <Time>2021-08-12T13:57:38.000Z</Time>
            <Position>
              <LatitudeDegrees>43.3102450333535671234130859375</LatitudeDegrees>
              <LongitudeDegrees>-2.006992399692535400390625</LongitudeDegrees>
            </Position>
            <AltitudeMeters>15.80000019073486328125</AltitudeMeters>
            <DistanceMeters>NAN</DistanceMeters>
          </Trackpoint>
          <Trackpoint>
            <Time>2021-08-12T13:57:42.000Z</Time>
            <Position>
              <LatitudeDegrees>43.31020228564739227294921875</LatitudeDegrees>
              <LongitudeDegrees>-2.00706758536398410797119140625</LongitudeDegrees>
            </Position>
            <AltitudeMeters>15.80000019073486328125</AltitudeMeters>
            <DistanceMeters>NAN</DistanceMeters>
          </Trackpoint>
          <Trackpoint>
            <Time>2021-08-12T13:57:43.000Z</Time>
            <Position>
              <LatitudeDegrees>43.31019314937293529510498046875</LatitudeDegrees>
              <LongitudeDegrees>-2.007081247866153717041015625</LongitudeDegrees>
            </Position>
            <AltitudeMeters>15.80000019073486328125</AltitudeMeters>
            <DistanceMeters>NAN</DistanceMeters>
          </Trackpoint>
          <Trackpoint>
            <Time>2021-08-12T13:57:44.000Z</Time>
            <Position>
              <LatitudeDegrees>43.3101846836507320404052734375</LatitudeDegrees>
              <LongitudeDegrees>-2.00709977187216281890869140625</LongitudeDegrees>
            </Position>
            <AltitudeMeters>15.80000019073486328125</AltitudeMeters>
            <DistanceMeters>NAN</DistanceMeters>
          </Trackpoint>
          <Trackpoint>
            <Time>2021-08-12T13:57:45.000Z</Time>
            <Position>
              <LatitudeDegrees>43.31017739139497280120849609375</LatitudeDegrees>
              <LongitudeDegrees>-2.00711309909820556640625</LongitudeDegrees>
            </Position>
            <AltitudeMeters>15.80000019073486328125</AltitudeMeters>
            <DistanceMeters>NAN</DistanceMeters>
          </Trackpoint>
          <Trackpoint>
            <Time>2021-08-12T13:57:46.000Z</Time>
            <Position>
              <LatitudeDegrees>43.31016917712986469268798828125</LatitudeDegrees>
              <LongitudeDegrees>-2.00712810270488262176513671875</LongitudeDegrees>
            </Position>
            <AltitudeMeters>15.80000019073486328125</AltitudeMeters>
            <DistanceMeters>NAN</DistanceMeters>
          </Trackpoint>
          <Trackpoint>
            <Time>2021-08-12T13:57:47.000Z</Time>
            <Position>
              <LatitudeDegrees>43.31016263924539089202880859375</LatitudeDegrees>
              <LongitudeDegrees>-2.007142603397369384765625</LongitudeDegrees>
            </Position>
            <AltitudeMeters>15.80000019073486328125</AltitudeMeters>
            <DistanceMeters>NAN</DistanceMeters>
          </Trackpoint>
          <Trackpoint>
            <Time>2021-08-12T13:57:48.000Z</Time>
            <Position>
              <LatitudeDegrees>43.31016113050282001495361328125</LatitudeDegrees>
              <LongitudeDegrees>-2.0071534998714923858642578125</LongitudeDegrees>
            </Position>
            <AltitudeMeters>15.80000019073486328125</AltitudeMeters>
            <DistanceMeters>NAN</DistanceMeters>
          </Trackpoint>
          <Trackpoint>
            <Time>2021-08-12T13:57:49.000Z</Time>
            <Position>
              <LatitudeDegrees>43.3101602084934711456298828125</LatitudeDegrees>
              <LongitudeDegrees>-2.00715475715696811676025390625</LongitudeDegrees>
            </Position>
            <AltitudeMeters>15.80000019073486328125</AltitudeMeters>
            <DistanceMeters>NAN</DistanceMeters>
          </Trackpoint>
          <Trackpoint>
            <Time>2021-08-12T13:57:51.000Z</Time>
            <Position>
              <LatitudeDegrees>43.31015476025640964508056640625</LatitudeDegrees>
              <LongitudeDegrees>-2.007150985300540924072265625</LongitudeDegrees>
            </Position>
            <AltitudeMeters>15.80000019073486328125</AltitudeMeters>
            <DistanceMeters>NAN</DistanceMeters>
          </Trackpoint>
          <Trackpoint>
            <Time>2021-08-12T13:57:58.000Z</Time>
            <Position>
              <LatitudeDegrees>43.31012852489948272705078125</LatitudeDegrees>
              <LongitudeDegrees>-2.007139585912227630615234375</LongitudeDegrees>
            </Position>
            <AltitudeMeters>15.80000019073486328125</AltitudeMeters>
            <DistanceMeters>NAN</DistanceMeters>
          </Trackpoint>
          <Trackpoint>
            <Time>2021-08-12T13:58:01.000Z</Time>
            <Position>
              <LatitudeDegrees>43.3101390860974788665771484375</LatitudeDegrees>
              <LongitudeDegrees>-2.00718350708484649658203125</LongitudeDegrees>
            </Position>
            <AltitudeMeters>15.80000019073486328125</AltitudeMeters>
            <DistanceMeters>NAN</DistanceMeters>
          </Trackpoint>
          <Trackpoint>
            <Time>2021-08-12T13:58:03.000Z</Time>
            <Position>
              <LatitudeDegrees>43.31014352850615978240966796875</LatitudeDegrees>
              <LongitudeDegrees>-2.0071922242641448974609375</LongitudeDegrees>
            </Position>
            <AltitudeMeters>15.80000019073486328125</AltitudeMeters>
            <DistanceMeters>NAN</DistanceMeters>
          </Trackpoint>
          <Trackpoint>
            <Time>2021-08-12T13:58:07.000Z</Time>
            <Position>
              <LatitudeDegrees>43.31020186655223369598388671875</LatitudeDegrees>
              <LongitudeDegrees>-2.00724980793893337249755859375</LongitudeDegrees>
            </Position>
            <AltitudeMeters>15.80000019073486328125</AltitudeMeters>
            <DistanceMeters>NAN</DistanceMeters>
          </Trackpoint>
          <Trackpoint>
            <Time>2021-08-12T13:58:09.000Z</Time>
            <Position>
              <LatitudeDegrees>43.31023455597460269927978515625</LatitudeDegrees>
              <LongitudeDegrees>-2.0072705112397670745849609375</LongitudeDegrees>
            </Position>
            <AltitudeMeters>15.6000003814697265625</AltitudeMeters>
            <DistanceMeters>NAN</DistanceMeters>
          </Trackpoint>
          <Trackpoint>
            <Time>2021-08-12T13:58:10.000Z</Time>
            <Position>
              <LatitudeDegrees>43.310245536267757415771484375</LatitudeDegrees>
              <LongitudeDegrees>-2.0072726905345916748046875</LongitudeDegrees>
            </Position>
            <AltitudeMeters>15.6000003814697265625</AltitudeMeters>
            <DistanceMeters>NAN</DistanceMeters>
          </Trackpoint>
          <Trackpoint>
            <Time>2021-08-12T13:58:13.000Z</Time>
            <Position>
              <LatitudeDegrees>43.3103084005415439605712890625</LatitudeDegrees>
              <LongitudeDegrees>-2.0072718523442745208740234375</LongitudeDegrees>
            </Position>
            <AltitudeMeters>15.6000003814697265625</AltitudeMeters>
            <DistanceMeters>NAN</DistanceMeters>
          </Trackpoint>
          <Trackpoint>
            <Time>2021-08-12T13:58:14.000Z</Time>
            <Position>
              <LatitudeDegrees>43.31032843329012393951416015625</LatitudeDegrees>
              <LongitudeDegrees>-2.00727378018200397491455078125</LongitudeDegrees>
            </Position>
            <AltitudeMeters>15.6000003814697265625</AltitudeMeters>
            <DistanceMeters>NAN</DistanceMeters>
          </Trackpoint>
          <Trackpoint>
            <Time>2021-08-12T13:58:15.000Z</Time>
            <Position>
              <LatitudeDegrees>43.3103509806096553802490234375</LatitudeDegrees>
              <LongitudeDegrees>-2.007234804332256317138671875</LongitudeDegrees>
            </Position>
            <AltitudeMeters>15.6000003814697265625</AltitudeMeters>
            <DistanceMeters>NAN</DistanceMeters>
          </Trackpoint>
          <Trackpoint>
            <Time>2021-08-12T13:58:16.000Z</Time>
            <Position>
              <LatitudeDegrees>43.31037126481533050537109375</LatitudeDegrees>
              <LongitudeDegrees>-2.007226087152957916259765625</LongitudeDegrees>
            </Position>
            <AltitudeMeters>15.6000003814697265625</AltitudeMeters>
            <DistanceMeters>NAN</DistanceMeters>
          </Trackpoint>
          <Trackpoint>
            <Time>2021-08-12T13:58:17.000Z</Time>
            <Position>
              <LatitudeDegrees>43.310391046106815338134765625</LatitudeDegrees>
              <LongitudeDegrees>-2.007228434085845947265625</LongitudeDegrees>
            </Position>
            <AltitudeMeters>15.6000003814697265625</AltitudeMeters>
            <DistanceMeters>NAN</DistanceMeters>
          </Trackpoint>
          <Trackpoint>
            <Time>2021-08-12T13:58:18.000Z</Time>
            <Position>
              <LatitudeDegrees>43.3104022778570652008056640625</LatitudeDegrees>
              <LongitudeDegrees>-2.00724611990153789520263671875</LongitudeDegrees>
            </Position>
            <AltitudeMeters>15.6000003814697265625</AltitudeMeters>
            <DistanceMeters>NAN</DistanceMeters>
          </Trackpoint>
          <Trackpoint>
            <Time>2021-08-12T13:58:19.000Z</Time>
            <Position>
              <LatitudeDegrees>43.31041828729212284088134765625</LatitudeDegrees>
              <LongitudeDegrees>-2.0072795636951923370361328125</LongitudeDegrees>
            </Position>
            <AltitudeMeters>15.6000003814697265625</AltitudeMeters>
            <DistanceMeters>NAN</DistanceMeters>
          </Trackpoint>
          <Trackpoint>
            <Time>2021-08-12T13:58:20.000Z</Time>
            <Position>
              <LatitudeDegrees>43.31042985431849956512451171875</LatitudeDegrees>
              <LongitudeDegrees>-2.00731166638433933258056640625</LongitudeDegrees>
            </Position>
            <AltitudeMeters>15.6000003814697265625</AltitudeMeters>
            <DistanceMeters>NAN</DistanceMeters>
          </Trackpoint>
          <Trackpoint>
            <Time>2021-08-12T13:58:21.000Z</Time>
            <Position>
              <LatitudeDegrees>43.31044661812484264373779296875</LatitudeDegrees>
              <LongitudeDegrees>-2.00732625089585781097412109375</LongitudeDegrees>
            </Position>
            <AltitudeMeters>15.6000003814697265625</AltitudeMeters>
            <DistanceMeters>NAN</DistanceMeters>
          </Trackpoint>
          <Trackpoint>
            <Time>2021-08-12T13:58:22.000Z</Time>
            <Position>
              <LatitudeDegrees>43.3104599453508853912353515625</LatitudeDegrees>
              <LongitudeDegrees>-2.0073415897786617279052734375</LongitudeDegrees>
            </Position>
            <AltitudeMeters>15.6000003814697265625</AltitudeMeters>
            <DistanceMeters>NAN</DistanceMeters>
          </Trackpoint>
          <Trackpoint>
            <Time>2021-08-12T13:58:23.000Z</Time>
            <Position>
              <LatitudeDegrees>43.3104743622243404388427734375</LatitudeDegrees>
              <LongitudeDegrees>-2.0073613710701465606689453125</LongitudeDegrees>
            </Position>
            <AltitudeMeters>15.6000003814697265625</AltitudeMeters>
            <DistanceMeters>NAN</DistanceMeters>
          </Trackpoint>
          <Trackpoint>
            <Time>2021-08-12T13:58:24.000Z</Time>
            <Position>
              <LatitudeDegrees>43.3104886114597320556640625</LatitudeDegrees>
              <LongitudeDegrees>-2.00738861225545406341552734375</LongitudeDegrees>
            </Position>
            <AltitudeMeters>15.6000003814697265625</AltitudeMeters>
            <DistanceMeters>NAN</DistanceMeters>
          </Trackpoint>
          <Trackpoint>
            <Time>2021-08-12T13:58:25.000Z</Time>
            <Position>
              <LatitudeDegrees>43.31050042994320392608642578125</LatitudeDegrees>
              <LongitudeDegrees>-2.0074032805860042572021484375</LongitudeDegrees>
            </Position>
            <AltitudeMeters>15.6000003814697265625</AltitudeMeters>
            <DistanceMeters>NAN</DistanceMeters>
          </Trackpoint>
          <Trackpoint>
            <Time>2021-08-12T13:58:26.000Z</Time>
            <Position>
              <LatitudeDegrees>43.310509733855724334716796875</LatitudeDegrees>
              <LongitudeDegrees>-2.00742247514426708221435546875</LongitudeDegrees>
            </Position>
            <AltitudeMeters>15.6000003814697265625</AltitudeMeters>
            <DistanceMeters>NAN</DistanceMeters>
          </Trackpoint>
          <Trackpoint>
            <Time>2021-08-12T13:58:27.000Z</Time>
            <Position>
              <LatitudeDegrees>43.31051954068243503570556640625</LatitudeDegrees>
              <LongitudeDegrees>-2.00743957422673702239990234375</LongitudeDegrees>
            </Position>
            <AltitudeMeters>15.6000003814697265625</AltitudeMeters>
            <DistanceMeters>NAN</DistanceMeters>
          </Trackpoint>
          <Trackpoint>
            <Time>2021-08-12T13:58:28.000Z</Time>
            <Position>
              <LatitudeDegrees>43.31052842549979686737060546875</LatitudeDegrees>
              <LongitudeDegrees>-2.00745441019535064697265625</LongitudeDegrees>
            </Position>
            <AltitudeMeters>15.6000003814697265625</AltitudeMeters>
            <DistanceMeters>NAN</DistanceMeters>
          </Trackpoint>
          <Trackpoint>
            <Time>2021-08-12T13:58:29.000Z</Time>
            <Position>
              <LatitudeDegrees>43.3105367235839366912841796875</LatitudeDegrees>
              <LongitudeDegrees>-2.00746513903141021728515625</LongitudeDegrees>
            </Position>
            <AltitudeMeters>15.6000003814697265625</AltitudeMeters>
            <DistanceMeters>NAN</DistanceMeters>
          </Trackpoint>
          <Trackpoint>
            <Time>2021-08-12T13:58:30.000Z</Time>
            <Position>
              <LatitudeDegrees>43.31054292619228363037109375</LatitudeDegrees>
              <LongitudeDegrees>-2.00747293420135974884033203125</LongitudeDegrees>
            </Position>
            <AltitudeMeters>15.6000003814697265625</AltitudeMeters>
            <DistanceMeters>NAN</DistanceMeters>
          </Trackpoint>
          <Trackpoint>
            <Time>2021-08-12T13:58:31.000Z</Time>
            <Position>
              <LatitudeDegrees>43.3105474524199962615966796875</LatitudeDegrees>
              <LongitudeDegrees>-2.007480561733245849609375</LongitudeDegrees>
            </Position>
            <AltitudeMeters>15.6000003814697265625</AltitudeMeters>
            <DistanceMeters>NAN</DistanceMeters>
          </Trackpoint>
          <Trackpoint>
            <Time>2021-08-12T13:58:32.000Z</Time>
            <Position>
              <LatitudeDegrees>43.3105451054871082305908203125</LatitudeDegrees>
              <LongitudeDegrees>-2.0074944756925106048583984375</LongitudeDegrees>
            </Position>
            <AltitudeMeters>15.6000003814697265625</AltitudeMeters>
            <DistanceMeters>NAN</DistanceMeters>
          </Trackpoint>
          <Trackpoint>
            <Time>2021-08-12T13:58:58.000Z</Time>
            <Position>
              <LatitudeDegrees>43.31055424176156520843505859375</LatitudeDegrees>
              <LongitudeDegrees>-2.00752825476229190826416015625</LongitudeDegrees>
            </Position>
            <AltitudeMeters>16</AltitudeMeters>
            <DistanceMeters>NAN</DistanceMeters>
          </Trackpoint>
          <Trackpoint>
            <Time>2021-08-12T13:58:59.000Z</Time>
            <Position>
              <LatitudeDegrees>43.31055424176156520843505859375</LatitudeDegrees>
              <LongitudeDegrees>-2.00752825476229190826416015625</LongitudeDegrees>
            </Position>
            <AltitudeMeters>16</AltitudeMeters>
            <DistanceMeters>NAN</DistanceMeters>
          </Trackpoint>
          <Trackpoint>
            <Time>2021-08-12T13:59:10.000Z</Time>
            <Position>
              <LatitudeDegrees>43.31055541522800922393798828125</LatitudeDegrees>
              <LongitudeDegrees>-2.00752641074359416961669921875</LongitudeDegrees>
            </Position>
            <AltitudeMeters>16</AltitudeMeters>
            <DistanceMeters>NAN</DistanceMeters>
          </Trackpoint>
          <Trackpoint>
            <Time>2021-08-12T14:05:44.000Z</Time>
            <Position>
              <LatitudeDegrees>43.3105422556400299072265625</LatitudeDegrees>
              <LongitudeDegrees>-2.0075598545372486114501953125</LongitudeDegrees>
            </Position>
            <AltitudeMeters>15.3999996185302734375</AltitudeMeters>
            <DistanceMeters>NAN</DistanceMeters>
          </Trackpoint>
          <Trackpoint>
            <Time>2021-08-12T14:05:53.000Z</Time>
            <Position>
              <LatitudeDegrees>43.3105449378490447998046875</LatitudeDegrees>
              <LongitudeDegrees>-2.00756245292723178863525390625</LongitudeDegrees>
            </Position>
            <AltitudeMeters>15.3999996185302734375</AltitudeMeters>
            <DistanceMeters>NAN</DistanceMeters>
          </Trackpoint>
          <Trackpoint>
            <Time>2021-08-12T14:05:54.000Z</Time>
            <Position>
              <LatitudeDegrees>43.310558684170246124267578125</LatitudeDegrees>
              <LongitudeDegrees>-2.0075699128210544586181640625</LongitudeDegrees>
            </Position>
            <AltitudeMeters>15.3999996185302734375</AltitudeMeters>
            <DistanceMeters>NAN</DistanceMeters>
          </Trackpoint>
          <Trackpoint>
            <Time>2021-08-12T14:05:55.000Z</Time>
            <Position>
              <LatitudeDegrees>43.31056966446340084075927734375</LatitudeDegrees>
              <LongitudeDegrees>-2.00758625753223896026611328125</LongitudeDegrees>
            </Position>
            <AltitudeMeters>15.3999996185302734375</AltitudeMeters>
            <DistanceMeters>NAN</DistanceMeters>
          </Trackpoint>
          <Trackpoint>
            <Time>2021-08-12T14:05:56.000Z</Time>
            <Position>
              <LatitudeDegrees>43.31057921983301639556884765625</LatitudeDegrees>
              <LongitudeDegrees>-2.00761056505143642425537109375</LongitudeDegrees>
            </Position>
            <AltitudeMeters>15.3999996185302734375</AltitudeMeters>
            <DistanceMeters>NAN</DistanceMeters>
          </Trackpoint>
          <Trackpoint>
            <Time>2021-08-12T14:05:57.000Z</Time>
            <Position>
              <LatitudeDegrees>43.31058877520263195037841796875</LatitudeDegrees>
              <LongitudeDegrees>-2.007633112370967864990234375</LongitudeDegrees>
            </Position>
            <AltitudeMeters>15.19999980926513671875</AltitudeMeters>
            <DistanceMeters>NAN</DistanceMeters>
          </Trackpoint>
          <Trackpoint>
            <Time>2021-08-12T14:05:58.000Z</Time>
            <Position>
              <LatitudeDegrees>43.31059212796390056610107421875</LatitudeDegrees>
              <LongitudeDegrees>-2.00765767134726047515869140625</LongitudeDegrees>
            </Position>
            <AltitudeMeters>15.19999980926513671875</AltitudeMeters>
            <DistanceMeters>NAN</DistanceMeters>
          </Trackpoint>
          <Trackpoint>
            <Time>2021-08-12T14:05:59.000Z</Time>
            <Position>
              <LatitudeDegrees>43.31059313379228115081787109375</LatitudeDegrees>
              <LongitudeDegrees>-2.00766898691654205322265625</LongitudeDegrees>
            </Position>
            <AltitudeMeters>15.19999980926513671875</AltitudeMeters>
            <DistanceMeters>NAN</DistanceMeters>
          </Trackpoint>
          <Trackpoint>
            <Time>2021-08-12T14:06:00.000Z</Time>
            <Position>
              <LatitudeDegrees>43.31059254705905914306640625</LatitudeDegrees>
              <LongitudeDegrees>-2.00767661444842815399169921875</LongitudeDegrees>
            </Position>
            <AltitudeMeters>15.19999980926513671875</AltitudeMeters>
            <DistanceMeters>NAN</DistanceMeters>
          </Trackpoint>
          <Trackpoint>
            <Time>2021-08-12T14:06:01.000Z</Time>
            <Position>
              <LatitudeDegrees>43.31058944575488567352294921875</LatitudeDegrees>
              <LongitudeDegrees>-2.00768331997096538543701171875</LongitudeDegrees>
            </Position>
            <AltitudeMeters>15.19999980926513671875</AltitudeMeters>
            <DistanceMeters>NAN</DistanceMeters>
          </Trackpoint>
          <Trackpoint>
            <Time>2021-08-12T14:06:02.000Z</Time>
            <Position>
              <LatitudeDegrees>43.31058575771749019622802734375</LatitudeDegrees>
              <LongitudeDegrees>-2.00768985785543918609619140625</LongitudeDegrees>
            </Position>
            <AltitudeMeters>15.19999980926513671875</AltitudeMeters>
            <DistanceMeters>NAN</DistanceMeters>
          </Trackpoint>
          <Trackpoint>
            <Time>2021-08-12T14:06:03.000Z</Time>
            <Position>
              <LatitudeDegrees>43.31058156676590442657470703125</LatitudeDegrees>
              <LongitudeDegrees>-2.007701508700847625732421875</LongitudeDegrees>
            </Position>
            <AltitudeMeters>15.19999980926513671875</AltitudeMeters>
            <DistanceMeters>NAN</DistanceMeters>
          </Trackpoint>
          <Trackpoint>
            <Time>2021-08-12T14:06:04.000Z</Time>
            <Position>
              <LatitudeDegrees>43.3105836622416973114013671875</LatitudeDegrees>
              <LongitudeDegrees>-2.0077154226601123809814453125</LongitudeDegrees>
            </Position>
            <AltitudeMeters>15.19999980926513671875</AltitudeMeters>
            <DistanceMeters>NAN</DistanceMeters>
          </Trackpoint>
          <Trackpoint>
            <Time>2021-08-12T14:06:05.000Z</Time>
            <Position>
              <LatitudeDegrees>43.31058307550847530364990234375</LatitudeDegrees>
              <LongitudeDegrees>-2.00772439129650592803955078125</LongitudeDegrees>
            </Position>
            <AltitudeMeters>15.19999980926513671875</AltitudeMeters>
            <DistanceMeters>NAN</DistanceMeters>
          </Trackpoint>
          <Trackpoint>
            <Time>2021-08-12T14:06:06.000Z</Time>
            <Position>
              <LatitudeDegrees>43.31058072857558727264404296875</LatitudeDegrees>
              <LongitudeDegrees>-2.007736377418041229248046875</LongitudeDegrees>
            </Position>
            <AltitudeMeters>15.19999980926513671875</AltitudeMeters>
            <DistanceMeters>NAN</DistanceMeters>
          </Trackpoint>
          <Trackpoint>
            <Time>2021-08-12T14:06:07.000Z</Time>
            <Position>
              <LatitudeDegrees>43.31057620234787464141845703125</LatitudeDegrees>
              <LongitudeDegrees>-2.007752470672130584716796875</LongitudeDegrees>
            </Position>
            <AltitudeMeters>15.19999980926513671875</AltitudeMeters>
            <DistanceMeters>NAN</DistanceMeters>
          </Trackpoint>
          <Trackpoint>
            <Time>2021-08-12T14:06:08.000Z</Time>
            <Position>
              <LatitudeDegrees>43.31056974828243255615234375</LatitudeDegrees>
              <LongitudeDegrees>-2.00777233578264713287353515625</LongitudeDegrees>
            </Position>
            <AltitudeMeters>15.19999980926513671875</AltitudeMeters>
            <DistanceMeters>NAN</DistanceMeters>
          </Trackpoint>
          <Trackpoint>
            <Time>2021-08-12T14:06:09.000Z</Time>
            <Position>
              <LatitudeDegrees>43.3105625398457050323486328125</LatitudeDegrees>
              <LongitudeDegrees>-2.00778524391353130340576171875</LongitudeDegrees>
            </Position>
            <AltitudeMeters>15.19999980926513671875</AltitudeMeters>
            <DistanceMeters>NAN</DistanceMeters>
          </Trackpoint>
          <Trackpoint>
            <Time>2021-08-12T14:06:10.000Z</Time>
            <Position>
              <LatitudeDegrees>43.310554660856723785400390625</LatitudeDegrees>
              <LongitudeDegrees>-2.00779915787279605865478515625</LongitudeDegrees>
            </Position>
            <AltitudeMeters>15.19999980926513671875</AltitudeMeters>
            <DistanceMeters>NAN</DistanceMeters>
          </Trackpoint>
          <Trackpoint>
            <Time>2021-08-12T14:06:11.000Z</Time>
            <Position>
              <LatitudeDegrees>43.3105494640767574310302734375</LatitudeDegrees>
              <LongitudeDegrees>-2.0078180171549320220947265625</LongitudeDegrees>
            </Position>
            <AltitudeMeters>15.19999980926513671875</AltitudeMeters>
            <DistanceMeters>NAN</DistanceMeters>
          </Trackpoint>
          <Trackpoint>
            <Time>2021-08-12T14:06:19.000Z</Time>
            <Position>
              <LatitudeDegrees>43.3104860968887805938720703125</LatitudeDegrees>
              <LongitudeDegrees>-2.00799998827278614044189453125</LongitudeDegrees>
            </Position>
            <AltitudeMeters>15</AltitudeMeters>
            <DistanceMeters>NAN</DistanceMeters>
          </Trackpoint>
          <Trackpoint>
            <Time>2021-08-12T14:06:27.000Z</Time>
            <Position>
              <LatitudeDegrees>43.31041552126407623291015625</LatitudeDegrees>
              <LongitudeDegrees>-2.00819411315023899078369140625</LongitudeDegrees>
            </Position>
            <AltitudeMeters>15</AltitudeMeters>
            <DistanceMeters>NAN</DistanceMeters>
          </Trackpoint>
          <Trackpoint>
            <Time>2021-08-12T14:06:28.000Z</Time>
            <Position>
              <LatitudeDegrees>43.3104121685028076171875</LatitudeDegrees>
              <LongitudeDegrees>-2.00821490027010440826416015625</LongitudeDegrees>
            </Position>
            <AltitudeMeters>15</AltitudeMeters>
            <DistanceMeters>NAN</DistanceMeters>
          </Trackpoint>
          <Trackpoint>
            <Time>2021-08-12T14:06:29.000Z</Time>
            <Position>
              <LatitudeDegrees>43.310407809913158416748046875</LatitudeDegrees>
              <LongitudeDegrees>-2.008243985474109649658203125</LongitudeDegrees>
            </Position>
            <AltitudeMeters>14.80000019073486328125</AltitudeMeters>
            <DistanceMeters>NAN</DistanceMeters>
          </Trackpoint>
          <Trackpoint>
            <Time>2021-08-12T14:06:34.000Z</Time>
            <Position>
              <LatitudeDegrees>43.3103751204907894134521484375</LatitudeDegrees>
              <LongitudeDegrees>-2.00839360244572162628173828125</LongitudeDegrees>
            </Position>
            <AltitudeMeters>14.6000003814697265625</AltitudeMeters>
            <DistanceMeters>NAN</DistanceMeters>
          </Trackpoint>
          <Trackpoint>
            <Time>2021-08-12T14:06:35.000Z</Time>
            <Position>
              <LatitudeDegrees>43.31036011688411235809326171875</LatitudeDegrees>
              <LongitudeDegrees>-2.008424699306488037109375</LongitudeDegrees>
            </Position>
            <AltitudeMeters>14.6000003814697265625</AltitudeMeters>
            <DistanceMeters>NAN</DistanceMeters>
          </Trackpoint>
          <Trackpoint>
            <Time>2021-08-12T14:06:36.000Z</Time>
            <Position>
              <LatitudeDegrees>43.3103523217141628265380859375</LatitudeDegrees>
              <LongitudeDegrees>-2.008451521396636962890625</LongitudeDegrees>
            </Position>
            <AltitudeMeters>14.80000019073486328125</AltitudeMeters>
            <DistanceMeters>NAN</DistanceMeters>
          </Trackpoint>
          <Trackpoint>
            <Time>2021-08-12T14:06:38.000Z</Time>
            <Position>
              <LatitudeDegrees>43.310324661433696746826171875</LatitudeDegrees>
              <LongitudeDegrees>-2.008507512509822845458984375</LongitudeDegrees>
            </Position>
            <AltitudeMeters>14.6000003814697265625</AltitudeMeters>
            <DistanceMeters>NAN</DistanceMeters>
          </Trackpoint>
          <Trackpoint>
            <Time>2021-08-12T14:06:41.000Z</Time>
            <Position>
              <LatitudeDegrees>43.31023589707911014556884765625</LatitudeDegrees>
              <LongitudeDegrees>-2.00857766903936862945556640625</LongitudeDegrees>
            </Position>
            <AltitudeMeters>14.6000003814697265625</AltitudeMeters>
            <DistanceMeters>NAN</DistanceMeters>
          </Trackpoint>
          <Trackpoint>
            <Time>2021-08-12T14:06:46.000Z</Time>
            <Position>
              <LatitudeDegrees>43.3101317100226879119873046875</LatitudeDegrees>
              <LongitudeDegrees>-2.00871094129979610443115234375</LongitudeDegrees>
            </Position>
            <AltitudeMeters>14.80000019073486328125</AltitudeMeters>
            <DistanceMeters>NAN</DistanceMeters>
          </Trackpoint>
          <Trackpoint>
            <Time>2021-08-12T14:06:48.000Z</Time>
            <Position>
              <LatitudeDegrees>43.3100770600140094757080078125</LatitudeDegrees>
              <LongitudeDegrees>-2.008754275739192962646484375</LongitudeDegrees>
            </Position>
            <AltitudeMeters>14.80000019073486328125</AltitudeMeters>
            <DistanceMeters>NAN</DistanceMeters>
          </Trackpoint>
          <Trackpoint>
            <Time>2021-08-12T14:06:49.000Z</Time>
            <Position>
              <LatitudeDegrees>43.31005342304706573486328125</LatitudeDegrees>
              <LongitudeDegrees>-2.0087708719074726104736328125</LongitudeDegrees>
            </Position>
            <AltitudeMeters>14.80000019073486328125</AltitudeMeters>
            <DistanceMeters>NAN</DistanceMeters>
          </Trackpoint>
          <Trackpoint>
            <Time>2021-08-12T14:06:50.000Z</Time>
            <Position>
              <LatitudeDegrees>43.3100192248821258544921875</LatitudeDegrees>
              <LongitudeDegrees>-2.00878352858126163482666015625</LongitudeDegrees>
            </Position>
            <AltitudeMeters>14.80000019073486328125</AltitudeMeters>
            <DistanceMeters>NAN</DistanceMeters>
          </Trackpoint>
          <Trackpoint>
            <Time>2021-08-12T14:06:51.000Z</Time>
            <Position>
              <LatitudeDegrees>43.3099821768701076507568359375</LatitudeDegrees>
              <LongitudeDegrees>-2.008803896605968475341796875</LongitudeDegrees>
            </Position>
            <AltitudeMeters>14.80000019073486328125</AltitudeMeters>
            <DistanceMeters>NAN</DistanceMeters>
          </Trackpoint>
          <Trackpoint>
            <Time>2021-08-12T14:06:56.000Z</Time>
            <Position>
              <LatitudeDegrees>43.30983976833522319793701171875</LatitudeDegrees>
              <LongitudeDegrees>-2.00885117053985595703125</LongitudeDegrees>
            </Position>
            <AltitudeMeters>15</AltitudeMeters>
            <DistanceMeters>NAN</DistanceMeters>
          </Trackpoint>
          <Trackpoint>
            <Time>2021-08-12T14:06:57.000Z</Time>
            <Position>
              <LatitudeDegrees>43.30980724655091762542724609375</LatitudeDegrees>
              <LongitudeDegrees>-2.008850835263729095458984375</LongitudeDegrees>
            </Position>
            <AltitudeMeters>15</AltitudeMeters>
            <DistanceMeters>NAN</DistanceMeters>
          </Trackpoint>
          <Trackpoint>
            <Time>2021-08-12T14:06:58.000Z</Time>
            <Position>
              <LatitudeDegrees>43.30977849662303924560546875</LatitudeDegrees>
              <LongitudeDegrees>-2.00884873978793621063232421875</LongitudeDegrees>
            </Position>
            <AltitudeMeters>15</AltitudeMeters>
            <DistanceMeters>NAN</DistanceMeters>
          </Trackpoint>
          <Trackpoint>
            <Time>2021-08-12T14:06:59.000Z</Time>
            <Position>
              <LatitudeDegrees>43.30975024960935115814208984375</LatitudeDegrees>
              <LongitudeDegrees>-2.00884371064603328704833984375</LongitudeDegrees>
            </Position>
            <AltitudeMeters>15</AltitudeMeters>
            <DistanceMeters>NAN</DistanceMeters>
          </Trackpoint>
          <Trackpoint>
            <Time>2021-08-12T14:07:01.000Z</Time>
            <Position>
              <LatitudeDegrees>43.30970163457095623016357421875</LatitudeDegrees>
              <LongitudeDegrees>-2.0088362507522106170654296875</LongitudeDegrees>
            </Position>
            <AltitudeMeters>15</AltitudeMeters>
            <DistanceMeters>NAN</DistanceMeters>
          </Trackpoint>
          <Trackpoint>
            <Time>2021-08-12T14:07:02.000Z</Time>
            <Position>
              <LatitudeDegrees>43.30966508947312831878662109375</LatitudeDegrees>
              <LongitudeDegrees>-2.0088285394012928009033203125</LongitudeDegrees>
            </Position>
            <AltitudeMeters>15</AltitudeMeters>
            <DistanceMeters>NAN</DistanceMeters>
          </Trackpoint>
          <Trackpoint>
            <Time>2021-08-12T14:07:03.000Z</Time>
            <Position>
              <LatitudeDegrees>43.3096425421535968780517578125</LatitudeDegrees>
              <LongitudeDegrees>-2.00881252996623516082763671875</LongitudeDegrees>
            </Position>
            <AltitudeMeters>15.19999980926513671875</AltitudeMeters>
            <DistanceMeters>NAN</DistanceMeters>
          </Trackpoint>
          <Trackpoint>
            <Time>2021-08-12T14:07:04.000Z</Time>
            <Position>
              <LatitudeDegrees>43.30962150357663631439208984375</LatitudeDegrees>
              <LongitudeDegrees>-2.00878269039094448089599609375</LongitudeDegrees>
            </Position>
            <AltitudeMeters>15.19999980926513671875</AltitudeMeters>
            <DistanceMeters>NAN</DistanceMeters>
          </Trackpoint>
          <Trackpoint>
            <Time>2021-08-12T14:07:05.000Z</Time>
            <Position>
              <LatitudeDegrees>43.3096053265035152435302734375</LatitudeDegrees>
              <LongitudeDegrees>-2.008767686784267425537109375</LongitudeDegrees>
            </Position>
            <AltitudeMeters>15</AltitudeMeters>
            <DistanceMeters>NAN</DistanceMeters>
          </Trackpoint>
          <Trackpoint>
            <Time>2021-08-12T14:07:06.000Z</Time>
            <Position>
              <LatitudeDegrees>43.3095922507345676422119140625</LatitudeDegrees>
              <LongitudeDegrees>-2.0087559521198272705078125</LongitudeDegrees>
            </Position>
            <AltitudeMeters>15.19999980926513671875</AltitudeMeters>
            <DistanceMeters>NAN</DistanceMeters>
          </Trackpoint>
          <Trackpoint>
            <Time>2021-08-12T14:07:07.000Z</Time>
            <Position>
              <LatitudeDegrees>43.30957674421370029449462890625</LatitudeDegrees>
              <LongitudeDegrees>-2.008746564388275146484375</LongitudeDegrees>
            </Position>
            <AltitudeMeters>15.3999996185302734375</AltitudeMeters>
            <DistanceMeters>NAN</DistanceMeters>
          </Trackpoint>
          <Trackpoint>
            <Time>2021-08-12T14:07:08.000Z</Time>
            <Position>
              <LatitudeDegrees>43.30956383608281612396240234375</LatitudeDegrees>
              <LongitudeDegrees>-2.00874094851315021514892578125</LongitudeDegrees>
            </Position>
            <AltitudeMeters>15.3999996185302734375</AltitudeMeters>
            <DistanceMeters>NAN</DistanceMeters>
          </Trackpoint>
          <Trackpoint>
            <Time>2021-08-12T14:07:09.000Z</Time>
            <Position>
              <LatitudeDegrees>43.30954774282872676849365234375</LatitudeDegrees>
              <LongitudeDegrees>-2.00874648056924343109130859375</LongitudeDegrees>
            </Position>
            <AltitudeMeters>15.3999996185302734375</AltitudeMeters>
            <DistanceMeters>NAN</DistanceMeters>
          </Trackpoint>
          <Trackpoint>
            <Time>2021-08-12T14:07:11.000Z</Time>
            <Position>
              <LatitudeDegrees>43.30951672978699207305908203125</LatitudeDegrees>
              <LongitudeDegrees>-2.008785121142864227294921875</LongitudeDegrees>
            </Position>
            <AltitudeMeters>15.3999996185302734375</AltitudeMeters>
            <DistanceMeters>NAN</DistanceMeters>
          </Trackpoint>
          <Trackpoint>
            <Time>2021-08-12T14:07:13.000Z</Time>
            <Position>
              <LatitudeDegrees>43.30947540700435638427734375</LatitudeDegrees>
              <LongitudeDegrees>-2.0088256895542144775390625</LongitudeDegrees>
            </Position>
            <AltitudeMeters>15.3999996185302734375</AltitudeMeters>
            <DistanceMeters>NAN</DistanceMeters>
          </Trackpoint>
          <Trackpoint>
            <Time>2021-08-12T14:07:14.000Z</Time>
            <Position>
              <LatitudeDegrees>43.3094618283212184906005859375</LatitudeDegrees>
              <LongitudeDegrees>-2.0088365860283374786376953125</LongitudeDegrees>
            </Position>
            <AltitudeMeters>15.19999980926513671875</AltitudeMeters>
            <DistanceMeters>NAN</DistanceMeters>
          </Trackpoint>
          <Trackpoint>
            <Time>2021-08-12T14:07:18.000Z</Time>
            <Position>
              <LatitudeDegrees>43.3093417994678020477294921875</LatitudeDegrees>
              <LongitudeDegrees>-2.0088989473879337310791015625</LongitudeDegrees>
            </Position>
            <AltitudeMeters>15</AltitudeMeters>
            <DistanceMeters>NAN</DistanceMeters>
          </Trackpoint>
          <Trackpoint>
            <Time>2021-08-12T14:07:19.000Z</Time>
            <Position>
              <LatitudeDegrees>43.309332244098186492919921875</LatitudeDegrees>
              <LongitudeDegrees>-2.0089371688663959503173828125</LongitudeDegrees>
            </Position>
            <AltitudeMeters>15</AltitudeMeters>
            <DistanceMeters>NAN</DistanceMeters>
          </Trackpoint>
          <Trackpoint>
            <Time>2021-08-12T14:07:21.000Z</Time>
            <Position>
              <LatitudeDegrees>43.3093210123479366302490234375</LatitudeDegrees>
              <LongitudeDegrees>-2.00901084579527378082275390625</LongitudeDegrees>
            </Position>
            <AltitudeMeters>15</AltitudeMeters>
            <DistanceMeters>NAN</DistanceMeters>
          </Trackpoint>
          <Trackpoint>
            <Time>2021-08-12T14:07:22.000Z</Time>
            <Position>
              <LatitudeDegrees>43.3093049190938472747802734375</LatitudeDegrees>
              <LongitudeDegrees>-2.00904227793216705322265625</LongitudeDegrees>
            </Position>
            <AltitudeMeters>15</AltitudeMeters>
            <DistanceMeters>NAN</DistanceMeters>
          </Trackpoint>
          <Trackpoint>
            <Time>2021-08-12T14:07:24.000Z</Time>
            <Position>
              <LatitudeDegrees>43.309263847768306732177734375</LatitudeDegrees>
              <LongitudeDegrees>-2.00912165455520153045654296875</LongitudeDegrees>
            </Position>
            <AltitudeMeters>15</AltitudeMeters>
            <DistanceMeters>NAN</DistanceMeters>
          </Trackpoint>
          <Trackpoint>
            <Time>2021-08-12T14:07:25.000Z</Time>
            <Position>
              <LatitudeDegrees>43.30925010144710540771484375</LatitudeDegrees>
              <LongitudeDegrees>-2.00915602035820484161376953125</LongitudeDegrees>
            </Position>
            <AltitudeMeters>15</AltitudeMeters>
            <DistanceMeters>NAN</DistanceMeters>
          </Trackpoint>
          <Trackpoint>
            <Time>2021-08-12T14:07:29.000Z</Time>
            <Position>
              <LatitudeDegrees>43.30919503234326839447021484375</LatitudeDegrees>
              <LongitudeDegrees>-2.00930840335786342620849609375</LongitudeDegrees>
            </Position>
            <AltitudeMeters>15</AltitudeMeters>
            <DistanceMeters>NAN</DistanceMeters>
          </Trackpoint>
          <Trackpoint>
            <Time>2021-08-12T14:07:32.000Z</Time>
            <Position>
              <LatitudeDegrees>43.309140466153621673583984375</LatitudeDegrees>
              <LongitudeDegrees>-2.0093889534473419189453125</LongitudeDegrees>
            </Position>
            <AltitudeMeters>15</AltitudeMeters>
            <DistanceMeters>NAN</DistanceMeters>
          </Trackpoint>
          <Trackpoint>
            <Time>2021-08-12T14:07:33.000Z</Time>
            <Position>
              <LatitudeDegrees>43.30911942757666110992431640625</LatitudeDegrees>
              <LongitudeDegrees>-2.00943597592413425445556640625</LongitudeDegrees>
            </Position>
            <AltitudeMeters>15</AltitudeMeters>
            <DistanceMeters>NAN</DistanceMeters>
          </Trackpoint>
          <Trackpoint>
            <Time>2021-08-12T14:07:36.000Z</Time>
            <Position>
              <LatitudeDegrees>43.30906637012958526611328125</LatitudeDegrees>
              <LongitudeDegrees>-2.00954091735184192657470703125</LongitudeDegrees>
            </Position>
            <AltitudeMeters>14.80000019073486328125</AltitudeMeters>
            <DistanceMeters>NAN</DistanceMeters>
          </Trackpoint>
          <Trackpoint>
            <Time>2021-08-12T14:07:37.000Z</Time>
            <Position>
              <LatitudeDegrees>43.309051953256130218505859375</LatitudeDegrees>
              <LongitudeDegrees>-2.00955483131110668182373046875</LongitudeDegrees>
            </Position>
            <AltitudeMeters>14.80000019073486328125</AltitudeMeters>
            <DistanceMeters>NAN</DistanceMeters>
          </Trackpoint>
          <Trackpoint>
            <Time>2021-08-12T14:07:38.000Z</Time>
            <Position>
              <LatitudeDegrees>43.309038542211055755615234375</LatitudeDegrees>
              <LongitudeDegrees>-2.0095463655889034271240234375</LongitudeDegrees>
            </Position>
            <AltitudeMeters>14.6000003814697265625</AltitudeMeters>
            <DistanceMeters>NAN</DistanceMeters>
          </Trackpoint>
          <Trackpoint>
            <Time>2021-08-12T14:07:39.000Z</Time>
            <Position>
              <LatitudeDegrees>43.3090160787105560302734375</LatitudeDegrees>
              <LongitudeDegrees>-2.0095456950366497039794921875</LongitudeDegrees>
            </Position>
            <AltitudeMeters>14.6000003814697265625</AltitudeMeters>
            <DistanceMeters>NAN</DistanceMeters>
          </Trackpoint>
          <Trackpoint>
            <Time>2021-08-12T14:07:40.000Z</Time>
            <Position>
              <LatitudeDegrees>43.30899529159069061279296875</LatitudeDegrees>
              <LongitudeDegrees>-2.00955617241561412811279296875</LongitudeDegrees>
            </Position>
            <AltitudeMeters>14.6000003814697265625</AltitudeMeters>
            <DistanceMeters>NAN</DistanceMeters>
          </Trackpoint>
          <Trackpoint>
            <Time>2021-08-12T14:07:41.000Z</Time>
            <Position>
              <LatitudeDegrees>43.3089750073850154876708984375</LatitudeDegrees>
              <LongitudeDegrees>-2.0095718465745449066162109375</LongitudeDegrees>
            </Position>
            <AltitudeMeters>14.6000003814697265625</AltitudeMeters>
            <DistanceMeters>NAN</DistanceMeters>
          </Trackpoint>
          <Trackpoint>
            <Time>2021-08-12T14:07:42.000Z</Time>
            <Position>
              <LatitudeDegrees>43.30895103514194488525390625</LatitudeDegrees>
              <LongitudeDegrees>-2.00957142747938632965087890625</LongitudeDegrees>
            </Position>
            <AltitudeMeters>14.3999996185302734375</AltitudeMeters>
            <DistanceMeters>NAN</DistanceMeters>
          </Trackpoint>
          <Trackpoint>
            <Time>2021-08-12T14:07:43.000Z</Time>
            <Position>
              <LatitudeDegrees>43.3089377917349338531494140625</LatitudeDegrees>
              <LongitudeDegrees>-2.00955918990075588226318359375</LongitudeDegrees>
            </Position>
            <AltitudeMeters>14.3999996185302734375</AltitudeMeters>
            <DistanceMeters>NAN</DistanceMeters>
          </Trackpoint>
          <Trackpoint>
            <Time>2021-08-12T14:07:44.000Z</Time>
            <Position>
              <LatitudeDegrees>43.30892630852758884429931640625</LatitudeDegrees>
              <LongitudeDegrees>-2.009541504085063934326171875</LongitudeDegrees>
            </Position>
            <AltitudeMeters>14.3999996185302734375</AltitudeMeters>
            <DistanceMeters>NAN</DistanceMeters>
          </Trackpoint>
          <Trackpoint>
            <Time>2021-08-12T14:07:45.000Z</Time>
            <Position>
              <LatitudeDegrees>43.30891884863376617431640625</LatitudeDegrees>
              <LongitudeDegrees>-2.0095349662005901336669921875</LongitudeDegrees>
            </Position>
            <AltitudeMeters>14.3999996185302734375</AltitudeMeters>
            <DistanceMeters>NAN</DistanceMeters>
          </Trackpoint>
          <Trackpoint>
            <Time>2021-08-12T14:07:47.000Z</Time>
            <Position>
              <LatitudeDegrees>43.30891205929219722747802734375</LatitudeDegrees>
              <LongitudeDegrees>-2.00952616520226001739501953125</LongitudeDegrees>
            </Position>
            <AltitudeMeters>14.3999996185302734375</AltitudeMeters>
            <DistanceMeters>NAN</DistanceMeters>
          </Trackpoint>
          <Trackpoint>
            <Time>2021-08-12T14:07:55.000Z</Time>
            <Position>
              <LatitudeDegrees>43.30882522277534008026123046875</LatitudeDegrees>
              <LongitudeDegrees>-2.0094645582139492034912109375</LongitudeDegrees>
            </Position>
            <AltitudeMeters>14.6000003814697265625</AltitudeMeters>
            <DistanceMeters>NAN</DistanceMeters>
          </Trackpoint>
          <Trackpoint>
            <Time>2021-08-12T14:07:58.000Z</Time>
            <Position>
              <LatitudeDegrees>43.3087714947760105133056640625</LatitudeDegrees>
              <LongitudeDegrees>-2.00940714217722415924072265625</LongitudeDegrees>
            </Position>
            <AltitudeMeters>14.6000003814697265625</AltitudeMeters>
            <DistanceMeters>NAN</DistanceMeters>
          </Trackpoint>
          <Trackpoint>
            <Time>2021-08-12T14:07:59.000Z</Time>
            <Position>
              <LatitudeDegrees>43.30875079147517681121826171875</LatitudeDegrees>
              <LongitudeDegrees>-2.00939607806503772735595703125</LongitudeDegrees>
            </Position>
            <AltitudeMeters>14.6000003814697265625</AltitudeMeters>
            <DistanceMeters>NAN</DistanceMeters>
          </Trackpoint>
          <Trackpoint>
            <Time>2021-08-12T14:08:02.000Z</Time>
            <Position>
              <LatitudeDegrees>43.3086923696100711822509765625</LatitudeDegrees>
              <LongitudeDegrees>-2.00936875306069850921630859375</LongitudeDegrees>
            </Position>
            <AltitudeMeters>14.80000019073486328125</AltitudeMeters>
            <DistanceMeters>NAN</DistanceMeters>
          </Trackpoint>
          <Trackpoint>
            <Time>2021-08-12T14:08:03.000Z</Time>
            <Position>
              <LatitudeDegrees>43.30867418088018894195556640625</LatitudeDegrees>
              <LongitudeDegrees>-2.0093706808984279632568359375</LongitudeDegrees>
            </Position>
            <AltitudeMeters>14.80000019073486328125</AltitudeMeters>
            <DistanceMeters>NAN</DistanceMeters>
          </Trackpoint>
          <Trackpoint>
            <Time>2021-08-12T14:08:04.000Z</Time>
            <Position>
              <LatitudeDegrees>43.30865691415965557098388671875</LatitudeDegrees>
              <LongitudeDegrees>-2.00937646441161632537841796875</LongitudeDegrees>
            </Position>
            <AltitudeMeters>14.80000019073486328125</AltitudeMeters>
            <DistanceMeters>NAN</DistanceMeters>
          </Trackpoint>
          <Trackpoint>
            <Time>2021-08-12T14:08:05.000Z</Time>
            <Position>
              <LatitudeDegrees>43.30863294191658496856689453125</LatitudeDegrees>
              <LongitudeDegrees>-2.00938618741929531097412109375</LongitudeDegrees>
            </Position>
            <AltitudeMeters>14.80000019073486328125</AltitudeMeters>
            <DistanceMeters>NAN</DistanceMeters>
          </Trackpoint>
          <Trackpoint>
            <Time>2021-08-12T14:08:06.000Z</Time>
            <Position>
              <LatitudeDegrees>43.308609388768672943115234375</LatitudeDegrees>
              <LongitudeDegrees>-2.0093887858092784881591796875</LongitudeDegrees>
            </Position>
            <AltitudeMeters>14.80000019073486328125</AltitudeMeters>
            <DistanceMeters>NAN</DistanceMeters>
          </Trackpoint>
          <Trackpoint>
            <Time>2021-08-12T14:08:08.000Z</Time>
            <Position>
              <LatitudeDegrees>43.30852095969021320343017578125</LatitudeDegrees>
              <LongitudeDegrees>-2.00944419018924236297607421875</LongitudeDegrees>
            </Position>
            <AltitudeMeters>15</AltitudeMeters>
            <DistanceMeters>NAN</DistanceMeters>
          </Trackpoint>
          <Trackpoint>
            <Time>2021-08-12T14:08:12.000Z</Time>
            <Position>
              <LatitudeDegrees>43.308406881988048553466796875</LatitudeDegrees>
              <LongitudeDegrees>-2.00944595038890838623046875</LongitudeDegrees>
            </Position>
            <AltitudeMeters>15.19999980926513671875</AltitudeMeters>
            <DistanceMeters>NAN</DistanceMeters>
          </Trackpoint>
          <Trackpoint>
            <Time>2021-08-12T14:08:13.000Z</Time>
            <Position>
              <LatitudeDegrees>43.30838249064981937408447265625</LatitudeDegrees>
              <LongitudeDegrees>-2.009426839649677276611328125</LongitudeDegrees>
            </Position>
            <AltitudeMeters>15.19999980926513671875</AltitudeMeters>
            <DistanceMeters>NAN</DistanceMeters>
          </Trackpoint>
          <Trackpoint>
            <Time>2021-08-12T14:08:14.000Z</Time>
            <Position>
              <LatitudeDegrees>43.3083611167967319488525390625</LatitudeDegrees>
              <LongitudeDegrees>-2.00941183604300022125244140625</LongitudeDegrees>
            </Position>
            <AltitudeMeters>15.19999980926513671875</AltitudeMeters>
            <DistanceMeters>NAN</DistanceMeters>
          </Trackpoint>
          <Trackpoint>
            <Time>2021-08-12T14:08:15.000Z</Time>
            <Position>
              <LatitudeDegrees>43.30834812484681606292724609375</LatitudeDegrees>
              <LongitudeDegrees>-2.00940362177789211273193359375</LongitudeDegrees>
            </Position>
            <AltitudeMeters>15</AltitudeMeters>
            <DistanceMeters>NAN</DistanceMeters>
          </Trackpoint>
          <Trackpoint>
            <Time>2021-08-12T14:08:16.000Z</Time>
            <Position>
              <LatitudeDegrees>43.30833102576434612274169921875</LatitudeDegrees>
              <LongitudeDegrees>-2.00939792208373546600341796875</LongitudeDegrees>
            </Position>
            <AltitudeMeters>15</AltitudeMeters>
            <DistanceMeters>NAN</DistanceMeters>
          </Trackpoint>
          <Trackpoint>
            <Time>2021-08-12T14:08:17.000Z</Time>
            <Position>
              <LatitudeDegrees>43.3083161897957324981689453125</LatitudeDegrees>
              <LongitudeDegrees>-2.00939876027405261993408203125</LongitudeDegrees>
            </Position>
            <AltitudeMeters>15</AltitudeMeters>
            <DistanceMeters>NAN</DistanceMeters>
          </Trackpoint>
          <Trackpoint>
            <Time>2021-08-12T14:08:18.000Z</Time>
            <Position>
              <LatitudeDegrees>43.30830638296902179718017578125</LatitudeDegrees>
              <LongitudeDegrees>-2.00939901173114776611328125</LongitudeDegrees>
            </Position>
            <AltitudeMeters>14.80000019073486328125</AltitudeMeters>
            <DistanceMeters>NAN</DistanceMeters>
          </Trackpoint>
          <Trackpoint>
            <Time>2021-08-12T14:08:21.000Z</Time>
            <Position>
              <LatitudeDegrees>43.308303616940975189208984375</LatitudeDegrees>
              <LongitudeDegrees>-2.00940093956887722015380859375</LongitudeDegrees>
            </Position>
            <AltitudeMeters>14.80000019073486328125</AltitudeMeters>
            <DistanceMeters>NAN</DistanceMeters>
          </Trackpoint>
          <Trackpoint>
            <Time>2021-08-12T14:08:47.000Z</Time>
            <Position>
              <LatitudeDegrees>43.308307640254497528076171875</LatitudeDegrees>
              <LongitudeDegrees>-2.00941066257655620574951171875</LongitudeDegrees>
            </Position>
            <AltitudeMeters>14.6000003814697265625</AltitudeMeters>
            <DistanceMeters>NAN</DistanceMeters>
          </Trackpoint>
          <Trackpoint>
            <Time>2021-08-12T14:08:49.000Z</Time>
            <Position>
              <LatitudeDegrees>43.3082913793623447418212890625</LatitudeDegrees>
              <LongitudeDegrees>-2.00939104892313480377197265625</LongitudeDegrees>
            </Position>
            <AltitudeMeters>14.6000003814697265625</AltitudeMeters>
            <DistanceMeters>NAN</DistanceMeters>
          </Trackpoint>
          <Trackpoint>
            <Time>2021-08-12T14:08:50.000Z</Time>
            <Position>
              <LatitudeDegrees>43.3082793094217777252197265625</LatitudeDegrees>
              <LongitudeDegrees>-2.0093820802867412567138671875</LongitudeDegrees>
            </Position>
            <AltitudeMeters>14.6000003814697265625</AltitudeMeters>
            <DistanceMeters>NAN</DistanceMeters>
          </Trackpoint>
          <Trackpoint>
            <Time>2021-08-12T14:08:51.000Z</Time>
            <Position>
              <LatitudeDegrees>43.308264054358005523681640625</LatitudeDegrees>
              <LongitudeDegrees>-2.00938652269542217254638671875</LongitudeDegrees>
            </Position>
            <AltitudeMeters>14.6000003814697265625</AltitudeMeters>
            <DistanceMeters>NAN</DistanceMeters>
          </Trackpoint>
          <Trackpoint>
            <Time>2021-08-12T14:08:55.000Z</Time>
            <Position>
              <LatitudeDegrees>43.30819205380976200103759765625</LatitudeDegrees>
              <LongitudeDegrees>-2.00948216021060943603515625</LongitudeDegrees>
            </Position>
            <AltitudeMeters>14.6000003814697265625</AltitudeMeters>
            <DistanceMeters>NAN</DistanceMeters>
          </Trackpoint>
          <Trackpoint>
            <Time>2021-08-12T14:08:56.000Z</Time>
            <Position>
              <LatitudeDegrees>43.30817629583179950714111328125</LatitudeDegrees>
              <LongitudeDegrees>-2.00950537808239459991455078125</LongitudeDegrees>
            </Position>
            <AltitudeMeters>14.6000003814697265625</AltitudeMeters>
            <DistanceMeters>NAN</DistanceMeters>
          </Trackpoint>
          <Trackpoint>
            <Time>2021-08-12T14:08:57.000Z</Time>
            <Position>
              <LatitudeDegrees>43.30815978348255157470703125</LatitudeDegrees>
              <LongitudeDegrees>-2.0095255784690380096435546875</LongitudeDegrees>
            </Position>
            <AltitudeMeters>14.6000003814697265625</AltitudeMeters>
            <DistanceMeters>NAN</DistanceMeters>
          </Trackpoint>
          <Trackpoint>
            <Time>2021-08-12T14:08:59.000Z</Time>
            <Position>
              <LatitudeDegrees>43.308110497891902923583984375</LatitudeDegrees>
              <LongitudeDegrees>-2.009571678936481475830078125</LongitudeDegrees>
            </Position>
            <AltitudeMeters>14.6000003814697265625</AltitudeMeters>
            <DistanceMeters>NAN</DistanceMeters>
          </Trackpoint>
          <Trackpoint>
            <Time>2021-08-12T14:09:00.000Z</Time>
            <Position>
              <LatitudeDegrees>43.30808124504983425140380859375</LatitudeDegrees>
              <LongitudeDegrees>-2.0095725171267986297607421875</LongitudeDegrees>
            </Position>
            <AltitudeMeters>14.6000003814697265625</AltitudeMeters>
            <DistanceMeters>NAN</DistanceMeters>
          </Trackpoint>
          <Trackpoint>
            <Time>2021-08-12T14:09:01.000Z</Time>
            <Position>
              <LatitudeDegrees>43.30805375240743160247802734375</LatitudeDegrees>
              <LongitudeDegrees>-2.0095606148242950439453125</LongitudeDegrees>
            </Position>
            <AltitudeMeters>14.6000003814697265625</AltitudeMeters>
            <DistanceMeters>NAN</DistanceMeters>
          </Trackpoint>
          <Trackpoint>
            <Time>2021-08-12T14:09:04.000Z</Time>
            <Position>
              <LatitudeDegrees>43.30798166804015636444091796875</LatitudeDegrees>
              <LongitudeDegrees>-2.00949414633214473724365234375</LongitudeDegrees>
            </Position>
            <AltitudeMeters>14.6000003814697265625</AltitudeMeters>
            <DistanceMeters>NAN</DistanceMeters>
          </Trackpoint>
          <Trackpoint>
            <Time>2021-08-12T14:09:05.000Z</Time>
            <Position>
              <LatitudeDegrees>43.307950235903263092041015625</LatitudeDegrees>
              <LongitudeDegrees>-2.00946338474750518798828125</LongitudeDegrees>
            </Position>
            <AltitudeMeters>14.6000003814697265625</AltitudeMeters>
            <DistanceMeters>NAN</DistanceMeters>
          </Trackpoint>
          <Trackpoint>
            <Time>2021-08-12T14:09:08.000Z</Time>
            <Position>
              <LatitudeDegrees>43.30786415375769138336181640625</LatitudeDegrees>
              <LongitudeDegrees>-2.0093800686299800872802734375</LongitudeDegrees>
            </Position>
            <AltitudeMeters>14.6000003814697265625</AltitudeMeters>
            <DistanceMeters>NAN</DistanceMeters>
          </Trackpoint>
          <Trackpoint>
            <Time>2021-08-12T14:09:20.000Z</Time>
            <Position>
              <LatitudeDegrees>43.30751831643283367156982421875</LatitudeDegrees>
              <LongitudeDegrees>-2.00904454104602336883544921875</LongitudeDegrees>
            </Position>
            <AltitudeMeters>14.80000019073486328125</AltitudeMeters>
            <DistanceMeters>NAN</DistanceMeters>
          </Trackpoint>
          <Trackpoint>
            <Time>2021-08-12T14:09:25.000Z</Time>
            <Position>
              <LatitudeDegrees>43.3073690347373485565185546875</LatitudeDegrees>
              <LongitudeDegrees>-2.0089069940149784088134765625</LongitudeDegrees>
            </Position>
            <AltitudeMeters>14.80000019073486328125</AltitudeMeters>
            <DistanceMeters>NAN</DistanceMeters>
          </Trackpoint>
          <Trackpoint>
            <Time>2021-08-12T14:09:26.000Z</Time>
            <Position>
              <LatitudeDegrees>43.3073492534458637237548828125</LatitudeDegrees>
              <LongitudeDegrees>-2.0088892243802547454833984375</LongitudeDegrees>
            </Position>
            <AltitudeMeters>14.80000019073486328125</AltitudeMeters>
            <DistanceMeters>NAN</DistanceMeters>
          </Trackpoint>
          <Trackpoint>
            <Time>2021-08-12T14:09:27.000Z</Time>
            <Position>
              <LatitudeDegrees>43.30733492039144039154052734375</LatitudeDegrees>
              <LongitudeDegrees>-2.00887195765972137451171875</LongitudeDegrees>
            </Position>
            <AltitudeMeters>14.80000019073486328125</AltitudeMeters>
            <DistanceMeters>NAN</DistanceMeters>
          </Trackpoint>
          <Trackpoint>
            <Time>2021-08-12T14:09:28.000Z</Time>
            <Position>
              <LatitudeDegrees>43.3073267899453639984130859375</LatitudeDegrees>
              <LongitudeDegrees>-2.00885427184402942657470703125</LongitudeDegrees>
            </Position>
            <AltitudeMeters>14.80000019073486328125</AltitudeMeters>
            <DistanceMeters>NAN</DistanceMeters>
          </Trackpoint>
          <Trackpoint>
            <Time>2021-08-12T14:09:29.000Z</Time>
            <Position>
              <LatitudeDegrees>43.3073231019079685211181640625</LatitudeDegrees>
              <LongitudeDegrees>-2.0088385976850986480712890625</LongitudeDegrees>
            </Position>
            <AltitudeMeters>14.80000019073486328125</AltitudeMeters>
            <DistanceMeters>NAN</DistanceMeters>
          </Trackpoint>
          <Trackpoint>
            <Time>2021-08-12T14:09:30.000Z</Time>
            <Position>
              <LatitudeDegrees>43.30732452683150768280029296875</LatitudeDegrees>
              <LongitudeDegrees>-2.00882812030613422393798828125</LongitudeDegrees>
            </Position>
            <AltitudeMeters>14.80000019073486328125</AltitudeMeters>
            <DistanceMeters>NAN</DistanceMeters>
          </Trackpoint>
          <Trackpoint>
            <Time>2021-08-12T14:09:31.000Z</Time>
            <Position>
              <LatitudeDegrees>43.3073284663259983062744140625</LatitudeDegrees>
              <LongitudeDegrees>-2.008823342621326446533203125</LongitudeDegrees>
            </Position>
            <AltitudeMeters>14.80000019073486328125</AltitudeMeters>
            <DistanceMeters>NAN</DistanceMeters>
          </Trackpoint>
          <Trackpoint>
            <Time>2021-08-12T14:09:32.000Z</Time>
            <Position>
              <LatitudeDegrees>43.3073318190872669219970703125</LatitudeDegrees>
              <LongitudeDegrees>-2.0088214986026287078857421875</LongitudeDegrees>
            </Position>
            <AltitudeMeters>14.80000019073486328125</AltitudeMeters>
            <DistanceMeters>NAN</DistanceMeters>
          </Trackpoint>
          <Trackpoint>
            <Time>2021-08-12T14:10:03.000Z</Time>
            <Position>
              <LatitudeDegrees>43.30735537223517894744873046875</LatitudeDegrees>
              <LongitudeDegrees>-2.0088617317378520965576171875</LongitudeDegrees>
            </Position>
            <AltitudeMeters>14.6000003814697265625</AltitudeMeters>
            <DistanceMeters>NAN</DistanceMeters>
          </Trackpoint>
          <Trackpoint>
            <Time>2021-08-12T14:10:14.000Z</Time>
            <Position>
              <LatitudeDegrees>43.307370878756046295166015625</LatitudeDegrees>
              <LongitudeDegrees>-2.0088610611855983734130859375</LongitudeDegrees>
            </Position>
            <AltitudeMeters>14.6000003814697265625</AltitudeMeters>
            <DistanceMeters>NAN</DistanceMeters>
          </Trackpoint>
          <Trackpoint>
            <Time>2021-08-12T14:10:17.000Z</Time>
            <Position>
              <LatitudeDegrees>43.30741102807223796844482421875</LatitudeDegrees>
              <LongitudeDegrees>-2.00877799652516841888427734375</LongitudeDegrees>
            </Position>
            <AltitudeMeters>14.6000003814697265625</AltitudeMeters>
            <DistanceMeters>NAN</DistanceMeters>
          </Trackpoint>
          <Trackpoint>
            <Time>2021-08-12T14:10:18.000Z</Time>
            <Position>
              <LatitudeDegrees>43.30742360092699527740478515625</LatitudeDegrees>
              <LongitudeDegrees>-2.00875184498727321624755859375</LongitudeDegrees>
            </Position>
            <AltitudeMeters>14.6000003814697265625</AltitudeMeters>
            <DistanceMeters>NAN</DistanceMeters>
          </Trackpoint>
          <Trackpoint>
            <Time>2021-08-12T14:10:21.000Z</Time>
            <Position>
              <LatitudeDegrees>43.307459391653537750244140625</LatitudeDegrees>
              <LongitudeDegrees>-2.0086381025612354278564453125</LongitudeDegrees>
            </Position>
            <AltitudeMeters>14.6000003814697265625</AltitudeMeters>
            <DistanceMeters>NAN</DistanceMeters>
          </Trackpoint>
          <Trackpoint>
            <Time>2021-08-12T14:10:22.000Z</Time>
            <Position>
              <LatitudeDegrees>43.3074541948735713958740234375</LatitudeDegrees>
              <LongitudeDegrees>-2.00860968790948390960693359375</LongitudeDegrees>
            </Position>
            <AltitudeMeters>14.6000003814697265625</AltitudeMeters>
            <DistanceMeters>NAN</DistanceMeters>
          </Trackpoint>
          <Trackpoint>
            <Time>2021-08-12T14:10:23.000Z</Time>
            <Position>
              <LatitudeDegrees>43.30744354985654354095458984375</LatitudeDegrees>
              <LongitudeDegrees>-2.008586637675762176513671875</LongitudeDegrees>
            </Position>
            <AltitudeMeters>14.6000003814697265625</AltitudeMeters>
            <DistanceMeters>NAN</DistanceMeters>
          </Trackpoint>
          <Trackpoint>
            <Time>2021-08-12T14:10:26.000Z</Time>
            <Position>
              <LatitudeDegrees>43.30736140720546245574951171875</LatitudeDegrees>
              <LongitudeDegrees>-2.0085019804537296295166015625</LongitudeDegrees>
            </Position>
            <AltitudeMeters>14.6000003814697265625</AltitudeMeters>
            <DistanceMeters>NAN</DistanceMeters>
          </Trackpoint>
          <Trackpoint>
            <Time>2021-08-12T14:10:27.000Z</Time>
            <Position>
              <LatitudeDegrees>43.3073365129530429840087890625</LatitudeDegrees>
              <LongitudeDegrees>-2.00847155414521694183349609375</LongitudeDegrees>
            </Position>
            <AltitudeMeters>14.6000003814697265625</AltitudeMeters>
            <DistanceMeters>NAN</DistanceMeters>
          </Trackpoint>
          <Trackpoint>
            <Time>2021-08-12T14:10:37.000Z</Time>
            <Position>
              <LatitudeDegrees>43.3070562221109867095947265625</LatitudeDegrees>
              <LongitudeDegrees>-2.00818791054189205169677734375</LongitudeDegrees>
            </Position>
            <AltitudeMeters>15</AltitudeMeters>
            <DistanceMeters>NAN</DistanceMeters>
          </Trackpoint>
          <Trackpoint>
            <Time>2021-08-12T14:10:41.000Z</Time>
            <Position>
              <LatitudeDegrees>43.3069589920341968536376953125</LatitudeDegrees>
              <LongitudeDegrees>-2.008013986051082611083984375</LongitudeDegrees>
            </Position>
            <AltitudeMeters>15</AltitudeMeters>
            <DistanceMeters>NAN</DistanceMeters>
          </Trackpoint>
          <Trackpoint>
            <Time>2021-08-12T14:10:42.000Z</Time>
            <Position>
              <LatitudeDegrees>43.30693661235272884368896484375</LatitudeDegrees>
              <LongitudeDegrees>-2.00797517783939838409423828125</LongitudeDegrees>
            </Position>
            <AltitudeMeters>15</AltitudeMeters>
            <DistanceMeters>NAN</DistanceMeters>
          </Trackpoint>
          <Trackpoint>
            <Time>2021-08-12T14:10:44.000Z</Time>
            <Position>
              <LatitudeDegrees>43.30688011832535266876220703125</LatitudeDegrees>
              <LongitudeDegrees>-2.00792849063873291015625</LongitudeDegrees>
            </Position>
            <AltitudeMeters>15</AltitudeMeters>
            <DistanceMeters>NAN</DistanceMeters>
          </Trackpoint>
          <Trackpoint>
            <Time>2021-08-12T14:10:45.000Z</Time>
            <Position>
              <LatitudeDegrees>43.3068584091961383819580078125</LatitudeDegrees>
              <LongitudeDegrees>-2.00791214592754840850830078125</LongitudeDegrees>
            </Position>
            <AltitudeMeters>15</AltitudeMeters>
            <DistanceMeters>NAN</DistanceMeters>
          </Trackpoint>
          <Trackpoint>
            <Time>2021-08-12T14:10:46.000Z</Time>
            <Position>
              <LatitudeDegrees>43.3068312518298625946044921875</LatitudeDegrees>
              <LongitudeDegrees>-2.0078909397125244140625</LongitudeDegrees>
            </Position>
            <AltitudeMeters>15</AltitudeMeters>
            <DistanceMeters>NAN</DistanceMeters>
          </Trackpoint>
          <Trackpoint>
            <Time>2021-08-12T14:10:47.000Z</Time>
            <Position>
              <LatitudeDegrees>43.3067980594933032989501953125</LatitudeDegrees>
              <LongitudeDegrees>-2.0078857429325580596923828125</LongitudeDegrees>
            </Position>
            <AltitudeMeters>15</AltitudeMeters>
            <DistanceMeters>NAN</DistanceMeters>
          </Trackpoint>
          <Trackpoint>
            <Time>2021-08-12T14:10:49.000Z</Time>
            <Position>
              <LatitudeDegrees>43.30672974698245525360107421875</LatitudeDegrees>
              <LongitudeDegrees>-2.00787417590618133544921875</LongitudeDegrees>
            </Position>
            <AltitudeMeters>14.80000019073486328125</AltitudeMeters>
            <DistanceMeters>NAN</DistanceMeters>
          </Trackpoint>
          <Trackpoint>
            <Time>2021-08-12T14:10:54.000Z</Time>
            <Position>
              <LatitudeDegrees>43.3065730892121791839599609375</LatitudeDegrees>
              <LongitudeDegrees>-2.0077496208250522613525390625</LongitudeDegrees>
            </Position>
            <AltitudeMeters>14.80000019073486328125</AltitudeMeters>
            <DistanceMeters>NAN</DistanceMeters>
          </Trackpoint>
          <Trackpoint>
            <Time>2021-08-12T14:11:00.000Z</Time>
            <Position>
              <LatitudeDegrees>43.306393213570117950439453125</LatitudeDegrees>
              <LongitudeDegrees>-2.00754736550152301788330078125</LongitudeDegrees>
            </Position>
            <AltitudeMeters>15</AltitudeMeters>
            <DistanceMeters>NAN</DistanceMeters>
          </Trackpoint>
          <Trackpoint>
            <Time>2021-08-12T14:11:08.000Z</Time>
            <Position>
              <LatitudeDegrees>43.30616363324224948883056640625</LatitudeDegrees>
              <LongitudeDegrees>-2.0072782225906848907470703125</LongitudeDegrees>
            </Position>
            <AltitudeMeters>14.80000019073486328125</AltitudeMeters>
            <DistanceMeters>NAN</DistanceMeters>
          </Trackpoint>
          <Trackpoint>
            <Time>2021-08-12T14:11:17.000Z</Time>
            <Position>
              <LatitudeDegrees>43.305890969932079315185546875</LatitudeDegrees>
              <LongitudeDegrees>-2.00701721012592315673828125</LongitudeDegrees>
            </Position>
            <AltitudeMeters>15</AltitudeMeters>
            <DistanceMeters>NAN</DistanceMeters>
          </Trackpoint>
          <Trackpoint>
            <Time>2021-08-12T14:11:18.000Z</Time>
            <Position>
              <LatitudeDegrees>43.305863477289676666259765625</LatitudeDegrees>
              <LongitudeDegrees>-2.00699382461607456207275390625</LongitudeDegrees>
            </Position>
            <AltitudeMeters>15</AltitudeMeters>
            <DistanceMeters>NAN</DistanceMeters>
          </Trackpoint>
          <Trackpoint>
            <Time>2021-08-12T14:11:19.000Z</Time>
            <Position>
              <LatitudeDegrees>43.30582181923091411590576171875</LatitudeDegrees>
              <LongitudeDegrees>-2.00696046464145183563232421875</LongitudeDegrees>
            </Position>
            <AltitudeMeters>15</AltitudeMeters>
            <DistanceMeters>NAN</DistanceMeters>
          </Trackpoint>
          <Trackpoint>
            <Time>2021-08-12T14:11:20.000Z</Time>
            <Position>
              <LatitudeDegrees>43.305785357952117919921875</LatitudeDegrees>
              <LongitudeDegrees>-2.006935738027095794677734375</LongitudeDegrees>
            </Position>
            <AltitudeMeters>15</AltitudeMeters>
            <DistanceMeters>NAN</DistanceMeters>
          </Trackpoint>
          <Trackpoint>
            <Time>2021-08-12T14:11:26.000Z</Time>
            <Position>
              <LatitudeDegrees>43.30556885339319705963134765625</LatitudeDegrees>
              <LongitudeDegrees>-2.00676835142076015472412109375</LongitudeDegrees>
            </Position>
            <AltitudeMeters>15</AltitudeMeters>
            <DistanceMeters>NAN</DistanceMeters>
          </Trackpoint>
          <Trackpoint>
            <Time>2021-08-12T14:11:32.000Z</Time>
            <Position>
              <LatitudeDegrees>43.30537162721157073974609375</LatitudeDegrees>
              <LongitudeDegrees>-2.0065922476351261138916015625</LongitudeDegrees>
            </Position>
            <AltitudeMeters>15.19999980926513671875</AltitudeMeters>
            <DistanceMeters>NAN</DistanceMeters>
          </Trackpoint>
          <Trackpoint>
            <Time>2021-08-12T14:11:33.000Z</Time>
            <Position>
              <LatitudeDegrees>43.30535058863461017608642578125</LatitudeDegrees>
              <LongitudeDegrees>-2.006563581526279449462890625</LongitudeDegrees>
            </Position>
            <AltitudeMeters>15.19999980926513671875</AltitudeMeters>
            <DistanceMeters>NAN</DistanceMeters>
          </Trackpoint>
          <Trackpoint>
            <Time>2021-08-12T14:11:34.000Z</Time>
            <Position>
              <LatitudeDegrees>43.3053238503634929656982421875</LatitudeDegrees>
              <LongitudeDegrees>-2.0065297186374664306640625</LongitudeDegrees>
            </Position>
            <AltitudeMeters>15.19999980926513671875</AltitudeMeters>
            <DistanceMeters>NAN</DistanceMeters>
          </Trackpoint>
          <Trackpoint>
            <Time>2021-08-12T14:11:36.000Z</Time>
            <Position>
              <LatitudeDegrees>43.30525771714746952056884765625</LatitudeDegrees>
              <LongitudeDegrees>-2.00645260512828826904296875</LongitudeDegrees>
            </Position>
            <AltitudeMeters>15</AltitudeMeters>
            <DistanceMeters>NAN</DistanceMeters>
          </Trackpoint>
          <Trackpoint>
            <Time>2021-08-12T14:11:38.000Z</Time>
            <Position>
              <LatitudeDegrees>43.30520457588136196136474609375</LatitudeDegrees>
              <LongitudeDegrees>-2.0064065046608448028564453125</LongitudeDegrees>
            </Position>
            <AltitudeMeters>15</AltitudeMeters>
            <DistanceMeters>NAN</DistanceMeters>
          </Trackpoint>
          <Trackpoint>
            <Time>2021-08-12T14:11:39.000Z</Time>
            <Position>
              <LatitudeDegrees>43.30517339520156383514404296875</LatitudeDegrees>
              <LongitudeDegrees>-2.0063850469887256622314453125</LongitudeDegrees>
            </Position>
            <AltitudeMeters>15</AltitudeMeters>
            <DistanceMeters>NAN</DistanceMeters>
          </Trackpoint>
          <Trackpoint>
            <Time>2021-08-12T14:11:40.000Z</Time>
            <Position>
              <LatitudeDegrees>43.3051531948149204254150390625</LatitudeDegrees>
              <LongitudeDegrees>-2.0063790120184421539306640625</LongitudeDegrees>
            </Position>
            <AltitudeMeters>15</AltitudeMeters>
            <DistanceMeters>NAN</DistanceMeters>
          </Trackpoint>
          <Trackpoint>
            <Time>2021-08-12T14:11:41.000Z</Time>
            <Position>
              <LatitudeDegrees>43.30513685010373592376708984375</LatitudeDegrees>
              <LongitudeDegrees>-2.00638077221810817718505859375</LongitudeDegrees>
            </Position>
            <AltitudeMeters>15</AltitudeMeters>
            <DistanceMeters>NAN</DistanceMeters>
          </Trackpoint>
          <Trackpoint>
            <Time>2021-08-12T14:11:42.000Z</Time>
            <Position>
              <LatitudeDegrees>43.30512310378253459930419921875</LatitudeDegrees>
              <LongitudeDegrees>-2.0063816942274570465087890625</LongitudeDegrees>
            </Position>
            <AltitudeMeters>15</AltitudeMeters>
            <DistanceMeters>NAN</DistanceMeters>
          </Trackpoint>
          <Trackpoint>
            <Time>2021-08-12T14:11:43.000Z</Time>
            <Position>
              <LatitudeDegrees>43.3051129616796970367431640625</LatitudeDegrees>
              <LongitudeDegrees>-2.00637540780007839202880859375</LongitudeDegrees>
            </Position>
            <AltitudeMeters>15</AltitudeMeters>
            <DistanceMeters>NAN</DistanceMeters>
          </Trackpoint>
          <Trackpoint>
            <Time>2021-08-12T14:11:44.000Z</Time>
            <Position>
              <LatitudeDegrees>43.3051029033958911895751953125</LatitudeDegrees>
              <LongitudeDegrees>-2.006365768611431121826171875</LongitudeDegrees>
            </Position>
            <AltitudeMeters>15</AltitudeMeters>
            <DistanceMeters>NAN</DistanceMeters>
          </Trackpoint>
          <Trackpoint>
            <Time>2021-08-12T14:11:45.000Z</Time>
            <Position>
              <LatitudeDegrees>43.30508806742727756500244140625</LatitudeDegrees>
              <LongitudeDegrees>-2.0063526928424835205078125</LongitudeDegrees>
            </Position>
            <AltitudeMeters>15</AltitudeMeters>
            <DistanceMeters>NAN</DistanceMeters>
          </Trackpoint>
          <Trackpoint>
            <Time>2021-08-12T14:11:46.000Z</Time>
            <Position>
              <LatitudeDegrees>43.3050784282386302947998046875</LatitudeDegrees>
              <LongitudeDegrees>-2.00634397566318511962890625</LongitudeDegrees>
            </Position>
            <AltitudeMeters>15</AltitudeMeters>
            <DistanceMeters>NAN</DistanceMeters>
          </Trackpoint>
          <Trackpoint>
            <Time>2021-08-12T14:11:47.000Z</Time>
            <Position>
              <LatitudeDegrees>43.30507113598287105560302734375</LatitudeDegrees>
              <LongitudeDegrees>-2.00633903034031391143798828125</LongitudeDegrees>
            </Position>
            <AltitudeMeters>15</AltitudeMeters>
            <DistanceMeters>NAN</DistanceMeters>
          </Trackpoint>
          <Trackpoint>
            <Time>2021-08-12T14:11:50.000Z</Time>
            <Position>
              <LatitudeDegrees>43.30506853759288787841796875</LatitudeDegrees>
              <LongitudeDegrees>-2.00633383356034755706787109375</LongitudeDegrees>
            </Position>
            <AltitudeMeters>15</AltitudeMeters>
            <DistanceMeters>NAN</DistanceMeters>
          </Trackpoint>
          <Trackpoint>
            <Time>2021-08-12T14:11:57.000Z</Time>
            <Position>
              <LatitudeDegrees>43.3050598204135894775390625</LatitudeDegrees>
              <LongitudeDegrees>-2.00633534230291843414306640625</LongitudeDegrees>
            </Position>
            <AltitudeMeters>15</AltitudeMeters>
            <DistanceMeters>NAN</DistanceMeters>
          </Trackpoint>
          <Trackpoint>
            <Time>2021-08-12T14:12:03.000Z</Time>
            <Position>
              <LatitudeDegrees>43.30504515208303928375244140625</LatitudeDegrees>
              <LongitudeDegrees>-2.00639552436769008636474609375</LongitudeDegrees>
            </Position>
            <AltitudeMeters>14.80000019073486328125</AltitudeMeters>
            <DistanceMeters>NAN</DistanceMeters>
          </Trackpoint>
          <Trackpoint>
            <Time>2021-08-12T14:12:08.000Z</Time>
            <Position>
              <LatitudeDegrees>43.30502159893512725830078125</LatitudeDegrees>
              <LongitudeDegrees>-2.006498537957668304443359375</LongitudeDegrees>
            </Position>
            <AltitudeMeters>14.80000019073486328125</AltitudeMeters>
            <DistanceMeters>NAN</DistanceMeters>
          </Trackpoint>
          <Trackpoint>
            <Time>2021-08-12T14:12:09.000Z</Time>
            <Position>
              <LatitudeDegrees>43.305009864270687103271484375</LatitudeDegrees>
              <LongitudeDegrees>-2.0065211690962314605712890625</LongitudeDegrees>
            </Position>
            <AltitudeMeters>14.80000019073486328125</AltitudeMeters>
            <DistanceMeters>NAN</DistanceMeters>
          </Trackpoint>
          <Trackpoint>
            <Time>2021-08-12T14:12:10.000Z</Time>
            <Position>
              <LatitudeDegrees>43.30499251373112201690673828125</LatitudeDegrees>
              <LongitudeDegrees>-2.00654019601643085479736328125</LongitudeDegrees>
            </Position>
            <AltitudeMeters>14.80000019073486328125</AltitudeMeters>
            <DistanceMeters>NAN</DistanceMeters>
          </Trackpoint>
          <Trackpoint>
            <Time>2021-08-12T14:12:11.000Z</Time>
            <Position>
              <LatitudeDegrees>43.3049697987735271453857421875</LatitudeDegrees>
              <LongitudeDegrees>-2.00655209831893444061279296875</LongitudeDegrees>
            </Position>
            <AltitudeMeters>14.80000019073486328125</AltitudeMeters>
            <DistanceMeters>NAN</DistanceMeters>
          </Trackpoint>
          <Trackpoint>
            <Time>2021-08-12T14:12:12.000Z</Time>
            <Position>
              <LatitudeDegrees>43.30494021065533161163330078125</LatitudeDegrees>
              <LongitudeDegrees>-2.0065523497760295867919921875</LongitudeDegrees>
            </Position>
            <AltitudeMeters>14.6000003814697265625</AltitudeMeters>
            <DistanceMeters>NAN</DistanceMeters>
          </Trackpoint>
          <Trackpoint>
            <Time>2021-08-12T14:12:13.000Z</Time>
            <Position>
              <LatitudeDegrees>43.3049124665558338165283203125</LatitudeDegrees>
              <LongitudeDegrees>-2.00653634034097194671630859375</LongitudeDegrees>
            </Position>
            <AltitudeMeters>14.6000003814697265625</AltitudeMeters>
            <DistanceMeters>NAN</DistanceMeters>
          </Trackpoint>
          <Trackpoint>
            <Time>2021-08-12T14:12:16.000Z</Time>
            <Position>
              <LatitudeDegrees>43.304836861789226531982421875</LatitudeDegrees>
              <LongitudeDegrees>-2.00647062622010707855224609375</LongitudeDegrees>
            </Position>
            <AltitudeMeters>14.6000003814697265625</AltitudeMeters>
            <DistanceMeters>NAN</DistanceMeters>
          </Trackpoint>
          <Trackpoint>
            <Time>2021-08-12T14:12:17.000Z</Time>
            <Position>
              <LatitudeDegrees>43.304804004728794097900390625</LatitudeDegrees>
              <LongitudeDegrees>-2.00644749216735363006591796875</LongitudeDegrees>
            </Position>
            <AltitudeMeters>14.6000003814697265625</AltitudeMeters>
            <DistanceMeters>NAN</DistanceMeters>
          </Trackpoint>
          <Trackpoint>
            <Time>2021-08-12T14:12:21.000Z</Time>
            <Position>
              <LatitudeDegrees>43.3046999014914035797119140625</LatitudeDegrees>
              <LongitudeDegrees>-2.00640558265149593353271484375</LongitudeDegrees>
            </Position>
            <AltitudeMeters>14.6000003814697265625</AltitudeMeters>
            <DistanceMeters>NAN</DistanceMeters>
          </Trackpoint>
          <Trackpoint>
            <Time>2021-08-12T14:12:26.000Z</Time>
            <Position>
              <LatitudeDegrees>43.30455757677555084228515625</LatitudeDegrees>
              <LongitudeDegrees>-2.0064350031316280364990234375</LongitudeDegrees>
            </Position>
            <AltitudeMeters>14.80000019073486328125</AltitudeMeters>
            <DistanceMeters>NAN</DistanceMeters>
          </Trackpoint>
          <Trackpoint>
            <Time>2021-08-12T14:12:28.000Z</Time>
            <Position>
              <LatitudeDegrees>43.30450083129107952117919921875</LatitudeDegrees>
              <LongitudeDegrees>-2.00646333396434783935546875</LongitudeDegrees>
            </Position>
            <AltitudeMeters>14.80000019073486328125</AltitudeMeters>
            <DistanceMeters>NAN</DistanceMeters>
          </Trackpoint>
          <Trackpoint>
            <Time>2021-08-12T14:12:29.000Z</Time>
            <Position>
              <LatitudeDegrees>43.3044752664864063262939453125</LatitudeDegrees>
              <LongitudeDegrees>-2.00647682882845401763916015625</LongitudeDegrees>
            </Position>
            <AltitudeMeters>14.80000019073486328125</AltitudeMeters>
            <DistanceMeters>NAN</DistanceMeters>
          </Trackpoint>
          <Trackpoint>
            <Time>2021-08-12T14:12:30.000Z</Time>
            <Position>
              <LatitudeDegrees>43.30445121042430400848388671875</LatitudeDegrees>
              <LongitudeDegrees>-2.00648521073162555694580078125</LongitudeDegrees>
            </Position>
            <AltitudeMeters>14.80000019073486328125</AltitudeMeters>
            <DistanceMeters>NAN</DistanceMeters>
          </Trackpoint>
          <Trackpoint>
            <Time>2021-08-12T14:12:31.000Z</Time>
            <Position>
              <LatitudeDegrees>43.30443059094250202178955078125</LatitudeDegrees>
              <LongitudeDegrees>-2.00649191625416278839111328125</LongitudeDegrees>
            </Position>
            <AltitudeMeters>14.80000019073486328125</AltitudeMeters>
            <DistanceMeters>NAN</DistanceMeters>
          </Trackpoint>
          <Trackpoint>
            <Time>2021-08-12T14:12:32.000Z</Time>
            <Position>
              <LatitudeDegrees>43.3044068701565265655517578125</LatitudeDegrees>
              <LongitudeDegrees>-2.00649409554898738861083984375</LongitudeDegrees>
            </Position>
            <AltitudeMeters>14.80000019073486328125</AltitudeMeters>
            <DistanceMeters>NAN</DistanceMeters>
          </Trackpoint>
          <Trackpoint>
            <Time>2021-08-12T14:12:34.000Z</Time>
            <Position>
              <LatitudeDegrees>43.30436169169843196868896484375</LatitudeDegrees>
              <LongitudeDegrees>-2.006495185196399688720703125</LongitudeDegrees>
            </Position>
            <AltitudeMeters>14.80000019073486328125</AltitudeMeters>
            <DistanceMeters>NAN</DistanceMeters>
          </Trackpoint>
          <Trackpoint>
            <Time>2021-08-12T14:12:35.000Z</Time>
            <Position>
              <LatitudeDegrees>43.30434040166437625885009765625</LatitudeDegrees>
              <LongitudeDegrees>-2.00649275444447994232177734375</LongitudeDegrees>
            </Position>
            <AltitudeMeters>14.80000019073486328125</AltitudeMeters>
            <DistanceMeters>NAN</DistanceMeters>
          </Trackpoint>
          <Trackpoint>
            <Time>2021-08-12T14:12:36.000Z</Time>
            <Position>
              <LatitudeDegrees>43.30432011745870113372802734375</LatitudeDegrees>
              <LongitudeDegrees>-2.006492502987384796142578125</LongitudeDegrees>
            </Position>
            <AltitudeMeters>14.80000019073486328125</AltitudeMeters>
            <DistanceMeters>NAN</DistanceMeters>
          </Trackpoint>
          <Trackpoint>
            <Time>2021-08-12T14:12:37.000Z</Time>
            <Position>
              <LatitudeDegrees>43.30429748632013797760009765625</LatitudeDegrees>
              <LongitudeDegrees>-2.00648990459740161895751953125</LongitudeDegrees>
            </Position>
            <AltitudeMeters>14.80000019073486328125</AltitudeMeters>
            <DistanceMeters>NAN</DistanceMeters>
          </Trackpoint>
          <Trackpoint>
            <Time>2021-08-12T14:12:38.000Z</Time>
            <Position>
              <LatitudeDegrees>43.304283320903778076171875</LatitudeDegrees>
              <LongitudeDegrees>-2.006485126912593841552734375</LongitudeDegrees>
            </Position>
            <AltitudeMeters>14.80000019073486328125</AltitudeMeters>
            <DistanceMeters>NAN</DistanceMeters>
          </Trackpoint>
          <Trackpoint>
            <Time>2021-08-12T14:12:39.000Z</Time>
            <Position>
              <LatitudeDegrees>43.3042739331722259521484375</LatitudeDegrees>
              <LongitudeDegrees>-2.00648252852261066436767578125</LongitudeDegrees>
            </Position>
            <AltitudeMeters>14.80000019073486328125</AltitudeMeters>
            <DistanceMeters>NAN</DistanceMeters>
          </Trackpoint>
          <Trackpoint>
            <Time>2021-08-12T14:12:40.000Z</Time>
            <Position>
              <LatitudeDegrees>43.304263539612293243408203125</LatitudeDegrees>
              <LongitudeDegrees>-2.0064799301326274871826171875</LongitudeDegrees>
            </Position>
            <AltitudeMeters>14.80000019073486328125</AltitudeMeters>
            <DistanceMeters>NAN</DistanceMeters>
          </Trackpoint>
          <Trackpoint>
            <Time>2021-08-12T14:12:41.000Z</Time>
            <Position>
              <LatitudeDegrees>43.30425524152815341949462890625</LatitudeDegrees>
              <LongitudeDegrees>-2.00647951103746891021728515625</LongitudeDegrees>
            </Position>
            <AltitudeMeters>14.80000019073486328125</AltitudeMeters>
            <DistanceMeters>NAN</DistanceMeters>
          </Trackpoint>
          <Trackpoint>
            <Time>2021-08-12T14:12:48.000Z</Time>
            <Position>
              <LatitudeDegrees>43.30424778163433074951171875</LatitudeDegrees>
              <LongitudeDegrees>-2.00648303143680095672607421875</LongitudeDegrees>
            </Position>
            <AltitudeMeters>14.3999996185302734375</AltitudeMeters>
            <DistanceMeters>NAN</DistanceMeters>
          </Trackpoint>
          <Trackpoint>
            <Time>2021-08-12T14:13:16.000Z</Time>
            <Position>
              <LatitudeDegrees>43.30420528538525104522705078125</LatitudeDegrees>
              <LongitudeDegrees>-2.00645922683179378509521484375</LongitudeDegrees>
            </Position>
            <AltitudeMeters>14.19999980926513671875</AltitudeMeters>
            <DistanceMeters>NAN</DistanceMeters>
          </Trackpoint>
          <Trackpoint>
            <Time>2021-08-12T14:13:17.000Z</Time>
            <Position>
              <LatitudeDegrees>43.3041865937411785125732421875</LatitudeDegrees>
              <LongitudeDegrees>-2.00644455850124359130859375</LongitudeDegrees>
            </Position>
            <AltitudeMeters>14.19999980926513671875</AltitudeMeters>
            <DistanceMeters>NAN</DistanceMeters>
          </Trackpoint>
          <Trackpoint>
            <Time>2021-08-12T14:13:19.000Z</Time>
            <Position>
              <LatitudeDegrees>43.3041453547775745391845703125</LatitudeDegrees>
              <LongitudeDegrees>-2.00640994124114513397216796875</LongitudeDegrees>
            </Position>
            <AltitudeMeters>14.19999980926513671875</AltitudeMeters>
            <DistanceMeters>NAN</DistanceMeters>
          </Trackpoint>
          <Trackpoint>
            <Time>2021-08-12T14:13:21.000Z</Time>
            <Position>
              <LatitudeDegrees>43.30409682355821132659912109375</LatitudeDegrees>
              <LongitudeDegrees>-2.0063873939216136932373046875</LongitudeDegrees>
            </Position>
            <AltitudeMeters>14.19999980926513671875</AltitudeMeters>
            <DistanceMeters>NAN</DistanceMeters>
          </Trackpoint>
          <Trackpoint>
            <Time>2021-08-12T14:13:22.000Z</Time>
            <Position>
              <LatitudeDegrees>43.3040781319141387939453125</LatitudeDegrees>
              <LongitudeDegrees>-2.00639225542545318603515625</LongitudeDegrees>
            </Position>
            <AltitudeMeters>14.3999996185302734375</AltitudeMeters>
            <DistanceMeters>NAN</DistanceMeters>
          </Trackpoint>
          <Trackpoint>
            <Time>2021-08-12T14:13:23.000Z</Time>
            <Position>
              <LatitudeDegrees>43.3040647208690643310546875</LatitudeDegrees>
              <LongitudeDegrees>-2.00641010887920856475830078125</LongitudeDegrees>
            </Position>
            <AltitudeMeters>14.3999996185302734375</AltitudeMeters>
            <DistanceMeters>NAN</DistanceMeters>
          </Trackpoint>
          <Trackpoint>
            <Time>2021-08-12T14:13:26.000Z</Time>
            <Position>
              <LatitudeDegrees>43.3040357194840908050537109375</LatitudeDegrees>
              <LongitudeDegrees>-2.00647431425750255584716796875</LongitudeDegrees>
            </Position>
            <AltitudeMeters>14.3999996185302734375</AltitudeMeters>
            <DistanceMeters>NAN</DistanceMeters>
          </Trackpoint>
          <Trackpoint>
            <Time>2021-08-12T14:13:27.000Z</Time>
            <Position>
              <LatitudeDegrees>43.304020799696445465087890625</LatitudeDegrees>
              <LongitudeDegrees>-2.00650230981409549713134765625</LongitudeDegrees>
            </Position>
            <AltitudeMeters>14.3999996185302734375</AltitudeMeters>
            <DistanceMeters>NAN</DistanceMeters>
          </Trackpoint>
          <Trackpoint>
            <Time>2021-08-12T14:13:28.000Z</Time>
            <Position>
              <LatitudeDegrees>43.304007388651371002197265625</LatitudeDegrees>
              <LongitudeDegrees>-2.006524018943309783935546875</LongitudeDegrees>
            </Position>
            <AltitudeMeters>14.3999996185302734375</AltitudeMeters>
            <DistanceMeters>NAN</DistanceMeters>
          </Trackpoint>
          <Trackpoint>
            <Time>2021-08-12T14:13:35.000Z</Time>
            <Position>
              <LatitudeDegrees>43.3038845099508762359619140625</LatitudeDegrees>
              <LongitudeDegrees>-2.006752006709575653076171875</LongitudeDegrees>
            </Position>
            <AltitudeMeters>14.6000003814697265625</AltitudeMeters>
            <DistanceMeters>NAN</DistanceMeters>
          </Trackpoint>
          <Trackpoint>
            <Time>2021-08-12T14:13:37.000Z</Time>
            <Position>
              <LatitudeDegrees>43.3038365654647350311279296875</LatitudeDegrees>
              <LongitudeDegrees>-2.00685116462409496307373046875</LongitudeDegrees>
            </Position>
            <AltitudeMeters>14.6000003814697265625</AltitudeMeters>
            <DistanceMeters>NAN</DistanceMeters>
          </Trackpoint>
          <Trackpoint>
            <Time>2021-08-12T14:13:41.000Z</Time>
            <Position>
              <LatitudeDegrees>43.3037611283361911773681640625</LatitudeDegrees>
              <LongitudeDegrees>-2.0070247538387775421142578125</LongitudeDegrees>
            </Position>
            <AltitudeMeters>14.80000019073486328125</AltitudeMeters>
            <DistanceMeters>NAN</DistanceMeters>
          </Trackpoint>
          <Trackpoint>
            <Time>2021-08-12T14:13:46.000Z</Time>
            <Position>
              <LatitudeDegrees>43.30366297625005245208740234375</LatitudeDegrees>
              <LongitudeDegrees>-2.00723941437900066375732421875</LongitudeDegrees>
            </Position>
            <AltitudeMeters>15</AltitudeMeters>
            <DistanceMeters>NAN</DistanceMeters>
          </Trackpoint>
          <Trackpoint>
            <Time>2021-08-12T14:13:56.000Z</Time>
            <Position>
              <LatitudeDegrees>43.3033960126340389251708984375</LatitudeDegrees>
              <LongitudeDegrees>-2.0077362097799777984619140625</LongitudeDegrees>
            </Position>
            <AltitudeMeters>15</AltitudeMeters>
            <DistanceMeters>NAN</DistanceMeters>
          </Trackpoint>
          <Trackpoint>
            <Time>2021-08-12T14:13:57.000Z</Time>
            <Position>
              <LatitudeDegrees>43.303373046219348907470703125</LatitudeDegrees>
              <LongitudeDegrees>-2.0077754370868206024169921875</LongitudeDegrees>
            </Position>
            <AltitudeMeters>15.19999980926513671875</AltitudeMeters>
            <DistanceMeters>NAN</DistanceMeters>
          </Trackpoint>
          <Trackpoint>
            <Time>2021-08-12T14:13:58.000Z</Time>
            <Position>
              <LatitudeDegrees>43.3033423684537410736083984375</LatitudeDegrees>
              <LongitudeDegrees>-2.00782195664942264556884765625</LongitudeDegrees>
            </Position>
            <AltitudeMeters>15.19999980926513671875</AltitudeMeters>
            <DistanceMeters>NAN</DistanceMeters>
          </Trackpoint>
          <Trackpoint>
            <Time>2021-08-12T14:13:59.000Z</Time>
            <Position>
              <LatitudeDegrees>43.30331479199230670928955078125</LatitudeDegrees>
              <LongitudeDegrees>-2.00785950757563114166259765625</LongitudeDegrees>
            </Position>
            <AltitudeMeters>15.19999980926513671875</AltitudeMeters>
            <DistanceMeters>NAN</DistanceMeters>
          </Trackpoint>
          <Trackpoint>
            <Time>2021-08-12T14:14:00.000Z</Time>
            <Position>
              <LatitudeDegrees>43.30328176729381084442138671875</LatitudeDegrees>
              <LongitudeDegrees>-2.00788297690451145172119140625</LongitudeDegrees>
            </Position>
            <AltitudeMeters>15.19999980926513671875</AltitudeMeters>
            <DistanceMeters>NAN</DistanceMeters>
          </Trackpoint>
          <Trackpoint>
            <Time>2021-08-12T14:14:01.000Z</Time>
            <Position>
              <LatitudeDegrees>43.303254358470439910888671875</LatitudeDegrees>
              <LongitudeDegrees>-2.00789026916027069091796875</LongitudeDegrees>
            </Position>
            <AltitudeMeters>15.19999980926513671875</AltitudeMeters>
            <DistanceMeters>NAN</DistanceMeters>
          </Trackpoint>
          <Trackpoint>
            <Time>2021-08-12T14:14:02.000Z</Time>
            <Position>
              <LatitudeDegrees>43.30322862602770328521728515625</LatitudeDegrees>
              <LongitudeDegrees>-2.0078895986080169677734375</LongitudeDegrees>
            </Position>
            <AltitudeMeters>15.3999996185302734375</AltitudeMeters>
            <DistanceMeters>NAN</DistanceMeters>
          </Trackpoint>
          <Trackpoint>
            <Time>2021-08-12T14:14:03.000Z</Time>
            <Position>
              <LatitudeDegrees>43.30320834182202816009521484375</LatitudeDegrees>
              <LongitudeDegrees>-2.0078961364924907684326171875</LongitudeDegrees>
            </Position>
            <AltitudeMeters>15.3999996185302734375</AltitudeMeters>
            <DistanceMeters>NAN</DistanceMeters>
          </Trackpoint>
          <Trackpoint>
            <Time>2021-08-12T14:14:05.000Z</Time>
            <Position>
              <LatitudeDegrees>43.3031619898974895477294921875</LatitudeDegrees>
              <LongitudeDegrees>-2.0079611800611019134521484375</LongitudeDegrees>
            </Position>
            <AltitudeMeters>15.3999996185302734375</AltitudeMeters>
            <DistanceMeters>NAN</DistanceMeters>
          </Trackpoint>
          <Trackpoint>
            <Time>2021-08-12T14:14:06.000Z</Time>
            <Position>
              <LatitudeDegrees>43.30315201543271541595458984375</LatitudeDegrees>
              <LongitudeDegrees>-2.007999904453754425048828125</LongitudeDegrees>
            </Position>
            <AltitudeMeters>15.3999996185302734375</AltitudeMeters>
            <DistanceMeters>NAN</DistanceMeters>
          </Trackpoint>
          <Trackpoint>
            <Time>2021-08-12T14:14:09.000Z</Time>
            <Position>
              <LatitudeDegrees>43.30315285362303256988525390625</LatitudeDegrees>
              <LongitudeDegrees>-2.0081258006393909454345703125</LongitudeDegrees>
            </Position>
            <AltitudeMeters>15.3999996185302734375</AltitudeMeters>
            <DistanceMeters>NAN</DistanceMeters>
          </Trackpoint>
          <Trackpoint>
            <Time>2021-08-12T14:14:10.000Z</Time>
            <Position>
              <LatitudeDegrees>43.303149752318859100341796875</LatitudeDegrees>
              <LongitudeDegrees>-2.00816779397428035736083984375</LongitudeDegrees>
            </Position>
            <AltitudeMeters>15.3999996185302734375</AltitudeMeters>
            <DistanceMeters>NAN</DistanceMeters>
          </Trackpoint>
          <Trackpoint>
            <Time>2021-08-12T14:14:12.000Z</Time>
            <Position>
              <LatitudeDegrees>43.30312519334256649017333984375</LatitudeDegrees>
              <LongitudeDegrees>-2.00824105180799961090087890625</LongitudeDegrees>
            </Position>
            <AltitudeMeters>15.6000003814697265625</AltitudeMeters>
            <DistanceMeters>NAN</DistanceMeters>
          </Trackpoint>
          <Trackpoint>
            <Time>2021-08-12T14:14:13.000Z</Time>
            <Position>
              <LatitudeDegrees>43.30310926772654056549072265625</LatitudeDegrees>
              <LongitudeDegrees>-2.00826452113687992095947265625</LongitudeDegrees>
            </Position>
            <AltitudeMeters>15.6000003814697265625</AltitudeMeters>
            <DistanceMeters>NAN</DistanceMeters>
          </Trackpoint>
          <Trackpoint>
            <Time>2021-08-12T14:14:14.000Z</Time>
            <Position>
              <LatitudeDegrees>43.3030862174928188323974609375</LatitudeDegrees>
              <LongitudeDegrees>-2.0082934387028217315673828125</LongitudeDegrees>
            </Position>
            <AltitudeMeters>15.6000003814697265625</AltitudeMeters>
            <DistanceMeters>NAN</DistanceMeters>
          </Trackpoint>
          <Trackpoint>
            <Time>2021-08-12T14:14:15.000Z</Time>
            <Position>
              <LatitudeDegrees>43.30306090414524078369140625</LatitudeDegrees>
              <LongitudeDegrees>-2.0083299838006496429443359375</LongitudeDegrees>
            </Position>
            <AltitudeMeters>15.6000003814697265625</AltitudeMeters>
            <DistanceMeters>NAN</DistanceMeters>
          </Trackpoint>
          <Trackpoint>
            <Time>2021-08-12T14:14:21.000Z</Time>
            <Position>
              <LatitudeDegrees>43.30294146202504634857177734375</LatitudeDegrees>
              <LongitudeDegrees>-2.0085385255515575408935546875</LongitudeDegrees>
            </Position>
            <AltitudeMeters>15.80000019073486328125</AltitudeMeters>
            <DistanceMeters>NAN</DistanceMeters>
          </Trackpoint>
          <Trackpoint>
            <Time>2021-08-12T14:14:27.000Z</Time>
            <Position>
              <LatitudeDegrees>43.3028052560985088348388671875</LatitudeDegrees>
              <LongitudeDegrees>-2.00875486247241497039794921875</LongitudeDegrees>
            </Position>
            <AltitudeMeters>16</AltitudeMeters>
            <DistanceMeters>NAN</DistanceMeters>
          </Trackpoint>
          <Trackpoint>
            <Time>2021-08-12T14:14:32.000Z</Time>
            <Position>
              <LatitudeDegrees>43.3027120493352413177490234375</LatitudeDegrees>
              <LongitudeDegrees>-2.0089277811348438262939453125</LongitudeDegrees>
            </Position>
            <AltitudeMeters>16.200000762939453125</AltitudeMeters>
            <DistanceMeters>NAN</DistanceMeters>
          </Trackpoint>
          <Trackpoint>
            <Time>2021-08-12T14:14:33.000Z</Time>
            <Position>
              <LatitudeDegrees>43.30269075930118560791015625</LatitudeDegrees>
              <LongitudeDegrees>-2.0089571177959442138671875</LongitudeDegrees>
            </Position>
            <AltitudeMeters>16.200000762939453125</AltitudeMeters>
            <DistanceMeters>NAN</DistanceMeters>
          </Trackpoint>
          <Trackpoint>
            <Time>2021-08-12T14:14:34.000Z</Time>
            <Position>
              <LatitudeDegrees>43.30267223529517650604248046875</LatitudeDegrees>
              <LongitudeDegrees>-2.00898729264736175537109375</LongitudeDegrees>
            </Position>
            <AltitudeMeters>16.200000762939453125</AltitudeMeters>
            <DistanceMeters>NAN</DistanceMeters>
          </Trackpoint>
          <Trackpoint>
            <Time>2021-08-12T14:14:35.000Z</Time>
            <Position>
              <LatitudeDegrees>43.302657566964626312255859375</LatitudeDegrees>
              <LongitudeDegrees>-2.00901822187006473541259765625</LongitudeDegrees>
            </Position>
            <AltitudeMeters>16.200000762939453125</AltitudeMeters>
            <DistanceMeters>NAN</DistanceMeters>
          </Trackpoint>
          <Trackpoint>
            <Time>2021-08-12T14:14:36.000Z</Time>
            <Position>
              <LatitudeDegrees>43.3026449941098690032958984375</LatitudeDegrees>
              <LongitudeDegrees>-2.009046636521816253662109375</LongitudeDegrees>
            </Position>
            <AltitudeMeters>16.200000762939453125</AltitudeMeters>
            <DistanceMeters>NAN</DistanceMeters>
          </Trackpoint>
          <Trackpoint>
            <Time>2021-08-12T14:14:37.000Z</Time>
            <Position>
              <LatitudeDegrees>43.3026252128183841705322265625</LatitudeDegrees>
              <LongitudeDegrees>-2.00907236896455287933349609375</LongitudeDegrees>
            </Position>
            <AltitudeMeters>16.200000762939453125</AltitudeMeters>
            <DistanceMeters>NAN</DistanceMeters>
          </Trackpoint>
          <Trackpoint>
            <Time>2021-08-12T14:14:38.000Z</Time>
            <Position>
              <LatitudeDegrees>43.302598558366298675537109375</LatitudeDegrees>
              <LongitudeDegrees>-2.00910036452114582061767578125</LongitudeDegrees>
            </Position>
            <AltitudeMeters>16.200000762939453125</AltitudeMeters>
            <DistanceMeters>NAN</DistanceMeters>
          </Trackpoint>
          <Trackpoint>
            <Time>2021-08-12T14:14:39.000Z</Time>
            <Position>
              <LatitudeDegrees>43.30257249064743518829345703125</LatitudeDegrees>
              <LongitudeDegrees>-2.0091260969638824462890625</LongitudeDegrees>
            </Position>
            <AltitudeMeters>16.200000762939453125</AltitudeMeters>
            <DistanceMeters>NAN</DistanceMeters>
          </Trackpoint>
          <Trackpoint>
            <Time>2021-08-12T14:14:40.000Z</Time>
            <Position>
              <LatitudeDegrees>43.3025501109659671783447265625</LatitudeDegrees>
              <LongitudeDegrees>-2.009149901568889617919921875</LongitudeDegrees>
            </Position>
            <AltitudeMeters>16.200000762939453125</AltitudeMeters>
            <DistanceMeters>NAN</DistanceMeters>
          </Trackpoint>
          <Trackpoint>
            <Time>2021-08-12T14:14:41.000Z</Time>
            <Position>
              <LatitudeDegrees>43.30252504907548427581787109375</LatitudeDegrees>
              <LongitudeDegrees>-2.00917479582130908966064453125</LongitudeDegrees>
            </Position>
            <AltitudeMeters>16.3999996185302734375</AltitudeMeters>
            <DistanceMeters>NAN</DistanceMeters>
          </Trackpoint>
          <Trackpoint>
            <Time>2021-08-12T14:14:42.000Z</Time>
            <Position>
              <LatitudeDegrees>43.3025065250694751739501953125</LatitudeDegrees>
              <LongitudeDegrees>-2.009197510778903961181640625</LongitudeDegrees>
            </Position>
            <AltitudeMeters>16.3999996185302734375</AltitudeMeters>
            <DistanceMeters>NAN</DistanceMeters>
          </Trackpoint>
          <Trackpoint>
            <Time>2021-08-12T14:14:43.000Z</Time>
            <Position>
              <LatitudeDegrees>43.30249319784343242645263671875</LatitudeDegrees>
              <LongitudeDegrees>-2.009212262928485870361328125</LongitudeDegrees>
            </Position>
            <AltitudeMeters>16.3999996185302734375</AltitudeMeters>
            <DistanceMeters>NAN</DistanceMeters>
          </Trackpoint>
          <Trackpoint>
            <Time>2021-08-12T14:14:44.000Z</Time>
            <Position>
              <LatitudeDegrees>43.30247752368450164794921875</LatitudeDegrees>
              <LongitudeDegrees>-2.009230367839336395263671875</LongitudeDegrees>
            </Position>
            <AltitudeMeters>16.3999996185302734375</AltitudeMeters>
            <DistanceMeters>NAN</DistanceMeters>
          </Trackpoint>
          <Trackpoint>
            <Time>2021-08-12T14:14:45.000Z</Time>
            <Position>
              <LatitudeDegrees>43.30246151424944400787353515625</LatitudeDegrees>
              <LongitudeDegrees>-2.0092546753585338592529296875</LongitudeDegrees>
            </Position>
            <AltitudeMeters>16.3999996185302734375</AltitudeMeters>
            <DistanceMeters>NAN</DistanceMeters>
          </Trackpoint>
          <Trackpoint>
            <Time>2021-08-12T14:14:46.000Z</Time>
            <Position>
              <LatitudeDegrees>43.302448689937591552734375</LatitudeDegrees>
              <LongitudeDegrees>-2.009282670915126800537109375</LongitudeDegrees>
            </Position>
            <AltitudeMeters>16.3999996185302734375</AltitudeMeters>
            <DistanceMeters>NAN</DistanceMeters>
          </Trackpoint>
          <Trackpoint>
            <Time>2021-08-12T14:14:48.000Z</Time>
            <Position>
              <LatitudeDegrees>43.30241541378200054168701171875</LatitudeDegrees>
              <LongitudeDegrees>-2.009331621229648590087890625</LongitudeDegrees>
            </Position>
            <AltitudeMeters>16.3999996185302734375</AltitudeMeters>
            <DistanceMeters>NAN</DistanceMeters>
          </Trackpoint>
          <Trackpoint>
            <Time>2021-08-12T14:14:49.000Z</Time>
            <Position>
              <LatitudeDegrees>43.30240066163241863250732421875</LatitudeDegrees>
              <LongitudeDegrees>-2.00935500673949718475341796875</LongitudeDegrees>
            </Position>
            <AltitudeMeters>16.3999996185302734375</AltitudeMeters>
            <DistanceMeters>NAN</DistanceMeters>
          </Trackpoint>
          <Trackpoint>
            <Time>2021-08-12T14:14:50.000Z</Time>
            <Position>
              <LatitudeDegrees>43.3023811317980289459228515625</LatitudeDegrees>
              <LongitudeDegrees>-2.009374201297760009765625</LongitudeDegrees>
            </Position>
            <AltitudeMeters>16.3999996185302734375</AltitudeMeters>
            <DistanceMeters>NAN</DistanceMeters>
          </Trackpoint>
          <Trackpoint>
            <Time>2021-08-12T14:14:51.000Z</Time>
            <Position>
              <LatitudeDegrees>43.30235975794494152069091796875</LatitudeDegrees>
              <LongitudeDegrees>-2.00939037837088108062744140625</LongitudeDegrees>
            </Position>
            <AltitudeMeters>16.3999996185302734375</AltitudeMeters>
            <DistanceMeters>NAN</DistanceMeters>
          </Trackpoint>
          <Trackpoint>
            <Time>2021-08-12T14:14:52.000Z</Time>
            <Position>
              <LatitudeDegrees>43.30233830027282238006591796875</LatitudeDegrees>
              <LongitudeDegrees>-2.00941468589007854461669921875</LongitudeDegrees>
            </Position>
            <AltitudeMeters>16.6000003814697265625</AltitudeMeters>
            <DistanceMeters>NAN</DistanceMeters>
          </Trackpoint>
          <Trackpoint>
            <Time>2021-08-12T14:14:55.000Z</Time>
            <Position>
              <LatitudeDegrees>43.302265964448451995849609375</LatitudeDegrees>
              <LongitudeDegrees>-2.00951493345201015472412109375</LongitudeDegrees>
            </Position>
            <AltitudeMeters>16.6000003814697265625</AltitudeMeters>
            <DistanceMeters>NAN</DistanceMeters>
          </Trackpoint>
          <Trackpoint>
            <Time>2021-08-12T14:15:01.000Z</Time>
            <Position>
              <LatitudeDegrees>43.30212154425680637359619140625</LatitudeDegrees>
              <LongitudeDegrees>-2.00970746576786041259765625</LongitudeDegrees>
            </Position>
            <AltitudeMeters>16.6000003814697265625</AltitudeMeters>
            <DistanceMeters>NAN</DistanceMeters>
          </Trackpoint>
          <Trackpoint>
            <Time>2021-08-12T14:15:04.000Z</Time>
            <Position>
              <LatitudeDegrees>43.3020636253058910369873046875</LatitudeDegrees>
              <LongitudeDegrees>-2.00979329645633697509765625</LongitudeDegrees>
            </Position>
            <AltitudeMeters>16.6000003814697265625</AltitudeMeters>
            <DistanceMeters>NAN</DistanceMeters>
          </Trackpoint>
          <Trackpoint>
            <Time>2021-08-12T14:15:09.000Z</Time>
            <Position>
              <LatitudeDegrees>43.3019794709980487823486328125</LatitudeDegrees>
              <LongitudeDegrees>-2.00993369333446025848388671875</LongitudeDegrees>
            </Position>
            <AltitudeMeters>16.6000003814697265625</AltitudeMeters>
            <DistanceMeters>NAN</DistanceMeters>
          </Trackpoint>
          <Trackpoint>
            <Time>2021-08-12T14:15:10.000Z</Time>
            <Position>
              <LatitudeDegrees>43.30196463502943515777587890625</LatitudeDegrees>
              <LongitudeDegrees>-2.0099644549190998077392578125</LongitudeDegrees>
            </Position>
            <AltitudeMeters>16.6000003814697265625</AltitudeMeters>
            <DistanceMeters>NAN</DistanceMeters>
          </Trackpoint>
          <Trackpoint>
            <Time>2021-08-12T14:15:11.000Z</Time>
            <Position>
              <LatitudeDegrees>43.30194904468953609466552734375</LatitudeDegrees>
              <LongitudeDegrees>-2.01000141911208629608154296875</LongitudeDegrees>
            </Position>
            <AltitudeMeters>16.6000003814697265625</AltitudeMeters>
            <DistanceMeters>NAN</DistanceMeters>
          </Trackpoint>
          <Trackpoint>
            <Time>2021-08-12T14:15:18.000Z</Time>
            <Position>
              <LatitudeDegrees>43.3018403314054012298583984375</LatitudeDegrees>
              <LongitudeDegrees>-2.01025203801691532135009765625</LongitudeDegrees>
            </Position>
            <AltitudeMeters>16.3999996185302734375</AltitudeMeters>
            <DistanceMeters>NAN</DistanceMeters>
          </Trackpoint>
          <Trackpoint>
            <Time>2021-08-12T14:15:26.000Z</Time>
            <Position>
              <LatitudeDegrees>43.3017365634441375732421875</LatitudeDegrees>
              <LongitudeDegrees>-2.01051103882491588592529296875</LongitudeDegrees>
            </Position>
            <AltitudeMeters>16.3999996185302734375</AltitudeMeters>
            <DistanceMeters>NAN</DistanceMeters>
          </Trackpoint>
          <Trackpoint>
            <Time>2021-08-12T14:15:27.000Z</Time>
            <Position>
              <LatitudeDegrees>43.30172675661742687225341796875</LatitudeDegrees>
              <LongitudeDegrees>-2.01053970493376255035400390625</LongitudeDegrees>
            </Position>
            <AltitudeMeters>16.6000003814697265625</AltitudeMeters>
            <DistanceMeters>NAN</DistanceMeters>
          </Trackpoint>
          <Trackpoint>
            <Time>2021-08-12T14:15:28.000Z</Time>
            <Position>
              <LatitudeDegrees>43.30171535722911357879638671875</LatitudeDegrees>
              <LongitudeDegrees>-2.01056451536715030670166015625</LongitudeDegrees>
            </Position>
            <AltitudeMeters>16.6000003814697265625</AltitudeMeters>
            <DistanceMeters>NAN</DistanceMeters>
          </Trackpoint>
          <Trackpoint>
            <Time>2021-08-12T14:15:29.000Z</Time>
            <Position>
              <LatitudeDegrees>43.30170244909822940826416015625</LatitudeDegrees>
              <LongitudeDegrees>-2.01058924198150634765625</LongitudeDegrees>
            </Position>
            <AltitudeMeters>16.6000003814697265625</AltitudeMeters>
            <DistanceMeters>NAN</DistanceMeters>
          </Trackpoint>
          <Trackpoint>
            <Time>2021-08-12T14:15:31.000Z</Time>
            <Position>
              <LatitudeDegrees>43.30167244188487529754638671875</LatitudeDegrees>
              <LongitudeDegrees>-2.0106487534940242767333984375</LongitudeDegrees>
            </Position>
            <AltitudeMeters>16.799999237060546875</AltitudeMeters>
            <DistanceMeters>NAN</DistanceMeters>
          </Trackpoint>
          <Trackpoint>
            <Time>2021-08-12T14:15:33.000Z</Time>
            <Position>
              <LatitudeDegrees>43.3016426861286163330078125</LatitudeDegrees>
              <LongitudeDegrees>-2.01070818118751049041748046875</LongitudeDegrees>
            </Position>
            <AltitudeMeters>16.799999237060546875</AltitudeMeters>
            <DistanceMeters>NAN</DistanceMeters>
          </Trackpoint>
          <Trackpoint>
            <Time>2021-08-12T14:15:34.000Z</Time>
            <Position>
              <LatitudeDegrees>43.30162785016000270843505859375</LatitudeDegrees>
              <LongitudeDegrees>-2.0107275433838367462158203125</LongitudeDegrees>
            </Position>
            <AltitudeMeters>16.799999237060546875</AltitudeMeters>
            <DistanceMeters>NAN</DistanceMeters>
          </Trackpoint>
          <Trackpoint>
            <Time>2021-08-12T14:15:35.000Z</Time>
            <Position>
              <LatitudeDegrees>43.301620893180370330810546875</LatitudeDegrees>
              <LongitudeDegrees>-2.0107399486005306243896484375</LongitudeDegrees>
            </Position>
            <AltitudeMeters>17</AltitudeMeters>
            <DistanceMeters>NAN</DistanceMeters>
          </Trackpoint>
          <Trackpoint>
            <Time>2021-08-12T14:15:36.000Z</Time>
            <Position>
              <LatitudeDegrees>43.3016193844377994537353515625</LatitudeDegrees>
              <LongitudeDegrees>-2.01074690558016300201416015625</LongitudeDegrees>
            </Position>
            <AltitudeMeters>17</AltitudeMeters>
            <DistanceMeters>NAN</DistanceMeters>
          </Trackpoint>
          <Trackpoint>
            <Time>2021-08-12T14:15:37.000Z</Time>
            <Position>
              <LatitudeDegrees>43.301620222628116607666015625</LatitudeDegrees>
              <LongitudeDegrees>-2.01075059361755847930908203125</LongitudeDegrees>
            </Position>
            <AltitudeMeters>17.3999996185302734375</AltitudeMeters>
            <DistanceMeters>NAN</DistanceMeters>
          </Trackpoint>
          <Trackpoint>
            <Time>2021-08-12T14:15:38.000Z</Time>
            <Position>
              <LatitudeDegrees>43.3016247488558292388916015625</LatitudeDegrees>
              <LongitudeDegrees>-2.01076283119618892669677734375</LongitudeDegrees>
            </Position>
            <AltitudeMeters>17.6000003814697265625</AltitudeMeters>
            <DistanceMeters>NAN</DistanceMeters>
          </Trackpoint>
          <Trackpoint>
            <Time>2021-08-12T14:15:39.000Z</Time>
            <Position>
              <LatitudeDegrees>43.30163438804447650909423828125</LatitudeDegrees>
              <LongitudeDegrees>-2.010779343545436859130859375</LongitudeDegrees>
            </Position>
            <AltitudeMeters>17.6000003814697265625</AltitudeMeters>
            <DistanceMeters>NAN</DistanceMeters>
          </Trackpoint>
          <Trackpoint>
            <Time>2021-08-12T14:15:40.000Z</Time>
            <Position>
              <LatitudeDegrees>43.30164276994764804840087890625</LatitudeDegrees>
              <LongitudeDegrees>-2.01080692000687122344970703125</LongitudeDegrees>
            </Position>
            <AltitudeMeters>17.799999237060546875</AltitudeMeters>
            <DistanceMeters>NAN</DistanceMeters>
          </Trackpoint>
          <Trackpoint>
            <Time>2021-08-12T14:15:41.000Z</Time>
            <Position>
              <LatitudeDegrees>43.30165282823145389556884765625</LatitudeDegrees>
              <LongitudeDegrees>-2.0108321495354175567626953125</LongitudeDegrees>
            </Position>
            <AltitudeMeters>17.799999237060546875</AltitudeMeters>
            <DistanceMeters>NAN</DistanceMeters>
          </Trackpoint>
          <Trackpoint>
            <Time>2021-08-12T14:15:43.000Z</Time>
            <Position>
              <LatitudeDegrees>43.30168132670223712921142578125</LatitudeDegrees>
              <LongitudeDegrees>-2.01087548397481441497802734375</LongitudeDegrees>
            </Position>
            <AltitudeMeters>17.799999237060546875</AltitudeMeters>
            <DistanceMeters>NAN</DistanceMeters>
          </Trackpoint>
          <Trackpoint>
            <Time>2021-08-12T14:15:44.000Z</Time>
            <Position>
              <LatitudeDegrees>43.30169658176600933074951171875</LatitudeDegrees>
              <LongitudeDegrees>-2.01087749563157558441162109375</LongitudeDegrees>
            </Position>
            <AltitudeMeters>18</AltitudeMeters>
            <DistanceMeters>NAN</DistanceMeters>
          </Trackpoint>
          <Trackpoint>
            <Time>2021-08-12T14:15:46.000Z</Time>
            <Position>
              <LatitudeDegrees>43.3017392456531524658203125</LatitudeDegrees>
              <LongitudeDegrees>-2.01085704378783702850341796875</LongitudeDegrees>
            </Position>
            <AltitudeMeters>18</AltitudeMeters>
            <DistanceMeters>NAN</DistanceMeters>
          </Trackpoint>
          <Trackpoint>
            <Time>2021-08-12T14:15:47.000Z</Time>
            <Position>
              <LatitudeDegrees>43.3017687499523162841796875</LatitudeDegrees>
              <LongitudeDegrees>-2.01085067354142665863037109375</LongitudeDegrees>
            </Position>
            <AltitudeMeters>18</AltitudeMeters>
            <DistanceMeters>NAN</DistanceMeters>
          </Trackpoint>
          <Trackpoint>
            <Time>2021-08-12T14:15:48.000Z</Time>
            <Position>
              <LatitudeDegrees>43.30180806107819080352783203125</LatitudeDegrees>
              <LongitudeDegrees>-2.01087020337581634521484375</LongitudeDegrees>
            </Position>
            <AltitudeMeters>18</AltitudeMeters>
            <DistanceMeters>NAN</DistanceMeters>
          </Trackpoint>
          <Trackpoint>
            <Time>2021-08-12T14:15:49.000Z</Time>
            <Position>
              <LatitudeDegrees>43.301836811006069183349609375</LatitudeDegrees>
              <LongitudeDegrees>-2.01091437600553035736083984375</LongitudeDegrees>
            </Position>
            <AltitudeMeters>18</AltitudeMeters>
            <DistanceMeters>NAN</DistanceMeters>
          </Trackpoint>
          <Trackpoint>
            <Time>2021-08-12T14:15:52.000Z</Time>
            <Position>
              <LatitudeDegrees>43.30189841799437999725341796875</LatitudeDegrees>
              <LongitudeDegrees>-2.01106994412839412689208984375</LongitudeDegrees>
            </Position>
            <AltitudeMeters>17.6000003814697265625</AltitudeMeters>
            <DistanceMeters>NAN</DistanceMeters>
          </Trackpoint>
          <Trackpoint>
            <Time>2021-08-12T14:15:53.000Z</Time>
            <Position>
              <LatitudeDegrees>43.30191166140139102935791015625</LatitudeDegrees>
              <LongitudeDegrees>-2.01112057082355022430419921875</LongitudeDegrees>
            </Position>
            <AltitudeMeters>17.6000003814697265625</AltitudeMeters>
            <DistanceMeters>NAN</DistanceMeters>
          </Trackpoint>
          <Trackpoint>
            <Time>2021-08-12T14:15:54.000Z</Time>
            <Position>
              <LatitudeDegrees>43.30192825756967067718505859375</LatitudeDegrees>
              <LongitudeDegrees>-2.0111672580242156982421875</LongitudeDegrees>
            </Position>
            <AltitudeMeters>17.6000003814697265625</AltitudeMeters>
            <DistanceMeters>NAN</DistanceMeters>
          </Trackpoint>
          <Trackpoint>
            <Time>2021-08-12T14:15:55.000Z</Time>
            <Position>
              <LatitudeDegrees>43.30194401554763317108154296875</LatitudeDegrees>
              <LongitudeDegrees>-2.01121293939650058746337890625</LongitudeDegrees>
            </Position>
            <AltitudeMeters>17.3999996185302734375</AltitudeMeters>
            <DistanceMeters>NAN</DistanceMeters>
          </Trackpoint>
          <Trackpoint>
            <Time>2021-08-12T14:15:56.000Z</Time>
            <Position>
              <LatitudeDegrees>43.30196195282042026519775390625</LatitudeDegrees>
              <LongitudeDegrees>-2.01125971041619777679443359375</LongitudeDegrees>
            </Position>
            <AltitudeMeters>17.3999996185302734375</AltitudeMeters>
            <DistanceMeters>NAN</DistanceMeters>
          </Trackpoint>
          <Trackpoint>
            <Time>2021-08-12T14:16:00.000Z</Time>
            <Position>
              <LatitudeDegrees>43.30203521065413951873779296875</LatitudeDegrees>
              <LongitudeDegrees>-2.01145282946527004241943359375</LongitudeDegrees>
            </Position>
            <AltitudeMeters>17.200000762939453125</AltitudeMeters>
            <DistanceMeters>NAN</DistanceMeters>
          </Trackpoint>
          <Trackpoint>
            <Time>2021-08-12T14:16:05.000Z</Time>
            <Position>
              <LatitudeDegrees>43.30211676657199859619140625</LatitudeDegrees>
              <LongitudeDegrees>-2.01170361600816249847412109375</LongitudeDegrees>
            </Position>
            <AltitudeMeters>17.200000762939453125</AltitudeMeters>
            <DistanceMeters>NAN</DistanceMeters>
          </Trackpoint>
          <Trackpoint>
            <Time>2021-08-12T14:16:08.000Z</Time>
            <Position>
              <LatitudeDegrees>43.302164711058139801025390625</LatitudeDegrees>
              <LongitudeDegrees>-2.01183688826858997344970703125</LongitudeDegrees>
            </Position>
            <AltitudeMeters>17.200000762939453125</AltitudeMeters>
            <DistanceMeters>NAN</DistanceMeters>
          </Trackpoint>
          <Trackpoint>
            <Time>2021-08-12T14:16:09.000Z</Time>
            <Position>
              <LatitudeDegrees>43.3021712489426136016845703125</LatitudeDegrees>
              <LongitudeDegrees>-2.01188198290765285491943359375</LongitudeDegrees>
            </Position>
            <AltitudeMeters>17.200000762939453125</AltitudeMeters>
            <DistanceMeters>NAN</DistanceMeters>
          </Trackpoint>
          <Trackpoint>
            <Time>2021-08-12T14:16:11.000Z</Time>
            <Position>
              <LatitudeDegrees>43.30217988230288028717041015625</LatitudeDegrees>
              <LongitudeDegrees>-2.0119838230311870574951171875</LongitudeDegrees>
            </Position>
            <AltitudeMeters>17.3999996185302734375</AltitudeMeters>
            <DistanceMeters>NAN</DistanceMeters>
          </Trackpoint>
          <Trackpoint>
            <Time>2021-08-12T14:16:17.000Z</Time>
            <Position>
              <LatitudeDegrees>43.30213679932057857513427734375</LatitudeDegrees>
              <LongitudeDegrees>-2.01231499202549457550048828125</LongitudeDegrees>
            </Position>
            <AltitudeMeters>17.6000003814697265625</AltitudeMeters>
            <DistanceMeters>NAN</DistanceMeters>
          </Trackpoint>
          <Trackpoint>
            <Time>2021-08-12T14:16:23.000Z</Time>
            <Position>
              <LatitudeDegrees>43.30200486816465854644775390625</LatitudeDegrees>
              <LongitudeDegrees>-2.0125755853950977325439453125</LongitudeDegrees>
            </Position>
            <AltitudeMeters>17.3999996185302734375</AltitudeMeters>
            <DistanceMeters>NAN</DistanceMeters>
          </Trackpoint>
          <Trackpoint>
            <Time>2021-08-12T14:16:24.000Z</Time>
            <Position>
              <LatitudeDegrees>43.301981985569000244140625</LatitudeDegrees>
              <LongitudeDegrees>-2.0126129686832427978515625</LongitudeDegrees>
            </Position>
            <AltitudeMeters>17.200000762939453125</AltitudeMeters>
            <DistanceMeters>NAN</DistanceMeters>
          </Trackpoint>
          <Trackpoint>
            <Time>2021-08-12T14:16:25.000Z</Time>
            <Position>
              <LatitudeDegrees>43.30195927061140537261962890625</LatitudeDegrees>
              <LongitudeDegrees>-2.0126503519713878631591796875</LongitudeDegrees>
            </Position>
            <AltitudeMeters>17.200000762939453125</AltitudeMeters>
            <DistanceMeters>NAN</DistanceMeters>
          </Trackpoint>
          <Trackpoint>
            <Time>2021-08-12T14:16:26.000Z</Time>
            <Position>
              <LatitudeDegrees>43.3019335381686687469482421875</LatitudeDegrees>
              <LongitudeDegrees>-2.01269209384918212890625</LongitudeDegrees>
            </Position>
            <AltitudeMeters>17.200000762939453125</AltitudeMeters>
            <DistanceMeters>NAN</DistanceMeters>
          </Trackpoint>
          <Trackpoint>
            <Time>2021-08-12T14:16:27.000Z</Time>
            <Position>
              <LatitudeDegrees>43.30190864391624927520751953125</LatitudeDegrees>
              <LongitudeDegrees>-2.01273500919342041015625</LongitudeDegrees>
            </Position>
            <AltitudeMeters>17.200000762939453125</AltitudeMeters>
            <DistanceMeters>NAN</DistanceMeters>
          </Trackpoint>
          <Trackpoint>
            <Time>2021-08-12T14:16:31.000Z</Time>
            <Position>
              <LatitudeDegrees>43.3018116652965545654296875</LatitudeDegrees>
              <LongitudeDegrees>-2.01290776021778583526611328125</LongitudeDegrees>
            </Position>
            <AltitudeMeters>17.200000762939453125</AltitudeMeters>
            <DistanceMeters>NAN</DistanceMeters>
          </Trackpoint>
          <Trackpoint>
            <Time>2021-08-12T14:16:37.000Z</Time>
            <Position>
              <LatitudeDegrees>43.30168065614998340606689453125</LatitudeDegrees>
              <LongitudeDegrees>-2.01315544545650482177734375</LongitudeDegrees>
            </Position>
            <AltitudeMeters>17.3999996185302734375</AltitudeMeters>
            <DistanceMeters>NAN</DistanceMeters>
          </Trackpoint>
          <Trackpoint>
            <Time>2021-08-12T14:16:38.000Z</Time>
            <Position>
              <LatitudeDegrees>43.30165274441242218017578125</LatitudeDegrees>
              <LongitudeDegrees>-2.01319391839206218719482421875</LongitudeDegrees>
            </Position>
            <AltitudeMeters>17.3999996185302734375</AltitudeMeters>
            <DistanceMeters>NAN</DistanceMeters>
          </Trackpoint>
          <Trackpoint>
            <Time>2021-08-12T14:16:39.000Z</Time>
            <Position>
              <LatitudeDegrees>43.30162801779806613922119140625</LatitudeDegrees>
              <LongitudeDegrees>-2.013230212032794952392578125</LongitudeDegrees>
            </Position>
            <AltitudeMeters>17.3999996185302734375</AltitudeMeters>
            <DistanceMeters>NAN</DistanceMeters>
          </Trackpoint>
          <Trackpoint>
            <Time>2021-08-12T14:16:40.000Z</Time>
            <Position>
              <LatitudeDegrees>43.30160555429756641387939453125</LatitudeDegrees>
              <LongitudeDegrees>-2.0132665894925594329833984375</LongitudeDegrees>
            </Position>
            <AltitudeMeters>17.3999996185302734375</AltitudeMeters>
            <DistanceMeters>NAN</DistanceMeters>
          </Trackpoint>
          <Trackpoint>
            <Time>2021-08-12T14:16:41.000Z</Time>
            <Position>
              <LatitudeDegrees>43.30158728174865245819091796875</LatitudeDegrees>
              <LongitudeDegrees>-2.013301290571689605712890625</LongitudeDegrees>
            </Position>
            <AltitudeMeters>17.3999996185302734375</AltitudeMeters>
            <DistanceMeters>NAN</DistanceMeters>
          </Trackpoint>
          <Trackpoint>
            <Time>2021-08-12T14:16:42.000Z</Time>
            <Position>
              <LatitudeDegrees>43.30157118849456310272216796875</LatitudeDegrees>
              <LongitudeDegrees>-2.013335488736629486083984375</LongitudeDegrees>
            </Position>
            <AltitudeMeters>17.3999996185302734375</AltitudeMeters>
            <DistanceMeters>NAN</DistanceMeters>
          </Trackpoint>
          <Trackpoint>
            <Time>2021-08-12T14:16:43.000Z</Time>
            <Position>
              <LatitudeDegrees>43.30155828036367893218994140625</LatitudeDegrees>
              <LongitudeDegrees>-2.013371698558330535888671875</LongitudeDegrees>
            </Position>
            <AltitudeMeters>17.6000003814697265625</AltitudeMeters>
            <DistanceMeters>NAN</DistanceMeters>
          </Trackpoint>
          <Trackpoint>
            <Time>2021-08-12T14:16:44.000Z</Time>
            <Position>
              <LatitudeDegrees>43.30154009163379669189453125</LatitudeDegrees>
              <LongitudeDegrees>-2.0134027116000652313232421875</LongitudeDegrees>
            </Position>
            <AltitudeMeters>17.6000003814697265625</AltitudeMeters>
            <DistanceMeters>NAN</DistanceMeters>
          </Trackpoint>
          <Trackpoint>
            <Time>2021-08-12T14:16:45.000Z</Time>
            <Position>
              <LatitudeDegrees>43.30151871778070926666259765625</LatitudeDegrees>
              <LongitudeDegrees>-2.013413943350315093994140625</LongitudeDegrees>
            </Position>
            <AltitudeMeters>17.6000003814697265625</AltitudeMeters>
            <DistanceMeters>NAN</DistanceMeters>
          </Trackpoint>
          <Trackpoint>
            <Time>2021-08-12T14:16:46.000Z</Time>
            <Position>
              <LatitudeDegrees>43.3014973439276218414306640625</LatitudeDegrees>
              <LongitudeDegrees>-2.01344001106917858123779296875</LongitudeDegrees>
            </Position>
            <AltitudeMeters>17.6000003814697265625</AltitudeMeters>
            <DistanceMeters>NAN</DistanceMeters>
          </Trackpoint>
          <Trackpoint>
            <Time>2021-08-12T14:16:47.000Z</Time>
            <Position>
              <LatitudeDegrees>43.30147999338805675506591796875</LatitudeDegrees>
              <LongitudeDegrees>-2.0134768076241016387939453125</LongitudeDegrees>
            </Position>
            <AltitudeMeters>17.3999996185302734375</AltitudeMeters>
            <DistanceMeters>NAN</DistanceMeters>
          </Trackpoint>
          <Trackpoint>
            <Time>2021-08-12T14:16:48.000Z</Time>
            <Position>
              <LatitudeDegrees>43.30145769752562046051025390625</LatitudeDegrees>
              <LongitudeDegrees>-2.01351176016032695770263671875</LongitudeDegrees>
            </Position>
            <AltitudeMeters>17.3999996185302734375</AltitudeMeters>
            <DistanceMeters>NAN</DistanceMeters>
          </Trackpoint>
          <Trackpoint>
            <Time>2021-08-12T14:16:49.000Z</Time>
            <Position>
              <LatitudeDegrees>43.30143221653997898101806640625</LatitudeDegrees>
              <LongitudeDegrees>-2.01354838907718658447265625</LongitudeDegrees>
            </Position>
            <AltitudeMeters>17.3999996185302734375</AltitudeMeters>
            <DistanceMeters>NAN</DistanceMeters>
          </Trackpoint>
          <Trackpoint>
            <Time>2021-08-12T14:16:50.000Z</Time>
            <Position>
              <LatitudeDegrees>43.30140908248722553253173828125</LatitudeDegrees>
              <LongitudeDegrees>-2.01358820311725139617919921875</LongitudeDegrees>
            </Position>
            <AltitudeMeters>17.3999996185302734375</AltitudeMeters>
            <DistanceMeters>NAN</DistanceMeters>
          </Trackpoint>
          <Trackpoint>
            <Time>2021-08-12T14:16:53.000Z</Time>
            <Position>
              <LatitudeDegrees>43.3013431169092655181884765625</LatitudeDegrees>
              <LongitudeDegrees>-2.01373086310923099517822265625</LongitudeDegrees>
            </Position>
            <AltitudeMeters>17.6000003814697265625</AltitudeMeters>
            <DistanceMeters>NAN</DistanceMeters>
          </Trackpoint>
          <Trackpoint>
            <Time>2021-08-12T14:16:54.000Z</Time>
            <Position>
              <LatitudeDegrees>43.3013248443603515625</LatitudeDegrees>
              <LongitudeDegrees>-2.0137768797576427459716796875</LongitudeDegrees>
            </Position>
            <AltitudeMeters>17.6000003814697265625</AltitudeMeters>
            <DistanceMeters>NAN</DistanceMeters>
          </Trackpoint>
          <Trackpoint>
            <Time>2021-08-12T14:16:55.000Z</Time>
            <Position>
              <LatitudeDegrees>43.301304392516613006591796875</LatitudeDegrees>
              <LongitudeDegrees>-2.01382406987249851226806640625</LongitudeDegrees>
            </Position>
            <AltitudeMeters>17.6000003814697265625</AltitudeMeters>
            <DistanceMeters>NAN</DistanceMeters>
          </Trackpoint>
          <Trackpoint>
            <Time>2021-08-12T14:17:00.000Z</Time>
            <Position>
              <LatitudeDegrees>43.30121780745685100555419921875</LatitudeDegrees>
              <LongitudeDegrees>-2.0140702463686466217041015625</LongitudeDegrees>
            </Position>
            <AltitudeMeters>17.799999237060546875</AltitudeMeters>
            <DistanceMeters>NAN</DistanceMeters>
          </Trackpoint>
          <Trackpoint>
            <Time>2021-08-12T14:17:01.000Z</Time>
            <Position>
              <LatitudeDegrees>43.30120272003114223480224609375</LatitudeDegrees>
              <LongitudeDegrees>-2.0141171850264072418212890625</LongitudeDegrees>
            </Position>
            <AltitudeMeters>17.799999237060546875</AltitudeMeters>
            <DistanceMeters>NAN</DistanceMeters>
          </Trackpoint>
          <Trackpoint>
            <Time>2021-08-12T14:17:02.000Z</Time>
            <Position>
              <LatitudeDegrees>43.3011909015476703643798828125</LatitudeDegrees>
              <LongitudeDegrees>-2.01416571624577045440673828125</LongitudeDegrees>
            </Position>
            <AltitudeMeters>17.799999237060546875</AltitudeMeters>
            <DistanceMeters>NAN</DistanceMeters>
          </Trackpoint>
          <Trackpoint>
            <Time>2021-08-12T14:17:03.000Z</Time>
            <Position>
              <LatitudeDegrees>43.301181681454181671142578125</LatitudeDegrees>
              <LongitudeDegrees>-2.0142134092748165130615234375</LongitudeDegrees>
            </Position>
            <AltitudeMeters>17.799999237060546875</AltitudeMeters>
            <DistanceMeters>NAN</DistanceMeters>
          </Trackpoint>
          <Trackpoint>
            <Time>2021-08-12T14:17:04.000Z</Time>
            <Position>
              <LatitudeDegrees>43.301174975931644439697265625</LatitudeDegrees>
              <LongitudeDegrees>-2.01425272040069103240966796875</LongitudeDegrees>
            </Position>
            <AltitudeMeters>17.799999237060546875</AltitudeMeters>
            <DistanceMeters>NAN</DistanceMeters>
          </Trackpoint>
          <Trackpoint>
            <Time>2021-08-12T14:17:05.000Z</Time>
            <Position>
              <LatitudeDegrees>43.3011625707149505615234375</LatitudeDegrees>
              <LongitudeDegrees>-2.01431139372289180755615234375</LongitudeDegrees>
            </Position>
            <AltitudeMeters>17.799999237060546875</AltitudeMeters>
            <DistanceMeters>NAN</DistanceMeters>
          </Trackpoint>
          <Trackpoint>
            <Time>2021-08-12T14:17:06.000Z</Time>
            <Position>
              <LatitudeDegrees>43.301154188811779022216796875</LatitudeDegrees>
              <LongitudeDegrees>-2.0143599249422550201416015625</LongitudeDegrees>
            </Position>
            <AltitudeMeters>17.799999237060546875</AltitudeMeters>
            <DistanceMeters>NAN</DistanceMeters>
          </Trackpoint>
          <Trackpoint>
            <Time>2021-08-12T14:17:07.000Z</Time>
            <Position>
              <LatitudeDegrees>43.30114781856536865234375</LatitudeDegrees>
              <LongitudeDegrees>-2.0144098810851573944091796875</LongitudeDegrees>
            </Position>
            <AltitudeMeters>17.799999237060546875</AltitudeMeters>
            <DistanceMeters>NAN</DistanceMeters>
          </Trackpoint>
          <Trackpoint>
            <Time>2021-08-12T14:17:08.000Z</Time>
            <Position>
              <LatitudeDegrees>43.30114169977605342864990234375</LatitudeDegrees>
              <LongitudeDegrees>-2.01445925049483776092529296875</LongitudeDegrees>
            </Position>
            <AltitudeMeters>17.799999237060546875</AltitudeMeters>
            <DistanceMeters>NAN</DistanceMeters>
          </Trackpoint>
          <Trackpoint>
            <Time>2021-08-12T14:17:09.000Z</Time>
            <Position>
              <LatitudeDegrees>43.30113348551094532012939453125</LatitudeDegrees>
              <LongitudeDegrees>-2.01450602151453495025634765625</LongitudeDegrees>
            </Position>
            <AltitudeMeters>18</AltitudeMeters>
            <DistanceMeters>NAN</DistanceMeters>
          </Trackpoint>
          <Trackpoint>
            <Time>2021-08-12T14:17:10.000Z</Time>
            <Position>
              <LatitudeDegrees>43.3011241815984249114990234375</LatitudeDegrees>
              <LongitudeDegrees>-2.01454239897429943084716796875</LongitudeDegrees>
            </Position>
            <AltitudeMeters>18</AltitudeMeters>
            <DistanceMeters>NAN</DistanceMeters>
          </Trackpoint>
          <Trackpoint>
            <Time>2021-08-12T14:17:11.000Z</Time>
            <Position>
              <LatitudeDegrees>43.3011117763817310333251953125</LatitudeDegrees>
              <LongitudeDegrees>-2.01459637843072414398193359375</LongitudeDegrees>
            </Position>
            <AltitudeMeters>18</AltitudeMeters>
            <DistanceMeters>NAN</DistanceMeters>
          </Trackpoint>
          <Trackpoint>
            <Time>2021-08-12T14:17:12.000Z</Time>
            <Position>
              <LatitudeDegrees>43.3011157996952533721923828125</LatitudeDegrees>
              <LongitudeDegrees>-2.014631666243076324462890625</LongitudeDegrees>
            </Position>
            <AltitudeMeters>18</AltitudeMeters>
            <DistanceMeters>NAN</DistanceMeters>
          </Trackpoint>
          <Trackpoint>
            <Time>2021-08-12T14:17:13.000Z</Time>
            <Position>
              <LatitudeDegrees>43.3011209964752197265625</LatitudeDegrees>
              <LongitudeDegrees>-2.0146747492253780364990234375</LongitudeDegrees>
            </Position>
            <AltitudeMeters>18</AltitudeMeters>
            <DistanceMeters>NAN</DistanceMeters>
          </Trackpoint>
          <Trackpoint>
            <Time>2021-08-12T14:17:14.000Z</Time>
            <Position>
              <LatitudeDegrees>43.30112225376069545745849609375</LatitudeDegrees>
              <LongitudeDegrees>-2.0147176645696163177490234375</LongitudeDegrees>
            </Position>
            <AltitudeMeters>18</AltitudeMeters>
            <DistanceMeters>NAN</DistanceMeters>
          </Trackpoint>
          <Trackpoint>
            <Time>2021-08-12T14:17:15.000Z</Time>
            <Position>
              <LatitudeDegrees>43.301126025617122650146484375</LatitudeDegrees>
              <LongitudeDegrees>-2.01477524824440479278564453125</LongitudeDegrees>
            </Position>
            <AltitudeMeters>18</AltitudeMeters>
            <DistanceMeters>NAN</DistanceMeters>
          </Trackpoint>
          <Trackpoint>
            <Time>2021-08-12T14:17:16.000Z</Time>
            <Position>
              <LatitudeDegrees>43.3011342398822307586669921875</LatitudeDegrees>
              <LongitudeDegrees>-2.01481631956994533538818359375</LongitudeDegrees>
            </Position>
            <AltitudeMeters>18</AltitudeMeters>
            <DistanceMeters>NAN</DistanceMeters>
          </Trackpoint>
          <Trackpoint>
            <Time>2021-08-12T14:17:17.000Z</Time>
            <Position>
              <LatitudeDegrees>43.3011419512331485748291015625</LatitudeDegrees>
              <LongitudeDegrees>-2.01487340033054351806640625</LongitudeDegrees>
            </Position>
            <AltitudeMeters>18</AltitudeMeters>
            <DistanceMeters>NAN</DistanceMeters>
          </Trackpoint>
          <Trackpoint>
            <Time>2021-08-12T14:17:18.000Z</Time>
            <Position>
              <LatitudeDegrees>43.30114522017538547515869140625</LatitudeDegrees>
              <LongitudeDegrees>-2.0149171538650989532470703125</LongitudeDegrees>
            </Position>
            <AltitudeMeters>18</AltitudeMeters>
            <DistanceMeters>NAN</DistanceMeters>
          </Trackpoint>
          <Trackpoint>
            <Time>2021-08-12T14:17:19.000Z</Time>
            <Position>
              <LatitudeDegrees>43.301144801080226898193359375</LatitudeDegrees>
              <LongitudeDegrees>-2.01495780609548091888427734375</LongitudeDegrees>
            </Position>
            <AltitudeMeters>18</AltitudeMeters>
            <DistanceMeters>NAN</DistanceMeters>
          </Trackpoint>
          <Trackpoint>
            <Time>2021-08-12T14:17:20.000Z</Time>
            <Position>
              <LatitudeDegrees>43.301147483289241790771484375</LatitudeDegrees>
              <LongitudeDegrees>-2.01499116607010364532470703125</LongitudeDegrees>
            </Position>
            <AltitudeMeters>18</AltitudeMeters>
            <DistanceMeters>NAN</DistanceMeters>
          </Trackpoint>
          <Trackpoint>
            <Time>2021-08-12T14:17:21.000Z</Time>
            <Position>
              <LatitudeDegrees>43.3011545240879058837890625</LatitudeDegrees>
              <LongitudeDegrees>-2.015048079192638397216796875</LongitudeDegrees>
            </Position>
            <AltitudeMeters>18</AltitudeMeters>
            <DistanceMeters>NAN</DistanceMeters>
          </Trackpoint>
          <Trackpoint>
            <Time>2021-08-12T14:17:23.000Z</Time>
            <Position>
              <LatitudeDegrees>43.3011818490922451019287109375</LatitudeDegrees>
              <LongitudeDegrees>-2.01514824293553829193115234375</LongitudeDegrees>
            </Position>
            <AltitudeMeters>18</AltitudeMeters>
            <DistanceMeters>NAN</DistanceMeters>
          </Trackpoint>
          <Trackpoint>
            <Time>2021-08-12T14:17:25.000Z</Time>
            <Position>
              <LatitudeDegrees>43.30121411941945552825927734375</LatitudeDegrees>
              <LongitudeDegrees>-2.0152470655739307403564453125</LongitudeDegrees>
            </Position>
            <AltitudeMeters>18</AltitudeMeters>
            <DistanceMeters>NAN</DistanceMeters>
          </Trackpoint>
          <Trackpoint>
            <Time>2021-08-12T14:17:26.000Z</Time>
            <Position>
              <LatitudeDegrees>43.301214873790740966796875</LatitudeDegrees>
              <LongitudeDegrees>-2.0152859576046466827392578125</LongitudeDegrees>
            </Position>
            <AltitudeMeters>18</AltitudeMeters>
            <DistanceMeters>NAN</DistanceMeters>
          </Trackpoint>
          <Trackpoint>
            <Time>2021-08-12T14:17:27.000Z</Time>
            <Position>
              <LatitudeDegrees>43.30121814273297786712646484375</LatitudeDegrees>
              <LongitudeDegrees>-2.01533205807209014892578125</LongitudeDegrees>
            </Position>
            <AltitudeMeters>18</AltitudeMeters>
            <DistanceMeters>NAN</DistanceMeters>
          </Trackpoint>
          <Trackpoint>
            <Time>2021-08-12T14:17:28.000Z</Time>
            <Position>
              <LatitudeDegrees>43.301215879619121551513671875</LatitudeDegrees>
              <LongitudeDegrees>-2.01538260094821453094482421875</LongitudeDegrees>
            </Position>
            <AltitudeMeters>18</AltitudeMeters>
            <DistanceMeters>NAN</DistanceMeters>
          </Trackpoint>
          <Trackpoint>
            <Time>2021-08-12T14:17:29.000Z</Time>
            <Position>
              <LatitudeDegrees>43.30121814273297786712646484375</LatitudeDegrees>
              <LongitudeDegrees>-2.01542719267308712005615234375</LongitudeDegrees>
            </Position>
            <AltitudeMeters>18</AltitudeMeters>
            <DistanceMeters>NAN</DistanceMeters>
          </Trackpoint>
          <Trackpoint>
            <Time>2021-08-12T14:17:30.000Z</Time>
            <Position>
              <LatitudeDegrees>43.30121763981878757476806640625</LatitudeDegrees>
              <LongitudeDegrees>-2.0154613070189952850341796875</LongitudeDegrees>
            </Position>
            <AltitudeMeters>18.200000762939453125</AltitudeMeters>
            <DistanceMeters>NAN</DistanceMeters>
          </Trackpoint>
          <Trackpoint>
            <Time>2021-08-12T14:17:31.000Z</Time>
            <Position>
              <LatitudeDegrees>43.30122250132262706756591796875</LatitudeDegrees>
              <LongitudeDegrees>-2.0154955051839351654052734375</LongitudeDegrees>
            </Position>
            <AltitudeMeters>18.200000762939453125</AltitudeMeters>
            <DistanceMeters>NAN</DistanceMeters>
          </Trackpoint>
          <Trackpoint>
            <Time>2021-08-12T14:17:32.000Z</Time>
            <Position>
              <LatitudeDegrees>43.301229961216449737548828125</LatitudeDegrees>
              <LongitudeDegrees>-2.0155312120914459228515625</LongitudeDegrees>
            </Position>
            <AltitudeMeters>18.200000762939453125</AltitudeMeters>
            <DistanceMeters>NAN</DistanceMeters>
          </Trackpoint>
          <Trackpoint>
            <Time>2021-08-12T14:17:33.000Z</Time>
            <Position>
              <LatitudeDegrees>43.3012378402054309844970703125</LatitudeDegrees>
              <LongitudeDegrees>-2.01558426953852176666259765625</LongitudeDegrees>
            </Position>
            <AltitudeMeters>18.200000762939453125</AltitudeMeters>
            <DistanceMeters>NAN</DistanceMeters>
          </Trackpoint>
          <Trackpoint>
            <Time>2021-08-12T14:17:34.000Z</Time>
            <Position>
              <LatitudeDegrees>43.3012472279369831085205078125</LatitudeDegrees>
              <LongitudeDegrees>-2.01562919653952121734619140625</LongitudeDegrees>
            </Position>
            <AltitudeMeters>18.200000762939453125</AltitudeMeters>
            <DistanceMeters>NAN</DistanceMeters>
          </Trackpoint>
          <Trackpoint>
            <Time>2021-08-12T14:17:42.000Z</Time>
            <Position>
              <LatitudeDegrees>43.301314450800418853759765625</LatitudeDegrees>
              <LongitudeDegrees>-2.0160088129341602325439453125</LongitudeDegrees>
            </Position>
            <AltitudeMeters>18.200000762939453125</AltitudeMeters>
            <DistanceMeters>NAN</DistanceMeters>
          </Trackpoint>
          <Trackpoint>
            <Time>2021-08-12T14:17:45.000Z</Time>
            <Position>
              <LatitudeDegrees>43.3013297058641910552978515625</LatitudeDegrees>
              <LongitudeDegrees>-2.01613261364400386810302734375</LongitudeDegrees>
            </Position>
            <AltitudeMeters>18.200000762939453125</AltitudeMeters>
            <DistanceMeters>NAN</DistanceMeters>
          </Trackpoint>
          <Trackpoint>
            <Time>2021-08-12T14:17:46.000Z</Time>
            <Position>
              <LatitudeDegrees>43.3013404347002506256103515625</LatitudeDegrees>
              <LongitudeDegrees>-2.0161616988480091094970703125</LongitudeDegrees>
            </Position>
            <AltitudeMeters>18.200000762939453125</AltitudeMeters>
            <DistanceMeters>NAN</DistanceMeters>
          </Trackpoint>
          <Trackpoint>
            <Time>2021-08-12T14:17:47.000Z</Time>
            <Position>
              <LatitudeDegrees>43.30135594122111797332763671875</LatitudeDegrees>
              <LongitudeDegrees>-2.016186676919460296630859375</LongitudeDegrees>
            </Position>
            <AltitudeMeters>18.200000762939453125</AltitudeMeters>
            <DistanceMeters>NAN</DistanceMeters>
          </Trackpoint>
          <Trackpoint>
            <Time>2021-08-12T14:17:48.000Z</Time>
            <Position>
              <LatitudeDegrees>43.301372118294239044189453125</LatitudeDegrees>
              <LongitudeDegrees>-2.0162156783044338226318359375</LongitudeDegrees>
            </Position>
            <AltitudeMeters>18.3999996185302734375</AltitudeMeters>
            <DistanceMeters>NAN</DistanceMeters>
          </Trackpoint>
          <Trackpoint>
            <Time>2021-08-12T14:17:49.000Z</Time>
            <Position>
              <LatitudeDegrees>43.301384188234806060791015625</LatitudeDegrees>
              <LongitudeDegrees>-2.01624811626970767974853515625</LongitudeDegrees>
            </Position>
            <AltitudeMeters>18.3999996185302734375</AltitudeMeters>
            <DistanceMeters>NAN</DistanceMeters>
          </Trackpoint>
          <Trackpoint>
            <Time>2021-08-12T14:17:51.000Z</Time>
            <Position>
              <LatitudeDegrees>43.3013893850147724151611328125</LatitudeDegrees>
              <LongitudeDegrees>-2.01632305048406124114990234375</LongitudeDegrees>
            </Position>
            <AltitudeMeters>18.3999996185302734375</AltitudeMeters>
            <DistanceMeters>NAN</DistanceMeters>
          </Trackpoint>
          <Trackpoint>
            <Time>2021-08-12T14:17:52.000Z</Time>
            <Position>
              <LatitudeDegrees>43.30138930119574069976806640625</LatitudeDegrees>
              <LongitudeDegrees>-2.01636445708572864532470703125</LongitudeDegrees>
            </Position>
            <AltitudeMeters>18.3999996185302734375</AltitudeMeters>
            <DistanceMeters>NAN</DistanceMeters>
          </Trackpoint>
          <Trackpoint>
            <Time>2021-08-12T14:17:53.000Z</Time>
            <Position>
              <LatitudeDegrees>43.301390223205089569091796875</LatitudeDegrees>
              <LongitudeDegrees>-2.01640586368739604949951171875</LongitudeDegrees>
            </Position>
            <AltitudeMeters>18.3999996185302734375</AltitudeMeters>
            <DistanceMeters>NAN</DistanceMeters>
          </Trackpoint>
          <Trackpoint>
            <Time>2021-08-12T14:17:57.000Z</Time>
            <Position>
              <LatitudeDegrees>43.301366083323955535888671875</LatitudeDegrees>
              <LongitudeDegrees>-2.01653846539556980133056640625</LongitudeDegrees>
            </Position>
            <AltitudeMeters>18.3999996185302734375</AltitudeMeters>
            <DistanceMeters>NAN</DistanceMeters>
          </Trackpoint>
          <Trackpoint>
            <Time>2021-08-12T14:17:58.000Z</Time>
            <Position>
              <LatitudeDegrees>43.30135493539273738861083984375</LatitudeDegrees>
              <LongitudeDegrees>-2.016565538942813873291015625</LongitudeDegrees>
            </Position>
            <AltitudeMeters>18.3999996185302734375</AltitudeMeters>
            <DistanceMeters>NAN</DistanceMeters>
          </Trackpoint>
          <Trackpoint>
            <Time>2021-08-12T14:17:59.000Z</Time>
            <Position>
              <LatitudeDegrees>43.301337249577045440673828125</LatitudeDegrees>
              <LongitudeDegrees>-2.01658925972878932952880859375</LongitudeDegrees>
            </Position>
            <AltitudeMeters>18.3999996185302734375</AltitudeMeters>
            <DistanceMeters>NAN</DistanceMeters>
          </Trackpoint>
          <Trackpoint>
            <Time>2021-08-12T14:18:00.000Z</Time>
            <Position>
              <LatitudeDegrees>43.3013152889907360076904296875</LatitudeDegrees>
              <LongitudeDegrees>-2.01660820282995700836181640625</LongitudeDegrees>
            </Position>
            <AltitudeMeters>18.3999996185302734375</AltitudeMeters>
            <DistanceMeters>NAN</DistanceMeters>
          </Trackpoint>
          <Trackpoint>
            <Time>2021-08-12T14:18:01.000Z</Time>
            <Position>
              <LatitudeDegrees>43.30129207111895084381103515625</LatitudeDegrees>
              <LongitudeDegrees>-2.01662295497953891754150390625</LongitudeDegrees>
            </Position>
            <AltitudeMeters>18.3999996185302734375</AltitudeMeters>
            <DistanceMeters>NAN</DistanceMeters>
          </Trackpoint>
          <Trackpoint>
            <Time>2021-08-12T14:18:02.000Z</Time>
            <Position>
              <LatitudeDegrees>43.30126692540943622589111328125</LatitudeDegrees>
              <LongitudeDegrees>-2.0166347734630107879638671875</LongitudeDegrees>
            </Position>
            <AltitudeMeters>18.3999996185302734375</AltitudeMeters>
            <DistanceMeters>NAN</DistanceMeters>
          </Trackpoint>
          <Trackpoint>
            <Time>2021-08-12T14:18:03.000Z</Time>
            <Position>
              <LatitudeDegrees>43.30124412663280963897705078125</LatitudeDegrees>
              <LongitudeDegrees>-2.01663921587169170379638671875</LongitudeDegrees>
            </Position>
            <AltitudeMeters>18.3999996185302734375</AltitudeMeters>
            <DistanceMeters>NAN</DistanceMeters>
          </Trackpoint>
          <Trackpoint>
            <Time>2021-08-12T14:18:04.000Z</Time>
            <Position>
              <LatitudeDegrees>43.30121613107621669769287109375</LatitudeDegrees>
              <LongitudeDegrees>-2.01664072461426258087158203125</LongitudeDegrees>
            </Position>
            <AltitudeMeters>18.3999996185302734375</AltitudeMeters>
            <DistanceMeters>NAN</DistanceMeters>
          </Trackpoint>
          <Trackpoint>
            <Time>2021-08-12T14:18:07.000Z</Time>
            <Position>
              <LatitudeDegrees>43.30111789517104625701904296875</LatitudeDegrees>
              <LongitudeDegrees>-2.0166428200900554656982421875</LongitudeDegrees>
            </Position>
            <AltitudeMeters>18.3999996185302734375</AltitudeMeters>
            <DistanceMeters>NAN</DistanceMeters>
          </Trackpoint>
          <Trackpoint>
            <Time>2021-08-12T14:18:08.000Z</Time>
            <Position>
              <LatitudeDegrees>43.30108151771128177642822265625</LatitudeDegrees>
              <LongitudeDegrees>-2.01664231717586517333984375</LongitudeDegrees>
            </Position>
            <AltitudeMeters>18.3999996185302734375</AltitudeMeters>
            <DistanceMeters>NAN</DistanceMeters>
          </Trackpoint>
          <Trackpoint>
            <Time>2021-08-12T14:18:13.000Z</Time>
            <Position>
              <LatitudeDegrees>43.30086710862815380096435546875</LatitudeDegrees>
              <LongitudeDegrees>-2.01663401909172534942626953125</LongitudeDegrees>
            </Position>
            <AltitudeMeters>18</AltitudeMeters>
            <DistanceMeters>NAN</DistanceMeters>
          </Trackpoint>
          <Trackpoint>
            <Time>2021-08-12T14:18:14.000Z</Time>
            <Position>
              <LatitudeDegrees>43.30081991851329803466796875</LatitudeDegrees>
              <LongitudeDegrees>-2.01663468964397907257080078125</LongitudeDegrees>
            </Position>
            <AltitudeMeters>18</AltitudeMeters>
            <DistanceMeters>NAN</DistanceMeters>
          </Trackpoint>
          <Trackpoint>
            <Time>2021-08-12T14:18:16.000Z</Time>
            <Position>
              <LatitudeDegrees>43.30072612501680850982666015625</LatitudeDegrees>
              <LongitudeDegrees>-2.0166364498436450958251953125</LongitudeDegrees>
            </Position>
            <AltitudeMeters>17.799999237060546875</AltitudeMeters>
            <DistanceMeters>NAN</DistanceMeters>
          </Trackpoint>
          <Trackpoint>
            <Time>2021-08-12T14:18:18.000Z</Time>
            <Position>
              <LatitudeDegrees>43.30062638036906719207763671875</LatitudeDegrees>
              <LongitudeDegrees>-2.01663066633045673370361328125</LongitudeDegrees>
            </Position>
            <AltitudeMeters>17.6000003814697265625</AltitudeMeters>
            <DistanceMeters>NAN</DistanceMeters>
          </Trackpoint>
          <Trackpoint>
            <Time>2021-08-12T14:18:19.000Z</Time>
            <Position>
              <LatitudeDegrees>43.30057374201714992523193359375</LatitudeDegrees>
              <LongitudeDegrees>-2.01662664301693439483642578125</LongitudeDegrees>
            </Position>
            <AltitudeMeters>17.3999996185302734375</AltitudeMeters>
            <DistanceMeters>NAN</DistanceMeters>
          </Trackpoint>
          <Trackpoint>
            <Time>2021-08-12T14:18:20.000Z</Time>
            <Position>
              <LatitudeDegrees>43.3005243726074695587158203125</LatitudeDegrees>
              <LongitudeDegrees>-2.01662144623696804046630859375</LongitudeDegrees>
            </Position>
            <AltitudeMeters>17.3999996185302734375</AltitudeMeters>
            <DistanceMeters>NAN</DistanceMeters>
          </Trackpoint>
          <Trackpoint>
            <Time>2021-08-12T14:18:21.000Z</Time>
            <Position>
              <LatitudeDegrees>43.30047517083585262298583984375</LatitudeDegrees>
              <LongitudeDegrees>-2.016621530055999755859375</LongitudeDegrees>
            </Position>
            <AltitudeMeters>17</AltitudeMeters>
            <DistanceMeters>NAN</DistanceMeters>
          </Trackpoint>
          <Trackpoint>
            <Time>2021-08-12T14:18:23.000Z</Time>
            <Position>
              <LatitudeDegrees>43.30038347281515598297119140625</LatitudeDegrees>
              <LongitudeDegrees>-2.01661641709506511688232421875</LongitudeDegrees>
            </Position>
            <AltitudeMeters>16.799999237060546875</AltitudeMeters>
            <DistanceMeters>NAN</DistanceMeters>
          </Trackpoint>
          <Trackpoint>
            <Time>2021-08-12T14:18:24.000Z</Time>
            <Position>
              <LatitudeDegrees>43.30034315586090087890625</LatitudeDegrees>
              <LongitudeDegrees>-2.01663561165332794189453125</LongitudeDegrees>
            </Position>
            <AltitudeMeters>16.6000003814697265625</AltitudeMeters>
            <DistanceMeters>NAN</DistanceMeters>
          </Trackpoint>
          <Trackpoint>
            <Time>2021-08-12T14:18:25.000Z</Time>
            <Position>
              <LatitudeDegrees>43.30032094381749629974365234375</LatitudeDegrees>
              <LongitudeDegrees>-2.01666855253279209136962890625</LongitudeDegrees>
            </Position>
            <AltitudeMeters>16.6000003814697265625</AltitudeMeters>
            <DistanceMeters>NAN</DistanceMeters>
          </Trackpoint>
          <Trackpoint>
            <Time>2021-08-12T14:18:26.000Z</Time>
            <Position>
              <LatitudeDegrees>43.30031021498143672943115234375</LatitudeDegrees>
              <LongitudeDegrees>-2.0167051814496517181396484375</LongitudeDegrees>
            </Position>
            <AltitudeMeters>16.3999996185302734375</AltitudeMeters>
            <DistanceMeters>NAN</DistanceMeters>
          </Trackpoint>
          <Trackpoint>
            <Time>2021-08-12T14:18:27.000Z</Time>
            <Position>
              <LatitudeDegrees>43.3003056049346923828125</LatitudeDegrees>
              <LongitudeDegrees>-2.0167564786970615386962890625</LongitudeDegrees>
            </Position>
            <AltitudeMeters>16.3999996185302734375</AltitudeMeters>
            <DistanceMeters>NAN</DistanceMeters>
          </Trackpoint>
          <Trackpoint>
            <Time>2021-08-12T14:18:29.000Z</Time>
            <Position>
              <LatitudeDegrees>43.30030149780213832855224609375</LatitudeDegrees>
              <LongitudeDegrees>-2.0168674550950527191162109375</LongitudeDegrees>
            </Position>
            <AltitudeMeters>16.200000762939453125</AltitudeMeters>
            <DistanceMeters>NAN</DistanceMeters>
          </Trackpoint>
          <Trackpoint>
            <Time>2021-08-12T14:18:30.000Z</Time>
            <Position>
              <LatitudeDegrees>43.30030468292534351348876953125</LatitudeDegrees>
              <LongitudeDegrees>-2.0169331692159175872802734375</LongitudeDegrees>
            </Position>
            <AltitudeMeters>16</AltitudeMeters>
            <DistanceMeters>NAN</DistanceMeters>
          </Trackpoint>
          <Trackpoint>
            <Time>2021-08-12T14:18:31.000Z</Time>
            <Position>
              <LatitudeDegrees>43.3003138191998004913330078125</LatitudeDegrees>
              <LongitudeDegrees>-2.01700248755514621734619140625</LongitudeDegrees>
            </Position>
            <AltitudeMeters>16</AltitudeMeters>
            <DistanceMeters>NAN</DistanceMeters>
          </Trackpoint>
          <Trackpoint>
            <Time>2021-08-12T14:18:34.000Z</Time>
            <Position>
              <LatitudeDegrees>43.300328068435192108154296875</LatitudeDegrees>
              <LongitudeDegrees>-2.017213292419910430908203125</LongitudeDegrees>
            </Position>
            <AltitudeMeters>15.80000019073486328125</AltitudeMeters>
            <DistanceMeters>NAN</DistanceMeters>
          </Trackpoint>
          <Trackpoint>
            <Time>2021-08-12T14:18:37.000Z</Time>
            <Position>
              <LatitudeDegrees>43.30030895769596099853515625</LatitudeDegrees>
              <LongitudeDegrees>-2.01743029989302158355712890625</LongitudeDegrees>
            </Position>
            <AltitudeMeters>15.6000003814697265625</AltitudeMeters>
            <DistanceMeters>NAN</DistanceMeters>
          </Trackpoint>
          <Trackpoint>
            <Time>2021-08-12T14:18:44.000Z</Time>
            <Position>
              <LatitudeDegrees>43.30019303597509860992431640625</LatitudeDegrees>
              <LongitudeDegrees>-2.0179141871631145477294921875</LongitudeDegrees>
            </Position>
            <AltitudeMeters>16</AltitudeMeters>
            <DistanceMeters>NAN</DistanceMeters>
          </Trackpoint>
          <Trackpoint>
            <Time>2021-08-12T14:18:48.000Z</Time>
            <Position>
              <LatitudeDegrees>43.30014894716441631317138671875</LatitudeDegrees>
              <LongitudeDegrees>-2.01816639862954616546630859375</LongitudeDegrees>
            </Position>
            <AltitudeMeters>16.200000762939453125</AltitudeMeters>
            <DistanceMeters>NAN</DistanceMeters>
          </Trackpoint>
          <Trackpoint>
            <Time>2021-08-12T14:18:49.000Z</Time>
            <Position>
              <LatitudeDegrees>43.30013721249997615814208984375</LatitudeDegrees>
              <LongitudeDegrees>-2.01823010109364986419677734375</LongitudeDegrees>
            </Position>
            <AltitudeMeters>16.200000762939453125</AltitudeMeters>
            <DistanceMeters>NAN</DistanceMeters>
          </Trackpoint>
          <Trackpoint>
            <Time>2021-08-12T14:18:50.000Z</Time>
            <Position>
              <LatitudeDegrees>43.30012531019747257232666015625</LatitudeDegrees>
              <LongitudeDegrees>-2.018292881548404693603515625</LongitudeDegrees>
            </Position>
            <AltitudeMeters>16.200000762939453125</AltitudeMeters>
            <DistanceMeters>NAN</DistanceMeters>
          </Trackpoint>
          <Trackpoint>
            <Time>2021-08-12T14:18:51.000Z</Time>
            <Position>
              <LatitudeDegrees>43.30011223442852497100830078125</LatitudeDegrees>
              <LongitudeDegrees>-2.01835448853671550750732421875</LongitudeDegrees>
            </Position>
            <AltitudeMeters>16.3999996185302734375</AltitudeMeters>
            <DistanceMeters>NAN</DistanceMeters>
          </Trackpoint>
          <Trackpoint>
            <Time>2021-08-12T14:18:52.000Z</Time>
            <Position>
              <LatitudeDegrees>43.3000950515270233154296875</LatitudeDegrees>
              <LongitudeDegrees>-2.01841852627694606781005859375</LongitudeDegrees>
            </Position>
            <AltitudeMeters>16.3999996185302734375</AltitudeMeters>
            <DistanceMeters>NAN</DistanceMeters>
          </Trackpoint>
          <Trackpoint>
            <Time>2021-08-12T14:18:53.000Z</Time>
            <Position>
              <LatitudeDegrees>43.30008138902485370635986328125</LatitudeDegrees>
              <LongitudeDegrees>-2.0184794627130031585693359375</LongitudeDegrees>
            </Position>
            <AltitudeMeters>16.6000003814697265625</AltitudeMeters>
            <DistanceMeters>NAN</DistanceMeters>
          </Trackpoint>
          <Trackpoint>
            <Time>2021-08-12T14:18:54.000Z</Time>
            <Position>
              <LatitudeDegrees>43.3000734262168407440185546875</LatitudeDegrees>
              <LongitudeDegrees>-2.01853771694004535675048828125</LongitudeDegrees>
            </Position>
            <AltitudeMeters>16.799999237060546875</AltitudeMeters>
            <DistanceMeters>NAN</DistanceMeters>
          </Trackpoint>
          <Trackpoint>
            <Time>2021-08-12T14:18:55.000Z</Time>
            <Position>
              <LatitudeDegrees>43.3000697381794452667236328125</LatitudeDegrees>
              <LongitudeDegrees>-2.01859219931066036224365234375</LongitudeDegrees>
            </Position>
            <AltitudeMeters>16.799999237060546875</AltitudeMeters>
            <DistanceMeters>NAN</DistanceMeters>
          </Trackpoint>
          <Trackpoint>
            <Time>2021-08-12T14:18:56.000Z</Time>
            <Position>
              <LatitudeDegrees>43.300077281892299652099609375</LatitudeDegrees>
              <LongitudeDegrees>-2.01864299364387989044189453125</LongitudeDegrees>
            </Position>
            <AltitudeMeters>17</AltitudeMeters>
            <DistanceMeters>NAN</DistanceMeters>
          </Trackpoint>
          <Trackpoint>
            <Time>2021-08-12T14:18:57.000Z</Time>
            <Position>
              <LatitudeDegrees>43.3000942133367061614990234375</LatitudeDegrees>
              <LongitudeDegrees>-2.0186963863670825958251953125</LongitudeDegrees>
            </Position>
            <AltitudeMeters>17</AltitudeMeters>
            <DistanceMeters>NAN</DistanceMeters>
          </Trackpoint>
          <Trackpoint>
            <Time>2021-08-12T14:18:58.000Z</Time>
            <Position>
              <LatitudeDegrees>43.30011273734271526336669921875</LatitudeDegrees>
              <LongitudeDegrees>-2.018750198185443878173828125</LongitudeDegrees>
            </Position>
            <AltitudeMeters>17.200000762939453125</AltitudeMeters>
            <DistanceMeters>NAN</DistanceMeters>
          </Trackpoint>
          <Trackpoint>
            <Time>2021-08-12T14:18:59.000Z</Time>
            <Position>
              <LatitudeDegrees>43.30013729631900787353515625</LatitudeDegrees>
              <LongitudeDegrees>-2.01880476437509059906005859375</LongitudeDegrees>
            </Position>
            <AltitudeMeters>17.200000762939453125</AltitudeMeters>
            <DistanceMeters>NAN</DistanceMeters>
          </Trackpoint>
          <Trackpoint>
            <Time>2021-08-12T14:19:00.000Z</Time>
            <Position>
              <LatitudeDegrees>43.3001803793013095855712890625</LatitudeDegrees>
              <LongitudeDegrees>-2.01886075548827648162841796875</LongitudeDegrees>
            </Position>
            <AltitudeMeters>17.3999996185302734375</AltitudeMeters>
            <DistanceMeters>NAN</DistanceMeters>
          </Trackpoint>
          <Trackpoint>
            <Time>2021-08-12T14:19:01.000Z</Time>
            <Position>
              <LatitudeDegrees>43.30021751113235950469970703125</LatitudeDegrees>
              <LongitudeDegrees>-2.018914483487606048583984375</LongitudeDegrees>
            </Position>
            <AltitudeMeters>17.6000003814697265625</AltitudeMeters>
            <DistanceMeters>NAN</DistanceMeters>
          </Trackpoint>
          <Trackpoint>
            <Time>2021-08-12T14:19:02.000Z</Time>
            <Position>
              <LatitudeDegrees>43.30025489442050457000732421875</LatitudeDegrees>
              <LongitudeDegrees>-2.01897273771464824676513671875</LongitudeDegrees>
            </Position>
            <AltitudeMeters>17.6000003814697265625</AltitudeMeters>
            <DistanceMeters>NAN</DistanceMeters>
          </Trackpoint>
          <Trackpoint>
            <Time>2021-08-12T14:19:04.000Z</Time>
            <Position>
              <LatitudeDegrees>43.3003309182822704315185546875</LatitudeDegrees>
              <LongitudeDegrees>-2.01907667331397533416748046875</LongitudeDegrees>
            </Position>
            <AltitudeMeters>18</AltitudeMeters>
            <DistanceMeters>NAN</DistanceMeters>
          </Trackpoint>
          <Trackpoint>
            <Time>2021-08-12T14:19:05.000Z</Time>
            <Position>
              <LatitudeDegrees>43.30036662518978118896484375</LatitudeDegrees>
              <LongitudeDegrees>-2.01912872493267059326171875</LongitudeDegrees>
            </Position>
            <AltitudeMeters>18</AltitudeMeters>
            <DistanceMeters>NAN</DistanceMeters>
          </Trackpoint>
          <Trackpoint>
            <Time>2021-08-12T14:19:06.000Z</Time>
            <Position>
              <LatitudeDegrees>43.30040090717375278472900390625</LatitudeDegrees>
              <LongitudeDegrees>-2.019182033836841583251953125</LongitudeDegrees>
            </Position>
            <AltitudeMeters>18.200000762939453125</AltitudeMeters>
            <DistanceMeters>NAN</DistanceMeters>
          </Trackpoint>
          <Trackpoint>
            <Time>2021-08-12T14:19:08.000Z</Time>
            <Position>
              <LatitudeDegrees>43.30046452581882476806640625</LatitudeDegrees>
              <LongitudeDegrees>-2.0192943513393402099609375</LongitudeDegrees>
            </Position>
            <AltitudeMeters>18.3999996185302734375</AltitudeMeters>
            <DistanceMeters>NAN</DistanceMeters>
          </Trackpoint>
          <Trackpoint>
            <Time>2021-08-12T14:19:09.000Z</Time>
            <Position>
              <LatitudeDegrees>43.30048598349094390869140625</LatitudeDegrees>
              <LongitudeDegrees>-2.0193394459784030914306640625</LongitudeDegrees>
            </Position>
            <AltitudeMeters>18.6000003814697265625</AltitudeMeters>
            <DistanceMeters>NAN</DistanceMeters>
          </Trackpoint>
          <Trackpoint>
            <Time>2021-08-12T14:19:10.000Z</Time>
            <Position>
              <LatitudeDegrees>43.3005042560398578643798828125</LatitudeDegrees>
              <LongitudeDegrees>-2.01940767467021942138671875</LongitudeDegrees>
            </Position>
            <AltitudeMeters>18.6000003814697265625</AltitudeMeters>
            <DistanceMeters>NAN</DistanceMeters>
          </Trackpoint>
          <Trackpoint>
            <Time>2021-08-12T14:19:11.000Z</Time>
            <Position>
              <LatitudeDegrees>43.30051087774336338043212890625</LatitudeDegrees>
              <LongitudeDegrees>-2.01946173794567584991455078125</LongitudeDegrees>
            </Position>
            <AltitudeMeters>18.799999237060546875</AltitudeMeters>
            <DistanceMeters>NAN</DistanceMeters>
          </Trackpoint>
          <Trackpoint>
            <Time>2021-08-12T14:19:12.000Z</Time>
            <Position>
              <LatitudeDegrees>43.30051775090396404266357421875</LatitudeDegrees>
              <LongitudeDegrees>-2.0195147953927516937255859375</LongitudeDegrees>
            </Position>
            <AltitudeMeters>18.799999237060546875</AltitudeMeters>
            <DistanceMeters>NAN</DistanceMeters>
          </Trackpoint>
          <Trackpoint>
            <Time>2021-08-12T14:19:13.000Z</Time>
            <Position>
              <LatitudeDegrees>43.3005268871784210205078125</LatitudeDegrees>
              <LongitudeDegrees>-2.01956433244049549102783203125</LongitudeDegrees>
            </Position>
            <AltitudeMeters>18.799999237060546875</AltitudeMeters>
            <DistanceMeters>NAN</DistanceMeters>
          </Trackpoint>
          <Trackpoint>
            <Time>2021-08-12T14:19:14.000Z</Time>
            <Position>
              <LatitudeDegrees>43.3005357719957828521728515625</LatitudeDegrees>
              <LongitudeDegrees>-2.019615210592746734619140625</LongitudeDegrees>
            </Position>
            <AltitudeMeters>19</AltitudeMeters>
            <DistanceMeters>NAN</DistanceMeters>
          </Trackpoint>
          <Trackpoint>
            <Time>2021-08-12T14:19:15.000Z</Time>
            <Position>
              <LatitudeDegrees>43.3005408011376857757568359375</LatitudeDegrees>
              <LongitudeDegrees>-2.01966776512563228607177734375</LongitudeDegrees>
            </Position>
            <AltitudeMeters>19.200000762939453125</AltitudeMeters>
            <DistanceMeters>NAN</DistanceMeters>
          </Trackpoint>
          <Trackpoint>
            <Time>2021-08-12T14:19:16.000Z</Time>
            <Position>
              <LatitudeDegrees>43.30054624937474727630615234375</LatitudeDegrees>
              <LongitudeDegrees>-2.01971638016402721405029296875</LongitudeDegrees>
            </Position>
            <AltitudeMeters>19.200000762939453125</AltitudeMeters>
            <DistanceMeters>NAN</DistanceMeters>
          </Trackpoint>
          <Trackpoint>
            <Time>2021-08-12T14:19:17.000Z</Time>
            <Position>
              <LatitudeDegrees>43.30054842866957187652587890625</LatitudeDegrees>
              <LongitudeDegrees>-2.01975091360509395599365234375</LongitudeDegrees>
            </Position>
            <AltitudeMeters>19.3999996185302734375</AltitudeMeters>
            <DistanceMeters>NAN</DistanceMeters>
          </Trackpoint>
          <Trackpoint>
            <Time>2021-08-12T14:19:18.000Z</Time>
            <Position>
              <LatitudeDegrees>43.3005295693874359130859375</LatitudeDegrees>
              <LongitudeDegrees>-2.01978829689323902130126953125</LongitudeDegrees>
            </Position>
            <AltitudeMeters>19.799999237060546875</AltitudeMeters>
            <DistanceMeters>NAN</DistanceMeters>
          </Trackpoint>
          <Trackpoint>
            <Time>2021-08-12T14:19:19.000Z</Time>
            <Position>
              <LatitudeDegrees>43.3005129732191562652587890625</LatitudeDegrees>
              <LongitudeDegrees>-2.01983657665550708770751953125</LongitudeDegrees>
            </Position>
            <AltitudeMeters>20</AltitudeMeters>
            <DistanceMeters>NAN</DistanceMeters>
          </Trackpoint>
          <Trackpoint>
            <Time>2021-08-12T14:19:20.000Z</Time>
            <Position>
              <LatitudeDegrees>43.30050408840179443359375</LatitudeDegrees>
              <LongitudeDegrees>-2.01988150365650653839111328125</LongitudeDegrees>
            </Position>
            <AltitudeMeters>20</AltitudeMeters>
            <DistanceMeters>NAN</DistanceMeters>
          </Trackpoint>
          <Trackpoint>
            <Time>2021-08-12T14:19:21.000Z</Time>
            <Position>
              <LatitudeDegrees>43.30049780197441577911376953125</LatitudeDegrees>
              <LongitudeDegrees>-2.01992274262011051177978515625</LongitudeDegrees>
            </Position>
            <AltitudeMeters>20.200000762939453125</AltitudeMeters>
            <DistanceMeters>NAN</DistanceMeters>
          </Trackpoint>
          <Trackpoint>
            <Time>2021-08-12T14:19:22.000Z</Time>
            <Position>
              <LatitudeDegrees>43.30049403011798858642578125</LatitudeDegrees>
              <LongitudeDegrees>-2.0199644006788730621337890625</LongitudeDegrees>
            </Position>
            <AltitudeMeters>20.200000762939453125</AltitudeMeters>
            <DistanceMeters>NAN</DistanceMeters>
          </Trackpoint>
          <Trackpoint>
            <Time>2021-08-12T14:19:23.000Z</Time>
            <Position>
              <LatitudeDegrees>43.300487995147705078125</LatitudeDegrees>
              <LongitudeDegrees>-2.02000387944281101226806640625</LongitudeDegrees>
            </Position>
            <AltitudeMeters>20.3999996185302734375</AltitudeMeters>
            <DistanceMeters>NAN</DistanceMeters>
          </Trackpoint>
          <Trackpoint>
            <Time>2021-08-12T14:19:24.000Z</Time>
            <Position>
              <LatitudeDegrees>43.30047735013067722320556640625</LatitudeDegrees>
              <LongitudeDegrees>-2.02004092745482921600341796875</LongitudeDegrees>
            </Position>
            <AltitudeMeters>20.6000003814697265625</AltitudeMeters>
            <DistanceMeters>NAN</DistanceMeters>
          </Trackpoint>
          <Trackpoint>
            <Time>2021-08-12T14:19:25.000Z</Time>
            <Position>
              <LatitudeDegrees>43.3004703931510448455810546875</LatitudeDegrees>
              <LongitudeDegrees>-2.020074538886547088623046875</LongitudeDegrees>
            </Position>
            <AltitudeMeters>21</AltitudeMeters>
            <DistanceMeters>NAN</DistanceMeters>
          </Trackpoint>
          <Trackpoint>
            <Time>2021-08-12T14:19:26.000Z</Time>
            <Position>
              <LatitudeDegrees>43.30046896822750568389892578125</LatitudeDegrees>
              <LongitudeDegrees>-2.0201095752418041229248046875</LongitudeDegrees>
            </Position>
            <AltitudeMeters>21.200000762939453125</AltitudeMeters>
            <DistanceMeters>NAN</DistanceMeters>
          </Trackpoint>
          <Trackpoint>
            <Time>2021-08-12T14:19:27.000Z</Time>
            <Position>
              <LatitudeDegrees>43.30046712420880794525146484375</LatitudeDegrees>
              <LongitudeDegrees>-2.02014938928186893463134765625</LongitudeDegrees>
            </Position>
            <AltitudeMeters>21.3999996185302734375</AltitudeMeters>
            <DistanceMeters>NAN</DistanceMeters>
          </Trackpoint>
          <Trackpoint>
            <Time>2021-08-12T14:19:28.000Z</Time>
            <Position>
              <LatitudeDegrees>43.30046209506690502166748046875</LatitudeDegrees>
              <LongitudeDegrees>-2.02019180171191692352294921875</LongitudeDegrees>
            </Position>
            <AltitudeMeters>21.3999996185302734375</AltitudeMeters>
            <DistanceMeters>NAN</DistanceMeters>
          </Trackpoint>
          <Trackpoint>
            <Time>2021-08-12T14:19:29.000Z</Time>
            <Position>
              <LatitudeDegrees>43.3004529587924480438232421875</LatitudeDegrees>
              <LongitudeDegrees>-2.020233459770679473876953125</LongitudeDegrees>
            </Position>
            <AltitudeMeters>21.6000003814697265625</AltitudeMeters>
            <DistanceMeters>NAN</DistanceMeters>
          </Trackpoint>
          <Trackpoint>
            <Time>2021-08-12T14:19:30.000Z</Time>
            <Position>
              <LatitudeDegrees>43.3004415594041347503662109375</LatitudeDegrees>
              <LongitudeDegrees>-2.02027377672493457794189453125</LongitudeDegrees>
            </Position>
            <AltitudeMeters>21.6000003814697265625</AltitudeMeters>
            <DistanceMeters>NAN</DistanceMeters>
          </Trackpoint>
          <Trackpoint>
            <Time>2021-08-12T14:19:31.000Z</Time>
            <Position>
              <LatitudeDegrees>43.3004258014261722564697265625</LatitudeDegrees>
              <LongitudeDegrees>-2.020313926041126251220703125</LongitudeDegrees>
            </Position>
            <AltitudeMeters>21.799999237060546875</AltitudeMeters>
            <DistanceMeters>NAN</DistanceMeters>
          </Trackpoint>
          <Trackpoint>
            <Time>2021-08-12T14:19:32.000Z</Time>
            <Position>
              <LatitudeDegrees>43.30040819942951202392578125</LatitudeDegrees>
              <LongitudeDegrees>-2.02035441063344478607177734375</LongitudeDegrees>
            </Position>
            <AltitudeMeters>21.799999237060546875</AltitudeMeters>
            <DistanceMeters>NAN</DistanceMeters>
          </Trackpoint>
          <Trackpoint>
            <Time>2021-08-12T14:19:33.000Z</Time>
            <Position>
              <LatitudeDegrees>43.3003959618508815765380859375</LatitudeDegrees>
              <LongitudeDegrees>-2.0203935541212558746337890625</LongitudeDegrees>
            </Position>
            <AltitudeMeters>22</AltitudeMeters>
            <DistanceMeters>NAN</DistanceMeters>
          </Trackpoint>
          <Trackpoint>
            <Time>2021-08-12T14:19:34.000Z</Time>
            <Position>
              <LatitudeDegrees>43.3003859035670757293701171875</LatitudeDegrees>
              <LongitudeDegrees>-2.02043219469487667083740234375</LongitudeDegrees>
            </Position>
            <AltitudeMeters>22.200000762939453125</AltitudeMeters>
            <DistanceMeters>NAN</DistanceMeters>
          </Trackpoint>
          <Trackpoint>
            <Time>2021-08-12T14:19:35.000Z</Time>
            <Position>
              <LatitudeDegrees>43.30037810839712619781494140625</LatitudeDegrees>
              <LongitudeDegrees>-2.02046957798302173614501953125</LongitudeDegrees>
            </Position>
            <AltitudeMeters>22.200000762939453125</AltitudeMeters>
            <DistanceMeters>NAN</DistanceMeters>
          </Trackpoint>
          <Trackpoint>
            <Time>2021-08-12T14:19:36.000Z</Time>
            <Position>
              <LatitudeDegrees>43.3003686368465423583984375</LatitudeDegrees>
              <LongitudeDegrees>-2.02050847001373767852783203125</LongitudeDegrees>
            </Position>
            <AltitudeMeters>22.3999996185302734375</AltitudeMeters>
            <DistanceMeters>NAN</DistanceMeters>
          </Trackpoint>
          <Trackpoint>
            <Time>2021-08-12T14:19:37.000Z</Time>
            <Position>
              <LatitudeDegrees>43.3003580756485462188720703125</LatitudeDegrees>
              <LongitudeDegrees>-2.02054719440639019012451171875</LongitudeDegrees>
            </Position>
            <AltitudeMeters>22.6000003814697265625</AltitudeMeters>
            <DistanceMeters>NAN</DistanceMeters>
          </Trackpoint>
          <Trackpoint>
            <Time>2021-08-12T14:19:38.000Z</Time>
            <Position>
              <LatitudeDegrees>43.30034726299345493316650390625</LatitudeDegrees>
              <LongitudeDegrees>-2.02058524824678897857666015625</LongitudeDegrees>
            </Position>
            <AltitudeMeters>22.799999237060546875</AltitudeMeters>
            <DistanceMeters>NAN</DistanceMeters>
          </Trackpoint>
          <Trackpoint>
            <Time>2021-08-12T14:19:39.000Z</Time>
            <Position>
              <LatitudeDegrees>43.3003376238048076629638671875</LatitudeDegrees>
              <LongitudeDegrees>-2.02062581665813922882080078125</LongitudeDegrees>
            </Position>
            <AltitudeMeters>22.799999237060546875</AltitudeMeters>
            <DistanceMeters>NAN</DistanceMeters>
          </Trackpoint>
          <Trackpoint>
            <Time>2021-08-12T14:19:40.000Z</Time>
            <Position>
              <LatitudeDegrees>43.30032764934003353118896484375</LatitudeDegrees>
              <LongitudeDegrees>-2.02066655270755290985107421875</LongitudeDegrees>
            </Position>
            <AltitudeMeters>23</AltitudeMeters>
            <DistanceMeters>NAN</DistanceMeters>
          </Trackpoint>
          <Trackpoint>
            <Time>2021-08-12T14:19:41.000Z</Time>
            <Position>
              <LatitudeDegrees>43.30031775869429111480712890625</LatitudeDegrees>
              <LongitudeDegrees>-2.02070510946214199066162109375</LongitudeDegrees>
            </Position>
            <AltitudeMeters>23</AltitudeMeters>
            <DistanceMeters>NAN</DistanceMeters>
          </Trackpoint>
          <Trackpoint>
            <Time>2021-08-12T14:19:42.000Z</Time>
            <Position>
              <LatitudeDegrees>43.30030602402985095977783203125</LatitudeDegrees>
              <LongitudeDegrees>-2.02074316330254077911376953125</LongitudeDegrees>
            </Position>
            <AltitudeMeters>23.200000762939453125</AltitudeMeters>
            <DistanceMeters>NAN</DistanceMeters>
          </Trackpoint>
          <Trackpoint>
            <Time>2021-08-12T14:19:43.000Z</Time>
            <Position>
              <LatitudeDegrees>43.30029579810798168182373046875</LatitudeDegrees>
              <LongitudeDegrees>-2.0207814686000347137451171875</LongitudeDegrees>
            </Position>
            <AltitudeMeters>23.3999996185302734375</AltitudeMeters>
            <DistanceMeters>NAN</DistanceMeters>
          </Trackpoint>
          <Trackpoint>
            <Time>2021-08-12T14:19:44.000Z</Time>
            <Position>
              <LatitudeDegrees>43.3002883382141590118408203125</LatitudeDegrees>
              <LongitudeDegrees>-2.0208203606307506561279296875</LongitudeDegrees>
            </Position>
            <AltitudeMeters>23.3999996185302734375</AltitudeMeters>
            <DistanceMeters>NAN</DistanceMeters>
          </Trackpoint>
          <Trackpoint>
            <Time>2021-08-12T14:19:45.000Z</Time>
            <Position>
              <LatitudeDegrees>43.300278447568416595458984375</LatitudeDegrees>
              <LongitudeDegrees>-2.0208592526614665985107421875</LongitudeDegrees>
            </Position>
            <AltitudeMeters>23.6000003814697265625</AltitudeMeters>
            <DistanceMeters>NAN</DistanceMeters>
          </Trackpoint>
          <Trackpoint>
            <Time>2021-08-12T14:19:46.000Z</Time>
            <Position>
              <LatitudeDegrees>43.30026964657008647918701171875</LatitudeDegrees>
              <LongitudeDegrees>-2.02089764177799224853515625</LongitudeDegrees>
            </Position>
            <AltitudeMeters>23.6000003814697265625</AltitudeMeters>
            <DistanceMeters>NAN</DistanceMeters>
          </Trackpoint>
          <Trackpoint>
            <Time>2021-08-12T14:19:47.000Z</Time>
            <Position>
              <LatitudeDegrees>43.300259672105312347412109375</LatitudeDegrees>
              <LongitudeDegrees>-2.0209350250661373138427734375</LongitudeDegrees>
            </Position>
            <AltitudeMeters>23.799999237060546875</AltitudeMeters>
            <DistanceMeters>NAN</DistanceMeters>
          </Trackpoint>
          <Trackpoint>
            <Time>2021-08-12T14:19:48.000Z</Time>
            <Position>
              <LatitudeDegrees>43.300244249403476715087890625</LatitudeDegrees>
              <LongitudeDegrees>-2.02097198925912380218505859375</LongitudeDegrees>
            </Position>
            <AltitudeMeters>24</AltitudeMeters>
            <DistanceMeters>NAN</DistanceMeters>
          </Trackpoint>
          <Trackpoint>
            <Time>2021-08-12T14:19:49.000Z</Time>
            <Position>
              <LatitudeDegrees>43.3002313412725925445556640625</LatitudeDegrees>
              <LongitudeDegrees>-2.0210081152617931365966796875</LongitudeDegrees>
            </Position>
            <AltitudeMeters>24.200000762939453125</AltitudeMeters>
            <DistanceMeters>NAN</DistanceMeters>
          </Trackpoint>
          <Trackpoint>
            <Time>2021-08-12T14:19:50.000Z</Time>
            <Position>
              <LatitudeDegrees>43.3002196066081523895263671875</LatitudeDegrees>
              <LongitudeDegrees>-2.02104558236896991729736328125</LongitudeDegrees>
            </Position>
            <AltitudeMeters>24.3999996185302734375</AltitudeMeters>
            <DistanceMeters>NAN</DistanceMeters>
          </Trackpoint>
          <Trackpoint>
            <Time>2021-08-12T14:19:51.000Z</Time>
            <Position>
              <LatitudeDegrees>43.30020912922918796539306640625</LatitudeDegrees>
              <LongitudeDegrees>-2.02108397148549556732177734375</LongitudeDegrees>
            </Position>
            <AltitudeMeters>24.6000003814697265625</AltitudeMeters>
            <DistanceMeters>NAN</DistanceMeters>
          </Trackpoint>
          <Trackpoint>
            <Time>2021-08-12T14:19:52.000Z</Time>
            <Position>
              <LatitudeDegrees>43.3001969754695892333984375</LatitudeDegrees>
              <LongitudeDegrees>-2.02111934311687946319580078125</LongitudeDegrees>
            </Position>
            <AltitudeMeters>24.799999237060546875</AltitudeMeters>
            <DistanceMeters>NAN</DistanceMeters>
          </Trackpoint>
          <Trackpoint>
            <Time>2021-08-12T14:19:53.000Z</Time>
            <Position>
              <LatitudeDegrees>43.3001874200999736785888671875</LatitudeDegrees>
              <LongitudeDegrees>-2.021156139671802520751953125</LongitudeDegrees>
            </Position>
            <AltitudeMeters>25</AltitudeMeters>
            <DistanceMeters>NAN</DistanceMeters>
          </Trackpoint>
          <Trackpoint>
            <Time>2021-08-12T14:19:54.000Z</Time>
            <Position>
              <LatitudeDegrees>43.30017794854938983917236328125</LatitudeDegrees>
              <LongitudeDegrees>-2.02119268476963043212890625</LongitudeDegrees>
            </Position>
            <AltitudeMeters>25</AltitudeMeters>
            <DistanceMeters>NAN</DistanceMeters>
          </Trackpoint>
          <Trackpoint>
            <Time>2021-08-12T14:19:55.000Z</Time>
            <Position>
              <LatitudeDegrees>43.30016420222818851470947265625</LatitudeDegrees>
              <LongitudeDegrees>-2.02122663147747516632080078125</LongitudeDegrees>
            </Position>
            <AltitudeMeters>25</AltitudeMeters>
            <DistanceMeters>NAN</DistanceMeters>
          </Trackpoint>
          <Trackpoint>
            <Time>2021-08-12T14:19:56.000Z</Time>
            <Position>
              <LatitudeDegrees>43.30014400184154510498046875</LatitudeDegrees>
              <LongitudeDegrees>-2.02125630341470241546630859375</LongitudeDegrees>
            </Position>
            <AltitudeMeters>25</AltitudeMeters>
            <DistanceMeters>NAN</DistanceMeters>
          </Trackpoint>
          <Trackpoint>
            <Time>2021-08-12T14:19:57.000Z</Time>
            <Position>
              <LatitudeDegrees>43.3001186884939670562744140625</LatitudeDegrees>
              <LongitudeDegrees>-2.02127440832555294036865234375</LongitudeDegrees>
            </Position>
            <AltitudeMeters>25.200000762939453125</AltitudeMeters>
            <DistanceMeters>NAN</DistanceMeters>
          </Trackpoint>
          <Trackpoint>
            <Time>2021-08-12T14:19:58.000Z</Time>
            <Position>
              <LatitudeDegrees>43.3000891841948032379150390625</LatitudeDegrees>
              <LongitudeDegrees>-2.02127809636294841766357421875</LongitudeDegrees>
            </Position>
            <AltitudeMeters>25.200000762939453125</AltitudeMeters>
            <DistanceMeters>NAN</DistanceMeters>
          </Trackpoint>
          <Trackpoint>
            <Time>2021-08-12T14:19:59.000Z</Time>
            <Position>
              <LatitudeDegrees>43.30006076954305171966552734375</LatitudeDegrees>
              <LongitudeDegrees>-2.02127004973590373992919921875</LongitudeDegrees>
            </Position>
            <AltitudeMeters>25.200000762939453125</AltitudeMeters>
            <DistanceMeters>NAN</DistanceMeters>
          </Trackpoint>
          <Trackpoint>
            <Time>2021-08-12T14:20:00.000Z</Time>
            <Position>
              <LatitudeDegrees>43.3000358752906322479248046875</LatitudeDegrees>
              <LongitudeDegrees>-2.02125295065343379974365234375</LongitudeDegrees>
            </Position>
            <AltitudeMeters>25.3999996185302734375</AltitudeMeters>
            <DistanceMeters>NAN</DistanceMeters>
          </Trackpoint>
          <Trackpoint>
            <Time>2021-08-12T14:20:01.000Z</Time>
            <Position>
              <LatitudeDegrees>43.30001399852335453033447265625</LatitudeDegrees>
              <LongitudeDegrees>-2.02123635448515415191650390625</LongitudeDegrees>
            </Position>
            <AltitudeMeters>25.3999996185302734375</AltitudeMeters>
            <DistanceMeters>NAN</DistanceMeters>
          </Trackpoint>
          <Trackpoint>
            <Time>2021-08-12T14:20:02.000Z</Time>
            <Position>
              <LatitudeDegrees>43.299993462860584259033203125</LatitudeDegrees>
              <LongitudeDegrees>-2.0212233625352382659912109375</LongitudeDegrees>
            </Position>
            <AltitudeMeters>25.3999996185302734375</AltitudeMeters>
            <DistanceMeters>NAN</DistanceMeters>
          </Trackpoint>
          <Trackpoint>
            <Time>2021-08-12T14:20:03.000Z</Time>
            <Position>
              <LatitudeDegrees>43.29997259192168712615966796875</LatitudeDegrees>
              <LongitudeDegrees>-2.0212136395275592803955078125</LongitudeDegrees>
            </Position>
            <AltitudeMeters>25.3999996185302734375</AltitudeMeters>
            <DistanceMeters>NAN</DistanceMeters>
          </Trackpoint>
          <Trackpoint>
            <Time>2021-08-12T14:20:04.000Z</Time>
            <Position>
              <LatitudeDegrees>43.2999487034976482391357421875</LatitudeDegrees>
              <LongitudeDegrees>-2.02120852656662464141845703125</LongitudeDegrees>
            </Position>
            <AltitudeMeters>25.3999996185302734375</AltitudeMeters>
            <DistanceMeters>NAN</DistanceMeters>
          </Trackpoint>
          <Trackpoint>
            <Time>2021-08-12T14:20:05.000Z</Time>
            <Position>
              <LatitudeDegrees>43.29992330633103847503662109375</LatitudeDegrees>
              <LongitudeDegrees>-2.0212069340050220489501953125</LongitudeDegrees>
            </Position>
            <AltitudeMeters>25.3999996185302734375</AltitudeMeters>
            <DistanceMeters>NAN</DistanceMeters>
          </Trackpoint>
          <Trackpoint>
            <Time>2021-08-12T14:20:06.000Z</Time>
            <Position>
              <LatitudeDegrees>43.2998965680599212646484375</LatitudeDegrees>
              <LongitudeDegrees>-2.02120567671954631805419921875</LongitudeDegrees>
            </Position>
            <AltitudeMeters>25.6000003814697265625</AltitudeMeters>
            <DistanceMeters>NAN</DistanceMeters>
          </Trackpoint>
          <Trackpoint>
            <Time>2021-08-12T14:20:07.000Z</Time>
            <Position>
              <LatitudeDegrees>43.2998712547123432159423828125</LatitudeDegrees>
              <LongitudeDegrees>-2.02120148576796054840087890625</LongitudeDegrees>
            </Position>
            <AltitudeMeters>25.6000003814697265625</AltitudeMeters>
            <DistanceMeters>NAN</DistanceMeters>
          </Trackpoint>
          <Trackpoint>
            <Time>2021-08-12T14:20:08.000Z</Time>
            <Position>
              <LatitudeDegrees>43.2998471148312091827392578125</LatitudeDegrees>
              <LongitudeDegrees>-2.0211972109973430633544921875</LongitudeDegrees>
            </Position>
            <AltitudeMeters>25.6000003814697265625</AltitudeMeters>
            <DistanceMeters>NAN</DistanceMeters>
          </Trackpoint>
          <Trackpoint>
            <Time>2021-08-12T14:20:09.000Z</Time>
            <Position>
              <LatitudeDegrees>43.299827836453914642333984375</LatitudeDegrees>
              <LongitudeDegrees>-2.0211945287883281707763671875</LongitudeDegrees>
            </Position>
            <AltitudeMeters>25.6000003814697265625</AltitudeMeters>
            <DistanceMeters>NAN</DistanceMeters>
          </Trackpoint>
          <Trackpoint>
            <Time>2021-08-12T14:20:10.000Z</Time>
            <Position>
              <LatitudeDegrees>43.29980193637311458587646484375</LatitudeDegrees>
              <LongitudeDegrees>-2.02119268476963043212890625</LongitudeDegrees>
            </Position>
            <AltitudeMeters>25.6000003814697265625</AltitudeMeters>
            <DistanceMeters>NAN</DistanceMeters>
          </Trackpoint>
          <Trackpoint>
            <Time>2021-08-12T14:20:14.000Z</Time>
            <Position>
              <LatitudeDegrees>43.2997187040746212005615234375</LatitudeDegrees>
              <LongitudeDegrees>-2.0211794413626194000244140625</LongitudeDegrees>
            </Position>
            <AltitudeMeters>25.799999237060546875</AltitudeMeters>
            <DistanceMeters>NAN</DistanceMeters>
          </Trackpoint>
          <Trackpoint>
            <Time>2021-08-12T14:20:15.000Z</Time>
            <Position>
              <LatitudeDegrees>43.299702107906341552734375</LatitudeDegrees>
              <LongitudeDegrees>-2.02117600478231906890869140625</LongitudeDegrees>
            </Position>
            <AltitudeMeters>25.799999237060546875</AltitudeMeters>
            <DistanceMeters>NAN</DistanceMeters>
          </Trackpoint>
          <Trackpoint>
            <Time>2021-08-12T14:20:16.000Z</Time>
            <Position>
              <LatitudeDegrees>43.2996878586709499359130859375</LatitudeDegrees>
              <LongitudeDegrees>-2.021169550716876983642578125</LongitudeDegrees>
            </Position>
            <AltitudeMeters>25.799999237060546875</AltitudeMeters>
            <DistanceMeters>NAN</DistanceMeters>
          </Trackpoint>
          <Trackpoint>
            <Time>2021-08-12T14:20:17.000Z</Time>
            <Position>
              <LatitudeDegrees>43.2996712625026702880859375</LatitudeDegrees>
              <LongitudeDegrees>-2.02116225846111774444580078125</LongitudeDegrees>
            </Position>
            <AltitudeMeters>25.799999237060546875</AltitudeMeters>
            <DistanceMeters>NAN</DistanceMeters>
          </Trackpoint>
          <Trackpoint>
            <Time>2021-08-12T14:20:18.000Z</Time>
            <Position>
              <LatitudeDegrees>43.2996496371924877166748046875</LatitudeDegrees>
              <LongitudeDegrees>-2.02115320600569248199462890625</LongitudeDegrees>
            </Position>
            <AltitudeMeters>25.799999237060546875</AltitudeMeters>
            <DistanceMeters>NAN</DistanceMeters>
          </Trackpoint>
          <Trackpoint>
            <Time>2021-08-12T14:20:22.000Z</Time>
            <Position>
              <LatitudeDegrees>43.29954855144023895263671875</LatitudeDegrees>
              <LongitudeDegrees>-2.0211244560778141021728515625</LongitudeDegrees>
            </Position>
            <AltitudeMeters>25.799999237060546875</AltitudeMeters>
            <DistanceMeters>NAN</DistanceMeters>
          </Trackpoint>
          <Trackpoint>
            <Time>2021-08-12T14:20:29.000Z</Time>
            <Position>
              <LatitudeDegrees>43.2993324659764766693115234375</LatitudeDegrees>
              <LongitudeDegrees>-2.02106217853724956512451171875</LongitudeDegrees>
            </Position>
            <AltitudeMeters>26</AltitudeMeters>
            <DistanceMeters>NAN</DistanceMeters>
          </Trackpoint>
          <Trackpoint>
            <Time>2021-08-12T14:20:34.000Z</Time>
            <Position>
              <LatitudeDegrees>43.299194835126399993896484375</LatitudeDegrees>
              <LongitudeDegrees>-2.021000571548938751220703125</LongitudeDegrees>
            </Position>
            <AltitudeMeters>26</AltitudeMeters>
            <DistanceMeters>NAN</DistanceMeters>
          </Trackpoint>
          <Trackpoint>
            <Time>2021-08-12T14:20:35.000Z</Time>
            <Position>
              <LatitudeDegrees>43.29916340298950672149658203125</LatitudeDegrees>
              <LongitudeDegrees>-2.02098472975194454193115234375</LongitudeDegrees>
            </Position>
            <AltitudeMeters>26</AltitudeMeters>
            <DistanceMeters>NAN</DistanceMeters>
          </Trackpoint>
          <Trackpoint>
            <Time>2021-08-12T14:20:36.000Z</Time>
            <Position>
              <LatitudeDegrees>43.29913155175745487213134765625</LatitudeDegrees>
              <LongitudeDegrees>-2.0209715701639652252197265625</LongitudeDegrees>
            </Position>
            <AltitudeMeters>25.799999237060546875</AltitudeMeters>
            <DistanceMeters>NAN</DistanceMeters>
          </Trackpoint>
          <Trackpoint>
            <Time>2021-08-12T14:20:39.000Z</Time>
            <Position>
              <LatitudeDegrees>43.29903616569936275482177734375</LatitudeDegrees>
              <LongitudeDegrees>-2.0209605060517787933349609375</LongitudeDegrees>
            </Position>
            <AltitudeMeters>25.799999237060546875</AltitudeMeters>
            <DistanceMeters>NAN</DistanceMeters>
          </Trackpoint>
          <Trackpoint>
            <Time>2021-08-12T14:20:40.000Z</Time>
            <Position>
              <LatitudeDegrees>43.2990038953721523284912109375</LatitudeDegrees>
              <LongitudeDegrees>-2.02095807529985904693603515625</LongitudeDegrees>
            </Position>
            <AltitudeMeters>25.799999237060546875</AltitudeMeters>
            <DistanceMeters>NAN</DistanceMeters>
          </Trackpoint>
          <Trackpoint>
            <Time>2021-08-12T14:20:42.000Z</Time>
            <Position>
              <LatitudeDegrees>43.29894245602190494537353515625</LatitudeDegrees>
              <LongitudeDegrees>-2.02095036394894123077392578125</LongitudeDegrees>
            </Position>
            <AltitudeMeters>26</AltitudeMeters>
            <DistanceMeters>NAN</DistanceMeters>
          </Trackpoint>
          <Trackpoint>
            <Time>2021-08-12T14:20:48.000Z</Time>
            <Position>
              <LatitudeDegrees>43.29876677133142948150634765625</LatitudeDegrees>
              <LongitudeDegrees>-2.02090627513825893402099609375</LongitudeDegrees>
            </Position>
            <AltitudeMeters>26.200000762939453125</AltitudeMeters>
            <DistanceMeters>NAN</DistanceMeters>
          </Trackpoint>
          <Trackpoint>
            <Time>2021-08-12T14:20:50.000Z</Time>
            <Position>
              <LatitudeDegrees>43.2987095229327678680419921875</LatitudeDegrees>
              <LongitudeDegrees>-2.02087492682039737701416015625</LongitudeDegrees>
            </Position>
            <AltitudeMeters>26.3999996185302734375</AltitudeMeters>
            <DistanceMeters>NAN</DistanceMeters>
          </Trackpoint>
          <Trackpoint>
            <Time>2021-08-12T14:20:52.000Z</Time>
            <Position>
              <LatitudeDegrees>43.298648335039615631103515625</LatitudeDegrees>
              <LongitudeDegrees>-2.02084374614059925079345703125</LongitudeDegrees>
            </Position>
            <AltitudeMeters>26.799999237060546875</AltitudeMeters>
            <DistanceMeters>NAN</DistanceMeters>
          </Trackpoint>
          <Trackpoint>
            <Time>2021-08-12T14:20:53.000Z</Time>
            <Position>
              <LatitudeDegrees>43.29862117767333984375</LatitudeDegrees>
              <LongitudeDegrees>-2.0208280719816684722900390625</LongitudeDegrees>
            </Position>
            <AltitudeMeters>26.799999237060546875</AltitudeMeters>
            <DistanceMeters>NAN</DistanceMeters>
          </Trackpoint>
          <Trackpoint>
            <Time>2021-08-12T14:20:54.000Z</Time>
            <Position>
              <LatitudeDegrees>43.29859360121190547943115234375</LatitudeDegrees>
              <LongitudeDegrees>-2.02081717550754547119140625</LongitudeDegrees>
            </Position>
            <AltitudeMeters>26.799999237060546875</AltitudeMeters>
            <DistanceMeters>NAN</DistanceMeters>
          </Trackpoint>
          <Trackpoint>
            <Time>2021-08-12T14:20:55.000Z</Time>
            <Position>
              <LatitudeDegrees>43.298563845455646514892578125</LatitudeDegrees>
              <LongitudeDegrees>-2.02080535702407360076904296875</LongitudeDegrees>
            </Position>
            <AltitudeMeters>27</AltitudeMeters>
            <DistanceMeters>NAN</DistanceMeters>
          </Trackpoint>
          <Trackpoint>
            <Time>2021-08-12T14:21:00.000Z</Time>
            <Position>
              <LatitudeDegrees>43.298432417213916778564453125</LatitudeDegrees>
              <LongitudeDegrees>-2.02070410363376140594482421875</LongitudeDegrees>
            </Position>
            <AltitudeMeters>27.3999996185302734375</AltitudeMeters>
            <DistanceMeters>NAN</DistanceMeters>
          </Trackpoint>
          <Trackpoint>
            <Time>2021-08-12T14:21:02.000Z</Time>
            <Position>
              <LatitudeDegrees>43.298367373645305633544921875</LatitudeDegrees>
              <LongitudeDegrees>-2.02066353522241115570068359375</LongitudeDegrees>
            </Position>
            <AltitudeMeters>27.3999996185302734375</AltitudeMeters>
            <DistanceMeters>NAN</DistanceMeters>
          </Trackpoint>
          <Trackpoint>
            <Time>2021-08-12T14:21:03.000Z</Time>
            <Position>
              <LatitudeDegrees>43.29833560623228549957275390625</LatitudeDegrees>
              <LongitudeDegrees>-2.0206362940371036529541015625</LongitudeDegrees>
            </Position>
            <AltitudeMeters>27.6000003814697265625</AltitudeMeters>
            <DistanceMeters>NAN</DistanceMeters>
          </Trackpoint>
          <Trackpoint>
            <Time>2021-08-12T14:21:10.000Z</Time>
            <Position>
              <LatitudeDegrees>43.29812974669039249420166015625</LatitudeDegrees>
              <LongitudeDegrees>-2.02042884193360805511474609375</LongitudeDegrees>
            </Position>
            <AltitudeMeters>28.200000762939453125</AltitudeMeters>
            <DistanceMeters>NAN</DistanceMeters>
          </Trackpoint>
          <Trackpoint>
            <Time>2021-08-12T14:21:13.000Z</Time>
            <Position>
              <LatitudeDegrees>43.2980540581047534942626953125</LatitudeDegrees>
              <LongitudeDegrees>-2.02037335373461246490478515625</LongitudeDegrees>
            </Position>
            <AltitudeMeters>28.6000003814697265625</AltitudeMeters>
            <DistanceMeters>NAN</DistanceMeters>
          </Trackpoint>
          <Trackpoint>
            <Time>2021-08-12T14:21:14.000Z</Time>
            <Position>
              <LatitudeDegrees>43.29802463762462139129638671875</LatitudeDegrees>
              <LongitudeDegrees>-2.02035189606249332427978515625</LongitudeDegrees>
            </Position>
            <AltitudeMeters>28.6000003814697265625</AltitudeMeters>
            <DistanceMeters>NAN</DistanceMeters>
          </Trackpoint>
          <Trackpoint>
            <Time>2021-08-12T14:21:15.000Z</Time>
            <Position>
              <LatitudeDegrees>43.2979980669915676116943359375</LatitudeDegrees>
              <LongitudeDegrees>-2.02033840119838714599609375</LongitudeDegrees>
            </Position>
            <AltitudeMeters>28.799999237060546875</AltitudeMeters>
            <DistanceMeters>NAN</DistanceMeters>
          </Trackpoint>
          <Trackpoint>
            <Time>2021-08-12T14:21:16.000Z</Time>
            <Position>
              <LatitudeDegrees>43.2979678921401500701904296875</LatitudeDegrees>
              <LongitudeDegrees>-2.02033060602843761444091796875</LongitudeDegrees>
            </Position>
            <AltitudeMeters>28.799999237060546875</AltitudeMeters>
            <DistanceMeters>NAN</DistanceMeters>
          </Trackpoint>
          <Trackpoint>
            <Time>2021-08-12T14:21:17.000Z</Time>
            <Position>
              <LatitudeDegrees>43.29793780110776424407958984375</LatitudeDegrees>
              <LongitudeDegrees>-2.0203409157693386077880859375</LongitudeDegrees>
            </Position>
            <AltitudeMeters>28.799999237060546875</AltitudeMeters>
            <DistanceMeters>NAN</DistanceMeters>
          </Trackpoint>
          <Trackpoint>
            <Time>2021-08-12T14:21:18.000Z</Time>
            <Position>
              <LatitudeDegrees>43.29790209420025348663330078125</LatitudeDegrees>
              <LongitudeDegrees>-2.0203375630080699920654296875</LongitudeDegrees>
            </Position>
            <AltitudeMeters>28.799999237060546875</AltitudeMeters>
            <DistanceMeters>NAN</DistanceMeters>
          </Trackpoint>
          <Trackpoint>
            <Time>2021-08-12T14:21:19.000Z</Time>
            <Position>
              <LatitudeDegrees>43.2978393137454986572265625</LatitudeDegrees>
              <LongitudeDegrees>-2.0203482918441295623779296875</LongitudeDegrees>
            </Position>
            <AltitudeMeters>28.799999237060546875</AltitudeMeters>
            <DistanceMeters>NAN</DistanceMeters>
          </Trackpoint>
          <Trackpoint>
            <Time>2021-08-12T14:21:24.000Z</Time>
            <Position>
              <LatitudeDegrees>43.297669328749179840087890625</LatitudeDegrees>
              <LongitudeDegrees>-2.020315937697887420654296875</LongitudeDegrees>
            </Position>
            <AltitudeMeters>28.799999237060546875</AltitudeMeters>
            <DistanceMeters>NAN</DistanceMeters>
          </Trackpoint>
          <Trackpoint>
            <Time>2021-08-12T14:21:30.000Z</Time>
            <Position>
              <LatitudeDegrees>43.297403790056705474853515625</LatitudeDegrees>
              <LongitudeDegrees>-2.020281739532947540283203125</LongitudeDegrees>
            </Position>
            <AltitudeMeters>29</AltitudeMeters>
            <DistanceMeters>NAN</DistanceMeters>
          </Trackpoint>
          <Trackpoint>
            <Time>2021-08-12T14:21:37.000Z</Time>
            <Position>
              <LatitudeDegrees>43.29716146923601627349853515625</LatitudeDegrees>
              <LongitudeDegrees>-2.02030311338603496551513671875</LongitudeDegrees>
            </Position>
            <AltitudeMeters>29.200000762939453125</AltitudeMeters>
            <DistanceMeters>NAN</DistanceMeters>
          </Trackpoint>
          <Trackpoint>
            <Time>2021-08-12T14:21:39.000Z</Time>
            <Position>
              <LatitudeDegrees>43.29710933379828929901123046875</LatitudeDegrees>
              <LongitudeDegrees>-2.02033706009387969970703125</LongitudeDegrees>
            </Position>
            <AltitudeMeters>29.200000762939453125</AltitudeMeters>
            <DistanceMeters>NAN</DistanceMeters>
          </Trackpoint>
          <Trackpoint>
            <Time>2021-08-12T14:21:40.000Z</Time>
            <Position>
              <LatitudeDegrees>43.29708536155521869659423828125</LatitudeDegrees>
              <LongitudeDegrees>-2.020373605191707611083984375</LongitudeDegrees>
            </Position>
            <AltitudeMeters>29.6000003814697265625</AltitudeMeters>
            <DistanceMeters>NAN</DistanceMeters>
          </Trackpoint>
          <Trackpoint>
            <Time>2021-08-12T14:21:41.000Z</Time>
            <Position>
              <LatitudeDegrees>43.297061137855052947998046875</LatitudeDegrees>
              <LongitudeDegrees>-2.0204074680805206298828125</LongitudeDegrees>
            </Position>
            <AltitudeMeters>29.799999237060546875</AltitudeMeters>
            <DistanceMeters>NAN</DistanceMeters>
          </Trackpoint>
          <Trackpoint>
            <Time>2021-08-12T14:21:42.000Z</Time>
            <Position>
              <LatitudeDegrees>43.29703892581164836883544921875</LatitudeDegrees>
              <LongitudeDegrees>-2.0204321108758449554443359375</LongitudeDegrees>
            </Position>
            <AltitudeMeters>30.200000762939453125</AltitudeMeters>
            <DistanceMeters>NAN</DistanceMeters>
          </Trackpoint>
          <Trackpoint>
            <Time>2021-08-12T14:21:43.000Z</Time>
            <Position>
              <LatitudeDegrees>43.29699911177158355712890625</LatitudeDegrees>
              <LongitudeDegrees>-2.0204599387943744659423828125</LongitudeDegrees>
            </Position>
            <AltitudeMeters>30.3999996185302734375</AltitudeMeters>
            <DistanceMeters>NAN</DistanceMeters>
          </Trackpoint>
          <Trackpoint>
            <Time>2021-08-12T14:21:44.000Z</Time>
            <Position>
              <LatitudeDegrees>43.29696365632116794586181640625</LatitudeDegrees>
              <LongitudeDegrees>-2.0204921253025531768798828125</LongitudeDegrees>
            </Position>
            <AltitudeMeters>30.6000003814697265625</AltitudeMeters>
            <DistanceMeters>NAN</DistanceMeters>
          </Trackpoint>
          <Trackpoint>
            <Time>2021-08-12T14:21:45.000Z</Time>
            <Position>
              <LatitudeDegrees>43.29694278538227081298828125</LatitudeDegrees>
              <LongitudeDegrees>-2.0205340348184108734130859375</LongitudeDegrees>
            </Position>
            <AltitudeMeters>31</AltitudeMeters>
            <DistanceMeters>NAN</DistanceMeters>
          </Trackpoint>
          <Trackpoint>
            <Time>2021-08-12T14:21:46.000Z</Time>
            <Position>
              <LatitudeDegrees>43.29693180508911609649658203125</LatitudeDegrees>
              <LongitudeDegrees>-2.02056462876498699188232421875</LongitudeDegrees>
            </Position>
            <AltitudeMeters>31.200000762939453125</AltitudeMeters>
            <DistanceMeters>NAN</DistanceMeters>
          </Trackpoint>
          <Trackpoint>
            <Time>2021-08-12T14:21:47.000Z</Time>
            <Position>
              <LatitudeDegrees>43.2969219982624053955078125</LatitudeDegrees>
              <LongitudeDegrees>-2.020607292652130126953125</LongitudeDegrees>
            </Position>
            <AltitudeMeters>31.3999996185302734375</AltitudeMeters>
            <DistanceMeters>NAN</DistanceMeters>
          </Trackpoint>
          <Trackpoint>
            <Time>2021-08-12T14:21:48.000Z</Time>
            <Position>
              <LatitudeDegrees>43.29691386781632900238037109375</LatitudeDegrees>
              <LongitudeDegrees>-2.0206547342240810394287109375</LongitudeDegrees>
            </Position>
            <AltitudeMeters>31.6000003814697265625</AltitudeMeters>
            <DistanceMeters>NAN</DistanceMeters>
          </Trackpoint>
          <Trackpoint>
            <Time>2021-08-12T14:21:49.000Z</Time>
            <Position>
              <LatitudeDegrees>43.29690280370414257049560546875</LatitudeDegrees>
              <LongitudeDegrees>-2.02068507671356201171875</LongitudeDegrees>
            </Position>
            <AltitudeMeters>31.799999237060546875</AltitudeMeters>
            <DistanceMeters>NAN</DistanceMeters>
          </Trackpoint>
          <Trackpoint>
            <Time>2021-08-12T14:21:50.000Z</Time>
            <Position>
              <LatitudeDegrees>43.2968978583812713623046875</LatitudeDegrees>
              <LongitudeDegrees>-2.02073126100003719329833984375</LongitudeDegrees>
            </Position>
            <AltitudeMeters>32</AltitudeMeters>
            <DistanceMeters>NAN</DistanceMeters>
          </Trackpoint>
          <Trackpoint>
            <Time>2021-08-12T14:21:51.000Z</Time>
            <Position>
              <LatitudeDegrees>43.29688780009746551513671875</LatitudeDegrees>
              <LongitudeDegrees>-2.02077752910554409027099609375</LongitudeDegrees>
            </Position>
            <AltitudeMeters>32.200000762939453125</AltitudeMeters>
            <DistanceMeters>NAN</DistanceMeters>
          </Trackpoint>
          <Trackpoint>
            <Time>2021-08-12T14:21:52.000Z</Time>
            <Position>
              <LatitudeDegrees>43.29687170684337615966796875</LatitudeDegrees>
              <LongitudeDegrees>-2.02082245610654354095458984375</LongitudeDegrees>
            </Position>
            <AltitudeMeters>32.200000762939453125</AltitudeMeters>
            <DistanceMeters>NAN</DistanceMeters>
          </Trackpoint>
          <Trackpoint>
            <Time>2021-08-12T14:21:53.000Z</Time>
            <Position>
              <LatitudeDegrees>43.29684756696224212646484375</LatitudeDegrees>
              <LongitudeDegrees>-2.02087274752557277679443359375</LongitudeDegrees>
            </Position>
            <AltitudeMeters>32.40000152587890625</AltitudeMeters>
            <DistanceMeters>NAN</DistanceMeters>
          </Trackpoint>
          <Trackpoint>
            <Time>2021-08-12T14:21:54.000Z</Time>
            <Position>
              <LatitudeDegrees>43.29682166688144207000732421875</LatitudeDegrees>
              <LongitudeDegrees>-2.02093125320971012115478515625</LongitudeDegrees>
            </Position>
            <AltitudeMeters>32.40000152587890625</AltitudeMeters>
            <DistanceMeters>NAN</DistanceMeters>
          </Trackpoint>
          <Trackpoint>
            <Time>2021-08-12T14:21:55.000Z</Time>
            <Position>
              <LatitudeDegrees>43.29677271656692028045654296875</LatitudeDegrees>
              <LongitudeDegrees>-2.020989842712879180908203125</LongitudeDegrees>
            </Position>
            <AltitudeMeters>32.40000152587890625</AltitudeMeters>
            <DistanceMeters>NAN</DistanceMeters>
          </Trackpoint>
          <Trackpoint>
            <Time>2021-08-12T14:21:56.000Z</Time>
            <Position>
              <LatitudeDegrees>43.29675109125673770904541015625</LatitudeDegrees>
              <LongitudeDegrees>-2.0210346020758152008056640625</LongitudeDegrees>
            </Position>
            <AltitudeMeters>32.40000152587890625</AltitudeMeters>
            <DistanceMeters>NAN</DistanceMeters>
          </Trackpoint>
          <Trackpoint>
            <Time>2021-08-12T14:21:57.000Z</Time>
            <Position>
              <LatitudeDegrees>43.29672276042401790618896484375</LatitudeDegrees>
              <LongitudeDegrees>-2.0210620947182178497314453125</LongitudeDegrees>
            </Position>
            <AltitudeMeters>32.40000152587890625</AltitudeMeters>
            <DistanceMeters>NAN</DistanceMeters>
          </Trackpoint>
          <Trackpoint>
            <Time>2021-08-12T14:21:58.000Z</Time>
            <Position>
              <LatitudeDegrees>43.29668722115457057952880859375</LatitudeDegrees>
              <LongitudeDegrees>-2.0210922695696353912353515625</LongitudeDegrees>
            </Position>
            <AltitudeMeters>32.200000762939453125</AltitudeMeters>
            <DistanceMeters>NAN</DistanceMeters>
          </Trackpoint>
          <Trackpoint>
            <Time>2021-08-12T14:21:59.000Z</Time>
            <Position>
              <LatitudeDegrees>43.29664765857160091400146484375</LatitudeDegrees>
              <LongitudeDegrees>-2.021117247641086578369140625</LongitudeDegrees>
            </Position>
            <AltitudeMeters>31.799999237060546875</AltitudeMeters>
            <DistanceMeters>NAN</DistanceMeters>
          </Trackpoint>
          <Trackpoint>
            <Time>2021-08-12T14:22:00.000Z</Time>
            <Position>
              <LatitudeDegrees>43.2966016419231891632080078125</LatitudeDegrees>
              <LongitudeDegrees>-2.02113074250519275665283203125</LongitudeDegrees>
            </Position>
            <AltitudeMeters>31.799999237060546875</AltitudeMeters>
            <DistanceMeters>NAN</DistanceMeters>
          </Trackpoint>
          <Trackpoint>
            <Time>2021-08-12T14:22:01.000Z</Time>
            <Position>
              <LatitudeDegrees>43.29656031914055347442626953125</LatitudeDegrees>
              <LongitudeDegrees>-2.02113225124776363372802734375</LongitudeDegrees>
            </Position>
            <AltitudeMeters>31.6000003814697265625</AltitudeMeters>
            <DistanceMeters>NAN</DistanceMeters>
          </Trackpoint>
          <Trackpoint>
            <Time>2021-08-12T14:22:02.000Z</Time>
            <Position>
              <LatitudeDegrees>43.29652360640466213226318359375</LatitudeDegrees>
              <LongitudeDegrees>-2.02112537808716297149658203125</LongitudeDegrees>
            </Position>
            <AltitudeMeters>31.6000003814697265625</AltitudeMeters>
            <DistanceMeters>NAN</DistanceMeters>
          </Trackpoint>
          <Trackpoint>
            <Time>2021-08-12T14:22:03.000Z</Time>
            <Position>
              <LatitudeDegrees>43.29649141989648342132568359375</LatitudeDegrees>
              <LongitudeDegrees>-2.02111397869884967803955078125</LongitudeDegrees>
            </Position>
            <AltitudeMeters>31.3999996185302734375</AltitudeMeters>
            <DistanceMeters>NAN</DistanceMeters>
          </Trackpoint>
          <Trackpoint>
            <Time>2021-08-12T14:22:04.000Z</Time>
            <Position>
              <LatitudeDegrees>43.29646493308246135711669921875</LatitudeDegrees>
              <LongitudeDegrees>-2.02110417187213897705078125</LongitudeDegrees>
            </Position>
            <AltitudeMeters>31.6000003814697265625</AltitudeMeters>
            <DistanceMeters>NAN</DistanceMeters>
          </Trackpoint>
          <Trackpoint>
            <Time>2021-08-12T14:22:05.000Z</Time>
            <Position>
              <LatitudeDegrees>43.29643961973488330841064453125</LatitudeDegrees>
              <LongitudeDegrees>-2.02108983881771564483642578125</LongitudeDegrees>
            </Position>
            <AltitudeMeters>31.3999996185302734375</AltitudeMeters>
            <DistanceMeters>NAN</DistanceMeters>
          </Trackpoint>
          <Trackpoint>
            <Time>2021-08-12T14:22:06.000Z</Time>
            <Position>
              <LatitudeDegrees>43.29641439020633697509765625</LatitudeDegrees>
              <LongitudeDegrees>-2.02106016688048839569091796875</LongitudeDegrees>
            </Position>
            <AltitudeMeters>31.6000003814697265625</AltitudeMeters>
            <DistanceMeters>NAN</DistanceMeters>
          </Trackpoint>
          <Trackpoint>
            <Time>2021-08-12T14:22:07.000Z</Time>
            <Position>
              <LatitudeDegrees>43.2963882386684417724609375</LatitudeDegrees>
              <LongitudeDegrees>-2.02103954739868640899658203125</LongitudeDegrees>
            </Position>
            <AltitudeMeters>31.6000003814697265625</AltitudeMeters>
            <DistanceMeters>NAN</DistanceMeters>
          </Trackpoint>
          <Trackpoint>
            <Time>2021-08-12T14:22:09.000Z</Time>
            <Position>
              <LatitudeDegrees>43.296336270868778228759765625</LatitudeDegrees>
              <LongitudeDegrees>-2.02100761234760284423828125</LongitudeDegrees>
            </Position>
            <AltitudeMeters>31.799999237060546875</AltitudeMeters>
            <DistanceMeters>NAN</DistanceMeters>
          </Trackpoint>
          <Trackpoint>
            <Time>2021-08-12T14:22:10.000Z</Time>
            <Position>
              <LatitudeDegrees>43.29631238244473934173583984375</LatitudeDegrees>
              <LongitudeDegrees>-2.0209920220077037811279296875</LongitudeDegrees>
            </Position>
            <AltitudeMeters>32</AltitudeMeters>
            <DistanceMeters>NAN</DistanceMeters>
          </Trackpoint>
          <Trackpoint>
            <Time>2021-08-12T14:22:11.000Z</Time>
            <Position>
              <LatitudeDegrees>43.2962889969348907470703125</LatitudeDegrees>
              <LongitudeDegrees>-2.0209769345819950103759765625</LongitudeDegrees>
            </Position>
            <AltitudeMeters>32.40000152587890625</AltitudeMeters>
            <DistanceMeters>NAN</DistanceMeters>
          </Trackpoint>
          <Trackpoint>
            <Time>2021-08-12T14:22:12.000Z</Time>
            <Position>
              <LatitudeDegrees>43.2962636835873126983642578125</LatitudeDegrees>
              <LongitudeDegrees>-2.0209648646414279937744140625</LongitudeDegrees>
            </Position>
            <AltitudeMeters>32.59999847412109375</AltitudeMeters>
            <DistanceMeters>NAN</DistanceMeters>
          </Trackpoint>
          <Trackpoint>
            <Time>2021-08-12T14:22:13.000Z</Time>
            <Position>
              <LatitudeDegrees>43.2962351851165294647216796875</LatitudeDegrees>
              <LongitudeDegrees>-2.02095321379601955413818359375</LongitudeDegrees>
            </Position>
            <AltitudeMeters>32.59999847412109375</AltitudeMeters>
            <DistanceMeters>NAN</DistanceMeters>
          </Trackpoint>
          <Trackpoint>
            <Time>2021-08-12T14:22:14.000Z</Time>
            <Position>
              <LatitudeDegrees>43.2962086983025074005126953125</LatitudeDegrees>
              <LongitudeDegrees>-2.02094189822673797607421875</LongitudeDegrees>
            </Position>
            <AltitudeMeters>32.799999237060546875</AltitudeMeters>
            <DistanceMeters>NAN</DistanceMeters>
          </Trackpoint>
          <Trackpoint>
            <Time>2021-08-12T14:22:15.000Z</Time>
            <Position>
              <LatitudeDegrees>43.29618413932621479034423828125</LatitudeDegrees>
              <LongitudeDegrees>-2.02093007974326610565185546875</LongitudeDegrees>
            </Position>
            <AltitudeMeters>33</AltitudeMeters>
            <DistanceMeters>NAN</DistanceMeters>
          </Trackpoint>
          <Trackpoint>
            <Time>2021-08-12T14:22:16.000Z</Time>
            <Position>
              <LatitudeDegrees>43.2961587421596050262451171875</LatitudeDegrees>
              <LongitudeDegrees>-2.02092119492590427398681640625</LongitudeDegrees>
            </Position>
            <AltitudeMeters>33.200000762939453125</AltitudeMeters>
            <DistanceMeters>NAN</DistanceMeters>
          </Trackpoint>
          <Trackpoint>
            <Time>2021-08-12T14:22:17.000Z</Time>
            <Position>
              <LatitudeDegrees>43.296137116849422454833984375</LatitudeDegrees>
              <LongitudeDegrees>-2.0209155790507793426513671875</LongitudeDegrees>
            </Position>
            <AltitudeMeters>33.59999847412109375</AltitudeMeters>
            <DistanceMeters>NAN</DistanceMeters>
          </Trackpoint>
          <Trackpoint>
            <Time>2021-08-12T14:22:18.000Z</Time>
            <Position>
              <LatitudeDegrees>43.29611339606344699859619140625</LatitudeDegrees>
              <LongitudeDegrees>-2.02091029845178127288818359375</LongitudeDegrees>
            </Position>
            <AltitudeMeters>34</AltitudeMeters>
            <DistanceMeters>NAN</DistanceMeters>
          </Trackpoint>
          <Trackpoint>
            <Time>2021-08-12T14:22:19.000Z</Time>
            <Position>
              <LatitudeDegrees>43.29609076492488384246826171875</LatitudeDegrees>
              <LongitudeDegrees>-2.02090577222406864166259765625</LongitudeDegrees>
            </Position>
            <AltitudeMeters>34.200000762939453125</AltitudeMeters>
            <DistanceMeters>NAN</DistanceMeters>
          </Trackpoint>
          <Trackpoint>
            <Time>2021-08-12T14:22:20.000Z</Time>
            <Position>
              <LatitudeDegrees>43.29606645740568637847900390625</LatitudeDegrees>
              <LongitudeDegrees>-2.02090225182473659515380859375</LongitudeDegrees>
            </Position>
            <AltitudeMeters>34.59999847412109375</AltitudeMeters>
            <DistanceMeters>NAN</DistanceMeters>
          </Trackpoint>
          <Trackpoint>
            <Time>2021-08-12T14:22:21.000Z</Time>
            <Position>
              <LatitudeDegrees>43.296040557324886322021484375</LatitudeDegrees>
              <LongitudeDegrees>-2.02090141363441944122314453125</LongitudeDegrees>
            </Position>
            <AltitudeMeters>34.799999237060546875</AltitudeMeters>
            <DistanceMeters>NAN</DistanceMeters>
          </Trackpoint>
          <Trackpoint>
            <Time>2021-08-12T14:22:22.000Z</Time>
            <Position>
              <LatitudeDegrees>43.29601817764341831207275390625</LatitudeDegrees>
              <LongitudeDegrees>-2.02089889906346797943115234375</LongitudeDegrees>
            </Position>
            <AltitudeMeters>35</AltitudeMeters>
            <DistanceMeters>NAN</DistanceMeters>
          </Trackpoint>
          <Trackpoint>
            <Time>2021-08-12T14:22:23.000Z</Time>
            <Position>
              <LatitudeDegrees>43.29599487595260143280029296875</LatitudeDegrees>
              <LongitudeDegrees>-2.02089973725378513336181640625</LongitudeDegrees>
            </Position>
            <AltitudeMeters>35.40000152587890625</AltitudeMeters>
            <DistanceMeters>NAN</DistanceMeters>
          </Trackpoint>
          <Trackpoint>
            <Time>2021-08-12T14:22:24.000Z</Time>
            <Position>
              <LatitudeDegrees>43.2959719933569431304931640625</LatitudeDegrees>
              <LongitudeDegrees>-2.02090526930987834930419921875</LongitudeDegrees>
            </Position>
            <AltitudeMeters>35.59999847412109375</AltitudeMeters>
            <DistanceMeters>NAN</DistanceMeters>
          </Trackpoint>
          <Trackpoint>
            <Time>2021-08-12T14:22:25.000Z</Time>
            <Position>
              <LatitudeDegrees>43.29594693146646022796630859375</LatitudeDegrees>
              <LongitudeDegrees>-2.02091197483241558074951171875</LongitudeDegrees>
            </Position>
            <AltitudeMeters>35.799999237060546875</AltitudeMeters>
            <DistanceMeters>NAN</DistanceMeters>
          </Trackpoint>
          <Trackpoint>
            <Time>2021-08-12T14:22:26.000Z</Time>
            <Position>
              <LatitudeDegrees>43.2959243841469287872314453125</LatitudeDegrees>
              <LongitudeDegrees>-2.020919434726238250732421875</LongitudeDegrees>
            </Position>
            <AltitudeMeters>36</AltitudeMeters>
            <DistanceMeters>NAN</DistanceMeters>
          </Trackpoint>
          <Trackpoint>
            <Time>2021-08-12T14:22:27.000Z</Time>
            <Position>
              <LatitudeDegrees>43.29590016044676303863525390625</LatitudeDegrees>
              <LongitudeDegrees>-2.02092982828617095947265625</LongitudeDegrees>
            </Position>
            <AltitudeMeters>36.200000762939453125</AltitudeMeters>
            <DistanceMeters>NAN</DistanceMeters>
          </Trackpoint>
          <Trackpoint>
            <Time>2021-08-12T14:22:28.000Z</Time>
            <Position>
              <LatitudeDegrees>43.29587434418499469757080078125</LatitudeDegrees>
              <LongitudeDegrees>-2.0209412276744842529296875</LongitudeDegrees>
            </Position>
            <AltitudeMeters>36.40000152587890625</AltitudeMeters>
            <DistanceMeters>NAN</DistanceMeters>
          </Trackpoint>
          <Trackpoint>
            <Time>2021-08-12T14:22:29.000Z</Time>
            <Position>
              <LatitudeDegrees>43.29584836028516292572021484375</LatitudeDegrees>
              <LongitudeDegrees>-2.02095438726246356964111328125</LongitudeDegrees>
            </Position>
            <AltitudeMeters>36.59999847412109375</AltitudeMeters>
            <DistanceMeters>NAN</DistanceMeters>
          </Trackpoint>
          <Trackpoint>
            <Time>2021-08-12T14:22:30.000Z</Time>
            <Position>
              <LatitudeDegrees>43.29582556150853633880615234375</LatitudeDegrees>
              <LongitudeDegrees>-2.0209812931716442108154296875</LongitudeDegrees>
            </Position>
            <AltitudeMeters>37</AltitudeMeters>
            <DistanceMeters>NAN</DistanceMeters>
          </Trackpoint>
          <Trackpoint>
            <Time>2021-08-12T14:22:31.000Z</Time>
            <Position>
              <LatitudeDegrees>43.295802511274814605712890625</LatitudeDegrees>
              <LongitudeDegrees>-2.0210097916424274444580078125</LongitudeDegrees>
            </Position>
            <AltitudeMeters>37</AltitudeMeters>
            <DistanceMeters>NAN</DistanceMeters>
          </Trackpoint>
          <Trackpoint>
            <Time>2021-08-12T14:22:32.000Z</Time>
            <Position>
              <LatitudeDegrees>43.29577627591788768768310546875</LatitudeDegrees>
              <LongitudeDegrees>-2.0210369490087032318115234375</LongitudeDegrees>
            </Position>
            <AltitudeMeters>37.200000762939453125</AltitudeMeters>
            <DistanceMeters>NAN</DistanceMeters>
          </Trackpoint>
          <Trackpoint>
            <Time>2021-08-12T14:22:33.000Z</Time>
            <Position>
              <LatitudeDegrees>43.295750208199024200439453125</LatitudeDegrees>
              <LongitudeDegrees>-2.02106796205043792724609375</LongitudeDegrees>
            </Position>
            <AltitudeMeters>37.200000762939453125</AltitudeMeters>
            <DistanceMeters>NAN</DistanceMeters>
          </Trackpoint>
          <Trackpoint>
            <Time>2021-08-12T14:22:34.000Z</Time>
            <Position>
              <LatitudeDegrees>43.29572506248950958251953125</LatitudeDegrees>
              <LongitudeDegrees>-2.021101824939250946044921875</LongitudeDegrees>
            </Position>
            <AltitudeMeters>37.40000152587890625</AltitudeMeters>
            <DistanceMeters>NAN</DistanceMeters>
          </Trackpoint>
          <Trackpoint>
            <Time>2021-08-12T14:22:35.000Z</Time>
            <Position>
              <LatitudeDegrees>43.2957020960748195648193359375</LatitudeDegrees>
              <LongitudeDegrees>-2.02113124541938304901123046875</LongitudeDegrees>
            </Position>
            <AltitudeMeters>37.40000152587890625</AltitudeMeters>
            <DistanceMeters>NAN</DistanceMeters>
          </Trackpoint>
          <Trackpoint>
            <Time>2021-08-12T14:22:36.000Z</Time>
            <Position>
              <LatitudeDegrees>43.29568021930754184722900390625</LatitudeDegrees>
              <LongitudeDegrees>-2.02115915715694427490234375</LongitudeDegrees>
            </Position>
            <AltitudeMeters>37.40000152587890625</AltitudeMeters>
            <DistanceMeters>NAN</DistanceMeters>
          </Trackpoint>
          <Trackpoint>
            <Time>2021-08-12T14:22:37.000Z</Time>
            <Position>
              <LatitudeDegrees>43.29566161148250102996826171875</LatitudeDegrees>
              <LongitudeDegrees>-2.0211807824671268463134765625</LongitudeDegrees>
            </Position>
            <AltitudeMeters>37.40000152587890625</AltitudeMeters>
            <DistanceMeters>NAN</DistanceMeters>
          </Trackpoint>
          <Trackpoint>
            <Time>2021-08-12T14:22:38.000Z</Time>
            <Position>
              <LatitudeDegrees>43.29564115963876247406005859375</LatitudeDegrees>
              <LongitudeDegrees>-2.02120165340602397918701171875</LongitudeDegrees>
            </Position>
            <AltitudeMeters>37.40000152587890625</AltitudeMeters>
            <DistanceMeters>NAN</DistanceMeters>
          </Trackpoint>
          <Trackpoint>
            <Time>2021-08-12T14:22:39.000Z</Time>
            <Position>
              <LatitudeDegrees>43.29561467282474040985107421875</LatitudeDegrees>
              <LongitudeDegrees>-2.02123023569583892822265625</LongitudeDegrees>
            </Position>
            <AltitudeMeters>37.40000152587890625</AltitudeMeters>
            <DistanceMeters>NAN</DistanceMeters>
          </Trackpoint>
          <Trackpoint>
            <Time>2021-08-12T14:22:40.000Z</Time>
            <Position>
              <LatitudeDegrees>43.29559204168617725372314453125</LatitudeDegrees>
              <LongitudeDegrees>-2.0212585665285587310791015625</LongitudeDegrees>
            </Position>
            <AltitudeMeters>37.59999847412109375</AltitudeMeters>
            <DistanceMeters>NAN</DistanceMeters>
          </Trackpoint>
          <Trackpoint>
            <Time>2021-08-12T14:22:41.000Z</Time>
            <Position>
              <LatitudeDegrees>43.29556924290955066680908203125</LatitudeDegrees>
              <LongitudeDegrees>-2.021282874047756195068359375</LongitudeDegrees>
            </Position>
            <AltitudeMeters>37.59999847412109375</AltitudeMeters>
            <DistanceMeters>NAN</DistanceMeters>
          </Trackpoint>
          <Trackpoint>
            <Time>2021-08-12T14:22:42.000Z</Time>
            <Position>
              <LatitudeDegrees>43.295543007552623748779296875</LatitudeDegrees>
              <LongitudeDegrees>-2.02130667865276336669921875</LongitudeDegrees>
            </Position>
            <AltitudeMeters>37.59999847412109375</AltitudeMeters>
            <DistanceMeters>NAN</DistanceMeters>
          </Trackpoint>
          <Trackpoint>
            <Time>2021-08-12T14:22:43.000Z</Time>
            <Position>
              <LatitudeDegrees>43.2955192029476165771484375</LatitudeDegrees>
              <LongitudeDegrees>-2.02134020626544952392578125</LongitudeDegrees>
            </Position>
            <AltitudeMeters>37.59999847412109375</AltitudeMeters>
            <DistanceMeters>NAN</DistanceMeters>
          </Trackpoint>
          <Trackpoint>
            <Time>2021-08-12T14:22:44.000Z</Time>
            <Position>
              <LatitudeDegrees>43.29549573361873626708984375</LatitudeDegrees>
              <LongitudeDegrees>-2.02138018794357776641845703125</LongitudeDegrees>
            </Position>
            <AltitudeMeters>37.59999847412109375</AltitudeMeters>
            <DistanceMeters>NAN</DistanceMeters>
          </Trackpoint>
          <Trackpoint>
            <Time>2021-08-12T14:22:45.000Z</Time>
            <Position>
              <LatitudeDegrees>43.2954640500247478485107421875</LatitudeDegrees>
              <LongitudeDegrees>-2.0214262045919895172119140625</LongitudeDegrees>
            </Position>
            <AltitudeMeters>37.59999847412109375</AltitudeMeters>
            <DistanceMeters>NAN</DistanceMeters>
          </Trackpoint>
          <Trackpoint>
            <Time>2021-08-12T14:22:46.000Z</Time>
            <Position>
              <LatitudeDegrees>43.29543546773493289947509765625</LatitudeDegrees>
              <LongitudeDegrees>-2.02147406525909900665283203125</LongitudeDegrees>
            </Position>
            <AltitudeMeters>37.59999847412109375</AltitudeMeters>
            <DistanceMeters>NAN</DistanceMeters>
          </Trackpoint>
          <Trackpoint>
            <Time>2021-08-12T14:22:47.000Z</Time>
            <Position>
              <LatitudeDegrees>43.29542440362274646759033203125</LatitudeDegrees>
              <LongitudeDegrees>-2.021524608135223388671875</LongitudeDegrees>
            </Position>
            <AltitudeMeters>37.59999847412109375</AltitudeMeters>
            <DistanceMeters>NAN</DistanceMeters>
          </Trackpoint>
          <Trackpoint>
            <Time>2021-08-12T14:22:48.000Z</Time>
            <Position>
              <LatitudeDegrees>43.29542105086147785186767578125</LatitudeDegrees>
              <LongitudeDegrees>-2.02158026397228240966796875</LongitudeDegrees>
            </Position>
            <AltitudeMeters>37.59999847412109375</AltitudeMeters>
            <DistanceMeters>NAN</DistanceMeters>
          </Trackpoint>
          <Trackpoint>
            <Time>2021-08-12T14:22:49.000Z</Time>
            <Position>
              <LatitudeDegrees>43.29542289488017559051513671875</LatitudeDegrees>
              <LongitudeDegrees>-2.02163994312286376953125</LongitudeDegrees>
            </Position>
            <AltitudeMeters>37.59999847412109375</AltitudeMeters>
            <DistanceMeters>NAN</DistanceMeters>
          </Trackpoint>
          <Trackpoint>
            <Time>2021-08-12T14:22:50.000Z</Time>
            <Position>
              <LatitudeDegrees>43.29543496482074260711669921875</LatitudeDegrees>
              <LongitudeDegrees>-2.02170364558696746826171875</LongitudeDegrees>
            </Position>
            <AltitudeMeters>37.59999847412109375</AltitudeMeters>
            <DistanceMeters>NAN</DistanceMeters>
          </Trackpoint>
          <Trackpoint>
            <Time>2021-08-12T14:22:51.000Z</Time>
            <Position>
              <LatitudeDegrees>43.295448459684848785400390625</LatitudeDegrees>
              <LongitudeDegrees>-2.021761648356914520263671875</LongitudeDegrees>
            </Position>
            <AltitudeMeters>37.59999847412109375</AltitudeMeters>
            <DistanceMeters>NAN</DistanceMeters>
          </Trackpoint>
          <Trackpoint>
            <Time>2021-08-12T14:22:52.000Z</Time>
            <Position>
              <LatitudeDegrees>43.29546296037733554840087890625</LatitudeDegrees>
              <LongitudeDegrees>-2.021820656955242156982421875</LongitudeDegrees>
            </Position>
            <AltitudeMeters>37.59999847412109375</AltitudeMeters>
            <DistanceMeters>NAN</DistanceMeters>
          </Trackpoint>
          <Trackpoint>
            <Time>2021-08-12T14:22:54.000Z</Time>
            <Position>
              <LatitudeDegrees>43.295497409999370574951171875</LatitudeDegrees>
              <LongitudeDegrees>-2.02194982208311557769775390625</LongitudeDegrees>
            </Position>
            <AltitudeMeters>37.40000152587890625</AltitudeMeters>
            <DistanceMeters>NAN</DistanceMeters>
          </Trackpoint>
          <Trackpoint>
            <Time>2021-08-12T14:22:55.000Z</Time>
            <Position>
              <LatitudeDegrees>43.29550822265446186065673828125</LatitudeDegrees>
              <LongitudeDegrees>-2.0220156200230121612548828125</LongitudeDegrees>
            </Position>
            <AltitudeMeters>37.200000762939453125</AltitudeMeters>
            <DistanceMeters>NAN</DistanceMeters>
          </Trackpoint>
          <Trackpoint>
            <Time>2021-08-12T14:22:59.000Z</Time>
            <Position>
              <LatitudeDegrees>43.29550185240805149078369140625</LatitudeDegrees>
              <LongitudeDegrees>-2.02228727750480175018310546875</LongitudeDegrees>
            </Position>
            <AltitudeMeters>36.59999847412109375</AltitudeMeters>
            <DistanceMeters>NAN</DistanceMeters>
          </Trackpoint>
          <Trackpoint>
            <Time>2021-08-12T14:23:00.000Z</Time>
            <Position>
              <LatitudeDegrees>43.2954985834658145904541015625</LatitudeDegrees>
              <LongitudeDegrees>-2.0223498903214931488037109375</LongitudeDegrees>
            </Position>
            <AltitudeMeters>36.59999847412109375</AltitudeMeters>
            <DistanceMeters>NAN</DistanceMeters>
          </Trackpoint>
          <Trackpoint>
            <Time>2021-08-12T14:23:03.000Z</Time>
            <Position>
              <LatitudeDegrees>43.29547486267983913421630859375</LatitudeDegrees>
              <LongitudeDegrees>-2.0225290954113006591796875</LongitudeDegrees>
            </Position>
            <AltitudeMeters>36.200000762939453125</AltitudeMeters>
            <DistanceMeters>NAN</DistanceMeters>
          </Trackpoint>
          <Trackpoint>
            <Time>2021-08-12T14:23:05.000Z</Time>
            <Position>
              <LatitudeDegrees>43.29544234089553356170654296875</LatitudeDegrees>
              <LongitudeDegrees>-2.0226392336189746856689453125</LongitudeDegrees>
            </Position>
            <AltitudeMeters>36.200000762939453125</AltitudeMeters>
            <DistanceMeters>NAN</DistanceMeters>
          </Trackpoint>
          <Trackpoint>
            <Time>2021-08-12T14:23:06.000Z</Time>
            <Position>
              <LatitudeDegrees>43.29542306251823902130126953125</LatitudeDegrees>
              <LongitudeDegrees>-2.0226908661425113677978515625</LongitudeDegrees>
            </Position>
            <AltitudeMeters>36.200000762939453125</AltitudeMeters>
            <DistanceMeters>NAN</DistanceMeters>
          </Trackpoint>
          <Trackpoint>
            <Time>2021-08-12T14:23:07.000Z</Time>
            <Position>
              <LatitudeDegrees>43.295400179922580718994140625</LatitudeDegrees>
              <LongitudeDegrees>-2.0227398164570331573486328125</LongitudeDegrees>
            </Position>
            <AltitudeMeters>35.799999237060546875</AltitudeMeters>
            <DistanceMeters>NAN</DistanceMeters>
          </Trackpoint>
          <Trackpoint>
            <Time>2021-08-12T14:23:08.000Z</Time>
            <Position>
              <LatitudeDegrees>43.2953758724033832550048828125</LatitudeDegrees>
              <LongitudeDegrees>-2.022786922752857208251953125</LongitudeDegrees>
            </Position>
            <AltitudeMeters>36</AltitudeMeters>
            <DistanceMeters>NAN</DistanceMeters>
          </Trackpoint>
          <Trackpoint>
            <Time>2021-08-12T14:23:09.000Z</Time>
            <Position>
              <LatitudeDegrees>43.29534821212291717529296875</LatitudeDegrees>
              <LongitudeDegrees>-2.0228321850299835205078125</LongitudeDegrees>
            </Position>
            <AltitudeMeters>36</AltitudeMeters>
            <DistanceMeters>NAN</DistanceMeters>
          </Trackpoint>
          <Trackpoint>
            <Time>2021-08-12T14:23:10.000Z</Time>
            <Position>
              <LatitudeDegrees>43.29532139003276824951171875</LatitudeDegrees>
              <LongitudeDegrees>-2.022872082889080047607421875</LongitudeDegrees>
            </Position>
            <AltitudeMeters>35.59999847412109375</AltitudeMeters>
            <DistanceMeters>NAN</DistanceMeters>
          </Trackpoint>
          <Trackpoint>
            <Time>2021-08-12T14:23:11.000Z</Time>
            <Position>
              <LatitudeDegrees>43.29529398120939731597900390625</LatitudeDegrees>
              <LongitudeDegrees>-2.02291038818657398223876953125</LongitudeDegrees>
            </Position>
            <AltitudeMeters>35.59999847412109375</AltitudeMeters>
            <DistanceMeters>NAN</DistanceMeters>
          </Trackpoint>
          <Trackpoint>
            <Time>2021-08-12T14:23:12.000Z</Time>
            <Position>
              <LatitudeDegrees>43.29526615329086780548095703125</LatitudeDegrees>
              <LongitudeDegrees>-2.02294961549341678619384765625</LongitudeDegrees>
            </Position>
            <AltitudeMeters>35.40000152587890625</AltitudeMeters>
            <DistanceMeters>NAN</DistanceMeters>
          </Trackpoint>
          <Trackpoint>
            <Time>2021-08-12T14:23:13.000Z</Time>
            <Position>
              <LatitudeDegrees>43.295241929590702056884765625</LatitudeDegrees>
              <LongitudeDegrees>-2.02298532240092754364013671875</LongitudeDegrees>
            </Position>
            <AltitudeMeters>35.40000152587890625</AltitudeMeters>
            <DistanceMeters>NAN</DistanceMeters>
          </Trackpoint>
          <Trackpoint>
            <Time>2021-08-12T14:23:14.000Z</Time>
            <Position>
              <LatitudeDegrees>43.2952166162431240081787109375</LatitudeDegrees>
              <LongitudeDegrees>-2.0230231247842311859130859375</LongitudeDegrees>
            </Position>
            <AltitudeMeters>35.40000152587890625</AltitudeMeters>
            <DistanceMeters>NAN</DistanceMeters>
          </Trackpoint>
          <Trackpoint>
            <Time>2021-08-12T14:23:16.000Z</Time>
            <Position>
              <LatitudeDegrees>43.2951623015105724334716796875</LatitudeDegrees>
              <LongitudeDegrees>-2.02310769818723201751708984375</LongitudeDegrees>
            </Position>
            <AltitudeMeters>35.40000152587890625</AltitudeMeters>
            <DistanceMeters>NAN</DistanceMeters>
          </Trackpoint>
          <Trackpoint>
            <Time>2021-08-12T14:23:18.000Z</Time>
            <Position>
              <LatitudeDegrees>43.29510404728353023529052734375</LatitudeDegrees>
              <LongitudeDegrees>-2.02318313531577587127685546875</LongitudeDegrees>
            </Position>
            <AltitudeMeters>35.40000152587890625</AltitudeMeters>
            <DistanceMeters>NAN</DistanceMeters>
          </Trackpoint>
          <Trackpoint>
            <Time>2021-08-12T14:23:19.000Z</Time>
            <Position>
              <LatitudeDegrees>43.295072279870510101318359375</LatitudeDegrees>
              <LongitudeDegrees>-2.023218087852001190185546875</LongitudeDegrees>
            </Position>
            <AltitudeMeters>35.40000152587890625</AltitudeMeters>
            <DistanceMeters>NAN</DistanceMeters>
          </Trackpoint>
          <Trackpoint>
            <Time>2021-08-12T14:23:20.000Z</Time>
            <Position>
              <LatitudeDegrees>43.29504185356199741363525390625</LatitudeDegrees>
              <LongitudeDegrees>-2.02325270511209964752197265625</LongitudeDegrees>
            </Position>
            <AltitudeMeters>35.40000152587890625</AltitudeMeters>
            <DistanceMeters>NAN</DistanceMeters>
          </Trackpoint>
          <Trackpoint>
            <Time>2021-08-12T14:23:21.000Z</Time>
            <Position>
              <LatitudeDegrees>43.2950127683579921722412109375</LatitudeDegrees>
              <LongitudeDegrees>-2.0232886634767055511474609375</LongitudeDegrees>
            </Position>
            <AltitudeMeters>35.40000152587890625</AltitudeMeters>
            <DistanceMeters>NAN</DistanceMeters>
          </Trackpoint>
          <Trackpoint>
            <Time>2021-08-12T14:23:22.000Z</Time>
            <Position>
              <LatitudeDegrees>43.29498586244881153106689453125</LatitudeDegrees>
              <LongitudeDegrees>-2.02332495711743831634521484375</LongitudeDegrees>
            </Position>
            <AltitudeMeters>35.40000152587890625</AltitudeMeters>
            <DistanceMeters>NAN</DistanceMeters>
          </Trackpoint>
          <Trackpoint>
            <Time>2021-08-12T14:23:23.000Z</Time>
            <Position>
              <LatitudeDegrees>43.29496373422443866729736328125</LatitudeDegrees>
              <LongitudeDegrees>-2.0233624242246150970458984375</LongitudeDegrees>
            </Position>
            <AltitudeMeters>35.40000152587890625</AltitudeMeters>
            <DistanceMeters>NAN</DistanceMeters>
          </Trackpoint>
          <Trackpoint>
            <Time>2021-08-12T14:23:24.000Z</Time>
            <Position>
              <LatitudeDegrees>43.29494982026517391204833984375</LatitudeDegrees>
              <LongitudeDegrees>-2.023405842483043670654296875</LongitudeDegrees>
            </Position>
            <AltitudeMeters>35.40000152587890625</AltitudeMeters>
            <DistanceMeters>NAN</DistanceMeters>
          </Trackpoint>
          <Trackpoint>
            <Time>2021-08-12T14:23:25.000Z</Time>
            <Position>
              <LatitudeDegrees>43.29494277946650981903076171875</LatitudeDegrees>
              <LongitudeDegrees>-2.0234579779207706451416015625</LongitudeDegrees>
            </Position>
            <AltitudeMeters>35.59999847412109375</AltitudeMeters>
            <DistanceMeters>NAN</DistanceMeters>
          </Trackpoint>
          <Trackpoint>
            <Time>2021-08-12T14:23:26.000Z</Time>
            <Position>
              <LatitudeDegrees>43.29494395293295383453369140625</LatitudeDegrees>
              <LongitudeDegrees>-2.0235173217952251434326171875</LongitudeDegrees>
            </Position>
            <AltitudeMeters>35.59999847412109375</AltitudeMeters>
            <DistanceMeters>NAN</DistanceMeters>
          </Trackpoint>
          <Trackpoint>
            <Time>2021-08-12T14:23:27.000Z</Time>
            <Position>
              <LatitudeDegrees>43.29494931735098361968994140625</LatitudeDegrees>
              <LongitudeDegrees>-2.02357557602226734161376953125</LongitudeDegrees>
            </Position>
            <AltitudeMeters>35.59999847412109375</AltitudeMeters>
            <DistanceMeters>NAN</DistanceMeters>
          </Trackpoint>
          <Trackpoint>
            <Time>2021-08-12T14:23:28.000Z</Time>
            <Position>
              <LatitudeDegrees>43.29495468176901340484619140625</LatitudeDegrees>
              <LongitudeDegrees>-2.023632824420928955078125</LongitudeDegrees>
            </Position>
            <AltitudeMeters>35.59999847412109375</AltitudeMeters>
            <DistanceMeters>NAN</DistanceMeters>
          </Trackpoint>
          <Trackpoint>
            <Time>2021-08-12T14:23:32.000Z</Time>
            <Position>
              <LatitudeDegrees>43.29499005340039730072021484375</LatitudeDegrees>
              <LongitudeDegrees>-2.02387061901390552520751953125</LongitudeDegrees>
            </Position>
            <AltitudeMeters>35.799999237060546875</AltitudeMeters>
            <DistanceMeters>NAN</DistanceMeters>
          </Trackpoint>
          <Trackpoint>
            <Time>2021-08-12T14:23:39.000Z</Time>
            <Position>
              <LatitudeDegrees>43.29506523907184600830078125</LatitudeDegrees>
              <LongitudeDegrees>-2.02428015880286693572998046875</LongitudeDegrees>
            </Position>
            <AltitudeMeters>36.200000762939453125</AltitudeMeters>
            <DistanceMeters>NAN</DistanceMeters>
          </Trackpoint>
          <Trackpoint>
            <Time>2021-08-12T14:23:41.000Z</Time>
            <Position>
              <LatitudeDegrees>43.29510547220706939697265625</LatitudeDegrees>
              <LongitudeDegrees>-2.02439884655177593231201171875</LongitudeDegrees>
            </Position>
            <AltitudeMeters>36.59999847412109375</AltitudeMeters>
            <DistanceMeters>NAN</DistanceMeters>
          </Trackpoint>
          <Trackpoint>
            <Time>2021-08-12T14:23:42.000Z</Time>
            <Position>
              <LatitudeDegrees>43.29512315802276134490966796875</LatitudeDegrees>
              <LongitudeDegrees>-2.024455256760120391845703125</LongitudeDegrees>
            </Position>
            <AltitudeMeters>36.59999847412109375</AltitudeMeters>
            <DistanceMeters>NAN</DistanceMeters>
          </Trackpoint>
          <Trackpoint>
            <Time>2021-08-12T14:23:45.000Z</Time>
            <Position>
              <LatitudeDegrees>43.29515836201608180999755859375</LatitudeDegrees>
              <LongitudeDegrees>-2.02461652457714080810546875</LongitudeDegrees>
            </Position>
            <AltitudeMeters>36.799999237060546875</AltitudeMeters>
            <DistanceMeters>NAN</DistanceMeters>
          </Trackpoint>
          <Trackpoint>
            <Time>2021-08-12T14:23:48.000Z</Time>
            <Position>
              <LatitudeDegrees>43.29518166370689868927001953125</LatitudeDegrees>
              <LongitudeDegrees>-2.02477972023189067840576171875</LongitudeDegrees>
            </Position>
            <AltitudeMeters>36.799999237060546875</AltitudeMeters>
            <DistanceMeters>NAN</DistanceMeters>
          </Trackpoint>
          <Trackpoint>
            <Time>2021-08-12T14:23:49.000Z</Time>
            <Position>
              <LatitudeDegrees>43.29518937505781650543212890625</LatitudeDegrees>
              <LongitudeDegrees>-2.02482582069933414459228515625</LongitudeDegrees>
            </Position>
            <AltitudeMeters>36.799999237060546875</AltitudeMeters>
            <DistanceMeters>NAN</DistanceMeters>
          </Trackpoint>
          <Trackpoint>
            <Time>2021-08-12T14:23:50.000Z</Time>
            <Position>
              <LatitudeDegrees>43.29519666731357574462890625</LatitudeDegrees>
              <LongitudeDegrees>-2.02489254064857959747314453125</LongitudeDegrees>
            </Position>
            <AltitudeMeters>36.799999237060546875</AltitudeMeters>
            <DistanceMeters>NAN</DistanceMeters>
          </Trackpoint>
          <Trackpoint>
            <Time>2021-08-12T14:23:51.000Z</Time>
            <Position>
              <LatitudeDegrees>43.29520110972225666046142578125</LatitudeDegrees>
              <LongitudeDegrees>-2.0249445922672748565673828125</LongitudeDegrees>
            </Position>
            <AltitudeMeters>36.799999237060546875</AltitudeMeters>
            <DistanceMeters>NAN</DistanceMeters>
          </Trackpoint>
          <Trackpoint>
            <Time>2021-08-12T14:23:52.000Z</Time>
            <Position>
              <LatitudeDegrees>43.2952045463025569915771484375</LatitudeDegrees>
              <LongitudeDegrees>-2.02499077655375003814697265625</LongitudeDegrees>
            </Position>
            <AltitudeMeters>36.799999237060546875</AltitudeMeters>
            <DistanceMeters>NAN</DistanceMeters>
          </Trackpoint>
          <Trackpoint>
            <Time>2021-08-12T14:23:53.000Z</Time>
            <Position>
              <LatitudeDegrees>43.29520731233060359954833984375</LatitudeDegrees>
              <LongitudeDegrees>-2.02503737993538379669189453125</LongitudeDegrees>
            </Position>
            <AltitudeMeters>36.799999237060546875</AltitudeMeters>
            <DistanceMeters>NAN</DistanceMeters>
          </Trackpoint>
          <Trackpoint>
            <Time>2021-08-12T14:23:54.000Z</Time>
            <Position>
              <LatitudeDegrees>43.29520781524479389190673828125</LatitudeDegrees>
              <LongitudeDegrees>-2.0250852406024932861328125</LongitudeDegrees>
            </Position>
            <AltitudeMeters>36.799999237060546875</AltitudeMeters>
            <DistanceMeters>NAN</DistanceMeters>
          </Trackpoint>
          <Trackpoint>
            <Time>2021-08-12T14:23:55.000Z</Time>
            <Position>
              <LatitudeDegrees>43.29520496539771556854248046875</LatitudeDegrees>
              <LongitudeDegrees>-2.0251308381557464599609375</LongitudeDegrees>
            </Position>
            <AltitudeMeters>36.799999237060546875</AltitudeMeters>
            <DistanceMeters>NAN</DistanceMeters>
          </Trackpoint>
          <Trackpoint>
            <Time>2021-08-12T14:23:59.000Z</Time>
            <Position>
              <LatitudeDegrees>43.2951807416975498199462890625</LatitudeDegrees>
              <LongitudeDegrees>-2.0253360271453857421875</LongitudeDegrees>
            </Position>
            <AltitudeMeters>37</AltitudeMeters>
            <DistanceMeters>NAN</DistanceMeters>
          </Trackpoint>
          <Trackpoint>
            <Time>2021-08-12T14:24:05.000Z</Time>
            <Position>
              <LatitudeDegrees>43.29511620104312896728515625</LatitudeDegrees>
              <LongitudeDegrees>-2.025646828114986419677734375</LongitudeDegrees>
            </Position>
            <AltitudeMeters>37.59999847412109375</AltitudeMeters>
            <DistanceMeters>NAN</DistanceMeters>
          </Trackpoint>
          <Trackpoint>
            <Time>2021-08-12T14:24:06.000Z</Time>
            <Position>
              <LatitudeDegrees>43.2951073162257671356201171875</LatitudeDegrees>
              <LongitudeDegrees>-2.025698460638523101806640625</LongitudeDegrees>
            </Position>
            <AltitudeMeters>37.59999847412109375</AltitudeMeters>
            <DistanceMeters>NAN</DistanceMeters>
          </Trackpoint>
          <Trackpoint>
            <Time>2021-08-12T14:24:12.000Z</Time>
            <Position>
              <LatitudeDegrees>43.295060209929943084716796875</LatitudeDegrees>
              <LongitudeDegrees>-2.026054523885250091552734375</LongitudeDegrees>
            </Position>
            <AltitudeMeters>37.59999847412109375</AltitudeMeters>
            <DistanceMeters>NAN</DistanceMeters>
          </Trackpoint>
          <Trackpoint>
            <Time>2021-08-12T14:24:18.000Z</Time>
            <Position>
              <LatitudeDegrees>43.294991813600063323974609375</LatitudeDegrees>
              <LongitudeDegrees>-2.02642927877604961395263671875</LongitudeDegrees>
            </Position>
            <AltitudeMeters>37.59999847412109375</AltitudeMeters>
            <DistanceMeters>NAN</DistanceMeters>
          </Trackpoint>
          <Trackpoint>
            <Time>2021-08-12T14:24:25.000Z</Time>
            <Position>
              <LatitudeDegrees>43.2948166318237781524658203125</LatitudeDegrees>
              <LongitudeDegrees>-2.02680110000073909759521484375</LongitudeDegrees>
            </Position>
            <AltitudeMeters>37.799999237060546875</AltitudeMeters>
            <DistanceMeters>NAN</DistanceMeters>
          </Trackpoint>
          <Trackpoint>
            <Time>2021-08-12T14:24:26.000Z</Time>
            <Position>
              <LatitudeDegrees>43.2947934977710247039794921875</LatitudeDegrees>
              <LongitudeDegrees>-2.0268439315259456634521484375</LongitudeDegrees>
            </Position>
            <AltitudeMeters>37.799999237060546875</AltitudeMeters>
            <DistanceMeters>NAN</DistanceMeters>
          </Trackpoint>
          <Trackpoint>
            <Time>2021-08-12T14:24:27.000Z</Time>
            <Position>
              <LatitudeDegrees>43.29476726241409778594970703125</LatitudeDegrees>
              <LongitudeDegrees>-2.02688324265182018280029296875</LongitudeDegrees>
            </Position>
            <AltitudeMeters>38</AltitudeMeters>
            <DistanceMeters>NAN</DistanceMeters>
          </Trackpoint>
          <Trackpoint>
            <Time>2021-08-12T14:24:28.000Z</Time>
            <Position>
              <LatitudeDegrees>43.29474261961877346038818359375</LatitudeDegrees>
              <LongitudeDegrees>-2.02693001367151737213134765625</LongitudeDegrees>
            </Position>
            <AltitudeMeters>38</AltitudeMeters>
            <DistanceMeters>NAN</DistanceMeters>
          </Trackpoint>
          <Trackpoint>
            <Time>2021-08-12T14:24:30.000Z</Time>
            <Position>
              <LatitudeDegrees>43.2947113551199436187744140625</LatitudeDegrees>
              <LongitudeDegrees>-2.02702640555799007415771484375</LongitudeDegrees>
            </Position>
            <AltitudeMeters>38</AltitudeMeters>
            <DistanceMeters>NAN</DistanceMeters>
          </Trackpoint>
          <Trackpoint>
            <Time>2021-08-12T14:24:32.000Z</Time>
            <Position>
              <LatitudeDegrees>43.2947225868701934814453125</LatitudeDegrees>
              <LongitudeDegrees>-2.02713151462376117706298828125</LongitudeDegrees>
            </Position>
            <AltitudeMeters>38.200000762939453125</AltitudeMeters>
            <DistanceMeters>NAN</DistanceMeters>
          </Trackpoint>
          <Trackpoint>
            <Time>2021-08-12T14:24:33.000Z</Time>
            <Position>
              <LatitudeDegrees>43.29472837038338184356689453125</LatitudeDegrees>
              <LongitudeDegrees>-2.02719287015497684478759765625</LongitudeDegrees>
            </Position>
            <AltitudeMeters>38.40000152587890625</AltitudeMeters>
            <DistanceMeters>NAN</DistanceMeters>
          </Trackpoint>
          <Trackpoint>
            <Time>2021-08-12T14:24:34.000Z</Time>
            <Position>
              <LatitudeDegrees>43.29473624937236309051513671875</LatitudeDegrees>
              <LongitudeDegrees>-2.02725606970489025115966796875</LongitudeDegrees>
            </Position>
            <AltitudeMeters>38.59999847412109375</AltitudeMeters>
            <DistanceMeters>NAN</DistanceMeters>
          </Trackpoint>
          <Trackpoint>
            <Time>2021-08-12T14:24:35.000Z</Time>
            <Position>
              <LatitudeDegrees>43.29474479891359806060791015625</LatitudeDegrees>
              <LongitudeDegrees>-2.02731792815029621124267578125</LongitudeDegrees>
            </Position>
            <AltitudeMeters>38.799999237060546875</AltitudeMeters>
            <DistanceMeters>NAN</DistanceMeters>
          </Trackpoint>
          <Trackpoint>
            <Time>2021-08-12T14:24:40.000Z</Time>
            <Position>
              <LatitudeDegrees>43.29479978419840335845947265625</LatitudeDegrees>
              <LongitudeDegrees>-2.02761950902640819549560546875</LongitudeDegrees>
            </Position>
            <AltitudeMeters>39.40000152587890625</AltitudeMeters>
            <DistanceMeters>NAN</DistanceMeters>
          </Trackpoint>
          <Trackpoint>
            <Time>2021-08-12T14:24:41.000Z</Time>
            <Position>
              <LatitudeDegrees>43.294808082282543182373046875</LatitudeDegrees>
              <LongitudeDegrees>-2.0276801101863384246826171875</LongitudeDegrees>
            </Position>
            <AltitudeMeters>39.59999847412109375</AltitudeMeters>
            <DistanceMeters>NAN</DistanceMeters>
          </Trackpoint>
          <Trackpoint>
            <Time>2021-08-12T14:24:46.000Z</Time>
            <Position>
              <LatitudeDegrees>43.29481805674731731414794921875</LatitudeDegrees>
              <LongitudeDegrees>-2.0279847085475921630859375</LongitudeDegrees>
            </Position>
            <AltitudeMeters>40</AltitudeMeters>
            <DistanceMeters>NAN</DistanceMeters>
          </Trackpoint>
          <Trackpoint>
            <Time>2021-08-12T14:24:48.000Z</Time>
            <Position>
              <LatitudeDegrees>43.2948179729282855987548828125</LatitudeDegrees>
              <LongitudeDegrees>-2.02808788977563381195068359375</LongitudeDegrees>
            </Position>
            <AltitudeMeters>40.200000762939453125</AltitudeMeters>
            <DistanceMeters>NAN</DistanceMeters>
          </Trackpoint>
          <Trackpoint>
            <Time>2021-08-12T14:24:54.000Z</Time>
            <Position>
              <LatitudeDegrees>43.29481302760541439056396484375</LatitudeDegrees>
              <LongitudeDegrees>-2.02840338461101055145263671875</LongitudeDegrees>
            </Position>
            <AltitudeMeters>40.200000762939453125</AltitudeMeters>
            <DistanceMeters>NAN</DistanceMeters>
          </Trackpoint>
          <Trackpoint>
            <Time>2021-08-12T14:24:58.000Z</Time>
            <Position>
              <LatitudeDegrees>43.29476080834865570068359375</LatitudeDegrees>
              <LongitudeDegrees>-2.02860488556325435638427734375</LongitudeDegrees>
            </Position>
            <AltitudeMeters>40.200000762939453125</AltitudeMeters>
            <DistanceMeters>NAN</DistanceMeters>
          </Trackpoint>
          <Trackpoint>
            <Time>2021-08-12T14:24:59.000Z</Time>
            <Position>
              <LatitudeDegrees>43.2947413623332977294921875</LatitudeDegrees>
              <LongitudeDegrees>-2.028640173375606536865234375</LongitudeDegrees>
            </Position>
            <AltitudeMeters>40.200000762939453125</AltitudeMeters>
            <DistanceMeters>NAN</DistanceMeters>
          </Trackpoint>
          <Trackpoint>
            <Time>2021-08-12T14:25:00.000Z</Time>
            <Position>
              <LatitudeDegrees>43.294720239937305450439453125</LatitudeDegrees>
              <LongitudeDegrees>-2.0286745391786098480224609375</LongitudeDegrees>
            </Position>
            <AltitudeMeters>40.200000762939453125</AltitudeMeters>
            <DistanceMeters>NAN</DistanceMeters>
          </Trackpoint>
          <Trackpoint>
            <Time>2021-08-12T14:25:01.000Z</Time>
            <Position>
              <LatitudeDegrees>43.2947009615600109100341796875</LatitudeDegrees>
              <LongitudeDegrees>-2.0287020318210124969482421875</LongitudeDegrees>
            </Position>
            <AltitudeMeters>40.200000762939453125</AltitudeMeters>
            <DistanceMeters>NAN</DistanceMeters>
          </Trackpoint>
          <Trackpoint>
            <Time>2021-08-12T14:25:02.000Z</Time>
            <Position>
              <LatitudeDegrees>43.29468176700174808502197265625</LatitudeDegrees>
              <LongitudeDegrees>-2.02872860245406627655029296875</LongitudeDegrees>
            </Position>
            <AltitudeMeters>40.200000762939453125</AltitudeMeters>
            <DistanceMeters>NAN</DistanceMeters>
          </Trackpoint>
          <Trackpoint>
            <Time>2021-08-12T14:25:03.000Z</Time>
            <Position>
              <LatitudeDegrees>43.2946640811860561370849609375</LatitudeDegrees>
              <LongitudeDegrees>-2.02875810675323009490966796875</LongitudeDegrees>
            </Position>
            <AltitudeMeters>40.40000152587890625</AltitudeMeters>
            <DistanceMeters>NAN</DistanceMeters>
          </Trackpoint>
          <Trackpoint>
            <Time>2021-08-12T14:25:04.000Z</Time>
            <Position>
              <LatitudeDegrees>43.294649161398410797119140625</LatitudeDegrees>
              <LongitudeDegrees>-2.0287895388901233673095703125</LongitudeDegrees>
            </Position>
            <AltitudeMeters>40.59999847412109375</AltitudeMeters>
            <DistanceMeters>NAN</DistanceMeters>
          </Trackpoint>
          <Trackpoint>
            <Time>2021-08-12T14:25:05.000Z</Time>
            <Position>
              <LatitudeDegrees>43.29463650472462177276611328125</LatitudeDegrees>
              <LongitudeDegrees>-2.0288108289241790771484375</LongitudeDegrees>
            </Position>
            <AltitudeMeters>40.59999847412109375</AltitudeMeters>
            <DistanceMeters>NAN</DistanceMeters>
          </Trackpoint>
          <Trackpoint>
            <Time>2021-08-12T14:25:06.000Z</Time>
            <Position>
              <LatitudeDegrees>43.29462158493697643280029296875</LatitudeDegrees>
              <LongitudeDegrees>-2.02883203513920307159423828125</LongitudeDegrees>
            </Position>
            <AltitudeMeters>41</AltitudeMeters>
            <DistanceMeters>NAN</DistanceMeters>
          </Trackpoint>
          <Trackpoint>
            <Time>2021-08-12T14:25:09.000Z</Time>
            <Position>
              <LatitudeDegrees>43.2945799268782138824462890625</LatitudeDegrees>
              <LongitudeDegrees>-2.0289159379899501800537109375</LongitudeDegrees>
            </Position>
            <AltitudeMeters>41.59999847412109375</AltitudeMeters>
            <DistanceMeters>NAN</DistanceMeters>
          </Trackpoint>
          <Trackpoint>
            <Time>2021-08-12T14:25:10.000Z</Time>
            <Position>
              <LatitudeDegrees>43.2945675216615200042724609375</LatitudeDegrees>
              <LongitudeDegrees>-2.02894468791782855987548828125</LongitudeDegrees>
            </Position>
            <AltitudeMeters>42.200000762939453125</AltitudeMeters>
            <DistanceMeters>NAN</DistanceMeters>
          </Trackpoint>
          <Trackpoint>
            <Time>2021-08-12T14:25:11.000Z</Time>
            <Position>
              <LatitudeDegrees>43.29455637373030185699462890625</LatitudeDegrees>
              <LongitudeDegrees>-2.0289702527225017547607421875</LongitudeDegrees>
            </Position>
            <AltitudeMeters>42.40000152587890625</AltitudeMeters>
            <DistanceMeters>NAN</DistanceMeters>
          </Trackpoint>
          <Trackpoint>
            <Time>2021-08-12T14:25:12.000Z</Time>
            <Position>
              <LatitudeDegrees>43.29454396851360797882080078125</LatitudeDegrees>
              <LongitudeDegrees>-2.02899456024169921875</LongitudeDegrees>
            </Position>
            <AltitudeMeters>42.59999847412109375</AltitudeMeters>
            <DistanceMeters>NAN</DistanceMeters>
          </Trackpoint>
          <Trackpoint>
            <Time>2021-08-12T14:25:13.000Z</Time>
            <Position>
              <LatitudeDegrees>43.29452745616436004638671875</LatitudeDegrees>
              <LongitudeDegrees>-2.029017023742198944091796875</LongitudeDegrees>
            </Position>
            <AltitudeMeters>43.200000762939453125</AltitudeMeters>
            <DistanceMeters>NAN</DistanceMeters>
          </Trackpoint>
          <Trackpoint>
            <Time>2021-08-12T14:25:14.000Z</Time>
            <Position>
              <LatitudeDegrees>43.29451345838606357574462890625</LatitudeDegrees>
              <LongitudeDegrees>-2.029045857489109039306640625</LongitudeDegrees>
            </Position>
            <AltitudeMeters>43.40000152587890625</AltitudeMeters>
            <DistanceMeters>NAN</DistanceMeters>
          </Trackpoint>
          <Trackpoint>
            <Time>2021-08-12T14:25:15.000Z</Time>
            <Position>
              <LatitudeDegrees>43.294498622417449951171875</LatitudeDegrees>
              <LongitudeDegrees>-2.0290741883218288421630859375</LongitudeDegrees>
            </Position>
            <AltitudeMeters>43.799999237060546875</AltitudeMeters>
            <DistanceMeters>NAN</DistanceMeters>
          </Trackpoint>
          <Trackpoint>
            <Time>2021-08-12T14:25:16.000Z</Time>
            <Position>
              <LatitudeDegrees>43.29448160715401172637939453125</LatitudeDegrees>
              <LongitudeDegrees>-2.029097490012645721435546875</LongitudeDegrees>
            </Position>
            <AltitudeMeters>44</AltitudeMeters>
            <DistanceMeters>NAN</DistanceMeters>
          </Trackpoint>
          <Trackpoint>
            <Time>2021-08-12T14:25:17.000Z</Time>
            <Position>
              <LatitudeDegrees>43.29446819610893726348876953125</LatitudeDegrees>
              <LongitudeDegrees>-2.029124982655048370361328125</LongitudeDegrees>
            </Position>
            <AltitudeMeters>44.40000152587890625</AltitudeMeters>
            <DistanceMeters>NAN</DistanceMeters>
          </Trackpoint>
          <Trackpoint>
            <Time>2021-08-12T14:25:18.000Z</Time>
            <Position>
              <LatitudeDegrees>43.2944555394351482391357421875</LatitudeDegrees>
              <LongitudeDegrees>-2.029151134192943572998046875</LongitudeDegrees>
            </Position>
            <AltitudeMeters>44.799999237060546875</AltitudeMeters>
            <DistanceMeters>NAN</DistanceMeters>
          </Trackpoint>
          <Trackpoint>
            <Time>2021-08-12T14:25:19.000Z</Time>
            <Position>
              <LatitudeDegrees>43.29444430768489837646484375</LatitudeDegrees>
              <LongitudeDegrees>-2.02917921356856822967529296875</LongitudeDegrees>
            </Position>
            <AltitudeMeters>45</AltitudeMeters>
            <DistanceMeters>NAN</DistanceMeters>
          </Trackpoint>
          <Trackpoint>
            <Time>2021-08-12T14:25:20.000Z</Time>
            <Position>
              <LatitudeDegrees>43.294431902468204498291015625</LatitudeDegrees>
              <LongitudeDegrees>-2.02920704148709774017333984375</LongitudeDegrees>
            </Position>
            <AltitudeMeters>45.40000152587890625</AltitudeMeters>
            <DistanceMeters>NAN</DistanceMeters>
          </Trackpoint>
          <Trackpoint>
            <Time>2021-08-12T14:25:21.000Z</Time>
            <Position>
              <LatitudeDegrees>43.2944200001657009124755859375</LatitudeDegrees>
              <LongitudeDegrees>-2.029238305985927581787109375</LongitudeDegrees>
            </Position>
            <AltitudeMeters>45.59999847412109375</AltitudeMeters>
            <DistanceMeters>NAN</DistanceMeters>
          </Trackpoint>
          <Trackpoint>
            <Time>2021-08-12T14:25:22.000Z</Time>
            <Position>
              <LatitudeDegrees>43.29440918751060962677001953125</LatitudeDegrees>
              <LongitudeDegrees>-2.029270492494106292724609375</LongitudeDegrees>
            </Position>
            <AltitudeMeters>45.799999237060546875</AltitudeMeters>
            <DistanceMeters>NAN</DistanceMeters>
          </Trackpoint>
          <Trackpoint>
            <Time>2021-08-12T14:25:23.000Z</Time>
            <Position>
              <LatitudeDegrees>43.2943998835980892181396484375</LatitudeDegrees>
              <LongitudeDegrees>-2.029299326241016387939453125</LongitudeDegrees>
            </Position>
            <AltitudeMeters>46</AltitudeMeters>
            <DistanceMeters>NAN</DistanceMeters>
          </Trackpoint>
          <Trackpoint>
            <Time>2021-08-12T14:25:24.000Z</Time>
            <Position>
              <LatitudeDegrees>43.29439242370426654815673828125</LatitudeDegrees>
              <LongitudeDegrees>-2.02932371757924556732177734375</LongitudeDegrees>
            </Position>
            <AltitudeMeters>46.40000152587890625</AltitudeMeters>
            <DistanceMeters>NAN</DistanceMeters>
          </Trackpoint>
          <Trackpoint>
            <Time>2021-08-12T14:25:25.000Z</Time>
            <Position>
              <LatitudeDegrees>43.29437867738306522369384765625</LatitudeDegrees>
              <LongitudeDegrees>-2.02935674227774143218994140625</LongitudeDegrees>
            </Position>
            <AltitudeMeters>46.59999847412109375</AltitudeMeters>
            <DistanceMeters>NAN</DistanceMeters>
          </Trackpoint>
          <Trackpoint>
            <Time>2021-08-12T14:25:26.000Z</Time>
            <Position>
              <LatitudeDegrees>43.29436861909925937652587890625</LatitudeDegrees>
              <LongitudeDegrees>-2.0293826423585414886474609375</LongitudeDegrees>
            </Position>
            <AltitudeMeters>46.799999237060546875</AltitudeMeters>
            <DistanceMeters>NAN</DistanceMeters>
          </Trackpoint>
          <Trackpoint>
            <Time>2021-08-12T14:25:27.000Z</Time>
            <Position>
              <LatitudeDegrees>43.2943599857389926910400390625</LatitudeDegrees>
              <LongitudeDegrees>-2.0294114761054515838623046875</LongitudeDegrees>
            </Position>
            <AltitudeMeters>47</AltitudeMeters>
            <DistanceMeters>NAN</DistanceMeters>
          </Trackpoint>
          <Trackpoint>
            <Time>2021-08-12T14:25:28.000Z</Time>
            <Position>
              <LatitudeDegrees>43.29435152001678943634033203125</LatitudeDegrees>
              <LongitudeDegrees>-2.0294416509568691253662109375</LongitudeDegrees>
            </Position>
            <AltitudeMeters>47.200000762939453125</AltitudeMeters>
            <DistanceMeters>NAN</DistanceMeters>
          </Trackpoint>
          <Trackpoint>
            <Time>2021-08-12T14:25:29.000Z</Time>
            <Position>
              <LatitudeDegrees>43.2943403720855712890625</LatitudeDegrees>
              <LongitudeDegrees>-2.02946872450411319732666015625</LongitudeDegrees>
            </Position>
            <AltitudeMeters>47.40000152587890625</AltitudeMeters>
            <DistanceMeters>NAN</DistanceMeters>
          </Trackpoint>
          <Trackpoint>
            <Time>2021-08-12T14:25:30.000Z</Time>
            <Position>
              <LatitudeDegrees>43.29432905651628971099853515625</LatitudeDegrees>
              <LongitudeDegrees>-2.029498480260372161865234375</LongitudeDegrees>
            </Position>
            <AltitudeMeters>47.799999237060546875</AltitudeMeters>
            <DistanceMeters>NAN</DistanceMeters>
          </Trackpoint>
          <Trackpoint>
            <Time>2021-08-12T14:25:31.000Z</Time>
            <Position>
              <LatitudeDegrees>43.29431765712797641754150390625</LatitudeDegrees>
              <LongitudeDegrees>-2.02952773310244083404541015625</LongitudeDegrees>
            </Position>
            <AltitudeMeters>48.200000762939453125</AltitudeMeters>
            <DistanceMeters>NAN</DistanceMeters>
          </Trackpoint>
          <Trackpoint>
            <Time>2021-08-12T14:25:32.000Z</Time>
            <Position>
              <LatitudeDegrees>43.29430860467255115509033203125</LatitudeDegrees>
              <LongitudeDegrees>-2.0295492745935916900634765625</LongitudeDegrees>
            </Position>
            <AltitudeMeters>48.200000762939453125</AltitudeMeters>
            <DistanceMeters>NAN</DistanceMeters>
          </Trackpoint>
          <Trackpoint>
            <Time>2021-08-12T14:25:33.000Z</Time>
            <Position>
              <LatitudeDegrees>43.29429334960877895355224609375</LatitudeDegrees>
              <LongitudeDegrees>-2.02958104200661182403564453125</LongitudeDegrees>
            </Position>
            <AltitudeMeters>48.40000152587890625</AltitudeMeters>
            <DistanceMeters>NAN</DistanceMeters>
          </Trackpoint>
          <Trackpoint>
            <Time>2021-08-12T14:25:34.000Z</Time>
            <Position>
              <LatitudeDegrees>43.294281028211116790771484375</LatitudeDegrees>
              <LongitudeDegrees>-2.02960677444934844970703125</LongitudeDegrees>
            </Position>
            <AltitudeMeters>48.799999237060546875</AltitudeMeters>
            <DistanceMeters>NAN</DistanceMeters>
          </Trackpoint>
          <Trackpoint>
            <Time>2021-08-12T14:25:35.000Z</Time>
            <Position>
              <LatitudeDegrees>43.2942708022892475128173828125</LatitudeDegrees>
              <LongitudeDegrees>-2.02963418327271938323974609375</LongitudeDegrees>
            </Position>
            <AltitudeMeters>49.200000762939453125</AltitudeMeters>
            <DistanceMeters>NAN</DistanceMeters>
          </Trackpoint>
          <Trackpoint>
            <Time>2021-08-12T14:25:36.000Z</Time>
            <Position>
              <LatitudeDegrees>43.29426191747188568115234375</LatitudeDegrees>
              <LongitudeDegrees>-2.0296582393348217010498046875</LongitudeDegrees>
            </Position>
            <AltitudeMeters>49.40000152587890625</AltitudeMeters>
            <DistanceMeters>NAN</DistanceMeters>
          </Trackpoint>
          <Trackpoint>
            <Time>2021-08-12T14:25:37.000Z</Time>
            <Position>
              <LatitudeDegrees>43.2942500151693820953369140625</LatitudeDegrees>
              <LongitudeDegrees>-2.029692269861698150634765625</LongitudeDegrees>
            </Position>
            <AltitudeMeters>49.40000152587890625</AltitudeMeters>
            <DistanceMeters>NAN</DistanceMeters>
          </Trackpoint>
          <Trackpoint>
            <Time>2021-08-12T14:25:38.000Z</Time>
            <Position>
              <LatitudeDegrees>43.29423836432397365570068359375</LatitudeDegrees>
              <LongitudeDegrees>-2.02971867285668849945068359375</LongitudeDegrees>
            </Position>
            <AltitudeMeters>49.799999237060546875</AltitudeMeters>
            <DistanceMeters>NAN</DistanceMeters>
          </Trackpoint>
          <Trackpoint>
            <Time>2021-08-12T14:25:39.000Z</Time>
            <Position>
              <LatitudeDegrees>43.29422713257372379302978515625</LatitudeDegrees>
              <LongitudeDegrees>-2.02974616549909114837646484375</LongitudeDegrees>
            </Position>
            <AltitudeMeters>50.200000762939453125</AltitudeMeters>
            <DistanceMeters>NAN</DistanceMeters>
          </Trackpoint>
          <Trackpoint>
            <Time>2021-08-12T14:25:40.000Z</Time>
            <Position>
              <LatitudeDegrees>43.29421631991863250732421875</LatitudeDegrees>
              <LongitudeDegrees>-2.02977365814149379730224609375</LongitudeDegrees>
            </Position>
            <AltitudeMeters>50.200000762939453125</AltitudeMeters>
            <DistanceMeters>NAN</DistanceMeters>
          </Trackpoint>
          <Trackpoint>
            <Time>2021-08-12T14:25:41.000Z</Time>
            <Position>
              <LatitudeDegrees>43.2942094467580318450927734375</LatitudeDegrees>
              <LongitudeDegrees>-2.02979863621294498443603515625</LongitudeDegrees>
            </Position>
            <AltitudeMeters>50.59999847412109375</AltitudeMeters>
            <DistanceMeters>NAN</DistanceMeters>
          </Trackpoint>
          <Trackpoint>
            <Time>2021-08-12T14:25:42.000Z</Time>
            <Position>
              <LatitudeDegrees>43.294200561940670013427734375</LatitudeDegrees>
              <LongitudeDegrees>-2.02982948161661624908447265625</LongitudeDegrees>
            </Position>
            <AltitudeMeters>50.799999237060546875</AltitudeMeters>
            <DistanceMeters>NAN</DistanceMeters>
          </Trackpoint>
          <Trackpoint>
            <Time>2021-08-12T14:25:43.000Z</Time>
            <Position>
              <LatitudeDegrees>43.29419125802814960479736328125</LatitudeDegrees>
              <LongitudeDegrees>-2.02986694872379302978515625</LongitudeDegrees>
            </Position>
            <AltitudeMeters>51.200000762939453125</AltitudeMeters>
            <DistanceMeters>NAN</DistanceMeters>
          </Trackpoint>
          <Trackpoint>
            <Time>2021-08-12T14:25:44.000Z</Time>
            <Position>
              <LatitudeDegrees>43.2941826246678829193115234375</LatitudeDegrees>
              <LongitudeDegrees>-2.0298972912132740020751953125</LongitudeDegrees>
            </Position>
            <AltitudeMeters>51.59999847412109375</AltitudeMeters>
            <DistanceMeters>NAN</DistanceMeters>
          </Trackpoint>
          <Trackpoint>
            <Time>2021-08-12T14:25:45.000Z</Time>
            <Position>
              <LatitudeDegrees>43.2941735722124576568603515625</LatitudeDegrees>
              <LongitudeDegrees>-2.02992729842662811279296875</LongitudeDegrees>
            </Position>
            <AltitudeMeters>51.799999237060546875</AltitudeMeters>
            <DistanceMeters>NAN</DistanceMeters>
          </Trackpoint>
          <Trackpoint>
            <Time>2021-08-12T14:25:46.000Z</Time>
            <Position>
              <LatitudeDegrees>43.2941658608615398406982421875</LatitudeDegrees>
              <LongitudeDegrees>-2.029957808554172515869140625</LongitudeDegrees>
            </Position>
            <AltitudeMeters>52</AltitudeMeters>
            <DistanceMeters>NAN</DistanceMeters>
          </Trackpoint>
          <Trackpoint>
            <Time>2021-08-12T14:25:47.000Z</Time>
            <Position>
              <LatitudeDegrees>43.2941601611673831939697265625</LatitudeDegrees>
              <LongitudeDegrees>-2.02998270280659198760986328125</LongitudeDegrees>
            </Position>
            <AltitudeMeters>52.200000762939453125</AltitudeMeters>
            <DistanceMeters>NAN</DistanceMeters>
          </Trackpoint>
          <Trackpoint>
            <Time>2021-08-12T14:25:48.000Z</Time>
            <Position>
              <LatitudeDegrees>43.2941537909209728240966796875</LatitudeDegrees>
              <LongitudeDegrees>-2.03001321293413639068603515625</LongitudeDegrees>
            </Position>
            <AltitudeMeters>52.40000152587890625</AltitudeMeters>
            <DistanceMeters>NAN</DistanceMeters>
          </Trackpoint>
          <Trackpoint>
            <Time>2021-08-12T14:25:49.000Z</Time>
            <Position>
              <LatitudeDegrees>43.29414750449359416961669921875</LatitudeDegrees>
              <LongitudeDegrees>-2.03004992567002773284912109375</LongitudeDegrees>
            </Position>
            <AltitudeMeters>52.59999847412109375</AltitudeMeters>
            <DistanceMeters>NAN</DistanceMeters>
          </Trackpoint>
          <Trackpoint>
            <Time>2021-08-12T14:25:50.000Z</Time>
            <Position>
              <LatitudeDegrees>43.29414415173232555389404296875</LatitudeDegrees>
              <LongitudeDegrees>-2.030079178512096405029296875</LongitudeDegrees>
            </Position>
            <AltitudeMeters>53</AltitudeMeters>
            <DistanceMeters>NAN</DistanceMeters>
          </Trackpoint>
          <Trackpoint>
            <Time>2021-08-12T14:25:51.000Z</Time>
            <Position>
              <LatitudeDegrees>43.29414281062781810760498046875</LatitudeDegrees>
              <LongitudeDegrees>-2.030110023915767669677734375</LongitudeDegrees>
            </Position>
            <AltitudeMeters>53.200000762939453125</AltitudeMeters>
            <DistanceMeters>NAN</DistanceMeters>
          </Trackpoint>
          <Trackpoint>
            <Time>2021-08-12T14:25:52.000Z</Time>
            <Position>
              <LatitudeDegrees>43.2941450737416744232177734375</LatitudeDegrees>
              <LongitudeDegrees>-2.0301350019872188568115234375</LongitudeDegrees>
            </Position>
            <AltitudeMeters>53.40000152587890625</AltitudeMeters>
            <DistanceMeters>NAN</DistanceMeters>
          </Trackpoint>
          <Trackpoint>
            <Time>2021-08-12T14:25:53.000Z</Time>
            <Position>
              <LatitudeDegrees>43.29414792358875274658203125</LatitudeDegrees>
              <LongitudeDegrees>-2.03016693703830242156982421875</LongitudeDegrees>
            </Position>
            <AltitudeMeters>53.59999847412109375</AltitudeMeters>
            <DistanceMeters>NAN</DistanceMeters>
          </Trackpoint>
          <Trackpoint>
            <Time>2021-08-12T14:25:54.000Z</Time>
            <Position>
              <LatitudeDegrees>43.29415538348257541656494140625</LatitudeDegrees>
              <LongitudeDegrees>-2.03020448796451091766357421875</LongitudeDegrees>
            </Position>
            <AltitudeMeters>53.799999237060546875</AltitudeMeters>
            <DistanceMeters>NAN</DistanceMeters>
          </Trackpoint>
          <Trackpoint>
            <Time>2021-08-12T14:25:55.000Z</Time>
            <Position>
              <LatitudeDegrees>43.29416141845285892486572265625</LatitudeDegrees>
              <LongitudeDegrees>-2.03023768030107021331787109375</LongitudeDegrees>
            </Position>
            <AltitudeMeters>54.200000762939453125</AltitudeMeters>
            <DistanceMeters>NAN</DistanceMeters>
          </Trackpoint>
          <Trackpoint>
            <Time>2021-08-12T14:25:56.000Z</Time>
            <Position>
              <LatitudeDegrees>43.2941675372421741485595703125</LatitudeDegrees>
              <LongitudeDegrees>-2.0302684418857097625732421875</LongitudeDegrees>
            </Position>
            <AltitudeMeters>54.40000152587890625</AltitudeMeters>
            <DistanceMeters>NAN</DistanceMeters>
          </Trackpoint>
          <Trackpoint>
            <Time>2021-08-12T14:25:57.000Z</Time>
            <Position>
              <LatitudeDegrees>43.2941729016602039337158203125</LatitudeDegrees>
              <LongitudeDegrees>-2.03029216267168521881103515625</LongitudeDegrees>
            </Position>
            <AltitudeMeters>54.59999847412109375</AltitudeMeters>
            <DistanceMeters>NAN</DistanceMeters>
          </Trackpoint>
          <Trackpoint>
            <Time>2021-08-12T14:25:58.000Z</Time>
            <Position>
              <LatitudeDegrees>43.29418036155402660369873046875</LatitudeDegrees>
              <LongitudeDegrees>-2.0303210802376270294189453125</LongitudeDegrees>
            </Position>
            <AltitudeMeters>55</AltitudeMeters>
            <DistanceMeters>NAN</DistanceMeters>
          </Trackpoint>
          <Trackpoint>
            <Time>2021-08-12T14:25:59.000Z</Time>
            <Position>
              <LatitudeDegrees>43.2941896654665470123291015625</LatitudeDegrees>
              <LongitudeDegrees>-2.03035452403128147125244140625</LongitudeDegrees>
            </Position>
            <AltitudeMeters>55</AltitudeMeters>
            <DistanceMeters>NAN</DistanceMeters>
          </Trackpoint>
          <Trackpoint>
            <Time>2021-08-12T14:26:00.000Z</Time>
            <Position>
              <LatitudeDegrees>43.29419762827455997467041015625</LatitudeDegrees>
              <LongitudeDegrees>-2.0303804241120815277099609375</LongitudeDegrees>
            </Position>
            <AltitudeMeters>55.200000762939453125</AltitudeMeters>
            <DistanceMeters>NAN</DistanceMeters>
          </Trackpoint>
          <Trackpoint>
            <Time>2021-08-12T14:26:01.000Z</Time>
            <Position>
              <LatitudeDegrees>43.294203579425811767578125</LatitudeDegrees>
              <LongitudeDegrees>-2.0304067432880401611328125</LongitudeDegrees>
            </Position>
            <AltitudeMeters>55.40000152587890625</AltitudeMeters>
            <DistanceMeters>NAN</DistanceMeters>
          </Trackpoint>
          <Trackpoint>
            <Time>2021-08-12T14:26:02.000Z</Time>
            <Position>
              <LatitudeDegrees>43.294209279119968414306640625</LatitudeDegrees>
              <LongitudeDegrees>-2.030435241758823394775390625</LongitudeDegrees>
            </Position>
            <AltitudeMeters>55.799999237060546875</AltitudeMeters>
            <DistanceMeters>NAN</DistanceMeters>
          </Trackpoint>
          <Trackpoint>
            <Time>2021-08-12T14:26:03.000Z</Time>
            <Position>
              <LatitudeDegrees>43.29421305097639560699462890625</LatitudeDegrees>
              <LongitudeDegrees>-2.03045510686933994293212890625</LongitudeDegrees>
            </Position>
            <AltitudeMeters>56</AltitudeMeters>
            <DistanceMeters>NAN</DistanceMeters>
          </Trackpoint>
          <Trackpoint>
            <Time>2021-08-12T14:26:04.000Z</Time>
            <Position>
              <LatitudeDegrees>43.29421908594667911529541015625</LatitudeDegrees>
              <LongitudeDegrees>-2.03048042021691799163818359375</LongitudeDegrees>
            </Position>
            <AltitudeMeters>56.40000152587890625</AltitudeMeters>
            <DistanceMeters>NAN</DistanceMeters>
          </Trackpoint>
          <Trackpoint>
            <Time>2021-08-12T14:26:05.000Z</Time>
            <Position>
              <LatitudeDegrees>43.29422394745051860809326171875</LatitudeDegrees>
              <LongitudeDegrees>-2.03050087206065654754638671875</LongitudeDegrees>
            </Position>
            <AltitudeMeters>56.799999237060546875</AltitudeMeters>
            <DistanceMeters>NAN</DistanceMeters>
          </Trackpoint>
          <Trackpoint>
            <Time>2021-08-12T14:26:06.000Z</Time>
            <Position>
              <LatitudeDegrees>43.29422570765018463134765625</LatitudeDegrees>
              <LongitudeDegrees>-2.03051813878118991851806640625</LongitudeDegrees>
            </Position>
            <AltitudeMeters>57</AltitudeMeters>
            <DistanceMeters>NAN</DistanceMeters>
          </Trackpoint>
          <Trackpoint>
            <Time>2021-08-12T14:26:07.000Z</Time>
            <Position>
              <LatitudeDegrees>43.29422696493566036224365234375</LatitudeDegrees>
              <LongitudeDegrees>-2.03053347766399383544921875</LongitudeDegrees>
            </Position>
            <AltitudeMeters>57.200000762939453125</AltitudeMeters>
            <DistanceMeters>NAN</DistanceMeters>
          </Trackpoint>
          <Trackpoint>
            <Time>2021-08-12T14:26:08.000Z</Time>
            <Position>
              <LatitudeDegrees>43.29422830604016780853271484375</LatitudeDegrees>
              <LongitudeDegrees>-2.03053976409137248992919921875</LongitudeDegrees>
            </Position>
            <AltitudeMeters>57.40000152587890625</AltitudeMeters>
            <DistanceMeters>NAN</DistanceMeters>
          </Trackpoint>
          <Trackpoint>
            <Time>2021-08-12T14:26:09.000Z</Time>
            <Position>
              <LatitudeDegrees>43.29422830604016780853271484375</LatitudeDegrees>
              <LongitudeDegrees>-2.03053976409137248992919921875</LongitudeDegrees>
            </Position>
            <AltitudeMeters>58</AltitudeMeters>
            <DistanceMeters>NAN</DistanceMeters>
          </Trackpoint>
          <Trackpoint>
            <Time>2021-08-12T14:26:12.000Z</Time>
            <Position>
              <LatitudeDegrees>43.29422830604016780853271484375</LatitudeDegrees>
              <LongitudeDegrees>-2.03053976409137248992919921875</LongitudeDegrees>
            </Position>
            <AltitudeMeters>58.59999847412109375</AltitudeMeters>
            <DistanceMeters>NAN</DistanceMeters>
          </Trackpoint>
          <Trackpoint>
            <Time>2021-08-12T14:26:19.000Z</Time>
            <Position>
              <LatitudeDegrees>43.29422830604016780853271484375</LatitudeDegrees>
              <LongitudeDegrees>-2.03053976409137248992919921875</LongitudeDegrees>
            </Position>
            <AltitudeMeters>59</AltitudeMeters>
            <DistanceMeters>NAN</DistanceMeters>
          </Trackpoint>
          <Trackpoint>
            <Time>2021-08-12T14:26:51.000Z</Time>
            <Position>
              <LatitudeDegrees>43.29422830604016780853271484375</LatitudeDegrees>
              <LongitudeDegrees>-2.03053976409137248992919921875</LongitudeDegrees>
            </Position>
            <AltitudeMeters>58.799999237060546875</AltitudeMeters>
            <DistanceMeters>NAN</DistanceMeters>
          </Trackpoint>
          <Trackpoint>
            <Time>2021-08-12T14:27:01.000Z</Time>
            <Position>
              <LatitudeDegrees>43.2942282222211360931396484375</LatitudeDegrees>
              <LongitudeDegrees>-2.0305426977574825286865234375</LongitudeDegrees>
            </Position>
            <AltitudeMeters>58.59999847412109375</AltitudeMeters>
            <DistanceMeters>NAN</DistanceMeters>
          </Trackpoint>
          <Trackpoint>
            <Time>2021-08-12T14:27:04.000Z</Time>
            <Position>
              <LatitudeDegrees>43.2942344248294830322265625</LatitudeDegrees>
              <LongitudeDegrees>-2.03066088259220123291015625</LongitudeDegrees>
            </Position>
            <AltitudeMeters>58.40000152587890625</AltitudeMeters>
            <DistanceMeters>NAN</DistanceMeters>
          </Trackpoint>
          <Trackpoint>
            <Time>2021-08-12T14:27:09.000Z</Time>
            <Position>
              <LatitudeDegrees>43.29425814561545848846435546875</LatitudeDegrees>
              <LongitudeDegrees>-2.03102029860019683837890625</LongitudeDegrees>
            </Position>
            <AltitudeMeters>58.200000762939453125</AltitudeMeters>
            <DistanceMeters>NAN</DistanceMeters>
          </Trackpoint>
          <Trackpoint>
            <Time>2021-08-12T14:27:10.000Z</Time>
            <Position>
              <LatitudeDegrees>43.2942714728415012359619140625</LatitudeDegrees>
              <LongitudeDegrees>-2.03111761249601840972900390625</LongitudeDegrees>
            </Position>
            <AltitudeMeters>57.59999847412109375</AltitudeMeters>
            <DistanceMeters>NAN</DistanceMeters>
          </Trackpoint>
          <Trackpoint>
            <Time>2021-08-12T14:27:13.000Z</Time>
            <Position>
              <LatitudeDegrees>43.29432905651628971099853515625</LatitudeDegrees>
              <LongitudeDegrees>-2.0314288325607776641845703125</LongitudeDegrees>
            </Position>
            <AltitudeMeters>56.40000152587890625</AltitudeMeters>
            <DistanceMeters>NAN</DistanceMeters>
          </Trackpoint>
          <Trackpoint>
            <Time>2021-08-12T14:27:14.000Z</Time>
            <Position>
              <LatitudeDegrees>43.29434431158006191253662109375</LatitudeDegrees>
              <LongitudeDegrees>-2.03153804875910282135009765625</LongitudeDegrees>
            </Position>
            <AltitudeMeters>56</AltitudeMeters>
            <DistanceMeters>NAN</DistanceMeters>
          </Trackpoint>
          <Trackpoint>
            <Time>2021-08-12T14:27:15.000Z</Time>
            <Position>
              <LatitudeDegrees>43.29435487277805805206298828125</LatitudeDegrees>
              <LongitudeDegrees>-2.03164299018681049346923828125</LongitudeDegrees>
            </Position>
            <AltitudeMeters>55.200000762939453125</AltitudeMeters>
            <DistanceMeters>NAN</DistanceMeters>
          </Trackpoint>
          <Trackpoint>
            <Time>2021-08-12T14:27:16.000Z</Time>
            <Position>
              <LatitudeDegrees>43.29435721971094608306884765625</LatitudeDegrees>
              <LongitudeDegrees>-2.03174189664423465728759765625</LongitudeDegrees>
            </Position>
            <AltitudeMeters>55</AltitudeMeters>
            <DistanceMeters>NAN</DistanceMeters>
          </Trackpoint>
          <Trackpoint>
            <Time>2021-08-12T14:27:17.000Z</Time>
            <Position>
              <LatitudeDegrees>43.29435721971094608306884765625</LatitudeDegrees>
              <LongitudeDegrees>-2.031833343207836151123046875</LongitudeDegrees>
            </Position>
            <AltitudeMeters>54.40000152587890625</AltitudeMeters>
            <DistanceMeters>NAN</DistanceMeters>
          </Trackpoint>
          <Trackpoint>
            <Time>2021-08-12T14:27:18.000Z</Time>
            <Position>
              <LatitudeDegrees>43.29435646533966064453125</LatitudeDegrees>
              <LongitudeDegrees>-2.03191883862018585205078125</LongitudeDegrees>
            </Position>
            <AltitudeMeters>54.200000762939453125</AltitudeMeters>
            <DistanceMeters>NAN</DistanceMeters>
          </Trackpoint>
          <Trackpoint>
            <Time>2021-08-12T14:27:19.000Z</Time>
            <Position>
              <LatitudeDegrees>43.294356130063533782958984375</LatitudeDegrees>
              <LongitudeDegrees>-2.03199536539614200592041015625</LongitudeDegrees>
            </Position>
            <AltitudeMeters>53.799999237060546875</AltitudeMeters>
            <DistanceMeters>NAN</DistanceMeters>
          </Trackpoint>
          <Trackpoint>
            <Time>2021-08-12T14:27:20.000Z</Time>
            <Position>
              <LatitudeDegrees>43.2943606562912464141845703125</LatitudeDegrees>
              <LongitudeDegrees>-2.032072730362415313720703125</LongitudeDegrees>
            </Position>
            <AltitudeMeters>53.59999847412109375</AltitudeMeters>
            <DistanceMeters>NAN</DistanceMeters>
          </Trackpoint>
          <Trackpoint>
            <Time>2021-08-12T14:27:21.000Z</Time>
            <Position>
              <LatitudeDegrees>43.29435319639742374420166015625</LatitudeDegrees>
              <LongitudeDegrees>-2.0321483351290225982666015625</LongitudeDegrees>
            </Position>
            <AltitudeMeters>53.40000152587890625</AltitudeMeters>
            <DistanceMeters>NAN</DistanceMeters>
          </Trackpoint>
          <Trackpoint>
            <Time>2021-08-12T14:27:22.000Z</Time>
            <Position>
              <LatitudeDegrees>43.2943390309810638427734375</LatitudeDegrees>
              <LongitudeDegrees>-2.032221592962741851806640625</LongitudeDegrees>
            </Position>
            <AltitudeMeters>53.200000762939453125</AltitudeMeters>
            <DistanceMeters>NAN</DistanceMeters>
          </Trackpoint>
          <Trackpoint>
            <Time>2021-08-12T14:27:23.000Z</Time>
            <Position>
              <LatitudeDegrees>43.29432302154600620269775390625</LatitudeDegrees>
              <LongitudeDegrees>-2.0322931744158267974853515625</LongitudeDegrees>
            </Position>
            <AltitudeMeters>53.200000762939453125</AltitudeMeters>
            <DistanceMeters>NAN</DistanceMeters>
          </Trackpoint>
          <Trackpoint>
            <Time>2021-08-12T14:27:25.000Z</Time>
            <Position>
              <LatitudeDegrees>43.29429133795201778411865234375</LatitudeDegrees>
              <LongitudeDegrees>-2.0324326492846012115478515625</LongitudeDegrees>
            </Position>
            <AltitudeMeters>53</AltitudeMeters>
            <DistanceMeters>NAN</DistanceMeters>
          </Trackpoint>
          <Trackpoint>
            <Time>2021-08-12T14:27:26.000Z</Time>
            <Position>
              <LatitudeDegrees>43.294278346002101898193359375</LatitudeDegrees>
              <LongitudeDegrees>-2.03249417245388031005859375</LongitudeDegrees>
            </Position>
            <AltitudeMeters>53</AltitudeMeters>
            <DistanceMeters>NAN</DistanceMeters>
          </Trackpoint>
          <Trackpoint>
            <Time>2021-08-12T14:27:27.000Z</Time>
            <Position>
              <LatitudeDegrees>43.29426619224250316619873046875</LatitudeDegrees>
              <LongitudeDegrees>-2.03254924155771732330322265625</LongitudeDegrees>
            </Position>
            <AltitudeMeters>53</AltitudeMeters>
            <DistanceMeters>NAN</DistanceMeters>
          </Trackpoint>
          <Trackpoint>
            <Time>2021-08-12T14:27:28.000Z</Time>
            <Position>
              <LatitudeDegrees>43.29425789415836334228515625</LatitudeDegrees>
              <LongitudeDegrees>-2.0326012931764125823974609375</LongitudeDegrees>
            </Position>
            <AltitudeMeters>53</AltitudeMeters>
            <DistanceMeters>NAN</DistanceMeters>
          </Trackpoint>
          <Trackpoint>
            <Time>2021-08-12T14:27:29.000Z</Time>
            <Position>
              <LatitudeDegrees>43.294251859188079833984375</LatitudeDegrees>
              <LongitudeDegrees>-2.032656781375408172607421875</LongitudeDegrees>
            </Position>
            <AltitudeMeters>53</AltitudeMeters>
            <DistanceMeters>NAN</DistanceMeters>
          </Trackpoint>
          <Trackpoint>
            <Time>2021-08-12T14:27:30.000Z</Time>
            <Position>
              <LatitudeDegrees>43.294234089553356170654296875</LatitudeDegrees>
              <LongitudeDegrees>-2.03271352685987949371337890625</LongitudeDegrees>
            </Position>
            <AltitudeMeters>53</AltitudeMeters>
            <DistanceMeters>NAN</DistanceMeters>
          </Trackpoint>
          <Trackpoint>
            <Time>2021-08-12T14:27:31.000Z</Time>
            <Position>
              <LatitudeDegrees>43.29421631991863250732421875</LatitudeDegrees>
              <LongitudeDegrees>-2.03276650048792362213134765625</LongitudeDegrees>
            </Position>
            <AltitudeMeters>53</AltitudeMeters>
            <DistanceMeters>NAN</DistanceMeters>
          </Trackpoint>
          <Trackpoint>
            <Time>2021-08-12T14:27:32.000Z</Time>
            <Position>
              <LatitudeDegrees>43.2942040823400020599365234375</LatitudeDegrees>
              <LongitudeDegrees>-2.032807655632495880126953125</LongitudeDegrees>
            </Position>
            <AltitudeMeters>53</AltitudeMeters>
            <DistanceMeters>NAN</DistanceMeters>
          </Trackpoint>
          <Trackpoint>
            <Time>2021-08-12T14:27:33.000Z</Time>
            <Position>
              <LatitudeDegrees>43.29419377259910106658935546875</LatitudeDegrees>
              <LongitudeDegrees>-2.03286607749760150909423828125</LongitudeDegrees>
            </Position>
            <AltitudeMeters>53.200000762939453125</AltitudeMeters>
            <DistanceMeters>NAN</DistanceMeters>
          </Trackpoint>
          <Trackpoint>
            <Time>2021-08-12T14:27:34.000Z</Time>
            <Position>
              <LatitudeDegrees>43.29419293440878391265869140625</LatitudeDegrees>
              <LongitudeDegrees>-2.03291720710694789886474609375</LongitudeDegrees>
            </Position>
            <AltitudeMeters>53.40000152587890625</AltitudeMeters>
            <DistanceMeters>NAN</DistanceMeters>
          </Trackpoint>
          <Trackpoint>
            <Time>2021-08-12T14:27:35.000Z</Time>
            <Position>
              <LatitudeDegrees>43.29419947229325771331787109375</LatitudeDegrees>
              <LongitudeDegrees>-2.03297286294400691986083984375</LongitudeDegrees>
            </Position>
            <AltitudeMeters>53.59999847412109375</AltitudeMeters>
            <DistanceMeters>NAN</DistanceMeters>
          </Trackpoint>
          <Trackpoint>
            <Time>2021-08-12T14:27:36.000Z</Time>
            <Position>
              <LatitudeDegrees>43.29420668072998523712158203125</LatitudeDegrees>
              <LongitudeDegrees>-2.0330230705440044403076171875</LongitudeDegrees>
            </Position>
            <AltitudeMeters>54.200000762939453125</AltitudeMeters>
            <DistanceMeters>NAN</DistanceMeters>
          </Trackpoint>
          <Trackpoint>
            <Time>2021-08-12T14:27:37.000Z</Time>
            <Position>
              <LatitudeDegrees>43.29420827329158782958984375</LatitudeDegrees>
              <LongitudeDegrees>-2.033068500459194183349609375</LongitudeDegrees>
            </Position>
            <AltitudeMeters>54.40000152587890625</AltitudeMeters>
            <DistanceMeters>NAN</DistanceMeters>
          </Trackpoint>
          <Trackpoint>
            <Time>2021-08-12T14:27:40.000Z</Time>
            <Position>
              <LatitudeDegrees>43.29424506984651088714599609375</LatitudeDegrees>
              <LongitudeDegrees>-2.03324913047254085540771484375</LongitudeDegrees>
            </Position>
            <AltitudeMeters>55.59999847412109375</AltitudeMeters>
            <DistanceMeters>NAN</DistanceMeters>
          </Trackpoint>
          <Trackpoint>
            <Time>2021-08-12T14:27:42.000Z</Time>
            <Position>
              <LatitudeDegrees>43.2943090237677097320556640625</LatitudeDegrees>
              <LongitudeDegrees>-2.03338307328522205352783203125</LongitudeDegrees>
            </Position>
            <AltitudeMeters>55.799999237060546875</AltitudeMeters>
            <DistanceMeters>NAN</DistanceMeters>
          </Trackpoint>
          <Trackpoint>
            <Time>2021-08-12T14:27:46.000Z</Time>
            <Position>
              <LatitudeDegrees>43.29448160715401172637939453125</LatitudeDegrees>
              <LongitudeDegrees>-2.03364358283579349517822265625</LongitudeDegrees>
            </Position>
            <AltitudeMeters>56</AltitudeMeters>
            <DistanceMeters>NAN</DistanceMeters>
          </Trackpoint>
          <Trackpoint>
            <Time>2021-08-12T14:27:47.000Z</Time>
            <Position>
              <LatitudeDegrees>43.2945195771753787994384765625</LatitudeDegrees>
              <LongitudeDegrees>-2.0337506197392940521240234375</LongitudeDegrees>
            </Position>
            <AltitudeMeters>55.799999237060546875</AltitudeMeters>
            <DistanceMeters>NAN</DistanceMeters>
          </Trackpoint>
          <Trackpoint>
            <Time>2021-08-12T14:27:49.000Z</Time>
            <Position>
              <LatitudeDegrees>43.29455293715000152587890625</LatitudeDegrees>
              <LongitudeDegrees>-2.0339195989072322845458984375</LongitudeDegrees>
            </Position>
            <AltitudeMeters>55.59999847412109375</AltitudeMeters>
            <DistanceMeters>NAN</DistanceMeters>
          </Trackpoint>
          <Trackpoint>
            <Time>2021-08-12T14:27:50.000Z</Time>
            <Position>
              <LatitudeDegrees>43.2945614866912364959716796875</LatitudeDegrees>
              <LongitudeDegrees>-2.03397802077233791351318359375</LongitudeDegrees>
            </Position>
            <AltitudeMeters>55.40000152587890625</AltitudeMeters>
            <DistanceMeters>NAN</DistanceMeters>
          </Trackpoint>
          <Trackpoint>
            <Time>2021-08-12T14:27:51.000Z</Time>
            <Position>
              <LatitudeDegrees>43.29457950778305530548095703125</LatitudeDegrees>
              <LongitudeDegrees>-2.03405915759503841400146484375</LongitudeDegrees>
            </Position>
            <AltitudeMeters>55.40000152587890625</AltitudeMeters>
            <DistanceMeters>NAN</DistanceMeters>
          </Trackpoint>
          <Trackpoint>
            <Time>2021-08-12T14:27:52.000Z</Time>
            <Position>
              <LatitudeDegrees>43.29460121691226959228515625</LatitudeDegrees>
              <LongitudeDegrees>-2.03411732800304889678955078125</LongitudeDegrees>
            </Position>
            <AltitudeMeters>55</AltitudeMeters>
            <DistanceMeters>NAN</DistanceMeters>
          </Trackpoint>
          <Trackpoint>
            <Time>2021-08-12T14:27:53.000Z</Time>
            <Position>
              <LatitudeDegrees>43.2946204952895641326904296875</LatitudeDegrees>
              <LongitudeDegrees>-2.03416208736598491668701171875</LongitudeDegrees>
            </Position>
            <AltitudeMeters>55</AltitudeMeters>
            <DistanceMeters>NAN</DistanceMeters>
          </Trackpoint>
          <Trackpoint>
            <Time>2021-08-12T14:27:54.000Z</Time>
            <Position>
              <LatitudeDegrees>43.29464153386652469635009765625</LatitudeDegrees>
              <LongitudeDegrees>-2.0342089422047138214111328125</LongitudeDegrees>
            </Position>
            <AltitudeMeters>55</AltitudeMeters>
            <DistanceMeters>NAN</DistanceMeters>
          </Trackpoint>
          <Trackpoint>
            <Time>2021-08-12T14:27:55.000Z</Time>
            <Position>
              <LatitudeDegrees>43.29466533847153186798095703125</LatitudeDegrees>
              <LongitudeDegrees>-2.03425395302474498748779296875</LongitudeDegrees>
            </Position>
            <AltitudeMeters>55</AltitudeMeters>
            <DistanceMeters>NAN</DistanceMeters>
          </Trackpoint>
          <Trackpoint>
            <Time>2021-08-12T14:27:56.000Z</Time>
            <Position>
              <LatitudeDegrees>43.294690735638141632080078125</LatitudeDegrees>
              <LongitudeDegrees>-2.0342961139976978302001953125</LongitudeDegrees>
            </Position>
            <AltitudeMeters>55</AltitudeMeters>
            <DistanceMeters>NAN</DistanceMeters>
          </Trackpoint>
          <Trackpoint>
            <Time>2021-08-12T14:27:59.000Z</Time>
            <Position>
              <LatitudeDegrees>43.2947800867259502410888671875</LatitudeDegrees>
              <LongitudeDegrees>-2.0344131253659725189208984375</LongitudeDegrees>
            </Position>
            <AltitudeMeters>55.40000152587890625</AltitudeMeters>
            <DistanceMeters>NAN</DistanceMeters>
          </Trackpoint>
          <Trackpoint>
            <Time>2021-08-12T14:28:00.000Z</Time>
            <Position>
              <LatitudeDegrees>43.294813446700572967529296875</LatitudeDegrees>
              <LongitudeDegrees>-2.0344523526728153228759765625</LongitudeDegrees>
            </Position>
            <AltitudeMeters>55.59999847412109375</AltitudeMeters>
            <DistanceMeters>NAN</DistanceMeters>
          </Trackpoint>
          <Trackpoint>
            <Time>2021-08-12T14:28:01.000Z</Time>
            <Position>
              <LatitudeDegrees>43.294847309589385986328125</LatitudeDegrees>
              <LongitudeDegrees>-2.03449107706546783447265625</LongitudeDegrees>
            </Position>
            <AltitudeMeters>55.59999847412109375</AltitudeMeters>
            <DistanceMeters>NAN</DistanceMeters>
          </Trackpoint>
          <Trackpoint>
            <Time>2021-08-12T14:28:04.000Z</Time>
            <Position>
              <LatitudeDegrees>43.2949597947299480438232421875</LatitudeDegrees>
              <LongitudeDegrees>-2.03462359495460987091064453125</LongitudeDegrees>
            </Position>
            <AltitudeMeters>55.799999237060546875</AltitudeMeters>
            <DistanceMeters>NAN</DistanceMeters>
          </Trackpoint>
          <Trackpoint>
            <Time>2021-08-12T14:28:06.000Z</Time>
            <Position>
              <LatitudeDegrees>43.29503866843879222869873046875</LatitudeDegrees>
              <LongitudeDegrees>-2.0347152091562747955322265625</LongitudeDegrees>
            </Position>
            <AltitudeMeters>55.799999237060546875</AltitudeMeters>
            <DistanceMeters>NAN</DistanceMeters>
          </Trackpoint>
          <Trackpoint>
            <Time>2021-08-12T14:28:07.000Z</Time>
            <Position>
              <LatitudeDegrees>43.29506180249154567718505859375</LatitudeDegrees>
              <LongitudeDegrees>-2.034743539988994598388671875</LongitudeDegrees>
            </Position>
            <AltitudeMeters>55.59999847412109375</AltitudeMeters>
            <DistanceMeters>NAN</DistanceMeters>
          </Trackpoint>
          <Trackpoint>
            <Time>2021-08-12T14:28:08.000Z</Time>
            <Position>
              <LatitudeDegrees>43.29508895985782146453857421875</LatitudeDegrees>
              <LongitudeDegrees>-2.034772373735904693603515625</LongitudeDegrees>
            </Position>
            <AltitudeMeters>55.59999847412109375</AltitudeMeters>
            <DistanceMeters>NAN</DistanceMeters>
          </Trackpoint>
          <Trackpoint>
            <Time>2021-08-12T14:28:09.000Z</Time>
            <Position>
              <LatitudeDegrees>43.29511427320539951324462890625</LatitudeDegrees>
              <LongitudeDegrees>-2.0348007045686244964599609375</LongitudeDegrees>
            </Position>
            <AltitudeMeters>55.59999847412109375</AltitudeMeters>
            <DistanceMeters>NAN</DistanceMeters>
          </Trackpoint>
          <Trackpoint>
            <Time>2021-08-12T14:28:10.000Z</Time>
            <Position>
              <LatitudeDegrees>43.295138664543628692626953125</LatitudeDegrees>
              <LongitudeDegrees>-2.034826688468456268310546875</LongitudeDegrees>
            </Position>
            <AltitudeMeters>55.40000152587890625</AltitudeMeters>
            <DistanceMeters>NAN</DistanceMeters>
          </Trackpoint>
          <Trackpoint>
            <Time>2021-08-12T14:28:11.000Z</Time>
            <Position>
              <LatitudeDegrees>43.29516355879604816436767578125</LatitudeDegrees>
              <LongitudeDegrees>-2.0348520018160343170166015625</LongitudeDegrees>
            </Position>
            <AltitudeMeters>55.200000762939453125</AltitudeMeters>
            <DistanceMeters>NAN</DistanceMeters>
          </Trackpoint>
          <Trackpoint>
            <Time>2021-08-12T14:28:12.000Z</Time>
            <Position>
              <LatitudeDegrees>43.29518853686749935150146484375</LatitudeDegrees>
              <LongitudeDegrees>-2.03487957827746868133544921875</LongitudeDegrees>
            </Position>
            <AltitudeMeters>55.200000762939453125</AltitudeMeters>
            <DistanceMeters>NAN</DistanceMeters>
          </Trackpoint>
          <Trackpoint>
            <Time>2021-08-12T14:28:15.000Z</Time>
            <Position>
              <LatitudeDegrees>43.29529054462909698486328125</LatitudeDegrees>
              <LongitudeDegrees>-2.03498661518096923828125</LongitudeDegrees>
            </Position>
            <AltitudeMeters>54.799999237060546875</AltitudeMeters>
            <DistanceMeters>NAN</DistanceMeters>
          </Trackpoint>
          <Trackpoint>
            <Time>2021-08-12T14:28:17.000Z</Time>
            <Position>
              <LatitudeDegrees>43.295368663966655731201171875</LatitudeDegrees>
              <LongitudeDegrees>-2.03506984747946262359619140625</LongitudeDegrees>
            </Position>
            <AltitudeMeters>54.40000152587890625</AltitudeMeters>
            <DistanceMeters>NAN</DistanceMeters>
          </Trackpoint>
          <Trackpoint>
            <Time>2021-08-12T14:28:18.000Z</Time>
            <Position>
              <LatitudeDegrees>43.29540898092091083526611328125</LatitudeDegrees>
              <LongitudeDegrees>-2.03512064181268215179443359375</LongitudeDegrees>
            </Position>
            <AltitudeMeters>54.200000762939453125</AltitudeMeters>
            <DistanceMeters>NAN</DistanceMeters>
          </Trackpoint>
          <Trackpoint>
            <Time>2021-08-12T14:28:20.000Z</Time>
            <Position>
              <LatitudeDegrees>43.2954878546297550201416015625</LatitudeDegrees>
              <LongitudeDegrees>-2.03522860072553157806396484375</LongitudeDegrees>
            </Position>
            <AltitudeMeters>54</AltitudeMeters>
            <DistanceMeters>NAN</DistanceMeters>
          </Trackpoint>
          <Trackpoint>
            <Time>2021-08-12T14:28:24.000Z</Time>
            <Position>
              <LatitudeDegrees>43.29566462896764278411865234375</LatitudeDegrees>
              <LongitudeDegrees>-2.0355243980884552001953125</LongitudeDegrees>
            </Position>
            <AltitudeMeters>53</AltitudeMeters>
            <DistanceMeters>NAN</DistanceMeters>
          </Trackpoint>
          <Trackpoint>
            <Time>2021-08-12T14:28:25.000Z</Time>
            <Position>
              <LatitudeDegrees>43.29570285044610500335693359375</LatitudeDegrees>
              <LongitudeDegrees>-2.03558768145740032196044921875</LongitudeDegrees>
            </Position>
            <AltitudeMeters>52.799999237060546875</AltitudeMeters>
            <DistanceMeters>NAN</DistanceMeters>
          </Trackpoint>
          <Trackpoint>
            <Time>2021-08-12T14:28:28.000Z</Time>
            <Position>
              <LatitudeDegrees>43.29583059065043926239013671875</LatitudeDegrees>
              <LongitudeDegrees>-2.03583226539194583892822265625</LongitudeDegrees>
            </Position>
            <AltitudeMeters>52</AltitudeMeters>
            <DistanceMeters>NAN</DistanceMeters>
          </Trackpoint>
          <Trackpoint>
            <Time>2021-08-12T14:28:29.000Z</Time>
            <Position>
              <LatitudeDegrees>43.295867554843425750732421875</LatitudeDegrees>
              <LongitudeDegrees>-2.03591155819594860076904296875</LongitudeDegrees>
            </Position>
            <AltitudeMeters>51.59999847412109375</AltitudeMeters>
            <DistanceMeters>NAN</DistanceMeters>
          </Trackpoint>
          <Trackpoint>
            <Time>2021-08-12T14:28:31.000Z</Time>
            <Position>
              <LatitudeDegrees>43.2959535531699657440185546875</LatitudeDegrees>
              <LongitudeDegrees>-2.03605480492115020751953125</LongitudeDegrees>
            </Position>
            <AltitudeMeters>51</AltitudeMeters>
            <DistanceMeters>NAN</DistanceMeters>
          </Trackpoint>
          <Trackpoint>
            <Time>2021-08-12T14:28:32.000Z</Time>
            <Position>
              <LatitudeDegrees>43.29599303193390369415283203125</LatitudeDegrees>
              <LongitudeDegrees>-2.036125548183917999267578125</LongitudeDegrees>
            </Position>
            <AltitudeMeters>50.799999237060546875</AltitudeMeters>
            <DistanceMeters>NAN</DistanceMeters>
          </Trackpoint>
          <Trackpoint>
            <Time>2021-08-12T14:28:35.000Z</Time>
            <Position>
              <LatitudeDegrees>43.296096213161945343017578125</LatitudeDegrees>
              <LongitudeDegrees>-2.03635093756020069122314453125</LongitudeDegrees>
            </Position>
            <AltitudeMeters>50.40000152587890625</AltitudeMeters>
            <DistanceMeters>NAN</DistanceMeters>
          </Trackpoint>
          <Trackpoint>
            <Time>2021-08-12T14:28:36.000Z</Time>
            <Position>
              <LatitudeDegrees>43.29612672328948974609375</LatitudeDegrees>
              <LongitudeDegrees>-2.03642570413649082183837890625</LongitudeDegrees>
            </Position>
            <AltitudeMeters>50</AltitudeMeters>
            <DistanceMeters>NAN</DistanceMeters>
          </Trackpoint>
          <Trackpoint>
            <Time>2021-08-12T14:28:37.000Z</Time>
            <Position>
              <LatitudeDegrees>43.29615530557930469512939453125</LatitudeDegrees>
              <LongitudeDegrees>-2.03649678267538547515869140625</LongitudeDegrees>
            </Position>
            <AltitudeMeters>49.799999237060546875</AltitudeMeters>
            <DistanceMeters>NAN</DistanceMeters>
          </Trackpoint>
          <Trackpoint>
            <Time>2021-08-12T14:28:38.000Z</Time>
            <Position>
              <LatitudeDegrees>43.29618212766945362091064453125</LatitudeDegrees>
              <LongitudeDegrees>-2.03656802885234355926513671875</LongitudeDegrees>
            </Position>
            <AltitudeMeters>49.799999237060546875</AltitudeMeters>
            <DistanceMeters>NAN</DistanceMeters>
          </Trackpoint>
          <Trackpoint>
            <Time>2021-08-12T14:28:39.000Z</Time>
            <Position>
              <LatitudeDegrees>43.29620224423706531524658203125</LatitudeDegrees>
              <LongitudeDegrees>-2.03663055785000324249267578125</LongitudeDegrees>
            </Position>
            <AltitudeMeters>49.59999847412109375</AltitudeMeters>
            <DistanceMeters>NAN</DistanceMeters>
          </Trackpoint>
          <Trackpoint>
            <Time>2021-08-12T14:28:40.000Z</Time>
            <Position>
              <LatitudeDegrees>43.29621590673923492431640625</LatitudeDegrees>
              <LongitudeDegrees>-2.03668822534382343292236328125</LongitudeDegrees>
            </Position>
            <AltitudeMeters>49.59999847412109375</AltitudeMeters>
            <DistanceMeters>NAN</DistanceMeters>
          </Trackpoint>
          <Trackpoint>
            <Time>2021-08-12T14:28:41.000Z</Time>
            <Position>
              <LatitudeDegrees>43.29622529447078704833984375</LatitudeDegrees>
              <LongitudeDegrees>-2.03674488700926303863525390625</LongitudeDegrees>
            </Position>
            <AltitudeMeters>49.59999847412109375</AltitudeMeters>
            <DistanceMeters>NAN</DistanceMeters>
          </Trackpoint>
          <Trackpoint>
            <Time>2021-08-12T14:28:42.000Z</Time>
            <Position>
              <LatitudeDegrees>43.2962345145642757415771484375</LatitudeDegrees>
              <LongitudeDegrees>-2.036797106266021728515625</LongitudeDegrees>
            </Position>
            <AltitudeMeters>49.59999847412109375</AltitudeMeters>
            <DistanceMeters>NAN</DistanceMeters>
          </Trackpoint>
          <Trackpoint>
            <Time>2021-08-12T14:28:43.000Z</Time>
            <Position>
              <LatitudeDegrees>43.29624180682003498077392578125</LatitudeDegrees>
              <LongitudeDegrees>-2.036845050752162933349609375</LongitudeDegrees>
            </Position>
            <AltitudeMeters>49.59999847412109375</AltitudeMeters>
            <DistanceMeters>NAN</DistanceMeters>
          </Trackpoint>
          <Trackpoint>
            <Time>2021-08-12T14:28:44.000Z</Time>
            <Position>
              <LatitudeDegrees>43.29624951817095279693603515625</LatitudeDegrees>
              <LongitudeDegrees>-2.0368869602680206298828125</LongitudeDegrees>
            </Position>
            <AltitudeMeters>49.59999847412109375</AltitudeMeters>
            <DistanceMeters>NAN</DistanceMeters>
          </Trackpoint>
          <Trackpoint>
            <Time>2021-08-12T14:28:45.000Z</Time>
            <Position>
              <LatitudeDegrees>43.29625806771218776702880859375</LatitudeDegrees>
              <LongitudeDegrees>-2.03692518174648284912109375</LongitudeDegrees>
            </Position>
            <AltitudeMeters>49.59999847412109375</AltitudeMeters>
            <DistanceMeters>NAN</DistanceMeters>
          </Trackpoint>
          <Trackpoint>
            <Time>2021-08-12T14:28:46.000Z</Time>
            <Position>
              <LatitudeDegrees>43.29626779071986675262451171875</LatitudeDegrees>
              <LongitudeDegrees>-2.03696248121559619903564453125</LongitudeDegrees>
            </Position>
            <AltitudeMeters>49.59999847412109375</AltitudeMeters>
            <DistanceMeters>NAN</DistanceMeters>
          </Trackpoint>
          <Trackpoint>
            <Time>2021-08-12T14:28:47.000Z</Time>
            <Position>
              <LatitudeDegrees>43.296275921165943145751953125</LatitudeDegrees>
              <LongitudeDegrees>-2.03699835576117038726806640625</LongitudeDegrees>
            </Position>
            <AltitudeMeters>49.799999237060546875</AltitudeMeters>
            <DistanceMeters>NAN</DistanceMeters>
          </Trackpoint>
          <Trackpoint>
            <Time>2021-08-12T14:28:48.000Z</Time>
            <Position>
              <LatitudeDegrees>43.29628438688814640045166015625</LatitudeDegrees>
              <LongitudeDegrees>-2.037034146487712860107421875</LongitudeDegrees>
            </Position>
            <AltitudeMeters>49.799999237060546875</AltitudeMeters>
            <DistanceMeters>NAN</DistanceMeters>
          </Trackpoint>
          <Trackpoint>
            <Time>2021-08-12T14:28:49.000Z</Time>
            <Position>
              <LatitudeDegrees>43.29629528336226940155029296875</LatitudeDegrees>
              <LongitudeDegrees>-2.0370601303875446319580078125</LongitudeDegrees>
            </Position>
            <AltitudeMeters>49.799999237060546875</AltitudeMeters>
            <DistanceMeters>NAN</DistanceMeters>
          </Trackpoint>
          <Trackpoint>
            <Time>2021-08-12T14:28:50.000Z</Time>
            <Position>
              <LatitudeDegrees>43.29630835913121700286865234375</LatitudeDegrees>
              <LongitudeDegrees>-2.0370926521718502044677734375</LongitudeDegrees>
            </Position>
            <AltitudeMeters>50</AltitudeMeters>
            <DistanceMeters>NAN</DistanceMeters>
          </Trackpoint>
          <Trackpoint>
            <Time>2021-08-12T14:28:51.000Z</Time>
            <Position>
              <LatitudeDegrees>43.29631514847278594970703125</LatitudeDegrees>
              <LongitudeDegrees>-2.0371328853070735931396484375</LongitudeDegrees>
            </Position>
            <AltitudeMeters>50.200000762939453125</AltitudeMeters>
            <DistanceMeters>NAN</DistanceMeters>
          </Trackpoint>
          <Trackpoint>
            <Time>2021-08-12T14:28:52.000Z</Time>
            <Position>
              <LatitudeDegrees>43.296316824853420257568359375</LatitudeDegrees>
              <LongitudeDegrees>-2.03716515563428401947021484375</LongitudeDegrees>
            </Position>
            <AltitudeMeters>50.200000762939453125</AltitudeMeters>
            <DistanceMeters>NAN</DistanceMeters>
          </Trackpoint>
          <Trackpoint>
            <Time>2021-08-12T14:28:53.000Z</Time>
            <Position>
              <LatitudeDegrees>43.296310119330883026123046875</LatitudeDegrees>
              <LongitudeDegrees>-2.03719767741858959197998046875</LongitudeDegrees>
            </Position>
            <AltitudeMeters>50.200000762939453125</AltitudeMeters>
            <DistanceMeters>NAN</DistanceMeters>
          </Trackpoint>
          <Trackpoint>
            <Time>2021-08-12T14:28:54.000Z</Time>
            <Position>
              <LatitudeDegrees>43.2962955348193645477294921875</LatitudeDegrees>
              <LongitudeDegrees>-2.0372297801077365875244140625</LongitudeDegrees>
            </Position>
            <AltitudeMeters>50.200000762939453125</AltitudeMeters>
            <DistanceMeters>NAN</DistanceMeters>
          </Trackpoint>
          <Trackpoint>
            <Time>2021-08-12T14:28:55.000Z</Time>
            <Position>
              <LatitudeDegrees>43.29626980237662792205810546875</LatitudeDegrees>
              <LongitudeDegrees>-2.0372545905411243438720703125</LongitudeDegrees>
            </Position>
            <AltitudeMeters>50.40000152587890625</AltitudeMeters>
            <DistanceMeters>NAN</DistanceMeters>
          </Trackpoint>
          <Trackpoint>
            <Time>2021-08-12T14:28:56.000Z</Time>
            <Position>
              <LatitudeDegrees>43.296250440180301666259765625</LatitudeDegrees>
              <LongitudeDegrees>-2.03727277927100658416748046875</LongitudeDegrees>
            </Position>
            <AltitudeMeters>50.40000152587890625</AltitudeMeters>
            <DistanceMeters>NAN</DistanceMeters>
          </Trackpoint>
          <Trackpoint>
            <Time>2021-08-12T14:28:57.000Z</Time>
            <Position>
              <LatitudeDegrees>43.29623476602137088775634765625</LatitudeDegrees>
              <LongitudeDegrees>-2.0372867770493030548095703125</LongitudeDegrees>
            </Position>
            <AltitudeMeters>50.40000152587890625</AltitudeMeters>
            <DistanceMeters>NAN</DistanceMeters>
          </Trackpoint>
          <Trackpoint>
            <Time>2021-08-12T14:28:58.000Z</Time>
            <Position>
              <LatitudeDegrees>43.2962194271385669708251953125</LatitudeDegrees>
              <LongitudeDegrees>-2.03730010427534580230712890625</LongitudeDegrees>
            </Position>
            <AltitudeMeters>50.59999847412109375</AltitudeMeters>
            <DistanceMeters>NAN</DistanceMeters>
          </Trackpoint>
          <Trackpoint>
            <Time>2021-08-12T14:28:59.000Z</Time>
            <Position>
              <LatitudeDegrees>43.29620827920734882354736328125</LatitudeDegrees>
              <LongitudeDegrees>-2.03731804154813289642333984375</LongitudeDegrees>
            </Position>
            <AltitudeMeters>50.799999237060546875</AltitudeMeters>
            <DistanceMeters>NAN</DistanceMeters>
          </Trackpoint>
          <Trackpoint>
            <Time>2021-08-12T14:29:00.000Z</Time>
            <Position>
              <LatitudeDegrees>43.29619989730417728424072265625</LatitudeDegrees>
              <LongitudeDegrees>-2.03733555972576141357421875</LongitudeDegrees>
            </Position>
            <AltitudeMeters>51</AltitudeMeters>
            <DistanceMeters>NAN</DistanceMeters>
          </Trackpoint>
          <Trackpoint>
            <Time>2021-08-12T14:29:01.000Z</Time>
            <Position>
              <LatitudeDegrees>43.29618774354457855224609375</LatitudeDegrees>
              <LongitudeDegrees>-2.03735006041824817657470703125</LongitudeDegrees>
            </Position>
            <AltitudeMeters>51</AltitudeMeters>
            <DistanceMeters>NAN</DistanceMeters>
          </Trackpoint>
          <Trackpoint>
            <Time>2021-08-12T14:29:02.000Z</Time>
            <Position>
              <LatitudeDegrees>43.296175338327884674072265625</LatitudeDegrees>
              <LongitudeDegrees>-2.0373612083494663238525390625</LongitudeDegrees>
            </Position>
            <AltitudeMeters>51.200000762939453125</AltitudeMeters>
            <DistanceMeters>NAN</DistanceMeters>
          </Trackpoint>
          <Trackpoint>
            <Time>2021-08-12T14:29:03.000Z</Time>
            <Position>
              <LatitudeDegrees>43.29615689814090728759765625</LatitudeDegrees>
              <LongitudeDegrees>-2.03737135045230388641357421875</LongitudeDegrees>
            </Position>
            <AltitudeMeters>51.40000152587890625</AltitudeMeters>
            <DistanceMeters>NAN</DistanceMeters>
          </Trackpoint>
          <Trackpoint>
            <Time>2021-08-12T14:29:04.000Z</Time>
            <Position>
              <LatitudeDegrees>43.29614491201937198638916015625</LatitudeDegrees>
              <LongitudeDegrees>-2.0373833365738391876220703125</LongitudeDegrees>
            </Position>
            <AltitudeMeters>51.799999237060546875</AltitudeMeters>
            <DistanceMeters>NAN</DistanceMeters>
          </Trackpoint>
          <Trackpoint>
            <Time>2021-08-12T14:29:05.000Z</Time>
            <Position>
              <LatitudeDegrees>43.29613133333623409271240234375</LatitudeDegrees>
              <LongitudeDegrees>-2.03739347867667675018310546875</LongitudeDegrees>
            </Position>
            <AltitudeMeters>52.200000762939453125</AltitudeMeters>
            <DistanceMeters>NAN</DistanceMeters>
          </Trackpoint>
          <Trackpoint>
            <Time>2021-08-12T14:29:06.000Z</Time>
            <Position>
              <LatitudeDegrees>43.2961164973676204681396484375</LatitudeDegrees>
              <LongitudeDegrees>-2.03740253113210201263427734375</LongitudeDegrees>
            </Position>
            <AltitudeMeters>52.40000152587890625</AltitudeMeters>
            <DistanceMeters>NAN</DistanceMeters>
          </Trackpoint>
          <Trackpoint>
            <Time>2021-08-12T14:29:07.000Z</Time>
            <Position>
              <LatitudeDegrees>43.29610459506511688232421875</LatitudeDegrees>
              <LongitudeDegrees>-2.03741275705397129058837890625</LongitudeDegrees>
            </Position>
            <AltitudeMeters>52.799999237060546875</AltitudeMeters>
            <DistanceMeters>NAN</DistanceMeters>
          </Trackpoint>
          <Trackpoint>
            <Time>2021-08-12T14:29:08.000Z</Time>
            <Position>
              <LatitudeDegrees>43.29609529115259647369384765625</LatitudeDegrees>
              <LongitudeDegrees>-2.03742264769971370697021484375</LongitudeDegrees>
            </Position>
            <AltitudeMeters>53</AltitudeMeters>
            <DistanceMeters>NAN</DistanceMeters>
          </Trackpoint>
          <Trackpoint>
            <Time>2021-08-12T14:29:11.000Z</Time>
            <Position>
              <LatitudeDegrees>43.29606511630117893218994140625</LatitudeDegrees>
              <LongitudeDegrees>-2.03746388666331768035888671875</LongitudeDegrees>
            </Position>
            <AltitudeMeters>54</AltitudeMeters>
            <DistanceMeters>NAN</DistanceMeters>
          </Trackpoint>
          <Trackpoint>
            <Time>2021-08-12T14:29:12.000Z</Time>
            <Position>
              <LatitudeDegrees>43.29606176353991031646728515625</LatitudeDegrees>
              <LongitudeDegrees>-2.03747394494712352752685546875</LongitudeDegrees>
            </Position>
            <AltitudeMeters>54.40000152587890625</AltitudeMeters>
            <DistanceMeters>NAN</DistanceMeters>
          </Trackpoint>
          <Trackpoint>
            <Time>2021-08-12T14:29:13.000Z</Time>
            <Position>
              <LatitudeDegrees>43.29605388455092906951904296875</LatitudeDegrees>
              <LongitudeDegrees>-2.03749339096248149871826171875</LongitudeDegrees>
            </Position>
            <AltitudeMeters>54.59999847412109375</AltitudeMeters>
            <DistanceMeters>NAN</DistanceMeters>
          </Trackpoint>
          <Trackpoint>
            <Time>2021-08-12T14:29:14.000Z</Time>
            <Position>
              <LatitudeDegrees>43.2960410602390766143798828125</LatitudeDegrees>
              <LongitudeDegrees>-2.0375077240169048309326171875</LongitudeDegrees>
            </Position>
            <AltitudeMeters>54.799999237060546875</AltitudeMeters>
            <DistanceMeters>NAN</DistanceMeters>
          </Trackpoint>
          <Trackpoint>
            <Time>2021-08-12T14:29:15.000Z</Time>
            <Position>
              <LatitudeDegrees>43.29603443853557109832763671875</LatitudeDegrees>
              <LongitudeDegrees>-2.03752457164227962493896484375</LongitudeDegrees>
            </Position>
            <AltitudeMeters>55</AltitudeMeters>
            <DistanceMeters>NAN</DistanceMeters>
          </Trackpoint>
          <Trackpoint>
            <Time>2021-08-12T14:29:16.000Z</Time>
            <Position>
              <LatitudeDegrees>43.2960234582424163818359375</LatitudeDegrees>
              <LongitudeDegrees>-2.037543766200542449951171875</LongitudeDegrees>
            </Position>
            <AltitudeMeters>55.40000152587890625</AltitudeMeters>
            <DistanceMeters>NAN</DistanceMeters>
          </Trackpoint>
          <Trackpoint>
            <Time>2021-08-12T14:29:17.000Z</Time>
            <Position>
              <LatitudeDegrees>43.29601499252021312713623046875</LatitudeDegrees>
              <LongitudeDegrees>-2.037560530006885528564453125</LongitudeDegrees>
            </Position>
            <AltitudeMeters>55.59999847412109375</AltitudeMeters>
            <DistanceMeters>NAN</DistanceMeters>
          </Trackpoint>
          <Trackpoint>
            <Time>2021-08-12T14:29:18.000Z</Time>
            <Position>
              <LatitudeDegrees>43.29600795172154903411865234375</LatitudeDegrees>
              <LongitudeDegrees>-2.03757402487099170684814453125</LongitudeDegrees>
            </Position>
            <AltitudeMeters>56</AltitudeMeters>
            <DistanceMeters>NAN</DistanceMeters>
          </Trackpoint>
          <Trackpoint>
            <Time>2021-08-12T14:29:19.000Z</Time>
            <Position>
              <LatitudeDegrees>43.29599923454225063323974609375</LatitudeDegrees>
              <LongitudeDegrees>-2.03758902847766876220703125</LongitudeDegrees>
            </Position>
            <AltitudeMeters>56.40000152587890625</AltitudeMeters>
            <DistanceMeters>NAN</DistanceMeters>
          </Trackpoint>
          <Trackpoint>
            <Time>2021-08-12T14:29:20.000Z</Time>
            <Position>
              <LatitudeDegrees>43.295992277562618255615234375</LatitudeDegrees>
              <LongitudeDegrees>-2.0376042835414409637451171875</LongitudeDegrees>
            </Position>
            <AltitudeMeters>56.59999847412109375</AltitudeMeters>
            <DistanceMeters>NAN</DistanceMeters>
          </Trackpoint>
          <Trackpoint>
            <Time>2021-08-12T14:29:21.000Z</Time>
            <Position>
              <LatitudeDegrees>43.295985572040081024169921875</LatitudeDegrees>
              <LongitudeDegrees>-2.03762113116681575775146484375</LongitudeDegrees>
            </Position>
            <AltitudeMeters>56.799999237060546875</AltitudeMeters>
            <DistanceMeters>NAN</DistanceMeters>
          </Trackpoint>
          <Trackpoint>
            <Time>2021-08-12T14:29:22.000Z</Time>
            <Position>
              <LatitudeDegrees>43.29597660340368747711181640625</LatitudeDegrees>
              <LongitudeDegrees>-2.03763940371572971343994140625</LongitudeDegrees>
            </Position>
            <AltitudeMeters>57</AltitudeMeters>
            <DistanceMeters>NAN</DistanceMeters>
          </Trackpoint>
          <Trackpoint>
            <Time>2021-08-12T14:29:23.000Z</Time>
            <Position>
              <LatitudeDegrees>43.29596838913857936859130859375</LatitudeDegrees>
              <LongitudeDegrees>-2.03765767626464366912841796875</LongitudeDegrees>
            </Position>
            <AltitudeMeters>57.200000762939453125</AltitudeMeters>
            <DistanceMeters>NAN</DistanceMeters>
          </Trackpoint>
          <Trackpoint>
            <Time>2021-08-12T14:29:24.000Z</Time>
            <Position>
              <LatitudeDegrees>43.29596268944442272186279296875</LatitudeDegrees>
              <LongitudeDegrees>-2.0376780442893505096435546875</LongitudeDegrees>
            </Position>
            <AltitudeMeters>57.40000152587890625</AltitudeMeters>
            <DistanceMeters>NAN</DistanceMeters>
          </Trackpoint>
          <Trackpoint>
            <Time>2021-08-12T14:29:25.000Z</Time>
            <Position>
              <LatitudeDegrees>43.29595631919801235198974609375</LatitudeDegrees>
              <LongitudeDegrees>-2.03769740648567676544189453125</LongitudeDegrees>
            </Position>
            <AltitudeMeters>57.799999237060546875</AltitudeMeters>
            <DistanceMeters>NAN</DistanceMeters>
          </Trackpoint>
          <Trackpoint>
            <Time>2021-08-12T14:29:26.000Z</Time>
            <Position>
              <LatitudeDegrees>43.29594844020903110504150390625</LatitudeDegrees>
              <LongitudeDegrees>-2.03771685250103473663330078125</LongitudeDegrees>
            </Position>
            <AltitudeMeters>58</AltitudeMeters>
            <DistanceMeters>NAN</DistanceMeters>
          </Trackpoint>
          <Trackpoint>
            <Time>2021-08-12T14:29:27.000Z</Time>
            <Position>
              <LatitudeDegrees>43.295940645039081573486328125</LatitudeDegrees>
              <LongitudeDegrees>-2.03773654997348785400390625</LongitudeDegrees>
            </Position>
            <AltitudeMeters>58.200000762939453125</AltitudeMeters>
            <DistanceMeters>NAN</DistanceMeters>
          </Trackpoint>
          <Trackpoint>
            <Time>2021-08-12T14:29:28.000Z</Time>
            <Position>
              <LatitudeDegrees>43.295936621725559234619140625</LatitudeDegrees>
              <LongitudeDegrees>-2.03775666654109954833984375</LongitudeDegrees>
            </Position>
            <AltitudeMeters>58.40000152587890625</AltitudeMeters>
            <DistanceMeters>NAN</DistanceMeters>
          </Trackpoint>
          <Trackpoint>
            <Time>2021-08-12T14:29:29.000Z</Time>
            <Position>
              <LatitudeDegrees>43.2959300838410854339599609375</LatitudeDegrees>
              <LongitudeDegrees>-2.0377776212990283966064453125</LongitudeDegrees>
            </Position>
            <AltitudeMeters>58.59999847412109375</AltitudeMeters>
            <DistanceMeters>NAN</DistanceMeters>
          </Trackpoint>
          <Trackpoint>
            <Time>2021-08-12T14:29:30.000Z</Time>
            <Position>
              <LatitudeDegrees>43.29592564143240451812744140625</LatitudeDegrees>
              <LongitudeDegrees>-2.037799917161464691162109375</LongitudeDegrees>
            </Position>
            <AltitudeMeters>58.59999847412109375</AltitudeMeters>
            <DistanceMeters>NAN</DistanceMeters>
          </Trackpoint>
          <Trackpoint>
            <Time>2021-08-12T14:29:31.000Z</Time>
            <Position>
              <LatitudeDegrees>43.29592077992856502532958984375</LatitudeDegrees>
              <LongitudeDegrees>-2.03782179392874240875244140625</LongitudeDegrees>
            </Position>
            <AltitudeMeters>58.799999237060546875</AltitudeMeters>
            <DistanceMeters>NAN</DistanceMeters>
          </Trackpoint>
          <Trackpoint>
            <Time>2021-08-12T14:29:32.000Z</Time>
            <Position>
              <LatitudeDegrees>43.29591415822505950927734375</LatitudeDegrees>
              <LongitudeDegrees>-2.0378423295915126800537109375</LongitudeDegrees>
            </Position>
            <AltitudeMeters>59</AltitudeMeters>
            <DistanceMeters>NAN</DistanceMeters>
          </Trackpoint>
          <Trackpoint>
            <Time>2021-08-12T14:29:33.000Z</Time>
            <Position>
              <LatitudeDegrees>43.2959059439599514007568359375</LatitudeDegrees>
              <LongitudeDegrees>-2.03786370344460010528564453125</LongitudeDegrees>
            </Position>
            <AltitudeMeters>59.200000762939453125</AltitudeMeters>
            <DistanceMeters>NAN</DistanceMeters>
          </Trackpoint>
          <Trackpoint>
            <Time>2021-08-12T14:29:34.000Z</Time>
            <Position>
              <LatitudeDegrees>43.2959002442657947540283203125</LatitudeDegrees>
              <LongitudeDegrees>-2.03788801096379756927490234375</LongitudeDegrees>
            </Position>
            <AltitudeMeters>59.200000762939453125</AltitudeMeters>
            <DistanceMeters>NAN</DistanceMeters>
          </Trackpoint>
          <Trackpoint>
            <Time>2021-08-12T14:29:35.000Z</Time>
            <Position>
              <LatitudeDegrees>43.295889012515544891357421875</LatitudeDegrees>
              <LongitudeDegrees>-2.0379164256155490875244140625</LongitudeDegrees>
            </Position>
            <AltitudeMeters>59.40000152587890625</AltitudeMeters>
            <DistanceMeters>NAN</DistanceMeters>
          </Trackpoint>
          <Trackpoint>
            <Time>2021-08-12T14:29:36.000Z</Time>
            <Position>
              <LatitudeDegrees>43.29588306136429309844970703125</LatitudeDegrees>
              <LongitudeDegrees>-2.03793847002089023590087890625</LongitudeDegrees>
            </Position>
            <AltitudeMeters>59.40000152587890625</AltitudeMeters>
            <DistanceMeters>NAN</DistanceMeters>
          </Trackpoint>
          <Trackpoint>
            <Time>2021-08-12T14:29:37.000Z</Time>
            <Position>
              <LatitudeDegrees>43.295871913433074951171875</LatitudeDegrees>
              <LongitudeDegrees>-2.037960179150104522705078125</LongitudeDegrees>
            </Position>
            <AltitudeMeters>59.59999847412109375</AltitudeMeters>
            <DistanceMeters>NAN</DistanceMeters>
          </Trackpoint>
          <Trackpoint>
            <Time>2021-08-12T14:29:38.000Z</Time>
            <Position>
              <LatitudeDegrees>43.29586428590118885040283203125</LatitudeDegrees>
              <LongitudeDegrees>-2.03797786496579647064208984375</LongitudeDegrees>
            </Position>
            <AltitudeMeters>59.799999237060546875</AltitudeMeters>
            <DistanceMeters>NAN</DistanceMeters>
          </Trackpoint>
          <Trackpoint>
            <Time>2021-08-12T14:29:39.000Z</Time>
            <Position>
              <LatitudeDegrees>43.2958546467125415802001953125</LatitudeDegrees>
              <LongitudeDegrees>-2.03800477087497711181640625</LongitudeDegrees>
            </Position>
            <AltitudeMeters>59.799999237060546875</AltitudeMeters>
            <DistanceMeters>NAN</DistanceMeters>
          </Trackpoint>
          <Trackpoint>
            <Time>2021-08-12T14:29:40.000Z</Time>
            <Position>
              <LatitudeDegrees>43.29584701918065547943115234375</LatitudeDegrees>
              <LongitudeDegrees>-2.0380268990993499755859375</LongitudeDegrees>
            </Position>
            <AltitudeMeters>59.799999237060546875</AltitudeMeters>
            <DistanceMeters>NAN</DistanceMeters>
          </Trackpoint>
          <Trackpoint>
            <Time>2021-08-12T14:29:41.000Z</Time>
            <Position>
              <LatitudeDegrees>43.29583930782973766326904296875</LatitudeDegrees>
              <LongitudeDegrees>-2.0380478538572788238525390625</LongitudeDegrees>
            </Position>
            <AltitudeMeters>59.799999237060546875</AltitudeMeters>
            <DistanceMeters>NAN</DistanceMeters>
          </Trackpoint>
          <Trackpoint>
            <Time>2021-08-12T14:29:42.000Z</Time>
            <Position>
              <LatitudeDegrees>43.29583494924008846282958984375</LatitudeDegrees>
              <LongitudeDegrees>-2.03806922771036624908447265625</LongitudeDegrees>
            </Position>
            <AltitudeMeters>60</AltitudeMeters>
            <DistanceMeters>NAN</DistanceMeters>
          </Trackpoint>
          <Trackpoint>
            <Time>2021-08-12T14:29:43.000Z</Time>
            <Position>
              <LatitudeDegrees>43.29582975246012210845947265625</LatitudeDegrees>
              <LongitudeDegrees>-2.038086242973804473876953125</LongitudeDegrees>
            </Position>
            <AltitudeMeters>60</AltitudeMeters>
            <DistanceMeters>NAN</DistanceMeters>
          </Trackpoint>
          <Trackpoint>
            <Time>2021-08-12T14:29:44.000Z</Time>
            <Position>
              <LatitudeDegrees>43.29581684432923793792724609375</LatitudeDegrees>
              <LongitudeDegrees>-2.03811080195009708404541015625</LongitudeDegrees>
            </Position>
            <AltitudeMeters>60.200000762939453125</AltitudeMeters>
            <DistanceMeters>NAN</DistanceMeters>
          </Trackpoint>
          <Trackpoint>
            <Time>2021-08-12T14:29:45.000Z</Time>
            <Position>
              <LatitudeDegrees>43.29580678604543209075927734375</LatitudeDegrees>
              <LongitudeDegrees>-2.03813276253640651702880859375</LongitudeDegrees>
            </Position>
            <AltitudeMeters>60.40000152587890625</AltitudeMeters>
            <DistanceMeters>NAN</DistanceMeters>
          </Trackpoint>
          <Trackpoint>
            <Time>2021-08-12T14:29:46.000Z</Time>
            <Position>
              <LatitudeDegrees>43.29579303972423076629638671875</LatitudeDegrees>
              <LongitudeDegrees>-2.0381541363894939422607421875</LongitudeDegrees>
            </Position>
            <AltitudeMeters>60.40000152587890625</AltitudeMeters>
            <DistanceMeters>NAN</DistanceMeters>
          </Trackpoint>
          <Trackpoint>
            <Time>2021-08-12T14:29:47.000Z</Time>
            <Position>
              <LatitudeDegrees>43.29578080214560031890869140625</LatitudeDegrees>
              <LongitudeDegrees>-2.0381779409945011138916015625</LongitudeDegrees>
            </Position>
            <AltitudeMeters>60.799999237060546875</AltitudeMeters>
            <DistanceMeters>NAN</DistanceMeters>
          </Trackpoint>
          <Trackpoint>
            <Time>2021-08-12T14:29:48.000Z</Time>
            <Position>
              <LatitudeDegrees>43.29576931893825531005859375</LatitudeDegrees>
              <LongitudeDegrees>-2.03820099122822284698486328125</LongitudeDegrees>
            </Position>
            <AltitudeMeters>60.799999237060546875</AltitudeMeters>
            <DistanceMeters>NAN</DistanceMeters>
          </Trackpoint>
          <Trackpoint>
            <Time>2021-08-12T14:29:49.000Z</Time>
            <Position>
              <LatitudeDegrees>43.2957587577402591705322265625</LatitudeDegrees>
              <LongitudeDegrees>-2.03822068870067596435546875</LongitudeDegrees>
            </Position>
            <AltitudeMeters>61</AltitudeMeters>
            <DistanceMeters>NAN</DistanceMeters>
          </Trackpoint>
          <Trackpoint>
            <Time>2021-08-12T14:29:50.000Z</Time>
            <Position>
              <LatitudeDegrees>43.295748196542263031005859375</LatitudeDegrees>
              <LongitudeDegrees>-2.0382372848689556121826171875</LongitudeDegrees>
            </Position>
            <AltitudeMeters>61.200000762939453125</AltitudeMeters>
            <DistanceMeters>NAN</DistanceMeters>
          </Trackpoint>
          <Trackpoint>
            <Time>2021-08-12T14:29:51.000Z</Time>
            <Position>
              <LatitudeDegrees>43.29573822207748889923095703125</LatitudeDegrees>
              <LongitudeDegrees>-2.03826016746461391448974609375</LongitudeDegrees>
            </Position>
            <AltitudeMeters>61.40000152587890625</AltitudeMeters>
            <DistanceMeters>NAN</DistanceMeters>
          </Trackpoint>
          <Trackpoint>
            <Time>2021-08-12T14:29:52.000Z</Time>
            <Position>
              <LatitudeDegrees>43.29573084600269794464111328125</LatitudeDegrees>
              <LongitudeDegrees>-2.0382763445377349853515625</LongitudeDegrees>
            </Position>
            <AltitudeMeters>61.59999847412109375</AltitudeMeters>
            <DistanceMeters>NAN</DistanceMeters>
          </Trackpoint>
          <Trackpoint>
            <Time>2021-08-12T14:29:53.000Z</Time>
            <Position>
              <LatitudeDegrees>43.295722715556621551513671875</LatitudeDegrees>
              <LongitudeDegrees>-2.0382939465343952178955078125</LongitudeDegrees>
            </Position>
            <AltitudeMeters>61.59999847412109375</AltitudeMeters>
            <DistanceMeters>NAN</DistanceMeters>
          </Trackpoint>
          <Trackpoint>
            <Time>2021-08-12T14:29:54.000Z</Time>
            <Position>
              <LatitudeDegrees>43.29571609385311603546142578125</LatitudeDegrees>
              <LongitudeDegrees>-2.0383165776729583740234375</LongitudeDegrees>
            </Position>
            <AltitudeMeters>62</AltitudeMeters>
            <DistanceMeters>NAN</DistanceMeters>
          </Trackpoint>
          <Trackpoint>
            <Time>2021-08-12T14:29:55.000Z</Time>
            <Position>
              <LatitudeDegrees>43.295710645616054534912109375</LatitudeDegrees>
              <LongitudeDegrees>-2.03834080137312412261962890625</LongitudeDegrees>
            </Position>
            <AltitudeMeters>62</AltitudeMeters>
            <DistanceMeters>NAN</DistanceMeters>
          </Trackpoint>
          <Trackpoint>
            <Time>2021-08-12T14:29:56.000Z</Time>
            <Position>
              <LatitudeDegrees>43.29570653848350048065185546875</LatitudeDegrees>
              <LongitudeDegrees>-2.0383656956255435943603515625</LongitudeDegrees>
            </Position>
            <AltitudeMeters>62.40000152587890625</AltitudeMeters>
            <DistanceMeters>NAN</DistanceMeters>
          </Trackpoint>
          <Trackpoint>
            <Time>2021-08-12T14:29:57.000Z</Time>
            <Position>
              <LatitudeDegrees>43.29570452682673931121826171875</LatitudeDegrees>
              <LongitudeDegrees>-2.038389332592487335205078125</LongitudeDegrees>
            </Position>
            <AltitudeMeters>62.59999847412109375</AltitudeMeters>
            <DistanceMeters>NAN</DistanceMeters>
          </Trackpoint>
          <Trackpoint>
            <Time>2021-08-12T14:29:58.000Z</Time>
            <Position>
              <LatitudeDegrees>43.29570536501705646514892578125</LatitudeDegrees>
              <LongitudeDegrees>-2.03841053880751132965087890625</LongitudeDegrees>
            </Position>
            <AltitudeMeters>63</AltitudeMeters>
            <DistanceMeters>NAN</DistanceMeters>
          </Trackpoint>
          <Trackpoint>
            <Time>2021-08-12T14:29:59.000Z</Time>
            <Position>
              <LatitudeDegrees>43.29570435918867588043212890625</LatitudeDegrees>
              <LongitudeDegrees>-2.0384404622018337249755859375</LongitudeDegrees>
            </Position>
            <AltitudeMeters>63.40000152587890625</AltitudeMeters>
            <DistanceMeters>NAN</DistanceMeters>
          </Trackpoint>
          <Trackpoint>
            <Time>2021-08-12T14:30:00.000Z</Time>
            <Position>
              <LatitudeDegrees>43.2957051135599613189697265625</LatitudeDegrees>
              <LongitudeDegrees>-2.0384646020829677581787109375</LongitudeDegrees>
            </Position>
            <AltitudeMeters>63.59999847412109375</AltitudeMeters>
            <DistanceMeters>NAN</DistanceMeters>
          </Trackpoint>
          <Trackpoint>
            <Time>2021-08-12T14:30:01.000Z</Time>
            <Position>
              <LatitudeDegrees>43.29570670612156391143798828125</LatitudeDegrees>
              <LongitudeDegrees>-2.03848756849765777587890625</LongitudeDegrees>
            </Position>
            <AltitudeMeters>63.799999237060546875</AltitudeMeters>
            <DistanceMeters>NAN</DistanceMeters>
          </Trackpoint>
          <Trackpoint>
            <Time>2021-08-12T14:30:02.000Z</Time>
            <Position>
              <LatitudeDegrees>43.2957098074257373809814453125</LatitudeDegrees>
              <LongitudeDegrees>-2.03851078636944293975830078125</LongitudeDegrees>
            </Position>
            <AltitudeMeters>63.799999237060546875</AltitudeMeters>
            <DistanceMeters>NAN</DistanceMeters>
          </Trackpoint>
          <Trackpoint>
            <Time>2021-08-12T14:30:03.000Z</Time>
            <Position>
              <LatitudeDegrees>43.29571123234927654266357421875</LatitudeDegrees>
              <LongitudeDegrees>-2.0385289750993251800537109375</LongitudeDegrees>
            </Position>
            <AltitudeMeters>64</AltitudeMeters>
            <DistanceMeters>NAN</DistanceMeters>
          </Trackpoint>
          <Trackpoint>
            <Time>2021-08-12T14:30:04.000Z</Time>
            <Position>
              <LatitudeDegrees>43.29571391455829143524169921875</LatitudeDegrees>
              <LongitudeDegrees>-2.0385552942752838134765625</LongitudeDegrees>
            </Position>
            <AltitudeMeters>64</AltitudeMeters>
            <DistanceMeters>NAN</DistanceMeters>
          </Trackpoint>
          <Trackpoint>
            <Time>2021-08-12T14:30:05.000Z</Time>
            <Position>
              <LatitudeDegrees>43.29571642912924289703369140625</LatitudeDegrees>
              <LongitudeDegrees>-2.0385796017944812774658203125</LongitudeDegrees>
            </Position>
            <AltitudeMeters>64.40000152587890625</AltitudeMeters>
            <DistanceMeters>NAN</DistanceMeters>
          </Trackpoint>
          <Trackpoint>
            <Time>2021-08-12T14:30:06.000Z</Time>
            <Position>
              <LatitudeDegrees>43.295718692243099212646484375</LatitudeDegrees>
              <LongitudeDegrees>-2.03860265202820301055908203125</LongitudeDegrees>
            </Position>
            <AltitudeMeters>64.59999847412109375</AltitudeMeters>
            <DistanceMeters>NAN</DistanceMeters>
          </Trackpoint>
          <Trackpoint>
            <Time>2021-08-12T14:30:07.000Z</Time>
            <Position>
              <LatitudeDegrees>43.29571978189051151275634765625</LatitudeDegrees>
              <LongitudeDegrees>-2.0386285521090030670166015625</LongitudeDegrees>
            </Position>
            <AltitudeMeters>64.8000030517578125</AltitudeMeters>
            <DistanceMeters>NAN</DistanceMeters>
          </Trackpoint>
          <Trackpoint>
            <Time>2021-08-12T14:30:08.000Z</Time>
            <Position>
              <LatitudeDegrees>43.29572045244276523590087890625</LatitudeDegrees>
              <LongitudeDegrees>-2.0386483334004878997802734375</LongitudeDegrees>
            </Position>
            <AltitudeMeters>65</AltitudeMeters>
            <DistanceMeters>NAN</DistanceMeters>
          </Trackpoint>
          <Trackpoint>
            <Time>2021-08-12T14:30:09.000Z</Time>
            <Position>
              <LatitudeDegrees>43.29572103917598724365234375</LatitudeDegrees>
              <LongitudeDegrees>-2.0386754907667636871337890625</LongitudeDegrees>
            </Position>
            <AltitudeMeters>65.1999969482421875</AltitudeMeters>
            <DistanceMeters>NAN</DistanceMeters>
          </Trackpoint>
          <Trackpoint>
            <Time>2021-08-12T14:30:10.000Z</Time>
            <Position>
              <LatitudeDegrees>43.29572179354727268218994140625</LatitudeDegrees>
              <LongitudeDegrees>-2.0386979542672634124755859375</LongitudeDegrees>
            </Position>
            <AltitudeMeters>65.59999847412109375</AltitudeMeters>
            <DistanceMeters>NAN</DistanceMeters>
          </Trackpoint>
          <Trackpoint>
            <Time>2021-08-12T14:30:11.000Z</Time>
            <Position>
              <LatitudeDegrees>43.29572145827114582061767578125</LatitudeDegrees>
              <LongitudeDegrees>-2.03871480189263820648193359375</LongitudeDegrees>
            </Position>
            <AltitudeMeters>65.8000030517578125</AltitudeMeters>
            <DistanceMeters>NAN</DistanceMeters>
          </Trackpoint>
          <Trackpoint>
            <Time>2021-08-12T14:30:12.000Z</Time>
            <Position>
              <LatitudeDegrees>43.29572162590920925140380859375</LatitudeDegrees>
              <LongitudeDegrees>-2.038735337555408477783203125</LongitudeDegrees>
            </Position>
            <AltitudeMeters>66.1999969482421875</AltitudeMeters>
            <DistanceMeters>NAN</DistanceMeters>
          </Trackpoint>
          <Trackpoint>
            <Time>2021-08-12T14:30:13.000Z</Time>
            <Position>
              <LatitudeDegrees>43.2957235537469387054443359375</LatitudeDegrees>
              <LongitudeDegrees>-2.03875905834138393402099609375</LongitudeDegrees>
            </Position>
            <AltitudeMeters>66.40000152587890625</AltitudeMeters>
            <DistanceMeters>NAN</DistanceMeters>
          </Trackpoint>
          <Trackpoint>
            <Time>2021-08-12T14:30:14.000Z</Time>
            <Position>
              <LatitudeDegrees>43.29572699032723903656005859375</LatitudeDegrees>
              <LongitudeDegrees>-2.03878604806959629058837890625</LongitudeDegrees>
            </Position>
            <AltitudeMeters>66.8000030517578125</AltitudeMeters>
            <DistanceMeters>NAN</DistanceMeters>
          </Trackpoint>
          <Trackpoint>
            <Time>2021-08-12T14:30:15.000Z</Time>
            <Position>
              <LatitudeDegrees>43.29572900198400020599365234375</LatitudeDegrees>
              <LongitudeDegrees>-2.0388052426278591156005859375</LongitudeDegrees>
            </Position>
            <AltitudeMeters>67.1999969482421875</AltitudeMeters>
            <DistanceMeters>NAN</DistanceMeters>
          </Trackpoint>
          <Trackpoint>
            <Time>2021-08-12T14:30:16.000Z</Time>
            <Position>
              <LatitudeDegrees>43.2957316003739833831787109375</LatitudeDegrees>
              <LongitudeDegrees>-2.03882661648094654083251953125</LongitudeDegrees>
            </Position>
            <AltitudeMeters>67.40000152587890625</AltitudeMeters>
            <DistanceMeters>NAN</DistanceMeters>
          </Trackpoint>
          <Trackpoint>
            <Time>2021-08-12T14:30:17.000Z</Time>
            <Position>
              <LatitudeDegrees>43.29573553986847400665283203125</LatitudeDegrees>
              <LongitudeDegrees>-2.03884371556341648101806640625</LongitudeDegrees>
            </Position>
            <AltitudeMeters>67.59999847412109375</AltitudeMeters>
            <DistanceMeters>NAN</DistanceMeters>
          </Trackpoint>
          <Trackpoint>
            <Time>2021-08-12T14:30:18.000Z</Time>
            <Position>
              <LatitudeDegrees>43.29574274830520153045654296875</LatitudeDegrees>
              <LongitudeDegrees>-2.03886584378778934478759765625</LongitudeDegrees>
            </Position>
            <AltitudeMeters>67.8000030517578125</AltitudeMeters>
            <DistanceMeters>NAN</DistanceMeters>
          </Trackpoint>
          <Trackpoint>
            <Time>2021-08-12T14:30:19.000Z</Time>
            <Position>
              <LatitudeDegrees>43.29574878327548503875732421875</LatitudeDegrees>
              <LongitudeDegrees>-2.0388937555253505706787109375</LongitudeDegrees>
            </Position>
            <AltitudeMeters>68.1999969482421875</AltitudeMeters>
            <DistanceMeters>NAN</DistanceMeters>
          </Trackpoint>
          <Trackpoint>
            <Time>2021-08-12T14:30:20.000Z</Time>
            <Position>
              <LatitudeDegrees>43.29574920237064361572265625</LatitudeDegrees>
              <LongitudeDegrees>-2.038910351693630218505859375</LongitudeDegrees>
            </Position>
            <AltitudeMeters>68.59999847412109375</AltitudeMeters>
            <DistanceMeters>NAN</DistanceMeters>
          </Trackpoint>
          <Trackpoint>
            <Time>2021-08-12T14:30:21.000Z</Time>
            <Position>
              <LatitudeDegrees>43.29574383795261383056640625</LatitudeDegrees>
              <LongitudeDegrees>-2.03893038444221019744873046875</LongitudeDegrees>
            </Position>
            <AltitudeMeters>69</AltitudeMeters>
            <DistanceMeters>NAN</DistanceMeters>
          </Trackpoint>
          <Trackpoint>
            <Time>2021-08-12T14:30:22.000Z</Time>
            <Position>
              <LatitudeDegrees>43.29573537223041057586669921875</LatitudeDegrees>
              <LongitudeDegrees>-2.03894781880080699920654296875</LongitudeDegrees>
            </Position>
            <AltitudeMeters>69.59999847412109375</AltitudeMeters>
            <DistanceMeters>NAN</DistanceMeters>
          </Trackpoint>
          <Trackpoint>
            <Time>2021-08-12T14:30:23.000Z</Time>
            <Position>
              <LatitudeDegrees>43.29572346992790699005126953125</LatitudeDegrees>
              <LongitudeDegrees>-2.038957960903644561767578125</LongitudeDegrees>
            </Position>
            <AltitudeMeters>69.8000030517578125</AltitudeMeters>
            <DistanceMeters>NAN</DistanceMeters>
          </Trackpoint>
          <Trackpoint>
            <Time>2021-08-12T14:30:24.000Z</Time>
            <Position>
              <LatitudeDegrees>43.29571123234927654266357421875</LatitudeDegrees>
              <LongitudeDegrees>-2.03896139748394489288330078125</LongitudeDegrees>
            </Position>
            <AltitudeMeters>70</AltitudeMeters>
            <DistanceMeters>NAN</DistanceMeters>
          </Trackpoint>
          <Trackpoint>
            <Time>2021-08-12T14:30:25.000Z</Time>
            <Position>
              <LatitudeDegrees>43.29569497145712375640869140625</LatitudeDegrees>
              <LongitudeDegrees>-2.038957290351390838623046875</LongitudeDegrees>
            </Position>
            <AltitudeMeters>70.40000152587890625</AltitudeMeters>
            <DistanceMeters>NAN</DistanceMeters>
          </Trackpoint>
          <Trackpoint>
            <Time>2021-08-12T14:30:26.000Z</Time>
            <Position>
              <LatitudeDegrees>43.295683823525905609130859375</LatitudeDegrees>
              <LongitudeDegrees>-2.03894848935306072235107421875</LongitudeDegrees>
            </Position>
            <AltitudeMeters>70.59999847412109375</AltitudeMeters>
            <DistanceMeters>NAN</DistanceMeters>
          </Trackpoint>
          <Trackpoint>
            <Time>2021-08-12T14:30:27.000Z</Time>
            <Position>
              <LatitudeDegrees>43.29567049629986286163330078125</LatitudeDegrees>
              <LongitudeDegrees>-2.03893306665122509002685546875</LongitudeDegrees>
            </Position>
            <AltitudeMeters>71</AltitudeMeters>
            <DistanceMeters>NAN</DistanceMeters>
          </Trackpoint>
          <Trackpoint>
            <Time>2021-08-12T14:30:28.000Z</Time>
            <Position>
              <LatitudeDegrees>43.29566068947315216064453125</LatitudeDegrees>
              <LongitudeDegrees>-2.03891345299780368804931640625</LongitudeDegrees>
            </Position>
            <AltitudeMeters>71</AltitudeMeters>
            <DistanceMeters>NAN</DistanceMeters>
          </Trackpoint>
          <Trackpoint>
            <Time>2021-08-12T14:30:29.000Z</Time>
            <Position>
              <LatitudeDegrees>43.2956544868648052215576171875</LatitudeDegrees>
              <LongitudeDegrees>-2.03888981603085994720458984375</LongitudeDegrees>
            </Position>
            <AltitudeMeters>71.1999969482421875</AltitudeMeters>
            <DistanceMeters>NAN</DistanceMeters>
          </Trackpoint>
          <Trackpoint>
            <Time>2021-08-12T14:30:30.000Z</Time>
            <Position>
              <LatitudeDegrees>43.2956528104841709136962890625</LatitudeDegrees>
              <LongitudeDegrees>-2.038868106901645660400390625</LongitudeDegrees>
            </Position>
            <AltitudeMeters>71.1999969482421875</AltitudeMeters>
            <DistanceMeters>NAN</DistanceMeters>
          </Trackpoint>
          <Trackpoint>
            <Time>2021-08-12T14:30:31.000Z</Time>
            <Position>
              <LatitudeDegrees>43.2956528104841709136962890625</LatitudeDegrees>
              <LongitudeDegrees>-2.03884958289563655853271484375</LongitudeDegrees>
            </Position>
            <AltitudeMeters>71.1999969482421875</AltitudeMeters>
            <DistanceMeters>NAN</DistanceMeters>
          </Trackpoint>
          <Trackpoint>
            <Time>2021-08-12T14:30:32.000Z</Time>
            <Position>
              <LatitudeDegrees>43.2956501282751560211181640625</LatitudeDegrees>
              <LongitudeDegrees>-2.03882711939513683319091796875</LongitudeDegrees>
            </Position>
            <AltitudeMeters>71.1999969482421875</AltitudeMeters>
            <DistanceMeters>NAN</DistanceMeters>
          </Trackpoint>
          <Trackpoint>
            <Time>2021-08-12T14:30:33.000Z</Time>
            <Position>
              <LatitudeDegrees>43.29564459621906280517578125</LatitudeDegrees>
              <LongitudeDegrees>-2.03880406916141510009765625</LongitudeDegrees>
            </Position>
            <AltitudeMeters>71.40000152587890625</AltitudeMeters>
            <DistanceMeters>NAN</DistanceMeters>
          </Trackpoint>
          <Trackpoint>
            <Time>2021-08-12T14:30:34.000Z</Time>
            <Position>
              <LatitudeDegrees>43.295635879039764404296875</LatitudeDegrees>
              <LongitudeDegrees>-2.0387831144034862518310546875</LongitudeDegrees>
            </Position>
            <AltitudeMeters>71.40000152587890625</AltitudeMeters>
            <DistanceMeters>NAN</DistanceMeters>
          </Trackpoint>
          <Trackpoint>
            <Time>2021-08-12T14:30:35.000Z</Time>
            <Position>
              <LatitudeDegrees>43.29562808386981487274169921875</LatitudeDegrees>
              <LongitudeDegrees>-2.03876341693103313446044921875</LongitudeDegrees>
            </Position>
            <AltitudeMeters>71.40000152587890625</AltitudeMeters>
            <DistanceMeters>NAN</DistanceMeters>
          </Trackpoint>
          <Trackpoint>
            <Time>2021-08-12T14:30:36.000Z</Time>
            <Position>
              <LatitudeDegrees>43.29562246799468994140625</LatitudeDegrees>
              <LongitudeDegrees>-2.03875050880014896392822265625</LongitudeDegrees>
            </Position>
            <AltitudeMeters>71.59999847412109375</AltitudeMeters>
            <DistanceMeters>NAN</DistanceMeters>
          </Trackpoint>
          <Trackpoint>
            <Time>2021-08-12T14:30:37.000Z</Time>
            <Position>
              <LatitudeDegrees>43.295616768300533294677734375</LatitudeDegrees>
              <LongitudeDegrees>-2.03873022459447383880615234375</LongitudeDegrees>
            </Position>
            <AltitudeMeters>71.59999847412109375</AltitudeMeters>
            <DistanceMeters>NAN</DistanceMeters>
          </Trackpoint>
          <Trackpoint>
            <Time>2021-08-12T14:30:38.000Z</Time>
            <Position>
              <LatitudeDegrees>43.295606710016727447509765625</LatitudeDegrees>
              <LongitudeDegrees>-2.03870625235140323638916015625</LongitudeDegrees>
            </Position>
            <AltitudeMeters>71.8000030517578125</AltitudeMeters>
            <DistanceMeters>NAN</DistanceMeters>
          </Trackpoint>
          <Trackpoint>
            <Time>2021-08-12T14:30:39.000Z</Time>
            <Position>
              <LatitudeDegrees>43.295598663389682769775390625</LatitudeDegrees>
              <LongitudeDegrees>-2.0386905781924724578857421875</LongitudeDegrees>
            </Position>
            <AltitudeMeters>72</AltitudeMeters>
            <DistanceMeters>NAN</DistanceMeters>
          </Trackpoint>
          <Trackpoint>
            <Time>2021-08-12T14:30:40.000Z</Time>
            <Position>
              <LatitudeDegrees>43.2955874316394329071044921875</LatitudeDegrees>
              <LongitudeDegrees>-2.0386771671473979949951171875</LongitudeDegrees>
            </Position>
            <AltitudeMeters>72.1999969482421875</AltitudeMeters>
            <DistanceMeters>NAN</DistanceMeters>
          </Trackpoint>
          <Trackpoint>
            <Time>2021-08-12T14:30:41.000Z</Time>
            <Position>
              <LatitudeDegrees>43.2955740205943584442138671875</LatitudeDegrees>
              <LongitudeDegrees>-2.03866685740649700164794921875</LongitudeDegrees>
            </Position>
            <AltitudeMeters>72.40000152587890625</AltitudeMeters>
            <DistanceMeters>NAN</DistanceMeters>
          </Trackpoint>
          <Trackpoint>
            <Time>2021-08-12T14:30:42.000Z</Time>
            <Position>
              <LatitudeDegrees>43.29556186683475971221923828125</LatitudeDegrees>
              <LongitudeDegrees>-2.03865981660783290863037109375</LongitudeDegrees>
            </Position>
            <AltitudeMeters>72.40000152587890625</AltitudeMeters>
            <DistanceMeters>NAN</DistanceMeters>
          </Trackpoint>
          <Trackpoint>
            <Time>2021-08-12T14:30:43.000Z</Time>
            <Position>
              <LatitudeDegrees>43.29554694704711437225341796875</LatitudeDegrees>
              <LongitudeDegrees>-2.03865252435207366943359375</LongitudeDegrees>
            </Position>
            <AltitudeMeters>72.8000030517578125</AltitudeMeters>
            <DistanceMeters>NAN</DistanceMeters>
          </Trackpoint>
          <Trackpoint>
            <Time>2021-08-12T14:30:44.000Z</Time>
            <Position>
              <LatitudeDegrees>43.29553085379302501678466796875</LatitudeDegrees>
              <LongitudeDegrees>-2.03864715993404388427734375</LongitudeDegrees>
            </Position>
            <AltitudeMeters>73</AltitudeMeters>
            <DistanceMeters>NAN</DistanceMeters>
          </Trackpoint>
          <Trackpoint>
            <Time>2021-08-12T14:30:45.000Z</Time>
            <Position>
              <LatitudeDegrees>43.29551811330020427703857421875</LatitudeDegrees>
              <LongitudeDegrees>-2.038644813001155853271484375</LongitudeDegrees>
            </Position>
            <AltitudeMeters>73.1999969482421875</AltitudeMeters>
            <DistanceMeters>NAN</DistanceMeters>
          </Trackpoint>
          <Trackpoint>
            <Time>2021-08-12T14:30:46.000Z</Time>
            <Position>
              <LatitudeDegrees>43.29550486989319324493408203125</LatitudeDegrees>
              <LongitudeDegrees>-2.03864288516342639923095703125</LongitudeDegrees>
            </Position>
            <AltitudeMeters>73.1999969482421875</AltitudeMeters>
            <DistanceMeters>NAN</DistanceMeters>
          </Trackpoint>
          <Trackpoint>
            <Time>2021-08-12T14:30:47.000Z</Time>
            <Position>
              <LatitudeDegrees>43.29549296759068965911865234375</LatitudeDegrees>
              <LongitudeDegrees>-2.038639448583126068115234375</LongitudeDegrees>
            </Position>
            <AltitudeMeters>73.59999847412109375</AltitudeMeters>
            <DistanceMeters>NAN</DistanceMeters>
          </Trackpoint>
          <Trackpoint>
            <Time>2021-08-12T14:30:48.000Z</Time>
            <Position>
              <LatitudeDegrees>43.2954754494130611419677734375</LatitudeDegrees>
              <LongitudeDegrees>-2.0386362634599208831787109375</LongitudeDegrees>
            </Position>
            <AltitudeMeters>74</AltitudeMeters>
            <DistanceMeters>NAN</DistanceMeters>
          </Trackpoint>
          <Trackpoint>
            <Time>2021-08-12T14:30:49.000Z</Time>
            <Position>
              <LatitudeDegrees>43.295463211834430694580078125</LatitudeDegrees>
              <LongitudeDegrees>-2.03863685019314289093017578125</LongitudeDegrees>
            </Position>
            <AltitudeMeters>74.1999969482421875</AltitudeMeters>
            <DistanceMeters>NAN</DistanceMeters>
          </Trackpoint>
          <Trackpoint>
            <Time>2021-08-12T14:30:50.000Z</Time>
            <Position>
              <LatitudeDegrees>43.295444436371326446533203125</LatitudeDegrees>
              <LongitudeDegrees>-2.03863483853638172149658203125</LongitudeDegrees>
            </Position>
            <AltitudeMeters>74.40000152587890625</AltitudeMeters>
            <DistanceMeters>NAN</DistanceMeters>
          </Trackpoint>
          <Trackpoint>
            <Time>2021-08-12T14:30:51.000Z</Time>
            <Position>
              <LatitudeDegrees>43.2954280078411102294921875</LatitudeDegrees>
              <LongitudeDegrees>-2.03863316215574741363525390625</LongitudeDegrees>
            </Position>
            <AltitudeMeters>74.59999847412109375</AltitudeMeters>
            <DistanceMeters>NAN</DistanceMeters>
          </Trackpoint>
          <Trackpoint>
            <Time>2021-08-12T14:30:52.000Z</Time>
            <Position>
              <LatitudeDegrees>43.29541669227182865142822265625</LatitudeDegrees>
              <LongitudeDegrees>-2.03863366506993770599365234375</LongitudeDegrees>
            </Position>
            <AltitudeMeters>74.8000030517578125</AltitudeMeters>
            <DistanceMeters>NAN</DistanceMeters>
          </Trackpoint>
          <Trackpoint>
            <Time>2021-08-12T14:30:53.000Z</Time>
            <Position>
              <LatitudeDegrees>43.29539892263710498809814453125</LatitudeDegrees>
              <LongitudeDegrees>-2.0386303961277008056640625</LongitudeDegrees>
            </Position>
            <AltitudeMeters>75.40000152587890625</AltitudeMeters>
            <DistanceMeters>NAN</DistanceMeters>
          </Trackpoint>
          <Trackpoint>
            <Time>2021-08-12T14:30:54.000Z</Time>
            <Position>
              <LatitudeDegrees>43.29538282938301563262939453125</LatitudeDegrees>
              <LongitudeDegrees>-2.0386231876909732818603515625</LongitudeDegrees>
            </Position>
            <AltitudeMeters>75.59999847412109375</AltitudeMeters>
            <DistanceMeters>NAN</DistanceMeters>
          </Trackpoint>
          <Trackpoint>
            <Time>2021-08-12T14:30:55.000Z</Time>
            <Position>
              <LatitudeDegrees>43.2953658141195774078369140625</LatitudeDegrees>
              <LongitudeDegrees>-2.03861841000616550445556640625</LongitudeDegrees>
            </Position>
            <AltitudeMeters>76</AltitudeMeters>
            <DistanceMeters>NAN</DistanceMeters>
          </Trackpoint>
          <Trackpoint>
            <Time>2021-08-12T14:30:56.000Z</Time>
            <Position>
              <LatitudeDegrees>43.29534997232258319854736328125</LatitudeDegrees>
              <LongitudeDegrees>-2.03861539252102375030517578125</LongitudeDegrees>
            </Position>
            <AltitudeMeters>76.1999969482421875</AltitudeMeters>
            <DistanceMeters>NAN</DistanceMeters>
          </Trackpoint>
          <Trackpoint>
            <Time>2021-08-12T14:30:57.000Z</Time>
            <Position>
              <LatitudeDegrees>43.29533371143043041229248046875</LatitudeDegrees>
              <LongitudeDegrees>-2.03861363232135772705078125</LongitudeDegrees>
            </Position>
            <AltitudeMeters>76.40000152587890625</AltitudeMeters>
            <DistanceMeters>NAN</DistanceMeters>
          </Trackpoint>
          <Trackpoint>
            <Time>2021-08-12T14:30:58.000Z</Time>
            <Position>
              <LatitudeDegrees>43.29531912691891193389892578125</LatitudeDegrees>
              <LongitudeDegrees>-2.0386081002652645111083984375</LongitudeDegrees>
            </Position>
            <AltitudeMeters>76.59999847412109375</AltitudeMeters>
            <DistanceMeters>NAN</DistanceMeters>
          </Trackpoint>
          <Trackpoint>
            <Time>2021-08-12T14:30:59.000Z</Time>
            <Position>
              <LatitudeDegrees>43.2953037880361080169677734375</LatitudeDegrees>
              <LongitudeDegrees>-2.038601897656917572021484375</LongitudeDegrees>
            </Position>
            <AltitudeMeters>77</AltitudeMeters>
            <DistanceMeters>NAN</DistanceMeters>
          </Trackpoint>
          <Trackpoint>
            <Time>2021-08-12T14:31:00.000Z</Time>
            <Position>
              <LatitudeDegrees>43.29528761096298694610595703125</LatitudeDegrees>
              <LongitudeDegrees>-2.03859619796276092529296875</LongitudeDegrees>
            </Position>
            <AltitudeMeters>77.40000152587890625</AltitudeMeters>
            <DistanceMeters>NAN</DistanceMeters>
          </Trackpoint>
          <Trackpoint>
            <Time>2021-08-12T14:31:01.000Z</Time>
            <Position>
              <LatitudeDegrees>43.29526917077600955963134765625</LatitudeDegrees>
              <LongitudeDegrees>-2.0385874807834625244140625</LongitudeDegrees>
            </Position>
            <AltitudeMeters>77.8000030517578125</AltitudeMeters>
            <DistanceMeters>NAN</DistanceMeters>
          </Trackpoint>
          <Trackpoint>
            <Time>2021-08-12T14:31:02.000Z</Time>
            <Position>
              <LatitudeDegrees>43.29525676555931568145751953125</LatitudeDegrees>
              <LongitudeDegrees>-2.03858412802219390869140625</LongitudeDegrees>
            </Position>
            <AltitudeMeters>78</AltitudeMeters>
            <DistanceMeters>NAN</DistanceMeters>
          </Trackpoint>
          <Trackpoint>
            <Time>2021-08-12T14:31:03.000Z</Time>
            <Position>
              <LatitudeDegrees>43.2952404208481311798095703125</LatitudeDegrees>
              <LongitudeDegrees>-2.03858002088963985443115234375</LongitudeDegrees>
            </Position>
            <AltitudeMeters>78</AltitudeMeters>
            <DistanceMeters>NAN</DistanceMeters>
          </Trackpoint>
          <Trackpoint>
            <Time>2021-08-12T14:31:04.000Z</Time>
            <Position>
              <LatitudeDegrees>43.29522759653627872467041015625</LatitudeDegrees>
              <LongitudeDegrees>-2.03857339918613433837890625</LongitudeDegrees>
            </Position>
            <AltitudeMeters>78.40000152587890625</AltitudeMeters>
            <DistanceMeters>NAN</DistanceMeters>
          </Trackpoint>
          <Trackpoint>
            <Time>2021-08-12T14:31:05.000Z</Time>
            <Position>
              <LatitudeDegrees>43.29521317966282367706298828125</LatitudeDegrees>
              <LongitudeDegrees>-2.0385660231113433837890625</LongitudeDegrees>
            </Position>
            <AltitudeMeters>78.59999847412109375</AltitudeMeters>
            <DistanceMeters>NAN</DistanceMeters>
          </Trackpoint>
          <Trackpoint>
            <Time>2021-08-12T14:31:06.000Z</Time>
            <Position>
              <LatitudeDegrees>43.2952011935412883758544921875</LatitudeDegrees>
              <LongitudeDegrees>-2.038560993969440460205078125</LongitudeDegrees>
            </Position>
            <AltitudeMeters>78.8000030517578125</AltitudeMeters>
            <DistanceMeters>NAN</DistanceMeters>
          </Trackpoint>
          <Trackpoint>
            <Time>2021-08-12T14:31:07.000Z</Time>
            <Position>
              <LatitudeDegrees>43.29518283717334270477294921875</LatitudeDegrees>
              <LongitudeDegrees>-2.03855219297111034393310546875</LongitudeDegrees>
            </Position>
            <AltitudeMeters>79</AltitudeMeters>
            <DistanceMeters>NAN</DistanceMeters>
          </Trackpoint>
          <Trackpoint>
            <Time>2021-08-12T14:31:08.000Z</Time>
            <Position>
              <LatitudeDegrees>43.295169174671173095703125</LatitudeDegrees>
              <LongitudeDegrees>-2.03854347579181194305419921875</LongitudeDegrees>
            </Position>
            <AltitudeMeters>79.1999969482421875</AltitudeMeters>
            <DistanceMeters>NAN</DistanceMeters>
          </Trackpoint>
          <Trackpoint>
            <Time>2021-08-12T14:31:09.000Z</Time>
            <Position>
              <LatitudeDegrees>43.2951557636260986328125</LatitudeDegrees>
              <LongitudeDegrees>-2.03853710554540157318115234375</LongitudeDegrees>
            </Position>
            <AltitudeMeters>79.40000152587890625</AltitudeMeters>
            <DistanceMeters>NAN</DistanceMeters>
          </Trackpoint>
          <Trackpoint>
            <Time>2021-08-12T14:31:10.000Z</Time>
            <Position>
              <LatitudeDegrees>43.295141346752643585205078125</LatitudeDegrees>
              <LongitudeDegrees>-2.0385323278605937957763671875</LongitudeDegrees>
            </Position>
            <AltitudeMeters>79.59999847412109375</AltitudeMeters>
            <DistanceMeters>NAN</DistanceMeters>
          </Trackpoint>
          <Trackpoint>
            <Time>2021-08-12T14:31:11.000Z</Time>
            <Position>
              <LatitudeDegrees>43.2951267622411251068115234375</LatitudeDegrees>
              <LongitudeDegrees>-2.03852486796677112579345703125</LongitudeDegrees>
            </Position>
            <AltitudeMeters>80</AltitudeMeters>
            <DistanceMeters>NAN</DistanceMeters>
          </Trackpoint>
          <Trackpoint>
            <Time>2021-08-12T14:31:12.000Z</Time>
            <Position>
              <LatitudeDegrees>43.29511695541441440582275390625</LatitudeDegrees>
              <LongitudeDegrees>-2.03851698897778987884521484375</LongitudeDegrees>
            </Position>
            <AltitudeMeters>80.1999969482421875</AltitudeMeters>
            <DistanceMeters>NAN</DistanceMeters>
          </Trackpoint>
          <Trackpoint>
            <Time>2021-08-12T14:31:13.000Z</Time>
            <Position>
              <LatitudeDegrees>43.29510153271257877349853515625</LatitudeDegrees>
              <LongitudeDegrees>-2.0385044999420642852783203125</LongitudeDegrees>
            </Position>
            <AltitudeMeters>80.40000152587890625</AltitudeMeters>
            <DistanceMeters>NAN</DistanceMeters>
          </Trackpoint>
          <Trackpoint>
            <Time>2021-08-12T14:31:14.000Z</Time>
            <Position>
              <LatitudeDegrees>43.29508828930556774139404296875</LatitudeDegrees>
              <LongitudeDegrees>-2.0384947769343852996826171875</LongitudeDegrees>
            </Position>
            <AltitudeMeters>80.8000030517578125</AltitudeMeters>
            <DistanceMeters>NAN</DistanceMeters>
          </Trackpoint>
          <Trackpoint>
            <Time>2021-08-12T14:31:15.000Z</Time>
            <Position>
              <LatitudeDegrees>43.2950761355459690093994140625</LatitudeDegrees>
              <LongitudeDegrees>-2.03848228789865970611572265625</LongitudeDegrees>
            </Position>
            <AltitudeMeters>81</AltitudeMeters>
            <DistanceMeters>NAN</DistanceMeters>
          </Trackpoint>
          <Trackpoint>
            <Time>2021-08-12T14:31:16.000Z</Time>
            <Position>
              <LatitudeDegrees>43.29506783746182918548583984375</LatitudeDegrees>
              <LongitudeDegrees>-2.03847105614840984344482421875</LongitudeDegrees>
            </Position>
            <AltitudeMeters>81.1999969482421875</AltitudeMeters>
            <DistanceMeters>NAN</DistanceMeters>
          </Trackpoint>
          <Trackpoint>
            <Time>2021-08-12T14:31:17.000Z</Time>
            <Position>
              <LatitudeDegrees>43.2950546778738498687744140625</LatitudeDegrees>
              <LongitudeDegrees>-2.03845798037946224212646484375</LongitudeDegrees>
            </Position>
            <AltitudeMeters>81.40000152587890625</AltitudeMeters>
            <DistanceMeters>NAN</DistanceMeters>
          </Trackpoint>
          <Trackpoint>
            <Time>2021-08-12T14:31:18.000Z</Time>
            <Position>
              <LatitudeDegrees>43.2950382493436336517333984375</LatitudeDegrees>
              <LongitudeDegrees>-2.03844574280083179473876953125</LongitudeDegrees>
            </Position>
            <AltitudeMeters>81.8000030517578125</AltitudeMeters>
            <DistanceMeters>NAN</DistanceMeters>
          </Trackpoint>
          <Trackpoint>
            <Time>2021-08-12T14:31:19.000Z</Time>
            <Position>
              <LatitudeDegrees>43.2950278557837009429931640625</LatitudeDegrees>
              <LongitudeDegrees>-2.0384384505450725555419921875</LongitudeDegrees>
            </Position>
            <AltitudeMeters>82</AltitudeMeters>
            <DistanceMeters>NAN</DistanceMeters>
          </Trackpoint>
          <Trackpoint>
            <Time>2021-08-12T14:31:20.000Z</Time>
            <Position>
              <LatitudeDegrees>43.29501737840473651885986328125</LatitudeDegrees>
              <LongitudeDegrees>-2.03842411749064922332763671875</LongitudeDegrees>
            </Position>
            <AltitudeMeters>82.1999969482421875</AltitudeMeters>
            <DistanceMeters>NAN</DistanceMeters>
          </Trackpoint>
          <Trackpoint>
            <Time>2021-08-12T14:31:21.000Z</Time>
            <Position>
              <LatitudeDegrees>43.2950069010257720947265625</LatitudeDegrees>
              <LongitudeDegrees>-2.03841104172170162200927734375</LongitudeDegrees>
            </Position>
            <AltitudeMeters>82.59999847412109375</AltitudeMeters>
            <DistanceMeters>NAN</DistanceMeters>
          </Trackpoint>
          <Trackpoint>
            <Time>2021-08-12T14:31:22.000Z</Time>
            <Position>
              <LatitudeDegrees>43.29499474726617336273193359375</LatitudeDegrees>
              <LongitudeDegrees>-2.03840148635208606719970703125</LongitudeDegrees>
            </Position>
            <AltitudeMeters>82.8000030517578125</AltitudeMeters>
            <DistanceMeters>NAN</DistanceMeters>
          </Trackpoint>
          <Trackpoint>
            <Time>2021-08-12T14:31:23.000Z</Time>
            <Position>
              <LatitudeDegrees>43.29498150385916233062744140625</LatitudeDegrees>
              <LongitudeDegrees>-2.038401402533054351806640625</LongitudeDegrees>
            </Position>
            <AltitudeMeters>83.1999969482421875</AltitudeMeters>
            <DistanceMeters>NAN</DistanceMeters>
          </Trackpoint>
          <Trackpoint>
            <Time>2021-08-12T14:31:24.000Z</Time>
            <Position>
              <LatitudeDegrees>43.29497127793729305267333984375</LatitudeDegrees>
              <LongitudeDegrees>-2.0384126342833042144775390625</LongitudeDegrees>
            </Position>
            <AltitudeMeters>83.40000152587890625</AltitudeMeters>
            <DistanceMeters>NAN</DistanceMeters>
          </Trackpoint>
          <Trackpoint>
            <Time>2021-08-12T14:31:25.000Z</Time>
            <Position>
              <LatitudeDegrees>43.2949628122150897979736328125</LatitudeDegrees>
              <LongitudeDegrees>-2.0384273864328861236572265625</LongitudeDegrees>
            </Position>
            <AltitudeMeters>83.59999847412109375</AltitudeMeters>
            <DistanceMeters>NAN</DistanceMeters>
          </Trackpoint>
          <Trackpoint>
            <Time>2021-08-12T14:31:26.000Z</Time>
            <Position>
              <LatitudeDegrees>43.29495803453028202056884765625</LatitudeDegrees>
              <LongitudeDegrees>-2.038439624011516571044921875</LongitudeDegrees>
            </Position>
            <AltitudeMeters>83.8000030517578125</AltitudeMeters>
            <DistanceMeters>NAN</DistanceMeters>
          </Trackpoint>
          <Trackpoint>
            <Time>2021-08-12T14:31:27.000Z</Time>
            <Position>
              <LatitudeDegrees>43.2949487306177616119384765625</LatitudeDegrees>
              <LongitudeDegrees>-2.03844876028597354888916015625</LongitudeDegrees>
            </Position>
            <AltitudeMeters>84</AltitudeMeters>
            <DistanceMeters>NAN</DistanceMeters>
          </Trackpoint>
          <Trackpoint>
            <Time>2021-08-12T14:31:28.000Z</Time>
            <Position>
              <LatitudeDegrees>43.29494060017168521881103515625</LatitudeDegrees>
              <LongitudeDegrees>-2.038442306220531463623046875</LongitudeDegrees>
            </Position>
            <AltitudeMeters>84.1999969482421875</AltitudeMeters>
            <DistanceMeters>NAN</DistanceMeters>
          </Trackpoint>
          <Trackpoint>
            <Time>2021-08-12T14:31:29.000Z</Time>
            <Position>
              <LatitudeDegrees>43.2949369959533214569091796875</LatitudeDegrees>
              <LongitudeDegrees>-2.03842721879482269287109375</LongitudeDegrees>
            </Position>
            <AltitudeMeters>84.40000152587890625</AltitudeMeters>
            <DistanceMeters>NAN</DistanceMeters>
          </Trackpoint>
          <Trackpoint>
            <Time>2021-08-12T14:31:30.000Z</Time>
            <Position>
              <LatitudeDegrees>43.2949336431920528411865234375</LatitudeDegrees>
              <LongitudeDegrees>-2.03840919770300388336181640625</LongitudeDegrees>
            </Position>
            <AltitudeMeters>84.59999847412109375</AltitudeMeters>
            <DistanceMeters>NAN</DistanceMeters>
          </Trackpoint>
          <Trackpoint>
            <Time>2021-08-12T14:31:31.000Z</Time>
            <Position>
              <LatitudeDegrees>43.29493087716400623321533203125</LatitudeDegrees>
              <LongitudeDegrees>-2.03839779831469058990478515625</LongitudeDegrees>
            </Position>
            <AltitudeMeters>84.8000030517578125</AltitudeMeters>
            <DistanceMeters>NAN</DistanceMeters>
          </Trackpoint>
          <Trackpoint>
            <Time>2021-08-12T14:31:32.000Z</Time>
            <Position>
              <LatitudeDegrees>43.29492710530757904052734375</LatitudeDegrees>
              <LongitudeDegrees>-2.0383817888796329498291015625</LongitudeDegrees>
            </Position>
            <AltitudeMeters>85</AltitudeMeters>
            <DistanceMeters>NAN</DistanceMeters>
          </Trackpoint>
          <Trackpoint>
            <Time>2021-08-12T14:31:33.000Z</Time>
            <Position>
              <LatitudeDegrees>43.29492702148854732513427734375</LatitudeDegrees>
              <LongitudeDegrees>-2.03836712054908275604248046875</LongitudeDegrees>
            </Position>
            <AltitudeMeters>85</AltitudeMeters>
            <DistanceMeters>NAN</DistanceMeters>
          </Trackpoint>
          <Trackpoint>
            <Time>2021-08-12T14:31:34.000Z</Time>
            <Position>
              <LatitudeDegrees>43.29492710530757904052734375</LatitudeDegrees>
              <LongitudeDegrees>-2.038351111114025115966796875</LongitudeDegrees>
            </Position>
            <AltitudeMeters>85.1999969482421875</AltitudeMeters>
            <DistanceMeters>NAN</DistanceMeters>
          </Trackpoint>
          <Trackpoint>
            <Time>2021-08-12T14:31:35.000Z</Time>
            <Position>
              <LatitudeDegrees>43.29492869786918163299560546875</LatitudeDegrees>
              <LongitudeDegrees>-2.03833325766026973724365234375</LongitudeDegrees>
            </Position>
            <AltitudeMeters>85.1999969482421875</AltitudeMeters>
            <DistanceMeters>NAN</DistanceMeters>
          </Trackpoint>
          <Trackpoint>
            <Time>2021-08-12T14:31:36.000Z</Time>
            <Position>
              <LatitudeDegrees>43.2949319668114185333251953125</LatitudeDegrees>
              <LongitudeDegrees>-2.03831884078681468963623046875</LongitudeDegrees>
            </Position>
            <AltitudeMeters>85.1999969482421875</AltitudeMeters>
            <DistanceMeters>NAN</DistanceMeters>
          </Trackpoint>
          <Trackpoint>
            <Time>2021-08-12T14:31:37.000Z</Time>
            <Position>
              <LatitudeDegrees>43.294931463897228240966796875</LatitudeDegrees>
              <LongitudeDegrees>-2.03829587437212467193603515625</LongitudeDegrees>
            </Position>
            <AltitudeMeters>85.1999969482421875</AltitudeMeters>
            <DistanceMeters>NAN</DistanceMeters>
          </Trackpoint>
          <Trackpoint>
            <Time>2021-08-12T14:31:38.000Z</Time>
            <Position>
              <LatitudeDegrees>43.29493439756333827972412109375</LatitudeDegrees>
              <LongitudeDegrees>-2.0382718183100223541259765625</LongitudeDegrees>
            </Position>
            <AltitudeMeters>85.1999969482421875</AltitudeMeters>
            <DistanceMeters>NAN</DistanceMeters>
          </Trackpoint>
          <Trackpoint>
            <Time>2021-08-12T14:31:39.000Z</Time>
            <Position>
              <LatitudeDegrees>43.29493691213428974151611328125</LatitudeDegrees>
              <LongitudeDegrees>-2.03824943862855434417724609375</LongitudeDegrees>
            </Position>
            <AltitudeMeters>85.1999969482421875</AltitudeMeters>
            <DistanceMeters>NAN</DistanceMeters>
          </Trackpoint>
          <Trackpoint>
            <Time>2021-08-12T14:31:40.000Z</Time>
            <Position>
              <LatitudeDegrees>43.294945545494556427001953125</LatitudeDegrees>
              <LongitudeDegrees>-2.03822697512805461883544921875</LongitudeDegrees>
            </Position>
            <AltitudeMeters>85.40000152587890625</AltitudeMeters>
            <DistanceMeters>NAN</DistanceMeters>
          </Trackpoint>
          <Trackpoint>
            <Time>2021-08-12T14:31:41.000Z</Time>
            <Position>
              <LatitudeDegrees>43.29495568759739398956298828125</LatitudeDegrees>
              <LongitudeDegrees>-2.0382074452936649322509765625</LongitudeDegrees>
            </Position>
            <AltitudeMeters>85.40000152587890625</AltitudeMeters>
            <DistanceMeters>NAN</DistanceMeters>
          </Trackpoint>
          <Trackpoint>
            <Time>2021-08-12T14:31:42.000Z</Time>
            <Position>
              <LatitudeDegrees>43.294967003166675567626953125</LatitudeDegrees>
              <LongitudeDegrees>-2.03818774782121181488037109375</LongitudeDegrees>
            </Position>
            <AltitudeMeters>85.59999847412109375</AltitudeMeters>
            <DistanceMeters>NAN</DistanceMeters>
          </Trackpoint>
          <Trackpoint>
            <Time>2021-08-12T14:31:43.000Z</Time>
            <Position>
              <LatitudeDegrees>43.29498049803078174591064453125</LatitudeDegrees>
              <LongitudeDegrees>-2.03816964291036128997802734375</LongitudeDegrees>
            </Position>
            <AltitudeMeters>85.59999847412109375</AltitudeMeters>
            <DistanceMeters>NAN</DistanceMeters>
          </Trackpoint>
          <Trackpoint>
            <Time>2021-08-12T14:31:44.000Z</Time>
            <Position>
              <LatitudeDegrees>43.294995166361331939697265625</LatitudeDegrees>
              <LongitudeDegrees>-2.03815631568431854248046875</LongitudeDegrees>
            </Position>
            <AltitudeMeters>85.8000030517578125</AltitudeMeters>
            <DistanceMeters>NAN</DistanceMeters>
          </Trackpoint>
          <Trackpoint>
            <Time>2021-08-12T14:31:45.000Z</Time>
            <Position>
              <LatitudeDegrees>43.29500631429255008697509765625</LatitudeDegrees>
              <LongitudeDegrees>-2.03814550302922725677490234375</LongitudeDegrees>
            </Position>
            <AltitudeMeters>85.8000030517578125</AltitudeMeters>
            <DistanceMeters>NAN</DistanceMeters>
          </Trackpoint>
          <Trackpoint>
            <Time>2021-08-12T14:31:46.000Z</Time>
            <Position>
              <LatitudeDegrees>43.2950198091566562652587890625</LatitudeDegrees>
              <LongitudeDegrees>-2.038133181631565093994140625</LongitudeDegrees>
            </Position>
            <AltitudeMeters>86</AltitudeMeters>
            <DistanceMeters>NAN</DistanceMeters>
          </Trackpoint>
          <Trackpoint>
            <Time>2021-08-12T14:31:47.000Z</Time>
            <Position>
              <LatitudeDegrees>43.2950328849256038665771484375</LatitudeDegrees>
              <LongitudeDegrees>-2.038118429481983184814453125</LongitudeDegrees>
            </Position>
            <AltitudeMeters>86</AltitudeMeters>
            <DistanceMeters>NAN</DistanceMeters>
          </Trackpoint>
          <Trackpoint>
            <Time>2021-08-12T14:31:48.000Z</Time>
            <Position>
              <LatitudeDegrees>43.295044787228107452392578125</LatitudeDegrees>
              <LongitudeDegrees>-2.0381058566272258758544921875</LongitudeDegrees>
            </Position>
            <AltitudeMeters>86.1999969482421875</AltitudeMeters>
            <DistanceMeters>NAN</DistanceMeters>
          </Trackpoint>
          <Trackpoint>
            <Time>2021-08-12T14:31:49.000Z</Time>
            <Position>
              <LatitudeDegrees>43.29505660571157932281494140625</LatitudeDegrees>
              <LongitudeDegrees>-2.03809261322021484375</LongitudeDegrees>
            </Position>
            <AltitudeMeters>86.1999969482421875</AltitudeMeters>
            <DistanceMeters>NAN</DistanceMeters>
          </Trackpoint>
          <Trackpoint>
            <Time>2021-08-12T14:31:50.000Z</Time>
            <Position>
              <LatitudeDegrees>43.29506389796733856201171875</LatitudeDegrees>
              <LongitudeDegrees>-2.03807978890836238861083984375</LongitudeDegrees>
            </Position>
            <AltitudeMeters>86.40000152587890625</AltitudeMeters>
            <DistanceMeters>NAN</DistanceMeters>
          </Trackpoint>
          <Trackpoint>
            <Time>2021-08-12T14:31:51.000Z</Time>
            <Position>
              <LatitudeDegrees>43.29507588408887386322021484375</LatitudeDegrees>
              <LongitudeDegrees>-2.0380590856075286865234375</LongitudeDegrees>
            </Position>
            <AltitudeMeters>86.59999847412109375</AltitudeMeters>
            <DistanceMeters>NAN</DistanceMeters>
          </Trackpoint>
          <Trackpoint>
            <Time>2021-08-12T14:31:52.000Z</Time>
            <Position>
              <LatitudeDegrees>43.29508510418236255645751953125</LatitudeDegrees>
              <LongitudeDegrees>-2.03804324381053447723388671875</LongitudeDegrees>
            </Position>
            <AltitudeMeters>86.8000030517578125</AltitudeMeters>
            <DistanceMeters>NAN</DistanceMeters>
          </Trackpoint>
          <Trackpoint>
            <Time>2021-08-12T14:31:53.000Z</Time>
            <Position>
              <LatitudeDegrees>43.2950942404568195343017578125</LatitudeDegrees>
              <LongitudeDegrees>-2.03802782110869884490966796875</LongitudeDegrees>
            </Position>
            <AltitudeMeters>87.1999969482421875</AltitudeMeters>
            <DistanceMeters>NAN</DistanceMeters>
          </Trackpoint>
          <Trackpoint>
            <Time>2021-08-12T14:31:54.000Z</Time>
            <Position>
              <LatitudeDegrees>43.29510253854095935821533203125</LatitudeDegrees>
              <LongitudeDegrees>-2.0380113087594509124755859375</LongitudeDegrees>
            </Position>
            <AltitudeMeters>87.59999847412109375</AltitudeMeters>
            <DistanceMeters>NAN</DistanceMeters>
          </Trackpoint>
          <Trackpoint>
            <Time>2021-08-12T14:31:55.000Z</Time>
            <Position>
              <LatitudeDegrees>43.29510991461575031280517578125</LatitudeDegrees>
              <LongitudeDegrees>-2.03799680806696414947509765625</LongitudeDegrees>
            </Position>
            <AltitudeMeters>87.8000030517578125</AltitudeMeters>
            <DistanceMeters>NAN</DistanceMeters>
          </Trackpoint>
          <Trackpoint>
            <Time>2021-08-12T14:31:56.000Z</Time>
            <Position>
              <LatitudeDegrees>43.295117206871509552001953125</LatitudeDegrees>
              <LongitudeDegrees>-2.03797350637614727020263671875</LongitudeDegrees>
            </Position>
            <AltitudeMeters>88.1999969482421875</AltitudeMeters>
            <DistanceMeters>NAN</DistanceMeters>
          </Trackpoint>
          <Trackpoint>
            <Time>2021-08-12T14:31:57.000Z</Time>
            <Position>
              <LatitudeDegrees>43.295121230185031890869140625</LatitudeDegrees>
              <LongitudeDegrees>-2.03795791603624820709228515625</LongitudeDegrees>
            </Position>
            <AltitudeMeters>88.1999969482421875</AltitudeMeters>
            <DistanceMeters>NAN</DistanceMeters>
          </Trackpoint>
          <Trackpoint>
            <Time>2021-08-12T14:31:58.000Z</Time>
            <Position>
              <LatitudeDegrees>43.29512801952660083770751953125</LatitudeDegrees>
              <LongitudeDegrees>-2.03793897293508052825927734375</LongitudeDegrees>
            </Position>
            <AltitudeMeters>88.59999847412109375</AltitudeMeters>
            <DistanceMeters>NAN</DistanceMeters>
          </Trackpoint>
          <Trackpoint>
            <Time>2021-08-12T14:31:59.000Z</Time>
            <Position>
              <LatitudeDegrees>43.29513539560139179229736328125</LatitudeDegrees>
              <LongitudeDegrees>-2.03792019747197628021240234375</LongitudeDegrees>
            </Position>
            <AltitudeMeters>88.8000030517578125</AltitudeMeters>
            <DistanceMeters>NAN</DistanceMeters>
          </Trackpoint>
          <Trackpoint>
            <Time>2021-08-12T14:32:00.000Z</Time>
            <Position>
              <LatitudeDegrees>43.29513925127685070037841796875</LatitudeDegrees>
              <LongitudeDegrees>-2.03790158964693546295166015625</LongitudeDegrees>
            </Position>
            <AltitudeMeters>89</AltitudeMeters>
            <DistanceMeters>NAN</DistanceMeters>
          </Trackpoint>
          <Trackpoint>
            <Time>2021-08-12T14:32:01.000Z</Time>
            <Position>
              <LatitudeDegrees>43.295142687857151031494140625</LatitudeDegrees>
              <LongitudeDegrees>-2.03788482584059238433837890625</LongitudeDegrees>
            </Position>
            <AltitudeMeters>89.59999847412109375</AltitudeMeters>
            <DistanceMeters>NAN</DistanceMeters>
          </Trackpoint>
          <Trackpoint>
            <Time>2021-08-12T14:32:02.000Z</Time>
            <Position>
              <LatitudeDegrees>43.29514327459037303924560546875</LatitudeDegrees>
              <LongitudeDegrees>-2.03786688856780529022216796875</LongitudeDegrees>
            </Position>
            <AltitudeMeters>89.8000030517578125</AltitudeMeters>
            <DistanceMeters>NAN</DistanceMeters>
          </Trackpoint>
          <Trackpoint>
            <Time>2021-08-12T14:32:03.000Z</Time>
            <Position>
              <LatitudeDegrees>43.2951445318758487701416015625</LatitudeDegrees>
              <LongitudeDegrees>-2.03784383833408355712890625</LongitudeDegrees>
            </Position>
            <AltitudeMeters>90.1999969482421875</AltitudeMeters>
            <DistanceMeters>NAN</DistanceMeters>
          </Trackpoint>
          <Trackpoint>
            <Time>2021-08-12T14:32:04.000Z</Time>
            <Position>
              <LatitudeDegrees>43.29514478333294391632080078125</LatitudeDegrees>
              <LongitudeDegrees>-2.0378235541284084320068359375</LongitudeDegrees>
            </Position>
            <AltitudeMeters>90.40000152587890625</AltitudeMeters>
            <DistanceMeters>NAN</DistanceMeters>
          </Trackpoint>
          <Trackpoint>
            <Time>2021-08-12T14:32:05.000Z</Time>
            <Position>
              <LatitudeDegrees>43.295144028961658477783203125</LatitudeDegrees>
              <LongitudeDegrees>-2.03780704177916049957275390625</LongitudeDegrees>
            </Position>
            <AltitudeMeters>90.59999847412109375</AltitudeMeters>
            <DistanceMeters>NAN</DistanceMeters>
          </Trackpoint>
          <Trackpoint>
            <Time>2021-08-12T14:32:06.000Z</Time>
            <Position>
              <LatitudeDegrees>43.295142017304897308349609375</LatitudeDegrees>
              <LongitudeDegrees>-2.037787176668643951416015625</LongitudeDegrees>
            </Position>
            <AltitudeMeters>90.8000030517578125</AltitudeMeters>
            <DistanceMeters>NAN</DistanceMeters>
          </Trackpoint>
          <Trackpoint>
            <Time>2021-08-12T14:32:07.000Z</Time>
            <Position>
              <LatitudeDegrees>43.29514042474329471588134765625</LatitudeDegrees>
              <LongitudeDegrees>-2.03776337206363677978515625</LongitudeDegrees>
            </Position>
            <AltitudeMeters>91.1999969482421875</AltitudeMeters>
            <DistanceMeters>NAN</DistanceMeters>
          </Trackpoint>
          <Trackpoint>
            <Time>2021-08-12T14:32:08.000Z</Time>
            <Position>
              <LatitudeDegrees>43.29513791017234325408935546875</LatitudeDegrees>
              <LongitudeDegrees>-2.037744261324405670166015625</LongitudeDegrees>
            </Position>
            <AltitudeMeters>91.59999847412109375</AltitudeMeters>
            <DistanceMeters>NAN</DistanceMeters>
          </Trackpoint>
          <Trackpoint>
            <Time>2021-08-12T14:32:09.000Z</Time>
            <Position>
              <LatitudeDegrees>43.2951358146965503692626953125</LatitudeDegrees>
              <LongitudeDegrees>-2.03772758133709430694580078125</LongitudeDegrees>
            </Position>
            <AltitudeMeters>91.8000030517578125</AltitudeMeters>
            <DistanceMeters>NAN</DistanceMeters>
          </Trackpoint>
          <Trackpoint>
            <Time>2021-08-12T14:32:10.000Z</Time>
            <Position>
              <LatitudeDegrees>43.2951314561069011688232421875</LatitudeDegrees>
              <LongitudeDegrees>-2.03770662657916545867919921875</LongitudeDegrees>
            </Position>
            <AltitudeMeters>92</AltitudeMeters>
            <DistanceMeters>NAN</DistanceMeters>
          </Trackpoint>
          <Trackpoint>
            <Time>2021-08-12T14:32:11.000Z</Time>
            <Position>
              <LatitudeDegrees>43.2951260916888713836669921875</LatitudeDegrees>
              <LongitudeDegrees>-2.0376824028789997100830078125</LongitudeDegrees>
            </Position>
            <AltitudeMeters>92.1999969482421875</AltitudeMeters>
            <DistanceMeters>NAN</DistanceMeters>
          </Trackpoint>
          <Trackpoint>
            <Time>2021-08-12T14:32:12.000Z</Time>
            <Position>
              <LatitudeDegrees>43.29512131400406360626220703125</LatitudeDegrees>
              <LongitudeDegrees>-2.03766136430203914642333984375</LongitudeDegrees>
            </Position>
            <AltitudeMeters>92.40000152587890625</AltitudeMeters>
            <DistanceMeters>NAN</DistanceMeters>
          </Trackpoint>
          <Trackpoint>
            <Time>2021-08-12T14:32:13.000Z</Time>
            <Position>
              <LatitudeDegrees>43.29511846415698528289794921875</LatitudeDegrees>
              <LongitudeDegrees>-2.0376404933631420135498046875</LongitudeDegrees>
            </Position>
            <AltitudeMeters>92.8000030517578125</AltitudeMeters>
            <DistanceMeters>NAN</DistanceMeters>
          </Trackpoint>
          <Trackpoint>
            <Time>2021-08-12T14:32:14.000Z</Time>
            <Position>
              <LatitudeDegrees>43.29511863179504871368408203125</LatitudeDegrees>
              <LongitudeDegrees>-2.037618868052959442138671875</LongitudeDegrees>
            </Position>
            <AltitudeMeters>93</AltitudeMeters>
            <DistanceMeters>NAN</DistanceMeters>
          </Trackpoint>
          <Trackpoint>
            <Time>2021-08-12T14:32:15.000Z</Time>
            <Position>
              <LatitudeDegrees>43.295118547976016998291015625</LatitudeDegrees>
              <LongitudeDegrees>-2.0376022718846797943115234375</LongitudeDegrees>
            </Position>
            <AltitudeMeters>93.1999969482421875</AltitudeMeters>
            <DistanceMeters>NAN</DistanceMeters>
          </Trackpoint>
          <Trackpoint>
            <Time>2021-08-12T14:32:16.000Z</Time>
            <Position>
              <LatitudeDegrees>43.29511594958603382110595703125</LatitudeDegrees>
              <LongitudeDegrees>-2.0375848375260829925537109375</LongitudeDegrees>
            </Position>
            <AltitudeMeters>93.40000152587890625</AltitudeMeters>
            <DistanceMeters>NAN</DistanceMeters>
          </Trackpoint>
          <Trackpoint>
            <Time>2021-08-12T14:32:17.000Z</Time>
            <Position>
              <LatitudeDegrees>43.2951123453676700592041015625</LatitudeDegrees>
              <LongitudeDegrees>-2.03756581060588359832763671875</LongitudeDegrees>
            </Position>
            <AltitudeMeters>93.59999847412109375</AltitudeMeters>
            <DistanceMeters>NAN</DistanceMeters>
          </Trackpoint>
          <Trackpoint>
            <Time>2021-08-12T14:32:18.000Z</Time>
            <Position>
              <LatitudeDegrees>43.29510438255965709686279296875</LatitudeDegrees>
              <LongitudeDegrees>-2.037543766200542449951171875</LongitudeDegrees>
            </Position>
            <AltitudeMeters>93.8000030517578125</AltitudeMeters>
            <DistanceMeters>NAN</DistanceMeters>
          </Trackpoint>
          <Trackpoint>
            <Time>2021-08-12T14:32:19.000Z</Time>
            <Position>
              <LatitudeDegrees>43.29509767703711986541748046875</LatitudeDegrees>
              <LongitudeDegrees>-2.03752331435680389404296875</LongitudeDegrees>
            </Position>
            <AltitudeMeters>94.1999969482421875</AltitudeMeters>
            <DistanceMeters>NAN</DistanceMeters>
          </Trackpoint>
          <Trackpoint>
            <Time>2021-08-12T14:32:20.000Z</Time>
            <Position>
              <LatitudeDegrees>43.29508929513394832611083984375</LatitudeDegrees>
              <LongitudeDegrees>-2.03750277869403362274169921875</LongitudeDegrees>
            </Position>
            <AltitudeMeters>94.1999969482421875</AltitudeMeters>
            <DistanceMeters>NAN</DistanceMeters>
          </Trackpoint>
          <Trackpoint>
            <Time>2021-08-12T14:32:21.000Z</Time>
            <Position>
              <LatitudeDegrees>43.29508208669722080230712890625</LatitudeDegrees>
              <LongitudeDegrees>-2.03748442232608795166015625</LongitudeDegrees>
            </Position>
            <AltitudeMeters>94.59999847412109375</AltitudeMeters>
            <DistanceMeters>NAN</DistanceMeters>
          </Trackpoint>
          <Trackpoint>
            <Time>2021-08-12T14:32:22.000Z</Time>
            <Position>
              <LatitudeDegrees>43.29507420770823955535888671875</LatitudeDegrees>
              <LongitudeDegrees>-2.03746757470071315765380859375</LongitudeDegrees>
            </Position>
            <AltitudeMeters>94.8000030517578125</AltitudeMeters>
            <DistanceMeters>NAN</DistanceMeters>
          </Trackpoint>
          <Trackpoint>
            <Time>2021-08-12T14:32:23.000Z</Time>
            <Position>
              <LatitudeDegrees>43.29506549052894115447998046875</LatitudeDegrees>
              <LongitudeDegrees>-2.037448883056640625</LongitudeDegrees>
            </Position>
            <AltitudeMeters>95</AltitudeMeters>
            <DistanceMeters>NAN</DistanceMeters>
          </Trackpoint>
          <Trackpoint>
            <Time>2021-08-12T14:32:24.000Z</Time>
            <Position>
              <LatitudeDegrees>43.29505895264446735382080078125</LatitudeDegrees>
              <LongitudeDegrees>-2.03743220306932926177978515625</LongitudeDegrees>
            </Position>
            <AltitudeMeters>95.1999969482421875</AltitudeMeters>
            <DistanceMeters>NAN</DistanceMeters>
          </Trackpoint>
          <Trackpoint>
            <Time>2021-08-12T14:32:25.000Z</Time>
            <Position>
              <LatitudeDegrees>43.29505291767418384552001953125</LatitudeDegrees>
              <LongitudeDegrees>-2.037419043481349945068359375</LongitudeDegrees>
            </Position>
            <AltitudeMeters>95.40000152587890625</AltitudeMeters>
            <DistanceMeters>NAN</DistanceMeters>
          </Trackpoint>
          <Trackpoint>
            <Time>2021-08-12T14:32:26.000Z</Time>
            <Position>
              <LatitudeDegrees>43.2950449548661708831787109375</LatitudeDegrees>
              <LongitudeDegrees>-2.03740353696048259735107421875</LongitudeDegrees>
            </Position>
            <AltitudeMeters>95.59999847412109375</AltitudeMeters>
            <DistanceMeters>NAN</DistanceMeters>
          </Trackpoint>
          <Trackpoint>
            <Time>2021-08-12T14:32:27.000Z</Time>
            <Position>
              <LatitudeDegrees>43.2950362376868724822998046875</LatitudeDegrees>
              <LongitudeDegrees>-2.03739314340054988861083984375</LongitudeDegrees>
            </Position>
            <AltitudeMeters>95.8000030517578125</AltitudeMeters>
            <DistanceMeters>NAN</DistanceMeters>
          </Trackpoint>
          <Trackpoint>
            <Time>2021-08-12T14:32:28.000Z</Time>
            <Position>
              <LatitudeDegrees>43.29503011889755725860595703125</LatitudeDegrees>
              <LongitudeDegrees>-2.037384510040283203125</LongitudeDegrees>
            </Position>
            <AltitudeMeters>96.1999969482421875</AltitudeMeters>
            <DistanceMeters>NAN</DistanceMeters>
          </Trackpoint>
          <Trackpoint>
            <Time>2021-08-12T14:32:29.000Z</Time>
            <Position>
              <LatitudeDegrees>43.29502098262310028076171875</LatitudeDegrees>
              <LongitudeDegrees>-2.03737386502325534820556640625</LongitudeDegrees>
            </Position>
            <AltitudeMeters>96.59999847412109375</AltitudeMeters>
            <DistanceMeters>NAN</DistanceMeters>
          </Trackpoint>
          <Trackpoint>
            <Time>2021-08-12T14:32:30.000Z</Time>
            <Position>
              <LatitudeDegrees>43.29501025378704071044921875</LatitudeDegrees>
              <LongitudeDegrees>-2.03736430965363979339599609375</LongitudeDegrees>
            </Position>
            <AltitudeMeters>96.8000030517578125</AltitudeMeters>
            <DistanceMeters>NAN</DistanceMeters>
          </Trackpoint>
          <Trackpoint>
            <Time>2021-08-12T14:32:31.000Z</Time>
            <Position>
              <LatitudeDegrees>43.2949993573129177093505859375</LatitudeDegrees>
              <LongitudeDegrees>-2.03735995106399059295654296875</LongitudeDegrees>
            </Position>
            <AltitudeMeters>97</AltitudeMeters>
            <DistanceMeters>NAN</DistanceMeters>
          </Trackpoint>
          <Trackpoint>
            <Time>2021-08-12T14:32:32.000Z</Time>
            <Position>
              <LatitudeDegrees>43.29498603008687496185302734375</LatitudeDegrees>
              <LongitudeDegrees>-2.03735710121691226959228515625</LongitudeDegrees>
            </Position>
            <AltitudeMeters>97.1999969482421875</AltitudeMeters>
            <DistanceMeters>NAN</DistanceMeters>
          </Trackpoint>
          <Trackpoint>
            <Time>2021-08-12T14:32:33.000Z</Time>
            <Position>
              <LatitudeDegrees>43.2949765585362911224365234375</LatitudeDegrees>
              <LongitudeDegrees>-2.0373565144836902618408203125</LongitudeDegrees>
            </Position>
            <AltitudeMeters>97.8000030517578125</AltitudeMeters>
            <DistanceMeters>NAN</DistanceMeters>
          </Trackpoint>
          <Trackpoint>
            <Time>2021-08-12T14:32:34.000Z</Time>
            <Position>
              <LatitudeDegrees>43.29496306367218494415283203125</LatitudeDegrees>
              <LongitudeDegrees>-2.03736045397818088531494140625</LongitudeDegrees>
            </Position>
            <AltitudeMeters>97.8000030517578125</AltitudeMeters>
            <DistanceMeters>NAN</DistanceMeters>
          </Trackpoint>
          <Trackpoint>
            <Time>2021-08-12T14:32:35.000Z</Time>
            <Position>
              <LatitudeDegrees>43.294946886599063873291015625</LatitudeDegrees>
              <LongitudeDegrees>-2.03736506402492523193359375</LongitudeDegrees>
            </Position>
            <AltitudeMeters>98.1999969482421875</AltitudeMeters>
            <DistanceMeters>NAN</DistanceMeters>
          </Trackpoint>
          <Trackpoint>
            <Time>2021-08-12T14:32:36.000Z</Time>
            <Position>
              <LatitudeDegrees>43.29493322409689426422119140625</LatitudeDegrees>
              <LongitudeDegrees>-2.037369422614574432373046875</LongitudeDegrees>
            </Position>
            <AltitudeMeters>98.8000030517578125</AltitudeMeters>
            <DistanceMeters>NAN</DistanceMeters>
          </Trackpoint>
          <Trackpoint>
            <Time>2021-08-12T14:32:37.000Z</Time>
            <Position>
              <LatitudeDegrees>43.29491914249956607818603515625</LatitudeDegrees>
              <LongitudeDegrees>-2.0373729430139064788818359375</LongitudeDegrees>
            </Position>
            <AltitudeMeters>99</AltitudeMeters>
            <DistanceMeters>NAN</DistanceMeters>
          </Trackpoint>
          <Trackpoint>
            <Time>2021-08-12T14:32:38.000Z</Time>
            <Position>
              <LatitudeDegrees>43.29490967094898223876953125</LatitudeDegrees>
              <LongitudeDegrees>-2.037378139793872833251953125</LongitudeDegrees>
            </Position>
            <AltitudeMeters>99</AltitudeMeters>
            <DistanceMeters>NAN</DistanceMeters>
          </Trackpoint>
          <Trackpoint>
            <Time>2021-08-12T14:32:39.000Z</Time>
            <Position>
              <LatitudeDegrees>43.29489785246551036834716796875</LatitudeDegrees>
              <LongitudeDegrees>-2.0373833365738391876220703125</LongitudeDegrees>
            </Position>
            <AltitudeMeters>99.1999969482421875</AltitudeMeters>
            <DistanceMeters>NAN</DistanceMeters>
          </Trackpoint>
          <Trackpoint>
            <Time>2021-08-12T14:32:40.000Z</Time>
            <Position>
              <LatitudeDegrees>43.294883854687213897705078125</LatitudeDegrees>
              <LongitudeDegrees>-2.037386856973171234130859375</LongitudeDegrees>
            </Position>
            <AltitudeMeters>99.59999847412109375</AltitudeMeters>
            <DistanceMeters>NAN</DistanceMeters>
          </Trackpoint>
          <Trackpoint>
            <Time>2021-08-12T14:32:41.000Z</Time>
            <Position>
              <LatitudeDegrees>43.2948732934892177581787109375</LatitudeDegrees>
              <LongitudeDegrees>-2.03738794662058353424072265625</LongitudeDegrees>
            </Position>
            <AltitudeMeters>99.8000030517578125</AltitudeMeters>
            <DistanceMeters>NAN</DistanceMeters>
          </Trackpoint>
          <Trackpoint>
            <Time>2021-08-12T14:32:42.000Z</Time>
            <Position>
              <LatitudeDegrees>43.29486164264380931854248046875</LatitudeDegrees>
              <LongitudeDegrees>-2.03739062882959842681884765625</LongitudeDegrees>
            </Position>
            <AltitudeMeters>100.1999969482421875</AltitudeMeters>
            <DistanceMeters>NAN</DistanceMeters>
          </Trackpoint>
          <Trackpoint>
            <Time>2021-08-12T14:32:43.000Z</Time>
            <Position>
              <LatitudeDegrees>43.29485141672194004058837890625</LatitudeDegrees>
              <LongitudeDegrees>-2.037394233047962188720703125</LongitudeDegrees>
            </Position>
            <AltitudeMeters>100.40000152587890625</AltitudeMeters>
            <DistanceMeters>NAN</DistanceMeters>
          </Trackpoint>
          <Trackpoint>
            <Time>2021-08-12T14:32:44.000Z</Time>
            <Position>
              <LatitudeDegrees>43.29484085552394390106201171875</LatitudeDegrees>
              <LongitudeDegrees>-2.03739850781857967376708984375</LongitudeDegrees>
            </Position>
            <AltitudeMeters>100.8000030517578125</AltitudeMeters>
            <DistanceMeters>NAN</DistanceMeters>
          </Trackpoint>
          <Trackpoint>
            <Time>2021-08-12T14:32:45.000Z</Time>
            <Position>
              <LatitudeDegrees>43.2948270253837108612060546875</LatitudeDegrees>
              <LongitudeDegrees>-2.0374034531414508819580078125</LongitudeDegrees>
            </Position>
            <AltitudeMeters>101.1999969482421875</AltitudeMeters>
            <DistanceMeters>NAN</DistanceMeters>
          </Trackpoint>
          <Trackpoint>
            <Time>2021-08-12T14:32:46.000Z</Time>
            <Position>
              <LatitudeDegrees>43.294810093939304351806640625</LatitudeDegrees>
              <LongitudeDegrees>-2.0374084822833538055419921875</LongitudeDegrees>
            </Position>
            <AltitudeMeters>101.1999969482421875</AltitudeMeters>
            <DistanceMeters>NAN</DistanceMeters>
          </Trackpoint>
          <Trackpoint>
            <Time>2021-08-12T14:32:47.000Z</Time>
            <Position>
              <LatitudeDegrees>43.29479676671326160430908203125</LatitudeDegrees>
              <LongitudeDegrees>-2.03741200268268585205078125</LongitudeDegrees>
            </Position>
            <AltitudeMeters>101.59999847412109375</AltitudeMeters>
            <DistanceMeters>NAN</DistanceMeters>
          </Trackpoint>
          <Trackpoint>
            <Time>2021-08-12T14:32:48.000Z</Time>
            <Position>
              <LatitudeDegrees>43.29478603787720203399658203125</LatitudeDegrees>
              <LongitudeDegrees>-2.0374151878058910369873046875</LongitudeDegrees>
            </Position>
            <AltitudeMeters>101.8000030517578125</AltitudeMeters>
            <DistanceMeters>NAN</DistanceMeters>
          </Trackpoint>
          <Trackpoint>
            <Time>2021-08-12T14:32:49.000Z</Time>
            <Position>
              <LatitudeDegrees>43.2947753928601741790771484375</LatitudeDegrees>
              <LongitudeDegrees>-2.03741845674812793731689453125</LongitudeDegrees>
            </Position>
            <AltitudeMeters>102.1999969482421875</AltitudeMeters>
            <DistanceMeters>NAN</DistanceMeters>
          </Trackpoint>
          <Trackpoint>
            <Time>2021-08-12T14:32:50.000Z</Time>
            <Position>
              <LatitudeDegrees>43.2947606407105922698974609375</LatitudeDegrees>
              <LongitudeDegrees>-2.03742382116615772247314453125</LongitudeDegrees>
            </Position>
            <AltitudeMeters>102.59999847412109375</AltitudeMeters>
            <DistanceMeters>NAN</DistanceMeters>
          </Trackpoint>
          <Trackpoint>
            <Time>2021-08-12T14:32:51.000Z</Time>
            <Position>
              <LatitudeDegrees>43.294747732579708099365234375</LatitudeDegrees>
              <LongitudeDegrees>-2.0374289341270923614501953125</LongitudeDegrees>
            </Position>
            <AltitudeMeters>103</AltitudeMeters>
            <DistanceMeters>NAN</DistanceMeters>
          </Trackpoint>
          <Trackpoint>
            <Time>2021-08-12T14:32:52.000Z</Time>
            <Position>
              <LatitudeDegrees>43.294736333191394805908203125</LatitudeDegrees>
              <LongitudeDegrees>-2.03743505291640758514404296875</LongitudeDegrees>
            </Position>
            <AltitudeMeters>103.40000152587890625</AltitudeMeters>
            <DistanceMeters>NAN</DistanceMeters>
          </Trackpoint>
          <Trackpoint>
            <Time>2021-08-12T14:32:53.000Z</Time>
            <Position>
              <LatitudeDegrees>43.2947264425456523895263671875</LatitudeDegrees>
              <LongitudeDegrees>-2.03744075261056423187255859375</LongitudeDegrees>
            </Position>
            <AltitudeMeters>103.59999847412109375</AltitudeMeters>
            <DistanceMeters>NAN</DistanceMeters>
          </Trackpoint>
          <Trackpoint>
            <Time>2021-08-12T14:32:54.000Z</Time>
            <Position>
              <LatitudeDegrees>43.29471588134765625</LatitudeDegrees>
              <LongitudeDegrees>-2.03744796104729175567626953125</LongitudeDegrees>
            </Position>
            <AltitudeMeters>104</AltitudeMeters>
            <DistanceMeters>NAN</DistanceMeters>
          </Trackpoint>
          <Trackpoint>
            <Time>2021-08-12T14:32:55.000Z</Time>
            <Position>
              <LatitudeDegrees>43.29470339231193065643310546875</LatitudeDegrees>
              <LongitudeDegrees>-2.03745483420789241790771484375</LongitudeDegrees>
            </Position>
            <AltitudeMeters>104.1999969482421875</AltitudeMeters>
            <DistanceMeters>NAN</DistanceMeters>
          </Trackpoint>
          <Trackpoint>
            <Time>2021-08-12T14:32:56.000Z</Time>
            <Position>
              <LatitudeDegrees>43.2946898974478244781494140625</LatitudeDegrees>
              <LongitudeDegrees>-2.037461958825588226318359375</LongitudeDegrees>
            </Position>
            <AltitudeMeters>104.40000152587890625</AltitudeMeters>
            <DistanceMeters>NAN</DistanceMeters>
          </Trackpoint>
          <Trackpoint>
            <Time>2021-08-12T14:32:57.000Z</Time>
            <Position>
              <LatitudeDegrees>43.2946784980595111846923828125</LatitudeDegrees>
              <LongitudeDegrees>-2.03746832907199859619140625</LongitudeDegrees>
            </Position>
            <AltitudeMeters>104.59999847412109375</AltitudeMeters>
            <DistanceMeters>NAN</DistanceMeters>
          </Trackpoint>
          <Trackpoint>
            <Time>2021-08-12T14:32:58.000Z</Time>
            <Position>
              <LatitudeDegrees>43.29466450028121471405029296875</LatitudeDegrees>
              <LongitudeDegrees>-2.03747461549937725067138671875</LongitudeDegrees>
            </Position>
            <AltitudeMeters>104.8000030517578125</AltitudeMeters>
            <DistanceMeters>NAN</DistanceMeters>
          </Trackpoint>
          <Trackpoint>
            <Time>2021-08-12T14:32:59.000Z</Time>
            <Position>
              <LatitudeDegrees>43.29464723356068134307861328125</LatitudeDegrees>
              <LongitudeDegrees>-2.03748065046966075897216796875</LongitudeDegrees>
            </Position>
            <AltitudeMeters>105.1999969482421875</AltitudeMeters>
            <DistanceMeters>NAN</DistanceMeters>
          </Trackpoint>
          <Trackpoint>
            <Time>2021-08-12T14:33:00.000Z</Time>
            <Position>
              <LatitudeDegrees>43.294632732868194580078125</LatitudeDegrees>
              <LongitudeDegrees>-2.0374819077551364898681640625</LongitudeDegrees>
            </Position>
            <AltitudeMeters>105.40000152587890625</AltitudeMeters>
            <DistanceMeters>NAN</DistanceMeters>
          </Trackpoint>
          <Trackpoint>
            <Time>2021-08-12T14:33:01.000Z</Time>
            <Position>
              <LatitudeDegrees>43.29461890272796154022216796875</LatitudeDegrees>
              <LongitudeDegrees>-2.0374822430312633514404296875</LongitudeDegrees>
            </Position>
            <AltitudeMeters>105.8000030517578125</AltitudeMeters>
            <DistanceMeters>NAN</DistanceMeters>
          </Trackpoint>
          <Trackpoint>
            <Time>2021-08-12T14:33:02.000Z</Time>
            <Position>
              <LatitudeDegrees>43.294609598815441131591796875</LatitudeDegrees>
              <LongitudeDegrees>-2.0374805666506290435791015625</LongitudeDegrees>
            </Position>
            <AltitudeMeters>106</AltitudeMeters>
            <DistanceMeters>NAN</DistanceMeters>
          </Trackpoint>
          <Trackpoint>
            <Time>2021-08-12T14:33:03.000Z</Time>
            <Position>
              <LatitudeDegrees>43.29459853470325469970703125</LatitudeDegrees>
              <LongitudeDegrees>-2.0374824106693267822265625</LongitudeDegrees>
            </Position>
            <AltitudeMeters>106.1999969482421875</AltitudeMeters>
            <DistanceMeters>NAN</DistanceMeters>
          </Trackpoint>
          <Trackpoint>
            <Time>2021-08-12T14:33:04.000Z</Time>
            <Position>
              <LatitudeDegrees>43.29458336345851421356201171875</LatitudeDegrees>
              <LongitudeDegrees>-2.03748802654445171356201171875</LongitudeDegrees>
            </Position>
            <AltitudeMeters>106.40000152587890625</AltitudeMeters>
            <DistanceMeters>NAN</DistanceMeters>
          </Trackpoint>
          <Trackpoint>
            <Time>2021-08-12T14:33:05.000Z</Time>
            <Position>
              <LatitudeDegrees>43.29457112587988376617431640625</LatitudeDegrees>
              <LongitudeDegrees>-2.0374919660389423370361328125</LongitudeDegrees>
            </Position>
            <AltitudeMeters>106.59999847412109375</AltitudeMeters>
            <DistanceMeters>NAN</DistanceMeters>
          </Trackpoint>
          <Trackpoint>
            <Time>2021-08-12T14:33:06.000Z</Time>
            <Position>
              <LatitudeDegrees>43.29455989412963390350341796875</LatitudeDegrees>
              <LongitudeDegrees>-2.037495486438274383544921875</LongitudeDegrees>
            </Position>
            <AltitudeMeters>106.8000030517578125</AltitudeMeters>
            <DistanceMeters>NAN</DistanceMeters>
          </Trackpoint>
          <Trackpoint>
            <Time>2021-08-12T14:33:07.000Z</Time>
            <Position>
              <LatitudeDegrees>43.29454899765551090240478515625</LatitudeDegrees>
              <LongitudeDegrees>-2.037499845027923583984375</LongitudeDegrees>
            </Position>
            <AltitudeMeters>106.8000030517578125</AltitudeMeters>
            <DistanceMeters>NAN</DistanceMeters>
          </Trackpoint>
          <Trackpoint>
            <Time>2021-08-12T14:33:08.000Z</Time>
            <Position>
              <LatitudeDegrees>43.2945370115339756011962890625</LatitudeDegrees>
              <LongitudeDegrees>-2.03750529326498508453369140625</LongitudeDegrees>
            </Position>
            <AltitudeMeters>107.1999969482421875</AltitudeMeters>
            <DistanceMeters>NAN</DistanceMeters>
          </Trackpoint>
          <Trackpoint>
            <Time>2021-08-12T14:33:09.000Z</Time>
            <Position>
              <LatitudeDegrees>43.2945246063172817230224609375</LatitudeDegrees>
              <LongitudeDegrees>-2.03750847838819026947021484375</LongitudeDegrees>
            </Position>
            <AltitudeMeters>107.40000152587890625</AltitudeMeters>
            <DistanceMeters>NAN</DistanceMeters>
          </Trackpoint>
          <Trackpoint>
            <Time>2021-08-12T14:33:10.000Z</Time>
            <Position>
              <LatitudeDegrees>43.294512368738651275634765625</LatitudeDegrees>
              <LongitudeDegrees>-2.03751233406364917755126953125</LongitudeDegrees>
            </Position>
            <AltitudeMeters>107.40000152587890625</AltitudeMeters>
            <DistanceMeters>NAN</DistanceMeters>
          </Trackpoint>
          <Trackpoint>
            <Time>2021-08-12T14:33:11.000Z</Time>
            <Position>
              <LatitudeDegrees>43.29450356774032115936279296875</LatitudeDegrees>
              <LongitudeDegrees>-2.03751392662525177001953125</LongitudeDegrees>
            </Position>
            <AltitudeMeters>107.59999847412109375</AltitudeMeters>
            <DistanceMeters>NAN</DistanceMeters>
          </Trackpoint>
          <Trackpoint>
            <Time>2021-08-12T14:33:12.000Z</Time>
            <Position>
              <LatitudeDegrees>43.2944940961897373199462890625</LatitudeDegrees>
              <LongitudeDegrees>-2.0375124178826808929443359375</LongitudeDegrees>
            </Position>
            <AltitudeMeters>107.8000030517578125</AltitudeMeters>
            <DistanceMeters>NAN</DistanceMeters>
          </Trackpoint>
          <Trackpoint>
            <Time>2021-08-12T14:33:13.000Z</Time>
            <Position>
              <LatitudeDegrees>43.29448361881077289581298828125</LatitudeDegrees>
              <LongitudeDegrees>-2.0375110767781734466552734375</LongitudeDegrees>
            </Position>
            <AltitudeMeters>108.1999969482421875</AltitudeMeters>
            <DistanceMeters>NAN</DistanceMeters>
          </Trackpoint>
          <Trackpoint>
            <Time>2021-08-12T14:33:14.000Z</Time>
            <Position>
              <LatitudeDegrees>43.29447506926953792572021484375</LatitudeDegrees>
              <LongitudeDegrees>-2.0375130884349346160888671875</LongitudeDegrees>
            </Position>
            <AltitudeMeters>108.40000152587890625</AltitudeMeters>
            <DistanceMeters>NAN</DistanceMeters>
          </Trackpoint>
          <Trackpoint>
            <Time>2021-08-12T14:33:15.000Z</Time>
            <Position>
              <LatitudeDegrees>43.29446434043347835540771484375</LatitudeDegrees>
              <LongitudeDegrees>-2.03751618973910808563232421875</LongitudeDegrees>
            </Position>
            <AltitudeMeters>108.59999847412109375</AltitudeMeters>
            <DistanceMeters>NAN</DistanceMeters>
          </Trackpoint>
          <Trackpoint>
            <Time>2021-08-12T14:33:16.000Z</Time>
            <Position>
              <LatitudeDegrees>43.2944545336067676544189453125</LatitudeDegrees>
              <LongitudeDegrees>-2.037515603005886077880859375</LongitudeDegrees>
            </Position>
            <AltitudeMeters>109</AltitudeMeters>
            <DistanceMeters>NAN</DistanceMeters>
          </Trackpoint>
          <Trackpoint>
            <Time>2021-08-12T14:33:17.000Z</Time>
            <Position>
              <LatitudeDegrees>43.294450677931308746337890625</LatitudeDegrees>
              <LongitudeDegrees>-2.037515603005886077880859375</LongitudeDegrees>
            </Position>
            <AltitudeMeters>109.1999969482421875</AltitudeMeters>
            <DistanceMeters>NAN</DistanceMeters>
          </Trackpoint>
          <Trackpoint>
            <Time>2021-08-12T14:33:18.000Z</Time>
            <Position>
              <LatitudeDegrees>43.29444698989391326904296875</LatitudeDegrees>
              <LongitudeDegrees>-2.03751484863460063934326171875</LongitudeDegrees>
            </Position>
            <AltitudeMeters>109.40000152587890625</AltitudeMeters>
            <DistanceMeters>NAN</DistanceMeters>
          </Trackpoint>
          <Trackpoint>
            <Time>2021-08-12T14:33:19.000Z</Time>
            <Position>
              <LatitudeDegrees>43.29443517141044139862060546875</LatitudeDegrees>
              <LongitudeDegrees>-2.03751551918685436248779296875</LongitudeDegrees>
            </Position>
            <AltitudeMeters>109.59999847412109375</AltitudeMeters>
            <DistanceMeters>NAN</DistanceMeters>
          </Trackpoint>
          <Trackpoint>
            <Time>2021-08-12T14:33:20.000Z</Time>
            <Position>
              <LatitudeDegrees>43.294423855841159820556640625</LatitudeDegrees>
              <LongitudeDegrees>-2.03751166351139545440673828125</LongitudeDegrees>
            </Position>
            <AltitudeMeters>110</AltitudeMeters>
            <DistanceMeters>NAN</DistanceMeters>
          </Trackpoint>
          <Trackpoint>
            <Time>2021-08-12T14:33:21.000Z</Time>
            <Position>
              <LatitudeDegrees>43.29441388137638568878173828125</LatitudeDegrees>
              <LongitudeDegrees>-2.03750663436949253082275390625</LongitudeDegrees>
            </Position>
            <AltitudeMeters>110</AltitudeMeters>
            <DistanceMeters>NAN</DistanceMeters>
          </Trackpoint>
          <Trackpoint>
            <Time>2021-08-12T14:33:22.000Z</Time>
            <Position>
              <LatitudeDegrees>43.2944049127399921417236328125</LatitudeDegrees>
              <LongitudeDegrees>-2.0375020243227481842041015625</LongitudeDegrees>
            </Position>
            <AltitudeMeters>110.1999969482421875</AltitudeMeters>
            <DistanceMeters>NAN</DistanceMeters>
          </Trackpoint>
          <Trackpoint>
            <Time>2021-08-12T14:33:23.000Z</Time>
            <Position>
              <LatitudeDegrees>43.294396363198757171630859375</LatitudeDegrees>
              <LongitudeDegrees>-2.03749707899987697601318359375</LongitudeDegrees>
            </Position>
            <AltitudeMeters>110.59999847412109375</AltitudeMeters>
            <DistanceMeters>NAN</DistanceMeters>
          </Trackpoint>
          <Trackpoint>
            <Time>2021-08-12T14:33:24.000Z</Time>
            <Position>
              <LatitudeDegrees>43.29438739456236362457275390625</LatitudeDegrees>
              <LongitudeDegrees>-2.03749573789536952972412109375</LongitudeDegrees>
            </Position>
            <AltitudeMeters>110.8000030517578125</AltitudeMeters>
            <DistanceMeters>NAN</DistanceMeters>
          </Trackpoint>
          <Trackpoint>
            <Time>2021-08-12T14:33:25.000Z</Time>
            <Position>
              <LatitudeDegrees>43.2943754084408283233642578125</LatitudeDegrees>
              <LongitudeDegrees>-2.03749590553343296051025390625</LongitudeDegrees>
            </Position>
            <AltitudeMeters>111</AltitudeMeters>
            <DistanceMeters>NAN</DistanceMeters>
          </Trackpoint>
          <Trackpoint>
            <Time>2021-08-12T14:33:26.000Z</Time>
            <Position>
              <LatitudeDegrees>43.29436275176703929901123046875</LatitudeDegrees>
              <LongitudeDegrees>-2.0374990068376064300537109375</LongitudeDegrees>
            </Position>
            <AltitudeMeters>111</AltitudeMeters>
            <DistanceMeters>NAN</DistanceMeters>
          </Trackpoint>
          <Trackpoint>
            <Time>2021-08-12T14:33:27.000Z</Time>
            <Position>
              <LatitudeDegrees>43.2943512685596942901611328125</LatitudeDegrees>
              <LongitudeDegrees>-2.0375016890466213226318359375</LongitudeDegrees>
            </Position>
            <AltitudeMeters>111.1999969482421875</AltitudeMeters>
            <DistanceMeters>NAN</DistanceMeters>
          </Trackpoint>
          <Trackpoint>
            <Time>2021-08-12T14:33:28.000Z</Time>
            <Position>
              <LatitudeDegrees>43.29434297047555446624755859375</LatitudeDegrees>
              <LongitudeDegrees>-2.037513591349124908447265625</LongitudeDegrees>
            </Position>
            <AltitudeMeters>111.1999969482421875</AltitudeMeters>
            <DistanceMeters>NAN</DistanceMeters>
          </Trackpoint>
          <Trackpoint>
            <Time>2021-08-12T14:33:29.000Z</Time>
            <Position>
              <LatitudeDegrees>43.2943378575146198272705078125</LatitudeDegrees>
              <LongitudeDegrees>-2.03753077425062656402587890625</LongitudeDegrees>
            </Position>
            <AltitudeMeters>111.1999969482421875</AltitudeMeters>
            <DistanceMeters>NAN</DistanceMeters>
          </Trackpoint>
          <Trackpoint>
            <Time>2021-08-12T14:33:30.000Z</Time>
            <Position>
              <LatitudeDegrees>43.29433207400143146514892578125</LatitudeDegrees>
              <LongitudeDegrees>-2.037546448409557342529296875</LongitudeDegrees>
            </Position>
            <AltitudeMeters>111.59999847412109375</AltitudeMeters>
            <DistanceMeters>NAN</DistanceMeters>
          </Trackpoint>
          <Trackpoint>
            <Time>2021-08-12T14:33:31.000Z</Time>
            <Position>
              <LatitudeDegrees>43.2943244464695453643798828125</LatitudeDegrees>
              <LongitudeDegrees>-2.03755927272140979766845703125</LongitudeDegrees>
            </Position>
            <AltitudeMeters>111.59999847412109375</AltitudeMeters>
            <DistanceMeters>NAN</DistanceMeters>
          </Trackpoint>
          <Trackpoint>
            <Time>2021-08-12T14:33:32.000Z</Time>
            <Position>
              <LatitudeDegrees>43.29431396909058094024658203125</LatitudeDegrees>
              <LongitudeDegrees>-2.0375710912048816680908203125</LongitudeDegrees>
            </Position>
            <AltitudeMeters>111.8000030517578125</AltitudeMeters>
            <DistanceMeters>NAN</DistanceMeters>
          </Trackpoint>
          <Trackpoint>
            <Time>2021-08-12T14:33:33.000Z</Time>
            <Position>
              <LatitudeDegrees>43.2943033240735530853271484375</LatitudeDegrees>
              <LongitudeDegrees>-2.03758156858384609222412109375</LongitudeDegrees>
            </Position>
            <AltitudeMeters>112</AltitudeMeters>
            <DistanceMeters>NAN</DistanceMeters>
          </Trackpoint>
          <Trackpoint>
            <Time>2021-08-12T14:33:34.000Z</Time>
            <Position>
              <LatitudeDegrees>43.29429200850427150726318359375</LatitudeDegrees>
              <LongitudeDegrees>-2.03759372234344482421875</LongitudeDegrees>
            </Position>
            <AltitudeMeters>112.1999969482421875</AltitudeMeters>
            <DistanceMeters>NAN</DistanceMeters>
          </Trackpoint>
          <Trackpoint>
            <Time>2021-08-12T14:33:35.000Z</Time>
            <Position>
              <LatitudeDegrees>43.2942838780581951141357421875</LatitudeDegrees>
              <LongitudeDegrees>-2.03760503791272640228271484375</LongitudeDegrees>
            </Position>
            <AltitudeMeters>112.40000152587890625</AltitudeMeters>
            <DistanceMeters>NAN</DistanceMeters>
          </Trackpoint>
          <Trackpoint>
            <Time>2021-08-12T14:33:36.000Z</Time>
            <Position>
              <LatitudeDegrees>43.2942765019834041595458984375</LatitudeDegrees>
              <LongitudeDegrees>-2.03761593438684940338134765625</LongitudeDegrees>
            </Position>
            <AltitudeMeters>112.59999847412109375</AltitudeMeters>
            <DistanceMeters>NAN</DistanceMeters>
          </Trackpoint>
          <Trackpoint>
            <Time>2021-08-12T14:33:37.000Z</Time>
            <Position>
              <LatitudeDegrees>43.294267617166042327880859375</LatitudeDegrees>
              <LongitudeDegrees>-2.03762733377516269683837890625</LongitudeDegrees>
            </Position>
            <AltitudeMeters>113</AltitudeMeters>
            <DistanceMeters>NAN</DistanceMeters>
          </Trackpoint>
          <Trackpoint>
            <Time>2021-08-12T14:33:38.000Z</Time>
            <Position>
              <LatitudeDegrees>43.2942600734531879425048828125</LatitudeDegrees>
              <LongitudeDegrees>-2.03763999044895172119140625</LongitudeDegrees>
            </Position>
            <AltitudeMeters>113</AltitudeMeters>
            <DistanceMeters>NAN</DistanceMeters>
          </Trackpoint>
          <Trackpoint>
            <Time>2021-08-12T14:33:39.000Z</Time>
            <Position>
              <LatitudeDegrees>43.29424993135035037994384765625</LatitudeDegrees>
              <LongitudeDegrees>-2.0376555807888507843017578125</LongitudeDegrees>
            </Position>
            <AltitudeMeters>113.1999969482421875</AltitudeMeters>
            <DistanceMeters>NAN</DistanceMeters>
          </Trackpoint>
          <Trackpoint>
            <Time>2021-08-12T14:33:40.000Z</Time>
            <Position>
              <LatitudeDegrees>43.29423836432397365570068359375</LatitudeDegrees>
              <LongitudeDegrees>-2.03766857273876667022705078125</LongitudeDegrees>
            </Position>
            <AltitudeMeters>113.1999969482421875</AltitudeMeters>
            <DistanceMeters>NAN</DistanceMeters>
          </Trackpoint>
          <Trackpoint>
            <Time>2021-08-12T14:33:41.000Z</Time>
            <Position>
              <LatitudeDegrees>43.29422495327889919281005859375</LatitudeDegrees>
              <LongitudeDegrees>-2.0376844145357608795166015625</LongitudeDegrees>
            </Position>
            <AltitudeMeters>113.40000152587890625</AltitudeMeters>
            <DistanceMeters>NAN</DistanceMeters>
          </Trackpoint>
          <Trackpoint>
            <Time>2021-08-12T14:33:42.000Z</Time>
            <Position>
              <LatitudeDegrees>43.294212631881237030029296875</LatitudeDegrees>
              <LongitudeDegrees>-2.03770168125629425048828125</LongitudeDegrees>
            </Position>
            <AltitudeMeters>113.59999847412109375</AltitudeMeters>
            <DistanceMeters>NAN</DistanceMeters>
          </Trackpoint>
          <Trackpoint>
            <Time>2021-08-12T14:33:43.000Z</Time>
            <Position>
              <LatitudeDegrees>43.29420031048357486724853515625</LatitudeDegrees>
              <LongitudeDegrees>-2.03771509230136871337890625</LongitudeDegrees>
            </Position>
            <AltitudeMeters>113.8000030517578125</AltitudeMeters>
            <DistanceMeters>NAN</DistanceMeters>
          </Trackpoint>
          <Trackpoint>
            <Time>2021-08-12T14:33:44.000Z</Time>
            <Position>
              <LatitudeDegrees>43.2941915094852447509765625</LatitudeDegrees>
              <LongitudeDegrees>-2.0377306826412677764892578125</LongitudeDegrees>
            </Position>
            <AltitudeMeters>114.40000152587890625</AltitudeMeters>
            <DistanceMeters>NAN</DistanceMeters>
          </Trackpoint>
          <Trackpoint>
            <Time>2021-08-12T14:33:45.000Z</Time>
            <Position>
              <LatitudeDegrees>43.2941816188395023345947265625</LatitudeDegrees>
              <LongitudeDegrees>-2.03774585388600826263427734375</LongitudeDegrees>
            </Position>
            <AltitudeMeters>114.8000030517578125</AltitudeMeters>
            <DistanceMeters>NAN</DistanceMeters>
          </Trackpoint>
          <Trackpoint>
            <Time>2021-08-12T14:33:46.000Z</Time>
            <Position>
              <LatitudeDegrees>43.294173069298267364501953125</LatitudeDegrees>
              <LongitudeDegrees>-2.03776203095912933349609375</LongitudeDegrees>
            </Position>
            <AltitudeMeters>115.59999847412109375</AltitudeMeters>
            <DistanceMeters>NAN</DistanceMeters>
          </Trackpoint>
          <Trackpoint>
            <Time>2021-08-12T14:33:47.000Z</Time>
            <Position>
              <LatitudeDegrees>43.294165022671222686767578125</LatitudeDegrees>
              <LongitudeDegrees>-2.0377772860229015350341796875</LongitudeDegrees>
            </Position>
            <AltitudeMeters>115.8000030517578125</AltitudeMeters>
            <DistanceMeters>NAN</DistanceMeters>
          </Trackpoint>
          <Trackpoint>
            <Time>2021-08-12T14:33:48.000Z</Time>
            <Position>
              <LatitudeDegrees>43.294158317148685455322265625</LatitudeDegrees>
              <LongitudeDegrees>-2.03779212199151515960693359375</LongitudeDegrees>
            </Position>
            <AltitudeMeters>116.1999969482421875</AltitudeMeters>
            <DistanceMeters>NAN</DistanceMeters>
          </Trackpoint>
          <Trackpoint>
            <Time>2021-08-12T14:33:49.000Z</Time>
            <Position>
              <LatitudeDegrees>43.294149935245513916015625</LatitudeDegrees>
              <LongitudeDegrees>-2.03780452720820903778076171875</LongitudeDegrees>
            </Position>
            <AltitudeMeters>116.40000152587890625</AltitudeMeters>
            <DistanceMeters>NAN</DistanceMeters>
          </Trackpoint>
          <Trackpoint>
            <Time>2021-08-12T14:33:50.000Z</Time>
            <Position>
              <LatitudeDegrees>43.29413979314267635345458984375</LatitudeDegrees>
              <LongitudeDegrees>-2.0378165133297443389892578125</LongitudeDegrees>
            </Position>
            <AltitudeMeters>116.59999847412109375</AltitudeMeters>
            <DistanceMeters>NAN</DistanceMeters>
          </Trackpoint>
          <Trackpoint>
            <Time>2021-08-12T14:33:51.000Z</Time>
            <Position>
              <LatitudeDegrees>43.294130824506282806396484375</LatitudeDegrees>
              <LongitudeDegrees>-2.03783118166029453277587890625</LongitudeDegrees>
            </Position>
            <AltitudeMeters>116.8000030517578125</AltitudeMeters>
            <DistanceMeters>NAN</DistanceMeters>
          </Trackpoint>
          <Trackpoint>
            <Time>2021-08-12T14:33:52.000Z</Time>
            <Position>
              <LatitudeDegrees>43.2941222749650478363037109375</LatitudeDegrees>
              <LongitudeDegrees>-2.0378466881811618804931640625</LongitudeDegrees>
            </Position>
            <AltitudeMeters>116.8000030517578125</AltitudeMeters>
            <DistanceMeters>NAN</DistanceMeters>
          </Trackpoint>
          <Trackpoint>
            <Time>2021-08-12T14:33:53.000Z</Time>
            <Position>
              <LatitudeDegrees>43.29411573708057403564453125</LatitudeDegrees>
              <LongitudeDegrees>-2.03786219470202922821044921875</LongitudeDegrees>
            </Position>
            <AltitudeMeters>117</AltitudeMeters>
            <DistanceMeters>NAN</DistanceMeters>
          </Trackpoint>
          <Trackpoint>
            <Time>2021-08-12T14:33:54.000Z</Time>
            <Position>
              <LatitudeDegrees>43.29410693608224391937255859375</LatitudeDegrees>
              <LongitudeDegrees>-2.037878371775150299072265625</LongitudeDegrees>
            </Position>
            <AltitudeMeters>117.1999969482421875</AltitudeMeters>
            <DistanceMeters>NAN</DistanceMeters>
          </Trackpoint>
          <Trackpoint>
            <Time>2021-08-12T14:33:55.000Z</Time>
            <Position>
              <LatitudeDegrees>43.294097967445850372314453125</LatitudeDegrees>
              <LongitudeDegrees>-2.03789790160953998565673828125</LongitudeDegrees>
            </Position>
            <AltitudeMeters>117.40000152587890625</AltitudeMeters>
            <DistanceMeters>NAN</DistanceMeters>
          </Trackpoint>
          <Trackpoint>
            <Time>2021-08-12T14:33:56.000Z</Time>
            <Position>
              <LatitudeDegrees>43.29408849589526653289794921875</LatitudeDegrees>
              <LongitudeDegrees>-2.037912569940090179443359375</LongitudeDegrees>
            </Position>
            <AltitudeMeters>117.59999847412109375</AltitudeMeters>
            <DistanceMeters>NAN</DistanceMeters>
          </Trackpoint>
          <Trackpoint>
            <Time>2021-08-12T14:33:57.000Z</Time>
            <Position>
              <LatitudeDegrees>43.294075839221477508544921875</LatitudeDegrees>
              <LongitudeDegrees>-2.03792271204292774200439453125</LongitudeDegrees>
            </Position>
            <AltitudeMeters>117.8000030517578125</AltitudeMeters>
            <DistanceMeters>NAN</DistanceMeters>
          </Trackpoint>
          <Trackpoint>
            <Time>2021-08-12T14:33:58.000Z</Time>
            <Position>
              <LatitudeDegrees>43.294064104557037353515625</LatitudeDegrees>
              <LongitudeDegrees>-2.0379291661083698272705078125</LongitudeDegrees>
            </Position>
            <AltitudeMeters>118.1999969482421875</AltitudeMeters>
            <DistanceMeters>NAN</DistanceMeters>
          </Trackpoint>
          <Trackpoint>
            <Time>2021-08-12T14:33:59.000Z</Time>
            <Position>
              <LatitudeDegrees>43.29405312426388263702392578125</LatitudeDegrees>
              <LongitudeDegrees>-2.037935368716716766357421875</LongitudeDegrees>
            </Position>
            <AltitudeMeters>118.40000152587890625</AltitudeMeters>
            <DistanceMeters>NAN</DistanceMeters>
          </Trackpoint>
          <Trackpoint>
            <Time>2021-08-12T14:34:00.000Z</Time>
            <Position>
              <LatitudeDegrees>43.2940438203513622283935546875</LatitudeDegrees>
              <LongitudeDegrees>-2.0379410684108734130859375</LongitudeDegrees>
            </Position>
            <AltitudeMeters>118.59999847412109375</AltitudeMeters>
            <DistanceMeters>NAN</DistanceMeters>
          </Trackpoint>
          <Trackpoint>
            <Time>2021-08-12T14:34:01.000Z</Time>
            <Position>
              <LatitudeDegrees>43.294032253324985504150390625</LatitudeDegrees>
              <LongitudeDegrees>-2.0379482768476009368896484375</LongitudeDegrees>
            </Position>
            <AltitudeMeters>118.8000030517578125</AltitudeMeters>
            <DistanceMeters>NAN</DistanceMeters>
          </Trackpoint>
          <Trackpoint>
            <Time>2021-08-12T14:34:02.000Z</Time>
            <Position>
              <LatitudeDegrees>43.29402051866054534912109375</LatitudeDegrees>
              <LongitudeDegrees>-2.037963531911373138427734375</LongitudeDegrees>
            </Position>
            <AltitudeMeters>119</AltitudeMeters>
            <DistanceMeters>NAN</DistanceMeters>
          </Trackpoint>
          <Trackpoint>
            <Time>2021-08-12T14:34:03.000Z</Time>
            <Position>
              <LatitudeDegrees>43.29401222057640552520751953125</LatitudeDegrees>
              <LongitudeDegrees>-2.03797903843224048614501953125</LongitudeDegrees>
            </Position>
            <AltitudeMeters>119.1999969482421875</AltitudeMeters>
            <DistanceMeters>NAN</DistanceMeters>
          </Trackpoint>
          <Trackpoint>
            <Time>2021-08-12T14:34:04.000Z</Time>
            <Position>
              <LatitudeDegrees>43.2940042577683925628662109375</LatitudeDegrees>
              <LongitudeDegrees>-2.03799211420118808746337890625</LongitudeDegrees>
            </Position>
            <AltitudeMeters>119.40000152587890625</AltitudeMeters>
            <DistanceMeters>NAN</DistanceMeters>
          </Trackpoint>
          <Trackpoint>
            <Time>2021-08-12T14:34:05.000Z</Time>
            <Position>
              <LatitudeDegrees>43.29399478621780872344970703125</LatitudeDegrees>
              <LongitudeDegrees>-2.03800477087497711181640625</LongitudeDegrees>
            </Position>
            <AltitudeMeters>119.59999847412109375</AltitudeMeters>
            <DistanceMeters>NAN</DistanceMeters>
          </Trackpoint>
          <Trackpoint>
            <Time>2021-08-12T14:34:06.000Z</Time>
            <Position>
              <LatitudeDegrees>43.2939874939620494842529296875</LatitudeDegrees>
              <LongitudeDegrees>-2.038020193576812744140625</LongitudeDegrees>
            </Position>
            <AltitudeMeters>119.8000030517578125</AltitudeMeters>
            <DistanceMeters>NAN</DistanceMeters>
          </Trackpoint>
          <Trackpoint>
            <Time>2021-08-12T14:34:07.000Z</Time>
            <Position>
              <LatitudeDegrees>43.29398095607757568359375</LatitudeDegrees>
              <LongitudeDegrees>-2.03803871758282184600830078125</LongitudeDegrees>
            </Position>
            <AltitudeMeters>120</AltitudeMeters>
            <DistanceMeters>NAN</DistanceMeters>
          </Trackpoint>
          <Trackpoint>
            <Time>2021-08-12T14:34:08.000Z</Time>
            <Position>
              <LatitudeDegrees>43.29397131688892841339111328125</LatitudeDegrees>
              <LongitudeDegrees>-2.03805380500853061676025390625</LongitudeDegrees>
            </Position>
            <AltitudeMeters>120.1999969482421875</AltitudeMeters>
            <DistanceMeters>NAN</DistanceMeters>
          </Trackpoint>
          <Trackpoint>
            <Time>2021-08-12T14:34:09.000Z</Time>
            <Position>
              <LatitudeDegrees>43.2939600013196468353271484375</LatitudeDegrees>
              <LongitudeDegrees>-2.03806570731103420257568359375</LongitudeDegrees>
            </Position>
            <AltitudeMeters>120.40000152587890625</AltitudeMeters>
            <DistanceMeters>NAN</DistanceMeters>
          </Trackpoint>
          <Trackpoint>
            <Time>2021-08-12T14:34:10.000Z</Time>
            <Position>
              <LatitudeDegrees>43.29395002685487270355224609375</LatitudeDegrees>
              <LongitudeDegrees>-2.0380780287086963653564453125</LongitudeDegrees>
            </Position>
            <AltitudeMeters>120.59999847412109375</AltitudeMeters>
            <DistanceMeters>NAN</DistanceMeters>
          </Trackpoint>
          <Trackpoint>
            <Time>2021-08-12T14:34:11.000Z</Time>
            <Position>
              <LatitudeDegrees>43.2939405553042888641357421875</LatitudeDegrees>
              <LongitudeDegrees>-2.0380874164402484893798828125</LongitudeDegrees>
            </Position>
            <AltitudeMeters>120.8000030517578125</AltitudeMeters>
            <DistanceMeters>NAN</DistanceMeters>
          </Trackpoint>
          <Trackpoint>
            <Time>2021-08-12T14:34:12.000Z</Time>
            <Position>
              <LatitudeDegrees>43.2939328439533710479736328125</LatitudeDegrees>
              <LongitudeDegrees>-2.03809604980051517486572265625</LongitudeDegrees>
            </Position>
            <AltitudeMeters>121.1999969482421875</AltitudeMeters>
            <DistanceMeters>NAN</DistanceMeters>
          </Trackpoint>
          <Trackpoint>
            <Time>2021-08-12T14:34:13.000Z</Time>
            <Position>
              <LatitudeDegrees>43.2939214445650577545166015625</LatitudeDegrees>
              <LongitudeDegrees>-2.03810292296111583709716796875</LongitudeDegrees>
            </Position>
            <AltitudeMeters>121.1999969482421875</AltitudeMeters>
            <DistanceMeters>NAN</DistanceMeters>
          </Trackpoint>
          <Trackpoint>
            <Time>2021-08-12T14:34:14.000Z</Time>
            <Position>
              <LatitudeDegrees>43.29391130246222019195556640625</LatitudeDegrees>
              <LongitudeDegrees>-2.03811365179717540740966796875</LongitudeDegrees>
            </Position>
            <AltitudeMeters>121.40000152587890625</AltitudeMeters>
            <DistanceMeters>NAN</DistanceMeters>
          </Trackpoint>
          <Trackpoint>
            <Time>2021-08-12T14:34:15.000Z</Time>
            <Position>
              <LatitudeDegrees>43.2939003221690654754638671875</LatitudeDegrees>
              <LongitudeDegrees>-2.03812488354742527008056640625</LongitudeDegrees>
            </Position>
            <AltitudeMeters>121.59999847412109375</AltitudeMeters>
            <DistanceMeters>NAN</DistanceMeters>
          </Trackpoint>
          <Trackpoint>
            <Time>2021-08-12T14:34:16.000Z</Time>
            <Position>
              <LatitudeDegrees>43.29389135353267192840576171875</LatitudeDegrees>
              <LongitudeDegrees>-2.03813326545059680938720703125</LongitudeDegrees>
            </Position>
            <AltitudeMeters>121.59999847412109375</AltitudeMeters>
            <DistanceMeters>NAN</DistanceMeters>
          </Trackpoint>
          <Trackpoint>
            <Time>2021-08-12T14:34:17.000Z</Time>
            <Position>
              <LatitudeDegrees>43.2938830554485321044921875</LatitudeDegrees>
              <LongitudeDegrees>-2.03814332373440265655517578125</LongitudeDegrees>
            </Position>
            <AltitudeMeters>122</AltitudeMeters>
            <DistanceMeters>NAN</DistanceMeters>
          </Trackpoint>
          <Trackpoint>
            <Time>2021-08-12T14:34:18.000Z</Time>
            <Position>
              <LatitudeDegrees>43.2938761822879314422607421875</LatitudeDegrees>
              <LongitudeDegrees>-2.03815354965627193450927734375</LongitudeDegrees>
            </Position>
            <AltitudeMeters>122</AltitudeMeters>
            <DistanceMeters>NAN</DistanceMeters>
          </Trackpoint>
          <Trackpoint>
            <Time>2021-08-12T14:34:19.000Z</Time>
            <Position>
              <LatitudeDegrees>43.2938674651086330413818359375</LatitudeDegrees>
              <LongitudeDegrees>-2.03816528432071208953857421875</LongitudeDegrees>
            </Position>
            <AltitudeMeters>122.1999969482421875</AltitudeMeters>
            <DistanceMeters>NAN</DistanceMeters>
          </Trackpoint>
          <Trackpoint>
            <Time>2021-08-12T14:34:20.000Z</Time>
            <Position>
              <LatitudeDegrees>43.2938567362725734710693359375</LatitudeDegrees>
              <LongitudeDegrees>-2.03817919827997684478759765625</LongitudeDegrees>
            </Position>
            <AltitudeMeters>122.40000152587890625</AltitudeMeters>
            <DistanceMeters>NAN</DistanceMeters>
          </Trackpoint>
          <Trackpoint>
            <Time>2021-08-12T14:34:21.000Z</Time>
            <Position>
              <LatitudeDegrees>43.29384458251297473907470703125</LatitudeDegrees>
              <LongitudeDegrees>-2.0381958782672882080078125</LongitudeDegrees>
            </Position>
            <AltitudeMeters>122.40000152587890625</AltitudeMeters>
            <DistanceMeters>NAN</DistanceMeters>
          </Trackpoint>
          <Trackpoint>
            <Time>2021-08-12T14:34:22.000Z</Time>
            <Position>
              <LatitudeDegrees>43.29383569769561290740966796875</LatitudeDegrees>
              <LongitudeDegrees>-2.0382084511220455169677734375</LongitudeDegrees>
            </Position>
            <AltitudeMeters>122.40000152587890625</AltitudeMeters>
            <DistanceMeters>NAN</DistanceMeters>
          </Trackpoint>
          <Trackpoint>
            <Time>2021-08-12T14:34:23.000Z</Time>
            <Position>
              <LatitudeDegrees>43.2938285730779170989990234375</LatitudeDegrees>
              <LongitudeDegrees>-2.03821943141520023345947265625</LongitudeDegrees>
            </Position>
            <AltitudeMeters>122.59999847412109375</AltitudeMeters>
            <DistanceMeters>NAN</DistanceMeters>
          </Trackpoint>
          <Trackpoint>
            <Time>2021-08-12T14:34:24.000Z</Time>
            <Position>
              <LatitudeDegrees>43.29382144846022129058837890625</LatitudeDegrees>
              <LongitudeDegrees>-2.0382292382419109344482421875</LongitudeDegrees>
            </Position>
            <AltitudeMeters>122.59999847412109375</AltitudeMeters>
            <DistanceMeters>NAN</DistanceMeters>
          </Trackpoint>
          <Trackpoint>
            <Time>2021-08-12T14:34:25.000Z</Time>
            <Position>
              <LatitudeDegrees>43.2938121445477008819580078125</LatitudeDegrees>
              <LongitudeDegrees>-2.0382426492869853973388671875</LongitudeDegrees>
            </Position>
            <AltitudeMeters>122.59999847412109375</AltitudeMeters>
            <DistanceMeters>NAN</DistanceMeters>
          </Trackpoint>
          <Trackpoint>
            <Time>2021-08-12T14:34:26.000Z</Time>
            <Position>
              <LatitudeDegrees>43.29380300827324390411376953125</LatitudeDegrees>
              <LongitudeDegrees>-2.0382540486752986907958984375</LongitudeDegrees>
            </Position>
            <AltitudeMeters>122.59999847412109375</AltitudeMeters>
            <DistanceMeters>NAN</DistanceMeters>
          </Trackpoint>
          <Trackpoint>
            <Time>2021-08-12T14:34:27.000Z</Time>
            <Position>
              <LatitudeDegrees>43.29379730857908725738525390625</LatitudeDegrees>
              <LongitudeDegrees>-2.03826419077813625335693359375</LongitudeDegrees>
            </Position>
            <AltitudeMeters>122.8000030517578125</AltitudeMeters>
            <DistanceMeters>NAN</DistanceMeters>
          </Trackpoint>
          <Trackpoint>
            <Time>2021-08-12T14:34:28.000Z</Time>
            <Position>
              <LatitudeDegrees>43.2937916927039623260498046875</LatitudeDegrees>
              <LongitudeDegrees>-2.038273997604846954345703125</LongitudeDegrees>
            </Position>
            <AltitudeMeters>122.8000030517578125</AltitudeMeters>
            <DistanceMeters>NAN</DistanceMeters>
          </Trackpoint>
          <Trackpoint>
            <Time>2021-08-12T14:34:29.000Z</Time>
            <Position>
              <LatitudeDegrees>43.29378272406756877899169921875</LatitudeDegrees>
              <LongitudeDegrees>-2.03828900121152400970458984375</LongitudeDegrees>
            </Position>
            <AltitudeMeters>122.8000030517578125</AltitudeMeters>
            <DistanceMeters>NAN</DistanceMeters>
          </Trackpoint>
          <Trackpoint>
            <Time>2021-08-12T14:34:30.000Z</Time>
            <Position>
              <LatitudeDegrees>43.29377031885087490081787109375</LatitudeDegrees>
              <LongitudeDegrees>-2.03830442391335964202880859375</LongitudeDegrees>
            </Position>
            <AltitudeMeters>123</AltitudeMeters>
            <DistanceMeters>NAN</DistanceMeters>
          </Trackpoint>
          <Trackpoint>
            <Time>2021-08-12T14:34:31.000Z</Time>
            <Position>
              <LatitudeDegrees>43.29375942237675189971923828125</LatitudeDegrees>
              <LongitudeDegrees>-2.03831314109265804290771484375</LongitudeDegrees>
            </Position>
            <AltitudeMeters>123</AltitudeMeters>
            <DistanceMeters>NAN</DistanceMeters>
          </Trackpoint>
          <Trackpoint>
            <Time>2021-08-12T14:34:32.000Z</Time>
            <Position>
              <LatitudeDegrees>43.29374936409294605255126953125</LatitudeDegrees>
              <LongitudeDegrees>-2.03832269646227359771728515625</LongitudeDegrees>
            </Position>
            <AltitudeMeters>123</AltitudeMeters>
            <DistanceMeters>NAN</DistanceMeters>
          </Trackpoint>
          <Trackpoint>
            <Time>2021-08-12T14:34:33.000Z</Time>
            <Position>
              <LatitudeDegrees>43.2937393896281719207763671875</LatitudeDegrees>
              <LongitudeDegrees>-2.03833401203155517578125</LongitudeDegrees>
            </Position>
            <AltitudeMeters>123.1999969482421875</AltitudeMeters>
            <DistanceMeters>NAN</DistanceMeters>
          </Trackpoint>
          <Trackpoint>
            <Time>2021-08-12T14:34:34.000Z</Time>
            <Position>
              <LatitudeDegrees>43.29373008571565151214599609375</LatitudeDegrees>
              <LongitudeDegrees>-2.0383402146399021148681640625</LongitudeDegrees>
            </Position>
            <AltitudeMeters>123.1999969482421875</AltitudeMeters>
            <DistanceMeters>NAN</DistanceMeters>
          </Trackpoint>
          <Trackpoint>
            <Time>2021-08-12T14:34:35.000Z</Time>
            <Position>
              <LatitudeDegrees>43.293712399899959564208984375</LatitudeDegrees>
              <LongitudeDegrees>-2.038345746695995330810546875</LongitudeDegrees>
            </Position>
            <AltitudeMeters>123.1999969482421875</AltitudeMeters>
            <DistanceMeters>NAN</DistanceMeters>
          </Trackpoint>
          <Trackpoint>
            <Time>2021-08-12T14:34:36.000Z</Time>
            <Position>
              <LatitudeDegrees>43.2936961390078067779541015625</LatitudeDegrees>
              <LongitudeDegrees>-2.0383472554385662078857421875</LongitudeDegrees>
            </Position>
            <AltitudeMeters>123.1999969482421875</AltitudeMeters>
            <DistanceMeters>NAN</DistanceMeters>
          </Trackpoint>
          <Trackpoint>
            <Time>2021-08-12T14:34:37.000Z</Time>
            <Position>
              <LatitudeDegrees>43.29368080012500286102294921875</LatitudeDegrees>
              <LongitudeDegrees>-2.03835404478013515472412109375</LongitudeDegrees>
            </Position>
            <AltitudeMeters>123.40000152587890625</AltitudeMeters>
            <DistanceMeters>NAN</DistanceMeters>
          </Trackpoint>
          <Trackpoint>
            <Time>2021-08-12T14:34:38.000Z</Time>
            <Position>
              <LatitudeDegrees>43.2936683110892772674560546875</LatitudeDegrees>
              <LongitudeDegrees>-2.03836108557879924774169921875</LongitudeDegrees>
            </Position>
            <AltitudeMeters>123.40000152587890625</AltitudeMeters>
            <DistanceMeters>NAN</DistanceMeters>
          </Trackpoint>
          <Trackpoint>
            <Time>2021-08-12T14:34:39.000Z</Time>
            <Position>
              <LatitudeDegrees>43.29365213401615619659423828125</LatitudeDegrees>
              <LongitudeDegrees>-2.0383677072823047637939453125</LongitudeDegrees>
            </Position>
            <AltitudeMeters>123.40000152587890625</AltitudeMeters>
            <DistanceMeters>NAN</DistanceMeters>
          </Trackpoint>
          <Trackpoint>
            <Time>2021-08-12T14:34:40.000Z</Time>
            <Position>
              <LatitudeDegrees>43.29363738186657428741455078125</LatitudeDegrees>
              <LongitudeDegrees>-2.03837047331035137176513671875</LongitudeDegrees>
            </Position>
            <AltitudeMeters>123.59999847412109375</AltitudeMeters>
            <DistanceMeters>NAN</DistanceMeters>
          </Trackpoint>
          <Trackpoint>
            <Time>2021-08-12T14:34:41.000Z</Time>
            <Position>
              <LatitudeDegrees>43.2936240546405315399169921875</LatitudeDegrees>
              <LongitudeDegrees>-2.03837231732904911041259765625</LongitudeDegrees>
            </Position>
            <AltitudeMeters>123.59999847412109375</AltitudeMeters>
            <DistanceMeters>NAN</DistanceMeters>
          </Trackpoint>
          <Trackpoint>
            <Time>2021-08-12T14:34:43.000Z</Time>
            <Position>
              <LatitudeDegrees>43.29359379597008228302001953125</LatitudeDegrees>
              <LongitudeDegrees>-2.03837634064257144927978515625</LongitudeDegrees>
            </Position>
            <AltitudeMeters>123.59999847412109375</AltitudeMeters>
            <DistanceMeters>NAN</DistanceMeters>
          </Trackpoint>
          <Trackpoint>
            <Time>2021-08-12T14:34:50.000Z</Time>
            <Position>
              <LatitudeDegrees>43.29349120147526264190673828125</LatitudeDegrees>
              <LongitudeDegrees>-2.03839092515408992767333984375</LongitudeDegrees>
            </Position>
            <AltitudeMeters>124</AltitudeMeters>
            <DistanceMeters>NAN</DistanceMeters>
          </Trackpoint>
          <Trackpoint>
            <Time>2021-08-12T14:34:52.000Z</Time>
            <Position>
              <LatitudeDegrees>43.29347309656441211700439453125</LatitudeDegrees>
              <LongitudeDegrees>-2.03838941641151905059814453125</LongitudeDegrees>
            </Position>
            <AltitudeMeters>124.1999969482421875</AltitudeMeters>
            <DistanceMeters>NAN</DistanceMeters>
          </Trackpoint>
          <Trackpoint>
            <Time>2021-08-12T14:34:54.000Z</Time>
            <Position>
              <LatitudeDegrees>43.2934512197971343994140625</LatitudeDegrees>
              <LongitudeDegrees>-2.03838354907929897308349609375</LongitudeDegrees>
            </Position>
            <AltitudeMeters>124.40000152587890625</AltitudeMeters>
            <DistanceMeters>NAN</DistanceMeters>
          </Trackpoint>
          <Trackpoint>
            <Time>2021-08-12T14:34:55.000Z</Time>
            <Position>
              <LatitudeDegrees>43.29343722201883792877197265625</LatitudeDegrees>
              <LongitudeDegrees>-2.03837315551936626434326171875</LongitudeDegrees>
            </Position>
            <AltitudeMeters>124.40000152587890625</AltitudeMeters>
            <DistanceMeters>NAN</DistanceMeters>
          </Trackpoint>
          <Trackpoint>
            <Time>2021-08-12T14:34:57.000Z</Time>
            <Position>
              <LatitudeDegrees>43.29341090284287929534912109375</LatitudeDegrees>
              <LongitudeDegrees>-2.0383509434759616851806640625</LongitudeDegrees>
            </Position>
            <AltitudeMeters>124.59999847412109375</AltitudeMeters>
            <DistanceMeters>NAN</DistanceMeters>
          </Trackpoint>
          <Trackpoint>
            <Time>2021-08-12T14:34:58.000Z</Time>
            <Position>
              <LatitudeDegrees>43.29339061863720417022705078125</LatitudeDegrees>
              <LongitudeDegrees>-2.038329653441905975341796875</LongitudeDegrees>
            </Position>
            <AltitudeMeters>124.8000030517578125</AltitudeMeters>
            <DistanceMeters>NAN</DistanceMeters>
          </Trackpoint>
          <Trackpoint>
            <Time>2021-08-12T14:34:59.000Z</Time>
            <Position>
              <LatitudeDegrees>43.29336731694638729095458984375</LatitudeDegrees>
              <LongitudeDegrees>-2.03832353465259075164794921875</LongitudeDegrees>
            </Position>
            <AltitudeMeters>124.8000030517578125</AltitudeMeters>
            <DistanceMeters>NAN</DistanceMeters>
          </Trackpoint>
          <Trackpoint>
            <Time>2021-08-12T14:35:00.000Z</Time>
            <Position>
              <LatitudeDegrees>43.2933487929403781890869140625</LatitudeDegrees>
              <LongitudeDegrees>-2.03831464983522891998291015625</LongitudeDegrees>
            </Position>
            <AltitudeMeters>124.8000030517578125</AltitudeMeters>
            <DistanceMeters>NAN</DistanceMeters>
          </Trackpoint>
          <Trackpoint>
            <Time>2021-08-12T14:35:02.000Z</Time>
            <Position>
              <LatitudeDegrees>43.2933062128722667694091796875</LatitudeDegrees>
              <LongitudeDegrees>-2.038286067545413970947265625</LongitudeDegrees>
            </Position>
            <AltitudeMeters>125</AltitudeMeters>
            <DistanceMeters>NAN</DistanceMeters>
          </Trackpoint>
          <Trackpoint>
            <Time>2021-08-12T14:35:03.000Z</Time>
            <Position>
              <LatitudeDegrees>43.2932877726852893829345703125</LatitudeDegrees>
              <LongitudeDegrees>-2.03827257268130779266357421875</LongitudeDegrees>
            </Position>
            <AltitudeMeters>125.1999969482421875</AltitudeMeters>
            <DistanceMeters>NAN</DistanceMeters>
          </Trackpoint>
          <Trackpoint>
            <Time>2021-08-12T14:35:09.000Z</Time>
            <Position>
              <LatitudeDegrees>43.2932150177657604217529296875</LatitudeDegrees>
              <LongitudeDegrees>-2.03821859322488307952880859375</LongitudeDegrees>
            </Position>
            <AltitudeMeters>125.40000152587890625</AltitudeMeters>
            <DistanceMeters>NAN</DistanceMeters>
          </Trackpoint>
          <Trackpoint>
            <Time>2021-08-12T14:35:13.000Z</Time>
            <Position>
              <LatitudeDegrees>43.29315626062452793121337890625</LatitudeDegrees>
              <LongitudeDegrees>-2.0381886698305606842041015625</LongitudeDegrees>
            </Position>
            <AltitudeMeters>126</AltitudeMeters>
            <DistanceMeters>NAN</DistanceMeters>
          </Trackpoint>
          <Trackpoint>
            <Time>2021-08-12T14:35:14.000Z</Time>
            <Position>
              <LatitudeDegrees>43.29313782043755054473876953125</LatitudeDegrees>
              <LongitudeDegrees>-2.03818850219249725341796875</LongitudeDegrees>
            </Position>
            <AltitudeMeters>126.1999969482421875</AltitudeMeters>
            <DistanceMeters>NAN</DistanceMeters>
          </Trackpoint>
          <Trackpoint>
            <Time>2021-08-12T14:35:15.000Z</Time>
            <Position>
              <LatitudeDegrees>43.29312239773571491241455078125</LatitudeDegrees>
              <LongitudeDegrees>-2.0381893403828144073486328125</LongitudeDegrees>
            </Position>
            <AltitudeMeters>126.40000152587890625</AltitudeMeters>
            <DistanceMeters>NAN</DistanceMeters>
          </Trackpoint>
          <Trackpoint>
            <Time>2021-08-12T14:35:16.000Z</Time>
            <Position>
              <LatitudeDegrees>43.2931067235767841339111328125</LatitudeDegrees>
              <LongitudeDegrees>-2.038194872438907623291015625</LongitudeDegrees>
            </Position>
            <AltitudeMeters>126.40000152587890625</AltitudeMeters>
            <DistanceMeters>NAN</DistanceMeters>
          </Trackpoint>
          <Trackpoint>
            <Time>2021-08-12T14:35:24.000Z</Time>
            <Position>
              <LatitudeDegrees>43.29296800307929515838623046875</LatitudeDegrees>
              <LongitudeDegrees>-2.03824256546795368194580078125</LongitudeDegrees>
            </Position>
            <AltitudeMeters>127.1999969482421875</AltitudeMeters>
            <DistanceMeters>NAN</DistanceMeters>
          </Trackpoint>
          <Trackpoint>
            <Time>2021-08-12T14:35:25.000Z</Time>
            <Position>
              <LatitudeDegrees>43.2929501496255397796630859375</LatitudeDegrees>
              <LongitudeDegrees>-2.0382493548095226287841796875</LongitudeDegrees>
            </Position>
            <AltitudeMeters>127.1999969482421875</AltitudeMeters>
            <DistanceMeters>NAN</DistanceMeters>
          </Trackpoint>
          <Trackpoint>
            <Time>2021-08-12T14:35:33.000Z</Time>
            <Position>
              <LatitudeDegrees>43.2927794940769672393798828125</LatitudeDegrees>
              <LongitudeDegrees>-2.0382416434586048126220703125</LongitudeDegrees>
            </Position>
            <AltitudeMeters>127.40000152587890625</AltitudeMeters>
            <DistanceMeters>NAN</DistanceMeters>
          </Trackpoint>
          <Trackpoint>
            <Time>2021-08-12T14:35:42.000Z</Time>
            <Position>
              <LatitudeDegrees>43.29259668476879596710205078125</LatitudeDegrees>
              <LongitudeDegrees>-2.0381360314786434173583984375</LongitudeDegrees>
            </Position>
            <AltitudeMeters>127.59999847412109375</AltitudeMeters>
            <DistanceMeters>NAN</DistanceMeters>
          </Trackpoint>
          <Trackpoint>
            <Time>2021-08-12T14:35:46.000Z</Time>
            <Position>
              <LatitudeDegrees>43.29250565730035305023193359375</LatitudeDegrees>
              <LongitudeDegrees>-2.03811465762555599212646484375</LongitudeDegrees>
            </Position>
            <AltitudeMeters>127.8000030517578125</AltitudeMeters>
            <DistanceMeters>NAN</DistanceMeters>
          </Trackpoint>
          <Trackpoint>
            <Time>2021-08-12T14:35:48.000Z</Time>
            <Position>
              <LatitudeDegrees>43.29246483743190765380859375</LatitudeDegrees>
              <LongitudeDegrees>-2.038110382854938507080078125</LongitudeDegrees>
            </Position>
            <AltitudeMeters>128.1999969482421875</AltitudeMeters>
            <DistanceMeters>NAN</DistanceMeters>
          </Trackpoint>
          <Trackpoint>
            <Time>2021-08-12T14:35:49.000Z</Time>
            <Position>
              <LatitudeDegrees>43.29244446940720081329345703125</LatitudeDegrees>
              <LongitudeDegrees>-2.03811013139784336090087890625</LongitudeDegrees>
            </Position>
            <AltitudeMeters>128.1999969482421875</AltitudeMeters>
            <DistanceMeters>NAN</DistanceMeters>
          </Trackpoint>
          <Trackpoint>
            <Time>2021-08-12T14:35:50.000Z</Time>
            <Position>
              <LatitudeDegrees>43.2924241013824939727783203125</LatitudeDegrees>
              <LongitudeDegrees>-2.0381108857691287994384765625</LongitudeDegrees>
            </Position>
            <AltitudeMeters>128.399993896484375</AltitudeMeters>
            <DistanceMeters>NAN</DistanceMeters>
          </Trackpoint>
          <Trackpoint>
            <Time>2021-08-12T14:35:51.000Z</Time>
            <Position>
              <LatitudeDegrees>43.29240373335778713226318359375</LatitudeDegrees>
              <LongitudeDegrees>-2.0381112210452556610107421875</LongitudeDegrees>
            </Position>
            <AltitudeMeters>128.399993896484375</AltitudeMeters>
            <DistanceMeters>NAN</DistanceMeters>
          </Trackpoint>
          <Trackpoint>
            <Time>2021-08-12T14:35:52.000Z</Time>
            <Position>
              <LatitudeDegrees>43.2923842035233974456787109375</LatitudeDegrees>
              <LongitudeDegrees>-2.038111723959445953369140625</LongitudeDegrees>
            </Position>
            <AltitudeMeters>128.8000030517578125</AltitudeMeters>
            <DistanceMeters>NAN</DistanceMeters>
          </Trackpoint>
          <Trackpoint>
            <Time>2021-08-12T14:35:53.000Z</Time>
            <Position>
              <LatitudeDegrees>43.29236534424126148223876953125</LatitudeDegrees>
              <LongitudeDegrees>-2.03811071813106536865234375</LongitudeDegrees>
            </Position>
            <AltitudeMeters>128.8000030517578125</AltitudeMeters>
            <DistanceMeters>NAN</DistanceMeters>
          </Trackpoint>
          <Trackpoint>
            <Time>2021-08-12T14:35:54.000Z</Time>
            <Position>
              <LatitudeDegrees>43.2923486642539501190185546875</LatitudeDegrees>
              <LongitudeDegrees>-2.03810761682689189910888671875</LongitudeDegrees>
            </Position>
            <AltitudeMeters>129</AltitudeMeters>
            <DistanceMeters>NAN</DistanceMeters>
          </Trackpoint>
          <Trackpoint>
            <Time>2021-08-12T14:35:55.000Z</Time>
            <Position>
              <LatitudeDegrees>43.29233299009501934051513671875</LatitudeDegrees>
              <LongitudeDegrees>-2.038103006780147552490234375</LongitudeDegrees>
            </Position>
            <AltitudeMeters>129.1999969482421875</AltitudeMeters>
            <DistanceMeters>NAN</DistanceMeters>
          </Trackpoint>
          <Trackpoint>
            <Time>2021-08-12T14:35:56.000Z</Time>
            <Position>
              <LatitudeDegrees>43.292318321764469146728515625</LatitudeDegrees>
              <LongitudeDegrees>-2.038098983466625213623046875</LongitudeDegrees>
            </Position>
            <AltitudeMeters>129.1999969482421875</AltitudeMeters>
            <DistanceMeters>NAN</DistanceMeters>
          </Trackpoint>
          <Trackpoint>
            <Time>2021-08-12T14:35:57.000Z</Time>
            <Position>
              <LatitudeDegrees>43.2923017255961894989013671875</LatitudeDegrees>
              <LongitudeDegrees>-2.03809864819049835205078125</LongitudeDegrees>
            </Position>
            <AltitudeMeters>129.399993896484375</AltitudeMeters>
            <DistanceMeters>NAN</DistanceMeters>
          </Trackpoint>
          <Trackpoint>
            <Time>2021-08-12T14:35:58.000Z</Time>
            <Position>
              <LatitudeDegrees>43.29228504560887813568115234375</LatitudeDegrees>
              <LongitudeDegrees>-2.03810040839016437530517578125</LongitudeDegrees>
            </Position>
            <AltitudeMeters>129.399993896484375</AltitudeMeters>
            <DistanceMeters>NAN</DistanceMeters>
          </Trackpoint>
          <Trackpoint>
            <Time>2021-08-12T14:35:59.000Z</Time>
            <Position>
              <LatitudeDegrees>43.29226769506931304931640625</LatitudeDegrees>
              <LongitudeDegrees>-2.0380993187427520751953125</LongitudeDegrees>
            </Position>
            <AltitudeMeters>129.600006103515625</AltitudeMeters>
            <DistanceMeters>NAN</DistanceMeters>
          </Trackpoint>
          <Trackpoint>
            <Time>2021-08-12T14:36:00.000Z</Time>
            <Position>
              <LatitudeDegrees>43.292253278195858001708984375</LatitudeDegrees>
              <LongitudeDegrees>-2.0381008274853229522705078125</LongitudeDegrees>
            </Position>
            <AltitudeMeters>129.600006103515625</AltitudeMeters>
            <DistanceMeters>NAN</DistanceMeters>
          </Trackpoint>
          <Trackpoint>
            <Time>2021-08-12T14:36:01.000Z</Time>
            <Position>
              <LatitudeDegrees>43.29224087297916412353515625</LatitudeDegrees>
              <LongitudeDegrees>-2.03810007311403751373291015625</LongitudeDegrees>
            </Position>
            <AltitudeMeters>129.8000030517578125</AltitudeMeters>
            <DistanceMeters>NAN</DistanceMeters>
          </Trackpoint>
          <Trackpoint>
            <Time>2021-08-12T14:36:02.000Z</Time>
            <Position>
              <LatitudeDegrees>43.29223559238016605377197265625</LatitudeDegrees>
              <LongitudeDegrees>-2.038098983466625213623046875</LongitudeDegrees>
            </Position>
            <AltitudeMeters>129.8000030517578125</AltitudeMeters>
            <DistanceMeters>NAN</DistanceMeters>
          </Trackpoint>
          <Trackpoint>
            <Time>2021-08-12T14:36:04.000Z</Time>
            <Position>
              <LatitudeDegrees>43.29223559238016605377197265625</LatitudeDegrees>
              <LongitudeDegrees>-2.038098983466625213623046875</LongitudeDegrees>
            </Position>
            <AltitudeMeters>130</AltitudeMeters>
            <DistanceMeters>NAN</DistanceMeters>
          </Trackpoint>
          <Trackpoint>
            <Time>2021-08-12T14:37:34.000Z</Time>
            <Position>
              <LatitudeDegrees>43.29223525710403919219970703125</LatitudeDegrees>
              <LongitudeDegrees>-2.0381014980375766754150390625</LongitudeDegrees>
            </Position>
            <AltitudeMeters>129.399993896484375</AltitudeMeters>
            <DistanceMeters>NAN</DistanceMeters>
          </Trackpoint>
          <Trackpoint>
            <Time>2021-08-12T14:37:37.000Z</Time>
            <Position>
              <LatitudeDegrees>43.29221698455512523651123046875</LatitudeDegrees>
              <LongitudeDegrees>-2.038175426423549652099609375</LongitudeDegrees>
            </Position>
            <AltitudeMeters>129.399993896484375</AltitudeMeters>
            <DistanceMeters>NAN</DistanceMeters>
          </Trackpoint>
          <Trackpoint>
            <Time>2021-08-12T14:37:39.000Z</Time>
            <Position>
              <LatitudeDegrees>43.2922222651541233062744140625</LatitudeDegrees>
              <LongitudeDegrees>-2.03822865150868892669677734375</LongitudeDegrees>
            </Position>
            <AltitudeMeters>129.399993896484375</AltitudeMeters>
            <DistanceMeters>NAN</DistanceMeters>
          </Trackpoint>
          <Trackpoint>
            <Time>2021-08-12T14:37:40.000Z</Time>
            <Position>
              <LatitudeDegrees>43.2922279648482799530029296875</LatitudeDegrees>
              <LongitudeDegrees>-2.03825421631336212158203125</LongitudeDegrees>
            </Position>
            <AltitudeMeters>129.399993896484375</AltitudeMeters>
            <DistanceMeters>NAN</DistanceMeters>
          </Trackpoint>
          <Trackpoint>
            <Time>2021-08-12T14:37:41.000Z</Time>
            <Position>
              <LatitudeDegrees>43.2922323234379291534423828125</LatitudeDegrees>
              <LongitudeDegrees>-2.03828028403222560882568359375</LongitudeDegrees>
            </Position>
            <AltitudeMeters>129.399993896484375</AltitudeMeters>
            <DistanceMeters>NAN</DistanceMeters>
          </Trackpoint>
          <Trackpoint>
            <Time>2021-08-12T14:37:43.000Z</Time>
            <Position>
              <LatitudeDegrees>43.2922430522739887237548828125</LatitudeDegrees>
              <LongitudeDegrees>-2.03833468258380889892578125</LongitudeDegrees>
            </Position>
            <AltitudeMeters>129.399993896484375</AltitudeMeters>
            <DistanceMeters>NAN</DistanceMeters>
          </Trackpoint>
          <Trackpoint>
            <Time>2021-08-12T14:37:48.000Z</Time>
            <Position>
              <LatitudeDegrees>43.29223542474210262298583984375</LatitudeDegrees>
              <LongitudeDegrees>-2.038502991199493408203125</LongitudeDegrees>
            </Position>
            <AltitudeMeters>129.399993896484375</AltitudeMeters>
            <DistanceMeters>NAN</DistanceMeters>
          </Trackpoint>
          <Trackpoint>
            <Time>2021-08-12T14:37:49.000Z</Time>
            <Position>
              <LatitudeDegrees>43.2922239415347576141357421875</LatitudeDegrees>
              <LongitudeDegrees>-2.03852956183254718780517578125</LongitudeDegrees>
            </Position>
            <AltitudeMeters>129.600006103515625</AltitudeMeters>
            <DistanceMeters>NAN</DistanceMeters>
          </Trackpoint>
          <Trackpoint>
            <Time>2021-08-12T14:37:50.000Z</Time>
            <Position>
              <LatitudeDegrees>43.29221312887966632843017578125</LatitudeDegrees>
              <LongitudeDegrees>-2.03855370171368122100830078125</LongitudeDegrees>
            </Position>
            <AltitudeMeters>129.600006103515625</AltitudeMeters>
            <DistanceMeters>NAN</DistanceMeters>
          </Trackpoint>
          <Trackpoint>
            <Time>2021-08-12T14:37:51.000Z</Time>
            <Position>
              <LatitudeDegrees>43.2922066748142242431640625</LatitudeDegrees>
              <LongitudeDegrees>-2.03857230953872203826904296875</LongitudeDegrees>
            </Position>
            <AltitudeMeters>129.600006103515625</AltitudeMeters>
            <DistanceMeters>NAN</DistanceMeters>
          </Trackpoint>
          <Trackpoint>
            <Time>2021-08-12T14:37:52.000Z</Time>
            <Position>
              <LatitudeDegrees>43.2922001369297504425048828125</LatitudeDegrees>
              <LongitudeDegrees>-2.0385874807834625244140625</LongitudeDegrees>
            </Position>
            <AltitudeMeters>129.600006103515625</AltitudeMeters>
            <DistanceMeters>NAN</DistanceMeters>
          </Trackpoint>
          <Trackpoint>
            <Time>2021-08-12T14:37:53.000Z</Time>
            <Position>
              <LatitudeDegrees>43.2921887375414371490478515625</LatitudeDegrees>
              <LongitudeDegrees>-2.03860734589397907257080078125</LongitudeDegrees>
            </Position>
            <AltitudeMeters>129.8000030517578125</AltitudeMeters>
            <DistanceMeters>NAN</DistanceMeters>
          </Trackpoint>
          <Trackpoint>
            <Time>2021-08-12T14:37:54.000Z</Time>
            <Position>
              <LatitudeDegrees>43.29217708669602870941162109375</LatitudeDegrees>
              <LongitudeDegrees>-2.03861556015908718109130859375</LongitudeDegrees>
            </Position>
            <AltitudeMeters>129.8000030517578125</AltitudeMeters>
            <DistanceMeters>NAN</DistanceMeters>
          </Trackpoint>
          <Trackpoint>
            <Time>2021-08-12T14:37:55.000Z</Time>
            <Position>
              <LatitudeDegrees>43.2921692915260791778564453125</LatitudeDegrees>
              <LongitudeDegrees>-2.03861807473003864288330078125</LongitudeDegrees>
            </Position>
            <AltitudeMeters>129.8000030517578125</AltitudeMeters>
            <DistanceMeters>NAN</DistanceMeters>
          </Trackpoint>
          <Trackpoint>
            <Time>2021-08-12T14:38:03.000Z</Time>
            <Position>
              <LatitudeDegrees>43.29188548028469085693359375</LatitudeDegrees>
              <LongitudeDegrees>-2.0389433763921260833740234375</LongitudeDegrees>
            </Position>
            <AltitudeMeters>130.1999969482421875</AltitudeMeters>
            <DistanceMeters>NAN</DistanceMeters>
          </Trackpoint>
          <Trackpoint>
            <Time>2021-08-12T14:38:04.000Z</Time>
            <Position>
              <LatitudeDegrees>43.2918883301317691802978515625</LatitudeDegrees>
              <LongitudeDegrees>-2.0389522612094879150390625</LongitudeDegrees>
            </Position>
            <AltitudeMeters>130.1999969482421875</AltitudeMeters>
            <DistanceMeters>NAN</DistanceMeters>
          </Trackpoint>
          <Trackpoint>
            <Time>2021-08-12T14:38:05.000Z</Time>
            <Position>
              <LatitudeDegrees>43.291879110038280487060546875</LatitudeDegrees>
              <LongitudeDegrees>-2.03894597478210926055908203125</LongitudeDegrees>
            </Position>
            <AltitudeMeters>130.1999969482421875</AltitudeMeters>
            <DistanceMeters>NAN</DistanceMeters>
          </Trackpoint>
          <Trackpoint>
            <Time>2021-08-12T14:38:06.000Z</Time>
            <Position>
              <LatitudeDegrees>43.2918755896389484405517578125</LatitudeDegrees>
              <LongitudeDegrees>-2.03894463367760181427001953125</LongitudeDegrees>
            </Position>
            <AltitudeMeters>130.399993896484375</AltitudeMeters>
            <DistanceMeters>NAN</DistanceMeters>
          </Trackpoint>
          <Trackpoint>
            <Time>2021-08-12T14:38:07.000Z</Time>
            <Position>
              <LatitudeDegrees>43.2918651960790157318115234375</LatitudeDegrees>
              <LongitudeDegrees>-2.0389567874372005462646484375</LongitudeDegrees>
            </Position>
            <AltitudeMeters>130.399993896484375</AltitudeMeters>
            <DistanceMeters>NAN</DistanceMeters>
          </Trackpoint>
          <Trackpoint>
            <Time>2021-08-12T14:38:08.000Z</Time>
            <Position>
              <LatitudeDegrees>43.2918383739888668060302734375</LatitudeDegrees>
              <LongitudeDegrees>-2.0389755629003047943115234375</LongitudeDegrees>
            </Position>
            <AltitudeMeters>130.600006103515625</AltitudeMeters>
            <DistanceMeters>NAN</DistanceMeters>
          </Trackpoint>
          <Trackpoint>
            <Time>2021-08-12T14:38:09.000Z</Time>
            <Position>
              <LatitudeDegrees>43.29181834124028682708740234375</LatitudeDegrees>
              <LongitudeDegrees>-2.0389919914305210113525390625</LongitudeDegrees>
            </Position>
            <AltitudeMeters>130.8000030517578125</AltitudeMeters>
            <DistanceMeters>NAN</DistanceMeters>
          </Trackpoint>
          <Trackpoint>
            <Time>2021-08-12T14:38:10.000Z</Time>
            <Position>
              <LatitudeDegrees>43.291798643767833709716796875</LatitudeDegrees>
              <LongitudeDegrees>-2.0390064083039760589599609375</LongitudeDegrees>
            </Position>
            <AltitudeMeters>131</AltitudeMeters>
            <DistanceMeters>NAN</DistanceMeters>
          </Trackpoint>
          <Trackpoint>
            <Time>2021-08-12T14:38:11.000Z</Time>
            <Position>
              <LatitudeDegrees>43.291778527200222015380859375</LatitudeDegrees>
              <LongitudeDegrees>-2.03901537694036960601806640625</LongitudeDegrees>
            </Position>
            <AltitudeMeters>131</AltitudeMeters>
            <DistanceMeters>NAN</DistanceMeters>
          </Trackpoint>
          <Trackpoint>
            <Time>2021-08-12T14:38:12.000Z</Time>
            <Position>
              <LatitudeDegrees>43.29175665043294429779052734375</LatitudeDegrees>
              <LongitudeDegrees>-2.03902225010097026824951171875</LongitudeDegrees>
            </Position>
            <AltitudeMeters>131.1999969482421875</AltitudeMeters>
            <DistanceMeters>NAN</DistanceMeters>
          </Trackpoint>
          <Trackpoint>
            <Time>2021-08-12T14:38:13.000Z</Time>
            <Position>
              <LatitudeDegrees>43.2917307503521442413330078125</LatitudeDegrees>
              <LongitudeDegrees>-2.03901889733970165252685546875</LongitudeDegrees>
            </Position>
            <AltitudeMeters>131.1999969482421875</AltitudeMeters>
            <DistanceMeters>NAN</DistanceMeters>
          </Trackpoint>
          <Trackpoint>
            <Time>2021-08-12T14:38:14.000Z</Time>
            <Position>
              <LatitudeDegrees>43.29171113669872283935546875</LatitudeDegrees>
              <LongitudeDegrees>-2.0390104316174983978271484375</LongitudeDegrees>
            </Position>
            <AltitudeMeters>131.1999969482421875</AltitudeMeters>
            <DistanceMeters>NAN</DistanceMeters>
          </Trackpoint>
          <Trackpoint>
            <Time>2021-08-12T14:38:15.000Z</Time>
            <Position>
              <LatitudeDegrees>43.2916982285678386688232421875</LatitudeDegrees>
              <LongitudeDegrees>-2.038998864591121673583984375</LongitudeDegrees>
            </Position>
            <AltitudeMeters>131.399993896484375</AltitudeMeters>
            <DistanceMeters>NAN</DistanceMeters>
          </Trackpoint>
          <Trackpoint>
            <Time>2021-08-12T14:38:18.000Z</Time>
            <Position>
              <LatitudeDegrees>43.291650116443634033203125</LatitudeDegrees>
              <LongitudeDegrees>-2.0388905704021453857421875</LongitudeDegrees>
            </Position>
            <AltitudeMeters>131.399993896484375</AltitudeMeters>
            <DistanceMeters>NAN</DistanceMeters>
          </Trackpoint>
          <Trackpoint>
            <Time>2021-08-12T14:38:19.000Z</Time>
            <Position>
              <LatitudeDegrees>43.2916341908276081085205078125</LatitudeDegrees>
              <LongitudeDegrees>-2.038840614259243011474609375</LongitudeDegrees>
            </Position>
            <AltitudeMeters>131.399993896484375</AltitudeMeters>
            <DistanceMeters>NAN</DistanceMeters>
          </Trackpoint>
          <Trackpoint>
            <Time>2021-08-12T14:38:23.000Z</Time>
            <Position>
              <LatitudeDegrees>43.291561938822269439697265625</LatitudeDegrees>
              <LongitudeDegrees>-2.0386111177504062652587890625</LongitudeDegrees>
            </Position>
            <AltitudeMeters>131.1999969482421875</AltitudeMeters>
            <DistanceMeters>NAN</DistanceMeters>
          </Trackpoint>
          <Trackpoint>
            <Time>2021-08-12T14:38:24.000Z</Time>
            <Position>
              <LatitudeDegrees>43.29154307954013347625732421875</LatitudeDegrees>
              <LongitudeDegrees>-2.03856711275875568389892578125</LongitudeDegrees>
            </Position>
            <AltitudeMeters>131</AltitudeMeters>
            <DistanceMeters>NAN</DistanceMeters>
          </Trackpoint>
          <Trackpoint>
            <Time>2021-08-12T14:38:26.000Z</Time>
            <Position>
              <LatitudeDegrees>43.2914839871227741241455078125</LatitudeDegrees>
              <LongitudeDegrees>-2.03846736811101436614990234375</LongitudeDegrees>
            </Position>
            <AltitudeMeters>130.8000030517578125</AltitudeMeters>
            <DistanceMeters>NAN</DistanceMeters>
          </Trackpoint>
          <Trackpoint>
            <Time>2021-08-12T14:38:28.000Z</Time>
            <Position>
              <LatitudeDegrees>43.29140796326100826263427734375</LatitudeDegrees>
              <LongitudeDegrees>-2.0383680425584316253662109375</LongitudeDegrees>
            </Position>
            <AltitudeMeters>130.399993896484375</AltitudeMeters>
            <DistanceMeters>NAN</DistanceMeters>
          </Trackpoint>
          <Trackpoint>
            <Time>2021-08-12T14:38:30.000Z</Time>
            <Position>
              <LatitudeDegrees>43.29133830964565277099609375</LatitudeDegrees>
              <LongitudeDegrees>-2.03828380443155765533447265625</LongitudeDegrees>
            </Position>
            <AltitudeMeters>130.1999969482421875</AltitudeMeters>
            <DistanceMeters>NAN</DistanceMeters>
          </Trackpoint>
          <Trackpoint>
            <Time>2021-08-12T14:38:31.000Z</Time>
            <Position>
              <LatitudeDegrees>43.29129329882562160491943359375</LatitudeDegrees>
              <LongitudeDegrees>-2.03824155963957309722900390625</LongitudeDegrees>
            </Position>
            <AltitudeMeters>130.1999969482421875</AltitudeMeters>
            <DistanceMeters>NAN</DistanceMeters>
          </Trackpoint>
          <Trackpoint>
            <Time>2021-08-12T14:38:33.000Z</Time>
            <Position>
              <LatitudeDegrees>43.291182406246662139892578125</LatitudeDegrees>
              <LongitudeDegrees>-2.0381502807140350341796875</LongitudeDegrees>
            </Position>
            <AltitudeMeters>129.8000030517578125</AltitudeMeters>
            <DistanceMeters>NAN</DistanceMeters>
          </Trackpoint>
          <Trackpoint>
            <Time>2021-08-12T14:38:37.000Z</Time>
            <Position>
              <LatitudeDegrees>43.29094536602497100830078125</LatitudeDegrees>
              <LongitudeDegrees>-2.03800837509334087371826171875</LongitudeDegrees>
            </Position>
            <AltitudeMeters>129</AltitudeMeters>
            <DistanceMeters>NAN</DistanceMeters>
          </Trackpoint>
          <Trackpoint>
            <Time>2021-08-12T14:38:38.000Z</Time>
            <Position>
              <LatitudeDegrees>43.29084813594818115234375</LatitudeDegrees>
              <LongitudeDegrees>-2.0379687286913394927978515625</LongitudeDegrees>
            </Position>
            <AltitudeMeters>128.8000030517578125</AltitudeMeters>
            <DistanceMeters>NAN</DistanceMeters>
          </Trackpoint>
          <Trackpoint>
            <Time>2021-08-12T14:38:41.000Z</Time>
            <Position>
              <LatitudeDegrees>43.29056709073483943939208984375</LatitudeDegrees>
              <LongitudeDegrees>-2.03787946142256259918212890625</LongitudeDegrees>
            </Position>
            <AltitudeMeters>127.8000030517578125</AltitudeMeters>
            <DistanceMeters>NAN</DistanceMeters>
          </Trackpoint>
          <Trackpoint>
            <Time>2021-08-12T14:38:42.000Z</Time>
            <Position>
              <LatitudeDegrees>43.2904654182493686676025390625</LatitudeDegrees>
              <LongitudeDegrees>-2.037855572998523712158203125</LongitudeDegrees>
            </Position>
            <AltitudeMeters>127.59999847412109375</AltitudeMeters>
            <DistanceMeters>NAN</DistanceMeters>
          </Trackpoint>
          <Trackpoint>
            <Time>2021-08-12T14:38:43.000Z</Time>
            <Position>
              <LatitudeDegrees>43.29035972245037555694580078125</LatitudeDegrees>
              <LongitudeDegrees>-2.0378316007554531097412109375</LongitudeDegrees>
            </Position>
            <AltitudeMeters>126.1999969482421875</AltitudeMeters>
            <DistanceMeters>NAN</DistanceMeters>
          </Trackpoint>
          <Trackpoint>
            <Time>2021-08-12T14:38:44.000Z</Time>
            <Position>
              <LatitudeDegrees>43.2902702875435352325439453125</LatitudeDegrees>
              <LongitudeDegrees>-2.037810645997524261474609375</LongitudeDegrees>
            </Position>
            <AltitudeMeters>125.1999969482421875</AltitudeMeters>
            <DistanceMeters>NAN</DistanceMeters>
          </Trackpoint>
          <Trackpoint>
            <Time>2021-08-12T14:38:46.000Z</Time>
            <Position>
              <LatitudeDegrees>43.2900473289191722869873046875</LatitudeDegrees>
              <LongitudeDegrees>-2.03774803318083286285400390625</LongitudeDegrees>
            </Position>
            <AltitudeMeters>123.40000152587890625</AltitudeMeters>
            <DistanceMeters>NAN</DistanceMeters>
          </Trackpoint>
          <Trackpoint>
            <Time>2021-08-12T14:38:47.000Z</Time>
            <Position>
              <LatitudeDegrees>43.2899214327335357666015625</LatitudeDegrees>
              <LongitudeDegrees>-2.03769355081021785736083984375</LongitudeDegrees>
            </Position>
            <AltitudeMeters>122.8000030517578125</AltitudeMeters>
            <DistanceMeters>NAN</DistanceMeters>
          </Trackpoint>
          <Trackpoint>
            <Time>2021-08-12T14:38:48.000Z</Time>
            <Position>
              <LatitudeDegrees>43.28982462175190448760986328125</LatitudeDegrees>
              <LongitudeDegrees>-2.03764108009636402130126953125</LongitudeDegrees>
            </Position>
            <AltitudeMeters>121.59999847412109375</AltitudeMeters>
            <DistanceMeters>NAN</DistanceMeters>
          </Trackpoint>
          <Trackpoint>
            <Time>2021-08-12T14:38:49.000Z</Time>
            <Position>
              <LatitudeDegrees>43.28975169919431209564208984375</LatitudeDegrees>
              <LongitudeDegrees>-2.0376002602279186248779296875</LongitudeDegrees>
            </Position>
            <AltitudeMeters>121</AltitudeMeters>
            <DistanceMeters>NAN</DistanceMeters>
          </Trackpoint>
          <Trackpoint>
            <Time>2021-08-12T14:38:50.000Z</Time>
            <Position>
              <LatitudeDegrees>43.28964172862470149993896484375</LatitudeDegrees>
              <LongitudeDegrees>-2.03754602931439876556396484375</LongitudeDegrees>
            </Position>
            <AltitudeMeters>119.59999847412109375</AltitudeMeters>
            <DistanceMeters>NAN</DistanceMeters>
          </Trackpoint>
          <Trackpoint>
            <Time>2021-08-12T14:38:51.000Z</Time>
            <Position>
              <LatitudeDegrees>43.28955053351819515228271484375</LatitudeDegrees>
              <LongitudeDegrees>-2.0375117473304271697998046875</LongitudeDegrees>
            </Position>
            <AltitudeMeters>118.8000030517578125</AltitudeMeters>
            <DistanceMeters>NAN</DistanceMeters>
          </Trackpoint>
          <Trackpoint>
            <Time>2021-08-12T14:38:52.000Z</Time>
            <Position>
              <LatitudeDegrees>43.28946135006844997406005859375</LatitudeDegrees>
              <LongitudeDegrees>-2.0374872721731662750244140625</LongitudeDegrees>
            </Position>
            <AltitudeMeters>118.40000152587890625</AltitudeMeters>
            <DistanceMeters>NAN</DistanceMeters>
          </Trackpoint>
          <Trackpoint>
            <Time>2021-08-12T14:38:53.000Z</Time>
            <Position>
              <LatitudeDegrees>43.28939295373857021331787109375</LatitudeDegrees>
              <LongitudeDegrees>-2.0374765433371067047119140625</LongitudeDegrees>
            </Position>
            <AltitudeMeters>118.1999969482421875</AltitudeMeters>
            <DistanceMeters>NAN</DistanceMeters>
          </Trackpoint>
          <Trackpoint>
            <Time>2021-08-12T14:38:54.000Z</Time>
            <Position>
              <LatitudeDegrees>43.28931047581136226654052734375</LatitudeDegrees>
              <LongitudeDegrees>-2.03746967017650604248046875</LongitudeDegrees>
            </Position>
            <AltitudeMeters>118</AltitudeMeters>
            <DistanceMeters>NAN</DistanceMeters>
          </Trackpoint>
          <Trackpoint>
            <Time>2021-08-12T14:38:55.000Z</Time>
            <Position>
              <LatitudeDegrees>43.289215676486492156982421875</LatitudeDegrees>
              <LongitudeDegrees>-2.0374614559113979339599609375</LongitudeDegrees>
            </Position>
            <AltitudeMeters>117.59999847412109375</AltitudeMeters>
            <DistanceMeters>NAN</DistanceMeters>
          </Trackpoint>
          <Trackpoint>
            <Time>2021-08-12T14:38:56.000Z</Time>
            <Position>
              <LatitudeDegrees>43.289139233529567718505859375</LatitudeDegrees>
              <LongitudeDegrees>-2.037453912198543548583984375</LongitudeDegrees>
            </Position>
            <AltitudeMeters>117.59999847412109375</AltitudeMeters>
            <DistanceMeters>NAN</DistanceMeters>
          </Trackpoint>
          <Trackpoint>
            <Time>2021-08-12T14:38:57.000Z</Time>
            <Position>
              <LatitudeDegrees>43.28907787799835205078125</LatitudeDegrees>
              <LongitudeDegrees>-2.037446536123752593994140625</LongitudeDegrees>
            </Position>
            <AltitudeMeters>117.40000152587890625</AltitudeMeters>
            <DistanceMeters>NAN</DistanceMeters>
          </Trackpoint>
          <Trackpoint>
            <Time>2021-08-12T14:38:58.000Z</Time>
            <Position>
              <LatitudeDegrees>43.28900202177464962005615234375</LatitudeDegrees>
              <LongitudeDegrees>-2.037433795630931854248046875</LongitudeDegrees>
            </Position>
            <AltitudeMeters>117.1999969482421875</AltitudeMeters>
            <DistanceMeters>NAN</DistanceMeters>
          </Trackpoint>
          <Trackpoint>
            <Time>2021-08-12T14:39:01.000Z</Time>
            <Position>
              <LatitudeDegrees>43.2887397520244121551513671875</LatitudeDegrees>
              <LongitudeDegrees>-2.0373705960810184478759765625</LongitudeDegrees>
            </Position>
            <AltitudeMeters>117.1999969482421875</AltitudeMeters>
            <DistanceMeters>NAN</DistanceMeters>
          </Trackpoint>
          <Trackpoint>
            <Time>2021-08-12T14:39:05.000Z</Time>
            <Position>
              <LatitudeDegrees>43.2883595488965511322021484375</LatitudeDegrees>
              <LongitudeDegrees>-2.03730471432209014892578125</LongitudeDegrees>
            </Position>
            <AltitudeMeters>115.8000030517578125</AltitudeMeters>
            <DistanceMeters>NAN</DistanceMeters>
          </Trackpoint>
          <Trackpoint>
            <Time>2021-08-12T14:39:07.000Z</Time>
            <Position>
              <LatitudeDegrees>43.288125358521938323974609375</LatitudeDegrees>
              <LongitudeDegrees>-2.03726406209170818328857421875</LongitudeDegrees>
            </Position>
            <AltitudeMeters>114.40000152587890625</AltitudeMeters>
            <DistanceMeters>NAN</DistanceMeters>
          </Trackpoint>
          <Trackpoint>
            <Time>2021-08-12T14:39:09.000Z</Time>
            <Position>
              <LatitudeDegrees>43.28789032995700836181640625</LatitudeDegrees>
              <LongitudeDegrees>-2.03716046176850795745849609375</LongitudeDegrees>
            </Position>
            <AltitudeMeters>112</AltitudeMeters>
            <DistanceMeters>NAN</DistanceMeters>
          </Trackpoint>
          <Trackpoint>
            <Time>2021-08-12T14:39:10.000Z</Time>
            <Position>
              <LatitudeDegrees>43.2877862267196178436279296875</LatitudeDegrees>
              <LongitudeDegrees>-2.03708753921091556549072265625</LongitudeDegrees>
            </Position>
            <AltitudeMeters>110.8000030517578125</AltitudeMeters>
            <DistanceMeters>NAN</DistanceMeters>
          </Trackpoint>
          <Trackpoint>
            <Time>2021-08-12T14:39:11.000Z</Time>
            <Position>
              <LatitudeDegrees>43.28769494779407978057861328125</LatitudeDegrees>
              <LongitudeDegrees>-2.03700807876884937286376953125</LongitudeDegrees>
            </Position>
            <AltitudeMeters>109.1999969482421875</AltitudeMeters>
            <DistanceMeters>NAN</DistanceMeters>
          </Trackpoint>
          <Trackpoint>
            <Time>2021-08-12T14:39:12.000Z</Time>
            <Position>
              <LatitudeDegrees>43.2876162417232990264892578125</LatitudeDegrees>
              <LongitudeDegrees>-2.0369320549070835113525390625</LongitudeDegrees>
            </Position>
            <AltitudeMeters>107.8000030517578125</AltitudeMeters>
            <DistanceMeters>NAN</DistanceMeters>
          </Trackpoint>
          <Trackpoint>
            <Time>2021-08-12T14:39:13.000Z</Time>
            <Position>
              <LatitudeDegrees>43.28754608519375324249267578125</LatitudeDegrees>
              <LongitudeDegrees>-2.03686349093914031982421875</LongitudeDegrees>
            </Position>
            <AltitudeMeters>107.40000152587890625</AltitudeMeters>
            <DistanceMeters>NAN</DistanceMeters>
          </Trackpoint>
          <Trackpoint>
            <Time>2021-08-12T14:39:14.000Z</Time>
            <Position>
              <LatitudeDegrees>43.287479616701602935791015625</LatitudeDegrees>
              <LongitudeDegrees>-2.03680909238755702972412109375</LongitudeDegrees>
            </Position>
            <AltitudeMeters>107</AltitudeMeters>
            <DistanceMeters>NAN</DistanceMeters>
          </Trackpoint>
          <Trackpoint>
            <Time>2021-08-12T14:39:15.000Z</Time>
            <Position>
              <LatitudeDegrees>43.287417255342006683349609375</LatitudeDegrees>
              <LongitudeDegrees>-2.0367635786533355712890625</LongitudeDegrees>
            </Position>
            <AltitudeMeters>106.8000030517578125</AltitudeMeters>
            <DistanceMeters>NAN</DistanceMeters>
          </Trackpoint>
          <Trackpoint>
            <Time>2021-08-12T14:39:16.000Z</Time>
            <Position>
              <LatitudeDegrees>43.28735732473433017730712890625</LatitudeDegrees>
              <LongitudeDegrees>-2.0367218367755413055419921875</LongitudeDegrees>
            </Position>
            <AltitudeMeters>106.8000030517578125</AltitudeMeters>
            <DistanceMeters>NAN</DistanceMeters>
          </Trackpoint>
          <Trackpoint>
            <Time>2021-08-12T14:39:17.000Z</Time>
            <Position>
              <LatitudeDegrees>43.28730133362114429473876953125</LatitudeDegrees>
              <LongitudeDegrees>-2.03668177127838134765625</LongitudeDegrees>
            </Position>
            <AltitudeMeters>106.8000030517578125</AltitudeMeters>
            <DistanceMeters>NAN</DistanceMeters>
          </Trackpoint>
          <Trackpoint>
            <Time>2021-08-12T14:39:18.000Z</Time>
            <Position>
              <LatitudeDegrees>43.2872474379837512969970703125</LatitudeDegrees>
              <LongitudeDegrees>-2.0366386882960796356201171875</LongitudeDegrees>
            </Position>
            <AltitudeMeters>106.8000030517578125</AltitudeMeters>
            <DistanceMeters>NAN</DistanceMeters>
          </Trackpoint>
          <Trackpoint>
            <Time>2021-08-12T14:39:19.000Z</Time>
            <Position>
              <LatitudeDegrees>43.2871844060719013214111328125</LatitudeDegrees>
              <LongitudeDegrees>-2.03658395446836948394775390625</LongitudeDegrees>
            </Position>
            <AltitudeMeters>106.8000030517578125</AltitudeMeters>
            <DistanceMeters>NAN</DistanceMeters>
          </Trackpoint>
          <Trackpoint>
            <Time>2021-08-12T14:39:20.000Z</Time>
            <Position>
              <LatitudeDegrees>43.28713470138609409332275390625</LatitudeDegrees>
              <LongitudeDegrees>-2.0365364290773868560791015625</LongitudeDegrees>
            </Position>
            <AltitudeMeters>107.1999969482421875</AltitudeMeters>
            <DistanceMeters>NAN</DistanceMeters>
          </Trackpoint>
          <Trackpoint>
            <Time>2021-08-12T14:39:23.000Z</Time>
            <Position>
              <LatitudeDegrees>43.287000171840190887451171875</LatitudeDegrees>
              <LongitudeDegrees>-2.03639955259859561920166015625</LongitudeDegrees>
            </Position>
            <AltitudeMeters>107.8000030517578125</AltitudeMeters>
            <DistanceMeters>NAN</DistanceMeters>
          </Trackpoint>
          <Trackpoint>
            <Time>2021-08-12T14:39:24.000Z</Time>
            <Position>
              <LatitudeDegrees>43.28694845549762248992919921875</LatitudeDegrees>
              <LongitudeDegrees>-2.03635596670210361480712890625</LongitudeDegrees>
            </Position>
            <AltitudeMeters>108</AltitudeMeters>
            <DistanceMeters>NAN</DistanceMeters>
          </Trackpoint>
          <Trackpoint>
            <Time>2021-08-12T14:39:27.000Z</Time>
            <Position>
              <LatitudeDegrees>43.28679020516574382781982421875</LatitudeDegrees>
              <LongitudeDegrees>-2.0362343452870845794677734375</LongitudeDegrees>
            </Position>
            <AltitudeMeters>108.59999847412109375</AltitudeMeters>
            <DistanceMeters>NAN</DistanceMeters>
          </Trackpoint>
          <Trackpoint>
            <Time>2021-08-12T14:39:30.000Z</Time>
            <Position>
              <LatitudeDegrees>43.2866486348211765289306640625</LatitudeDegrees>
              <LongitudeDegrees>-2.0360968820750713348388671875</LongitudeDegrees>
            </Position>
            <AltitudeMeters>109</AltitudeMeters>
            <DistanceMeters>NAN</DistanceMeters>
          </Trackpoint>
          <Trackpoint>
            <Time>2021-08-12T14:39:31.000Z</Time>
            <Position>
              <LatitudeDegrees>43.28660915605723857879638671875</LatitudeDegrees>
              <LongitudeDegrees>-2.03605153597891330718994140625</LongitudeDegrees>
            </Position>
            <AltitudeMeters>109</AltitudeMeters>
            <DistanceMeters>NAN</DistanceMeters>
          </Trackpoint>
          <Trackpoint>
            <Time>2021-08-12T14:39:32.000Z</Time>
            <Position>
              <LatitudeDegrees>43.28656674362719058990478515625</LatitudeDegrees>
              <LongitudeDegrees>-2.03599839471280574798583984375</LongitudeDegrees>
            </Position>
            <AltitudeMeters>109.1999969482421875</AltitudeMeters>
            <DistanceMeters>NAN</DistanceMeters>
          </Trackpoint>
          <Trackpoint>
            <Time>2021-08-12T14:39:33.000Z</Time>
            <Position>
              <LatitudeDegrees>43.2865312881767749786376953125</LatitudeDegrees>
              <LongitudeDegrees>-2.03595782630145549774169921875</LongitudeDegrees>
            </Position>
            <AltitudeMeters>109.40000152587890625</AltitudeMeters>
            <DistanceMeters>NAN</DistanceMeters>
          </Trackpoint>
          <Trackpoint>
            <Time>2021-08-12T14:39:34.000Z</Time>
            <Position>
              <LatitudeDegrees>43.286495245993137359619140625</LatitudeDegrees>
              <LongitudeDegrees>-2.0359215326607227325439453125</LongitudeDegrees>
            </Position>
            <AltitudeMeters>109.40000152587890625</AltitudeMeters>
            <DistanceMeters>NAN</DistanceMeters>
          </Trackpoint>
          <Trackpoint>
            <Time>2021-08-12T14:39:35.000Z</Time>
            <Position>
              <LatitudeDegrees>43.28645643778145313262939453125</LatitudeDegrees>
              <LongitudeDegrees>-2.03588674776256084442138671875</LongitudeDegrees>
            </Position>
            <AltitudeMeters>109.59999847412109375</AltitudeMeters>
            <DistanceMeters>NAN</DistanceMeters>
          </Trackpoint>
          <Trackpoint>
            <Time>2021-08-12T14:39:36.000Z</Time>
            <Position>
              <LatitudeDegrees>43.28642257489264011383056640625</LatitudeDegrees>
              <LongitudeDegrees>-2.0358511246740818023681640625</LongitudeDegrees>
            </Position>
            <AltitudeMeters>109.59999847412109375</AltitudeMeters>
            <DistanceMeters>NAN</DistanceMeters>
          </Trackpoint>
          <Trackpoint>
            <Time>2021-08-12T14:39:38.000Z</Time>
            <Position>
              <LatitudeDegrees>43.28637965954840183258056640625</LatitudeDegrees>
              <LongitudeDegrees>-2.03576621599495410919189453125</LongitudeDegrees>
            </Position>
            <AltitudeMeters>109.8000030517578125</AltitudeMeters>
            <DistanceMeters>NAN</DistanceMeters>
          </Trackpoint>
          <Trackpoint>
            <Time>2021-08-12T14:39:39.000Z</Time>
            <Position>
              <LatitudeDegrees>43.28636188991367816925048828125</LatitudeDegrees>
              <LongitudeDegrees>-2.035695724189281463623046875</LongitudeDegrees>
            </Position>
            <AltitudeMeters>109.8000030517578125</AltitudeMeters>
            <DistanceMeters>NAN</DistanceMeters>
          </Trackpoint>
          <Trackpoint>
            <Time>2021-08-12T14:39:40.000Z</Time>
            <Position>
              <LatitudeDegrees>43.286361806094646453857421875</LatitudeDegrees>
              <LongitudeDegrees>-2.03562925569713115692138671875</LongitudeDegrees>
            </Position>
            <AltitudeMeters>110</AltitudeMeters>
            <DistanceMeters>NAN</DistanceMeters>
          </Trackpoint>
          <Trackpoint>
            <Time>2021-08-12T14:39:41.000Z</Time>
            <Position>
              <LatitudeDegrees>43.28637488186359405517578125</LatitudeDegrees>
              <LongitudeDegrees>-2.0355654694139957427978515625</LongitudeDegrees>
            </Position>
            <AltitudeMeters>110.1999969482421875</AltitudeMeters>
            <DistanceMeters>NAN</DistanceMeters>
          </Trackpoint>
          <Trackpoint>
            <Time>2021-08-12T14:39:42.000Z</Time>
            <Position>
              <LatitudeDegrees>43.28639290295541286468505859375</LatitudeDegrees>
              <LongitudeDegrees>-2.035530768334865570068359375</LongitudeDegrees>
            </Position>
            <AltitudeMeters>110.40000152587890625</AltitudeMeters>
            <DistanceMeters>NAN</DistanceMeters>
          </Trackpoint>
          <Trackpoint>
            <Time>2021-08-12T14:39:44.000Z</Time>
            <Position>
              <LatitudeDegrees>43.28644503839313983917236328125</LatitudeDegrees>
              <LongitudeDegrees>-2.03544837422668933868408203125</LongitudeDegrees>
            </Position>
            <AltitudeMeters>110.40000152587890625</AltitudeMeters>
            <DistanceMeters>NAN</DistanceMeters>
          </Trackpoint>
          <Trackpoint>
            <Time>2021-08-12T14:39:47.000Z</Time>
            <Position>
              <LatitudeDegrees>43.2865131832659244537353515625</LatitudeDegrees>
              <LongitudeDegrees>-2.0352814905345439910888671875</LongitudeDegrees>
            </Position>
            <AltitudeMeters>110.8000030517578125</AltitudeMeters>
            <DistanceMeters>NAN</DistanceMeters>
          </Trackpoint>
          <Trackpoint>
            <Time>2021-08-12T14:39:48.000Z</Time>
            <Position>
              <LatitudeDegrees>43.28654545359313488006591796875</LatitudeDegrees>
              <LongitudeDegrees>-2.03525642864406108856201171875</LongitudeDegrees>
            </Position>
            <AltitudeMeters>110.8000030517578125</AltitudeMeters>
            <DistanceMeters>NAN</DistanceMeters>
          </Trackpoint>
          <Trackpoint>
            <Time>2021-08-12T14:39:49.000Z</Time>
            <Position>
              <LatitudeDegrees>43.286555595695972442626953125</LatitudeDegrees>
              <LongitudeDegrees>-2.03523463569581508636474609375</LongitudeDegrees>
            </Position>
            <AltitudeMeters>110.8000030517578125</AltitudeMeters>
            <DistanceMeters>NAN</DistanceMeters>
          </Trackpoint>
          <Trackpoint>
            <Time>2021-08-12T14:39:50.000Z</Time>
            <Position>
              <LatitudeDegrees>43.28657043166458606719970703125</LatitudeDegrees>
              <LongitudeDegrees>-2.03520865179598331451416015625</LongitudeDegrees>
            </Position>
            <AltitudeMeters>111</AltitudeMeters>
            <DistanceMeters>NAN</DistanceMeters>
          </Trackpoint>
          <Trackpoint>
            <Time>2021-08-12T14:39:51.000Z</Time>
            <Position>
              <LatitudeDegrees>43.28658065758645534515380859375</LatitudeDegrees>
              <LongitudeDegrees>-2.035146541893482208251953125</LongitudeDegrees>
            </Position>
            <AltitudeMeters>111</AltitudeMeters>
            <DistanceMeters>NAN</DistanceMeters>
          </Trackpoint>
          <Trackpoint>
            <Time>2021-08-12T14:39:52.000Z</Time>
            <Position>
              <LatitudeDegrees>43.28659473918378353118896484375</LatitudeDegrees>
              <LongitudeDegrees>-2.0351037941873073577880859375</LongitudeDegrees>
            </Position>
            <AltitudeMeters>111.1999969482421875</AltitudeMeters>
            <DistanceMeters>NAN</DistanceMeters>
          </Trackpoint>
          <Trackpoint>
            <Time>2021-08-12T14:39:53.000Z</Time>
            <Position>
              <LatitudeDegrees>43.2866187952458858489990234375</LatitudeDegrees>
              <LongitudeDegrees>-2.03505392186343669891357421875</LongitudeDegrees>
            </Position>
            <AltitudeMeters>111.1999969482421875</AltitudeMeters>
            <DistanceMeters>NAN</DistanceMeters>
          </Trackpoint>
          <Trackpoint>
            <Time>2021-08-12T14:39:55.000Z</Time>
            <Position>
              <LatitudeDegrees>43.2866975851356983184814453125</LatitudeDegrees>
              <LongitudeDegrees>-2.0349378325045108795166015625</LongitudeDegrees>
            </Position>
            <AltitudeMeters>111.40000152587890625</AltitudeMeters>
            <DistanceMeters>NAN</DistanceMeters>
          </Trackpoint>
          <Trackpoint>
            <Time>2021-08-12T14:39:56.000Z</Time>
            <Position>
              <LatitudeDegrees>43.2867351360619068145751953125</LatitudeDegrees>
              <LongitudeDegrees>-2.03489005565643310546875</LongitudeDegrees>
            </Position>
            <AltitudeMeters>111.59999847412109375</AltitudeMeters>
            <DistanceMeters>NAN</DistanceMeters>
          </Trackpoint>
          <Trackpoint>
            <Time>2021-08-12T14:39:57.000Z</Time>
            <Position>
              <LatitudeDegrees>43.2867703400552272796630859375</LatitudeDegrees>
              <LongitudeDegrees>-2.0348459668457508087158203125</LongitudeDegrees>
            </Position>
            <AltitudeMeters>111.59999847412109375</AltitudeMeters>
            <DistanceMeters>NAN</DistanceMeters>
          </Trackpoint>
          <Trackpoint>
            <Time>2021-08-12T14:39:59.000Z</Time>
            <Position>
              <LatitudeDegrees>43.286831192672252655029296875</LatitudeDegrees>
              <LongitudeDegrees>-2.0347584597766399383544921875</LongitudeDegrees>
            </Position>
            <AltitudeMeters>112.40000152587890625</AltitudeMeters>
            <DistanceMeters>NAN</DistanceMeters>
          </Trackpoint>
          <Trackpoint>
            <Time>2021-08-12T14:40:00.000Z</Time>
            <Position>
              <LatitudeDegrees>43.28684770502150058746337890625</LatitudeDegrees>
              <LongitudeDegrees>-2.03471194021403789520263671875</LongitudeDegrees>
            </Position>
            <AltitudeMeters>112.59999847412109375</AltitudeMeters>
            <DistanceMeters>NAN</DistanceMeters>
          </Trackpoint>
          <Trackpoint>
            <Time>2021-08-12T14:40:01.000Z</Time>
            <Position>
              <LatitudeDegrees>43.28685156069695949554443359375</LatitudeDegrees>
              <LongitudeDegrees>-2.0346696116030216217041015625</LongitudeDegrees>
            </Position>
            <AltitudeMeters>113</AltitudeMeters>
            <DistanceMeters>NAN</DistanceMeters>
          </Trackpoint>
          <Trackpoint>
            <Time>2021-08-12T14:40:02.000Z</Time>
            <Position>
              <LatitudeDegrees>43.28684988431632518768310546875</LatitudeDegrees>
              <LongitudeDegrees>-2.0346317254006862640380859375</LongitudeDegrees>
            </Position>
            <AltitudeMeters>113.1999969482421875</AltitudeMeters>
            <DistanceMeters>NAN</DistanceMeters>
          </Trackpoint>
          <Trackpoint>
            <Time>2021-08-12T14:40:03.000Z</Time>
            <Position>
              <LatitudeDegrees>43.2868487946689128875732421875</LatitudeDegrees>
              <LongitudeDegrees>-2.03460549004375934600830078125</LongitudeDegrees>
            </Position>
            <AltitudeMeters>113.1999969482421875</AltitudeMeters>
            <DistanceMeters>NAN</DistanceMeters>
          </Trackpoint>
          <Trackpoint>
            <Time>2021-08-12T14:40:04.000Z</Time>
            <Position>
              <LatitudeDegrees>43.28684703446924686431884765625</LatitudeDegrees>
              <LongitudeDegrees>-2.03457464464008808135986328125</LongitudeDegrees>
            </Position>
            <AltitudeMeters>113.40000152587890625</AltitudeMeters>
            <DistanceMeters>NAN</DistanceMeters>
          </Trackpoint>
          <Trackpoint>
            <Time>2021-08-12T14:40:05.000Z</Time>
            <Position>
              <LatitudeDegrees>43.28684301115572452545166015625</LatitudeDegrees>
              <LongitudeDegrees>-2.03453944064676761627197265625</LongitudeDegrees>
            </Position>
            <AltitudeMeters>113.59999847412109375</AltitudeMeters>
            <DistanceMeters>NAN</DistanceMeters>
          </Trackpoint>
          <Trackpoint>
            <Time>2021-08-12T14:40:06.000Z</Time>
            <Position>
              <LatitudeDegrees>43.2868394069373607635498046875</LatitudeDegrees>
              <LongitudeDegrees>-2.03451312147080898284912109375</LongitudeDegrees>
            </Position>
            <AltitudeMeters>114</AltitudeMeters>
            <DistanceMeters>NAN</DistanceMeters>
          </Trackpoint>
          <Trackpoint>
            <Time>2021-08-12T14:40:07.000Z</Time>
            <Position>
              <LatitudeDegrees>43.28683328814804553985595703125</LatitudeDegrees>
              <LongitudeDegrees>-2.03447372652590274810791015625</LongitudeDegrees>
            </Position>
            <AltitudeMeters>114</AltitudeMeters>
            <DistanceMeters>NAN</DistanceMeters>
          </Trackpoint>
          <Trackpoint>
            <Time>2021-08-12T14:40:08.000Z</Time>
            <Position>
              <LatitudeDegrees>43.2868303544819355010986328125</LatitudeDegrees>
              <LongitudeDegrees>-2.0344461500644683837890625</LongitudeDegrees>
            </Position>
            <AltitudeMeters>114.1999969482421875</AltitudeMeters>
            <DistanceMeters>NAN</DistanceMeters>
          </Trackpoint>
          <Trackpoint>
            <Time>2021-08-12T14:40:09.000Z</Time>
            <Position>
              <LatitudeDegrees>43.286827839910984039306640625</LatitudeDegrees>
              <LongitudeDegrees>-2.03441723249852657318115234375</LongitudeDegrees>
            </Position>
            <AltitudeMeters>114.40000152587890625</AltitudeMeters>
            <DistanceMeters>NAN</DistanceMeters>
          </Trackpoint>
          <Trackpoint>
            <Time>2021-08-12T14:40:10.000Z</Time>
            <Position>
              <LatitudeDegrees>43.286819793283939361572265625</LatitudeDegrees>
              <LongitudeDegrees>-2.03438990749418735504150390625</LongitudeDegrees>
            </Position>
            <AltitudeMeters>114.8000030517578125</AltitudeMeters>
            <DistanceMeters>NAN</DistanceMeters>
          </Trackpoint>
          <Trackpoint>
            <Time>2021-08-12T14:40:11.000Z</Time>
            <Position>
              <LatitudeDegrees>43.28680730424821376800537109375</LatitudeDegrees>
              <LongitudeDegrees>-2.034373395144939422607421875</LongitudeDegrees>
            </Position>
            <AltitudeMeters>115</AltitudeMeters>
            <DistanceMeters>NAN</DistanceMeters>
          </Trackpoint>
          <Trackpoint>
            <Time>2021-08-12T14:40:12.000Z</Time>
            <Position>
              <LatitudeDegrees>43.28679137863218784332275390625</LatitudeDegrees>
              <LongitudeDegrees>-2.03436241485178470611572265625</LongitudeDegrees>
            </Position>
            <AltitudeMeters>115.1999969482421875</AltitudeMeters>
            <DistanceMeters>NAN</DistanceMeters>
          </Trackpoint>
          <Trackpoint>
            <Time>2021-08-12T14:40:13.000Z</Time>
            <Position>
              <LatitudeDegrees>43.2867807336151599884033203125</LatitudeDegrees>
              <LongitudeDegrees>-2.03434967435896396636962890625</LongitudeDegrees>
            </Position>
            <AltitudeMeters>115.8000030517578125</AltitudeMeters>
            <DistanceMeters>NAN</DistanceMeters>
          </Trackpoint>
          <Trackpoint>
            <Time>2021-08-12T14:40:14.000Z</Time>
            <Position>
              <LatitudeDegrees>43.286768831312656402587890625</LatitudeDegrees>
              <LongitudeDegrees>-2.03432838432490825653076171875</LongitudeDegrees>
            </Position>
            <AltitudeMeters>116</AltitudeMeters>
            <DistanceMeters>NAN</DistanceMeters>
          </Trackpoint>
          <Trackpoint>
            <Time>2021-08-12T14:40:15.000Z</Time>
            <Position>
              <LatitudeDegrees>43.286756761372089385986328125</LatitudeDegrees>
              <LongitudeDegrees>-2.03430156223475933074951171875</LongitudeDegrees>
            </Position>
            <AltitudeMeters>116.40000152587890625</AltitudeMeters>
            <DistanceMeters>NAN</DistanceMeters>
          </Trackpoint>
          <Trackpoint>
            <Time>2021-08-12T14:40:16.000Z</Time>
            <Position>
              <LatitudeDegrees>43.28675013966858386993408203125</LatitudeDegrees>
              <LongitudeDegrees>-2.03427976928651332855224609375</LongitudeDegrees>
            </Position>
            <AltitudeMeters>116.59999847412109375</AltitudeMeters>
            <DistanceMeters>NAN</DistanceMeters>
          </Trackpoint>
          <Trackpoint>
            <Time>2021-08-12T14:40:17.000Z</Time>
            <Position>
              <LatitudeDegrees>43.286741338670253753662109375</LatitudeDegrees>
              <LongitudeDegrees>-2.03425495885312557220458984375</LongitudeDegrees>
            </Position>
            <AltitudeMeters>117.1999969482421875</AltitudeMeters>
            <DistanceMeters>NAN</DistanceMeters>
          </Trackpoint>
          <Trackpoint>
            <Time>2021-08-12T14:40:18.000Z</Time>
            <Position>
              <LatitudeDegrees>43.28673270530998706817626953125</LatitudeDegrees>
              <LongitudeDegrees>-2.03423551283776760101318359375</LongitudeDegrees>
            </Position>
            <AltitudeMeters>117.40000152587890625</AltitudeMeters>
            <DistanceMeters>NAN</DistanceMeters>
          </Trackpoint>
          <Trackpoint>
            <Time>2021-08-12T14:40:19.000Z</Time>
            <Position>
              <LatitudeDegrees>43.28672097064554691314697265625</LatitudeDegrees>
              <LongitudeDegrees>-2.03420667909085750579833984375</LongitudeDegrees>
            </Position>
            <AltitudeMeters>117.8000030517578125</AltitudeMeters>
            <DistanceMeters>NAN</DistanceMeters>
          </Trackpoint>
          <Trackpoint>
            <Time>2021-08-12T14:40:20.000Z</Time>
            <Position>
              <LatitudeDegrees>43.28671376220881938934326171875</LatitudeDegrees>
              <LongitudeDegrees>-2.03418186865746974945068359375</LongitudeDegrees>
            </Position>
            <AltitudeMeters>118.1999969482421875</AltitudeMeters>
            <DistanceMeters>NAN</DistanceMeters>
          </Trackpoint>
          <Trackpoint>
            <Time>2021-08-12T14:40:21.000Z</Time>
            <Position>
              <LatitudeDegrees>43.286708481609821319580078125</LatitudeDegrees>
              <LongitudeDegrees>-2.03415940515697002410888671875</LongitudeDegrees>
            </Position>
            <AltitudeMeters>118.1999969482421875</AltitudeMeters>
            <DistanceMeters>NAN</DistanceMeters>
          </Trackpoint>
          <Trackpoint>
            <Time>2021-08-12T14:40:22.000Z</Time>
            <Position>
              <LatitudeDegrees>43.2867009378969669342041015625</LatitudeDegrees>
              <LongitudeDegrees>-2.0341348461806774139404296875</LongitudeDegrees>
            </Position>
            <AltitudeMeters>118.59999847412109375</AltitudeMeters>
            <DistanceMeters>NAN</DistanceMeters>
          </Trackpoint>
          <Trackpoint>
            <Time>2021-08-12T14:40:23.000Z</Time>
            <Position>
              <LatitudeDegrees>43.2866949029266834259033203125</LatitudeDegrees>
              <LongitudeDegrees>-2.03411749564111232757568359375</LongitudeDegrees>
            </Position>
            <AltitudeMeters>118.8000030517578125</AltitudeMeters>
            <DistanceMeters>NAN</DistanceMeters>
          </Trackpoint>
          <Trackpoint>
            <Time>2021-08-12T14:40:24.000Z</Time>
            <Position>
              <LatitudeDegrees>43.286688365042209625244140625</LatitudeDegrees>
              <LongitudeDegrees>-2.0340947806835174560546875</LongitudeDegrees>
            </Position>
            <AltitudeMeters>119.40000152587890625</AltitudeMeters>
            <DistanceMeters>NAN</DistanceMeters>
          </Trackpoint>
          <Trackpoint>
            <Time>2021-08-12T14:40:25.000Z</Time>
            <Position>
              <LatitudeDegrees>43.2866798155009746551513671875</LatitudeDegrees>
              <LongitudeDegrees>-2.03406703658401966094970703125</LongitudeDegrees>
            </Position>
            <AltitudeMeters>119.59999847412109375</AltitudeMeters>
            <DistanceMeters>NAN</DistanceMeters>
          </Trackpoint>
          <Trackpoint>
            <Time>2021-08-12T14:40:26.000Z</Time>
            <Position>
              <LatitudeDegrees>43.28667403198778629302978515625</LatitudeDegrees>
              <LongitudeDegrees>-2.0340423099696636199951171875</LongitudeDegrees>
            </Position>
            <AltitudeMeters>119.8000030517578125</AltitudeMeters>
            <DistanceMeters>NAN</DistanceMeters>
          </Trackpoint>
          <Trackpoint>
            <Time>2021-08-12T14:40:27.000Z</Time>
            <Position>
              <LatitudeDegrees>43.28666933812201023101806640625</LatitudeDegrees>
              <LongitudeDegrees>-2.0340169966220855712890625</LongitudeDegrees>
            </Position>
            <AltitudeMeters>120.1999969482421875</AltitudeMeters>
            <DistanceMeters>NAN</DistanceMeters>
          </Trackpoint>
          <Trackpoint>
            <Time>2021-08-12T14:40:28.000Z</Time>
            <Position>
              <LatitudeDegrees>43.28666699118912220001220703125</LatitudeDegrees>
              <LongitudeDegrees>-2.033991180360317230224609375</LongitudeDegrees>
            </Position>
            <AltitudeMeters>120.40000152587890625</AltitudeMeters>
            <DistanceMeters>NAN</DistanceMeters>
          </Trackpoint>
          <Trackpoint>
            <Time>2021-08-12T14:40:29.000Z</Time>
            <Position>
              <LatitudeDegrees>43.28666430898010730743408203125</LatitudeDegrees>
              <LongitudeDegrees>-2.03396611846983432769775390625</LongitudeDegrees>
            </Position>
            <AltitudeMeters>120.8000030517578125</AltitudeMeters>
            <DistanceMeters>NAN</DistanceMeters>
          </Trackpoint>
          <Trackpoint>
            <Time>2021-08-12T14:40:30.000Z</Time>
            <Position>
              <LatitudeDegrees>43.28665927983820438385009765625</LatitudeDegrees>
              <LongitudeDegrees>-2.0339403860270977020263671875</LongitudeDegrees>
            </Position>
            <AltitudeMeters>121</AltitudeMeters>
            <DistanceMeters>NAN</DistanceMeters>
          </Trackpoint>
          <Trackpoint>
            <Time>2021-08-12T14:40:31.000Z</Time>
            <Position>
              <LatitudeDegrees>43.28665089793503284454345703125</LatitudeDegrees>
              <LongitudeDegrees>-2.03391565941274166107177734375</LongitudeDegrees>
            </Position>
            <AltitudeMeters>121.1999969482421875</AltitudeMeters>
            <DistanceMeters>NAN</DistanceMeters>
          </Trackpoint>
          <Trackpoint>
            <Time>2021-08-12T14:40:32.000Z</Time>
            <Position>
              <LatitudeDegrees>43.286644779145717620849609375</LatitudeDegrees>
              <LongitudeDegrees>-2.03389034606516361236572265625</LongitudeDegrees>
            </Position>
            <AltitudeMeters>121.59999847412109375</AltitudeMeters>
            <DistanceMeters>NAN</DistanceMeters>
          </Trackpoint>
          <Trackpoint>
            <Time>2021-08-12T14:40:33.000Z</Time>
            <Position>
              <LatitudeDegrees>43.28664285130798816680908203125</LatitudeDegrees>
              <LongitudeDegrees>-2.03387123532593250274658203125</LongitudeDegrees>
            </Position>
            <AltitudeMeters>121.8000030517578125</AltitudeMeters>
            <DistanceMeters>NAN</DistanceMeters>
          </Trackpoint>
          <Trackpoint>
            <Time>2021-08-12T14:40:34.000Z</Time>
            <Position>
              <LatitudeDegrees>43.28663581050932407379150390625</LatitudeDegrees>
              <LongitudeDegrees>-2.03384072519838809967041015625</LongitudeDegrees>
            </Position>
            <AltitudeMeters>122</AltitudeMeters>
            <DistanceMeters>NAN</DistanceMeters>
          </Trackpoint>
          <Trackpoint>
            <Time>2021-08-12T14:40:35.000Z</Time>
            <Position>
              <LatitudeDegrees>43.2866278477013111114501953125</LatitudeDegrees>
              <LongitudeDegrees>-2.03381650149822235107421875</LongitudeDegrees>
            </Position>
            <AltitudeMeters>122.1999969482421875</AltitudeMeters>
            <DistanceMeters>NAN</DistanceMeters>
          </Trackpoint>
          <Trackpoint>
            <Time>2021-08-12T14:40:36.000Z</Time>
            <Position>
              <LatitudeDegrees>43.28662005253136157989501953125</LatitudeDegrees>
              <LongitudeDegrees>-2.033792026340961456298828125</LongitudeDegrees>
            </Position>
            <AltitudeMeters>122.59999847412109375</AltitudeMeters>
            <DistanceMeters>NAN</DistanceMeters>
          </Trackpoint>
          <Trackpoint>
            <Time>2021-08-12T14:40:37.000Z</Time>
            <Position>
              <LatitudeDegrees>43.28661502338945865631103515625</LatitudeDegrees>
              <LongitudeDegrees>-2.0337729156017303466796875</LongitudeDegrees>
            </Position>
            <AltitudeMeters>122.59999847412109375</AltitudeMeters>
            <DistanceMeters>NAN</DistanceMeters>
          </Trackpoint>
          <Trackpoint>
            <Time>2021-08-12T14:40:38.000Z</Time>
            <Position>
              <LatitudeDegrees>43.2866067253053188323974609375</LatitudeDegrees>
              <LongitudeDegrees>-2.03375103883445262908935546875</LongitudeDegrees>
            </Position>
            <AltitudeMeters>123</AltitudeMeters>
            <DistanceMeters>NAN</DistanceMeters>
          </Trackpoint>
          <Trackpoint>
            <Time>2021-08-12T14:40:39.000Z</Time>
            <Position>
              <LatitudeDegrees>43.2865959964692592620849609375</LatitudeDegrees>
              <LongitudeDegrees>-2.03372689895331859588623046875</LongitudeDegrees>
            </Position>
            <AltitudeMeters>123.1999969482421875</AltitudeMeters>
            <DistanceMeters>NAN</DistanceMeters>
          </Trackpoint>
          <Trackpoint>
            <Time>2021-08-12T14:40:40.000Z</Time>
            <Position>
              <LatitudeDegrees>43.28658417798578739166259765625</LatitudeDegrees>
              <LongitudeDegrees>-2.0337003283202648162841796875</LongitudeDegrees>
            </Position>
            <AltitudeMeters>123.40000152587890625</AltitudeMeters>
            <DistanceMeters>NAN</DistanceMeters>
          </Trackpoint>
          <Trackpoint>
            <Time>2021-08-12T14:40:41.000Z</Time>
            <Position>
              <LatitudeDegrees>43.286575712263584136962890625</LatitudeDegrees>
              <LongitudeDegrees>-2.03368415124714374542236328125</LongitudeDegrees>
            </Position>
            <AltitudeMeters>123.59999847412109375</AltitudeMeters>
            <DistanceMeters>NAN</DistanceMeters>
          </Trackpoint>
          <Trackpoint>
            <Time>2021-08-12T14:40:42.000Z</Time>
            <Position>
              <LatitudeDegrees>43.2865631394088268280029296875</LatitudeDegrees>
              <LongitudeDegrees>-2.03365833498537540435791015625</LongitudeDegrees>
            </Position>
            <AltitudeMeters>123.59999847412109375</AltitudeMeters>
            <DistanceMeters>NAN</DistanceMeters>
          </Trackpoint>
          <Trackpoint>
            <Time>2021-08-12T14:40:43.000Z</Time>
            <Position>
              <LatitudeDegrees>43.2865557633340358734130859375</LatitudeDegrees>
              <LongitudeDegrees>-2.033639810979366302490234375</LongitudeDegrees>
            </Position>
            <AltitudeMeters>123.8000030517578125</AltitudeMeters>
            <DistanceMeters>NAN</DistanceMeters>
          </Trackpoint>
          <Trackpoint>
            <Time>2021-08-12T14:40:44.000Z</Time>
            <Position>
              <LatitudeDegrees>43.2865433581173419952392578125</LatitudeDegrees>
              <LongitudeDegrees>-2.03361961059272289276123046875</LongitudeDegrees>
            </Position>
            <AltitudeMeters>124</AltitudeMeters>
            <DistanceMeters>NAN</DistanceMeters>
          </Trackpoint>
          <Trackpoint>
            <Time>2021-08-12T14:40:45.000Z</Time>
            <Position>
              <LatitudeDegrees>43.28652801923453807830810546875</LatitudeDegrees>
              <LongitudeDegrees>-2.03359697945415973663330078125</LongitudeDegrees>
            </Position>
            <AltitudeMeters>124.1999969482421875</AltitudeMeters>
            <DistanceMeters>NAN</DistanceMeters>
          </Trackpoint>
          <Trackpoint>
            <Time>2021-08-12T14:40:46.000Z</Time>
            <Position>
              <LatitudeDegrees>43.28651435673236846923828125</LatitudeDegrees>
              <LongitudeDegrees>-2.033576108515262603759765625</LongitudeDegrees>
            </Position>
            <AltitudeMeters>124.59999847412109375</AltitudeMeters>
            <DistanceMeters>NAN</DistanceMeters>
          </Trackpoint>
          <Trackpoint>
            <Time>2021-08-12T14:40:47.000Z</Time>
            <Position>
              <LatitudeDegrees>43.2864984311163425445556640625</LatitudeDegrees>
              <LongitudeDegrees>-2.0335564948618412017822265625</LongitudeDegrees>
            </Position>
            <AltitudeMeters>124.59999847412109375</AltitudeMeters>
            <DistanceMeters>NAN</DistanceMeters>
          </Trackpoint>
          <Trackpoint>
            <Time>2021-08-12T14:40:48.000Z</Time>
            <Position>
              <LatitudeDegrees>43.2864813320338726043701171875</LatitudeDegrees>
              <LongitudeDegrees>-2.03353411518037319183349609375</LongitudeDegrees>
            </Position>
            <AltitudeMeters>124.8000030517578125</AltitudeMeters>
            <DistanceMeters>NAN</DistanceMeters>
          </Trackpoint>
          <Trackpoint>
            <Time>2021-08-12T14:40:49.000Z</Time>
            <Position>
              <LatitudeDegrees>43.286468423902988433837890625</LatitudeDegrees>
              <LongitudeDegrees>-2.03351886011660099029541015625</LongitudeDegrees>
            </Position>
            <AltitudeMeters>124.8000030517578125</AltitudeMeters>
            <DistanceMeters>NAN</DistanceMeters>
          </Trackpoint>
          <Trackpoint>
            <Time>2021-08-12T14:40:50.000Z</Time>
            <Position>
              <LatitudeDegrees>43.28645266592502593994140625</LatitudeDegrees>
              <LongitudeDegrees>-2.03349991701543331146240234375</LongitudeDegrees>
            </Position>
            <AltitudeMeters>125.1999969482421875</AltitudeMeters>
            <DistanceMeters>NAN</DistanceMeters>
          </Trackpoint>
          <Trackpoint>
            <Time>2021-08-12T14:40:51.000Z</Time>
            <Position>
              <LatitudeDegrees>43.28643699176609516143798828125</LatitudeDegrees>
              <LongitudeDegrees>-2.03347896225750446319580078125</LongitudeDegrees>
            </Position>
            <AltitudeMeters>125.40000152587890625</AltitudeMeters>
            <DistanceMeters>NAN</DistanceMeters>
          </Trackpoint>
          <Trackpoint>
            <Time>2021-08-12T14:40:52.000Z</Time>
            <Position>
              <LatitudeDegrees>43.28642223961651325225830078125</LatitudeDegrees>
              <LongitudeDegrees>-2.033457420766353607177734375</LongitudeDegrees>
            </Position>
            <AltitudeMeters>125.59999847412109375</AltitudeMeters>
            <DistanceMeters>NAN</DistanceMeters>
          </Trackpoint>
          <Trackpoint>
            <Time>2021-08-12T14:40:53.000Z</Time>
            <Position>
              <LatitudeDegrees>43.28640614636242389678955078125</LatitudeDegrees>
              <LongitudeDegrees>-2.03343470580875873565673828125</LongitudeDegrees>
            </Position>
            <AltitudeMeters>125.8000030517578125</AltitudeMeters>
            <DistanceMeters>NAN</DistanceMeters>
          </Trackpoint>
          <Trackpoint>
            <Time>2021-08-12T14:40:54.000Z</Time>
            <Position>
              <LatitudeDegrees>43.28639139421284198760986328125</LatitudeDegrees>
              <LongitudeDegrees>-2.03341417014598846435546875</LongitudeDegrees>
            </Position>
            <AltitudeMeters>125.8000030517578125</AltitudeMeters>
            <DistanceMeters>NAN</DistanceMeters>
          </Trackpoint>
          <Trackpoint>
            <Time>2021-08-12T14:40:55.000Z</Time>
            <Position>
              <LatitudeDegrees>43.28637697733938694000244140625</LatitudeDegrees>
              <LongitudeDegrees>-2.033393718302249908447265625</LongitudeDegrees>
            </Position>
            <AltitudeMeters>126</AltitudeMeters>
            <DistanceMeters>NAN</DistanceMeters>
          </Trackpoint>
          <Trackpoint>
            <Time>2021-08-12T14:40:56.000Z</Time>
            <Position>
              <LatitudeDegrees>43.286363147199153900146484375</LatitudeDegrees>
              <LongitudeDegrees>-2.03337033279240131378173828125</LongitudeDegrees>
            </Position>
            <AltitudeMeters>126</AltitudeMeters>
            <DistanceMeters>NAN</DistanceMeters>
          </Trackpoint>
          <Trackpoint>
            <Time>2021-08-12T14:40:57.000Z</Time>
            <Position>
              <LatitudeDegrees>43.28634814359247684478759765625</LatitudeDegrees>
              <LongitudeDegrees>-2.03334820456802845001220703125</LongitudeDegrees>
            </Position>
            <AltitudeMeters>126.1999969482421875</AltitudeMeters>
            <DistanceMeters>NAN</DistanceMeters>
          </Trackpoint>
          <Trackpoint>
            <Time>2021-08-12T14:40:58.000Z</Time>
            <Position>
              <LatitudeDegrees>43.28633389435708522796630859375</LatitudeDegrees>
              <LongitudeDegrees>-2.033326663076877593994140625</LongitudeDegrees>
            </Position>
            <AltitudeMeters>126.40000152587890625</AltitudeMeters>
            <DistanceMeters>NAN</DistanceMeters>
          </Trackpoint>
          <Trackpoint>
            <Time>2021-08-12T14:40:59.000Z</Time>
            <Position>
              <LatitudeDegrees>43.2863217405974864959716796875</LatitudeDegrees>
              <LongitudeDegrees>-2.03330545686185359954833984375</LongitudeDegrees>
            </Position>
            <AltitudeMeters>126.8000030517578125</AltitudeMeters>
            <DistanceMeters>NAN</DistanceMeters>
          </Trackpoint>
          <Trackpoint>
            <Time>2021-08-12T14:41:00.000Z</Time>
            <Position>
              <LatitudeDegrees>43.286306150257587432861328125</LatitudeDegrees>
              <LongitudeDegrees>-2.03328232280910015106201171875</LongitudeDegrees>
            </Position>
            <AltitudeMeters>127</AltitudeMeters>
            <DistanceMeters>NAN</DistanceMeters>
          </Trackpoint>
          <Trackpoint>
            <Time>2021-08-12T14:41:01.000Z</Time>
            <Position>
              <LatitudeDegrees>43.2862892188131809234619140625</LatitudeDegrees>
              <LongitudeDegrees>-2.033260278403759002685546875</LongitudeDegrees>
            </Position>
            <AltitudeMeters>127</AltitudeMeters>
            <DistanceMeters>NAN</DistanceMeters>
          </Trackpoint>
          <Trackpoint>
            <Time>2021-08-12T14:41:02.000Z</Time>
            <Position>
              <LatitudeDegrees>43.28627153299748897552490234375</LatitudeDegrees>
              <LongitudeDegrees>-2.03323907218873500823974609375</LongitudeDegrees>
            </Position>
            <AltitudeMeters>127.40000152587890625</AltitudeMeters>
            <DistanceMeters>NAN</DistanceMeters>
          </Trackpoint>
          <Trackpoint>
            <Time>2021-08-12T14:41:03.000Z</Time>
            <Position>
              <LatitudeDegrees>43.28625124879181385040283203125</LatitudeDegrees>
              <LongitudeDegrees>-2.033219374716281890869140625</LongitudeDegrees>
            </Position>
            <AltitudeMeters>127.40000152587890625</AltitudeMeters>
            <DistanceMeters>NAN</DistanceMeters>
          </Trackpoint>
          <Trackpoint>
            <Time>2021-08-12T14:41:04.000Z</Time>
            <Position>
              <LatitudeDegrees>43.28622845001518726348876953125</LatitudeDegrees>
              <LongitudeDegrees>-2.03320135362446308135986328125</LongitudeDegrees>
            </Position>
            <AltitudeMeters>127.59999847412109375</AltitudeMeters>
            <DistanceMeters>NAN</DistanceMeters>
          </Trackpoint>
          <Trackpoint>
            <Time>2021-08-12T14:41:05.000Z</Time>
            <Position>
              <LatitudeDegrees>43.2862040586769580841064453125</LatitudeDegrees>
              <LongitudeDegrees>-2.03318341635167598724365234375</LongitudeDegrees>
            </Position>
            <AltitudeMeters>127.8000030517578125</AltitudeMeters>
            <DistanceMeters>NAN</DistanceMeters>
          </Trackpoint>
          <Trackpoint>
            <Time>2021-08-12T14:41:06.000Z</Time>
            <Position>
              <LatitudeDegrees>43.2861809246242046356201171875</LatitudeDegrees>
              <LongitudeDegrees>-2.03316380269825458526611328125</LongitudeDegrees>
            </Position>
            <AltitudeMeters>128</AltitudeMeters>
            <DistanceMeters>NAN</DistanceMeters>
          </Trackpoint>
          <Trackpoint>
            <Time>2021-08-12T14:41:07.000Z</Time>
            <Position>
              <LatitudeDegrees>43.28615703620016574859619140625</LatitudeDegrees>
              <LongitudeDegrees>-2.0331457816064357757568359375</LongitudeDegrees>
            </Position>
            <AltitudeMeters>128</AltitudeMeters>
            <DistanceMeters>NAN</DistanceMeters>
          </Trackpoint>
          <Trackpoint>
            <Time>2021-08-12T14:41:08.000Z</Time>
            <Position>
              <LatitudeDegrees>43.286131806671619415283203125</LatitudeDegrees>
              <LongitudeDegrees>-2.03312776051461696624755859375</LongitudeDegrees>
            </Position>
            <AltitudeMeters>128</AltitudeMeters>
            <DistanceMeters>NAN</DistanceMeters>
          </Trackpoint>
          <Trackpoint>
            <Time>2021-08-12T14:41:09.000Z</Time>
            <Position>
              <LatitudeDegrees>43.286102972924709320068359375</LatitudeDegrees>
              <LongitudeDegrees>-2.0331085659563541412353515625</LongitudeDegrees>
            </Position>
            <AltitudeMeters>128</AltitudeMeters>
            <DistanceMeters>NAN</DistanceMeters>
          </Trackpoint>
          <Trackpoint>
            <Time>2021-08-12T14:41:10.000Z</Time>
            <Position>
              <LatitudeDegrees>43.2860706187784671783447265625</LatitudeDegrees>
              <LongitudeDegrees>-2.0330871082842350006103515625</LongitudeDegrees>
            </Position>
            <AltitudeMeters>128</AltitudeMeters>
            <DistanceMeters>NAN</DistanceMeters>
          </Trackpoint>
          <Trackpoint>
            <Time>2021-08-12T14:41:11.000Z</Time>
            <Position>
              <LatitudeDegrees>43.2860350795090198516845703125</LatitudeDegrees>
              <LongitudeDegrees>-2.03306204639375209808349609375</LongitudeDegrees>
            </Position>
            <AltitudeMeters>128</AltitudeMeters>
            <DistanceMeters>NAN</DistanceMeters>
          </Trackpoint>
          <Trackpoint>
            <Time>2021-08-12T14:41:12.000Z</Time>
            <Position>
              <LatitudeDegrees>43.28599509783089160919189453125</LatitudeDegrees>
              <LongitudeDegrees>-2.03303463757038116455078125</LongitudeDegrees>
            </Position>
            <AltitudeMeters>128</AltitudeMeters>
            <DistanceMeters>NAN</DistanceMeters>
          </Trackpoint>
          <Trackpoint>
            <Time>2021-08-12T14:41:13.000Z</Time>
            <Position>
              <LatitudeDegrees>43.28595235012471675872802734375</LatitudeDegrees>
              <LongitudeDegrees>-2.03300320543348789215087890625</LongitudeDegrees>
            </Position>
            <AltitudeMeters>128</AltitudeMeters>
            <DistanceMeters>NAN</DistanceMeters>
          </Trackpoint>
          <Trackpoint>
            <Time>2021-08-12T14:41:14.000Z</Time>
            <Position>
              <LatitudeDegrees>43.28590407036244869232177734375</LatitudeDegrees>
              <LongitudeDegrees>-2.0329690910875797271728515625</LongitudeDegrees>
            </Position>
            <AltitudeMeters>128</AltitudeMeters>
            <DistanceMeters>NAN</DistanceMeters>
          </Trackpoint>
          <Trackpoint>
            <Time>2021-08-12T14:41:15.000Z</Time>
            <Position>
              <LatitudeDegrees>43.28585444949567317962646484375</LatitudeDegrees>
              <LongitudeDegrees>-2.0329352281987667083740234375</LongitudeDegrees>
            </Position>
            <AltitudeMeters>127.8000030517578125</AltitudeMeters>
            <DistanceMeters>NAN</DistanceMeters>
          </Trackpoint>
          <Trackpoint>
            <Time>2021-08-12T14:41:16.000Z</Time>
            <Position>
              <LatitudeDegrees>43.28580365516245365142822265625</LatitudeDegrees>
              <LongitudeDegrees>-2.03289859928190708160400390625</LongitudeDegrees>
            </Position>
            <AltitudeMeters>127.59999847412109375</AltitudeMeters>
            <DistanceMeters>NAN</DistanceMeters>
          </Trackpoint>
          <Trackpoint>
            <Time>2021-08-12T14:41:17.000Z</Time>
            <Position>
              <LatitudeDegrees>43.2857557944953441619873046875</LatitudeDegrees>
              <LongitudeDegrees>-2.0328550972044467926025390625</LongitudeDegrees>
            </Position>
            <AltitudeMeters>127.59999847412109375</AltitudeMeters>
            <DistanceMeters>NAN</DistanceMeters>
          </Trackpoint>
          <Trackpoint>
            <Time>2021-08-12T14:41:18.000Z</Time>
            <Position>
              <LatitudeDegrees>43.2857138849794864654541015625</LatitudeDegrees>
              <LongitudeDegrees>-2.03280254267156124114990234375</LongitudeDegrees>
            </Position>
            <AltitudeMeters>127</AltitudeMeters>
            <DistanceMeters>NAN</DistanceMeters>
          </Trackpoint>
          <Trackpoint>
            <Time>2021-08-12T14:41:19.000Z</Time>
            <Position>
              <LatitudeDegrees>43.28567926771938800811767578125</LatitudeDegrees>
              <LongitudeDegrees>-2.03274453990161418914794921875</LongitudeDegrees>
            </Position>
            <AltitudeMeters>127</AltitudeMeters>
            <DistanceMeters>NAN</DistanceMeters>
          </Trackpoint>
          <Trackpoint>
            <Time>2021-08-12T14:41:20.000Z</Time>
            <Position>
              <LatitudeDegrees>43.28565194271504878997802734375</LatitudeDegrees>
              <LongitudeDegrees>-2.03268620185554027557373046875</LongitudeDegrees>
            </Position>
            <AltitudeMeters>126.8000030517578125</AltitudeMeters>
            <DistanceMeters>NAN</DistanceMeters>
          </Trackpoint>
          <Trackpoint>
            <Time>2021-08-12T14:41:21.000Z</Time>
            <Position>
              <LatitudeDegrees>43.2856280542910099029541015625</LatitudeDegrees>
              <LongitudeDegrees>-2.03263205476105213165283203125</LongitudeDegrees>
            </Position>
            <AltitudeMeters>126.8000030517578125</AltitudeMeters>
            <DistanceMeters>NAN</DistanceMeters>
          </Trackpoint>
          <Trackpoint>
            <Time>2021-08-12T14:41:22.000Z</Time>
            <Position>
              <LatitudeDegrees>43.28560634516179561614990234375</LatitudeDegrees>
              <LongitudeDegrees>-2.032584361732006072998046875</LongitudeDegrees>
            </Position>
            <AltitudeMeters>126.59999847412109375</AltitudeMeters>
            <DistanceMeters>NAN</DistanceMeters>
          </Trackpoint>
          <Trackpoint>
            <Time>2021-08-12T14:41:23.000Z</Time>
            <Position>
              <LatitudeDegrees>43.28558765351772308349609375</LatitudeDegrees>
              <LongitudeDegrees>-2.03254337422549724578857421875</LongitudeDegrees>
            </Position>
            <AltitudeMeters>126.59999847412109375</AltitudeMeters>
            <DistanceMeters>NAN</DistanceMeters>
          </Trackpoint>
          <Trackpoint>
            <Time>2021-08-12T14:41:24.000Z</Time>
            <Position>
              <LatitudeDegrees>43.28557097353041172027587890625</LatitudeDegrees>
              <LongitudeDegrees>-2.03250330872833728790283203125</LongitudeDegrees>
            </Position>
            <AltitudeMeters>126.59999847412109375</AltitudeMeters>
            <DistanceMeters>NAN</DistanceMeters>
          </Trackpoint>
          <Trackpoint>
            <Time>2021-08-12T14:41:25.000Z</Time>
            <Position>
              <LatitudeDegrees>43.2855563051998615264892578125</LatitudeDegrees>
              <LongitudeDegrees>-2.0324661768972873687744140625</LongitudeDegrees>
            </Position>
            <AltitudeMeters>126.59999847412109375</AltitudeMeters>
            <DistanceMeters>NAN</DistanceMeters>
          </Trackpoint>
          <Trackpoint>
            <Time>2021-08-12T14:41:26.000Z</Time>
            <Position>
              <LatitudeDegrees>43.28554230742156505584716796875</LatitudeDegrees>
              <LongitudeDegrees>-2.0324289612472057342529296875</LongitudeDegrees>
            </Position>
            <AltitudeMeters>126.59999847412109375</AltitudeMeters>
            <DistanceMeters>NAN</DistanceMeters>
          </Trackpoint>
          <Trackpoint>
            <Time>2021-08-12T14:41:27.000Z</Time>
            <Position>
              <LatitudeDegrees>43.2855288125574588775634765625</LatitudeDegrees>
              <LongitudeDegrees>-2.03239283524453639984130859375</LongitudeDegrees>
            </Position>
            <AltitudeMeters>126.8000030517578125</AltitudeMeters>
            <DistanceMeters>NAN</DistanceMeters>
          </Trackpoint>
          <Trackpoint>
            <Time>2021-08-12T14:41:30.000Z</Time>
            <Position>
              <LatitudeDegrees>43.28549218364059925079345703125</LatitudeDegrees>
              <LongitudeDegrees>-2.03228554688394069671630859375</LongitudeDegrees>
            </Position>
            <AltitudeMeters>127.1999969482421875</AltitudeMeters>
            <DistanceMeters>NAN</DistanceMeters>
          </Trackpoint>
          <Trackpoint>
            <Time>2021-08-12T14:41:31.000Z</Time>
            <Position>
              <LatitudeDegrees>43.28548061661422252655029296875</LatitudeDegrees>
              <LongitudeDegrees>-2.03224849887192249298095703125</LongitudeDegrees>
            </Position>
            <AltitudeMeters>127.40000152587890625</AltitudeMeters>
            <DistanceMeters>NAN</DistanceMeters>
          </Trackpoint>
          <Trackpoint>
            <Time>2021-08-12T14:41:32.000Z</Time>
            <Position>
              <LatitudeDegrees>43.28546955250203609466552734375</LatitudeDegrees>
              <LongitudeDegrees>-2.03221279196441173553466796875</LongitudeDegrees>
            </Position>
            <AltitudeMeters>127.8000030517578125</AltitudeMeters>
            <DistanceMeters>NAN</DistanceMeters>
          </Trackpoint>
          <Trackpoint>
            <Time>2021-08-12T14:41:33.000Z</Time>
            <Position>
              <LatitudeDegrees>43.28545848838984966278076171875</LatitudeDegrees>
              <LongitudeDegrees>-2.0321778394281864166259765625</LongitudeDegrees>
            </Position>
            <AltitudeMeters>127.8000030517578125</AltitudeMeters>
            <DistanceMeters>NAN</DistanceMeters>
          </Trackpoint>
          <Trackpoint>
            <Time>2021-08-12T14:41:34.000Z</Time>
            <Position>
              <LatitudeDegrees>43.28544809482991695404052734375</LatitudeDegrees>
              <LongitudeDegrees>-2.03214305453002452850341796875</LongitudeDegrees>
            </Position>
            <AltitudeMeters>128.1999969482421875</AltitudeMeters>
            <DistanceMeters>NAN</DistanceMeters>
          </Trackpoint>
          <Trackpoint>
            <Time>2021-08-12T14:41:35.000Z</Time>
            <Position>
              <LatitudeDegrees>43.28543820418417453765869140625</LatitudeDegrees>
              <LongitudeDegrees>-2.03210919164121150970458984375</LongitudeDegrees>
            </Position>
            <AltitudeMeters>128.600006103515625</AltitudeMeters>
            <DistanceMeters>NAN</DistanceMeters>
          </Trackpoint>
          <Trackpoint>
            <Time>2021-08-12T14:41:36.000Z</Time>
            <Position>
              <LatitudeDegrees>43.28542680479586124420166015625</LatitudeDegrees>
              <LongitudeDegrees>-2.03207574784755706787109375</LongitudeDegrees>
            </Position>
            <AltitudeMeters>128.8000030517578125</AltitudeMeters>
            <DistanceMeters>NAN</DistanceMeters>
          </Trackpoint>
          <Trackpoint>
            <Time>2021-08-12T14:41:37.000Z</Time>
            <Position>
              <LatitudeDegrees>43.28541926108300685882568359375</LatitudeDegrees>
              <LongitudeDegrees>-2.032044567167758941650390625</LongitudeDegrees>
            </Position>
            <AltitudeMeters>129</AltitudeMeters>
            <DistanceMeters>NAN</DistanceMeters>
          </Trackpoint>
          <Trackpoint>
            <Time>2021-08-12T14:41:38.000Z</Time>
            <Position>
              <LatitudeDegrees>43.28541121445596218109130859375</LatitudeDegrees>
              <LongitudeDegrees>-2.0320133864879608154296875</LongitudeDegrees>
            </Position>
            <AltitudeMeters>129.1999969482421875</AltitudeMeters>
            <DistanceMeters>NAN</DistanceMeters>
          </Trackpoint>
          <Trackpoint>
            <Time>2021-08-12T14:41:40.000Z</Time>
            <Position>
              <LatitudeDegrees>43.28539319336414337158203125</LatitudeDegrees>
              <LongitudeDegrees>-2.03194322995841503143310546875</LongitudeDegrees>
            </Position>
            <AltitudeMeters>129.399993896484375</AltitudeMeters>
            <DistanceMeters>NAN</DistanceMeters>
          </Trackpoint>
          <Trackpoint>
            <Time>2021-08-12T14:41:41.000Z</Time>
            <Position>
              <LatitudeDegrees>43.28538657166063785552978515625</LatitudeDegrees>
              <LongitudeDegrees>-2.03190676867961883544921875</LongitudeDegrees>
            </Position>
            <AltitudeMeters>129.8000030517578125</AltitudeMeters>
            <DistanceMeters>NAN</DistanceMeters>
          </Trackpoint>
          <Trackpoint>
            <Time>2021-08-12T14:41:43.000Z</Time>
            <Position>
              <LatitudeDegrees>43.2853724062442779541015625</LatitudeDegrees>
              <LongitudeDegrees>-2.03183359466493129730224609375</LongitudeDegrees>
            </Position>
            <AltitudeMeters>130.1999969482421875</AltitudeMeters>
            <DistanceMeters>NAN</DistanceMeters>
          </Trackpoint>
          <Trackpoint>
            <Time>2021-08-12T14:41:44.000Z</Time>
            <Position>
              <LatitudeDegrees>43.28536905348300933837890625</LatitudeDegrees>
              <LongitudeDegrees>-2.03179755248129367828369140625</LongitudeDegrees>
            </Position>
            <AltitudeMeters>130.399993896484375</AltitudeMeters>
            <DistanceMeters>NAN</DistanceMeters>
          </Trackpoint>
          <Trackpoint>
            <Time>2021-08-12T14:41:45.000Z</Time>
            <Position>
              <LatitudeDegrees>43.285368382930755615234375</LatitudeDegrees>
              <LongitudeDegrees>-2.03176201321184635162353515625</LongitudeDegrees>
            </Position>
            <AltitudeMeters>130.600006103515625</AltitudeMeters>
            <DistanceMeters>NAN</DistanceMeters>
          </Trackpoint>
          <Trackpoint>
            <Time>2021-08-12T14:41:46.000Z</Time>
            <Position>
              <LatitudeDegrees>43.285366035997867584228515625</LatitudeDegrees>
              <LongitudeDegrees>-2.031726725399494171142578125</LongitudeDegrees>
            </Position>
            <AltitudeMeters>130.8000030517578125</AltitudeMeters>
            <DistanceMeters>NAN</DistanceMeters>
          </Trackpoint>
          <Trackpoint>
            <Time>2021-08-12T14:41:47.000Z</Time>
            <Position>
              <LatitudeDegrees>43.2853641919791698455810546875</LatitudeDegrees>
              <LongitudeDegrees>-2.03169059939682483673095703125</LongitudeDegrees>
            </Position>
            <AltitudeMeters>131</AltitudeMeters>
            <DistanceMeters>NAN</DistanceMeters>
          </Trackpoint>
          <Trackpoint>
            <Time>2021-08-12T14:41:48.000Z</Time>
            <Position>
              <LatitudeDegrees>43.28536570072174072265625</LatitudeDegrees>
              <LongitudeDegrees>-2.03165556304156780242919921875</LongitudeDegrees>
            </Position>
            <AltitudeMeters>131.1999969482421875</AltitudeMeters>
            <DistanceMeters>NAN</DistanceMeters>
          </Trackpoint>
          <Trackpoint>
            <Time>2021-08-12T14:41:49.000Z</Time>
            <Position>
              <LatitudeDegrees>43.28536863438785076141357421875</LatitudeDegrees>
              <LongitudeDegrees>-2.03161968849599361419677734375</LongitudeDegrees>
            </Position>
            <AltitudeMeters>131.399993896484375</AltitudeMeters>
            <DistanceMeters>NAN</DistanceMeters>
          </Trackpoint>
          <Trackpoint>
            <Time>2021-08-12T14:41:50.000Z</Time>
            <Position>
              <LatitudeDegrees>43.285376094281673431396484375</LatitudeDegrees>
              <LongitudeDegrees>-2.03158599324524402618408203125</LongitudeDegrees>
            </Position>
            <AltitudeMeters>131.600006103515625</AltitudeMeters>
            <DistanceMeters>NAN</DistanceMeters>
          </Trackpoint>
          <Trackpoint>
            <Time>2021-08-12T14:41:51.000Z</Time>
            <Position>
              <LatitudeDegrees>43.2853876613080501556396484375</LatitudeDegrees>
              <LongitudeDegrees>-2.03155539929866790771484375</LongitudeDegrees>
            </Position>
            <AltitudeMeters>131.8000030517578125</AltitudeMeters>
            <DistanceMeters>NAN</DistanceMeters>
          </Trackpoint>
          <Trackpoint>
            <Time>2021-08-12T14:41:52.000Z</Time>
            <Position>
              <LatitudeDegrees>43.28539931215345859527587890625</LatitudeDegrees>
              <LongitudeDegrees>-2.031525559723377227783203125</LongitudeDegrees>
            </Position>
            <AltitudeMeters>131.8000030517578125</AltitudeMeters>
            <DistanceMeters>NAN</DistanceMeters>
          </Trackpoint>
          <Trackpoint>
            <Time>2021-08-12T14:41:53.000Z</Time>
            <Position>
              <LatitudeDegrees>43.28541339375078678131103515625</LatitudeDegrees>
              <LongitudeDegrees>-2.0314955525100231170654296875</LongitudeDegrees>
            </Position>
            <AltitudeMeters>132.399993896484375</AltitudeMeters>
            <DistanceMeters>NAN</DistanceMeters>
          </Trackpoint>
          <Trackpoint>
            <Time>2021-08-12T14:41:54.000Z</Time>
            <Position>
              <LatitudeDegrees>43.2854268886148929595947265625</LatitudeDegrees>
              <LongitudeDegrees>-2.03146663494408130645751953125</LongitudeDegrees>
            </Position>
            <AltitudeMeters>132.600006103515625</AltitudeMeters>
            <DistanceMeters>NAN</DistanceMeters>
          </Trackpoint>
          <Trackpoint>
            <Time>2021-08-12T14:41:55.000Z</Time>
            <Position>
              <LatitudeDegrees>43.28544071875512599945068359375</LatitudeDegrees>
              <LongitudeDegrees>-2.0314365439116954803466796875</LongitudeDegrees>
            </Position>
            <AltitudeMeters>132.8000030517578125</AltitudeMeters>
            <DistanceMeters>NAN</DistanceMeters>
          </Trackpoint>
          <Trackpoint>
            <Time>2021-08-12T14:41:56.000Z</Time>
            <Position>
              <LatitudeDegrees>43.2854528725147247314453125</LatitudeDegrees>
              <LongitudeDegrees>-2.03140544705092906951904296875</LongitudeDegrees>
            </Position>
            <AltitudeMeters>133</AltitudeMeters>
            <DistanceMeters>NAN</DistanceMeters>
          </Trackpoint>
          <Trackpoint>
            <Time>2021-08-12T14:41:57.000Z</Time>
            <Position>
              <LatitudeDegrees>43.2854614220559597015380859375</LatitudeDegrees>
              <LongitudeDegrees>-2.03137393109500408172607421875</LongitudeDegrees>
            </Position>
            <AltitudeMeters>133</AltitudeMeters>
            <DistanceMeters>NAN</DistanceMeters>
          </Trackpoint>
          <Trackpoint>
            <Time>2021-08-12T14:41:58.000Z</Time>
            <Position>
              <LatitudeDegrees>43.28546653501689434051513671875</LatitudeDegrees>
              <LongitudeDegrees>-2.0313393138349056243896484375</LongitudeDegrees>
            </Position>
            <AltitudeMeters>133.1999969482421875</AltitudeMeters>
            <DistanceMeters>NAN</DistanceMeters>
          </Trackpoint>
          <Trackpoint>
            <Time>2021-08-12T14:41:59.000Z</Time>
            <Position>
              <LatitudeDegrees>43.285468630492687225341796875</LatitudeDegrees>
              <LongitudeDegrees>-2.031305618584156036376953125</LongitudeDegrees>
            </Position>
            <AltitudeMeters>133.399993896484375</AltitudeMeters>
            <DistanceMeters>NAN</DistanceMeters>
          </Trackpoint>
          <Trackpoint>
            <Time>2021-08-12T14:42:00.000Z</Time>
            <Position>
              <LatitudeDegrees>43.28546904958784580230712890625</LatitudeDegrees>
              <LongitudeDegrees>-2.0312722586095333099365234375</LongitudeDegrees>
            </Position>
            <AltitudeMeters>133.600006103515625</AltitudeMeters>
            <DistanceMeters>NAN</DistanceMeters>
          </Trackpoint>
          <Trackpoint>
            <Time>2021-08-12T14:42:01.000Z</Time>
            <Position>
              <LatitudeDegrees>43.28546854667365550994873046875</LatitudeDegrees>
              <LongitudeDegrees>-2.031239569187164306640625</LongitudeDegrees>
            </Position>
            <AltitudeMeters>133.8000030517578125</AltitudeMeters>
            <DistanceMeters>NAN</DistanceMeters>
          </Trackpoint>
          <Trackpoint>
            <Time>2021-08-12T14:42:02.000Z</Time>
            <Position>
              <LatitudeDegrees>43.28546636737883090972900390625</LatitudeDegrees>
              <LongitudeDegrees>-2.03120545484125614166259765625</LongitudeDegrees>
            </Position>
            <AltitudeMeters>134</AltitudeMeters>
            <DistanceMeters>NAN</DistanceMeters>
          </Trackpoint>
          <Trackpoint>
            <Time>2021-08-12T14:42:03.000Z</Time>
            <Position>
              <LatitudeDegrees>43.285463936626911163330078125</LatitudeDegrees>
              <LongitudeDegrees>-2.03117075376212596893310546875</LongitudeDegrees>
            </Position>
            <AltitudeMeters>134</AltitudeMeters>
            <DistanceMeters>NAN</DistanceMeters>
          </Trackpoint>
          <Trackpoint>
            <Time>2021-08-12T14:42:04.000Z</Time>
            <Position>
              <LatitudeDegrees>43.2854604162275791168212890625</LatitudeDegrees>
              <LongitudeDegrees>-2.03113563358783721923828125</LongitudeDegrees>
            </Position>
            <AltitudeMeters>134.1999969482421875</AltitudeMeters>
            <DistanceMeters>NAN</DistanceMeters>
          </Trackpoint>
          <Trackpoint>
            <Time>2021-08-12T14:42:05.000Z</Time>
            <Position>
              <LatitudeDegrees>43.28545714728534221649169921875</LatitudeDegrees>
              <LongitudeDegrees>-2.0311012677848339080810546875</LongitudeDegrees>
            </Position>
            <AltitudeMeters>134.399993896484375</AltitudeMeters>
            <DistanceMeters>NAN</DistanceMeters>
          </Trackpoint>
          <Trackpoint>
            <Time>2021-08-12T14:42:06.000Z</Time>
            <Position>
              <LatitudeDegrees>43.28545295633375644683837890625</LatitudeDegrees>
              <LongitudeDegrees>-2.03106648288667201995849609375</LongitudeDegrees>
            </Position>
            <AltitudeMeters>134.600006103515625</AltitudeMeters>
            <DistanceMeters>NAN</DistanceMeters>
          </Trackpoint>
          <Trackpoint>
            <Time>2021-08-12T14:42:07.000Z</Time>
            <Position>
              <LatitudeDegrees>43.2854483462870121002197265625</LatitudeDegrees>
              <LongitudeDegrees>-2.03103295527398586273193359375</LongitudeDegrees>
            </Position>
            <AltitudeMeters>134.8000030517578125</AltitudeMeters>
            <DistanceMeters>NAN</DistanceMeters>
          </Trackpoint>
          <Trackpoint>
            <Time>2021-08-12T14:42:08.000Z</Time>
            <Position>
              <LatitudeDegrees>43.2854429818689823150634765625</LatitudeDegrees>
              <LongitudeDegrees>-2.0310010202229022979736328125</LongitudeDegrees>
            </Position>
            <AltitudeMeters>135</AltitudeMeters>
            <DistanceMeters>NAN</DistanceMeters>
          </Trackpoint>
          <Trackpoint>
            <Time>2021-08-12T14:42:09.000Z</Time>
            <Position>
              <LatitudeDegrees>43.2854396291077136993408203125</LatitudeDegrees>
              <LongitudeDegrees>-2.0309681631624698638916015625</LongitudeDegrees>
            </Position>
            <AltitudeMeters>135</AltitudeMeters>
            <DistanceMeters>NAN</DistanceMeters>
          </Trackpoint>
          <Trackpoint>
            <Time>2021-08-12T14:42:10.000Z</Time>
            <Position>
              <LatitudeDegrees>43.28543418087065219879150390625</LatitudeDegrees>
              <LongitudeDegrees>-2.0309309475123882293701171875</LongitudeDegrees>
            </Position>
            <AltitudeMeters>135.1999969482421875</AltitudeMeters>
            <DistanceMeters>NAN</DistanceMeters>
          </Trackpoint>
          <Trackpoint>
            <Time>2021-08-12T14:42:11.000Z</Time>
            <Position>
              <LatitudeDegrees>43.2854272238910198211669921875</LatitudeDegrees>
              <LongitudeDegrees>-2.03089599497616291046142578125</LongitudeDegrees>
            </Position>
            <AltitudeMeters>135.1999969482421875</AltitudeMeters>
            <DistanceMeters>NAN</DistanceMeters>
          </Trackpoint>
          <Trackpoint>
            <Time>2021-08-12T14:42:12.000Z</Time>
            <Position>
              <LatitudeDegrees>43.28541959635913372039794921875</LatitudeDegrees>
              <LongitudeDegrees>-2.0308622159063816070556640625</LongitudeDegrees>
            </Position>
            <AltitudeMeters>135.399993896484375</AltitudeMeters>
            <DistanceMeters>NAN</DistanceMeters>
          </Trackpoint>
          <Trackpoint>
            <Time>2021-08-12T14:42:13.000Z</Time>
            <Position>
              <LatitudeDegrees>43.2854104600846767425537109375</LatitudeDegrees>
              <LongitudeDegrees>-2.03082986176013946533203125</LongitudeDegrees>
            </Position>
            <AltitudeMeters>135.399993896484375</AltitudeMeters>
            <DistanceMeters>NAN</DistanceMeters>
          </Trackpoint>
          <Trackpoint>
            <Time>2021-08-12T14:42:14.000Z</Time>
            <Position>
              <LatitudeDegrees>43.28540258109569549560546875</LatitudeDegrees>
              <LongitudeDegrees>-2.0307981781661510467529296875</LongitudeDegrees>
            </Position>
            <AltitudeMeters>135.399993896484375</AltitudeMeters>
            <DistanceMeters>NAN</DistanceMeters>
          </Trackpoint>
          <Trackpoint>
            <Time>2021-08-12T14:42:15.000Z</Time>
            <Position>
              <LatitudeDegrees>43.285394199192523956298828125</LatitudeDegrees>
              <LongitudeDegrees>-2.03076682984828948974609375</LongitudeDegrees>
            </Position>
            <AltitudeMeters>135.600006103515625</AltitudeMeters>
            <DistanceMeters>NAN</DistanceMeters>
          </Trackpoint>
          <Trackpoint>
            <Time>2021-08-12T14:42:16.000Z</Time>
            <Position>
              <LatitudeDegrees>43.28538388945162296295166015625</LatitudeDegrees>
              <LongitudeDegrees>-2.03073489479720592498779296875</LongitudeDegrees>
            </Position>
            <AltitudeMeters>135.600006103515625</AltitudeMeters>
            <DistanceMeters>NAN</DistanceMeters>
          </Trackpoint>
          <Trackpoint>
            <Time>2021-08-12T14:42:17.000Z</Time>
            <Position>
              <LatitudeDegrees>43.28537483699619770050048828125</LatitudeDegrees>
              <LongitudeDegrees>-2.03070187009871006011962890625</LongitudeDegrees>
            </Position>
            <AltitudeMeters>135.8000030517578125</AltitudeMeters>
            <DistanceMeters>NAN</DistanceMeters>
          </Trackpoint>
          <Trackpoint>
            <Time>2021-08-12T14:42:18.000Z</Time>
            <Position>
              <LatitudeDegrees>43.28536746092140674591064453125</LatitudeDegrees>
              <LongitudeDegrees>-2.030671276152133941650390625</LongitudeDegrees>
            </Position>
            <AltitudeMeters>135.8000030517578125</AltitudeMeters>
            <DistanceMeters>NAN</DistanceMeters>
          </Trackpoint>
          <Trackpoint>
            <Time>2021-08-12T14:42:19.000Z</Time>
            <Position>
              <LatitudeDegrees>43.2853621803224086761474609375</LatitudeDegrees>
              <LongitudeDegrees>-2.0306436158716678619384765625</LongitudeDegrees>
            </Position>
            <AltitudeMeters>136</AltitudeMeters>
            <DistanceMeters>NAN</DistanceMeters>
          </Trackpoint>
          <Trackpoint>
            <Time>2021-08-12T14:42:20.000Z</Time>
            <Position>
              <LatitudeDegrees>43.28535857610404491424560546875</LatitudeDegrees>
              <LongitudeDegrees>-2.0306171290576457977294921875</LongitudeDegrees>
            </Position>
            <AltitudeMeters>136</AltitudeMeters>
            <DistanceMeters>NAN</DistanceMeters>
          </Trackpoint>
          <Trackpoint>
            <Time>2021-08-12T14:42:21.000Z</Time>
            <Position>
              <LatitudeDegrees>43.28535321168601512908935546875</LatitudeDegrees>
              <LongitudeDegrees>-2.03059022314846515655517578125</LongitudeDegrees>
            </Position>
            <AltitudeMeters>136.1999969482421875</AltitudeMeters>
            <DistanceMeters>NAN</DistanceMeters>
          </Trackpoint>
          <Trackpoint>
            <Time>2021-08-12T14:42:22.000Z</Time>
            <Position>
              <LatitudeDegrees>43.28534130938351154327392578125</LatitudeDegrees>
              <LongitudeDegrees>-2.03056558035314083099365234375</LongitudeDegrees>
            </Position>
            <AltitudeMeters>136.600006103515625</AltitudeMeters>
            <DistanceMeters>NAN</DistanceMeters>
          </Trackpoint>
          <Trackpoint>
            <Time>2021-08-12T14:42:23.000Z</Time>
            <Position>
              <LatitudeDegrees>43.28532974235713481903076171875</LatitudeDegrees>
              <LongitudeDegrees>-2.03054194338619709014892578125</LongitudeDegrees>
            </Position>
            <AltitudeMeters>137</AltitudeMeters>
            <DistanceMeters>NAN</DistanceMeters>
          </Trackpoint>
          <Trackpoint>
            <Time>2021-08-12T14:42:24.000Z</Time>
            <Position>
              <LatitudeDegrees>43.28531800769269466400146484375</LatitudeDegrees>
              <LongitudeDegrees>-2.030521072447299957275390625</LongitudeDegrees>
            </Position>
            <AltitudeMeters>137.399993896484375</AltitudeMeters>
            <DistanceMeters>NAN</DistanceMeters>
          </Trackpoint>
          <Trackpoint>
            <Time>2021-08-12T14:42:25.000Z</Time>
            <Position>
              <LatitudeDegrees>43.2853085361421108245849609375</LatitudeDegrees>
              <LongitudeDegrees>-2.030498944222927093505859375</LongitudeDegrees>
            </Position>
            <AltitudeMeters>137.600006103515625</AltitudeMeters>
            <DistanceMeters>NAN</DistanceMeters>
          </Trackpoint>
          <Trackpoint>
            <Time>2021-08-12T14:42:26.000Z</Time>
            <Position>
              <LatitudeDegrees>43.2852951250970363616943359375</LatitudeDegrees>
              <LongitudeDegrees>-2.0304766483604907989501953125</LongitudeDegrees>
            </Position>
            <AltitudeMeters>138</AltitudeMeters>
            <DistanceMeters>NAN</DistanceMeters>
          </Trackpoint>
          <Trackpoint>
            <Time>2021-08-12T14:42:27.000Z</Time>
            <Position>
              <LatitudeDegrees>43.28528481535613536834716796875</LatitudeDegrees>
              <LongitudeDegrees>-2.03045477159321308135986328125</LongitudeDegrees>
            </Position>
            <AltitudeMeters>138.399993896484375</AltitudeMeters>
            <DistanceMeters>NAN</DistanceMeters>
          </Trackpoint>
          <Trackpoint>
            <Time>2021-08-12T14:42:28.000Z</Time>
            <Position>
              <LatitudeDegrees>43.2852756790816783905029296875</LatitudeDegrees>
              <LongitudeDegrees>-2.03043381683528423309326171875</LongitudeDegrees>
            </Position>
            <AltitudeMeters>139</AltitudeMeters>
            <DistanceMeters>NAN</DistanceMeters>
          </Trackpoint>
          <Trackpoint>
            <Time>2021-08-12T14:42:29.000Z</Time>
            <Position>
              <LatitudeDegrees>43.28526939265429973602294921875</LatitudeDegrees>
              <LongitudeDegrees>-2.03040900640189647674560546875</LongitudeDegrees>
            </Position>
            <AltitudeMeters>139.1999969482421875</AltitudeMeters>
            <DistanceMeters>NAN</DistanceMeters>
          </Trackpoint>
          <Trackpoint>
            <Time>2021-08-12T14:42:30.000Z</Time>
            <Position>
              <LatitudeDegrees>43.28526201657950878143310546875</LatitudeDegrees>
              <LongitudeDegrees>-2.03038729727268218994140625</LongitudeDegrees>
            </Position>
            <AltitudeMeters>139.399993896484375</AltitudeMeters>
            <DistanceMeters>NAN</DistanceMeters>
          </Trackpoint>
          <Trackpoint>
            <Time>2021-08-12T14:42:31.000Z</Time>
            <Position>
              <LatitudeDegrees>43.2852490246295928955078125</LatitudeDegrees>
              <LongitudeDegrees>-2.03036877326667308807373046875</LongitudeDegrees>
            </Position>
            <AltitudeMeters>139.8000030517578125</AltitudeMeters>
            <DistanceMeters>NAN</DistanceMeters>
          </Trackpoint>
          <Trackpoint>
            <Time>2021-08-12T14:42:32.000Z</Time>
            <Position>
              <LatitudeDegrees>43.285233937203884124755859375</LatitudeDegrees>
              <LongitudeDegrees>-2.03035368584096431732177734375</LongitudeDegrees>
            </Position>
            <AltitudeMeters>140</AltitudeMeters>
            <DistanceMeters>NAN</DistanceMeters>
          </Trackpoint>
          <Trackpoint>
            <Time>2021-08-12T14:42:33.000Z</Time>
            <Position>
              <LatitudeDegrees>43.28521876595914363861083984375</LatitudeDegrees>
              <LongitudeDegrees>-2.03034195117652416229248046875</LongitudeDegrees>
            </Position>
            <AltitudeMeters>140.399993896484375</AltitudeMeters>
            <DistanceMeters>NAN</DistanceMeters>
          </Trackpoint>
          <Trackpoint>
            <Time>2021-08-12T14:42:34.000Z</Time>
            <Position>
              <LatitudeDegrees>43.2852012477815151214599609375</LatitudeDegrees>
              <LongitudeDegrees>-2.03033239580690860748291015625</LongitudeDegrees>
            </Position>
            <AltitudeMeters>140.600006103515625</AltitudeMeters>
            <DistanceMeters>NAN</DistanceMeters>
          </Trackpoint>
          <Trackpoint>
            <Time>2021-08-12T14:42:35.000Z</Time>
            <Position>
              <LatitudeDegrees>43.2851824723184108734130859375</LatitudeDegrees>
              <LongitudeDegrees>-2.0303271152079105377197265625</LongitudeDegrees>
            </Position>
            <AltitudeMeters>141</AltitudeMeters>
            <DistanceMeters>NAN</DistanceMeters>
          </Trackpoint>
          <Trackpoint>
            <Time>2021-08-12T14:42:36.000Z</Time>
            <Position>
              <LatitudeDegrees>43.285166211426258087158203125</LatitudeDegrees>
              <LongitudeDegrees>-2.0303237624466419219970703125</LongitudeDegrees>
            </Position>
            <AltitudeMeters>141.399993896484375</AltitudeMeters>
            <DistanceMeters>NAN</DistanceMeters>
          </Trackpoint>
          <Trackpoint>
            <Time>2021-08-12T14:42:37.000Z</Time>
            <Position>
              <LatitudeDegrees>43.28514953143894672393798828125</LatitudeDegrees>
              <LongitudeDegrees>-2.030322253704071044921875</LongitudeDegrees>
            </Position>
            <AltitudeMeters>141.600006103515625</AltitudeMeters>
            <DistanceMeters>NAN</DistanceMeters>
          </Trackpoint>
          <Trackpoint>
            <Time>2021-08-12T14:42:38.000Z</Time>
            <Position>
              <LatitudeDegrees>43.28513167798519134521484375</LatitudeDegrees>
              <LongitudeDegrees>-2.03031965531408786773681640625</LongitudeDegrees>
            </Position>
            <AltitudeMeters>141.8000030517578125</AltitudeMeters>
            <DistanceMeters>NAN</DistanceMeters>
          </Trackpoint>
          <Trackpoint>
            <Time>2021-08-12T14:42:39.000Z</Time>
            <Position>
              <LatitudeDegrees>43.28511315397918224334716796875</LatitudeDegrees>
              <LongitudeDegrees>-2.0303155481815338134765625</LongitudeDegrees>
            </Position>
            <AltitudeMeters>142</AltitudeMeters>
            <DistanceMeters>NAN</DistanceMeters>
          </Trackpoint>
          <Trackpoint>
            <Time>2021-08-12T14:42:40.000Z</Time>
            <Position>
              <LatitudeDegrees>43.28509471379220485687255859375</LatitudeDegrees>
              <LongitudeDegrees>-2.0303100161254405975341796875</LongitudeDegrees>
            </Position>
            <AltitudeMeters>142.399993896484375</AltitudeMeters>
            <DistanceMeters>NAN</DistanceMeters>
          </Trackpoint>
          <Trackpoint>
            <Time>2021-08-12T14:42:41.000Z</Time>
            <Position>
              <LatitudeDegrees>43.28507593832910060882568359375</LatitudeDegrees>
              <LongitudeDegrees>-2.0303066633641719818115234375</LongitudeDegrees>
            </Position>
            <AltitudeMeters>142.600006103515625</AltitudeMeters>
            <DistanceMeters>NAN</DistanceMeters>
          </Trackpoint>
          <Trackpoint>
            <Time>2021-08-12T14:42:42.000Z</Time>
            <Position>
              <LatitudeDegrees>43.28505783341825008392333984375</LatitudeDegrees>
              <LongitudeDegrees>-2.03029987402260303497314453125</LongitudeDegrees>
            </Position>
            <AltitudeMeters>143</AltitudeMeters>
            <DistanceMeters>NAN</DistanceMeters>
          </Trackpoint>
          <Trackpoint>
            <Time>2021-08-12T14:42:43.000Z</Time>
            <Position>
              <LatitudeDegrees>43.28504023142158985137939453125</LatitudeDegrees>
              <LongitudeDegrees>-2.0302927494049072265625</LongitudeDegrees>
            </Position>
            <AltitudeMeters>143.1999969482421875</AltitudeMeters>
            <DistanceMeters>NAN</DistanceMeters>
          </Trackpoint>
          <Trackpoint>
            <Time>2021-08-12T14:42:44.000Z</Time>
            <Position>
              <LatitudeDegrees>43.28502179123461246490478515625</LatitudeDegrees>
              <LongitudeDegrees>-2.03028939664363861083984375</LongitudeDegrees>
            </Position>
            <AltitudeMeters>143.399993896484375</AltitudeMeters>
            <DistanceMeters>NAN</DistanceMeters>
          </Trackpoint>
          <Trackpoint>
            <Time>2021-08-12T14:42:45.000Z</Time>
            <Position>
              <LatitudeDegrees>43.28500117175281047821044921875</LatitudeDegrees>
              <LongitudeDegrees>-2.03028763644397258758544921875</LongitudeDegrees>
            </Position>
            <AltitudeMeters>143.8000030517578125</AltitudeMeters>
            <DistanceMeters>NAN</DistanceMeters>
          </Trackpoint>
          <Trackpoint>
            <Time>2021-08-12T14:42:46.000Z</Time>
            <Position>
              <LatitudeDegrees>43.2849806360900402069091796875</LatitudeDegrees>
              <LongitudeDegrees>-2.0302868820726871490478515625</LongitudeDegrees>
            </Position>
            <AltitudeMeters>144</AltitudeMeters>
            <DistanceMeters>NAN</DistanceMeters>
          </Trackpoint>
          <Trackpoint>
            <Time>2021-08-12T14:42:47.000Z</Time>
            <Position>
              <LatitudeDegrees>43.2849638722836971282958984375</LatitudeDegrees>
              <LongitudeDegrees>-2.030287049710750579833984375</LongitudeDegrees>
            </Position>
            <AltitudeMeters>144.1999969482421875</AltitudeMeters>
            <DistanceMeters>NAN</DistanceMeters>
          </Trackpoint>
          <Trackpoint>
            <Time>2021-08-12T14:42:48.000Z</Time>
            <Position>
              <LatitudeDegrees>43.2849461026489734649658203125</LatitudeDegrees>
              <LongitudeDegrees>-2.0302885584533214569091796875</LongitudeDegrees>
            </Position>
            <AltitudeMeters>144.1999969482421875</AltitudeMeters>
            <DistanceMeters>NAN</DistanceMeters>
          </Trackpoint>
          <Trackpoint>
            <Time>2021-08-12T14:42:49.000Z</Time>
            <Position>
              <LatitudeDegrees>43.28492690809071063995361328125</LatitudeDegrees>
              <LongitudeDegrees>-2.03028948046267032623291015625</LongitudeDegrees>
            </Position>
            <AltitudeMeters>144.399993896484375</AltitudeMeters>
            <DistanceMeters>NAN</DistanceMeters>
          </Trackpoint>
          <Trackpoint>
            <Time>2021-08-12T14:42:50.000Z</Time>
            <Position>
              <LatitudeDegrees>43.28490880317986011505126953125</LatitudeDegrees>
              <LongitudeDegrees>-2.0302925817668437957763671875</LongitudeDegrees>
            </Position>
            <AltitudeMeters>144.600006103515625</AltitudeMeters>
            <DistanceMeters>NAN</DistanceMeters>
          </Trackpoint>
          <Trackpoint>
            <Time>2021-08-12T14:42:51.000Z</Time>
            <Position>
              <LatitudeDegrees>43.284889943897724151611328125</LatitudeDegrees>
              <LongitudeDegrees>-2.03029551543295383453369140625</LongitudeDegrees>
            </Position>
            <AltitudeMeters>144.8000030517578125</AltitudeMeters>
            <DistanceMeters>NAN</DistanceMeters>
          </Trackpoint>
          <Trackpoint>
            <Time>2021-08-12T14:42:52.000Z</Time>
            <Position>
              <LatitudeDegrees>43.2848699949681758880615234375</LatitudeDegrees>
              <LongitudeDegrees>-2.0302955992519855499267578125</LongitudeDegrees>
            </Position>
            <AltitudeMeters>145</AltitudeMeters>
            <DistanceMeters>NAN</DistanceMeters>
          </Trackpoint>
          <Trackpoint>
            <Time>2021-08-12T14:42:53.000Z</Time>
            <Position>
              <LatitudeDegrees>43.2848505489528179168701171875</LatitudeDegrees>
              <LongitudeDegrees>-2.0302925817668437957763671875</LongitudeDegrees>
            </Position>
            <AltitudeMeters>145.1999969482421875</AltitudeMeters>
            <DistanceMeters>NAN</DistanceMeters>
          </Trackpoint>
          <Trackpoint>
            <Time>2021-08-12T14:42:54.000Z</Time>
            <Position>
              <LatitudeDegrees>43.28483085148036479949951171875</LatitudeDegrees>
              <LongitudeDegrees>-2.0302898995578289031982421875</LongitudeDegrees>
            </Position>
            <AltitudeMeters>145.1999969482421875</AltitudeMeters>
            <DistanceMeters>NAN</DistanceMeters>
          </Trackpoint>
          <Trackpoint>
            <Time>2021-08-12T14:42:55.000Z</Time>
            <Position>
              <LatitudeDegrees>43.284810818731784820556640625</LatitudeDegrees>
              <LongitudeDegrees>-2.030287720263004302978515625</LongitudeDegrees>
            </Position>
            <AltitudeMeters>145.399993896484375</AltitudeMeters>
            <DistanceMeters>NAN</DistanceMeters>
          </Trackpoint>
          <Trackpoint>
            <Time>2021-08-12T14:42:56.000Z</Time>
            <Position>
              <LatitudeDegrees>43.28479061834514141082763671875</LatitudeDegrees>
              <LongitudeDegrees>-2.03028495423495769500732421875</LongitudeDegrees>
            </Position>
            <AltitudeMeters>145.600006103515625</AltitudeMeters>
            <DistanceMeters>NAN</DistanceMeters>
          </Trackpoint>
          <Trackpoint>
            <Time>2021-08-12T14:42:57.000Z</Time>
            <Position>
              <LatitudeDegrees>43.2847687415778636932373046875</LatitudeDegrees>
              <LongitudeDegrees>-2.03028126619756221771240234375</LongitudeDegrees>
            </Position>
            <AltitudeMeters>145.8000030517578125</AltitudeMeters>
            <DistanceMeters>NAN</DistanceMeters>
          </Trackpoint>
          <Trackpoint>
            <Time>2021-08-12T14:42:58.000Z</Time>
            <Position>
              <LatitudeDegrees>43.28474787063896656036376953125</LatitudeDegrees>
              <LongitudeDegrees>-2.03027573414146900177001953125</LongitudeDegrees>
            </Position>
            <AltitudeMeters>145.8000030517578125</AltitudeMeters>
            <DistanceMeters>NAN</DistanceMeters>
          </Trackpoint>
          <Trackpoint>
            <Time>2021-08-12T14:42:59.000Z</Time>
            <Position>
              <LatitudeDegrees>43.28472741879522800445556640625</LatitudeDegrees>
              <LongitudeDegrees>-2.03026852570474147796630859375</LongitudeDegrees>
            </Position>
            <AltitudeMeters>146</AltitudeMeters>
            <DistanceMeters>NAN</DistanceMeters>
          </Trackpoint>
          <Trackpoint>
            <Time>2021-08-12T14:43:00.000Z</Time>
            <Position>
              <LatitudeDegrees>43.28470780514180660247802734375</LatitudeDegrees>
              <LongitudeDegrees>-2.03026299364864826202392578125</LongitudeDegrees>
            </Position>
            <AltitudeMeters>146.1999969482421875</AltitudeMeters>
            <DistanceMeters>NAN</DistanceMeters>
          </Trackpoint>
          <Trackpoint>
            <Time>2021-08-12T14:43:01.000Z</Time>
            <Position>
              <LatitudeDegrees>43.28468819148838520050048828125</LatitudeDegrees>
              <LongitudeDegrees>-2.0302583836019039154052734375</LongitudeDegrees>
            </Position>
            <AltitudeMeters>146.399993896484375</AltitudeMeters>
            <DistanceMeters>NAN</DistanceMeters>
          </Trackpoint>
          <Trackpoint>
            <Time>2021-08-12T14:43:02.000Z</Time>
            <Position>
              <LatitudeDegrees>43.28466958366334438323974609375</LatitudeDegrees>
              <LongitudeDegrees>-2.03025427646934986114501953125</LongitudeDegrees>
            </Position>
            <AltitudeMeters>146.399993896484375</AltitudeMeters>
            <DistanceMeters>NAN</DistanceMeters>
          </Trackpoint>
          <Trackpoint>
            <Time>2021-08-12T14:43:03.000Z</Time>
            <Position>
              <LatitudeDegrees>43.284650556743144989013671875</LatitudeDegrees>
              <LongitudeDegrees>-2.0302479900419712066650390625</LongitudeDegrees>
            </Position>
            <AltitudeMeters>146.600006103515625</AltitudeMeters>
            <DistanceMeters>NAN</DistanceMeters>
          </Trackpoint>
          <Trackpoint>
            <Time>2021-08-12T14:43:04.000Z</Time>
            <Position>
              <LatitudeDegrees>43.284633457660675048828125</LatitudeDegrees>
              <LongitudeDegrees>-2.0302392728626728057861328125</LongitudeDegrees>
            </Position>
            <AltitudeMeters>146.8000030517578125</AltitudeMeters>
            <DistanceMeters>NAN</DistanceMeters>
          </Trackpoint>
          <Trackpoint>
            <Time>2021-08-12T14:43:05.000Z</Time>
            <Position>
              <LatitudeDegrees>43.28461811877787113189697265625</LatitudeDegrees>
              <LongitudeDegrees>-2.03022862784564495086669921875</LongitudeDegrees>
            </Position>
            <AltitudeMeters>146.8000030517578125</AltitudeMeters>
            <DistanceMeters>NAN</DistanceMeters>
          </Trackpoint>
          <Trackpoint>
            <Time>2021-08-12T14:43:06.000Z</Time>
            <Position>
              <LatitudeDegrees>43.2846011035144329071044921875</LatitudeDegrees>
              <LongitudeDegrees>-2.0302178151905536651611328125</LongitudeDegrees>
            </Position>
            <AltitudeMeters>147</AltitudeMeters>
            <DistanceMeters>NAN</DistanceMeters>
          </Trackpoint>
          <Trackpoint>
            <Time>2021-08-12T14:43:07.000Z</Time>
            <Position>
              <LatitudeDegrees>43.28458593226969242095947265625</LatitudeDegrees>
              <LongitudeDegrees>-2.03021085821092128753662109375</LongitudeDegrees>
            </Position>
            <AltitudeMeters>147</AltitudeMeters>
            <DistanceMeters>NAN</DistanceMeters>
          </Trackpoint>
          <Trackpoint>
            <Time>2021-08-12T14:43:08.000Z</Time>
            <Position>
              <LatitudeDegrees>43.28457486815750598907470703125</LatitudeDegrees>
              <LongitudeDegrees>-2.03020364977419376373291015625</LongitudeDegrees>
            </Position>
            <AltitudeMeters>147.1999969482421875</AltitudeMeters>
            <DistanceMeters>NAN</DistanceMeters>
          </Trackpoint>
          <Trackpoint>
            <Time>2021-08-12T14:43:09.000Z</Time>
            <Position>
              <LatitudeDegrees>43.28456531278789043426513671875</LatitudeDegrees>
              <LongitudeDegrees>-2.03019375912845134735107421875</LongitudeDegrees>
            </Position>
            <AltitudeMeters>147.399993896484375</AltitudeMeters>
            <DistanceMeters>NAN</DistanceMeters>
          </Trackpoint>
          <Trackpoint>
            <Time>2021-08-12T14:43:10.000Z</Time>
            <Position>
              <LatitudeDegrees>43.28455810435116291046142578125</LatitudeDegrees>
              <LongitudeDegrees>-2.03018068335950374603271484375</LongitudeDegrees>
            </Position>
            <AltitudeMeters>147.600006103515625</AltitudeMeters>
            <DistanceMeters>NAN</DistanceMeters>
          </Trackpoint>
          <Trackpoint>
            <Time>2021-08-12T14:43:11.000Z</Time>
            <Position>
              <LatitudeDegrees>43.2845524884760379791259765625</LatitudeDegrees>
              <LongitudeDegrees>-2.03016928397119045257568359375</LongitudeDegrees>
            </Position>
            <AltitudeMeters>148</AltitudeMeters>
            <DistanceMeters>NAN</DistanceMeters>
          </Trackpoint>
          <Trackpoint>
            <Time>2021-08-12T14:43:12.000Z</Time>
            <Position>
              <LatitudeDegrees>43.284545280039310455322265625</LatitudeDegrees>
              <LongitudeDegrees>-2.0301584713160991668701171875</LongitudeDegrees>
            </Position>
            <AltitudeMeters>148.1999969482421875</AltitudeMeters>
            <DistanceMeters>NAN</DistanceMeters>
          </Trackpoint>
          <Trackpoint>
            <Time>2021-08-12T14:43:13.000Z</Time>
            <Position>
              <LatitudeDegrees>43.28453379683196544647216796875</LatitudeDegrees>
              <LongitudeDegrees>-2.03014749102294445037841796875</LongitudeDegrees>
            </Position>
            <AltitudeMeters>148.399993896484375</AltitudeMeters>
            <DistanceMeters>NAN</DistanceMeters>
          </Trackpoint>
          <Trackpoint>
            <Time>2021-08-12T14:43:14.000Z</Time>
            <Position>
              <LatitudeDegrees>43.28452256508171558380126953125</LatitudeDegrees>
              <LongitudeDegrees>-2.03013919293880462646484375</LongitudeDegrees>
            </Position>
            <AltitudeMeters>148.600006103515625</AltitudeMeters>
            <DistanceMeters>NAN</DistanceMeters>
          </Trackpoint>
          <Trackpoint>
            <Time>2021-08-12T14:43:15.000Z</Time>
            <Position>
              <LatitudeDegrees>43.28451099805533885955810546875</LatitudeDegrees>
              <LongitudeDegrees>-2.03012921847403049468994140625</LongitudeDegrees>
            </Position>
            <AltitudeMeters>148.600006103515625</AltitudeMeters>
            <DistanceMeters>NAN</DistanceMeters>
          </Trackpoint>
          <Trackpoint>
            <Time>2021-08-12T14:43:16.000Z</Time>
            <Position>
              <LatitudeDegrees>43.2845006883144378662109375</LatitudeDegrees>
              <LongitudeDegrees>-2.03012016601860523223876953125</LongitudeDegrees>
            </Position>
            <AltitudeMeters>148.600006103515625</AltitudeMeters>
            <DistanceMeters>NAN</DistanceMeters>
          </Trackpoint>
          <Trackpoint>
            <Time>2021-08-12T14:43:17.000Z</Time>
            <Position>
              <LatitudeDegrees>43.284488283097743988037109375</LatitudeDegrees>
              <LongitudeDegrees>-2.0301155559718608856201171875</LongitudeDegrees>
            </Position>
            <AltitudeMeters>148.600006103515625</AltitudeMeters>
            <DistanceMeters>NAN</DistanceMeters>
          </Trackpoint>
          <Trackpoint>
            <Time>2021-08-12T14:43:18.000Z</Time>
            <Position>
              <LatitudeDegrees>43.2844730280339717864990234375</LatitudeDegrees>
              <LongitudeDegrees>-2.0301138795912265777587890625</LongitudeDegrees>
            </Position>
            <AltitudeMeters>148.600006103515625</AltitudeMeters>
            <DistanceMeters>NAN</DistanceMeters>
          </Trackpoint>
          <Trackpoint>
            <Time>2021-08-12T14:43:19.000Z</Time>
            <Position>
              <LatitudeDegrees>43.2844552583992481231689453125</LatitudeDegrees>
              <LongitudeDegrees>-2.0301128737628459930419921875</LongitudeDegrees>
            </Position>
            <AltitudeMeters>148.600006103515625</AltitudeMeters>
            <DistanceMeters>NAN</DistanceMeters>
          </Trackpoint>
          <Trackpoint>
            <Time>2021-08-12T14:43:20.000Z</Time>
            <Position>
              <LatitudeDegrees>43.28443790785968303680419921875</LatitudeDegrees>
              <LongitudeDegrees>-2.030111365020275115966796875</LongitudeDegrees>
            </Position>
            <AltitudeMeters>148.600006103515625</AltitudeMeters>
            <DistanceMeters>NAN</DistanceMeters>
          </Trackpoint>
          <Trackpoint>
            <Time>2021-08-12T14:43:21.000Z</Time>
            <Position>
              <LatitudeDegrees>43.28441955149173736572265625</LatitudeDegrees>
              <LongitudeDegrees>-2.03010926954448223114013671875</LongitudeDegrees>
            </Position>
            <AltitudeMeters>148.399993896484375</AltitudeMeters>
            <DistanceMeters>NAN</DistanceMeters>
          </Trackpoint>
          <Trackpoint>
            <Time>2021-08-12T14:43:22.000Z</Time>
            <Position>
              <LatitudeDegrees>43.284402787685394287109375</LatitudeDegrees>
              <LongitudeDegrees>-2.0301048271358013153076171875</LongitudeDegrees>
            </Position>
            <AltitudeMeters>148.1999969482421875</AltitudeMeters>
            <DistanceMeters>NAN</DistanceMeters>
          </Trackpoint>
          <Trackpoint>
            <Time>2021-08-12T14:43:23.000Z</Time>
            <Position>
              <LatitudeDegrees>43.28438811935484409332275390625</LatitudeDegrees>
              <LongitudeDegrees>-2.0300982892513275146484375</LongitudeDegrees>
            </Position>
            <AltitudeMeters>148.1999969482421875</AltitudeMeters>
            <DistanceMeters>NAN</DistanceMeters>
          </Trackpoint>
          <Trackpoint>
            <Time>2021-08-12T14:43:24.000Z</Time>
            <Position>
              <LatitudeDegrees>43.28437437303364276885986328125</LatitudeDegrees>
              <LongitudeDegrees>-2.03008957207202911376953125</LongitudeDegrees>
            </Position>
            <AltitudeMeters>148</AltitudeMeters>
            <DistanceMeters>NAN</DistanceMeters>
          </Trackpoint>
          <Trackpoint>
            <Time>2021-08-12T14:43:25.000Z</Time>
            <Position>
              <LatitudeDegrees>43.28435920178890228271484375</LatitudeDegrees>
              <LongitudeDegrees>-2.03007792122662067413330078125</LongitudeDegrees>
            </Position>
            <AltitudeMeters>147.600006103515625</AltitudeMeters>
            <DistanceMeters>NAN</DistanceMeters>
          </Trackpoint>
          <Trackpoint>
            <Time>2021-08-12T14:43:26.000Z</Time>
            <Position>
              <LatitudeDegrees>43.28434134833514690399169921875</LatitudeDegrees>
              <LongitudeDegrees>-2.03006635420024394989013671875</LongitudeDegrees>
            </Position>
            <AltitudeMeters>147.600006103515625</AltitudeMeters>
            <DistanceMeters>NAN</DistanceMeters>
          </Trackpoint>
          <Trackpoint>
            <Time>2021-08-12T14:43:27.000Z</Time>
            <Position>
              <LatitudeDegrees>43.28432307578623294830322265625</LatitudeDegrees>
              <LongitudeDegrees>-2.03005696646869182586669921875</LongitudeDegrees>
            </Position>
            <AltitudeMeters>147.399993896484375</AltitudeMeters>
            <DistanceMeters>NAN</DistanceMeters>
          </Trackpoint>
          <Trackpoint>
            <Time>2021-08-12T14:43:31.000Z</Time>
            <Position>
              <LatitudeDegrees>43.284250237047672271728515625</LatitudeDegrees>
              <LongitudeDegrees>-2.0300352573394775390625</LongitudeDegrees>
            </Position>
            <AltitudeMeters>147</AltitudeMeters>
            <DistanceMeters>NAN</DistanceMeters>
          </Trackpoint>
          <Trackpoint>
            <Time>2021-08-12T14:43:35.000Z</Time>
            <Position>
              <LatitudeDegrees>43.28417588956654071807861328125</LatitudeDegrees>
              <LongitudeDegrees>-2.0300246961414813995361328125</LongitudeDegrees>
            </Position>
            <AltitudeMeters>146.600006103515625</AltitudeMeters>
            <DistanceMeters>NAN</DistanceMeters>
          </Trackpoint>
          <Trackpoint>
            <Time>2021-08-12T14:43:37.000Z</Time>
            <Position>
              <LatitudeDegrees>43.28414739109575748443603515625</LatitudeDegrees>
              <LongitudeDegrees>-2.03000969253480434417724609375</LongitudeDegrees>
            </Position>
            <AltitudeMeters>146.399993896484375</AltitudeMeters>
            <DistanceMeters>NAN</DistanceMeters>
          </Trackpoint>
          <Trackpoint>
            <Time>2021-08-12T14:43:38.000Z</Time>
            <Position>
              <LatitudeDegrees>43.28413632698357105255126953125</LatitudeDegrees>
              <LongitudeDegrees>-2.03000533394515514373779296875</LongitudeDegrees>
            </Position>
            <AltitudeMeters>146.1999969482421875</AltitudeMeters>
            <DistanceMeters>NAN</DistanceMeters>
          </Trackpoint>
          <Trackpoint>
            <Time>2021-08-12T14:43:39.000Z</Time>
            <Position>
              <LatitudeDegrees>43.28413079492747783660888671875</LatitudeDegrees>
              <LongitudeDegrees>-2.030004747211933135986328125</LongitudeDegrees>
            </Position>
            <AltitudeMeters>146.1999969482421875</AltitudeMeters>
            <DistanceMeters>NAN</DistanceMeters>
          </Trackpoint>
          <Trackpoint>
            <Time>2021-08-12T14:43:40.000Z</Time>
            <Position>
              <LatitudeDegrees>43.28413079492747783660888671875</LatitudeDegrees>
              <LongitudeDegrees>-2.030004747211933135986328125</LongitudeDegrees>
            </Position>
            <AltitudeMeters>146</AltitudeMeters>
            <DistanceMeters>NAN</DistanceMeters>
          </Trackpoint>
          <Trackpoint>
            <Time>2021-08-12T14:43:42.000Z</Time>
            <Position>
              <LatitudeDegrees>43.28413079492747783660888671875</LatitudeDegrees>
              <LongitudeDegrees>-2.030004747211933135986328125</LongitudeDegrees>
            </Position>
            <AltitudeMeters>146</AltitudeMeters>
            <DistanceMeters>NAN</DistanceMeters>
          </Trackpoint>
          <Trackpoint>
            <Time>2021-08-12T14:43:47.000Z</Time>
            <Position>
              <LatitudeDegrees>43.28410933725535869598388671875</LatitudeDegrees>
              <LongitudeDegrees>-2.0300132967531681060791015625</LongitudeDegrees>
            </Position>
            <AltitudeMeters>145.8000030517578125</AltitudeMeters>
            <DistanceMeters>NAN</DistanceMeters>
          </Trackpoint>
          <Trackpoint>
            <Time>2021-08-12T14:43:49.000Z</Time>
            <Position>
              <LatitudeDegrees>43.28407094813883304595947265625</LatitudeDegrees>
              <LongitudeDegrees>-2.030020169913768768310546875</LongitudeDegrees>
            </Position>
            <AltitudeMeters>145.8000030517578125</AltitudeMeters>
            <DistanceMeters>NAN</DistanceMeters>
          </Trackpoint>
          <Trackpoint>
            <Time>2021-08-12T14:43:51.000Z</Time>
            <Position>
              <LatitudeDegrees>43.28403021208941936492919921875</LatitudeDegrees>
              <LongitudeDegrees>-2.03003550879657268524169921875</LongitudeDegrees>
            </Position>
            <AltitudeMeters>145.8000030517578125</AltitudeMeters>
            <DistanceMeters>NAN</DistanceMeters>
          </Trackpoint>
          <Trackpoint>
            <Time>2021-08-12T14:43:56.000Z</Time>
            <Position>
              <LatitudeDegrees>43.28391663730144500732421875</LatitudeDegrees>
              <LongitudeDegrees>-2.03008462674915790557861328125</LongitudeDegrees>
            </Position>
            <AltitudeMeters>146</AltitudeMeters>
            <DistanceMeters>NAN</DistanceMeters>
          </Trackpoint>
          <Trackpoint>
            <Time>2021-08-12T14:44:02.000Z</Time>
            <Position>
              <LatitudeDegrees>43.2837987877428531646728515625</LatitudeDegrees>
              <LongitudeDegrees>-2.0301336608827114105224609375</LongitudeDegrees>
            </Position>
            <AltitudeMeters>146</AltitudeMeters>
            <DistanceMeters>NAN</DistanceMeters>
          </Trackpoint>
          <Trackpoint>
            <Time>2021-08-12T14:44:03.000Z</Time>
            <Position>
              <LatitudeDegrees>43.28378009609878063201904296875</LatitudeDegrees>
              <LongitudeDegrees>-2.03014053404331207275390625</LongitudeDegrees>
            </Position>
            <AltitudeMeters>146</AltitudeMeters>
            <DistanceMeters>NAN</DistanceMeters>
          </Trackpoint>
          <Trackpoint>
            <Time>2021-08-12T14:44:04.000Z</Time>
            <Position>
              <LatitudeDegrees>43.28376349993050098419189453125</LatitudeDegrees>
              <LongitudeDegrees>-2.03014866448938846588134765625</LongitudeDegrees>
            </Position>
            <AltitudeMeters>146</AltitudeMeters>
            <DistanceMeters>NAN</DistanceMeters>
          </Trackpoint>
          <Trackpoint>
            <Time>2021-08-12T14:44:05.000Z</Time>
            <Position>
              <LatitudeDegrees>43.28374765813350677490234375</LatitudeDegrees>
              <LongitudeDegrees>-2.03015604056417942047119140625</LongitudeDegrees>
            </Position>
            <AltitudeMeters>146</AltitudeMeters>
            <DistanceMeters>NAN</DistanceMeters>
          </Trackpoint>
          <Trackpoint>
            <Time>2021-08-12T14:44:06.000Z</Time>
            <Position>
              <LatitudeDegrees>43.2837320677936077117919921875</LatitudeDegrees>
              <LongitudeDegrees>-2.0301608182489871978759765625</LongitudeDegrees>
            </Position>
            <AltitudeMeters>146</AltitudeMeters>
            <DistanceMeters>NAN</DistanceMeters>
          </Trackpoint>
          <Trackpoint>
            <Time>2021-08-12T14:44:07.000Z</Time>
            <Position>
              <LatitudeDegrees>43.2837132923305034637451171875</LatitudeDegrees>
              <LongitudeDegrees>-2.030167691409587860107421875</LongitudeDegrees>
            </Position>
            <AltitudeMeters>146</AltitudeMeters>
            <DistanceMeters>NAN</DistanceMeters>
          </Trackpoint>
          <Trackpoint>
            <Time>2021-08-12T14:44:08.000Z</Time>
            <Position>
              <LatitudeDegrees>43.283692337572574615478515625</LatitudeDegrees>
              <LongitudeDegrees>-2.03017674386501312255859375</LongitudeDegrees>
            </Position>
            <AltitudeMeters>146</AltitudeMeters>
            <DistanceMeters>NAN</DistanceMeters>
          </Trackpoint>
          <Trackpoint>
            <Time>2021-08-12T14:44:12.000Z</Time>
            <Position>
              <LatitudeDegrees>43.28360742889344692230224609375</LatitudeDegrees>
              <LongitudeDegrees>-2.03022108413279056549072265625</LongitudeDegrees>
            </Position>
            <AltitudeMeters>145.8000030517578125</AltitudeMeters>
            <DistanceMeters>NAN</DistanceMeters>
          </Trackpoint>
          <Trackpoint>
            <Time>2021-08-12T14:44:13.000Z</Time>
            <Position>
              <LatitudeDegrees>43.283594436943531036376953125</LatitudeDegrees>
              <LongitudeDegrees>-2.030230723321437835693359375</LongitudeDegrees>
            </Position>
            <AltitudeMeters>145.8000030517578125</AltitudeMeters>
            <DistanceMeters>NAN</DistanceMeters>
          </Trackpoint>
          <Trackpoint>
            <Time>2021-08-12T14:44:14.000Z</Time>
            <Position>
              <LatitudeDegrees>43.28358110971748828887939453125</LatitudeDegrees>
              <LongitudeDegrees>-2.0302402786910533905029296875</LongitudeDegrees>
            </Position>
            <AltitudeMeters>145.8000030517578125</AltitudeMeters>
            <DistanceMeters>NAN</DistanceMeters>
          </Trackpoint>
          <Trackpoint>
            <Time>2021-08-12T14:44:15.000Z</Time>
            <Position>
              <LatitudeDegrees>43.28356954269111156463623046875</LatitudeDegrees>
              <LongitudeDegrees>-2.03024824149906635284423828125</LongitudeDegrees>
            </Position>
            <AltitudeMeters>145.8000030517578125</AltitudeMeters>
            <DistanceMeters>NAN</DistanceMeters>
          </Trackpoint>
          <Trackpoint>
            <Time>2021-08-12T14:44:16.000Z</Time>
            <Position>
              <LatitudeDegrees>43.2835567183792591094970703125</LatitudeDegrees>
              <LongitudeDegrees>-2.0302510075271129608154296875</LongitudeDegrees>
            </Position>
            <AltitudeMeters>145.8000030517578125</AltitudeMeters>
            <DistanceMeters>NAN</DistanceMeters>
          </Trackpoint>
          <Trackpoint>
            <Time>2021-08-12T14:44:17.000Z</Time>
            <Position>
              <LatitudeDegrees>43.283542804419994354248046875</LatitudeDegrees>
              <LongitudeDegrees>-2.0302530191838741302490234375</LongitudeDegrees>
            </Position>
            <AltitudeMeters>145.600006103515625</AltitudeMeters>
            <DistanceMeters>NAN</DistanceMeters>
          </Trackpoint>
          <Trackpoint>
            <Time>2021-08-12T14:44:18.000Z</Time>
            <Position>
              <LatitudeDegrees>43.2835288904607295989990234375</LatitudeDegrees>
              <LongitudeDegrees>-2.030257545411586761474609375</LongitudeDegrees>
            </Position>
            <AltitudeMeters>145.600006103515625</AltitudeMeters>
            <DistanceMeters>NAN</DistanceMeters>
          </Trackpoint>
          <Trackpoint>
            <Time>2021-08-12T14:44:19.000Z</Time>
            <Position>
              <LatitudeDegrees>43.28351656906306743621826171875</LatitudeDegrees>
              <LongitudeDegrees>-2.03026819042861461639404296875</LongitudeDegrees>
            </Position>
            <AltitudeMeters>145.600006103515625</AltitudeMeters>
            <DistanceMeters>NAN</DistanceMeters>
          </Trackpoint>
          <Trackpoint>
            <Time>2021-08-12T14:44:20.000Z</Time>
            <Position>
              <LatitudeDegrees>43.2835081033408641815185546875</LatitudeDegrees>
              <LongitudeDegrees>-2.03027908690273761749267578125</LongitudeDegrees>
            </Position>
            <AltitudeMeters>145.600006103515625</AltitudeMeters>
            <DistanceMeters>NAN</DistanceMeters>
          </Trackpoint>
          <Trackpoint>
            <Time>2021-08-12T14:44:24.000Z</Time>
            <Position>
              <LatitudeDegrees>43.2835047505795955657958984375</LatitudeDegrees>
              <LongitudeDegrees>-2.03028311021625995635986328125</LongitudeDegrees>
            </Position>
            <AltitudeMeters>145.1999969482421875</AltitudeMeters>
            <DistanceMeters>NAN</DistanceMeters>
          </Trackpoint>
          <Trackpoint>
            <Time>2021-08-12T14:45:05.000Z</Time>
            <Position>
              <LatitudeDegrees>43.2835047505795955657958984375</LatitudeDegrees>
              <LongitudeDegrees>-2.03028311021625995635986328125</LongitudeDegrees>
            </Position>
            <AltitudeMeters>145.1999969482421875</AltitudeMeters>
            <DistanceMeters>NAN</DistanceMeters>
          </Trackpoint>
          <Trackpoint>
            <Time>2021-08-12T14:45:33.000Z</Time>
            <Position>
              <LatitudeDegrees>43.283503241837024688720703125</LatitudeDegrees>
              <LongitudeDegrees>-2.030284702777862548828125</LongitudeDegrees>
            </Position>
            <AltitudeMeters>145.399993896484375</AltitudeMeters>
            <DistanceMeters>NAN</DistanceMeters>
          </Trackpoint>
          <Trackpoint>
            <Time>2021-08-12T14:45:34.000Z</Time>
            <Position>
              <LatitudeDegrees>43.2834842987358570098876953125</LatitudeDegrees>
              <LongitudeDegrees>-2.03029836528003215789794921875</LongitudeDegrees>
            </Position>
            <AltitudeMeters>145.399993896484375</AltitudeMeters>
            <DistanceMeters>NAN</DistanceMeters>
          </Trackpoint>
          <Trackpoint>
            <Time>2021-08-12T14:45:36.000Z</Time>
            <Position>
              <LatitudeDegrees>43.28343828208744525909423828125</LatitudeDegrees>
              <LongitudeDegrees>-2.0303187333047389984130859375</LongitudeDegrees>
            </Position>
            <AltitudeMeters>145.1999969482421875</AltitudeMeters>
            <DistanceMeters>NAN</DistanceMeters>
          </Trackpoint>
          <Trackpoint>
            <Time>2021-08-12T14:45:38.000Z</Time>
            <Position>
              <LatitudeDegrees>43.28339201398193836212158203125</LatitudeDegrees>
              <LongitudeDegrees>-2.0303277857601642608642578125</LongitudeDegrees>
            </Position>
            <AltitudeMeters>145.1999969482421875</AltitudeMeters>
            <DistanceMeters>NAN</DistanceMeters>
          </Trackpoint>
          <Trackpoint>
            <Time>2021-08-12T14:45:39.000Z</Time>
            <Position>
              <LatitudeDegrees>43.28337457962334156036376953125</LatitudeDegrees>
              <LongitudeDegrees>-2.0303289592266082763671875</LongitudeDegrees>
            </Position>
            <AltitudeMeters>145</AltitudeMeters>
            <DistanceMeters>NAN</DistanceMeters>
          </Trackpoint>
          <Trackpoint>
            <Time>2021-08-12T14:45:40.000Z</Time>
            <Position>
              <LatitudeDegrees>43.283365778625011444091796875</LatitudeDegrees>
              <LongitudeDegrees>-2.03033122234046459197998046875</LongitudeDegrees>
            </Position>
            <AltitudeMeters>144.8000030517578125</AltitudeMeters>
            <DistanceMeters>NAN</DistanceMeters>
          </Trackpoint>
          <Trackpoint>
            <Time>2021-08-12T14:45:41.000Z</Time>
            <Position>
              <LatitudeDegrees>43.2833642698824405670166015625</LatitudeDegrees>
              <LongitudeDegrees>-2.0303328149020671844482421875</LongitudeDegrees>
            </Position>
            <AltitudeMeters>144.600006103515625</AltitudeMeters>
            <DistanceMeters>NAN</DistanceMeters>
          </Trackpoint>
          <Trackpoint>
            <Time>2021-08-12T14:45:45.000Z</Time>
            <Position>
              <LatitudeDegrees>43.28336276113986968994140625</LatitudeDegrees>
              <LongitudeDegrees>-2.03033440746366977691650390625</LongitudeDegrees>
            </Position>
            <AltitudeMeters>144.1999969482421875</AltitudeMeters>
            <DistanceMeters>NAN</DistanceMeters>
          </Trackpoint>
          <Trackpoint>
            <Time>2021-08-12T14:45:54.000Z</Time>
            <Position>
              <LatitudeDegrees>43.28336276113986968994140625</LatitudeDegrees>
              <LongitudeDegrees>-2.03033440746366977691650390625</LongitudeDegrees>
            </Position>
            <AltitudeMeters>143.600006103515625</AltitudeMeters>
            <DistanceMeters>NAN</DistanceMeters>
          </Trackpoint>
          <Trackpoint>
            <Time>2021-08-12T14:46:30.000Z</Time>
            <Position>
              <LatitudeDegrees>43.28336133621633052825927734375</LatitudeDegrees>
              <LongitudeDegrees>-2.03033524565398693084716796875</LongitudeDegrees>
            </Position>
            <AltitudeMeters>143.600006103515625</AltitudeMeters>
            <DistanceMeters>NAN</DistanceMeters>
          </Trackpoint>
          <Trackpoint>
            <Time>2021-08-12T14:46:33.000Z</Time>
            <Position>
              <LatitudeDegrees>43.2832630164921283721923828125</LatitudeDegrees>
              <LongitudeDegrees>-2.03036491759121417999267578125</LongitudeDegrees>
            </Position>
            <AltitudeMeters>143.600006103515625</AltitudeMeters>
            <DistanceMeters>NAN</DistanceMeters>
          </Trackpoint>
          <Trackpoint>
            <Time>2021-08-12T14:46:36.000Z</Time>
            <Position>
              <LatitudeDegrees>43.2830829732120037078857421875</LatitudeDegrees>
              <LongitudeDegrees>-2.03041336499154567718505859375</LongitudeDegrees>
            </Position>
            <AltitudeMeters>143.1999969482421875</AltitudeMeters>
            <DistanceMeters>NAN</DistanceMeters>
          </Trackpoint>
          <Trackpoint>
            <Time>2021-08-12T14:46:37.000Z</Time>
            <Position>
              <LatitudeDegrees>43.2830078713595867156982421875</LatitudeDegrees>
              <LongitudeDegrees>-2.03042912296950817108154296875</LongitudeDegrees>
            </Position>
            <AltitudeMeters>142.8000030517578125</AltitudeMeters>
            <DistanceMeters>NAN</DistanceMeters>
          </Trackpoint>
          <Trackpoint>
            <Time>2021-08-12T14:46:40.000Z</Time>
            <Position>
              <LatitudeDegrees>43.28275934793055057525634765625</LatitudeDegrees>
              <LongitudeDegrees>-2.03048377297818660736083984375</LongitudeDegrees>
            </Position>
            <AltitudeMeters>142</AltitudeMeters>
            <DistanceMeters>NAN</DistanceMeters>
          </Trackpoint>
          <Trackpoint>
            <Time>2021-08-12T14:46:42.000Z</Time>
            <Position>
              <LatitudeDegrees>43.2825807295739650726318359375</LatitudeDegrees>
              <LongitudeDegrees>-2.03051880933344364166259765625</LongitudeDegrees>
            </Position>
            <AltitudeMeters>140</AltitudeMeters>
            <DistanceMeters>NAN</DistanceMeters>
          </Trackpoint>
          <Trackpoint>
            <Time>2021-08-12T14:46:44.000Z</Time>
            <Position>
              <LatitudeDegrees>43.28240563161671161651611328125</LatitudeDegrees>
              <LongitudeDegrees>-2.03054965473711490631103515625</LongitudeDegrees>
            </Position>
            <AltitudeMeters>138.399993896484375</AltitudeMeters>
            <DistanceMeters>NAN</DistanceMeters>
          </Trackpoint>
          <Trackpoint>
            <Time>2021-08-12T14:46:45.000Z</Time>
            <Position>
              <LatitudeDegrees>43.28232080675661563873291015625</LatitudeDegrees>
              <LongitudeDegrees>-2.03056708909571170806884765625</LongitudeDegrees>
            </Position>
            <AltitudeMeters>137.600006103515625</AltitudeMeters>
            <DistanceMeters>NAN</DistanceMeters>
          </Trackpoint>
          <Trackpoint>
            <Time>2021-08-12T14:46:46.000Z</Time>
            <Position>
              <LatitudeDegrees>43.282237909734249114990234375</LatitudeDegrees>
              <LongitudeDegrees>-2.03058569692075252532958984375</LongitudeDegrees>
            </Position>
            <AltitudeMeters>136.600006103515625</AltitudeMeters>
            <DistanceMeters>NAN</DistanceMeters>
          </Trackpoint>
          <Trackpoint>
            <Time>2021-08-12T14:46:48.000Z</Time>
            <Position>
              <LatitudeDegrees>43.2820679247379302978515625</LatitudeDegrees>
              <LongitudeDegrees>-2.03063112683594226837158203125</LongitudeDegrees>
            </Position>
            <AltitudeMeters>134.8000030517578125</AltitudeMeters>
            <DistanceMeters>NAN</DistanceMeters>
          </Trackpoint>
          <Trackpoint>
            <Time>2021-08-12T14:46:49.000Z</Time>
            <Position>
              <LatitudeDegrees>43.28197731636464595794677734375</LatitudeDegrees>
              <LongitudeDegrees>-2.0306553505361080169677734375</LongitudeDegrees>
            </Position>
            <AltitudeMeters>133.600006103515625</AltitudeMeters>
            <DistanceMeters>NAN</DistanceMeters>
          </Trackpoint>
          <Trackpoint>
            <Time>2021-08-12T14:46:51.000Z</Time>
            <Position>
              <LatitudeDegrees>43.28178872354328632354736328125</LatitudeDegrees>
              <LongitudeDegrees>-2.03072986565530300140380859375</LongitudeDegrees>
            </Position>
            <AltitudeMeters>131.8000030517578125</AltitudeMeters>
            <DistanceMeters>NAN</DistanceMeters>
          </Trackpoint>
          <Trackpoint>
            <Time>2021-08-12T14:46:53.000Z</Time>
            <Position>
              <LatitudeDegrees>43.281597532331943511962890625</LatitudeDegrees>
              <LongitudeDegrees>-2.03084117732942104339599609375</LongitudeDegrees>
            </Position>
            <AltitudeMeters>130</AltitudeMeters>
            <DistanceMeters>NAN</DistanceMeters>
          </Trackpoint>
          <Trackpoint>
            <Time>2021-08-12T14:46:55.000Z</Time>
            <Position>
              <LatitudeDegrees>43.28140474855899810791015625</LatitudeDegrees>
              <LongitudeDegrees>-2.03096657060086727142333984375</LongitudeDegrees>
            </Position>
            <AltitudeMeters>128.600006103515625</AltitudeMeters>
            <DistanceMeters>NAN</DistanceMeters>
          </Trackpoint>
          <Trackpoint>
            <Time>2021-08-12T14:46:56.000Z</Time>
            <Position>
              <LatitudeDegrees>43.28130709938704967498779296875</LatitudeDegrees>
              <LongitudeDegrees>-2.03103261999785900115966796875</LongitudeDegrees>
            </Position>
            <AltitudeMeters>127.1999969482421875</AltitudeMeters>
            <DistanceMeters>NAN</DistanceMeters>
          </Trackpoint>
          <Trackpoint>
            <Time>2021-08-12T14:46:58.000Z</Time>
            <Position>
              <LatitudeDegrees>43.2811128906905651092529296875</LatitudeDegrees>
              <LongitudeDegrees>-2.0311658084392547607421875</LongitudeDegrees>
            </Position>
            <AltitudeMeters>126</AltitudeMeters>
            <DistanceMeters>NAN</DistanceMeters>
          </Trackpoint>
          <Trackpoint>
            <Time>2021-08-12T14:46:59.000Z</Time>
            <Position>
              <LatitudeDegrees>43.28101658262312412261962890625</LatitudeDegrees>
              <LongitudeDegrees>-2.0312310196459293365478515625</LongitudeDegrees>
            </Position>
            <AltitudeMeters>125.40000152587890625</AltitudeMeters>
            <DistanceMeters>NAN</DistanceMeters>
          </Trackpoint>
          <Trackpoint>
            <Time>2021-08-12T14:47:00.000Z</Time>
            <Position>
              <LatitudeDegrees>43.28092169947922229766845703125</LatitudeDegrees>
              <LongitudeDegrees>-2.0312972366809844970703125</LongitudeDegrees>
            </Position>
            <AltitudeMeters>124.40000152587890625</AltitudeMeters>
            <DistanceMeters>NAN</DistanceMeters>
          </Trackpoint>
          <Trackpoint>
            <Time>2021-08-12T14:47:02.000Z</Time>
            <Position>
              <LatitudeDegrees>43.28074903227388858795166015625</LatitudeDegrees>
              <LongitudeDegrees>-2.03143210150301456451416015625</LongitudeDegrees>
            </Position>
            <AltitudeMeters>122.8000030517578125</AltitudeMeters>
            <DistanceMeters>NAN</DistanceMeters>
          </Trackpoint>
          <Trackpoint>
            <Time>2021-08-12T14:47:03.000Z</Time>
            <Position>
              <LatitudeDegrees>43.28066647052764892578125</LatitudeDegrees>
              <LongitudeDegrees>-2.031500078737735748291015625</LongitudeDegrees>
            </Position>
            <AltitudeMeters>122</AltitudeMeters>
            <DistanceMeters>NAN</DistanceMeters>
          </Trackpoint>
          <Trackpoint>
            <Time>2021-08-12T14:47:04.000Z</Time>
            <Position>
              <LatitudeDegrees>43.28058307059109210968017578125</LatitudeDegrees>
              <LongitudeDegrees>-2.03156487084925174713134765625</LongitudeDegrees>
            </Position>
            <AltitudeMeters>121.8000030517578125</AltitudeMeters>
            <DistanceMeters>NAN</DistanceMeters>
          </Trackpoint>
          <Trackpoint>
            <Time>2021-08-12T14:47:05.000Z</Time>
            <Position>
              <LatitudeDegrees>43.28050059266388416290283203125</LatitudeDegrees>
              <LongitudeDegrees>-2.03162924386560916900634765625</LongitudeDegrees>
            </Position>
            <AltitudeMeters>121</AltitudeMeters>
            <DistanceMeters>NAN</DistanceMeters>
          </Trackpoint>
          <Trackpoint>
            <Time>2021-08-12T14:47:06.000Z</Time>
            <Position>
              <LatitudeDegrees>43.280421383678913116455078125</LatitudeDegrees>
              <LongitudeDegrees>-2.0316982269287109375</LongitudeDegrees>
            </Position>
            <AltitudeMeters>120.8000030517578125</AltitudeMeters>
            <DistanceMeters>NAN</DistanceMeters>
          </Trackpoint>
          <Trackpoint>
            <Time>2021-08-12T14:47:07.000Z</Time>
            <Position>
              <LatitudeDegrees>43.28034468926489353179931640625</LatitudeDegrees>
              <LongitudeDegrees>-2.0317731611430644989013671875</LongitudeDegrees>
            </Position>
            <AltitudeMeters>120</AltitudeMeters>
            <DistanceMeters>NAN</DistanceMeters>
          </Trackpoint>
          <Trackpoint>
            <Time>2021-08-12T14:47:09.000Z</Time>
            <Position>
              <LatitudeDegrees>43.28020186163485050201416015625</LatitudeDegrees>
              <LongitudeDegrees>-2.03192529268562793731689453125</LongitudeDegrees>
            </Position>
            <AltitudeMeters>119.1999969482421875</AltitudeMeters>
            <DistanceMeters>NAN</DistanceMeters>
          </Trackpoint>
          <Trackpoint>
            <Time>2021-08-12T14:47:10.000Z</Time>
            <Position>
              <LatitudeDegrees>43.28013338148593902587890625</LatitudeDegrees>
              <LongitudeDegrees>-2.0320004783570766448974609375</LongitudeDegrees>
            </Position>
            <AltitudeMeters>118.59999847412109375</AltitudeMeters>
            <DistanceMeters>NAN</DistanceMeters>
          </Trackpoint>
          <Trackpoint>
            <Time>2021-08-12T14:47:11.000Z</Time>
            <Position>
              <LatitudeDegrees>43.2800628058612346649169921875</LatitudeDegrees>
              <LongitudeDegrees>-2.032071389257907867431640625</LongitudeDegrees>
            </Position>
            <AltitudeMeters>118.40000152587890625</AltitudeMeters>
            <DistanceMeters>NAN</DistanceMeters>
          </Trackpoint>
          <Trackpoint>
            <Time>2021-08-12T14:47:12.000Z</Time>
            <Position>
              <LatitudeDegrees>43.27999047003686428070068359375</LatitudeDegrees>
              <LongitudeDegrees>-2.03213886357843875885009765625</LongitudeDegrees>
            </Position>
            <AltitudeMeters>118</AltitudeMeters>
            <DistanceMeters>NAN</DistanceMeters>
          </Trackpoint>
          <Trackpoint>
            <Time>2021-08-12T14:47:13.000Z</Time>
            <Position>
              <LatitudeDegrees>43.27991612255573272705078125</LatitudeDegrees>
              <LongitudeDegrees>-2.032204158604145050048828125</LongitudeDegrees>
            </Position>
            <AltitudeMeters>117.59999847412109375</AltitudeMeters>
            <DistanceMeters>NAN</DistanceMeters>
          </Trackpoint>
          <Trackpoint>
            <Time>2021-08-12T14:47:14.000Z</Time>
            <Position>
              <LatitudeDegrees>43.27984076924622058868408203125</LatitudeDegrees>
              <LongitudeDegrees>-2.03226425684988498687744140625</LongitudeDegrees>
            </Position>
            <AltitudeMeters>116.8000030517578125</AltitudeMeters>
            <DistanceMeters>NAN</DistanceMeters>
          </Trackpoint>
          <Trackpoint>
            <Time>2021-08-12T14:47:15.000Z</Time>
            <Position>
              <LatitudeDegrees>43.2797657512128353118896484375</LatitudeDegrees>
              <LongitudeDegrees>-2.03232175670564174652099609375</LongitudeDegrees>
            </Position>
            <AltitudeMeters>116.40000152587890625</AltitudeMeters>
            <DistanceMeters>NAN</DistanceMeters>
          </Trackpoint>
          <Trackpoint>
            <Time>2021-08-12T14:47:16.000Z</Time>
            <Position>
              <LatitudeDegrees>43.279691152274608612060546875</LatitudeDegrees>
              <LongitudeDegrees>-2.03237992711365222930908203125</LongitudeDegrees>
            </Position>
            <AltitudeMeters>115.8000030517578125</AltitudeMeters>
            <DistanceMeters>NAN</DistanceMeters>
          </Trackpoint>
          <Trackpoint>
            <Time>2021-08-12T14:47:17.000Z</Time>
            <Position>
              <LatitudeDegrees>43.2796215824782848358154296875</LatitudeDegrees>
              <LongitudeDegrees>-2.03243876807391643524169921875</LongitudeDegrees>
            </Position>
            <AltitudeMeters>115.1999969482421875</AltitudeMeters>
            <DistanceMeters>NAN</DistanceMeters>
          </Trackpoint>
          <Trackpoint>
            <Time>2021-08-12T14:47:19.000Z</Time>
            <Position>
              <LatitudeDegrees>43.2794948481023311614990234375</LatitudeDegrees>
              <LongitudeDegrees>-2.03257354907691478729248046875</LongitudeDegrees>
            </Position>
            <AltitudeMeters>114.59999847412109375</AltitudeMeters>
            <DistanceMeters>NAN</DistanceMeters>
          </Trackpoint>
          <Trackpoint>
            <Time>2021-08-12T14:47:20.000Z</Time>
            <Position>
              <LatitudeDegrees>43.27943860553205013275146484375</LatitudeDegrees>
              <LongitudeDegrees>-2.03264194540679454803466796875</LongitudeDegrees>
            </Position>
            <AltitudeMeters>114.1999969482421875</AltitudeMeters>
            <DistanceMeters>NAN</DistanceMeters>
          </Trackpoint>
          <Trackpoint>
            <Time>2021-08-12T14:47:21.000Z</Time>
            <Position>
              <LatitudeDegrees>43.27937859110534191131591796875</LatitudeDegrees>
              <LongitudeDegrees>-2.03270330093801021575927734375</LongitudeDegrees>
            </Position>
            <AltitudeMeters>113.59999847412109375</AltitudeMeters>
            <DistanceMeters>NAN</DistanceMeters>
          </Trackpoint>
          <Trackpoint>
            <Time>2021-08-12T14:47:22.000Z</Time>
            <Position>
              <LatitudeDegrees>43.27931673265993595123291015625</LatitudeDegrees>
              <LongitudeDegrees>-2.03275837004184722900390625</LongitudeDegrees>
            </Position>
            <AltitudeMeters>113.40000152587890625</AltitudeMeters>
            <DistanceMeters>NAN</DistanceMeters>
          </Trackpoint>
          <Trackpoint>
            <Time>2021-08-12T14:47:23.000Z</Time>
            <Position>
              <LatitudeDegrees>43.27924967743456363677978515625</LatitudeDegrees>
              <LongitudeDegrees>-2.0328074879944324493408203125</LongitudeDegrees>
            </Position>
            <AltitudeMeters>112.1999969482421875</AltitudeMeters>
            <DistanceMeters>NAN</DistanceMeters>
          </Trackpoint>
          <Trackpoint>
            <Time>2021-08-12T14:47:24.000Z</Time>
            <Position>
              <LatitudeDegrees>43.27917893417179584503173828125</LatitudeDegrees>
              <LongitudeDegrees>-2.0328550972044467926025390625</LongitudeDegrees>
            </Position>
            <AltitudeMeters>111</AltitudeMeters>
            <DistanceMeters>NAN</DistanceMeters>
          </Trackpoint>
          <Trackpoint>
            <Time>2021-08-12T14:47:26.000Z</Time>
            <Position>
              <LatitudeDegrees>43.27903568744659423828125</LatitudeDegrees>
              <LongitudeDegrees>-2.0329617150127887725830078125</LongitudeDegrees>
            </Position>
            <AltitudeMeters>108.8000030517578125</AltitudeMeters>
            <DistanceMeters>NAN</DistanceMeters>
          </Trackpoint>
          <Trackpoint>
            <Time>2021-08-12T14:47:28.000Z</Time>
            <Position>
              <LatitudeDegrees>43.2789017446339130401611328125</LatitudeDegrees>
              <LongitudeDegrees>-2.0330817438662052154541015625</LongitudeDegrees>
            </Position>
            <AltitudeMeters>106.8000030517578125</AltitudeMeters>
            <DistanceMeters>NAN</DistanceMeters>
          </Trackpoint>
          <Trackpoint>
            <Time>2021-08-12T14:47:29.000Z</Time>
            <Position>
              <LatitudeDegrees>43.278832845389842987060546875</LatitudeDegrees>
              <LongitudeDegrees>-2.03314033336937427520751953125</LongitudeDegrees>
            </Position>
            <AltitudeMeters>105.8000030517578125</AltitudeMeters>
            <DistanceMeters>NAN</DistanceMeters>
          </Trackpoint>
          <Trackpoint>
            <Time>2021-08-12T14:47:30.000Z</Time>
            <Position>
              <LatitudeDegrees>43.27875615097582340240478515625</LatitudeDegrees>
              <LongitudeDegrees>-2.03318961896002292633056640625</LongitudeDegrees>
            </Position>
            <AltitudeMeters>103.8000030517578125</AltitudeMeters>
            <DistanceMeters>NAN</DistanceMeters>
          </Trackpoint>
          <Trackpoint>
            <Time>2021-08-12T14:47:31.000Z</Time>
            <Position>
              <LatitudeDegrees>43.2786720804870128631591796875</LatitudeDegrees>
              <LongitudeDegrees>-2.03321979381144046783447265625</LongitudeDegrees>
            </Position>
            <AltitudeMeters>102.1999969482421875</AltitudeMeters>
            <DistanceMeters>NAN</DistanceMeters>
          </Trackpoint>
          <Trackpoint>
            <Time>2021-08-12T14:47:32.000Z</Time>
            <Position>
              <LatitudeDegrees>43.2785818912088871002197265625</LatitudeDegrees>
              <LongitudeDegrees>-2.03323203139007091522216796875</LongitudeDegrees>
            </Position>
            <AltitudeMeters>101.40000152587890625</AltitudeMeters>
            <DistanceMeters>NAN</DistanceMeters>
          </Trackpoint>
          <Trackpoint>
            <Time>2021-08-12T14:47:33.000Z</Time>
            <Position>
              <LatitudeDegrees>43.27848725952208042144775390625</LatitudeDegrees>
              <LongitudeDegrees>-2.03323203139007091522216796875</LongitudeDegrees>
            </Position>
            <AltitudeMeters>99.40000152587890625</AltitudeMeters>
            <DistanceMeters>NAN</DistanceMeters>
          </Trackpoint>
          <Trackpoint>
            <Time>2021-08-12T14:47:34.000Z</Time>
            <Position>
              <LatitudeDegrees>43.27839304693043231964111328125</LatitudeDegrees>
              <LongitudeDegrees>-2.033229768276214599609375</LongitudeDegrees>
            </Position>
            <AltitudeMeters>98.59999847412109375</AltitudeMeters>
            <DistanceMeters>NAN</DistanceMeters>
          </Trackpoint>
          <Trackpoint>
            <Time>2021-08-12T14:47:35.000Z</Time>
            <Position>
              <LatitudeDegrees>43.27830201946198940277099609375</LatitudeDegrees>
              <LongitudeDegrees>-2.033230103552341461181640625</LongitudeDegrees>
            </Position>
            <AltitudeMeters>96.59999847412109375</AltitudeMeters>
            <DistanceMeters>NAN</DistanceMeters>
          </Trackpoint>
          <Trackpoint>
            <Time>2021-08-12T14:47:36.000Z</Time>
            <Position>
              <LatitudeDegrees>43.278212249279022216796875</LatitudeDegrees>
              <LongitudeDegrees>-2.03323203139007091522216796875</LongitudeDegrees>
            </Position>
            <AltitudeMeters>95.8000030517578125</AltitudeMeters>
            <DistanceMeters>NAN</DistanceMeters>
          </Trackpoint>
          <Trackpoint>
            <Time>2021-08-12T14:47:37.000Z</Time>
            <Position>
              <LatitudeDegrees>43.27812373638153076171875</LatitudeDegrees>
              <LongitudeDegrees>-2.03323689289391040802001953125</LongitudeDegrees>
            </Position>
            <AltitudeMeters>93.8000030517578125</AltitudeMeters>
            <DistanceMeters>NAN</DistanceMeters>
          </Trackpoint>
          <Trackpoint>
            <Time>2021-08-12T14:47:38.000Z</Time>
            <Position>
              <LatitudeDegrees>43.27803455293178558349609375</LatitudeDegrees>
              <LongitudeDegrees>-2.03324787318706512451171875</LongitudeDegrees>
            </Position>
            <AltitudeMeters>91.8000030517578125</AltitudeMeters>
            <DistanceMeters>NAN</DistanceMeters>
          </Trackpoint>
          <Trackpoint>
            <Time>2021-08-12T14:47:39.000Z</Time>
            <Position>
              <LatitudeDegrees>43.27794612385332584381103515625</LatitudeDegrees>
              <LongitudeDegrees>-2.033260948956012725830078125</LongitudeDegrees>
            </Position>
            <AltitudeMeters>90.8000030517578125</AltitudeMeters>
            <DistanceMeters>NAN</DistanceMeters>
          </Trackpoint>
          <Trackpoint>
            <Time>2021-08-12T14:47:40.000Z</Time>
            <Position>
              <LatitudeDegrees>43.2778607122600078582763671875</LatitudeDegrees>
              <LongitudeDegrees>-2.03327695839107036590576171875</LongitudeDegrees>
            </Position>
            <AltitudeMeters>88.59999847412109375</AltitudeMeters>
            <DistanceMeters>NAN</DistanceMeters>
          </Trackpoint>
          <Trackpoint>
            <Time>2021-08-12T14:47:41.000Z</Time>
            <Position>
              <LatitudeDegrees>43.27777781523764133453369140625</LatitudeDegrees>
              <LongitudeDegrees>-2.0332909561693668365478515625</LongitudeDegrees>
            </Position>
            <AltitudeMeters>87.40000152587890625</AltitudeMeters>
            <DistanceMeters>NAN</DistanceMeters>
          </Trackpoint>
          <Trackpoint>
            <Time>2021-08-12T14:47:42.000Z</Time>
            <Position>
              <LatitudeDegrees>43.27768946997821331024169921875</LatitudeDegrees>
              <LongitudeDegrees>-2.0332909561693668365478515625</LongitudeDegrees>
            </Position>
            <AltitudeMeters>85.40000152587890625</AltitudeMeters>
            <DistanceMeters>NAN</DistanceMeters>
          </Trackpoint>
          <Trackpoint>
            <Time>2021-08-12T14:47:43.000Z</Time>
            <Position>
              <LatitudeDegrees>43.27759827487170696258544921875</LatitudeDegrees>
              <LongitudeDegrees>-2.03325918875634670257568359375</LongitudeDegrees>
            </Position>
            <AltitudeMeters>84</AltitudeMeters>
            <DistanceMeters>NAN</DistanceMeters>
          </Trackpoint>
          <Trackpoint>
            <Time>2021-08-12T14:47:44.000Z</Time>
            <Position>
              <LatitudeDegrees>43.2775133661925792694091796875</LatitudeDegrees>
              <LongitudeDegrees>-2.03319028951227664947509765625</LongitudeDegrees>
            </Position>
            <AltitudeMeters>81.8000030517578125</AltitudeMeters>
            <DistanceMeters>NAN</DistanceMeters>
          </Trackpoint>
          <Trackpoint>
            <Time>2021-08-12T14:47:45.000Z</Time>
            <Position>
              <LatitudeDegrees>43.27743709087371826171875</LatitudeDegrees>
              <LongitudeDegrees>-2.03309834003448486328125</LongitudeDegrees>
            </Position>
            <AltitudeMeters>79.8000030517578125</AltitudeMeters>
            <DistanceMeters>NAN</DistanceMeters>
          </Trackpoint>
          <Trackpoint>
            <Time>2021-08-12T14:47:46.000Z</Time>
            <Position>
              <LatitudeDegrees>43.27737162820994853973388671875</LatitudeDegrees>
              <LongitudeDegrees>-2.032999098300933837890625</LongitudeDegrees>
            </Position>
            <AltitudeMeters>78.59999847412109375</AltitudeMeters>
            <DistanceMeters>NAN</DistanceMeters>
          </Trackpoint>
          <Trackpoint>
            <Time>2021-08-12T14:47:47.000Z</Time>
            <Position>
              <LatitudeDegrees>43.27730893157422542572021484375</LatitudeDegrees>
              <LongitudeDegrees>-2.03289809636771678924560546875</LongitudeDegrees>
            </Position>
            <AltitudeMeters>76.40000152587890625</AltitudeMeters>
            <DistanceMeters>NAN</DistanceMeters>
          </Trackpoint>
          <Trackpoint>
            <Time>2021-08-12T14:47:48.000Z</Time>
            <Position>
              <LatitudeDegrees>43.27724740840494632720947265625</LatitudeDegrees>
              <LongitudeDegrees>-2.0327960886061191558837890625</LongitudeDegrees>
            </Position>
            <AltitudeMeters>75.1999969482421875</AltitudeMeters>
            <DistanceMeters>NAN</DistanceMeters>
          </Trackpoint>
          <Trackpoint>
            <Time>2021-08-12T14:47:49.000Z</Time>
            <Position>
              <LatitudeDegrees>43.2771836221218109130859375</LatitudeDegrees>
              <LongitudeDegrees>-2.03269399702548980712890625</LongitudeDegrees>
            </Position>
            <AltitudeMeters>73.40000152587890625</AltitudeMeters>
            <DistanceMeters>NAN</DistanceMeters>
          </Trackpoint>
          <Trackpoint>
            <Time>2021-08-12T14:47:51.000Z</Time>
            <Position>
              <LatitudeDegrees>43.27705982141196727752685546875</LatitudeDegrees>
              <LongitudeDegrees>-2.03248905949294567108154296875</LongitudeDegrees>
            </Position>
            <AltitudeMeters>70.1999969482421875</AltitudeMeters>
            <DistanceMeters>NAN</DistanceMeters>
          </Trackpoint>
          <Trackpoint>
            <Time>2021-08-12T14:47:52.000Z</Time>
            <Position>
              <LatitudeDegrees>43.27700282447040081024169921875</LatitudeDegrees>
              <LongitudeDegrees>-2.03239048831164836883544921875</LongitudeDegrees>
            </Position>
            <AltitudeMeters>68.40000152587890625</AltitudeMeters>
            <DistanceMeters>NAN</DistanceMeters>
          </Trackpoint>
          <Trackpoint>
            <Time>2021-08-12T14:47:53.000Z</Time>
            <Position>
              <LatitudeDegrees>43.27694465406239032745361328125</LatitudeDegrees>
              <LongitudeDegrees>-2.032296694815158843994140625</LongitudeDegrees>
            </Position>
            <AltitudeMeters>67.59999847412109375</AltitudeMeters>
            <DistanceMeters>NAN</DistanceMeters>
          </Trackpoint>
          <Trackpoint>
            <Time>2021-08-12T14:47:54.000Z</Time>
            <Position>
              <LatitudeDegrees>43.2768874056637287139892578125</LatitudeDegrees>
              <LongitudeDegrees>-2.0322080142796039581298828125</LongitudeDegrees>
            </Position>
            <AltitudeMeters>65</AltitudeMeters>
            <DistanceMeters>NAN</DistanceMeters>
          </Trackpoint>
          <Trackpoint>
            <Time>2021-08-12T14:47:55.000Z</Time>
            <Position>
              <LatitudeDegrees>43.27683300711214542388916015625</LatitudeDegrees>
              <LongitudeDegrees>-2.03212327323853969573974609375</LongitudeDegrees>
            </Position>
            <AltitudeMeters>64</AltitudeMeters>
            <DistanceMeters>NAN</DistanceMeters>
          </Trackpoint>
          <Trackpoint>
            <Time>2021-08-12T14:47:56.000Z</Time>
            <Position>
              <LatitudeDegrees>43.276783637702465057373046875</LatitudeDegrees>
              <LongitudeDegrees>-2.0320407114923000335693359375</LongitudeDegrees>
            </Position>
            <AltitudeMeters>62.40000152587890625</AltitudeMeters>
            <DistanceMeters>NAN</DistanceMeters>
          </Trackpoint>
          <Trackpoint>
            <Time>2021-08-12T14:47:57.000Z</Time>
            <Position>
              <LatitudeDegrees>43.2767392136156558990478515625</LatitudeDegrees>
              <LongitudeDegrees>-2.0319568924605846405029296875</LongitudeDegrees>
            </Position>
            <AltitudeMeters>61.59999847412109375</AltitudeMeters>
            <DistanceMeters>NAN</DistanceMeters>
          </Trackpoint>
          <Trackpoint>
            <Time>2021-08-12T14:47:58.000Z</Time>
            <Position>
              <LatitudeDegrees>43.27670107595622539520263671875</LatitudeDegrees>
              <LongitudeDegrees>-2.03187198378145694732666015625</LongitudeDegrees>
            </Position>
            <AltitudeMeters>60.200000762939453125</AltitudeMeters>
            <DistanceMeters>NAN</DistanceMeters>
          </Trackpoint>
          <Trackpoint>
            <Time>2021-08-12T14:47:59.000Z</Time>
            <Position>
              <LatitudeDegrees>43.27666050754487514495849609375</LatitudeDegrees>
              <LongitudeDegrees>-2.03178615309298038482666015625</LongitudeDegrees>
            </Position>
            <AltitudeMeters>59</AltitudeMeters>
            <DistanceMeters>NAN</DistanceMeters>
          </Trackpoint>
          <Trackpoint>
            <Time>2021-08-12T14:48:00.000Z</Time>
            <Position>
              <LatitudeDegrees>43.27662144787609577178955078125</LatitudeDegrees>
              <LongitudeDegrees>-2.03170292079448699951171875</LongitudeDegrees>
            </Position>
            <AltitudeMeters>58</AltitudeMeters>
            <DistanceMeters>NAN</DistanceMeters>
          </Trackpoint>
          <Trackpoint>
            <Time>2021-08-12T14:48:01.000Z</Time>
            <Position>
              <LatitudeDegrees>43.2765839807689189910888671875</LatitudeDegrees>
              <LongitudeDegrees>-2.03162019141018390655517578125</LongitudeDegrees>
            </Position>
            <AltitudeMeters>56.799999237060546875</AltitudeMeters>
            <DistanceMeters>NAN</DistanceMeters>
          </Trackpoint>
          <Trackpoint>
            <Time>2021-08-12T14:48:02.000Z</Time>
            <Position>
              <LatitudeDegrees>43.2765477709472179412841796875</LatitudeDegrees>
              <LongitudeDegrees>-2.0315381325781345367431640625</LongitudeDegrees>
            </Position>
            <AltitudeMeters>56.40000152587890625</AltitudeMeters>
            <DistanceMeters>NAN</DistanceMeters>
          </Trackpoint>
          <Trackpoint>
            <Time>2021-08-12T14:48:03.000Z</Time>
            <Position>
              <LatitudeDegrees>43.27651374042034149169921875</LatitudeDegrees>
              <LongitudeDegrees>-2.0314586721360683441162109375</LongitudeDegrees>
            </Position>
            <AltitudeMeters>55.200000762939453125</AltitudeMeters>
            <DistanceMeters>NAN</DistanceMeters>
          </Trackpoint>
          <Trackpoint>
            <Time>2021-08-12T14:48:04.000Z</Time>
            <Position>
              <LatitudeDegrees>43.2764803804457187652587890625</LatitudeDegrees>
              <LongitudeDegrees>-2.03138130716979503631591796875</LongitudeDegrees>
            </Position>
            <AltitudeMeters>54.59999847412109375</AltitudeMeters>
            <DistanceMeters>NAN</DistanceMeters>
          </Trackpoint>
          <Trackpoint>
            <Time>2021-08-12T14:48:05.000Z</Time>
            <Position>
              <LatitudeDegrees>43.2764438353478908538818359375</LatitudeDegrees>
              <LongitudeDegrees>-2.03130704350769519805908203125</LongitudeDegrees>
            </Position>
            <AltitudeMeters>53.59999847412109375</AltitudeMeters>
            <DistanceMeters>NAN</DistanceMeters>
          </Trackpoint>
          <Trackpoint>
            <Time>2021-08-12T14:48:06.000Z</Time>
            <Position>
              <LatitudeDegrees>43.27640653587877750396728515625</LatitudeDegrees>
              <LongitudeDegrees>-2.0312434248626232147216796875</LongitudeDegrees>
            </Position>
            <AltitudeMeters>52.799999237060546875</AltitudeMeters>
            <DistanceMeters>NAN</DistanceMeters>
          </Trackpoint>
          <Trackpoint>
            <Time>2021-08-12T14:48:07.000Z</Time>
            <Position>
              <LatitudeDegrees>43.2763680629432201385498046875</LatitudeDegrees>
              <LongitudeDegrees>-2.03118952922523021697998046875</LongitudeDegrees>
            </Position>
            <AltitudeMeters>52.200000762939453125</AltitudeMeters>
            <DistanceMeters>NAN</DistanceMeters>
          </Trackpoint>
          <Trackpoint>
            <Time>2021-08-12T14:48:08.000Z</Time>
            <Position>
              <LatitudeDegrees>43.27632137574255466461181640625</LatitudeDegrees>
              <LongitudeDegrees>-2.03114636242389678955078125</LongitudeDegrees>
            </Position>
            <AltitudeMeters>51</AltitudeMeters>
            <DistanceMeters>NAN</DistanceMeters>
          </Trackpoint>
          <Trackpoint>
            <Time>2021-08-12T14:48:09.000Z</Time>
            <Position>
              <LatitudeDegrees>43.276268653571605682373046875</LatitudeDegrees>
              <LongitudeDegrees>-2.03111627139151096343994140625</LongitudeDegrees>
            </Position>
            <AltitudeMeters>50.40000152587890625</AltitudeMeters>
            <DistanceMeters>NAN</DistanceMeters>
          </Trackpoint>
          <Trackpoint>
            <Time>2021-08-12T14:48:10.000Z</Time>
            <Position>
              <LatitudeDegrees>43.27621609903872013092041015625</LatitudeDegrees>
              <LongitudeDegrees>-2.03109674155712127685546875</LongitudeDegrees>
            </Position>
            <AltitudeMeters>49.200000762939453125</AltitudeMeters>
            <DistanceMeters>NAN</DistanceMeters>
          </Trackpoint>
          <Trackpoint>
            <Time>2021-08-12T14:48:11.000Z</Time>
            <Position>
              <LatitudeDegrees>43.27616446651518344879150390625</LatitudeDegrees>
              <LongitudeDegrees>-2.03108106739819049835205078125</LongitudeDegrees>
            </Position>
            <AltitudeMeters>48.799999237060546875</AltitudeMeters>
            <DistanceMeters>NAN</DistanceMeters>
          </Trackpoint>
          <Trackpoint>
            <Time>2021-08-12T14:48:12.000Z</Time>
            <Position>
              <LatitudeDegrees>43.276114426553249359130859375</LatitudeDegrees>
              <LongitudeDegrees>-2.0310620404779911041259765625</LongitudeDegrees>
            </Position>
            <AltitudeMeters>47.799999237060546875</AltitudeMeters>
            <DistanceMeters>NAN</DistanceMeters>
          </Trackpoint>
          <Trackpoint>
            <Time>2021-08-12T14:48:13.000Z</Time>
            <Position>
              <LatitudeDegrees>43.2760676555335521697998046875</LatitudeDegrees>
              <LongitudeDegrees>-2.03104116953909397125244140625</LongitudeDegrees>
            </Position>
            <AltitudeMeters>46.799999237060546875</AltitudeMeters>
            <DistanceMeters>NAN</DistanceMeters>
          </Trackpoint>
          <Trackpoint>
            <Time>2021-08-12T14:48:14.000Z</Time>
            <Position>
              <LatitudeDegrees>43.2760274223983287811279296875</LatitudeDegrees>
              <LongitudeDegrees>-2.03100915066897869110107421875</LongitudeDegrees>
            </Position>
            <AltitudeMeters>46.40000152587890625</AltitudeMeters>
            <DistanceMeters>NAN</DistanceMeters>
          </Trackpoint>
          <Trackpoint>
            <Time>2021-08-12T14:48:15.000Z</Time>
            <Position>
              <LatitudeDegrees>43.2759927213191986083984375</LatitudeDegrees>
              <LongitudeDegrees>-2.03097310848534107208251953125</LongitudeDegrees>
            </Position>
            <AltitudeMeters>45.59999847412109375</AltitudeMeters>
            <DistanceMeters>NAN</DistanceMeters>
          </Trackpoint>
          <Trackpoint>
            <Time>2021-08-12T14:48:16.000Z</Time>
            <Position>
              <LatitudeDegrees>43.27595693059265613555908203125</LatitudeDegrees>
              <LongitudeDegrees>-2.03092499636113643646240234375</LongitudeDegrees>
            </Position>
            <AltitudeMeters>45.200000762939453125</AltitudeMeters>
            <DistanceMeters>NAN</DistanceMeters>
          </Trackpoint>
          <Trackpoint>
            <Time>2021-08-12T14:48:17.000Z</Time>
            <Position>
              <LatitudeDegrees>43.27593304216861724853515625</LatitudeDegrees>
              <LongitudeDegrees>-2.0308742858469486236572265625</LongitudeDegrees>
            </Position>
            <AltitudeMeters>44.200000762939453125</AltitudeMeters>
            <DistanceMeters>NAN</DistanceMeters>
          </Trackpoint>
          <Trackpoint>
            <Time>2021-08-12T14:48:18.000Z</Time>
            <Position>
              <LatitudeDegrees>43.27592709101736545562744140625</LatitudeDegrees>
              <LongitudeDegrees>-2.03081703744828701019287109375</LongitudeDegrees>
            </Position>
            <AltitudeMeters>43.40000152587890625</AltitudeMeters>
            <DistanceMeters>NAN</DistanceMeters>
          </Trackpoint>
          <Trackpoint>
            <Time>2021-08-12T14:48:19.000Z</Time>
            <Position>
              <LatitudeDegrees>43.27594150789082050323486328125</LatitudeDegrees>
              <LongitudeDegrees>-2.03077915124595165252685546875</LongitudeDegrees>
            </Position>
            <AltitudeMeters>43</AltitudeMeters>
            <DistanceMeters>NAN</DistanceMeters>
          </Trackpoint>
          <Trackpoint>
            <Time>2021-08-12T14:48:21.000Z</Time>
            <Position>
              <LatitudeDegrees>43.2760143466293811798095703125</LatitudeDegrees>
              <LongitudeDegrees>-2.03069147653877735137939453125</LongitudeDegrees>
            </Position>
            <AltitudeMeters>41.799999237060546875</AltitudeMeters>
            <DistanceMeters>NAN</DistanceMeters>
          </Trackpoint>
          <Trackpoint>
            <Time>2021-08-12T14:48:24.000Z</Time>
            <Position>
              <LatitudeDegrees>43.276149965822696685791015625</LatitudeDegrees>
              <LongitudeDegrees>-2.03067890368402004241943359375</LongitudeDegrees>
            </Position>
            <AltitudeMeters>40.40000152587890625</AltitudeMeters>
            <DistanceMeters>NAN</DistanceMeters>
          </Trackpoint>
          <Trackpoint>
            <Time>2021-08-12T14:48:25.000Z</Time>
            <Position>
              <LatitudeDegrees>43.27619615010917186737060546875</LatitudeDegrees>
              <LongitudeDegrees>-2.03065023757517337799072265625</LongitudeDegrees>
            </Position>
            <AltitudeMeters>39.40000152587890625</AltitudeMeters>
            <DistanceMeters>NAN</DistanceMeters>
          </Trackpoint>
          <Trackpoint>
            <Time>2021-08-12T14:48:26.000Z</Time>
            <Position>
              <LatitudeDegrees>43.27622582204639911651611328125</LatitudeDegrees>
              <LongitudeDegrees>-2.03060614876449108123779296875</LongitudeDegrees>
            </Position>
            <AltitudeMeters>39.200000762939453125</AltitudeMeters>
            <DistanceMeters>NAN</DistanceMeters>
          </Trackpoint>
          <Trackpoint>
            <Time>2021-08-12T14:48:27.000Z</Time>
            <Position>
              <LatitudeDegrees>43.276241831481456756591796875</LatitudeDegrees>
              <LongitudeDegrees>-2.03056222759187221527099609375</LongitudeDegrees>
            </Position>
            <AltitudeMeters>38.40000152587890625</AltitudeMeters>
            <DistanceMeters>NAN</DistanceMeters>
          </Trackpoint>
          <Trackpoint>
            <Time>2021-08-12T14:48:28.000Z</Time>
            <Position>
              <LatitudeDegrees>43.27624845318496227264404296875</LatitudeDegrees>
              <LongitudeDegrees>-2.03051947988569736480712890625</LongitudeDegrees>
            </Position>
            <AltitudeMeters>38</AltitudeMeters>
            <DistanceMeters>NAN</DistanceMeters>
          </Trackpoint>
          <Trackpoint>
            <Time>2021-08-12T14:48:29.000Z</Time>
            <Position>
              <LatitudeDegrees>43.276249207556247711181640625</LatitudeDegrees>
              <LongitudeDegrees>-2.0304898917675018310546875</LongitudeDegrees>
            </Position>
            <AltitudeMeters>37.40000152587890625</AltitudeMeters>
            <DistanceMeters>NAN</DistanceMeters>
          </Trackpoint>
          <Trackpoint>
            <Time>2021-08-12T14:48:30.000Z</Time>
            <Position>
              <LatitudeDegrees>43.276247866451740264892578125</LatitudeDegrees>
              <LongitudeDegrees>-2.03044873662292957305908203125</LongitudeDegrees>
            </Position>
            <AltitudeMeters>37.200000762939453125</AltitudeMeters>
            <DistanceMeters>NAN</DistanceMeters>
          </Trackpoint>
          <Trackpoint>
            <Time>2021-08-12T14:48:31.000Z</Time>
            <Position>
              <LatitudeDegrees>43.27624686062335968017578125</LatitudeDegrees>
              <LongitudeDegrees>-2.0304095931351184844970703125</LongitudeDegrees>
            </Position>
            <AltitudeMeters>36.59999847412109375</AltitudeMeters>
            <DistanceMeters>NAN</DistanceMeters>
          </Trackpoint>
          <Trackpoint>
            <Time>2021-08-12T14:48:33.000Z</Time>
            <Position>
              <LatitudeDegrees>43.27625758945941925048828125</LatitudeDegrees>
              <LongitudeDegrees>-2.0303197391331195831298828125</LongitudeDegrees>
            </Position>
            <AltitudeMeters>35.59999847412109375</AltitudeMeters>
            <DistanceMeters>NAN</DistanceMeters>
          </Trackpoint>
          <Trackpoint>
            <Time>2021-08-12T14:48:34.000Z</Time>
            <Position>
              <LatitudeDegrees>43.2762743532657623291015625</LatitudeDegrees>
              <LongitudeDegrees>-2.0302560366690158843994140625</LongitudeDegrees>
            </Position>
            <AltitudeMeters>35.40000152587890625</AltitudeMeters>
            <DistanceMeters>NAN</DistanceMeters>
          </Trackpoint>
          <Trackpoint>
            <Time>2021-08-12T14:48:35.000Z</Time>
            <Position>
              <LatitudeDegrees>43.27629405073821544647216796875</LatitudeDegrees>
              <LongitudeDegrees>-2.03020934946835041046142578125</LongitudeDegrees>
            </Position>
            <AltitudeMeters>35.200000762939453125</AltitudeMeters>
            <DistanceMeters>NAN</DistanceMeters>
          </Trackpoint>
          <Trackpoint>
            <Time>2021-08-12T14:48:36.000Z</Time>
            <Position>
              <LatitudeDegrees>43.276314921677112579345703125</LatitudeDegrees>
              <LongitudeDegrees>-2.0301635004580020904541015625</LongitudeDegrees>
            </Position>
            <AltitudeMeters>35</AltitudeMeters>
            <DistanceMeters>NAN</DistanceMeters>
          </Trackpoint>
          <Trackpoint>
            <Time>2021-08-12T14:48:37.000Z</Time>
            <Position>
              <LatitudeDegrees>43.2763331942260265350341796875</LatitudeDegrees>
              <LongitudeDegrees>-2.0301108621060848236083984375</LongitudeDegrees>
            </Position>
            <AltitudeMeters>34.799999237060546875</AltitudeMeters>
            <DistanceMeters>NAN</DistanceMeters>
          </Trackpoint>
          <Trackpoint>
            <Time>2021-08-12T14:48:38.000Z</Time>
            <Position>
              <LatitudeDegrees>43.27634316869080066680908203125</LatitudeDegrees>
              <LongitudeDegrees>-2.03006400726735591888427734375</LongitudeDegrees>
            </Position>
            <AltitudeMeters>34.40000152587890625</AltitudeMeters>
            <DistanceMeters>NAN</DistanceMeters>
          </Trackpoint>
          <Trackpoint>
            <Time>2021-08-12T14:48:39.000Z</Time>
            <Position>
              <LatitudeDegrees>43.276346437633037567138671875</LatitudeDegrees>
              <LongitudeDegrees>-2.0300044119358062744140625</LongitudeDegrees>
            </Position>
            <AltitudeMeters>34</AltitudeMeters>
            <DistanceMeters>NAN</DistanceMeters>
          </Trackpoint>
          <Trackpoint>
            <Time>2021-08-12T14:48:40.000Z</Time>
            <Position>
              <LatitudeDegrees>43.2763422466814517974853515625</LatitudeDegrees>
              <LongitudeDegrees>-2.02994079329073429107666015625</LongitudeDegrees>
            </Position>
            <AltitudeMeters>33.799999237060546875</AltitudeMeters>
            <DistanceMeters>NAN</DistanceMeters>
          </Trackpoint>
          <Trackpoint>
            <Time>2021-08-12T14:48:41.000Z</Time>
            <Position>
              <LatitudeDegrees>43.27633193694055080413818359375</LatitudeDegrees>
              <LongitudeDegrees>-2.02986217103898525238037109375</LongitudeDegrees>
            </Position>
            <AltitudeMeters>33.200000762939453125</AltitudeMeters>
            <DistanceMeters>NAN</DistanceMeters>
          </Trackpoint>
          <Trackpoint>
            <Time>2021-08-12T14:48:42.000Z</Time>
            <Position>
              <LatitudeDegrees>43.27631391584873199462890625</LatitudeDegrees>
              <LongitudeDegrees>-2.02979947440326213836669921875</LongitudeDegrees>
            </Position>
            <AltitudeMeters>32.799999237060546875</AltitudeMeters>
            <DistanceMeters>NAN</DistanceMeters>
          </Trackpoint>
          <Trackpoint>
            <Time>2021-08-12T14:48:43.000Z</Time>
            <Position>
              <LatitudeDegrees>43.2762946374714374542236328125</LatitudeDegrees>
              <LongitudeDegrees>-2.029753290116786956787109375</LongitudeDegrees>
            </Position>
            <AltitudeMeters>32.40000152587890625</AltitudeMeters>
            <DistanceMeters>NAN</DistanceMeters>
          </Trackpoint>
          <Trackpoint>
            <Time>2021-08-12T14:48:44.000Z</Time>
            <Position>
              <LatitudeDegrees>43.2762663066387176513671875</LatitudeDegrees>
              <LongitudeDegrees>-2.02970107086002826690673828125</LongitudeDegrees>
            </Position>
            <AltitudeMeters>32.200000762939453125</AltitudeMeters>
            <DistanceMeters>NAN</DistanceMeters>
          </Trackpoint>
          <Trackpoint>
            <Time>2021-08-12T14:48:45.000Z</Time>
            <Position>
              <LatitudeDegrees>43.27622934244573116302490234375</LatitudeDegrees>
              <LongitudeDegrees>-2.029641978442668914794921875</LongitudeDegrees>
            </Position>
            <AltitudeMeters>32</AltitudeMeters>
            <DistanceMeters>NAN</DistanceMeters>
          </Trackpoint>
          <Trackpoint>
            <Time>2021-08-12T14:48:47.000Z</Time>
            <Position>
              <LatitudeDegrees>43.276167400181293487548828125</LatitudeDegrees>
              <LongitudeDegrees>-2.029555141925811767578125</LongitudeDegrees>
            </Position>
            <AltitudeMeters>31.6000003814697265625</AltitudeMeters>
            <DistanceMeters>NAN</DistanceMeters>
          </Trackpoint>
          <Trackpoint>
            <Time>2021-08-12T14:48:49.000Z</Time>
            <Position>
              <LatitudeDegrees>43.2760887779295444488525390625</LatitudeDegrees>
              <LongitudeDegrees>-2.02950485050678253173828125</LongitudeDegrees>
            </Position>
            <AltitudeMeters>31.3999996185302734375</AltitudeMeters>
            <DistanceMeters>NAN</DistanceMeters>
          </Trackpoint>
          <Trackpoint>
            <Time>2021-08-12T14:48:50.000Z</Time>
            <Position>
              <LatitudeDegrees>43.2760549150407314300537109375</LatitudeDegrees>
              <LongitudeDegrees>-2.02947995625436305999755859375</LongitudeDegrees>
            </Position>
            <AltitudeMeters>31.3999996185302734375</AltitudeMeters>
            <DistanceMeters>NAN</DistanceMeters>
          </Trackpoint>
          <Trackpoint>
            <Time>2021-08-12T14:48:51.000Z</Time>
            <Position>
              <LatitudeDegrees>43.27602365054190158843994140625</LatitudeDegrees>
              <LongitudeDegrees>-2.02944508753716945648193359375</LongitudeDegrees>
            </Position>
            <AltitudeMeters>31.3999996185302734375</AltitudeMeters>
            <DistanceMeters>NAN</DistanceMeters>
          </Trackpoint>
          <Trackpoint>
            <Time>2021-08-12T14:48:52.000Z</Time>
            <Position>
              <LatitudeDegrees>43.27597721479833126068115234375</LatitudeDegrees>
              <LongitudeDegrees>-2.0294144935905933380126953125</LongitudeDegrees>
            </Position>
            <AltitudeMeters>31.3999996185302734375</AltitudeMeters>
            <DistanceMeters>NAN</DistanceMeters>
          </Trackpoint>
          <Trackpoint>
            <Time>2021-08-12T14:48:55.000Z</Time>
            <Position>
              <LatitudeDegrees>43.27586489729583263397216796875</LatitudeDegrees>
              <LongitudeDegrees>-2.02936646528542041778564453125</LongitudeDegrees>
            </Position>
            <AltitudeMeters>31.200000762939453125</AltitudeMeters>
            <DistanceMeters>NAN</DistanceMeters>
          </Trackpoint>
          <Trackpoint>
            <Time>2021-08-12T14:48:56.000Z</Time>
            <Position>
              <LatitudeDegrees>43.27582717873156070709228515625</LatitudeDegrees>
              <LongitudeDegrees>-2.02936428599059581756591796875</LongitudeDegrees>
            </Position>
            <AltitudeMeters>31.200000762939453125</AltitudeMeters>
            <DistanceMeters>NAN</DistanceMeters>
          </Trackpoint>
          <Trackpoint>
            <Time>2021-08-12T14:48:57.000Z</Time>
            <Position>
              <LatitudeDegrees>43.27578342519700527191162109375</LatitudeDegrees>
              <LongitudeDegrees>-2.0293745957314968109130859375</LongitudeDegrees>
            </Position>
            <AltitudeMeters>31</AltitudeMeters>
            <DistanceMeters>NAN</DistanceMeters>
          </Trackpoint>
          <Trackpoint>
            <Time>2021-08-12T14:48:58.000Z</Time>
            <Position>
              <LatitudeDegrees>43.275751657783985137939453125</LatitudeDegrees>
              <LongitudeDegrees>-2.0293901860713958740234375</LongitudeDegrees>
            </Position>
            <AltitudeMeters>30.799999237060546875</AltitudeMeters>
            <DistanceMeters>NAN</DistanceMeters>
          </Trackpoint>
          <Trackpoint>
            <Time>2021-08-12T14:48:59.000Z</Time>
            <Position>
              <LatitudeDegrees>43.27573011629283428192138671875</LatitudeDegrees>
              <LongitudeDegrees>-2.02940200455486774444580078125</LongitudeDegrees>
            </Position>
            <AltitudeMeters>30.799999237060546875</AltitudeMeters>
            <DistanceMeters>NAN</DistanceMeters>
          </Trackpoint>
          <Trackpoint>
            <Time>2021-08-12T14:49:00.000Z</Time>
            <Position>
              <LatitudeDegrees>43.27570547349750995635986328125</LatitudeDegrees>
              <LongitudeDegrees>-2.02941675670444965362548828125</LongitudeDegrees>
            </Position>
            <AltitudeMeters>30.6000003814697265625</AltitudeMeters>
            <DistanceMeters>NAN</DistanceMeters>
          </Trackpoint>
          <Trackpoint>
            <Time>2021-08-12T14:49:01.000Z</Time>
            <Position>
              <LatitudeDegrees>43.27568418346345424652099609375</LatitudeDegrees>
              <LongitudeDegrees>-2.02943402342498302459716796875</LongitudeDegrees>
            </Position>
            <AltitudeMeters>30.3999996185302734375</AltitudeMeters>
            <DistanceMeters>NAN</DistanceMeters>
          </Trackpoint>
          <Trackpoint>
            <Time>2021-08-12T14:49:02.000Z</Time>
            <Position>
              <LatitudeDegrees>43.27566440217196941375732421875</LatitudeDegrees>
              <LongitudeDegrees>-2.02944458462297916412353515625</LongitudeDegrees>
            </Position>
            <AltitudeMeters>30.200000762939453125</AltitudeMeters>
            <DistanceMeters>NAN</DistanceMeters>
          </Trackpoint>
          <Trackpoint>
            <Time>2021-08-12T14:49:03.000Z</Time>
            <Position>
              <LatitudeDegrees>43.27564110048115253448486328125</LatitudeDegrees>
              <LongitudeDegrees>-2.02944056130945682525634765625</LongitudeDegrees>
            </Position>
            <AltitudeMeters>30</AltitudeMeters>
            <DistanceMeters>NAN</DistanceMeters>
          </Trackpoint>
          <Trackpoint>
            <Time>2021-08-12T14:49:04.000Z</Time>
            <Position>
              <LatitudeDegrees>43.2756291143596172332763671875</LatitudeDegrees>
              <LongitudeDegrees>-2.02942547388374805450439453125</LongitudeDegrees>
            </Position>
            <AltitudeMeters>29.799999237060546875</AltitudeMeters>
            <DistanceMeters>NAN</DistanceMeters>
          </Trackpoint>
          <Trackpoint>
            <Time>2021-08-12T14:49:05.000Z</Time>
            <Position>
              <LatitudeDegrees>43.27562383376061916351318359375</LatitudeDegrees>
              <LongitudeDegrees>-2.0293957181274890899658203125</LongitudeDegrees>
            </Position>
            <AltitudeMeters>29.6000003814697265625</AltitudeMeters>
            <DistanceMeters>NAN</DistanceMeters>
          </Trackpoint>
          <Trackpoint>
            <Time>2021-08-12T14:49:07.000Z</Time>
            <Position>
              <LatitudeDegrees>43.27564948238432407379150390625</LatitudeDegrees>
              <LongitudeDegrees>-2.0293437503278255462646484375</LongitudeDegrees>
            </Position>
            <AltitudeMeters>29.200000762939453125</AltitudeMeters>
            <DistanceMeters>NAN</DistanceMeters>
          </Trackpoint>
          <Trackpoint>
            <Time>2021-08-12T14:49:08.000Z</Time>
            <Position>
              <LatitudeDegrees>43.2756643183529376983642578125</LatitudeDegrees>
              <LongitudeDegrees>-2.0293246395885944366455078125</LongitudeDegrees>
            </Position>
            <AltitudeMeters>29.200000762939453125</AltitudeMeters>
            <DistanceMeters>NAN</DistanceMeters>
          </Trackpoint>
          <Trackpoint>
            <Time>2021-08-12T14:49:09.000Z</Time>
            <Position>
              <LatitudeDegrees>43.27567378990352153778076171875</LatitudeDegrees>
              <LongitudeDegrees>-2.0293075405061244964599609375</LongitudeDegrees>
            </Position>
            <AltitudeMeters>29.200000762939453125</AltitudeMeters>
            <DistanceMeters>NAN</DistanceMeters>
          </Trackpoint>
          <Trackpoint>
            <Time>2021-08-12T14:49:10.000Z</Time>
            <Position>
              <LatitudeDegrees>43.275685273110866546630859375</LatitudeDegrees>
              <LongitudeDegrees>-2.02928046695888042449951171875</LongitudeDegrees>
            </Position>
            <AltitudeMeters>29.200000762939453125</AltitudeMeters>
            <DistanceMeters>NAN</DistanceMeters>
          </Trackpoint>
          <Trackpoint>
            <Time>2021-08-12T14:49:11.000Z</Time>
            <Position>
              <LatitudeDegrees>43.275702036917209625244140625</LatitudeDegrees>
              <LongitudeDegrees>-2.02924476005136966705322265625</LongitudeDegrees>
            </Position>
            <AltitudeMeters>29.200000762939453125</AltitudeMeters>
            <DistanceMeters>NAN</DistanceMeters>
          </Trackpoint>
          <Trackpoint>
            <Time>2021-08-12T14:49:15.000Z</Time>
            <Position>
              <LatitudeDegrees>43.27574805356562137603759765625</LatitudeDegrees>
              <LongitudeDegrees>-2.02913939952850341796875</LongitudeDegrees>
            </Position>
            <AltitudeMeters>29.200000762939453125</AltitudeMeters>
            <DistanceMeters>NAN</DistanceMeters>
          </Trackpoint>
          <Trackpoint>
            <Time>2021-08-12T14:49:16.000Z</Time>
            <Position>
              <LatitudeDegrees>43.275751657783985137939453125</LatitudeDegrees>
              <LongitudeDegrees>-2.02912531793117523193359375</LongitudeDegrees>
            </Position>
            <AltitudeMeters>29.3999996185302734375</AltitudeMeters>
            <DistanceMeters>NAN</DistanceMeters>
          </Trackpoint>
          <Trackpoint>
            <Time>2021-08-12T14:49:20.000Z</Time>
            <Position>
              <LatitudeDegrees>43.27575341798365116119384765625</LatitudeDegrees>
              <LongitudeDegrees>-2.02912121079862117767333984375</LongitudeDegrees>
            </Position>
            <AltitudeMeters>29.3999996185302734375</AltitudeMeters>
            <DistanceMeters>NAN</DistanceMeters>
          </Trackpoint>
          <Trackpoint>
            <Time>2021-08-12T14:49:28.000Z</Time>
            <Position>
              <LatitudeDegrees>43.27575542964041233062744140625</LatitudeDegrees>
              <LongitudeDegrees>-2.02912121079862117767333984375</LongitudeDegrees>
            </Position>
            <AltitudeMeters>29.6000003814697265625</AltitudeMeters>
            <DistanceMeters>NAN</DistanceMeters>
          </Trackpoint>
          <Trackpoint>
            <Time>2021-08-12T14:49:30.000Z</Time>
            <Position>
              <LatitudeDegrees>43.27577613294124603271484375</LatitudeDegrees>
              <LongitudeDegrees>-2.02912171371281147003173828125</LongitudeDegrees>
            </Position>
            <AltitudeMeters>29.799999237060546875</AltitudeMeters>
            <DistanceMeters>NAN</DistanceMeters>
          </Trackpoint>
          <Trackpoint>
            <Time>2021-08-12T14:49:33.000Z</Time>
            <Position>
              <LatitudeDegrees>43.27578308992087841033935546875</LatitudeDegrees>
              <LongitudeDegrees>-2.029125653207302093505859375</LongitudeDegrees>
            </Position>
            <AltitudeMeters>29.799999237060546875</AltitudeMeters>
            <DistanceMeters>NAN</DistanceMeters>
          </Trackpoint>
          <Trackpoint>
            <Time>2021-08-12T14:49:34.000Z</Time>
            <Position>
              <LatitudeDegrees>43.27578744851052761077880859375</LatitudeDegrees>
              <LongitudeDegrees>-2.0291479490697383880615234375</LongitudeDegrees>
            </Position>
            <AltitudeMeters>29.799999237060546875</AltitudeMeters>
            <DistanceMeters>NAN</DistanceMeters>
          </Trackpoint>
          <Trackpoint>
            <Time>2021-08-12T14:49:37.000Z</Time>
            <Position>
              <LatitudeDegrees>43.27575040049850940704345703125</LatitudeDegrees>
              <LongitudeDegrees>-2.0292622782289981842041015625</LongitudeDegrees>
            </Position>
            <AltitudeMeters>30</AltitudeMeters>
            <DistanceMeters>NAN</DistanceMeters>
          </Trackpoint>
          <Trackpoint>
            <Time>2021-08-12T14:49:38.000Z</Time>
            <Position>
              <LatitudeDegrees>43.2757266797125339508056640625</LatitudeDegrees>
              <LongitudeDegrees>-2.02931441366672515869140625</LongitudeDegrees>
            </Position>
            <AltitudeMeters>30</AltitudeMeters>
            <DistanceMeters>NAN</DistanceMeters>
          </Trackpoint>
          <Trackpoint>
            <Time>2021-08-12T14:49:39.000Z</Time>
            <Position>
              <LatitudeDegrees>43.275705389678478240966796875</LatitudeDegrees>
              <LongitudeDegrees>-2.029371745884418487548828125</LongitudeDegrees>
            </Position>
            <AltitudeMeters>29.799999237060546875</AltitudeMeters>
            <DistanceMeters>NAN</DistanceMeters>
          </Trackpoint>
          <Trackpoint>
            <Time>2021-08-12T14:49:41.000Z</Time>
            <Position>
              <LatitudeDegrees>43.27568762004375457763671875</LatitudeDegrees>
              <LongitudeDegrees>-2.02947559766471385955810546875</LongitudeDegrees>
            </Position>
            <AltitudeMeters>29.799999237060546875</AltitudeMeters>
            <DistanceMeters>NAN</DistanceMeters>
          </Trackpoint>
          <Trackpoint>
            <Time>2021-08-12T14:49:42.000Z</Time>
            <Position>
              <LatitudeDegrees>43.27569088898599147796630859375</LatitudeDegrees>
              <LongitudeDegrees>-2.02951616607606410980224609375</LongitudeDegrees>
            </Position>
            <AltitudeMeters>29.799999237060546875</AltitudeMeters>
            <DistanceMeters>NAN</DistanceMeters>
          </Trackpoint>
          <Trackpoint>
            <Time>2021-08-12T14:49:43.000Z</Time>
            <Position>
              <LatitudeDegrees>43.27569826506078243255615234375</LatitudeDegrees>
              <LongitudeDegrees>-2.02954684384167194366455078125</LongitudeDegrees>
            </Position>
            <AltitudeMeters>29.799999237060546875</AltitudeMeters>
            <DistanceMeters>NAN</DistanceMeters>
          </Trackpoint>
          <Trackpoint>
            <Time>2021-08-12T14:49:44.000Z</Time>
            <Position>
              <LatitudeDegrees>43.2757058925926685333251953125</LatitudeDegrees>
              <LongitudeDegrees>-2.0295618474483489990234375</LongitudeDegrees>
            </Position>
            <AltitudeMeters>29.6000003814697265625</AltitudeMeters>
            <DistanceMeters>NAN</DistanceMeters>
          </Trackpoint>
          <Trackpoint>
            <Time>2021-08-12T14:49:45.000Z</Time>
            <Position>
              <LatitudeDegrees>43.275709412992000579833984375</LatitudeDegrees>
              <LongitudeDegrees>-2.029565870761871337890625</LongitudeDegrees>
            </Position>
            <AltitudeMeters>29.6000003814697265625</AltitudeMeters>
            <DistanceMeters>NAN</DistanceMeters>
          </Trackpoint>
          <Trackpoint>
            <Time>2021-08-12T14:49:46.000Z</Time>
            <Position>
              <LatitudeDegrees>43.275709412992000579833984375</LatitudeDegrees>
              <LongitudeDegrees>-2.029565870761871337890625</LongitudeDegrees>
            </Position>
            <AltitudeMeters>29.200000762939453125</AltitudeMeters>
            <DistanceMeters>NAN</DistanceMeters>
          </Trackpoint>
          <Trackpoint>
            <Time>2021-08-12T14:49:48.000Z</Time>
            <Position>
              <LatitudeDegrees>43.275709412992000579833984375</LatitudeDegrees>
              <LongitudeDegrees>-2.029565870761871337890625</LongitudeDegrees>
            </Position>
            <AltitudeMeters>28.799999237060546875</AltitudeMeters>
            <DistanceMeters>NAN</DistanceMeters>
          </Trackpoint>
          <Trackpoint>
            <Time>2021-08-12T14:49:50.000Z</Time>
            <Position>
              <LatitudeDegrees>43.275709412992000579833984375</LatitudeDegrees>
              <LongitudeDegrees>-2.029565870761871337890625</LongitudeDegrees>
            </Position>
            <AltitudeMeters>28.799999237060546875</AltitudeMeters>
            <DistanceMeters>NAN</DistanceMeters>
          </Trackpoint>
          <Trackpoint>
            <Time>2021-08-12T14:59:14.000Z</Time>
            <Position>
              <LatitudeDegrees>43.275709412992000579833984375</LatitudeDegrees>
              <LongitudeDegrees>-2.02956796623766422271728515625</LongitudeDegrees>
            </Position>
            <AltitudeMeters>28.6000003814697265625</AltitudeMeters>
            <DistanceMeters>NAN</DistanceMeters>
          </Trackpoint>
          <Trackpoint>
            <Time>2021-08-12T14:59:28.000Z</Time>
            <Position>
              <LatitudeDegrees>43.2757092453539371490478515625</LatitudeDegrees>
              <LongitudeDegrees>-2.02956796623766422271728515625</LongitudeDegrees>
            </Position>
            <AltitudeMeters>28.6000003814697265625</AltitudeMeters>
            <DistanceMeters>NAN</DistanceMeters>
          </Trackpoint>
          <Trackpoint>
            <Time>2021-08-12T14:59:34.000Z</Time>
            <Position>
              <LatitudeDegrees>43.27569994144141674041748046875</LatitudeDegrees>
              <LongitudeDegrees>-2.0295626856386661529541015625</LongitudeDegrees>
            </Position>
            <AltitudeMeters>28.3999996185302734375</AltitudeMeters>
            <DistanceMeters>NAN</DistanceMeters>
          </Trackpoint>
          <Trackpoint>
            <Time>2021-08-12T14:59:37.000Z</Time>
            <Position>
              <LatitudeDegrees>43.27569994144141674041748046875</LatitudeDegrees>
              <LongitudeDegrees>-2.0295626856386661529541015625</LongitudeDegrees>
            </Position>
            <AltitudeMeters>28.200000762939453125</AltitudeMeters>
            <DistanceMeters>NAN</DistanceMeters>
          </Trackpoint>
          <Trackpoint>
            <Time>2021-08-12T14:59:47.000Z</Time>
            <Position>
              <LatitudeDegrees>43.27566037885844707489013671875</LatitudeDegrees>
              <LongitudeDegrees>-2.02946302480995655059814453125</LongitudeDegrees>
            </Position>
            <AltitudeMeters>28</AltitudeMeters>
            <DistanceMeters>NAN</DistanceMeters>
          </Trackpoint>
          <Trackpoint>
            <Time>2021-08-12T14:59:51.000Z</Time>
            <Position>
              <LatitudeDegrees>43.2757084071636199951171875</LatitudeDegrees>
              <LongitudeDegrees>-2.0293118990957736968994140625</LongitudeDegrees>
            </Position>
            <AltitudeMeters>28.200000762939453125</AltitudeMeters>
            <DistanceMeters>NAN</DistanceMeters>
          </Trackpoint>
          <Trackpoint>
            <Time>2021-08-12T14:59:53.000Z</Time>
            <Position>
              <LatitudeDegrees>43.275745622813701629638671875</LatitudeDegrees>
              <LongitudeDegrees>-2.02923738397657871246337890625</LongitudeDegrees>
            </Position>
            <AltitudeMeters>28.3999996185302734375</AltitudeMeters>
            <DistanceMeters>NAN</DistanceMeters>
          </Trackpoint>
          <Trackpoint>
            <Time>2021-08-12T14:59:56.000Z</Time>
            <Position>
              <LatitudeDegrees>43.27579884789884090423583984375</LatitudeDegrees>
              <LongitudeDegrees>-2.02914300374686717987060546875</LongitudeDegrees>
            </Position>
            <AltitudeMeters>28.799999237060546875</AltitudeMeters>
            <DistanceMeters>NAN</DistanceMeters>
          </Trackpoint>
          <Trackpoint>
            <Time>2021-08-12T14:59:58.000Z</Time>
            <Position>
              <LatitudeDegrees>43.27583120204508304595947265625</LatitudeDegrees>
              <LongitudeDegrees>-2.02907728962600231170654296875</LongitudeDegrees>
            </Position>
            <AltitudeMeters>29.200000762939453125</AltitudeMeters>
            <DistanceMeters>NAN</DistanceMeters>
          </Trackpoint>
          <Trackpoint>
            <Time>2021-08-12T15:00:00.000Z</Time>
            <Position>
              <LatitudeDegrees>43.275842182338237762451171875</LatitudeDegrees>
              <LongitudeDegrees>-2.0289943926036357879638671875</LongitudeDegrees>
            </Position>
            <AltitudeMeters>29.6000003814697265625</AltitudeMeters>
            <DistanceMeters>NAN</DistanceMeters>
          </Trackpoint>
          <Trackpoint>
            <Time>2021-08-12T15:00:01.000Z</Time>
            <Position>
              <LatitudeDegrees>43.27585467137396335601806640625</LatitudeDegrees>
              <LongitudeDegrees>-2.02895524911582469940185546875</LongitudeDegrees>
            </Position>
            <AltitudeMeters>29.799999237060546875</AltitudeMeters>
            <DistanceMeters>NAN</DistanceMeters>
          </Trackpoint>
          <Trackpoint>
            <Time>2021-08-12T15:00:02.000Z</Time>
            <Position>
              <LatitudeDegrees>43.27586506493389606475830078125</LatitudeDegrees>
              <LongitudeDegrees>-2.02891652472317218780517578125</LongitudeDegrees>
            </Position>
            <AltitudeMeters>30</AltitudeMeters>
            <DistanceMeters>NAN</DistanceMeters>
          </Trackpoint>
          <Trackpoint>
            <Time>2021-08-12T15:00:04.000Z</Time>
            <Position>
              <LatitudeDegrees>43.27587277628481388092041015625</LatitudeDegrees>
              <LongitudeDegrees>-2.02883572317659854888916015625</LongitudeDegrees>
            </Position>
            <AltitudeMeters>30.3999996185302734375</AltitudeMeters>
            <DistanceMeters>NAN</DistanceMeters>
          </Trackpoint>
          <Trackpoint>
            <Time>2021-08-12T15:00:05.000Z</Time>
            <Position>
              <LatitudeDegrees>43.275883086025714874267578125</LatitudeDegrees>
              <LongitudeDegrees>-2.02879716642200946807861328125</LongitudeDegrees>
            </Position>
            <AltitudeMeters>30.799999237060546875</AltitudeMeters>
            <DistanceMeters>NAN</DistanceMeters>
          </Trackpoint>
          <Trackpoint>
            <Time>2021-08-12T15:00:06.000Z</Time>
            <Position>
              <LatitudeDegrees>43.27588300220668315887451171875</LatitudeDegrees>
              <LongitudeDegrees>-2.02875693328678607940673828125</LongitudeDegrees>
            </Position>
            <AltitudeMeters>31</AltitudeMeters>
            <DistanceMeters>NAN</DistanceMeters>
          </Trackpoint>
          <Trackpoint>
            <Time>2021-08-12T15:00:07.000Z</Time>
            <Position>
              <LatitudeDegrees>43.27589238993823528289794921875</LatitudeDegrees>
              <LongitudeDegrees>-2.028713934123516082763671875</LongitudeDegrees>
            </Position>
            <AltitudeMeters>31.3999996185302734375</AltitudeMeters>
            <DistanceMeters>NAN</DistanceMeters>
          </Trackpoint>
          <Trackpoint>
            <Time>2021-08-12T15:00:08.000Z</Time>
            <Position>
              <LatitudeDegrees>43.2759006880223751068115234375</LatitudeDegrees>
              <LongitudeDegrees>-2.0286892913281917572021484375</LongitudeDegrees>
            </Position>
            <AltitudeMeters>31.6000003814697265625</AltitudeMeters>
            <DistanceMeters>NAN</DistanceMeters>
          </Trackpoint>
          <Trackpoint>
            <Time>2021-08-12T15:00:09.000Z</Time>
            <Position>
              <LatitudeDegrees>43.2759047113358974456787109375</LatitudeDegrees>
              <LongitudeDegrees>-2.0286525785923004150390625</LongitudeDegrees>
            </Position>
            <AltitudeMeters>32</AltitudeMeters>
            <DistanceMeters>NAN</DistanceMeters>
          </Trackpoint>
          <Trackpoint>
            <Time>2021-08-12T15:00:10.000Z</Time>
            <Position>
              <LatitudeDegrees>43.2759030349552631378173828125</LatitudeDegrees>
              <LongitudeDegrees>-2.02861703932285308837890625</LongitudeDegrees>
            </Position>
            <AltitudeMeters>32</AltitudeMeters>
            <DistanceMeters>NAN</DistanceMeters>
          </Trackpoint>
          <Trackpoint>
            <Time>2021-08-12T15:00:11.000Z</Time>
            <Position>
              <LatitudeDegrees>43.275898508727550506591796875</LatitudeDegrees>
              <LongitudeDegrees>-2.02858124859631061553955078125</LongitudeDegrees>
            </Position>
            <AltitudeMeters>32.200000762939453125</AltitudeMeters>
            <DistanceMeters>NAN</DistanceMeters>
          </Trackpoint>
          <Trackpoint>
            <Time>2021-08-12T15:00:12.000Z</Time>
            <Position>
              <LatitudeDegrees>43.27589272521436214447021484375</LatitudeDegrees>
              <LongitudeDegrees>-2.02854185365140438079833984375</LongitudeDegrees>
            </Position>
            <AltitudeMeters>32.59999847412109375</AltitudeMeters>
            <DistanceMeters>NAN</DistanceMeters>
          </Trackpoint>
          <Trackpoint>
            <Time>2021-08-12T15:00:13.000Z</Time>
            <Position>
              <LatitudeDegrees>43.27588601969182491302490234375</LatitudeDegrees>
              <LongitudeDegrees>-2.02851436100900173187255859375</LongitudeDegrees>
            </Position>
            <AltitudeMeters>32.59999847412109375</AltitudeMeters>
            <DistanceMeters>NAN</DistanceMeters>
          </Trackpoint>
          <Trackpoint>
            <Time>2021-08-12T15:00:14.000Z</Time>
            <Position>
              <LatitudeDegrees>43.27588082291185855865478515625</LatitudeDegrees>
              <LongitudeDegrees>-2.02848234213888645172119140625</LongitudeDegrees>
            </Position>
            <AltitudeMeters>32.799999237060546875</AltitudeMeters>
            <DistanceMeters>NAN</DistanceMeters>
          </Trackpoint>
          <Trackpoint>
            <Time>2021-08-12T15:00:15.000Z</Time>
            <Position>
              <LatitudeDegrees>43.275875039398670196533203125</LatitudeDegrees>
              <LongitudeDegrees>-2.02844537794589996337890625</LongitudeDegrees>
            </Position>
            <AltitudeMeters>32.799999237060546875</AltitudeMeters>
            <DistanceMeters>NAN</DistanceMeters>
          </Trackpoint>
          <Trackpoint>
            <Time>2021-08-12T15:00:16.000Z</Time>
            <Position>
              <LatitudeDegrees>43.275870345532894134521484375</LatitudeDegrees>
              <LongitudeDegrees>-2.0284116826951503753662109375</LongitudeDegrees>
            </Position>
            <AltitudeMeters>32.799999237060546875</AltitudeMeters>
            <DistanceMeters>NAN</DistanceMeters>
          </Trackpoint>
          <Trackpoint>
            <Time>2021-08-12T15:00:17.000Z</Time>
            <Position>
              <LatitudeDegrees>43.275865651667118072509765625</LatitudeDegrees>
              <LongitudeDegrees>-2.028380669653415679931640625</LongitudeDegrees>
            </Position>
            <AltitudeMeters>33</AltitudeMeters>
            <DistanceMeters>NAN</DistanceMeters>
          </Trackpoint>
          <Trackpoint>
            <Time>2021-08-12T15:00:18.000Z</Time>
            <Position>
              <LatitudeDegrees>43.2758597843348979949951171875</LatitudeDegrees>
              <LongitudeDegrees>-2.02835862524807453155517578125</LongitudeDegrees>
            </Position>
            <AltitudeMeters>33</AltitudeMeters>
            <DistanceMeters>NAN</DistanceMeters>
          </Trackpoint>
          <Trackpoint>
            <Time>2021-08-12T15:00:19.000Z</Time>
            <Position>
              <LatitudeDegrees>43.275851905345916748046875</LatitudeDegrees>
              <LongitudeDegrees>-2.0283295400440692901611328125</LongitudeDegrees>
            </Position>
            <AltitudeMeters>33.200000762939453125</AltitudeMeters>
            <DistanceMeters>NAN</DistanceMeters>
          </Trackpoint>
          <Trackpoint>
            <Time>2021-08-12T15:00:20.000Z</Time>
            <Position>
              <LatitudeDegrees>43.27584109269082546234130859375</LatitudeDegrees>
              <LongitudeDegrees>-2.028294838964939117431640625</LongitudeDegrees>
            </Position>
            <AltitudeMeters>33.200000762939453125</AltitudeMeters>
            <DistanceMeters>NAN</DistanceMeters>
          </Trackpoint>
          <Trackpoint>
            <Time>2021-08-12T15:00:21.000Z</Time>
            <Position>
              <LatitudeDegrees>43.2758317887783050537109375</LatitudeDegrees>
              <LongitudeDegrees>-2.028261311352252960205078125</LongitudeDegrees>
            </Position>
            <AltitudeMeters>33.200000762939453125</AltitudeMeters>
            <DistanceMeters>NAN</DistanceMeters>
          </Trackpoint>
          <Trackpoint>
            <Time>2021-08-12T15:00:22.000Z</Time>
            <Position>
              <LatitudeDegrees>43.2758205570280551910400390625</LatitudeDegrees>
              <LongitudeDegrees>-2.0282292924821376800537109375</LongitudeDegrees>
            </Position>
            <AltitudeMeters>33.200000762939453125</AltitudeMeters>
            <DistanceMeters>NAN</DistanceMeters>
          </Trackpoint>
          <Trackpoint>
            <Time>2021-08-12T15:00:23.000Z</Time>
            <Position>
              <LatitudeDegrees>43.27580924145877361297607421875</LatitudeDegrees>
              <LongitudeDegrees>-2.02820397913455963134765625</LongitudeDegrees>
            </Position>
            <AltitudeMeters>33.200000762939453125</AltitudeMeters>
            <DistanceMeters>NAN</DistanceMeters>
          </Trackpoint>
          <Trackpoint>
            <Time>2021-08-12T15:00:24.000Z</Time>
            <Position>
              <LatitudeDegrees>43.27579214237630367279052734375</LatitudeDegrees>
              <LongitudeDegrees>-2.02817539684474468231201171875</LongitudeDegrees>
            </Position>
            <AltitudeMeters>33.200000762939453125</AltitudeMeters>
            <DistanceMeters>NAN</DistanceMeters>
          </Trackpoint>
          <Trackpoint>
            <Time>2021-08-12T15:00:25.000Z</Time>
            <Position>
              <LatitudeDegrees>43.27576817013323307037353515625</LatitudeDegrees>
              <LongitudeDegrees>-2.02814497053623199462890625</LongitudeDegrees>
            </Position>
            <AltitudeMeters>33.200000762939453125</AltitudeMeters>
            <DistanceMeters>NAN</DistanceMeters>
          </Trackpoint>
          <Trackpoint>
            <Time>2021-08-12T15:00:26.000Z</Time>
            <Position>
              <LatitudeDegrees>43.2757478021085262298583984375</LatitudeDegrees>
              <LongitudeDegrees>-2.0281209982931613922119140625</LongitudeDegrees>
            </Position>
            <AltitudeMeters>33.200000762939453125</AltitudeMeters>
            <DistanceMeters>NAN</DistanceMeters>
          </Trackpoint>
          <Trackpoint>
            <Time>2021-08-12T15:00:27.000Z</Time>
            <Position>
              <LatitudeDegrees>43.275731541216373443603515625</LatitudeDegrees>
              <LongitudeDegrees>-2.0280985347926616668701171875</LongitudeDegrees>
            </Position>
            <AltitudeMeters>33.200000762939453125</AltitudeMeters>
            <DistanceMeters>NAN</DistanceMeters>
          </Trackpoint>
          <Trackpoint>
            <Time>2021-08-12T15:00:28.000Z</Time>
            <Position>
              <LatitudeDegrees>43.2757115922868251800537109375</LatitudeDegrees>
              <LongitudeDegrees>-2.02806961722671985626220703125</LongitudeDegrees>
            </Position>
            <AltitudeMeters>33.200000762939453125</AltitudeMeters>
            <DistanceMeters>NAN</DistanceMeters>
          </Trackpoint>
          <Trackpoint>
            <Time>2021-08-12T15:00:29.000Z</Time>
            <Position>
              <LatitudeDegrees>43.27568938024342060089111328125</LatitudeDegrees>
              <LongitudeDegrees>-2.02804011292755603790283203125</LongitudeDegrees>
            </Position>
            <AltitudeMeters>33</AltitudeMeters>
            <DistanceMeters>NAN</DistanceMeters>
          </Trackpoint>
          <Trackpoint>
            <Time>2021-08-12T15:00:30.000Z</Time>
            <Position>
              <LatitudeDegrees>43.27566524036228656768798828125</LatitudeDegrees>
              <LongitudeDegrees>-2.0280106924474239349365234375</LongitudeDegrees>
            </Position>
            <AltitudeMeters>32.799999237060546875</AltitudeMeters>
            <DistanceMeters>NAN</DistanceMeters>
          </Trackpoint>
          <Trackpoint>
            <Time>2021-08-12T15:00:31.000Z</Time>
            <Position>
              <LatitudeDegrees>43.2756385020911693572998046875</LatitudeDegrees>
              <LongitudeDegrees>-2.027982361614704132080078125</LongitudeDegrees>
            </Position>
            <AltitudeMeters>32.799999237060546875</AltitudeMeters>
            <DistanceMeters>NAN</DistanceMeters>
          </Trackpoint>
          <Trackpoint>
            <Time>2021-08-12T15:00:35.000Z</Time>
            <Position>
              <LatitudeDegrees>43.27553112991154193878173828125</LatitudeDegrees>
              <LongitudeDegrees>-2.0278648473322391510009765625</LongitudeDegrees>
            </Position>
            <AltitudeMeters>32.200000762939453125</AltitudeMeters>
            <DistanceMeters>NAN</DistanceMeters>
          </Trackpoint>
          <Trackpoint>
            <Time>2021-08-12T15:00:36.000Z</Time>
            <Position>
              <LatitudeDegrees>43.27550548128783702850341796875</LatitudeDegrees>
              <LongitudeDegrees>-2.027836851775646209716796875</LongitudeDegrees>
            </Position>
            <AltitudeMeters>32</AltitudeMeters>
            <DistanceMeters>NAN</DistanceMeters>
          </Trackpoint>
          <Trackpoint>
            <Time>2021-08-12T15:00:40.000Z</Time>
            <Position>
              <LatitudeDegrees>43.27540154568850994110107421875</LatitudeDegrees>
              <LongitudeDegrees>-2.02772679738700389862060546875</LongitudeDegrees>
            </Position>
            <AltitudeMeters>31</AltitudeMeters>
            <DistanceMeters>NAN</DistanceMeters>
          </Trackpoint>
          <Trackpoint>
            <Time>2021-08-12T15:00:45.000Z</Time>
            <Position>
              <LatitudeDegrees>43.27527782879769802093505859375</LatitudeDegrees>
              <LongitudeDegrees>-2.02757768332958221435546875</LongitudeDegrees>
            </Position>
            <AltitudeMeters>30</AltitudeMeters>
            <DistanceMeters>NAN</DistanceMeters>
          </Trackpoint>
          <Trackpoint>
            <Time>2021-08-12T15:00:46.000Z</Time>
            <Position>
              <LatitudeDegrees>43.27525251545011997222900390625</LatitudeDegrees>
              <LongitudeDegrees>-2.02755429781973361968994140625</LongitudeDegrees>
            </Position>
            <AltitudeMeters>29.6000003814697265625</AltitudeMeters>
            <DistanceMeters>NAN</DistanceMeters>
          </Trackpoint>
          <Trackpoint>
            <Time>2021-08-12T15:00:49.000Z</Time>
            <Position>
              <LatitudeDegrees>43.2751855440437793731689453125</LatitudeDegrees>
              <LongitudeDegrees>-2.02749981544911861419677734375</LongitudeDegrees>
            </Position>
            <AltitudeMeters>29</AltitudeMeters>
            <DistanceMeters>NAN</DistanceMeters>
          </Trackpoint>
          <Trackpoint>
            <Time>2021-08-12T15:00:50.000Z</Time>
            <Position>
              <LatitudeDegrees>43.275170624256134033203125</LatitudeDegrees>
              <LongitudeDegrees>-2.027481459081172943115234375</LongitudeDegrees>
            </Position>
            <AltitudeMeters>28.799999237060546875</AltitudeMeters>
            <DistanceMeters>NAN</DistanceMeters>
          </Trackpoint>
          <Trackpoint>
            <Time>2021-08-12T15:00:51.000Z</Time>
            <Position>
              <LatitudeDegrees>43.27516031451523303985595703125</LatitudeDegrees>
              <LongitudeDegrees>-2.02744969166815280914306640625</LongitudeDegrees>
            </Position>
            <AltitudeMeters>28.6000003814697265625</AltitudeMeters>
            <DistanceMeters>NAN</DistanceMeters>
          </Trackpoint>
          <Trackpoint>
            <Time>2021-08-12T15:00:52.000Z</Time>
            <Position>
              <LatitudeDegrees>43.2751567102968692779541015625</LatitudeDegrees>
              <LongitudeDegrees>-2.027411721646785736083984375</LongitudeDegrees>
            </Position>
            <AltitudeMeters>28.3999996185302734375</AltitudeMeters>
            <DistanceMeters>NAN</DistanceMeters>
          </Trackpoint>
          <Trackpoint>
            <Time>2021-08-12T15:00:53.000Z</Time>
            <Position>
              <LatitudeDegrees>43.2751557044684886932373046875</LatitudeDegrees>
              <LongitudeDegrees>-2.02737341634929180145263671875</LongitudeDegrees>
            </Position>
            <AltitudeMeters>28</AltitudeMeters>
            <DistanceMeters>NAN</DistanceMeters>
          </Trackpoint>
          <Trackpoint>
            <Time>2021-08-12T15:00:54.000Z</Time>
            <Position>
              <LatitudeDegrees>43.27515779994428157806396484375</LatitudeDegrees>
              <LongitudeDegrees>-2.027340643107891082763671875</LongitudeDegrees>
            </Position>
            <AltitudeMeters>27.799999237060546875</AltitudeMeters>
            <DistanceMeters>NAN</DistanceMeters>
          </Trackpoint>
          <Trackpoint>
            <Time>2021-08-12T15:00:55.000Z</Time>
            <Position>
              <LatitudeDegrees>43.27515562064945697784423828125</LatitudeDegrees>
              <LongitudeDegrees>-2.02730946242809295654296875</LongitudeDegrees>
            </Position>
            <AltitudeMeters>27.6000003814697265625</AltitudeMeters>
            <DistanceMeters>NAN</DistanceMeters>
          </Trackpoint>
          <Trackpoint>
            <Time>2021-08-12T15:00:56.000Z</Time>
            <Position>
              <LatitudeDegrees>43.27514824457466602325439453125</LatitudeDegrees>
              <LongitudeDegrees>-2.02728155069053173065185546875</LongitudeDegrees>
            </Position>
            <AltitudeMeters>27.3999996185302734375</AltitudeMeters>
            <DistanceMeters>NAN</DistanceMeters>
          </Trackpoint>
          <Trackpoint>
            <Time>2021-08-12T15:00:57.000Z</Time>
            <Position>
              <LatitudeDegrees>43.2751426286995410919189453125</LatitudeDegrees>
              <LongitudeDegrees>-2.0272553153336048126220703125</LongitudeDegrees>
            </Position>
            <AltitudeMeters>27.3999996185302734375</AltitudeMeters>
            <DistanceMeters>NAN</DistanceMeters>
          </Trackpoint>
          <Trackpoint>
            <Time>2021-08-12T15:00:58.000Z</Time>
            <Position>
              <LatitudeDegrees>43.2751409523189067840576171875</LatitudeDegrees>
              <LongitudeDegrees>-2.02722773887217044830322265625</LongitudeDegrees>
            </Position>
            <AltitudeMeters>27.3999996185302734375</AltitudeMeters>
            <DistanceMeters>NAN</DistanceMeters>
          </Trackpoint>
          <Trackpoint>
            <Time>2021-08-12T15:00:59.000Z</Time>
            <Position>
              <LatitudeDegrees>43.2751426286995410919189453125</LatitudeDegrees>
              <LongitudeDegrees>-2.02720091678202152252197265625</LongitudeDegrees>
            </Position>
            <AltitudeMeters>27.3999996185302734375</AltitudeMeters>
            <DistanceMeters>NAN</DistanceMeters>
          </Trackpoint>
          <Trackpoint>
            <Time>2021-08-12T15:01:00.000Z</Time>
            <Position>
              <LatitudeDegrees>43.2751476578414440155029296875</LatitudeDegrees>
              <LongitudeDegrees>-2.0271778665482997894287109375</LongitudeDegrees>
            </Position>
            <AltitudeMeters>27.3999996185302734375</AltitudeMeters>
            <DistanceMeters>NAN</DistanceMeters>
          </Trackpoint>
          <Trackpoint>
            <Time>2021-08-12T15:01:01.000Z</Time>
            <Position>
              <LatitudeDegrees>43.275152854621410369873046875</LatitudeDegrees>
              <LongitudeDegrees>-2.02715733088552951812744140625</LongitudeDegrees>
            </Position>
            <AltitudeMeters>27.3999996185302734375</AltitudeMeters>
            <DistanceMeters>NAN</DistanceMeters>
          </Trackpoint>
          <Trackpoint>
            <Time>2021-08-12T15:01:02.000Z</Time>
            <Position>
              <LatitudeDegrees>43.27515008859336376190185546875</LatitudeDegrees>
              <LongitudeDegrees>-2.02713285572826862335205078125</LongitudeDegrees>
            </Position>
            <AltitudeMeters>27.3999996185302734375</AltitudeMeters>
            <DistanceMeters>NAN</DistanceMeters>
          </Trackpoint>
          <Trackpoint>
            <Time>2021-08-12T15:01:03.000Z</Time>
            <Position>
              <LatitudeDegrees>43.27514841221272945404052734375</LatitudeDegrees>
              <LongitudeDegrees>-2.02710293233394622802734375</LongitudeDegrees>
            </Position>
            <AltitudeMeters>27.6000003814697265625</AltitudeMeters>
            <DistanceMeters>NAN</DistanceMeters>
          </Trackpoint>
          <Trackpoint>
            <Time>2021-08-12T15:01:04.000Z</Time>
            <Position>
              <LatitudeDegrees>43.2751520164310932159423828125</LatitudeDegrees>
              <LongitudeDegrees>-2.0270689018070697784423828125</LongitudeDegrees>
            </Position>
            <AltitudeMeters>27.6000003814697265625</AltitudeMeters>
            <DistanceMeters>NAN</DistanceMeters>
          </Trackpoint>
          <Trackpoint>
            <Time>2021-08-12T15:01:05.000Z</Time>
            <Position>
              <LatitudeDegrees>43.27516232617199420928955078125</LatitudeDegrees>
              <LongitudeDegrees>-2.0270293392241001129150390625</LongitudeDegrees>
            </Position>
            <AltitudeMeters>27.6000003814697265625</AltitudeMeters>
            <DistanceMeters>NAN</DistanceMeters>
          </Trackpoint>
          <Trackpoint>
            <Time>2021-08-12T15:01:06.000Z</Time>
            <Position>
              <LatitudeDegrees>43.2751741446554660797119140625</LatitudeDegrees>
              <LongitudeDegrees>-2.02699162065982818603515625</LongitudeDegrees>
            </Position>
            <AltitudeMeters>27.6000003814697265625</AltitudeMeters>
            <DistanceMeters>NAN</DistanceMeters>
          </Trackpoint>
          <Trackpoint>
            <Time>2021-08-12T15:01:07.000Z</Time>
            <Position>
              <LatitudeDegrees>43.27518495731055736541748046875</LatitudeDegrees>
              <LongitudeDegrees>-2.02695482410490512847900390625</LongitudeDegrees>
            </Position>
            <AltitudeMeters>27.6000003814697265625</AltitudeMeters>
            <DistanceMeters>NAN</DistanceMeters>
          </Trackpoint>
          <Trackpoint>
            <Time>2021-08-12T15:01:10.000Z</Time>
            <Position>
              <LatitudeDegrees>43.27522116713225841522216796875</LatitudeDegrees>
              <LongitudeDegrees>-2.026845104992389678955078125</LongitudeDegrees>
            </Position>
            <AltitudeMeters>28.200000762939453125</AltitudeMeters>
            <DistanceMeters>NAN</DistanceMeters>
          </Trackpoint>
          <Trackpoint>
            <Time>2021-08-12T15:01:14.000Z</Time>
            <Position>
              <LatitudeDegrees>43.27527229674160480499267578125</LatitudeDegrees>
              <LongitudeDegrees>-2.02669749967753887176513671875</LongitudeDegrees>
            </Position>
            <AltitudeMeters>29.200000762939453125</AltitudeMeters>
            <DistanceMeters>NAN</DistanceMeters>
          </Trackpoint>
          <Trackpoint>
            <Time>2021-08-12T15:01:15.000Z</Time>
            <Position>
              <LatitudeDegrees>43.27528403140604496002197265625</LatitudeDegrees>
              <LongitudeDegrees>-2.0266642235219478607177734375</LongitudeDegrees>
            </Position>
            <AltitudeMeters>29.6000003814697265625</AltitudeMeters>
            <DistanceMeters>NAN</DistanceMeters>
          </Trackpoint>
          <Trackpoint>
            <Time>2021-08-12T15:01:17.000Z</Time>
            <Position>
              <LatitudeDegrees>43.275304399430751800537109375</LatitudeDegrees>
              <LongitudeDegrees>-2.02660161070525646209716796875</LongitudeDegrees>
            </Position>
            <AltitudeMeters>30</AltitudeMeters>
            <DistanceMeters>NAN</DistanceMeters>
          </Trackpoint>
          <Trackpoint>
            <Time>2021-08-12T15:01:18.000Z</Time>
            <Position>
              <LatitudeDegrees>43.27531370334327220916748046875</LatitudeDegrees>
              <LongitudeDegrees>-2.02657177112996578216552734375</LongitudeDegrees>
            </Position>
            <AltitudeMeters>30.200000762939453125</AltitudeMeters>
            <DistanceMeters>NAN</DistanceMeters>
          </Trackpoint>
          <Trackpoint>
            <Time>2021-08-12T15:01:19.000Z</Time>
            <Position>
              <LatitudeDegrees>43.27532283961772918701171875</LatitudeDegrees>
              <LongitudeDegrees>-2.02654092572629451751708984375</LongitudeDegrees>
            </Position>
            <AltitudeMeters>30.3999996185302734375</AltitudeMeters>
            <DistanceMeters>NAN</DistanceMeters>
          </Trackpoint>
          <Trackpoint>
            <Time>2021-08-12T15:01:20.000Z</Time>
            <Position>
              <LatitudeDegrees>43.27533415518701076507568359375</LatitudeDegrees>
              <LongitudeDegrees>-2.02651125378906726837158203125</LongitudeDegrees>
            </Position>
            <AltitudeMeters>30.6000003814697265625</AltitudeMeters>
            <DistanceMeters>NAN</DistanceMeters>
          </Trackpoint>
          <Trackpoint>
            <Time>2021-08-12T15:01:21.000Z</Time>
            <Position>
              <LatitudeDegrees>43.2753463089466094970703125</LatitudeDegrees>
              <LongitudeDegrees>-2.0264828391373157501220703125</LongitudeDegrees>
            </Position>
            <AltitudeMeters>30.799999237060546875</AltitudeMeters>
            <DistanceMeters>NAN</DistanceMeters>
          </Trackpoint>
          <Trackpoint>
            <Time>2021-08-12T15:01:22.000Z</Time>
            <Position>
              <LatitudeDegrees>43.2753592170774936676025390625</LatitudeDegrees>
              <LongitudeDegrees>-2.02645978890359401702880859375</LongitudeDegrees>
            </Position>
            <AltitudeMeters>31</AltitudeMeters>
            <DistanceMeters>NAN</DistanceMeters>
          </Trackpoint>
          <Trackpoint>
            <Time>2021-08-12T15:01:23.000Z</Time>
            <Position>
              <LatitudeDegrees>43.2753769867122173309326171875</LatitudeDegrees>
              <LongitudeDegrees>-2.02644268982112407684326171875</LongitudeDegrees>
            </Position>
            <AltitudeMeters>31</AltitudeMeters>
            <DistanceMeters>NAN</DistanceMeters>
          </Trackpoint>
          <Trackpoint>
            <Time>2021-08-12T15:01:24.000Z</Time>
            <Position>
              <LatitudeDegrees>43.2753954268991947174072265625</LatitudeDegrees>
              <LongitudeDegrees>-2.0264325477182865142822265625</LongitudeDegrees>
            </Position>
            <AltitudeMeters>31</AltitudeMeters>
            <DistanceMeters>NAN</DistanceMeters>
          </Trackpoint>
          <Trackpoint>
            <Time>2021-08-12T15:01:25.000Z</Time>
            <Position>
              <LatitudeDegrees>43.275413028895854949951171875</LatitudeDegrees>
              <LongitudeDegrees>-2.02642592601478099822998046875</LongitudeDegrees>
            </Position>
            <AltitudeMeters>31</AltitudeMeters>
            <DistanceMeters>NAN</DistanceMeters>
          </Trackpoint>
          <Trackpoint>
            <Time>2021-08-12T15:01:26.000Z</Time>
            <Position>
              <LatitudeDegrees>43.27543054707348346710205078125</LatitudeDegrees>
              <LongitudeDegrees>-2.0264211483299732208251953125</LongitudeDegrees>
            </Position>
            <AltitudeMeters>31.200000762939453125</AltitudeMeters>
            <DistanceMeters>NAN</DistanceMeters>
          </Trackpoint>
          <Trackpoint>
            <Time>2021-08-12T15:01:27.000Z</Time>
            <Position>
              <LatitudeDegrees>43.27544429339468479156494140625</LatitudeDegrees>
              <LongitudeDegrees>-2.026417292654514312744140625</LongitudeDegrees>
            </Position>
            <AltitudeMeters>31.200000762939453125</AltitudeMeters>
            <DistanceMeters>NAN</DistanceMeters>
          </Trackpoint>
          <Trackpoint>
            <Time>2021-08-12T15:01:28.000Z</Time>
            <Position>
              <LatitudeDegrees>43.27545703388750553131103515625</LatitudeDegrees>
              <LongitudeDegrees>-2.02641226351261138916015625</LongitudeDegrees>
            </Position>
            <AltitudeMeters>31.200000762939453125</AltitudeMeters>
            <DistanceMeters>NAN</DistanceMeters>
          </Trackpoint>
          <Trackpoint>
            <Time>2021-08-12T15:01:29.000Z</Time>
            <Position>
              <LatitudeDegrees>43.27547044493257999420166015625</LatitudeDegrees>
              <LongitudeDegrees>-2.0264087431132793426513671875</LongitudeDegrees>
            </Position>
            <AltitudeMeters>31.200000762939453125</AltitudeMeters>
            <DistanceMeters>NAN</DistanceMeters>
          </Trackpoint>
          <Trackpoint>
            <Time>2021-08-12T15:01:30.000Z</Time>
            <Position>
              <LatitudeDegrees>43.2754825986921787261962890625</LatitudeDegrees>
              <LongitudeDegrees>-2.02641100622713565826416015625</LongitudeDegrees>
            </Position>
            <AltitudeMeters>31.200000762939453125</AltitudeMeters>
            <DistanceMeters>NAN</DistanceMeters>
          </Trackpoint>
          <Trackpoint>
            <Time>2021-08-12T15:01:31.000Z</Time>
            <Position>
              <LatitudeDegrees>43.27549290843307971954345703125</LatitudeDegrees>
              <LongitudeDegrees>-2.02642274089157581329345703125</LongitudeDegrees>
            </Position>
            <AltitudeMeters>31.200000762939453125</AltitudeMeters>
            <DistanceMeters>NAN</DistanceMeters>
          </Trackpoint>
          <Trackpoint>
            <Time>2021-08-12T15:01:32.000Z</Time>
            <Position>
              <LatitudeDegrees>43.27550497837364673614501953125</LatitudeDegrees>
              <LongitudeDegrees>-2.0264382474124431610107421875</LongitudeDegrees>
            </Position>
            <AltitudeMeters>31.200000762939453125</AltitudeMeters>
            <DistanceMeters>NAN</DistanceMeters>
          </Trackpoint>
          <Trackpoint>
            <Time>2021-08-12T15:01:33.000Z</Time>
            <Position>
              <LatitudeDegrees>43.2755127735435962677001953125</LatitudeDegrees>
              <LongitudeDegrees>-2.02644822187721729278564453125</LongitudeDegrees>
            </Position>
            <AltitudeMeters>31.3999996185302734375</AltitudeMeters>
            <DistanceMeters>NAN</DistanceMeters>
          </Trackpoint>
          <Trackpoint>
            <Time>2021-08-12T15:01:35.000Z</Time>
            <Position>
              <LatitudeDegrees>43.27551503665745258331298828125</LatitudeDegrees>
              <LongitudeDegrees>-2.0264531672000885009765625</LongitudeDegrees>
            </Position>
            <AltitudeMeters>31.3999996185302734375</AltitudeMeters>
            <DistanceMeters>NAN</DistanceMeters>
          </Trackpoint>
          <Trackpoint>
            <Time>2021-08-12T15:02:36.000Z</Time>
            <Position>
              <LatitudeDegrees>43.27551503665745258331298828125</LatitudeDegrees>
              <LongitudeDegrees>-2.0264531672000885009765625</LongitudeDegrees>
            </Position>
            <AltitudeMeters>31</AltitudeMeters>
            <DistanceMeters>NAN</DistanceMeters>
          </Trackpoint>
          <Trackpoint>
            <Time>2021-08-12T15:02:41.000Z</Time>
            <Position>
              <LatitudeDegrees>43.27551336027681827545166015625</LatitudeDegrees>
              <LongitudeDegrees>-2.02645383775234222412109375</LongitudeDegrees>
            </Position>
            <AltitudeMeters>31</AltitudeMeters>
            <DistanceMeters>NAN</DistanceMeters>
          </Trackpoint>
          <Trackpoint>
            <Time>2021-08-12T15:02:43.000Z</Time>
            <Position>
              <LatitudeDegrees>43.275487124919891357421875</LatitudeDegrees>
              <LongitudeDegrees>-2.02644285745918750762939453125</LongitudeDegrees>
            </Position>
            <AltitudeMeters>31</AltitudeMeters>
            <DistanceMeters>NAN</DistanceMeters>
          </Trackpoint>
          <Trackpoint>
            <Time>2021-08-12T15:02:44.000Z</Time>
            <Position>
              <LatitudeDegrees>43.27547438442707061767578125</LatitudeDegrees>
              <LongitudeDegrees>-2.02643766067922115325927734375</LongitudeDegrees>
            </Position>
            <AltitudeMeters>31</AltitudeMeters>
            <DistanceMeters>NAN</DistanceMeters>
          </Trackpoint>
          <Trackpoint>
            <Time>2021-08-12T15:02:45.000Z</Time>
            <Position>
              <LatitudeDegrees>43.2754614762961864471435546875</LatitudeDegrees>
              <LongitudeDegrees>-2.02642458491027355194091796875</LongitudeDegrees>
            </Position>
            <AltitudeMeters>31</AltitudeMeters>
            <DistanceMeters>NAN</DistanceMeters>
          </Trackpoint>
          <Trackpoint>
            <Time>2021-08-12T15:02:46.000Z</Time>
            <Position>
              <LatitudeDegrees>43.27544697560369968414306640625</LatitudeDegrees>
              <LongitudeDegrees>-2.0264097489416599273681640625</LongitudeDegrees>
            </Position>
            <AltitudeMeters>31</AltitudeMeters>
            <DistanceMeters>NAN</DistanceMeters>
          </Trackpoint>
          <Trackpoint>
            <Time>2021-08-12T15:02:48.000Z</Time>
            <Position>
              <LatitudeDegrees>43.275421075522899627685546875</LatitudeDegrees>
              <LongitudeDegrees>-2.0263822562992572784423828125</LongitudeDegrees>
            </Position>
            <AltitudeMeters>31</AltitudeMeters>
            <DistanceMeters>NAN</DistanceMeters>
          </Trackpoint>
          <Trackpoint>
            <Time>2021-08-12T15:02:49.000Z</Time>
            <Position>
              <LatitudeDegrees>43.27541671693325042724609375</LatitudeDegrees>
              <LongitudeDegrees>-2.026365660130977630615234375</LongitudeDegrees>
            </Position>
            <AltitudeMeters>31</AltitudeMeters>
            <DistanceMeters>NAN</DistanceMeters>
          </Trackpoint>
          <Trackpoint>
            <Time>2021-08-12T15:02:50.000Z</Time>
            <Position>
              <LatitudeDegrees>43.2754172198474407196044921875</LatitudeDegrees>
              <LongitudeDegrees>-2.02635191380977630615234375</LongitudeDegrees>
            </Position>
            <AltitudeMeters>31</AltitudeMeters>
            <DistanceMeters>NAN</DistanceMeters>
          </Trackpoint>
          <Trackpoint>
            <Time>2021-08-12T15:02:52.000Z</Time>
            <Position>
              <LatitudeDegrees>43.275419063866138458251953125</LatitudeDegrees>
              <LongitudeDegrees>-2.026347555220127105712890625</LongitudeDegrees>
            </Position>
            <AltitudeMeters>31.3999996185302734375</AltitudeMeters>
            <DistanceMeters>NAN</DistanceMeters>
          </Trackpoint>
          <Trackpoint>
            <Time>2021-08-12T15:03:24.000Z</Time>
            <Position>
              <LatitudeDegrees>43.275419063866138458251953125</LatitudeDegrees>
              <LongitudeDegrees>-2.026347555220127105712890625</LongitudeDegrees>
            </Position>
            <AltitudeMeters>31.6000003814697265625</AltitudeMeters>
            <DistanceMeters>NAN</DistanceMeters>
          </Trackpoint>
          <Trackpoint>
            <Time>2021-08-12T15:04:23.000Z</Time>
            <Position>
              <LatitudeDegrees>43.27541981823742389678955078125</LatitudeDegrees>
              <LongitudeDegrees>-2.02634529210627079010009765625</LongitudeDegrees>
            </Position>
            <AltitudeMeters>31.3999996185302734375</AltitudeMeters>
            <DistanceMeters>NAN</DistanceMeters>
          </Trackpoint>
          <Trackpoint>
            <Time>2021-08-12T15:04:26.000Z</Time>
            <Position>
              <LatitudeDegrees>43.2754361629486083984375</LatitudeDegrees>
              <LongitudeDegrees>-2.026243619620800018310546875</LongitudeDegrees>
            </Position>
            <AltitudeMeters>31.3999996185302734375</AltitudeMeters>
            <DistanceMeters>NAN</DistanceMeters>
          </Trackpoint>
          <Trackpoint>
            <Time>2021-08-12T15:04:31.000Z</Time>
            <Position>
              <LatitudeDegrees>43.2754541002213954925537109375</LatitudeDegrees>
              <LongitudeDegrees>-2.0260409452021121978759765625</LongitudeDegrees>
            </Position>
            <AltitudeMeters>31.3999996185302734375</AltitudeMeters>
            <DistanceMeters>NAN</DistanceMeters>
          </Trackpoint>
          <Trackpoint>
            <Time>2021-08-12T15:04:32.000Z</Time>
            <Position>
              <LatitudeDegrees>43.27545971609652042388916015625</LatitudeDegrees>
              <LongitudeDegrees>-2.0259923301637172698974609375</LongitudeDegrees>
            </Position>
            <AltitudeMeters>31.3999996185302734375</AltitudeMeters>
            <DistanceMeters>NAN</DistanceMeters>
          </Trackpoint>
          <Trackpoint>
            <Time>2021-08-12T15:04:33.000Z</Time>
            <Position>
              <LatitudeDegrees>43.2754614762961864471435546875</LatitudeDegrees>
              <LongitudeDegrees>-2.02595871873199939727783203125</LongitudeDegrees>
            </Position>
            <AltitudeMeters>31.3999996185302734375</AltitudeMeters>
            <DistanceMeters>NAN</DistanceMeters>
          </Trackpoint>
          <Trackpoint>
            <Time>2021-08-12T15:04:39.000Z</Time>
            <Position>
              <LatitudeDegrees>43.275445215404033660888671875</LatitudeDegrees>
              <LongitudeDegrees>-2.02564892359077930450439453125</LongitudeDegrees>
            </Position>
            <AltitudeMeters>31.3999996185302734375</AltitudeMeters>
            <DistanceMeters>NAN</DistanceMeters>
          </Trackpoint>
          <Trackpoint>
            <Time>2021-08-12T15:04:41.000Z</Time>
            <Position>
              <LatitudeDegrees>43.27543440274894237518310546875</LatitudeDegrees>
              <LongitudeDegrees>-2.025537528097629547119140625</LongitudeDegrees>
            </Position>
            <AltitudeMeters>31.3999996185302734375</AltitudeMeters>
            <DistanceMeters>NAN</DistanceMeters>
          </Trackpoint>
          <Trackpoint>
            <Time>2021-08-12T15:04:47.000Z</Time>
            <Position>
              <LatitudeDegrees>43.27539450488984584808349609375</LatitudeDegrees>
              <LongitudeDegrees>-2.0251898467540740966796875</LongitudeDegrees>
            </Position>
            <AltitudeMeters>31.3999996185302734375</AltitudeMeters>
            <DistanceMeters>NAN</DistanceMeters>
          </Trackpoint>
          <Trackpoint>
            <Time>2021-08-12T15:04:55.000Z</Time>
            <Position>
              <LatitudeDegrees>43.2753391005098819732666015625</LatitudeDegrees>
              <LongitudeDegrees>-2.02469590120017528533935546875</LongitudeDegrees>
            </Position>
            <AltitudeMeters>31.6000003814697265625</AltitudeMeters>
            <DistanceMeters>NAN</DistanceMeters>
          </Trackpoint>
          <Trackpoint>
            <Time>2021-08-12T15:05:03.000Z</Time>
            <Position>
              <LatitudeDegrees>43.27527564950287342071533203125</LatitudeDegrees>
              <LongitudeDegrees>-2.02417136169970035552978515625</LongitudeDegrees>
            </Position>
            <AltitudeMeters>31.3999996185302734375</AltitudeMeters>
            <DistanceMeters>NAN</DistanceMeters>
          </Trackpoint>
          <Trackpoint>
            <Time>2021-08-12T15:05:08.000Z</Time>
            <Position>
              <LatitudeDegrees>43.27523658983409404754638671875</LatitudeDegrees>
              <LongitudeDegrees>-2.02384497039020061492919921875</LongitudeDegrees>
            </Position>
            <AltitudeMeters>31.3999996185302734375</AltitudeMeters>
            <DistanceMeters>NAN</DistanceMeters>
          </Trackpoint>
          <Trackpoint>
            <Time>2021-08-12T15:05:10.000Z</Time>
            <Position>
              <LatitudeDegrees>43.27522284351289272308349609375</LatitudeDegrees>
              <LongitudeDegrees>-2.0237054117023944854736328125</LongitudeDegrees>
            </Position>
            <AltitudeMeters>31.3999996185302734375</AltitudeMeters>
            <DistanceMeters>NAN</DistanceMeters>
          </Trackpoint>
          <Trackpoint>
            <Time>2021-08-12T15:05:13.000Z</Time>
            <Position>
              <LatitudeDegrees>43.27520842663943767547607421875</LatitudeDegrees>
              <LongitudeDegrees>-2.02352059073746204376220703125</LongitudeDegrees>
            </Position>
            <AltitudeMeters>31.200000762939453125</AltitudeMeters>
            <DistanceMeters>NAN</DistanceMeters>
          </Trackpoint>
          <Trackpoint>
            <Time>2021-08-12T15:05:16.000Z</Time>
            <Position>
              <LatitudeDegrees>43.27518629841506481170654296875</LatitudeDegrees>
              <LongitudeDegrees>-2.0233198441565036773681640625</LongitudeDegrees>
            </Position>
            <AltitudeMeters>31</AltitudeMeters>
            <DistanceMeters>NAN</DistanceMeters>
          </Trackpoint>
          <Trackpoint>
            <Time>2021-08-12T15:05:17.000Z</Time>
            <Position>
              <LatitudeDegrees>43.27518193982541561126708984375</LatitudeDegrees>
              <LongitudeDegrees>-2.02325656078755855560302734375</LongitudeDegrees>
            </Position>
            <AltitudeMeters>31</AltitudeMeters>
            <DistanceMeters>NAN</DistanceMeters>
          </Trackpoint>
          <Trackpoint>
            <Time>2021-08-12T15:05:18.000Z</Time>
            <Position>
              <LatitudeDegrees>43.27517724595963954925537109375</LatitudeDegrees>
              <LongitudeDegrees>-2.02319570817053318023681640625</LongitudeDegrees>
            </Position>
            <AltitudeMeters>31</AltitudeMeters>
            <DistanceMeters>NAN</DistanceMeters>
          </Trackpoint>
          <Trackpoint>
            <Time>2021-08-12T15:05:19.000Z</Time>
            <Position>
              <LatitudeDegrees>43.2751711271703243255615234375</LatitudeDegrees>
              <LongitudeDegrees>-2.02313326299190521240234375</LongitudeDegrees>
            </Position>
            <AltitudeMeters>31</AltitudeMeters>
            <DistanceMeters>NAN</DistanceMeters>
          </Trackpoint>
          <Trackpoint>
            <Time>2021-08-12T15:05:20.000Z</Time>
            <Position>
              <LatitudeDegrees>43.275165259838104248046875</LatitudeDegrees>
              <LongitudeDegrees>-2.023072578012943267822265625</LongitudeDegrees>
            </Position>
            <AltitudeMeters>31</AltitudeMeters>
            <DistanceMeters>NAN</DistanceMeters>
          </Trackpoint>
          <Trackpoint>
            <Time>2021-08-12T15:05:21.000Z</Time>
            <Position>
              <LatitudeDegrees>43.275159895420074462890625</LatitudeDegrees>
              <LongitudeDegrees>-2.0230110548436641693115234375</LongitudeDegrees>
            </Position>
            <AltitudeMeters>31</AltitudeMeters>
            <DistanceMeters>NAN</DistanceMeters>
          </Trackpoint>
          <Trackpoint>
            <Time>2021-08-12T15:05:22.000Z</Time>
            <Position>
              <LatitudeDegrees>43.27515226788818836212158203125</LatitudeDegrees>
              <LongitudeDegrees>-2.02295011840760707855224609375</LongitudeDegrees>
            </Position>
            <AltitudeMeters>31</AltitudeMeters>
            <DistanceMeters>NAN</DistanceMeters>
          </Trackpoint>
          <Trackpoint>
            <Time>2021-08-12T15:05:23.000Z</Time>
            <Position>
              <LatitudeDegrees>43.2751429639756679534912109375</LatitudeDegrees>
              <LongitudeDegrees>-2.0228886790573596954345703125</LongitudeDegrees>
            </Position>
            <AltitudeMeters>31</AltitudeMeters>
            <DistanceMeters>NAN</DistanceMeters>
          </Trackpoint>
          <Trackpoint>
            <Time>2021-08-12T15:05:24.000Z</Time>
            <Position>
              <LatitudeDegrees>43.27513650991022586822509765625</LatitudeDegrees>
              <LongitudeDegrees>-2.022829838097095489501953125</LongitudeDegrees>
            </Position>
            <AltitudeMeters>31</AltitudeMeters>
            <DistanceMeters>NAN</DistanceMeters>
          </Trackpoint>
          <Trackpoint>
            <Time>2021-08-12T15:05:25.000Z</Time>
            <Position>
              <LatitudeDegrees>43.2751290500164031982421875</LatitudeDegrees>
              <LongitudeDegrees>-2.022770158946514129638671875</LongitudeDegrees>
            </Position>
            <AltitudeMeters>31</AltitudeMeters>
            <DistanceMeters>NAN</DistanceMeters>
          </Trackpoint>
          <Trackpoint>
            <Time>2021-08-12T15:05:26.000Z</Time>
            <Position>
              <LatitudeDegrees>43.27512167394161224365234375</LatitudeDegrees>
              <LongitudeDegrees>-2.02270871959626674652099609375</LongitudeDegrees>
            </Position>
            <AltitudeMeters>31</AltitudeMeters>
            <DistanceMeters>NAN</DistanceMeters>
          </Trackpoint>
          <Trackpoint>
            <Time>2021-08-12T15:05:27.000Z</Time>
            <Position>
              <LatitudeDegrees>43.2751148007810115814208984375</LatitudeDegrees>
              <LongitudeDegrees>-2.0226509682834148406982421875</LongitudeDegrees>
            </Position>
            <AltitudeMeters>30.799999237060546875</AltitudeMeters>
            <DistanceMeters>NAN</DistanceMeters>
          </Trackpoint>
          <Trackpoint>
            <Time>2021-08-12T15:05:29.000Z</Time>
            <Position>
              <LatitudeDegrees>43.27509845606982707977294921875</LatitudeDegrees>
              <LongitudeDegrees>-2.0225373096764087677001953125</LongitudeDegrees>
            </Position>
            <AltitudeMeters>30.799999237060546875</AltitudeMeters>
            <DistanceMeters>NAN</DistanceMeters>
          </Trackpoint>
          <Trackpoint>
            <Time>2021-08-12T15:05:30.000Z</Time>
            <Position>
              <LatitudeDegrees>43.27508990652859210968017578125</LatitudeDegrees>
              <LongitudeDegrees>-2.02248089946806430816650390625</LongitudeDegrees>
            </Position>
            <AltitudeMeters>30.799999237060546875</AltitudeMeters>
            <DistanceMeters>NAN</DistanceMeters>
          </Trackpoint>
          <Trackpoint>
            <Time>2021-08-12T15:05:31.000Z</Time>
            <Position>
              <LatitudeDegrees>43.27508068643510341644287109375</LatitudeDegrees>
              <LongitudeDegrees>-2.0224244892597198486328125</LongitudeDegrees>
            </Position>
            <AltitudeMeters>30.799999237060546875</AltitudeMeters>
            <DistanceMeters>NAN</DistanceMeters>
          </Trackpoint>
          <Trackpoint>
            <Time>2021-08-12T15:05:32.000Z</Time>
            <Position>
              <LatitudeDegrees>43.2750645093619823455810546875</LatitudeDegrees>
              <LongitudeDegrees>-2.02236640267074108123779296875</LongitudeDegrees>
            </Position>
            <AltitudeMeters>30.799999237060546875</AltitudeMeters>
            <DistanceMeters>NAN</DistanceMeters>
          </Trackpoint>
          <Trackpoint>
            <Time>2021-08-12T15:05:33.000Z</Time>
            <Position>
              <LatitudeDegrees>43.275050260126590728759765625</LatitudeDegrees>
              <LongitudeDegrees>-2.02231074683368206024169921875</LongitudeDegrees>
            </Position>
            <AltitudeMeters>30.799999237060546875</AltitudeMeters>
            <DistanceMeters>NAN</DistanceMeters>
          </Trackpoint>
          <Trackpoint>
            <Time>2021-08-12T15:05:34.000Z</Time>
            <Position>
              <LatitudeDegrees>43.275041878223419189453125</LatitudeDegrees>
              <LongitudeDegrees>-2.02225341461598873138427734375</LongitudeDegrees>
            </Position>
            <AltitudeMeters>30.6000003814697265625</AltitudeMeters>
            <DistanceMeters>NAN</DistanceMeters>
          </Trackpoint>
          <Trackpoint>
            <Time>2021-08-12T15:05:35.000Z</Time>
            <Position>
              <LatitudeDegrees>43.27503584325313568115234375</LatitudeDegrees>
              <LongitudeDegrees>-2.022200189530849456787109375</LongitudeDegrees>
            </Position>
            <AltitudeMeters>30.6000003814697265625</AltitudeMeters>
            <DistanceMeters>NAN</DistanceMeters>
          </Trackpoint>
          <Trackpoint>
            <Time>2021-08-12T15:05:36.000Z</Time>
            <Position>
              <LatitudeDegrees>43.2750303111970424652099609375</LatitudeDegrees>
              <LongitudeDegrees>-2.02214621007442474365234375</LongitudeDegrees>
            </Position>
            <AltitudeMeters>30.6000003814697265625</AltitudeMeters>
            <DistanceMeters>NAN</DistanceMeters>
          </Trackpoint>
          <Trackpoint>
            <Time>2021-08-12T15:05:37.000Z</Time>
            <Position>
              <LatitudeDegrees>43.27502419240772724151611328125</LatitudeDegrees>
              <LongitudeDegrees>-2.02209130860865116119384765625</LongitudeDegrees>
            </Position>
            <AltitudeMeters>30.6000003814697265625</AltitudeMeters>
            <DistanceMeters>NAN</DistanceMeters>
          </Trackpoint>
          <Trackpoint>
            <Time>2021-08-12T15:05:38.000Z</Time>
            <Position>
              <LatitudeDegrees>43.275018073618412017822265625</LatitudeDegrees>
              <LongitudeDegrees>-2.02203783206641674041748046875</LongitudeDegrees>
            </Position>
            <AltitudeMeters>30.6000003814697265625</AltitudeMeters>
            <DistanceMeters>NAN</DistanceMeters>
          </Trackpoint>
          <Trackpoint>
            <Time>2021-08-12T15:05:39.000Z</Time>
            <Position>
              <LatitudeDegrees>43.27500826679170131683349609375</LatitudeDegrees>
              <LongitudeDegrees>-2.02197060920298099517822265625</LongitudeDegrees>
            </Position>
            <AltitudeMeters>30.3999996185302734375</AltitudeMeters>
            <DistanceMeters>NAN</DistanceMeters>
          </Trackpoint>
          <Trackpoint>
            <Time>2021-08-12T15:05:44.000Z</Time>
            <Position>
              <LatitudeDegrees>43.27500927262008190155029296875</LatitudeDegrees>
              <LongitudeDegrees>-2.0217085070908069610595703125</LongitudeDegrees>
            </Position>
            <AltitudeMeters>30</AltitudeMeters>
            <DistanceMeters>NAN</DistanceMeters>
          </Trackpoint>
          <Trackpoint>
            <Time>2021-08-12T15:05:45.000Z</Time>
            <Position>
              <LatitudeDegrees>43.27501312829554080963134765625</LatitudeDegrees>
              <LongitudeDegrees>-2.02166081406176090240478515625</LongitudeDegrees>
            </Position>
            <AltitudeMeters>30</AltitudeMeters>
            <DistanceMeters>NAN</DistanceMeters>
          </Trackpoint>
          <Trackpoint>
            <Time>2021-08-12T15:05:46.000Z</Time>
            <Position>
              <LatitudeDegrees>43.2750271260738372802734375</LatitudeDegrees>
              <LongitudeDegrees>-2.02161974273622035980224609375</LongitudeDegrees>
            </Position>
            <AltitudeMeters>30</AltitudeMeters>
            <DistanceMeters>NAN</DistanceMeters>
          </Trackpoint>
          <Trackpoint>
            <Time>2021-08-12T15:05:47.000Z</Time>
            <Position>
              <LatitudeDegrees>43.2750464044511318206787109375</LatitudeDegrees>
              <LongitudeDegrees>-2.02158990316092967987060546875</LongitudeDegrees>
            </Position>
            <AltitudeMeters>29.799999237060546875</AltitudeMeters>
            <DistanceMeters>NAN</DistanceMeters>
          </Trackpoint>
          <Trackpoint>
            <Time>2021-08-12T15:05:48.000Z</Time>
            <Position>
              <LatitudeDegrees>43.2750658504664897918701171875</LatitudeDegrees>
              <LongitudeDegrees>-2.0215663500130176544189453125</LongitudeDegrees>
            </Position>
            <AltitudeMeters>29.799999237060546875</AltitudeMeters>
            <DistanceMeters>NAN</DistanceMeters>
          </Trackpoint>
          <Trackpoint>
            <Time>2021-08-12T15:05:49.000Z</Time>
            <Position>
              <LatitudeDegrees>43.2750832848250865936279296875</LatitudeDegrees>
              <LongitudeDegrees>-2.02155754901468753814697265625</LongitudeDegrees>
            </Position>
            <AltitudeMeters>29.799999237060546875</AltitudeMeters>
            <DistanceMeters>NAN</DistanceMeters>
          </Trackpoint>
          <Trackpoint>
            <Time>2021-08-12T15:05:50.000Z</Time>
            <Position>
              <LatitudeDegrees>43.27509443275630474090576171875</LatitudeDegrees>
              <LongitudeDegrees>-2.02154983766376972198486328125</LongitudeDegrees>
            </Position>
            <AltitudeMeters>29.799999237060546875</AltitudeMeters>
            <DistanceMeters>NAN</DistanceMeters>
          </Trackpoint>
          <Trackpoint>
            <Time>2021-08-12T15:05:51.000Z</Time>
            <Position>
              <LatitudeDegrees>43.27509812079370021820068359375</LatitudeDegrees>
              <LongitudeDegrees>-2.02154631726443767547607421875</LongitudeDegrees>
            </Position>
            <AltitudeMeters>29.799999237060546875</AltitudeMeters>
            <DistanceMeters>NAN</DistanceMeters>
          </Trackpoint>
          <Trackpoint>
            <Time>2021-08-12T15:05:58.000Z</Time>
            <Position>
              <LatitudeDegrees>43.27509812079370021820068359375</LatitudeDegrees>
              <LongitudeDegrees>-2.02154631726443767547607421875</LongitudeDegrees>
            </Position>
            <AltitudeMeters>29.6000003814697265625</AltitudeMeters>
            <DistanceMeters>NAN</DistanceMeters>
          </Trackpoint>
          <Trackpoint>
            <Time>2021-08-12T15:06:00.000Z</Time>
            <Position>
              <LatitudeDegrees>43.27509812079370021820068359375</LatitudeDegrees>
              <LongitudeDegrees>-2.02154631726443767547607421875</LongitudeDegrees>
            </Position>
            <AltitudeMeters>29.6000003814697265625</AltitudeMeters>
            <DistanceMeters>NAN</DistanceMeters>
          </Trackpoint>
          <Trackpoint>
            <Time>2021-08-12T15:06:30.000Z</Time>
            <Position>
              <LatitudeDegrees>43.27508144080638885498046875</LatitudeDegrees>
              <LongitudeDegrees>-2.02154539525508880615234375</LongitudeDegrees>
            </Position>
            <AltitudeMeters>29.3999996185302734375</AltitudeMeters>
            <DistanceMeters>NAN</DistanceMeters>
          </Trackpoint>
          <Trackpoint>
            <Time>2021-08-12T15:06:32.000Z</Time>
            <Position>
              <LatitudeDegrees>43.27503542415797710418701171875</LatitudeDegrees>
              <LongitudeDegrees>-2.02156484127044677734375</LongitudeDegrees>
            </Position>
            <AltitudeMeters>29.3999996185302734375</AltitudeMeters>
            <DistanceMeters>NAN</DistanceMeters>
          </Trackpoint>
          <Trackpoint>
            <Time>2021-08-12T15:06:35.000Z</Time>
            <Position>
              <LatitudeDegrees>43.27491489239037036895751953125</LatitudeDegrees>
              <LongitudeDegrees>-2.02155469916760921478271484375</LongitudeDegrees>
            </Position>
            <AltitudeMeters>29.3999996185302734375</AltitudeMeters>
            <DistanceMeters>NAN</DistanceMeters>
          </Trackpoint>
          <Trackpoint>
            <Time>2021-08-12T15:06:36.000Z</Time>
            <Position>
              <LatitudeDegrees>43.2748730666935443878173828125</LatitudeDegrees>
              <LongitudeDegrees>-2.021525613963603973388671875</LongitudeDegrees>
            </Position>
            <AltitudeMeters>29.3999996185302734375</AltitudeMeters>
            <DistanceMeters>NAN</DistanceMeters>
          </Trackpoint>
          <Trackpoint>
            <Time>2021-08-12T15:06:37.000Z</Time>
            <Position>
              <LatitudeDegrees>43.27483861707150936126708984375</LatitudeDegrees>
              <LongitudeDegrees>-2.02148010022938251495361328125</LongitudeDegrees>
            </Position>
            <AltitudeMeters>29.200000762939453125</AltitudeMeters>
            <DistanceMeters>NAN</DistanceMeters>
          </Trackpoint>
          <Trackpoint>
            <Time>2021-08-12T15:06:39.000Z</Time>
            <Position>
              <LatitudeDegrees>43.27480592764914035797119140625</LatitudeDegrees>
              <LongitudeDegrees>-2.0213601551949977874755859375</LongitudeDegrees>
            </Position>
            <AltitudeMeters>29.200000762939453125</AltitudeMeters>
            <DistanceMeters>NAN</DistanceMeters>
          </Trackpoint>
          <Trackpoint>
            <Time>2021-08-12T15:06:41.000Z</Time>
            <Position>
              <LatitudeDegrees>43.27482621185481548309326171875</LatitudeDegrees>
              <LongitudeDegrees>-2.02122998423874378204345703125</LongitudeDegrees>
            </Position>
            <AltitudeMeters>29.200000762939453125</AltitudeMeters>
            <DistanceMeters>NAN</DistanceMeters>
          </Trackpoint>
          <Trackpoint>
            <Time>2021-08-12T15:06:42.000Z</Time>
            <Position>
              <LatitudeDegrees>43.27485772781074047088623046875</LatitudeDegrees>
              <LongitudeDegrees>-2.02117717824876308441162109375</LongitudeDegrees>
            </Position>
            <AltitudeMeters>29.200000762939453125</AltitudeMeters>
            <DistanceMeters>NAN</DistanceMeters>
          </Trackpoint>
          <Trackpoint>
            <Time>2021-08-12T15:06:43.000Z</Time>
            <Position>
              <LatitudeDegrees>43.27490215189754962921142578125</LatitudeDegrees>
              <LongitudeDegrees>-2.0211469195783138275146484375</LongitudeDegrees>
            </Position>
            <AltitudeMeters>29.200000762939453125</AltitudeMeters>
            <DistanceMeters>NAN</DistanceMeters>
          </Trackpoint>
          <Trackpoint>
            <Time>2021-08-12T15:06:45.000Z</Time>
            <Position>
              <LatitudeDegrees>43.2749974541366100311279296875</LatitudeDegrees>
              <LongitudeDegrees>-2.02114046551287174224853515625</LongitudeDegrees>
            </Position>
            <AltitudeMeters>29.200000762939453125</AltitudeMeters>
            <DistanceMeters>NAN</DistanceMeters>
          </Trackpoint>
          <Trackpoint>
            <Time>2021-08-12T15:06:47.000Z</Time>
            <Position>
              <LatitudeDegrees>43.2750896550714969635009765625</LatitudeDegrees>
              <LongitudeDegrees>-2.02116846106946468353271484375</LongitudeDegrees>
            </Position>
            <AltitudeMeters>29.200000762939453125</AltitudeMeters>
            <DistanceMeters>NAN</DistanceMeters>
          </Trackpoint>
          <Trackpoint>
            <Time>2021-08-12T15:06:49.000Z</Time>
            <Position>
              <LatitudeDegrees>43.27518797479569911956787109375</LatitudeDegrees>
              <LongitudeDegrees>-2.02117918990552425384521484375</LongitudeDegrees>
            </Position>
            <AltitudeMeters>29.200000762939453125</AltitudeMeters>
            <DistanceMeters>NAN</DistanceMeters>
          </Trackpoint>
          <Trackpoint>
            <Time>2021-08-12T15:06:50.000Z</Time>
            <Position>
              <LatitudeDegrees>43.27523105777800083160400390625</LatitudeDegrees>
              <LongitudeDegrees>-2.0211821235716342926025390625</LongitudeDegrees>
            </Position>
            <AltitudeMeters>29.200000762939453125</AltitudeMeters>
            <DistanceMeters>NAN</DistanceMeters>
          </Trackpoint>
          <Trackpoint>
            <Time>2021-08-12T15:06:51.000Z</Time>
            <Position>
              <LatitudeDegrees>43.2752723805606365203857421875</LatitudeDegrees>
              <LongitudeDegrees>-2.021182961761951446533203125</LongitudeDegrees>
            </Position>
            <AltitudeMeters>29.3999996185302734375</AltitudeMeters>
            <DistanceMeters>NAN</DistanceMeters>
          </Trackpoint>
          <Trackpoint>
            <Time>2021-08-12T15:06:52.000Z</Time>
            <Position>
              <LatitudeDegrees>43.27531269751489162445068359375</LatitudeDegrees>
              <LongitudeDegrees>-2.02117935754358768463134765625</LongitudeDegrees>
            </Position>
            <AltitudeMeters>29.3999996185302734375</AltitudeMeters>
            <DistanceMeters>NAN</DistanceMeters>
          </Trackpoint>
          <Trackpoint>
            <Time>2021-08-12T15:06:53.000Z</Time>
            <Position>
              <LatitudeDegrees>43.27535309828817844390869140625</LatitudeDegrees>
              <LongitudeDegrees>-2.021175585687160491943359375</LongitudeDegrees>
            </Position>
            <AltitudeMeters>29.3999996185302734375</AltitudeMeters>
            <DistanceMeters>NAN</DistanceMeters>
          </Trackpoint>
          <Trackpoint>
            <Time>2021-08-12T15:06:54.000Z</Time>
            <Position>
              <LatitudeDegrees>43.27539366669952869415283203125</LatitudeDegrees>
              <LongitudeDegrees>-2.021174915134906768798828125</LongitudeDegrees>
            </Position>
            <AltitudeMeters>29.6000003814697265625</AltitudeMeters>
            <DistanceMeters>NAN</DistanceMeters>
          </Trackpoint>
          <Trackpoint>
            <Time>2021-08-12T15:06:55.000Z</Time>
            <Position>
              <LatitudeDegrees>43.27543406747281551361083984375</LatitudeDegrees>
              <LongitudeDegrees>-2.02117533423006534576416015625</LongitudeDegrees>
            </Position>
            <AltitudeMeters>29.799999237060546875</AltitudeMeters>
            <DistanceMeters>NAN</DistanceMeters>
          </Trackpoint>
          <Trackpoint>
            <Time>2021-08-12T15:06:56.000Z</Time>
            <Position>
              <LatitudeDegrees>43.27547279186546802520751953125</LatitudeDegrees>
              <LongitudeDegrees>-2.02117265202105045318603515625</LongitudeDegrees>
            </Position>
            <AltitudeMeters>30</AltitudeMeters>
            <DistanceMeters>NAN</DistanceMeters>
          </Trackpoint>
          <Trackpoint>
            <Time>2021-08-12T15:06:57.000Z</Time>
            <Position>
              <LatitudeDegrees>43.27551101334393024444580078125</LatitudeDegrees>
              <LongitudeDegrees>-2.02116846106946468353271484375</LongitudeDegrees>
            </Position>
            <AltitudeMeters>30</AltitudeMeters>
            <DistanceMeters>NAN</DistanceMeters>
          </Trackpoint>
          <Trackpoint>
            <Time>2021-08-12T15:06:58.000Z</Time>
            <Position>
              <LatitudeDegrees>43.27554839663207530975341796875</LatitudeDegrees>
              <LongitudeDegrees>-2.02115773223340511322021484375</LongitudeDegrees>
            </Position>
            <AltitudeMeters>30.200000762939453125</AltitudeMeters>
            <DistanceMeters>NAN</DistanceMeters>
          </Trackpoint>
          <Trackpoint>
            <Time>2021-08-12T15:06:59.000Z</Time>
            <Position>
              <LatitudeDegrees>43.27557689510285854339599609375</LatitudeDegrees>
              <LongitudeDegrees>-2.02113158069550991058349609375</LongitudeDegrees>
            </Position>
            <AltitudeMeters>30.6000003814697265625</AltitudeMeters>
            <DistanceMeters>NAN</DistanceMeters>
          </Trackpoint>
          <Trackpoint>
            <Time>2021-08-12T15:07:00.000Z</Time>
            <Position>
              <LatitudeDegrees>43.2755996100604534149169921875</LatitudeDegrees>
              <LongitudeDegrees>-2.0210966281592845916748046875</LongitudeDegrees>
            </Position>
            <AltitudeMeters>30.6000003814697265625</AltitudeMeters>
            <DistanceMeters>NAN</DistanceMeters>
          </Trackpoint>
          <Trackpoint>
            <Time>2021-08-12T15:07:01.000Z</Time>
            <Position>
              <LatitudeDegrees>43.27563204802572727203369140625</LatitudeDegrees>
              <LongitudeDegrees>-2.02105999924242496490478515625</LongitudeDegrees>
            </Position>
            <AltitudeMeters>30.799999237060546875</AltitudeMeters>
            <DistanceMeters>NAN</DistanceMeters>
          </Trackpoint>
          <Trackpoint>
            <Time>2021-08-12T15:07:02.000Z</Time>
            <Position>
              <LatitudeDegrees>43.2756574451923370361328125</LatitudeDegrees>
              <LongitudeDegrees>-2.0210470072925090789794921875</LongitudeDegrees>
            </Position>
            <AltitudeMeters>30.799999237060546875</AltitudeMeters>
            <DistanceMeters>NAN</DistanceMeters>
          </Trackpoint>
          <Trackpoint>
            <Time>2021-08-12T15:07:03.000Z</Time>
            <Position>
              <LatitudeDegrees>43.27568971551954746246337890625</LatitudeDegrees>
              <LongitudeDegrees>-2.0210389606654644012451171875</LongitudeDegrees>
            </Position>
            <AltitudeMeters>31</AltitudeMeters>
            <DistanceMeters>NAN</DistanceMeters>
          </Trackpoint>
          <Trackpoint>
            <Time>2021-08-12T15:07:04.000Z</Time>
            <Position>
              <LatitudeDegrees>43.27571938745677471160888671875</LatitudeDegrees>
              <LongitudeDegrees>-2.0210349373519420623779296875</LongitudeDegrees>
            </Position>
            <AltitudeMeters>31.200000762939453125</AltitudeMeters>
            <DistanceMeters>NAN</DistanceMeters>
          </Trackpoint>
          <Trackpoint>
            <Time>2021-08-12T15:07:05.000Z</Time>
            <Position>
              <LatitudeDegrees>43.27575224451720714569091796875</LatitudeDegrees>
              <LongitudeDegrees>-2.02103485353291034698486328125</LongitudeDegrees>
            </Position>
            <AltitudeMeters>31.3999996185302734375</AltitudeMeters>
            <DistanceMeters>NAN</DistanceMeters>
          </Trackpoint>
          <Trackpoint>
            <Time>2021-08-12T15:07:06.000Z</Time>
            <Position>
              <LatitudeDegrees>43.27577940188348293304443359375</LatitudeDegrees>
              <LongitudeDegrees>-2.021034099161624908447265625</LongitudeDegrees>
            </Position>
            <AltitudeMeters>31.6000003814697265625</AltitudeMeters>
            <DistanceMeters>NAN</DistanceMeters>
          </Trackpoint>
          <Trackpoint>
            <Time>2021-08-12T15:07:07.000Z</Time>
            <Position>
              <LatitudeDegrees>43.27580454759299755096435546875</LatitudeDegrees>
              <LongitudeDegrees>-2.0210315845906734466552734375</LongitudeDegrees>
            </Position>
            <AltitudeMeters>31.799999237060546875</AltitudeMeters>
            <DistanceMeters>NAN</DistanceMeters>
          </Trackpoint>
          <Trackpoint>
            <Time>2021-08-12T15:07:08.000Z</Time>
            <Position>
              <LatitudeDegrees>43.27583069913089275360107421875</LatitudeDegrees>
              <LongitudeDegrees>-2.021025717258453369140625</LongitudeDegrees>
            </Position>
            <AltitudeMeters>32</AltitudeMeters>
            <DistanceMeters>NAN</DistanceMeters>
          </Trackpoint>
          <Trackpoint>
            <Time>2021-08-12T15:07:09.000Z</Time>
            <Position>
              <LatitudeDegrees>43.27585601247847080230712890625</LatitudeDegrees>
              <LongitudeDegrees>-2.02101859264075756072998046875</LongitudeDegrees>
            </Position>
            <AltitudeMeters>32</AltitudeMeters>
            <DistanceMeters>NAN</DistanceMeters>
          </Trackpoint>
          <Trackpoint>
            <Time>2021-08-12T15:07:11.000Z</Time>
            <Position>
              <LatitudeDegrees>43.27590848319232463836669921875</LatitudeDegrees>
              <LongitudeDegrees>-2.02099931426346302032470703125</LongitudeDegrees>
            </Position>
            <AltitudeMeters>32.200000762939453125</AltitudeMeters>
            <DistanceMeters>NAN</DistanceMeters>
          </Trackpoint>
          <Trackpoint>
            <Time>2021-08-12T15:07:12.000Z</Time>
            <Position>
              <LatitudeDegrees>43.27593379653990268707275390625</LatitudeDegrees>
              <LongitudeDegrees>-2.0209869928658008575439453125</LongitudeDegrees>
            </Position>
            <AltitudeMeters>32.40000152587890625</AltitudeMeters>
            <DistanceMeters>NAN</DistanceMeters>
          </Trackpoint>
          <Trackpoint>
            <Time>2021-08-12T15:07:13.000Z</Time>
            <Position>
              <LatitudeDegrees>43.2759551703929901123046875</LatitudeDegrees>
              <LongitudeDegrees>-2.0209725759923458099365234375</LongitudeDegrees>
            </Position>
            <AltitudeMeters>32.40000152587890625</AltitudeMeters>
            <DistanceMeters>NAN</DistanceMeters>
          </Trackpoint>
          <Trackpoint>
            <Time>2021-08-12T15:07:14.000Z</Time>
            <Position>
              <LatitudeDegrees>43.275974281132221221923828125</LatitudeDegrees>
              <LongitudeDegrees>-2.02096193097531795501708984375</LongitudeDegrees>
            </Position>
            <AltitudeMeters>32.40000152587890625</AltitudeMeters>
            <DistanceMeters>NAN</DistanceMeters>
          </Trackpoint>
          <Trackpoint>
            <Time>2021-08-12T15:07:15.000Z</Time>
            <Position>
              <LatitudeDegrees>43.27599464915692806243896484375</LatitudeDegrees>
              <LongitudeDegrees>-2.02095103450119495391845703125</LongitudeDegrees>
            </Position>
            <AltitudeMeters>32.59999847412109375</AltitudeMeters>
            <DistanceMeters>NAN</DistanceMeters>
          </Trackpoint>
          <Trackpoint>
            <Time>2021-08-12T15:07:16.000Z</Time>
            <Position>
              <LatitudeDegrees>43.27601862139999866485595703125</LatitudeDegrees>
              <LongitudeDegrees>-2.02094323933124542236328125</LongitudeDegrees>
            </Position>
            <AltitudeMeters>32.59999847412109375</AltitudeMeters>
            <DistanceMeters>NAN</DistanceMeters>
          </Trackpoint>
          <Trackpoint>
            <Time>2021-08-12T15:07:17.000Z</Time>
            <Position>
              <LatitudeDegrees>43.27604494057595729827880859375</LatitudeDegrees>
              <LongitudeDegrees>-2.02093561179935932159423828125</LongitudeDegrees>
            </Position>
            <AltitudeMeters>32.799999237060546875</AltitudeMeters>
            <DistanceMeters>NAN</DistanceMeters>
          </Trackpoint>
          <Trackpoint>
            <Time>2021-08-12T15:07:18.000Z</Time>
            <Position>
              <LatitudeDegrees>43.27607478015124797821044921875</LatitudeDegrees>
              <LongitudeDegrees>-2.02093024738132953643798828125</LongitudeDegrees>
            </Position>
            <AltitudeMeters>33</AltitudeMeters>
            <DistanceMeters>NAN</DistanceMeters>
          </Trackpoint>
          <Trackpoint>
            <Time>2021-08-12T15:07:19.000Z</Time>
            <Position>
              <LatitudeDegrees>43.27610579319298267364501953125</LatitudeDegrees>
              <LongitudeDegrees>-2.0209293253719806671142578125</LongitudeDegrees>
            </Position>
            <AltitudeMeters>33</AltitudeMeters>
            <DistanceMeters>NAN</DistanceMeters>
          </Trackpoint>
          <Trackpoint>
            <Time>2021-08-12T15:07:20.000Z</Time>
            <Position>
              <LatitudeDegrees>43.27613630332052707672119140625</LatitudeDegrees>
              <LongitudeDegrees>-2.02092857100069522857666015625</LongitudeDegrees>
            </Position>
            <AltitudeMeters>33.200000762939453125</AltitudeMeters>
            <DistanceMeters>NAN</DistanceMeters>
          </Trackpoint>
          <Trackpoint>
            <Time>2021-08-12T15:07:21.000Z</Time>
            <Position>
              <LatitudeDegrees>43.2761642150580883026123046875</LatitudeDegrees>
              <LongitudeDegrees>-2.02092857100069522857666015625</LongitudeDegrees>
            </Position>
            <AltitudeMeters>33.200000762939453125</AltitudeMeters>
            <DistanceMeters>NAN</DistanceMeters>
          </Trackpoint>
          <Trackpoint>
            <Time>2021-08-12T15:07:22.000Z</Time>
            <Position>
              <LatitudeDegrees>43.27618910931050777435302734375</LatitudeDegrees>
              <LongitudeDegrees>-2.02092572115361690521240234375</LongitudeDegrees>
            </Position>
            <AltitudeMeters>33.200000762939453125</AltitudeMeters>
            <DistanceMeters>NAN</DistanceMeters>
          </Trackpoint>
          <Trackpoint>
            <Time>2021-08-12T15:07:23.000Z</Time>
            <Position>
              <LatitudeDegrees>43.27621324919164180755615234375</LatitudeDegrees>
              <LongitudeDegrees>-2.02092521823942661285400390625</LongitudeDegrees>
            </Position>
            <AltitudeMeters>33.200000762939453125</AltitudeMeters>
            <DistanceMeters>NAN</DistanceMeters>
          </Trackpoint>
          <Trackpoint>
            <Time>2021-08-12T15:07:24.000Z</Time>
            <Position>
              <LatitudeDegrees>43.27623520977795124053955078125</LatitudeDegrees>
              <LongitudeDegrees>-2.020928151905536651611328125</LongitudeDegrees>
            </Position>
            <AltitudeMeters>33.40000152587890625</AltitudeMeters>
            <DistanceMeters>NAN</DistanceMeters>
          </Trackpoint>
          <Trackpoint>
            <Time>2021-08-12T15:07:25.000Z</Time>
            <Position>
              <LatitudeDegrees>43.27626370824873447418212890625</LatitudeDegrees>
              <LongitudeDegrees>-2.02093519270420074462890625</LongitudeDegrees>
            </Position>
            <AltitudeMeters>33.40000152587890625</AltitudeMeters>
            <DistanceMeters>NAN</DistanceMeters>
          </Trackpoint>
          <Trackpoint>
            <Time>2021-08-12T15:07:26.000Z</Time>
            <Position>
              <LatitudeDegrees>43.27628080733120441436767578125</LatitudeDegrees>
              <LongitudeDegrees>-2.02093779109418392181396484375</LongitudeDegrees>
            </Position>
            <AltitudeMeters>33.59999847412109375</AltitudeMeters>
            <DistanceMeters>NAN</DistanceMeters>
          </Trackpoint>
          <Trackpoint>
            <Time>2021-08-12T15:07:27.000Z</Time>
            <Position>
              <LatitudeDegrees>43.276293464004993438720703125</LatitudeDegrees>
              <LongitudeDegrees>-2.0209330134093761444091796875</LongitudeDegrees>
            </Position>
            <AltitudeMeters>33.59999847412109375</AltitudeMeters>
            <DistanceMeters>NAN</DistanceMeters>
          </Trackpoint>
          <Trackpoint>
            <Time>2021-08-12T15:07:28.000Z</Time>
            <Position>
              <LatitudeDegrees>43.27630109153687953948974609375</LatitudeDegrees>
              <LongitudeDegrees>-2.02091851271688938140869140625</LongitudeDegrees>
            </Position>
            <AltitudeMeters>33.799999237060546875</AltitudeMeters>
            <DistanceMeters>NAN</DistanceMeters>
          </Trackpoint>
          <Trackpoint>
            <Time>2021-08-12T15:07:29.000Z</Time>
            <Position>
              <LatitudeDegrees>43.27630452811717987060546875</LatitudeDegrees>
              <LongitudeDegrees>-2.02090359292924404144287109375</LongitudeDegrees>
            </Position>
            <AltitudeMeters>33.799999237060546875</AltitudeMeters>
            <DistanceMeters>NAN</DistanceMeters>
          </Trackpoint>
          <Trackpoint>
            <Time>2021-08-12T15:07:31.000Z</Time>
            <Position>
              <LatitudeDegrees>43.276304863393306732177734375</LatitudeDegrees>
              <LongitudeDegrees>-2.02089454047381877899169921875</LongitudeDegrees>
            </Position>
            <AltitudeMeters>33.799999237060546875</AltitudeMeters>
            <DistanceMeters>NAN</DistanceMeters>
          </Trackpoint>
          <Trackpoint>
            <Time>2021-08-12T15:07:32.000Z</Time>
            <Position>
              <LatitudeDegrees>43.27630528248846530914306640625</LatitudeDegrees>
              <LongitudeDegrees>-2.0208837278187274932861328125</LongitudeDegrees>
            </Position>
            <AltitudeMeters>33.799999237060546875</AltitudeMeters>
            <DistanceMeters>NAN</DistanceMeters>
          </Trackpoint>
          <Trackpoint>
            <Time>2021-08-12T15:07:33.000Z</Time>
            <Position>
              <LatitudeDegrees>43.276306875050067901611328125</LatitudeDegrees>
              <LongitudeDegrees>-2.020865119993686676025390625</LongitudeDegrees>
            </Position>
            <AltitudeMeters>33.799999237060546875</AltitudeMeters>
            <DistanceMeters>NAN</DistanceMeters>
          </Trackpoint>
          <Trackpoint>
            <Time>2021-08-12T15:07:35.000Z</Time>
            <Position>
              <LatitudeDegrees>43.2763097248971462249755859375</LatitudeDegrees>
              <LongitudeDegrees>-2.0208388008177280426025390625</LongitudeDegrees>
            </Position>
            <AltitudeMeters>34</AltitudeMeters>
            <DistanceMeters>NAN</DistanceMeters>
          </Trackpoint>
          <Trackpoint>
            <Time>2021-08-12T15:07:36.000Z</Time>
            <Position>
              <LatitudeDegrees>43.2763145864009857177734375</LatitudeDegrees>
              <LongitudeDegrees>-2.02082782052457332611083984375</LongitudeDegrees>
            </Position>
            <AltitudeMeters>34</AltitudeMeters>
            <DistanceMeters>NAN</DistanceMeters>
          </Trackpoint>
          <Trackpoint>
            <Time>2021-08-12T15:07:37.000Z</Time>
            <Position>
              <LatitudeDegrees>43.27631701715290546417236328125</LatitudeDegrees>
              <LongitudeDegrees>-2.0208243839442729949951171875</LongitudeDegrees>
            </Position>
            <AltitudeMeters>34</AltitudeMeters>
            <DistanceMeters>NAN</DistanceMeters>
          </Trackpoint>
          <Trackpoint>
            <Time>2021-08-12T15:07:42.000Z</Time>
            <Position>
              <LatitudeDegrees>43.2763201184570789337158203125</LatitudeDegrees>
              <LongitudeDegrees>-2.0208066143095493316650390625</LongitudeDegrees>
            </Position>
            <AltitudeMeters>34.40000152587890625</AltitudeMeters>
            <DistanceMeters>NAN</DistanceMeters>
          </Trackpoint>
          <Trackpoint>
            <Time>2021-08-12T15:07:43.000Z</Time>
            <Position>
              <LatitudeDegrees>43.27633160166442394256591796875</LatitudeDegrees>
              <LongitudeDegrees>-2.0207932032644748687744140625</LongitudeDegrees>
            </Position>
            <AltitudeMeters>34.40000152587890625</AltitudeMeters>
            <DistanceMeters>NAN</DistanceMeters>
          </Trackpoint>
          <Trackpoint>
            <Time>2021-08-12T15:07:44.000Z</Time>
            <Position>
              <LatitudeDegrees>43.27634082175791263580322265625</LatitudeDegrees>
              <LongitudeDegrees>-2.02077685855329036712646484375</LongitudeDegrees>
            </Position>
            <AltitudeMeters>34.59999847412109375</AltitudeMeters>
            <DistanceMeters>NAN</DistanceMeters>
          </Trackpoint>
          <Trackpoint>
            <Time>2021-08-12T15:07:45.000Z</Time>
            <Position>
              <LatitudeDegrees>43.27635272406041622161865234375</LatitudeDegrees>
              <LongitudeDegrees>-2.0207600109279155731201171875</LongitudeDegrees>
            </Position>
            <AltitudeMeters>34.59999847412109375</AltitudeMeters>
            <DistanceMeters>NAN</DistanceMeters>
          </Trackpoint>
          <Trackpoint>
            <Time>2021-08-12T15:07:48.000Z</Time>
            <Position>
              <LatitudeDegrees>43.2764019258320331573486328125</LatitudeDegrees>
              <LongitudeDegrees>-2.02072824351489543914794921875</LongitudeDegrees>
            </Position>
            <AltitudeMeters>34.799999237060546875</AltitudeMeters>
            <DistanceMeters>NAN</DistanceMeters>
          </Trackpoint>
          <Trackpoint>
            <Time>2021-08-12T15:07:49.000Z</Time>
            <Position>
              <LatitudeDegrees>43.27641424722969532012939453125</LatitudeDegrees>
              <LongitudeDegrees>-2.02071097679436206817626953125</LongitudeDegrees>
            </Position>
            <AltitudeMeters>34.799999237060546875</AltitudeMeters>
            <DistanceMeters>NAN</DistanceMeters>
          </Trackpoint>
          <Trackpoint>
            <Time>2021-08-12T15:07:50.000Z</Time>
            <Position>
              <LatitudeDegrees>43.27642732299864292144775390625</LatitudeDegrees>
              <LongitudeDegrees>-2.02069111168384552001953125</LongitudeDegrees>
            </Position>
            <AltitudeMeters>34.799999237060546875</AltitudeMeters>
            <DistanceMeters>NAN</DistanceMeters>
          </Trackpoint>
          <Trackpoint>
            <Time>2021-08-12T15:07:51.000Z</Time>
            <Position>
              <LatitudeDegrees>43.27643889002501964569091796875</LatitudeDegrees>
              <LongitudeDegrees>-2.020671330392360687255859375</LongitudeDegrees>
            </Position>
            <AltitudeMeters>35</AltitudeMeters>
            <DistanceMeters>NAN</DistanceMeters>
          </Trackpoint>
          <Trackpoint>
            <Time>2021-08-12T15:07:52.000Z</Time>
            <Position>
              <LatitudeDegrees>43.2764513790607452392578125</LatitudeDegrees>
              <LongitudeDegrees>-2.02065448276698589324951171875</LongitudeDegrees>
            </Position>
            <AltitudeMeters>35</AltitudeMeters>
            <DistanceMeters>NAN</DistanceMeters>
          </Trackpoint>
          <Trackpoint>
            <Time>2021-08-12T15:07:54.000Z</Time>
            <Position>
              <LatitudeDegrees>43.27647124417126178741455078125</LatitudeDegrees>
              <LongitudeDegrees>-2.0206153392791748046875</LongitudeDegrees>
            </Position>
            <AltitudeMeters>35.200000762939453125</AltitudeMeters>
            <DistanceMeters>NAN</DistanceMeters>
          </Trackpoint>
          <Trackpoint>
            <Time>2021-08-12T15:08:02.000Z</Time>
            <Position>
              <LatitudeDegrees>43.2765434123575687408447265625</LatitudeDegrees>
              <LongitudeDegrees>-2.02044141478836536407470703125</LongitudeDegrees>
            </Position>
            <AltitudeMeters>35.799999237060546875</AltitudeMeters>
            <DistanceMeters>NAN</DistanceMeters>
          </Trackpoint>
          <Trackpoint>
            <Time>2021-08-12T15:08:03.000Z</Time>
            <Position>
              <LatitudeDegrees>43.27655531466007232666015625</LatitudeDegrees>
              <LongitudeDegrees>-2.02042289078235626220703125</LongitudeDegrees>
            </Position>
            <AltitudeMeters>35.799999237060546875</AltitudeMeters>
            <DistanceMeters>NAN</DistanceMeters>
          </Trackpoint>
          <Trackpoint>
            <Time>2021-08-12T15:08:04.000Z</Time>
            <Position>
              <LatitudeDegrees>43.2765698991715908050537109375</LatitudeDegrees>
              <LongitudeDegrees>-2.0204123295843601226806640625</LongitudeDegrees>
            </Position>
            <AltitudeMeters>35.799999237060546875</AltitudeMeters>
            <DistanceMeters>NAN</DistanceMeters>
          </Trackpoint>
          <Trackpoint>
            <Time>2021-08-12T15:08:05.000Z</Time>
            <Position>
              <LatitudeDegrees>43.2765833102166652679443359375</LatitudeDegrees>
              <LongitudeDegrees>-2.020409144461154937744140625</LongitudeDegrees>
            </Position>
            <AltitudeMeters>36</AltitudeMeters>
            <DistanceMeters>NAN</DistanceMeters>
          </Trackpoint>
          <Trackpoint>
            <Time>2021-08-12T15:08:06.000Z</Time>
            <Position>
              <LatitudeDegrees>43.27658859081566333770751953125</LatitudeDegrees>
              <LongitudeDegrees>-2.020411156117916107177734375</LongitudeDegrees>
            </Position>
            <AltitudeMeters>36</AltitudeMeters>
            <DistanceMeters>NAN</DistanceMeters>
          </Trackpoint>
          <Trackpoint>
            <Time>2021-08-12T15:08:10.000Z</Time>
            <Position>
              <LatitudeDegrees>43.276609964668750762939453125</LatitudeDegrees>
              <LongitudeDegrees>-2.0204029418528079986572265625</LongitudeDegrees>
            </Position>
            <AltitudeMeters>36</AltitudeMeters>
            <DistanceMeters>NAN</DistanceMeters>
          </Trackpoint>
          <Trackpoint>
            <Time>2021-08-12T15:08:11.000Z</Time>
            <Position>
              <LatitudeDegrees>43.27663133852183818817138671875</LatitudeDegrees>
              <LongitudeDegrees>-2.0203995890915393829345703125</LongitudeDegrees>
            </Position>
            <AltitudeMeters>36.200000762939453125</AltitudeMeters>
            <DistanceMeters>NAN</DistanceMeters>
          </Trackpoint>
          <Trackpoint>
            <Time>2021-08-12T15:08:13.000Z</Time>
            <Position>
              <LatitudeDegrees>43.27666972763836383819580078125</LatitudeDegrees>
              <LongitudeDegrees>-2.0203959010541439056396484375</LongitudeDegrees>
            </Position>
            <AltitudeMeters>36.200000762939453125</AltitudeMeters>
            <DistanceMeters>NAN</DistanceMeters>
          </Trackpoint>
          <Trackpoint>
            <Time>2021-08-12T15:08:14.000Z</Time>
            <Position>
              <LatitudeDegrees>43.2766879163682460784912109375</LatitudeDegrees>
              <LongitudeDegrees>-2.0203922130167484283447265625</LongitudeDegrees>
            </Position>
            <AltitudeMeters>36.200000762939453125</AltitudeMeters>
            <DistanceMeters>NAN</DistanceMeters>
          </Trackpoint>
          <Trackpoint>
            <Time>2021-08-12T15:08:15.000Z</Time>
            <Position>
              <LatitudeDegrees>43.276702500879764556884765625</LatitudeDegrees>
              <LongitudeDegrees>-2.0203779637813568115234375</LongitudeDegrees>
            </Position>
            <AltitudeMeters>36.200000762939453125</AltitudeMeters>
            <DistanceMeters>NAN</DistanceMeters>
          </Trackpoint>
          <Trackpoint>
            <Time>2021-08-12T15:08:16.000Z</Time>
            <Position>
              <LatitudeDegrees>43.27670778147876262664794921875</LatitudeDegrees>
              <LongitudeDegrees>-2.02036111615598201751708984375</LongitudeDegrees>
            </Position>
            <AltitudeMeters>36.200000762939453125</AltitudeMeters>
            <DistanceMeters>NAN</DistanceMeters>
          </Trackpoint>
          <Trackpoint>
            <Time>2021-08-12T15:08:17.000Z</Time>
            <Position>
              <LatitudeDegrees>43.27671088278293609619140625</LatitudeDegrees>
              <LongitudeDegrees>-2.0203496329486370086669921875</LongitudeDegrees>
            </Position>
            <AltitudeMeters>36</AltitudeMeters>
            <DistanceMeters>NAN</DistanceMeters>
          </Trackpoint>
          <Trackpoint>
            <Time>2021-08-12T15:08:22.000Z</Time>
            <Position>
              <LatitudeDegrees>43.27671230770647525787353515625</LatitudeDegrees>
              <LongitudeDegrees>-2.02034619636833667755126953125</LongitudeDegrees>
            </Position>
            <AltitudeMeters>36.200000762939453125</AltitudeMeters>
            <DistanceMeters>NAN</DistanceMeters>
          </Trackpoint>
          <Trackpoint>
            <Time>2021-08-12T15:08:51.000Z</Time>
            <Position>
              <LatitudeDegrees>43.2767127268016338348388671875</LatitudeDegrees>
              <LongitudeDegrees>-2.02034401707351207733154296875</LongitudeDegrees>
            </Position>
            <AltitudeMeters>36</AltitudeMeters>
            <DistanceMeters>NAN</DistanceMeters>
          </Trackpoint>
          <Trackpoint>
            <Time>2021-08-12T15:08:54.000Z</Time>
            <Position>
              <LatitudeDegrees>43.27672563493251800537109375</LatitudeDegrees>
              <LongitudeDegrees>-2.0202681608498096466064453125</LongitudeDegrees>
            </Position>
            <AltitudeMeters>36</AltitudeMeters>
            <DistanceMeters>NAN</DistanceMeters>
          </Trackpoint>
          <Trackpoint>
            <Time>2021-08-12T15:08:55.000Z</Time>
            <Position>
              <LatitudeDegrees>43.27673829160630702972412109375</LatitudeDegrees>
              <LongitudeDegrees>-2.02024611644446849822998046875</LongitudeDegrees>
            </Position>
            <AltitudeMeters>36</AltitudeMeters>
            <DistanceMeters>NAN</DistanceMeters>
          </Trackpoint>
          <Trackpoint>
            <Time>2021-08-12T15:08:56.000Z</Time>
            <Position>
              <LatitudeDegrees>43.27674013562500476837158203125</LatitudeDegrees>
              <LongitudeDegrees>-2.02021057717502117156982421875</LongitudeDegrees>
            </Position>
            <AltitudeMeters>36</AltitudeMeters>
            <DistanceMeters>NAN</DistanceMeters>
          </Trackpoint>
          <Trackpoint>
            <Time>2021-08-12T15:08:58.000Z</Time>
            <Position>
              <LatitudeDegrees>43.27672957442700862884521484375</LatitudeDegrees>
              <LongitudeDegrees>-2.02013111673295497894287109375</LongitudeDegrees>
            </Position>
            <AltitudeMeters>36</AltitudeMeters>
            <DistanceMeters>NAN</DistanceMeters>
          </Trackpoint>
          <Trackpoint>
            <Time>2021-08-12T15:09:02.000Z</Time>
            <Position>
              <LatitudeDegrees>43.27672085724771022796630859375</LatitudeDegrees>
              <LongitudeDegrees>-2.01996096409857273101806640625</LongitudeDegrees>
            </Position>
            <AltitudeMeters>36.40000152587890625</AltitudeMeters>
            <DistanceMeters>NAN</DistanceMeters>
          </Trackpoint>
          <Trackpoint>
            <Time>2021-08-12T15:09:04.000Z</Time>
            <Position>
              <LatitudeDegrees>43.27671348117291927337646484375</LatitudeDegrees>
              <LongitudeDegrees>-2.01985417865216732025146484375</LongitudeDegrees>
            </Position>
            <AltitudeMeters>36.40000152587890625</AltitudeMeters>
            <DistanceMeters>NAN</DistanceMeters>
          </Trackpoint>
          <Trackpoint>
            <Time>2021-08-12T15:09:07.000Z</Time>
            <Position>
              <LatitudeDegrees>43.27671582810580730438232421875</LatitudeDegrees>
              <LongitudeDegrees>-2.01969307847321033477783203125</LongitudeDegrees>
            </Position>
            <AltitudeMeters>36.799999237060546875</AltitudeMeters>
            <DistanceMeters>NAN</DistanceMeters>
          </Trackpoint>
          <Trackpoint>
            <Time>2021-08-12T15:09:11.000Z</Time>
            <Position>
              <LatitudeDegrees>43.27671130187809467315673828125</LatitudeDegrees>
              <LongitudeDegrees>-2.0194896496832370758056640625</LongitudeDegrees>
            </Position>
            <AltitudeMeters>37.59999847412109375</AltitudeMeters>
            <DistanceMeters>NAN</DistanceMeters>
          </Trackpoint>
          <Trackpoint>
            <Time>2021-08-12T15:09:13.000Z</Time>
            <Position>
              <LatitudeDegrees>43.27670543454587459564208984375</LatitudeDegrees>
              <LongitudeDegrees>-2.01939032413065433502197265625</LongitudeDegrees>
            </Position>
            <AltitudeMeters>37.799999237060546875</AltitudeMeters>
            <DistanceMeters>NAN</DistanceMeters>
          </Trackpoint>
          <Trackpoint>
            <Time>2021-08-12T15:09:14.000Z</Time>
            <Position>
              <LatitudeDegrees>43.2767008244991302490234375</LatitudeDegrees>
              <LongitudeDegrees>-2.01934003271162509918212890625</LongitudeDegrees>
            </Position>
            <AltitudeMeters>38</AltitudeMeters>
            <DistanceMeters>NAN</DistanceMeters>
          </Trackpoint>
          <Trackpoint>
            <Time>2021-08-12T15:09:15.000Z</Time>
            <Position>
              <LatitudeDegrees>43.27669587917625904083251953125</LatitudeDegrees>
              <LongitudeDegrees>-2.01928772963583469390869140625</LongitudeDegrees>
            </Position>
            <AltitudeMeters>38.200000762939453125</AltitudeMeters>
            <DistanceMeters>NAN</DistanceMeters>
          </Trackpoint>
          <Trackpoint>
            <Time>2021-08-12T15:09:20.000Z</Time>
            <Position>
              <LatitudeDegrees>43.27668196521699428558349609375</LatitudeDegrees>
              <LongitudeDegrees>-2.01902939938008785247802734375</LongitudeDegrees>
            </Position>
            <AltitudeMeters>39</AltitudeMeters>
            <DistanceMeters>NAN</DistanceMeters>
          </Trackpoint>
          <Trackpoint>
            <Time>2021-08-12T15:09:21.000Z</Time>
            <Position>
              <LatitudeDegrees>43.27668883837759494781494140625</LatitudeDegrees>
              <LongitudeDegrees>-2.01896569691598415374755859375</LongitudeDegrees>
            </Position>
            <AltitudeMeters>39.200000762939453125</AltitudeMeters>
            <DistanceMeters>NAN</DistanceMeters>
          </Trackpoint>
          <Trackpoint>
            <Time>2021-08-12T15:09:22.000Z</Time>
            <Position>
              <LatitudeDegrees>43.2766959629952907562255859375</LatitudeDegrees>
              <LongitudeDegrees>-2.01891171745955944061279296875</LongitudeDegrees>
            </Position>
            <AltitudeMeters>39.40000152587890625</AltitudeMeters>
            <DistanceMeters>NAN</DistanceMeters>
          </Trackpoint>
          <Trackpoint>
            <Time>2021-08-12T15:09:23.000Z</Time>
            <Position>
              <LatitudeDegrees>43.27670560218393802642822265625</LatitudeDegrees>
              <LongitudeDegrees>-2.018858492374420166015625</LongitudeDegrees>
            </Position>
            <AltitudeMeters>39.40000152587890625</AltitudeMeters>
            <DistanceMeters>NAN</DistanceMeters>
          </Trackpoint>
          <Trackpoint>
            <Time>2021-08-12T15:09:24.000Z</Time>
            <Position>
              <LatitudeDegrees>43.27671482227742671966552734375</LatitudeDegrees>
              <LongitudeDegrees>-2.018815912306308746337890625</LongitudeDegrees>
            </Position>
            <AltitudeMeters>39.40000152587890625</AltitudeMeters>
            <DistanceMeters>NAN</DistanceMeters>
          </Trackpoint>
          <Trackpoint>
            <Time>2021-08-12T15:09:25.000Z</Time>
            <Position>
              <LatitudeDegrees>43.276731669902801513671875</LatitudeDegrees>
              <LongitudeDegrees>-2.01876251958310604095458984375</LongitudeDegrees>
            </Position>
            <AltitudeMeters>39.59999847412109375</AltitudeMeters>
            <DistanceMeters>NAN</DistanceMeters>
          </Trackpoint>
          <Trackpoint>
            <Time>2021-08-12T15:09:26.000Z</Time>
            <Position>
              <LatitudeDegrees>43.27675119973719120025634765625</LatitudeDegrees>
              <LongitudeDegrees>-2.0187205262482166290283203125</LongitudeDegrees>
            </Position>
            <AltitudeMeters>39.59999847412109375</AltitudeMeters>
            <DistanceMeters>NAN</DistanceMeters>
          </Trackpoint>
          <Trackpoint>
            <Time>2021-08-12T15:09:27.000Z</Time>
            <Position>
              <LatitudeDegrees>43.2767620123922824859619140625</LatitudeDegrees>
              <LongitudeDegrees>-2.018676102161407470703125</LongitudeDegrees>
            </Position>
            <AltitudeMeters>39.59999847412109375</AltitudeMeters>
            <DistanceMeters>NAN</DistanceMeters>
          </Trackpoint>
          <Trackpoint>
            <Time>2021-08-12T15:09:28.000Z</Time>
            <Position>
              <LatitudeDegrees>43.27677684836089611053466796875</LatitudeDegrees>
              <LongitudeDegrees>-2.01863209716975688934326171875</LongitudeDegrees>
            </Position>
            <AltitudeMeters>40</AltitudeMeters>
            <DistanceMeters>NAN</DistanceMeters>
          </Trackpoint>
          <Trackpoint>
            <Time>2021-08-12T15:09:29.000Z</Time>
            <Position>
              <LatitudeDegrees>43.2767905108630657196044921875</LatitudeDegrees>
              <LongitudeDegrees>-2.01858918182551860809326171875</LongitudeDegrees>
            </Position>
            <AltitudeMeters>40.200000762939453125</AltitudeMeters>
            <DistanceMeters>NAN</DistanceMeters>
          </Trackpoint>
          <Trackpoint>
            <Time>2021-08-12T15:09:30.000Z</Time>
            <Position>
              <LatitudeDegrees>43.27680283226072788238525390625</LatitudeDegrees>
              <LongitudeDegrees>-2.018549032509326934814453125</LongitudeDegrees>
            </Position>
            <AltitudeMeters>40.40000152587890625</AltitudeMeters>
            <DistanceMeters>NAN</DistanceMeters>
          </Trackpoint>
          <Trackpoint>
            <Time>2021-08-12T15:09:31.000Z</Time>
            <Position>
              <LatitudeDegrees>43.276817500591278076171875</LatitudeDegrees>
              <LongitudeDegrees>-2.018509469926357269287109375</LongitudeDegrees>
            </Position>
            <AltitudeMeters>40.59999847412109375</AltitudeMeters>
            <DistanceMeters>NAN</DistanceMeters>
          </Trackpoint>
          <Trackpoint>
            <Time>2021-08-12T15:09:32.000Z</Time>
            <Position>
              <LatitudeDegrees>43.2768330909311771392822265625</LatitudeDegrees>
              <LongitudeDegrees>-2.018466889858245849609375</LongitudeDegrees>
            </Position>
            <AltitudeMeters>41</AltitudeMeters>
            <DistanceMeters>NAN</DistanceMeters>
          </Trackpoint>
          <Trackpoint>
            <Time>2021-08-12T15:09:33.000Z</Time>
            <Position>
              <LatitudeDegrees>43.27684742398560047149658203125</LatitudeDegrees>
              <LongitudeDegrees>-2.01842238195240497589111328125</LongitudeDegrees>
            </Position>
            <AltitudeMeters>41.200000762939453125</AltitudeMeters>
            <DistanceMeters>NAN</DistanceMeters>
          </Trackpoint>
          <Trackpoint>
            <Time>2021-08-12T15:09:34.000Z</Time>
            <Position>
              <LatitudeDegrees>43.27686117030680179595947265625</LatitudeDegrees>
              <LongitudeDegrees>-2.01837829314172267913818359375</LongitudeDegrees>
            </Position>
            <AltitudeMeters>41.59999847412109375</AltitudeMeters>
            <DistanceMeters>NAN</DistanceMeters>
          </Trackpoint>
          <Trackpoint>
            <Time>2021-08-12T15:09:35.000Z</Time>
            <Position>
              <LatitudeDegrees>43.27687541954219341278076171875</LatitudeDegrees>
              <LongitudeDegrees>-2.0183339528739452362060546875</LongitudeDegrees>
            </Position>
            <AltitudeMeters>41.799999237060546875</AltitudeMeters>
            <DistanceMeters>NAN</DistanceMeters>
          </Trackpoint>
          <Trackpoint>
            <Time>2021-08-12T15:09:36.000Z</Time>
            <Position>
              <LatitudeDegrees>43.2768874056637287139892578125</LatitudeDegrees>
              <LongitudeDegrees>-2.01828843913972377777099609375</LongitudeDegrees>
            </Position>
            <AltitudeMeters>42</AltitudeMeters>
            <DistanceMeters>NAN</DistanceMeters>
          </Trackpoint>
          <Trackpoint>
            <Time>2021-08-12T15:09:37.000Z</Time>
            <Position>
              <LatitudeDegrees>43.27689905650913715362548828125</LatitudeDegrees>
              <LongitudeDegrees>-2.018241584300994873046875</LongitudeDegrees>
            </Position>
            <AltitudeMeters>42.40000152587890625</AltitudeMeters>
            <DistanceMeters>NAN</DistanceMeters>
          </Trackpoint>
          <Trackpoint>
            <Time>2021-08-12T15:09:38.000Z</Time>
            <Position>
              <LatitudeDegrees>43.276913054287433624267578125</LatitudeDegrees>
              <LongitudeDegrees>-2.018194980919361114501953125</LongitudeDegrees>
            </Position>
            <AltitudeMeters>42.59999847412109375</AltitudeMeters>
            <DistanceMeters>NAN</DistanceMeters>
          </Trackpoint>
          <Trackpoint>
            <Time>2021-08-12T15:09:39.000Z</Time>
            <Position>
              <LatitudeDegrees>43.2769269682466983795166015625</LatitudeDegrees>
              <LongitudeDegrees>-2.0181492157280445098876953125</LongitudeDegrees>
            </Position>
            <AltitudeMeters>43</AltitudeMeters>
            <DistanceMeters>NAN</DistanceMeters>
          </Trackpoint>
          <Trackpoint>
            <Time>2021-08-12T15:09:40.000Z</Time>
            <Position>
              <LatitudeDegrees>43.2769350148737430572509765625</LatitudeDegrees>
              <LongitudeDegrees>-2.01811392791569232940673828125</LongitudeDegrees>
            </Position>
            <AltitudeMeters>43.200000762939453125</AltitudeMeters>
            <DistanceMeters>NAN</DistanceMeters>
          </Trackpoint>
          <Trackpoint>
            <Time>2021-08-12T15:09:41.000Z</Time>
            <Position>
              <LatitudeDegrees>43.27694381587207317352294921875</LatitudeDegrees>
              <LongitudeDegrees>-2.01806095428764820098876953125</LongitudeDegrees>
            </Position>
            <AltitudeMeters>43.40000152587890625</AltitudeMeters>
            <DistanceMeters>NAN</DistanceMeters>
          </Trackpoint>
          <Trackpoint>
            <Time>2021-08-12T15:09:42.000Z</Time>
            <Position>
              <LatitudeDegrees>43.27695018611848354339599609375</LatitudeDegrees>
              <LongitudeDegrees>-2.018016614019870758056640625</LongitudeDegrees>
            </Position>
            <AltitudeMeters>43.799999237060546875</AltitudeMeters>
            <DistanceMeters>NAN</DistanceMeters>
          </Trackpoint>
          <Trackpoint>
            <Time>2021-08-12T15:09:43.000Z</Time>
            <Position>
              <LatitudeDegrees>43.276951611042022705078125</LatitudeDegrees>
              <LongitudeDegrees>-2.01796942390501499176025390625</LongitudeDegrees>
            </Position>
            <AltitudeMeters>44</AltitudeMeters>
            <DistanceMeters>NAN</DistanceMeters>
          </Trackpoint>
          <Trackpoint>
            <Time>2021-08-12T15:09:44.000Z</Time>
            <Position>
              <LatitudeDegrees>43.27695228159427642822265625</LatitudeDegrees>
              <LongitudeDegrees>-2.0179135166108608245849609375</LongitudeDegrees>
            </Position>
            <AltitudeMeters>44.200000762939453125</AltitudeMeters>
            <DistanceMeters>NAN</DistanceMeters>
          </Trackpoint>
          <Trackpoint>
            <Time>2021-08-12T15:09:45.000Z</Time>
            <Position>
              <LatitudeDegrees>43.27695538289844989776611328125</LatitudeDegrees>
              <LongitudeDegrees>-2.01787638477981090545654296875</LongitudeDegrees>
            </Position>
            <AltitudeMeters>44.40000152587890625</AltitudeMeters>
            <DistanceMeters>NAN</DistanceMeters>
          </Trackpoint>
          <Trackpoint>
            <Time>2021-08-12T15:09:46.000Z</Time>
            <Position>
              <LatitudeDegrees>43.2769561372697353363037109375</LatitudeDegrees>
              <LongitudeDegrees>-2.01782961376011371612548828125</LongitudeDegrees>
            </Position>
            <AltitudeMeters>44.59999847412109375</AltitudeMeters>
            <DistanceMeters>NAN</DistanceMeters>
          </Trackpoint>
          <Trackpoint>
            <Time>2021-08-12T15:09:47.000Z</Time>
            <Position>
              <LatitudeDegrees>43.276955969631671905517578125</LatitudeDegrees>
              <LongitudeDegrees>-2.017783261835575103759765625</LongitudeDegrees>
            </Position>
            <AltitudeMeters>44.799999237060546875</AltitudeMeters>
            <DistanceMeters>NAN</DistanceMeters>
          </Trackpoint>
          <Trackpoint>
            <Time>2021-08-12T15:09:48.000Z</Time>
            <Position>
              <LatitudeDegrees>43.276958651840686798095703125</LatitudeDegrees>
              <LongitudeDegrees>-2.0177386701107025146484375</LongitudeDegrees>
            </Position>
            <AltitudeMeters>45</AltitudeMeters>
            <DistanceMeters>NAN</DistanceMeters>
          </Trackpoint>
          <Trackpoint>
            <Time>2021-08-12T15:09:49.000Z</Time>
            <Position>
              <LatitudeDegrees>43.27695974148809909820556640625</LatitudeDegrees>
              <LongitudeDegrees>-2.017692737281322479248046875</LongitudeDegrees>
            </Position>
            <AltitudeMeters>45.200000762939453125</AltitudeMeters>
            <DistanceMeters>NAN</DistanceMeters>
          </Trackpoint>
          <Trackpoint>
            <Time>2021-08-12T15:09:50.000Z</Time>
            <Position>
              <LatitudeDegrees>43.276962004601955413818359375</LatitudeDegrees>
              <LongitudeDegrees>-2.0176447927951812744140625</LongitudeDegrees>
            </Position>
            <AltitudeMeters>45.200000762939453125</AltitudeMeters>
            <DistanceMeters>NAN</DistanceMeters>
          </Trackpoint>
          <Trackpoint>
            <Time>2021-08-12T15:09:51.000Z</Time>
            <Position>
              <LatitudeDegrees>43.27696342952549457550048828125</LatitudeDegrees>
              <LongitudeDegrees>-2.01759592629969120025634765625</LongitudeDegrees>
            </Position>
            <AltitudeMeters>45.200000762939453125</AltitudeMeters>
            <DistanceMeters>NAN</DistanceMeters>
          </Trackpoint>
          <Trackpoint>
            <Time>2021-08-12T15:09:52.000Z</Time>
            <Position>
              <LatitudeDegrees>43.27696410007774829864501953125</LatitudeDegrees>
              <LongitudeDegrees>-2.0175457186996936798095703125</LongitudeDegrees>
            </Position>
            <AltitudeMeters>45.40000152587890625</AltitudeMeters>
            <DistanceMeters>NAN</DistanceMeters>
          </Trackpoint>
          <Trackpoint>
            <Time>2021-08-12T15:09:53.000Z</Time>
            <Position>
              <LatitudeDegrees>43.27696661464869976043701171875</LatitudeDegrees>
              <LongitudeDegrees>-2.017495594918727874755859375</LongitudeDegrees>
            </Position>
            <AltitudeMeters>45.40000152587890625</AltitudeMeters>
            <DistanceMeters>NAN</DistanceMeters>
          </Trackpoint>
          <Trackpoint>
            <Time>2021-08-12T15:09:54.000Z</Time>
            <Position>
              <LatitudeDegrees>43.27696912921965122222900390625</LatitudeDegrees>
              <LongitudeDegrees>-2.01744563877582550048828125</LongitudeDegrees>
            </Position>
            <AltitudeMeters>45.40000152587890625</AltitudeMeters>
            <DistanceMeters>NAN</DistanceMeters>
          </Trackpoint>
          <Trackpoint>
            <Time>2021-08-12T15:09:55.000Z</Time>
            <Position>
              <LatitudeDegrees>43.2769672013819217681884765625</LatitudeDegrees>
              <LongitudeDegrees>-2.01739476062357425689697265625</LongitudeDegrees>
            </Position>
            <AltitudeMeters>45.59999847412109375</AltitudeMeters>
            <DistanceMeters>NAN</DistanceMeters>
          </Trackpoint>
          <Trackpoint>
            <Time>2021-08-12T15:09:56.000Z</Time>
            <Position>
              <LatitudeDegrees>43.27696812339127063751220703125</LatitudeDegrees>
              <LongitudeDegrees>-2.017343379557132720947265625</LongitudeDegrees>
            </Position>
            <AltitudeMeters>45.59999847412109375</AltitudeMeters>
            <DistanceMeters>NAN</DistanceMeters>
          </Trackpoint>
          <Trackpoint>
            <Time>2021-08-12T15:09:57.000Z</Time>
            <Position>
              <LatitudeDegrees>43.27697315253317356109619140625</LatitudeDegrees>
              <LongitudeDegrees>-2.01729141175746917724609375</LongitudeDegrees>
            </Position>
            <AltitudeMeters>45.799999237060546875</AltitudeMeters>
            <DistanceMeters>NAN</DistanceMeters>
          </Trackpoint>
          <Trackpoint>
            <Time>2021-08-12T15:09:58.000Z</Time>
            <Position>
              <LatitudeDegrees>43.27697952277958393096923828125</LatitudeDegrees>
              <LongitudeDegrees>-2.0172406174242496490478515625</LongitudeDegrees>
            </Position>
            <AltitudeMeters>45.799999237060546875</AltitudeMeters>
            <DistanceMeters>NAN</DistanceMeters>
          </Trackpoint>
          <Trackpoint>
            <Time>2021-08-12T15:09:59.000Z</Time>
            <Position>
              <LatitudeDegrees>43.2769853062927722930908203125</LatitudeDegrees>
              <LongitudeDegrees>-2.017190493643283843994140625</LongitudeDegrees>
            </Position>
            <AltitudeMeters>45.799999237060546875</AltitudeMeters>
            <DistanceMeters>NAN</DistanceMeters>
          </Trackpoint>
          <Trackpoint>
            <Time>2021-08-12T15:10:00.000Z</Time>
            <Position>
              <LatitudeDegrees>43.27699075452983379364013671875</LatitudeDegrees>
              <LongitudeDegrees>-2.01714229770004749298095703125</LongitudeDegrees>
            </Position>
            <AltitudeMeters>45.799999237060546875</AltitudeMeters>
            <DistanceMeters>NAN</DistanceMeters>
          </Trackpoint>
          <Trackpoint>
            <Time>2021-08-12T15:10:01.000Z</Time>
            <Position>
              <LatitudeDegrees>43.27699813060462474822998046875</LatitudeDegrees>
              <LongitudeDegrees>-2.017092593014240264892578125</LongitudeDegrees>
            </Position>
            <AltitudeMeters>46</AltitudeMeters>
            <DistanceMeters>NAN</DistanceMeters>
          </Trackpoint>
          <Trackpoint>
            <Time>2021-08-12T15:10:02.000Z</Time>
            <Position>
              <LatitudeDegrees>43.27700617723166942596435546875</LatitudeDegrees>
              <LongitudeDegrees>-2.01704221777617931365966796875</LongitudeDegrees>
            </Position>
            <AltitudeMeters>46</AltitudeMeters>
            <DistanceMeters>NAN</DistanceMeters>
          </Trackpoint>
          <Trackpoint>
            <Time>2021-08-12T15:10:03.000Z</Time>
            <Position>
              <LatitudeDegrees>43.27701590023934841156005859375</LatitudeDegrees>
              <LongitudeDegrees>-2.01699226163327693939208984375</LongitudeDegrees>
            </Position>
            <AltitudeMeters>46.200000762939453125</AltitudeMeters>
            <DistanceMeters>NAN</DistanceMeters>
          </Trackpoint>
          <Trackpoint>
            <Time>2021-08-12T15:10:04.000Z</Time>
            <Position>
              <LatitudeDegrees>43.2770255394279956817626953125</LatitudeDegrees>
              <LongitudeDegrees>-2.0169428922235965728759765625</LongitudeDegrees>
            </Position>
            <AltitudeMeters>46.200000762939453125</AltitudeMeters>
            <DistanceMeters>NAN</DistanceMeters>
          </Trackpoint>
          <Trackpoint>
            <Time>2021-08-12T15:10:05.000Z</Time>
            <Position>
              <LatitudeDegrees>43.27703568153083324432373046875</LatitudeDegrees>
              <LongitudeDegrees>-2.01689335517585277557373046875</LongitudeDegrees>
            </Position>
            <AltitudeMeters>46.200000762939453125</AltitudeMeters>
            <DistanceMeters>NAN</DistanceMeters>
          </Trackpoint>
          <Trackpoint>
            <Time>2021-08-12T15:10:06.000Z</Time>
            <Position>
              <LatitudeDegrees>43.2770468294620513916015625</LatitudeDegrees>
              <LongitudeDegrees>-2.01684750616550445556640625</LongitudeDegrees>
            </Position>
            <AltitudeMeters>46.40000152587890625</AltitudeMeters>
            <DistanceMeters>NAN</DistanceMeters>
          </Trackpoint>
          <Trackpoint>
            <Time>2021-08-12T15:10:07.000Z</Time>
            <Position>
              <LatitudeDegrees>43.27706225216388702392578125</LatitudeDegrees>
              <LongitudeDegrees>-2.01679947786033153533935546875</LongitudeDegrees>
            </Position>
            <AltitudeMeters>46.200000762939453125</AltitudeMeters>
            <DistanceMeters>NAN</DistanceMeters>
          </Trackpoint>
          <Trackpoint>
            <Time>2021-08-12T15:10:08.000Z</Time>
            <Position>
              <LatitudeDegrees>43.27706183306872844696044921875</LatitudeDegrees>
              <LongitudeDegrees>-2.0167601667344570159912109375</LongitudeDegrees>
            </Position>
            <AltitudeMeters>46.40000152587890625</AltitudeMeters>
            <DistanceMeters>NAN</DistanceMeters>
          </Trackpoint>
          <Trackpoint>
            <Time>2021-08-12T15:10:09.000Z</Time>
            <Position>
              <LatitudeDegrees>43.27706870622932910919189453125</LatitudeDegrees>
              <LongitudeDegrees>-2.01672471128404140472412109375</LongitudeDegrees>
            </Position>
            <AltitudeMeters>46.40000152587890625</AltitudeMeters>
            <DistanceMeters>NAN</DistanceMeters>
          </Trackpoint>
          <Trackpoint>
            <Time>2021-08-12T15:10:10.000Z</Time>
            <Position>
              <LatitudeDegrees>43.27708127908408641815185546875</LatitudeDegrees>
              <LongitudeDegrees>-2.01668280176818370819091796875</LongitudeDegrees>
            </Position>
            <AltitudeMeters>46.59999847412109375</AltitudeMeters>
            <DistanceMeters>NAN</DistanceMeters>
          </Trackpoint>
          <Trackpoint>
            <Time>2021-08-12T15:10:11.000Z</Time>
            <Position>
              <LatitudeDegrees>43.2770969532430171966552734375</LatitudeDegrees>
              <LongitudeDegrees>-2.0166337676346302032470703125</LongitudeDegrees>
            </Position>
            <AltitudeMeters>46.799999237060546875</AltitudeMeters>
            <DistanceMeters>NAN</DistanceMeters>
          </Trackpoint>
          <Trackpoint>
            <Time>2021-08-12T15:10:12.000Z</Time>
            <Position>
              <LatitudeDegrees>43.2771106995642185211181640625</LatitudeDegrees>
              <LongitudeDegrees>-2.01658205129206180572509765625</LongitudeDegrees>
            </Position>
            <AltitudeMeters>46.799999237060546875</AltitudeMeters>
            <DistanceMeters>NAN</DistanceMeters>
          </Trackpoint>
          <Trackpoint>
            <Time>2021-08-12T15:10:13.000Z</Time>
            <Position>
              <LatitudeDegrees>43.27712553553283214569091796875</LatitudeDegrees>
              <LongitudeDegrees>-2.0165331847965717315673828125</LongitudeDegrees>
            </Position>
            <AltitudeMeters>46.799999237060546875</AltitudeMeters>
            <DistanceMeters>NAN</DistanceMeters>
          </Trackpoint>
          <Trackpoint>
            <Time>2021-08-12T15:10:14.000Z</Time>
            <Position>
              <LatitudeDegrees>43.277139700949192047119140625</LatitudeDegrees>
              <LongitudeDegrees>-2.01648297719657421112060546875</LongitudeDegrees>
            </Position>
            <AltitudeMeters>47</AltitudeMeters>
            <DistanceMeters>NAN</DistanceMeters>
          </Trackpoint>
          <Trackpoint>
            <Time>2021-08-12T15:10:15.000Z</Time>
            <Position>
              <LatitudeDegrees>43.27715344727039337158203125</LatitudeDegrees>
              <LongitudeDegrees>-2.016434110701084136962890625</LongitudeDegrees>
            </Position>
            <AltitudeMeters>47</AltitudeMeters>
            <DistanceMeters>NAN</DistanceMeters>
          </Trackpoint>
          <Trackpoint>
            <Time>2021-08-12T15:10:16.000Z</Time>
            <Position>
              <LatitudeDegrees>43.2771656848490238189697265625</LatitudeDegrees>
              <LongitudeDegrees>-2.01639731414616107940673828125</LongitudeDegrees>
            </Position>
            <AltitudeMeters>47.200000762939453125</AltitudeMeters>
            <DistanceMeters>NAN</DistanceMeters>
          </Trackpoint>
          <Trackpoint>
            <Time>2021-08-12T15:10:17.000Z</Time>
            <Position>
              <LatitudeDegrees>43.2771861366927623748779296875</LatitudeDegrees>
              <LongitudeDegrees>-2.0163397304713726043701171875</LongitudeDegrees>
            </Position>
            <AltitudeMeters>47.200000762939453125</AltitudeMeters>
            <DistanceMeters>NAN</DistanceMeters>
          </Trackpoint>
          <Trackpoint>
            <Time>2021-08-12T15:10:18.000Z</Time>
            <Position>
              <LatitudeDegrees>43.27720315195620059967041015625</LatitudeDegrees>
              <LongitudeDegrees>-2.0162937976419925689697265625</LongitudeDegrees>
            </Position>
            <AltitudeMeters>47.200000762939453125</AltitudeMeters>
            <DistanceMeters>NAN</DistanceMeters>
          </Trackpoint>
          <Trackpoint>
            <Time>2021-08-12T15:10:19.000Z</Time>
            <Position>
              <LatitudeDegrees>43.27721723355352878570556640625</LatitudeDegrees>
              <LongitudeDegrees>-2.01624744571745395660400390625</LongitudeDegrees>
            </Position>
            <AltitudeMeters>47.40000152587890625</AltitudeMeters>
            <DistanceMeters>NAN</DistanceMeters>
          </Trackpoint>
          <Trackpoint>
            <Time>2021-08-12T15:10:20.000Z</Time>
            <Position>
              <LatitudeDegrees>43.277230560779571533203125</LatitudeDegrees>
              <LongitudeDegrees>-2.0162012614309787750244140625</LongitudeDegrees>
            </Position>
            <AltitudeMeters>47.40000152587890625</AltitudeMeters>
            <DistanceMeters>NAN</DistanceMeters>
          </Trackpoint>
          <Trackpoint>
            <Time>2021-08-12T15:10:21.000Z</Time>
            <Position>
              <LatitudeDegrees>43.2772426307201385498046875</LatitudeDegrees>
              <LongitudeDegrees>-2.0161549933254718780517578125</LongitudeDegrees>
            </Position>
            <AltitudeMeters>47.59999847412109375</AltitudeMeters>
            <DistanceMeters>NAN</DistanceMeters>
          </Trackpoint>
          <Trackpoint>
            <Time>2021-08-12T15:10:22.000Z</Time>
            <Position>
              <LatitudeDegrees>43.27725713141262531280517578125</LatitudeDegrees>
              <LongitudeDegrees>-2.01611652038991451263427734375</LongitudeDegrees>
            </Position>
            <AltitudeMeters>47.59999847412109375</AltitudeMeters>
            <DistanceMeters>NAN</DistanceMeters>
          </Trackpoint>
          <Trackpoint>
            <Time>2021-08-12T15:10:23.000Z</Time>
            <Position>
              <LatitudeDegrees>43.2772867195308208465576171875</LatitudeDegrees>
              <LongitudeDegrees>-2.01607444323599338531494140625</LongitudeDegrees>
            </Position>
            <AltitudeMeters>47.799999237060546875</AltitudeMeters>
            <DistanceMeters>NAN</DistanceMeters>
          </Trackpoint>
          <Trackpoint>
            <Time>2021-08-12T15:10:24.000Z</Time>
            <Position>
              <LatitudeDegrees>43.27729962766170501708984375</LatitudeDegrees>
              <LongitudeDegrees>-2.0160423405468463897705078125</LongitudeDegrees>
            </Position>
            <AltitudeMeters>48</AltitudeMeters>
            <DistanceMeters>NAN</DistanceMeters>
          </Trackpoint>
          <Trackpoint>
            <Time>2021-08-12T15:10:25.000Z</Time>
            <Position>
              <LatitudeDegrees>43.27731245197355747222900390625</LatitudeDegrees>
              <LongitudeDegrees>-2.01600872911512851715087890625</LongitudeDegrees>
            </Position>
            <AltitudeMeters>48</AltitudeMeters>
            <DistanceMeters>NAN</DistanceMeters>
          </Trackpoint>
          <Trackpoint>
            <Time>2021-08-12T15:10:26.000Z</Time>
            <Position>
              <LatitudeDegrees>43.27732586301863193511962890625</LatitudeDegrees>
              <LongitudeDegrees>-2.015944607555866241455078125</LongitudeDegrees>
            </Position>
            <AltitudeMeters>48</AltitudeMeters>
            <DistanceMeters>NAN</DistanceMeters>
          </Trackpoint>
          <Trackpoint>
            <Time>2021-08-12T15:10:28.000Z</Time>
            <Position>
              <LatitudeDegrees>43.27737112529575824737548828125</LatitudeDegrees>
              <LongitudeDegrees>-2.0158495567739009857177734375</LongitudeDegrees>
            </Position>
            <AltitudeMeters>48.200000762939453125</AltitudeMeters>
            <DistanceMeters>NAN</DistanceMeters>
          </Trackpoint>
          <Trackpoint>
            <Time>2021-08-12T15:10:29.000Z</Time>
            <Position>
              <LatitudeDegrees>43.27739006839692592620849609375</LatitudeDegrees>
              <LongitudeDegrees>-2.01581980101764202117919921875</LongitudeDegrees>
            </Position>
            <AltitudeMeters>48.200000762939453125</AltitudeMeters>
            <DistanceMeters>NAN</DistanceMeters>
          </Trackpoint>
          <Trackpoint>
            <Time>2021-08-12T15:10:30.000Z</Time>
            <Position>
              <LatitudeDegrees>43.277424015104770660400390625</LatitudeDegrees>
              <LongitudeDegrees>-2.01579331420361995697021484375</LongitudeDegrees>
            </Position>
            <AltitudeMeters>48.200000762939453125</AltitudeMeters>
            <DistanceMeters>NAN</DistanceMeters>
          </Trackpoint>
          <Trackpoint>
            <Time>2021-08-12T15:10:31.000Z</Time>
            <Position>
              <LatitudeDegrees>43.2774496637284755706787109375</LatitudeDegrees>
              <LongitudeDegrees>-2.01577671803534030914306640625</LongitudeDegrees>
            </Position>
            <AltitudeMeters>48.40000152587890625</AltitudeMeters>
            <DistanceMeters>NAN</DistanceMeters>
          </Trackpoint>
          <Trackpoint>
            <Time>2021-08-12T15:10:32.000Z</Time>
            <Position>
              <LatitudeDegrees>43.277476318180561065673828125</LatitudeDegrees>
              <LongitudeDegrees>-2.01576389372348785400390625</LongitudeDegrees>
            </Position>
            <AltitudeMeters>48.59999847412109375</AltitudeMeters>
            <DistanceMeters>NAN</DistanceMeters>
          </Trackpoint>
          <Trackpoint>
            <Time>2021-08-12T15:10:33.000Z</Time>
            <Position>
              <LatitudeDegrees>43.27748143114149570465087890625</LatitudeDegrees>
              <LongitudeDegrees>-2.015719301998615264892578125</LongitudeDegrees>
            </Position>
            <AltitudeMeters>48.59999847412109375</AltitudeMeters>
            <DistanceMeters>NAN</DistanceMeters>
          </Trackpoint>
          <Trackpoint>
            <Time>2021-08-12T15:10:34.000Z</Time>
            <Position>
              <LatitudeDegrees>43.2775066606700420379638671875</LatitudeDegrees>
              <LongitudeDegrees>-2.01569289900362491607666015625</LongitudeDegrees>
            </Position>
            <AltitudeMeters>48.59999847412109375</AltitudeMeters>
            <DistanceMeters>NAN</DistanceMeters>
          </Trackpoint>
          <Trackpoint>
            <Time>2021-08-12T15:10:35.000Z</Time>
            <Position>
              <LatitudeDegrees>43.27752904035151004791259765625</LatitudeDegrees>
              <LongitudeDegrees>-2.01567060314118862152099609375</LongitudeDegrees>
            </Position>
            <AltitudeMeters>48.799999237060546875</AltitudeMeters>
            <DistanceMeters>NAN</DistanceMeters>
          </Trackpoint>
          <Trackpoint>
            <Time>2021-08-12T15:11:12.000Z</Time>
            <Position>
              <LatitudeDegrees>43.27820126898586750030517578125</LatitudeDegrees>
              <LongitudeDegrees>-2.0138345472514629364013671875</LongitudeDegrees>
            </Position>
            <AltitudeMeters>51.40000152587890625</AltitudeMeters>
            <DistanceMeters>NAN</DistanceMeters>
          </Trackpoint>
          <Trackpoint>
            <Time>2021-08-12T15:11:13.000Z</Time>
            <Position>
              <LatitudeDegrees>43.2782285101711750030517578125</LatitudeDegrees>
              <LongitudeDegrees>-2.01379112899303436279296875</LongitudeDegrees>
            </Position>
            <AltitudeMeters>51.59999847412109375</AltitudeMeters>
            <DistanceMeters>NAN</DistanceMeters>
          </Trackpoint>
          <Trackpoint>
            <Time>2021-08-12T15:11:14.000Z</Time>
            <Position>
              <LatitudeDegrees>43.27830101363360881805419921875</LatitudeDegrees>
              <LongitudeDegrees>-2.013772688806056976318359375</LongitudeDegrees>
            </Position>
            <AltitudeMeters>51.59999847412109375</AltitudeMeters>
            <DistanceMeters>NAN</DistanceMeters>
          </Trackpoint>
          <Trackpoint>
            <Time>2021-08-12T15:11:15.000Z</Time>
            <Position>
              <LatitudeDegrees>43.27831291593611240386962890625</LatitudeDegrees>
              <LongitudeDegrees>-2.0137312822043895721435546875</LongitudeDegrees>
            </Position>
            <AltitudeMeters>51.799999237060546875</AltitudeMeters>
            <DistanceMeters>NAN</DistanceMeters>
          </Trackpoint>
          <Trackpoint>
            <Time>2021-08-12T15:11:16.000Z</Time>
            <Position>
              <LatitudeDegrees>43.27831191010773181915283203125</LatitudeDegrees>
              <LongitudeDegrees>-2.01370395720005035400390625</LongitudeDegrees>
            </Position>
            <AltitudeMeters>51.799999237060546875</AltitudeMeters>
            <DistanceMeters>NAN</DistanceMeters>
          </Trackpoint>
          <Trackpoint>
            <Time>2021-08-12T15:11:17.000Z</Time>
            <Position>
              <LatitudeDegrees>43.27831475995481014251708984375</LatitudeDegrees>
              <LongitudeDegrees>-2.01366414315998554229736328125</LongitudeDegrees>
            </Position>
            <AltitudeMeters>51.799999237060546875</AltitudeMeters>
            <DistanceMeters>NAN</DistanceMeters>
          </Trackpoint>
          <Trackpoint>
            <Time>2021-08-12T15:11:18.000Z</Time>
            <Position>
              <LatitudeDegrees>43.278322555124759674072265625</LatitudeDegrees>
              <LongitudeDegrees>-2.01361670158803462982177734375</LongitudeDegrees>
            </Position>
            <AltitudeMeters>51.799999237060546875</AltitudeMeters>
            <DistanceMeters>NAN</DistanceMeters>
          </Trackpoint>
          <Trackpoint>
            <Time>2021-08-12T15:11:19.000Z</Time>
            <Position>
              <LatitudeDegrees>43.2783260755240917205810546875</LatitudeDegrees>
              <LongitudeDegrees>-2.01357311569154262542724609375</LongitudeDegrees>
            </Position>
            <AltitudeMeters>51.799999237060546875</AltitudeMeters>
            <DistanceMeters>NAN</DistanceMeters>
          </Trackpoint>
          <Trackpoint>
            <Time>2021-08-12T15:11:20.000Z</Time>
            <Position>
              <LatitudeDegrees>43.278329260647296905517578125</LatitudeDegrees>
              <LongitudeDegrees>-2.013528607785701751708984375</LongitudeDegrees>
            </Position>
            <AltitudeMeters>51.799999237060546875</AltitudeMeters>
            <DistanceMeters>NAN</DistanceMeters>
          </Trackpoint>
          <Trackpoint>
            <Time>2021-08-12T15:11:21.000Z</Time>
            <Position>
              <LatitudeDegrees>43.278333283960819244384765625</LatitudeDegrees>
              <LongitudeDegrees>-2.01349348761141300201416015625</LongitudeDegrees>
            </Position>
            <AltitudeMeters>52</AltitudeMeters>
            <DistanceMeters>NAN</DistanceMeters>
          </Trackpoint>
          <Trackpoint>
            <Time>2021-08-12T15:11:22.000Z</Time>
            <Position>
              <LatitudeDegrees>43.2783361338078975677490234375</LatitudeDegrees>
              <LongitudeDegrees>-2.0134513266384601593017578125</LongitudeDegrees>
            </Position>
            <AltitudeMeters>51.799999237060546875</AltitudeMeters>
            <DistanceMeters>NAN</DistanceMeters>
          </Trackpoint>
          <Trackpoint>
            <Time>2021-08-12T15:11:23.000Z</Time>
            <Position>
              <LatitudeDegrees>43.27834443189203739166259765625</LatitudeDegrees>
              <LongitudeDegrees>-2.01340891420841217041015625</LongitudeDegrees>
            </Position>
            <AltitudeMeters>52</AltitudeMeters>
            <DistanceMeters>NAN</DistanceMeters>
          </Trackpoint>
          <Trackpoint>
            <Time>2021-08-12T15:11:24.000Z</Time>
            <Position>
              <LatitudeDegrees>43.27834912575781345367431640625</LatitudeDegrees>
              <LongitudeDegrees>-2.01336742378771305084228515625</LongitudeDegrees>
            </Position>
            <AltitudeMeters>52</AltitudeMeters>
            <DistanceMeters>NAN</DistanceMeters>
          </Trackpoint>
          <Trackpoint>
            <Time>2021-08-12T15:11:25.000Z</Time>
            <Position>
              <LatitudeDegrees>43.2783552445471286773681640625</LatitudeDegrees>
              <LongitudeDegrees>-2.0133292861282825469970703125</LongitudeDegrees>
            </Position>
            <AltitudeMeters>52</AltitudeMeters>
            <DistanceMeters>NAN</DistanceMeters>
          </Trackpoint>
          <Trackpoint>
            <Time>2021-08-12T15:11:26.000Z</Time>
            <Position>
              <LatitudeDegrees>43.27835935167968273162841796875</LatitudeDegrees>
              <LongitudeDegrees>-2.0132934115827083587646484375</LongitudeDegrees>
            </Position>
            <AltitudeMeters>52</AltitudeMeters>
            <DistanceMeters>NAN</DistanceMeters>
          </Trackpoint>
          <Trackpoint>
            <Time>2021-08-12T15:11:27.000Z</Time>
            <Position>
              <LatitudeDegrees>43.27836069278419017791748046875</LatitudeDegrees>
              <LongitudeDegrees>-2.013251669704914093017578125</LongitudeDegrees>
            </Position>
            <AltitudeMeters>52</AltitudeMeters>
            <DistanceMeters>NAN</DistanceMeters>
          </Trackpoint>
          <Trackpoint>
            <Time>2021-08-12T15:11:28.000Z</Time>
            <Position>
              <LatitudeDegrees>43.27837242744863033294677734375</LatitudeDegrees>
              <LongitudeDegrees>-2.013210095465183258056640625</LongitudeDegrees>
            </Position>
            <AltitudeMeters>52.200000762939453125</AltitudeMeters>
            <DistanceMeters>NAN</DistanceMeters>
          </Trackpoint>
          <Trackpoint>
            <Time>2021-08-12T15:11:29.000Z</Time>
            <Position>
              <LatitudeDegrees>43.27837829478085041046142578125</LatitudeDegrees>
              <LongitudeDegrees>-2.0131686888635158538818359375</LongitudeDegrees>
            </Position>
            <AltitudeMeters>52.40000152587890625</AltitudeMeters>
            <DistanceMeters>NAN</DistanceMeters>
          </Trackpoint>
          <Trackpoint>
            <Time>2021-08-12T15:11:30.000Z</Time>
            <Position>
              <LatitudeDegrees>43.278378881514072418212890625</LatitudeDegrees>
              <LongitudeDegrees>-2.0131254382431507110595703125</LongitudeDegrees>
            </Position>
            <AltitudeMeters>52.59999847412109375</AltitudeMeters>
            <DistanceMeters>NAN</DistanceMeters>
          </Trackpoint>
          <Trackpoint>
            <Time>2021-08-12T15:11:31.000Z</Time>
            <Position>
              <LatitudeDegrees>43.27836773358285427093505859375</LatitudeDegrees>
              <LongitudeDegrees>-2.0130821876227855682373046875</LongitudeDegrees>
            </Position>
            <AltitudeMeters>52.799999237060546875</AltitudeMeters>
            <DistanceMeters>NAN</DistanceMeters>
          </Trackpoint>
          <Trackpoint>
            <Time>2021-08-12T15:11:32.000Z</Time>
            <Position>
              <LatitudeDegrees>43.27836605720221996307373046875</LatitudeDegrees>
              <LongitudeDegrees>-2.0130409486591815948486328125</LongitudeDegrees>
            </Position>
            <AltitudeMeters>52.799999237060546875</AltitudeMeters>
            <DistanceMeters>NAN</DistanceMeters>
          </Trackpoint>
          <Trackpoint>
            <Time>2021-08-12T15:11:33.000Z</Time>
            <Position>
              <LatitudeDegrees>43.27836320735514163970947265625</LatitudeDegrees>
              <LongitudeDegrees>-2.0130045711994171142578125</LongitudeDegrees>
            </Position>
            <AltitudeMeters>53</AltitudeMeters>
            <DistanceMeters>NAN</DistanceMeters>
          </Trackpoint>
          <Trackpoint>
            <Time>2021-08-12T15:11:34.000Z</Time>
            <Position>
              <LatitudeDegrees>43.2783611118793487548828125</LatitudeDegrees>
              <LongitudeDegrees>-2.0129722170531749725341796875</LongitudeDegrees>
            </Position>
            <AltitudeMeters>53.40000152587890625</AltitudeMeters>
            <DistanceMeters>NAN</DistanceMeters>
          </Trackpoint>
          <Trackpoint>
            <Time>2021-08-12T15:11:35.000Z</Time>
            <Position>
              <LatitudeDegrees>43.27836178243160247802734375</LatitudeDegrees>
              <LongitudeDegrees>-2.01294179074466228485107421875</LongitudeDegrees>
            </Position>
            <AltitudeMeters>53.59999847412109375</AltitudeMeters>
            <DistanceMeters>NAN</DistanceMeters>
          </Trackpoint>
          <Trackpoint>
            <Time>2021-08-12T15:11:36.000Z</Time>
            <Position>
              <LatitudeDegrees>43.278362452983856201171875</LatitudeDegrees>
              <LongitudeDegrees>-2.01291195116937160491943359375</LongitudeDegrees>
            </Position>
            <AltitudeMeters>53.799999237060546875</AltitudeMeters>
            <DistanceMeters>NAN</DistanceMeters>
          </Trackpoint>
          <Trackpoint>
            <Time>2021-08-12T15:11:37.000Z</Time>
            <Position>
              <LatitudeDegrees>43.27836521901190280914306640625</LatitudeDegrees>
              <LongitudeDegrees>-2.012888900935649871826171875</LongitudeDegrees>
            </Position>
            <AltitudeMeters>54</AltitudeMeters>
            <DistanceMeters>NAN</DistanceMeters>
          </Trackpoint>
          <Trackpoint>
            <Time>2021-08-12T15:11:38.000Z</Time>
            <Position>
              <LatitudeDegrees>43.27836890704929828643798828125</LatitudeDegrees>
              <LongitudeDegrees>-2.01286333613097667694091796875</LongitudeDegrees>
            </Position>
            <AltitudeMeters>54.200000762939453125</AltitudeMeters>
            <DistanceMeters>NAN</DistanceMeters>
          </Trackpoint>
          <Trackpoint>
            <Time>2021-08-12T15:11:39.000Z</Time>
            <Position>
              <LatitudeDegrees>43.27837309800088405609130859375</LatitudeDegrees>
              <LongitudeDegrees>-2.01283148489892482757568359375</LongitudeDegrees>
            </Position>
            <AltitudeMeters>54.200000762939453125</AltitudeMeters>
            <DistanceMeters>NAN</DistanceMeters>
          </Trackpoint>
          <Trackpoint>
            <Time>2021-08-12T15:11:40.000Z</Time>
            <Position>
              <LatitudeDegrees>43.27838097698986530303955078125</LatitudeDegrees>
              <LongitudeDegrees>-2.012795023620128631591796875</LongitudeDegrees>
            </Position>
            <AltitudeMeters>54.40000152587890625</AltitudeMeters>
            <DistanceMeters>NAN</DistanceMeters>
          </Trackpoint>
          <Trackpoint>
            <Time>2021-08-12T15:11:41.000Z</Time>
            <Position>
              <LatitudeDegrees>43.278402350842952728271484375</LatitudeDegrees>
              <LongitudeDegrees>-2.01276359148323535919189453125</LongitudeDegrees>
            </Position>
            <AltitudeMeters>54.59999847412109375</AltitudeMeters>
            <DistanceMeters>NAN</DistanceMeters>
          </Trackpoint>
          <Trackpoint>
            <Time>2021-08-12T15:11:42.000Z</Time>
            <Position>
              <LatitudeDegrees>43.27841467224061489105224609375</LatitudeDegrees>
              <LongitudeDegrees>-2.0127237774431705474853515625</LongitudeDegrees>
            </Position>
            <AltitudeMeters>54.59999847412109375</AltitudeMeters>
            <DistanceMeters>NAN</DistanceMeters>
          </Trackpoint>
          <Trackpoint>
            <Time>2021-08-12T15:11:43.000Z</Time>
            <Position>
              <LatitudeDegrees>43.2784246467053890228271484375</LatitudeDegrees>
              <LongitudeDegrees>-2.01268748380243778228759765625</LongitudeDegrees>
            </Position>
            <AltitudeMeters>54.59999847412109375</AltitudeMeters>
            <DistanceMeters>NAN</DistanceMeters>
          </Trackpoint>
          <Trackpoint>
            <Time>2021-08-12T15:11:44.000Z</Time>
            <Position>
              <LatitudeDegrees>43.2784286700189113616943359375</LatitudeDegrees>
              <LongitudeDegrees>-2.012653537094593048095703125</LongitudeDegrees>
            </Position>
            <AltitudeMeters>54.59999847412109375</AltitudeMeters>
            <DistanceMeters>NAN</DistanceMeters>
          </Trackpoint>
          <Trackpoint>
            <Time>2021-08-12T15:11:45.000Z</Time>
            <Position>
              <LatitudeDegrees>43.27842883765697479248046875</LatitudeDegrees>
              <LongitudeDegrees>-2.0126148127019405364990234375</LongitudeDegrees>
            </Position>
            <AltitudeMeters>54.59999847412109375</AltitudeMeters>
            <DistanceMeters>NAN</DistanceMeters>
          </Trackpoint>
          <Trackpoint>
            <Time>2021-08-12T15:11:46.000Z</Time>
            <Position>
              <LatitudeDegrees>43.278426826000213623046875</LatitudeDegrees>
              <LongitudeDegrees>-2.0125705562531948089599609375</LongitudeDegrees>
            </Position>
            <AltitudeMeters>54.59999847412109375</AltitudeMeters>
            <DistanceMeters>NAN</DistanceMeters>
          </Trackpoint>
          <Trackpoint>
            <Time>2021-08-12T15:11:47.000Z</Time>
            <Position>
              <LatitudeDegrees>43.27842674218118190765380859375</LatitudeDegrees>
              <LongitudeDegrees>-2.0125206001102924346923828125</LongitudeDegrees>
            </Position>
            <AltitudeMeters>54.59999847412109375</AltitudeMeters>
            <DistanceMeters>NAN</DistanceMeters>
          </Trackpoint>
          <Trackpoint>
            <Time>2021-08-12T15:11:48.000Z</Time>
            <Position>
              <LatitudeDegrees>43.278425820171833038330078125</LatitudeDegrees>
              <LongitudeDegrees>-2.0124599151313304901123046875</LongitudeDegrees>
            </Position>
            <AltitudeMeters>54.40000152587890625</AltitudeMeters>
            <DistanceMeters>NAN</DistanceMeters>
          </Trackpoint>
          <Trackpoint>
            <Time>2021-08-12T15:11:49.000Z</Time>
            <Position>
              <LatitudeDegrees>43.278421461582183837890625</LatitudeDegrees>
              <LongitudeDegrees>-2.01240040361881256103515625</LongitudeDegrees>
            </Position>
            <AltitudeMeters>54.40000152587890625</AltitudeMeters>
            <DistanceMeters>NAN</DistanceMeters>
          </Trackpoint>
          <Trackpoint>
            <Time>2021-08-12T15:11:50.000Z</Time>
            <Position>
              <LatitudeDegrees>43.2784119062125682830810546875</LatitudeDegrees>
              <LongitudeDegrees>-2.01234349049627780914306640625</LongitudeDegrees>
            </Position>
            <AltitudeMeters>54.200000762939453125</AltitudeMeters>
            <DistanceMeters>NAN</DistanceMeters>
          </Trackpoint>
          <Trackpoint>
            <Time>2021-08-12T15:11:51.000Z</Time>
            <Position>
              <LatitudeDegrees>43.278401680290699005126953125</LatitudeDegrees>
              <LongitudeDegrees>-2.01228481717407703399658203125</LongitudeDegrees>
            </Position>
            <AltitudeMeters>54</AltitudeMeters>
            <DistanceMeters>NAN</DistanceMeters>
          </Trackpoint>
          <Trackpoint>
            <Time>2021-08-12T15:11:52.000Z</Time>
            <Position>
              <LatitudeDegrees>43.27839371748268604278564453125</LatitudeDegrees>
              <LongitudeDegrees>-2.01222631148993968963623046875</LongitudeDegrees>
            </Position>
            <AltitudeMeters>53.799999237060546875</AltitudeMeters>
            <DistanceMeters>NAN</DistanceMeters>
          </Trackpoint>
          <Trackpoint>
            <Time>2021-08-12T15:11:53.000Z</Time>
            <Position>
              <LatitudeDegrees>43.27839153818786144256591796875</LatitudeDegrees>
              <LongitudeDegrees>-2.0121789537370204925537109375</LongitudeDegrees>
            </Position>
            <AltitudeMeters>53.799999237060546875</AltitudeMeters>
            <DistanceMeters>NAN</DistanceMeters>
          </Trackpoint>
          <Trackpoint>
            <Time>2021-08-12T15:11:54.000Z</Time>
            <Position>
              <LatitudeDegrees>43.278392963111400604248046875</LatitudeDegrees>
              <LongitudeDegrees>-2.01216260902583599090576171875</LongitudeDegrees>
            </Position>
            <AltitudeMeters>53.40000152587890625</AltitudeMeters>
            <DistanceMeters>NAN</DistanceMeters>
          </Trackpoint>
          <Trackpoint>
            <Time>2021-08-12T15:11:55.000Z</Time>
            <Position>
              <LatitudeDegrees>43.27839128673076629638671875</LatitudeDegrees>
              <LongitudeDegrees>-2.01216462068259716033935546875</LongitudeDegrees>
            </Position>
            <AltitudeMeters>53</AltitudeMeters>
            <DistanceMeters>NAN</DistanceMeters>
          </Trackpoint>
          <Trackpoint>
            <Time>2021-08-12T15:11:56.000Z</Time>
            <Position>
              <LatitudeDegrees>43.27838935889303684234619140625</LatitudeDegrees>
              <LongitudeDegrees>-2.0121658779680728912353515625</LongitudeDegrees>
            </Position>
            <AltitudeMeters>53</AltitudeMeters>
            <DistanceMeters>NAN</DistanceMeters>
          </Trackpoint>
          <Trackpoint>
            <Time>2021-08-12T15:11:57.000Z</Time>
            <Position>
              <LatitudeDegrees>43.2783857546746730804443359375</LatitudeDegrees>
              <LongitudeDegrees>-2.0121648721396923065185546875</LongitudeDegrees>
            </Position>
            <AltitudeMeters>52.799999237060546875</AltitudeMeters>
            <DistanceMeters>NAN</DistanceMeters>
          </Trackpoint>
          <Trackpoint>
            <Time>2021-08-12T15:11:58.000Z</Time>
            <Position>
              <LatitudeDegrees>43.27838449738919734954833984375</LatitudeDegrees>
              <LongitudeDegrees>-2.01216436922550201416015625</LongitudeDegrees>
            </Position>
            <AltitudeMeters>52.799999237060546875</AltitudeMeters>
            <DistanceMeters>NAN</DistanceMeters>
          </Trackpoint>
          <Trackpoint>
            <Time>2021-08-12T15:11:59.000Z</Time>
            <Position>
              <LatitudeDegrees>43.27838382683694362640380859375</LatitudeDegrees>
              <LongitudeDegrees>-2.01216026209294795989990234375</LongitudeDegrees>
            </Position>
            <AltitudeMeters>52.799999237060546875</AltitudeMeters>
            <DistanceMeters>NAN</DistanceMeters>
          </Trackpoint>
          <Trackpoint>
            <Time>2021-08-12T15:12:00.000Z</Time>
            <Position>
              <LatitudeDegrees>43.2783837430179119110107421875</LatitudeDegrees>
              <LongitudeDegrees>-2.0121610164642333984375</LongitudeDegrees>
            </Position>
            <AltitudeMeters>52.799999237060546875</AltitudeMeters>
            <DistanceMeters>NAN</DistanceMeters>
          </Trackpoint>
          <Trackpoint>
            <Time>2021-08-12T15:12:08.000Z</Time>
            <Position>
              <LatitudeDegrees>43.2784196175634860992431640625</LatitudeDegrees>
              <LongitudeDegrees>-2.01147512532770633697509765625</LongitudeDegrees>
            </Position>
            <AltitudeMeters>52.799999237060546875</AltitudeMeters>
            <DistanceMeters>NAN</DistanceMeters>
          </Trackpoint>
          <Trackpoint>
            <Time>2021-08-12T15:12:09.000Z</Time>
            <Position>
              <LatitudeDegrees>43.2783879339694976806640625</LatitudeDegrees>
              <LongitudeDegrees>-2.011474035680294036865234375</LongitudeDegrees>
            </Position>
            <AltitudeMeters>52.799999237060546875</AltitudeMeters>
            <DistanceMeters>NAN</DistanceMeters>
          </Trackpoint>
          <Trackpoint>
            <Time>2021-08-12T15:12:10.000Z</Time>
            <Position>
              <LatitudeDegrees>43.2783753611147403717041015625</LatitudeDegrees>
              <LongitudeDegrees>-2.0113764703273773193359375</LongitudeDegrees>
            </Position>
            <AltitudeMeters>52.799999237060546875</AltitudeMeters>
            <DistanceMeters>NAN</DistanceMeters>
          </Trackpoint>
          <Trackpoint>
            <Time>2021-08-12T15:12:14.000Z</Time>
            <Position>
              <LatitudeDegrees>43.27827687375247478485107421875</LatitudeDegrees>
              <LongitudeDegrees>-2.01101361773908138275146484375</LongitudeDegrees>
            </Position>
            <AltitudeMeters>52.799999237060546875</AltitudeMeters>
            <DistanceMeters>NAN</DistanceMeters>
          </Trackpoint>
          <Trackpoint>
            <Time>2021-08-12T15:12:19.000Z</Time>
            <Position>
              <LatitudeDegrees>43.278221972286701202392578125</LatitudeDegrees>
              <LongitudeDegrees>-2.0106527768075466156005859375</LongitudeDegrees>
            </Position>
            <AltitudeMeters>52.799999237060546875</AltitudeMeters>
            <DistanceMeters>NAN</DistanceMeters>
          </Trackpoint>
          <Trackpoint>
            <Time>2021-08-12T15:12:21.000Z</Time>
            <Position>
              <LatitudeDegrees>43.27820755541324615478515625</LatitudeDegrees>
              <LongitudeDegrees>-2.0105535350739955902099609375</LongitudeDegrees>
            </Position>
            <AltitudeMeters>52.799999237060546875</AltitudeMeters>
            <DistanceMeters>NAN</DistanceMeters>
          </Trackpoint>
          <Trackpoint>
            <Time>2021-08-12T15:12:22.000Z</Time>
            <Position>
              <LatitudeDegrees>43.27818970195949077606201171875</LatitudeDegrees>
              <LongitudeDegrees>-2.01049226336181163787841796875</LongitudeDegrees>
            </Position>
            <AltitudeMeters>53</AltitudeMeters>
            <DistanceMeters>NAN</DistanceMeters>
          </Trackpoint>
          <Trackpoint>
            <Time>2021-08-12T15:12:23.000Z</Time>
            <Position>
              <LatitudeDegrees>43.27816925011575222015380859375</LatitudeDegrees>
              <LongitudeDegrees>-2.01044113375246524810791015625</LongitudeDegrees>
            </Position>
            <AltitudeMeters>53.200000762939453125</AltitudeMeters>
            <DistanceMeters>NAN</DistanceMeters>
          </Trackpoint>
          <Trackpoint>
            <Time>2021-08-12T15:12:25.000Z</Time>
            <Position>
              <LatitudeDegrees>43.27814879827201366424560546875</LatitudeDegrees>
              <LongitudeDegrees>-2.01034926809370517730712890625</LongitudeDegrees>
            </Position>
            <AltitudeMeters>53.799999237060546875</AltitudeMeters>
            <DistanceMeters>NAN</DistanceMeters>
          </Trackpoint>
          <Trackpoint>
            <Time>2021-08-12T15:12:26.000Z</Time>
            <Position>
              <LatitudeDegrees>43.27814075164496898651123046875</LatitudeDegrees>
              <LongitudeDegrees>-2.01030828058719635009765625</LongitudeDegrees>
            </Position>
            <AltitudeMeters>54</AltitudeMeters>
            <DistanceMeters>NAN</DistanceMeters>
          </Trackpoint>
          <Trackpoint>
            <Time>2021-08-12T15:12:27.000Z</Time>
            <Position>
              <LatitudeDegrees>43.2781296037137508392333984375</LatitudeDegrees>
              <LongitudeDegrees>-2.01026712544262409210205078125</LongitudeDegrees>
            </Position>
            <AltitudeMeters>54.40000152587890625</AltitudeMeters>
            <DistanceMeters>NAN</DistanceMeters>
          </Trackpoint>
          <Trackpoint>
            <Time>2021-08-12T15:12:28.000Z</Time>
            <Position>
              <LatitudeDegrees>43.27811904251575469970703125</LatitudeDegrees>
              <LongitudeDegrees>-2.01022940687835216522216796875</LongitudeDegrees>
            </Position>
            <AltitudeMeters>54.59999847412109375</AltitudeMeters>
            <DistanceMeters>NAN</DistanceMeters>
          </Trackpoint>
          <Trackpoint>
            <Time>2021-08-12T15:12:29.000Z</Time>
            <Position>
              <LatitudeDegrees>43.2781114988029003143310546875</LatitudeDegrees>
              <LongitudeDegrees>-2.01019755564630031585693359375</LongitudeDegrees>
            </Position>
            <AltitudeMeters>54.59999847412109375</AltitudeMeters>
            <DistanceMeters>NAN</DistanceMeters>
          </Trackpoint>
          <Trackpoint>
            <Time>2021-08-12T15:12:30.000Z</Time>
            <Position>
              <LatitudeDegrees>43.27810236252844333648681640625</LatitudeDegrees>
              <LongitudeDegrees>-2.0101666264235973358154296875</LongitudeDegrees>
            </Position>
            <AltitudeMeters>55</AltitudeMeters>
            <DistanceMeters>NAN</DistanceMeters>
          </Trackpoint>
          <Trackpoint>
            <Time>2021-08-12T15:12:31.000Z</Time>
            <Position>
              <LatitudeDegrees>43.27809414826333522796630859375</LatitudeDegrees>
              <LongitudeDegrees>-2.010139636695384979248046875</LongitudeDegrees>
            </Position>
            <AltitudeMeters>55</AltitudeMeters>
            <DistanceMeters>NAN</DistanceMeters>
          </Trackpoint>
          <Trackpoint>
            <Time>2021-08-12T15:12:32.000Z</Time>
            <Position>
              <LatitudeDegrees>43.278087191283702850341796875</LatitudeDegrees>
              <LongitudeDegrees>-2.01012010686099529266357421875</LongitudeDegrees>
            </Position>
            <AltitudeMeters>55.200000762939453125</AltitudeMeters>
            <DistanceMeters>NAN</DistanceMeters>
          </Trackpoint>
          <Trackpoint>
            <Time>2021-08-12T15:12:33.000Z</Time>
            <Position>
              <LatitudeDegrees>43.278082497417926788330078125</LatitudeDegrees>
              <LongitudeDegrees>-2.01010711491107940673828125</LongitudeDegrees>
            </Position>
            <AltitudeMeters>55.40000152587890625</AltitudeMeters>
            <DistanceMeters>NAN</DistanceMeters>
          </Trackpoint>
          <Trackpoint>
            <Time>2021-08-12T15:12:34.000Z</Time>
            <Position>
              <LatitudeDegrees>43.27807671390473842620849609375</LatitudeDegrees>
              <LongitudeDegrees>-2.0100975595414638519287109375</LongitudeDegrees>
            </Position>
            <AltitudeMeters>55.59999847412109375</AltitudeMeters>
            <DistanceMeters>NAN</DistanceMeters>
          </Trackpoint>
          <Trackpoint>
            <Time>2021-08-12T15:12:35.000Z</Time>
            <Position>
              <LatitudeDegrees>43.27807453460991382598876953125</LatitudeDegrees>
              <LongitudeDegrees>-2.010094709694385528564453125</LongitudeDegrees>
            </Position>
            <AltitudeMeters>55.799999237060546875</AltitudeMeters>
            <DistanceMeters>NAN</DistanceMeters>
          </Trackpoint>
          <Trackpoint>
            <Time>2021-08-12T15:12:37.000Z</Time>
            <Position>
              <LatitudeDegrees>43.27807453460991382598876953125</LatitudeDegrees>
              <LongitudeDegrees>-2.010094709694385528564453125</LongitudeDegrees>
            </Position>
            <AltitudeMeters>56</AltitudeMeters>
            <DistanceMeters>NAN</DistanceMeters>
          </Trackpoint>
          <Trackpoint>
            <Time>2021-08-12T15:12:52.000Z</Time>
            <Position>
              <LatitudeDegrees>43.27807453460991382598876953125</LatitudeDegrees>
              <LongitudeDegrees>-2.010094709694385528564453125</LongitudeDegrees>
            </Position>
            <AltitudeMeters>56.200000762939453125</AltitudeMeters>
            <DistanceMeters>NAN</DistanceMeters>
          </Trackpoint>
          <Trackpoint>
            <Time>2021-08-12T15:13:53.000Z</Time>
            <Position>
              <LatitudeDegrees>43.2780754566192626953125</LatitudeDegrees>
              <LongitudeDegrees>-2.0100911892950534820556640625</LongitudeDegrees>
            </Position>
            <AltitudeMeters>56</AltitudeMeters>
            <DistanceMeters>NAN</DistanceMeters>
          </Trackpoint>
          <Trackpoint>
            <Time>2021-08-12T15:13:56.000Z</Time>
            <Position>
              <LatitudeDegrees>43.27808023430407047271728515625</LatitudeDegrees>
              <LongitudeDegrees>-2.009985409677028656005859375</LongitudeDegrees>
            </Position>
            <AltitudeMeters>56</AltitudeMeters>
            <DistanceMeters>NAN</DistanceMeters>
          </Trackpoint>
          <Trackpoint>
            <Time>2021-08-12T15:14:00.000Z</Time>
            <Position>
              <LatitudeDegrees>43.27811895869672298431396484375</LatitudeDegrees>
              <LongitudeDegrees>-2.0097430050373077392578125</LongitudeDegrees>
            </Position>
            <AltitudeMeters>55.799999237060546875</AltitudeMeters>
            <DistanceMeters>NAN</DistanceMeters>
          </Trackpoint>
          <Trackpoint>
            <Time>2021-08-12T15:14:02.000Z</Time>
            <Position>
              <LatitudeDegrees>43.278137147426605224609375</LatitudeDegrees>
              <LongitudeDegrees>-2.0096157677471637725830078125</LongitudeDegrees>
            </Position>
            <AltitudeMeters>55.799999237060546875</AltitudeMeters>
            <DistanceMeters>NAN</DistanceMeters>
          </Trackpoint>
          <Trackpoint>
            <Time>2021-08-12T15:14:08.000Z</Time>
            <Position>
              <LatitudeDegrees>43.27820361591875553131103515625</LatitudeDegrees>
              <LongitudeDegrees>-2.0092278532683849334716796875</LongitudeDegrees>
            </Position>
            <AltitudeMeters>55.40000152587890625</AltitudeMeters>
            <DistanceMeters>NAN</DistanceMeters>
          </Trackpoint>
          <Trackpoint>
            <Time>2021-08-12T15:14:13.000Z</Time>
            <Position>
              <LatitudeDegrees>43.27828609384596347808837890625</LatitudeDegrees>
              <LongitudeDegrees>-2.00887304730713367462158203125</LongitudeDegrees>
            </Position>
            <AltitudeMeters>54.799999237060546875</AltitudeMeters>
            <DistanceMeters>NAN</DistanceMeters>
          </Trackpoint>
          <Trackpoint>
            <Time>2021-08-12T15:14:17.000Z</Time>
            <Position>
              <LatitudeDegrees>43.27834929339587688446044921875</LatitudeDegrees>
              <LongitudeDegrees>-2.0085797645151615142822265625</LongitudeDegrees>
            </Position>
            <AltitudeMeters>54</AltitudeMeters>
            <DistanceMeters>NAN</DistanceMeters>
          </Trackpoint>
          <Trackpoint>
            <Time>2021-08-12T15:14:22.000Z</Time>
            <Position>
              <LatitudeDegrees>43.27842749655246734619140625</LatitudeDegrees>
              <LongitudeDegrees>-2.00821070931851863861083984375</LongitudeDegrees>
            </Position>
            <AltitudeMeters>53.200000762939453125</AltitudeMeters>
            <DistanceMeters>NAN</DistanceMeters>
          </Trackpoint>
          <Trackpoint>
            <Time>2021-08-12T15:14:25.000Z</Time>
            <Position>
              <LatitudeDegrees>43.27846379019320011138916015625</LatitudeDegrees>
              <LongitudeDegrees>-2.00801239348948001861572265625</LongitudeDegrees>
            </Position>
            <AltitudeMeters>52.799999237060546875</AltitudeMeters>
            <DistanceMeters>NAN</DistanceMeters>
          </Trackpoint>
          <Trackpoint>
            <Time>2021-08-12T15:14:31.000Z</Time>
            <Position>
              <LatitudeDegrees>43.27855833806097507476806640625</LatitudeDegrees>
              <LongitudeDegrees>-2.00756245292723178863525390625</LongitudeDegrees>
            </Position>
            <AltitudeMeters>52.40000152587890625</AltitudeMeters>
            <DistanceMeters>NAN</DistanceMeters>
          </Trackpoint>
          <Trackpoint>
            <Time>2021-08-12T15:14:32.000Z</Time>
            <Position>
              <LatitudeDegrees>43.27857795171439647674560546875</LatitudeDegrees>
              <LongitudeDegrees>-2.00749640353024005889892578125</LongitudeDegrees>
            </Position>
            <AltitudeMeters>52.200000762939453125</AltitudeMeters>
            <DistanceMeters>NAN</DistanceMeters>
          </Trackpoint>
          <Trackpoint>
            <Time>2021-08-12T15:14:33.000Z</Time>
            <Position>
              <LatitudeDegrees>43.27859756536781787872314453125</LatitudeDegrees>
              <LongitudeDegrees>-2.00743035413324832916259765625</LongitudeDegrees>
            </Position>
            <AltitudeMeters>52.200000762939453125</AltitudeMeters>
            <DistanceMeters>NAN</DistanceMeters>
          </Trackpoint>
          <Trackpoint>
            <Time>2021-08-12T15:14:34.000Z</Time>
            <Position>
              <LatitudeDegrees>43.27861634083092212677001953125</LatitudeDegrees>
              <LongitudeDegrees>-2.007365562021732330322265625</LongitudeDegrees>
            </Position>
            <AltitudeMeters>52</AltitudeMeters>
            <DistanceMeters>NAN</DistanceMeters>
          </Trackpoint>
          <Trackpoint>
            <Time>2021-08-12T15:14:35.000Z</Time>
            <Position>
              <LatitudeDegrees>43.278635703027248382568359375</LatitudeDegrees>
              <LongitudeDegrees>-2.007300853729248046875</LongitudeDegrees>
            </Position>
            <AltitudeMeters>52</AltitudeMeters>
            <DistanceMeters>NAN</DistanceMeters>
          </Trackpoint>
          <Trackpoint>
            <Time>2021-08-12T15:14:37.000Z</Time>
            <Position>
              <LatitudeDegrees>43.2786700688302516937255859375</LatitudeDegrees>
              <LongitudeDegrees>-2.00717386789619922637939453125</LongitudeDegrees>
            </Position>
            <AltitudeMeters>51.799999237060546875</AltitudeMeters>
            <DistanceMeters>NAN</DistanceMeters>
          </Trackpoint>
          <Trackpoint>
            <Time>2021-08-12T15:14:39.000Z</Time>
            <Position>
              <LatitudeDegrees>43.27870166860520839691162109375</LatitudeDegrees>
              <LongitudeDegrees>-2.00704042799770832061767578125</LongitudeDegrees>
            </Position>
            <AltitudeMeters>51.799999237060546875</AltitudeMeters>
            <DistanceMeters>NAN</DistanceMeters>
          </Trackpoint>
          <Trackpoint>
            <Time>2021-08-12T15:14:41.000Z</Time>
            <Position>
              <LatitudeDegrees>43.2787394709885120391845703125</LatitudeDegrees>
              <LongitudeDegrees>-2.00691587291657924652099609375</LongitudeDegrees>
            </Position>
            <AltitudeMeters>51.59999847412109375</AltitudeMeters>
            <DistanceMeters>NAN</DistanceMeters>
          </Trackpoint>
          <Trackpoint>
            <Time>2021-08-12T15:14:42.000Z</Time>
            <Position>
              <LatitudeDegrees>43.2787612639367580413818359375</LatitudeDegrees>
              <LongitudeDegrees>-2.006857283413410186767578125</LongitudeDegrees>
            </Position>
            <AltitudeMeters>51.40000152587890625</AltitudeMeters>
            <DistanceMeters>NAN</DistanceMeters>
          </Trackpoint>
          <Trackpoint>
            <Time>2021-08-12T15:14:43.000Z</Time>
            <Position>
              <LatitudeDegrees>43.2787810452282428741455078125</LatitudeDegrees>
              <LongitudeDegrees>-2.006801627576351165771484375</LongitudeDegrees>
            </Position>
            <AltitudeMeters>51.40000152587890625</AltitudeMeters>
            <DistanceMeters>NAN</DistanceMeters>
          </Trackpoint>
          <Trackpoint>
            <Time>2021-08-12T15:14:44.000Z</Time>
            <Position>
              <LatitudeDegrees>43.2788014970719814300537109375</LatitudeDegrees>
              <LongitudeDegrees>-2.006749324500560760498046875</LongitudeDegrees>
            </Position>
            <AltitudeMeters>51.40000152587890625</AltitudeMeters>
            <DistanceMeters>NAN</DistanceMeters>
          </Trackpoint>
          <Trackpoint>
            <Time>2021-08-12T15:14:45.000Z</Time>
            <Position>
              <LatitudeDegrees>43.2788266427814960479736328125</LatitudeDegrees>
              <LongitudeDegrees>-2.00669710524380207061767578125</LongitudeDegrees>
            </Position>
            <AltitudeMeters>51.40000152587890625</AltitudeMeters>
            <DistanceMeters>NAN</DistanceMeters>
          </Trackpoint>
          <Trackpoint>
            <Time>2021-08-12T15:14:46.000Z</Time>
            <Position>
              <LatitudeDegrees>43.27884533442556858062744140625</LatitudeDegrees>
              <LongitudeDegrees>-2.00664144940674304962158203125</LongitudeDegrees>
            </Position>
            <AltitudeMeters>51.40000152587890625</AltitudeMeters>
            <DistanceMeters>NAN</DistanceMeters>
          </Trackpoint>
          <Trackpoint>
            <Time>2021-08-12T15:14:47.000Z</Time>
            <Position>
              <LatitudeDegrees>43.2788631878793239593505859375</LatitudeDegrees>
              <LongitudeDegrees>-2.0065858773887157440185546875</LongitudeDegrees>
            </Position>
            <AltitudeMeters>51.40000152587890625</AltitudeMeters>
            <DistanceMeters>NAN</DistanceMeters>
          </Trackpoint>
          <Trackpoint>
            <Time>2021-08-12T15:14:48.000Z</Time>
            <Position>
              <LatitudeDegrees>43.27887685038149356842041015625</LatitudeDegrees>
              <LongitudeDegrees>-2.006541788578033447265625</LongitudeDegrees>
            </Position>
            <AltitudeMeters>51.40000152587890625</AltitudeMeters>
            <DistanceMeters>NAN</DistanceMeters>
          </Trackpoint>
          <Trackpoint>
            <Time>2021-08-12T15:14:49.000Z</Time>
            <Position>
              <LatitudeDegrees>43.27890920452773571014404296875</LatitudeDegrees>
              <LongitudeDegrees>-2.0064812712371349334716796875</LongitudeDegrees>
            </Position>
            <AltitudeMeters>51.40000152587890625</AltitudeMeters>
            <DistanceMeters>NAN</DistanceMeters>
          </Trackpoint>
          <Trackpoint>
            <Time>2021-08-12T15:14:50.000Z</Time>
            <Position>
              <LatitudeDegrees>43.278931416571140289306640625</LatitudeDegrees>
              <LongitudeDegrees>-2.00644061900675296783447265625</LongitudeDegrees>
            </Position>
            <AltitudeMeters>51.200000762939453125</AltitudeMeters>
            <DistanceMeters>NAN</DistanceMeters>
          </Trackpoint>
          <Trackpoint>
            <Time>2021-08-12T15:14:52.000Z</Time>
            <Position>
              <LatitudeDegrees>43.2789872400462627410888671875</LatitudeDegrees>
              <LongitudeDegrees>-2.00634858570992946624755859375</LongitudeDegrees>
            </Position>
            <AltitudeMeters>51.200000762939453125</AltitudeMeters>
            <DistanceMeters>NAN</DistanceMeters>
          </Trackpoint>
          <Trackpoint>
            <Time>2021-08-12T15:14:53.000Z</Time>
            <Position>
              <LatitudeDegrees>43.27901624143123626708984375</LatitudeDegrees>
              <LongitudeDegrees>-2.006301395595073699951171875</LongitudeDegrees>
            </Position>
            <AltitudeMeters>51.200000762939453125</AltitudeMeters>
            <DistanceMeters>NAN</DistanceMeters>
          </Trackpoint>
          <Trackpoint>
            <Time>2021-08-12T15:14:54.000Z</Time>
            <Position>
              <LatitudeDegrees>43.2790358550846576690673828125</LatitudeDegrees>
              <LongitudeDegrees>-2.00626912526786327362060546875</LongitudeDegrees>
            </Position>
            <AltitudeMeters>51.200000762939453125</AltitudeMeters>
            <DistanceMeters>NAN</DistanceMeters>
          </Trackpoint>
          <Trackpoint>
            <Time>2021-08-12T15:14:55.000Z</Time>
            <Position>
              <LatitudeDegrees>43.27904750593006610870361328125</LatitudeDegrees>
              <LongitudeDegrees>-2.00624800287187099456787109375</LongitudeDegrees>
            </Position>
            <AltitudeMeters>51</AltitudeMeters>
            <DistanceMeters>NAN</DistanceMeters>
          </Trackpoint>
          <Trackpoint>
            <Time>2021-08-12T15:14:56.000Z</Time>
            <Position>
              <LatitudeDegrees>43.27906242571771144866943359375</LatitudeDegrees>
              <LongitudeDegrees>-2.00622998178005218505859375</LongitudeDegrees>
            </Position>
            <AltitudeMeters>51</AltitudeMeters>
            <DistanceMeters>NAN</DistanceMeters>
          </Trackpoint>
          <Trackpoint>
            <Time>2021-08-12T15:14:57.000Z</Time>
            <Position>
              <LatitudeDegrees>43.27906996943056583404541015625</LatitudeDegrees>
              <LongitudeDegrees>-2.00621430762112140655517578125</LongitudeDegrees>
            </Position>
            <AltitudeMeters>50.799999237060546875</AltitudeMeters>
            <DistanceMeters>NAN</DistanceMeters>
          </Trackpoint>
          <Trackpoint>
            <Time>2021-08-12T15:14:58.000Z</Time>
            <Position>
              <LatitudeDegrees>43.279078938066959381103515625</LatitudeDegrees>
              <LongitudeDegrees>-2.0061979629099369049072265625</LongitudeDegrees>
            </Position>
            <AltitudeMeters>50.799999237060546875</AltitudeMeters>
            <DistanceMeters>NAN</DistanceMeters>
          </Trackpoint>
          <Trackpoint>
            <Time>2021-08-12T15:14:59.000Z</Time>
            <Position>
              <LatitudeDegrees>43.27908472158014774322509765625</LatitudeDegrees>
              <LongitudeDegrees>-2.00618212111294269561767578125</LongitudeDegrees>
            </Position>
            <AltitudeMeters>50.59999847412109375</AltitudeMeters>
            <DistanceMeters>NAN</DistanceMeters>
          </Trackpoint>
          <Trackpoint>
            <Time>2021-08-12T15:15:00.000Z</Time>
            <Position>
              <LatitudeDegrees>43.27908606268465518951416015625</LatitudeDegrees>
              <LongitudeDegrees>-2.0061771757900714874267578125</LongitudeDegrees>
            </Position>
            <AltitudeMeters>50.59999847412109375</AltitudeMeters>
            <DistanceMeters>NAN</DistanceMeters>
          </Trackpoint>
          <Trackpoint>
            <Time>2021-08-12T15:15:01.000Z</Time>
            <Position>
              <LatitudeDegrees>43.27908606268465518951416015625</LatitudeDegrees>
              <LongitudeDegrees>-2.0061771757900714874267578125</LongitudeDegrees>
            </Position>
            <AltitudeMeters>50.59999847412109375</AltitudeMeters>
            <DistanceMeters>NAN</DistanceMeters>
          </Trackpoint>
          <Trackpoint>
            <Time>2021-08-12T15:15:07.000Z</Time>
            <Position>
              <LatitudeDegrees>43.27908606268465518951416015625</LatitudeDegrees>
              <LongitudeDegrees>-2.0061771757900714874267578125</LongitudeDegrees>
            </Position>
            <AltitudeMeters>50.200000762939453125</AltitudeMeters>
            <DistanceMeters>NAN</DistanceMeters>
          </Trackpoint>
          <Trackpoint>
            <Time>2021-08-12T15:16:01.000Z</Time>
            <Position>
              <LatitudeDegrees>43.27905370853841304779052734375</LatitudeDegrees>
              <LongitudeDegrees>-2.00617541559040546417236328125</LongitudeDegrees>
            </Position>
            <AltitudeMeters>50</AltitudeMeters>
            <DistanceMeters>NAN</DistanceMeters>
          </Trackpoint>
          <Trackpoint>
            <Time>2021-08-12T15:16:02.000Z</Time>
            <Position>
              <LatitudeDegrees>43.27902638353407382965087890625</LatitudeDegrees>
              <LongitudeDegrees>-2.0061754994094371795654296875</LongitudeDegrees>
            </Position>
            <AltitudeMeters>50</AltitudeMeters>
            <DistanceMeters>NAN</DistanceMeters>
          </Trackpoint>
          <Trackpoint>
            <Time>2021-08-12T15:16:06.000Z</Time>
            <Position>
              <LatitudeDegrees>43.27888305298984050750732421875</LatitudeDegrees>
              <LongitudeDegrees>-2.00610148720443248748779296875</LongitudeDegrees>
            </Position>
            <AltitudeMeters>50.200000762939453125</AltitudeMeters>
            <DistanceMeters>NAN</DistanceMeters>
          </Trackpoint>
          <Trackpoint>
            <Time>2021-08-12T15:16:07.000Z</Time>
            <Position>
              <LatitudeDegrees>43.2788517884910106658935546875</LatitudeDegrees>
              <LongitudeDegrees>-2.00605907477438449859619140625</LongitudeDegrees>
            </Position>
            <AltitudeMeters>50.200000762939453125</AltitudeMeters>
            <DistanceMeters>NAN</DistanceMeters>
          </Trackpoint>
          <Trackpoint>
            <Time>2021-08-12T15:16:08.000Z</Time>
            <Position>
              <LatitudeDegrees>43.2788273133337497711181640625</LatitudeDegrees>
              <LongitudeDegrees>-2.0060098730027675628662109375</LongitudeDegrees>
            </Position>
            <AltitudeMeters>50.200000762939453125</AltitudeMeters>
            <DistanceMeters>NAN</DistanceMeters>
          </Trackpoint>
          <Trackpoint>
            <Time>2021-08-12T15:16:09.000Z</Time>
            <Position>
              <LatitudeDegrees>43.27881373465061187744140625</LatitudeDegrees>
              <LongitudeDegrees>-2.0059562288224697113037109375</LongitudeDegrees>
            </Position>
            <AltitudeMeters>50.200000762939453125</AltitudeMeters>
            <DistanceMeters>NAN</DistanceMeters>
          </Trackpoint>
          <Trackpoint>
            <Time>2021-08-12T15:16:10.000Z</Time>
            <Position>
              <LatitudeDegrees>43.2788082025945186614990234375</LatitudeDegrees>
              <LongitudeDegrees>-2.00590074062347412109375</LongitudeDegrees>
            </Position>
            <AltitudeMeters>50.40000152587890625</AltitudeMeters>
            <DistanceMeters>NAN</DistanceMeters>
          </Trackpoint>
          <Trackpoint>
            <Time>2021-08-12T15:16:11.000Z</Time>
            <Position>
              <LatitudeDegrees>43.27880300581455230712890625</LatitudeDegrees>
              <LongitudeDegrees>-2.00584349222481250762939453125</LongitudeDegrees>
            </Position>
            <AltitudeMeters>50.40000152587890625</AltitudeMeters>
            <DistanceMeters>NAN</DistanceMeters>
          </Trackpoint>
          <Trackpoint>
            <Time>2021-08-12T15:16:12.000Z</Time>
            <Position>
              <LatitudeDegrees>43.27879898250102996826171875</LatitudeDegrees>
              <LongitudeDegrees>-2.00578616000711917877197265625</LongitudeDegrees>
            </Position>
            <AltitudeMeters>50.40000152587890625</AltitudeMeters>
            <DistanceMeters>NAN</DistanceMeters>
          </Trackpoint>
          <Trackpoint>
            <Time>2021-08-12T15:16:17.000Z</Time>
            <Position>
              <LatitudeDegrees>43.27875472605228424072265625</LatitudeDegrees>
              <LongitudeDegrees>-2.00545608066022396087646484375</LongitudeDegrees>
            </Position>
            <AltitudeMeters>50.40000152587890625</AltitudeMeters>
            <DistanceMeters>NAN</DistanceMeters>
          </Trackpoint>
          <Trackpoint>
            <Time>2021-08-12T15:16:22.000Z</Time>
            <Position>
              <LatitudeDegrees>43.27867384068667888641357421875</LatitudeDegrees>
              <LongitudeDegrees>-2.0049882866442203521728515625</LongitudeDegrees>
            </Position>
            <AltitudeMeters>49.59999847412109375</AltitudeMeters>
            <DistanceMeters>NAN</DistanceMeters>
          </Trackpoint>
          <Trackpoint>
            <Time>2021-08-12T15:16:25.000Z</Time>
            <Position>
              <LatitudeDegrees>43.27863059006631374359130859375</LatitudeDegrees>
              <LongitudeDegrees>-2.00470489449799060821533203125</LongitudeDegrees>
            </Position>
            <AltitudeMeters>48.40000152587890625</AltitudeMeters>
            <DistanceMeters>NAN</DistanceMeters>
          </Trackpoint>
          <Trackpoint>
            <Time>2021-08-12T15:16:26.000Z</Time>
            <Position>
              <LatitudeDegrees>43.278622291982173919677734375</LatitudeDegrees>
              <LongitudeDegrees>-2.00461604632437229156494140625</LongitudeDegrees>
            </Position>
            <AltitudeMeters>47.799999237060546875</AltitudeMeters>
            <DistanceMeters>NAN</DistanceMeters>
          </Trackpoint>
          <Trackpoint>
            <Time>2021-08-12T15:16:27.000Z</Time>
            <Position>
              <LatitudeDegrees>43.278612904250621795654296875</LatitudeDegrees>
              <LongitudeDegrees>-2.0045333169400691986083984375</LongitudeDegrees>
            </Position>
            <AltitudeMeters>47.59999847412109375</AltitudeMeters>
            <DistanceMeters>NAN</DistanceMeters>
          </Trackpoint>
          <Trackpoint>
            <Time>2021-08-12T15:16:29.000Z</Time>
            <Position>
              <LatitudeDegrees>43.27858918346464633941650390625</LatitudeDegrees>
              <LongitudeDegrees>-2.0043720491230487823486328125</LongitudeDegrees>
            </Position>
            <AltitudeMeters>47.59999847412109375</AltitudeMeters>
            <DistanceMeters>NAN</DistanceMeters>
          </Trackpoint>
          <Trackpoint>
            <Time>2021-08-12T15:16:30.000Z</Time>
            <Position>
              <LatitudeDegrees>43.2785775326192378997802734375</LatitudeDegrees>
              <LongitudeDegrees>-2.00429401360452175140380859375</LongitudeDegrees>
            </Position>
            <AltitudeMeters>47.40000152587890625</AltitudeMeters>
            <DistanceMeters>NAN</DistanceMeters>
          </Trackpoint>
          <Trackpoint>
            <Time>2021-08-12T15:16:31.000Z</Time>
            <Position>
              <LatitudeDegrees>43.27856789343059062957763671875</LatitudeDegrees>
              <LongitudeDegrees>-2.0042171515524387359619140625</LongitudeDegrees>
            </Position>
            <AltitudeMeters>47.40000152587890625</AltitudeMeters>
            <DistanceMeters>NAN</DistanceMeters>
          </Trackpoint>
          <Trackpoint>
            <Time>2021-08-12T15:16:32.000Z</Time>
            <Position>
              <LatitudeDegrees>43.27855917625129222869873046875</LatitudeDegrees>
              <LongitudeDegrees>-2.00413878075778484344482421875</LongitudeDegrees>
            </Position>
            <AltitudeMeters>47.40000152587890625</AltitudeMeters>
            <DistanceMeters>NAN</DistanceMeters>
          </Trackpoint>
          <Trackpoint>
            <Time>2021-08-12T15:16:35.000Z</Time>
            <Position>
              <LatitudeDegrees>43.27853335998952388763427734375</LatitudeDegrees>
              <LongitudeDegrees>-2.00390995480120182037353515625</LongitudeDegrees>
            </Position>
            <AltitudeMeters>48</AltitudeMeters>
            <DistanceMeters>NAN</DistanceMeters>
          </Trackpoint>
          <Trackpoint>
            <Time>2021-08-12T15:16:36.000Z</Time>
            <Position>
              <LatitudeDegrees>43.2785245589911937713623046875</LatitudeDegrees>
              <LongitudeDegrees>-2.00383074581623077392578125</LongitudeDegrees>
            </Position>
            <AltitudeMeters>48.40000152587890625</AltitudeMeters>
            <DistanceMeters>NAN</DistanceMeters>
          </Trackpoint>
          <Trackpoint>
            <Time>2021-08-12T15:16:38.000Z</Time>
            <Position>
              <LatitudeDegrees>43.27850150875747203826904296875</LatitudeDegrees>
              <LongitudeDegrees>-2.00367249548435211181640625</LongitudeDegrees>
            </Position>
            <AltitudeMeters>48.59999847412109375</AltitudeMeters>
            <DistanceMeters>NAN</DistanceMeters>
          </Trackpoint>
          <Trackpoint>
            <Time>2021-08-12T15:16:40.000Z</Time>
            <Position>
              <LatitudeDegrees>43.2784695737063884735107421875</LatitudeDegrees>
              <LongitudeDegrees>-2.00352170504629611968994140625</LongitudeDegrees>
            </Position>
            <AltitudeMeters>49</AltitudeMeters>
            <DistanceMeters>NAN</DistanceMeters>
          </Trackpoint>
          <Trackpoint>
            <Time>2021-08-12T15:16:42.000Z</Time>
            <Position>
              <LatitudeDegrees>43.27844803221523761749267578125</LatitudeDegrees>
              <LongitudeDegrees>-2.00336596928536891937255859375</LongitudeDegrees>
            </Position>
            <AltitudeMeters>49.40000152587890625</AltitudeMeters>
            <DistanceMeters>NAN</DistanceMeters>
          </Trackpoint>
          <Trackpoint>
            <Time>2021-08-12T15:16:43.000Z</Time>
            <Position>
              <LatitudeDegrees>43.27843680046498775482177734375</LatitudeDegrees>
              <LongitudeDegrees>-2.0032904483377933502197265625</LongitudeDegrees>
            </Position>
            <AltitudeMeters>49.59999847412109375</AltitudeMeters>
            <DistanceMeters>NAN</DistanceMeters>
          </Trackpoint>
          <Trackpoint>
            <Time>2021-08-12T15:16:45.000Z</Time>
            <Position>
              <LatitudeDegrees>43.2784179411828517913818359375</LatitudeDegrees>
              <LongitudeDegrees>-2.00314468704164028167724609375</LongitudeDegrees>
            </Position>
            <AltitudeMeters>50</AltitudeMeters>
            <DistanceMeters>NAN</DistanceMeters>
          </Trackpoint>
          <Trackpoint>
            <Time>2021-08-12T15:16:47.000Z</Time>
            <Position>
              <LatitudeDegrees>43.27837846241891384124755859375</LatitudeDegrees>
              <LongitudeDegrees>-2.003001272678375244140625</LongitudeDegrees>
            </Position>
            <AltitudeMeters>50.40000152587890625</AltitudeMeters>
            <DistanceMeters>NAN</DistanceMeters>
          </Trackpoint>
          <Trackpoint>
            <Time>2021-08-12T15:16:48.000Z</Time>
            <Position>
              <LatitudeDegrees>43.27835801057517528533935546875</LatitudeDegrees>
              <LongitudeDegrees>-2.00293161906301975250244140625</LongitudeDegrees>
            </Position>
            <AltitudeMeters>50.59999847412109375</AltitudeMeters>
            <DistanceMeters>NAN</DistanceMeters>
          </Trackpoint>
          <Trackpoint>
            <Time>2021-08-12T15:16:49.000Z</Time>
            <Position>
              <LatitudeDegrees>43.278337977826595306396484375</LatitudeDegrees>
              <LongitudeDegrees>-2.002862133085727691650390625</LongitudeDegrees>
            </Position>
            <AltitudeMeters>50.799999237060546875</AltitudeMeters>
            <DistanceMeters>NAN</DistanceMeters>
          </Trackpoint>
          <Trackpoint>
            <Time>2021-08-12T15:16:50.000Z</Time>
            <Position>
              <LatitudeDegrees>43.27831475995481014251708984375</LatitudeDegrees>
              <LongitudeDegrees>-2.00279633514583110809326171875</LongitudeDegrees>
            </Position>
            <AltitudeMeters>51.200000762939453125</AltitudeMeters>
            <DistanceMeters>NAN</DistanceMeters>
          </Trackpoint>
          <Trackpoint>
            <Time>2021-08-12T15:16:51.000Z</Time>
            <Position>
              <LatitudeDegrees>43.27828978188335895538330078125</LatitudeDegrees>
              <LongitudeDegrees>-2.00273565016686916351318359375</LongitudeDegrees>
            </Position>
            <AltitudeMeters>51.40000152587890625</AltitudeMeters>
            <DistanceMeters>NAN</DistanceMeters>
          </Trackpoint>
          <Trackpoint>
            <Time>2021-08-12T15:16:52.000Z</Time>
            <Position>
              <LatitudeDegrees>43.27826430089771747589111328125</LatitudeDegrees>
              <LongitudeDegrees>-2.0026728697121143341064453125</LongitudeDegrees>
            </Position>
            <AltitudeMeters>51.799999237060546875</AltitudeMeters>
            <DistanceMeters>NAN</DistanceMeters>
          </Trackpoint>
          <Trackpoint>
            <Time>2021-08-12T15:16:53.000Z</Time>
            <Position>
              <LatitudeDegrees>43.278246782720088958740234375</LatitudeDegrees>
              <LongitudeDegrees>-2.00261972844600677490234375</LongitudeDegrees>
            </Position>
            <AltitudeMeters>52</AltitudeMeters>
            <DistanceMeters>NAN</DistanceMeters>
          </Trackpoint>
          <Trackpoint>
            <Time>2021-08-12T15:16:54.000Z</Time>
            <Position>
              <LatitudeDegrees>43.27822205610573291778564453125</LatitudeDegrees>
              <LongitudeDegrees>-2.00254219584167003631591796875</LongitudeDegrees>
            </Position>
            <AltitudeMeters>52.200000762939453125</AltitudeMeters>
            <DistanceMeters>NAN</DistanceMeters>
          </Trackpoint>
          <Trackpoint>
            <Time>2021-08-12T15:16:55.000Z</Time>
            <Position>
              <LatitudeDegrees>43.27819950878620147705078125</LatitudeDegrees>
              <LongitudeDegrees>-2.0024794153869152069091796875</LongitudeDegrees>
            </Position>
            <AltitudeMeters>52.799999237060546875</AltitudeMeters>
            <DistanceMeters>NAN</DistanceMeters>
          </Trackpoint>
          <Trackpoint>
            <Time>2021-08-12T15:16:56.000Z</Time>
            <Position>
              <LatitudeDegrees>43.278179056942462921142578125</LatitudeDegrees>
              <LongitudeDegrees>-2.0024163834750652313232421875</LongitudeDegrees>
            </Position>
            <AltitudeMeters>53</AltitudeMeters>
            <DistanceMeters>NAN</DistanceMeters>
          </Trackpoint>
          <Trackpoint>
            <Time>2021-08-12T15:16:57.000Z</Time>
            <Position>
              <LatitudeDegrees>43.27816061675548553466796875</LatitudeDegrees>
              <LongitudeDegrees>-2.00236550532281398773193359375</LongitudeDegrees>
            </Position>
            <AltitudeMeters>53.200000762939453125</AltitudeMeters>
            <DistanceMeters>NAN</DistanceMeters>
          </Trackpoint>
          <Trackpoint>
            <Time>2021-08-12T15:16:58.000Z</Time>
            <Position>
              <LatitudeDegrees>43.2781386561691761016845703125</LatitudeDegrees>
              <LongitudeDegrees>-2.00230314396321773529052734375</LongitudeDegrees>
            </Position>
            <AltitudeMeters>53.40000152587890625</AltitudeMeters>
            <DistanceMeters>NAN</DistanceMeters>
          </Trackpoint>
          <Trackpoint>
            <Time>2021-08-12T15:16:59.000Z</Time>
            <Position>
              <LatitudeDegrees>43.27811141498386859893798828125</LatitudeDegrees>
              <LongitudeDegrees>-2.002227790653705596923828125</LongitudeDegrees>
            </Position>
            <AltitudeMeters>53.40000152587890625</AltitudeMeters>
            <DistanceMeters>NAN</DistanceMeters>
          </Trackpoint>
          <Trackpoint>
            <Time>2021-08-12T15:17:00.000Z</Time>
            <Position>
              <LatitudeDegrees>43.27808844856917858123779296875</LatitudeDegrees>
              <LongitudeDegrees>-2.0021657645702362060546875</LongitudeDegrees>
            </Position>
            <AltitudeMeters>53.40000152587890625</AltitudeMeters>
            <DistanceMeters>NAN</DistanceMeters>
          </Trackpoint>
          <Trackpoint>
            <Time>2021-08-12T15:17:01.000Z</Time>
            <Position>
              <LatitudeDegrees>43.2780709303915500640869140625</LatitudeDegrees>
              <LongitudeDegrees>-2.00211673043668270111083984375</LongitudeDegrees>
            </Position>
            <AltitudeMeters>53.40000152587890625</AltitudeMeters>
            <DistanceMeters>NAN</DistanceMeters>
          </Trackpoint>
          <Trackpoint>
            <Time>2021-08-12T15:17:02.000Z</Time>
            <Position>
              <LatitudeDegrees>43.27804653905332088470458984375</LatitudeDegrees>
              <LongitudeDegrees>-2.00204146094620227813720703125</LongitudeDegrees>
            </Position>
            <AltitudeMeters>53.40000152587890625</AltitudeMeters>
            <DistanceMeters>NAN</DistanceMeters>
          </Trackpoint>
          <Trackpoint>
            <Time>2021-08-12T15:17:03.000Z</Time>
            <Position>
              <LatitudeDegrees>43.27802843414247035980224609375</LatitudeDegrees>
              <LongitudeDegrees>-2.0019808597862720489501953125</LongitudeDegrees>
            </Position>
            <AltitudeMeters>53.40000152587890625</AltitudeMeters>
            <DistanceMeters>NAN</DistanceMeters>
          </Trackpoint>
          <Trackpoint>
            <Time>2021-08-12T15:17:04.000Z</Time>
            <Position>
              <LatitudeDegrees>43.2780058868229389190673828125</LatitudeDegrees>
              <LongitudeDegrees>-2.0019215159118175506591796875</LongitudeDegrees>
            </Position>
            <AltitudeMeters>53.200000762939453125</AltitudeMeters>
            <DistanceMeters>NAN</DistanceMeters>
          </Trackpoint>
          <Trackpoint>
            <Time>2021-08-12T15:17:05.000Z</Time>
            <Position>
              <LatitudeDegrees>43.27798451296985149383544921875</LatitudeDegrees>
              <LongitudeDegrees>-2.00185890309512615203857421875</LongitudeDegrees>
            </Position>
            <AltitudeMeters>53.200000762939453125</AltitudeMeters>
            <DistanceMeters>NAN</DistanceMeters>
          </Trackpoint>
          <Trackpoint>
            <Time>2021-08-12T15:17:06.000Z</Time>
            <Position>
              <LatitudeDegrees>43.27796171419322490692138671875</LatitudeDegrees>
              <LongitudeDegrees>-2.00179486535489559173583984375</LongitudeDegrees>
            </Position>
            <AltitudeMeters>53.200000762939453125</AltitudeMeters>
            <DistanceMeters>NAN</DistanceMeters>
          </Trackpoint>
          <Trackpoint>
            <Time>2021-08-12T15:17:07.000Z</Time>
            <Position>
              <LatitudeDegrees>43.2779364846646785736083984375</LatitudeDegrees>
              <LongitudeDegrees>-2.0017294026911258697509765625</LongitudeDegrees>
            </Position>
            <AltitudeMeters>53.200000762939453125</AltitudeMeters>
            <DistanceMeters>NAN</DistanceMeters>
          </Trackpoint>
          <Trackpoint>
            <Time>2021-08-12T15:17:08.000Z</Time>
            <Position>
              <LatitudeDegrees>43.27791729010641574859619140625</LatitudeDegrees>
              <LongitudeDegrees>-2.00167735107243061065673828125</LongitudeDegrees>
            </Position>
            <AltitudeMeters>53</AltitudeMeters>
            <DistanceMeters>NAN</DistanceMeters>
          </Trackpoint>
          <Trackpoint>
            <Time>2021-08-12T15:17:09.000Z</Time>
            <Position>
              <LatitudeDegrees>43.27789180912077426910400390625</LatitudeDegrees>
              <LongitudeDegrees>-2.0016016624867916107177734375</LongitudeDegrees>
            </Position>
            <AltitudeMeters>53</AltitudeMeters>
            <DistanceMeters>NAN</DistanceMeters>
          </Trackpoint>
          <Trackpoint>
            <Time>2021-08-12T15:17:10.000Z</Time>
            <Position>
              <LatitudeDegrees>43.27787186019122600555419921875</LatitudeDegrees>
              <LongitudeDegrees>-2.0015381276607513427734375</LongitudeDegrees>
            </Position>
            <AltitudeMeters>53</AltitudeMeters>
            <DistanceMeters>NAN</DistanceMeters>
          </Trackpoint>
          <Trackpoint>
            <Time>2021-08-12T15:17:11.000Z</Time>
            <Position>
              <LatitudeDegrees>43.27785124070942401885986328125</LatitudeDegrees>
              <LongitudeDegrees>-2.00147534720599651336669921875</LongitudeDegrees>
            </Position>
            <AltitudeMeters>53</AltitudeMeters>
            <DistanceMeters>NAN</DistanceMeters>
          </Trackpoint>
          <Trackpoint>
            <Time>2021-08-12T15:17:12.000Z</Time>
            <Position>
              <LatitudeDegrees>43.27782995067536830902099609375</LatitudeDegrees>
              <LongitudeDegrees>-2.001411058008670806884765625</LongitudeDegrees>
            </Position>
            <AltitudeMeters>53</AltitudeMeters>
            <DistanceMeters>NAN</DistanceMeters>
          </Trackpoint>
          <Trackpoint>
            <Time>2021-08-12T15:17:13.000Z</Time>
            <Position>
              <LatitudeDegrees>43.27781436033546924591064453125</LatitudeDegrees>
              <LongitudeDegrees>-2.0013605989515781402587890625</LongitudeDegrees>
            </Position>
            <AltitudeMeters>53</AltitudeMeters>
            <DistanceMeters>NAN</DistanceMeters>
          </Trackpoint>
          <Trackpoint>
            <Time>2021-08-12T15:17:14.000Z</Time>
            <Position>
              <LatitudeDegrees>43.2777939923107624053955078125</LatitudeDegrees>
              <LongitudeDegrees>-2.0012952201068401336669921875</LongitudeDegrees>
            </Position>
            <AltitudeMeters>53</AltitudeMeters>
            <DistanceMeters>NAN</DistanceMeters>
          </Trackpoint>
          <Trackpoint>
            <Time>2021-08-12T15:17:15.000Z</Time>
            <Position>
              <LatitudeDegrees>43.2777755521237850189208984375</LatitudeDegrees>
              <LongitudeDegrees>-2.0012291707098484039306640625</LongitudeDegrees>
            </Position>
            <AltitudeMeters>53</AltitudeMeters>
            <DistanceMeters>NAN</DistanceMeters>
          </Trackpoint>
          <Trackpoint>
            <Time>2021-08-12T15:17:16.000Z</Time>
            <Position>
              <LatitudeDegrees>43.27774948440492153167724609375</LatitudeDegrees>
              <LongitudeDegrees>-2.0011544041335582733154296875</LongitudeDegrees>
            </Position>
            <AltitudeMeters>53</AltitudeMeters>
            <DistanceMeters>NAN</DistanceMeters>
          </Trackpoint>
          <Trackpoint>
            <Time>2021-08-12T15:17:20.000Z</Time>
            <Position>
              <LatitudeDegrees>43.27766482718288898468017578125</LatitudeDegrees>
              <LongitudeDegrees>-2.0009046234190464019775390625</LongitudeDegrees>
            </Position>
            <AltitudeMeters>53.200000762939453125</AltitudeMeters>
            <DistanceMeters>NAN</DistanceMeters>
          </Trackpoint>
          <Trackpoint>
            <Time>2021-08-12T15:17:23.000Z</Time>
            <Position>
              <LatitudeDegrees>43.27760514803230762481689453125</LatitudeDegrees>
              <LongitudeDegrees>-2.00071862898766994476318359375</LongitudeDegrees>
            </Position>
            <AltitudeMeters>53.40000152587890625</AltitudeMeters>
            <DistanceMeters>NAN</DistanceMeters>
          </Trackpoint>
          <Trackpoint>
            <Time>2021-08-12T15:17:24.000Z</Time>
            <Position>
              <LatitudeDegrees>43.27758503146469593048095703125</LatitudeDegrees>
              <LongitudeDegrees>-2.00065827928483486175537109375</LongitudeDegrees>
            </Position>
            <AltitudeMeters>53.59999847412109375</AltitudeMeters>
            <DistanceMeters>NAN</DistanceMeters>
          </Trackpoint>
          <Trackpoint>
            <Time>2021-08-12T15:17:25.000Z</Time>
            <Position>
              <LatitudeDegrees>43.277562819421291351318359375</LatitudeDegrees>
              <LongitudeDegrees>-2.00059910304844379425048828125</LongitudeDegrees>
            </Position>
            <AltitudeMeters>53.799999237060546875</AltitudeMeters>
            <DistanceMeters>NAN</DistanceMeters>
          </Trackpoint>
          <Trackpoint>
            <Time>2021-08-12T15:17:26.000Z</Time>
            <Position>
              <LatitudeDegrees>43.27754043973982334136962890625</LatitudeDegrees>
              <LongitudeDegrees>-2.00053959153592586517333984375</LongitudeDegrees>
            </Position>
            <AltitudeMeters>53.799999237060546875</AltitudeMeters>
            <DistanceMeters>NAN</DistanceMeters>
          </Trackpoint>
          <Trackpoint>
            <Time>2021-08-12T15:17:30.000Z</Time>
            <Position>
              <LatitudeDegrees>43.2774610631167888641357421875</LatitudeDegrees>
              <LongitudeDegrees>-2.000312693417072296142578125</LongitudeDegrees>
            </Position>
            <AltitudeMeters>54.40000152587890625</AltitudeMeters>
            <DistanceMeters>NAN</DistanceMeters>
          </Trackpoint>
          <Trackpoint>
            <Time>2021-08-12T15:17:32.000Z</Time>
            <Position>
              <LatitudeDegrees>43.277420662343502044677734375</LatitudeDegrees>
              <LongitudeDegrees>-2.000201381742954254150390625</LongitudeDegrees>
            </Position>
            <AltitudeMeters>54.59999847412109375</AltitudeMeters>
            <DistanceMeters>NAN</DistanceMeters>
          </Trackpoint>
          <Trackpoint>
            <Time>2021-08-12T15:17:33.000Z</Time>
            <Position>
              <LatitudeDegrees>43.2773981988430023193359375</LatitudeDegrees>
              <LongitudeDegrees>-2.00014539062976837158203125</LongitudeDegrees>
            </Position>
            <AltitudeMeters>54.59999847412109375</AltitudeMeters>
            <DistanceMeters>NAN</DistanceMeters>
          </Trackpoint>
          <Trackpoint>
            <Time>2021-08-12T15:17:35.000Z</Time>
            <Position>
              <LatitudeDegrees>43.2773554511368274688720703125</LatitudeDegrees>
              <LongitudeDegrees>-2.000041790306568145751953125</LongitudeDegrees>
            </Position>
            <AltitudeMeters>54.59999847412109375</AltitudeMeters>
            <DistanceMeters>NAN</DistanceMeters>
          </Trackpoint>
          <Trackpoint>
            <Time>2021-08-12T15:17:36.000Z</Time>
            <Position>
              <LatitudeDegrees>43.2773390226066112518310546875</LatitudeDegrees>
              <LongitudeDegrees>-1.999991498887538909912109375</LongitudeDegrees>
            </Position>
            <AltitudeMeters>54.799999237060546875</AltitudeMeters>
            <DistanceMeters>NAN</DistanceMeters>
          </Trackpoint>
          <Trackpoint>
            <Time>2021-08-12T15:17:37.000Z</Time>
            <Position>
              <LatitudeDegrees>43.27732485719025135040283203125</LatitudeDegrees>
              <LongitudeDegrees>-1.99994380585849285125732421875</LongitudeDegrees>
            </Position>
            <AltitudeMeters>54.799999237060546875</AltitudeMeters>
            <DistanceMeters>NAN</DistanceMeters>
          </Trackpoint>
          <Trackpoint>
            <Time>2021-08-12T15:17:38.000Z</Time>
            <Position>
              <LatitudeDegrees>43.2773096859455108642578125</LatitudeDegrees>
              <LongitudeDegrees>-1.99988882057368755340576171875</LongitudeDegrees>
            </Position>
            <AltitudeMeters>55</AltitudeMeters>
            <DistanceMeters>NAN</DistanceMeters>
          </Trackpoint>
          <Trackpoint>
            <Time>2021-08-12T15:17:39.000Z</Time>
            <Position>
              <LatitudeDegrees>43.2772944308817386627197265625</LatitudeDegrees>
              <LongitudeDegrees>-1.99983316473662853240966796875</LongitudeDegrees>
            </Position>
            <AltitudeMeters>55</AltitudeMeters>
            <DistanceMeters>NAN</DistanceMeters>
          </Trackpoint>
          <Trackpoint>
            <Time>2021-08-12T15:17:40.000Z</Time>
            <Position>
              <LatitudeDegrees>43.277281187474727630615234375</LatitudeDegrees>
              <LongitudeDegrees>-1.99977968819439411163330078125</LongitudeDegrees>
            </Position>
            <AltitudeMeters>55.200000762939453125</AltitudeMeters>
            <DistanceMeters>NAN</DistanceMeters>
          </Trackpoint>
          <Trackpoint>
            <Time>2021-08-12T15:17:41.000Z</Time>
            <Position>
              <LatitudeDegrees>43.2772696204483509063720703125</LatitudeDegrees>
              <LongitudeDegrees>-1.99972839094698429107666015625</LongitudeDegrees>
            </Position>
            <AltitudeMeters>55.200000762939453125</AltitudeMeters>
            <DistanceMeters>NAN</DistanceMeters>
          </Trackpoint>
          <Trackpoint>
            <Time>2021-08-12T15:17:42.000Z</Time>
            <Position>
              <LatitudeDegrees>43.2772619090974330902099609375</LatitudeDegrees>
              <LongitudeDegrees>-1.99967692606151103973388671875</LongitudeDegrees>
            </Position>
            <AltitudeMeters>55.200000762939453125</AltitudeMeters>
            <DistanceMeters>NAN</DistanceMeters>
          </Trackpoint>
          <Trackpoint>
            <Time>2021-08-12T15:17:43.000Z</Time>
            <Position>
              <LatitudeDegrees>43.27725931070744991302490234375</LatitudeDegrees>
              <LongitudeDegrees>-1.9996325857937335968017578125</LongitudeDegrees>
            </Position>
            <AltitudeMeters>55.40000152587890625</AltitudeMeters>
            <DistanceMeters>NAN</DistanceMeters>
          </Trackpoint>
          <Trackpoint>
            <Time>2021-08-12T15:17:44.000Z</Time>
            <Position>
              <LatitudeDegrees>43.2772552035748958587646484375</LatitudeDegrees>
              <LongitudeDegrees>-1.99959327466785907745361328125</LongitudeDegrees>
            </Position>
            <AltitudeMeters>55.40000152587890625</AltitudeMeters>
            <DistanceMeters>NAN</DistanceMeters>
          </Trackpoint>
          <Trackpoint>
            <Time>2021-08-12T15:17:45.000Z</Time>
            <Position>
              <LatitudeDegrees>43.2772474922239780426025390625</LatitudeDegrees>
              <LongitudeDegrees>-1.99955421499907970428466796875</LongitudeDegrees>
            </Position>
            <AltitudeMeters>55.59999847412109375</AltitudeMeters>
            <DistanceMeters>NAN</DistanceMeters>
          </Trackpoint>
          <Trackpoint>
            <Time>2021-08-12T15:17:46.000Z</Time>
            <Position>
              <LatitudeDegrees>43.2772372663021087646484375</LatitudeDegrees>
              <LongitudeDegrees>-1.9995175860822200775146484375</LongitudeDegrees>
            </Position>
            <AltitudeMeters>55.59999847412109375</AltitudeMeters>
            <DistanceMeters>NAN</DistanceMeters>
          </Trackpoint>
          <Trackpoint>
            <Time>2021-08-12T15:17:47.000Z</Time>
            <Position>
              <LatitudeDegrees>43.27722779475152492523193359375</LatitudeDegrees>
              <LongitudeDegrees>-1.99948313646018505096435546875</LongitudeDegrees>
            </Position>
            <AltitudeMeters>55.59999847412109375</AltitudeMeters>
            <DistanceMeters>NAN</DistanceMeters>
          </Trackpoint>
          <Trackpoint>
            <Time>2021-08-12T15:17:49.000Z</Time>
            <Position>
              <LatitudeDegrees>43.2772233523428440093994140625</LatitudeDegrees>
              <LongitudeDegrees>-1.99941574595868587493896484375</LongitudeDegrees>
            </Position>
            <AltitudeMeters>55.59999847412109375</AltitudeMeters>
            <DistanceMeters>NAN</DistanceMeters>
          </Trackpoint>
          <Trackpoint>
            <Time>2021-08-12T15:17:50.000Z</Time>
            <Position>
              <LatitudeDegrees>43.2772280462086200714111328125</LatitudeDegrees>
              <LongitudeDegrees>-1.999388672411441802978515625</LongitudeDegrees>
            </Position>
            <AltitudeMeters>55.59999847412109375</AltitudeMeters>
            <DistanceMeters>NAN</DistanceMeters>
          </Trackpoint>
          <Trackpoint>
            <Time>2021-08-12T15:17:51.000Z</Time>
            <Position>
              <LatitudeDegrees>43.27722913585603237152099609375</LatitudeDegrees>
              <LongitudeDegrees>-1.999361850321292877197265625</LongitudeDegrees>
            </Position>
            <AltitudeMeters>55.59999847412109375</AltitudeMeters>
            <DistanceMeters>NAN</DistanceMeters>
          </Trackpoint>
          <Trackpoint>
            <Time>2021-08-12T15:17:52.000Z</Time>
            <Position>
              <LatitudeDegrees>43.27724053524434566497802734375</LatitudeDegrees>
              <LongitudeDegrees>-1.9993365369737148284912109375</LongitudeDegrees>
            </Position>
            <AltitudeMeters>55.59999847412109375</AltitudeMeters>
            <DistanceMeters>NAN</DistanceMeters>
          </Trackpoint>
          <Trackpoint>
            <Time>2021-08-12T15:17:53.000Z</Time>
            <Position>
              <LatitudeDegrees>43.2772374339401721954345703125</LatitudeDegrees>
              <LongitudeDegrees>-1.99931298382580280303955078125</LongitudeDegrees>
            </Position>
            <AltitudeMeters>55.59999847412109375</AltitudeMeters>
            <DistanceMeters>NAN</DistanceMeters>
          </Trackpoint>
          <Trackpoint>
            <Time>2021-08-12T15:17:54.000Z</Time>
            <Position>
              <LatitudeDegrees>43.27722930349409580230712890625</LatitudeDegrees>
              <LongitudeDegrees>-1.9992952980101108551025390625</LongitudeDegrees>
            </Position>
            <AltitudeMeters>55.59999847412109375</AltitudeMeters>
            <DistanceMeters>NAN</DistanceMeters>
          </Trackpoint>
          <Trackpoint>
            <Time>2021-08-12T15:17:55.000Z</Time>
            <Position>
              <LatitudeDegrees>43.277226872742176055908203125</LatitudeDegrees>
              <LongitudeDegrees>-1.99928901158273220062255859375</LongitudeDegrees>
            </Position>
            <AltitudeMeters>55.59999847412109375</AltitudeMeters>
            <DistanceMeters>NAN</DistanceMeters>
          </Trackpoint>
          <Trackpoint>
            <Time>2021-08-12T15:17:56.000Z</Time>
            <Position>
              <LatitudeDegrees>43.277224190533161163330078125</LatitudeDegrees>
              <LongitudeDegrees>-1.99928834103047847747802734375</LongitudeDegrees>
            </Position>
            <AltitudeMeters>55.40000152587890625</AltitudeMeters>
            <DistanceMeters>NAN</DistanceMeters>
          </Trackpoint>
          <Trackpoint>
            <Time>2021-08-12T15:17:58.000Z</Time>
            <Position>
              <LatitudeDegrees>43.277224190533161163330078125</LatitudeDegrees>
              <LongitudeDegrees>-1.99928834103047847747802734375</LongitudeDegrees>
            </Position>
            <AltitudeMeters>55.40000152587890625</AltitudeMeters>
            <DistanceMeters>NAN</DistanceMeters>
          </Trackpoint>
          <Trackpoint>
            <Time>2021-08-12T15:18:08.000Z</Time>
            <Position>
              <LatitudeDegrees>43.27722427435219287872314453125</LatitudeDegrees>
              <LongitudeDegrees>-1.99928834103047847747802734375</LongitudeDegrees>
            </Position>
            <AltitudeMeters>55.59999847412109375</AltitudeMeters>
            <DistanceMeters>NAN</DistanceMeters>
          </Trackpoint>
          <Trackpoint>
            <Time>2021-08-12T15:18:09.000Z</Time>
            <Position>
              <LatitudeDegrees>43.27722427435219287872314453125</LatitudeDegrees>
              <LongitudeDegrees>-1.99928834103047847747802734375</LongitudeDegrees>
            </Position>
            <AltitudeMeters>55.59999847412109375</AltitudeMeters>
            <DistanceMeters>NAN</DistanceMeters>
          </Trackpoint>
          <Trackpoint>
            <Time>2021-08-12T15:18:52.000Z</Time>
            <Position>
              <LatitudeDegrees>43.2772250287234783172607421875</LatitudeDegrees>
              <LongitudeDegrees>-1.9992869161069393157958984375</LongitudeDegrees>
            </Position>
            <AltitudeMeters>55.799999237060546875</AltitudeMeters>
            <DistanceMeters>NAN</DistanceMeters>
          </Trackpoint>
          <Trackpoint>
            <Time>2021-08-12T15:18:54.000Z</Time>
            <Position>
              <LatitudeDegrees>43.277238272130489349365234375</LatitudeDegrees>
              <LongitudeDegrees>-1.9992466829717159271240234375</LongitudeDegrees>
            </Position>
            <AltitudeMeters>55.799999237060546875</AltitudeMeters>
            <DistanceMeters>NAN</DistanceMeters>
          </Trackpoint>
          <Trackpoint>
            <Time>2021-08-12T15:18:55.000Z</Time>
            <Position>
              <LatitudeDegrees>43.2772575505077838897705078125</LatitudeDegrees>
              <LongitudeDegrees>-1.99923637323081493377685546875</LongitudeDegrees>
            </Position>
            <AltitudeMeters>55.799999237060546875</AltitudeMeters>
            <DistanceMeters>NAN</DistanceMeters>
          </Trackpoint>
          <Trackpoint>
            <Time>2021-08-12T15:18:58.000Z</Time>
            <Position>
              <LatitudeDegrees>43.27734229154884815216064453125</LatitudeDegrees>
              <LongitudeDegrees>-1.99921910651028156280517578125</LongitudeDegrees>
            </Position>
            <AltitudeMeters>55.59999847412109375</AltitudeMeters>
            <DistanceMeters>NAN</DistanceMeters>
          </Trackpoint>
          <Trackpoint>
            <Time>2021-08-12T15:18:59.000Z</Time>
            <Position>
              <LatitudeDegrees>43.277362994849681854248046875</LatitudeDegrees>
              <LongitudeDegrees>-1.99920385144650936126708984375</LongitudeDegrees>
            </Position>
            <AltitudeMeters>55.40000152587890625</AltitudeMeters>
            <DistanceMeters>NAN</DistanceMeters>
          </Trackpoint>
          <Trackpoint>
            <Time>2021-08-12T15:19:00.000Z</Time>
            <Position>
              <LatitudeDegrees>43.27737648971378803253173828125</LatitudeDegrees>
              <LongitudeDegrees>-1.9991839863359928131103515625</LongitudeDegrees>
            </Position>
            <AltitudeMeters>55.40000152587890625</AltitudeMeters>
            <DistanceMeters>NAN</DistanceMeters>
          </Trackpoint>
          <Trackpoint>
            <Time>2021-08-12T15:19:01.000Z</Time>
            <Position>
              <LatitudeDegrees>43.27738344669342041015625</LatitudeDegrees>
              <LongitudeDegrees>-1.99915657751262187957763671875</LongitudeDegrees>
            </Position>
            <AltitudeMeters>55.40000152587890625</AltitudeMeters>
            <DistanceMeters>NAN</DistanceMeters>
          </Trackpoint>
          <Trackpoint>
            <Time>2021-08-12T15:19:02.000Z</Time>
            <Position>
              <LatitudeDegrees>43.27738923020660877227783203125</LatitudeDegrees>
              <LongitudeDegrees>-1.99912891723215579986572265625</LongitudeDegrees>
            </Position>
            <AltitudeMeters>55.40000152587890625</AltitudeMeters>
            <DistanceMeters>NAN</DistanceMeters>
          </Trackpoint>
          <Trackpoint>
            <Time>2021-08-12T15:19:03.000Z</Time>
            <Position>
              <LatitudeDegrees>43.27739057131111621856689453125</LatitudeDegrees>
              <LongitudeDegrees>-1.99909790419042110443115234375</LongitudeDegrees>
            </Position>
            <AltitudeMeters>55.200000762939453125</AltitudeMeters>
            <DistanceMeters>NAN</DistanceMeters>
          </Trackpoint>
          <Trackpoint>
            <Time>2021-08-12T15:19:04.000Z</Time>
            <Position>
              <LatitudeDegrees>43.27739107422530651092529296875</LatitudeDegrees>
              <LongitudeDegrees>-1.9990683160722255706787109375</LongitudeDegrees>
            </Position>
            <AltitudeMeters>55.200000762939453125</AltitudeMeters>
            <DistanceMeters>NAN</DistanceMeters>
          </Trackpoint>
          <Trackpoint>
            <Time>2021-08-12T15:19:05.000Z</Time>
            <Position>
              <LatitudeDegrees>43.27739090658724308013916015625</LatitudeDegrees>
              <LongitudeDegrees>-1.9990458525717258453369140625</LongitudeDegrees>
            </Position>
            <AltitudeMeters>55.200000762939453125</AltitudeMeters>
            <DistanceMeters>NAN</DistanceMeters>
          </Trackpoint>
          <Trackpoint>
            <Time>2021-08-12T15:19:06.000Z</Time>
            <Position>
              <LatitudeDegrees>43.27739191241562366485595703125</LatitudeDegrees>
              <LongitudeDegrees>-1.99902900494635105133056640625</LongitudeDegrees>
            </Position>
            <AltitudeMeters>55.200000762939453125</AltitudeMeters>
            <DistanceMeters>NAN</DistanceMeters>
          </Trackpoint>
          <Trackpoint>
            <Time>2021-08-12T15:19:07.000Z</Time>
            <Position>
              <LatitudeDegrees>43.2773919962346553802490234375</LatitudeDegrees>
              <LongitudeDegrees>-1.99902481399476528167724609375</LongitudeDegrees>
            </Position>
            <AltitudeMeters>55.200000762939453125</AltitudeMeters>
            <DistanceMeters>NAN</DistanceMeters>
          </Trackpoint>
          <Trackpoint>
            <Time>2021-08-12T15:19:08.000Z</Time>
            <Position>
              <LatitudeDegrees>43.27739459462463855743408203125</LatitudeDegrees>
              <LongitudeDegrees>-1.99902422726154327392578125</LongitudeDegrees>
            </Position>
            <AltitudeMeters>55.200000762939453125</AltitudeMeters>
            <DistanceMeters>NAN</DistanceMeters>
          </Trackpoint>
          <Trackpoint>
            <Time>2021-08-12T15:19:09.000Z</Time>
            <Position>
              <LatitudeDegrees>43.2773976959288120269775390625</LatitudeDegrees>
              <LongitudeDegrees>-1.99903219006955623626708984375</LongitudeDegrees>
            </Position>
            <AltitudeMeters>55.200000762939453125</AltitudeMeters>
            <DistanceMeters>NAN</DistanceMeters>
          </Trackpoint>
          <Trackpoint>
            <Time>2021-08-12T15:19:10.000Z</Time>
            <Position>
              <LatitudeDegrees>43.277411945164203643798828125</LatitudeDegrees>
              <LongitudeDegrees>-1.99905230663716793060302734375</LongitudeDegrees>
            </Position>
            <AltitudeMeters>55.200000762939453125</AltitudeMeters>
            <DistanceMeters>NAN</DistanceMeters>
          </Trackpoint>
          <Trackpoint>
            <Time>2021-08-12T15:19:15.000Z</Time>
            <Position>
              <LatitudeDegrees>43.2774020545184612274169921875</LatitudeDegrees>
              <LongitudeDegrees>-1.999158002436161041259765625</LongitudeDegrees>
            </Position>
            <AltitudeMeters>55.200000762939453125</AltitudeMeters>
            <DistanceMeters>NAN</DistanceMeters>
          </Trackpoint>
          <Trackpoint>
            <Time>2021-08-12T15:19:19.000Z</Time>
            <Position>
              <LatitudeDegrees>43.2774241827428340911865234375</LatitudeDegrees>
              <LongitudeDegrees>-1.9993241317570209503173828125</LongitudeDegrees>
            </Position>
            <AltitudeMeters>55</AltitudeMeters>
            <DistanceMeters>NAN</DistanceMeters>
          </Trackpoint>
          <Trackpoint>
            <Time>2021-08-12T15:19:21.000Z</Time>
            <Position>
              <LatitudeDegrees>43.27744287438690662384033203125</LatitudeDegrees>
              <LongitudeDegrees>-1.9994109682738780975341796875</LongitudeDegrees>
            </Position>
            <AltitudeMeters>54.799999237060546875</AltitudeMeters>
            <DistanceMeters>NAN</DistanceMeters>
          </Trackpoint>
          <Trackpoint>
            <Time>2021-08-12T15:19:22.000Z</Time>
            <Position>
              <LatitudeDegrees>43.27744673006236553192138671875</LatitudeDegrees>
              <LongitudeDegrees>-1.9994475133717060089111328125</LongitudeDegrees>
            </Position>
            <AltitudeMeters>54.40000152587890625</AltitudeMeters>
            <DistanceMeters>NAN</DistanceMeters>
          </Trackpoint>
          <Trackpoint>
            <Time>2021-08-12T15:19:23.000Z</Time>
            <Position>
              <LatitudeDegrees>43.27744857408106327056884765625</LatitudeDegrees>
              <LongitudeDegrees>-1.99948464520275592803955078125</LongitudeDegrees>
            </Position>
            <AltitudeMeters>54.200000762939453125</AltitudeMeters>
            <DistanceMeters>NAN</DistanceMeters>
          </Trackpoint>
          <Trackpoint>
            <Time>2021-08-12T15:19:24.000Z</Time>
            <Position>
              <LatitudeDegrees>43.27744723297655582427978515625</LatitudeDegrees>
              <LongitudeDegrees>-1.999515406787395477294921875</LongitudeDegrees>
            </Position>
            <AltitudeMeters>53.799999237060546875</AltitudeMeters>
            <DistanceMeters>NAN</DistanceMeters>
          </Trackpoint>
          <Trackpoint>
            <Time>2021-08-12T15:19:25.000Z</Time>
            <Position>
              <LatitudeDegrees>43.27745242975652217864990234375</LatitudeDegrees>
              <LongitudeDegrees>-1.9995420612394809722900390625</LongitudeDegrees>
            </Position>
            <AltitudeMeters>53.59999847412109375</AltitudeMeters>
            <DistanceMeters>NAN</DistanceMeters>
          </Trackpoint>
          <Trackpoint>
            <Time>2021-08-12T15:19:26.000Z</Time>
            <Position>
              <LatitudeDegrees>43.27746349386870861053466796875</LatitudeDegrees>
              <LongitudeDegrees>-1.99956879951059818267822265625</LongitudeDegrees>
            </Position>
            <AltitudeMeters>53</AltitudeMeters>
            <DistanceMeters>NAN</DistanceMeters>
          </Trackpoint>
          <Trackpoint>
            <Time>2021-08-12T15:19:27.000Z</Time>
            <Position>
              <LatitudeDegrees>43.27747531235218048095703125</LatitudeDegrees>
              <LongitudeDegrees>-1.99959478341042995452880859375</LongitudeDegrees>
            </Position>
            <AltitudeMeters>52.59999847412109375</AltitudeMeters>
            <DistanceMeters>NAN</DistanceMeters>
          </Trackpoint>
          <Trackpoint>
            <Time>2021-08-12T15:19:28.000Z</Time>
            <Position>
              <LatitudeDegrees>43.277479000389575958251953125</LatitudeDegrees>
              <LongitudeDegrees>-1.99960014782845973968505859375</LongitudeDegrees>
            </Position>
            <AltitudeMeters>52.200000762939453125</AltitudeMeters>
            <DistanceMeters>NAN</DistanceMeters>
          </Trackpoint>
          <Trackpoint>
            <Time>2021-08-12T15:19:29.000Z</Time>
            <Position>
              <LatitudeDegrees>43.27748545445501804351806640625</LatitudeDegrees>
              <LongitudeDegrees>-1.99960970319807529449462890625</LongitudeDegrees>
            </Position>
            <AltitudeMeters>51.799999237060546875</AltitudeMeters>
            <DistanceMeters>NAN</DistanceMeters>
          </Trackpoint>
          <Trackpoint>
            <Time>2021-08-12T15:19:30.000Z</Time>
            <Position>
              <LatitudeDegrees>43.2774952612817287445068359375</LatitudeDegrees>
              <LongitudeDegrees>-1.99961557053029537200927734375</LongitudeDegrees>
            </Position>
            <AltitudeMeters>51.59999847412109375</AltitudeMeters>
            <DistanceMeters>NAN</DistanceMeters>
          </Trackpoint>
          <Trackpoint>
            <Time>2021-08-12T15:19:31.000Z</Time>
            <Position>
              <LatitudeDegrees>43.2775150425732135772705078125</LatitudeDegrees>
              <LongitudeDegrees>-1.9996225275099277496337890625</LongitudeDegrees>
            </Position>
            <AltitudeMeters>51.200000762939453125</AltitudeMeters>
            <DistanceMeters>NAN</DistanceMeters>
          </Trackpoint>
          <Trackpoint>
            <Time>2021-08-12T15:19:32.000Z</Time>
            <Position>
              <LatitudeDegrees>43.277544043958187103271484375</LatitudeDegrees>
              <LongitudeDegrees>-1.9996225275099277496337890625</LongitudeDegrees>
            </Position>
            <AltitudeMeters>51</AltitudeMeters>
            <DistanceMeters>NAN</DistanceMeters>
          </Trackpoint>
          <Trackpoint>
            <Time>2021-08-12T15:19:33.000Z</Time>
            <Position>
              <LatitudeDegrees>43.27756457962095737457275390625</LatitudeDegrees>
              <LongitudeDegrees>-1.999618671834468841552734375</LongitudeDegrees>
            </Position>
            <AltitudeMeters>50.799999237060546875</AltitudeMeters>
            <DistanceMeters>NAN</DistanceMeters>
          </Trackpoint>
          <Trackpoint>
            <Time>2021-08-12T15:19:34.000Z</Time>
            <Position>
              <LatitudeDegrees>43.27759291045367717742919921875</LatitudeDegrees>
              <LongitudeDegrees>-1.999618001282215118408203125</LongitudeDegrees>
            </Position>
            <AltitudeMeters>50.59999847412109375</AltitudeMeters>
            <DistanceMeters>NAN</DistanceMeters>
          </Trackpoint>
          <Trackpoint>
            <Time>2021-08-12T15:19:36.000Z</Time>
            <Position>
              <LatitudeDegrees>43.27766147442162036895751953125</LatitudeDegrees>
              <LongitudeDegrees>-1.99965982697904109954833984375</LongitudeDegrees>
            </Position>
            <AltitudeMeters>50.200000762939453125</AltitudeMeters>
            <DistanceMeters>NAN</DistanceMeters>
          </Trackpoint>
          <Trackpoint>
            <Time>2021-08-12T15:19:37.000Z</Time>
            <Position>
              <LatitudeDegrees>43.27768913470208644866943359375</LatitudeDegrees>
              <LongitudeDegrees>-1.999692432582378387451171875</LongitudeDegrees>
            </Position>
            <AltitudeMeters>50.200000762939453125</AltitudeMeters>
            <DistanceMeters>NAN</DistanceMeters>
          </Trackpoint>
          <Trackpoint>
            <Time>2021-08-12T15:19:38.000Z</Time>
            <Position>
              <LatitudeDegrees>43.2777202315628528594970703125</LatitudeDegrees>
              <LongitudeDegrees>-1.99971917085349559783935546875</LongitudeDegrees>
            </Position>
            <AltitudeMeters>50</AltitudeMeters>
            <DistanceMeters>NAN</DistanceMeters>
          </Trackpoint>
          <Trackpoint>
            <Time>2021-08-12T15:19:39.000Z</Time>
            <Position>
              <LatitudeDegrees>43.2777323015034198760986328125</LatitudeDegrees>
              <LongitudeDegrees>-1.99973342008888721466064453125</LongitudeDegrees>
            </Position>
            <AltitudeMeters>50</AltitudeMeters>
            <DistanceMeters>NAN</DistanceMeters>
          </Trackpoint>
          <Trackpoint>
            <Time>2021-08-12T15:19:40.000Z</Time>
            <Position>
              <LatitudeDegrees>43.27773825265467166900634765625</LatitudeDegrees>
              <LongitudeDegrees>-1.99974649585783481597900390625</LongitudeDegrees>
            </Position>
            <AltitudeMeters>49.799999237060546875</AltitudeMeters>
            <DistanceMeters>NAN</DistanceMeters>
          </Trackpoint>
          <Trackpoint>
            <Time>2021-08-12T15:19:41.000Z</Time>
            <Position>
              <LatitudeDegrees>43.27775560319423675537109375</LatitudeDegrees>
              <LongitudeDegrees>-1.99975973926484584808349609375</LongitudeDegrees>
            </Position>
            <AltitudeMeters>49.799999237060546875</AltitudeMeters>
            <DistanceMeters>NAN</DistanceMeters>
          </Trackpoint>
          <Trackpoint>
            <Time>2021-08-12T15:19:43.000Z</Time>
            <Position>
              <LatitudeDegrees>43.27775753103196620941162109375</LatitudeDegrees>
              <LongitudeDegrees>-1.9997623376548290252685546875</LongitudeDegrees>
            </Position>
            <AltitudeMeters>49.59999847412109375</AltitudeMeters>
            <DistanceMeters>NAN</DistanceMeters>
          </Trackpoint>
          <Trackpoint>
            <Time>2021-08-12T15:19:44.000Z</Time>
            <Position>
              <LatitudeDegrees>43.27775753103196620941162109375</LatitudeDegrees>
              <LongitudeDegrees>-1.9997623376548290252685546875</LongitudeDegrees>
            </Position>
            <AltitudeMeters>49.59999847412109375</AltitudeMeters>
            <DistanceMeters>NAN</DistanceMeters>
          </Trackpoint>
          <Trackpoint>
            <Time>2021-08-12T15:19:47.000Z</Time>
            <Position>
              <LatitudeDegrees>43.27777312137186527252197265625</LatitudeDegrees>
              <LongitudeDegrees>-1.999782621860504150390625</LongitudeDegrees>
            </Position>
            <AltitudeMeters>49.59999847412109375</AltitudeMeters>
            <DistanceMeters>NAN</DistanceMeters>
          </Trackpoint>
          <Trackpoint>
            <Time>2021-08-12T15:19:49.000Z</Time>
            <Position>
              <LatitudeDegrees>43.27780388295650482177734375</LatitudeDegrees>
              <LongitudeDegrees>-1.99982495047152042388916015625</LongitudeDegrees>
            </Position>
            <AltitudeMeters>49.59999847412109375</AltitudeMeters>
            <DistanceMeters>NAN</DistanceMeters>
          </Trackpoint>
          <Trackpoint>
            <Time>2021-08-12T15:19:50.000Z</Time>
            <Position>
              <LatitudeDegrees>43.2778246700763702392578125</LatitudeDegrees>
              <LongitudeDegrees>-1.99983852915465831756591796875</LongitudeDegrees>
            </Position>
            <AltitudeMeters>49.59999847412109375</AltitudeMeters>
            <DistanceMeters>NAN</DistanceMeters>
          </Trackpoint>
          <Trackpoint>
            <Time>2021-08-12T15:19:51.000Z</Time>
            <Position>
              <LatitudeDegrees>43.27785174362361431121826171875</LatitudeDegrees>
              <LongitudeDegrees>-1.99986786581575870513916015625</LongitudeDegrees>
            </Position>
            <AltitudeMeters>49.59999847412109375</AltitudeMeters>
            <DistanceMeters>NAN</DistanceMeters>
          </Trackpoint>
          <Trackpoint>
            <Time>2021-08-12T15:19:54.000Z</Time>
            <Position>
              <LatitudeDegrees>43.27789985574781894683837890625</LatitudeDegrees>
              <LongitudeDegrees>-1.99999359436333179473876953125</LongitudeDegrees>
            </Position>
            <AltitudeMeters>49.59999847412109375</AltitudeMeters>
            <DistanceMeters>NAN</DistanceMeters>
          </Trackpoint>
          <Trackpoint>
            <Time>2021-08-12T15:19:55.000Z</Time>
            <Position>
              <LatitudeDegrees>43.27790974639356136322021484375</LatitudeDegrees>
              <LongitudeDegrees>-2.00003030709922313690185546875</LongitudeDegrees>
            </Position>
            <AltitudeMeters>49.40000152587890625</AltitudeMeters>
            <DistanceMeters>NAN</DistanceMeters>
          </Trackpoint>
          <Trackpoint>
            <Time>2021-08-12T15:19:56.000Z</Time>
            <Position>
              <LatitudeDegrees>43.27791309915482997894287109375</LatitudeDegrees>
              <LongitudeDegrees>-2.0000644214451313018798828125</LongitudeDegrees>
            </Position>
            <AltitudeMeters>49.40000152587890625</AltitudeMeters>
            <DistanceMeters>NAN</DistanceMeters>
          </Trackpoint>
          <Trackpoint>
            <Time>2021-08-12T15:19:57.000Z</Time>
            <Position>
              <LatitudeDegrees>43.27790790237486362457275390625</LatitudeDegrees>
              <LongitudeDegrees>-2.0001127012073993682861328125</LongitudeDegrees>
            </Position>
            <AltitudeMeters>49.40000152587890625</AltitudeMeters>
            <DistanceMeters>NAN</DistanceMeters>
          </Trackpoint>
          <Trackpoint>
            <Time>2021-08-12T15:20:01.000Z</Time>
            <Position>
              <LatitudeDegrees>43.27794629149138927459716796875</LatitudeDegrees>
              <LongitudeDegrees>-2.00025267899036407470703125</LongitudeDegrees>
            </Position>
            <AltitudeMeters>49.200000762939453125</AltitudeMeters>
            <DistanceMeters>NAN</DistanceMeters>
          </Trackpoint>
          <Trackpoint>
            <Time>2021-08-12T15:20:02.000Z</Time>
            <Position>
              <LatitudeDegrees>43.2779549248516559600830078125</LatitudeDegrees>
              <LongitudeDegrees>-2.00027572922408580780029296875</LongitudeDegrees>
            </Position>
            <AltitudeMeters>49.200000762939453125</AltitudeMeters>
            <DistanceMeters>NAN</DistanceMeters>
          </Trackpoint>
          <Trackpoint>
            <Time>2021-08-12T15:20:05.000Z</Time>
            <Position>
              <LatitudeDegrees>43.27798484824597835540771484375</LatitudeDegrees>
              <LongitudeDegrees>-2.00033121742308139801025390625</LongitudeDegrees>
            </Position>
            <AltitudeMeters>49.200000762939453125</AltitudeMeters>
            <DistanceMeters>NAN</DistanceMeters>
          </Trackpoint>
          <Trackpoint>
            <Time>2021-08-12T15:20:06.000Z</Time>
            <Position>
              <LatitudeDegrees>43.27799557708203792572021484375</LatitudeDegrees>
              <LongitudeDegrees>-2.00034999288618564605712890625</LongitudeDegrees>
            </Position>
            <AltitudeMeters>49.200000762939453125</AltitudeMeters>
            <DistanceMeters>NAN</DistanceMeters>
          </Trackpoint>
          <Trackpoint>
            <Time>2021-08-12T15:20:07.000Z</Time>
            <Position>
              <LatitudeDegrees>43.278003036975860595703125</LatitudeDegrees>
              <LongitudeDegrees>-2.00036625377833843231201171875</LongitudeDegrees>
            </Position>
            <AltitudeMeters>49</AltitudeMeters>
            <DistanceMeters>NAN</DistanceMeters>
          </Trackpoint>
          <Trackpoint>
            <Time>2021-08-12T15:20:08.000Z</Time>
            <Position>
              <LatitudeDegrees>43.2780102454125881195068359375</LatitudeDegrees>
              <LongitudeDegrees>-2.00038217939436435699462890625</LongitudeDegrees>
            </Position>
            <AltitudeMeters>49</AltitudeMeters>
            <DistanceMeters>NAN</DistanceMeters>
          </Trackpoint>
          <Trackpoint>
            <Time>2021-08-12T15:20:09.000Z</Time>
            <Position>
              <LatitudeDegrees>43.27801636420190334320068359375</LatitudeDegrees>
              <LongitudeDegrees>-2.00040011666715145111083984375</LongitudeDegrees>
            </Position>
            <AltitudeMeters>49</AltitudeMeters>
            <DistanceMeters>NAN</DistanceMeters>
          </Trackpoint>
          <Trackpoint>
            <Time>2021-08-12T15:20:10.000Z</Time>
            <Position>
              <LatitudeDegrees>43.27801703475415706634521484375</LatitudeDegrees>
              <LongitudeDegrees>-2.000415958464145660400390625</LongitudeDegrees>
            </Position>
            <AltitudeMeters>49</AltitudeMeters>
            <DistanceMeters>NAN</DistanceMeters>
          </Trackpoint>
          <Trackpoint>
            <Time>2021-08-12T15:20:11.000Z</Time>
            <Position>
              <LatitudeDegrees>43.27801586128771305084228515625</LatitudeDegrees>
              <LongitudeDegrees>-2.00042358599603176116943359375</LongitudeDegrees>
            </Position>
            <AltitudeMeters>49</AltitudeMeters>
            <DistanceMeters>NAN</DistanceMeters>
          </Trackpoint>
          <Trackpoint>
            <Time>2021-08-12T15:20:14.000Z</Time>
            <Position>
              <LatitudeDegrees>43.2780213095247745513916015625</LatitudeDegrees>
              <LongitudeDegrees>-2.00042677111923694610595703125</LongitudeDegrees>
            </Position>
            <AltitudeMeters>48.799999237060546875</AltitudeMeters>
            <DistanceMeters>NAN</DistanceMeters>
          </Trackpoint>
          <Trackpoint>
            <Time>2021-08-12T15:20:15.000Z</Time>
            <Position>
              <LatitudeDegrees>43.27801845967769622802734375</LatitudeDegrees>
              <LongitudeDegrees>-2.000434733927249908447265625</LongitudeDegrees>
            </Position>
            <AltitudeMeters>48.799999237060546875</AltitudeMeters>
            <DistanceMeters>NAN</DistanceMeters>
          </Trackpoint>
          <Trackpoint>
            <Time>2021-08-12T15:20:16.000Z</Time>
            <Position>
              <LatitudeDegrees>43.27800898812711238861083984375</LatitudeDegrees>
              <LongitudeDegrees>-2.00043817050755023956298828125</LongitudeDegrees>
            </Position>
            <AltitudeMeters>48.59999847412109375</AltitudeMeters>
            <DistanceMeters>NAN</DistanceMeters>
          </Trackpoint>
          <Trackpoint>
            <Time>2021-08-12T15:20:19.000Z</Time>
            <Position>
              <LatitudeDegrees>43.2779861055314540863037109375</LatitudeDegrees>
              <LongitudeDegrees>-2.000431381165981292724609375</LongitudeDegrees>
            </Position>
            <AltitudeMeters>48.799999237060546875</AltitudeMeters>
            <DistanceMeters>NAN</DistanceMeters>
          </Trackpoint>
          <Trackpoint>
            <Time>2021-08-12T15:20:20.000Z</Time>
            <Position>
              <LatitudeDegrees>43.2779861055314540863037109375</LatitudeDegrees>
              <LongitudeDegrees>-2.000431381165981292724609375</LongitudeDegrees>
            </Position>
            <AltitudeMeters>48.59999847412109375</AltitudeMeters>
            <DistanceMeters>NAN</DistanceMeters>
          </Trackpoint>
          <Trackpoint>
            <Time>2021-08-12T15:20:21.000Z</Time>
            <Position>
              <LatitudeDegrees>43.2779861055314540863037109375</LatitudeDegrees>
              <LongitudeDegrees>-2.000431381165981292724609375</LongitudeDegrees>
            </Position>
            <AltitudeMeters>48.59999847412109375</AltitudeMeters>
            <DistanceMeters>NAN</DistanceMeters>
          </Trackpoint>
          <Trackpoint>
            <Time>2021-08-12T15:20:23.000Z</Time>
            <Position>
              <LatitudeDegrees>43.2779861055314540863037109375</LatitudeDegrees>
              <LongitudeDegrees>-2.000431381165981292724609375</LongitudeDegrees>
            </Position>
            <AltitudeMeters>48.59999847412109375</AltitudeMeters>
            <DistanceMeters>NAN</DistanceMeters>
          </Trackpoint>
          <Trackpoint>
            <Time>2021-08-12T15:20:30.000Z</Time>
            <Position>
              <LatitudeDegrees>43.2779861055314540863037109375</LatitudeDegrees>
              <LongitudeDegrees>-2.000431381165981292724609375</LongitudeDegrees>
            </Position>
            <AltitudeMeters>48.59999847412109375</AltitudeMeters>
            <DistanceMeters>NAN</DistanceMeters>
          </Trackpoint>
          <Trackpoint>
            <Time>2021-08-12T15:57:28.000Z</Time>
            <Position>
              <LatitudeDegrees>43.27798602171242237091064453125</LatitudeDegrees>
              <LongitudeDegrees>-2.00044739060103893280029296875</LongitudeDegrees>
            </Position>
            <AltitudeMeters>45.799999237060546875</AltitudeMeters>
            <DistanceMeters>NAN</DistanceMeters>
          </Trackpoint>
          <Trackpoint>
            <Time>2021-08-12T15:57:36.000Z</Time>
            <Position>
              <LatitudeDegrees>43.27798149548470973968505859375</LatitudeDegrees>
              <LongitudeDegrees>-2.00041503645479679107666015625</LongitudeDegrees>
            </Position>
            <AltitudeMeters>46</AltitudeMeters>
            <DistanceMeters>NAN</DistanceMeters>
          </Trackpoint>
          <Trackpoint>
            <Time>2021-08-12T15:57:37.000Z</Time>
            <Position>
              <LatitudeDegrees>43.277981914579868316650390625</LatitudeDegrees>
              <LongitudeDegrees>-2.00039659626781940460205078125</LongitudeDegrees>
            </Position>
            <AltitudeMeters>46</AltitudeMeters>
            <DistanceMeters>NAN</DistanceMeters>
          </Trackpoint>
          <Trackpoint>
            <Time>2021-08-12T15:57:43.000Z</Time>
            <Position>
              <LatitudeDegrees>43.277925588190555572509765625</LatitudeDegrees>
              <LongitudeDegrees>-2.00024957768619060516357421875</LongitudeDegrees>
            </Position>
            <AltitudeMeters>46.200000762939453125</AltitudeMeters>
            <DistanceMeters>NAN</DistanceMeters>
          </Trackpoint>
          <Trackpoint>
            <Time>2021-08-12T15:57:47.000Z</Time>
            <Position>
              <LatitudeDegrees>43.27788460068404674530029296875</LatitudeDegrees>
              <LongitudeDegrees>-2.00009752996265888214111328125</LongitudeDegrees>
            </Position>
            <AltitudeMeters>46.200000762939453125</AltitudeMeters>
            <DistanceMeters>NAN</DistanceMeters>
          </Trackpoint>
          <Trackpoint>
            <Time>2021-08-12T15:57:48.000Z</Time>
            <Position>
              <LatitudeDegrees>43.27787496149539947509765625</LatitudeDegrees>
              <LongitudeDegrees>-2.00006785802543163299560546875</LongitudeDegrees>
            </Position>
            <AltitudeMeters>46.200000762939453125</AltitudeMeters>
            <DistanceMeters>NAN</DistanceMeters>
          </Trackpoint>
          <Trackpoint>
            <Time>2021-08-12T15:57:51.000Z</Time>
            <Position>
              <LatitudeDegrees>43.2778613828122615814208984375</LatitudeDegrees>
              <LongitudeDegrees>-1.99999057687819004058837890625</LongitudeDegrees>
            </Position>
            <AltitudeMeters>46.200000762939453125</AltitudeMeters>
            <DistanceMeters>NAN</DistanceMeters>
          </Trackpoint>
          <Trackpoint>
            <Time>2021-08-12T15:57:52.000Z</Time>
            <Position>
              <LatitudeDegrees>43.27785576693713665008544921875</LatitudeDegrees>
              <LongitudeDegrees>-1.999970711767673492431640625</LongitudeDegrees>
            </Position>
            <AltitudeMeters>46.200000762939453125</AltitudeMeters>
            <DistanceMeters>NAN</DistanceMeters>
          </Trackpoint>
          <Trackpoint>
            <Time>2021-08-12T15:57:53.000Z</Time>
            <Position>
              <LatitudeDegrees>43.27784948050975799560546875</LatitudeDegrees>
              <LongitudeDegrees>-1.9999514333903789520263671875</LongitudeDegrees>
            </Position>
            <AltitudeMeters>46.200000762939453125</AltitudeMeters>
            <DistanceMeters>NAN</DistanceMeters>
          </Trackpoint>
          <Trackpoint>
            <Time>2021-08-12T15:57:54.000Z</Time>
            <Position>
              <LatitudeDegrees>43.27783967368304729461669921875</LatitudeDegrees>
              <LongitudeDegrees>-1.99993123300373554229736328125</LongitudeDegrees>
            </Position>
            <AltitudeMeters>46.200000762939453125</AltitudeMeters>
            <DistanceMeters>NAN</DistanceMeters>
          </Trackpoint>
          <Trackpoint>
            <Time>2021-08-12T15:57:55.000Z</Time>
            <Position>
              <LatitudeDegrees>43.27782609499990940093994140625</LatitudeDegrees>
              <LongitudeDegrees>-1.999908350408077239990234375</LongitudeDegrees>
            </Position>
            <AltitudeMeters>46.200000762939453125</AltitudeMeters>
            <DistanceMeters>NAN</DistanceMeters>
          </Trackpoint>
          <Trackpoint>
            <Time>2021-08-12T15:57:58.000Z</Time>
            <Position>
              <LatitudeDegrees>43.27776901423931121826171875</LatitudeDegrees>
              <LongitudeDegrees>-1.99985705316066741943359375</LongitudeDegrees>
            </Position>
            <AltitudeMeters>46.59999847412109375</AltitudeMeters>
            <DistanceMeters>NAN</DistanceMeters>
          </Trackpoint>
          <Trackpoint>
            <Time>2021-08-12T15:57:59.000Z</Time>
            <Position>
              <LatitudeDegrees>43.27774831093847751617431640625</LatitudeDegrees>
              <LongitudeDegrees>-1.9998548738658428192138671875</LongitudeDegrees>
            </Position>
            <AltitudeMeters>46.59999847412109375</AltitudeMeters>
            <DistanceMeters>NAN</DistanceMeters>
          </Trackpoint>
          <Trackpoint>
            <Time>2021-08-12T15:58:00.000Z</Time>
            <Position>
              <LatitudeDegrees>43.2777312956750392913818359375</LatitudeDegrees>
              <LongitudeDegrees>-1.9998548738658428192138671875</LongitudeDegrees>
            </Position>
            <AltitudeMeters>46.40000152587890625</AltitudeMeters>
            <DistanceMeters>NAN</DistanceMeters>
          </Trackpoint>
          <Trackpoint>
            <Time>2021-08-12T15:58:01.000Z</Time>
            <Position>
              <LatitudeDegrees>43.2777135260403156280517578125</LatitudeDegrees>
              <LongitudeDegrees>-1.9998619146645069122314453125</LongitudeDegrees>
            </Position>
            <AltitudeMeters>46.40000152587890625</AltitudeMeters>
            <DistanceMeters>NAN</DistanceMeters>
          </Trackpoint>
          <Trackpoint>
            <Time>2021-08-12T15:58:02.000Z</Time>
            <Position>
              <LatitudeDegrees>43.2776970975100994110107421875</LatitudeDegrees>
              <LongitudeDegrees>-1.99986149556934833526611328125</LongitudeDegrees>
            </Position>
            <AltitudeMeters>46.40000152587890625</AltitudeMeters>
            <DistanceMeters>NAN</DistanceMeters>
          </Trackpoint>
          <Trackpoint>
            <Time>2021-08-12T15:58:03.000Z</Time>
            <Position>
              <LatitudeDegrees>43.277677483856678009033203125</LatitudeDegrees>
              <LongitudeDegrees>-1.9998578913509845733642578125</LongitudeDegrees>
            </Position>
            <AltitudeMeters>46.40000152587890625</AltitudeMeters>
            <DistanceMeters>NAN</DistanceMeters>
          </Trackpoint>
          <Trackpoint>
            <Time>2021-08-12T15:58:05.000Z</Time>
            <Position>
              <LatitudeDegrees>43.27765577472746372222900390625</LatitudeDegrees>
              <LongitudeDegrees>-1.9998575560748577117919921875</LongitudeDegrees>
            </Position>
            <AltitudeMeters>46.40000152587890625</AltitudeMeters>
            <DistanceMeters>NAN</DistanceMeters>
          </Trackpoint>
          <Trackpoint>
            <Time>2021-08-12T15:58:06.000Z</Time>
            <Position>
              <LatitudeDegrees>43.27764789573848247528076171875</LatitudeDegrees>
              <LongitudeDegrees>-1.99985864572227001190185546875</LongitudeDegrees>
            </Position>
            <AltitudeMeters>46.59999847412109375</AltitudeMeters>
            <DistanceMeters>NAN</DistanceMeters>
          </Trackpoint>
          <Trackpoint>
            <Time>2021-08-12T15:58:07.000Z</Time>
            <Position>
              <LatitudeDegrees>43.27764152549207210540771484375</LatitudeDegrees>
              <LongitudeDegrees>-1.9998629204928874969482421875</LongitudeDegrees>
            </Position>
            <AltitudeMeters>46.59999847412109375</AltitudeMeters>
            <DistanceMeters>NAN</DistanceMeters>
          </Trackpoint>
          <Trackpoint>
            <Time>2021-08-12T15:58:08.000Z</Time>
            <Position>
              <LatitudeDegrees>43.27763448469340801239013671875</LatitudeDegrees>
              <LongitudeDegrees>-1.999868117272853851318359375</LongitudeDegrees>
            </Position>
            <AltitudeMeters>46.59999847412109375</AltitudeMeters>
            <DistanceMeters>NAN</DistanceMeters>
          </Trackpoint>
          <Trackpoint>
            <Time>2021-08-12T15:58:09.000Z</Time>
            <Position>
              <LatitudeDegrees>43.2776260189712047576904296875</LatitudeDegrees>
              <LongitudeDegrees>-1.99987272731959819793701171875</LongitudeDegrees>
            </Position>
            <AltitudeMeters>46.59999847412109375</AltitudeMeters>
            <DistanceMeters>NAN</DistanceMeters>
          </Trackpoint>
          <Trackpoint>
            <Time>2021-08-12T15:58:10.000Z</Time>
            <Position>
              <LatitudeDegrees>43.27761570923030376434326171875</LatitudeDegrees>
              <LongitudeDegrees>-1.999875493347644805908203125</LongitudeDegrees>
            </Position>
            <AltitudeMeters>46.59999847412109375</AltitudeMeters>
            <DistanceMeters>NAN</DistanceMeters>
          </Trackpoint>
          <Trackpoint>
            <Time>2021-08-12T15:58:11.000Z</Time>
            <Position>
              <LatitudeDegrees>43.277600705623626708984375</LatitudeDegrees>
              <LongitudeDegrees>-1.9998823665082454681396484375</LongitudeDegrees>
            </Position>
            <AltitudeMeters>46.799999237060546875</AltitudeMeters>
            <DistanceMeters>NAN</DistanceMeters>
          </Trackpoint>
          <Trackpoint>
            <Time>2021-08-12T15:58:12.000Z</Time>
            <Position>
              <LatitudeDegrees>43.27758536674082279205322265625</LatitudeDegrees>
              <LongitudeDegrees>-1.99988831765949726104736328125</LongitudeDegrees>
            </Position>
            <AltitudeMeters>46.799999237060546875</AltitudeMeters>
            <DistanceMeters>NAN</DistanceMeters>
          </Trackpoint>
          <Trackpoint>
            <Time>2021-08-12T15:58:13.000Z</Time>
            <Position>
              <LatitudeDegrees>43.27756944112479686737060546875</LatitudeDegrees>
              <LongitudeDegrees>-1.9998912513256072998046875</LongitudeDegrees>
            </Position>
            <AltitudeMeters>46.799999237060546875</AltitudeMeters>
            <DistanceMeters>NAN</DistanceMeters>
          </Trackpoint>
          <Trackpoint>
            <Time>2021-08-12T15:58:15.000Z</Time>
            <Position>
              <LatitudeDegrees>43.2775569520890712738037109375</LatitudeDegrees>
              <LongitudeDegrees>-1.99988312087953090667724609375</LongitudeDegrees>
            </Position>
            <AltitudeMeters>47</AltitudeMeters>
            <DistanceMeters>NAN</DistanceMeters>
          </Trackpoint>
          <Trackpoint>
            <Time>2021-08-12T15:58:16.000Z</Time>
            <Position>
              <LatitudeDegrees>43.27756340615451335906982421875</LatitudeDegrees>
              <LongitudeDegrees>-1.999879516661167144775390625</LongitudeDegrees>
            </Position>
            <AltitudeMeters>47.200000762939453125</AltitudeMeters>
            <DistanceMeters>NAN</DistanceMeters>
          </Trackpoint>
          <Trackpoint>
            <Time>2021-08-12T15:58:27.000Z</Time>
            <Position>
              <LatitudeDegrees>43.2772773317992687225341796875</LatitudeDegrees>
              <LongitudeDegrees>-1.999974064528942108154296875</LongitudeDegrees>
            </Position>
            <AltitudeMeters>48.200000762939453125</AltitudeMeters>
            <DistanceMeters>NAN</DistanceMeters>
          </Trackpoint>
          <Trackpoint>
            <Time>2021-08-12T15:58:28.000Z</Time>
            <Position>
              <LatitudeDegrees>43.27726216055452823638916015625</LatitudeDegrees>
              <LongitudeDegrees>-1.999932490289211273193359375</LongitudeDegrees>
            </Position>
            <AltitudeMeters>48.200000762939453125</AltitudeMeters>
            <DistanceMeters>NAN</DistanceMeters>
          </Trackpoint>
          <Trackpoint>
            <Time>2021-08-12T15:58:29.000Z</Time>
            <Position>
              <LatitudeDegrees>43.27726216055452823638916015625</LatitudeDegrees>
              <LongitudeDegrees>-1.999932490289211273193359375</LongitudeDegrees>
            </Position>
            <AltitudeMeters>48.40000152587890625</AltitudeMeters>
            <DistanceMeters>NAN</DistanceMeters>
          </Trackpoint>
          <Trackpoint>
            <Time>2021-08-12T15:58:30.000Z</Time>
            <Position>
              <LatitudeDegrees>43.27725847251713275909423828125</LatitudeDegrees>
              <LongitudeDegrees>-1.99992008507251739501953125</LongitudeDegrees>
            </Position>
            <AltitudeMeters>48.40000152587890625</AltitudeMeters>
            <DistanceMeters>NAN</DistanceMeters>
          </Trackpoint>
          <Trackpoint>
            <Time>2021-08-12T15:58:31.000Z</Time>
            <Position>
              <LatitudeDegrees>43.27725344337522983551025390625</LatitudeDegrees>
              <LongitudeDegrees>-1.9999095238745212554931640625</LongitudeDegrees>
            </Position>
            <AltitudeMeters>48.59999847412109375</AltitudeMeters>
            <DistanceMeters>NAN</DistanceMeters>
          </Trackpoint>
          <Trackpoint>
            <Time>2021-08-12T15:58:32.000Z</Time>
            <Position>
              <LatitudeDegrees>43.27724598348140716552734375</LatitudeDegrees>
              <LongitudeDegrees>-1.99989837594330310821533203125</LongitudeDegrees>
            </Position>
            <AltitudeMeters>48.59999847412109375</AltitudeMeters>
            <DistanceMeters>NAN</DistanceMeters>
          </Trackpoint>
          <Trackpoint>
            <Time>2021-08-12T15:58:36.000Z</Time>
            <Position>
              <LatitudeDegrees>43.27721237204968929290771484375</LatitudeDegrees>
              <LongitudeDegrees>-1.99979661963880062103271484375</LongitudeDegrees>
            </Position>
            <AltitudeMeters>48.799999237060546875</AltitudeMeters>
            <DistanceMeters>NAN</DistanceMeters>
          </Trackpoint>
          <Trackpoint>
            <Time>2021-08-12T15:58:37.000Z</Time>
            <Position>
              <LatitudeDegrees>43.2772132940590381622314453125</LatitudeDegrees>
              <LongitudeDegrees>-1.99977750889956951141357421875</LongitudeDegrees>
            </Position>
            <AltitudeMeters>48.799999237060546875</AltitudeMeters>
            <DistanceMeters>NAN</DistanceMeters>
          </Trackpoint>
          <Trackpoint>
            <Time>2021-08-12T15:58:38.000Z</Time>
            <Position>
              <LatitudeDegrees>43.27721639536321163177490234375</LatitudeDegrees>
              <LongitudeDegrees>-1.9997677020728588104248046875</LongitudeDegrees>
            </Position>
            <AltitudeMeters>48.799999237060546875</AltitudeMeters>
            <DistanceMeters>NAN</DistanceMeters>
          </Trackpoint>
          <Trackpoint>
            <Time>2021-08-12T15:58:39.000Z</Time>
            <Position>
              <LatitudeDegrees>43.277208097279071807861328125</LatitudeDegrees>
              <LongitudeDegrees>-1.99975621886551380157470703125</LongitudeDegrees>
            </Position>
            <AltitudeMeters>49</AltitudeMeters>
            <DistanceMeters>NAN</DistanceMeters>
          </Trackpoint>
          <Trackpoint>
            <Time>2021-08-12T15:58:40.000Z</Time>
            <Position>
              <LatitudeDegrees>43.27720097266137599945068359375</LatitudeDegrees>
              <LongitudeDegrees>-1.99975035153329372406005859375</LongitudeDegrees>
            </Position>
            <AltitudeMeters>49.200000762939453125</AltitudeMeters>
            <DistanceMeters>NAN</DistanceMeters>
          </Trackpoint>
          <Trackpoint>
            <Time>2021-08-12T15:58:41.000Z</Time>
            <Position>
              <LatitudeDegrees>43.27718940563499927520751953125</LatitudeDegrees>
              <LongitudeDegrees>-1.99975471012294292449951171875</LongitudeDegrees>
            </Position>
            <AltitudeMeters>49.200000762939453125</AltitudeMeters>
            <DistanceMeters>NAN</DistanceMeters>
          </Trackpoint>
          <Trackpoint>
            <Time>2021-08-12T15:58:42.000Z</Time>
            <Position>
              <LatitudeDegrees>43.27718035317957401275634765625</LatitudeDegrees>
              <LongitudeDegrees>-1.999765522778034210205078125</LongitudeDegrees>
            </Position>
            <AltitudeMeters>49.200000762939453125</AltitudeMeters>
            <DistanceMeters>NAN</DistanceMeters>
          </Trackpoint>
          <Trackpoint>
            <Time>2021-08-12T15:58:43.000Z</Time>
            <Position>
              <LatitudeDegrees>43.27717733569443225860595703125</LatitudeDegrees>
              <LongitudeDegrees>-1.9997811131179332733154296875</LongitudeDegrees>
            </Position>
            <AltitudeMeters>49.40000152587890625</AltitudeMeters>
            <DistanceMeters>NAN</DistanceMeters>
          </Trackpoint>
          <Trackpoint>
            <Time>2021-08-12T15:58:44.000Z</Time>
            <Position>
              <LatitudeDegrees>43.27717163600027561187744140625</LatitudeDegrees>
              <LongitudeDegrees>-1.99979108758270740509033203125</LongitudeDegrees>
            </Position>
            <AltitudeMeters>49.40000152587890625</AltitudeMeters>
            <DistanceMeters>NAN</DistanceMeters>
          </Trackpoint>
          <Trackpoint>
            <Time>2021-08-12T15:58:45.000Z</Time>
            <Position>
              <LatitudeDegrees>43.27717490494251251220703125</LatitudeDegrees>
              <LongitudeDegrees>-1.99980399571359157562255859375</LongitudeDegrees>
            </Position>
            <AltitudeMeters>49.59999847412109375</AltitudeMeters>
            <DistanceMeters>NAN</DistanceMeters>
          </Trackpoint>
          <Trackpoint>
            <Time>2021-08-12T15:58:46.000Z</Time>
            <Position>
              <LatitudeDegrees>43.2771797664463520050048828125</LatitudeDegrees>
              <LongitudeDegrees>-1.9998263753950595855712890625</LongitudeDegrees>
            </Position>
            <AltitudeMeters>50</AltitudeMeters>
            <DistanceMeters>NAN</DistanceMeters>
          </Trackpoint>
          <Trackpoint>
            <Time>2021-08-12T15:58:47.000Z</Time>
            <Position>
              <LatitudeDegrees>43.27718831598758697509765625</LatitudeDegrees>
              <LongitudeDegrees>-1.9998461566865444183349609375</LongitudeDegrees>
            </Position>
            <AltitudeMeters>50.200000762939453125</AltitudeMeters>
            <DistanceMeters>NAN</DistanceMeters>
          </Trackpoint>
          <Trackpoint>
            <Time>2021-08-12T15:58:48.000Z</Time>
            <Position>
              <LatitudeDegrees>43.27719493769109249114990234375</LatitudeDegrees>
              <LongitudeDegrees>-1.999867446720600128173828125</LongitudeDegrees>
            </Position>
            <AltitudeMeters>50.40000152587890625</AltitudeMeters>
            <DistanceMeters>NAN</DistanceMeters>
          </Trackpoint>
          <Trackpoint>
            <Time>2021-08-12T15:58:49.000Z</Time>
            <Position>
              <LatitudeDegrees>43.27720130793750286102294921875</LatitudeDegrees>
              <LongitudeDegrees>-1.99988789856433868408203125</LongitudeDegrees>
            </Position>
            <AltitudeMeters>50.59999847412109375</AltitudeMeters>
            <DistanceMeters>NAN</DistanceMeters>
          </Trackpoint>
          <Trackpoint>
            <Time>2021-08-12T15:58:50.000Z</Time>
            <Position>
              <LatitudeDegrees>43.27721153385937213897705078125</LatitudeDegrees>
              <LongitudeDegrees>-1.999903656542301177978515625</LongitudeDegrees>
            </Position>
            <AltitudeMeters>50.799999237060546875</AltitudeMeters>
            <DistanceMeters>NAN</DistanceMeters>
          </Trackpoint>
          <Trackpoint>
            <Time>2021-08-12T15:58:51.000Z</Time>
            <Position>
              <LatitudeDegrees>43.27723064459860324859619140625</LatitudeDegrees>
              <LongitudeDegrees>-1.9999215938150882720947265625</LongitudeDegrees>
            </Position>
            <AltitudeMeters>50.799999237060546875</AltitudeMeters>
            <DistanceMeters>NAN</DistanceMeters>
          </Trackpoint>
          <Trackpoint>
            <Time>2021-08-12T15:58:52.000Z</Time>
            <Position>
              <LatitudeDegrees>43.2772438041865825653076171875</LatitudeDegrees>
              <LongitudeDegrees>-1.9999450631439685821533203125</LongitudeDegrees>
            </Position>
            <AltitudeMeters>51</AltitudeMeters>
            <DistanceMeters>NAN</DistanceMeters>
          </Trackpoint>
          <Trackpoint>
            <Time>2021-08-12T15:58:53.000Z</Time>
            <Position>
              <LatitudeDegrees>43.27725344337522983551025390625</LatitudeDegrees>
              <LongitudeDegrees>-1.99996861629188060760498046875</LongitudeDegrees>
            </Position>
            <AltitudeMeters>51.200000762939453125</AltitudeMeters>
            <DistanceMeters>NAN</DistanceMeters>
          </Trackpoint>
          <Trackpoint>
            <Time>2021-08-12T15:58:54.000Z</Time>
            <Position>
              <LatitudeDegrees>43.27726601622998714447021484375</LatitudeDegrees>
              <LongitudeDegrees>-1.99999074451625347137451171875</LongitudeDegrees>
            </Position>
            <AltitudeMeters>51.40000152587890625</AltitudeMeters>
            <DistanceMeters>NAN</DistanceMeters>
          </Trackpoint>
          <Trackpoint>
            <Time>2021-08-12T15:58:55.000Z</Time>
            <Position>
              <LatitudeDegrees>43.27728026546537876129150390625</LatitudeDegrees>
              <LongitudeDegrees>-2.000011615455150604248046875</LongitudeDegrees>
            </Position>
            <AltitudeMeters>51.40000152587890625</AltitudeMeters>
            <DistanceMeters>NAN</DistanceMeters>
          </Trackpoint>
          <Trackpoint>
            <Time>2021-08-12T15:58:56.000Z</Time>
            <Position>
              <LatitudeDegrees>43.27729300595819950103759765625</LatitudeDegrees>
              <LongitudeDegrees>-2.0000255294144153594970703125</LongitudeDegrees>
            </Position>
            <AltitudeMeters>51.59999847412109375</AltitudeMeters>
            <DistanceMeters>NAN</DistanceMeters>
          </Trackpoint>
          <Trackpoint>
            <Time>2021-08-12T15:58:57.000Z</Time>
            <Position>
              <LatitudeDegrees>43.27730876393616199493408203125</LatitudeDegrees>
              <LongitudeDegrees>-2.000039778649806976318359375</LongitudeDegrees>
            </Position>
            <AltitudeMeters>51.40000152587890625</AltitudeMeters>
            <DistanceMeters>NAN</DistanceMeters>
          </Trackpoint>
          <Trackpoint>
            <Time>2021-08-12T15:58:58.000Z</Time>
            <Position>
              <LatitudeDegrees>43.27732318080961704254150390625</LatitudeDegrees>
              <LongitudeDegrees>-2.00005059130489826202392578125</LongitudeDegrees>
            </Position>
            <AltitudeMeters>51.59999847412109375</AltitudeMeters>
            <DistanceMeters>NAN</DistanceMeters>
          </Trackpoint>
          <Trackpoint>
            <Time>2021-08-12T15:58:59.000Z</Time>
            <Position>
              <LatitudeDegrees>43.2773329876363277435302734375</LatitudeDegrees>
              <LongitudeDegrees>-2.0000567100942134857177734375</LongitudeDegrees>
            </Position>
            <AltitudeMeters>51.799999237060546875</AltitudeMeters>
            <DistanceMeters>NAN</DistanceMeters>
          </Trackpoint>
          <Trackpoint>
            <Time>2021-08-12T15:59:00.000Z</Time>
            <Position>
              <LatitudeDegrees>43.27734245918691158294677734375</LatitudeDegrees>
              <LongitudeDegrees>-2.000063247978687286376953125</LongitudeDegrees>
            </Position>
            <AltitudeMeters>51.799999237060546875</AltitudeMeters>
            <DistanceMeters>NAN</DistanceMeters>
          </Trackpoint>
          <Trackpoint>
            <Time>2021-08-12T15:59:01.000Z</Time>
            <Position>
              <LatitudeDegrees>43.2773534394800662994384765625</LatitudeDegrees>
              <LongitudeDegrees>-2.0000667683780193328857421875</LongitudeDegrees>
            </Position>
            <AltitudeMeters>51.799999237060546875</AltitudeMeters>
            <DistanceMeters>NAN</DistanceMeters>
          </Trackpoint>
          <Trackpoint>
            <Time>2021-08-12T15:59:02.000Z</Time>
            <Position>
              <LatitudeDegrees>43.27733340673148632049560546875</LatitudeDegrees>
              <LongitudeDegrees>-2.00009300373494625091552734375</LongitudeDegrees>
            </Position>
            <AltitudeMeters>52</AltitudeMeters>
            <DistanceMeters>NAN</DistanceMeters>
          </Trackpoint>
          <Trackpoint>
            <Time>2021-08-12T15:59:03.000Z</Time>
            <Position>
              <LatitudeDegrees>43.277330808341503143310546875</LatitudeDegrees>
              <LongitudeDegrees>-2.00011412613093852996826171875</LongitudeDegrees>
            </Position>
            <AltitudeMeters>52.200000762939453125</AltitudeMeters>
            <DistanceMeters>NAN</DistanceMeters>
          </Trackpoint>
          <Trackpoint>
            <Time>2021-08-12T15:59:04.000Z</Time>
            <Position>
              <LatitudeDegrees>43.277336172759532928466796875</LatitudeDegrees>
              <LongitudeDegrees>-2.0001294650137424468994140625</LongitudeDegrees>
            </Position>
            <AltitudeMeters>52.200000762939453125</AltitudeMeters>
            <DistanceMeters>NAN</DistanceMeters>
          </Trackpoint>
          <Trackpoint>
            <Time>2021-08-12T15:59:05.000Z</Time>
            <Position>
              <LatitudeDegrees>43.27734212391078472137451171875</LatitudeDegrees>
              <LongitudeDegrees>-2.00014195404946804046630859375</LongitudeDegrees>
            </Position>
            <AltitudeMeters>52.40000152587890625</AltitudeMeters>
            <DistanceMeters>NAN</DistanceMeters>
          </Trackpoint>
          <Trackpoint>
            <Time>2021-08-12T15:59:06.000Z</Time>
            <Position>
              <LatitudeDegrees>43.27734547667205333709716796875</LatitudeDegrees>
              <LongitudeDegrees>-2.00015201233327388763427734375</LongitudeDegrees>
            </Position>
            <AltitudeMeters>52.40000152587890625</AltitudeMeters>
            <DistanceMeters>NAN</DistanceMeters>
          </Trackpoint>
          <Trackpoint>
            <Time>2021-08-12T15:59:07.000Z</Time>
            <Position>
              <LatitudeDegrees>43.2773507572710514068603515625</LatitudeDegrees>
              <LongitudeDegrees>-2.00016458518803119659423828125</LongitudeDegrees>
            </Position>
            <AltitudeMeters>52.59999847412109375</AltitudeMeters>
            <DistanceMeters>NAN</DistanceMeters>
          </Trackpoint>
          <Trackpoint>
            <Time>2021-08-12T15:59:08.000Z</Time>
            <Position>
              <LatitudeDegrees>43.2773541100323200225830078125</LatitudeDegrees>
              <LongitudeDegrees>-2.0001777447760105133056640625</LongitudeDegrees>
            </Position>
            <AltitudeMeters>52.799999237060546875</AltitudeMeters>
            <DistanceMeters>NAN</DistanceMeters>
          </Trackpoint>
          <Trackpoint>
            <Time>2021-08-12T15:59:09.000Z</Time>
            <Position>
              <LatitudeDegrees>43.27735201455652713775634765625</LatitudeDegrees>
              <LongitudeDegrees>-2.00019291602075099945068359375</LongitudeDegrees>
            </Position>
            <AltitudeMeters>53</AltitudeMeters>
            <DistanceMeters>NAN</DistanceMeters>
          </Trackpoint>
          <Trackpoint>
            <Time>2021-08-12T15:59:10.000Z</Time>
            <Position>
              <LatitudeDegrees>43.2773386873304843902587890625</LatitudeDegrees>
              <LongitudeDegrees>-2.0002055726945400238037109375</LongitudeDegrees>
            </Position>
            <AltitudeMeters>53.200000762939453125</AltitudeMeters>
            <DistanceMeters>NAN</DistanceMeters>
          </Trackpoint>
          <Trackpoint>
            <Time>2021-08-12T15:59:14.000Z</Time>
            <Position>
              <LatitudeDegrees>43.27730859629809856414794921875</LatitudeDegrees>
              <LongitudeDegrees>-2.00021605007350444793701171875</LongitudeDegrees>
            </Position>
            <AltitudeMeters>53.40000152587890625</AltitudeMeters>
            <DistanceMeters>NAN</DistanceMeters>
          </Trackpoint>
          <Trackpoint>
            <Time>2021-08-12T15:59:31.000Z</Time>
            <Position>
              <LatitudeDegrees>43.27730390243232250213623046875</LatitudeDegrees>
              <LongitudeDegrees>-2.000214792788028717041015625</LongitudeDegrees>
            </Position>
            <AltitudeMeters>53.799999237060546875</AltitudeMeters>
            <DistanceMeters>NAN</DistanceMeters>
          </Trackpoint>
          <Trackpoint>
            <Time>2021-08-12T15:59:36.000Z</Time>
            <Position>
              <LatitudeDegrees>43.27730365097522735595703125</LatitudeDegrees>
              <LongitudeDegrees>-2.00021420605480670928955078125</LongitudeDegrees>
            </Position>
            <AltitudeMeters>54</AltitudeMeters>
            <DistanceMeters>NAN</DistanceMeters>
          </Trackpoint>
          <Trackpoint>
            <Time>2021-08-12T15:59:51.000Z</Time>
            <Position>
              <LatitudeDegrees>43.2773041538894176483154296875</LatitudeDegrees>
              <LongitudeDegrees>-2.0002119429409503936767578125</LongitudeDegrees>
            </Position>
            <AltitudeMeters>54</AltitudeMeters>
            <DistanceMeters>NAN</DistanceMeters>
          </Trackpoint>
          <Trackpoint>
            <Time>2021-08-12T15:59:55.000Z</Time>
            <Position>
              <LatitudeDegrees>43.27731345780193805694580078125</LatitudeDegrees>
              <LongitudeDegrees>-2.0002350769937038421630859375</LongitudeDegrees>
            </Position>
            <AltitudeMeters>54</AltitudeMeters>
            <DistanceMeters>NAN</DistanceMeters>
          </Trackpoint>
          <Trackpoint>
            <Time>2021-08-12T15:59:57.000Z</Time>
            <Position>
              <LatitudeDegrees>43.27732351608574390411376953125</LatitudeDegrees>
              <LongitudeDegrees>-2.00027472339570522308349609375</LongitudeDegrees>
            </Position>
            <AltitudeMeters>54</AltitudeMeters>
            <DistanceMeters>NAN</DistanceMeters>
          </Trackpoint>
          <Trackpoint>
            <Time>2021-08-12T16:00:00.000Z</Time>
            <Position>
              <LatitudeDegrees>43.2773400284349918365478515625</LatitudeDegrees>
              <LongitudeDegrees>-2.00034194625914096832275390625</LongitudeDegrees>
            </Position>
            <AltitudeMeters>54</AltitudeMeters>
            <DistanceMeters>NAN</DistanceMeters>
          </Trackpoint>
          <Trackpoint>
            <Time>2021-08-12T16:00:02.000Z</Time>
            <Position>
              <LatitudeDegrees>43.2773520983755588531494140625</LatitudeDegrees>
              <LongitudeDegrees>-2.0003847777843475341796875</LongitudeDegrees>
            </Position>
            <AltitudeMeters>54.200000762939453125</AltitudeMeters>
            <DistanceMeters>NAN</DistanceMeters>
          </Trackpoint>
          <Trackpoint>
            <Time>2021-08-12T16:00:03.000Z</Time>
            <Position>
              <LatitudeDegrees>43.27735234983265399932861328125</LatitudeDegrees>
              <LongitudeDegrees>-2.00040690600872039794921875</LongitudeDegrees>
            </Position>
            <AltitudeMeters>54.40000152587890625</AltitudeMeters>
            <DistanceMeters>NAN</DistanceMeters>
          </Trackpoint>
          <Trackpoint>
            <Time>2021-08-12T16:00:04.000Z</Time>
            <Position>
              <LatitudeDegrees>43.27735687606036663055419921875</LatitudeDegrees>
              <LongitudeDegrees>-2.00042702257633209228515625</LongitudeDegrees>
            </Position>
            <AltitudeMeters>54.59999847412109375</AltitudeMeters>
            <DistanceMeters>NAN</DistanceMeters>
          </Trackpoint>
          <Trackpoint>
            <Time>2021-08-12T16:00:06.000Z</Time>
            <Position>
              <LatitudeDegrees>43.277364335954189300537109375</LatitudeDegrees>
              <LongitudeDegrees>-2.00046532787382602691650390625</LongitudeDegrees>
            </Position>
            <AltitudeMeters>55</AltitudeMeters>
            <DistanceMeters>NAN</DistanceMeters>
          </Trackpoint>
          <Trackpoint>
            <Time>2021-08-12T16:00:07.000Z</Time>
            <Position>
              <LatitudeDegrees>43.2773691974580287933349609375</LatitudeDegrees>
              <LongitudeDegrees>-2.0004825107753276824951171875</LongitudeDegrees>
            </Position>
            <AltitudeMeters>55.40000152587890625</AltitudeMeters>
            <DistanceMeters>NAN</DistanceMeters>
          </Trackpoint>
          <Trackpoint>
            <Time>2021-08-12T16:00:08.000Z</Time>
            <Position>
              <LatitudeDegrees>43.27737246640026569366455078125</LatitudeDegrees>
              <LongitudeDegrees>-2.00050304643809795379638671875</LongitudeDegrees>
            </Position>
            <AltitudeMeters>55.59999847412109375</AltitudeMeters>
            <DistanceMeters>NAN</DistanceMeters>
          </Trackpoint>
          <Trackpoint>
            <Time>2021-08-12T16:00:09.000Z</Time>
            <Position>
              <LatitudeDegrees>43.27737296931445598602294921875</LatitudeDegrees>
              <LongitudeDegrees>-2.00051880441606044769287109375</LongitudeDegrees>
            </Position>
            <AltitudeMeters>55.799999237060546875</AltitudeMeters>
            <DistanceMeters>NAN</DistanceMeters>
          </Trackpoint>
          <Trackpoint>
            <Time>2021-08-12T16:00:10.000Z</Time>
            <Position>
              <LatitudeDegrees>43.27737296931445598602294921875</LatitudeDegrees>
              <LongitudeDegrees>-2.00051880441606044769287109375</LongitudeDegrees>
            </Position>
            <AltitudeMeters>56.200000762939453125</AltitudeMeters>
            <DistanceMeters>NAN</DistanceMeters>
          </Trackpoint>
          <Trackpoint>
            <Time>2021-08-12T16:00:14.000Z</Time>
            <Position>
              <LatitudeDegrees>43.27736844308674335479736328125</LatitudeDegrees>
              <LongitudeDegrees>-2.00060061179101467132568359375</LongitudeDegrees>
            </Position>
            <AltitudeMeters>57.200000762939453125</AltitudeMeters>
            <DistanceMeters>NAN</DistanceMeters>
          </Trackpoint>
          <Trackpoint>
            <Time>2021-08-12T16:00:15.000Z</Time>
            <Position>
              <LatitudeDegrees>43.27736341394484043121337890625</LatitudeDegrees>
              <LongitudeDegrees>-2.00064671225845813751220703125</LongitudeDegrees>
            </Position>
            <AltitudeMeters>57.40000152587890625</AltitudeMeters>
            <DistanceMeters>NAN</DistanceMeters>
          </Trackpoint>
          <Trackpoint>
            <Time>2021-08-12T16:00:16.000Z</Time>
            <Position>
              <LatitudeDegrees>43.2773604802787303924560546875</LatitudeDegrees>
              <LongitudeDegrees>-2.00066900812089443206787109375</LongitudeDegrees>
            </Position>
            <AltitudeMeters>57.59999847412109375</AltitudeMeters>
            <DistanceMeters>NAN</DistanceMeters>
          </Trackpoint>
          <Trackpoint>
            <Time>2021-08-12T16:00:17.000Z</Time>
            <Position>
              <LatitudeDegrees>43.2773594744503498077392578125</LatitudeDegrees>
              <LongitudeDegrees>-2.00069063343107700347900390625</LongitudeDegrees>
            </Position>
            <AltitudeMeters>58</AltitudeMeters>
            <DistanceMeters>NAN</DistanceMeters>
          </Trackpoint>
          <Trackpoint>
            <Time>2021-08-12T16:00:18.000Z</Time>
            <Position>
              <LatitudeDegrees>43.2773594744503498077392578125</LatitudeDegrees>
              <LongitudeDegrees>-2.00069063343107700347900390625</LongitudeDegrees>
            </Position>
            <AltitudeMeters>58.200000762939453125</AltitudeMeters>
            <DistanceMeters>NAN</DistanceMeters>
          </Trackpoint>
          <Trackpoint>
            <Time>2021-08-12T16:00:19.000Z</Time>
            <Position>
              <LatitudeDegrees>43.27735788188874721527099609375</LatitudeDegrees>
              <LongitudeDegrees>-2.00073857791721820831298828125</LongitudeDegrees>
            </Position>
            <AltitudeMeters>58.40000152587890625</AltitudeMeters>
            <DistanceMeters>NAN</DistanceMeters>
          </Trackpoint>
          <Trackpoint>
            <Time>2021-08-12T16:00:20.000Z</Time>
            <Position>
              <LatitudeDegrees>43.27735821716487407684326171875</LatitudeDegrees>
              <LongitudeDegrees>-2.000761963427066802978515625</LongitudeDegrees>
            </Position>
            <AltitudeMeters>58.799999237060546875</AltitudeMeters>
            <DistanceMeters>NAN</DistanceMeters>
          </Trackpoint>
          <Trackpoint>
            <Time>2021-08-12T16:00:21.000Z</Time>
            <Position>
              <LatitudeDegrees>43.277358300983905792236328125</LatitudeDegrees>
              <LongitudeDegrees>-2.000783421099185943603515625</LongitudeDegrees>
            </Position>
            <AltitudeMeters>58.799999237060546875</AltitudeMeters>
            <DistanceMeters>NAN</DistanceMeters>
          </Trackpoint>
          <Trackpoint>
            <Time>2021-08-12T16:00:22.000Z</Time>
            <Position>
              <LatitudeDegrees>43.27735972590744495391845703125</LatitudeDegrees>
              <LongitudeDegrees>-2.00080429203808307647705078125</LongitudeDegrees>
            </Position>
            <AltitudeMeters>59</AltitudeMeters>
            <DistanceMeters>NAN</DistanceMeters>
          </Trackpoint>
          <Trackpoint>
            <Time>2021-08-12T16:00:23.000Z</Time>
            <Position>
              <LatitudeDegrees>43.277362324297428131103515625</LatitudeDegrees>
              <LongitudeDegrees>-2.000826336443424224853515625</LongitudeDegrees>
            </Position>
            <AltitudeMeters>59.200000762939453125</AltitudeMeters>
            <DistanceMeters>NAN</DistanceMeters>
          </Trackpoint>
          <Trackpoint>
            <Time>2021-08-12T16:00:24.000Z</Time>
            <Position>
              <LatitudeDegrees>43.27736190520226955413818359375</LatitudeDegrees>
              <LongitudeDegrees>-2.00084804557263851165771484375</LongitudeDegrees>
            </Position>
            <AltitudeMeters>59.40000152587890625</AltitudeMeters>
            <DistanceMeters>NAN</DistanceMeters>
          </Trackpoint>
          <Trackpoint>
            <Time>2021-08-12T16:00:25.000Z</Time>
            <Position>
              <LatitudeDegrees>43.27736190520226955413818359375</LatitudeDegrees>
              <LongitudeDegrees>-2.00084804557263851165771484375</LongitudeDegrees>
            </Position>
            <AltitudeMeters>59.59999847412109375</AltitudeMeters>
            <DistanceMeters>NAN</DistanceMeters>
          </Trackpoint>
          <Trackpoint>
            <Time>2021-08-12T16:00:26.000Z</Time>
            <Position>
              <LatitudeDegrees>43.27735167928040027618408203125</LatitudeDegrees>
              <LongitudeDegrees>-2.000890709459781646728515625</LongitudeDegrees>
            </Position>
            <AltitudeMeters>59.799999237060546875</AltitudeMeters>
            <DistanceMeters>NAN</DistanceMeters>
          </Trackpoint>
          <Trackpoint>
            <Time>2021-08-12T16:00:27.000Z</Time>
            <Position>
              <LatitudeDegrees>43.2773487456142902374267578125</LatitudeDegrees>
              <LongitudeDegrees>-2.00091191567480564117431640625</LongitudeDegrees>
            </Position>
            <AltitudeMeters>59.799999237060546875</AltitudeMeters>
            <DistanceMeters>NAN</DistanceMeters>
          </Trackpoint>
          <Trackpoint>
            <Time>2021-08-12T16:00:28.000Z</Time>
            <Position>
              <LatitudeDegrees>43.2773445546627044677734375</LatitudeDegrees>
              <LongitudeDegrees>-2.000932954251766204833984375</LongitudeDegrees>
            </Position>
            <AltitudeMeters>60</AltitudeMeters>
            <DistanceMeters>NAN</DistanceMeters>
          </Trackpoint>
          <Trackpoint>
            <Time>2021-08-12T16:00:29.000Z</Time>
            <Position>
              <LatitudeDegrees>43.27733583748340606689453125</LatitudeDegrees>
              <LongitudeDegrees>-2.000953741371631622314453125</LongitudeDegrees>
            </Position>
            <AltitudeMeters>60.200000762939453125</AltitudeMeters>
            <DistanceMeters>NAN</DistanceMeters>
          </Trackpoint>
          <Trackpoint>
            <Time>2021-08-12T16:00:30.000Z</Time>
            <Position>
              <LatitudeDegrees>43.27732569538056850433349609375</LatitudeDegrees>
              <LongitudeDegrees>-2.00097285211086273193359375</LongitudeDegrees>
            </Position>
            <AltitudeMeters>60.40000152587890625</AltitudeMeters>
            <DistanceMeters>NAN</DistanceMeters>
          </Trackpoint>
          <Trackpoint>
            <Time>2021-08-12T16:00:31.000Z</Time>
            <Position>
              <LatitudeDegrees>43.27732569538056850433349609375</LatitudeDegrees>
              <LongitudeDegrees>-2.00097285211086273193359375</LongitudeDegrees>
            </Position>
            <AltitudeMeters>60.59999847412109375</AltitudeMeters>
            <DistanceMeters>NAN</DistanceMeters>
          </Trackpoint>
          <Trackpoint>
            <Time>2021-08-12T16:00:32.000Z</Time>
            <Position>
              <LatitudeDegrees>43.27730725519359111785888671875</LatitudeDegrees>
              <LongitudeDegrees>-2.0010135881602764129638671875</LongitudeDegrees>
            </Position>
            <AltitudeMeters>60.799999237060546875</AltitudeMeters>
            <DistanceMeters>NAN</DistanceMeters>
          </Trackpoint>
          <Trackpoint>
            <Time>2021-08-12T16:00:33.000Z</Time>
            <Position>
              <LatitudeDegrees>43.277295939624309539794921875</LatitudeDegrees>
              <LongitudeDegrees>-2.0010316930711269378662109375</LongitudeDegrees>
            </Position>
            <AltitudeMeters>60.799999237060546875</AltitudeMeters>
            <DistanceMeters>NAN</DistanceMeters>
          </Trackpoint>
          <Trackpoint>
            <Time>2021-08-12T16:00:34.000Z</Time>
            <Position>
              <LatitudeDegrees>43.277295939624309539794921875</LatitudeDegrees>
              <LongitudeDegrees>-2.0010316930711269378662109375</LongitudeDegrees>
            </Position>
            <AltitudeMeters>61</AltitudeMeters>
            <DistanceMeters>NAN</DistanceMeters>
          </Trackpoint>
          <Trackpoint>
            <Time>2021-08-12T16:00:35.000Z</Time>
            <Position>
              <LatitudeDegrees>43.27728060074150562286376953125</LatitudeDegrees>
              <LongitudeDegrees>-2.0010430924594402313232421875</LongitudeDegrees>
            </Position>
            <AltitudeMeters>61.200000762939453125</AltitudeMeters>
            <DistanceMeters>NAN</DistanceMeters>
          </Trackpoint>
          <Trackpoint>
            <Time>2021-08-12T16:00:36.000Z</Time>
            <Position>
              <LatitudeDegrees>43.27726735733449459075927734375</LatitudeDegrees>
              <LongitudeDegrees>-2.00105139054358005523681640625</LongitudeDegrees>
            </Position>
            <AltitudeMeters>61.200000762939453125</AltitudeMeters>
            <DistanceMeters>NAN</DistanceMeters>
          </Trackpoint>
          <Trackpoint>
            <Time>2021-08-12T16:00:37.000Z</Time>
            <Position>
              <LatitudeDegrees>43.277235925197601318359375</LatitudeDegrees>
              <LongitudeDegrees>-2.00106899254024028778076171875</LongitudeDegrees>
            </Position>
            <AltitudeMeters>61.40000152587890625</AltitudeMeters>
            <DistanceMeters>NAN</DistanceMeters>
          </Trackpoint>
          <Trackpoint>
            <Time>2021-08-12T16:00:38.000Z</Time>
            <Position>
              <LatitudeDegrees>43.2772173173725605010986328125</LatitudeDegrees>
              <LongitudeDegrees>-2.00106941163539886474609375</LongitudeDegrees>
            </Position>
            <AltitudeMeters>61.799999237060546875</AltitudeMeters>
            <DistanceMeters>NAN</DistanceMeters>
          </Trackpoint>
          <Trackpoint>
            <Time>2021-08-12T16:00:39.000Z</Time>
            <Position>
              <LatitudeDegrees>43.2772173173725605010986328125</LatitudeDegrees>
              <LongitudeDegrees>-2.00106941163539886474609375</LongitudeDegrees>
            </Position>
            <AltitudeMeters>62</AltitudeMeters>
            <DistanceMeters>NAN</DistanceMeters>
          </Trackpoint>
          <Trackpoint>
            <Time>2021-08-12T16:00:40.000Z</Time>
            <Position>
              <LatitudeDegrees>43.277200721204280853271484375</LatitudeDegrees>
              <LongitudeDegrees>-2.00106664560735225677490234375</LongitudeDegrees>
            </Position>
            <AltitudeMeters>62.40000152587890625</AltitudeMeters>
            <DistanceMeters>NAN</DistanceMeters>
          </Trackpoint>
          <Trackpoint>
            <Time>2021-08-12T16:00:41.000Z</Time>
            <Position>
              <LatitudeDegrees>43.277185969054698944091796875</LatitudeDegrees>
              <LongitudeDegrees>-2.0010585151612758636474609375</LongitudeDegrees>
            </Position>
            <AltitudeMeters>62.59999847412109375</AltitudeMeters>
            <DistanceMeters>NAN</DistanceMeters>
          </Trackpoint>
          <Trackpoint>
            <Time>2021-08-12T16:00:42.000Z</Time>
            <Position>
              <LatitudeDegrees>43.2771640084683895111083984375</LatitudeDegrees>
              <LongitudeDegrees>-2.00102859176695346832275390625</LongitudeDegrees>
            </Position>
            <AltitudeMeters>62.799999237060546875</AltitudeMeters>
            <DistanceMeters>NAN</DistanceMeters>
          </Trackpoint>
          <Trackpoint>
            <Time>2021-08-12T16:00:43.000Z</Time>
            <Position>
              <LatitudeDegrees>43.27715478837490081787109375</LatitudeDegrees>
              <LongitudeDegrees>-2.001011073589324951171875</LongitudeDegrees>
            </Position>
            <AltitudeMeters>63.200000762939453125</AltitudeMeters>
            <DistanceMeters>NAN</DistanceMeters>
          </Trackpoint>
          <Trackpoint>
            <Time>2021-08-12T16:00:44.000Z</Time>
            <Position>
              <LatitudeDegrees>43.27715478837490081787109375</LatitudeDegrees>
              <LongitudeDegrees>-2.001011073589324951171875</LongitudeDegrees>
            </Position>
            <AltitudeMeters>63.40000152587890625</AltitudeMeters>
            <DistanceMeters>NAN</DistanceMeters>
          </Trackpoint>
          <Trackpoint>
            <Time>2021-08-12T16:00:45.000Z</Time>
            <Position>
              <LatitudeDegrees>43.27714397571980953216552734375</LatitudeDegrees>
              <LongitudeDegrees>-2.00099489651620388031005859375</LongitudeDegrees>
            </Position>
            <AltitudeMeters>63.59999847412109375</AltitudeMeters>
            <DistanceMeters>NAN</DistanceMeters>
          </Trackpoint>
          <Trackpoint>
            <Time>2021-08-12T16:00:46.000Z</Time>
            <Position>
              <LatitudeDegrees>43.277131654322147369384765625</LatitudeDegrees>
              <LongitudeDegrees>-2.00097846798598766326904296875</LongitudeDegrees>
            </Position>
            <AltitudeMeters>63.59999847412109375</AltitudeMeters>
            <DistanceMeters>NAN</DistanceMeters>
          </Trackpoint>
          <Trackpoint>
            <Time>2021-08-12T16:00:47.000Z</Time>
            <Position>
              <LatitudeDegrees>43.27711849473416805267333984375</LatitudeDegrees>
              <LongitudeDegrees>-2.00096346437931060791015625</LongitudeDegrees>
            </Position>
            <AltitudeMeters>64</AltitudeMeters>
            <DistanceMeters>NAN</DistanceMeters>
          </Trackpoint>
          <Trackpoint>
            <Time>2021-08-12T16:00:48.000Z</Time>
            <Position>
              <LatitudeDegrees>43.27709536068141460418701171875</LatitudeDegrees>
              <LongitudeDegrees>-2.000928260385990142822265625</LongitudeDegrees>
            </Position>
            <AltitudeMeters>64.1999969482421875</AltitudeMeters>
            <DistanceMeters>NAN</DistanceMeters>
          </Trackpoint>
          <Trackpoint>
            <Time>2021-08-12T16:00:49.000Z</Time>
            <Position>
              <LatitudeDegrees>43.27708312310278415679931640625</LatitudeDegrees>
              <LongitudeDegrees>-2.00090873055160045623779296875</LongitudeDegrees>
            </Position>
            <AltitudeMeters>64.40000152587890625</AltitudeMeters>
            <DistanceMeters>NAN</DistanceMeters>
          </Trackpoint>
          <Trackpoint>
            <Time>2021-08-12T16:00:50.000Z</Time>
            <Position>
              <LatitudeDegrees>43.277069963514804840087890625</LatitudeDegrees>
              <LongitudeDegrees>-2.00089565478265285491943359375</LongitudeDegrees>
            </Position>
            <AltitudeMeters>64.59999847412109375</AltitudeMeters>
            <DistanceMeters>NAN</DistanceMeters>
          </Trackpoint>
          <Trackpoint>
            <Time>2021-08-12T16:00:51.000Z</Time>
            <Position>
              <LatitudeDegrees>43.27706091105937957763671875</LatitudeDegrees>
              <LongitudeDegrees>-2.00088358484208583831787109375</LongitudeDegrees>
            </Position>
            <AltitudeMeters>64.8000030517578125</AltitudeMeters>
            <DistanceMeters>NAN</DistanceMeters>
          </Trackpoint>
          <Trackpoint>
            <Time>2021-08-12T16:00:52.000Z</Time>
            <Position>
              <LatitudeDegrees>43.27706091105937957763671875</LatitudeDegrees>
              <LongitudeDegrees>-2.00088358484208583831787109375</LongitudeDegrees>
            </Position>
            <AltitudeMeters>65.1999969482421875</AltitudeMeters>
            <DistanceMeters>NAN</DistanceMeters>
          </Trackpoint>
          <Trackpoint>
            <Time>2021-08-12T16:00:53.000Z</Time>
            <Position>
              <LatitudeDegrees>43.27705060131847858428955078125</LatitudeDegrees>
              <LongitudeDegrees>-2.0008694194257259368896484375</LongitudeDegrees>
            </Position>
            <AltitudeMeters>65.40000152587890625</AltitudeMeters>
            <DistanceMeters>NAN</DistanceMeters>
          </Trackpoint>
          <Trackpoint>
            <Time>2021-08-12T16:00:54.000Z</Time>
            <Position>
              <LatitudeDegrees>43.2770278863608837127685546875</LatitudeDegrees>
              <LongitudeDegrees>-2.000844776630401611328125</LongitudeDegrees>
            </Position>
            <AltitudeMeters>65.8000030517578125</AltitudeMeters>
            <DistanceMeters>NAN</DistanceMeters>
          </Trackpoint>
          <Trackpoint>
            <Time>2021-08-12T16:00:55.000Z</Time>
            <Position>
              <LatitudeDegrees>43.2770278863608837127685546875</LatitudeDegrees>
              <LongitudeDegrees>-2.000844776630401611328125</LongitudeDegrees>
            </Position>
            <AltitudeMeters>66</AltitudeMeters>
            <DistanceMeters>NAN</DistanceMeters>
          </Trackpoint>
          <Trackpoint>
            <Time>2021-08-12T16:00:56.000Z</Time>
            <Position>
              <LatitudeDegrees>43.277014978229999542236328125</LatitudeDegrees>
              <LongitudeDegrees>-2.00083413161337375640869140625</LongitudeDegrees>
            </Position>
            <AltitudeMeters>66</AltitudeMeters>
            <DistanceMeters>NAN</DistanceMeters>
          </Trackpoint>
          <Trackpoint>
            <Time>2021-08-12T16:00:57.000Z</Time>
            <Position>
              <LatitudeDegrees>43.27700282447040081024169921875</LatitudeDegrees>
              <LongitudeDegrees>-2.0008214749395847320556640625</LongitudeDegrees>
            </Position>
            <AltitudeMeters>66.1999969482421875</AltitudeMeters>
            <DistanceMeters>NAN</DistanceMeters>
          </Trackpoint>
          <Trackpoint>
            <Time>2021-08-12T16:00:58.000Z</Time>
            <Position>
              <LatitudeDegrees>43.27699142508208751678466796875</LatitudeDegrees>
              <LongitudeDegrees>-2.0008104108273983001708984375</LongitudeDegrees>
            </Position>
            <AltitudeMeters>66.40000152587890625</AltitudeMeters>
            <DistanceMeters>NAN</DistanceMeters>
          </Trackpoint>
          <Trackpoint>
            <Time>2021-08-12T16:00:59.000Z</Time>
            <Position>
              <LatitudeDegrees>43.2769638486206531524658203125</LatitudeDegrees>
              <LongitudeDegrees>-2.0007866062223911285400390625</LongitudeDegrees>
            </Position>
            <AltitudeMeters>66.8000030517578125</AltitudeMeters>
            <DistanceMeters>NAN</DistanceMeters>
          </Trackpoint>
          <Trackpoint>
            <Time>2021-08-12T16:01:00.000Z</Time>
            <Position>
              <LatitudeDegrees>43.2769638486206531524658203125</LatitudeDegrees>
              <LongitudeDegrees>-2.0007866062223911285400390625</LongitudeDegrees>
            </Position>
            <AltitudeMeters>66.8000030517578125</AltitudeMeters>
            <DistanceMeters>NAN</DistanceMeters>
          </Trackpoint>
          <Trackpoint>
            <Time>2021-08-12T16:01:01.000Z</Time>
            <Position>
              <LatitudeDegrees>43.2769514434039592742919921875</LatitudeDegrees>
              <LongitudeDegrees>-2.00077562592923641204833984375</LongitudeDegrees>
            </Position>
            <AltitudeMeters>67.1999969482421875</AltitudeMeters>
            <DistanceMeters>NAN</DistanceMeters>
          </Trackpoint>
          <Trackpoint>
            <Time>2021-08-12T16:01:02.000Z</Time>
            <Position>
              <LatitudeDegrees>43.27693811617791652679443359375</LatitudeDegrees>
              <LongitudeDegrees>-2.000765986740589141845703125</LongitudeDegrees>
            </Position>
            <AltitudeMeters>67.40000152587890625</AltitudeMeters>
            <DistanceMeters>NAN</DistanceMeters>
          </Trackpoint>
          <Trackpoint>
            <Time>2021-08-12T16:01:03.000Z</Time>
            <Position>
              <LatitudeDegrees>43.27691263519227504730224609375</LatitudeDegrees>
              <LongitudeDegrees>-2.00075584463775157928466796875</LongitudeDegrees>
            </Position>
            <AltitudeMeters>67.8000030517578125</AltitudeMeters>
            <DistanceMeters>NAN</DistanceMeters>
          </Trackpoint>
          <Trackpoint>
            <Time>2021-08-12T16:01:04.000Z</Time>
            <Position>
              <LatitudeDegrees>43.27689872123301029205322265625</LatitudeDegrees>
              <LongitudeDegrees>-2.00075048021972179412841796875</LongitudeDegrees>
            </Position>
            <AltitudeMeters>68</AltitudeMeters>
            <DistanceMeters>NAN</DistanceMeters>
          </Trackpoint>
          <Trackpoint>
            <Time>2021-08-12T16:01:05.000Z</Time>
            <Position>
              <LatitudeDegrees>43.27689872123301029205322265625</LatitudeDegrees>
              <LongitudeDegrees>-2.00075048021972179412841796875</LongitudeDegrees>
            </Position>
            <AltitudeMeters>68.1999969482421875</AltitudeMeters>
            <DistanceMeters>NAN</DistanceMeters>
          </Trackpoint>
          <Trackpoint>
            <Time>2021-08-12T16:01:06.000Z</Time>
            <Position>
              <LatitudeDegrees>43.27688430435955524444580078125</LatitudeDegrees>
              <LongitudeDegrees>-2.00074461288750171661376953125</LongitudeDegrees>
            </Position>
            <AltitudeMeters>68.40000152587890625</AltitudeMeters>
            <DistanceMeters>NAN</DistanceMeters>
          </Trackpoint>
          <Trackpoint>
            <Time>2021-08-12T16:01:07.000Z</Time>
            <Position>
              <LatitudeDegrees>43.27686787582933902740478515625</LatitudeDegrees>
              <LongitudeDegrees>-2.00074352324008941650390625</LongitudeDegrees>
            </Position>
            <AltitudeMeters>68.59999847412109375</AltitudeMeters>
            <DistanceMeters>NAN</DistanceMeters>
          </Trackpoint>
          <Trackpoint>
            <Time>2021-08-12T16:01:08.000Z</Time>
            <Position>
              <LatitudeDegrees>43.27683736570179462432861328125</LatitudeDegrees>
              <LongitudeDegrees>-2.00074620544910430908203125</LongitudeDegrees>
            </Position>
            <AltitudeMeters>69</AltitudeMeters>
            <DistanceMeters>NAN</DistanceMeters>
          </Trackpoint>
          <Trackpoint>
            <Time>2021-08-12T16:01:09.000Z</Time>
            <Position>
              <LatitudeDegrees>43.27683736570179462432861328125</LatitudeDegrees>
              <LongitudeDegrees>-2.00074620544910430908203125</LongitudeDegrees>
            </Position>
            <AltitudeMeters>69.40000152587890625</AltitudeMeters>
            <DistanceMeters>NAN</DistanceMeters>
          </Trackpoint>
          <Trackpoint>
            <Time>2021-08-12T16:01:10.000Z</Time>
            <Position>
              <LatitudeDegrees>43.276807107031345367431640625</LatitudeDegrees>
              <LongitudeDegrees>-2.0007468760013580322265625</LongitudeDegrees>
            </Position>
            <AltitudeMeters>69.59999847412109375</AltitudeMeters>
            <DistanceMeters>NAN</DistanceMeters>
          </Trackpoint>
          <Trackpoint>
            <Time>2021-08-12T16:01:11.000Z</Time>
            <Position>
              <LatitudeDegrees>43.276807107031345367431640625</LatitudeDegrees>
              <LongitudeDegrees>-2.0007468760013580322265625</LongitudeDegrees>
            </Position>
            <AltitudeMeters>69.8000030517578125</AltitudeMeters>
            <DistanceMeters>NAN</DistanceMeters>
          </Trackpoint>
          <Trackpoint>
            <Time>2021-08-12T16:01:12.000Z</Time>
            <Position>
              <LatitudeDegrees>43.27679269015789031982421875</LatitudeDegrees>
              <LongitudeDegrees>-2.00074947439134120941162109375</LongitudeDegrees>
            </Position>
            <AltitudeMeters>70</AltitudeMeters>
            <DistanceMeters>NAN</DistanceMeters>
          </Trackpoint>
          <Trackpoint>
            <Time>2021-08-12T16:01:13.000Z</Time>
            <Position>
              <LatitudeDegrees>43.27676645480096340179443359375</LatitudeDegrees>
              <LongitudeDegrees>-2.00075148604810237884521484375</LongitudeDegrees>
            </Position>
            <AltitudeMeters>70.40000152587890625</AltitudeMeters>
            <DistanceMeters>NAN</DistanceMeters>
          </Trackpoint>
          <Trackpoint>
            <Time>2021-08-12T16:01:14.000Z</Time>
            <Position>
              <LatitudeDegrees>43.27676645480096340179443359375</LatitudeDegrees>
              <LongitudeDegrees>-2.00075148604810237884521484375</LongitudeDegrees>
            </Position>
            <AltitudeMeters>70.59999847412109375</AltitudeMeters>
            <DistanceMeters>NAN</DistanceMeters>
          </Trackpoint>
          <Trackpoint>
            <Time>2021-08-12T16:01:15.000Z</Time>
            <Position>
              <LatitudeDegrees>43.27674114145338535308837890625</LatitudeDegrees>
              <LongitudeDegrees>-2.0007685013115406036376953125</LongitudeDegrees>
            </Position>
            <AltitudeMeters>71.1999969482421875</AltitudeMeters>
            <DistanceMeters>NAN</DistanceMeters>
          </Trackpoint>
          <Trackpoint>
            <Time>2021-08-12T16:01:16.000Z</Time>
            <Position>
              <LatitudeDegrees>43.27674114145338535308837890625</LatitudeDegrees>
              <LongitudeDegrees>-2.0007685013115406036376953125</LongitudeDegrees>
            </Position>
            <AltitudeMeters>71.40000152587890625</AltitudeMeters>
            <DistanceMeters>NAN</DistanceMeters>
          </Trackpoint>
          <Trackpoint>
            <Time>2021-08-12T16:01:17.000Z</Time>
            <Position>
              <LatitudeDegrees>43.27673108316957950592041015625</LatitudeDegrees>
              <LongitudeDegrees>-2.00078400783240795135498046875</LongitudeDegrees>
            </Position>
            <AltitudeMeters>71.40000152587890625</AltitudeMeters>
            <DistanceMeters>NAN</DistanceMeters>
          </Trackpoint>
          <Trackpoint>
            <Time>2021-08-12T16:01:18.000Z</Time>
            <Position>
              <LatitudeDegrees>43.2767201028764247894287109375</LatitudeDegrees>
              <LongitudeDegrees>-2.00079943053424358367919921875</LongitudeDegrees>
            </Position>
            <AltitudeMeters>71.8000030517578125</AltitudeMeters>
            <DistanceMeters>NAN</DistanceMeters>
          </Trackpoint>
          <Trackpoint>
            <Time>2021-08-12T16:01:19.000Z</Time>
            <Position>
              <LatitudeDegrees>43.2767113856971263885498046875</LatitudeDegrees>
              <LongitudeDegrees>-2.000814266502857208251953125</LongitudeDegrees>
            </Position>
            <AltitudeMeters>72</AltitudeMeters>
            <DistanceMeters>NAN</DistanceMeters>
          </Trackpoint>
          <Trackpoint>
            <Time>2021-08-12T16:01:20.000Z</Time>
            <Position>
              <LatitudeDegrees>43.276695124804973602294921875</LatitudeDegrees>
              <LongitudeDegrees>-2.00085022486746311187744140625</LongitudeDegrees>
            </Position>
            <AltitudeMeters>72.1999969482421875</AltitudeMeters>
            <DistanceMeters>NAN</DistanceMeters>
          </Trackpoint>
          <Trackpoint>
            <Time>2021-08-12T16:01:21.000Z</Time>
            <Position>
              <LatitudeDegrees>43.276695124804973602294921875</LatitudeDegrees>
              <LongitudeDegrees>-2.00085022486746311187744140625</LongitudeDegrees>
            </Position>
            <AltitudeMeters>72.40000152587890625</AltitudeMeters>
            <DistanceMeters>NAN</DistanceMeters>
          </Trackpoint>
          <Trackpoint>
            <Time>2021-08-12T16:01:22.000Z</Time>
            <Position>
              <LatitudeDegrees>43.27669051475822925567626953125</LatitudeDegrees>
              <LongitudeDegrees>-2.00086900033056735992431640625</LongitudeDegrees>
            </Position>
            <AltitudeMeters>72.8000030517578125</AltitudeMeters>
            <DistanceMeters>NAN</DistanceMeters>
          </Trackpoint>
          <Trackpoint>
            <Time>2021-08-12T16:01:23.000Z</Time>
            <Position>
              <LatitudeDegrees>43.27668297104537487030029296875</LatitudeDegrees>
              <LongitudeDegrees>-2.00088794343173503875732421875</LongitudeDegrees>
            </Position>
            <AltitudeMeters>73.1999969482421875</AltitudeMeters>
            <DistanceMeters>NAN</DistanceMeters>
          </Trackpoint>
          <Trackpoint>
            <Time>2021-08-12T16:01:24.000Z</Time>
            <Position>
              <LatitudeDegrees>43.2766667939722537994384765625</LatitudeDegrees>
              <LongitudeDegrees>-2.0009237341582775115966796875</LongitudeDegrees>
            </Position>
            <AltitudeMeters>73.1999969482421875</AltitudeMeters>
            <DistanceMeters>NAN</DistanceMeters>
          </Trackpoint>
          <Trackpoint>
            <Time>2021-08-12T16:01:25.000Z</Time>
            <Position>
              <LatitudeDegrees>43.27666117809712886810302734375</LatitudeDegrees>
              <LongitudeDegrees>-2.00093957595527172088623046875</LongitudeDegrees>
            </Position>
            <AltitudeMeters>73.59999847412109375</AltitudeMeters>
            <DistanceMeters>NAN</DistanceMeters>
          </Trackpoint>
          <Trackpoint>
            <Time>2021-08-12T16:01:26.000Z</Time>
            <Position>
              <LatitudeDegrees>43.27666117809712886810302734375</LatitudeDegrees>
              <LongitudeDegrees>-2.00093957595527172088623046875</LongitudeDegrees>
            </Position>
            <AltitudeMeters>74</AltitudeMeters>
            <DistanceMeters>NAN</DistanceMeters>
          </Trackpoint>
          <Trackpoint>
            <Time>2021-08-12T16:01:27.000Z</Time>
            <Position>
              <LatitudeDegrees>43.276655562222003936767578125</LatitudeDegrees>
              <LongitudeDegrees>-2.0009579323232173919677734375</LongitudeDegrees>
            </Position>
            <AltitudeMeters>74.1999969482421875</AltitudeMeters>
            <DistanceMeters>NAN</DistanceMeters>
          </Trackpoint>
          <Trackpoint>
            <Time>2021-08-12T16:01:28.000Z</Time>
            <Position>
              <LatitudeDegrees>43.2766498625278472900390625</LatitudeDegrees>
              <LongitudeDegrees>-2.0009753666818141937255859375</LongitudeDegrees>
            </Position>
            <AltitudeMeters>74.40000152587890625</AltitudeMeters>
            <DistanceMeters>NAN</DistanceMeters>
          </Trackpoint>
          <Trackpoint>
            <Time>2021-08-12T16:01:29.000Z</Time>
            <Position>
              <LatitudeDegrees>43.27663519419729709625244140625</LatitudeDegrees>
              <LongitudeDegrees>-2.001012749969959259033203125</LongitudeDegrees>
            </Position>
            <AltitudeMeters>74.59999847412109375</AltitudeMeters>
            <DistanceMeters>NAN</DistanceMeters>
          </Trackpoint>
          <Trackpoint>
            <Time>2021-08-12T16:01:30.000Z</Time>
            <Position>
              <LatitudeDegrees>43.27663519419729709625244140625</LatitudeDegrees>
              <LongitudeDegrees>-2.001012749969959259033203125</LongitudeDegrees>
            </Position>
            <AltitudeMeters>75.1999969482421875</AltitudeMeters>
            <DistanceMeters>NAN</DistanceMeters>
          </Trackpoint>
          <Trackpoint>
            <Time>2021-08-12T16:01:31.000Z</Time>
            <Position>
              <LatitudeDegrees>43.2766235433518886566162109375</LatitudeDegrees>
              <LongitudeDegrees>-2.0010534860193729400634765625</LongitudeDegrees>
            </Position>
            <AltitudeMeters>75.40000152587890625</AltitudeMeters>
            <DistanceMeters>NAN</DistanceMeters>
          </Trackpoint>
          <Trackpoint>
            <Time>2021-08-12T16:01:32.000Z</Time>
            <Position>
              <LatitudeDegrees>43.2766235433518886566162109375</LatitudeDegrees>
              <LongitudeDegrees>-2.0010534860193729400634765625</LongitudeDegrees>
            </Position>
            <AltitudeMeters>75.59999847412109375</AltitudeMeters>
            <DistanceMeters>NAN</DistanceMeters>
          </Trackpoint>
          <Trackpoint>
            <Time>2021-08-12T16:01:33.000Z</Time>
            <Position>
              <LatitudeDegrees>43.276611305773258209228515625</LatitudeDegrees>
              <LongitudeDegrees>-2.0010955631732940673828125</LongitudeDegrees>
            </Position>
            <AltitudeMeters>75.8000030517578125</AltitudeMeters>
            <DistanceMeters>NAN</DistanceMeters>
          </Trackpoint>
          <Trackpoint>
            <Time>2021-08-12T16:01:34.000Z</Time>
            <Position>
              <LatitudeDegrees>43.276608623564243316650390625</LatitudeDegrees>
              <LongitudeDegrees>-2.0011148415505886077880859375</LongitudeDegrees>
            </Position>
            <AltitudeMeters>76.1999969482421875</AltitudeMeters>
            <DistanceMeters>NAN</DistanceMeters>
          </Trackpoint>
          <Trackpoint>
            <Time>2021-08-12T16:01:35.000Z</Time>
            <Position>
              <LatitudeDegrees>43.276606611907482147216796875</LatitudeDegrees>
              <LongitudeDegrees>-2.00113286264240741729736328125</LongitudeDegrees>
            </Position>
            <AltitudeMeters>76.1999969482421875</AltitudeMeters>
            <DistanceMeters>NAN</DistanceMeters>
          </Trackpoint>
          <Trackpoint>
            <Time>2021-08-12T16:01:36.000Z</Time>
            <Position>
              <LatitudeDegrees>43.27660418115556240081787109375</LatitudeDegrees>
              <LongitudeDegrees>-2.00114929117262363433837890625</LongitudeDegrees>
            </Position>
            <AltitudeMeters>76.59999847412109375</AltitudeMeters>
            <DistanceMeters>NAN</DistanceMeters>
          </Trackpoint>
          <Trackpoint>
            <Time>2021-08-12T16:01:37.000Z</Time>
            <Position>
              <LatitudeDegrees>43.27660418115556240081787109375</LatitudeDegrees>
              <LongitudeDegrees>-2.00114929117262363433837890625</LongitudeDegrees>
            </Position>
            <AltitudeMeters>76.8000030517578125</AltitudeMeters>
            <DistanceMeters>NAN</DistanceMeters>
          </Trackpoint>
          <Trackpoint>
            <Time>2021-08-12T16:01:38.000Z</Time>
            <Position>
              <LatitudeDegrees>43.2766014151275157928466796875</LatitudeDegrees>
              <LongitudeDegrees>-2.0011875964701175689697265625</LongitudeDegrees>
            </Position>
            <AltitudeMeters>77</AltitudeMeters>
            <DistanceMeters>NAN</DistanceMeters>
          </Trackpoint>
          <Trackpoint>
            <Time>2021-08-12T16:01:39.000Z</Time>
            <Position>
              <LatitudeDegrees>43.276595883071422576904296875</LatitudeDegrees>
              <LongitudeDegrees>-2.001206539571285247802734375</LongitudeDegrees>
            </Position>
            <AltitudeMeters>77.40000152587890625</AltitudeMeters>
            <DistanceMeters>NAN</DistanceMeters>
          </Trackpoint>
          <Trackpoint>
            <Time>2021-08-12T16:01:40.000Z</Time>
            <Position>
              <LatitudeDegrees>43.27659093774855136871337890625</LatitudeDegrees>
              <LongitudeDegrees>-2.0012261532247066497802734375</LongitudeDegrees>
            </Position>
            <AltitudeMeters>77.59999847412109375</AltitudeMeters>
            <DistanceMeters>NAN</DistanceMeters>
          </Trackpoint>
          <Trackpoint>
            <Time>2021-08-12T16:01:41.000Z</Time>
            <Position>
              <LatitudeDegrees>43.27659093774855136871337890625</LatitudeDegrees>
              <LongitudeDegrees>-2.0012261532247066497802734375</LongitudeDegrees>
            </Position>
            <AltitudeMeters>78</AltitudeMeters>
            <DistanceMeters>NAN</DistanceMeters>
          </Trackpoint>
          <Trackpoint>
            <Time>2021-08-12T16:01:42.000Z</Time>
            <Position>
              <LatitudeDegrees>43.27658481895923614501953125</LatitudeDegrees>
              <LongitudeDegrees>-2.00124685652554035186767578125</LongitudeDegrees>
            </Position>
            <AltitudeMeters>78.1999969482421875</AltitudeMeters>
            <DistanceMeters>NAN</DistanceMeters>
          </Trackpoint>
          <Trackpoint>
            <Time>2021-08-12T16:01:43.000Z</Time>
            <Position>
              <LatitudeDegrees>43.2765776105225086212158203125</LatitudeDegrees>
              <LongitudeDegrees>-2.00126613490283489227294921875</LongitudeDegrees>
            </Position>
            <AltitudeMeters>78.40000152587890625</AltitudeMeters>
            <DistanceMeters>NAN</DistanceMeters>
          </Trackpoint>
          <Trackpoint>
            <Time>2021-08-12T16:01:44.000Z</Time>
            <Position>
              <LatitudeDegrees>43.27657115645706653594970703125</LatitudeDegrees>
              <LongitudeDegrees>-2.00128507800400257110595703125</LongitudeDegrees>
            </Position>
            <AltitudeMeters>78.8000030517578125</AltitudeMeters>
            <DistanceMeters>NAN</DistanceMeters>
          </Trackpoint>
          <Trackpoint>
            <Time>2021-08-12T16:01:45.000Z</Time>
            <Position>
              <LatitudeDegrees>43.27656294219195842742919921875</LatitudeDegrees>
              <LongitudeDegrees>-2.00130066834390163421630859375</LongitudeDegrees>
            </Position>
            <AltitudeMeters>79</AltitudeMeters>
            <DistanceMeters>NAN</DistanceMeters>
          </Trackpoint>
          <Trackpoint>
            <Time>2021-08-12T16:01:46.000Z</Time>
            <Position>
              <LatitudeDegrees>43.27654064632952213287353515625</LatitudeDegrees>
              <LongitudeDegrees>-2.0013354532420635223388671875</LongitudeDegrees>
            </Position>
            <AltitudeMeters>79.1999969482421875</AltitudeMeters>
            <DistanceMeters>NAN</DistanceMeters>
          </Trackpoint>
          <Trackpoint>
            <Time>2021-08-12T16:01:47.000Z</Time>
            <Position>
              <LatitudeDegrees>43.27654064632952213287353515625</LatitudeDegrees>
              <LongitudeDegrees>-2.0013354532420635223388671875</LongitudeDegrees>
            </Position>
            <AltitudeMeters>79.40000152587890625</AltitudeMeters>
            <DistanceMeters>NAN</DistanceMeters>
          </Trackpoint>
          <Trackpoint>
            <Time>2021-08-12T16:01:48.000Z</Time>
            <Position>
              <LatitudeDegrees>43.27653075568377971649169921875</LatitudeDegrees>
              <LongitudeDegrees>-2.0013512112200260162353515625</LongitudeDegrees>
            </Position>
            <AltitudeMeters>79.8000030517578125</AltitudeMeters>
            <DistanceMeters>NAN</DistanceMeters>
          </Trackpoint>
          <Trackpoint>
            <Time>2021-08-12T16:01:49.000Z</Time>
            <Position>
              <LatitudeDegrees>43.276522792875766754150390625</LatitudeDegrees>
              <LongitudeDegrees>-2.00136822648346424102783203125</LongitudeDegrees>
            </Position>
            <AltitudeMeters>80</AltitudeMeters>
            <DistanceMeters>NAN</DistanceMeters>
          </Trackpoint>
          <Trackpoint>
            <Time>2021-08-12T16:01:50.000Z</Time>
            <Position>
              <LatitudeDegrees>43.2764991559088230133056640625</LatitudeDegrees>
              <LongitudeDegrees>-2.00138993561267852783203125</LongitudeDegrees>
            </Position>
            <AltitudeMeters>80.40000152587890625</AltitudeMeters>
            <DistanceMeters>NAN</DistanceMeters>
          </Trackpoint>
          <Trackpoint>
            <Time>2021-08-12T16:01:51.000Z</Time>
            <Position>
              <LatitudeDegrees>43.2764991559088230133056640625</LatitudeDegrees>
              <LongitudeDegrees>-2.00138993561267852783203125</LongitudeDegrees>
            </Position>
            <AltitudeMeters>80.59999847412109375</AltitudeMeters>
            <DistanceMeters>NAN</DistanceMeters>
          </Trackpoint>
          <Trackpoint>
            <Time>2021-08-12T16:01:52.000Z</Time>
            <Position>
              <LatitudeDegrees>43.27648557722568511962890625</LatitudeDegrees>
              <LongitudeDegrees>-2.00140200555324554443359375</LongitudeDegrees>
            </Position>
            <AltitudeMeters>80.8000030517578125</AltitudeMeters>
            <DistanceMeters>NAN</DistanceMeters>
          </Trackpoint>
          <Trackpoint>
            <Time>2021-08-12T16:01:53.000Z</Time>
            <Position>
              <LatitudeDegrees>43.2764719985425472259521484375</LatitudeDegrees>
              <LongitudeDegrees>-2.00141181237995624542236328125</LongitudeDegrees>
            </Position>
            <AltitudeMeters>81.1999969482421875</AltitudeMeters>
            <DistanceMeters>NAN</DistanceMeters>
          </Trackpoint>
          <Trackpoint>
            <Time>2021-08-12T16:01:54.000Z</Time>
            <Position>
              <LatitudeDegrees>43.27645733021199703216552734375</LatitudeDegrees>
              <LongitudeDegrees>-2.00142337940633296966552734375</LongitudeDegrees>
            </Position>
            <AltitudeMeters>81.40000152587890625</AltitudeMeters>
            <DistanceMeters>NAN</DistanceMeters>
          </Trackpoint>
          <Trackpoint>
            <Time>2021-08-12T16:01:55.000Z</Time>
            <Position>
              <LatitudeDegrees>43.2764438353478908538818359375</LatitudeDegrees>
              <LongitudeDegrees>-2.00143192894756793975830078125</LongitudeDegrees>
            </Position>
            <AltitudeMeters>81.8000030517578125</AltitudeMeters>
            <DistanceMeters>NAN</DistanceMeters>
          </Trackpoint>
          <Trackpoint>
            <Time>2021-08-12T16:01:56.000Z</Time>
            <Position>
              <LatitudeDegrees>43.27642933465540409088134765625</LatitudeDegrees>
              <LongitudeDegrees>-2.00143955647945404052734375</LongitudeDegrees>
            </Position>
            <AltitudeMeters>81.8000030517578125</AltitudeMeters>
            <DistanceMeters>NAN</DistanceMeters>
          </Trackpoint>
          <Trackpoint>
            <Time>2021-08-12T16:01:57.000Z</Time>
            <Position>
              <LatitudeDegrees>43.27639748342335224151611328125</LatitudeDegrees>
              <LongitudeDegrees>-2.00144416652619838714599609375</LongitudeDegrees>
            </Position>
            <AltitudeMeters>82</AltitudeMeters>
            <DistanceMeters>NAN</DistanceMeters>
          </Trackpoint>
          <Trackpoint>
            <Time>2021-08-12T16:01:58.000Z</Time>
            <Position>
              <LatitudeDegrees>43.27639748342335224151611328125</LatitudeDegrees>
              <LongitudeDegrees>-2.00144416652619838714599609375</LongitudeDegrees>
            </Position>
            <AltitudeMeters>82.40000152587890625</AltitudeMeters>
            <DistanceMeters>NAN</DistanceMeters>
          </Trackpoint>
          <Trackpoint>
            <Time>2021-08-12T16:01:59.000Z</Time>
            <Position>
              <LatitudeDegrees>43.2763663865625858306884765625</LatitudeDegrees>
              <LongitudeDegrees>-2.00144014321267604827880859375</LongitudeDegrees>
            </Position>
            <AltitudeMeters>82.40000152587890625</AltitudeMeters>
            <DistanceMeters>NAN</DistanceMeters>
          </Trackpoint>
          <Trackpoint>
            <Time>2021-08-12T16:02:00.000Z</Time>
            <Position>
              <LatitudeDegrees>43.2763663865625858306884765625</LatitudeDegrees>
              <LongitudeDegrees>-2.00144014321267604827880859375</LongitudeDegrees>
            </Position>
            <AltitudeMeters>82.59999847412109375</AltitudeMeters>
            <DistanceMeters>NAN</DistanceMeters>
          </Trackpoint>
          <Trackpoint>
            <Time>2021-08-12T16:02:01.000Z</Time>
            <Position>
              <LatitudeDegrees>43.27633461914956569671630859375</LatitudeDegrees>
              <LongitudeDegrees>-2.00143176130950450897216796875</LongitudeDegrees>
            </Position>
            <AltitudeMeters>82.59999847412109375</AltitudeMeters>
            <DistanceMeters>NAN</DistanceMeters>
          </Trackpoint>
          <Trackpoint>
            <Time>2021-08-12T16:02:02.000Z</Time>
            <Position>
              <LatitudeDegrees>43.276321627199649810791015625</LatitudeDegrees>
              <LongitudeDegrees>-2.001427821815013885498046875</LongitudeDegrees>
            </Position>
            <AltitudeMeters>82.8000030517578125</AltitudeMeters>
            <DistanceMeters>NAN</DistanceMeters>
          </Trackpoint>
          <Trackpoint>
            <Time>2021-08-12T16:02:03.000Z</Time>
            <Position>
              <LatitudeDegrees>43.276321627199649810791015625</LatitudeDegrees>
              <LongitudeDegrees>-2.001427821815013885498046875</LongitudeDegrees>
            </Position>
            <AltitudeMeters>83</AltitudeMeters>
            <DistanceMeters>NAN</DistanceMeters>
          </Trackpoint>
          <Trackpoint>
            <Time>2021-08-12T16:02:04.000Z</Time>
            <Position>
              <LatitudeDegrees>43.27630762942135334014892578125</LatitudeDegrees>
              <LongitudeDegrees>-2.001424469053745269775390625</LongitudeDegrees>
            </Position>
            <AltitudeMeters>83.1999969482421875</AltitudeMeters>
            <DistanceMeters>NAN</DistanceMeters>
          </Trackpoint>
          <Trackpoint>
            <Time>2021-08-12T16:02:05.000Z</Time>
            <Position>
              <LatitudeDegrees>43.2762943021953105926513671875</LatitudeDegrees>
              <LongitudeDegrees>-2.0014222897589206695556640625</LongitudeDegrees>
            </Position>
            <AltitudeMeters>83.40000152587890625</AltitudeMeters>
            <DistanceMeters>NAN</DistanceMeters>
          </Trackpoint>
          <Trackpoint>
            <Time>2021-08-12T16:02:06.000Z</Time>
            <Position>
              <LatitudeDegrees>43.27626823447644710540771484375</LatitudeDegrees>
              <LongitudeDegrees>-2.00141767971217632293701171875</LongitudeDegrees>
            </Position>
            <AltitudeMeters>83.8000030517578125</AltitudeMeters>
            <DistanceMeters>NAN</DistanceMeters>
          </Trackpoint>
          <Trackpoint>
            <Time>2021-08-12T16:02:07.000Z</Time>
            <Position>
              <LatitudeDegrees>43.27625515870749950408935546875</LatitudeDegrees>
              <LongitudeDegrees>-2.0014172606170177459716796875</LongitudeDegrees>
            </Position>
            <AltitudeMeters>84</AltitudeMeters>
            <DistanceMeters>NAN</DistanceMeters>
          </Trackpoint>
          <Trackpoint>
            <Time>2021-08-12T16:02:08.000Z</Time>
            <Position>
              <LatitudeDegrees>43.27625515870749950408935546875</LatitudeDegrees>
              <LongitudeDegrees>-2.0014172606170177459716796875</LongitudeDegrees>
            </Position>
            <AltitudeMeters>84</AltitudeMeters>
            <DistanceMeters>NAN</DistanceMeters>
          </Trackpoint>
          <Trackpoint>
            <Time>2021-08-12T16:02:09.000Z</Time>
            <Position>
              <LatitudeDegrees>43.2762419991195201873779296875</LatitudeDegrees>
              <LongitudeDegrees>-2.00141835026443004608154296875</LongitudeDegrees>
            </Position>
            <AltitudeMeters>84.1999969482421875</AltitudeMeters>
            <DistanceMeters>NAN</DistanceMeters>
          </Trackpoint>
          <Trackpoint>
            <Time>2021-08-12T16:02:10.000Z</Time>
            <Position>
              <LatitudeDegrees>43.2762282527983188629150390625</LatitudeDegrees>
              <LongitudeDegrees>-2.0014201104640960693359375</LongitudeDegrees>
            </Position>
            <AltitudeMeters>84.1999969482421875</AltitudeMeters>
            <DistanceMeters>NAN</DistanceMeters>
          </Trackpoint>
          <Trackpoint>
            <Time>2021-08-12T16:02:11.000Z</Time>
            <Position>
              <LatitudeDegrees>43.2762165181338787078857421875</LatitudeDegrees>
              <LongitudeDegrees>-2.00142472051084041595458984375</LongitudeDegrees>
            </Position>
            <AltitudeMeters>84.40000152587890625</AltitudeMeters>
            <DistanceMeters>NAN</DistanceMeters>
          </Trackpoint>
          <Trackpoint>
            <Time>2021-08-12T16:02:12.000Z</Time>
            <Position>
              <LatitudeDegrees>43.27620620839297771453857421875</LatitudeDegrees>
              <LongitudeDegrees>-2.00142689980566501617431640625</LongitudeDegrees>
            </Position>
            <AltitudeMeters>84.40000152587890625</AltitudeMeters>
            <DistanceMeters>NAN</DistanceMeters>
          </Trackpoint>
          <Trackpoint>
            <Time>2021-08-12T16:02:13.000Z</Time>
            <Position>
              <LatitudeDegrees>43.276181481778621673583984375</LatitudeDegrees>
              <LongitudeDegrees>-2.00142002664506435394287109375</LongitudeDegrees>
            </Position>
            <AltitudeMeters>84.40000152587890625</AltitudeMeters>
            <DistanceMeters>NAN</DistanceMeters>
          </Trackpoint>
          <Trackpoint>
            <Time>2021-08-12T16:02:14.000Z</Time>
            <Position>
              <LatitudeDegrees>43.276181481778621673583984375</LatitudeDegrees>
              <LongitudeDegrees>-2.00142002664506435394287109375</LongitudeDegrees>
            </Position>
            <AltitudeMeters>84.59999847412109375</AltitudeMeters>
            <DistanceMeters>NAN</DistanceMeters>
          </Trackpoint>
          <Trackpoint>
            <Time>2021-08-12T16:02:15.000Z</Time>
            <Position>
              <LatitudeDegrees>43.27615968883037567138671875</LatitudeDegrees>
              <LongitudeDegrees>-2.0014169253408908843994140625</LongitudeDegrees>
            </Position>
            <AltitudeMeters>84.59999847412109375</AltitudeMeters>
            <DistanceMeters>NAN</DistanceMeters>
          </Trackpoint>
          <Trackpoint>
            <Time>2021-08-12T16:02:16.000Z</Time>
            <Position>
              <LatitudeDegrees>43.27615968883037567138671875</LatitudeDegrees>
              <LongitudeDegrees>-2.0014169253408908843994140625</LongitudeDegrees>
            </Position>
            <AltitudeMeters>84.59999847412109375</AltitudeMeters>
            <DistanceMeters>NAN</DistanceMeters>
          </Trackpoint>
          <Trackpoint>
            <Time>2021-08-12T16:02:17.000Z</Time>
            <Position>
              <LatitudeDegrees>43.27614284120500087738037109375</LatitudeDegrees>
              <LongitudeDegrees>-2.00141365639865398406982421875</LongitudeDegrees>
            </Position>
            <AltitudeMeters>84.59999847412109375</AltitudeMeters>
            <DistanceMeters>NAN</DistanceMeters>
          </Trackpoint>
          <Trackpoint>
            <Time>2021-08-12T16:02:18.000Z</Time>
            <Position>
              <LatitudeDegrees>43.27614150010049343109130859375</LatitudeDegrees>
              <LongitudeDegrees>-2.001414410769939422607421875</LongitudeDegrees>
            </Position>
            <AltitudeMeters>84.59999847412109375</AltitudeMeters>
            <DistanceMeters>NAN</DistanceMeters>
          </Trackpoint>
          <Trackpoint>
            <Time>2021-08-12T16:02:19.000Z</Time>
            <Position>
              <LatitudeDegrees>43.27614150010049343109130859375</LatitudeDegrees>
              <LongitudeDegrees>-2.001414410769939422607421875</LongitudeDegrees>
            </Position>
            <AltitudeMeters>84.59999847412109375</AltitudeMeters>
            <DistanceMeters>NAN</DistanceMeters>
          </Trackpoint>
          <Trackpoint>
            <Time>2021-08-12T16:02:23.000Z</Time>
            <Position>
              <LatitudeDegrees>43.27613496221601963043212890625</LatitudeDegrees>
              <LongitudeDegrees>-2.00142740271985530853271484375</LongitudeDegrees>
            </Position>
            <AltitudeMeters>84.8000030517578125</AltitudeMeters>
            <DistanceMeters>NAN</DistanceMeters>
          </Trackpoint>
          <Trackpoint>
            <Time>2021-08-12T16:02:27.000Z</Time>
            <Position>
              <LatitudeDegrees>43.2761229760944843292236328125</LatitudeDegrees>
              <LongitudeDegrees>-2.00142681598663330078125</LongitudeDegrees>
            </Position>
            <AltitudeMeters>84.8000030517578125</AltitudeMeters>
            <DistanceMeters>NAN</DistanceMeters>
          </Trackpoint>
          <Trackpoint>
            <Time>2021-08-12T16:02:28.000Z</Time>
            <Position>
              <LatitudeDegrees>43.2761229760944843292236328125</LatitudeDegrees>
              <LongitudeDegrees>-2.00142681598663330078125</LongitudeDegrees>
            </Position>
            <AltitudeMeters>84.8000030517578125</AltitudeMeters>
            <DistanceMeters>NAN</DistanceMeters>
          </Trackpoint>
          <Trackpoint>
            <Time>2021-08-12T16:02:30.000Z</Time>
            <Position>
              <LatitudeDegrees>43.2760919630527496337890625</LatitudeDegrees>
              <LongitudeDegrees>-2.00141608715057373046875</LongitudeDegrees>
            </Position>
            <AltitudeMeters>85</AltitudeMeters>
            <DistanceMeters>NAN</DistanceMeters>
          </Trackpoint>
          <Trackpoint>
            <Time>2021-08-12T16:02:31.000Z</Time>
            <Position>
              <LatitudeDegrees>43.2760753668844699859619140625</LatitudeDegrees>
              <LongitudeDegrees>-2.00141382403671741485595703125</LongitudeDegrees>
            </Position>
            <AltitudeMeters>85</AltitudeMeters>
            <DistanceMeters>NAN</DistanceMeters>
          </Trackpoint>
          <Trackpoint>
            <Time>2021-08-12T16:02:32.000Z</Time>
            <Position>
              <LatitudeDegrees>43.27605768106877803802490234375</LatitudeDegrees>
              <LongitudeDegrees>-2.0014065317809581756591796875</LongitudeDegrees>
            </Position>
            <AltitudeMeters>85</AltitudeMeters>
            <DistanceMeters>NAN</DistanceMeters>
          </Trackpoint>
          <Trackpoint>
            <Time>2021-08-12T16:02:36.000Z</Time>
            <Position>
              <LatitudeDegrees>43.2759741134941577911376953125</LatitudeDegrees>
              <LongitudeDegrees>-2.00138264335691928863525390625</LongitudeDegrees>
            </Position>
            <AltitudeMeters>85.1999969482421875</AltitudeMeters>
            <DistanceMeters>NAN</DistanceMeters>
          </Trackpoint>
          <Trackpoint>
            <Time>2021-08-12T16:02:37.000Z</Time>
            <Position>
              <LatitudeDegrees>43.27595558948814868927001953125</LatitudeDegrees>
              <LongitudeDegrees>-2.00137509964406490325927734375</LongitudeDegrees>
            </Position>
            <AltitudeMeters>85.40000152587890625</AltitudeMeters>
            <DistanceMeters>NAN</DistanceMeters>
          </Trackpoint>
          <Trackpoint>
            <Time>2021-08-12T16:02:38.000Z</Time>
            <Position>
              <LatitudeDegrees>43.27591233886778354644775390625</LatitudeDegrees>
              <LongitudeDegrees>-2.00136420316994190216064453125</LongitudeDegrees>
            </Position>
            <AltitudeMeters>85.40000152587890625</AltitudeMeters>
            <DistanceMeters>NAN</DistanceMeters>
          </Trackpoint>
          <Trackpoint>
            <Time>2021-08-12T16:02:44.000Z</Time>
            <Position>
              <LatitudeDegrees>43.2757763005793094635009765625</LatitudeDegrees>
              <LongitudeDegrees>-2.00132832862436771392822265625</LongitudeDegrees>
            </Position>
            <AltitudeMeters>86.1999969482421875</AltitudeMeters>
            <DistanceMeters>NAN</DistanceMeters>
          </Trackpoint>
          <Trackpoint>
            <Time>2021-08-12T16:02:50.000Z</Time>
            <Position>
              <LatitudeDegrees>43.27565434388816356658935546875</LatitudeDegrees>
              <LongitudeDegrees>-2.0012994110584259033203125</LongitudeDegrees>
            </Position>
            <AltitudeMeters>86.8000030517578125</AltitudeMeters>
            <DistanceMeters>NAN</DistanceMeters>
          </Trackpoint>
          <Trackpoint>
            <Time>2021-08-12T16:02:51.000Z</Time>
            <Position>
              <LatitudeDegrees>43.27565434388816356658935546875</LatitudeDegrees>
              <LongitudeDegrees>-2.0012994110584259033203125</LongitudeDegrees>
            </Position>
            <AltitudeMeters>87</AltitudeMeters>
            <DistanceMeters>NAN</DistanceMeters>
          </Trackpoint>
          <Trackpoint>
            <Time>2021-08-12T16:02:53.000Z</Time>
            <Position>
              <LatitudeDegrees>43.27565467916429042816162109375</LatitudeDegrees>
              <LongitudeDegrees>-2.00129245407879352569580078125</LongitudeDegrees>
            </Position>
            <AltitudeMeters>87.1999969482421875</AltitudeMeters>
            <DistanceMeters>NAN</DistanceMeters>
          </Trackpoint>
          <Trackpoint>
            <Time>2021-08-12T16:02:57.000Z</Time>
            <Position>
              <LatitudeDegrees>43.2756566070020198822021484375</LatitudeDegrees>
              <LongitudeDegrees>-2.0012886822223663330078125</LongitudeDegrees>
            </Position>
            <AltitudeMeters>87.40000152587890625</AltitudeMeters>
            <DistanceMeters>NAN</DistanceMeters>
          </Trackpoint>
          <Trackpoint>
            <Time>2021-08-12T16:03:41.000Z</Time>
            <Position>
              <LatitudeDegrees>43.2756398431956768035888671875</LatitudeDegrees>
              <LongitudeDegrees>-2.00130335055291652679443359375</LongitudeDegrees>
            </Position>
            <AltitudeMeters>87.59999847412109375</AltitudeMeters>
            <DistanceMeters>NAN</DistanceMeters>
          </Trackpoint>
          <Trackpoint>
            <Time>2021-08-12T16:03:42.000Z</Time>
            <Position>
              <LatitudeDegrees>43.2756398431956768035888671875</LatitudeDegrees>
              <LongitudeDegrees>-2.00130335055291652679443359375</LongitudeDegrees>
            </Position>
            <AltitudeMeters>87.59999847412109375</AltitudeMeters>
            <DistanceMeters>NAN</DistanceMeters>
          </Trackpoint>
          <Trackpoint>
            <Time>2021-08-12T16:03:48.000Z</Time>
            <Position>
              <LatitudeDegrees>43.2756066508591175079345703125</LatitudeDegrees>
              <LongitudeDegrees>-2.0012995786964893341064453125</LongitudeDegrees>
            </Position>
            <AltitudeMeters>87.40000152587890625</AltitudeMeters>
            <DistanceMeters>NAN</DistanceMeters>
          </Trackpoint>
          <Trackpoint>
            <Time>2021-08-12T16:03:50.000Z</Time>
            <Position>
              <LatitudeDegrees>43.2755992747843265533447265625</LatitudeDegrees>
              <LongitudeDegrees>-2.00129698030650615692138671875</LongitudeDegrees>
            </Position>
            <AltitudeMeters>87.1999969482421875</AltitudeMeters>
            <DistanceMeters>NAN</DistanceMeters>
          </Trackpoint>
          <Trackpoint>
            <Time>2021-08-12T16:03:51.000Z</Time>
            <Position>
              <LatitudeDegrees>43.275592066347599029541015625</LatitudeDegrees>
              <LongitudeDegrees>-2.00129530392587184906005859375</LongitudeDegrees>
            </Position>
            <AltitudeMeters>87.1999969482421875</AltitudeMeters>
            <DistanceMeters>NAN</DistanceMeters>
          </Trackpoint>
          <Trackpoint>
            <Time>2021-08-12T16:03:52.000Z</Time>
            <Position>
              <LatitudeDegrees>43.275586031377315521240234375</LatitudeDegrees>
              <LongitudeDegrees>-2.00129278935492038726806640625</LongitudeDegrees>
            </Position>
            <AltitudeMeters>87.1999969482421875</AltitudeMeters>
            <DistanceMeters>NAN</DistanceMeters>
          </Trackpoint>
          <Trackpoint>
            <Time>2021-08-12T16:03:56.000Z</Time>
            <Position>
              <LatitudeDegrees>43.27559080906212329864501953125</LatitudeDegrees>
              <LongitudeDegrees>-2.001282311975955963134765625</LongitudeDegrees>
            </Position>
            <AltitudeMeters>86.1999969482421875</AltitudeMeters>
            <DistanceMeters>NAN</DistanceMeters>
          </Trackpoint>
          <Trackpoint>
            <Time>2021-08-12T16:04:34.000Z</Time>
            <Position>
              <LatitudeDegrees>43.27556281350553035736083984375</LatitudeDegrees>
              <LongitudeDegrees>-2.0013019256293773651123046875</LongitudeDegrees>
            </Position>
            <AltitudeMeters>85.8000030517578125</AltitudeMeters>
            <DistanceMeters>NAN</DistanceMeters>
          </Trackpoint>
          <Trackpoint>
            <Time>2021-08-12T16:04:35.000Z</Time>
            <Position>
              <LatitudeDegrees>43.27555443160235881805419921875</LatitudeDegrees>
              <LongitudeDegrees>-2.001291699707508087158203125</LongitudeDegrees>
            </Position>
            <AltitudeMeters>85.8000030517578125</AltitudeMeters>
            <DistanceMeters>NAN</DistanceMeters>
          </Trackpoint>
          <Trackpoint>
            <Time>2021-08-12T16:04:36.000Z</Time>
            <Position>
              <LatitudeDegrees>43.27555443160235881805419921875</LatitudeDegrees>
              <LongitudeDegrees>-2.001291699707508087158203125</LongitudeDegrees>
            </Position>
            <AltitudeMeters>85.8000030517578125</AltitudeMeters>
            <DistanceMeters>NAN</DistanceMeters>
          </Trackpoint>
          <Trackpoint>
            <Time>2021-08-12T16:04:37.000Z</Time>
            <Position>
              <LatitudeDegrees>43.2755416072905063629150390625</LatitudeDegrees>
              <LongitudeDegrees>-2.00127703137695789337158203125</LongitudeDegrees>
            </Position>
            <AltitudeMeters>85.8000030517578125</AltitudeMeters>
            <DistanceMeters>NAN</DistanceMeters>
          </Trackpoint>
          <Trackpoint>
            <Time>2021-08-12T16:04:38.000Z</Time>
            <Position>
              <LatitudeDegrees>43.275527022778987884521484375</LatitudeDegrees>
              <LongitudeDegrees>-2.001265548169612884521484375</LongitudeDegrees>
            </Position>
            <AltitudeMeters>85.8000030517578125</AltitudeMeters>
            <DistanceMeters>NAN</DistanceMeters>
          </Trackpoint>
          <Trackpoint>
            <Time>2021-08-12T16:04:41.000Z</Time>
            <Position>
              <LatitudeDegrees>43.27547664754092693328857421875</LatitudeDegrees>
              <LongitudeDegrees>-2.00124442577362060546875</LongitudeDegrees>
            </Position>
            <AltitudeMeters>86</AltitudeMeters>
            <DistanceMeters>NAN</DistanceMeters>
          </Trackpoint>
          <Trackpoint>
            <Time>2021-08-12T16:04:42.000Z</Time>
            <Position>
              <LatitudeDegrees>43.275466002523899078369140625</LatitudeDegrees>
              <LongitudeDegrees>-2.001236043870449066162109375</LongitudeDegrees>
            </Position>
            <AltitudeMeters>86.1999969482421875</AltitudeMeters>
            <DistanceMeters>NAN</DistanceMeters>
          </Trackpoint>
          <Trackpoint>
            <Time>2021-08-12T16:04:44.000Z</Time>
            <Position>
              <LatitudeDegrees>43.275461979210376739501953125</LatitudeDegrees>
              <LongitudeDegrees>-2.00124115683138370513916015625</LongitudeDegrees>
            </Position>
            <AltitudeMeters>86.1999969482421875</AltitudeMeters>
            <DistanceMeters>NAN</DistanceMeters>
          </Trackpoint>
          <Trackpoint>
            <Time>2021-08-12T16:05:03.000Z</Time>
            <Position>
              <LatitudeDegrees>43.27540255151689052581787109375</LatitudeDegrees>
              <LongitudeDegrees>-2.00121223926544189453125</LongitudeDegrees>
            </Position>
            <AltitudeMeters>86.1999969482421875</AltitudeMeters>
            <DistanceMeters>NAN</DistanceMeters>
          </Trackpoint>
          <Trackpoint>
            <Time>2021-08-12T16:05:06.000Z</Time>
            <Position>
              <LatitudeDegrees>43.27531672082841396331787109375</LatitudeDegrees>
              <LongitudeDegrees>-2.001172341406345367431640625</LongitudeDegrees>
            </Position>
            <AltitudeMeters>86.40000152587890625</AltitudeMeters>
            <DistanceMeters>NAN</DistanceMeters>
          </Trackpoint>
          <Trackpoint>
            <Time>2021-08-12T16:05:11.000Z</Time>
            <Position>
              <LatitudeDegrees>43.27518898062407970428466796875</LatitudeDegrees>
              <LongitudeDegrees>-2.001094557344913482666015625</LongitudeDegrees>
            </Position>
            <AltitudeMeters>86.59999847412109375</AltitudeMeters>
            <DistanceMeters>NAN</DistanceMeters>
          </Trackpoint>
          <Trackpoint>
            <Time>2021-08-12T16:05:15.000Z</Time>
            <Position>
              <LatitudeDegrees>43.27510734088718891143798828125</LatitudeDegrees>
              <LongitudeDegrees>-2.00104367919266223907470703125</LongitudeDegrees>
            </Position>
            <AltitudeMeters>86.59999847412109375</AltitudeMeters>
            <DistanceMeters>NAN</DistanceMeters>
          </Trackpoint>
          <Trackpoint>
            <Time>2021-08-12T16:05:16.000Z</Time>
            <Position>
              <LatitudeDegrees>43.2750752381980419158935546875</LatitudeDegrees>
              <LongitudeDegrees>-2.0009985007345676422119140625</LongitudeDegrees>
            </Position>
            <AltitudeMeters>86.59999847412109375</AltitudeMeters>
            <DistanceMeters>NAN</DistanceMeters>
          </Trackpoint>
          <Trackpoint>
            <Time>2021-08-12T16:05:17.000Z</Time>
            <Position>
              <LatitudeDegrees>43.2750752381980419158935546875</LatitudeDegrees>
              <LongitudeDegrees>-2.0009985007345676422119140625</LongitudeDegrees>
            </Position>
            <AltitudeMeters>86.59999847412109375</AltitudeMeters>
            <DistanceMeters>NAN</DistanceMeters>
          </Trackpoint>
          <Trackpoint>
            <Time>2021-08-12T16:05:18.000Z</Time>
            <Position>
              <LatitudeDegrees>43.2750715501606464385986328125</LatitudeDegrees>
              <LongitudeDegrees>-2.000958435237407684326171875</LongitudeDegrees>
            </Position>
            <AltitudeMeters>86.59999847412109375</AltitudeMeters>
            <DistanceMeters>NAN</DistanceMeters>
          </Trackpoint>
          <Trackpoint>
            <Time>2021-08-12T16:05:20.000Z</Time>
            <Position>
              <LatitudeDegrees>43.2750775851309299468994140625</LatitudeDegrees>
              <LongitudeDegrees>-2.00087419711053371429443359375</LongitudeDegrees>
            </Position>
            <AltitudeMeters>86.59999847412109375</AltitudeMeters>
            <DistanceMeters>NAN</DistanceMeters>
          </Trackpoint>
          <Trackpoint>
            <Time>2021-08-12T16:05:21.000Z</Time>
            <Position>
              <LatitudeDegrees>43.27507674694061279296875</LatitudeDegrees>
              <LongitudeDegrees>-2.00083295814692974090576171875</LongitudeDegrees>
            </Position>
            <AltitudeMeters>86.59999847412109375</AltitudeMeters>
            <DistanceMeters>NAN</DistanceMeters>
          </Trackpoint>
          <Trackpoint>
            <Time>2021-08-12T16:05:22.000Z</Time>
            <Position>
              <LatitudeDegrees>43.275072388350963592529296875</LatitudeDegrees>
              <LongitudeDegrees>-2.00079071335494518280029296875</LongitudeDegrees>
            </Position>
            <AltitudeMeters>86.59999847412109375</AltitudeMeters>
            <DistanceMeters>NAN</DistanceMeters>
          </Trackpoint>
          <Trackpoint>
            <Time>2021-08-12T16:05:29.000Z</Time>
            <Position>
              <LatitudeDegrees>43.27505654655396938323974609375</LatitudeDegrees>
              <LongitudeDegrees>-2.000517547130584716796875</LongitudeDegrees>
            </Position>
            <AltitudeMeters>87</AltitudeMeters>
            <DistanceMeters>NAN</DistanceMeters>
          </Trackpoint>
          <Trackpoint>
            <Time>2021-08-12T16:05:30.000Z</Time>
            <Position>
              <LatitudeDegrees>43.27505487017333507537841796875</LatitudeDegrees>
              <LongitudeDegrees>-2.00048108585178852081298828125</LongitudeDegrees>
            </Position>
            <AltitudeMeters>87.1999969482421875</AltitudeMeters>
            <DistanceMeters>NAN</DistanceMeters>
          </Trackpoint>
          <Trackpoint>
            <Time>2021-08-12T16:05:31.000Z</Time>
            <Position>
              <LatitudeDegrees>43.2750531099736690521240234375</LatitudeDegrees>
              <LongitudeDegrees>-2.00044437311589717864990234375</LongitudeDegrees>
            </Position>
            <AltitudeMeters>87.40000152587890625</AltitudeMeters>
            <DistanceMeters>NAN</DistanceMeters>
          </Trackpoint>
          <Trackpoint>
            <Time>2021-08-12T16:05:32.000Z</Time>
            <Position>
              <LatitudeDegrees>43.27505101449787616729736328125</LatitudeDegrees>
              <LongitudeDegrees>-2.0003722049295902252197265625</LongitudeDegrees>
            </Position>
            <AltitudeMeters>87.59999847412109375</AltitudeMeters>
            <DistanceMeters>NAN</DistanceMeters>
          </Trackpoint>
          <Trackpoint>
            <Time>2021-08-12T16:05:33.000Z</Time>
            <Position>
              <LatitudeDegrees>43.2750521041452884674072265625</LatitudeDegrees>
              <LongitudeDegrees>-2.0003378391265869140625</LongitudeDegrees>
            </Position>
            <AltitudeMeters>87.8000030517578125</AltitudeMeters>
            <DistanceMeters>NAN</DistanceMeters>
          </Trackpoint>
          <Trackpoint>
            <Time>2021-08-12T16:05:34.000Z</Time>
            <Position>
              <LatitudeDegrees>43.2750521041452884674072265625</LatitudeDegrees>
              <LongitudeDegrees>-2.0003378391265869140625</LongitudeDegrees>
            </Position>
            <AltitudeMeters>87.8000030517578125</AltitudeMeters>
            <DistanceMeters>NAN</DistanceMeters>
          </Trackpoint>
          <Trackpoint>
            <Time>2021-08-12T16:05:36.000Z</Time>
            <Position>
              <LatitudeDegrees>43.27505084685981273651123046875</LatitudeDegrees>
              <LongitudeDegrees>-2.00026952661573886871337890625</LongitudeDegrees>
            </Position>
            <AltitudeMeters>88.1999969482421875</AltitudeMeters>
            <DistanceMeters>NAN</DistanceMeters>
          </Trackpoint>
          <Trackpoint>
            <Time>2021-08-12T16:05:37.000Z</Time>
            <Position>
              <LatitudeDegrees>43.27504900284111499786376953125</LatitudeDegrees>
              <LongitudeDegrees>-2.000198699533939361572265625</LongitudeDegrees>
            </Position>
            <AltitudeMeters>88.40000152587890625</AltitudeMeters>
            <DistanceMeters>NAN</DistanceMeters>
          </Trackpoint>
          <Trackpoint>
            <Time>2021-08-12T16:05:39.000Z</Time>
            <Position>
              <LatitudeDegrees>43.27504699118435382843017578125</LatitudeDegrees>
              <LongitudeDegrees>-2.0001230947673320770263671875</LongitudeDegrees>
            </Position>
            <AltitudeMeters>88.8000030517578125</AltitudeMeters>
            <DistanceMeters>NAN</DistanceMeters>
          </Trackpoint>
          <Trackpoint>
            <Time>2021-08-12T16:05:42.000Z</Time>
            <Position>
              <LatitudeDegrees>43.2750420458614826202392578125</LatitudeDegrees>
              <LongitudeDegrees>-2.00000247918069362640380859375</LongitudeDegrees>
            </Position>
            <AltitudeMeters>89.59999847412109375</AltitudeMeters>
            <DistanceMeters>NAN</DistanceMeters>
          </Trackpoint>
          <Trackpoint>
            <Time>2021-08-12T16:05:44.000Z</Time>
            <Position>
              <LatitudeDegrees>43.2750378549098968505859375</LatitudeDegrees>
              <LongitudeDegrees>-1.999927125871181488037109375</LongitudeDegrees>
            </Position>
            <AltitudeMeters>89.8000030517578125</AltitudeMeters>
            <DistanceMeters>NAN</DistanceMeters>
          </Trackpoint>
          <Trackpoint>
            <Time>2021-08-12T16:05:45.000Z</Time>
            <Position>
              <LatitudeDegrees>43.27503584325313568115234375</LatitudeDegrees>
              <LongitudeDegrees>-1.9998885691165924072265625</LongitudeDegrees>
            </Position>
            <AltitudeMeters>90</AltitudeMeters>
            <DistanceMeters>NAN</DistanceMeters>
          </Trackpoint>
          <Trackpoint>
            <Time>2021-08-12T16:05:46.000Z</Time>
            <Position>
              <LatitudeDegrees>43.27503290958702564239501953125</LatitudeDegrees>
              <LongitudeDegrees>-1.9998483359813690185546875</LongitudeDegrees>
            </Position>
            <AltitudeMeters>90.40000152587890625</AltitudeMeters>
            <DistanceMeters>NAN</DistanceMeters>
          </Trackpoint>
          <Trackpoint>
            <Time>2021-08-12T16:05:47.000Z</Time>
            <Position>
              <LatitudeDegrees>43.2750276289880275726318359375</LatitudeDegrees>
              <LongitudeDegrees>-1.9998072646558284759521484375</LongitudeDegrees>
            </Position>
            <AltitudeMeters>90.59999847412109375</AltitudeMeters>
            <DistanceMeters>NAN</DistanceMeters>
          </Trackpoint>
          <Trackpoint>
            <Time>2021-08-12T16:05:48.000Z</Time>
            <Position>
              <LatitudeDegrees>43.27502109110355377197265625</LatitudeDegrees>
              <LongitudeDegrees>-1.9997646845877170562744140625</LongitudeDegrees>
            </Position>
            <AltitudeMeters>91</AltitudeMeters>
            <DistanceMeters>NAN</DistanceMeters>
          </Trackpoint>
          <Trackpoint>
            <Time>2021-08-12T16:05:49.000Z</Time>
            <Position>
              <LatitudeDegrees>43.27501480467617511749267578125</LatitudeDegrees>
              <LongitudeDegrees>-1.99972252361476421356201171875</LongitudeDegrees>
            </Position>
            <AltitudeMeters>91.40000152587890625</AltitudeMeters>
            <DistanceMeters>NAN</DistanceMeters>
          </Trackpoint>
          <Trackpoint>
            <Time>2021-08-12T16:05:50.000Z</Time>
            <Position>
              <LatitudeDegrees>43.27500960789620876312255859375</LatitudeDegrees>
              <LongitudeDegrees>-1.99968128465116024017333984375</LongitudeDegrees>
            </Position>
            <AltitudeMeters>91.40000152587890625</AltitudeMeters>
            <DistanceMeters>NAN</DistanceMeters>
          </Trackpoint>
          <Trackpoint>
            <Time>2021-08-12T16:05:51.000Z</Time>
            <Position>
              <LatitudeDegrees>43.27500499784946441650390625</LatitudeDegrees>
              <LongitudeDegrees>-1.99963979423046112060546875</LongitudeDegrees>
            </Position>
            <AltitudeMeters>91.8000030517578125</AltitudeMeters>
            <DistanceMeters>NAN</DistanceMeters>
          </Trackpoint>
          <Trackpoint>
            <Time>2021-08-12T16:05:52.000Z</Time>
            <Position>
              <LatitudeDegrees>43.27499971725046634674072265625</LatitudeDegrees>
              <LongitudeDegrees>-1.99959780089557170867919921875</LongitudeDegrees>
            </Position>
            <AltitudeMeters>91.8000030517578125</AltitudeMeters>
            <DistanceMeters>NAN</DistanceMeters>
          </Trackpoint>
          <Trackpoint>
            <Time>2021-08-12T16:05:53.000Z</Time>
            <Position>
              <LatitudeDegrees>43.27499602921307086944580078125</LatitudeDegrees>
              <LongitudeDegrees>-1.99955530464649200439453125</LongitudeDegrees>
            </Position>
            <AltitudeMeters>92</AltitudeMeters>
            <DistanceMeters>NAN</DistanceMeters>
          </Trackpoint>
          <Trackpoint>
            <Time>2021-08-12T16:05:54.000Z</Time>
            <Position>
              <LatitudeDegrees>43.274993263185024261474609375</LatitudeDegrees>
              <LongitudeDegrees>-1.9995132274925708770751953125</LongitudeDegrees>
            </Position>
            <AltitudeMeters>92.1999969482421875</AltitudeMeters>
            <DistanceMeters>NAN</DistanceMeters>
          </Trackpoint>
          <Trackpoint>
            <Time>2021-08-12T16:05:55.000Z</Time>
            <Position>
              <LatitudeDegrees>43.27499133534729480743408203125</LatitudeDegrees>
              <LongitudeDegrees>-1.99947416782379150390625</LongitudeDegrees>
            </Position>
            <AltitudeMeters>92.59999847412109375</AltitudeMeters>
            <DistanceMeters>NAN</DistanceMeters>
          </Trackpoint>
          <Trackpoint>
            <Time>2021-08-12T16:05:56.000Z</Time>
            <Position>
              <LatitudeDegrees>43.2749917544424533843994140625</LatitudeDegrees>
              <LongitudeDegrees>-1.999431587755680084228515625</LongitudeDegrees>
            </Position>
            <AltitudeMeters>93</AltitudeMeters>
            <DistanceMeters>NAN</DistanceMeters>
          </Trackpoint>
          <Trackpoint>
            <Time>2021-08-12T16:05:57.000Z</Time>
            <Position>
              <LatitudeDegrees>43.27498831786215305328369140625</LatitudeDegrees>
              <LongitudeDegrees>-1.9993923604488372802734375</LongitudeDegrees>
            </Position>
            <AltitudeMeters>93</AltitudeMeters>
            <DistanceMeters>NAN</DistanceMeters>
          </Trackpoint>
          <Trackpoint>
            <Time>2021-08-12T16:05:58.000Z</Time>
            <Position>
              <LatitudeDegrees>43.274985887110233306884765625</LatitudeDegrees>
              <LongitudeDegrees>-1.9993526302278041839599609375</LongitudeDegrees>
            </Position>
            <AltitudeMeters>93.40000152587890625</AltitudeMeters>
            <DistanceMeters>NAN</DistanceMeters>
          </Trackpoint>
          <Trackpoint>
            <Time>2021-08-12T16:05:59.000Z</Time>
            <Position>
              <LatitudeDegrees>43.274984546005725860595703125</LatitudeDegrees>
              <LongitudeDegrees>-1.999310888350009918212890625</LongitudeDegrees>
            </Position>
            <AltitudeMeters>93.8000030517578125</AltitudeMeters>
            <DistanceMeters>NAN</DistanceMeters>
          </Trackpoint>
          <Trackpoint>
            <Time>2021-08-12T16:06:00.000Z</Time>
            <Position>
              <LatitudeDegrees>43.27498312108218669891357421875</LatitudeDegrees>
              <LongitudeDegrees>-1.99927057139575481414794921875</LongitudeDegrees>
            </Position>
            <AltitudeMeters>94.1999969482421875</AltitudeMeters>
            <DistanceMeters>NAN</DistanceMeters>
          </Trackpoint>
          <Trackpoint>
            <Time>2021-08-12T16:06:01.000Z</Time>
            <Position>
              <LatitudeDegrees>43.27498312108218669891357421875</LatitudeDegrees>
              <LongitudeDegrees>-1.99927057139575481414794921875</LongitudeDegrees>
            </Position>
            <AltitudeMeters>94.40000152587890625</AltitudeMeters>
            <DistanceMeters>NAN</DistanceMeters>
          </Trackpoint>
          <Trackpoint>
            <Time>2021-08-12T16:06:02.000Z</Time>
            <Position>
              <LatitudeDegrees>43.2749830372631549835205078125</LatitudeDegrees>
              <LongitudeDegrees>-1.99919052422046661376953125</LongitudeDegrees>
            </Position>
            <AltitudeMeters>94.8000030517578125</AltitudeMeters>
            <DistanceMeters>NAN</DistanceMeters>
          </Trackpoint>
          <Trackpoint>
            <Time>2021-08-12T16:06:03.000Z</Time>
            <Position>
              <LatitudeDegrees>43.27498194761574268341064453125</LatitudeDegrees>
              <LongitudeDegrees>-1.9991521351039409637451171875</LongitudeDegrees>
            </Position>
            <AltitudeMeters>95</AltitudeMeters>
            <DistanceMeters>NAN</DistanceMeters>
          </Trackpoint>
          <Trackpoint>
            <Time>2021-08-12T16:06:04.000Z</Time>
            <Position>
              <LatitudeDegrees>43.27498060651123523712158203125</LatitudeDegrees>
              <LongitudeDegrees>-1.99911408126354217529296875</LongitudeDegrees>
            </Position>
            <AltitudeMeters>95.1999969482421875</AltitudeMeters>
            <DistanceMeters>NAN</DistanceMeters>
          </Trackpoint>
          <Trackpoint>
            <Time>2021-08-12T16:06:05.000Z</Time>
            <Position>
              <LatitudeDegrees>43.27498219907283782958984375</LatitudeDegrees>
              <LongitudeDegrees>-1.999068818986415863037109375</LongitudeDegrees>
            </Position>
            <AltitudeMeters>95.59999847412109375</AltitudeMeters>
            <DistanceMeters>NAN</DistanceMeters>
          </Trackpoint>
          <Trackpoint>
            <Time>2021-08-12T16:06:06.000Z</Time>
            <Position>
              <LatitudeDegrees>43.27498613856732845306396484375</LatitudeDegrees>
              <LongitudeDegrees>-1.99902833439409732818603515625</LongitudeDegrees>
            </Position>
            <AltitudeMeters>95.59999847412109375</AltitudeMeters>
            <DistanceMeters>NAN</DistanceMeters>
          </Trackpoint>
          <Trackpoint>
            <Time>2021-08-12T16:06:07.000Z</Time>
            <Position>
              <LatitudeDegrees>43.27498747967183589935302734375</LatitudeDegrees>
              <LongitudeDegrees>-1.9989948906004428863525390625</LongitudeDegrees>
            </Position>
            <AltitudeMeters>96</AltitudeMeters>
            <DistanceMeters>NAN</DistanceMeters>
          </Trackpoint>
          <Trackpoint>
            <Time>2021-08-12T16:06:08.000Z</Time>
            <Position>
              <LatitudeDegrees>43.27498546801507472991943359375</LatitudeDegrees>
              <LongitudeDegrees>-1.99895448982715606689453125</LongitudeDegrees>
            </Position>
            <AltitudeMeters>96.1999969482421875</AltitudeMeters>
            <DistanceMeters>NAN</DistanceMeters>
          </Trackpoint>
          <Trackpoint>
            <Time>2021-08-12T16:06:09.000Z</Time>
            <Position>
              <LatitudeDegrees>43.27498395927250385284423828125</LatitudeDegrees>
              <LongitudeDegrees>-1.99891434051096439361572265625</LongitudeDegrees>
            </Position>
            <AltitudeMeters>96.8000030517578125</AltitudeMeters>
            <DistanceMeters>NAN</DistanceMeters>
          </Trackpoint>
          <Trackpoint>
            <Time>2021-08-12T16:06:10.000Z</Time>
            <Position>
              <LatitudeDegrees>43.274983204901218414306640625</LatitudeDegrees>
              <LongitudeDegrees>-1.99886463582515716552734375</LongitudeDegrees>
            </Position>
            <AltitudeMeters>97</AltitudeMeters>
            <DistanceMeters>NAN</DistanceMeters>
          </Trackpoint>
          <Trackpoint>
            <Time>2021-08-12T16:06:11.000Z</Time>
            <Position>
              <LatitudeDegrees>43.27498144470155239105224609375</LatitudeDegrees>
              <LongitudeDegrees>-1.99882465414702892303466796875</LongitudeDegrees>
            </Position>
            <AltitudeMeters>97.40000152587890625</AltitudeMeters>
            <DistanceMeters>NAN</DistanceMeters>
          </Trackpoint>
          <Trackpoint>
            <Time>2021-08-12T16:06:12.000Z</Time>
            <Position>
              <LatitudeDegrees>43.2749793492257595062255859375</LatitudeDegrees>
              <LongitudeDegrees>-1.99878442101180553436279296875</LongitudeDegrees>
            </Position>
            <AltitudeMeters>97.8000030517578125</AltitudeMeters>
            <DistanceMeters>NAN</DistanceMeters>
          </Trackpoint>
          <Trackpoint>
            <Time>2021-08-12T16:06:13.000Z</Time>
            <Position>
              <LatitudeDegrees>43.27497708611190319061279296875</LatitudeDegrees>
              <LongitudeDegrees>-1.99875273741781711578369140625</LongitudeDegrees>
            </Position>
            <AltitudeMeters>98</AltitudeMeters>
            <DistanceMeters>NAN</DistanceMeters>
          </Trackpoint>
          <Trackpoint>
            <Time>2021-08-12T16:06:14.000Z</Time>
            <Position>
              <LatitudeDegrees>43.2749734818935394287109375</LatitudeDegrees>
              <LongitudeDegrees>-1.9987115822732448577880859375</LongitudeDegrees>
            </Position>
            <AltitudeMeters>98.40000152587890625</AltitudeMeters>
            <DistanceMeters>NAN</DistanceMeters>
          </Trackpoint>
          <Trackpoint>
            <Time>2021-08-12T16:06:15.000Z</Time>
            <Position>
              <LatitudeDegrees>43.2749654352664947509765625</LatitudeDegrees>
              <LongitudeDegrees>-1.99866187758743762969970703125</LongitudeDegrees>
            </Position>
            <AltitudeMeters>98.40000152587890625</AltitudeMeters>
            <DistanceMeters>NAN</DistanceMeters>
          </Trackpoint>
          <Trackpoint>
            <Time>2021-08-12T16:06:16.000Z</Time>
            <Position>
              <LatitudeDegrees>43.27495998702943325042724609375</LatitudeDegrees>
              <LongitudeDegrees>-1.998617537319660186767578125</LongitudeDegrees>
            </Position>
            <AltitudeMeters>98.8000030517578125</AltitudeMeters>
            <DistanceMeters>NAN</DistanceMeters>
          </Trackpoint>
          <Trackpoint>
            <Time>2021-08-12T16:06:17.000Z</Time>
            <Position>
              <LatitudeDegrees>43.27495495788753032684326171875</LatitudeDegrees>
              <LongitudeDegrees>-1.998583339154720306396484375</LongitudeDegrees>
            </Position>
            <AltitudeMeters>99.40000152587890625</AltitudeMeters>
            <DistanceMeters>NAN</DistanceMeters>
          </Trackpoint>
          <Trackpoint>
            <Time>2021-08-12T16:06:18.000Z</Time>
            <Position>
              <LatitudeDegrees>43.2749458216130733489990234375</LatitudeDegrees>
              <LongitudeDegrees>-1.99854302220046520233154296875</LongitudeDegrees>
            </Position>
            <AltitudeMeters>99.59999847412109375</AltitudeMeters>
            <DistanceMeters>NAN</DistanceMeters>
          </Trackpoint>
          <Trackpoint>
            <Time>2021-08-12T16:06:19.000Z</Time>
            <Position>
              <LatitudeDegrees>43.274936936795711517333984375</LatitudeDegrees>
              <LongitudeDegrees>-1.998500861227512359619140625</LongitudeDegrees>
            </Position>
            <AltitudeMeters>100</AltitudeMeters>
            <DistanceMeters>NAN</DistanceMeters>
          </Trackpoint>
          <Trackpoint>
            <Time>2021-08-12T16:06:20.000Z</Time>
            <Position>
              <LatitudeDegrees>43.27492780052125453948974609375</LatitudeDegrees>
              <LongitudeDegrees>-1.998460292816162109375</LongitudeDegrees>
            </Position>
            <AltitudeMeters>100.1999969482421875</AltitudeMeters>
            <DistanceMeters>NAN</DistanceMeters>
          </Trackpoint>
          <Trackpoint>
            <Time>2021-08-12T16:06:21.000Z</Time>
            <Position>
              <LatitudeDegrees>43.2749198377132415771484375</LatitudeDegrees>
              <LongitudeDegrees>-1.99841645546257495880126953125</LongitudeDegrees>
            </Position>
            <AltitudeMeters>100.40000152587890625</AltitudeMeters>
            <DistanceMeters>NAN</DistanceMeters>
          </Trackpoint>
          <Trackpoint>
            <Time>2021-08-12T16:06:22.000Z</Time>
            <Position>
              <LatitudeDegrees>43.2749149762094020843505859375</LatitudeDegrees>
              <LongitudeDegrees>-1.99838477186858654022216796875</LongitudeDegrees>
            </Position>
            <AltitudeMeters>100.59999847412109375</AltitudeMeters>
            <DistanceMeters>NAN</DistanceMeters>
          </Trackpoint>
          <Trackpoint>
            <Time>2021-08-12T16:06:23.000Z</Time>
            <Position>
              <LatitudeDegrees>43.2749106176197528839111328125</LatitudeDegrees>
              <LongitudeDegrees>-1.998359374701976776123046875</LongitudeDegrees>
            </Position>
            <AltitudeMeters>101</AltitudeMeters>
            <DistanceMeters>NAN</DistanceMeters>
          </Trackpoint>
          <Trackpoint>
            <Time>2021-08-12T16:06:24.000Z</Time>
            <Position>
              <LatitudeDegrees>43.27490265481173992156982421875</LatitudeDegrees>
              <LongitudeDegrees>-1.99832207523286342620849609375</LongitudeDegrees>
            </Position>
            <AltitudeMeters>101.1999969482421875</AltitudeMeters>
            <DistanceMeters>NAN</DistanceMeters>
          </Trackpoint>
          <Trackpoint>
            <Time>2021-08-12T16:06:25.000Z</Time>
            <Position>
              <LatitudeDegrees>43.27490131370723247528076171875</LatitudeDegrees>
              <LongitudeDegrees>-1.99827320873737335205078125</LongitudeDegrees>
            </Position>
            <AltitudeMeters>101.40000152587890625</AltitudeMeters>
            <DistanceMeters>NAN</DistanceMeters>
          </Trackpoint>
          <Trackpoint>
            <Time>2021-08-12T16:06:26.000Z</Time>
            <Position>
              <LatitudeDegrees>43.274903409183025360107421875</LatitudeDegrees>
              <LongitudeDegrees>-1.9982022978365421295166015625</LongitudeDegrees>
            </Position>
            <AltitudeMeters>101.40000152587890625</AltitudeMeters>
            <DistanceMeters>NAN</DistanceMeters>
          </Trackpoint>
          <Trackpoint>
            <Time>2021-08-12T16:06:27.000Z</Time>
            <Position>
              <LatitudeDegrees>43.27489770948886871337890625</LatitudeDegrees>
              <LongitudeDegrees>-1.9981325604021549224853515625</LongitudeDegrees>
            </Position>
            <AltitudeMeters>101.40000152587890625</AltitudeMeters>
            <DistanceMeters>NAN</DistanceMeters>
          </Trackpoint>
          <Trackpoint>
            <Time>2021-08-12T16:06:28.000Z</Time>
            <Position>
              <LatitudeDegrees>43.27489393763244152069091796875</LatitudeDegrees>
              <LongitudeDegrees>-1.9980769045650959014892578125</LongitudeDegrees>
            </Position>
            <AltitudeMeters>101.40000152587890625</AltitudeMeters>
            <DistanceMeters>NAN</DistanceMeters>
          </Trackpoint>
          <Trackpoint>
            <Time>2021-08-12T16:06:29.000Z</Time>
            <Position>
              <LatitudeDegrees>43.27487935312092304229736328125</LatitudeDegrees>
              <LongitudeDegrees>-1.998005993664264678955078125</LongitudeDegrees>
            </Position>
            <AltitudeMeters>101.59999847412109375</AltitudeMeters>
            <DistanceMeters>NAN</DistanceMeters>
          </Trackpoint>
          <Trackpoint>
            <Time>2021-08-12T16:06:30.000Z</Time>
            <Position>
              <LatitudeDegrees>43.2748661935329437255859375</LatitudeDegrees>
              <LongitudeDegrees>-1.997931897640228271484375</LongitudeDegrees>
            </Position>
            <AltitudeMeters>101.59999847412109375</AltitudeMeters>
            <DistanceMeters>NAN</DistanceMeters>
          </Trackpoint>
          <Trackpoint>
            <Time>2021-08-12T16:06:31.000Z</Time>
            <Position>
              <LatitudeDegrees>43.2748489268124103546142578125</LatitudeDegrees>
              <LongitudeDegrees>-1.99784195981919765472412109375</LongitudeDegrees>
            </Position>
            <AltitudeMeters>101.40000152587890625</AltitudeMeters>
            <DistanceMeters>NAN</DistanceMeters>
          </Trackpoint>
          <Trackpoint>
            <Time>2021-08-12T16:06:32.000Z</Time>
            <Position>
              <LatitudeDegrees>43.27483191154897212982177734375</LatitudeDegrees>
              <LongitudeDegrees>-1.997764594852924346923828125</LongitudeDegrees>
            </Position>
            <AltitudeMeters>101.40000152587890625</AltitudeMeters>
            <DistanceMeters>NAN</DistanceMeters>
          </Trackpoint>
          <Trackpoint>
            <Time>2021-08-12T16:06:33.000Z</Time>
            <Position>
              <LatitudeDegrees>43.2748113758862018585205078125</LatitudeDegrees>
              <LongitudeDegrees>-1.9976913370192050933837890625</LongitudeDegrees>
            </Position>
            <AltitudeMeters>101.1999969482421875</AltitudeMeters>
            <DistanceMeters>NAN</DistanceMeters>
          </Trackpoint>
          <Trackpoint>
            <Time>2021-08-12T16:06:34.000Z</Time>
            <Position>
              <LatitudeDegrees>43.27478773891925811767578125</LatitudeDegrees>
              <LongitudeDegrees>-1.99763794429600238800048828125</LongitudeDegrees>
            </Position>
            <AltitudeMeters>101</AltitudeMeters>
            <DistanceMeters>NAN</DistanceMeters>
          </Trackpoint>
          <Trackpoint>
            <Time>2021-08-12T16:06:35.000Z</Time>
            <Position>
              <LatitudeDegrees>43.27474926598370075225830078125</LatitudeDegrees>
              <LongitudeDegrees>-1.9975786842405796051025390625</LongitudeDegrees>
            </Position>
            <AltitudeMeters>100.59999847412109375</AltitudeMeters>
            <DistanceMeters>NAN</DistanceMeters>
          </Trackpoint>
          <Trackpoint>
            <Time>2021-08-12T16:06:36.000Z</Time>
            <Position>
              <LatitudeDegrees>43.27471188269555568695068359375</LatitudeDegrees>
              <LongitudeDegrees>-1.99752612970769405364990234375</LongitudeDegrees>
            </Position>
            <AltitudeMeters>100.59999847412109375</AltitudeMeters>
            <DistanceMeters>NAN</DistanceMeters>
          </Trackpoint>
          <Trackpoint>
            <Time>2021-08-12T16:06:37.000Z</Time>
            <Position>
              <LatitudeDegrees>43.2746651954948902130126953125</LatitudeDegrees>
              <LongitudeDegrees>-1.99747282080352306365966796875</LongitudeDegrees>
            </Position>
            <AltitudeMeters>100.40000152587890625</AltitudeMeters>
            <DistanceMeters>NAN</DistanceMeters>
          </Trackpoint>
          <Trackpoint>
            <Time>2021-08-12T16:06:38.000Z</Time>
            <Position>
              <LatitudeDegrees>43.27462571673095226287841796875</LatitudeDegrees>
              <LongitudeDegrees>-1.99743158183991909027099609375</LongitudeDegrees>
            </Position>
            <AltitudeMeters>100.40000152587890625</AltitudeMeters>
            <DistanceMeters>NAN</DistanceMeters>
          </Trackpoint>
          <Trackpoint>
            <Time>2021-08-12T16:06:39.000Z</Time>
            <Position>
              <LatitudeDegrees>43.27459570951759815216064453125</LatitudeDegrees>
              <LongitudeDegrees>-1.99739470146596431732177734375</LongitudeDegrees>
            </Position>
            <AltitudeMeters>100.40000152587890625</AltitudeMeters>
            <DistanceMeters>NAN</DistanceMeters>
          </Trackpoint>
          <Trackpoint>
            <Time>2021-08-12T16:06:40.000Z</Time>
            <Position>
              <LatitudeDegrees>43.27456503175199031829833984375</LatitudeDegrees>
              <LongitudeDegrees>-1.99734742753207683563232421875</LongitudeDegrees>
            </Position>
            <AltitudeMeters>100.40000152587890625</AltitudeMeters>
            <DistanceMeters>NAN</DistanceMeters>
          </Trackpoint>
          <Trackpoint>
            <Time>2021-08-12T16:06:41.000Z</Time>
            <Position>
              <LatitudeDegrees>43.2745408080518245697021484375</LatitudeDegrees>
              <LongitudeDegrees>-1.99729688465595245361328125</LongitudeDegrees>
            </Position>
            <AltitudeMeters>100.40000152587890625</AltitudeMeters>
            <DistanceMeters>NAN</DistanceMeters>
          </Trackpoint>
          <Trackpoint>
            <Time>2021-08-12T16:06:42.000Z</Time>
            <Position>
              <LatitudeDegrees>43.27451775781810283660888671875</LatitudeDegrees>
              <LongitudeDegrees>-1.99723477475345134735107421875</LongitudeDegrees>
            </Position>
            <AltitudeMeters>100.40000152587890625</AltitudeMeters>
            <DistanceMeters>NAN</DistanceMeters>
          </Trackpoint>
          <Trackpoint>
            <Time>2021-08-12T16:06:43.000Z</Time>
            <Position>
              <LatitudeDegrees>43.2745079509913921356201171875</LatitudeDegrees>
              <LongitudeDegrees>-1.99717945419251918792724609375</LongitudeDegrees>
            </Position>
            <AltitudeMeters>100.40000152587890625</AltitudeMeters>
            <DistanceMeters>NAN</DistanceMeters>
          </Trackpoint>
          <Trackpoint>
            <Time>2021-08-12T16:06:44.000Z</Time>
            <Position>
              <LatitudeDegrees>43.27449864707887172698974609375</LatitudeDegrees>
              <LongitudeDegrees>-1.99712463654577732086181640625</LongitudeDegrees>
            </Position>
            <AltitudeMeters>100.40000152587890625</AltitudeMeters>
            <DistanceMeters>NAN</DistanceMeters>
          </Trackpoint>
          <Trackpoint>
            <Time>2021-08-12T16:06:49.000Z</Time>
            <Position>
              <LatitudeDegrees>43.27446193434298038482666015625</LatitudeDegrees>
              <LongitudeDegrees>-1.99681769125163555145263671875</LongitudeDegrees>
            </Position>
            <AltitudeMeters>101.40000152587890625</AltitudeMeters>
            <DistanceMeters>NAN</DistanceMeters>
          </Trackpoint>
          <Trackpoint>
            <Time>2021-08-12T16:06:56.000Z</Time>
            <Position>
              <LatitudeDegrees>43.2744236290454864501953125</LatitudeDegrees>
              <LongitudeDegrees>-1.996368505060672760009765625</LongitudeDegrees>
            </Position>
            <AltitudeMeters>101.1999969482421875</AltitudeMeters>
            <DistanceMeters>NAN</DistanceMeters>
          </Trackpoint>
          <Trackpoint>
            <Time>2021-08-12T16:06:58.000Z</Time>
            <Position>
              <LatitudeDegrees>43.27440443448722362518310546875</LatitudeDegrees>
              <LongitudeDegrees>-1.99622928164899349212646484375</LongitudeDegrees>
            </Position>
            <AltitudeMeters>101</AltitudeMeters>
            <DistanceMeters>NAN</DistanceMeters>
          </Trackpoint>
          <Trackpoint>
            <Time>2021-08-12T16:07:00.000Z</Time>
            <Position>
              <LatitudeDegrees>43.27438968233764171600341796875</LatitudeDegrees>
              <LongitudeDegrees>-1.99610372073948383331298828125</LongitudeDegrees>
            </Position>
            <AltitudeMeters>100.8000030517578125</AltitudeMeters>
            <DistanceMeters>NAN</DistanceMeters>
          </Trackpoint>
          <Trackpoint>
            <Time>2021-08-12T16:07:01.000Z</Time>
            <Position>
              <LatitudeDegrees>43.274384401738643646240234375</LatitudeDegrees>
              <LongitudeDegrees>-1.99605233967304229736328125</LongitudeDegrees>
            </Position>
            <AltitudeMeters>100.8000030517578125</AltitudeMeters>
            <DistanceMeters>NAN</DistanceMeters>
          </Trackpoint>
          <Trackpoint>
            <Time>2021-08-12T16:07:02.000Z</Time>
            <Position>
              <LatitudeDegrees>43.27437727712094783782958984375</LatitudeDegrees>
              <LongitudeDegrees>-1.99599006213247776031494140625</LongitudeDegrees>
            </Position>
            <AltitudeMeters>100.59999847412109375</AltitudeMeters>
            <DistanceMeters>NAN</DistanceMeters>
          </Trackpoint>
          <Trackpoint>
            <Time>2021-08-12T16:07:03.000Z</Time>
            <Position>
              <LatitudeDegrees>43.274367637932300567626953125</LatitudeDegrees>
              <LongitudeDegrees>-1.995932646095752716064453125</LongitudeDegrees>
            </Position>
            <AltitudeMeters>100.59999847412109375</AltitudeMeters>
            <DistanceMeters>NAN</DistanceMeters>
          </Trackpoint>
          <Trackpoint>
            <Time>2021-08-12T16:07:04.000Z</Time>
            <Position>
              <LatitudeDegrees>43.2743570767343044281005859375</LatitudeDegrees>
              <LongitudeDegrees>-1.99586927890777587890625</LongitudeDegrees>
            </Position>
            <AltitudeMeters>100.59999847412109375</AltitudeMeters>
            <DistanceMeters>NAN</DistanceMeters>
          </Trackpoint>
          <Trackpoint>
            <Time>2021-08-12T16:07:05.000Z</Time>
            <Position>
              <LatitudeDegrees>43.27435053884983062744140625</LatitudeDegrees>
              <LongitudeDegrees>-1.9958221726119518280029296875</LongitudeDegrees>
            </Position>
            <AltitudeMeters>100.59999847412109375</AltitudeMeters>
            <DistanceMeters>NAN</DistanceMeters>
          </Trackpoint>
          <Trackpoint>
            <Time>2021-08-12T16:07:06.000Z</Time>
            <Position>
              <LatitudeDegrees>43.2743446715176105499267578125</LatitudeDegrees>
              <LongitudeDegrees>-1.9957886449992656707763671875</LongitudeDegrees>
            </Position>
            <AltitudeMeters>100.40000152587890625</AltitudeMeters>
            <DistanceMeters>NAN</DistanceMeters>
          </Trackpoint>
          <Trackpoint>
            <Time>2021-08-12T16:07:07.000Z</Time>
            <Position>
              <LatitudeDegrees>43.274337463080883026123046875</LatitudeDegrees>
              <LongitudeDegrees>-1.9957507587969303131103515625</LongitudeDegrees>
            </Position>
            <AltitudeMeters>100.40000152587890625</AltitudeMeters>
            <DistanceMeters>NAN</DistanceMeters>
          </Trackpoint>
          <Trackpoint>
            <Time>2021-08-12T16:07:08.000Z</Time>
            <Position>
              <LatitudeDegrees>43.27432715333998203277587890625</LatitudeDegrees>
              <LongitudeDegrees>-1.99571530334651470184326171875</LongitudeDegrees>
            </Position>
            <AltitudeMeters>100.40000152587890625</AltitudeMeters>
            <DistanceMeters>NAN</DistanceMeters>
          </Trackpoint>
          <Trackpoint>
            <Time>2021-08-12T16:07:09.000Z</Time>
            <Position>
              <LatitudeDegrees>43.27431642450392246246337890625</LatitudeDegrees>
              <LongitudeDegrees>-1.9956776686012744903564453125</LongitudeDegrees>
            </Position>
            <AltitudeMeters>100.1999969482421875</AltitudeMeters>
            <DistanceMeters>NAN</DistanceMeters>
          </Trackpoint>
          <Trackpoint>
            <Time>2021-08-12T16:07:10.000Z</Time>
            <Position>
              <LatitudeDegrees>43.2743151672184467315673828125</LatitudeDegrees>
              <LongitudeDegrees>-1.99564757756888866424560546875</LongitudeDegrees>
            </Position>
            <AltitudeMeters>100.1999969482421875</AltitudeMeters>
            <DistanceMeters>NAN</DistanceMeters>
          </Trackpoint>
          <Trackpoint>
            <Time>2021-08-12T16:07:11.000Z</Time>
            <Position>
              <LatitudeDegrees>43.27431608922779560089111328125</LatitudeDegrees>
              <LongitudeDegrees>-1.99562855064868927001953125</LongitudeDegrees>
            </Position>
            <AltitudeMeters>100</AltitudeMeters>
            <DistanceMeters>NAN</DistanceMeters>
          </Trackpoint>
          <Trackpoint>
            <Time>2021-08-12T16:07:12.000Z</Time>
            <Position>
              <LatitudeDegrees>43.27431793324649333953857421875</LatitudeDegrees>
              <LongitudeDegrees>-1.99561270885169506072998046875</LongitudeDegrees>
            </Position>
            <AltitudeMeters>100.1999969482421875</AltitudeMeters>
            <DistanceMeters>NAN</DistanceMeters>
          </Trackpoint>
          <Trackpoint>
            <Time>2021-08-12T16:07:13.000Z</Time>
            <Position>
              <LatitudeDegrees>43.2743188552558422088623046875</LatitudeDegrees>
              <LongitudeDegrees>-1.9956065900623798370361328125</LongitudeDegrees>
            </Position>
            <AltitudeMeters>100</AltitudeMeters>
            <DistanceMeters>NAN</DistanceMeters>
          </Trackpoint>
          <Trackpoint>
            <Time>2021-08-12T16:07:14.000Z</Time>
            <Position>
              <LatitudeDegrees>43.2743188552558422088623046875</LatitudeDegrees>
              <LongitudeDegrees>-1.9956065900623798370361328125</LongitudeDegrees>
            </Position>
            <AltitudeMeters>99.8000030517578125</AltitudeMeters>
            <DistanceMeters>NAN</DistanceMeters>
          </Trackpoint>
          <Trackpoint>
            <Time>2021-08-12T16:07:17.000Z</Time>
            <Position>
              <LatitudeDegrees>43.2743188552558422088623046875</LatitudeDegrees>
              <LongitudeDegrees>-1.9956065900623798370361328125</LongitudeDegrees>
            </Position>
            <AltitudeMeters>99.8000030517578125</AltitudeMeters>
            <DistanceMeters>NAN</DistanceMeters>
          </Trackpoint>
          <Trackpoint>
            <Time>2021-08-12T16:07:19.000Z</Time>
            <Position>
              <LatitudeDegrees>43.2743188552558422088623046875</LatitudeDegrees>
              <LongitudeDegrees>-1.9956065900623798370361328125</LongitudeDegrees>
            </Position>
            <AltitudeMeters>99.59999847412109375</AltitudeMeters>
            <DistanceMeters>NAN</DistanceMeters>
          </Trackpoint>
          <Trackpoint>
            <Time>2021-08-12T16:07:29.000Z</Time>
            <Position>
              <LatitudeDegrees>43.2743190228939056396484375</LatitudeDegrees>
              <LongitudeDegrees>-1.99560382403433322906494140625</LongitudeDegrees>
            </Position>
            <AltitudeMeters>99.40000152587890625</AltitudeMeters>
            <DistanceMeters>NAN</DistanceMeters>
          </Trackpoint>
          <Trackpoint>
            <Time>2021-08-12T16:07:31.000Z</Time>
            <Position>
              <LatitudeDegrees>43.27431810088455677032470703125</LatitudeDegrees>
              <LongitudeDegrees>-1.995512880384922027587890625</LongitudeDegrees>
            </Position>
            <AltitudeMeters>99.40000152587890625</AltitudeMeters>
            <DistanceMeters>NAN</DistanceMeters>
          </Trackpoint>
          <Trackpoint>
            <Time>2021-08-12T16:07:33.000Z</Time>
            <Position>
              <LatitudeDegrees>43.27433444559574127197265625</LatitudeDegrees>
              <LongitudeDegrees>-1.995406262576580047607421875</LongitudeDegrees>
            </Position>
            <AltitudeMeters>99.40000152587890625</AltitudeMeters>
            <DistanceMeters>NAN</DistanceMeters>
          </Trackpoint>
          <Trackpoint>
            <Time>2021-08-12T16:07:35.000Z</Time>
            <Position>
              <LatitudeDegrees>43.274381048977375030517578125</LatitudeDegrees>
              <LongitudeDegrees>-1.9952706433832645416259765625</LongitudeDegrees>
            </Position>
            <AltitudeMeters>99.40000152587890625</AltitudeMeters>
            <DistanceMeters>NAN</DistanceMeters>
          </Trackpoint>
          <Trackpoint>
            <Time>2021-08-12T16:07:36.000Z</Time>
            <Position>
              <LatitudeDegrees>43.2744110561907291412353515625</LatitudeDegrees>
              <LongitudeDegrees>-1.99518464505672454833984375</LongitudeDegrees>
            </Position>
            <AltitudeMeters>99.1999969482421875</AltitudeMeters>
            <DistanceMeters>NAN</DistanceMeters>
          </Trackpoint>
          <Trackpoint>
            <Time>2021-08-12T16:07:38.000Z</Time>
            <Position>
              <LatitudeDegrees>43.2744450867176055908203125</LatitudeDegrees>
              <LongitudeDegrees>-1.995039470493793487548828125</LongitudeDegrees>
            </Position>
            <AltitudeMeters>98.8000030517578125</AltitudeMeters>
            <DistanceMeters>NAN</DistanceMeters>
          </Trackpoint>
          <Trackpoint>
            <Time>2021-08-12T16:07:39.000Z</Time>
            <Position>
              <LatitudeDegrees>43.27445824630558490753173828125</LatitudeDegrees>
              <LongitudeDegrees>-1.9949571602046489715576171875</LongitudeDegrees>
            </Position>
            <AltitudeMeters>98.8000030517578125</AltitudeMeters>
            <DistanceMeters>NAN</DistanceMeters>
          </Trackpoint>
          <Trackpoint>
            <Time>2021-08-12T16:07:40.000Z</Time>
            <Position>
              <LatitudeDegrees>43.27446796931326389312744140625</LatitudeDegrees>
              <LongitudeDegrees>-1.99487208388745784759521484375</LongitudeDegrees>
            </Position>
            <AltitudeMeters>98.40000152587890625</AltitudeMeters>
            <DistanceMeters>NAN</DistanceMeters>
          </Trackpoint>
          <Trackpoint>
            <Time>2021-08-12T16:07:43.000Z</Time>
            <Position>
              <LatitudeDegrees>43.2744687236845493316650390625</LatitudeDegrees>
              <LongitudeDegrees>-1.9946153461933135986328125</LongitudeDegrees>
            </Position>
            <AltitudeMeters>97.59999847412109375</AltitudeMeters>
            <DistanceMeters>NAN</DistanceMeters>
          </Trackpoint>
          <Trackpoint>
            <Time>2021-08-12T16:07:44.000Z</Time>
            <Position>
              <LatitudeDegrees>43.2744643650949001312255859375</LatitudeDegrees>
              <LongitudeDegrees>-1.994554996490478515625</LongitudeDegrees>
            </Position>
            <AltitudeMeters>97.40000152587890625</AltitudeMeters>
            <DistanceMeters>NAN</DistanceMeters>
          </Trackpoint>
          <Trackpoint>
            <Time>2021-08-12T16:07:47.000Z</Time>
            <Position>
              <LatitudeDegrees>43.27442538924515247344970703125</LatitudeDegrees>
              <LongitudeDegrees>-1.99432759545743465423583984375</LongitudeDegrees>
            </Position>
            <AltitudeMeters>97</AltitudeMeters>
            <DistanceMeters>NAN</DistanceMeters>
          </Trackpoint>
          <Trackpoint>
            <Time>2021-08-12T16:07:48.000Z</Time>
            <Position>
              <LatitudeDegrees>43.274405859410762786865234375</LatitudeDegrees>
              <LongitudeDegrees>-1.99426339007914066314697265625</LongitudeDegrees>
            </Position>
            <AltitudeMeters>97</AltitudeMeters>
            <DistanceMeters>NAN</DistanceMeters>
          </Trackpoint>
          <Trackpoint>
            <Time>2021-08-12T16:07:49.000Z</Time>
            <Position>
              <LatitudeDegrees>43.274389095604419708251953125</LatitudeDegrees>
              <LongitudeDegrees>-1.99421980418264865875244140625</LongitudeDegrees>
            </Position>
            <AltitudeMeters>97</AltitudeMeters>
            <DistanceMeters>NAN</DistanceMeters>
          </Trackpoint>
          <Trackpoint>
            <Time>2021-08-12T16:07:50.000Z</Time>
            <Position>
              <LatitudeDegrees>43.27437174506485462188720703125</LatitudeDegrees>
              <LongitudeDegrees>-1.994175128638744354248046875</LongitudeDegrees>
            </Position>
            <AltitudeMeters>97</AltitudeMeters>
            <DistanceMeters>NAN</DistanceMeters>
          </Trackpoint>
          <Trackpoint>
            <Time>2021-08-12T16:07:51.000Z</Time>
            <Position>
              <LatitudeDegrees>43.27435213141143321990966796875</LatitudeDegrees>
              <LongitudeDegrees>-1.994142271578311920166015625</LongitudeDegrees>
            </Position>
            <AltitudeMeters>97</AltitudeMeters>
            <DistanceMeters>NAN</DistanceMeters>
          </Trackpoint>
          <Trackpoint>
            <Time>2021-08-12T16:07:52.000Z</Time>
            <Position>
              <LatitudeDegrees>43.27432899735867977142333984375</LatitudeDegrees>
              <LongitudeDegrees>-1.9941137731075286865234375</LongitudeDegrees>
            </Position>
            <AltitudeMeters>97</AltitudeMeters>
            <DistanceMeters>NAN</DistanceMeters>
          </Trackpoint>
          <Trackpoint>
            <Time>2021-08-12T16:07:53.000Z</Time>
            <Position>
              <LatitudeDegrees>43.27430628240108489990234375</LatitudeDegrees>
              <LongitudeDegrees>-1.99409709312021732330322265625</LongitudeDegrees>
            </Position>
            <AltitudeMeters>96.8000030517578125</AltitudeMeters>
            <DistanceMeters>NAN</DistanceMeters>
          </Trackpoint>
          <Trackpoint>
            <Time>2021-08-12T16:07:54.000Z</Time>
            <Position>
              <LatitudeDegrees>43.2742870040237903594970703125</LatitudeDegrees>
              <LongitudeDegrees>-1.99408519081771373748779296875</LongitudeDegrees>
            </Position>
            <AltitudeMeters>96.8000030517578125</AltitudeMeters>
            <DistanceMeters>NAN</DistanceMeters>
          </Trackpoint>
          <Trackpoint>
            <Time>2021-08-12T16:07:55.000Z</Time>
            <Position>
              <LatitudeDegrees>43.2742655463516712188720703125</LatitudeDegrees>
              <LongitudeDegrees>-1.99407110922038555145263671875</LongitudeDegrees>
            </Position>
            <AltitudeMeters>96.8000030517578125</AltitudeMeters>
            <DistanceMeters>NAN</DistanceMeters>
          </Trackpoint>
          <Trackpoint>
            <Time>2021-08-12T16:07:56.000Z</Time>
            <Position>
              <LatitudeDegrees>43.2742481119930744171142578125</LatitudeDegrees>
              <LongitudeDegrees>-1.99405702762305736541748046875</LongitudeDegrees>
            </Position>
            <AltitudeMeters>96.8000030517578125</AltitudeMeters>
            <DistanceMeters>NAN</DistanceMeters>
          </Trackpoint>
          <Trackpoint>
            <Time>2021-08-12T16:07:57.000Z</Time>
            <Position>
              <LatitudeDegrees>43.2742273248732089996337890625</LatitudeDegrees>
              <LongitudeDegrees>-1.9940405152738094329833984375</LongitudeDegrees>
            </Position>
            <AltitudeMeters>96.59999847412109375</AltitudeMeters>
            <DistanceMeters>NAN</DistanceMeters>
          </Trackpoint>
          <Trackpoint>
            <Time>2021-08-12T16:07:58.000Z</Time>
            <Position>
              <LatitudeDegrees>43.2742078788578510284423828125</LatitudeDegrees>
              <LongitudeDegrees>-1.994029618799686431884765625</LongitudeDegrees>
            </Position>
            <AltitudeMeters>96.59999847412109375</AltitudeMeters>
            <DistanceMeters>NAN</DistanceMeters>
          </Trackpoint>
          <Trackpoint>
            <Time>2021-08-12T16:07:59.000Z</Time>
            <Position>
              <LatitudeDegrees>43.274187259376049041748046875</LatitudeDegrees>
              <LongitudeDegrees>-1.99401813559234142303466796875</LongitudeDegrees>
            </Position>
            <AltitudeMeters>96.59999847412109375</AltitudeMeters>
            <DistanceMeters>NAN</DistanceMeters>
          </Trackpoint>
          <Trackpoint>
            <Time>2021-08-12T16:08:00.000Z</Time>
            <Position>
              <LatitudeDegrees>43.274169825017452239990234375</LatitudeDegrees>
              <LongitudeDegrees>-1.99400849640369415283203125</LongitudeDegrees>
            </Position>
            <AltitudeMeters>96.59999847412109375</AltitudeMeters>
            <DistanceMeters>NAN</DistanceMeters>
          </Trackpoint>
          <Trackpoint>
            <Time>2021-08-12T16:08:01.000Z</Time>
            <Position>
              <LatitudeDegrees>43.27414845116436481475830078125</LatitudeDegrees>
              <LongitudeDegrees>-1.9939949177205562591552734375</LongitudeDegrees>
            </Position>
            <AltitudeMeters>96.59999847412109375</AltitudeMeters>
            <DistanceMeters>NAN</DistanceMeters>
          </Trackpoint>
          <Trackpoint>
            <Time>2021-08-12T16:08:02.000Z</Time>
            <Position>
              <LatitudeDegrees>43.2741270773112773895263671875</LatitudeDegrees>
              <LongitudeDegrees>-1.99397689662873744964599609375</LongitudeDegrees>
            </Position>
            <AltitudeMeters>96.59999847412109375</AltitudeMeters>
            <DistanceMeters>NAN</DistanceMeters>
          </Trackpoint>
          <Trackpoint>
            <Time>2021-08-12T16:08:03.000Z</Time>
            <Position>
              <LatitudeDegrees>43.27411056496202945709228515625</LatitudeDegrees>
              <LongitudeDegrees>-1.99396482668817043304443359375</LongitudeDegrees>
            </Position>
            <AltitudeMeters>96.59999847412109375</AltitudeMeters>
            <DistanceMeters>NAN</DistanceMeters>
          </Trackpoint>
          <Trackpoint>
            <Time>2021-08-12T16:08:04.000Z</Time>
            <Position>
              <LatitudeDegrees>43.27409480698406696319580078125</LatitudeDegrees>
              <LongitudeDegrees>-1.99395258910953998565673828125</LongitudeDegrees>
            </Position>
            <AltitudeMeters>96.59999847412109375</AltitudeMeters>
            <DistanceMeters>NAN</DistanceMeters>
          </Trackpoint>
          <Trackpoint>
            <Time>2021-08-12T16:08:05.000Z</Time>
            <Position>
              <LatitudeDegrees>43.27408223412930965423583984375</LatitudeDegrees>
              <LongitudeDegrees>-1.99394269846379756927490234375</LongitudeDegrees>
            </Position>
            <AltitudeMeters>96.59999847412109375</AltitudeMeters>
            <DistanceMeters>NAN</DistanceMeters>
          </Trackpoint>
          <Trackpoint>
            <Time>2021-08-12T16:08:06.000Z</Time>
            <Position>
              <LatitudeDegrees>43.2740663923323154449462890625</LatitudeDegrees>
              <LongitudeDegrees>-1.9939328916370868682861328125</LongitudeDegrees>
            </Position>
            <AltitudeMeters>96.59999847412109375</AltitudeMeters>
            <DistanceMeters>NAN</DistanceMeters>
          </Trackpoint>
          <Trackpoint>
            <Time>2021-08-12T16:08:09.000Z</Time>
            <Position>
              <LatitudeDegrees>43.273988105356693267822265625</LatitudeDegrees>
              <LongitudeDegrees>-1.9938655011355876922607421875</LongitudeDegrees>
            </Position>
            <AltitudeMeters>96.59999847412109375</AltitudeMeters>
            <DistanceMeters>NAN</DistanceMeters>
          </Trackpoint>
          <Trackpoint>
            <Time>2021-08-12T16:08:13.000Z</Time>
            <Position>
              <LatitudeDegrees>43.27386447228491306304931640625</LatitudeDegrees>
              <LongitudeDegrees>-1.99377640150487422943115234375</LongitudeDegrees>
            </Position>
            <AltitudeMeters>96.8000030517578125</AltitudeMeters>
            <DistanceMeters>NAN</DistanceMeters>
          </Trackpoint>
          <Trackpoint>
            <Time>2021-08-12T16:08:14.000Z</Time>
            <Position>
              <LatitudeDegrees>43.273831196129322052001953125</LatitudeDegrees>
              <LongitudeDegrees>-1.99375343509018421173095703125</LongitudeDegrees>
            </Position>
            <AltitudeMeters>96.8000030517578125</AltitudeMeters>
            <DistanceMeters>NAN</DistanceMeters>
          </Trackpoint>
          <Trackpoint>
            <Time>2021-08-12T16:08:16.000Z</Time>
            <Position>
              <LatitudeDegrees>43.2737676613032817840576171875</LatitudeDegrees>
              <LongitudeDegrees>-1.99371655471622943878173828125</LongitudeDegrees>
            </Position>
            <AltitudeMeters>96.8000030517578125</AltitudeMeters>
            <DistanceMeters>NAN</DistanceMeters>
          </Trackpoint>
          <Trackpoint>
            <Time>2021-08-12T16:08:23.000Z</Time>
            <Position>
              <LatitudeDegrees>43.27351980842649936676025390625</LatitudeDegrees>
              <LongitudeDegrees>-1.99353374540805816650390625</LongitudeDegrees>
            </Position>
            <AltitudeMeters>97.1999969482421875</AltitudeMeters>
            <DistanceMeters>NAN</DistanceMeters>
          </Trackpoint>
          <Trackpoint>
            <Time>2021-08-12T16:08:28.000Z</Time>
            <Position>
              <LatitudeDegrees>43.2733480632305145263671875</LatitudeDegrees>
              <LongitudeDegrees>-1.9934229366481304168701171875</LongitudeDegrees>
            </Position>
            <AltitudeMeters>97.40000152587890625</AltitudeMeters>
            <DistanceMeters>NAN</DistanceMeters>
          </Trackpoint>
          <Trackpoint>
            <Time>2021-08-12T16:08:30.000Z</Time>
            <Position>
              <LatitudeDegrees>43.27328477986156940460205078125</LatitudeDegrees>
              <LongitudeDegrees>-1.99337507598102092742919921875</LongitudeDegrees>
            </Position>
            <AltitudeMeters>97.59999847412109375</AltitudeMeters>
            <DistanceMeters>NAN</DistanceMeters>
          </Trackpoint>
          <Trackpoint>
            <Time>2021-08-12T16:08:31.000Z</Time>
            <Position>
              <LatitudeDegrees>43.2732573710381984710693359375</LatitudeDegrees>
              <LongitudeDegrees>-1.99335831217467784881591796875</LongitudeDegrees>
            </Position>
            <AltitudeMeters>97.8000030517578125</AltitudeMeters>
            <DistanceMeters>NAN</DistanceMeters>
          </Trackpoint>
          <Trackpoint>
            <Time>2021-08-12T16:08:32.000Z</Time>
            <Position>
              <LatitudeDegrees>43.2732573710381984710693359375</LatitudeDegrees>
              <LongitudeDegrees>-1.99335831217467784881591796875</LongitudeDegrees>
            </Position>
            <AltitudeMeters>97.8000030517578125</AltitudeMeters>
            <DistanceMeters>NAN</DistanceMeters>
          </Trackpoint>
          <Trackpoint>
            <Time>2021-08-12T16:08:33.000Z</Time>
            <Position>
              <LatitudeDegrees>43.2732023857533931732177734375</LatitudeDegrees>
              <LongitudeDegrees>-1.9933330826461315155029296875</LongitudeDegrees>
            </Position>
            <AltitudeMeters>97.8000030517578125</AltitudeMeters>
            <DistanceMeters>NAN</DistanceMeters>
          </Trackpoint>
          <Trackpoint>
            <Time>2021-08-12T16:08:34.000Z</Time>
            <Position>
              <LatitudeDegrees>43.27316634356975555419921875</LatitudeDegrees>
              <LongitudeDegrees>-1.9933133013546466827392578125</LongitudeDegrees>
            </Position>
            <AltitudeMeters>98</AltitudeMeters>
            <DistanceMeters>NAN</DistanceMeters>
          </Trackpoint>
          <Trackpoint>
            <Time>2021-08-12T16:08:38.000Z</Time>
            <Position>
              <LatitudeDegrees>43.272998034954071044921875</LatitudeDegrees>
              <LongitudeDegrees>-1.99321598745882511138916015625</LongitudeDegrees>
            </Position>
            <AltitudeMeters>98.40000152587890625</AltitudeMeters>
            <DistanceMeters>NAN</DistanceMeters>
          </Trackpoint>
          <Trackpoint>
            <Time>2021-08-12T16:08:39.000Z</Time>
            <Position>
              <LatitudeDegrees>43.27295218594372272491455078125</LatitudeDegrees>
              <LongitudeDegrees>-1.993189752101898193359375</LongitudeDegrees>
            </Position>
            <AltitudeMeters>99</AltitudeMeters>
            <DistanceMeters>NAN</DistanceMeters>
          </Trackpoint>
          <Trackpoint>
            <Time>2021-08-12T16:08:40.000Z</Time>
            <Position>
              <LatitudeDegrees>43.27290306799113750457763671875</LatitudeDegrees>
              <LongitudeDegrees>-1.99316519312560558319091796875</LongitudeDegrees>
            </Position>
            <AltitudeMeters>99</AltitudeMeters>
            <DistanceMeters>NAN</DistanceMeters>
          </Trackpoint>
          <Trackpoint>
            <Time>2021-08-12T16:08:43.000Z</Time>
            <Position>
              <LatitudeDegrees>43.27278337441384792327880859375</LatitudeDegrees>
              <LongitudeDegrees>-1.99309696443378925323486328125</LongitudeDegrees>
            </Position>
            <AltitudeMeters>100.1999969482421875</AltitudeMeters>
            <DistanceMeters>NAN</DistanceMeters>
          </Trackpoint>
          <Trackpoint>
            <Time>2021-08-12T16:08:45.000Z</Time>
            <Position>
              <LatitudeDegrees>43.27270190231502056121826171875</LatitudeDegrees>
              <LongitudeDegrees>-1.99303141795098781585693359375</LongitudeDegrees>
            </Position>
            <AltitudeMeters>100.59999847412109375</AltitudeMeters>
            <DistanceMeters>NAN</DistanceMeters>
          </Trackpoint>
          <Trackpoint>
            <Time>2021-08-12T16:08:46.000Z</Time>
            <Position>
              <LatitudeDegrees>43.27266485430300235748291015625</LatitudeDegrees>
              <LongitudeDegrees>-1.99299990199506282806396484375</LongitudeDegrees>
            </Position>
            <AltitudeMeters>101</AltitudeMeters>
            <DistanceMeters>NAN</DistanceMeters>
          </Trackpoint>
          <Trackpoint>
            <Time>2021-08-12T16:08:47.000Z</Time>
            <Position>
              <LatitudeDegrees>43.272627890110015869140625</LatitudeDegrees>
              <LongitudeDegrees>-1.99296645820140838623046875</LongitudeDegrees>
            </Position>
            <AltitudeMeters>101.1999969482421875</AltitudeMeters>
            <DistanceMeters>NAN</DistanceMeters>
          </Trackpoint>
          <Trackpoint>
            <Time>2021-08-12T16:08:48.000Z</Time>
            <Position>
              <LatitudeDegrees>43.27259478159248828887939453125</LatitudeDegrees>
              <LongitudeDegrees>-1.99292865581810474395751953125</LongitudeDegrees>
            </Position>
            <AltitudeMeters>101.59999847412109375</AltitudeMeters>
            <DistanceMeters>NAN</DistanceMeters>
          </Trackpoint>
          <Trackpoint>
            <Time>2021-08-12T16:08:49.000Z</Time>
            <Position>
              <LatitudeDegrees>43.27256225980818271636962890625</LatitudeDegrees>
              <LongitudeDegrees>-1.99289713986217975616455078125</LongitudeDegrees>
            </Position>
            <AltitudeMeters>101.8000030517578125</AltitudeMeters>
            <DistanceMeters>NAN</DistanceMeters>
          </Trackpoint>
          <Trackpoint>
            <Time>2021-08-12T16:08:50.000Z</Time>
            <Position>
              <LatitudeDegrees>43.27252588234841823577880859375</LatitudeDegrees>
              <LongitudeDegrees>-1.9928680546581745147705078125</LongitudeDegrees>
            </Position>
            <AltitudeMeters>102.40000152587890625</AltitudeMeters>
            <DistanceMeters>NAN</DistanceMeters>
          </Trackpoint>
          <Trackpoint>
            <Time>2021-08-12T16:08:51.000Z</Time>
            <Position>
              <LatitudeDegrees>43.27248766086995601654052734375</LatitudeDegrees>
              <LongitudeDegrees>-1.9928372092545032501220703125</LongitudeDegrees>
            </Position>
            <AltitudeMeters>102.8000030517578125</AltitudeMeters>
            <DistanceMeters>NAN</DistanceMeters>
          </Trackpoint>
          <Trackpoint>
            <Time>2021-08-12T16:08:52.000Z</Time>
            <Position>
              <LatitudeDegrees>43.2724523730576038360595703125</LatitudeDegrees>
              <LongitudeDegrees>-1.99280628003180027008056640625</LongitudeDegrees>
            </Position>
            <AltitudeMeters>103.40000152587890625</AltitudeMeters>
            <DistanceMeters>NAN</DistanceMeters>
          </Trackpoint>
          <Trackpoint>
            <Time>2021-08-12T16:08:53.000Z</Time>
            <Position>
              <LatitudeDegrees>43.272419013082981109619140625</LatitudeDegrees>
              <LongitudeDegrees>-1.9927708245813846588134765625</LongitudeDegrees>
            </Position>
            <AltitudeMeters>104</AltitudeMeters>
            <DistanceMeters>NAN</DistanceMeters>
          </Trackpoint>
          <Trackpoint>
            <Time>2021-08-12T16:08:54.000Z</Time>
            <Position>
              <LatitudeDegrees>43.27238473109900951385498046875</LatitudeDegrees>
              <LongitudeDegrees>-1.99273788370192050933837890625</LongitudeDegrees>
            </Position>
            <AltitudeMeters>104.1999969482421875</AltitudeMeters>
            <DistanceMeters>NAN</DistanceMeters>
          </Trackpoint>
          <Trackpoint>
            <Time>2021-08-12T16:08:55.000Z</Time>
            <Position>
              <LatitudeDegrees>43.27235287986695766448974609375</LatitudeDegrees>
              <LongitudeDegrees>-1.99270502664148807525634765625</LongitudeDegrees>
            </Position>
            <AltitudeMeters>104.59999847412109375</AltitudeMeters>
            <DistanceMeters>NAN</DistanceMeters>
          </Trackpoint>
          <Trackpoint>
            <Time>2021-08-12T16:08:56.000Z</Time>
            <Position>
              <LatitudeDegrees>43.27232689596712589263916015625</LatitudeDegrees>
              <LongitudeDegrees>-1.99267049320042133331298828125</LongitudeDegrees>
            </Position>
            <AltitudeMeters>104.8000030517578125</AltitudeMeters>
            <DistanceMeters>NAN</DistanceMeters>
          </Trackpoint>
          <Trackpoint>
            <Time>2021-08-12T16:08:57.000Z</Time>
            <Position>
              <LatitudeDegrees>43.2723051868379116058349609375</LatitudeDegrees>
              <LongitudeDegrees>-1.99263428337872028350830078125</LongitudeDegrees>
            </Position>
            <AltitudeMeters>105.40000152587890625</AltitudeMeters>
            <DistanceMeters>NAN</DistanceMeters>
          </Trackpoint>
          <Trackpoint>
            <Time>2021-08-12T16:08:58.000Z</Time>
            <Position>
              <LatitudeDegrees>43.2722890935838222503662109375</LatitudeDegrees>
              <LongitudeDegrees>-1.9926068745553493499755859375</LongitudeDegrees>
            </Position>
            <AltitudeMeters>105.8000030517578125</AltitudeMeters>
            <DistanceMeters>NAN</DistanceMeters>
          </Trackpoint>
          <Trackpoint>
            <Time>2021-08-12T16:08:59.000Z</Time>
            <Position>
              <LatitudeDegrees>43.27227124013006687164306640625</LatitudeDegrees>
              <LongitudeDegrees>-1.99257611297070980072021484375</LongitudeDegrees>
            </Position>
            <AltitudeMeters>106.40000152587890625</AltitudeMeters>
            <DistanceMeters>NAN</DistanceMeters>
          </Trackpoint>
          <Trackpoint>
            <Time>2021-08-12T16:09:00.000Z</Time>
            <Position>
              <LatitudeDegrees>43.27225145883858203887939453125</LatitudeDegrees>
              <LongitudeDegrees>-1.99254543520510196685791015625</LongitudeDegrees>
            </Position>
            <AltitudeMeters>106.8000030517578125</AltitudeMeters>
            <DistanceMeters>NAN</DistanceMeters>
          </Trackpoint>
          <Trackpoint>
            <Time>2021-08-12T16:09:01.000Z</Time>
            <Position>
              <LatitudeDegrees>43.27223016880452632904052734375</LatitudeDegrees>
              <LongitudeDegrees>-1.9925089739263057708740234375</LongitudeDegrees>
            </Position>
            <AltitudeMeters>107</AltitudeMeters>
            <DistanceMeters>NAN</DistanceMeters>
          </Trackpoint>
          <Trackpoint>
            <Time>2021-08-12T16:09:02.000Z</Time>
            <Position>
              <LatitudeDegrees>43.27221591956913471221923828125</LatitudeDegrees>
              <LongitudeDegrees>-1.99248659424483776092529296875</LongitudeDegrees>
            </Position>
            <AltitudeMeters>107.1999969482421875</AltitudeMeters>
            <DistanceMeters>NAN</DistanceMeters>
          </Trackpoint>
          <Trackpoint>
            <Time>2021-08-12T16:09:03.000Z</Time>
            <Position>
              <LatitudeDegrees>43.272206783294677734375</LatitudeDegrees>
              <LongitudeDegrees>-1.99247050099074840545654296875</LongitudeDegrees>
            </Position>
            <AltitudeMeters>107.59999847412109375</AltitudeMeters>
            <DistanceMeters>NAN</DistanceMeters>
          </Trackpoint>
          <Trackpoint>
            <Time>2021-08-12T16:09:04.000Z</Time>
            <Position>
              <LatitudeDegrees>43.27220016159117221832275390625</LatitudeDegrees>
              <LongitudeDegrees>-1.9924640469253063201904296875</LongitudeDegrees>
            </Position>
            <AltitudeMeters>108.59999847412109375</AltitudeMeters>
            <DistanceMeters>NAN</DistanceMeters>
          </Trackpoint>
          <Trackpoint>
            <Time>2021-08-12T16:09:05.000Z</Time>
            <Position>
              <LatitudeDegrees>43.2721978984773159027099609375</LatitudeDegrees>
              <LongitudeDegrees>-1.9924593530595302581787109375</LongitudeDegrees>
            </Position>
            <AltitudeMeters>108.8000030517578125</AltitudeMeters>
            <DistanceMeters>NAN</DistanceMeters>
          </Trackpoint>
          <Trackpoint>
            <Time>2021-08-12T16:09:06.000Z</Time>
            <Position>
              <LatitudeDegrees>43.2721978984773159027099609375</LatitudeDegrees>
              <LongitudeDegrees>-1.9924593530595302581787109375</LongitudeDegrees>
            </Position>
            <AltitudeMeters>109.40000152587890625</AltitudeMeters>
            <DistanceMeters>NAN</DistanceMeters>
          </Trackpoint>
          <Trackpoint>
            <Time>2021-08-12T16:09:07.000Z</Time>
            <Position>
              <LatitudeDegrees>43.2721978984773159027099609375</LatitudeDegrees>
              <LongitudeDegrees>-1.9924593530595302581787109375</LongitudeDegrees>
            </Position>
            <AltitudeMeters>110.1999969482421875</AltitudeMeters>
            <DistanceMeters>NAN</DistanceMeters>
          </Trackpoint>
          <Trackpoint>
            <Time>2021-08-12T16:09:12.000Z</Time>
            <Position>
              <LatitudeDegrees>43.2721978984773159027099609375</LatitudeDegrees>
              <LongitudeDegrees>-1.9924593530595302581787109375</LongitudeDegrees>
            </Position>
            <AltitudeMeters>111</AltitudeMeters>
            <DistanceMeters>NAN</DistanceMeters>
          </Trackpoint>
          <Trackpoint>
            <Time>2021-08-12T16:09:13.000Z</Time>
            <Position>
              <LatitudeDegrees>43.2721978984773159027099609375</LatitudeDegrees>
              <LongitudeDegrees>-1.9924593530595302581787109375</LongitudeDegrees>
            </Position>
            <AltitudeMeters>111.1999969482421875</AltitudeMeters>
            <DistanceMeters>NAN</DistanceMeters>
          </Trackpoint>
          <Trackpoint>
            <Time>2021-08-12T16:09:31.000Z</Time>
            <Position>
              <LatitudeDegrees>43.2721968926489353179931640625</LatitudeDegrees>
              <LongitudeDegrees>-1.99245725758373737335205078125</LongitudeDegrees>
            </Position>
            <AltitudeMeters>111.1999969482421875</AltitudeMeters>
            <DistanceMeters>NAN</DistanceMeters>
          </Trackpoint>
          <Trackpoint>
            <Time>2021-08-12T16:09:32.000Z</Time>
            <Position>
              <LatitudeDegrees>43.27219043858349323272705078125</LatitudeDegrees>
              <LongitudeDegrees>-1.99243479408323764801025390625</LongitudeDegrees>
            </Position>
            <AltitudeMeters>111.1999969482421875</AltitudeMeters>
            <DistanceMeters>NAN</DistanceMeters>
          </Trackpoint>
          <Trackpoint>
            <Time>2021-08-12T16:09:33.000Z</Time>
            <Position>
              <LatitudeDegrees>43.27217996120452880859375</LatitudeDegrees>
              <LongitudeDegrees>-1.99240126647055149078369140625</LongitudeDegrees>
            </Position>
            <AltitudeMeters>111.1999969482421875</AltitudeMeters>
            <DistanceMeters>NAN</DistanceMeters>
          </Trackpoint>
          <Trackpoint>
            <Time>2021-08-12T16:09:34.000Z</Time>
            <Position>
              <LatitudeDegrees>43.27216210775077342987060546875</LatitudeDegrees>
              <LongitudeDegrees>-1.99236304499208927154541015625</LongitudeDegrees>
            </Position>
            <AltitudeMeters>111.1999969482421875</AltitudeMeters>
            <DistanceMeters>NAN</DistanceMeters>
          </Trackpoint>
          <Trackpoint>
            <Time>2021-08-12T16:09:35.000Z</Time>
            <Position>
              <LatitudeDegrees>43.27213427983224391937255859375</LatitudeDegrees>
              <LongitudeDegrees>-1.99231811799108982086181640625</LongitudeDegrees>
            </Position>
            <AltitudeMeters>111.1999969482421875</AltitudeMeters>
            <DistanceMeters>NAN</DistanceMeters>
          </Trackpoint>
          <Trackpoint>
            <Time>2021-08-12T16:09:36.000Z</Time>
            <Position>
              <LatitudeDegrees>43.272095806896686553955078125</LatitudeDegrees>
              <LongitudeDegrees>-1.99226832948625087738037109375</LongitudeDegrees>
            </Position>
            <AltitudeMeters>111.1999969482421875</AltitudeMeters>
            <DistanceMeters>NAN</DistanceMeters>
          </Trackpoint>
          <Trackpoint>
            <Time>2021-08-12T16:09:37.000Z</Time>
            <Position>
              <LatitudeDegrees>43.27204811386764049530029296875</LatitudeDegrees>
              <LongitudeDegrees>-1.99221485294401645660400390625</LongitudeDegrees>
            </Position>
            <AltitudeMeters>111.1999969482421875</AltitudeMeters>
            <DistanceMeters>NAN</DistanceMeters>
          </Trackpoint>
          <Trackpoint>
            <Time>2021-08-12T16:09:38.000Z</Time>
            <Position>
              <LatitudeDegrees>43.271996565163135528564453125</LatitudeDegrees>
              <LongitudeDegrees>-1.9921579398214817047119140625</LongitudeDegrees>
            </Position>
            <AltitudeMeters>111.1999969482421875</AltitudeMeters>
            <DistanceMeters>NAN</DistanceMeters>
          </Trackpoint>
          <Trackpoint>
            <Time>2021-08-12T16:09:42.000Z</Time>
            <Position>
              <LatitudeDegrees>43.27179062180221080780029296875</LatitudeDegrees>
              <LongitudeDegrees>-1.99194109998643398284912109375</LongitudeDegrees>
            </Position>
            <AltitudeMeters>110.40000152587890625</AltitudeMeters>
            <DistanceMeters>NAN</DistanceMeters>
          </Trackpoint>
          <Trackpoint>
            <Time>2021-08-12T16:09:43.000Z</Time>
            <Position>
              <LatitudeDegrees>43.2717395760118961334228515625</LatitudeDegrees>
              <LongitudeDegrees>-1.9918937422335147857666015625</LongitudeDegrees>
            </Position>
            <AltitudeMeters>110</AltitudeMeters>
            <DistanceMeters>NAN</DistanceMeters>
          </Trackpoint>
          <Trackpoint>
            <Time>2021-08-12T16:09:44.000Z</Time>
            <Position>
              <LatitudeDegrees>43.27169104479253292083740234375</LatitudeDegrees>
              <LongitudeDegrees>-1.99184554629027843475341796875</LongitudeDegrees>
            </Position>
            <AltitudeMeters>109.40000152587890625</AltitudeMeters>
            <DistanceMeters>NAN</DistanceMeters>
          </Trackpoint>
          <Trackpoint>
            <Time>2021-08-12T16:09:45.000Z</Time>
            <Position>
              <LatitudeDegrees>43.2716448605060577392578125</LatitudeDegrees>
              <LongitudeDegrees>-1.99179793708026409149169921875</LongitudeDegrees>
            </Position>
            <AltitudeMeters>109.1999969482421875</AltitudeMeters>
            <DistanceMeters>NAN</DistanceMeters>
          </Trackpoint>
          <Trackpoint>
            <Time>2021-08-12T16:09:46.000Z</Time>
            <Position>
              <LatitudeDegrees>43.271600939333438873291015625</LatitudeDegrees>
              <LongitudeDegrees>-1.991750411689281463623046875</LongitudeDegrees>
            </Position>
            <AltitudeMeters>108.59999847412109375</AltitudeMeters>
            <DistanceMeters>NAN</DistanceMeters>
          </Trackpoint>
          <Trackpoint>
            <Time>2021-08-12T16:09:47.000Z</Time>
            <Position>
              <LatitudeDegrees>43.27155970036983489990234375</LatitudeDegrees>
              <LongitudeDegrees>-1.99170791544020175933837890625</LongitudeDegrees>
            </Position>
            <AltitudeMeters>108.59999847412109375</AltitudeMeters>
            <DistanceMeters>NAN</DistanceMeters>
          </Trackpoint>
          <Trackpoint>
            <Time>2021-08-12T16:09:48.000Z</Time>
            <Position>
              <LatitudeDegrees>43.2715213112533092498779296875</LatitudeDegrees>
              <LongitudeDegrees>-1.9916664250195026397705078125</LongitudeDegrees>
            </Position>
            <AltitudeMeters>108.1999969482421875</AltitudeMeters>
            <DistanceMeters>NAN</DistanceMeters>
          </Trackpoint>
          <Trackpoint>
            <Time>2021-08-12T16:09:49.000Z</Time>
            <Position>
              <LatitudeDegrees>43.271487616002559661865234375</LatitudeDegrees>
              <LongitudeDegrees>-1.99162275530397891998291015625</LongitudeDegrees>
            </Position>
            <AltitudeMeters>108</AltitudeMeters>
            <DistanceMeters>NAN</DistanceMeters>
          </Trackpoint>
          <Trackpoint>
            <Time>2021-08-12T16:09:50.000Z</Time>
            <Position>
              <LatitudeDegrees>43.27145568095147609710693359375</LatitudeDegrees>
              <LongitudeDegrees>-1.9915792532265186309814453125</LongitudeDegrees>
            </Position>
            <AltitudeMeters>108</AltitudeMeters>
            <DistanceMeters>NAN</DistanceMeters>
          </Trackpoint>
          <Trackpoint>
            <Time>2021-08-12T16:09:51.000Z</Time>
            <Position>
              <LatitudeDegrees>43.27142299152910709381103515625</LatitudeDegrees>
              <LongitudeDegrees>-1.99153684079647064208984375</LongitudeDegrees>
            </Position>
            <AltitudeMeters>108</AltitudeMeters>
            <DistanceMeters>NAN</DistanceMeters>
          </Trackpoint>
          <Trackpoint>
            <Time>2021-08-12T16:09:52.000Z</Time>
            <Position>
              <LatitudeDegrees>43.27139466069638729095458984375</LatitudeDegrees>
              <LongitudeDegrees>-1.9914944283664226531982421875</LongitudeDegrees>
            </Position>
            <AltitudeMeters>108</AltitudeMeters>
            <DistanceMeters>NAN</DistanceMeters>
          </Trackpoint>
          <Trackpoint>
            <Time>2021-08-12T16:09:53.000Z</Time>
            <Position>
              <LatitudeDegrees>43.271367587149143218994140625</LatitudeDegrees>
              <LongitudeDegrees>-1.9914505071938037872314453125</LongitudeDegrees>
            </Position>
            <AltitudeMeters>107.8000030517578125</AltitudeMeters>
            <DistanceMeters>NAN</DistanceMeters>
          </Trackpoint>
          <Trackpoint>
            <Time>2021-08-12T16:09:54.000Z</Time>
            <Position>
              <LatitudeDegrees>43.27134252525866031646728515625</LatitudeDegrees>
              <LongitudeDegrees>-1.991402395069599151611328125</LongitudeDegrees>
            </Position>
            <AltitudeMeters>107.8000030517578125</AltitudeMeters>
            <DistanceMeters>NAN</DistanceMeters>
          </Trackpoint>
          <Trackpoint>
            <Time>2021-08-12T16:09:55.000Z</Time>
            <Position>
              <LatitudeDegrees>43.27131771482527256011962890625</LatitudeDegrees>
              <LongitudeDegrees>-1.9913586415350437164306640625</LongitudeDegrees>
            </Position>
            <AltitudeMeters>107.8000030517578125</AltitudeMeters>
            <DistanceMeters>NAN</DistanceMeters>
          </Trackpoint>
          <Trackpoint>
            <Time>2021-08-12T16:09:56.000Z</Time>
            <Position>
              <LatitudeDegrees>43.271291814744472503662109375</LatitudeDegrees>
              <LongitudeDegrees>-1.99131899513304233551025390625</LongitudeDegrees>
            </Position>
            <AltitudeMeters>107.8000030517578125</AltitudeMeters>
            <DistanceMeters>NAN</DistanceMeters>
          </Trackpoint>
          <Trackpoint>
            <Time>2021-08-12T16:09:57.000Z</Time>
            <Position>
              <LatitudeDegrees>43.27126733958721160888671875</LatitudeDegrees>
              <LongitudeDegrees>-1.99128127656877040863037109375</LongitudeDegrees>
            </Position>
            <AltitudeMeters>107.59999847412109375</AltitudeMeters>
            <DistanceMeters>NAN</DistanceMeters>
          </Trackpoint>
          <Trackpoint>
            <Time>2021-08-12T16:09:58.000Z</Time>
            <Position>
              <LatitudeDegrees>43.27124361880123615264892578125</LatitudeDegrees>
              <LongitudeDegrees>-1.991246156394481658935546875</LongitudeDegrees>
            </Position>
            <AltitudeMeters>107.59999847412109375</AltitudeMeters>
            <DistanceMeters>NAN</DistanceMeters>
          </Trackpoint>
          <Trackpoint>
            <Time>2021-08-12T16:09:59.000Z</Time>
            <Position>
              <LatitudeDegrees>43.27122165821492671966552734375</LatitudeDegrees>
              <LongitudeDegrees>-1.9912143051624298095703125</LongitudeDegrees>
            </Position>
            <AltitudeMeters>107.59999847412109375</AltitudeMeters>
            <DistanceMeters>NAN</DistanceMeters>
          </Trackpoint>
          <Trackpoint>
            <Time>2021-08-12T16:10:00.000Z</Time>
            <Position>
              <LatitudeDegrees>43.2711996138095855712890625</LatitudeDegrees>
              <LongitudeDegrees>-1.99118119664490222930908203125</LongitudeDegrees>
            </Position>
            <AltitudeMeters>107.59999847412109375</AltitudeMeters>
            <DistanceMeters>NAN</DistanceMeters>
          </Trackpoint>
          <Trackpoint>
            <Time>2021-08-12T16:10:02.000Z</Time>
            <Position>
              <LatitudeDegrees>43.2711518369615077972412109375</LatitudeDegrees>
              <LongitudeDegrees>-1.9910989701747894287109375</LongitudeDegrees>
            </Position>
            <AltitudeMeters>107.59999847412109375</AltitudeMeters>
            <DistanceMeters>NAN</DistanceMeters>
          </Trackpoint>
          <Trackpoint>
            <Time>2021-08-12T16:10:07.000Z</Time>
            <Position>
              <LatitudeDegrees>43.27102317474782466888427734375</LatitudeDegrees>
              <LongitudeDegrees>-1.99079495854675769805908203125</LongitudeDegrees>
            </Position>
            <AltitudeMeters>107.59999847412109375</AltitudeMeters>
            <DistanceMeters>NAN</DistanceMeters>
          </Trackpoint>
          <Trackpoint>
            <Time>2021-08-12T16:10:10.000Z</Time>
            <Position>
              <LatitudeDegrees>43.27094321139156818389892578125</LatitudeDegrees>
              <LongitudeDegrees>-1.990560851991176605224609375</LongitudeDegrees>
            </Position>
            <AltitudeMeters>107.1999969482421875</AltitudeMeters>
            <DistanceMeters>NAN</DistanceMeters>
          </Trackpoint>
          <Trackpoint>
            <Time>2021-08-12T16:10:11.000Z</Time>
            <Position>
              <LatitudeDegrees>43.27092309482395648956298828125</LatitudeDegrees>
              <LongitudeDegrees>-1.9904346205294132232666015625</LongitudeDegrees>
            </Position>
            <AltitudeMeters>107.1999969482421875</AltitudeMeters>
            <DistanceMeters>NAN</DistanceMeters>
          </Trackpoint>
          <Trackpoint>
            <Time>2021-08-12T16:10:12.000Z</Time>
            <Position>
              <LatitudeDegrees>43.2709181495010852813720703125</LatitudeDegrees>
              <LongitudeDegrees>-1.9903236441314220428466796875</LongitudeDegrees>
            </Position>
            <AltitudeMeters>106.8000030517578125</AltitudeMeters>
            <DistanceMeters>NAN</DistanceMeters>
          </Trackpoint>
          <Trackpoint>
            <Time>2021-08-12T16:10:14.000Z</Time>
            <Position>
              <LatitudeDegrees>43.27091923914849758148193359375</LatitudeDegrees>
              <LongitudeDegrees>-1.99010462500154972076416015625</LongitudeDegrees>
            </Position>
            <AltitudeMeters>105.40000152587890625</AltitudeMeters>
            <DistanceMeters>NAN</DistanceMeters>
          </Trackpoint>
          <Trackpoint>
            <Time>2021-08-12T16:10:15.000Z</Time>
            <Position>
              <LatitudeDegrees>43.2709238491952419281005859375</LatitudeDegrees>
              <LongitudeDegrees>-1.9899980910122394561767578125</LongitudeDegrees>
            </Position>
            <AltitudeMeters>105</AltitudeMeters>
            <DistanceMeters>NAN</DistanceMeters>
          </Trackpoint>
          <Trackpoint>
            <Time>2021-08-12T16:10:16.000Z</Time>
            <Position>
              <LatitudeDegrees>43.27092594467103481292724609375</LatitudeDegrees>
              <LongitudeDegrees>-1.989896334707736968994140625</LongitudeDegrees>
            </Position>
            <AltitudeMeters>104.40000152587890625</AltitudeMeters>
            <DistanceMeters>NAN</DistanceMeters>
          </Trackpoint>
          <Trackpoint>
            <Time>2021-08-12T16:10:18.000Z</Time>
            <Position>
              <LatitudeDegrees>43.27092275954782962799072265625</LatitudeDegrees>
              <LongitudeDegrees>-1.989702545106410980224609375</LongitudeDegrees>
            </Position>
            <AltitudeMeters>103.40000152587890625</AltitudeMeters>
            <DistanceMeters>NAN</DistanceMeters>
          </Trackpoint>
          <Trackpoint>
            <Time>2021-08-12T16:10:19.000Z</Time>
            <Position>
              <LatitudeDegrees>43.27091840095818042755126953125</LatitudeDegrees>
              <LongitudeDegrees>-1.98961176909506320953369140625</LongitudeDegrees>
            </Position>
            <AltitudeMeters>103</AltitudeMeters>
            <DistanceMeters>NAN</DistanceMeters>
          </Trackpoint>
          <Trackpoint>
            <Time>2021-08-12T16:10:20.000Z</Time>
            <Position>
              <LatitudeDegrees>43.27091387473046779632568359375</LatitudeDegrees>
              <LongitudeDegrees>-1.989528201520442962646484375</LongitudeDegrees>
            </Position>
            <AltitudeMeters>103</AltitudeMeters>
            <DistanceMeters>NAN</DistanceMeters>
          </Trackpoint>
          <Trackpoint>
            <Time>2021-08-12T16:10:21.000Z</Time>
            <Position>
              <LatitudeDegrees>43.27090783976018428802490234375</LatitudeDegrees>
              <LongitudeDegrees>-1.989448405802249908447265625</LongitudeDegrees>
            </Position>
            <AltitudeMeters>102.8000030517578125</AltitudeMeters>
            <DistanceMeters>NAN</DistanceMeters>
          </Trackpoint>
          <Trackpoint>
            <Time>2021-08-12T16:10:22.000Z</Time>
            <Position>
              <LatitudeDegrees>43.2709007151424884796142578125</LatitudeDegrees>
              <LongitudeDegrees>-1.9893701188266277313232421875</LongitudeDegrees>
            </Position>
            <AltitudeMeters>102.8000030517578125</AltitudeMeters>
            <DistanceMeters>NAN</DistanceMeters>
          </Trackpoint>
          <Trackpoint>
            <Time>2021-08-12T16:10:23.000Z</Time>
            <Position>
              <LatitudeDegrees>43.270891495048999786376953125</LatitudeDegrees>
              <LongitudeDegrees>-1.98929392732679843902587890625</LongitudeDegrees>
            </Position>
            <AltitudeMeters>102.8000030517578125</AltitudeMeters>
            <DistanceMeters>NAN</DistanceMeters>
          </Trackpoint>
          <Trackpoint>
            <Time>2021-08-12T16:10:24.000Z</Time>
            <Position>
              <LatitudeDegrees>43.27088051475584506988525390625</LatitudeDegrees>
              <LongitudeDegrees>-1.98921714909374713897705078125</LongitudeDegrees>
            </Position>
            <AltitudeMeters>102.8000030517578125</AltitudeMeters>
            <DistanceMeters>NAN</DistanceMeters>
          </Trackpoint>
          <Trackpoint>
            <Time>2021-08-12T16:10:26.000Z</Time>
            <Position>
              <LatitudeDegrees>43.27085335738956928253173828125</LatitudeDegrees>
              <LongitudeDegrees>-1.98906275443732738494873046875</LongitudeDegrees>
            </Position>
            <AltitudeMeters>102.8000030517578125</AltitudeMeters>
            <DistanceMeters>NAN</DistanceMeters>
          </Trackpoint>
          <Trackpoint>
            <Time>2021-08-12T16:10:27.000Z</Time>
            <Position>
              <LatitudeDegrees>43.2708333246409893035888671875</LatitudeDegrees>
              <LongitudeDegrees>-1.9889892451465129852294921875</LongitudeDegrees>
            </Position>
            <AltitudeMeters>102.8000030517578125</AltitudeMeters>
            <DistanceMeters>NAN</DistanceMeters>
          </Trackpoint>
          <Trackpoint>
            <Time>2021-08-12T16:10:29.000Z</Time>
            <Position>
              <LatitudeDegrees>43.2707951031625270843505859375</LatitudeDegrees>
              <LongitudeDegrees>-1.98885454796254634857177734375</LongitudeDegrees>
            </Position>
            <AltitudeMeters>103</AltitudeMeters>
            <DistanceMeters>NAN</DistanceMeters>
          </Trackpoint>
          <Trackpoint>
            <Time>2021-08-12T16:10:30.000Z</Time>
            <Position>
              <LatitudeDegrees>43.27077574096620082855224609375</LatitudeDegrees>
              <LongitudeDegrees>-1.98879453353583812713623046875</LongitudeDegrees>
            </Position>
            <AltitudeMeters>103</AltitudeMeters>
            <DistanceMeters>NAN</DistanceMeters>
          </Trackpoint>
          <Trackpoint>
            <Time>2021-08-12T16:10:31.000Z</Time>
            <Position>
              <LatitudeDegrees>43.270752690732479095458984375</LatitudeDegrees>
              <LongitudeDegrees>-1.98873233981430530548095703125</LongitudeDegrees>
            </Position>
            <AltitudeMeters>103.1999969482421875</AltitudeMeters>
            <DistanceMeters>NAN</DistanceMeters>
          </Trackpoint>
          <Trackpoint>
            <Time>2021-08-12T16:10:32.000Z</Time>
            <Position>
              <LatitudeDegrees>43.27072419226169586181640625</LatitudeDegrees>
              <LongitudeDegrees>-1.98866930790245532989501953125</LongitudeDegrees>
            </Position>
            <AltitudeMeters>103.1999969482421875</AltitudeMeters>
            <DistanceMeters>NAN</DistanceMeters>
          </Trackpoint>
          <Trackpoint>
            <Time>2021-08-12T16:10:34.000Z</Time>
            <Position>
              <LatitudeDegrees>43.270659148693084716796875</LatitudeDegrees>
              <LongitudeDegrees>-1.9885419867932796478271484375</LongitudeDegrees>
            </Position>
            <AltitudeMeters>103.1999969482421875</AltitudeMeters>
            <DistanceMeters>NAN</DistanceMeters>
          </Trackpoint>
          <Trackpoint>
            <Time>2021-08-12T16:10:36.000Z</Time>
            <Position>
              <LatitudeDegrees>43.27056367881596088409423828125</LatitudeDegrees>
              <LongitudeDegrees>-1.98842011392116546630859375</LongitudeDegrees>
            </Position>
            <AltitudeMeters>103.1999969482421875</AltitudeMeters>
            <DistanceMeters>NAN</DistanceMeters>
          </Trackpoint>
          <Trackpoint>
            <Time>2021-08-12T16:10:40.000Z</Time>
            <Position>
              <LatitudeDegrees>43.27034323476254940032958984375</LatitudeDegrees>
              <LongitudeDegrees>-1.9882382266223430633544921875</LongitudeDegrees>
            </Position>
            <AltitudeMeters>102.8000030517578125</AltitudeMeters>
            <DistanceMeters>NAN</DistanceMeters>
          </Trackpoint>
          <Trackpoint>
            <Time>2021-08-12T16:10:42.000Z</Time>
            <Position>
              <LatitudeDegrees>43.27024784870445728302001953125</LatitudeDegrees>
              <LongitudeDegrees>-1.98813320137560367584228515625</LongitudeDegrees>
            </Position>
            <AltitudeMeters>102.40000152587890625</AltitudeMeters>
            <DistanceMeters>NAN</DistanceMeters>
          </Trackpoint>
          <Trackpoint>
            <Time>2021-08-12T16:10:43.000Z</Time>
            <Position>
              <LatitudeDegrees>43.2702045142650604248046875</LatitudeDegrees>
              <LongitudeDegrees>-1.98808089829981327056884765625</LongitudeDegrees>
            </Position>
            <AltitudeMeters>102.1999969482421875</AltitudeMeters>
            <DistanceMeters>NAN</DistanceMeters>
          </Trackpoint>
          <Trackpoint>
            <Time>2021-08-12T16:10:44.000Z</Time>
            <Position>
              <LatitudeDegrees>43.2701634429395198822021484375</LatitudeDegrees>
              <LongitudeDegrees>-1.98803446255624294281005859375</LongitudeDegrees>
            </Position>
            <AltitudeMeters>102</AltitudeMeters>
            <DistanceMeters>NAN</DistanceMeters>
          </Trackpoint>
          <Trackpoint>
            <Time>2021-08-12T16:10:45.000Z</Time>
            <Position>
              <LatitudeDegrees>43.27012396417558193206787109375</LatitudeDegrees>
              <LongitudeDegrees>-1.98799037374556064605712890625</LongitudeDegrees>
            </Position>
            <AltitudeMeters>101.8000030517578125</AltitudeMeters>
            <DistanceMeters>NAN</DistanceMeters>
          </Trackpoint>
          <Trackpoint>
            <Time>2021-08-12T16:10:46.000Z</Time>
            <Position>
              <LatitudeDegrees>43.27008691616356372833251953125</LatitudeDegrees>
              <LongitudeDegrees>-1.9879522360861301422119140625</LongitudeDegrees>
            </Position>
            <AltitudeMeters>101.8000030517578125</AltitudeMeters>
            <DistanceMeters>NAN</DistanceMeters>
          </Trackpoint>
          <Trackpoint>
            <Time>2021-08-12T16:10:47.000Z</Time>
            <Position>
              <LatitudeDegrees>43.27005221508443355560302734375</LatitudeDegrees>
              <LongitudeDegrees>-1.98792147450149059295654296875</LongitudeDegrees>
            </Position>
            <AltitudeMeters>101.8000030517578125</AltitudeMeters>
            <DistanceMeters>NAN</DistanceMeters>
          </Trackpoint>
          <Trackpoint>
            <Time>2021-08-12T16:10:48.000Z</Time>
            <Position>
              <LatitudeDegrees>43.27001952566206455230712890625</LatitudeDegrees>
              <LongitudeDegrees>-1.98789800517261028289794921875</LongitudeDegrees>
            </Position>
            <AltitudeMeters>101.8000030517578125</AltitudeMeters>
            <DistanceMeters>NAN</DistanceMeters>
          </Trackpoint>
          <Trackpoint>
            <Time>2021-08-12T16:10:49.000Z</Time>
            <Position>
              <LatitudeDegrees>43.2699874229729175567626953125</LatitudeDegrees>
              <LongitudeDegrees>-1.987878642976284027099609375</LongitudeDegrees>
            </Position>
            <AltitudeMeters>101.59999847412109375</AltitudeMeters>
            <DistanceMeters>NAN</DistanceMeters>
          </Trackpoint>
          <Trackpoint>
            <Time>2021-08-12T16:10:50.000Z</Time>
            <Position>
              <LatitudeDegrees>43.26995414681732654571533203125</LatitudeDegrees>
              <LongitudeDegrees>-1.9878576882183551788330078125</LongitudeDegrees>
            </Position>
            <AltitudeMeters>101.59999847412109375</AltitudeMeters>
            <DistanceMeters>NAN</DistanceMeters>
          </Trackpoint>
          <Trackpoint>
            <Time>2021-08-12T16:10:51.000Z</Time>
            <Position>
              <LatitudeDegrees>43.26991559006273746490478515625</LatitudeDegrees>
              <LongitudeDegrees>-1.987835727632045745849609375</LongitudeDegrees>
            </Position>
            <AltitudeMeters>101.59999847412109375</AltitudeMeters>
            <DistanceMeters>NAN</DistanceMeters>
          </Trackpoint>
          <Trackpoint>
            <Time>2021-08-12T16:10:53.000Z</Time>
            <Position>
              <LatitudeDegrees>43.2698397338390350341796875</LatitudeDegrees>
              <LongitudeDegrees>-1.9877866096794605255126953125</LongitudeDegrees>
            </Position>
            <AltitudeMeters>101.40000152587890625</AltitudeMeters>
            <DistanceMeters>NAN</DistanceMeters>
          </Trackpoint>
          <Trackpoint>
            <Time>2021-08-12T16:10:56.000Z</Time>
            <Position>
              <LatitudeDegrees>43.2697295956313610076904296875</LatitudeDegrees>
              <LongitudeDegrees>-1.98766171932220458984375</LongitudeDegrees>
            </Position>
            <AltitudeMeters>101</AltitudeMeters>
            <DistanceMeters>NAN</DistanceMeters>
          </Trackpoint>
          <Trackpoint>
            <Time>2021-08-12T16:10:57.000Z</Time>
            <Position>
              <LatitudeDegrees>43.2697037793695926666259765625</LatitudeDegrees>
              <LongitudeDegrees>-1.98762483894824981689453125</LongitudeDegrees>
            </Position>
            <AltitudeMeters>101</AltitudeMeters>
            <DistanceMeters>NAN</DistanceMeters>
          </Trackpoint>
          <Trackpoint>
            <Time>2021-08-12T16:10:58.000Z</Time>
            <Position>
              <LatitudeDegrees>43.2696692459285259246826171875</LatitudeDegrees>
              <LongitudeDegrees>-1.98758569546043872833251953125</LongitudeDegrees>
            </Position>
            <AltitudeMeters>100.8000030517578125</AltitudeMeters>
            <DistanceMeters>NAN</DistanceMeters>
          </Trackpoint>
          <Trackpoint>
            <Time>2021-08-12T16:10:59.000Z</Time>
            <Position>
              <LatitudeDegrees>43.2696246542036533355712890625</LatitudeDegrees>
              <LongitudeDegrees>-1.9875421933829784393310546875</LongitudeDegrees>
            </Position>
            <AltitudeMeters>100.8000030517578125</AltitudeMeters>
            <DistanceMeters>NAN</DistanceMeters>
          </Trackpoint>
          <Trackpoint>
            <Time>2021-08-12T16:11:00.000Z</Time>
            <Position>
              <LatitudeDegrees>43.26958349905908107757568359375</LatitudeDegrees>
              <LongitudeDegrees>-1.9874972663819789886474609375</LongitudeDegrees>
            </Position>
            <AltitudeMeters>100.59999847412109375</AltitudeMeters>
            <DistanceMeters>NAN</DistanceMeters>
          </Trackpoint>
          <Trackpoint>
            <Time>2021-08-12T16:11:04.000Z</Time>
            <Position>
              <LatitudeDegrees>43.26943044550716876983642578125</LatitudeDegrees>
              <LongitudeDegrees>-1.98733918368816375732421875</LongitudeDegrees>
            </Position>
            <AltitudeMeters>100.59999847412109375</AltitudeMeters>
            <DistanceMeters>NAN</DistanceMeters>
          </Trackpoint>
          <Trackpoint>
            <Time>2021-08-12T16:11:06.000Z</Time>
            <Position>
              <LatitudeDegrees>43.2693403400480747222900390625</LatitudeDegrees>
              <LongitudeDegrees>-1.98731311596930027008056640625</LongitudeDegrees>
            </Position>
            <AltitudeMeters>100.40000152587890625</AltitudeMeters>
            <DistanceMeters>NAN</DistanceMeters>
          </Trackpoint>
          <Trackpoint>
            <Time>2021-08-12T16:11:07.000Z</Time>
            <Position>
              <LatitudeDegrees>43.26928996481001377105712890625</LatitudeDegrees>
              <LongitudeDegrees>-1.987323760986328125</LongitudeDegrees>
            </Position>
            <AltitudeMeters>100.1999969482421875</AltitudeMeters>
            <DistanceMeters>NAN</DistanceMeters>
          </Trackpoint>
          <Trackpoint>
            <Time>2021-08-12T16:11:08.000Z</Time>
            <Position>
              <LatitudeDegrees>43.2692424394190311431884765625</LatitudeDegrees>
              <LongitudeDegrees>-1.9873497448861598968505859375</LongitudeDegrees>
            </Position>
            <AltitudeMeters>100</AltitudeMeters>
            <DistanceMeters>NAN</DistanceMeters>
          </Trackpoint>
          <Trackpoint>
            <Time>2021-08-12T16:11:09.000Z</Time>
            <Position>
              <LatitudeDegrees>43.26919809915125370025634765625</LatitudeDegrees>
              <LongitudeDegrees>-1.98738117702305316925048828125</LongitudeDegrees>
            </Position>
            <AltitudeMeters>99.8000030517578125</AltitudeMeters>
            <DistanceMeters>NAN</DistanceMeters>
          </Trackpoint>
          <Trackpoint>
            <Time>2021-08-12T16:11:10.000Z</Time>
            <Position>
              <LatitudeDegrees>43.26915644109249114990234375</LatitudeDegrees>
              <LongitudeDegrees>-1.98740950785577297210693359375</LongitudeDegrees>
            </Position>
            <AltitudeMeters>98.59999847412109375</AltitudeMeters>
            <DistanceMeters>NAN</DistanceMeters>
          </Trackpoint>
          <Trackpoint>
            <Time>2021-08-12T16:11:11.000Z</Time>
            <Position>
              <LatitudeDegrees>43.269124925136566162109375</LatitudeDegrees>
              <LongitudeDegrees>-1.9874335639178752899169921875</LongitudeDegrees>
            </Position>
            <AltitudeMeters>98</AltitudeMeters>
            <DistanceMeters>NAN</DistanceMeters>
          </Trackpoint>
          <Trackpoint>
            <Time>2021-08-12T16:11:12.000Z</Time>
            <Position>
              <LatitudeDegrees>43.26909785158932209014892578125</LatitudeDegrees>
              <LongitudeDegrees>-1.98744487948715686798095703125</LongitudeDegrees>
            </Position>
            <AltitudeMeters>96.8000030517578125</AltitudeMeters>
            <DistanceMeters>NAN</DistanceMeters>
          </Trackpoint>
          <Trackpoint>
            <Time>2021-08-12T16:11:13.000Z</Time>
            <Position>
              <LatitudeDegrees>43.2690724544227123260498046875</LatitudeDegrees>
              <LongitudeDegrees>-1.98744739405810832977294921875</LongitudeDegrees>
            </Position>
            <AltitudeMeters>95.59999847412109375</AltitudeMeters>
            <DistanceMeters>NAN</DistanceMeters>
          </Trackpoint>
          <Trackpoint>
            <Time>2021-08-12T16:11:14.000Z</Time>
            <Position>
              <LatitudeDegrees>43.26905007474124431610107421875</LatitudeDegrees>
              <LongitudeDegrees>-1.98744052089750766754150390625</LongitudeDegrees>
            </Position>
            <AltitudeMeters>95.1999969482421875</AltitudeMeters>
            <DistanceMeters>NAN</DistanceMeters>
          </Trackpoint>
          <Trackpoint>
            <Time>2021-08-12T16:11:15.000Z</Time>
            <Position>
              <LatitudeDegrees>43.269028030335903167724609375</LatitudeDegrees>
              <LongitudeDegrees>-1.98743247427046298980712890625</LongitudeDegrees>
            </Position>
            <AltitudeMeters>94</AltitudeMeters>
            <DistanceMeters>NAN</DistanceMeters>
          </Trackpoint>
          <Trackpoint>
            <Time>2021-08-12T16:11:16.000Z</Time>
            <Position>
              <LatitudeDegrees>43.26901067979633808135986328125</LatitudeDegrees>
              <LongitudeDegrees>-1.98741026222705841064453125</LongitudeDegrees>
            </Position>
            <AltitudeMeters>93.59999847412109375</AltitudeMeters>
            <DistanceMeters>NAN</DistanceMeters>
          </Trackpoint>
          <Trackpoint>
            <Time>2021-08-12T16:11:17.000Z</Time>
            <Position>
              <LatitudeDegrees>43.26900565065443515777587890625</LatitudeDegrees>
              <LongitudeDegrees>-1.987373046576976776123046875</LongitudeDegrees>
            </Position>
            <AltitudeMeters>92.40000152587890625</AltitudeMeters>
            <DistanceMeters>NAN</DistanceMeters>
          </Trackpoint>
          <Trackpoint>
            <Time>2021-08-12T16:11:18.000Z</Time>
            <Position>
              <LatitudeDegrees>43.26899995096027851104736328125</LatitudeDegrees>
              <LongitudeDegrees>-1.9873420335352420806884765625</LongitudeDegrees>
            </Position>
            <AltitudeMeters>92</AltitudeMeters>
            <DistanceMeters>NAN</DistanceMeters>
          </Trackpoint>
          <Trackpoint>
            <Time>2021-08-12T16:11:19.000Z</Time>
            <Position>
              <LatitudeDegrees>43.26899961568415164947509765625</LatitudeDegrees>
              <LongitudeDegrees>-1.98732174932956695556640625</LongitudeDegrees>
            </Position>
            <AltitudeMeters>91</AltitudeMeters>
            <DistanceMeters>NAN</DistanceMeters>
          </Trackpoint>
          <Trackpoint>
            <Time>2021-08-12T16:11:20.000Z</Time>
            <Position>
              <LatitudeDegrees>43.26899743638932704925537109375</LatitudeDegrees>
              <LongitudeDegrees>-1.98730708099901676177978515625</LongitudeDegrees>
            </Position>
            <AltitudeMeters>90.40000152587890625</AltitudeMeters>
            <DistanceMeters>NAN</DistanceMeters>
          </Trackpoint>
          <Trackpoint>
            <Time>2021-08-12T16:11:21.000Z</Time>
            <Position>
              <LatitudeDegrees>43.268998526036739349365234375</LatitudeDegrees>
              <LongitudeDegrees>-1.98729501105844974517822265625</LongitudeDegrees>
            </Position>
            <AltitudeMeters>90.1999969482421875</AltitudeMeters>
            <DistanceMeters>NAN</DistanceMeters>
          </Trackpoint>
          <Trackpoint>
            <Time>2021-08-12T16:11:22.000Z</Time>
            <Position>
              <LatitudeDegrees>43.2689990289509296417236328125</LatitudeDegrees>
              <LongitudeDegrees>-1.98729090392589569091796875</LongitudeDegrees>
            </Position>
            <AltitudeMeters>89.59999847412109375</AltitudeMeters>
            <DistanceMeters>NAN</DistanceMeters>
          </Trackpoint>
          <Trackpoint>
            <Time>2021-08-12T16:11:23.000Z</Time>
            <Position>
              <LatitudeDegrees>43.2689976878464221954345703125</LatitudeDegrees>
              <LongitudeDegrees>-1.98727606795728206634521484375</LongitudeDegrees>
            </Position>
            <AltitudeMeters>89.40000152587890625</AltitudeMeters>
            <DistanceMeters>NAN</DistanceMeters>
          </Trackpoint>
          <Trackpoint>
            <Time>2021-08-12T16:11:24.000Z</Time>
            <Position>
              <LatitudeDegrees>43.26900498010218143463134765625</LatitudeDegrees>
              <LongitudeDegrees>-1.98725142516195774078369140625</LongitudeDegrees>
            </Position>
            <AltitudeMeters>89.1999969482421875</AltitudeMeters>
            <DistanceMeters>NAN</DistanceMeters>
          </Trackpoint>
          <Trackpoint>
            <Time>2021-08-12T16:11:25.000Z</Time>
            <Position>
              <LatitudeDegrees>43.26902174390852451324462890625</LatitudeDegrees>
              <LongitudeDegrees>-1.9872179813683032989501953125</LongitudeDegrees>
            </Position>
            <AltitudeMeters>88.8000030517578125</AltitudeMeters>
            <DistanceMeters>NAN</DistanceMeters>
          </Trackpoint>
          <Trackpoint>
            <Time>2021-08-12T16:11:26.000Z</Time>
            <Position>
              <LatitudeDegrees>43.26903431676328182220458984375</LatitudeDegrees>
              <LongitudeDegrees>-1.98717514984309673309326171875</LongitudeDegrees>
            </Position>
            <AltitudeMeters>88.59999847412109375</AltitudeMeters>
            <DistanceMeters>NAN</DistanceMeters>
          </Trackpoint>
          <Trackpoint>
            <Time>2021-08-12T16:11:27.000Z</Time>
            <Position>
              <LatitudeDegrees>43.26903783716261386871337890625</LatitudeDegrees>
              <LongitudeDegrees>-1.98712728917598724365234375</LongitudeDegrees>
            </Position>
            <AltitudeMeters>88.1999969482421875</AltitudeMeters>
            <DistanceMeters>NAN</DistanceMeters>
          </Trackpoint>
          <Trackpoint>
            <Time>2021-08-12T16:11:30.000Z</Time>
            <Position>
              <LatitudeDegrees>43.26904722489416599273681640625</LatitudeDegrees>
              <LongitudeDegrees>-1.98698001913726329803466796875</LongitudeDegrees>
            </Position>
            <AltitudeMeters>87.59999847412109375</AltitudeMeters>
            <DistanceMeters>NAN</DistanceMeters>
          </Trackpoint>
          <Trackpoint>
            <Time>2021-08-12T16:11:31.000Z</Time>
            <Position>
              <LatitudeDegrees>43.2690372504293918609619140625</LatitudeDegrees>
              <LongitudeDegrees>-1.98692235164344310760498046875</LongitudeDegrees>
            </Position>
            <AltitudeMeters>87.1999969482421875</AltitudeMeters>
            <DistanceMeters>NAN</DistanceMeters>
          </Trackpoint>
          <Trackpoint>
            <Time>2021-08-12T16:11:33.000Z</Time>
            <Position>
              <LatitudeDegrees>43.26905158348381519317626953125</LatitudeDegrees>
              <LongitudeDegrees>-1.98681422509253025054931640625</LongitudeDegrees>
            </Position>
            <AltitudeMeters>86.40000152587890625</AltitudeMeters>
            <DistanceMeters>NAN</DistanceMeters>
          </Trackpoint>
          <Trackpoint>
            <Time>2021-08-12T16:11:34.000Z</Time>
            <Position>
              <LatitudeDegrees>43.2690613903105258941650390625</LatitudeDegrees>
              <LongitudeDegrees>-1.98676049709320068359375</LongitudeDegrees>
            </Position>
            <AltitudeMeters>86</AltitudeMeters>
            <DistanceMeters>NAN</DistanceMeters>
          </Trackpoint>
          <Trackpoint>
            <Time>2021-08-12T16:11:35.000Z</Time>
            <Position>
              <LatitudeDegrees>43.26906717382371425628662109375</LatitudeDegrees>
              <LongitudeDegrees>-1.9867241196334362030029296875</LongitudeDegrees>
            </Position>
            <AltitudeMeters>85.59999847412109375</AltitudeMeters>
            <DistanceMeters>NAN</DistanceMeters>
          </Trackpoint>
          <Trackpoint>
            <Time>2021-08-12T16:11:36.000Z</Time>
            <Position>
              <LatitudeDegrees>43.26906130649149417877197265625</LatitudeDegrees>
              <LongitudeDegrees>-1.9866875745356082916259765625</LongitudeDegrees>
            </Position>
            <AltitudeMeters>84.8000030517578125</AltitudeMeters>
            <DistanceMeters>NAN</DistanceMeters>
          </Trackpoint>
          <Trackpoint>
            <Time>2021-08-12T16:11:39.000Z</Time>
            <Position>
              <LatitudeDegrees>43.2690674252808094024658203125</LatitudeDegrees>
              <LongitudeDegrees>-1.98654399253427982330322265625</LongitudeDegrees>
            </Position>
            <AltitudeMeters>83.40000152587890625</AltitudeMeters>
            <DistanceMeters>NAN</DistanceMeters>
          </Trackpoint>
          <Trackpoint>
            <Time>2021-08-12T16:11:41.000Z</Time>
            <Position>
              <LatitudeDegrees>43.26908946968615055084228515625</LatitudeDegrees>
              <LongitudeDegrees>-1.9864589162170886993408203125</LongitudeDegrees>
            </Position>
            <AltitudeMeters>81.59999847412109375</AltitudeMeters>
            <DistanceMeters>NAN</DistanceMeters>
          </Trackpoint>
          <Trackpoint>
            <Time>2021-08-12T16:11:42.000Z</Time>
            <Position>
              <LatitudeDegrees>43.26910153962671756744384765625</LatitudeDegrees>
              <LongitudeDegrees>-1.986418850719928741455078125</LongitudeDegrees>
            </Position>
            <AltitudeMeters>81</AltitudeMeters>
            <DistanceMeters>NAN</DistanceMeters>
          </Trackpoint>
          <Trackpoint>
            <Time>2021-08-12T16:11:43.000Z</Time>
            <Position>
              <LatitudeDegrees>43.26911176554858684539794921875</LatitudeDegrees>
              <LongitudeDegrees>-1.9863796234130859375</LongitudeDegrees>
            </Position>
            <AltitudeMeters>80</AltitudeMeters>
            <DistanceMeters>NAN</DistanceMeters>
          </Trackpoint>
          <Trackpoint>
            <Time>2021-08-12T16:11:44.000Z</Time>
            <Position>
              <LatitudeDegrees>43.2691177166998386383056640625</LatitudeDegrees>
              <LongitudeDegrees>-1.98634207248687744140625</LongitudeDegrees>
            </Position>
            <AltitudeMeters>79.59999847412109375</AltitudeMeters>
            <DistanceMeters>NAN</DistanceMeters>
          </Trackpoint>
          <Trackpoint>
            <Time>2021-08-12T16:11:45.000Z</Time>
            <Position>
              <LatitudeDegrees>43.26911562122404575347900390625</LatitudeDegrees>
              <LongitudeDegrees>-1.9863067008554935455322265625</LongitudeDegrees>
            </Position>
            <AltitudeMeters>78.1999969482421875</AltitudeMeters>
            <DistanceMeters>NAN</DistanceMeters>
          </Trackpoint>
          <Trackpoint>
            <Time>2021-08-12T16:11:46.000Z</Time>
            <Position>
              <LatitudeDegrees>43.26910874806344509124755859375</LatitudeDegrees>
              <LongitudeDegrees>-1.98626353405416011810302734375</LongitudeDegrees>
            </Position>
            <AltitudeMeters>77.59999847412109375</AltitudeMeters>
            <DistanceMeters>NAN</DistanceMeters>
          </Trackpoint>
          <Trackpoint>
            <Time>2021-08-12T16:11:47.000Z</Time>
            <Position>
              <LatitudeDegrees>43.26910170726478099822998046875</LatitudeDegrees>
              <LongitudeDegrees>-1.9862111471593379974365234375</LongitudeDegrees>
            </Position>
            <AltitudeMeters>76.8000030517578125</AltitudeMeters>
            <DistanceMeters>NAN</DistanceMeters>
          </Trackpoint>
          <Trackpoint>
            <Time>2021-08-12T16:11:48.000Z</Time>
            <Position>
              <LatitudeDegrees>43.2690888829529285430908203125</LatitudeDegrees>
              <LongitudeDegrees>-1.98615976609289646148681640625</LongitudeDegrees>
            </Position>
            <AltitudeMeters>75.8000030517578125</AltitudeMeters>
            <DistanceMeters>NAN</DistanceMeters>
          </Trackpoint>
          <Trackpoint>
            <Time>2021-08-12T16:11:49.000Z</Time>
            <Position>
              <LatitudeDegrees>43.26907505281269550323486328125</LatitudeDegrees>
              <LongitudeDegrees>-1.98611215688288211822509765625</LongitudeDegrees>
            </Position>
            <AltitudeMeters>75.40000152587890625</AltitudeMeters>
            <DistanceMeters>NAN</DistanceMeters>
          </Trackpoint>
          <Trackpoint>
            <Time>2021-08-12T16:11:50.000Z</Time>
            <Position>
              <LatitudeDegrees>43.2690640725195407867431640625</LatitudeDegrees>
              <LongitudeDegrees>-1.98605976998805999755859375</LongitudeDegrees>
            </Position>
            <AltitudeMeters>74.8000030517578125</AltitudeMeters>
            <DistanceMeters>NAN</DistanceMeters>
          </Trackpoint>
          <Trackpoint>
            <Time>2021-08-12T16:11:51.000Z</Time>
            <Position>
              <LatitudeDegrees>43.26905409805476665496826171875</LatitudeDegrees>
              <LongitudeDegrees>-1.98600553907454013824462890625</LongitudeDegrees>
            </Position>
            <AltitudeMeters>74.40000152587890625</AltitudeMeters>
            <DistanceMeters>NAN</DistanceMeters>
          </Trackpoint>
          <Trackpoint>
            <Time>2021-08-12T16:11:54.000Z</Time>
            <Position>
              <LatitudeDegrees>43.2690141163766384124755859375</LatitudeDegrees>
              <LongitudeDegrees>-1.9858289323747158050537109375</LongitudeDegrees>
            </Position>
            <AltitudeMeters>73</AltitudeMeters>
            <DistanceMeters>NAN</DistanceMeters>
          </Trackpoint>
          <Trackpoint>
            <Time>2021-08-12T16:11:56.000Z</Time>
            <Position>
              <LatitudeDegrees>43.2689867913722991943359375</LatitudeDegrees>
              <LongitudeDegrees>-1.9857387430965900421142578125</LongitudeDegrees>
            </Position>
            <AltitudeMeters>72</AltitudeMeters>
            <DistanceMeters>NAN</DistanceMeters>
          </Trackpoint>
          <Trackpoint>
            <Time>2021-08-12T16:11:57.000Z</Time>
            <Position>
              <LatitudeDegrees>43.2689735479652881622314453125</LatitudeDegrees>
              <LongitudeDegrees>-1.9856954924762248992919921875</LongitudeDegrees>
            </Position>
            <AltitudeMeters>71.40000152587890625</AltitudeMeters>
            <DistanceMeters>NAN</DistanceMeters>
          </Trackpoint>
          <Trackpoint>
            <Time>2021-08-12T16:11:58.000Z</Time>
            <Position>
              <LatitudeDegrees>43.268962316215038299560546875</LatitudeDegrees>
              <LongitudeDegrees>-1.9856730289757251739501953125</LongitudeDegrees>
            </Position>
            <AltitudeMeters>71</AltitudeMeters>
            <DistanceMeters>NAN</DistanceMeters>
          </Trackpoint>
          <Trackpoint>
            <Time>2021-08-12T16:11:59.000Z</Time>
            <Position>
              <LatitudeDegrees>43.26894546858966350555419921875</LatitudeDegrees>
              <LongitudeDegrees>-1.98564846999943256378173828125</LongitudeDegrees>
            </Position>
            <AltitudeMeters>70.59999847412109375</AltitudeMeters>
            <DistanceMeters>NAN</DistanceMeters>
          </Trackpoint>
          <Trackpoint>
            <Time>2021-08-12T16:12:00.000Z</Time>
            <Position>
              <LatitudeDegrees>43.26890724711120128631591796875</LatitudeDegrees>
              <LongitudeDegrees>-1.9855989329516887664794921875</LongitudeDegrees>
            </Position>
            <AltitudeMeters>70.40000152587890625</AltitudeMeters>
            <DistanceMeters>NAN</DistanceMeters>
          </Trackpoint>
          <Trackpoint>
            <Time>2021-08-12T16:12:01.000Z</Time>
            <Position>
              <LatitudeDegrees>43.26889232732355594635009765625</LatitudeDegrees>
              <LongitudeDegrees>-1.9855573587119579315185546875</LongitudeDegrees>
            </Position>
            <AltitudeMeters>69.8000030517578125</AltitudeMeters>
            <DistanceMeters>NAN</DistanceMeters>
          </Trackpoint>
          <Trackpoint>
            <Time>2021-08-12T16:12:02.000Z</Time>
            <Position>
              <LatitudeDegrees>43.2688915729522705078125</LatitudeDegrees>
              <LongitudeDegrees>-1.9855038821697235107421875</LongitudeDegrees>
            </Position>
            <AltitudeMeters>69.1999969482421875</AltitudeMeters>
            <DistanceMeters>NAN</DistanceMeters>
          </Trackpoint>
          <Trackpoint>
            <Time>2021-08-12T16:12:03.000Z</Time>
            <Position>
              <LatitudeDegrees>43.26889358460903167724609375</LatitudeDegrees>
              <LongitudeDegrees>-1.98544445447623729705810546875</LongitudeDegrees>
            </Position>
            <AltitudeMeters>69</AltitudeMeters>
            <DistanceMeters>NAN</DistanceMeters>
          </Trackpoint>
          <Trackpoint>
            <Time>2021-08-12T16:12:04.000Z</Time>
            <Position>
              <LatitudeDegrees>43.2688877172768115997314453125</LatitudeDegrees>
              <LongitudeDegrees>-1.98539131321012973785400390625</LongitudeDegrees>
            </Position>
            <AltitudeMeters>68.59999847412109375</AltitudeMeters>
            <DistanceMeters>NAN</DistanceMeters>
          </Trackpoint>
          <Trackpoint>
            <Time>2021-08-12T16:12:05.000Z</Time>
            <Position>
              <LatitudeDegrees>43.268872462213039398193359375</LatitudeDegrees>
              <LongitudeDegrees>-1.98532090522348880767822265625</LongitudeDegrees>
            </Position>
            <AltitudeMeters>68.40000152587890625</AltitudeMeters>
            <DistanceMeters>NAN</DistanceMeters>
          </Trackpoint>
          <Trackpoint>
            <Time>2021-08-12T16:12:06.000Z</Time>
            <Position>
              <LatitudeDegrees>43.26884471811354160308837890625</LatitudeDegrees>
              <LongitudeDegrees>-1.985250078141689300537109375</LongitudeDegrees>
            </Position>
            <AltitudeMeters>68</AltitudeMeters>
            <DistanceMeters>NAN</DistanceMeters>
          </Trackpoint>
          <Trackpoint>
            <Time>2021-08-12T16:12:07.000Z</Time>
            <Position>
              <LatitudeDegrees>43.26883256435394287109375</LatitudeDegrees>
              <LongitudeDegrees>-1.9852137006819248199462890625</LongitudeDegrees>
            </Position>
            <AltitudeMeters>67.8000030517578125</AltitudeMeters>
            <DistanceMeters>NAN</DistanceMeters>
          </Trackpoint>
          <Trackpoint>
            <Time>2021-08-12T16:12:08.000Z</Time>
            <Position>
              <LatitudeDegrees>43.26881923712790012359619140625</LatitudeDegrees>
              <LongitudeDegrees>-1.98518210090696811676025390625</LongitudeDegrees>
            </Position>
            <AltitudeMeters>67.40000152587890625</AltitudeMeters>
            <DistanceMeters>NAN</DistanceMeters>
          </Trackpoint>
          <Trackpoint>
            <Time>2021-08-12T16:12:09.000Z</Time>
            <Position>
              <LatitudeDegrees>43.26881957240402698516845703125</LatitudeDegrees>
              <LongitudeDegrees>-1.98516257107257843017578125</LongitudeDegrees>
            </Position>
            <AltitudeMeters>67.1999969482421875</AltitudeMeters>
            <DistanceMeters>NAN</DistanceMeters>
          </Trackpoint>
          <Trackpoint>
            <Time>2021-08-12T16:12:10.000Z</Time>
            <Position>
              <LatitudeDegrees>43.26882342807948589324951171875</LatitudeDegrees>
              <LongitudeDegrees>-1.9851426221430301666259765625</LongitudeDegrees>
            </Position>
            <AltitudeMeters>67</AltitudeMeters>
            <DistanceMeters>NAN</DistanceMeters>
          </Trackpoint>
          <Trackpoint>
            <Time>2021-08-12T16:12:11.000Z</Time>
            <Position>
              <LatitudeDegrees>43.2688290439546108245849609375</LatitudeDegrees>
              <LongitudeDegrees>-1.985120661556720733642578125</LongitudeDegrees>
            </Position>
            <AltitudeMeters>67</AltitudeMeters>
            <DistanceMeters>NAN</DistanceMeters>
          </Trackpoint>
          <Trackpoint>
            <Time>2021-08-12T16:12:12.000Z</Time>
            <Position>
              <LatitudeDegrees>43.26882141642272472381591796875</LatitudeDegrees>
              <LongitudeDegrees>-1.985093168914318084716796875</LongitudeDegrees>
            </Position>
            <AltitudeMeters>67</AltitudeMeters>
            <DistanceMeters>NAN</DistanceMeters>
          </Trackpoint>
          <Trackpoint>
            <Time>2021-08-12T16:12:13.000Z</Time>
            <Position>
              <LatitudeDegrees>43.26881035231053829193115234375</LatitudeDegrees>
              <LongitudeDegrees>-1.98507145978510379791259765625</LongitudeDegrees>
            </Position>
            <AltitudeMeters>66.8000030517578125</AltitudeMeters>
            <DistanceMeters>NAN</DistanceMeters>
          </Trackpoint>
          <Trackpoint>
            <Time>2021-08-12T16:12:14.000Z</Time>
            <Position>
              <LatitudeDegrees>43.268809430301189422607421875</LatitudeDegrees>
              <LongitudeDegrees>-1.985042206943035125732421875</LongitudeDegrees>
            </Position>
            <AltitudeMeters>66.8000030517578125</AltitudeMeters>
            <DistanceMeters>NAN</DistanceMeters>
          </Trackpoint>
          <Trackpoint>
            <Time>2021-08-12T16:12:15.000Z</Time>
            <Position>
              <LatitudeDegrees>43.2688163034617900848388671875</LatitudeDegrees>
              <LongitudeDegrees>-1.98502250947058200836181640625</LongitudeDegrees>
            </Position>
            <AltitudeMeters>66.40000152587890625</AltitudeMeters>
            <DistanceMeters>NAN</DistanceMeters>
          </Trackpoint>
          <Trackpoint>
            <Time>2021-08-12T16:12:16.000Z</Time>
            <Position>
              <LatitudeDegrees>43.26881605200469493865966796875</LatitudeDegrees>
              <LongitudeDegrees>-1.9850185699760913848876953125</LongitudeDegrees>
            </Position>
            <AltitudeMeters>66.40000152587890625</AltitudeMeters>
            <DistanceMeters>NAN</DistanceMeters>
          </Trackpoint>
          <Trackpoint>
            <Time>2021-08-12T16:12:21.000Z</Time>
            <Position>
              <LatitudeDegrees>43.26881605200469493865966796875</LatitudeDegrees>
              <LongitudeDegrees>-1.9850185699760913848876953125</LongitudeDegrees>
            </Position>
            <AltitudeMeters>66.1999969482421875</AltitudeMeters>
            <DistanceMeters>NAN</DistanceMeters>
          </Trackpoint>
          <Trackpoint>
            <Time>2021-08-12T16:12:34.000Z</Time>
            <Position>
              <LatitudeDegrees>43.26881605200469493865966796875</LatitudeDegrees>
              <LongitudeDegrees>-1.9850185699760913848876953125</LongitudeDegrees>
            </Position>
            <AltitudeMeters>66.1999969482421875</AltitudeMeters>
            <DistanceMeters>NAN</DistanceMeters>
          </Trackpoint>
          <Trackpoint>
            <Time>2021-08-12T16:14:02.000Z</Time>
            <Position>
              <LatitudeDegrees>43.26881605200469493865966796875</LatitudeDegrees>
              <LongitudeDegrees>-1.98501697741448879241943359375</LongitudeDegrees>
            </Position>
            <AltitudeMeters>66</AltitudeMeters>
            <DistanceMeters>NAN</DistanceMeters>
          </Trackpoint>
          <Trackpoint>
            <Time>2021-08-12T16:14:06.000Z</Time>
            <Position>
              <LatitudeDegrees>43.26883030124008655548095703125</LatitudeDegrees>
              <LongitudeDegrees>-1.98490910232067108154296875</LongitudeDegrees>
            </Position>
            <AltitudeMeters>65.8000030517578125</AltitudeMeters>
            <DistanceMeters>NAN</DistanceMeters>
          </Trackpoint>
          <Trackpoint>
            <Time>2021-08-12T16:14:09.000Z</Time>
            <Position>
              <LatitudeDegrees>43.2688106037676334381103515625</LatitudeDegrees>
              <LongitudeDegrees>-1.98479737155139446258544921875</LongitudeDegrees>
            </Position>
            <AltitudeMeters>65.59999847412109375</AltitudeMeters>
            <DistanceMeters>NAN</DistanceMeters>
          </Trackpoint>
          <Trackpoint>
            <Time>2021-08-12T16:14:10.000Z</Time>
            <Position>
              <LatitudeDegrees>43.26879308559000492095947265625</LatitudeDegrees>
              <LongitudeDegrees>-1.9847651012241840362548828125</LongitudeDegrees>
            </Position>
            <AltitudeMeters>65.59999847412109375</AltitudeMeters>
            <DistanceMeters>NAN</DistanceMeters>
          </Trackpoint>
          <Trackpoint>
            <Time>2021-08-12T16:14:11.000Z</Time>
            <Position>
              <LatitudeDegrees>43.268772549927234649658203125</LatitudeDegrees>
              <LongitudeDegrees>-1.98472998104989528656005859375</LongitudeDegrees>
            </Position>
            <AltitudeMeters>65.59999847412109375</AltitudeMeters>
            <DistanceMeters>NAN</DistanceMeters>
          </Trackpoint>
          <Trackpoint>
            <Time>2021-08-12T16:14:12.000Z</Time>
            <Position>
              <LatitudeDegrees>43.26874748803675174713134765625</LatitudeDegrees>
              <LongitudeDegrees>-1.9846956990659236907958984375</LongitudeDegrees>
            </Position>
            <AltitudeMeters>65.40000152587890625</AltitudeMeters>
            <DistanceMeters>NAN</DistanceMeters>
          </Trackpoint>
          <Trackpoint>
            <Time>2021-08-12T16:14:13.000Z</Time>
            <Position>
              <LatitudeDegrees>43.26872686855494976043701171875</LatitudeDegrees>
              <LongitudeDegrees>-1.9846678711473941802978515625</LongitudeDegrees>
            </Position>
            <AltitudeMeters>65.40000152587890625</AltitudeMeters>
            <DistanceMeters>NAN</DistanceMeters>
          </Trackpoint>
          <Trackpoint>
            <Time>2021-08-12T16:14:16.000Z</Time>
            <Position>
              <LatitudeDegrees>43.2686593942344188690185546875</LatitudeDegrees>
              <LongitudeDegrees>-1.98456737212836742401123046875</LongitudeDegrees>
            </Position>
            <AltitudeMeters>65.1999969482421875</AltitudeMeters>
            <DistanceMeters>NAN</DistanceMeters>
          </Trackpoint>
          <Trackpoint>
            <Time>2021-08-12T16:14:17.000Z</Time>
            <Position>
              <LatitudeDegrees>43.26864556409418582916259765625</LatitudeDegrees>
              <LongitudeDegrees>-1.984531916677951812744140625</LongitudeDegrees>
            </Position>
            <AltitudeMeters>65.1999969482421875</AltitudeMeters>
            <DistanceMeters>NAN</DistanceMeters>
          </Trackpoint>
          <Trackpoint>
            <Time>2021-08-12T16:14:18.000Z</Time>
            <Position>
              <LatitudeDegrees>43.2686327397823333740234375</LatitudeDegrees>
              <LongitudeDegrees>-1.98449210263788700103759765625</LongitudeDegrees>
            </Position>
            <AltitudeMeters>65.1999969482421875</AltitudeMeters>
            <DistanceMeters>NAN</DistanceMeters>
          </Trackpoint>
          <Trackpoint>
            <Time>2021-08-12T16:14:19.000Z</Time>
            <Position>
              <LatitudeDegrees>43.268611617386341094970703125</LatitudeDegrees>
              <LongitudeDegrees>-1.9844529591500759124755859375</LongitudeDegrees>
            </Position>
            <AltitudeMeters>65.1999969482421875</AltitudeMeters>
            <DistanceMeters>NAN</DistanceMeters>
          </Trackpoint>
          <Trackpoint>
            <Time>2021-08-12T16:14:20.000Z</Time>
            <Position>
              <LatitudeDegrees>43.26858823187649250030517578125</LatitudeDegrees>
              <LongitudeDegrees>-1.98441565968096256256103515625</LongitudeDegrees>
            </Position>
            <AltitudeMeters>65.1999969482421875</AltitudeMeters>
            <DistanceMeters>NAN</DistanceMeters>
          </Trackpoint>
          <Trackpoint>
            <Time>2021-08-12T16:14:21.000Z</Time>
            <Position>
              <LatitudeDegrees>43.26856057159602642059326171875</LatitudeDegrees>
              <LongitudeDegrees>-1.9843733310699462890625</LongitudeDegrees>
            </Position>
            <AltitudeMeters>65.1999969482421875</AltitudeMeters>
            <DistanceMeters>NAN</DistanceMeters>
          </Trackpoint>
          <Trackpoint>
            <Time>2021-08-12T16:14:22.000Z</Time>
            <Position>
              <LatitudeDegrees>43.26853341422975063323974609375</LatitudeDegrees>
              <LongitudeDegrees>-1.98432580567896366119384765625</LongitudeDegrees>
            </Position>
            <AltitudeMeters>65.1999969482421875</AltitudeMeters>
            <DistanceMeters>NAN</DistanceMeters>
          </Trackpoint>
          <Trackpoint>
            <Time>2021-08-12T16:14:25.000Z</Time>
            <Position>
              <LatitudeDegrees>43.26839544810354709625244140625</LatitudeDegrees>
              <LongitudeDegrees>-1.98416772298514842987060546875</LongitudeDegrees>
            </Position>
            <AltitudeMeters>65.1999969482421875</AltitudeMeters>
            <DistanceMeters>NAN</DistanceMeters>
          </Trackpoint>
          <Trackpoint>
            <Time>2021-08-12T16:14:26.000Z</Time>
            <Position>
              <LatitudeDegrees>43.26833727769553661346435546875</LatitudeDegrees>
              <LongitudeDegrees>-1.98413670994341373443603515625</LongitudeDegrees>
            </Position>
            <AltitudeMeters>65.1999969482421875</AltitudeMeters>
            <DistanceMeters>NAN</DistanceMeters>
          </Trackpoint>
          <Trackpoint>
            <Time>2021-08-12T16:14:27.000Z</Time>
            <Position>
              <LatitudeDegrees>43.26827877201139926910400390625</LatitudeDegrees>
              <LongitudeDegrees>-1.98411516845226287841796875</LongitudeDegrees>
            </Position>
            <AltitudeMeters>65.1999969482421875</AltitudeMeters>
            <DistanceMeters>NAN</DistanceMeters>
          </Trackpoint>
          <Trackpoint>
            <Time>2021-08-12T16:14:28.000Z</Time>
            <Position>
              <LatitudeDegrees>43.26822445727884769439697265625</LatitudeDegrees>
              <LongitudeDegrees>-1.984093375504016876220703125</LongitudeDegrees>
            </Position>
            <AltitudeMeters>65.40000152587890625</AltitudeMeters>
            <DistanceMeters>NAN</DistanceMeters>
          </Trackpoint>
          <Trackpoint>
            <Time>2021-08-12T16:14:29.000Z</Time>
            <Position>
              <LatitudeDegrees>43.26817299239337444305419921875</LatitudeDegrees>
              <LongitudeDegrees>-1.98405607603490352630615234375</LongitudeDegrees>
            </Position>
            <AltitudeMeters>65.40000152587890625</AltitudeMeters>
            <DistanceMeters>NAN</DistanceMeters>
          </Trackpoint>
          <Trackpoint>
            <Time>2021-08-12T16:14:31.000Z</Time>
            <Position>
              <LatitudeDegrees>43.26807056553661823272705078125</LatitudeDegrees>
              <LongitudeDegrees>-1.98394526727497577667236328125</LongitudeDegrees>
            </Position>
            <AltitudeMeters>65.40000152587890625</AltitudeMeters>
            <DistanceMeters>NAN</DistanceMeters>
          </Trackpoint>
          <Trackpoint>
            <Time>2021-08-12T16:14:32.000Z</Time>
            <Position>
              <LatitudeDegrees>43.26802949421107769012451171875</LatitudeDegrees>
              <LongitudeDegrees>-1.983858011662960052490234375</LongitudeDegrees>
            </Position>
            <AltitudeMeters>65.1999969482421875</AltitudeMeters>
            <DistanceMeters>NAN</DistanceMeters>
          </Trackpoint>
          <Trackpoint>
            <Time>2021-08-12T16:14:33.000Z</Time>
            <Position>
              <LatitudeDegrees>43.2680159993469715118408203125</LatitudeDegrees>
              <LongitudeDegrees>-1.98375977575778961181640625</LongitudeDegrees>
            </Position>
            <AltitudeMeters>65.1999969482421875</AltitudeMeters>
            <DistanceMeters>NAN</DistanceMeters>
          </Trackpoint>
          <Trackpoint>
            <Time>2021-08-12T16:14:34.000Z</Time>
            <Position>
              <LatitudeDegrees>43.2680166698992252349853515625</LatitudeDegrees>
              <LongitudeDegrees>-1.98366858065128326416015625</LongitudeDegrees>
            </Position>
            <AltitudeMeters>65.1999969482421875</AltitudeMeters>
            <DistanceMeters>NAN</DistanceMeters>
          </Trackpoint>
          <Trackpoint>
            <Time>2021-08-12T16:14:35.000Z</Time>
            <Position>
              <LatitudeDegrees>43.26801960356533527374267578125</LatitudeDegrees>
              <LongitudeDegrees>-1.983598507940769195556640625</LongitudeDegrees>
            </Position>
            <AltitudeMeters>65.1999969482421875</AltitudeMeters>
            <DistanceMeters>NAN</DistanceMeters>
          </Trackpoint>
          <Trackpoint>
            <Time>2021-08-12T16:14:36.000Z</Time>
            <Position>
              <LatitudeDegrees>43.26801926828920841217041015625</LatitudeDegrees>
              <LongitudeDegrees>-1.983538828790187835693359375</LongitudeDegrees>
            </Position>
            <AltitudeMeters>65.40000152587890625</AltitudeMeters>
            <DistanceMeters>NAN</DistanceMeters>
          </Trackpoint>
          <Trackpoint>
            <Time>2021-08-12T16:14:37.000Z</Time>
            <Position>
              <LatitudeDegrees>43.2680163346230983734130859375</LatitudeDegrees>
              <LongitudeDegrees>-1.98347973637282848358154296875</LongitudeDegrees>
            </Position>
            <AltitudeMeters>65.40000152587890625</AltitudeMeters>
            <DistanceMeters>NAN</DistanceMeters>
          </Trackpoint>
          <Trackpoint>
            <Time>2021-08-12T16:14:38.000Z</Time>
            <Position>
              <LatitudeDegrees>43.26800384558737277984619140625</LatitudeDegrees>
              <LongitudeDegrees>-1.9834166206419467926025390625</LongitudeDegrees>
            </Position>
            <AltitudeMeters>65.59999847412109375</AltitudeMeters>
            <DistanceMeters>NAN</DistanceMeters>
          </Trackpoint>
          <Trackpoint>
            <Time>2021-08-12T16:14:39.000Z</Time>
            <Position>
              <LatitudeDegrees>43.26797685585916042327880859375</LatitudeDegrees>
              <LongitudeDegrees>-1.98336490429937839508056640625</LongitudeDegrees>
            </Position>
            <AltitudeMeters>65.59999847412109375</AltitudeMeters>
            <DistanceMeters>NAN</DistanceMeters>
          </Trackpoint>
          <Trackpoint>
            <Time>2021-08-12T16:14:40.000Z</Time>
            <Position>
              <LatitudeDegrees>43.267944417893886566162109375</LatitudeDegrees>
              <LongitudeDegrees>-1.98330556042492389678955078125</LongitudeDegrees>
            </Position>
            <AltitudeMeters>66</AltitudeMeters>
            <DistanceMeters>NAN</DistanceMeters>
          </Trackpoint>
          <Trackpoint>
            <Time>2021-08-12T16:14:41.000Z</Time>
            <Position>
              <LatitudeDegrees>43.26792723499238491058349609375</LatitudeDegrees>
              <LongitudeDegrees>-1.9832523353397846221923828125</LongitudeDegrees>
            </Position>
            <AltitudeMeters>66.1999969482421875</AltitudeMeters>
            <DistanceMeters>NAN</DistanceMeters>
          </Trackpoint>
          <Trackpoint>
            <Time>2021-08-12T16:14:42.000Z</Time>
            <Position>
              <LatitudeDegrees>43.26790795661509037017822265625</LatitudeDegrees>
              <LongitudeDegrees>-1.98320162482559680938720703125</LongitudeDegrees>
            </Position>
            <AltitudeMeters>66.40000152587890625</AltitudeMeters>
            <DistanceMeters>NAN</DistanceMeters>
          </Trackpoint>
          <Trackpoint>
            <Time>2021-08-12T16:14:43.000Z</Time>
            <Position>
              <LatitudeDegrees>43.267884738743305206298828125</LatitudeDegrees>
              <LongitudeDegrees>-1.98315720073878765106201171875</LongitudeDegrees>
            </Position>
            <AltitudeMeters>66.59999847412109375</AltitudeMeters>
            <DistanceMeters>NAN</DistanceMeters>
          </Trackpoint>
          <Trackpoint>
            <Time>2021-08-12T16:14:44.000Z</Time>
            <Position>
              <LatitudeDegrees>43.26786152087152004241943359375</LatitudeDegrees>
              <LongitudeDegrees>-1.98312082327902317047119140625</LongitudeDegrees>
            </Position>
            <AltitudeMeters>66.8000030517578125</AltitudeMeters>
            <DistanceMeters>NAN</DistanceMeters>
          </Trackpoint>
          <Trackpoint>
            <Time>2021-08-12T16:14:45.000Z</Time>
            <Position>
              <LatitudeDegrees>43.2678446732461452484130859375</LatitudeDegrees>
              <LongitudeDegrees>-1.98308813385665416717529296875</LongitudeDegrees>
            </Position>
            <AltitudeMeters>67.1999969482421875</AltitudeMeters>
            <DistanceMeters>NAN</DistanceMeters>
          </Trackpoint>
          <Trackpoint>
            <Time>2021-08-12T16:14:46.000Z</Time>
            <Position>
              <LatitudeDegrees>43.267833776772022247314453125</LatitudeDegrees>
              <LongitudeDegrees>-1.98306240141391754150390625</LongitudeDegrees>
            </Position>
            <AltitudeMeters>67.1999969482421875</AltitudeMeters>
            <DistanceMeters>NAN</DistanceMeters>
          </Trackpoint>
          <Trackpoint>
            <Time>2021-08-12T16:14:47.000Z</Time>
            <Position>
              <LatitudeDegrees>43.26782447285950183868408203125</LatitudeDegrees>
              <LongitudeDegrees>-1.98303666897118091583251953125</LongitudeDegrees>
            </Position>
            <AltitudeMeters>67.59999847412109375</AltitudeMeters>
            <DistanceMeters>NAN</DistanceMeters>
          </Trackpoint>
          <Trackpoint>
            <Time>2021-08-12T16:14:48.000Z</Time>
            <Position>
              <LatitudeDegrees>43.2678146660327911376953125</LatitudeDegrees>
              <LongitudeDegrees>-1.98301403783261775970458984375</LongitudeDegrees>
            </Position>
            <AltitudeMeters>67.8000030517578125</AltitudeMeters>
            <DistanceMeters>NAN</DistanceMeters>
          </Trackpoint>
          <Trackpoint>
            <Time>2021-08-12T16:14:49.000Z</Time>
            <Position>
              <LatitudeDegrees>43.26780435629189014434814453125</LatitudeDegrees>
              <LongitudeDegrees>-1.98299408890306949615478515625</LongitudeDegrees>
            </Position>
            <AltitudeMeters>68.40000152587890625</AltitudeMeters>
            <DistanceMeters>NAN</DistanceMeters>
          </Trackpoint>
          <Trackpoint>
            <Time>2021-08-12T16:14:50.000Z</Time>
            <Position>
              <LatitudeDegrees>43.267795555293560028076171875</LatitudeDegrees>
              <LongitudeDegrees>-1.98297715745866298675537109375</LongitudeDegrees>
            </Position>
            <AltitudeMeters>68.8000030517578125</AltitudeMeters>
            <DistanceMeters>NAN</DistanceMeters>
          </Trackpoint>
          <Trackpoint>
            <Time>2021-08-12T16:14:51.000Z</Time>
            <Position>
              <LatitudeDegrees>43.2677823118865489959716796875</LatitudeDegrees>
              <LongitudeDegrees>-1.98295804671943187713623046875</LongitudeDegrees>
            </Position>
            <AltitudeMeters>69</AltitudeMeters>
            <DistanceMeters>NAN</DistanceMeters>
          </Trackpoint>
          <Trackpoint>
            <Time>2021-08-12T16:14:52.000Z</Time>
            <Position>
              <LatitudeDegrees>43.26777040958404541015625</LatitudeDegrees>
              <LongitudeDegrees>-1.98294178582727909088134765625</LongitudeDegrees>
            </Position>
            <AltitudeMeters>69.40000152587890625</AltitudeMeters>
            <DistanceMeters>NAN</DistanceMeters>
          </Trackpoint>
          <Trackpoint>
            <Time>2021-08-12T16:14:53.000Z</Time>
            <Position>
              <LatitudeDegrees>43.26775230467319488525390625</LatitudeDegrees>
              <LongitudeDegrees>-1.982927955687046051025390625</LongitudeDegrees>
            </Position>
            <AltitudeMeters>69.8000030517578125</AltitudeMeters>
            <DistanceMeters>NAN</DistanceMeters>
          </Trackpoint>
          <Trackpoint>
            <Time>2021-08-12T16:14:54.000Z</Time>
            <Position>
              <LatitudeDegrees>43.26773512177169322967529296875</LatitudeDegrees>
              <LongitudeDegrees>-1.98291446082293987274169921875</LongitudeDegrees>
            </Position>
            <AltitudeMeters>70</AltitudeMeters>
            <DistanceMeters>NAN</DistanceMeters>
          </Trackpoint>
          <Trackpoint>
            <Time>2021-08-12T16:14:55.000Z</Time>
            <Position>
              <LatitudeDegrees>43.26770938932895660400390625</LatitudeDegrees>
              <LongitudeDegrees>-1.98289166204631328582763671875</LongitudeDegrees>
            </Position>
            <AltitudeMeters>70.1999969482421875</AltitudeMeters>
            <DistanceMeters>NAN</DistanceMeters>
          </Trackpoint>
          <Trackpoint>
            <Time>2021-08-12T16:14:56.000Z</Time>
            <Position>
              <LatitudeDegrees>43.267678208649158477783203125</LatitudeDegrees>
              <LongitudeDegrees>-1.98287489823997020721435546875</LongitudeDegrees>
            </Position>
            <AltitudeMeters>70.1999969482421875</AltitudeMeters>
            <DistanceMeters>NAN</DistanceMeters>
          </Trackpoint>
          <Trackpoint>
            <Time>2021-08-12T16:14:57.000Z</Time>
            <Position>
              <LatitudeDegrees>43.267645351588726043701171875</LatitudeDegrees>
              <LongitudeDegrees>-1.98285578750073909759521484375</LongitudeDegrees>
            </Position>
            <AltitudeMeters>70.1999969482421875</AltitudeMeters>
            <DistanceMeters>NAN</DistanceMeters>
          </Trackpoint>
          <Trackpoint>
            <Time>2021-08-12T16:14:58.000Z</Time>
            <Position>
              <LatitudeDegrees>43.2676150090992450714111328125</LatitudeDegrees>
              <LongitudeDegrees>-1.9828278757631778717041015625</LongitudeDegrees>
            </Position>
            <AltitudeMeters>70.1999969482421875</AltitudeMeters>
            <DistanceMeters>NAN</DistanceMeters>
          </Trackpoint>
          <Trackpoint>
            <Time>2021-08-12T16:14:59.000Z</Time>
            <Position>
              <LatitudeDegrees>43.2675908692181110382080078125</LatitudeDegrees>
              <LongitudeDegrees>-1.982793845236301422119140625</LongitudeDegrees>
            </Position>
            <AltitudeMeters>70.1999969482421875</AltitudeMeters>
            <DistanceMeters>NAN</DistanceMeters>
          </Trackpoint>
          <Trackpoint>
            <Time>2021-08-12T16:15:00.000Z</Time>
            <Position>
              <LatitudeDegrees>43.2675673998892307281494140625</LatitudeDegrees>
              <LongitudeDegrees>-1.98274766094982624053955078125</LongitudeDegrees>
            </Position>
            <AltitudeMeters>70.1999969482421875</AltitudeMeters>
            <DistanceMeters>NAN</DistanceMeters>
          </Trackpoint>
          <Trackpoint>
            <Time>2021-08-12T16:15:01.000Z</Time>
            <Position>
              <LatitudeDegrees>43.267544768750667572021484375</LatitudeDegrees>
              <LongitudeDegrees>-1.98270005173981189727783203125</LongitudeDegrees>
            </Position>
            <AltitudeMeters>70</AltitudeMeters>
            <DistanceMeters>NAN</DistanceMeters>
          </Trackpoint>
          <Trackpoint>
            <Time>2021-08-12T16:15:02.000Z</Time>
            <Position>
              <LatitudeDegrees>43.267521299421787261962890625</LatitudeDegrees>
              <LongitudeDegrees>-1.982646323740482330322265625</LongitudeDegrees>
            </Position>
            <AltitudeMeters>70</AltitudeMeters>
            <DistanceMeters>NAN</DistanceMeters>
          </Trackpoint>
          <Trackpoint>
            <Time>2021-08-12T16:15:03.000Z</Time>
            <Position>
              <LatitudeDegrees>43.267499841749668121337890625</LatitudeDegrees>
              <LongitudeDegrees>-1.9825961999595165252685546875</LongitudeDegrees>
            </Position>
            <AltitudeMeters>70</AltitudeMeters>
            <DistanceMeters>NAN</DistanceMeters>
          </Trackpoint>
          <Trackpoint>
            <Time>2021-08-12T16:15:04.000Z</Time>
            <Position>
              <LatitudeDegrees>43.26747612096369266510009765625</LatitudeDegrees>
              <LongitudeDegrees>-1.98254163376986980438232421875</LongitudeDegrees>
            </Position>
            <AltitudeMeters>69.8000030517578125</AltitudeMeters>
            <DistanceMeters>NAN</DistanceMeters>
          </Trackpoint>
          <Trackpoint>
            <Time>2021-08-12T16:15:05.000Z</Time>
            <Position>
              <LatitudeDegrees>43.2674497179687023162841796875</LatitudeDegrees>
              <LongitudeDegrees>-1.98247767984867095947265625</LongitudeDegrees>
            </Position>
            <AltitudeMeters>69.8000030517578125</AltitudeMeters>
            <DistanceMeters>NAN</DistanceMeters>
          </Trackpoint>
          <Trackpoint>
            <Time>2021-08-12T16:15:06.000Z</Time>
            <Position>
              <LatitudeDegrees>43.267422057688236236572265625</LatitudeDegrees>
              <LongitudeDegrees>-1.9824094511568546295166015625</LongitudeDegrees>
            </Position>
            <AltitudeMeters>69.8000030517578125</AltitudeMeters>
            <DistanceMeters>NAN</DistanceMeters>
          </Trackpoint>
          <Trackpoint>
            <Time>2021-08-12T16:15:07.000Z</Time>
            <Position>
              <LatitudeDegrees>43.26739381067454814910888671875</LatitudeDegrees>
              <LongitudeDegrees>-1.98234021663665771484375</LongitudeDegrees>
            </Position>
            <AltitudeMeters>69.59999847412109375</AltitudeMeters>
            <DistanceMeters>NAN</DistanceMeters>
          </Trackpoint>
          <Trackpoint>
            <Time>2021-08-12T16:15:08.000Z</Time>
            <Position>
              <LatitudeDegrees>43.2673667371273040771484375</LatitudeDegrees>
              <LongitudeDegrees>-1.98225933127105236053466796875</LongitudeDegrees>
            </Position>
            <AltitudeMeters>69.59999847412109375</AltitudeMeters>
            <DistanceMeters>NAN</DistanceMeters>
          </Trackpoint>
          <Trackpoint>
            <Time>2021-08-12T16:15:09.000Z</Time>
            <Position>
              <LatitudeDegrees>43.26735056005418300628662109375</LatitudeDegrees>
              <LongitudeDegrees>-1.98217567987740039825439453125</LongitudeDegrees>
            </Position>
            <AltitudeMeters>69.40000152587890625</AltitudeMeters>
            <DistanceMeters>NAN</DistanceMeters>
          </Trackpoint>
          <Trackpoint>
            <Time>2021-08-12T16:15:10.000Z</Time>
            <Position>
              <LatitudeDegrees>43.26733966358006000518798828125</LatitudeDegrees>
              <LongitudeDegrees>-1.9820969738066196441650390625</LongitudeDegrees>
            </Position>
            <AltitudeMeters>69.1999969482421875</AltitudeMeters>
            <DistanceMeters>NAN</DistanceMeters>
          </Trackpoint>
          <Trackpoint>
            <Time>2021-08-12T16:15:11.000Z</Time>
            <Position>
              <LatitudeDegrees>43.26732910238206386566162109375</LatitudeDegrees>
              <LongitudeDegrees>-1.98202212341129779815673828125</LongitudeDegrees>
            </Position>
            <AltitudeMeters>68.8000030517578125</AltitudeMeters>
            <DistanceMeters>NAN</DistanceMeters>
          </Trackpoint>
          <Trackpoint>
            <Time>2021-08-12T16:15:12.000Z</Time>
            <Position>
              <LatitudeDegrees>43.26732507906854152679443359375</LatitudeDegrees>
              <LongitudeDegrees>-1.98194769211113452911376953125</LongitudeDegrees>
            </Position>
            <AltitudeMeters>68.59999847412109375</AltitudeMeters>
            <DistanceMeters>NAN</DistanceMeters>
          </Trackpoint>
          <Trackpoint>
            <Time>2021-08-12T16:15:13.000Z</Time>
            <Position>
              <LatitudeDegrees>43.26732340268790721893310546875</LatitudeDegrees>
              <LongitudeDegrees>-1.98187728412449359893798828125</LongitudeDegrees>
            </Position>
            <AltitudeMeters>68.40000152587890625</AltitudeMeters>
            <DistanceMeters>NAN</DistanceMeters>
          </Trackpoint>
          <Trackpoint>
            <Time>2021-08-12T16:15:14.000Z</Time>
            <Position>
              <LatitudeDegrees>43.26731502078473567962646484375</LatitudeDegrees>
              <LongitudeDegrees>-1.9818131625652313232421875</LongitudeDegrees>
            </Position>
            <AltitudeMeters>68.1999969482421875</AltitudeMeters>
            <DistanceMeters>NAN</DistanceMeters>
          </Trackpoint>
          <Trackpoint>
            <Time>2021-08-12T16:15:15.000Z</Time>
            <Position>
              <LatitudeDegrees>43.267305381596088409423828125</LatitudeDegrees>
              <LongitudeDegrees>-1.9817516393959522247314453125</LongitudeDegrees>
            </Position>
            <AltitudeMeters>68.1999969482421875</AltitudeMeters>
            <DistanceMeters>NAN</DistanceMeters>
          </Trackpoint>
          <Trackpoint>
            <Time>2021-08-12T16:15:16.000Z</Time>
            <Position>
              <LatitudeDegrees>43.26729356311261653900146484375</LatitudeDegrees>
              <LongitudeDegrees>-1.981698162853717803955078125</LongitudeDegrees>
            </Position>
            <AltitudeMeters>68.1999969482421875</AltitudeMeters>
            <DistanceMeters>NAN</DistanceMeters>
          </Trackpoint>
          <Trackpoint>
            <Time>2021-08-12T16:15:17.000Z</Time>
            <Position>
              <LatitudeDegrees>43.26727864332497119903564453125</LatitudeDegrees>
              <LongitudeDegrees>-1.9816420041024684906005859375</LongitudeDegrees>
            </Position>
            <AltitudeMeters>68</AltitudeMeters>
            <DistanceMeters>NAN</DistanceMeters>
          </Trackpoint>
          <Trackpoint>
            <Time>2021-08-12T16:15:18.000Z</Time>
            <Position>
              <LatitudeDegrees>43.267261795699596405029296875</LatitudeDegrees>
              <LongitudeDegrees>-1.9815905392169952392578125</LongitudeDegrees>
            </Position>
            <AltitudeMeters>68</AltitudeMeters>
            <DistanceMeters>NAN</DistanceMeters>
          </Trackpoint>
          <Trackpoint>
            <Time>2021-08-12T16:15:19.000Z</Time>
            <Position>
              <LatitudeDegrees>43.26723656617105007171630859375</LatitudeDegrees>
              <LongitudeDegrees>-1.9815444387495517730712890625</LongitudeDegrees>
            </Position>
            <AltitudeMeters>68</AltitudeMeters>
            <DistanceMeters>NAN</DistanceMeters>
          </Trackpoint>
          <Trackpoint>
            <Time>2021-08-12T16:15:20.000Z</Time>
            <Position>
              <LatitudeDegrees>43.26720605604350566864013671875</LatitudeDegrees>
              <LongitudeDegrees>-1.9814975000917911529541015625</LongitudeDegrees>
            </Position>
            <AltitudeMeters>68</AltitudeMeters>
            <DistanceMeters>NAN</DistanceMeters>
          </Trackpoint>
          <Trackpoint>
            <Time>2021-08-12T16:15:21.000Z</Time>
            <Position>
              <LatitudeDegrees>43.26718761585652828216552734375</LatitudeDegrees>
              <LongitudeDegrees>-1.9814649783074855804443359375</LongitudeDegrees>
            </Position>
            <AltitudeMeters>68</AltitudeMeters>
            <DistanceMeters>NAN</DistanceMeters>
          </Trackpoint>
          <Trackpoint>
            <Time>2021-08-12T16:15:22.000Z</Time>
            <Position>
              <LatitudeDegrees>43.267173953354358673095703125</LatitudeDegrees>
              <LongitudeDegrees>-1.98143706656992435455322265625</LongitudeDegrees>
            </Position>
            <AltitudeMeters>68.1999969482421875</AltitudeMeters>
            <DistanceMeters>NAN</DistanceMeters>
          </Trackpoint>
          <Trackpoint>
            <Time>2021-08-12T16:15:23.000Z</Time>
            <Position>
              <LatitudeDegrees>43.267161548137664794921875</LatitudeDegrees>
              <LongitudeDegrees>-1.98141376487910747528076171875</LongitudeDegrees>
            </Position>
            <AltitudeMeters>68.1999969482421875</AltitudeMeters>
            <DistanceMeters>NAN</DistanceMeters>
          </Trackpoint>
          <Trackpoint>
            <Time>2021-08-12T16:15:24.000Z</Time>
            <Position>
              <LatitudeDegrees>43.26714972965419292449951171875</LatitudeDegrees>
              <LongitudeDegrees>-1.981389038264751434326171875</LongitudeDegrees>
            </Position>
            <AltitudeMeters>68</AltitudeMeters>
            <DistanceMeters>NAN</DistanceMeters>
          </Trackpoint>
          <Trackpoint>
            <Time>2021-08-12T16:15:25.000Z</Time>
            <Position>
              <LatitudeDegrees>43.26714000664651393890380859375</LatitudeDegrees>
              <LongitudeDegrees>-1.98137260973453521728515625</LongitudeDegrees>
            </Position>
            <AltitudeMeters>68</AltitudeMeters>
            <DistanceMeters>NAN</DistanceMeters>
          </Trackpoint>
          <Trackpoint>
            <Time>2021-08-12T16:15:26.000Z</Time>
            <Position>
              <LatitudeDegrees>43.26713095419108867645263671875</LatitudeDegrees>
              <LongitudeDegrees>-1.9813610427081584930419921875</LongitudeDegrees>
            </Position>
            <AltitudeMeters>68</AltitudeMeters>
            <DistanceMeters>NAN</DistanceMeters>
          </Trackpoint>
          <Trackpoint>
            <Time>2021-08-12T16:15:27.000Z</Time>
            <Position>
              <LatitudeDegrees>43.26712223701179027557373046875</LatitudeDegrees>
              <LongitudeDegrees>-1.9813477993011474609375</LongitudeDegrees>
            </Position>
            <AltitudeMeters>68.1999969482421875</AltitudeMeters>
            <DistanceMeters>NAN</DistanceMeters>
          </Trackpoint>
          <Trackpoint>
            <Time>2021-08-12T16:15:30.000Z</Time>
            <Position>
              <LatitudeDegrees>43.26709357090294361114501953125</LatitudeDegrees>
              <LongitudeDegrees>-1.98129071854054927825927734375</LongitudeDegrees>
            </Position>
            <AltitudeMeters>68.1999969482421875</AltitudeMeters>
            <DistanceMeters>NAN</DistanceMeters>
          </Trackpoint>
          <Trackpoint>
            <Time>2021-08-12T16:15:36.000Z</Time>
            <Position>
              <LatitudeDegrees>43.2669595442712306976318359375</LatitudeDegrees>
              <LongitudeDegrees>-1.98113582096993923187255859375</LongitudeDegrees>
            </Position>
            <AltitudeMeters>68</AltitudeMeters>
            <DistanceMeters>NAN</DistanceMeters>
          </Trackpoint>
          <Trackpoint>
            <Time>2021-08-12T16:15:38.000Z</Time>
            <Position>
              <LatitudeDegrees>43.2669025473296642303466796875</LatitudeDegrees>
              <LongitudeDegrees>-1.98107848875224590301513671875</LongitudeDegrees>
            </Position>
            <AltitudeMeters>67.59999847412109375</AltitudeMeters>
            <DistanceMeters>NAN</DistanceMeters>
          </Trackpoint>
          <Trackpoint>
            <Time>2021-08-12T16:15:40.000Z</Time>
            <Position>
              <LatitudeDegrees>43.266862146556377410888671875</LatitudeDegrees>
              <LongitudeDegrees>-1.98103674687445163726806640625</LongitudeDegrees>
            </Position>
            <AltitudeMeters>67</AltitudeMeters>
            <DistanceMeters>NAN</DistanceMeters>
          </Trackpoint>
          <Trackpoint>
            <Time>2021-08-12T16:15:41.000Z</Time>
            <Position>
              <LatitudeDegrees>43.26685267500579357147216796875</LatitudeDegrees>
              <LongitudeDegrees>-1.98102735914289951324462890625</LongitudeDegrees>
            </Position>
            <AltitudeMeters>66.40000152587890625</AltitudeMeters>
            <DistanceMeters>NAN</DistanceMeters>
          </Trackpoint>
          <Trackpoint>
            <Time>2021-08-12T16:15:42.000Z</Time>
            <Position>
              <LatitudeDegrees>43.26684010215103626251220703125</LatitudeDegrees>
              <LongitudeDegrees>-1.98101453483104705810546875</LongitudeDegrees>
            </Position>
            <AltitudeMeters>66.1999969482421875</AltitudeMeters>
            <DistanceMeters>NAN</DistanceMeters>
          </Trackpoint>
          <Trackpoint>
            <Time>2021-08-12T16:15:43.000Z</Time>
            <Position>
              <LatitudeDegrees>43.2668257690966129302978515625</LatitudeDegrees>
              <LongitudeDegrees>-1.9810019619762897491455078125</LongitudeDegrees>
            </Position>
            <AltitudeMeters>65.40000152587890625</AltitudeMeters>
            <DistanceMeters>NAN</DistanceMeters>
          </Trackpoint>
          <Trackpoint>
            <Time>2021-08-12T16:15:44.000Z</Time>
            <Position>
              <LatitudeDegrees>43.26680707745254039764404296875</LatitudeDegrees>
              <LongitudeDegrees>-1.98098578490316867828369140625</LongitudeDegrees>
            </Position>
            <AltitudeMeters>65.1999969482421875</AltitudeMeters>
            <DistanceMeters>NAN</DistanceMeters>
          </Trackpoint>
          <Trackpoint>
            <Time>2021-08-12T16:15:46.000Z</Time>
            <Position>
              <LatitudeDegrees>43.2667687721550464630126953125</LatitudeDegrees>
              <LongitudeDegrees>-1.98095376603305339813232421875</LongitudeDegrees>
            </Position>
            <AltitudeMeters>63.799999237060546875</AltitudeMeters>
            <DistanceMeters>NAN</DistanceMeters>
          </Trackpoint>
          <Trackpoint>
            <Time>2021-08-12T16:15:50.000Z</Time>
            <Position>
              <LatitudeDegrees>43.26665737666189670562744140625</LatitudeDegrees>
              <LongitudeDegrees>-1.98088922537863254547119140625</LongitudeDegrees>
            </Position>
            <AltitudeMeters>62.799999237060546875</AltitudeMeters>
            <DistanceMeters>NAN</DistanceMeters>
          </Trackpoint>
          <Trackpoint>
            <Time>2021-08-12T16:15:51.000Z</Time>
            <Position>
              <LatitudeDegrees>43.26661731116473674774169921875</LatitudeDegrees>
              <LongitudeDegrees>-1.9808624871075153350830078125</LongitudeDegrees>
            </Position>
            <AltitudeMeters>62.799999237060546875</AltitudeMeters>
            <DistanceMeters>NAN</DistanceMeters>
          </Trackpoint>
          <Trackpoint>
            <Time>2021-08-12T16:15:54.000Z</Time>
            <Position>
              <LatitudeDegrees>43.266529552638530731201171875</LatitudeDegrees>
              <LongitudeDegrees>-1.980779170989990234375</LongitudeDegrees>
            </Position>
            <AltitudeMeters>61.799999237060546875</AltitudeMeters>
            <DistanceMeters>NAN</DistanceMeters>
          </Trackpoint>
          <Trackpoint>
            <Time>2021-08-12T16:15:55.000Z</Time>
            <Position>
              <LatitudeDegrees>43.26648755930364131927490234375</LatitudeDegrees>
              <LongitudeDegrees>-1.98074203915894031524658203125</LongitudeDegrees>
            </Position>
            <AltitudeMeters>61.200000762939453125</AltitudeMeters>
            <DistanceMeters>NAN</DistanceMeters>
          </Trackpoint>
          <Trackpoint>
            <Time>2021-08-12T16:15:57.000Z</Time>
            <Position>
              <LatitudeDegrees>43.26641027815639972686767578125</LatitudeDegrees>
              <LongitudeDegrees>-1.9806616567075252532958984375</LongitudeDegrees>
            </Position>
            <AltitudeMeters>60.200000762939453125</AltitudeMeters>
            <DistanceMeters>NAN</DistanceMeters>
          </Trackpoint>
          <Trackpoint>
            <Time>2021-08-12T16:16:00.000Z</Time>
            <Position>
              <LatitudeDegrees>43.26634758152067661285400390625</LatitudeDegrees>
              <LongitudeDegrees>-1.9805498421192169189453125</LongitudeDegrees>
            </Position>
            <AltitudeMeters>58.40000152587890625</AltitudeMeters>
            <DistanceMeters>NAN</DistanceMeters>
          </Trackpoint>
          <Trackpoint>
            <Time>2021-08-12T16:16:01.000Z</Time>
            <Position>
              <LatitudeDegrees>43.26634506694972515106201171875</LatitudeDegrees>
              <LongitudeDegrees>-1.98051790706813335418701171875</LongitudeDegrees>
            </Position>
            <AltitudeMeters>58</AltitudeMeters>
            <DistanceMeters>NAN</DistanceMeters>
          </Trackpoint>
          <Trackpoint>
            <Time>2021-08-12T16:16:02.000Z</Time>
            <Position>
              <LatitudeDegrees>43.2663474977016448974609375</LatitudeDegrees>
              <LongitudeDegrees>-1.98049158789217472076416015625</LongitudeDegrees>
            </Position>
            <AltitudeMeters>57.200000762939453125</AltitudeMeters>
            <DistanceMeters>NAN</DistanceMeters>
          </Trackpoint>
          <Trackpoint>
            <Time>2021-08-12T16:16:03.000Z</Time>
            <Position>
              <LatitudeDegrees>43.26634909026324748992919921875</LatitudeDegrees>
              <LongitudeDegrees>-1.98047147132456302642822265625</LongitudeDegrees>
            </Position>
            <AltitudeMeters>57</AltitudeMeters>
            <DistanceMeters>NAN</DistanceMeters>
          </Trackpoint>
          <Trackpoint>
            <Time>2021-08-12T16:16:04.000Z</Time>
            <Position>
              <LatitudeDegrees>43.2663501799106597900390625</LatitudeDegrees>
              <LongitudeDegrees>-1.9804537855088710784912109375</LongitudeDegrees>
            </Position>
            <AltitudeMeters>56.40000152587890625</AltitudeMeters>
            <DistanceMeters>NAN</DistanceMeters>
          </Trackpoint>
          <Trackpoint>
            <Time>2021-08-12T16:16:05.000Z</Time>
            <Position>
              <LatitudeDegrees>43.2663528621196746826171875</LatitudeDegrees>
              <LongitudeDegrees>-1.98043794371187686920166015625</LongitudeDegrees>
            </Position>
            <AltitudeMeters>56.200000762939453125</AltitudeMeters>
            <DistanceMeters>NAN</DistanceMeters>
          </Trackpoint>
          <Trackpoint>
            <Time>2021-08-12T16:16:06.000Z</Time>
            <Position>
              <LatitudeDegrees>43.26635965146124362945556640625</LatitudeDegrees>
              <LongitudeDegrees>-1.9804242812097072601318359375</LongitudeDegrees>
            </Position>
            <AltitudeMeters>55.40000152587890625</AltitudeMeters>
            <DistanceMeters>NAN</DistanceMeters>
          </Trackpoint>
          <Trackpoint>
            <Time>2021-08-12T16:16:07.000Z</Time>
            <Position>
              <LatitudeDegrees>43.26636116020381450653076171875</LatitudeDegrees>
              <LongitudeDegrees>-1.98040894232690334320068359375</LongitudeDegrees>
            </Position>
            <AltitudeMeters>54.799999237060546875</AltitudeMeters>
            <DistanceMeters>NAN</DistanceMeters>
          </Trackpoint>
          <Trackpoint>
            <Time>2021-08-12T16:16:08.000Z</Time>
            <Position>
              <LatitudeDegrees>43.2663563825190067291259765625</LatitudeDegrees>
              <LongitudeDegrees>-1.9803977943956851959228515625</LongitudeDegrees>
            </Position>
            <AltitudeMeters>54.59999847412109375</AltitudeMeters>
            <DistanceMeters>NAN</DistanceMeters>
          </Trackpoint>
          <Trackpoint>
            <Time>2021-08-12T16:16:13.000Z</Time>
            <Position>
              <LatitudeDegrees>43.2663526944816112518310546875</LatitudeDegrees>
              <LongitudeDegrees>-1.9803988002240657806396484375</LongitudeDegrees>
            </Position>
            <AltitudeMeters>54</AltitudeMeters>
            <DistanceMeters>NAN</DistanceMeters>
          </Trackpoint>
          <Trackpoint>
            <Time>2021-08-12T16:16:25.000Z</Time>
            <Position>
              <LatitudeDegrees>43.2663526944816112518310546875</LatitudeDegrees>
              <LongitudeDegrees>-1.9803988002240657806396484375</LongitudeDegrees>
            </Position>
            <AltitudeMeters>53.799999237060546875</AltitudeMeters>
            <DistanceMeters>NAN</DistanceMeters>
          </Trackpoint>
          <Trackpoint>
            <Time>2021-08-12T16:16:48.000Z</Time>
            <Position>
              <LatitudeDegrees>43.26635143719613552093505859375</LatitudeDegrees>
              <LongitudeDegrees>-1.98039586655795574188232421875</LongitudeDegrees>
            </Position>
            <AltitudeMeters>54</AltitudeMeters>
            <DistanceMeters>NAN</DistanceMeters>
          </Trackpoint>
          <Trackpoint>
            <Time>2021-08-12T16:16:49.000Z</Time>
            <Position>
              <LatitudeDegrees>43.266343139111995697021484375</LatitudeDegrees>
              <LongitudeDegrees>-1.98036569170653820037841796875</LongitudeDegrees>
            </Position>
            <AltitudeMeters>54</AltitudeMeters>
            <DistanceMeters>NAN</DistanceMeters>
          </Trackpoint>
          <Trackpoint>
            <Time>2021-08-12T16:16:52.000Z</Time>
            <Position>
              <LatitudeDegrees>43.266324698925018310546875</LatitudeDegrees>
              <LongitudeDegrees>-1.98024532757699489593505859375</LongitudeDegrees>
            </Position>
            <AltitudeMeters>54</AltitudeMeters>
            <DistanceMeters>NAN</DistanceMeters>
          </Trackpoint>
          <Trackpoint>
            <Time>2021-08-12T16:16:54.000Z</Time>
            <Position>
              <LatitudeDegrees>43.266317658126354217529296875</LatitudeDegrees>
              <LongitudeDegrees>-1.98015614412724971771240234375</LongitudeDegrees>
            </Position>
            <AltitudeMeters>53.799999237060546875</AltitudeMeters>
            <DistanceMeters>NAN</DistanceMeters>
          </Trackpoint>
          <Trackpoint>
            <Time>2021-08-12T16:16:56.000Z</Time>
            <Position>
              <LatitudeDegrees>43.26631053350865840911865234375</LatitudeDegrees>
              <LongitudeDegrees>-1.980062015354633331298828125</LongitudeDegrees>
            </Position>
            <AltitudeMeters>53.59999847412109375</AltitudeMeters>
            <DistanceMeters>NAN</DistanceMeters>
          </Trackpoint>
          <Trackpoint>
            <Time>2021-08-12T16:16:57.000Z</Time>
            <Position>
              <LatitudeDegrees>43.26629318296909332275390625</LatitudeDegrees>
              <LongitudeDegrees>-1.9800306670367717742919921875</LongitudeDegrees>
            </Position>
            <AltitudeMeters>53.59999847412109375</AltitudeMeters>
            <DistanceMeters>NAN</DistanceMeters>
          </Trackpoint>
          <Trackpoint>
            <Time>2021-08-12T16:16:58.000Z</Time>
            <Position>
              <LatitudeDegrees>43.26626879163086414337158203125</LatitudeDegrees>
              <LongitudeDegrees>-1.98001767508685588836669921875</LongitudeDegrees>
            </Position>
            <AltitudeMeters>53.59999847412109375</AltitudeMeters>
            <DistanceMeters>NAN</DistanceMeters>
          </Trackpoint>
          <Trackpoint>
            <Time>2021-08-12T16:17:01.000Z</Time>
            <Position>
              <LatitudeDegrees>43.266170807182788848876953125</LatitudeDegrees>
              <LongitudeDegrees>-1.98000426404178142547607421875</LongitudeDegrees>
            </Position>
            <AltitudeMeters>53.59999847412109375</AltitudeMeters>
            <DistanceMeters>NAN</DistanceMeters>
          </Trackpoint>
          <Trackpoint>
            <Time>2021-08-12T16:17:02.000Z</Time>
            <Position>
              <LatitudeDegrees>43.26613786630332469940185546875</LatitudeDegrees>
              <LongitudeDegrees>-1.97999839670956134796142578125</LongitudeDegrees>
            </Position>
            <AltitudeMeters>53.40000152587890625</AltitudeMeters>
            <DistanceMeters>NAN</DistanceMeters>
          </Trackpoint>
          <Trackpoint>
            <Time>2021-08-12T16:17:06.000Z</Time>
            <Position>
              <LatitudeDegrees>43.265992105007171630859375</LatitudeDegrees>
              <LongitudeDegrees>-1.9799731671810150146484375</LongitudeDegrees>
            </Position>
            <AltitudeMeters>53.40000152587890625</AltitudeMeters>
            <DistanceMeters>NAN</DistanceMeters>
          </Trackpoint>
          <Trackpoint>
            <Time>2021-08-12T16:17:11.000Z</Time>
            <Position>
              <LatitudeDegrees>43.26581172645092010498046875</LatitudeDegrees>
              <LongitudeDegrees>-1.97994031012058258056640625</LongitudeDegrees>
            </Position>
            <AltitudeMeters>53</AltitudeMeters>
            <DistanceMeters>NAN</DistanceMeters>
          </Trackpoint>
          <Trackpoint>
            <Time>2021-08-12T16:17:16.000Z</Time>
            <Position>
              <LatitudeDegrees>43.265621624886989593505859375</LatitudeDegrees>
              <LongitudeDegrees>-1.97992580942809581756591796875</LongitudeDegrees>
            </Position>
            <AltitudeMeters>53</AltitudeMeters>
            <DistanceMeters>NAN</DistanceMeters>
          </Trackpoint>
          <Trackpoint>
            <Time>2021-08-12T16:17:17.000Z</Time>
            <Position>
              <LatitudeDegrees>43.26559186913073062896728515625</LatitudeDegrees>
              <LongitudeDegrees>-1.97991776280105113983154296875</LongitudeDegrees>
            </Position>
            <AltitudeMeters>52.799999237060546875</AltitudeMeters>
            <DistanceMeters>NAN</DistanceMeters>
          </Trackpoint>
          <Trackpoint>
            <Time>2021-08-12T16:17:18.000Z</Time>
            <Position>
              <LatitudeDegrees>43.2655550725758075714111328125</LatitudeDegrees>
              <LongitudeDegrees>-1.97991206310689449310302734375</LongitudeDegrees>
            </Position>
            <AltitudeMeters>52.799999237060546875</AltitudeMeters>
            <DistanceMeters>NAN</DistanceMeters>
          </Trackpoint>
          <Trackpoint>
            <Time>2021-08-12T16:17:19.000Z</Time>
            <Position>
              <LatitudeDegrees>43.26551668345928192138671875</LatitudeDegrees>
              <LongitudeDegrees>-1.97990133427083492279052734375</LongitudeDegrees>
            </Position>
            <AltitudeMeters>52.799999237060546875</AltitudeMeters>
            <DistanceMeters>NAN</DistanceMeters>
          </Trackpoint>
          <Trackpoint>
            <Time>2021-08-12T16:17:20.000Z</Time>
            <Position>
              <LatitudeDegrees>43.26547988690435886383056640625</LatitudeDegrees>
              <LongitudeDegrees>-1.9798905216157436370849609375</LongitudeDegrees>
            </Position>
            <AltitudeMeters>52.799999237060546875</AltitudeMeters>
            <DistanceMeters>NAN</DistanceMeters>
          </Trackpoint>
          <Trackpoint>
            <Time>2021-08-12T16:17:21.000Z</Time>
            <Position>
              <LatitudeDegrees>43.2654430903494358062744140625</LatitudeDegrees>
              <LongitudeDegrees>-1.97988557629287242889404296875</LongitudeDegrees>
            </Position>
            <AltitudeMeters>52.799999237060546875</AltitudeMeters>
            <DistanceMeters>NAN</DistanceMeters>
          </Trackpoint>
          <Trackpoint>
            <Time>2021-08-12T16:17:24.000Z</Time>
            <Position>
              <LatitudeDegrees>43.265348374843597412109375</LatitudeDegrees>
              <LongitudeDegrees>-1.9798690639436244964599609375</LongitudeDegrees>
            </Position>
            <AltitudeMeters>52.799999237060546875</AltitudeMeters>
            <DistanceMeters>NAN</DistanceMeters>
          </Trackpoint>
          <Trackpoint>
            <Time>2021-08-12T16:17:26.000Z</Time>
            <Position>
              <LatitudeDegrees>43.26530168764293193817138671875</LatitudeDegrees>
              <LongitudeDegrees>-1.97985992766916751861572265625</LongitudeDegrees>
            </Position>
            <AltitudeMeters>52.59999847412109375</AltitudeMeters>
            <DistanceMeters>NAN</DistanceMeters>
          </Trackpoint>
          <Trackpoint>
            <Time>2021-08-12T16:17:27.000Z</Time>
            <Position>
              <LatitudeDegrees>43.2652767933905124664306640625</LatitudeDegrees>
              <LongitudeDegrees>-1.9798551499843597412109375</LongitudeDegrees>
            </Position>
            <AltitudeMeters>52.59999847412109375</AltitudeMeters>
            <DistanceMeters>NAN</DistanceMeters>
          </Trackpoint>
          <Trackpoint>
            <Time>2021-08-12T16:17:28.000Z</Time>
            <Position>
              <LatitudeDegrees>43.26526095159351825714111328125</LatitudeDegrees>
              <LongitudeDegrees>-1.97984266094863414764404296875</LongitudeDegrees>
            </Position>
            <AltitudeMeters>52.59999847412109375</AltitudeMeters>
            <DistanceMeters>NAN</DistanceMeters>
          </Trackpoint>
          <Trackpoint>
            <Time>2021-08-12T16:17:29.000Z</Time>
            <Position>
              <LatitudeDegrees>43.26524955220520496368408203125</LatitudeDegrees>
              <LongitudeDegrees>-1.97983176447451114654541015625</LongitudeDegrees>
            </Position>
            <AltitudeMeters>52.59999847412109375</AltitudeMeters>
            <DistanceMeters>NAN</DistanceMeters>
          </Trackpoint>
          <Trackpoint>
            <Time>2021-08-12T16:17:30.000Z</Time>
            <Position>
              <LatitudeDegrees>43.26523764990270137786865234375</LatitudeDegrees>
              <LongitudeDegrees>-1.97982321493327617645263671875</LongitudeDegrees>
            </Position>
            <AltitudeMeters>52.59999847412109375</AltitudeMeters>
            <DistanceMeters>NAN</DistanceMeters>
          </Trackpoint>
          <Trackpoint>
            <Time>2021-08-12T16:17:31.000Z</Time>
            <Position>
              <LatitudeDegrees>43.26522759161889553070068359375</LatitudeDegrees>
              <LongitudeDegrees>-1.97982254438102245330810546875</LongitudeDegrees>
            </Position>
            <AltitudeMeters>52.40000152587890625</AltitudeMeters>
            <DistanceMeters>NAN</DistanceMeters>
          </Trackpoint>
          <Trackpoint>
            <Time>2021-08-12T16:17:32.000Z</Time>
            <Position>
              <LatitudeDegrees>43.26521518640220165252685546875</LatitudeDegrees>
              <LongitudeDegrees>-1.97982053272426128387451171875</LongitudeDegrees>
            </Position>
            <AltitudeMeters>52.40000152587890625</AltitudeMeters>
            <DistanceMeters>NAN</DistanceMeters>
          </Trackpoint>
          <Trackpoint>
            <Time>2021-08-12T16:17:33.000Z</Time>
            <Position>
              <LatitudeDegrees>43.265201859176158905029296875</LatitudeDegrees>
              <LongitudeDegrees>-1.97982002981007099151611328125</LongitudeDegrees>
            </Position>
            <AltitudeMeters>52.40000152587890625</AltitudeMeters>
            <DistanceMeters>NAN</DistanceMeters>
          </Trackpoint>
          <Trackpoint>
            <Time>2021-08-12T16:17:34.000Z</Time>
            <Position>
              <LatitudeDegrees>43.26519205234944820404052734375</LatitudeDegrees>
              <LongitudeDegrees>-1.97981357574462890625</LongitudeDegrees>
            </Position>
            <AltitudeMeters>52.40000152587890625</AltitudeMeters>
            <DistanceMeters>NAN</DistanceMeters>
          </Trackpoint>
          <Trackpoint>
            <Time>2021-08-12T16:17:35.000Z</Time>
            <Position>
              <LatitudeDegrees>43.26518752612173557281494140625</LatitudeDegrees>
              <LongitudeDegrees>-1.9798103906214237213134765625</LongitudeDegrees>
            </Position>
            <AltitudeMeters>52.200000762939453125</AltitudeMeters>
            <DistanceMeters>NAN</DistanceMeters>
          </Trackpoint>
          <Trackpoint>
            <Time>2021-08-12T16:17:39.000Z</Time>
            <Position>
              <LatitudeDegrees>43.26518752612173557281494140625</LatitudeDegrees>
              <LongitudeDegrees>-1.9798103906214237213134765625</LongitudeDegrees>
            </Position>
            <AltitudeMeters>52.200000762939453125</AltitudeMeters>
            <DistanceMeters>NAN</DistanceMeters>
          </Trackpoint>
          <Trackpoint>
            <Time>2021-08-12T16:18:56.000Z</Time>
            <Position>
              <LatitudeDegrees>43.265187442302703857421875</LatitudeDegrees>
              <LongitudeDegrees>-1.9797996617853641510009765625</LongitudeDegrees>
            </Position>
            <AltitudeMeters>52.40000152587890625</AltitudeMeters>
            <DistanceMeters>NAN</DistanceMeters>
          </Trackpoint>
          <Trackpoint>
            <Time>2021-08-12T16:19:15.000Z</Time>
            <Position>
              <LatitudeDegrees>43.265187442302703857421875</LatitudeDegrees>
              <LongitudeDegrees>-1.9797996617853641510009765625</LongitudeDegrees>
            </Position>
            <AltitudeMeters>52</AltitudeMeters>
            <DistanceMeters>NAN</DistanceMeters>
          </Trackpoint>
          <Trackpoint>
            <Time>2021-08-12T16:20:02.000Z</Time>
            <Position>
              <LatitudeDegrees>43.2651869393885135650634765625</LatitudeDegrees>
              <LongitudeDegrees>-1.97980192489922046661376953125</LongitudeDegrees>
            </Position>
            <AltitudeMeters>51.799999237060546875</AltitudeMeters>
            <DistanceMeters>NAN</DistanceMeters>
          </Trackpoint>
          <Trackpoint>
            <Time>2021-08-12T16:20:04.000Z</Time>
            <Position>
              <LatitudeDegrees>43.26517067849636077880859375</LatitudeDegrees>
              <LongitudeDegrees>-1.979842074215412139892578125</LongitudeDegrees>
            </Position>
            <AltitudeMeters>51.799999237060546875</AltitudeMeters>
            <DistanceMeters>NAN</DistanceMeters>
          </Trackpoint>
          <Trackpoint>
            <Time>2021-08-12T16:20:05.000Z</Time>
            <Position>
              <LatitudeDegrees>43.26516154222190380096435546875</LatitudeDegrees>
              <LongitudeDegrees>-1.97984953410923480987548828125</LongitudeDegrees>
            </Position>
            <AltitudeMeters>51.799999237060546875</AltitudeMeters>
            <DistanceMeters>NAN</DistanceMeters>
          </Trackpoint>
          <Trackpoint>
            <Time>2021-08-12T16:20:06.000Z</Time>
            <Position>
              <LatitudeDegrees>43.26514679007232189178466796875</LatitudeDegrees>
              <LongitudeDegrees>-1.97984031401574611663818359375</LongitudeDegrees>
            </Position>
            <AltitudeMeters>51.799999237060546875</AltitudeMeters>
            <DistanceMeters>NAN</DistanceMeters>
          </Trackpoint>
          <Trackpoint>
            <Time>2021-08-12T16:20:07.000Z</Time>
            <Position>
              <LatitudeDegrees>43.26513639651238918304443359375</LatitudeDegrees>
              <LongitudeDegrees>-1.9798174314200878143310546875</LongitudeDegrees>
            </Position>
            <AltitudeMeters>51.799999237060546875</AltitudeMeters>
            <DistanceMeters>NAN</DistanceMeters>
          </Trackpoint>
          <Trackpoint>
            <Time>2021-08-12T16:20:08.000Z</Time>
            <Position>
              <LatitudeDegrees>43.2651269249618053436279296875</LatitudeDegrees>
              <LongitudeDegrees>-1.97980779223144054412841796875</LongitudeDegrees>
            </Position>
            <AltitudeMeters>51.799999237060546875</AltitudeMeters>
            <DistanceMeters>NAN</DistanceMeters>
          </Trackpoint>
          <Trackpoint>
            <Time>2021-08-12T16:20:12.000Z</Time>
            <Position>
              <LatitudeDegrees>43.2650759629905223846435546875</LatitudeDegrees>
              <LongitudeDegrees>-1.9798325188457965850830078125</LongitudeDegrees>
            </Position>
            <AltitudeMeters>51.799999237060546875</AltitudeMeters>
            <DistanceMeters>NAN</DistanceMeters>
          </Trackpoint>
          <Trackpoint>
            <Time>2021-08-12T16:20:13.000Z</Time>
            <Position>
              <LatitudeDegrees>43.26505425386130809783935546875</LatitudeDegrees>
              <LongitudeDegrees>-1.9798325188457965850830078125</LongitudeDegrees>
            </Position>
            <AltitudeMeters>51.799999237060546875</AltitudeMeters>
            <DistanceMeters>NAN</DistanceMeters>
          </Trackpoint>
          <Trackpoint>
            <Time>2021-08-12T16:20:14.000Z</Time>
            <Position>
              <LatitudeDegrees>43.26502793468534946441650390625</LatitudeDegrees>
              <LongitudeDegrees>-1.9798352010548114776611328125</LongitudeDegrees>
            </Position>
            <AltitudeMeters>51.799999237060546875</AltitudeMeters>
            <DistanceMeters>NAN</DistanceMeters>
          </Trackpoint>
          <Trackpoint>
            <Time>2021-08-12T16:20:15.000Z</Time>
            <Position>
              <LatitudeDegrees>43.26499591581523418426513671875</LatitudeDegrees>
              <LongitudeDegrees>-1.97983645834028720855712890625</LongitudeDegrees>
            </Position>
            <AltitudeMeters>51.799999237060546875</AltitudeMeters>
            <DistanceMeters>NAN</DistanceMeters>
          </Trackpoint>
          <Trackpoint>
            <Time>2021-08-12T16:20:17.000Z</Time>
            <Position>
              <LatitudeDegrees>43.264926932752132415771484375</LatitudeDegrees>
              <LongitudeDegrees>-1.97983511723577976226806640625</LongitudeDegrees>
            </Position>
            <AltitudeMeters>51.799999237060546875</AltitudeMeters>
            <DistanceMeters>NAN</DistanceMeters>
          </Trackpoint>
          <Trackpoint>
            <Time>2021-08-12T16:20:20.000Z</Time>
            <Position>
              <LatitudeDegrees>43.264812938868999481201171875</LatitudeDegrees>
              <LongitudeDegrees>-1.9798056967556476593017578125</LongitudeDegrees>
            </Position>
            <AltitudeMeters>51.799999237060546875</AltitudeMeters>
            <DistanceMeters>NAN</DistanceMeters>
          </Trackpoint>
          <Trackpoint>
            <Time>2021-08-12T16:20:23.000Z</Time>
            <Position>
              <LatitudeDegrees>43.2646709494292736053466796875</LatitudeDegrees>
              <LongitudeDegrees>-1.9797999970614910125732421875</LongitudeDegrees>
            </Position>
            <AltitudeMeters>51.799999237060546875</AltitudeMeters>
            <DistanceMeters>NAN</DistanceMeters>
          </Trackpoint>
          <Trackpoint>
            <Time>2021-08-12T16:20:24.000Z</Time>
            <Position>
              <LatitudeDegrees>43.26461386866867542266845703125</LatitudeDegrees>
              <LongitudeDegrees>-1.9797979854047298431396484375</LongitudeDegrees>
            </Position>
            <AltitudeMeters>51.799999237060546875</AltitudeMeters>
            <DistanceMeters>NAN</DistanceMeters>
          </Trackpoint>
          <Trackpoint>
            <Time>2021-08-12T16:20:28.000Z</Time>
            <Position>
              <LatitudeDegrees>43.26439082622528076171875</LatitudeDegrees>
              <LongitudeDegrees>-1.97973721660673618316650390625</LongitudeDegrees>
            </Position>
            <AltitudeMeters>51.200000762939453125</AltitudeMeters>
            <DistanceMeters>NAN</DistanceMeters>
          </Trackpoint>
          <Trackpoint>
            <Time>2021-08-12T16:20:30.000Z</Time>
            <Position>
              <LatitudeDegrees>43.2642592303454875946044921875</LatitudeDegrees>
              <LongitudeDegrees>-1.97970695793628692626953125</LongitudeDegrees>
            </Position>
            <AltitudeMeters>50.59999847412109375</AltitudeMeters>
            <DistanceMeters>NAN</DistanceMeters>
          </Trackpoint>
          <Trackpoint>
            <Time>2021-08-12T16:20:33.000Z</Time>
            <Position>
              <LatitudeDegrees>43.2640649378299713134765625</LatitudeDegrees>
              <LongitudeDegrees>-1.97965540923178195953369140625</LongitudeDegrees>
            </Position>
            <AltitudeMeters>50</AltitudeMeters>
            <DistanceMeters>NAN</DistanceMeters>
          </Trackpoint>
          <Trackpoint>
            <Time>2021-08-12T16:20:34.000Z</Time>
            <Position>
              <LatitudeDegrees>43.2639990560710430145263671875</LatitudeDegrees>
              <LongitudeDegrees>-1.979638896882534027099609375</LongitudeDegrees>
            </Position>
            <AltitudeMeters>49.40000152587890625</AltitudeMeters>
            <DistanceMeters>NAN</DistanceMeters>
          </Trackpoint>
          <Trackpoint>
            <Time>2021-08-12T16:20:38.000Z</Time>
            <Position>
              <LatitudeDegrees>43.2637187652289867401123046875</LatitudeDegrees>
              <LongitudeDegrees>-1.979565136134624481201171875</LongitudeDegrees>
            </Position>
            <AltitudeMeters>48.40000152587890625</AltitudeMeters>
            <DistanceMeters>NAN</DistanceMeters>
          </Trackpoint>
          <Trackpoint>
            <Time>2021-08-12T16:20:41.000Z</Time>
            <Position>
              <LatitudeDegrees>43.26350309886038303375244140625</LatitudeDegrees>
              <LongitudeDegrees>-1.97950839065015316009521484375</LongitudeDegrees>
            </Position>
            <AltitudeMeters>47.59999847412109375</AltitudeMeters>
            <DistanceMeters>NAN</DistanceMeters>
          </Trackpoint>
          <Trackpoint>
            <Time>2021-08-12T16:20:43.000Z</Time>
            <Position>
              <LatitudeDegrees>43.26336328871548175811767578125</LatitudeDegrees>
              <LongitudeDegrees>-1.97946631349623203277587890625</LongitudeDegrees>
            </Position>
            <AltitudeMeters>47.200000762939453125</AltitudeMeters>
            <DistanceMeters>NAN</DistanceMeters>
          </Trackpoint>
          <Trackpoint>
            <Time>2021-08-12T16:20:48.000Z</Time>
            <Position>
              <LatitudeDegrees>43.26300068758428096771240234375</LatitudeDegrees>
              <LongitudeDegrees>-1.979369334876537322998046875</LongitudeDegrees>
            </Position>
            <AltitudeMeters>46.799999237060546875</AltitudeMeters>
            <DistanceMeters>NAN</DistanceMeters>
          </Trackpoint>
          <Trackpoint>
            <Time>2021-08-12T16:20:50.000Z</Time>
            <Position>
              <LatitudeDegrees>43.26286003924906253814697265625</LatitudeDegrees>
              <LongitudeDegrees>-1.9793366454541683197021484375</LongitudeDegrees>
            </Position>
            <AltitudeMeters>46.799999237060546875</AltitudeMeters>
            <DistanceMeters>NAN</DistanceMeters>
          </Trackpoint>
          <Trackpoint>
            <Time>2021-08-12T16:20:51.000Z</Time>
            <Position>
              <LatitudeDegrees>43.26279826462268829345703125</LatitudeDegrees>
              <LongitudeDegrees>-1.9793212227523326873779296875</LongitudeDegrees>
            </Position>
            <AltitudeMeters>46.799999237060546875</AltitudeMeters>
            <DistanceMeters>NAN</DistanceMeters>
          </Trackpoint>
          <Trackpoint>
            <Time>2021-08-12T16:20:52.000Z</Time>
            <Position>
              <LatitudeDegrees>43.2627377472817897796630859375</LatitudeDegrees>
              <LongitudeDegrees>-1.9793125055730342864990234375</LongitudeDegrees>
            </Position>
            <AltitudeMeters>47</AltitudeMeters>
            <DistanceMeters>NAN</DistanceMeters>
          </Trackpoint>
          <Trackpoint>
            <Time>2021-08-12T16:20:53.000Z</Time>
            <Position>
              <LatitudeDegrees>43.26267815195024013519287109375</LatitudeDegrees>
              <LongitudeDegrees>-1.9793104939162731170654296875</LongitudeDegrees>
            </Position>
            <AltitudeMeters>47</AltitudeMeters>
            <DistanceMeters>NAN</DistanceMeters>
          </Trackpoint>
          <Trackpoint>
            <Time>2021-08-12T16:20:54.000Z</Time>
            <Position>
              <LatitudeDegrees>43.26261830516159534454345703125</LatitudeDegrees>
              <LongitudeDegrees>-1.9793145172297954559326171875</LongitudeDegrees>
            </Position>
            <AltitudeMeters>47.200000762939453125</AltitudeMeters>
            <DistanceMeters>NAN</DistanceMeters>
          </Trackpoint>
          <Trackpoint>
            <Time>2021-08-12T16:20:55.000Z</Time>
            <Position>
              <LatitudeDegrees>43.2625602185726165771484375</LatitudeDegrees>
              <LongitudeDegrees>-1.97932298295199871063232421875</LongitudeDegrees>
            </Position>
            <AltitudeMeters>47.40000152587890625</AltitudeMeters>
            <DistanceMeters>NAN</DistanceMeters>
          </Trackpoint>
          <Trackpoint>
            <Time>2021-08-12T16:20:57.000Z</Time>
            <Position>
              <LatitudeDegrees>43.26244731433689594268798828125</LatitudeDegrees>
              <LongitudeDegrees>-1.97934620082378387451171875</LongitudeDegrees>
            </Position>
            <AltitudeMeters>48</AltitudeMeters>
            <DistanceMeters>NAN</DistanceMeters>
          </Trackpoint>
          <Trackpoint>
            <Time>2021-08-12T16:20:58.000Z</Time>
            <Position>
              <LatitudeDegrees>43.2623947598040103912353515625</LatitudeDegrees>
              <LongitudeDegrees>-1.97935986332595348358154296875</LongitudeDegrees>
            </Position>
            <AltitudeMeters>48.40000152587890625</AltitudeMeters>
            <DistanceMeters>NAN</DistanceMeters>
          </Trackpoint>
          <Trackpoint>
            <Time>2021-08-12T16:20:59.000Z</Time>
            <Position>
              <LatitudeDegrees>43.262337930500507354736328125</LatitudeDegrees>
              <LongitudeDegrees>-1.97938333265483379364013671875</LongitudeDegrees>
            </Position>
            <AltitudeMeters>48.40000152587890625</AltitudeMeters>
            <DistanceMeters>NAN</DistanceMeters>
          </Trackpoint>
          <Trackpoint>
            <Time>2021-08-12T16:21:00.000Z</Time>
            <Position>
              <LatitudeDegrees>43.26228470541536808013916015625</LatitudeDegrees>
              <LongitudeDegrees>-1.97940093465149402618408203125</LongitudeDegrees>
            </Position>
            <AltitudeMeters>48.59999847412109375</AltitudeMeters>
            <DistanceMeters>NAN</DistanceMeters>
          </Trackpoint>
          <Trackpoint>
            <Time>2021-08-12T16:21:01.000Z</Time>
            <Position>
              <LatitudeDegrees>43.26224179007112979888916015625</LatitudeDegrees>
              <LongitudeDegrees>-1.97942323051393032073974609375</LongitudeDegrees>
            </Position>
            <AltitudeMeters>48.799999237060546875</AltitudeMeters>
            <DistanceMeters>NAN</DistanceMeters>
          </Trackpoint>
          <Trackpoint>
            <Time>2021-08-12T16:21:02.000Z</Time>
            <Position>
              <LatitudeDegrees>43.2622093521058559417724609375</LatitudeDegrees>
              <LongitudeDegrees>-1.9794392399489879608154296875</LongitudeDegrees>
            </Position>
            <AltitudeMeters>49.200000762939453125</AltitudeMeters>
            <DistanceMeters>NAN</DistanceMeters>
          </Trackpoint>
          <Trackpoint>
            <Time>2021-08-12T16:21:03.000Z</Time>
            <Position>
              <LatitudeDegrees>43.26218278147280216217041015625</LatitudeDegrees>
              <LongitudeDegrees>-1.9794486276805400848388671875</LongitudeDegrees>
            </Position>
            <AltitudeMeters>49.200000762939453125</AltitudeMeters>
            <DistanceMeters>NAN</DistanceMeters>
          </Trackpoint>
          <Trackpoint>
            <Time>2021-08-12T16:21:04.000Z</Time>
            <Position>
              <LatitudeDegrees>43.26216165907680988311767578125</LatitudeDegrees>
              <LongitudeDegrees>-1.97945239953696727752685546875</LongitudeDegrees>
            </Position>
            <AltitudeMeters>49.59999847412109375</AltitudeMeters>
            <DistanceMeters>NAN</DistanceMeters>
          </Trackpoint>
          <Trackpoint>
            <Time>2021-08-12T16:21:05.000Z</Time>
            <Position>
              <LatitudeDegrees>43.26214355416595935821533203125</LatitudeDegrees>
              <LongitudeDegrees>-1.9794596917927265167236328125</LongitudeDegrees>
            </Position>
            <AltitudeMeters>49.799999237060546875</AltitudeMeters>
            <DistanceMeters>NAN</DistanceMeters>
          </Trackpoint>
          <Trackpoint>
            <Time>2021-08-12T16:21:06.000Z</Time>
            <Position>
              <LatitudeDegrees>43.26212796382606029510498046875</LatitudeDegrees>
              <LongitudeDegrees>-1.97946463711559772491455078125</LongitudeDegrees>
            </Position>
            <AltitudeMeters>49.799999237060546875</AltitudeMeters>
            <DistanceMeters>NAN</DistanceMeters>
          </Trackpoint>
          <Trackpoint>
            <Time>2021-08-12T16:21:07.000Z</Time>
            <Position>
              <LatitudeDegrees>43.26211304403841495513916015625</LatitudeDegrees>
              <LongitudeDegrees>-1.9794717617332935333251953125</LongitudeDegrees>
            </Position>
            <AltitudeMeters>50</AltitudeMeters>
            <DistanceMeters>NAN</DistanceMeters>
          </Trackpoint>
          <Trackpoint>
            <Time>2021-08-12T16:21:08.000Z</Time>
            <Position>
              <LatitudeDegrees>43.262097872793674468994140625</LatitudeDegrees>
              <LongitudeDegrees>-1.9794804789125919342041015625</LongitudeDegrees>
            </Position>
            <AltitudeMeters>50</AltitudeMeters>
            <DistanceMeters>NAN</DistanceMeters>
          </Trackpoint>
          <Trackpoint>
            <Time>2021-08-12T16:21:11.000Z</Time>
            <Position>
              <LatitudeDegrees>43.26205755583941936492919921875</LatitudeDegrees>
              <LongitudeDegrees>-1.97950436733663082122802734375</LongitudeDegrees>
            </Position>
            <AltitudeMeters>50.200000762939453125</AltitudeMeters>
            <DistanceMeters>NAN</DistanceMeters>
          </Trackpoint>
          <Trackpoint>
            <Time>2021-08-12T16:21:12.000Z</Time>
            <Position>
              <LatitudeDegrees>43.26204950921237468719482421875</LatitudeDegrees>
              <LongitudeDegrees>-1.97950939647853374481201171875</LongitudeDegrees>
            </Position>
            <AltitudeMeters>50.200000762939453125</AltitudeMeters>
            <DistanceMeters>NAN</DistanceMeters>
          </Trackpoint>
          <Trackpoint>
            <Time>2021-08-12T16:21:14.000Z</Time>
            <Position>
              <LatitudeDegrees>43.26204531826078891754150390625</LatitudeDegrees>
              <LongitudeDegrees>-1.97951056994497776031494140625</LongitudeDegrees>
            </Position>
            <AltitudeMeters>50.40000152587890625</AltitudeMeters>
            <DistanceMeters>NAN</DistanceMeters>
          </Trackpoint>
          <Trackpoint>
            <Time>2021-08-12T16:21:24.000Z</Time>
            <Position>
              <LatitudeDegrees>43.26202738098800182342529296875</LatitudeDegrees>
              <LongitudeDegrees>-1.979521550238132476806640625</LongitudeDegrees>
            </Position>
            <AltitudeMeters>50.40000152587890625</AltitudeMeters>
            <DistanceMeters>NAN</DistanceMeters>
          </Trackpoint>
          <Trackpoint>
            <Time>2021-08-12T16:21:26.000Z</Time>
            <Position>
              <LatitudeDegrees>43.26199318282306194305419921875</LatitudeDegrees>
              <LongitudeDegrees>-1.9795458577573299407958984375</LongitudeDegrees>
            </Position>
            <AltitudeMeters>50.40000152587890625</AltitudeMeters>
            <DistanceMeters>NAN</DistanceMeters>
          </Trackpoint>
          <Trackpoint>
            <Time>2021-08-12T16:21:32.000Z</Time>
            <Position>
              <LatitudeDegrees>43.26183929108083248138427734375</LatitudeDegrees>
              <LongitudeDegrees>-1.97964685969054698944091796875</LongitudeDegrees>
            </Position>
            <AltitudeMeters>50.40000152587890625</AltitudeMeters>
            <DistanceMeters>NAN</DistanceMeters>
          </Trackpoint>
          <Trackpoint>
            <Time>2021-08-12T16:21:39.000Z</Time>
            <Position>
              <LatitudeDegrees>43.2615753449499607086181640625</LatitudeDegrees>
              <LongitudeDegrees>-1.9798891805112361907958984375</LongitudeDegrees>
            </Position>
            <AltitudeMeters>50.40000152587890625</AltitudeMeters>
            <DistanceMeters>NAN</DistanceMeters>
          </Trackpoint>
          <Trackpoint>
            <Time>2021-08-12T16:21:42.000Z</Time>
            <Position>
              <LatitudeDegrees>43.26145690865814685821533203125</LatitudeDegrees>
              <LongitudeDegrees>-1.98002957738935947418212890625</LongitudeDegrees>
            </Position>
            <AltitudeMeters>50.200000762939453125</AltitudeMeters>
            <DistanceMeters>NAN</DistanceMeters>
          </Trackpoint>
          <Trackpoint>
            <Time>2021-08-12T16:21:46.000Z</Time>
            <Position>
              <LatitudeDegrees>43.2612655498087406158447265625</LatitudeDegrees>
              <LongitudeDegrees>-1.98026292957365512847900390625</LongitudeDegrees>
            </Position>
            <AltitudeMeters>49.59999847412109375</AltitudeMeters>
            <DistanceMeters>NAN</DistanceMeters>
          </Trackpoint>
          <Trackpoint>
            <Time>2021-08-12T16:21:52.000Z</Time>
            <Position>
              <LatitudeDegrees>43.26093622483313083648681640625</LatitudeDegrees>
              <LongitudeDegrees>-1.9806707091629505157470703125</LongitudeDegrees>
            </Position>
            <AltitudeMeters>48.40000152587890625</AltitudeMeters>
            <DistanceMeters>NAN</DistanceMeters>
          </Trackpoint>
          <Trackpoint>
            <Time>2021-08-12T16:21:55.000Z</Time>
            <Position>
              <LatitudeDegrees>43.260751068592071533203125</LatitudeDegrees>
              <LongitudeDegrees>-1.9808990322053432464599609375</LongitudeDegrees>
            </Position>
            <AltitudeMeters>47.200000762939453125</AltitudeMeters>
            <DistanceMeters>NAN</DistanceMeters>
          </Trackpoint>
          <Trackpoint>
            <Time>2021-08-12T16:21:58.000Z</Time>
            <Position>
              <LatitudeDegrees>43.26055920682847499847412109375</LatitudeDegrees>
              <LongitudeDegrees>-1.98113665916025638580322265625</LongitudeDegrees>
            </Position>
            <AltitudeMeters>45.59999847412109375</AltitudeMeters>
            <DistanceMeters>NAN</DistanceMeters>
          </Trackpoint>
          <Trackpoint>
            <Time>2021-08-12T16:21:59.000Z</Time>
            <Position>
              <LatitudeDegrees>43.26049449853599071502685546875</LatitudeDegrees>
              <LongitudeDegrees>-1.981218047440052032470703125</LongitudeDegrees>
            </Position>
            <AltitudeMeters>45.200000762939453125</AltitudeMeters>
            <DistanceMeters>NAN</DistanceMeters>
          </Trackpoint>
          <Trackpoint>
            <Time>2021-08-12T16:22:00.000Z</Time>
            <Position>
              <LatitudeDegrees>43.2604290358722209930419921875</LatitudeDegrees>
              <LongitudeDegrees>-1.98130111210048198699951171875</LongitudeDegrees>
            </Position>
            <AltitudeMeters>44.59999847412109375</AltitudeMeters>
            <DistanceMeters>NAN</DistanceMeters>
          </Trackpoint>
          <Trackpoint>
            <Time>2021-08-12T16:22:01.000Z</Time>
            <Position>
              <LatitudeDegrees>43.260362148284912109375</LatitudeDegrees>
              <LongitudeDegrees>-1.98138593696057796478271484375</LongitudeDegrees>
            </Position>
            <AltitudeMeters>44</AltitudeMeters>
            <DistanceMeters>NAN</DistanceMeters>
          </Trackpoint>
          <Trackpoint>
            <Time>2021-08-12T16:22:04.000Z</Time>
            <Position>
              <LatitudeDegrees>43.26015654020011425018310546875</LatitudeDegrees>
              <LongitudeDegrees>-1.9816456921398639678955078125</LongitudeDegrees>
            </Position>
            <AltitudeMeters>43</AltitudeMeters>
            <DistanceMeters>NAN</DistanceMeters>
          </Trackpoint>
          <Trackpoint>
            <Time>2021-08-12T16:22:06.000Z</Time>
            <Position>
              <LatitudeDegrees>43.26001740060746669769287109375</LatitudeDegrees>
              <LongitudeDegrees>-1.98181894607841968536376953125</LongitudeDegrees>
            </Position>
            <AltitudeMeters>42</AltitudeMeters>
            <DistanceMeters>NAN</DistanceMeters>
          </Trackpoint>
          <Trackpoint>
            <Time>2021-08-12T16:22:08.000Z</Time>
            <Position>
              <LatitudeDegrees>43.2598795183002948760986328125</LatitudeDegrees>
              <LongitudeDegrees>-1.98199194855988025665283203125</LongitudeDegrees>
            </Position>
            <AltitudeMeters>40.799999237060546875</AltitudeMeters>
            <DistanceMeters>NAN</DistanceMeters>
          </Trackpoint>
          <Trackpoint>
            <Time>2021-08-12T16:22:10.000Z</Time>
            <Position>
              <LatitudeDegrees>43.25974322855472564697265625</LatitudeDegrees>
              <LongitudeDegrees>-1.98216495104134082794189453125</LongitudeDegrees>
            </Position>
            <AltitudeMeters>39.59999847412109375</AltitudeMeters>
            <DistanceMeters>NAN</DistanceMeters>
          </Trackpoint>
          <Trackpoint>
            <Time>2021-08-12T16:22:13.000Z</Time>
            <Position>
              <LatitudeDegrees>43.2595526240766048431396484375</LatitudeDegrees>
              <LongitudeDegrees>-1.9824091158807277679443359375</LongitudeDegrees>
            </Position>
            <AltitudeMeters>38.799999237060546875</AltitudeMeters>
            <DistanceMeters>NAN</DistanceMeters>
          </Trackpoint>
          <Trackpoint>
            <Time>2021-08-12T16:22:14.000Z</Time>
            <Position>
              <LatitudeDegrees>43.2594946213066577911376953125</LatitudeDegrees>
              <LongitudeDegrees>-1.9824890792369842529296875</LongitudeDegrees>
            </Position>
            <AltitudeMeters>38.59999847412109375</AltitudeMeters>
            <DistanceMeters>NAN</DistanceMeters>
          </Trackpoint>
          <Trackpoint>
            <Time>2021-08-12T16:22:15.000Z</Time>
            <Position>
              <LatitudeDegrees>43.259441815316677093505859375</LatitudeDegrees>
              <LongitudeDegrees>-1.98256895877420902252197265625</LongitudeDegrees>
            </Position>
            <AltitudeMeters>38.59999847412109375</AltitudeMeters>
            <DistanceMeters>NAN</DistanceMeters>
          </Trackpoint>
          <Trackpoint>
            <Time>2021-08-12T16:22:16.000Z</Time>
            <Position>
              <LatitudeDegrees>43.2593930326402187347412109375</LatitudeDegrees>
              <LongitudeDegrees>-1.98265395127236843109130859375</LongitudeDegrees>
            </Position>
            <AltitudeMeters>38.59999847412109375</AltitudeMeters>
            <DistanceMeters>NAN</DistanceMeters>
          </Trackpoint>
          <Trackpoint>
            <Time>2021-08-12T16:22:17.000Z</Time>
            <Position>
              <LatitudeDegrees>43.259350620210170745849609375</LatitudeDegrees>
              <LongitudeDegrees>-1.98273827321827411651611328125</LongitudeDegrees>
            </Position>
            <AltitudeMeters>38.59999847412109375</AltitudeMeters>
            <DistanceMeters>NAN</DistanceMeters>
          </Trackpoint>
          <Trackpoint>
            <Time>2021-08-12T16:22:18.000Z</Time>
            <Position>
              <LatitudeDegrees>43.25931608676910400390625</LatitudeDegrees>
              <LongitudeDegrees>-1.98282502591609954833984375</LongitudeDegrees>
            </Position>
            <AltitudeMeters>38.59999847412109375</AltitudeMeters>
            <DistanceMeters>NAN</DistanceMeters>
          </Trackpoint>
          <Trackpoint>
            <Time>2021-08-12T16:22:19.000Z</Time>
            <Position>
              <LatitudeDegrees>43.25928884558379650115966796875</LatitudeDegrees>
              <LongitudeDegrees>-1.98291697539389133453369140625</LongitudeDegrees>
            </Position>
            <AltitudeMeters>38.59999847412109375</AltitudeMeters>
            <DistanceMeters>NAN</DistanceMeters>
          </Trackpoint>
          <Trackpoint>
            <Time>2021-08-12T16:22:20.000Z</Time>
            <Position>
              <LatitudeDegrees>43.2592679746448993682861328125</LatitudeDegrees>
              <LongitudeDegrees>-1.98300884105265140533447265625</LongitudeDegrees>
            </Position>
            <AltitudeMeters>38.799999237060546875</AltitudeMeters>
            <DistanceMeters>NAN</DistanceMeters>
          </Trackpoint>
          <Trackpoint>
            <Time>2021-08-12T16:22:21.000Z</Time>
            <Position>
              <LatitudeDegrees>43.25925380922853946685791015625</LatitudeDegrees>
              <LongitudeDegrees>-1.98310154490172863006591796875</LongitudeDegrees>
            </Position>
            <AltitudeMeters>39.200000762939453125</AltitudeMeters>
            <DistanceMeters>NAN</DistanceMeters>
          </Trackpoint>
          <Trackpoint>
            <Time>2021-08-12T16:22:22.000Z</Time>
            <Position>
              <LatitudeDegrees>43.259246349334716796875</LatitudeDegrees>
              <LongitudeDegrees>-1.98319609276950359344482421875</LongitudeDegrees>
            </Position>
            <AltitudeMeters>39.40000152587890625</AltitudeMeters>
            <DistanceMeters>NAN</DistanceMeters>
          </Trackpoint>
          <Trackpoint>
            <Time>2021-08-12T16:22:23.000Z</Time>
            <Position>
              <LatitudeDegrees>43.259248025715351104736328125</LatitudeDegrees>
              <LongitudeDegrees>-1.98328879661858081817626953125</LongitudeDegrees>
            </Position>
            <AltitudeMeters>39.59999847412109375</AltitudeMeters>
            <DistanceMeters>NAN</DistanceMeters>
          </Trackpoint>
          <Trackpoint>
            <Time>2021-08-12T16:22:24.000Z</Time>
            <Position>
              <LatitudeDegrees>43.25925481505692005157470703125</LatitudeDegrees>
              <LongitudeDegrees>-1.983375214040279388427734375</LongitudeDegrees>
            </Position>
            <AltitudeMeters>39.799999237060546875</AltitudeMeters>
            <DistanceMeters>NAN</DistanceMeters>
          </Trackpoint>
          <Trackpoint>
            <Time>2021-08-12T16:22:25.000Z</Time>
            <Position>
              <LatitudeDegrees>43.25926244258880615234375</LatitudeDegrees>
              <LongitudeDegrees>-1.98346029035747051239013671875</LongitudeDegrees>
            </Position>
            <AltitudeMeters>40</AltitudeMeters>
            <DistanceMeters>NAN</DistanceMeters>
          </Trackpoint>
          <Trackpoint>
            <Time>2021-08-12T16:22:26.000Z</Time>
            <Position>
              <LatitudeDegrees>43.2592693157494068145751953125</LatitudeDegrees>
              <LongitudeDegrees>-1.98354058898985385894775390625</LongitudeDegrees>
            </Position>
            <AltitudeMeters>40.59999847412109375</AltitudeMeters>
            <DistanceMeters>NAN</DistanceMeters>
          </Trackpoint>
          <Trackpoint>
            <Time>2021-08-12T16:22:27.000Z</Time>
            <Position>
              <LatitudeDegrees>43.259276859462261199951171875</LatitudeDegrees>
              <LongitudeDegrees>-1.9836197979748249053955078125</LongitudeDegrees>
            </Position>
            <AltitudeMeters>40.59999847412109375</AltitudeMeters>
            <DistanceMeters>NAN</DistanceMeters>
          </Trackpoint>
          <Trackpoint>
            <Time>2021-08-12T16:22:28.000Z</Time>
            <Position>
              <LatitudeDegrees>43.25928465463221073150634765625</LatitudeDegrees>
              <LongitudeDegrees>-1.9836945645511150360107421875</LongitudeDegrees>
            </Position>
            <AltitudeMeters>41</AltitudeMeters>
            <DistanceMeters>NAN</DistanceMeters>
          </Trackpoint>
          <Trackpoint>
            <Time>2021-08-12T16:22:29.000Z</Time>
            <Position>
              <LatitudeDegrees>43.25929253362119197845458984375</LatitudeDegrees>
              <LongitudeDegrees>-1.98376757092773914337158203125</LongitudeDegrees>
            </Position>
            <AltitudeMeters>41.40000152587890625</AltitudeMeters>
            <DistanceMeters>NAN</DistanceMeters>
          </Trackpoint>
          <Trackpoint>
            <Time>2021-08-12T16:22:30.000Z</Time>
            <Position>
              <LatitudeDegrees>43.25930091552436351776123046875</LatitudeDegrees>
              <LongitudeDegrees>-1.98383747600018978118896484375</LongitudeDegrees>
            </Position>
            <AltitudeMeters>41.799999237060546875</AltitudeMeters>
            <DistanceMeters>NAN</DistanceMeters>
          </Trackpoint>
          <Trackpoint>
            <Time>2021-08-12T16:22:31.000Z</Time>
            <Position>
              <LatitudeDegrees>43.2593105547130107879638671875</LatitudeDegrees>
              <LongitudeDegrees>-1.983903944492340087890625</LongitudeDegrees>
            </Position>
            <AltitudeMeters>42</AltitudeMeters>
            <DistanceMeters>NAN</DistanceMeters>
          </Trackpoint>
          <Trackpoint>
            <Time>2021-08-12T16:22:32.000Z</Time>
            <Position>
              <LatitudeDegrees>43.25931952334940433502197265625</LatitudeDegrees>
              <LongitudeDegrees>-1.983967311680316925048828125</LongitudeDegrees>
            </Position>
            <AltitudeMeters>42</AltitudeMeters>
            <DistanceMeters>NAN</DistanceMeters>
          </Trackpoint>
          <Trackpoint>
            <Time>2021-08-12T16:22:33.000Z</Time>
            <Position>
              <LatitudeDegrees>43.2593254745006561279296875</LatitudeDegrees>
              <LongitudeDegrees>-1.98402799665927886962890625</LongitudeDegrees>
            </Position>
            <AltitudeMeters>42.40000152587890625</AltitudeMeters>
            <DistanceMeters>NAN</DistanceMeters>
          </Trackpoint>
          <Trackpoint>
            <Time>2021-08-12T16:22:34.000Z</Time>
            <Position>
              <LatitudeDegrees>43.259331174194812774658203125</LatitudeDegrees>
              <LongitudeDegrees>-1.9840851612389087677001953125</LongitudeDegrees>
            </Position>
            <AltitudeMeters>42.59999847412109375</AltitudeMeters>
            <DistanceMeters>NAN</DistanceMeters>
          </Trackpoint>
          <Trackpoint>
            <Time>2021-08-12T16:22:35.000Z</Time>
            <Position>
              <LatitudeDegrees>43.25933762826025485992431640625</LatitudeDegrees>
              <LongitudeDegrees>-1.98413838632404804229736328125</LongitudeDegrees>
            </Position>
            <AltitudeMeters>42.799999237060546875</AltitudeMeters>
            <DistanceMeters>NAN</DistanceMeters>
          </Trackpoint>
          <Trackpoint>
            <Time>2021-08-12T16:22:36.000Z</Time>
            <Position>
              <LatitudeDegrees>43.25934500433504581451416015625</LatitudeDegrees>
              <LongitudeDegrees>-1.9841941259801387786865234375</LongitudeDegrees>
            </Position>
            <AltitudeMeters>43.200000762939453125</AltitudeMeters>
            <DistanceMeters>NAN</DistanceMeters>
          </Trackpoint>
          <Trackpoint>
            <Time>2021-08-12T16:22:37.000Z</Time>
            <Position>
              <LatitudeDegrees>43.2593507878482341766357421875</LatitudeDegrees>
              <LongitudeDegrees>-1.98424735106527805328369140625</LongitudeDegrees>
            </Position>
            <AltitudeMeters>43.40000152587890625</AltitudeMeters>
            <DistanceMeters>NAN</DistanceMeters>
          </Trackpoint>
          <Trackpoint>
            <Time>2021-08-12T16:22:40.000Z</Time>
            <Position>
              <LatitudeDegrees>43.25936528854072093963623046875</LatitudeDegrees>
              <LongitudeDegrees>-1.98441532440483570098876953125</LongitudeDegrees>
            </Position>
            <AltitudeMeters>44.200000762939453125</AltitudeMeters>
            <DistanceMeters>NAN</DistanceMeters>
          </Trackpoint>
          <Trackpoint>
            <Time>2021-08-12T16:22:41.000Z</Time>
            <Position>
              <LatitudeDegrees>43.25937132351100444793701171875</LatitudeDegrees>
              <LongitudeDegrees>-1.98447651229798793792724609375</LongitudeDegrees>
            </Position>
            <AltitudeMeters>44.200000762939453125</AltitudeMeters>
            <DistanceMeters>NAN</DistanceMeters>
          </Trackpoint>
          <Trackpoint>
            <Time>2021-08-12T16:22:42.000Z</Time>
            <Position>
              <LatitudeDegrees>43.25937568210065364837646484375</LatitudeDegrees>
              <LongitudeDegrees>-1.98453987948596477508544921875</LongitudeDegrees>
            </Position>
            <AltitudeMeters>44.40000152587890625</AltitudeMeters>
            <DistanceMeters>NAN</DistanceMeters>
          </Trackpoint>
          <Trackpoint>
            <Time>2021-08-12T16:22:43.000Z</Time>
            <Position>
              <LatitudeDegrees>43.25937434099614620208740234375</LatitudeDegrees>
              <LongitudeDegrees>-1.98460291139781475067138671875</LongitudeDegrees>
            </Position>
            <AltitudeMeters>44.799999237060546875</AltitudeMeters>
            <DistanceMeters>NAN</DistanceMeters>
          </Trackpoint>
          <Trackpoint>
            <Time>2021-08-12T16:22:44.000Z</Time>
            <Position>
              <LatitudeDegrees>43.259368054568767547607421875</LatitudeDegrees>
              <LongitudeDegrees>-1.9846651889383792877197265625</LongitudeDegrees>
            </Position>
            <AltitudeMeters>44.799999237060546875</AltitudeMeters>
            <DistanceMeters>NAN</DistanceMeters>
          </Trackpoint>
          <Trackpoint>
            <Time>2021-08-12T16:22:45.000Z</Time>
            <Position>
              <LatitudeDegrees>43.2593574933707714080810546875</LatitudeDegrees>
              <LongitudeDegrees>-1.98473031632602214813232421875</LongitudeDegrees>
            </Position>
            <AltitudeMeters>45</AltitudeMeters>
            <DistanceMeters>NAN</DistanceMeters>
          </Trackpoint>
          <Trackpoint>
            <Time>2021-08-12T16:22:46.000Z</Time>
            <Position>
              <LatitudeDegrees>43.25933955609798431396484375</LatitudeDegrees>
              <LongitudeDegrees>-1.98479653336107730865478515625</LongitudeDegrees>
            </Position>
            <AltitudeMeters>45</AltitudeMeters>
            <DistanceMeters>NAN</DistanceMeters>
          </Trackpoint>
          <Trackpoint>
            <Time>2021-08-12T16:22:47.000Z</Time>
            <Position>
              <LatitudeDegrees>43.25931407511234283447265625</LatitudeDegrees>
              <LongitudeDegrees>-1.984861828386783599853515625</LongitudeDegrees>
            </Position>
            <AltitudeMeters>45</AltitudeMeters>
            <DistanceMeters>NAN</DistanceMeters>
          </Trackpoint>
          <Trackpoint>
            <Time>2021-08-12T16:22:48.000Z</Time>
            <Position>
              <LatitudeDegrees>43.25928800739347934722900390625</LatitudeDegrees>
              <LongitudeDegrees>-1.98492678813636302947998046875</LongitudeDegrees>
            </Position>
            <AltitudeMeters>45</AltitudeMeters>
            <DistanceMeters>NAN</DistanceMeters>
          </Trackpoint>
          <Trackpoint>
            <Time>2021-08-12T16:22:49.000Z</Time>
            <Position>
              <LatitudeDegrees>43.25925850309431552886962890625</LatitudeDegrees>
              <LongitudeDegrees>-1.98499225080013275146484375</LongitudeDegrees>
            </Position>
            <AltitudeMeters>45.200000762939453125</AltitudeMeters>
            <DistanceMeters>NAN</DistanceMeters>
          </Trackpoint>
          <Trackpoint>
            <Time>2021-08-12T16:22:50.000Z</Time>
            <Position>
              <LatitudeDegrees>43.25922145508229732513427734375</LatitudeDegrees>
              <LongitudeDegrees>-1.98505653999745845794677734375</LongitudeDegrees>
            </Position>
            <AltitudeMeters>45.200000762939453125</AltitudeMeters>
            <DistanceMeters>NAN</DistanceMeters>
          </Trackpoint>
          <Trackpoint>
            <Time>2021-08-12T16:22:51.000Z</Time>
            <Position>
              <LatitudeDegrees>43.25917267240583896636962890625</LatitudeDegrees>
              <LongitudeDegrees>-1.98511387221515178680419921875</LongitudeDegrees>
            </Position>
            <AltitudeMeters>45.200000762939453125</AltitudeMeters>
            <DistanceMeters>NAN</DistanceMeters>
          </Trackpoint>
          <Trackpoint>
            <Time>2021-08-12T16:22:52.000Z</Time>
            <Position>
              <LatitudeDegrees>43.25911768712103366851806640625</LatitudeDegrees>
              <LongitudeDegrees>-1.985158883035182952880859375</LongitudeDegrees>
            </Position>
            <AltitudeMeters>45.200000762939453125</AltitudeMeters>
            <DistanceMeters>NAN</DistanceMeters>
          </Trackpoint>
          <Trackpoint>
            <Time>2021-08-12T16:22:53.000Z</Time>
            <Position>
              <LatitudeDegrees>43.2590617798268795013427734375</LatitudeDegrees>
              <LongitudeDegrees>-1.9852049835026264190673828125</LongitudeDegrees>
            </Position>
            <AltitudeMeters>45.200000762939453125</AltitudeMeters>
            <DistanceMeters>NAN</DistanceMeters>
          </Trackpoint>
          <Trackpoint>
            <Time>2021-08-12T16:22:54.000Z</Time>
            <Position>
              <LatitudeDegrees>43.25900503434240818023681640625</LatitudeDegrees>
              <LongitudeDegrees>-1.98523691855370998382568359375</LongitudeDegrees>
            </Position>
            <AltitudeMeters>45.200000762939453125</AltitudeMeters>
            <DistanceMeters>NAN</DistanceMeters>
          </Trackpoint>
          <Trackpoint>
            <Time>2021-08-12T16:22:55.000Z</Time>
            <Position>
              <LatitudeDegrees>43.2589454390108585357666015625</LatitudeDegrees>
              <LongitudeDegrees>-1.985254101455211639404296875</LongitudeDegrees>
            </Position>
            <AltitudeMeters>45.200000762939453125</AltitudeMeters>
            <DistanceMeters>NAN</DistanceMeters>
          </Trackpoint>
          <Trackpoint>
            <Time>2021-08-12T16:22:56.000Z</Time>
            <Position>
              <LatitudeDegrees>43.2588850893080234527587890625</LatitudeDegrees>
              <LongitudeDegrees>-1.98526357300579547882080078125</LongitudeDegrees>
            </Position>
            <AltitudeMeters>45</AltitudeMeters>
            <DistanceMeters>NAN</DistanceMeters>
          </Trackpoint>
          <Trackpoint>
            <Time>2021-08-12T16:22:57.000Z</Time>
            <Position>
              <LatitudeDegrees>43.25882591307163238525390625</LatitudeDegrees>
              <LongitudeDegrees>-1.9852643273770809173583984375</LongitudeDegrees>
            </Position>
            <AltitudeMeters>45</AltitudeMeters>
            <DistanceMeters>NAN</DistanceMeters>
          </Trackpoint>
          <Trackpoint>
            <Time>2021-08-12T16:22:58.000Z</Time>
            <Position>
              <LatitudeDegrees>43.25876950286328792572021484375</LatitudeDegrees>
              <LongitudeDegrees>-1.985256783664226531982421875</LongitudeDegrees>
            </Position>
            <AltitudeMeters>45</AltitudeMeters>
            <DistanceMeters>NAN</DistanceMeters>
          </Trackpoint>
          <Trackpoint>
            <Time>2021-08-12T16:22:59.000Z</Time>
            <Position>
              <LatitudeDegrees>43.2587151043117046356201171875</LatitudeDegrees>
              <LongitudeDegrees>-1.98524882085621356964111328125</LongitudeDegrees>
            </Position>
            <AltitudeMeters>44.799999237060546875</AltitudeMeters>
            <DistanceMeters>NAN</DistanceMeters>
          </Trackpoint>
          <Trackpoint>
            <Time>2021-08-12T16:23:00.000Z</Time>
            <Position>
              <LatitudeDegrees>43.25866120867431163787841796875</LatitudeDegrees>
              <LongitudeDegrees>-1.9852472282946109771728515625</LongitudeDegrees>
            </Position>
            <AltitudeMeters>44.799999237060546875</AltitudeMeters>
            <DistanceMeters>NAN</DistanceMeters>
          </Trackpoint>
          <Trackpoint>
            <Time>2021-08-12T16:23:01.000Z</Time>
            <Position>
              <LatitudeDegrees>43.258607648313045501708984375</LatitudeDegrees>
              <LongitudeDegrees>-1.98525401763617992401123046875</LongitudeDegrees>
            </Position>
            <AltitudeMeters>44.59999847412109375</AltitudeMeters>
            <DistanceMeters>NAN</DistanceMeters>
          </Trackpoint>
          <Trackpoint>
            <Time>2021-08-12T16:23:02.000Z</Time>
            <Position>
              <LatitudeDegrees>43.25855408795177936553955078125</LatitudeDegrees>
              <LongitudeDegrees>-1.9852683506906032562255859375</LongitudeDegrees>
            </Position>
            <AltitudeMeters>44.59999847412109375</AltitudeMeters>
            <DistanceMeters>NAN</DistanceMeters>
          </Trackpoint>
          <Trackpoint>
            <Time>2021-08-12T16:23:04.000Z</Time>
            <Position>
              <LatitudeDegrees>43.25845031999051570892333984375</LatitudeDegrees>
              <LongitudeDegrees>-1.98531679809093475341796875</LongitudeDegrees>
            </Position>
            <AltitudeMeters>44.40000152587890625</AltitudeMeters>
            <DistanceMeters>NAN</DistanceMeters>
          </Trackpoint>
          <Trackpoint>
            <Time>2021-08-12T16:23:05.000Z</Time>
            <Position>
              <LatitudeDegrees>43.25839810073375701904296875</LatitudeDegrees>
              <LongitudeDegrees>-1.985336244106292724609375</LongitudeDegrees>
            </Position>
            <AltitudeMeters>44.200000762939453125</AltitudeMeters>
            <DistanceMeters>NAN</DistanceMeters>
          </Trackpoint>
          <Trackpoint>
            <Time>2021-08-12T16:23:07.000Z</Time>
            <Position>
              <LatitudeDegrees>43.25829072855412960052490234375</LatitudeDegrees>
              <LongitudeDegrees>-1.9853390939533710479736328125</LongitudeDegrees>
            </Position>
            <AltitudeMeters>44.200000762939453125</AltitudeMeters>
            <DistanceMeters>NAN</DistanceMeters>
          </Trackpoint>
          <Trackpoint>
            <Time>2021-08-12T16:23:08.000Z</Time>
            <Position>
              <LatitudeDegrees>43.2582380063831806182861328125</LatitudeDegrees>
              <LongitudeDegrees>-1.9853226654231548309326171875</LongitudeDegrees>
            </Position>
            <AltitudeMeters>44.200000762939453125</AltitudeMeters>
            <DistanceMeters>NAN</DistanceMeters>
          </Trackpoint>
          <Trackpoint>
            <Time>2021-08-12T16:23:09.000Z</Time>
            <Position>
              <LatitudeDegrees>43.25818796642124652862548828125</LatitudeDegrees>
              <LongitudeDegrees>-1.985292993485927581787109375</LongitudeDegrees>
            </Position>
            <AltitudeMeters>44.200000762939453125</AltitudeMeters>
            <DistanceMeters>NAN</DistanceMeters>
          </Trackpoint>
          <Trackpoint>
            <Time>2021-08-12T16:23:10.000Z</Time>
            <Position>
              <LatitudeDegrees>43.2581426203250885009765625</LatitudeDegrees>
              <LongitudeDegrees>-1.985250413417816162109375</LongitudeDegrees>
            </Position>
            <AltitudeMeters>44.200000762939453125</AltitudeMeters>
            <DistanceMeters>NAN</DistanceMeters>
          </Trackpoint>
          <Trackpoint>
            <Time>2021-08-12T16:23:11.000Z</Time>
            <Position>
              <LatitudeDegrees>43.2581002078950405120849609375</LatitudeDegrees>
              <LongitudeDegrees>-1.985195763409137725830078125</LongitudeDegrees>
            </Position>
            <AltitudeMeters>44.40000152587890625</AltitudeMeters>
            <DistanceMeters>NAN</DistanceMeters>
          </Trackpoint>
          <Trackpoint>
            <Time>2021-08-12T16:23:12.000Z</Time>
            <Position>
              <LatitudeDegrees>43.25806148350238800048828125</LatitudeDegrees>
              <LongitudeDegrees>-1.985123343765735626220703125</LongitudeDegrees>
            </Position>
            <AltitudeMeters>44.40000152587890625</AltitudeMeters>
            <DistanceMeters>NAN</DistanceMeters>
          </Trackpoint>
          <Trackpoint>
            <Time>2021-08-12T16:23:13.000Z</Time>
            <Position>
              <LatitudeDegrees>43.2580418698489665985107421875</LatitudeDegrees>
              <LongitudeDegrees>-1.9850712083280086517333984375</LongitudeDegrees>
            </Position>
            <AltitudeMeters>44.40000152587890625</AltitudeMeters>
            <DistanceMeters>NAN</DistanceMeters>
          </Trackpoint>
          <Trackpoint>
            <Time>2021-08-12T16:23:14.000Z</Time>
            <Position>
              <LatitudeDegrees>43.2580200769007205963134765625</LatitudeDegrees>
              <LongitudeDegrees>-1.9850023090839385986328125</LongitudeDegrees>
            </Position>
            <AltitudeMeters>44.40000152587890625</AltitudeMeters>
            <DistanceMeters>NAN</DistanceMeters>
          </Trackpoint>
          <Trackpoint>
            <Time>2021-08-12T16:23:15.000Z</Time>
            <Position>
              <LatitudeDegrees>43.25799535028636455535888671875</LatitudeDegrees>
              <LongitudeDegrees>-1.9849344156682491302490234375</LongitudeDegrees>
            </Position>
            <AltitudeMeters>44.40000152587890625</AltitudeMeters>
            <DistanceMeters>NAN</DistanceMeters>
          </Trackpoint>
          <Trackpoint>
            <Time>2021-08-12T16:23:17.000Z</Time>
            <Position>
              <LatitudeDegrees>43.2579235173761844635009765625</LatitudeDegrees>
              <LongitudeDegrees>-1.98483257554471492767333984375</LongitudeDegrees>
            </Position>
            <AltitudeMeters>44.40000152587890625</AltitudeMeters>
            <DistanceMeters>NAN</DistanceMeters>
          </Trackpoint>
          <Trackpoint>
            <Time>2021-08-12T16:23:18.000Z</Time>
            <Position>
              <LatitudeDegrees>43.25787733308970928192138671875</LatitudeDegrees>
              <LongitudeDegrees>-1.9848006404936313629150390625</LongitudeDegrees>
            </Position>
            <AltitudeMeters>44.40000152587890625</AltitudeMeters>
            <DistanceMeters>NAN</DistanceMeters>
          </Trackpoint>
          <Trackpoint>
            <Time>2021-08-12T16:23:19.000Z</Time>
            <Position>
              <LatitudeDegrees>43.25782620348036289215087890625</LatitudeDegrees>
              <LongitudeDegrees>-1.9847801886498928070068359375</LongitudeDegrees>
            </Position>
            <AltitudeMeters>44.200000762939453125</AltitudeMeters>
            <DistanceMeters>NAN</DistanceMeters>
          </Trackpoint>
          <Trackpoint>
            <Time>2021-08-12T16:23:20.000Z</Time>
            <Position>
              <LatitudeDegrees>43.257776163518428802490234375</LatitudeDegrees>
              <LongitudeDegrees>-1.984768621623516082763671875</LongitudeDegrees>
            </Position>
            <AltitudeMeters>44.200000762939453125</AltitudeMeters>
            <DistanceMeters>NAN</DistanceMeters>
          </Trackpoint>
          <Trackpoint>
            <Time>2021-08-12T16:23:21.000Z</Time>
            <Position>
              <LatitudeDegrees>43.2577268779277801513671875</LatitudeDegrees>
              <LongitudeDegrees>-1.98476694524288177490234375</LongitudeDegrees>
            </Position>
            <AltitudeMeters>44.200000762939453125</AltitudeMeters>
            <DistanceMeters>NAN</DistanceMeters>
          </Trackpoint>
          <Trackpoint>
            <Time>2021-08-12T16:23:22.000Z</Time>
            <Position>
              <LatitudeDegrees>43.2576814480125904083251953125</LatitudeDegrees>
              <LongitudeDegrees>-1.9847721420228481292724609375</LongitudeDegrees>
            </Position>
            <AltitudeMeters>44.200000762939453125</AltitudeMeters>
            <DistanceMeters>NAN</DistanceMeters>
          </Trackpoint>
          <Trackpoint>
            <Time>2021-08-12T16:23:23.000Z</Time>
            <Position>
              <LatitudeDegrees>43.25763677246868610382080078125</LatitudeDegrees>
              <LongitudeDegrees>-1.9847852177917957305908203125</LongitudeDegrees>
            </Position>
            <AltitudeMeters>44.200000762939453125</AltitudeMeters>
            <DistanceMeters>NAN</DistanceMeters>
          </Trackpoint>
          <Trackpoint>
            <Time>2021-08-12T16:23:24.000Z</Time>
            <Position>
              <LatitudeDegrees>43.25759352184832096099853515625</LatitudeDegrees>
              <LongitudeDegrees>-1.984802149236202239990234375</LongitudeDegrees>
            </Position>
            <AltitudeMeters>44.200000762939453125</AltitudeMeters>
            <DistanceMeters>NAN</DistanceMeters>
          </Trackpoint>
          <Trackpoint>
            <Time>2021-08-12T16:23:25.000Z</Time>
            <Position>
              <LatitudeDegrees>43.25755278579890727996826171875</LatitudeDegrees>
              <LongitudeDegrees>-1.98482536710798740386962890625</LongitudeDegrees>
            </Position>
            <AltitudeMeters>44.200000762939453125</AltitudeMeters>
            <DistanceMeters>NAN</DistanceMeters>
          </Trackpoint>
          <Trackpoint>
            <Time>2021-08-12T16:23:26.000Z</Time>
            <Position>
              <LatitudeDegrees>43.25751364231109619140625</LatitudeDegrees>
              <LongitudeDegrees>-1.9848492555320262908935546875</LongitudeDegrees>
            </Position>
            <AltitudeMeters>44.200000762939453125</AltitudeMeters>
            <DistanceMeters>NAN</DistanceMeters>
          </Trackpoint>
          <Trackpoint>
            <Time>2021-08-12T16:23:27.000Z</Time>
            <Position>
              <LatitudeDegrees>43.25747718103229999542236328125</LatitudeDegrees>
              <LongitudeDegrees>-1.984877251088619232177734375</LongitudeDegrees>
            </Position>
            <AltitudeMeters>44.200000762939453125</AltitudeMeters>
            <DistanceMeters>NAN</DistanceMeters>
          </Trackpoint>
          <Trackpoint>
            <Time>2021-08-12T16:23:28.000Z</Time>
            <Position>
              <LatitudeDegrees>43.25744382105767726898193359375</LatitudeDegrees>
              <LongitudeDegrees>-1.9849085994064807891845703125</LongitudeDegrees>
            </Position>
            <AltitudeMeters>44.200000762939453125</AltitudeMeters>
            <DistanceMeters>NAN</DistanceMeters>
          </Trackpoint>
          <Trackpoint>
            <Time>2021-08-12T16:23:29.000Z</Time>
            <Position>
              <LatitudeDegrees>43.2574135623872280120849609375</LatitudeDegrees>
              <LongitudeDegrees>-1.98494221083819866180419921875</LongitudeDegrees>
            </Position>
            <AltitudeMeters>44.200000762939453125</AltitudeMeters>
            <DistanceMeters>NAN</DistanceMeters>
          </Trackpoint>
          <Trackpoint>
            <Time>2021-08-12T16:23:30.000Z</Time>
            <Position>
              <LatitudeDegrees>43.25738665647804737091064453125</LatitudeDegrees>
              <LongitudeDegrees>-1.984975822269916534423828125</LongitudeDegrees>
            </Position>
            <AltitudeMeters>44.40000152587890625</AltitudeMeters>
            <DistanceMeters>NAN</DistanceMeters>
          </Trackpoint>
          <Trackpoint>
            <Time>2021-08-12T16:23:31.000Z</Time>
            <Position>
              <LatitudeDegrees>43.25736117549240589141845703125</LatitudeDegrees>
              <LongitudeDegrees>-1.98501228354871273040771484375</LongitudeDegrees>
            </Position>
            <AltitudeMeters>44.59999847412109375</AltitudeMeters>
            <DistanceMeters>NAN</DistanceMeters>
          </Trackpoint>
          <Trackpoint>
            <Time>2021-08-12T16:23:32.000Z</Time>
            <Position>
              <LatitudeDegrees>43.25733569450676441192626953125</LatitudeDegrees>
              <LongitudeDegrees>-1.98505285196006298065185546875</LongitudeDegrees>
            </Position>
            <AltitudeMeters>44.799999237060546875</AltitudeMeters>
            <DistanceMeters>NAN</DistanceMeters>
          </Trackpoint>
          <Trackpoint>
            <Time>2021-08-12T16:23:36.000Z</Time>
            <Position>
              <LatitudeDegrees>43.257246427237987518310546875</LatitudeDegrees>
              <LongitudeDegrees>-1.98525644838809967041015625</LongitudeDegrees>
            </Position>
            <AltitudeMeters>45.40000152587890625</AltitudeMeters>
            <DistanceMeters>NAN</DistanceMeters>
          </Trackpoint>
          <Trackpoint>
            <Time>2021-08-12T16:23:37.000Z</Time>
            <Position>
              <LatitudeDegrees>43.25723536312580108642578125</LatitudeDegrees>
              <LongitudeDegrees>-1.9853119365870952606201171875</LongitudeDegrees>
            </Position>
            <AltitudeMeters>45.59999847412109375</AltitudeMeters>
            <DistanceMeters>NAN</DistanceMeters>
          </Trackpoint>
          <Trackpoint>
            <Time>2021-08-12T16:23:39.000Z</Time>
            <Position>
              <LatitudeDegrees>43.25721465982496738433837890625</LatitudeDegrees>
              <LongitudeDegrees>-1.985412351787090301513671875</LongitudeDegrees>
            </Position>
            <AltitudeMeters>46</AltitudeMeters>
            <DistanceMeters>NAN</DistanceMeters>
          </Trackpoint>
          <Trackpoint>
            <Time>2021-08-12T16:23:40.000Z</Time>
            <Position>
              <LatitudeDegrees>43.25720124877989292144775390625</LatitudeDegrees>
              <LongitudeDegrees>-1.98544965125620365142822265625</LongitudeDegrees>
            </Position>
            <AltitudeMeters>46.40000152587890625</AltitudeMeters>
            <DistanceMeters>NAN</DistanceMeters>
          </Trackpoint>
          <Trackpoint>
            <Time>2021-08-12T16:23:41.000Z</Time>
            <Position>
              <LatitudeDegrees>43.25718884356319904327392578125</LatitudeDegrees>
              <LongitudeDegrees>-1.985478736460208892822265625</LongitudeDegrees>
            </Position>
            <AltitudeMeters>46.799999237060546875</AltitudeMeters>
            <DistanceMeters>NAN</DistanceMeters>
          </Trackpoint>
          <Trackpoint>
            <Time>2021-08-12T16:23:42.000Z</Time>
            <Position>
              <LatitudeDegrees>43.25717861764132976531982421875</LatitudeDegrees>
              <LongitudeDegrees>-1.98550698347389698028564453125</LongitudeDegrees>
            </Position>
            <AltitudeMeters>46.799999237060546875</AltitudeMeters>
            <DistanceMeters>NAN</DistanceMeters>
          </Trackpoint>
          <Trackpoint>
            <Time>2021-08-12T16:23:43.000Z</Time>
            <Position>
              <LatitudeDegrees>43.25716638006269931793212890625</LatitudeDegrees>
              <LongitudeDegrees>-1.98554252274334430694580078125</LongitudeDegrees>
            </Position>
            <AltitudeMeters>47</AltitudeMeters>
            <DistanceMeters>NAN</DistanceMeters>
          </Trackpoint>
          <Trackpoint>
            <Time>2021-08-12T16:23:46.000Z</Time>
            <Position>
              <LatitudeDegrees>43.25712245889008045196533203125</LatitudeDegrees>
              <LongitudeDegrees>-1.98566020466387271881103515625</LongitudeDegrees>
            </Position>
            <AltitudeMeters>47.59999847412109375</AltitudeMeters>
            <DistanceMeters>NAN</DistanceMeters>
          </Trackpoint>
          <Trackpoint>
            <Time>2021-08-12T16:23:47.000Z</Time>
            <Position>
              <LatitudeDegrees>43.25710133649408817291259765625</LatitudeDegrees>
              <LongitudeDegrees>-1.98569809086620807647705078125</LongitudeDegrees>
            </Position>
            <AltitudeMeters>47.799999237060546875</AltitudeMeters>
            <DistanceMeters>NAN</DistanceMeters>
          </Trackpoint>
          <Trackpoint>
            <Time>2021-08-12T16:23:48.000Z</Time>
            <Position>
              <LatitudeDegrees>43.25707443058490753173828125</LatitudeDegrees>
              <LongitudeDegrees>-1.98574251495301723480224609375</LongitudeDegrees>
            </Position>
            <AltitudeMeters>48</AltitudeMeters>
            <DistanceMeters>NAN</DistanceMeters>
          </Trackpoint>
          <Trackpoint>
            <Time>2021-08-12T16:23:49.000Z</Time>
            <Position>
              <LatitudeDegrees>43.25705540366470813751220703125</LatitudeDegrees>
              <LongitudeDegrees>-1.98576799593865871429443359375</LongitudeDegrees>
            </Position>
            <AltitudeMeters>48.200000762939453125</AltitudeMeters>
            <DistanceMeters>NAN</DistanceMeters>
          </Trackpoint>
          <Trackpoint>
            <Time>2021-08-12T16:23:50.000Z</Time>
            <Position>
              <LatitudeDegrees>43.25702506117522716522216796875</LatitudeDegrees>
              <LongitudeDegrees>-1.9858016073703765869140625</LongitudeDegrees>
            </Position>
            <AltitudeMeters>48.40000152587890625</AltitudeMeters>
            <DistanceMeters>NAN</DistanceMeters>
          </Trackpoint>
          <Trackpoint>
            <Time>2021-08-12T16:23:51.000Z</Time>
            <Position>
              <LatitudeDegrees>43.25700008310377597808837890625</LatitudeDegrees>
              <LongitudeDegrees>-1.98583521880209445953369140625</LongitudeDegrees>
            </Position>
            <AltitudeMeters>48.59999847412109375</AltitudeMeters>
            <DistanceMeters>NAN</DistanceMeters>
          </Trackpoint>
          <Trackpoint>
            <Time>2021-08-12T16:23:52.000Z</Time>
            <Position>
              <LatitudeDegrees>43.25697259046137332916259765625</LatitudeDegrees>
              <LongitudeDegrees>-1.98586723767220973968505859375</LongitudeDegrees>
            </Position>
            <AltitudeMeters>49</AltitudeMeters>
            <DistanceMeters>NAN</DistanceMeters>
          </Trackpoint>
          <Trackpoint>
            <Time>2021-08-12T16:23:53.000Z</Time>
            <Position>
              <LatitudeDegrees>43.25694342143833637237548828125</LatitudeDegrees>
              <LongitudeDegrees>-1.98589439503848552703857421875</LongitudeDegrees>
            </Position>
            <AltitudeMeters>49</AltitudeMeters>
            <DistanceMeters>NAN</DistanceMeters>
          </Trackpoint>
          <Trackpoint>
            <Time>2021-08-12T16:23:54.000Z</Time>
            <Position>
              <LatitudeDegrees>43.25691291131079196929931640625</LatitudeDegrees>
              <LongitudeDegrees>-1.98592104949057102203369140625</LongitudeDegrees>
            </Position>
            <AltitudeMeters>49.200000762939453125</AltitudeMeters>
            <DistanceMeters>NAN</DistanceMeters>
          </Trackpoint>
          <Trackpoint>
            <Time>2021-08-12T16:23:55.000Z</Time>
            <Position>
              <LatitudeDegrees>43.25688005425035953521728515625</LatitudeDegrees>
              <LongitudeDegrees>-1.98594870977103710174560546875</LongitudeDegrees>
            </Position>
            <AltitudeMeters>49.200000762939453125</AltitudeMeters>
            <DistanceMeters>NAN</DistanceMeters>
          </Trackpoint>
          <Trackpoint>
            <Time>2021-08-12T16:23:56.000Z</Time>
            <Position>
              <LatitudeDegrees>43.25685038231313228607177734375</LatitudeDegrees>
              <LongitudeDegrees>-1.98597368784248828887939453125</LongitudeDegrees>
            </Position>
            <AltitudeMeters>49.40000152587890625</AltitudeMeters>
            <DistanceMeters>NAN</DistanceMeters>
          </Trackpoint>
          <Trackpoint>
            <Time>2021-08-12T16:23:57.000Z</Time>
            <Position>
              <LatitudeDegrees>43.25681786052882671356201171875</LatitudeDegrees>
              <LongitudeDegrees>-1.98599766008555889129638671875</LongitudeDegrees>
            </Position>
            <AltitudeMeters>49.799999237060546875</AltitudeMeters>
            <DistanceMeters>NAN</DistanceMeters>
          </Trackpoint>
          <Trackpoint>
            <Time>2021-08-12T16:23:58.000Z</Time>
            <Position>
              <LatitudeDegrees>43.25678332708775997161865234375</LatitudeDegrees>
              <LongitudeDegrees>-1.98601953685283660888671875</LongitudeDegrees>
            </Position>
            <AltitudeMeters>49.799999237060546875</AltitudeMeters>
            <DistanceMeters>NAN</DistanceMeters>
          </Trackpoint>
          <Trackpoint>
            <Time>2021-08-12T16:23:59.000Z</Time>
            <Position>
              <LatitudeDegrees>43.25674728490412235260009765625</LatitudeDegrees>
              <LongitudeDegrees>-1.986039318144321441650390625</LongitudeDegrees>
            </Position>
            <AltitudeMeters>50</AltitudeMeters>
            <DistanceMeters>NAN</DistanceMeters>
          </Trackpoint>
          <Trackpoint>
            <Time>2021-08-12T16:24:00.000Z</Time>
            <Position>
              <LatitudeDegrees>43.256703279912471771240234375</LatitudeDegrees>
              <LongitudeDegrees>-1.986061446368694305419921875</LongitudeDegrees>
            </Position>
            <AltitudeMeters>50</AltitudeMeters>
            <DistanceMeters>NAN</DistanceMeters>
          </Trackpoint>
          <Trackpoint>
            <Time>2021-08-12T16:24:01.000Z</Time>
            <Position>
              <LatitudeDegrees>43.25667436234652996063232421875</LatitudeDegrees>
              <LongitudeDegrees>-1.9860763661563396453857421875</LongitudeDegrees>
            </Position>
            <AltitudeMeters>50.200000762939453125</AltitudeMeters>
            <DistanceMeters>NAN</DistanceMeters>
          </Trackpoint>
          <Trackpoint>
            <Time>2021-08-12T16:24:02.000Z</Time>
            <Position>
              <LatitudeDegrees>43.25663714669644832611083984375</LatitudeDegrees>
              <LongitudeDegrees>-1.9860941357910633087158203125</LongitudeDegrees>
            </Position>
            <AltitudeMeters>50.200000762939453125</AltitudeMeters>
            <DistanceMeters>NAN</DistanceMeters>
          </Trackpoint>
          <Trackpoint>
            <Time>2021-08-12T16:24:03.000Z</Time>
            <Position>
              <LatitudeDegrees>43.25660076923668384552001953125</LatitudeDegrees>
              <LongitudeDegrees>-1.98611207306385040283203125</LongitudeDegrees>
            </Position>
            <AltitudeMeters>50.40000152587890625</AltitudeMeters>
            <DistanceMeters>NAN</DistanceMeters>
          </Trackpoint>
          <Trackpoint>
            <Time>2021-08-12T16:24:04.000Z</Time>
            <Position>
              <LatitudeDegrees>43.25656355358660221099853515625</LatitudeDegrees>
              <LongitudeDegrees>-1.98612774722278118133544921875</LongitudeDegrees>
            </Position>
            <AltitudeMeters>50.40000152587890625</AltitudeMeters>
            <DistanceMeters>NAN</DistanceMeters>
          </Trackpoint>
          <Trackpoint>
            <Time>2021-08-12T16:24:05.000Z</Time>
            <Position>
              <LatitudeDegrees>43.25652466155588626861572265625</LatitudeDegrees>
              <LongitudeDegrees>-1.98614451102912425994873046875</LongitudeDegrees>
            </Position>
            <AltitudeMeters>50.59999847412109375</AltitudeMeters>
            <DistanceMeters>NAN</DistanceMeters>
          </Trackpoint>
          <Trackpoint>
            <Time>2021-08-12T16:24:06.000Z</Time>
            <Position>
              <LatitudeDegrees>43.25648476369678974151611328125</LatitudeDegrees>
              <LongitudeDegrees>-1.98616169393062591552734375</LongitudeDegrees>
            </Position>
            <AltitudeMeters>50.59999847412109375</AltitudeMeters>
            <DistanceMeters>NAN</DistanceMeters>
          </Trackpoint>
          <Trackpoint>
            <Time>2021-08-12T16:24:07.000Z</Time>
            <Position>
              <LatitudeDegrees>43.2564459554851055145263671875</LatitudeDegrees>
              <LongitudeDegrees>-1.98617703281342983245849609375</LongitudeDegrees>
            </Position>
            <AltitudeMeters>50.59999847412109375</AltitudeMeters>
            <DistanceMeters>NAN</DistanceMeters>
          </Trackpoint>
          <Trackpoint>
            <Time>2021-08-12T16:24:08.000Z</Time>
            <Position>
              <LatitudeDegrees>43.2564094103872776031494140625</LatitudeDegrees>
              <LongitudeDegrees>-1.98619061149656772613525390625</LongitudeDegrees>
            </Position>
            <AltitudeMeters>50.799999237060546875</AltitudeMeters>
            <DistanceMeters>NAN</DistanceMeters>
          </Trackpoint>
          <Trackpoint>
            <Time>2021-08-12T16:24:09.000Z</Time>
            <Position>
              <LatitudeDegrees>43.25637261383235454559326171875</LatitudeDegrees>
              <LongitudeDegrees>-1.986206285655498504638671875</LongitudeDegrees>
            </Position>
            <AltitudeMeters>51.200000762939453125</AltitudeMeters>
            <DistanceMeters>NAN</DistanceMeters>
          </Trackpoint>
          <Trackpoint>
            <Time>2021-08-12T16:24:10.000Z</Time>
            <Position>
              <LatitudeDegrees>43.25633556582033634185791015625</LatitudeDegrees>
              <LongitudeDegrees>-1.98622346855700016021728515625</LongitudeDegrees>
            </Position>
            <AltitudeMeters>51.200000762939453125</AltitudeMeters>
            <DistanceMeters>NAN</DistanceMeters>
          </Trackpoint>
          <Trackpoint>
            <Time>2021-08-12T16:24:11.000Z</Time>
            <Position>
              <LatitudeDegrees>43.25629952363669872283935546875</LatitudeDegrees>
              <LongitudeDegrees>-1.98624023236334323883056640625</LongitudeDegrees>
            </Position>
            <AltitudeMeters>51.40000152587890625</AltitudeMeters>
            <DistanceMeters>NAN</DistanceMeters>
          </Trackpoint>
          <Trackpoint>
            <Time>2021-08-12T16:24:12.000Z</Time>
            <Position>
              <LatitudeDegrees>43.25626331381499767303466796875</LatitudeDegrees>
              <LongitudeDegrees>-1.9862577505409717559814453125</LongitudeDegrees>
            </Position>
            <AltitudeMeters>51.59999847412109375</AltitudeMeters>
            <DistanceMeters>NAN</DistanceMeters>
          </Trackpoint>
          <Trackpoint>
            <Time>2021-08-12T16:24:13.000Z</Time>
            <Position>
              <LatitudeDegrees>43.2562250085175037384033203125</LatitudeDegrees>
              <LongitudeDegrees>-1.9862775318324565887451171875</LongitudeDegrees>
            </Position>
            <AltitudeMeters>51.799999237060546875</AltitudeMeters>
            <DistanceMeters>NAN</DistanceMeters>
          </Trackpoint>
          <Trackpoint>
            <Time>2021-08-12T16:24:14.000Z</Time>
            <Position>
              <LatitudeDegrees>43.256188966333866119384765625</LatitudeDegrees>
              <LongitudeDegrees>-1.9862983189523220062255859375</LongitudeDegrees>
            </Position>
            <AltitudeMeters>51.799999237060546875</AltitudeMeters>
            <DistanceMeters>NAN</DistanceMeters>
          </Trackpoint>
          <Trackpoint>
            <Time>2021-08-12T16:24:15.000Z</Time>
            <Position>
              <LatitudeDegrees>43.25615334324538707733154296875</LatitudeDegrees>
              <LongitudeDegrees>-1.98632237501442432403564453125</LongitudeDegrees>
            </Position>
            <AltitudeMeters>51.799999237060546875</AltitudeMeters>
            <DistanceMeters>NAN</DistanceMeters>
          </Trackpoint>
          <Trackpoint>
            <Time>2021-08-12T16:24:16.000Z</Time>
            <Position>
              <LatitudeDegrees>43.25611260719597339630126953125</LatitudeDegrees>
              <LongitudeDegrees>-1.9863539747893810272216796875</LongitudeDegrees>
            </Position>
            <AltitudeMeters>52</AltitudeMeters>
            <DistanceMeters>NAN</DistanceMeters>
          </Trackpoint>
          <Trackpoint>
            <Time>2021-08-12T16:24:17.000Z</Time>
            <Position>
              <LatitudeDegrees>43.2560875453054904937744140625</LatitudeDegrees>
              <LongitudeDegrees>-1.98637501336634159088134765625</LongitudeDegrees>
            </Position>
            <AltitudeMeters>52</AltitudeMeters>
            <DistanceMeters>NAN</DistanceMeters>
          </Trackpoint>
          <Trackpoint>
            <Time>2021-08-12T16:24:18.000Z</Time>
            <Position>
              <LatitudeDegrees>43.25605443678796291351318359375</LatitudeDegrees>
              <LongitudeDegrees>-1.9864029251039028167724609375</LongitudeDegrees>
            </Position>
            <AltitudeMeters>52.200000762939453125</AltitudeMeters>
            <DistanceMeters>NAN</DistanceMeters>
          </Trackpoint>
          <Trackpoint>
            <Time>2021-08-12T16:24:19.000Z</Time>
            <Position>
              <LatitudeDegrees>43.256020657718181610107421875</LatitudeDegrees>
              <LongitudeDegrees>-1.986434943974018096923828125</LongitudeDegrees>
            </Position>
            <AltitudeMeters>52.200000762939453125</AltitudeMeters>
            <DistanceMeters>NAN</DistanceMeters>
          </Trackpoint>
          <Trackpoint>
            <Time>2021-08-12T16:24:20.000Z</Time>
            <Position>
              <LatitudeDegrees>43.2559872977435588836669921875</LatitudeDegrees>
              <LongitudeDegrees>-1.98646838776767253875732421875</LongitudeDegrees>
            </Position>
            <AltitudeMeters>52.40000152587890625</AltitudeMeters>
            <DistanceMeters>NAN</DistanceMeters>
          </Trackpoint>
          <Trackpoint>
            <Time>2021-08-12T16:24:21.000Z</Time>
            <Position>
              <LatitudeDegrees>43.2559566199779510498046875</LatitudeDegrees>
              <LongitudeDegrees>-1.98650442995131015777587890625</LongitudeDegrees>
            </Position>
            <AltitudeMeters>52.59999847412109375</AltitudeMeters>
            <DistanceMeters>NAN</DistanceMeters>
          </Trackpoint>
          <Trackpoint>
            <Time>2021-08-12T16:24:22.000Z</Time>
            <Position>
              <LatitudeDegrees>43.25592770241200923919677734375</LatitudeDegrees>
              <LongitudeDegrees>-1.98653946630656719207763671875</LongitudeDegrees>
            </Position>
            <AltitudeMeters>52.799999237060546875</AltitudeMeters>
            <DistanceMeters>NAN</DistanceMeters>
          </Trackpoint>
          <Trackpoint>
            <Time>2021-08-12T16:24:23.000Z</Time>
            <Position>
              <LatitudeDegrees>43.2559007965028285980224609375</LatitudeDegrees>
              <LongitudeDegrees>-1.986574418842792510986328125</LongitudeDegrees>
            </Position>
            <AltitudeMeters>52.799999237060546875</AltitudeMeters>
            <DistanceMeters>NAN</DistanceMeters>
          </Trackpoint>
          <Trackpoint>
            <Time>2021-08-12T16:24:24.000Z</Time>
            <Position>
              <LatitudeDegrees>43.25587271712720394134521484375</LatitudeDegrees>
              <LongitudeDegrees>-1.986611299216747283935546875</LongitudeDegrees>
            </Position>
            <AltitudeMeters>52.799999237060546875</AltitudeMeters>
            <DistanceMeters>NAN</DistanceMeters>
          </Trackpoint>
          <Trackpoint>
            <Time>2021-08-12T16:24:25.000Z</Time>
            <Position>
              <LatitudeDegrees>43.25584455393254756927490234375</LatitudeDegrees>
              <LongitudeDegrees>-1.98665061034262180328369140625</LongitudeDegrees>
            </Position>
            <AltitudeMeters>53</AltitudeMeters>
            <DistanceMeters>NAN</DistanceMeters>
          </Trackpoint>
          <Trackpoint>
            <Time>2021-08-12T16:24:26.000Z</Time>
            <Position>
              <LatitudeDegrees>43.2558179832994937896728515625</LatitudeDegrees>
              <LongitudeDegrees>-1.98669218458235263824462890625</LongitudeDegrees>
            </Position>
            <AltitudeMeters>53</AltitudeMeters>
            <DistanceMeters>NAN</DistanceMeters>
          </Trackpoint>
          <Trackpoint>
            <Time>2021-08-12T16:24:27.000Z</Time>
            <Position>
              <LatitudeDegrees>43.25579233467578887939453125</LatitudeDegrees>
              <LongitudeDegrees>-1.9867341779172420501708984375</LongitudeDegrees>
            </Position>
            <AltitudeMeters>53.200000762939453125</AltitudeMeters>
            <DistanceMeters>NAN</DistanceMeters>
          </Trackpoint>
          <Trackpoint>
            <Time>2021-08-12T16:24:28.000Z</Time>
            <Position>
              <LatitudeDegrees>43.25577045790851116180419921875</LatitudeDegrees>
              <LongitudeDegrees>-1.98677466250956058502197265625</LongitudeDegrees>
            </Position>
            <AltitudeMeters>53.40000152587890625</AltitudeMeters>
            <DistanceMeters>NAN</DistanceMeters>
          </Trackpoint>
          <Trackpoint>
            <Time>2021-08-12T16:24:29.000Z</Time>
            <Position>
              <LatitudeDegrees>43.25574983842670917510986328125</LatitudeDegrees>
              <LongitudeDegrees>-1.9868129678070545196533203125</LongitudeDegrees>
            </Position>
            <AltitudeMeters>53.59999847412109375</AltitudeMeters>
            <DistanceMeters>NAN</DistanceMeters>
          </Trackpoint>
          <Trackpoint>
            <Time>2021-08-12T16:24:30.000Z</Time>
            <Position>
              <LatitudeDegrees>43.25573022477328777313232421875</LatitudeDegrees>
              <LongitudeDegrees>-1.98684968054294586181640625</LongitudeDegrees>
            </Position>
            <AltitudeMeters>53.799999237060546875</AltitudeMeters>
            <DistanceMeters>NAN</DistanceMeters>
          </Trackpoint>
          <Trackpoint>
            <Time>2021-08-12T16:24:31.000Z</Time>
            <Position>
              <LatitudeDegrees>43.2557098567485809326171875</LatitudeDegrees>
              <LongitudeDegrees>-1.98688647709786891937255859375</LongitudeDegrees>
            </Position>
            <AltitudeMeters>54</AltitudeMeters>
            <DistanceMeters>NAN</DistanceMeters>
          </Trackpoint>
          <Trackpoint>
            <Time>2021-08-12T16:24:32.000Z</Time>
            <Position>
              <LatitudeDegrees>43.25568697415292263031005859375</LatitudeDegrees>
              <LongitudeDegrees>-1.98693215847015380859375</LongitudeDegrees>
            </Position>
            <AltitudeMeters>54.200000762939453125</AltitudeMeters>
            <DistanceMeters>NAN</DistanceMeters>
          </Trackpoint>
          <Trackpoint>
            <Time>2021-08-12T16:24:33.000Z</Time>
            <Position>
              <LatitudeDegrees>43.25567104853689670562744140625</LatitudeDegrees>
              <LongitudeDegrees>-1.9869621656835079193115234375</LongitudeDegrees>
            </Position>
            <AltitudeMeters>54.200000762939453125</AltitudeMeters>
            <DistanceMeters>NAN</DistanceMeters>
          </Trackpoint>
          <Trackpoint>
            <Time>2021-08-12T16:24:34.000Z</Time>
            <Position>
              <LatitudeDegrees>43.255647160112857818603515625</LatitudeDegrees>
              <LongitudeDegrees>-1.98700583539903163909912109375</LongitudeDegrees>
            </Position>
            <AltitudeMeters>54.40000152587890625</AltitudeMeters>
            <DistanceMeters>NAN</DistanceMeters>
          </Trackpoint>
          <Trackpoint>
            <Time>2021-08-12T16:24:35.000Z</Time>
            <Position>
              <LatitudeDegrees>43.25562545098364353179931640625</LatitudeDegrees>
              <LongitudeDegrees>-1.9870530255138874053955078125</LongitudeDegrees>
            </Position>
            <AltitudeMeters>54.59999847412109375</AltitudeMeters>
            <DistanceMeters>NAN</DistanceMeters>
          </Trackpoint>
          <Trackpoint>
            <Time>2021-08-12T16:24:36.000Z</Time>
            <Position>
              <LatitudeDegrees>43.2556044124066829681396484375</LatitudeDegrees>
              <LongitudeDegrees>-1.987103484570980072021484375</LongitudeDegrees>
            </Position>
            <AltitudeMeters>54.59999847412109375</AltitudeMeters>
            <DistanceMeters>NAN</DistanceMeters>
          </Trackpoint>
          <Trackpoint>
            <Time>2021-08-12T16:24:37.000Z</Time>
            <Position>
              <LatitudeDegrees>43.2555846311151981353759765625</LatitudeDegrees>
              <LongitudeDegrees>-1.98715486563742160797119140625</LongitudeDegrees>
            </Position>
            <AltitudeMeters>54.799999237060546875</AltitudeMeters>
            <DistanceMeters>NAN</DistanceMeters>
          </Trackpoint>
          <Trackpoint>
            <Time>2021-08-12T16:24:38.000Z</Time>
            <Position>
              <LatitudeDegrees>43.25556476600468158721923828125</LatitudeDegrees>
              <LongitudeDegrees>-1.98720750398933887481689453125</LongitudeDegrees>
            </Position>
            <AltitudeMeters>55</AltitudeMeters>
            <DistanceMeters>NAN</DistanceMeters>
          </Trackpoint>
          <Trackpoint>
            <Time>2021-08-12T16:24:39.000Z</Time>
            <Position>
              <LatitudeDegrees>43.2555407099425792694091796875</LatitudeDegrees>
              <LongitudeDegrees>-1.98725611902773380279541015625</LongitudeDegrees>
            </Position>
            <AltitudeMeters>55</AltitudeMeters>
            <DistanceMeters>NAN</DistanceMeters>
          </Trackpoint>
          <Trackpoint>
            <Time>2021-08-12T16:24:40.000Z</Time>
            <Position>
              <LatitudeDegrees>43.2555135525763034820556640625</LatitudeDegrees>
              <LongitudeDegrees>-1.98730054311454296112060546875</LongitudeDegrees>
            </Position>
            <AltitudeMeters>55</AltitudeMeters>
            <DistanceMeters>NAN</DistanceMeters>
          </Trackpoint>
          <Trackpoint>
            <Time>2021-08-12T16:24:41.000Z</Time>
            <Position>
              <LatitudeDegrees>43.25548714958131313323974609375</LatitudeDegrees>
              <LongitudeDegrees>-1.9873416982591152191162109375</LongitudeDegrees>
            </Position>
            <AltitudeMeters>55.200000762939453125</AltitudeMeters>
            <DistanceMeters>NAN</DistanceMeters>
          </Trackpoint>
          <Trackpoint>
            <Time>2021-08-12T16:24:42.000Z</Time>
            <Position>
              <LatitudeDegrees>43.25546099804341793060302734375</LatitudeDegrees>
              <LongitudeDegrees>-1.9873846136033535003662109375</LongitudeDegrees>
            </Position>
            <AltitudeMeters>55.200000762939453125</AltitudeMeters>
            <DistanceMeters>NAN</DistanceMeters>
          </Trackpoint>
          <Trackpoint>
            <Time>2021-08-12T16:24:43.000Z</Time>
            <Position>
              <LatitudeDegrees>43.25543560087680816650390625</LatitudeDegrees>
              <LongitudeDegrees>-1.9874271936714649200439453125</LongitudeDegrees>
            </Position>
            <AltitudeMeters>55.200000762939453125</AltitudeMeters>
            <DistanceMeters>NAN</DistanceMeters>
          </Trackpoint>
          <Trackpoint>
            <Time>2021-08-12T16:24:44.000Z</Time>
            <Position>
              <LatitudeDegrees>43.255413137376308441162109375</LatitudeDegrees>
              <LongitudeDegrees>-1.98747321031987667083740234375</LongitudeDegrees>
            </Position>
            <AltitudeMeters>55.200000762939453125</AltitudeMeters>
            <DistanceMeters>NAN</DistanceMeters>
          </Trackpoint>
          <Trackpoint>
            <Time>2021-08-12T16:24:45.000Z</Time>
            <Position>
              <LatitudeDegrees>43.25539402663707733154296875</LatitudeDegrees>
              <LongitudeDegrees>-1.987520568072795867919921875</LongitudeDegrees>
            </Position>
            <AltitudeMeters>55.200000762939453125</AltitudeMeters>
            <DistanceMeters>NAN</DistanceMeters>
          </Trackpoint>
          <Trackpoint>
            <Time>2021-08-12T16:24:46.000Z</Time>
            <Position>
              <LatitudeDegrees>43.25537349097430706024169921875</LatitudeDegrees>
              <LongitudeDegrees>-1.98756591416895389556884765625</LongitudeDegrees>
            </Position>
            <AltitudeMeters>55.200000762939453125</AltitudeMeters>
            <DistanceMeters>NAN</DistanceMeters>
          </Trackpoint>
          <Trackpoint>
            <Time>2021-08-12T16:24:47.000Z</Time>
            <Position>
              <LatitudeDegrees>43.25535052455961704254150390625</LatitudeDegrees>
              <LongitudeDegrees>-1.98760681785643100738525390625</LongitudeDegrees>
            </Position>
            <AltitudeMeters>55.200000762939453125</AltitudeMeters>
            <DistanceMeters>NAN</DistanceMeters>
          </Trackpoint>
          <Trackpoint>
            <Time>2021-08-12T16:24:48.000Z</Time>
            <Position>
              <LatitudeDegrees>43.2553236186504364013671875</LatitudeDegrees>
              <LongitudeDegrees>-1.98764487169682979583740234375</LongitudeDegrees>
            </Position>
            <AltitudeMeters>55.40000152587890625</AltitudeMeters>
            <DistanceMeters>NAN</DistanceMeters>
          </Trackpoint>
          <Trackpoint>
            <Time>2021-08-12T16:24:49.000Z</Time>
            <Position>
              <LatitudeDegrees>43.25529436580836772918701171875</LatitudeDegrees>
              <LongitudeDegrees>-1.98767990805208683013916015625</LongitudeDegrees>
            </Position>
            <AltitudeMeters>55.40000152587890625</AltitudeMeters>
            <DistanceMeters>NAN</DistanceMeters>
          </Trackpoint>
          <Trackpoint>
            <Time>2021-08-12T16:24:50.000Z</Time>
            <Position>
              <LatitudeDegrees>43.25526217930018901824951171875</LatitudeDegrees>
              <LongitudeDegrees>-1.98771310038864612579345703125</LongitudeDegrees>
            </Position>
            <AltitudeMeters>55.40000152587890625</AltitudeMeters>
            <DistanceMeters>NAN</DistanceMeters>
          </Trackpoint>
          <Trackpoint>
            <Time>2021-08-12T16:24:51.000Z</Time>
            <Position>
              <LatitudeDegrees>43.25522865168750286102294921875</LatitudeDegrees>
              <LongitudeDegrees>-1.9877450354397296905517578125</LongitudeDegrees>
            </Position>
            <AltitudeMeters>55.200000762939453125</AltitudeMeters>
            <DistanceMeters>NAN</DistanceMeters>
          </Trackpoint>
          <Trackpoint>
            <Time>2021-08-12T16:24:55.000Z</Time>
            <Position>
              <LatitudeDegrees>43.25508196838200092315673828125</LatitudeDegrees>
              <LongitudeDegrees>-1.987876631319522857666015625</LongitudeDegrees>
            </Position>
            <AltitudeMeters>54.799999237060546875</AltitudeMeters>
            <DistanceMeters>NAN</DistanceMeters>
          </Trackpoint>
          <Trackpoint>
            <Time>2021-08-12T16:24:59.000Z</Time>
            <Position>
              <LatitudeDegrees>43.2548647932708263397216796875</LatitudeDegrees>
              <LongitudeDegrees>-1.98802222497761249542236328125</LongitudeDegrees>
            </Position>
            <AltitudeMeters>54</AltitudeMeters>
            <DistanceMeters>NAN</DistanceMeters>
          </Trackpoint>
          <Trackpoint>
            <Time>2021-08-12T16:25:01.000Z</Time>
            <Position>
              <LatitudeDegrees>43.25473646633327007293701171875</LatitudeDegrees>
              <LongitudeDegrees>-1.9880937226116657257080078125</LongitudeDegrees>
            </Position>
            <AltitudeMeters>53.40000152587890625</AltitudeMeters>
            <DistanceMeters>NAN</DistanceMeters>
          </Trackpoint>
          <Trackpoint>
            <Time>2021-08-12T16:25:04.000Z</Time>
            <Position>
              <LatitudeDegrees>43.25453898869454860687255859375</LatitudeDegrees>
              <LongitudeDegrees>-1.98821081779897212982177734375</LongitudeDegrees>
            </Position>
            <AltitudeMeters>52.200000762939453125</AltitudeMeters>
            <DistanceMeters>NAN</DistanceMeters>
          </Trackpoint>
          <Trackpoint>
            <Time>2021-08-12T16:25:05.000Z</Time>
            <Position>
              <LatitudeDegrees>43.254473693668842315673828125</LatitudeDegrees>
              <LongitudeDegrees>-1.988249123096466064453125</LongitudeDegrees>
            </Position>
            <AltitudeMeters>51.799999237060546875</AltitudeMeters>
            <DistanceMeters>NAN</DistanceMeters>
          </Trackpoint>
          <Trackpoint>
            <Time>2021-08-12T16:25:06.000Z</Time>
            <Position>
              <LatitudeDegrees>43.254409991204738616943359375</LatitudeDegrees>
              <LongitudeDegrees>-1.98828826658427715301513671875</LongitudeDegrees>
            </Position>
            <AltitudeMeters>51.59999847412109375</AltitudeMeters>
            <DistanceMeters>NAN</DistanceMeters>
          </Trackpoint>
          <Trackpoint>
            <Time>2021-08-12T16:25:08.000Z</Time>
            <Position>
              <LatitudeDegrees>43.25427814386785030364990234375</LatitudeDegrees>
              <LongitudeDegrees>-1.98836722411215305328369140625</LongitudeDegrees>
            </Position>
            <AltitudeMeters>51.200000762939453125</AltitudeMeters>
            <DistanceMeters>NAN</DistanceMeters>
          </Trackpoint>
          <Trackpoint>
            <Time>2021-08-12T16:25:12.000Z</Time>
            <Position>
              <LatitudeDegrees>43.25401243753731250762939453125</LatitudeDegrees>
              <LongitudeDegrees>-1.98852195404469966888427734375</LongitudeDegrees>
            </Position>
            <AltitudeMeters>50</AltitudeMeters>
            <DistanceMeters>NAN</DistanceMeters>
          </Trackpoint>
          <Trackpoint>
            <Time>2021-08-12T16:25:17.000Z</Time>
            <Position>
              <LatitudeDegrees>43.2536889798939228057861328125</LatitudeDegrees>
              <LongitudeDegrees>-1.988706104457378387451171875</LongitudeDegrees>
            </Position>
            <AltitudeMeters>49</AltitudeMeters>
            <DistanceMeters>NAN</DistanceMeters>
          </Trackpoint>
          <Trackpoint>
            <Time>2021-08-12T16:25:18.000Z</Time>
            <Position>
              <LatitudeDegrees>43.2536249421536922454833984375</LatitudeDegrees>
              <LongitudeDegrees>-1.9887397997081279754638671875</LongitudeDegrees>
            </Position>
            <AltitudeMeters>48.799999237060546875</AltitudeMeters>
            <DistanceMeters>NAN</DistanceMeters>
          </Trackpoint>
          <Trackpoint>
            <Time>2021-08-12T16:25:23.000Z</Time>
            <Position>
              <LatitudeDegrees>43.25329008512198925018310546875</LatitudeDegrees>
              <LongitudeDegrees>-1.98892478831112384796142578125</LongitudeDegrees>
            </Position>
            <AltitudeMeters>47.799999237060546875</AltitudeMeters>
            <DistanceMeters>NAN</DistanceMeters>
          </Trackpoint>
          <Trackpoint>
            <Time>2021-08-12T16:25:27.000Z</Time>
            <Position>
              <LatitudeDegrees>43.25299235992133617401123046875</LatitudeDegrees>
              <LongitudeDegrees>-1.98907515965402126312255859375</LongitudeDegrees>
            </Position>
            <AltitudeMeters>47</AltitudeMeters>
            <DistanceMeters>NAN</DistanceMeters>
          </Trackpoint>
          <Trackpoint>
            <Time>2021-08-12T16:25:28.000Z</Time>
            <Position>
              <LatitudeDegrees>43.25290770269930362701416015625</LatitudeDegrees>
              <LongitudeDegrees>-1.989118494093418121337890625</LongitudeDegrees>
            </Position>
            <AltitudeMeters>46.40000152587890625</AltitudeMeters>
            <DistanceMeters>NAN</DistanceMeters>
          </Trackpoint>
          <Trackpoint>
            <Time>2021-08-12T16:25:31.000Z</Time>
            <Position>
              <LatitudeDegrees>43.25264610350131988525390625</LatitudeDegrees>
              <LongitudeDegrees>-1.98925151489675045013427734375</LongitudeDegrees>
            </Position>
            <AltitudeMeters>45.200000762939453125</AltitudeMeters>
            <DistanceMeters>NAN</DistanceMeters>
          </Trackpoint>
          <Trackpoint>
            <Time>2021-08-12T16:25:32.000Z</Time>
            <Position>
              <LatitudeDegrees>43.25255650095641613006591796875</LatitudeDegrees>
              <LongitudeDegrees>-1.9892950169742107391357421875</LongitudeDegrees>
            </Position>
            <AltitudeMeters>44.799999237060546875</AltitudeMeters>
            <DistanceMeters>NAN</DistanceMeters>
          </Trackpoint>
          <Trackpoint>
            <Time>2021-08-12T16:25:33.000Z</Time>
            <Position>
              <LatitudeDegrees>43.25246731750667095184326171875</LatitudeDegrees>
              <LongitudeDegrees>-1.9893386028707027435302734375</LongitudeDegrees>
            </Position>
            <AltitudeMeters>44</AltitudeMeters>
            <DistanceMeters>NAN</DistanceMeters>
          </Trackpoint>
          <Trackpoint>
            <Time>2021-08-12T16:25:34.000Z</Time>
            <Position>
              <LatitudeDegrees>43.2523780502378940582275390625</LatitudeDegrees>
              <LongitudeDegrees>-1.98938294313848018646240234375</LongitudeDegrees>
            </Position>
            <AltitudeMeters>43.799999237060546875</AltitudeMeters>
            <DistanceMeters>NAN</DistanceMeters>
          </Trackpoint>
          <Trackpoint>
            <Time>2021-08-12T16:25:35.000Z</Time>
            <Position>
              <LatitudeDegrees>43.25228962115943431854248046875</LatitudeDegrees>
              <LongitudeDegrees>-1.9894254393875598907470703125</LongitudeDegrees>
            </Position>
            <AltitudeMeters>42.799999237060546875</AltitudeMeters>
            <DistanceMeters>NAN</DistanceMeters>
          </Trackpoint>
          <Trackpoint>
            <Time>2021-08-12T16:25:37.000Z</Time>
            <Position>
              <LatitudeDegrees>43.25212298892438411712646484375</LatitudeDegrees>
              <LongitudeDegrees>-1.98950548656284809112548828125</LongitudeDegrees>
            </Position>
            <AltitudeMeters>41.799999237060546875</AltitudeMeters>
            <DistanceMeters>NAN</DistanceMeters>
          </Trackpoint>
          <Trackpoint>
            <Time>2021-08-12T16:25:39.000Z</Time>
            <Position>
              <LatitudeDegrees>43.2519589550793170928955078125</LatitudeDegrees>
              <LongitudeDegrees>-1.98959182016551494598388671875</LongitudeDegrees>
            </Position>
            <AltitudeMeters>41.200000762939453125</AltitudeMeters>
            <DistanceMeters>NAN</DistanceMeters>
          </Trackpoint>
          <Trackpoint>
            <Time>2021-08-12T16:25:40.000Z</Time>
            <Position>
              <LatitudeDegrees>43.2518794946372509002685546875</LatitudeDegrees>
              <LongitudeDegrees>-1.98963590897619724273681640625</LongitudeDegrees>
            </Position>
            <AltitudeMeters>41</AltitudeMeters>
            <DistanceMeters>NAN</DistanceMeters>
          </Trackpoint>
          <Trackpoint>
            <Time>2021-08-12T16:25:41.000Z</Time>
            <Position>
              <LatitudeDegrees>43.2518013752996921539306640625</LatitudeDegrees>
              <LongitudeDegrees>-1.989680416882038116455078125</LongitudeDegrees>
            </Position>
            <AltitudeMeters>41</AltitudeMeters>
            <DistanceMeters>NAN</DistanceMeters>
          </Trackpoint>
          <Trackpoint>
            <Time>2021-08-12T16:25:42.000Z</Time>
            <Position>
              <LatitudeDegrees>43.25172610580921173095703125</LatitudeDegrees>
              <LongitudeDegrees>-1.98972500860691070556640625</LongitudeDegrees>
            </Position>
            <AltitudeMeters>40.799999237060546875</AltitudeMeters>
            <DistanceMeters>NAN</DistanceMeters>
          </Trackpoint>
          <Trackpoint>
            <Time>2021-08-12T16:25:43.000Z</Time>
            <Position>
              <LatitudeDegrees>43.25165427289903163909912109375</LatitudeDegrees>
              <LongitudeDegrees>-1.989768259227275848388671875</LongitudeDegrees>
            </Position>
            <AltitudeMeters>40.799999237060546875</AltitudeMeters>
            <DistanceMeters>NAN</DistanceMeters>
          </Trackpoint>
          <Trackpoint>
            <Time>2021-08-12T16:25:44.000Z</Time>
            <Position>
              <LatitudeDegrees>43.25158688239753246307373046875</LatitudeDegrees>
              <LongitudeDegrees>-1.9898093305528163909912109375</LongitudeDegrees>
            </Position>
            <AltitudeMeters>40.799999237060546875</AltitudeMeters>
            <DistanceMeters>NAN</DistanceMeters>
          </Trackpoint>
          <Trackpoint>
            <Time>2021-08-12T16:25:45.000Z</Time>
            <Position>
              <LatitudeDegrees>43.25152452103793621063232421875</LatitudeDegrees>
              <LongitudeDegrees>-1.98984436690807342529296875</LongitudeDegrees>
            </Position>
            <AltitudeMeters>40.799999237060546875</AltitudeMeters>
            <DistanceMeters>NAN</DistanceMeters>
          </Trackpoint>
          <Trackpoint>
            <Time>2021-08-12T16:25:46.000Z</Time>
            <Position>
              <LatitudeDegrees>43.2514667697250843048095703125</LatitudeDegrees>
              <LongitudeDegrees>-1.98987387120723724365234375</LongitudeDegrees>
            </Position>
            <AltitudeMeters>41</AltitudeMeters>
            <DistanceMeters>NAN</DistanceMeters>
          </Trackpoint>
          <Trackpoint>
            <Time>2021-08-12T16:25:47.000Z</Time>
            <Position>
              <LatitudeDegrees>43.2514127902686595916748046875</LatitudeDegrees>
              <LongitudeDegrees>-1.9898998551070690155029296875</LongitudeDegrees>
            </Position>
            <AltitudeMeters>41.59999847412109375</AltitudeMeters>
            <DistanceMeters>NAN</DistanceMeters>
          </Trackpoint>
          <Trackpoint>
            <Time>2021-08-12T16:25:48.000Z</Time>
            <Position>
              <LatitudeDegrees>43.25136224739253520965576171875</LatitudeDegrees>
              <LongitudeDegrees>-1.98992407880723476409912109375</LongitudeDegrees>
            </Position>
            <AltitudeMeters>41.799999237060546875</AltitudeMeters>
            <DistanceMeters>NAN</DistanceMeters>
          </Trackpoint>
          <Trackpoint>
            <Time>2021-08-12T16:25:49.000Z</Time>
            <Position>
              <LatitudeDegrees>43.25131748802959918975830078125</LatitudeDegrees>
              <LongitudeDegrees>-1.9899511523544788360595703125</LongitudeDegrees>
            </Position>
            <AltitudeMeters>42.40000152587890625</AltitudeMeters>
            <DistanceMeters>NAN</DistanceMeters>
          </Trackpoint>
          <Trackpoint>
            <Time>2021-08-12T16:25:50.000Z</Time>
            <Position>
              <LatitudeDegrees>43.251278512179851531982421875</LatitudeDegrees>
              <LongitudeDegrees>-1.9899751245975494384765625</LongitudeDegrees>
            </Position>
            <AltitudeMeters>42.59999847412109375</AltitudeMeters>
            <DistanceMeters>NAN</DistanceMeters>
          </Trackpoint>
          <Trackpoint>
            <Time>2021-08-12T16:25:51.000Z</Time>
            <Position>
              <LatitudeDegrees>43.25124054215848445892333984375</LatitudeDegrees>
              <LongitudeDegrees>-1.98999783955514430999755859375</LongitudeDegrees>
            </Position>
            <AltitudeMeters>43.200000762939453125</AltitudeMeters>
            <DistanceMeters>NAN</DistanceMeters>
          </Trackpoint>
          <Trackpoint>
            <Time>2021-08-12T16:25:52.000Z</Time>
            <Position>
              <LatitudeDegrees>43.25120517052710056304931640625</LatitudeDegrees>
              <LongitudeDegrees>-1.9900218956172466278076171875</LongitudeDegrees>
            </Position>
            <AltitudeMeters>43.59999847412109375</AltitudeMeters>
            <DistanceMeters>NAN</DistanceMeters>
          </Trackpoint>
          <Trackpoint>
            <Time>2021-08-12T16:25:53.000Z</Time>
            <Position>
              <LatitudeDegrees>43.25116795487701892852783203125</LatitudeDegrees>
              <LongitudeDegrees>-1.99004729278385639190673828125</LongitudeDegrees>
            </Position>
            <AltitudeMeters>44.40000152587890625</AltitudeMeters>
            <DistanceMeters>NAN</DistanceMeters>
          </Trackpoint>
          <Trackpoint>
            <Time>2021-08-12T16:25:54.000Z</Time>
            <Position>
              <LatitudeDegrees>43.2511345110833644866943359375</LatitudeDegrees>
              <LongitudeDegrees>-1.99006640352308750152587890625</LongitudeDegrees>
            </Position>
            <AltitudeMeters>45</AltitudeMeters>
            <DistanceMeters>NAN</DistanceMeters>
          </Trackpoint>
          <Trackpoint>
            <Time>2021-08-12T16:25:55.000Z</Time>
            <Position>
              <LatitudeDegrees>43.2510993070900440216064453125</LatitudeDegrees>
              <LongitudeDegrees>-1.99008517898619174957275390625</LongitudeDegrees>
            </Position>
            <AltitudeMeters>45.40000152587890625</AltitudeMeters>
            <DistanceMeters>NAN</DistanceMeters>
          </Trackpoint>
          <Trackpoint>
            <Time>2021-08-12T16:25:56.000Z</Time>
            <Position>
              <LatitudeDegrees>43.2510671205818653106689453125</LatitudeDegrees>
              <LongitudeDegrees>-1.99010563082993030548095703125</LongitudeDegrees>
            </Position>
            <AltitudeMeters>46</AltitudeMeters>
            <DistanceMeters>NAN</DistanceMeters>
          </Trackpoint>
          <Trackpoint>
            <Time>2021-08-12T16:25:58.000Z</Time>
            <Position>
              <LatitudeDegrees>43.251008279621601104736328125</LatitudeDegrees>
              <LongitudeDegrees>-1.99015189893543720245361328125</LongitudeDegrees>
            </Position>
            <AltitudeMeters>46.799999237060546875</AltitudeMeters>
            <DistanceMeters>NAN</DistanceMeters>
          </Trackpoint>
          <Trackpoint>
            <Time>2021-08-12T16:25:59.000Z</Time>
            <Position>
              <LatitudeDegrees>43.25097667984664440155029296875</LatitudeDegrees>
              <LongitudeDegrees>-1.99017201550304889678955078125</LongitudeDegrees>
            </Position>
            <AltitudeMeters>47</AltitudeMeters>
            <DistanceMeters>NAN</DistanceMeters>
          </Trackpoint>
          <Trackpoint>
            <Time>2021-08-12T16:26:00.000Z</Time>
            <Position>
              <LatitudeDegrees>43.25094499625265598297119140625</LatitudeDegrees>
              <LongitudeDegrees>-1.99019280262291431427001953125</LongitudeDegrees>
            </Position>
            <AltitudeMeters>47.40000152587890625</AltitudeMeters>
            <DistanceMeters>NAN</DistanceMeters>
          </Trackpoint>
          <Trackpoint>
            <Time>2021-08-12T16:26:01.000Z</Time>
            <Position>
              <LatitudeDegrees>43.25091381557285785675048828125</LatitudeDegrees>
              <LongitudeDegrees>-1.9902176968753337860107421875</LongitudeDegrees>
            </Position>
            <AltitudeMeters>47.59999847412109375</AltitudeMeters>
            <DistanceMeters>NAN</DistanceMeters>
          </Trackpoint>
          <Trackpoint>
            <Time>2021-08-12T16:26:02.000Z</Time>
            <Position>
              <LatitudeDegrees>43.25088447891175746917724609375</LatitudeDegrees>
              <LongitudeDegrees>-1.9902468658983707427978515625</LongitudeDegrees>
            </Position>
            <AltitudeMeters>47.799999237060546875</AltitudeMeters>
            <DistanceMeters>NAN</DistanceMeters>
          </Trackpoint>
          <Trackpoint>
            <Time>2021-08-12T16:26:03.000Z</Time>
            <Position>
              <LatitudeDegrees>43.2508555613458156585693359375</LatitudeDegrees>
              <LongitudeDegrees>-1.9902713410556316375732421875</LongitudeDegrees>
            </Position>
            <AltitudeMeters>47.799999237060546875</AltitudeMeters>
            <DistanceMeters>NAN</DistanceMeters>
          </Trackpoint>
          <Trackpoint>
            <Time>2021-08-12T16:26:04.000Z</Time>
            <Position>
              <LatitudeDegrees>43.2508327625691890716552734375</LatitudeDegrees>
              <LongitudeDegrees>-1.990295983850955963134765625</LongitudeDegrees>
            </Position>
            <AltitudeMeters>47.799999237060546875</AltitudeMeters>
            <DistanceMeters>NAN</DistanceMeters>
          </Trackpoint>
          <Trackpoint>
            <Time>2021-08-12T16:26:05.000Z</Time>
            <Position>
              <LatitudeDegrees>43.2508186809718608856201171875</LatitudeDegrees>
              <LongitudeDegrees>-1.99032255448400974273681640625</LongitudeDegrees>
            </Position>
            <AltitudeMeters>47.799999237060546875</AltitudeMeters>
            <DistanceMeters>NAN</DistanceMeters>
          </Trackpoint>
          <Trackpoint>
            <Time>2021-08-12T16:26:06.000Z</Time>
            <Position>
              <LatitudeDegrees>43.25079931877553462982177734375</LatitudeDegrees>
              <LongitudeDegrees>-1.99035189114511013031005859375</LongitudeDegrees>
            </Position>
            <AltitudeMeters>47.799999237060546875</AltitudeMeters>
            <DistanceMeters>NAN</DistanceMeters>
          </Trackpoint>
          <Trackpoint>
            <Time>2021-08-12T16:26:07.000Z</Time>
            <Position>
              <LatitudeDegrees>43.250767551362514495849609375</LatitudeDegrees>
              <LongitudeDegrees>-1.99038139544427394866943359375</LongitudeDegrees>
            </Position>
            <AltitudeMeters>47.799999237060546875</AltitudeMeters>
            <DistanceMeters>NAN</DistanceMeters>
          </Trackpoint>
          <Trackpoint>
            <Time>2021-08-12T16:26:08.000Z</Time>
            <Position>
              <LatitudeDegrees>43.2507318444550037384033203125</LatitudeDegrees>
              <LongitudeDegrees>-1.99041307903826236724853515625</LongitudeDegrees>
            </Position>
            <AltitudeMeters>47.799999237060546875</AltitudeMeters>
            <DistanceMeters>NAN</DistanceMeters>
          </Trackpoint>
          <Trackpoint>
            <Time>2021-08-12T16:26:09.000Z</Time>
            <Position>
              <LatitudeDegrees>43.2506989873945713043212890625</LatitudeDegrees>
              <LongitudeDegrees>-1.99044543318450450897216796875</LongitudeDegrees>
            </Position>
            <AltitudeMeters>47.799999237060546875</AltitudeMeters>
            <DistanceMeters>NAN</DistanceMeters>
          </Trackpoint>
          <Trackpoint>
            <Time>2021-08-12T16:26:10.000Z</Time>
            <Position>
              <LatitudeDegrees>43.25067308731377124786376953125</LatitudeDegrees>
              <LongitudeDegrees>-1.9904708303511142730712890625</LongitudeDegrees>
            </Position>
            <AltitudeMeters>47.59999847412109375</AltitudeMeters>
            <DistanceMeters>NAN</DistanceMeters>
          </Trackpoint>
          <Trackpoint>
            <Time>2021-08-12T16:26:11.000Z</Time>
            <Position>
              <LatitudeDegrees>43.2506510429084300994873046875</LatitudeDegrees>
              <LongitudeDegrees>-1.99049538932740688323974609375</LongitudeDegrees>
            </Position>
            <AltitudeMeters>47.59999847412109375</AltitudeMeters>
            <DistanceMeters>NAN</DistanceMeters>
          </Trackpoint>
          <Trackpoint>
            <Time>2021-08-12T16:26:12.000Z</Time>
            <Position>
              <LatitudeDegrees>43.25062816031277179718017578125</LatitudeDegrees>
              <LongitudeDegrees>-1.990531347692012786865234375</LongitudeDegrees>
            </Position>
            <AltitudeMeters>47.200000762939453125</AltitudeMeters>
            <DistanceMeters>NAN</DistanceMeters>
          </Trackpoint>
          <Trackpoint>
            <Time>2021-08-12T16:26:13.000Z</Time>
            <Position>
              <LatitudeDegrees>43.25060234405100345611572265625</LatitudeDegrees>
              <LongitudeDegrees>-1.99056831188499927520751953125</LongitudeDegrees>
            </Position>
            <AltitudeMeters>46.799999237060546875</AltitudeMeters>
            <DistanceMeters>NAN</DistanceMeters>
          </Trackpoint>
          <Trackpoint>
            <Time>2021-08-12T16:26:14.000Z</Time>
            <Position>
              <LatitudeDegrees>43.25057946145534515380859375</LatitudeDegrees>
              <LongitudeDegrees>-1.99059731326997280120849609375</LongitudeDegrees>
            </Position>
            <AltitudeMeters>46.59999847412109375</AltitudeMeters>
            <DistanceMeters>NAN</DistanceMeters>
          </Trackpoint>
          <Trackpoint>
            <Time>2021-08-12T16:26:15.000Z</Time>
            <Position>
              <LatitudeDegrees>43.250553309917449951171875</LatitudeDegrees>
              <LongitudeDegrees>-1.9906126521527767181396484375</LongitudeDegrees>
            </Position>
            <AltitudeMeters>46.40000152587890625</AltitudeMeters>
            <DistanceMeters>NAN</DistanceMeters>
          </Trackpoint>
          <Trackpoint>
            <Time>2021-08-12T16:26:16.000Z</Time>
            <Position>
              <LatitudeDegrees>43.25053059495985507965087890625</LatitudeDegrees>
              <LongitudeDegrees>-1.990631930530071258544921875</LongitudeDegrees>
            </Position>
            <AltitudeMeters>46.200000762939453125</AltitudeMeters>
            <DistanceMeters>NAN</DistanceMeters>
          </Trackpoint>
          <Trackpoint>
            <Time>2021-08-12T16:26:17.000Z</Time>
            <Position>
              <LatitudeDegrees>43.2505065388977527618408203125</LatitudeDegrees>
              <LongitudeDegrees>-1.99067124165594577789306640625</LongitudeDegrees>
            </Position>
            <AltitudeMeters>46</AltitudeMeters>
            <DistanceMeters>NAN</DistanceMeters>
          </Trackpoint>
          <Trackpoint>
            <Time>2021-08-12T16:26:18.000Z</Time>
            <Position>
              <LatitudeDegrees>43.2504823990166187286376953125</LatitudeDegrees>
              <LongitudeDegrees>-1.99071750976145267486572265625</LongitudeDegrees>
            </Position>
            <AltitudeMeters>45.799999237060546875</AltitudeMeters>
            <DistanceMeters>NAN</DistanceMeters>
          </Trackpoint>
          <Trackpoint>
            <Time>2021-08-12T16:26:19.000Z</Time>
            <Position>
              <LatitudeDegrees>43.2504579238593578338623046875</LatitudeDegrees>
              <LongitudeDegrees>-1.9907524622976779937744140625</LongitudeDegrees>
            </Position>
            <AltitudeMeters>45.40000152587890625</AltitudeMeters>
            <DistanceMeters>NAN</DistanceMeters>
          </Trackpoint>
          <Trackpoint>
            <Time>2021-08-12T16:26:20.000Z</Time>
            <Position>
              <LatitudeDegrees>43.25042950920760631561279296875</LatitudeDegrees>
              <LongitudeDegrees>-1.99078657664358615875244140625</LongitudeDegrees>
            </Position>
            <AltitudeMeters>45.59999847412109375</AltitudeMeters>
            <DistanceMeters>NAN</DistanceMeters>
          </Trackpoint>
          <Trackpoint>
            <Time>2021-08-12T16:26:21.000Z</Time>
            <Position>
              <LatitudeDegrees>43.2504071295261383056640625</LatitudeDegrees>
              <LongitudeDegrees>-1.990817002952098846435546875</LongitudeDegrees>
            </Position>
            <AltitudeMeters>45</AltitudeMeters>
            <DistanceMeters>NAN</DistanceMeters>
          </Trackpoint>
          <Trackpoint>
            <Time>2021-08-12T16:26:22.000Z</Time>
            <Position>
              <LatitudeDegrees>43.2503856718540191650390625</LatitudeDegrees>
              <LongitudeDegrees>-1.9908392988145351409912109375</LongitudeDegrees>
            </Position>
            <AltitudeMeters>44.59999847412109375</AltitudeMeters>
            <DistanceMeters>NAN</DistanceMeters>
          </Trackpoint>
          <Trackpoint>
            <Time>2021-08-12T16:26:23.000Z</Time>
            <Position>
              <LatitudeDegrees>43.25035817921161651611328125</LatitudeDegrees>
              <LongitudeDegrees>-1.9908493570983409881591796875</LongitudeDegrees>
            </Position>
            <AltitudeMeters>44.59999847412109375</AltitudeMeters>
            <DistanceMeters>NAN</DistanceMeters>
          </Trackpoint>
          <Trackpoint>
            <Time>2021-08-12T16:26:24.000Z</Time>
            <Position>
              <LatitudeDegrees>43.25033110566437244415283203125</LatitudeDegrees>
              <LongitudeDegrees>-1.99085731990635395050048828125</LongitudeDegrees>
            </Position>
            <AltitudeMeters>44.40000152587890625</AltitudeMeters>
            <DistanceMeters>NAN</DistanceMeters>
          </Trackpoint>
          <Trackpoint>
            <Time>2021-08-12T16:26:25.000Z</Time>
            <Position>
              <LatitudeDegrees>43.25030721724033355712890625</LatitudeDegrees>
              <LongitudeDegrees>-1.9908600859344005584716796875</LongitudeDegrees>
            </Position>
            <AltitudeMeters>44.200000762939453125</AltitudeMeters>
            <DistanceMeters>NAN</DistanceMeters>
          </Trackpoint>
          <Trackpoint>
            <Time>2021-08-12T16:26:26.000Z</Time>
            <Position>
              <LatitudeDegrees>43.25030386447906494140625</LatitudeDegrees>
              <LongitudeDegrees>-1.9908590801060199737548828125</LongitudeDegrees>
            </Position>
            <AltitudeMeters>44.200000762939453125</AltitudeMeters>
            <DistanceMeters>NAN</DistanceMeters>
          </Trackpoint>
          <Trackpoint>
            <Time>2021-08-12T16:26:30.000Z</Time>
            <Position>
              <LatitudeDegrees>43.25030386447906494140625</LatitudeDegrees>
              <LongitudeDegrees>-1.9908590801060199737548828125</LongitudeDegrees>
            </Position>
            <AltitudeMeters>43.59999847412109375</AltitudeMeters>
            <DistanceMeters>NAN</DistanceMeters>
          </Trackpoint>
          <Trackpoint>
            <Time>2021-08-12T16:26:46.000Z</Time>
            <Position>
              <LatitudeDegrees>43.25030386447906494140625</LatitudeDegrees>
              <LongitudeDegrees>-1.9908590801060199737548828125</LongitudeDegrees>
            </Position>
            <AltitudeMeters>43</AltitudeMeters>
            <DistanceMeters>NAN</DistanceMeters>
          </Trackpoint>
          <Trackpoint>
            <Time>2021-08-12T16:27:23.000Z</Time>
            <Position>
              <LatitudeDegrees>43.25028684921562671661376953125</LatitudeDegrees>
              <LongitudeDegrees>-1.99085648171603679656982421875</LongitudeDegrees>
            </Position>
            <AltitudeMeters>43.200000762939453125</AltitudeMeters>
            <DistanceMeters>NAN</DistanceMeters>
          </Trackpoint>
          <Trackpoint>
            <Time>2021-08-12T16:29:14.000Z</Time>
            <Position>
              <LatitudeDegrees>43.25028483755886554718017578125</LatitudeDegrees>
              <LongitudeDegrees>-1.99086092412471771240234375</LongitudeDegrees>
            </Position>
            <AltitudeMeters>43.40000152587890625</AltitudeMeters>
            <DistanceMeters>NAN</DistanceMeters>
          </Trackpoint>
          <Trackpoint>
            <Time>2021-08-12T16:29:43.000Z</Time>
            <Position>
              <LatitudeDegrees>43.250281400978565216064453125</LatitudeDegrees>
              <LongitudeDegrees>-1.9908629357814788818359375</LongitudeDegrees>
            </Position>
            <AltitudeMeters>43</AltitudeMeters>
            <DistanceMeters>NAN</DistanceMeters>
          </Trackpoint>
          <Trackpoint>
            <Time>2021-08-12T16:29:44.000Z</Time>
            <Position>
              <LatitudeDegrees>43.25026723556220531463623046875</LatitudeDegrees>
              <LongitudeDegrees>-1.990886740386486053466796875</LongitudeDegrees>
            </Position>
            <AltitudeMeters>43</AltitudeMeters>
            <DistanceMeters>NAN</DistanceMeters>
          </Trackpoint>
          <Trackpoint>
            <Time>2021-08-12T16:29:45.000Z</Time>
            <Position>
              <LatitudeDegrees>43.25025013647973537445068359375</LatitudeDegrees>
              <LongitudeDegrees>-1.9909133948385715484619140625</LongitudeDegrees>
            </Position>
            <AltitudeMeters>43</AltitudeMeters>
            <DistanceMeters>NAN</DistanceMeters>
          </Trackpoint>
          <Trackpoint>
            <Time>2021-08-12T16:29:47.000Z</Time>
            <Position>
              <LatitudeDegrees>43.25020269490778446197509765625</LatitudeDegrees>
              <LongitudeDegrees>-1.99097248725593090057373046875</LongitudeDegrees>
            </Position>
            <AltitudeMeters>43</AltitudeMeters>
            <DistanceMeters>NAN</DistanceMeters>
          </Trackpoint>
          <Trackpoint>
            <Time>2021-08-12T16:29:49.000Z</Time>
            <Position>
              <LatitudeDegrees>43.250132538378238677978515625</LatitudeDegrees>
              <LongitudeDegrees>-1.991028897464275360107421875</LongitudeDegrees>
            </Position>
            <AltitudeMeters>42.799999237060546875</AltitudeMeters>
            <DistanceMeters>NAN</DistanceMeters>
          </Trackpoint>
          <Trackpoint>
            <Time>2021-08-12T16:29:52.000Z</Time>
            <Position>
              <LatitudeDegrees>43.25003094971179962158203125</LatitudeDegrees>
              <LongitudeDegrees>-1.9910874031484127044677734375</LongitudeDegrees>
            </Position>
            <AltitudeMeters>42.799999237060546875</AltitudeMeters>
            <DistanceMeters>NAN</DistanceMeters>
          </Trackpoint>
          <Trackpoint>
            <Time>2021-08-12T16:29:53.000Z</Time>
            <Position>
              <LatitudeDegrees>43.2499972544610500335693359375</LatitudeDegrees>
              <LongitudeDegrees>-1.9911095313727855682373046875</LongitudeDegrees>
            </Position>
            <AltitudeMeters>42.799999237060546875</AltitudeMeters>
            <DistanceMeters>NAN</DistanceMeters>
          </Trackpoint>
          <Trackpoint>
            <Time>2021-08-12T16:29:54.000Z</Time>
            <Position>
              <LatitudeDegrees>43.2499633915722370147705078125</LatitudeDegrees>
              <LongitudeDegrees>-1.99113392271101474761962890625</LongitudeDegrees>
            </Position>
            <AltitudeMeters>42.59999847412109375</AltitudeMeters>
            <DistanceMeters>NAN</DistanceMeters>
          </Trackpoint>
          <Trackpoint>
            <Time>2021-08-12T16:29:59.000Z</Time>
            <Position>
              <LatitudeDegrees>43.24980564415454864501953125</LatitudeDegrees>
              <LongitudeDegrees>-1.991268955171108245849609375</LongitudeDegrees>
            </Position>
            <AltitudeMeters>41.59999847412109375</AltitudeMeters>
            <DistanceMeters>NAN</DistanceMeters>
          </Trackpoint>
          <Trackpoint>
            <Time>2021-08-12T16:30:00.000Z</Time>
            <Position>
              <LatitudeDegrees>43.24977739714086055755615234375</LatitudeDegrees>
              <LongitudeDegrees>-1.99128068983554840087890625</LongitudeDegrees>
            </Position>
            <AltitudeMeters>41.200000762939453125</AltitudeMeters>
            <DistanceMeters>NAN</DistanceMeters>
          </Trackpoint>
          <Trackpoint>
            <Time>2021-08-12T16:30:04.000Z</Time>
            <Position>
              <LatitudeDegrees>43.2496297918260097503662109375</LatitudeDegrees>
              <LongitudeDegrees>-1.99137297458946704864501953125</LongitudeDegrees>
            </Position>
            <AltitudeMeters>40.799999237060546875</AltitudeMeters>
            <DistanceMeters>NAN</DistanceMeters>
          </Trackpoint>
          <Trackpoint>
            <Time>2021-08-12T16:30:05.000Z</Time>
            <Position>
              <LatitudeDegrees>43.24960489757359027862548828125</LatitudeDegrees>
              <LongitudeDegrees>-1.99141622520983219146728515625</LongitudeDegrees>
            </Position>
            <AltitudeMeters>40.59999847412109375</AltitudeMeters>
            <DistanceMeters>NAN</DistanceMeters>
          </Trackpoint>
          <Trackpoint>
            <Time>2021-08-12T16:30:07.000Z</Time>
            <Position>
              <LatitudeDegrees>43.24954756535589694976806640625</LatitudeDegrees>
              <LongitudeDegrees>-1.99148847721517086029052734375</LongitudeDegrees>
            </Position>
            <AltitudeMeters>40.40000152587890625</AltitudeMeters>
            <DistanceMeters>NAN</DistanceMeters>
          </Trackpoint>
          <Trackpoint>
            <Time>2021-08-12T16:30:10.000Z</Time>
            <Position>
              <LatitudeDegrees>43.249429799616336822509765625</LatitudeDegrees>
              <LongitudeDegrees>-1.99155963957309722900390625</LongitudeDegrees>
            </Position>
            <AltitudeMeters>39.59999847412109375</AltitudeMeters>
            <DistanceMeters>NAN</DistanceMeters>
          </Trackpoint>
          <Trackpoint>
            <Time>2021-08-12T16:30:11.000Z</Time>
            <Position>
              <LatitudeDegrees>43.24939032085239887237548828125</LatitudeDegrees>
              <LongitudeDegrees>-1.99158771894872188568115234375</LongitudeDegrees>
            </Position>
            <AltitudeMeters>39.59999847412109375</AltitudeMeters>
            <DistanceMeters>NAN</DistanceMeters>
          </Trackpoint>
          <Trackpoint>
            <Time>2021-08-12T16:30:12.000Z</Time>
            <Position>
              <LatitudeDegrees>43.2493461482226848602294921875</LatitudeDegrees>
              <LongitudeDegrees>-1.99164924211800098419189453125</LongitudeDegrees>
            </Position>
            <AltitudeMeters>39.40000152587890625</AltitudeMeters>
            <DistanceMeters>NAN</DistanceMeters>
          </Trackpoint>
          <Trackpoint>
            <Time>2021-08-12T16:30:16.000Z</Time>
            <Position>
              <LatitudeDegrees>43.249210529029369354248046875</LatitudeDegrees>
              <LongitudeDegrees>-1.99180372059345245361328125</LongitudeDegrees>
            </Position>
            <AltitudeMeters>39</AltitudeMeters>
            <DistanceMeters>NAN</DistanceMeters>
          </Trackpoint>
          <Trackpoint>
            <Time>2021-08-12T16:30:19.000Z</Time>
            <Position>
              <LatitudeDegrees>43.2491231895983219146728515625</LatitudeDegrees>
              <LongitudeDegrees>-1.99190740473568439483642578125</LongitudeDegrees>
            </Position>
            <AltitudeMeters>38.59999847412109375</AltitudeMeters>
            <DistanceMeters>NAN</DistanceMeters>
          </Trackpoint>
          <Trackpoint>
            <Time>2021-08-12T16:30:20.000Z</Time>
            <Position>
              <LatitudeDegrees>43.24909594841301441192626953125</LatitudeDegrees>
              <LongitudeDegrees>-1.99194411747157573699951171875</LongitudeDegrees>
            </Position>
            <AltitudeMeters>38.40000152587890625</AltitudeMeters>
            <DistanceMeters>NAN</DistanceMeters>
          </Trackpoint>
          <Trackpoint>
            <Time>2021-08-12T16:30:21.000Z</Time>
            <Position>
              <LatitudeDegrees>43.24907935224473476409912109375</LatitudeDegrees>
              <LongitudeDegrees>-1.9919708557426929473876953125</LongitudeDegrees>
            </Position>
            <AltitudeMeters>38.200000762939453125</AltitudeMeters>
            <DistanceMeters>NAN</DistanceMeters>
          </Trackpoint>
          <Trackpoint>
            <Time>2021-08-12T16:30:23.000Z</Time>
            <Position>
              <LatitudeDegrees>43.24901984073221683502197265625</LatitudeDegrees>
              <LongitudeDegrees>-1.992032043635845184326171875</LongitudeDegrees>
            </Position>
            <AltitudeMeters>38</AltitudeMeters>
            <DistanceMeters>NAN</DistanceMeters>
          </Trackpoint>
          <Trackpoint>
            <Time>2021-08-12T16:30:24.000Z</Time>
            <Position>
              <LatitudeDegrees>43.248993270099163055419921875</LatitudeDegrees>
              <LongitudeDegrees>-1.99206045828759670257568359375</LongitudeDegrees>
            </Position>
            <AltitudeMeters>38</AltitudeMeters>
            <DistanceMeters>NAN</DistanceMeters>
          </Trackpoint>
          <Trackpoint>
            <Time>2021-08-12T16:30:25.000Z</Time>
            <Position>
              <LatitudeDegrees>43.24896770529448986053466796875</LatitudeDegrees>
              <LongitudeDegrees>-1.99209080077707767486572265625</LongitudeDegrees>
            </Position>
            <AltitudeMeters>38</AltitudeMeters>
            <DistanceMeters>NAN</DistanceMeters>
          </Trackpoint>
          <Trackpoint>
            <Time>2021-08-12T16:30:28.000Z</Time>
            <Position>
              <LatitudeDegrees>43.248878605663776397705078125</LatitudeDegrees>
              <LongitudeDegrees>-1.99219129979610443115234375</LongitudeDegrees>
            </Position>
            <AltitudeMeters>37.799999237060546875</AltitudeMeters>
            <DistanceMeters>NAN</DistanceMeters>
          </Trackpoint>
          <Trackpoint>
            <Time>2021-08-12T16:30:31.000Z</Time>
            <Position>
              <LatitudeDegrees>43.248777687549591064453125</LatitudeDegrees>
              <LongitudeDegrees>-1.99229330755770206451416015625</LongitudeDegrees>
            </Position>
            <AltitudeMeters>37.40000152587890625</AltitudeMeters>
            <DistanceMeters>NAN</DistanceMeters>
          </Trackpoint>
          <Trackpoint>
            <Time>2021-08-12T16:30:32.000Z</Time>
            <Position>
              <LatitudeDegrees>43.248741142451763153076171875</LatitudeDegrees>
              <LongitudeDegrees>-1.99231845326721668243408203125</LongitudeDegrees>
            </Position>
            <AltitudeMeters>37.200000762939453125</AltitudeMeters>
            <DistanceMeters>NAN</DistanceMeters>
          </Trackpoint>
          <Trackpoint>
            <Time>2021-08-12T16:30:37.000Z</Time>
            <Position>
              <LatitudeDegrees>43.2485857419669628143310546875</LatitudeDegrees>
              <LongitudeDegrees>-1.99246731586754322052001953125</LongitudeDegrees>
            </Position>
            <AltitudeMeters>36.799999237060546875</AltitudeMeters>
            <DistanceMeters>NAN</DistanceMeters>
          </Trackpoint>
          <Trackpoint>
            <Time>2021-08-12T16:30:38.000Z</Time>
            <Position>
              <LatitudeDegrees>43.2485565729439258575439453125</LatitudeDegrees>
              <LongitudeDegrees>-1.9924871809780597686767578125</LongitudeDegrees>
            </Position>
            <AltitudeMeters>36.59999847412109375</AltitudeMeters>
            <DistanceMeters>NAN</DistanceMeters>
          </Trackpoint>
          <Trackpoint>
            <Time>2021-08-12T16:30:39.000Z</Time>
            <Position>
              <LatitudeDegrees>43.2485324330627918243408203125</LatitudeDegrees>
              <LongitudeDegrees>-1.99250503443181514739990234375</LongitudeDegrees>
            </Position>
            <AltitudeMeters>36.59999847412109375</AltitudeMeters>
            <DistanceMeters>NAN</DistanceMeters>
          </Trackpoint>
          <Trackpoint>
            <Time>2021-08-12T16:30:40.000Z</Time>
            <Position>
              <LatitudeDegrees>43.24850938282907009124755859375</LatitudeDegrees>
              <LongitudeDegrees>-1.99251718819141387939453125</LongitudeDegrees>
            </Position>
            <AltitudeMeters>36.40000152587890625</AltitudeMeters>
            <DistanceMeters>NAN</DistanceMeters>
          </Trackpoint>
          <Trackpoint>
            <Time>2021-08-12T16:30:41.000Z</Time>
            <Position>
              <LatitudeDegrees>43.2484878413379192352294921875</LatitudeDegrees>
              <LongitudeDegrees>-1.99252615682780742645263671875</LongitudeDegrees>
            </Position>
            <AltitudeMeters>36.40000152587890625</AltitudeMeters>
            <DistanceMeters>NAN</DistanceMeters>
          </Trackpoint>
          <Trackpoint>
            <Time>2021-08-12T16:30:42.000Z</Time>
            <Position>
              <LatitudeDegrees>43.2484683953225612640380859375</LatitudeDegrees>
              <LongitudeDegrees>-1.99252925813198089599609375</LongitudeDegrees>
            </Position>
            <AltitudeMeters>36.200000762939453125</AltitudeMeters>
            <DistanceMeters>NAN</DistanceMeters>
          </Trackpoint>
          <Trackpoint>
            <Time>2021-08-12T16:30:43.000Z</Time>
            <Position>
              <LatitudeDegrees>43.24844886548817157745361328125</LatitudeDegrees>
              <LongitudeDegrees>-1.9925285875797271728515625</LongitudeDegrees>
            </Position>
            <AltitudeMeters>36.200000762939453125</AltitudeMeters>
            <DistanceMeters>NAN</DistanceMeters>
          </Trackpoint>
          <Trackpoint>
            <Time>2021-08-12T16:30:44.000Z</Time>
            <Position>
              <LatitudeDegrees>43.24843444861471652984619140625</LatitudeDegrees>
              <LongitudeDegrees>-1.99252699501812458038330078125</LongitudeDegrees>
            </Position>
            <AltitudeMeters>36</AltitudeMeters>
            <DistanceMeters>NAN</DistanceMeters>
          </Trackpoint>
          <Trackpoint>
            <Time>2021-08-12T16:30:48.000Z</Time>
            <Position>
              <LatitudeDegrees>43.2484311796724796295166015625</LatitudeDegrees>
              <LongitudeDegrees>-1.99252665974199771881103515625</LongitudeDegrees>
            </Position>
            <AltitudeMeters>35.799999237060546875</AltitudeMeters>
            <DistanceMeters>NAN</DistanceMeters>
          </Trackpoint>
          <Trackpoint>
            <Time>2021-08-12T16:31:03.000Z</Time>
            <Position>
              <LatitudeDegrees>43.2484311796724796295166015625</LatitudeDegrees>
              <LongitudeDegrees>-1.99252665974199771881103515625</LongitudeDegrees>
            </Position>
            <AltitudeMeters>36</AltitudeMeters>
            <DistanceMeters>NAN</DistanceMeters>
          </Trackpoint>
          <Trackpoint>
            <Time>2021-08-12T16:31:18.000Z</Time>
            <Position>
              <LatitudeDegrees>43.24843025766313076019287109375</LatitudeDegrees>
              <LongitudeDegrees>-1.99252699501812458038330078125</LongitudeDegrees>
            </Position>
            <AltitudeMeters>35.59999847412109375</AltitudeMeters>
            <DistanceMeters>NAN</DistanceMeters>
          </Trackpoint>
          <Trackpoint>
            <Time>2021-08-12T16:31:21.000Z</Time>
            <Position>
              <LatitudeDegrees>43.24838080443441867828369140625</LatitudeDegrees>
              <LongitudeDegrees>-1.99256102554500102996826171875</LongitudeDegrees>
            </Position>
            <AltitudeMeters>35.59999847412109375</AltitudeMeters>
            <DistanceMeters>NAN</DistanceMeters>
          </Trackpoint>
          <Trackpoint>
            <Time>2021-08-12T16:31:25.000Z</Time>
            <Position>
              <LatitudeDegrees>43.2482588477432727813720703125</LatitudeDegrees>
              <LongitudeDegrees>-1.99263562448322772979736328125</LongitudeDegrees>
            </Position>
            <AltitudeMeters>35.40000152587890625</AltitudeMeters>
            <DistanceMeters>NAN</DistanceMeters>
          </Trackpoint>
          <Trackpoint>
            <Time>2021-08-12T16:31:27.000Z</Time>
            <Position>
              <LatitudeDegrees>43.2481874339282512664794921875</LatitudeDegrees>
              <LongitudeDegrees>-1.99264434166252613067626953125</LongitudeDegrees>
            </Position>
            <AltitudeMeters>35.40000152587890625</AltitudeMeters>
            <DistanceMeters>NAN</DistanceMeters>
          </Trackpoint>
          <Trackpoint>
            <Time>2021-08-12T16:31:29.000Z</Time>
            <Position>
              <LatitudeDegrees>43.24810738675296306610107421875</LatitudeDegrees>
              <LongitudeDegrees>-1.99263813905417919158935546875</LongitudeDegrees>
            </Position>
            <AltitudeMeters>35.40000152587890625</AltitudeMeters>
            <DistanceMeters>NAN</DistanceMeters>
          </Trackpoint>
          <Trackpoint>
            <Time>2021-08-12T16:31:30.000Z</Time>
            <Position>
              <LatitudeDegrees>43.24807620607316493988037109375</LatitudeDegrees>
              <LongitudeDegrees>-1.99266009964048862457275390625</LongitudeDegrees>
            </Position>
            <AltitudeMeters>35.40000152587890625</AltitudeMeters>
            <DistanceMeters>NAN</DistanceMeters>
          </Trackpoint>
          <Trackpoint>
            <Time>2021-08-12T16:31:31.000Z</Time>
            <Position>
              <LatitudeDegrees>43.24804536066949367523193359375</LatitudeDegrees>
              <LongitudeDegrees>-1.99268591590225696563720703125</LongitudeDegrees>
            </Position>
            <AltitudeMeters>35.40000152587890625</AltitudeMeters>
            <DistanceMeters>NAN</DistanceMeters>
          </Trackpoint>
          <Trackpoint>
            <Time>2021-08-12T16:31:32.000Z</Time>
            <Position>
              <LatitudeDegrees>43.248019628226757049560546875</LatitudeDegrees>
              <LongitudeDegrees>-1.9927030988037586212158203125</LongitudeDegrees>
            </Position>
            <AltitudeMeters>35.40000152587890625</AltitudeMeters>
            <DistanceMeters>NAN</DistanceMeters>
          </Trackpoint>
          <Trackpoint>
            <Time>2021-08-12T16:31:33.000Z</Time>
            <Position>
              <LatitudeDegrees>43.24801149778068065643310546875</LatitudeDegrees>
              <LongitudeDegrees>-1.9927041046321392059326171875</LongitudeDegrees>
            </Position>
            <AltitudeMeters>35.40000152587890625</AltitudeMeters>
            <DistanceMeters>NAN</DistanceMeters>
          </Trackpoint>
          <Trackpoint>
            <Time>2021-08-12T16:31:34.000Z</Time>
            <Position>
              <LatitudeDegrees>43.248000182211399078369140625</LatitudeDegrees>
              <LongitudeDegrees>-1.99270703829824924468994140625</LongitudeDegrees>
            </Position>
            <AltitudeMeters>35.40000152587890625</AltitudeMeters>
            <DistanceMeters>NAN</DistanceMeters>
          </Trackpoint>
          <Trackpoint>
            <Time>2021-08-12T16:31:35.000Z</Time>
            <Position>
              <LatitudeDegrees>43.2479824125766754150390625</LatitudeDegrees>
              <LongitudeDegrees>-1.9927175156772136688232421875</LongitudeDegrees>
            </Position>
            <AltitudeMeters>35.40000152587890625</AltitudeMeters>
            <DistanceMeters>NAN</DistanceMeters>
          </Trackpoint>
          <Trackpoint>
            <Time>2021-08-12T16:31:36.000Z</Time>
            <Position>
              <LatitudeDegrees>43.24797813780605792999267578125</LatitudeDegrees>
              <LongitudeDegrees>-1.99271793477237224578857421875</LongitudeDegrees>
            </Position>
            <AltitudeMeters>35.59999847412109375</AltitudeMeters>
            <DistanceMeters>NAN</DistanceMeters>
          </Trackpoint>
          <Trackpoint>
            <Time>2021-08-12T16:31:41.000Z</Time>
            <Position>
              <LatitudeDegrees>43.24797813780605792999267578125</LatitudeDegrees>
              <LongitudeDegrees>-1.99271793477237224578857421875</LongitudeDegrees>
            </Position>
            <AltitudeMeters>35.59999847412109375</AltitudeMeters>
            <DistanceMeters>NAN</DistanceMeters>
          </Trackpoint>
          <Trackpoint>
            <Time>2021-08-12T16:32:15.000Z</Time>
            <Position>
              <LatitudeDegrees>43.2479765452444553375244140625</LatitudeDegrees>
              <LongitudeDegrees>-1.9927168451249599456787109375</LongitudeDegrees>
            </Position>
            <AltitudeMeters>35.799999237060546875</AltitudeMeters>
            <DistanceMeters>NAN</DistanceMeters>
          </Trackpoint>
          <Trackpoint>
            <Time>2021-08-12T16:32:17.000Z</Time>
            <Position>
              <LatitudeDegrees>43.24796028435230255126953125</LatitudeDegrees>
              <LongitudeDegrees>-1.9927057810127735137939453125</LongitudeDegrees>
            </Position>
            <AltitudeMeters>35.799999237060546875</AltitudeMeters>
            <DistanceMeters>NAN</DistanceMeters>
          </Trackpoint>
          <Trackpoint>
            <Time>2021-08-12T16:32:18.000Z</Time>
            <Position>
              <LatitudeDegrees>43.24796028435230255126953125</LatitudeDegrees>
              <LongitudeDegrees>-1.9927057810127735137939453125</LongitudeDegrees>
            </Position>
            <AltitudeMeters>35.799999237060546875</AltitudeMeters>
            <DistanceMeters>NAN</DistanceMeters>
          </Trackpoint>
          <Trackpoint>
            <Time>2021-08-12T16:32:51.000Z</Time>
            <Position>
              <LatitudeDegrees>43.2479393295943737030029296875</LatitudeDegrees>
              <LongitudeDegrees>-1.99269580654799938201904296875</LongitudeDegrees>
            </Position>
            <AltitudeMeters>35.59999847412109375</AltitudeMeters>
            <DistanceMeters>NAN</DistanceMeters>
          </Trackpoint>
          <Trackpoint>
            <Time>2021-08-12T16:33:02.000Z</Time>
            <Position>
              <LatitudeDegrees>43.24790923856198787689208984375</LatitudeDegrees>
              <LongitudeDegrees>-1.99268893338739871978759765625</LongitudeDegrees>
            </Position>
            <AltitudeMeters>35.59999847412109375</AltitudeMeters>
            <DistanceMeters>NAN</DistanceMeters>
          </Trackpoint>
          <Trackpoint>
            <Time>2021-08-12T16:35:12.000Z</Time>
            <Position>
              <LatitudeDegrees>43.24790102429687976837158203125</LatitudeDegrees>
              <LongitudeDegrees>-1.99268071912229061126708984375</LongitudeDegrees>
            </Position>
            <AltitudeMeters>35.59999847412109375</AltitudeMeters>
            <DistanceMeters>NAN</DistanceMeters>
          </Trackpoint>
          <Trackpoint>
            <Time>2021-08-12T16:36:59.000Z</Time>
            <Position>
              <LatitudeDegrees>43.24782575480639934539794921875</LatitudeDegrees>
              <LongitudeDegrees>-1.99266211129724979400634765625</LongitudeDegrees>
            </Position>
            <AltitudeMeters>35.200000762939453125</AltitudeMeters>
            <DistanceMeters>NAN</DistanceMeters>
          </Trackpoint>
          <Trackpoint>
            <Time>2021-08-12T16:37:00.000Z</Time>
            <Position>
              <LatitudeDegrees>43.2477998547255992889404296875</LatitudeDegrees>
              <LongitudeDegrees>-1.9926699064671993255615234375</LongitudeDegrees>
            </Position>
            <AltitudeMeters>35.40000152587890625</AltitudeMeters>
            <DistanceMeters>NAN</DistanceMeters>
          </Trackpoint>
          <Trackpoint>
            <Time>2021-08-12T16:37:01.000Z</Time>
            <Position>
              <LatitudeDegrees>43.24777211062610149383544921875</LatitudeDegrees>
              <LongitudeDegrees>-1.99268859811127185821533203125</LongitudeDegrees>
            </Position>
            <AltitudeMeters>35.40000152587890625</AltitudeMeters>
            <DistanceMeters>NAN</DistanceMeters>
          </Trackpoint>
          <Trackpoint>
            <Time>2021-08-12T16:37:02.000Z</Time>
            <Position>
              <LatitudeDegrees>43.247745037078857421875</LatitudeDegrees>
              <LongitudeDegrees>-1.99269630946218967437744140625</LongitudeDegrees>
            </Position>
            <AltitudeMeters>35.40000152587890625</AltitudeMeters>
            <DistanceMeters>NAN</DistanceMeters>
          </Trackpoint>
          <Trackpoint>
            <Time>2021-08-12T16:37:03.000Z</Time>
            <Position>
              <LatitudeDegrees>43.24772031046450138092041015625</LatitudeDegrees>
              <LongitudeDegrees>-1.99269765056669712066650390625</LongitudeDegrees>
            </Position>
            <AltitudeMeters>35.40000152587890625</AltitudeMeters>
            <DistanceMeters>NAN</DistanceMeters>
          </Trackpoint>
          <Trackpoint>
            <Time>2021-08-12T16:37:04.000Z</Time>
            <Position>
              <LatitudeDegrees>43.247692398726940155029296875</LatitudeDegrees>
              <LongitudeDegrees>-1.9927024282515048980712890625</LongitudeDegrees>
            </Position>
            <AltitudeMeters>35.40000152587890625</AltitudeMeters>
            <DistanceMeters>NAN</DistanceMeters>
          </Trackpoint>
          <Trackpoint>
            <Time>2021-08-12T16:37:05.000Z</Time>
            <Position>
              <LatitudeDegrees>43.24766348116099834442138671875</LatitudeDegrees>
              <LongitudeDegrees>-1.99270368553698062896728515625</LongitudeDegrees>
            </Position>
            <AltitudeMeters>35.40000152587890625</AltitudeMeters>
            <DistanceMeters>NAN</DistanceMeters>
          </Trackpoint>
          <Trackpoint>
            <Time>2021-08-12T16:37:09.000Z</Time>
            <Position>
              <LatitudeDegrees>43.24754915200173854827880859375</LatitudeDegrees>
              <LongitudeDegrees>-1.99272765778005123138427734375</LongitudeDegrees>
            </Position>
            <AltitudeMeters>35.59999847412109375</AltitudeMeters>
            <DistanceMeters>NAN</DistanceMeters>
          </Trackpoint>
          <Trackpoint>
            <Time>2021-08-12T16:37:10.000Z</Time>
            <Position>
              <LatitudeDegrees>43.24752534739673137664794921875</LatitudeDegrees>
              <LongitudeDegrees>-1.992732100188732147216796875</LongitudeDegrees>
            </Position>
            <AltitudeMeters>35.59999847412109375</AltitudeMeters>
            <DistanceMeters>NAN</DistanceMeters>
          </Trackpoint>
          <Trackpoint>
            <Time>2021-08-12T16:37:11.000Z</Time>
            <Position>
              <LatitudeDegrees>43.2475121878087520599365234375</LatitudeDegrees>
              <LongitudeDegrees>-1.9927399791777133941650390625</LongitudeDegrees>
            </Position>
            <AltitudeMeters>35.59999847412109375</AltitudeMeters>
            <DistanceMeters>NAN</DistanceMeters>
          </Trackpoint>
          <Trackpoint>
            <Time>2021-08-12T16:37:12.000Z</Time>
            <Position>
              <LatitudeDegrees>43.2474862039089202880859375</LatitudeDegrees>
              <LongitudeDegrees>-1.99274224229156970977783203125</LongitudeDegrees>
            </Position>
            <AltitudeMeters>35.59999847412109375</AltitudeMeters>
            <DistanceMeters>NAN</DistanceMeters>
          </Trackpoint>
          <Trackpoint>
            <Time>2021-08-12T16:37:13.000Z</Time>
            <Position>
              <LatitudeDegrees>43.24745871126651763916015625</LatitudeDegrees>
              <LongitudeDegrees>-1.99272950179874897003173828125</LongitudeDegrees>
            </Position>
            <AltitudeMeters>35.799999237060546875</AltitudeMeters>
            <DistanceMeters>NAN</DistanceMeters>
          </Trackpoint>
          <Trackpoint>
            <Time>2021-08-12T16:37:14.000Z</Time>
            <Position>
              <LatitudeDegrees>43.24743297882378101348876953125</LatitudeDegrees>
              <LongitudeDegrees>-1.9927121512591838836669921875</LongitudeDegrees>
            </Position>
            <AltitudeMeters>35.799999237060546875</AltitudeMeters>
            <DistanceMeters>NAN</DistanceMeters>
          </Trackpoint>
          <Trackpoint>
            <Time>2021-08-12T16:37:15.000Z</Time>
            <Position>
              <LatitudeDegrees>43.24740917421877384185791015625</LatitudeDegrees>
              <LongitudeDegrees>-1.99269647710025310516357421875</LongitudeDegrees>
            </Position>
            <AltitudeMeters>35.799999237060546875</AltitudeMeters>
            <DistanceMeters>NAN</DistanceMeters>
          </Trackpoint>
          <Trackpoint>
            <Time>2021-08-12T16:37:19.000Z</Time>
            <Position>
              <LatitudeDegrees>43.247310183942317962646484375</LatitudeDegrees>
              <LongitudeDegrees>-1.99269865639507770538330078125</LongitudeDegrees>
            </Position>
            <AltitudeMeters>35.799999237060546875</AltitudeMeters>
            <DistanceMeters>NAN</DistanceMeters>
          </Trackpoint>
          <Trackpoint>
            <Time>2021-08-12T16:37:21.000Z</Time>
            <Position>
              <LatitudeDegrees>43.247281350195407867431640625</LatitudeDegrees>
              <LongitudeDegrees>-1.992747522890567779541015625</LongitudeDegrees>
            </Position>
            <AltitudeMeters>36</AltitudeMeters>
            <DistanceMeters>NAN</DistanceMeters>
          </Trackpoint>
          <Trackpoint>
            <Time>2021-08-12T16:37:22.000Z</Time>
            <Position>
              <LatitudeDegrees>43.24726534076035022735595703125</LatitudeDegrees>
              <LongitudeDegrees>-1.992757581174373626708984375</LongitudeDegrees>
            </Position>
            <AltitudeMeters>36</AltitudeMeters>
            <DistanceMeters>NAN</DistanceMeters>
          </Trackpoint>
          <Trackpoint>
            <Time>2021-08-12T16:37:25.000Z</Time>
            <Position>
              <LatitudeDegrees>43.2472372613847255706787109375</LatitudeDegrees>
              <LongitudeDegrees>-1.992793790996074676513671875</LongitudeDegrees>
            </Position>
            <AltitudeMeters>36.200000762939453125</AltitudeMeters>
            <DistanceMeters>NAN</DistanceMeters>
          </Trackpoint>
          <Trackpoint>
            <Time>2021-08-12T16:37:26.000Z</Time>
            <Position>
              <LatitudeDegrees>43.2472298853099346160888671875</LatitudeDegrees>
              <LongitudeDegrees>-1.99279613792896270751953125</LongitudeDegrees>
            </Position>
            <AltitudeMeters>36.200000762939453125</AltitudeMeters>
            <DistanceMeters>NAN</DistanceMeters>
          </Trackpoint>
          <Trackpoint>
            <Time>2021-08-12T16:37:27.000Z</Time>
            <Position>
              <LatitudeDegrees>43.24723131023347377777099609375</LatitudeDegrees>
              <LongitudeDegrees>-1.99279370717704296112060546875</LongitudeDegrees>
            </Position>
            <AltitudeMeters>36.40000152587890625</AltitudeMeters>
            <DistanceMeters>NAN</DistanceMeters>
          </Trackpoint>
          <Trackpoint>
            <Time>2021-08-12T16:37:28.000Z</Time>
            <Position>
              <LatitudeDegrees>43.24722879566252231597900390625</LatitudeDegrees>
              <LongitudeDegrees>-1.99279471300542354583740234375</LongitudeDegrees>
            </Position>
            <AltitudeMeters>36.40000152587890625</AltitudeMeters>
            <DistanceMeters>NAN</DistanceMeters>
          </Trackpoint>
          <Trackpoint>
            <Time>2021-08-12T16:37:29.000Z</Time>
            <Position>
              <LatitudeDegrees>43.24722292833030223846435546875</LatitudeDegrees>
              <LongitudeDegrees>-1.99280242435634136199951171875</LongitudeDegrees>
            </Position>
            <AltitudeMeters>36.59999847412109375</AltitudeMeters>
            <DistanceMeters>NAN</DistanceMeters>
          </Trackpoint>
          <Trackpoint>
            <Time>2021-08-12T16:37:30.000Z</Time>
            <Position>
              <LatitudeDegrees>43.2472158037126064300537109375</LatitudeDegrees>
              <LongitudeDegrees>-1.99281784705817699432373046875</LongitudeDegrees>
            </Position>
            <AltitudeMeters>37</AltitudeMeters>
            <DistanceMeters>NAN</DistanceMeters>
          </Trackpoint>
          <Trackpoint>
            <Time>2021-08-12T16:37:31.000Z</Time>
            <Position>
              <LatitudeDegrees>43.24721060693264007568359375</LatitudeDegrees>
              <LongitudeDegrees>-1.992824971675872802734375</LongitudeDegrees>
            </Position>
            <AltitudeMeters>37</AltitudeMeters>
            <DistanceMeters>NAN</DistanceMeters>
          </Trackpoint>
          <Trackpoint>
            <Time>2021-08-12T16:37:32.000Z</Time>
            <Position>
              <LatitudeDegrees>43.2472072541713714599609375</LatitudeDegrees>
              <LongitudeDegrees>-1.99282002635300159454345703125</LongitudeDegrees>
            </Position>
            <AltitudeMeters>37.200000762939453125</AltitudeMeters>
            <DistanceMeters>NAN</DistanceMeters>
          </Trackpoint>
          <Trackpoint>
            <Time>2021-08-12T16:37:33.000Z</Time>
            <Position>
              <LatitudeDegrees>43.24721840210258960723876953125</LatitudeDegrees>
              <LongitudeDegrees>-1.9928080402314662933349609375</LongitudeDegrees>
            </Position>
            <AltitudeMeters>37.40000152587890625</AltitudeMeters>
            <DistanceMeters>NAN</DistanceMeters>
          </Trackpoint>
          <Trackpoint>
            <Time>2021-08-12T16:37:34.000Z</Time>
            <Position>
              <LatitudeDegrees>43.2472419552505016326904296875</LatitudeDegrees>
              <LongitudeDegrees>-1.9927979819476604461669921875</LongitudeDegrees>
            </Position>
            <AltitudeMeters>37.40000152587890625</AltitudeMeters>
            <DistanceMeters>NAN</DistanceMeters>
          </Trackpoint>
          <Trackpoint>
            <Time>2021-08-12T16:37:35.000Z</Time>
            <Position>
              <LatitudeDegrees>43.2472743093967437744140625</LatitudeDegrees>
              <LongitudeDegrees>-1.9927872531116008758544921875</LongitudeDegrees>
            </Position>
            <AltitudeMeters>37.40000152587890625</AltitudeMeters>
            <DistanceMeters>NAN</DistanceMeters>
          </Trackpoint>
          <Trackpoint>
            <Time>2021-08-12T16:37:36.000Z</Time>
            <Position>
              <LatitudeDegrees>43.2472778297960758209228515625</LatitudeDegrees>
              <LongitudeDegrees>-1.99276386760175228118896484375</LongitudeDegrees>
            </Position>
            <AltitudeMeters>37.59999847412109375</AltitudeMeters>
            <DistanceMeters>NAN</DistanceMeters>
          </Trackpoint>
          <Trackpoint>
            <Time>2021-08-12T16:37:37.000Z</Time>
            <Position>
              <LatitudeDegrees>43.247275985777378082275390625</LatitudeDegrees>
              <LongitudeDegrees>-1.992746181786060333251953125</LongitudeDegrees>
            </Position>
            <AltitudeMeters>37.799999237060546875</AltitudeMeters>
            <DistanceMeters>NAN</DistanceMeters>
          </Trackpoint>
          <Trackpoint>
            <Time>2021-08-12T16:37:39.000Z</Time>
            <Position>
              <LatitudeDegrees>43.247273974120616912841796875</LatitudeDegrees>
              <LongitudeDegrees>-1.99271164834499359130859375</LongitudeDegrees>
            </Position>
            <AltitudeMeters>38</AltitudeMeters>
            <DistanceMeters>NAN</DistanceMeters>
          </Trackpoint>
          <Trackpoint>
            <Time>2021-08-12T16:37:41.000Z</Time>
            <Position>
              <LatitudeDegrees>43.24728009290993213653564453125</LatitudeDegrees>
              <LongitudeDegrees>-1.992683820426464080810546875</LongitudeDegrees>
            </Position>
            <AltitudeMeters>38.200000762939453125</AltitudeMeters>
            <DistanceMeters>NAN</DistanceMeters>
          </Trackpoint>
          <Trackpoint>
            <Time>2021-08-12T16:37:42.000Z</Time>
            <Position>
              <LatitudeDegrees>43.24727774597704410552978515625</LatitudeDegrees>
              <LongitudeDegrees>-1.9926732592284679412841796875</LongitudeDegrees>
            </Position>
            <AltitudeMeters>38.40000152587890625</AltitudeMeters>
            <DistanceMeters>NAN</DistanceMeters>
          </Trackpoint>
          <Trackpoint>
            <Time>2021-08-12T16:37:43.000Z</Time>
            <Position>
              <LatitudeDegrees>43.24726031161844730377197265625</LatitudeDegrees>
              <LongitudeDegrees>-1.99266714043915271759033203125</LongitudeDegrees>
            </Position>
            <AltitudeMeters>38.59999847412109375</AltitudeMeters>
            <DistanceMeters>NAN</DistanceMeters>
          </Trackpoint>
          <Trackpoint>
            <Time>2021-08-12T16:37:45.000Z</Time>
            <Position>
              <LatitudeDegrees>43.2472260296344757080078125</LatitudeDegrees>
              <LongitudeDegrees>-1.992687843739986419677734375</LongitudeDegrees>
            </Position>
            <AltitudeMeters>38.799999237060546875</AltitudeMeters>
            <DistanceMeters>NAN</DistanceMeters>
          </Trackpoint>
          <Trackpoint>
            <Time>2021-08-12T16:37:46.000Z</Time>
            <Position>
              <LatitudeDegrees>43.2472164742648601531982421875</LatitudeDegrees>
              <LongitudeDegrees>-1.99270033277571201324462890625</LongitudeDegrees>
            </Position>
            <AltitudeMeters>39</AltitudeMeters>
            <DistanceMeters>NAN</DistanceMeters>
          </Trackpoint>
          <Trackpoint>
            <Time>2021-08-12T16:37:47.000Z</Time>
            <Position>
              <LatitudeDegrees>43.247202895581722259521484375</LatitudeDegrees>
              <LongitudeDegrees>-1.99270896613597869873046875</LongitudeDegrees>
            </Position>
            <AltitudeMeters>39</AltitudeMeters>
            <DistanceMeters>NAN</DistanceMeters>
          </Trackpoint>
          <Trackpoint>
            <Time>2021-08-12T16:37:48.000Z</Time>
            <Position>
              <LatitudeDegrees>43.247187472879886627197265625</LatitudeDegrees>
              <LongitudeDegrees>-1.992711313068866729736328125</LongitudeDegrees>
            </Position>
            <AltitudeMeters>39.200000762939453125</AltitudeMeters>
            <DistanceMeters>NAN</DistanceMeters>
          </Trackpoint>
          <Trackpoint>
            <Time>2021-08-12T16:37:49.000Z</Time>
            <Position>
              <LatitudeDegrees>43.24717573821544647216796875</LatitudeDegrees>
              <LongitudeDegrees>-1.99270100332796573638916015625</LongitudeDegrees>
            </Position>
            <AltitudeMeters>39.200000762939453125</AltitudeMeters>
            <DistanceMeters>NAN</DistanceMeters>
          </Trackpoint>
          <Trackpoint>
            <Time>2021-08-12T16:37:50.000Z</Time>
            <Position>
              <LatitudeDegrees>43.24716760776937007904052734375</LatitudeDegrees>
              <LongitudeDegrees>-1.992676444351673126220703125</LongitudeDegrees>
            </Position>
            <AltitudeMeters>39.200000762939453125</AltitudeMeters>
            <DistanceMeters>NAN</DistanceMeters>
          </Trackpoint>
          <Trackpoint>
            <Time>2021-08-12T16:37:51.000Z</Time>
            <Position>
              <LatitudeDegrees>43.2471668533980846405029296875</LatitudeDegrees>
              <LongitudeDegrees>-1.99264870025217533111572265625</LongitudeDegrees>
            </Position>
            <AltitudeMeters>39.200000762939453125</AltitudeMeters>
            <DistanceMeters>NAN</DistanceMeters>
          </Trackpoint>
          <Trackpoint>
            <Time>2021-08-12T16:37:52.000Z</Time>
            <Position>
              <LatitudeDegrees>43.24717842042446136474609375</LatitudeDegrees>
              <LongitudeDegrees>-1.99262791313230991363525390625</LongitudeDegrees>
            </Position>
            <AltitudeMeters>39.200000762939453125</AltitudeMeters>
            <DistanceMeters>NAN</DistanceMeters>
          </Trackpoint>
          <Trackpoint>
            <Time>2021-08-12T16:37:53.000Z</Time>
            <Position>
              <LatitudeDegrees>43.247200883924961090087890625</LatitudeDegrees>
              <LongitudeDegrees>-1.992616765201091766357421875</LongitudeDegrees>
            </Position>
            <AltitudeMeters>39.40000152587890625</AltitudeMeters>
            <DistanceMeters>NAN</DistanceMeters>
          </Trackpoint>
          <Trackpoint>
            <Time>2021-08-12T16:37:54.000Z</Time>
            <Position>
              <LatitudeDegrees>43.24722468852996826171875</LatitudeDegrees>
              <LongitudeDegrees>-1.992606706917285919189453125</LongitudeDegrees>
            </Position>
            <AltitudeMeters>39.40000152587890625</AltitudeMeters>
            <DistanceMeters>NAN</DistanceMeters>
          </Trackpoint>
          <Trackpoint>
            <Time>2021-08-12T16:37:55.000Z</Time>
            <Position>
              <LatitudeDegrees>43.2472469843924045562744140625</LatitudeDegrees>
              <LongitudeDegrees>-1.9925983250141143798828125</LongitudeDegrees>
            </Position>
            <AltitudeMeters>39.40000152587890625</AltitudeMeters>
            <DistanceMeters>NAN</DistanceMeters>
          </Trackpoint>
          <Trackpoint>
            <Time>2021-08-12T16:37:56.000Z</Time>
            <Position>
              <LatitudeDegrees>43.2472662627696990966796875</LatitudeDegrees>
              <LongitudeDegrees>-1.9925887696444988250732421875</LongitudeDegrees>
            </Position>
            <AltitudeMeters>39.40000152587890625</AltitudeMeters>
            <DistanceMeters>NAN</DistanceMeters>
          </Trackpoint>
          <Trackpoint>
            <Time>2021-08-12T16:37:57.000Z</Time>
            <Position>
              <LatitudeDegrees>43.24728839099407196044921875</LatitudeDegrees>
              <LongitudeDegrees>-1.9925793819129467010498046875</LongitudeDegrees>
            </Position>
            <AltitudeMeters>39.40000152587890625</AltitudeMeters>
            <DistanceMeters>NAN</DistanceMeters>
          </Trackpoint>
          <Trackpoint>
            <Time>2021-08-12T16:37:59.000Z</Time>
            <Position>
              <LatitudeDegrees>43.24733105488121509552001953125</LatitudeDegrees>
              <LongitudeDegrees>-1.9925596006214618682861328125</LongitudeDegrees>
            </Position>
            <AltitudeMeters>39.59999847412109375</AltitudeMeters>
            <DistanceMeters>NAN</DistanceMeters>
          </Trackpoint>
          <Trackpoint>
            <Time>2021-08-12T16:38:02.000Z</Time>
            <Position>
              <LatitudeDegrees>43.2473842799663543701171875</LatitudeDegrees>
              <LongitudeDegrees>-1.99253805913031101226806640625</LongitudeDegrees>
            </Position>
            <AltitudeMeters>40</AltitudeMeters>
            <DistanceMeters>NAN</DistanceMeters>
          </Trackpoint>
          <Trackpoint>
            <Time>2021-08-12T16:38:03.000Z</Time>
            <Position>
              <LatitudeDegrees>43.24740246869623661041259765625</LatitudeDegrees>
              <LongitudeDegrees>-1.99252934195101261138916015625</LongitudeDegrees>
            </Position>
            <AltitudeMeters>40</AltitudeMeters>
            <DistanceMeters>NAN</DistanceMeters>
          </Trackpoint>
          <Trackpoint>
            <Time>2021-08-12T16:38:04.000Z</Time>
            <Position>
              <LatitudeDegrees>43.247420825064182281494140625</LatitudeDegrees>
              <LongitudeDegrees>-1.9925190322101116180419921875</LongitudeDegrees>
            </Position>
            <AltitudeMeters>40.40000152587890625</AltitudeMeters>
            <DistanceMeters>NAN</DistanceMeters>
          </Trackpoint>
          <Trackpoint>
            <Time>2021-08-12T16:38:05.000Z</Time>
            <Position>
              <LatitudeDegrees>43.24743532575666904449462890625</LatitudeDegrees>
              <LongitudeDegrees>-1.99250989593565464019775390625</LongitudeDegrees>
            </Position>
            <AltitudeMeters>40.59999847412109375</AltitudeMeters>
            <DistanceMeters>NAN</DistanceMeters>
          </Trackpoint>
          <Trackpoint>
            <Time>2021-08-12T16:38:07.000Z</Time>
            <Position>
              <LatitudeDegrees>43.24746273458003997802734375</LatitudeDegrees>
              <LongitudeDegrees>-1.99247854761779308319091796875</LongitudeDegrees>
            </Position>
            <AltitudeMeters>41.40000152587890625</AltitudeMeters>
            <DistanceMeters>NAN</DistanceMeters>
          </Trackpoint>
          <Trackpoint>
            <Time>2021-08-12T16:38:08.000Z</Time>
            <Position>
              <LatitudeDegrees>43.24747924692928791046142578125</LatitudeDegrees>
              <LongitudeDegrees>-1.99245692230761051177978515625</LongitudeDegrees>
            </Position>
            <AltitudeMeters>41.40000152587890625</AltitudeMeters>
            <DistanceMeters>NAN</DistanceMeters>
          </Trackpoint>
          <Trackpoint>
            <Time>2021-08-12T16:38:09.000Z</Time>
            <Position>
              <LatitudeDegrees>43.2474944181740283966064453125</LatitudeDegrees>
              <LongitudeDegrees>-1.992433369159698486328125</LongitudeDegrees>
            </Position>
            <AltitudeMeters>41.59999847412109375</AltitudeMeters>
            <DistanceMeters>NAN</DistanceMeters>
          </Trackpoint>
          <Trackpoint>
            <Time>2021-08-12T16:38:10.000Z</Time>
            <Position>
              <LatitudeDegrees>43.2475103437900543212890625</LatitudeDegrees>
              <LongitudeDegrees>-1.99241518042981624603271484375</LongitudeDegrees>
            </Position>
            <AltitudeMeters>41.59999847412109375</AltitudeMeters>
            <DistanceMeters>NAN</DistanceMeters>
          </Trackpoint>
          <Trackpoint>
            <Time>2021-08-12T16:38:11.000Z</Time>
            <Position>
              <LatitudeDegrees>43.24752652086317539215087890625</LatitudeDegrees>
              <LongitudeDegrees>-1.99239741079509258270263671875</LongitudeDegrees>
            </Position>
            <AltitudeMeters>41.799999237060546875</AltitudeMeters>
            <DistanceMeters>NAN</DistanceMeters>
          </Trackpoint>
          <Trackpoint>
            <Time>2021-08-12T16:38:12.000Z</Time>
            <Position>
              <LatitudeDegrees>43.247540853917598724365234375</LatitudeDegrees>
              <LongitudeDegrees>-1.99238232336938381195068359375</LongitudeDegrees>
            </Position>
            <AltitudeMeters>42</AltitudeMeters>
            <DistanceMeters>NAN</DistanceMeters>
          </Trackpoint>
          <Trackpoint>
            <Time>2021-08-12T16:38:13.000Z</Time>
            <Position>
              <LatitudeDegrees>43.24755401350557804107666015625</LatitudeDegrees>
              <LongitudeDegrees>-1.99236606247723102569580078125</LongitudeDegrees>
            </Position>
            <AltitudeMeters>42</AltitudeMeters>
            <DistanceMeters>NAN</DistanceMeters>
          </Trackpoint>
          <Trackpoint>
            <Time>2021-08-12T16:38:14.000Z</Time>
            <Position>
              <LatitudeDegrees>43.2475671730935573577880859375</LatitudeDegrees>
              <LongitudeDegrees>-1.99235223233699798583984375</LongitudeDegrees>
            </Position>
            <AltitudeMeters>42</AltitudeMeters>
            <DistanceMeters>NAN</DistanceMeters>
          </Trackpoint>
          <Trackpoint>
            <Time>2021-08-12T16:38:15.000Z</Time>
            <Position>
              <LatitudeDegrees>43.24758016504347324371337890625</LatitudeDegrees>
              <LongitudeDegrees>-1.99234141968190670013427734375</LongitudeDegrees>
            </Position>
            <AltitudeMeters>42.200000762939453125</AltitudeMeters>
            <DistanceMeters>NAN</DistanceMeters>
          </Trackpoint>
          <Trackpoint>
            <Time>2021-08-12T16:38:16.000Z</Time>
            <Position>
              <LatitudeDegrees>43.24758653528988361358642578125</LatitudeDegrees>
              <LongitudeDegrees>-1.99232867918908596038818359375</LongitudeDegrees>
            </Position>
            <AltitudeMeters>42.200000762939453125</AltitudeMeters>
            <DistanceMeters>NAN</DistanceMeters>
          </Trackpoint>
          <Trackpoint>
            <Time>2021-08-12T16:38:17.000Z</Time>
            <Position>
              <LatitudeDegrees>43.2475939951837062835693359375</LatitudeDegrees>
              <LongitudeDegrees>-1.99231459759175777435302734375</LongitudeDegrees>
            </Position>
            <AltitudeMeters>42.200000762939453125</AltitudeMeters>
            <DistanceMeters>NAN</DistanceMeters>
          </Trackpoint>
          <Trackpoint>
            <Time>2021-08-12T16:38:18.000Z</Time>
            <Position>
              <LatitudeDegrees>43.2476023770868778228759765625</LatitudeDegrees>
              <LongitudeDegrees>-1.9923047907650470733642578125</LongitudeDegrees>
            </Position>
            <AltitudeMeters>42.200000762939453125</AltitudeMeters>
            <DistanceMeters>NAN</DistanceMeters>
          </Trackpoint>
          <Trackpoint>
            <Time>2021-08-12T16:38:19.000Z</Time>
            <Position>
              <LatitudeDegrees>43.24761352501809597015380859375</LatitudeDegrees>
              <LongitudeDegrees>-1.992295570671558380126953125</LongitudeDegrees>
            </Position>
            <AltitudeMeters>42.40000152587890625</AltitudeMeters>
            <DistanceMeters>NAN</DistanceMeters>
          </Trackpoint>
          <Trackpoint>
            <Time>2021-08-12T16:38:20.000Z</Time>
            <Position>
              <LatitudeDegrees>43.247621320188045501708984375</LatitudeDegrees>
              <LongitudeDegrees>-1.9922803156077861785888671875</LongitudeDegrees>
            </Position>
            <AltitudeMeters>42.40000152587890625</AltitudeMeters>
            <DistanceMeters>NAN</DistanceMeters>
          </Trackpoint>
          <Trackpoint>
            <Time>2021-08-12T16:38:21.000Z</Time>
            <Position>
              <LatitudeDegrees>43.2476285286247730255126953125</LatitudeDegrees>
              <LongitudeDegrees>-1.99226749129593372344970703125</LongitudeDegrees>
            </Position>
            <AltitudeMeters>42.40000152587890625</AltitudeMeters>
            <DistanceMeters>NAN</DistanceMeters>
          </Trackpoint>
          <Trackpoint>
            <Time>2021-08-12T16:38:22.000Z</Time>
            <Position>
              <LatitudeDegrees>43.2476355694234371185302734375</LatitudeDegrees>
              <LongitudeDegrees>-1.99225902557373046875</LongitudeDegrees>
            </Position>
            <AltitudeMeters>42.40000152587890625</AltitudeMeters>
            <DistanceMeters>NAN</DistanceMeters>
          </Trackpoint>
          <Trackpoint>
            <Time>2021-08-12T16:38:23.000Z</Time>
            <Position>
              <LatitudeDegrees>43.24764311313629150390625</LatitudeDegrees>
              <LongitudeDegrees>-1.9922514818608760833740234375</LongitudeDegrees>
            </Position>
            <AltitudeMeters>42.40000152587890625</AltitudeMeters>
            <DistanceMeters>NAN</DistanceMeters>
          </Trackpoint>
          <Trackpoint>
            <Time>2021-08-12T16:38:24.000Z</Time>
            <Position>
              <LatitudeDegrees>43.24765291996300220489501953125</LatitudeDegrees>
              <LongitudeDegrees>-1.9922451116144657135009765625</LongitudeDegrees>
            </Position>
            <AltitudeMeters>42.59999847412109375</AltitudeMeters>
            <DistanceMeters>NAN</DistanceMeters>
          </Trackpoint>
          <Trackpoint>
            <Time>2021-08-12T16:38:25.000Z</Time>
            <Position>
              <LatitudeDegrees>43.24765912257134914398193359375</LatitudeDegrees>
              <LongitudeDegrees>-1.99224469251930713653564453125</LongitudeDegrees>
            </Position>
            <AltitudeMeters>42.59999847412109375</AltitudeMeters>
            <DistanceMeters>NAN</DistanceMeters>
          </Trackpoint>
          <Trackpoint>
            <Time>2021-08-12T16:38:26.000Z</Time>
            <Position>
              <LatitudeDegrees>43.24765912257134914398193359375</LatitudeDegrees>
              <LongitudeDegrees>-1.99224469251930713653564453125</LongitudeDegrees>
            </Position>
            <AltitudeMeters>42.59999847412109375</AltitudeMeters>
            <DistanceMeters>NAN</DistanceMeters>
          </Trackpoint>
          <Trackpoint>
            <Time>2021-08-12T16:38:28.000Z</Time>
            <Position>
              <LatitudeDegrees>43.24765912257134914398193359375</LatitudeDegrees>
              <LongitudeDegrees>-1.99224469251930713653564453125</LongitudeDegrees>
            </Position>
            <AltitudeMeters>42.799999237060546875</AltitudeMeters>
            <DistanceMeters>NAN</DistanceMeters>
          </Trackpoint>
          <Trackpoint>
            <Time>2021-08-12T16:38:35.000Z</Time>
            <Position>
              <LatitudeDegrees>43.24765912257134914398193359375</LatitudeDegrees>
              <LongitudeDegrees>-1.99224469251930713653564453125</LongitudeDegrees>
            </Position>
            <AltitudeMeters>42.59999847412109375</AltitudeMeters>
            <DistanceMeters>NAN</DistanceMeters>
          </Trackpoint>
          <Trackpoint>
            <Time>2021-08-13T07:52:20.000Z</Time>
            <Position>
              <LatitudeDegrees>43.2476739585399627685546875</LatitudeDegrees>
              <LongitudeDegrees>-1.9921807385981082916259765625</LongitudeDegrees>
            </Position>
            <AltitudeMeters>48.40000152587890625</AltitudeMeters>
            <DistanceMeters>NAN</DistanceMeters>
          </Trackpoint>
          <Trackpoint>
            <Time>2021-08-13T07:52:21.000Z</Time>
            <Position>
              <LatitudeDegrees>43.24767328798770904541015625</LatitudeDegrees>
              <LongitudeDegrees>-1.99218082241714000701904296875</LongitudeDegrees>
            </Position>
            <AltitudeMeters>51.799999237060546875</AltitudeMeters>
            <DistanceMeters>NAN</DistanceMeters>
          </Trackpoint>
          <Trackpoint>
            <Time>2021-08-13T07:52:23.000Z</Time>
            <Position>
              <LatitudeDegrees>43.2476727850735187530517578125</LatitudeDegrees>
              <LongitudeDegrees>-1.9921820797026157379150390625</LongitudeDegrees>
            </Position>
            <AltitudeMeters>53</AltitudeMeters>
            <DistanceMeters>NAN</DistanceMeters>
          </Trackpoint>
          <Trackpoint>
            <Time>2021-08-13T07:52:29.000Z</Time>
            <Position>
              <LatitudeDegrees>43.2476690970361232757568359375</LatitudeDegrees>
              <LongitudeDegrees>-1.992188952863216400146484375</LongitudeDegrees>
            </Position>
            <AltitudeMeters>53.200000762939453125</AltitudeMeters>
            <DistanceMeters>NAN</DistanceMeters>
          </Trackpoint>
          <Trackpoint>
            <Time>2021-08-13T07:52:30.000Z</Time>
            <Position>
              <LatitudeDegrees>43.24765208177268505096435546875</LatitudeDegrees>
              <LongitudeDegrees>-1.9922065548598766326904296875</LongitudeDegrees>
            </Position>
            <AltitudeMeters>53</AltitudeMeters>
            <DistanceMeters>NAN</DistanceMeters>
          </Trackpoint>
          <Trackpoint>
            <Time>2021-08-13T07:52:31.000Z</Time>
            <Position>
              <LatitudeDegrees>43.24763649143278598785400390625</LatitudeDegrees>
              <LongitudeDegrees>-1.9922196306288242340087890625</LongitudeDegrees>
            </Position>
            <AltitudeMeters>53</AltitudeMeters>
            <DistanceMeters>NAN</DistanceMeters>
          </Trackpoint>
          <Trackpoint>
            <Time>2021-08-13T07:52:32.000Z</Time>
            <Position>
              <LatitudeDegrees>43.247622661292552947998046875</LatitudeDegrees>
              <LongitudeDegrees>-1.9922286830842494964599609375</LongitudeDegrees>
            </Position>
            <AltitudeMeters>53</AltitudeMeters>
            <DistanceMeters>NAN</DistanceMeters>
          </Trackpoint>
          <Trackpoint>
            <Time>2021-08-13T07:52:33.000Z</Time>
            <Position>
              <LatitudeDegrees>43.24760715477168560028076171875</LatitudeDegrees>
              <LongitudeDegrees>-1.9922407530248165130615234375</LongitudeDegrees>
            </Position>
            <AltitudeMeters>53.200000762939453125</AltitudeMeters>
            <DistanceMeters>NAN</DistanceMeters>
          </Trackpoint>
          <Trackpoint>
            <Time>2021-08-13T07:52:34.000Z</Time>
            <Position>
              <LatitudeDegrees>43.2475913129746913909912109375</LatitudeDegrees>
              <LongitudeDegrees>-1.99226103723049163818359375</LongitudeDegrees>
            </Position>
            <AltitudeMeters>53</AltitudeMeters>
            <DistanceMeters>NAN</DistanceMeters>
          </Trackpoint>
          <Trackpoint>
            <Time>2021-08-13T07:52:35.000Z</Time>
            <Position>
              <LatitudeDegrees>43.2475718669593334197998046875</LatitudeDegrees>
              <LongitudeDegrees>-1.9922846741974353790283203125</LongitudeDegrees>
            </Position>
            <AltitudeMeters>53</AltitudeMeters>
            <DistanceMeters>NAN</DistanceMeters>
          </Trackpoint>
          <Trackpoint>
            <Time>2021-08-13T07:52:36.000Z</Time>
            <Position>
              <LatitudeDegrees>43.24755367822945117950439453125</LatitudeDegrees>
              <LongitudeDegrees>-1.9923064671456813812255859375</LongitudeDegrees>
            </Position>
            <AltitudeMeters>53</AltitudeMeters>
            <DistanceMeters>NAN</DistanceMeters>
          </Trackpoint>
          <Trackpoint>
            <Time>2021-08-13T07:52:37.000Z</Time>
            <Position>
              <LatitudeDegrees>43.24753775261342525482177734375</LatitudeDegrees>
              <LongitudeDegrees>-1.99232348240911960601806640625</LongitudeDegrees>
            </Position>
            <AltitudeMeters>53</AltitudeMeters>
            <DistanceMeters>NAN</DistanceMeters>
          </Trackpoint>
          <Trackpoint>
            <Time>2021-08-13T07:52:38.000Z</Time>
            <Position>
              <LatitudeDegrees>43.247518725693225860595703125</LatitudeDegrees>
              <LongitudeDegrees>-1.99233186431229114532470703125</LongitudeDegrees>
            </Position>
            <AltitudeMeters>53</AltitudeMeters>
            <DistanceMeters>NAN</DistanceMeters>
          </Trackpoint>
          <Trackpoint>
            <Time>2021-08-13T07:52:39.000Z</Time>
            <Position>
              <LatitudeDegrees>43.2475028000771999359130859375</LatitudeDegrees>
              <LongitudeDegrees>-1.992331780493259429931640625</LongitudeDegrees>
            </Position>
            <AltitudeMeters>53</AltitudeMeters>
            <DistanceMeters>NAN</DistanceMeters>
          </Trackpoint>
          <Trackpoint>
            <Time>2021-08-13T07:52:40.000Z</Time>
            <Position>
              <LatitudeDegrees>43.2474887184798717498779296875</LatitudeDegrees>
              <LongitudeDegrees>-1.99233270250260829925537109375</LongitudeDegrees>
            </Position>
            <AltitudeMeters>52.799999237060546875</AltitudeMeters>
            <DistanceMeters>NAN</DistanceMeters>
          </Trackpoint>
          <Trackpoint>
            <Time>2021-08-13T07:52:41.000Z</Time>
            <Position>
              <LatitudeDegrees>43.2474759779870510101318359375</LatitudeDegrees>
              <LongitudeDegrees>-1.99233555234968662261962890625</LongitudeDegrees>
            </Position>
            <AltitudeMeters>52.799999237060546875</AltitudeMeters>
            <DistanceMeters>NAN</DistanceMeters>
          </Trackpoint>
          <Trackpoint>
            <Time>2021-08-13T07:52:46.000Z</Time>
            <Position>
              <LatitudeDegrees>43.2474508322775363922119140625</LatitudeDegrees>
              <LongitudeDegrees>-1.9923420064151287078857421875</LongitudeDegrees>
            </Position>
            <AltitudeMeters>52.59999847412109375</AltitudeMeters>
            <DistanceMeters>NAN</DistanceMeters>
          </Trackpoint>
          <Trackpoint>
            <Time>2021-08-13T07:53:01.000Z</Time>
            <Position>
              <LatitudeDegrees>43.24744404293596744537353515625</LatitudeDegrees>
              <LongitudeDegrees>-1.9923567585647106170654296875</LongitudeDegrees>
            </Position>
            <AltitudeMeters>52.40000152587890625</AltitudeMeters>
            <DistanceMeters>NAN</DistanceMeters>
          </Trackpoint>
          <Trackpoint>
            <Time>2021-08-13T07:53:34.000Z</Time>
            <Position>
              <LatitudeDegrees>43.2473924942314624786376953125</LatitudeDegrees>
              <LongitudeDegrees>-1.99235818348824977874755859375</LongitudeDegrees>
            </Position>
            <AltitudeMeters>52.40000152587890625</AltitudeMeters>
            <DistanceMeters>NAN</DistanceMeters>
          </Trackpoint>
          <Trackpoint>
            <Time>2021-08-13T07:53:40.000Z</Time>
            <Position>
              <LatitudeDegrees>43.24722594581544399261474609375</LatitudeDegrees>
              <LongitudeDegrees>-1.99244686402380466461181640625</LongitudeDegrees>
            </Position>
            <AltitudeMeters>52</AltitudeMeters>
            <DistanceMeters>NAN</DistanceMeters>
          </Trackpoint>
          <Trackpoint>
            <Time>2021-08-13T07:53:41.000Z</Time>
            <Position>
              <LatitudeDegrees>43.24719744734466075897216796875</LatitudeDegrees>
              <LongitudeDegrees>-1.99245625175535678863525390625</LongitudeDegrees>
            </Position>
            <AltitudeMeters>52</AltitudeMeters>
            <DistanceMeters>NAN</DistanceMeters>
          </Trackpoint>
          <Trackpoint>
            <Time>2021-08-13T07:53:45.000Z</Time>
            <Position>
              <LatitudeDegrees>43.2470785081386566162109375</LatitudeDegrees>
              <LongitudeDegrees>-1.99252196587622165679931640625</LongitudeDegrees>
            </Position>
            <AltitudeMeters>51.799999237060546875</AltitudeMeters>
            <DistanceMeters>NAN</DistanceMeters>
          </Trackpoint>
          <Trackpoint>
            <Time>2021-08-13T07:53:49.000Z</Time>
            <Position>
              <LatitudeDegrees>43.2469717226922512054443359375</LatitudeDegrees>
              <LongitudeDegrees>-1.9925535656511783599853515625</LongitudeDegrees>
            </Position>
            <AltitudeMeters>51.799999237060546875</AltitudeMeters>
            <DistanceMeters>NAN</DistanceMeters>
          </Trackpoint>
          <Trackpoint>
            <Time>2021-08-13T07:53:50.000Z</Time>
            <Position>
              <LatitudeDegrees>43.24695110321044921875</LatitudeDegrees>
              <LongitudeDegrees>-1.9925539009273052215576171875</LongitudeDegrees>
            </Position>
            <AltitudeMeters>51.799999237060546875</AltitudeMeters>
            <DistanceMeters>NAN</DistanceMeters>
          </Trackpoint>
          <Trackpoint>
            <Time>2021-08-13T07:53:51.000Z</Time>
            <Position>
              <LatitudeDegrees>43.2469336688518524169921875</LatitudeDegrees>
              <LongitudeDegrees>-1.9925607740879058837890625</LongitudeDegrees>
            </Position>
            <AltitudeMeters>51.799999237060546875</AltitudeMeters>
            <DistanceMeters>NAN</DistanceMeters>
          </Trackpoint>
          <Trackpoint>
            <Time>2021-08-13T07:53:52.000Z</Time>
            <Position>
              <LatitudeDegrees>43.2469103671610355377197265625</LatitudeDegrees>
              <LongitudeDegrees>-1.992574520409107208251953125</LongitudeDegrees>
            </Position>
            <AltitudeMeters>51.799999237060546875</AltitudeMeters>
            <DistanceMeters>NAN</DistanceMeters>
          </Trackpoint>
          <Trackpoint>
            <Time>2021-08-13T07:53:53.000Z</Time>
            <Position>
              <LatitudeDegrees>43.24689134024083614349365234375</LatitudeDegrees>
              <LongitudeDegrees>-1.99258667416870594024658203125</LongitudeDegrees>
            </Position>
            <AltitudeMeters>51.799999237060546875</AltitudeMeters>
            <DistanceMeters>NAN</DistanceMeters>
          </Trackpoint>
          <Trackpoint>
            <Time>2021-08-13T07:53:54.000Z</Time>
            <Position>
              <LatitudeDegrees>43.24686803855001926422119140625</LatitudeDegrees>
              <LongitudeDegrees>-1.99260159395635128021240234375</LongitudeDegrees>
            </Position>
            <AltitudeMeters>51.799999237060546875</AltitudeMeters>
            <DistanceMeters>NAN</DistanceMeters>
          </Trackpoint>
          <Trackpoint>
            <Time>2021-08-13T07:53:55.000Z</Time>
            <Position>
              <LatitudeDegrees>43.24683920480310916900634765625</LatitudeDegrees>
              <LongitudeDegrees>-1.99261198751628398895263671875</LongitudeDegrees>
            </Position>
            <AltitudeMeters>51.59999847412109375</AltitudeMeters>
            <DistanceMeters>NAN</DistanceMeters>
          </Trackpoint>
          <Trackpoint>
            <Time>2021-08-13T07:53:56.000Z</Time>
            <Position>
              <LatitudeDegrees>43.24681288562715053558349609375</LatitudeDegrees>
              <LongitudeDegrees>-1.99261735193431377410888671875</LongitudeDegrees>
            </Position>
            <AltitudeMeters>51.59999847412109375</AltitudeMeters>
            <DistanceMeters>NAN</DistanceMeters>
          </Trackpoint>
          <Trackpoint>
            <Time>2021-08-13T07:53:57.000Z</Time>
            <Position>
              <LatitudeDegrees>43.24679310433566570281982421875</LatitudeDegrees>
              <LongitudeDegrees>-1.9926222972571849822998046875</LongitudeDegrees>
            </Position>
            <AltitudeMeters>51.59999847412109375</AltitudeMeters>
            <DistanceMeters>NAN</DistanceMeters>
          </Trackpoint>
          <Trackpoint>
            <Time>2021-08-13T07:53:58.000Z</Time>
            <Position>
              <LatitudeDegrees>43.2467729039490222930908203125</LatitudeDegrees>
              <LongitudeDegrees>-1.99262673966586589813232421875</LongitudeDegrees>
            </Position>
            <AltitudeMeters>51.59999847412109375</AltitudeMeters>
            <DistanceMeters>NAN</DistanceMeters>
          </Trackpoint>
          <Trackpoint>
            <Time>2021-08-13T07:53:59.000Z</Time>
            <Position>
              <LatitudeDegrees>43.24675538577139377593994140625</LatitudeDegrees>
              <LongitudeDegrees>-1.99262606911361217498779296875</LongitudeDegrees>
            </Position>
            <AltitudeMeters>51.59999847412109375</AltitudeMeters>
            <DistanceMeters>NAN</DistanceMeters>
          </Trackpoint>
          <Trackpoint>
            <Time>2021-08-13T07:54:00.000Z</Time>
            <Position>
              <LatitudeDegrees>43.2467420585453510284423828125</LatitudeDegrees>
              <LongitudeDegrees>-1.9926320202648639678955078125</LongitudeDegrees>
            </Position>
            <AltitudeMeters>51.40000152587890625</AltitudeMeters>
            <DistanceMeters>NAN</DistanceMeters>
          </Trackpoint>
          <Trackpoint>
            <Time>2021-08-13T07:54:01.000Z</Time>
            <Position>
              <LatitudeDegrees>43.246730156242847442626953125</LatitudeDegrees>
              <LongitudeDegrees>-1.99263998307287693023681640625</LongitudeDegrees>
            </Position>
            <AltitudeMeters>51.40000152587890625</AltitudeMeters>
            <DistanceMeters>NAN</DistanceMeters>
          </Trackpoint>
          <Trackpoint>
            <Time>2021-08-13T07:54:02.000Z</Time>
            <Position>
              <LatitudeDegrees>43.246712721884250640869140625</LatitudeDegrees>
              <LongitudeDegrees>-1.99264727532863616943359375</LongitudeDegrees>
            </Position>
            <AltitudeMeters>51.40000152587890625</AltitudeMeters>
            <DistanceMeters>NAN</DistanceMeters>
          </Trackpoint>
          <Trackpoint>
            <Time>2021-08-13T07:54:03.000Z</Time>
            <Position>
              <LatitudeDegrees>43.24669553898274898529052734375</LatitudeDegrees>
              <LongitudeDegrees>-1.99265062808990478515625</LongitudeDegrees>
            </Position>
            <AltitudeMeters>51.40000152587890625</AltitudeMeters>
            <DistanceMeters>NAN</DistanceMeters>
          </Trackpoint>
          <Trackpoint>
            <Time>2021-08-13T07:54:04.000Z</Time>
            <Position>
              <LatitudeDegrees>43.24667776934802532196044921875</LatitudeDegrees>
              <LongitudeDegrees>-1.99265389703214168548583984375</LongitudeDegrees>
            </Position>
            <AltitudeMeters>51.40000152587890625</AltitudeMeters>
            <DistanceMeters>NAN</DistanceMeters>
          </Trackpoint>
          <Trackpoint>
            <Time>2021-08-13T07:54:05.000Z</Time>
            <Position>
              <LatitudeDegrees>43.24665673077106475830078125</LatitudeDegrees>
              <LongitudeDegrees>-1.99266093783080577850341796875</LongitudeDegrees>
            </Position>
            <AltitudeMeters>51.40000152587890625</AltitudeMeters>
            <DistanceMeters>NAN</DistanceMeters>
          </Trackpoint>
          <Trackpoint>
            <Time>2021-08-13T07:54:06.000Z</Time>
            <Position>
              <LatitudeDegrees>43.2466327585279941558837890625</LatitudeDegrees>
              <LongitudeDegrees>-1.9926715828478336334228515625</LongitudeDegrees>
            </Position>
            <AltitudeMeters>51.40000152587890625</AltitudeMeters>
            <DistanceMeters>NAN</DistanceMeters>
          </Trackpoint>
          <Trackpoint>
            <Time>2021-08-13T07:54:07.000Z</Time>
            <Position>
              <LatitudeDegrees>43.24661255814135074615478515625</LatitudeDegrees>
              <LongitudeDegrees>-1.99268105439841747283935546875</LongitudeDegrees>
            </Position>
            <AltitudeMeters>51.40000152587890625</AltitudeMeters>
            <DistanceMeters>NAN</DistanceMeters>
          </Trackpoint>
          <Trackpoint>
            <Time>2021-08-13T07:54:08.000Z</Time>
            <Position>
              <LatitudeDegrees>43.246596716344356536865234375</LatitudeDegrees>
              <LongitudeDegrees>-1.99268742464482784271240234375</LongitudeDegrees>
            </Position>
            <AltitudeMeters>51.40000152587890625</AltitudeMeters>
            <DistanceMeters>NAN</DistanceMeters>
          </Trackpoint>
          <Trackpoint>
            <Time>2021-08-13T07:54:09.000Z</Time>
            <Position>
              <LatitudeDegrees>43.24658028781414031982421875</LatitudeDegrees>
              <LongitudeDegrees>-1.99269295670092105865478515625</LongitudeDegrees>
            </Position>
            <AltitudeMeters>51.40000152587890625</AltitudeMeters>
            <DistanceMeters>NAN</DistanceMeters>
          </Trackpoint>
          <Trackpoint>
            <Time>2021-08-13T07:54:10.000Z</Time>
            <Position>
              <LatitudeDegrees>43.2465581595897674560546875</LatitudeDegrees>
              <LongitudeDegrees>-1.9926975667476654052734375</LongitudeDegrees>
            </Position>
            <AltitudeMeters>51.40000152587890625</AltitudeMeters>
            <DistanceMeters>NAN</DistanceMeters>
          </Trackpoint>
          <Trackpoint>
            <Time>2021-08-13T07:54:11.000Z</Time>
            <Position>
              <LatitudeDegrees>43.24653896503150463104248046875</LatitudeDegrees>
              <LongitudeDegrees>-1.99270385317504405975341796875</LongitudeDegrees>
            </Position>
            <AltitudeMeters>51.40000152587890625</AltitudeMeters>
            <DistanceMeters>NAN</DistanceMeters>
          </Trackpoint>
          <Trackpoint>
            <Time>2021-08-13T07:54:12.000Z</Time>
            <Position>
              <LatitudeDegrees>43.24651448987424373626708984375</LatitudeDegrees>
              <LongitudeDegrees>-1.99271164834499359130859375</LongitudeDegrees>
            </Position>
            <AltitudeMeters>51.40000152587890625</AltitudeMeters>
            <DistanceMeters>NAN</DistanceMeters>
          </Trackpoint>
          <Trackpoint>
            <Time>2021-08-13T07:54:13.000Z</Time>
            <Position>
              <LatitudeDegrees>43.24648817069828510284423828125</LatitudeDegrees>
              <LongitudeDegrees>-1.99272044934332370758056640625</LongitudeDegrees>
            </Position>
            <AltitudeMeters>51.59999847412109375</AltitudeMeters>
            <DistanceMeters>NAN</DistanceMeters>
          </Trackpoint>
          <Trackpoint>
            <Time>2021-08-13T07:54:14.000Z</Time>
            <Position>
              <LatitudeDegrees>43.24646486900746822357177734375</LatitudeDegrees>
              <LongitudeDegrees>-1.992728412151336669921875</LongitudeDegrees>
            </Position>
            <AltitudeMeters>51.59999847412109375</AltitudeMeters>
            <DistanceMeters>NAN</DistanceMeters>
          </Trackpoint>
          <Trackpoint>
            <Time>2021-08-13T07:54:15.000Z</Time>
            <Position>
              <LatitudeDegrees>43.246447183191776275634765625</LatitudeDegrees>
              <LongitudeDegrees>-1.9927359558641910552978515625</LongitudeDegrees>
            </Position>
            <AltitudeMeters>51.59999847412109375</AltitudeMeters>
            <DistanceMeters>NAN</DistanceMeters>
          </Trackpoint>
          <Trackpoint>
            <Time>2021-08-13T07:54:16.000Z</Time>
            <Position>
              <LatitudeDegrees>43.2464372925460338592529296875</LatitudeDegrees>
              <LongitudeDegrees>-1.992739140987396240234375</LongitudeDegrees>
            </Position>
            <AltitudeMeters>51.59999847412109375</AltitudeMeters>
            <DistanceMeters>NAN</DistanceMeters>
          </Trackpoint>
          <Trackpoint>
            <Time>2021-08-13T07:54:27.000Z</Time>
            <Position>
              <LatitudeDegrees>43.24634785763919353485107421875</LatitudeDegrees>
              <LongitudeDegrees>-1.9927780330181121826171875</LongitudeDegrees>
            </Position>
            <AltitudeMeters>51</AltitudeMeters>
            <DistanceMeters>NAN</DistanceMeters>
          </Trackpoint>
          <Trackpoint>
            <Time>2021-08-13T07:54:29.000Z</Time>
            <Position>
              <LatitudeDegrees>43.2463427446782588958740234375</LatitudeDegrees>
              <LongitudeDegrees>-1.992814242839813232421875</LongitudeDegrees>
            </Position>
            <AltitudeMeters>51</AltitudeMeters>
            <DistanceMeters>NAN</DistanceMeters>
          </Trackpoint>
          <Trackpoint>
            <Time>2021-08-13T07:54:33.000Z</Time>
            <Position>
              <LatitudeDegrees>43.24634064920246601104736328125</LatitudeDegrees>
              <LongitudeDegrees>-1.99282027781009674072265625</LongitudeDegrees>
            </Position>
            <AltitudeMeters>51</AltitudeMeters>
            <DistanceMeters>NAN</DistanceMeters>
          </Trackpoint>
          <Trackpoint>
            <Time>2021-08-13T07:54:35.000Z</Time>
            <Position>
              <LatitudeDegrees>43.24633930809795856475830078125</LatitudeDegrees>
              <LongitudeDegrees>-1.99282438494265079498291015625</LongitudeDegrees>
            </Position>
            <AltitudeMeters>51</AltitudeMeters>
            <DistanceMeters>NAN</DistanceMeters>
          </Trackpoint>
          <Trackpoint>
            <Time>2021-08-13T07:54:44.000Z</Time>
            <Position>
              <LatitudeDegrees>43.24632220901548862457275390625</LatitudeDegrees>
              <LongitudeDegrees>-1.992847435176372528076171875</LongitudeDegrees>
            </Position>
            <AltitudeMeters>50.799999237060546875</AltitudeMeters>
            <DistanceMeters>NAN</DistanceMeters>
          </Trackpoint>
          <Trackpoint>
            <Time>2021-08-13T07:54:52.000Z</Time>
            <Position>
              <LatitudeDegrees>43.24632681906223297119140625</LatitudeDegrees>
              <LongitudeDegrees>-1.99286361224949359893798828125</LongitudeDegrees>
            </Position>
            <AltitudeMeters>50.40000152587890625</AltitudeMeters>
            <DistanceMeters>NAN</DistanceMeters>
          </Trackpoint>
          <Trackpoint>
            <Time>2021-08-13T07:54:53.000Z</Time>
            <Position>
              <LatitudeDegrees>43.24633092619478702545166015625</LatitudeDegrees>
              <LongitudeDegrees>-1.99287584982812404632568359375</LongitudeDegrees>
            </Position>
            <AltitudeMeters>50.40000152587890625</AltitudeMeters>
            <DistanceMeters>NAN</DistanceMeters>
          </Trackpoint>
          <Trackpoint>
            <Time>2021-08-13T07:54:55.000Z</Time>
            <Position>
              <LatitudeDegrees>43.246339224278926849365234375</LatitudeDegrees>
              <LongitudeDegrees>-1.9929126463830471038818359375</LongitudeDegrees>
            </Position>
            <AltitudeMeters>50.40000152587890625</AltitudeMeters>
            <DistanceMeters>NAN</DistanceMeters>
          </Trackpoint>
          <Trackpoint>
            <Time>2021-08-13T07:54:57.000Z</Time>
            <Position>
              <LatitudeDegrees>43.24634467251598834991455078125</LatitudeDegrees>
              <LongitudeDegrees>-1.99294223450124263763427734375</LongitudeDegrees>
            </Position>
            <AltitudeMeters>50.200000762939453125</AltitudeMeters>
            <DistanceMeters>NAN</DistanceMeters>
          </Trackpoint>
          <Trackpoint>
            <Time>2021-08-13T07:54:58.000Z</Time>
            <Position>
              <LatitudeDegrees>43.2463464327156543731689453125</LatitudeDegrees>
              <LongitudeDegrees>-1.99295246042311191558837890625</LongitudeDegrees>
            </Position>
            <AltitudeMeters>50.200000762939453125</AltitudeMeters>
            <DistanceMeters>NAN</DistanceMeters>
          </Trackpoint>
          <Trackpoint>
            <Time>2021-08-13T07:55:01.000Z</Time>
            <Position>
              <LatitudeDegrees>43.24635573662817478179931640625</LatitudeDegrees>
              <LongitudeDegrees>-1.992954723536968231201171875</LongitudeDegrees>
            </Position>
            <AltitudeMeters>50</AltitudeMeters>
            <DistanceMeters>NAN</DistanceMeters>
          </Trackpoint>
          <Trackpoint>
            <Time>2021-08-13T07:55:16.000Z</Time>
            <Position>
              <LatitudeDegrees>43.2463856600224971771240234375</LatitudeDegrees>
              <LongitudeDegrees>-1.99289940297603607177734375</LongitudeDegrees>
            </Position>
            <AltitudeMeters>49.799999237060546875</AltitudeMeters>
            <DistanceMeters>NAN</DistanceMeters>
          </Trackpoint>
          <Trackpoint>
            <Time>2021-08-13T07:56:19.000Z</Time>
            <Position>
              <LatitudeDegrees>43.24636914767324924468994140625</LatitudeDegrees>
              <LongitudeDegrees>-1.99298917315900325775146484375</LongitudeDegrees>
            </Position>
            <AltitudeMeters>49</AltitudeMeters>
            <DistanceMeters>NAN</DistanceMeters>
          </Trackpoint>
          <Trackpoint>
            <Time>2021-08-13T07:56:21.000Z</Time>
            <Position>
              <LatitudeDegrees>43.2463789544999599456787109375</LatitudeDegrees>
              <LongitudeDegrees>-1.99304801411926746368408203125</LongitudeDegrees>
            </Position>
            <AltitudeMeters>48.799999237060546875</AltitudeMeters>
            <DistanceMeters>NAN</DistanceMeters>
          </Trackpoint>
          <Trackpoint>
            <Time>2021-08-13T07:56:23.000Z</Time>
            <Position>
              <LatitudeDegrees>43.24638758786022663116455078125</LatitudeDegrees>
              <LongitudeDegrees>-1.99309579096734523773193359375</LongitudeDegrees>
            </Position>
            <AltitudeMeters>48.799999237060546875</AltitudeMeters>
            <DistanceMeters>NAN</DistanceMeters>
          </Trackpoint>
          <Trackpoint>
            <Time>2021-08-13T07:56:24.000Z</Time>
            <Position>
              <LatitudeDegrees>43.24639311991631984710693359375</LatitudeDegrees>
              <LongitudeDegrees>-1.9931191764771938323974609375</LongitudeDegrees>
            </Position>
            <AltitudeMeters>48.799999237060546875</AltitudeMeters>
            <DistanceMeters>NAN</DistanceMeters>
          </Trackpoint>
          <Trackpoint>
            <Time>2021-08-13T07:56:26.000Z</Time>
            <Position>
              <LatitudeDegrees>43.24640954844653606414794921875</LatitudeDegrees>
              <LongitudeDegrees>-1.9931701384484767913818359375</LongitudeDegrees>
            </Position>
            <AltitudeMeters>48.59999847412109375</AltitudeMeters>
            <DistanceMeters>NAN</DistanceMeters>
          </Trackpoint>
          <Trackpoint>
            <Time>2021-08-13T07:56:27.000Z</Time>
            <Position>
              <LatitudeDegrees>43.24641491286456584930419921875</LatitudeDegrees>
              <LongitudeDegrees>-1.993205845355987548828125</LongitudeDegrees>
            </Position>
            <AltitudeMeters>48.59999847412109375</AltitudeMeters>
            <DistanceMeters>NAN</DistanceMeters>
          </Trackpoint>
          <Trackpoint>
            <Time>2021-08-13T07:56:28.000Z</Time>
            <Position>
              <LatitudeDegrees>43.24642010964453220367431640625</LatitudeDegrees>
              <LongitudeDegrees>-1.99324004352092742919921875</LongitudeDegrees>
            </Position>
            <AltitudeMeters>48.59999847412109375</AltitudeMeters>
            <DistanceMeters>NAN</DistanceMeters>
          </Trackpoint>
          <Trackpoint>
            <Time>2021-08-13T07:56:29.000Z</Time>
            <Position>
              <LatitudeDegrees>43.24642430059611797332763671875</LatitudeDegrees>
              <LongitudeDegrees>-1.99326929636299610137939453125</LongitudeDegrees>
            </Position>
            <AltitudeMeters>48.59999847412109375</AltitudeMeters>
            <DistanceMeters>NAN</DistanceMeters>
          </Trackpoint>
          <Trackpoint>
            <Time>2021-08-13T07:56:30.000Z</Time>
            <Position>
              <LatitudeDegrees>43.24642547406256198883056640625</LatitudeDegrees>
              <LongitudeDegrees>-1.99329796247184276580810546875</LongitudeDegrees>
            </Position>
            <AltitudeMeters>48.59999847412109375</AltitudeMeters>
            <DistanceMeters>NAN</DistanceMeters>
          </Trackpoint>
          <Trackpoint>
            <Time>2021-08-13T07:56:34.000Z</Time>
            <Position>
              <LatitudeDegrees>43.24643922038376331329345703125</LatitudeDegrees>
              <LongitudeDegrees>-1.9934051670134067535400390625</LongitudeDegrees>
            </Position>
            <AltitudeMeters>48.799999237060546875</AltitudeMeters>
            <DistanceMeters>NAN</DistanceMeters>
          </Trackpoint>
          <Trackpoint>
            <Time>2021-08-13T07:56:38.000Z</Time>
            <Position>
              <LatitudeDegrees>43.24644994921982288360595703125</LatitudeDegrees>
              <LongitudeDegrees>-1.9935129582881927490234375</LongitudeDegrees>
            </Position>
            <AltitudeMeters>49.59999847412109375</AltitudeMeters>
            <DistanceMeters>NAN</DistanceMeters>
          </Trackpoint>
          <Trackpoint>
            <Time>2021-08-13T07:56:39.000Z</Time>
            <Position>
              <LatitudeDegrees>43.246456570923328399658203125</LatitudeDegrees>
              <LongitudeDegrees>-1.9935376010835170745849609375</LongitudeDegrees>
            </Position>
            <AltitudeMeters>49.799999237060546875</AltitudeMeters>
            <DistanceMeters>NAN</DistanceMeters>
          </Trackpoint>
          <Trackpoint>
            <Time>2021-08-13T07:56:40.000Z</Time>
            <Position>
              <LatitudeDegrees>43.2464634440839290618896484375</LatitudeDegrees>
              <LongitudeDegrees>-1.99356182478368282318115234375</LongitudeDegrees>
            </Position>
            <AltitudeMeters>49.799999237060546875</AltitudeMeters>
            <DistanceMeters>NAN</DistanceMeters>
          </Trackpoint>
          <Trackpoint>
            <Time>2021-08-13T07:56:41.000Z</Time>
            <Position>
              <LatitudeDegrees>43.2464721612632274627685546875</LatitudeDegrees>
              <LongitudeDegrees>-1.99358797632157802581787109375</LongitudeDegrees>
            </Position>
            <AltitudeMeters>50</AltitudeMeters>
            <DistanceMeters>NAN</DistanceMeters>
          </Trackpoint>
          <Trackpoint>
            <Time>2021-08-13T07:56:42.000Z</Time>
            <Position>
              <LatitudeDegrees>43.24648129753768444061279296875</LatitudeDegrees>
              <LongitudeDegrees>-1.993616558611392974853515625</LongitudeDegrees>
            </Position>
            <AltitudeMeters>50.200000762939453125</AltitudeMeters>
            <DistanceMeters>NAN</DistanceMeters>
          </Trackpoint>
          <Trackpoint>
            <Time>2021-08-13T07:56:44.000Z</Time>
            <Position>
              <LatitudeDegrees>43.2464916072785854339599609375</LatitudeDegrees>
              <LongitudeDegrees>-1.99367648921906948089599609375</LongitudeDegrees>
            </Position>
            <AltitudeMeters>50.59999847412109375</AltitudeMeters>
            <DistanceMeters>NAN</DistanceMeters>
          </Trackpoint>
          <Trackpoint>
            <Time>2021-08-13T07:56:45.000Z</Time>
            <Position>
              <LatitudeDegrees>43.246492780745029449462890625</LatitudeDegrees>
              <LongitudeDegrees>-1.993709094822406768798828125</LongitudeDegrees>
            </Position>
            <AltitudeMeters>51</AltitudeMeters>
            <DistanceMeters>NAN</DistanceMeters>
          </Trackpoint>
          <Trackpoint>
            <Time>2021-08-13T07:56:48.000Z</Time>
            <Position>
              <LatitudeDegrees>43.2464973069727420806884765625</LatitudeDegrees>
              <LongitudeDegrees>-1.99380305595695972442626953125</LongitudeDegrees>
            </Position>
            <AltitudeMeters>51.59999847412109375</AltitudeMeters>
            <DistanceMeters>NAN</DistanceMeters>
          </Trackpoint>
          <Trackpoint>
            <Time>2021-08-13T07:56:50.000Z</Time>
            <Position>
              <LatitudeDegrees>43.2464909367263317108154296875</LatitudeDegrees>
              <LongitudeDegrees>-1.9938698597252368927001953125</LongitudeDegrees>
            </Position>
            <AltitudeMeters>52</AltitudeMeters>
            <DistanceMeters>NAN</DistanceMeters>
          </Trackpoint>
          <Trackpoint>
            <Time>2021-08-13T07:56:51.000Z</Time>
            <Position>
              <LatitudeDegrees>43.2464932836592197418212890625</LatitudeDegrees>
              <LongitudeDegrees>-1.99390112422406673431396484375</LongitudeDegrees>
            </Position>
            <AltitudeMeters>52.200000762939453125</AltitudeMeters>
            <DistanceMeters>NAN</DistanceMeters>
          </Trackpoint>
          <Trackpoint>
            <Time>2021-08-13T07:56:52.000Z</Time>
            <Position>
              <LatitudeDegrees>43.24650057591497898101806640625</LatitudeDegrees>
              <LongitudeDegrees>-1.99393280781805515289306640625</LongitudeDegrees>
            </Position>
            <AltitudeMeters>52.200000762939453125</AltitudeMeters>
            <DistanceMeters>NAN</DistanceMeters>
          </Trackpoint>
          <Trackpoint>
            <Time>2021-08-13T07:56:53.000Z</Time>
            <Position>
              <LatitudeDegrees>43.246510215103626251220703125</LatitudeDegrees>
              <LongitudeDegrees>-1.99396650306880474090576171875</LongitudeDegrees>
            </Position>
            <AltitudeMeters>52.40000152587890625</AltitudeMeters>
            <DistanceMeters>NAN</DistanceMeters>
          </Trackpoint>
          <Trackpoint>
            <Time>2021-08-13T07:56:54.000Z</Time>
            <Position>
              <LatitudeDegrees>43.2465154118835926055908203125</LatitudeDegrees>
              <LongitudeDegrees>-1.99400246143341064453125</LongitudeDegrees>
            </Position>
            <AltitudeMeters>52.40000152587890625</AltitudeMeters>
            <DistanceMeters>NAN</DistanceMeters>
          </Trackpoint>
          <Trackpoint>
            <Time>2021-08-13T07:56:55.000Z</Time>
            <Position>
              <LatitudeDegrees>43.24651750735938549041748046875</LatitudeDegrees>
              <LongitudeDegrees>-1.99403439648449420928955078125</LongitudeDegrees>
            </Position>
            <AltitudeMeters>52.40000152587890625</AltitudeMeters>
            <DistanceMeters>NAN</DistanceMeters>
          </Trackpoint>
          <Trackpoint>
            <Time>2021-08-13T07:56:56.000Z</Time>
            <Position>
              <LatitudeDegrees>43.2465184293687343597412109375</LatitudeDegrees>
              <LongitudeDegrees>-1.99406683444976806640625</LongitudeDegrees>
            </Position>
            <AltitudeMeters>52.40000152587890625</AltitudeMeters>
            <DistanceMeters>NAN</DistanceMeters>
          </Trackpoint>
          <Trackpoint>
            <Time>2021-08-13T07:56:57.000Z</Time>
            <Position>
              <LatitudeDegrees>43.2465259730815887451171875</LatitudeDegrees>
              <LongitudeDegrees>-1.99409474618732929229736328125</LongitudeDegrees>
            </Position>
            <AltitudeMeters>52.59999847412109375</AltitudeMeters>
            <DistanceMeters>NAN</DistanceMeters>
          </Trackpoint>
          <Trackpoint>
            <Time>2021-08-13T07:56:58.000Z</Time>
            <Position>
              <LatitudeDegrees>43.24652756564319133758544921875</LatitudeDegrees>
              <LongitudeDegrees>-1.994124837219715118408203125</LongitudeDegrees>
            </Position>
            <AltitudeMeters>52.59999847412109375</AltitudeMeters>
            <DistanceMeters>NAN</DistanceMeters>
          </Trackpoint>
          <Trackpoint>
            <Time>2021-08-13T07:56:59.000Z</Time>
            <Position>
              <LatitudeDegrees>43.246530331671237945556640625</LatitudeDegrees>
              <LongitudeDegrees>-1.9941524975001811981201171875</LongitudeDegrees>
            </Position>
            <AltitudeMeters>52.59999847412109375</AltitudeMeters>
            <DistanceMeters>NAN</DistanceMeters>
          </Trackpoint>
          <Trackpoint>
            <Time>2021-08-13T07:57:00.000Z</Time>
            <Position>
              <LatitudeDegrees>43.246533684432506561279296875</LatitudeDegrees>
              <LongitudeDegrees>-1.9941749610006809234619140625</LongitudeDegrees>
            </Position>
            <AltitudeMeters>52.799999237060546875</AltitudeMeters>
            <DistanceMeters>NAN</DistanceMeters>
          </Trackpoint>
          <Trackpoint>
            <Time>2021-08-13T07:57:01.000Z</Time>
            <Position>
              <LatitudeDegrees>43.2465355284512042999267578125</LatitudeDegrees>
              <LongitudeDegrees>-1.9941969215869903564453125</LongitudeDegrees>
            </Position>
            <AltitudeMeters>53</AltitudeMeters>
            <DistanceMeters>NAN</DistanceMeters>
          </Trackpoint>
          <Trackpoint>
            <Time>2021-08-13T07:57:02.000Z</Time>
            <Position>
              <LatitudeDegrees>43.24653846211731433868408203125</LatitudeDegrees>
              <LongitudeDegrees>-1.99422114528715610504150390625</LongitudeDegrees>
            </Position>
            <AltitudeMeters>53.200000762939453125</AltitudeMeters>
            <DistanceMeters>NAN</DistanceMeters>
          </Trackpoint>
          <Trackpoint>
            <Time>2021-08-13T07:57:03.000Z</Time>
            <Position>
              <LatitudeDegrees>43.24654064141213893890380859375</LatitudeDegrees>
              <LongitudeDegrees>-1.99424612335860729217529296875</LongitudeDegrees>
            </Position>
            <AltitudeMeters>53.40000152587890625</AltitudeMeters>
            <DistanceMeters>NAN</DistanceMeters>
          </Trackpoint>
          <Trackpoint>
            <Time>2021-08-13T07:57:04.000Z</Time>
            <Position>
              <LatitudeDegrees>43.2465382106602191925048828125</LatitudeDegrees>
              <LongitudeDegrees>-1.99427546001970767974853515625</LongitudeDegrees>
            </Position>
            <AltitudeMeters>53.799999237060546875</AltitudeMeters>
            <DistanceMeters>NAN</DistanceMeters>
          </Trackpoint>
          <Trackpoint>
            <Time>2021-08-13T07:57:05.000Z</Time>
            <Position>
              <LatitudeDegrees>43.24654030613601207733154296875</LatitudeDegrees>
              <LongitudeDegrees>-1.994300186634063720703125</LongitudeDegrees>
            </Position>
            <AltitudeMeters>54</AltitudeMeters>
            <DistanceMeters>NAN</DistanceMeters>
          </Trackpoint>
          <Trackpoint>
            <Time>2021-08-13T07:57:06.000Z</Time>
            <Position>
              <LatitudeDegrees>43.2465439103543758392333984375</LatitudeDegrees>
              <LongitudeDegrees>-1.9943231530487537384033203125</LongitudeDegrees>
            </Position>
            <AltitudeMeters>54.200000762939453125</AltitudeMeters>
            <DistanceMeters>NAN</DistanceMeters>
          </Trackpoint>
          <Trackpoint>
            <Time>2021-08-13T07:57:07.000Z</Time>
            <Position>
              <LatitudeDegrees>43.24654550291597843170166015625</LatitudeDegrees>
              <LongitudeDegrees>-1.9943471252918243408203125</LongitudeDegrees>
            </Position>
            <AltitudeMeters>54.59999847412109375</AltitudeMeters>
            <DistanceMeters>NAN</DistanceMeters>
          </Trackpoint>
          <Trackpoint>
            <Time>2021-08-13T07:57:08.000Z</Time>
            <Position>
              <LatitudeDegrees>43.24654600583016872406005859375</LatitudeDegrees>
              <LongitudeDegrees>-1.99437059462070465087890625</LongitudeDegrees>
            </Position>
            <AltitudeMeters>54.59999847412109375</AltitudeMeters>
            <DistanceMeters>NAN</DistanceMeters>
          </Trackpoint>
          <Trackpoint>
            <Time>2021-08-13T07:57:09.000Z</Time>
            <Position>
              <LatitudeDegrees>43.24654181487858295440673828125</LatitudeDegrees>
              <LongitudeDegrees>-1.99439381249248981475830078125</LongitudeDegrees>
            </Position>
            <AltitudeMeters>55</AltitudeMeters>
            <DistanceMeters>NAN</DistanceMeters>
          </Trackpoint>
          <Trackpoint>
            <Time>2021-08-13T07:57:10.000Z</Time>
            <Position>
              <LatitudeDegrees>43.24653678573668003082275390625</LatitudeDegrees>
              <LongitudeDegrees>-1.99441728182137012481689453125</LongitudeDegrees>
            </Position>
            <AltitudeMeters>55</AltitudeMeters>
            <DistanceMeters>NAN</DistanceMeters>
          </Trackpoint>
          <Trackpoint>
            <Time>2021-08-13T07:57:11.000Z</Time>
            <Position>
              <LatitudeDegrees>43.24653309769928455352783203125</LatitudeDegrees>
              <LongitudeDegrees>-1.9944408349692821502685546875</LongitudeDegrees>
            </Position>
            <AltitudeMeters>55.40000152587890625</AltitudeMeters>
            <DistanceMeters>NAN</DistanceMeters>
          </Trackpoint>
          <Trackpoint>
            <Time>2021-08-13T07:57:12.000Z</Time>
            <Position>
              <LatitudeDegrees>43.2465340197086334228515625</LatitudeDegrees>
              <LongitudeDegrees>-1.9944653101265430450439453125</LongitudeDegrees>
            </Position>
            <AltitudeMeters>55.59999847412109375</AltitudeMeters>
            <DistanceMeters>NAN</DistanceMeters>
          </Trackpoint>
          <Trackpoint>
            <Time>2021-08-13T07:57:13.000Z</Time>
            <Position>
              <LatitudeDegrees>43.2465351931750774383544921875</LatitudeDegrees>
              <LongitudeDegrees>-1.99448802508413791656494140625</LongitudeDegrees>
            </Position>
            <AltitudeMeters>56</AltitudeMeters>
            <DistanceMeters>NAN</DistanceMeters>
          </Trackpoint>
          <Trackpoint>
            <Time>2021-08-13T07:57:14.000Z</Time>
            <Position>
              <LatitudeDegrees>43.24653494171798229217529296875</LatitudeDegrees>
              <LongitudeDegrees>-1.99451216496527194976806640625</LongitudeDegrees>
            </Position>
            <AltitudeMeters>56.200000762939453125</AltitudeMeters>
            <DistanceMeters>NAN</DistanceMeters>
          </Trackpoint>
          <Trackpoint>
            <Time>2021-08-13T07:57:15.000Z</Time>
            <Position>
              <LatitudeDegrees>43.2465298287570476531982421875</LatitudeDegrees>
              <LongitudeDegrees>-1.994537226855754852294921875</LongitudeDegrees>
            </Position>
            <AltitudeMeters>56.40000152587890625</AltitudeMeters>
            <DistanceMeters>NAN</DistanceMeters>
          </Trackpoint>
          <Trackpoint>
            <Time>2021-08-13T07:57:16.000Z</Time>
            <Position>
              <LatitudeDegrees>43.2465232908725738525390625</LatitudeDegrees>
              <LongitudeDegrees>-1.99456010945141315460205078125</LongitudeDegrees>
            </Position>
            <AltitudeMeters>56.799999237060546875</AltitudeMeters>
            <DistanceMeters>NAN</DistanceMeters>
          </Trackpoint>
          <Trackpoint>
            <Time>2021-08-13T07:57:17.000Z</Time>
            <Position>
              <LatitudeDegrees>43.24651801027357578277587890625</LatitudeDegrees>
              <LongitudeDegrees>-1.99458341114223003387451171875</LongitudeDegrees>
            </Position>
            <AltitudeMeters>57</AltitudeMeters>
            <DistanceMeters>NAN</DistanceMeters>
          </Trackpoint>
          <Trackpoint>
            <Time>2021-08-13T07:57:18.000Z</Time>
            <Position>
              <LatitudeDegrees>43.24651415459811687469482421875</LatitudeDegrees>
              <LongitudeDegrees>-1.994608305394649505615234375</LongitudeDegrees>
            </Position>
            <AltitudeMeters>57.200000762939453125</AltitudeMeters>
            <DistanceMeters>NAN</DistanceMeters>
          </Trackpoint>
          <Trackpoint>
            <Time>2021-08-13T07:57:19.000Z</Time>
            <Position>
              <LatitudeDegrees>43.2465113885700702667236328125</LatitudeDegrees>
              <LongitudeDegrees>-1.994631104171276092529296875</LongitudeDegrees>
            </Position>
            <AltitudeMeters>57.40000152587890625</AltitudeMeters>
            <DistanceMeters>NAN</DistanceMeters>
          </Trackpoint>
          <Trackpoint>
            <Time>2021-08-13T07:57:20.000Z</Time>
            <Position>
              <LatitudeDegrees>43.24650946073234081268310546875</LatitudeDegrees>
              <LongitudeDegrees>-1.99465624988079071044921875</LongitudeDegrees>
            </Position>
            <AltitudeMeters>57.59999847412109375</AltitudeMeters>
            <DistanceMeters>NAN</DistanceMeters>
          </Trackpoint>
          <Trackpoint>
            <Time>2021-08-13T07:57:21.000Z</Time>
            <Position>
              <LatitudeDegrees>43.24650627560913562774658203125</LatitudeDegrees>
              <LongitudeDegrees>-1.99467913247644901275634765625</LongitudeDegrees>
            </Position>
            <AltitudeMeters>58</AltitudeMeters>
            <DistanceMeters>NAN</DistanceMeters>
          </Trackpoint>
          <Trackpoint>
            <Time>2021-08-13T07:57:22.000Z</Time>
            <Position>
              <LatitudeDegrees>43.246503509581089019775390625</LatitudeDegrees>
              <LongitudeDegrees>-1.994698829948902130126953125</LongitudeDegrees>
            </Position>
            <AltitudeMeters>58</AltitudeMeters>
            <DistanceMeters>NAN</DistanceMeters>
          </Trackpoint>
          <Trackpoint>
            <Time>2021-08-13T07:57:23.000Z</Time>
            <Position>
              <LatitudeDegrees>43.246500156819820404052734375</LatitudeDegrees>
              <LongitudeDegrees>-1.99472221545875072479248046875</LongitudeDegrees>
            </Position>
            <AltitudeMeters>58.200000762939453125</AltitudeMeters>
            <DistanceMeters>NAN</DistanceMeters>
          </Trackpoint>
          <Trackpoint>
            <Time>2021-08-13T07:57:24.000Z</Time>
            <Position>
              <LatitudeDegrees>43.24649739079177379608154296875</LatitudeDegrees>
              <LongitudeDegrees>-1.99474501423537731170654296875</LongitudeDegrees>
            </Position>
            <AltitudeMeters>58.200000762939453125</AltitudeMeters>
            <DistanceMeters>NAN</DistanceMeters>
          </Trackpoint>
          <Trackpoint>
            <Time>2021-08-13T07:57:25.000Z</Time>
            <Position>
              <LatitudeDegrees>43.246492445468902587890625</LatitudeDegrees>
              <LongitudeDegrees>-1.99476663954555988311767578125</LongitudeDegrees>
            </Position>
            <AltitudeMeters>58.59999847412109375</AltitudeMeters>
            <DistanceMeters>NAN</DistanceMeters>
          </Trackpoint>
          <Trackpoint>
            <Time>2021-08-13T07:57:26.000Z</Time>
            <Position>
              <LatitudeDegrees>43.24648641049861907958984375</LatitudeDegrees>
              <LongitudeDegrees>-1.99478876776993274688720703125</LongitudeDegrees>
            </Position>
            <AltitudeMeters>58.59999847412109375</AltitudeMeters>
            <DistanceMeters>NAN</DistanceMeters>
          </Trackpoint>
          <Trackpoint>
            <Time>2021-08-13T07:57:27.000Z</Time>
            <Position>
              <LatitudeDegrees>43.2464822195470333099365234375</LatitudeDegrees>
              <LongitudeDegrees>-1.99481089599430561065673828125</LongitudeDegrees>
            </Position>
            <AltitudeMeters>58.799999237060546875</AltitudeMeters>
            <DistanceMeters>NAN</DistanceMeters>
          </Trackpoint>
          <Trackpoint>
            <Time>2021-08-13T07:57:28.000Z</Time>
            <Position>
              <LatitudeDegrees>43.24647962115705013275146484375</LatitudeDegrees>
              <LongitudeDegrees>-1.99483235366642475128173828125</LongitudeDegrees>
            </Position>
            <AltitudeMeters>59</AltitudeMeters>
            <DistanceMeters>NAN</DistanceMeters>
          </Trackpoint>
          <Trackpoint>
            <Time>2021-08-13T07:57:29.000Z</Time>
            <Position>
              <LatitudeDegrees>43.2464765198528766632080078125</LatitudeDegrees>
              <LongitudeDegrees>-1.99485733173787593841552734375</LongitudeDegrees>
            </Position>
            <AltitudeMeters>59.200000762939453125</AltitudeMeters>
            <DistanceMeters>NAN</DistanceMeters>
          </Trackpoint>
          <Trackpoint>
            <Time>2021-08-13T07:57:30.000Z</Time>
            <Position>
              <LatitudeDegrees>43.2464711554348468780517578125</LatitudeDegrees>
              <LongitudeDegrees>-1.99488214217126369476318359375</LongitudeDegrees>
            </Position>
            <AltitudeMeters>59.59999847412109375</AltitudeMeters>
            <DistanceMeters>NAN</DistanceMeters>
          </Trackpoint>
          <Trackpoint>
            <Time>2021-08-13T07:57:31.000Z</Time>
            <Position>
              <LatitudeDegrees>43.24646838940680027008056640625</LatitudeDegrees>
              <LongitudeDegrees>-1.99490628205239772796630859375</LongitudeDegrees>
            </Position>
            <AltitudeMeters>59.59999847412109375</AltitudeMeters>
            <DistanceMeters>NAN</DistanceMeters>
          </Trackpoint>
          <Trackpoint>
            <Time>2021-08-13T07:57:32.000Z</Time>
            <Position>
              <LatitudeDegrees>43.24646352790296077728271484375</LatitudeDegrees>
              <LongitudeDegrees>-1.99492857791483402252197265625</LongitudeDegrees>
            </Position>
            <AltitudeMeters>60</AltitudeMeters>
            <DistanceMeters>NAN</DistanceMeters>
          </Trackpoint>
          <Trackpoint>
            <Time>2021-08-13T07:57:33.000Z</Time>
            <Position>
              <LatitudeDegrees>43.24645799584686756134033203125</LatitudeDegrees>
              <LongitudeDegrees>-1.9949474371969699859619140625</LongitudeDegrees>
            </Position>
            <AltitudeMeters>60</AltitudeMeters>
            <DistanceMeters>NAN</DistanceMeters>
          </Trackpoint>
          <Trackpoint>
            <Time>2021-08-13T07:57:34.000Z</Time>
            <Position>
              <LatitudeDegrees>43.24645346961915493011474609375</LatitudeDegrees>
              <LongitudeDegrees>-1.99496428482234477996826171875</LongitudeDegrees>
            </Position>
            <AltitudeMeters>60.200000762939453125</AltitudeMeters>
            <DistanceMeters>NAN</DistanceMeters>
          </Trackpoint>
          <Trackpoint>
            <Time>2021-08-13T07:57:35.000Z</Time>
            <Position>
              <LatitudeDegrees>43.246449194848537445068359375</LatitudeDegrees>
              <LongitudeDegrees>-1.99498641304671764373779296875</LongitudeDegrees>
            </Position>
            <AltitudeMeters>60.40000152587890625</AltitudeMeters>
            <DistanceMeters>NAN</DistanceMeters>
          </Trackpoint>
          <Trackpoint>
            <Time>2021-08-13T07:57:36.000Z</Time>
            <Position>
              <LatitudeDegrees>43.2464466802775859832763671875</LatitudeDegrees>
              <LongitudeDegrees>-1.99500870890915393829345703125</LongitudeDegrees>
            </Position>
            <AltitudeMeters>60.59999847412109375</AltitudeMeters>
            <DistanceMeters>NAN</DistanceMeters>
          </Trackpoint>
          <Trackpoint>
            <Time>2021-08-13T07:57:37.000Z</Time>
            <Position>
              <LatitudeDegrees>43.24644022621214389801025390625</LatitudeDegrees>
              <LongitudeDegrees>-1.99503100477159023284912109375</LongitudeDegrees>
            </Position>
            <AltitudeMeters>60.59999847412109375</AltitudeMeters>
            <DistanceMeters>NAN</DistanceMeters>
          </Trackpoint>
          <Trackpoint>
            <Time>2021-08-13T07:57:38.000Z</Time>
            <Position>
              <LatitudeDegrees>43.24643452651798725128173828125</LatitudeDegrees>
              <LongitudeDegrees>-1.9950540550053119659423828125</LongitudeDegrees>
            </Position>
            <AltitudeMeters>60.59999847412109375</AltitudeMeters>
            <DistanceMeters>NAN</DistanceMeters>
          </Trackpoint>
          <Trackpoint>
            <Time>2021-08-13T07:57:39.000Z</Time>
            <Position>
              <LatitudeDegrees>43.2464285753667354583740234375</LatitudeDegrees>
              <LongitudeDegrees>-1.99507542885839939117431640625</LongitudeDegrees>
            </Position>
            <AltitudeMeters>60.799999237060546875</AltitudeMeters>
            <DistanceMeters>NAN</DistanceMeters>
          </Trackpoint>
          <Trackpoint>
            <Time>2021-08-13T07:57:40.000Z</Time>
            <Position>
              <LatitudeDegrees>43.24642178602516651153564453125</LatitudeDegrees>
              <LongitudeDegrees>-1.99509822763502597808837890625</LongitudeDegrees>
            </Position>
            <AltitudeMeters>60.799999237060546875</AltitudeMeters>
            <DistanceMeters>NAN</DistanceMeters>
          </Trackpoint>
          <Trackpoint>
            <Time>2021-08-13T07:57:41.000Z</Time>
            <Position>
              <LatitudeDegrees>43.24641876854002475738525390625</LatitudeDegrees>
              <LongitudeDegrees>-1.9951184280216693878173828125</LongitudeDegrees>
            </Position>
            <AltitudeMeters>61</AltitudeMeters>
            <DistanceMeters>NAN</DistanceMeters>
          </Trackpoint>
          <Trackpoint>
            <Time>2021-08-13T07:57:42.000Z</Time>
            <Position>
              <LatitudeDegrees>43.24641776271164417266845703125</LatitudeDegrees>
              <LongitudeDegrees>-1.9951348565518856048583984375</LongitudeDegrees>
            </Position>
            <AltitudeMeters>61</AltitudeMeters>
            <DistanceMeters>NAN</DistanceMeters>
          </Trackpoint>
          <Trackpoint>
            <Time>2021-08-13T07:57:43.000Z</Time>
            <Position>
              <LatitudeDegrees>43.2464151643216609954833984375</LatitudeDegrees>
              <LongitudeDegrees>-1.99514969252049922943115234375</LongitudeDegrees>
            </Position>
            <AltitudeMeters>61</AltitudeMeters>
            <DistanceMeters>NAN</DistanceMeters>
          </Trackpoint>
          <Trackpoint>
            <Time>2021-08-13T07:57:44.000Z</Time>
            <Position>
              <LatitudeDegrees>43.24641206301748752593994140625</LatitudeDegrees>
              <LongitudeDegrees>-1.99516394175589084625244140625</LongitudeDegrees>
            </Position>
            <AltitudeMeters>61.200000762939453125</AltitudeMeters>
            <DistanceMeters>NAN</DistanceMeters>
          </Trackpoint>
          <Trackpoint>
            <Time>2021-08-13T07:57:45.000Z</Time>
            <Position>
              <LatitudeDegrees>43.24640803970396518707275390625</LatitudeDegrees>
              <LongitudeDegrees>-1.99517735280096530914306640625</LongitudeDegrees>
            </Position>
            <AltitudeMeters>61.200000762939453125</AltitudeMeters>
            <DistanceMeters>NAN</DistanceMeters>
          </Trackpoint>
          <Trackpoint>
            <Time>2021-08-13T07:57:46.000Z</Time>
            <Position>
              <LatitudeDegrees>43.246405608952045440673828125</LatitudeDegrees>
              <LongitudeDegrees>-1.995191685855388641357421875</LongitudeDegrees>
            </Position>
            <AltitudeMeters>61.40000152587890625</AltitudeMeters>
            <DistanceMeters>NAN</DistanceMeters>
          </Trackpoint>
          <Trackpoint>
            <Time>2021-08-13T07:57:47.000Z</Time>
            <Position>
              <LatitudeDegrees>43.2464071176946163177490234375</LatitudeDegrees>
              <LongitudeDegrees>-1.99520618654787540435791015625</LongitudeDegrees>
            </Position>
            <AltitudeMeters>61.40000152587890625</AltitudeMeters>
            <DistanceMeters>NAN</DistanceMeters>
          </Trackpoint>
          <Trackpoint>
            <Time>2021-08-13T07:57:48.000Z</Time>
            <Position>
              <LatitudeDegrees>43.24640871025621891021728515625</LatitudeDegrees>
              <LongitudeDegrees>-1.9952183403074741363525390625</LongitudeDegrees>
            </Position>
            <AltitudeMeters>61.59999847412109375</AltitudeMeters>
            <DistanceMeters>NAN</DistanceMeters>
          </Trackpoint>
          <Trackpoint>
            <Time>2021-08-13T07:57:49.000Z</Time>
            <Position>
              <LatitudeDegrees>43.24640871025621891021728515625</LatitudeDegrees>
              <LongitudeDegrees>-1.995232589542865753173828125</LongitudeDegrees>
            </Position>
            <AltitudeMeters>61.59999847412109375</AltitudeMeters>
            <DistanceMeters>NAN</DistanceMeters>
          </Trackpoint>
          <Trackpoint>
            <Time>2021-08-13T07:57:50.000Z</Time>
            <Position>
              <LatitudeDegrees>43.24640921317040920257568359375</LatitudeDegrees>
              <LongitudeDegrees>-1.9952515326440334320068359375</LongitudeDegrees>
            </Position>
            <AltitudeMeters>61.59999847412109375</AltitudeMeters>
            <DistanceMeters>NAN</DistanceMeters>
          </Trackpoint>
          <Trackpoint>
            <Time>2021-08-13T07:57:51.000Z</Time>
            <Position>
              <LatitudeDegrees>43.2464091293513774871826171875</LatitudeDegrees>
              <LongitudeDegrees>-1.995270140469074249267578125</LongitudeDegrees>
            </Position>
            <AltitudeMeters>61.799999237060546875</AltitudeMeters>
            <DistanceMeters>NAN</DistanceMeters>
          </Trackpoint>
          <Trackpoint>
            <Time>2021-08-13T07:57:52.000Z</Time>
            <Position>
              <LatitudeDegrees>43.24640753678977489471435546875</LatitudeDegrees>
              <LongitudeDegrees>-1.995284892618656158447265625</LongitudeDegrees>
            </Position>
            <AltitudeMeters>61.799999237060546875</AltitudeMeters>
            <DistanceMeters>NAN</DistanceMeters>
          </Trackpoint>
          <Trackpoint>
            <Time>2021-08-13T07:57:53.000Z</Time>
            <Position>
              <LatitudeDegrees>43.246403597295284271240234375</LatitudeDegrees>
              <LongitudeDegrees>-1.99530073441565036773681640625</LongitudeDegrees>
            </Position>
            <AltitudeMeters>61.799999237060546875</AltitudeMeters>
            <DistanceMeters>NAN</DistanceMeters>
          </Trackpoint>
          <Trackpoint>
            <Time>2021-08-13T07:57:54.000Z</Time>
            <Position>
              <LatitudeDegrees>43.24639856815338134765625</LatitudeDegrees>
              <LongitudeDegrees>-1.995320431888103485107421875</LongitudeDegrees>
            </Position>
            <AltitudeMeters>61.799999237060546875</AltitudeMeters>
            <DistanceMeters>NAN</DistanceMeters>
          </Trackpoint>
          <Trackpoint>
            <Time>2021-08-13T07:57:55.000Z</Time>
            <Position>
              <LatitudeDegrees>43.24639244936406612396240234375</LatitudeDegrees>
              <LongitudeDegrees>-1.9953397102653980255126953125</LongitudeDegrees>
            </Position>
            <AltitudeMeters>62</AltitudeMeters>
            <DistanceMeters>NAN</DistanceMeters>
          </Trackpoint>
          <Trackpoint>
            <Time>2021-08-13T07:57:56.000Z</Time>
            <Position>
              <LatitudeDegrees>43.24638624675571918487548828125</LatitudeDegrees>
              <LongitudeDegrees>-1.99535571970045566558837890625</LongitudeDegrees>
            </Position>
            <AltitudeMeters>62</AltitudeMeters>
            <DistanceMeters>NAN</DistanceMeters>
          </Trackpoint>
          <Trackpoint>
            <Time>2021-08-13T07:57:57.000Z</Time>
            <Position>
              <LatitudeDegrees>43.24637618847191333770751953125</LatitudeDegrees>
              <LongitudeDegrees>-1.99537432752549648284912109375</LongitudeDegrees>
            </Position>
            <AltitudeMeters>62</AltitudeMeters>
            <DistanceMeters>NAN</DistanceMeters>
          </Trackpoint>
          <Trackpoint>
            <Time>2021-08-13T07:57:58.000Z</Time>
            <Position>
              <LatitudeDegrees>43.2463648729026317596435546875</LatitudeDegrees>
              <LongitudeDegrees>-1.995397545397281646728515625</LongitudeDegrees>
            </Position>
            <AltitudeMeters>62</AltitudeMeters>
            <DistanceMeters>NAN</DistanceMeters>
          </Trackpoint>
          <Trackpoint>
            <Time>2021-08-13T07:57:59.000Z</Time>
            <Position>
              <LatitudeDegrees>43.24635758064687252044677734375</LatitudeDegrees>
              <LongitudeDegrees>-1.99542294256389141082763671875</LongitudeDegrees>
            </Position>
            <AltitudeMeters>62</AltitudeMeters>
            <DistanceMeters>NAN</DistanceMeters>
          </Trackpoint>
          <Trackpoint>
            <Time>2021-08-13T07:58:00.000Z</Time>
            <Position>
              <LatitudeDegrees>43.24635037221014499664306640625</LatitudeDegrees>
              <LongitudeDegrees>-1.99544121511280536651611328125</LongitudeDegrees>
            </Position>
            <AltitudeMeters>62.200000762939453125</AltitudeMeters>
            <DistanceMeters>NAN</DistanceMeters>
          </Trackpoint>
          <Trackpoint>
            <Time>2021-08-13T07:58:01.000Z</Time>
            <Position>
              <LatitudeDegrees>43.24634425342082977294921875</LatitudeDegrees>
              <LongitudeDegrees>-1.9954577274620532989501953125</LongitudeDegrees>
            </Position>
            <AltitudeMeters>62.200000762939453125</AltitudeMeters>
            <DistanceMeters>NAN</DistanceMeters>
          </Trackpoint>
          <Trackpoint>
            <Time>2021-08-13T07:58:02.000Z</Time>
            <Position>
              <LatitudeDegrees>43.24634023010730743408203125</LatitudeDegrees>
              <LongitudeDegrees>-1.9954790174961090087890625</LongitudeDegrees>
            </Position>
            <AltitudeMeters>62.200000762939453125</AltitudeMeters>
            <DistanceMeters>NAN</DistanceMeters>
          </Trackpoint>
          <Trackpoint>
            <Time>2021-08-13T07:58:04.000Z</Time>
            <Position>
              <LatitudeDegrees>43.24633377604186534881591796875</LatitudeDegrees>
              <LongitudeDegrees>-1.9955180771648883819580078125</LongitudeDegrees>
            </Position>
            <AltitudeMeters>62.200000762939453125</AltitudeMeters>
            <DistanceMeters>NAN</DistanceMeters>
          </Trackpoint>
          <Trackpoint>
            <Time>2021-08-13T07:58:05.000Z</Time>
            <Position>
              <LatitudeDegrees>43.24632740579545497894287109375</LatitudeDegrees>
              <LongitudeDegrees>-1.995530985295772552490234375</LongitudeDegrees>
            </Position>
            <AltitudeMeters>62.200000762939453125</AltitudeMeters>
            <DistanceMeters>NAN</DistanceMeters>
          </Trackpoint>
          <Trackpoint>
            <Time>2021-08-13T07:58:07.000Z</Time>
            <Position>
              <LatitudeDegrees>43.24631433002650737762451171875</LatitudeDegrees>
              <LongitudeDegrees>-1.995568536221981048583984375</LongitudeDegrees>
            </Position>
            <AltitudeMeters>62.200000762939453125</AltitudeMeters>
            <DistanceMeters>NAN</DistanceMeters>
          </Trackpoint>
          <Trackpoint>
            <Time>2021-08-13T07:58:08.000Z</Time>
            <Position>
              <LatitudeDegrees>43.2463088817894458770751953125</LatitudeDegrees>
              <LongitudeDegrees>-1.995583958923816680908203125</LongitudeDegrees>
            </Position>
            <AltitudeMeters>62.200000762939453125</AltitudeMeters>
            <DistanceMeters>NAN</DistanceMeters>
          </Trackpoint>
          <Trackpoint>
            <Time>2021-08-13T07:58:09.000Z</Time>
            <Position>
              <LatitudeDegrees>43.24630091898143291473388671875</LatitudeDegrees>
              <LongitudeDegrees>-1.99559980072081089019775390625</LongitudeDegrees>
            </Position>
            <AltitudeMeters>62.200000762939453125</AltitudeMeters>
            <DistanceMeters>NAN</DistanceMeters>
          </Trackpoint>
          <Trackpoint>
            <Time>2021-08-13T07:58:10.000Z</Time>
            <Position>
              <LatitudeDegrees>43.24629320763051509857177734375</LatitudeDegrees>
              <LongitudeDegrees>-1.99561689980328083038330078125</LongitudeDegrees>
            </Position>
            <AltitudeMeters>62.40000152587890625</AltitudeMeters>
            <DistanceMeters>NAN</DistanceMeters>
          </Trackpoint>
          <Trackpoint>
            <Time>2021-08-13T07:58:12.000Z</Time>
            <Position>
              <LatitudeDegrees>43.24628214351832866668701171875</LatitudeDegrees>
              <LongitudeDegrees>-1.99564875103533267974853515625</LongitudeDegrees>
            </Position>
            <AltitudeMeters>62.40000152587890625</AltitudeMeters>
            <DistanceMeters>NAN</DistanceMeters>
          </Trackpoint>
          <Trackpoint>
            <Time>2021-08-13T07:58:13.000Z</Time>
            <Position>
              <LatitudeDegrees>43.24627409689128398895263671875</LatitudeDegrees>
              <LongitudeDegrees>-1.99566249735653400421142578125</LongitudeDegrees>
            </Position>
            <AltitudeMeters>62.40000152587890625</AltitudeMeters>
            <DistanceMeters>NAN</DistanceMeters>
          </Trackpoint>
          <Trackpoint>
            <Time>2021-08-13T07:58:14.000Z</Time>
            <Position>
              <LatitudeDegrees>43.24626688845455646514892578125</LatitudeDegrees>
              <LongitudeDegrees>-1.9956826977431774139404296875</LongitudeDegrees>
            </Position>
            <AltitudeMeters>62.40000152587890625</AltitudeMeters>
            <DistanceMeters>NAN</DistanceMeters>
          </Trackpoint>
          <Trackpoint>
            <Time>2021-08-13T07:58:15.000Z</Time>
            <Position>
              <LatitudeDegrees>43.24626135639846324920654296875</LatitudeDegrees>
              <LongitudeDegrees>-1.9957029819488525390625</LongitudeDegrees>
            </Position>
            <AltitudeMeters>62.40000152587890625</AltitudeMeters>
            <DistanceMeters>NAN</DistanceMeters>
          </Trackpoint>
          <Trackpoint>
            <Time>2021-08-13T07:58:23.000Z</Time>
            <Position>
              <LatitudeDegrees>43.24619396589696407318115234375</LatitudeDegrees>
              <LongitudeDegrees>-1.99587137438356876373291015625</LongitudeDegrees>
            </Position>
            <AltitudeMeters>62.59999847412109375</AltitudeMeters>
            <DistanceMeters>NAN</DistanceMeters>
          </Trackpoint>
          <Trackpoint>
            <Time>2021-08-13T07:58:24.000Z</Time>
            <Position>
              <LatitudeDegrees>43.24618340469896793365478515625</LatitudeDegrees>
              <LongitudeDegrees>-1.99588428251445293426513671875</LongitudeDegrees>
            </Position>
            <AltitudeMeters>62.59999847412109375</AltitudeMeters>
            <DistanceMeters>NAN</DistanceMeters>
          </Trackpoint>
          <Trackpoint>
            <Time>2021-08-13T07:58:25.000Z</Time>
            <Position>
              <LatitudeDegrees>43.24617267586290836334228515625</LatitudeDegrees>
              <LongitudeDegrees>-1.995903812348842620849609375</LongitudeDegrees>
            </Position>
            <AltitudeMeters>62.59999847412109375</AltitudeMeters>
            <DistanceMeters>NAN</DistanceMeters>
          </Trackpoint>
          <Trackpoint>
            <Time>2021-08-13T07:58:27.000Z</Time>
            <Position>
              <LatitudeDegrees>43.2461504638195037841796875</LatitudeDegrees>
              <LongitudeDegrees>-1.995957456529140472412109375</LongitudeDegrees>
            </Position>
            <AltitudeMeters>62.799999237060546875</AltitudeMeters>
            <DistanceMeters>NAN</DistanceMeters>
          </Trackpoint>
          <Trackpoint>
            <Time>2021-08-13T07:58:28.000Z</Time>
            <Position>
              <LatitudeDegrees>43.24613780714571475982666015625</LatitudeDegrees>
              <LongitudeDegrees>-1.99598453007638454437255859375</LongitudeDegrees>
            </Position>
            <AltitudeMeters>62.799999237060546875</AltitudeMeters>
            <DistanceMeters>NAN</DistanceMeters>
          </Trackpoint>
          <Trackpoint>
            <Time>2021-08-13T07:58:35.000Z</Time>
            <Position>
              <LatitudeDegrees>43.24603504501283168792724609375</LatitudeDegrees>
              <LongitudeDegrees>-1.9961222447454929351806640625</LongitudeDegrees>
            </Position>
            <AltitudeMeters>63.200000762939453125</AltitudeMeters>
            <DistanceMeters>NAN</DistanceMeters>
          </Trackpoint>
          <Trackpoint>
            <Time>2021-08-13T07:58:41.000Z</Time>
            <Position>
              <LatitudeDegrees>43.24592708609998226165771484375</LatitudeDegrees>
              <LongitudeDegrees>-1.99627269990742206573486328125</LongitudeDegrees>
            </Position>
            <AltitudeMeters>63.200000762939453125</AltitudeMeters>
            <DistanceMeters>NAN</DistanceMeters>
          </Trackpoint>
          <Trackpoint>
            <Time>2021-08-13T07:58:49.000Z</Time>
            <Position>
              <LatitudeDegrees>43.24577084742486476898193359375</LatitudeDegrees>
              <LongitudeDegrees>-1.99642592109739780426025390625</LongitudeDegrees>
            </Position>
            <AltitudeMeters>63.59999847412109375</AltitudeMeters>
            <DistanceMeters>NAN</DistanceMeters>
          </Trackpoint>
          <Trackpoint>
            <Time>2021-08-13T07:58:50.000Z</Time>
            <Position>
              <LatitudeDegrees>43.24575039558112621307373046875</LatitudeDegrees>
              <LongitudeDegrees>-1.996444277465343475341796875</LongitudeDegrees>
            </Position>
            <AltitudeMeters>63.799999237060546875</AltitudeMeters>
            <DistanceMeters>NAN</DistanceMeters>
          </Trackpoint>
          <Trackpoint>
            <Time>2021-08-13T07:58:52.000Z</Time>
            <Position>
              <LatitudeDegrees>43.24571234174072742462158203125</LatitudeDegrees>
              <LongitudeDegrees>-1.996481157839298248291015625</LongitudeDegrees>
            </Position>
            <AltitudeMeters>64</AltitudeMeters>
            <DistanceMeters>NAN</DistanceMeters>
          </Trackpoint>
          <Trackpoint>
            <Time>2021-08-13T07:58:55.000Z</Time>
            <Position>
              <LatitudeDegrees>43.24565232731401920318603515625</LatitudeDegrees>
              <LongitudeDegrees>-1.99650672264397144317626953125</LongitudeDegrees>
            </Position>
            <AltitudeMeters>64</AltitudeMeters>
            <DistanceMeters>NAN</DistanceMeters>
          </Trackpoint>
          <Trackpoint>
            <Time>2021-08-13T07:58:56.000Z</Time>
            <Position>
              <LatitudeDegrees>43.24563221074640750885009765625</LatitudeDegrees>
              <LongitudeDegrees>-1.99651678092777729034423828125</LongitudeDegrees>
            </Position>
            <AltitudeMeters>64.1999969482421875</AltitudeMeters>
            <DistanceMeters>NAN</DistanceMeters>
          </Trackpoint>
          <Trackpoint>
            <Time>2021-08-13T07:58:57.000Z</Time>
            <Position>
              <LatitudeDegrees>43.2456111721694469451904296875</LatitudeDegrees>
              <LongitudeDegrees>-1.9965282641351222991943359375</LongitudeDegrees>
            </Position>
            <AltitudeMeters>64.1999969482421875</AltitudeMeters>
            <DistanceMeters>NAN</DistanceMeters>
          </Trackpoint>
          <Trackpoint>
            <Time>2021-08-13T07:58:58.000Z</Time>
            <Position>
              <LatitudeDegrees>43.24558912776410579681396484375</LatitudeDegrees>
              <LongitudeDegrees>-1.99654092080891132354736328125</LongitudeDegrees>
            </Position>
            <AltitudeMeters>64.40000152587890625</AltitudeMeters>
            <DistanceMeters>NAN</DistanceMeters>
          </Trackpoint>
          <Trackpoint>
            <Time>2021-08-13T07:58:59.000Z</Time>
            <Position>
              <LatitudeDegrees>43.2455709390342235565185546875</LatitudeDegrees>
              <LongitudeDegrees>-1.99655416421592235565185546875</LongitudeDegrees>
            </Position>
            <AltitudeMeters>64.40000152587890625</AltitudeMeters>
            <DistanceMeters>NAN</DistanceMeters>
          </Trackpoint>
          <Trackpoint>
            <Time>2021-08-13T07:59:00.000Z</Time>
            <Position>
              <LatitudeDegrees>43.24555442668497562408447265625</LatitudeDegrees>
              <LongitudeDegrees>-1.99656439013779163360595703125</LongitudeDegrees>
            </Position>
            <AltitudeMeters>64.40000152587890625</AltitudeMeters>
            <DistanceMeters>NAN</DistanceMeters>
          </Trackpoint>
          <Trackpoint>
            <Time>2021-08-13T07:59:01.000Z</Time>
            <Position>
              <LatitudeDegrees>43.2455397583544254302978515625</LatitudeDegrees>
              <LongitudeDegrees>-1.99657293967902660369873046875</LongitudeDegrees>
            </Position>
            <AltitudeMeters>64.59999847412109375</AltitudeMeters>
            <DistanceMeters>NAN</DistanceMeters>
          </Trackpoint>
          <Trackpoint>
            <Time>2021-08-13T07:59:02.000Z</Time>
            <Position>
              <LatitudeDegrees>43.245524503290653228759765625</LatitudeDegrees>
              <LongitudeDegrees>-1.99657671153545379638671875</LongitudeDegrees>
            </Position>
            <AltitudeMeters>64.59999847412109375</AltitudeMeters>
            <DistanceMeters>NAN</DistanceMeters>
          </Trackpoint>
          <Trackpoint>
            <Time>2021-08-13T07:59:03.000Z</Time>
            <Position>
              <LatitudeDegrees>43.24550782330334186553955078125</LatitudeDegrees>
              <LongitudeDegrees>-1.99657713063061237335205078125</LongitudeDegrees>
            </Position>
            <AltitudeMeters>64.59999847412109375</AltitudeMeters>
            <DistanceMeters>NAN</DistanceMeters>
          </Trackpoint>
          <Trackpoint>
            <Time>2021-08-13T07:59:04.000Z</Time>
            <Position>
              <LatitudeDegrees>43.24549038894474506378173828125</LatitudeDegrees>
              <LongitudeDegrees>-1.99658031575381755828857421875</LongitudeDegrees>
            </Position>
            <AltitudeMeters>64.59999847412109375</AltitudeMeters>
            <DistanceMeters>NAN</DistanceMeters>
          </Trackpoint>
          <Trackpoint>
            <Time>2021-08-13T07:59:06.000Z</Time>
            <Position>
              <LatitudeDegrees>43.2454477250576019287109375</LatitudeDegrees>
              <LongitudeDegrees>-1.99659858830273151397705078125</LongitudeDegrees>
            </Position>
            <AltitudeMeters>64.8000030517578125</AltitudeMeters>
            <DistanceMeters>NAN</DistanceMeters>
          </Trackpoint>
          <Trackpoint>
            <Time>2021-08-13T07:59:12.000Z</Time>
            <Position>
              <LatitudeDegrees>43.24530447833240032196044921875</LatitudeDegrees>
              <LongitudeDegrees>-1.99664887972176074981689453125</LongitudeDegrees>
            </Position>
            <AltitudeMeters>65</AltitudeMeters>
            <DistanceMeters>NAN</DistanceMeters>
          </Trackpoint>
          <Trackpoint>
            <Time>2021-08-13T07:59:19.000Z</Time>
            <Position>
              <LatitudeDegrees>43.2451250217854976654052734375</LatitudeDegrees>
              <LongitudeDegrees>-1.9967029429972171783447265625</LongitudeDegrees>
            </Position>
            <AltitudeMeters>65.40000152587890625</AltitudeMeters>
            <DistanceMeters>NAN</DistanceMeters>
          </Trackpoint>
          <Trackpoint>
            <Time>2021-08-13T07:59:23.000Z</Time>
            <Position>
              <LatitudeDegrees>43.24502200819551944732666015625</LatitudeDegrees>
              <LongitudeDegrees>-1.99673487804830074310302734375</LongitudeDegrees>
            </Position>
            <AltitudeMeters>65.8000030517578125</AltitudeMeters>
            <DistanceMeters>NAN</DistanceMeters>
          </Trackpoint>
          <Trackpoint>
            <Time>2021-08-13T07:59:27.000Z</Time>
            <Position>
              <LatitudeDegrees>43.2449312321841716766357421875</LatitudeDegrees>
              <LongitudeDegrees>-1.9967740215361118316650390625</LongitudeDegrees>
            </Position>
            <AltitudeMeters>66.1999969482421875</AltitudeMeters>
            <DistanceMeters>NAN</DistanceMeters>
          </Trackpoint>
          <Trackpoint>
            <Time>2021-08-13T07:59:28.000Z</Time>
            <Position>
              <LatitudeDegrees>43.24491270817816257476806640625</LatitudeDegrees>
              <LongitudeDegrees>-1.9967825710773468017578125</LongitudeDegrees>
            </Position>
            <AltitudeMeters>66.1999969482421875</AltitudeMeters>
            <DistanceMeters>NAN</DistanceMeters>
          </Trackpoint>
          <Trackpoint>
            <Time>2021-08-13T07:59:29.000Z</Time>
            <Position>
              <LatitudeDegrees>43.24489074759185314178466796875</LatitudeDegrees>
              <LongitudeDegrees>-1.99678785167634487152099609375</LongitudeDegrees>
            </Position>
            <AltitudeMeters>66.1999969482421875</AltitudeMeters>
            <DistanceMeters>NAN</DistanceMeters>
          </Trackpoint>
          <Trackpoint>
            <Time>2021-08-13T07:59:30.000Z</Time>
            <Position>
              <LatitudeDegrees>43.2448655180633068084716796875</LatitudeDegrees>
              <LongitudeDegrees>-1.99678969569504261016845703125</LongitudeDegrees>
            </Position>
            <AltitudeMeters>66.1999969482421875</AltitudeMeters>
            <DistanceMeters>NAN</DistanceMeters>
          </Trackpoint>
          <Trackpoint>
            <Time>2021-08-13T07:59:31.000Z</Time>
            <Position>
              <LatitudeDegrees>43.2448407076299190521240234375</LatitudeDegrees>
              <LongitudeDegrees>-1.99678860604763031005859375</LongitudeDegrees>
            </Position>
            <AltitudeMeters>66.40000152587890625</AltitudeMeters>
            <DistanceMeters>NAN</DistanceMeters>
          </Trackpoint>
          <Trackpoint>
            <Time>2021-08-13T07:59:32.000Z</Time>
            <Position>
              <LatitudeDegrees>43.2448174059391021728515625</LatitudeDegrees>
              <LongitudeDegrees>-1.99678567238152027130126953125</LongitudeDegrees>
            </Position>
            <AltitudeMeters>66.40000152587890625</AltitudeMeters>
            <DistanceMeters>NAN</DistanceMeters>
          </Trackpoint>
          <Trackpoint>
            <Time>2021-08-13T07:59:33.000Z</Time>
            <Position>
              <LatitudeDegrees>43.2447947748005390167236328125</LatitudeDegrees>
              <LongitudeDegrees>-1.99678181670606136322021484375</LongitudeDegrees>
            </Position>
            <AltitudeMeters>66.40000152587890625</AltitudeMeters>
            <DistanceMeters>NAN</DistanceMeters>
          </Trackpoint>
          <Trackpoint>
            <Time>2021-08-13T07:59:40.000Z</Time>
            <Position>
              <LatitudeDegrees>43.24462587945163249969482421875</LatitudeDegrees>
              <LongitudeDegrees>-1.99666514061391353607177734375</LongitudeDegrees>
            </Position>
            <AltitudeMeters>66.40000152587890625</AltitudeMeters>
            <DistanceMeters>NAN</DistanceMeters>
          </Trackpoint>
          <Trackpoint>
            <Time>2021-08-13T07:59:41.000Z</Time>
            <Position>
              <LatitudeDegrees>43.24460643343627452850341796875</LatitudeDegrees>
              <LongitudeDegrees>-1.996640078723430633544921875</LongitudeDegrees>
            </Position>
            <AltitudeMeters>66.40000152587890625</AltitudeMeters>
            <DistanceMeters>NAN</DistanceMeters>
          </Trackpoint>
          <Trackpoint>
            <Time>2021-08-13T07:59:42.000Z</Time>
            <Position>
              <LatitudeDegrees>43.24459419585764408111572265625</LatitudeDegrees>
              <LongitudeDegrees>-1.9966204650700092315673828125</LongitudeDegrees>
            </Position>
            <AltitudeMeters>66.40000152587890625</AltitudeMeters>
            <DistanceMeters>NAN</DistanceMeters>
          </Trackpoint>
          <Trackpoint>
            <Time>2021-08-13T07:59:43.000Z</Time>
            <Position>
              <LatitudeDegrees>43.24458606541156768798828125</LatitudeDegrees>
              <LongitudeDegrees>-1.99660487473011016845703125</LongitudeDegrees>
            </Position>
            <AltitudeMeters>66.40000152587890625</AltitudeMeters>
            <DistanceMeters>NAN</DistanceMeters>
          </Trackpoint>
          <Trackpoint>
            <Time>2021-08-13T07:59:44.000Z</Time>
            <Position>
              <LatitudeDegrees>43.2445786893367767333984375</LatitudeDegrees>
              <LongitudeDegrees>-1.9965916313230991363525390625</LongitudeDegrees>
            </Position>
            <AltitudeMeters>66.1999969482421875</AltitudeMeters>
            <DistanceMeters>NAN</DistanceMeters>
          </Trackpoint>
          <Trackpoint>
            <Time>2021-08-13T07:59:45.000Z</Time>
            <Position>
              <LatitudeDegrees>43.2445731572806835174560546875</LatitudeDegrees>
              <LongitudeDegrees>-1.996574699878692626953125</LongitudeDegrees>
            </Position>
            <AltitudeMeters>66.1999969482421875</AltitudeMeters>
            <DistanceMeters>NAN</DistanceMeters>
          </Trackpoint>
          <Trackpoint>
            <Time>2021-08-13T07:59:46.000Z</Time>
            <Position>
              <LatitudeDegrees>43.244566954672336578369140625</LatitudeDegrees>
              <LongitudeDegrees>-1.99655986391007900238037109375</LongitudeDegrees>
            </Position>
            <AltitudeMeters>66.1999969482421875</AltitudeMeters>
            <DistanceMeters>NAN</DistanceMeters>
          </Trackpoint>
          <Trackpoint>
            <Time>2021-08-13T07:59:49.000Z</Time>
            <Position>
              <LatitudeDegrees>43.2445530407130718231201171875</LatitudeDegrees>
              <LongitudeDegrees>-1.99651091359555721282958984375</LongitudeDegrees>
            </Position>
            <AltitudeMeters>65.8000030517578125</AltitudeMeters>
            <DistanceMeters>NAN</DistanceMeters>
          </Trackpoint>
          <Trackpoint>
            <Time>2021-08-13T07:59:50.000Z</Time>
            <Position>
              <LatitudeDegrees>43.24454960413277149200439453125</LatitudeDegrees>
              <LongitudeDegrees>-1.9964954070746898651123046875</LongitudeDegrees>
            </Position>
            <AltitudeMeters>65.8000030517578125</AltitudeMeters>
            <DistanceMeters>NAN</DistanceMeters>
          </Trackpoint>
          <Trackpoint>
            <Time>2021-08-13T07:59:51.000Z</Time>
            <Position>
              <LatitudeDegrees>43.24454591609537601470947265625</LatitudeDegrees>
              <LongitudeDegrees>-1.99648140929639339447021484375</LongitudeDegrees>
            </Position>
            <AltitudeMeters>65.8000030517578125</AltitudeMeters>
            <DistanceMeters>NAN</DistanceMeters>
          </Trackpoint>
          <Trackpoint>
            <Time>2021-08-13T07:59:52.000Z</Time>
            <Position>
              <LatitudeDegrees>43.24453988112509250640869140625</LatitudeDegrees>
              <LongitudeDegrees>-1.99646833352744579315185546875</LongitudeDegrees>
            </Position>
            <AltitudeMeters>65.59999847412109375</AltitudeMeters>
            <DistanceMeters>NAN</DistanceMeters>
          </Trackpoint>
          <Trackpoint>
            <Time>2021-08-13T07:59:53.000Z</Time>
            <Position>
              <LatitudeDegrees>43.2445352710783481597900390625</LatitudeDegrees>
              <LongitudeDegrees>-1.99645559303462505340576171875</LongitudeDegrees>
            </Position>
            <AltitudeMeters>65.59999847412109375</AltitudeMeters>
            <DistanceMeters>NAN</DistanceMeters>
          </Trackpoint>
          <Trackpoint>
            <Time>2021-08-13T07:59:54.000Z</Time>
            <Position>
              <LatitudeDegrees>43.24453242123126983642578125</LatitudeDegrees>
              <LongitudeDegrees>-1.99644503183662891387939453125</LongitudeDegrees>
            </Position>
            <AltitudeMeters>65.59999847412109375</AltitudeMeters>
            <DistanceMeters>NAN</DistanceMeters>
          </Trackpoint>
          <Trackpoint>
            <Time>2021-08-13T07:59:55.000Z</Time>
            <Position>
              <LatitudeDegrees>43.24453200213611125946044921875</LatitudeDegrees>
              <LongitudeDegrees>-1.9964414276182651519775390625</LongitudeDegrees>
            </Position>
            <AltitudeMeters>65.59999847412109375</AltitudeMeters>
            <DistanceMeters>NAN</DistanceMeters>
          </Trackpoint>
          <Trackpoint>
            <Time>2021-08-13T07:59:58.000Z</Time>
            <Position>
              <LatitudeDegrees>43.24453317560255527496337890625</LatitudeDegrees>
              <LongitudeDegrees>-1.9964434392750263214111328125</LongitudeDegrees>
            </Position>
            <AltitudeMeters>65.40000152587890625</AltitudeMeters>
            <DistanceMeters>NAN</DistanceMeters>
          </Trackpoint>
          <Trackpoint>
            <Time>2021-08-13T08:02:03.000Z</Time>
            <Position>
              <LatitudeDegrees>43.244536779820919036865234375</LatitudeDegrees>
              <LongitudeDegrees>-1.99650923721492290496826171875</LongitudeDegrees>
            </Position>
            <AltitudeMeters>65.59999847412109375</AltitudeMeters>
            <DistanceMeters>NAN</DistanceMeters>
          </Trackpoint>
          <Trackpoint>
            <Time>2021-08-13T08:02:05.000Z</Time>
            <Position>
              <LatitudeDegrees>43.24453703127801418304443359375</LatitudeDegrees>
              <LongitudeDegrees>-1.99650923721492290496826171875</LongitudeDegrees>
            </Position>
            <AltitudeMeters>65.59999847412109375</AltitudeMeters>
            <DistanceMeters>NAN</DistanceMeters>
          </Trackpoint>
          <Trackpoint>
            <Time>2021-08-13T08:02:43.000Z</Time>
            <Position>
              <LatitudeDegrees>43.244531415402889251708984375</LatitudeDegrees>
              <LongitudeDegrees>-1.99648727662861347198486328125</LongitudeDegrees>
            </Position>
            <AltitudeMeters>65.1999969482421875</AltitudeMeters>
            <DistanceMeters>NAN</DistanceMeters>
          </Trackpoint>
          <Trackpoint>
            <Time>2021-08-13T08:03:25.000Z</Time>
            <Position>
              <LatitudeDegrees>43.24449461884796619415283203125</LatitudeDegrees>
              <LongitudeDegrees>-1.99644553475081920623779296875</LongitudeDegrees>
            </Position>
            <AltitudeMeters>65</AltitudeMeters>
            <DistanceMeters>NAN</DistanceMeters>
          </Trackpoint>
          <Trackpoint>
            <Time>2021-08-13T08:03:28.000Z</Time>
            <Position>
              <LatitudeDegrees>43.2444806210696697235107421875</LatitudeDegrees>
              <LongitudeDegrees>-1.99638518504798412322998046875</LongitudeDegrees>
            </Position>
            <AltitudeMeters>65</AltitudeMeters>
            <DistanceMeters>NAN</DistanceMeters>
          </Trackpoint>
          <Trackpoint>
            <Time>2021-08-13T08:03:29.000Z</Time>
            <Position>
              <LatitudeDegrees>43.24447936378419399261474609375</LatitudeDegrees>
              <LongitudeDegrees>-1.9963626377284526824951171875</LongitudeDegrees>
            </Position>
            <AltitudeMeters>65</AltitudeMeters>
            <DistanceMeters>NAN</DistanceMeters>
          </Trackpoint>
          <Trackpoint>
            <Time>2021-08-13T08:03:34.000Z</Time>
            <Position>
              <LatitudeDegrees>43.24448355473577976226806640625</LatitudeDegrees>
              <LongitudeDegrees>-1.99625006876885890960693359375</LongitudeDegrees>
            </Position>
            <AltitudeMeters>65</AltitudeMeters>
            <DistanceMeters>NAN</DistanceMeters>
          </Trackpoint>
          <Trackpoint>
            <Time>2021-08-13T08:03:35.000Z</Time>
            <Position>
              <LatitudeDegrees>43.24449260719120502471923828125</LatitudeDegrees>
              <LongitudeDegrees>-1.996228694915771484375</LongitudeDegrees>
            </Position>
            <AltitudeMeters>64.8000030517578125</AltitudeMeters>
            <DistanceMeters>NAN</DistanceMeters>
          </Trackpoint>
          <Trackpoint>
            <Time>2021-08-13T08:03:36.000Z</Time>
            <Position>
              <LatitudeDegrees>43.2445009052753448486328125</LatitudeDegrees>
              <LongitudeDegrees>-1.99620388448238372802734375</LongitudeDegrees>
            </Position>
            <AltitudeMeters>64.8000030517578125</AltitudeMeters>
            <DistanceMeters>NAN</DistanceMeters>
          </Trackpoint>
          <Trackpoint>
            <Time>2021-08-13T08:03:39.000Z</Time>
            <Position>
              <LatitudeDegrees>43.24453367851674556732177734375</LatitudeDegrees>
              <LongitudeDegrees>-1.99611545540392398834228515625</LongitudeDegrees>
            </Position>
            <AltitudeMeters>64.59999847412109375</AltitudeMeters>
            <DistanceMeters>NAN</DistanceMeters>
          </Trackpoint>
          <Trackpoint>
            <Time>2021-08-13T08:03:40.000Z</Time>
            <Position>
              <LatitudeDegrees>43.24454046785831451416015625</LatitudeDegrees>
              <LongitudeDegrees>-1.996084190905094146728515625</LongitudeDegrees>
            </Position>
            <AltitudeMeters>64.59999847412109375</AltitudeMeters>
            <DistanceMeters>NAN</DistanceMeters>
          </Trackpoint>
          <Trackpoint>
            <Time>2021-08-13T08:03:41.000Z</Time>
            <Position>
              <LatitudeDegrees>43.24455027468502521514892578125</LatitudeDegrees>
              <LongitudeDegrees>-1.99605376459658145904541015625</LongitudeDegrees>
            </Position>
            <AltitudeMeters>64.40000152587890625</AltitudeMeters>
            <DistanceMeters>NAN</DistanceMeters>
          </Trackpoint>
          <Trackpoint>
            <Time>2021-08-13T08:03:42.000Z</Time>
            <Position>
              <LatitudeDegrees>43.24456687085330486297607421875</LatitudeDegrees>
              <LongitudeDegrees>-1.996023170650005340576171875</LongitudeDegrees>
            </Position>
            <AltitudeMeters>64.40000152587890625</AltitudeMeters>
            <DistanceMeters>NAN</DistanceMeters>
          </Trackpoint>
          <Trackpoint>
            <Time>2021-08-13T08:03:45.000Z</Time>
            <Position>
              <LatitudeDegrees>43.24462085030972957611083984375</LatitudeDegrees>
              <LongitudeDegrees>-1.9959349930286407470703125</LongitudeDegrees>
            </Position>
            <AltitudeMeters>64.1999969482421875</AltitudeMeters>
            <DistanceMeters>NAN</DistanceMeters>
          </Trackpoint>
          <Trackpoint>
            <Time>2021-08-13T08:03:51.000Z</Time>
            <Position>
              <LatitudeDegrees>43.244764767587184906005859375</LatitudeDegrees>
              <LongitudeDegrees>-1.9958181492984294891357421875</LongitudeDegrees>
            </Position>
            <AltitudeMeters>63.799999237060546875</AltitudeMeters>
            <DistanceMeters>NAN</DistanceMeters>
          </Trackpoint>
          <Trackpoint>
            <Time>2021-08-13T08:03:56.000Z</Time>
            <Position>
              <LatitudeDegrees>43.24492628686130046844482421875</LatitudeDegrees>
              <LongitudeDegrees>-1.99576525948941707611083984375</LongitudeDegrees>
            </Position>
            <AltitudeMeters>63.59999847412109375</AltitudeMeters>
            <DistanceMeters>NAN</DistanceMeters>
          </Trackpoint>
          <Trackpoint>
            <Time>2021-08-13T08:03:57.000Z</Time>
            <Position>
              <LatitudeDegrees>43.24495629407465457916259765625</LatitudeDegrees>
              <LongitudeDegrees>-1.99575503356754779815673828125</LongitudeDegrees>
            </Position>
            <AltitudeMeters>63.59999847412109375</AltitudeMeters>
            <DistanceMeters>NAN</DistanceMeters>
          </Trackpoint>
          <Trackpoint>
            <Time>2021-08-13T08:04:05.000Z</Time>
            <Position>
              <LatitudeDegrees>43.245202638208866119384765625</LatitudeDegrees>
              <LongitudeDegrees>-1.99566417373716831207275390625</LongitudeDegrees>
            </Position>
            <AltitudeMeters>62.40000152587890625</AltitudeMeters>
            <DistanceMeters>NAN</DistanceMeters>
          </Trackpoint>
          <Trackpoint>
            <Time>2021-08-13T08:04:06.000Z</Time>
            <Position>
              <LatitudeDegrees>43.24523440562188625335693359375</LatitudeDegrees>
              <LongitudeDegrees>-1.99565528891980648040771484375</LongitudeDegrees>
            </Position>
            <AltitudeMeters>62.40000152587890625</AltitudeMeters>
            <DistanceMeters>NAN</DistanceMeters>
          </Trackpoint>
          <Trackpoint>
            <Time>2021-08-13T08:04:09.000Z</Time>
            <Position>
              <LatitudeDegrees>43.245346806943416595458984375</LatitudeDegrees>
              <LongitudeDegrees>-1.9956129603087902069091796875</LongitudeDegrees>
            </Position>
            <AltitudeMeters>62.200000762939453125</AltitudeMeters>
            <DistanceMeters>NAN</DistanceMeters>
          </Trackpoint>
          <Trackpoint>
            <Time>2021-08-13T08:04:10.000Z</Time>
            <Position>
              <LatitudeDegrees>43.2453838549554347991943359375</LatitudeDegrees>
              <LongitudeDegrees>-1.9955901615321636199951171875</LongitudeDegrees>
            </Position>
            <AltitudeMeters>61.799999237060546875</AltitudeMeters>
            <DistanceMeters>NAN</DistanceMeters>
          </Trackpoint>
          <Trackpoint>
            <Time>2021-08-13T08:04:11.000Z</Time>
            <Position>
              <LatitudeDegrees>43.2454193942248821258544921875</LatitudeDegrees>
              <LongitudeDegrees>-1.99556509964168071746826171875</LongitudeDegrees>
            </Position>
            <AltitudeMeters>61.799999237060546875</AltitudeMeters>
            <DistanceMeters>NAN</DistanceMeters>
          </Trackpoint>
          <Trackpoint>
            <Time>2021-08-13T08:04:12.000Z</Time>
            <Position>
              <LatitudeDegrees>43.24545702897012233734130859375</LatitudeDegrees>
              <LongitudeDegrees>-1.99553442187607288360595703125</LongitudeDegrees>
            </Position>
            <AltitudeMeters>61.40000152587890625</AltitudeMeters>
            <DistanceMeters>NAN</DistanceMeters>
          </Trackpoint>
          <Trackpoint>
            <Time>2021-08-13T08:04:16.000Z</Time>
            <Position>
              <LatitudeDegrees>43.2455823384225368499755859375</LatitudeDegrees>
              <LongitudeDegrees>-1.99538706801831722259521484375</LongitudeDegrees>
            </Position>
            <AltitudeMeters>60.799999237060546875</AltitudeMeters>
            <DistanceMeters>NAN</DistanceMeters>
          </Trackpoint>
          <Trackpoint>
            <Time>2021-08-13T08:04:18.000Z</Time>
            <Position>
              <LatitudeDegrees>43.2456327974796295166015625</LatitudeDegrees>
              <LongitudeDegrees>-1.995294280350208282470703125</LongitudeDegrees>
            </Position>
            <AltitudeMeters>60.59999847412109375</AltitudeMeters>
            <DistanceMeters>NAN</DistanceMeters>
          </Trackpoint>
          <Trackpoint>
            <Time>2021-08-13T08:04:20.000Z</Time>
            <Position>
              <LatitudeDegrees>43.24566565454006195068359375</LatitudeDegrees>
              <LongitudeDegrees>-1.99518422596156597137451171875</LongitudeDegrees>
            </Position>
            <AltitudeMeters>60.40000152587890625</AltitudeMeters>
            <DistanceMeters>NAN</DistanceMeters>
          </Trackpoint>
          <Trackpoint>
            <Time>2021-08-13T08:04:21.000Z</Time>
            <Position>
              <LatitudeDegrees>43.245682083070278167724609375</LatitudeDegrees>
              <LongitudeDegrees>-1.99512789957225322723388671875</LongitudeDegrees>
            </Position>
            <AltitudeMeters>60.200000762939453125</AltitudeMeters>
            <DistanceMeters>NAN</DistanceMeters>
          </Trackpoint>
          <Trackpoint>
            <Time>2021-08-13T08:04:24.000Z</Time>
            <Position>
              <LatitudeDegrees>43.24572189711034297943115234375</LatitudeDegrees>
              <LongitudeDegrees>-1.99496814049780368804931640625</LongitudeDegrees>
            </Position>
            <AltitudeMeters>59.59999847412109375</AltitudeMeters>
            <DistanceMeters>NAN</DistanceMeters>
          </Trackpoint>
          <Trackpoint>
            <Time>2021-08-13T08:04:25.000Z</Time>
            <Position>
              <LatitudeDegrees>43.24573405086994171142578125</LatitudeDegrees>
              <LongitudeDegrees>-1.99492103420197963714599609375</LongitudeDegrees>
            </Position>
            <AltitudeMeters>59.59999847412109375</AltitudeMeters>
            <DistanceMeters>NAN</DistanceMeters>
          </Trackpoint>
          <Trackpoint>
            <Time>2021-08-13T08:04:26.000Z</Time>
            <Position>
              <LatitudeDegrees>43.24574503116309642791748046875</LatitudeDegrees>
              <LongitudeDegrees>-1.99487744830548763275146484375</LongitudeDegrees>
            </Position>
            <AltitudeMeters>59.40000152587890625</AltitudeMeters>
            <DistanceMeters>NAN</DistanceMeters>
          </Trackpoint>
          <Trackpoint>
            <Time>2021-08-13T08:04:27.000Z</Time>
            <Position>
              <LatitudeDegrees>43.24575358070433139801025390625</LatitudeDegrees>
              <LongitudeDegrees>-1.99483855627477169036865234375</LongitudeDegrees>
            </Position>
            <AltitudeMeters>59.40000152587890625</AltitudeMeters>
            <DistanceMeters>NAN</DistanceMeters>
          </Trackpoint>
          <Trackpoint>
            <Time>2021-08-13T08:04:28.000Z</Time>
            <Position>
              <LatitudeDegrees>43.24575928039848804473876953125</LatitudeDegrees>
              <LongitudeDegrees>-1.9948039390146732330322265625</LongitudeDegrees>
            </Position>
            <AltitudeMeters>59.200000762939453125</AltitudeMeters>
            <DistanceMeters>NAN</DistanceMeters>
          </Trackpoint>
          <Trackpoint>
            <Time>2021-08-13T08:04:29.000Z</Time>
            <Position>
              <LatitudeDegrees>43.245763219892978668212890625</LatitudeDegrees>
              <LongitudeDegrees>-1.99477158486843109130859375</LongitudeDegrees>
            </Position>
            <AltitudeMeters>58.799999237060546875</AltitudeMeters>
            <DistanceMeters>NAN</DistanceMeters>
          </Trackpoint>
          <Trackpoint>
            <Time>2021-08-13T08:04:30.000Z</Time>
            <Position>
              <LatitudeDegrees>43.24576531536877155303955078125</LatitudeDegrees>
              <LongitudeDegrees>-1.9947378896176815032958984375</LongitudeDegrees>
            </Position>
            <AltitudeMeters>58.799999237060546875</AltitudeMeters>
            <DistanceMeters>NAN</DistanceMeters>
          </Trackpoint>
          <Trackpoint>
            <Time>2021-08-13T08:04:31.000Z</Time>
            <Position>
              <LatitudeDegrees>43.245751149952411651611328125</LatitudeDegrees>
              <LongitudeDegrees>-1.99470729567110538482666015625</LongitudeDegrees>
            </Position>
            <AltitudeMeters>58.59999847412109375</AltitudeMeters>
            <DistanceMeters>NAN</DistanceMeters>
          </Trackpoint>
          <Trackpoint>
            <Time>2021-08-13T08:04:32.000Z</Time>
            <Position>
              <LatitudeDegrees>43.245724327862262725830078125</LatitudeDegrees>
              <LongitudeDegrees>-1.9946877658367156982421875</LongitudeDegrees>
            </Position>
            <AltitudeMeters>58.40000152587890625</AltitudeMeters>
            <DistanceMeters>NAN</DistanceMeters>
          </Trackpoint>
          <Trackpoint>
            <Time>2021-08-13T08:04:33.000Z</Time>
            <Position>
              <LatitudeDegrees>43.24569373391568660736083984375</LatitudeDegrees>
              <LongitudeDegrees>-1.9946711696684360504150390625</LongitudeDegrees>
            </Position>
            <AltitudeMeters>58.200000762939453125</AltitudeMeters>
            <DistanceMeters>NAN</DistanceMeters>
          </Trackpoint>
          <Trackpoint>
            <Time>2021-08-13T08:04:38.000Z</Time>
            <Position>
              <LatitudeDegrees>43.24551369063556194305419921875</LatitudeDegrees>
              <LongitudeDegrees>-1.99459858238697052001953125</LongitudeDegrees>
            </Position>
            <AltitudeMeters>57.40000152587890625</AltitudeMeters>
            <DistanceMeters>NAN</DistanceMeters>
          </Trackpoint>
          <Trackpoint>
            <Time>2021-08-13T08:04:39.000Z</Time>
            <Position>
              <LatitudeDegrees>43.24547563679516315460205078125</LatitudeDegrees>
              <LongitudeDegrees>-1.994583494961261749267578125</LongitudeDegrees>
            </Position>
            <AltitudeMeters>57.40000152587890625</AltitudeMeters>
            <DistanceMeters>NAN</DistanceMeters>
          </Trackpoint>
          <Trackpoint>
            <Time>2021-08-13T08:04:40.000Z</Time>
            <Position>
              <LatitudeDegrees>43.24543632566928863525390625</LatitudeDegrees>
              <LongitudeDegrees>-1.99456664733588695526123046875</LongitudeDegrees>
            </Position>
            <AltitudeMeters>57.200000762939453125</AltitudeMeters>
            <DistanceMeters>NAN</DistanceMeters>
          </Trackpoint>
          <Trackpoint>
            <Time>2021-08-13T08:04:45.000Z</Time>
            <Position>
              <LatitudeDegrees>43.24523373506963253021240234375</LatitudeDegrees>
              <LongitudeDegrees>-1.994490958750247955322265625</LongitudeDegrees>
            </Position>
            <AltitudeMeters>56.799999237060546875</AltitudeMeters>
            <DistanceMeters>NAN</DistanceMeters>
          </Trackpoint>
          <Trackpoint>
            <Time>2021-08-13T08:04:49.000Z</Time>
            <Position>
              <LatitudeDegrees>43.24508805759251117706298828125</LatitudeDegrees>
              <LongitudeDegrees>-1.9944153539836406707763671875</LongitudeDegrees>
            </Position>
            <AltitudeMeters>56.40000152587890625</AltitudeMeters>
            <DistanceMeters>NAN</DistanceMeters>
          </Trackpoint>
          <Trackpoint>
            <Time>2021-08-13T08:04:51.000Z</Time>
            <Position>
              <LatitudeDegrees>43.24503525160253047943115234375</LatitudeDegrees>
              <LongitudeDegrees>-1.99435961432754993438720703125</LongitudeDegrees>
            </Position>
            <AltitudeMeters>56.40000152587890625</AltitudeMeters>
            <DistanceMeters>NAN</DistanceMeters>
          </Trackpoint>
          <Trackpoint>
            <Time>2021-08-13T08:04:52.000Z</Time>
            <Position>
              <LatitudeDegrees>43.24501463212072849273681640625</LatitudeDegrees>
              <LongitudeDegrees>-1.9943234883248805999755859375</LongitudeDegrees>
            </Position>
            <AltitudeMeters>56.40000152587890625</AltitudeMeters>
            <DistanceMeters>NAN</DistanceMeters>
          </Trackpoint>
          <Trackpoint>
            <Time>2021-08-13T08:04:53.000Z</Time>
            <Position>
              <LatitudeDegrees>43.24500205926597118377685546875</LatitudeDegrees>
              <LongitudeDegrees>-1.99427830986678600311279296875</LongitudeDegrees>
            </Position>
            <AltitudeMeters>56.40000152587890625</AltitudeMeters>
            <DistanceMeters>NAN</DistanceMeters>
          </Trackpoint>
          <Trackpoint>
            <Time>2021-08-13T08:04:54.000Z</Time>
            <Position>
              <LatitudeDegrees>43.24498613364994525909423828125</LatitudeDegrees>
              <LongitudeDegrees>-1.99423992075026035308837890625</LongitudeDegrees>
            </Position>
            <AltitudeMeters>56.40000152587890625</AltitudeMeters>
            <DistanceMeters>NAN</DistanceMeters>
          </Trackpoint>
          <Trackpoint>
            <Time>2021-08-13T08:04:55.000Z</Time>
            <Position>
              <LatitudeDegrees>43.24497020803391933441162109375</LatitudeDegrees>
              <LongitudeDegrees>-1.99419985525310039520263671875</LongitudeDegrees>
            </Position>
            <AltitudeMeters>56.40000152587890625</AltitudeMeters>
            <DistanceMeters>NAN</DistanceMeters>
          </Trackpoint>
          <Trackpoint>
            <Time>2021-08-13T08:04:56.000Z</Time>
            <Position>
              <LatitudeDegrees>43.24495847336947917938232421875</LatitudeDegrees>
              <LongitudeDegrees>-1.994155682623386383056640625</LongitudeDegrees>
            </Position>
            <AltitudeMeters>56.200000762939453125</AltitudeMeters>
            <DistanceMeters>NAN</DistanceMeters>
          </Trackpoint>
          <Trackpoint>
            <Time>2021-08-13T08:04:57.000Z</Time>
            <Position>
              <LatitudeDegrees>43.2449523545801639556884765625</LatitudeDegrees>
              <LongitudeDegrees>-1.99411033652722835540771484375</LongitudeDegrees>
            </Position>
            <AltitudeMeters>56.200000762939453125</AltitudeMeters>
            <DistanceMeters>NAN</DistanceMeters>
          </Trackpoint>
          <Trackpoint>
            <Time>2021-08-13T08:04:58.000Z</Time>
            <Position>
              <LatitudeDegrees>43.2449469901621341705322265625</LatitudeDegrees>
              <LongitudeDegrees>-1.99406540952622890472412109375</LongitudeDegrees>
            </Position>
            <AltitudeMeters>56.200000762939453125</AltitudeMeters>
            <DistanceMeters>NAN</DistanceMeters>
          </Trackpoint>
          <Trackpoint>
            <Time>2021-08-13T08:04:59.000Z</Time>
            <Position>
              <LatitudeDegrees>43.244939111173152923583984375</LatitudeDegrees>
              <LongitudeDegrees>-1.9940207339823246002197265625</LongitudeDegrees>
            </Position>
            <AltitudeMeters>56.200000762939453125</AltitudeMeters>
            <DistanceMeters>NAN</DistanceMeters>
          </Trackpoint>
          <Trackpoint>
            <Time>2021-08-13T08:05:01.000Z</Time>
            <Position>
              <LatitudeDegrees>43.24492444284260272979736328125</LatitudeDegrees>
              <LongitudeDegrees>-1.993935070931911468505859375</LongitudeDegrees>
            </Position>
            <AltitudeMeters>56.200000762939453125</AltitudeMeters>
            <DistanceMeters>NAN</DistanceMeters>
          </Trackpoint>
          <Trackpoint>
            <Time>2021-08-13T08:05:02.000Z</Time>
            <Position>
              <LatitudeDegrees>43.24492142535746097564697265625</LatitudeDegrees>
              <LongitudeDegrees>-1.9938996993005275726318359375</LongitudeDegrees>
            </Position>
            <AltitudeMeters>56.200000762939453125</AltitudeMeters>
            <DistanceMeters>NAN</DistanceMeters>
          </Trackpoint>
          <Trackpoint>
            <Time>2021-08-13T08:05:03.000Z</Time>
            <Position>
              <LatitudeDegrees>43.2449208386242389678955078125</LatitudeDegrees>
              <LongitudeDegrees>-1.99386877007782459259033203125</LongitudeDegrees>
            </Position>
            <AltitudeMeters>56.200000762939453125</AltitudeMeters>
            <DistanceMeters>NAN</DistanceMeters>
          </Trackpoint>
          <Trackpoint>
            <Time>2021-08-13T08:05:04.000Z</Time>
            <Position>
              <LatitudeDegrees>43.2449235208332538604736328125</LatitudeDegrees>
              <LongitudeDegrees>-1.99383876286447048187255859375</LongitudeDegrees>
            </Position>
            <AltitudeMeters>56</AltitudeMeters>
            <DistanceMeters>NAN</DistanceMeters>
          </Trackpoint>
          <Trackpoint>
            <Time>2021-08-13T08:05:05.000Z</Time>
            <Position>
              <LatitudeDegrees>43.24492494575679302215576171875</LatitudeDegrees>
              <LongitudeDegrees>-1.993811689317226409912109375</LongitudeDegrees>
            </Position>
            <AltitudeMeters>56</AltitudeMeters>
            <DistanceMeters>NAN</DistanceMeters>
          </Trackpoint>
          <Trackpoint>
            <Time>2021-08-13T08:05:06.000Z</Time>
            <Position>
              <LatitudeDegrees>43.2449225150048732757568359375</LatitudeDegrees>
              <LongitudeDegrees>-1.99378763325512409210205078125</LongitudeDegrees>
            </Position>
            <AltitudeMeters>56</AltitudeMeters>
            <DistanceMeters>NAN</DistanceMeters>
          </Trackpoint>
          <Trackpoint>
            <Time>2021-08-13T08:05:07.000Z</Time>
            <Position>
              <LatitudeDegrees>43.24491069652140140533447265625</LatitudeDegrees>
              <LongitudeDegrees>-1.99376801960170269012451171875</LongitudeDegrees>
            </Position>
            <AltitudeMeters>56</AltitudeMeters>
            <DistanceMeters>NAN</DistanceMeters>
          </Trackpoint>
          <Trackpoint>
            <Time>2021-08-13T08:05:08.000Z</Time>
            <Position>
              <LatitudeDegrees>43.24489544145762920379638671875</LatitudeDegrees>
              <LongitudeDegrees>-1.9937515072524547576904296875</LongitudeDegrees>
            </Position>
            <AltitudeMeters>56</AltitudeMeters>
            <DistanceMeters>NAN</DistanceMeters>
          </Trackpoint>
          <Trackpoint>
            <Time>2021-08-13T08:05:09.000Z</Time>
            <Position>
              <LatitudeDegrees>43.2448745705187320709228515625</LatitudeDegrees>
              <LongitudeDegrees>-1.99372828938066959381103515625</LongitudeDegrees>
            </Position>
            <AltitudeMeters>56</AltitudeMeters>
            <DistanceMeters>NAN</DistanceMeters>
          </Trackpoint>
          <Trackpoint>
            <Time>2021-08-13T08:05:10.000Z</Time>
            <Position>
              <LatitudeDegrees>43.24484900571405887603759765625</LatitudeDegrees>
              <LongitudeDegrees>-1.99370984919369220733642578125</LongitudeDegrees>
            </Position>
            <AltitudeMeters>55.799999237060546875</AltitudeMeters>
            <DistanceMeters>NAN</DistanceMeters>
          </Trackpoint>
          <Trackpoint>
            <Time>2021-08-13T08:05:14.000Z</Time>
            <Position>
              <LatitudeDegrees>43.24474825523793697357177734375</LatitudeDegrees>
              <LongitudeDegrees>-1.99367011897265911102294921875</LongitudeDegrees>
            </Position>
            <AltitudeMeters>55.799999237060546875</AltitudeMeters>
            <DistanceMeters>NAN</DistanceMeters>
          </Trackpoint>
          <Trackpoint>
            <Time>2021-08-13T08:05:17.000Z</Time>
            <Position>
              <LatitudeDegrees>43.24468522332608699798583984375</LatitudeDegrees>
              <LongitudeDegrees>-1.99365503154695034027099609375</LongitudeDegrees>
            </Position>
            <AltitudeMeters>55.799999237060546875</AltitudeMeters>
            <DistanceMeters>NAN</DistanceMeters>
          </Trackpoint>
          <Trackpoint>
            <Time>2021-08-13T08:05:20.000Z</Time>
            <Position>
              <LatitudeDegrees>43.24462956748902797698974609375</LatitudeDegrees>
              <LongitudeDegrees>-1.993662826716899871826171875</LongitudeDegrees>
            </Position>
            <AltitudeMeters>56</AltitudeMeters>
            <DistanceMeters>NAN</DistanceMeters>
          </Trackpoint>
          <Trackpoint>
            <Time>2021-08-13T08:05:21.000Z</Time>
            <Position>
              <LatitudeDegrees>43.2446100376546382904052734375</LatitudeDegrees>
              <LongitudeDegrees>-1.993670873343944549560546875</LongitudeDegrees>
            </Position>
            <AltitudeMeters>56</AltitudeMeters>
            <DistanceMeters>NAN</DistanceMeters>
          </Trackpoint>
          <Trackpoint>
            <Time>2021-08-13T08:05:22.000Z</Time>
            <Position>
              <LatitudeDegrees>43.24459285475313663482666015625</LatitudeDegrees>
              <LongitudeDegrees>-1.99367590248584747314453125</LongitudeDegrees>
            </Position>
            <AltitudeMeters>56</AltitudeMeters>
            <DistanceMeters>NAN</DistanceMeters>
          </Trackpoint>
          <Trackpoint>
            <Time>2021-08-13T08:05:23.000Z</Time>
            <Position>
              <LatitudeDegrees>43.2445812039077281951904296875</LatitudeDegrees>
              <LongitudeDegrees>-1.9936792552471160888671875</LongitudeDegrees>
            </Position>
            <AltitudeMeters>56</AltitudeMeters>
            <DistanceMeters>NAN</DistanceMeters>
          </Trackpoint>
          <Trackpoint>
            <Time>2021-08-13T08:05:24.000Z</Time>
            <Position>
              <LatitudeDegrees>43.24457508511841297149658203125</LatitudeDegrees>
              <LongitudeDegrees>-1.99367866851389408111572265625</LongitudeDegrees>
            </Position>
            <AltitudeMeters>56.200000762939453125</AltitudeMeters>
            <DistanceMeters>NAN</DistanceMeters>
          </Trackpoint>
          <Trackpoint>
            <Time>2021-08-13T08:05:25.000Z</Time>
            <Position>
              <LatitudeDegrees>43.24457265436649322509765625</LatitudeDegrees>
              <LongitudeDegrees>-1.99367883615195751190185546875</LongitudeDegrees>
            </Position>
            <AltitudeMeters>56.200000762939453125</AltitudeMeters>
            <DistanceMeters>NAN</DistanceMeters>
          </Trackpoint>
          <Trackpoint>
            <Time>2021-08-13T08:05:40.000Z</Time>
            <Position>
              <LatitudeDegrees>43.24451758526265621185302734375</LatitudeDegrees>
              <LongitudeDegrees>-1.993689648807048797607421875</LongitudeDegrees>
            </Position>
            <AltitudeMeters>56.40000152587890625</AltitudeMeters>
            <DistanceMeters>NAN</DistanceMeters>
          </Trackpoint>
          <Trackpoint>
            <Time>2021-08-13T08:05:46.000Z</Time>
            <Position>
              <LatitudeDegrees>43.24441147036850452423095703125</LatitudeDegrees>
              <LongitudeDegrees>-1.99374857358634471893310546875</LongitudeDegrees>
            </Position>
            <AltitudeMeters>56.59999847412109375</AltitudeMeters>
            <DistanceMeters>NAN</DistanceMeters>
          </Trackpoint>
          <Trackpoint>
            <Time>2021-08-13T08:05:54.000Z</Time>
            <Position>
              <LatitudeDegrees>43.24423477984964847564697265625</LatitudeDegrees>
              <LongitudeDegrees>-1.99385116808116436004638671875</LongitudeDegrees>
            </Position>
            <AltitudeMeters>57</AltitudeMeters>
            <DistanceMeters>NAN</DistanceMeters>
          </Trackpoint>
          <Trackpoint>
            <Time>2021-08-13T08:05:56.000Z</Time>
            <Position>
              <LatitudeDegrees>43.2441897690296173095703125</LatitudeDegrees>
              <LongitudeDegrees>-1.9938750565052032470703125</LongitudeDegrees>
            </Position>
            <AltitudeMeters>57.200000762939453125</AltitudeMeters>
            <DistanceMeters>NAN</DistanceMeters>
          </Trackpoint>
          <Trackpoint>
            <Time>2021-08-13T08:06:02.000Z</Time>
            <Position>
              <LatitudeDegrees>43.2440642081201076507568359375</LatitudeDegrees>
              <LongitudeDegrees>-1.99396130628883838653564453125</LongitudeDegrees>
            </Position>
            <AltitudeMeters>58.40000152587890625</AltitudeMeters>
            <DistanceMeters>NAN</DistanceMeters>
          </Trackpoint>
          <Trackpoint>
            <Time>2021-08-13T08:06:05.000Z</Time>
            <Position>
              <LatitudeDegrees>43.24399589560925960540771484375</LatitudeDegrees>
              <LongitudeDegrees>-1.993996761739253997802734375</LongitudeDegrees>
            </Position>
            <AltitudeMeters>58.799999237060546875</AltitudeMeters>
            <DistanceMeters>NAN</DistanceMeters>
          </Trackpoint>
          <Trackpoint>
            <Time>2021-08-13T08:06:09.000Z</Time>
            <Position>
              <LatitudeDegrees>43.2438985817134380340576171875</LatitudeDegrees>
              <LongitudeDegrees>-1.99402190744876861572265625</LongitudeDegrees>
            </Position>
            <AltitudeMeters>59.59999847412109375</AltitudeMeters>
            <DistanceMeters>NAN</DistanceMeters>
          </Trackpoint>
          <Trackpoint>
            <Time>2021-08-13T08:06:10.000Z</Time>
            <Position>
              <LatitudeDegrees>43.2438741065561771392822265625</LatitudeDegrees>
              <LongitudeDegrees>-1.99403272010385990142822265625</LongitudeDegrees>
            </Position>
            <AltitudeMeters>59.799999237060546875</AltitudeMeters>
            <DistanceMeters>NAN</DistanceMeters>
          </Trackpoint>
          <Trackpoint>
            <Time>2021-08-13T08:06:11.000Z</Time>
            <Position>
              <LatitudeDegrees>43.2438504695892333984375</LatitudeDegrees>
              <LongitudeDegrees>-1.9940415211021900177001953125</LongitudeDegrees>
            </Position>
            <AltitudeMeters>60</AltitudeMeters>
            <DistanceMeters>NAN</DistanceMeters>
          </Trackpoint>
          <Trackpoint>
            <Time>2021-08-13T08:06:12.000Z</Time>
            <Position>
              <LatitudeDegrees>43.24382507242262363433837890625</LatitudeDegrees>
              <LongitudeDegrees>-1.994049064815044403076171875</LongitudeDegrees>
            </Position>
            <AltitudeMeters>60.200000762939453125</AltitudeMeters>
            <DistanceMeters>NAN</DistanceMeters>
          </Trackpoint>
          <Trackpoint>
            <Time>2021-08-13T08:06:13.000Z</Time>
            <Position>
              <LatitudeDegrees>43.24380143545567989349365234375</LatitudeDegrees>
              <LongitudeDegrees>-1.99405719526112079620361328125</LongitudeDegrees>
            </Position>
            <AltitudeMeters>60.40000152587890625</AltitudeMeters>
            <DistanceMeters>NAN</DistanceMeters>
          </Trackpoint>
          <Trackpoint>
            <Time>2021-08-13T08:06:14.000Z</Time>
            <Position>
              <LatitudeDegrees>43.24377763085067272186279296875</LatitudeDegrees>
              <LongitudeDegrees>-1.99406775645911693572998046875</LongitudeDegrees>
            </Position>
            <AltitudeMeters>60.59999847412109375</AltitudeMeters>
            <DistanceMeters>NAN</DistanceMeters>
          </Trackpoint>
          <Trackpoint>
            <Time>2021-08-13T08:06:15.000Z</Time>
            <Position>
              <LatitudeDegrees>43.24375516735017299652099609375</LatitudeDegrees>
              <LongitudeDegrees>-1.99408099986612796783447265625</LongitudeDegrees>
            </Position>
            <AltitudeMeters>60.799999237060546875</AltitudeMeters>
            <DistanceMeters>NAN</DistanceMeters>
          </Trackpoint>
          <Trackpoint>
            <Time>2021-08-13T08:06:16.000Z</Time>
            <Position>
              <LatitudeDegrees>43.24373538605868816375732421875</LatitudeDegrees>
              <LongitudeDegrees>-1.99409474618732929229736328125</LongitudeDegrees>
            </Position>
            <AltitudeMeters>61</AltitudeMeters>
            <DistanceMeters>NAN</DistanceMeters>
          </Trackpoint>
          <Trackpoint>
            <Time>2021-08-13T08:06:17.000Z</Time>
            <Position>
              <LatitudeDegrees>43.2437148503959178924560546875</LatitudeDegrees>
              <LongitudeDegrees>-1.99410346336662769317626953125</LongitudeDegrees>
            </Position>
            <AltitudeMeters>61.200000762939453125</AltitudeMeters>
            <DistanceMeters>NAN</DistanceMeters>
          </Trackpoint>
          <Trackpoint>
            <Time>2021-08-13T08:06:18.000Z</Time>
            <Position>
              <LatitudeDegrees>43.2436910457909107208251953125</LatitudeDegrees>
              <LongitudeDegrees>-1.9941015355288982391357421875</LongitudeDegrees>
            </Position>
            <AltitudeMeters>61.40000152587890625</AltitudeMeters>
            <DistanceMeters>NAN</DistanceMeters>
          </Trackpoint>
          <Trackpoint>
            <Time>2021-08-13T08:06:19.000Z</Time>
            <Position>
              <LatitudeDegrees>43.243667744100093841552734375</LatitudeDegrees>
              <LongitudeDegrees>-1.9941032119095325469970703125</LongitudeDegrees>
            </Position>
            <AltitudeMeters>61.40000152587890625</AltitudeMeters>
            <DistanceMeters>NAN</DistanceMeters>
          </Trackpoint>
          <Trackpoint>
            <Time>2021-08-13T08:06:20.000Z</Time>
            <Position>
              <LatitudeDegrees>43.2436479628086090087890625</LatitudeDegrees>
              <LongitudeDegrees>-1.99411452747881412506103515625</LongitudeDegrees>
            </Position>
            <AltitudeMeters>61.59999847412109375</AltitudeMeters>
            <DistanceMeters>NAN</DistanceMeters>
          </Trackpoint>
          <Trackpoint>
            <Time>2021-08-13T08:06:21.000Z</Time>
            <Position>
              <LatitudeDegrees>43.2436286844313144683837890625</LatitudeDegrees>
              <LongitudeDegrees>-1.99412944726645946502685546875</LongitudeDegrees>
            </Position>
            <AltitudeMeters>61.799999237060546875</AltitudeMeters>
            <DistanceMeters>NAN</DistanceMeters>
          </Trackpoint>
          <Trackpoint>
            <Time>2021-08-13T08:06:22.000Z</Time>
            <Position>
              <LatitudeDegrees>43.2436095736920833587646484375</LatitudeDegrees>
              <LongitudeDegrees>-1.99414386413991451263427734375</LongitudeDegrees>
            </Position>
            <AltitudeMeters>62</AltitudeMeters>
            <DistanceMeters>NAN</DistanceMeters>
          </Trackpoint>
          <Trackpoint>
            <Time>2021-08-13T08:06:23.000Z</Time>
            <Position>
              <LatitudeDegrees>43.24358937330543994903564453125</LatitudeDegrees>
              <LongitudeDegrees>-1.99415911920368671417236328125</LongitudeDegrees>
            </Position>
            <AltitudeMeters>62.40000152587890625</AltitudeMeters>
            <DistanceMeters>NAN</DistanceMeters>
          </Trackpoint>
          <Trackpoint>
            <Time>2021-08-13T08:06:24.000Z</Time>
            <Position>
              <LatitudeDegrees>43.24357026256620883941650390625</LatitudeDegrees>
              <LongitudeDegrees>-1.994172446429729461669921875</LongitudeDegrees>
            </Position>
            <AltitudeMeters>62.40000152587890625</AltitudeMeters>
            <DistanceMeters>NAN</DistanceMeters>
          </Trackpoint>
          <Trackpoint>
            <Time>2021-08-13T08:06:25.000Z</Time>
            <Position>
              <LatitudeDegrees>43.24355131946504116058349609375</LatitudeDegrees>
              <LongitudeDegrees>-1.99418745003640651702880859375</LongitudeDegrees>
            </Position>
            <AltitudeMeters>62.799999237060546875</AltitudeMeters>
            <DistanceMeters>NAN</DistanceMeters>
          </Trackpoint>
          <Trackpoint>
            <Time>2021-08-13T08:06:26.000Z</Time>
            <Position>
              <LatitudeDegrees>43.243529610335826873779296875</LatitudeDegrees>
              <LongitudeDegrees>-1.99420102871954441070556640625</LongitudeDegrees>
            </Position>
            <AltitudeMeters>62.799999237060546875</AltitudeMeters>
            <DistanceMeters>NAN</DistanceMeters>
          </Trackpoint>
          <Trackpoint>
            <Time>2021-08-13T08:06:27.000Z</Time>
            <Position>
              <LatitudeDegrees>43.24350924231112003326416015625</LatitudeDegrees>
              <LongitudeDegrees>-1.99421544559299945831298828125</LongitudeDegrees>
            </Position>
            <AltitudeMeters>63.200000762939453125</AltitudeMeters>
            <DistanceMeters>NAN</DistanceMeters>
          </Trackpoint>
          <Trackpoint>
            <Time>2021-08-13T08:06:28.000Z</Time>
            <Position>
              <LatitudeDegrees>43.24348962865769863128662109375</LatitudeDegrees>
              <LongitudeDegrees>-1.9942296110093593597412109375</LongitudeDegrees>
            </Position>
            <AltitudeMeters>63.40000152587890625</AltitudeMeters>
            <DistanceMeters>NAN</DistanceMeters>
          </Trackpoint>
          <Trackpoint>
            <Time>2021-08-13T08:06:29.000Z</Time>
            <Position>
              <LatitudeDegrees>43.24346833862364292144775390625</LatitudeDegrees>
              <LongitudeDegrees>-1.99424310587346553802490234375</LongitudeDegrees>
            </Position>
            <AltitudeMeters>63.40000152587890625</AltitudeMeters>
            <DistanceMeters>NAN</DistanceMeters>
          </Trackpoint>
          <Trackpoint>
            <Time>2021-08-13T08:06:30.000Z</Time>
            <Position>
              <LatitudeDegrees>43.2434467971324920654296875</LatitudeDegrees>
              <LongitudeDegrees>-1.994252242147922515869140625</LongitudeDegrees>
            </Position>
            <AltitudeMeters>63.59999847412109375</AltitudeMeters>
            <DistanceMeters>NAN</DistanceMeters>
          </Trackpoint>
          <Trackpoint>
            <Time>2021-08-13T08:06:31.000Z</Time>
            <Position>
              <LatitudeDegrees>43.2434258423745632171630859375</LatitudeDegrees>
              <LongitudeDegrees>-1.99426339007914066314697265625</LongitudeDegrees>
            </Position>
            <AltitudeMeters>63.59999847412109375</AltitudeMeters>
            <DistanceMeters>NAN</DistanceMeters>
          </Trackpoint>
          <Trackpoint>
            <Time>2021-08-13T08:06:32.000Z</Time>
            <Position>
              <LatitudeDegrees>43.243408910930156707763671875</LatitudeDegrees>
              <LongitudeDegrees>-1.9942792318761348724365234375</LongitudeDegrees>
            </Position>
            <AltitudeMeters>63.799999237060546875</AltitudeMeters>
            <DistanceMeters>NAN</DistanceMeters>
          </Trackpoint>
          <Trackpoint>
            <Time>2021-08-13T08:06:33.000Z</Time>
            <Position>
              <LatitudeDegrees>43.2433906383812427520751953125</LatitudeDegrees>
              <LongitudeDegrees>-1.99428920634090900421142578125</LongitudeDegrees>
            </Position>
            <AltitudeMeters>64</AltitudeMeters>
            <DistanceMeters>NAN</DistanceMeters>
          </Trackpoint>
          <Trackpoint>
            <Time>2021-08-13T08:06:34.000Z</Time>
            <Position>
              <LatitudeDegrees>43.24337211437523365020751953125</LatitudeDegrees>
              <LongitudeDegrees>-1.99429993517696857452392578125</LongitudeDegrees>
            </Position>
            <AltitudeMeters>64.1999969482421875</AltitudeMeters>
            <DistanceMeters>NAN</DistanceMeters>
          </Trackpoint>
          <Trackpoint>
            <Time>2021-08-13T08:06:35.000Z</Time>
            <Position>
              <LatitudeDegrees>43.24335484765470027923583984375</LatitudeDegrees>
              <LongitudeDegrees>-1.994311250746250152587890625</LongitudeDegrees>
            </Position>
            <AltitudeMeters>64.40000152587890625</AltitudeMeters>
            <DistanceMeters>NAN</DistanceMeters>
          </Trackpoint>
          <Trackpoint>
            <Time>2021-08-13T08:06:36.000Z</Time>
            <Position>
              <LatitudeDegrees>43.2433380000293254852294921875</LatitudeDegrees>
              <LongitudeDegrees>-1.9943241588771343231201171875</LongitudeDegrees>
            </Position>
            <AltitudeMeters>64.59999847412109375</AltitudeMeters>
            <DistanceMeters>NAN</DistanceMeters>
          </Trackpoint>
          <Trackpoint>
            <Time>2021-08-13T08:06:37.000Z</Time>
            <Position>
              <LatitudeDegrees>43.24332148768007755279541015625</LatitudeDegrees>
              <LongitudeDegrees>-1.9943368993699550628662109375</LongitudeDegrees>
            </Position>
            <AltitudeMeters>64.8000030517578125</AltitudeMeters>
            <DistanceMeters>NAN</DistanceMeters>
          </Trackpoint>
          <Trackpoint>
            <Time>2021-08-13T08:06:38.000Z</Time>
            <Position>
              <LatitudeDegrees>43.243302963674068450927734375</LatitudeDegrees>
              <LongitudeDegrees>-1.9943511486053466796875</LongitudeDegrees>
            </Position>
            <AltitudeMeters>64.8000030517578125</AltitudeMeters>
            <DistanceMeters>NAN</DistanceMeters>
          </Trackpoint>
          <Trackpoint>
            <Time>2021-08-13T08:06:39.000Z</Time>
            <Position>
              <LatitudeDegrees>43.24328385293483734130859375</LatitudeDegrees>
              <LongitudeDegrees>-1.994364559650421142578125</LongitudeDegrees>
            </Position>
            <AltitudeMeters>65.1999969482421875</AltitudeMeters>
            <DistanceMeters>NAN</DistanceMeters>
          </Trackpoint>
          <Trackpoint>
            <Time>2021-08-13T08:06:40.000Z</Time>
            <Position>
              <LatitudeDegrees>43.2432672567665576934814453125</LatitudeDegrees>
              <LongitudeDegrees>-1.99437553994357585906982421875</LongitudeDegrees>
            </Position>
            <AltitudeMeters>65.1999969482421875</AltitudeMeters>
            <DistanceMeters>NAN</DistanceMeters>
          </Trackpoint>
          <Trackpoint>
            <Time>2021-08-13T08:06:41.000Z</Time>
            <Position>
              <LatitudeDegrees>43.243250660598278045654296875</LatitudeDegrees>
              <LongitudeDegrees>-1.99438760988414287567138671875</LongitudeDegrees>
            </Position>
            <AltitudeMeters>65.40000152587890625</AltitudeMeters>
            <DistanceMeters>NAN</DistanceMeters>
          </Trackpoint>
          <Trackpoint>
            <Time>2021-08-13T08:06:42.000Z</Time>
            <Position>
              <LatitudeDegrees>43.24323423206806182861328125</LatitudeDegrees>
              <LongitudeDegrees>-1.99439900927245616912841796875</LongitudeDegrees>
            </Position>
            <AltitudeMeters>65.40000152587890625</AltitudeMeters>
            <DistanceMeters>NAN</DistanceMeters>
          </Trackpoint>
          <Trackpoint>
            <Time>2021-08-13T08:06:43.000Z</Time>
            <Position>
              <LatitudeDegrees>43.2432183064520359039306640625</LatitudeDegrees>
              <LongitudeDegrees>-1.994409151375293731689453125</LongitudeDegrees>
            </Position>
            <AltitudeMeters>65.59999847412109375</AltitudeMeters>
            <DistanceMeters>NAN</DistanceMeters>
          </Trackpoint>
          <Trackpoint>
            <Time>2021-08-13T08:06:44.000Z</Time>
            <Position>
              <LatitudeDegrees>43.2432015426456928253173828125</LatitudeDegrees>
              <LongitudeDegrees>-1.9944193772971630096435546875</LongitudeDegrees>
            </Position>
            <AltitudeMeters>65.8000030517578125</AltitudeMeters>
            <DistanceMeters>NAN</DistanceMeters>
          </Trackpoint>
          <Trackpoint>
            <Time>2021-08-13T08:06:45.000Z</Time>
            <Position>
              <LatitudeDegrees>43.24318301863968372344970703125</LatitudeDegrees>
              <LongitudeDegrees>-1.9944297708570957183837890625</LongitudeDegrees>
            </Position>
            <AltitudeMeters>66</AltitudeMeters>
            <DistanceMeters>NAN</DistanceMeters>
          </Trackpoint>
          <Trackpoint>
            <Time>2021-08-13T08:06:46.000Z</Time>
            <Position>
              <LatitudeDegrees>43.24316424317657947540283203125</LatitudeDegrees>
              <LongitudeDegrees>-1.9944394938647747039794921875</LongitudeDegrees>
            </Position>
            <AltitudeMeters>66.1999969482421875</AltitudeMeters>
            <DistanceMeters>NAN</DistanceMeters>
          </Trackpoint>
          <Trackpoint>
            <Time>2021-08-13T08:06:47.000Z</Time>
            <Position>
              <LatitudeDegrees>43.24314731173217296600341796875</LatitudeDegrees>
              <LongitudeDegrees>-1.99445080943405628204345703125</LongitudeDegrees>
            </Position>
            <AltitudeMeters>66.40000152587890625</AltitudeMeters>
            <DistanceMeters>NAN</DistanceMeters>
          </Trackpoint>
          <Trackpoint>
            <Time>2021-08-13T08:06:48.000Z</Time>
            <Position>
              <LatitudeDegrees>43.2431316375732421875</LatitudeDegrees>
              <LongitudeDegrees>-1.99446489103138446807861328125</LongitudeDegrees>
            </Position>
            <AltitudeMeters>66.59999847412109375</AltitudeMeters>
            <DistanceMeters>NAN</DistanceMeters>
          </Trackpoint>
          <Trackpoint>
            <Time>2021-08-13T08:06:49.000Z</Time>
            <Position>
              <LatitudeDegrees>43.24311797507107257843017578125</LatitudeDegrees>
              <LongitudeDegrees>-1.9944787211716175079345703125</LongitudeDegrees>
            </Position>
            <AltitudeMeters>66.8000030517578125</AltitudeMeters>
            <DistanceMeters>NAN</DistanceMeters>
          </Trackpoint>
          <Trackpoint>
            <Time>2021-08-13T08:06:50.000Z</Time>
            <Position>
              <LatitudeDegrees>43.24310280382633209228515625</LatitudeDegrees>
              <LongitudeDegrees>-1.99449037201702594757080078125</LongitudeDegrees>
            </Position>
            <AltitudeMeters>67</AltitudeMeters>
            <DistanceMeters>NAN</DistanceMeters>
          </Trackpoint>
          <Trackpoint>
            <Time>2021-08-13T08:06:51.000Z</Time>
            <Position>
              <LatitudeDegrees>43.24308645911514759063720703125</LatitudeDegrees>
              <LongitudeDegrees>-1.99450470507144927978515625</LongitudeDegrees>
            </Position>
            <AltitudeMeters>67</AltitudeMeters>
            <DistanceMeters>NAN</DistanceMeters>
          </Trackpoint>
          <Trackpoint>
            <Time>2021-08-13T08:06:52.000Z</Time>
            <Position>
              <LatitudeDegrees>43.2430694438517093658447265625</LatitudeDegrees>
              <LongitudeDegrees>-1.99451568536460399627685546875</LongitudeDegrees>
            </Position>
            <AltitudeMeters>67.1999969482421875</AltitudeMeters>
            <DistanceMeters>NAN</DistanceMeters>
          </Trackpoint>
          <Trackpoint>
            <Time>2021-08-13T08:06:53.000Z</Time>
            <Position>
              <LatitudeDegrees>43.24305209331214427947998046875</LatitudeDegrees>
              <LongitudeDegrees>-1.99452121742069721221923828125</LongitudeDegrees>
            </Position>
            <AltitudeMeters>67.40000152587890625</AltitudeMeters>
            <DistanceMeters>NAN</DistanceMeters>
          </Trackpoint>
          <Trackpoint>
            <Time>2021-08-13T08:06:54.000Z</Time>
            <Position>
              <LatitudeDegrees>43.24303382076323032379150390625</LatitudeDegrees>
              <LongitudeDegrees>-1.99453077279031276702880859375</LongitudeDegrees>
            </Position>
            <AltitudeMeters>67.40000152587890625</AltitudeMeters>
            <DistanceMeters>NAN</DistanceMeters>
          </Trackpoint>
          <Trackpoint>
            <Time>2021-08-13T08:06:55.000Z</Time>
            <Position>
              <LatitudeDegrees>43.2430157996714115142822265625</LatitudeDegrees>
              <LongitudeDegrees>-1.99454493820667266845703125</LongitudeDegrees>
            </Position>
            <AltitudeMeters>67.59999847412109375</AltitudeMeters>
            <DistanceMeters>NAN</DistanceMeters>
          </Trackpoint>
          <Trackpoint>
            <Time>2021-08-13T08:06:56.000Z</Time>
            <Position>
              <LatitudeDegrees>43.2429970242083072662353515625</LatitudeDegrees>
              <LongitudeDegrees>-1.9945571757853031158447265625</LongitudeDegrees>
            </Position>
            <AltitudeMeters>67.8000030517578125</AltitudeMeters>
            <DistanceMeters>NAN</DistanceMeters>
          </Trackpoint>
          <Trackpoint>
            <Time>2021-08-13T08:06:57.000Z</Time>
            <Position>
              <LatitudeDegrees>43.24297967366874217987060546875</LatitudeDegrees>
              <LongitudeDegrees>-1.9945685751736164093017578125</LongitudeDegrees>
            </Position>
            <AltitudeMeters>68</AltitudeMeters>
            <DistanceMeters>NAN</DistanceMeters>
          </Trackpoint>
          <Trackpoint>
            <Time>2021-08-13T08:06:58.000Z</Time>
            <Position>
              <LatitudeDegrees>43.24296207167208194732666015625</LatitudeDegrees>
              <LongitudeDegrees>-1.9945776276290416717529296875</LongitudeDegrees>
            </Position>
            <AltitudeMeters>68.1999969482421875</AltitudeMeters>
            <DistanceMeters>NAN</DistanceMeters>
          </Trackpoint>
          <Trackpoint>
            <Time>2021-08-13T08:06:59.000Z</Time>
            <Position>
              <LatitudeDegrees>43.24294597841799259185791015625</LatitudeDegrees>
              <LongitudeDegrees>-1.99458659626543521881103515625</LongitudeDegrees>
            </Position>
            <AltitudeMeters>68.40000152587890625</AltitudeMeters>
            <DistanceMeters>NAN</DistanceMeters>
          </Trackpoint>
          <Trackpoint>
            <Time>2021-08-13T08:07:00.000Z</Time>
            <Position>
              <LatitudeDegrees>43.24292686767876148223876953125</LatitudeDegrees>
              <LongitudeDegrees>-1.99459950439631938934326171875</LongitudeDegrees>
            </Position>
            <AltitudeMeters>68.59999847412109375</AltitudeMeters>
            <DistanceMeters>NAN</DistanceMeters>
          </Trackpoint>
          <Trackpoint>
            <Time>2021-08-13T08:07:01.000Z</Time>
            <Position>
              <LatitudeDegrees>43.2429058291018009185791015625</LatitudeDegrees>
              <LongitudeDegrees>-1.99461392126977443695068359375</LongitudeDegrees>
            </Position>
            <AltitudeMeters>68.8000030517578125</AltitudeMeters>
            <DistanceMeters>NAN</DistanceMeters>
          </Trackpoint>
          <Trackpoint>
            <Time>2021-08-13T08:07:02.000Z</Time>
            <Position>
              <LatitudeDegrees>43.24288680218160152435302734375</LatitudeDegrees>
              <LongitudeDegrees>-1.994625739753246307373046875</LongitudeDegrees>
            </Position>
            <AltitudeMeters>69</AltitudeMeters>
            <DistanceMeters>NAN</DistanceMeters>
          </Trackpoint>
          <Trackpoint>
            <Time>2021-08-13T08:07:03.000Z</Time>
            <Position>
              <LatitudeDegrees>43.24287121184170246124267578125</LatitudeDegrees>
              <LongitudeDegrees>-1.9946383126080036163330078125</LongitudeDegrees>
            </Position>
            <AltitudeMeters>69.1999969482421875</AltitudeMeters>
            <DistanceMeters>NAN</DistanceMeters>
          </Trackpoint>
          <Trackpoint>
            <Time>2021-08-13T08:07:04.000Z</Time>
            <Position>
              <LatitudeDegrees>43.2428552024066448211669921875</LatitudeDegrees>
              <LongitudeDegrees>-1.99465163983404636383056640625</LongitudeDegrees>
            </Position>
            <AltitudeMeters>69.1999969482421875</AltitudeMeters>
            <DistanceMeters>NAN</DistanceMeters>
          </Trackpoint>
          <Trackpoint>
            <Time>2021-08-13T08:07:05.000Z</Time>
            <Position>
              <LatitudeDegrees>43.24283835478127002716064453125</LatitudeDegrees>
              <LongitudeDegrees>-1.994663290679454803466796875</LongitudeDegrees>
            </Position>
            <AltitudeMeters>69.40000152587890625</AltitudeMeters>
            <DistanceMeters>NAN</DistanceMeters>
          </Trackpoint>
          <Trackpoint>
            <Time>2021-08-13T08:07:06.000Z</Time>
            <Position>
              <LatitudeDegrees>43.24282058514654636383056640625</LatitudeDegrees>
              <LongitudeDegrees>-1.99467645026743412017822265625</LongitudeDegrees>
            </Position>
            <AltitudeMeters>69.59999847412109375</AltitudeMeters>
            <DistanceMeters>NAN</DistanceMeters>
          </Trackpoint>
          <Trackpoint>
            <Time>2021-08-13T08:07:07.000Z</Time>
            <Position>
              <LatitudeDegrees>43.24280214495956897735595703125</LatitudeDegrees>
              <LongitudeDegrees>-1.99468835256993770599365234375</LongitudeDegrees>
            </Position>
            <AltitudeMeters>69.8000030517578125</AltitudeMeters>
            <DistanceMeters>NAN</DistanceMeters>
          </Trackpoint>
          <Trackpoint>
            <Time>2021-08-13T08:07:08.000Z</Time>
            <Position>
              <LatitudeDegrees>43.2427858002483844757080078125</LatitudeDegrees>
              <LongitudeDegrees>-1.99469774030148983001708984375</LongitudeDegrees>
            </Position>
            <AltitudeMeters>70</AltitudeMeters>
            <DistanceMeters>NAN</DistanceMeters>
          </Trackpoint>
          <Trackpoint>
            <Time>2021-08-13T08:07:09.000Z</Time>
            <Position>
              <LatitudeDegrees>43.24277079664170742034912109375</LatitudeDegrees>
              <LongitudeDegrees>-1.99470612220466136932373046875</LongitudeDegrees>
            </Position>
            <AltitudeMeters>70.1999969482421875</AltitudeMeters>
            <DistanceMeters>NAN</DistanceMeters>
          </Trackpoint>
          <Trackpoint>
            <Time>2021-08-13T08:07:10.000Z</Time>
            <Position>
              <LatitudeDegrees>43.24275319464504718780517578125</LatitudeDegrees>
              <LongitudeDegrees>-1.99471299536526203155517578125</LongitudeDegrees>
            </Position>
            <AltitudeMeters>70.1999969482421875</AltitudeMeters>
            <DistanceMeters>NAN</DistanceMeters>
          </Trackpoint>
          <Trackpoint>
            <Time>2021-08-13T08:07:11.000Z</Time>
            <Position>
              <LatitudeDegrees>43.2427365146577358245849609375</LatitudeDegrees>
              <LongitudeDegrees>-1.99471400119364261627197265625</LongitudeDegrees>
            </Position>
            <AltitudeMeters>70.40000152587890625</AltitudeMeters>
            <DistanceMeters>NAN</DistanceMeters>
          </Trackpoint>
          <Trackpoint>
            <Time>2021-08-13T08:07:12.000Z</Time>
            <Position>
              <LatitudeDegrees>43.2427190802991390228271484375</LatitudeDegrees>
              <LongitudeDegrees>-1.99471467174589633941650390625</LongitudeDegrees>
            </Position>
            <AltitudeMeters>70.40000152587890625</AltitudeMeters>
            <DistanceMeters>NAN</DistanceMeters>
          </Trackpoint>
          <Trackpoint>
            <Time>2021-08-13T08:07:13.000Z</Time>
            <Position>
              <LatitudeDegrees>43.24270047247409820556640625</LatitudeDegrees>
              <LongitudeDegrees>-1.99471517466008663177490234375</LongitudeDegrees>
            </Position>
            <AltitudeMeters>70.59999847412109375</AltitudeMeters>
            <DistanceMeters>NAN</DistanceMeters>
          </Trackpoint>
          <Trackpoint>
            <Time>2021-08-13T08:07:14.000Z</Time>
            <Position>
              <LatitudeDegrees>43.24268211610615253448486328125</LatitudeDegrees>
              <LongitudeDegrees>-1.99471651576459407806396484375</LongitudeDegrees>
            </Position>
            <AltitudeMeters>70.59999847412109375</AltitudeMeters>
            <DistanceMeters>NAN</DistanceMeters>
          </Trackpoint>
          <Trackpoint>
            <Time>2021-08-13T08:07:15.000Z</Time>
            <Position>
              <LatitudeDegrees>43.24266292154788970947265625</LatitudeDegrees>
              <LongitudeDegrees>-1.99471718631684780120849609375</LongitudeDegrees>
            </Position>
            <AltitudeMeters>70.8000030517578125</AltitudeMeters>
            <DistanceMeters>NAN</DistanceMeters>
          </Trackpoint>
          <Trackpoint>
            <Time>2021-08-13T08:07:16.000Z</Time>
            <Position>
              <LatitudeDegrees>43.2426446489989757537841796875</LatitudeDegrees>
              <LongitudeDegrees>-1.9947157613933086395263671875</LongitudeDegrees>
            </Position>
            <AltitudeMeters>71</AltitudeMeters>
            <DistanceMeters>NAN</DistanceMeters>
          </Trackpoint>
          <Trackpoint>
            <Time>2021-08-13T08:07:17.000Z</Time>
            <Position>
              <LatitudeDegrees>43.2426248677074909210205078125</LatitudeDegrees>
              <LongitudeDegrees>-1.994714252650737762451171875</LongitudeDegrees>
            </Position>
            <AltitudeMeters>71.40000152587890625</AltitudeMeters>
            <DistanceMeters>NAN</DistanceMeters>
          </Trackpoint>
          <Trackpoint>
            <Time>2021-08-13T08:07:18.000Z</Time>
            <Position>
              <LatitudeDegrees>43.24260617606341838836669921875</LatitudeDegrees>
              <LongitudeDegrees>-1.994715593755245208740234375</LongitudeDegrees>
            </Position>
            <AltitudeMeters>71.40000152587890625</AltitudeMeters>
            <DistanceMeters>NAN</DistanceMeters>
          </Trackpoint>
          <Trackpoint>
            <Time>2021-08-13T08:07:19.000Z</Time>
            <Position>
              <LatitudeDegrees>43.2425913400948047637939453125</LatitudeDegrees>
              <LongitudeDegrees>-1.99472062289714813232421875</LongitudeDegrees>
            </Position>
            <AltitudeMeters>71.59999847412109375</AltitudeMeters>
            <DistanceMeters>NAN</DistanceMeters>
          </Trackpoint>
          <Trackpoint>
            <Time>2021-08-13T08:07:20.000Z</Time>
            <Position>
              <LatitudeDegrees>43.242576755583286285400390625</LatitudeDegrees>
              <LongitudeDegrees>-1.99473395012319087982177734375</LongitudeDegrees>
            </Position>
            <AltitudeMeters>71.59999847412109375</AltitudeMeters>
            <DistanceMeters>NAN</DistanceMeters>
          </Trackpoint>
          <Trackpoint>
            <Time>2021-08-13T08:07:21.000Z</Time>
            <Position>
              <LatitudeDegrees>43.2425631769001483917236328125</LatitudeDegrees>
              <LongitudeDegrees>-1.99475423432886600494384765625</LongitudeDegrees>
            </Position>
            <AltitudeMeters>71.8000030517578125</AltitudeMeters>
            <DistanceMeters>NAN</DistanceMeters>
          </Trackpoint>
          <Trackpoint>
            <Time>2021-08-13T08:07:22.000Z</Time>
            <Position>
              <LatitudeDegrees>43.24255119077861309051513671875</LatitudeDegrees>
              <LongitudeDegrees>-1.99477753601968288421630859375</LongitudeDegrees>
            </Position>
            <AltitudeMeters>71.8000030517578125</AltitudeMeters>
            <DistanceMeters>NAN</DistanceMeters>
          </Trackpoint>
          <Trackpoint>
            <Time>2021-08-13T08:07:23.000Z</Time>
            <Position>
              <LatitudeDegrees>43.2425402104854583740234375</LatitudeDegrees>
              <LongitudeDegrees>-1.9947999157011508941650390625</LongitudeDegrees>
            </Position>
            <AltitudeMeters>72</AltitudeMeters>
            <DistanceMeters>NAN</DistanceMeters>
          </Trackpoint>
          <Trackpoint>
            <Time>2021-08-13T08:07:24.000Z</Time>
            <Position>
              <LatitudeDegrees>43.24252772144973278045654296875</LatitudeDegrees>
              <LongitudeDegrees>-1.994821541011333465576171875</LongitudeDegrees>
            </Position>
            <AltitudeMeters>72.1999969482421875</AltitudeMeters>
            <DistanceMeters>NAN</DistanceMeters>
          </Trackpoint>
          <Trackpoint>
            <Time>2021-08-13T08:07:25.000Z</Time>
            <Position>
              <LatitudeDegrees>43.24251565150916576385498046875</LatitudeDegrees>
              <LongitudeDegrees>-1.99483905918896198272705078125</LongitudeDegrees>
            </Position>
            <AltitudeMeters>72.40000152587890625</AltitudeMeters>
            <DistanceMeters>NAN</DistanceMeters>
          </Trackpoint>
          <Trackpoint>
            <Time>2021-08-13T08:07:26.000Z</Time>
            <Position>
              <LatitudeDegrees>43.2425034977495670318603515625</LatitudeDegrees>
              <LongitudeDegrees>-1.9948542304337024688720703125</LongitudeDegrees>
            </Position>
            <AltitudeMeters>72.59999847412109375</AltitudeMeters>
            <DistanceMeters>NAN</DistanceMeters>
          </Trackpoint>
          <Trackpoint>
            <Time>2021-08-13T08:07:27.000Z</Time>
            <Position>
              <LatitudeDegrees>43.2424892485141754150390625</LatitudeDegrees>
              <LongitudeDegrees>-1.99487091042101383209228515625</LongitudeDegrees>
            </Position>
            <AltitudeMeters>72.59999847412109375</AltitudeMeters>
            <DistanceMeters>NAN</DistanceMeters>
          </Trackpoint>
          <Trackpoint>
            <Time>2021-08-13T08:07:28.000Z</Time>
            <Position>
              <LatitudeDegrees>43.24247650802135467529296875</LatitudeDegrees>
              <LongitudeDegrees>-1.99488096870481967926025390625</LongitudeDegrees>
            </Position>
            <AltitudeMeters>72.8000030517578125</AltitudeMeters>
            <DistanceMeters>NAN</DistanceMeters>
          </Trackpoint>
          <Trackpoint>
            <Time>2021-08-13T08:07:29.000Z</Time>
            <Position>
              <LatitudeDegrees>43.24245915748178958892822265625</LatitudeDegrees>
              <LongitudeDegrees>-1.9948874227702617645263671875</LongitudeDegrees>
            </Position>
            <AltitudeMeters>73</AltitudeMeters>
            <DistanceMeters>NAN</DistanceMeters>
          </Trackpoint>
          <Trackpoint>
            <Time>2021-08-13T08:07:30.000Z</Time>
            <Position>
              <LatitudeDegrees>43.24244256131350994110107421875</LatitudeDegrees>
              <LongitudeDegrees>-1.99489404447376728057861328125</LongitudeDegrees>
            </Position>
            <AltitudeMeters>73</AltitudeMeters>
            <DistanceMeters>NAN</DistanceMeters>
          </Trackpoint>
          <Trackpoint>
            <Time>2021-08-13T08:07:31.000Z</Time>
            <Position>
              <LatitudeDegrees>43.2424297370016574859619140625</LatitudeDegrees>
              <LongitudeDegrees>-1.9949045218527317047119140625</LongitudeDegrees>
            </Position>
            <AltitudeMeters>73.1999969482421875</AltitudeMeters>
            <DistanceMeters>NAN</DistanceMeters>
          </Trackpoint>
          <Trackpoint>
            <Time>2021-08-13T08:07:32.000Z</Time>
            <Position>
              <LatitudeDegrees>43.24241540394723415374755859375</LatitudeDegrees>
              <LongitudeDegrees>-1.9949165917932987213134765625</LongitudeDegrees>
            </Position>
            <AltitudeMeters>73.1999969482421875</AltitudeMeters>
            <DistanceMeters>NAN</DistanceMeters>
          </Trackpoint>
          <Trackpoint>
            <Time>2021-08-13T08:07:33.000Z</Time>
            <Position>
              <LatitudeDegrees>43.2424019090831279754638671875</LatitudeDegrees>
              <LongitudeDegrees>-1.9949276559054851531982421875</LongitudeDegrees>
            </Position>
            <AltitudeMeters>73.40000152587890625</AltitudeMeters>
            <DistanceMeters>NAN</DistanceMeters>
          </Trackpoint>
          <Trackpoint>
            <Time>2021-08-13T08:07:34.000Z</Time>
            <Position>
              <LatitudeDegrees>43.24239025823771953582763671875</LatitudeDegrees>
              <LongitudeDegrees>-1.99493712745606899261474609375</LongitudeDegrees>
            </Position>
            <AltitudeMeters>73.40000152587890625</AltitudeMeters>
            <DistanceMeters>NAN</DistanceMeters>
          </Trackpoint>
          <Trackpoint>
            <Time>2021-08-13T08:07:35.000Z</Time>
            <Position>
              <LatitudeDegrees>43.242378942668437957763671875</LatitudeDegrees>
              <LongitudeDegrees>-1.99494685046374797821044921875</LongitudeDegrees>
            </Position>
            <AltitudeMeters>73.8000030517578125</AltitudeMeters>
            <DistanceMeters>NAN</DistanceMeters>
          </Trackpoint>
          <Trackpoint>
            <Time>2021-08-13T08:07:36.000Z</Time>
            <Position>
              <LatitudeDegrees>43.24236578308045864105224609375</LatitudeDegrees>
              <LongitudeDegrees>-1.99495573528110980987548828125</LongitudeDegrees>
            </Position>
            <AltitudeMeters>73.8000030517578125</AltitudeMeters>
            <DistanceMeters>NAN</DistanceMeters>
          </Trackpoint>
          <Trackpoint>
            <Time>2021-08-13T08:07:37.000Z</Time>
            <Position>
              <LatitudeDegrees>43.24235522188246250152587890625</LatitudeDegrees>
              <LongitudeDegrees>-1.99496009387075901031494140625</LongitudeDegrees>
            </Position>
            <AltitudeMeters>74</AltitudeMeters>
            <DistanceMeters>NAN</DistanceMeters>
          </Trackpoint>
          <Trackpoint>
            <Time>2021-08-13T08:07:38.000Z</Time>
            <Position>
              <LatitudeDegrees>43.2423482649028301239013671875</LatitudeDegrees>
              <LongitudeDegrees>-1.99495824985206127166748046875</LongitudeDegrees>
            </Position>
            <AltitudeMeters>74.1999969482421875</AltitudeMeters>
            <DistanceMeters>NAN</DistanceMeters>
          </Trackpoint>
          <Trackpoint>
            <Time>2021-08-13T08:07:40.000Z</Time>
            <Position>
              <LatitudeDegrees>43.2423452474176883697509765625</LatitudeDegrees>
              <LongitudeDegrees>-1.994954310357570648193359375</LongitudeDegrees>
            </Position>
            <AltitudeMeters>74.1999969482421875</AltitudeMeters>
            <DistanceMeters>NAN</DistanceMeters>
          </Trackpoint>
          <Trackpoint>
            <Time>2021-08-13T08:07:56.000Z</Time>
            <Position>
              <LatitudeDegrees>43.24233862571418285369873046875</LatitudeDegrees>
              <LongitudeDegrees>-1.9949578307569026947021484375</LongitudeDegrees>
            </Position>
            <AltitudeMeters>74.40000152587890625</AltitudeMeters>
            <DistanceMeters>NAN</DistanceMeters>
          </Trackpoint>
          <Trackpoint>
            <Time>2021-08-13T08:07:57.000Z</Time>
            <Position>
              <LatitudeDegrees>43.24233644641935825347900390625</LatitudeDegrees>
              <LongitudeDegrees>-1.99495858512818813323974609375</LongitudeDegrees>
            </Position>
            <AltitudeMeters>74.40000152587890625</AltitudeMeters>
            <DistanceMeters>NAN</DistanceMeters>
          </Trackpoint>
          <Trackpoint>
            <Time>2021-08-13T08:08:01.000Z</Time>
            <Position>
              <LatitudeDegrees>43.242262266576290130615234375</LatitudeDegrees>
              <LongitudeDegrees>-1.9950151629745960235595703125</LongitudeDegrees>
            </Position>
            <AltitudeMeters>74.40000152587890625</AltitudeMeters>
            <DistanceMeters>NAN</DistanceMeters>
          </Trackpoint>
          <Trackpoint>
            <Time>2021-08-13T08:08:03.000Z</Time>
            <Position>
              <LatitudeDegrees>43.24221608228981494903564453125</LatitudeDegrees>
              <LongitudeDegrees>-1.9950310885906219482421875</LongitudeDegrees>
            </Position>
            <AltitudeMeters>74.59999847412109375</AltitudeMeters>
            <DistanceMeters>NAN</DistanceMeters>
          </Trackpoint>
          <Trackpoint>
            <Time>2021-08-13T08:08:04.000Z</Time>
            <Position>
              <LatitudeDegrees>43.24219127185642719268798828125</LatitudeDegrees>
              <LongitudeDegrees>-1.99504240415990352630615234375</LongitudeDegrees>
            </Position>
            <AltitudeMeters>74.59999847412109375</AltitudeMeters>
            <DistanceMeters>NAN</DistanceMeters>
          </Trackpoint>
          <Trackpoint>
            <Time>2021-08-13T08:08:05.000Z</Time>
            <Position>
              <LatitudeDegrees>43.24216713197529315948486328125</LatitudeDegrees>
              <LongitudeDegrees>-1.99505095370113849639892578125</LongitudeDegrees>
            </Position>
            <AltitudeMeters>74.59999847412109375</AltitudeMeters>
            <DistanceMeters>NAN</DistanceMeters>
          </Trackpoint>
          <Trackpoint>
            <Time>2021-08-13T08:08:08.000Z</Time>
            <Position>
              <LatitudeDegrees>43.24209655635058879852294921875</LatitudeDegrees>
              <LongitudeDegrees>-1.9950708188116550445556640625</LongitudeDegrees>
            </Position>
            <AltitudeMeters>74.8000030517578125</AltitudeMeters>
            <DistanceMeters>NAN</DistanceMeters>
          </Trackpoint>
          <Trackpoint>
            <Time>2021-08-13T08:08:11.000Z</Time>
            <Position>
              <LatitudeDegrees>43.24203260242938995361328125</LatitudeDegrees>
              <LongitudeDegrees>-1.9950869120657444000244140625</LongitudeDegrees>
            </Position>
            <AltitudeMeters>75.59999847412109375</AltitudeMeters>
            <DistanceMeters>NAN</DistanceMeters>
          </Trackpoint>
          <Trackpoint>
            <Time>2021-08-13T08:08:12.000Z</Time>
            <Position>
              <LatitudeDegrees>43.242012150585651397705078125</LatitudeDegrees>
              <LongitudeDegrees>-1.99509537778794765472412109375</LongitudeDegrees>
            </Position>
            <AltitudeMeters>75.8000030517578125</AltitudeMeters>
            <DistanceMeters>NAN</DistanceMeters>
          </Trackpoint>
          <Trackpoint>
            <Time>2021-08-13T08:08:13.000Z</Time>
            <Position>
              <LatitudeDegrees>43.2419925369322299957275390625</LatitudeDegrees>
              <LongitudeDegrees>-1.99510241858661174774169921875</LongitudeDegrees>
            </Position>
            <AltitudeMeters>75.8000030517578125</AltitudeMeters>
            <DistanceMeters>NAN</DistanceMeters>
          </Trackpoint>
          <Trackpoint>
            <Time>2021-08-13T08:08:14.000Z</Time>
            <Position>
              <LatitudeDegrees>43.24197032488882541656494140625</LatitudeDegrees>
              <LongitudeDegrees>-1.99510912410914897918701171875</LongitudeDegrees>
            </Position>
            <AltitudeMeters>76</AltitudeMeters>
            <DistanceMeters>NAN</DistanceMeters>
          </Trackpoint>
          <Trackpoint>
            <Time>2021-08-13T08:08:18.000Z</Time>
            <Position>
              <LatitudeDegrees>43.241874687373638153076171875</LatitudeDegrees>
              <LongitudeDegrees>-1.99512186460196971893310546875</LongitudeDegrees>
            </Position>
            <AltitudeMeters>77</AltitudeMeters>
            <DistanceMeters>NAN</DistanceMeters>
          </Trackpoint>
          <Trackpoint>
            <Time>2021-08-13T08:08:19.000Z</Time>
            <Position>
              <LatitudeDegrees>43.2418500445783138275146484375</LatitudeDegrees>
              <LongitudeDegrees>-1.9951291568577289581298828125</LongitudeDegrees>
            </Position>
            <AltitudeMeters>77</AltitudeMeters>
            <DistanceMeters>NAN</DistanceMeters>
          </Trackpoint>
          <Trackpoint>
            <Time>2021-08-13T08:08:22.000Z</Time>
            <Position>
              <LatitudeDegrees>43.24177569709718227386474609375</LatitudeDegrees>
              <LongitudeDegrees>-1.99514575302600860595703125</LongitudeDegrees>
            </Position>
            <AltitudeMeters>77.8000030517578125</AltitudeMeters>
            <DistanceMeters>NAN</DistanceMeters>
          </Trackpoint>
          <Trackpoint>
            <Time>2021-08-13T08:08:23.000Z</Time>
            <Position>
              <LatitudeDegrees>43.2417521439492702484130859375</LatitudeDegrees>
              <LongitudeDegrees>-1.99514986015856266021728515625</LongitudeDegrees>
            </Position>
            <AltitudeMeters>78</AltitudeMeters>
            <DistanceMeters>NAN</DistanceMeters>
          </Trackpoint>
          <Trackpoint>
            <Time>2021-08-13T08:08:24.000Z</Time>
            <Position>
              <LatitudeDegrees>43.24172817170619964599609375</LatitudeDegrees>
              <LongitudeDegrees>-1.99515522457659244537353515625</LongitudeDegrees>
            </Position>
            <AltitudeMeters>78.1999969482421875</AltitudeMeters>
            <DistanceMeters>NAN</DistanceMeters>
          </Trackpoint>
          <Trackpoint>
            <Time>2021-08-13T08:08:25.000Z</Time>
            <Position>
              <LatitudeDegrees>43.24170260690152645111083984375</LatitudeDegrees>
              <LongitudeDegrees>-1.99516075663268566131591796875</LongitudeDegrees>
            </Position>
            <AltitudeMeters>78.40000152587890625</AltitudeMeters>
            <DistanceMeters>NAN</DistanceMeters>
          </Trackpoint>
          <Trackpoint>
            <Time>2021-08-13T08:08:26.000Z</Time>
            <Position>
              <LatitudeDegrees>43.2416763715445995330810546875</LatitudeDegrees>
              <LongitudeDegrees>-1.9951690547168254852294921875</LongitudeDegrees>
            </Position>
            <AltitudeMeters>78.40000152587890625</AltitudeMeters>
            <DistanceMeters>NAN</DistanceMeters>
          </Trackpoint>
          <Trackpoint>
            <Time>2021-08-13T08:08:27.000Z</Time>
            <Position>
              <LatitudeDegrees>43.2416482083499431610107421875</LatitudeDegrees>
              <LongitudeDegrees>-1.995175592601299285888671875</LongitudeDegrees>
            </Position>
            <AltitudeMeters>78.59999847412109375</AltitudeMeters>
            <DistanceMeters>NAN</DistanceMeters>
          </Trackpoint>
          <Trackpoint>
            <Time>2021-08-13T08:08:28.000Z</Time>
            <Position>
              <LatitudeDegrees>43.24162356555461883544921875</LatitudeDegrees>
              <LongitudeDegrees>-1.99518204666674137115478515625</LongitudeDegrees>
            </Position>
            <AltitudeMeters>78.59999847412109375</AltitudeMeters>
            <DistanceMeters>NAN</DistanceMeters>
          </Trackpoint>
          <Trackpoint>
            <Time>2021-08-13T08:08:29.000Z</Time>
            <Position>
              <LatitudeDegrees>43.2416009344160556793212890625</LatitudeDegrees>
              <LongitudeDegrees>-1.99518690817058086395263671875</LongitudeDegrees>
            </Position>
            <AltitudeMeters>78.8000030517578125</AltitudeMeters>
            <DistanceMeters>NAN</DistanceMeters>
          </Trackpoint>
          <Trackpoint>
            <Time>2021-08-13T08:08:30.000Z</Time>
            <Position>
              <LatitudeDegrees>43.24157637543976306915283203125</LatitudeDegrees>
              <LongitudeDegrees>-1.9951935298740863800048828125</LongitudeDegrees>
            </Position>
            <AltitudeMeters>79</AltitudeMeters>
            <DistanceMeters>NAN</DistanceMeters>
          </Trackpoint>
          <Trackpoint>
            <Time>2021-08-13T08:08:31.000Z</Time>
            <Position>
              <LatitudeDegrees>43.2415526546537876129150390625</LatitudeDegrees>
              <LongitudeDegrees>-1.99520015157759189605712890625</LongitudeDegrees>
            </Position>
            <AltitudeMeters>79.1999969482421875</AltitudeMeters>
            <DistanceMeters>NAN</DistanceMeters>
          </Trackpoint>
          <Trackpoint>
            <Time>2021-08-13T08:08:32.000Z</Time>
            <Position>
              <LatitudeDegrees>43.24152893386781215667724609375</LatitudeDegrees>
              <LongitudeDegrees>-1.9952094554901123046875</LongitudeDegrees>
            </Position>
            <AltitudeMeters>79.40000152587890625</AltitudeMeters>
            <DistanceMeters>NAN</DistanceMeters>
          </Trackpoint>
          <Trackpoint>
            <Time>2021-08-13T08:08:33.000Z</Time>
            <Position>
              <LatitudeDegrees>43.24150563217699527740478515625</LatitudeDegrees>
              <LongitudeDegrees>-1.9952161610126495361328125</LongitudeDegrees>
            </Position>
            <AltitudeMeters>79.40000152587890625</AltitudeMeters>
            <DistanceMeters>NAN</DistanceMeters>
          </Trackpoint>
          <Trackpoint>
            <Time>2021-08-13T08:08:34.000Z</Time>
            <Position>
              <LatitudeDegrees>43.24148048646748065948486328125</LatitudeDegrees>
              <LongitudeDegrees>-1.99522311799228191375732421875</LongitudeDegrees>
            </Position>
            <AltitudeMeters>79.40000152587890625</AltitudeMeters>
            <DistanceMeters>NAN</DistanceMeters>
          </Trackpoint>
          <Trackpoint>
            <Time>2021-08-13T08:08:35.000Z</Time>
            <Position>
              <LatitudeDegrees>43.24145651422441005706787109375</LatitudeDegrees>
              <LongitudeDegrees>-1.99522948823869228363037109375</LongitudeDegrees>
            </Position>
            <AltitudeMeters>79.59999847412109375</AltitudeMeters>
            <DistanceMeters>NAN</DistanceMeters>
          </Trackpoint>
          <Trackpoint>
            <Time>2021-08-13T08:08:36.000Z</Time>
            <Position>
              <LatitudeDegrees>43.2414332963526248931884765625</LatitudeDegrees>
              <LongitudeDegrees>-1.99523753486573696136474609375</LongitudeDegrees>
            </Position>
            <AltitudeMeters>79.8000030517578125</AltitudeMeters>
            <DistanceMeters>NAN</DistanceMeters>
          </Trackpoint>
          <Trackpoint>
            <Time>2021-08-13T08:08:37.000Z</Time>
            <Position>
              <LatitudeDegrees>43.2414088211953639984130859375</LatitudeDegrees>
              <LongitudeDegrees>-1.99524759314954280853271484375</LongitudeDegrees>
            </Position>
            <AltitudeMeters>79.8000030517578125</AltitudeMeters>
            <DistanceMeters>NAN</DistanceMeters>
          </Trackpoint>
          <Trackpoint>
            <Time>2021-08-13T08:08:38.000Z</Time>
            <Position>
              <LatitudeDegrees>43.24138409458100795745849609375</LatitudeDegrees>
              <LongitudeDegrees>-1.99525798670947551727294921875</LongitudeDegrees>
            </Position>
            <AltitudeMeters>80</AltitudeMeters>
            <DistanceMeters>NAN</DistanceMeters>
          </Trackpoint>
          <Trackpoint>
            <Time>2021-08-13T08:08:39.000Z</Time>
            <Position>
              <LatitudeDegrees>43.2413592003285884857177734375</LatitudeDegrees>
              <LongitudeDegrees>-1.99526536278426647186279296875</LongitudeDegrees>
            </Position>
            <AltitudeMeters>80.1999969482421875</AltitudeMeters>
            <DistanceMeters>NAN</DistanceMeters>
          </Trackpoint>
          <Trackpoint>
            <Time>2021-08-13T08:08:40.000Z</Time>
            <Position>
              <LatitudeDegrees>43.2413333840668201446533203125</LatitudeDegrees>
              <LongitudeDegrees>-1.99527340941131114959716796875</LongitudeDegrees>
            </Position>
            <AltitudeMeters>80.1999969482421875</AltitudeMeters>
            <DistanceMeters>NAN</DistanceMeters>
          </Trackpoint>
          <Trackpoint>
            <Time>2021-08-13T08:08:41.000Z</Time>
            <Position>
              <LatitudeDegrees>43.24131050147116184234619140625</LatitudeDegrees>
              <LongitudeDegrees>-1.99528522789478302001953125</LongitudeDegrees>
            </Position>
            <AltitudeMeters>80.40000152587890625</AltitudeMeters>
            <DistanceMeters>NAN</DistanceMeters>
          </Trackpoint>
          <Trackpoint>
            <Time>2021-08-13T08:08:42.000Z</Time>
            <Position>
              <LatitudeDegrees>43.24128904379904270172119140625</LatitudeDegrees>
              <LongitudeDegrees>-1.9952937774360179901123046875</LongitudeDegrees>
            </Position>
            <AltitudeMeters>80.59999847412109375</AltitudeMeters>
            <DistanceMeters>NAN</DistanceMeters>
          </Trackpoint>
          <Trackpoint>
            <Time>2021-08-13T08:08:43.000Z</Time>
            <Position>
              <LatitudeDegrees>43.2412669993937015533447265625</LatitudeDegrees>
              <LongitudeDegrees>-1.995300985872745513916015625</LongitudeDegrees>
            </Position>
            <AltitudeMeters>80.8000030517578125</AltitudeMeters>
            <DistanceMeters>NAN</DistanceMeters>
          </Trackpoint>
          <Trackpoint>
            <Time>2021-08-13T08:08:44.000Z</Time>
            <Position>
              <LatitudeDegrees>43.24124428443610668182373046875</LatitudeDegrees>
              <LongitudeDegrees>-1.9953073561191558837890625</LongitudeDegrees>
            </Position>
            <AltitudeMeters>81</AltitudeMeters>
            <DistanceMeters>NAN</DistanceMeters>
          </Trackpoint>
          <Trackpoint>
            <Time>2021-08-13T08:08:45.000Z</Time>
            <Position>
              <LatitudeDegrees>43.2412220723927021026611328125</LatitudeDegrees>
              <LongitudeDegrees>-1.9953138940036296844482421875</LongitudeDegrees>
            </Position>
            <AltitudeMeters>81</AltitudeMeters>
            <DistanceMeters>NAN</DistanceMeters>
          </Trackpoint>
          <Trackpoint>
            <Time>2021-08-13T08:08:46.000Z</Time>
            <Position>
              <LatitudeDegrees>43.24120111763477325439453125</LatitudeDegrees>
              <LongitudeDegrees>-1.99531950987875461578369140625</LongitudeDegrees>
            </Position>
            <AltitudeMeters>81.1999969482421875</AltitudeMeters>
            <DistanceMeters>NAN</DistanceMeters>
          </Trackpoint>
          <Trackpoint>
            <Time>2021-08-13T08:08:47.000Z</Time>
            <Position>
              <LatitudeDegrees>43.24117806740105152130126953125</LatitudeDegrees>
              <LongitudeDegrees>-1.99533107690513134002685546875</LongitudeDegrees>
            </Position>
            <AltitudeMeters>81.40000152587890625</AltitudeMeters>
            <DistanceMeters>NAN</DistanceMeters>
          </Trackpoint>
          <Trackpoint>
            <Time>2021-08-13T08:08:48.000Z</Time>
            <Position>
              <LatitudeDegrees>43.24115543626248836517333984375</LatitudeDegrees>
              <LongitudeDegrees>-1.99534230865538120269775390625</LongitudeDegrees>
            </Position>
            <AltitudeMeters>81.59999847412109375</AltitudeMeters>
            <DistanceMeters>NAN</DistanceMeters>
          </Trackpoint>
          <Trackpoint>
            <Time>2021-08-13T08:08:49.000Z</Time>
            <Position>
              <LatitudeDegrees>43.24113297276198863983154296875</LatitudeDegrees>
              <LongitudeDegrees>-1.995356976985931396484375</LongitudeDegrees>
            </Position>
            <AltitudeMeters>81.8000030517578125</AltitudeMeters>
            <DistanceMeters>NAN</DistanceMeters>
          </Trackpoint>
          <Trackpoint>
            <Time>2021-08-13T08:08:50.000Z</Time>
            <Position>
              <LatitudeDegrees>43.241110928356647491455078125</LatitudeDegrees>
              <LongitudeDegrees>-1.99536879546940326690673828125</LongitudeDegrees>
            </Position>
            <AltitudeMeters>82</AltitudeMeters>
            <DistanceMeters>NAN</DistanceMeters>
          </Trackpoint>
          <Trackpoint>
            <Time>2021-08-13T08:08:51.000Z</Time>
            <Position>
              <LatitudeDegrees>43.2410889677703380584716796875</LatitudeDegrees>
              <LongitudeDegrees>-1.99537952430546283721923828125</LongitudeDegrees>
            </Position>
            <AltitudeMeters>82</AltitudeMeters>
            <DistanceMeters>NAN</DistanceMeters>
          </Trackpoint>
          <Trackpoint>
            <Time>2021-08-13T08:08:52.000Z</Time>
            <Position>
              <LatitudeDegrees>43.24106709100306034088134765625</LatitudeDegrees>
              <LongitudeDegrees>-1.9953910075128078460693359375</LongitudeDegrees>
            </Position>
            <AltitudeMeters>82.1999969482421875</AltitudeMeters>
            <DistanceMeters>NAN</DistanceMeters>
          </Trackpoint>
          <Trackpoint>
            <Time>2021-08-13T08:08:53.000Z</Time>
            <Position>
              <LatitudeDegrees>43.2410477288067340850830078125</LatitudeDegrees>
              <LongitudeDegrees>-1.99540098197758197784423828125</LongitudeDegrees>
            </Position>
            <AltitudeMeters>82.59999847412109375</AltitudeMeters>
            <DistanceMeters>NAN</DistanceMeters>
          </Trackpoint>
          <Trackpoint>
            <Time>2021-08-13T08:08:54.000Z</Time>
            <Position>
              <LatitudeDegrees>43.24102677404880523681640625</LatitudeDegrees>
              <LongitudeDegrees>-1.99541129171848297119140625</LongitudeDegrees>
            </Position>
            <AltitudeMeters>82.8000030517578125</AltitudeMeters>
            <DistanceMeters>NAN</DistanceMeters>
          </Trackpoint>
          <Trackpoint>
            <Time>2021-08-13T08:08:55.000Z</Time>
            <Position>
              <LatitudeDegrees>43.24100338853895664215087890625</LatitudeDegrees>
              <LongitudeDegrees>-1.99542378075420856475830078125</LongitudeDegrees>
            </Position>
            <AltitudeMeters>83</AltitudeMeters>
            <DistanceMeters>NAN</DistanceMeters>
          </Trackpoint>
          <Trackpoint>
            <Time>2021-08-13T08:08:56.000Z</Time>
            <Position>
              <LatitudeDegrees>43.24098042212426662445068359375</LatitudeDegrees>
              <LongitudeDegrees>-1.9954355992376804351806640625</LongitudeDegrees>
            </Position>
            <AltitudeMeters>83.1999969482421875</AltitudeMeters>
            <DistanceMeters>NAN</DistanceMeters>
          </Trackpoint>
          <Trackpoint>
            <Time>2021-08-13T08:08:57.000Z</Time>
            <Position>
              <LatitudeDegrees>43.2409592159092426300048828125</LatitudeDegrees>
              <LongitudeDegrees>-1.99544440023601055145263671875</LongitudeDegrees>
            </Position>
            <AltitudeMeters>83.40000152587890625</AltitudeMeters>
            <DistanceMeters>NAN</DistanceMeters>
          </Trackpoint>
          <Trackpoint>
            <Time>2021-08-13T08:08:58.000Z</Time>
            <Position>
              <LatitudeDegrees>43.24093650095164775848388671875</LatitudeDegrees>
              <LongitudeDegrees>-1.99545697309076786041259765625</LongitudeDegrees>
            </Position>
            <AltitudeMeters>83.59999847412109375</AltitudeMeters>
            <DistanceMeters>NAN</DistanceMeters>
          </Trackpoint>
          <Trackpoint>
            <Time>2021-08-13T08:08:59.000Z</Time>
            <Position>
              <LatitudeDegrees>43.24091286398470401763916015625</LatitudeDegrees>
              <LongitudeDegrees>-1.99546921066939830780029296875</LongitudeDegrees>
            </Position>
            <AltitudeMeters>83.59999847412109375</AltitudeMeters>
            <DistanceMeters>NAN</DistanceMeters>
          </Trackpoint>
          <Trackpoint>
            <Time>2021-08-13T08:09:00.000Z</Time>
            <Position>
              <LatitudeDegrees>43.24088889174163341522216796875</LatitudeDegrees>
              <LongitudeDegrees>-1.99547893367707729339599609375</LongitudeDegrees>
            </Position>
            <AltitudeMeters>83.8000030517578125</AltitudeMeters>
            <DistanceMeters>NAN</DistanceMeters>
          </Trackpoint>
          <Trackpoint>
            <Time>2021-08-13T08:09:01.000Z</Time>
            <Position>
              <LatitudeDegrees>43.240866847336292266845703125</LatitudeDegrees>
              <LongitudeDegrees>-1.995486728847026824951171875</LongitudeDegrees>
            </Position>
            <AltitudeMeters>83.8000030517578125</AltitudeMeters>
            <DistanceMeters>NAN</DistanceMeters>
          </Trackpoint>
          <Trackpoint>
            <Time>2021-08-13T08:09:02.000Z</Time>
            <Position>
              <LatitudeDegrees>43.24084497056901454925537109375</LatitudeDegrees>
              <LongitudeDegrees>-1.995493434369564056396484375</LongitudeDegrees>
            </Position>
            <AltitudeMeters>84</AltitudeMeters>
            <DistanceMeters>NAN</DistanceMeters>
          </Trackpoint>
          <Trackpoint>
            <Time>2021-08-13T08:09:03.000Z</Time>
            <Position>
              <LatitudeDegrees>43.24082166887819766998291015625</LatitudeDegrees>
              <LongitudeDegrees>-1.995504833757877349853515625</LongitudeDegrees>
            </Position>
            <AltitudeMeters>84</AltitudeMeters>
            <DistanceMeters>NAN</DistanceMeters>
          </Trackpoint>
          <Trackpoint>
            <Time>2021-08-13T08:09:04.000Z</Time>
            <Position>
              <LatitudeDegrees>43.2407994568347930908203125</LatitudeDegrees>
              <LongitudeDegrees>-1.99551589787006378173828125</LongitudeDegrees>
            </Position>
            <AltitudeMeters>84.1999969482421875</AltitudeMeters>
            <DistanceMeters>NAN</DistanceMeters>
          </Trackpoint>
          <Trackpoint>
            <Time>2021-08-13T08:09:05.000Z</Time>
            <Position>
              <LatitudeDegrees>43.2407778315246105194091796875</LatitudeDegrees>
              <LongitudeDegrees>-1.99552595615386962890625</LongitudeDegrees>
            </Position>
            <AltitudeMeters>84.40000152587890625</AltitudeMeters>
            <DistanceMeters>NAN</DistanceMeters>
          </Trackpoint>
          <Trackpoint>
            <Time>2021-08-13T08:09:06.000Z</Time>
            <Position>
              <LatitudeDegrees>43.2407540269196033477783203125</LatitudeDegrees>
              <LongitudeDegrees>-1.9955381937325000762939453125</LongitudeDegrees>
            </Position>
            <AltitudeMeters>84.59999847412109375</AltitudeMeters>
            <DistanceMeters>NAN</DistanceMeters>
          </Trackpoint>
          <Trackpoint>
            <Time>2021-08-13T08:09:07.000Z</Time>
            <Position>
              <LatitudeDegrees>43.24072997085750102996826171875</LatitudeDegrees>
              <LongitudeDegrees>-1.9955495931208133697509765625</LongitudeDegrees>
            </Position>
            <AltitudeMeters>84.59999847412109375</AltitudeMeters>
            <DistanceMeters>NAN</DistanceMeters>
          </Trackpoint>
          <Trackpoint>
            <Time>2021-08-13T08:09:08.000Z</Time>
            <Position>
              <LatitudeDegrees>43.2407074235379695892333984375</LatitudeDegrees>
              <LongitudeDegrees>-1.995563171803951263427734375</LongitudeDegrees>
            </Position>
            <AltitudeMeters>84.59999847412109375</AltitudeMeters>
            <DistanceMeters>NAN</DistanceMeters>
          </Trackpoint>
          <Trackpoint>
            <Time>2021-08-13T08:09:09.000Z</Time>
            <Position>
              <LatitudeDegrees>43.24068604968488216400146484375</LatitudeDegrees>
              <LongitudeDegrees>-1.9955727271735668182373046875</LongitudeDegrees>
            </Position>
            <AltitudeMeters>84.8000030517578125</AltitudeMeters>
            <DistanceMeters>NAN</DistanceMeters>
          </Trackpoint>
          <Trackpoint>
            <Time>2021-08-13T08:09:10.000Z</Time>
            <Position>
              <LatitudeDegrees>43.2406651787459850311279296875</LatitudeDegrees>
              <LongitudeDegrees>-1.995585300028324127197265625</LongitudeDegrees>
            </Position>
            <AltitudeMeters>84.8000030517578125</AltitudeMeters>
            <DistanceMeters>NAN</DistanceMeters>
          </Trackpoint>
          <Trackpoint>
            <Time>2021-08-13T08:09:11.000Z</Time>
            <Position>
              <LatitudeDegrees>43.24064414016902446746826171875</LatitudeDegrees>
              <LongitudeDegrees>-1.99559711851179599761962890625</LongitudeDegrees>
            </Position>
            <AltitudeMeters>85</AltitudeMeters>
            <DistanceMeters>NAN</DistanceMeters>
          </Trackpoint>
          <Trackpoint>
            <Time>2021-08-13T08:09:12.000Z</Time>
            <Position>
              <LatitudeDegrees>43.24062268249690532684326171875</LatitudeDegrees>
              <LongitudeDegrees>-1.99560843408107757568359375</LongitudeDegrees>
            </Position>
            <AltitudeMeters>85.1999969482421875</AltitudeMeters>
            <DistanceMeters>NAN</DistanceMeters>
          </Trackpoint>
          <Trackpoint>
            <Time>2021-08-13T08:09:13.000Z</Time>
            <Position>
              <LatitudeDegrees>43.24060256592929363250732421875</LatitudeDegrees>
              <LongitudeDegrees>-1.99561723507940769195556640625</LongitudeDegrees>
            </Position>
            <AltitudeMeters>85.1999969482421875</AltitudeMeters>
            <DistanceMeters>NAN</DistanceMeters>
          </Trackpoint>
          <Trackpoint>
            <Time>2021-08-13T08:09:14.000Z</Time>
            <Position>
              <LatitudeDegrees>43.24058152735233306884765625</LatitudeDegrees>
              <LongitudeDegrees>-1.99562628753483295440673828125</LongitudeDegrees>
            </Position>
            <AltitudeMeters>85.40000152587890625</AltitudeMeters>
            <DistanceMeters>NAN</DistanceMeters>
          </Trackpoint>
          <Trackpoint>
            <Time>2021-08-13T08:09:15.000Z</Time>
            <Position>
              <LatitudeDegrees>43.2405609078705310821533203125</LatitudeDegrees>
              <LongitudeDegrees>-1.995633579790592193603515625</LongitudeDegrees>
            </Position>
            <AltitudeMeters>85.40000152587890625</AltitudeMeters>
            <DistanceMeters>NAN</DistanceMeters>
          </Trackpoint>
          <Trackpoint>
            <Time>2021-08-13T08:09:16.000Z</Time>
            <Position>
              <LatitudeDegrees>43.2405394501984119415283203125</LatitudeDegrees>
              <LongitudeDegrees>-1.995640285313129425048828125</LongitudeDegrees>
            </Position>
            <AltitudeMeters>85.59999847412109375</AltitudeMeters>
            <DistanceMeters>NAN</DistanceMeters>
          </Trackpoint>
          <Trackpoint>
            <Time>2021-08-13T08:09:17.000Z</Time>
            <Position>
              <LatitudeDegrees>43.240518160164356231689453125</LatitudeDegrees>
              <LongitudeDegrees>-1.99564975686371326446533203125</LongitudeDegrees>
            </Position>
            <AltitudeMeters>85.8000030517578125</AltitudeMeters>
            <DistanceMeters>NAN</DistanceMeters>
          </Trackpoint>
          <Trackpoint>
            <Time>2021-08-13T08:09:18.000Z</Time>
            <Position>
              <LatitudeDegrees>43.24049997143447399139404296875</LatitudeDegrees>
              <LongitudeDegrees>-1.99565746821463108062744140625</LongitudeDegrees>
            </Position>
            <AltitudeMeters>86.1999969482421875</AltitudeMeters>
            <DistanceMeters>NAN</DistanceMeters>
          </Trackpoint>
          <Trackpoint>
            <Time>2021-08-13T08:09:19.000Z</Time>
            <Position>
              <LatitudeDegrees>43.24048236943781375885009765625</LatitudeDegrees>
              <LongitudeDegrees>-1.99566199444234371185302734375</LongitudeDegrees>
            </Position>
            <AltitudeMeters>86</AltitudeMeters>
            <DistanceMeters>NAN</DistanceMeters>
          </Trackpoint>
          <Trackpoint>
            <Time>2021-08-13T08:09:20.000Z</Time>
            <Position>
              <LatitudeDegrees>43.24046711437404155731201171875</LatitudeDegrees>
              <LongitudeDegrees>-1.99566400609910488128662109375</LongitudeDegrees>
            </Position>
            <AltitudeMeters>86.1999969482421875</AltitudeMeters>
            <DistanceMeters>NAN</DistanceMeters>
          </Trackpoint>
          <Trackpoint>
            <Time>2021-08-13T08:09:21.000Z</Time>
            <Position>
              <LatitudeDegrees>43.24045169167220592498779296875</LatitudeDegrees>
              <LongitudeDegrees>-1.99566635303199291229248046875</LongitudeDegrees>
            </Position>
            <AltitudeMeters>86.40000152587890625</AltitudeMeters>
            <DistanceMeters>NAN</DistanceMeters>
          </Trackpoint>
          <Trackpoint>
            <Time>2021-08-13T08:09:22.000Z</Time>
            <Position>
              <LatitudeDegrees>43.2404373586177825927734375</LatitudeDegrees>
              <LongitudeDegrees>-1.9956686161458492279052734375</LongitudeDegrees>
            </Position>
            <AltitudeMeters>86.40000152587890625</AltitudeMeters>
            <DistanceMeters>NAN</DistanceMeters>
          </Trackpoint>
          <Trackpoint>
            <Time>2021-08-13T08:09:23.000Z</Time>
            <Position>
              <LatitudeDegrees>43.240424953401088714599609375</LatitudeDegrees>
              <LongitudeDegrees>-1.995669119060039520263671875</LongitudeDegrees>
            </Position>
            <AltitudeMeters>86.8000030517578125</AltitudeMeters>
            <DistanceMeters>NAN</DistanceMeters>
          </Trackpoint>
          <Trackpoint>
            <Time>2021-08-13T08:09:24.000Z</Time>
            <Position>
              <LatitudeDegrees>43.2404143922030925750732421875</LatitudeDegrees>
              <LongitudeDegrees>-1.9956699572503566741943359375</LongitudeDegrees>
            </Position>
            <AltitudeMeters>87</AltitudeMeters>
            <DistanceMeters>NAN</DistanceMeters>
          </Trackpoint>
          <Trackpoint>
            <Time>2021-08-13T08:09:25.000Z</Time>
            <Position>
              <LatitudeDegrees>43.24040391482412815093994140625</LatitudeDegrees>
              <LongitudeDegrees>-1.99566702358424663543701171875</LongitudeDegrees>
            </Position>
            <AltitudeMeters>87.1999969482421875</AltitudeMeters>
            <DistanceMeters>NAN</DistanceMeters>
          </Trackpoint>
          <Trackpoint>
            <Time>2021-08-13T08:09:26.000Z</Time>
            <Position>
              <LatitudeDegrees>43.240393437445163726806640625</LatitudeDegrees>
              <LongitudeDegrees>-1.995665095746517181396484375</LongitudeDegrees>
            </Position>
            <AltitudeMeters>87.1999969482421875</AltitudeMeters>
            <DistanceMeters>NAN</DistanceMeters>
          </Trackpoint>
          <Trackpoint>
            <Time>2021-08-13T08:09:27.000Z</Time>
            <Position>
              <LatitudeDegrees>43.240382038056850433349609375</LatitudeDegrees>
              <LongitudeDegrees>-1.99566015042364597320556640625</LongitudeDegrees>
            </Position>
            <AltitudeMeters>87.40000152587890625</AltitudeMeters>
            <DistanceMeters>NAN</DistanceMeters>
          </Trackpoint>
          <Trackpoint>
            <Time>2021-08-13T08:09:28.000Z</Time>
            <Position>
              <LatitudeDegrees>43.240370638668537139892578125</LatitudeDegrees>
              <LongitudeDegrees>-1.995657049119472503662109375</LongitudeDegrees>
            </Position>
            <AltitudeMeters>87.40000152587890625</AltitudeMeters>
            <DistanceMeters>NAN</DistanceMeters>
          </Trackpoint>
          <Trackpoint>
            <Time>2021-08-13T08:09:29.000Z</Time>
            <Position>
              <LatitudeDegrees>43.24035949073731899261474609375</LatitudeDegrees>
              <LongitudeDegrees>-1.99565579183399677276611328125</LongitudeDegrees>
            </Position>
            <AltitudeMeters>87.40000152587890625</AltitudeMeters>
            <DistanceMeters>NAN</DistanceMeters>
          </Trackpoint>
          <Trackpoint>
            <Time>2021-08-13T08:09:30.000Z</Time>
            <Position>
              <LatitudeDegrees>43.24034951627254486083984375</LatitudeDegrees>
              <LongitudeDegrees>-1.99565059505403041839599609375</LongitudeDegrees>
            </Position>
            <AltitudeMeters>87.59999847412109375</AltitudeMeters>
            <DistanceMeters>NAN</DistanceMeters>
          </Trackpoint>
          <Trackpoint>
            <Time>2021-08-13T08:09:31.000Z</Time>
            <Position>
              <LatitudeDegrees>43.240341134369373321533203125</LatitudeDegrees>
              <LongitudeDegrees>-1.99564355425536632537841796875</LongitudeDegrees>
            </Position>
            <AltitudeMeters>87.59999847412109375</AltitudeMeters>
            <DistanceMeters>NAN</DistanceMeters>
          </Trackpoint>
          <Trackpoint>
            <Time>2021-08-13T08:09:32.000Z</Time>
            <Position>
              <LatitudeDegrees>43.24033333919942378997802734375</LatitudeDegrees>
              <LongitudeDegrees>-1.99563768692314624786376953125</LongitudeDegrees>
            </Position>
            <AltitudeMeters>87.59999847412109375</AltitudeMeters>
            <DistanceMeters>NAN</DistanceMeters>
          </Trackpoint>
          <Trackpoint>
            <Time>2021-08-13T08:09:33.000Z</Time>
            <Position>
              <LatitudeDegrees>43.24032831005752086639404296875</LatitudeDegrees>
              <LongitudeDegrees>-1.9956297241151332855224609375</LongitudeDegrees>
            </Position>
            <AltitudeMeters>87.8000030517578125</AltitudeMeters>
            <DistanceMeters>NAN</DistanceMeters>
          </Trackpoint>
          <Trackpoint>
            <Time>2021-08-13T08:09:34.000Z</Time>
            <Position>
              <LatitudeDegrees>43.24032193981111049652099609375</LatitudeDegrees>
              <LongitudeDegrees>-1.9956211745738983154296875</LongitudeDegrees>
            </Position>
            <AltitudeMeters>87.8000030517578125</AltitudeMeters>
            <DistanceMeters>NAN</DistanceMeters>
          </Trackpoint>
          <Trackpoint>
            <Time>2021-08-13T08:09:35.000Z</Time>
            <Position>
              <LatitudeDegrees>43.240315653383731842041015625</LatitudeDegrees>
              <LongitudeDegrees>-1.99561304412782192230224609375</LongitudeDegrees>
            </Position>
            <AltitudeMeters>87.8000030517578125</AltitudeMeters>
            <DistanceMeters>NAN</DistanceMeters>
          </Trackpoint>
          <Trackpoint>
            <Time>2021-08-13T08:09:36.000Z</Time>
            <Position>
              <LatitudeDegrees>43.24030869640409946441650390625</LatitudeDegrees>
              <LongitudeDegrees>-1.9956075958907604217529296875</LongitudeDegrees>
            </Position>
            <AltitudeMeters>87.8000030517578125</AltitudeMeters>
            <DistanceMeters>NAN</DistanceMeters>
          </Trackpoint>
          <Trackpoint>
            <Time>2021-08-13T08:09:37.000Z</Time>
            <Position>
              <LatitudeDegrees>43.24030081741511821746826171875</LatitudeDegrees>
              <LongitudeDegrees>-1.99559829197824001312255859375</LongitudeDegrees>
            </Position>
            <AltitudeMeters>87.8000030517578125</AltitudeMeters>
            <DistanceMeters>NAN</DistanceMeters>
          </Trackpoint>
          <Trackpoint>
            <Time>2021-08-13T08:09:38.000Z</Time>
            <Position>
              <LatitudeDegrees>43.24029008857905864715576171875</LatitudeDegrees>
              <LongitudeDegrees>-1.995589993894100189208984375</LongitudeDegrees>
            </Position>
            <AltitudeMeters>88</AltitudeMeters>
            <DistanceMeters>NAN</DistanceMeters>
          </Trackpoint>
          <Trackpoint>
            <Time>2021-08-13T08:09:39.000Z</Time>
            <Position>
              <LatitudeDegrees>43.24028070084750652313232421875</LatitudeDegrees>
              <LongitudeDegrees>-1.99558136053383350372314453125</LongitudeDegrees>
            </Position>
            <AltitudeMeters>88</AltitudeMeters>
            <DistanceMeters>NAN</DistanceMeters>
          </Trackpoint>
          <Trackpoint>
            <Time>2021-08-13T08:09:40.000Z</Time>
            <Position>
              <LatitudeDegrees>43.24027030728757381439208984375</LatitudeDegrees>
              <LongitudeDegrees>-1.99557230807840824127197265625</LongitudeDegrees>
            </Position>
            <AltitudeMeters>88</AltitudeMeters>
            <DistanceMeters>NAN</DistanceMeters>
          </Trackpoint>
          <Trackpoint>
            <Time>2021-08-13T08:09:41.000Z</Time>
            <Position>
              <LatitudeDegrees>43.2402658648788928985595703125</LatitudeDegrees>
              <LongitudeDegrees>-1.99556543491780757904052734375</LongitudeDegrees>
            </Position>
            <AltitudeMeters>88</AltitudeMeters>
            <DistanceMeters>NAN</DistanceMeters>
          </Trackpoint>
          <Trackpoint>
            <Time>2021-08-13T08:09:43.000Z</Time>
            <Position>
              <LatitudeDegrees>43.24026829563081264495849609375</LatitudeDegrees>
              <LongitudeDegrees>-1.99555470608174800872802734375</LongitudeDegrees>
            </Position>
            <AltitudeMeters>88</AltitudeMeters>
            <DistanceMeters>NAN</DistanceMeters>
          </Trackpoint>
          <Trackpoint>
            <Time>2021-08-13T08:09:44.000Z</Time>
            <Position>
              <LatitudeDegrees>43.24026930145919322967529296875</LatitudeDegrees>
              <LongitudeDegrees>-1.99555353261530399322509765625</LongitudeDegrees>
            </Position>
            <AltitudeMeters>88.1999969482421875</AltitudeMeters>
            <DistanceMeters>NAN</DistanceMeters>
          </Trackpoint>
          <Trackpoint>
            <Time>2021-08-13T08:09:54.000Z</Time>
            <Position>
              <LatitudeDegrees>43.240277431905269622802734375</LatitudeDegrees>
              <LongitudeDegrees>-1.9955593161284923553466796875</LongitudeDegrees>
            </Position>
            <AltitudeMeters>88.1999969482421875</AltitudeMeters>
            <DistanceMeters>NAN</DistanceMeters>
          </Trackpoint>
          <Trackpoint>
            <Time>2021-08-13T08:10:09.000Z</Time>
            <Position>
              <LatitudeDegrees>43.2402755878865718841552734375</LatitudeDegrees>
              <LongitudeDegrees>-1.99555688537657260894775390625</LongitudeDegrees>
            </Position>
            <AltitudeMeters>88</AltitudeMeters>
            <DistanceMeters>NAN</DistanceMeters>
          </Trackpoint>
          <Trackpoint>
            <Time>2021-08-13T08:10:36.000Z</Time>
            <Position>
              <LatitudeDegrees>43.24020995758473873138427734375</LatitudeDegrees>
              <LongitudeDegrees>-1.99555504135787487030029296875</LongitudeDegrees>
            </Position>
            <AltitudeMeters>88</AltitudeMeters>
            <DistanceMeters>NAN</DistanceMeters>
          </Trackpoint>
          <Trackpoint>
            <Time>2021-08-13T08:10:37.000Z</Time>
            <Position>
              <LatitudeDegrees>43.24018732644617557525634765625</LatitudeDegrees>
              <LongitudeDegrees>-1.99553945101797580718994140625</LongitudeDegrees>
            </Position>
            <AltitudeMeters>88</AltitudeMeters>
            <DistanceMeters>NAN</DistanceMeters>
          </Trackpoint>
          <Trackpoint>
            <Time>2021-08-13T08:10:38.000Z</Time>
            <Position>
              <LatitudeDegrees>43.24016436003148555755615234375</LatitudeDegrees>
              <LongitudeDegrees>-1.99551455676555633544921875</LongitudeDegrees>
            </Position>
            <AltitudeMeters>88</AltitudeMeters>
            <DistanceMeters>NAN</DistanceMeters>
          </Trackpoint>
          <Trackpoint>
            <Time>2021-08-13T08:10:39.000Z</Time>
            <Position>
              <LatitudeDegrees>43.2401421479880809783935546875</LatitudeDegrees>
              <LongitudeDegrees>-1.99548278935253620147705078125</LongitudeDegrees>
            </Position>
            <AltitudeMeters>88</AltitudeMeters>
            <DistanceMeters>NAN</DistanceMeters>
          </Trackpoint>
          <Trackpoint>
            <Time>2021-08-13T08:10:40.000Z</Time>
            <Position>
              <LatitudeDegrees>43.2401181757450103759765625</LatitudeDegrees>
              <LongitudeDegrees>-1.9954516924917697906494140625</LongitudeDegrees>
            </Position>
            <AltitudeMeters>88</AltitudeMeters>
            <DistanceMeters>NAN</DistanceMeters>
          </Trackpoint>
          <Trackpoint>
            <Time>2021-08-13T08:10:41.000Z</Time>
            <Position>
              <LatitudeDegrees>43.2400913536548614501953125</LatitudeDegrees>
              <LongitudeDegrees>-1.99541841633617877960205078125</LongitudeDegrees>
            </Position>
            <AltitudeMeters>88</AltitudeMeters>
            <DistanceMeters>NAN</DistanceMeters>
          </Trackpoint>
          <Trackpoint>
            <Time>2021-08-13T08:10:47.000Z</Time>
            <Position>
              <LatitudeDegrees>43.23990971781313419342041015625</LatitudeDegrees>
              <LongitudeDegrees>-1.9951378740370273590087890625</LongitudeDegrees>
            </Position>
            <AltitudeMeters>87.1999969482421875</AltitudeMeters>
            <DistanceMeters>NAN</DistanceMeters>
          </Trackpoint>
          <Trackpoint>
            <Time>2021-08-13T08:10:49.000Z</Time>
            <Position>
              <LatitudeDegrees>43.23983344249427318572998046875</LatitudeDegrees>
              <LongitudeDegrees>-1.9950255565345287322998046875</LongitudeDegrees>
            </Position>
            <AltitudeMeters>87.1999969482421875</AltitudeMeters>
            <DistanceMeters>NAN</DistanceMeters>
          </Trackpoint>
          <Trackpoint>
            <Time>2021-08-13T08:10:50.000Z</Time>
            <Position>
              <LatitudeDegrees>43.23978734202682971954345703125</LatitudeDegrees>
              <LongitudeDegrees>-1.9949702359735965728759765625</LongitudeDegrees>
            </Position>
            <AltitudeMeters>87</AltitudeMeters>
            <DistanceMeters>NAN</DistanceMeters>
          </Trackpoint>
          <Trackpoint>
            <Time>2021-08-13T08:10:52.000Z</Time>
            <Position>
              <LatitudeDegrees>43.23968122713267803192138671875</LatitudeDegrees>
              <LongitudeDegrees>-1.994869150221347808837890625</LongitudeDegrees>
            </Position>
            <AltitudeMeters>86.40000152587890625</AltitudeMeters>
            <DistanceMeters>NAN</DistanceMeters>
          </Trackpoint>
          <Trackpoint>
            <Time>2021-08-13T08:10:54.000Z</Time>
            <Position>
              <LatitudeDegrees>43.239555247128009796142578125</LatitudeDegrees>
              <LongitudeDegrees>-1.9948111474514007568359375</LongitudeDegrees>
            </Position>
            <AltitudeMeters>85.59999847412109375</AltitudeMeters>
            <DistanceMeters>NAN</DistanceMeters>
          </Trackpoint>
          <Trackpoint>
            <Time>2021-08-13T08:10:55.000Z</Time>
            <Position>
              <LatitudeDegrees>43.23948978446424007415771484375</LatitudeDegrees>
              <LongitudeDegrees>-1.9947995804250240325927734375</LongitudeDegrees>
            </Position>
            <AltitudeMeters>85.40000152587890625</AltitudeMeters>
            <DistanceMeters>NAN</DistanceMeters>
          </Trackpoint>
          <Trackpoint>
            <Time>2021-08-13T08:10:56.000Z</Time>
            <Position>
              <LatitudeDegrees>43.23942440561950206756591796875</LatitudeDegrees>
              <LongitudeDegrees>-1.99479974806308746337890625</LongitudeDegrees>
            </Position>
            <AltitudeMeters>85</AltitudeMeters>
            <DistanceMeters>NAN</DistanceMeters>
          </Trackpoint>
          <Trackpoint>
            <Time>2021-08-13T08:10:57.000Z</Time>
            <Position>
              <LatitudeDegrees>43.23936020024120807647705078125</LatitudeDegrees>
              <LongitudeDegrees>-1.9948093034327030181884765625</LongitudeDegrees>
            </Position>
            <AltitudeMeters>85</AltitudeMeters>
            <DistanceMeters>NAN</DistanceMeters>
          </Trackpoint>
          <Trackpoint>
            <Time>2021-08-13T08:10:59.000Z</Time>
            <Position>
              <LatitudeDegrees>43.23924067430198192596435546875</LatitudeDegrees>
              <LongitudeDegrees>-1.99484375305473804473876953125</LongitudeDegrees>
            </Position>
            <AltitudeMeters>84.59999847412109375</AltitudeMeters>
            <DistanceMeters>NAN</DistanceMeters>
          </Trackpoint>
          <Trackpoint>
            <Time>2021-08-13T08:11:00.000Z</Time>
            <Position>
              <LatitudeDegrees>43.239185772836208343505859375</LatitudeDegrees>
              <LongitudeDegrees>-1.9948595948517322540283203125</LongitudeDegrees>
            </Position>
            <AltitudeMeters>84.59999847412109375</AltitudeMeters>
            <DistanceMeters>NAN</DistanceMeters>
          </Trackpoint>
          <Trackpoint>
            <Time>2021-08-13T08:11:01.000Z</Time>
            <Position>
              <LatitudeDegrees>43.23913422413170337677001953125</LatitudeDegrees>
              <LongitudeDegrees>-1.99487275443971157073974609375</LongitudeDegrees>
            </Position>
            <AltitudeMeters>84.40000152587890625</AltitudeMeters>
            <DistanceMeters>NAN</DistanceMeters>
          </Trackpoint>
          <Trackpoint>
            <Time>2021-08-13T08:11:02.000Z</Time>
            <Position>
              <LatitudeDegrees>43.23908485472202301025390625</LatitudeDegrees>
              <LongitudeDegrees>-1.99488499201834201812744140625</LongitudeDegrees>
            </Position>
            <AltitudeMeters>84.40000152587890625</AltitudeMeters>
            <DistanceMeters>NAN</DistanceMeters>
          </Trackpoint>
          <Trackpoint>
            <Time>2021-08-13T08:11:03.000Z</Time>
            <Position>
              <LatitudeDegrees>43.23903665877878665924072265625</LatitudeDegrees>
              <LongitudeDegrees>-1.99489605613052845001220703125</LongitudeDegrees>
            </Position>
            <AltitudeMeters>84.40000152587890625</AltitudeMeters>
            <DistanceMeters>NAN</DistanceMeters>
          </Trackpoint>
          <Trackpoint>
            <Time>2021-08-13T08:11:04.000Z</Time>
            <Position>
              <LatitudeDegrees>43.23898804374039173126220703125</LatitudeDegrees>
              <LongitudeDegrees>-1.9949082098901271820068359375</LongitudeDegrees>
            </Position>
            <AltitudeMeters>84.40000152587890625</AltitudeMeters>
            <DistanceMeters>NAN</DistanceMeters>
          </Trackpoint>
          <Trackpoint>
            <Time>2021-08-13T08:11:12.000Z</Time>
            <Position>
              <LatitudeDegrees>43.238580264151096343994140625</LatitudeDegrees>
              <LongitudeDegrees>-1.9950097985565662384033203125</LongitudeDegrees>
            </Position>
            <AltitudeMeters>84.40000152587890625</AltitudeMeters>
            <DistanceMeters>NAN</DistanceMeters>
          </Trackpoint>
          <Trackpoint>
            <Time>2021-08-13T08:11:16.000Z</Time>
            <Position>
              <LatitudeDegrees>43.238380439579486846923828125</LatitudeDegrees>
              <LongitudeDegrees>-1.99506302364170551300048828125</LongitudeDegrees>
            </Position>
            <AltitudeMeters>84.8000030517578125</AltitudeMeters>
            <DistanceMeters>NAN</DistanceMeters>
          </Trackpoint>
          <Trackpoint>
            <Time>2021-08-13T08:11:18.000Z</Time>
            <Position>
              <LatitudeDegrees>43.23828161694109439849853515625</LatitudeDegrees>
              <LongitudeDegrees>-1.99508867226541042327880859375</LongitudeDegrees>
            </Position>
            <AltitudeMeters>85</AltitudeMeters>
            <DistanceMeters>NAN</DistanceMeters>
          </Trackpoint>
          <Trackpoint>
            <Time>2021-08-13T08:11:20.000Z</Time>
            <Position>
              <LatitudeDegrees>43.2381834648549556732177734375</LatitudeDegrees>
              <LongitudeDegrees>-1.99511088430881500244140625</LongitudeDegrees>
            </Position>
            <AltitudeMeters>85.1999969482421875</AltitudeMeters>
            <DistanceMeters>NAN</DistanceMeters>
          </Trackpoint>
          <Trackpoint>
            <Time>2021-08-13T08:11:22.000Z</Time>
            <Position>
              <LatitudeDegrees>43.2380905933678150177001953125</LatitudeDegrees>
              <LongitudeDegrees>-1.99513242579996585845947265625</LongitudeDegrees>
            </Position>
            <AltitudeMeters>85.40000152587890625</AltitudeMeters>
            <DistanceMeters>NAN</DistanceMeters>
          </Trackpoint>
          <Trackpoint>
            <Time>2021-08-13T08:11:23.000Z</Time>
            <Position>
              <LatitudeDegrees>43.23804575018584728240966796875</LatitudeDegrees>
              <LongitudeDegrees>-1.9951439090073108673095703125</LongitudeDegrees>
            </Position>
            <AltitudeMeters>85.40000152587890625</AltitudeMeters>
            <DistanceMeters>NAN</DistanceMeters>
          </Trackpoint>
          <Trackpoint>
            <Time>2021-08-13T08:11:24.000Z</Time>
            <Position>
              <LatitudeDegrees>43.23800099082291126251220703125</LatitudeDegrees>
              <LongitudeDegrees>-1.9951553083956241607666015625</LongitudeDegrees>
            </Position>
            <AltitudeMeters>85.40000152587890625</AltitudeMeters>
            <DistanceMeters>NAN</DistanceMeters>
          </Trackpoint>
          <Trackpoint>
            <Time>2021-08-13T08:11:25.000Z</Time>
            <Position>
              <LatitudeDegrees>43.23795824311673641204833984375</LatitudeDegrees>
              <LongitudeDegrees>-1.9951643608510494232177734375</LongitudeDegrees>
            </Position>
            <AltitudeMeters>85.59999847412109375</AltitudeMeters>
            <DistanceMeters>NAN</DistanceMeters>
          </Trackpoint>
          <Trackpoint>
            <Time>2021-08-13T08:11:26.000Z</Time>
            <Position>
              <LatitudeDegrees>43.237915076315402984619140625</LatitudeDegrees>
              <LongitudeDegrees>-1.9951740838587284088134765625</LongitudeDegrees>
            </Position>
            <AltitudeMeters>85.59999847412109375</AltitudeMeters>
            <DistanceMeters>NAN</DistanceMeters>
          </Trackpoint>
          <Trackpoint>
            <Time>2021-08-13T08:11:27.000Z</Time>
            <Position>
              <LatitudeDegrees>43.23787308298051357269287109375</LatitudeDegrees>
              <LongitudeDegrees>-1.995183639228343963623046875</LongitudeDegrees>
            </Position>
            <AltitudeMeters>85.8000030517578125</AltitudeMeters>
            <DistanceMeters>NAN</DistanceMeters>
          </Trackpoint>
          <Trackpoint>
            <Time>2021-08-13T08:11:28.000Z</Time>
            <Position>
              <LatitudeDegrees>43.23783251456916332244873046875</LatitudeDegrees>
              <LongitudeDegrees>-1.9951931945979595184326171875</LongitudeDegrees>
            </Position>
            <AltitudeMeters>85.8000030517578125</AltitudeMeters>
            <DistanceMeters>NAN</DistanceMeters>
          </Trackpoint>
          <Trackpoint>
            <Time>2021-08-13T08:11:29.000Z</Time>
            <Position>
              <LatitudeDegrees>43.23779311962425708770751953125</LatitudeDegrees>
              <LongitudeDegrees>-1.99520149268209934234619140625</LongitudeDegrees>
            </Position>
            <AltitudeMeters>86</AltitudeMeters>
            <DistanceMeters>NAN</DistanceMeters>
          </Trackpoint>
          <Trackpoint>
            <Time>2021-08-13T08:11:30.000Z</Time>
            <Position>
              <LatitudeDegrees>43.2377526350319385528564453125</LatitudeDegrees>
              <LongitudeDegrees>-1.9952099584043025970458984375</LongitudeDegrees>
            </Position>
            <AltitudeMeters>86</AltitudeMeters>
            <DistanceMeters>NAN</DistanceMeters>
          </Trackpoint>
          <Trackpoint>
            <Time>2021-08-13T08:11:31.000Z</Time>
            <Position>
              <LatitudeDegrees>43.23771298862993717193603515625</LatitudeDegrees>
              <LongitudeDegrees>-1.995219178497791290283203125</LongitudeDegrees>
            </Position>
            <AltitudeMeters>86</AltitudeMeters>
            <DistanceMeters>NAN</DistanceMeters>
          </Trackpoint>
          <Trackpoint>
            <Time>2021-08-13T08:11:32.000Z</Time>
            <Position>
              <LatitudeDegrees>43.23767459951341152191162109375</LatitudeDegrees>
              <LongitudeDegrees>-1.9952307455241680145263671875</LongitudeDegrees>
            </Position>
            <AltitudeMeters>86.40000152587890625</AltitudeMeters>
            <DistanceMeters>NAN</DistanceMeters>
          </Trackpoint>
          <Trackpoint>
            <Time>2021-08-13T08:11:33.000Z</Time>
            <Position>
              <LatitudeDegrees>43.2376413233578205108642578125</LatitudeDegrees>
              <LongitudeDegrees>-1.99523954652249813079833984375</LongitudeDegrees>
            </Position>
            <AltitudeMeters>86.40000152587890625</AltitudeMeters>
            <DistanceMeters>NAN</DistanceMeters>
          </Trackpoint>
          <Trackpoint>
            <Time>2021-08-13T08:11:34.000Z</Time>
            <Position>
              <LatitudeDegrees>43.237605951726436614990234375</LatitudeDegrees>
              <LongitudeDegrees>-1.99524977244436740875244140625</LongitudeDegrees>
            </Position>
            <AltitudeMeters>86.40000152587890625</AltitudeMeters>
            <DistanceMeters>NAN</DistanceMeters>
          </Trackpoint>
          <Trackpoint>
            <Time>2021-08-13T08:11:35.000Z</Time>
            <Position>
              <LatitudeDegrees>43.23757384903728961944580078125</LatitudeDegrees>
              <LongitudeDegrees>-1.99526519514620304107666015625</LongitudeDegrees>
            </Position>
            <AltitudeMeters>86.1999969482421875</AltitudeMeters>
            <DistanceMeters>NAN</DistanceMeters>
          </Trackpoint>
          <Trackpoint>
            <Time>2021-08-13T08:11:36.000Z</Time>
            <Position>
              <LatitudeDegrees>43.23755071498453617095947265625</LatitudeDegrees>
              <LongitudeDegrees>-1.99529168196022510528564453125</LongitudeDegrees>
            </Position>
            <AltitudeMeters>86.59999847412109375</AltitudeMeters>
            <DistanceMeters>NAN</DistanceMeters>
          </Trackpoint>
          <Trackpoint>
            <Time>2021-08-13T08:11:37.000Z</Time>
            <Position>
              <LatitudeDegrees>43.23754618875682353973388671875</LatitudeDegrees>
              <LongitudeDegrees>-1.995323784649372100830078125</LongitudeDegrees>
            </Position>
            <AltitudeMeters>86.59999847412109375</AltitudeMeters>
            <DistanceMeters>NAN</DistanceMeters>
          </Trackpoint>
          <Trackpoint>
            <Time>2021-08-13T08:11:38.000Z</Time>
            <Position>
              <LatitudeDegrees>43.237554989755153656005859375</LatitudeDegrees>
              <LongitudeDegrees>-1.99534884653985500335693359375</LongitudeDegrees>
            </Position>
            <AltitudeMeters>86.59999847412109375</AltitudeMeters>
            <DistanceMeters>NAN</DistanceMeters>
          </Trackpoint>
          <Trackpoint>
            <Time>2021-08-13T08:11:39.000Z</Time>
            <Position>
              <LatitudeDegrees>43.23756270110607147216796875</LatitudeDegrees>
              <LongitudeDegrees>-1.995370388031005859375</LongitudeDegrees>
            </Position>
            <AltitudeMeters>86.8000030517578125</AltitudeMeters>
            <DistanceMeters>NAN</DistanceMeters>
          </Trackpoint>
          <Trackpoint>
            <Time>2021-08-13T08:11:40.000Z</Time>
            <Position>
              <LatitudeDegrees>43.23756932280957698822021484375</LatitudeDegrees>
              <LongitudeDegrees>-1.9953923486173152923583984375</LongitudeDegrees>
            </Position>
            <AltitudeMeters>86.8000030517578125</AltitudeMeters>
            <DistanceMeters>NAN</DistanceMeters>
          </Trackpoint>
          <Trackpoint>
            <Time>2021-08-13T08:11:41.000Z</Time>
            <Position>
              <LatitudeDegrees>43.2375756092369556427001953125</LatitudeDegrees>
              <LongitudeDegrees>-1.99541640467941761016845703125</LongitudeDegrees>
            </Position>
            <AltitudeMeters>86.8000030517578125</AltitudeMeters>
            <DistanceMeters>NAN</DistanceMeters>
          </Trackpoint>
          <Trackpoint>
            <Time>2021-08-13T08:11:42.000Z</Time>
            <Position>
              <LatitudeDegrees>43.23758189566433429718017578125</LatitudeDegrees>
              <LongitudeDegrees>-1.9954366050660610198974609375</LongitudeDegrees>
            </Position>
            <AltitudeMeters>87</AltitudeMeters>
            <DistanceMeters>NAN</DistanceMeters>
          </Trackpoint>
          <Trackpoint>
            <Time>2021-08-13T08:11:43.000Z</Time>
            <Position>
              <LatitudeDegrees>43.23759019374847412109375</LatitudeDegrees>
              <LongitudeDegrees>-1.9954590685665607452392578125</LongitudeDegrees>
            </Position>
            <AltitudeMeters>87.1999969482421875</AltitudeMeters>
            <DistanceMeters>NAN</DistanceMeters>
          </Trackpoint>
          <Trackpoint>
            <Time>2021-08-13T08:11:44.000Z</Time>
            <Position>
              <LatitudeDegrees>43.2375980727374553680419921875</LatitudeDegrees>
              <LongitudeDegrees>-1.995488069951534271240234375</LongitudeDegrees>
            </Position>
            <AltitudeMeters>87.1999969482421875</AltitudeMeters>
            <DistanceMeters>NAN</DistanceMeters>
          </Trackpoint>
          <Trackpoint>
            <Time>2021-08-13T08:11:45.000Z</Time>
            <Position>
              <LatitudeDegrees>43.23759849183261394500732421875</LatitudeDegrees>
              <LongitudeDegrees>-1.99552168138325214385986328125</LongitudeDegrees>
            </Position>
            <AltitudeMeters>87.59999847412109375</AltitudeMeters>
            <DistanceMeters>NAN</DistanceMeters>
          </Trackpoint>
          <Trackpoint>
            <Time>2021-08-13T08:11:46.000Z</Time>
            <Position>
              <LatitudeDegrees>43.23759061284363269805908203125</LatitudeDegrees>
              <LongitudeDegrees>-1.99554766528308391571044921875</LongitudeDegrees>
            </Position>
            <AltitudeMeters>87.8000030517578125</AltitudeMeters>
            <DistanceMeters>NAN</DistanceMeters>
          </Trackpoint>
          <Trackpoint>
            <Time>2021-08-13T08:11:47.000Z</Time>
            <Position>
              <LatitudeDegrees>43.23758147656917572021484375</LatitudeDegrees>
              <LongitudeDegrees>-1.99556694366037845611572265625</LongitudeDegrees>
            </Position>
            <AltitudeMeters>87.8000030517578125</AltitudeMeters>
            <DistanceMeters>NAN</DistanceMeters>
          </Trackpoint>
          <Trackpoint>
            <Time>2021-08-13T08:11:48.000Z</Time>
            <Position>
              <LatitudeDegrees>43.2375735975801944732666015625</LatitudeDegrees>
              <LongitudeDegrees>-1.9955878145992755889892578125</LongitudeDegrees>
            </Position>
            <AltitudeMeters>88</AltitudeMeters>
            <DistanceMeters>NAN</DistanceMeters>
          </Trackpoint>
          <Trackpoint>
            <Time>2021-08-13T08:11:49.000Z</Time>
            <Position>
              <LatitudeDegrees>43.23756613768637180328369140625</LatitudeDegrees>
              <LongitudeDegrees>-1.99561371468007564544677734375</LongitudeDegrees>
            </Position>
            <AltitudeMeters>88</AltitudeMeters>
            <DistanceMeters>NAN</DistanceMeters>
          </Trackpoint>
          <Trackpoint>
            <Time>2021-08-13T08:11:53.000Z</Time>
            <Position>
              <LatitudeDegrees>43.23751199059188365936279296875</LatitudeDegrees>
              <LongitudeDegrees>-1.99569761753082275390625</LongitudeDegrees>
            </Position>
            <AltitudeMeters>88.40000152587890625</AltitudeMeters>
            <DistanceMeters>NAN</DistanceMeters>
          </Trackpoint>
          <Trackpoint>
            <Time>2021-08-13T08:11:54.000Z</Time>
            <Position>
              <LatitudeDegrees>43.2374904491007328033447265625</LatitudeDegrees>
              <LongitudeDegrees>-1.99570708908140659332275390625</LongitudeDegrees>
            </Position>
            <AltitudeMeters>88.59999847412109375</AltitudeMeters>
            <DistanceMeters>NAN</DistanceMeters>
          </Trackpoint>
          <Trackpoint>
            <Time>2021-08-13T08:11:55.000Z</Time>
            <Position>
              <LatitudeDegrees>43.237469494342803955078125</LatitudeDegrees>
              <LongitudeDegrees>-1.99571463279426097869873046875</LongitudeDegrees>
            </Position>
            <AltitudeMeters>88.8000030517578125</AltitudeMeters>
            <DistanceMeters>NAN</DistanceMeters>
          </Trackpoint>
          <Trackpoint>
            <Time>2021-08-13T08:11:56.000Z</Time>
            <Position>
              <LatitudeDegrees>43.237448371946811676025390625</LatitudeDegrees>
              <LongitudeDegrees>-1.995721422135829925537109375</LongitudeDegrees>
            </Position>
            <AltitudeMeters>88.8000030517578125</AltitudeMeters>
            <DistanceMeters>NAN</DistanceMeters>
          </Trackpoint>
          <Trackpoint>
            <Time>2021-08-13T08:11:57.000Z</Time>
            <Position>
              <LatitudeDegrees>43.2374280877411365509033203125</LatitudeDegrees>
              <LongitudeDegrees>-1.9957262836396694183349609375</LongitudeDegrees>
            </Position>
            <AltitudeMeters>89</AltitudeMeters>
            <DistanceMeters>NAN</DistanceMeters>
          </Trackpoint>
          <Trackpoint>
            <Time>2021-08-13T08:11:58.000Z</Time>
            <Position>
              <LatitudeDegrees>43.23740721680223941802978515625</LatitudeDegrees>
              <LongitudeDegrees>-1.99573173187673091888427734375</LongitudeDegrees>
            </Position>
            <AltitudeMeters>89.1999969482421875</AltitudeMeters>
            <DistanceMeters>NAN</DistanceMeters>
          </Trackpoint>
          <Trackpoint>
            <Time>2021-08-13T08:11:59.000Z</Time>
            <Position>
              <LatitudeDegrees>43.23738609440624713897705078125</LatitudeDegrees>
              <LongitudeDegrees>-1.9957326538860797882080078125</LongitudeDegrees>
            </Position>
            <AltitudeMeters>89.40000152587890625</AltitudeMeters>
            <DistanceMeters>NAN</DistanceMeters>
          </Trackpoint>
          <Trackpoint>
            <Time>2021-08-13T08:12:00.000Z</Time>
            <Position>
              <LatitudeDegrees>43.23736480437219142913818359375</LatitudeDegrees>
              <LongitudeDegrees>-1.9957336597144603729248046875</LongitudeDegrees>
            </Position>
            <AltitudeMeters>89.59999847412109375</AltitudeMeters>
            <DistanceMeters>NAN</DistanceMeters>
          </Trackpoint>
          <Trackpoint>
            <Time>2021-08-13T08:12:01.000Z</Time>
            <Position>
              <LatitudeDegrees>43.2373456098139286041259765625</LatitudeDegrees>
              <LongitudeDegrees>-1.995734833180904388427734375</LongitudeDegrees>
            </Position>
            <AltitudeMeters>89.8000030517578125</AltitudeMeters>
            <DistanceMeters>NAN</DistanceMeters>
          </Trackpoint>
          <Trackpoint>
            <Time>2021-08-13T08:12:02.000Z</Time>
            <Position>
              <LatitudeDegrees>43.23732675053179264068603515625</LatitudeDegrees>
              <LongitudeDegrees>-1.9957393594086170196533203125</LongitudeDegrees>
            </Position>
            <AltitudeMeters>89.8000030517578125</AltitudeMeters>
            <DistanceMeters>NAN</DistanceMeters>
          </Trackpoint>
          <Trackpoint>
            <Time>2021-08-13T08:12:03.000Z</Time>
            <Position>
              <LatitudeDegrees>43.2373077236115932464599609375</LatitudeDegrees>
              <LongitudeDegrees>-1.9957427121698856353759765625</LongitudeDegrees>
            </Position>
            <AltitudeMeters>90</AltitudeMeters>
            <DistanceMeters>NAN</DistanceMeters>
          </Trackpoint>
          <Trackpoint>
            <Time>2021-08-13T08:12:04.000Z</Time>
            <Position>
              <LatitudeDegrees>43.23728987015783786773681640625</LatitudeDegrees>
              <LongitudeDegrees>-1.9957500882446765899658203125</LongitudeDegrees>
            </Position>
            <AltitudeMeters>90.1999969482421875</AltitudeMeters>
            <DistanceMeters>NAN</DistanceMeters>
          </Trackpoint>
          <Trackpoint>
            <Time>2021-08-13T08:12:05.000Z</Time>
            <Position>
              <LatitudeDegrees>43.2372715137898921966552734375</LatitudeDegrees>
              <LongitudeDegrees>-1.9957567937672138214111328125</LongitudeDegrees>
            </Position>
            <AltitudeMeters>90.40000152587890625</AltitudeMeters>
            <DistanceMeters>NAN</DistanceMeters>
          </Trackpoint>
          <Trackpoint>
            <Time>2021-08-13T08:12:06.000Z</Time>
            <Position>
              <LatitudeDegrees>43.23725290596485137939453125</LatitudeDegrees>
              <LongitudeDegrees>-1.9957633316516876220703125</LongitudeDegrees>
            </Position>
            <AltitudeMeters>90.59999847412109375</AltitudeMeters>
            <DistanceMeters>NAN</DistanceMeters>
          </Trackpoint>
          <Trackpoint>
            <Time>2021-08-13T08:12:07.000Z</Time>
            <Position>
              <LatitudeDegrees>43.2372346334159374237060546875</LatitudeDegrees>
              <LongitudeDegrees>-1.9957685284316539764404296875</LongitudeDegrees>
            </Position>
            <AltitudeMeters>90.8000030517578125</AltitudeMeters>
            <DistanceMeters>NAN</DistanceMeters>
          </Trackpoint>
          <Trackpoint>
            <Time>2021-08-13T08:12:08.000Z</Time>
            <Position>
              <LatitudeDegrees>43.2372138462960720062255859375</LatitudeDegrees>
              <LongitudeDegrees>-1.99577263556420803070068359375</LongitudeDegrees>
            </Position>
            <AltitudeMeters>90.8000030517578125</AltitudeMeters>
            <DistanceMeters>NAN</DistanceMeters>
          </Trackpoint>
          <Trackpoint>
            <Time>2021-08-13T08:12:09.000Z</Time>
            <Position>
              <LatitudeDegrees>43.2371920533478260040283203125</LatitudeDegrees>
              <LongitudeDegrees>-1.9957759045064449310302734375</LongitudeDegrees>
            </Position>
            <AltitudeMeters>91</AltitudeMeters>
            <DistanceMeters>NAN</DistanceMeters>
          </Trackpoint>
          <Trackpoint>
            <Time>2021-08-13T08:12:10.000Z</Time>
            <Position>
              <LatitudeDegrees>43.23717109858989715576171875</LatitudeDegrees>
              <LongitudeDegrees>-1.9957802630960941314697265625</LongitudeDegrees>
            </Position>
            <AltitudeMeters>91.1999969482421875</AltitudeMeters>
            <DistanceMeters>NAN</DistanceMeters>
          </Trackpoint>
          <Trackpoint>
            <Time>2021-08-13T08:12:11.000Z</Time>
            <Position>
              <LatitudeDegrees>43.2371511496603488922119140625</LatitudeDegrees>
              <LongitudeDegrees>-1.9957899861037731170654296875</LongitudeDegrees>
            </Position>
            <AltitudeMeters>91.40000152587890625</AltitudeMeters>
            <DistanceMeters>NAN</DistanceMeters>
          </Trackpoint>
          <Trackpoint>
            <Time>2021-08-13T08:12:12.000Z</Time>
            <Position>
              <LatitudeDegrees>43.23712960816919803619384765625</LatitudeDegrees>
              <LongitudeDegrees>-1.99579878710210323333740234375</LongitudeDegrees>
            </Position>
            <AltitudeMeters>91.40000152587890625</AltitudeMeters>
            <DistanceMeters>NAN</DistanceMeters>
          </Trackpoint>
          <Trackpoint>
            <Time>2021-08-13T08:12:13.000Z</Time>
            <Position>
              <LatitudeDegrees>43.2371099106967449188232421875</LatitudeDegrees>
              <LongitudeDegrees>-1.9958040677011013031005859375</LongitudeDegrees>
            </Position>
            <AltitudeMeters>91.8000030517578125</AltitudeMeters>
            <DistanceMeters>NAN</DistanceMeters>
          </Trackpoint>
          <Trackpoint>
            <Time>2021-08-13T08:12:14.000Z</Time>
            <Position>
              <LatitudeDegrees>43.2370904646813869476318359375</LatitudeDegrees>
              <LongitudeDegrees>-1.99581203050911426544189453125</LongitudeDegrees>
            </Position>
            <AltitudeMeters>91.8000030517578125</AltitudeMeters>
            <DistanceMeters>NAN</DistanceMeters>
          </Trackpoint>
          <Trackpoint>
            <Time>2021-08-13T08:12:15.000Z</Time>
            <Position>
              <LatitudeDegrees>43.23707160539925098419189453125</LatitudeDegrees>
              <LongitudeDegrees>-1.99582359753549098968505859375</LongitudeDegrees>
            </Position>
            <AltitudeMeters>92</AltitudeMeters>
            <DistanceMeters>NAN</DistanceMeters>
          </Trackpoint>
          <Trackpoint>
            <Time>2021-08-13T08:12:16.000Z</Time>
            <Position>
              <LatitudeDegrees>43.2370525784790515899658203125</LatitudeDegrees>
              <LongitudeDegrees>-1.9958382658660411834716796875</LongitudeDegrees>
            </Position>
            <AltitudeMeters>92.1999969482421875</AltitudeMeters>
            <DistanceMeters>NAN</DistanceMeters>
          </Trackpoint>
          <Trackpoint>
            <Time>2021-08-13T08:12:17.000Z</Time>
            <Position>
              <LatitudeDegrees>43.237035982310771942138671875</LatitudeDegrees>
              <LongitudeDegrees>-1.99585075490176677703857421875</LongitudeDegrees>
            </Position>
            <AltitudeMeters>92.40000152587890625</AltitudeMeters>
            <DistanceMeters>NAN</DistanceMeters>
          </Trackpoint>
          <Trackpoint>
            <Time>2021-08-13T08:12:18.000Z</Time>
            <Position>
              <LatitudeDegrees>43.2370170392096042633056640625</LatitudeDegrees>
              <LongitudeDegrees>-1.99586885981261730194091796875</LongitudeDegrees>
            </Position>
            <AltitudeMeters>92.40000152587890625</AltitudeMeters>
            <DistanceMeters>NAN</DistanceMeters>
          </Trackpoint>
          <Trackpoint>
            <Time>2021-08-13T08:12:19.000Z</Time>
            <Position>
              <LatitudeDegrees>43.237003795802593231201171875</LatitudeDegrees>
              <LongitudeDegrees>-1.99589140713214874267578125</LongitudeDegrees>
            </Position>
            <AltitudeMeters>92.59999847412109375</AltitudeMeters>
            <DistanceMeters>NAN</DistanceMeters>
          </Trackpoint>
          <Trackpoint>
            <Time>2021-08-13T08:12:20.000Z</Time>
            <Position>
              <LatitudeDegrees>43.23699113912880420684814453125</LatitudeDegrees>
              <LongitudeDegrees>-1.995916552841663360595703125</LongitudeDegrees>
            </Position>
            <AltitudeMeters>92.8000030517578125</AltitudeMeters>
            <DistanceMeters>NAN</DistanceMeters>
          </Trackpoint>
          <Trackpoint>
            <Time>2021-08-13T08:12:21.000Z</Time>
            <Position>
              <LatitudeDegrees>43.23697865009307861328125</LatitudeDegrees>
              <LongitudeDegrees>-1.99594396166503429412841796875</LongitudeDegrees>
            </Position>
            <AltitudeMeters>93</AltitudeMeters>
            <DistanceMeters>NAN</DistanceMeters>
          </Trackpoint>
          <Trackpoint>
            <Time>2021-08-13T08:12:22.000Z</Time>
            <Position>
              <LatitudeDegrees>43.23696725070476531982421875</LatitudeDegrees>
              <LongitudeDegrees>-1.9959733821451663970947265625</LongitudeDegrees>
            </Position>
            <AltitudeMeters>93</AltitudeMeters>
            <DistanceMeters>NAN</DistanceMeters>
          </Trackpoint>
          <Trackpoint>
            <Time>2021-08-13T08:12:23.000Z</Time>
            <Position>
              <LatitudeDegrees>43.23695643804967403411865234375</LatitudeDegrees>
              <LongitudeDegrees>-1.995998360216617584228515625</LongitudeDegrees>
            </Position>
            <AltitudeMeters>93.40000152587890625</AltitudeMeters>
            <DistanceMeters>NAN</DistanceMeters>
          </Trackpoint>
          <Trackpoint>
            <Time>2021-08-13T08:12:24.000Z</Time>
            <Position>
              <LatitudeDegrees>43.23694554157555103302001953125</LatitudeDegrees>
              <LongitudeDegrees>-1.99602694250643253326416015625</LongitudeDegrees>
            </Position>
            <AltitudeMeters>93.40000152587890625</AltitudeMeters>
            <DistanceMeters>NAN</DistanceMeters>
          </Trackpoint>
          <Trackpoint>
            <Time>2021-08-13T08:12:25.000Z</Time>
            <Position>
              <LatitudeDegrees>43.236933387815952301025390625</LatitudeDegrees>
              <LongitudeDegrees>-1.99605694971978664398193359375</LongitudeDegrees>
            </Position>
            <AltitudeMeters>93.59999847412109375</AltitudeMeters>
            <DistanceMeters>NAN</DistanceMeters>
          </Trackpoint>
          <Trackpoint>
            <Time>2021-08-13T08:12:26.000Z</Time>
            <Position>
              <LatitudeDegrees>43.236920647323131561279296875</LatitudeDegrees>
              <LongitudeDegrees>-1.9960816763341426849365234375</LongitudeDegrees>
            </Position>
            <AltitudeMeters>93.59999847412109375</AltitudeMeters>
            <DistanceMeters>NAN</DistanceMeters>
          </Trackpoint>
          <Trackpoint>
            <Time>2021-08-13T08:12:27.000Z</Time>
            <Position>
              <LatitudeDegrees>43.23690690100193023681640625</LatitudeDegrees>
              <LongitudeDegrees>-1.9961044751107692718505859375</LongitudeDegrees>
            </Position>
            <AltitudeMeters>93.8000030517578125</AltitudeMeters>
            <DistanceMeters>NAN</DistanceMeters>
          </Trackpoint>
          <Trackpoint>
            <Time>2021-08-13T08:12:28.000Z</Time>
            <Position>
              <LatitudeDegrees>43.23689575307071208953857421875</LatitudeDegrees>
              <LongitudeDegrees>-1.9961307942867279052734375</LongitudeDegrees>
            </Position>
            <AltitudeMeters>93.8000030517578125</AltitudeMeters>
            <DistanceMeters>NAN</DistanceMeters>
          </Trackpoint>
          <Trackpoint>
            <Time>2021-08-13T08:12:29.000Z</Time>
            <Position>
              <LatitudeDegrees>43.23688452132046222686767578125</LatitudeDegrees>
              <LongitudeDegrees>-1.9961574487388134002685546875</LongitudeDegrees>
            </Position>
            <AltitudeMeters>94</AltitudeMeters>
            <DistanceMeters>NAN</DistanceMeters>
          </Trackpoint>
          <Trackpoint>
            <Time>2021-08-13T08:12:30.000Z</Time>
            <Position>
              <LatitudeDegrees>43.23687203228473663330078125</LatitudeDegrees>
              <LongitudeDegrees>-1.99618284590542316436767578125</LongitudeDegrees>
            </Position>
            <AltitudeMeters>94.1999969482421875</AltitudeMeters>
            <DistanceMeters>NAN</DistanceMeters>
          </Trackpoint>
          <Trackpoint>
            <Time>2021-08-13T08:12:31.000Z</Time>
            <Position>
              <LatitudeDegrees>43.23685836978256702423095703125</LatitudeDegrees>
              <LongitudeDegrees>-1.99620665051043033599853515625</LongitudeDegrees>
            </Position>
            <AltitudeMeters>94.40000152587890625</AltitudeMeters>
            <DistanceMeters>NAN</DistanceMeters>
          </Trackpoint>
          <Trackpoint>
            <Time>2021-08-13T08:12:32.000Z</Time>
            <Position>
              <LatitudeDegrees>43.23684177361428737640380859375</LatitudeDegrees>
              <LongitudeDegrees>-1.99622844345867633819580078125</LongitudeDegrees>
            </Position>
            <AltitudeMeters>94.59999847412109375</AltitudeMeters>
            <DistanceMeters>NAN</DistanceMeters>
          </Trackpoint>
          <Trackpoint>
            <Time>2021-08-13T08:12:33.000Z</Time>
            <Position>
              <LatitudeDegrees>43.23682467453181743621826171875</LatitudeDegrees>
              <LongitudeDegrees>-1.996247805655002593994140625</LongitudeDegrees>
            </Position>
            <AltitudeMeters>94.8000030517578125</AltitudeMeters>
            <DistanceMeters>NAN</DistanceMeters>
          </Trackpoint>
          <Trackpoint>
            <Time>2021-08-13T08:12:34.000Z</Time>
            <Position>
              <LatitudeDegrees>43.23680724017322063446044921875</LatitudeDegrees>
              <LongitudeDegrees>-1.9962627254426479339599609375</LongitudeDegrees>
            </Position>
            <AltitudeMeters>95</AltitudeMeters>
            <DistanceMeters>NAN</DistanceMeters>
          </Trackpoint>
          <Trackpoint>
            <Time>2021-08-13T08:12:35.000Z</Time>
            <Position>
              <LatitudeDegrees>43.2367903925478458404541015625</LatitudeDegrees>
              <LongitudeDegrees>-1.9962756335735321044921875</LongitudeDegrees>
            </Position>
            <AltitudeMeters>95.1999969482421875</AltitudeMeters>
            <DistanceMeters>NAN</DistanceMeters>
          </Trackpoint>
          <Trackpoint>
            <Time>2021-08-13T08:12:36.000Z</Time>
            <Position>
              <LatitudeDegrees>43.2367746345698833465576171875</LatitudeDegrees>
              <LongitudeDegrees>-1.99629373848438262939453125</LongitudeDegrees>
            </Position>
            <AltitudeMeters>95.1999969482421875</AltitudeMeters>
            <DistanceMeters>NAN</DistanceMeters>
          </Trackpoint>
          <Trackpoint>
            <Time>2021-08-13T08:12:37.000Z</Time>
            <Position>
              <LatitudeDegrees>43.23675669729709625244140625</LatitudeDegrees>
              <LongitudeDegrees>-1.996312849223613739013671875</LongitudeDegrees>
            </Position>
            <AltitudeMeters>95.40000152587890625</AltitudeMeters>
            <DistanceMeters>NAN</DistanceMeters>
          </Trackpoint>
          <Trackpoint>
            <Time>2021-08-13T08:12:38.000Z</Time>
            <Position>
              <LatitudeDegrees>43.2367364130914211273193359375</LatitudeDegrees>
              <LongitudeDegrees>-1.99632500298321247100830078125</LongitudeDegrees>
            </Position>
            <AltitudeMeters>95.40000152587890625</AltitudeMeters>
            <DistanceMeters>NAN</DistanceMeters>
          </Trackpoint>
          <Trackpoint>
            <Time>2021-08-13T08:12:39.000Z</Time>
            <Position>
              <LatitudeDegrees>43.23671654798090457916259765625</LatitudeDegrees>
              <LongitudeDegrees>-1.99633506126701831817626953125</LongitudeDegrees>
            </Position>
            <AltitudeMeters>95.59999847412109375</AltitudeMeters>
            <DistanceMeters>NAN</DistanceMeters>
          </Trackpoint>
          <Trackpoint>
            <Time>2021-08-13T08:12:40.000Z</Time>
            <Position>
              <LatitudeDegrees>43.236695341765880584716796875</LatitudeDegrees>
              <LongitudeDegrees>-1.99634428136050701141357421875</LongitudeDegrees>
            </Position>
            <AltitudeMeters>95.8000030517578125</AltitudeMeters>
            <DistanceMeters>NAN</DistanceMeters>
          </Trackpoint>
          <Trackpoint>
            <Time>2021-08-13T08:12:41.000Z</Time>
            <Position>
              <LatitudeDegrees>43.23667396791279315948486328125</LatitudeDegrees>
              <LongitudeDegrees>-1.996353752911090850830078125</LongitudeDegrees>
            </Position>
            <AltitudeMeters>96</AltitudeMeters>
            <DistanceMeters>NAN</DistanceMeters>
          </Trackpoint>
          <Trackpoint>
            <Time>2021-08-13T08:12:42.000Z</Time>
            <Position>
              <LatitudeDegrees>43.2366527616977691650390625</LatitudeDegrees>
              <LongitudeDegrees>-1.99636104516685009002685546875</LongitudeDegrees>
            </Position>
            <AltitudeMeters>96.1999969482421875</AltitudeMeters>
            <DistanceMeters>NAN</DistanceMeters>
          </Trackpoint>
          <Trackpoint>
            <Time>2021-08-13T08:12:43.000Z</Time>
            <Position>
              <LatitudeDegrees>43.23663138784468173980712890625</LatitudeDegrees>
              <LongitudeDegrees>-1.9963663257658481597900390625</LongitudeDegrees>
            </Position>
            <AltitudeMeters>96.1999969482421875</AltitudeMeters>
            <DistanceMeters>NAN</DistanceMeters>
          </Trackpoint>
          <Trackpoint>
            <Time>2021-08-13T08:12:44.000Z</Time>
            <Position>
              <LatitudeDegrees>43.23661009781062602996826171875</LatitudeDegrees>
              <LongitudeDegrees>-1.99637009762227535247802734375</LongitudeDegrees>
            </Position>
            <AltitudeMeters>96.40000152587890625</AltitudeMeters>
            <DistanceMeters>NAN</DistanceMeters>
          </Trackpoint>
          <Trackpoint>
            <Time>2021-08-13T08:12:45.000Z</Time>
            <Position>
              <LatitudeDegrees>43.23658813722431659698486328125</LatitudeDegrees>
              <LongitudeDegrees>-1.99637630023062229156494140625</LongitudeDegrees>
            </Position>
            <AltitudeMeters>96.40000152587890625</AltitudeMeters>
            <DistanceMeters>NAN</DistanceMeters>
          </Trackpoint>
          <Trackpoint>
            <Time>2021-08-13T08:12:46.000Z</Time>
            <Position>
              <LatitudeDegrees>43.236565925180912017822265625</LatitudeDegrees>
              <LongitudeDegrees>-1.99637998826801776885986328125</LongitudeDegrees>
            </Position>
            <AltitudeMeters>96.59999847412109375</AltitudeMeters>
            <DistanceMeters>NAN</DistanceMeters>
          </Trackpoint>
          <Trackpoint>
            <Time>2021-08-13T08:12:47.000Z</Time>
            <Position>
              <LatitudeDegrees>43.23654270730912685394287109375</LatitudeDegrees>
              <LongitudeDegrees>-1.996381916105747222900390625</LongitudeDegrees>
            </Position>
            <AltitudeMeters>96.8000030517578125</AltitudeMeters>
            <DistanceMeters>NAN</DistanceMeters>
          </Trackpoint>
          <Trackpoint>
            <Time>2021-08-13T08:12:48.000Z</Time>
            <Position>
              <LatitudeDegrees>43.23651974089443683624267578125</LatitudeDegrees>
              <LongitudeDegrees>-1.99638283811509609222412109375</LongitudeDegrees>
            </Position>
            <AltitudeMeters>96.8000030517578125</AltitudeMeters>
            <DistanceMeters>NAN</DistanceMeters>
          </Trackpoint>
          <Trackpoint>
            <Time>2021-08-13T08:12:49.000Z</Time>
            <Position>
              <LatitudeDegrees>43.2364971935749053955078125</LatitudeDegrees>
              <LongitudeDegrees>-1.99638426303863525390625</LongitudeDegrees>
            </Position>
            <AltitudeMeters>97</AltitudeMeters>
            <DistanceMeters>NAN</DistanceMeters>
          </Trackpoint>
          <Trackpoint>
            <Time>2021-08-13T08:12:50.000Z</Time>
            <Position>
              <LatitudeDegrees>43.23647414334118366241455078125</LatitudeDegrees>
              <LongitudeDegrees>-1.99638317339122295379638671875</LongitudeDegrees>
            </Position>
            <AltitudeMeters>97</AltitudeMeters>
            <DistanceMeters>NAN</DistanceMeters>
          </Trackpoint>
          <Trackpoint>
            <Time>2021-08-13T08:12:51.000Z</Time>
            <Position>
              <LatitudeDegrees>43.2364514283835887908935546875</LatitudeDegrees>
              <LongitudeDegrees>-1.99638132937252521514892578125</LongitudeDegrees>
            </Position>
            <AltitudeMeters>97.1999969482421875</AltitudeMeters>
            <DistanceMeters>NAN</DistanceMeters>
          </Trackpoint>
          <Trackpoint>
            <Time>2021-08-13T08:12:52.000Z</Time>
            <Position>
              <LatitudeDegrees>43.23642988689243793487548828125</LatitudeDegrees>
              <LongitudeDegrees>-1.9963773898780345916748046875</LongitudeDegrees>
            </Position>
            <AltitudeMeters>97.40000152587890625</AltitudeMeters>
            <DistanceMeters>NAN</DistanceMeters>
          </Trackpoint>
          <Trackpoint>
            <Time>2021-08-13T08:12:53.000Z</Time>
            <Position>
              <LatitudeDegrees>43.23640826158225536346435546875</LatitudeDegrees>
              <LongitudeDegrees>-1.9963706843554973602294921875</LongitudeDegrees>
            </Position>
            <AltitudeMeters>97.40000152587890625</AltitudeMeters>
            <DistanceMeters>NAN</DistanceMeters>
          </Trackpoint>
          <Trackpoint>
            <Time>2021-08-13T08:12:54.000Z</Time>
            <Position>
              <LatitudeDegrees>43.236387558281421661376953125</LatitudeDegrees>
              <LongitudeDegrees>-1.99636439792811870574951171875</LongitudeDegrees>
            </Position>
            <AltitudeMeters>97.59999847412109375</AltitudeMeters>
            <DistanceMeters>NAN</DistanceMeters>
          </Trackpoint>
          <Trackpoint>
            <Time>2021-08-13T08:12:55.000Z</Time>
            <Position>
              <LatitudeDegrees>43.2363645918667316436767578125</LatitudeDegrees>
              <LongitudeDegrees>-1.99635903351008892059326171875</LongitudeDegrees>
            </Position>
            <AltitudeMeters>97.59999847412109375</AltitudeMeters>
            <DistanceMeters>NAN</DistanceMeters>
          </Trackpoint>
          <Trackpoint>
            <Time>2021-08-13T08:12:56.000Z</Time>
            <Position>
              <LatitudeDegrees>43.2363407872617244720458984375</LatitudeDegrees>
              <LongitudeDegrees>-1.99635685421526432037353515625</LongitudeDegrees>
            </Position>
            <AltitudeMeters>97.8000030517578125</AltitudeMeters>
            <DistanceMeters>NAN</DistanceMeters>
          </Trackpoint>
          <Trackpoint>
            <Time>2021-08-13T08:12:57.000Z</Time>
            <Position>
              <LatitudeDegrees>43.23631606064736843109130859375</LatitudeDegrees>
              <LongitudeDegrees>-1.9963534176349639892578125</LongitudeDegrees>
            </Position>
            <AltitudeMeters>97.8000030517578125</AltitudeMeters>
            <DistanceMeters>NAN</DistanceMeters>
          </Trackpoint>
          <Trackpoint>
            <Time>2021-08-13T08:12:58.000Z</Time>
            <Position>
              <LatitudeDegrees>43.23629267513751983642578125</LatitudeDegrees>
              <LongitudeDegrees>-1.9963467121124267578125</LongitudeDegrees>
            </Position>
            <AltitudeMeters>98.1999969482421875</AltitudeMeters>
            <DistanceMeters>NAN</DistanceMeters>
          </Trackpoint>
          <Trackpoint>
            <Time>2021-08-13T08:12:59.000Z</Time>
            <Position>
              <LatitudeDegrees>43.236269541084766387939453125</LatitudeDegrees>
              <LongitudeDegrees>-1.99633606709539890289306640625</LongitudeDegrees>
            </Position>
            <AltitudeMeters>98.1999969482421875</AltitudeMeters>
            <DistanceMeters>NAN</DistanceMeters>
          </Trackpoint>
          <Trackpoint>
            <Time>2021-08-13T08:13:00.000Z</Time>
            <Position>
              <LatitudeDegrees>43.23624732904136180877685546875</LatitudeDegrees>
              <LongitudeDegrees>-1.99632726609706878662109375</LongitudeDegrees>
            </Position>
            <AltitudeMeters>98.40000152587890625</AltitudeMeters>
            <DistanceMeters>NAN</DistanceMeters>
          </Trackpoint>
          <Trackpoint>
            <Time>2021-08-13T08:13:01.000Z</Time>
            <Position>
              <LatitudeDegrees>43.23622561991214752197265625</LatitudeDegrees>
              <LongitudeDegrees>-1.996320895850658416748046875</LongitudeDegrees>
            </Position>
            <AltitudeMeters>98.59999847412109375</AltitudeMeters>
            <DistanceMeters>NAN</DistanceMeters>
          </Trackpoint>
          <Trackpoint>
            <Time>2021-08-13T08:13:02.000Z</Time>
            <Position>
              <LatitudeDegrees>43.23620340786874294281005859375</LatitudeDegrees>
              <LongitudeDegrees>-1.996317207813262939453125</LongitudeDegrees>
            </Position>
            <AltitudeMeters>98.8000030517578125</AltitudeMeters>
            <DistanceMeters>NAN</DistanceMeters>
          </Trackpoint>
          <Trackpoint>
            <Time>2021-08-13T08:13:03.000Z</Time>
            <Position>
              <LatitudeDegrees>43.236181028187274932861328125</LatitudeDegrees>
              <LongitudeDegrees>-1.9963106699287891387939453125</LongitudeDegrees>
            </Position>
            <AltitudeMeters>99</AltitudeMeters>
            <DistanceMeters>NAN</DistanceMeters>
          </Trackpoint>
          <Trackpoint>
            <Time>2021-08-13T08:13:04.000Z</Time>
            <Position>
              <LatitudeDegrees>43.23615990579128265380859375</LatitudeDegrees>
              <LongitudeDegrees>-1.996302790939807891845703125</LongitudeDegrees>
            </Position>
            <AltitudeMeters>99</AltitudeMeters>
            <DistanceMeters>NAN</DistanceMeters>
          </Trackpoint>
          <Trackpoint>
            <Time>2021-08-13T08:13:05.000Z</Time>
            <Position>
              <LatitudeDegrees>43.2361399568617343902587890625</LatitudeDegrees>
              <LongitudeDegrees>-1.9962932355701923370361328125</LongitudeDegrees>
            </Position>
            <AltitudeMeters>99.1999969482421875</AltitudeMeters>
            <DistanceMeters>NAN</DistanceMeters>
          </Trackpoint>
          <Trackpoint>
            <Time>2021-08-13T08:13:06.000Z</Time>
            <Position>
              <LatitudeDegrees>43.236119337379932403564453125</LatitudeDegrees>
              <LongitudeDegrees>-1.996284015476703643798828125</LongitudeDegrees>
            </Position>
            <AltitudeMeters>99.1999969482421875</AltitudeMeters>
            <DistanceMeters>NAN</DistanceMeters>
          </Trackpoint>
          <Trackpoint>
            <Time>2021-08-13T08:13:07.000Z</Time>
            <Position>
              <LatitudeDegrees>43.23609888553619384765625</LatitudeDegrees>
              <LongitudeDegrees>-1.99627722613513469696044921875</LongitudeDegrees>
            </Position>
            <AltitudeMeters>99.40000152587890625</AltitudeMeters>
            <DistanceMeters>NAN</DistanceMeters>
          </Trackpoint>
          <Trackpoint>
            <Time>2021-08-13T08:13:08.000Z</Time>
            <Position>
              <LatitudeDegrees>43.2360786013305187225341796875</LatitudeDegrees>
              <LongitudeDegrees>-1.996269933879375457763671875</LongitudeDegrees>
            </Position>
            <AltitudeMeters>99.40000152587890625</AltitudeMeters>
            <DistanceMeters>NAN</DistanceMeters>
          </Trackpoint>
          <Trackpoint>
            <Time>2021-08-13T08:13:09.000Z</Time>
            <Position>
              <LatitudeDegrees>43.23605672456324100494384765625</LatitudeDegrees>
              <LongitudeDegrees>-1.996260546147823333740234375</LongitudeDegrees>
            </Position>
            <AltitudeMeters>99.59999847412109375</AltitudeMeters>
            <DistanceMeters>NAN</DistanceMeters>
          </Trackpoint>
          <Trackpoint>
            <Time>2021-08-13T08:13:10.000Z</Time>
            <Position>
              <LatitudeDegrees>43.23603560216724872589111328125</LatitudeDegrees>
              <LongitudeDegrees>-1.99624906294047832489013671875</LongitudeDegrees>
            </Position>
            <AltitudeMeters>99.8000030517578125</AltitudeMeters>
            <DistanceMeters>NAN</DistanceMeters>
          </Trackpoint>
          <Trackpoint>
            <Time>2021-08-13T08:13:11.000Z</Time>
            <Position>
              <LatitudeDegrees>43.2360152341425418853759765625</LatitudeDegrees>
              <LongitudeDegrees>-1.996235735714435577392578125</LongitudeDegrees>
            </Position>
            <AltitudeMeters>99.8000030517578125</AltitudeMeters>
            <DistanceMeters>NAN</DistanceMeters>
          </Trackpoint>
          <Trackpoint>
            <Time>2021-08-13T08:13:12.000Z</Time>
            <Position>
              <LatitudeDegrees>43.23599486611783504486083984375</LatitudeDegrees>
              <LongitudeDegrees>-1.9962221570312976837158203125</LongitudeDegrees>
            </Position>
            <AltitudeMeters>99.8000030517578125</AltitudeMeters>
            <DistanceMeters>NAN</DistanceMeters>
          </Trackpoint>
          <Trackpoint>
            <Time>2021-08-13T08:13:13.000Z</Time>
            <Position>
              <LatitudeDegrees>43.2359746657311916351318359375</LatitudeDegrees>
              <LongitudeDegrees>-1.996209919452667236328125</LongitudeDegrees>
            </Position>
            <AltitudeMeters>100</AltitudeMeters>
            <DistanceMeters>NAN</DistanceMeters>
          </Trackpoint>
          <Trackpoint>
            <Time>2021-08-13T08:13:14.000Z</Time>
            <Position>
              <LatitudeDegrees>43.23595480062067508697509765625</LatitudeDegrees>
              <LongitudeDegrees>-1.9961986877024173736572265625</LongitudeDegrees>
            </Position>
            <AltitudeMeters>100.1999969482421875</AltitudeMeters>
            <DistanceMeters>NAN</DistanceMeters>
          </Trackpoint>
          <Trackpoint>
            <Time>2021-08-13T08:13:15.000Z</Time>
            <Position>
              <LatitudeDegrees>43.23593485169112682342529296875</LatitudeDegrees>
              <LongitudeDegrees>-1.99618468992412090301513671875</LongitudeDegrees>
            </Position>
            <AltitudeMeters>100.1999969482421875</AltitudeMeters>
            <DistanceMeters>NAN</DistanceMeters>
          </Trackpoint>
          <Trackpoint>
            <Time>2021-08-13T08:13:16.000Z</Time>
            <Position>
              <LatitudeDegrees>43.23591490276157855987548828125</LatitudeDegrees>
              <LongitudeDegrees>-1.99617312289774417877197265625</LongitudeDegrees>
            </Position>
            <AltitudeMeters>100.40000152587890625</AltitudeMeters>
            <DistanceMeters>NAN</DistanceMeters>
          </Trackpoint>
          <Trackpoint>
            <Time>2021-08-13T08:13:17.000Z</Time>
            <Position>
              <LatitudeDegrees>43.23589545674622058868408203125</LatitudeDegrees>
              <LongitudeDegrees>-1.99616122059524059295654296875</LongitudeDegrees>
            </Position>
            <AltitudeMeters>100.59999847412109375</AltitudeMeters>
            <DistanceMeters>NAN</DistanceMeters>
          </Trackpoint>
          <Trackpoint>
            <Time>2021-08-13T08:13:18.000Z</Time>
            <Position>
              <LatitudeDegrees>43.23587500490248203277587890625</LatitudeDegrees>
              <LongitudeDegrees>-1.996148563921451568603515625</LongitudeDegrees>
            </Position>
            <AltitudeMeters>100.59999847412109375</AltitudeMeters>
            <DistanceMeters>NAN</DistanceMeters>
          </Trackpoint>
          <Trackpoint>
            <Time>2021-08-13T08:13:19.000Z</Time>
            <Position>
              <LatitudeDegrees>43.2358532957732677459716796875</LatitudeDegrees>
              <LongitudeDegrees>-1.99613657779991626739501953125</LongitudeDegrees>
            </Position>
            <AltitudeMeters>100.59999847412109375</AltitudeMeters>
            <DistanceMeters>NAN</DistanceMeters>
          </Trackpoint>
          <Trackpoint>
            <Time>2021-08-13T08:13:20.000Z</Time>
            <Position>
              <LatitudeDegrees>43.235832341015338897705078125</LatitudeDegrees>
              <LongitudeDegrees>-1.99612316675484180450439453125</LongitudeDegrees>
            </Position>
            <AltitudeMeters>100.8000030517578125</AltitudeMeters>
            <DistanceMeters>NAN</DistanceMeters>
          </Trackpoint>
          <Trackpoint>
            <Time>2021-08-13T08:13:21.000Z</Time>
            <Position>
              <LatitudeDegrees>43.23581331409513950347900390625</LatitudeDegrees>
              <LongitudeDegrees>-1.99610942043364048004150390625</LongitudeDegrees>
            </Position>
            <AltitudeMeters>100.59999847412109375</AltitudeMeters>
            <DistanceMeters>NAN</DistanceMeters>
          </Trackpoint>
          <Trackpoint>
            <Time>2021-08-13T08:13:22.000Z</Time>
            <Position>
              <LatitudeDegrees>43.23579403571784496307373046875</LatitudeDegrees>
              <LongitudeDegrees>-1.9960947521030902862548828125</LongitudeDegrees>
            </Position>
            <AltitudeMeters>101</AltitudeMeters>
            <DistanceMeters>NAN</DistanceMeters>
          </Trackpoint>
          <Trackpoint>
            <Time>2021-08-13T08:13:23.000Z</Time>
            <Position>
              <LatitudeDegrees>43.23577509261667728424072265625</LatitudeDegrees>
              <LongitudeDegrees>-1.9960803352296352386474609375</LongitudeDegrees>
            </Position>
            <AltitudeMeters>101</AltitudeMeters>
            <DistanceMeters>NAN</DistanceMeters>
          </Trackpoint>
          <Trackpoint>
            <Time>2021-08-13T08:13:24.000Z</Time>
            <Position>
              <LatitudeDegrees>43.23575564660131931304931640625</LatitudeDegrees>
              <LongitudeDegrees>-1.9960665889084339141845703125</LongitudeDegrees>
            </Position>
            <AltitudeMeters>101.1999969482421875</AltitudeMeters>
            <DistanceMeters>NAN</DistanceMeters>
          </Trackpoint>
          <Trackpoint>
            <Time>2021-08-13T08:13:25.000Z</Time>
            <Position>
              <LatitudeDegrees>43.235736787319183349609375</LatitudeDegrees>
              <LongitudeDegrees>-1.99605309404432773590087890625</LongitudeDegrees>
            </Position>
            <AltitudeMeters>101.40000152587890625</AltitudeMeters>
            <DistanceMeters>NAN</DistanceMeters>
          </Trackpoint>
          <Trackpoint>
            <Time>2021-08-13T08:13:26.000Z</Time>
            <Position>
              <LatitudeDegrees>43.23571742512285709381103515625</LatitudeDegrees>
              <LongitudeDegrees>-1.99603767134249210357666015625</LongitudeDegrees>
            </Position>
            <AltitudeMeters>101.40000152587890625</AltitudeMeters>
            <DistanceMeters>NAN</DistanceMeters>
          </Trackpoint>
          <Trackpoint>
            <Time>2021-08-13T08:13:27.000Z</Time>
            <Position>
              <LatitudeDegrees>43.23569898493587970733642578125</LatitudeDegrees>
              <LongitudeDegrees>-1.996023841202259063720703125</LongitudeDegrees>
            </Position>
            <AltitudeMeters>101.59999847412109375</AltitudeMeters>
            <DistanceMeters>NAN</DistanceMeters>
          </Trackpoint>
          <Trackpoint>
            <Time>2021-08-13T08:13:28.000Z</Time>
            <Position>
              <LatitudeDegrees>43.2356782816350460052490234375</LatitudeDegrees>
              <LongitudeDegrees>-1.99600808322429656982421875</LongitudeDegrees>
            </Position>
            <AltitudeMeters>101.8000030517578125</AltitudeMeters>
            <DistanceMeters>NAN</DistanceMeters>
          </Trackpoint>
          <Trackpoint>
            <Time>2021-08-13T08:13:29.000Z</Time>
            <Position>
              <LatitudeDegrees>43.235657326877117156982421875</LatitudeDegrees>
              <LongitudeDegrees>-1.99599207378923892974853515625</LongitudeDegrees>
            </Position>
            <AltitudeMeters>102</AltitudeMeters>
            <DistanceMeters>NAN</DistanceMeters>
          </Trackpoint>
          <Trackpoint>
            <Time>2021-08-13T08:13:30.000Z</Time>
            <Position>
              <LatitudeDegrees>43.23563813231885433197021484375</LatitudeDegrees>
              <LongitudeDegrees>-1.99597715400159358978271484375</LongitudeDegrees>
            </Position>
            <AltitudeMeters>102</AltitudeMeters>
            <DistanceMeters>NAN</DistanceMeters>
          </Trackpoint>
          <Trackpoint>
            <Time>2021-08-13T08:13:31.000Z</Time>
            <Position>
              <LatitudeDegrees>43.235619775950908660888671875</LatitudeDegrees>
              <LongitudeDegrees>-1.995964162051677703857421875</LongitudeDegrees>
            </Position>
            <AltitudeMeters>102.40000152587890625</AltitudeMeters>
            <DistanceMeters>NAN</DistanceMeters>
          </Trackpoint>
          <Trackpoint>
            <Time>2021-08-13T08:13:32.000Z</Time>
            <Position>
              <LatitudeDegrees>43.23559907265007495880126953125</LatitudeDegrees>
              <LongitudeDegrees>-1.99595083482563495635986328125</LongitudeDegrees>
            </Position>
            <AltitudeMeters>102.40000152587890625</AltitudeMeters>
            <DistanceMeters>NAN</DistanceMeters>
          </Trackpoint>
          <Trackpoint>
            <Time>2021-08-13T08:13:33.000Z</Time>
            <Position>
              <LatitudeDegrees>43.23557711206376552581787109375</LatitudeDegrees>
              <LongitudeDegrees>-1.995937339961528778076171875</LongitudeDegrees>
            </Position>
            <AltitudeMeters>102.59999847412109375</AltitudeMeters>
            <DistanceMeters>NAN</DistanceMeters>
          </Trackpoint>
          <Trackpoint>
            <Time>2021-08-13T08:13:34.000Z</Time>
            <Position>
              <LatitudeDegrees>43.23555883951485157012939453125</LatitudeDegrees>
              <LongitudeDegrees>-1.99592283926904201507568359375</LongitudeDegrees>
            </Position>
            <AltitudeMeters>102.59999847412109375</AltitudeMeters>
            <DistanceMeters>NAN</DistanceMeters>
          </Trackpoint>
          <Trackpoint>
            <Time>2021-08-13T08:13:35.000Z</Time>
            <Position>
              <LatitudeDegrees>43.2355396449565887451171875</LatitudeDegrees>
              <LongitudeDegrees>-1.99590842239558696746826171875</LongitudeDegrees>
            </Position>
            <AltitudeMeters>102.8000030517578125</AltitudeMeters>
            <DistanceMeters>NAN</DistanceMeters>
          </Trackpoint>
          <Trackpoint>
            <Time>2021-08-13T08:13:36.000Z</Time>
            <Position>
              <LatitudeDegrees>43.2355207018554210662841796875</LatitudeDegrees>
              <LongitudeDegrees>-1.995894424617290496826171875</LongitudeDegrees>
            </Position>
            <AltitudeMeters>103</AltitudeMeters>
            <DistanceMeters>NAN</DistanceMeters>
          </Trackpoint>
          <Trackpoint>
            <Time>2021-08-13T08:13:37.000Z</Time>
            <Position>
              <LatitudeDegrees>43.2354999147355556488037109375</LatitudeDegrees>
              <LongitudeDegrees>-1.9958798401057720184326171875</LongitudeDegrees>
            </Position>
            <AltitudeMeters>103.1999969482421875</AltitudeMeters>
            <DistanceMeters>NAN</DistanceMeters>
          </Trackpoint>
          <Trackpoint>
            <Time>2021-08-13T08:13:38.000Z</Time>
            <Position>
              <LatitudeDegrees>43.23547854088246822357177734375</LatitudeDegrees>
              <LongitudeDegrees>-1.99586592614650726318359375</LongitudeDegrees>
            </Position>
            <AltitudeMeters>103.40000152587890625</AltitudeMeters>
            <DistanceMeters>NAN</DistanceMeters>
          </Trackpoint>
          <Trackpoint>
            <Time>2021-08-13T08:13:39.000Z</Time>
            <Position>
              <LatitudeDegrees>43.23545708321034908294677734375</LatitudeDegrees>
              <LongitudeDegrees>-1.9958530180156230926513671875</LongitudeDegrees>
            </Position>
            <AltitudeMeters>103.40000152587890625</AltitudeMeters>
            <DistanceMeters>NAN</DistanceMeters>
          </Trackpoint>
          <Trackpoint>
            <Time>2021-08-13T08:13:40.000Z</Time>
            <Position>
              <LatitudeDegrees>43.2354368828237056732177734375</LatitudeDegrees>
              <LongitudeDegrees>-1.99583910405635833740234375</LongitudeDegrees>
            </Position>
            <AltitudeMeters>103.59999847412109375</AltitudeMeters>
            <DistanceMeters>NAN</DistanceMeters>
          </Trackpoint>
          <Trackpoint>
            <Time>2021-08-13T08:13:41.000Z</Time>
            <Position>
              <LatitudeDegrees>43.2354150898754596710205078125</LatitudeDegrees>
              <LongitudeDegrees>-1.99582376517355442047119140625</LongitudeDegrees>
            </Position>
            <AltitudeMeters>103.59999847412109375</AltitudeMeters>
            <DistanceMeters>NAN</DistanceMeters>
          </Trackpoint>
          <Trackpoint>
            <Time>2021-08-13T08:13:42.000Z</Time>
            <Position>
              <LatitudeDegrees>43.23539153672754764556884765625</LatitudeDegrees>
              <LongitudeDegrees>-1.9958116114139556884765625</LongitudeDegrees>
            </Position>
            <AltitudeMeters>103.59999847412109375</AltitudeMeters>
            <DistanceMeters>NAN</DistanceMeters>
          </Trackpoint>
          <Trackpoint>
            <Time>2021-08-13T08:13:43.000Z</Time>
            <Position>
              <LatitudeDegrees>43.23536957614123821258544921875</LatitudeDegrees>
              <LongitudeDegrees>-1.9958017207682132720947265625</LongitudeDegrees>
            </Position>
            <AltitudeMeters>103.8000030517578125</AltitudeMeters>
            <DistanceMeters>NAN</DistanceMeters>
          </Trackpoint>
          <Trackpoint>
            <Time>2021-08-13T08:13:44.000Z</Time>
            <Position>
              <LatitudeDegrees>43.23534694500267505645751953125</LatitudeDegrees>
              <LongitudeDegrees>-1.99579375796020030975341796875</LongitudeDegrees>
            </Position>
            <AltitudeMeters>103.8000030517578125</AltitudeMeters>
            <DistanceMeters>NAN</DistanceMeters>
          </Trackpoint>
          <Trackpoint>
            <Time>2021-08-13T08:13:45.000Z</Time>
            <Position>
              <LatitudeDegrees>43.23532263748347759246826171875</LatitudeDegrees>
              <LongitudeDegrees>-1.99578889645636081695556640625</LongitudeDegrees>
            </Position>
            <AltitudeMeters>103.8000030517578125</AltitudeMeters>
            <DistanceMeters>NAN</DistanceMeters>
          </Trackpoint>
          <Trackpoint>
            <Time>2021-08-13T08:13:46.000Z</Time>
            <Position>
              <LatitudeDegrees>43.23529682122170925140380859375</LatitudeDegrees>
              <LongitudeDegrees>-1.99578420259058475494384765625</LongitudeDegrees>
            </Position>
            <AltitudeMeters>103.8000030517578125</AltitudeMeters>
            <DistanceMeters>NAN</DistanceMeters>
          </Trackpoint>
          <Trackpoint>
            <Time>2021-08-13T08:13:47.000Z</Time>
            <Position>
              <LatitudeDegrees>43.23527368716895580291748046875</LatitudeDegrees>
              <LongitudeDegrees>-1.9957842864096164703369140625</LongitudeDegrees>
            </Position>
            <AltitudeMeters>104</AltitudeMeters>
            <DistanceMeters>NAN</DistanceMeters>
          </Trackpoint>
          <Trackpoint>
            <Time>2021-08-13T08:13:48.000Z</Time>
            <Position>
              <LatitudeDegrees>43.23525088839232921600341796875</LatitudeDegrees>
              <LongitudeDegrees>-1.99578789062798023223876953125</LongitudeDegrees>
            </Position>
            <AltitudeMeters>104</AltitudeMeters>
            <DistanceMeters>NAN</DistanceMeters>
          </Trackpoint>
          <Trackpoint>
            <Time>2021-08-13T08:13:49.000Z</Time>
            <Position>
              <LatitudeDegrees>43.235228173434734344482421875</LatitudeDegrees>
              <LongitudeDegrees>-1.99579375796020030975341796875</LongitudeDegrees>
            </Position>
            <AltitudeMeters>104.1999969482421875</AltitudeMeters>
            <DistanceMeters>NAN</DistanceMeters>
          </Trackpoint>
          <Trackpoint>
            <Time>2021-08-13T08:13:50.000Z</Time>
            <Position>
              <LatitudeDegrees>43.2352065481245517730712890625</LatitudeDegrees>
              <LongitudeDegrees>-1.99579979293048381805419921875</LongitudeDegrees>
            </Position>
            <AltitudeMeters>104.1999969482421875</AltitudeMeters>
            <DistanceMeters>NAN</DistanceMeters>
          </Trackpoint>
          <Trackpoint>
            <Time>2021-08-13T08:13:51.000Z</Time>
            <Position>
              <LatitudeDegrees>43.2351840846240520477294921875</LatitudeDegrees>
              <LongitudeDegrees>-1.99580968357622623443603515625</LongitudeDegrees>
            </Position>
            <AltitudeMeters>104.40000152587890625</AltitudeMeters>
            <DistanceMeters>NAN</DistanceMeters>
          </Trackpoint>
          <Trackpoint>
            <Time>2021-08-13T08:13:52.000Z</Time>
            <Position>
              <LatitudeDegrees>43.23516078293323516845703125</LatitudeDegrees>
              <LongitudeDegrees>-1.99582158587872982025146484375</LongitudeDegrees>
            </Position>
            <AltitudeMeters>104.59999847412109375</AltitudeMeters>
            <DistanceMeters>NAN</DistanceMeters>
          </Trackpoint>
          <Trackpoint>
            <Time>2021-08-13T08:13:53.000Z</Time>
            <Position>
              <LatitudeDegrees>43.23513655923306941986083984375</LatitudeDegrees>
              <LongitudeDegrees>-1.9958357512950897216796875</LongitudeDegrees>
            </Position>
            <AltitudeMeters>104.8000030517578125</AltitudeMeters>
            <DistanceMeters>NAN</DistanceMeters>
          </Trackpoint>
          <Trackpoint>
            <Time>2021-08-13T08:13:54.000Z</Time>
            <Position>
              <LatitudeDegrees>43.23511560447514057159423828125</LatitudeDegrees>
              <LongitudeDegrees>-1.995849497616291046142578125</LongitudeDegrees>
            </Position>
            <AltitudeMeters>105</AltitudeMeters>
            <DistanceMeters>NAN</DistanceMeters>
          </Trackpoint>
          <Trackpoint>
            <Time>2021-08-13T08:13:55.000Z</Time>
            <Position>
              <LatitudeDegrees>43.2350959070026874542236328125</LatitudeDegrees>
              <LongitudeDegrees>-1.9958650879561901092529296875</LongitudeDegrees>
            </Position>
            <AltitudeMeters>105.1999969482421875</AltitudeMeters>
            <DistanceMeters>NAN</DistanceMeters>
          </Trackpoint>
          <Trackpoint>
            <Time>2021-08-13T08:13:56.000Z</Time>
            <Position>
              <LatitudeDegrees>43.235076628625392913818359375</LatitudeDegrees>
              <LongitudeDegrees>-1.9958845339715480804443359375</LongitudeDegrees>
            </Position>
            <AltitudeMeters>105.40000152587890625</AltitudeMeters>
            <DistanceMeters>NAN</DistanceMeters>
          </Trackpoint>
          <Trackpoint>
            <Time>2021-08-13T08:13:57.000Z</Time>
            <Position>
              <LatitudeDegrees>43.23505911044776439666748046875</LatitudeDegrees>
              <LongitudeDegrees>-1.99590523727238178253173828125</LongitudeDegrees>
            </Position>
            <AltitudeMeters>105.40000152587890625</AltitudeMeters>
            <DistanceMeters>NAN</DistanceMeters>
          </Trackpoint>
          <Trackpoint>
            <Time>2021-08-13T08:13:58.000Z</Time>
            <Position>
              <LatitudeDegrees>43.23504469357430934906005859375</LatitudeDegrees>
              <LongitudeDegrees>-1.99592719785869121551513671875</LongitudeDegrees>
            </Position>
            <AltitudeMeters>105.59999847412109375</AltitudeMeters>
            <DistanceMeters>NAN</DistanceMeters>
          </Trackpoint>
          <Trackpoint>
            <Time>2021-08-13T08:13:59.000Z</Time>
            <Position>
              <LatitudeDegrees>43.23503337800502777099609375</LatitudeDegrees>
              <LongitudeDegrees>-1.995954774320125579833984375</LongitudeDegrees>
            </Position>
            <AltitudeMeters>105.8000030517578125</AltitudeMeters>
            <DistanceMeters>NAN</DistanceMeters>
          </Trackpoint>
          <Trackpoint>
            <Time>2021-08-13T08:14:00.000Z</Time>
            <Position>
              <LatitudeDegrees>43.2350224815309047698974609375</LatitudeDegrees>
              <LongitudeDegrees>-1.9959831051528453826904296875</LongitudeDegrees>
            </Position>
            <AltitudeMeters>106</AltitudeMeters>
            <DistanceMeters>NAN</DistanceMeters>
          </Trackpoint>
          <Trackpoint>
            <Time>2021-08-13T08:14:01.000Z</Time>
            <Position>
              <LatitudeDegrees>43.2350112497806549072265625</LatitudeDegrees>
              <LongitudeDegrees>-1.99601286090910434722900390625</LongitudeDegrees>
            </Position>
            <AltitudeMeters>106.40000152587890625</AltitudeMeters>
            <DistanceMeters>NAN</DistanceMeters>
          </Trackpoint>
          <Trackpoint>
            <Time>2021-08-13T08:14:02.000Z</Time>
            <Position>
              <LatitudeDegrees>43.2350016944110393524169921875</LatitudeDegrees>
              <LongitudeDegrees>-1.99604253284633159637451171875</LongitudeDegrees>
            </Position>
            <AltitudeMeters>106.40000152587890625</AltitudeMeters>
            <DistanceMeters>NAN</DistanceMeters>
          </Trackpoint>
          <Trackpoint>
            <Time>2021-08-13T08:14:03.000Z</Time>
            <Position>
              <LatitudeDegrees>43.2349943183362483978271484375</LatitudeDegrees>
              <LongitudeDegrees>-1.99607455171644687652587890625</LongitudeDegrees>
            </Position>
            <AltitudeMeters>106.59999847412109375</AltitudeMeters>
            <DistanceMeters>NAN</DistanceMeters>
          </Trackpoint>
          <Trackpoint>
            <Time>2021-08-13T08:14:04.000Z</Time>
            <Position>
              <LatitudeDegrees>43.23499004356563091278076171875</LatitudeDegrees>
              <LongitudeDegrees>-1.9961068220436573028564453125</LongitudeDegrees>
            </Position>
            <AltitudeMeters>107</AltitudeMeters>
            <DistanceMeters>NAN</DistanceMeters>
          </Trackpoint>
          <Trackpoint>
            <Time>2021-08-13T08:14:05.000Z</Time>
            <Position>
              <LatitudeDegrees>43.2349869422614574432373046875</LatitudeDegrees>
              <LongitudeDegrees>-1.99613817036151885986328125</LongitudeDegrees>
            </Position>
            <AltitudeMeters>107</AltitudeMeters>
            <DistanceMeters>NAN</DistanceMeters>
          </Trackpoint>
          <Trackpoint>
            <Time>2021-08-13T08:14:06.000Z</Time>
            <Position>
              <LatitudeDegrees>43.23498635552823543548583984375</LatitudeDegrees>
              <LongitudeDegrees>-1.99617044068872928619384765625</LongitudeDegrees>
            </Position>
            <AltitudeMeters>107.40000152587890625</AltitudeMeters>
            <DistanceMeters>NAN</DistanceMeters>
          </Trackpoint>
          <Trackpoint>
            <Time>2021-08-13T08:14:07.000Z</Time>
            <Position>
              <LatitudeDegrees>43.2349859364330768585205078125</LatitudeDegrees>
              <LongitudeDegrees>-1.9962047226727008819580078125</LongitudeDegrees>
            </Position>
            <AltitudeMeters>107.59999847412109375</AltitudeMeters>
            <DistanceMeters>NAN</DistanceMeters>
          </Trackpoint>
          <Trackpoint>
            <Time>2021-08-13T08:14:08.000Z</Time>
            <Position>
              <LatitudeDegrees>43.2349871098995208740234375</LatitudeDegrees>
              <LongitudeDegrees>-1.99624084867537021636962890625</LongitudeDegrees>
            </Position>
            <AltitudeMeters>107.8000030517578125</AltitudeMeters>
            <DistanceMeters>NAN</DistanceMeters>
          </Trackpoint>
          <Trackpoint>
            <Time>2021-08-13T08:14:09.000Z</Time>
            <Position>
              <LatitudeDegrees>43.23499054647982120513916015625</LatitudeDegrees>
              <LongitudeDegrees>-1.9962758012115955352783203125</LongitudeDegrees>
            </Position>
            <AltitudeMeters>108</AltitudeMeters>
            <DistanceMeters>NAN</DistanceMeters>
          </Trackpoint>
          <Trackpoint>
            <Time>2021-08-13T08:14:10.000Z</Time>
            <Position>
              <LatitudeDegrees>43.23499540798366069793701171875</LatitudeDegrees>
              <LongitudeDegrees>-1.996312178671360015869140625</LongitudeDegrees>
            </Position>
            <AltitudeMeters>108.1999969482421875</AltitudeMeters>
            <DistanceMeters>NAN</DistanceMeters>
          </Trackpoint>
          <Trackpoint>
            <Time>2021-08-13T08:14:11.000Z</Time>
            <Position>
              <LatitudeDegrees>43.23499993421137332916259765625</LatitudeDegrees>
              <LongitudeDegrees>-1.99634729884564876556396484375</LongitudeDegrees>
            </Position>
            <AltitudeMeters>108.40000152587890625</AltitudeMeters>
            <DistanceMeters>NAN</DistanceMeters>
          </Trackpoint>
          <Trackpoint>
            <Time>2021-08-13T08:14:12.000Z</Time>
            <Position>
              <LatitudeDegrees>43.23500311933457851409912109375</LatitudeDegrees>
              <LongitudeDegrees>-1.9963834248483180999755859375</LongitudeDegrees>
            </Position>
            <AltitudeMeters>108.40000152587890625</AltitudeMeters>
            <DistanceMeters>NAN</DistanceMeters>
          </Trackpoint>
          <Trackpoint>
            <Time>2021-08-13T08:14:13.000Z</Time>
            <Position>
              <LatitudeDegrees>43.23500479571521282196044921875</LatitudeDegrees>
              <LongitudeDegrees>-1.99641921557486057281494140625</LongitudeDegrees>
            </Position>
            <AltitudeMeters>108.59999847412109375</AltitudeMeters>
            <DistanceMeters>NAN</DistanceMeters>
          </Trackpoint>
          <Trackpoint>
            <Time>2021-08-13T08:14:14.000Z</Time>
            <Position>
              <LatitudeDegrees>43.23500563390552997589111328125</LatitudeDegrees>
              <LongitudeDegrees>-1.9964555092155933380126953125</LongitudeDegrees>
            </Position>
            <AltitudeMeters>108.8000030517578125</AltitudeMeters>
            <DistanceMeters>NAN</DistanceMeters>
          </Trackpoint>
          <Trackpoint>
            <Time>2021-08-13T08:14:15.000Z</Time>
            <Position>
              <LatitudeDegrees>43.235004879534244537353515625</LatitudeDegrees>
              <LongitudeDegrees>-1.99649012647569179534912109375</LongitudeDegrees>
            </Position>
            <AltitudeMeters>109</AltitudeMeters>
            <DistanceMeters>NAN</DistanceMeters>
          </Trackpoint>
          <Trackpoint>
            <Time>2021-08-13T08:14:16.000Z</Time>
            <Position>
              <LatitudeDegrees>43.23500228114426136016845703125</LatitudeDegrees>
              <LongitudeDegrees>-1.99652415700256824493408203125</LongitudeDegrees>
            </Position>
            <AltitudeMeters>109.1999969482421875</AltitudeMeters>
            <DistanceMeters>NAN</DistanceMeters>
          </Trackpoint>
          <Trackpoint>
            <Time>2021-08-13T08:14:17.000Z</Time>
            <Position>
              <LatitudeDegrees>43.23499674908816814422607421875</LatitudeDegrees>
              <LongitudeDegrees>-1.9965584389865398406982421875</LongitudeDegrees>
            </Position>
            <AltitudeMeters>109.40000152587890625</AltitudeMeters>
            <DistanceMeters>NAN</DistanceMeters>
          </Trackpoint>
          <Trackpoint>
            <Time>2021-08-13T08:14:18.000Z</Time>
            <Position>
              <LatitudeDegrees>43.234990127384662628173828125</LatitudeDegrees>
              <LongitudeDegrees>-1.996593475341796875</LongitudeDegrees>
            </Position>
            <AltitudeMeters>109.59999847412109375</AltitudeMeters>
            <DistanceMeters>NAN</DistanceMeters>
          </Trackpoint>
          <Trackpoint>
            <Time>2021-08-13T08:14:19.000Z</Time>
            <Position>
              <LatitudeDegrees>43.23498107492923736572265625</LatitudeDegrees>
              <LongitudeDegrees>-1.9966291822493076324462890625</LongitudeDegrees>
            </Position>
            <AltitudeMeters>109.8000030517578125</AltitudeMeters>
            <DistanceMeters>NAN</DistanceMeters>
          </Trackpoint>
          <Trackpoint>
            <Time>2021-08-13T08:14:20.000Z</Time>
            <Position>
              <LatitudeDegrees>43.2349701784551143646240234375</LatitudeDegrees>
              <LongitudeDegrees>-1.99666379950940608978271484375</LongitudeDegrees>
            </Position>
            <AltitudeMeters>110</AltitudeMeters>
            <DistanceMeters>NAN</DistanceMeters>
          </Trackpoint>
          <Trackpoint>
            <Time>2021-08-13T08:14:21.000Z</Time>
            <Position>
              <LatitudeDegrees>43.234955258667469024658203125</LatitudeDegrees>
              <LongitudeDegrees>-1.9966952316462993621826171875</LongitudeDegrees>
            </Position>
            <AltitudeMeters>110.1999969482421875</AltitudeMeters>
            <DistanceMeters>NAN</DistanceMeters>
          </Trackpoint>
          <Trackpoint>
            <Time>2021-08-13T08:14:22.000Z</Time>
            <Position>
              <LatitudeDegrees>43.2349386624991893768310546875</LatitudeDegrees>
              <LongitudeDegrees>-1.9967254064977169036865234375</LongitudeDegrees>
            </Position>
            <AltitudeMeters>110.1999969482421875</AltitudeMeters>
            <DistanceMeters>NAN</DistanceMeters>
          </Trackpoint>
          <Trackpoint>
            <Time>2021-08-13T08:14:23.000Z</Time>
            <Position>
              <LatitudeDegrees>43.23492248542606830596923828125</LatitudeDegrees>
              <LongitudeDegrees>-1.9967569224536418914794921875</LongitudeDegrees>
            </Position>
            <AltitudeMeters>110.1999969482421875</AltitudeMeters>
            <DistanceMeters>NAN</DistanceMeters>
          </Trackpoint>
          <Trackpoint>
            <Time>2021-08-13T08:14:24.000Z</Time>
            <Position>
              <LatitudeDegrees>43.23490639217197895050048828125</LatitudeDegrees>
              <LongitudeDegrees>-1.99678818695247173309326171875</LongitudeDegrees>
            </Position>
            <AltitudeMeters>110.40000152587890625</AltitudeMeters>
            <DistanceMeters>NAN</DistanceMeters>
          </Trackpoint>
          <Trackpoint>
            <Time>2021-08-13T08:14:25.000Z</Time>
            <Position>
              <LatitudeDegrees>43.2348887063562870025634765625</LatitudeDegrees>
              <LongitudeDegrees>-1.99681953527033329010009765625</LongitudeDegrees>
            </Position>
            <AltitudeMeters>110.59999847412109375</AltitudeMeters>
            <DistanceMeters>NAN</DistanceMeters>
          </Trackpoint>
          <Trackpoint>
            <Time>2021-08-13T08:14:26.000Z</Time>
            <Position>
              <LatitudeDegrees>43.234872110188007354736328125</LatitudeDegrees>
              <LongitudeDegrees>-1.99684719555079936981201171875</LongitudeDegrees>
            </Position>
            <AltitudeMeters>110.59999847412109375</AltitudeMeters>
            <DistanceMeters>NAN</DistanceMeters>
          </Trackpoint>
          <Trackpoint>
            <Time>2021-08-13T08:14:27.000Z</Time>
            <Position>
              <LatitudeDegrees>43.234855346381664276123046875</LatitudeDegrees>
              <LongitudeDegrees>-1.99687619693577289581298828125</LongitudeDegrees>
            </Position>
            <AltitudeMeters>110.59999847412109375</AltitudeMeters>
            <DistanceMeters>NAN</DistanceMeters>
          </Trackpoint>
          <Trackpoint>
            <Time>2021-08-13T08:14:28.000Z</Time>
            <Position>
              <LatitudeDegrees>43.23483766056597232818603515625</LatitudeDegrees>
              <LongitudeDegrees>-1.99690670706331729888916015625</LongitudeDegrees>
            </Position>
            <AltitudeMeters>110.8000030517578125</AltitudeMeters>
            <DistanceMeters>NAN</DistanceMeters>
          </Trackpoint>
          <Trackpoint>
            <Time>2021-08-13T08:14:29.000Z</Time>
            <Position>
              <LatitudeDegrees>43.23481938801705837249755859375</LatitudeDegrees>
              <LongitudeDegrees>-1.99693704955279827117919921875</LongitudeDegrees>
            </Position>
            <AltitudeMeters>110.8000030517578125</AltitudeMeters>
            <DistanceMeters>NAN</DistanceMeters>
          </Trackpoint>
          <Trackpoint>
            <Time>2021-08-13T08:14:30.000Z</Time>
            <Position>
              <LatitudeDegrees>43.23480128310620784759521484375</LatitudeDegrees>
              <LongitudeDegrees>-1.99696697294712066650390625</LongitudeDegrees>
            </Position>
            <AltitudeMeters>110.8000030517578125</AltitudeMeters>
            <DistanceMeters>NAN</DistanceMeters>
          </Trackpoint>
          <Trackpoint>
            <Time>2021-08-13T08:14:31.000Z</Time>
            <Position>
              <LatitudeDegrees>43.2347851060330867767333984375</LatitudeDegrees>
              <LongitudeDegrees>-1.99699505232274532318115234375</LongitudeDegrees>
            </Position>
            <AltitudeMeters>110.8000030517578125</AltitudeMeters>
            <DistanceMeters>NAN</DistanceMeters>
          </Trackpoint>
          <Trackpoint>
            <Time>2021-08-13T08:14:32.000Z</Time>
            <Position>
              <LatitudeDegrees>43.23476792313158512115478515625</LatitudeDegrees>
              <LongitudeDegrees>-1.9970241375267505645751953125</LongitudeDegrees>
            </Position>
            <AltitudeMeters>110.8000030517578125</AltitudeMeters>
            <DistanceMeters>NAN</DistanceMeters>
          </Trackpoint>
          <Trackpoint>
            <Time>2021-08-13T08:14:33.000Z</Time>
            <Position>
              <LatitudeDegrees>43.234750069677829742431640625</LatitudeDegrees>
              <LongitudeDegrees>-1.9970529712736606597900390625</LongitudeDegrees>
            </Position>
            <AltitudeMeters>110.8000030517578125</AltitudeMeters>
            <DistanceMeters>NAN</DistanceMeters>
          </Trackpoint>
          <Trackpoint>
            <Time>2021-08-13T08:14:34.000Z</Time>
            <Position>
              <LatitudeDegrees>43.23473028838634490966796875</LatitudeDegrees>
              <LongitudeDegrees>-1.99708306230604648590087890625</LongitudeDegrees>
            </Position>
            <AltitudeMeters>110.8000030517578125</AltitudeMeters>
            <DistanceMeters>NAN</DistanceMeters>
          </Trackpoint>
          <Trackpoint>
            <Time>2021-08-13T08:14:35.000Z</Time>
            <Position>
              <LatitudeDegrees>43.2347093336284160614013671875</LatitudeDegrees>
              <LongitudeDegrees>-1.997114159166812896728515625</LongitudeDegrees>
            </Position>
            <AltitudeMeters>110.8000030517578125</AltitudeMeters>
            <DistanceMeters>NAN</DistanceMeters>
          </Trackpoint>
          <Trackpoint>
            <Time>2021-08-13T08:14:36.000Z</Time>
            <Position>
              <LatitudeDegrees>43.2346912287175655364990234375</LatitudeDegrees>
              <LongitudeDegrees>-1.99714710004627704620361328125</LongitudeDegrees>
            </Position>
            <AltitudeMeters>110.8000030517578125</AltitudeMeters>
            <DistanceMeters>NAN</DistanceMeters>
          </Trackpoint>
          <Trackpoint>
            <Time>2021-08-13T08:14:37.000Z</Time>
            <Position>
              <LatitudeDegrees>43.23467119596898555755615234375</LatitudeDegrees>
              <LongitudeDegrees>-1.997179202735424041748046875</LongitudeDegrees>
            </Position>
            <AltitudeMeters>110.8000030517578125</AltitudeMeters>
            <DistanceMeters>NAN</DistanceMeters>
          </Trackpoint>
          <Trackpoint>
            <Time>2021-08-13T08:14:38.000Z</Time>
            <Position>
              <LatitudeDegrees>43.234651498496532440185546875</LatitudeDegrees>
              <LongitudeDegrees>-1.9972090423107147216796875</LongitudeDegrees>
            </Position>
            <AltitudeMeters>110.8000030517578125</AltitudeMeters>
            <DistanceMeters>NAN</DistanceMeters>
          </Trackpoint>
          <Trackpoint>
            <Time>2021-08-13T08:14:39.000Z</Time>
            <Position>
              <LatitudeDegrees>43.23463045991957187652587890625</LatitudeDegrees>
              <LongitudeDegrees>-1.99724080972373485565185546875</LongitudeDegrees>
            </Position>
            <AltitudeMeters>110.8000030517578125</AltitudeMeters>
            <DistanceMeters>NAN</DistanceMeters>
          </Trackpoint>
          <Trackpoint>
            <Time>2021-08-13T08:14:40.000Z</Time>
            <Position>
              <LatitudeDegrees>43.23461134918034076690673828125</LatitudeDegrees>
              <LongitudeDegrees>-1.99727249331772327423095703125</LongitudeDegrees>
            </Position>
            <AltitudeMeters>110.8000030517578125</AltitudeMeters>
            <DistanceMeters>NAN</DistanceMeters>
          </Trackpoint>
          <Trackpoint>
            <Time>2021-08-13T08:14:43.000Z</Time>
            <Position>
              <LatitudeDegrees>43.2345530949532985687255859375</LatitudeDegrees>
              <LongitudeDegrees>-1.99737927876412868499755859375</LongitudeDegrees>
            </Position>
            <AltitudeMeters>110.59999847412109375</AltitudeMeters>
            <DistanceMeters>NAN</DistanceMeters>
          </Trackpoint>
          <Trackpoint>
            <Time>2021-08-13T08:14:49.000Z</Time>
            <Position>
              <LatitudeDegrees>43.23440498672425746917724609375</LatitudeDegrees>
              <LongitudeDegrees>-1.997572816908359527587890625</LongitudeDegrees>
            </Position>
            <AltitudeMeters>110.1999969482421875</AltitudeMeters>
            <DistanceMeters>NAN</DistanceMeters>
          </Trackpoint>
          <Trackpoint>
            <Time>2021-08-13T08:14:52.000Z</Time>
            <Position>
              <LatitudeDegrees>43.2344401068985462188720703125</LatitudeDegrees>
              <LongitudeDegrees>-1.99769058264791965484619140625</LongitudeDegrees>
            </Position>
            <AltitudeMeters>110</AltitudeMeters>
            <DistanceMeters>NAN</DistanceMeters>
          </Trackpoint>
          <Trackpoint>
            <Time>2021-08-13T08:14:56.000Z</Time>
            <Position>
              <LatitudeDegrees>43.23453540913760662078857421875</LatitudeDegrees>
              <LongitudeDegrees>-1.9978023134171962738037109375</LongitudeDegrees>
            </Position>
            <AltitudeMeters>109.8000030517578125</AltitudeMeters>
            <DistanceMeters>NAN</DistanceMeters>
          </Trackpoint>
          <Trackpoint>
            <Time>2021-08-13T08:14:57.000Z</Time>
            <Position>
              <LatitudeDegrees>43.23456273414194583892822265625</LatitudeDegrees>
              <LongitudeDegrees>-1.99782988987863063812255859375</LongitudeDegrees>
            </Position>
            <AltitudeMeters>109.8000030517578125</AltitudeMeters>
            <DistanceMeters>NAN</DistanceMeters>
          </Trackpoint>
          <Trackpoint>
            <Time>2021-08-13T08:15:02.000Z</Time>
            <Position>
              <LatitudeDegrees>43.23470304720103740692138671875</LatitudeDegrees>
              <LongitudeDegrees>-1.997979171574115753173828125</LongitudeDegrees>
            </Position>
            <AltitudeMeters>110</AltitudeMeters>
            <DistanceMeters>NAN</DistanceMeters>
          </Trackpoint>
          <Trackpoint>
            <Time>2021-08-13T08:15:12.000Z</Time>
            <Position>
              <LatitudeDegrees>43.2349738664925098419189453125</LatitudeDegrees>
              <LongitudeDegrees>-1.99827463366091251373291015625</LongitudeDegrees>
            </Position>
            <AltitudeMeters>110.1999969482421875</AltitudeMeters>
            <DistanceMeters>NAN</DistanceMeters>
          </Trackpoint>
          <Trackpoint>
            <Time>2021-08-13T08:15:13.000Z</Time>
            <Position>
              <LatitudeDegrees>43.2349980063736438751220703125</LatitudeDegrees>
              <LongitudeDegrees>-1.99830271303653717041015625</LongitudeDegrees>
            </Position>
            <AltitudeMeters>110.1999969482421875</AltitudeMeters>
            <DistanceMeters>NAN</DistanceMeters>
          </Trackpoint>
          <Trackpoint>
            <Time>2021-08-13T08:15:14.000Z</Time>
            <Position>
              <LatitudeDegrees>43.2350241579115390777587890625</LatitudeDegrees>
              <LongitudeDegrees>-1.99833045713603496551513671875</LongitudeDegrees>
            </Position>
            <AltitudeMeters>110.40000152587890625</AltitudeMeters>
            <DistanceMeters>NAN</DistanceMeters>
          </Trackpoint>
          <Trackpoint>
            <Time>2021-08-13T08:15:15.000Z</Time>
            <Position>
              <LatitudeDegrees>43.23505123145878314971923828125</LatitudeDegrees>
              <LongitudeDegrees>-1.99836029671132564544677734375</LongitudeDegrees>
            </Position>
            <AltitudeMeters>110.40000152587890625</AltitudeMeters>
            <DistanceMeters>NAN</DistanceMeters>
          </Trackpoint>
          <Trackpoint>
            <Time>2021-08-13T08:15:16.000Z</Time>
            <Position>
              <LatitudeDegrees>43.23508073575794696807861328125</LatitudeDegrees>
              <LongitudeDegrees>-1.9983903877437114715576171875</LongitudeDegrees>
            </Position>
            <AltitudeMeters>110.1999969482421875</AltitudeMeters>
            <DistanceMeters>NAN</DistanceMeters>
          </Trackpoint>
          <Trackpoint>
            <Time>2021-08-13T08:15:27.000Z</Time>
            <Position>
              <LatitudeDegrees>43.23537292890250682830810546875</LatitudeDegrees>
              <LongitudeDegrees>-1.99871401302516460418701171875</LongitudeDegrees>
            </Position>
            <AltitudeMeters>110</AltitudeMeters>
            <DistanceMeters>NAN</DistanceMeters>
          </Trackpoint>
          <Trackpoint>
            <Time>2021-08-13T08:15:28.000Z</Time>
            <Position>
              <LatitudeDegrees>43.23539405129849910736083984375</LatitudeDegrees>
              <LongitudeDegrees>-1.9987333752214908599853515625</LongitudeDegrees>
            </Position>
            <AltitudeMeters>110</AltitudeMeters>
            <DistanceMeters>NAN</DistanceMeters>
          </Trackpoint>
          <Trackpoint>
            <Time>2021-08-13T08:15:29.000Z</Time>
            <Position>
              <LatitudeDegrees>43.235413245856761932373046875</LatitudeDegrees>
              <LongitudeDegrees>-1.99874938465654850006103515625</LongitudeDegrees>
            </Position>
            <AltitudeMeters>110</AltitudeMeters>
            <DistanceMeters>NAN</DistanceMeters>
          </Trackpoint>
          <Trackpoint>
            <Time>2021-08-13T08:15:30.000Z</Time>
            <Position>
              <LatitudeDegrees>43.2354305125772953033447265625</LatitudeDegrees>
              <LongitudeDegrees>-1.99876497499644756317138671875</LongitudeDegrees>
            </Position>
            <AltitudeMeters>110</AltitudeMeters>
            <DistanceMeters>NAN</DistanceMeters>
          </Trackpoint>
          <Trackpoint>
            <Time>2021-08-13T08:15:31.000Z</Time>
            <Position>
              <LatitudeDegrees>43.2354484498500823974609375</LatitudeDegrees>
              <LongitudeDegrees>-1.998779140412807464599609375</LongitudeDegrees>
            </Position>
            <AltitudeMeters>110</AltitudeMeters>
            <DistanceMeters>NAN</DistanceMeters>
          </Trackpoint>
          <Trackpoint>
            <Time>2021-08-13T08:15:32.000Z</Time>
            <Position>
              <LatitudeDegrees>43.235468901693820953369140625</LatitudeDegrees>
              <LongitudeDegrees>-1.998783834278583526611328125</LongitudeDegrees>
            </Position>
            <AltitudeMeters>110</AltitudeMeters>
            <DistanceMeters>NAN</DistanceMeters>
          </Trackpoint>
          <Trackpoint>
            <Time>2021-08-13T08:15:33.000Z</Time>
            <Position>
              <LatitudeDegrees>43.2354878447949886322021484375</LatitudeDegrees>
              <LongitudeDegrees>-1.99878953397274017333984375</LongitudeDegrees>
            </Position>
            <AltitudeMeters>110</AltitudeMeters>
            <DistanceMeters>NAN</DistanceMeters>
          </Trackpoint>
          <Trackpoint>
            <Time>2021-08-13T08:15:34.000Z</Time>
            <Position>
              <LatitudeDegrees>43.23551307432353496551513671875</LatitudeDegrees>
              <LongitudeDegrees>-1.99880587868392467498779296875</LongitudeDegrees>
            </Position>
            <AltitudeMeters>109.8000030517578125</AltitudeMeters>
            <DistanceMeters>NAN</DistanceMeters>
          </Trackpoint>
          <Trackpoint>
            <Time>2021-08-13T08:15:36.000Z</Time>
            <Position>
              <LatitudeDegrees>43.2355186901986598968505859375</LatitudeDegrees>
              <LongitudeDegrees>-1.9988678209483623504638671875</LongitudeDegrees>
            </Position>
            <AltitudeMeters>109.8000030517578125</AltitudeMeters>
            <DistanceMeters>NAN</DistanceMeters>
          </Trackpoint>
          <Trackpoint>
            <Time>2021-08-13T08:15:38.000Z</Time>
            <Position>
              <LatitudeDegrees>43.2355139963328838348388671875</LatitudeDegrees>
              <LongitudeDegrees>-1.998956501483917236328125</LongitudeDegrees>
            </Position>
            <AltitudeMeters>109.59999847412109375</AltitudeMeters>
            <DistanceMeters>NAN</DistanceMeters>
          </Trackpoint>
          <Trackpoint>
            <Time>2021-08-13T08:15:39.000Z</Time>
            <Position>
              <LatitudeDegrees>43.23553654365241527557373046875</LatitudeDegrees>
              <LongitudeDegrees>-1.9989898614585399627685546875</LongitudeDegrees>
            </Position>
            <AltitudeMeters>109.40000152587890625</AltitudeMeters>
            <DistanceMeters>NAN</DistanceMeters>
          </Trackpoint>
          <Trackpoint>
            <Time>2021-08-13T08:15:41.000Z</Time>
            <Position>
              <LatitudeDegrees>43.23558817617595195770263671875</LatitudeDegrees>
              <LongitudeDegrees>-1.99904241599142551422119140625</LongitudeDegrees>
            </Position>
            <AltitudeMeters>109.40000152587890625</AltitudeMeters>
            <DistanceMeters>NAN</DistanceMeters>
          </Trackpoint>
          <Trackpoint>
            <Time>2021-08-13T08:15:42.000Z</Time>
            <Position>
              <LatitudeDegrees>43.235588259994983673095703125</LatitudeDegrees>
              <LongitudeDegrees>-1.9990834034979343414306640625</LongitudeDegrees>
            </Position>
            <AltitudeMeters>109</AltitudeMeters>
            <DistanceMeters>NAN</DistanceMeters>
          </Trackpoint>
          <Trackpoint>
            <Time>2021-08-13T08:15:43.000Z</Time>
            <Position>
              <LatitudeDegrees>43.2355743460357189178466796875</LatitudeDegrees>
              <LongitudeDegrees>-1.99911584146320819854736328125</LongitudeDegrees>
            </Position>
            <AltitudeMeters>108.59999847412109375</AltitudeMeters>
            <DistanceMeters>NAN</DistanceMeters>
          </Trackpoint>
          <Trackpoint>
            <Time>2021-08-13T08:15:44.000Z</Time>
            <Position>
              <LatitudeDegrees>43.23555917479097843170166015625</LatitudeDegrees>
              <LongitudeDegrees>-1.999135874211788177490234375</LongitudeDegrees>
            </Position>
            <AltitudeMeters>108.40000152587890625</AltitudeMeters>
            <DistanceMeters>NAN</DistanceMeters>
          </Trackpoint>
          <Trackpoint>
            <Time>2021-08-13T08:15:45.000Z</Time>
            <Position>
              <LatitudeDegrees>43.23554509319365024566650390625</LatitudeDegrees>
              <LongitudeDegrees>-1.99914786033332347869873046875</LongitudeDegrees>
            </Position>
            <AltitudeMeters>108</AltitudeMeters>
            <DistanceMeters>NAN</DistanceMeters>
          </Trackpoint>
          <Trackpoint>
            <Time>2021-08-13T08:15:46.000Z</Time>
            <Position>
              <LatitudeDegrees>43.23553134687244892120361328125</LatitudeDegrees>
              <LongitudeDegrees>-1.9991576671600341796875</LongitudeDegrees>
            </Position>
            <AltitudeMeters>107.59999847412109375</AltitudeMeters>
            <DistanceMeters>NAN</DistanceMeters>
          </Trackpoint>
          <Trackpoint>
            <Time>2021-08-13T08:15:47.000Z</Time>
            <Position>
              <LatitudeDegrees>43.2355160079896450042724609375</LatitudeDegrees>
              <LongitudeDegrees>-1.99916546232998371124267578125</LongitudeDegrees>
            </Position>
            <AltitudeMeters>107.40000152587890625</AltitudeMeters>
            <DistanceMeters>NAN</DistanceMeters>
          </Trackpoint>
          <Trackpoint>
            <Time>2021-08-13T08:15:48.000Z</Time>
            <Position>
              <LatitudeDegrees>43.23549781925976276397705078125</LatitudeDegrees>
              <LongitudeDegrees>-1.99917518533766269683837890625</LongitudeDegrees>
            </Position>
            <AltitudeMeters>107.1999969482421875</AltitudeMeters>
            <DistanceMeters>NAN</DistanceMeters>
          </Trackpoint>
          <Trackpoint>
            <Time>2021-08-13T08:15:52.000Z</Time>
            <Position>
              <LatitudeDegrees>43.2354204542934894561767578125</LatitudeDegrees>
              <LongitudeDegrees>-1.99924961663782596588134765625</LongitudeDegrees>
            </Position>
            <AltitudeMeters>106.8000030517578125</AltitudeMeters>
            <DistanceMeters>NAN</DistanceMeters>
          </Trackpoint>
          <Trackpoint>
            <Time>2021-08-13T08:15:53.000Z</Time>
            <Position>
              <LatitudeDegrees>43.23540712706744670867919921875</LatitudeDegrees>
              <LongitudeDegrees>-1.99927509762346744537353515625</LongitudeDegrees>
            </Position>
            <AltitudeMeters>106.8000030517578125</AltitudeMeters>
            <DistanceMeters>NAN</DistanceMeters>
          </Trackpoint>
          <Trackpoint>
            <Time>2021-08-13T08:15:54.000Z</Time>
            <Position>
              <LatitudeDegrees>43.2353976555168628692626953125</LatitudeDegrees>
              <LongitudeDegrees>-1.9992984831333160400390625</LongitudeDegrees>
            </Position>
            <AltitudeMeters>106.8000030517578125</AltitudeMeters>
            <DistanceMeters>NAN</DistanceMeters>
          </Trackpoint>
          <Trackpoint>
            <Time>2021-08-13T08:15:55.000Z</Time>
            <Position>
              <LatitudeDegrees>43.23538902215659618377685546875</LatitudeDegrees>
              <LongitudeDegrees>-1.9993187673389911651611328125</LongitudeDegrees>
            </Position>
            <AltitudeMeters>106.8000030517578125</AltitudeMeters>
            <DistanceMeters>NAN</DistanceMeters>
          </Trackpoint>
          <Trackpoint>
            <Time>2021-08-13T08:15:56.000Z</Time>
            <Position>
              <LatitudeDegrees>43.2353785447776317596435546875</LatitudeDegrees>
              <LongitudeDegrees>-1.9993355311453342437744140625</LongitudeDegrees>
            </Position>
            <AltitudeMeters>106.59999847412109375</AltitudeMeters>
            <DistanceMeters>NAN</DistanceMeters>
          </Trackpoint>
          <Trackpoint>
            <Time>2021-08-13T08:15:58.000Z</Time>
            <Position>
              <LatitudeDegrees>43.2353537343442440032958984375</LatitudeDegrees>
              <LongitudeDegrees>-1.99936763383448123931884765625</LongitudeDegrees>
            </Position>
            <AltitudeMeters>106.59999847412109375</AltitudeMeters>
            <DistanceMeters>NAN</DistanceMeters>
          </Trackpoint>
          <Trackpoint>
            <Time>2021-08-13T08:15:59.000Z</Time>
            <Position>
              <LatitudeDegrees>43.23534258641302585601806640625</LatitudeDegrees>
              <LongitudeDegrees>-1.9993821345269680023193359375</LongitudeDegrees>
            </Position>
            <AltitudeMeters>106.40000152587890625</AltitudeMeters>
            <DistanceMeters>NAN</DistanceMeters>
          </Trackpoint>
          <Trackpoint>
            <Time>2021-08-13T08:16:00.000Z</Time>
            <Position>
              <LatitudeDegrees>43.23533110320568084716796875</LatitudeDegrees>
              <LongitudeDegrees>-1.999392695724964141845703125</LongitudeDegrees>
            </Position>
            <AltitudeMeters>106.40000152587890625</AltitudeMeters>
            <DistanceMeters>NAN</DistanceMeters>
          </Trackpoint>
          <Trackpoint>
            <Time>2021-08-13T08:16:02.000Z</Time>
            <Position>
              <LatitudeDegrees>43.23532481677830219268798828125</LatitudeDegrees>
              <LongitudeDegrees>-1.999396383762359619140625</LongitudeDegrees>
            </Position>
            <AltitudeMeters>106.1999969482421875</AltitudeMeters>
            <DistanceMeters>NAN</DistanceMeters>
          </Trackpoint>
          <Trackpoint>
            <Time>2021-08-13T08:16:08.000Z</Time>
            <Position>
              <LatitudeDegrees>43.23532481677830219268798828125</LatitudeDegrees>
              <LongitudeDegrees>-1.999396383762359619140625</LongitudeDegrees>
            </Position>
            <AltitudeMeters>105.59999847412109375</AltitudeMeters>
            <DistanceMeters>NAN</DistanceMeters>
          </Trackpoint>
          <Trackpoint>
            <Time>2021-08-13T08:16:21.000Z</Time>
            <Position>
              <LatitudeDegrees>43.23532481677830219268798828125</LatitudeDegrees>
              <LongitudeDegrees>-1.999396383762359619140625</LongitudeDegrees>
            </Position>
            <AltitudeMeters>105.40000152587890625</AltitudeMeters>
            <DistanceMeters>NAN</DistanceMeters>
          </Trackpoint>
          <Trackpoint>
            <Time>2021-08-13T08:16:41.000Z</Time>
            <Position>
              <LatitudeDegrees>43.23524803854525089263916015625</LatitudeDegrees>
              <LongitudeDegrees>-1.9994495250284671783447265625</LongitudeDegrees>
            </Position>
            <AltitudeMeters>105.1999969482421875</AltitudeMeters>
            <DistanceMeters>NAN</DistanceMeters>
          </Trackpoint>
          <Trackpoint>
            <Time>2021-08-13T08:16:47.000Z</Time>
            <Position>
              <LatitudeDegrees>43.23502977378666400909423828125</LatitudeDegrees>
              <LongitudeDegrees>-1.9996000640094280242919921875</LongitudeDegrees>
            </Position>
            <AltitudeMeters>104.59999847412109375</AltitudeMeters>
            <DistanceMeters>NAN</DistanceMeters>
          </Trackpoint>
          <Trackpoint>
            <Time>2021-08-13T08:16:48.000Z</Time>
            <Position>
              <LatitudeDegrees>43.234986774623394012451171875</LatitudeDegrees>
              <LongitudeDegrees>-1.999626047909259796142578125</LongitudeDegrees>
            </Position>
            <AltitudeMeters>104.59999847412109375</AltitudeMeters>
            <DistanceMeters>NAN</DistanceMeters>
          </Trackpoint>
          <Trackpoint>
            <Time>2021-08-13T08:16:50.000Z</Time>
            <Position>
              <LatitudeDegrees>43.23490706272423267364501953125</LatitudeDegrees>
              <LongitudeDegrees>-1.9996661134064197540283203125</LongitudeDegrees>
            </Position>
            <AltitudeMeters>104.1999969482421875</AltitudeMeters>
            <DistanceMeters>NAN</DistanceMeters>
          </Trackpoint>
          <Trackpoint>
            <Time>2021-08-13T08:16:54.000Z</Time>
            <Position>
              <LatitudeDegrees>43.234743364155292510986328125</LatitudeDegrees>
              <LongitudeDegrees>-1.99974549002945423126220703125</LongitudeDegrees>
            </Position>
            <AltitudeMeters>103.59999847412109375</AltitudeMeters>
            <DistanceMeters>NAN</DistanceMeters>
          </Trackpoint>
          <Trackpoint>
            <Time>2021-08-13T08:16:57.000Z</Time>
            <Position>
              <LatitudeDegrees>43.23462476022541522979736328125</LatitudeDegrees>
              <LongitudeDegrees>-1.99981170706450939178466796875</LongitudeDegrees>
            </Position>
            <AltitudeMeters>103</AltitudeMeters>
            <DistanceMeters>NAN</DistanceMeters>
          </Trackpoint>
          <Trackpoint>
            <Time>2021-08-13T08:16:58.000Z</Time>
            <Position>
              <LatitudeDegrees>43.2345886342227458953857421875</LatitudeDegrees>
              <LongitudeDegrees>-1.9998330809175968170166015625</LongitudeDegrees>
            </Position>
            <AltitudeMeters>103</AltitudeMeters>
            <DistanceMeters>NAN</DistanceMeters>
          </Trackpoint>
          <Trackpoint>
            <Time>2021-08-13T08:16:59.000Z</Time>
            <Position>
              <LatitudeDegrees>43.2345551066100597381591796875</LatitudeDegrees>
              <LongitudeDegrees>-1.999852694571018218994140625</LongitudeDegrees>
            </Position>
            <AltitudeMeters>102.59999847412109375</AltitudeMeters>
            <DistanceMeters>NAN</DistanceMeters>
          </Trackpoint>
          <Trackpoint>
            <Time>2021-08-13T08:17:00.000Z</Time>
            <Position>
              <LatitudeDegrees>43.23451898060739040374755859375</LatitudeDegrees>
              <LongitudeDegrees>-1.99987138621509075164794921875</LongitudeDegrees>
            </Position>
            <AltitudeMeters>102.59999847412109375</AltitudeMeters>
            <DistanceMeters>NAN</DistanceMeters>
          </Trackpoint>
          <Trackpoint>
            <Time>2021-08-13T08:17:01.000Z</Time>
            <Position>
              <LatitudeDegrees>43.2344816811382770538330078125</LatitudeDegrees>
              <LongitudeDegrees>-1.9998897425830364227294921875</LongitudeDegrees>
            </Position>
            <AltitudeMeters>102</AltitudeMeters>
            <DistanceMeters>NAN</DistanceMeters>
          </Trackpoint>
          <Trackpoint>
            <Time>2021-08-13T08:17:04.000Z</Time>
            <Position>
              <LatitudeDegrees>43.234360478818416595458984375</LatitudeDegrees>
              <LongitudeDegrees>-1.99992788024246692657470703125</LongitudeDegrees>
            </Position>
            <AltitudeMeters>101.40000152587890625</AltitudeMeters>
            <DistanceMeters>NAN</DistanceMeters>
          </Trackpoint>
          <Trackpoint>
            <Time>2021-08-13T08:17:06.000Z</Time>
            <Position>
              <LatitudeDegrees>43.23426886461675167083740234375</LatitudeDegrees>
              <LongitudeDegrees>-1.9999413751065731048583984375</LongitudeDegrees>
            </Position>
            <AltitudeMeters>100.8000030517578125</AltitudeMeters>
            <DistanceMeters>NAN</DistanceMeters>
          </Trackpoint>
          <Trackpoint>
            <Time>2021-08-13T08:17:09.000Z</Time>
            <Position>
              <LatitudeDegrees>43.2341031543910503387451171875</LatitudeDegrees>
              <LongitudeDegrees>-1.99992737732827663421630859375</LongitudeDegrees>
            </Position>
            <AltitudeMeters>100</AltitudeMeters>
            <DistanceMeters>NAN</DistanceMeters>
          </Trackpoint>
          <Trackpoint>
            <Time>2021-08-13T08:17:10.000Z</Time>
            <Position>
              <LatitudeDegrees>43.23404070921242237091064453125</LatitudeDegrees>
              <LongitudeDegrees>-1.99991513974964618682861328125</LongitudeDegrees>
            </Position>
            <AltitudeMeters>99.8000030517578125</AltitudeMeters>
            <DistanceMeters>NAN</DistanceMeters>
          </Trackpoint>
          <Trackpoint>
            <Time>2021-08-13T08:17:14.000Z</Time>
            <Position>
              <LatitudeDegrees>43.23378070257604122161865234375</LatitudeDegrees>
              <LongitudeDegrees>-1.999827213585376739501953125</LongitudeDegrees>
            </Position>
            <AltitudeMeters>98.59999847412109375</AltitudeMeters>
            <DistanceMeters>NAN</DistanceMeters>
          </Trackpoint>
          <Trackpoint>
            <Time>2021-08-13T08:17:15.000Z</Time>
            <Position>
              <LatitudeDegrees>43.2337162457406520843505859375</LatitudeDegrees>
              <LongitudeDegrees>-1.99980835430324077606201171875</LongitudeDegrees>
            </Position>
            <AltitudeMeters>98.1999969482421875</AltitudeMeters>
            <DistanceMeters>NAN</DistanceMeters>
          </Trackpoint>
          <Trackpoint>
            <Time>2021-08-13T08:17:17.000Z</Time>
            <Position>
              <LatitudeDegrees>43.23357903398573398590087890625</LatitudeDegrees>
              <LongitudeDegrees>-1.99979762546718120574951171875</LongitudeDegrees>
            </Position>
            <AltitudeMeters>97.59999847412109375</AltitudeMeters>
            <DistanceMeters>NAN</DistanceMeters>
          </Trackpoint>
          <Trackpoint>
            <Time>2021-08-13T08:17:18.000Z</Time>
            <Position>
              <LatitudeDegrees>43.23350778780877590179443359375</LatitudeDegrees>
              <LongitudeDegrees>-1.99980667792260646820068359375</LongitudeDegrees>
            </Position>
            <AltitudeMeters>97.1999969482421875</AltitudeMeters>
            <DistanceMeters>NAN</DistanceMeters>
          </Trackpoint>
          <Trackpoint>
            <Time>2021-08-13T08:17:19.000Z</Time>
            <Position>
              <LatitudeDegrees>43.2334362901747226715087890625</LatitudeDegrees>
              <LongitudeDegrees>-1.99982796795666217803955078125</LongitudeDegrees>
            </Position>
            <AltitudeMeters>97</AltitudeMeters>
            <DistanceMeters>NAN</DistanceMeters>
          </Trackpoint>
          <Trackpoint>
            <Time>2021-08-13T08:17:21.000Z</Time>
            <Position>
              <LatitudeDegrees>43.2333001680672168731689453125</LatitudeDegrees>
              <LongitudeDegrees>-1.99989795684814453125</LongitudeDegrees>
            </Position>
            <AltitudeMeters>96.40000152587890625</AltitudeMeters>
            <DistanceMeters>NAN</DistanceMeters>
          </Trackpoint>
          <Trackpoint>
            <Time>2021-08-13T08:17:22.000Z</Time>
            <Position>
              <LatitudeDegrees>43.233235292136669158935546875</LatitudeDegrees>
              <LongitudeDegrees>-1.99993978254497051239013671875</LongitudeDegrees>
            </Position>
            <AltitudeMeters>96</AltitudeMeters>
            <DistanceMeters>NAN</DistanceMeters>
          </Trackpoint>
          <Trackpoint>
            <Time>2021-08-13T08:17:24.000Z</Time>
            <Position>
              <LatitudeDegrees>43.2330879382789134979248046875</LatitudeDegrees>
              <LongitudeDegrees>-2.000006251037120819091796875</LongitudeDegrees>
            </Position>
            <AltitudeMeters>95</AltitudeMeters>
            <DistanceMeters>NAN</DistanceMeters>
          </Trackpoint>
          <Trackpoint>
            <Time>2021-08-13T08:17:25.000Z</Time>
            <Position>
              <LatitudeDegrees>43.2330135069787502288818359375</LatitudeDegrees>
              <LongitudeDegrees>-2.00001991353929042816162109375</LongitudeDegrees>
            </Position>
            <AltitudeMeters>94.59999847412109375</AltitudeMeters>
            <DistanceMeters>NAN</DistanceMeters>
          </Trackpoint>
          <Trackpoint>
            <Time>2021-08-13T08:17:26.000Z</Time>
            <Position>
              <LatitudeDegrees>43.23294066824018955230712890625</LatitudeDegrees>
              <LongitudeDegrees>-2.00001806952059268951416015625</LongitudeDegrees>
            </Position>
            <AltitudeMeters>94.1999969482421875</AltitudeMeters>
            <DistanceMeters>NAN</DistanceMeters>
          </Trackpoint>
          <Trackpoint>
            <Time>2021-08-13T08:17:27.000Z</Time>
            <Position>
              <LatitudeDegrees>43.23287126608192920684814453125</LatitudeDegrees>
              <LongitudeDegrees>-2.00000314973294734954833984375</LongitudeDegrees>
            </Position>
            <AltitudeMeters>93.8000030517578125</AltitudeMeters>
            <DistanceMeters>NAN</DistanceMeters>
          </Trackpoint>
          <Trackpoint>
            <Time>2021-08-13T08:17:28.000Z</Time>
            <Position>
              <LatitudeDegrees>43.232813514769077301025390625</LatitudeDegrees>
              <LongitudeDegrees>-1.99997934512794017791748046875</LongitudeDegrees>
            </Position>
            <AltitudeMeters>93.40000152587890625</AltitudeMeters>
            <DistanceMeters>NAN</DistanceMeters>
          </Trackpoint>
          <Trackpoint>
            <Time>2021-08-13T08:17:29.000Z</Time>
            <Position>
              <LatitudeDegrees>43.23276448063552379608154296875</LatitudeDegrees>
              <LongitudeDegrees>-1.9999475777149200439453125</LongitudeDegrees>
            </Position>
            <AltitudeMeters>93</AltitudeMeters>
            <DistanceMeters>NAN</DistanceMeters>
          </Trackpoint>
          <Trackpoint>
            <Time>2021-08-13T08:17:30.000Z</Time>
            <Position>
              <LatitudeDegrees>43.2327238284051418304443359375</LatitudeDegrees>
              <LongitudeDegrees>-1.99990977533161640167236328125</LongitudeDegrees>
            </Position>
            <AltitudeMeters>92.59999847412109375</AltitudeMeters>
            <DistanceMeters>NAN</DistanceMeters>
          </Trackpoint>
          <Trackpoint>
            <Time>2021-08-13T08:17:31.000Z</Time>
            <Position>
              <LatitudeDegrees>43.23269457556307315826416015625</LatitudeDegrees>
              <LongitudeDegrees>-1.999872140586376190185546875</LongitudeDegrees>
            </Position>
            <AltitudeMeters>92.40000152587890625</AltitudeMeters>
            <DistanceMeters>NAN</DistanceMeters>
          </Trackpoint>
          <Trackpoint>
            <Time>2021-08-13T08:17:32.000Z</Time>
            <Position>
              <LatitudeDegrees>43.23267169296741485595703125</LatitudeDegrees>
              <LongitudeDegrees>-1.9998344220221042633056640625</LongitudeDegrees>
            </Position>
            <AltitudeMeters>92</AltitudeMeters>
            <DistanceMeters>NAN</DistanceMeters>
          </Trackpoint>
          <Trackpoint>
            <Time>2021-08-13T08:17:33.000Z</Time>
            <Position>
              <LatitudeDegrees>43.232649900019168853759765625</LatitudeDegrees>
              <LongitudeDegrees>-1.9997998885810375213623046875</LongitudeDegrees>
            </Position>
            <AltitudeMeters>92</AltitudeMeters>
            <DistanceMeters>NAN</DistanceMeters>
          </Trackpoint>
          <Trackpoint>
            <Time>2021-08-13T08:17:34.000Z</Time>
            <Position>
              <LatitudeDegrees>43.232627771794795989990234375</LatitudeDegrees>
              <LongitudeDegrees>-1.99977315030992031097412109375</LongitudeDegrees>
            </Position>
            <AltitudeMeters>91.8000030517578125</AltitudeMeters>
            <DistanceMeters>NAN</DistanceMeters>
          </Trackpoint>
          <Trackpoint>
            <Time>2021-08-13T08:17:35.000Z</Time>
            <Position>
              <LatitudeDegrees>43.23260438628494739532470703125</LatitudeDegrees>
              <LongitudeDegrees>-1.9997633434832096099853515625</LongitudeDegrees>
            </Position>
            <AltitudeMeters>91.59999847412109375</AltitudeMeters>
            <DistanceMeters>NAN</DistanceMeters>
          </Trackpoint>
          <Trackpoint>
            <Time>2021-08-13T08:17:36.000Z</Time>
            <Position>
              <LatitudeDegrees>43.23258343152701854705810546875</LatitudeDegrees>
              <LongitudeDegrees>-1.9997732341289520263671875</LongitudeDegrees>
            </Position>
            <AltitudeMeters>91.40000152587890625</AltitudeMeters>
            <DistanceMeters>NAN</DistanceMeters>
          </Trackpoint>
          <Trackpoint>
            <Time>2021-08-13T08:17:37.000Z</Time>
            <Position>
              <LatitudeDegrees>43.2325689308345317840576171875</LatitudeDegrees>
              <LongitudeDegrees>-1.99979460798203945159912109375</LongitudeDegrees>
            </Position>
            <AltitudeMeters>91.40000152587890625</AltitudeMeters>
            <DistanceMeters>NAN</DistanceMeters>
          </Trackpoint>
          <Trackpoint>
            <Time>2021-08-13T08:17:38.000Z</Time>
            <Position>
              <LatitudeDegrees>43.232559375464916229248046875</LatitudeDegrees>
              <LongitudeDegrees>-1.999816484749317169189453125</LongitudeDegrees>
            </Position>
            <AltitudeMeters>91.1999969482421875</AltitudeMeters>
            <DistanceMeters>NAN</DistanceMeters>
          </Trackpoint>
          <Trackpoint>
            <Time>2021-08-13T08:17:39.000Z</Time>
            <Position>
              <LatitudeDegrees>43.2325494848191738128662109375</LatitudeDegrees>
              <LongitudeDegrees>-1.9998371042311191558837890625</LongitudeDegrees>
            </Position>
            <AltitudeMeters>91.1999969482421875</AltitudeMeters>
            <DistanceMeters>NAN</DistanceMeters>
          </Trackpoint>
          <Trackpoint>
            <Time>2021-08-13T08:17:40.000Z</Time>
            <Position>
              <LatitudeDegrees>43.23253699578344821929931640625</LatitudeDegrees>
              <LongitudeDegrees>-1.99985747225582599639892578125</LongitudeDegrees>
            </Position>
            <AltitudeMeters>91</AltitudeMeters>
            <DistanceMeters>NAN</DistanceMeters>
          </Trackpoint>
          <Trackpoint>
            <Time>2021-08-13T08:17:44.000Z</Time>
            <Position>
              <LatitudeDegrees>43.23246457614004611968994140625</LatitudeDegrees>
              <LongitudeDegrees>-1.999930478632450103759765625</LongitudeDegrees>
            </Position>
            <AltitudeMeters>90.59999847412109375</AltitudeMeters>
            <DistanceMeters>NAN</DistanceMeters>
          </Trackpoint>
          <Trackpoint>
            <Time>2021-08-13T08:17:45.000Z</Time>
            <Position>
              <LatitudeDegrees>43.23243297636508941650390625</LatitudeDegrees>
              <LongitudeDegrees>-1.9999376870691776275634765625</LongitudeDegrees>
            </Position>
            <AltitudeMeters>90.59999847412109375</AltitudeMeters>
            <DistanceMeters>NAN</DistanceMeters>
          </Trackpoint>
          <Trackpoint>
            <Time>2021-08-13T08:17:46.000Z</Time>
            <Position>
              <LatitudeDegrees>43.23240213096141815185546875</LatitudeDegrees>
              <LongitudeDegrees>-1.9999547861516475677490234375</LongitudeDegrees>
            </Position>
            <AltitudeMeters>90.40000152587890625</AltitudeMeters>
            <DistanceMeters>NAN</DistanceMeters>
          </Trackpoint>
          <Trackpoint>
            <Time>2021-08-13T08:17:48.000Z</Time>
            <Position>
              <LatitudeDegrees>43.23239165358245372772216796875</LatitudeDegrees>
              <LongitudeDegrees>-2.00005427934229373931884765625</LongitudeDegrees>
            </Position>
            <AltitudeMeters>90.1999969482421875</AltitudeMeters>
            <DistanceMeters>NAN</DistanceMeters>
          </Trackpoint>
          <Trackpoint>
            <Time>2021-08-13T08:17:49.000Z</Time>
            <Position>
              <LatitudeDegrees>43.232394754886627197265625</LatitudeDegrees>
              <LongitudeDegrees>-2.0001207478344440460205078125</LongitudeDegrees>
            </Position>
            <AltitudeMeters>90.1999969482421875</AltitudeMeters>
            <DistanceMeters>NAN</DistanceMeters>
          </Trackpoint>
          <Trackpoint>
            <Time>2021-08-13T08:17:50.000Z</Time>
            <Position>
              <LatitudeDegrees>43.232391737401485443115234375</LatitudeDegrees>
              <LongitudeDegrees>-2.00019157491624355316162109375</LongitudeDegrees>
            </Position>
            <AltitudeMeters>90</AltitudeMeters>
            <DistanceMeters>NAN</DistanceMeters>
          </Trackpoint>
          <Trackpoint>
            <Time>2021-08-13T08:17:51.000Z</Time>
            <Position>
              <LatitudeDegrees>43.23238327167928218841552734375</LatitudeDegrees>
              <LongitudeDegrees>-2.00026474893093109130859375</LongitudeDegrees>
            </Position>
            <AltitudeMeters>89.59999847412109375</AltitudeMeters>
            <DistanceMeters>NAN</DistanceMeters>
          </Trackpoint>
          <Trackpoint>
            <Time>2021-08-13T08:17:52.000Z</Time>
            <Position>
              <LatitudeDegrees>43.23236835189163684844970703125</LatitudeDegrees>
              <LongitudeDegrees>-2.000336833298206329345703125</LongitudeDegrees>
            </Position>
            <AltitudeMeters>89.40000152587890625</AltitudeMeters>
            <DistanceMeters>NAN</DistanceMeters>
          </Trackpoint>
          <Trackpoint>
            <Time>2021-08-13T08:17:53.000Z</Time>
            <Position>
              <LatitudeDegrees>43.23234521783888339996337890625</LatitudeDegrees>
              <LongitudeDegrees>-2.0004050619900226593017578125</LongitudeDegrees>
            </Position>
            <AltitudeMeters>89.1999969482421875</AltitudeMeters>
            <DistanceMeters>NAN</DistanceMeters>
          </Trackpoint>
          <Trackpoint>
            <Time>2021-08-13T08:17:54.000Z</Time>
            <Position>
              <LatitudeDegrees>43.23231252841651439666748046875</LatitudeDegrees>
              <LongitudeDegrees>-2.0004706084728240966796875</LongitudeDegrees>
            </Position>
            <AltitudeMeters>89.1999969482421875</AltitudeMeters>
            <DistanceMeters>NAN</DistanceMeters>
          </Trackpoint>
          <Trackpoint>
            <Time>2021-08-13T08:17:55.000Z</Time>
            <Position>
              <LatitudeDegrees>43.23226961307227611541748046875</LatitudeDegrees>
              <LongitudeDegrees>-2.00053188018500804901123046875</LongitudeDegrees>
            </Position>
            <AltitudeMeters>88.8000030517578125</AltitudeMeters>
            <DistanceMeters>NAN</DistanceMeters>
          </Trackpoint>
          <Trackpoint>
            <Time>2021-08-13T08:17:56.000Z</Time>
            <Position>
              <LatitudeDegrees>43.2322182320058345794677734375</LatitudeDegrees>
              <LongitudeDegrees>-2.0005832612514495849609375</LongitudeDegrees>
            </Position>
            <AltitudeMeters>88.59999847412109375</AltitudeMeters>
            <DistanceMeters>NAN</DistanceMeters>
          </Trackpoint>
          <Trackpoint>
            <Time>2021-08-13T08:17:57.000Z</Time>
            <Position>
              <LatitudeDegrees>43.2321585528552532196044921875</LatitudeDegrees>
              <LongitudeDegrees>-2.0006266795098781585693359375</LongitudeDegrees>
            </Position>
            <AltitudeMeters>88.1999969482421875</AltitudeMeters>
            <DistanceMeters>NAN</DistanceMeters>
          </Trackpoint>
          <Trackpoint>
            <Time>2021-08-13T08:17:58.000Z</Time>
            <Position>
              <LatitudeDegrees>43.23209510184824466705322265625</LatitudeDegrees>
              <LongitudeDegrees>-2.00066247023642063140869140625</LongitudeDegrees>
            </Position>
            <AltitudeMeters>87.8000030517578125</AltitudeMeters>
            <DistanceMeters>NAN</DistanceMeters>
          </Trackpoint>
          <Trackpoint>
            <Time>2021-08-13T08:18:00.000Z</Time>
            <Position>
              <LatitudeDegrees>43.2319724746048450469970703125</LatitudeDegrees>
              <LongitudeDegrees>-2.00072608888149261474609375</LongitudeDegrees>
            </Position>
            <AltitudeMeters>87</AltitudeMeters>
            <DistanceMeters>NAN</DistanceMeters>
          </Trackpoint>
          <Trackpoint>
            <Time>2021-08-13T08:18:01.000Z</Time>
            <Position>
              <LatitudeDegrees>43.23192109353840351104736328125</LatitudeDegrees>
              <LongitudeDegrees>-2.00075500644743442535400390625</LongitudeDegrees>
            </Position>
            <AltitudeMeters>86.59999847412109375</AltitudeMeters>
            <DistanceMeters>NAN</DistanceMeters>
          </Trackpoint>
          <Trackpoint>
            <Time>2021-08-13T08:18:02.000Z</Time>
            <Position>
              <LatitudeDegrees>43.2318762503564357757568359375</LatitudeDegrees>
              <LongitudeDegrees>-2.00078099034726619720458984375</LongitudeDegrees>
            </Position>
            <AltitudeMeters>86.40000152587890625</AltitudeMeters>
            <DistanceMeters>NAN</DistanceMeters>
          </Trackpoint>
          <Trackpoint>
            <Time>2021-08-13T08:18:03.000Z</Time>
            <Position>
              <LatitudeDegrees>43.23183895088732242584228515625</LatitudeDegrees>
              <LongitudeDegrees>-2.00080429203808307647705078125</LongitudeDegrees>
            </Position>
            <AltitudeMeters>86</AltitudeMeters>
            <DistanceMeters>NAN</DistanceMeters>
          </Trackpoint>
          <Trackpoint>
            <Time>2021-08-13T08:18:04.000Z</Time>
            <Position>
              <LatitudeDegrees>43.23180290870368480682373046875</LatitudeDegrees>
              <LongitudeDegrees>-2.0008271746337413787841796875</LongitudeDegrees>
            </Position>
            <AltitudeMeters>85.59999847412109375</AltitudeMeters>
            <DistanceMeters>NAN</DistanceMeters>
          </Trackpoint>
          <Trackpoint>
            <Time>2021-08-13T08:18:05.000Z</Time>
            <Position>
              <LatitudeDegrees>43.2317635975778102874755859375</LatitudeDegrees>
              <LongitudeDegrees>-2.0008513145148754119873046875</LongitudeDegrees>
            </Position>
            <AltitudeMeters>85.40000152587890625</AltitudeMeters>
            <DistanceMeters>NAN</DistanceMeters>
          </Trackpoint>
          <Trackpoint>
            <Time>2021-08-13T08:18:06.000Z</Time>
            <Position>
              <LatitudeDegrees>43.23172462172806262969970703125</LatitudeDegrees>
              <LongitudeDegrees>-2.0008737780153751373291015625</LongitudeDegrees>
            </Position>
            <AltitudeMeters>85.1999969482421875</AltitudeMeters>
            <DistanceMeters>NAN</DistanceMeters>
          </Trackpoint>
          <Trackpoint>
            <Time>2021-08-13T08:18:07.000Z</Time>
            <Position>
              <LatitudeDegrees>43.2316933572292327880859375</LatitudeDegrees>
              <LongitudeDegrees>-2.00089163146913051605224609375</LongitudeDegrees>
            </Position>
            <AltitudeMeters>84.8000030517578125</AltitudeMeters>
            <DistanceMeters>NAN</DistanceMeters>
          </Trackpoint>
          <Trackpoint>
            <Time>2021-08-13T08:18:08.000Z</Time>
            <Position>
              <LatitudeDegrees>43.231669552624225616455078125</LatitudeDegrees>
              <LongitudeDegrees>-2.000905461609363555908203125</LongitudeDegrees>
            </Position>
            <AltitudeMeters>84.8000030517578125</AltitudeMeters>
            <DistanceMeters>NAN</DistanceMeters>
          </Trackpoint>
          <Trackpoint>
            <Time>2021-08-13T08:18:09.000Z</Time>
            <Position>
              <LatitudeDegrees>43.2316519506275653839111328125</LatitudeDegrees>
              <LongitudeDegrees>-2.0009150169789791107177734375</LongitudeDegrees>
            </Position>
            <AltitudeMeters>84.59999847412109375</AltitudeMeters>
            <DistanceMeters>NAN</DistanceMeters>
          </Trackpoint>
          <Trackpoint>
            <Time>2021-08-13T08:18:10.000Z</Time>
            <Position>
              <LatitudeDegrees>43.231640048325061798095703125</LatitudeDegrees>
              <LongitudeDegrees>-2.00091275386512279510498046875</LongitudeDegrees>
            </Position>
            <AltitudeMeters>84.40000152587890625</AltitudeMeters>
            <DistanceMeters>NAN</DistanceMeters>
          </Trackpoint>
          <Trackpoint>
            <Time>2021-08-13T08:18:11.000Z</Time>
            <Position>
              <LatitudeDegrees>43.23164097033441066741943359375</LatitudeDegrees>
              <LongitudeDegrees>-2.00089699588716030120849609375</LongitudeDegrees>
            </Position>
            <AltitudeMeters>84.1999969482421875</AltitudeMeters>
            <DistanceMeters>NAN</DistanceMeters>
          </Trackpoint>
          <Trackpoint>
            <Time>2021-08-13T08:18:12.000Z</Time>
            <Position>
              <LatitudeDegrees>43.2316502742469310760498046875</LatitudeDegrees>
              <LongitudeDegrees>-2.000884674489498138427734375</LongitudeDegrees>
            </Position>
            <AltitudeMeters>84.1999969482421875</AltitudeMeters>
            <DistanceMeters>NAN</DistanceMeters>
          </Trackpoint>
          <Trackpoint>
            <Time>2021-08-13T08:18:13.000Z</Time>
            <Position>
              <LatitudeDegrees>43.23165924288332462310791015625</LatitudeDegrees>
              <LongitudeDegrees>-2.00087805278599262237548828125</LongitudeDegrees>
            </Position>
            <AltitudeMeters>84</AltitudeMeters>
            <DistanceMeters>NAN</DistanceMeters>
          </Trackpoint>
          <Trackpoint>
            <Time>2021-08-13T08:18:14.000Z</Time>
            <Position>
              <LatitudeDegrees>43.2316630147397518157958984375</LatitudeDegrees>
              <LongitudeDegrees>-2.0008764602243900299072265625</LongitudeDegrees>
            </Position>
            <AltitudeMeters>84</AltitudeMeters>
            <DistanceMeters>NAN</DistanceMeters>
          </Trackpoint>
          <Trackpoint>
            <Time>2021-08-13T08:18:19.000Z</Time>
            <Position>
              <LatitudeDegrees>43.2316630147397518157958984375</LatitudeDegrees>
              <LongitudeDegrees>-2.0008764602243900299072265625</LongitudeDegrees>
            </Position>
            <AltitudeMeters>84</AltitudeMeters>
            <DistanceMeters>NAN</DistanceMeters>
          </Trackpoint>
          <Trackpoint>
            <Time>2021-08-13T08:18:33.000Z</Time>
            <Position>
              <LatitudeDegrees>43.2316630147397518157958984375</LatitudeDegrees>
              <LongitudeDegrees>-2.0008764602243900299072265625</LongitudeDegrees>
            </Position>
            <AltitudeMeters>84.40000152587890625</AltitudeMeters>
            <DistanceMeters>NAN</DistanceMeters>
          </Trackpoint>
          <Trackpoint>
            <Time>2021-08-13T08:18:37.000Z</Time>
            <Position>
              <LatitudeDegrees>43.23166460730135440826416015625</LatitudeDegrees>
              <LongitudeDegrees>-2.00087537057697772979736328125</LongitudeDegrees>
            </Position>
            <AltitudeMeters>84.1999969482421875</AltitudeMeters>
            <DistanceMeters>NAN</DistanceMeters>
          </Trackpoint>
          <Trackpoint>
            <Time>2021-08-13T08:18:40.000Z</Time>
            <Position>
              <LatitudeDegrees>43.2317334227263927459716796875</LatitudeDegrees>
              <LongitudeDegrees>-2.0008368976414203643798828125</LongitudeDegrees>
            </Position>
            <AltitudeMeters>84</AltitudeMeters>
            <DistanceMeters>NAN</DistanceMeters>
          </Trackpoint>
          <Trackpoint>
            <Time>2021-08-13T08:18:45.000Z</Time>
            <Position>
              <LatitudeDegrees>43.2318739034235477447509765625</LatitudeDegrees>
              <LongitudeDegrees>-2.00076791457831859588623046875</LongitudeDegrees>
            </Position>
            <AltitudeMeters>84</AltitudeMeters>
            <DistanceMeters>NAN</DistanceMeters>
          </Trackpoint>
          <Trackpoint>
            <Time>2021-08-13T08:18:46.000Z</Time>
            <Position>
              <LatitudeDegrees>43.2318967022001743316650390625</LatitudeDegrees>
              <LongitudeDegrees>-2.0007550902664661407470703125</LongitudeDegrees>
            </Position>
            <AltitudeMeters>84</AltitudeMeters>
            <DistanceMeters>NAN</DistanceMeters>
          </Trackpoint>
          <Trackpoint>
            <Time>2021-08-13T08:18:47.000Z</Time>
            <Position>
              <LatitudeDegrees>43.23191665112972259521484375</LatitudeDegrees>
              <LongitudeDegrees>-2.00074461288750171661376953125</LongitudeDegrees>
            </Position>
            <AltitudeMeters>84</AltitudeMeters>
            <DistanceMeters>NAN</DistanceMeters>
          </Trackpoint>
          <Trackpoint>
            <Time>2021-08-13T08:18:48.000Z</Time>
            <Position>
              <LatitudeDegrees>43.231933079659938812255859375</LatitudeDegrees>
              <LongitudeDegrees>-2.00073279440402984619140625</LongitudeDegrees>
            </Position>
            <AltitudeMeters>84</AltitudeMeters>
            <DistanceMeters>NAN</DistanceMeters>
          </Trackpoint>
          <Trackpoint>
            <Time>2021-08-13T08:18:49.000Z</Time>
            <Position>
              <LatitudeDegrees>43.23194682598114013671875</LatitudeDegrees>
              <LongitudeDegrees>-2.00072047300636768341064453125</LongitudeDegrees>
            </Position>
            <AltitudeMeters>84.1999969482421875</AltitudeMeters>
            <DistanceMeters>NAN</DistanceMeters>
          </Trackpoint>
          <Trackpoint>
            <Time>2021-08-13T08:18:50.000Z</Time>
            <Position>
              <LatitudeDegrees>43.23195747099816799163818359375</LatitudeDegrees>
              <LongitudeDegrees>-2.00070890597999095916748046875</LongitudeDegrees>
            </Position>
            <AltitudeMeters>84.1999969482421875</AltitudeMeters>
            <DistanceMeters>NAN</DistanceMeters>
          </Trackpoint>
          <Trackpoint>
            <Time>2021-08-13T08:18:52.000Z</Time>
            <Position>
              <LatitudeDegrees>43.231961913406848907470703125</LatitudeDegrees>
              <LongitudeDegrees>-2.0007041282951831817626953125</LongitudeDegrees>
            </Position>
            <AltitudeMeters>84.1999969482421875</AltitudeMeters>
            <DistanceMeters>NAN</DistanceMeters>
          </Trackpoint>
          <Trackpoint>
            <Time>2021-08-13T08:19:01.000Z</Time>
            <Position>
              <LatitudeDegrees>43.231961913406848907470703125</LatitudeDegrees>
              <LongitudeDegrees>-2.0007041282951831817626953125</LongitudeDegrees>
            </Position>
            <AltitudeMeters>84.40000152587890625</AltitudeMeters>
            <DistanceMeters>NAN</DistanceMeters>
          </Trackpoint>
          <Trackpoint>
            <Time>2021-08-13T08:19:40.000Z</Time>
            <Position>
              <LatitudeDegrees>43.231961913406848907470703125</LatitudeDegrees>
              <LongitudeDegrees>-2.0007041282951831817626953125</LongitudeDegrees>
            </Position>
            <AltitudeMeters>84.40000152587890625</AltitudeMeters>
            <DistanceMeters>NAN</DistanceMeters>
          </Trackpoint>
          <Trackpoint>
            <Time>2021-08-13T08:20:31.000Z</Time>
            <Position>
              <LatitudeDegrees>43.231961913406848907470703125</LatitudeDegrees>
              <LongitudeDegrees>-2.0007041282951831817626953125</LongitudeDegrees>
            </Position>
            <AltitudeMeters>84.40000152587890625</AltitudeMeters>
            <DistanceMeters>NAN</DistanceMeters>
          </Trackpoint>
          <Trackpoint>
            <Time>2021-08-13T08:20:41.000Z</Time>
            <Position>
              <LatitudeDegrees>43.23190600611269474029541015625</LatitudeDegrees>
              <LongitudeDegrees>-2.00075232423841953277587890625</LongitudeDegrees>
            </Position>
            <AltitudeMeters>84.1999969482421875</AltitudeMeters>
            <DistanceMeters>NAN</DistanceMeters>
          </Trackpoint>
          <Trackpoint>
            <Time>2021-08-13T08:20:47.000Z</Time>
            <Position>
              <LatitudeDegrees>43.23172462172806262969970703125</LatitudeDegrees>
              <LongitudeDegrees>-2.000863216817378997802734375</LongitudeDegrees>
            </Position>
            <AltitudeMeters>84</AltitudeMeters>
            <DistanceMeters>NAN</DistanceMeters>
          </Trackpoint>
          <Trackpoint>
            <Time>2021-08-13T08:20:49.000Z</Time>
            <Position>
              <LatitudeDegrees>43.2316626794636249542236328125</LatitudeDegrees>
              <LongitudeDegrees>-2.00089833699166774749755859375</LongitudeDegrees>
            </Position>
            <AltitudeMeters>83.8000030517578125</AltitudeMeters>
            <DistanceMeters>NAN</DistanceMeters>
          </Trackpoint>
          <Trackpoint>
            <Time>2021-08-13T08:20:54.000Z</Time>
            <Position>
              <LatitudeDegrees>43.2315071113407611846923828125</LatitudeDegrees>
              <LongitudeDegrees>-2.00100746937096118927001953125</LongitudeDegrees>
            </Position>
            <AltitudeMeters>83.59999847412109375</AltitudeMeters>
            <DistanceMeters>NAN</DistanceMeters>
          </Trackpoint>
          <Trackpoint>
            <Time>2021-08-13T08:21:00.000Z</Time>
            <Position>
              <LatitudeDegrees>43.2313274033367633819580078125</LatitudeDegrees>
              <LongitudeDegrees>-2.00116722844541072845458984375</LongitudeDegrees>
            </Position>
            <AltitudeMeters>83.40000152587890625</AltitudeMeters>
            <DistanceMeters>NAN</DistanceMeters>
          </Trackpoint>
          <Trackpoint>
            <Time>2021-08-13T08:21:01.000Z</Time>
            <Position>
              <LatitudeDegrees>43.2312995754182338714599609375</LatitudeDegrees>
              <LongitudeDegrees>-2.001191787421703338623046875</LongitudeDegrees>
            </Position>
            <AltitudeMeters>83.40000152587890625</AltitudeMeters>
            <DistanceMeters>NAN</DistanceMeters>
          </Trackpoint>
          <Trackpoint>
            <Time>2021-08-13T08:21:02.000Z</Time>
            <Position>
              <LatitudeDegrees>43.23127023875713348388671875</LatitudeDegrees>
              <LongitudeDegrees>-2.00121902860701084136962890625</LongitudeDegrees>
            </Position>
            <AltitudeMeters>83.40000152587890625</AltitudeMeters>
            <DistanceMeters>NAN</DistanceMeters>
          </Trackpoint>
          <Trackpoint>
            <Time>2021-08-13T08:21:03.000Z</Time>
            <Position>
              <LatitudeDegrees>43.2312409020960330963134765625</LatitudeDegrees>
              <LongitudeDegrees>-2.00125004164874553680419921875</LongitudeDegrees>
            </Position>
            <AltitudeMeters>83.1999969482421875</AltitudeMeters>
            <DistanceMeters>NAN</DistanceMeters>
          </Trackpoint>
          <Trackpoint>
            <Time>2021-08-13T08:21:04.000Z</Time>
            <Position>
              <LatitudeDegrees>43.23121257126331329345703125</LatitudeDegrees>
              <LongitudeDegrees>-2.00127862393856048583984375</LongitudeDegrees>
            </Position>
            <AltitudeMeters>83.1999969482421875</AltitudeMeters>
            <DistanceMeters>NAN</DistanceMeters>
          </Trackpoint>
          <Trackpoint>
            <Time>2021-08-13T08:21:05.000Z</Time>
            <Position>
              <LatitudeDegrees>43.2311837375164031982421875</LatitudeDegrees>
              <LongitudeDegrees>-2.00130485929548740386962890625</LongitudeDegrees>
            </Position>
            <AltitudeMeters>83.1999969482421875</AltitudeMeters>
            <DistanceMeters>NAN</DistanceMeters>
          </Trackpoint>
          <Trackpoint>
            <Time>2021-08-13T08:21:11.000Z</Time>
            <Position>
              <LatitudeDegrees>43.23101081885397434234619140625</LatitudeDegrees>
              <LongitudeDegrees>-2.00147635303437709808349609375</LongitudeDegrees>
            </Position>
            <AltitudeMeters>82.8000030517578125</AltitudeMeters>
            <DistanceMeters>NAN</DistanceMeters>
          </Trackpoint>
          <Trackpoint>
            <Time>2021-08-13T08:21:12.000Z</Time>
            <Position>
              <LatitudeDegrees>43.2309901155531406402587890625</LatitudeDegrees>
              <LongitudeDegrees>-2.00149747543036937713623046875</LongitudeDegrees>
            </Position>
            <AltitudeMeters>82.8000030517578125</AltitudeMeters>
            <DistanceMeters>NAN</DistanceMeters>
          </Trackpoint>
          <Trackpoint>
            <Time>2021-08-13T08:21:13.000Z</Time>
            <Position>
              <LatitudeDegrees>43.2309642992913722991943359375</LatitudeDegrees>
              <LongitudeDegrees>-2.001520358026027679443359375</LongitudeDegrees>
            </Position>
            <AltitudeMeters>82.59999847412109375</AltitudeMeters>
            <DistanceMeters>NAN</DistanceMeters>
          </Trackpoint>
          <Trackpoint>
            <Time>2021-08-13T08:21:14.000Z</Time>
            <Position>
              <LatitudeDegrees>43.23094845749437808990478515625</LatitudeDegrees>
              <LongitudeDegrees>-2.0015362836420536041259765625</LongitudeDegrees>
            </Position>
            <AltitudeMeters>82.59999847412109375</AltitudeMeters>
            <DistanceMeters>NAN</DistanceMeters>
          </Trackpoint>
          <Trackpoint>
            <Time>2021-08-13T08:21:15.000Z</Time>
            <Position>
              <LatitudeDegrees>43.230933286249637603759765625</LatitudeDegrees>
              <LongitudeDegrees>-2.00155279599130153656005859375</LongitudeDegrees>
            </Position>
            <AltitudeMeters>82.40000152587890625</AltitudeMeters>
            <DistanceMeters>NAN</DistanceMeters>
          </Trackpoint>
          <Trackpoint>
            <Time>2021-08-13T08:21:16.000Z</Time>
            <Position>
              <LatitudeDegrees>43.23092029429972171783447265625</LatitudeDegrees>
              <LongitudeDegrees>-2.00156771577894687652587890625</LongitudeDegrees>
            </Position>
            <AltitudeMeters>82.1999969482421875</AltitudeMeters>
            <DistanceMeters>NAN</DistanceMeters>
          </Trackpoint>
          <Trackpoint>
            <Time>2021-08-13T08:21:17.000Z</Time>
            <Position>
              <LatitudeDegrees>43.23090721853077411651611328125</LatitudeDegrees>
              <LongitudeDegrees>-2.00158263556659221649169921875</LongitudeDegrees>
            </Position>
            <AltitudeMeters>82.1999969482421875</AltitudeMeters>
            <DistanceMeters>NAN</DistanceMeters>
          </Trackpoint>
          <Trackpoint>
            <Time>2021-08-13T08:21:18.000Z</Time>
            <Position>
              <LatitudeDegrees>43.23089146055281162261962890625</LatitudeDegrees>
              <LongitudeDegrees>-2.00159722007811069488525390625</LongitudeDegrees>
            </Position>
            <AltitudeMeters>82.1999969482421875</AltitudeMeters>
            <DistanceMeters>NAN</DistanceMeters>
          </Trackpoint>
          <Trackpoint>
            <Time>2021-08-13T08:21:23.000Z</Time>
            <Position>
              <LatitudeDegrees>43.23078744113445281982421875</LatitudeDegrees>
              <LongitudeDegrees>-2.00171004049479961395263671875</LongitudeDegrees>
            </Position>
            <AltitudeMeters>81.8000030517578125</AltitudeMeters>
            <DistanceMeters>NAN</DistanceMeters>
          </Trackpoint>
          <Trackpoint>
            <Time>2021-08-13T08:21:25.000Z</Time>
            <Position>
              <LatitudeDegrees>43.2307403348386287689208984375</LatitudeDegrees>
              <LongitudeDegrees>-2.00176955200731754302978515625</LongitudeDegrees>
            </Position>
            <AltitudeMeters>81.59999847412109375</AltitudeMeters>
            <DistanceMeters>NAN</DistanceMeters>
          </Trackpoint>
          <Trackpoint>
            <Time>2021-08-13T08:21:26.000Z</Time>
            <Position>
              <LatitudeDegrees>43.23072373867034912109375</LatitudeDegrees>
              <LongitudeDegrees>-2.0017843879759311676025390625</LongitudeDegrees>
            </Position>
            <AltitudeMeters>81.59999847412109375</AltitudeMeters>
            <DistanceMeters>NAN</DistanceMeters>
          </Trackpoint>
          <Trackpoint>
            <Time>2021-08-13T08:21:27.000Z</Time>
            <Position>
              <LatitudeDegrees>43.2307155244052410125732421875</LatitudeDegrees>
              <LongitudeDegrees>-2.00179000385105609893798828125</LongitudeDegrees>
            </Position>
            <AltitudeMeters>81.59999847412109375</AltitudeMeters>
            <DistanceMeters>NAN</DistanceMeters>
          </Trackpoint>
          <Trackpoint>
            <Time>2021-08-13T08:21:28.000Z</Time>
            <Position>
              <LatitudeDegrees>43.2307104952633380889892578125</LatitudeDegrees>
              <LongitudeDegrees>-2.0017998106777667999267578125</LongitudeDegrees>
            </Position>
            <AltitudeMeters>81.59999847412109375</AltitudeMeters>
            <DistanceMeters>NAN</DistanceMeters>
          </Trackpoint>
          <Trackpoint>
            <Time>2021-08-13T08:21:29.000Z</Time>
            <Position>
              <LatitudeDegrees>43.23070789687335491180419921875</LatitudeDegrees>
              <LongitudeDegrees>-2.00180274434387683868408203125</LongitudeDegrees>
            </Position>
            <AltitudeMeters>81.40000152587890625</AltitudeMeters>
            <DistanceMeters>NAN</DistanceMeters>
          </Trackpoint>
          <Trackpoint>
            <Time>2021-08-13T08:21:36.000Z</Time>
            <Position>
              <LatitudeDegrees>43.2307051308453083038330078125</LatitudeDegrees>
              <LongitudeDegrees>-2.00180559419095516204833984375</LongitudeDegrees>
            </Position>
            <AltitudeMeters>81.40000152587890625</AltitudeMeters>
            <DistanceMeters>NAN</DistanceMeters>
          </Trackpoint>
          <Trackpoint>
            <Time>2021-08-13T08:21:39.000Z</Time>
            <Position>
              <LatitudeDegrees>43.230701945722103118896484375</LatitudeDegrees>
              <LongitudeDegrees>-2.0018095336854457855224609375</LongitudeDegrees>
            </Position>
            <AltitudeMeters>81.40000152587890625</AltitudeMeters>
            <DistanceMeters>NAN</DistanceMeters>
          </Trackpoint>
          <Trackpoint>
            <Time>2021-08-13T08:21:47.000Z</Time>
            <Position>
              <LatitudeDegrees>43.23068551719188690185546875</LatitudeDegrees>
              <LongitudeDegrees>-2.00181716121733188629150390625</LongitudeDegrees>
            </Position>
            <AltitudeMeters>81.40000152587890625</AltitudeMeters>
            <DistanceMeters>NAN</DistanceMeters>
          </Trackpoint>
          <Trackpoint>
            <Time>2021-08-13T08:21:49.000Z</Time>
            <Position>
              <LatitudeDegrees>43.2306665740907192230224609375</LatitudeDegrees>
              <LongitudeDegrees>-2.001830153167247772216796875</LongitudeDegrees>
            </Position>
            <AltitudeMeters>81.1999969482421875</AltitudeMeters>
            <DistanceMeters>NAN</DistanceMeters>
          </Trackpoint>
          <Trackpoint>
            <Time>2021-08-13T08:21:53.000Z</Time>
            <Position>
              <LatitudeDegrees>43.23066296987235546112060546875</LatitudeDegrees>
              <LongitudeDegrees>-2.0018346793949604034423828125</LongitudeDegrees>
            </Position>
            <AltitudeMeters>81.1999969482421875</AltitudeMeters>
            <DistanceMeters>NAN</DistanceMeters>
          </Trackpoint>
          <Trackpoint>
            <Time>2021-08-13T08:22:36.000Z</Time>
            <Position>
              <LatitudeDegrees>43.2306545041501522064208984375</LatitudeDegrees>
              <LongitudeDegrees>-2.0018403790891170501708984375</LongitudeDegrees>
            </Position>
            <AltitudeMeters>80.8000030517578125</AltitudeMeters>
            <DistanceMeters>NAN</DistanceMeters>
          </Trackpoint>
          <Trackpoint>
            <Time>2021-08-13T08:24:02.000Z</Time>
            <Position>
              <LatitudeDegrees>43.23065307922661304473876953125</LatitudeDegrees>
              <LongitudeDegrees>-2.00184180401265621185302734375</LongitudeDegrees>
            </Position>
            <AltitudeMeters>81.59999847412109375</AltitudeMeters>
            <DistanceMeters>NAN</DistanceMeters>
          </Trackpoint>
          <Trackpoint>
            <Time>2021-08-13T08:24:06.000Z</Time>
            <Position>
              <LatitudeDegrees>43.23061653412878513336181640625</LatitudeDegrees>
              <LongitudeDegrees>-2.00188455171883106231689453125</LongitudeDegrees>
            </Position>
            <AltitudeMeters>81.59999847412109375</AltitudeMeters>
            <DistanceMeters>NAN</DistanceMeters>
          </Trackpoint>
          <Trackpoint>
            <Time>2021-08-13T08:24:07.000Z</Time>
            <Position>
              <LatitudeDegrees>43.23060932569205760955810546875</LatitudeDegrees>
              <LongitudeDegrees>-2.0018893294036388397216796875</LongitudeDegrees>
            </Position>
            <AltitudeMeters>81.59999847412109375</AltitudeMeters>
            <DistanceMeters>NAN</DistanceMeters>
          </Trackpoint>
          <Trackpoint>
            <Time>2021-08-13T08:24:08.000Z</Time>
            <Position>
              <LatitudeDegrees>43.23060027323663234710693359375</LatitudeDegrees>
              <LongitudeDegrees>-2.00189611874520778656005859375</LongitudeDegrees>
            </Position>
            <AltitudeMeters>81.59999847412109375</AltitudeMeters>
            <DistanceMeters>NAN</DistanceMeters>
          </Trackpoint>
          <Trackpoint>
            <Time>2021-08-13T08:24:09.000Z</Time>
            <Position>
              <LatitudeDegrees>43.23058920912444591522216796875</LatitudeDegrees>
              <LongitudeDegrees>-2.0019034110009670257568359375</LongitudeDegrees>
            </Position>
            <AltitudeMeters>81.59999847412109375</AltitudeMeters>
            <DistanceMeters>NAN</DistanceMeters>
          </Trackpoint>
          <Trackpoint>
            <Time>2021-08-13T08:24:13.000Z</Time>
            <Position>
              <LatitudeDegrees>43.23053154163062572479248046875</LatitudeDegrees>
              <LongitudeDegrees>-2.00195864774286746978759765625</LongitudeDegrees>
            </Position>
            <AltitudeMeters>81.59999847412109375</AltitudeMeters>
            <DistanceMeters>NAN</DistanceMeters>
          </Trackpoint>
          <Trackpoint>
            <Time>2021-08-13T08:24:16.000Z</Time>
            <Position>
              <LatitudeDegrees>43.23048829101026058197021484375</LatitudeDegrees>
              <LongitudeDegrees>-2.001997791230678558349609375</LongitudeDegrees>
            </Position>
            <AltitudeMeters>81.40000152587890625</AltitudeMeters>
            <DistanceMeters>NAN</DistanceMeters>
          </Trackpoint>
          <Trackpoint>
            <Time>2021-08-13T08:24:17.000Z</Time>
            <Position>
              <LatitudeDegrees>43.230476640164852142333984375</LatitudeDegrees>
              <LongitudeDegrees>-2.00200843624770641326904296875</LongitudeDegrees>
            </Position>
            <AltitudeMeters>81.40000152587890625</AltitudeMeters>
            <DistanceMeters>NAN</DistanceMeters>
          </Trackpoint>
          <Trackpoint>
            <Time>2021-08-13T08:24:18.000Z</Time>
            <Position>
              <LatitudeDegrees>43.23046901263296604156494140625</LatitudeDegrees>
              <LongitudeDegrees>-2.00201849453151226043701171875</LongitudeDegrees>
            </Position>
            <AltitudeMeters>81.40000152587890625</AltitudeMeters>
            <DistanceMeters>NAN</DistanceMeters>
          </Trackpoint>
          <Trackpoint>
            <Time>2021-08-13T08:24:19.000Z</Time>
            <Position>
              <LatitudeDegrees>43.23046557605266571044921875</LatitudeDegrees>
              <LongitudeDegrees>-2.0020227693021297454833984375</LongitudeDegrees>
            </Position>
            <AltitudeMeters>81.40000152587890625</AltitudeMeters>
            <DistanceMeters>NAN</DistanceMeters>
          </Trackpoint>
          <Trackpoint>
            <Time>2021-08-13T08:24:20.000Z</Time>
            <Position>
              <LatitudeDegrees>43.23046482168138027191162109375</LatitudeDegrees>
              <LongitudeDegrees>-2.00202402658760547637939453125</LongitudeDegrees>
            </Position>
            <AltitudeMeters>81.40000152587890625</AltitudeMeters>
            <DistanceMeters>NAN</DistanceMeters>
          </Trackpoint>
          <Trackpoint>
            <Time>2021-08-13T08:24:21.000Z</Time>
            <Position>
              <LatitudeDegrees>43.23045887053012847900390625</LatitudeDegrees>
              <LongitudeDegrees>-2.0020304806530475616455078125</LongitudeDegrees>
            </Position>
            <AltitudeMeters>81.40000152587890625</AltitudeMeters>
            <DistanceMeters>NAN</DistanceMeters>
          </Trackpoint>
          <Trackpoint>
            <Time>2021-08-13T08:24:27.000Z</Time>
            <Position>
              <LatitudeDegrees>43.230368681252002716064453125</LatitudeDegrees>
              <LongitudeDegrees>-2.002129890024662017822265625</LongitudeDegrees>
            </Position>
            <AltitudeMeters>81.1999969482421875</AltitudeMeters>
            <DistanceMeters>NAN</DistanceMeters>
          </Trackpoint>
          <Trackpoint>
            <Time>2021-08-13T08:24:29.000Z</Time>
            <Position>
              <LatitudeDegrees>43.2303272746503353118896484375</LatitudeDegrees>
              <LongitudeDegrees>-2.00217523612082004547119140625</LongitudeDegrees>
            </Position>
            <AltitudeMeters>81.1999969482421875</AltitudeMeters>
            <DistanceMeters>NAN</DistanceMeters>
          </Trackpoint>
          <Trackpoint>
            <Time>2021-08-13T08:24:35.000Z</Time>
            <Position>
              <LatitudeDegrees>43.23017698712646961212158203125</LatitudeDegrees>
              <LongitudeDegrees>-2.002322673797607421875</LongitudeDegrees>
            </Position>
            <AltitudeMeters>81</AltitudeMeters>
            <DistanceMeters>NAN</DistanceMeters>
          </Trackpoint>
          <Trackpoint>
            <Time>2021-08-13T08:24:42.000Z</Time>
            <Position>
              <LatitudeDegrees>43.22996509261429309844970703125</LatitudeDegrees>
              <LongitudeDegrees>-2.00254638679325580596923828125</LongitudeDegrees>
            </Position>
            <AltitudeMeters>80.40000152587890625</AltitudeMeters>
            <DistanceMeters>NAN</DistanceMeters>
          </Trackpoint>
          <Trackpoint>
            <Time>2021-08-13T08:24:50.000Z</Time>
            <Position>
              <LatitudeDegrees>43.22972252033650875091552734375</LatitudeDegrees>
              <LongitudeDegrees>-2.00283086858689785003662109375</LongitudeDegrees>
            </Position>
            <AltitudeMeters>79.59999847412109375</AltitudeMeters>
            <DistanceMeters>NAN</DistanceMeters>
          </Trackpoint>
          <Trackpoint>
            <Time>2021-08-13T08:24:53.000Z</Time>
            <Position>
              <LatitudeDegrees>43.22962244041264057159423828125</LatitudeDegrees>
              <LongitudeDegrees>-2.0029692538082599639892578125</LongitudeDegrees>
            </Position>
            <AltitudeMeters>79.1999969482421875</AltitudeMeters>
            <DistanceMeters>NAN</DistanceMeters>
          </Trackpoint>
          <Trackpoint>
            <Time>2021-08-13T08:24:55.000Z</Time>
            <Position>
              <LatitudeDegrees>43.229548931121826171875</LatitudeDegrees>
              <LongitudeDegrees>-2.00303957797586917877197265625</LongitudeDegrees>
            </Position>
            <AltitudeMeters>79.1999969482421875</AltitudeMeters>
            <DistanceMeters>NAN</DistanceMeters>
          </Trackpoint>
          <Trackpoint>
            <Time>2021-08-13T08:24:56.000Z</Time>
            <Position>
              <LatitudeDegrees>43.22951397858560085296630859375</LatitudeDegrees>
              <LongitudeDegrees>-2.00307109393179416656494140625</LongitudeDegrees>
            </Position>
            <AltitudeMeters>79</AltitudeMeters>
            <DistanceMeters>NAN</DistanceMeters>
          </Trackpoint>
          <Trackpoint>
            <Time>2021-08-13T08:24:57.000Z</Time>
            <Position>
              <LatitudeDegrees>43.22947693057358264923095703125</LatitudeDegrees>
              <LongitudeDegrees>-2.00310026295483112335205078125</LongitudeDegrees>
            </Position>
            <AltitudeMeters>79</AltitudeMeters>
            <DistanceMeters>NAN</DistanceMeters>
          </Trackpoint>
          <Trackpoint>
            <Time>2021-08-13T08:25:02.000Z</Time>
            <Position>
              <LatitudeDegrees>43.229288756847381591796875</LatitudeDegrees>
              <LongitudeDegrees>-2.00326119549572467803955078125</LongitudeDegrees>
            </Position>
            <AltitudeMeters>78.1999969482421875</AltitudeMeters>
            <DistanceMeters>NAN</DistanceMeters>
          </Trackpoint>
          <Trackpoint>
            <Time>2021-08-13T08:25:13.000Z</Time>
            <Position>
              <LatitudeDegrees>43.228872008621692657470703125</LatitudeDegrees>
              <LongitudeDegrees>-2.0036850683391094207763671875</LongitudeDegrees>
            </Position>
            <AltitudeMeters>77.1999969482421875</AltitudeMeters>
            <DistanceMeters>NAN</DistanceMeters>
          </Trackpoint>
          <Trackpoint>
            <Time>2021-08-13T08:25:15.000Z</Time>
            <Position>
              <LatitudeDegrees>43.2287927158176898956298828125</LatitudeDegrees>
              <LongitudeDegrees>-2.00376662425696849822998046875</LongitudeDegrees>
            </Position>
            <AltitudeMeters>76.8000030517578125</AltitudeMeters>
            <DistanceMeters>NAN</DistanceMeters>
          </Trackpoint>
          <Trackpoint>
            <Time>2021-08-13T08:25:21.000Z</Time>
            <Position>
              <LatitudeDegrees>43.22853329591453075408935546875</LatitudeDegrees>
              <LongitudeDegrees>-2.00403484515845775604248046875</LongitudeDegrees>
            </Position>
            <AltitudeMeters>76</AltitudeMeters>
            <DistanceMeters>NAN</DistanceMeters>
          </Trackpoint>
          <Trackpoint>
            <Time>2021-08-13T08:25:22.000Z</Time>
            <Position>
              <LatitudeDegrees>43.22848744690418243408203125</LatitudeDegrees>
              <LongitudeDegrees>-2.0040820352733135223388671875</LongitudeDegrees>
            </Position>
            <AltitudeMeters>75.8000030517578125</AltitudeMeters>
            <DistanceMeters>NAN</DistanceMeters>
          </Trackpoint>
          <Trackpoint>
            <Time>2021-08-13T08:25:25.000Z</Time>
            <Position>
              <LatitudeDegrees>43.22834537364542484283447265625</LatitudeDegrees>
              <LongitudeDegrees>-2.00422293506562709808349609375</LongitudeDegrees>
            </Position>
            <AltitudeMeters>75</AltitudeMeters>
            <DistanceMeters>NAN</DistanceMeters>
          </Trackpoint>
          <Trackpoint>
            <Time>2021-08-13T08:25:31.000Z</Time>
            <Position>
              <LatitudeDegrees>43.22806634008884429931640625</LatitudeDegrees>
              <LongitudeDegrees>-2.00450641103088855743408203125</LongitudeDegrees>
            </Position>
            <AltitudeMeters>74.1999969482421875</AltitudeMeters>
            <DistanceMeters>NAN</DistanceMeters>
          </Trackpoint>
          <Trackpoint>
            <Time>2021-08-13T08:25:32.000Z</Time>
            <Position>
              <LatitudeDegrees>43.22802065871655941009521484375</LatitudeDegrees>
              <LongitudeDegrees>-2.00455670244991779327392578125</LongitudeDegrees>
            </Position>
            <AltitudeMeters>73.8000030517578125</AltitudeMeters>
            <DistanceMeters>NAN</DistanceMeters>
          </Trackpoint>
          <Trackpoint>
            <Time>2021-08-13T08:25:36.000Z</Time>
            <Position>
              <LatitudeDegrees>43.22783256880939006805419921875</LatitudeDegrees>
              <LongitudeDegrees>-2.0047566108405590057373046875</LongitudeDegrees>
            </Position>
            <AltitudeMeters>73</AltitudeMeters>
            <DistanceMeters>NAN</DistanceMeters>
          </Trackpoint>
          <Trackpoint>
            <Time>2021-08-13T08:25:41.000Z</Time>
            <Position>
              <LatitudeDegrees>43.227595947682857513427734375</LatitudeDegrees>
              <LongitudeDegrees>-2.00499876402318477630615234375</LongitudeDegrees>
            </Position>
            <AltitudeMeters>71.8000030517578125</AltitudeMeters>
            <DistanceMeters>NAN</DistanceMeters>
          </Trackpoint>
          <Trackpoint>
            <Time>2021-08-13T08:25:43.000Z</Time>
            <Position>
              <LatitudeDegrees>43.227505423128604888916015625</LatitudeDegrees>
              <LongitudeDegrees>-2.00508928857743740081787109375</LongitudeDegrees>
            </Position>
            <AltitudeMeters>71.1999969482421875</AltitudeMeters>
            <DistanceMeters>NAN</DistanceMeters>
          </Trackpoint>
          <Trackpoint>
            <Time>2021-08-13T08:25:44.000Z</Time>
            <Position>
              <LatitudeDegrees>43.2274633459746837615966796875</LatitudeDegrees>
              <LongitudeDegrees>-2.00513287447392940521240234375</LongitudeDegrees>
            </Position>
            <AltitudeMeters>71</AltitudeMeters>
            <DistanceMeters>NAN</DistanceMeters>
          </Trackpoint>
          <Trackpoint>
            <Time>2021-08-13T08:25:45.000Z</Time>
            <Position>
              <LatitudeDegrees>43.22741917334496974945068359375</LatitudeDegrees>
              <LongitudeDegrees>-2.00517729856073856353759765625</LongitudeDegrees>
            </Position>
            <AltitudeMeters>70.8000030517578125</AltitudeMeters>
            <DistanceMeters>NAN</DistanceMeters>
          </Trackpoint>
          <Trackpoint>
            <Time>2021-08-13T08:25:46.000Z</Time>
            <Position>
              <LatitudeDegrees>43.22737433016300201416015625</LatitudeDegrees>
              <LongitudeDegrees>-2.00522541068494319915771484375</LongitudeDegrees>
            </Position>
            <AltitudeMeters>70.1999969482421875</AltitudeMeters>
            <DistanceMeters>NAN</DistanceMeters>
          </Trackpoint>
          <Trackpoint>
            <Time>2021-08-13T08:25:47.000Z</Time>
            <Position>
              <LatitudeDegrees>43.22733099572360515594482421875</LatitudeDegrees>
              <LongitudeDegrees>-2.00527335517108440399169921875</LongitudeDegrees>
            </Position>
            <AltitudeMeters>70</AltitudeMeters>
            <DistanceMeters>NAN</DistanceMeters>
          </Trackpoint>
          <Trackpoint>
            <Time>2021-08-13T08:25:48.000Z</Time>
            <Position>
              <LatitudeDegrees>43.22728958912193775177001953125</LatitudeDegrees>
              <LongitudeDegrees>-2.005319707095623016357421875</LongitudeDegrees>
            </Position>
            <AltitudeMeters>69.59999847412109375</AltitudeMeters>
            <DistanceMeters>NAN</DistanceMeters>
          </Trackpoint>
          <Trackpoint>
            <Time>2021-08-13T08:25:49.000Z</Time>
            <Position>
              <LatitudeDegrees>43.2272527925670146942138671875</LatitudeDegrees>
              <LongitudeDegrees>-2.0053624548017978668212890625</LongitudeDegrees>
            </Position>
            <AltitudeMeters>69.40000152587890625</AltitudeMeters>
            <DistanceMeters>NAN</DistanceMeters>
          </Trackpoint>
          <Trackpoint>
            <Time>2021-08-13T08:25:50.000Z</Time>
            <Position>
              <LatitudeDegrees>43.2272252999246120452880859375</LatitudeDegrees>
              <LongitudeDegrees>-2.00539975427091121673583984375</LongitudeDegrees>
            </Position>
            <AltitudeMeters>69</AltitudeMeters>
            <DistanceMeters>NAN</DistanceMeters>
          </Trackpoint>
          <Trackpoint>
            <Time>2021-08-13T08:25:51.000Z</Time>
            <Position>
              <LatitudeDegrees>43.227203674614429473876953125</LatitudeDegrees>
              <LongitudeDegrees>-2.00543470680713653564453125</LongitudeDegrees>
            </Position>
            <AltitudeMeters>68.59999847412109375</AltitudeMeters>
            <DistanceMeters>NAN</DistanceMeters>
          </Trackpoint>
          <Trackpoint>
            <Time>2021-08-13T08:25:52.000Z</Time>
            <Position>
              <LatitudeDegrees>43.22718213312327861785888671875</LatitudeDegrees>
              <LongitudeDegrees>-2.00546915642917156219482421875</LongitudeDegrees>
            </Position>
            <AltitudeMeters>68.40000152587890625</AltitudeMeters>
            <DistanceMeters>NAN</DistanceMeters>
          </Trackpoint>
          <Trackpoint>
            <Time>2021-08-13T08:25:53.000Z</Time>
            <Position>
              <LatitudeDegrees>43.2271631062030792236328125</LatitudeDegrees>
              <LongitudeDegrees>-2.005503438413143157958984375</LongitudeDegrees>
            </Position>
            <AltitudeMeters>68</AltitudeMeters>
            <DistanceMeters>NAN</DistanceMeters>
          </Trackpoint>
          <Trackpoint>
            <Time>2021-08-13T08:25:54.000Z</Time>
            <Position>
              <LatitudeDegrees>43.22714366018772125244140625</LatitudeDegrees>
              <LongitudeDegrees>-2.005534283816814422607421875</LongitudeDegrees>
            </Position>
            <AltitudeMeters>67.8000030517578125</AltitudeMeters>
            <DistanceMeters>NAN</DistanceMeters>
          </Trackpoint>
          <Trackpoint>
            <Time>2021-08-13T08:25:55.000Z</Time>
            <Position>
              <LatitudeDegrees>43.22712329216301441192626953125</LatitudeDegrees>
              <LongitudeDegrees>-2.0055582560598850250244140625</LongitudeDegrees>
            </Position>
            <AltitudeMeters>67.40000152587890625</AltitudeMeters>
            <DistanceMeters>NAN</DistanceMeters>
          </Trackpoint>
          <Trackpoint>
            <Time>2021-08-13T08:25:56.000Z</Time>
            <Position>
              <LatitudeDegrees>43.227102756500244140625</LatitudeDegrees>
              <LongitudeDegrees>-2.00558247976005077362060546875</LongitudeDegrees>
            </Position>
            <AltitudeMeters>67.1999969482421875</AltitudeMeters>
            <DistanceMeters>NAN</DistanceMeters>
          </Trackpoint>
          <Trackpoint>
            <Time>2021-08-13T08:25:58.000Z</Time>
            <Position>
              <LatitudeDegrees>43.2270724140107631683349609375</LatitudeDegrees>
              <LongitudeDegrees>-2.00563721358776092529296875</LongitudeDegrees>
            </Position>
            <AltitudeMeters>66.8000030517578125</AltitudeMeters>
            <DistanceMeters>NAN</DistanceMeters>
          </Trackpoint>
          <Trackpoint>
            <Time>2021-08-13T08:25:59.000Z</Time>
            <Position>
              <LatitudeDegrees>43.22705648839473724365234375</LatitudeDegrees>
              <LongitudeDegrees>-2.0056652091443538665771484375</LongitudeDegrees>
            </Position>
            <AltitudeMeters>66.8000030517578125</AltitudeMeters>
            <DistanceMeters>NAN</DistanceMeters>
          </Trackpoint>
          <Trackpoint>
            <Time>2021-08-13T08:26:00.000Z</Time>
            <Position>
              <LatitudeDegrees>43.2270432449877262115478515625</LatitudeDegrees>
              <LongitudeDegrees>-2.0056933723390102386474609375</LongitudeDegrees>
            </Position>
            <AltitudeMeters>66.40000152587890625</AltitudeMeters>
            <DistanceMeters>NAN</DistanceMeters>
          </Trackpoint>
          <Trackpoint>
            <Time>2021-08-13T08:26:01.000Z</Time>
            <Position>
              <LatitudeDegrees>43.22703226469457149505615234375</LatitudeDegrees>
              <LongitudeDegrees>-2.0057191886007785797119140625</LongitudeDegrees>
            </Position>
            <AltitudeMeters>66.40000152587890625</AltitudeMeters>
            <DistanceMeters>NAN</DistanceMeters>
          </Trackpoint>
          <Trackpoint>
            <Time>2021-08-13T08:26:02.000Z</Time>
            <Position>
              <LatitudeDegrees>43.22702170349657535552978515625</LatitudeDegrees>
              <LongitudeDegrees>-2.005743496119976043701171875</LongitudeDegrees>
            </Position>
            <AltitudeMeters>66.1999969482421875</AltitudeMeters>
            <DistanceMeters>NAN</DistanceMeters>
          </Trackpoint>
          <Trackpoint>
            <Time>2021-08-13T08:26:03.000Z</Time>
            <Position>
              <LatitudeDegrees>43.22701214812695980072021484375</LatitudeDegrees>
              <LongitudeDegrees>-2.00576738454401493072509765625</LongitudeDegrees>
            </Position>
            <AltitudeMeters>66.1999969482421875</AltitudeMeters>
            <DistanceMeters>NAN</DistanceMeters>
          </Trackpoint>
          <Trackpoint>
            <Time>2021-08-13T08:26:04.000Z</Time>
            <Position>
              <LatitudeDegrees>43.22700083255767822265625</LatitudeDegrees>
              <LongitudeDegrees>-2.00578900985419750213623046875</LongitudeDegrees>
            </Position>
            <AltitudeMeters>66.1999969482421875</AltitudeMeters>
            <DistanceMeters>NAN</DistanceMeters>
          </Trackpoint>
          <Trackpoint>
            <Time>2021-08-13T08:26:05.000Z</Time>
            <Position>
              <LatitudeDegrees>43.22698901407420635223388671875</LatitudeDegrees>
              <LongitudeDegrees>-2.00581231154501438140869140625</LongitudeDegrees>
            </Position>
            <AltitudeMeters>66</AltitudeMeters>
            <DistanceMeters>NAN</DistanceMeters>
          </Trackpoint>
          <Trackpoint>
            <Time>2021-08-13T08:26:06.000Z</Time>
            <Position>
              <LatitudeDegrees>43.22697426192462444305419921875</LatitudeDegrees>
              <LongitudeDegrees>-2.00584265403449535369873046875</LongitudeDegrees>
            </Position>
            <AltitudeMeters>66</AltitudeMeters>
            <DistanceMeters>NAN</DistanceMeters>
          </Trackpoint>
          <Trackpoint>
            <Time>2021-08-13T08:26:07.000Z</Time>
            <Position>
              <LatitudeDegrees>43.22696319781243801116943359375</LatitudeDegrees>
              <LongitudeDegrees>-2.0058750919997692108154296875</LongitudeDegrees>
            </Position>
            <AltitudeMeters>65.8000030517578125</AltitudeMeters>
            <DistanceMeters>NAN</DistanceMeters>
          </Trackpoint>
          <Trackpoint>
            <Time>2021-08-13T08:26:08.000Z</Time>
            <Position>
              <LatitudeDegrees>43.22695255279541015625</LatitudeDegrees>
              <LongitudeDegrees>-2.00590417720377445220947265625</LongitudeDegrees>
            </Position>
            <AltitudeMeters>65.8000030517578125</AltitudeMeters>
            <DistanceMeters>NAN</DistanceMeters>
          </Trackpoint>
          <Trackpoint>
            <Time>2021-08-13T08:26:09.000Z</Time>
            <Position>
              <LatitudeDegrees>43.22695255279541015625</LatitudeDegrees>
              <LongitudeDegrees>-2.00593384914100170135498046875</LongitudeDegrees>
            </Position>
            <AltitudeMeters>65.59999847412109375</AltitudeMeters>
            <DistanceMeters>NAN</DistanceMeters>
          </Trackpoint>
          <Trackpoint>
            <Time>2021-08-13T08:26:10.000Z</Time>
            <Position>
              <LatitudeDegrees>43.2269644550979137420654296875</LatitudeDegrees>
              <LongitudeDegrees>-2.00596486218273639678955078125</LongitudeDegrees>
            </Position>
            <AltitudeMeters>65.59999847412109375</AltitudeMeters>
            <DistanceMeters>NAN</DistanceMeters>
          </Trackpoint>
          <Trackpoint>
            <Time>2021-08-13T08:26:14.000Z</Time>
            <Position>
              <LatitudeDegrees>43.227003514766693115234375</LatitudeDegrees>
              <LongitudeDegrees>-2.00609184801578521728515625</LongitudeDegrees>
            </Position>
            <AltitudeMeters>65.40000152587890625</AltitudeMeters>
            <DistanceMeters>NAN</DistanceMeters>
          </Trackpoint>
          <Trackpoint>
            <Time>2021-08-13T08:26:15.000Z</Time>
            <Position>
              <LatitudeDegrees>43.22700393386185169219970703125</LatitudeDegrees>
              <LongitudeDegrees>-2.00611674226820468902587890625</LongitudeDegrees>
            </Position>
            <AltitudeMeters>65.40000152587890625</AltitudeMeters>
            <DistanceMeters>NAN</DistanceMeters>
          </Trackpoint>
          <Trackpoint>
            <Time>2021-08-13T08:26:16.000Z</Time>
            <Position>
              <LatitudeDegrees>43.22700041346251964569091796875</LatitudeDegrees>
              <LongitudeDegrees>-2.006138451397418975830078125</LongitudeDegrees>
            </Position>
            <AltitudeMeters>65.40000152587890625</AltitudeMeters>
            <DistanceMeters>NAN</DistanceMeters>
          </Trackpoint>
          <Trackpoint>
            <Time>2021-08-13T08:26:17.000Z</Time>
            <Position>
              <LatitudeDegrees>43.22699387557804584503173828125</LatitudeDegrees>
              <LongitudeDegrees>-2.00616351328790187835693359375</LongitudeDegrees>
            </Position>
            <AltitudeMeters>65.40000152587890625</AltitudeMeters>
            <DistanceMeters>NAN</DistanceMeters>
          </Trackpoint>
          <Trackpoint>
            <Time>2021-08-13T08:26:18.000Z</Time>
            <Position>
              <LatitudeDegrees>43.22698675096035003662109375</LatitudeDegrees>
              <LongitudeDegrees>-2.00618832372128963470458984375</LongitudeDegrees>
            </Position>
            <AltitudeMeters>65.40000152587890625</AltitudeMeters>
            <DistanceMeters>NAN</DistanceMeters>
          </Trackpoint>
          <Trackpoint>
            <Time>2021-08-13T08:26:19.000Z</Time>
            <Position>
              <LatitudeDegrees>43.22697711177170276641845703125</LatitudeDegrees>
              <LongitudeDegrees>-2.0062133856117725372314453125</LongitudeDegrees>
            </Position>
            <AltitudeMeters>65.40000152587890625</AltitudeMeters>
            <DistanceMeters>NAN</DistanceMeters>
          </Trackpoint>
          <Trackpoint>
            <Time>2021-08-13T08:26:20.000Z</Time>
            <Position>
              <LatitudeDegrees>43.2269641198217868804931640625</LatitudeDegrees>
              <LongitudeDegrees>-2.00623442418873310089111328125</LongitudeDegrees>
            </Position>
            <AltitudeMeters>65.1999969482421875</AltitudeMeters>
            <DistanceMeters>NAN</DistanceMeters>
          </Trackpoint>
          <Trackpoint>
            <Time>2021-08-13T08:26:21.000Z</Time>
            <Position>
              <LatitudeDegrees>43.22694844566285610198974609375</LatitudeDegrees>
              <LongitudeDegrees>-2.00625278055667877197265625</LongitudeDegrees>
            </Position>
            <AltitudeMeters>65.1999969482421875</AltitudeMeters>
            <DistanceMeters>NAN</DistanceMeters>
          </Trackpoint>
          <Trackpoint>
            <Time>2021-08-13T08:26:22.000Z</Time>
            <Position>
              <LatitudeDegrees>43.22693042457103729248046875</LatitudeDegrees>
              <LongitudeDegrees>-2.0062673650681972503662109375</LongitudeDegrees>
            </Position>
            <AltitudeMeters>65.1999969482421875</AltitudeMeters>
            <DistanceMeters>NAN</DistanceMeters>
          </Trackpoint>
          <Trackpoint>
            <Time>2021-08-13T08:26:23.000Z</Time>
            <Position>
              <LatitudeDegrees>43.2269111461937427520751953125</LatitudeDegrees>
              <LongitudeDegrees>-2.00628094375133514404296875</LongitudeDegrees>
            </Position>
            <AltitudeMeters>65.1999969482421875</AltitudeMeters>
            <DistanceMeters>NAN</DistanceMeters>
          </Trackpoint>
          <Trackpoint>
            <Time>2021-08-13T08:26:24.000Z</Time>
            <Position>
              <LatitudeDegrees>43.2268947176635265350341796875</LatitudeDegrees>
              <LongitudeDegrees>-2.00629770755767822265625</LongitudeDegrees>
            </Position>
            <AltitudeMeters>65.1999969482421875</AltitudeMeters>
            <DistanceMeters>NAN</DistanceMeters>
          </Trackpoint>
          <Trackpoint>
            <Time>2021-08-13T08:26:25.000Z</Time>
            <Position>
              <LatitudeDegrees>43.2268816418945789337158203125</LatitudeDegrees>
              <LongitudeDegrees>-2.00631706975400447845458984375</LongitudeDegrees>
            </Position>
            <AltitudeMeters>65.1999969482421875</AltitudeMeters>
            <DistanceMeters>NAN</DistanceMeters>
          </Trackpoint>
          <Trackpoint>
            <Time>2021-08-13T08:26:26.000Z</Time>
            <Position>
              <LatitudeDegrees>43.22687133215367794036865234375</LatitudeDegrees>
              <LongitudeDegrees>-2.0063428021967411041259765625</LongitudeDegrees>
            </Position>
            <AltitudeMeters>65.1999969482421875</AltitudeMeters>
            <DistanceMeters>NAN</DistanceMeters>
          </Trackpoint>
          <Trackpoint>
            <Time>2021-08-13T08:26:27.000Z</Time>
            <Position>
              <LatitudeDegrees>43.22686445899307727813720703125</LatitudeDegrees>
              <LongitudeDegrees>-2.006371133029460906982421875</LongitudeDegrees>
            </Position>
            <AltitudeMeters>65</AltitudeMeters>
            <DistanceMeters>NAN</DistanceMeters>
          </Trackpoint>
          <Trackpoint>
            <Time>2021-08-13T08:26:28.000Z</Time>
            <Position>
              <LatitudeDegrees>43.2268595136702060699462890625</LatitudeDegrees>
              <LongitudeDegrees>-2.00640088878571987152099609375</LongitudeDegrees>
            </Position>
            <AltitudeMeters>65</AltitudeMeters>
            <DistanceMeters>NAN</DistanceMeters>
          </Trackpoint>
          <Trackpoint>
            <Time>2021-08-13T08:26:29.000Z</Time>
            <Position>
              <LatitudeDegrees>43.22685540653765201568603515625</LatitudeDegrees>
              <LongitudeDegrees>-2.00643274001777172088623046875</LongitudeDegrees>
            </Position>
            <AltitudeMeters>65</AltitudeMeters>
            <DistanceMeters>NAN</DistanceMeters>
          </Trackpoint>
          <Trackpoint>
            <Time>2021-08-13T08:26:32.000Z</Time>
            <Position>
              <LatitudeDegrees>43.22683176957070827484130859375</LatitudeDegrees>
              <LongitudeDegrees>-2.00652846135199069976806640625</LongitudeDegrees>
            </Position>
            <AltitudeMeters>64.8000030517578125</AltitudeMeters>
            <DistanceMeters>NAN</DistanceMeters>
          </Trackpoint>
          <Trackpoint>
            <Time>2021-08-13T08:26:35.000Z</Time>
            <Position>
              <LatitudeDegrees>43.2268063724040985107421875</LatitudeDegrees>
              <LongitudeDegrees>-2.00661957263946533203125</LongitudeDegrees>
            </Position>
            <AltitudeMeters>64.40000152587890625</AltitudeMeters>
            <DistanceMeters>NAN</DistanceMeters>
          </Trackpoint>
          <Trackpoint>
            <Time>2021-08-13T08:26:41.000Z</Time>
            <Position>
              <LatitudeDegrees>43.2267339527606964111328125</LatitudeDegrees>
              <LongitudeDegrees>-2.00682953931391239166259765625</LongitudeDegrees>
            </Position>
            <AltitudeMeters>64.40000152587890625</AltitudeMeters>
            <DistanceMeters>NAN</DistanceMeters>
          </Trackpoint>
          <Trackpoint>
            <Time>2021-08-13T08:26:49.000Z</Time>
            <Position>
              <LatitudeDegrees>43.22660881094634532928466796875</LatitudeDegrees>
              <LongitudeDegrees>-2.007114104926586151123046875</LongitudeDegrees>
            </Position>
            <AltitudeMeters>64.59999847412109375</AltitudeMeters>
            <DistanceMeters>NAN</DistanceMeters>
          </Trackpoint>
          <Trackpoint>
            <Time>2021-08-13T08:26:50.000Z</Time>
            <Position>
              <LatitudeDegrees>43.226591460406780242919921875</LatitudeDegrees>
              <LongitudeDegrees>-2.0071501471102237701416015625</LongitudeDegrees>
            </Position>
            <AltitudeMeters>64.59999847412109375</AltitudeMeters>
            <DistanceMeters>NAN</DistanceMeters>
          </Trackpoint>
          <Trackpoint>
            <Time>2021-08-13T08:26:59.000Z</Time>
            <Position>
              <LatitudeDegrees>43.22643555700778961181640625</LatitudeDegrees>
              <LongitudeDegrees>-2.0074837468564510345458984375</LongitudeDegrees>
            </Position>
            <AltitudeMeters>64.40000152587890625</AltitudeMeters>
            <DistanceMeters>NAN</DistanceMeters>
          </Trackpoint>
          <Trackpoint>
            <Time>2021-08-13T08:27:08.000Z</Time>
            <Position>
              <LatitudeDegrees>43.226280994713306427001953125</LatitudeDegrees>
              <LongitudeDegrees>-2.00782162137329578399658203125</LongitudeDegrees>
            </Position>
            <AltitudeMeters>64.8000030517578125</AltitudeMeters>
            <DistanceMeters>NAN</DistanceMeters>
          </Trackpoint>
          <Trackpoint>
            <Time>2021-08-13T08:27:09.000Z</Time>
            <Position>
              <LatitudeDegrees>43.22626590728759765625</LatitudeDegrees>
              <LongitudeDegrees>-2.00785984285175800323486328125</LongitudeDegrees>
            </Position>
            <AltitudeMeters>64.8000030517578125</AltitudeMeters>
            <DistanceMeters>NAN</DistanceMeters>
          </Trackpoint>
          <Trackpoint>
            <Time>2021-08-13T08:27:10.000Z</Time>
            <Position>
              <LatitudeDegrees>43.226248808205127716064453125</LatitudeDegrees>
              <LongitudeDegrees>-2.007901668548583984375</LongitudeDegrees>
            </Position>
            <AltitudeMeters>64.8000030517578125</AltitudeMeters>
            <DistanceMeters>NAN</DistanceMeters>
          </Trackpoint>
          <Trackpoint>
            <Time>2021-08-13T08:27:18.000Z</Time>
            <Position>
              <LatitudeDegrees>43.22610975243151187896728515625</LatitudeDegrees>
              <LongitudeDegrees>-2.0082139782607555389404296875</LongitudeDegrees>
            </Position>
            <AltitudeMeters>65</AltitudeMeters>
            <DistanceMeters>NAN</DistanceMeters>
          </Trackpoint>
          <Trackpoint>
            <Time>2021-08-13T08:27:24.000Z</Time>
            <Position>
              <LatitudeDegrees>43.22600774466991424560546875</LatitudeDegrees>
              <LongitudeDegrees>-2.0084412954747676849365234375</LongitudeDegrees>
            </Position>
            <AltitudeMeters>65.1999969482421875</AltitudeMeters>
            <DistanceMeters>NAN</DistanceMeters>
          </Trackpoint>
          <Trackpoint>
            <Time>2021-08-13T08:27:25.000Z</Time>
            <Position>
              <LatitudeDegrees>43.22599139995872974395751953125</LatitudeDegrees>
              <LongitudeDegrees>-2.00847591273486614227294921875</LongitudeDegrees>
            </Position>
            <AltitudeMeters>65.1999969482421875</AltitudeMeters>
            <DistanceMeters>NAN</DistanceMeters>
          </Trackpoint>
          <Trackpoint>
            <Time>2021-08-13T08:27:26.000Z</Time>
            <Position>
              <LatitudeDegrees>43.22597547434270381927490234375</LatitudeDegrees>
              <LongitudeDegrees>-2.00850994326174259185791015625</LongitudeDegrees>
            </Position>
            <AltitudeMeters>65.1999969482421875</AltitudeMeters>
            <DistanceMeters>NAN</DistanceMeters>
          </Trackpoint>
          <Trackpoint>
            <Time>2021-08-13T08:27:27.000Z</Time>
            <Position>
              <LatitudeDegrees>43.225959800183773040771484375</LatitudeDegrees>
              <LongitudeDegrees>-2.0085438899695873260498046875</LongitudeDegrees>
            </Position>
            <AltitudeMeters>65.1999969482421875</AltitudeMeters>
            <DistanceMeters>NAN</DistanceMeters>
          </Trackpoint>
          <Trackpoint>
            <Time>2021-08-13T08:27:28.000Z</Time>
            <Position>
              <LatitudeDegrees>43.225943706929683685302734375</LatitudeDegrees>
              <LongitudeDegrees>-2.0085784234106540679931640625</LongitudeDegrees>
            </Position>
            <AltitudeMeters>65.1999969482421875</AltitudeMeters>
            <DistanceMeters>NAN</DistanceMeters>
          </Trackpoint>
          <Trackpoint>
            <Time>2021-08-13T08:27:29.000Z</Time>
            <Position>
              <LatitudeDegrees>43.22592593729496002197265625</LatitudeDegrees>
              <LongitudeDegrees>-2.00861513614654541015625</LongitudeDegrees>
            </Position>
            <AltitudeMeters>65.1999969482421875</AltitudeMeters>
            <DistanceMeters>NAN</DistanceMeters>
          </Trackpoint>
          <Trackpoint>
            <Time>2021-08-13T08:27:35.000Z</Time>
            <Position>
              <LatitudeDegrees>43.22582661174237728118896484375</LatitudeDegrees>
              <LongitudeDegrees>-2.008847482502460479736328125</LongitudeDegrees>
            </Position>
            <AltitudeMeters>65.40000152587890625</AltitudeMeters>
            <DistanceMeters>NAN</DistanceMeters>
          </Trackpoint>
          <Trackpoint>
            <Time>2021-08-13T08:27:44.000Z</Time>
            <Position>
              <LatitudeDegrees>43.22566752322018146514892578125</LatitudeDegrees>
              <LongitudeDegrees>-2.00920186936855316162109375</LongitudeDegrees>
            </Position>
            <AltitudeMeters>65.40000152587890625</AltitudeMeters>
            <DistanceMeters>NAN</DistanceMeters>
          </Trackpoint>
          <Trackpoint>
            <Time>2021-08-13T08:27:48.000Z</Time>
            <Position>
              <LatitudeDegrees>43.22559761814773082733154296875</LatitudeDegrees>
              <LongitudeDegrees>-2.0093478821218013763427734375</LongitudeDegrees>
            </Position>
            <AltitudeMeters>65.1999969482421875</AltitudeMeters>
            <DistanceMeters>NAN</DistanceMeters>
          </Trackpoint>
          <Trackpoint>
            <Time>2021-08-13T08:27:49.000Z</Time>
            <Position>
              <LatitudeDegrees>43.22558135725557804107666015625</LatitudeDegrees>
              <LongitudeDegrees>-2.0093817450106143951416015625</LongitudeDegrees>
            </Position>
            <AltitudeMeters>65.1999969482421875</AltitudeMeters>
            <DistanceMeters>NAN</DistanceMeters>
          </Trackpoint>
          <Trackpoint>
            <Time>2021-08-13T08:27:50.000Z</Time>
            <Position>
              <LatitudeDegrees>43.2255643419921398162841796875</LatitudeDegrees>
              <LongitudeDegrees>-2.00941485352814197540283203125</LongitudeDegrees>
            </Position>
            <AltitudeMeters>65.1999969482421875</AltitudeMeters>
            <DistanceMeters>NAN</DistanceMeters>
          </Trackpoint>
          <Trackpoint>
            <Time>2021-08-13T08:27:51.000Z</Time>
            <Position>
              <LatitudeDegrees>43.2255448959767818450927734375</LatitudeDegrees>
              <LongitudeDegrees>-2.00945525430142879486083984375</LongitudeDegrees>
            </Position>
            <AltitudeMeters>65.1999969482421875</AltitudeMeters>
            <DistanceMeters>NAN</DistanceMeters>
          </Trackpoint>
          <Trackpoint>
            <Time>2021-08-13T08:27:52.000Z</Time>
            <Position>
              <LatitudeDegrees>43.22553341276943683624267578125</LatitudeDegrees>
              <LongitudeDegrees>-2.00948023237287998199462890625</LongitudeDegrees>
            </Position>
            <AltitudeMeters>65</AltitudeMeters>
            <DistanceMeters>NAN</DistanceMeters>
          </Trackpoint>
          <Trackpoint>
            <Time>2021-08-13T08:27:53.000Z</Time>
            <Position>
              <LatitudeDegrees>43.22552033700048923492431640625</LatitudeDegrees>
              <LongitudeDegrees>-2.00950906611979007720947265625</LongitudeDegrees>
            </Position>
            <AltitudeMeters>65</AltitudeMeters>
            <DistanceMeters>NAN</DistanceMeters>
          </Trackpoint>
          <Trackpoint>
            <Time>2021-08-13T08:27:54.000Z</Time>
            <Position>
              <LatitudeDegrees>43.22550927288830280303955078125</LatitudeDegrees>
              <LongitudeDegrees>-2.00953354127705097198486328125</LongitudeDegrees>
            </Position>
            <AltitudeMeters>65</AltitudeMeters>
            <DistanceMeters>NAN</DistanceMeters>
          </Trackpoint>
          <Trackpoint>
            <Time>2021-08-13T08:27:55.000Z</Time>
            <Position>
              <LatitudeDegrees>43.22549703530967235565185546875</LatitudeDegrees>
              <LongitudeDegrees>-2.0095581002533435821533203125</LongitudeDegrees>
            </Position>
            <AltitudeMeters>65</AltitudeMeters>
            <DistanceMeters>NAN</DistanceMeters>
          </Trackpoint>
          <Trackpoint>
            <Time>2021-08-13T08:27:56.000Z</Time>
            <Position>
              <LatitudeDegrees>43.2254862226545810699462890625</LatitudeDegrees>
              <LongitudeDegrees>-2.0095829106867313385009765625</LongitudeDegrees>
            </Position>
            <AltitudeMeters>65</AltitudeMeters>
            <DistanceMeters>NAN</DistanceMeters>
          </Trackpoint>
          <Trackpoint>
            <Time>2021-08-13T08:27:57.000Z</Time>
            <Position>
              <LatitudeDegrees>43.2254764996469020843505859375</LatitudeDegrees>
              <LongitudeDegrees>-2.00960763730108737945556640625</LongitudeDegrees>
            </Position>
            <AltitudeMeters>65</AltitudeMeters>
            <DistanceMeters>NAN</DistanceMeters>
          </Trackpoint>
          <Trackpoint>
            <Time>2021-08-13T08:27:58.000Z</Time>
            <Position>
              <LatitudeDegrees>43.225463591516017913818359375</LatitudeDegrees>
              <LongitudeDegrees>-2.00962875969707965850830078125</LongitudeDegrees>
            </Position>
            <AltitudeMeters>65</AltitudeMeters>
            <DistanceMeters>NAN</DistanceMeters>
          </Trackpoint>
          <Trackpoint>
            <Time>2021-08-13T08:27:59.000Z</Time>
            <Position>
              <LatitudeDegrees>43.22544573806226253509521484375</LatitudeDegrees>
              <LongitudeDegrees>-2.00964602641761302947998046875</LongitudeDegrees>
            </Position>
            <AltitudeMeters>64.8000030517578125</AltitudeMeters>
            <DistanceMeters>NAN</DistanceMeters>
          </Trackpoint>
          <Trackpoint>
            <Time>2021-08-13T08:28:00.000Z</Time>
            <Position>
              <LatitudeDegrees>43.225425370037555694580078125</LatitudeDegrees>
              <LongitudeDegrees>-2.0096596889197826385498046875</LongitudeDegrees>
            </Position>
            <AltitudeMeters>64.8000030517578125</AltitudeMeters>
            <DistanceMeters>NAN</DistanceMeters>
          </Trackpoint>
          <Trackpoint>
            <Time>2021-08-13T08:28:01.000Z</Time>
            <Position>
              <LatitudeDegrees>43.22540449909865856170654296875</LatitudeDegrees>
              <LongitudeDegrees>-2.00967603363096714019775390625</LongitudeDegrees>
            </Position>
            <AltitudeMeters>64.8000030517578125</AltitudeMeters>
            <DistanceMeters>NAN</DistanceMeters>
          </Trackpoint>
          <Trackpoint>
            <Time>2021-08-13T08:28:02.000Z</Time>
            <Position>
              <LatitudeDegrees>43.22538304142653942108154296875</LatitudeDegrees>
              <LongitudeDegrees>-2.009695060551166534423828125</LongitudeDegrees>
            </Position>
            <AltitudeMeters>64.8000030517578125</AltitudeMeters>
            <DistanceMeters>NAN</DistanceMeters>
          </Trackpoint>
          <Trackpoint>
            <Time>2021-08-13T08:28:03.000Z</Time>
            <Position>
              <LatitudeDegrees>43.2253618352115154266357421875</LatitudeDegrees>
              <LongitudeDegrees>-2.00971241109073162078857421875</LongitudeDegrees>
            </Position>
            <AltitudeMeters>64.59999847412109375</AltitudeMeters>
            <DistanceMeters>NAN</DistanceMeters>
          </Trackpoint>
          <Trackpoint>
            <Time>2021-08-13T08:28:05.000Z</Time>
            <Position>
              <LatitudeDegrees>43.2253123819828033447265625</LatitudeDegrees>
              <LongitudeDegrees>-2.00972548685967922210693359375</LongitudeDegrees>
            </Position>
            <AltitudeMeters>64.59999847412109375</AltitudeMeters>
            <DistanceMeters>NAN</DistanceMeters>
          </Trackpoint>
          <Trackpoint>
            <Time>2021-08-13T08:28:06.000Z</Time>
            <Position>
              <LatitudeDegrees>43.22528882883489131927490234375</LatitudeDegrees>
              <LongitudeDegrees>-2.009717524051666259765625</LongitudeDegrees>
            </Position>
            <AltitudeMeters>64.59999847412109375</AltitudeMeters>
            <DistanceMeters>NAN</DistanceMeters>
          </Trackpoint>
          <Trackpoint>
            <Time>2021-08-13T08:28:08.000Z</Time>
            <Position>
              <LatitudeDegrees>43.22525396011769771575927734375</LatitudeDegrees>
              <LongitudeDegrees>-2.0096784643828868865966796875</LongitudeDegrees>
            </Position>
            <AltitudeMeters>64.59999847412109375</AltitudeMeters>
            <DistanceMeters>NAN</DistanceMeters>
          </Trackpoint>
          <Trackpoint>
            <Time>2021-08-13T08:28:09.000Z</Time>
            <Position>
              <LatitudeDegrees>43.22523836977779865264892578125</LatitudeDegrees>
              <LongitudeDegrees>-2.00965641997754573822021484375</LongitudeDegrees>
            </Position>
            <AltitudeMeters>64.59999847412109375</AltitudeMeters>
            <DistanceMeters>NAN</DistanceMeters>
          </Trackpoint>
          <Trackpoint>
            <Time>2021-08-13T08:28:10.000Z</Time>
            <Position>
              <LatitudeDegrees>43.22522730566561222076416015625</LatitudeDegrees>
              <LongitudeDegrees>-2.00963370501995086669921875</LongitudeDegrees>
            </Position>
            <AltitudeMeters>64.59999847412109375</AltitudeMeters>
            <DistanceMeters>NAN</DistanceMeters>
          </Trackpoint>
          <Trackpoint>
            <Time>2021-08-13T08:28:11.000Z</Time>
            <Position>
              <LatitudeDegrees>43.22522051632404327392578125</LatitudeDegrees>
              <LongitudeDegrees>-2.00960956513881683349609375</LongitudeDegrees>
            </Position>
            <AltitudeMeters>64.59999847412109375</AltitudeMeters>
            <DistanceMeters>NAN</DistanceMeters>
          </Trackpoint>
          <Trackpoint>
            <Time>2021-08-13T08:28:12.000Z</Time>
            <Position>
              <LatitudeDegrees>43.22521691210567951202392578125</LatitudeDegrees>
              <LongitudeDegrees>-2.0095832459628582000732421875</LongitudeDegrees>
            </Position>
            <AltitudeMeters>64.59999847412109375</AltitudeMeters>
            <DistanceMeters>NAN</DistanceMeters>
          </Trackpoint>
          <Trackpoint>
            <Time>2021-08-13T08:28:13.000Z</Time>
            <Position>
              <LatitudeDegrees>43.22521707974374294281005859375</LatitudeDegrees>
              <LongitudeDegrees>-2.0095560885965824127197265625</LongitudeDegrees>
            </Position>
            <AltitudeMeters>65</AltitudeMeters>
            <DistanceMeters>NAN</DistanceMeters>
          </Trackpoint>
          <Trackpoint>
            <Time>2021-08-13T08:28:14.000Z</Time>
            <Position>
              <LatitudeDegrees>43.22522562928497791290283203125</LatitudeDegrees>
              <LongitudeDegrees>-2.00952532701194286346435546875</LongitudeDegrees>
            </Position>
            <AltitudeMeters>65.1999969482421875</AltitudeMeters>
            <DistanceMeters>NAN</DistanceMeters>
          </Trackpoint>
          <Trackpoint>
            <Time>2021-08-13T08:28:15.000Z</Time>
            <Position>
              <LatitudeDegrees>43.2252381183207035064697265625</LatitudeDegrees>
              <LongitudeDegrees>-2.00949632562696933746337890625</LongitudeDegrees>
            </Position>
            <AltitudeMeters>65.40000152587890625</AltitudeMeters>
            <DistanceMeters>NAN</DistanceMeters>
          </Trackpoint>
          <Trackpoint>
            <Time>2021-08-13T08:28:16.000Z</Time>
            <Position>
              <LatitudeDegrees>43.22525261901319026947021484375</LatitudeDegrees>
              <LongitudeDegrees>-2.0094692520797252655029296875</LongitudeDegrees>
            </Position>
            <AltitudeMeters>65.59999847412109375</AltitudeMeters>
            <DistanceMeters>NAN</DistanceMeters>
          </Trackpoint>
          <Trackpoint>
            <Time>2021-08-13T08:28:17.000Z</Time>
            <Position>
              <LatitudeDegrees>43.22526753880083560943603515625</LatitudeDegrees>
              <LongitudeDegrees>-2.00943832285702228546142578125</LongitudeDegrees>
            </Position>
            <AltitudeMeters>66</AltitudeMeters>
            <DistanceMeters>NAN</DistanceMeters>
          </Trackpoint>
          <Trackpoint>
            <Time>2021-08-13T08:28:20.000Z</Time>
            <Position>
              <LatitudeDegrees>43.22529721073806285858154296875</LatitudeDegrees>
              <LongitudeDegrees>-2.00934846885502338409423828125</LongitudeDegrees>
            </Position>
            <AltitudeMeters>66.8000030517578125</AltitudeMeters>
            <DistanceMeters>NAN</DistanceMeters>
          </Trackpoint>
          <Trackpoint>
            <Time>2021-08-13T08:28:22.000Z</Time>
            <Position>
              <LatitudeDegrees>43.2253085263073444366455078125</LatitudeDegrees>
              <LongitudeDegrees>-2.00929465703666210174560546875</LongitudeDegrees>
            </Position>
            <AltitudeMeters>67.40000152587890625</AltitudeMeters>
            <DistanceMeters>NAN</DistanceMeters>
          </Trackpoint>
          <Trackpoint>
            <Time>2021-08-13T08:28:24.000Z</Time>
            <Position>
              <LatitudeDegrees>43.225328139960765838623046875</LatitudeDegrees>
              <LongitudeDegrees>-2.00924537144601345062255859375</LongitudeDegrees>
            </Position>
            <AltitudeMeters>68.1999969482421875</AltitudeMeters>
            <DistanceMeters>NAN</DistanceMeters>
          </Trackpoint>
          <Trackpoint>
            <Time>2021-08-13T08:28:25.000Z</Time>
            <Position>
              <LatitudeDegrees>43.22533392347395420074462890625</LatitudeDegrees>
              <LongitudeDegrees>-2.0092238299548625946044921875</LongitudeDegrees>
            </Position>
            <AltitudeMeters>68.59999847412109375</AltitudeMeters>
            <DistanceMeters>NAN</DistanceMeters>
          </Trackpoint>
          <Trackpoint>
            <Time>2021-08-13T08:28:26.000Z</Time>
            <Position>
              <LatitudeDegrees>43.2253430597484111785888671875</LatitudeDegrees>
              <LongitudeDegrees>-2.009196169674396514892578125</LongitudeDegrees>
            </Position>
            <AltitudeMeters>68.8000030517578125</AltitudeMeters>
            <DistanceMeters>NAN</DistanceMeters>
          </Trackpoint>
          <Trackpoint>
            <Time>2021-08-13T08:28:27.000Z</Time>
            <Position>
              <LatitudeDegrees>43.22535923682153224945068359375</LatitudeDegrees>
              <LongitudeDegrees>-2.0091701857745647430419921875</LongitudeDegrees>
            </Position>
            <AltitudeMeters>69</AltitudeMeters>
            <DistanceMeters>NAN</DistanceMeters>
          </Trackpoint>
          <Trackpoint>
            <Time>2021-08-13T08:28:28.000Z</Time>
            <Position>
              <LatitudeDegrees>43.22537072002887725830078125</LatitudeDegrees>
              <LongitudeDegrees>-2.0091480575501918792724609375</LongitudeDegrees>
            </Position>
            <AltitudeMeters>69.1999969482421875</AltitudeMeters>
            <DistanceMeters>NAN</DistanceMeters>
          </Trackpoint>
          <Trackpoint>
            <Time>2021-08-13T08:28:29.000Z</Time>
            <Position>
              <LatitudeDegrees>43.22537985630333423614501953125</LatitudeDegrees>
              <LongitudeDegrees>-2.00912416912615299224853515625</LongitudeDegrees>
            </Position>
            <AltitudeMeters>69.40000152587890625</AltitudeMeters>
            <DistanceMeters>NAN</DistanceMeters>
          </Trackpoint>
          <Trackpoint>
            <Time>2021-08-13T08:28:30.000Z</Time>
            <Position>
              <LatitudeDegrees>43.22538278996944427490234375</LatitudeDegrees>
              <LongitudeDegrees>-2.00910656712949275970458984375</LongitudeDegrees>
            </Position>
            <AltitudeMeters>69.59999847412109375</AltitudeMeters>
            <DistanceMeters>NAN</DistanceMeters>
          </Trackpoint>
          <Trackpoint>
            <Time>2021-08-13T08:28:31.000Z</Time>
            <Position>
              <LatitudeDegrees>43.225371055305004119873046875</LatitudeDegrees>
              <LongitudeDegrees>-2.0090987719595432281494140625</LongitudeDegrees>
            </Position>
            <AltitudeMeters>70</AltitudeMeters>
            <DistanceMeters>NAN</DistanceMeters>
          </Trackpoint>
          <Trackpoint>
            <Time>2021-08-13T08:28:32.000Z</Time>
            <Position>
              <LatitudeDegrees>43.225358985364437103271484375</LatitudeDegrees>
              <LongitudeDegrees>-2.00910036452114582061767578125</LongitudeDegrees>
            </Position>
            <AltitudeMeters>70.40000152587890625</AltitudeMeters>
            <DistanceMeters>NAN</DistanceMeters>
          </Trackpoint>
          <Trackpoint>
            <Time>2021-08-13T08:28:33.000Z</Time>
            <Position>
              <LatitudeDegrees>43.225353620946407318115234375</LatitudeDegrees>
              <LongitudeDegrees>-2.0091125182807445526123046875</LongitudeDegrees>
            </Position>
            <AltitudeMeters>70.40000152587890625</AltitudeMeters>
            <DistanceMeters>NAN</DistanceMeters>
          </Trackpoint>
          <Trackpoint>
            <Time>2021-08-13T08:28:34.000Z</Time>
            <Position>
              <LatitudeDegrees>43.22535303421318531036376953125</LatitudeDegrees>
              <LongitudeDegrees>-2.009133137762546539306640625</LongitudeDegrees>
            </Position>
            <AltitudeMeters>70.59999847412109375</AltitudeMeters>
            <DistanceMeters>NAN</DistanceMeters>
          </Trackpoint>
          <Trackpoint>
            <Time>2021-08-13T08:28:35.000Z</Time>
            <Position>
              <LatitudeDegrees>43.2253470830619335174560546875</LatitudeDegrees>
              <LongitudeDegrees>-2.00915836729109287261962890625</LongitudeDegrees>
            </Position>
            <AltitudeMeters>70.8000030517578125</AltitudeMeters>
            <DistanceMeters>NAN</DistanceMeters>
          </Trackpoint>
          <Trackpoint>
            <Time>2021-08-13T08:28:36.000Z</Time>
            <Position>
              <LatitudeDegrees>43.2253444008529186248779296875</LatitudeDegrees>
              <LongitudeDegrees>-2.00917261652648448944091796875</LongitudeDegrees>
            </Position>
            <AltitudeMeters>70.8000030517578125</AltitudeMeters>
            <DistanceMeters>NAN</DistanceMeters>
          </Trackpoint>
          <Trackpoint>
            <Time>2021-08-13T08:28:37.000Z</Time>
            <Position>
              <LatitudeDegrees>43.225338198244571685791015625</LatitudeDegrees>
              <LongitudeDegrees>-2.00919709168374538421630859375</LongitudeDegrees>
            </Position>
            <AltitudeMeters>70.8000030517578125</AltitudeMeters>
            <DistanceMeters>NAN</DistanceMeters>
          </Trackpoint>
          <Trackpoint>
            <Time>2021-08-13T08:28:38.000Z</Time>
            <Position>
              <LatitudeDegrees>43.225329816341400146484375</LatitudeDegrees>
              <LongitudeDegrees>-2.009222991764545440673828125</LongitudeDegrees>
            </Position>
            <AltitudeMeters>70.8000030517578125</AltitudeMeters>
            <DistanceMeters>NAN</DistanceMeters>
          </Trackpoint>
          <Trackpoint>
            <Time>2021-08-13T08:28:39.000Z</Time>
            <Position>
              <LatitudeDegrees>43.225319422781467437744140625</LatitudeDegrees>
              <LongitudeDegrees>-2.00924788601696491241455078125</LongitudeDegrees>
            </Position>
            <AltitudeMeters>70.8000030517578125</AltitudeMeters>
            <DistanceMeters>NAN</DistanceMeters>
          </Trackpoint>
          <Trackpoint>
            <Time>2021-08-13T08:28:40.000Z</Time>
            <Position>
              <LatitudeDegrees>43.22531011886894702911376953125</LatitudeDegrees>
              <LongitudeDegrees>-2.00927403755486011505126953125</LongitudeDegrees>
            </Position>
            <AltitudeMeters>70.8000030517578125</AltitudeMeters>
            <DistanceMeters>NAN</DistanceMeters>
          </Trackpoint>
          <Trackpoint>
            <Time>2021-08-13T08:28:41.000Z</Time>
            <Position>
              <LatitudeDegrees>43.22530324570834636688232421875</LatitudeDegrees>
              <LongitudeDegrees>-2.0092952437698841094970703125</LongitudeDegrees>
            </Position>
            <AltitudeMeters>70.8000030517578125</AltitudeMeters>
            <DistanceMeters>NAN</DistanceMeters>
          </Trackpoint>
          <Trackpoint>
            <Time>2021-08-13T08:28:42.000Z</Time>
            <Position>
              <LatitudeDegrees>43.22529721073806285858154296875</LatitudeDegrees>
              <LongitudeDegrees>-2.00931846164166927337646484375</LongitudeDegrees>
            </Position>
            <AltitudeMeters>70.8000030517578125</AltitudeMeters>
            <DistanceMeters>NAN</DistanceMeters>
          </Trackpoint>
          <Trackpoint>
            <Time>2021-08-13T08:28:43.000Z</Time>
            <Position>
              <LatitudeDegrees>43.22529000230133533477783203125</LatitudeDegrees>
              <LongitudeDegrees>-2.0093431882560253143310546875</LongitudeDegrees>
            </Position>
            <AltitudeMeters>70.8000030517578125</AltitudeMeters>
            <DistanceMeters>NAN</DistanceMeters>
          </Trackpoint>
          <Trackpoint>
            <Time>2021-08-13T08:28:44.000Z</Time>
            <Position>
              <LatitudeDegrees>43.22528162039816379547119140625</LatitudeDegrees>
              <LongitudeDegrees>-2.0093683339655399322509765625</LongitudeDegrees>
            </Position>
            <AltitudeMeters>70.8000030517578125</AltitudeMeters>
            <DistanceMeters>NAN</DistanceMeters>
          </Trackpoint>
          <Trackpoint>
            <Time>2021-08-13T08:28:45.000Z</Time>
            <Position>
              <LatitudeDegrees>43.22527357377111911773681640625</LatitudeDegrees>
              <LongitudeDegrees>-2.00939071364700794219970703125</LongitudeDegrees>
            </Position>
            <AltitudeMeters>70.8000030517578125</AltitudeMeters>
            <DistanceMeters>NAN</DistanceMeters>
          </Trackpoint>
          <Trackpoint>
            <Time>2021-08-13T08:28:46.000Z</Time>
            <Position>
              <LatitudeDegrees>43.22526167146861553192138671875</LatitudeDegrees>
              <LongitudeDegrees>-2.0094149373471736907958984375</LongitudeDegrees>
            </Position>
            <AltitudeMeters>71</AltitudeMeters>
            <DistanceMeters>NAN</DistanceMeters>
          </Trackpoint>
          <Trackpoint>
            <Time>2021-08-13T08:28:47.000Z</Time>
            <Position>
              <LatitudeDegrees>43.22524859569966793060302734375</LatitudeDegrees>
              <LongitudeDegrees>-2.009438909590244293212890625</LongitudeDegrees>
            </Position>
            <AltitudeMeters>71</AltitudeMeters>
            <DistanceMeters>NAN</DistanceMeters>
          </Trackpoint>
          <Trackpoint>
            <Time>2021-08-13T08:28:48.000Z</Time>
            <Position>
              <LatitudeDegrees>43.2252372801303863525390625</LatitudeDegrees>
              <LongitudeDegrees>-2.009461708366870880126953125</LongitudeDegrees>
            </Position>
            <AltitudeMeters>71</AltitudeMeters>
            <DistanceMeters>NAN</DistanceMeters>
          </Trackpoint>
          <Trackpoint>
            <Time>2021-08-13T08:28:49.000Z</Time>
            <Position>
              <LatitudeDegrees>43.22522646747529506683349609375</LatitudeDegrees>
              <LongitudeDegrees>-2.00948744080960750579833984375</LongitudeDegrees>
            </Position>
            <AltitudeMeters>71</AltitudeMeters>
            <DistanceMeters>NAN</DistanceMeters>
          </Trackpoint>
          <Trackpoint>
            <Time>2021-08-13T08:28:50.000Z</Time>
            <Position>
              <LatitudeDegrees>43.2252153195440769195556640625</LatitudeDegrees>
              <LongitudeDegrees>-2.0095175318419933319091796875</LongitudeDegrees>
            </Position>
            <AltitudeMeters>71</AltitudeMeters>
            <DistanceMeters>NAN</DistanceMeters>
          </Trackpoint>
          <Trackpoint>
            <Time>2021-08-13T08:28:51.000Z</Time>
            <Position>
              <LatitudeDegrees>43.2252062670886516571044921875</LatitudeDegrees>
              <LongitudeDegrees>-2.00954175554215908050537109375</LongitudeDegrees>
            </Position>
            <AltitudeMeters>71</AltitudeMeters>
            <DistanceMeters>NAN</DistanceMeters>
          </Trackpoint>
          <Trackpoint>
            <Time>2021-08-13T08:28:52.000Z</Time>
            <Position>
              <LatitudeDegrees>43.22519880719482898712158203125</LatitudeDegrees>
              <LongitudeDegrees>-2.009562291204929351806640625</LongitudeDegrees>
            </Position>
            <AltitudeMeters>71</AltitudeMeters>
            <DistanceMeters>NAN</DistanceMeters>
          </Trackpoint>
          <Trackpoint>
            <Time>2021-08-13T08:28:53.000Z</Time>
            <Position>
              <LatitudeDegrees>43.22519578970968723297119140625</LatitudeDegrees>
              <LongitudeDegrees>-2.00956908054649829864501953125</LongitudeDegrees>
            </Position>
            <AltitudeMeters>71</AltitudeMeters>
            <DistanceMeters>NAN</DistanceMeters>
          </Trackpoint>
          <Trackpoint>
            <Time>2021-08-13T08:28:59.000Z</Time>
            <Position>
              <LatitudeDegrees>43.22519578970968723297119140625</LatitudeDegrees>
              <LongitudeDegrees>-2.00956908054649829864501953125</LongitudeDegrees>
            </Position>
            <AltitudeMeters>71</AltitudeMeters>
            <DistanceMeters>NAN</DistanceMeters>
          </Trackpoint>
          <Trackpoint>
            <Time>2021-08-13T08:29:10.000Z</Time>
            <Position>
              <LatitudeDegrees>43.22519428096711635589599609375</LatitudeDegrees>
              <LongitudeDegrees>-2.0095715112984180450439453125</LongitudeDegrees>
            </Position>
            <AltitudeMeters>71</AltitudeMeters>
            <DistanceMeters>NAN</DistanceMeters>
          </Trackpoint>
          <Trackpoint>
            <Time>2021-08-13T08:29:13.000Z</Time>
            <Position>
              <LatitudeDegrees>43.225142061710357666015625</LatitudeDegrees>
              <LongitudeDegrees>-2.00965248048305511474609375</LongitudeDegrees>
            </Position>
            <AltitudeMeters>71.1999969482421875</AltitudeMeters>
            <DistanceMeters>NAN</DistanceMeters>
          </Trackpoint>
          <Trackpoint>
            <Time>2021-08-13T08:29:15.000Z</Time>
            <Position>
              <LatitudeDegrees>43.225115239620208740234375</LatitudeDegrees>
              <LongitudeDegrees>-2.0097083039581775665283203125</LongitudeDegrees>
            </Position>
            <AltitudeMeters>71.1999969482421875</AltitudeMeters>
            <DistanceMeters>NAN</DistanceMeters>
          </Trackpoint>
          <Trackpoint>
            <Time>2021-08-13T08:29:16.000Z</Time>
            <Position>
              <LatitudeDegrees>43.2250976376235485076904296875</LatitudeDegrees>
              <LongitudeDegrees>-2.009733617305755615234375</LongitudeDegrees>
            </Position>
            <AltitudeMeters>71.1999969482421875</AltitudeMeters>
            <DistanceMeters>NAN</DistanceMeters>
          </Trackpoint>
          <Trackpoint>
            <Time>2021-08-13T08:29:17.000Z</Time>
            <Position>
              <LatitudeDegrees>43.22508447803556919097900390625</LatitudeDegrees>
              <LongitudeDegrees>-2.00975281186401844024658203125</LongitudeDegrees>
            </Position>
            <AltitudeMeters>71.1999969482421875</AltitudeMeters>
            <DistanceMeters>NAN</DistanceMeters>
          </Trackpoint>
          <Trackpoint>
            <Time>2021-08-13T08:29:18.000Z</Time>
            <Position>
              <LatitudeDegrees>43.22507894597947597503662109375</LatitudeDegrees>
              <LongitudeDegrees>-2.00976287014782428741455078125</LongitudeDegrees>
            </Position>
            <AltitudeMeters>71.1999969482421875</AltitudeMeters>
            <DistanceMeters>NAN</DistanceMeters>
          </Trackpoint>
          <Trackpoint>
            <Time>2021-08-13T08:29:19.000Z</Time>
            <Position>
              <LatitudeDegrees>43.22507743723690509796142578125</LatitudeDegrees>
              <LongitudeDegrees>-2.00976521708071231842041015625</LongitudeDegrees>
            </Position>
            <AltitudeMeters>71.1999969482421875</AltitudeMeters>
            <DistanceMeters>NAN</DistanceMeters>
          </Trackpoint>
          <Trackpoint>
            <Time>2021-08-13T08:29:20.000Z</Time>
            <Position>
              <LatitudeDegrees>43.22507743723690509796142578125</LatitudeDegrees>
              <LongitudeDegrees>-2.00976521708071231842041015625</LongitudeDegrees>
            </Position>
            <AltitudeMeters>71</AltitudeMeters>
            <DistanceMeters>NAN</DistanceMeters>
          </Trackpoint>
          <Trackpoint>
            <Time>2021-08-13T08:29:26.000Z</Time>
            <Position>
              <LatitudeDegrees>43.22507743723690509796142578125</LatitudeDegrees>
              <LongitudeDegrees>-2.00976521708071231842041015625</LongitudeDegrees>
            </Position>
            <AltitudeMeters>71</AltitudeMeters>
            <DistanceMeters>NAN</DistanceMeters>
          </Trackpoint>
          <Trackpoint>
            <Time>2021-08-13T08:30:42.000Z</Time>
            <Position>
              <LatitudeDegrees>43.22507743723690509796142578125</LatitudeDegrees>
              <LongitudeDegrees>-2.00976521708071231842041015625</LongitudeDegrees>
            </Position>
            <AltitudeMeters>71</AltitudeMeters>
            <DistanceMeters>NAN</DistanceMeters>
          </Trackpoint>
          <Trackpoint>
            <Time>2021-08-13T08:36:39.000Z</Time>
            <Position>
              <LatitudeDegrees>43.22507475502789020538330078125</LatitudeDegrees>
              <LongitudeDegrees>-2.0097706653177738189697265625</LongitudeDegrees>
            </Position>
            <AltitudeMeters>70.59999847412109375</AltitudeMeters>
            <DistanceMeters>NAN</DistanceMeters>
          </Trackpoint>
          <Trackpoint>
            <Time>2021-08-13T08:36:46.000Z</Time>
            <Position>
              <LatitudeDegrees>43.22507324628531932830810546875</LatitudeDegrees>
              <LongitudeDegrees>-2.0097743533551692962646484375</LongitudeDegrees>
            </Position>
            <AltitudeMeters>70.59999847412109375</AltitudeMeters>
            <DistanceMeters>NAN</DistanceMeters>
          </Trackpoint>
          <Trackpoint>
            <Time>2021-08-13T08:36:49.000Z</Time>
            <Position>
              <LatitudeDegrees>43.22502203285694122314453125</LatitudeDegrees>
              <LongitudeDegrees>-2.00983679853379726409912109375</LongitudeDegrees>
            </Position>
            <AltitudeMeters>70.59999847412109375</AltitudeMeters>
            <DistanceMeters>NAN</DistanceMeters>
          </Trackpoint>
          <Trackpoint>
            <Time>2021-08-13T08:36:52.000Z</Time>
            <Position>
              <LatitudeDegrees>43.2249682210385799407958984375</LatitudeDegrees>
              <LongitudeDegrees>-2.00990385375916957855224609375</LongitudeDegrees>
            </Position>
            <AltitudeMeters>70.59999847412109375</AltitudeMeters>
            <DistanceMeters>NAN</DistanceMeters>
          </Trackpoint>
          <Trackpoint>
            <Time>2021-08-13T08:36:55.000Z</Time>
            <Position>
              <LatitudeDegrees>43.22491382248699665069580078125</LatitudeDegrees>
              <LongitudeDegrees>-2.00997434556484222412109375</LongitudeDegrees>
            </Position>
            <AltitudeMeters>70.59999847412109375</AltitudeMeters>
            <DistanceMeters>NAN</DistanceMeters>
          </Trackpoint>
          <Trackpoint>
            <Time>2021-08-13T08:37:00.000Z</Time>
            <Position>
              <LatitudeDegrees>43.22484592907130718231201171875</LatitudeDegrees>
              <LongitudeDegrees>-2.01004332862794399261474609375</LongitudeDegrees>
            </Position>
            <AltitudeMeters>70.8000030517578125</AltitudeMeters>
            <DistanceMeters>NAN</DistanceMeters>
          </Trackpoint>
          <Trackpoint>
            <Time>2021-08-13T08:37:01.000Z</Time>
            <Position>
              <LatitudeDegrees>43.2248398102819919586181640625</LatitudeDegrees>
              <LongitudeDegrees>-2.010073252022266387939453125</LongitudeDegrees>
            </Position>
            <AltitudeMeters>70.8000030517578125</AltitudeMeters>
            <DistanceMeters>NAN</DistanceMeters>
          </Trackpoint>
          <Trackpoint>
            <Time>2021-08-13T08:37:02.000Z</Time>
            <Position>
              <LatitudeDegrees>43.22483218275010585784912109375</LatitudeDegrees>
              <LongitudeDegrees>-2.0101035945117473602294921875</LongitudeDegrees>
            </Position>
            <AltitudeMeters>70.8000030517578125</AltitudeMeters>
            <DistanceMeters>NAN</DistanceMeters>
          </Trackpoint>
          <Trackpoint>
            <Time>2021-08-13T08:37:03.000Z</Time>
            <Position>
              <LatitudeDegrees>43.22482849471271038055419921875</LatitudeDegrees>
              <LongitudeDegrees>-2.010118849575519561767578125</LongitudeDegrees>
            </Position>
            <AltitudeMeters>70.8000030517578125</AltitudeMeters>
            <DistanceMeters>NAN</DistanceMeters>
          </Trackpoint>
          <Trackpoint>
            <Time>2021-08-13T08:37:37.000Z</Time>
            <Position>
              <LatitudeDegrees>43.22388703934848308563232421875</LatitudeDegrees>
              <LongitudeDegrees>-2.01119349338114261627197265625</LongitudeDegrees>
            </Position>
            <AltitudeMeters>71.59999847412109375</AltitudeMeters>
            <DistanceMeters>NAN</DistanceMeters>
          </Trackpoint>
          <Trackpoint>
            <Time>2021-08-13T08:37:39.000Z</Time>
            <Position>
              <LatitudeDegrees>43.22383247315883636474609375</LatitudeDegrees>
              <LongitudeDegrees>-2.0112455449998378753662109375</LongitudeDegrees>
            </Position>
            <AltitudeMeters>71.59999847412109375</AltitudeMeters>
            <DistanceMeters>NAN</DistanceMeters>
          </Trackpoint>
          <Trackpoint>
            <Time>2021-08-13T08:37:46.000Z</Time>
            <Position>
              <LatitudeDegrees>43.22363876737654209136962890625</LatitudeDegrees>
              <LongitudeDegrees>-2.0114322938024997711181640625</LongitudeDegrees>
            </Position>
            <AltitudeMeters>71.1999969482421875</AltitudeMeters>
            <DistanceMeters>NAN</DistanceMeters>
          </Trackpoint>
          <Trackpoint>
            <Time>2021-08-13T08:37:47.000Z</Time>
            <Position>
              <LatitudeDegrees>43.22360842488706111907958984375</LatitudeDegrees>
              <LongitudeDegrees>-2.01146774925291538238525390625</LongitudeDegrees>
            </Position>
            <AltitudeMeters>71.1999969482421875</AltitudeMeters>
            <DistanceMeters>NAN</DistanceMeters>
          </Trackpoint>
          <Trackpoint>
            <Time>2021-08-13T08:37:48.000Z</Time>
            <Position>
              <LatitudeDegrees>43.2235818542540073394775390625</LatitudeDegrees>
              <LongitudeDegrees>-2.01150211505591869354248046875</LongitudeDegrees>
            </Position>
            <AltitudeMeters>71</AltitudeMeters>
            <DistanceMeters>NAN</DistanceMeters>
          </Trackpoint>
          <Trackpoint>
            <Time>2021-08-13T08:37:49.000Z</Time>
            <Position>
              <LatitudeDegrees>43.22355461306869983673095703125</LatitudeDegrees>
              <LongitudeDegrees>-2.0115301944315433502197265625</LongitudeDegrees>
            </Position>
            <AltitudeMeters>71</AltitudeMeters>
            <DistanceMeters>NAN</DistanceMeters>
          </Trackpoint>
          <Trackpoint>
            <Time>2021-08-13T08:37:50.000Z</Time>
            <Position>
              <LatitudeDegrees>43.2235392741858959197998046875</LatitudeDegrees>
              <LongitudeDegrees>-2.011565901339054107666015625</LongitudeDegrees>
            </Position>
            <AltitudeMeters>71</AltitudeMeters>
            <DistanceMeters>NAN</DistanceMeters>
          </Trackpoint>
          <Trackpoint>
            <Time>2021-08-13T08:37:51.000Z</Time>
            <Position>
              <LatitudeDegrees>43.22352343238890171051025390625</LatitudeDegrees>
              <LongitudeDegrees>-2.0115885324776172637939453125</LongitudeDegrees>
            </Position>
            <AltitudeMeters>71</AltitudeMeters>
            <DistanceMeters>NAN</DistanceMeters>
          </Trackpoint>
          <Trackpoint>
            <Time>2021-08-13T08:37:52.000Z</Time>
            <Position>
              <LatitudeDegrees>43.22349862195551395416259765625</LatitudeDegrees>
              <LongitudeDegrees>-2.011616528034210205078125</LongitudeDegrees>
            </Position>
            <AltitudeMeters>71</AltitudeMeters>
            <DistanceMeters>NAN</DistanceMeters>
          </Trackpoint>
          <Trackpoint>
            <Time>2021-08-13T08:37:53.000Z</Time>
            <Position>
              <LatitudeDegrees>43.223474733531475067138671875</LatitudeDegrees>
              <LongitudeDegrees>-2.01165081001818180084228515625</LongitudeDegrees>
            </Position>
            <AltitudeMeters>71</AltitudeMeters>
            <DistanceMeters>NAN</DistanceMeters>
          </Trackpoint>
          <Trackpoint>
            <Time>2021-08-13T08:37:56.000Z</Time>
            <Position>
              <LatitudeDegrees>43.22339619509875774383544921875</LatitudeDegrees>
              <LongitudeDegrees>-2.011756338179111480712890625</LongitudeDegrees>
            </Position>
            <AltitudeMeters>70.8000030517578125</AltitudeMeters>
            <DistanceMeters>NAN</DistanceMeters>
          </Trackpoint>
          <Trackpoint>
            <Time>2021-08-13T08:38:02.000Z</Time>
            <Position>
              <LatitudeDegrees>43.22326493449509143829345703125</LatitudeDegrees>
              <LongitudeDegrees>-2.0119533129036426544189453125</LongitudeDegrees>
            </Position>
            <AltitudeMeters>70.59999847412109375</AltitudeMeters>
            <DistanceMeters>NAN</DistanceMeters>
          </Trackpoint>
          <Trackpoint>
            <Time>2021-08-13T08:38:03.000Z</Time>
            <Position>
              <LatitudeDegrees>43.2232469134032726287841796875</LatitudeDegrees>
              <LongitudeDegrees>-2.0119814760982990264892578125</LongitudeDegrees>
            </Position>
            <AltitudeMeters>70.59999847412109375</AltitudeMeters>
            <DistanceMeters>NAN</DistanceMeters>
          </Trackpoint>
          <Trackpoint>
            <Time>2021-08-13T08:38:04.000Z</Time>
            <Position>
              <LatitudeDegrees>43.22322788648307323455810546875</LatitudeDegrees>
              <LongitudeDegrees>-2.012007795274257659912109375</LongitudeDegrees>
            </Position>
            <AltitudeMeters>70.59999847412109375</AltitudeMeters>
            <DistanceMeters>NAN</DistanceMeters>
          </Trackpoint>
          <Trackpoint>
            <Time>2021-08-13T08:38:09.000Z</Time>
            <Position>
              <LatitudeDegrees>43.223118670284748077392578125</LatitudeDegrees>
              <LongitudeDegrees>-2.01217333786189556121826171875</LongitudeDegrees>
            </Position>
            <AltitudeMeters>70.59999847412109375</AltitudeMeters>
            <DistanceMeters>NAN</DistanceMeters>
          </Trackpoint>
          <Trackpoint>
            <Time>2021-08-13T08:38:10.000Z</Time>
            <Position>
              <LatitudeDegrees>43.22309629060328006744384765625</LatitudeDegrees>
              <LongitudeDegrees>-2.01220887713134288787841796875</LongitudeDegrees>
            </Position>
            <AltitudeMeters>70.59999847412109375</AltitudeMeters>
            <DistanceMeters>NAN</DistanceMeters>
          </Trackpoint>
          <Trackpoint>
            <Time>2021-08-13T08:38:17.000Z</Time>
            <Position>
              <LatitudeDegrees>43.22294072248041629791259765625</LatitudeDegrees>
              <LongitudeDegrees>-2.01250995509326457977294921875</LongitudeDegrees>
            </Position>
            <AltitudeMeters>70.59999847412109375</AltitudeMeters>
            <DistanceMeters>NAN</DistanceMeters>
          </Trackpoint>
          <Trackpoint>
            <Time>2021-08-13T08:38:25.000Z</Time>
            <Position>
              <LatitudeDegrees>43.22276855818927288055419921875</LatitudeDegrees>
              <LongitudeDegrees>-2.012858055531978607177734375</LongitudeDegrees>
            </Position>
            <AltitudeMeters>70.59999847412109375</AltitudeMeters>
            <DistanceMeters>NAN</DistanceMeters>
          </Trackpoint>
          <Trackpoint>
            <Time>2021-08-13T08:38:26.000Z</Time>
            <Position>
              <LatitudeDegrees>43.2227483578026294708251953125</LatitudeDegrees>
              <LongitudeDegrees>-2.0128997974097728729248046875</LongitudeDegrees>
            </Position>
            <AltitudeMeters>70.40000152587890625</AltitudeMeters>
            <DistanceMeters>NAN</DistanceMeters>
          </Trackpoint>
          <Trackpoint>
            <Time>2021-08-13T08:38:30.000Z</Time>
            <Position>
              <LatitudeDegrees>43.22266110219061374664306640625</LatitudeDegrees>
              <LongitudeDegrees>-2.01303868554532527923583984375</LongitudeDegrees>
            </Position>
            <AltitudeMeters>70.40000152587890625</AltitudeMeters>
            <DistanceMeters>NAN</DistanceMeters>
          </Trackpoint>
          <Trackpoint>
            <Time>2021-08-13T08:38:31.000Z</Time>
            <Position>
              <LatitudeDegrees>43.2226397283375263214111328125</LatitudeDegrees>
              <LongitudeDegrees>-2.0130731351673603057861328125</LongitudeDegrees>
            </Position>
            <AltitudeMeters>70.1999969482421875</AltitudeMeters>
            <DistanceMeters>NAN</DistanceMeters>
          </Trackpoint>
          <Trackpoint>
            <Time>2021-08-13T08:38:32.000Z</Time>
            <Position>
              <LatitudeDegrees>43.22261743247509002685546875</LatitudeDegrees>
              <LongitudeDegrees>-2.01311110518872737884521484375</LongitudeDegrees>
            </Position>
            <AltitudeMeters>70.40000152587890625</AltitudeMeters>
            <DistanceMeters>NAN</DistanceMeters>
          </Trackpoint>
          <Trackpoint>
            <Time>2021-08-13T08:38:33.000Z</Time>
            <Position>
              <LatitudeDegrees>43.22259463369846343994140625</LatitudeDegrees>
              <LongitudeDegrees>-2.0131472311913967132568359375</LongitudeDegrees>
            </Position>
            <AltitudeMeters>70.40000152587890625</AltitudeMeters>
            <DistanceMeters>NAN</DistanceMeters>
          </Trackpoint>
          <Trackpoint>
            <Time>2021-08-13T08:38:34.000Z</Time>
            <Position>
              <LatitudeDegrees>43.22257359512150287628173828125</LatitudeDegrees>
              <LongitudeDegrees>-2.01318168081343173980712890625</LongitudeDegrees>
            </Position>
            <AltitudeMeters>70.40000152587890625</AltitudeMeters>
            <DistanceMeters>NAN</DistanceMeters>
          </Trackpoint>
          <Trackpoint>
            <Time>2021-08-13T08:38:35.000Z</Time>
            <Position>
              <LatitudeDegrees>43.22255440056324005126953125</LatitudeDegrees>
              <LongitudeDegrees>-2.01321520842611789703369140625</LongitudeDegrees>
            </Position>
            <AltitudeMeters>70.40000152587890625</AltitudeMeters>
            <DistanceMeters>NAN</DistanceMeters>
          </Trackpoint>
          <Trackpoint>
            <Time>2021-08-13T08:38:36.000Z</Time>
            <Position>
              <LatitudeDegrees>43.2225331105291843414306640625</LatitudeDegrees>
              <LongitudeDegrees>-2.01324756257236003875732421875</LongitudeDegrees>
            </Position>
            <AltitudeMeters>70.40000152587890625</AltitudeMeters>
            <DistanceMeters>NAN</DistanceMeters>
          </Trackpoint>
          <Trackpoint>
            <Time>2021-08-13T08:38:37.000Z</Time>
            <Position>
              <LatitudeDegrees>43.222510814666748046875</LatitudeDegrees>
              <LongitudeDegrees>-2.01328058727085590362548828125</LongitudeDegrees>
            </Position>
            <AltitudeMeters>70.40000152587890625</AltitudeMeters>
            <DistanceMeters>NAN</DistanceMeters>
          </Trackpoint>
          <Trackpoint>
            <Time>2021-08-13T08:38:38.000Z</Time>
            <Position>
              <LatitudeDegrees>43.22248935699462890625</LatitudeDegrees>
              <LongitudeDegrees>-2.01331595890223979949951171875</LongitudeDegrees>
            </Position>
            <AltitudeMeters>70.40000152587890625</AltitudeMeters>
            <DistanceMeters>NAN</DistanceMeters>
          </Trackpoint>
          <Trackpoint>
            <Time>2021-08-13T08:38:40.000Z</Time>
            <Position>
              <LatitudeDegrees>43.22243998758494853973388671875</LatitudeDegrees>
              <LongitudeDegrees>-2.01339776627719402313232421875</LongitudeDegrees>
            </Position>
            <AltitudeMeters>70.40000152587890625</AltitudeMeters>
            <DistanceMeters>NAN</DistanceMeters>
          </Trackpoint>
          <Trackpoint>
            <Time>2021-08-13T08:38:46.000Z</Time>
            <Position>
              <LatitudeDegrees>43.22230101563036441802978515625</LatitudeDegrees>
              <LongitudeDegrees>-2.0136602036654949188232421875</LongitudeDegrees>
            </Position>
            <AltitudeMeters>70.40000152587890625</AltitudeMeters>
            <DistanceMeters>NAN</DistanceMeters>
          </Trackpoint>
          <Trackpoint>
            <Time>2021-08-13T08:38:55.000Z</Time>
            <Position>
              <LatitudeDegrees>43.2220990955829620361328125</LatitudeDegrees>
              <LongitudeDegrees>-2.0140269957482814788818359375</LongitudeDegrees>
            </Position>
            <AltitudeMeters>70.40000152587890625</AltitudeMeters>
            <DistanceMeters>NAN</DistanceMeters>
          </Trackpoint>
          <Trackpoint>
            <Time>2021-08-13T08:39:03.000Z</Time>
            <Position>
              <LatitudeDegrees>43.221914358437061309814453125</LatitudeDegrees>
              <LongitudeDegrees>-2.01436738483607769012451171875</LongitudeDegrees>
            </Position>
            <AltitudeMeters>70.40000152587890625</AltitudeMeters>
            <DistanceMeters>NAN</DistanceMeters>
          </Trackpoint>
          <Trackpoint>
            <Time>2021-08-13T08:39:04.000Z</Time>
            <Position>
              <LatitudeDegrees>43.22189130820333957672119140625</LatitudeDegrees>
              <LongitudeDegrees>-2.0144088752567768096923828125</LongitudeDegrees>
            </Position>
            <AltitudeMeters>70.40000152587890625</AltitudeMeters>
            <DistanceMeters>NAN</DistanceMeters>
          </Trackpoint>
          <Trackpoint>
            <Time>2021-08-13T08:39:08.000Z</Time>
            <Position>
              <LatitudeDegrees>43.221799694001674652099609375</LatitudeDegrees>
              <LongitudeDegrees>-2.01456402428448200225830078125</LongitudeDegrees>
            </Position>
            <AltitudeMeters>70.40000152587890625</AltitudeMeters>
            <DistanceMeters>NAN</DistanceMeters>
          </Trackpoint>
          <Trackpoint>
            <Time>2021-08-13T08:39:09.000Z</Time>
            <Position>
              <LatitudeDegrees>43.22177664376795291900634765625</LatitudeDegrees>
              <LongitudeDegrees>-2.01460375450551509857177734375</LongitudeDegrees>
            </Position>
            <AltitudeMeters>70.40000152587890625</AltitudeMeters>
            <DistanceMeters>NAN</DistanceMeters>
          </Trackpoint>
          <Trackpoint>
            <Time>2021-08-13T08:39:10.000Z</Time>
            <Position>
              <LatitudeDegrees>43.2217522524297237396240234375</LatitudeDegrees>
              <LongitudeDegrees>-2.0146455802023410797119140625</LongitudeDegrees>
            </Position>
            <AltitudeMeters>70.1999969482421875</AltitudeMeters>
            <DistanceMeters>NAN</DistanceMeters>
          </Trackpoint>
          <Trackpoint>
            <Time>2021-08-13T08:39:11.000Z</Time>
            <Position>
              <LatitudeDegrees>43.2217307947576045989990234375</LatitudeDegrees>
              <LongitudeDegrees>-2.0146871544420719146728515625</LongitudeDegrees>
            </Position>
            <AltitudeMeters>70.1999969482421875</AltitudeMeters>
            <DistanceMeters>NAN</DistanceMeters>
          </Trackpoint>
          <Trackpoint>
            <Time>2021-08-13T08:39:16.000Z</Time>
            <Position>
              <LatitudeDegrees>43.22161671705543994903564453125</LatitudeDegrees>
              <LongitudeDegrees>-2.01489494182169437408447265625</LongitudeDegrees>
            </Position>
            <AltitudeMeters>70.1999969482421875</AltitudeMeters>
            <DistanceMeters>NAN</DistanceMeters>
          </Trackpoint>
          <Trackpoint>
            <Time>2021-08-13T08:39:17.000Z</Time>
            <Position>
              <LatitudeDegrees>43.22159416973590850830078125</LatitudeDegrees>
              <LongitudeDegrees>-2.01493668369948863983154296875</LongitudeDegrees>
            </Position>
            <AltitudeMeters>70.1999969482421875</AltitudeMeters>
            <DistanceMeters>NAN</DistanceMeters>
          </Trackpoint>
          <Trackpoint>
            <Time>2021-08-13T08:39:24.000Z</Time>
            <Position>
              <LatitudeDegrees>43.22142745368182659149169921875</LatitudeDegrees>
              <LongitudeDegrees>-2.01523457653820514678955078125</LongitudeDegrees>
            </Position>
            <AltitudeMeters>70.1999969482421875</AltitudeMeters>
            <DistanceMeters>NAN</DistanceMeters>
          </Trackpoint>
          <Trackpoint>
            <Time>2021-08-13T08:39:27.000Z</Time>
            <Position>
              <LatitudeDegrees>43.22135771624743938446044921875</LatitudeDegrees>
              <LongitudeDegrees>-2.01536315493285655975341796875</LongitudeDegrees>
            </Position>
            <AltitudeMeters>70.1999969482421875</AltitudeMeters>
            <DistanceMeters>NAN</DistanceMeters>
          </Trackpoint>
          <Trackpoint>
            <Time>2021-08-13T08:39:28.000Z</Time>
            <Position>
              <LatitudeDegrees>43.22133491747081279754638671875</LatitudeDegrees>
              <LongitudeDegrees>-2.01540523208677768707275390625</LongitudeDegrees>
            </Position>
            <AltitudeMeters>70.1999969482421875</AltitudeMeters>
            <DistanceMeters>NAN</DistanceMeters>
          </Trackpoint>
          <Trackpoint>
            <Time>2021-08-13T08:39:29.000Z</Time>
            <Position>
              <LatitudeDegrees>43.22131253778934478759765625</LatitudeDegrees>
              <LongitudeDegrees>-2.0154442079365253448486328125</LongitudeDegrees>
            </Position>
            <AltitudeMeters>70.1999969482421875</AltitudeMeters>
            <DistanceMeters>NAN</DistanceMeters>
          </Trackpoint>
          <Trackpoint>
            <Time>2021-08-13T08:39:30.000Z</Time>
            <Position>
              <LatitudeDegrees>43.22129401378333568572998046875</LatitudeDegrees>
              <LongitudeDegrees>-2.01548360288143157958984375</LongitudeDegrees>
            </Position>
            <AltitudeMeters>70.1999969482421875</AltitudeMeters>
            <DistanceMeters>NAN</DistanceMeters>
          </Trackpoint>
          <Trackpoint>
            <Time>2021-08-13T08:39:31.000Z</Time>
            <Position>
              <LatitudeDegrees>43.22127691470086574554443359375</LatitudeDegrees>
              <LongitudeDegrees>-2.01552190817892551422119140625</LongitudeDegrees>
            </Position>
            <AltitudeMeters>70.1999969482421875</AltitudeMeters>
            <DistanceMeters>NAN</DistanceMeters>
          </Trackpoint>
          <Trackpoint>
            <Time>2021-08-13T08:39:32.000Z</Time>
            <Position>
              <LatitudeDegrees>43.2212557084858417510986328125</LatitudeDegrees>
              <LongitudeDegrees>-2.0155595429241657257080078125</LongitudeDegrees>
            </Position>
            <AltitudeMeters>70.1999969482421875</AltitudeMeters>
            <DistanceMeters>NAN</DistanceMeters>
          </Trackpoint>
          <Trackpoint>
            <Time>2021-08-13T08:39:33.000Z</Time>
            <Position>
              <LatitudeDegrees>43.2212359271943569183349609375</LatitudeDegrees>
              <LongitudeDegrees>-2.01559382490813732147216796875</LongitudeDegrees>
            </Position>
            <AltitudeMeters>70.40000152587890625</AltitudeMeters>
            <DistanceMeters>NAN</DistanceMeters>
          </Trackpoint>
          <Trackpoint>
            <Time>2021-08-13T08:39:34.000Z</Time>
            <Position>
              <LatitudeDegrees>43.22121622972190380096435546875</LatitudeDegrees>
              <LongitudeDegrees>-2.01562718488276004791259765625</LongitudeDegrees>
            </Position>
            <AltitudeMeters>70.40000152587890625</AltitudeMeters>
            <DistanceMeters>NAN</DistanceMeters>
          </Trackpoint>
          <Trackpoint>
            <Time>2021-08-13T08:39:35.000Z</Time>
            <Position>
              <LatitudeDegrees>43.2211963646113872528076171875</LatitudeDegrees>
              <LongitudeDegrees>-2.015664316713809967041015625</LongitudeDegrees>
            </Position>
            <AltitudeMeters>70.40000152587890625</AltitudeMeters>
            <DistanceMeters>NAN</DistanceMeters>
          </Trackpoint>
          <Trackpoint>
            <Time>2021-08-13T08:39:36.000Z</Time>
            <Position>
              <LatitudeDegrees>43.2211759127676486968994140625</LatitudeDegrees>
              <LongitudeDegrees>-2.01570513658225536346435546875</LongitudeDegrees>
            </Position>
            <AltitudeMeters>70.40000152587890625</AltitudeMeters>
            <DistanceMeters>NAN</DistanceMeters>
          </Trackpoint>
          <Trackpoint>
            <Time>2021-08-13T08:39:37.000Z</Time>
            <Position>
              <LatitudeDegrees>43.2211574725806713104248046875</LatitudeDegrees>
              <LongitudeDegrees>-2.01574369333684444427490234375</LongitudeDegrees>
            </Position>
            <AltitudeMeters>70.40000152587890625</AltitudeMeters>
            <DistanceMeters>NAN</DistanceMeters>
          </Trackpoint>
          <Trackpoint>
            <Time>2021-08-13T08:39:38.000Z</Time>
            <Position>
              <LatitudeDegrees>43.2211373560130596160888671875</LatitudeDegrees>
              <LongitudeDegrees>-2.0157798193395137786865234375</LongitudeDegrees>
            </Position>
            <AltitudeMeters>70.40000152587890625</AltitudeMeters>
            <DistanceMeters>NAN</DistanceMeters>
          </Trackpoint>
          <Trackpoint>
            <Time>2021-08-13T08:39:39.000Z</Time>
            <Position>
              <LatitudeDegrees>43.22111614979803562164306640625</LatitudeDegrees>
              <LongitudeDegrees>-2.01581359840929508209228515625</LongitudeDegrees>
            </Position>
            <AltitudeMeters>70.40000152587890625</AltitudeMeters>
            <DistanceMeters>NAN</DistanceMeters>
          </Trackpoint>
          <Trackpoint>
            <Time>2021-08-13T08:39:40.000Z</Time>
            <Position>
              <LatitudeDegrees>43.22109661996364593505859375</LatitudeDegrees>
              <LongitudeDegrees>-2.01584846712648868560791015625</LongitudeDegrees>
            </Position>
            <AltitudeMeters>70.40000152587890625</AltitudeMeters>
            <DistanceMeters>NAN</DistanceMeters>
          </Trackpoint>
          <Trackpoint>
            <Time>2021-08-13T08:39:41.000Z</Time>
            <Position>
              <LatitudeDegrees>43.22107742540538311004638671875</LatitudeDegrees>
              <LongitudeDegrees>-2.01588484458625316619873046875</LongitudeDegrees>
            </Position>
            <AltitudeMeters>70.40000152587890625</AltitudeMeters>
            <DistanceMeters>NAN</DistanceMeters>
          </Trackpoint>
          <Trackpoint>
            <Time>2021-08-13T08:39:42.000Z</Time>
            <Position>
              <LatitudeDegrees>43.2210585661232471466064453125</LatitudeDegrees>
              <LongitudeDegrees>-2.01592214405536651611328125</LongitudeDegrees>
            </Position>
            <AltitudeMeters>70.40000152587890625</AltitudeMeters>
            <DistanceMeters>NAN</DistanceMeters>
          </Trackpoint>
          <Trackpoint>
            <Time>2021-08-13T08:39:43.000Z</Time>
            <Position>
              <LatitudeDegrees>43.22103752754628658294677734375</LatitudeDegrees>
              <LongitudeDegrees>-2.01595542021095752716064453125</LongitudeDegrees>
            </Position>
            <AltitudeMeters>70.59999847412109375</AltitudeMeters>
            <DistanceMeters>NAN</DistanceMeters>
          </Trackpoint>
          <Trackpoint>
            <Time>2021-08-13T08:39:47.000Z</Time>
            <Position>
              <LatitudeDegrees>43.220925964415073394775390625</LatitudeDegrees>
              <LongitudeDegrees>-2.0161104016005992889404296875</LongitudeDegrees>
            </Position>
            <AltitudeMeters>70.8000030517578125</AltitudeMeters>
            <DistanceMeters>NAN</DistanceMeters>
          </Trackpoint>
          <Trackpoint>
            <Time>2021-08-13T08:39:48.000Z</Time>
            <Position>
              <LatitudeDegrees>43.2209023274481296539306640625</LatitudeDegrees>
              <LongitudeDegrees>-2.016157172620296478271484375</LongitudeDegrees>
            </Position>
            <AltitudeMeters>71</AltitudeMeters>
            <DistanceMeters>NAN</DistanceMeters>
          </Trackpoint>
          <Trackpoint>
            <Time>2021-08-13T08:39:50.000Z</Time>
            <Position>
              <LatitudeDegrees>43.220852203667163848876953125</LatitudeDegrees>
              <LongitudeDegrees>-2.0162482000887393951416015625</LongitudeDegrees>
            </Position>
            <AltitudeMeters>71</AltitudeMeters>
            <DistanceMeters>NAN</DistanceMeters>
          </Trackpoint>
          <Trackpoint>
            <Time>2021-08-13T08:39:51.000Z</Time>
            <Position>
              <LatitudeDegrees>43.2208263874053955078125</LatitudeDegrees>
              <LongitudeDegrees>-2.016291953623294830322265625</LongitudeDegrees>
            </Position>
            <AltitudeMeters>71</AltitudeMeters>
            <DistanceMeters>NAN</DistanceMeters>
          </Trackpoint>
          <Trackpoint>
            <Time>2021-08-13T08:39:55.000Z</Time>
            <Position>
              <LatitudeDegrees>43.22071750648319721221923828125</LatitudeDegrees>
              <LongitudeDegrees>-2.0164651237428188323974609375</LongitudeDegrees>
            </Position>
            <AltitudeMeters>71.1999969482421875</AltitudeMeters>
            <DistanceMeters>NAN</DistanceMeters>
          </Trackpoint>
          <Trackpoint>
            <Time>2021-08-13T08:39:56.000Z</Time>
            <Position>
              <LatitudeDegrees>43.22069227695465087890625</LatitudeDegrees>
              <LongitudeDegrees>-2.0165083743631839752197265625</LongitudeDegrees>
            </Position>
            <AltitudeMeters>71.40000152587890625</AltitudeMeters>
            <DistanceMeters>NAN</DistanceMeters>
          </Trackpoint>
          <Trackpoint>
            <Time>2021-08-13T08:39:57.000Z</Time>
            <Position>
              <LatitudeDegrees>43.22066855616867542266845703125</LatitudeDegrees>
              <LongitudeDegrees>-2.0165506191551685333251953125</LongitudeDegrees>
            </Position>
            <AltitudeMeters>71.40000152587890625</AltitudeMeters>
            <DistanceMeters>NAN</DistanceMeters>
          </Trackpoint>
          <Trackpoint>
            <Time>2021-08-13T08:39:58.000Z</Time>
            <Position>
              <LatitudeDegrees>43.22064709849655628204345703125</LatitudeDegrees>
              <LongitudeDegrees>-2.0165901817381381988525390625</LongitudeDegrees>
            </Position>
            <AltitudeMeters>71.40000152587890625</AltitudeMeters>
            <DistanceMeters>NAN</DistanceMeters>
          </Trackpoint>
          <Trackpoint>
            <Time>2021-08-13T08:39:59.000Z</Time>
            <Position>
              <LatitudeDegrees>43.22062446735799312591552734375</LatitudeDegrees>
              <LongitudeDegrees>-2.0166267268359661102294921875</LongitudeDegrees>
            </Position>
            <AltitudeMeters>71.59999847412109375</AltitudeMeters>
            <DistanceMeters>NAN</DistanceMeters>
          </Trackpoint>
          <Trackpoint>
            <Time>2021-08-13T08:40:00.000Z</Time>
            <Position>
              <LatitudeDegrees>43.2206015847623348236083984375</LatitudeDegrees>
              <LongitudeDegrees>-2.01666251756250858306884765625</LongitudeDegrees>
            </Position>
            <AltitudeMeters>71.8000030517578125</AltitudeMeters>
            <DistanceMeters>NAN</DistanceMeters>
          </Trackpoint>
          <Trackpoint>
            <Time>2021-08-13T08:40:01.000Z</Time>
            <Position>
              <LatitudeDegrees>43.22057870216667652130126953125</LatitudeDegrees>
              <LongitudeDegrees>-2.01669604517519474029541015625</LongitudeDegrees>
            </Position>
            <AltitudeMeters>71.8000030517578125</AltitudeMeters>
            <DistanceMeters>NAN</DistanceMeters>
          </Trackpoint>
          <Trackpoint>
            <Time>2021-08-13T08:40:02.000Z</Time>
            <Position>
              <LatitudeDegrees>43.22056009434163570404052734375</LatitudeDegrees>
              <LongitudeDegrees>-2.0167289860546588897705078125</LongitudeDegrees>
            </Position>
            <AltitudeMeters>72</AltitudeMeters>
            <DistanceMeters>NAN</DistanceMeters>
          </Trackpoint>
          <Trackpoint>
            <Time>2021-08-13T08:40:03.000Z</Time>
            <Position>
              <LatitudeDegrees>43.2205435819923877716064453125</LatitudeDegrees>
              <LongitudeDegrees>-2.01675807125866413116455078125</LongitudeDegrees>
            </Position>
            <AltitudeMeters>72</AltitudeMeters>
            <DistanceMeters>NAN</DistanceMeters>
          </Trackpoint>
          <Trackpoint>
            <Time>2021-08-13T08:40:04.000Z</Time>
            <Position>
              <LatitudeDegrees>43.22052841074764728546142578125</LatitudeDegrees>
              <LongitudeDegrees>-2.01678556390106678009033203125</LongitudeDegrees>
            </Position>
            <AltitudeMeters>72</AltitudeMeters>
            <DistanceMeters>NAN</DistanceMeters>
          </Trackpoint>
          <Trackpoint>
            <Time>2021-08-13T08:40:05.000Z</Time>
            <Position>
              <LatitudeDegrees>43.22051860392093658447265625</LatitudeDegrees>
              <LongitudeDegrees>-2.016809284687042236328125</LongitudeDegrees>
            </Position>
            <AltitudeMeters>72.1999969482421875</AltitudeMeters>
            <DistanceMeters>NAN</DistanceMeters>
          </Trackpoint>
          <Trackpoint>
            <Time>2021-08-13T08:40:06.000Z</Time>
            <Position>
              <LatitudeDegrees>43.2205107249319553375244140625</LatitudeDegrees>
              <LongitudeDegrees>-2.01683166436851024627685546875</LongitudeDegrees>
            </Position>
            <AltitudeMeters>72.1999969482421875</AltitudeMeters>
            <DistanceMeters>NAN</DistanceMeters>
          </Trackpoint>
          <Trackpoint>
            <Time>2021-08-13T08:40:07.000Z</Time>
            <Position>
              <LatitudeDegrees>43.22050058282911777496337890625</LatitudeDegrees>
              <LongitudeDegrees>-2.01685982756316661834716796875</LongitudeDegrees>
            </Position>
            <AltitudeMeters>72.40000152587890625</AltitudeMeters>
            <DistanceMeters>NAN</DistanceMeters>
          </Trackpoint>
          <Trackpoint>
            <Time>2021-08-13T08:40:08.000Z</Time>
            <Position>
              <LatitudeDegrees>43.22048666886985301971435546875</LatitudeDegrees>
              <LongitudeDegrees>-2.01689704321324825286865234375</LongitudeDegrees>
            </Position>
            <AltitudeMeters>72.40000152587890625</AltitudeMeters>
            <DistanceMeters>NAN</DistanceMeters>
          </Trackpoint>
          <Trackpoint>
            <Time>2021-08-13T08:40:13.000Z</Time>
            <Position>
              <LatitudeDegrees>43.22041039355099201202392578125</LatitudeDegrees>
              <LongitudeDegrees>-2.017114050686359405517578125</LongitudeDegrees>
            </Position>
            <AltitudeMeters>72</AltitudeMeters>
            <DistanceMeters>NAN</DistanceMeters>
          </Trackpoint>
          <Trackpoint>
            <Time>2021-08-13T08:40:17.000Z</Time>
            <Position>
              <LatitudeDegrees>43.2203222997486591339111328125</LatitudeDegrees>
              <LongitudeDegrees>-2.0173086784780025482177734375</LongitudeDegrees>
            </Position>
            <AltitudeMeters>71.8000030517578125</AltitudeMeters>
            <DistanceMeters>NAN</DistanceMeters>
          </Trackpoint>
          <Trackpoint>
            <Time>2021-08-13T08:40:18.000Z</Time>
            <Position>
              <LatitudeDegrees>43.22029958479106426239013671875</LatitudeDegrees>
              <LongitudeDegrees>-2.01735251583158969879150390625</LongitudeDegrees>
            </Position>
            <AltitudeMeters>71.8000030517578125</AltitudeMeters>
            <DistanceMeters>NAN</DistanceMeters>
          </Trackpoint>
          <Trackpoint>
            <Time>2021-08-13T08:40:19.000Z</Time>
            <Position>
              <LatitudeDegrees>43.220275528728961944580078125</LatitudeDegrees>
              <LongitudeDegrees>-2.01739308424293994903564453125</LongitudeDegrees>
            </Position>
            <AltitudeMeters>71.8000030517578125</AltitudeMeters>
            <DistanceMeters>NAN</DistanceMeters>
          </Trackpoint>
          <Trackpoint>
            <Time>2021-08-13T08:40:20.000Z</Time>
            <Position>
              <LatitudeDegrees>43.22025331668555736541748046875</LatitudeDegrees>
              <LongitudeDegrees>-2.0174293778836727142333984375</LongitudeDegrees>
            </Position>
            <AltitudeMeters>72</AltitudeMeters>
            <DistanceMeters>NAN</DistanceMeters>
          </Trackpoint>
          <Trackpoint>
            <Time>2021-08-13T08:40:21.000Z</Time>
            <Position>
              <LatitudeDegrees>43.2202304340898990631103515625</LatitudeDegrees>
              <LongitudeDegrees>-2.01746282167732715606689453125</LongitudeDegrees>
            </Position>
            <AltitudeMeters>72.1999969482421875</AltitudeMeters>
            <DistanceMeters>NAN</DistanceMeters>
          </Trackpoint>
          <Trackpoint>
            <Time>2021-08-13T08:40:23.000Z</Time>
            <Position>
              <LatitudeDegrees>43.22018559090793132781982421875</LatitudeDegrees>
              <LongitudeDegrees>-2.01752878725528717041015625</LongitudeDegrees>
            </Position>
            <AltitudeMeters>72.59999847412109375</AltitudeMeters>
            <DistanceMeters>NAN</DistanceMeters>
          </Trackpoint>
          <Trackpoint>
            <Time>2021-08-13T08:40:24.000Z</Time>
            <Position>
              <LatitudeDegrees>43.22016580961644649505615234375</LatitudeDegrees>
              <LongitudeDegrees>-2.0175616443157196044921875</LongitudeDegrees>
            </Position>
            <AltitudeMeters>72.8000030517578125</AltitudeMeters>
            <DistanceMeters>NAN</DistanceMeters>
          </Trackpoint>
          <Trackpoint>
            <Time>2021-08-13T08:40:25.000Z</Time>
            <Position>
              <LatitudeDegrees>43.2201412506401538848876953125</LatitudeDegrees>
              <LongitudeDegrees>-2.0175953395664691925048828125</LongitudeDegrees>
            </Position>
            <AltitudeMeters>73.40000152587890625</AltitudeMeters>
            <DistanceMeters>NAN</DistanceMeters>
          </Trackpoint>
          <Trackpoint>
            <Time>2021-08-13T08:40:26.000Z</Time>
            <Position>
              <LatitudeDegrees>43.22011769749224185943603515625</LatitudeDegrees>
              <LongitudeDegrees>-2.01762928627431392669677734375</LongitudeDegrees>
            </Position>
            <AltitudeMeters>73.59999847412109375</AltitudeMeters>
            <DistanceMeters>NAN</DistanceMeters>
          </Trackpoint>
          <Trackpoint>
            <Time>2021-08-13T08:40:27.000Z</Time>
            <Position>
              <LatitudeDegrees>43.22009749710559844970703125</LatitudeDegrees>
              <LongitudeDegrees>-2.01766432262957096099853515625</LongitudeDegrees>
            </Position>
            <AltitudeMeters>74</AltitudeMeters>
            <DistanceMeters>NAN</DistanceMeters>
          </Trackpoint>
          <Trackpoint>
            <Time>2021-08-13T08:40:28.000Z</Time>
            <Position>
              <LatitudeDegrees>43.2200785540044307708740234375</LatitudeDegrees>
              <LongitudeDegrees>-2.01769768260419368743896484375</LongitudeDegrees>
            </Position>
            <AltitudeMeters>74.1999969482421875</AltitudeMeters>
            <DistanceMeters>NAN</DistanceMeters>
          </Trackpoint>
          <Trackpoint>
            <Time>2021-08-13T08:40:29.000Z</Time>
            <Position>
              <LatitudeDegrees>43.2200591079890727996826171875</LatitudeDegrees>
              <LongitudeDegrees>-2.017730958759784698486328125</LongitudeDegrees>
            </Position>
            <AltitudeMeters>74.40000152587890625</AltitudeMeters>
            <DistanceMeters>NAN</DistanceMeters>
          </Trackpoint>
          <Trackpoint>
            <Time>2021-08-13T08:40:30.000Z</Time>
            <Position>
              <LatitudeDegrees>43.22003924287855625152587890625</LatitudeDegrees>
              <LongitudeDegrees>-2.01776616275310516357421875</LongitudeDegrees>
            </Position>
            <AltitudeMeters>74.8000030517578125</AltitudeMeters>
            <DistanceMeters>NAN</DistanceMeters>
          </Trackpoint>
          <Trackpoint>
            <Time>2021-08-13T08:40:31.000Z</Time>
            <Position>
              <LatitudeDegrees>43.220019042491912841796875</LatitudeDegrees>
              <LongitudeDegrees>-2.01779927127063274383544921875</LongitudeDegrees>
            </Position>
            <AltitudeMeters>74.8000030517578125</AltitudeMeters>
            <DistanceMeters>NAN</DistanceMeters>
          </Trackpoint>
          <Trackpoint>
            <Time>2021-08-13T08:40:32.000Z</Time>
            <Position>
              <LatitudeDegrees>43.21999850682914257049560546875</LatitudeDegrees>
              <LongitudeDegrees>-2.017832882702350616455078125</LongitudeDegrees>
            </Position>
            <AltitudeMeters>75.40000152587890625</AltitudeMeters>
            <DistanceMeters>NAN</DistanceMeters>
          </Trackpoint>
          <Trackpoint>
            <Time>2021-08-13T08:40:33.000Z</Time>
            <Position>
              <LatitudeDegrees>43.21997570805251598358154296875</LatitudeDegrees>
              <LongitudeDegrees>-2.0178662426769733428955078125</LongitudeDegrees>
            </Position>
            <AltitudeMeters>75.59999847412109375</AltitudeMeters>
            <DistanceMeters>NAN</DistanceMeters>
          </Trackpoint>
          <Trackpoint>
            <Time>2021-08-13T08:40:34.000Z</Time>
            <Position>
              <LatitudeDegrees>43.2199533283710479736328125</LatitudeDegrees>
              <LongitudeDegrees>-2.01790161430835723876953125</LongitudeDegrees>
            </Position>
            <AltitudeMeters>75.8000030517578125</AltitudeMeters>
            <DistanceMeters>NAN</DistanceMeters>
          </Trackpoint>
          <Trackpoint>
            <Time>2021-08-13T08:40:35.000Z</Time>
            <Position>
              <LatitudeDegrees>43.21992340497672557830810546875</LatitudeDegrees>
              <LongitudeDegrees>-2.017944194376468658447265625</LongitudeDegrees>
            </Position>
            <AltitudeMeters>76.40000152587890625</AltitudeMeters>
            <DistanceMeters>NAN</DistanceMeters>
          </Trackpoint>
          <Trackpoint>
            <Time>2021-08-13T08:40:36.000Z</Time>
            <Position>
              <LatitudeDegrees>43.2199048809707164764404296875</LatitudeDegrees>
              <LongitudeDegrees>-2.01797277666628360748291015625</LongitudeDegrees>
            </Position>
            <AltitudeMeters>76.8000030517578125</AltitudeMeters>
            <DistanceMeters>NAN</DistanceMeters>
          </Trackpoint>
          <Trackpoint>
            <Time>2021-08-13T08:40:37.000Z</Time>
            <Position>
              <LatitudeDegrees>43.21988401003181934356689453125</LatitudeDegrees>
              <LongitudeDegrees>-2.01800596900284290313720703125</LongitudeDegrees>
            </Position>
            <AltitudeMeters>77.1999969482421875</AltitudeMeters>
            <DistanceMeters>NAN</DistanceMeters>
          </Trackpoint>
          <Trackpoint>
            <Time>2021-08-13T08:40:38.000Z</Time>
            <Position>
              <LatitudeDegrees>43.21986372582614421844482421875</LatitudeDegrees>
              <LongitudeDegrees>-2.018042095005512237548828125</LongitudeDegrees>
            </Position>
            <AltitudeMeters>77.1999969482421875</AltitudeMeters>
            <DistanceMeters>NAN</DistanceMeters>
          </Trackpoint>
          <Trackpoint>
            <Time>2021-08-13T08:40:39.000Z</Time>
            <Position>
              <LatitudeDegrees>43.219842351973056793212890625</LatitudeDegrees>
              <LongitudeDegrees>-2.01807570643723011016845703125</LongitudeDegrees>
            </Position>
            <AltitudeMeters>77.8000030517578125</AltitudeMeters>
            <DistanceMeters>NAN</DistanceMeters>
          </Trackpoint>
          <Trackpoint>
            <Time>2021-08-13T08:40:40.000Z</Time>
            <Position>
              <LatitudeDegrees>43.21981946937739849090576171875</LatitudeDegrees>
              <LongitudeDegrees>-2.018107809126377105712890625</LongitudeDegrees>
            </Position>
            <AltitudeMeters>78</AltitudeMeters>
            <DistanceMeters>NAN</DistanceMeters>
          </Trackpoint>
          <Trackpoint>
            <Time>2021-08-13T08:40:41.000Z</Time>
            <Position>
              <LatitudeDegrees>43.2197972573339939117431640625</LatitudeDegrees>
              <LongitudeDegrees>-2.01814167201519012451171875</LongitudeDegrees>
            </Position>
            <AltitudeMeters>78.40000152587890625</AltitudeMeters>
            <DistanceMeters>NAN</DistanceMeters>
          </Trackpoint>
          <Trackpoint>
            <Time>2021-08-13T08:40:42.000Z</Time>
            <Position>
              <LatitudeDegrees>43.21977538056671619415283203125</LatitudeDegrees>
              <LongitudeDegrees>-2.01817461289465427398681640625</LongitudeDegrees>
            </Position>
            <AltitudeMeters>78.59999847412109375</AltitudeMeters>
            <DistanceMeters>NAN</DistanceMeters>
          </Trackpoint>
          <Trackpoint>
            <Time>2021-08-13T08:40:43.000Z</Time>
            <Position>
              <LatitudeDegrees>43.21975392289459705352783203125</LatitudeDegrees>
              <LongitudeDegrees>-2.0182092301547527313232421875</LongitudeDegrees>
            </Position>
            <AltitudeMeters>78.8000030517578125</AltitudeMeters>
            <DistanceMeters>NAN</DistanceMeters>
          </Trackpoint>
          <Trackpoint>
            <Time>2021-08-13T08:40:44.000Z</Time>
            <Position>
              <LatitudeDegrees>43.219733051955699920654296875</LatitudeDegrees>
              <LongitudeDegrees>-2.0182417519390583038330078125</LongitudeDegrees>
            </Position>
            <AltitudeMeters>79</AltitudeMeters>
            <DistanceMeters>NAN</DistanceMeters>
          </Trackpoint>
          <Trackpoint>
            <Time>2021-08-13T08:40:45.000Z</Time>
            <Position>
              <LatitudeDegrees>43.21971268393099308013916015625</LatitudeDegrees>
              <LongitudeDegrees>-2.01827016659080982208251953125</LongitudeDegrees>
            </Position>
            <AltitudeMeters>79.1999969482421875</AltitudeMeters>
            <DistanceMeters>NAN</DistanceMeters>
          </Trackpoint>
          <Trackpoint>
            <Time>2021-08-13T08:40:46.000Z</Time>
            <Position>
              <LatitudeDegrees>43.21969256736338138580322265625</LatitudeDegrees>
              <LongitudeDegrees>-2.018292210996150970458984375</LongitudeDegrees>
            </Position>
            <AltitudeMeters>79.59999847412109375</AltitudeMeters>
            <DistanceMeters>NAN</DistanceMeters>
          </Trackpoint>
          <Trackpoint>
            <Time>2021-08-13T08:40:47.000Z</Time>
            <Position>
              <LatitudeDegrees>43.21967362426221370697021484375</LatitudeDegrees>
              <LongitudeDegrees>-2.01831157319247722625732421875</LongitudeDegrees>
            </Position>
            <AltitudeMeters>79.8000030517578125</AltitudeMeters>
            <DistanceMeters>NAN</DistanceMeters>
          </Trackpoint>
          <Trackpoint>
            <Time>2021-08-13T08:40:48.000Z</Time>
            <Position>
              <LatitudeDegrees>43.21965568698942661285400390625</LatitudeDegrees>
              <LongitudeDegrees>-2.01833604834973812103271484375</LongitudeDegrees>
            </Position>
            <AltitudeMeters>80</AltitudeMeters>
            <DistanceMeters>NAN</DistanceMeters>
          </Trackpoint>
          <Trackpoint>
            <Time>2021-08-13T08:40:49.000Z</Time>
            <Position>
              <LatitudeDegrees>43.2196386717259883880615234375</LatitudeDegrees>
              <LongitudeDegrees>-2.01836035586893558502197265625</LongitudeDegrees>
            </Position>
            <AltitudeMeters>80.1999969482421875</AltitudeMeters>
            <DistanceMeters>NAN</DistanceMeters>
          </Trackpoint>
          <Trackpoint>
            <Time>2021-08-13T08:40:50.000Z</Time>
            <Position>
              <LatitudeDegrees>43.21962400339543819427490234375</LatitudeDegrees>
              <LongitudeDegrees>-2.0183850824832916259765625</LongitudeDegrees>
            </Position>
            <AltitudeMeters>80.1999969482421875</AltitudeMeters>
            <DistanceMeters>NAN</DistanceMeters>
          </Trackpoint>
          <Trackpoint>
            <Time>2021-08-13T08:40:51.000Z</Time>
            <Position>
              <LatitudeDegrees>43.219611681997776031494140625</LatitudeDegrees>
              <LongitudeDegrees>-2.01841282658278942108154296875</LongitudeDegrees>
            </Position>
            <AltitudeMeters>80.40000152587890625</AltitudeMeters>
            <DistanceMeters>NAN</DistanceMeters>
          </Trackpoint>
          <Trackpoint>
            <Time>2021-08-13T08:40:52.000Z</Time>
            <Position>
              <LatitudeDegrees>43.21959952823817729949951171875</LatitudeDegrees>
              <LongitudeDegrees>-2.0184387266635894775390625</LongitudeDegrees>
            </Position>
            <AltitudeMeters>80.59999847412109375</AltitudeMeters>
            <DistanceMeters>NAN</DistanceMeters>
          </Trackpoint>
          <Trackpoint>
            <Time>2021-08-13T08:40:53.000Z</Time>
            <Position>
              <LatitudeDegrees>43.21958712302148342132568359375</LatitudeDegrees>
              <LongitudeDegrees>-2.018457837402820587158203125</LongitudeDegrees>
            </Position>
            <AltitudeMeters>80.59999847412109375</AltitudeMeters>
            <DistanceMeters>NAN</DistanceMeters>
          </Trackpoint>
          <Trackpoint>
            <Time>2021-08-13T08:40:54.000Z</Time>
            <Position>
              <LatitudeDegrees>43.21956641972064971923828125</LatitudeDegrees>
              <LongitudeDegrees>-2.01847787015140056610107421875</LongitudeDegrees>
            </Position>
            <AltitudeMeters>80.8000030517578125</AltitudeMeters>
            <DistanceMeters>NAN</DistanceMeters>
          </Trackpoint>
          <Trackpoint>
            <Time>2021-08-13T08:40:55.000Z</Time>
            <Position>
              <LatitudeDegrees>43.2195483148097991943359375</LatitudeDegrees>
              <LongitudeDegrees>-2.0184910297393798828125</LongitudeDegrees>
            </Position>
            <AltitudeMeters>81</AltitudeMeters>
            <DistanceMeters>NAN</DistanceMeters>
          </Trackpoint>
          <Trackpoint>
            <Time>2021-08-13T08:40:56.000Z</Time>
            <Position>
              <LatitudeDegrees>43.2195317186415195465087890625</LatitudeDegrees>
              <LongitudeDegrees>-2.01850670389831066131591796875</LongitudeDegrees>
            </Position>
            <AltitudeMeters>81.1999969482421875</AltitudeMeters>
            <DistanceMeters>NAN</DistanceMeters>
          </Trackpoint>
          <Trackpoint>
            <Time>2021-08-13T08:40:57.000Z</Time>
            <Position>
              <LatitudeDegrees>43.2195132784545421600341796875</LatitudeDegrees>
              <LongitudeDegrees>-2.01852045021951198577880859375</LongitudeDegrees>
            </Position>
            <AltitudeMeters>81.1999969482421875</AltitudeMeters>
            <DistanceMeters>NAN</DistanceMeters>
          </Trackpoint>
          <Trackpoint>
            <Time>2021-08-13T08:40:58.000Z</Time>
            <Position>
              <LatitudeDegrees>43.21949324570596218109130859375</LatitudeDegrees>
              <LongitudeDegrees>-2.0185433328151702880859375</LongitudeDegrees>
            </Position>
            <AltitudeMeters>81.40000152587890625</AltitudeMeters>
            <DistanceMeters>NAN</DistanceMeters>
          </Trackpoint>
          <Trackpoint>
            <Time>2021-08-13T08:40:59.000Z</Time>
            <Position>
              <LatitudeDegrees>43.21947447024285793304443359375</LatitudeDegrees>
              <LongitudeDegrees>-2.01856571249663829803466796875</LongitudeDegrees>
            </Position>
            <AltitudeMeters>81.40000152587890625</AltitudeMeters>
            <DistanceMeters>NAN</DistanceMeters>
          </Trackpoint>
          <Trackpoint>
            <Time>2021-08-13T08:41:00.000Z</Time>
            <Position>
              <LatitudeDegrees>43.21945670060813426971435546875</LatitudeDegrees>
              <LongitudeDegrees>-2.018592618405818939208984375</LongitudeDegrees>
            </Position>
            <AltitudeMeters>81.59999847412109375</AltitudeMeters>
            <DistanceMeters>NAN</DistanceMeters>
          </Trackpoint>
          <Trackpoint>
            <Time>2021-08-13T08:41:01.000Z</Time>
            <Position>
              <LatitudeDegrees>43.2194371707737445831298828125</LatitudeDegrees>
              <LongitudeDegrees>-2.01862002722918987274169921875</LongitudeDegrees>
            </Position>
            <AltitudeMeters>81.59999847412109375</AltitudeMeters>
            <DistanceMeters>NAN</DistanceMeters>
          </Trackpoint>
          <Trackpoint>
            <Time>2021-08-13T08:41:02.000Z</Time>
            <Position>
              <LatitudeDegrees>43.21941244415938854217529296875</LatitudeDegrees>
              <LongitudeDegrees>-2.01863813214004039764404296875</LongitudeDegrees>
            </Position>
            <AltitudeMeters>81.59999847412109375</AltitudeMeters>
            <DistanceMeters>NAN</DistanceMeters>
          </Trackpoint>
          <Trackpoint>
            <Time>2021-08-13T08:41:03.000Z</Time>
            <Position>
              <LatitudeDegrees>43.2193892262876033782958984375</LatitudeDegrees>
              <LongitudeDegrees>-2.0186611823737621307373046875</LongitudeDegrees>
            </Position>
            <AltitudeMeters>81.59999847412109375</AltitudeMeters>
            <DistanceMeters>NAN</DistanceMeters>
          </Trackpoint>
          <Trackpoint>
            <Time>2021-08-13T08:41:04.000Z</Time>
            <Position>
              <LatitudeDegrees>43.219377659261226654052734375</LatitudeDegrees>
              <LongitudeDegrees>-2.0187010802328586578369140625</LongitudeDegrees>
            </Position>
            <AltitudeMeters>81.59999847412109375</AltitudeMeters>
            <DistanceMeters>NAN</DistanceMeters>
          </Trackpoint>
          <Trackpoint>
            <Time>2021-08-13T08:41:05.000Z</Time>
            <Position>
              <LatitudeDegrees>43.219376988708972930908203125</LatitudeDegrees>
              <LongitudeDegrees>-2.01875028200447559356689453125</LongitudeDegrees>
            </Position>
            <AltitudeMeters>81.59999847412109375</AltitudeMeters>
            <DistanceMeters>NAN</DistanceMeters>
          </Trackpoint>
          <Trackpoint>
            <Time>2021-08-13T08:41:06.000Z</Time>
            <Position>
              <LatitudeDegrees>43.21937824599444866180419921875</LatitudeDegrees>
              <LongitudeDegrees>-2.01879478991031646728515625</LongitudeDegrees>
            </Position>
            <AltitudeMeters>81.59999847412109375</AltitudeMeters>
            <DistanceMeters>NAN</DistanceMeters>
          </Trackpoint>
          <Trackpoint>
            <Time>2021-08-13T08:41:07.000Z</Time>
            <Position>
              <LatitudeDegrees>43.21937908418476581573486328125</LatitudeDegrees>
              <LongitudeDegrees>-2.0188351906836032867431640625</LongitudeDegrees>
            </Position>
            <AltitudeMeters>81.59999847412109375</AltitudeMeters>
            <DistanceMeters>NAN</DistanceMeters>
          </Trackpoint>
          <Trackpoint>
            <Time>2021-08-13T08:41:08.000Z</Time>
            <Position>
              <LatitudeDegrees>43.21937086991965770721435546875</LatitudeDegrees>
              <LongitudeDegrees>-2.0188714005053043365478515625</LongitudeDegrees>
            </Position>
            <AltitudeMeters>81.1999969482421875</AltitudeMeters>
            <DistanceMeters>NAN</DistanceMeters>
          </Trackpoint>
          <Trackpoint>
            <Time>2021-08-13T08:41:09.000Z</Time>
            <Position>
              <LatitudeDegrees>43.2193627394735813140869140625</LatitudeDegrees>
              <LongitudeDegrees>-2.01889998279511928558349609375</LongitudeDegrees>
            </Position>
            <AltitudeMeters>81.40000152587890625</AltitudeMeters>
            <DistanceMeters>NAN</DistanceMeters>
          </Trackpoint>
          <Trackpoint>
            <Time>2021-08-13T08:41:10.000Z</Time>
            <Position>
              <LatitudeDegrees>43.21935477666556835174560546875</LatitudeDegrees>
              <LongitudeDegrees>-2.0189273916184902191162109375</LongitudeDegrees>
            </Position>
            <AltitudeMeters>80.8000030517578125</AltitudeMeters>
            <DistanceMeters>NAN</DistanceMeters>
          </Trackpoint>
          <Trackpoint>
            <Time>2021-08-13T08:41:11.000Z</Time>
            <Position>
              <LatitudeDegrees>43.21934689767658710479736328125</LatitudeDegrees>
              <LongitudeDegrees>-2.0189522020518779754638671875</LongitudeDegrees>
            </Position>
            <AltitudeMeters>80.59999847412109375</AltitudeMeters>
            <DistanceMeters>NAN</DistanceMeters>
          </Trackpoint>
          <Trackpoint>
            <Time>2021-08-13T08:41:12.000Z</Time>
            <Position>
              <LatitudeDegrees>43.21933918632566928863525390625</LatitudeDegrees>
              <LongitudeDegrees>-2.01896988786756992340087890625</LongitudeDegrees>
            </Position>
            <AltitudeMeters>80.40000152587890625</AltitudeMeters>
            <DistanceMeters>NAN</DistanceMeters>
          </Trackpoint>
          <Trackpoint>
            <Time>2021-08-13T08:41:13.000Z</Time>
            <Position>
              <LatitudeDegrees>43.21933549828827381134033203125</LatitudeDegrees>
              <LongitudeDegrees>-2.0189776830375194549560546875</LongitudeDegrees>
            </Position>
            <AltitudeMeters>80.1999969482421875</AltitudeMeters>
            <DistanceMeters>NAN</DistanceMeters>
          </Trackpoint>
          <Trackpoint>
            <Time>2021-08-13T08:41:14.000Z</Time>
            <Position>
              <LatitudeDegrees>43.21933549828827381134033203125</LatitudeDegrees>
              <LongitudeDegrees>-2.0189776830375194549560546875</LongitudeDegrees>
            </Position>
            <AltitudeMeters>79.8000030517578125</AltitudeMeters>
            <DistanceMeters>NAN</DistanceMeters>
          </Trackpoint>
          <Trackpoint>
            <Time>2021-08-13T08:41:21.000Z</Time>
            <Position>
              <LatitudeDegrees>43.21933549828827381134033203125</LatitudeDegrees>
              <LongitudeDegrees>-2.0189776830375194549560546875</LongitudeDegrees>
            </Position>
            <AltitudeMeters>79.40000152587890625</AltitudeMeters>
            <DistanceMeters>NAN</DistanceMeters>
          </Trackpoint>
          <Trackpoint>
            <Time>2021-08-13T08:41:23.000Z</Time>
            <Position>
              <LatitudeDegrees>43.21933549828827381134033203125</LatitudeDegrees>
              <LongitudeDegrees>-2.0189776830375194549560546875</LongitudeDegrees>
            </Position>
            <AltitudeMeters>79.40000152587890625</AltitudeMeters>
            <DistanceMeters>NAN</DistanceMeters>
          </Trackpoint>
          <Trackpoint>
            <Time>2021-08-13T08:41:43.000Z</Time>
            <Position>
              <LatitudeDegrees>43.21933549828827381134033203125</LatitudeDegrees>
              <LongitudeDegrees>-2.0189776830375194549560546875</LongitudeDegrees>
            </Position>
            <AltitudeMeters>79.59999847412109375</AltitudeMeters>
            <DistanceMeters>NAN</DistanceMeters>
          </Trackpoint>
          <Trackpoint>
            <Time>2021-08-13T08:42:36.000Z</Time>
            <Position>
              <LatitudeDegrees>43.2193352468311786651611328125</LatitudeDegrees>
              <LongitudeDegrees>-2.0189790241420269012451171875</LongitudeDegrees>
            </Position>
            <AltitudeMeters>79.8000030517578125</AltitudeMeters>
            <DistanceMeters>NAN</DistanceMeters>
          </Trackpoint>
          <Trackpoint>
            <Time>2021-08-13T08:42:39.000Z</Time>
            <Position>
              <LatitudeDegrees>43.21929073892533779144287109375</LatitudeDegrees>
              <LongitudeDegrees>-2.01899771578609943389892578125</LongitudeDegrees>
            </Position>
            <AltitudeMeters>79.59999847412109375</AltitudeMeters>
            <DistanceMeters>NAN</DistanceMeters>
          </Trackpoint>
          <Trackpoint>
            <Time>2021-08-13T08:42:40.000Z</Time>
            <Position>
              <LatitudeDegrees>43.21928520686924457550048828125</LatitudeDegrees>
              <LongitudeDegrees>-2.01900173909962177276611328125</LongitudeDegrees>
            </Position>
            <AltitudeMeters>79.59999847412109375</AltitudeMeters>
            <DistanceMeters>NAN</DistanceMeters>
          </Trackpoint>
          <Trackpoint>
            <Time>2021-08-13T08:42:45.000Z</Time>
            <Position>
              <LatitudeDegrees>43.21928520686924457550048828125</LatitudeDegrees>
              <LongitudeDegrees>-2.01900173909962177276611328125</LongitudeDegrees>
            </Position>
            <AltitudeMeters>79.59999847412109375</AltitudeMeters>
            <DistanceMeters>NAN</DistanceMeters>
          </Trackpoint>
          <Trackpoint>
            <Time>2021-08-13T08:43:03.000Z</Time>
            <Position>
              <LatitudeDegrees>43.21928369812667369842529296875</LatitudeDegrees>
              <LongitudeDegrees>-2.01900861226022243499755859375</LongitudeDegrees>
            </Position>
            <AltitudeMeters>79.8000030517578125</AltitudeMeters>
            <DistanceMeters>NAN</DistanceMeters>
          </Trackpoint>
          <Trackpoint>
            <Time>2021-08-13T08:45:50.000Z</Time>
            <Position>
              <LatitudeDegrees>43.21928101591765880584716796875</LatitudeDegrees>
              <LongitudeDegrees>-2.0190118812024593353271484375</LongitudeDegrees>
            </Position>
            <AltitudeMeters>79.40000152587890625</AltitudeMeters>
            <DistanceMeters>NAN</DistanceMeters>
          </Trackpoint>
          <Trackpoint>
            <Time>2021-08-13T08:45:53.000Z</Time>
            <Position>
              <LatitudeDegrees>43.21924396790564060211181640625</LatitudeDegrees>
              <LongitudeDegrees>-2.0190628431737422943115234375</LongitudeDegrees>
            </Position>
            <AltitudeMeters>79.40000152587890625</AltitudeMeters>
            <DistanceMeters>NAN</DistanceMeters>
          </Trackpoint>
          <Trackpoint>
            <Time>2021-08-13T08:45:54.000Z</Time>
            <Position>
              <LatitudeDegrees>43.2192344963550567626953125</LatitudeDegrees>
              <LongitudeDegrees>-2.01907801441848278045654296875</LongitudeDegrees>
            </Position>
            <AltitudeMeters>79.40000152587890625</AltitudeMeters>
            <DistanceMeters>NAN</DistanceMeters>
          </Trackpoint>
          <Trackpoint>
            <Time>2021-08-13T08:45:59.000Z</Time>
            <Position>
              <LatitudeDegrees>43.2191374339163303375244140625</LatitudeDegrees>
              <LongitudeDegrees>-2.01916401274502277374267578125</LongitudeDegrees>
            </Position>
            <AltitudeMeters>79.1999969482421875</AltitudeMeters>
            <DistanceMeters>NAN</DistanceMeters>
          </Trackpoint>
          <Trackpoint>
            <Time>2021-08-13T08:46:06.000Z</Time>
            <Position>
              <LatitudeDegrees>43.218971304595470428466796875</LatitudeDegrees>
              <LongitudeDegrees>-2.01926744543015956878662109375</LongitudeDegrees>
            </Position>
            <AltitudeMeters>79.1999969482421875</AltitudeMeters>
            <DistanceMeters>NAN</DistanceMeters>
          </Trackpoint>
          <Trackpoint>
            <Time>2021-08-13T08:46:13.000Z</Time>
            <Position>
              <LatitudeDegrees>43.21880601346492767333984375</LatitudeDegrees>
              <LongitudeDegrees>-2.0193592272698879241943359375</LongitudeDegrees>
            </Position>
            <AltitudeMeters>79</AltitudeMeters>
            <DistanceMeters>NAN</DistanceMeters>
          </Trackpoint>
          <Trackpoint>
            <Time>2021-08-13T08:46:14.000Z</Time>
            <Position>
              <LatitudeDegrees>43.21878212504088878631591796875</LatitudeDegrees>
              <LongitudeDegrees>-2.019363082945346832275390625</LongitudeDegrees>
            </Position>
            <AltitudeMeters>79</AltitudeMeters>
            <DistanceMeters>NAN</DistanceMeters>
          </Trackpoint>
          <Trackpoint>
            <Time>2021-08-13T08:46:15.000Z</Time>
            <Position>
              <LatitudeDegrees>43.21875907480716705322265625</LatitudeDegrees>
              <LongitudeDegrees>-2.01936719007790088653564453125</LongitudeDegrees>
            </Position>
            <AltitudeMeters>79</AltitudeMeters>
            <DistanceMeters>NAN</DistanceMeters>
          </Trackpoint>
          <Trackpoint>
            <Time>2021-08-13T08:46:16.000Z</Time>
            <Position>
              <LatitudeDegrees>43.218737281858921051025390625</LatitudeDegrees>
              <LongitudeDegrees>-2.01936517842113971710205078125</LongitudeDegrees>
            </Position>
            <AltitudeMeters>79</AltitudeMeters>
            <DistanceMeters>NAN</DistanceMeters>
          </Trackpoint>
          <Trackpoint>
            <Time>2021-08-13T08:46:17.000Z</Time>
            <Position>
              <LatitudeDegrees>43.21871506981551647186279296875</LatitudeDegrees>
              <LongitudeDegrees>-2.01937791891396045684814453125</LongitudeDegrees>
            </Position>
            <AltitudeMeters>79</AltitudeMeters>
            <DistanceMeters>NAN</DistanceMeters>
          </Trackpoint>
          <Trackpoint>
            <Time>2021-08-13T08:46:18.000Z</Time>
            <Position>
              <LatitudeDegrees>43.21868238039314746856689453125</LatitudeDegrees>
              <LongitudeDegrees>-2.0194038189947605133056640625</LongitudeDegrees>
            </Position>
            <AltitudeMeters>79</AltitudeMeters>
            <DistanceMeters>NAN</DistanceMeters>
          </Trackpoint>
          <Trackpoint>
            <Time>2021-08-13T08:46:19.000Z</Time>
            <Position>
              <LatitudeDegrees>43.21865773759782314300537109375</LatitudeDegrees>
              <LongitudeDegrees>-2.01944950036704540252685546875</LongitudeDegrees>
            </Position>
            <AltitudeMeters>79.1999969482421875</AltitudeMeters>
            <DistanceMeters>NAN</DistanceMeters>
          </Trackpoint>
          <Trackpoint>
            <Time>2021-08-13T08:46:20.000Z</Time>
            <Position>
              <LatitudeDegrees>43.218629993498325347900390625</LatitudeDegrees>
              <LongitudeDegrees>-2.0194606482982635498046875</LongitudeDegrees>
            </Position>
            <AltitudeMeters>79.1999969482421875</AltitudeMeters>
            <DistanceMeters>NAN</DistanceMeters>
          </Trackpoint>
          <Trackpoint>
            <Time>2021-08-13T08:46:21.000Z</Time>
            <Position>
              <LatitudeDegrees>43.2186060212552547454833984375</LatitudeDegrees>
              <LongitudeDegrees>-2.01947665773332118988037109375</LongitudeDegrees>
            </Position>
            <AltitudeMeters>79.1999969482421875</AltitudeMeters>
            <DistanceMeters>NAN</DistanceMeters>
          </Trackpoint>
          <Trackpoint>
            <Time>2021-08-13T08:46:23.000Z</Time>
            <Position>
              <LatitudeDegrees>43.21856863796710968017578125</LatitudeDegrees>
              <LongitudeDegrees>-2.0194886438548564910888671875</LongitudeDegrees>
            </Position>
            <AltitudeMeters>79.1999969482421875</AltitudeMeters>
            <DistanceMeters>NAN</DistanceMeters>
          </Trackpoint>
          <Trackpoint>
            <Time>2021-08-13T08:46:24.000Z</Time>
            <Position>
              <LatitudeDegrees>43.2185451686382293701171875</LatitudeDegrees>
              <LongitudeDegrees>-2.01947498135268688201904296875</LongitudeDegrees>
            </Position>
            <AltitudeMeters>79.1999969482421875</AltitudeMeters>
            <DistanceMeters>NAN</DistanceMeters>
          </Trackpoint>
          <Trackpoint>
            <Time>2021-08-13T08:46:25.000Z</Time>
            <Position>
              <LatitudeDegrees>43.21851340122520923614501953125</LatitudeDegrees>
              <LongitudeDegrees>-2.0194655098021030426025390625</LongitudeDegrees>
            </Position>
            <AltitudeMeters>79.1999969482421875</AltitudeMeters>
            <DistanceMeters>NAN</DistanceMeters>
          </Trackpoint>
          <Trackpoint>
            <Time>2021-08-13T08:46:26.000Z</Time>
            <Position>
              <LatitudeDegrees>43.21848238818347454071044921875</LatitudeDegrees>
              <LongitudeDegrees>-2.0194490812718868255615234375</LongitudeDegrees>
            </Position>
            <AltitudeMeters>79.1999969482421875</AltitudeMeters>
            <DistanceMeters>NAN</DistanceMeters>
          </Trackpoint>
          <Trackpoint>
            <Time>2021-08-13T08:46:27.000Z</Time>
            <Position>
              <LatitudeDegrees>43.21845506317913532257080078125</LatitudeDegrees>
              <LongitudeDegrees>-2.0194510929286479949951171875</LongitudeDegrees>
            </Position>
            <AltitudeMeters>79.1999969482421875</AltitudeMeters>
            <DistanceMeters>NAN</DistanceMeters>
          </Trackpoint>
          <Trackpoint>
            <Time>2021-08-13T08:46:30.000Z</Time>
            <Position>
              <LatitudeDegrees>43.21838222444057464599609375</LatitudeDegrees>
              <LongitudeDegrees>-2.01946844346821308135986328125</LongitudeDegrees>
            </Position>
            <AltitudeMeters>79.1999969482421875</AltitudeMeters>
            <DistanceMeters>NAN</DistanceMeters>
          </Trackpoint>
          <Trackpoint>
            <Time>2021-08-13T08:46:35.000Z</Time>
            <Position>
              <LatitudeDegrees>43.2182305119931697845458984375</LatitudeDegrees>
              <LongitudeDegrees>-2.01947414316236972808837890625</LongitudeDegrees>
            </Position>
            <AltitudeMeters>79.40000152587890625</AltitudeMeters>
            <DistanceMeters>NAN</DistanceMeters>
          </Trackpoint>
          <Trackpoint>
            <Time>2021-08-13T08:46:44.000Z</Time>
            <Position>
              <LatitudeDegrees>43.21795214898884296417236328125</LatitudeDegrees>
              <LongitudeDegrees>-2.01947146095335483551025390625</LongitudeDegrees>
            </Position>
            <AltitudeMeters>79.40000152587890625</AltitudeMeters>
            <DistanceMeters>NAN</DistanceMeters>
          </Trackpoint>
          <Trackpoint>
            <Time>2021-08-13T08:46:52.000Z</Time>
            <Position>
              <LatitudeDegrees>43.2176868617534637451171875</LatitudeDegrees>
              <LongitudeDegrees>-2.01946995221078395843505859375</LongitudeDegrees>
            </Position>
            <AltitudeMeters>79.59999847412109375</AltitudeMeters>
            <DistanceMeters>NAN</DistanceMeters>
          </Trackpoint>
          <Trackpoint>
            <Time>2021-08-13T08:46:58.000Z</Time>
            <Position>
              <LatitudeDegrees>43.217494077980518341064453125</LatitudeDegrees>
              <LongitudeDegrees>-2.01946609653532505035400390625</LongitudeDegrees>
            </Position>
            <AltitudeMeters>79.8000030517578125</AltitudeMeters>
            <DistanceMeters>NAN</DistanceMeters>
          </Trackpoint>
          <Trackpoint>
            <Time>2021-08-13T08:46:59.000Z</Time>
            <Position>
              <LatitudeDegrees>43.21746415458619594573974609375</LatitudeDegrees>
              <LongitudeDegrees>-2.01946374960243701934814453125</LongitudeDegrees>
            </Position>
            <AltitudeMeters>79.8000030517578125</AltitudeMeters>
            <DistanceMeters>NAN</DistanceMeters>
          </Trackpoint>
          <Trackpoint>
            <Time>2021-08-13T08:47:00.000Z</Time>
            <Position>
              <LatitudeDegrees>43.2174349017441272735595703125</LatitudeDegrees>
              <LongitudeDegrees>-2.0194608159363269805908203125</LongitudeDegrees>
            </Position>
            <AltitudeMeters>79.8000030517578125</AltitudeMeters>
            <DistanceMeters>NAN</DistanceMeters>
          </Trackpoint>
          <Trackpoint>
            <Time>2021-08-13T08:47:01.000Z</Time>
            <Position>
              <LatitudeDegrees>43.2174052298069000244140625</LatitudeDegrees>
              <LongitudeDegrees>-2.01946307905018329620361328125</LongitudeDegrees>
            </Position>
            <AltitudeMeters>79.8000030517578125</AltitudeMeters>
            <DistanceMeters>NAN</DistanceMeters>
          </Trackpoint>
          <Trackpoint>
            <Time>2021-08-13T08:47:02.000Z</Time>
            <Position>
              <LatitudeDegrees>43.21737497113645076751708984375</LatitudeDegrees>
              <LongitudeDegrees>-2.01945327222347259521484375</LongitudeDegrees>
            </Position>
            <AltitudeMeters>79.8000030517578125</AltitudeMeters>
            <DistanceMeters>NAN</DistanceMeters>
          </Trackpoint>
          <Trackpoint>
            <Time>2021-08-13T08:47:03.000Z</Time>
            <Position>
              <LatitudeDegrees>43.21734420955181121826171875</LatitudeDegrees>
              <LongitudeDegrees>-2.01944581232964992523193359375</LongitudeDegrees>
            </Position>
            <AltitudeMeters>79.8000030517578125</AltitudeMeters>
            <DistanceMeters>NAN</DistanceMeters>
          </Trackpoint>
          <Trackpoint>
            <Time>2021-08-13T08:47:04.000Z</Time>
            <Position>
              <LatitudeDegrees>43.2173095084726810455322265625</LatitudeDegrees>
              <LongitudeDegrees>-2.01944229193031787872314453125</LongitudeDegrees>
            </Position>
            <AltitudeMeters>79.8000030517578125</AltitudeMeters>
            <DistanceMeters>NAN</DistanceMeters>
          </Trackpoint>
          <Trackpoint>
            <Time>2021-08-13T08:47:05.000Z</Time>
            <Position>
              <LatitudeDegrees>43.217275142669677734375</LatitudeDegrees>
              <LongitudeDegrees>-2.01944195665419101715087890625</LongitudeDegrees>
            </Position>
            <AltitudeMeters>79.8000030517578125</AltitudeMeters>
            <DistanceMeters>NAN</DistanceMeters>
          </Trackpoint>
          <Trackpoint>
            <Time>2021-08-13T08:47:07.000Z</Time>
            <Position>
              <LatitudeDegrees>43.21720917709171772003173828125</LatitudeDegrees>
              <LongitudeDegrees>-2.01944564469158649444580078125</LongitudeDegrees>
            </Position>
            <AltitudeMeters>79.8000030517578125</AltitudeMeters>
            <DistanceMeters>NAN</DistanceMeters>
          </Trackpoint>
          <Trackpoint>
            <Time>2021-08-13T08:47:09.000Z</Time>
            <Position>
              <LatitudeDegrees>43.217146061360836029052734375</LatitudeDegrees>
              <LongitudeDegrees>-2.0194504223763942718505859375</LongitudeDegrees>
            </Position>
            <AltitudeMeters>79.8000030517578125</AltitudeMeters>
            <DistanceMeters>NAN</DistanceMeters>
          </Trackpoint>
          <Trackpoint>
            <Time>2021-08-13T08:47:13.000Z</Time>
            <Position>
              <LatitudeDegrees>43.21702904999256134033203125</LatitudeDegrees>
              <LongitudeDegrees>-2.01947011984884738922119140625</LongitudeDegrees>
            </Position>
            <AltitudeMeters>80</AltitudeMeters>
            <DistanceMeters>NAN</DistanceMeters>
          </Trackpoint>
          <Trackpoint>
            <Time>2021-08-13T08:47:16.000Z</Time>
            <Position>
              <LatitudeDegrees>43.21693156845867633819580078125</LatitudeDegrees>
              <LongitudeDegrees>-2.0194792561233043670654296875</LongitudeDegrees>
            </Position>
            <AltitudeMeters>80</AltitudeMeters>
            <DistanceMeters>NAN</DistanceMeters>
          </Trackpoint>
          <Trackpoint>
            <Time>2021-08-13T08:47:23.000Z</Time>
            <Position>
              <LatitudeDegrees>43.21671045385301113128662109375</LatitudeDegrees>
              <LongitudeDegrees>-2.01948068104684352874755859375</LongitudeDegrees>
            </Position>
            <AltitudeMeters>80.1999969482421875</AltitudeMeters>
            <DistanceMeters>NAN</DistanceMeters>
          </Trackpoint>
          <Trackpoint>
            <Time>2021-08-13T08:47:30.000Z</Time>
            <Position>
              <LatitudeDegrees>43.21648581884801387786865234375</LatitudeDegrees>
              <LongitudeDegrees>-2.01947338879108428955078125</LongitudeDegrees>
            </Position>
            <AltitudeMeters>80.59999847412109375</AltitudeMeters>
            <DistanceMeters>NAN</DistanceMeters>
          </Trackpoint>
          <Trackpoint>
            <Time>2021-08-13T08:47:31.000Z</Time>
            <Position>
              <LatitudeDegrees>43.2164632715284824371337890625</LatitudeDegrees>
              <LongitudeDegrees>-2.0194802619516849517822265625</LongitudeDegrees>
            </Position>
            <AltitudeMeters>80.59999847412109375</AltitudeMeters>
            <DistanceMeters>NAN</DistanceMeters>
          </Trackpoint>
          <Trackpoint>
            <Time>2021-08-13T08:47:32.000Z</Time>
            <Position>
              <LatitudeDegrees>43.2164342701435089111328125</LatitudeDegrees>
              <LongitudeDegrees>-2.01949040405452251434326171875</LongitudeDegrees>
            </Position>
            <AltitudeMeters>80.8000030517578125</AltitudeMeters>
            <DistanceMeters>NAN</DistanceMeters>
          </Trackpoint>
          <Trackpoint>
            <Time>2021-08-13T08:47:33.000Z</Time>
            <Position>
              <LatitudeDegrees>43.216398395597934722900390625</LatitudeDegrees>
              <LongitudeDegrees>-2.01949543319642543792724609375</LongitudeDegrees>
            </Position>
            <AltitudeMeters>80.8000030517578125</AltitudeMeters>
            <DistanceMeters>NAN</DistanceMeters>
          </Trackpoint>
          <Trackpoint>
            <Time>2021-08-13T08:47:38.000Z</Time>
            <Position>
              <LatitudeDegrees>43.21623251773416996002197265625</LatitudeDegrees>
              <LongitudeDegrees>-2.01952175237238407135009765625</LongitudeDegrees>
            </Position>
            <AltitudeMeters>80.8000030517578125</AltitudeMeters>
            <DistanceMeters>NAN</DistanceMeters>
          </Trackpoint>
          <Trackpoint>
            <Time>2021-08-13T08:47:40.000Z</Time>
            <Position>
              <LatitudeDegrees>43.2161628641188144683837890625</LatitudeDegrees>
              <LongitudeDegrees>-2.0195342414081096649169921875</LongitudeDegrees>
            </Position>
            <AltitudeMeters>80.8000030517578125</AltitudeMeters>
            <DistanceMeters>NAN</DistanceMeters>
          </Trackpoint>
          <Trackpoint>
            <Time>2021-08-13T08:47:47.000Z</Time>
            <Position>
              <LatitudeDegrees>43.21592339314520359039306640625</LatitudeDegrees>
              <LongitudeDegrees>-2.019543461501598358154296875</LongitudeDegrees>
            </Position>
            <AltitudeMeters>80.8000030517578125</AltitudeMeters>
            <DistanceMeters>NAN</DistanceMeters>
          </Trackpoint>
          <Trackpoint>
            <Time>2021-08-13T08:47:48.000Z</Time>
            <Position>
              <LatitudeDegrees>43.21588919498026371002197265625</LatitudeDegrees>
              <LongitudeDegrees>-2.01953801326453685760498046875</LongitudeDegrees>
            </Position>
            <AltitudeMeters>81</AltitudeMeters>
            <DistanceMeters>NAN</DistanceMeters>
          </Trackpoint>
          <Trackpoint>
            <Time>2021-08-13T08:47:49.000Z</Time>
            <Position>
              <LatitudeDegrees>43.21585482917726039886474609375</LatitudeDegrees>
              <LongitudeDegrees>-2.01953080482780933380126953125</LongitudeDegrees>
            </Position>
            <AltitudeMeters>81</AltitudeMeters>
            <DistanceMeters>NAN</DistanceMeters>
          </Trackpoint>
          <Trackpoint>
            <Time>2021-08-13T08:47:50.000Z</Time>
            <Position>
              <LatitudeDegrees>43.21581861935555934906005859375</LatitudeDegrees>
              <LongitudeDegrees>-2.01952594332396984100341796875</LongitudeDegrees>
            </Position>
            <AltitudeMeters>81</AltitudeMeters>
            <DistanceMeters>NAN</DistanceMeters>
          </Trackpoint>
          <Trackpoint>
            <Time>2021-08-13T08:47:51.000Z</Time>
            <Position>
              <LatitudeDegrees>43.21578475646674633026123046875</LatitudeDegrees>
              <LongitudeDegrees>-2.01952141709625720977783203125</LongitudeDegrees>
            </Position>
            <AltitudeMeters>81</AltitudeMeters>
            <DistanceMeters>NAN</DistanceMeters>
          </Trackpoint>
          <Trackpoint>
            <Time>2021-08-13T08:47:58.000Z</Time>
            <Position>
              <LatitudeDegrees>43.21554335765540599822998046875</LatitudeDegrees>
              <LongitudeDegrees>-2.01951764523983001708984375</LongitudeDegrees>
            </Position>
            <AltitudeMeters>81.1999969482421875</AltitudeMeters>
            <DistanceMeters>NAN</DistanceMeters>
          </Trackpoint>
          <Trackpoint>
            <Time>2021-08-13T08:48:09.000Z</Time>
            <Position>
              <LatitudeDegrees>43.2151503302156925201416015625</LatitudeDegrees>
              <LongitudeDegrees>-2.01947313733398914337158203125</LongitudeDegrees>
            </Position>
            <AltitudeMeters>81.59999847412109375</AltitudeMeters>
            <DistanceMeters>NAN</DistanceMeters>
          </Trackpoint>
          <Trackpoint>
            <Time>2021-08-13T08:48:17.000Z</Time>
            <Position>
              <LatitudeDegrees>43.21482519619166851043701171875</LatitudeDegrees>
              <LongitudeDegrees>-2.01940407045185565948486328125</LongitudeDegrees>
            </Position>
            <AltitudeMeters>81.40000152587890625</AltitudeMeters>
            <DistanceMeters>NAN</DistanceMeters>
          </Trackpoint>
          <Trackpoint>
            <Time>2021-08-13T08:48:26.000Z</Time>
            <Position>
              <LatitudeDegrees>43.214405514299869537353515625</LatitudeDegrees>
              <LongitudeDegrees>-2.01931404881179332733154296875</LongitudeDegrees>
            </Position>
            <AltitudeMeters>80.40000152587890625</AltitudeMeters>
            <DistanceMeters>NAN</DistanceMeters>
          </Trackpoint>
          <Trackpoint>
            <Time>2021-08-13T08:48:32.000Z</Time>
            <Position>
              <LatitudeDegrees>43.21409295313060283660888671875</LatitudeDegrees>
              <LongitudeDegrees>-2.0192782580852508544921875</LongitudeDegrees>
            </Position>
            <AltitudeMeters>80</AltitudeMeters>
            <DistanceMeters>NAN</DistanceMeters>
          </Trackpoint>
          <Trackpoint>
            <Time>2021-08-13T08:48:34.000Z</Time>
            <Position>
              <LatitudeDegrees>43.2139718346297740936279296875</LatitudeDegrees>
              <LongitudeDegrees>-2.01927012763917446136474609375</LongitudeDegrees>
            </Position>
            <AltitudeMeters>79.8000030517578125</AltitudeMeters>
            <DistanceMeters>NAN</DistanceMeters>
          </Trackpoint>
          <Trackpoint>
            <Time>2021-08-13T08:48:36.000Z</Time>
            <Position>
              <LatitudeDegrees>43.21386915631592273712158203125</LatitudeDegrees>
              <LongitudeDegrees>-2.01926627196371555328369140625</LongitudeDegrees>
            </Position>
            <AltitudeMeters>79.1999969482421875</AltitudeMeters>
            <DistanceMeters>NAN</DistanceMeters>
          </Trackpoint>
          <Trackpoint>
            <Time>2021-08-13T08:48:37.000Z</Time>
            <Position>
              <LatitudeDegrees>43.213828839361667633056640625</LatitudeDegrees>
              <LongitudeDegrees>-2.0192635059356689453125</LongitudeDegrees>
            </Position>
            <AltitudeMeters>78.8000030517578125</AltitudeMeters>
            <DistanceMeters>NAN</DistanceMeters>
          </Trackpoint>
          <Trackpoint>
            <Time>2021-08-13T08:48:38.000Z</Time>
            <Position>
              <LatitudeDegrees>43.21379221044480800628662109375</LatitudeDegrees>
              <LongitudeDegrees>-2.01924942433834075927734375</LongitudeDegrees>
            </Position>
            <AltitudeMeters>78.59999847412109375</AltitudeMeters>
            <DistanceMeters>NAN</DistanceMeters>
          </Trackpoint>
          <Trackpoint>
            <Time>2021-08-13T08:48:39.000Z</Time>
            <Position>
              <LatitudeDegrees>43.21375566534698009490966796875</LatitudeDegrees>
              <LongitudeDegrees>-2.01922067441046237945556640625</LongitudeDegrees>
            </Position>
            <AltitudeMeters>78</AltitudeMeters>
            <DistanceMeters>NAN</DistanceMeters>
          </Trackpoint>
          <Trackpoint>
            <Time>2021-08-13T08:48:40.000Z</Time>
            <Position>
              <LatitudeDegrees>43.21371928788721561431884765625</LatitudeDegrees>
              <LongitudeDegrees>-2.01918597333133220672607421875</LongitudeDegrees>
            </Position>
            <AltitudeMeters>77.8000030517578125</AltitudeMeters>
            <DistanceMeters>NAN</DistanceMeters>
          </Trackpoint>
          <Trackpoint>
            <Time>2021-08-13T08:48:41.000Z</Time>
            <Position>
              <LatitudeDegrees>43.2136845029890537261962890625</LatitudeDegrees>
              <LongitudeDegrees>-2.0191577263176441192626953125</LongitudeDegrees>
            </Position>
            <AltitudeMeters>77.1999969482421875</AltitudeMeters>
            <DistanceMeters>NAN</DistanceMeters>
          </Trackpoint>
          <Trackpoint>
            <Time>2021-08-13T08:48:42.000Z</Time>
            <Position>
              <LatitudeDegrees>43.21365290321409702301025390625</LatitudeDegrees>
              <LongitudeDegrees>-2.01914481818675994873046875</LongitudeDegrees>
            </Position>
            <AltitudeMeters>76.8000030517578125</AltitudeMeters>
            <DistanceMeters>NAN</DistanceMeters>
          </Trackpoint>
          <Trackpoint>
            <Time>2021-08-13T08:48:43.000Z</Time>
            <Position>
              <LatitudeDegrees>43.21362608112394809722900390625</LatitudeDegrees>
              <LongitudeDegrees>-2.01914255507290363311767578125</LongitudeDegrees>
            </Position>
            <AltitudeMeters>76.8000030517578125</AltitudeMeters>
            <DistanceMeters>NAN</DistanceMeters>
          </Trackpoint>
          <Trackpoint>
            <Time>2021-08-13T08:48:44.000Z</Time>
            <Position>
              <LatitudeDegrees>43.21360160596668720245361328125</LatitudeDegrees>
              <LongitudeDegrees>-2.01914289034903049468994140625</LongitudeDegrees>
            </Position>
            <AltitudeMeters>76.59999847412109375</AltitudeMeters>
            <DistanceMeters>NAN</DistanceMeters>
          </Trackpoint>
          <Trackpoint>
            <Time>2021-08-13T08:48:45.000Z</Time>
            <Position>
              <LatitudeDegrees>43.21357838809490203857421875</LatitudeDegrees>
              <LongitudeDegrees>-2.019141800701618194580078125</LongitudeDegrees>
            </Position>
            <AltitudeMeters>76.59999847412109375</AltitudeMeters>
            <DistanceMeters>NAN</DistanceMeters>
          </Trackpoint>
          <Trackpoint>
            <Time>2021-08-13T08:48:46.000Z</Time>
            <Position>
              <LatitudeDegrees>43.2135567627847194671630859375</LatitudeDegrees>
              <LongitudeDegrees>-2.0191376097500324249267578125</LongitudeDegrees>
            </Position>
            <AltitudeMeters>76.59999847412109375</AltitudeMeters>
            <DistanceMeters>NAN</DistanceMeters>
          </Trackpoint>
          <Trackpoint>
            <Time>2021-08-13T08:48:47.000Z</Time>
            <Position>
              <LatitudeDegrees>43.21353622712194919586181640625</LatitudeDegrees>
              <LongitudeDegrees>-2.01912897638976573944091796875</LongitudeDegrees>
            </Position>
            <AltitudeMeters>76.59999847412109375</AltitudeMeters>
            <DistanceMeters>NAN</DistanceMeters>
          </Trackpoint>
          <Trackpoint>
            <Time>2021-08-13T08:48:50.000Z</Time>
            <Position>
              <LatitudeDegrees>43.21348710916936397552490234375</LatitudeDegrees>
              <LongitudeDegrees>-2.01908606104552745819091796875</LongitudeDegrees>
            </Position>
            <AltitudeMeters>76.59999847412109375</AltitudeMeters>
            <DistanceMeters>NAN</DistanceMeters>
          </Trackpoint>
          <Trackpoint>
            <Time>2021-08-13T08:48:51.000Z</Time>
            <Position>
              <LatitudeDegrees>43.21347420103847980499267578125</LatitudeDegrees>
              <LongitudeDegrees>-2.01906569302082061767578125</LongitudeDegrees>
            </Position>
            <AltitudeMeters>76.8000030517578125</AltitudeMeters>
            <DistanceMeters>NAN</DistanceMeters>
          </Trackpoint>
          <Trackpoint>
            <Time>2021-08-13T08:48:52.000Z</Time>
            <Position>
              <LatitudeDegrees>43.2134655676782131195068359375</LatitudeDegrees>
              <LongitudeDegrees>-2.01904297806322574615478515625</LongitudeDegrees>
            </Position>
            <AltitudeMeters>77</AltitudeMeters>
            <DistanceMeters>NAN</DistanceMeters>
          </Trackpoint>
          <Trackpoint>
            <Time>2021-08-13T08:48:53.000Z</Time>
            <Position>
              <LatitudeDegrees>43.21345861069858074188232421875</LatitudeDegrees>
              <LongitudeDegrees>-2.01901699416339397430419921875</LongitudeDegrees>
            </Position>
            <AltitudeMeters>77.1999969482421875</AltitudeMeters>
            <DistanceMeters>NAN</DistanceMeters>
          </Trackpoint>
          <Trackpoint>
            <Time>2021-08-13T08:48:54.000Z</Time>
            <Position>
              <LatitudeDegrees>43.21345022879540920257568359375</LatitudeDegrees>
              <LongitudeDegrees>-2.01899017207324504852294921875</LongitudeDegrees>
            </Position>
            <AltitudeMeters>77.40000152587890625</AltitudeMeters>
            <DistanceMeters>NAN</DistanceMeters>
          </Trackpoint>
          <Trackpoint>
            <Time>2021-08-13T08:48:57.000Z</Time>
            <Position>
              <LatitudeDegrees>43.21342323906719684600830078125</LatitudeDegrees>
              <LongitudeDegrees>-2.01890987344086170196533203125</LongitudeDegrees>
            </Position>
            <AltitudeMeters>78</AltitudeMeters>
            <DistanceMeters>NAN</DistanceMeters>
          </Trackpoint>
          <Trackpoint>
            <Time>2021-08-13T08:48:58.000Z</Time>
            <Position>
              <LatitudeDegrees>43.21341234259307384490966796875</LatitudeDegrees>
              <LongitudeDegrees>-2.018882296979427337646484375</LongitudeDegrees>
            </Position>
            <AltitudeMeters>78.40000152587890625</AltitudeMeters>
            <DistanceMeters>NAN</DistanceMeters>
          </Trackpoint>
          <Trackpoint>
            <Time>2021-08-13T08:49:01.000Z</Time>
            <Position>
              <LatitudeDegrees>43.21338870562613010406494140625</LatitudeDegrees>
              <LongitudeDegrees>-2.0188013277947902679443359375</LongitudeDegrees>
            </Position>
            <AltitudeMeters>79.1999969482421875</AltitudeMeters>
            <DistanceMeters>NAN</DistanceMeters>
          </Trackpoint>
          <Trackpoint>
            <Time>2021-08-13T08:49:03.000Z</Time>
            <Position>
              <LatitudeDegrees>43.213380910456180572509765625</LatitudeDegrees>
              <LongitudeDegrees>-2.0187471807003021240234375</LongitudeDegrees>
            </Position>
            <AltitudeMeters>79.40000152587890625</AltitudeMeters>
            <DistanceMeters>NAN</DistanceMeters>
          </Trackpoint>
          <Trackpoint>
            <Time>2021-08-13T08:49:04.000Z</Time>
            <Position>
              <LatitudeDegrees>43.21337630040943622589111328125</LatitudeDegrees>
              <LongitudeDegrees>-2.0187178440392017364501953125</LongitudeDegrees>
            </Position>
            <AltitudeMeters>79.59999847412109375</AltitudeMeters>
            <DistanceMeters>NAN</DistanceMeters>
          </Trackpoint>
          <Trackpoint>
            <Time>2021-08-13T08:49:08.000Z</Time>
            <Position>
              <LatitudeDegrees>43.21336121298372745513916015625</LatitudeDegrees>
              <LongitudeDegrees>-2.01859320513904094696044921875</LongitudeDegrees>
            </Position>
            <AltitudeMeters>80.59999847412109375</AltitudeMeters>
            <DistanceMeters>NAN</DistanceMeters>
          </Trackpoint>
          <Trackpoint>
            <Time>2021-08-13T08:49:11.000Z</Time>
            <Position>
              <LatitudeDegrees>43.2133559323847293853759765625</LatitudeDegrees>
              <LongitudeDegrees>-2.0185029320418834686279296875</LongitudeDegrees>
            </Position>
            <AltitudeMeters>81.1999969482421875</AltitudeMeters>
            <DistanceMeters>NAN</DistanceMeters>
          </Trackpoint>
          <Trackpoint>
            <Time>2021-08-13T08:49:12.000Z</Time>
            <Position>
              <LatitudeDegrees>43.21335836313664913177490234375</LatitudeDegrees>
              <LongitudeDegrees>-2.01847250573337078094482421875</LongitudeDegrees>
            </Position>
            <AltitudeMeters>81.40000152587890625</AltitudeMeters>
            <DistanceMeters>NAN</DistanceMeters>
          </Trackpoint>
          <Trackpoint>
            <Time>2021-08-13T08:49:13.000Z</Time>
            <Position>
              <LatitudeDegrees>43.21336288936436176300048828125</LatitudeDegrees>
              <LongitudeDegrees>-2.01844333671033382415771484375</LongitudeDegrees>
            </Position>
            <AltitudeMeters>81.59999847412109375</AltitudeMeters>
            <DistanceMeters>NAN</DistanceMeters>
          </Trackpoint>
          <Trackpoint>
            <Time>2021-08-13T08:49:14.000Z</Time>
            <Position>
              <LatitudeDegrees>43.21336640976369380950927734375</LatitudeDegrees>
              <LongitudeDegrees>-2.0184124074876308441162109375</LongitudeDegrees>
            </Position>
            <AltitudeMeters>81.8000030517578125</AltitudeMeters>
            <DistanceMeters>NAN</DistanceMeters>
          </Trackpoint>
          <Trackpoint>
            <Time>2021-08-13T08:49:15.000Z</Time>
            <Position>
              <LatitudeDegrees>43.21337043307721614837646484375</LatitudeDegrees>
              <LongitudeDegrees>-2.018382735550403594970703125</LongitudeDegrees>
            </Position>
            <AltitudeMeters>82</AltitudeMeters>
            <DistanceMeters>NAN</DistanceMeters>
          </Trackpoint>
          <Trackpoint>
            <Time>2021-08-13T08:49:16.000Z</Time>
            <Position>
              <LatitudeDegrees>43.21337210945785045623779296875</LatitudeDegrees>
              <LongitudeDegrees>-2.01835180632770061492919921875</LongitudeDegrees>
            </Position>
            <AltitudeMeters>82</AltitudeMeters>
            <DistanceMeters>NAN</DistanceMeters>
          </Trackpoint>
          <Trackpoint>
            <Time>2021-08-13T08:49:17.000Z</Time>
            <Position>
              <LatitudeDegrees>43.2133713550865650177001953125</LatitudeDegrees>
              <LongitudeDegrees>-2.018319703638553619384765625</LongitudeDegrees>
            </Position>
            <AltitudeMeters>82.1999969482421875</AltitudeMeters>
            <DistanceMeters>NAN</DistanceMeters>
          </Trackpoint>
          <Trackpoint>
            <Time>2021-08-13T08:49:18.000Z</Time>
            <Position>
              <LatitudeDegrees>43.21337194181978702545166015625</LatitudeDegrees>
              <LongitudeDegrees>-2.018289528787136077880859375</LongitudeDegrees>
            </Position>
            <AltitudeMeters>82.40000152587890625</AltitudeMeters>
            <DistanceMeters>NAN</DistanceMeters>
          </Trackpoint>
          <Trackpoint>
            <Time>2021-08-13T08:49:19.000Z</Time>
            <Position>
              <LatitudeDegrees>43.21337244473397731781005859375</LatitudeDegrees>
              <LongitudeDegrees>-2.01825910247862339019775390625</LongitudeDegrees>
            </Position>
            <AltitudeMeters>82.8000030517578125</AltitudeMeters>
            <DistanceMeters>NAN</DistanceMeters>
          </Trackpoint>
          <Trackpoint>
            <Time>2021-08-13T08:49:20.000Z</Time>
            <Position>
              <LatitudeDegrees>43.21337294764816761016845703125</LatitudeDegrees>
              <LongitudeDegrees>-2.0182286761701107025146484375</LongitudeDegrees>
            </Position>
            <AltitudeMeters>82.8000030517578125</AltitudeMeters>
            <DistanceMeters>NAN</DistanceMeters>
          </Trackpoint>
          <Trackpoint>
            <Time>2021-08-13T08:49:21.000Z</Time>
            <Position>
              <LatitudeDegrees>43.213374204933643341064453125</LatitudeDegrees>
              <LongitudeDegrees>-2.0182001776993274688720703125</LongitudeDegrees>
            </Position>
            <AltitudeMeters>83</AltitudeMeters>
            <DistanceMeters>NAN</DistanceMeters>
          </Trackpoint>
          <Trackpoint>
            <Time>2021-08-13T08:49:22.000Z</Time>
            <Position>
              <LatitudeDegrees>43.21337630040943622589111328125</LatitudeDegrees>
              <LongitudeDegrees>-2.018173523247241973876953125</LongitudeDegrees>
            </Position>
            <AltitudeMeters>83.40000152587890625</AltitudeMeters>
            <DistanceMeters>NAN</DistanceMeters>
          </Trackpoint>
          <Trackpoint>
            <Time>2021-08-13T08:49:23.000Z</Time>
            <Position>
              <LatitudeDegrees>43.21337646804749965667724609375</LatitudeDegrees>
              <LongitudeDegrees>-2.01814561150968074798583984375</LongitudeDegrees>
            </Position>
            <AltitudeMeters>83.59999847412109375</AltitudeMeters>
            <DistanceMeters>NAN</DistanceMeters>
          </Trackpoint>
          <Trackpoint>
            <Time>2021-08-13T08:49:24.000Z</Time>
            <Position>
              <LatitudeDegrees>43.21337361820042133331298828125</LatitudeDegrees>
              <LongitudeDegrees>-2.0181166939437389373779296875</LongitudeDegrees>
            </Position>
            <AltitudeMeters>83.8000030517578125</AltitudeMeters>
            <DistanceMeters>NAN</DistanceMeters>
          </Trackpoint>
          <Trackpoint>
            <Time>2021-08-13T08:49:25.000Z</Time>
            <Position>
              <LatitudeDegrees>43.21337278001010417938232421875</LatitudeDegrees>
              <LongitudeDegrees>-2.018090374767780303955078125</LongitudeDegrees>
            </Position>
            <AltitudeMeters>84</AltitudeMeters>
            <DistanceMeters>NAN</DistanceMeters>
          </Trackpoint>
          <Trackpoint>
            <Time>2021-08-13T08:49:26.000Z</Time>
            <Position>
              <LatitudeDegrees>43.2133747078478336334228515625</LatitudeDegrees>
              <LongitudeDegrees>-2.01806296594440937042236328125</LongitudeDegrees>
            </Position>
            <AltitudeMeters>84.1999969482421875</AltitudeMeters>
            <DistanceMeters>NAN</DistanceMeters>
          </Trackpoint>
          <Trackpoint>
            <Time>2021-08-13T08:49:27.000Z</Time>
            <Position>
              <LatitudeDegrees>43.21337454020977020263671875</LatitudeDegrees>
              <LongitudeDegrees>-2.01803262345492839813232421875</LongitudeDegrees>
            </Position>
            <AltitudeMeters>84.59999847412109375</AltitudeMeters>
            <DistanceMeters>NAN</DistanceMeters>
          </Trackpoint>
          <Trackpoint>
            <Time>2021-08-13T08:49:28.000Z</Time>
            <Position>
              <LatitudeDegrees>43.21337244473397731781005859375</LatitudeDegrees>
              <LongitudeDegrees>-2.01800446026027202606201171875</LongitudeDegrees>
            </Position>
            <AltitudeMeters>84.8000030517578125</AltitudeMeters>
            <DistanceMeters>NAN</DistanceMeters>
          </Trackpoint>
          <Trackpoint>
            <Time>2021-08-13T08:49:29.000Z</Time>
            <Position>
              <LatitudeDegrees>43.21336808614432811737060546875</LatitudeDegrees>
              <LongitudeDegrees>-2.0179792307317256927490234375</LongitudeDegrees>
            </Position>
            <AltitudeMeters>84.8000030517578125</AltitudeMeters>
            <DistanceMeters>NAN</DistanceMeters>
          </Trackpoint>
          <Trackpoint>
            <Time>2021-08-13T08:49:30.000Z</Time>
            <Position>
              <LatitudeDegrees>43.213361799716949462890625</LatitudeDegrees>
              <LongitudeDegrees>-2.01795668341219425201416015625</LongitudeDegrees>
            </Position>
            <AltitudeMeters>85</AltitudeMeters>
            <DistanceMeters>NAN</DistanceMeters>
          </Trackpoint>
          <Trackpoint>
            <Time>2021-08-13T08:49:31.000Z</Time>
            <Position>
              <LatitudeDegrees>43.21335366927087306976318359375</LatitudeDegrees>
              <LongitudeDegrees>-2.0179369859397411346435546875</LongitudeDegrees>
            </Position>
            <AltitudeMeters>85.1999969482421875</AltitudeMeters>
            <DistanceMeters>NAN</DistanceMeters>
          </Trackpoint>
          <Trackpoint>
            <Time>2021-08-13T08:49:32.000Z</Time>
            <Position>
              <LatitudeDegrees>43.21334260515868663787841796875</LatitudeDegrees>
              <LongitudeDegrees>-2.017916701734066009521484375</LongitudeDegrees>
            </Position>
            <AltitudeMeters>85.40000152587890625</AltitudeMeters>
            <DistanceMeters>NAN</DistanceMeters>
          </Trackpoint>
          <Trackpoint>
            <Time>2021-08-13T08:49:33.000Z</Time>
            <Position>
              <LatitudeDegrees>43.2133327983319759368896484375</LatitudeDegrees>
              <LongitudeDegrees>-2.01789348386228084564208984375</LongitudeDegrees>
            </Position>
            <AltitudeMeters>85.59999847412109375</AltitudeMeters>
            <DistanceMeters>NAN</DistanceMeters>
          </Trackpoint>
          <Trackpoint>
            <Time>2021-08-13T08:49:34.000Z</Time>
            <Position>
              <LatitudeDegrees>43.2133230753242969512939453125</LatitudeDegrees>
              <LongitudeDegrees>-2.01786808669567108154296875</LongitudeDegrees>
            </Position>
            <AltitudeMeters>85.8000030517578125</AltitudeMeters>
            <DistanceMeters>NAN</DistanceMeters>
          </Trackpoint>
          <Trackpoint>
            <Time>2021-08-13T08:49:35.000Z</Time>
            <Position>
              <LatitudeDegrees>43.21331553161144256591796875</LatitudeDegrees>
              <LongitudeDegrees>-2.0178434439003467559814453125</LongitudeDegrees>
            </Position>
            <AltitudeMeters>86</AltitudeMeters>
            <DistanceMeters>NAN</DistanceMeters>
          </Trackpoint>
          <Trackpoint>
            <Time>2021-08-13T08:49:36.000Z</Time>
            <Position>
              <LatitudeDegrees>43.21330790407955646514892578125</LatitudeDegrees>
              <LongitudeDegrees>-2.01781938783824443817138671875</LongitudeDegrees>
            </Position>
            <AltitudeMeters>86</AltitudeMeters>
            <DistanceMeters>NAN</DistanceMeters>
          </Trackpoint>
          <Trackpoint>
            <Time>2021-08-13T08:49:37.000Z</Time>
            <Position>
              <LatitudeDegrees>43.2133006118237972259521484375</LatitudeDegrees>
              <LongitudeDegrees>-2.01779172755777835845947265625</LongitudeDegrees>
            </Position>
            <AltitudeMeters>86.1999969482421875</AltitudeMeters>
            <DistanceMeters>NAN</DistanceMeters>
          </Trackpoint>
          <Trackpoint>
            <Time>2021-08-13T08:49:38.000Z</Time>
            <Position>
              <LatitudeDegrees>43.21329382248222827911376953125</LatitudeDegrees>
              <LongitudeDegrees>-2.01776272617280483245849609375</LongitudeDegrees>
            </Position>
            <AltitudeMeters>86.1999969482421875</AltitudeMeters>
            <DistanceMeters>NAN</DistanceMeters>
          </Trackpoint>
          <Trackpoint>
            <Time>2021-08-13T08:49:39.000Z</Time>
            <Position>
              <LatitudeDegrees>43.213288374245166778564453125</LatitudeDegrees>
              <LongitudeDegrees>-2.0177359879016876220703125</LongitudeDegrees>
            </Position>
            <AltitudeMeters>86.40000152587890625</AltitudeMeters>
            <DistanceMeters>NAN</DistanceMeters>
          </Trackpoint>
          <Trackpoint>
            <Time>2021-08-13T08:49:40.000Z</Time>
            <Position>
              <LatitudeDegrees>43.21327856741845607757568359375</LatitudeDegrees>
              <LongitudeDegrees>-2.01770740561187267303466796875</LongitudeDegrees>
            </Position>
            <AltitudeMeters>86.40000152587890625</AltitudeMeters>
            <DistanceMeters>NAN</DistanceMeters>
          </Trackpoint>
          <Trackpoint>
            <Time>2021-08-13T08:49:41.000Z</Time>
            <Position>
              <LatitudeDegrees>43.21326792240142822265625</LatitudeDegrees>
              <LongitudeDegrees>-2.01767773367464542388916015625</LongitudeDegrees>
            </Position>
            <AltitudeMeters>86.40000152587890625</AltitudeMeters>
            <DistanceMeters>NAN</DistanceMeters>
          </Trackpoint>
          <Trackpoint>
            <Time>2021-08-13T08:49:42.000Z</Time>
            <Position>
              <LatitudeDegrees>43.2132550142705440521240234375</LatitudeDegrees>
              <LongitudeDegrees>-2.017646469175815582275390625</LongitudeDegrees>
            </Position>
            <AltitudeMeters>86.40000152587890625</AltitudeMeters>
            <DistanceMeters>NAN</DistanceMeters>
          </Trackpoint>
          <Trackpoint>
            <Time>2021-08-13T08:49:43.000Z</Time>
            <Position>
              <LatitudeDegrees>43.21324487216770648956298828125</LatitudeDegrees>
              <LongitudeDegrees>-2.0176144503057003021240234375</LongitudeDegrees>
            </Position>
            <AltitudeMeters>86.40000152587890625</AltitudeMeters>
            <DistanceMeters>NAN</DistanceMeters>
          </Trackpoint>
          <Trackpoint>
            <Time>2021-08-13T08:49:44.000Z</Time>
            <Position>
              <LatitudeDegrees>43.213234730064868927001953125</LatitudeDegrees>
              <LongitudeDegrees>-2.0175812579691410064697265625</LongitudeDegrees>
            </Position>
            <AltitudeMeters>86.59999847412109375</AltitudeMeters>
            <DistanceMeters>NAN</DistanceMeters>
          </Trackpoint>
          <Trackpoint>
            <Time>2021-08-13T08:49:45.000Z</Time>
            <Position>
              <LatitudeDegrees>43.21322291158139705657958984375</LatitudeDegrees>
              <LongitudeDegrees>-2.01755435205996036529541015625</LongitudeDegrees>
            </Position>
            <AltitudeMeters>86.59999847412109375</AltitudeMeters>
            <DistanceMeters>NAN</DistanceMeters>
          </Trackpoint>
          <Trackpoint>
            <Time>2021-08-13T08:49:46.000Z</Time>
            <Position>
              <LatitudeDegrees>43.21320958435535430908203125</LatitudeDegrees>
              <LongitudeDegrees>-2.01752216555178165435791015625</LongitudeDegrees>
            </Position>
            <AltitudeMeters>86.59999847412109375</AltitudeMeters>
            <DistanceMeters>NAN</DistanceMeters>
          </Trackpoint>
          <Trackpoint>
            <Time>2021-08-13T08:49:47.000Z</Time>
            <Position>
              <LatitudeDegrees>43.21320497430860996246337890625</LatitudeDegrees>
              <LongitudeDegrees>-2.01748696155846118927001953125</LongitudeDegrees>
            </Position>
            <AltitudeMeters>86.59999847412109375</AltitudeMeters>
            <DistanceMeters>NAN</DistanceMeters>
          </Trackpoint>
          <Trackpoint>
            <Time>2021-08-13T08:49:48.000Z</Time>
            <Position>
              <LatitudeDegrees>43.21320463903248310089111328125</LatitudeDegrees>
              <LongitudeDegrees>-2.017452679574489593505859375</LongitudeDegrees>
            </Position>
            <AltitudeMeters>86.59999847412109375</AltitudeMeters>
            <DistanceMeters>NAN</DistanceMeters>
          </Trackpoint>
          <Trackpoint>
            <Time>2021-08-13T08:49:49.000Z</Time>
            <Position>
              <LatitudeDegrees>43.2132030464708805084228515625</LatitudeDegrees>
              <LongitudeDegrees>-2.01741521246731281280517578125</LongitudeDegrees>
            </Position>
            <AltitudeMeters>86.59999847412109375</AltitudeMeters>
            <DistanceMeters>NAN</DistanceMeters>
          </Trackpoint>
          <Trackpoint>
            <Time>2021-08-13T08:49:50.000Z</Time>
            <Position>
              <LatitudeDegrees>43.2131996937096118927001953125</LatitudeDegrees>
              <LongitudeDegrees>-2.017385624349117279052734375</LongitudeDegrees>
            </Position>
            <AltitudeMeters>86.59999847412109375</AltitudeMeters>
            <DistanceMeters>NAN</DistanceMeters>
          </Trackpoint>
          <Trackpoint>
            <Time>2021-08-13T08:49:51.000Z</Time>
            <Position>
              <LatitudeDegrees>43.213194496929645538330078125</LatitudeDegrees>
              <LongitudeDegrees>-2.0173593051731586456298828125</LongitudeDegrees>
            </Position>
            <AltitudeMeters>86.8000030517578125</AltitudeMeters>
            <DistanceMeters>NAN</DistanceMeters>
          </Trackpoint>
          <Trackpoint>
            <Time>2021-08-13T08:49:52.000Z</Time>
            <Position>
              <LatitudeDegrees>43.213188461959362030029296875</LatitudeDegrees>
              <LongitudeDegrees>-2.0173314772546291351318359375</LongitudeDegrees>
            </Position>
            <AltitudeMeters>86.8000030517578125</AltitudeMeters>
            <DistanceMeters>NAN</DistanceMeters>
          </Trackpoint>
          <Trackpoint>
            <Time>2021-08-13T08:49:53.000Z</Time>
            <Position>
              <LatitudeDegrees>43.2131869532167911529541015625</LatitudeDegrees>
              <LongitudeDegrees>-2.01729903928935527801513671875</LongitudeDegrees>
            </Position>
            <AltitudeMeters>87</AltitudeMeters>
            <DistanceMeters>NAN</DistanceMeters>
          </Trackpoint>
          <Trackpoint>
            <Time>2021-08-13T08:49:54.000Z</Time>
            <Position>
              <LatitudeDegrees>43.2131839357316493988037109375</LatitudeDegrees>
              <LongitudeDegrees>-2.01726081781089305877685546875</LongitudeDegrees>
            </Position>
            <AltitudeMeters>87</AltitudeMeters>
            <DistanceMeters>NAN</DistanceMeters>
          </Trackpoint>
          <Trackpoint>
            <Time>2021-08-13T08:49:55.000Z</Time>
            <Position>
              <LatitudeDegrees>43.21316993795335292816162109375</LatitudeDegrees>
              <LongitudeDegrees>-2.0172174833714962005615234375</LongitudeDegrees>
            </Position>
            <AltitudeMeters>87</AltitudeMeters>
            <DistanceMeters>NAN</DistanceMeters>
          </Trackpoint>
          <Trackpoint>
            <Time>2021-08-13T08:49:57.000Z</Time>
            <Position>
              <LatitudeDegrees>43.21315417997539043426513671875</LatitudeDegrees>
              <LongitudeDegrees>-2.01713358052074909210205078125</LongitudeDegrees>
            </Position>
            <AltitudeMeters>87.1999969482421875</AltitudeMeters>
            <DistanceMeters>NAN</DistanceMeters>
          </Trackpoint>
          <Trackpoint>
            <Time>2021-08-13T08:49:58.000Z</Time>
            <Position>
              <LatitudeDegrees>43.213147222995758056640625</LatitudeDegrees>
              <LongitudeDegrees>-2.0170897431671619415283203125</LongitudeDegrees>
            </Position>
            <AltitudeMeters>87.1999969482421875</AltitudeMeters>
            <DistanceMeters>NAN</DistanceMeters>
          </Trackpoint>
          <Trackpoint>
            <Time>2021-08-13T08:50:03.000Z</Time>
            <Position>
              <LatitudeDegrees>43.21309433318674564361572265625</LatitudeDegrees>
              <LongitudeDegrees>-2.0168857276439666748046875</LongitudeDegrees>
            </Position>
            <AltitudeMeters>87.1999969482421875</AltitudeMeters>
            <DistanceMeters>NAN</DistanceMeters>
          </Trackpoint>
          <Trackpoint>
            <Time>2021-08-13T08:50:08.000Z</Time>
            <Position>
              <LatitudeDegrees>43.2130565308034420013427734375</LatitudeDegrees>
              <LongitudeDegrees>-2.01672202907502651214599609375</LongitudeDegrees>
            </Position>
            <AltitudeMeters>87.1999969482421875</AltitudeMeters>
            <DistanceMeters>NAN</DistanceMeters>
          </Trackpoint>
          <Trackpoint>
            <Time>2021-08-13T08:50:09.000Z</Time>
            <Position>
              <LatitudeDegrees>43.2130491547286510467529296875</LatitudeDegrees>
              <LongitudeDegrees>-2.016687579452991485595703125</LongitudeDegrees>
            </Position>
            <AltitudeMeters>87.1999969482421875</AltitudeMeters>
            <DistanceMeters>NAN</DistanceMeters>
          </Trackpoint>
          <Trackpoint>
            <Time>2021-08-13T08:50:10.000Z</Time>
            <Position>
              <LatitudeDegrees>43.21304102428257465362548828125</LatitudeDegrees>
              <LongitudeDegrees>-2.0166523754596710205078125</LongitudeDegrees>
            </Position>
            <AltitudeMeters>87.1999969482421875</AltitudeMeters>
            <DistanceMeters>NAN</DistanceMeters>
          </Trackpoint>
          <Trackpoint>
            <Time>2021-08-13T08:50:12.000Z</Time>
            <Position>
              <LatitudeDegrees>43.213023506104946136474609375</LatitudeDegrees>
              <LongitudeDegrees>-2.0165811292827129364013671875</LongitudeDegrees>
            </Position>
            <AltitudeMeters>87.1999969482421875</AltitudeMeters>
            <DistanceMeters>NAN</DistanceMeters>
          </Trackpoint>
          <Trackpoint>
            <Time>2021-08-13T08:50:21.000Z</Time>
            <Position>
              <LatitudeDegrees>43.2129485718905925750732421875</LatitudeDegrees>
              <LongitudeDegrees>-2.01625582762062549591064453125</LongitudeDegrees>
            </Position>
            <AltitudeMeters>87.40000152587890625</AltitudeMeters>
            <DistanceMeters>NAN</DistanceMeters>
          </Trackpoint>
          <Trackpoint>
            <Time>2021-08-13T08:50:27.000Z</Time>
            <Position>
              <LatitudeDegrees>43.21291646920144557952880859375</LatitudeDegrees>
              <LongitudeDegrees>-2.0160420052707195281982421875</LongitudeDegrees>
            </Position>
            <AltitudeMeters>87.59999847412109375</AltitudeMeters>
            <DistanceMeters>NAN</DistanceMeters>
          </Trackpoint>
          <Trackpoint>
            <Time>2021-08-13T08:50:33.000Z</Time>
            <Position>
              <LatitudeDegrees>43.21289308369159698486328125</LatitudeDegrees>
              <LongitudeDegrees>-2.01583631336688995361328125</LongitudeDegrees>
            </Position>
            <AltitudeMeters>87.59999847412109375</AltitudeMeters>
            <DistanceMeters>NAN</DistanceMeters>
          </Trackpoint>
          <Trackpoint>
            <Time>2021-08-13T08:50:34.000Z</Time>
            <Position>
              <LatitudeDegrees>43.21289266459643840789794921875</LatitudeDegrees>
              <LongitudeDegrees>-2.01580119319260120391845703125</LongitudeDegrees>
            </Position>
            <AltitudeMeters>87.8000030517578125</AltitudeMeters>
            <DistanceMeters>NAN</DistanceMeters>
          </Trackpoint>
          <Trackpoint>
            <Time>2021-08-13T08:50:35.000Z</Time>
            <Position>
              <LatitudeDegrees>43.21289308369159698486328125</LatitudeDegrees>
              <LongitudeDegrees>-2.015766911208629608154296875</LongitudeDegrees>
            </Position>
            <AltitudeMeters>88</AltitudeMeters>
            <DistanceMeters>NAN</DistanceMeters>
          </Trackpoint>
          <Trackpoint>
            <Time>2021-08-13T08:50:37.000Z</Time>
            <Position>
              <LatitudeDegrees>43.21290314197540283203125</LatitudeDegrees>
              <LongitudeDegrees>-2.01569708995521068572998046875</LongitudeDegrees>
            </Position>
            <AltitudeMeters>88</AltitudeMeters>
            <DistanceMeters>NAN</DistanceMeters>
          </Trackpoint>
          <Trackpoint>
            <Time>2021-08-13T08:50:38.000Z</Time>
            <Position>
              <LatitudeDegrees>43.21290859021246433258056640625</LatitudeDegrees>
              <LongitudeDegrees>-2.01566389761865139007568359375</LongitudeDegrees>
            </Position>
            <AltitudeMeters>88.1999969482421875</AltitudeMeters>
            <DistanceMeters>NAN</DistanceMeters>
          </Trackpoint>
          <Trackpoint>
            <Time>2021-08-13T08:50:39.000Z</Time>
            <Position>
              <LatitudeDegrees>43.21291194297373294830322265625</LatitudeDegrees>
              <LongitudeDegrees>-2.0156306214630603790283203125</LongitudeDegrees>
            </Position>
            <AltitudeMeters>88.1999969482421875</AltitudeMeters>
            <DistanceMeters>NAN</DistanceMeters>
          </Trackpoint>
          <Trackpoint>
            <Time>2021-08-13T08:50:40.000Z</Time>
            <Position>
              <LatitudeDegrees>43.21291588246822357177734375</LatitudeDegrees>
              <LongitudeDegrees>-2.0155970938503742218017578125</LongitudeDegrees>
            </Position>
            <AltitudeMeters>88</AltitudeMeters>
            <DistanceMeters>NAN</DistanceMeters>
          </Trackpoint>
          <Trackpoint>
            <Time>2021-08-13T08:50:41.000Z</Time>
            <Position>
              <LatitudeDegrees>43.21292032487690448760986328125</LatitudeDegrees>
              <LongitudeDegrees>-2.01556465588510036468505859375</LongitudeDegrees>
            </Position>
            <AltitudeMeters>88</AltitudeMeters>
            <DistanceMeters>NAN</DistanceMeters>
          </Trackpoint>
          <Trackpoint>
            <Time>2021-08-13T08:50:43.000Z</Time>
            <Position>
              <LatitudeDegrees>43.212927617132663726806640625</LatitudeDegrees>
              <LongitudeDegrees>-2.01549089513719081878662109375</LongitudeDegrees>
            </Position>
            <AltitudeMeters>88.1999969482421875</AltitudeMeters>
            <DistanceMeters>NAN</DistanceMeters>
          </Trackpoint>
          <Trackpoint>
            <Time>2021-08-13T08:50:46.000Z</Time>
            <Position>
              <LatitudeDegrees>43.21294010616838932037353515625</LatitudeDegrees>
              <LongitudeDegrees>-2.0153644122183322906494140625</LongitudeDegrees>
            </Position>
            <AltitudeMeters>88.40000152587890625</AltitudeMeters>
            <DistanceMeters>NAN</DistanceMeters>
          </Trackpoint>
          <Trackpoint>
            <Time>2021-08-13T08:50:54.000Z</Time>
            <Position>
              <LatitudeDegrees>43.21297162212431430816650390625</LatitudeDegrees>
              <LongitudeDegrees>-2.0150314830243587493896484375</LongitudeDegrees>
            </Position>
            <AltitudeMeters>88.40000152587890625</AltitudeMeters>
            <DistanceMeters>NAN</DistanceMeters>
          </Trackpoint>
          <Trackpoint>
            <Time>2021-08-13T08:51:00.000Z</Time>
            <Position>
              <LatitudeDegrees>43.21300749666988849639892578125</LatitudeDegrees>
              <LongitudeDegrees>-2.01478379778563976287841796875</LongitudeDegrees>
            </Position>
            <AltitudeMeters>88.59999847412109375</AltitudeMeters>
            <DistanceMeters>NAN</DistanceMeters>
          </Trackpoint>
          <Trackpoint>
            <Time>2021-08-13T08:51:01.000Z</Time>
            <Position>
              <LatitudeDegrees>43.21301135234534740447998046875</LatitudeDegrees>
              <LongitudeDegrees>-2.01474909670650959014892578125</LongitudeDegrees>
            </Position>
            <AltitudeMeters>88.59999847412109375</AltitudeMeters>
            <DistanceMeters>NAN</DistanceMeters>
          </Trackpoint>
          <Trackpoint>
            <Time>2021-08-13T08:51:02.000Z</Time>
            <Position>
              <LatitudeDegrees>43.21301554329693317413330078125</LatitudeDegrees>
              <LongitudeDegrees>-2.0147149823606014251708984375</LongitudeDegrees>
            </Position>
            <AltitudeMeters>88.1999969482421875</AltitudeMeters>
            <DistanceMeters>NAN</DistanceMeters>
          </Trackpoint>
          <Trackpoint>
            <Time>2021-08-13T08:51:03.000Z</Time>
            <Position>
              <LatitudeDegrees>43.2130189798772335052490234375</LatitudeDegrees>
              <LongitudeDegrees>-2.014680616557598114013671875</LongitudeDegrees>
            </Position>
            <AltitudeMeters>88.1999969482421875</AltitudeMeters>
            <DistanceMeters>NAN</DistanceMeters>
          </Trackpoint>
          <Trackpoint>
            <Time>2021-08-13T08:51:04.000Z</Time>
            <Position>
              <LatitudeDegrees>43.21302115917205810546875</LatitudeDegrees>
              <LongitudeDegrees>-2.01464633457362651824951171875</LongitudeDegrees>
            </Position>
            <AltitudeMeters>88.1999969482421875</AltitudeMeters>
            <DistanceMeters>NAN</DistanceMeters>
          </Trackpoint>
          <Trackpoint>
            <Time>2021-08-13T08:51:05.000Z</Time>
            <Position>
              <LatitudeDegrees>43.21302325464785099029541015625</LatitudeDegrees>
              <LongitudeDegrees>-2.0146110467612743377685546875</LongitudeDegrees>
            </Position>
            <AltitudeMeters>88.1999969482421875</AltitudeMeters>
            <DistanceMeters>NAN</DistanceMeters>
          </Trackpoint>
          <Trackpoint>
            <Time>2021-08-13T08:51:06.000Z</Time>
            <Position>
              <LatitudeDegrees>43.21302493102848529815673828125</LatitudeDegrees>
              <LongitudeDegrees>-2.01457433402538299560546875</LongitudeDegrees>
            </Position>
            <AltitudeMeters>88.1999969482421875</AltitudeMeters>
            <DistanceMeters>NAN</DistanceMeters>
          </Trackpoint>
          <Trackpoint>
            <Time>2021-08-13T08:51:07.000Z</Time>
            <Position>
              <LatitudeDegrees>43.21302451193332672119140625</LatitudeDegrees>
              <LongitudeDegrees>-2.014537788927555084228515625</LongitudeDegrees>
            </Position>
            <AltitudeMeters>88.1999969482421875</AltitudeMeters>
            <DistanceMeters>NAN</DistanceMeters>
          </Trackpoint>
          <Trackpoint>
            <Time>2021-08-13T08:51:08.000Z</Time>
            <Position>
              <LatitudeDegrees>43.213022835552692413330078125</LatitudeDegrees>
              <LongitudeDegrees>-2.01450484804809093475341796875</LongitudeDegrees>
            </Position>
            <AltitudeMeters>88.1999969482421875</AltitudeMeters>
            <DistanceMeters>NAN</DistanceMeters>
          </Trackpoint>
          <Trackpoint>
            <Time>2021-08-13T08:51:09.000Z</Time>
            <Position>
              <LatitudeDegrees>43.21301789022982120513916015625</LatitudeDegrees>
              <LongitudeDegrees>-2.01447081752121448516845703125</LongitudeDegrees>
            </Position>
            <AltitudeMeters>88.1999969482421875</AltitudeMeters>
            <DistanceMeters>NAN</DistanceMeters>
          </Trackpoint>
          <Trackpoint>
            <Time>2021-08-13T08:51:10.000Z</Time>
            <Position>
              <LatitudeDegrees>43.2130156271159648895263671875</LatitudeDegrees>
              <LongitudeDegrees>-2.01443896628916263580322265625</LongitudeDegrees>
            </Position>
            <AltitudeMeters>88.1999969482421875</AltitudeMeters>
            <DistanceMeters>NAN</DistanceMeters>
          </Trackpoint>
          <Trackpoint>
            <Time>2021-08-13T08:51:11.000Z</Time>
            <Position>
              <LatitudeDegrees>43.21301319636404514312744140625</LatitudeDegrees>
              <LongitudeDegrees>-2.01440543867647647857666015625</LongitudeDegrees>
            </Position>
            <AltitudeMeters>88.1999969482421875</AltitudeMeters>
            <DistanceMeters>NAN</DistanceMeters>
          </Trackpoint>
          <Trackpoint>
            <Time>2021-08-13T08:51:13.000Z</Time>
            <Position>
              <LatitudeDegrees>43.21300934068858623504638671875</LatitudeDegrees>
              <LongitudeDegrees>-2.014333941042423248291015625</LongitudeDegrees>
            </Position>
            <AltitudeMeters>88.59999847412109375</AltitudeMeters>
            <DistanceMeters>NAN</DistanceMeters>
          </Trackpoint>
          <Trackpoint>
            <Time>2021-08-13T08:51:14.000Z</Time>
            <Position>
              <LatitudeDegrees>43.21300305426120758056640625</LatitudeDegrees>
              <LongitudeDegrees>-2.0143046043813228607177734375</LongitudeDegrees>
            </Position>
            <AltitudeMeters>88.40000152587890625</AltitudeMeters>
            <DistanceMeters>NAN</DistanceMeters>
          </Trackpoint>
          <Trackpoint>
            <Time>2021-08-13T08:51:15.000Z</Time>
            <Position>
              <LatitudeDegrees>43.212996684014797210693359375</LatitudeDegrees>
              <LongitudeDegrees>-2.014278955757617950439453125</LongitudeDegrees>
            </Position>
            <AltitudeMeters>88.40000152587890625</AltitudeMeters>
            <DistanceMeters>NAN</DistanceMeters>
          </Trackpoint>
          <Trackpoint>
            <Time>2021-08-13T08:51:16.000Z</Time>
            <Position>
              <LatitudeDegrees>43.21298872120678424835205078125</LatitudeDegrees>
              <LongitudeDegrees>-2.01425523497164249420166015625</LongitudeDegrees>
            </Position>
            <AltitudeMeters>88.40000152587890625</AltitudeMeters>
            <DistanceMeters>NAN</DistanceMeters>
          </Trackpoint>
          <Trackpoint>
            <Time>2021-08-13T08:51:17.000Z</Time>
            <Position>
              <LatitudeDegrees>43.2129784114658832550048828125</LatitudeDegrees>
              <LongitudeDegrees>-2.014234364032745361328125</LongitudeDegrees>
            </Position>
            <AltitudeMeters>88.40000152587890625</AltitudeMeters>
            <DistanceMeters>NAN</DistanceMeters>
          </Trackpoint>
          <Trackpoint>
            <Time>2021-08-13T08:51:18.000Z</Time>
            <Position>
              <LatitudeDegrees>43.21296592243015766143798828125</LatitudeDegrees>
              <LongitudeDegrees>-2.014215253293514251708984375</LongitudeDegrees>
            </Position>
            <AltitudeMeters>88.59999847412109375</AltitudeMeters>
            <DistanceMeters>NAN</DistanceMeters>
          </Trackpoint>
          <Trackpoint>
            <Time>2021-08-13T08:51:19.000Z</Time>
            <Position>
              <LatitudeDegrees>43.21295678615570068359375</LatitudeDegrees>
              <LongitudeDegrees>-2.01419304125010967254638671875</LongitudeDegrees>
            </Position>
            <AltitudeMeters>88.59999847412109375</AltitudeMeters>
            <DistanceMeters>NAN</DistanceMeters>
          </Trackpoint>
          <Trackpoint>
            <Time>2021-08-13T08:51:20.000Z</Time>
            <Position>
              <LatitudeDegrees>43.212948739528656005859375</LatitudeDegrees>
              <LongitudeDegrees>-2.0141708292067050933837890625</LongitudeDegrees>
            </Position>
            <AltitudeMeters>88.59999847412109375</AltitudeMeters>
            <DistanceMeters>NAN</DistanceMeters>
          </Trackpoint>
          <Trackpoint>
            <Time>2021-08-13T08:51:21.000Z</Time>
            <Position>
              <LatitudeDegrees>43.2129393517971038818359375</LatitudeDegrees>
              <LongitudeDegrees>-2.0141463540494441986083984375</LongitudeDegrees>
            </Position>
            <AltitudeMeters>88.59999847412109375</AltitudeMeters>
            <DistanceMeters>NAN</DistanceMeters>
          </Trackpoint>
          <Trackpoint>
            <Time>2021-08-13T08:51:22.000Z</Time>
            <Position>
              <LatitudeDegrees>43.21292585693299770355224609375</LatitudeDegrees>
              <LongitudeDegrees>-2.01411978341639041900634765625</LongitudeDegrees>
            </Position>
            <AltitudeMeters>88.59999847412109375</AltitudeMeters>
            <DistanceMeters>NAN</DistanceMeters>
          </Trackpoint>
          <Trackpoint>
            <Time>2021-08-13T08:51:23.000Z</Time>
            <Position>
              <LatitudeDegrees>43.21290590800344944000244140625</LatitudeDegrees>
              <LongitudeDegrees>-2.01408793218433856964111328125</LongitudeDegrees>
            </Position>
            <AltitudeMeters>88.59999847412109375</AltitudeMeters>
            <DistanceMeters>NAN</DistanceMeters>
          </Trackpoint>
          <Trackpoint>
            <Time>2021-08-13T08:51:24.000Z</Time>
            <Position>
              <LatitudeDegrees>43.21289450861513614654541015625</LatitudeDegrees>
              <LongitudeDegrees>-2.01405256055295467376708984375</LongitudeDegrees>
            </Position>
            <AltitudeMeters>88.59999847412109375</AltitudeMeters>
            <DistanceMeters>NAN</DistanceMeters>
          </Trackpoint>
          <Trackpoint>
            <Time>2021-08-13T08:51:27.000Z</Time>
            <Position>
              <LatitudeDegrees>43.2128868810832500457763671875</LatitudeDegrees>
              <LongitudeDegrees>-2.013965137302875518798828125</LongitudeDegrees>
            </Position>
            <AltitudeMeters>89</AltitudeMeters>
            <DistanceMeters>NAN</DistanceMeters>
          </Trackpoint>
          <Trackpoint>
            <Time>2021-08-13T08:51:28.000Z</Time>
            <Position>
              <LatitudeDegrees>43.21289174258708953857421875</LatitudeDegrees>
              <LongitudeDegrees>-2.01395264826714992523193359375</LongitudeDegrees>
            </Position>
            <AltitudeMeters>89</AltitudeMeters>
            <DistanceMeters>NAN</DistanceMeters>
          </Trackpoint>
          <Trackpoint>
            <Time>2021-08-13T08:51:29.000Z</Time>
            <Position>
              <LatitudeDegrees>43.212896101176738739013671875</LatitudeDegrees>
              <LongitudeDegrees>-2.0139552466571331024169921875</LongitudeDegrees>
            </Position>
            <AltitudeMeters>89</AltitudeMeters>
            <DistanceMeters>NAN</DistanceMeters>
          </Trackpoint>
          <Trackpoint>
            <Time>2021-08-13T08:52:02.000Z</Time>
            <Position>
              <LatitudeDegrees>43.2123935222625732421875</LatitudeDegrees>
              <LongitudeDegrees>-2.012699134647846221923828125</LongitudeDegrees>
            </Position>
            <AltitudeMeters>90.1999969482421875</AltitudeMeters>
            <DistanceMeters>NAN</DistanceMeters>
          </Trackpoint>
          <Trackpoint>
            <Time>2021-08-13T08:52:03.000Z</Time>
            <Position>
              <LatitudeDegrees>43.21218808181583881378173828125</LatitudeDegrees>
              <LongitudeDegrees>-2.01257181353867053985595703125</LongitudeDegrees>
            </Position>
            <AltitudeMeters>90.1999969482421875</AltitudeMeters>
            <DistanceMeters>NAN</DistanceMeters>
          </Trackpoint>
          <Trackpoint>
            <Time>2021-08-13T08:52:04.000Z</Time>
            <Position>
              <LatitudeDegrees>43.21216310374438762664794921875</LatitudeDegrees>
              <LongitudeDegrees>-2.01255890540778636932373046875</LongitudeDegrees>
            </Position>
            <AltitudeMeters>90.1999969482421875</AltitudeMeters>
            <DistanceMeters>NAN</DistanceMeters>
          </Trackpoint>
          <Trackpoint>
            <Time>2021-08-13T08:52:05.000Z</Time>
            <Position>
              <LatitudeDegrees>43.21214877068996429443359375</LatitudeDegrees>
              <LongitudeDegrees>-2.0125608332455158233642578125</LongitudeDegrees>
            </Position>
            <AltitudeMeters>90</AltitudeMeters>
            <DistanceMeters>NAN</DistanceMeters>
          </Trackpoint>
          <Trackpoint>
            <Time>2021-08-13T08:52:06.000Z</Time>
            <Position>
              <LatitudeDegrees>43.21213209070265293121337890625</LatitudeDegrees>
              <LongitudeDegrees>-2.0125514455139636993408203125</LongitudeDegrees>
            </Position>
            <AltitudeMeters>90</AltitudeMeters>
            <DistanceMeters>NAN</DistanceMeters>
          </Trackpoint>
          <Trackpoint>
            <Time>2021-08-13T08:52:07.000Z</Time>
            <Position>
              <LatitudeDegrees>43.21214164607226848602294921875</LatitudeDegrees>
              <LongitudeDegrees>-2.01257617212831974029541015625</LongitudeDegrees>
            </Position>
            <AltitudeMeters>90</AltitudeMeters>
            <DistanceMeters>NAN</DistanceMeters>
          </Trackpoint>
          <Trackpoint>
            <Time>2021-08-13T08:52:09.000Z</Time>
            <Position>
              <LatitudeDegrees>43.21208230219781398773193359375</LatitudeDegrees>
              <LongitudeDegrees>-2.01254884712398052215576171875</LongitudeDegrees>
            </Position>
            <AltitudeMeters>90.1999969482421875</AltitudeMeters>
            <DistanceMeters>NAN</DistanceMeters>
          </Trackpoint>
          <Trackpoint>
            <Time>2021-08-13T08:52:12.000Z</Time>
            <Position>
              <LatitudeDegrees>43.2119630277156829833984375</LatitudeDegrees>
              <LongitudeDegrees>-2.0125366933643817901611328125</LongitudeDegrees>
            </Position>
            <AltitudeMeters>90.1999969482421875</AltitudeMeters>
            <DistanceMeters>NAN</DistanceMeters>
          </Trackpoint>
          <Trackpoint>
            <Time>2021-08-13T08:52:16.000Z</Time>
            <Position>
              <LatitudeDegrees>43.2118217088282108306884765625</LatitudeDegrees>
              <LongitudeDegrees>-2.01256393454968929290771484375</LongitudeDegrees>
            </Position>
            <AltitudeMeters>90.59999847412109375</AltitudeMeters>
            <DistanceMeters>NAN</DistanceMeters>
          </Trackpoint>
          <Trackpoint>
            <Time>2021-08-13T08:52:19.000Z</Time>
            <Position>
              <LatitudeDegrees>43.21173009462654590606689453125</LatitudeDegrees>
              <LongitudeDegrees>-2.01257533393800258636474609375</LongitudeDegrees>
            </Position>
            <AltitudeMeters>90.8000030517578125</AltitudeMeters>
            <DistanceMeters>NAN</DistanceMeters>
          </Trackpoint>
          <Trackpoint>
            <Time>2021-08-13T08:52:25.000Z</Time>
            <Position>
              <LatitudeDegrees>43.211532197892665863037109375</LatitudeDegrees>
              <LongitudeDegrees>-2.0126600749790668487548828125</LongitudeDegrees>
            </Position>
            <AltitudeMeters>91</AltitudeMeters>
            <DistanceMeters>NAN</DistanceMeters>
          </Trackpoint>
          <Trackpoint>
            <Time>2021-08-13T08:52:30.000Z</Time>
            <Position>
              <LatitudeDegrees>43.21139062754809856414794921875</LatitudeDegrees>
              <LongitudeDegrees>-2.0127546228468418121337890625</LongitudeDegrees>
            </Position>
            <AltitudeMeters>91.1999969482421875</AltitudeMeters>
            <DistanceMeters>NAN</DistanceMeters>
          </Trackpoint>
          <Trackpoint>
            <Time>2021-08-13T08:52:34.000Z</Time>
            <Position>
              <LatitudeDegrees>43.21126632392406463623046875</LatitudeDegrees>
              <LongitudeDegrees>-2.0128248631954193115234375</LongitudeDegrees>
            </Position>
            <AltitudeMeters>91.1999969482421875</AltitudeMeters>
            <DistanceMeters>NAN</DistanceMeters>
          </Trackpoint>
          <Trackpoint>
            <Time>2021-08-13T08:52:35.000Z</Time>
            <Position>
              <LatitudeDegrees>43.2112366519868373870849609375</LatitudeDegrees>
              <LongitudeDegrees>-2.012833245098590850830078125</LongitudeDegrees>
            </Position>
            <AltitudeMeters>91.1999969482421875</AltitudeMeters>
            <DistanceMeters>NAN</DistanceMeters>
          </Trackpoint>
          <Trackpoint>
            <Time>2021-08-13T08:52:36.000Z</Time>
            <Position>
              <LatitudeDegrees>43.21120454929769039154052734375</LatitudeDegrees>
              <LongitudeDegrees>-2.0128495059907436370849609375</LongitudeDegrees>
            </Position>
            <AltitudeMeters>91.1999969482421875</AltitudeMeters>
            <DistanceMeters>NAN</DistanceMeters>
          </Trackpoint>
          <Trackpoint>
            <Time>2021-08-13T08:52:37.000Z</Time>
            <Position>
              <LatitudeDegrees>43.21117621846497058868408203125</LatitudeDegrees>
              <LongitudeDegrees>-2.0128659345209598541259765625</LongitudeDegrees>
            </Position>
            <AltitudeMeters>91</AltitudeMeters>
            <DistanceMeters>NAN</DistanceMeters>
          </Trackpoint>
          <Trackpoint>
            <Time>2021-08-13T08:52:38.000Z</Time>
            <Position>
              <LatitudeDegrees>43.2111464627087116241455078125</LatitudeDegrees>
              <LongitudeDegrees>-2.01287917792797088623046875</LongitudeDegrees>
            </Position>
            <AltitudeMeters>91</AltitudeMeters>
            <DistanceMeters>NAN</DistanceMeters>
          </Trackpoint>
          <Trackpoint>
            <Time>2021-08-13T08:52:41.000Z</Time>
            <Position>
              <LatitudeDegrees>43.2110552676022052764892578125</LatitudeDegrees>
              <LongitudeDegrees>-2.01292234472930431365966796875</LongitudeDegrees>
            </Position>
            <AltitudeMeters>91</AltitudeMeters>
            <DistanceMeters>NAN</DistanceMeters>
          </Trackpoint>
          <Trackpoint>
            <Time>2021-08-13T08:52:42.000Z</Time>
            <Position>
              <LatitudeDegrees>43.21102685295045375823974609375</LatitudeDegrees>
              <LongitudeDegrees>-2.01293190009891986846923828125</LongitudeDegrees>
            </Position>
            <AltitudeMeters>91</AltitudeMeters>
            <DistanceMeters>NAN</DistanceMeters>
          </Trackpoint>
          <Trackpoint>
            <Time>2021-08-13T08:52:43.000Z</Time>
            <Position>
              <LatitudeDegrees>43.210999108850955963134765625</LatitudeDegrees>
              <LongitudeDegrees>-2.0129375159740447998046875</LongitudeDegrees>
            </Position>
            <AltitudeMeters>91</AltitudeMeters>
            <DistanceMeters>NAN</DistanceMeters>
          </Trackpoint>
          <Trackpoint>
            <Time>2021-08-13T08:52:44.000Z</Time>
            <Position>
              <LatitudeDegrees>43.2109732925891876220703125</LatitudeDegrees>
              <LongitudeDegrees>-2.0129467360675334930419921875</LongitudeDegrees>
            </Position>
            <AltitudeMeters>90.8000030517578125</AltitudeMeters>
            <DistanceMeters>NAN</DistanceMeters>
          </Trackpoint>
          <Trackpoint>
            <Time>2021-08-13T08:52:45.000Z</Time>
            <Position>
              <LatitudeDegrees>43.21095191873610019683837890625</LatitudeDegrees>
              <LongitudeDegrees>-2.0129510946571826934814453125</LongitudeDegrees>
            </Position>
            <AltitudeMeters>90.8000030517578125</AltitudeMeters>
            <DistanceMeters>NAN</DistanceMeters>
          </Trackpoint>
          <Trackpoint>
            <Time>2021-08-13T08:52:47.000Z</Time>
            <Position>
              <LatitudeDegrees>43.21089073084294795989990234375</LatitudeDegrees>
              <LongitudeDegrees>-2.012973390519618988037109375</LongitudeDegrees>
            </Position>
            <AltitudeMeters>90.8000030517578125</AltitudeMeters>
            <DistanceMeters>NAN</DistanceMeters>
          </Trackpoint>
          <Trackpoint>
            <Time>2021-08-13T08:52:48.000Z</Time>
            <Position>
              <LatitudeDegrees>43.21086323820054531097412109375</LatitudeDegrees>
              <LongitudeDegrees>-2.012985460460186004638671875</LongitudeDegrees>
            </Position>
            <AltitudeMeters>90.8000030517578125</AltitudeMeters>
            <DistanceMeters>NAN</DistanceMeters>
          </Trackpoint>
          <Trackpoint>
            <Time>2021-08-13T08:52:49.000Z</Time>
            <Position>
              <LatitudeDegrees>43.21083859540522098541259765625</LatitudeDegrees>
              <LongitudeDegrees>-2.01298839412629604339599609375</LongitudeDegrees>
            </Position>
            <AltitudeMeters>90.8000030517578125</AltitudeMeters>
            <DistanceMeters>NAN</DistanceMeters>
          </Trackpoint>
          <Trackpoint>
            <Time>2021-08-13T08:52:50.000Z</Time>
            <Position>
              <LatitudeDegrees>43.21081227622926235198974609375</LatitudeDegrees>
              <LongitudeDegrees>-2.01298537664115428924560546875</LongitudeDegrees>
            </Position>
            <AltitudeMeters>90.8000030517578125</AltitudeMeters>
            <DistanceMeters>NAN</DistanceMeters>
          </Trackpoint>
          <Trackpoint>
            <Time>2021-08-13T08:52:51.000Z</Time>
            <Position>
              <LatitudeDegrees>43.21078486740589141845703125</LatitudeDegrees>
              <LongitudeDegrees>-2.01298185624182224273681640625</LongitudeDegrees>
            </Position>
            <AltitudeMeters>90.8000030517578125</AltitudeMeters>
            <DistanceMeters>NAN</DistanceMeters>
          </Trackpoint>
          <Trackpoint>
            <Time>2021-08-13T08:52:52.000Z</Time>
            <Position>
              <LatitudeDegrees>43.210755698382854461669921875</LatitudeDegrees>
              <LongitudeDegrees>-2.0129812695086002349853515625</LongitudeDegrees>
            </Position>
            <AltitudeMeters>90.8000030517578125</AltitudeMeters>
            <DistanceMeters>NAN</DistanceMeters>
          </Trackpoint>
          <Trackpoint>
            <Time>2021-08-13T08:52:53.000Z</Time>
            <Position>
              <LatitudeDegrees>43.210725523531436920166015625</LatitudeDegrees>
              <LongitudeDegrees>-2.012980096042156219482421875</LongitudeDegrees>
            </Position>
            <AltitudeMeters>90.8000030517578125</AltitudeMeters>
            <DistanceMeters>NAN</DistanceMeters>
          </Trackpoint>
          <Trackpoint>
            <Time>2021-08-13T08:52:56.000Z</Time>
            <Position>
              <LatitudeDegrees>43.2106395252048969268798828125</LatitudeDegrees>
              <LongitudeDegrees>-2.0129651762545108795166015625</LongitudeDegrees>
            </Position>
            <AltitudeMeters>91.1999969482421875</AltitudeMeters>
            <DistanceMeters>NAN</DistanceMeters>
          </Trackpoint>
          <Trackpoint>
            <Time>2021-08-13T08:53:03.000Z</Time>
            <Position>
              <LatitudeDegrees>43.2104303129017353057861328125</LatitudeDegrees>
              <LongitudeDegrees>-2.0129152201116085052490234375</LongitudeDegrees>
            </Position>
            <AltitudeMeters>91.1999969482421875</AltitudeMeters>
            <DistanceMeters>NAN</DistanceMeters>
          </Trackpoint>
          <Trackpoint>
            <Time>2021-08-13T08:53:06.000Z</Time>
            <Position>
              <LatitudeDegrees>43.2103562168776988983154296875</LatitudeDegrees>
              <LongitudeDegrees>-2.0128758251667022705078125</LongitudeDegrees>
            </Position>
            <AltitudeMeters>91.1999969482421875</AltitudeMeters>
            <DistanceMeters>NAN</DistanceMeters>
          </Trackpoint>
          <Trackpoint>
            <Time>2021-08-13T08:53:07.000Z</Time>
            <Position>
              <LatitudeDegrees>43.210330568253993988037109375</LatitudeDegrees>
              <LongitudeDegrees>-2.01285813935101032257080078125</LongitudeDegrees>
            </Position>
            <AltitudeMeters>91.1999969482421875</AltitudeMeters>
            <DistanceMeters>NAN</DistanceMeters>
          </Trackpoint>
          <Trackpoint>
            <Time>2021-08-13T08:53:08.000Z</Time>
            <Position>
              <LatitudeDegrees>43.2103039138019084930419921875</LatitudeDegrees>
              <LongitudeDegrees>-2.01284087263047695159912109375</LongitudeDegrees>
            </Position>
            <AltitudeMeters>91.1999969482421875</AltitudeMeters>
            <DistanceMeters>NAN</DistanceMeters>
          </Trackpoint>
          <Trackpoint>
            <Time>2021-08-13T08:53:09.000Z</Time>
            <Position>
              <LatitudeDegrees>43.210277259349822998046875</LatitudeDegrees>
              <LongitudeDegrees>-2.01283383183181285858154296875</LongitudeDegrees>
            </Position>
            <AltitudeMeters>91.1999969482421875</AltitudeMeters>
            <DistanceMeters>NAN</DistanceMeters>
          </Trackpoint>
          <Trackpoint>
            <Time>2021-08-13T08:53:10.000Z</Time>
            <Position>
              <LatitudeDegrees>43.2102512754499912261962890625</LatitudeDegrees>
              <LongitudeDegrees>-2.01282243244349956512451171875</LongitudeDegrees>
            </Position>
            <AltitudeMeters>91.1999969482421875</AltitudeMeters>
            <DistanceMeters>NAN</DistanceMeters>
          </Trackpoint>
          <Trackpoint>
            <Time>2021-08-13T08:53:11.000Z</Time>
            <Position>
              <LatitudeDegrees>43.210227973759174346923828125</LatitudeDegrees>
              <LongitudeDegrees>-2.0128099434077739715576171875</LongitudeDegrees>
            </Position>
            <AltitudeMeters>91.1999969482421875</AltitudeMeters>
            <DistanceMeters>NAN</DistanceMeters>
          </Trackpoint>
          <Trackpoint>
            <Time>2021-08-13T08:53:12.000Z</Time>
            <Position>
              <LatitudeDegrees>43.21020442061126232147216796875</LatitudeDegrees>
              <LongitudeDegrees>-2.01279460452497005462646484375</LongitudeDegrees>
            </Position>
            <AltitudeMeters>91.1999969482421875</AltitudeMeters>
            <DistanceMeters>NAN</DistanceMeters>
          </Trackpoint>
          <Trackpoint>
            <Time>2021-08-13T08:53:14.000Z</Time>
            <Position>
              <LatitudeDegrees>43.21016217581927776336669921875</LatitudeDegrees>
              <LongitudeDegrees>-2.01275453902781009674072265625</LongitudeDegrees>
            </Position>
            <AltitudeMeters>91.1999969482421875</AltitudeMeters>
            <DistanceMeters>NAN</DistanceMeters>
          </Trackpoint>
          <Trackpoint>
            <Time>2021-08-13T08:53:16.000Z</Time>
            <Position>
              <LatitudeDegrees>43.210117332637310028076171875</LatitudeDegrees>
              <LongitudeDegrees>-2.01272117905318737030029296875</LongitudeDegrees>
            </Position>
            <AltitudeMeters>91.1999969482421875</AltitudeMeters>
            <DistanceMeters>NAN</DistanceMeters>
          </Trackpoint>
          <Trackpoint>
            <Time>2021-08-13T08:53:17.000Z</Time>
            <Position>
              <LatitudeDegrees>43.21009780280292034149169921875</LatitudeDegrees>
              <LongitudeDegrees>-2.01270475052297115325927734375</LongitudeDegrees>
            </Position>
            <AltitudeMeters>91.1999969482421875</AltitudeMeters>
            <DistanceMeters>NAN</DistanceMeters>
          </Trackpoint>
          <Trackpoint>
            <Time>2021-08-13T08:53:18.000Z</Time>
            <Position>
              <LatitudeDegrees>43.2100765965878963470458984375</LatitudeDegrees>
              <LongitudeDegrees>-2.0126899145543575286865234375</LongitudeDegrees>
            </Position>
            <AltitudeMeters>91.1999969482421875</AltitudeMeters>
            <DistanceMeters>NAN</DistanceMeters>
          </Trackpoint>
          <Trackpoint>
            <Time>2021-08-13T08:53:19.000Z</Time>
            <Position>
              <LatitudeDegrees>43.2100546360015869140625</LatitudeDegrees>
              <LongitudeDegrees>-2.012674994766712188720703125</LongitudeDegrees>
            </Position>
            <AltitudeMeters>91.1999969482421875</AltitudeMeters>
            <DistanceMeters>NAN</DistanceMeters>
          </Trackpoint>
          <Trackpoint>
            <Time>2021-08-13T08:53:20.000Z</Time>
            <Position>
              <LatitudeDegrees>43.2100340165197849273681640625</LatitudeDegrees>
              <LongitudeDegrees>-2.01266116462647914886474609375</LongitudeDegrees>
            </Position>
            <AltitudeMeters>91.1999969482421875</AltitudeMeters>
            <DistanceMeters>NAN</DistanceMeters>
          </Trackpoint>
          <Trackpoint>
            <Time>2021-08-13T08:53:21.000Z</Time>
            <Position>
              <LatitudeDegrees>43.21001507341861724853515625</LatitudeDegrees>
              <LongitudeDegrees>-2.0126486755907535552978515625</LongitudeDegrees>
            </Position>
            <AltitudeMeters>91.1999969482421875</AltitudeMeters>
            <DistanceMeters>NAN</DistanceMeters>
          </Trackpoint>
          <Trackpoint>
            <Time>2021-08-13T08:53:22.000Z</Time>
            <Position>
              <LatitudeDegrees>43.20999420247972011566162109375</LatitudeDegrees>
              <LongitudeDegrees>-2.01263484545052051544189453125</LongitudeDegrees>
            </Position>
            <AltitudeMeters>91.1999969482421875</AltitudeMeters>
            <DistanceMeters>NAN</DistanceMeters>
          </Trackpoint>
          <Trackpoint>
            <Time>2021-08-13T08:53:23.000Z</Time>
            <Position>
              <LatitudeDegrees>43.2099719904363155364990234375</LatitudeDegrees>
              <LongitudeDegrees>-2.01261791400611400604248046875</LongitudeDegrees>
            </Position>
            <AltitudeMeters>91</AltitudeMeters>
            <DistanceMeters>NAN</DistanceMeters>
          </Trackpoint>
          <Trackpoint>
            <Time>2021-08-13T08:53:24.000Z</Time>
            <Position>
              <LatitudeDegrees>43.209947012364864349365234375</LatitudeDegrees>
              <LongitudeDegrees>-2.01259888708591461181640625</LongitudeDegrees>
            </Position>
            <AltitudeMeters>91</AltitudeMeters>
            <DistanceMeters>NAN</DistanceMeters>
          </Trackpoint>
          <Trackpoint>
            <Time>2021-08-13T08:53:26.000Z</Time>
            <Position>
              <LatitudeDegrees>43.209890685975551605224609375</LatitudeDegrees>
              <LongitudeDegrees>-2.01256401836872100830078125</LongitudeDegrees>
            </Position>
            <AltitudeMeters>91</AltitudeMeters>
            <DistanceMeters>NAN</DistanceMeters>
          </Trackpoint>
          <Trackpoint>
            <Time>2021-08-13T08:53:27.000Z</Time>
            <Position>
              <LatitudeDegrees>43.20986243896186351776123046875</LatitudeDegrees>
              <LongitudeDegrees>-2.01255002059042453765869140625</LongitudeDegrees>
            </Position>
            <AltitudeMeters>91</AltitudeMeters>
            <DistanceMeters>NAN</DistanceMeters>
          </Trackpoint>
          <Trackpoint>
            <Time>2021-08-13T08:53:35.000Z</Time>
            <Position>
              <LatitudeDegrees>43.20964484475553035736083984375</LatitudeDegrees>
              <LongitudeDegrees>-2.012435607612133026123046875</LongitudeDegrees>
            </Position>
            <AltitudeMeters>90.8000030517578125</AltitudeMeters>
            <DistanceMeters>NAN</DistanceMeters>
          </Trackpoint>
          <Trackpoint>
            <Time>2021-08-13T08:53:40.000Z</Time>
            <Position>
              <LatitudeDegrees>43.209480307996273040771484375</LatitudeDegrees>
              <LongitudeDegrees>-2.01234147883951663970947265625</LongitudeDegrees>
            </Position>
            <AltitudeMeters>90.8000030517578125</AltitudeMeters>
            <DistanceMeters>NAN</DistanceMeters>
          </Trackpoint>
          <Trackpoint>
            <Time>2021-08-13T08:53:41.000Z</Time>
            <Position>
              <LatitudeDegrees>43.20944736711680889129638671875</LatitudeDegrees>
              <LongitudeDegrees>-2.0123214460909366607666015625</LongitudeDegrees>
            </Position>
            <AltitudeMeters>90.8000030517578125</AltitudeMeters>
            <DistanceMeters>NAN</DistanceMeters>
          </Trackpoint>
          <Trackpoint>
            <Time>2021-08-13T08:53:42.000Z</Time>
            <Position>
              <LatitudeDegrees>43.20941518060863018035888671875</LatitudeDegrees>
              <LongitudeDegrees>-2.01230652630329132080078125</LongitudeDegrees>
            </Position>
            <AltitudeMeters>90.8000030517578125</AltitudeMeters>
            <DistanceMeters>NAN</DistanceMeters>
          </Trackpoint>
          <Trackpoint>
            <Time>2021-08-13T08:53:48.000Z</Time>
            <Position>
              <LatitudeDegrees>43.20922792889177799224853515625</LatitudeDegrees>
              <LongitudeDegrees>-2.0121595077216625213623046875</LongitudeDegrees>
            </Position>
            <AltitudeMeters>90.8000030517578125</AltitudeMeters>
            <DistanceMeters>NAN</DistanceMeters>
          </Trackpoint>
          <Trackpoint>
            <Time>2021-08-13T08:53:50.000Z</Time>
            <Position>
              <LatitudeDegrees>43.20916975848376750946044921875</LatitudeDegrees>
              <LongitudeDegrees>-2.0121038518846035003662109375</LongitudeDegrees>
            </Position>
            <AltitudeMeters>91</AltitudeMeters>
            <DistanceMeters>NAN</DistanceMeters>
          </Trackpoint>
          <Trackpoint>
            <Time>2021-08-13T08:53:56.000Z</Time>
            <Position>
              <LatitudeDegrees>43.2090271823108196258544921875</LatitudeDegrees>
              <LongitudeDegrees>-2.0118973217904567718505859375</LongitudeDegrees>
            </Position>
            <AltitudeMeters>91.1999969482421875</AltitudeMeters>
            <DistanceMeters>NAN</DistanceMeters>
          </Trackpoint>
          <Trackpoint>
            <Time>2021-08-13T08:53:57.000Z</Time>
            <Position>
              <LatitudeDegrees>43.2090072333812713623046875</LatitudeDegrees>
              <LongitudeDegrees>-2.01186052523553371429443359375</LongitudeDegrees>
            </Position>
            <AltitudeMeters>91.1999969482421875</AltitudeMeters>
            <DistanceMeters>NAN</DistanceMeters>
          </Trackpoint>
          <Trackpoint>
            <Time>2021-08-13T08:53:59.000Z</Time>
            <Position>
              <LatitudeDegrees>43.2089675031602382659912109375</LatitudeDegrees>
              <LongitudeDegrees>-2.0117866806685924530029296875</LongitudeDegrees>
            </Position>
            <AltitudeMeters>91.40000152587890625</AltitudeMeters>
            <DistanceMeters>NAN</DistanceMeters>
          </Trackpoint>
          <Trackpoint>
            <Time>2021-08-13T08:54:00.000Z</Time>
            <Position>
              <LatitudeDegrees>43.20895115844905376434326171875</LatitudeDegrees>
              <LongitudeDegrees>-2.01175156049430370330810546875</LongitudeDegrees>
            </Position>
            <AltitudeMeters>91.40000152587890625</AltitudeMeters>
            <DistanceMeters>NAN</DistanceMeters>
          </Trackpoint>
          <Trackpoint>
            <Time>2021-08-13T08:54:01.000Z</Time>
            <Position>
              <LatitudeDegrees>43.208936490118503570556640625</LatitudeDegrees>
              <LongitudeDegrees>-2.01171702705323696136474609375</LongitudeDegrees>
            </Position>
            <AltitudeMeters>91.40000152587890625</AltitudeMeters>
            <DistanceMeters>NAN</DistanceMeters>
          </Trackpoint>
          <Trackpoint>
            <Time>2021-08-13T08:54:04.000Z</Time>
            <Position>
              <LatitudeDegrees>43.208888880908489227294921875</LatitudeDegrees>
              <LongitudeDegrees>-2.01159775257110595703125</LongitudeDegrees>
            </Position>
            <AltitudeMeters>91.59999847412109375</AltitudeMeters>
            <DistanceMeters>NAN</DistanceMeters>
          </Trackpoint>
          <Trackpoint>
            <Time>2021-08-13T08:54:05.000Z</Time>
            <Position>
              <LatitudeDegrees>43.20887169800698757171630859375</LatitudeDegrees>
              <LongitudeDegrees>-2.011558525264263153076171875</LongitudeDegrees>
            </Position>
            <AltitudeMeters>91.59999847412109375</AltitudeMeters>
            <DistanceMeters>NAN</DistanceMeters>
          </Trackpoint>
          <Trackpoint>
            <Time>2021-08-13T08:54:06.000Z</Time>
            <Position>
              <LatitudeDegrees>43.208850324153900146484375</LatitudeDegrees>
              <LongitudeDegrees>-2.01152265071868896484375</LongitudeDegrees>
            </Position>
            <AltitudeMeters>91.59999847412109375</AltitudeMeters>
            <DistanceMeters>NAN</DistanceMeters>
          </Trackpoint>
          <Trackpoint>
            <Time>2021-08-13T08:54:07.000Z</Time>
            <Position>
              <LatitudeDegrees>43.20882878266274929046630859375</LatitudeDegrees>
              <LongitudeDegrees>-2.01148987747728824615478515625</LongitudeDegrees>
            </Position>
            <AltitudeMeters>91.59999847412109375</AltitudeMeters>
            <DistanceMeters>NAN</DistanceMeters>
          </Trackpoint>
          <Trackpoint>
            <Time>2021-08-13T08:54:08.000Z</Time>
            <Position>
              <LatitudeDegrees>43.208813779056072235107421875</LatitudeDegrees>
              <LongitudeDegrees>-2.01145718805491924285888671875</LongitudeDegrees>
            </Position>
            <AltitudeMeters>91.59999847412109375</AltitudeMeters>
            <DistanceMeters>NAN</DistanceMeters>
          </Trackpoint>
          <Trackpoint>
            <Time>2021-08-13T08:54:09.000Z</Time>
            <Position>
              <LatitudeDegrees>43.2088028825819492340087890625</LatitudeDegrees>
              <LongitudeDegrees>-2.01142667792737483978271484375</LongitudeDegrees>
            </Position>
            <AltitudeMeters>91.59999847412109375</AltitudeMeters>
            <DistanceMeters>NAN</DistanceMeters>
          </Trackpoint>
          <Trackpoint>
            <Time>2021-08-13T08:54:10.000Z</Time>
            <Position>
              <LatitudeDegrees>43.2087918184697628021240234375</LatitudeDegrees>
              <LongitudeDegrees>-2.01139868237078189849853515625</LongitudeDegrees>
            </Position>
            <AltitudeMeters>91.8000030517578125</AltitudeMeters>
            <DistanceMeters>NAN</DistanceMeters>
          </Trackpoint>
          <Trackpoint>
            <Time>2021-08-13T08:54:11.000Z</Time>
            <Position>
              <LatitudeDegrees>43.208780251443386077880859375</LatitudeDegrees>
              <LongitudeDegrees>-2.01137471012771129608154296875</LongitudeDegrees>
            </Position>
            <AltitudeMeters>91.8000030517578125</AltitudeMeters>
            <DistanceMeters>NAN</DistanceMeters>
          </Trackpoint>
          <Trackpoint>
            <Time>2021-08-13T08:54:12.000Z</Time>
            <Position>
              <LatitudeDegrees>43.20876407437026500701904296875</LatitudeDegrees>
              <LongitudeDegrees>-2.011352665722370147705078125</LongitudeDegrees>
            </Position>
            <AltitudeMeters>91.8000030517578125</AltitudeMeters>
            <DistanceMeters>NAN</DistanceMeters>
          </Trackpoint>
          <Trackpoint>
            <Time>2021-08-13T08:54:13.000Z</Time>
            <Position>
              <LatitudeDegrees>43.20874613709747791290283203125</LatitudeDegrees>
              <LongitudeDegrees>-2.01132676564157009124755859375</LongitudeDegrees>
            </Position>
            <AltitudeMeters>91.8000030517578125</AltitudeMeters>
            <DistanceMeters>NAN</DistanceMeters>
          </Trackpoint>
          <Trackpoint>
            <Time>2021-08-13T08:54:15.000Z</Time>
            <Position>
              <LatitudeDegrees>43.20871680043637752532958984375</LatitudeDegrees>
              <LongitudeDegrees>-2.01125778257846832275390625</LongitudeDegrees>
            </Position>
            <AltitudeMeters>91.8000030517578125</AltitudeMeters>
            <DistanceMeters>NAN</DistanceMeters>
          </Trackpoint>
          <Trackpoint>
            <Time>2021-08-13T08:54:17.000Z</Time>
            <Position>
              <LatitudeDegrees>43.208692073822021484375</LatitudeDegrees>
              <LongitudeDegrees>-2.01118745841085910797119140625</LongitudeDegrees>
            </Position>
            <AltitudeMeters>92</AltitudeMeters>
            <DistanceMeters>NAN</DistanceMeters>
          </Trackpoint>
          <Trackpoint>
            <Time>2021-08-13T08:54:18.000Z</Time>
            <Position>
              <LatitudeDegrees>43.20867665112018585205078125</LatitudeDegrees>
              <LongitudeDegrees>-2.011162228882312774658203125</LongitudeDegrees>
            </Position>
            <AltitudeMeters>92</AltitudeMeters>
            <DistanceMeters>NAN</DistanceMeters>
          </Trackpoint>
          <Trackpoint>
            <Time>2021-08-13T08:54:19.000Z</Time>
            <Position>
              <LatitudeDegrees>43.20865242742002010345458984375</LatitudeDegrees>
              <LongitudeDegrees>-2.0111385919153690338134765625</LongitudeDegrees>
            </Position>
            <AltitudeMeters>92</AltitudeMeters>
            <DistanceMeters>NAN</DistanceMeters>
          </Trackpoint>
          <Trackpoint>
            <Time>2021-08-13T08:54:20.000Z</Time>
            <Position>
              <LatitudeDegrees>43.208629377186298370361328125</LatitudeDegrees>
              <LongitudeDegrees>-2.01111319474875926971435546875</LongitudeDegrees>
            </Position>
            <AltitudeMeters>92</AltitudeMeters>
            <DistanceMeters>NAN</DistanceMeters>
          </Trackpoint>
          <Trackpoint>
            <Time>2021-08-13T08:54:21.000Z</Time>
            <Position>
              <LatitudeDegrees>43.20860884152352809906005859375</LatitudeDegrees>
              <LongitudeDegrees>-2.01108318753540515899658203125</LongitudeDegrees>
            </Position>
            <AltitudeMeters>92</AltitudeMeters>
            <DistanceMeters>NAN</DistanceMeters>
          </Trackpoint>
          <Trackpoint>
            <Time>2021-08-13T08:54:24.000Z</Time>
            <Position>
              <LatitudeDegrees>43.20853994227945804595947265625</LatitudeDegrees>
              <LongitudeDegrees>-2.0110085047781467437744140625</LongitudeDegrees>
            </Position>
            <AltitudeMeters>92.1999969482421875</AltitudeMeters>
            <DistanceMeters>NAN</DistanceMeters>
          </Trackpoint>
          <Trackpoint>
            <Time>2021-08-13T08:54:26.000Z</Time>
            <Position>
              <LatitudeDegrees>43.20849199779331684112548828125</LatitudeDegrees>
              <LongitudeDegrees>-2.0109679363667964935302734375</LongitudeDegrees>
            </Position>
            <AltitudeMeters>92.40000152587890625</AltitudeMeters>
            <DistanceMeters>NAN</DistanceMeters>
          </Trackpoint>
          <Trackpoint>
            <Time>2021-08-13T08:54:32.000Z</Time>
            <Position>
              <LatitudeDegrees>43.2083438895642757415771484375</LatitudeDegrees>
              <LongitudeDegrees>-2.01082904823124408721923828125</LongitudeDegrees>
            </Position>
            <AltitudeMeters>92.59999847412109375</AltitudeMeters>
            <DistanceMeters>NAN</DistanceMeters>
          </Trackpoint>
          <Trackpoint>
            <Time>2021-08-13T08:54:33.000Z</Time>
            <Position>
              <LatitudeDegrees>43.20831765420734882354736328125</LatitudeDegrees>
              <LongitudeDegrees>-2.01079753227531909942626953125</LongitudeDegrees>
            </Position>
            <AltitudeMeters>92.59999847412109375</AltitudeMeters>
            <DistanceMeters>NAN</DistanceMeters>
          </Trackpoint>
          <Trackpoint>
            <Time>2021-08-13T08:54:40.000Z</Time>
            <Position>
              <LatitudeDegrees>43.2081283070147037506103515625</LatitudeDegrees>
              <LongitudeDegrees>-2.01059469021856784820556640625</LongitudeDegrees>
            </Position>
            <AltitudeMeters>93.1999969482421875</AltitudeMeters>
            <DistanceMeters>NAN</DistanceMeters>
          </Trackpoint>
          <Trackpoint>
            <Time>2021-08-13T08:54:43.000Z</Time>
            <Position>
              <LatitudeDegrees>43.20807323791086673736572265625</LatitudeDegrees>
              <LongitudeDegrees>-2.01051506213843822479248046875</LongitudeDegrees>
            </Position>
            <AltitudeMeters>93.40000152587890625</AltitudeMeters>
            <DistanceMeters>NAN</DistanceMeters>
          </Trackpoint>
          <Trackpoint>
            <Time>2021-08-13T08:54:44.000Z</Time>
            <Position>
              <LatitudeDegrees>43.2080632634460926055908203125</LatitudeDegrees>
              <LongitudeDegrees>-2.010486982762813568115234375</LongitudeDegrees>
            </Position>
            <AltitudeMeters>93.1999969482421875</AltitudeMeters>
            <DistanceMeters>NAN</DistanceMeters>
          </Trackpoint>
          <Trackpoint>
            <Time>2021-08-13T08:54:47.000Z</Time>
            <Position>
              <LatitudeDegrees>43.20796377025544643402099609375</LatitudeDegrees>
              <LongitudeDegrees>-2.010352872312068939208984375</LongitudeDegrees>
            </Position>
            <AltitudeMeters>93.40000152587890625</AltitudeMeters>
            <DistanceMeters>NAN</DistanceMeters>
          </Trackpoint>
          <Trackpoint>
            <Time>2021-08-13T08:54:48.000Z</Time>
            <Position>
              <LatitudeDegrees>43.20793761871755123138427734375</LatitudeDegrees>
              <LongitudeDegrees>-2.01033149845898151397705078125</LongitudeDegrees>
            </Position>
            <AltitudeMeters>93.59999847412109375</AltitudeMeters>
            <DistanceMeters>NAN</DistanceMeters>
          </Trackpoint>
          <Trackpoint>
            <Time>2021-08-13T08:54:49.000Z</Time>
            <Position>
              <LatitudeDegrees>43.20791884325444698333740234375</LatitudeDegrees>
              <LongitudeDegrees>-2.0103164948523044586181640625</LongitudeDegrees>
            </Position>
            <AltitudeMeters>93.59999847412109375</AltitudeMeters>
            <DistanceMeters>NAN</DistanceMeters>
          </Trackpoint>
          <Trackpoint>
            <Time>2021-08-13T08:54:50.000Z</Time>
            <Position>
              <LatitudeDegrees>43.2078967988491058349609375</LatitudeDegrees>
              <LongitudeDegrees>-2.0102874934673309326171875</LongitudeDegrees>
            </Position>
            <AltitudeMeters>93.59999847412109375</AltitudeMeters>
            <DistanceMeters>NAN</DistanceMeters>
          </Trackpoint>
          <Trackpoint>
            <Time>2021-08-13T08:54:51.000Z</Time>
            <Position>
              <LatitudeDegrees>43.20787869393825531005859375</LatitudeDegrees>
              <LongitudeDegrees>-2.01025438494980335235595703125</LongitudeDegrees>
            </Position>
            <AltitudeMeters>93.59999847412109375</AltitudeMeters>
            <DistanceMeters>NAN</DistanceMeters>
          </Trackpoint>
          <Trackpoint>
            <Time>2021-08-13T08:54:52.000Z</Time>
            <Position>
              <LatitudeDegrees>43.20785648189485073089599609375</LatitudeDegrees>
              <LongitudeDegrees>-2.010228820145130157470703125</LongitudeDegrees>
            </Position>
            <AltitudeMeters>93.59999847412109375</AltitudeMeters>
            <DistanceMeters>NAN</DistanceMeters>
          </Trackpoint>
          <Trackpoint>
            <Time>2021-08-13T08:54:54.000Z</Time>
            <Position>
              <LatitudeDegrees>43.20779177360236644744873046875</LatitudeDegrees>
              <LongitudeDegrees>-2.010179869830608367919921875</LongitudeDegrees>
            </Position>
            <AltitudeMeters>93.8000030517578125</AltitudeMeters>
            <DistanceMeters>NAN</DistanceMeters>
          </Trackpoint>
          <Trackpoint>
            <Time>2021-08-13T08:54:55.000Z</Time>
            <Position>
              <LatitudeDegrees>43.207761682569980621337890625</LatitudeDegrees>
              <LongitudeDegrees>-2.01015648432075977325439453125</LongitudeDegrees>
            </Position>
            <AltitudeMeters>93.8000030517578125</AltitudeMeters>
            <DistanceMeters>NAN</DistanceMeters>
          </Trackpoint>
          <Trackpoint>
            <Time>2021-08-13T08:54:58.000Z</Time>
            <Position>
              <LatitudeDegrees>43.207686580717563629150390625</LatitudeDegrees>
              <LongitudeDegrees>-2.010087333619594573974609375</LongitudeDegrees>
            </Position>
            <AltitudeMeters>93.8000030517578125</AltitudeMeters>
            <DistanceMeters>NAN</DistanceMeters>
          </Trackpoint>
          <Trackpoint>
            <Time>2021-08-13T08:55:02.000Z</Time>
            <Position>
              <LatitudeDegrees>43.20761860348284244537353515625</LatitudeDegrees>
              <LongitudeDegrees>-2.0100013352930545806884765625</LongitudeDegrees>
            </Position>
            <AltitudeMeters>94</AltitudeMeters>
            <DistanceMeters>NAN</DistanceMeters>
          </Trackpoint>
          <Trackpoint>
            <Time>2021-08-13T08:55:03.000Z</Time>
            <Position>
              <LatitudeDegrees>43.20759764872491359710693359375</LatitudeDegrees>
              <LongitudeDegrees>-2.0099817216396331787109375</LongitudeDegrees>
            </Position>
            <AltitudeMeters>94</AltitudeMeters>
            <DistanceMeters>NAN</DistanceMeters>
          </Trackpoint>
          <Trackpoint>
            <Time>2021-08-13T08:55:04.000Z</Time>
            <Position>
              <LatitudeDegrees>43.2075776159763336181640625</LatitudeDegrees>
              <LongitudeDegrees>-2.00996302999556064605712890625</LongitudeDegrees>
            </Position>
            <AltitudeMeters>94</AltitudeMeters>
            <DistanceMeters>NAN</DistanceMeters>
          </Trackpoint>
          <Trackpoint>
            <Time>2021-08-13T08:55:05.000Z</Time>
            <Position>
              <LatitudeDegrees>43.2075546495616436004638671875</LatitudeDegrees>
              <LongitudeDegrees>-2.009939141571521759033203125</LongitudeDegrees>
            </Position>
            <AltitudeMeters>94</AltitudeMeters>
            <DistanceMeters>NAN</DistanceMeters>
          </Trackpoint>
          <Trackpoint>
            <Time>2021-08-13T08:55:06.000Z</Time>
            <Position>
              <LatitudeDegrees>43.20753268897533416748046875</LatitudeDegrees>
              <LongitudeDegrees>-2.009910643100738525390625</LongitudeDegrees>
            </Position>
            <AltitudeMeters>94</AltitudeMeters>
            <DistanceMeters>NAN</DistanceMeters>
          </Trackpoint>
          <Trackpoint>
            <Time>2021-08-13T08:55:07.000Z</Time>
            <Position>
              <LatitudeDegrees>43.20751148276031017303466796875</LatitudeDegrees>
              <LongitudeDegrees>-2.00988306663930416107177734375</LongitudeDegrees>
            </Position>
            <AltitudeMeters>94.1999969482421875</AltitudeMeters>
            <DistanceMeters>NAN</DistanceMeters>
          </Trackpoint>
          <Trackpoint>
            <Time>2021-08-13T08:55:08.000Z</Time>
            <Position>
              <LatitudeDegrees>43.2074872590601444244384765625</LatitudeDegrees>
              <LongitudeDegrees>-2.009853310883045196533203125</LongitudeDegrees>
            </Position>
            <AltitudeMeters>94.1999969482421875</AltitudeMeters>
            <DistanceMeters>NAN</DistanceMeters>
          </Trackpoint>
          <Trackpoint>
            <Time>2021-08-13T08:55:11.000Z</Time>
            <Position>
              <LatitudeDegrees>43.20740888826549053192138671875</LatitudeDegrees>
              <LongitudeDegrees>-2.00978131033480167388916015625</LongitudeDegrees>
            </Position>
            <AltitudeMeters>94.40000152587890625</AltitudeMeters>
            <DistanceMeters>NAN</DistanceMeters>
          </Trackpoint>
          <Trackpoint>
            <Time>2021-08-13T08:55:16.000Z</Time>
            <Position>
              <LatitudeDegrees>43.2072763703763484954833984375</LatitudeDegrees>
              <LongitudeDegrees>-2.0096238143742084503173828125</LongitudeDegrees>
            </Position>
            <AltitudeMeters>94.59999847412109375</AltitudeMeters>
            <DistanceMeters>NAN</DistanceMeters>
          </Trackpoint>
          <Trackpoint>
            <Time>2021-08-13T08:55:17.000Z</Time>
            <Position>
              <LatitudeDegrees>43.20725063793361186981201171875</LatitudeDegrees>
              <LongitudeDegrees>-2.00959372334182262420654296875</LongitudeDegrees>
            </Position>
            <AltitudeMeters>94.59999847412109375</AltitudeMeters>
            <DistanceMeters>NAN</DistanceMeters>
          </Trackpoint>
          <Trackpoint>
            <Time>2021-08-13T08:55:19.000Z</Time>
            <Position>
              <LatitudeDegrees>43.2072032801806926727294921875</LatitudeDegrees>
              <LongitudeDegrees>-2.00953991152346134185791015625</LongitudeDegrees>
            </Position>
            <AltitudeMeters>94.59999847412109375</AltitudeMeters>
            <DistanceMeters>NAN</DistanceMeters>
          </Trackpoint>
          <Trackpoint>
            <Time>2021-08-13T08:55:21.000Z</Time>
            <Position>
              <LatitudeDegrees>43.2071479596197605133056640625</LatitudeDegrees>
              <LongitudeDegrees>-2.0094801485538482666015625</LongitudeDegrees>
            </Position>
            <AltitudeMeters>94.59999847412109375</AltitudeMeters>
            <DistanceMeters>NAN</DistanceMeters>
          </Trackpoint>
          <Trackpoint>
            <Time>2021-08-13T08:55:22.000Z</Time>
            <Position>
              <LatitudeDegrees>43.20712809450924396514892578125</LatitudeDegrees>
              <LongitudeDegrees>-2.00943999923765659332275390625</LongitudeDegrees>
            </Position>
            <AltitudeMeters>94.8000030517578125</AltitudeMeters>
            <DistanceMeters>NAN</DistanceMeters>
          </Trackpoint>
          <Trackpoint>
            <Time>2021-08-13T08:55:23.000Z</Time>
            <Position>
              <LatitudeDegrees>43.20711669512093067169189453125</LatitudeDegrees>
              <LongitudeDegrees>-2.009403370320796966552734375</LongitudeDegrees>
            </Position>
            <AltitudeMeters>94.8000030517578125</AltitudeMeters>
            <DistanceMeters>NAN</DistanceMeters>
          </Trackpoint>
          <Trackpoint>
            <Time>2021-08-13T08:55:24.000Z</Time>
            <Position>
              <LatitudeDegrees>43.20709942840039730072021484375</LatitudeDegrees>
              <LongitudeDegrees>-2.00936757959425449371337890625</LongitudeDegrees>
            </Position>
            <AltitudeMeters>94.8000030517578125</AltitudeMeters>
            <DistanceMeters>NAN</DistanceMeters>
          </Trackpoint>
          <Trackpoint>
            <Time>2021-08-13T08:55:25.000Z</Time>
            <Position>
              <LatitudeDegrees>43.207082413136959075927734375</LatitudeDegrees>
              <LongitudeDegrees>-2.009333632886409759521484375</LongitudeDegrees>
            </Position>
            <AltitudeMeters>94.8000030517578125</AltitudeMeters>
            <DistanceMeters>NAN</DistanceMeters>
          </Trackpoint>
          <Trackpoint>
            <Time>2021-08-13T08:55:26.000Z</Time>
            <Position>
              <LatitudeDegrees>43.20705081336200237274169921875</LatitudeDegrees>
              <LongitudeDegrees>-2.0092949084937572479248046875</LongitudeDegrees>
            </Position>
            <AltitudeMeters>94.8000030517578125</AltitudeMeters>
            <DistanceMeters>NAN</DistanceMeters>
          </Trackpoint>
          <Trackpoint>
            <Time>2021-08-13T08:55:27.000Z</Time>
            <Position>
              <LatitudeDegrees>43.20702231489121913909912109375</LatitudeDegrees>
              <LongitudeDegrees>-2.0092657394707202911376953125</LongitudeDegrees>
            </Position>
            <AltitudeMeters>95</AltitudeMeters>
            <DistanceMeters>NAN</DistanceMeters>
          </Trackpoint>
          <Trackpoint>
            <Time>2021-08-13T08:55:28.000Z</Time>
            <Position>
              <LatitudeDegrees>43.20699415169656276702880859375</LatitudeDegrees>
              <LongitudeDegrees>-2.00923397205770015716552734375</LongitudeDegrees>
            </Position>
            <AltitudeMeters>95</AltitudeMeters>
            <DistanceMeters>NAN</DistanceMeters>
          </Trackpoint>
          <Trackpoint>
            <Time>2021-08-13T08:55:30.000Z</Time>
            <Position>
              <LatitudeDegrees>43.2069424353539943695068359375</LatitudeDegrees>
              <LongitudeDegrees>-2.0091762207448482513427734375</LongitudeDegrees>
            </Position>
            <AltitudeMeters>95.1999969482421875</AltitudeMeters>
            <DistanceMeters>NAN</DistanceMeters>
          </Trackpoint>
          <Trackpoint>
            <Time>2021-08-13T08:55:31.000Z</Time>
            <Position>
              <LatitudeDegrees>43.20690915919840335845947265625</LatitudeDegrees>
              <LongitudeDegrees>-2.009132802486419677734375</LongitudeDegrees>
            </Position>
            <AltitudeMeters>95.1999969482421875</AltitudeMeters>
            <DistanceMeters>NAN</DistanceMeters>
          </Trackpoint>
          <Trackpoint>
            <Time>2021-08-13T08:55:35.000Z</Time>
            <Position>
              <LatitudeDegrees>43.20677630603313446044921875</LatitudeDegrees>
              <LongitudeDegrees>-2.0089998655021190643310546875</LongitudeDegrees>
            </Position>
            <AltitudeMeters>95.1999969482421875</AltitudeMeters>
            <DistanceMeters>NAN</DistanceMeters>
          </Trackpoint>
          <Trackpoint>
            <Time>2021-08-13T08:55:36.000Z</Time>
            <Position>
              <LatitudeDegrees>43.2067536748945713043212890625</LatitudeDegrees>
              <LongitudeDegrees>-2.00896524824202060699462890625</LongitudeDegrees>
            </Position>
            <AltitudeMeters>95.1999969482421875</AltitudeMeters>
            <DistanceMeters>NAN</DistanceMeters>
          </Trackpoint>
          <Trackpoint>
            <Time>2021-08-13T08:55:37.000Z</Time>
            <Position>
              <LatitudeDegrees>43.20672911591827869415283203125</LatitudeDegrees>
              <LongitudeDegrees>-2.00893272645771503448486328125</LongitudeDegrees>
            </Position>
            <AltitudeMeters>95.1999969482421875</AltitudeMeters>
            <DistanceMeters>NAN</DistanceMeters>
          </Trackpoint>
          <Trackpoint>
            <Time>2021-08-13T08:55:38.000Z</Time>
            <Position>
              <LatitudeDegrees>43.20670933462679386138916015625</LatitudeDegrees>
              <LongitudeDegrees>-2.00890406034886837005615234375</LongitudeDegrees>
            </Position>
            <AltitudeMeters>95.1999969482421875</AltitudeMeters>
            <DistanceMeters>NAN</DistanceMeters>
          </Trackpoint>
          <Trackpoint>
            <Time>2021-08-13T08:55:41.000Z</Time>
            <Position>
              <LatitudeDegrees>43.206639848649501800537109375</LatitudeDegrees>
              <LongitudeDegrees>-2.00882543809711933135986328125</LongitudeDegrees>
            </Position>
            <AltitudeMeters>95.1999969482421875</AltitudeMeters>
            <DistanceMeters>NAN</DistanceMeters>
          </Trackpoint>
          <Trackpoint>
            <Time>2021-08-13T08:55:42.000Z</Time>
            <Position>
              <LatitudeDegrees>43.20661629550158977508544921875</LatitudeDegrees>
              <LongitudeDegrees>-2.00880163349211215972900390625</LongitudeDegrees>
            </Position>
            <AltitudeMeters>95.1999969482421875</AltitudeMeters>
            <DistanceMeters>NAN</DistanceMeters>
          </Trackpoint>
          <Trackpoint>
            <Time>2021-08-13T08:55:43.000Z</Time>
            <Position>
              <LatitudeDegrees>43.20659634657204151153564453125</LatitudeDegrees>
              <LongitudeDegrees>-2.00878017581999301910400390625</LongitudeDegrees>
            </Position>
            <AltitudeMeters>95.1999969482421875</AltitudeMeters>
            <DistanceMeters>NAN</DistanceMeters>
          </Trackpoint>
          <Trackpoint>
            <Time>2021-08-13T08:55:44.000Z</Time>
            <Position>
              <LatitudeDegrees>43.20657840929925441741943359375</LatitudeDegrees>
              <LongitudeDegrees>-2.0087624900043010711669921875</LongitudeDegrees>
            </Position>
            <AltitudeMeters>95.1999969482421875</AltitudeMeters>
            <DistanceMeters>NAN</DistanceMeters>
          </Trackpoint>
          <Trackpoint>
            <Time>2021-08-13T08:55:45.000Z</Time>
            <Position>
              <LatitudeDegrees>43.206563405692577362060546875</LatitudeDegrees>
              <LongitudeDegrees>-2.00874614529311656951904296875</LongitudeDegrees>
            </Position>
            <AltitudeMeters>95.1999969482421875</AltitudeMeters>
            <DistanceMeters>NAN</DistanceMeters>
          </Trackpoint>
          <Trackpoint>
            <Time>2021-08-13T08:55:46.000Z</Time>
            <Position>
              <LatitudeDegrees>43.20654991082847118377685546875</LatitudeDegrees>
              <LongitudeDegrees>-2.0087282918393611907958984375</LongitudeDegrees>
            </Position>
            <AltitudeMeters>95.1999969482421875</AltitudeMeters>
            <DistanceMeters>NAN</DistanceMeters>
          </Trackpoint>
          <Trackpoint>
            <Time>2021-08-13T08:55:47.000Z</Time>
            <Position>
              <LatitudeDegrees>43.20653817616403102874755859375</LatitudeDegrees>
              <LongitudeDegrees>-2.00871194712817668914794921875</LongitudeDegrees>
            </Position>
            <AltitudeMeters>95.1999969482421875</AltitudeMeters>
            <DistanceMeters>NAN</DistanceMeters>
          </Trackpoint>
          <Trackpoint>
            <Time>2021-08-13T08:55:48.000Z</Time>
            <Position>
              <LatitudeDegrees>43.2065297104418277740478515625</LatitudeDegrees>
              <LongitudeDegrees>-2.008702643215656280517578125</LongitudeDegrees>
            </Position>
            <AltitudeMeters>95.1999969482421875</AltitudeMeters>
            <DistanceMeters>NAN</DistanceMeters>
          </Trackpoint>
          <Trackpoint>
            <Time>2021-08-13T08:55:49.000Z</Time>
            <Position>
              <LatitudeDegrees>43.20652359165251255035400390625</LatitudeDegrees>
              <LongitudeDegrees>-2.00869920663535594940185546875</LongitudeDegrees>
            </Position>
            <AltitudeMeters>95.1999969482421875</AltitudeMeters>
            <DistanceMeters>NAN</DistanceMeters>
          </Trackpoint>
          <Trackpoint>
            <Time>2021-08-13T08:55:50.000Z</Time>
            <Position>
              <LatitudeDegrees>43.20652359165251255035400390625</LatitudeDegrees>
              <LongitudeDegrees>-2.00869920663535594940185546875</LongitudeDegrees>
            </Position>
            <AltitudeMeters>95.1999969482421875</AltitudeMeters>
            <DistanceMeters>NAN</DistanceMeters>
          </Trackpoint>
          <Trackpoint>
            <Time>2021-08-13T08:55:58.000Z</Time>
            <Position>
              <LatitudeDegrees>43.20652359165251255035400390625</LatitudeDegrees>
              <LongitudeDegrees>-2.00869920663535594940185546875</LongitudeDegrees>
            </Position>
            <AltitudeMeters>95</AltitudeMeters>
            <DistanceMeters>NAN</DistanceMeters>
          </Trackpoint>
          <Trackpoint>
            <Time>2021-08-13T08:57:10.000Z</Time>
            <Position>
              <LatitudeDegrees>43.20652359165251255035400390625</LatitudeDegrees>
              <LongitudeDegrees>-2.008696608245372772216796875</LongitudeDegrees>
            </Position>
            <AltitudeMeters>95.1999969482421875</AltitudeMeters>
            <DistanceMeters>NAN</DistanceMeters>
          </Trackpoint>
          <Trackpoint>
            <Time>2021-08-13T08:57:13.000Z</Time>
            <Position>
              <LatitudeDegrees>43.20648528635501861572265625</LatitudeDegrees>
              <LongitudeDegrees>-2.0086620748043060302734375</LongitudeDegrees>
            </Position>
            <AltitudeMeters>95.1999969482421875</AltitudeMeters>
            <DistanceMeters>NAN</DistanceMeters>
          </Trackpoint>
          <Trackpoint>
            <Time>2021-08-13T08:57:15.000Z</Time>
            <Position>
              <LatitudeDegrees>43.2064633257687091827392578125</LatitudeDegrees>
              <LongitudeDegrees>-2.00863667763769626617431640625</LongitudeDegrees>
            </Position>
            <AltitudeMeters>95.1999969482421875</AltitudeMeters>
            <DistanceMeters>NAN</DistanceMeters>
          </Trackpoint>
          <Trackpoint>
            <Time>2021-08-13T08:57:16.000Z</Time>
            <Position>
              <LatitudeDegrees>43.20645318366587162017822265625</LatitudeDegrees>
              <LongitudeDegrees>-2.00862628407776355743408203125</LongitudeDegrees>
            </Position>
            <AltitudeMeters>95.1999969482421875</AltitudeMeters>
            <DistanceMeters>NAN</DistanceMeters>
          </Trackpoint>
          <Trackpoint>
            <Time>2021-08-13T08:57:17.000Z</Time>
            <Position>
              <LatitudeDegrees>43.20644505321979522705078125</LatitudeDegrees>
              <LongitudeDegrees>-2.008616141974925994873046875</LongitudeDegrees>
            </Position>
            <AltitudeMeters>95.1999969482421875</AltitudeMeters>
            <DistanceMeters>NAN</DistanceMeters>
          </Trackpoint>
          <Trackpoint>
            <Time>2021-08-13T08:57:18.000Z</Time>
            <Position>
              <LatitudeDegrees>43.2064358331263065338134765625</LatitudeDegrees>
              <LongitudeDegrees>-2.0086069218814373016357421875</LongitudeDegrees>
            </Position>
            <AltitudeMeters>95.1999969482421875</AltitudeMeters>
            <DistanceMeters>NAN</DistanceMeters>
          </Trackpoint>
          <Trackpoint>
            <Time>2021-08-13T08:57:20.000Z</Time>
            <Position>
              <LatitudeDegrees>43.2064324803650379180908203125</LatitudeDegrees>
              <LongitudeDegrees>-2.00860180892050266265869140625</LongitudeDegrees>
            </Position>
            <AltitudeMeters>95.1999969482421875</AltitudeMeters>
            <DistanceMeters>NAN</DistanceMeters>
          </Trackpoint>
          <Trackpoint>
            <Time>2021-08-13T08:57:39.000Z</Time>
            <Position>
              <LatitudeDegrees>43.206431306898593902587890625</LatitudeDegrees>
              <LongitudeDegrees>-2.00860046781599521636962890625</LongitudeDegrees>
            </Position>
            <AltitudeMeters>95.1999969482421875</AltitudeMeters>
            <DistanceMeters>NAN</DistanceMeters>
          </Trackpoint>
          <Trackpoint>
            <Time>2021-08-13T08:57:40.000Z</Time>
            <Position>
              <LatitudeDegrees>43.20642082951962947845458984375</LatitudeDegrees>
              <LongitudeDegrees>-2.008583955466747283935546875</LongitudeDegrees>
            </Position>
            <AltitudeMeters>95.1999969482421875</AltitudeMeters>
            <DistanceMeters>NAN</DistanceMeters>
          </Trackpoint>
          <Trackpoint>
            <Time>2021-08-13T08:57:41.000Z</Time>
            <Position>
              <LatitudeDegrees>43.20640750229358673095703125</LatitudeDegrees>
              <LongitudeDegrees>-2.00856526382267475128173828125</LongitudeDegrees>
            </Position>
            <AltitudeMeters>95</AltitudeMeters>
            <DistanceMeters>NAN</DistanceMeters>
          </Trackpoint>
          <Trackpoint>
            <Time>2021-08-13T08:57:42.000Z</Time>
            <Position>
              <LatitudeDegrees>43.20639031939208507537841796875</LatitudeDegrees>
              <LongitudeDegrees>-2.00854430906474590301513671875</LongitudeDegrees>
            </Position>
            <AltitudeMeters>95.1999969482421875</AltitudeMeters>
            <DistanceMeters>NAN</DistanceMeters>
          </Trackpoint>
          <Trackpoint>
            <Time>2021-08-13T08:57:48.000Z</Time>
            <Position>
              <LatitudeDegrees>43.2062598131597042083740234375</LatitudeDegrees>
              <LongitudeDegrees>-2.0084024034440517425537109375</LongitudeDegrees>
            </Position>
            <AltitudeMeters>95.1999969482421875</AltitudeMeters>
            <DistanceMeters>NAN</DistanceMeters>
          </Trackpoint>
          <Trackpoint>
            <Time>2021-08-13T08:57:49.000Z</Time>
            <Position>
              <LatitudeDegrees>43.206237517297267913818359375</LatitudeDegrees>
              <LongitudeDegrees>-2.00838019140064716339111328125</LongitudeDegrees>
            </Position>
            <AltitudeMeters>95.1999969482421875</AltitudeMeters>
            <DistanceMeters>NAN</DistanceMeters>
          </Trackpoint>
          <Trackpoint>
            <Time>2021-08-13T08:57:53.000Z</Time>
            <Position>
              <LatitudeDegrees>43.206142969429492950439453125</LatitudeDegrees>
              <LongitudeDegrees>-2.00828162021934986114501953125</LongitudeDegrees>
            </Position>
            <AltitudeMeters>95.1999969482421875</AltitudeMeters>
            <DistanceMeters>NAN</DistanceMeters>
          </Trackpoint>
          <Trackpoint>
            <Time>2021-08-13T08:57:57.000Z</Time>
            <Position>
              <LatitudeDegrees>43.20603341795504093170166015625</LatitudeDegrees>
              <LongitudeDegrees>-2.0081844739615917205810546875</LongitudeDegrees>
            </Position>
            <AltitudeMeters>95.1999969482421875</AltitudeMeters>
            <DistanceMeters>NAN</DistanceMeters>
          </Trackpoint>
          <Trackpoint>
            <Time>2021-08-13T08:58:00.000Z</Time>
            <Position>
              <LatitudeDegrees>43.20595663972198963165283203125</LatitudeDegrees>
              <LongitudeDegrees>-2.00814197771251201629638671875</LongitudeDegrees>
            </Position>
            <AltitudeMeters>95.1999969482421875</AltitudeMeters>
            <DistanceMeters>NAN</DistanceMeters>
          </Trackpoint>
          <Trackpoint>
            <Time>2021-08-13T08:58:02.000Z</Time>
            <Position>
              <LatitudeDegrees>43.20591758005321025848388671875</LatitudeDegrees>
              <LongitudeDegrees>-2.00813124887645244598388671875</LongitudeDegrees>
            </Position>
            <AltitudeMeters>95.1999969482421875</AltitudeMeters>
            <DistanceMeters>NAN</DistanceMeters>
          </Trackpoint>
          <Trackpoint>
            <Time>2021-08-13T08:58:03.000Z</Time>
            <Position>
              <LatitudeDegrees>43.20590433664619922637939453125</LatitudeDegrees>
              <LongitudeDegrees>-2.00812764465808868408203125</LongitudeDegrees>
            </Position>
            <AltitudeMeters>95.40000152587890625</AltitudeMeters>
            <DistanceMeters>NAN</DistanceMeters>
          </Trackpoint>
          <Trackpoint>
            <Time>2021-08-13T08:58:04.000Z</Time>
            <Position>
              <LatitudeDegrees>43.20589427836239337921142578125</LatitudeDegrees>
              <LongitudeDegrees>-2.00812504626810550689697265625</LongitudeDegrees>
            </Position>
            <AltitudeMeters>95.40000152587890625</AltitudeMeters>
            <DistanceMeters>NAN</DistanceMeters>
          </Trackpoint>
          <Trackpoint>
            <Time>2021-08-13T08:58:05.000Z</Time>
            <Position>
              <LatitudeDegrees>43.20588103495538234710693359375</LatitudeDegrees>
              <LongitudeDegrees>-2.00811951421201229095458984375</LongitudeDegrees>
            </Position>
            <AltitudeMeters>95.59999847412109375</AltitudeMeters>
            <DistanceMeters>NAN</DistanceMeters>
          </Trackpoint>
          <Trackpoint>
            <Time>2021-08-13T08:58:06.000Z</Time>
            <Position>
              <LatitudeDegrees>43.2058675400912761688232421875</LatitudeDegrees>
              <LongitudeDegrees>-2.00811850838363170623779296875</LongitudeDegrees>
            </Position>
            <AltitudeMeters>95.59999847412109375</AltitudeMeters>
            <DistanceMeters>NAN</DistanceMeters>
          </Trackpoint>
          <Trackpoint>
            <Time>2021-08-13T08:58:08.000Z</Time>
            <Position>
              <LatitudeDegrees>43.20584155619144439697265625</LatitudeDegrees>
              <LongitudeDegrees>-2.0081157423555850982666015625</LongitudeDegrees>
            </Position>
            <AltitudeMeters>95.8000030517578125</AltitudeMeters>
            <DistanceMeters>NAN</DistanceMeters>
          </Trackpoint>
          <Trackpoint>
            <Time>2021-08-13T08:58:09.000Z</Time>
            <Position>
              <LatitudeDegrees>43.20582412183284759521484375</LatitudeDegrees>
              <LongitudeDegrees>-2.0081120543181896209716796875</LongitudeDegrees>
            </Position>
            <AltitudeMeters>95.8000030517578125</AltitudeMeters>
            <DistanceMeters>NAN</DistanceMeters>
          </Trackpoint>
          <Trackpoint>
            <Time>2021-08-13T08:58:10.000Z</Time>
            <Position>
              <LatitudeDegrees>43.20580107159912586212158203125</LatitudeDegrees>
              <LongitudeDegrees>-2.00808866880834102630615234375</LongitudeDegrees>
            </Position>
            <AltitudeMeters>96</AltitudeMeters>
            <DistanceMeters>NAN</DistanceMeters>
          </Trackpoint>
          <Trackpoint>
            <Time>2021-08-13T08:58:11.000Z</Time>
            <Position>
              <LatitudeDegrees>43.205788247287273406982421875</LatitudeDegrees>
              <LongitudeDegrees>-2.008070982992649078369140625</LongitudeDegrees>
            </Position>
            <AltitudeMeters>96</AltitudeMeters>
            <DistanceMeters>NAN</DistanceMeters>
          </Trackpoint>
          <Trackpoint>
            <Time>2021-08-13T08:58:12.000Z</Time>
            <Position>
              <LatitudeDegrees>43.205782212316989898681640625</LatitudeDegrees>
              <LongitudeDegrees>-2.00805782340466976165771484375</LongitudeDegrees>
            </Position>
            <AltitudeMeters>96</AltitudeMeters>
            <DistanceMeters>NAN</DistanceMeters>
          </Trackpoint>
          <Trackpoint>
            <Time>2021-08-13T08:58:13.000Z</Time>
            <Position>
              <LatitudeDegrees>43.20577860809862613677978515625</LatitudeDegrees>
              <LongitudeDegrees>-2.00805522501468658447265625</LongitudeDegrees>
            </Position>
            <AltitudeMeters>96</AltitudeMeters>
            <DistanceMeters>NAN</DistanceMeters>
          </Trackpoint>
          <Trackpoint>
            <Time>2021-08-13T08:59:36.000Z</Time>
            <Position>
              <LatitudeDegrees>43.2031135819852352142333984375</LatitudeDegrees>
              <LongitudeDegrees>-2.00765850953757762908935546875</LongitudeDegrees>
            </Position>
            <AltitudeMeters>102</AltitudeMeters>
            <DistanceMeters>NAN</DistanceMeters>
          </Trackpoint>
          <Trackpoint>
            <Time>2021-08-13T08:59:38.000Z</Time>
            <Position>
              <LatitudeDegrees>43.20305197499692440032958984375</LatitudeDegrees>
              <LongitudeDegrees>-2.0077660493552684783935546875</LongitudeDegrees>
            </Position>
            <AltitudeMeters>102</AltitudeMeters>
            <DistanceMeters>NAN</DistanceMeters>
          </Trackpoint>
          <Trackpoint>
            <Time>2021-08-13T08:59:39.000Z</Time>
            <Position>
              <LatitudeDegrees>43.20306354202330112457275390625</LatitudeDegrees>
              <LongitudeDegrees>-2.00775942765176296234130859375</LongitudeDegrees>
            </Position>
            <AltitudeMeters>102</AltitudeMeters>
            <DistanceMeters>NAN</DistanceMeters>
          </Trackpoint>
          <Trackpoint>
            <Time>2021-08-13T08:59:40.000Z</Time>
            <Position>
              <LatitudeDegrees>43.20302255451679229736328125</LatitudeDegrees>
              <LongitudeDegrees>-2.00776956975460052490234375</LongitudeDegrees>
            </Position>
            <AltitudeMeters>102</AltitudeMeters>
            <DistanceMeters>NAN</DistanceMeters>
          </Trackpoint>
          <Trackpoint>
            <Time>2021-08-13T08:59:41.000Z</Time>
            <Position>
              <LatitudeDegrees>43.2030143402516841888427734375</LatitudeDegrees>
              <LongitudeDegrees>-2.00777987949550151824951171875</LongitudeDegrees>
            </Position>
            <AltitudeMeters>102</AltitudeMeters>
            <DistanceMeters>NAN</DistanceMeters>
          </Trackpoint>
          <Trackpoint>
            <Time>2021-08-13T08:59:42.000Z</Time>
            <Position>
              <LatitudeDegrees>43.20301182568073272705078125</LatitudeDegrees>
              <LongitudeDegrees>-2.0077925361692905426025390625</LongitudeDegrees>
            </Position>
            <AltitudeMeters>102</AltitudeMeters>
            <DistanceMeters>NAN</DistanceMeters>
          </Trackpoint>
          <Trackpoint>
            <Time>2021-08-13T08:59:43.000Z</Time>
            <Position>
              <LatitudeDegrees>43.2030083052814006805419921875</LatitudeDegrees>
              <LongitudeDegrees>-2.0078022591769695281982421875</LongitudeDegrees>
            </Position>
            <AltitudeMeters>101.8000030517578125</AltitudeMeters>
            <DistanceMeters>NAN</DistanceMeters>
          </Trackpoint>
          <Trackpoint>
            <Time>2021-08-13T08:59:44.000Z</Time>
            <Position>
              <LatitudeDegrees>43.20300403051078319549560546875</LatitudeDegrees>
              <LongitudeDegrees>-2.007819525897502899169921875</LongitudeDegrees>
            </Position>
            <AltitudeMeters>101.8000030517578125</AltitudeMeters>
            <DistanceMeters>NAN</DistanceMeters>
          </Trackpoint>
          <Trackpoint>
            <Time>2021-08-13T08:59:45.000Z</Time>
            <Position>
              <LatitudeDegrees>43.202979303896427154541015625</LatitudeDegrees>
              <LongitudeDegrees>-2.0078438334167003631591796875</LongitudeDegrees>
            </Position>
            <AltitudeMeters>101.59999847412109375</AltitudeMeters>
            <DistanceMeters>NAN</DistanceMeters>
          </Trackpoint>
          <Trackpoint>
            <Time>2021-08-13T08:59:46.000Z</Time>
            <Position>
              <LatitudeDegrees>43.20294552482664585113525390625</LatitudeDegrees>
              <LongitudeDegrees>-2.00785514898598194122314453125</LongitudeDegrees>
            </Position>
            <AltitudeMeters>101.59999847412109375</AltitudeMeters>
            <DistanceMeters>NAN</DistanceMeters>
          </Trackpoint>
          <Trackpoint>
            <Time>2021-08-13T08:59:47.000Z</Time>
            <Position>
              <LatitudeDegrees>43.202928006649017333984375</LatitudeDegrees>
              <LongitudeDegrees>-2.007864452898502349853515625</LongitudeDegrees>
            </Position>
            <AltitudeMeters>101.59999847412109375</AltitudeMeters>
            <DistanceMeters>NAN</DistanceMeters>
          </Trackpoint>
          <Trackpoint>
            <Time>2021-08-13T08:59:48.000Z</Time>
            <Position>
              <LatitudeDegrees>43.2029147632420063018798828125</LatitudeDegrees>
              <LongitudeDegrees>-2.0078736729919910430908203125</LongitudeDegrees>
            </Position>
            <AltitudeMeters>101.59999847412109375</AltitudeMeters>
            <DistanceMeters>NAN</DistanceMeters>
          </Trackpoint>
          <Trackpoint>
            <Time>2021-08-13T08:59:49.000Z</Time>
            <Position>
              <LatitudeDegrees>43.2029078900814056396484375</LatitudeDegrees>
              <LongitudeDegrees>-2.0078793726861476898193359375</LongitudeDegrees>
            </Position>
            <AltitudeMeters>101.1999969482421875</AltitudeMeters>
            <DistanceMeters>NAN</DistanceMeters>
          </Trackpoint>
          <Trackpoint>
            <Time>2021-08-13T08:59:50.000Z</Time>
            <Position>
              <LatitudeDegrees>43.2028966583311557769775390625</LatitudeDegrees>
              <LongitudeDegrees>-2.00787979178130626678466796875</LongitudeDegrees>
            </Position>
            <AltitudeMeters>101.1999969482421875</AltitudeMeters>
            <DistanceMeters>NAN</DistanceMeters>
          </Trackpoint>
          <Trackpoint>
            <Time>2021-08-13T08:59:51.000Z</Time>
            <Position>
              <LatitudeDegrees>43.20287578739225864410400390625</LatitudeDegrees>
              <LongitudeDegrees>-2.0078807137906551361083984375</LongitudeDegrees>
            </Position>
            <AltitudeMeters>101.1999969482421875</AltitudeMeters>
            <DistanceMeters>NAN</DistanceMeters>
          </Trackpoint>
          <Trackpoint>
            <Time>2021-08-13T08:59:52.000Z</Time>
            <Position>
              <LatitudeDegrees>43.20286170579493045806884765625</LatitudeDegrees>
              <LongitudeDegrees>-2.007877193391323089599609375</LongitudeDegrees>
            </Position>
            <AltitudeMeters>101.1999969482421875</AltitudeMeters>
            <DistanceMeters>NAN</DistanceMeters>
          </Trackpoint>
          <Trackpoint>
            <Time>2021-08-13T08:59:53.000Z</Time>
            <Position>
              <LatitudeDegrees>43.2028596103191375732421875</LatitudeDegrees>
              <LongitudeDegrees>-2.0078679732978343963623046875</LongitudeDegrees>
            </Position>
            <AltitudeMeters>101.1999969482421875</AltitudeMeters>
            <DistanceMeters>NAN</DistanceMeters>
          </Trackpoint>
          <Trackpoint>
            <Time>2021-08-13T08:59:54.000Z</Time>
            <Position>
              <LatitudeDegrees>43.2028544135391712188720703125</LatitudeDegrees>
              <LongitudeDegrees>-2.007863782346248626708984375</LongitudeDegrees>
            </Position>
            <AltitudeMeters>101.40000152587890625</AltitudeMeters>
            <DistanceMeters>NAN</DistanceMeters>
          </Trackpoint>
          <Trackpoint>
            <Time>2021-08-13T08:59:55.000Z</Time>
            <Position>
              <LatitudeDegrees>43.20283773355185985565185546875</LatitudeDegrees>
              <LongitudeDegrees>-2.0078579150140285491943359375</LongitudeDegrees>
            </Position>
            <AltitudeMeters>101.40000152587890625</AltitudeMeters>
            <DistanceMeters>NAN</DistanceMeters>
          </Trackpoint>
          <Trackpoint>
            <Time>2021-08-13T08:59:56.000Z</Time>
            <Position>
              <LatitudeDegrees>43.202823065221309661865234375</LatitudeDegrees>
              <LongitudeDegrees>-2.0078562386333942413330078125</LongitudeDegrees>
            </Position>
            <AltitudeMeters>101.40000152587890625</AltitudeMeters>
            <DistanceMeters>NAN</DistanceMeters>
          </Trackpoint>
          <Trackpoint>
            <Time>2021-08-13T08:59:57.000Z</Time>
            <Position>
              <LatitudeDegrees>43.2028084807097911834716796875</LatitudeDegrees>
              <LongitudeDegrees>-2.00785112567245960235595703125</LongitudeDegrees>
            </Position>
            <AltitudeMeters>101.40000152587890625</AltitudeMeters>
            <DistanceMeters>NAN</DistanceMeters>
          </Trackpoint>
          <Trackpoint>
            <Time>2021-08-13T08:59:58.000Z</Time>
            <Position>
              <LatitudeDegrees>43.20279599167406558990478515625</LatitudeDegrees>
              <LongitudeDegrees>-2.00784735381603240966796875</LongitudeDegrees>
            </Position>
            <AltitudeMeters>101.40000152587890625</AltitudeMeters>
            <DistanceMeters>NAN</DistanceMeters>
          </Trackpoint>
          <Trackpoint>
            <Time>2021-08-13T08:59:59.000Z</Time>
            <Position>
              <LatitudeDegrees>43.20278693921864032745361328125</LatitudeDegrees>
              <LongitudeDegrees>-2.0078502036631107330322265625</LongitudeDegrees>
            </Position>
            <AltitudeMeters>101.40000152587890625</AltitudeMeters>
            <DistanceMeters>NAN</DistanceMeters>
          </Trackpoint>
          <Trackpoint>
            <Time>2021-08-13T09:00:00.000Z</Time>
            <Position>
              <LatitudeDegrees>43.20277369581162929534912109375</LatitudeDegrees>
              <LongitudeDegrees>-2.0078505389392375946044921875</LongitudeDegrees>
            </Position>
            <AltitudeMeters>101.40000152587890625</AltitudeMeters>
            <DistanceMeters>NAN</DistanceMeters>
          </Trackpoint>
          <Trackpoint>
            <Time>2021-08-13T09:00:01.000Z</Time>
            <Position>
              <LatitudeDegrees>43.2027576863765716552734375</LatitudeDegrees>
              <LongitudeDegrees>-2.0078471861779689788818359375</LongitudeDegrees>
            </Position>
            <AltitudeMeters>101.40000152587890625</AltitudeMeters>
            <DistanceMeters>NAN</DistanceMeters>
          </Trackpoint>
          <Trackpoint>
            <Time>2021-08-13T09:00:02.000Z</Time>
            <Position>
              <LatitudeDegrees>43.20274268276989459991455078125</LatitudeDegrees>
              <LongitudeDegrees>-2.00784374959766864776611328125</LongitudeDegrees>
            </Position>
            <AltitudeMeters>101.40000152587890625</AltitudeMeters>
            <DistanceMeters>NAN</DistanceMeters>
          </Trackpoint>
          <Trackpoint>
            <Time>2021-08-13T09:00:03.000Z</Time>
            <Position>
              <LatitudeDegrees>43.20272524841129779815673828125</LatitudeDegrees>
              <LongitudeDegrees>-2.00784240849316120147705078125</LongitudeDegrees>
            </Position>
            <AltitudeMeters>101.40000152587890625</AltitudeMeters>
            <DistanceMeters>NAN</DistanceMeters>
          </Trackpoint>
          <Trackpoint>
            <Time>2021-08-13T09:00:04.000Z</Time>
            <Position>
              <LatitudeDegrees>43.20271150209009647369384765625</LatitudeDegrees>
              <LongitudeDegrees>-2.00784869492053985595703125</LongitudeDegrees>
            </Position>
            <AltitudeMeters>101.40000152587890625</AltitudeMeters>
            <DistanceMeters>NAN</DistanceMeters>
          </Trackpoint>
          <Trackpoint>
            <Time>2021-08-13T09:00:05.000Z</Time>
            <Position>
              <LatitudeDegrees>43.20270203053951263427734375</LatitudeDegrees>
              <LongitudeDegrees>-2.0078609324991703033447265625</LongitudeDegrees>
            </Position>
            <AltitudeMeters>101.40000152587890625</AltitudeMeters>
            <DistanceMeters>NAN</DistanceMeters>
          </Trackpoint>
          <Trackpoint>
            <Time>2021-08-13T09:00:06.000Z</Time>
            <Position>
              <LatitudeDegrees>43.20269674994051456451416015625</LatitudeDegrees>
              <LongitudeDegrees>-2.00787224806845188140869140625</LongitudeDegrees>
            </Position>
            <AltitudeMeters>101.59999847412109375</AltitudeMeters>
            <DistanceMeters>NAN</DistanceMeters>
          </Trackpoint>
          <Trackpoint>
            <Time>2021-08-13T09:00:07.000Z</Time>
            <Position>
              <LatitudeDegrees>43.20269021205604076385498046875</LatitudeDegrees>
              <LongitudeDegrees>-2.00787778012454509735107421875</LongitudeDegrees>
            </Position>
            <AltitudeMeters>101.59999847412109375</AltitudeMeters>
            <DistanceMeters>NAN</DistanceMeters>
          </Trackpoint>
          <Trackpoint>
            <Time>2021-08-13T09:00:08.000Z</Time>
            <Position>
              <LatitudeDegrees>43.20267713628709316253662109375</LatitudeDegrees>
              <LongitudeDegrees>-2.00788557529449462890625</LongitudeDegrees>
            </Position>
            <AltitudeMeters>101.59999847412109375</AltitudeMeters>
            <DistanceMeters>NAN</DistanceMeters>
          </Trackpoint>
          <Trackpoint>
            <Time>2021-08-13T09:00:09.000Z</Time>
            <Position>
              <LatitudeDegrees>43.202663473784923553466796875</LatitudeDegrees>
              <LongitudeDegrees>-2.0078934542834758758544921875</LongitudeDegrees>
            </Position>
            <AltitudeMeters>101.8000030517578125</AltitudeMeters>
            <DistanceMeters>NAN</DistanceMeters>
          </Trackpoint>
          <Trackpoint>
            <Time>2021-08-13T09:00:10.000Z</Time>
            <Position>
              <LatitudeDegrees>43.2026525773108005523681640625</LatitudeDegrees>
              <LongitudeDegrees>-2.007902003824710845947265625</LongitudeDegrees>
            </Position>
            <AltitudeMeters>101.8000030517578125</AltitudeMeters>
            <DistanceMeters>NAN</DistanceMeters>
          </Trackpoint>
          <Trackpoint>
            <Time>2021-08-13T09:00:12.000Z</Time>
            <Position>
              <LatitudeDegrees>43.20263220928609371185302734375</LatitudeDegrees>
              <LongitudeDegrees>-2.00793452560901641845703125</LongitudeDegrees>
            </Position>
            <AltitudeMeters>101.59999847412109375</AltitudeMeters>
            <DistanceMeters>NAN</DistanceMeters>
          </Trackpoint>
          <Trackpoint>
            <Time>2021-08-13T09:00:13.000Z</Time>
            <Position>
              <LatitudeDegrees>43.20261863060295581817626953125</LatitudeDegrees>
              <LongitudeDegrees>-2.007952630519866943359375</LongitudeDegrees>
            </Position>
            <AltitudeMeters>101.59999847412109375</AltitudeMeters>
            <DistanceMeters>NAN</DistanceMeters>
          </Trackpoint>
          <Trackpoint>
            <Time>2021-08-13T09:00:20.000Z</Time>
            <Position>
              <LatitudeDegrees>43.20252793841063976287841796875</LatitudeDegrees>
              <LongitudeDegrees>-2.00806268490850925445556640625</LongitudeDegrees>
            </Position>
            <AltitudeMeters>102</AltitudeMeters>
            <DistanceMeters>NAN</DistanceMeters>
          </Trackpoint>
          <Trackpoint>
            <Time>2021-08-13T09:00:21.000Z</Time>
            <Position>
              <LatitudeDegrees>43.20252307690680027008056640625</LatitudeDegrees>
              <LongitudeDegrees>-2.0080785267055034637451171875</LongitudeDegrees>
            </Position>
            <AltitudeMeters>102</AltitudeMeters>
            <DistanceMeters>NAN</DistanceMeters>
          </Trackpoint>
          <Trackpoint>
            <Time>2021-08-13T09:00:22.000Z</Time>
            <Position>
              <LatitudeDegrees>43.202517963945865631103515625</LatitudeDegrees>
              <LongitudeDegrees>-2.00809252448379993438720703125</LongitudeDegrees>
            </Position>
            <AltitudeMeters>102</AltitudeMeters>
            <DistanceMeters>NAN</DistanceMeters>
          </Trackpoint>
          <Trackpoint>
            <Time>2021-08-13T09:00:23.000Z</Time>
            <Position>
              <LatitudeDegrees>43.20251234807074069976806640625</LatitudeDegrees>
              <LongitudeDegrees>-2.0081055164337158203125</LongitudeDegrees>
            </Position>
            <AltitudeMeters>102</AltitudeMeters>
            <DistanceMeters>NAN</DistanceMeters>
          </Trackpoint>
          <Trackpoint>
            <Time>2021-08-13T09:00:24.000Z</Time>
            <Position>
              <LatitudeDegrees>43.2025090791285037994384765625</LatitudeDegrees>
              <LongitudeDegrees>-2.00811632908880710601806640625</LongitudeDegrees>
            </Position>
            <AltitudeMeters>102</AltitudeMeters>
            <DistanceMeters>NAN</DistanceMeters>
          </Trackpoint>
          <Trackpoint>
            <Time>2021-08-13T09:00:25.000Z</Time>
            <Position>
              <LatitudeDegrees>43.20250262506306171417236328125</LatitudeDegrees>
              <LongitudeDegrees>-2.008126638829708099365234375</LongitudeDegrees>
            </Position>
            <AltitudeMeters>102</AltitudeMeters>
            <DistanceMeters>NAN</DistanceMeters>
          </Trackpoint>
          <Trackpoint>
            <Time>2021-08-13T09:00:26.000Z</Time>
            <Position>
              <LatitudeDegrees>43.2024862803518772125244140625</LatitudeDegrees>
              <LongitudeDegrees>-2.008150108158588409423828125</LongitudeDegrees>
            </Position>
            <AltitudeMeters>102</AltitudeMeters>
            <DistanceMeters>NAN</DistanceMeters>
          </Trackpoint>
          <Trackpoint>
            <Time>2021-08-13T09:00:28.000Z</Time>
            <Position>
              <LatitudeDegrees>43.20247882045805454254150390625</LatitudeDegrees>
              <LongitudeDegrees>-2.00815689750015735626220703125</LongitudeDegrees>
            </Position>
            <AltitudeMeters>102</AltitudeMeters>
            <DistanceMeters>NAN</DistanceMeters>
          </Trackpoint>
          <Trackpoint>
            <Time>2021-08-13T09:00:29.000Z</Time>
            <Position>
              <LatitudeDegrees>43.202470354735851287841796875</LatitudeDegrees>
              <LongitudeDegrees>-2.00816310010850429534912109375</LongitudeDegrees>
            </Position>
            <AltitudeMeters>102</AltitudeMeters>
            <DistanceMeters>NAN</DistanceMeters>
          </Trackpoint>
          <Trackpoint>
            <Time>2021-08-13T09:00:30.000Z</Time>
            <Position>
              <LatitudeDegrees>43.2024599611759185791015625</LatitudeDegrees>
              <LongitudeDegrees>-2.00817030854523181915283203125</LongitudeDegrees>
            </Position>
            <AltitudeMeters>102</AltitudeMeters>
            <DistanceMeters>NAN</DistanceMeters>
          </Trackpoint>
          <Trackpoint>
            <Time>2021-08-13T09:00:31.000Z</Time>
            <Position>
              <LatitudeDegrees>43.202451579272747039794921875</LatitudeDegrees>
              <LongitudeDegrees>-2.008181624114513397216796875</LongitudeDegrees>
            </Position>
            <AltitudeMeters>102</AltitudeMeters>
            <DistanceMeters>NAN</DistanceMeters>
          </Trackpoint>
          <Trackpoint>
            <Time>2021-08-13T09:00:33.000Z</Time>
            <Position>
              <LatitudeDegrees>43.202436827123165130615234375</LatitudeDegrees>
              <LongitudeDegrees>-2.00820970349013805389404296875</LongitudeDegrees>
            </Position>
            <AltitudeMeters>102</AltitudeMeters>
            <DistanceMeters>NAN</DistanceMeters>
          </Trackpoint>
          <Trackpoint>
            <Time>2021-08-13T09:00:34.000Z</Time>
            <Position>
              <LatitudeDegrees>43.202429115772247314453125</LatitudeDegrees>
              <LongitudeDegrees>-2.0082257129251956939697265625</LongitudeDegrees>
            </Position>
            <AltitudeMeters>102</AltitudeMeters>
            <DistanceMeters>NAN</DistanceMeters>
          </Trackpoint>
          <Trackpoint>
            <Time>2021-08-13T09:00:36.000Z</Time>
            <Position>
              <LatitudeDegrees>43.20241595618426799774169921875</LatitudeDegrees>
              <LongitudeDegrees>-2.00825236737728118896484375</LongitudeDegrees>
            </Position>
            <AltitudeMeters>102</AltitudeMeters>
            <DistanceMeters>NAN</DistanceMeters>
          </Trackpoint>
          <Trackpoint>
            <Time>2021-08-13T09:00:37.000Z</Time>
            <Position>
              <LatitudeDegrees>43.2024115137755870819091796875</LatitudeDegrees>
              <LongitudeDegrees>-2.00826250948011875152587890625</LongitudeDegrees>
            </Position>
            <AltitudeMeters>102</AltitudeMeters>
            <DistanceMeters>NAN</DistanceMeters>
          </Trackpoint>
          <Trackpoint>
            <Time>2021-08-13T09:00:38.000Z</Time>
            <Position>
              <LatitudeDegrees>43.20240405388176441192626953125</LatitudeDegrees>
              <LongitudeDegrees>-2.00827206484973430633544921875</LongitudeDegrees>
            </Position>
            <AltitudeMeters>102</AltitudeMeters>
            <DistanceMeters>NAN</DistanceMeters>
          </Trackpoint>
          <Trackpoint>
            <Time>2021-08-13T09:00:39.000Z</Time>
            <Position>
              <LatitudeDegrees>43.2024001143872737884521484375</LatitudeDegrees>
              <LongitudeDegrees>-2.0082813687622547149658203125</LongitudeDegrees>
            </Position>
            <AltitudeMeters>102.1999969482421875</AltitudeMeters>
            <DistanceMeters>NAN</DistanceMeters>
          </Trackpoint>
          <Trackpoint>
            <Time>2021-08-13T09:00:40.000Z</Time>
            <Position>
              <LatitudeDegrees>43.2023934088647365570068359375</LatitudeDegrees>
              <LongitudeDegrees>-2.00829251669347286224365234375</LongitudeDegrees>
            </Position>
            <AltitudeMeters>102.1999969482421875</AltitudeMeters>
            <DistanceMeters>NAN</DistanceMeters>
          </Trackpoint>
          <Trackpoint>
            <Time>2021-08-13T09:00:41.000Z</Time>
            <Position>
              <LatitudeDegrees>43.2023848593235015869140625</LatitudeDegrees>
              <LongitudeDegrees>-2.0083088614046573638916015625</LongitudeDegrees>
            </Position>
            <AltitudeMeters>102.1999969482421875</AltitudeMeters>
            <DistanceMeters>NAN</DistanceMeters>
          </Trackpoint>
          <Trackpoint>
            <Time>2021-08-13T09:00:43.000Z</Time>
            <Position>
              <LatitudeDegrees>43.20237153209745883941650390625</LatitudeDegrees>
              <LongitudeDegrees>-2.00833895243704319000244140625</LongitudeDegrees>
            </Position>
            <AltitudeMeters>102.1999969482421875</AltitudeMeters>
            <DistanceMeters>NAN</DistanceMeters>
          </Trackpoint>
          <Trackpoint>
            <Time>2021-08-13T09:00:44.000Z</Time>
            <Position>
              <LatitudeDegrees>43.2023625634610652923583984375</LatitudeDegrees>
              <LongitudeDegrees>-2.0083534531295299530029296875</LongitudeDegrees>
            </Position>
            <AltitudeMeters>102.40000152587890625</AltitudeMeters>
            <DistanceMeters>NAN</DistanceMeters>
          </Trackpoint>
          <Trackpoint>
            <Time>2021-08-13T09:00:45.000Z</Time>
            <Position>
              <LatitudeDegrees>43.20235677994787693023681640625</LatitudeDegrees>
              <LongitudeDegrees>-2.00836728326976299285888671875</LongitudeDegrees>
            </Position>
            <AltitudeMeters>102.40000152587890625</AltitudeMeters>
            <DistanceMeters>NAN</DistanceMeters>
          </Trackpoint>
          <Trackpoint>
            <Time>2021-08-13T09:00:46.000Z</Time>
            <Position>
              <LatitudeDegrees>43.20235040970146656036376953125</LatitudeDegrees>
              <LongitudeDegrees>-2.00838102959096431732177734375</LongitudeDegrees>
            </Position>
            <AltitudeMeters>102.40000152587890625</AltitudeMeters>
            <DistanceMeters>NAN</DistanceMeters>
          </Trackpoint>
          <Trackpoint>
            <Time>2021-08-13T09:00:51.000Z</Time>
            <Position>
              <LatitudeDegrees>43.20230430923402309417724609375</LatitudeDegrees>
              <LongitudeDegrees>-2.00846199877560138702392578125</LongitudeDegrees>
            </Position>
            <AltitudeMeters>102.40000152587890625</AltitudeMeters>
            <DistanceMeters>NAN</DistanceMeters>
          </Trackpoint>
          <Trackpoint>
            <Time>2021-08-13T09:00:52.000Z</Time>
            <Position>
              <LatitudeDegrees>43.2022951729595661163330078125</LatitudeDegrees>
              <LongitudeDegrees>-2.00847021304070949554443359375</LongitudeDegrees>
            </Position>
            <AltitudeMeters>102.40000152587890625</AltitudeMeters>
            <DistanceMeters>NAN</DistanceMeters>
          </Trackpoint>
          <Trackpoint>
            <Time>2021-08-13T09:00:53.000Z</Time>
            <Position>
              <LatitudeDegrees>43.202287964522838592529296875</LatitudeDegrees>
              <LongitudeDegrees>-2.00848697684705257415771484375</LongitudeDegrees>
            </Position>
            <AltitudeMeters>102.40000152587890625</AltitudeMeters>
            <DistanceMeters>NAN</DistanceMeters>
          </Trackpoint>
          <Trackpoint>
            <Time>2021-08-13T09:00:54.000Z</Time>
            <Position>
              <LatitudeDegrees>43.20228092372417449951171875</LatitudeDegrees>
              <LongitudeDegrees>-2.00849837623536586761474609375</LongitudeDegrees>
            </Position>
            <AltitudeMeters>102.40000152587890625</AltitudeMeters>
            <DistanceMeters>NAN</DistanceMeters>
          </Trackpoint>
          <Trackpoint>
            <Time>2021-08-13T09:00:55.000Z</Time>
            <Position>
              <LatitudeDegrees>43.20228092372417449951171875</LatitudeDegrees>
              <LongitudeDegrees>-2.00849837623536586761474609375</LongitudeDegrees>
            </Position>
            <AltitudeMeters>102.40000152587890625</AltitudeMeters>
            <DistanceMeters>NAN</DistanceMeters>
          </Trackpoint>
          <Trackpoint>
            <Time>2021-08-13T09:00:57.000Z</Time>
            <Position>
              <LatitudeDegrees>43.202271200716495513916015625</LatitudeDegrees>
              <LongitudeDegrees>-2.008531652390956878662109375</LongitudeDegrees>
            </Position>
            <AltitudeMeters>102.1999969482421875</AltitudeMeters>
            <DistanceMeters>NAN</DistanceMeters>
          </Trackpoint>
          <Trackpoint>
            <Time>2021-08-13T09:00:58.000Z</Time>
            <Position>
              <LatitudeDegrees>43.2022636570036411285400390625</LatitudeDegrees>
              <LongitudeDegrees>-2.008542716503143310546875</LongitudeDegrees>
            </Position>
            <AltitudeMeters>102.1999969482421875</AltitudeMeters>
            <DistanceMeters>NAN</DistanceMeters>
          </Trackpoint>
          <Trackpoint>
            <Time>2021-08-13T09:00:59.000Z</Time>
            <Position>
              <LatitudeDegrees>43.20225301198661327362060546875</LatitudeDegrees>
              <LongitudeDegrees>-2.00855822302401065826416015625</LongitudeDegrees>
            </Position>
            <AltitudeMeters>102.1999969482421875</AltitudeMeters>
            <DistanceMeters>NAN</DistanceMeters>
          </Trackpoint>
          <Trackpoint>
            <Time>2021-08-13T09:01:00.000Z</Time>
            <Position>
              <LatitudeDegrees>43.202248401939868927001953125</LatitudeDegrees>
              <LongitudeDegrees>-2.00857599265873432159423828125</LongitudeDegrees>
            </Position>
            <AltitudeMeters>102.1999969482421875</AltitudeMeters>
            <DistanceMeters>NAN</DistanceMeters>
          </Trackpoint>
          <Trackpoint>
            <Time>2021-08-13T09:01:02.000Z</Time>
            <Position>
              <LatitudeDegrees>43.20222853682935237884521484375</LatitudeDegrees>
              <LongitudeDegrees>-2.00861639343202114105224609375</LongitudeDegrees>
            </Position>
            <AltitudeMeters>102.40000152587890625</AltitudeMeters>
            <DistanceMeters>NAN</DistanceMeters>
          </Trackpoint>
          <Trackpoint>
            <Time>2021-08-13T09:01:03.000Z</Time>
            <Position>
              <LatitudeDegrees>43.20222853682935237884521484375</LatitudeDegrees>
              <LongitudeDegrees>-2.00861639343202114105224609375</LongitudeDegrees>
            </Position>
            <AltitudeMeters>102.40000152587890625</AltitudeMeters>
            <DistanceMeters>NAN</DistanceMeters>
          </Trackpoint>
          <Trackpoint>
            <Time>2021-08-13T09:01:04.000Z</Time>
            <Position>
              <LatitudeDegrees>43.2022207416594028472900390625</LatitudeDegrees>
              <LongitudeDegrees>-2.0086290501058101654052734375</LongitudeDegrees>
            </Position>
            <AltitudeMeters>102.40000152587890625</AltitudeMeters>
            <DistanceMeters>NAN</DistanceMeters>
          </Trackpoint>
          <Trackpoint>
            <Time>2021-08-13T09:01:05.000Z</Time>
            <Position>
              <LatitudeDegrees>43.20221118628978729248046875</LatitudeDegrees>
              <LongitudeDegrees>-2.00864288024604320526123046875</LongitudeDegrees>
            </Position>
            <AltitudeMeters>102.40000152587890625</AltitudeMeters>
            <DistanceMeters>NAN</DistanceMeters>
          </Trackpoint>
          <Trackpoint>
            <Time>2021-08-13T09:01:06.000Z</Time>
            <Position>
              <LatitudeDegrees>43.2022029720246791839599609375</LatitudeDegrees>
              <LongitudeDegrees>-2.00865738093852996826171875</LongitudeDegrees>
            </Position>
            <AltitudeMeters>102.40000152587890625</AltitudeMeters>
            <DistanceMeters>NAN</DistanceMeters>
          </Trackpoint>
          <Trackpoint>
            <Time>2021-08-13T09:01:07.000Z</Time>
            <Position>
              <LatitudeDegrees>43.202183358371257781982421875</LatitudeDegrees>
              <LongitudeDegrees>-2.0086867175996303558349609375</LongitudeDegrees>
            </Position>
            <AltitudeMeters>102.40000152587890625</AltitudeMeters>
            <DistanceMeters>NAN</DistanceMeters>
          </Trackpoint>
          <Trackpoint>
            <Time>2021-08-13T09:01:09.000Z</Time>
            <Position>
              <LatitudeDegrees>43.20217388682067394256591796875</LatitudeDegrees>
              <LongitudeDegrees>-2.0086997933685779571533203125</LongitudeDegrees>
            </Position>
            <AltitudeMeters>102.59999847412109375</AltitudeMeters>
            <DistanceMeters>NAN</DistanceMeters>
          </Trackpoint>
          <Trackpoint>
            <Time>2021-08-13T09:01:10.000Z</Time>
            <Position>
              <LatitudeDegrees>43.2021657563745975494384765625</LatitudeDegrees>
              <LongitudeDegrees>-2.00873407535254955291748046875</LongitudeDegrees>
            </Position>
            <AltitudeMeters>102.59999847412109375</AltitudeMeters>
            <DistanceMeters>NAN</DistanceMeters>
          </Trackpoint>
          <Trackpoint>
            <Time>2021-08-13T09:01:14.000Z</Time>
            <Position>
              <LatitudeDegrees>43.20213382132351398468017578125</LatitudeDegrees>
              <LongitudeDegrees>-2.008793167769908905029296875</LongitudeDegrees>
            </Position>
            <AltitudeMeters>102.59999847412109375</AltitudeMeters>
            <DistanceMeters>NAN</DistanceMeters>
          </Trackpoint>
          <Trackpoint>
            <Time>2021-08-13T09:01:15.000Z</Time>
            <Position>
              <LatitudeDegrees>43.2021282054483890533447265625</LatitudeDegrees>
              <LongitudeDegrees>-2.00881236232817173004150390625</LongitudeDegrees>
            </Position>
            <AltitudeMeters>102.8000030517578125</AltitudeMeters>
            <DistanceMeters>NAN</DistanceMeters>
          </Trackpoint>
          <Trackpoint>
            <Time>2021-08-13T09:01:16.000Z</Time>
            <Position>
              <LatitudeDegrees>43.2021214999258518218994140625</LatitudeDegrees>
              <LongitudeDegrees>-2.0088310539722442626953125</LongitudeDegrees>
            </Position>
            <AltitudeMeters>102.8000030517578125</AltitudeMeters>
            <DistanceMeters>NAN</DistanceMeters>
          </Trackpoint>
          <Trackpoint>
            <Time>2021-08-13T09:01:17.000Z</Time>
            <Position>
              <LatitudeDegrees>43.2021168060600757598876953125</LatitudeDegrees>
              <LongitudeDegrees>-2.0088506676256656646728515625</LongitudeDegrees>
            </Position>
            <AltitudeMeters>103</AltitudeMeters>
            <DistanceMeters>NAN</DistanceMeters>
          </Trackpoint>
          <Trackpoint>
            <Time>2021-08-13T09:01:18.000Z</Time>
            <Position>
              <LatitudeDegrees>43.20211051963269710540771484375</LatitudeDegrees>
              <LongitudeDegrees>-2.00886567123234272003173828125</LongitudeDegrees>
            </Position>
            <AltitudeMeters>103</AltitudeMeters>
            <DistanceMeters>NAN</DistanceMeters>
          </Trackpoint>
          <Trackpoint>
            <Time>2021-08-13T09:01:19.000Z</Time>
            <Position>
              <LatitudeDegrees>43.20211051963269710540771484375</LatitudeDegrees>
              <LongitudeDegrees>-2.00886567123234272003173828125</LongitudeDegrees>
            </Position>
            <AltitudeMeters>103</AltitudeMeters>
            <DistanceMeters>NAN</DistanceMeters>
          </Trackpoint>
          <Trackpoint>
            <Time>2021-08-13T09:01:20.000Z</Time>
            <Position>
              <LatitudeDegrees>43.20208990015089511871337890625</LatitudeDegrees>
              <LongitudeDegrees>-2.0088929124176502227783203125</LongitudeDegrees>
            </Position>
            <AltitudeMeters>103</AltitudeMeters>
            <DistanceMeters>NAN</DistanceMeters>
          </Trackpoint>
          <Trackpoint>
            <Time>2021-08-13T09:01:21.000Z</Time>
            <Position>
              <LatitudeDegrees>43.20208990015089511871337890625</LatitudeDegrees>
              <LongitudeDegrees>-2.0088929124176502227783203125</LongitudeDegrees>
            </Position>
            <AltitudeMeters>103</AltitudeMeters>
            <DistanceMeters>NAN</DistanceMeters>
          </Trackpoint>
          <Trackpoint>
            <Time>2021-08-13T09:01:23.000Z</Time>
            <Position>
              <LatitudeDegrees>43.2020705379545688629150390625</LatitudeDegrees>
              <LongitudeDegrees>-2.00893457047641277313232421875</LongitudeDegrees>
            </Position>
            <AltitudeMeters>103</AltitudeMeters>
            <DistanceMeters>NAN</DistanceMeters>
          </Trackpoint>
          <Trackpoint>
            <Time>2021-08-13T09:01:25.000Z</Time>
            <Position>
              <LatitudeDegrees>43.20204933173954486846923828125</LatitudeDegrees>
              <LongitudeDegrees>-2.00896558351814746856689453125</LongitudeDegrees>
            </Position>
            <AltitudeMeters>103</AltitudeMeters>
            <DistanceMeters>NAN</DistanceMeters>
          </Trackpoint>
          <Trackpoint>
            <Time>2021-08-13T09:01:26.000Z</Time>
            <Position>
              <LatitudeDegrees>43.20203809998929500579833984375</LatitudeDegrees>
              <LongitudeDegrees>-2.0089814253151416778564453125</LongitudeDegrees>
            </Position>
            <AltitudeMeters>103</AltitudeMeters>
            <DistanceMeters>NAN</DistanceMeters>
          </Trackpoint>
          <Trackpoint>
            <Time>2021-08-13T09:01:27.000Z</Time>
            <Position>
              <LatitudeDegrees>43.20203809998929500579833984375</LatitudeDegrees>
              <LongitudeDegrees>-2.0089814253151416778564453125</LongitudeDegrees>
            </Position>
            <AltitudeMeters>103</AltitudeMeters>
            <DistanceMeters>NAN</DistanceMeters>
          </Trackpoint>
          <Trackpoint>
            <Time>2021-08-13T09:01:28.000Z</Time>
            <Position>
              <LatitudeDegrees>43.2020178996026515960693359375</LatitudeDegrees>
              <LongitudeDegrees>-2.00902006588876247406005859375</LongitudeDegrees>
            </Position>
            <AltitudeMeters>103.1999969482421875</AltitudeMeters>
            <DistanceMeters>NAN</DistanceMeters>
          </Trackpoint>
          <Trackpoint>
            <Time>2021-08-13T09:01:29.000Z</Time>
            <Position>
              <LatitudeDegrees>43.20199795067310333251953125</LatitudeDegrees>
              <LongitudeDegrees>-2.009037248790264129638671875</LongitudeDegrees>
            </Position>
            <AltitudeMeters>103.1999969482421875</AltitudeMeters>
            <DistanceMeters>NAN</DistanceMeters>
          </Trackpoint>
          <Trackpoint>
            <Time>2021-08-13T09:01:30.000Z</Time>
            <Position>
              <LatitudeDegrees>43.2019877247512340545654296875</LatitudeDegrees>
              <LongitudeDegrees>-2.009049989283084869384765625</LongitudeDegrees>
            </Position>
            <AltitudeMeters>103.1999969482421875</AltitudeMeters>
            <DistanceMeters>NAN</DistanceMeters>
          </Trackpoint>
          <Trackpoint>
            <Time>2021-08-13T09:01:31.000Z</Time>
            <Position>
              <LatitudeDegrees>43.20197875611484050750732421875</LatitudeDegrees>
              <LongitudeDegrees>-2.009066753089427947998046875</LongitudeDegrees>
            </Position>
            <AltitudeMeters>103.1999969482421875</AltitudeMeters>
            <DistanceMeters>NAN</DistanceMeters>
          </Trackpoint>
          <Trackpoint>
            <Time>2021-08-13T09:01:32.000Z</Time>
            <Position>
              <LatitudeDegrees>43.20197003893554210662841796875</LatitudeDegrees>
              <LongitudeDegrees>-2.00908527709543704986572265625</LongitudeDegrees>
            </Position>
            <AltitudeMeters>103.1999969482421875</AltitudeMeters>
            <DistanceMeters>NAN</DistanceMeters>
          </Trackpoint>
          <Trackpoint>
            <Time>2021-08-13T09:01:34.000Z</Time>
            <Position>
              <LatitudeDegrees>43.20196039974689483642578125</LatitudeDegrees>
              <LongitudeDegrees>-2.00913070701062679290771484375</LongitudeDegrees>
            </Position>
            <AltitudeMeters>103.1999969482421875</AltitudeMeters>
            <DistanceMeters>NAN</DistanceMeters>
          </Trackpoint>
          <Trackpoint>
            <Time>2021-08-13T09:01:35.000Z</Time>
            <Position>
              <LatitudeDegrees>43.20194690488278865814208984375</LatitudeDegrees>
              <LongitudeDegrees>-2.00915099121630191802978515625</LongitudeDegrees>
            </Position>
            <AltitudeMeters>103.1999969482421875</AltitudeMeters>
            <DistanceMeters>NAN</DistanceMeters>
          </Trackpoint>
          <Trackpoint>
            <Time>2021-08-13T09:01:36.000Z</Time>
            <Position>
              <LatitudeDegrees>43.20194690488278865814208984375</LatitudeDegrees>
              <LongitudeDegrees>-2.00915099121630191802978515625</LongitudeDegrees>
            </Position>
            <AltitudeMeters>103.1999969482421875</AltitudeMeters>
            <DistanceMeters>NAN</DistanceMeters>
          </Trackpoint>
          <Trackpoint>
            <Time>2021-08-13T09:01:38.000Z</Time>
            <Position>
              <LatitudeDegrees>43.20191480219364166259765625</LatitudeDegrees>
              <LongitudeDegrees>-2.009198851883411407470703125</LongitudeDegrees>
            </Position>
            <AltitudeMeters>103.1999969482421875</AltitudeMeters>
            <DistanceMeters>NAN</DistanceMeters>
          </Trackpoint>
          <Trackpoint>
            <Time>2021-08-13T09:01:39.000Z</Time>
            <Position>
              <LatitudeDegrees>43.2019007205963134765625</LatitudeDegrees>
              <LongitudeDegrees>-2.00921569950878620147705078125</LongitudeDegrees>
            </Position>
            <AltitudeMeters>103.1999969482421875</AltitudeMeters>
            <DistanceMeters>NAN</DistanceMeters>
          </Trackpoint>
          <Trackpoint>
            <Time>2021-08-13T09:01:44.000Z</Time>
            <Position>
              <LatitudeDegrees>43.2018526084721088409423828125</LatitudeDegrees>
              <LongitudeDegrees>-2.00933489017188549041748046875</LongitudeDegrees>
            </Position>
            <AltitudeMeters>103.1999969482421875</AltitudeMeters>
            <DistanceMeters>NAN</DistanceMeters>
          </Trackpoint>
          <Trackpoint>
            <Time>2021-08-13T09:01:46.000Z</Time>
            <Position>
              <LatitudeDegrees>43.20184380747377872467041015625</LatitudeDegrees>
              <LongitudeDegrees>-2.0093663223087787628173828125</LongitudeDegrees>
            </Position>
            <AltitudeMeters>103.40000152587890625</AltitudeMeters>
            <DistanceMeters>NAN</DistanceMeters>
          </Trackpoint>
          <Trackpoint>
            <Time>2021-08-13T09:01:48.000Z</Time>
            <Position>
              <LatitudeDegrees>43.20180659182369709014892578125</LatitudeDegrees>
              <LongitudeDegrees>-2.0094018615782260894775390625</LongitudeDegrees>
            </Position>
            <AltitudeMeters>103.40000152587890625</AltitudeMeters>
            <DistanceMeters>NAN</DistanceMeters>
          </Trackpoint>
          <Trackpoint>
            <Time>2021-08-13T09:01:49.000Z</Time>
            <Position>
              <LatitudeDegrees>43.20180323906242847442626953125</LatitudeDegrees>
              <LongitudeDegrees>-2.00941820628941059112548828125</LongitudeDegrees>
            </Position>
            <AltitudeMeters>103.40000152587890625</AltitudeMeters>
            <DistanceMeters>NAN</DistanceMeters>
          </Trackpoint>
          <Trackpoint>
            <Time>2021-08-13T09:01:50.000Z</Time>
            <Position>
              <LatitudeDegrees>43.20180323906242847442626953125</LatitudeDegrees>
              <LongitudeDegrees>-2.00941820628941059112548828125</LongitudeDegrees>
            </Position>
            <AltitudeMeters>103.1999969482421875</AltitudeMeters>
            <DistanceMeters>NAN</DistanceMeters>
          </Trackpoint>
          <Trackpoint>
            <Time>2021-08-13T09:01:51.000Z</Time>
            <Position>
              <LatitudeDegrees>43.2017962820827960968017578125</LatitudeDegrees>
              <LongitudeDegrees>-2.0094347186386585235595703125</LongitudeDegrees>
            </Position>
            <AltitudeMeters>103.1999969482421875</AltitudeMeters>
            <DistanceMeters>NAN</DistanceMeters>
          </Trackpoint>
          <Trackpoint>
            <Time>2021-08-13T09:01:52.000Z</Time>
            <Position>
              <LatitudeDegrees>43.2017808593809604644775390625</LatitudeDegrees>
              <LongitudeDegrees>-2.0094749517738819122314453125</LongitudeDegrees>
            </Position>
            <AltitudeMeters>103.1999969482421875</AltitudeMeters>
            <DistanceMeters>NAN</DistanceMeters>
          </Trackpoint>
          <Trackpoint>
            <Time>2021-08-13T09:01:53.000Z</Time>
            <Position>
              <LatitudeDegrees>43.201772980391979217529296875</LatitudeDegrees>
              <LongitudeDegrees>-2.0094917155802249908447265625</LongitudeDegrees>
            </Position>
            <AltitudeMeters>103.59999847412109375</AltitudeMeters>
            <DistanceMeters>NAN</DistanceMeters>
          </Trackpoint>
          <Trackpoint>
            <Time>2021-08-13T09:01:55.000Z</Time>
            <Position>
              <LatitudeDegrees>43.20175579749047756195068359375</LatitudeDegrees>
              <LongitudeDegrees>-2.00952247716486454010009765625</LongitudeDegrees>
            </Position>
            <AltitudeMeters>103.59999847412109375</AltitudeMeters>
            <DistanceMeters>NAN</DistanceMeters>
          </Trackpoint>
          <Trackpoint>
            <Time>2021-08-13T09:01:57.000Z</Time>
            <Position>
              <LatitudeDegrees>43.20174020715057849884033203125</LatitudeDegrees>
              <LongitudeDegrees>-2.00954879634082317352294921875</LongitudeDegrees>
            </Position>
            <AltitudeMeters>103.59999847412109375</AltitudeMeters>
            <DistanceMeters>NAN</DistanceMeters>
          </Trackpoint>
          <Trackpoint>
            <Time>2021-08-13T09:02:01.000Z</Time>
            <Position>
              <LatitudeDegrees>43.201711289584636688232421875</LatitudeDegrees>
              <LongitudeDegrees>-2.009607888758182525634765625</LongitudeDegrees>
            </Position>
            <AltitudeMeters>103.8000030517578125</AltitudeMeters>
            <DistanceMeters>NAN</DistanceMeters>
          </Trackpoint>
          <Trackpoint>
            <Time>2021-08-13T09:02:02.000Z</Time>
            <Position>
              <LatitudeDegrees>43.201704919338226318359375</LatitudeDegrees>
              <LongitudeDegrees>-2.00962875969707965850830078125</LongitudeDegrees>
            </Position>
            <AltitudeMeters>103.8000030517578125</AltitudeMeters>
            <DistanceMeters>NAN</DistanceMeters>
          </Trackpoint>
          <Trackpoint>
            <Time>2021-08-13T09:02:03.000Z</Time>
            <Position>
              <LatitudeDegrees>43.2016896642744541168212890625</LatitudeDegrees>
              <LongitudeDegrees>-2.00966463424265384674072265625</LongitudeDegrees>
            </Position>
            <AltitudeMeters>103.8000030517578125</AltitudeMeters>
            <DistanceMeters>NAN</DistanceMeters>
          </Trackpoint>
          <Trackpoint>
            <Time>2021-08-13T09:02:05.000Z</Time>
            <Position>
              <LatitudeDegrees>43.20167868398129940032958984375</LatitudeDegrees>
              <LongitudeDegrees>-2.00968324206769466400146484375</LongitudeDegrees>
            </Position>
            <AltitudeMeters>103.8000030517578125</AltitudeMeters>
            <DistanceMeters>NAN</DistanceMeters>
          </Trackpoint>
          <Trackpoint>
            <Time>2021-08-13T09:02:06.000Z</Time>
            <Position>
              <LatitudeDegrees>43.20166560821235179901123046875</LatitudeDegrees>
              <LongitudeDegrees>-2.00970570556819438934326171875</LongitudeDegrees>
            </Position>
            <AltitudeMeters>103.8000030517578125</AltitudeMeters>
            <DistanceMeters>NAN</DistanceMeters>
          </Trackpoint>
          <Trackpoint>
            <Time>2021-08-13T09:02:09.000Z</Time>
            <Position>
              <LatitudeDegrees>43.201621435582637786865234375</LatitudeDegrees>
              <LongitudeDegrees>-2.00977879576385021209716796875</LongitudeDegrees>
            </Position>
            <AltitudeMeters>103.8000030517578125</AltitudeMeters>
            <DistanceMeters>NAN</DistanceMeters>
          </Trackpoint>
          <Trackpoint>
            <Time>2021-08-13T09:02:10.000Z</Time>
            <Position>
              <LatitudeDegrees>43.201621435582637786865234375</LatitudeDegrees>
              <LongitudeDegrees>-2.00977879576385021209716796875</LongitudeDegrees>
            </Position>
            <AltitudeMeters>103.8000030517578125</AltitudeMeters>
            <DistanceMeters>NAN</DistanceMeters>
          </Trackpoint>
          <Trackpoint>
            <Time>2021-08-13T09:02:11.000Z</Time>
            <Position>
              <LatitudeDegrees>43.2016075216233730316162109375</LatitudeDegrees>
              <LongitudeDegrees>-2.009801007807254791259765625</LongitudeDegrees>
            </Position>
            <AltitudeMeters>103.8000030517578125</AltitudeMeters>
            <DistanceMeters>NAN</DistanceMeters>
          </Trackpoint>
          <Trackpoint>
            <Time>2021-08-13T09:02:12.000Z</Time>
            <Position>
              <LatitudeDegrees>43.20158111862838268280029296875</LatitudeDegrees>
              <LongitudeDegrees>-2.009843923151493072509765625</LongitudeDegrees>
            </Position>
            <AltitudeMeters>103.8000030517578125</AltitudeMeters>
            <DistanceMeters>NAN</DistanceMeters>
          </Trackpoint>
          <Trackpoint>
            <Time>2021-08-13T09:02:13.000Z</Time>
            <Position>
              <LatitudeDegrees>43.2015662826597690582275390625</LatitudeDegrees>
              <LongitudeDegrees>-2.00986613519489765167236328125</LongitudeDegrees>
            </Position>
            <AltitudeMeters>104.1999969482421875</AltitudeMeters>
            <DistanceMeters>NAN</DistanceMeters>
          </Trackpoint>
          <Trackpoint>
            <Time>2021-08-13T09:02:17.000Z</Time>
            <Position>
              <LatitudeDegrees>43.20151121355593204498291015625</LatitudeDegrees>
              <LongitudeDegrees>-2.00995280407369136810302734375</LongitudeDegrees>
            </Position>
            <AltitudeMeters>104.1999969482421875</AltitudeMeters>
            <DistanceMeters>NAN</DistanceMeters>
          </Trackpoint>
          <Trackpoint>
            <Time>2021-08-13T09:02:20.000Z</Time>
            <Position>
              <LatitudeDegrees>43.20148070342838764190673828125</LatitudeDegrees>
              <LongitudeDegrees>-2.0099802128970623016357421875</LongitudeDegrees>
            </Position>
            <AltitudeMeters>104.1999969482421875</AltitudeMeters>
            <DistanceMeters>NAN</DistanceMeters>
          </Trackpoint>
          <Trackpoint>
            <Time>2021-08-13T09:02:25.000Z</Time>
            <Position>
              <LatitudeDegrees>43.201339133083820343017578125</LatitudeDegrees>
              <LongitudeDegrees>-2.01015765778720378875732421875</LongitudeDegrees>
            </Position>
            <AltitudeMeters>104.40000152587890625</AltitudeMeters>
            <DistanceMeters>NAN</DistanceMeters>
          </Trackpoint>
          <Trackpoint>
            <Time>2021-08-13T09:02:27.000Z</Time>
            <Position>
              <LatitudeDegrees>43.201291523873805999755859375</LatitudeDegrees>
              <LongitudeDegrees>-2.0101860724389553070068359375</LongitudeDegrees>
            </Position>
            <AltitudeMeters>104.40000152587890625</AltitudeMeters>
            <DistanceMeters>NAN</DistanceMeters>
          </Trackpoint>
          <Trackpoint>
            <Time>2021-08-13T09:02:28.000Z</Time>
            <Position>
              <LatitudeDegrees>43.201275430619716644287109375</LatitudeDegrees>
              <LongitudeDegrees>-2.01019135303795337677001953125</LongitudeDegrees>
            </Position>
            <AltitudeMeters>104.59999847412109375</AltitudeMeters>
            <DistanceMeters>NAN</DistanceMeters>
          </Trackpoint>
          <Trackpoint>
            <Time>2021-08-13T09:02:29.000Z</Time>
            <Position>
              <LatitudeDegrees>43.20125900208950042724609375</LatitudeDegrees>
              <LongitudeDegrees>-2.01020308770239353179931640625</LongitudeDegrees>
            </Position>
            <AltitudeMeters>104.59999847412109375</AltitudeMeters>
            <DistanceMeters>NAN</DistanceMeters>
          </Trackpoint>
          <Trackpoint>
            <Time>2021-08-13T09:02:30.000Z</Time>
            <Position>
              <LatitudeDegrees>43.2012501172721385955810546875</LatitudeDegrees>
              <LongitudeDegrees>-2.0102219469845294952392578125</LongitudeDegrees>
            </Position>
            <AltitudeMeters>104.59999847412109375</AltitudeMeters>
            <DistanceMeters>NAN</DistanceMeters>
          </Trackpoint>
          <Trackpoint>
            <Time>2021-08-13T09:02:31.000Z</Time>
            <Position>
              <LatitudeDegrees>43.2012450881302356719970703125</LatitudeDegrees>
              <LongitudeDegrees>-2.01023192144930362701416015625</LongitudeDegrees>
            </Position>
            <AltitudeMeters>104.59999847412109375</AltitudeMeters>
            <DistanceMeters>NAN</DistanceMeters>
          </Trackpoint>
          <Trackpoint>
            <Time>2021-08-13T09:02:32.000Z</Time>
            <Position>
              <LatitudeDegrees>43.2012387178838253021240234375</LatitudeDegrees>
              <LongitudeDegrees>-2.0102400518953800201416015625</LongitudeDegrees>
            </Position>
            <AltitudeMeters>104.59999847412109375</AltitudeMeters>
            <DistanceMeters>NAN</DistanceMeters>
          </Trackpoint>
          <Trackpoint>
            <Time>2021-08-13T09:02:33.000Z</Time>
            <Position>
              <LatitudeDegrees>43.2012226246297359466552734375</LatitudeDegrees>
              <LongitudeDegrees>-2.01026159338653087615966796875</LongitudeDegrees>
            </Position>
            <AltitudeMeters>104.59999847412109375</AltitudeMeters>
            <DistanceMeters>NAN</DistanceMeters>
          </Trackpoint>
          <Trackpoint>
            <Time>2021-08-13T09:02:34.000Z</Time>
            <Position>
              <LatitudeDegrees>43.20120879448950290679931640625</LatitudeDegrees>
              <LongitudeDegrees>-2.01026930473744869232177734375</LongitudeDegrees>
            </Position>
            <AltitudeMeters>104.59999847412109375</AltitudeMeters>
            <DistanceMeters>NAN</DistanceMeters>
          </Trackpoint>
          <Trackpoint>
            <Time>2021-08-13T09:02:35.000Z</Time>
            <Position>
              <LatitudeDegrees>43.20120879448950290679931640625</LatitudeDegrees>
              <LongitudeDegrees>-2.01026930473744869232177734375</LongitudeDegrees>
            </Position>
            <AltitudeMeters>104.59999847412109375</AltitudeMeters>
            <DistanceMeters>NAN</DistanceMeters>
          </Trackpoint>
          <Trackpoint>
            <Time>2021-08-13T09:02:36.000Z</Time>
            <Position>
              <LatitudeDegrees>43.20117878727614879608154296875</LatitudeDegrees>
              <LongitudeDegrees>-2.0102933607995510101318359375</LongitudeDegrees>
            </Position>
            <AltitudeMeters>104.59999847412109375</AltitudeMeters>
            <DistanceMeters>NAN</DistanceMeters>
          </Trackpoint>
          <Trackpoint>
            <Time>2021-08-13T09:02:37.000Z</Time>
            <Position>
              <LatitudeDegrees>43.2011636160314083099365234375</LatitudeDegrees>
              <LongitudeDegrees>-2.0103071071207523345947265625</LongitudeDegrees>
            </Position>
            <AltitudeMeters>104.59999847412109375</AltitudeMeters>
            <DistanceMeters>NAN</DistanceMeters>
          </Trackpoint>
          <Trackpoint>
            <Time>2021-08-13T09:02:38.000Z</Time>
            <Position>
              <LatitudeDegrees>43.20115447975695133209228515625</LatitudeDegrees>
              <LongitudeDegrees>-2.01031574048101902008056640625</LongitudeDegrees>
            </Position>
            <AltitudeMeters>104.8000030517578125</AltitudeMeters>
            <DistanceMeters>NAN</DistanceMeters>
          </Trackpoint>
          <Trackpoint>
            <Time>2021-08-13T09:02:39.000Z</Time>
            <Position>
              <LatitudeDegrees>43.201143331825733184814453125</LatitudeDegrees>
              <LongitudeDegrees>-2.01032345183193683624267578125</LongitudeDegrees>
            </Position>
            <AltitudeMeters>104.8000030517578125</AltitudeMeters>
            <DistanceMeters>NAN</DistanceMeters>
          </Trackpoint>
          <Trackpoint>
            <Time>2021-08-13T09:02:41.000Z</Time>
            <Position>
              <LatitudeDegrees>43.20111005567014217376708984375</LatitudeDegrees>
              <LongitudeDegrees>-2.01034256257116794586181640625</LongitudeDegrees>
            </Position>
            <AltitudeMeters>104.8000030517578125</AltitudeMeters>
            <DistanceMeters>NAN</DistanceMeters>
          </Trackpoint>
          <Trackpoint>
            <Time>2021-08-13T09:02:42.000Z</Time>
            <Position>
              <LatitudeDegrees>43.2010989077389240264892578125</LatitudeDegrees>
              <LongitudeDegrees>-2.01036066748201847076416015625</LongitudeDegrees>
            </Position>
            <AltitudeMeters>104.8000030517578125</AltitudeMeters>
            <DistanceMeters>NAN</DistanceMeters>
          </Trackpoint>
          <Trackpoint>
            <Time>2021-08-13T09:02:43.000Z</Time>
            <Position>
              <LatitudeDegrees>43.20108734071254730224609375</LatitudeDegrees>
              <LongitudeDegrees>-2.0103701390326023101806640625</LongitudeDegrees>
            </Position>
            <AltitudeMeters>104.8000030517578125</AltitudeMeters>
            <DistanceMeters>NAN</DistanceMeters>
          </Trackpoint>
          <Trackpoint>
            <Time>2021-08-13T09:02:44.000Z</Time>
            <Position>
              <LatitudeDegrees>43.2010740973055362701416015625</LatitudeDegrees>
              <LongitudeDegrees>-2.0103869028389453887939453125</LongitudeDegrees>
            </Position>
            <AltitudeMeters>104.8000030517578125</AltitudeMeters>
            <DistanceMeters>NAN</DistanceMeters>
          </Trackpoint>
          <Trackpoint>
            <Time>2021-08-13T09:02:45.000Z</Time>
            <Position>
              <LatitudeDegrees>43.201055824756622314453125</LatitudeDegrees>
              <LongitudeDegrees>-2.0104028284549713134765625</LongitudeDegrees>
            </Position>
            <AltitudeMeters>104.8000030517578125</AltitudeMeters>
            <DistanceMeters>NAN</DistanceMeters>
          </Trackpoint>
          <Trackpoint>
            <Time>2021-08-13T09:02:46.000Z</Time>
            <Position>
              <LatitudeDegrees>43.2010345347225666046142578125</LatitudeDegrees>
              <LongitudeDegrees>-2.0104194246232509613037109375</LongitudeDegrees>
            </Position>
            <AltitudeMeters>104.8000030517578125</AltitudeMeters>
            <DistanceMeters>NAN</DistanceMeters>
          </Trackpoint>
          <Trackpoint>
            <Time>2021-08-13T09:02:48.000Z</Time>
            <Position>
              <LatitudeDegrees>43.20099337957799434661865234375</LatitudeDegrees>
              <LongitudeDegrees>-2.010472901165485382080078125</LongitudeDegrees>
            </Position>
            <AltitudeMeters>105</AltitudeMeters>
            <DistanceMeters>NAN</DistanceMeters>
          </Trackpoint>
          <Trackpoint>
            <Time>2021-08-13T09:02:52.000Z</Time>
            <Position>
              <LatitudeDegrees>43.2009064592421054840087890625</LatitudeDegrees>
              <LongitudeDegrees>-2.0105421356856822967529296875</LongitudeDegrees>
            </Position>
            <AltitudeMeters>105.1999969482421875</AltitudeMeters>
            <DistanceMeters>NAN</DistanceMeters>
          </Trackpoint>
          <Trackpoint>
            <Time>2021-08-13T09:02:53.000Z</Time>
            <Position>
              <LatitudeDegrees>43.200885839760303497314453125</LatitudeDegrees>
              <LongitudeDegrees>-2.01055026613175868988037109375</LongitudeDegrees>
            </Position>
            <AltitudeMeters>105.1999969482421875</AltitudeMeters>
            <DistanceMeters>NAN</DistanceMeters>
          </Trackpoint>
          <Trackpoint>
            <Time>2021-08-13T09:02:54.000Z</Time>
            <Position>
              <LatitudeDegrees>43.200885839760303497314453125</LatitudeDegrees>
              <LongitudeDegrees>-2.01055026613175868988037109375</LongitudeDegrees>
            </Position>
            <AltitudeMeters>105.1999969482421875</AltitudeMeters>
            <DistanceMeters>NAN</DistanceMeters>
          </Trackpoint>
          <Trackpoint>
            <Time>2021-08-13T09:02:57.000Z</Time>
            <Position>
              <LatitudeDegrees>43.2007995061576366424560546875</LatitudeDegrees>
              <LongitudeDegrees>-2.0106142200529575347900390625</LongitudeDegrees>
            </Position>
            <AltitudeMeters>105.40000152587890625</AltitudeMeters>
            <DistanceMeters>NAN</DistanceMeters>
          </Trackpoint>
          <Trackpoint>
            <Time>2021-08-13T09:02:58.000Z</Time>
            <Position>
              <LatitudeDegrees>43.20077192969620227813720703125</LatitudeDegrees>
              <LongitudeDegrees>-2.01063760556280612945556640625</LongitudeDegrees>
            </Position>
            <AltitudeMeters>105.40000152587890625</AltitudeMeters>
            <DistanceMeters>NAN</DistanceMeters>
          </Trackpoint>
          <Trackpoint>
            <Time>2021-08-13T09:03:03.000Z</Time>
            <Position>
              <LatitudeDegrees>43.2006536610424518585205078125</LatitudeDegrees>
              <LongitudeDegrees>-2.01074087060987949371337890625</LongitudeDegrees>
            </Position>
            <AltitudeMeters>105.59999847412109375</AltitudeMeters>
            <DistanceMeters>NAN</DistanceMeters>
          </Trackpoint>
          <Trackpoint>
            <Time>2021-08-13T09:03:10.000Z</Time>
            <Position>
              <LatitudeDegrees>43.20048795081675052642822265625</LatitudeDegrees>
              <LongitudeDegrees>-2.0108358375728130340576171875</LongitudeDegrees>
            </Position>
            <AltitudeMeters>105.8000030517578125</AltitudeMeters>
            <DistanceMeters>NAN</DistanceMeters>
          </Trackpoint>
          <Trackpoint>
            <Time>2021-08-13T09:03:13.000Z</Time>
            <Position>
              <LatitudeDegrees>43.20041988976299762725830078125</LatitudeDegrees>
              <LongitudeDegrees>-2.010870538651943206787109375</LongitudeDegrees>
            </Position>
            <AltitudeMeters>105.8000030517578125</AltitudeMeters>
            <DistanceMeters>NAN</DistanceMeters>
          </Trackpoint>
          <Trackpoint>
            <Time>2021-08-13T09:03:18.000Z</Time>
            <Position>
              <LatitudeDegrees>43.20030271075665950775146484375</LatitudeDegrees>
              <LongitudeDegrees>-2.01091320253908634185791015625</LongitudeDegrees>
            </Position>
            <AltitudeMeters>105.8000030517578125</AltitudeMeters>
            <DistanceMeters>NAN</DistanceMeters>
          </Trackpoint>
          <Trackpoint>
            <Time>2021-08-13T09:03:22.000Z</Time>
            <Position>
              <LatitudeDegrees>43.20020296610891819000244140625</LatitudeDegrees>
              <LongitudeDegrees>-2.01093801297247409820556640625</LongitudeDegrees>
            </Position>
            <AltitudeMeters>105.8000030517578125</AltitudeMeters>
            <DistanceMeters>NAN</DistanceMeters>
          </Trackpoint>
          <Trackpoint>
            <Time>2021-08-13T09:03:23.000Z</Time>
            <Position>
              <LatitudeDegrees>43.20020296610891819000244140625</LatitudeDegrees>
              <LongitudeDegrees>-2.01093801297247409820556640625</LongitudeDegrees>
            </Position>
            <AltitudeMeters>105.8000030517578125</AltitudeMeters>
            <DistanceMeters>NAN</DistanceMeters>
          </Trackpoint>
          <Trackpoint>
            <Time>2021-08-13T09:03:26.000Z</Time>
            <Position>
              <LatitudeDegrees>43.20010841824114322662353515625</LatitudeDegrees>
              <LongitudeDegrees>-2.01094823889434337615966796875</LongitudeDegrees>
            </Position>
            <AltitudeMeters>106.1999969482421875</AltitudeMeters>
            <DistanceMeters>NAN</DistanceMeters>
          </Trackpoint>
          <Trackpoint>
            <Time>2021-08-13T09:03:28.000Z</Time>
            <Position>
              <LatitudeDegrees>43.2000833563506603240966796875</LatitudeDegrees>
              <LongitudeDegrees>-2.0109548605978488922119140625</LongitudeDegrees>
            </Position>
            <AltitudeMeters>106.1999969482421875</AltitudeMeters>
            <DistanceMeters>NAN</DistanceMeters>
          </Trackpoint>
          <Trackpoint>
            <Time>2021-08-13T09:03:36.000Z</Time>
            <Position>
              <LatitudeDegrees>43.19984656758606433868408203125</LatitudeDegrees>
              <LongitudeDegrees>-2.01100565493106842041015625</LongitudeDegrees>
            </Position>
            <AltitudeMeters>106.40000152587890625</AltitudeMeters>
            <DistanceMeters>NAN</DistanceMeters>
          </Trackpoint>
          <Trackpoint>
            <Time>2021-08-13T09:03:37.000Z</Time>
            <Position>
              <LatitudeDegrees>43.1998261995613574981689453125</LatitudeDegrees>
              <LongitudeDegrees>-2.01100959442555904388427734375</LongitudeDegrees>
            </Position>
            <AltitudeMeters>106.59999847412109375</AltitudeMeters>
            <DistanceMeters>NAN</DistanceMeters>
          </Trackpoint>
          <Trackpoint>
            <Time>2021-08-13T09:03:48.000Z</Time>
            <Position>
              <LatitudeDegrees>43.19952654652297496795654296875</LatitudeDegrees>
              <LongitudeDegrees>-2.01107128523290157318115234375</LongitudeDegrees>
            </Position>
            <AltitudeMeters>107</AltitudeMeters>
            <DistanceMeters>NAN</DistanceMeters>
          </Trackpoint>
          <Trackpoint>
            <Time>2021-08-13T09:03:56.000Z</Time>
            <Position>
              <LatitudeDegrees>43.1993105448782444000244140625</LatitudeDegrees>
              <LongitudeDegrees>-2.01112593524158000946044921875</LongitudeDegrees>
            </Position>
            <AltitudeMeters>107.1999969482421875</AltitudeMeters>
            <DistanceMeters>NAN</DistanceMeters>
          </Trackpoint>
          <Trackpoint>
            <Time>2021-08-13T09:04:01.000Z</Time>
            <Position>
              <LatitudeDegrees>43.1991760991513729095458984375</LatitudeDegrees>
              <LongitudeDegrees>-2.01115946285426616668701171875</LongitudeDegrees>
            </Position>
            <AltitudeMeters>107.40000152587890625</AltitudeMeters>
            <DistanceMeters>NAN</DistanceMeters>
          </Trackpoint>
          <Trackpoint>
            <Time>2021-08-13T09:04:04.000Z</Time>
            <Position>
              <LatitudeDegrees>43.1991083733737468719482421875</LatitudeDegrees>
              <LongitudeDegrees>-2.011177651584148406982421875</LongitudeDegrees>
            </Position>
            <AltitudeMeters>107.59999847412109375</AltitudeMeters>
            <DistanceMeters>NAN</DistanceMeters>
          </Trackpoint>
          <Trackpoint>
            <Time>2021-08-13T09:04:05.000Z</Time>
            <Position>
              <LatitudeDegrees>43.19909504614770412445068359375</LatitudeDegrees>
              <LongitudeDegrees>-2.01118175871670246124267578125</LongitudeDegrees>
            </Position>
            <AltitudeMeters>107.59999847412109375</AltitudeMeters>
            <DistanceMeters>NAN</DistanceMeters>
          </Trackpoint>
          <Trackpoint>
            <Time>2021-08-13T09:04:06.000Z</Time>
            <Position>
              <LatitudeDegrees>43.1990862451493740081787109375</LatitudeDegrees>
              <LongitudeDegrees>-2.01118460856378078460693359375</LongitudeDegrees>
            </Position>
            <AltitudeMeters>107.59999847412109375</AltitudeMeters>
            <DistanceMeters>NAN</DistanceMeters>
          </Trackpoint>
          <Trackpoint>
            <Time>2021-08-13T09:04:07.000Z</Time>
            <Position>
              <LatitudeDegrees>43.1990812160074710845947265625</LatitudeDegrees>
              <LongitudeDegrees>-2.01118879951536655426025390625</LongitudeDegrees>
            </Position>
            <AltitudeMeters>107.8000030517578125</AltitudeMeters>
            <DistanceMeters>NAN</DistanceMeters>
          </Trackpoint>
          <Trackpoint>
            <Time>2021-08-13T09:04:08.000Z</Time>
            <Position>
              <LatitudeDegrees>43.199080042541027069091796875</LatitudeDegrees>
              <LongitudeDegrees>-2.011190392076969146728515625</LongitudeDegrees>
            </Position>
            <AltitudeMeters>107.8000030517578125</AltitudeMeters>
            <DistanceMeters>NAN</DistanceMeters>
          </Trackpoint>
          <Trackpoint>
            <Time>2021-08-13T09:04:09.000Z</Time>
            <Position>
              <LatitudeDegrees>43.199080042541027069091796875</LatitudeDegrees>
              <LongitudeDegrees>-2.011190392076969146728515625</LongitudeDegrees>
            </Position>
            <AltitudeMeters>107.8000030517578125</AltitudeMeters>
            <DistanceMeters>NAN</DistanceMeters>
          </Trackpoint>
          <Trackpoint>
            <Time>2021-08-13T09:04:59.000Z</Time>
            <Position>
              <LatitudeDegrees>43.1990564055740833282470703125</LatitudeDegrees>
              <LongitudeDegrees>-2.01119181700050830841064453125</LongitudeDegrees>
            </Position>
            <AltitudeMeters>107.8000030517578125</AltitudeMeters>
            <DistanceMeters>NAN</DistanceMeters>
          </Trackpoint>
          <Trackpoint>
            <Time>2021-08-13T09:05:42.000Z</Time>
            <Position>
              <LatitudeDegrees>43.19904483854770660400390625</LatitudeDegrees>
              <LongitudeDegrees>-2.0111887156963348388671875</LongitudeDegrees>
            </Position>
            <AltitudeMeters>107.8000030517578125</AltitudeMeters>
            <DistanceMeters>NAN</DistanceMeters>
          </Trackpoint>
          <Trackpoint>
            <Time>2021-08-13T09:05:44.000Z</Time>
            <Position>
              <LatitudeDegrees>43.19899412803351879119873046875</LatitudeDegrees>
              <LongitudeDegrees>-2.0111875422298908233642578125</LongitudeDegrees>
            </Position>
            <AltitudeMeters>107.8000030517578125</AltitudeMeters>
            <DistanceMeters>NAN</DistanceMeters>
          </Trackpoint>
          <Trackpoint>
            <Time>2021-08-13T09:05:49.000Z</Time>
            <Position>
              <LatitudeDegrees>43.1988156773149967193603515625</LatitudeDegrees>
              <LongitudeDegrees>-2.01119500212371349334716796875</LongitudeDegrees>
            </Position>
            <AltitudeMeters>108</AltitudeMeters>
            <DistanceMeters>NAN</DistanceMeters>
          </Trackpoint>
          <Trackpoint>
            <Time>2021-08-13T09:05:53.000Z</Time>
            <Position>
              <LatitudeDegrees>43.19866354577243328094482421875</LatitudeDegrees>
              <LongitudeDegrees>-2.0111570321023464202880859375</LongitudeDegrees>
            </Position>
            <AltitudeMeters>108.40000152587890625</AltitudeMeters>
            <DistanceMeters>NAN</DistanceMeters>
          </Trackpoint>
          <Trackpoint>
            <Time>2021-08-13T09:05:54.000Z</Time>
            <Position>
              <LatitudeDegrees>43.1986275874078273773193359375</LatitudeDegrees>
              <LongitudeDegrees>-2.011143453419208526611328125</LongitudeDegrees>
            </Position>
            <AltitudeMeters>108.40000152587890625</AltitudeMeters>
            <DistanceMeters>NAN</DistanceMeters>
          </Trackpoint>
          <Trackpoint>
            <Time>2021-08-13T09:05:55.000Z</Time>
            <Position>
              <LatitudeDegrees>43.1986275874078273773193359375</LatitudeDegrees>
              <LongitudeDegrees>-2.011143453419208526611328125</LongitudeDegrees>
            </Position>
            <AltitudeMeters>108.59999847412109375</AltitudeMeters>
            <DistanceMeters>NAN</DistanceMeters>
          </Trackpoint>
          <Trackpoint>
            <Time>2021-08-13T09:05:56.000Z</Time>
            <Position>
              <LatitudeDegrees>43.1985575146973133087158203125</LatitudeDegrees>
              <LongitudeDegrees>-2.01110984198749065399169921875</LongitudeDegrees>
            </Position>
            <AltitudeMeters>108.59999847412109375</AltitudeMeters>
            <DistanceMeters>NAN</DistanceMeters>
          </Trackpoint>
          <Trackpoint>
            <Time>2021-08-13T09:06:00.000Z</Time>
            <Position>
              <LatitudeDegrees>43.198426924645900726318359375</LatitudeDegrees>
              <LongitudeDegrees>-2.0110224187374114990234375</LongitudeDegrees>
            </Position>
            <AltitudeMeters>108.8000030517578125</AltitudeMeters>
            <DistanceMeters>NAN</DistanceMeters>
          </Trackpoint>
          <Trackpoint>
            <Time>2021-08-13T09:06:01.000Z</Time>
            <Position>
              <LatitudeDegrees>43.19838928990066051483154296875</LatitudeDegrees>
              <LongitudeDegrees>-2.0110101811587810516357421875</LongitudeDegrees>
            </Position>
            <AltitudeMeters>109</AltitudeMeters>
            <DistanceMeters>NAN</DistanceMeters>
          </Trackpoint>
          <Trackpoint>
            <Time>2021-08-13T09:06:02.000Z</Time>
            <Position>
              <LatitudeDegrees>43.19835626520216464996337890625</LatitudeDegrees>
              <LongitudeDegrees>-2.01099517755210399627685546875</LongitudeDegrees>
            </Position>
            <AltitudeMeters>109</AltitudeMeters>
            <DistanceMeters>NAN</DistanceMeters>
          </Trackpoint>
          <Trackpoint>
            <Time>2021-08-13T09:06:07.000Z</Time>
            <Position>
              <LatitudeDegrees>43.19815996102988719940185546875</LatitudeDegrees>
              <LongitudeDegrees>-2.0109189860522747039794921875</LongitudeDegrees>
            </Position>
            <AltitudeMeters>109.40000152587890625</AltitudeMeters>
            <DistanceMeters>NAN</DistanceMeters>
          </Trackpoint>
          <Trackpoint>
            <Time>2021-08-13T09:06:09.000Z</Time>
            <Position>
              <LatitudeDegrees>43.19808058440685272216796875</LatitudeDegrees>
              <LongitudeDegrees>-2.01087825000286102294921875</LongitudeDegrees>
            </Position>
            <AltitudeMeters>109.8000030517578125</AltitudeMeters>
            <DistanceMeters>NAN</DistanceMeters>
          </Trackpoint>
          <Trackpoint>
            <Time>2021-08-13T09:06:15.000Z</Time>
            <Position>
              <LatitudeDegrees>43.19783541373908519744873046875</LatitudeDegrees>
              <LongitudeDegrees>-2.01075813733041286468505859375</LongitudeDegrees>
            </Position>
            <AltitudeMeters>110.1999969482421875</AltitudeMeters>
            <DistanceMeters>NAN</DistanceMeters>
          </Trackpoint>
          <Trackpoint>
            <Time>2021-08-13T09:06:20.000Z</Time>
            <Position>
              <LatitudeDegrees>43.197645060718059539794921875</LatitudeDegrees>
              <LongitudeDegrees>-2.0106898248195648193359375</LongitudeDegrees>
            </Position>
            <AltitudeMeters>110.40000152587890625</AltitudeMeters>
            <DistanceMeters>NAN</DistanceMeters>
          </Trackpoint>
          <Trackpoint>
            <Time>2021-08-13T09:06:23.000Z</Time>
            <Position>
              <LatitudeDegrees>43.197534084320068359375</LatitudeDegrees>
              <LongitudeDegrees>-2.01063576154410839080810546875</LongitudeDegrees>
            </Position>
            <AltitudeMeters>110.8000030517578125</AltitudeMeters>
            <DistanceMeters>NAN</DistanceMeters>
          </Trackpoint>
          <Trackpoint>
            <Time>2021-08-13T09:06:24.000Z</Time>
            <Position>
              <LatitudeDegrees>43.19750097580254077911376953125</LatitudeDegrees>
              <LongitudeDegrees>-2.010613717138767242431640625</LongitudeDegrees>
            </Position>
            <AltitudeMeters>110.8000030517578125</AltitudeMeters>
            <DistanceMeters>NAN</DistanceMeters>
          </Trackpoint>
          <Trackpoint>
            <Time>2021-08-13T09:06:25.000Z</Time>
            <Position>
              <LatitudeDegrees>43.19746962748467922210693359375</LatitudeDegrees>
              <LongitudeDegrees>-2.0105879008769989013671875</LongitudeDegrees>
            </Position>
            <AltitudeMeters>111</AltitudeMeters>
            <DistanceMeters>NAN</DistanceMeters>
          </Trackpoint>
          <Trackpoint>
            <Time>2021-08-13T09:06:26.000Z</Time>
            <Position>
              <LatitudeDegrees>43.19743559695780277252197265625</LatitudeDegrees>
              <LongitudeDegrees>-2.01057256199419498443603515625</LongitudeDegrees>
            </Position>
            <AltitudeMeters>111</AltitudeMeters>
            <DistanceMeters>NAN</DistanceMeters>
          </Trackpoint>
          <Trackpoint>
            <Time>2021-08-13T09:06:30.000Z</Time>
            <Position>
              <LatitudeDegrees>43.19729427807033061981201171875</LatitudeDegrees>
              <LongitudeDegrees>-2.010536603629589080810546875</LongitudeDegrees>
            </Position>
            <AltitudeMeters>111.40000152587890625</AltitudeMeters>
            <DistanceMeters>NAN</DistanceMeters>
          </Trackpoint>
          <Trackpoint>
            <Time>2021-08-13T09:06:34.000Z</Time>
            <Position>
              <LatitudeDegrees>43.1971704773604869842529296875</LatitudeDegrees>
              <LongitudeDegrees>-2.0104848034679889678955078125</LongitudeDegrees>
            </Position>
            <AltitudeMeters>111.8000030517578125</AltitudeMeters>
            <DistanceMeters>NAN</DistanceMeters>
          </Trackpoint>
          <Trackpoint>
            <Time>2021-08-13T09:06:35.000Z</Time>
            <Position>
              <LatitudeDegrees>43.19714223034679889678955078125</LatitudeDegrees>
              <LongitudeDegrees>-2.01047466136515140533447265625</LongitudeDegrees>
            </Position>
            <AltitudeMeters>112</AltitudeMeters>
            <DistanceMeters>NAN</DistanceMeters>
          </Trackpoint>
          <Trackpoint>
            <Time>2021-08-13T09:06:37.000Z</Time>
            <Position>
              <LatitudeDegrees>43.19709512405097484588623046875</LatitudeDegrees>
              <LongitudeDegrees>-2.01044901274144649505615234375</LongitudeDegrees>
            </Position>
            <AltitudeMeters>112.1999969482421875</AltitudeMeters>
            <DistanceMeters>NAN</DistanceMeters>
          </Trackpoint>
          <Trackpoint>
            <Time>2021-08-13T09:06:38.000Z</Time>
            <Position>
              <LatitudeDegrees>43.19709512405097484588623046875</LatitudeDegrees>
              <LongitudeDegrees>-2.01044901274144649505615234375</LongitudeDegrees>
            </Position>
            <AltitudeMeters>112.1999969482421875</AltitudeMeters>
            <DistanceMeters>NAN</DistanceMeters>
          </Trackpoint>
          <Trackpoint>
            <Time>2021-08-13T09:06:39.000Z</Time>
            <Position>
              <LatitudeDegrees>43.19704986177384853363037109375</LatitudeDegrees>
              <LongitudeDegrees>-2.01042990200221538543701171875</LongitudeDegrees>
            </Position>
            <AltitudeMeters>112.1999969482421875</AltitudeMeters>
            <DistanceMeters>NAN</DistanceMeters>
          </Trackpoint>
          <Trackpoint>
            <Time>2021-08-13T09:06:40.000Z</Time>
            <Position>
              <LatitudeDegrees>43.19702572189271450042724609375</LatitudeDegrees>
              <LongitudeDegrees>-2.01042252592742443084716796875</LongitudeDegrees>
            </Position>
            <AltitudeMeters>112.40000152587890625</AltitudeMeters>
            <DistanceMeters>NAN</DistanceMeters>
          </Trackpoint>
          <Trackpoint>
            <Time>2021-08-13T09:06:44.000Z</Time>
            <Position>
              <LatitudeDegrees>43.19692933000624179840087890625</LatitudeDegrees>
              <LongitudeDegrees>-2.0103587396442890167236328125</LongitudeDegrees>
            </Position>
            <AltitudeMeters>112.59999847412109375</AltitudeMeters>
            <DistanceMeters>NAN</DistanceMeters>
          </Trackpoint>
          <Trackpoint>
            <Time>2021-08-13T09:06:45.000Z</Time>
            <Position>
              <LatitudeDegrees>43.196899406611919403076171875</LatitudeDegrees>
              <LongitudeDegrees>-2.01034775935113430023193359375</LongitudeDegrees>
            </Position>
            <AltitudeMeters>112.59999847412109375</AltitudeMeters>
            <DistanceMeters>NAN</DistanceMeters>
          </Trackpoint>
          <Trackpoint>
            <Time>2021-08-13T09:06:46.000Z</Time>
            <Position>
              <LatitudeDegrees>43.19687166251242160797119140625</LatitudeDegrees>
              <LongitudeDegrees>-2.01033300720155239105224609375</LongitudeDegrees>
            </Position>
            <AltitudeMeters>112.8000030517578125</AltitudeMeters>
            <DistanceMeters>NAN</DistanceMeters>
          </Trackpoint>
          <Trackpoint>
            <Time>2021-08-13T09:06:47.000Z</Time>
            <Position>
              <LatitudeDegrees>43.19684836082160472869873046875</LatitudeDegrees>
              <LongitudeDegrees>-2.01030652038753032684326171875</LongitudeDegrees>
            </Position>
            <AltitudeMeters>112.8000030517578125</AltitudeMeters>
            <DistanceMeters>NAN</DistanceMeters>
          </Trackpoint>
          <Trackpoint>
            <Time>2021-08-13T09:06:50.000Z</Time>
            <Position>
              <LatitudeDegrees>43.1967661343514919281005859375</LatitudeDegrees>
              <LongitudeDegrees>-2.0102474279701709747314453125</LongitudeDegrees>
            </Position>
            <AltitudeMeters>113</AltitudeMeters>
            <DistanceMeters>NAN</DistanceMeters>
          </Trackpoint>
          <Trackpoint>
            <Time>2021-08-13T09:06:59.000Z</Time>
            <Position>
              <LatitudeDegrees>43.1965317763388156890869140625</LatitudeDegrees>
              <LongitudeDegrees>-2.01003964059054851531982421875</LongitudeDegrees>
            </Position>
            <AltitudeMeters>113.59999847412109375</AltitudeMeters>
            <DistanceMeters>NAN</DistanceMeters>
          </Trackpoint>
          <Trackpoint>
            <Time>2021-08-13T09:07:00.000Z</Time>
            <Position>
              <LatitudeDegrees>43.19650671444833278656005859375</LatitudeDegrees>
              <LongitudeDegrees>-2.01002153567969799041748046875</LongitudeDegrees>
            </Position>
            <AltitudeMeters>113.59999847412109375</AltitudeMeters>
            <DistanceMeters>NAN</DistanceMeters>
          </Trackpoint>
          <Trackpoint>
            <Time>2021-08-13T09:07:01.000Z</Time>
            <Position>
              <LatitudeDegrees>43.19648223929107189178466796875</LatitudeDegrees>
              <LongitudeDegrees>-2.01000326313078403472900390625</LongitudeDegrees>
            </Position>
            <AltitudeMeters>113.8000030517578125</AltitudeMeters>
            <DistanceMeters>NAN</DistanceMeters>
          </Trackpoint>
          <Trackpoint>
            <Time>2021-08-13T09:07:02.000Z</Time>
            <Position>
              <LatitudeDegrees>43.1964566744863986968994140625</LatitudeDegrees>
              <LongitudeDegrees>-2.00998834334313869476318359375</LongitudeDegrees>
            </Position>
            <AltitudeMeters>113.8000030517578125</AltitudeMeters>
            <DistanceMeters>NAN</DistanceMeters>
          </Trackpoint>
          <Trackpoint>
            <Time>2021-08-13T09:07:04.000Z</Time>
            <Position>
              <LatitudeDegrees>43.19640730507671833038330078125</LatitudeDegrees>
              <LongitudeDegrees>-2.00996135361492633819580078125</LongitudeDegrees>
            </Position>
            <AltitudeMeters>114.1999969482421875</AltitudeMeters>
            <DistanceMeters>NAN</DistanceMeters>
          </Trackpoint>
          <Trackpoint>
            <Time>2021-08-13T09:07:05.000Z</Time>
            <Position>
              <LatitudeDegrees>43.1963775493204593658447265625</LatitudeDegrees>
              <LongitudeDegrees>-2.0099443383514881134033203125</LongitudeDegrees>
            </Position>
            <AltitudeMeters>114.1999969482421875</AltitudeMeters>
            <DistanceMeters>NAN</DistanceMeters>
          </Trackpoint>
          <Trackpoint>
            <Time>2021-08-13T09:07:06.000Z</Time>
            <Position>
              <LatitudeDegrees>43.1963540799915790557861328125</LatitudeDegrees>
              <LongitudeDegrees>-2.00992874801158905029296875</LongitudeDegrees>
            </Position>
            <AltitudeMeters>114.1999969482421875</AltitudeMeters>
            <DistanceMeters>NAN</DistanceMeters>
          </Trackpoint>
          <Trackpoint>
            <Time>2021-08-13T09:07:07.000Z</Time>
            <Position>
              <LatitudeDegrees>43.19633371196687221527099609375</LatitudeDegrees>
              <LongitudeDegrees>-2.00991533696651458740234375</LongitudeDegrees>
            </Position>
            <AltitudeMeters>114.40000152587890625</AltitudeMeters>
            <DistanceMeters>NAN</DistanceMeters>
          </Trackpoint>
          <Trackpoint>
            <Time>2021-08-13T09:07:08.000Z</Time>
            <Position>
              <LatitudeDegrees>43.196313343942165374755859375</LatitudeDegrees>
              <LongitudeDegrees>-2.00990335084497928619384765625</LongitudeDegrees>
            </Position>
            <AltitudeMeters>114.40000152587890625</AltitudeMeters>
            <DistanceMeters>NAN</DistanceMeters>
          </Trackpoint>
          <Trackpoint>
            <Time>2021-08-13T09:07:09.000Z</Time>
            <Position>
              <LatitudeDegrees>43.1962940655648708343505859375</LatitudeDegrees>
              <LongitudeDegrees>-2.00988876633346080780029296875</LongitudeDegrees>
            </Position>
            <AltitudeMeters>114.40000152587890625</AltitudeMeters>
            <DistanceMeters>NAN</DistanceMeters>
          </Trackpoint>
          <Trackpoint>
            <Time>2021-08-13T09:07:10.000Z</Time>
            <Position>
              <LatitudeDegrees>43.1962940655648708343505859375</LatitudeDegrees>
              <LongitudeDegrees>-2.00988876633346080780029296875</LongitudeDegrees>
            </Position>
            <AltitudeMeters>114.40000152587890625</AltitudeMeters>
            <DistanceMeters>NAN</DistanceMeters>
          </Trackpoint>
          <Trackpoint>
            <Time>2021-08-13T09:07:11.000Z</Time>
            <Position>
              <LatitudeDegrees>43.19624997675418853759765625</LatitudeDegrees>
              <LongitudeDegrees>-2.00986303389072418212890625</LongitudeDegrees>
            </Position>
            <AltitudeMeters>114.40000152587890625</AltitudeMeters>
            <DistanceMeters>NAN</DistanceMeters>
          </Trackpoint>
          <Trackpoint>
            <Time>2021-08-13T09:07:12.000Z</Time>
            <Position>
              <LatitudeDegrees>43.1962273456156253814697265625</LatitudeDegrees>
              <LongitudeDegrees>-2.00984853319823741912841796875</LongitudeDegrees>
            </Position>
            <AltitudeMeters>114.40000152587890625</AltitudeMeters>
            <DistanceMeters>NAN</DistanceMeters>
          </Trackpoint>
          <Trackpoint>
            <Time>2021-08-13T09:07:13.000Z</Time>
            <Position>
              <LatitudeDegrees>43.1962048821151256561279296875</LatitudeDegrees>
              <LongitudeDegrees>-2.00983763672411441802978515625</LongitudeDegrees>
            </Position>
            <AltitudeMeters>114.59999847412109375</AltitudeMeters>
            <DistanceMeters>NAN</DistanceMeters>
          </Trackpoint>
          <Trackpoint>
            <Time>2021-08-13T09:07:14.000Z</Time>
            <Position>
              <LatitudeDegrees>43.19618158042430877685546875</LatitudeDegrees>
              <LongitudeDegrees>-2.00982372276484966278076171875</LongitudeDegrees>
            </Position>
            <AltitudeMeters>114.8000030517578125</AltitudeMeters>
            <DistanceMeters>NAN</DistanceMeters>
          </Trackpoint>
          <Trackpoint>
            <Time>2021-08-13T09:07:15.000Z</Time>
            <Position>
              <LatitudeDegrees>43.1961596198379993438720703125</LatitudeDegrees>
              <LongitudeDegrees>-2.00980762951076030731201171875</LongitudeDegrees>
            </Position>
            <AltitudeMeters>114.8000030517578125</AltitudeMeters>
            <DistanceMeters>NAN</DistanceMeters>
          </Trackpoint>
          <Trackpoint>
            <Time>2021-08-13T09:07:16.000Z</Time>
            <Position>
              <LatitudeDegrees>43.19613958708941936492919921875</LatitudeDegrees>
              <LongitudeDegrees>-2.00978835113346576690673828125</LongitudeDegrees>
            </Position>
            <AltitudeMeters>114.8000030517578125</AltitudeMeters>
            <DistanceMeters>NAN</DistanceMeters>
          </Trackpoint>
          <Trackpoint>
            <Time>2021-08-13T09:07:17.000Z</Time>
            <Position>
              <LatitudeDegrees>43.1961187161505222320556640625</LatitudeDegrees>
              <LongitudeDegrees>-2.0097726769745349884033203125</LongitudeDegrees>
            </Position>
            <AltitudeMeters>115</AltitudeMeters>
            <DistanceMeters>NAN</DistanceMeters>
          </Trackpoint>
          <Trackpoint>
            <Time>2021-08-13T09:07:18.000Z</Time>
            <Position>
              <LatitudeDegrees>43.1960945762693881988525390625</LatitudeDegrees>
              <LongitudeDegrees>-2.00976245105266571044921875</LongitudeDegrees>
            </Position>
            <AltitudeMeters>115</AltitudeMeters>
            <DistanceMeters>NAN</DistanceMeters>
          </Trackpoint>
          <Trackpoint>
            <Time>2021-08-13T09:07:20.000Z</Time>
            <Position>
              <LatitudeDegrees>43.19603028707206249237060546875</LatitudeDegrees>
              <LongitudeDegrees>-2.00975197367370128631591796875</LongitudeDegrees>
            </Position>
            <AltitudeMeters>114.8000030517578125</AltitudeMeters>
            <DistanceMeters>NAN</DistanceMeters>
          </Trackpoint>
          <Trackpoint>
            <Time>2021-08-13T09:07:21.000Z</Time>
            <Position>
              <LatitudeDegrees>43.19600815884768962860107421875</LatitudeDegrees>
              <LongitudeDegrees>-2.00973738916218280792236328125</LongitudeDegrees>
            </Position>
            <AltitudeMeters>114.8000030517578125</AltitudeMeters>
            <DistanceMeters>NAN</DistanceMeters>
          </Trackpoint>
          <Trackpoint>
            <Time>2021-08-13T09:07:23.000Z</Time>
            <Position>
              <LatitudeDegrees>43.195963315665721893310546875</LatitudeDegrees>
              <LongitudeDegrees>-2.0097109861671924591064453125</LongitudeDegrees>
            </Position>
            <AltitudeMeters>115</AltitudeMeters>
            <DistanceMeters>NAN</DistanceMeters>
          </Trackpoint>
          <Trackpoint>
            <Time>2021-08-13T09:07:27.000Z</Time>
            <Position>
              <LatitudeDegrees>43.195860721170902252197265625</LatitudeDegrees>
              <LongitudeDegrees>-2.009639739990234375</LongitudeDegrees>
            </Position>
            <AltitudeMeters>115.1999969482421875</AltitudeMeters>
            <DistanceMeters>NAN</DistanceMeters>
          </Trackpoint>
          <Trackpoint>
            <Time>2021-08-13T09:07:37.000Z</Time>
            <Position>
              <LatitudeDegrees>43.19561303593218326568603515625</LatitudeDegrees>
              <LongitudeDegrees>-2.0094635523855686187744140625</LongitudeDegrees>
            </Position>
            <AltitudeMeters>115.40000152587890625</AltitudeMeters>
            <DistanceMeters>NAN</DistanceMeters>
          </Trackpoint>
          <Trackpoint>
            <Time>2021-08-13T09:07:40.000Z</Time>
            <Position>
              <LatitudeDegrees>43.1955363415181636810302734375</LatitudeDegrees>
              <LongitudeDegrees>-2.009410075843334197998046875</LongitudeDegrees>
            </Position>
            <AltitudeMeters>115.40000152587890625</AltitudeMeters>
            <DistanceMeters>NAN</DistanceMeters>
          </Trackpoint>
          <Trackpoint>
            <Time>2021-08-13T09:07:43.000Z</Time>
            <Position>
              <LatitudeDegrees>43.19546165876090526580810546875</LatitudeDegrees>
              <LongitudeDegrees>-2.0093619637191295623779296875</LongitudeDegrees>
            </Position>
            <AltitudeMeters>115.59999847412109375</AltitudeMeters>
            <DistanceMeters>NAN</DistanceMeters>
          </Trackpoint>
          <Trackpoint>
            <Time>2021-08-13T09:07:46.000Z</Time>
            <Position>
              <LatitudeDegrees>43.1953915022313594818115234375</LatitudeDegrees>
              <LongitudeDegrees>-2.00930069200694561004638671875</LongitudeDegrees>
            </Position>
            <AltitudeMeters>115.59999847412109375</AltitudeMeters>
            <DistanceMeters>NAN</DistanceMeters>
          </Trackpoint>
          <Trackpoint>
            <Time>2021-08-13T09:07:47.000Z</Time>
            <Position>
              <LatitudeDegrees>43.19536350667476654052734375</LatitudeDegrees>
              <LongitudeDegrees>-2.0092882029712200164794921875</LongitudeDegrees>
            </Position>
            <AltitudeMeters>115.8000030517578125</AltitudeMeters>
            <DistanceMeters>NAN</DistanceMeters>
          </Trackpoint>
          <Trackpoint>
            <Time>2021-08-13T09:07:50.000Z</Time>
            <Position>
              <LatitudeDegrees>43.1952761672437191009521484375</LatitudeDegrees>
              <LongitudeDegrees>-2.00925760902464389801025390625</LongitudeDegrees>
            </Position>
            <AltitudeMeters>116.1999969482421875</AltitudeMeters>
            <DistanceMeters>NAN</DistanceMeters>
          </Trackpoint>
          <Trackpoint>
            <Time>2021-08-13T09:07:55.000Z</Time>
            <Position>
              <LatitudeDegrees>43.19514297880232334136962890625</LatitudeDegrees>
              <LongitudeDegrees>-2.009183429181575775146484375</LongitudeDegrees>
            </Position>
            <AltitudeMeters>116.40000152587890625</AltitudeMeters>
            <DistanceMeters>NAN</DistanceMeters>
          </Trackpoint>
          <Trackpoint>
            <Time>2021-08-13T09:07:58.000Z</Time>
            <Position>
              <LatitudeDegrees>43.19509754888713359832763671875</LatitudeDegrees>
              <LongitudeDegrees>-2.00914864428341388702392578125</LongitudeDegrees>
            </Position>
            <AltitudeMeters>116.59999847412109375</AltitudeMeters>
            <DistanceMeters>NAN</DistanceMeters>
          </Trackpoint>
          <Trackpoint>
            <Time>2021-08-13T09:08:00.000Z</Time>
            <Position>
              <LatitudeDegrees>43.19502462632954120635986328125</LatitudeDegrees>
              <LongitudeDegrees>-2.00909650884568691253662109375</LongitudeDegrees>
            </Position>
            <AltitudeMeters>116.59999847412109375</AltitudeMeters>
            <DistanceMeters>NAN</DistanceMeters>
          </Trackpoint>
          <Trackpoint>
            <Time>2021-08-13T09:08:01.000Z</Time>
            <Position>
              <LatitudeDegrees>43.1949998997151851654052734375</LatitudeDegrees>
              <LongitudeDegrees>-2.0090813376009464263916015625</LongitudeDegrees>
            </Position>
            <AltitudeMeters>116.59999847412109375</AltitudeMeters>
            <DistanceMeters>NAN</DistanceMeters>
          </Trackpoint>
          <Trackpoint>
            <Time>2021-08-13T09:08:02.000Z</Time>
            <Position>
              <LatitudeDegrees>43.19497534073889255523681640625</LatitudeDegrees>
              <LongitudeDegrees>-2.00906750746071338653564453125</LongitudeDegrees>
            </Position>
            <AltitudeMeters>116.59999847412109375</AltitudeMeters>
            <DistanceMeters>NAN</DistanceMeters>
          </Trackpoint>
          <Trackpoint>
            <Time>2021-08-13T09:08:03.000Z</Time>
            <Position>
              <LatitudeDegrees>43.1949506141245365142822265625</LatitudeDegrees>
              <LongitudeDegrees>-2.00904856435954570770263671875</LongitudeDegrees>
            </Position>
            <AltitudeMeters>116.8000030517578125</AltitudeMeters>
            <DistanceMeters>NAN</DistanceMeters>
          </Trackpoint>
          <Trackpoint>
            <Time>2021-08-13T09:08:04.000Z</Time>
            <Position>
              <LatitudeDegrees>43.19492504931986331939697265625</LatitudeDegrees>
              <LongitudeDegrees>-2.00902945362031459808349609375</LongitudeDegrees>
            </Position>
            <AltitudeMeters>116.8000030517578125</AltitudeMeters>
            <DistanceMeters>NAN</DistanceMeters>
          </Trackpoint>
          <Trackpoint>
            <Time>2021-08-13T09:08:05.000Z</Time>
            <Position>
              <LatitudeDegrees>43.1948988139629364013671875</LatitudeDegrees>
              <LongitudeDegrees>-2.00901369564235210418701171875</LongitudeDegrees>
            </Position>
            <AltitudeMeters>116.8000030517578125</AltitudeMeters>
            <DistanceMeters>NAN</DistanceMeters>
          </Trackpoint>
          <Trackpoint>
            <Time>2021-08-13T09:08:12.000Z</Time>
            <Position>
              <LatitudeDegrees>43.1947229616343975067138671875</LatitudeDegrees>
              <LongitudeDegrees>-2.00887120328843593597412109375</LongitudeDegrees>
            </Position>
            <AltitudeMeters>117.40000152587890625</AltitudeMeters>
            <DistanceMeters>NAN</DistanceMeters>
          </Trackpoint>
          <Trackpoint>
            <Time>2021-08-13T09:08:13.000Z</Time>
            <Position>
              <LatitudeDegrees>43.194695971906185150146484375</LatitudeDegrees>
              <LongitudeDegrees>-2.008857540786266326904296875</LongitudeDegrees>
            </Position>
            <AltitudeMeters>117.40000152587890625</AltitudeMeters>
            <DistanceMeters>NAN</DistanceMeters>
          </Trackpoint>
          <Trackpoint>
            <Time>2021-08-13T09:08:18.000Z</Time>
            <Position>
              <LatitudeDegrees>43.19456496275961399078369140625</LatitudeDegrees>
              <LongitudeDegrees>-2.00877246446907520294189453125</LongitudeDegrees>
            </Position>
            <AltitudeMeters>117.59999847412109375</AltitudeMeters>
            <DistanceMeters>NAN</DistanceMeters>
          </Trackpoint>
          <Trackpoint>
            <Time>2021-08-13T09:08:19.000Z</Time>
            <Position>
              <LatitudeDegrees>43.19454099051654338836669921875</LatitudeDegrees>
              <LongitudeDegrees>-2.0087386853992938995361328125</LongitudeDegrees>
            </Position>
            <AltitudeMeters>117.59999847412109375</AltitudeMeters>
            <DistanceMeters>NAN</DistanceMeters>
          </Trackpoint>
          <Trackpoint>
            <Time>2021-08-13T09:08:20.000Z</Time>
            <Position>
              <LatitudeDegrees>43.1945174373686313629150390625</LatitudeDegrees>
              <LongitudeDegrees>-2.00871798209846019744873046875</LongitudeDegrees>
            </Position>
            <AltitudeMeters>117.8000030517578125</AltitudeMeters>
            <DistanceMeters>NAN</DistanceMeters>
          </Trackpoint>
          <Trackpoint>
            <Time>2021-08-13T09:08:27.000Z</Time>
            <Position>
              <LatitudeDegrees>43.19435088895261287689208984375</LatitudeDegrees>
              <LongitudeDegrees>-2.00858370400965213775634765625</LongitudeDegrees>
            </Position>
            <AltitudeMeters>118.40000152587890625</AltitudeMeters>
            <DistanceMeters>NAN</DistanceMeters>
          </Trackpoint>
          <Trackpoint>
            <Time>2021-08-13T09:08:28.000Z</Time>
            <Position>
              <LatitudeDegrees>43.19432993419468402862548828125</LatitudeDegrees>
              <LongitudeDegrees>-2.00856878422200679779052734375</LongitudeDegrees>
            </Position>
            <AltitudeMeters>118.40000152587890625</AltitudeMeters>
            <DistanceMeters>NAN</DistanceMeters>
          </Trackpoint>
          <Trackpoint>
            <Time>2021-08-13T09:08:29.000Z</Time>
            <Position>
              <LatitudeDegrees>43.1943132542073726654052734375</LatitudeDegrees>
              <LongitudeDegrees>-2.00855411589145660400390625</LongitudeDegrees>
            </Position>
            <AltitudeMeters>118.40000152587890625</AltitudeMeters>
            <DistanceMeters>NAN</DistanceMeters>
          </Trackpoint>
          <Trackpoint>
            <Time>2021-08-13T09:08:30.000Z</Time>
            <Position>
              <LatitudeDegrees>43.1942971609532833099365234375</LatitudeDegrees>
              <LongitudeDegrees>-2.00853877700865268707275390625</LongitudeDegrees>
            </Position>
            <AltitudeMeters>118.40000152587890625</AltitudeMeters>
            <DistanceMeters>NAN</DistanceMeters>
          </Trackpoint>
          <Trackpoint>
            <Time>2021-08-13T09:08:31.000Z</Time>
            <Position>
              <LatitudeDegrees>43.19427947513759136199951171875</LatitudeDegrees>
              <LongitudeDegrees>-2.008520923554897308349609375</LongitudeDegrees>
            </Position>
            <AltitudeMeters>118.40000152587890625</AltitudeMeters>
            <DistanceMeters>NAN</DistanceMeters>
          </Trackpoint>
          <Trackpoint>
            <Time>2021-08-13T09:08:32.000Z</Time>
            <Position>
              <LatitudeDegrees>43.19425952620804309844970703125</LatitudeDegrees>
              <LongitudeDegrees>-2.008505165576934814453125</LongitudeDegrees>
            </Position>
            <AltitudeMeters>118.59999847412109375</AltitudeMeters>
            <DistanceMeters>NAN</DistanceMeters>
          </Trackpoint>
          <Trackpoint>
            <Time>2021-08-13T09:08:33.000Z</Time>
            <Position>
              <LatitudeDegrees>43.19423622451722621917724609375</LatitudeDegrees>
              <LongitudeDegrees>-2.00849066488444805145263671875</LongitudeDegrees>
            </Position>
            <AltitudeMeters>118.59999847412109375</AltitudeMeters>
            <DistanceMeters>NAN</DistanceMeters>
          </Trackpoint>
          <Trackpoint>
            <Time>2021-08-13T09:08:34.000Z</Time>
            <Position>
              <LatitudeDegrees>43.19421241991221904754638671875</LatitudeDegrees>
              <LongitudeDegrees>-2.00847230851650238037109375</LongitudeDegrees>
            </Position>
            <AltitudeMeters>118.59999847412109375</AltitudeMeters>
            <DistanceMeters>NAN</DistanceMeters>
          </Trackpoint>
          <Trackpoint>
            <Time>2021-08-13T09:08:35.000Z</Time>
            <Position>
              <LatitudeDegrees>43.19419247098267078399658203125</LatitudeDegrees>
              <LongitudeDegrees>-2.00845059938728809356689453125</LongitudeDegrees>
            </Position>
            <AltitudeMeters>118.59999847412109375</AltitudeMeters>
            <DistanceMeters>NAN</DistanceMeters>
          </Trackpoint>
          <Trackpoint>
            <Time>2021-08-13T09:08:36.000Z</Time>
            <Position>
              <LatitudeDegrees>43.1941734440624713897705078125</LatitudeDegrees>
              <LongitudeDegrees>-2.00843584723770618438720703125</LongitudeDegrees>
            </Position>
            <AltitudeMeters>118.59999847412109375</AltitudeMeters>
            <DistanceMeters>NAN</DistanceMeters>
          </Trackpoint>
          <Trackpoint>
            <Time>2021-08-13T09:08:37.000Z</Time>
            <Position>
              <LatitudeDegrees>43.1941523216664791107177734375</LatitudeDegrees>
              <LongitudeDegrees>-2.00842360965907573699951171875</LongitudeDegrees>
            </Position>
            <AltitudeMeters>118.59999847412109375</AltitudeMeters>
            <DistanceMeters>NAN</DistanceMeters>
          </Trackpoint>
          <Trackpoint>
            <Time>2021-08-13T09:08:38.000Z</Time>
            <Position>
              <LatitudeDegrees>43.19412943907082080841064453125</LatitudeDegrees>
              <LongitudeDegrees>-2.00840936042368412017822265625</LongitudeDegrees>
            </Position>
            <AltitudeMeters>118.8000030517578125</AltitudeMeters>
            <DistanceMeters>NAN</DistanceMeters>
          </Trackpoint>
          <Trackpoint>
            <Time>2021-08-13T09:08:39.000Z</Time>
            <Position>
              <LatitudeDegrees>43.194105215370655059814453125</LatitudeDegrees>
              <LongitudeDegrees>-2.00840231962502002716064453125</LongitudeDegrees>
            </Position>
            <AltitudeMeters>118.8000030517578125</AltitudeMeters>
            <DistanceMeters>NAN</DistanceMeters>
          </Trackpoint>
          <Trackpoint>
            <Time>2021-08-13T09:08:40.000Z</Time>
            <Position>
              <LatitudeDegrees>43.194076716899871826171875</LatitudeDegrees>
              <LongitudeDegrees>-2.0083923451602458953857421875</LongitudeDegrees>
            </Position>
            <AltitudeMeters>118.8000030517578125</AltitudeMeters>
            <DistanceMeters>NAN</DistanceMeters>
          </Trackpoint>
          <Trackpoint>
            <Time>2021-08-13T09:08:41.000Z</Time>
            <Position>
              <LatitudeDegrees>43.194076716899871826171875</LatitudeDegrees>
              <LongitudeDegrees>-2.0083923451602458953857421875</LongitudeDegrees>
            </Position>
            <AltitudeMeters>119</AltitudeMeters>
            <DistanceMeters>NAN</DistanceMeters>
          </Trackpoint>
          <Trackpoint>
            <Time>2021-08-13T09:08:42.000Z</Time>
            <Position>
              <LatitudeDegrees>43.1940275989472866058349609375</LatitudeDegrees>
              <LongitudeDegrees>-2.0083641819655895233154296875</LongitudeDegrees>
            </Position>
            <AltitudeMeters>119</AltitudeMeters>
            <DistanceMeters>NAN</DistanceMeters>
          </Trackpoint>
          <Trackpoint>
            <Time>2021-08-13T09:08:43.000Z</Time>
            <Position>
              <LatitudeDegrees>43.1940041296184062957763671875</LatitudeDegrees>
              <LongitudeDegrees>-2.0083480887115001678466796875</LongitudeDegrees>
            </Position>
            <AltitudeMeters>119.1999969482421875</AltitudeMeters>
            <DistanceMeters>NAN</DistanceMeters>
          </Trackpoint>
          <Trackpoint>
            <Time>2021-08-13T09:08:44.000Z</Time>
            <Position>
              <LatitudeDegrees>43.1939793191850185394287109375</LatitudeDegrees>
              <LongitudeDegrees>-2.00833425857126712799072265625</LongitudeDegrees>
            </Position>
            <AltitudeMeters>119.1999969482421875</AltitudeMeters>
            <DistanceMeters>NAN</DistanceMeters>
          </Trackpoint>
          <Trackpoint>
            <Time>2021-08-13T09:08:46.000Z</Time>
            <Position>
              <LatitudeDegrees>43.19393849931657314300537109375</LatitudeDegrees>
              <LongitudeDegrees>-2.0083001442253589630126953125</LongitudeDegrees>
            </Position>
            <AltitudeMeters>119.40000152587890625</AltitudeMeters>
            <DistanceMeters>NAN</DistanceMeters>
          </Trackpoint>
          <Trackpoint>
            <Time>2021-08-13T09:08:52.000Z</Time>
            <Position>
              <LatitudeDegrees>43.1937952525913715362548828125</LatitudeDegrees>
              <LongitudeDegrees>-2.00819394551217555999755859375</LongitudeDegrees>
            </Position>
            <AltitudeMeters>119.59999847412109375</AltitudeMeters>
            <DistanceMeters>NAN</DistanceMeters>
          </Trackpoint>
          <Trackpoint>
            <Time>2021-08-13T09:08:55.000Z</Time>
            <Position>
              <LatitudeDegrees>43.1937253475189208984375</LatitudeDegrees>
              <LongitudeDegrees>-2.00814818032085895538330078125</LongitudeDegrees>
            </Position>
            <AltitudeMeters>120</AltitudeMeters>
            <DistanceMeters>NAN</DistanceMeters>
          </Trackpoint>
          <Trackpoint>
            <Time>2021-08-13T09:08:58.000Z</Time>
            <Position>
              <LatitudeDegrees>43.19365636445581912994384765625</LatitudeDegrees>
              <LongitudeDegrees>-2.0080916024744510650634765625</LongitudeDegrees>
            </Position>
            <AltitudeMeters>120.1999969482421875</AltitudeMeters>
            <DistanceMeters>NAN</DistanceMeters>
          </Trackpoint>
          <Trackpoint>
            <Time>2021-08-13T09:09:00.000Z</Time>
            <Position>
              <LatitudeDegrees>43.19361411966383457183837890625</LatitudeDegrees>
              <LongitudeDegrees>-2.0080510340631008148193359375</LongitudeDegrees>
            </Position>
            <AltitudeMeters>120.1999969482421875</AltitudeMeters>
            <DistanceMeters>NAN</DistanceMeters>
          </Trackpoint>
          <Trackpoint>
            <Time>2021-08-13T09:09:06.000Z</Time>
            <Position>
              <LatitudeDegrees>43.193465173244476318359375</LatitudeDegrees>
              <LongitudeDegrees>-2.0079420693218708038330078125</LongitudeDegrees>
            </Position>
            <AltitudeMeters>120.59999847412109375</AltitudeMeters>
            <DistanceMeters>NAN</DistanceMeters>
          </Trackpoint>
          <Trackpoint>
            <Time>2021-08-13T09:09:16.000Z</Time>
            <Position>
              <LatitudeDegrees>43.19324045442044734954833984375</LatitudeDegrees>
              <LongitudeDegrees>-2.00770947150886058807373046875</LongitudeDegrees>
            </Position>
            <AltitudeMeters>121.1999969482421875</AltitudeMeters>
            <DistanceMeters>NAN</DistanceMeters>
          </Trackpoint>
          <Trackpoint>
            <Time>2021-08-13T09:09:17.000Z</Time>
            <Position>
              <LatitudeDegrees>43.1932219304144382476806640625</LatitudeDegrees>
              <LongitudeDegrees>-2.00768910348415374755859375</LongitudeDegrees>
            </Position>
            <AltitudeMeters>121.1999969482421875</AltitudeMeters>
            <DistanceMeters>NAN</DistanceMeters>
          </Trackpoint>
          <Trackpoint>
            <Time>2021-08-13T09:09:18.000Z</Time>
            <Position>
              <LatitudeDegrees>43.1932031549513339996337890625</LatitudeDegrees>
              <LongitudeDegrees>-2.00766974128782749176025390625</LongitudeDegrees>
            </Position>
            <AltitudeMeters>121.40000152587890625</AltitudeMeters>
            <DistanceMeters>NAN</DistanceMeters>
          </Trackpoint>
          <Trackpoint>
            <Time>2021-08-13T09:09:19.000Z</Time>
            <Position>
              <LatitudeDegrees>43.19318463094532489776611328125</LatitudeDegrees>
              <LongitudeDegrees>-2.00764962472021579742431640625</LongitudeDegrees>
            </Position>
            <AltitudeMeters>121.40000152587890625</AltitudeMeters>
            <DistanceMeters>NAN</DistanceMeters>
          </Trackpoint>
          <Trackpoint>
            <Time>2021-08-13T09:09:20.000Z</Time>
            <Position>
              <LatitudeDegrees>43.19316702894866466522216796875</LatitudeDegrees>
              <LongitudeDegrees>-2.00762808322906494140625</LongitudeDegrees>
            </Position>
            <AltitudeMeters>121.40000152587890625</AltitudeMeters>
            <DistanceMeters>NAN</DistanceMeters>
          </Trackpoint>
          <Trackpoint>
            <Time>2021-08-13T09:09:21.000Z</Time>
            <Position>
              <LatitudeDegrees>43.19314557127654552459716796875</LatitudeDegrees>
              <LongitudeDegrees>-2.0076026022434234619140625</LongitudeDegrees>
            </Position>
            <AltitudeMeters>121.59999847412109375</AltitudeMeters>
            <DistanceMeters>NAN</DistanceMeters>
          </Trackpoint>
          <Trackpoint>
            <Time>2021-08-13T09:09:22.000Z</Time>
            <Position>
              <LatitudeDegrees>43.1931290589272975921630859375</LatitudeDegrees>
              <LongitudeDegrees>-2.00758391059935092926025390625</LongitudeDegrees>
            </Position>
            <AltitudeMeters>121.59999847412109375</AltitudeMeters>
            <DistanceMeters>NAN</DistanceMeters>
          </Trackpoint>
          <Trackpoint>
            <Time>2021-08-13T09:09:23.000Z</Time>
            <Position>
              <LatitudeDegrees>43.19311321713030338287353515625</LatitudeDegrees>
              <LongitudeDegrees>-2.00755842961370944976806640625</LongitudeDegrees>
            </Position>
            <AltitudeMeters>121.8000030517578125</AltitudeMeters>
            <DistanceMeters>NAN</DistanceMeters>
          </Trackpoint>
          <Trackpoint>
            <Time>2021-08-13T09:09:24.000Z</Time>
            <Position>
              <LatitudeDegrees>43.1930995546281337738037109375</LatitudeDegrees>
              <LongitudeDegrees>-2.007531858980655670166015625</LongitudeDegrees>
            </Position>
            <AltitudeMeters>121.8000030517578125</AltitudeMeters>
            <DistanceMeters>NAN</DistanceMeters>
          </Trackpoint>
          <Trackpoint>
            <Time>2021-08-13T09:09:25.000Z</Time>
            <Position>
              <LatitudeDegrees>43.1930816173553466796875</LatitudeDegrees>
              <LongitudeDegrees>-2.00750595889985561370849609375</LongitudeDegrees>
            </Position>
            <AltitudeMeters>122</AltitudeMeters>
            <DistanceMeters>NAN</DistanceMeters>
          </Trackpoint>
          <Trackpoint>
            <Time>2021-08-13T09:09:26.000Z</Time>
            <Position>
              <LatitudeDegrees>43.1930816173553466796875</LatitudeDegrees>
              <LongitudeDegrees>-2.00750595889985561370849609375</LongitudeDegrees>
            </Position>
            <AltitudeMeters>122</AltitudeMeters>
            <DistanceMeters>NAN</DistanceMeters>
          </Trackpoint>
          <Trackpoint>
            <Time>2021-08-13T09:09:27.000Z</Time>
            <Position>
              <LatitudeDegrees>43.1930522806942462921142578125</LatitudeDegrees>
              <LongitudeDegrees>-2.00745315290987491607666015625</LongitudeDegrees>
            </Position>
            <AltitudeMeters>122</AltitudeMeters>
            <DistanceMeters>NAN</DistanceMeters>
          </Trackpoint>
          <Trackpoint>
            <Time>2021-08-13T09:09:28.000Z</Time>
            <Position>
              <LatitudeDegrees>43.193035684525966644287109375</LatitudeDegrees>
              <LongitudeDegrees>-2.00742566026747226715087890625</LongitudeDegrees>
            </Position>
            <AltitudeMeters>122.1999969482421875</AltitudeMeters>
            <DistanceMeters>NAN</DistanceMeters>
          </Trackpoint>
          <Trackpoint>
            <Time>2021-08-13T09:09:29.000Z</Time>
            <Position>
              <LatitudeDegrees>43.1930157355964183807373046875</LatitudeDegrees>
              <LongitudeDegrees>-2.0074029453098773956298828125</LongitudeDegrees>
            </Position>
            <AltitudeMeters>122.40000152587890625</AltitudeMeters>
            <DistanceMeters>NAN</DistanceMeters>
          </Trackpoint>
          <Trackpoint>
            <Time>2021-08-13T09:09:30.000Z</Time>
            <Position>
              <LatitudeDegrees>43.192996121942996978759765625</LatitudeDegrees>
              <LongitudeDegrees>-2.00738090090453624725341796875</LongitudeDegrees>
            </Position>
            <AltitudeMeters>122.40000152587890625</AltitudeMeters>
            <DistanceMeters>NAN</DistanceMeters>
          </Trackpoint>
          <Trackpoint>
            <Time>2021-08-13T09:09:31.000Z</Time>
            <Position>
              <LatitudeDegrees>43.19297642447054386138916015625</LatitudeDegrees>
              <LongitudeDegrees>-2.0073596946895122528076171875</LongitudeDegrees>
            </Position>
            <AltitudeMeters>122.59999847412109375</AltitudeMeters>
            <DistanceMeters>NAN</DistanceMeters>
          </Trackpoint>
          <Trackpoint>
            <Time>2021-08-13T09:09:32.000Z</Time>
            <Position>
              <LatitudeDegrees>43.19295748136937618255615234375</LatitudeDegrees>
              <LongitudeDegrees>-2.007335387170314788818359375</LongitudeDegrees>
            </Position>
            <AltitudeMeters>122.59999847412109375</AltitudeMeters>
            <DistanceMeters>NAN</DistanceMeters>
          </Trackpoint>
          <Trackpoint>
            <Time>2021-08-13T09:09:33.000Z</Time>
            <Position>
              <LatitudeDegrees>43.19294339977204799652099609375</LatitudeDegrees>
              <LongitudeDegrees>-2.00730898417532444000244140625</LongitudeDegrees>
            </Position>
            <AltitudeMeters>122.59999847412109375</AltitudeMeters>
            <DistanceMeters>NAN</DistanceMeters>
          </Trackpoint>
          <Trackpoint>
            <Time>2021-08-13T09:09:34.000Z</Time>
            <Position>
              <LatitudeDegrees>43.19293216802179813385009765625</LatitudeDegrees>
              <LongitudeDegrees>-2.007282413542270660400390625</LongitudeDegrees>
            </Position>
            <AltitudeMeters>122.59999847412109375</AltitudeMeters>
            <DistanceMeters>NAN</DistanceMeters>
          </Trackpoint>
          <Trackpoint>
            <Time>2021-08-13T09:09:35.000Z</Time>
            <Position>
              <LatitudeDegrees>43.19292864762246608734130859375</LatitudeDegrees>
              <LongitudeDegrees>-2.00725257396697998046875</LongitudeDegrees>
            </Position>
            <AltitudeMeters>122.59999847412109375</AltitudeMeters>
            <DistanceMeters>NAN</DistanceMeters>
          </Trackpoint>
          <Trackpoint>
            <Time>2021-08-13T09:09:36.000Z</Time>
            <Position>
              <LatitudeDegrees>43.19291724823415279388427734375</LatitudeDegrees>
              <LongitudeDegrees>-2.0072239078581333160400390625</LongitudeDegrees>
            </Position>
            <AltitudeMeters>122.59999847412109375</AltitudeMeters>
            <DistanceMeters>NAN</DistanceMeters>
          </Trackpoint>
          <Trackpoint>
            <Time>2021-08-13T09:09:39.000Z</Time>
            <Position>
              <LatitudeDegrees>43.19286368787288665771484375</LatitudeDegrees>
              <LongitudeDegrees>-2.0071332156658172607421875</LongitudeDegrees>
            </Position>
            <AltitudeMeters>123</AltitudeMeters>
            <DistanceMeters>NAN</DistanceMeters>
          </Trackpoint>
          <Trackpoint>
            <Time>2021-08-13T09:09:40.000Z</Time>
            <Position>
              <LatitudeDegrees>43.19284315221011638641357421875</LatitudeDegrees>
              <LongitudeDegrees>-2.007100693881511688232421875</LongitudeDegrees>
            </Position>
            <AltitudeMeters>123.1999969482421875</AltitudeMeters>
            <DistanceMeters>NAN</DistanceMeters>
          </Trackpoint>
          <Trackpoint>
            <Time>2021-08-13T09:09:41.000Z</Time>
            <Position>
              <LatitudeDegrees>43.19282253272831439971923828125</LatitudeDegrees>
              <LongitudeDegrees>-2.00706691481173038482666015625</LongitudeDegrees>
            </Position>
            <AltitudeMeters>123.1999969482421875</AltitudeMeters>
            <DistanceMeters>NAN</DistanceMeters>
          </Trackpoint>
          <Trackpoint>
            <Time>2021-08-13T09:09:44.000Z</Time>
            <Position>
              <LatitudeDegrees>43.192760758101940155029296875</LatitudeDegrees>
              <LongitudeDegrees>-2.00697437860071659088134765625</LongitudeDegrees>
            </Position>
            <AltitudeMeters>123.1999969482421875</AltitudeMeters>
            <DistanceMeters>NAN</DistanceMeters>
          </Trackpoint>
          <Trackpoint>
            <Time>2021-08-13T09:09:47.000Z</Time>
            <Position>
              <LatitudeDegrees>43.19271272979676723480224609375</LatitudeDegrees>
              <LongitudeDegrees>-2.0068782381713390350341796875</LongitudeDegrees>
            </Position>
            <AltitudeMeters>123.40000152587890625</AltitudeMeters>
            <DistanceMeters>NAN</DistanceMeters>
          </Trackpoint>
          <Trackpoint>
            <Time>2021-08-13T09:09:50.000Z</Time>
            <Position>
              <LatitudeDegrees>43.19267584942281246185302734375</LatitudeDegrees>
              <LongitudeDegrees>-2.0067766495048999786376953125</LongitudeDegrees>
            </Position>
            <AltitudeMeters>123.8000030517578125</AltitudeMeters>
            <DistanceMeters>NAN</DistanceMeters>
          </Trackpoint>
          <Trackpoint>
            <Time>2021-08-13T09:09:51.000Z</Time>
            <Position>
              <LatitudeDegrees>43.192655481398105621337890625</LatitudeDegrees>
              <LongitudeDegrees>-2.00674496591091156005859375</LongitudeDegrees>
            </Position>
            <AltitudeMeters>123.8000030517578125</AltitudeMeters>
            <DistanceMeters>NAN</DistanceMeters>
          </Trackpoint>
          <Trackpoint>
            <Time>2021-08-13T09:09:52.000Z</Time>
            <Position>
              <LatitudeDegrees>43.19263561628758907318115234375</LatitudeDegrees>
              <LongitudeDegrees>-2.006711773574352264404296875</LongitudeDegrees>
            </Position>
            <AltitudeMeters>124</AltitudeMeters>
            <DistanceMeters>NAN</DistanceMeters>
          </Trackpoint>
          <Trackpoint>
            <Time>2021-08-13T09:09:53.000Z</Time>
            <Position>
              <LatitudeDegrees>43.1926174275577068328857421875</LatitudeDegrees>
              <LongitudeDegrees>-2.00667581520974636077880859375</LongitudeDegrees>
            </Position>
            <AltitudeMeters>124</AltitudeMeters>
            <DistanceMeters>NAN</DistanceMeters>
          </Trackpoint>
          <Trackpoint>
            <Time>2021-08-13T09:09:55.000Z</Time>
            <Position>
              <LatitudeDegrees>43.1925755180418491363525390625</LatitudeDegrees>
              <LongitudeDegrees>-2.0066120289266109466552734375</LongitudeDegrees>
            </Position>
            <AltitudeMeters>124.1999969482421875</AltitudeMeters>
            <DistanceMeters>NAN</DistanceMeters>
          </Trackpoint>
          <Trackpoint>
            <Time>2021-08-13T09:09:58.000Z</Time>
            <Position>
              <LatitudeDegrees>43.1925094686448574066162109375</LatitudeDegrees>
              <LongitudeDegrees>-2.0065164752304553985595703125</LongitudeDegrees>
            </Position>
            <AltitudeMeters>124.40000152587890625</AltitudeMeters>
            <DistanceMeters>NAN</DistanceMeters>
          </Trackpoint>
          <Trackpoint>
            <Time>2021-08-13T09:10:03.000Z</Time>
            <Position>
              <LatitudeDegrees>43.1924176029860973358154296875</LatitudeDegrees>
              <LongitudeDegrees>-2.00637691654264926910400390625</LongitudeDegrees>
            </Position>
            <AltitudeMeters>124.8000030517578125</AltitudeMeters>
            <DistanceMeters>NAN</DistanceMeters>
          </Trackpoint>
          <Trackpoint>
            <Time>2021-08-13T09:10:04.000Z</Time>
            <Position>
              <LatitudeDegrees>43.19239564239978790283203125</LatitudeDegrees>
              <LongitudeDegrees>-2.006342299282550811767578125</LongitudeDegrees>
            </Position>
            <AltitudeMeters>125</AltitudeMeters>
            <DistanceMeters>NAN</DistanceMeters>
          </Trackpoint>
          <Trackpoint>
            <Time>2021-08-13T09:10:07.000Z</Time>
            <Position>
              <LatitudeDegrees>43.19234778173267841339111328125</LatitudeDegrees>
              <LongitudeDegrees>-2.00625990517437458038330078125</LongitudeDegrees>
            </Position>
            <AltitudeMeters>125.1999969482421875</AltitudeMeters>
            <DistanceMeters>NAN</DistanceMeters>
          </Trackpoint>
          <Trackpoint>
            <Time>2021-08-13T09:10:08.000Z</Time>
            <Position>
              <LatitudeDegrees>43.1923401542007923126220703125</LatitudeDegrees>
              <LongitudeDegrees>-2.006228305399417877197265625</LongitudeDegrees>
            </Position>
            <AltitudeMeters>125.40000152587890625</AltitudeMeters>
            <DistanceMeters>NAN</DistanceMeters>
          </Trackpoint>
          <Trackpoint>
            <Time>2021-08-13T09:10:09.000Z</Time>
            <Position>
              <LatitudeDegrees>43.19233705289661884307861328125</LatitudeDegrees>
              <LongitudeDegrees>-2.00619637034833431243896484375</LongitudeDegrees>
            </Position>
            <AltitudeMeters>125.40000152587890625</AltitudeMeters>
            <DistanceMeters>NAN</DistanceMeters>
          </Trackpoint>
          <Trackpoint>
            <Time>2021-08-13T09:10:10.000Z</Time>
            <Position>
              <LatitudeDegrees>43.192332275211811065673828125</LatitudeDegrees>
              <LongitudeDegrees>-2.00616569258272647857666015625</LongitudeDegrees>
            </Position>
            <AltitudeMeters>125.59999847412109375</AltitudeMeters>
            <DistanceMeters>NAN</DistanceMeters>
          </Trackpoint>
          <Trackpoint>
            <Time>2021-08-13T09:10:11.000Z</Time>
            <Position>
              <LatitudeDegrees>43.192320205271244049072265625</LatitudeDegrees>
              <LongitudeDegrees>-2.00613610446453094482421875</LongitudeDegrees>
            </Position>
            <AltitudeMeters>125.8000030517578125</AltitudeMeters>
            <DistanceMeters>NAN</DistanceMeters>
          </Trackpoint>
          <Trackpoint>
            <Time>2021-08-13T09:10:12.000Z</Time>
            <Position>
              <LatitudeDegrees>43.19229698739945888519287109375</LatitudeDegrees>
              <LongitudeDegrees>-2.006112970411777496337890625</LongitudeDegrees>
            </Position>
            <AltitudeMeters>125.8000030517578125</AltitudeMeters>
            <DistanceMeters>NAN</DistanceMeters>
          </Trackpoint>
          <Trackpoint>
            <Time>2021-08-13T09:10:14.000Z</Time>
            <Position>
              <LatitudeDegrees>43.1922563351690769195556640625</LatitudeDegrees>
              <LongitudeDegrees>-2.0060661993920803070068359375</LongitudeDegrees>
            </Position>
            <AltitudeMeters>126</AltitudeMeters>
            <DistanceMeters>NAN</DistanceMeters>
          </Trackpoint>
          <Trackpoint>
            <Time>2021-08-13T09:10:15.000Z</Time>
            <Position>
              <LatitudeDegrees>43.19223747588694095611572265625</LatitudeDegrees>
              <LongitudeDegrees>-2.00604365207254886627197265625</LongitudeDegrees>
            </Position>
            <AltitudeMeters>126.1999969482421875</AltitudeMeters>
            <DistanceMeters>NAN</DistanceMeters>
          </Trackpoint>
          <Trackpoint>
            <Time>2021-08-13T09:10:16.000Z</Time>
            <Position>
              <LatitudeDegrees>43.19221367128193378448486328125</LatitudeDegrees>
              <LongitudeDegrees>-2.00602202676236629486083984375</LongitudeDegrees>
            </Position>
            <AltitudeMeters>126.1999969482421875</AltitudeMeters>
            <DistanceMeters>NAN</DistanceMeters>
          </Trackpoint>
          <Trackpoint>
            <Time>2021-08-13T09:10:18.000Z</Time>
            <Position>
              <LatitudeDegrees>43.192170001566410064697265625</LatitudeDegrees>
              <LongitudeDegrees>-2.00597106479108333587646484375</LongitudeDegrees>
            </Position>
            <AltitudeMeters>126.40000152587890625</AltitudeMeters>
            <DistanceMeters>NAN</DistanceMeters>
          </Trackpoint>
          <Trackpoint>
            <Time>2021-08-13T09:10:21.000Z</Time>
            <Position>
              <LatitudeDegrees>43.19211107678711414337158203125</LatitudeDegrees>
              <LongitudeDegrees>-2.00587718747556209564208984375</LongitudeDegrees>
            </Position>
            <AltitudeMeters>126.59999847412109375</AltitudeMeters>
            <DistanceMeters>NAN</DistanceMeters>
          </Trackpoint>
          <Trackpoint>
            <Time>2021-08-13T09:10:22.000Z</Time>
            <Position>
              <LatitudeDegrees>43.19209196604788303375244140625</LatitudeDegrees>
              <LongitudeDegrees>-2.0058429054915904998779296875</LongitudeDegrees>
            </Position>
            <AltitudeMeters>126.8000030517578125</AltitudeMeters>
            <DistanceMeters>NAN</DistanceMeters>
          </Trackpoint>
          <Trackpoint>
            <Time>2021-08-13T09:10:28.000Z</Time>
            <Position>
              <LatitudeDegrees>43.19200336933135986328125</LatitudeDegrees>
              <LongitudeDegrees>-2.0056511275470256805419921875</LongitudeDegrees>
            </Position>
            <AltitudeMeters>127.1999969482421875</AltitudeMeters>
            <DistanceMeters>NAN</DistanceMeters>
          </Trackpoint>
          <Trackpoint>
            <Time>2021-08-13T09:10:29.000Z</Time>
            <Position>
              <LatitudeDegrees>43.1919832527637481689453125</LatitudeDegrees>
              <LongitudeDegrees>-2.005625478923320770263671875</LongitudeDegrees>
            </Position>
            <AltitudeMeters>127.1999969482421875</AltitudeMeters>
            <DistanceMeters>NAN</DistanceMeters>
          </Trackpoint>
          <Trackpoint>
            <Time>2021-08-13T09:10:30.000Z</Time>
            <Position>
              <LatitudeDegrees>43.191952407360076904296875</LatitudeDegrees>
              <LongitudeDegrees>-2.0056015066802501678466796875</LongitudeDegrees>
            </Position>
            <AltitudeMeters>127.40000152587890625</AltitudeMeters>
            <DistanceMeters>NAN</DistanceMeters>
          </Trackpoint>
          <Trackpoint>
            <Time>2021-08-13T09:10:31.000Z</Time>
            <Position>
              <LatitudeDegrees>43.19193002767860889434814453125</LatitudeDegrees>
              <LongitudeDegrees>-2.00557040981948375701904296875</LongitudeDegrees>
            </Position>
            <AltitudeMeters>127.40000152587890625</AltitudeMeters>
            <DistanceMeters>NAN</DistanceMeters>
          </Trackpoint>
          <Trackpoint>
            <Time>2021-08-13T09:10:32.000Z</Time>
            <Position>
              <LatitudeDegrees>43.191913850605487823486328125</LatitudeDegrees>
              <LongitudeDegrees>-2.00553185306489467620849609375</LongitudeDegrees>
            </Position>
            <AltitudeMeters>127.40000152587890625</AltitudeMeters>
            <DistanceMeters>NAN</DistanceMeters>
          </Trackpoint>
          <Trackpoint>
            <Time>2021-08-13T09:10:33.000Z</Time>
            <Position>
              <LatitudeDegrees>43.19189817644655704498291015625</LatitudeDegrees>
              <LongitudeDegrees>-2.00549078173935413360595703125</LongitudeDegrees>
            </Position>
            <AltitudeMeters>127.40000152587890625</AltitudeMeters>
            <DistanceMeters>NAN</DistanceMeters>
          </Trackpoint>
          <Trackpoint>
            <Time>2021-08-13T09:10:34.000Z</Time>
            <Position>
              <LatitudeDegrees>43.191872946918010711669921875</LatitudeDegrees>
              <LongitudeDegrees>-2.005459852516651153564453125</LongitudeDegrees>
            </Position>
            <AltitudeMeters>127.40000152587890625</AltitudeMeters>
            <DistanceMeters>NAN</DistanceMeters>
          </Trackpoint>
          <Trackpoint>
            <Time>2021-08-13T09:10:37.000Z</Time>
            <Position>
              <LatitudeDegrees>43.1918027065694332122802734375</LatitudeDegrees>
              <LongitudeDegrees>-2.0053959824144840240478515625</LongitudeDegrees>
            </Position>
            <AltitudeMeters>127.8000030517578125</AltitudeMeters>
            <DistanceMeters>NAN</DistanceMeters>
          </Trackpoint>
          <Trackpoint>
            <Time>2021-08-13T09:10:39.000Z</Time>
            <Position>
              <LatitudeDegrees>43.19174814037978649139404296875</LatitudeDegrees>
              <LongitudeDegrees>-2.0053694956004619598388671875</LongitudeDegrees>
            </Position>
            <AltitudeMeters>128</AltitudeMeters>
            <DistanceMeters>NAN</DistanceMeters>
          </Trackpoint>
          <Trackpoint>
            <Time>2021-08-13T09:10:40.000Z</Time>
            <Position>
              <LatitudeDegrees>43.19174814037978649139404296875</LatitudeDegrees>
              <LongitudeDegrees>-2.0053694956004619598388671875</LongitudeDegrees>
            </Position>
            <AltitudeMeters>128.1999969482421875</AltitudeMeters>
            <DistanceMeters>NAN</DistanceMeters>
          </Trackpoint>
          <Trackpoint>
            <Time>2021-08-13T09:10:41.000Z</Time>
            <Position>
              <LatitudeDegrees>43.19170673377811908721923828125</LatitudeDegrees>
              <LongitudeDegrees>-2.0053668133914470672607421875</LongitudeDegrees>
            </Position>
            <AltitudeMeters>128.1999969482421875</AltitudeMeters>
            <DistanceMeters>NAN</DistanceMeters>
          </Trackpoint>
          <Trackpoint>
            <Time>2021-08-13T09:10:42.000Z</Time>
            <Position>
              <LatitudeDegrees>43.19169131107628345489501953125</LatitudeDegrees>
              <LongitudeDegrees>-2.0053627900779247283935546875</LongitudeDegrees>
            </Position>
            <AltitudeMeters>128.399993896484375</AltitudeMeters>
            <DistanceMeters>NAN</DistanceMeters>
          </Trackpoint>
          <Trackpoint>
            <Time>2021-08-13T09:10:43.000Z</Time>
            <Position>
              <LatitudeDegrees>43.19167203269898891448974609375</LatitudeDegrees>
              <LongitudeDegrees>-2.00535415671765804290771484375</LongitudeDegrees>
            </Position>
            <AltitudeMeters>128.399993896484375</AltitudeMeters>
            <DistanceMeters>NAN</DistanceMeters>
          </Trackpoint>
          <Trackpoint>
            <Time>2021-08-13T09:10:44.000Z</Time>
            <Position>
              <LatitudeDegrees>43.1916582025587558746337890625</LatitudeDegrees>
              <LongitudeDegrees>-2.00535432435572147369384765625</LongitudeDegrees>
            </Position>
            <AltitudeMeters>128.600006103515625</AltitudeMeters>
            <DistanceMeters>NAN</DistanceMeters>
          </Trackpoint>
          <Trackpoint>
            <Time>2021-08-13T09:10:45.000Z</Time>
            <Position>
              <LatitudeDegrees>43.191650323569774627685546875</LatitudeDegrees>
              <LongitudeDegrees>-2.0053523965179920196533203125</LongitudeDegrees>
            </Position>
            <AltitudeMeters>128.600006103515625</AltitudeMeters>
            <DistanceMeters>NAN</DistanceMeters>
          </Trackpoint>
          <Trackpoint>
            <Time>2021-08-13T09:10:46.000Z</Time>
            <Position>
              <LatitudeDegrees>43.19164839573204517364501953125</LatitudeDegrees>
              <LongitudeDegrees>-2.00534862466156482696533203125</LongitudeDegrees>
            </Position>
            <AltitudeMeters>128.600006103515625</AltitudeMeters>
            <DistanceMeters>NAN</DistanceMeters>
          </Trackpoint>
          <Trackpoint>
            <Time>2021-08-13T09:10:47.000Z</Time>
            <Position>
              <LatitudeDegrees>43.19165141321718692779541015625</LatitudeDegrees>
              <LongitudeDegrees>-2.00534284114837646484375</LongitudeDegrees>
            </Position>
            <AltitudeMeters>128.8000030517578125</AltitudeMeters>
            <DistanceMeters>NAN</DistanceMeters>
          </Trackpoint>
          <Trackpoint>
            <Time>2021-08-13T09:11:02.000Z</Time>
            <Position>
              <LatitudeDegrees>43.19103819318115711212158203125</LatitudeDegrees>
              <LongitudeDegrees>-2.0051740296185016632080078125</LongitudeDegrees>
            </Position>
            <AltitudeMeters>130.399993896484375</AltitudeMeters>
            <DistanceMeters>NAN</DistanceMeters>
          </Trackpoint>
          <Trackpoint>
            <Time>2021-08-13T09:11:03.000Z</Time>
            <Position>
              <LatitudeDegrees>43.1909950263798236846923828125</LatitudeDegrees>
              <LongitudeDegrees>-2.0052005164325237274169921875</LongitudeDegrees>
            </Position>
            <AltitudeMeters>130.600006103515625</AltitudeMeters>
            <DistanceMeters>NAN</DistanceMeters>
          </Trackpoint>
          <Trackpoint>
            <Time>2021-08-13T09:11:04.000Z</Time>
            <Position>
              <LatitudeDegrees>43.19099427200853824615478515625</LatitudeDegrees>
              <LongitudeDegrees>-2.00520613230764865875244140625</LongitudeDegrees>
            </Position>
            <AltitudeMeters>130.600006103515625</AltitudeMeters>
            <DistanceMeters>NAN</DistanceMeters>
          </Trackpoint>
          <Trackpoint>
            <Time>2021-08-13T09:11:05.000Z</Time>
            <Position>
              <LatitudeDegrees>43.1909628398716449737548828125</LatitudeDegrees>
              <LongitudeDegrees>-2.0052169449627399444580078125</LongitudeDegrees>
            </Position>
            <AltitudeMeters>130.8000030517578125</AltitudeMeters>
            <DistanceMeters>NAN</DistanceMeters>
          </Trackpoint>
          <Trackpoint>
            <Time>2021-08-13T09:11:06.000Z</Time>
            <Position>
              <LatitudeDegrees>43.19096124731004238128662109375</LatitudeDegrees>
              <LongitudeDegrees>-2.0052072219550609588623046875</LongitudeDegrees>
            </Position>
            <AltitudeMeters>130.8000030517578125</AltitudeMeters>
            <DistanceMeters>NAN</DistanceMeters>
          </Trackpoint>
          <Trackpoint>
            <Time>2021-08-13T09:11:07.000Z</Time>
            <Position>
              <LatitudeDegrees>43.1909380294382572174072265625</LatitudeDegrees>
              <LongitudeDegrees>-2.00520269572734832763671875</LongitudeDegrees>
            </Position>
            <AltitudeMeters>130.8000030517578125</AltitudeMeters>
            <DistanceMeters>NAN</DistanceMeters>
          </Trackpoint>
          <Trackpoint>
            <Time>2021-08-13T09:11:08.000Z</Time>
            <Position>
              <LatitudeDegrees>43.19091581739485263824462890625</LatitudeDegrees>
              <LongitudeDegrees>-2.00520512647926807403564453125</LongitudeDegrees>
            </Position>
            <AltitudeMeters>131</AltitudeMeters>
            <DistanceMeters>NAN</DistanceMeters>
          </Trackpoint>
          <Trackpoint>
            <Time>2021-08-13T09:11:09.000Z</Time>
            <Position>
              <LatitudeDegrees>43.19089251570403575897216796875</LatitudeDegrees>
              <LongitudeDegrees>-2.005208395421504974365234375</LongitudeDegrees>
            </Position>
            <AltitudeMeters>131</AltitudeMeters>
            <DistanceMeters>NAN</DistanceMeters>
          </Trackpoint>
          <Trackpoint>
            <Time>2021-08-13T09:11:10.000Z</Time>
            <Position>
              <LatitudeDegrees>43.19086619652807712554931640625</LatitudeDegrees>
              <LongitudeDegrees>-2.00520831160247325897216796875</LongitudeDegrees>
            </Position>
            <AltitudeMeters>131.1999969482421875</AltitudeMeters>
            <DistanceMeters>NAN</DistanceMeters>
          </Trackpoint>
          <Trackpoint>
            <Time>2021-08-13T09:11:11.000Z</Time>
            <Position>
              <LatitudeDegrees>43.190843649208545684814453125</LatitudeDegrees>
              <LongitudeDegrees>-2.00520998798310756683349609375</LongitudeDegrees>
            </Position>
            <AltitudeMeters>131.1999969482421875</AltitudeMeters>
            <DistanceMeters>NAN</DistanceMeters>
          </Trackpoint>
          <Trackpoint>
            <Time>2021-08-13T09:11:12.000Z</Time>
            <Position>
              <LatitudeDegrees>43.19081716239452362060546875</LatitudeDegrees>
              <LongitudeDegrees>-2.00520847924053668975830078125</LongitudeDegrees>
            </Position>
            <AltitudeMeters>131.1999969482421875</AltitudeMeters>
            <DistanceMeters>NAN</DistanceMeters>
          </Trackpoint>
          <Trackpoint>
            <Time>2021-08-13T09:11:13.000Z</Time>
            <Position>
              <LatitudeDegrees>43.19078774191439151763916015625</LatitudeDegrees>
              <LongitudeDegrees>-2.00521099381148815155029296875</LongitudeDegrees>
            </Position>
            <AltitudeMeters>131.399993896484375</AltitudeMeters>
            <DistanceMeters>NAN</DistanceMeters>
          </Trackpoint>
          <Trackpoint>
            <Time>2021-08-13T09:11:14.000Z</Time>
            <Position>
              <LatitudeDegrees>43.1907626800239086151123046875</LatitudeDegrees>
              <LongitudeDegrees>-2.005213089287281036376953125</LongitudeDegrees>
            </Position>
            <AltitudeMeters>131.1999969482421875</AltitudeMeters>
            <DistanceMeters>NAN</DistanceMeters>
          </Trackpoint>
          <Trackpoint>
            <Time>2021-08-13T09:11:15.000Z</Time>
            <Position>
              <LatitudeDegrees>43.1907351873815059661865234375</LatitudeDegrees>
              <LongitudeDegrees>-2.00521065853536128997802734375</LongitudeDegrees>
            </Position>
            <AltitudeMeters>131.1999969482421875</AltitudeMeters>
            <DistanceMeters>NAN</DistanceMeters>
          </Trackpoint>
          <Trackpoint>
            <Time>2021-08-13T09:11:16.000Z</Time>
            <Position>
              <LatitudeDegrees>43.190704174339771270751953125</LatitudeDegrees>
              <LongitudeDegrees>-2.00521216727793216705322265625</LongitudeDegrees>
            </Position>
            <AltitudeMeters>131.1999969482421875</AltitudeMeters>
            <DistanceMeters>NAN</DistanceMeters>
          </Trackpoint>
          <Trackpoint>
            <Time>2021-08-13T09:11:17.000Z</Time>
            <Position>
              <LatitudeDegrees>43.1906808726489543914794921875</LatitudeDegrees>
              <LongitudeDegrees>-2.00520940124988555908203125</LongitudeDegrees>
            </Position>
            <AltitudeMeters>131.399993896484375</AltitudeMeters>
            <DistanceMeters>NAN</DistanceMeters>
          </Trackpoint>
          <Trackpoint>
            <Time>2021-08-13T09:11:18.000Z</Time>
            <Position>
              <LatitudeDegrees>43.1906594149768352508544921875</LatitudeDegrees>
              <LongitudeDegrees>-2.00520537793636322021484375</LongitudeDegrees>
            </Position>
            <AltitudeMeters>131.399993896484375</AltitudeMeters>
            <DistanceMeters>NAN</DistanceMeters>
          </Trackpoint>
          <Trackpoint>
            <Time>2021-08-13T09:11:19.000Z</Time>
            <Position>
              <LatitudeDegrees>43.19063670001924037933349609375</LatitudeDegrees>
              <LongitudeDegrees>-2.00519842095673084259033203125</LongitudeDegrees>
            </Position>
            <AltitudeMeters>131.600006103515625</AltitudeMeters>
            <DistanceMeters>NAN</DistanceMeters>
          </Trackpoint>
          <Trackpoint>
            <Time>2021-08-13T09:11:20.000Z</Time>
            <Position>
              <LatitudeDegrees>43.19060887210071086883544921875</LatitudeDegrees>
              <LongitudeDegrees>-2.00519138015806674957275390625</LongitudeDegrees>
            </Position>
            <AltitudeMeters>131.8000030517578125</AltitudeMeters>
            <DistanceMeters>NAN</DistanceMeters>
          </Trackpoint>
          <Trackpoint>
            <Time>2021-08-13T09:11:21.000Z</Time>
            <Position>
              <LatitudeDegrees>43.19058288820087909698486328125</LatitudeDegrees>
              <LongitudeDegrees>-2.0051844231784343719482421875</LongitudeDegrees>
            </Position>
            <AltitudeMeters>131.8000030517578125</AltitudeMeters>
            <DistanceMeters>NAN</DistanceMeters>
          </Trackpoint>
          <Trackpoint>
            <Time>2021-08-13T09:11:22.000Z</Time>
            <Position>
              <LatitudeDegrees>43.1905563175678253173828125</LatitudeDegrees>
              <LongitudeDegrees>-2.00517931021749973297119140625</LongitudeDegrees>
            </Position>
            <AltitudeMeters>131.8000030517578125</AltitudeMeters>
            <DistanceMeters>NAN</DistanceMeters>
          </Trackpoint>
          <Trackpoint>
            <Time>2021-08-13T09:11:23.000Z</Time>
            <Position>
              <LatitudeDegrees>43.19052807055413722991943359375</LatitudeDegrees>
              <LongitudeDegrees>-2.0051773823797702789306640625</LongitudeDegrees>
            </Position>
            <AltitudeMeters>132</AltitudeMeters>
            <DistanceMeters>NAN</DistanceMeters>
          </Trackpoint>
          <Trackpoint>
            <Time>2021-08-13T09:11:24.000Z</Time>
            <Position>
              <LatitudeDegrees>43.1904998235404491424560546875</LatitudeDegrees>
              <LongitudeDegrees>-2.00517863966524600982666015625</LongitudeDegrees>
            </Position>
            <AltitudeMeters>132</AltitudeMeters>
            <DistanceMeters>NAN</DistanceMeters>
          </Trackpoint>
          <Trackpoint>
            <Time>2021-08-13T09:11:25.000Z</Time>
            <Position>
              <LatitudeDegrees>43.19047576747834682464599609375</LatitudeDegrees>
              <LongitudeDegrees>-2.00518031604588031768798828125</LongitudeDegrees>
            </Position>
            <AltitudeMeters>132.1999969482421875</AltitudeMeters>
            <DistanceMeters>NAN</DistanceMeters>
          </Trackpoint>
          <Trackpoint>
            <Time>2021-08-13T09:11:26.000Z</Time>
            <Position>
              <LatitudeDegrees>43.1904548965394496917724609375</LatitudeDegrees>
              <LongitudeDegrees>-2.0051793940365314483642578125</LongitudeDegrees>
            </Position>
            <AltitudeMeters>132.1999969482421875</AltitudeMeters>
            <DistanceMeters>NAN</DistanceMeters>
          </Trackpoint>
          <Trackpoint>
            <Time>2021-08-13T09:11:27.000Z</Time>
            <Position>
              <LatitudeDegrees>43.19043352268636226654052734375</LatitudeDegrees>
              <LongitudeDegrees>-2.00517126359045505523681640625</LongitudeDegrees>
            </Position>
            <AltitudeMeters>132.1999969482421875</AltitudeMeters>
            <DistanceMeters>NAN</DistanceMeters>
          </Trackpoint>
          <Trackpoint>
            <Time>2021-08-13T09:11:28.000Z</Time>
            <Position>
              <LatitudeDegrees>43.19041038863360881805419921875</LatitudeDegrees>
              <LongitudeDegrees>-2.0051710121333599090576171875</LongitudeDegrees>
            </Position>
            <AltitudeMeters>132.399993896484375</AltitudeMeters>
            <DistanceMeters>NAN</DistanceMeters>
          </Trackpoint>
          <Trackpoint>
            <Time>2021-08-13T09:11:29.000Z</Time>
            <Position>
              <LatitudeDegrees>43.19038641639053821563720703125</LatitudeDegrees>
              <LongitudeDegrees>-2.005179226398468017578125</LongitudeDegrees>
            </Position>
            <AltitudeMeters>132.600006103515625</AltitudeMeters>
            <DistanceMeters>NAN</DistanceMeters>
          </Trackpoint>
          <Trackpoint>
            <Time>2021-08-13T09:11:30.000Z</Time>
            <Position>
              <LatitudeDegrees>43.190356157720088958740234375</LatitudeDegrees>
              <LongitudeDegrees>-2.00518417172133922576904296875</LongitudeDegrees>
            </Position>
            <AltitudeMeters>132.600006103515625</AltitudeMeters>
            <DistanceMeters>NAN</DistanceMeters>
          </Trackpoint>
          <Trackpoint>
            <Time>2021-08-13T09:11:31.000Z</Time>
            <Position>
              <LatitudeDegrees>43.190338052809238433837890625</LatitudeDegrees>
              <LongitudeDegrees>-2.00519263744354248046875</LongitudeDegrees>
            </Position>
            <AltitudeMeters>132.8000030517578125</AltitudeMeters>
            <DistanceMeters>NAN</DistanceMeters>
          </Trackpoint>
          <Trackpoint>
            <Time>2021-08-13T09:11:32.000Z</Time>
            <Position>
              <LatitudeDegrees>43.190319947898387908935546875</LatitudeDegrees>
              <LongitudeDegrees>-2.005195654928684234619140625</LongitudeDegrees>
            </Position>
            <AltitudeMeters>132.8000030517578125</AltitudeMeters>
            <DistanceMeters>NAN</DistanceMeters>
          </Trackpoint>
          <Trackpoint>
            <Time>2021-08-13T09:11:33.000Z</Time>
            <Position>
              <LatitudeDegrees>43.19029547274112701416015625</LatitudeDegrees>
              <LongitudeDegrees>-2.00519255362451076507568359375</LongitudeDegrees>
            </Position>
            <AltitudeMeters>133</AltitudeMeters>
            <DistanceMeters>NAN</DistanceMeters>
          </Trackpoint>
          <Trackpoint>
            <Time>2021-08-13T09:11:34.000Z</Time>
            <Position>
              <LatitudeDegrees>43.19026957266032695770263671875</LatitudeDegrees>
              <LongitudeDegrees>-2.00518953613936901092529296875</LongitudeDegrees>
            </Position>
            <AltitudeMeters>133</AltitudeMeters>
            <DistanceMeters>NAN</DistanceMeters>
          </Trackpoint>
          <Trackpoint>
            <Time>2021-08-13T09:11:35.000Z</Time>
            <Position>
              <LatitudeDegrees>43.1902478635311126708984375</LatitudeDegrees>
              <LongitudeDegrees>-2.00518970377743244171142578125</LongitudeDegrees>
            </Position>
            <AltitudeMeters>133.1999969482421875</AltitudeMeters>
            <DistanceMeters>NAN</DistanceMeters>
          </Trackpoint>
          <Trackpoint>
            <Time>2021-08-13T09:11:36.000Z</Time>
            <Position>
              <LatitudeDegrees>43.1902188621461391448974609375</LatitudeDegrees>
              <LongitudeDegrees>-2.0051894523203372955322265625</LongitudeDegrees>
            </Position>
            <AltitudeMeters>133.1999969482421875</AltitudeMeters>
            <DistanceMeters>NAN</DistanceMeters>
          </Trackpoint>
          <Trackpoint>
            <Time>2021-08-13T09:11:37.000Z</Time>
            <Position>
              <LatitudeDegrees>43.1901960633695125579833984375</LatitudeDegrees>
              <LongitudeDegrees>-2.005193643271923065185546875</LongitudeDegrees>
            </Position>
            <AltitudeMeters>133.1999969482421875</AltitudeMeters>
            <DistanceMeters>NAN</DistanceMeters>
          </Trackpoint>
          <Trackpoint>
            <Time>2021-08-13T09:11:38.000Z</Time>
            <Position>
              <LatitudeDegrees>43.1901960633695125579833984375</LatitudeDegrees>
              <LongitudeDegrees>-2.005193643271923065185546875</LongitudeDegrees>
            </Position>
            <AltitudeMeters>133.1999969482421875</AltitudeMeters>
            <DistanceMeters>NAN</DistanceMeters>
          </Trackpoint>
          <Trackpoint>
            <Time>2021-08-13T09:11:39.000Z</Time>
            <Position>
              <LatitudeDegrees>43.190139569342136383056640625</LatitudeDegrees>
              <LongitudeDegrees>-2.00519121252000331878662109375</LongitudeDegrees>
            </Position>
            <AltitudeMeters>133.1999969482421875</AltitudeMeters>
            <DistanceMeters>NAN</DistanceMeters>
          </Trackpoint>
          <Trackpoint>
            <Time>2021-08-13T09:11:40.000Z</Time>
            <Position>
              <LatitudeDegrees>43.19010830484330654144287109375</LatitudeDegrees>
              <LongitudeDegrees>-2.00519196689128875732421875</LongitudeDegrees>
            </Position>
            <AltitudeMeters>133.1999969482421875</AltitudeMeters>
            <DistanceMeters>NAN</DistanceMeters>
          </Trackpoint>
          <Trackpoint>
            <Time>2021-08-13T09:11:41.000Z</Time>
            <Position>
              <LatitudeDegrees>43.1900775432586669921875</LatitudeDegrees>
              <LongitudeDegrees>-2.0052021928131580352783203125</LongitudeDegrees>
            </Position>
            <AltitudeMeters>133.399993896484375</AltitudeMeters>
            <DistanceMeters>NAN</DistanceMeters>
          </Trackpoint>
          <Trackpoint>
            <Time>2021-08-13T09:11:42.000Z</Time>
            <Position>
              <LatitudeDegrees>43.19004493765532970428466796875</LatitudeDegrees>
              <LongitudeDegrees>-2.00521954335272312164306640625</LongitudeDegrees>
            </Position>
            <AltitudeMeters>133.600006103515625</AltitudeMeters>
            <DistanceMeters>NAN</DistanceMeters>
          </Trackpoint>
          <Trackpoint>
            <Time>2021-08-13T09:11:43.000Z</Time>
            <Position>
              <LatitudeDegrees>43.19001224823296070098876953125</LatitudeDegrees>
              <LongitudeDegrees>-2.00524083338677883148193359375</LongitudeDegrees>
            </Position>
            <AltitudeMeters>133.600006103515625</AltitudeMeters>
            <DistanceMeters>NAN</DistanceMeters>
          </Trackpoint>
          <Trackpoint>
            <Time>2021-08-13T09:11:44.000Z</Time>
            <Position>
              <LatitudeDegrees>43.189975954592227935791015625</LatitudeDegrees>
              <LongitudeDegrees>-2.0052635483443737030029296875</LongitudeDegrees>
            </Position>
            <AltitudeMeters>133.8000030517578125</AltitudeMeters>
            <DistanceMeters>NAN</DistanceMeters>
          </Trackpoint>
          <Trackpoint>
            <Time>2021-08-13T09:11:47.000Z</Time>
            <Position>
              <LatitudeDegrees>43.18986271508038043975830078125</LatitudeDegrees>
              <LongitudeDegrees>-2.00526849366724491119384765625</LongitudeDegrees>
            </Position>
            <AltitudeMeters>134</AltitudeMeters>
            <DistanceMeters>NAN</DistanceMeters>
          </Trackpoint>
          <Trackpoint>
            <Time>2021-08-13T09:11:48.000Z</Time>
            <Position>
              <LatitudeDegrees>43.18986271508038043975830078125</LatitudeDegrees>
              <LongitudeDegrees>-2.00526849366724491119384765625</LongitudeDegrees>
            </Position>
            <AltitudeMeters>134</AltitudeMeters>
            <DistanceMeters>NAN</DistanceMeters>
          </Trackpoint>
          <Trackpoint>
            <Time>2021-08-13T09:11:49.000Z</Time>
            <Position>
              <LatitudeDegrees>43.1897945702075958251953125</LatitudeDegrees>
              <LongitudeDegrees>-2.00525927357375621795654296875</LongitudeDegrees>
            </Position>
            <AltitudeMeters>134.1999969482421875</AltitudeMeters>
            <DistanceMeters>NAN</DistanceMeters>
          </Trackpoint>
          <Trackpoint>
            <Time>2021-08-13T09:11:54.000Z</Time>
            <Position>
              <LatitudeDegrees>43.18964260630309581756591796875</LatitudeDegrees>
              <LongitudeDegrees>-2.00526329688727855682373046875</LongitudeDegrees>
            </Position>
            <AltitudeMeters>134.1999969482421875</AltitudeMeters>
            <DistanceMeters>NAN</DistanceMeters>
          </Trackpoint>
          <Trackpoint>
            <Time>2021-08-13T09:11:55.000Z</Time>
            <Position>
              <LatitudeDegrees>43.1896173767745494842529296875</LatitudeDegrees>
              <LongitudeDegrees>-2.00526438653469085693359375</LongitudeDegrees>
            </Position>
            <AltitudeMeters>134.399993896484375</AltitudeMeters>
            <DistanceMeters>NAN</DistanceMeters>
          </Trackpoint>
          <Trackpoint>
            <Time>2021-08-13T09:11:58.000Z</Time>
            <Position>
              <LatitudeDegrees>43.1895399279892444610595703125</LatitudeDegrees>
              <LongitudeDegrees>-2.00526564382016658782958984375</LongitudeDegrees>
            </Position>
            <AltitudeMeters>134.600006103515625</AltitudeMeters>
            <DistanceMeters>NAN</DistanceMeters>
          </Trackpoint>
          <Trackpoint>
            <Time>2021-08-13T09:11:59.000Z</Time>
            <Position>
              <LatitudeDegrees>43.18951134569942951202392578125</LatitudeDegrees>
              <LongitudeDegrees>-2.0052672363817691802978515625</LongitudeDegrees>
            </Position>
            <AltitudeMeters>134.600006103515625</AltitudeMeters>
            <DistanceMeters>NAN</DistanceMeters>
          </Trackpoint>
          <Trackpoint>
            <Time>2021-08-13T09:12:00.000Z</Time>
            <Position>
              <LatitudeDegrees>43.1894825957715511322021484375</LatitudeDegrees>
              <LongitudeDegrees>-2.0052709244191646575927734375</LongitudeDegrees>
            </Position>
            <AltitudeMeters>134.8000030517578125</AltitudeMeters>
            <DistanceMeters>NAN</DistanceMeters>
          </Trackpoint>
          <Trackpoint>
            <Time>2021-08-13T09:12:01.000Z</Time>
            <Position>
              <LatitudeDegrees>43.18945460021495819091796875</LatitudeDegrees>
              <LongitudeDegrees>-2.00527151115238666534423828125</LongitudeDegrees>
            </Position>
            <AltitudeMeters>134.8000030517578125</AltitudeMeters>
            <DistanceMeters>NAN</DistanceMeters>
          </Trackpoint>
          <Trackpoint>
            <Time>2021-08-13T09:12:02.000Z</Time>
            <Position>
              <LatitudeDegrees>43.1894297897815704345703125</LatitudeDegrees>
              <LongitudeDegrees>-2.00526245869696140289306640625</LongitudeDegrees>
            </Position>
            <AltitudeMeters>134.8000030517578125</AltitudeMeters>
            <DistanceMeters>NAN</DistanceMeters>
          </Trackpoint>
          <Trackpoint>
            <Time>2021-08-13T09:12:03.000Z</Time>
            <Position>
              <LatitudeDegrees>43.1894007883965969085693359375</LatitudeDegrees>
              <LongitudeDegrees>-2.00525223277509212493896484375</LongitudeDegrees>
            </Position>
            <AltitudeMeters>135</AltitudeMeters>
            <DistanceMeters>NAN</DistanceMeters>
          </Trackpoint>
          <Trackpoint>
            <Time>2021-08-13T09:12:04.000Z</Time>
            <Position>
              <LatitudeDegrees>43.18936876952648162841796875</LatitudeDegrees>
              <LongitudeDegrees>-2.00524435378611087799072265625</LongitudeDegrees>
            </Position>
            <AltitudeMeters>135</AltitudeMeters>
            <DistanceMeters>NAN</DistanceMeters>
          </Trackpoint>
          <Trackpoint>
            <Time>2021-08-13T09:12:07.000Z</Time>
            <Position>
              <LatitudeDegrees>43.1892847828567028045654296875</LatitudeDegrees>
              <LongitudeDegrees>-2.0052216388285160064697265625</LongitudeDegrees>
            </Position>
            <AltitudeMeters>135.399993896484375</AltitudeMeters>
            <DistanceMeters>NAN</DistanceMeters>
          </Trackpoint>
          <Trackpoint>
            <Time>2021-08-13T09:12:08.000Z</Time>
            <Position>
              <LatitudeDegrees>43.189260475337505340576171875</LatitudeDegrees>
              <LongitudeDegrees>-2.00521082617342472076416015625</LongitudeDegrees>
            </Position>
            <AltitudeMeters>135.600006103515625</AltitudeMeters>
            <DistanceMeters>NAN</DistanceMeters>
          </Trackpoint>
          <Trackpoint>
            <Time>2021-08-13T09:12:09.000Z</Time>
            <Position>
              <LatitudeDegrees>43.1892375089228153228759765625</LatitudeDegrees>
              <LongitudeDegrees>-2.00519741512835025787353515625</LongitudeDegrees>
            </Position>
            <AltitudeMeters>135.600006103515625</AltitudeMeters>
            <DistanceMeters>NAN</DistanceMeters>
          </Trackpoint>
          <Trackpoint>
            <Time>2021-08-13T09:12:10.000Z</Time>
            <Position>
              <LatitudeDegrees>43.18921714089810848236083984375</LatitudeDegrees>
              <LongitudeDegrees>-2.00518316589295864105224609375</LongitudeDegrees>
            </Position>
            <AltitudeMeters>135.8000030517578125</AltitudeMeters>
            <DistanceMeters>NAN</DistanceMeters>
          </Trackpoint>
          <Trackpoint>
            <Time>2021-08-13T09:12:11.000Z</Time>
            <Position>
              <LatitudeDegrees>43.189189396798610687255859375</LatitudeDegrees>
              <LongitudeDegrees>-2.0051750354468822479248046875</LongitudeDegrees>
            </Position>
            <AltitudeMeters>135.8000030517578125</AltitudeMeters>
            <DistanceMeters>NAN</DistanceMeters>
          </Trackpoint>
          <Trackpoint>
            <Time>2021-08-13T09:12:12.000Z</Time>
            <Position>
              <LatitudeDegrees>43.1891570426523685455322265625</LatitudeDegrees>
              <LongitudeDegrees>-2.005160786211490631103515625</LongitudeDegrees>
            </Position>
            <AltitudeMeters>135.8000030517578125</AltitudeMeters>
            <DistanceMeters>NAN</DistanceMeters>
          </Trackpoint>
          <Trackpoint>
            <Time>2021-08-13T09:12:14.000Z</Time>
            <Position>
              <LatitudeDegrees>43.18909979425370693206787109375</LatitudeDegrees>
              <LongitudeDegrees>-2.0051296055316925048828125</LongitudeDegrees>
            </Position>
            <AltitudeMeters>136</AltitudeMeters>
            <DistanceMeters>NAN</DistanceMeters>
          </Trackpoint>
          <Trackpoint>
            <Time>2021-08-13T09:12:15.000Z</Time>
            <Position>
              <LatitudeDegrees>43.18907531909644603729248046875</LatitudeDegrees>
              <LongitudeDegrees>-2.00511686503887176513671875</LongitudeDegrees>
            </Position>
            <AltitudeMeters>136.1999969482421875</AltitudeMeters>
            <DistanceMeters>NAN</DistanceMeters>
          </Trackpoint>
          <Trackpoint>
            <Time>2021-08-13T09:12:16.000Z</Time>
            <Position>
              <LatitudeDegrees>43.1890474073588848114013671875</LatitudeDegrees>
              <LongitudeDegrees>-2.00510337017476558685302734375</LongitudeDegrees>
            </Position>
            <AltitudeMeters>136.1999969482421875</AltitudeMeters>
            <DistanceMeters>NAN</DistanceMeters>
          </Trackpoint>
          <Trackpoint>
            <Time>2021-08-13T09:12:17.000Z</Time>
            <Position>
              <LatitudeDegrees>43.18901798687875270843505859375</LatitudeDegrees>
              <LongitudeDegrees>-2.00508870184421539306640625</LongitudeDegrees>
            </Position>
            <AltitudeMeters>136.1999969482421875</AltitudeMeters>
            <DistanceMeters>NAN</DistanceMeters>
          </Trackpoint>
          <Trackpoint>
            <Time>2021-08-13T09:12:22.000Z</Time>
            <Position>
              <LatitudeDegrees>43.1888794340193271636962890625</LatitudeDegrees>
              <LongitudeDegrees>-2.0050016976892948150634765625</LongitudeDegrees>
            </Position>
            <AltitudeMeters>136.600006103515625</AltitudeMeters>
            <DistanceMeters>NAN</DistanceMeters>
          </Trackpoint>
          <Trackpoint>
            <Time>2021-08-13T09:12:29.000Z</Time>
            <Position>
              <LatitudeDegrees>43.18867064081132411956787109375</LatitudeDegrees>
              <LongitudeDegrees>-2.00487035326659679412841796875</LongitudeDegrees>
            </Position>
            <AltitudeMeters>137</AltitudeMeters>
            <DistanceMeters>NAN</DistanceMeters>
          </Trackpoint>
          <Trackpoint>
            <Time>2021-08-13T09:12:32.000Z</Time>
            <Position>
              <LatitudeDegrees>43.18860542960464954376220703125</LatitudeDegrees>
              <LongitudeDegrees>-2.0048253424465656280517578125</LongitudeDegrees>
            </Position>
            <AltitudeMeters>137.399993896484375</AltitudeMeters>
            <DistanceMeters>NAN</DistanceMeters>
          </Trackpoint>
          <Trackpoint>
            <Time>2021-08-13T09:12:33.000Z</Time>
            <Position>
              <LatitudeDegrees>43.18858413957059383392333984375</LatitudeDegrees>
              <LongitudeDegrees>-2.00480564497411251068115234375</LongitudeDegrees>
            </Position>
            <AltitudeMeters>137.399993896484375</AltitudeMeters>
            <DistanceMeters>NAN</DistanceMeters>
          </Trackpoint>
          <Trackpoint>
            <Time>2021-08-13T09:12:34.000Z</Time>
            <Position>
              <LatitudeDegrees>43.1885478459298610687255859375</LatitudeDegrees>
              <LongitudeDegrees>-2.00478494167327880859375</LongitudeDegrees>
            </Position>
            <AltitudeMeters>137.600006103515625</AltitudeMeters>
            <DistanceMeters>NAN</DistanceMeters>
          </Trackpoint>
          <Trackpoint>
            <Time>2021-08-13T09:12:35.000Z</Time>
            <Position>
              <LatitudeDegrees>43.18850241601467132568359375</LatitudeDegrees>
              <LongitudeDegrees>-2.00476683676242828369140625</LongitudeDegrees>
            </Position>
            <AltitudeMeters>137.399993896484375</AltitudeMeters>
            <DistanceMeters>NAN</DistanceMeters>
          </Trackpoint>
          <Trackpoint>
            <Time>2021-08-13T09:12:36.000Z</Time>
            <Position>
              <LatitudeDegrees>43.18847584538161754608154296875</LatitudeDegrees>
              <LongitudeDegrees>-2.00475049205124378204345703125</LongitudeDegrees>
            </Position>
            <AltitudeMeters>137.399993896484375</AltitudeMeters>
            <DistanceMeters>NAN</DistanceMeters>
          </Trackpoint>
          <Trackpoint>
            <Time>2021-08-13T09:12:39.000Z</Time>
            <Position>
              <LatitudeDegrees>43.18842689506709575653076171875</LatitudeDegrees>
              <LongitudeDegrees>-2.004701793193817138671875</LongitudeDegrees>
            </Position>
            <AltitudeMeters>137.600006103515625</AltitudeMeters>
            <DistanceMeters>NAN</DistanceMeters>
          </Trackpoint>
          <Trackpoint>
            <Time>2021-08-13T09:12:40.000Z</Time>
            <Position>
              <LatitudeDegrees>43.1884123943746089935302734375</LatitudeDegrees>
              <LongitudeDegrees>-2.0046851970255374908447265625</LongitudeDegrees>
            </Position>
            <AltitudeMeters>137.600006103515625</AltitudeMeters>
            <DistanceMeters>NAN</DistanceMeters>
          </Trackpoint>
          <Trackpoint>
            <Time>2021-08-13T09:12:41.000Z</Time>
            <Position>
              <LatitudeDegrees>43.18839755840599536895751953125</LatitudeDegrees>
              <LongitudeDegrees>-2.004673965275287628173828125</LongitudeDegrees>
            </Position>
            <AltitudeMeters>137.8000030517578125</AltitudeMeters>
            <DistanceMeters>NAN</DistanceMeters>
          </Trackpoint>
          <Trackpoint>
            <Time>2021-08-13T09:12:42.000Z</Time>
            <Position>
              <LatitudeDegrees>43.18837861530482769012451171875</LatitudeDegrees>
              <LongitudeDegrees>-2.0046607218682765960693359375</LongitudeDegrees>
            </Position>
            <AltitudeMeters>137.8000030517578125</AltitudeMeters>
            <DistanceMeters>NAN</DistanceMeters>
          </Trackpoint>
          <Trackpoint>
            <Time>2021-08-13T09:12:43.000Z</Time>
            <Position>
              <LatitudeDegrees>43.18835497833788394927978515625</LatitudeDegrees>
              <LongitudeDegrees>-2.00464622117578983306884765625</LongitudeDegrees>
            </Position>
            <AltitudeMeters>138</AltitudeMeters>
            <DistanceMeters>NAN</DistanceMeters>
          </Trackpoint>
          <Trackpoint>
            <Time>2021-08-13T09:12:44.000Z</Time>
            <Position>
              <LatitudeDegrees>43.18833075463771820068359375</LatitudeDegrees>
              <LongitudeDegrees>-2.00463046319782733917236328125</LongitudeDegrees>
            </Position>
            <AltitudeMeters>138.1999969482421875</AltitudeMeters>
            <DistanceMeters>NAN</DistanceMeters>
          </Trackpoint>
          <Trackpoint>
            <Time>2021-08-13T09:12:45.000Z</Time>
            <Position>
              <LatitudeDegrees>43.1882987357676029205322265625</LatitudeDegrees>
              <LongitudeDegrees>-2.0046191476285457611083984375</LongitudeDegrees>
            </Position>
            <AltitudeMeters>138.1999969482421875</AltitudeMeters>
            <DistanceMeters>NAN</DistanceMeters>
          </Trackpoint>
          <Trackpoint>
            <Time>2021-08-13T09:12:46.000Z</Time>
            <Position>
              <LatitudeDegrees>43.18826378323137760162353515625</LatitudeDegrees>
              <LongitudeDegrees>-2.00460724532604217529296875</LongitudeDegrees>
            </Position>
            <AltitudeMeters>138.399993896484375</AltitudeMeters>
            <DistanceMeters>NAN</DistanceMeters>
          </Trackpoint>
          <Trackpoint>
            <Time>2021-08-13T09:12:48.000Z</Time>
            <Position>
              <LatitudeDegrees>43.1882013380527496337890625</LatitudeDegrees>
              <LongitudeDegrees>-2.0045832730829715728759765625</LongitudeDegrees>
            </Position>
            <AltitudeMeters>138.600006103515625</AltitudeMeters>
            <DistanceMeters>NAN</DistanceMeters>
          </Trackpoint>
          <Trackpoint>
            <Time>2021-08-13T09:12:51.000Z</Time>
            <Position>
              <LatitudeDegrees>43.18812984041869640350341796875</LatitudeDegrees>
              <LongitudeDegrees>-2.0045189000666141510009765625</LongitudeDegrees>
            </Position>
            <AltitudeMeters>138.8000030517578125</AltitudeMeters>
            <DistanceMeters>NAN</DistanceMeters>
          </Trackpoint>
          <Trackpoint>
            <Time>2021-08-13T09:12:52.000Z</Time>
            <Position>
              <LatitudeDegrees>43.18810905329883098602294921875</LatitudeDegrees>
              <LongitudeDegrees>-2.00449836440384387969970703125</LongitudeDegrees>
            </Position>
            <AltitudeMeters>138.8000030517578125</AltitudeMeters>
            <DistanceMeters>NAN</DistanceMeters>
          </Trackpoint>
          <Trackpoint>
            <Time>2021-08-13T09:12:53.000Z</Time>
            <Position>
              <LatitudeDegrees>43.18808089010417461395263671875</LatitudeDegrees>
              <LongitudeDegrees>-2.00447657145559787750244140625</LongitudeDegrees>
            </Position>
            <AltitudeMeters>139</AltitudeMeters>
            <DistanceMeters>NAN</DistanceMeters>
          </Trackpoint>
          <Trackpoint>
            <Time>2021-08-13T09:12:54.000Z</Time>
            <Position>
              <LatitudeDegrees>43.18805507384240627288818359375</LatitudeDegrees>
              <LongitudeDegrees>-2.00445964001119136810302734375</LongitudeDegrees>
            </Position>
            <AltitudeMeters>139</AltitudeMeters>
            <DistanceMeters>NAN</DistanceMeters>
          </Trackpoint>
          <Trackpoint>
            <Time>2021-08-13T09:12:59.000Z</Time>
            <Position>
              <LatitudeDegrees>43.18792263977229595184326171875</LatitudeDegrees>
              <LongitudeDegrees>-2.0043308101594448089599609375</LongitudeDegrees>
            </Position>
            <AltitudeMeters>139.399993896484375</AltitudeMeters>
            <DistanceMeters>NAN</DistanceMeters>
          </Trackpoint>
          <Trackpoint>
            <Time>2021-08-13T09:13:01.000Z</Time>
            <Position>
              <LatitudeDegrees>43.18787519820034503936767578125</LatitudeDegrees>
              <LongitudeDegrees>-2.00428311713039875030517578125</LongitudeDegrees>
            </Position>
            <AltitudeMeters>139.600006103515625</AltitudeMeters>
            <DistanceMeters>NAN</DistanceMeters>
          </Trackpoint>
          <Trackpoint>
            <Time>2021-08-13T09:13:02.000Z</Time>
            <Position>
              <LatitudeDegrees>43.18785005249083042144775390625</LatitudeDegrees>
              <LongitudeDegrees>-2.0042533613741397857666015625</LongitudeDegrees>
            </Position>
            <AltitudeMeters>139.600006103515625</AltitudeMeters>
            <DistanceMeters>NAN</DistanceMeters>
          </Trackpoint>
          <Trackpoint>
            <Time>2021-08-13T09:13:03.000Z</Time>
            <Position>
              <LatitudeDegrees>43.18782272748649120330810546875</LatitudeDegrees>
              <LongitudeDegrees>-2.00422192923724651336669921875</LongitudeDegrees>
            </Position>
            <AltitudeMeters>139.8000030517578125</AltitudeMeters>
            <DistanceMeters>NAN</DistanceMeters>
          </Trackpoint>
          <Trackpoint>
            <Time>2021-08-13T09:13:05.000Z</Time>
            <Position>
              <LatitudeDegrees>43.187792301177978515625</LatitudeDegrees>
              <LongitudeDegrees>-2.0041658543050289154052734375</LongitudeDegrees>
            </Position>
            <AltitudeMeters>140</AltitudeMeters>
            <DistanceMeters>NAN</DistanceMeters>
          </Trackpoint>
          <Trackpoint>
            <Time>2021-08-13T09:13:08.000Z</Time>
            <Position>
              <LatitudeDegrees>43.187740333378314971923828125</LatitudeDegrees>
              <LongitudeDegrees>-2.00406485237181186676025390625</LongitudeDegrees>
            </Position>
            <AltitudeMeters>140.1999969482421875</AltitudeMeters>
            <DistanceMeters>NAN</DistanceMeters>
          </Trackpoint>
          <Trackpoint>
            <Time>2021-08-13T09:13:09.000Z</Time>
            <Position>
              <LatitudeDegrees>43.187727592885494232177734375</LatitudeDegrees>
              <LongitudeDegrees>-2.004032246768474578857421875</LongitudeDegrees>
            </Position>
            <AltitudeMeters>140.399993896484375</AltitudeMeters>
            <DistanceMeters>NAN</DistanceMeters>
          </Trackpoint>
          <Trackpoint>
            <Time>2021-08-13T09:13:10.000Z</Time>
            <Position>
              <LatitudeDegrees>43.18771678023040294647216796875</LatitudeDegrees>
              <LongitudeDegrees>-2.0039992220699787139892578125</LongitudeDegrees>
            </Position>
            <AltitudeMeters>140.600006103515625</AltitudeMeters>
            <DistanceMeters>NAN</DistanceMeters>
          </Trackpoint>
          <Trackpoint>
            <Time>2021-08-13T09:13:11.000Z</Time>
            <Position>
              <LatitudeDegrees>43.18769331090152263641357421875</LatitudeDegrees>
              <LongitudeDegrees>-2.0039723999798297882080078125</LongitudeDegrees>
            </Position>
            <AltitudeMeters>140.600006103515625</AltitudeMeters>
            <DistanceMeters>NAN</DistanceMeters>
          </Trackpoint>
          <Trackpoint>
            <Time>2021-08-13T09:13:12.000Z</Time>
            <Position>
              <LatitudeDegrees>43.187681995332241058349609375</LatitudeDegrees>
              <LongitudeDegrees>-2.0039405487477779388427734375</LongitudeDegrees>
            </Position>
            <AltitudeMeters>140.600006103515625</AltitudeMeters>
            <DistanceMeters>NAN</DistanceMeters>
          </Trackpoint>
          <Trackpoint>
            <Time>2021-08-13T09:13:13.000Z</Time>
            <Position>
              <LatitudeDegrees>43.187667913734912872314453125</LatitudeDegrees>
              <LongitudeDegrees>-2.00390509329736232757568359375</LongitudeDegrees>
            </Position>
            <AltitudeMeters>140.8000030517578125</AltitudeMeters>
            <DistanceMeters>NAN</DistanceMeters>
          </Trackpoint>
          <Trackpoint>
            <Time>2021-08-13T09:13:14.000Z</Time>
            <Position>
              <LatitudeDegrees>43.18765676580369472503662109375</LatitudeDegrees>
              <LongitudeDegrees>-2.00386066921055316925048828125</LongitudeDegrees>
            </Position>
            <AltitudeMeters>140.8000030517578125</AltitudeMeters>
            <DistanceMeters>NAN</DistanceMeters>
          </Trackpoint>
          <Trackpoint>
            <Time>2021-08-13T09:13:16.000Z</Time>
            <Position>
              <LatitudeDegrees>43.1875929795205593109130859375</LatitudeDegrees>
              <LongitudeDegrees>-2.0037967152893543243408203125</LongitudeDegrees>
            </Position>
            <AltitudeMeters>141.1999969482421875</AltitudeMeters>
            <DistanceMeters>NAN</DistanceMeters>
          </Trackpoint>
          <Trackpoint>
            <Time>2021-08-13T09:13:17.000Z</Time>
            <Position>
              <LatitudeDegrees>43.18756221793591976165771484375</LatitudeDegrees>
              <LongitudeDegrees>-2.00377039611339569091796875</LongitudeDegrees>
            </Position>
            <AltitudeMeters>141.1999969482421875</AltitudeMeters>
            <DistanceMeters>NAN</DistanceMeters>
          </Trackpoint>
          <Trackpoint>
            <Time>2021-08-13T09:13:18.000Z</Time>
            <Position>
              <LatitudeDegrees>43.18753271363675594329833984375</LatitudeDegrees>
              <LongitudeDegrees>-2.0037306658923625946044921875</LongitudeDegrees>
            </Position>
            <AltitudeMeters>141.1999969482421875</AltitudeMeters>
            <DistanceMeters>NAN</DistanceMeters>
          </Trackpoint>
          <Trackpoint>
            <Time>2021-08-13T09:13:19.000Z</Time>
            <Position>
              <LatitudeDegrees>43.187513686716556549072265625</LatitudeDegrees>
              <LongitudeDegrees>-2.00369060039520263671875</LongitudeDegrees>
            </Position>
            <AltitudeMeters>141.1999969482421875</AltitudeMeters>
            <DistanceMeters>NAN</DistanceMeters>
          </Trackpoint>
          <Trackpoint>
            <Time>2021-08-13T09:13:21.000Z</Time>
            <Position>
              <LatitudeDegrees>43.18746842443943023681640625</LatitudeDegrees>
              <LongitudeDegrees>-2.0035975612699985504150390625</LongitudeDegrees>
            </Position>
            <AltitudeMeters>141.1999969482421875</AltitudeMeters>
            <DistanceMeters>NAN</DistanceMeters>
          </Trackpoint>
          <Trackpoint>
            <Time>2021-08-13T09:13:22.000Z</Time>
            <Position>
              <LatitudeDegrees>43.18743900395929813385009765625</LatitudeDegrees>
              <LongitudeDegrees>-2.00355724431574344635009765625</LongitudeDegrees>
            </Position>
            <AltitudeMeters>141.1999969482421875</AltitudeMeters>
            <DistanceMeters>NAN</DistanceMeters>
          </Trackpoint>
          <Trackpoint>
            <Time>2021-08-13T09:13:24.000Z</Time>
            <Position>
              <LatitudeDegrees>43.18739357404410839080810546875</LatitudeDegrees>
              <LongitudeDegrees>-2.0035053603351116180419921875</LongitudeDegrees>
            </Position>
            <AltitudeMeters>141.1999969482421875</AltitudeMeters>
            <DistanceMeters>NAN</DistanceMeters>
          </Trackpoint>
          <Trackpoint>
            <Time>2021-08-13T09:13:30.000Z</Time>
            <Position>
              <LatitudeDegrees>43.18729517050087451934814453125</LatitudeDegrees>
              <LongitudeDegrees>-2.00326924212276935577392578125</LongitudeDegrees>
            </Position>
            <AltitudeMeters>141.8000030517578125</AltitudeMeters>
            <DistanceMeters>NAN</DistanceMeters>
          </Trackpoint>
          <Trackpoint>
            <Time>2021-08-13T09:13:31.000Z</Time>
            <Position>
              <LatitudeDegrees>43.18728008307516574859619140625</LatitudeDegrees>
              <LongitudeDegrees>-2.00323940254747867584228515625</LongitudeDegrees>
            </Position>
            <AltitudeMeters>142</AltitudeMeters>
            <DistanceMeters>NAN</DistanceMeters>
          </Trackpoint>
          <Trackpoint>
            <Time>2021-08-13T09:13:34.000Z</Time>
            <Position>
              <LatitudeDegrees>43.1872161291539669036865234375</LatitudeDegrees>
              <LongitudeDegrees>-2.0031447708606719970703125</LongitudeDegrees>
            </Position>
            <AltitudeMeters>142.1999969482421875</AltitudeMeters>
            <DistanceMeters>NAN</DistanceMeters>
          </Trackpoint>
          <Trackpoint>
            <Time>2021-08-13T09:13:35.000Z</Time>
            <Position>
              <LatitudeDegrees>43.1871990300714969635009765625</LatitudeDegrees>
              <LongitudeDegrees>-2.00310847721993923187255859375</LongitudeDegrees>
            </Position>
            <AltitudeMeters>142.399993896484375</AltitudeMeters>
            <DistanceMeters>NAN</DistanceMeters>
          </Trackpoint>
          <Trackpoint>
            <Time>2021-08-13T09:13:36.000Z</Time>
            <Position>
              <LatitudeDegrees>43.187185116112232208251953125</LatitudeDegrees>
              <LongitudeDegrees>-2.00307344086468219757080078125</LongitudeDegrees>
            </Position>
            <AltitudeMeters>142.399993896484375</AltitudeMeters>
            <DistanceMeters>NAN</DistanceMeters>
          </Trackpoint>
          <Trackpoint>
            <Time>2021-08-13T09:13:40.000Z</Time>
            <Position>
              <LatitudeDegrees>43.187128789722919464111328125</LatitudeDegrees>
              <LongitudeDegrees>-2.00294503010809421539306640625</LongitudeDegrees>
            </Position>
            <AltitudeMeters>142.600006103515625</AltitudeMeters>
            <DistanceMeters>NAN</DistanceMeters>
          </Trackpoint>
          <Trackpoint>
            <Time>2021-08-13T09:13:41.000Z</Time>
            <Position>
              <LatitudeDegrees>43.18710942752659320831298828125</LatitudeDegrees>
              <LongitudeDegrees>-2.00291569344699382781982421875</LongitudeDegrees>
            </Position>
            <AltitudeMeters>142.600006103515625</AltitudeMeters>
            <DistanceMeters>NAN</DistanceMeters>
          </Trackpoint>
          <Trackpoint>
            <Time>2021-08-13T09:13:42.000Z</Time>
            <Position>
              <LatitudeDegrees>43.18708897568285465240478515625</LatitudeDegrees>
              <LongitudeDegrees>-2.00288526713848114013671875</LongitudeDegrees>
            </Position>
            <AltitudeMeters>142.8000030517578125</AltitudeMeters>
            <DistanceMeters>NAN</DistanceMeters>
          </Trackpoint>
          <Trackpoint>
            <Time>2021-08-13T09:13:43.000Z</Time>
            <Position>
              <LatitudeDegrees>43.18706810474395751953125</LatitudeDegrees>
              <LongitudeDegrees>-2.00285769067704677581787109375</LongitudeDegrees>
            </Position>
            <AltitudeMeters>142.8000030517578125</AltitudeMeters>
            <DistanceMeters>NAN</DistanceMeters>
          </Trackpoint>
          <Trackpoint>
            <Time>2021-08-13T09:13:44.000Z</Time>
            <Position>
              <LatitudeDegrees>43.1870448030531406402587890625</LatitudeDegrees>
              <LongitudeDegrees>-2.0028311200439929962158203125</LongitudeDegrees>
            </Position>
            <AltitudeMeters>143</AltitudeMeters>
            <DistanceMeters>NAN</DistanceMeters>
          </Trackpoint>
          <Trackpoint>
            <Time>2021-08-13T09:13:45.000Z</Time>
            <Position>
              <LatitudeDegrees>43.18702317774295806884765625</LatitudeDegrees>
              <LongitudeDegrees>-2.00280345976352691650390625</LongitudeDegrees>
            </Position>
            <AltitudeMeters>143</AltitudeMeters>
            <DistanceMeters>NAN</DistanceMeters>
          </Trackpoint>
          <Trackpoint>
            <Time>2021-08-13T09:13:46.000Z</Time>
            <Position>
              <LatitudeDegrees>43.1870022229850292205810546875</LatitudeDegrees>
              <LongitudeDegrees>-2.0027721114456653594970703125</LongitudeDegrees>
            </Position>
            <AltitudeMeters>143.1999969482421875</AltitudeMeters>
            <DistanceMeters>NAN</DistanceMeters>
          </Trackpoint>
          <Trackpoint>
            <Time>2021-08-13T09:13:47.000Z</Time>
            <Position>
              <LatitudeDegrees>43.18698554299771785736083984375</LatitudeDegrees>
              <LongitudeDegrees>-2.0027365721762180328369140625</LongitudeDegrees>
            </Position>
            <AltitudeMeters>143.1999969482421875</AltitudeMeters>
            <DistanceMeters>NAN</DistanceMeters>
          </Trackpoint>
          <Trackpoint>
            <Time>2021-08-13T09:13:48.000Z</Time>
            <Position>
              <LatitudeDegrees>43.18696492351591587066650390625</LatitudeDegrees>
              <LongitudeDegrees>-2.0027027092874050140380859375</LongitudeDegrees>
            </Position>
            <AltitudeMeters>143.399993896484375</AltitudeMeters>
            <DistanceMeters>NAN</DistanceMeters>
          </Trackpoint>
          <Trackpoint>
            <Time>2021-08-13T09:13:54.000Z</Time>
            <Position>
              <LatitudeDegrees>43.18687087856233119964599609375</LatitudeDegrees>
              <LongitudeDegrees>-2.0025384239852428436279296875</LongitudeDegrees>
            </Position>
            <AltitudeMeters>143.8000030517578125</AltitudeMeters>
            <DistanceMeters>NAN</DistanceMeters>
          </Trackpoint>
          <Trackpoint>
            <Time>2021-08-13T09:13:57.000Z</Time>
            <Position>
              <LatitudeDegrees>43.1868017278611660003662109375</LatitudeDegrees>
              <LongitudeDegrees>-2.0024500787258148193359375</LongitudeDegrees>
            </Position>
            <AltitudeMeters>144</AltitudeMeters>
            <DistanceMeters>NAN</DistanceMeters>
          </Trackpoint>
          <Trackpoint>
            <Time>2021-08-13T09:14:01.000Z</Time>
            <Position>
              <LatitudeDegrees>43.18673291243612766265869140625</LatitudeDegrees>
              <LongitudeDegrees>-2.0023272000253200531005859375</LongitudeDegrees>
            </Position>
            <AltitudeMeters>144.399993896484375</AltitudeMeters>
            <DistanceMeters>NAN</DistanceMeters>
          </Trackpoint>
          <Trackpoint>
            <Time>2021-08-13T09:14:02.000Z</Time>
            <Position>
              <LatitudeDegrees>43.18671816028654575347900390625</LatitudeDegrees>
              <LongitudeDegrees>-2.00229442678391933441162109375</LongitudeDegrees>
            </Position>
            <AltitudeMeters>144.600006103515625</AltitudeMeters>
            <DistanceMeters>NAN</DistanceMeters>
          </Trackpoint>
          <Trackpoint>
            <Time>2021-08-13T09:14:04.000Z</Time>
            <Position>
              <LatitudeDegrees>43.1866857223212718963623046875</LatitudeDegrees>
              <LongitudeDegrees>-2.00223751366138458251953125</LongitudeDegrees>
            </Position>
            <AltitudeMeters>144.8000030517578125</AltitudeMeters>
            <DistanceMeters>NAN</DistanceMeters>
          </Trackpoint>
          <Trackpoint>
            <Time>2021-08-13T09:14:06.000Z</Time>
            <Position>
              <LatitudeDegrees>43.1866510212421417236328125</LatitudeDegrees>
              <LongitudeDegrees>-2.00219032354652881622314453125</LongitudeDegrees>
            </Position>
            <AltitudeMeters>145</AltitudeMeters>
            <DistanceMeters>NAN</DistanceMeters>
          </Trackpoint>
          <Trackpoint>
            <Time>2021-08-13T09:14:07.000Z</Time>
            <Position>
              <LatitudeDegrees>43.1866407953202724456787109375</LatitudeDegrees>
              <LongitudeDegrees>-2.00215763412415981292724609375</LongitudeDegrees>
            </Position>
            <AltitudeMeters>145</AltitudeMeters>
            <DistanceMeters>NAN</DistanceMeters>
          </Trackpoint>
          <Trackpoint>
            <Time>2021-08-13T09:14:08.000Z</Time>
            <Position>
              <LatitudeDegrees>43.18662746809422969818115234375</LatitudeDegrees>
              <LongitudeDegrees>-2.00212041847407817840576171875</LongitudeDegrees>
            </Position>
            <AltitudeMeters>145.1999969482421875</AltitudeMeters>
            <DistanceMeters>NAN</DistanceMeters>
          </Trackpoint>
          <Trackpoint>
            <Time>2021-08-13T09:14:09.000Z</Time>
            <Position>
              <LatitudeDegrees>43.186615146696567535400390625</LatitudeDegrees>
              <LongitudeDegrees>-2.00208730995655059814453125</LongitudeDegrees>
            </Position>
            <AltitudeMeters>145.399993896484375</AltitudeMeters>
            <DistanceMeters>NAN</DistanceMeters>
          </Trackpoint>
          <Trackpoint>
            <Time>2021-08-13T09:14:10.000Z</Time>
            <Position>
              <LatitudeDegrees>43.18660165183246135711669921875</LatitudeDegrees>
              <LongitudeDegrees>-2.002054117619991302490234375</LongitudeDegrees>
            </Position>
            <AltitudeMeters>145.399993896484375</AltitudeMeters>
            <DistanceMeters>NAN</DistanceMeters>
          </Trackpoint>
          <Trackpoint>
            <Time>2021-08-13T09:14:11.000Z</Time>
            <Position>
              <LatitudeDegrees>43.18658254109323024749755859375</LatitudeDegrees>
              <LongitudeDegrees>-2.0020180754363536834716796875</LongitudeDegrees>
            </Position>
            <AltitudeMeters>145.600006103515625</AltitudeMeters>
            <DistanceMeters>NAN</DistanceMeters>
          </Trackpoint>
          <Trackpoint>
            <Time>2021-08-13T09:14:12.000Z</Time>
            <Position>
              <LatitudeDegrees>43.1865705549716949462890625</LatitudeDegrees>
              <LongitudeDegrees>-2.00198077596724033355712890625</LongitudeDegrees>
            </Position>
            <AltitudeMeters>145.600006103515625</AltitudeMeters>
            <DistanceMeters>NAN</DistanceMeters>
          </Trackpoint>
          <Trackpoint>
            <Time>2021-08-13T09:14:13.000Z</Time>
            <Position>
              <LatitudeDegrees>43.18655521608889102935791015625</LatitudeDegrees>
              <LongitudeDegrees>-2.00194423086941242218017578125</LongitudeDegrees>
            </Position>
            <AltitudeMeters>145.8000030517578125</AltitudeMeters>
            <DistanceMeters>NAN</DistanceMeters>
          </Trackpoint>
          <Trackpoint>
            <Time>2021-08-13T09:14:14.000Z</Time>
            <Position>
              <LatitudeDegrees>43.18654046393930912017822265625</LatitudeDegrees>
              <LongitudeDegrees>-2.00190466828644275665283203125</LongitudeDegrees>
            </Position>
            <AltitudeMeters>145.8000030517578125</AltitudeMeters>
            <DistanceMeters>NAN</DistanceMeters>
          </Trackpoint>
          <Trackpoint>
            <Time>2021-08-13T09:14:15.000Z</Time>
            <Position>
              <LatitudeDegrees>43.1865281425416469573974609375</LatitudeDegrees>
              <LongitudeDegrees>-2.00186602771282196044921875</LongitudeDegrees>
            </Position>
            <AltitudeMeters>146</AltitudeMeters>
            <DistanceMeters>NAN</DistanceMeters>
          </Trackpoint>
          <Trackpoint>
            <Time>2021-08-13T09:14:16.000Z</Time>
            <Position>
              <LatitudeDegrees>43.18652085028588771820068359375</LatitudeDegrees>
              <LongitudeDegrees>-2.00182587839663028717041015625</LongitudeDegrees>
            </Position>
            <AltitudeMeters>146.1999969482421875</AltitudeMeters>
            <DistanceMeters>NAN</DistanceMeters>
          </Trackpoint>
          <Trackpoint>
            <Time>2021-08-13T09:14:17.000Z</Time>
            <Position>
              <LatitudeDegrees>43.186511881649494171142578125</LatitudeDegrees>
              <LongitudeDegrees>-2.00178363360464572906494140625</LongitudeDegrees>
            </Position>
            <AltitudeMeters>146.1999969482421875</AltitudeMeters>
            <DistanceMeters>NAN</DistanceMeters>
          </Trackpoint>
          <Trackpoint>
            <Time>2021-08-13T09:14:18.000Z</Time>
            <Position>
              <LatitudeDegrees>43.18649989552795886993408203125</LatitudeDegrees>
              <LongitudeDegrees>-2.00174440629780292510986328125</LongitudeDegrees>
            </Position>
            <AltitudeMeters>146.399993896484375</AltitudeMeters>
            <DistanceMeters>NAN</DistanceMeters>
          </Trackpoint>
          <Trackpoint>
            <Time>2021-08-13T09:14:19.000Z</Time>
            <Position>
              <LatitudeDegrees>43.18649285472929477691650390625</LatitudeDegrees>
              <LongitudeDegrees>-2.00170065276324748992919921875</LongitudeDegrees>
            </Position>
            <AltitudeMeters>146.399993896484375</AltitudeMeters>
            <DistanceMeters>NAN</DistanceMeters>
          </Trackpoint>
          <Trackpoint>
            <Time>2021-08-13T09:14:20.000Z</Time>
            <Position>
              <LatitudeDegrees>43.18648941814899444580078125</LatitudeDegrees>
              <LongitudeDegrees>-2.00165790505707263946533203125</LongitudeDegrees>
            </Position>
            <AltitudeMeters>146.399993896484375</AltitudeMeters>
            <DistanceMeters>NAN</DistanceMeters>
          </Trackpoint>
          <Trackpoint>
            <Time>2021-08-13T09:14:21.000Z</Time>
            <Position>
              <LatitudeDegrees>43.18649050779640674591064453125</LatitudeDegrees>
              <LongitudeDegrees>-2.00161079876124858856201171875</LongitudeDegrees>
            </Position>
            <AltitudeMeters>146.399993896484375</AltitudeMeters>
            <DistanceMeters>NAN</DistanceMeters>
          </Trackpoint>
          <Trackpoint>
            <Time>2021-08-13T09:14:22.000Z</Time>
            <Position>
              <LatitudeDegrees>43.18649201653897762298583984375</LatitudeDegrees>
              <LongitudeDegrees>-2.00156159698963165283203125</LongitudeDegrees>
            </Position>
            <AltitudeMeters>146.600006103515625</AltitudeMeters>
            <DistanceMeters>NAN</DistanceMeters>
          </Trackpoint>
          <Trackpoint>
            <Time>2021-08-13T09:14:23.000Z</Time>
            <Position>
              <LatitudeDegrees>43.18649302236735820770263671875</LatitudeDegrees>
              <LongitudeDegrees>-2.00151331722736358642578125</LongitudeDegrees>
            </Position>
            <AltitudeMeters>146.600006103515625</AltitudeMeters>
            <DistanceMeters>NAN</DistanceMeters>
          </Trackpoint>
          <Trackpoint>
            <Time>2021-08-13T09:14:24.000Z</Time>
            <Position>
              <LatitudeDegrees>43.186488412320613861083984375</LatitudeDegrees>
              <LongitudeDegrees>-2.00146663002669811248779296875</LongitudeDegrees>
            </Position>
            <AltitudeMeters>146.600006103515625</AltitudeMeters>
            <DistanceMeters>NAN</DistanceMeters>
          </Trackpoint>
          <Trackpoint>
            <Time>2021-08-13T09:14:25.000Z</Time>
            <Position>
              <LatitudeDegrees>43.1864927709102630615234375</LatitudeDegrees>
              <LongitudeDegrees>-2.0014254748821258544921875</LongitudeDegrees>
            </Position>
            <AltitudeMeters>146.8000030517578125</AltitudeMeters>
            <DistanceMeters>NAN</DistanceMeters>
          </Trackpoint>
          <Trackpoint>
            <Time>2021-08-13T09:14:26.000Z</Time>
            <Position>
              <LatitudeDegrees>43.18649570457637310028076171875</LatitudeDegrees>
              <LongitudeDegrees>-2.0013894326984882354736328125</LongitudeDegrees>
            </Position>
            <AltitudeMeters>146.8000030517578125</AltitudeMeters>
            <DistanceMeters>NAN</DistanceMeters>
          </Trackpoint>
          <Trackpoint>
            <Time>2021-08-13T09:14:27.000Z</Time>
            <Position>
              <LatitudeDegrees>43.1864946149289608001708984375</LatitudeDegrees>
              <LongitudeDegrees>-2.00135163031518459320068359375</LongitudeDegrees>
            </Position>
            <AltitudeMeters>147</AltitudeMeters>
            <DistanceMeters>NAN</DistanceMeters>
          </Trackpoint>
          <Trackpoint>
            <Time>2021-08-13T09:14:28.000Z</Time>
            <Position>
              <LatitudeDegrees>43.186486400663852691650390625</LatitudeDegrees>
              <LongitudeDegrees>-2.00130770914256572723388671875</LongitudeDegrees>
            </Position>
            <AltitudeMeters>147</AltitudeMeters>
            <DistanceMeters>NAN</DistanceMeters>
          </Trackpoint>
          <Trackpoint>
            <Time>2021-08-13T09:14:34.000Z</Time>
            <Position>
              <LatitudeDegrees>43.18649251945316791534423828125</LatitudeDegrees>
              <LongitudeDegrees>-2.00105926953256130218505859375</LongitudeDegrees>
            </Position>
            <AltitudeMeters>147.600006103515625</AltitudeMeters>
            <DistanceMeters>NAN</DistanceMeters>
          </Trackpoint>
          <Trackpoint>
            <Time>2021-08-13T09:14:35.000Z</Time>
            <Position>
              <LatitudeDegrees>43.18650375120341777801513671875</LatitudeDegrees>
              <LongitudeDegrees>-2.00102238915860652923583984375</LongitudeDegrees>
            </Position>
            <AltitudeMeters>147.8000030517578125</AltitudeMeters>
            <DistanceMeters>NAN</DistanceMeters>
          </Trackpoint>
          <Trackpoint>
            <Time>2021-08-13T09:14:36.000Z</Time>
            <Position>
              <LatitudeDegrees>43.1865140609443187713623046875</LatitudeDegrees>
              <LongitudeDegrees>-2.00098584406077861785888671875</LongitudeDegrees>
            </Position>
            <AltitudeMeters>147.8000030517578125</AltitudeMeters>
            <DistanceMeters>NAN</DistanceMeters>
          </Trackpoint>
          <Trackpoint>
            <Time>2021-08-13T09:14:39.000Z</Time>
            <Position>
              <LatitudeDegrees>43.1865388713777065277099609375</LatitudeDegrees>
              <LongitudeDegrees>-2.00086891651153564453125</LongitudeDegrees>
            </Position>
            <AltitudeMeters>148</AltitudeMeters>
            <DistanceMeters>NAN</DistanceMeters>
          </Trackpoint>
          <Trackpoint>
            <Time>2021-08-13T09:14:40.000Z</Time>
            <Position>
              <LatitudeDegrees>43.1865496002137660980224609375</LatitudeDegrees>
              <LongitudeDegrees>-2.00083111412823200225830078125</LongitudeDegrees>
            </Position>
            <AltitudeMeters>148</AltitudeMeters>
            <DistanceMeters>NAN</DistanceMeters>
          </Trackpoint>
          <Trackpoint>
            <Time>2021-08-13T09:14:41.000Z</Time>
            <Position>
              <LatitudeDegrees>43.18656091578304767608642578125</LatitudeDegrees>
              <LongitudeDegrees>-2.0007929764688014984130859375</LongitudeDegrees>
            </Position>
            <AltitudeMeters>148.1999969482421875</AltitudeMeters>
            <DistanceMeters>NAN</DistanceMeters>
          </Trackpoint>
          <Trackpoint>
            <Time>2021-08-13T09:14:43.000Z</Time>
            <Position>
              <LatitudeDegrees>43.18659276701509952545166015625</LatitudeDegrees>
              <LongitudeDegrees>-2.0007200539112091064453125</LongitudeDegrees>
            </Position>
            <AltitudeMeters>148.1999969482421875</AltitudeMeters>
            <DistanceMeters>NAN</DistanceMeters>
          </Trackpoint>
          <Trackpoint>
            <Time>2021-08-13T09:14:44.000Z</Time>
            <Position>
              <LatitudeDegrees>43.18660517223179340362548828125</LatitudeDegrees>
              <LongitudeDegrees>-2.00069096870720386505126953125</LongitudeDegrees>
            </Position>
            <AltitudeMeters>148.399993896484375</AltitudeMeters>
            <DistanceMeters>NAN</DistanceMeters>
          </Trackpoint>
          <Trackpoint>
            <Time>2021-08-13T09:14:47.000Z</Time>
            <Position>
              <LatitudeDegrees>43.18664641119539737701416015625</LatitudeDegrees>
              <LongitudeDegrees>-2.000582255423069000244140625</LongitudeDegrees>
            </Position>
            <AltitudeMeters>148.600006103515625</AltitudeMeters>
            <DistanceMeters>NAN</DistanceMeters>
          </Trackpoint>
          <Trackpoint>
            <Time>2021-08-13T09:14:52.000Z</Time>
            <Position>
              <LatitudeDegrees>43.18672168068587779998779296875</LatitudeDegrees>
              <LongitudeDegrees>-2.000411264598369598388671875</LongitudeDegrees>
            </Position>
            <AltitudeMeters>149</AltitudeMeters>
            <DistanceMeters>NAN</DistanceMeters>
          </Trackpoint>
          <Trackpoint>
            <Time>2021-08-13T09:14:55.000Z</Time>
            <Position>
              <LatitudeDegrees>43.186764679849147796630859375</LatitudeDegrees>
              <LongitudeDegrees>-2.0003256015479564666748046875</LongitudeDegrees>
            </Position>
            <AltitudeMeters>148.8000030517578125</AltitudeMeters>
            <DistanceMeters>NAN</DistanceMeters>
          </Trackpoint>
          <Trackpoint>
            <Time>2021-08-13T09:14:56.000Z</Time>
            <Position>
              <LatitudeDegrees>43.18677750416100025177001953125</LatitudeDegrees>
              <LongitudeDegrees>-2.00029282830655574798583984375</LongitudeDegrees>
            </Position>
            <AltitudeMeters>149</AltitudeMeters>
            <DistanceMeters>NAN</DistanceMeters>
          </Trackpoint>
          <Trackpoint>
            <Time>2021-08-13T09:14:57.000Z</Time>
            <Position>
              <LatitudeDegrees>43.18679711781442165374755859375</LatitudeDegrees>
              <LongitudeDegrees>-2.0002585463225841522216796875</LongitudeDegrees>
            </Position>
            <AltitudeMeters>149</AltitudeMeters>
            <DistanceMeters>NAN</DistanceMeters>
          </Trackpoint>
          <Trackpoint>
            <Time>2021-08-13T09:14:58.000Z</Time>
            <Position>
              <LatitudeDegrees>43.18681706674396991729736328125</LatitudeDegrees>
              <LongitudeDegrees>-2.00022392906248569488525390625</LongitudeDegrees>
            </Position>
            <AltitudeMeters>149.1999969482421875</AltitudeMeters>
            <DistanceMeters>NAN</DistanceMeters>
          </Trackpoint>
          <Trackpoint>
            <Time>2021-08-13T09:14:59.000Z</Time>
            <Position>
              <LatitudeDegrees>43.1868322379887104034423828125</LatitudeDegrees>
              <LongitudeDegrees>-2.000181935727596282958984375</LongitudeDegrees>
            </Position>
            <AltitudeMeters>149.1999969482421875</AltitudeMeters>
            <DistanceMeters>NAN</DistanceMeters>
          </Trackpoint>
          <Trackpoint>
            <Time>2021-08-13T09:15:00.000Z</Time>
            <Position>
              <LatitudeDegrees>43.18685059435665607452392578125</LatitudeDegrees>
              <LongitudeDegrees>-2.00014212168753147125244140625</LongitudeDegrees>
            </Position>
            <AltitudeMeters>149.1999969482421875</AltitudeMeters>
            <DistanceMeters>NAN</DistanceMeters>
          </Trackpoint>
          <Trackpoint>
            <Time>2021-08-13T09:15:02.000Z</Time>
            <Position>
              <LatitudeDegrees>43.18688043393194675445556640625</LatitudeDegrees>
              <LongitudeDegrees>-2.00005511753261089324951171875</LongitudeDegrees>
            </Position>
            <AltitudeMeters>149.399993896484375</AltitudeMeters>
            <DistanceMeters>NAN</DistanceMeters>
          </Trackpoint>
          <Trackpoint>
            <Time>2021-08-13T09:15:07.000Z</Time>
            <Position>
              <LatitudeDegrees>43.1869438849389553070068359375</LatitudeDegrees>
              <LongitudeDegrees>-1.9998615793883800506591796875</LongitudeDegrees>
            </Position>
            <AltitudeMeters>149.8000030517578125</AltitudeMeters>
            <DistanceMeters>NAN</DistanceMeters>
          </Trackpoint>
          <Trackpoint>
            <Time>2021-08-13T09:15:10.000Z</Time>
            <Position>
              <LatitudeDegrees>43.1869784183800220489501953125</LatitudeDegrees>
              <LongitudeDegrees>-1.99973769485950469970703125</LongitudeDegrees>
            </Position>
            <AltitudeMeters>150</AltitudeMeters>
            <DistanceMeters>NAN</DistanceMeters>
          </Trackpoint>
          <Trackpoint>
            <Time>2021-08-13T09:15:13.000Z</Time>
            <Position>
              <LatitudeDegrees>43.1870085932314395904541015625</LatitudeDegrees>
              <LongitudeDegrees>-1.9996010698378086090087890625</LongitudeDegrees>
            </Position>
            <AltitudeMeters>150.1999969482421875</AltitudeMeters>
            <DistanceMeters>NAN</DistanceMeters>
          </Trackpoint>
          <Trackpoint>
            <Time>2021-08-13T09:15:14.000Z</Time>
            <Position>
              <LatitudeDegrees>43.1870159693062305450439453125</LatitudeDegrees>
              <LongitudeDegrees>-1.99954549781978130340576171875</LongitudeDegrees>
            </Position>
            <AltitudeMeters>150.1999969482421875</AltitudeMeters>
            <DistanceMeters>NAN</DistanceMeters>
          </Trackpoint>
          <Trackpoint>
            <Time>2021-08-13T09:15:17.000Z</Time>
            <Position>
              <LatitudeDegrees>43.1870639137923717498779296875</LatitudeDegrees>
              <LongitudeDegrees>-1.999423541128635406494140625</LongitudeDegrees>
            </Position>
            <AltitudeMeters>150.399993896484375</AltitudeMeters>
            <DistanceMeters>NAN</DistanceMeters>
          </Trackpoint>
          <Trackpoint>
            <Time>2021-08-13T09:15:18.000Z</Time>
            <Position>
              <LatitudeDegrees>43.18707740865647792816162109375</LatitudeDegrees>
              <LongitudeDegrees>-1.9993777759373188018798828125</LongitudeDegrees>
            </Position>
            <AltitudeMeters>150.399993896484375</AltitudeMeters>
            <DistanceMeters>NAN</DistanceMeters>
          </Trackpoint>
          <Trackpoint>
            <Time>2021-08-13T09:15:23.000Z</Time>
            <Position>
              <LatitudeDegrees>43.187138848006725311279296875</LatitudeDegrees>
              <LongitudeDegrees>-1.999178119003772735595703125</LongitudeDegrees>
            </Position>
            <AltitudeMeters>150.600006103515625</AltitudeMeters>
            <DistanceMeters>NAN</DistanceMeters>
          </Trackpoint>
          <Trackpoint>
            <Time>2021-08-13T09:15:25.000Z</Time>
            <Position>
              <LatitudeDegrees>43.187169693410396575927734375</LatitudeDegrees>
              <LongitudeDegrees>-1.999117098748683929443359375</LongitudeDegrees>
            </Position>
            <AltitudeMeters>150.8000030517578125</AltitudeMeters>
            <DistanceMeters>NAN</DistanceMeters>
          </Trackpoint>
          <Trackpoint>
            <Time>2021-08-13T09:15:28.000Z</Time>
            <Position>
              <LatitudeDegrees>43.18720816634595394134521484375</LatitudeDegrees>
              <LongitudeDegrees>-1.99901618063449859619140625</LongitudeDegrees>
            </Position>
            <AltitudeMeters>151.1999969482421875</AltitudeMeters>
            <DistanceMeters>NAN</DistanceMeters>
          </Trackpoint>
          <Trackpoint>
            <Time>2021-08-13T09:15:29.000Z</Time>
            <Position>
              <LatitudeDegrees>43.1872178055346012115478515625</LatitudeDegrees>
              <LongitudeDegrees>-1.9989766180515289306640625</LongitudeDegrees>
            </Position>
            <AltitudeMeters>151.399993896484375</AltitudeMeters>
            <DistanceMeters>NAN</DistanceMeters>
          </Trackpoint>
          <Trackpoint>
            <Time>2021-08-13T09:15:30.000Z</Time>
            <Position>
              <LatitudeDegrees>43.187231719493865966796875</LatitudeDegrees>
              <LongitudeDegrees>-1.99894149787724018096923828125</LongitudeDegrees>
            </Position>
            <AltitudeMeters>151.399993896484375</AltitudeMeters>
            <DistanceMeters>NAN</DistanceMeters>
          </Trackpoint>
          <Trackpoint>
            <Time>2021-08-13T09:15:31.000Z</Time>
            <Position>
              <LatitudeDegrees>43.18724772892892360687255859375</LatitudeDegrees>
              <LongitudeDegrees>-1.9989083893597126007080078125</LongitudeDegrees>
            </Position>
            <AltitudeMeters>151.600006103515625</AltitudeMeters>
            <DistanceMeters>NAN</DistanceMeters>
          </Trackpoint>
          <Trackpoint>
            <Time>2021-08-13T09:15:32.000Z</Time>
            <Position>
              <LatitudeDegrees>43.187256865203380584716796875</LatitudeDegrees>
              <LongitudeDegrees>-1.99887310154736042022705078125</LongitudeDegrees>
            </Position>
            <AltitudeMeters>151.600006103515625</AltitudeMeters>
            <DistanceMeters>NAN</DistanceMeters>
          </Trackpoint>
          <Trackpoint>
            <Time>2021-08-13T09:15:33.000Z</Time>
            <Position>
              <LatitudeDegrees>43.18726130761206150054931640625</LatitudeDegrees>
              <LongitudeDegrees>-1.99882649816572666168212890625</LongitudeDegrees>
            </Position>
            <AltitudeMeters>151.8000030517578125</AltitudeMeters>
            <DistanceMeters>NAN</DistanceMeters>
          </Trackpoint>
          <Trackpoint>
            <Time>2021-08-13T09:15:34.000Z</Time>
            <Position>
              <LatitudeDegrees>43.18726516328752040863037109375</LatitudeDegrees>
              <LongitudeDegrees>-1.99878861196339130401611328125</LongitudeDegrees>
            </Position>
            <AltitudeMeters>152</AltitudeMeters>
            <DistanceMeters>NAN</DistanceMeters>
          </Trackpoint>
          <Trackpoint>
            <Time>2021-08-13T09:15:37.000Z</Time>
            <Position>
              <LatitudeDegrees>43.1872838549315929412841796875</LatitudeDegrees>
              <LongitudeDegrees>-1.998667158186435699462890625</LongitudeDegrees>
            </Position>
            <AltitudeMeters>152.1999969482421875</AltitudeMeters>
            <DistanceMeters>NAN</DistanceMeters>
          </Trackpoint>
          <Trackpoint>
            <Time>2021-08-13T09:15:38.000Z</Time>
            <Position>
              <LatitudeDegrees>43.18729014135897159576416015625</LatitudeDegrees>
              <LongitudeDegrees>-1.998616196215152740478515625</LongitudeDegrees>
            </Position>
            <AltitudeMeters>152.1999969482421875</AltitudeMeters>
            <DistanceMeters>NAN</DistanceMeters>
          </Trackpoint>
          <Trackpoint>
            <Time>2021-08-13T09:15:40.000Z</Time>
            <Position>
              <LatitudeDegrees>43.187312521040439605712890625</LatitudeDegrees>
              <LongitudeDegrees>-1.99854813516139984130859375</LongitudeDegrees>
            </Position>
            <AltitudeMeters>152.399993896484375</AltitudeMeters>
            <DistanceMeters>NAN</DistanceMeters>
          </Trackpoint>
          <Trackpoint>
            <Time>2021-08-13T09:15:41.000Z</Time>
            <Position>
              <LatitudeDegrees>43.18732065148651599884033203125</LatitudeDegrees>
              <LongitudeDegrees>-1.99851301498711109161376953125</LongitudeDegrees>
            </Position>
            <AltitudeMeters>152.399993896484375</AltitudeMeters>
            <DistanceMeters>NAN</DistanceMeters>
          </Trackpoint>
          <Trackpoint>
            <Time>2021-08-13T09:15:42.000Z</Time>
            <Position>
              <LatitudeDegrees>43.18732048384845256805419921875</LatitudeDegrees>
              <LongitudeDegrees>-1.99849658645689487457275390625</LongitudeDegrees>
            </Position>
            <AltitudeMeters>152.600006103515625</AltitudeMeters>
            <DistanceMeters>NAN</DistanceMeters>
          </Trackpoint>
          <Trackpoint>
            <Time>2021-08-13T09:15:43.000Z</Time>
            <Position>
              <LatitudeDegrees>43.18732048384845256805419921875</LatitudeDegrees>
              <LongitudeDegrees>-1.99849658645689487457275390625</LongitudeDegrees>
            </Position>
            <AltitudeMeters>152.600006103515625</AltitudeMeters>
            <DistanceMeters>NAN</DistanceMeters>
          </Trackpoint>
          <Trackpoint>
            <Time>2021-08-13T09:15:44.000Z</Time>
            <Position>
              <LatitudeDegrees>43.18731076084077358245849609375</LatitudeDegrees>
              <LongitudeDegrees>-1.9984822534024715423583984375</LongitudeDegrees>
            </Position>
            <AltitudeMeters>152.8000030517578125</AltitudeMeters>
            <DistanceMeters>NAN</DistanceMeters>
          </Trackpoint>
          <Trackpoint>
            <Time>2021-08-13T09:15:54.000Z</Time>
            <Position>
              <LatitudeDegrees>43.187420479953289031982421875</LatitudeDegrees>
              <LongitudeDegrees>-1.997876577079296112060546875</LongitudeDegrees>
            </Position>
            <AltitudeMeters>153.600006103515625</AltitudeMeters>
            <DistanceMeters>NAN</DistanceMeters>
          </Trackpoint>
          <Trackpoint>
            <Time>2021-08-13T09:15:55.000Z</Time>
            <Position>
              <LatitudeDegrees>43.1874642334878444671630859375</LatitudeDegrees>
              <LongitudeDegrees>-1.99789795093238353729248046875</LongitudeDegrees>
            </Position>
            <AltitudeMeters>153.8000030517578125</AltitudeMeters>
            <DistanceMeters>NAN</DistanceMeters>
          </Trackpoint>
          <Trackpoint>
            <Time>2021-08-13T09:15:57.000Z</Time>
            <Position>
              <LatitudeDegrees>43.1874719448387622833251953125</LatitudeDegrees>
              <LongitudeDegrees>-1.99776233173906803131103515625</LongitudeDegrees>
            </Position>
            <AltitudeMeters>153.8000030517578125</AltitudeMeters>
            <DistanceMeters>NAN</DistanceMeters>
          </Trackpoint>
          <Trackpoint>
            <Time>2021-08-13T09:15:58.000Z</Time>
            <Position>
              <LatitudeDegrees>43.18748828954994678497314453125</LatitudeDegrees>
              <LongitudeDegrees>-1.99770483188331127166748046875</LongitudeDegrees>
            </Position>
            <AltitudeMeters>153.8000030517578125</AltitudeMeters>
            <DistanceMeters>NAN</DistanceMeters>
          </Trackpoint>
          <Trackpoint>
            <Time>2021-08-13T09:15:59.000Z</Time>
            <Position>
              <LatitudeDegrees>43.18749533034861087799072265625</LatitudeDegrees>
              <LongitudeDegrees>-1.997651271522045135498046875</LongitudeDegrees>
            </Position>
            <AltitudeMeters>153.8000030517578125</AltitudeMeters>
            <DistanceMeters>NAN</DistanceMeters>
          </Trackpoint>
          <Trackpoint>
            <Time>2021-08-13T09:16:00.000Z</Time>
            <Position>
              <LatitudeDegrees>43.187500946223735809326171875</LatitudeDegrees>
              <LongitudeDegrees>-1.99759637005627155303955078125</LongitudeDegrees>
            </Position>
            <AltitudeMeters>153.8000030517578125</AltitudeMeters>
            <DistanceMeters>NAN</DistanceMeters>
          </Trackpoint>
          <Trackpoint>
            <Time>2021-08-13T09:16:01.000Z</Time>
            <Position>
              <LatitudeDegrees>43.18751494400203227996826171875</LatitudeDegrees>
              <LongitudeDegrees>-1.99754591099917888641357421875</LongitudeDegrees>
            </Position>
            <AltitudeMeters>153.8000030517578125</AltitudeMeters>
            <DistanceMeters>NAN</DistanceMeters>
          </Trackpoint>
          <Trackpoint>
            <Time>2021-08-13T09:16:02.000Z</Time>
            <Position>
              <LatitudeDegrees>43.187527097761631011962890625</LatitudeDegrees>
              <LongitudeDegrees>-1.99749310500919818878173828125</LongitudeDegrees>
            </Position>
            <AltitudeMeters>153.8000030517578125</AltitudeMeters>
            <DistanceMeters>NAN</DistanceMeters>
          </Trackpoint>
          <Trackpoint>
            <Time>2021-08-13T09:16:03.000Z</Time>
            <Position>
              <LatitudeDegrees>43.18753891624510288238525390625</LatitudeDegrees>
              <LongitudeDegrees>-1.99744717217981815338134765625</LongitudeDegrees>
            </Position>
            <AltitudeMeters>153.8000030517578125</AltitudeMeters>
            <DistanceMeters>NAN</DistanceMeters>
          </Trackpoint>
          <Trackpoint>
            <Time>2021-08-13T09:16:04.000Z</Time>
            <Position>
              <LatitudeDegrees>43.1875455379486083984375</LatitudeDegrees>
              <LongitudeDegrees>-1.997397132217884063720703125</LongitudeDegrees>
            </Position>
            <AltitudeMeters>153.8000030517578125</AltitudeMeters>
            <DistanceMeters>NAN</DistanceMeters>
          </Trackpoint>
          <Trackpoint>
            <Time>2021-08-13T09:16:05.000Z</Time>
            <Position>
              <LatitudeDegrees>43.18753975443542003631591796875</LatitudeDegrees>
              <LongitudeDegrees>-1.99736620299518108367919921875</LongitudeDegrees>
            </Position>
            <AltitudeMeters>153.8000030517578125</AltitudeMeters>
            <DistanceMeters>NAN</DistanceMeters>
          </Trackpoint>
          <Trackpoint>
            <Time>2021-08-13T09:16:06.000Z</Time>
            <Position>
              <LatitudeDegrees>43.187543191015720367431640625</LatitudeDegrees>
              <LongitudeDegrees>-1.997320018708705902099609375</LongitudeDegrees>
            </Position>
            <AltitudeMeters>153.8000030517578125</AltitudeMeters>
            <DistanceMeters>NAN</DistanceMeters>
          </Trackpoint>
          <Trackpoint>
            <Time>2021-08-13T09:16:07.000Z</Time>
            <Position>
              <LatitudeDegrees>43.18753841333091259002685546875</LatitudeDegrees>
              <LongitudeDegrees>-1.9972705654799938201904296875</LongitudeDegrees>
            </Position>
            <AltitudeMeters>153.8000030517578125</AltitudeMeters>
            <DistanceMeters>NAN</DistanceMeters>
          </Trackpoint>
          <Trackpoint>
            <Time>2021-08-13T09:16:08.000Z</Time>
            <Position>
              <LatitudeDegrees>43.1875346414744853973388671875</LatitudeDegrees>
              <LongitudeDegrees>-1.997223794460296630859375</LongitudeDegrees>
            </Position>
            <AltitudeMeters>153.8000030517578125</AltitudeMeters>
            <DistanceMeters>NAN</DistanceMeters>
          </Trackpoint>
          <Trackpoint>
            <Time>2021-08-13T09:16:09.000Z</Time>
            <Position>
              <LatitudeDegrees>43.1875366531312465667724609375</LatitudeDegrees>
              <LongitudeDegrees>-1.99717777781188488006591796875</LongitudeDegrees>
            </Position>
            <AltitudeMeters>154</AltitudeMeters>
            <DistanceMeters>NAN</DistanceMeters>
          </Trackpoint>
          <Trackpoint>
            <Time>2021-08-13T09:16:10.000Z</Time>
            <Position>
              <LatitudeDegrees>43.1875379942357540130615234375</LatitudeDegrees>
              <LongitudeDegrees>-1.9971310906112194061279296875</LongitudeDegrees>
            </Position>
            <AltitudeMeters>154</AltitudeMeters>
            <DistanceMeters>NAN</DistanceMeters>
          </Trackpoint>
          <Trackpoint>
            <Time>2021-08-13T09:16:11.000Z</Time>
            <Position>
              <LatitudeDegrees>43.18753958679735660552978515625</LatitudeDegrees>
              <LongitudeDegrees>-1.99708524160087108612060546875</LongitudeDegrees>
            </Position>
            <AltitudeMeters>154</AltitudeMeters>
            <DistanceMeters>NAN</DistanceMeters>
          </Trackpoint>
          <Trackpoint>
            <Time>2021-08-13T09:16:13.000Z</Time>
            <Position>
              <LatitudeDegrees>43.187531121075153350830078125</LatitudeDegrees>
              <LongitudeDegrees>-1.9970030151307582855224609375</LongitudeDegrees>
            </Position>
            <AltitudeMeters>154</AltitudeMeters>
            <DistanceMeters>NAN</DistanceMeters>
          </Trackpoint>
          <Trackpoint>
            <Time>2021-08-13T09:16:14.000Z</Time>
            <Position>
              <LatitudeDegrees>43.18752206861972808837890625</LatitudeDegrees>
              <LongitudeDegrees>-1.99696320109069347381591796875</LongitudeDegrees>
            </Position>
            <AltitudeMeters>154</AltitudeMeters>
            <DistanceMeters>NAN</DistanceMeters>
          </Trackpoint>
          <Trackpoint>
            <Time>2021-08-13T09:16:15.000Z</Time>
            <Position>
              <LatitudeDegrees>43.18752164952456951141357421875</LatitudeDegrees>
              <LongitudeDegrees>-1.99692866764962673187255859375</LongitudeDegrees>
            </Position>
            <AltitudeMeters>154.1999969482421875</AltitudeMeters>
            <DistanceMeters>NAN</DistanceMeters>
          </Trackpoint>
          <Trackpoint>
            <Time>2021-08-13T09:16:17.000Z</Time>
            <Position>
              <LatitudeDegrees>43.1875262595713138580322265625</LatitudeDegrees>
              <LongitudeDegrees>-1.99686245061457157135009765625</LongitudeDegrees>
            </Position>
            <AltitudeMeters>154.399993896484375</AltitudeMeters>
            <DistanceMeters>NAN</DistanceMeters>
          </Trackpoint>
          <Trackpoint>
            <Time>2021-08-13T09:16:19.000Z</Time>
            <Position>
              <LatitudeDegrees>43.18751938641071319580078125</LatitudeDegrees>
              <LongitudeDegrees>-1.99678919278085231781005859375</LongitudeDegrees>
            </Position>
            <AltitudeMeters>154.600006103515625</AltitudeMeters>
            <DistanceMeters>NAN</DistanceMeters>
          </Trackpoint>
          <Trackpoint>
            <Time>2021-08-13T09:16:20.000Z</Time>
            <Position>
              <LatitudeDegrees>43.1875093281269073486328125</LatitudeDegrees>
              <LongitudeDegrees>-1.9967562519013881683349609375</LongitudeDegrees>
            </Position>
            <AltitudeMeters>154.600006103515625</AltitudeMeters>
            <DistanceMeters>NAN</DistanceMeters>
          </Trackpoint>
          <Trackpoint>
            <Time>2021-08-13T09:16:21.000Z</Time>
            <Position>
              <LatitudeDegrees>43.18749868310987949371337890625</LatitudeDegrees>
              <LongitudeDegrees>-1.99672347865998744964599609375</LongitudeDegrees>
            </Position>
            <AltitudeMeters>154.8000030517578125</AltitudeMeters>
            <DistanceMeters>NAN</DistanceMeters>
          </Trackpoint>
          <Trackpoint>
            <Time>2021-08-13T09:16:22.000Z</Time>
            <Position>
              <LatitudeDegrees>43.1874930672347545623779296875</LatitudeDegrees>
              <LongitudeDegrees>-1.99667997658252716064453125</LongitudeDegrees>
            </Position>
            <AltitudeMeters>155</AltitudeMeters>
            <DistanceMeters>NAN</DistanceMeters>
          </Trackpoint>
          <Trackpoint>
            <Time>2021-08-13T09:16:23.000Z</Time>
            <Position>
              <LatitudeDegrees>43.18748862482607364654541015625</LatitudeDegrees>
              <LongitudeDegrees>-1.99663303792476654052734375</LongitudeDegrees>
            </Position>
            <AltitudeMeters>155</AltitudeMeters>
            <DistanceMeters>NAN</DistanceMeters>
          </Trackpoint>
          <Trackpoint>
            <Time>2021-08-13T09:16:25.000Z</Time>
            <Position>
              <LatitudeDegrees>43.18747915327548980712890625</LatitudeDegrees>
              <LongitudeDegrees>-1.996566988527774810791015625</LongitudeDegrees>
            </Position>
            <AltitudeMeters>155.1999969482421875</AltitudeMeters>
            <DistanceMeters>NAN</DistanceMeters>
          </Trackpoint>
          <Trackpoint>
            <Time>2021-08-13T09:16:26.000Z</Time>
            <Position>
              <LatitudeDegrees>43.18746213801205158233642578125</LatitudeDegrees>
              <LongitudeDegrees>-1.996529437601566314697265625</LongitudeDegrees>
            </Position>
            <AltitudeMeters>155.1999969482421875</AltitudeMeters>
            <DistanceMeters>NAN</DistanceMeters>
          </Trackpoint>
          <Trackpoint>
            <Time>2021-08-13T09:16:27.000Z</Time>
            <Position>
              <LatitudeDegrees>43.18745140917599201202392578125</LatitudeDegrees>
              <LongitudeDegrees>-1.9965051300823688507080078125</LongitudeDegrees>
            </Position>
            <AltitudeMeters>155.1999969482421875</AltitudeMeters>
            <DistanceMeters>NAN</DistanceMeters>
          </Trackpoint>
          <Trackpoint>
            <Time>2021-08-13T09:16:28.000Z</Time>
            <Position>
              <LatitudeDegrees>43.1874449551105499267578125</LatitudeDegrees>
              <LongitudeDegrees>-1.9964749552309513092041015625</LongitudeDegrees>
            </Position>
            <AltitudeMeters>155.399993896484375</AltitudeMeters>
            <DistanceMeters>NAN</DistanceMeters>
          </Trackpoint>
          <Trackpoint>
            <Time>2021-08-13T09:16:29.000Z</Time>
            <Position>
              <LatitudeDegrees>43.18744252435863018035888671875</LatitudeDegrees>
              <LongitudeDegrees>-1.99643111787736415863037109375</LongitudeDegrees>
            </Position>
            <AltitudeMeters>155.399993896484375</AltitudeMeters>
            <DistanceMeters>NAN</DistanceMeters>
          </Trackpoint>
          <Trackpoint>
            <Time>2021-08-13T09:16:34.000Z</Time>
            <Position>
              <LatitudeDegrees>43.187395669519901275634765625</LatitudeDegrees>
              <LongitudeDegrees>-1.9962382502853870391845703125</LongitudeDegrees>
            </Position>
            <AltitudeMeters>155.8000030517578125</AltitudeMeters>
            <DistanceMeters>NAN</DistanceMeters>
          </Trackpoint>
          <Trackpoint>
            <Time>2021-08-13T09:16:35.000Z</Time>
            <Position>
              <LatitudeDegrees>43.18739105947315692901611328125</LatitudeDegrees>
              <LongitudeDegrees>-1.9962080754339694976806640625</LongitudeDegrees>
            </Position>
            <AltitudeMeters>156</AltitudeMeters>
            <DistanceMeters>NAN</DistanceMeters>
          </Trackpoint>
          <Trackpoint>
            <Time>2021-08-13T09:16:42.000Z</Time>
            <Position>
              <LatitudeDegrees>43.1873629800975322723388671875</LatitudeDegrees>
              <LongitudeDegrees>-1.9959472306072711944580078125</LongitudeDegrees>
            </Position>
            <AltitudeMeters>156.600006103515625</AltitudeMeters>
            <DistanceMeters>NAN</DistanceMeters>
          </Trackpoint>
          <Trackpoint>
            <Time>2021-08-13T09:16:43.000Z</Time>
            <Position>
              <LatitudeDegrees>43.187355101108551025390625</LatitudeDegrees>
              <LongitudeDegrees>-1.99590791948139667510986328125</LongitudeDegrees>
            </Position>
            <AltitudeMeters>156.600006103515625</AltitudeMeters>
            <DistanceMeters>NAN</DistanceMeters>
          </Trackpoint>
          <Trackpoint>
            <Time>2021-08-13T09:16:44.000Z</Time>
            <Position>
              <LatitudeDegrees>43.18734982050955295562744140625</LatitudeDegrees>
              <LongitudeDegrees>-1.99588495306670665740966796875</LongitudeDegrees>
            </Position>
            <AltitudeMeters>156.600006103515625</AltitudeMeters>
            <DistanceMeters>NAN</DistanceMeters>
          </Trackpoint>
          <Trackpoint>
            <Time>2021-08-13T09:16:45.000Z</Time>
            <Position>
              <LatitudeDegrees>43.1873405165970325469970703125</LatitudeDegrees>
              <LongitudeDegrees>-1.99586014263331890106201171875</LongitudeDegrees>
            </Position>
            <AltitudeMeters>156.600006103515625</AltitudeMeters>
            <DistanceMeters>NAN</DistanceMeters>
          </Trackpoint>
          <Trackpoint>
            <Time>2021-08-13T09:16:46.000Z</Time>
            <Position>
              <LatitudeDegrees>43.187322914600372314453125</LatitudeDegrees>
              <LongitudeDegrees>-1.99583482928574085235595703125</LongitudeDegrees>
            </Position>
            <AltitudeMeters>156.8000030517578125</AltitudeMeters>
            <DistanceMeters>NAN</DistanceMeters>
          </Trackpoint>
          <Trackpoint>
            <Time>2021-08-13T09:16:47.000Z</Time>
            <Position>
              <LatitudeDegrees>43.18729542195796966552734375</LatitudeDegrees>
              <LongitudeDegrees>-1.9958117790520191192626953125</LongitudeDegrees>
            </Position>
            <AltitudeMeters>156.8000030517578125</AltitudeMeters>
            <DistanceMeters>NAN</DistanceMeters>
          </Trackpoint>
          <Trackpoint>
            <Time>2021-08-13T09:16:48.000Z</Time>
            <Position>
              <LatitudeDegrees>43.18726533092558383941650390625</LatitudeDegrees>
              <LongitudeDegrees>-1.99578789062798023223876953125</LongitudeDegrees>
            </Position>
            <AltitudeMeters>156.8000030517578125</AltitudeMeters>
            <DistanceMeters>NAN</DistanceMeters>
          </Trackpoint>
          <Trackpoint>
            <Time>2021-08-13T09:16:51.000Z</Time>
            <Position>
              <LatitudeDegrees>43.18717011250555515289306640625</LatitudeDegrees>
              <LongitudeDegrees>-1.99574413709342479705810546875</LongitudeDegrees>
            </Position>
            <AltitudeMeters>156.8000030517578125</AltitudeMeters>
            <DistanceMeters>NAN</DistanceMeters>
          </Trackpoint>
          <Trackpoint>
            <Time>2021-08-13T09:16:52.000Z</Time>
            <Position>
              <LatitudeDegrees>43.1871279515326023101806640625</LatitudeDegrees>
              <LongitudeDegrees>-1.995732486248016357421875</LongitudeDegrees>
            </Position>
            <AltitudeMeters>157</AltitudeMeters>
            <DistanceMeters>NAN</DistanceMeters>
          </Trackpoint>
          <Trackpoint>
            <Time>2021-08-13T09:16:53.000Z</Time>
            <Position>
              <LatitudeDegrees>43.18709383718669414520263671875</LatitudeDegrees>
              <LongitudeDegrees>-1.99571865610778331756591796875</LongitudeDegrees>
            </Position>
            <AltitudeMeters>157</AltitudeMeters>
            <DistanceMeters>NAN</DistanceMeters>
          </Trackpoint>
          <Trackpoint>
            <Time>2021-08-13T09:16:57.000Z</Time>
            <Position>
              <LatitudeDegrees>43.18699375726282596588134765625</LatitudeDegrees>
              <LongitudeDegrees>-1.99567071162164211273193359375</LongitudeDegrees>
            </Position>
            <AltitudeMeters>157.399993896484375</AltitudeMeters>
            <DistanceMeters>NAN</DistanceMeters>
          </Trackpoint>
          <Trackpoint>
            <Time>2021-08-13T09:16:59.000Z</Time>
            <Position>
              <LatitudeDegrees>43.1869381852447986602783203125</LatitudeDegrees>
              <LongitudeDegrees>-1.99563718400895595550537109375</LongitudeDegrees>
            </Position>
            <AltitudeMeters>157.600006103515625</AltitudeMeters>
            <DistanceMeters>NAN</DistanceMeters>
          </Trackpoint>
          <Trackpoint>
            <Time>2021-08-13T09:17:00.000Z</Time>
            <Position>
              <LatitudeDegrees>43.18691127933561801910400390625</LatitudeDegrees>
              <LongitudeDegrees>-1.99563098140060901641845703125</LongitudeDegrees>
            </Position>
            <AltitudeMeters>157.600006103515625</AltitudeMeters>
            <DistanceMeters>NAN</DistanceMeters>
          </Trackpoint>
          <Trackpoint>
            <Time>2021-08-13T09:17:01.000Z</Time>
            <Position>
              <LatitudeDegrees>43.18687724880874156951904296875</LatitudeDegrees>
              <LongitudeDegrees>-1.9956186600029468536376953125</LongitudeDegrees>
            </Position>
            <AltitudeMeters>157.8000030517578125</AltitudeMeters>
            <DistanceMeters>NAN</DistanceMeters>
          </Trackpoint>
          <Trackpoint>
            <Time>2021-08-13T09:17:03.000Z</Time>
            <Position>
              <LatitudeDegrees>43.1868319027125835418701171875</LatitudeDegrees>
              <LongitudeDegrees>-1.9956045784056186676025390625</LongitudeDegrees>
            </Position>
            <AltitudeMeters>158</AltitudeMeters>
            <DistanceMeters>NAN</DistanceMeters>
          </Trackpoint>
          <Trackpoint>
            <Time>2021-08-13T09:17:04.000Z</Time>
            <Position>
              <LatitudeDegrees>43.1868054158985614776611328125</LatitudeDegrees>
              <LongitudeDegrees>-1.99559636414051055908203125</LongitudeDegrees>
            </Position>
            <AltitudeMeters>158</AltitudeMeters>
            <DistanceMeters>NAN</DistanceMeters>
          </Trackpoint>
          <Trackpoint>
            <Time>2021-08-13T09:17:06.000Z</Time>
            <Position>
              <LatitudeDegrees>43.1867645122110843658447265625</LatitudeDegrees>
              <LongitudeDegrees>-1.9955492578446865081787109375</LongitudeDegrees>
            </Position>
            <AltitudeMeters>158</AltitudeMeters>
            <DistanceMeters>NAN</DistanceMeters>
          </Trackpoint>
          <Trackpoint>
            <Time>2021-08-13T09:17:07.000Z</Time>
            <Position>
              <LatitudeDegrees>43.18675152026116847991943359375</LatitudeDegrees>
              <LongitudeDegrees>-1.99552620761096477508544921875</LongitudeDegrees>
            </Position>
            <AltitudeMeters>158.1999969482421875</AltitudeMeters>
            <DistanceMeters>NAN</DistanceMeters>
          </Trackpoint>
          <Trackpoint>
            <Time>2021-08-13T09:17:11.000Z</Time>
            <Position>
              <LatitudeDegrees>43.18664104677736759185791015625</LatitudeDegrees>
              <LongitudeDegrees>-1.995460577309131622314453125</LongitudeDegrees>
            </Position>
            <AltitudeMeters>158.399993896484375</AltitudeMeters>
            <DistanceMeters>NAN</DistanceMeters>
          </Trackpoint>
          <Trackpoint>
            <Time>2021-08-13T09:17:12.000Z</Time>
            <Position>
              <LatitudeDegrees>43.1866106204688549041748046875</LatitudeDegrees>
              <LongitudeDegrees>-1.995451189577579498291015625</LongitudeDegrees>
            </Position>
            <AltitudeMeters>158.399993896484375</AltitudeMeters>
            <DistanceMeters>NAN</DistanceMeters>
          </Trackpoint>
          <Trackpoint>
            <Time>2021-08-13T09:17:14.000Z</Time>
            <Position>
              <LatitudeDegrees>43.18655068986117839813232421875</LatitudeDegrees>
              <LongitudeDegrees>-1.9954307377338409423828125</LongitudeDegrees>
            </Position>
            <AltitudeMeters>158.600006103515625</AltitudeMeters>
            <DistanceMeters>NAN</DistanceMeters>
          </Trackpoint>
          <Trackpoint>
            <Time>2021-08-13T09:17:16.000Z</Time>
            <Position>
              <LatitudeDegrees>43.186515234410762786865234375</LatitudeDegrees>
              <LongitudeDegrees>-1.995390839874744415283203125</LongitudeDegrees>
            </Position>
            <AltitudeMeters>158.600006103515625</AltitudeMeters>
            <DistanceMeters>NAN</DistanceMeters>
          </Trackpoint>
          <Trackpoint>
            <Time>2021-08-13T09:17:17.000Z</Time>
            <Position>
              <LatitudeDegrees>43.186494447290897369384765625</LatitudeDegrees>
              <LongitudeDegrees>-1.9953705556690692901611328125</LongitudeDegrees>
            </Position>
            <AltitudeMeters>158.8000030517578125</AltitudeMeters>
            <DistanceMeters>NAN</DistanceMeters>
          </Trackpoint>
          <Trackpoint>
            <Time>2021-08-13T09:17:18.000Z</Time>
            <Position>
              <LatitudeDegrees>43.18646661937236785888671875</LatitudeDegrees>
              <LongitudeDegrees>-1.995352618396282196044921875</LongitudeDegrees>
            </Position>
            <AltitudeMeters>158.8000030517578125</AltitudeMeters>
            <DistanceMeters>NAN</DistanceMeters>
          </Trackpoint>
          <Trackpoint>
            <Time>2021-08-13T09:17:21.000Z</Time>
            <Position>
              <LatitudeDegrees>43.18638606928288936614990234375</LatitudeDegrees>
              <LongitudeDegrees>-1.99530274607241153717041015625</LongitudeDegrees>
            </Position>
            <AltitudeMeters>159</AltitudeMeters>
            <DistanceMeters>NAN</DistanceMeters>
          </Trackpoint>
          <Trackpoint>
            <Time>2021-08-13T09:17:22.000Z</Time>
            <Position>
              <LatitudeDegrees>43.18636494688689708709716796875</LatitudeDegrees>
              <LongitudeDegrees>-1.99528028257191181182861328125</LongitudeDegrees>
            </Position>
            <AltitudeMeters>159.1999969482421875</AltitudeMeters>
            <DistanceMeters>NAN</DistanceMeters>
          </Trackpoint>
          <Trackpoint>
            <Time>2021-08-13T09:17:23.000Z</Time>
            <Position>
              <LatitudeDegrees>43.1863326765596866607666015625</LatitudeDegrees>
              <LongitudeDegrees>-1.9952609203755855560302734375</LongitudeDegrees>
            </Position>
            <AltitudeMeters>159.1999969482421875</AltitudeMeters>
            <DistanceMeters>NAN</DistanceMeters>
          </Trackpoint>
          <Trackpoint>
            <Time>2021-08-13T09:17:24.000Z</Time>
            <Position>
              <LatitudeDegrees>43.1863023340702056884765625</LatitudeDegrees>
              <LongitudeDegrees>-1.9952438212931156158447265625</LongitudeDegrees>
            </Position>
            <AltitudeMeters>159.1999969482421875</AltitudeMeters>
            <DistanceMeters>NAN</DistanceMeters>
          </Trackpoint>
          <Trackpoint>
            <Time>2021-08-13T09:17:25.000Z</Time>
            <Position>
              <LatitudeDegrees>43.1862693093717098236083984375</LatitudeDegrees>
              <LongitudeDegrees>-1.995224542915821075439453125</LongitudeDegrees>
            </Position>
            <AltitudeMeters>159.1999969482421875</AltitudeMeters>
            <DistanceMeters>NAN</DistanceMeters>
          </Trackpoint>
          <Trackpoint>
            <Time>2021-08-13T09:17:26.000Z</Time>
            <Position>
              <LatitudeDegrees>43.1862364523112773895263671875</LatitudeDegrees>
              <LongitudeDegrees>-1.9952066056430339813232421875</LongitudeDegrees>
            </Position>
            <AltitudeMeters>159.399993896484375</AltitudeMeters>
            <DistanceMeters>NAN</DistanceMeters>
          </Trackpoint>
          <Trackpoint>
            <Time>2021-08-13T09:17:27.000Z</Time>
            <Position>
              <LatitudeDegrees>43.18620418198406696319580078125</LatitudeDegrees>
              <LongitudeDegrees>-1.99519227258861064910888671875</LongitudeDegrees>
            </Position>
            <AltitudeMeters>159.399993896484375</AltitudeMeters>
            <DistanceMeters>NAN</DistanceMeters>
          </Trackpoint>
          <Trackpoint>
            <Time>2021-08-13T09:17:29.000Z</Time>
            <Position>
              <LatitudeDegrees>43.186141736805438995361328125</LatitudeDegrees>
              <LongitudeDegrees>-1.99515941552817821502685546875</LongitudeDegrees>
            </Position>
            <AltitudeMeters>159.399993896484375</AltitudeMeters>
            <DistanceMeters>NAN</DistanceMeters>
          </Trackpoint>
          <Trackpoint>
            <Time>2021-08-13T09:17:31.000Z</Time>
            <Position>
              <LatitudeDegrees>43.18608566187322139739990234375</LatitudeDegrees>
              <LongitudeDegrees>-1.9951328448951244354248046875</LongitudeDegrees>
            </Position>
            <AltitudeMeters>159.600006103515625</AltitudeMeters>
            <DistanceMeters>NAN</DistanceMeters>
          </Trackpoint>
          <Trackpoint>
            <Time>2021-08-13T09:17:36.000Z</Time>
            <Position>
              <LatitudeDegrees>43.18591282702982425689697265625</LatitudeDegrees>
              <LongitudeDegrees>-1.99508314020931720733642578125</LongitudeDegrees>
            </Position>
            <AltitudeMeters>160</AltitudeMeters>
            <DistanceMeters>NAN</DistanceMeters>
          </Trackpoint>
          <Trackpoint>
            <Time>2021-08-13T09:17:38.000Z</Time>
            <Position>
              <LatitudeDegrees>43.18584409542381763458251953125</LatitudeDegrees>
              <LongitudeDegrees>-1.9950828887522220611572265625</LongitudeDegrees>
            </Position>
            <AltitudeMeters>160</AltitudeMeters>
            <DistanceMeters>NAN</DistanceMeters>
          </Trackpoint>
          <Trackpoint>
            <Time>2021-08-13T09:17:42.000Z</Time>
            <Position>
              <LatitudeDegrees>43.18574778735637664794921875</LatitudeDegrees>
              <LongitudeDegrees>-1.99506796896457672119140625</LongitudeDegrees>
            </Position>
            <AltitudeMeters>160.399993896484375</AltitudeMeters>
            <DistanceMeters>NAN</DistanceMeters>
          </Trackpoint>
          <Trackpoint>
            <Time>2021-08-13T09:17:43.000Z</Time>
            <Position>
              <LatitudeDegrees>43.18574217148125171661376953125</LatitudeDegrees>
              <LongitudeDegrees>-1.99505531229078769683837890625</LongitudeDegrees>
            </Position>
            <AltitudeMeters>160.600006103515625</AltitudeMeters>
            <DistanceMeters>NAN</DistanceMeters>
          </Trackpoint>
          <Trackpoint>
            <Time>2021-08-13T09:17:44.000Z</Time>
            <Position>
              <LatitudeDegrees>43.1857419200241565704345703125</LatitudeDegrees>
              <LongitudeDegrees>-1.9950332678854465484619140625</LongitudeDegrees>
            </Position>
            <AltitudeMeters>160.600006103515625</AltitudeMeters>
            <DistanceMeters>NAN</DistanceMeters>
          </Trackpoint>
          <Trackpoint>
            <Time>2021-08-13T09:17:45.000Z</Time>
            <Position>
              <LatitudeDegrees>43.1857415847480297088623046875</LatitudeDegrees>
              <LongitudeDegrees>-1.995015330612659454345703125</LongitudeDegrees>
            </Position>
            <AltitudeMeters>160.8000030517578125</AltitudeMeters>
            <DistanceMeters>NAN</DistanceMeters>
          </Trackpoint>
          <Trackpoint>
            <Time>2021-08-13T09:17:46.000Z</Time>
            <Position>
              <LatitudeDegrees>43.18574116565287113189697265625</LatitudeDegrees>
              <LongitudeDegrees>-1.99500619433820247650146484375</LongitudeDegrees>
            </Position>
            <AltitudeMeters>160.8000030517578125</AltitudeMeters>
            <DistanceMeters>NAN</DistanceMeters>
          </Trackpoint>
          <Trackpoint>
            <Time>2021-08-13T09:17:47.000Z</Time>
            <Position>
              <LatitudeDegrees>43.185742087662220001220703125</LatitudeDegrees>
              <LongitudeDegrees>-1.9950074516236782073974609375</LongitudeDegrees>
            </Position>
            <AltitudeMeters>160.8000030517578125</AltitudeMeters>
            <DistanceMeters>NAN</DistanceMeters>
          </Trackpoint>
          <Trackpoint>
            <Time>2021-08-13T09:17:50.000Z</Time>
            <Position>
              <LatitudeDegrees>43.18574200384318828582763671875</LatitudeDegrees>
              <LongitudeDegrees>-1.9950198568403720855712890625</LongitudeDegrees>
            </Position>
            <AltitudeMeters>160.8000030517578125</AltitudeMeters>
            <DistanceMeters>NAN</DistanceMeters>
          </Trackpoint>
          <Trackpoint>
            <Time>2021-08-13T09:17:51.000Z</Time>
            <Position>
              <LatitudeDegrees>43.18573462776839733123779296875</LatitudeDegrees>
              <LongitudeDegrees>-1.995016001164913177490234375</LongitudeDegrees>
            </Position>
            <AltitudeMeters>160.8000030517578125</AltitudeMeters>
            <DistanceMeters>NAN</DistanceMeters>
          </Trackpoint>
          <Trackpoint>
            <Time>2021-08-13T09:17:56.000Z</Time>
            <Position>
              <LatitudeDegrees>43.185748793184757232666015625</LatitudeDegrees>
              <LongitudeDegrees>-1.9950015842914581298828125</LongitudeDegrees>
            </Position>
            <AltitudeMeters>160.8000030517578125</AltitudeMeters>
            <DistanceMeters>NAN</DistanceMeters>
          </Trackpoint>
          <Trackpoint>
            <Time>2021-08-13T09:18:12.000Z</Time>
            <Position>
              <LatitudeDegrees>43.18575440905988216400146484375</LatitudeDegrees>
              <LongitudeDegrees>-1.9950064457952976226806640625</LongitudeDegrees>
            </Position>
            <AltitudeMeters>160.8000030517578125</AltitudeMeters>
            <DistanceMeters>NAN</DistanceMeters>
          </Trackpoint>
          <Trackpoint>
            <Time>2021-08-13T09:23:26.000Z</Time>
            <Position>
              <LatitudeDegrees>43.18579061888158321380615234375</LatitudeDegrees>
              <LongitudeDegrees>-1.99502295814454555511474609375</LongitudeDegrees>
            </Position>
            <AltitudeMeters>160.600006103515625</AltitudeMeters>
            <DistanceMeters>NAN</DistanceMeters>
          </Trackpoint>
          <Trackpoint>
            <Time>2021-08-13T09:26:29.000Z</Time>
            <Position>
              <LatitudeDegrees>43.18578978069126605987548828125</LatitudeDegrees>
              <LongitudeDegrees>-1.99502312578260898590087890625</LongitudeDegrees>
            </Position>
            <AltitudeMeters>160.8000030517578125</AltitudeMeters>
            <DistanceMeters>NAN</DistanceMeters>
          </Trackpoint>
          <Trackpoint>
            <Time>2021-08-13T09:41:28.000Z</Time>
            <Position>
              <LatitudeDegrees>43.185787014663219451904296875</LatitudeDegrees>
              <LongitudeDegrees>-1.99500870890915393829345703125</LongitudeDegrees>
            </Position>
            <AltitudeMeters>160.399993896484375</AltitudeMeters>
            <DistanceMeters>NAN</DistanceMeters>
          </Trackpoint>
          <Trackpoint>
            <Time>2021-08-13T09:41:38.000Z</Time>
            <Position>
              <LatitudeDegrees>43.18578667938709259033203125</LatitudeDegrees>
              <LongitudeDegrees>-1.99501457624137401580810546875</LongitudeDegrees>
            </Position>
            <AltitudeMeters>160.399993896484375</AltitudeMeters>
            <DistanceMeters>NAN</DistanceMeters>
          </Trackpoint>
          <Trackpoint>
            <Time>2021-08-13T09:41:40.000Z</Time>
            <Position>
              <LatitudeDegrees>43.1857804767787456512451171875</LatitudeDegrees>
              <LongitudeDegrees>-1.99504760093986988067626953125</LongitudeDegrees>
            </Position>
            <AltitudeMeters>160.1999969482421875</AltitudeMeters>
            <DistanceMeters>NAN</DistanceMeters>
          </Trackpoint>
          <Trackpoint>
            <Time>2021-08-13T09:41:41.000Z</Time>
            <Position>
              <LatitudeDegrees>43.18576865829527378082275390625</LatitudeDegrees>
              <LongitudeDegrees>-1.99506453238427639007568359375</LongitudeDegrees>
            </Position>
            <AltitudeMeters>160.1999969482421875</AltitudeMeters>
            <DistanceMeters>NAN</DistanceMeters>
          </Trackpoint>
          <Trackpoint>
            <Time>2021-08-13T09:41:42.000Z</Time>
            <Position>
              <LatitudeDegrees>43.18575591780245304107666015625</LatitudeDegrees>
              <LongitudeDegrees>-1.99508163146674633026123046875</LongitudeDegrees>
            </Position>
            <AltitudeMeters>160.1999969482421875</AltitudeMeters>
            <DistanceMeters>NAN</DistanceMeters>
          </Trackpoint>
          <Trackpoint>
            <Time>2021-08-13T09:41:43.000Z</Time>
            <Position>
              <LatitudeDegrees>43.1857435964047908782958984375</LatitudeDegrees>
              <LongitudeDegrees>-1.9950942881405353546142578125</LongitudeDegrees>
            </Position>
            <AltitudeMeters>160.1999969482421875</AltitudeMeters>
            <DistanceMeters>NAN</DistanceMeters>
          </Trackpoint>
          <Trackpoint>
            <Time>2021-08-13T09:41:44.000Z</Time>
            <Position>
              <LatitudeDegrees>43.18573596887290477752685546875</LatitudeDegrees>
              <LongitudeDegrees>-1.9951080344617366790771484375</LongitudeDegrees>
            </Position>
            <AltitudeMeters>160.1999969482421875</AltitudeMeters>
            <DistanceMeters>NAN</DistanceMeters>
          </Trackpoint>
          <Trackpoint>
            <Time>2021-08-13T09:41:46.000Z</Time>
            <Position>
              <LatitudeDegrees>43.18569757975637912750244140625</LatitudeDegrees>
              <LongitudeDegrees>-1.99514013715088367462158203125</LongitudeDegrees>
            </Position>
            <AltitudeMeters>160.1999969482421875</AltitudeMeters>
            <DistanceMeters>NAN</DistanceMeters>
          </Trackpoint>
          <Trackpoint>
            <Time>2021-08-13T09:41:47.000Z</Time>
            <Position>
              <LatitudeDegrees>43.18568215705454349517822265625</LatitudeDegrees>
              <LongitudeDegrees>-1.99516125954687595367431640625</LongitudeDegrees>
            </Position>
            <AltitudeMeters>160.1999969482421875</AltitudeMeters>
            <DistanceMeters>NAN</DistanceMeters>
          </Trackpoint>
          <Trackpoint>
            <Time>2021-08-13T09:41:48.000Z</Time>
            <Position>
              <LatitudeDegrees>43.18565793335437774658203125</LatitudeDegrees>
              <LongitudeDegrees>-1.995178945362567901611328125</LongitudeDegrees>
            </Position>
            <AltitudeMeters>160.1999969482421875</AltitudeMeters>
            <DistanceMeters>NAN</DistanceMeters>
          </Trackpoint>
          <Trackpoint>
            <Time>2021-08-13T09:41:53.000Z</Time>
            <Position>
              <LatitudeDegrees>43.18556548096239566802978515625</LatitudeDegrees>
              <LongitudeDegrees>-1.99526150710880756378173828125</LongitudeDegrees>
            </Position>
            <AltitudeMeters>160.1999969482421875</AltitudeMeters>
            <DistanceMeters>NAN</DistanceMeters>
          </Trackpoint>
          <Trackpoint>
            <Time>2021-08-13T09:41:54.000Z</Time>
            <Position>
              <LatitudeDegrees>43.1855511479079723358154296875</LatitudeDegrees>
              <LongitudeDegrees>-1.99527340941131114959716796875</LongitudeDegrees>
            </Position>
            <AltitudeMeters>160.1999969482421875</AltitudeMeters>
            <DistanceMeters>NAN</DistanceMeters>
          </Trackpoint>
          <Trackpoint>
            <Time>2021-08-13T09:41:55.000Z</Time>
            <Position>
              <LatitudeDegrees>43.18553228862583637237548828125</LatitudeDegrees>
              <LongitudeDegrees>-1.9952857308089733123779296875</LongitudeDegrees>
            </Position>
            <AltitudeMeters>160.1999969482421875</AltitudeMeters>
            <DistanceMeters>NAN</DistanceMeters>
          </Trackpoint>
          <Trackpoint>
            <Time>2021-08-13T09:41:57.000Z</Time>
            <Position>
              <LatitudeDegrees>43.18547286093235015869140625</LatitudeDegrees>
              <LongitudeDegrees>-1.99532906524837017059326171875</LongitudeDegrees>
            </Position>
            <AltitudeMeters>160.399993896484375</AltitudeMeters>
            <DistanceMeters>NAN</DistanceMeters>
          </Trackpoint>
          <Trackpoint>
            <Time>2021-08-13T09:41:58.000Z</Time>
            <Position>
              <LatitudeDegrees>43.18543757311999797821044921875</LatitudeDegrees>
              <LongitudeDegrees>-1.99535823427140712738037109375</LongitudeDegrees>
            </Position>
            <AltitudeMeters>160.600006103515625</AltitudeMeters>
            <DistanceMeters>NAN</DistanceMeters>
          </Trackpoint>
          <Trackpoint>
            <Time>2021-08-13T09:42:04.000Z</Time>
            <Position>
              <LatitudeDegrees>43.18525199778378009796142578125</LatitudeDegrees>
              <LongitudeDegrees>-1.99543836526572704315185546875</LongitudeDegrees>
            </Position>
            <AltitudeMeters>161.1999969482421875</AltitudeMeters>
            <DistanceMeters>NAN</DistanceMeters>
          </Trackpoint>
          <Trackpoint>
            <Time>2021-08-13T09:42:05.000Z</Time>
            <Position>
              <LatitudeDegrees>43.1852239184081554412841796875</LatitudeDegrees>
              <LongitudeDegrees>-1.99543811380863189697265625</LongitudeDegrees>
            </Position>
            <AltitudeMeters>161.1999969482421875</AltitudeMeters>
            <DistanceMeters>NAN</DistanceMeters>
          </Trackpoint>
          <Trackpoint>
            <Time>2021-08-13T09:42:06.000Z</Time>
            <Position>
              <LatitudeDegrees>43.1852084957063198089599609375</LatitudeDegrees>
              <LongitudeDegrees>-1.99545630253851413726806640625</LongitudeDegrees>
            </Position>
            <AltitudeMeters>161.1999969482421875</AltitudeMeters>
            <DistanceMeters>NAN</DistanceMeters>
          </Trackpoint>
          <Trackpoint>
            <Time>2021-08-13T09:42:07.000Z</Time>
            <Position>
              <LatitudeDegrees>43.1851893849670886993408203125</LatitudeDegrees>
              <LongitudeDegrees>-1.99547189287841320037841796875</LongitudeDegrees>
            </Position>
            <AltitudeMeters>161.399993896484375</AltitudeMeters>
            <DistanceMeters>NAN</DistanceMeters>
          </Trackpoint>
          <Trackpoint>
            <Time>2021-08-13T09:42:08.000Z</Time>
            <Position>
              <LatitudeDegrees>43.1851893849670886993408203125</LatitudeDegrees>
              <LongitudeDegrees>-1.99547189287841320037841796875</LongitudeDegrees>
            </Position>
            <AltitudeMeters>161.399993896484375</AltitudeMeters>
            <DistanceMeters>NAN</DistanceMeters>
          </Trackpoint>
          <Trackpoint>
            <Time>2021-08-13T09:42:09.000Z</Time>
            <Position>
              <LatitudeDegrees>43.18515837192535400390625</LatitudeDegrees>
              <LongitudeDegrees>-1.995493434369564056396484375</LongitudeDegrees>
            </Position>
            <AltitudeMeters>161.399993896484375</AltitudeMeters>
            <DistanceMeters>NAN</DistanceMeters>
          </Trackpoint>
          <Trackpoint>
            <Time>2021-08-13T09:42:10.000Z</Time>
            <Position>
              <LatitudeDegrees>43.18514202721416950225830078125</LatitudeDegrees>
              <LongitudeDegrees>-1.99550726450979709625244140625</LongitudeDegrees>
            </Position>
            <AltitudeMeters>161.600006103515625</AltitudeMeters>
            <DistanceMeters>NAN</DistanceMeters>
          </Trackpoint>
          <Trackpoint>
            <Time>2021-08-13T09:42:11.000Z</Time>
            <Position>
              <LatitudeDegrees>43.1851270236074924468994140625</LatitudeDegrees>
              <LongitudeDegrees>-1.99551614932715892791748046875</LongitudeDegrees>
            </Position>
            <AltitudeMeters>161.8000030517578125</AltitudeMeters>
            <DistanceMeters>NAN</DistanceMeters>
          </Trackpoint>
          <Trackpoint>
            <Time>2021-08-13T09:42:14.000Z</Time>
            <Position>
              <LatitudeDegrees>43.1850532628595829010009765625</LatitudeDegrees>
              <LongitudeDegrees>-1.9955569691956043243408203125</LongitudeDegrees>
            </Position>
            <AltitudeMeters>161.8000030517578125</AltitudeMeters>
            <DistanceMeters>NAN</DistanceMeters>
          </Trackpoint>
          <Trackpoint>
            <Time>2021-08-13T09:42:15.000Z</Time>
            <Position>
              <LatitudeDegrees>43.18502669222652912139892578125</LatitudeDegrees>
              <LongitudeDegrees>-1.9955720566213130950927734375</LongitudeDegrees>
            </Position>
            <AltitudeMeters>162</AltitudeMeters>
            <DistanceMeters>NAN</DistanceMeters>
          </Trackpoint>
          <Trackpoint>
            <Time>2021-08-13T09:42:20.000Z</Time>
            <Position>
              <LatitudeDegrees>43.1848953478038311004638671875</LatitudeDegrees>
              <LongitudeDegrees>-1.99563165195286273956298828125</LongitudeDegrees>
            </Position>
            <AltitudeMeters>162.1999969482421875</AltitudeMeters>
            <DistanceMeters>NAN</DistanceMeters>
          </Trackpoint>
          <Trackpoint>
            <Time>2021-08-13T09:42:21.000Z</Time>
            <Position>
              <LatitudeDegrees>43.18486877717077732086181640625</LatitudeDegrees>
              <LongitudeDegrees>-1.99565403163433074951171875</LongitudeDegrees>
            </Position>
            <AltitudeMeters>162.399993896484375</AltitudeMeters>
            <DistanceMeters>NAN</DistanceMeters>
          </Trackpoint>
          <Trackpoint>
            <Time>2021-08-13T09:42:25.000Z</Time>
            <Position>
              <LatitudeDegrees>43.18476869724690914154052734375</LatitudeDegrees>
              <LongitudeDegrees>-1.99575302191078662872314453125</LongitudeDegrees>
            </Position>
            <AltitudeMeters>163</AltitudeMeters>
            <DistanceMeters>NAN</DistanceMeters>
          </Trackpoint>
          <Trackpoint>
            <Time>2021-08-13T09:42:28.000Z</Time>
            <Position>
              <LatitudeDegrees>43.18465721793472766876220703125</LatitudeDegrees>
              <LongitudeDegrees>-1.99580415152013301849365234375</LongitudeDegrees>
            </Position>
            <AltitudeMeters>163.1999969482421875</AltitudeMeters>
            <DistanceMeters>NAN</DistanceMeters>
          </Trackpoint>
          <Trackpoint>
            <Time>2021-08-13T09:42:29.000Z</Time>
            <Position>
              <LatitudeDegrees>43.18461748771369457244873046875</LatitudeDegrees>
              <LongitudeDegrees>-1.9958171434700489044189453125</LongitudeDegrees>
            </Position>
            <AltitudeMeters>163.399993896484375</AltitudeMeters>
            <DistanceMeters>NAN</DistanceMeters>
          </Trackpoint>
          <Trackpoint>
            <Time>2021-08-13T09:42:30.000Z</Time>
            <Position>
              <LatitudeDegrees>43.18457021377980709075927734375</LatitudeDegrees>
              <LongitudeDegrees>-1.9958349131047725677490234375</LongitudeDegrees>
            </Position>
            <AltitudeMeters>163.399993896484375</AltitudeMeters>
            <DistanceMeters>NAN</DistanceMeters>
          </Trackpoint>
          <Trackpoint>
            <Time>2021-08-13T09:42:31.000Z</Time>
            <Position>
              <LatitudeDegrees>43.18453048355877399444580078125</LatitudeDegrees>
              <LongitudeDegrees>-1.995858214795589447021484375</LongitudeDegrees>
            </Position>
            <AltitudeMeters>163.600006103515625</AltitudeMeters>
            <DistanceMeters>NAN</DistanceMeters>
          </Trackpoint>
          <Trackpoint>
            <Time>2021-08-13T09:42:32.000Z</Time>
            <Position>
              <LatitudeDegrees>43.1844918429851531982421875</LatitudeDegrees>
              <LongitudeDegrees>-1.9958838634192943572998046875</LongitudeDegrees>
            </Position>
            <AltitudeMeters>163.600006103515625</AltitudeMeters>
            <DistanceMeters>NAN</DistanceMeters>
          </Trackpoint>
          <Trackpoint>
            <Time>2021-08-13T09:42:34.000Z</Time>
            <Position>
              <LatitudeDegrees>43.184413723647594451904296875</LatitudeDegrees>
              <LongitudeDegrees>-1.99591831304132938385009765625</LongitudeDegrees>
            </Position>
            <AltitudeMeters>163.8000030517578125</AltitudeMeters>
            <DistanceMeters>NAN</DistanceMeters>
          </Trackpoint>
          <Trackpoint>
            <Time>2021-08-13T09:42:37.000Z</Time>
            <Position>
              <LatitudeDegrees>43.1842656992375850677490234375</LatitudeDegrees>
              <LongitudeDegrees>-1.99599173851311206817626953125</LongitudeDegrees>
            </Position>
            <AltitudeMeters>164</AltitudeMeters>
            <DistanceMeters>NAN</DistanceMeters>
          </Trackpoint>
          <Trackpoint>
            <Time>2021-08-13T09:42:39.000Z</Time>
            <Position>
              <LatitudeDegrees>43.1841882504522800445556640625</LatitudeDegrees>
              <LongitudeDegrees>-1.99602325446903705596923828125</LongitudeDegrees>
            </Position>
            <AltitudeMeters>164.1999969482421875</AltitudeMeters>
            <DistanceMeters>NAN</DistanceMeters>
          </Trackpoint>
          <Trackpoint>
            <Time>2021-08-13T09:42:40.000Z</Time>
            <Position>
              <LatitudeDegrees>43.184146843850612640380859375</LatitudeDegrees>
              <LongitudeDegrees>-1.99602677486836910247802734375</LongitudeDegrees>
            </Position>
            <AltitudeMeters>164.1999969482421875</AltitudeMeters>
            <DistanceMeters>NAN</DistanceMeters>
          </Trackpoint>
          <Trackpoint>
            <Time>2021-08-13T09:42:41.000Z</Time>
            <Position>
              <LatitudeDegrees>43.1840977258980274200439453125</LatitudeDegrees>
              <LongitudeDegrees>-1.9960208237171173095703125</LongitudeDegrees>
            </Position>
            <AltitudeMeters>164.399993896484375</AltitudeMeters>
            <DistanceMeters>NAN</DistanceMeters>
          </Trackpoint>
          <Trackpoint>
            <Time>2021-08-13T09:42:44.000Z</Time>
            <Position>
              <LatitudeDegrees>43.1839693151414394378662109375</LatitudeDegrees>
              <LongitudeDegrees>-1.9960390962660312652587890625</LongitudeDegrees>
            </Position>
            <AltitudeMeters>164.600006103515625</AltitudeMeters>
            <DistanceMeters>NAN</DistanceMeters>
          </Trackpoint>
          <Trackpoint>
            <Time>2021-08-13T09:42:45.000Z</Time>
            <Position>
              <LatitudeDegrees>43.1839151680469512939453125</LatitudeDegrees>
              <LongitudeDegrees>-1.996044628322124481201171875</LongitudeDegrees>
            </Position>
            <AltitudeMeters>164.8000030517578125</AltitudeMeters>
            <DistanceMeters>NAN</DistanceMeters>
          </Trackpoint>
          <Trackpoint>
            <Time>2021-08-13T09:42:46.000Z</Time>
            <Position>
              <LatitudeDegrees>43.18387770093977451324462890625</LatitudeDegrees>
              <LongitudeDegrees>-1.996044628322124481201171875</LongitudeDegrees>
            </Position>
            <AltitudeMeters>165</AltitudeMeters>
            <DistanceMeters>NAN</DistanceMeters>
          </Trackpoint>
          <Trackpoint>
            <Time>2021-08-13T09:42:49.000Z</Time>
            <Position>
              <LatitudeDegrees>43.1837688200175762176513671875</LatitudeDegrees>
              <LongitudeDegrees>-1.9960176385939121246337890625</LongitudeDegrees>
            </Position>
            <AltitudeMeters>165.1999969482421875</AltitudeMeters>
            <DistanceMeters>NAN</DistanceMeters>
          </Trackpoint>
          <Trackpoint>
            <Time>2021-08-13T09:42:50.000Z</Time>
            <Position>
              <LatitudeDegrees>43.18373923189938068389892578125</LatitudeDegrees>
              <LongitudeDegrees>-1.99600984342396259307861328125</LongitudeDegrees>
            </Position>
            <AltitudeMeters>165.600006103515625</AltitudeMeters>
            <DistanceMeters>NAN</DistanceMeters>
          </Trackpoint>
          <Trackpoint>
            <Time>2021-08-13T09:42:52.000Z</Time>
            <Position>
              <LatitudeDegrees>43.1836779601871967315673828125</LatitudeDegrees>
              <LongitudeDegrees>-1.99598721228539943695068359375</LongitudeDegrees>
            </Position>
            <AltitudeMeters>166</AltitudeMeters>
            <DistanceMeters>NAN</DistanceMeters>
          </Trackpoint>
          <Trackpoint>
            <Time>2021-08-13T09:42:53.000Z</Time>
            <Position>
              <LatitudeDegrees>43.183650635182857513427734375</LatitudeDegrees>
              <LongitudeDegrees>-1.9959683530032634735107421875</LongitudeDegrees>
            </Position>
            <AltitudeMeters>166.1999969482421875</AltitudeMeters>
            <DistanceMeters>NAN</DistanceMeters>
          </Trackpoint>
          <Trackpoint>
            <Time>2021-08-13T09:42:54.000Z</Time>
            <Position>
              <LatitudeDegrees>43.18362574093043804168701171875</LatitudeDegrees>
              <LongitudeDegrees>-1.99594211764633655548095703125</LongitudeDegrees>
            </Position>
            <AltitudeMeters>166.1999969482421875</AltitudeMeters>
            <DistanceMeters>NAN</DistanceMeters>
          </Trackpoint>
          <Trackpoint>
            <Time>2021-08-13T09:42:55.000Z</Time>
            <Position>
              <LatitudeDegrees>43.18359741009771823883056640625</LatitudeDegrees>
              <LongitudeDegrees>-1.9959204085171222686767578125</LongitudeDegrees>
            </Position>
            <AltitudeMeters>166.399993896484375</AltitudeMeters>
            <DistanceMeters>NAN</DistanceMeters>
          </Trackpoint>
          <Trackpoint>
            <Time>2021-08-13T09:42:56.000Z</Time>
            <Position>
              <LatitudeDegrees>43.183567486703395843505859375</LatitudeDegrees>
              <LongitudeDegrees>-1.99590188451111316680908203125</LongitudeDegrees>
            </Position>
            <AltitudeMeters>166.600006103515625</AltitudeMeters>
            <DistanceMeters>NAN</DistanceMeters>
          </Trackpoint>
          <Trackpoint>
            <Time>2021-08-13T09:42:57.000Z</Time>
            <Position>
              <LatitudeDegrees>43.183540664613246917724609375</LatitudeDegrees>
              <LongitudeDegrees>-1.99587673880159854888916015625</LongitudeDegrees>
            </Position>
            <AltitudeMeters>166.8000030517578125</AltitudeMeters>
            <DistanceMeters>NAN</DistanceMeters>
          </Trackpoint>
          <Trackpoint>
            <Time>2021-08-13T09:42:58.000Z</Time>
            <Position>
              <LatitudeDegrees>43.183512501418590545654296875</LatitudeDegrees>
              <LongitudeDegrees>-1.995847485959529876708984375</LongitudeDegrees>
            </Position>
            <AltitudeMeters>166.8000030517578125</AltitudeMeters>
            <DistanceMeters>NAN</DistanceMeters>
          </Trackpoint>
          <Trackpoint>
            <Time>2021-08-13T09:42:59.000Z</Time>
            <Position>
              <LatitudeDegrees>43.18348358385264873504638671875</LatitudeDegrees>
              <LongitudeDegrees>-1.99581898748874664306640625</LongitudeDegrees>
            </Position>
            <AltitudeMeters>167.1999969482421875</AltitudeMeters>
            <DistanceMeters>NAN</DistanceMeters>
          </Trackpoint>
          <Trackpoint>
            <Time>2021-08-13T09:43:00.000Z</Time>
            <Position>
              <LatitudeDegrees>43.1834523193538188934326171875</LatitudeDegrees>
              <LongitudeDegrees>-1.99579224921762943267822265625</LongitudeDegrees>
            </Position>
            <AltitudeMeters>167.1999969482421875</AltitudeMeters>
            <DistanceMeters>NAN</DistanceMeters>
          </Trackpoint>
          <Trackpoint>
            <Time>2021-08-13T09:43:01.000Z</Time>
            <Position>
              <LatitudeDegrees>43.1834174506366252899169921875</LatitudeDegrees>
              <LongitudeDegrees>-1.99577598832547664642333984375</LongitudeDegrees>
            </Position>
            <AltitudeMeters>167.399993896484375</AltitudeMeters>
            <DistanceMeters>NAN</DistanceMeters>
          </Trackpoint>
          <Trackpoint>
            <Time>2021-08-13T09:43:02.000Z</Time>
            <Position>
              <LatitudeDegrees>43.18337948061525821685791015625</LatitudeDegrees>
              <LongitudeDegrees>-1.9957655109465122222900390625</LongitudeDegrees>
            </Position>
            <AltitudeMeters>167.600006103515625</AltitudeMeters>
            <DistanceMeters>NAN</DistanceMeters>
          </Trackpoint>
          <Trackpoint>
            <Time>2021-08-13T09:43:03.000Z</Time>
            <Position>
              <LatitudeDegrees>43.18334628827869892120361328125</LatitudeDegrees>
              <LongitudeDegrees>-1.99574564583599567413330078125</LongitudeDegrees>
            </Position>
            <AltitudeMeters>167.600006103515625</AltitudeMeters>
            <DistanceMeters>NAN</DistanceMeters>
          </Trackpoint>
          <Trackpoint>
            <Time>2021-08-13T09:43:04.000Z</Time>
            <Position>
              <LatitudeDegrees>43.1833192147314548492431640625</LatitudeDegrees>
              <LongitudeDegrees>-1.995709352195262908935546875</LongitudeDegrees>
            </Position>
            <AltitudeMeters>167.8000030517578125</AltitudeMeters>
            <DistanceMeters>NAN</DistanceMeters>
          </Trackpoint>
          <Trackpoint>
            <Time>2021-08-13T09:43:05.000Z</Time>
            <Position>
              <LatitudeDegrees>43.18328996188938617706298828125</LatitudeDegrees>
              <LongitudeDegrees>-1.99567238800227642059326171875</LongitudeDegrees>
            </Position>
            <AltitudeMeters>167.8000030517578125</AltitudeMeters>
            <DistanceMeters>NAN</DistanceMeters>
          </Trackpoint>
          <Trackpoint>
            <Time>2021-08-13T09:43:06.000Z</Time>
            <Position>
              <LatitudeDegrees>43.18326263688504695892333984375</LatitudeDegrees>
              <LongitudeDegrees>-1.995635591447353363037109375</LongitudeDegrees>
            </Position>
            <AltitudeMeters>167.8000030517578125</AltitudeMeters>
            <DistanceMeters>NAN</DistanceMeters>
          </Trackpoint>
          <Trackpoint>
            <Time>2021-08-13T09:43:07.000Z</Time>
            <Position>
              <LatitudeDegrees>43.183234222233295440673828125</LatitudeDegrees>
              <LongitudeDegrees>-1.9956050813198089599609375</LongitudeDegrees>
            </Position>
            <AltitudeMeters>168</AltitudeMeters>
            <DistanceMeters>NAN</DistanceMeters>
          </Trackpoint>
          <Trackpoint>
            <Time>2021-08-13T09:43:08.000Z</Time>
            <Position>
              <LatitudeDegrees>43.183205388486385345458984375</LatitudeDegrees>
              <LongitudeDegrees>-1.995576582849025726318359375</LongitudeDegrees>
            </Position>
            <AltitudeMeters>168</AltitudeMeters>
            <DistanceMeters>NAN</DistanceMeters>
          </Trackpoint>
          <Trackpoint>
            <Time>2021-08-13T09:43:09.000Z</Time>
            <Position>
              <LatitudeDegrees>43.18317445926368236541748046875</LatitudeDegrees>
              <LongitudeDegrees>-1.9955482520163059234619140625</LongitudeDegrees>
            </Position>
            <AltitudeMeters>168.1999969482421875</AltitudeMeters>
            <DistanceMeters>NAN</DistanceMeters>
          </Trackpoint>
          <Trackpoint>
            <Time>2021-08-13T09:43:10.000Z</Time>
            <Position>
              <LatitudeDegrees>43.18314227275550365447998046875</LatitudeDegrees>
              <LongitudeDegrees>-1.9955244474112987518310546875</LongitudeDegrees>
            </Position>
            <AltitudeMeters>168.1999969482421875</AltitudeMeters>
            <DistanceMeters>NAN</DistanceMeters>
          </Trackpoint>
          <Trackpoint>
            <Time>2021-08-13T09:43:11.000Z</Time>
            <Position>
              <LatitudeDegrees>43.1831133551895618438720703125</LatitudeDegrees>
              <LongitudeDegrees>-1.99549435637891292572021484375</LongitudeDegrees>
            </Position>
            <AltitudeMeters>168.399993896484375</AltitudeMeters>
            <DistanceMeters>NAN</DistanceMeters>
          </Trackpoint>
          <Trackpoint>
            <Time>2021-08-13T09:43:12.000Z</Time>
            <Position>
              <LatitudeDegrees>43.18308443762362003326416015625</LatitudeDegrees>
              <LongitudeDegrees>-1.99546703137457370758056640625</LongitudeDegrees>
            </Position>
            <AltitudeMeters>168.8000030517578125</AltitudeMeters>
            <DistanceMeters>NAN</DistanceMeters>
          </Trackpoint>
          <Trackpoint>
            <Time>2021-08-13T09:43:13.000Z</Time>
            <Position>
              <LatitudeDegrees>43.1830540113151073455810546875</LatitudeDegrees>
              <LongitudeDegrees>-1.99544037692248821258544921875</LongitudeDegrees>
            </Position>
            <AltitudeMeters>168.8000030517578125</AltitudeMeters>
            <DistanceMeters>NAN</DistanceMeters>
          </Trackpoint>
          <Trackpoint>
            <Time>2021-08-13T09:43:14.000Z</Time>
            <Position>
              <LatitudeDegrees>43.1830211542546749114990234375</LatitudeDegrees>
              <LongitudeDegrees>-1.99542026035487651824951171875</LongitudeDegrees>
            </Position>
            <AltitudeMeters>169</AltitudeMeters>
            <DistanceMeters>NAN</DistanceMeters>
          </Trackpoint>
          <Trackpoint>
            <Time>2021-08-13T09:43:15.000Z</Time>
            <Position>
              <LatitudeDegrees>43.18299123086035251617431640625</LatitudeDegrees>
              <LongitudeDegrees>-1.9954014010727405548095703125</LongitudeDegrees>
            </Position>
            <AltitudeMeters>169</AltitudeMeters>
            <DistanceMeters>NAN</DistanceMeters>
          </Trackpoint>
          <Trackpoint>
            <Time>2021-08-13T09:43:16.000Z</Time>
            <Position>
              <LatitudeDegrees>43.18296558223664760589599609375</LatitudeDegrees>
              <LongitudeDegrees>-1.99538187123835086822509765625</LongitudeDegrees>
            </Position>
            <AltitudeMeters>169</AltitudeMeters>
            <DistanceMeters>NAN</DistanceMeters>
          </Trackpoint>
          <Trackpoint>
            <Time>2021-08-13T09:43:17.000Z</Time>
            <Position>
              <LatitudeDegrees>43.18293741904199123382568359375</LatitudeDegrees>
              <LongitudeDegrees>-1.99535974301397800445556640625</LongitudeDegrees>
            </Position>
            <AltitudeMeters>169.1999969482421875</AltitudeMeters>
            <DistanceMeters>NAN</DistanceMeters>
          </Trackpoint>
          <Trackpoint>
            <Time>2021-08-13T09:43:18.000Z</Time>
            <Position>
              <LatitudeDegrees>43.18290221504867076873779296875</LatitudeDegrees>
              <LongitudeDegrees>-1.9953400455415248870849609375</LongitudeDegrees>
            </Position>
            <AltitudeMeters>169.1999969482421875</AltitudeMeters>
            <DistanceMeters>NAN</DistanceMeters>
          </Trackpoint>
          <Trackpoint>
            <Time>2021-08-13T09:43:19.000Z</Time>
            <Position>
              <LatitudeDegrees>43.1828659214079380035400390625</LatitudeDegrees>
              <LongitudeDegrees>-1.9953226111829280853271484375</LongitudeDegrees>
            </Position>
            <AltitudeMeters>169.399993896484375</AltitudeMeters>
            <DistanceMeters>NAN</DistanceMeters>
          </Trackpoint>
          <Trackpoint>
            <Time>2021-08-13T09:43:20.000Z</Time>
            <Position>
              <LatitudeDegrees>43.1828340701758861541748046875</LatitudeDegrees>
              <LongitudeDegrees>-1.995302326977252960205078125</LongitudeDegrees>
            </Position>
            <AltitudeMeters>169.399993896484375</AltitudeMeters>
            <DistanceMeters>NAN</DistanceMeters>
          </Trackpoint>
          <Trackpoint>
            <Time>2021-08-13T09:43:21.000Z</Time>
            <Position>
              <LatitudeDegrees>43.18279995582997798919677734375</LatitudeDegrees>
              <LongitudeDegrees>-1.99527919292449951171875</LongitudeDegrees>
            </Position>
            <AltitudeMeters>169.600006103515625</AltitudeMeters>
            <DistanceMeters>NAN</DistanceMeters>
          </Trackpoint>
          <Trackpoint>
            <Time>2021-08-13T09:43:22.000Z</Time>
            <Position>
              <LatitudeDegrees>43.18276559002697467803955078125</LatitudeDegrees>
              <LongitudeDegrees>-1.99525312520563602447509765625</LongitudeDegrees>
            </Position>
            <AltitudeMeters>169.600006103515625</AltitudeMeters>
            <DistanceMeters>NAN</DistanceMeters>
          </Trackpoint>
          <Trackpoint>
            <Time>2021-08-13T09:43:23.000Z</Time>
            <Position>
              <LatitudeDegrees>43.1827328167855739593505859375</LatitudeDegrees>
              <LongitudeDegrees>-1.99522479437291622161865234375</LongitudeDegrees>
            </Position>
            <AltitudeMeters>169.8000030517578125</AltitudeMeters>
            <DistanceMeters>NAN</DistanceMeters>
          </Trackpoint>
          <Trackpoint>
            <Time>2021-08-13T09:43:24.000Z</Time>
            <Position>
              <LatitudeDegrees>43.1826989538967609405517578125</LatitudeDegrees>
              <LongitudeDegrees>-1.99519679881632328033447265625</LongitudeDegrees>
            </Position>
            <AltitudeMeters>169.8000030517578125</AltitudeMeters>
            <DistanceMeters>NAN</DistanceMeters>
          </Trackpoint>
          <Trackpoint>
            <Time>2021-08-13T09:43:25.000Z</Time>
            <Position>
              <LatitudeDegrees>43.18265545181930065155029296875</LatitudeDegrees>
              <LongitudeDegrees>-1.9951707310974597930908203125</LongitudeDegrees>
            </Position>
            <AltitudeMeters>170</AltitudeMeters>
            <DistanceMeters>NAN</DistanceMeters>
          </Trackpoint>
          <Trackpoint>
            <Time>2021-08-13T09:43:26.000Z</Time>
            <Position>
              <LatitudeDegrees>43.18261387757956981658935546875</LatitudeDegrees>
              <LongitudeDegrees>-1.9951499439775943756103515625</LongitudeDegrees>
            </Position>
            <AltitudeMeters>170.1999969482421875</AltitudeMeters>
            <DistanceMeters>NAN</DistanceMeters>
          </Trackpoint>
          <Trackpoint>
            <Time>2021-08-13T09:43:27.000Z</Time>
            <Position>
              <LatitudeDegrees>43.18257900886237621307373046875</LatitudeDegrees>
              <LongitudeDegrees>-1.99512840248644351959228515625</LongitudeDegrees>
            </Position>
            <AltitudeMeters>170.1999969482421875</AltitudeMeters>
            <DistanceMeters>NAN</DistanceMeters>
          </Trackpoint>
          <Trackpoint>
            <Time>2021-08-13T09:43:28.000Z</Time>
            <Position>
              <LatitudeDegrees>43.18254095502197742462158203125</LatitudeDegrees>
              <LongitudeDegrees>-1.99510459788143634796142578125</LongitudeDegrees>
            </Position>
            <AltitudeMeters>170.399993896484375</AltitudeMeters>
            <DistanceMeters>NAN</DistanceMeters>
          </Trackpoint>
          <Trackpoint>
            <Time>2021-08-13T09:43:29.000Z</Time>
            <Position>
              <LatitudeDegrees>43.182500638067722320556640625</LatitudeDegrees>
              <LongitudeDegrees>-1.9950795359909534454345703125</LongitudeDegrees>
            </Position>
            <AltitudeMeters>170.399993896484375</AltitudeMeters>
            <DistanceMeters>NAN</DistanceMeters>
          </Trackpoint>
          <Trackpoint>
            <Time>2021-08-13T09:43:30.000Z</Time>
            <Position>
              <LatitudeDegrees>43.18245939910411834716796875</LatitudeDegrees>
              <LongitudeDegrees>-1.99505388736724853515625</LongitudeDegrees>
            </Position>
            <AltitudeMeters>170.8000030517578125</AltitudeMeters>
            <DistanceMeters>NAN</DistanceMeters>
          </Trackpoint>
          <Trackpoint>
            <Time>2021-08-13T09:43:31.000Z</Time>
            <Position>
              <LatitudeDegrees>43.1824186630547046661376953125</LatitudeDegrees>
              <LongitudeDegrees>-1.99502899311482906341552734375</LongitudeDegrees>
            </Position>
            <AltitudeMeters>170.8000030517578125</AltitudeMeters>
            <DistanceMeters>NAN</DistanceMeters>
          </Trackpoint>
          <Trackpoint>
            <Time>2021-08-13T09:43:32.000Z</Time>
            <Position>
              <LatitudeDegrees>43.18238387815654277801513671875</LatitudeDegrees>
              <LongitudeDegrees>-1.99500334449112415313720703125</LongitudeDegrees>
            </Position>
            <AltitudeMeters>170.8000030517578125</AltitudeMeters>
            <DistanceMeters>NAN</DistanceMeters>
          </Trackpoint>
          <Trackpoint>
            <Time>2021-08-13T09:43:33.000Z</Time>
            <Position>
              <LatitudeDegrees>43.182349093258380889892578125</LatitudeDegrees>
              <LongitudeDegrees>-1.99497149325907230377197265625</LongitudeDegrees>
            </Position>
            <AltitudeMeters>171</AltitudeMeters>
            <DistanceMeters>NAN</DistanceMeters>
          </Trackpoint>
          <Trackpoint>
            <Time>2021-08-13T09:43:34.000Z</Time>
            <Position>
              <LatitudeDegrees>43.18231581710278987884521484375</LatitudeDegrees>
              <LongitudeDegrees>-1.9949397258460521697998046875</LongitudeDegrees>
            </Position>
            <AltitudeMeters>171</AltitudeMeters>
            <DistanceMeters>NAN</DistanceMeters>
          </Trackpoint>
          <Trackpoint>
            <Time>2021-08-13T09:43:35.000Z</Time>
            <Position>
              <LatitudeDegrees>43.1822801940143108367919921875</LatitudeDegrees>
              <LongitudeDegrees>-1.99490812607109546661376953125</LongitudeDegrees>
            </Position>
            <AltitudeMeters>171</AltitudeMeters>
            <DistanceMeters>NAN</DistanceMeters>
          </Trackpoint>
          <Trackpoint>
            <Time>2021-08-13T09:43:36.000Z</Time>
            <Position>
              <LatitudeDegrees>43.1822443194687366485595703125</LatitudeDegrees>
              <LongitudeDegrees>-1.994875185191631317138671875</LongitudeDegrees>
            </Position>
            <AltitudeMeters>171</AltitudeMeters>
            <DistanceMeters>NAN</DistanceMeters>
          </Trackpoint>
          <Trackpoint>
            <Time>2021-08-13T09:43:37.000Z</Time>
            <Position>
              <LatitudeDegrees>43.1822144798934459686279296875</LatitudeDegrees>
              <LongitudeDegrees>-1.99483989737927913665771484375</LongitudeDegrees>
            </Position>
            <AltitudeMeters>171.1999969482421875</AltitudeMeters>
            <DistanceMeters>NAN</DistanceMeters>
          </Trackpoint>
          <Trackpoint>
            <Time>2021-08-13T09:43:38.000Z</Time>
            <Position>
              <LatitudeDegrees>43.18218656815588474273681640625</LatitudeDegrees>
              <LongitudeDegrees>-1.9948025979101657867431640625</LongitudeDegrees>
            </Position>
            <AltitudeMeters>171.1999969482421875</AltitudeMeters>
            <DistanceMeters>NAN</DistanceMeters>
          </Trackpoint>
          <Trackpoint>
            <Time>2021-08-13T09:43:39.000Z</Time>
            <Position>
              <LatitudeDegrees>43.18215957842767238616943359375</LatitudeDegrees>
              <LongitudeDegrees>-1.99477032758295536041259765625</LongitudeDegrees>
            </Position>
            <AltitudeMeters>171.1999969482421875</AltitudeMeters>
            <DistanceMeters>NAN</DistanceMeters>
          </Trackpoint>
          <Trackpoint>
            <Time>2021-08-13T09:43:40.000Z</Time>
            <Position>
              <LatitudeDegrees>43.18212873302400112152099609375</LatitudeDegrees>
              <LongitudeDegrees>-1.99474283494055271148681640625</LongitudeDegrees>
            </Position>
            <AltitudeMeters>171.399993896484375</AltitudeMeters>
            <DistanceMeters>NAN</DistanceMeters>
          </Trackpoint>
          <Trackpoint>
            <Time>2021-08-13T09:43:41.000Z</Time>
            <Position>
              <LatitudeDegrees>43.182098306715488433837890625</LatitudeDegrees>
              <LongitudeDegrees>-1.99471282772719860076904296875</LongitudeDegrees>
            </Position>
            <AltitudeMeters>171.399993896484375</AltitudeMeters>
            <DistanceMeters>NAN</DistanceMeters>
          </Trackpoint>
          <Trackpoint>
            <Time>2021-08-13T09:43:42.000Z</Time>
            <Position>
              <LatitudeDegrees>43.18206905387341976165771484375</LatitudeDegrees>
              <LongitudeDegrees>-1.99467896483838558197021484375</LongitudeDegrees>
            </Position>
            <AltitudeMeters>171.600006103515625</AltitudeMeters>
            <DistanceMeters>NAN</DistanceMeters>
          </Trackpoint>
          <Trackpoint>
            <Time>2021-08-13T09:43:43.000Z</Time>
            <Position>
              <LatitudeDegrees>43.182039298117160797119140625</LatitudeDegrees>
              <LongitudeDegrees>-1.9946423359215259552001953125</LongitudeDegrees>
            </Position>
            <AltitudeMeters>171.600006103515625</AltitudeMeters>
            <DistanceMeters>NAN</DistanceMeters>
          </Trackpoint>
          <Trackpoint>
            <Time>2021-08-13T09:43:44.000Z</Time>
            <Position>
              <LatitudeDegrees>43.182009123265743255615234375</LatitudeDegrees>
              <LongitudeDegrees>-1.99460738338530063629150390625</LongitudeDegrees>
            </Position>
            <AltitudeMeters>171.600006103515625</AltitudeMeters>
            <DistanceMeters>NAN</DistanceMeters>
          </Trackpoint>
          <Trackpoint>
            <Time>2021-08-13T09:43:45.000Z</Time>
            <Position>
              <LatitudeDegrees>43.18198037333786487579345703125</LatitudeDegrees>
              <LongitudeDegrees>-1.994575448334217071533203125</LongitudeDegrees>
            </Position>
            <AltitudeMeters>171.8000030517578125</AltitudeMeters>
            <DistanceMeters>NAN</DistanceMeters>
          </Trackpoint>
          <Trackpoint>
            <Time>2021-08-13T09:43:46.000Z</Time>
            <Position>
              <LatitudeDegrees>43.18195321597158908843994140625</LatitudeDegrees>
              <LongitudeDegrees>-1.99454401619732379913330078125</LongitudeDegrees>
            </Position>
            <AltitudeMeters>172</AltitudeMeters>
            <DistanceMeters>NAN</DistanceMeters>
          </Trackpoint>
          <Trackpoint>
            <Time>2021-08-13T09:43:47.000Z</Time>
            <Position>
              <LatitudeDegrees>43.1819281540811061859130859375</LatitudeDegrees>
              <LongitudeDegrees>-1.99450914748013019561767578125</LongitudeDegrees>
            </Position>
            <AltitudeMeters>172.1999969482421875</AltitudeMeters>
            <DistanceMeters>NAN</DistanceMeters>
          </Trackpoint>
          <Trackpoint>
            <Time>2021-08-13T09:43:48.000Z</Time>
            <Position>
              <LatitudeDegrees>43.1819016672670841217041015625</LatitudeDegrees>
              <LongitudeDegrees>-1.99447520077228546142578125</LongitudeDegrees>
            </Position>
            <AltitudeMeters>172.399993896484375</AltitudeMeters>
            <DistanceMeters>NAN</DistanceMeters>
          </Trackpoint>
          <Trackpoint>
            <Time>2021-08-13T09:43:49.000Z</Time>
            <Position>
              <LatitudeDegrees>43.18187576718628406524658203125</LatitudeDegrees>
              <LongitudeDegrees>-1.99444091878831386566162109375</LongitudeDegrees>
            </Position>
            <AltitudeMeters>172.399993896484375</AltitudeMeters>
            <DistanceMeters>NAN</DistanceMeters>
          </Trackpoint>
          <Trackpoint>
            <Time>2021-08-13T09:43:50.000Z</Time>
            <Position>
              <LatitudeDegrees>43.181854896247386932373046875</LatitudeDegrees>
              <LongitudeDegrees>-1.9944089837372303009033203125</LongitudeDegrees>
            </Position>
            <AltitudeMeters>172.600006103515625</AltitudeMeters>
            <DistanceMeters>NAN</DistanceMeters>
          </Trackpoint>
          <Trackpoint>
            <Time>2021-08-13T09:43:51.000Z</Time>
            <Position>
              <LatitudeDegrees>43.18183285184204578399658203125</LatitudeDegrees>
              <LongitudeDegrees>-1.99438107199966907501220703125</LongitudeDegrees>
            </Position>
            <AltitudeMeters>172.600006103515625</AltitudeMeters>
            <DistanceMeters>NAN</DistanceMeters>
          </Trackpoint>
          <Trackpoint>
            <Time>2021-08-13T09:43:52.000Z</Time>
            <Position>
              <LatitudeDegrees>43.1818081252276897430419921875</LatitudeDegrees>
              <LongitudeDegrees>-1.99435324408113956451416015625</LongitudeDegrees>
            </Position>
            <AltitudeMeters>172.600006103515625</AltitudeMeters>
            <DistanceMeters>NAN</DistanceMeters>
          </Trackpoint>
          <Trackpoint>
            <Time>2021-08-13T09:43:53.000Z</Time>
            <Position>
              <LatitudeDegrees>43.1817843206226825714111328125</LatitudeDegrees>
              <LongitudeDegrees>-1.9943256676197052001953125</LongitudeDegrees>
            </Position>
            <AltitudeMeters>172.8000030517578125</AltitudeMeters>
            <DistanceMeters>NAN</DistanceMeters>
          </Trackpoint>
          <Trackpoint>
            <Time>2021-08-13T09:43:54.000Z</Time>
            <Position>
              <LatitudeDegrees>43.18176361732184886932373046875</LatitudeDegrees>
              <LongitudeDegrees>-1.99429993517696857452392578125</LongitudeDegrees>
            </Position>
            <AltitudeMeters>172.8000030517578125</AltitudeMeters>
            <DistanceMeters>NAN</DistanceMeters>
          </Trackpoint>
          <Trackpoint>
            <Time>2021-08-13T09:43:55.000Z</Time>
            <Position>
              <LatitudeDegrees>43.1817430816590785980224609375</LatitudeDegrees>
              <LongitudeDegrees>-1.994273029267787933349609375</LongitudeDegrees>
            </Position>
            <AltitudeMeters>172.8000030517578125</AltitudeMeters>
            <DistanceMeters>NAN</DistanceMeters>
          </Trackpoint>
          <Trackpoint>
            <Time>2021-08-13T09:43:56.000Z</Time>
            <Position>
              <LatitudeDegrees>43.18172640167176723480224609375</LatitudeDegrees>
              <LongitudeDegrees>-1.994246207177639007568359375</LongitudeDegrees>
            </Position>
            <AltitudeMeters>173</AltitudeMeters>
            <DistanceMeters>NAN</DistanceMeters>
          </Trackpoint>
          <Trackpoint>
            <Time>2021-08-13T09:43:57.000Z</Time>
            <Position>
              <LatitudeDegrees>43.18170695565640926361083984375</LatitudeDegrees>
              <LongitudeDegrees>-1.9942252524197101593017578125</LongitudeDegrees>
            </Position>
            <AltitudeMeters>173.1999969482421875</AltitudeMeters>
            <DistanceMeters>NAN</DistanceMeters>
          </Trackpoint>
          <Trackpoint>
            <Time>2021-08-13T09:43:58.000Z</Time>
            <Position>
              <LatitudeDegrees>43.18168281577527523040771484375</LatitudeDegrees>
              <LongitudeDegrees>-1.994209326803684234619140625</LongitudeDegrees>
            </Position>
            <AltitudeMeters>173.399993896484375</AltitudeMeters>
            <DistanceMeters>NAN</DistanceMeters>
          </Trackpoint>
          <Trackpoint>
            <Time>2021-08-13T09:43:59.000Z</Time>
            <Position>
              <LatitudeDegrees>43.18166085518896579742431640625</LatitudeDegrees>
              <LongitudeDegrees>-1.99419398792088031768798828125</LongitudeDegrees>
            </Position>
            <AltitudeMeters>173.399993896484375</AltitudeMeters>
            <DistanceMeters>NAN</DistanceMeters>
          </Trackpoint>
          <Trackpoint>
            <Time>2021-08-13T09:44:00.000Z</Time>
            <Position>
              <LatitudeDegrees>43.18164132535457611083984375</LatitudeDegrees>
              <LongitudeDegrees>-1.99417219497263431549072265625</LongitudeDegrees>
            </Position>
            <AltitudeMeters>173.600006103515625</AltitudeMeters>
            <DistanceMeters>NAN</DistanceMeters>
          </Trackpoint>
          <Trackpoint>
            <Time>2021-08-13T09:44:01.000Z</Time>
            <Position>
              <LatitudeDegrees>43.18162715993821620941162109375</LatitudeDegrees>
              <LongitudeDegrees>-1.9941451214253902435302734375</LongitudeDegrees>
            </Position>
            <AltitudeMeters>173.600006103515625</AltitudeMeters>
            <DistanceMeters>NAN</DistanceMeters>
          </Trackpoint>
          <Trackpoint>
            <Time>2021-08-13T09:44:02.000Z</Time>
            <Position>
              <LatitudeDegrees>43.18160712718963623046875</LatitudeDegrees>
              <LongitudeDegrees>-1.99412240646779537200927734375</LongitudeDegrees>
            </Position>
            <AltitudeMeters>173.8000030517578125</AltitudeMeters>
            <DistanceMeters>NAN</DistanceMeters>
          </Trackpoint>
          <Trackpoint>
            <Time>2021-08-13T09:44:03.000Z</Time>
            <Position>
              <LatitudeDegrees>43.1815858371555805206298828125</LatitudeDegrees>
              <LongitudeDegrees>-1.99410631321370601654052734375</LongitudeDegrees>
            </Position>
            <AltitudeMeters>174</AltitudeMeters>
            <DistanceMeters>NAN</DistanceMeters>
          </Trackpoint>
          <Trackpoint>
            <Time>2021-08-13T09:44:04.000Z</Time>
            <Position>
              <LatitudeDegrees>43.18156831897795200347900390625</LatitudeDegrees>
              <LongitudeDegrees>-1.9940857775509357452392578125</LongitudeDegrees>
            </Position>
            <AltitudeMeters>174</AltitudeMeters>
            <DistanceMeters>NAN</DistanceMeters>
          </Trackpoint>
          <Trackpoint>
            <Time>2021-08-13T09:44:05.000Z</Time>
            <Position>
              <LatitudeDegrees>43.1815548241138458251953125</LatitudeDegrees>
              <LongitudeDegrees>-1.99406775645911693572998046875</LongitudeDegrees>
            </Position>
            <AltitudeMeters>174.1999969482421875</AltitudeMeters>
            <DistanceMeters>NAN</DistanceMeters>
          </Trackpoint>
          <Trackpoint>
            <Time>2021-08-13T09:44:06.000Z</Time>
            <Position>
              <LatitudeDegrees>43.1815375573933124542236328125</LatitudeDegrees>
              <LongitudeDegrees>-1.994053088128566741943359375</LongitudeDegrees>
            </Position>
            <AltitudeMeters>174.1999969482421875</AltitudeMeters>
            <DistanceMeters>NAN</DistanceMeters>
          </Trackpoint>
          <Trackpoint>
            <Time>2021-08-13T09:44:07.000Z</Time>
            <Position>
              <LatitudeDegrees>43.1815264932811260223388671875</LatitudeDegrees>
              <LongitudeDegrees>-1.9940374977886676788330078125</LongitudeDegrees>
            </Position>
            <AltitudeMeters>174.1999969482421875</AltitudeMeters>
            <DistanceMeters>NAN</DistanceMeters>
          </Trackpoint>
          <Trackpoint>
            <Time>2021-08-13T09:44:08.000Z</Time>
            <Position>
              <LatitudeDegrees>43.1815100647509098052978515625</LatitudeDegrees>
              <LongitudeDegrees>-1.99401612393558025360107421875</LongitudeDegrees>
            </Position>
            <AltitudeMeters>174.399993896484375</AltitudeMeters>
            <DistanceMeters>NAN</DistanceMeters>
          </Trackpoint>
          <Trackpoint>
            <Time>2021-08-13T09:44:09.000Z</Time>
            <Position>
              <LatitudeDegrees>43.1814922951161861419677734375</LatitudeDegrees>
              <LongitudeDegrees>-1.9939952529966831207275390625</LongitudeDegrees>
            </Position>
            <AltitudeMeters>174.399993896484375</AltitudeMeters>
            <DistanceMeters>NAN</DistanceMeters>
          </Trackpoint>
          <Trackpoint>
            <Time>2021-08-13T09:44:10.000Z</Time>
            <Position>
              <LatitudeDegrees>43.18147243000566959381103515625</LatitudeDegrees>
              <LongitudeDegrees>-1.99396767653524875640869140625</LongitudeDegrees>
            </Position>
            <AltitudeMeters>174.399993896484375</AltitudeMeters>
            <DistanceMeters>NAN</DistanceMeters>
          </Trackpoint>
          <Trackpoint>
            <Time>2021-08-13T09:44:11.000Z</Time>
            <Position>
              <LatitudeDegrees>43.1814507208764553070068359375</LatitudeDegrees>
              <LongitudeDegrees>-1.99394655413925647735595703125</LongitudeDegrees>
            </Position>
            <AltitudeMeters>174.399993896484375</AltitudeMeters>
            <DistanceMeters>NAN</DistanceMeters>
          </Trackpoint>
          <Trackpoint>
            <Time>2021-08-13T09:44:12.000Z</Time>
            <Position>
              <LatitudeDegrees>43.18143135868012905120849609375</LatitudeDegrees>
              <LongitudeDegrees>-1.9939275272190570831298828125</LongitudeDegrees>
            </Position>
            <AltitudeMeters>174.399993896484375</AltitudeMeters>
            <DistanceMeters>NAN</DistanceMeters>
          </Trackpoint>
          <Trackpoint>
            <Time>2021-08-13T09:44:13.000Z</Time>
            <Position>
              <LatitudeDegrees>43.181410990655422210693359375</LatitudeDegrees>
              <LongitudeDegrees>-1.99391235597431659698486328125</LongitudeDegrees>
            </Position>
            <AltitudeMeters>174.600006103515625</AltitudeMeters>
            <DistanceMeters>NAN</DistanceMeters>
          </Trackpoint>
          <Trackpoint>
            <Time>2021-08-13T09:44:14.000Z</Time>
            <Position>
              <LatitudeDegrees>43.18138844333589076995849609375</LatitudeDegrees>
              <LongitudeDegrees>-1.99389492161571979522705078125</LongitudeDegrees>
            </Position>
            <AltitudeMeters>174.600006103515625</AltitudeMeters>
            <DistanceMeters>NAN</DistanceMeters>
          </Trackpoint>
          <Trackpoint>
            <Time>2021-08-13T09:44:18.000Z</Time>
            <Position>
              <LatitudeDegrees>43.181307055056095123291015625</LatitudeDegrees>
              <LongitudeDegrees>-1.9938202388584613800048828125</LongitudeDegrees>
            </Position>
            <AltitudeMeters>174.8000030517578125</AltitudeMeters>
            <DistanceMeters>NAN</DistanceMeters>
          </Trackpoint>
          <Trackpoint>
            <Time>2021-08-13T09:44:22.000Z</Time>
            <Position>
              <LatitudeDegrees>43.1812334619462490081787109375</LatitudeDegrees>
              <LongitudeDegrees>-1.993751339614391326904296875</LongitudeDegrees>
            </Position>
            <AltitudeMeters>175</AltitudeMeters>
            <DistanceMeters>NAN</DistanceMeters>
          </Trackpoint>
          <Trackpoint>
            <Time>2021-08-13T09:44:23.000Z</Time>
            <Position>
              <LatitudeDegrees>43.1812106631696224212646484375</LatitudeDegrees>
              <LongitudeDegrees>-1.9937347434461116790771484375</LongitudeDegrees>
            </Position>
            <AltitudeMeters>175</AltitudeMeters>
            <DistanceMeters>NAN</DistanceMeters>
          </Trackpoint>
          <Trackpoint>
            <Time>2021-08-13T09:44:24.000Z</Time>
            <Position>
              <LatitudeDegrees>43.181192390620708465576171875</LatitudeDegrees>
              <LongitudeDegrees>-1.99372552335262298583984375</LongitudeDegrees>
            </Position>
            <AltitudeMeters>175.1999969482421875</AltitudeMeters>
            <DistanceMeters>NAN</DistanceMeters>
          </Trackpoint>
          <Trackpoint>
            <Time>2021-08-13T09:44:30.000Z</Time>
            <Position>
              <LatitudeDegrees>43.181090466678142547607421875</LatitudeDegrees>
              <LongitudeDegrees>-1.993618570268154144287109375</LongitudeDegrees>
            </Position>
            <AltitudeMeters>175.600006103515625</AltitudeMeters>
            <DistanceMeters>NAN</DistanceMeters>
          </Trackpoint>
          <Trackpoint>
            <Time>2021-08-13T09:44:37.000Z</Time>
            <Position>
              <LatitudeDegrees>43.18093531765043735504150390625</LatitudeDegrees>
              <LongitudeDegrees>-1.993454955518245697021484375</LongitudeDegrees>
            </Position>
            <AltitudeMeters>176</AltitudeMeters>
            <DistanceMeters>NAN</DistanceMeters>
          </Trackpoint>
          <Trackpoint>
            <Time>2021-08-13T09:44:39.000Z</Time>
            <Position>
              <LatitudeDegrees>43.18088653497397899627685546875</LatitudeDegrees>
              <LongitudeDegrees>-1.99340768158435821533203125</LongitudeDegrees>
            </Position>
            <AltitudeMeters>176.1999969482421875</AltitudeMeters>
            <DistanceMeters>NAN</DistanceMeters>
          </Trackpoint>
          <Trackpoint>
            <Time>2021-08-13T09:44:44.000Z</Time>
            <Position>
              <LatitudeDegrees>43.1807903945446014404296875</LatitudeDegrees>
              <LongitudeDegrees>-1.99330315925180912017822265625</LongitudeDegrees>
            </Position>
            <AltitudeMeters>176.399993896484375</AltitudeMeters>
            <DistanceMeters>NAN</DistanceMeters>
          </Trackpoint>
          <Trackpoint>
            <Time>2021-08-13T09:44:50.000Z</Time>
            <Position>
              <LatitudeDegrees>43.180641867220401763916015625</LatitudeDegrees>
              <LongitudeDegrees>-1.99313736520707607269287109375</LongitudeDegrees>
            </Position>
            <AltitudeMeters>176.8000030517578125</AltitudeMeters>
            <DistanceMeters>NAN</DistanceMeters>
          </Trackpoint>
          <Trackpoint>
            <Time>2021-08-13T09:44:54.000Z</Time>
            <Position>
              <LatitudeDegrees>43.1805327348411083221435546875</LatitudeDegrees>
              <LongitudeDegrees>-1.9930185936391353607177734375</LongitudeDegrees>
            </Position>
            <AltitudeMeters>177</AltitudeMeters>
            <DistanceMeters>NAN</DistanceMeters>
          </Trackpoint>
          <Trackpoint>
            <Time>2021-08-13T09:44:57.000Z</Time>
            <Position>
              <LatitudeDegrees>43.18044933490455150604248046875</LatitudeDegrees>
              <LongitudeDegrees>-1.992925219237804412841796875</LongitudeDegrees>
            </Position>
            <AltitudeMeters>177.399993896484375</AltitudeMeters>
            <DistanceMeters>NAN</DistanceMeters>
          </Trackpoint>
          <Trackpoint>
            <Time>2021-08-13T09:45:01.000Z</Time>
            <Position>
              <LatitudeDegrees>43.18034757860004901885986328125</LatitudeDegrees>
              <LongitudeDegrees>-1.99282790534198284149169921875</LongitudeDegrees>
            </Position>
            <AltitudeMeters>177.8000030517578125</AltitudeMeters>
            <DistanceMeters>NAN</DistanceMeters>
          </Trackpoint>
          <Trackpoint>
            <Time>2021-08-13T09:45:02.000Z</Time>
            <Position>
              <LatitudeDegrees>43.18031908012926578521728515625</LatitudeDegrees>
              <LongitudeDegrees>-1.99279957450926303863525390625</LongitudeDegrees>
            </Position>
            <AltitudeMeters>177.8000030517578125</AltitudeMeters>
            <DistanceMeters>NAN</DistanceMeters>
          </Trackpoint>
          <Trackpoint>
            <Time>2021-08-13T09:45:03.000Z</Time>
            <Position>
              <LatitudeDegrees>43.18028940819203853607177734375</LatitudeDegrees>
              <LongitudeDegrees>-1.99277400970458984375</LongitudeDegrees>
            </Position>
            <AltitudeMeters>178</AltitudeMeters>
            <DistanceMeters>NAN</DistanceMeters>
          </Trackpoint>
          <Trackpoint>
            <Time>2021-08-13T09:45:04.000Z</Time>
            <Position>
              <LatitudeDegrees>43.18025185726583003997802734375</LatitudeDegrees>
              <LongitudeDegrees>-1.99274945072829723358154296875</LongitudeDegrees>
            </Position>
            <AltitudeMeters>178</AltitudeMeters>
            <DistanceMeters>NAN</DistanceMeters>
          </Trackpoint>
          <Trackpoint>
            <Time>2021-08-13T09:45:08.000Z</Time>
            <Position>
              <LatitudeDegrees>43.18010441958904266357421875</LatitudeDegrees>
              <LongitudeDegrees>-1.992618106305599212646484375</LongitudeDegrees>
            </Position>
            <AltitudeMeters>178.399993896484375</AltitudeMeters>
            <DistanceMeters>NAN</DistanceMeters>
          </Trackpoint>
          <Trackpoint>
            <Time>2021-08-13T09:45:09.000Z</Time>
            <Position>
              <LatitudeDegrees>43.180069215595722198486328125</LatitudeDegrees>
              <LongitudeDegrees>-1.99258583597838878631591796875</LongitudeDegrees>
            </Position>
            <AltitudeMeters>178.600006103515625</AltitudeMeters>
            <DistanceMeters>NAN</DistanceMeters>
          </Trackpoint>
          <Trackpoint>
            <Time>2021-08-13T09:45:10.000Z</Time>
            <Position>
              <LatitudeDegrees>43.1800325028598308563232421875</LatitudeDegrees>
              <LongitudeDegrees>-1.99255046434700489044189453125</LongitudeDegrees>
            </Position>
            <AltitudeMeters>178.600006103515625</AltitudeMeters>
            <DistanceMeters>NAN</DistanceMeters>
          </Trackpoint>
          <Trackpoint>
            <Time>2021-08-13T09:45:14.000Z</Time>
            <Position>
              <LatitudeDegrees>43.17991088144481182098388671875</LatitudeDegrees>
              <LongitudeDegrees>-1.992374360561370849609375</LongitudeDegrees>
            </Position>
            <AltitudeMeters>178.8000030517578125</AltitudeMeters>
            <DistanceMeters>NAN</DistanceMeters>
          </Trackpoint>
          <Trackpoint>
            <Time>2021-08-13T09:45:16.000Z</Time>
            <Position>
              <LatitudeDegrees>43.179851956665515899658203125</LatitudeDegrees>
              <LongitudeDegrees>-1.99230303056538105010986328125</LongitudeDegrees>
            </Position>
            <AltitudeMeters>179.1999969482421875</AltitudeMeters>
            <DistanceMeters>NAN</DistanceMeters>
          </Trackpoint>
          <Trackpoint>
            <Time>2021-08-13T09:45:20.000Z</Time>
            <Position>
              <LatitudeDegrees>43.1797282397747039794921875</LatitudeDegrees>
              <LongitudeDegrees>-1.9921435229480266571044921875</LongitudeDegrees>
            </Position>
            <AltitudeMeters>179.399993896484375</AltitudeMeters>
            <DistanceMeters>NAN</DistanceMeters>
          </Trackpoint>
          <Trackpoint>
            <Time>2021-08-13T09:45:26.000Z</Time>
            <Position>
              <LatitudeDegrees>43.17954425700008869171142578125</LatitudeDegrees>
              <LongitudeDegrees>-1.99196674861013889312744140625</LongitudeDegrees>
            </Position>
            <AltitudeMeters>180</AltitudeMeters>
            <DistanceMeters>NAN</DistanceMeters>
          </Trackpoint>
          <Trackpoint>
            <Time>2021-08-13T09:45:27.000Z</Time>
            <Position>
              <LatitudeDegrees>43.17951475270092487335205078125</LatitudeDegrees>
              <LongitudeDegrees>-1.991948895156383514404296875</LongitudeDegrees>
            </Position>
            <AltitudeMeters>180</AltitudeMeters>
            <DistanceMeters>NAN</DistanceMeters>
          </Trackpoint>
          <Trackpoint>
            <Time>2021-08-13T09:45:28.000Z</Time>
            <Position>
              <LatitudeDegrees>43.1794833205640316009521484375</LatitudeDegrees>
              <LongitudeDegrees>-1.99192433618009090423583984375</LongitudeDegrees>
            </Position>
            <AltitudeMeters>180.1999969482421875</AltitudeMeters>
            <DistanceMeters>NAN</DistanceMeters>
          </Trackpoint>
          <Trackpoint>
            <Time>2021-08-13T09:45:31.000Z</Time>
            <Position>
              <LatitudeDegrees>43.179378546774387359619140625</LatitudeDegrees>
              <LongitudeDegrees>-1.991859711706638336181640625</LongitudeDegrees>
            </Position>
            <AltitudeMeters>180.399993896484375</AltitudeMeters>
            <DistanceMeters>NAN</DistanceMeters>
          </Trackpoint>
          <Trackpoint>
            <Time>2021-08-13T09:45:32.000Z</Time>
            <Position>
              <LatitudeDegrees>43.1793420016765594482421875</LatitudeDegrees>
              <LongitudeDegrees>-1.9918424449861049652099609375</LongitudeDegrees>
            </Position>
            <AltitudeMeters>180.600006103515625</AltitudeMeters>
            <DistanceMeters>NAN</DistanceMeters>
          </Trackpoint>
          <Trackpoint>
            <Time>2021-08-13T09:45:33.000Z</Time>
            <Position>
              <LatitudeDegrees>43.179310150444507598876953125</LatitudeDegrees>
              <LongitudeDegrees>-1.99182056821882724761962890625</LongitudeDegrees>
            </Position>
            <AltitudeMeters>180.8000030517578125</AltitudeMeters>
            <DistanceMeters>NAN</DistanceMeters>
          </Trackpoint>
          <Trackpoint>
            <Time>2021-08-13T09:45:35.000Z</Time>
            <Position>
              <LatitudeDegrees>43.1792345456779003143310546875</LatitudeDegrees>
              <LongitudeDegrees>-1.991773210465908050537109375</LongitudeDegrees>
            </Position>
            <AltitudeMeters>181</AltitudeMeters>
            <DistanceMeters>NAN</DistanceMeters>
          </Trackpoint>
          <Trackpoint>
            <Time>2021-08-13T09:45:36.000Z</Time>
            <Position>
              <LatitudeDegrees>43.17919422872364521026611328125</LatitudeDegrees>
              <LongitudeDegrees>-1.99175401590764522552490234375</LongitudeDegrees>
            </Position>
            <AltitudeMeters>181.1999969482421875</AltitudeMeters>
            <DistanceMeters>NAN</DistanceMeters>
          </Trackpoint>
          <Trackpoint>
            <Time>2021-08-13T09:45:39.000Z</Time>
            <Position>
              <LatitudeDegrees>43.1790759600698947906494140625</LatitudeDegrees>
              <LongitudeDegrees>-1.99167991988360881805419921875</LongitudeDegrees>
            </Position>
            <AltitudeMeters>181.600006103515625</AltitudeMeters>
            <DistanceMeters>NAN</DistanceMeters>
          </Trackpoint>
          <Trackpoint>
            <Time>2021-08-13T09:45:40.000Z</Time>
            <Position>
              <LatitudeDegrees>43.179044611752033233642578125</LatitudeDegrees>
              <LongitudeDegrees>-1.99165427125990390777587890625</LongitudeDegrees>
            </Position>
            <AltitudeMeters>181.600006103515625</AltitudeMeters>
            <DistanceMeters>NAN</DistanceMeters>
          </Trackpoint>
          <Trackpoint>
            <Time>2021-08-13T09:45:41.000Z</Time>
            <Position>
              <LatitudeDegrees>43.17900764755904674530029296875</LatitudeDegrees>
              <LongitudeDegrees>-1.99162828736007213592529296875</LongitudeDegrees>
            </Position>
            <AltitudeMeters>181.8000030517578125</AltitudeMeters>
            <DistanceMeters>NAN</DistanceMeters>
          </Trackpoint>
          <Trackpoint>
            <Time>2021-08-13T09:45:42.000Z</Time>
            <Position>
              <LatitudeDegrees>43.178976885974407196044921875</LatitudeDegrees>
              <LongitudeDegrees>-1.9916047342121601104736328125</LongitudeDegrees>
            </Position>
            <AltitudeMeters>181.8000030517578125</AltitudeMeters>
            <DistanceMeters>NAN</DistanceMeters>
          </Trackpoint>
          <Trackpoint>
            <Time>2021-08-13T09:45:43.000Z</Time>
            <Position>
              <LatitudeDegrees>43.17894034087657928466796875</LatitudeDegrees>
              <LongitudeDegrees>-1.99157841503620147705078125</LongitudeDegrees>
            </Position>
            <AltitudeMeters>181.8000030517578125</AltitudeMeters>
            <DistanceMeters>NAN</DistanceMeters>
          </Trackpoint>
          <Trackpoint>
            <Time>2021-08-13T09:45:44.000Z</Time>
            <Position>
              <LatitudeDegrees>43.17890681326389312744140625</LatitudeDegrees>
              <LongitudeDegrees>-1.9915480725467205047607421875</LongitudeDegrees>
            </Position>
            <AltitudeMeters>182</AltitudeMeters>
            <DistanceMeters>NAN</DistanceMeters>
          </Trackpoint>
          <Trackpoint>
            <Time>2021-08-13T09:45:45.000Z</Time>
            <Position>
              <LatitudeDegrees>43.17886968143284320831298828125</LatitudeDegrees>
              <LongitudeDegrees>-1.99152586050331592559814453125</LongitudeDegrees>
            </Position>
            <AltitudeMeters>182</AltitudeMeters>
            <DistanceMeters>NAN</DistanceMeters>
          </Trackpoint>
          <Trackpoint>
            <Time>2021-08-13T09:45:46.000Z</Time>
            <Position>
              <LatitudeDegrees>43.1788328848779201507568359375</LatitudeDegrees>
              <LongitudeDegrees>-1.9915081746876239776611328125</LongitudeDegrees>
            </Position>
            <AltitudeMeters>182</AltitudeMeters>
            <DistanceMeters>NAN</DistanceMeters>
          </Trackpoint>
          <Trackpoint>
            <Time>2021-08-13T09:45:47.000Z</Time>
            <Position>
              <LatitudeDegrees>43.1787939928472042083740234375</LatitudeDegrees>
              <LongitudeDegrees>-1.991490907967090606689453125</LongitudeDegrees>
            </Position>
            <AltitudeMeters>182.1999969482421875</AltitudeMeters>
            <DistanceMeters>NAN</DistanceMeters>
          </Trackpoint>
          <Trackpoint>
            <Time>2021-08-13T09:45:48.000Z</Time>
            <Position>
              <LatitudeDegrees>43.17875367589294910430908203125</LatitudeDegrees>
              <LongitudeDegrees>-1.9914756529033184051513671875</LongitudeDegrees>
            </Position>
            <AltitudeMeters>182.1999969482421875</AltitudeMeters>
            <DistanceMeters>NAN</DistanceMeters>
          </Trackpoint>
          <Trackpoint>
            <Time>2021-08-13T09:45:49.000Z</Time>
            <Position>
              <LatitudeDegrees>43.178714029490947723388671875</LatitudeDegrees>
              <LongitudeDegrees>-1.99145511724054813385009765625</LongitudeDegrees>
            </Position>
            <AltitudeMeters>182.1999969482421875</AltitudeMeters>
            <DistanceMeters>NAN</DistanceMeters>
          </Trackpoint>
          <Trackpoint>
            <Time>2021-08-13T09:45:50.000Z</Time>
            <Position>
              <LatitudeDegrees>43.17868276499211788177490234375</LatitudeDegrees>
              <LongitudeDegrees>-1.99142896570265293121337890625</LongitudeDegrees>
            </Position>
            <AltitudeMeters>182.1999969482421875</AltitudeMeters>
            <DistanceMeters>NAN</DistanceMeters>
          </Trackpoint>
          <Trackpoint>
            <Time>2021-08-13T09:45:51.000Z</Time>
            <Position>
              <LatitudeDegrees>43.1786588765680789947509765625</LatitudeDegrees>
              <LongitudeDegrees>-1.991403400897979736328125</LongitudeDegrees>
            </Position>
            <AltitudeMeters>182.600006103515625</AltitudeMeters>
            <DistanceMeters>NAN</DistanceMeters>
          </Trackpoint>
          <Trackpoint>
            <Time>2021-08-13T09:45:52.000Z</Time>
            <Position>
              <LatitudeDegrees>43.178632892668247222900390625</LatitudeDegrees>
              <LongitudeDegrees>-1.99137649498879909515380859375</LongitudeDegrees>
            </Position>
            <AltitudeMeters>182.600006103515625</AltitudeMeters>
            <DistanceMeters>NAN</DistanceMeters>
          </Trackpoint>
          <Trackpoint>
            <Time>2021-08-13T09:45:56.000Z</Time>
            <Position>
              <LatitudeDegrees>43.17850221879780292510986328125</LatitudeDegrees>
              <LongitudeDegrees>-1.99126367457211017608642578125</LongitudeDegrees>
            </Position>
            <AltitudeMeters>183</AltitudeMeters>
            <DistanceMeters>NAN</DistanceMeters>
          </Trackpoint>
          <Trackpoint>
            <Time>2021-08-13T09:45:57.000Z</Time>
            <Position>
              <LatitudeDegrees>43.17846902646124362945556640625</LatitudeDegrees>
              <LongitudeDegrees>-1.9912402890622615814208984375</LongitudeDegrees>
            </Position>
            <AltitudeMeters>183</AltitudeMeters>
            <DistanceMeters>NAN</DistanceMeters>
          </Trackpoint>
          <Trackpoint>
            <Time>2021-08-13T09:45:58.000Z</Time>
            <Position>
              <LatitudeDegrees>43.1784399412572383880615234375</LatitudeDegrees>
              <LongitudeDegrees>-1.991216652095317840576171875</LongitudeDegrees>
            </Position>
            <AltitudeMeters>183</AltitudeMeters>
            <DistanceMeters>NAN</DistanceMeters>
          </Trackpoint>
          <Trackpoint>
            <Time>2021-08-13T09:45:59.000Z</Time>
            <Position>
              <LatitudeDegrees>43.17840993404388427734375</LatitudeDegrees>
              <LongitudeDegrees>-1.99119527824223041534423828125</LongitudeDegrees>
            </Position>
            <AltitudeMeters>183</AltitudeMeters>
            <DistanceMeters>NAN</DistanceMeters>
          </Trackpoint>
          <Trackpoint>
            <Time>2021-08-13T09:46:00.000Z</Time>
            <Position>
              <LatitudeDegrees>43.1783812679350376129150390625</LatitudeDegrees>
              <LongitudeDegrees>-1.99117474257946014404296875</LongitudeDegrees>
            </Position>
            <AltitudeMeters>183.1999969482421875</AltitudeMeters>
            <DistanceMeters>NAN</DistanceMeters>
          </Trackpoint>
          <Trackpoint>
            <Time>2021-08-13T09:46:01.000Z</Time>
            <Position>
              <LatitudeDegrees>43.1783544458448886871337890625</LatitudeDegrees>
              <LongitudeDegrees>-1.99115722440183162689208984375</LongitudeDegrees>
            </Position>
            <AltitudeMeters>183.1999969482421875</AltitudeMeters>
            <DistanceMeters>NAN</DistanceMeters>
          </Trackpoint>
          <Trackpoint>
            <Time>2021-08-13T09:46:02.000Z</Time>
            <Position>
              <LatitudeDegrees>43.1783329881727695465087890625</LatitudeDegrees>
              <LongitudeDegrees>-1.99114029295742511749267578125</LongitudeDegrees>
            </Position>
            <AltitudeMeters>183.399993896484375</AltitudeMeters>
            <DistanceMeters>NAN</DistanceMeters>
          </Trackpoint>
          <Trackpoint>
            <Time>2021-08-13T09:46:03.000Z</Time>
            <Position>
              <LatitudeDegrees>43.1783175654709339141845703125</LatitudeDegrees>
              <LongitudeDegrees>-1.99112537316977977752685546875</LongitudeDegrees>
            </Position>
            <AltitudeMeters>183.600006103515625</AltitudeMeters>
            <DistanceMeters>NAN</DistanceMeters>
          </Trackpoint>
          <Trackpoint>
            <Time>2021-08-13T09:46:04.000Z</Time>
            <Position>
              <LatitudeDegrees>43.17830239422619342803955078125</LatitudeDegrees>
              <LongitudeDegrees>-1.99111263267695903778076171875</LongitudeDegrees>
            </Position>
            <AltitudeMeters>183.600006103515625</AltitudeMeters>
            <DistanceMeters>NAN</DistanceMeters>
          </Trackpoint>
          <Trackpoint>
            <Time>2021-08-13T09:46:05.000Z</Time>
            <Position>
              <LatitudeDegrees>43.17828579805791378021240234375</LatitudeDegrees>
              <LongitudeDegrees>-1.991108022630214691162109375</LongitudeDegrees>
            </Position>
            <AltitudeMeters>183.8000030517578125</AltitudeMeters>
            <DistanceMeters>NAN</DistanceMeters>
          </Trackpoint>
          <Trackpoint>
            <Time>2021-08-13T09:46:06.000Z</Time>
            <Position>
              <LatitudeDegrees>43.17826987244188785552978515625</LatitudeDegrees>
              <LongitudeDegrees>-1.99110223911702632904052734375</LongitudeDegrees>
            </Position>
            <AltitudeMeters>183.8000030517578125</AltitudeMeters>
            <DistanceMeters>NAN</DistanceMeters>
          </Trackpoint>
          <Trackpoint>
            <Time>2021-08-13T09:46:07.000Z</Time>
            <Position>
              <LatitudeDegrees>43.17825394682586193084716796875</LatitudeDegrees>
              <LongitudeDegrees>-1.99109570123255252838134765625</LongitudeDegrees>
            </Position>
            <AltitudeMeters>183.8000030517578125</AltitudeMeters>
            <DistanceMeters>NAN</DistanceMeters>
          </Trackpoint>
          <Trackpoint>
            <Time>2021-08-13T09:46:08.000Z</Time>
            <Position>
              <LatitudeDegrees>43.1782377697527408599853515625</LatitudeDegrees>
              <LongitudeDegrees>-1.99108547531068325042724609375</LongitudeDegrees>
            </Position>
            <AltitudeMeters>183.8000030517578125</AltitudeMeters>
            <DistanceMeters>NAN</DistanceMeters>
          </Trackpoint>
          <Trackpoint>
            <Time>2021-08-13T09:46:09.000Z</Time>
            <Position>
              <LatitudeDegrees>43.17822343669831752777099609375</LatitudeDegrees>
              <LongitudeDegrees>-1.99106904678046703338623046875</LongitudeDegrees>
            </Position>
            <AltitudeMeters>184</AltitudeMeters>
            <DistanceMeters>NAN</DistanceMeters>
          </Trackpoint>
          <Trackpoint>
            <Time>2021-08-13T09:46:10.000Z</Time>
            <Position>
              <LatitudeDegrees>43.17821136675775051116943359375</LatitudeDegrees>
              <LongitudeDegrees>-1.99105278588831424713134765625</LongitudeDegrees>
            </Position>
            <AltitudeMeters>184</AltitudeMeters>
            <DistanceMeters>NAN</DistanceMeters>
          </Trackpoint>
          <Trackpoint>
            <Time>2021-08-13T09:46:11.000Z</Time>
            <Position>
              <LatitudeDegrees>43.17819611169397830963134765625</LatitudeDegrees>
              <LongitudeDegrees>-1.9910367764532566070556640625</LongitudeDegrees>
            </Position>
            <AltitudeMeters>184</AltitudeMeters>
            <DistanceMeters>NAN</DistanceMeters>
          </Trackpoint>
          <Trackpoint>
            <Time>2021-08-13T09:46:12.000Z</Time>
            <Position>
              <LatitudeDegrees>43.1781770847737789154052734375</LatitudeDegrees>
              <LongitudeDegrees>-1.9910216890275478363037109375</LongitudeDegrees>
            </Position>
            <AltitudeMeters>184.1999969482421875</AltitudeMeters>
            <DistanceMeters>NAN</DistanceMeters>
          </Trackpoint>
          <Trackpoint>
            <Time>2021-08-13T09:46:16.000Z</Time>
            <Position>
              <LatitudeDegrees>43.17809016443789005279541015625</LatitudeDegrees>
              <LongitudeDegrees>-1.99098070152103900909423828125</LongitudeDegrees>
            </Position>
            <AltitudeMeters>184.399993896484375</AltitudeMeters>
            <DistanceMeters>NAN</DistanceMeters>
          </Trackpoint>
          <Trackpoint>
            <Time>2021-08-13T09:46:17.000Z</Time>
            <Position>
              <LatitudeDegrees>43.17808060906827449798583984375</LatitudeDegrees>
              <LongitudeDegrees>-1.99096997268497943878173828125</LongitudeDegrees>
            </Position>
            <AltitudeMeters>184.399993896484375</AltitudeMeters>
            <DistanceMeters>NAN</DistanceMeters>
          </Trackpoint>
          <Trackpoint>
            <Time>2021-08-13T09:46:18.000Z</Time>
            <Position>
              <LatitudeDegrees>43.178070299327373504638671875</LatitudeDegrees>
              <LongitudeDegrees>-1.9909579865634441375732421875</LongitudeDegrees>
            </Position>
            <AltitudeMeters>184.399993896484375</AltitudeMeters>
            <DistanceMeters>NAN</DistanceMeters>
          </Trackpoint>
          <Trackpoint>
            <Time>2021-08-13T09:46:19.000Z</Time>
            <Position>
              <LatitudeDegrees>43.178058229386806488037109375</LatitudeDegrees>
              <LongitudeDegrees>-1.99094583280384540557861328125</LongitudeDegrees>
            </Position>
            <AltitudeMeters>184.600006103515625</AltitudeMeters>
            <DistanceMeters>NAN</DistanceMeters>
          </Trackpoint>
          <Trackpoint>
            <Time>2021-08-13T09:46:20.000Z</Time>
            <Position>
              <LatitudeDegrees>43.17804506979882717132568359375</LatitudeDegrees>
              <LongitudeDegrees>-1.9909338466823101043701171875</LongitudeDegrees>
            </Position>
            <AltitudeMeters>184.600006103515625</AltitudeMeters>
            <DistanceMeters>NAN</DistanceMeters>
          </Trackpoint>
          <Trackpoint>
            <Time>2021-08-13T09:46:21.000Z</Time>
            <Position>
              <LatitudeDegrees>43.17803450860083103179931640625</LatitudeDegrees>
              <LongitudeDegrees>-1.99092202819883823394775390625</LongitudeDegrees>
            </Position>
            <AltitudeMeters>184.8000030517578125</AltitudeMeters>
            <DistanceMeters>NAN</DistanceMeters>
          </Trackpoint>
          <Trackpoint>
            <Time>2021-08-13T09:46:22.000Z</Time>
            <Position>
              <LatitudeDegrees>43.17802662961184978485107421875</LatitudeDegrees>
              <LongitudeDegrees>-1.990908198058605194091796875</LongitudeDegrees>
            </Position>
            <AltitudeMeters>184.8000030517578125</AltitudeMeters>
            <DistanceMeters>NAN</DistanceMeters>
          </Trackpoint>
          <Trackpoint>
            <Time>2021-08-13T09:46:23.000Z</Time>
            <Position>
              <LatitudeDegrees>43.17801321856677532196044921875</LatitudeDegrees>
              <LongitudeDegrees>-1.99089579284191131591796875</LongitudeDegrees>
            </Position>
            <AltitudeMeters>184.8000030517578125</AltitudeMeters>
            <DistanceMeters>NAN</DistanceMeters>
          </Trackpoint>
          <Trackpoint>
            <Time>2021-08-13T09:46:24.000Z</Time>
            <Position>
              <LatitudeDegrees>43.1779893301427364349365234375</LatitudeDegrees>
              <LongitudeDegrees>-1.99088774621486663818359375</LongitudeDegrees>
            </Position>
            <AltitudeMeters>185</AltitudeMeters>
            <DistanceMeters>NAN</DistanceMeters>
          </Trackpoint>
          <Trackpoint>
            <Time>2021-08-13T09:46:25.000Z</Time>
            <Position>
              <LatitudeDegrees>43.17796544171869754791259765625</LatitudeDegrees>
              <LongitudeDegrees>-1.9908802025020122528076171875</LongitudeDegrees>
            </Position>
            <AltitudeMeters>185</AltitudeMeters>
            <DistanceMeters>NAN</DistanceMeters>
          </Trackpoint>
          <Trackpoint>
            <Time>2021-08-13T09:46:26.000Z</Time>
            <Position>
              <LatitudeDegrees>43.177953623235225677490234375</LatitudeDegrees>
              <LongitudeDegrees>-1.9908711500465869903564453125</LongitudeDegrees>
            </Position>
            <AltitudeMeters>185</AltitudeMeters>
            <DistanceMeters>NAN</DistanceMeters>
          </Trackpoint>
          <Trackpoint>
            <Time>2021-08-13T09:46:27.000Z</Time>
            <Position>
              <LatitudeDegrees>43.17794633097946643829345703125</LatitudeDegrees>
              <LongitudeDegrees>-1.990863941609859466552734375</LongitudeDegrees>
            </Position>
            <AltitudeMeters>185.1999969482421875</AltitudeMeters>
            <DistanceMeters>NAN</DistanceMeters>
          </Trackpoint>
          <Trackpoint>
            <Time>2021-08-13T09:46:28.000Z</Time>
            <Position>
              <LatitudeDegrees>43.17794482223689556121826171875</LatitudeDegrees>
              <LongitudeDegrees>-1.99085782282054424285888671875</LongitudeDegrees>
            </Position>
            <AltitudeMeters>185.1999969482421875</AltitudeMeters>
            <DistanceMeters>NAN</DistanceMeters>
          </Trackpoint>
          <Trackpoint>
            <Time>2021-08-13T09:46:29.000Z</Time>
            <Position>
              <LatitudeDegrees>43.17794465459883213043212890625</LatitudeDegrees>
              <LongitudeDegrees>-1.99085019528865814208984375</LongitudeDegrees>
            </Position>
            <AltitudeMeters>185.399993896484375</AltitudeMeters>
            <DistanceMeters>NAN</DistanceMeters>
          </Trackpoint>
          <Trackpoint>
            <Time>2021-08-13T09:46:30.000Z</Time>
            <Position>
              <LatitudeDegrees>43.177944906055927276611328125</LatitudeDegrees>
              <LongitudeDegrees>-1.99084776453673839569091796875</LongitudeDegrees>
            </Position>
            <AltitudeMeters>185.399993896484375</AltitudeMeters>
            <DistanceMeters>NAN</DistanceMeters>
          </Trackpoint>
          <Trackpoint>
            <Time>2021-08-13T09:46:38.000Z</Time>
            <Position>
              <LatitudeDegrees>43.17791800014674663543701171875</LatitudeDegrees>
              <LongitudeDegrees>-1.99083670042455196380615234375</LongitudeDegrees>
            </Position>
            <AltitudeMeters>185.8000030517578125</AltitudeMeters>
            <DistanceMeters>NAN</DistanceMeters>
          </Trackpoint>
          <Trackpoint>
            <Time>2021-08-13T09:49:02.000Z</Time>
            <Position>
              <LatitudeDegrees>43.177899308502674102783203125</LatitudeDegrees>
              <LongitudeDegrees>-1.9907953776419162750244140625</LongitudeDegrees>
            </Position>
            <AltitudeMeters>185.600006103515625</AltitudeMeters>
            <DistanceMeters>NAN</DistanceMeters>
          </Trackpoint>
          <Trackpoint>
            <Time>2021-08-13T09:49:19.000Z</Time>
            <Position>
              <LatitudeDegrees>43.17789151333272457122802734375</LatitudeDegrees>
              <LongitudeDegrees>-1.99079093523323535919189453125</LongitudeDegrees>
            </Position>
            <AltitudeMeters>185.399993896484375</AltitudeMeters>
            <DistanceMeters>NAN</DistanceMeters>
          </Trackpoint>
          <Trackpoint>
            <Time>2021-08-13T09:49:22.000Z</Time>
            <Position>
              <LatitudeDegrees>43.17787122912704944610595703125</LatitudeDegrees>
              <LongitudeDegrees>-1.990757994353771209716796875</LongitudeDegrees>
            </Position>
            <AltitudeMeters>185.399993896484375</AltitudeMeters>
            <DistanceMeters>NAN</DistanceMeters>
          </Trackpoint>
          <Trackpoint>
            <Time>2021-08-13T09:49:28.000Z</Time>
            <Position>
              <LatitudeDegrees>43.1778039224445819854736328125</LatitudeDegrees>
              <LongitudeDegrees>-1.99065573513507843017578125</LongitudeDegrees>
            </Position>
            <AltitudeMeters>185.600006103515625</AltitudeMeters>
            <DistanceMeters>NAN</DistanceMeters>
          </Trackpoint>
          <Trackpoint>
            <Time>2021-08-13T09:49:29.000Z</Time>
            <Position>
              <LatitudeDegrees>43.17780752666294574737548828125</LatitudeDegrees>
              <LongitudeDegrees>-1.99064693413674831390380859375</LongitudeDegrees>
            </Position>
            <AltitudeMeters>185.8000030517578125</AltitudeMeters>
            <DistanceMeters>NAN</DistanceMeters>
          </Trackpoint>
          <Trackpoint>
            <Time>2021-08-13T09:49:30.000Z</Time>
            <Position>
              <LatitudeDegrees>43.17781138233840465545654296875</LatitudeDegrees>
              <LongitudeDegrees>-1.9906384684145450592041015625</LongitudeDegrees>
            </Position>
            <AltitudeMeters>185.8000030517578125</AltitudeMeters>
            <DistanceMeters>NAN</DistanceMeters>
          </Trackpoint>
          <Trackpoint>
            <Time>2021-08-13T09:49:42.000Z</Time>
            <Position>
              <LatitudeDegrees>43.17752690054476261138916015625</LatitudeDegrees>
              <LongitudeDegrees>-1.990062296390533447265625</LongitudeDegrees>
            </Position>
            <AltitudeMeters>187</AltitudeMeters>
            <DistanceMeters>NAN</DistanceMeters>
          </Trackpoint>
          <Trackpoint>
            <Time>2021-08-13T09:49:43.000Z</Time>
            <Position>
              <LatitudeDegrees>43.1775015033781528472900390625</LatitudeDegrees>
              <LongitudeDegrees>-1.99000152759253978729248046875</LongitudeDegrees>
            </Position>
            <AltitudeMeters>187</AltitudeMeters>
            <DistanceMeters>NAN</DistanceMeters>
          </Trackpoint>
          <Trackpoint>
            <Time>2021-08-13T09:49:44.000Z</Time>
            <Position>
              <LatitudeDegrees>43.17749270237982273101806640625</LatitudeDegrees>
              <LongitudeDegrees>-1.98995006270706653594970703125</LongitudeDegrees>
            </Position>
            <AltitudeMeters>187.1999969482421875</AltitudeMeters>
            <DistanceMeters>NAN</DistanceMeters>
          </Trackpoint>
          <Trackpoint>
            <Time>2021-08-13T09:49:45.000Z</Time>
            <Position>
              <LatitudeDegrees>43.1774885952472686767578125</LatitudeDegrees>
              <LongitudeDegrees>-1.98990446515381336212158203125</LongitudeDegrees>
            </Position>
            <AltitudeMeters>187.1999969482421875</AltitudeMeters>
            <DistanceMeters>NAN</DistanceMeters>
          </Trackpoint>
          <Trackpoint>
            <Time>2021-08-13T09:49:46.000Z</Time>
            <Position>
              <LatitudeDegrees>43.17747585475444793701171875</LatitudeDegrees>
              <LongitudeDegrees>-1.98984344489872455596923828125</LongitudeDegrees>
            </Position>
            <AltitudeMeters>187.399993896484375</AltitudeMeters>
            <DistanceMeters>NAN</DistanceMeters>
          </Trackpoint>
          <Trackpoint>
            <Time>2021-08-13T09:49:47.000Z</Time>
            <Position>
              <LatitudeDegrees>43.17747225053608417510986328125</LatitudeDegrees>
              <LongitudeDegrees>-1.98979063890874385833740234375</LongitudeDegrees>
            </Position>
            <AltitudeMeters>187.399993896484375</AltitudeMeters>
            <DistanceMeters>NAN</DistanceMeters>
          </Trackpoint>
          <Trackpoint>
            <Time>2021-08-13T09:49:48.000Z</Time>
            <Position>
              <LatitudeDegrees>43.17747183144092559814453125</LatitudeDegrees>
              <LongitudeDegrees>-1.98972794227302074432373046875</LongitudeDegrees>
            </Position>
            <AltitudeMeters>187.399993896484375</AltitudeMeters>
            <DistanceMeters>NAN</DistanceMeters>
          </Trackpoint>
          <Trackpoint>
            <Time>2021-08-13T09:49:49.000Z</Time>
            <Position>
              <LatitudeDegrees>43.1774766929447650909423828125</LatitudeDegrees>
              <LongitudeDegrees>-1.98968133889138698577880859375</LongitudeDegrees>
            </Position>
            <AltitudeMeters>187.399993896484375</AltitudeMeters>
            <DistanceMeters>NAN</DistanceMeters>
          </Trackpoint>
          <Trackpoint>
            <Time>2021-08-13T09:49:50.000Z</Time>
            <Position>
              <LatitudeDegrees>43.1774780340492725372314453125</LatitudeDegrees>
              <LongitudeDegrees>-1.98963456787168979644775390625</LongitudeDegrees>
            </Position>
            <AltitudeMeters>187.600006103515625</AltitudeMeters>
            <DistanceMeters>NAN</DistanceMeters>
          </Trackpoint>
          <Trackpoint>
            <Time>2021-08-13T09:49:53.000Z</Time>
            <Position>
              <LatitudeDegrees>43.17749203182756900787353515625</LatitudeDegrees>
              <LongitudeDegrees>-1.9895022176206111907958984375</LongitudeDegrees>
            </Position>
            <AltitudeMeters>187.600006103515625</AltitudeMeters>
            <DistanceMeters>NAN</DistanceMeters>
          </Trackpoint>
          <Trackpoint>
            <Time>2021-08-13T09:49:54.000Z</Time>
            <Position>
              <LatitudeDegrees>43.17749991081655025482177734375</LatitudeDegrees>
              <LongitudeDegrees>-1.98946793563663959503173828125</LongitudeDegrees>
            </Position>
            <AltitudeMeters>187.8000030517578125</AltitudeMeters>
            <DistanceMeters>NAN</DistanceMeters>
          </Trackpoint>
          <Trackpoint>
            <Time>2021-08-13T09:49:55.000Z</Time>
            <Position>
              <LatitudeDegrees>43.17750477232038974761962890625</LatitudeDegrees>
              <LongitudeDegrees>-1.9894361682236194610595703125</LongitudeDegrees>
            </Position>
            <AltitudeMeters>187.8000030517578125</AltitudeMeters>
            <DistanceMeters>NAN</DistanceMeters>
          </Trackpoint>
          <Trackpoint>
            <Time>2021-08-13T09:49:56.000Z</Time>
            <Position>
              <LatitudeDegrees>43.17751080729067325592041015625</LatitudeDegrees>
              <LongitudeDegrees>-1.9893909059464931488037109375</LongitudeDegrees>
            </Position>
            <AltitudeMeters>187.8000030517578125</AltitudeMeters>
            <DistanceMeters>NAN</DistanceMeters>
          </Trackpoint>
          <Trackpoint>
            <Time>2021-08-13T09:49:57.000Z</Time>
            <Position>
              <LatitudeDegrees>43.17751566879451274871826171875</LatitudeDegrees>
              <LongitudeDegrees>-1.98934740386903285980224609375</LongitudeDegrees>
            </Position>
            <AltitudeMeters>187.8000030517578125</AltitudeMeters>
            <DistanceMeters>NAN</DistanceMeters>
          </Trackpoint>
          <Trackpoint>
            <Time>2021-08-13T09:49:58.000Z</Time>
            <Position>
              <LatitudeDegrees>43.1775222904980182647705078125</LatitudeDegrees>
              <LongitudeDegrees>-1.98930415324866771697998046875</LongitudeDegrees>
            </Position>
            <AltitudeMeters>187.8000030517578125</AltitudeMeters>
            <DistanceMeters>NAN</DistanceMeters>
          </Trackpoint>
          <Trackpoint>
            <Time>2021-08-13T09:49:59.000Z</Time>
            <Position>
              <LatitudeDegrees>43.177531175315380096435546875</LatitudeDegrees>
              <LongitudeDegrees>-1.989272050559520721435546875</LongitudeDegrees>
            </Position>
            <AltitudeMeters>188</AltitudeMeters>
            <DistanceMeters>NAN</DistanceMeters>
          </Trackpoint>
          <Trackpoint>
            <Time>2021-08-13T09:50:00.000Z</Time>
            <Position>
              <LatitudeDegrees>43.17754114978015422821044921875</LatitudeDegrees>
              <LongitudeDegrees>-1.9892313145101070404052734375</LongitudeDegrees>
            </Position>
            <AltitudeMeters>188.1999969482421875</AltitudeMeters>
            <DistanceMeters>NAN</DistanceMeters>
          </Trackpoint>
          <Trackpoint>
            <Time>2021-08-13T09:50:02.000Z</Time>
            <Position>
              <LatitudeDegrees>43.177566714584827423095703125</LatitudeDegrees>
              <LongitudeDegrees>-1.98914808221161365509033203125</LongitudeDegrees>
            </Position>
            <AltitudeMeters>188.1999969482421875</AltitudeMeters>
            <DistanceMeters>NAN</DistanceMeters>
          </Trackpoint>
          <Trackpoint>
            <Time>2021-08-13T09:50:05.000Z</Time>
            <Position>
              <LatitudeDegrees>43.17759093828499317169189453125</LatitudeDegrees>
              <LongitudeDegrees>-1.9890412129461765289306640625</LongitudeDegrees>
            </Position>
            <AltitudeMeters>188.600006103515625</AltitudeMeters>
            <DistanceMeters>NAN</DistanceMeters>
          </Trackpoint>
          <Trackpoint>
            <Time>2021-08-13T09:50:08.000Z</Time>
            <Position>
              <LatitudeDegrees>43.17764156498014926910400390625</LatitudeDegrees>
              <LongitudeDegrees>-1.9888888299465179443359375</LongitudeDegrees>
            </Position>
            <AltitudeMeters>189</AltitudeMeters>
            <DistanceMeters>NAN</DistanceMeters>
          </Trackpoint>
          <Trackpoint>
            <Time>2021-08-13T09:50:14.000Z</Time>
            <Position>
              <LatitudeDegrees>43.177680037915706634521484375</LatitudeDegrees>
              <LongitudeDegrees>-1.98860091157257556915283203125</LongitudeDegrees>
            </Position>
            <AltitudeMeters>189.399993896484375</AltitudeMeters>
            <DistanceMeters>NAN</DistanceMeters>
          </Trackpoint>
          <Trackpoint>
            <Time>2021-08-13T09:50:15.000Z</Time>
            <Position>
              <LatitudeDegrees>43.177669309079647064208984375</LatitudeDegrees>
              <LongitudeDegrees>-1.98856470175087451934814453125</LongitudeDegrees>
            </Position>
            <AltitudeMeters>189.600006103515625</AltitudeMeters>
            <DistanceMeters>NAN</DistanceMeters>
          </Trackpoint>
          <Trackpoint>
            <Time>2021-08-13T09:50:16.000Z</Time>
            <Position>
              <LatitudeDegrees>43.17765279673039913177490234375</LatitudeDegrees>
              <LongitudeDegrees>-1.988528072834014892578125</LongitudeDegrees>
            </Position>
            <AltitudeMeters>189.600006103515625</AltitudeMeters>
            <DistanceMeters>NAN</DistanceMeters>
          </Trackpoint>
          <Trackpoint>
            <Time>2021-08-13T09:50:17.000Z</Time>
            <Position>
              <LatitudeDegrees>43.177621029317378997802734375</LatitudeDegrees>
              <LongitudeDegrees>-1.98850133456289768218994140625</LongitudeDegrees>
            </Position>
            <AltitudeMeters>189.600006103515625</AltitudeMeters>
            <DistanceMeters>NAN</DistanceMeters>
          </Trackpoint>
          <Trackpoint>
            <Time>2021-08-13T09:50:18.000Z</Time>
            <Position>
              <LatitudeDegrees>43.17759328521788120269775390625</LatitudeDegrees>
              <LongitudeDegrees>-1.9884762726724147796630859375</LongitudeDegrees>
            </Position>
            <AltitudeMeters>189.8000030517578125</AltitudeMeters>
            <DistanceMeters>NAN</DistanceMeters>
          </Trackpoint>
          <Trackpoint>
            <Time>2021-08-13T09:50:19.000Z</Time>
            <Position>
              <LatitudeDegrees>43.17756545729935169219970703125</LatitudeDegrees>
              <LongitudeDegrees>-1.9884489476680755615234375</LongitudeDegrees>
            </Position>
            <AltitudeMeters>189.8000030517578125</AltitudeMeters>
            <DistanceMeters>NAN</DistanceMeters>
          </Trackpoint>
          <Trackpoint>
            <Time>2021-08-13T09:50:25.000Z</Time>
            <Position>
              <LatitudeDegrees>43.177457749843597412109375</LatitudeDegrees>
              <LongitudeDegrees>-1.98826722800731658935546875</LongitudeDegrees>
            </Position>
            <AltitudeMeters>189.8000030517578125</AltitudeMeters>
            <DistanceMeters>NAN</DistanceMeters>
          </Trackpoint>
          <Trackpoint>
            <Time>2021-08-13T09:50:26.000Z</Time>
            <Position>
              <LatitudeDegrees>43.17745129577815532684326171875</LatitudeDegrees>
              <LongitudeDegrees>-1.988227665424346923828125</LongitudeDegrees>
            </Position>
            <AltitudeMeters>189.8000030517578125</AltitudeMeters>
            <DistanceMeters>NAN</DistanceMeters>
          </Trackpoint>
          <Trackpoint>
            <Time>2021-08-13T09:50:27.000Z</Time>
            <Position>
              <LatitudeDegrees>43.17744559608399868011474609375</LatitudeDegrees>
              <LongitudeDegrees>-1.98817762546241283416748046875</LongitudeDegrees>
            </Position>
            <AltitudeMeters>189.8000030517578125</AltitudeMeters>
            <DistanceMeters>NAN</DistanceMeters>
          </Trackpoint>
          <Trackpoint>
            <Time>2021-08-13T09:50:28.000Z</Time>
            <Position>
              <LatitudeDegrees>43.1774418242275714874267578125</LatitudeDegrees>
              <LongitudeDegrees>-1.98814510367810726165771484375</LongitudeDegrees>
            </Position>
            <AltitudeMeters>189.8000030517578125</AltitudeMeters>
            <DistanceMeters>NAN</DistanceMeters>
          </Trackpoint>
          <Trackpoint>
            <Time>2021-08-13T09:50:30.000Z</Time>
            <Position>
              <LatitudeDegrees>43.1774322688579559326171875</LatitudeDegrees>
              <LongitudeDegrees>-1.9880642183125019073486328125</LongitudeDegrees>
            </Position>
            <AltitudeMeters>189.8000030517578125</AltitudeMeters>
            <DistanceMeters>NAN</DistanceMeters>
          </Trackpoint>
          <Trackpoint>
            <Time>2021-08-13T09:50:31.000Z</Time>
            <Position>
              <LatitudeDegrees>43.17742866463959217071533203125</LatitudeDegrees>
              <LongitudeDegrees>-1.98803027160465717315673828125</LongitudeDegrees>
            </Position>
            <AltitudeMeters>189.8000030517578125</AltitudeMeters>
            <DistanceMeters>NAN</DistanceMeters>
          </Trackpoint>
          <Trackpoint>
            <Time>2021-08-13T09:50:32.000Z</Time>
            <Position>
              <LatitudeDegrees>43.17742698825895786285400390625</LatitudeDegrees>
              <LongitudeDegrees>-1.98800177313387393951416015625</LongitudeDegrees>
            </Position>
            <AltitudeMeters>190</AltitudeMeters>
            <DistanceMeters>NAN</DistanceMeters>
          </Trackpoint>
          <Trackpoint>
            <Time>2021-08-13T09:50:33.000Z</Time>
            <Position>
              <LatitudeDegrees>43.17741927690804004669189453125</LatitudeDegrees>
              <LongitudeDegrees>-1.98796824552118778228759765625</LongitudeDegrees>
            </Position>
            <AltitudeMeters>190</AltitudeMeters>
            <DistanceMeters>NAN</DistanceMeters>
          </Trackpoint>
          <Trackpoint>
            <Time>2021-08-13T09:50:34.000Z</Time>
            <Position>
              <LatitudeDegrees>43.17741123028099536895751953125</LatitudeDegrees>
              <LongitudeDegrees>-1.98793371208012104034423828125</LongitudeDegrees>
            </Position>
            <AltitudeMeters>190</AltitudeMeters>
            <DistanceMeters>NAN</DistanceMeters>
          </Trackpoint>
          <Trackpoint>
            <Time>2021-08-13T09:50:35.000Z</Time>
            <Position>
              <LatitudeDegrees>43.17740418948233127593994140625</LatitudeDegrees>
              <LongitudeDegrees>-1.987898088991641998291015625</LongitudeDegrees>
            </Position>
            <AltitudeMeters>190</AltitudeMeters>
            <DistanceMeters>NAN</DistanceMeters>
          </Trackpoint>
          <Trackpoint>
            <Time>2021-08-13T09:50:36.000Z</Time>
            <Position>
              <LatitudeDegrees>43.17739916034042835235595703125</LatitudeDegrees>
              <LongitudeDegrees>-1.98786548338830471038818359375</LongitudeDegrees>
            </Position>
            <AltitudeMeters>190</AltitudeMeters>
            <DistanceMeters>NAN</DistanceMeters>
          </Trackpoint>
          <Trackpoint>
            <Time>2021-08-13T09:50:37.000Z</Time>
            <Position>
              <LatitudeDegrees>43.17739136517047882080078125</LatitudeDegrees>
              <LongitudeDegrees>-1.98783539235591888427734375</LongitudeDegrees>
            </Position>
            <AltitudeMeters>190.1999969482421875</AltitudeMeters>
            <DistanceMeters>NAN</DistanceMeters>
          </Trackpoint>
          <Trackpoint>
            <Time>2021-08-13T09:50:38.000Z</Time>
            <Position>
              <LatitudeDegrees>43.17738172598183155059814453125</LatitudeDegrees>
              <LongitudeDegrees>-1.98780161328613758087158203125</LongitudeDegrees>
            </Position>
            <AltitudeMeters>190.399993896484375</AltitudeMeters>
            <DistanceMeters>NAN</DistanceMeters>
          </Trackpoint>
          <Trackpoint>
            <Time>2021-08-13T09:50:39.000Z</Time>
            <Position>
              <LatitudeDegrees>43.17737284116446971893310546875</LatitudeDegrees>
              <LongitudeDegrees>-1.98776842094957828521728515625</LongitudeDegrees>
            </Position>
            <AltitudeMeters>190.399993896484375</AltitudeMeters>
            <DistanceMeters>NAN</DistanceMeters>
          </Trackpoint>
          <Trackpoint>
            <Time>2021-08-13T09:50:40.000Z</Time>
            <Position>
              <LatitudeDegrees>43.17736278288066387176513671875</LatitudeDegrees>
              <LongitudeDegrees>-1.98773925192654132843017578125</LongitudeDegrees>
            </Position>
            <AltitudeMeters>190.600006103515625</AltitudeMeters>
            <DistanceMeters>NAN</DistanceMeters>
          </Trackpoint>
          <Trackpoint>
            <Time>2021-08-13T09:50:41.000Z</Time>
            <Position>
              <LatitudeDegrees>43.1773486174643039703369140625</LatitudeDegrees>
              <LongitudeDegrees>-1.9877061434090137481689453125</LongitudeDegrees>
            </Position>
            <AltitudeMeters>190.600006103515625</AltitudeMeters>
            <DistanceMeters>NAN</DistanceMeters>
          </Trackpoint>
          <Trackpoint>
            <Time>2021-08-13T09:50:47.000Z</Time>
            <Position>
              <LatitudeDegrees>43.17726119421422481536865234375</LatitudeDegrees>
              <LongitudeDegrees>-1.9875029660761356353759765625</LongitudeDegrees>
            </Position>
            <AltitudeMeters>191.1999969482421875</AltitudeMeters>
            <DistanceMeters>NAN</DistanceMeters>
          </Trackpoint>
          <Trackpoint>
            <Time>2021-08-13T09:50:54.000Z</Time>
            <Position>
              <LatitudeDegrees>43.17713026888668537139892578125</LatitudeDegrees>
              <LongitudeDegrees>-1.98728042654693126678466796875</LongitudeDegrees>
            </Position>
            <AltitudeMeters>191.399993896484375</AltitudeMeters>
            <DistanceMeters>NAN</DistanceMeters>
          </Trackpoint>
          <Trackpoint>
            <Time>2021-08-13T09:50:55.000Z</Time>
            <Position>
              <LatitudeDegrees>43.17711417563259601593017578125</LatitudeDegrees>
              <LongitudeDegrees>-1.98723751120269298553466796875</LongitudeDegrees>
            </Position>
            <AltitudeMeters>191.399993896484375</AltitudeMeters>
            <DistanceMeters>NAN</DistanceMeters>
          </Trackpoint>
          <Trackpoint>
            <Time>2021-08-13T09:50:57.000Z</Time>
            <Position>
              <LatitudeDegrees>43.17707628943026065826416015625</LatitudeDegrees>
              <LongitudeDegrees>-1.98718068189918994903564453125</LongitudeDegrees>
            </Position>
            <AltitudeMeters>191.600006103515625</AltitudeMeters>
            <DistanceMeters>NAN</DistanceMeters>
          </Trackpoint>
          <Trackpoint>
            <Time>2021-08-13T09:50:58.000Z</Time>
            <Position>
              <LatitudeDegrees>43.17705650813877582550048828125</LatitudeDegrees>
              <LongitudeDegrees>-1.9871549494564533233642578125</LongitudeDegrees>
            </Position>
            <AltitudeMeters>191.8000030517578125</AltitudeMeters>
            <DistanceMeters>NAN</DistanceMeters>
          </Trackpoint>
          <Trackpoint>
            <Time>2021-08-13T09:50:59.000Z</Time>
            <Position>
              <LatitudeDegrees>43.17704158835113048553466796875</LatitudeDegrees>
              <LongitudeDegrees>-1.98712167330086231231689453125</LongitudeDegrees>
            </Position>
            <AltitudeMeters>191.8000030517578125</AltitudeMeters>
            <DistanceMeters>NAN</DistanceMeters>
          </Trackpoint>
          <Trackpoint>
            <Time>2021-08-13T09:51:00.000Z</Time>
            <Position>
              <LatitudeDegrees>43.1770260818302631378173828125</LatitudeDegrees>
              <LongitudeDegrees>-1.9870885647833347320556640625</LongitudeDegrees>
            </Position>
            <AltitudeMeters>192</AltitudeMeters>
            <DistanceMeters>NAN</DistanceMeters>
          </Trackpoint>
          <Trackpoint>
            <Time>2021-08-13T09:51:01.000Z</Time>
            <Position>
              <LatitudeDegrees>43.17701644264161586761474609375</LatitudeDegrees>
              <LongitudeDegrees>-1.987056545913219451904296875</LongitudeDegrees>
            </Position>
            <AltitudeMeters>192</AltitudeMeters>
            <DistanceMeters>NAN</DistanceMeters>
          </Trackpoint>
          <Trackpoint>
            <Time>2021-08-13T09:51:02.000Z</Time>
            <Position>
              <LatitudeDegrees>43.17699934355914592742919921875</LatitudeDegrees>
              <LongitudeDegrees>-1.98702310211956501007080078125</LongitudeDegrees>
            </Position>
            <AltitudeMeters>192.1999969482421875</AltitudeMeters>
            <DistanceMeters>NAN</DistanceMeters>
          </Trackpoint>
          <Trackpoint>
            <Time>2021-08-13T09:51:04.000Z</Time>
            <Position>
              <LatitudeDegrees>43.17695475183427333831787109375</LatitudeDegrees>
              <LongitudeDegrees>-1.98693551123142242431640625</LongitudeDegrees>
            </Position>
            <AltitudeMeters>192.1999969482421875</AltitudeMeters>
            <DistanceMeters>NAN</DistanceMeters>
          </Trackpoint>
          <Trackpoint>
            <Time>2021-08-13T09:51:05.000Z</Time>
            <Position>
              <LatitudeDegrees>43.17693916149437427520751953125</LatitudeDegrees>
              <LongitudeDegrees>-1.98689988814294338226318359375</LongitudeDegrees>
            </Position>
            <AltitudeMeters>192.399993896484375</AltitudeMeters>
            <DistanceMeters>NAN</DistanceMeters>
          </Trackpoint>
          <Trackpoint>
            <Time>2021-08-13T09:51:10.000Z</Time>
            <Position>
              <LatitudeDegrees>43.17687529139220714569091796875</LatitudeDegrees>
              <LongitudeDegrees>-1.98664625175297260284423828125</LongitudeDegrees>
            </Position>
            <AltitudeMeters>192.600006103515625</AltitudeMeters>
            <DistanceMeters>NAN</DistanceMeters>
          </Trackpoint>
          <Trackpoint>
            <Time>2021-08-13T09:51:11.000Z</Time>
            <Position>
              <LatitudeDegrees>43.1768758781254291534423828125</LatitudeDegrees>
              <LongitudeDegrees>-1.9866007380187511444091796875</LongitudeDegrees>
            </Position>
            <AltitudeMeters>192.8000030517578125</AltitudeMeters>
            <DistanceMeters>NAN</DistanceMeters>
          </Trackpoint>
          <Trackpoint>
            <Time>2021-08-13T09:51:12.000Z</Time>
            <Position>
              <LatitudeDegrees>43.1768634729087352752685546875</LatitudeDegrees>
              <LongitudeDegrees>-1.986551620066165924072265625</LongitudeDegrees>
            </Position>
            <AltitudeMeters>192.8000030517578125</AltitudeMeters>
            <DistanceMeters>NAN</DistanceMeters>
          </Trackpoint>
          <Trackpoint>
            <Time>2021-08-13T09:51:16.000Z</Time>
            <Position>
              <LatitudeDegrees>43.176845870912075042724609375</LatitudeDegrees>
              <LongitudeDegrees>-1.98637115769088268280029296875</LongitudeDegrees>
            </Position>
            <AltitudeMeters>193</AltitudeMeters>
            <DistanceMeters>NAN</DistanceMeters>
          </Trackpoint>
          <Trackpoint>
            <Time>2021-08-13T09:51:17.000Z</Time>
            <Position>
              <LatitudeDegrees>43.1768624670803546905517578125</LatitudeDegrees>
              <LongitudeDegrees>-1.9863201119005680084228515625</LongitudeDegrees>
            </Position>
            <AltitudeMeters>193.399993896484375</AltitudeMeters>
            <DistanceMeters>NAN</DistanceMeters>
          </Trackpoint>
          <Trackpoint>
            <Time>2021-08-13T09:51:18.000Z</Time>
            <Position>
              <LatitudeDegrees>43.17687395028769969940185546875</LatitudeDegrees>
              <LongitudeDegrees>-1.986282058060169219970703125</LongitudeDegrees>
            </Position>
            <AltitudeMeters>193.399993896484375</AltitudeMeters>
            <DistanceMeters>NAN</DistanceMeters>
          </Trackpoint>
          <Trackpoint>
            <Time>2021-08-13T09:51:19.000Z</Time>
            <Position>
              <LatitudeDegrees>43.17685802467167377471923828125</LatitudeDegrees>
              <LongitudeDegrees>-1.98625381104648113250732421875</LongitudeDegrees>
            </Position>
            <AltitudeMeters>193.1999969482421875</AltitudeMeters>
            <DistanceMeters>NAN</DistanceMeters>
          </Trackpoint>
          <Trackpoint>
            <Time>2021-08-13T09:51:20.000Z</Time>
            <Position>
              <LatitudeDegrees>43.17684176377952098846435546875</LatitudeDegrees>
              <LongitudeDegrees>-1.98622598312795162200927734375</LongitudeDegrees>
            </Position>
            <AltitudeMeters>193.399993896484375</AltitudeMeters>
            <DistanceMeters>NAN</DistanceMeters>
          </Trackpoint>
          <Trackpoint>
            <Time>2021-08-13T09:51:21.000Z</Time>
            <Position>
              <LatitudeDegrees>43.17683019675314426422119140625</LatitudeDegrees>
              <LongitudeDegrees>-1.9861990772187709808349609375</LongitudeDegrees>
            </Position>
            <AltitudeMeters>193.399993896484375</AltitudeMeters>
            <DistanceMeters>NAN</DistanceMeters>
          </Trackpoint>
          <Trackpoint>
            <Time>2021-08-13T09:51:22.000Z</Time>
            <Position>
              <LatitudeDegrees>43.17682784982025623321533203125</LatitudeDegrees>
              <LongitudeDegrees>-1.9861632026731967926025390625</LongitudeDegrees>
            </Position>
            <AltitudeMeters>193.399993896484375</AltitudeMeters>
            <DistanceMeters>NAN</DistanceMeters>
          </Trackpoint>
          <Trackpoint>
            <Time>2021-08-13T09:51:23.000Z</Time>
            <Position>
              <LatitudeDegrees>43.17682407796382904052734375</LatitudeDegrees>
              <LongitudeDegrees>-1.9861377216875553131103515625</LongitudeDegrees>
            </Position>
            <AltitudeMeters>193.399993896484375</AltitudeMeters>
            <DistanceMeters>NAN</DistanceMeters>
          </Trackpoint>
          <Trackpoint>
            <Time>2021-08-13T09:51:24.000Z</Time>
            <Position>
              <LatitudeDegrees>43.1768058054149150848388671875</LatitudeDegrees>
              <LongitudeDegrees>-1.9861088879406452178955078125</LongitudeDegrees>
            </Position>
            <AltitudeMeters>193.600006103515625</AltitudeMeters>
            <DistanceMeters>NAN</DistanceMeters>
          </Trackpoint>
          <Trackpoint>
            <Time>2021-08-13T09:51:25.000Z</Time>
            <Position>
              <LatitudeDegrees>43.17678292281925678253173828125</LatitudeDegrees>
              <LongitudeDegrees>-1.9860864244401454925537109375</LongitudeDegrees>
            </Position>
            <AltitudeMeters>193.600006103515625</AltitudeMeters>
            <DistanceMeters>NAN</DistanceMeters>
          </Trackpoint>
          <Trackpoint>
            <Time>2021-08-13T09:51:26.000Z</Time>
            <Position>
              <LatitudeDegrees>43.1767672486603260040283203125</LatitudeDegrees>
              <LongitudeDegrees>-1.98605951853096485137939453125</LongitudeDegrees>
            </Position>
            <AltitudeMeters>193.8000030517578125</AltitudeMeters>
            <DistanceMeters>NAN</DistanceMeters>
          </Trackpoint>
          <Trackpoint>
            <Time>2021-08-13T09:51:27.000Z</Time>
            <Position>
              <LatitudeDegrees>43.176745288074016571044921875</LatitudeDegrees>
              <LongitudeDegrees>-1.98603822849690914154052734375</LongitudeDegrees>
            </Position>
            <AltitudeMeters>193.8000030517578125</AltitudeMeters>
            <DistanceMeters>NAN</DistanceMeters>
          </Trackpoint>
          <Trackpoint>
            <Time>2021-08-13T09:51:28.000Z</Time>
            <Position>
              <LatitudeDegrees>43.176721148192882537841796875</LatitudeDegrees>
              <LongitudeDegrees>-1.9860163517296314239501953125</LongitudeDegrees>
            </Position>
            <AltitudeMeters>193.8000030517578125</AltitudeMeters>
            <DistanceMeters>NAN</DistanceMeters>
          </Trackpoint>
          <Trackpoint>
            <Time>2021-08-13T09:51:29.000Z</Time>
            <Position>
              <LatitudeDegrees>43.17669692449271678924560546875</LatitudeDegrees>
              <LongitudeDegrees>-1.98599698953330516815185546875</LongitudeDegrees>
            </Position>
            <AltitudeMeters>193.8000030517578125</AltitudeMeters>
            <DistanceMeters>NAN</DistanceMeters>
          </Trackpoint>
          <Trackpoint>
            <Time>2021-08-13T09:51:30.000Z</Time>
            <Position>
              <LatitudeDegrees>43.176675550639629364013671875</LatitudeDegrees>
              <LongitudeDegrees>-1.98597016744315624237060546875</LongitudeDegrees>
            </Position>
            <AltitudeMeters>194</AltitudeMeters>
            <DistanceMeters>NAN</DistanceMeters>
          </Trackpoint>
          <Trackpoint>
            <Time>2021-08-13T09:51:32.000Z</Time>
            <Position>
              <LatitudeDegrees>43.176647387444972991943359375</LatitudeDegrees>
              <LongitudeDegrees>-1.98589489795267581939697265625</LongitudeDegrees>
            </Position>
            <AltitudeMeters>194.1999969482421875</AltitudeMeters>
            <DistanceMeters>NAN</DistanceMeters>
          </Trackpoint>
          <Trackpoint>
            <Time>2021-08-13T09:51:33.000Z</Time>
            <Position>
              <LatitudeDegrees>43.176640011370182037353515625</LatitudeDegrees>
              <LongitudeDegrees>-1.9858621247112751007080078125</LongitudeDegrees>
            </Position>
            <AltitudeMeters>194.1999969482421875</AltitudeMeters>
            <DistanceMeters>NAN</DistanceMeters>
          </Trackpoint>
          <Trackpoint>
            <Time>2021-08-13T09:51:34.000Z</Time>
            <Position>
              <LatitudeDegrees>43.176617883145809173583984375</LatitudeDegrees>
              <LongitudeDegrees>-1.98582398705184459686279296875</LongitudeDegrees>
            </Position>
            <AltitudeMeters>194.399993896484375</AltitudeMeters>
            <DistanceMeters>NAN</DistanceMeters>
          </Trackpoint>
          <Trackpoint>
            <Time>2021-08-13T09:51:37.000Z</Time>
            <Position>
              <LatitudeDegrees>43.17656348459422588348388671875</LatitudeDegrees>
              <LongitudeDegrees>-1.9857541657984256744384765625</LongitudeDegrees>
            </Position>
            <AltitudeMeters>194.399993896484375</AltitudeMeters>
            <DistanceMeters>NAN</DistanceMeters>
          </Trackpoint>
          <Trackpoint>
            <Time>2021-08-13T09:51:38.000Z</Time>
            <Position>
              <LatitudeDegrees>43.17653733305633068084716796875</LatitudeDegrees>
              <LongitudeDegrees>-1.9857353903353214263916015625</LongitudeDegrees>
            </Position>
            <AltitudeMeters>194.600006103515625</AltitudeMeters>
            <DistanceMeters>NAN</DistanceMeters>
          </Trackpoint>
          <Trackpoint>
            <Time>2021-08-13T09:51:39.000Z</Time>
            <Position>
              <LatitudeDegrees>43.1765174679458141326904296875</LatitudeDegrees>
              <LongitudeDegrees>-1.985710076987743377685546875</LongitudeDegrees>
            </Position>
            <AltitudeMeters>194.600006103515625</AltitudeMeters>
            <DistanceMeters>NAN</DistanceMeters>
          </Trackpoint>
          <Trackpoint>
            <Time>2021-08-13T09:51:41.000Z</Time>
            <Position>
              <LatitudeDegrees>43.176485113799571990966796875</LatitudeDegrees>
              <LongitudeDegrees>-1.9856629706919193267822265625</LongitudeDegrees>
            </Position>
            <AltitudeMeters>194.8000030517578125</AltitudeMeters>
            <DistanceMeters>NAN</DistanceMeters>
          </Trackpoint>
          <Trackpoint>
            <Time>2021-08-13T09:51:42.000Z</Time>
            <Position>
              <LatitudeDegrees>43.17646709270775318145751953125</LatitudeDegrees>
              <LongitudeDegrees>-1.98563589714467525482177734375</LongitudeDegrees>
            </Position>
            <AltitudeMeters>194.8000030517578125</AltitudeMeters>
            <DistanceMeters>NAN</DistanceMeters>
          </Trackpoint>
          <Trackpoint>
            <Time>2021-08-13T09:51:43.000Z</Time>
            <Position>
              <LatitudeDegrees>43.17645435221493244171142578125</LatitudeDegrees>
              <LongitudeDegrees>-1.98560605756938457489013671875</LongitudeDegrees>
            </Position>
            <AltitudeMeters>194.8000030517578125</AltitudeMeters>
            <DistanceMeters>NAN</DistanceMeters>
          </Trackpoint>
          <Trackpoint>
            <Time>2021-08-13T09:51:44.000Z</Time>
            <Position>
              <LatitudeDegrees>43.1764366663992404937744140625</LatitudeDegrees>
              <LongitudeDegrees>-1.98557697236537933349609375</LongitudeDegrees>
            </Position>
            <AltitudeMeters>195</AltitudeMeters>
            <DistanceMeters>NAN</DistanceMeters>
          </Trackpoint>
          <Trackpoint>
            <Time>2021-08-13T09:51:45.000Z</Time>
            <Position>
              <LatitudeDegrees>43.1764125265181064605712890625</LatitudeDegrees>
              <LongitudeDegrees>-1.9855385832488536834716796875</LongitudeDegrees>
            </Position>
            <AltitudeMeters>195.1999969482421875</AltitudeMeters>
            <DistanceMeters>NAN</DistanceMeters>
          </Trackpoint>
          <Trackpoint>
            <Time>2021-08-13T09:51:52.000Z</Time>
            <Position>
              <LatitudeDegrees>43.1762341596186161041259765625</LatitudeDegrees>
              <LongitudeDegrees>-1.985340602695941925048828125</LongitudeDegrees>
            </Position>
            <AltitudeMeters>195.600006103515625</AltitudeMeters>
            <DistanceMeters>NAN</DistanceMeters>
          </Trackpoint>
          <Trackpoint>
            <Time>2021-08-13T09:51:54.000Z</Time>
            <Position>
              <LatitudeDegrees>43.17619970999658107757568359375</LatitudeDegrees>
              <LongitudeDegrees>-1.98528285138309001922607421875</LongitudeDegrees>
            </Position>
            <AltitudeMeters>195.8000030517578125</AltitudeMeters>
            <DistanceMeters>NAN</DistanceMeters>
          </Trackpoint>
          <Trackpoint>
            <Time>2021-08-13T09:51:58.000Z</Time>
            <Position>
              <LatitudeDegrees>43.176083452999591827392578125</LatitudeDegrees>
              <LongitudeDegrees>-1.98516734875738620758056640625</LongitudeDegrees>
            </Position>
            <AltitudeMeters>196.1999969482421875</AltitudeMeters>
            <DistanceMeters>NAN</DistanceMeters>
          </Trackpoint>
          <Trackpoint>
            <Time>2021-08-13T09:52:00.000Z</Time>
            <Position>
              <LatitudeDegrees>43.17603492178022861480712890625</LatitudeDegrees>
              <LongitudeDegrees>-1.98511085473001003265380859375</LongitudeDegrees>
            </Position>
            <AltitudeMeters>196.399993896484375</AltitudeMeters>
            <DistanceMeters>NAN</DistanceMeters>
          </Trackpoint>
          <Trackpoint>
            <Time>2021-08-13T09:52:01.000Z</Time>
            <Position>
              <LatitudeDegrees>43.17601698450744152069091796875</LatitudeDegrees>
              <LongitudeDegrees>-1.9850879721343517303466796875</LongitudeDegrees>
            </Position>
            <AltitudeMeters>196.399993896484375</AltitudeMeters>
            <DistanceMeters>NAN</DistanceMeters>
          </Trackpoint>
          <Trackpoint>
            <Time>2021-08-13T09:52:02.000Z</Time>
            <Position>
              <LatitudeDegrees>43.17599653266370296478271484375</LatitudeDegrees>
              <LongitudeDegrees>-1.985068023204803466796875</LongitudeDegrees>
            </Position>
            <AltitudeMeters>196.600006103515625</AltitudeMeters>
            <DistanceMeters>NAN</DistanceMeters>
          </Trackpoint>
          <Trackpoint>
            <Time>2021-08-13T09:52:03.000Z</Time>
            <Position>
              <LatitudeDegrees>43.17598546855151653289794921875</LatitudeDegrees>
              <LongitudeDegrees>-1.98505536653101444244384765625</LongitudeDegrees>
            </Position>
            <AltitudeMeters>196.600006103515625</AltitudeMeters>
            <DistanceMeters>NAN</DistanceMeters>
          </Trackpoint>
          <Trackpoint>
            <Time>2021-08-13T09:52:08.000Z</Time>
            <Position>
              <LatitudeDegrees>43.175840042531490325927734375</LatitudeDegrees>
              <LongitudeDegrees>-1.9848975352942943572998046875</LongitudeDegrees>
            </Position>
            <AltitudeMeters>196.600006103515625</AltitudeMeters>
            <DistanceMeters>NAN</DistanceMeters>
          </Trackpoint>
          <Trackpoint>
            <Time>2021-08-13T09:52:10.000Z</Time>
            <Position>
              <LatitudeDegrees>43.1757386215031147003173828125</LatitudeDegrees>
              <LongitudeDegrees>-1.98485738597810268402099609375</LongitudeDegrees>
            </Position>
            <AltitudeMeters>196.399993896484375</AltitudeMeters>
            <DistanceMeters>NAN</DistanceMeters>
          </Trackpoint>
          <Trackpoint>
            <Time>2021-08-13T09:52:11.000Z</Time>
            <Position>
              <LatitudeDegrees>43.17568623460829257965087890625</LatitudeDegrees>
              <LongitudeDegrees>-1.98484280146658420562744140625</LongitudeDegrees>
            </Position>
            <AltitudeMeters>196.1999969482421875</AltitudeMeters>
            <DistanceMeters>NAN</DistanceMeters>
          </Trackpoint>
          <Trackpoint>
            <Time>2021-08-13T09:52:12.000Z</Time>
            <Position>
              <LatitudeDegrees>43.175639547407627105712890625</LatitudeDegrees>
              <LongitudeDegrees>-1.98484112508594989776611328125</LongitudeDegrees>
            </Position>
            <AltitudeMeters>196.1999969482421875</AltitudeMeters>
            <DistanceMeters>NAN</DistanceMeters>
          </Trackpoint>
          <Trackpoint>
            <Time>2021-08-13T09:52:13.000Z</Time>
            <Position>
              <LatitudeDegrees>43.17560593597590923309326171875</LatitudeDegrees>
              <LongitudeDegrees>-1.98484632186591625213623046875</LongitudeDegrees>
            </Position>
            <AltitudeMeters>195.8000030517578125</AltitudeMeters>
            <DistanceMeters>NAN</DistanceMeters>
          </Trackpoint>
          <Trackpoint>
            <Time>2021-08-13T09:52:16.000Z</Time>
            <Position>
              <LatitudeDegrees>43.1754583306610584259033203125</LatitudeDegrees>
              <LongitudeDegrees>-1.984871216118335723876953125</LongitudeDegrees>
            </Position>
            <AltitudeMeters>194.8000030517578125</AltitudeMeters>
            <DistanceMeters>NAN</DistanceMeters>
          </Trackpoint>
          <Trackpoint>
            <Time>2021-08-13T09:52:18.000Z</Time>
            <Position>
              <LatitudeDegrees>43.17535414360463619232177734375</LatitudeDegrees>
              <LongitudeDegrees>-1.98489367961883544921875</LongitudeDegrees>
            </Position>
            <AltitudeMeters>194.1999969482421875</AltitudeMeters>
            <DistanceMeters>NAN</DistanceMeters>
          </Trackpoint>
          <Trackpoint>
            <Time>2021-08-13T09:52:20.000Z</Time>
            <Position>
              <LatitudeDegrees>43.175264038145542144775390625</LatitudeDegrees>
              <LongitudeDegrees>-1.9849146343767642974853515625</LongitudeDegrees>
            </Position>
            <AltitudeMeters>193.600006103515625</AltitudeMeters>
            <DistanceMeters>NAN</DistanceMeters>
          </Trackpoint>
          <Trackpoint>
            <Time>2021-08-13T09:52:21.000Z</Time>
            <Position>
              <LatitudeDegrees>43.17524031735956668853759765625</LatitudeDegrees>
              <LongitudeDegrees>-1.984920166432857513427734375</LongitudeDegrees>
            </Position>
            <AltitudeMeters>193.1999969482421875</AltitudeMeters>
            <DistanceMeters>NAN</DistanceMeters>
          </Trackpoint>
          <Trackpoint>
            <Time>2021-08-13T09:52:22.000Z</Time>
            <Position>
              <LatitudeDegrees>43.1752135790884494781494140625</LatitudeDegrees>
              <LongitudeDegrees>-1.984920836985111236572265625</LongitudeDegrees>
            </Position>
            <AltitudeMeters>193.1999969482421875</AltitudeMeters>
            <DistanceMeters>NAN</DistanceMeters>
          </Trackpoint>
          <Trackpoint>
            <Time>2021-08-13T09:52:23.000Z</Time>
            <Position>
              <LatitudeDegrees>43.17518432624638080596923828125</LatitudeDegrees>
              <LongitudeDegrees>-1.9849290512502193450927734375</LongitudeDegrees>
            </Position>
            <AltitudeMeters>193</AltitudeMeters>
            <DistanceMeters>NAN</DistanceMeters>
          </Trackpoint>
          <Trackpoint>
            <Time>2021-08-13T09:52:27.000Z</Time>
            <Position>
              <LatitudeDegrees>43.17504954524338245391845703125</LatitudeDegrees>
              <LongitudeDegrees>-1.98496299795806407928466796875</LongitudeDegrees>
            </Position>
            <AltitudeMeters>192.8000030517578125</AltitudeMeters>
            <DistanceMeters>NAN</DistanceMeters>
          </Trackpoint>
          <Trackpoint>
            <Time>2021-08-13T09:52:28.000Z</Time>
            <Position>
              <LatitudeDegrees>43.1750362180173397064208984375</LatitudeDegrees>
              <LongitudeDegrees>-1.9849649257957935333251953125</LongitudeDegrees>
            </Position>
            <AltitudeMeters>192.8000030517578125</AltitudeMeters>
            <DistanceMeters>NAN</DistanceMeters>
          </Trackpoint>
          <Trackpoint>
            <Time>2021-08-13T09:52:29.000Z</Time>
            <Position>
              <LatitudeDegrees>43.17501819692552089691162109375</LatitudeDegrees>
              <LongitudeDegrees>-1.9849655963480472564697265625</LongitudeDegrees>
            </Position>
            <AltitudeMeters>192.8000030517578125</AltitudeMeters>
            <DistanceMeters>NAN</DistanceMeters>
          </Trackpoint>
          <Trackpoint>
            <Time>2021-08-13T09:52:30.000Z</Time>
            <Position>
              <LatitudeDegrees>43.17499254830181598663330078125</LatitudeDegrees>
              <LongitudeDegrees>-1.984965763986110687255859375</LongitudeDegrees>
            </Position>
            <AltitudeMeters>192.8000030517578125</AltitudeMeters>
            <DistanceMeters>NAN</DistanceMeters>
          </Trackpoint>
          <Trackpoint>
            <Time>2021-08-13T09:52:31.000Z</Time>
            <Position>
              <LatitudeDegrees>43.17497042007744312286376953125</LatitudeDegrees>
              <LongitudeDegrees>-1.9849647581577301025390625</LongitudeDegrees>
            </Position>
            <AltitudeMeters>192.8000030517578125</AltitudeMeters>
            <DistanceMeters>NAN</DistanceMeters>
          </Trackpoint>
          <Trackpoint>
            <Time>2021-08-13T09:52:34.000Z</Time>
            <Position>
              <LatitudeDegrees>43.17490638233721256256103515625</LatitudeDegrees>
              <LongitudeDegrees>-1.98498194105923175811767578125</LongitudeDegrees>
            </Position>
            <AltitudeMeters>193.600006103515625</AltitudeMeters>
            <DistanceMeters>NAN</DistanceMeters>
          </Trackpoint>
          <Trackpoint>
            <Time>2021-08-13T09:52:35.000Z</Time>
            <Position>
              <LatitudeDegrees>43.1748846732079982757568359375</LatitudeDegrees>
              <LongitudeDegrees>-1.9849883951246738433837890625</LongitudeDegrees>
            </Position>
            <AltitudeMeters>194</AltitudeMeters>
            <DistanceMeters>NAN</DistanceMeters>
          </Trackpoint>
          <Trackpoint>
            <Time>2021-08-13T09:52:36.000Z</Time>
            <Position>
              <LatitudeDegrees>43.17486799322068691253662109375</LatitudeDegrees>
              <LongitudeDegrees>-1.98499183170497417449951171875</LongitudeDegrees>
            </Position>
            <AltitudeMeters>194</AltitudeMeters>
            <DistanceMeters>NAN</DistanceMeters>
          </Trackpoint>
          <Trackpoint>
            <Time>2021-08-13T09:52:37.000Z</Time>
            <Position>
              <LatitudeDegrees>43.17485399544239044189453125</LatitudeDegrees>
              <LongitudeDegrees>-1.98499334044754505157470703125</LongitudeDegrees>
            </Position>
            <AltitudeMeters>194.1999969482421875</AltitudeMeters>
            <DistanceMeters>NAN</DistanceMeters>
          </Trackpoint>
          <Trackpoint>
            <Time>2021-08-13T09:52:39.000Z</Time>
            <Position>
              <LatitudeDegrees>43.17479071207344532012939453125</LatitudeDegrees>
              <LongitudeDegrees>-1.98500691913068294525146484375</LongitudeDegrees>
            </Position>
            <AltitudeMeters>194.399993896484375</AltitudeMeters>
            <DistanceMeters>NAN</DistanceMeters>
          </Trackpoint>
          <Trackpoint>
            <Time>2021-08-13T09:52:40.000Z</Time>
            <Position>
              <LatitudeDegrees>43.174746371805667877197265625</LatitudeDegrees>
              <LongitudeDegrees>-1.98501773178577423095703125</LongitudeDegrees>
            </Position>
            <AltitudeMeters>194.8000030517578125</AltitudeMeters>
            <DistanceMeters>NAN</DistanceMeters>
          </Trackpoint>
          <Trackpoint>
            <Time>2021-08-13T09:52:41.000Z</Time>
            <Position>
              <LatitudeDegrees>43.17471946589648723602294921875</LatitudeDegrees>
              <LongitudeDegrees>-1.98502535931766033172607421875</LongitudeDegrees>
            </Position>
            <AltitudeMeters>195.1999969482421875</AltitudeMeters>
            <DistanceMeters>NAN</DistanceMeters>
          </Trackpoint>
          <Trackpoint>
            <Time>2021-08-13T09:52:44.000Z</Time>
            <Position>
              <LatitudeDegrees>43.17465978674590587615966796875</LatitudeDegrees>
              <LongitudeDegrees>-1.9850594736635684967041015625</LongitudeDegrees>
            </Position>
            <AltitudeMeters>195.8000030517578125</AltitudeMeters>
            <DistanceMeters>NAN</DistanceMeters>
          </Trackpoint>
          <Trackpoint>
            <Time>2021-08-13T09:52:45.000Z</Time>
            <Position>
              <LatitudeDegrees>43.17463782615959644317626953125</LatitudeDegrees>
              <LongitudeDegrees>-1.98506894521415233612060546875</LongitudeDegrees>
            </Position>
            <AltitudeMeters>196</AltitudeMeters>
            <DistanceMeters>NAN</DistanceMeters>
          </Trackpoint>
          <Trackpoint>
            <Time>2021-08-13T09:52:49.000Z</Time>
            <Position>
              <LatitudeDegrees>43.17453003488481044769287109375</LatitudeDegrees>
              <LongitudeDegrees>-1.9850946776568889617919921875</LongitudeDegrees>
            </Position>
            <AltitudeMeters>197.1999969482421875</AltitudeMeters>
            <DistanceMeters>NAN</DistanceMeters>
          </Trackpoint>
          <Trackpoint>
            <Time>2021-08-13T09:52:50.000Z</Time>
            <Position>
              <LatitudeDegrees>43.1745059788227081298828125</LatitudeDegrees>
              <LongitudeDegrees>-1.98509543202817440032958984375</LongitudeDegrees>
            </Position>
            <AltitudeMeters>197.1999969482421875</AltitudeMeters>
            <DistanceMeters>NAN</DistanceMeters>
          </Trackpoint>
          <Trackpoint>
            <Time>2021-08-13T09:52:51.000Z</Time>
            <Position>
              <LatitudeDegrees>43.17449147813022136688232421875</LatitudeDegrees>
              <LongitudeDegrees>-1.98509643785655498504638671875</LongitudeDegrees>
            </Position>
            <AltitudeMeters>197.399993896484375</AltitudeMeters>
            <DistanceMeters>NAN</DistanceMeters>
          </Trackpoint>
          <Trackpoint>
            <Time>2021-08-13T09:52:52.000Z</Time>
            <Position>
              <LatitudeDegrees>43.17446507513523101806640625</LatitudeDegrees>
              <LongitudeDegrees>-1.985101215541362762451171875</LongitudeDegrees>
            </Position>
            <AltitudeMeters>197.8000030517578125</AltitudeMeters>
            <DistanceMeters>NAN</DistanceMeters>
          </Trackpoint>
          <Trackpoint>
            <Time>2021-08-13T09:52:53.000Z</Time>
            <Position>
              <LatitudeDegrees>43.17443163134157657623291015625</LatitudeDegrees>
              <LongitudeDegrees>-1.9851069152355194091796875</LongitudeDegrees>
            </Position>
            <AltitudeMeters>198.1999969482421875</AltitudeMeters>
            <DistanceMeters>NAN</DistanceMeters>
          </Trackpoint>
          <Trackpoint>
            <Time>2021-08-13T09:52:54.000Z</Time>
            <Position>
              <LatitudeDegrees>43.1743919849395751953125</LatitudeDegrees>
              <LongitudeDegrees>-1.98511521331965923309326171875</LongitudeDegrees>
            </Position>
            <AltitudeMeters>198.1999969482421875</AltitudeMeters>
            <DistanceMeters>NAN</DistanceMeters>
          </Trackpoint>
          <Trackpoint>
            <Time>2021-08-13T09:52:55.000Z</Time>
            <Position>
              <LatitudeDegrees>43.17435242235660552978515625</LatitudeDegrees>
              <LongitudeDegrees>-1.9851208291947841644287109375</LongitudeDegrees>
            </Position>
            <AltitudeMeters>198.399993896484375</AltitudeMeters>
            <DistanceMeters>NAN</DistanceMeters>
          </Trackpoint>
          <Trackpoint>
            <Time>2021-08-13T09:52:56.000Z</Time>
            <Position>
              <LatitudeDegrees>43.17433138377964496612548828125</LatitudeDegrees>
              <LongitudeDegrees>-1.9851214997470378875732421875</LongitudeDegrees>
            </Position>
            <AltitudeMeters>199</AltitudeMeters>
            <DistanceMeters>NAN</DistanceMeters>
          </Trackpoint>
          <Trackpoint>
            <Time>2021-08-13T09:52:57.000Z</Time>
            <Position>
              <LatitudeDegrees>43.17430682480335235595703125</LatitudeDegrees>
              <LongitudeDegrees>-1.98512476868927478790283203125</LongitudeDegrees>
            </Position>
            <AltitudeMeters>199.1999969482421875</AltitudeMeters>
            <DistanceMeters>NAN</DistanceMeters>
          </Trackpoint>
          <Trackpoint>
            <Time>2021-08-13T09:52:58.000Z</Time>
            <Position>
              <LatitudeDegrees>43.174256868660449981689453125</LatitudeDegrees>
              <LongitudeDegrees>-1.9851337373256683349609375</LongitudeDegrees>
            </Position>
            <AltitudeMeters>199.399993896484375</AltitudeMeters>
            <DistanceMeters>NAN</DistanceMeters>
          </Trackpoint>
          <Trackpoint>
            <Time>2021-08-13T09:52:59.000Z</Time>
            <Position>
              <LatitudeDegrees>43.17421873100101947784423828125</LatitudeDegrees>
              <LongitudeDegrees>-1.98513532988727092742919921875</LongitudeDegrees>
            </Position>
            <AltitudeMeters>199.600006103515625</AltitudeMeters>
            <DistanceMeters>NAN</DistanceMeters>
          </Trackpoint>
          <Trackpoint>
            <Time>2021-08-13T09:53:00.000Z</Time>
            <Position>
              <LatitudeDegrees>43.17417807877063751220703125</LatitudeDegrees>
              <LongitudeDegrees>-1.98514136485755443572998046875</LongitudeDegrees>
            </Position>
            <AltitudeMeters>200</AltitudeMeters>
            <DistanceMeters>NAN</DistanceMeters>
          </Trackpoint>
          <Trackpoint>
            <Time>2021-08-13T09:53:01.000Z</Time>
            <Position>
              <LatitudeDegrees>43.1741494126617908477783203125</LatitudeDegrees>
              <LongitudeDegrees>-1.98514957912266254425048828125</LongitudeDegrees>
            </Position>
            <AltitudeMeters>200.399993896484375</AltitudeMeters>
            <DistanceMeters>NAN</DistanceMeters>
          </Trackpoint>
          <Trackpoint>
            <Time>2021-08-13T09:53:02.000Z</Time>
            <Position>
              <LatitudeDegrees>43.17412351258099079132080078125</LatitudeDegrees>
              <LongitudeDegrees>-1.98515712283551692962646484375</LongitudeDegrees>
            </Position>
            <AltitudeMeters>200.600006103515625</AltitudeMeters>
            <DistanceMeters>NAN</DistanceMeters>
          </Trackpoint>
          <Trackpoint>
            <Time>2021-08-13T09:53:03.000Z</Time>
            <Position>
              <LatitudeDegrees>43.17409920506179332733154296875</LatitudeDegrees>
              <LongitudeDegrees>-1.98515184223651885986328125</LongitudeDegrees>
            </Position>
            <AltitudeMeters>201</AltitudeMeters>
            <DistanceMeters>NAN</DistanceMeters>
          </Trackpoint>
          <Trackpoint>
            <Time>2021-08-13T09:53:04.000Z</Time>
            <Position>
              <LatitudeDegrees>43.17408110015094280242919921875</LatitudeDegrees>
              <LongitudeDegrees>-1.98514320887625217437744140625</LongitudeDegrees>
            </Position>
            <AltitudeMeters>201</AltitudeMeters>
            <DistanceMeters>NAN</DistanceMeters>
          </Trackpoint>
          <Trackpoint>
            <Time>2021-08-13T09:53:05.000Z</Time>
            <Position>
              <LatitudeDegrees>43.17406634800136089324951171875</LatitudeDegrees>
              <LongitudeDegrees>-1.98513130657374858856201171875</LongitudeDegrees>
            </Position>
            <AltitudeMeters>201.399993896484375</AltitudeMeters>
            <DistanceMeters>NAN</DistanceMeters>
          </Trackpoint>
          <Trackpoint>
            <Time>2021-08-13T09:53:06.000Z</Time>
            <Position>
              <LatitudeDegrees>43.1740484945476055145263671875</LatitudeDegrees>
              <LongitudeDegrees>-1.9851203262805938720703125</LongitudeDegrees>
            </Position>
            <AltitudeMeters>201.600006103515625</AltitudeMeters>
            <DistanceMeters>NAN</DistanceMeters>
          </Trackpoint>
          <Trackpoint>
            <Time>2021-08-13T09:53:07.000Z</Time>
            <Position>
              <LatitudeDegrees>43.1740204989910125732421875</LatitudeDegrees>
              <LongitudeDegrees>-1.98511722497642040252685546875</LongitudeDegrees>
            </Position>
            <AltitudeMeters>201.8000030517578125</AltitudeMeters>
            <DistanceMeters>NAN</DistanceMeters>
          </Trackpoint>
          <Trackpoint>
            <Time>2021-08-13T09:53:08.000Z</Time>
            <Position>
              <LatitudeDegrees>43.173996023833751678466796875</LatitudeDegrees>
              <LongitudeDegrees>-1.98511705733835697174072265625</LongitudeDegrees>
            </Position>
            <AltitudeMeters>202</AltitudeMeters>
            <DistanceMeters>NAN</DistanceMeters>
          </Trackpoint>
          <Trackpoint>
            <Time>2021-08-13T09:53:09.000Z</Time>
            <Position>
              <LatitudeDegrees>43.17397682927548885345458984375</LatitudeDegrees>
              <LongitudeDegrees>-1.9851154647767543792724609375</LongitudeDegrees>
            </Position>
            <AltitudeMeters>202.399993896484375</AltitudeMeters>
            <DistanceMeters>NAN</DistanceMeters>
          </Trackpoint>
          <Trackpoint>
            <Time>2021-08-13T09:53:10.000Z</Time>
            <Position>
              <LatitudeDegrees>43.17396576516330242156982421875</LatitudeDegrees>
              <LongitudeDegrees>-1.985111944377422332763671875</LongitudeDegrees>
            </Position>
            <AltitudeMeters>202.600006103515625</AltitudeMeters>
            <DistanceMeters>NAN</DistanceMeters>
          </Trackpoint>
          <Trackpoint>
            <Time>2021-08-13T09:53:11.000Z</Time>
            <Position>
              <LatitudeDegrees>43.1739561259746551513671875</LatitudeDegrees>
              <LongitudeDegrees>-1.98510582558810710906982421875</LongitudeDegrees>
            </Position>
            <AltitudeMeters>202.600006103515625</AltitudeMeters>
            <DistanceMeters>NAN</DistanceMeters>
          </Trackpoint>
          <Trackpoint>
            <Time>2021-08-13T09:53:12.000Z</Time>
            <Position>
              <LatitudeDegrees>43.17394229583442211151123046875</LatitudeDegrees>
              <LongitudeDegrees>-1.98509752750396728515625</LongitudeDegrees>
            </Position>
            <AltitudeMeters>202.8000030517578125</AltitudeMeters>
            <DistanceMeters>NAN</DistanceMeters>
          </Trackpoint>
          <Trackpoint>
            <Time>2021-08-13T09:53:13.000Z</Time>
            <Position>
              <LatitudeDegrees>43.173922263085842132568359375</LatitudeDegrees>
              <LongitudeDegrees>-1.98508881032466888427734375</LongitudeDegrees>
            </Position>
            <AltitudeMeters>202.8000030517578125</AltitudeMeters>
            <DistanceMeters>NAN</DistanceMeters>
          </Trackpoint>
          <Trackpoint>
            <Time>2021-08-13T09:53:14.000Z</Time>
            <Position>
              <LatitudeDegrees>43.17390357144176959991455078125</LatitudeDegrees>
              <LongitudeDegrees>-1.9850795902311801910400390625</LongitudeDegrees>
            </Position>
            <AltitudeMeters>203</AltitudeMeters>
            <DistanceMeters>NAN</DistanceMeters>
          </Trackpoint>
          <Trackpoint>
            <Time>2021-08-13T09:53:15.000Z</Time>
            <Position>
              <LatitudeDegrees>43.17388513125479221343994140625</LatitudeDegrees>
              <LongitudeDegrees>-1.9850604794919490814208984375</LongitudeDegrees>
            </Position>
            <AltitudeMeters>203</AltitudeMeters>
            <DistanceMeters>NAN</DistanceMeters>
          </Trackpoint>
          <Trackpoint>
            <Time>2021-08-13T09:53:16.000Z</Time>
            <Position>
              <LatitudeDegrees>43.1738607399165630340576171875</LatitudeDegrees>
              <LongitudeDegrees>-1.98503491468727588653564453125</LongitudeDegrees>
            </Position>
            <AltitudeMeters>203.1999969482421875</AltitudeMeters>
            <DistanceMeters>NAN</DistanceMeters>
          </Trackpoint>
          <Trackpoint>
            <Time>2021-08-13T09:53:17.000Z</Time>
            <Position>
              <LatitudeDegrees>43.17383416928350925445556640625</LatitudeDegrees>
              <LongitudeDegrees>-1.9850038178265094757080078125</LongitudeDegrees>
            </Position>
            <AltitudeMeters>203.1999969482421875</AltitudeMeters>
            <DistanceMeters>NAN</DistanceMeters>
          </Trackpoint>
          <Trackpoint>
            <Time>2021-08-13T09:53:18.000Z</Time>
            <Position>
              <LatitudeDegrees>43.17380650900304317474365234375</LatitudeDegrees>
              <LongitudeDegrees>-1.98496299795806407928466796875</LongitudeDegrees>
            </Position>
            <AltitudeMeters>203.1999969482421875</AltitudeMeters>
            <DistanceMeters>NAN</DistanceMeters>
          </Trackpoint>
          <Trackpoint>
            <Time>2021-08-13T09:53:19.000Z</Time>
            <Position>
              <LatitudeDegrees>43.173780106008052825927734375</LatitudeDegrees>
              <LongitudeDegrees>-1.9849096052348613739013671875</LongitudeDegrees>
            </Position>
            <AltitudeMeters>203.1999969482421875</AltitudeMeters>
            <DistanceMeters>NAN</DistanceMeters>
          </Trackpoint>
          <Trackpoint>
            <Time>2021-08-13T09:53:20.000Z</Time>
            <Position>
              <LatitudeDegrees>43.17375320009887218475341796875</LatitudeDegrees>
              <LongitudeDegrees>-1.98484967462718486785888671875</LongitudeDegrees>
            </Position>
            <AltitudeMeters>203.1999969482421875</AltitudeMeters>
            <DistanceMeters>NAN</DistanceMeters>
          </Trackpoint>
          <Trackpoint>
            <Time>2021-08-13T09:53:21.000Z</Time>
            <Position>
              <LatitudeDegrees>43.1737269647419452667236328125</LatitudeDegrees>
              <LongitudeDegrees>-1.9847942702472209930419921875</LongitudeDegrees>
            </Position>
            <AltitudeMeters>203.1999969482421875</AltitudeMeters>
            <DistanceMeters>NAN</DistanceMeters>
          </Trackpoint>
          <Trackpoint>
            <Time>2021-08-13T09:53:22.000Z</Time>
            <Position>
              <LatitudeDegrees>43.173694275319576263427734375</LatitudeDegrees>
              <LongitudeDegrees>-1.98471522890031337738037109375</LongitudeDegrees>
            </Position>
            <AltitudeMeters>203.1999969482421875</AltitudeMeters>
            <DistanceMeters>NAN</DistanceMeters>
          </Trackpoint>
          <Trackpoint>
            <Time>2021-08-13T09:53:23.000Z</Time>
            <Position>
              <LatitudeDegrees>43.17366150207817554473876953125</LatitudeDegrees>
              <LongitudeDegrees>-1.9846269674599170684814453125</LongitudeDegrees>
            </Position>
            <AltitudeMeters>203</AltitudeMeters>
            <DistanceMeters>NAN</DistanceMeters>
          </Trackpoint>
          <Trackpoint>
            <Time>2021-08-13T09:53:24.000Z</Time>
            <Position>
              <LatitudeDegrees>43.17363090813159942626953125</LatitudeDegrees>
              <LongitudeDegrees>-1.98453736491501331329345703125</LongitudeDegrees>
            </Position>
            <AltitudeMeters>202.1999969482421875</AltitudeMeters>
            <DistanceMeters>NAN</DistanceMeters>
          </Trackpoint>
          <Trackpoint>
            <Time>2021-08-13T09:53:25.000Z</Time>
            <Position>
              <LatitudeDegrees>43.1736009009182453155517578125</LatitudeDegrees>
              <LongitudeDegrees>-1.984451450407505035400390625</LongitudeDegrees>
            </Position>
            <AltitudeMeters>201.8000030517578125</AltitudeMeters>
            <DistanceMeters>NAN</DistanceMeters>
          </Trackpoint>
          <Trackpoint>
            <Time>2021-08-13T09:53:26.000Z</Time>
            <Position>
              <LatitudeDegrees>43.17356812767684459686279296875</LatitudeDegrees>
              <LongitudeDegrees>-1.98436520062386989593505859375</LongitudeDegrees>
            </Position>
            <AltitudeMeters>201.1999969482421875</AltitudeMeters>
            <DistanceMeters>NAN</DistanceMeters>
          </Trackpoint>
          <Trackpoint>
            <Time>2021-08-13T09:53:27.000Z</Time>
            <Position>
              <LatitudeDegrees>43.17353711463510990142822265625</LatitudeDegrees>
              <LongitudeDegrees>-1.984280459582805633544921875</LongitudeDegrees>
            </Position>
            <AltitudeMeters>201</AltitudeMeters>
            <DistanceMeters>NAN</DistanceMeters>
          </Trackpoint>
          <Trackpoint>
            <Time>2021-08-13T09:53:28.000Z</Time>
            <Position>
              <LatitudeDegrees>43.173509538173675537109375</LatitudeDegrees>
              <LongitudeDegrees>-1.98420225642621517181396484375</LongitudeDegrees>
            </Position>
            <AltitudeMeters>200.600006103515625</AltitudeMeters>
            <DistanceMeters>NAN</DistanceMeters>
          </Trackpoint>
          <Trackpoint>
            <Time>2021-08-13T09:53:29.000Z</Time>
            <Position>
              <LatitudeDegrees>43.17349218763411045074462890625</LatitudeDegrees>
              <LongitudeDegrees>-1.9841314293444156646728515625</LongitudeDegrees>
            </Position>
            <AltitudeMeters>200.399993896484375</AltitudeMeters>
            <DistanceMeters>NAN</DistanceMeters>
          </Trackpoint>
          <Trackpoint>
            <Time>2021-08-13T09:53:30.000Z</Time>
            <Position>
              <LatitudeDegrees>43.17348581738770008087158203125</LatitudeDegrees>
              <LongitudeDegrees>-1.984065882861614227294921875</LongitudeDegrees>
            </Position>
            <AltitudeMeters>200.1999969482421875</AltitudeMeters>
            <DistanceMeters>NAN</DistanceMeters>
          </Trackpoint>
          <Trackpoint>
            <Time>2021-08-13T09:53:31.000Z</Time>
            <Position>
              <LatitudeDegrees>43.17349252291023731231689453125</LatitudeDegrees>
              <LongitudeDegrees>-1.98400394059717655181884765625</LongitudeDegrees>
            </Position>
            <AltitudeMeters>200</AltitudeMeters>
            <DistanceMeters>NAN</DistanceMeters>
          </Trackpoint>
          <Trackpoint>
            <Time>2021-08-13T09:53:32.000Z</Time>
            <Position>
              <LatitudeDegrees>43.1735093705356121063232421875</LatitudeDegrees>
              <LongitudeDegrees>-1.98394484817981719970703125</LongitudeDegrees>
            </Position>
            <AltitudeMeters>200</AltitudeMeters>
            <DistanceMeters>NAN</DistanceMeters>
          </Trackpoint>
          <Trackpoint>
            <Time>2021-08-13T09:53:33.000Z</Time>
            <Position>
              <LatitudeDegrees>43.17353476770222187042236328125</LatitudeDegrees>
              <LongitudeDegrees>-1.9838920421898365020751953125</LongitudeDegrees>
            </Position>
            <AltitudeMeters>200</AltitudeMeters>
            <DistanceMeters>NAN</DistanceMeters>
          </Trackpoint>
          <Trackpoint>
            <Time>2021-08-13T09:53:34.000Z</Time>
            <Position>
              <LatitudeDegrees>43.17356997169554233551025390625</LatitudeDegrees>
              <LongitudeDegrees>-1.983849294483661651611328125</LongitudeDegrees>
            </Position>
            <AltitudeMeters>200</AltitudeMeters>
            <DistanceMeters>NAN</DistanceMeters>
          </Trackpoint>
          <Trackpoint>
            <Time>2021-08-13T09:53:35.000Z</Time>
            <Position>
              <LatitudeDegrees>43.1736049242317676544189453125</LatitudeDegrees>
              <LongitudeDegrees>-1.9838132523000240325927734375</LongitudeDegrees>
            </Position>
            <AltitudeMeters>200</AltitudeMeters>
            <DistanceMeters>NAN</DistanceMeters>
          </Trackpoint>
          <Trackpoint>
            <Time>2021-08-13T09:53:36.000Z</Time>
            <Position>
              <LatitudeDegrees>43.173644654452800750732421875</LatitudeDegrees>
              <LongitudeDegrees>-1.98377930559217929840087890625</LongitudeDegrees>
            </Position>
            <AltitudeMeters>200</AltitudeMeters>
            <DistanceMeters>NAN</DistanceMeters>
          </Trackpoint>
          <Trackpoint>
            <Time>2021-08-13T09:53:37.000Z</Time>
            <Position>
              <LatitudeDegrees>43.17366887815296649932861328125</LatitudeDegrees>
              <LongitudeDegrees>-1.9837679900228977203369140625</LongitudeDegrees>
            </Position>
            <AltitudeMeters>200</AltitudeMeters>
            <DistanceMeters>NAN</DistanceMeters>
          </Trackpoint>
          <Trackpoint>
            <Time>2021-08-13T09:53:38.000Z</Time>
            <Position>
              <LatitudeDegrees>43.1737004779279232025146484375</LatitudeDegrees>
              <LongitudeDegrees>-1.98375935666263103485107421875</LongitudeDegrees>
            </Position>
            <AltitudeMeters>200.1999969482421875</AltitudeMeters>
            <DistanceMeters>NAN</DistanceMeters>
          </Trackpoint>
          <Trackpoint>
            <Time>2021-08-13T09:53:39.000Z</Time>
            <Position>
              <LatitudeDegrees>43.1737296469509601593017578125</LatitudeDegrees>
              <LongitudeDegrees>-1.98375700972974300384521484375</LongitudeDegrees>
            </Position>
            <AltitudeMeters>200.1999969482421875</AltitudeMeters>
            <DistanceMeters>NAN</DistanceMeters>
          </Trackpoint>
          <Trackpoint>
            <Time>2021-08-13T09:53:40.000Z</Time>
            <Position>
              <LatitudeDegrees>43.17375353537499904632568359375</LatitudeDegrees>
              <LongitudeDegrees>-1.9837550818920135498046875</LongitudeDegrees>
            </Position>
            <AltitudeMeters>200.399993896484375</AltitudeMeters>
            <DistanceMeters>NAN</DistanceMeters>
          </Trackpoint>
          <Trackpoint>
            <Time>2021-08-13T09:53:41.000Z</Time>
            <Position>
              <LatitudeDegrees>43.17377842962741851806640625</LatitudeDegrees>
              <LongitudeDegrees>-1.9837510585784912109375</LongitudeDegrees>
            </Position>
            <AltitudeMeters>200.399993896484375</AltitudeMeters>
            <DistanceMeters>NAN</DistanceMeters>
          </Trackpoint>
          <Trackpoint>
            <Time>2021-08-13T09:53:42.000Z</Time>
            <Position>
              <LatitudeDegrees>43.173805586993694305419921875</LatitudeDegrees>
              <LongitudeDegrees>-1.9837495498359203338623046875</LongitudeDegrees>
            </Position>
            <AltitudeMeters>200.399993896484375</AltitudeMeters>
            <DistanceMeters>NAN</DistanceMeters>
          </Trackpoint>
          <Trackpoint>
            <Time>2021-08-13T09:53:45.000Z</Time>
            <Position>
              <LatitudeDegrees>43.17388169467449188232421875</LatitudeDegrees>
              <LongitudeDegrees>-1.98377192951738834381103515625</LongitudeDegrees>
            </Position>
            <AltitudeMeters>200.399993896484375</AltitudeMeters>
            <DistanceMeters>NAN</DistanceMeters>
          </Trackpoint>
          <Trackpoint>
            <Time>2021-08-13T09:53:46.000Z</Time>
            <Position>
              <LatitudeDegrees>43.1739023141562938690185546875</LatitudeDegrees>
              <LongitudeDegrees>-1.98378751985728740692138671875</LongitudeDegrees>
            </Position>
            <AltitudeMeters>200.399993896484375</AltitudeMeters>
            <DistanceMeters>NAN</DistanceMeters>
          </Trackpoint>
          <Trackpoint>
            <Time>2021-08-13T09:53:47.000Z</Time>
            <Position>
              <LatitudeDegrees>43.1739321537315845489501953125</LatitudeDegrees>
              <LongitudeDegrees>-1.983799673616886138916015625</LongitudeDegrees>
            </Position>
            <AltitudeMeters>200.399993896484375</AltitudeMeters>
            <DistanceMeters>NAN</DistanceMeters>
          </Trackpoint>
          <Trackpoint>
            <Time>2021-08-13T09:53:48.000Z</Time>
            <Position>
              <LatitudeDegrees>43.17395335994660854339599609375</LatitudeDegrees>
              <LongitudeDegrees>-1.98380327783524990081787109375</LongitudeDegrees>
            </Position>
            <AltitudeMeters>200.600006103515625</AltitudeMeters>
            <DistanceMeters>NAN</DistanceMeters>
          </Trackpoint>
          <Trackpoint>
            <Time>2021-08-13T09:53:49.000Z</Time>
            <Position>
              <LatitudeDegrees>43.17398018203675746917724609375</LatitudeDegrees>
              <LongitudeDegrees>-1.983807049691677093505859375</LongitudeDegrees>
            </Position>
            <AltitudeMeters>200.600006103515625</AltitudeMeters>
            <DistanceMeters>NAN</DistanceMeters>
          </Trackpoint>
          <Trackpoint>
            <Time>2021-08-13T09:53:50.000Z</Time>
            <Position>
              <LatitudeDegrees>43.17400381900370121002197265625</LatitudeDegrees>
              <LongitudeDegrees>-1.98381073772907257080078125</LongitudeDegrees>
            </Position>
            <AltitudeMeters>200.600006103515625</AltitudeMeters>
            <DistanceMeters>NAN</DistanceMeters>
          </Trackpoint>
          <Trackpoint>
            <Time>2021-08-13T09:53:52.000Z</Time>
            <Position>
              <LatitudeDegrees>43.17406701855361461639404296875</LatitudeDegrees>
              <LongitudeDegrees>-1.98382289148867130279541015625</LongitudeDegrees>
            </Position>
            <AltitudeMeters>200.600006103515625</AltitudeMeters>
            <DistanceMeters>NAN</DistanceMeters>
          </Trackpoint>
          <Trackpoint>
            <Time>2021-08-13T09:53:57.000Z</Time>
            <Position>
              <LatitudeDegrees>43.1742882169783115386962890625</LatitudeDegrees>
              <LongitudeDegrees>-1.983829177916049957275390625</LongitudeDegrees>
            </Position>
            <AltitudeMeters>200.399993896484375</AltitudeMeters>
            <DistanceMeters>NAN</DistanceMeters>
          </Trackpoint>
          <Trackpoint>
            <Time>2021-08-13T09:53:58.000Z</Time>
            <Position>
              <LatitudeDegrees>43.17432736046612262725830078125</LatitudeDegrees>
              <LongitudeDegrees>-1.98382473550736904144287109375</LongitudeDegrees>
            </Position>
            <AltitudeMeters>200.399993896484375</AltitudeMeters>
            <DistanceMeters>NAN</DistanceMeters>
          </Trackpoint>
          <Trackpoint>
            <Time>2021-08-13T09:54:00.000Z</Time>
            <Position>
              <LatitudeDegrees>43.17441620863974094390869140625</LatitudeDegrees>
              <LongitudeDegrees>-1.983802355825901031494140625</LongitudeDegrees>
            </Position>
            <AltitudeMeters>200</AltitudeMeters>
            <DistanceMeters>NAN</DistanceMeters>
          </Trackpoint>
          <Trackpoint>
            <Time>2021-08-13T09:54:01.000Z</Time>
            <Position>
              <LatitudeDegrees>43.17446297965943813323974609375</LatitudeDegrees>
              <LongitudeDegrees>-1.98378634639084339141845703125</LongitudeDegrees>
            </Position>
            <AltitudeMeters>199.399993896484375</AltitudeMeters>
            <DistanceMeters>NAN</DistanceMeters>
          </Trackpoint>
          <Trackpoint>
            <Time>2021-08-13T09:54:02.000Z</Time>
            <Position>
              <LatitudeDegrees>43.1745121814310550689697265625</LatitudeDegrees>
              <LongitudeDegrees>-1.98375717736780643463134765625</LongitudeDegrees>
            </Position>
            <AltitudeMeters>199.1999969482421875</AltitudeMeters>
            <DistanceMeters>NAN</DistanceMeters>
          </Trackpoint>
          <Trackpoint>
            <Time>2021-08-13T09:54:04.000Z</Time>
            <Position>
              <LatitudeDegrees>43.1745842657983303070068359375</LatitudeDegrees>
              <LongitudeDegrees>-1.98373957537114620208740234375</LongitudeDegrees>
            </Position>
            <AltitudeMeters>199</AltitudeMeters>
            <DistanceMeters>NAN</DistanceMeters>
          </Trackpoint>
          <Trackpoint>
            <Time>2021-08-13T09:54:05.000Z</Time>
            <Position>
              <LatitudeDegrees>43.17462994717061519622802734375</LatitudeDegrees>
              <LongitudeDegrees>-1.98371811769902706146240234375</LongitudeDegrees>
            </Position>
            <AltitudeMeters>199</AltitudeMeters>
            <DistanceMeters>NAN</DistanceMeters>
          </Trackpoint>
          <Trackpoint>
            <Time>2021-08-13T09:54:06.000Z</Time>
            <Position>
              <LatitudeDegrees>43.17466582171618938446044921875</LatitudeDegrees>
              <LongitudeDegrees>-1.98370051570236682891845703125</LongitudeDegrees>
            </Position>
            <AltitudeMeters>199</AltitudeMeters>
            <DistanceMeters>NAN</DistanceMeters>
          </Trackpoint>
          <Trackpoint>
            <Time>2021-08-13T09:54:07.000Z</Time>
            <Position>
              <LatitudeDegrees>43.1746923923492431640625</LatitudeDegrees>
              <LongitudeDegrees>-1.98368743993341922760009765625</LongitudeDegrees>
            </Position>
            <AltitudeMeters>199</AltitudeMeters>
            <DistanceMeters>NAN</DistanceMeters>
          </Trackpoint>
          <Trackpoint>
            <Time>2021-08-13T09:54:08.000Z</Time>
            <Position>
              <LatitudeDegrees>43.17470991052687168121337890625</LatitudeDegrees>
              <LongitudeDegrees>-1.9836781360208988189697265625</LongitudeDegrees>
            </Position>
            <AltitudeMeters>199</AltitudeMeters>
            <DistanceMeters>NAN</DistanceMeters>
          </Trackpoint>
          <Trackpoint>
            <Time>2021-08-13T09:54:09.000Z</Time>
            <Position>
              <LatitudeDegrees>43.17473321221768856048583984375</LatitudeDegrees>
              <LongitudeDegrees>-1.98366983793675899505615234375</LongitudeDegrees>
            </Position>
            <AltitudeMeters>199</AltitudeMeters>
            <DistanceMeters>NAN</DistanceMeters>
          </Trackpoint>
          <Trackpoint>
            <Time>2021-08-13T09:54:10.000Z</Time>
            <Position>
              <LatitudeDegrees>43.1747522391378879547119140625</LatitudeDegrees>
              <LongitudeDegrees>-1.9836653955280780792236328125</LongitudeDegrees>
            </Position>
            <AltitudeMeters>199</AltitudeMeters>
            <DistanceMeters>NAN</DistanceMeters>
          </Trackpoint>
          <Trackpoint>
            <Time>2021-08-13T09:54:11.000Z</Time>
            <Position>
              <LatitudeDegrees>43.17476757802069187164306640625</LatitudeDegrees>
              <LongitudeDegrees>-1.98366095311939716339111328125</LongitudeDegrees>
            </Position>
            <AltitudeMeters>199</AltitudeMeters>
            <DistanceMeters>NAN</DistanceMeters>
          </Trackpoint>
          <Trackpoint>
            <Time>2021-08-13T09:54:12.000Z</Time>
            <Position>
              <LatitudeDegrees>43.174779899418354034423828125</LatitudeDegrees>
              <LongitudeDegrees>-1.9836533255875110626220703125</LongitudeDegrees>
            </Position>
            <AltitudeMeters>199</AltitudeMeters>
            <DistanceMeters>NAN</DistanceMeters>
          </Trackpoint>
          <Trackpoint>
            <Time>2021-08-13T09:54:13.000Z</Time>
            <Position>
              <LatitudeDegrees>43.17479691468179225921630859375</LatitudeDegrees>
              <LongitudeDegrees>-1.9836436025798320770263671875</LongitudeDegrees>
            </Position>
            <AltitudeMeters>199.1999969482421875</AltitudeMeters>
            <DistanceMeters>NAN</DistanceMeters>
          </Trackpoint>
          <Trackpoint>
            <Time>2021-08-13T09:54:16.000Z</Time>
            <Position>
              <LatitudeDegrees>43.1748746149241924285888671875</LatitudeDegrees>
              <LongitudeDegrees>-1.98362968862056732177734375</LongitudeDegrees>
            </Position>
            <AltitudeMeters>199.1999969482421875</AltitudeMeters>
            <DistanceMeters>NAN</DistanceMeters>
          </Trackpoint>
          <Trackpoint>
            <Time>2021-08-13T09:54:17.000Z</Time>
            <Position>
              <LatitudeDegrees>43.17490470595657825469970703125</LatitudeDegrees>
              <LongitudeDegrees>-1.9836328737437725067138671875</LongitudeDegrees>
            </Position>
            <AltitudeMeters>199.399993896484375</AltitudeMeters>
            <DistanceMeters>NAN</DistanceMeters>
          </Trackpoint>
          <Trackpoint>
            <Time>2021-08-13T09:54:19.000Z</Time>
            <Position>
              <LatitudeDegrees>43.1749684922397136688232421875</LatitudeDegrees>
              <LongitudeDegrees>-1.98362206108868122100830078125</LongitudeDegrees>
            </Position>
            <AltitudeMeters>199.399993896484375</AltitudeMeters>
            <DistanceMeters>NAN</DistanceMeters>
          </Trackpoint>
          <Trackpoint>
            <Time>2021-08-13T09:54:20.000Z</Time>
            <Position>
              <LatitudeDegrees>43.17498684860765933990478515625</LatitudeDegrees>
              <LongitudeDegrees>-1.98360613547265529632568359375</LongitudeDegrees>
            </Position>
            <AltitudeMeters>199.399993896484375</AltitudeMeters>
            <DistanceMeters>NAN</DistanceMeters>
          </Trackpoint>
          <Trackpoint>
            <Time>2021-08-13T09:54:21.000Z</Time>
            <Position>
              <LatitudeDegrees>43.17500612698495388031005859375</LatitudeDegrees>
              <LongitudeDegrees>-1.98359255678951740264892578125</LongitudeDegrees>
            </Position>
            <AltitudeMeters>199.399993896484375</AltitudeMeters>
            <DistanceMeters>NAN</DistanceMeters>
          </Trackpoint>
          <Trackpoint>
            <Time>2021-08-13T09:54:22.000Z</Time>
            <Position>
              <LatitudeDegrees>43.17502205260097980499267578125</LatitudeDegrees>
              <LongitudeDegrees>-1.98358048684895038604736328125</LongitudeDegrees>
            </Position>
            <AltitudeMeters>199.399993896484375</AltitudeMeters>
            <DistanceMeters>NAN</DistanceMeters>
          </Trackpoint>
          <Trackpoint>
            <Time>2021-08-13T09:54:23.000Z</Time>
            <Position>
              <LatitudeDegrees>43.17504032514989376068115234375</LatitudeDegrees>
              <LongitudeDegrees>-1.98356389068067073822021484375</LongitudeDegrees>
            </Position>
            <AltitudeMeters>199.600006103515625</AltitudeMeters>
            <DistanceMeters>NAN</DistanceMeters>
          </Trackpoint>
          <Trackpoint>
            <Time>2021-08-13T09:54:27.000Z</Time>
            <Position>
              <LatitudeDegrees>43.1751250661909580230712890625</LatitudeDegrees>
              <LongitudeDegrees>-1.98346733115613460540771484375</LongitudeDegrees>
            </Position>
            <AltitudeMeters>199.600006103515625</AltitudeMeters>
            <DistanceMeters>NAN</DistanceMeters>
          </Trackpoint>
          <Trackpoint>
            <Time>2021-08-13T09:54:32.000Z</Time>
            <Position>
              <LatitudeDegrees>43.175258003175258636474609375</LatitudeDegrees>
              <LongitudeDegrees>-1.98325359262526035308837890625</LongitudeDegrees>
            </Position>
            <AltitudeMeters>199.399993896484375</AltitudeMeters>
            <DistanceMeters>NAN</DistanceMeters>
          </Trackpoint>
          <Trackpoint>
            <Time>2021-08-13T09:54:33.000Z</Time>
            <Position>
              <LatitudeDegrees>43.17528960295021533966064453125</LatitudeDegrees>
              <LongitudeDegrees>-1.9831971824169158935546875</LongitudeDegrees>
            </Position>
            <AltitudeMeters>199.399993896484375</AltitudeMeters>
            <DistanceMeters>NAN</DistanceMeters>
          </Trackpoint>
          <Trackpoint>
            <Time>2021-08-13T09:54:34.000Z</Time>
            <Position>
              <LatitudeDegrees>43.1753101386129856109619140625</LatitudeDegrees>
              <LongitudeDegrees>-1.983152590692043304443359375</LongitudeDegrees>
            </Position>
            <AltitudeMeters>199.399993896484375</AltitudeMeters>
            <DistanceMeters>NAN</DistanceMeters>
          </Trackpoint>
          <Trackpoint>
            <Time>2021-08-13T09:54:35.000Z</Time>
            <Position>
              <LatitudeDegrees>43.17533008754253387451171875</LatitudeDegrees>
              <LongitudeDegrees>-1.98311336338520050048828125</LongitudeDegrees>
            </Position>
            <AltitudeMeters>199</AltitudeMeters>
            <DistanceMeters>NAN</DistanceMeters>
          </Trackpoint>
          <Trackpoint>
            <Time>2021-08-13T09:54:36.000Z</Time>
            <Position>
              <LatitudeDegrees>43.1753416545689105987548828125</LatitudeDegrees>
              <LongitudeDegrees>-1.98308411054313182830810546875</LongitudeDegrees>
            </Position>
            <AltitudeMeters>198.600006103515625</AltitudeMeters>
            <DistanceMeters>NAN</DistanceMeters>
          </Trackpoint>
          <Trackpoint>
            <Time>2021-08-13T09:54:37.000Z</Time>
            <Position>
              <LatitudeDegrees>43.17534542642533779144287109375</LatitudeDegrees>
              <LongitudeDegrees>-1.98304220102727413177490234375</LongitudeDegrees>
            </Position>
            <AltitudeMeters>198.1999969482421875</AltitudeMeters>
            <DistanceMeters>NAN</DistanceMeters>
          </Trackpoint>
          <Trackpoint>
            <Time>2021-08-13T09:54:38.000Z</Time>
            <Position>
              <LatitudeDegrees>43.17533654160797595977783203125</LatitudeDegrees>
              <LongitudeDegrees>-1.98300347663462162017822265625</LongitudeDegrees>
            </Position>
            <AltitudeMeters>198</AltitudeMeters>
            <DistanceMeters>NAN</DistanceMeters>
          </Trackpoint>
          <Trackpoint>
            <Time>2021-08-13T09:54:39.000Z</Time>
            <Position>
              <LatitudeDegrees>43.17532598040997982025146484375</LatitudeDegrees>
              <LongitudeDegrees>-1.9829784147441387176513671875</LongitudeDegrees>
            </Position>
            <AltitudeMeters>197.600006103515625</AltitudeMeters>
            <DistanceMeters>NAN</DistanceMeters>
          </Trackpoint>
          <Trackpoint>
            <Time>2021-08-13T09:54:40.000Z</Time>
            <Position>
              <LatitudeDegrees>43.17531676031649112701416015625</LatitudeDegrees>
              <LongitudeDegrees>-1.98296726681292057037353515625</LongitudeDegrees>
            </Position>
            <AltitudeMeters>197.399993896484375</AltitudeMeters>
            <DistanceMeters>NAN</DistanceMeters>
          </Trackpoint>
          <Trackpoint>
            <Time>2021-08-13T09:54:41.000Z</Time>
            <Position>
              <LatitudeDegrees>43.17530804313719272613525390625</LatitudeDegrees>
              <LongitudeDegrees>-1.9829515926539897918701171875</LongitudeDegrees>
            </Position>
            <AltitudeMeters>197</AltitudeMeters>
            <DistanceMeters>NAN</DistanceMeters>
          </Trackpoint>
          <Trackpoint>
            <Time>2021-08-13T09:54:42.000Z</Time>
            <Position>
              <LatitudeDegrees>43.17531173117458820343017578125</LatitudeDegrees>
              <LongitudeDegrees>-1.98293440975248813629150390625</LongitudeDegrees>
            </Position>
            <AltitudeMeters>196.8000030517578125</AltitudeMeters>
            <DistanceMeters>NAN</DistanceMeters>
          </Trackpoint>
          <Trackpoint>
            <Time>2021-08-13T09:54:43.000Z</Time>
            <Position>
              <LatitudeDegrees>43.17532011307775974273681640625</LatitudeDegrees>
              <LongitudeDegrees>-1.982923932373523712158203125</LongitudeDegrees>
            </Position>
            <AltitudeMeters>196.600006103515625</AltitudeMeters>
            <DistanceMeters>NAN</DistanceMeters>
          </Trackpoint>
          <Trackpoint>
            <Time>2021-08-13T09:54:44.000Z</Time>
            <Position>
              <LatitudeDegrees>43.17533075809478759765625</LatitudeDegrees>
              <LongitudeDegrees>-1.98292401619255542755126953125</LongitudeDegrees>
            </Position>
            <AltitudeMeters>196.600006103515625</AltitudeMeters>
            <DistanceMeters>NAN</DistanceMeters>
          </Trackpoint>
          <Trackpoint>
            <Time>2021-08-13T09:54:46.000Z</Time>
            <Position>
              <LatitudeDegrees>43.1753678061068058013916015625</LatitudeDegrees>
              <LongitudeDegrees>-1.98292829096317291259765625</LongitudeDegrees>
            </Position>
            <AltitudeMeters>196.399993896484375</AltitudeMeters>
            <DistanceMeters>NAN</DistanceMeters>
          </Trackpoint>
          <Trackpoint>
            <Time>2021-08-13T09:54:48.000Z</Time>
            <Position>
              <LatitudeDegrees>43.17540812306106090545654296875</LatitudeDegrees>
              <LongitudeDegrees>-1.98288395069539546966552734375</LongitudeDegrees>
            </Position>
            <AltitudeMeters>196.399993896484375</AltitudeMeters>
            <DistanceMeters>NAN</DistanceMeters>
          </Trackpoint>
          <Trackpoint>
            <Time>2021-08-13T09:54:53.000Z</Time>
            <Position>
              <LatitudeDegrees>43.17545087076723575592041015625</LatitudeDegrees>
              <LongitudeDegrees>-1.98267071507871150970458984375</LongitudeDegrees>
            </Position>
            <AltitudeMeters>196</AltitudeMeters>
            <DistanceMeters>NAN</DistanceMeters>
          </Trackpoint>
          <Trackpoint>
            <Time>2021-08-13T09:54:54.000Z</Time>
            <Position>
              <LatitudeDegrees>43.1754546426236629486083984375</LatitudeDegrees>
              <LongitudeDegrees>-1.982637941837310791015625</LongitudeDegrees>
            </Position>
            <AltitudeMeters>196</AltitudeMeters>
            <DistanceMeters>NAN</DistanceMeters>
          </Trackpoint>
          <Trackpoint>
            <Time>2021-08-13T09:54:55.000Z</Time>
            <Position>
              <LatitudeDegrees>43.175456821918487548828125</LatitudeDegrees>
              <LongitudeDegrees>-1.98261187411844730377197265625</LongitudeDegrees>
            </Position>
            <AltitudeMeters>196</AltitudeMeters>
            <DistanceMeters>NAN</DistanceMeters>
          </Trackpoint>
          <Trackpoint>
            <Time>2021-08-13T09:54:56.000Z</Time>
            <Position>
              <LatitudeDegrees>43.1754596717655658721923828125</LatitudeDegrees>
              <LongitudeDegrees>-1.98258874006569385528564453125</LongitudeDegrees>
            </Position>
            <AltitudeMeters>196</AltitudeMeters>
            <DistanceMeters>NAN</DistanceMeters>
          </Trackpoint>
          <Trackpoint>
            <Time>2021-08-13T09:54:57.000Z</Time>
            <Position>
              <LatitudeDegrees>43.17546143196523189544677734375</LatitudeDegrees>
              <LongitudeDegrees>-1.98256677947938442230224609375</LongitudeDegrees>
            </Position>
            <AltitudeMeters>195.8000030517578125</AltitudeMeters>
            <DistanceMeters>NAN</DistanceMeters>
          </Trackpoint>
          <Trackpoint>
            <Time>2021-08-13T09:54:58.000Z</Time>
            <Position>
              <LatitudeDegrees>43.1754603423178195953369140625</LatitudeDegrees>
              <LongitudeDegrees>-1.982541382312774658203125</LongitudeDegrees>
            </Position>
            <AltitudeMeters>195.600006103515625</AltitudeMeters>
            <DistanceMeters>NAN</DistanceMeters>
          </Trackpoint>
          <Trackpoint>
            <Time>2021-08-13T09:54:59.000Z</Time>
            <Position>
              <LatitudeDegrees>43.1754566542804241180419921875</LatitudeDegrees>
              <LongitudeDegrees>-1.9825157336890697479248046875</LongitudeDegrees>
            </Position>
            <AltitudeMeters>195.600006103515625</AltitudeMeters>
            <DistanceMeters>NAN</DistanceMeters>
          </Trackpoint>
          <Trackpoint>
            <Time>2021-08-13T09:55:03.000Z</Time>
            <Position>
              <LatitudeDegrees>43.1754512898623943328857421875</LatitudeDegrees>
              <LongitudeDegrees>-1.98238916695117950439453125</LongitudeDegrees>
            </Position>
            <AltitudeMeters>195.600006103515625</AltitudeMeters>
            <DistanceMeters>NAN</DistanceMeters>
          </Trackpoint>
          <Trackpoint>
            <Time>2021-08-13T09:55:04.000Z</Time>
            <Position>
              <LatitudeDegrees>43.1754573248326778411865234375</LatitudeDegrees>
              <LongitudeDegrees>-1.98236326687037944793701171875</LongitudeDegrees>
            </Position>
            <AltitudeMeters>195.8000030517578125</AltitudeMeters>
            <DistanceMeters>NAN</DistanceMeters>
          </Trackpoint>
          <Trackpoint>
            <Time>2021-08-13T09:55:05.000Z</Time>
            <Position>
              <LatitudeDegrees>43.17545606754720211029052734375</LatitudeDegrees>
              <LongitudeDegrees>-1.98233493603765964508056640625</LongitudeDegrees>
            </Position>
            <AltitudeMeters>195.8000030517578125</AltitudeMeters>
            <DistanceMeters>NAN</DistanceMeters>
          </Trackpoint>
          <Trackpoint>
            <Time>2021-08-13T09:55:06.000Z</Time>
            <Position>
              <LatitudeDegrees>43.175453133881092071533203125</LatitudeDegrees>
              <LongitudeDegrees>-1.98230409063398838043212890625</LongitudeDegrees>
            </Position>
            <AltitudeMeters>196</AltitudeMeters>
            <DistanceMeters>NAN</DistanceMeters>
          </Trackpoint>
          <Trackpoint>
            <Time>2021-08-13T09:55:07.000Z</Time>
            <Position>
              <LatitudeDegrees>43.17545271478593349456787109375</LatitudeDegrees>
              <LongitudeDegrees>-1.98227584362030029296875</LongitudeDegrees>
            </Position>
            <AltitudeMeters>196.1999969482421875</AltitudeMeters>
            <DistanceMeters>NAN</DistanceMeters>
          </Trackpoint>
          <Trackpoint>
            <Time>2021-08-13T09:55:09.000Z</Time>
            <Position>
              <LatitudeDegrees>43.1754486076533794403076171875</LatitudeDegrees>
              <LongitudeDegrees>-1.98223301209509372711181640625</LongitudeDegrees>
            </Position>
            <AltitudeMeters>196.8000030517578125</AltitudeMeters>
            <DistanceMeters>NAN</DistanceMeters>
          </Trackpoint>
          <Trackpoint>
            <Time>2021-08-13T09:55:10.000Z</Time>
            <Position>
              <LatitudeDegrees>43.17544366233050823211669921875</LatitudeDegrees>
              <LongitudeDegrees>-1.98221071623265743255615234375</LongitudeDegrees>
            </Position>
            <AltitudeMeters>197</AltitudeMeters>
            <DistanceMeters>NAN</DistanceMeters>
          </Trackpoint>
          <Trackpoint>
            <Time>2021-08-13T09:55:11.000Z</Time>
            <Position>
              <LatitudeDegrees>43.17544332705438137054443359375</LatitudeDegrees>
              <LongitudeDegrees>-1.982186324894428253173828125</LongitudeDegrees>
            </Position>
            <AltitudeMeters>197.600006103515625</AltitudeMeters>
            <DistanceMeters>NAN</DistanceMeters>
          </Trackpoint>
          <Trackpoint>
            <Time>2021-08-13T09:55:12.000Z</Time>
            <Position>
              <LatitudeDegrees>43.1754393875598907470703125</LatitudeDegrees>
              <LongitudeDegrees>-1.98216176591813564300537109375</LongitudeDegrees>
            </Position>
            <AltitudeMeters>197.8000030517578125</AltitudeMeters>
            <DistanceMeters>NAN</DistanceMeters>
          </Trackpoint>
          <Trackpoint>
            <Time>2021-08-13T09:55:13.000Z</Time>
            <Position>
              <LatitudeDegrees>43.17543779499828815460205078125</LatitudeDegrees>
              <LongitudeDegrees>-1.9821351952850818634033203125</LongitudeDegrees>
            </Position>
            <AltitudeMeters>198</AltitudeMeters>
            <DistanceMeters>NAN</DistanceMeters>
          </Trackpoint>
          <Trackpoint>
            <Time>2021-08-13T09:55:14.000Z</Time>
            <Position>
              <LatitudeDegrees>43.17543695680797100067138671875</LatitudeDegrees>
              <LongitudeDegrees>-1.98211180977523326873779296875</LongitudeDegrees>
            </Position>
            <AltitudeMeters>198.1999969482421875</AltitudeMeters>
            <DistanceMeters>NAN</DistanceMeters>
          </Trackpoint>
          <Trackpoint>
            <Time>2021-08-13T09:55:15.000Z</Time>
            <Position>
              <LatitudeDegrees>43.17543469369411468505859375</LatitudeDegrees>
              <LongitudeDegrees>-1.98208901099860668182373046875</LongitudeDegrees>
            </Position>
            <AltitudeMeters>198.399993896484375</AltitudeMeters>
            <DistanceMeters>NAN</DistanceMeters>
          </Trackpoint>
          <Trackpoint>
            <Time>2021-08-13T09:55:16.000Z</Time>
            <Position>
              <LatitudeDegrees>43.17543067038059234619140625</LatitudeDegrees>
              <LongitudeDegrees>-1.9820684753358364105224609375</LongitudeDegrees>
            </Position>
            <AltitudeMeters>198.600006103515625</AltitudeMeters>
            <DistanceMeters>NAN</DistanceMeters>
          </Trackpoint>
          <Trackpoint>
            <Time>2021-08-13T09:55:17.000Z</Time>
            <Position>
              <LatitudeDegrees>43.1754232943058013916015625</LatitudeDegrees>
              <LongitudeDegrees>-1.9820465147495269775390625</LongitudeDegrees>
            </Position>
            <AltitudeMeters>198.8000030517578125</AltitudeMeters>
            <DistanceMeters>NAN</DistanceMeters>
          </Trackpoint>
          <Trackpoint>
            <Time>2021-08-13T09:55:20.000Z</Time>
            <Position>
              <LatitudeDegrees>43.1753993220627307891845703125</LatitudeDegrees>
              <LongitudeDegrees>-1.98198205791413784027099609375</LongitudeDegrees>
            </Position>
            <AltitudeMeters>200</AltitudeMeters>
            <DistanceMeters>NAN</DistanceMeters>
          </Trackpoint>
          <Trackpoint>
            <Time>2021-08-13T09:55:21.000Z</Time>
            <Position>
              <LatitudeDegrees>43.17538507282733917236328125</LatitudeDegrees>
              <LongitudeDegrees>-1.98196764104068279266357421875</LongitudeDegrees>
            </Position>
            <AltitudeMeters>200.399993896484375</AltitudeMeters>
            <DistanceMeters>NAN</DistanceMeters>
          </Trackpoint>
          <Trackpoint>
            <Time>2021-08-13T09:55:22.000Z</Time>
            <Position>
              <LatitudeDegrees>43.1753735058009624481201171875</LatitudeDegrees>
              <LongitudeDegrees>-1.981948949396610260009765625</LongitudeDegrees>
            </Position>
            <AltitudeMeters>200.600006103515625</AltitudeMeters>
            <DistanceMeters>NAN</DistanceMeters>
          </Trackpoint>
          <Trackpoint>
            <Time>2021-08-13T09:55:23.000Z</Time>
            <Position>
              <LatitudeDegrees>43.17536788992583751678466796875</LatitudeDegrees>
              <LongitudeDegrees>-1.981932185590267181396484375</LongitudeDegrees>
            </Position>
            <AltitudeMeters>201</AltitudeMeters>
            <DistanceMeters>NAN</DistanceMeters>
          </Trackpoint>
          <Trackpoint>
            <Time>2021-08-13T09:55:24.000Z</Time>
            <Position>
              <LatitudeDegrees>43.1753580830991268157958984375</LatitudeDegrees>
              <LongitudeDegrees>-1.98191843926906585693359375</LongitudeDegrees>
            </Position>
            <AltitudeMeters>201</AltitudeMeters>
            <DistanceMeters>NAN</DistanceMeters>
          </Trackpoint>
          <Trackpoint>
            <Time>2021-08-13T09:55:25.000Z</Time>
            <Position>
              <LatitudeDegrees>43.1753483600914478302001953125</LatitudeDegrees>
              <LongitudeDegrees>-1.98190142400562763214111328125</LongitudeDegrees>
            </Position>
            <AltitudeMeters>201</AltitudeMeters>
            <DistanceMeters>NAN</DistanceMeters>
          </Trackpoint>
          <Trackpoint>
            <Time>2021-08-13T09:55:26.000Z</Time>
            <Position>
              <LatitudeDegrees>43.17533805035054683685302734375</LatitudeDegrees>
              <LongitudeDegrees>-1.98188382200896739959716796875</LongitudeDegrees>
            </Position>
            <AltitudeMeters>201.1999969482421875</AltitudeMeters>
            <DistanceMeters>NAN</DistanceMeters>
          </Trackpoint>
          <Trackpoint>
            <Time>2021-08-13T09:55:27.000Z</Time>
            <Position>
              <LatitudeDegrees>43.1753222085535526275634765625</LatitudeDegrees>
              <LongitudeDegrees>-1.981865800917148590087890625</LongitudeDegrees>
            </Position>
            <AltitudeMeters>201.600006103515625</AltitudeMeters>
            <DistanceMeters>NAN</DistanceMeters>
          </Trackpoint>
          <Trackpoint>
            <Time>2021-08-13T09:55:28.000Z</Time>
            <Position>
              <LatitudeDegrees>43.17531106062233448028564453125</LatitudeDegrees>
              <LongitudeDegrees>-1.98184912092983722686767578125</LongitudeDegrees>
            </Position>
            <AltitudeMeters>202</AltitudeMeters>
            <DistanceMeters>NAN</DistanceMeters>
          </Trackpoint>
          <Trackpoint>
            <Time>2021-08-13T09:55:29.000Z</Time>
            <Position>
              <LatitudeDegrees>43.17529832012951374053955078125</LatitudeDegrees>
              <LongitudeDegrees>-1.981830596923828125</LongitudeDegrees>
            </Position>
            <AltitudeMeters>202.399993896484375</AltitudeMeters>
            <DistanceMeters>NAN</DistanceMeters>
          </Trackpoint>
          <Trackpoint>
            <Time>2021-08-13T09:55:30.000Z</Time>
            <Position>
              <LatitudeDegrees>43.1752836517989635467529296875</LatitudeDegrees>
              <LongitudeDegrees>-1.9818116538226604461669921875</LongitudeDegrees>
            </Position>
            <AltitudeMeters>202.600006103515625</AltitudeMeters>
            <DistanceMeters>NAN</DistanceMeters>
          </Trackpoint>
          <Trackpoint>
            <Time>2021-08-13T09:55:31.000Z</Time>
            <Position>
              <LatitudeDegrees>43.17525305785238742828369140625</LatitudeDegrees>
              <LongitudeDegrees>-1.981790363788604736328125</LongitudeDegrees>
            </Position>
            <AltitudeMeters>202.600006103515625</AltitudeMeters>
            <DistanceMeters>NAN</DistanceMeters>
          </Trackpoint>
          <Trackpoint>
            <Time>2021-08-13T09:55:32.000Z</Time>
            <Position>
              <LatitudeDegrees>43.175235204398632049560546875</LatitudeDegrees>
              <LongitudeDegrees>-1.98177225887775421142578125</LongitudeDegrees>
            </Position>
            <AltitudeMeters>202.8000030517578125</AltitudeMeters>
            <DistanceMeters>NAN</DistanceMeters>
          </Trackpoint>
          <Trackpoint>
            <Time>2021-08-13T09:55:33.000Z</Time>
            <Position>
              <LatitudeDegrees>43.17522204481065273284912109375</LatitudeDegrees>
              <LongitudeDegrees>-1.98175390250980854034423828125</LongitudeDegrees>
            </Position>
            <AltitudeMeters>202.8000030517578125</AltitudeMeters>
            <DistanceMeters>NAN</DistanceMeters>
          </Trackpoint>
          <Trackpoint>
            <Time>2021-08-13T09:55:34.000Z</Time>
            <Position>
              <LatitudeDegrees>43.17521885968744754791259765625</LatitudeDegrees>
              <LongitudeDegrees>-1.9817338697612285614013671875</LongitudeDegrees>
            </Position>
            <AltitudeMeters>203</AltitudeMeters>
            <DistanceMeters>NAN</DistanceMeters>
          </Trackpoint>
          <Trackpoint>
            <Time>2021-08-13T09:55:35.000Z</Time>
            <Position>
              <LatitudeDegrees>43.175197653472423553466796875</LatitudeDegrees>
              <LongitudeDegrees>-1.9817100651562213897705078125</LongitudeDegrees>
            </Position>
            <AltitudeMeters>203.1999969482421875</AltitudeMeters>
            <DistanceMeters>NAN</DistanceMeters>
          </Trackpoint>
          <Trackpoint>
            <Time>2021-08-13T09:55:36.000Z</Time>
            <Position>
              <LatitudeDegrees>43.17517778836190700531005859375</LatitudeDegrees>
              <LongitudeDegrees>-1.98168651200830936431884765625</LongitudeDegrees>
            </Position>
            <AltitudeMeters>203.399993896484375</AltitudeMeters>
            <DistanceMeters>NAN</DistanceMeters>
          </Trackpoint>
          <Trackpoint>
            <Time>2021-08-13T09:55:37.000Z</Time>
            <Position>
              <LatitudeDegrees>43.17517309449613094329833984375</LatitudeDegrees>
              <LongitudeDegrees>-1.98165717534720897674560546875</LongitudeDegrees>
            </Position>
            <AltitudeMeters>203.399993896484375</AltitudeMeters>
            <DistanceMeters>NAN</DistanceMeters>
          </Trackpoint>
          <Trackpoint>
            <Time>2021-08-13T09:55:38.000Z</Time>
            <Position>
              <LatitudeDegrees>43.17518214695155620574951171875</LatitudeDegrees>
              <LongitudeDegrees>-1.98162968270480632781982421875</LongitudeDegrees>
            </Position>
            <AltitudeMeters>203.600006103515625</AltitudeMeters>
            <DistanceMeters>NAN</DistanceMeters>
          </Trackpoint>
          <Trackpoint>
            <Time>2021-08-13T09:55:39.000Z</Time>
            <Position>
              <LatitudeDegrees>43.175178878009319305419921875</LatitudeDegrees>
              <LongitudeDegrees>-1.98160571046173572540283203125</LongitudeDegrees>
            </Position>
            <AltitudeMeters>203.600006103515625</AltitudeMeters>
            <DistanceMeters>NAN</DistanceMeters>
          </Trackpoint>
          <Trackpoint>
            <Time>2021-08-13T09:55:40.000Z</Time>
            <Position>
              <LatitudeDegrees>43.17516940645873546600341796875</LatitudeDegrees>
              <LongitudeDegrees>-1.98158408515155315399169921875</LongitudeDegrees>
            </Position>
            <AltitudeMeters>203.600006103515625</AltitudeMeters>
            <DistanceMeters>NAN</DistanceMeters>
          </Trackpoint>
          <Trackpoint>
            <Time>2021-08-13T09:55:41.000Z</Time>
            <Position>
              <LatitudeDegrees>43.1751552410423755645751953125</LatitudeDegrees>
              <LongitudeDegrees>-1.9815655611455440521240234375</LongitudeDegrees>
            </Position>
            <AltitudeMeters>203.600006103515625</AltitudeMeters>
            <DistanceMeters>NAN</DistanceMeters>
          </Trackpoint>
          <Trackpoint>
            <Time>2021-08-13T09:55:42.000Z</Time>
            <Position>
              <LatitudeDegrees>43.17513755522668361663818359375</LatitudeDegrees>
              <LongitudeDegrees>-1.98154628276824951171875</LongitudeDegrees>
            </Position>
            <AltitudeMeters>203.8000030517578125</AltitudeMeters>
            <DistanceMeters>NAN</DistanceMeters>
          </Trackpoint>
          <Trackpoint>
            <Time>2021-08-13T09:55:43.000Z</Time>
            <Position>
              <LatitudeDegrees>43.17511492408812046051025390625</LatitudeDegrees>
              <LongitudeDegrees>-1.98152340017259120941162109375</LongitudeDegrees>
            </Position>
            <AltitudeMeters>203.8000030517578125</AltitudeMeters>
            <DistanceMeters>NAN</DistanceMeters>
          </Trackpoint>
          <Trackpoint>
            <Time>2021-08-13T09:55:44.000Z</Time>
            <Position>
              <LatitudeDegrees>43.1751000881195068359375</LatitudeDegrees>
              <LongitudeDegrees>-1.9815112464129924774169921875</LongitudeDegrees>
            </Position>
            <AltitudeMeters>203.8000030517578125</AltitudeMeters>
            <DistanceMeters>NAN</DistanceMeters>
          </Trackpoint>
          <Trackpoint>
            <Time>2021-08-13T09:55:45.000Z</Time>
            <Position>
              <LatitudeDegrees>43.1750834919512271881103515625</LatitudeDegrees>
              <LongitudeDegrees>-1.98149657808244228363037109375</LongitudeDegrees>
            </Position>
            <AltitudeMeters>203.8000030517578125</AltitudeMeters>
            <DistanceMeters>NAN</DistanceMeters>
          </Trackpoint>
          <Trackpoint>
            <Time>2021-08-13T09:55:46.000Z</Time>
            <Position>
              <LatitudeDegrees>43.175067901611328125</LatitudeDegrees>
              <LongitudeDegrees>-1.9814787246286869049072265625</LongitudeDegrees>
            </Position>
            <AltitudeMeters>203.8000030517578125</AltitudeMeters>
            <DistanceMeters>NAN</DistanceMeters>
          </Trackpoint>
          <Trackpoint>
            <Time>2021-08-13T09:55:47.000Z</Time>
            <Position>
              <LatitudeDegrees>43.1750573404133319854736328125</LatitudeDegrees>
              <LongitudeDegrees>-1.98145978152751922607421875</LongitudeDegrees>
            </Position>
            <AltitudeMeters>203.8000030517578125</AltitudeMeters>
            <DistanceMeters>NAN</DistanceMeters>
          </Trackpoint>
          <Trackpoint>
            <Time>2021-08-13T09:55:48.000Z</Time>
            <Position>
              <LatitudeDegrees>43.1750432588160037994384765625</LatitudeDegrees>
              <LongitudeDegrees>-1.981443352997303009033203125</LongitudeDegrees>
            </Position>
            <AltitudeMeters>204</AltitudeMeters>
            <DistanceMeters>NAN</DistanceMeters>
          </Trackpoint>
          <Trackpoint>
            <Time>2021-08-13T09:55:49.000Z</Time>
            <Position>
              <LatitudeDegrees>43.17502607591450214385986328125</LatitudeDegrees>
              <LongitudeDegrees>-1.98142717592418193817138671875</LongitudeDegrees>
            </Position>
            <AltitudeMeters>204</AltitudeMeters>
            <DistanceMeters>NAN</DistanceMeters>
          </Trackpoint>
          <Trackpoint>
            <Time>2021-08-13T09:55:50.000Z</Time>
            <Position>
              <LatitudeDegrees>43.175007216632366180419921875</LatitudeDegrees>
              <LongitudeDegrees>-1.98140756227076053619384765625</LongitudeDegrees>
            </Position>
            <AltitudeMeters>204</AltitudeMeters>
            <DistanceMeters>NAN</DistanceMeters>
          </Trackpoint>
          <Trackpoint>
            <Time>2021-08-13T09:55:51.000Z</Time>
            <Position>
              <LatitudeDegrees>43.174985088407993316650390625</LatitudeDegrees>
              <LongitudeDegrees>-1.98138459585607051849365234375</LongitudeDegrees>
            </Position>
            <AltitudeMeters>204</AltitudeMeters>
            <DistanceMeters>NAN</DistanceMeters>
          </Trackpoint>
          <Trackpoint>
            <Time>2021-08-13T09:55:52.000Z</Time>
            <Position>
              <LatitudeDegrees>43.174956254661083221435546875</LatitudeDegrees>
              <LongitudeDegrees>-1.98135693557560443878173828125</LongitudeDegrees>
            </Position>
            <AltitudeMeters>203.8000030517578125</AltitudeMeters>
            <DistanceMeters>NAN</DistanceMeters>
          </Trackpoint>
          <Trackpoint>
            <Time>2021-08-13T09:55:53.000Z</Time>
            <Position>
              <LatitudeDegrees>43.17493789829313755035400390625</LatitudeDegrees>
              <LongitudeDegrees>-1.9813288561999797821044921875</LongitudeDegrees>
            </Position>
            <AltitudeMeters>203.8000030517578125</AltitudeMeters>
            <DistanceMeters>NAN</DistanceMeters>
          </Trackpoint>
          <Trackpoint>
            <Time>2021-08-13T09:55:54.000Z</Time>
            <Position>
              <LatitudeDegrees>43.174928091466426849365234375</LatitudeDegrees>
              <LongitudeDegrees>-1.98129340074956417083740234375</LongitudeDegrees>
            </Position>
            <AltitudeMeters>204</AltitudeMeters>
            <DistanceMeters>NAN</DistanceMeters>
          </Trackpoint>
          <Trackpoint>
            <Time>2021-08-13T09:55:55.000Z</Time>
            <Position>
              <LatitudeDegrees>43.17491426132619380950927734375</LatitudeDegrees>
              <LongitudeDegrees>-1.981265656650066375732421875</LongitudeDegrees>
            </Position>
            <AltitudeMeters>204</AltitudeMeters>
            <DistanceMeters>NAN</DistanceMeters>
          </Trackpoint>
          <Trackpoint>
            <Time>2021-08-13T09:55:56.000Z</Time>
            <Position>
              <LatitudeDegrees>43.17490093410015106201171875</LatitudeDegrees>
              <LongitudeDegrees>-1.9812349788844585418701171875</LongitudeDegrees>
            </Position>
            <AltitudeMeters>204</AltitudeMeters>
            <DistanceMeters>NAN</DistanceMeters>
          </Trackpoint>
          <Trackpoint>
            <Time>2021-08-13T09:55:57.000Z</Time>
            <Position>
              <LatitudeDegrees>43.174880482256412506103515625</LatitudeDegrees>
              <LongitudeDegrees>-1.98120689950883388519287109375</LongitudeDegrees>
            </Position>
            <AltitudeMeters>204</AltitudeMeters>
            <DistanceMeters>NAN</DistanceMeters>
          </Trackpoint>
          <Trackpoint>
            <Time>2021-08-13T09:56:00.000Z</Time>
            <Position>
              <LatitudeDegrees>43.17482650279998779296875</LatitudeDegrees>
              <LongitudeDegrees>-1.98112710379064083099365234375</LongitudeDegrees>
            </Position>
            <AltitudeMeters>204</AltitudeMeters>
            <DistanceMeters>NAN</DistanceMeters>
          </Trackpoint>
          <Trackpoint>
            <Time>2021-08-13T09:56:02.000Z</Time>
            <Position>
              <LatitudeDegrees>43.174788616597652435302734375</LatitudeDegrees>
              <LongitudeDegrees>-1.98106491006910800933837890625</LongitudeDegrees>
            </Position>
            <AltitudeMeters>204.399993896484375</AltitudeMeters>
            <DistanceMeters>NAN</DistanceMeters>
          </Trackpoint>
          <Trackpoint>
            <Time>2021-08-13T09:56:03.000Z</Time>
            <Position>
              <LatitudeDegrees>43.17476875148713588714599609375</LatitudeDegrees>
              <LongitudeDegrees>-1.981038339436054229736328125</LongitudeDegrees>
            </Position>
            <AltitudeMeters>204.399993896484375</AltitudeMeters>
            <DistanceMeters>NAN</DistanceMeters>
          </Trackpoint>
          <Trackpoint>
            <Time>2021-08-13T09:56:04.000Z</Time>
            <Position>
              <LatitudeDegrees>43.17474477924406528472900390625</LatitudeDegrees>
              <LongitudeDegrees>-1.98100984096527099609375</LongitudeDegrees>
            </Position>
            <AltitudeMeters>204.399993896484375</AltitudeMeters>
            <DistanceMeters>NAN</DistanceMeters>
          </Trackpoint>
          <Trackpoint>
            <Time>2021-08-13T09:56:05.000Z</Time>
            <Position>
              <LatitudeDegrees>43.1747312843799591064453125</LatitudeDegrees>
              <LongitudeDegrees>-1.98098276741802692413330078125</LongitudeDegrees>
            </Position>
            <AltitudeMeters>204.399993896484375</AltitudeMeters>
            <DistanceMeters>NAN</DistanceMeters>
          </Trackpoint>
          <Trackpoint>
            <Time>2021-08-13T09:56:09.000Z</Time>
            <Position>
              <LatitudeDegrees>43.1746506504714488983154296875</LatitudeDegrees>
              <LongitudeDegrees>-1.9808896444737911224365234375</LongitudeDegrees>
            </Position>
            <AltitudeMeters>204.600006103515625</AltitudeMeters>
            <DistanceMeters>NAN</DistanceMeters>
          </Trackpoint>
          <Trackpoint>
            <Time>2021-08-13T09:56:10.000Z</Time>
            <Position>
              <LatitudeDegrees>43.174647130072116851806640625</LatitudeDegrees>
              <LongitudeDegrees>-1.9808574579656124114990234375</LongitudeDegrees>
            </Position>
            <AltitudeMeters>204.600006103515625</AltitudeMeters>
            <DistanceMeters>NAN</DistanceMeters>
          </Trackpoint>
          <Trackpoint>
            <Time>2021-08-13T09:56:11.000Z</Time>
            <Position>
              <LatitudeDegrees>43.17463078536093235015869140625</LatitudeDegrees>
              <LongitudeDegrees>-1.9808336533606052398681640625</LongitudeDegrees>
            </Position>
            <AltitudeMeters>204.600006103515625</AltitudeMeters>
            <DistanceMeters>NAN</DistanceMeters>
          </Trackpoint>
          <Trackpoint>
            <Time>2021-08-13T09:56:12.000Z</Time>
            <Position>
              <LatitudeDegrees>43.1746387481689453125</LatitudeDegrees>
              <LongitudeDegrees>-1.9808021374046802520751953125</LongitudeDegrees>
            </Position>
            <AltitudeMeters>204.600006103515625</AltitudeMeters>
            <DistanceMeters>NAN</DistanceMeters>
          </Trackpoint>
          <Trackpoint>
            <Time>2021-08-13T09:56:13.000Z</Time>
            <Position>
              <LatitudeDegrees>43.1746427714824676513671875</LatitudeDegrees>
              <LongitudeDegrees>-1.98076483793556690216064453125</LongitudeDegrees>
            </Position>
            <AltitudeMeters>204.600006103515625</AltitudeMeters>
            <DistanceMeters>NAN</DistanceMeters>
          </Trackpoint>
          <Trackpoint>
            <Time>2021-08-13T09:56:14.000Z</Time>
            <Position>
              <LatitudeDegrees>43.17464411258697509765625</LatitudeDegrees>
              <LongitudeDegrees>-1.9807334057986736297607421875</LongitudeDegrees>
            </Position>
            <AltitudeMeters>204.8000030517578125</AltitudeMeters>
            <DistanceMeters>NAN</DistanceMeters>
          </Trackpoint>
          <Trackpoint>
            <Time>2021-08-13T09:56:17.000Z</Time>
            <Position>
              <LatitudeDegrees>43.1746486388146877288818359375</LatitudeDegrees>
              <LongitudeDegrees>-1.98060910217463970184326171875</LongitudeDegrees>
            </Position>
            <AltitudeMeters>205</AltitudeMeters>
            <DistanceMeters>NAN</DistanceMeters>
          </Trackpoint>
          <Trackpoint>
            <Time>2021-08-13T09:56:18.000Z</Time>
            <Position>
              <LatitudeDegrees>43.17463329993188381195068359375</LatitudeDegrees>
              <LongitudeDegrees>-1.98056928813457489013671875</LongitudeDegrees>
            </Position>
            <AltitudeMeters>205</AltitudeMeters>
            <DistanceMeters>NAN</DistanceMeters>
          </Trackpoint>
          <Trackpoint>
            <Time>2021-08-13T09:56:19.000Z</Time>
            <Position>
              <LatitudeDegrees>43.1746144406497478485107421875</LatitudeDegrees>
              <LongitudeDegrees>-1.9805310666561126708984375</LongitudeDegrees>
            </Position>
            <AltitudeMeters>205</AltitudeMeters>
            <DistanceMeters>NAN</DistanceMeters>
          </Trackpoint>
          <Trackpoint>
            <Time>2021-08-13T09:56:20.000Z</Time>
            <Position>
              <LatitudeDegrees>43.17459641955792903900146484375</LatitudeDegrees>
              <LongitudeDegrees>-1.98050080798566341400146484375</LongitudeDegrees>
            </Position>
            <AltitudeMeters>205</AltitudeMeters>
            <DistanceMeters>NAN</DistanceMeters>
          </Trackpoint>
          <Trackpoint>
            <Time>2021-08-13T09:56:21.000Z</Time>
            <Position>
              <LatitudeDegrees>43.17457864992320537567138671875</LatitudeDegrees>
              <LongitudeDegrees>-1.9804695434868335723876953125</LongitudeDegrees>
            </Position>
            <AltitudeMeters>205</AltitudeMeters>
            <DistanceMeters>NAN</DistanceMeters>
          </Trackpoint>
          <Trackpoint>
            <Time>2021-08-13T09:56:22.000Z</Time>
            <Position>
              <LatitudeDegrees>43.17455585114657878875732421875</LatitudeDegrees>
              <LongitudeDegrees>-1.98043660260736942291259765625</LongitudeDegrees>
            </Position>
            <AltitudeMeters>205.1999969482421875</AltitudeMeters>
            <DistanceMeters>NAN</DistanceMeters>
          </Trackpoint>
          <Trackpoint>
            <Time>2021-08-13T09:56:26.000Z</Time>
            <Position>
              <LatitudeDegrees>43.174448311328887939453125</LatitudeDegrees>
              <LongitudeDegrees>-1.9803397916257381439208984375</LongitudeDegrees>
            </Position>
            <AltitudeMeters>205.399993896484375</AltitudeMeters>
            <DistanceMeters>NAN</DistanceMeters>
          </Trackpoint>
          <Trackpoint>
            <Time>2021-08-13T09:56:27.000Z</Time>
            <Position>
              <LatitudeDegrees>43.17443850450217723846435546875</LatitudeDegrees>
              <LongitudeDegrees>-1.98032797314226627349853515625</LongitudeDegrees>
            </Position>
            <AltitudeMeters>205.399993896484375</AltitudeMeters>
            <DistanceMeters>NAN</DistanceMeters>
          </Trackpoint>
          <Trackpoint>
            <Time>2021-08-13T09:56:28.000Z</Time>
            <Position>
              <LatitudeDegrees>43.17443632520735263824462890625</LatitudeDegrees>
              <LongitudeDegrees>-1.980331242084503173828125</LongitudeDegrees>
            </Position>
            <AltitudeMeters>205.600006103515625</AltitudeMeters>
            <DistanceMeters>NAN</DistanceMeters>
          </Trackpoint>
          <Trackpoint>
            <Time>2021-08-13T09:56:29.000Z</Time>
            <Position>
              <LatitudeDegrees>43.1744377501308917999267578125</LatitudeDegrees>
              <LongitudeDegrees>-1.98033015243709087371826171875</LongitudeDegrees>
            </Position>
            <AltitudeMeters>205.600006103515625</AltitudeMeters>
            <DistanceMeters>NAN</DistanceMeters>
          </Trackpoint>
          <Trackpoint>
            <Time>2021-08-13T09:56:30.000Z</Time>
            <Position>
              <LatitudeDegrees>43.17443749867379665374755859375</LatitudeDegrees>
              <LongitudeDegrees>-1.980352364480495452880859375</LongitudeDegrees>
            </Position>
            <AltitudeMeters>205.8000030517578125</AltitudeMeters>
            <DistanceMeters>NAN</DistanceMeters>
          </Trackpoint>
          <Trackpoint>
            <Time>2021-08-13T09:56:57.000Z</Time>
            <Position>
              <LatitudeDegrees>43.17480328492820262908935546875</LatitudeDegrees>
              <LongitudeDegrees>-1.9788786582648754119873046875</LongitudeDegrees>
            </Position>
            <AltitudeMeters>208.1999969482421875</AltitudeMeters>
            <DistanceMeters>NAN</DistanceMeters>
          </Trackpoint>
          <Trackpoint>
            <Time>2021-08-13T09:56:58.000Z</Time>
            <Position>
              <LatitudeDegrees>43.1748397462069988250732421875</LatitudeDegrees>
              <LongitudeDegrees>-1.978859044611454010009765625</LongitudeDegrees>
            </Position>
            <AltitudeMeters>208.1999969482421875</AltitudeMeters>
            <DistanceMeters>NAN</DistanceMeters>
          </Trackpoint>
          <Trackpoint>
            <Time>2021-08-13T09:57:00.000Z</Time>
            <Position>
              <LatitudeDegrees>43.174843601882457733154296875</LatitudeDegrees>
              <LongitudeDegrees>-1.9787941686809062957763671875</LongitudeDegrees>
            </Position>
            <AltitudeMeters>208.399993896484375</AltitudeMeters>
            <DistanceMeters>NAN</DistanceMeters>
          </Trackpoint>
          <Trackpoint>
            <Time>2021-08-13T09:57:01.000Z</Time>
            <Position>
              <LatitudeDegrees>43.174848966300487518310546875</LatitudeDegrees>
              <LongitudeDegrees>-1.97877212427556514739990234375</LongitudeDegrees>
            </Position>
            <AltitudeMeters>208.399993896484375</AltitudeMeters>
            <DistanceMeters>NAN</DistanceMeters>
          </Trackpoint>
          <Trackpoint>
            <Time>2021-08-13T09:57:02.000Z</Time>
            <Position>
              <LatitudeDegrees>43.1748615391552448272705078125</LatitudeDegrees>
              <LongitudeDegrees>-1.97873759083449840545654296875</LongitudeDegrees>
            </Position>
            <AltitudeMeters>208.399993896484375</AltitudeMeters>
            <DistanceMeters>NAN</DistanceMeters>
          </Trackpoint>
          <Trackpoint>
            <Time>2021-08-13T09:57:03.000Z</Time>
            <Position>
              <LatitudeDegrees>43.1748732738196849822998046875</LatitudeDegrees>
              <LongitudeDegrees>-1.97870573960244655609130859375</LongitudeDegrees>
            </Position>
            <AltitudeMeters>208.399993896484375</AltitudeMeters>
            <DistanceMeters>NAN</DistanceMeters>
          </Trackpoint>
          <Trackpoint>
            <Time>2021-08-13T09:57:04.000Z</Time>
            <Position>
              <LatitudeDegrees>43.1748870201408863067626953125</LatitudeDegrees>
              <LongitudeDegrees>-1.9786617346107959747314453125</LongitudeDegrees>
            </Position>
            <AltitudeMeters>208.399993896484375</AltitudeMeters>
            <DistanceMeters>NAN</DistanceMeters>
          </Trackpoint>
          <Trackpoint>
            <Time>2021-08-13T09:57:05.000Z</Time>
            <Position>
              <LatitudeDegrees>43.17489531822502613067626953125</LatitudeDegrees>
              <LongitudeDegrees>-1.9786225073039531707763671875</LongitudeDegrees>
            </Position>
            <AltitudeMeters>208.399993896484375</AltitudeMeters>
            <DistanceMeters>NAN</DistanceMeters>
          </Trackpoint>
          <Trackpoint>
            <Time>2021-08-13T09:57:06.000Z</Time>
            <Position>
              <LatitudeDegrees>43.17489934153854846954345703125</LatitudeDegrees>
              <LongitudeDegrees>-1.978577412664890289306640625</LongitudeDegrees>
            </Position>
            <AltitudeMeters>208.399993896484375</AltitudeMeters>
            <DistanceMeters>NAN</DistanceMeters>
          </Trackpoint>
          <Trackpoint>
            <Time>2021-08-13T09:57:07.000Z</Time>
            <Position>
              <LatitudeDegrees>43.17489950917661190032958984375</LatitudeDegrees>
              <LongitudeDegrees>-1.9785380177199840545654296875</LongitudeDegrees>
            </Position>
            <AltitudeMeters>208.399993896484375</AltitudeMeters>
            <DistanceMeters>NAN</DistanceMeters>
          </Trackpoint>
          <Trackpoint>
            <Time>2021-08-13T09:57:08.000Z</Time>
            <Position>
              <LatitudeDegrees>43.174902610480785369873046875</LatitudeDegrees>
              <LongitudeDegrees>-1.97849929332733154296875</LongitudeDegrees>
            </Position>
            <AltitudeMeters>208.600006103515625</AltitudeMeters>
            <DistanceMeters>NAN</DistanceMeters>
          </Trackpoint>
          <Trackpoint>
            <Time>2021-08-13T09:57:09.000Z</Time>
            <Position>
              <LatitudeDegrees>43.174903281033039093017578125</LatitudeDegrees>
              <LongitudeDegrees>-1.97846107184886932373046875</LongitudeDegrees>
            </Position>
            <AltitudeMeters>208.600006103515625</AltitudeMeters>
            <DistanceMeters>NAN</DistanceMeters>
          </Trackpoint>
          <Trackpoint>
            <Time>2021-08-13T09:57:10.000Z</Time>
            <Position>
              <LatitudeDegrees>43.174902610480785369873046875</LatitudeDegrees>
              <LongitudeDegrees>-1.978421844542026519775390625</LongitudeDegrees>
            </Position>
            <AltitudeMeters>208.399993896484375</AltitudeMeters>
            <DistanceMeters>NAN</DistanceMeters>
          </Trackpoint>
          <Trackpoint>
            <Time>2021-08-13T09:57:11.000Z</Time>
            <Position>
              <LatitudeDegrees>43.174904622137546539306640625</LatitudeDegrees>
              <LongitudeDegrees>-1.97837968356907367706298828125</LongitudeDegrees>
            </Position>
            <AltitudeMeters>208.399993896484375</AltitudeMeters>
            <DistanceMeters>NAN</DistanceMeters>
          </Trackpoint>
          <Trackpoint>
            <Time>2021-08-13T09:57:12.000Z</Time>
            <Position>
              <LatitudeDegrees>43.17490587942302227020263671875</LatitudeDegrees>
              <LongitudeDegrees>-1.978345401585102081298828125</LongitudeDegrees>
            </Position>
            <AltitudeMeters>208.600006103515625</AltitudeMeters>
            <DistanceMeters>NAN</DistanceMeters>
          </Trackpoint>
          <Trackpoint>
            <Time>2021-08-13T09:57:13.000Z</Time>
            <Position>
              <LatitudeDegrees>43.17490520887076854705810546875</LatitudeDegrees>
              <LongitudeDegrees>-1.97832637466490268707275390625</LongitudeDegrees>
            </Position>
            <AltitudeMeters>208.600006103515625</AltitudeMeters>
            <DistanceMeters>NAN</DistanceMeters>
          </Trackpoint>
          <Trackpoint>
            <Time>2021-08-13T09:57:14.000Z</Time>
            <Position>
              <LatitudeDegrees>43.1749041192233562469482421875</LatitudeDegrees>
              <LongitudeDegrees>-1.97830961085855960845947265625</LongitudeDegrees>
            </Position>
            <AltitudeMeters>208.600006103515625</AltitudeMeters>
            <DistanceMeters>NAN</DistanceMeters>
          </Trackpoint>
          <Trackpoint>
            <Time>2021-08-13T09:57:15.000Z</Time>
            <Position>
              <LatitudeDegrees>43.17490093410015106201171875</LatitudeDegrees>
              <LongitudeDegrees>-1.97829217649996280670166015625</LongitudeDegrees>
            </Position>
            <AltitudeMeters>208.8000030517578125</AltitudeMeters>
            <DistanceMeters>NAN</DistanceMeters>
          </Trackpoint>
          <Trackpoint>
            <Time>2021-08-13T09:57:16.000Z</Time>
            <Position>
              <LatitudeDegrees>43.17489682696759700775146484375</LatitudeDegrees>
              <LongitudeDegrees>-1.97826870717108249664306640625</LongitudeDegrees>
            </Position>
            <AltitudeMeters>208.8000030517578125</AltitudeMeters>
            <DistanceMeters>NAN</DistanceMeters>
          </Trackpoint>
          <Trackpoint>
            <Time>2021-08-13T09:57:17.000Z</Time>
            <Position>
              <LatitudeDegrees>43.1748975813388824462890625</LatitudeDegrees>
              <LongitudeDegrees>-1.97825320065021514892578125</LongitudeDegrees>
            </Position>
            <AltitudeMeters>208.8000030517578125</AltitudeMeters>
            <DistanceMeters>NAN</DistanceMeters>
          </Trackpoint>
          <Trackpoint>
            <Time>2021-08-13T09:57:18.000Z</Time>
            <Position>
              <LatitudeDegrees>43.17489531822502613067626953125</LatitudeDegrees>
              <LongitudeDegrees>-1.9782406277954578399658203125</LongitudeDegrees>
            </Position>
            <AltitudeMeters>208.600006103515625</AltitudeMeters>
            <DistanceMeters>NAN</DistanceMeters>
          </Trackpoint>
          <Trackpoint>
            <Time>2021-08-13T09:57:19.000Z</Time>
            <Position>
              <LatitudeDegrees>43.17489347420632839202880859375</LatitudeDegrees>
              <LongitudeDegrees>-1.9782309047877788543701171875</LongitudeDegrees>
            </Position>
            <AltitudeMeters>208.8000030517578125</AltitudeMeters>
            <DistanceMeters>NAN</DistanceMeters>
          </Trackpoint>
          <Trackpoint>
            <Time>2021-08-13T09:57:20.000Z</Time>
            <Position>
              <LatitudeDegrees>43.17489414475858211517333984375</LatitudeDegrees>
              <LongitudeDegrees>-1.9782127998769283294677734375</LongitudeDegrees>
            </Position>
            <AltitudeMeters>208.8000030517578125</AltitudeMeters>
            <DistanceMeters>NAN</DistanceMeters>
          </Trackpoint>
          <Trackpoint>
            <Time>2021-08-13T09:57:21.000Z</Time>
            <Position>
              <LatitudeDegrees>43.1748829968273639678955078125</LatitudeDegrees>
              <LongitudeDegrees>-1.9781814515590667724609375</LongitudeDegrees>
            </Position>
            <AltitudeMeters>208.8000030517578125</AltitudeMeters>
            <DistanceMeters>NAN</DistanceMeters>
          </Trackpoint>
          <Trackpoint>
            <Time>2021-08-13T09:57:22.000Z</Time>
            <Position>
              <LatitudeDegrees>43.1748627126216888427734375</LatitudeDegrees>
              <LongitudeDegrees>-1.97815488092601299285888671875</LongitudeDegrees>
            </Position>
            <AltitudeMeters>208.8000030517578125</AltitudeMeters>
            <DistanceMeters>NAN</DistanceMeters>
          </Trackpoint>
          <Trackpoint>
            <Time>2021-08-13T09:57:23.000Z</Time>
            <Position>
              <LatitudeDegrees>43.17484083585441112518310546875</LatitudeDegrees>
              <LongitudeDegrees>-1.9781226105988025665283203125</LongitudeDegrees>
            </Position>
            <AltitudeMeters>208.8000030517578125</AltitudeMeters>
            <DistanceMeters>NAN</DistanceMeters>
          </Trackpoint>
          <Trackpoint>
            <Time>2021-08-13T09:57:24.000Z</Time>
            <Position>
              <LatitudeDegrees>43.17482315003871917724609375</LatitudeDegrees>
              <LongitudeDegrees>-1.97808086872100830078125</LongitudeDegrees>
            </Position>
            <AltitudeMeters>209</AltitudeMeters>
            <DistanceMeters>NAN</DistanceMeters>
          </Trackpoint>
          <Trackpoint>
            <Time>2021-08-13T09:57:25.000Z</Time>
            <Position>
              <LatitudeDegrees>43.1748090684413909912109375</LatitudeDegrees>
              <LongitudeDegrees>-1.97804843075573444366455078125</LongitudeDegrees>
            </Position>
            <AltitudeMeters>209</AltitudeMeters>
            <DistanceMeters>NAN</DistanceMeters>
          </Trackpoint>
          <Trackpoint>
            <Time>2021-08-13T09:57:26.000Z</Time>
            <Position>
              <LatitudeDegrees>43.17477730102837085723876953125</LatitudeDegrees>
              <LongitudeDegrees>-1.9780044257640838623046875</LongitudeDegrees>
            </Position>
            <AltitudeMeters>209.1999969482421875</AltitudeMeters>
            <DistanceMeters>NAN</DistanceMeters>
          </Trackpoint>
          <Trackpoint>
            <Time>2021-08-13T09:57:27.000Z</Time>
            <Position>
              <LatitudeDegrees>43.17474226467311382293701171875</LatitudeDegrees>
              <LongitudeDegrees>-1.977967880666255950927734375</LongitudeDegrees>
            </Position>
            <AltitudeMeters>209.399993896484375</AltitudeMeters>
            <DistanceMeters>NAN</DistanceMeters>
          </Trackpoint>
          <Trackpoint>
            <Time>2021-08-13T09:57:29.000Z</Time>
            <Position>
              <LatitudeDegrees>43.17467973567545413970947265625</LatitudeDegrees>
              <LongitudeDegrees>-1.977901160717010498046875</LongitudeDegrees>
            </Position>
            <AltitudeMeters>209.399993896484375</AltitudeMeters>
            <DistanceMeters>NAN</DistanceMeters>
          </Trackpoint>
          <Trackpoint>
            <Time>2021-08-13T09:57:30.000Z</Time>
            <Position>
              <LatitudeDegrees>43.17464721389114856719970703125</LatitudeDegrees>
              <LongitudeDegrees>-1.9778617657721042633056640625</LongitudeDegrees>
            </Position>
            <AltitudeMeters>209.600006103515625</AltitudeMeters>
            <DistanceMeters>NAN</DistanceMeters>
          </Trackpoint>
          <Trackpoint>
            <Time>2021-08-13T09:57:31.000Z</Time>
            <Position>
              <LatitudeDegrees>43.17461921833455562591552734375</LatitudeDegrees>
              <LongitudeDegrees>-1.9778302498161792755126953125</LongitudeDegrees>
            </Position>
            <AltitudeMeters>209.8000030517578125</AltitudeMeters>
            <DistanceMeters>NAN</DistanceMeters>
          </Trackpoint>
          <Trackpoint>
            <Time>2021-08-13T09:57:32.000Z</Time>
            <Position>
              <LatitudeDegrees>43.17458686418831348419189453125</LatitudeDegrees>
              <LongitudeDegrees>-1.97779454290866851806640625</LongitudeDegrees>
            </Position>
            <AltitudeMeters>209.8000030517578125</AltitudeMeters>
            <DistanceMeters>NAN</DistanceMeters>
          </Trackpoint>
          <Trackpoint>
            <Time>2021-08-13T09:57:34.000Z</Time>
            <Position>
              <LatitudeDegrees>43.17453858442604541778564453125</LatitudeDegrees>
              <LongitudeDegrees>-1.9777373783290386199951171875</LongitudeDegrees>
            </Position>
            <AltitudeMeters>209.8000030517578125</AltitudeMeters>
            <DistanceMeters>NAN</DistanceMeters>
          </Trackpoint>
          <Trackpoint>
            <Time>2021-08-13T09:57:37.000Z</Time>
            <Position>
              <LatitudeDegrees>43.17442643456161022186279296875</LatitudeDegrees>
              <LongitudeDegrees>-1.977680213749408721923828125</LongitudeDegrees>
            </Position>
            <AltitudeMeters>210</AltitudeMeters>
            <DistanceMeters>NAN</DistanceMeters>
          </Trackpoint>
          <Trackpoint>
            <Time>2021-08-13T09:57:38.000Z</Time>
            <Position>
              <LatitudeDegrees>43.17439508624374866485595703125</LatitudeDegrees>
              <LongitudeDegrees>-1.97765414603054523468017578125</LongitudeDegrees>
            </Position>
            <AltitudeMeters>210.399993896484375</AltitudeMeters>
            <DistanceMeters>NAN</DistanceMeters>
          </Trackpoint>
          <Trackpoint>
            <Time>2021-08-13T09:57:39.000Z</Time>
            <Position>
              <LatitudeDegrees>43.17436340264976024627685546875</LatitudeDegrees>
              <LongitudeDegrees>-1.97762279771268367767333984375</LongitudeDegrees>
            </Position>
            <AltitudeMeters>210.399993896484375</AltitudeMeters>
            <DistanceMeters>NAN</DistanceMeters>
          </Trackpoint>
          <Trackpoint>
            <Time>2021-08-13T09:57:40.000Z</Time>
            <Position>
              <LatitudeDegrees>43.17433389835059642791748046875</LatitudeDegrees>
              <LongitudeDegrees>-1.97759346105158329010009765625</LongitudeDegrees>
            </Position>
            <AltitudeMeters>210.600006103515625</AltitudeMeters>
            <DistanceMeters>NAN</DistanceMeters>
          </Trackpoint>
          <Trackpoint>
            <Time>2021-08-13T09:57:46.000Z</Time>
            <Position>
              <LatitudeDegrees>43.17416332662105560302734375</LatitudeDegrees>
              <LongitudeDegrees>-1.9774399884045124053955078125</LongitudeDegrees>
            </Position>
            <AltitudeMeters>211</AltitudeMeters>
            <DistanceMeters>NAN</DistanceMeters>
          </Trackpoint>
          <Trackpoint>
            <Time>2021-08-13T09:57:48.000Z</Time>
            <Position>
              <LatitudeDegrees>43.17411395721137523651123046875</LatitudeDegrees>
              <LongitudeDegrees>-1.97738290764391422271728515625</LongitudeDegrees>
            </Position>
            <AltitudeMeters>211</AltitudeMeters>
            <DistanceMeters>NAN</DistanceMeters>
          </Trackpoint>
          <Trackpoint>
            <Time>2021-08-13T09:57:49.000Z</Time>
            <Position>
              <LatitudeDegrees>43.17409090697765350341796875</LatitudeDegrees>
              <LongitudeDegrees>-1.977354325354099273681640625</LongitudeDegrees>
            </Position>
            <AltitudeMeters>211</AltitudeMeters>
            <DistanceMeters>NAN</DistanceMeters>
          </Trackpoint>
          <Trackpoint>
            <Time>2021-08-13T09:57:50.000Z</Time>
            <Position>
              <LatitudeDegrees>43.1740619055926799774169921875</LatitudeDegrees>
              <LongitudeDegrees>-1.97732448577880859375</LongitudeDegrees>
            </Position>
            <AltitudeMeters>211.1999969482421875</AltitudeMeters>
            <DistanceMeters>NAN</DistanceMeters>
          </Trackpoint>
          <Trackpoint>
            <Time>2021-08-13T09:57:51.000Z</Time>
            <Position>
              <LatitudeDegrees>43.1740307249128818511962890625</LatitudeDegrees>
              <LongitudeDegrees>-1.97729188017547130584716796875</LongitudeDegrees>
            </Position>
            <AltitudeMeters>211.1999969482421875</AltitudeMeters>
            <DistanceMeters>NAN</DistanceMeters>
          </Trackpoint>
          <Trackpoint>
            <Time>2021-08-13T09:57:52.000Z</Time>
            <Position>
              <LatitudeDegrees>43.17400549538433551788330078125</LatitudeDegrees>
              <LongitudeDegrees>-1.977268159389495849609375</LongitudeDegrees>
            </Position>
            <AltitudeMeters>211.1999969482421875</AltitudeMeters>
            <DistanceMeters>NAN</DistanceMeters>
          </Trackpoint>
          <Trackpoint>
            <Time>2021-08-13T09:57:53.000Z</Time>
            <Position>
              <LatitudeDegrees>43.1739787571132183074951171875</LatitudeDegrees>
              <LongitudeDegrees>-1.97724544443190097808837890625</LongitudeDegrees>
            </Position>
            <AltitudeMeters>211.399993896484375</AltitudeMeters>
            <DistanceMeters>NAN</DistanceMeters>
          </Trackpoint>
          <Trackpoint>
            <Time>2021-08-13T09:57:54.000Z</Time>
            <Position>
              <LatitudeDegrees>43.173951096832752227783203125</LatitudeDegrees>
              <LongitudeDegrees>-1.97722214274108409881591796875</LongitudeDegrees>
            </Position>
            <AltitudeMeters>211.399993896484375</AltitudeMeters>
            <DistanceMeters>NAN</DistanceMeters>
          </Trackpoint>
          <Trackpoint>
            <Time>2021-08-13T09:57:55.000Z</Time>
            <Position>
              <LatitudeDegrees>43.173930980265140533447265625</LatitudeDegrees>
              <LongitudeDegrees>-1.9772083126008510589599609375</LongitudeDegrees>
            </Position>
            <AltitudeMeters>211.399993896484375</AltitudeMeters>
            <DistanceMeters>NAN</DistanceMeters>
          </Trackpoint>
          <Trackpoint>
            <Time>2021-08-13T09:57:56.000Z</Time>
            <Position>
              <LatitudeDegrees>43.1739254482090473175048828125</LatitudeDegrees>
              <LongitudeDegrees>-1.97720588184893131256103515625</LongitudeDegrees>
            </Position>
            <AltitudeMeters>211.600006103515625</AltitudeMeters>
            <DistanceMeters>NAN</DistanceMeters>
          </Trackpoint>
          <Trackpoint>
            <Time>2021-08-13T09:58:02.000Z</Time>
            <Position>
              <LatitudeDegrees>43.1739254482090473175048828125</LatitudeDegrees>
              <LongitudeDegrees>-1.97720588184893131256103515625</LongitudeDegrees>
            </Position>
            <AltitudeMeters>211.600006103515625</AltitudeMeters>
            <DistanceMeters>NAN</DistanceMeters>
          </Trackpoint>
          <Trackpoint>
            <Time>2021-08-13T09:58:17.000Z</Time>
            <Position>
              <LatitudeDegrees>43.1739254482090473175048828125</LatitudeDegrees>
              <LongitudeDegrees>-1.97720588184893131256103515625</LongitudeDegrees>
            </Position>
            <AltitudeMeters>211.1999969482421875</AltitudeMeters>
            <DistanceMeters>NAN</DistanceMeters>
          </Trackpoint>
          <Trackpoint>
            <Time>2021-08-13T09:58:20.000Z</Time>
            <Position>
              <LatitudeDegrees>43.17390591837465763092041015625</LatitudeDegrees>
              <LongitudeDegrees>-1.97718610055744647979736328125</LongitudeDegrees>
            </Position>
            <AltitudeMeters>211.1999969482421875</AltitudeMeters>
            <DistanceMeters>NAN</DistanceMeters>
          </Trackpoint>
          <Trackpoint>
            <Time>2021-08-13T09:58:21.000Z</Time>
            <Position>
              <LatitudeDegrees>43.17389334551990032196044921875</LatitudeDegrees>
              <LongitudeDegrees>-1.97716916911303997039794921875</LongitudeDegrees>
            </Position>
            <AltitudeMeters>211.1999969482421875</AltitudeMeters>
            <DistanceMeters>NAN</DistanceMeters>
          </Trackpoint>
          <Trackpoint>
            <Time>2021-08-13T09:58:22.000Z</Time>
            <Position>
              <LatitudeDegrees>43.17388194613158702850341796875</LatitudeDegrees>
              <LongitudeDegrees>-1.9771543331444263458251953125</LongitudeDegrees>
            </Position>
            <AltitudeMeters>211.1999969482421875</AltitudeMeters>
            <DistanceMeters>NAN</DistanceMeters>
          </Trackpoint>
          <Trackpoint>
            <Time>2021-08-13T09:58:27.000Z</Time>
            <Position>
              <LatitudeDegrees>43.17376543767750263214111328125</LatitudeDegrees>
              <LongitudeDegrees>-1.97703908197581768035888671875</LongitudeDegrees>
            </Position>
            <AltitudeMeters>211.1999969482421875</AltitudeMeters>
            <DistanceMeters>NAN</DistanceMeters>
          </Trackpoint>
          <Trackpoint>
            <Time>2021-08-13T09:58:31.000Z</Time>
            <Position>
              <LatitudeDegrees>43.17365169525146484375</LatitudeDegrees>
              <LongitudeDegrees>-1.97690765373408794403076171875</LongitudeDegrees>
            </Position>
            <AltitudeMeters>211.399993896484375</AltitudeMeters>
            <DistanceMeters>NAN</DistanceMeters>
          </Trackpoint>
          <Trackpoint>
            <Time>2021-08-13T09:58:32.000Z</Time>
            <Position>
              <LatitudeDegrees>43.17362579517066478729248046875</LatitudeDegrees>
              <LongitudeDegrees>-1.97687923908233642578125</LongitudeDegrees>
            </Position>
            <AltitudeMeters>211.399993896484375</AltitudeMeters>
            <DistanceMeters>NAN</DistanceMeters>
          </Trackpoint>
          <Trackpoint>
            <Time>2021-08-13T09:58:33.000Z</Time>
            <Position>
              <LatitudeDegrees>43.17360282875597476959228515625</LatitudeDegrees>
              <LongitudeDegrees>-1.97685199789702892303466796875</LongitudeDegrees>
            </Position>
            <AltitudeMeters>211.399993896484375</AltitudeMeters>
            <DistanceMeters>NAN</DistanceMeters>
          </Trackpoint>
          <Trackpoint>
            <Time>2021-08-13T09:58:34.000Z</Time>
            <Position>
              <LatitudeDegrees>43.173582293093204498291015625</LatitudeDegrees>
              <LongitudeDegrees>-1.97682115249335765838623046875</LongitudeDegrees>
            </Position>
            <AltitudeMeters>211.399993896484375</AltitudeMeters>
            <DistanceMeters>NAN</DistanceMeters>
          </Trackpoint>
          <Trackpoint>
            <Time>2021-08-13T09:58:35.000Z</Time>
            <Position>
              <LatitudeDegrees>43.17356326617300510406494140625</LatitudeDegrees>
              <LongitudeDegrees>-1.976793743669986724853515625</LongitudeDegrees>
            </Position>
            <AltitudeMeters>211.600006103515625</AltitudeMeters>
            <DistanceMeters>NAN</DistanceMeters>
          </Trackpoint>
          <Trackpoint>
            <Time>2021-08-13T09:58:36.000Z</Time>
            <Position>
              <LatitudeDegrees>43.17354331724345684051513671875</LatitudeDegrees>
              <LongitudeDegrees>-1.97676801122725009918212890625</LongitudeDegrees>
            </Position>
            <AltitudeMeters>211.8000030517578125</AltitudeMeters>
            <DistanceMeters>NAN</DistanceMeters>
          </Trackpoint>
          <Trackpoint>
            <Time>2021-08-13T09:58:37.000Z</Time>
            <Position>
              <LatitudeDegrees>43.17352320067584514617919921875</LatitudeDegrees>
              <LongitudeDegrees>-1.97673909366130828857421875</LongitudeDegrees>
            </Position>
            <AltitudeMeters>212</AltitudeMeters>
            <DistanceMeters>NAN</DistanceMeters>
          </Trackpoint>
          <Trackpoint>
            <Time>2021-08-13T09:58:38.000Z</Time>
            <Position>
              <LatitudeDegrees>43.17350492812693119049072265625</LatitudeDegrees>
              <LongitudeDegrees>-1.97670615278184413909912109375</LongitudeDegrees>
            </Position>
            <AltitudeMeters>212</AltitudeMeters>
            <DistanceMeters>NAN</DistanceMeters>
          </Trackpoint>
          <Trackpoint>
            <Time>2021-08-13T09:58:40.000Z</Time>
            <Position>
              <LatitudeDegrees>43.173470981419086456298828125</LatitudeDegrees>
              <LongitudeDegrees>-1.9766477309167385101318359375</LongitudeDegrees>
            </Position>
            <AltitudeMeters>212.1999969482421875</AltitudeMeters>
            <DistanceMeters>NAN</DistanceMeters>
          </Trackpoint>
          <Trackpoint>
            <Time>2021-08-13T09:58:41.000Z</Time>
            <Position>
              <LatitudeDegrees>43.1734513677656650543212890625</LatitudeDegrees>
              <LongitudeDegrees>-1.976618729531764984130859375</LongitudeDegrees>
            </Position>
            <AltitudeMeters>212.399993896484375</AltitudeMeters>
            <DistanceMeters>NAN</DistanceMeters>
          </Trackpoint>
          <Trackpoint>
            <Time>2021-08-13T09:58:42.000Z</Time>
            <Position>
              <LatitudeDegrees>43.17343108355998992919921875</LatitudeDegrees>
              <LongitudeDegrees>-1.97659199126064777374267578125</LongitudeDegrees>
            </Position>
            <AltitudeMeters>212.399993896484375</AltitudeMeters>
            <DistanceMeters>NAN</DistanceMeters>
          </Trackpoint>
          <Trackpoint>
            <Time>2021-08-13T09:58:43.000Z</Time>
            <Position>
              <LatitudeDegrees>43.1734116375446319580078125</LatitudeDegrees>
              <LongitudeDegrees>-1.9765639118850231170654296875</LongitudeDegrees>
            </Position>
            <AltitudeMeters>212.399993896484375</AltitudeMeters>
            <DistanceMeters>NAN</DistanceMeters>
          </Trackpoint>
          <Trackpoint>
            <Time>2021-08-13T09:58:44.000Z</Time>
            <Position>
              <LatitudeDegrees>43.17339462228119373321533203125</LatitudeDegrees>
              <LongitudeDegrees>-1.97653532959520816802978515625</LongitudeDegrees>
            </Position>
            <AltitudeMeters>212.600006103515625</AltitudeMeters>
            <DistanceMeters>NAN</DistanceMeters>
          </Trackpoint>
          <Trackpoint>
            <Time>2021-08-13T09:58:45.000Z</Time>
            <Position>
              <LatitudeDegrees>43.1733772717416286468505859375</LatitudeDegrees>
              <LongitudeDegrees>-1.976506076753139495849609375</LongitudeDegrees>
            </Position>
            <AltitudeMeters>212.600006103515625</AltitudeMeters>
            <DistanceMeters>NAN</DistanceMeters>
          </Trackpoint>
          <Trackpoint>
            <Time>2021-08-13T09:58:49.000Z</Time>
            <Position>
              <LatitudeDegrees>43.17332656122744083404541015625</LatitudeDegrees>
              <LongitudeDegrees>-1.9763521850109100341796875</LongitudeDegrees>
            </Position>
            <AltitudeMeters>213.1999969482421875</AltitudeMeters>
            <DistanceMeters>NAN</DistanceMeters>
          </Trackpoint>
          <Trackpoint>
            <Time>2021-08-13T09:58:51.000Z</Time>
            <Position>
              <LatitudeDegrees>43.17331097088754177093505859375</LatitudeDegrees>
              <LongitudeDegrees>-1.9762685336172580718994140625</LongitudeDegrees>
            </Position>
            <AltitudeMeters>213.399993896484375</AltitudeMeters>
            <DistanceMeters>NAN</DistanceMeters>
          </Trackpoint>
          <Trackpoint>
            <Time>2021-08-13T09:58:56.000Z</Time>
            <Position>
              <LatitudeDegrees>43.1732736714184284210205078125</LatitudeDegrees>
              <LongitudeDegrees>-1.9760519452393054962158203125</LongitudeDegrees>
            </Position>
            <AltitudeMeters>213.8000030517578125</AltitudeMeters>
            <DistanceMeters>NAN</DistanceMeters>
          </Trackpoint>
          <Trackpoint>
            <Time>2021-08-13T09:59:00.000Z</Time>
            <Position>
              <LatitudeDegrees>43.1732609309256076812744140625</LatitudeDegrees>
              <LongitudeDegrees>-1.975891850888729095458984375</LongitudeDegrees>
            </Position>
            <AltitudeMeters>214</AltitudeMeters>
            <DistanceMeters>NAN</DistanceMeters>
          </Trackpoint>
          <Trackpoint>
            <Time>2021-08-13T09:59:01.000Z</Time>
            <Position>
              <LatitudeDegrees>43.17326135002076625823974609375</LatitudeDegrees>
              <LongitudeDegrees>-1.97586041875183582305908203125</LongitudeDegrees>
            </Position>
            <AltitudeMeters>214</AltitudeMeters>
            <DistanceMeters>NAN</DistanceMeters>
          </Trackpoint>
          <Trackpoint>
            <Time>2021-08-13T09:59:02.000Z</Time>
            <Position>
              <LatitudeDegrees>43.1732639484107494354248046875</LatitudeDegrees>
              <LongitudeDegrees>-1.975828818976879119873046875</LongitudeDegrees>
            </Position>
            <AltitudeMeters>214.1999969482421875</AltitudeMeters>
            <DistanceMeters>NAN</DistanceMeters>
          </Trackpoint>
          <Trackpoint>
            <Time>2021-08-13T09:59:03.000Z</Time>
            <Position>
              <LatitudeDegrees>43.1732679717242717742919921875</LatitudeDegrees>
              <LongitudeDegrees>-1.97579520754516124725341796875</LongitudeDegrees>
            </Position>
            <AltitudeMeters>214.1999969482421875</AltitudeMeters>
            <DistanceMeters>NAN</DistanceMeters>
          </Trackpoint>
          <Trackpoint>
            <Time>2021-08-13T09:59:04.000Z</Time>
            <Position>
              <LatitudeDegrees>43.1732730008661746978759765625</LatitudeDegrees>
              <LongitudeDegrees>-1.97575916536152362823486328125</LongitudeDegrees>
            </Position>
            <AltitudeMeters>214.399993896484375</AltitudeMeters>
            <DistanceMeters>NAN</DistanceMeters>
          </Trackpoint>
          <Trackpoint>
            <Time>2021-08-13T09:59:06.000Z</Time>
            <Position>
              <LatitudeDegrees>43.17329051904380321502685546875</LatitudeDegrees>
              <LongitudeDegrees>-1.97569060139358043670654296875</LongitudeDegrees>
            </Position>
            <AltitudeMeters>214.399993896484375</AltitudeMeters>
            <DistanceMeters>NAN</DistanceMeters>
          </Trackpoint>
          <Trackpoint>
            <Time>2021-08-13T09:59:08.000Z</Time>
            <Position>
              <LatitudeDegrees>43.173304684460163116455078125</LatitudeDegrees>
              <LongitudeDegrees>-1.9756199419498443603515625</LongitudeDegrees>
            </Position>
            <AltitudeMeters>214.600006103515625</AltitudeMeters>
            <DistanceMeters>NAN</DistanceMeters>
          </Trackpoint>
          <Trackpoint>
            <Time>2021-08-13T09:59:16.000Z</Time>
            <Position>
              <LatitudeDegrees>43.17339546047151088714599609375</LatitudeDegrees>
              <LongitudeDegrees>-1.97531576268374919891357421875</LongitudeDegrees>
            </Position>
            <AltitudeMeters>214.600006103515625</AltitudeMeters>
            <DistanceMeters>NAN</DistanceMeters>
          </Trackpoint>
          <Trackpoint>
            <Time>2021-08-13T09:59:19.000Z</Time>
            <Position>
              <LatitudeDegrees>43.17343200556933879852294921875</LatitudeDegrees>
              <LongitudeDegrees>-1.97521300055086612701416015625</LongitudeDegrees>
            </Position>
            <AltitudeMeters>214.399993896484375</AltitudeMeters>
            <DistanceMeters>NAN</DistanceMeters>
          </Trackpoint>
          <Trackpoint>
            <Time>2021-08-13T09:59:20.000Z</Time>
            <Position>
              <LatitudeDegrees>43.17344181239604949951171875</LatitudeDegrees>
              <LongitudeDegrees>-1.97517410852015018463134765625</LongitudeDegrees>
            </Position>
            <AltitudeMeters>214.399993896484375</AltitudeMeters>
            <DistanceMeters>NAN</DistanceMeters>
          </Trackpoint>
          <Trackpoint>
            <Time>2021-08-13T09:59:21.000Z</Time>
            <Position>
              <LatitudeDegrees>43.17345731891691684722900390625</LatitudeDegrees>
              <LongitudeDegrees>-1.97513638995587825775146484375</LongitudeDegrees>
            </Position>
            <AltitudeMeters>214.399993896484375</AltitudeMeters>
            <DistanceMeters>NAN</DistanceMeters>
          </Trackpoint>
          <Trackpoint>
            <Time>2021-08-13T09:59:26.000Z</Time>
            <Position>
              <LatitudeDegrees>43.173499815165996551513671875</LatitudeDegrees>
              <LongitudeDegrees>-1.97495198808610439300537109375</LongitudeDegrees>
            </Position>
            <AltitudeMeters>214.399993896484375</AltitudeMeters>
            <DistanceMeters>NAN</DistanceMeters>
          </Trackpoint>
          <Trackpoint>
            <Time>2021-08-13T09:59:28.000Z</Time>
            <Position>
              <LatitudeDegrees>43.17353904247283935546875</LatitudeDegrees>
              <LongitudeDegrees>-1.97488677687942981719970703125</LongitudeDegrees>
            </Position>
            <AltitudeMeters>214.399993896484375</AltitudeMeters>
            <DistanceMeters>NAN</DistanceMeters>
          </Trackpoint>
          <Trackpoint>
            <Time>2021-08-13T09:59:29.000Z</Time>
            <Position>
              <LatitudeDegrees>43.17355387844145298004150390625</LatitudeDegrees>
              <LongitudeDegrees>-1.9748560152947902679443359375</LongitudeDegrees>
            </Position>
            <AltitudeMeters>214.399993896484375</AltitudeMeters>
            <DistanceMeters>NAN</DistanceMeters>
          </Trackpoint>
          <Trackpoint>
            <Time>2021-08-13T09:59:30.000Z</Time>
            <Position>
              <LatitudeDegrees>43.17357592284679412841796875</LatitudeDegrees>
              <LongitudeDegrees>-1.97481385432183742523193359375</LongitudeDegrees>
            </Position>
            <AltitudeMeters>214.399993896484375</AltitudeMeters>
            <DistanceMeters>NAN</DistanceMeters>
          </Trackpoint>
          <Trackpoint>
            <Time>2021-08-13T09:59:32.000Z</Time>
            <Position>
              <LatitudeDegrees>43.1735915131866931915283203125</LatitudeDegrees>
              <LongitudeDegrees>-1.9747571088373661041259765625</LongitudeDegrees>
            </Position>
            <AltitudeMeters>214.399993896484375</AltitudeMeters>
            <DistanceMeters>NAN</DistanceMeters>
          </Trackpoint>
          <Trackpoint>
            <Time>2021-08-13T09:59:33.000Z</Time>
            <Position>
              <LatitudeDegrees>43.1735955365002155303955078125</LatitudeDegrees>
              <LongitudeDegrees>-1.9747267663478851318359375</LongitudeDegrees>
            </Position>
            <AltitudeMeters>214.399993896484375</AltitudeMeters>
            <DistanceMeters>NAN</DistanceMeters>
          </Trackpoint>
          <Trackpoint>
            <Time>2021-08-13T09:59:34.000Z</Time>
            <Position>
              <LatitudeDegrees>43.173597045242786407470703125</LatitudeDegrees>
              <LongitudeDegrees>-1.974692903459072113037109375</LongitudeDegrees>
            </Position>
            <AltitudeMeters>214.399993896484375</AltitudeMeters>
            <DistanceMeters>NAN</DistanceMeters>
          </Trackpoint>
          <Trackpoint>
            <Time>2021-08-13T09:59:35.000Z</Time>
            <Position>
              <LatitudeDegrees>43.17359981127083301544189453125</LatitudeDegrees>
              <LongitudeDegrees>-1.9746699370443820953369140625</LongitudeDegrees>
            </Position>
            <AltitudeMeters>214.600006103515625</AltitudeMeters>
            <DistanceMeters>NAN</DistanceMeters>
          </Trackpoint>
          <Trackpoint>
            <Time>2021-08-13T09:59:36.000Z</Time>
            <Position>
              <LatitudeDegrees>43.17362126894295215606689453125</LatitudeDegrees>
              <LongitudeDegrees>-1.9746380858123302459716796875</LongitudeDegrees>
            </Position>
            <AltitudeMeters>214.8000030517578125</AltitudeMeters>
            <DistanceMeters>NAN</DistanceMeters>
          </Trackpoint>
          <Trackpoint>
            <Time>2021-08-13T09:59:37.000Z</Time>
            <Position>
              <LatitudeDegrees>43.17363216541707515716552734375</LatitudeDegrees>
              <LongitudeDegrees>-1.97460950352251529693603515625</LongitudeDegrees>
            </Position>
            <AltitudeMeters>214.8000030517578125</AltitudeMeters>
            <DistanceMeters>NAN</DistanceMeters>
          </Trackpoint>
          <Trackpoint>
            <Time>2021-08-13T09:59:38.000Z</Time>
            <Position>
              <LatitudeDegrees>43.17362445406615734100341796875</LatitudeDegrees>
              <LongitudeDegrees>-1.9745767302811145782470703125</LongitudeDegrees>
            </Position>
            <AltitudeMeters>215</AltitudeMeters>
            <DistanceMeters>NAN</DistanceMeters>
          </Trackpoint>
          <Trackpoint>
            <Time>2021-08-13T09:59:42.000Z</Time>
            <Position>
              <LatitudeDegrees>43.1736800260841846466064453125</LatitudeDegrees>
              <LongitudeDegrees>-1.974440105259418487548828125</LongitudeDegrees>
            </Position>
            <AltitudeMeters>215.1999969482421875</AltitudeMeters>
            <DistanceMeters>NAN</DistanceMeters>
          </Trackpoint>
          <Trackpoint>
            <Time>2021-08-13T09:59:44.000Z</Time>
            <Position>
              <LatitudeDegrees>43.1737051717936992645263671875</LatitudeDegrees>
              <LongitudeDegrees>-1.97438143193721771240234375</LongitudeDegrees>
            </Position>
            <AltitudeMeters>215.1999969482421875</AltitudeMeters>
            <DistanceMeters>NAN</DistanceMeters>
          </Trackpoint>
          <Trackpoint>
            <Time>2021-08-13T09:59:49.000Z</Time>
            <Position>
              <LatitudeDegrees>43.17376443184912204742431640625</LatitudeDegrees>
              <LongitudeDegrees>-1.97419703006744384765625</LongitudeDegrees>
            </Position>
            <AltitudeMeters>215.1999969482421875</AltitudeMeters>
            <DistanceMeters>NAN</DistanceMeters>
          </Trackpoint>
          <Trackpoint>
            <Time>2021-08-13T09:59:54.000Z</Time>
            <Position>
              <LatitudeDegrees>43.17383944988250732421875</LatitudeDegrees>
              <LongitudeDegrees>-1.973983459174633026123046875</LongitudeDegrees>
            </Position>
            <AltitudeMeters>215</AltitudeMeters>
            <DistanceMeters>NAN</DistanceMeters>
          </Trackpoint>
          <Trackpoint>
            <Time>2021-08-13T09:59:58.000Z</Time>
            <Position>
              <LatitudeDegrees>43.17388814873993396759033203125</LatitudeDegrees>
              <LongitudeDegrees>-1.97388245724141597747802734375</LongitudeDegrees>
            </Position>
            <AltitudeMeters>215.1999969482421875</AltitudeMeters>
            <DistanceMeters>NAN</DistanceMeters>
          </Trackpoint>
          <Trackpoint>
            <Time>2021-08-13T10:00:59.000Z</Time>
            <Position>
              <LatitudeDegrees>43.1749135069549083709716796875</LatitudeDegrees>
              <LongitudeDegrees>-1.97202108800411224365234375</LongitudeDegrees>
            </Position>
            <AltitudeMeters>216.8000030517578125</AltitudeMeters>
            <DistanceMeters>NAN</DistanceMeters>
          </Trackpoint>
          <Trackpoint>
            <Time>2021-08-13T10:01:01.000Z</Time>
            <Position>
              <LatitudeDegrees>43.17493706010282039642333984375</LatitudeDegrees>
              <LongitudeDegrees>-1.9719645939767360687255859375</LongitudeDegrees>
            </Position>
            <AltitudeMeters>216.8000030517578125</AltitudeMeters>
            <DistanceMeters>NAN</DistanceMeters>
          </Trackpoint>
          <Trackpoint>
            <Time>2021-08-13T10:01:02.000Z</Time>
            <Position>
              <LatitudeDegrees>43.17496505565941333770751953125</LatitudeDegrees>
              <LongitudeDegrees>-1.97192327119410037994384765625</LongitudeDegrees>
            </Position>
            <AltitudeMeters>216.8000030517578125</AltitudeMeters>
            <DistanceMeters>NAN</DistanceMeters>
          </Trackpoint>
          <Trackpoint>
            <Time>2021-08-13T10:01:03.000Z</Time>
            <Position>
              <LatitudeDegrees>43.17496773786842823028564453125</LatitudeDegrees>
              <LongitudeDegrees>-1.97189494036138057708740234375</LongitudeDegrees>
            </Position>
            <AltitudeMeters>216.8000030517578125</AltitudeMeters>
            <DistanceMeters>NAN</DistanceMeters>
          </Trackpoint>
          <Trackpoint>
            <Time>2021-08-13T10:01:04.000Z</Time>
            <Position>
              <LatitudeDegrees>43.174975030124187469482421875</LatitudeDegrees>
              <LongitudeDegrees>-1.9718552939593791961669921875</LongitudeDegrees>
            </Position>
            <AltitudeMeters>216.8000030517578125</AltitudeMeters>
            <DistanceMeters>NAN</DistanceMeters>
          </Trackpoint>
          <Trackpoint>
            <Time>2021-08-13T10:01:05.000Z</Time>
            <Position>
              <LatitudeDegrees>43.1749916262924671173095703125</LatitudeDegrees>
              <LongitudeDegrees>-1.9718234427273273468017578125</LongitudeDegrees>
            </Position>
            <AltitudeMeters>216.8000030517578125</AltitudeMeters>
            <DistanceMeters>NAN</DistanceMeters>
          </Trackpoint>
          <Trackpoint>
            <Time>2021-08-13T10:01:06.000Z</Time>
            <Position>
              <LatitudeDegrees>43.17500688135623931884765625</LatitudeDegrees>
              <LongitudeDegrees>-1.97180114686489105224609375</LongitudeDegrees>
            </Position>
            <AltitudeMeters>216.8000030517578125</AltitudeMeters>
            <DistanceMeters>NAN</DistanceMeters>
          </Trackpoint>
          <Trackpoint>
            <Time>2021-08-13T10:01:07.000Z</Time>
            <Position>
              <LatitudeDegrees>43.17500947974622249603271484375</LatitudeDegrees>
              <LongitudeDegrees>-1.9717795215547084808349609375</LongitudeDegrees>
            </Position>
            <AltitudeMeters>216.8000030517578125</AltitudeMeters>
            <DistanceMeters>NAN</DistanceMeters>
          </Trackpoint>
          <Trackpoint>
            <Time>2021-08-13T10:01:14.000Z</Time>
            <Position>
              <LatitudeDegrees>43.1750424206256866455078125</LatitudeDegrees>
              <LongitudeDegrees>-1.97160023264586925506591796875</LongitudeDegrees>
            </Position>
            <AltitudeMeters>216.8000030517578125</AltitudeMeters>
            <DistanceMeters>NAN</DistanceMeters>
          </Trackpoint>
          <Trackpoint>
            <Time>2021-08-13T10:01:15.000Z</Time>
            <Position>
              <LatitudeDegrees>43.17503948695957660675048828125</LatitudeDegrees>
              <LongitudeDegrees>-1.9715751707553863525390625</LongitudeDegrees>
            </Position>
            <AltitudeMeters>216.8000030517578125</AltitudeMeters>
            <DistanceMeters>NAN</DistanceMeters>
          </Trackpoint>
          <Trackpoint>
            <Time>2021-08-13T10:01:16.000Z</Time>
            <Position>
              <LatitudeDegrees>43.17503546364605426788330078125</LatitudeDegrees>
              <LongitudeDegrees>-1.971564106643199920654296875</LongitudeDegrees>
            </Position>
            <AltitudeMeters>216.8000030517578125</AltitudeMeters>
            <DistanceMeters>NAN</DistanceMeters>
          </Trackpoint>
          <Trackpoint>
            <Time>2021-08-13T10:01:17.000Z</Time>
            <Position>
              <LatitudeDegrees>43.17502892576158046722412109375</LatitudeDegrees>
              <LongitudeDegrees>-1.97154491208493709564208984375</LongitudeDegrees>
            </Position>
            <AltitudeMeters>216.8000030517578125</AltitudeMeters>
            <DistanceMeters>NAN</DistanceMeters>
          </Trackpoint>
          <Trackpoint>
            <Time>2021-08-13T10:01:18.000Z</Time>
            <Position>
              <LatitudeDegrees>43.17502607591450214385986328125</LatitudeDegrees>
              <LongitudeDegrees>-1.9715320877730846405029296875</LongitudeDegrees>
            </Position>
            <AltitudeMeters>216.8000030517578125</AltitudeMeters>
            <DistanceMeters>NAN</DistanceMeters>
          </Trackpoint>
          <Trackpoint>
            <Time>2021-08-13T10:01:19.000Z</Time>
            <Position>
              <LatitudeDegrees>43.175028003752231597900390625</LatitudeDegrees>
              <LongitudeDegrees>-1.9715257175266742706298828125</LongitudeDegrees>
            </Position>
            <AltitudeMeters>216.8000030517578125</AltitudeMeters>
            <DistanceMeters>NAN</DistanceMeters>
          </Trackpoint>
          <Trackpoint>
            <Time>2021-08-13T10:01:20.000Z</Time>
            <Position>
              <LatitudeDegrees>43.175025321543216705322265625</LatitudeDegrees>
              <LongitudeDegrees>-1.97151741944253444671630859375</LongitudeDegrees>
            </Position>
            <AltitudeMeters>216.8000030517578125</AltitudeMeters>
            <DistanceMeters>NAN</DistanceMeters>
          </Trackpoint>
          <Trackpoint>
            <Time>2021-08-13T10:01:21.000Z</Time>
            <Position>
              <LatitudeDegrees>43.175025321543216705322265625</LatitudeDegrees>
              <LongitudeDegrees>-1.97150132618844509124755859375</LongitudeDegrees>
            </Position>
            <AltitudeMeters>216.8000030517578125</AltitudeMeters>
            <DistanceMeters>NAN</DistanceMeters>
          </Trackpoint>
          <Trackpoint>
            <Time>2021-08-13T10:01:22.000Z</Time>
            <Position>
              <LatitudeDegrees>43.175028674304485321044921875</LatitudeDegrees>
              <LongitudeDegrees>-1.97148489765822887420654296875</LongitudeDegrees>
            </Position>
            <AltitudeMeters>216.8000030517578125</AltitudeMeters>
            <DistanceMeters>NAN</DistanceMeters>
          </Trackpoint>
          <Trackpoint>
            <Time>2021-08-13T10:01:23.000Z</Time>
            <Position>
              <LatitudeDegrees>43.175029344856739044189453125</LatitudeDegrees>
              <LongitudeDegrees>-1.97146830148994922637939453125</LongitudeDegrees>
            </Position>
            <AltitudeMeters>217</AltitudeMeters>
            <DistanceMeters>NAN</DistanceMeters>
          </Trackpoint>
          <Trackpoint>
            <Time>2021-08-13T10:01:24.000Z</Time>
            <Position>
              <LatitudeDegrees>43.1750271655619144439697265625</LatitudeDegrees>
              <LongitudeDegrees>-1.97145153768360614776611328125</LongitudeDegrees>
            </Position>
            <AltitudeMeters>217</AltitudeMeters>
            <DistanceMeters>NAN</DistanceMeters>
          </Trackpoint>
          <Trackpoint>
            <Time>2021-08-13T10:01:25.000Z</Time>
            <Position>
              <LatitudeDegrees>43.175023980438709259033203125</LatitudeDegrees>
              <LongitudeDegrees>-1.9714343547821044921875</LongitudeDegrees>
            </Position>
            <AltitudeMeters>217</AltitudeMeters>
            <DistanceMeters>NAN</DistanceMeters>
          </Trackpoint>
          <Trackpoint>
            <Time>2021-08-13T10:01:26.000Z</Time>
            <Position>
              <LatitudeDegrees>43.17502205260097980499267578125</LatitudeDegrees>
              <LongitudeDegrees>-1.971413232386112213134765625</LongitudeDegrees>
            </Position>
            <AltitudeMeters>217</AltitudeMeters>
            <DistanceMeters>NAN</DistanceMeters>
          </Trackpoint>
          <Trackpoint>
            <Time>2021-08-13T10:01:27.000Z</Time>
            <Position>
              <LatitudeDegrees>43.175019286572933197021484375</LatitudeDegrees>
              <LongitudeDegrees>-1.97139806114137172698974609375</LongitudeDegrees>
            </Position>
            <AltitudeMeters>217</AltitudeMeters>
            <DistanceMeters>NAN</DistanceMeters>
          </Trackpoint>
          <Trackpoint>
            <Time>2021-08-13T10:01:28.000Z</Time>
            <Position>
              <LatitudeDegrees>43.1750155985355377197265625</LatitudeDegrees>
              <LongitudeDegrees>-1.97138565592467784881591796875</LongitudeDegrees>
            </Position>
            <AltitudeMeters>217</AltitudeMeters>
            <DistanceMeters>NAN</DistanceMeters>
          </Trackpoint>
          <Trackpoint>
            <Time>2021-08-13T10:01:32.000Z</Time>
            <Position>
              <LatitudeDegrees>43.1749963201582431793212890625</LatitudeDegrees>
              <LongitudeDegrees>-1.97127786464989185333251953125</LongitudeDegrees>
            </Position>
            <AltitudeMeters>217</AltitudeMeters>
            <DistanceMeters>NAN</DistanceMeters>
          </Trackpoint>
          <Trackpoint>
            <Time>2021-08-13T10:01:35.000Z</Time>
            <Position>
              <LatitudeDegrees>43.1749834120273590087890625</LatitudeDegrees>
              <LongitudeDegrees>-1.97118130512535572052001953125</LongitudeDegrees>
            </Position>
            <AltitudeMeters>217</AltitudeMeters>
            <DistanceMeters>NAN</DistanceMeters>
          </Trackpoint>
          <Trackpoint>
            <Time>2021-08-13T10:01:36.000Z</Time>
            <Position>
              <LatitudeDegrees>43.17498131655156612396240234375</LatitudeDegrees>
              <LongitudeDegrees>-1.97116320021450519561767578125</LongitudeDegrees>
            </Position>
            <AltitudeMeters>217</AltitudeMeters>
            <DistanceMeters>NAN</DistanceMeters>
          </Trackpoint>
          <Trackpoint>
            <Time>2021-08-13T10:01:37.000Z</Time>
            <Position>
              <LatitudeDegrees>43.17498014308512210845947265625</LatitudeDegrees>
              <LongitudeDegrees>-1.9711404852569103240966796875</LongitudeDegrees>
            </Position>
            <AltitudeMeters>217.1999969482421875</AltitudeMeters>
            <DistanceMeters>NAN</DistanceMeters>
          </Trackpoint>
          <Trackpoint>
            <Time>2021-08-13T10:01:39.000Z</Time>
            <Position>
              <LatitudeDegrees>43.174963295459747314453125</LatitudeDegrees>
              <LongitudeDegrees>-1.97108776308596134185791015625</LongitudeDegrees>
            </Position>
            <AltitudeMeters>217</AltitudeMeters>
            <DistanceMeters>NAN</DistanceMeters>
          </Trackpoint>
          <Trackpoint>
            <Time>2021-08-13T10:01:46.000Z</Time>
            <Position>
              <LatitudeDegrees>43.17485692910850048065185546875</LatitudeDegrees>
              <LongitudeDegrees>-1.9708777964115142822265625</LongitudeDegrees>
            </Position>
            <AltitudeMeters>217</AltitudeMeters>
            <DistanceMeters>NAN</DistanceMeters>
          </Trackpoint>
          <Trackpoint>
            <Time>2021-08-13T10:01:47.000Z</Time>
            <Position>
              <LatitudeDegrees>43.1748370639979839324951171875</LatitudeDegrees>
              <LongitudeDegrees>-1.9708424247801303863525390625</LongitudeDegrees>
            </Position>
            <AltitudeMeters>217.1999969482421875</AltitudeMeters>
            <DistanceMeters>NAN</DistanceMeters>
          </Trackpoint>
          <Trackpoint>
            <Time>2021-08-13T10:01:52.000Z</Time>
            <Position>
              <LatitudeDegrees>43.1747448630630970001220703125</LatitudeDegrees>
              <LongitudeDegrees>-1.97070755995810031890869140625</LongitudeDegrees>
            </Position>
            <AltitudeMeters>217</AltitudeMeters>
            <DistanceMeters>NAN</DistanceMeters>
          </Trackpoint>
          <Trackpoint>
            <Time>2021-08-13T10:01:53.000Z</Time>
            <Position>
              <LatitudeDegrees>43.1747280992567539215087890625</LatitudeDegrees>
              <LongitudeDegrees>-1.9706875272095203399658203125</LongitudeDegrees>
            </Position>
            <AltitudeMeters>217</AltitudeMeters>
            <DistanceMeters>NAN</DistanceMeters>
          </Trackpoint>
          <Trackpoint>
            <Time>2021-08-13T10:01:54.000Z</Time>
            <Position>
              <LatitudeDegrees>43.1747153587639331817626953125</LatitudeDegrees>
              <LongitudeDegrees>-1.97066129185259342193603515625</LongitudeDegrees>
            </Position>
            <AltitudeMeters>217</AltitudeMeters>
            <DistanceMeters>NAN</DistanceMeters>
          </Trackpoint>
          <Trackpoint>
            <Time>2021-08-13T10:01:56.000Z</Time>
            <Position>
              <LatitudeDegrees>43.17467571236193180084228515625</LatitudeDegrees>
              <LongitudeDegrees>-1.97060278616845607757568359375</LongitudeDegrees>
            </Position>
            <AltitudeMeters>217.1999969482421875</AltitudeMeters>
            <DistanceMeters>NAN</DistanceMeters>
          </Trackpoint>
          <Trackpoint>
            <Time>2021-08-13T10:01:57.000Z</Time>
            <Position>
              <LatitudeDegrees>43.1746523268520832061767578125</LatitudeDegrees>
              <LongitudeDegrees>-1.970573700964450836181640625</LongitudeDegrees>
            </Position>
            <AltitudeMeters>217.1999969482421875</AltitudeMeters>
            <DistanceMeters>NAN</DistanceMeters>
          </Trackpoint>
          <Trackpoint>
            <Time>2021-08-13T10:01:58.000Z</Time>
            <Position>
              <LatitudeDegrees>43.1746347248554229736328125</LatitudeDegrees>
              <LongitudeDegrees>-1.9705453701317310333251953125</LongitudeDegrees>
            </Position>
            <AltitudeMeters>217.399993896484375</AltitudeMeters>
            <DistanceMeters>NAN</DistanceMeters>
          </Trackpoint>
          <Trackpoint>
            <Time>2021-08-13T10:01:59.000Z</Time>
            <Position>
              <LatitudeDegrees>43.174616955220699310302734375</LatitudeDegrees>
              <LongitudeDegrees>-1.970518045127391815185546875</LongitudeDegrees>
            </Position>
            <AltitudeMeters>217.399993896484375</AltitudeMeters>
            <DistanceMeters>NAN</DistanceMeters>
          </Trackpoint>
          <Trackpoint>
            <Time>2021-08-13T10:02:03.000Z</Time>
            <Position>
              <LatitudeDegrees>43.17453858442604541778564453125</LatitudeDegrees>
              <LongitudeDegrees>-1.970386616885662078857421875</LongitudeDegrees>
            </Position>
            <AltitudeMeters>217.600006103515625</AltitudeMeters>
            <DistanceMeters>NAN</DistanceMeters>
          </Trackpoint>
          <Trackpoint>
            <Time>2021-08-13T10:02:04.000Z</Time>
            <Position>
              <LatitudeDegrees>43.174518384039402008056640625</LatitudeDegrees>
              <LongitudeDegrees>-1.97035233490169048309326171875</LongitudeDegrees>
            </Position>
            <AltitudeMeters>217.600006103515625</AltitudeMeters>
            <DistanceMeters>NAN</DistanceMeters>
          </Trackpoint>
          <Trackpoint>
            <Time>2021-08-13T10:02:10.000Z</Time>
            <Position>
              <LatitudeDegrees>43.1743710301816463470458984375</LatitudeDegrees>
              <LongitudeDegrees>-1.9701363332569599151611328125</LongitudeDegrees>
            </Position>
            <AltitudeMeters>218</AltitudeMeters>
            <DistanceMeters>NAN</DistanceMeters>
          </Trackpoint>
          <Trackpoint>
            <Time>2021-08-13T10:02:14.000Z</Time>
            <Position>
              <LatitudeDegrees>43.1742784939706325531005859375</LatitudeDegrees>
              <LongitudeDegrees>-1.9700173102319240570068359375</LongitudeDegrees>
            </Position>
            <AltitudeMeters>218.1999969482421875</AltitudeMeters>
            <DistanceMeters>NAN</DistanceMeters>
          </Trackpoint>
          <Trackpoint>
            <Time>2021-08-13T10:02:15.000Z</Time>
            <Position>
              <LatitudeDegrees>43.17426315508782863616943359375</LatitudeDegrees>
              <LongitudeDegrees>-1.96999845094978809356689453125</LongitudeDegrees>
            </Position>
            <AltitudeMeters>218.1999969482421875</AltitudeMeters>
            <DistanceMeters>NAN</DistanceMeters>
          </Trackpoint>
          <Trackpoint>
            <Time>2021-08-13T10:02:16.000Z</Time>
            <Position>
              <LatitudeDegrees>43.17423935048282146453857421875</LatitudeDegrees>
              <LongitudeDegrees>-1.96997188031673431396484375</LongitudeDegrees>
            </Position>
            <AltitudeMeters>218.399993896484375</AltitudeMeters>
            <DistanceMeters>NAN</DistanceMeters>
          </Trackpoint>
          <Trackpoint>
            <Time>2021-08-13T10:02:17.000Z</Time>
            <Position>
              <LatitudeDegrees>43.17421470768749713897705078125</LatitudeDegrees>
              <LongitudeDegrees>-1.96994598023593425750732421875</LongitudeDegrees>
            </Position>
            <AltitudeMeters>218.399993896484375</AltitudeMeters>
            <DistanceMeters>NAN</DistanceMeters>
          </Trackpoint>
          <Trackpoint>
            <Time>2021-08-13T10:02:18.000Z</Time>
            <Position>
              <LatitudeDegrees>43.17419207654893398284912109375</LatitudeDegrees>
              <LongitudeDegrees>-1.96991781704127788543701171875</LongitudeDegrees>
            </Position>
            <AltitudeMeters>218.399993896484375</AltitudeMeters>
            <DistanceMeters>NAN</DistanceMeters>
          </Trackpoint>
          <Trackpoint>
            <Time>2021-08-13T10:02:19.000Z</Time>
            <Position>
              <LatitudeDegrees>43.174165003001689910888671875</LatitudeDegrees>
              <LongitudeDegrees>-1.96988730691373348236083984375</LongitudeDegrees>
            </Position>
            <AltitudeMeters>218.399993896484375</AltitudeMeters>
            <DistanceMeters>NAN</DistanceMeters>
          </Trackpoint>
          <Trackpoint>
            <Time>2021-08-13T10:02:20.000Z</Time>
            <Position>
              <LatitudeDegrees>43.17413742654025554656982421875</LatitudeDegrees>
              <LongitudeDegrees>-1.969858221709728240966796875</LongitudeDegrees>
            </Position>
            <AltitudeMeters>218.399993896484375</AltitudeMeters>
            <DistanceMeters>NAN</DistanceMeters>
          </Trackpoint>
          <Trackpoint>
            <Time>2021-08-13T10:02:21.000Z</Time>
            <Position>
              <LatitudeDegrees>43.174114041030406951904296875</LatitudeDegrees>
              <LongitudeDegrees>-1.96982896886765956878662109375</LongitudeDegrees>
            </Position>
            <AltitudeMeters>218.399993896484375</AltitudeMeters>
            <DistanceMeters>NAN</DistanceMeters>
          </Trackpoint>
          <Trackpoint>
            <Time>2021-08-13T10:02:22.000Z</Time>
            <Position>
              <LatitudeDegrees>43.17409149371087551116943359375</LatitudeDegrees>
              <LongitudeDegrees>-1.969800554215908050537109375</LongitudeDegrees>
            </Position>
            <AltitudeMeters>218.600006103515625</AltitudeMeters>
            <DistanceMeters>NAN</DistanceMeters>
          </Trackpoint>
          <Trackpoint>
            <Time>2021-08-13T10:02:23.000Z</Time>
            <Position>
              <LatitudeDegrees>43.17407204769551753997802734375</LatitudeDegrees>
              <LongitudeDegrees>-1.96977415122091770172119140625</LongitudeDegrees>
            </Position>
            <AltitudeMeters>218.600006103515625</AltitudeMeters>
            <DistanceMeters>NAN</DistanceMeters>
          </Trackpoint>
          <Trackpoint>
            <Time>2021-08-13T10:02:24.000Z</Time>
            <Position>
              <LatitudeDegrees>43.17404874600470066070556640625</LatitudeDegrees>
              <LongitudeDegrees>-1.9697507657110691070556640625</LongitudeDegrees>
            </Position>
            <AltitudeMeters>218.8000030517578125</AltitudeMeters>
            <DistanceMeters>NAN</DistanceMeters>
          </Trackpoint>
          <Trackpoint>
            <Time>2021-08-13T10:02:25.000Z</Time>
            <Position>
              <LatitudeDegrees>43.17402645014226436614990234375</LatitudeDegrees>
              <LongitudeDegrees>-1.96972620673477649688720703125</LongitudeDegrees>
            </Position>
            <AltitudeMeters>218.8000030517578125</AltitudeMeters>
            <DistanceMeters>NAN</DistanceMeters>
          </Trackpoint>
          <Trackpoint>
            <Time>2021-08-13T10:02:26.000Z</Time>
            <Position>
              <LatitudeDegrees>43.1739963591098785400390625</LatitudeDegrees>
              <LongitudeDegrees>-1.9697029888629913330078125</LongitudeDegrees>
            </Position>
            <AltitudeMeters>218.8000030517578125</AltitudeMeters>
            <DistanceMeters>NAN</DistanceMeters>
          </Trackpoint>
          <Trackpoint>
            <Time>2021-08-13T10:02:27.000Z</Time>
            <Position>
              <LatitudeDegrees>43.17397129721939563751220703125</LatitudeDegrees>
              <LongitudeDegrees>-1.9696761667728424072265625</LongitudeDegrees>
            </Position>
            <AltitudeMeters>218.8000030517578125</AltitudeMeters>
            <DistanceMeters>NAN</DistanceMeters>
          </Trackpoint>
          <Trackpoint>
            <Time>2021-08-13T10:02:28.000Z</Time>
            <Position>
              <LatitudeDegrees>43.17394673824310302734375</LatitudeDegrees>
              <LongitudeDegrees>-1.9696454890072345733642578125</LongitudeDegrees>
            </Position>
            <AltitudeMeters>218.8000030517578125</AltitudeMeters>
            <DistanceMeters>NAN</DistanceMeters>
          </Trackpoint>
          <Trackpoint>
            <Time>2021-08-13T10:02:33.000Z</Time>
            <Position>
              <LatitudeDegrees>43.173821009695529937744140625</LatitudeDegrees>
              <LongitudeDegrees>-1.96948413737118244171142578125</LongitudeDegrees>
            </Position>
            <AltitudeMeters>219</AltitudeMeters>
            <DistanceMeters>NAN</DistanceMeters>
          </Trackpoint>
          <Trackpoint>
            <Time>2021-08-13T10:02:34.000Z</Time>
            <Position>
              <LatitudeDegrees>43.17379988729953765869140625</LatitudeDegrees>
              <LongitudeDegrees>-1.96945580653846263885498046875</LongitudeDegrees>
            </Position>
            <AltitudeMeters>219</AltitudeMeters>
            <DistanceMeters>NAN</DistanceMeters>
          </Trackpoint>
          <Trackpoint>
            <Time>2021-08-13T10:02:35.000Z</Time>
            <Position>
              <LatitudeDegrees>43.17377566359937191009521484375</LatitudeDegrees>
              <LongitudeDegrees>-1.96943677961826324462890625</LongitudeDegrees>
            </Position>
            <AltitudeMeters>219</AltitudeMeters>
            <DistanceMeters>NAN</DistanceMeters>
          </Trackpoint>
          <Trackpoint>
            <Time>2021-08-13T10:02:41.000Z</Time>
            <Position>
              <LatitudeDegrees>43.17366116680204868316650390625</LatitudeDegrees>
              <LongitudeDegrees>-1.96924994699656963348388671875</LongitudeDegrees>
            </Position>
            <AltitudeMeters>219</AltitudeMeters>
            <DistanceMeters>NAN</DistanceMeters>
          </Trackpoint>
          <Trackpoint>
            <Time>2021-08-13T10:02:47.000Z</Time>
            <Position>
              <LatitudeDegrees>43.17353007383644580841064453125</LatitudeDegrees>
              <LongitudeDegrees>-1.96909479796886444091796875</LongitudeDegrees>
            </Position>
            <AltitudeMeters>219.1999969482421875</AltitudeMeters>
            <DistanceMeters>NAN</DistanceMeters>
          </Trackpoint>
          <Trackpoint>
            <Time>2021-08-13T10:02:50.000Z</Time>
            <Position>
              <LatitudeDegrees>43.173464946448802947998046875</LatitudeDegrees>
              <LongitudeDegrees>-1.96900284849107265472412109375</LongitudeDegrees>
            </Position>
            <AltitudeMeters>219.1999969482421875</AltitudeMeters>
            <DistanceMeters>NAN</DistanceMeters>
          </Trackpoint>
          <Trackpoint>
            <Time>2021-08-13T10:02:51.000Z</Time>
            <Position>
              <LatitudeDegrees>43.17344340495765209197998046875</LatitudeDegrees>
              <LongitudeDegrees>-1.968977451324462890625</LongitudeDegrees>
            </Position>
            <AltitudeMeters>219.1999969482421875</AltitudeMeters>
            <DistanceMeters>NAN</DistanceMeters>
          </Trackpoint>
          <Trackpoint>
            <Time>2021-08-13T10:02:52.000Z</Time>
            <Position>
              <LatitudeDegrees>43.173422701656818389892578125</LatitudeDegrees>
              <LongitudeDegrees>-1.9689491204917430877685546875</LongitudeDegrees>
            </Position>
            <AltitudeMeters>219.399993896484375</AltitudeMeters>
            <DistanceMeters>NAN</DistanceMeters>
          </Trackpoint>
          <Trackpoint>
            <Time>2021-08-13T10:02:53.000Z</Time>
            <Position>
              <LatitudeDegrees>43.1734040938317775726318359375</LatitudeDegrees>
              <LongitudeDegrees>-1.96891886182129383087158203125</LongitudeDegrees>
            </Position>
            <AltitudeMeters>219.399993896484375</AltitudeMeters>
            <DistanceMeters>NAN</DistanceMeters>
          </Trackpoint>
          <Trackpoint>
            <Time>2021-08-13T10:02:54.000Z</Time>
            <Position>
              <LatitudeDegrees>43.173383139073848724365234375</LatitudeDegrees>
              <LongitudeDegrees>-1.96888499893248081207275390625</LongitudeDegrees>
            </Position>
            <AltitudeMeters>219.399993896484375</AltitudeMeters>
            <DistanceMeters>NAN</DistanceMeters>
          </Trackpoint>
          <Trackpoint>
            <Time>2021-08-13T10:02:56.000Z</Time>
            <Position>
              <LatitudeDegrees>43.17336042411625385284423828125</LatitudeDegrees>
              <LongitudeDegrees>-1.96885549463331699371337890625</LongitudeDegrees>
            </Position>
            <AltitudeMeters>219.600006103515625</AltitudeMeters>
            <DistanceMeters>NAN</DistanceMeters>
          </Trackpoint>
          <Trackpoint>
            <Time>2021-08-13T10:02:57.000Z</Time>
            <Position>
              <LatitudeDegrees>43.17335673607885837554931640625</LatitudeDegrees>
              <LongitudeDegrees>-1.96885700337588787078857421875</LongitudeDegrees>
            </Position>
            <AltitudeMeters>219.600006103515625</AltitudeMeters>
            <DistanceMeters>NAN</DistanceMeters>
          </Trackpoint>
          <Trackpoint>
            <Time>2021-08-13T10:02:58.000Z</Time>
            <Position>
              <LatitudeDegrees>43.17334382794797420501708984375</LatitudeDegrees>
              <LongitudeDegrees>-1.96886002086102962493896484375</LongitudeDegrees>
            </Position>
            <AltitudeMeters>219.8000030517578125</AltitudeMeters>
            <DistanceMeters>NAN</DistanceMeters>
          </Trackpoint>
          <Trackpoint>
            <Time>2021-08-13T10:03:33.000Z</Time>
            <Position>
              <LatitudeDegrees>43.1735794432461261749267578125</LatitudeDegrees>
              <LongitudeDegrees>-1.967438869178295135498046875</LongitudeDegrees>
            </Position>
            <AltitudeMeters>221.1999969482421875</AltitudeMeters>
            <DistanceMeters>NAN</DistanceMeters>
          </Trackpoint>
          <Trackpoint>
            <Time>2021-08-13T10:03:34.000Z</Time>
            <Position>
              <LatitudeDegrees>43.1736304052174091339111328125</LatitudeDegrees>
              <LongitudeDegrees>-1.96734976954758167266845703125</LongitudeDegrees>
            </Position>
            <AltitudeMeters>221.1999969482421875</AltitudeMeters>
            <DistanceMeters>NAN</DistanceMeters>
          </Trackpoint>
          <Trackpoint>
            <Time>2021-08-13T10:03:36.000Z</Time>
            <Position>
              <LatitudeDegrees>43.17358673550188541412353515625</LatitudeDegrees>
              <LongitudeDegrees>-1.96728908456861972808837890625</LongitudeDegrees>
            </Position>
            <AltitudeMeters>221.1999969482421875</AltitudeMeters>
            <DistanceMeters>NAN</DistanceMeters>
          </Trackpoint>
          <Trackpoint>
            <Time>2021-08-13T10:03:37.000Z</Time>
            <Position>
              <LatitudeDegrees>43.17365328781306743621826171875</LatitudeDegrees>
              <LongitudeDegrees>-1.96724650450050830841064453125</LongitudeDegrees>
            </Position>
            <AltitudeMeters>221.1999969482421875</AltitudeMeters>
            <DistanceMeters>NAN</DistanceMeters>
          </Trackpoint>
          <Trackpoint>
            <Time>2021-08-13T10:03:38.000Z</Time>
            <Position>
              <LatitudeDegrees>43.17367759533226490020751953125</LatitudeDegrees>
              <LongitudeDegrees>-1.96723510511219501495361328125</LongitudeDegrees>
            </Position>
            <AltitudeMeters>221.1999969482421875</AltitudeMeters>
            <DistanceMeters>NAN</DistanceMeters>
          </Trackpoint>
          <Trackpoint>
            <Time>2021-08-13T10:03:39.000Z</Time>
            <Position>
              <LatitudeDegrees>43.1736967898905277252197265625</LatitudeDegrees>
              <LongitudeDegrees>-1.96721582673490047454833984375</LongitudeDegrees>
            </Position>
            <AltitudeMeters>221.1999969482421875</AltitudeMeters>
            <DistanceMeters>NAN</DistanceMeters>
          </Trackpoint>
          <Trackpoint>
            <Time>2021-08-13T10:03:40.000Z</Time>
            <Position>
              <LatitudeDegrees>43.173711709678173065185546875</LatitudeDegrees>
              <LongitudeDegrees>-1.96719042956829071044921875</LongitudeDegrees>
            </Position>
            <AltitudeMeters>221.1999969482421875</AltitudeMeters>
            <DistanceMeters>NAN</DistanceMeters>
          </Trackpoint>
          <Trackpoint>
            <Time>2021-08-13T10:03:41.000Z</Time>
            <Position>
              <LatitudeDegrees>43.173735849559307098388671875</LatitudeDegrees>
              <LongitudeDegrees>-1.96717224083840847015380859375</LongitudeDegrees>
            </Position>
            <AltitudeMeters>221.1999969482421875</AltitudeMeters>
            <DistanceMeters>NAN</DistanceMeters>
          </Trackpoint>
          <Trackpoint>
            <Time>2021-08-13T10:03:42.000Z</Time>
            <Position>
              <LatitudeDegrees>43.17375252954661846160888671875</LatitudeDegrees>
              <LongitudeDegrees>-1.9671570695936679840087890625</LongitudeDegrees>
            </Position>
            <AltitudeMeters>221.1999969482421875</AltitudeMeters>
            <DistanceMeters>NAN</DistanceMeters>
          </Trackpoint>
          <Trackpoint>
            <Time>2021-08-13T10:03:43.000Z</Time>
            <Position>
              <LatitudeDegrees>43.17377616651356220245361328125</LatitudeDegrees>
              <LongitudeDegrees>-1.96713854558765888214111328125</LongitudeDegrees>
            </Position>
            <AltitudeMeters>221.1999969482421875</AltitudeMeters>
            <DistanceMeters>NAN</DistanceMeters>
          </Trackpoint>
          <Trackpoint>
            <Time>2021-08-13T10:03:44.000Z</Time>
            <Position>
              <LatitudeDegrees>43.17380391061305999755859375</LatitudeDegrees>
              <LongitudeDegrees>-1.96711599826812744140625</LongitudeDegrees>
            </Position>
            <AltitudeMeters>221.1999969482421875</AltitudeMeters>
            <DistanceMeters>NAN</DistanceMeters>
          </Trackpoint>
          <Trackpoint>
            <Time>2021-08-13T10:03:45.000Z</Time>
            <Position>
              <LatitudeDegrees>43.17382863722741603851318359375</LatitudeDegrees>
              <LongitudeDegrees>-1.967089176177978515625</LongitudeDegrees>
            </Position>
            <AltitudeMeters>221.1999969482421875</AltitudeMeters>
            <DistanceMeters>NAN</DistanceMeters>
          </Trackpoint>
          <Trackpoint>
            <Time>2021-08-13T10:03:46.000Z</Time>
            <Position>
              <LatitudeDegrees>43.17385160364210605621337890625</LatitudeDegrees>
              <LongitudeDegrees>-1.96705137379467487335205078125</LongitudeDegrees>
            </Position>
            <AltitudeMeters>221</AltitudeMeters>
            <DistanceMeters>NAN</DistanceMeters>
          </Trackpoint>
          <Trackpoint>
            <Time>2021-08-13T10:03:51.000Z</Time>
            <Position>
              <LatitudeDegrees>43.1739445589482784271240234375</LatitudeDegrees>
              <LongitudeDegrees>-1.966889016330242156982421875</LongitudeDegrees>
            </Position>
            <AltitudeMeters>221</AltitudeMeters>
            <DistanceMeters>NAN</DistanceMeters>
          </Trackpoint>
          <Trackpoint>
            <Time>2021-08-13T10:03:52.000Z</Time>
            <Position>
              <LatitudeDegrees>43.17396760918200016021728515625</LatitudeDegrees>
              <LongitudeDegrees>-1.9668737612664699554443359375</LongitudeDegrees>
            </Position>
            <AltitudeMeters>221</AltitudeMeters>
            <DistanceMeters>NAN</DistanceMeters>
          </Trackpoint>
          <Trackpoint>
            <Time>2021-08-13T10:03:54.000Z</Time>
            <Position>
              <LatitudeDegrees>43.17400105297565460205078125</LatitudeDegrees>
              <LongitudeDegrees>-1.96682757697999477386474609375</LongitudeDegrees>
            </Position>
            <AltitudeMeters>221</AltitudeMeters>
            <DistanceMeters>NAN</DistanceMeters>
          </Trackpoint>
          <Trackpoint>
            <Time>2021-08-13T10:03:55.000Z</Time>
            <Position>
              <LatitudeDegrees>43.1740220077335834503173828125</LatitudeDegrees>
              <LongitudeDegrees>-1.96678181178867816925048828125</LongitudeDegrees>
            </Position>
            <AltitudeMeters>221.1999969482421875</AltitudeMeters>
            <DistanceMeters>NAN</DistanceMeters>
          </Trackpoint>
          <Trackpoint>
            <Time>2021-08-13T10:03:56.000Z</Time>
            <Position>
              <LatitudeDegrees>43.1740414537489414215087890625</LatitudeDegrees>
              <LongitudeDegrees>-1.966744177043437957763671875</LongitudeDegrees>
            </Position>
            <AltitudeMeters>221.1999969482421875</AltitudeMeters>
            <DistanceMeters>NAN</DistanceMeters>
          </Trackpoint>
          <Trackpoint>
            <Time>2021-08-13T10:03:57.000Z</Time>
            <Position>
              <LatitudeDegrees>43.17405872046947479248046875</LatitudeDegrees>
              <LongitudeDegrees>-1.96671039797365665435791015625</LongitudeDegrees>
            </Position>
            <AltitudeMeters>221.1999969482421875</AltitudeMeters>
            <DistanceMeters>NAN</DistanceMeters>
          </Trackpoint>
          <Trackpoint>
            <Time>2021-08-13T10:03:59.000Z</Time>
            <Position>
              <LatitudeDegrees>43.17409132607281208038330078125</LatitudeDegrees>
              <LongitudeDegrees>-1.96665558032691478729248046875</LongitudeDegrees>
            </Position>
            <AltitudeMeters>221.1999969482421875</AltitudeMeters>
            <DistanceMeters>NAN</DistanceMeters>
          </Trackpoint>
          <Trackpoint>
            <Time>2021-08-13T10:04:00.000Z</Time>
            <Position>
              <LatitudeDegrees>43.1741007976233959197998046875</LatitudeDegrees>
              <LongitudeDegrees>-1.96661249734461307525634765625</LongitudeDegrees>
            </Position>
            <AltitudeMeters>221.1999969482421875</AltitudeMeters>
            <DistanceMeters>NAN</DistanceMeters>
          </Trackpoint>
          <Trackpoint>
            <Time>2021-08-13T10:04:02.000Z</Time>
            <Position>
              <LatitudeDegrees>43.174136169254779815673828125</LatitudeDegrees>
              <LongitudeDegrees>-1.9665468670427799224853515625</LongitudeDegrees>
            </Position>
            <AltitudeMeters>221.1999969482421875</AltitudeMeters>
            <DistanceMeters>NAN</DistanceMeters>
          </Trackpoint>
          <Trackpoint>
            <Time>2021-08-13T10:04:07.000Z</Time>
            <Position>
              <LatitudeDegrees>43.1742546893656253814697265625</LatitudeDegrees>
              <LongitudeDegrees>-1.96636724285781383514404296875</LongitudeDegrees>
            </Position>
            <AltitudeMeters>221.1999969482421875</AltitudeMeters>
            <DistanceMeters>NAN</DistanceMeters>
          </Trackpoint>
          <Trackpoint>
            <Time>2021-08-13T10:04:15.000Z</Time>
            <Position>
              <LatitudeDegrees>43.174421489238739013671875</LatitudeDegrees>
              <LongitudeDegrees>-1.96607689373195171356201171875</LongitudeDegrees>
            </Position>
            <AltitudeMeters>221.1999969482421875</AltitudeMeters>
            <DistanceMeters>NAN</DistanceMeters>
          </Trackpoint>
          <Trackpoint>
            <Time>2021-08-13T10:04:17.000Z</Time>
            <Position>
              <LatitudeDegrees>43.17446147091686725616455078125</LatitudeDegrees>
              <LongitudeDegrees>-1.96601402945816516876220703125</LongitudeDegrees>
            </Position>
            <AltitudeMeters>221.1999969482421875</AltitudeMeters>
            <DistanceMeters>NAN</DistanceMeters>
          </Trackpoint>
          <Trackpoint>
            <Time>2021-08-13T10:04:21.000Z</Time>
            <Position>
              <LatitudeDegrees>43.17455970682203769683837890625</LatitudeDegrees>
              <LongitudeDegrees>-1.96587723679840564727783203125</LongitudeDegrees>
            </Position>
            <AltitudeMeters>221.1999969482421875</AltitudeMeters>
            <DistanceMeters>NAN</DistanceMeters>
          </Trackpoint>
          <Trackpoint>
            <Time>2021-08-13T10:04:22.000Z</Time>
            <Position>
              <LatitudeDegrees>43.17457906901836395263671875</LatitudeDegrees>
              <LongitudeDegrees>-1.9658538512885570526123046875</LongitudeDegrees>
            </Position>
            <AltitudeMeters>221</AltitudeMeters>
            <DistanceMeters>NAN</DistanceMeters>
          </Trackpoint>
          <Trackpoint>
            <Time>2021-08-13T10:04:23.000Z</Time>
            <Position>
              <LatitudeDegrees>43.17459926940500736236572265625</LatitudeDegrees>
              <LongitudeDegrees>-1.96582250297069549560546875</LongitudeDegrees>
            </Position>
            <AltitudeMeters>221</AltitudeMeters>
            <DistanceMeters>NAN</DistanceMeters>
          </Trackpoint>
          <Trackpoint>
            <Time>2021-08-13T10:04:24.000Z</Time>
            <Position>
              <LatitudeDegrees>43.17462424747645854949951171875</LatitudeDegrees>
              <LongitudeDegrees>-1.9657867960631847381591796875</LongitudeDegrees>
            </Position>
            <AltitudeMeters>221</AltitudeMeters>
            <DistanceMeters>NAN</DistanceMeters>
          </Trackpoint>
          <Trackpoint>
            <Time>2021-08-13T10:04:25.000Z</Time>
            <Position>
              <LatitudeDegrees>43.174646459519863128662109375</LatitudeDegrees>
              <LongitudeDegrees>-1.96575351990759372711181640625</LongitudeDegrees>
            </Position>
            <AltitudeMeters>221</AltitudeMeters>
            <DistanceMeters>NAN</DistanceMeters>
          </Trackpoint>
          <Trackpoint>
            <Time>2021-08-13T10:04:26.000Z</Time>
            <Position>
              <LatitudeDegrees>43.17467135377228260040283203125</LatitudeDegrees>
              <LongitudeDegrees>-1.96572602726519107818603515625</LongitudeDegrees>
            </Position>
            <AltitudeMeters>221</AltitudeMeters>
            <DistanceMeters>NAN</DistanceMeters>
          </Trackpoint>
          <Trackpoint>
            <Time>2021-08-13T10:04:27.000Z</Time>
            <Position>
              <LatitudeDegrees>43.174686692655086517333984375</LatitudeDegrees>
              <LongitudeDegrees>-1.9656996242702007293701171875</LongitudeDegrees>
            </Position>
            <AltitudeMeters>221</AltitudeMeters>
            <DistanceMeters>NAN</DistanceMeters>
          </Trackpoint>
          <Trackpoint>
            <Time>2021-08-13T10:04:29.000Z</Time>
            <Position>
              <LatitudeDegrees>43.174728937447071075439453125</LatitudeDegrees>
              <LongitudeDegrees>-1.96563206613063812255859375</LongitudeDegrees>
            </Position>
            <AltitudeMeters>221</AltitudeMeters>
            <DistanceMeters>NAN</DistanceMeters>
          </Trackpoint>
          <Trackpoint>
            <Time>2021-08-13T10:04:30.000Z</Time>
            <Position>
              <LatitudeDegrees>43.17474192939698696136474609375</LatitudeDegrees>
              <LongitudeDegrees>-1.96560851298272609710693359375</LongitudeDegrees>
            </Position>
            <AltitudeMeters>221</AltitudeMeters>
            <DistanceMeters>NAN</DistanceMeters>
          </Trackpoint>
          <Trackpoint>
            <Time>2021-08-13T10:04:31.000Z</Time>
            <Position>
              <LatitudeDegrees>43.1747505627572536468505859375</LatitudeDegrees>
              <LongitudeDegrees>-1.9655702076852321624755859375</LongitudeDegrees>
            </Position>
            <AltitudeMeters>221</AltitudeMeters>
            <DistanceMeters>NAN</DistanceMeters>
          </Trackpoint>
          <Trackpoint>
            <Time>2021-08-13T10:04:32.000Z</Time>
            <Position>
              <LatitudeDegrees>43.17476439289748668670654296875</LatitudeDegrees>
              <LongitudeDegrees>-1.965535171329975128173828125</LongitudeDegrees>
            </Position>
            <AltitudeMeters>220.8000030517578125</AltitudeMeters>
            <DistanceMeters>NAN</DistanceMeters>
          </Trackpoint>
          <Trackpoint>
            <Time>2021-08-13T10:04:33.000Z</Time>
            <Position>
              <LatitudeDegrees>43.17478165961802005767822265625</LatitudeDegrees>
              <LongitudeDegrees>-1.9655011408030986785888671875</LongitudeDegrees>
            </Position>
            <AltitudeMeters>220.8000030517578125</AltitudeMeters>
            <DistanceMeters>NAN</DistanceMeters>
          </Trackpoint>
          <Trackpoint>
            <Time>2021-08-13T10:04:34.000Z</Time>
            <Position>
              <LatitudeDegrees>43.17479389719665050506591796875</LatitudeDegrees>
              <LongitudeDegrees>-1.965456716716289520263671875</LongitudeDegrees>
            </Position>
            <AltitudeMeters>220.8000030517578125</AltitudeMeters>
            <DistanceMeters>NAN</DistanceMeters>
          </Trackpoint>
          <Trackpoint>
            <Time>2021-08-13T10:04:36.000Z</Time>
            <Position>
              <LatitudeDegrees>43.17479523830115795135498046875</LatitudeDegrees>
              <LongitudeDegrees>-1.9653918407857418060302734375</LongitudeDegrees>
            </Position>
            <AltitudeMeters>220.8000030517578125</AltitudeMeters>
            <DistanceMeters>NAN</DistanceMeters>
          </Trackpoint>
          <Trackpoint>
            <Time>2021-08-13T10:04:37.000Z</Time>
            <Position>
              <LatitudeDegrees>43.17479423247277736663818359375</LatitudeDegrees>
              <LongitudeDegrees>-1.965351440012454986572265625</LongitudeDegrees>
            </Position>
            <AltitudeMeters>220.8000030517578125</AltitudeMeters>
            <DistanceMeters>NAN</DistanceMeters>
          </Trackpoint>
          <Trackpoint>
            <Time>2021-08-13T10:04:38.000Z</Time>
            <Position>
              <LatitudeDegrees>43.174787275493144989013671875</LatitudeDegrees>
              <LongitudeDegrees>-1.965304501354694366455078125</LongitudeDegrees>
            </Position>
            <AltitudeMeters>220.8000030517578125</AltitudeMeters>
            <DistanceMeters>NAN</DistanceMeters>
          </Trackpoint>
          <Trackpoint>
            <Time>2021-08-13T10:04:39.000Z</Time>
            <Position>
              <LatitudeDegrees>43.17477352917194366455078125</LatitudeDegrees>
              <LongitudeDegrees>-1.9652433134615421295166015625</LongitudeDegrees>
            </Position>
            <AltitudeMeters>220.8000030517578125</AltitudeMeters>
            <DistanceMeters>NAN</DistanceMeters>
          </Trackpoint>
          <Trackpoint>
            <Time>2021-08-13T10:04:41.000Z</Time>
            <Position>
              <LatitudeDegrees>43.1747586093842983245849609375</LatitudeDegrees>
              <LongitudeDegrees>-1.965152285993099212646484375</LongitudeDegrees>
            </Position>
            <AltitudeMeters>220.8000030517578125</AltitudeMeters>
            <DistanceMeters>NAN</DistanceMeters>
          </Trackpoint>
          <Trackpoint>
            <Time>2021-08-13T10:04:43.000Z</Time>
            <Position>
              <LatitudeDegrees>43.17473824135959148406982421875</LatitudeDegrees>
              <LongitudeDegrees>-1.9650833867490291595458984375</LongitudeDegrees>
            </Position>
            <AltitudeMeters>221</AltitudeMeters>
            <DistanceMeters>NAN</DistanceMeters>
          </Trackpoint>
          <Trackpoint>
            <Time>2021-08-13T10:04:44.000Z</Time>
            <Position>
              <LatitudeDegrees>43.1747240759432315826416015625</LatitudeDegrees>
              <LongitudeDegrees>-1.965040974318981170654296875</LongitudeDegrees>
            </Position>
            <AltitudeMeters>221</AltitudeMeters>
            <DistanceMeters>NAN</DistanceMeters>
          </Trackpoint>
          <Trackpoint>
            <Time>2021-08-13T10:04:45.000Z</Time>
            <Position>
              <LatitudeDegrees>43.174710161983966827392578125</LatitudeDegrees>
              <LongitudeDegrees>-1.96500300429761409759521484375</LongitudeDegrees>
            </Position>
            <AltitudeMeters>221</AltitudeMeters>
            <DistanceMeters>NAN</DistanceMeters>
          </Trackpoint>
          <Trackpoint>
            <Time>2021-08-13T10:04:46.000Z</Time>
            <Position>
              <LatitudeDegrees>43.17469666711986064910888671875</LatitudeDegrees>
              <LongitudeDegrees>-1.96496562100946903228759765625</LongitudeDegrees>
            </Position>
            <AltitudeMeters>221.1999969482421875</AltitudeMeters>
            <DistanceMeters>NAN</DistanceMeters>
          </Trackpoint>
          <Trackpoint>
            <Time>2021-08-13T10:04:49.000Z</Time>
            <Position>
              <LatitudeDegrees>43.17464754916727542877197265625</LatitudeDegrees>
              <LongitudeDegrees>-1.96485447697341442108154296875</LongitudeDegrees>
            </Position>
            <AltitudeMeters>221.1999969482421875</AltitudeMeters>
            <DistanceMeters>NAN</DistanceMeters>
          </Trackpoint>
          <Trackpoint>
            <Time>2021-08-13T10:04:51.000Z</Time>
            <Position>
              <LatitudeDegrees>43.174610249698162078857421875</LatitudeDegrees>
              <LongitudeDegrees>-1.9647836498916149139404296875</LongitudeDegrees>
            </Position>
            <AltitudeMeters>221.399993896484375</AltitudeMeters>
            <DistanceMeters>NAN</DistanceMeters>
          </Trackpoint>
          <Trackpoint>
            <Time>2021-08-13T10:04:52.000Z</Time>
            <Position>
              <LatitudeDegrees>43.17459239624440670013427734375</LatitudeDegrees>
              <LongitudeDegrees>-1.96475003845989704132080078125</LongitudeDegrees>
            </Position>
            <AltitudeMeters>221.399993896484375</AltitudeMeters>
            <DistanceMeters>NAN</DistanceMeters>
          </Trackpoint>
          <Trackpoint>
            <Time>2021-08-13T10:04:53.000Z</Time>
            <Position>
              <LatitudeDegrees>43.1745765544474124908447265625</LatitudeDegrees>
              <LongitudeDegrees>-1.9647226296365261077880859375</LongitudeDegrees>
            </Position>
            <AltitudeMeters>221.399993896484375</AltitudeMeters>
            <DistanceMeters>NAN</DistanceMeters>
          </Trackpoint>
          <Trackpoint>
            <Time>2021-08-13T10:04:56.000Z</Time>
            <Position>
              <LatitudeDegrees>43.17449969239532947540283203125</LatitudeDegrees>
              <LongitudeDegrees>-1.96462489664554595947265625</LongitudeDegrees>
            </Position>
            <AltitudeMeters>221.399993896484375</AltitudeMeters>
            <DistanceMeters>NAN</DistanceMeters>
          </Trackpoint>
          <Trackpoint>
            <Time>2021-08-13T10:05:04.000Z</Time>
            <Position>
              <LatitudeDegrees>43.174249492585659027099609375</LatitudeDegrees>
              <LongitudeDegrees>-1.9644433446228504180908203125</LongitudeDegrees>
            </Position>
            <AltitudeMeters>222.1999969482421875</AltitudeMeters>
            <DistanceMeters>NAN</DistanceMeters>
          </Trackpoint>
          <Trackpoint>
            <Time>2021-08-13T10:05:07.000Z</Time>
            <Position>
              <LatitudeDegrees>43.1741608120501041412353515625</LatitudeDegrees>
              <LongitudeDegrees>-1.96439263410866260528564453125</LongitudeDegrees>
            </Position>
            <AltitudeMeters>222.600006103515625</AltitudeMeters>
            <DistanceMeters>NAN</DistanceMeters>
          </Trackpoint>
          <Trackpoint>
            <Time>2021-08-13T10:05:09.000Z</Time>
            <Position>
              <LatitudeDegrees>43.17410239018499851226806640625</LatitudeDegrees>
              <LongitudeDegrees>-1.96436162106692790985107421875</LongitudeDegrees>
            </Position>
            <AltitudeMeters>222.600006103515625</AltitudeMeters>
            <DistanceMeters>NAN</DistanceMeters>
          </Trackpoint>
          <Trackpoint>
            <Time>2021-08-13T10:05:10.000Z</Time>
            <Position>
              <LatitudeDegrees>43.174071125686168670654296875</LatitudeDegrees>
              <LongitudeDegrees>-1.9643437676131725311279296875</LongitudeDegrees>
            </Position>
            <AltitudeMeters>222.600006103515625</AltitudeMeters>
            <DistanceMeters>NAN</DistanceMeters>
          </Trackpoint>
          <Trackpoint>
            <Time>2021-08-13T10:05:11.000Z</Time>
            <Position>
              <LatitudeDegrees>43.17405360750854015350341796875</LatitudeDegrees>
              <LongitudeDegrees>-1.9643290154635906219482421875</LongitudeDegrees>
            </Position>
            <AltitudeMeters>222.8000030517578125</AltitudeMeters>
            <DistanceMeters>NAN</DistanceMeters>
          </Trackpoint>
          <Trackpoint>
            <Time>2021-08-13T10:05:12.000Z</Time>
            <Position>
              <LatitudeDegrees>43.17403600551187992095947265625</LatitudeDegrees>
              <LongitudeDegrees>-1.9643105752766132354736328125</LongitudeDegrees>
            </Position>
            <AltitudeMeters>222.8000030517578125</AltitudeMeters>
            <DistanceMeters>NAN</DistanceMeters>
          </Trackpoint>
          <Trackpoint>
            <Time>2021-08-13T10:05:13.000Z</Time>
            <Position>
              <LatitudeDegrees>43.1740163080394268035888671875</LatitudeDegrees>
              <LongitudeDegrees>-1.96429423056542873382568359375</LongitudeDegrees>
            </Position>
            <AltitudeMeters>222.8000030517578125</AltitudeMeters>
            <DistanceMeters>NAN</DistanceMeters>
          </Trackpoint>
          <Trackpoint>
            <Time>2021-08-13T10:05:14.000Z</Time>
            <Position>
              <LatitudeDegrees>43.17399594001471996307373046875</LatitudeDegrees>
              <LongitudeDegrees>-1.96427579037845134735107421875</LongitudeDegrees>
            </Position>
            <AltitudeMeters>223</AltitudeMeters>
            <DistanceMeters>NAN</DistanceMeters>
          </Trackpoint>
          <Trackpoint>
            <Time>2021-08-13T10:05:15.000Z</Time>
            <Position>
              <LatitudeDegrees>43.17397548817098140716552734375</LatitudeDegrees>
              <LongitudeDegrees>-1.964255087077617645263671875</LongitudeDegrees>
            </Position>
            <AltitudeMeters>223</AltitudeMeters>
            <DistanceMeters>NAN</DistanceMeters>
          </Trackpoint>
          <Trackpoint>
            <Time>2021-08-13T10:05:16.000Z</Time>
            <Position>
              <LatitudeDegrees>43.17396392114460468292236328125</LatitudeDegrees>
              <LongitudeDegrees>-1.9642455317080020904541015625</LongitudeDegrees>
            </Position>
            <AltitudeMeters>223</AltitudeMeters>
            <DistanceMeters>NAN</DistanceMeters>
          </Trackpoint>
          <Trackpoint>
            <Time>2021-08-13T10:05:20.000Z</Time>
            <Position>
              <LatitudeDegrees>43.17385244183242321014404296875</LatitudeDegrees>
              <LongitudeDegrees>-1.96418409235775470733642578125</LongitudeDegrees>
            </Position>
            <AltitudeMeters>223.399993896484375</AltitudeMeters>
            <DistanceMeters>NAN</DistanceMeters>
          </Trackpoint>
          <Trackpoint>
            <Time>2021-08-13T10:05:21.000Z</Time>
            <Position>
              <LatitudeDegrees>43.17383165471255779266357421875</LatitudeDegrees>
              <LongitudeDegrees>-1.9641724415123462677001953125</LongitudeDegrees>
            </Position>
            <AltitudeMeters>223.399993896484375</AltitudeMeters>
            <DistanceMeters>NAN</DistanceMeters>
          </Trackpoint>
          <Trackpoint>
            <Time>2021-08-13T10:05:22.000Z</Time>
            <Position>
              <LatitudeDegrees>43.17381195724010467529296875</LatitudeDegrees>
              <LongitudeDegrees>-1.9641546718776226043701171875</LongitudeDegrees>
            </Position>
            <AltitudeMeters>223.399993896484375</AltitudeMeters>
            <DistanceMeters>NAN</DistanceMeters>
          </Trackpoint>
          <Trackpoint>
            <Time>2021-08-13T10:05:23.000Z</Time>
            <Position>
              <LatitudeDegrees>43.17378505133092403411865234375</LatitudeDegrees>
              <LongitudeDegrees>-1.964136399328708648681640625</LongitudeDegrees>
            </Position>
            <AltitudeMeters>223.600006103515625</AltitudeMeters>
            <DistanceMeters>NAN</DistanceMeters>
          </Trackpoint>
          <Trackpoint>
            <Time>2021-08-13T10:05:28.000Z</Time>
            <Position>
              <LatitudeDegrees>43.17360266111791133880615234375</LatitudeDegrees>
              <LongitudeDegrees>-1.9640554301440715789794921875</LongitudeDegrees>
            </Position>
            <AltitudeMeters>223.8000030517578125</AltitudeMeters>
            <DistanceMeters>NAN</DistanceMeters>
          </Trackpoint>
          <Trackpoint>
            <Time>2021-08-13T10:05:33.000Z</Time>
            <Position>
              <LatitudeDegrees>43.1734262220561504364013671875</LatitudeDegrees>
              <LongitudeDegrees>-1.96396834217011928558349609375</LongitudeDegrees>
            </Position>
            <AltitudeMeters>224.1999969482421875</AltitudeMeters>
            <DistanceMeters>NAN</DistanceMeters>
          </Trackpoint>
          <Trackpoint>
            <Time>2021-08-13T10:05:36.000Z</Time>
            <Position>
              <LatitudeDegrees>43.1732974760234355926513671875</LatitudeDegrees>
              <LongitudeDegrees>-1.963878236711025238037109375</LongitudeDegrees>
            </Position>
            <AltitudeMeters>224.600006103515625</AltitudeMeters>
            <DistanceMeters>NAN</DistanceMeters>
          </Trackpoint>
          <Trackpoint>
            <Time>2021-08-13T10:05:38.000Z</Time>
            <Position>
              <LatitudeDegrees>43.1732260622084140777587890625</LatitudeDegrees>
              <LongitudeDegrees>-1.96386373601853847503662109375</LongitudeDegrees>
            </Position>
            <AltitudeMeters>224.8000030517578125</AltitudeMeters>
            <DistanceMeters>NAN</DistanceMeters>
          </Trackpoint>
          <Trackpoint>
            <Time>2021-08-13T10:05:39.000Z</Time>
            <Position>
              <LatitudeDegrees>43.1731891818344593048095703125</LatitudeDegrees>
              <LongitudeDegrees>-1.9638341479003429412841796875</LongitudeDegrees>
            </Position>
            <AltitudeMeters>224.8000030517578125</AltitudeMeters>
            <DistanceMeters>NAN</DistanceMeters>
          </Trackpoint>
          <Trackpoint>
            <Time>2021-08-13T10:05:40.000Z</Time>
            <Position>
              <LatitudeDegrees>43.1731610186398029327392578125</LatitudeDegrees>
              <LongitudeDegrees>-1.96380011737346649169921875</LongitudeDegrees>
            </Position>
            <AltitudeMeters>225</AltitudeMeters>
            <DistanceMeters>NAN</DistanceMeters>
          </Trackpoint>
          <Trackpoint>
            <Time>2021-08-13T10:05:41.000Z</Time>
            <Position>
              <LatitudeDegrees>43.173135705292224884033203125</LatitudeDegrees>
              <LongitudeDegrees>-1.96377865970134735107421875</LongitudeDegrees>
            </Position>
            <AltitudeMeters>225</AltitudeMeters>
            <DistanceMeters>NAN</DistanceMeters>
          </Trackpoint>
          <Trackpoint>
            <Time>2021-08-13T10:05:44.000Z</Time>
            <Position>
              <LatitudeDegrees>43.1730319373309612274169921875</LatitudeDegrees>
              <LongitudeDegrees>-1.96368855424225330352783203125</LongitudeDegrees>
            </Position>
            <AltitudeMeters>225.1999969482421875</AltitudeMeters>
            <DistanceMeters>NAN</DistanceMeters>
          </Trackpoint>
          <Trackpoint>
            <Time>2021-08-13T10:05:45.000Z</Time>
            <Position>
              <LatitudeDegrees>43.17299329675734043121337890625</LatitudeDegrees>
              <LongitudeDegrees>-1.9636611454188823699951171875</LongitudeDegrees>
            </Position>
            <AltitudeMeters>225.399993896484375</AltitudeMeters>
            <DistanceMeters>NAN</DistanceMeters>
          </Trackpoint>
          <Trackpoint>
            <Time>2021-08-13T10:05:46.000Z</Time>
            <Position>
              <LatitudeDegrees>43.17295708693563938140869140625</LatitudeDegrees>
              <LongitudeDegrees>-1.96363809518516063690185546875</LongitudeDegrees>
            </Position>
            <AltitudeMeters>225.399993896484375</AltitudeMeters>
            <DistanceMeters>NAN</DistanceMeters>
          </Trackpoint>
          <Trackpoint>
            <Time>2021-08-13T10:05:49.000Z</Time>
            <Position>
              <LatitudeDegrees>43.17288248799741268157958984375</LatitudeDegrees>
              <LongitudeDegrees>-1.96357640437781810760498046875</LongitudeDegrees>
            </Position>
            <AltitudeMeters>225.600006103515625</AltitudeMeters>
            <DistanceMeters>NAN</DistanceMeters>
          </Trackpoint>
          <Trackpoint>
            <Time>2021-08-13T10:05:50.000Z</Time>
            <Position>
              <LatitudeDegrees>43.17285348661243915557861328125</LatitudeDegrees>
              <LongitudeDegrees>-1.96356332860887050628662109375</LongitudeDegrees>
            </Position>
            <AltitudeMeters>225.600006103515625</AltitudeMeters>
            <DistanceMeters>NAN</DistanceMeters>
          </Trackpoint>
          <Trackpoint>
            <Time>2021-08-13T10:05:51.000Z</Time>
            <Position>
              <LatitudeDegrees>43.17282414995133876800537109375</LatitudeDegrees>
              <LongitudeDegrees>-1.96356408298015594482421875</LongitudeDegrees>
            </Position>
            <AltitudeMeters>225.600006103515625</AltitudeMeters>
            <DistanceMeters>NAN</DistanceMeters>
          </Trackpoint>
          <Trackpoint>
            <Time>2021-08-13T10:05:52.000Z</Time>
            <Position>
              <LatitudeDegrees>43.17278726957738399505615234375</LatitudeDegrees>
              <LongitudeDegrees>-1.96356785483658313751220703125</LongitudeDegrees>
            </Position>
            <AltitudeMeters>225.600006103515625</AltitudeMeters>
            <DistanceMeters>NAN</DistanceMeters>
          </Trackpoint>
          <Trackpoint>
            <Time>2021-08-13T10:05:53.000Z</Time>
            <Position>
              <LatitudeDegrees>43.1727553345263004302978515625</LatitudeDegrees>
              <LongitudeDegrees>-1.96356014348566532135009765625</LongitudeDegrees>
            </Position>
            <AltitudeMeters>225.8000030517578125</AltitudeMeters>
            <DistanceMeters>NAN</DistanceMeters>
          </Trackpoint>
          <Trackpoint>
            <Time>2021-08-13T10:05:55.000Z</Time>
            <Position>
              <LatitudeDegrees>43.17270663566887378692626953125</LatitudeDegrees>
              <LongitudeDegrees>-1.96352862752974033355712890625</LongitudeDegrees>
            </Position>
            <AltitudeMeters>226.1999969482421875</AltitudeMeters>
            <DistanceMeters>NAN</DistanceMeters>
          </Trackpoint>
          <Trackpoint>
            <Time>2021-08-13T10:05:56.000Z</Time>
            <Position>
              <LatitudeDegrees>43.17269909195601940155029296875</LatitudeDegrees>
              <LongitudeDegrees>-1.96352225728332996368408203125</LongitudeDegrees>
            </Position>
            <AltitudeMeters>226.1999969482421875</AltitudeMeters>
            <DistanceMeters>NAN</DistanceMeters>
          </Trackpoint>
          <Trackpoint>
            <Time>2021-08-13T10:05:57.000Z</Time>
            <Position>
              <LatitudeDegrees>43.1727003492414951324462890625</LatitudeDegrees>
              <LongitudeDegrees>-1.96352544240653514862060546875</LongitudeDegrees>
            </Position>
            <AltitudeMeters>226.1999969482421875</AltitudeMeters>
            <DistanceMeters>NAN</DistanceMeters>
          </Trackpoint>
          <Trackpoint>
            <Time>2021-08-13T10:06:14.000Z</Time>
            <Position>
              <LatitudeDegrees>43.17233162932097911834716796875</LatitudeDegrees>
              <LongitudeDegrees>-1.96268859319388866424560546875</LongitudeDegrees>
            </Position>
            <AltitudeMeters>228</AltitudeMeters>
            <DistanceMeters>NAN</DistanceMeters>
          </Trackpoint>
          <Trackpoint>
            <Time>2021-08-13T10:06:15.000Z</Time>
            <Position>
              <LatitudeDegrees>43.17230916582047939300537109375</LatitudeDegrees>
              <LongitudeDegrees>-1.96270653046667575836181640625</LongitudeDegrees>
            </Position>
            <AltitudeMeters>228</AltitudeMeters>
            <DistanceMeters>NAN</DistanceMeters>
          </Trackpoint>
          <Trackpoint>
            <Time>2021-08-13T10:06:16.000Z</Time>
            <Position>
              <LatitudeDegrees>43.1722931563854217529296875</LatitudeDegrees>
              <LongitudeDegrees>-1.96269881911575794219970703125</LongitudeDegrees>
            </Position>
            <AltitudeMeters>228.1999969482421875</AltitudeMeters>
            <DistanceMeters>NAN</DistanceMeters>
          </Trackpoint>
          <Trackpoint>
            <Time>2021-08-13T10:06:17.000Z</Time>
            <Position>
              <LatitudeDegrees>43.1722770631313323974609375</LatitudeDegrees>
              <LongitudeDegrees>-1.9626496173441410064697265625</LongitudeDegrees>
            </Position>
            <AltitudeMeters>228.1999969482421875</AltitudeMeters>
            <DistanceMeters>NAN</DistanceMeters>
          </Trackpoint>
          <Trackpoint>
            <Time>2021-08-13T10:06:18.000Z</Time>
            <Position>
              <LatitudeDegrees>43.1722403503954410552978515625</LatitudeDegrees>
              <LongitudeDegrees>-1.96262790821492671966552734375</LongitudeDegrees>
            </Position>
            <AltitudeMeters>228.1999969482421875</AltitudeMeters>
            <DistanceMeters>NAN</DistanceMeters>
          </Trackpoint>
          <Trackpoint>
            <Time>2021-08-13T10:06:19.000Z</Time>
            <Position>
              <LatitudeDegrees>43.1722299568355083465576171875</LatitudeDegrees>
              <LongitudeDegrees>-1.9625795446336269378662109375</LongitudeDegrees>
            </Position>
            <AltitudeMeters>228.1999969482421875</AltitudeMeters>
            <DistanceMeters>NAN</DistanceMeters>
          </Trackpoint>
          <Trackpoint>
            <Time>2021-08-13T10:06:20.000Z</Time>
            <Position>
              <LatitudeDegrees>43.17219852469861507415771484375</LatitudeDegrees>
              <LongitudeDegrees>-1.96253721602261066436767578125</LongitudeDegrees>
            </Position>
            <AltitudeMeters>228.1999969482421875</AltitudeMeters>
            <DistanceMeters>NAN</DistanceMeters>
          </Trackpoint>
          <Trackpoint>
            <Time>2021-08-13T10:06:21.000Z</Time>
            <Position>
              <LatitudeDegrees>43.1721779890358448028564453125</LatitudeDegrees>
              <LongitudeDegrees>-1.96249497123062610626220703125</LongitudeDegrees>
            </Position>
            <AltitudeMeters>228.1999969482421875</AltitudeMeters>
            <DistanceMeters>NAN</DistanceMeters>
          </Trackpoint>
          <Trackpoint>
            <Time>2021-08-13T10:06:22.000Z</Time>
            <Position>
              <LatitudeDegrees>43.17216105759143829345703125</LatitudeDegrees>
              <LongitudeDegrees>-1.96245406754314899444580078125</LongitudeDegrees>
            </Position>
            <AltitudeMeters>228.1999969482421875</AltitudeMeters>
            <DistanceMeters>NAN</DistanceMeters>
          </Trackpoint>
          <Trackpoint>
            <Time>2021-08-13T10:06:23.000Z</Time>
            <Position>
              <LatitudeDegrees>43.172140605747699737548828125</LatitudeDegrees>
              <LongitudeDegrees>-1.9624127447605133056640625</LongitudeDegrees>
            </Position>
            <AltitudeMeters>228.1999969482421875</AltitudeMeters>
            <DistanceMeters>NAN</DistanceMeters>
          </Trackpoint>
          <Trackpoint>
            <Time>2021-08-13T10:06:24.000Z</Time>
            <Position>
              <LatitudeDegrees>43.1721260212361812591552734375</LatitudeDegrees>
              <LongitudeDegrees>-1.96236186660826206207275390625</LongitudeDegrees>
            </Position>
            <AltitudeMeters>228.1999969482421875</AltitudeMeters>
            <DistanceMeters>NAN</DistanceMeters>
          </Trackpoint>
          <Trackpoint>
            <Time>2021-08-13T10:06:25.000Z</Time>
            <Position>
              <LatitudeDegrees>43.17210850305855274200439453125</LatitudeDegrees>
              <LongitudeDegrees>-1.96229916997253894805908203125</LongitudeDegrees>
            </Position>
            <AltitudeMeters>228.1999969482421875</AltitudeMeters>
            <DistanceMeters>NAN</DistanceMeters>
          </Trackpoint>
          <Trackpoint>
            <Time>2021-08-13T10:06:26.000Z</Time>
            <Position>
              <LatitudeDegrees>43.17208805121481418609619140625</LatitudeDegrees>
              <LongitudeDegrees>-1.9622462801635265350341796875</LongitudeDegrees>
            </Position>
            <AltitudeMeters>228.1999969482421875</AltitudeMeters>
            <DistanceMeters>NAN</DistanceMeters>
          </Trackpoint>
          <Trackpoint>
            <Time>2021-08-13T10:06:27.000Z</Time>
            <Position>
              <LatitudeDegrees>43.17207229323685169219970703125</LatitudeDegrees>
              <LongitudeDegrees>-1.96220143698155879974365234375</LongitudeDegrees>
            </Position>
            <AltitudeMeters>228.1999969482421875</AltitudeMeters>
            <DistanceMeters>NAN</DistanceMeters>
          </Trackpoint>
          <Trackpoint>
            <Time>2021-08-13T10:06:28.000Z</Time>
            <Position>
              <LatitudeDegrees>43.172066174447536468505859375</LatitudeDegrees>
              <LongitudeDegrees>-1.96216254495084285736083984375</LongitudeDegrees>
            </Position>
            <AltitudeMeters>228.1999969482421875</AltitudeMeters>
            <DistanceMeters>NAN</DistanceMeters>
          </Trackpoint>
          <Trackpoint>
            <Time>2021-08-13T10:06:29.000Z</Time>
            <Position>
              <LatitudeDegrees>43.17205670289695262908935546875</LatitudeDegrees>
              <LongitudeDegrees>-1.96211376227438449859619140625</LongitudeDegrees>
            </Position>
            <AltitudeMeters>228.1999969482421875</AltitudeMeters>
            <DistanceMeters>NAN</DistanceMeters>
          </Trackpoint>
          <Trackpoint>
            <Time>2021-08-13T10:06:30.000Z</Time>
            <Position>
              <LatitudeDegrees>43.1720383465290069580078125</LatitudeDegrees>
              <LongitudeDegrees>-1.962057016789913177490234375</LongitudeDegrees>
            </Position>
            <AltitudeMeters>228.399993896484375</AltitudeMeters>
            <DistanceMeters>NAN</DistanceMeters>
          </Trackpoint>
          <Trackpoint>
            <Time>2021-08-13T10:06:31.000Z</Time>
            <Position>
              <LatitudeDegrees>43.17202719859778881072998046875</LatitudeDegrees>
              <LongitudeDegrees>-1.96201234124600887298583984375</LongitudeDegrees>
            </Position>
            <AltitudeMeters>228.399993896484375</AltitudeMeters>
            <DistanceMeters>NAN</DistanceMeters>
          </Trackpoint>
          <Trackpoint>
            <Time>2021-08-13T10:06:32.000Z</Time>
            <Position>
              <LatitudeDegrees>43.1720080040395259857177734375</LatitudeDegrees>
              <LongitudeDegrees>-1.9619683362543582916259765625</LongitudeDegrees>
            </Position>
            <AltitudeMeters>228.399993896484375</AltitudeMeters>
            <DistanceMeters>NAN</DistanceMeters>
          </Trackpoint>
          <Trackpoint>
            <Time>2021-08-13T10:06:33.000Z</Time>
            <Position>
              <LatitudeDegrees>43.1719862110912799835205078125</LatitudeDegrees>
              <LongitudeDegrees>-1.96193598210811614990234375</LongitudeDegrees>
            </Position>
            <AltitudeMeters>228.600006103515625</AltitudeMeters>
            <DistanceMeters>NAN</DistanceMeters>
          </Trackpoint>
          <Trackpoint>
            <Time>2021-08-13T10:06:34.000Z</Time>
            <Position>
              <LatitudeDegrees>43.17195209674537181854248046875</LatitudeDegrees>
              <LongitudeDegrees>-1.96188325993716716766357421875</LongitudeDegrees>
            </Position>
            <AltitudeMeters>228.600006103515625</AltitudeMeters>
            <DistanceMeters>NAN</DistanceMeters>
          </Trackpoint>
          <Trackpoint>
            <Time>2021-08-13T10:06:35.000Z</Time>
            <Position>
              <LatitudeDegrees>43.17193566821515560150146484375</LatitudeDegrees>
              <LongitudeDegrees>-1.961839087307453155517578125</LongitudeDegrees>
            </Position>
            <AltitudeMeters>228.600006103515625</AltitudeMeters>
            <DistanceMeters>NAN</DistanceMeters>
          </Trackpoint>
          <Trackpoint>
            <Time>2021-08-13T10:06:36.000Z</Time>
            <Position>
              <LatitudeDegrees>43.171916641294956207275390625</LatitudeDegrees>
              <LongitudeDegrees>-1.9617976807057857513427734375</LongitudeDegrees>
            </Position>
            <AltitudeMeters>228.600006103515625</AltitudeMeters>
            <DistanceMeters>NAN</DistanceMeters>
          </Trackpoint>
          <Trackpoint>
            <Time>2021-08-13T10:06:37.000Z</Time>
            <Position>
              <LatitudeDegrees>43.1719017215073108673095703125</LatitudeDegrees>
              <LongitudeDegrees>-1.96175551973283290863037109375</LongitudeDegrees>
            </Position>
            <AltitudeMeters>228.600006103515625</AltitudeMeters>
            <DistanceMeters>NAN</DistanceMeters>
          </Trackpoint>
          <Trackpoint>
            <Time>2021-08-13T10:06:39.000Z</Time>
            <Position>
              <LatitudeDegrees>43.17188671790063381195068359375</LatitudeDegrees>
              <LongitudeDegrees>-1.96167622692883014678955078125</LongitudeDegrees>
            </Position>
            <AltitudeMeters>228.600006103515625</AltitudeMeters>
            <DistanceMeters>NAN</DistanceMeters>
          </Trackpoint>
          <Trackpoint>
            <Time>2021-08-13T10:06:40.000Z</Time>
            <Position>
              <LatitudeDegrees>43.17187900654971599578857421875</LatitudeDegrees>
              <LongitudeDegrees>-1.961635909974575042724609375</LongitudeDegrees>
            </Position>
            <AltitudeMeters>228.600006103515625</AltitudeMeters>
            <DistanceMeters>NAN</DistanceMeters>
          </Trackpoint>
          <Trackpoint>
            <Time>2021-08-13T10:06:41.000Z</Time>
            <Position>
              <LatitudeDegrees>43.1718661822378635406494140625</LatitudeDegrees>
              <LongitudeDegrees>-1.961599700152873992919921875</LongitudeDegrees>
            </Position>
            <AltitudeMeters>228.600006103515625</AltitudeMeters>
            <DistanceMeters>NAN</DistanceMeters>
          </Trackpoint>
          <Trackpoint>
            <Time>2021-08-13T10:06:42.000Z</Time>
            <Position>
              <LatitudeDegrees>43.1718510948121547698974609375</LatitudeDegrees>
              <LongitudeDegrees>-1.9615613110363483428955078125</LongitudeDegrees>
            </Position>
            <AltitudeMeters>228.600006103515625</AltitudeMeters>
            <DistanceMeters>NAN</DistanceMeters>
          </Trackpoint>
          <Trackpoint>
            <Time>2021-08-13T10:06:43.000Z</Time>
            <Position>
              <LatitudeDegrees>43.1718319840729236602783203125</LatitudeDegrees>
              <LongitudeDegrees>-1.961526609957218170166015625</LongitudeDegrees>
            </Position>
            <AltitudeMeters>228.600006103515625</AltitudeMeters>
            <DistanceMeters>NAN</DistanceMeters>
          </Trackpoint>
          <Trackpoint>
            <Time>2021-08-13T10:06:44.000Z</Time>
            <Position>
              <LatitudeDegrees>43.17181111313402652740478515625</LatitudeDegrees>
              <LongitudeDegrees>-1.96149987168610095977783203125</LongitudeDegrees>
            </Position>
            <AltitudeMeters>228.600006103515625</AltitudeMeters>
            <DistanceMeters>NAN</DistanceMeters>
          </Trackpoint>
          <Trackpoint>
            <Time>2021-08-13T10:06:45.000Z</Time>
            <Position>
              <LatitudeDegrees>43.1717813573777675628662109375</LatitudeDegrees>
              <LongitudeDegrees>-1.96146165020763874053955078125</LongitudeDegrees>
            </Position>
            <AltitudeMeters>228.600006103515625</AltitudeMeters>
            <DistanceMeters>NAN</DistanceMeters>
          </Trackpoint>
          <Trackpoint>
            <Time>2021-08-13T10:06:52.000Z</Time>
            <Position>
              <LatitudeDegrees>43.17160123027861118316650390625</LatitudeDegrees>
              <LongitudeDegrees>-1.961191333830356597900390625</LongitudeDegrees>
            </Position>
            <AltitudeMeters>229</AltitudeMeters>
            <DistanceMeters>NAN</DistanceMeters>
          </Trackpoint>
          <Trackpoint>
            <Time>2021-08-13T10:06:55.000Z</Time>
            <Position>
              <LatitudeDegrees>43.17152378149330615997314453125</LatitudeDegrees>
              <LongitudeDegrees>-1.961063928902149200439453125</LongitudeDegrees>
            </Position>
            <AltitudeMeters>229</AltitudeMeters>
            <DistanceMeters>NAN</DistanceMeters>
          </Trackpoint>
          <Trackpoint>
            <Time>2021-08-13T10:06:59.000Z</Time>
            <Position>
              <LatitudeDegrees>43.171415068209171295166015625</LatitudeDegrees>
              <LongitudeDegrees>-1.9609316624701023101806640625</LongitudeDegrees>
            </Position>
            <AltitudeMeters>229.1999969482421875</AltitudeMeters>
            <DistanceMeters>NAN</DistanceMeters>
          </Trackpoint>
          <Trackpoint>
            <Time>2021-08-13T10:07:01.000Z</Time>
            <Position>
              <LatitudeDegrees>43.17137173376977443695068359375</LatitudeDegrees>
              <LongitudeDegrees>-1.9608706422150135040283203125</LongitudeDegrees>
            </Position>
            <AltitudeMeters>229.399993896484375</AltitudeMeters>
            <DistanceMeters>NAN</DistanceMeters>
          </Trackpoint>
          <Trackpoint>
            <Time>2021-08-13T10:07:02.000Z</Time>
            <Position>
              <LatitudeDegrees>43.171353042125701904296875</LatitudeDegrees>
              <LongitudeDegrees>-1.9608337618410587310791015625</LongitudeDegrees>
            </Position>
            <AltitudeMeters>229.399993896484375</AltitudeMeters>
            <DistanceMeters>NAN</DistanceMeters>
          </Trackpoint>
          <Trackpoint>
            <Time>2021-08-13T10:07:03.000Z</Time>
            <Position>
              <LatitudeDegrees>43.17132932133972644805908203125</LatitudeDegrees>
              <LongitudeDegrees>-1.96079763583838939666748046875</LongitudeDegrees>
            </Position>
            <AltitudeMeters>229.399993896484375</AltitudeMeters>
            <DistanceMeters>NAN</DistanceMeters>
          </Trackpoint>
          <Trackpoint>
            <Time>2021-08-13T10:07:08.000Z</Time>
            <Position>
              <LatitudeDegrees>43.17119923420250415802001953125</LatitudeDegrees>
              <LongitudeDegrees>-1.96061960421502590179443359375</LongitudeDegrees>
            </Position>
            <AltitudeMeters>229.600006103515625</AltitudeMeters>
            <DistanceMeters>NAN</DistanceMeters>
          </Trackpoint>
          <Trackpoint>
            <Time>2021-08-13T10:07:09.000Z</Time>
            <Position>
              <LatitudeDegrees>43.17117291502654552459716796875</LatitudeDegrees>
              <LongitudeDegrees>-1.96057233028113842010498046875</LongitudeDegrees>
            </Position>
            <AltitudeMeters>229.600006103515625</AltitudeMeters>
            <DistanceMeters>NAN</DistanceMeters>
          </Trackpoint>
          <Trackpoint>
            <Time>2021-08-13T10:07:10.000Z</Time>
            <Position>
              <LatitudeDegrees>43.17115388810634613037109375</LatitudeDegrees>
              <LongitudeDegrees>-1.96053293533623218536376953125</LongitudeDegrees>
            </Position>
            <AltitudeMeters>229.8000030517578125</AltitudeMeters>
            <DistanceMeters>NAN</DistanceMeters>
          </Trackpoint>
          <Trackpoint>
            <Time>2021-08-13T10:07:11.000Z</Time>
            <Position>
              <LatitudeDegrees>43.171141147613525390625</LatitudeDegrees>
              <LongitudeDegrees>-1.960497982800006866455078125</LongitudeDegrees>
            </Position>
            <AltitudeMeters>229.8000030517578125</AltitudeMeters>
            <DistanceMeters>NAN</DistanceMeters>
          </Trackpoint>
          <Trackpoint>
            <Time>2021-08-13T10:07:14.000Z</Time>
            <Position>
              <LatitudeDegrees>43.17107384093105792999267578125</LatitudeDegrees>
              <LongitudeDegrees>-1.96039228700101375579833984375</LongitudeDegrees>
            </Position>
            <AltitudeMeters>229.8000030517578125</AltitudeMeters>
            <DistanceMeters>NAN</DistanceMeters>
          </Trackpoint>
          <Trackpoint>
            <Time>2021-08-13T10:07:15.000Z</Time>
            <Position>
              <LatitudeDegrees>43.1710494495928287506103515625</LatitudeDegrees>
              <LongitudeDegrees>-1.9603626988828182220458984375</LongitudeDegrees>
            </Position>
            <AltitudeMeters>230</AltitudeMeters>
            <DistanceMeters>NAN</DistanceMeters>
          </Trackpoint>
          <Trackpoint>
            <Time>2021-08-13T10:07:16.000Z</Time>
            <Position>
              <LatitudeDegrees>43.17103109322488307952880859375</LatitudeDegrees>
              <LongitudeDegrees>-1.9603402353823184967041015625</LongitudeDegrees>
            </Position>
            <AltitudeMeters>230</AltitudeMeters>
            <DistanceMeters>NAN</DistanceMeters>
          </Trackpoint>
          <Trackpoint>
            <Time>2021-08-13T10:07:17.000Z</Time>
            <Position>
              <LatitudeDegrees>43.17101516760885715484619140625</LatitudeDegrees>
              <LongitudeDegrees>-1.96032204665243625640869140625</LongitudeDegrees>
            </Position>
            <AltitudeMeters>230.1999969482421875</AltitudeMeters>
            <DistanceMeters>NAN</DistanceMeters>
          </Trackpoint>
          <Trackpoint>
            <Time>2021-08-13T10:07:18.000Z</Time>
            <Position>
              <LatitudeDegrees>43.1709964759647846221923828125</LatitudeDegrees>
              <LongitudeDegrees>-1.960308551788330078125</LongitudeDegrees>
            </Position>
            <AltitudeMeters>230.1999969482421875</AltitudeMeters>
            <DistanceMeters>NAN</DistanceMeters>
          </Trackpoint>
          <Trackpoint>
            <Time>2021-08-13T10:07:19.000Z</Time>
            <Position>
              <LatitudeDegrees>43.170973844826221466064453125</LatitudeDegrees>
              <LongitudeDegrees>-1.96028550155460834503173828125</LongitudeDegrees>
            </Position>
            <AltitudeMeters>230.399993896484375</AltitudeMeters>
            <DistanceMeters>NAN</DistanceMeters>
          </Trackpoint>
          <Trackpoint>
            <Time>2021-08-13T10:07:20.000Z</Time>
            <Position>
              <LatitudeDegrees>43.17095674574375152587890625</LatitudeDegrees>
              <LongitudeDegrees>-1.96026706136763095855712890625</LongitudeDegrees>
            </Position>
            <AltitudeMeters>230.399993896484375</AltitudeMeters>
            <DistanceMeters>NAN</DistanceMeters>
          </Trackpoint>
          <Trackpoint>
            <Time>2021-08-13T10:07:25.000Z</Time>
            <Position>
              <LatitudeDegrees>43.17082397639751434326171875</LatitudeDegrees>
              <LongitudeDegrees>-1.96016580797731876373291015625</LongitudeDegrees>
            </Position>
            <AltitudeMeters>230.8000030517578125</AltitudeMeters>
            <DistanceMeters>NAN</DistanceMeters>
          </Trackpoint>
          <Trackpoint>
            <Time>2021-08-13T10:07:26.000Z</Time>
            <Position>
              <LatitudeDegrees>43.17079355008900165557861328125</LatitudeDegrees>
              <LongitudeDegrees>-1.96015625260770320892333984375</LongitudeDegrees>
            </Position>
            <AltitudeMeters>230.8000030517578125</AltitudeMeters>
            <DistanceMeters>NAN</DistanceMeters>
          </Trackpoint>
          <Trackpoint>
            <Time>2021-08-13T10:07:27.000Z</Time>
            <Position>
              <LatitudeDegrees>43.170774690806865692138671875</LatitudeDegrees>
              <LongitudeDegrees>-1.96015021763741970062255859375</LongitudeDegrees>
            </Position>
            <AltitudeMeters>230.8000030517578125</AltitudeMeters>
            <DistanceMeters>NAN</DistanceMeters>
          </Trackpoint>
          <Trackpoint>
            <Time>2021-08-13T10:07:28.000Z</Time>
            <Position>
              <LatitudeDegrees>43.1707493774592876434326171875</LatitudeDegrees>
              <LongitudeDegrees>-1.9601360522210597991943359375</LongitudeDegrees>
            </Position>
            <AltitudeMeters>231</AltitudeMeters>
            <DistanceMeters>NAN</DistanceMeters>
          </Trackpoint>
          <Trackpoint>
            <Time>2021-08-13T10:07:29.000Z</Time>
            <Position>
              <LatitudeDegrees>43.1707292608916759490966796875</LatitudeDegrees>
              <LongitudeDegrees>-1.960131190717220306396484375</LongitudeDegrees>
            </Position>
            <AltitudeMeters>231</AltitudeMeters>
            <DistanceMeters>NAN</DistanceMeters>
          </Trackpoint>
          <Trackpoint>
            <Time>2021-08-13T10:07:30.000Z</Time>
            <Position>
              <LatitudeDegrees>43.1707101501524448394775390625</LatitudeDegrees>
              <LongitudeDegrees>-1.96013127453625202178955078125</LongitudeDegrees>
            </Position>
            <AltitudeMeters>231</AltitudeMeters>
            <DistanceMeters>NAN</DistanceMeters>
          </Trackpoint>
          <Trackpoint>
            <Time>2021-08-13T10:07:31.000Z</Time>
            <Position>
              <LatitudeDegrees>43.17069699056446552276611328125</LatitudeDegrees>
              <LongitudeDegrees>-1.96013085544109344482421875</LongitudeDegrees>
            </Position>
            <AltitudeMeters>231</AltitudeMeters>
            <DistanceMeters>NAN</DistanceMeters>
          </Trackpoint>
          <Trackpoint>
            <Time>2021-08-13T10:07:32.000Z</Time>
            <Position>
              <LatitudeDegrees>43.17068944685161113739013671875</LatitudeDegrees>
              <LongitudeDegrees>-1.96013219654560089111328125</LongitudeDegrees>
            </Position>
            <AltitudeMeters>231</AltitudeMeters>
            <DistanceMeters>NAN</DistanceMeters>
          </Trackpoint>
          <Trackpoint>
            <Time>2021-08-13T10:07:33.000Z</Time>
            <Position>
              <LatitudeDegrees>43.17069380544126033782958984375</LatitudeDegrees>
              <LongitudeDegrees>-1.96012758649885654449462890625</LongitudeDegrees>
            </Position>
            <AltitudeMeters>231</AltitudeMeters>
            <DistanceMeters>NAN</DistanceMeters>
          </Trackpoint>
          <Trackpoint>
            <Time>2021-08-13T10:07:34.000Z</Time>
            <Position>
              <LatitudeDegrees>43.1706843338906764984130859375</LatitudeDegrees>
              <LongitudeDegrees>-1.9601152651011943817138671875</LongitudeDegrees>
            </Position>
            <AltitudeMeters>231</AltitudeMeters>
            <DistanceMeters>NAN</DistanceMeters>
          </Trackpoint>
          <Trackpoint>
            <Time>2021-08-13T10:07:35.000Z</Time>
            <Position>
              <LatitudeDegrees>43.17066329531371593475341796875</LatitudeDegrees>
              <LongitudeDegrees>-1.9601132534444332122802734375</LongitudeDegrees>
            </Position>
            <AltitudeMeters>231</AltitudeMeters>
            <DistanceMeters>NAN</DistanceMeters>
          </Trackpoint>
          <Trackpoint>
            <Time>2021-08-13T10:07:37.000Z</Time>
            <Position>
              <LatitudeDegrees>43.17060395143926143646240234375</LatitudeDegrees>
              <LongitudeDegrees>-1.960108391940593719482421875</LongitudeDegrees>
            </Position>
            <AltitudeMeters>231</AltitudeMeters>
            <DistanceMeters>NAN</DistanceMeters>
          </Trackpoint>
          <Trackpoint>
            <Time>2021-08-13T10:07:38.000Z</Time>
            <Position>
              <LatitudeDegrees>43.17056589759886264801025390625</LatitudeDegrees>
              <LongitudeDegrees>-1.9601119123399257659912109375</LongitudeDegrees>
            </Position>
            <AltitudeMeters>231.1999969482421875</AltitudeMeters>
            <DistanceMeters>NAN</DistanceMeters>
          </Trackpoint>
          <Trackpoint>
            <Time>2021-08-13T10:07:39.000Z</Time>
            <Position>
              <LatitudeDegrees>43.1705327890813350677490234375</LatitudeDegrees>
              <LongitudeDegrees>-1.960119120776653289794921875</LongitudeDegrees>
            </Position>
            <AltitudeMeters>231.1999969482421875</AltitudeMeters>
            <DistanceMeters>NAN</DistanceMeters>
          </Trackpoint>
          <Trackpoint>
            <Time>2021-08-13T10:07:40.000Z</Time>
            <Position>
              <LatitudeDegrees>43.170505464076995849609375</LatitudeDegrees>
              <LongitudeDegrees>-1.96011920459568500518798828125</LongitudeDegrees>
            </Position>
            <AltitudeMeters>231.1999969482421875</AltitudeMeters>
            <DistanceMeters>NAN</DistanceMeters>
          </Trackpoint>
          <Trackpoint>
            <Time>2021-08-13T10:07:41.000Z</Time>
            <Position>
              <LatitudeDegrees>43.17048694007098674774169921875</LatitudeDegrees>
              <LongitudeDegrees>-1.96011920459568500518798828125</LongitudeDegrees>
            </Position>
            <AltitudeMeters>231.399993896484375</AltitudeMeters>
            <DistanceMeters>NAN</DistanceMeters>
          </Trackpoint>
          <Trackpoint>
            <Time>2021-08-13T10:07:42.000Z</Time>
            <Position>
              <LatitudeDegrees>43.1704746186733245849609375</LatitudeDegrees>
              <LongitudeDegrees>-1.96012322790920734405517578125</LongitudeDegrees>
            </Position>
            <AltitudeMeters>231.399993896484375</AltitudeMeters>
            <DistanceMeters>NAN</DistanceMeters>
          </Trackpoint>
          <Trackpoint>
            <Time>2021-08-13T10:07:43.000Z</Time>
            <Position>
              <LatitudeDegrees>43.1704704277217388153076171875</LatitudeDegrees>
              <LongitudeDegrees>-1.9601249881088733673095703125</LongitudeDegrees>
            </Position>
            <AltitudeMeters>231.600006103515625</AltitudeMeters>
            <DistanceMeters>NAN</DistanceMeters>
          </Trackpoint>
          <Trackpoint>
            <Time>2021-08-13T10:07:44.000Z</Time>
            <Position>
              <LatitudeDegrees>43.1704704277217388153076171875</LatitudeDegrees>
              <LongitudeDegrees>-1.9601249881088733673095703125</LongitudeDegrees>
            </Position>
            <AltitudeMeters>231.600006103515625</AltitudeMeters>
            <DistanceMeters>NAN</DistanceMeters>
          </Trackpoint>
          <Trackpoint>
            <Time>2021-08-13T10:08:04.000Z</Time>
            <Position>
              <LatitudeDegrees>43.1696433015167713165283203125</LatitudeDegrees>
              <LongitudeDegrees>-1.96024954319000244140625</LongitudeDegrees>
            </Position>
            <AltitudeMeters>233.399993896484375</AltitudeMeters>
            <DistanceMeters>NAN</DistanceMeters>
          </Trackpoint>
          <Trackpoint>
            <Time>2021-08-13T10:08:05.000Z</Time>
            <Position>
              <LatitudeDegrees>43.16963902674615383148193359375</LatitudeDegrees>
              <LongitudeDegrees>-1.96024979464709758758544921875</LongitudeDegrees>
            </Position>
            <AltitudeMeters>233.399993896484375</AltitudeMeters>
            <DistanceMeters>NAN</DistanceMeters>
          </Trackpoint>
          <Trackpoint>
            <Time>2021-08-13T10:08:06.000Z</Time>
            <Position>
              <LatitudeDegrees>43.16964992322027683258056640625</LatitudeDegrees>
              <LongitudeDegrees>-1.96026085875928401947021484375</LongitudeDegrees>
            </Position>
            <AltitudeMeters>233.399993896484375</AltitudeMeters>
            <DistanceMeters>NAN</DistanceMeters>
          </Trackpoint>
          <Trackpoint>
            <Time>2021-08-13T10:08:07.000Z</Time>
            <Position>
              <LatitudeDegrees>43.16964975558221340179443359375</LatitudeDegrees>
              <LongitudeDegrees>-1.96025968529284000396728515625</LongitudeDegrees>
            </Position>
            <AltitudeMeters>233.600006103515625</AltitudeMeters>
            <DistanceMeters>NAN</DistanceMeters>
          </Trackpoint>
          <Trackpoint>
            <Time>2021-08-13T10:08:08.000Z</Time>
            <Position>
              <LatitudeDegrees>43.169628046452999114990234375</LatitudeDegrees>
              <LongitudeDegrees>-1.960262954235076904296875</LongitudeDegrees>
            </Position>
            <AltitudeMeters>233.600006103515625</AltitudeMeters>
            <DistanceMeters>NAN</DistanceMeters>
          </Trackpoint>
          <Trackpoint>
            <Time>2021-08-13T10:08:09.000Z</Time>
            <Position>
              <LatitudeDegrees>43.16961471922695636749267578125</LatitudeDegrees>
              <LongitudeDegrees>-1.96026270277798175811767578125</LongitudeDegrees>
            </Position>
            <AltitudeMeters>233.399993896484375</AltitudeMeters>
            <DistanceMeters>NAN</DistanceMeters>
          </Trackpoint>
          <Trackpoint>
            <Time>2021-08-13T10:08:10.000Z</Time>
            <Position>
              <LatitudeDegrees>43.169597871601581573486328125</LatitudeDegrees>
              <LongitudeDegrees>-1.96025666780769824981689453125</LongitudeDegrees>
            </Position>
            <AltitudeMeters>233.399993896484375</AltitudeMeters>
            <DistanceMeters>NAN</DistanceMeters>
          </Trackpoint>
          <Trackpoint>
            <Time>2021-08-13T10:08:11.000Z</Time>
            <Position>
              <LatitudeDegrees>43.16957532428205013275146484375</LatitudeDegrees>
              <LongitudeDegrees>-1.96025918237864971160888671875</LongitudeDegrees>
            </Position>
            <AltitudeMeters>233.1999969482421875</AltitudeMeters>
            <DistanceMeters>NAN</DistanceMeters>
          </Trackpoint>
          <Trackpoint>
            <Time>2021-08-13T10:08:12.000Z</Time>
            <Position>
              <LatitudeDegrees>43.16955420188605785369873046875</LatitudeDegrees>
              <LongitudeDegrees>-1.96025960147380828857421875</LongitudeDegrees>
            </Position>
            <AltitudeMeters>233.1999969482421875</AltitudeMeters>
            <DistanceMeters>NAN</DistanceMeters>
          </Trackpoint>
          <Trackpoint>
            <Time>2021-08-13T10:08:13.000Z</Time>
            <Position>
              <LatitudeDegrees>43.16952805034816265106201171875</LatitudeDegrees>
              <LongitudeDegrees>-1.960265636444091796875</LongitudeDegrees>
            </Position>
            <AltitudeMeters>233.1999969482421875</AltitudeMeters>
            <DistanceMeters>NAN</DistanceMeters>
          </Trackpoint>
          <Trackpoint>
            <Time>2021-08-13T10:08:14.000Z</Time>
            <Position>
              <LatitudeDegrees>43.16950709559023380279541015625</LatitudeDegrees>
              <LongitudeDegrees>-1.96026337333023548126220703125</LongitudeDegrees>
            </Position>
            <AltitudeMeters>233.1999969482421875</AltitudeMeters>
            <DistanceMeters>NAN</DistanceMeters>
          </Trackpoint>
          <Trackpoint>
            <Time>2021-08-13T10:08:15.000Z</Time>
            <Position>
              <LatitudeDegrees>43.1694974564015865325927734375</LatitudeDegrees>
              <LongitudeDegrees>-1.96026152931153774261474609375</LongitudeDegrees>
            </Position>
            <AltitudeMeters>233</AltitudeMeters>
            <DistanceMeters>NAN</DistanceMeters>
          </Trackpoint>
          <Trackpoint>
            <Time>2021-08-13T10:08:16.000Z</Time>
            <Position>
              <LatitudeDegrees>43.16947616636753082275390625</LatitudeDegrees>
              <LongitudeDegrees>-1.96026337333023548126220703125</LongitudeDegrees>
            </Position>
            <AltitudeMeters>233</AltitudeMeters>
            <DistanceMeters>NAN</DistanceMeters>
          </Trackpoint>
          <Trackpoint>
            <Time>2021-08-13T10:08:17.000Z</Time>
            <Position>
              <LatitudeDegrees>43.16945328377187252044677734375</LatitudeDegrees>
              <LongitudeDegrees>-1.96026287041604518890380859375</LongitudeDegrees>
            </Position>
            <AltitudeMeters>233</AltitudeMeters>
            <DistanceMeters>NAN</DistanceMeters>
          </Trackpoint>
          <Trackpoint>
            <Time>2021-08-13T10:08:18.000Z</Time>
            <Position>
              <LatitudeDegrees>43.16942989826202392578125</LatitudeDegrees>
              <LongitudeDegrees>-1.96026588790118694305419921875</LongitudeDegrees>
            </Position>
            <AltitudeMeters>233</AltitudeMeters>
            <DistanceMeters>NAN</DistanceMeters>
          </Trackpoint>
          <Trackpoint>
            <Time>2021-08-13T10:08:21.000Z</Time>
            <Position>
              <LatitudeDegrees>43.169347755610942840576171875</LatitudeDegrees>
              <LongitudeDegrees>-1.96025650016963481903076171875</LongitudeDegrees>
            </Position>
            <AltitudeMeters>233</AltitudeMeters>
            <DistanceMeters>NAN</DistanceMeters>
          </Trackpoint>
          <Trackpoint>
            <Time>2021-08-13T10:08:23.000Z</Time>
            <Position>
              <LatitudeDegrees>43.16929989494383335113525390625</LatitudeDegrees>
              <LongitudeDegrees>-1.9602523930370807647705078125</LongitudeDegrees>
            </Position>
            <AltitudeMeters>233</AltitudeMeters>
            <DistanceMeters>NAN</DistanceMeters>
          </Trackpoint>
          <Trackpoint>
            <Time>2021-08-13T10:08:24.000Z</Time>
            <Position>
              <LatitudeDegrees>43.16927039064466953277587890625</LatitudeDegrees>
              <LongitudeDegrees>-1.96025448851287364959716796875</LongitudeDegrees>
            </Position>
            <AltitudeMeters>233</AltitudeMeters>
            <DistanceMeters>NAN</DistanceMeters>
          </Trackpoint>
          <Trackpoint>
            <Time>2021-08-13T10:08:25.000Z</Time>
            <Position>
              <LatitudeDegrees>43.16924608312547206878662109375</LatitudeDegrees>
              <LongitudeDegrees>-1.96025247685611248016357421875</LongitudeDegrees>
            </Position>
            <AltitudeMeters>233</AltitudeMeters>
            <DistanceMeters>NAN</DistanceMeters>
          </Trackpoint>
          <Trackpoint>
            <Time>2021-08-13T10:08:28.000Z</Time>
            <Position>
              <LatitudeDegrees>43.16915874369442462921142578125</LatitudeDegrees>
              <LongitudeDegrees>-1.9602466933429241180419921875</LongitudeDegrees>
            </Position>
            <AltitudeMeters>233.1999969482421875</AltitudeMeters>
            <DistanceMeters>NAN</DistanceMeters>
          </Trackpoint>
          <Trackpoint>
            <Time>2021-08-13T10:08:30.000Z</Time>
            <Position>
              <LatitudeDegrees>43.1691199354827404022216796875</LatitudeDegrees>
              <LongitudeDegrees>-1.96025381796061992645263671875</LongitudeDegrees>
            </Position>
            <AltitudeMeters>233</AltitudeMeters>
            <DistanceMeters>NAN</DistanceMeters>
          </Trackpoint>
          <Trackpoint>
            <Time>2021-08-13T10:08:31.000Z</Time>
            <Position>
              <LatitudeDegrees>43.16910174675285816192626953125</LatitudeDegrees>
              <LongitudeDegrees>-1.96026219986379146575927734375</LongitudeDegrees>
            </Position>
            <AltitudeMeters>233</AltitudeMeters>
            <DistanceMeters>NAN</DistanceMeters>
          </Trackpoint>
          <Trackpoint>
            <Time>2021-08-13T10:08:32.000Z</Time>
            <Position>
              <LatitudeDegrees>43.16908883862197399139404296875</LatitudeDegrees>
              <LongitudeDegrees>-1.9602669775485992431640625</LongitudeDegrees>
            </Position>
            <AltitudeMeters>233.1999969482421875</AltitudeMeters>
            <DistanceMeters>NAN</DistanceMeters>
          </Trackpoint>
          <Trackpoint>
            <Time>2021-08-13T10:08:33.000Z</Time>
            <Position>
              <LatitudeDegrees>43.16907760687172412872314453125</LatitudeDegrees>
              <LongitudeDegrees>-1.960263289511203765869140625</LongitudeDegrees>
            </Position>
            <AltitudeMeters>233</AltitudeMeters>
            <DistanceMeters>NAN</DistanceMeters>
          </Trackpoint>
          <Trackpoint>
            <Time>2021-08-13T10:08:34.000Z</Time>
            <Position>
              <LatitudeDegrees>43.1690704822540283203125</LatitudeDegrees>
              <LongitudeDegrees>-1.96025851182639598846435546875</LongitudeDegrees>
            </Position>
            <AltitudeMeters>233.1999969482421875</AltitudeMeters>
            <DistanceMeters>NAN</DistanceMeters>
          </Trackpoint>
          <Trackpoint>
            <Time>2021-08-13T10:08:35.000Z</Time>
            <Position>
              <LatitudeDegrees>43.16906788386404514312744140625</LatitudeDegrees>
              <LongitudeDegrees>-1.96025599725544452667236328125</LongitudeDegrees>
            </Position>
            <AltitudeMeters>233</AltitudeMeters>
            <DistanceMeters>NAN</DistanceMeters>
          </Trackpoint>
          <Trackpoint>
            <Time>2021-08-13T10:08:36.000Z</Time>
            <Position>
              <LatitudeDegrees>43.16906788386404514312744140625</LatitudeDegrees>
              <LongitudeDegrees>-1.96025599725544452667236328125</LongitudeDegrees>
            </Position>
            <AltitudeMeters>233.1999969482421875</AltitudeMeters>
            <DistanceMeters>NAN</DistanceMeters>
          </Trackpoint>
          <Trackpoint>
            <Time>2021-08-13T10:33:34.000Z</Time>
            <Position>
              <LatitudeDegrees>43.1691201031208038330078125</LatitudeDegrees>
              <LongitudeDegrees>-1.96026035584509372711181640625</LongitudeDegrees>
            </Position>
            <AltitudeMeters>235</AltitudeMeters>
            <DistanceMeters>NAN</DistanceMeters>
          </Trackpoint>
          <Trackpoint>
            <Time>2021-08-13T10:33:36.000Z</Time>
            <Position>
              <LatitudeDegrees>43.1691201031208038330078125</LatitudeDegrees>
              <LongitudeDegrees>-1.96026035584509372711181640625</LongitudeDegrees>
            </Position>
            <AltitudeMeters>235</AltitudeMeters>
            <DistanceMeters>NAN</DistanceMeters>
          </Trackpoint>
          <Trackpoint>
            <Time>2021-08-13T10:36:05.000Z</Time>
            <Position>
              <LatitudeDegrees>43.16911784000694751739501953125</LatitudeDegrees>
              <LongitudeDegrees>-1.960257925093173980712890625</LongitudeDegrees>
            </Position>
            <AltitudeMeters>235</AltitudeMeters>
            <DistanceMeters>NAN</DistanceMeters>
          </Trackpoint>
          <Trackpoint>
            <Time>2021-08-13T10:36:09.000Z</Time>
            <Position>
              <LatitudeDegrees>43.169081211090087890625</LatitudeDegrees>
              <LongitudeDegrees>-1.96023101918399333953857421875</LongitudeDegrees>
            </Position>
            <AltitudeMeters>235</AltitudeMeters>
            <DistanceMeters>NAN</DistanceMeters>
          </Trackpoint>
          <Trackpoint>
            <Time>2021-08-13T10:36:14.000Z</Time>
            <Position>
              <LatitudeDegrees>43.1689657084643840789794921875</LatitudeDegrees>
              <LongitudeDegrees>-1.96018743328750133514404296875</LongitudeDegrees>
            </Position>
            <AltitudeMeters>235</AltitudeMeters>
            <DistanceMeters>NAN</DistanceMeters>
          </Trackpoint>
          <Trackpoint>
            <Time>2021-08-13T10:36:17.000Z</Time>
            <Position>
              <LatitudeDegrees>43.16889286972582340240478515625</LatitudeDegrees>
              <LongitudeDegrees>-1.960153989493846893310546875</LongitudeDegrees>
            </Position>
            <AltitudeMeters>235</AltitudeMeters>
            <DistanceMeters>NAN</DistanceMeters>
          </Trackpoint>
          <Trackpoint>
            <Time>2021-08-13T10:36:20.000Z</Time>
            <Position>
              <LatitudeDegrees>43.1687920354306697845458984375</LatitudeDegrees>
              <LongitudeDegrees>-1.96012272499501705169677734375</LongitudeDegrees>
            </Position>
            <AltitudeMeters>235.1999969482421875</AltitudeMeters>
            <DistanceMeters>NAN</DistanceMeters>
          </Trackpoint>
          <Trackpoint>
            <Time>2021-08-13T10:36:23.000Z</Time>
            <Position>
              <LatitudeDegrees>43.16868818365037441253662109375</LatitudeDegrees>
              <LongitudeDegrees>-1.96008785627782344818115234375</LongitudeDegrees>
            </Position>
            <AltitudeMeters>235.600006103515625</AltitudeMeters>
            <DistanceMeters>NAN</DistanceMeters>
          </Trackpoint>
          <Trackpoint>
            <Time>2021-08-13T10:36:24.000Z</Time>
            <Position>
              <LatitudeDegrees>43.1686572544276714324951171875</LatitudeDegrees>
              <LongitudeDegrees>-1.960076205432415008544921875</LongitudeDegrees>
            </Position>
            <AltitudeMeters>235.600006103515625</AltitudeMeters>
            <DistanceMeters>NAN</DistanceMeters>
          </Trackpoint>
          <Trackpoint>
            <Time>2021-08-13T10:36:25.000Z</Time>
            <Position>
              <LatitudeDegrees>43.1686287559568881988525390625</LatitudeDegrees>
              <LongitudeDegrees>-1.96006807498633861541748046875</LongitudeDegrees>
            </Position>
            <AltitudeMeters>235.600006103515625</AltitudeMeters>
            <DistanceMeters>NAN</DistanceMeters>
          </Trackpoint>
          <Trackpoint>
            <Time>2021-08-13T10:36:27.000Z</Time>
            <Position>
              <LatitudeDegrees>43.1685610301792621612548828125</LatitudeDegrees>
              <LongitudeDegrees>-1.96005449630320072174072265625</LongitudeDegrees>
            </Position>
            <AltitudeMeters>235.600006103515625</AltitudeMeters>
            <DistanceMeters>NAN</DistanceMeters>
          </Trackpoint>
          <Trackpoint>
            <Time>2021-08-13T10:36:36.000Z</Time>
            <Position>
              <LatitudeDegrees>43.16825576126575469970703125</LatitudeDegrees>
              <LongitudeDegrees>-1.9599684141576290130615234375</LongitudeDegrees>
            </Position>
            <AltitudeMeters>236</AltitudeMeters>
            <DistanceMeters>NAN</DistanceMeters>
          </Trackpoint>
          <Trackpoint>
            <Time>2021-08-13T10:36:42.000Z</Time>
            <Position>
              <LatitudeDegrees>43.1680540926754474639892578125</LatitudeDegrees>
              <LongitudeDegrees>-1.959926001727581024169921875</LongitudeDegrees>
            </Position>
            <AltitudeMeters>236</AltitudeMeters>
            <DistanceMeters>NAN</DistanceMeters>
          </Trackpoint>
          <Trackpoint>
            <Time>2021-08-13T10:36:44.000Z</Time>
            <Position>
              <LatitudeDegrees>43.16798443906009197235107421875</LatitudeDegrees>
              <LongitudeDegrees>-1.959915943443775177001953125</LongitudeDegrees>
            </Position>
            <AltitudeMeters>236</AltitudeMeters>
            <DistanceMeters>NAN</DistanceMeters>
          </Trackpoint>
          <Trackpoint>
            <Time>2021-08-13T10:36:48.000Z</Time>
            <Position>
              <LatitudeDegrees>43.16785502247512340545654296875</LatitudeDegrees>
              <LongitudeDegrees>-1.9599129259586334228515625</LongitudeDegrees>
            </Position>
            <AltitudeMeters>236.1999969482421875</AltitudeMeters>
            <DistanceMeters>NAN</DistanceMeters>
          </Trackpoint>
          <Trackpoint>
            <Time>2021-08-13T10:36:49.000Z</Time>
            <Position>
              <LatitudeDegrees>43.167823590338230133056640625</LatitudeDegrees>
              <LongitudeDegrees>-1.95991870947182178497314453125</LongitudeDegrees>
            </Position>
            <AltitudeMeters>236.1999969482421875</AltitudeMeters>
            <DistanceMeters>NAN</DistanceMeters>
          </Trackpoint>
          <Trackpoint>
            <Time>2021-08-13T10:36:50.000Z</Time>
            <Position>
              <LatitudeDegrees>43.16779115237295627593994140625</LatitudeDegrees>
              <LongitudeDegrees>-1.95992239750921726226806640625</LongitudeDegrees>
            </Position>
            <AltitudeMeters>236.1999969482421875</AltitudeMeters>
            <DistanceMeters>NAN</DistanceMeters>
          </Trackpoint>
          <Trackpoint>
            <Time>2021-08-13T10:36:51.000Z</Time>
            <Position>
              <LatitudeDegrees>43.1677620671689510345458984375</LatitudeDegrees>
              <LongitudeDegrees>-1.9599288515746593475341796875</LongitudeDegrees>
            </Position>
            <AltitudeMeters>236.1999969482421875</AltitudeMeters>
            <DistanceMeters>NAN</DistanceMeters>
          </Trackpoint>
          <Trackpoint>
            <Time>2021-08-13T10:36:52.000Z</Time>
            <Position>
              <LatitudeDegrees>43.1677332334220409393310546875</LatitudeDegrees>
              <LongitudeDegrees>-1.9599335454404354095458984375</LongitudeDegrees>
            </Position>
            <AltitudeMeters>236.399993896484375</AltitudeMeters>
            <DistanceMeters>NAN</DistanceMeters>
          </Trackpoint>
          <Trackpoint>
            <Time>2021-08-13T10:36:54.000Z</Time>
            <Position>
              <LatitudeDegrees>43.16766475327312946319580078125</LatitudeDegrees>
              <LongitudeDegrees>-1.95993061177432537078857421875</LongitudeDegrees>
            </Position>
            <AltitudeMeters>236.399993896484375</AltitudeMeters>
            <DistanceMeters>NAN</DistanceMeters>
          </Trackpoint>
          <Trackpoint>
            <Time>2021-08-13T10:36:55.000Z</Time>
            <Position>
              <LatitudeDegrees>43.16763558425009250640869140625</LatitudeDegrees>
              <LongitudeDegrees>-1.95993840694427490234375</LongitudeDegrees>
            </Position>
            <AltitudeMeters>236.600006103515625</AltitudeMeters>
            <DistanceMeters>NAN</DistanceMeters>
          </Trackpoint>
          <Trackpoint>
            <Time>2021-08-13T10:36:56.000Z</Time>
            <Position>
              <LatitudeDegrees>43.16762921400368213653564453125</LatitudeDegrees>
              <LongitudeDegrees>-1.95994217880070209503173828125</LongitudeDegrees>
            </Position>
            <AltitudeMeters>236.600006103515625</AltitudeMeters>
            <DistanceMeters>NAN</DistanceMeters>
          </Trackpoint>
          <Trackpoint>
            <Time>2021-08-13T10:36:57.000Z</Time>
            <Position>
              <LatitudeDegrees>43.16762921400368213653564453125</LatitudeDegrees>
              <LongitudeDegrees>-1.95994217880070209503173828125</LongitudeDegrees>
            </Position>
            <AltitudeMeters>236.600006103515625</AltitudeMeters>
            <DistanceMeters>NAN</DistanceMeters>
          </Trackpoint>
          <Trackpoint>
            <Time>2021-08-13T10:37:39.000Z</Time>
            <Position>
              <LatitudeDegrees>43.16657778806984424591064453125</LatitudeDegrees>
              <LongitudeDegrees>-1.960868798196315765380859375</LongitudeDegrees>
            </Position>
            <AltitudeMeters>239.1999969482421875</AltitudeMeters>
            <DistanceMeters>NAN</DistanceMeters>
          </Trackpoint>
          <Trackpoint>
            <Time>2021-08-13T10:37:40.000Z</Time>
            <Position>
              <LatitudeDegrees>43.16656806506216526031494140625</LatitudeDegrees>
              <LongitudeDegrees>-1.9609402120113372802734375</LongitudeDegrees>
            </Position>
            <AltitudeMeters>239.1999969482421875</AltitudeMeters>
            <DistanceMeters>NAN</DistanceMeters>
          </Trackpoint>
          <Trackpoint>
            <Time>2021-08-13T10:37:41.000Z</Time>
            <Position>
              <LatitudeDegrees>43.16655348055064678192138671875</LatitudeDegrees>
              <LongitudeDegrees>-1.9609983824193477630615234375</LongitudeDegrees>
            </Position>
            <AltitudeMeters>239.1999969482421875</AltitudeMeters>
            <DistanceMeters>NAN</DistanceMeters>
          </Trackpoint>
          <Trackpoint>
            <Time>2021-08-13T10:37:42.000Z</Time>
            <Position>
              <LatitudeDegrees>43.16653721965849399566650390625</LatitudeDegrees>
              <LongitudeDegrees>-1.9610582292079925537109375</LongitudeDegrees>
            </Position>
            <AltitudeMeters>239</AltitudeMeters>
            <DistanceMeters>NAN</DistanceMeters>
          </Trackpoint>
          <Trackpoint>
            <Time>2021-08-13T10:37:43.000Z</Time>
            <Position>
              <LatitudeDegrees>43.166528083384037017822265625</LatitudeDegrees>
              <LongitudeDegrees>-1.96109117008745670318603515625</LongitudeDegrees>
            </Position>
            <AltitudeMeters>239</AltitudeMeters>
            <DistanceMeters>NAN</DistanceMeters>
          </Trackpoint>
          <Trackpoint>
            <Time>2021-08-13T10:37:44.000Z</Time>
            <Position>
              <LatitudeDegrees>43.16651039756834506988525390625</LatitudeDegrees>
              <LongitudeDegrees>-1.96113660000264644622802734375</LongitudeDegrees>
            </Position>
            <AltitudeMeters>239</AltitudeMeters>
            <DistanceMeters>NAN</DistanceMeters>
          </Trackpoint>
          <Trackpoint>
            <Time>2021-08-13T10:37:45.000Z</Time>
            <Position>
              <LatitudeDegrees>43.1665094755589962005615234375</LatitudeDegrees>
              <LongitudeDegrees>-1.961176581680774688720703125</LongitudeDegrees>
            </Position>
            <AltitudeMeters>239</AltitudeMeters>
            <DistanceMeters>NAN</DistanceMeters>
          </Trackpoint>
          <Trackpoint>
            <Time>2021-08-13T10:37:46.000Z</Time>
            <Position>
              <LatitudeDegrees>43.1665111519396305084228515625</LatitudeDegrees>
              <LongitudeDegrees>-1.96123684756457805633544921875</LongitudeDegrees>
            </Position>
            <AltitudeMeters>239</AltitudeMeters>
            <DistanceMeters>NAN</DistanceMeters>
          </Trackpoint>
          <Trackpoint>
            <Time>2021-08-13T10:37:47.000Z</Time>
            <Position>
              <LatitudeDegrees>43.1665022671222686767578125</LatitudeDegrees>
              <LongitudeDegrees>-1.9612723030149936676025390625</LongitudeDegrees>
            </Position>
            <AltitudeMeters>239</AltitudeMeters>
            <DistanceMeters>NAN</DistanceMeters>
          </Trackpoint>
          <Trackpoint>
            <Time>2021-08-13T10:37:48.000Z</Time>
            <Position>
              <LatitudeDegrees>43.16649614833295345306396484375</LatitudeDegrees>
              <LongitudeDegrees>-1.96129971183836460113525390625</LongitudeDegrees>
            </Position>
            <AltitudeMeters>239</AltitudeMeters>
            <DistanceMeters>NAN</DistanceMeters>
          </Trackpoint>
          <Trackpoint>
            <Time>2021-08-13T10:37:49.000Z</Time>
            <Position>
              <LatitudeDegrees>43.16649815998971462249755859375</LatitudeDegrees>
              <LongitudeDegrees>-1.9613279588520526885986328125</LongitudeDegrees>
            </Position>
            <AltitudeMeters>239</AltitudeMeters>
            <DistanceMeters>NAN</DistanceMeters>
          </Trackpoint>
          <Trackpoint>
            <Time>2021-08-13T10:37:50.000Z</Time>
            <Position>
              <LatitudeDegrees>43.166503608226776123046875</LatitudeDegrees>
              <LongitudeDegrees>-1.96136257611215114593505859375</LongitudeDegrees>
            </Position>
            <AltitudeMeters>239</AltitudeMeters>
            <DistanceMeters>NAN</DistanceMeters>
          </Trackpoint>
          <Trackpoint>
            <Time>2021-08-13T10:37:51.000Z</Time>
            <Position>
              <LatitudeDegrees>43.16651500761508941650390625</LatitudeDegrees>
              <LongitudeDegrees>-1.96138336323201656341552734375</LongitudeDegrees>
            </Position>
            <AltitudeMeters>239</AltitudeMeters>
            <DistanceMeters>NAN</DistanceMeters>
          </Trackpoint>
          <Trackpoint>
            <Time>2021-08-13T10:37:52.000Z</Time>
            <Position>
              <LatitudeDegrees>43.16652514971792697906494140625</LatitudeDegrees>
              <LongitudeDegrees>-1.96141052059829235076904296875</LongitudeDegrees>
            </Position>
            <AltitudeMeters>239</AltitudeMeters>
            <DistanceMeters>NAN</DistanceMeters>
          </Trackpoint>
          <Trackpoint>
            <Time>2021-08-13T10:37:53.000Z</Time>
            <Position>
              <LatitudeDegrees>43.16653470508754253387451171875</LatitudeDegrees>
              <LongitudeDegrees>-1.96144916117191314697265625</LongitudeDegrees>
            </Position>
            <AltitudeMeters>239</AltitudeMeters>
            <DistanceMeters>NAN</DistanceMeters>
          </Trackpoint>
          <Trackpoint>
            <Time>2021-08-13T10:37:54.000Z</Time>
            <Position>
              <LatitudeDegrees>43.166540153324604034423828125</LatitudeDegrees>
              <LongitudeDegrees>-1.96148260496556758880615234375</LongitudeDegrees>
            </Position>
            <AltitudeMeters>239</AltitudeMeters>
            <DistanceMeters>NAN</DistanceMeters>
          </Trackpoint>
          <Trackpoint>
            <Time>2021-08-13T10:37:55.000Z</Time>
            <Position>
              <LatitudeDegrees>43.16654459573328495025634765625</LatitudeDegrees>
              <LongitudeDegrees>-1.9615113548934459686279296875</LongitudeDegrees>
            </Position>
            <AltitudeMeters>239</AltitudeMeters>
            <DistanceMeters>NAN</DistanceMeters>
          </Trackpoint>
          <Trackpoint>
            <Time>2021-08-13T10:37:56.000Z</Time>
            <Position>
              <LatitudeDegrees>43.16654157824814319610595703125</LatitudeDegrees>
              <LongitudeDegrees>-1.9615495763719081878662109375</LongitudeDegrees>
            </Position>
            <AltitudeMeters>239</AltitudeMeters>
            <DistanceMeters>NAN</DistanceMeters>
          </Trackpoint>
          <Trackpoint>
            <Time>2021-08-13T10:37:57.000Z</Time>
            <Position>
              <LatitudeDegrees>43.1665505468845367431640625</LatitudeDegrees>
              <LongitudeDegrees>-1.96158452890813350677490234375</LongitudeDegrees>
            </Position>
            <AltitudeMeters>239.1999969482421875</AltitudeMeters>
            <DistanceMeters>NAN</DistanceMeters>
          </Trackpoint>
          <Trackpoint>
            <Time>2021-08-13T10:37:58.000Z</Time>
            <Position>
              <LatitudeDegrees>43.1665599346160888671875</LatitudeDegrees>
              <LongitudeDegrees>-1.96161470375955104827880859375</LongitudeDegrees>
            </Position>
            <AltitudeMeters>239.1999969482421875</AltitudeMeters>
            <DistanceMeters>NAN</DistanceMeters>
          </Trackpoint>
          <Trackpoint>
            <Time>2021-08-13T10:38:00.000Z</Time>
            <Position>
              <LatitudeDegrees>43.16656538285315036773681640625</LatitudeDegrees>
              <LongitudeDegrees>-1.96167639456689357757568359375</LongitudeDegrees>
            </Position>
            <AltitudeMeters>239.1999969482421875</AltitudeMeters>
            <DistanceMeters>NAN</DistanceMeters>
          </Trackpoint>
          <Trackpoint>
            <Time>2021-08-13T10:38:04.000Z</Time>
            <Position>
              <LatitudeDegrees>43.16659354604780673980712890625</LatitudeDegrees>
              <LongitudeDegrees>-1.96181620471179485321044921875</LongitudeDegrees>
            </Position>
            <AltitudeMeters>239.399993896484375</AltitudeMeters>
            <DistanceMeters>NAN</DistanceMeters>
          </Trackpoint>
          <Trackpoint>
            <Time>2021-08-13T10:38:06.000Z</Time>
            <Position>
              <LatitudeDegrees>43.1665996648371219635009765625</LatitudeDegrees>
              <LongitudeDegrees>-1.96190136484801769256591796875</LongitudeDegrees>
            </Position>
            <AltitudeMeters>239.399993896484375</AltitudeMeters>
            <DistanceMeters>NAN</DistanceMeters>
          </Trackpoint>
          <Trackpoint>
            <Time>2021-08-13T10:38:07.000Z</Time>
            <Position>
              <LatitudeDegrees>43.16660494543612003326416015625</LatitudeDegrees>
              <LongitudeDegrees>-1.9619326293468475341796875</LongitudeDegrees>
            </Position>
            <AltitudeMeters>239.399993896484375</AltitudeMeters>
            <DistanceMeters>NAN</DistanceMeters>
          </Trackpoint>
          <Trackpoint>
            <Time>2021-08-13T10:38:08.000Z</Time>
            <Position>
              <LatitudeDegrees>43.166611902415752410888671875</LatitudeDegrees>
              <LongitudeDegrees>-1.96196406148374080657958984375</LongitudeDegrees>
            </Position>
            <AltitudeMeters>239.600006103515625</AltitudeMeters>
            <DistanceMeters>NAN</DistanceMeters>
          </Trackpoint>
          <Trackpoint>
            <Time>2021-08-13T10:38:09.000Z</Time>
            <Position>
              <LatitudeDegrees>43.16661718301475048065185546875</LatitudeDegrees>
              <LongitudeDegrees>-1.9619958288967609405517578125</LongitudeDegrees>
            </Position>
            <AltitudeMeters>239.600006103515625</AltitudeMeters>
            <DistanceMeters>NAN</DistanceMeters>
          </Trackpoint>
          <Trackpoint>
            <Time>2021-08-13T10:38:10.000Z</Time>
            <Position>
              <LatitudeDegrees>43.16662154160439968109130859375</LatitudeDegrees>
              <LongitudeDegrees>-1.9620263390243053436279296875</LongitudeDegrees>
            </Position>
            <AltitudeMeters>239.600006103515625</AltitudeMeters>
            <DistanceMeters>NAN</DistanceMeters>
          </Trackpoint>
          <Trackpoint>
            <Time>2021-08-13T10:38:11.000Z</Time>
            <Position>
              <LatitudeDegrees>43.16662908531725406646728515625</LatitudeDegrees>
              <LongitudeDegrees>-1.962061040103435516357421875</LongitudeDegrees>
            </Position>
            <AltitudeMeters>239.600006103515625</AltitudeMeters>
            <DistanceMeters>NAN</DistanceMeters>
          </Trackpoint>
          <Trackpoint>
            <Time>2021-08-13T10:38:15.000Z</Time>
            <Position>
              <LatitudeDegrees>43.16664534620940685272216796875</LatitudeDegrees>
              <LongitudeDegrees>-1.96223010309040546417236328125</LongitudeDegrees>
            </Position>
            <AltitudeMeters>239.600006103515625</AltitudeMeters>
            <DistanceMeters>NAN</DistanceMeters>
          </Trackpoint>
          <Trackpoint>
            <Time>2021-08-13T10:38:20.000Z</Time>
            <Position>
              <LatitudeDegrees>43.166661523282527923583984375</LatitudeDegrees>
              <LongitudeDegrees>-1.96244618855416774749755859375</LongitudeDegrees>
            </Position>
            <AltitudeMeters>239.8000030517578125</AltitudeMeters>
            <DistanceMeters>NAN</DistanceMeters>
          </Trackpoint>
          <Trackpoint>
            <Time>2021-08-13T10:38:22.000Z</Time>
            <Position>
              <LatitudeDegrees>43.166666217148303985595703125</LatitudeDegrees>
              <LongitudeDegrees>-1.9625369645655155181884765625</LongitudeDegrees>
            </Position>
            <AltitudeMeters>239.8000030517578125</AltitudeMeters>
            <DistanceMeters>NAN</DistanceMeters>
          </Trackpoint>
          <Trackpoint>
            <Time>2021-08-13T10:38:27.000Z</Time>
            <Position>
              <LatitudeDegrees>43.16664517857134342193603515625</LatitudeDegrees>
              <LongitudeDegrees>-1.96277928538620471954345703125</LongitudeDegrees>
            </Position>
            <AltitudeMeters>240</AltitudeMeters>
            <DistanceMeters>NAN</DistanceMeters>
          </Trackpoint>
          <Trackpoint>
            <Time>2021-08-13T10:38:28.000Z</Time>
            <Position>
              <LatitudeDegrees>43.16664584912359714508056640625</LatitudeDegrees>
              <LongitudeDegrees>-1.96282756514847278594970703125</LongitudeDegrees>
            </Position>
            <AltitudeMeters>240</AltitudeMeters>
            <DistanceMeters>NAN</DistanceMeters>
          </Trackpoint>
          <Trackpoint>
            <Time>2021-08-13T10:38:29.000Z</Time>
            <Position>
              <LatitudeDegrees>43.1666392274200916290283203125</LatitudeDegrees>
              <LongitudeDegrees>-1.9628702290356159210205078125</LongitudeDegrees>
            </Position>
            <AltitudeMeters>240.1999969482421875</AltitudeMeters>
            <DistanceMeters>NAN</DistanceMeters>
          </Trackpoint>
          <Trackpoint>
            <Time>2021-08-13T10:38:31.000Z</Time>
            <Position>
              <LatitudeDegrees>43.1666194461286067962646484375</LatitudeDegrees>
              <LongitudeDegrees>-1.9629607535898685455322265625</LongitudeDegrees>
            </Position>
            <AltitudeMeters>240.1999969482421875</AltitudeMeters>
            <DistanceMeters>NAN</DistanceMeters>
          </Trackpoint>
          <Trackpoint>
            <Time>2021-08-13T10:38:32.000Z</Time>
            <Position>
              <LatitudeDegrees>43.1666028499603271484375</LatitudeDegrees>
              <LongitudeDegrees>-1.963013894855976104736328125</LongitudeDegrees>
            </Position>
            <AltitudeMeters>240.399993896484375</AltitudeMeters>
            <DistanceMeters>NAN</DistanceMeters>
          </Trackpoint>
          <Trackpoint>
            <Time>2021-08-13T10:38:34.000Z</Time>
            <Position>
              <LatitudeDegrees>43.166582398116588592529296875</LatitudeDegrees>
              <LongitudeDegrees>-1.96311137638986110687255859375</LongitudeDegrees>
            </Position>
            <AltitudeMeters>240.399993896484375</AltitudeMeters>
            <DistanceMeters>NAN</DistanceMeters>
          </Trackpoint>
          <Trackpoint>
            <Time>2021-08-13T10:38:35.000Z</Time>
            <Position>
              <LatitudeDegrees>43.16656638868153095245361328125</LatitudeDegrees>
              <LongitudeDegrees>-1.96315638720989227294921875</LongitudeDegrees>
            </Position>
            <AltitudeMeters>240.600006103515625</AltitudeMeters>
            <DistanceMeters>NAN</DistanceMeters>
          </Trackpoint>
          <Trackpoint>
            <Time>2021-08-13T10:38:36.000Z</Time>
            <Position>
              <LatitudeDegrees>43.16655649803578853607177734375</LatitudeDegrees>
              <LongitudeDegrees>-1.96321212686598300933837890625</LongitudeDegrees>
            </Position>
            <AltitudeMeters>240.600006103515625</AltitudeMeters>
            <DistanceMeters>NAN</DistanceMeters>
          </Trackpoint>
          <Trackpoint>
            <Time>2021-08-13T10:38:37.000Z</Time>
            <Position>
              <LatitudeDegrees>43.16653956659138202667236328125</LatitudeDegrees>
              <LongitudeDegrees>-1.96323760785162448883056640625</LongitudeDegrees>
            </Position>
            <AltitudeMeters>240.600006103515625</AltitudeMeters>
            <DistanceMeters>NAN</DistanceMeters>
          </Trackpoint>
          <Trackpoint>
            <Time>2021-08-13T10:38:38.000Z</Time>
            <Position>
              <LatitudeDegrees>43.16651559434831142425537109375</LatitudeDegrees>
              <LongitudeDegrees>-1.96327365003526210784912109375</LongitudeDegrees>
            </Position>
            <AltitudeMeters>240.8000030517578125</AltitudeMeters>
            <DistanceMeters>NAN</DistanceMeters>
          </Trackpoint>
          <Trackpoint>
            <Time>2021-08-13T10:38:42.000Z</Time>
            <Position>
              <LatitudeDegrees>43.1664152629673480987548828125</LatitudeDegrees>
              <LongitudeDegrees>-1.96340222842991352081298828125</LongitudeDegrees>
            </Position>
            <AltitudeMeters>241</AltitudeMeters>
            <DistanceMeters>NAN</DistanceMeters>
          </Trackpoint>
          <Trackpoint>
            <Time>2021-08-13T10:38:43.000Z</Time>
            <Position>
              <LatitudeDegrees>43.16637326963245868682861328125</LatitudeDegrees>
              <LongitudeDegrees>-1.96343324147164821624755859375</LongitudeDegrees>
            </Position>
            <AltitudeMeters>241</AltitudeMeters>
            <DistanceMeters>NAN</DistanceMeters>
          </Trackpoint>
          <Trackpoint>
            <Time>2021-08-13T10:38:46.000Z</Time>
            <Position>
              <LatitudeDegrees>43.16631996072828769683837890625</LatitudeDegrees>
              <LongitudeDegrees>-1.9635582156479358673095703125</LongitudeDegrees>
            </Position>
            <AltitudeMeters>241</AltitudeMeters>
            <DistanceMeters>NAN</DistanceMeters>
          </Trackpoint>
          <Trackpoint>
            <Time>2021-08-13T10:38:47.000Z</Time>
            <Position>
              <LatitudeDegrees>43.1663059629499912261962890625</LatitudeDegrees>
              <LongitudeDegrees>-1.96358579210937023162841796875</LongitudeDegrees>
            </Position>
            <AltitudeMeters>241</AltitudeMeters>
            <DistanceMeters>NAN</DistanceMeters>
          </Trackpoint>
          <Trackpoint>
            <Time>2021-08-13T10:38:48.000Z</Time>
            <Position>
              <LatitudeDegrees>43.1662831641733646392822265625</LatitudeDegrees>
              <LongitudeDegrees>-1.96360968053340911865234375</LongitudeDegrees>
            </Position>
            <AltitudeMeters>241</AltitudeMeters>
            <DistanceMeters>NAN</DistanceMeters>
          </Trackpoint>
          <Trackpoint>
            <Time>2021-08-13T10:38:49.000Z</Time>
            <Position>
              <LatitudeDegrees>43.16625416278839111328125</LatitudeDegrees>
              <LongitudeDegrees>-1.96363105438649654388427734375</LongitudeDegrees>
            </Position>
            <AltitudeMeters>241.1999969482421875</AltitudeMeters>
            <DistanceMeters>NAN</DistanceMeters>
          </Trackpoint>
          <Trackpoint>
            <Time>2021-08-13T10:38:50.000Z</Time>
            <Position>
              <LatitudeDegrees>43.16623379476368427276611328125</LatitudeDegrees>
              <LongitudeDegrees>-1.96365058422088623046875</LongitudeDegrees>
            </Position>
            <AltitudeMeters>241.1999969482421875</AltitudeMeters>
            <DistanceMeters>NAN</DistanceMeters>
          </Trackpoint>
          <Trackpoint>
            <Time>2021-08-13T10:38:51.000Z</Time>
            <Position>
              <LatitudeDegrees>43.16621250472962856292724609375</LatitudeDegrees>
              <LongitudeDegrees>-1.96366240270435810089111328125</LongitudeDegrees>
            </Position>
            <AltitudeMeters>241</AltitudeMeters>
            <DistanceMeters>NAN</DistanceMeters>
          </Trackpoint>
          <Trackpoint>
            <Time>2021-08-13T10:38:52.000Z</Time>
            <Position>
              <LatitudeDegrees>43.16618383862078189849853515625</LatitudeDegrees>
              <LongitudeDegrees>-1.9636752270162105560302734375</LongitudeDegrees>
            </Position>
            <AltitudeMeters>241.1999969482421875</AltitudeMeters>
            <DistanceMeters>NAN</DistanceMeters>
          </Trackpoint>
          <Trackpoint>
            <Time>2021-08-13T10:38:53.000Z</Time>
            <Position>
              <LatitudeDegrees>43.16615282557904720306396484375</LatitudeDegrees>
              <LongitudeDegrees>-1.9636923260986804962158203125</LongitudeDegrees>
            </Position>
            <AltitudeMeters>241.1999969482421875</AltitudeMeters>
            <DistanceMeters>NAN</DistanceMeters>
          </Trackpoint>
          <Trackpoint>
            <Time>2021-08-13T10:38:59.000Z</Time>
            <Position>
              <LatitudeDegrees>43.1659814156591892242431640625</LatitudeDegrees>
              <LongitudeDegrees>-1.9637419469654560089111328125</LongitudeDegrees>
            </Position>
            <AltitudeMeters>241.600006103515625</AltitudeMeters>
            <DistanceMeters>NAN</DistanceMeters>
          </Trackpoint>
          <Trackpoint>
            <Time>2021-08-13T10:39:00.000Z</Time>
            <Position>
              <LatitudeDegrees>43.16596087999641895294189453125</LatitudeDegrees>
              <LongitudeDegrees>-1.9637499935925006866455078125</LongitudeDegrees>
            </Position>
            <AltitudeMeters>241.8000030517578125</AltitudeMeters>
            <DistanceMeters>NAN</DistanceMeters>
          </Trackpoint>
          <Trackpoint>
            <Time>2021-08-13T10:39:01.000Z</Time>
            <Position>
              <LatitudeDegrees>43.16593891941010951995849609375</LatitudeDegrees>
              <LongitudeDegrees>-1.96375628001987934112548828125</LongitudeDegrees>
            </Position>
            <AltitudeMeters>242</AltitudeMeters>
            <DistanceMeters>NAN</DistanceMeters>
          </Trackpoint>
          <Trackpoint>
            <Time>2021-08-13T10:39:02.000Z</Time>
            <Position>
              <LatitudeDegrees>43.16591821610927581787109375</LatitudeDegrees>
              <LongitudeDegrees>-1.9637590460479259490966796875</LongitudeDegrees>
            </Position>
            <AltitudeMeters>242</AltitudeMeters>
            <DistanceMeters>NAN</DistanceMeters>
          </Trackpoint>
          <Trackpoint>
            <Time>2021-08-13T10:39:03.000Z</Time>
            <Position>
              <LatitudeDegrees>43.16589985974133014678955078125</LatitudeDegrees>
              <LongitudeDegrees>-1.96376214735209941864013671875</LongitudeDegrees>
            </Position>
            <AltitudeMeters>242.1999969482421875</AltitudeMeters>
            <DistanceMeters>NAN</DistanceMeters>
          </Trackpoint>
          <Trackpoint>
            <Time>2021-08-13T10:39:04.000Z</Time>
            <Position>
              <LatitudeDegrees>43.1658828444778919219970703125</LatitudeDegrees>
              <LongitudeDegrees>-1.96375988423824310302734375</LongitudeDegrees>
            </Position>
            <AltitudeMeters>242</AltitudeMeters>
            <DistanceMeters>NAN</DistanceMeters>
          </Trackpoint>
          <Trackpoint>
            <Time>2021-08-13T10:39:06.000Z</Time>
            <Position>
              <LatitudeDegrees>43.1658245064318180084228515625</LatitudeDegrees>
              <LongitudeDegrees>-1.96377069689333438873291015625</LongitudeDegrees>
            </Position>
            <AltitudeMeters>242.1999969482421875</AltitudeMeters>
            <DistanceMeters>NAN</DistanceMeters>
          </Trackpoint>
          <Trackpoint>
            <Time>2021-08-13T10:39:12.000Z</Time>
            <Position>
              <LatitudeDegrees>43.16567002795636653900146484375</LatitudeDegrees>
              <LongitudeDegrees>-1.96376013569533824920654296875</LongitudeDegrees>
            </Position>
            <AltitudeMeters>242.399993896484375</AltitudeMeters>
            <DistanceMeters>NAN</DistanceMeters>
          </Trackpoint>
          <Trackpoint>
            <Time>2021-08-13T10:39:14.000Z</Time>
            <Position>
              <LatitudeDegrees>43.16563767381012439727783203125</LatitudeDegrees>
              <LongitudeDegrees>-1.963757537305355072021484375</LongitudeDegrees>
            </Position>
            <AltitudeMeters>242.600006103515625</AltitudeMeters>
            <DistanceMeters>NAN</DistanceMeters>
          </Trackpoint>
          <Trackpoint>
            <Time>2021-08-13T10:39:15.000Z</Time>
            <Position>
              <LatitudeDegrees>43.16561588086187839508056640625</LatitudeDegrees>
              <LongitudeDegrees>-1.963752843439579010009765625</LongitudeDegrees>
            </Position>
            <AltitudeMeters>242.600006103515625</AltitudeMeters>
            <DistanceMeters>NAN</DistanceMeters>
          </Trackpoint>
          <Trackpoint>
            <Time>2021-08-13T10:39:16.000Z</Time>
            <Position>
              <LatitudeDegrees>43.16559358499944210052490234375</LatitudeDegrees>
              <LongitudeDegrees>-1.963745467364788055419921875</LongitudeDegrees>
            </Position>
            <AltitudeMeters>242.600006103515625</AltitudeMeters>
            <DistanceMeters>NAN</DistanceMeters>
          </Trackpoint>
          <Trackpoint>
            <Time>2021-08-13T10:39:17.000Z</Time>
            <Position>
              <LatitudeDegrees>43.16557757556438446044921875</LatitudeDegrees>
              <LongitudeDegrees>-1.96374152787029743194580078125</LongitudeDegrees>
            </Position>
            <AltitudeMeters>242.600006103515625</AltitudeMeters>
            <DistanceMeters>NAN</DistanceMeters>
          </Trackpoint>
          <Trackpoint>
            <Time>2021-08-13T10:39:18.000Z</Time>
            <Position>
              <LatitudeDegrees>43.16555184312164783477783203125</LatitudeDegrees>
              <LongitudeDegrees>-1.96373641490936279296875</LongitudeDegrees>
            </Position>
            <AltitudeMeters>242.600006103515625</AltitudeMeters>
            <DistanceMeters>NAN</DistanceMeters>
          </Trackpoint>
          <Trackpoint>
            <Time>2021-08-13T10:39:19.000Z</Time>
            <Position>
              <LatitudeDegrees>43.16552686505019664764404296875</LatitudeDegrees>
              <LongitudeDegrees>-1.9637375883758068084716796875</LongitudeDegrees>
            </Position>
            <AltitudeMeters>242.600006103515625</AltitudeMeters>
            <DistanceMeters>NAN</DistanceMeters>
          </Trackpoint>
          <Trackpoint>
            <Time>2021-08-13T10:39:20.000Z</Time>
            <Position>
              <LatitudeDegrees>43.165499456226825714111328125</LatitudeDegrees>
              <LongitudeDegrees>-1.96374605409801006317138671875</LongitudeDegrees>
            </Position>
            <AltitudeMeters>242.600006103515625</AltitudeMeters>
            <DistanceMeters>NAN</DistanceMeters>
          </Trackpoint>
          <Trackpoint>
            <Time>2021-08-13T10:39:21.000Z</Time>
            <Position>
              <LatitudeDegrees>43.165479339659214019775390625</LatitudeDegrees>
              <LongitudeDegrees>-1.96375586092472076416015625</LongitudeDegrees>
            </Position>
            <AltitudeMeters>242.600006103515625</AltitudeMeters>
            <DistanceMeters>NAN</DistanceMeters>
          </Trackpoint>
          <Trackpoint>
            <Time>2021-08-13T10:39:22.000Z</Time>
            <Position>
              <LatitudeDegrees>43.16545017063617706298828125</LatitudeDegrees>
              <LongitudeDegrees>-1.96376164443790912628173828125</LongitudeDegrees>
            </Position>
            <AltitudeMeters>242.600006103515625</AltitudeMeters>
            <DistanceMeters>NAN</DistanceMeters>
          </Trackpoint>
          <Trackpoint>
            <Time>2021-08-13T10:39:23.000Z</Time>
            <Position>
              <LatitudeDegrees>43.16543533466756343841552734375</LatitudeDegrees>
              <LongitudeDegrees>-1.96377187035977840423583984375</LongitudeDegrees>
            </Position>
            <AltitudeMeters>242.8000030517578125</AltitudeMeters>
            <DistanceMeters>NAN</DistanceMeters>
          </Trackpoint>
          <Trackpoint>
            <Time>2021-08-13T10:39:24.000Z</Time>
            <Position>
              <LatitudeDegrees>43.1654134579002857208251953125</LatitudeDegrees>
              <LongitudeDegrees>-1.963787041604518890380859375</LongitudeDegrees>
            </Position>
            <AltitudeMeters>243</AltitudeMeters>
            <DistanceMeters>NAN</DistanceMeters>
          </Trackpoint>
          <Trackpoint>
            <Time>2021-08-13T10:39:25.000Z</Time>
            <Position>
              <LatitudeDegrees>43.16539979539811611175537109375</LatitudeDegrees>
              <LongitudeDegrees>-1.96379634551703929901123046875</LongitudeDegrees>
            </Position>
            <AltitudeMeters>243</AltitudeMeters>
            <DistanceMeters>NAN</DistanceMeters>
          </Trackpoint>
          <Trackpoint>
            <Time>2021-08-13T10:39:26.000Z</Time>
            <Position>
              <LatitudeDegrees>43.1653775833547115325927734375</LatitudeDegrees>
              <LongitudeDegrees>-1.9638136960566043853759765625</LongitudeDegrees>
            </Position>
            <AltitudeMeters>243.1999969482421875</AltitudeMeters>
            <DistanceMeters>NAN</DistanceMeters>
          </Trackpoint>
          <Trackpoint>
            <Time>2021-08-13T10:39:28.000Z</Time>
            <Position>
              <LatitudeDegrees>43.16533475182950496673583984375</LatitudeDegrees>
              <LongitudeDegrees>-1.963856108486652374267578125</LongitudeDegrees>
            </Position>
            <AltitudeMeters>243.399993896484375</AltitudeMeters>
            <DistanceMeters>NAN</DistanceMeters>
          </Trackpoint>
          <Trackpoint>
            <Time>2021-08-13T10:39:29.000Z</Time>
            <Position>
              <LatitudeDegrees>43.16531245596706867218017578125</LatitudeDegrees>
              <LongitudeDegrees>-1.9638579525053501129150390625</LongitudeDegrees>
            </Position>
            <AltitudeMeters>243.399993896484375</AltitudeMeters>
            <DistanceMeters>NAN</DistanceMeters>
          </Trackpoint>
          <Trackpoint>
            <Time>2021-08-13T10:39:33.000Z</Time>
            <Position>
              <LatitudeDegrees>43.16521279513835906982421875</LatitudeDegrees>
              <LongitudeDegrees>-1.963925845921039581298828125</LongitudeDegrees>
            </Position>
            <AltitudeMeters>243.8000030517578125</AltitudeMeters>
            <DistanceMeters>NAN</DistanceMeters>
          </Trackpoint>
          <Trackpoint>
            <Time>2021-08-13T10:39:34.000Z</Time>
            <Position>
              <LatitudeDegrees>43.16519058309495449066162109375</LatitudeDegrees>
              <LongitudeDegrees>-1.9639407657086849212646484375</LongitudeDegrees>
            </Position>
            <AltitudeMeters>243.8000030517578125</AltitudeMeters>
            <DistanceMeters>NAN</DistanceMeters>
          </Trackpoint>
          <Trackpoint>
            <Time>2021-08-13T10:39:35.000Z</Time>
            <Position>
              <LatitudeDegrees>43.1651636771857738494873046875</LatitudeDegrees>
              <LongitudeDegrees>-1.96394504047930240631103515625</LongitudeDegrees>
            </Position>
            <AltitudeMeters>244</AltitudeMeters>
            <DistanceMeters>NAN</DistanceMeters>
          </Trackpoint>
          <Trackpoint>
            <Time>2021-08-13T10:39:36.000Z</Time>
            <Position>
              <LatitudeDegrees>43.16514045931398868560791015625</LatitudeDegrees>
              <LongitudeDegrees>-1.96396867744624614715576171875</LongitudeDegrees>
            </Position>
            <AltitudeMeters>244</AltitudeMeters>
            <DistanceMeters>NAN</DistanceMeters>
          </Trackpoint>
          <Trackpoint>
            <Time>2021-08-13T10:39:39.000Z</Time>
            <Position>
              <LatitudeDegrees>43.165076673030853271484375</LatitudeDegrees>
              <LongitudeDegrees>-1.9640440307557582855224609375</LongitudeDegrees>
            </Position>
            <AltitudeMeters>244.1999969482421875</AltitudeMeters>
            <DistanceMeters>NAN</DistanceMeters>
          </Trackpoint>
          <Trackpoint>
            <Time>2021-08-13T10:39:40.000Z</Time>
            <Position>
              <LatitudeDegrees>43.16504892893135547637939453125</LatitudeDegrees>
              <LongitudeDegrees>-1.96407378651201725006103515625</LongitudeDegrees>
            </Position>
            <AltitudeMeters>244.399993896484375</AltitudeMeters>
            <DistanceMeters>NAN</DistanceMeters>
          </Trackpoint>
          <Trackpoint>
            <Time>2021-08-13T10:39:46.000Z</Time>
            <Position>
              <LatitudeDegrees>43.16492454148828983306884765625</LatitudeDegrees>
              <LongitudeDegrees>-1.964246369898319244384765625</LongitudeDegrees>
            </Position>
            <AltitudeMeters>244.399993896484375</AltitudeMeters>
            <DistanceMeters>NAN</DistanceMeters>
          </Trackpoint>
          <Trackpoint>
            <Time>2021-08-13T10:39:47.000Z</Time>
            <Position>
              <LatitudeDegrees>43.1649075262248516082763671875</LatitudeDegrees>
              <LongitudeDegrees>-1.96429096162319183349609375</LongitudeDegrees>
            </Position>
            <AltitudeMeters>244.399993896484375</AltitudeMeters>
            <DistanceMeters>NAN</DistanceMeters>
          </Trackpoint>
          <Trackpoint>
            <Time>2021-08-13T10:39:48.000Z</Time>
            <Position>
              <LatitudeDegrees>43.1649058498442173004150390625</LatitudeDegrees>
              <LongitudeDegrees>-1.964333541691303253173828125</LongitudeDegrees>
            </Position>
            <AltitudeMeters>244.399993896484375</AltitudeMeters>
            <DistanceMeters>NAN</DistanceMeters>
          </Trackpoint>
          <Trackpoint>
            <Time>2021-08-13T10:39:49.000Z</Time>
            <Position>
              <LatitudeDegrees>43.16488514654338359832763671875</LatitudeDegrees>
              <LongitudeDegrees>-1.9643653929233551025390625</LongitudeDegrees>
            </Position>
            <AltitudeMeters>244.399993896484375</AltitudeMeters>
            <DistanceMeters>NAN</DistanceMeters>
          </Trackpoint>
          <Trackpoint>
            <Time>2021-08-13T10:39:52.000Z</Time>
            <Position>
              <LatitudeDegrees>43.16486016847193241119384765625</LatitudeDegrees>
              <LongitudeDegrees>-1.96444787085056304931640625</LongitudeDegrees>
            </Position>
            <AltitudeMeters>244.1999969482421875</AltitudeMeters>
            <DistanceMeters>NAN</DistanceMeters>
          </Trackpoint>
          <Trackpoint>
            <Time>2021-08-13T10:39:53.000Z</Time>
            <Position>
              <LatitudeDegrees>43.16486268304288387298583984375</LatitudeDegrees>
              <LongitudeDegrees>-1.96447670459747314453125</LongitudeDegrees>
            </Position>
            <AltitudeMeters>244.1999969482421875</AltitudeMeters>
            <DistanceMeters>NAN</DistanceMeters>
          </Trackpoint>
          <Trackpoint>
            <Time>2021-08-13T10:39:54.000Z</Time>
            <Position>
              <LatitudeDegrees>43.1648636050522327423095703125</LatitudeDegrees>
              <LongitudeDegrees>-1.9645075500011444091796875</LongitudeDegrees>
            </Position>
            <AltitudeMeters>244</AltitudeMeters>
            <DistanceMeters>NAN</DistanceMeters>
          </Trackpoint>
          <Trackpoint>
            <Time>2021-08-13T10:39:55.000Z</Time>
            <Position>
              <LatitudeDegrees>43.16486000083386898040771484375</LatitudeDegrees>
              <LongitudeDegrees>-1.9645378924906253814697265625</LongitudeDegrees>
            </Position>
            <AltitudeMeters>243.8000030517578125</AltitudeMeters>
            <DistanceMeters>NAN</DistanceMeters>
          </Trackpoint>
          <Trackpoint>
            <Time>2021-08-13T10:39:59.000Z</Time>
            <Position>
              <LatitudeDegrees>43.1648421473801136016845703125</LatitudeDegrees>
              <LongitudeDegrees>-1.96468524634838104248046875</LongitudeDegrees>
            </Position>
            <AltitudeMeters>243.399993896484375</AltitudeMeters>
            <DistanceMeters>NAN</DistanceMeters>
          </Trackpoint>
          <Trackpoint>
            <Time>2021-08-13T10:40:06.000Z</Time>
            <Position>
              <LatitudeDegrees>43.16486452706158161163330078125</LatitudeDegrees>
              <LongitudeDegrees>-1.96494684554636478424072265625</LongitudeDegrees>
            </Position>
            <AltitudeMeters>243</AltitudeMeters>
            <DistanceMeters>NAN</DistanceMeters>
          </Trackpoint>
          <Trackpoint>
            <Time>2021-08-13T10:40:10.000Z</Time>
            <Position>
              <LatitudeDegrees>43.16489352844655513763427734375</LatitudeDegrees>
              <LongitudeDegrees>-1.96508246473968029022216796875</LongitudeDegrees>
            </Position>
            <AltitudeMeters>243.1999969482421875</AltitudeMeters>
            <DistanceMeters>NAN</DistanceMeters>
          </Trackpoint>
          <Trackpoint>
            <Time>2021-08-13T10:40:11.000Z</Time>
            <Position>
              <LatitudeDegrees>43.16490643657743930816650390625</LatitudeDegrees>
              <LongitudeDegrees>-1.96512470953166484832763671875</LongitudeDegrees>
            </Position>
            <AltitudeMeters>243.399993896484375</AltitudeMeters>
            <DistanceMeters>NAN</DistanceMeters>
          </Trackpoint>
          <Trackpoint>
            <Time>2021-08-13T10:40:13.000Z</Time>
            <Position>
              <LatitudeDegrees>43.1649172492325305938720703125</LatitudeDegrees>
              <LongitudeDegrees>-1.9651946984231472015380859375</LongitudeDegrees>
            </Position>
            <AltitudeMeters>243.399993896484375</AltitudeMeters>
            <DistanceMeters>NAN</DistanceMeters>
          </Trackpoint>
          <Trackpoint>
            <Time>2021-08-13T10:40:15.000Z</Time>
            <Position>
              <LatitudeDegrees>43.16492336802184581756591796875</LatitudeDegrees>
              <LongitudeDegrees>-1.96526032872498035430908203125</LongitudeDegrees>
            </Position>
            <AltitudeMeters>243.399993896484375</AltitudeMeters>
            <DistanceMeters>NAN</DistanceMeters>
          </Trackpoint>
          <Trackpoint>
            <Time>2021-08-13T10:40:16.000Z</Time>
            <Position>
              <LatitudeDegrees>43.16492286510765552520751953125</LatitudeDegrees>
              <LongitudeDegrees>-1.965292431414127349853515625</LongitudeDegrees>
            </Position>
            <AltitudeMeters>243.399993896484375</AltitudeMeters>
            <DistanceMeters>NAN</DistanceMeters>
          </Trackpoint>
          <Trackpoint>
            <Time>2021-08-13T10:40:17.000Z</Time>
            <Position>
              <LatitudeDegrees>43.1649377010762691497802734375</LatitudeDegrees>
              <LongitudeDegrees>-1.96533107198774814605712890625</LongitudeDegrees>
            </Position>
            <AltitudeMeters>243.600006103515625</AltitudeMeters>
            <DistanceMeters>NAN</DistanceMeters>
          </Trackpoint>
          <Trackpoint>
            <Time>2021-08-13T10:40:26.000Z</Time>
            <Position>
              <LatitudeDegrees>43.16493644379079341888427734375</LatitudeDegrees>
              <LongitudeDegrees>-1.96568964980542659759521484375</LongitudeDegrees>
            </Position>
            <AltitudeMeters>244</AltitudeMeters>
            <DistanceMeters>NAN</DistanceMeters>
          </Trackpoint>
          <Trackpoint>
            <Time>2021-08-13T10:40:31.000Z</Time>
            <Position>
              <LatitudeDegrees>43.1648914329707622528076171875</LatitudeDegrees>
              <LongitudeDegrees>-1.9659356586635112762451171875</LongitudeDegrees>
            </Position>
            <AltitudeMeters>244.1999969482421875</AltitudeMeters>
            <DistanceMeters>NAN</DistanceMeters>
          </Trackpoint>
          <Trackpoint>
            <Time>2021-08-13T10:40:37.000Z</Time>
            <Position>
              <LatitudeDegrees>43.1648337654769420623779296875</LatitudeDegrees>
              <LongitudeDegrees>-1.966176219284534454345703125</LongitudeDegrees>
            </Position>
            <AltitudeMeters>244.1999969482421875</AltitudeMeters>
            <DistanceMeters>NAN</DistanceMeters>
          </Trackpoint>
          <Trackpoint>
            <Time>2021-08-13T10:40:38.000Z</Time>
            <Position>
              <LatitudeDegrees>43.1648317538201808929443359375</LatitudeDegrees>
              <LongitudeDegrees>-1.96622709743678569793701171875</LongitudeDegrees>
            </Position>
            <AltitudeMeters>244.1999969482421875</AltitudeMeters>
            <DistanceMeters>NAN</DistanceMeters>
          </Trackpoint>
          <Trackpoint>
            <Time>2021-08-13T10:40:40.000Z</Time>
            <Position>
              <LatitudeDegrees>43.16480250097811222076416015625</LatitudeDegrees>
              <LongitudeDegrees>-1.966303624212741851806640625</LongitudeDegrees>
            </Position>
            <AltitudeMeters>244.1999969482421875</AltitudeMeters>
            <DistanceMeters>NAN</DistanceMeters>
          </Trackpoint>
          <Trackpoint>
            <Time>2021-08-13T10:40:41.000Z</Time>
            <Position>
              <LatitudeDegrees>43.1648106314241886138916015625</LatitudeDegrees>
              <LongitudeDegrees>-1.96635601110756397247314453125</LongitudeDegrees>
            </Position>
            <AltitudeMeters>244.1999969482421875</AltitudeMeters>
            <DistanceMeters>NAN</DistanceMeters>
          </Trackpoint>
          <Trackpoint>
            <Time>2021-08-13T10:40:42.000Z</Time>
            <Position>
              <LatitudeDegrees>43.16480870358645915985107421875</LatitudeDegrees>
              <LongitudeDegrees>-1.966399848461151123046875</LongitudeDegrees>
            </Position>
            <AltitudeMeters>244.1999969482421875</AltitudeMeters>
            <DistanceMeters>NAN</DistanceMeters>
          </Trackpoint>
          <Trackpoint>
            <Time>2021-08-13T10:40:43.000Z</Time>
            <Position>
              <LatitudeDegrees>43.16480853594839572906494140625</LatitudeDegrees>
              <LongitudeDegrees>-1.96644636802375316619873046875</LongitudeDegrees>
            </Position>
            <AltitudeMeters>244.399993896484375</AltitudeMeters>
            <DistanceMeters>NAN</DistanceMeters>
          </Trackpoint>
          <Trackpoint>
            <Time>2021-08-13T10:40:44.000Z</Time>
            <Position>
              <LatitudeDegrees>43.16480551846325397491455078125</LatitudeDegrees>
              <LongitudeDegrees>-1.96648693643510341644287109375</LongitudeDegrees>
            </Position>
            <AltitudeMeters>244.399993896484375</AltitudeMeters>
            <DistanceMeters>NAN</DistanceMeters>
          </Trackpoint>
          <Trackpoint>
            <Time>2021-08-13T10:40:45.000Z</Time>
            <Position>
              <LatitudeDegrees>43.16480753012001514434814453125</LatitudeDegrees>
              <LongitudeDegrees>-1.966528259217739105224609375</LongitudeDegrees>
            </Position>
            <AltitudeMeters>244.399993896484375</AltitudeMeters>
            <DistanceMeters>NAN</DistanceMeters>
          </Trackpoint>
          <Trackpoint>
            <Time>2021-08-13T10:40:46.000Z</Time>
            <Position>
              <LatitudeDegrees>43.16481172107160091400146484375</LatitudeDegrees>
              <LongitudeDegrees>-1.96660562418401241302490234375</LongitudeDegrees>
            </Position>
            <AltitudeMeters>244.600006103515625</AltitudeMeters>
            <DistanceMeters>NAN</DistanceMeters>
          </Trackpoint>
          <Trackpoint>
            <Time>2021-08-13T10:40:49.000Z</Time>
            <Position>
              <LatitudeDegrees>43.16479881294071674346923828125</LatitudeDegrees>
              <LongitudeDegrees>-1.9667399860918521881103515625</LongitudeDegrees>
            </Position>
            <AltitudeMeters>244.600006103515625</AltitudeMeters>
            <DistanceMeters>NAN</DistanceMeters>
          </Trackpoint>
          <Trackpoint>
            <Time>2021-08-13T10:40:50.000Z</Time>
            <Position>
              <LatitudeDegrees>43.16479931585490703582763671875</LatitudeDegrees>
              <LongitudeDegrees>-1.96678784675896167755126953125</LongitudeDegrees>
            </Position>
            <AltitudeMeters>244.600006103515625</AltitudeMeters>
            <DistanceMeters>NAN</DistanceMeters>
          </Trackpoint>
          <Trackpoint>
            <Time>2021-08-13T10:40:51.000Z</Time>
            <Position>
              <LatitudeDegrees>43.16481138579547405242919921875</LatitudeDegrees>
              <LongitudeDegrees>-1.96683101356029510498046875</LongitudeDegrees>
            </Position>
            <AltitudeMeters>244.600006103515625</AltitudeMeters>
            <DistanceMeters>NAN</DistanceMeters>
          </Trackpoint>
          <Trackpoint>
            <Time>2021-08-13T10:40:52.000Z</Time>
            <Position>
              <LatitudeDegrees>43.16481448709964752197265625</LatitudeDegrees>
              <LongitudeDegrees>-1.9668747670948505401611328125</LongitudeDegrees>
            </Position>
            <AltitudeMeters>244.8000030517578125</AltitudeMeters>
            <DistanceMeters>NAN</DistanceMeters>
          </Trackpoint>
          <Trackpoint>
            <Time>2021-08-13T10:40:53.000Z</Time>
            <Position>
              <LatitudeDegrees>43.1648052670061588287353515625</LatitudeDegrees>
              <LongitudeDegrees>-1.96691416203975677490234375</LongitudeDegrees>
            </Position>
            <AltitudeMeters>245</AltitudeMeters>
            <DistanceMeters>NAN</DistanceMeters>
          </Trackpoint>
          <Trackpoint>
            <Time>2021-08-13T10:40:55.000Z</Time>
            <Position>
              <LatitudeDegrees>43.16480778157711029052734375</LatitudeDegrees>
              <LongitudeDegrees>-1.96701264940202236175537109375</LongitudeDegrees>
            </Position>
            <AltitudeMeters>245</AltitudeMeters>
            <DistanceMeters>NAN</DistanceMeters>
          </Trackpoint>
          <Trackpoint>
            <Time>2021-08-13T10:41:01.000Z</Time>
            <Position>
              <LatitudeDegrees>43.16481188870966434478759765625</LatitudeDegrees>
              <LongitudeDegrees>-1.96729042567312717437744140625</LongitudeDegrees>
            </Position>
            <AltitudeMeters>245.399993896484375</AltitudeMeters>
            <DistanceMeters>NAN</DistanceMeters>
          </Trackpoint>
          <Trackpoint>
            <Time>2021-08-13T10:41:02.000Z</Time>
            <Position>
              <LatitudeDegrees>43.164806105196475982666015625</LatitudeDegrees>
              <LongitudeDegrees>-1.96733929216861724853515625</LongitudeDegrees>
            </Position>
            <AltitudeMeters>245.600006103515625</AltitudeMeters>
            <DistanceMeters>NAN</DistanceMeters>
          </Trackpoint>
          <Trackpoint>
            <Time>2021-08-13T10:41:09.000Z</Time>
            <Position>
              <LatitudeDegrees>43.16477567888796329498291015625</LatitudeDegrees>
              <LongitudeDegrees>-1.96764732711017131805419921875</LongitudeDegrees>
            </Position>
            <AltitudeMeters>245.8000030517578125</AltitudeMeters>
            <DistanceMeters>NAN</DistanceMeters>
          </Trackpoint>
          <Trackpoint>
            <Time>2021-08-13T10:41:10.000Z</Time>
            <Position>
              <LatitudeDegrees>43.16476947627961635589599609375</LatitudeDegrees>
              <LongitudeDegrees>-1.96768663823604583740234375</LongitudeDegrees>
            </Position>
            <AltitudeMeters>246.1999969482421875</AltitudeMeters>
            <DistanceMeters>NAN</DistanceMeters>
          </Trackpoint>
          <Trackpoint>
            <Time>2021-08-13T10:41:11.000Z</Time>
            <Position>
              <LatitudeDegrees>43.16476360894739627838134765625</LatitudeDegrees>
              <LongitudeDegrees>-1.96771957911550998687744140625</LongitudeDegrees>
            </Position>
            <AltitudeMeters>246</AltitudeMeters>
            <DistanceMeters>NAN</DistanceMeters>
          </Trackpoint>
          <Trackpoint>
            <Time>2021-08-13T10:41:13.000Z</Time>
            <Position>
              <LatitudeDegrees>43.1647496111690998077392578125</LatitudeDegrees>
              <LongitudeDegrees>-1.96781538426876068115234375</LongitudeDegrees>
            </Position>
            <AltitudeMeters>246.1999969482421875</AltitudeMeters>
            <DistanceMeters>NAN</DistanceMeters>
          </Trackpoint>
          <Trackpoint>
            <Time>2021-08-13T10:41:17.000Z</Time>
            <Position>
              <LatitudeDegrees>43.16471214406192302703857421875</LatitudeDegrees>
              <LongitudeDegrees>-1.96798427961766719818115234375</LongitudeDegrees>
            </Position>
            <AltitudeMeters>246.600006103515625</AltitudeMeters>
            <DistanceMeters>NAN</DistanceMeters>
          </Trackpoint>
          <Trackpoint>
            <Time>2021-08-13T10:41:18.000Z</Time>
            <Position>
              <LatitudeDegrees>43.1647050194442272186279296875</LatitudeDegrees>
              <LongitudeDegrees>-1.96802794933319091796875</LongitudeDegrees>
            </Position>
            <AltitudeMeters>246.600006103515625</AltitudeMeters>
            <DistanceMeters>NAN</DistanceMeters>
          </Trackpoint>
          <Trackpoint>
            <Time>2021-08-13T10:41:19.000Z</Time>
            <Position>
              <LatitudeDegrees>43.1647030077874660491943359375</LatitudeDegrees>
              <LongitudeDegrees>-1.968074552714824676513671875</LongitudeDegrees>
            </Position>
            <AltitudeMeters>246.600006103515625</AltitudeMeters>
            <DistanceMeters>NAN</DistanceMeters>
          </Trackpoint>
          <Trackpoint>
            <Time>2021-08-13T10:41:22.000Z</Time>
            <Position>
              <LatitudeDegrees>43.164674676954746246337890625</LatitudeDegrees>
              <LongitudeDegrees>-1.96821494959294795989990234375</LongitudeDegrees>
            </Position>
            <AltitudeMeters>246.8000030517578125</AltitudeMeters>
            <DistanceMeters>NAN</DistanceMeters>
          </Trackpoint>
          <Trackpoint>
            <Time>2021-08-13T10:41:24.000Z</Time>
            <Position>
              <LatitudeDegrees>43.164659254252910614013671875</LatitudeDegrees>
              <LongitudeDegrees>-1.96829441003501415252685546875</LongitudeDegrees>
            </Position>
            <AltitudeMeters>247</AltitudeMeters>
            <DistanceMeters>NAN</DistanceMeters>
          </Trackpoint>
          <Trackpoint>
            <Time>2021-08-13T10:41:25.000Z</Time>
            <Position>
              <LatitudeDegrees>43.1646507047116756439208984375</LatitudeDegrees>
              <LongitudeDegrees>-1.96833061985671520233154296875</LongitudeDegrees>
            </Position>
            <AltitudeMeters>247.1999969482421875</AltitudeMeters>
            <DistanceMeters>NAN</DistanceMeters>
          </Trackpoint>
          <Trackpoint>
            <Time>2021-08-13T10:41:27.000Z</Time>
            <Position>
              <LatitudeDegrees>43.1646274030208587646484375</LatitudeDegrees>
              <LongitudeDegrees>-1.96840345859527587890625</LongitudeDegrees>
            </Position>
            <AltitudeMeters>247.399993896484375</AltitudeMeters>
            <DistanceMeters>NAN</DistanceMeters>
          </Trackpoint>
          <Trackpoint>
            <Time>2021-08-13T10:41:29.000Z</Time>
            <Position>
              <LatitudeDegrees>43.1645789556205272674560546875</LatitudeDegrees>
              <LongitudeDegrees>-1.96850647218525409698486328125</LongitudeDegrees>
            </Position>
            <AltitudeMeters>247.399993896484375</AltitudeMeters>
            <DistanceMeters>NAN</DistanceMeters>
          </Trackpoint>
          <Trackpoint>
            <Time>2021-08-13T10:41:35.000Z</Time>
            <Position>
              <LatitudeDegrees>43.1644532270729541778564453125</LatitudeDegrees>
              <LongitudeDegrees>-1.96881115436553955078125</LongitudeDegrees>
            </Position>
            <AltitudeMeters>247.8000030517578125</AltitudeMeters>
            <DistanceMeters>NAN</DistanceMeters>
          </Trackpoint>
          <Trackpoint>
            <Time>2021-08-13T10:41:38.000Z</Time>
            <Position>
              <LatitudeDegrees>43.1644143350422382354736328125</LatitudeDegrees>
              <LongitudeDegrees>-1.9689521379768848419189453125</LongitudeDegrees>
            </Position>
            <AltitudeMeters>248.1999969482421875</AltitudeMeters>
            <DistanceMeters>NAN</DistanceMeters>
          </Trackpoint>
          <Trackpoint>
            <Time>2021-08-13T10:41:39.000Z</Time>
            <Position>
              <LatitudeDegrees>43.1644109822809696197509765625</LatitudeDegrees>
              <LongitudeDegrees>-1.96900184266269207000732421875</LongitudeDegrees>
            </Position>
            <AltitudeMeters>248.1999969482421875</AltitudeMeters>
            <DistanceMeters>NAN</DistanceMeters>
          </Trackpoint>
          <Trackpoint>
            <Time>2021-08-13T10:41:40.000Z</Time>
            <Position>
              <LatitudeDegrees>43.16439430229365825653076171875</LatitudeDegrees>
              <LongitudeDegrees>-1.96903855539858341217041015625</LongitudeDegrees>
            </Position>
            <AltitudeMeters>248.1999969482421875</AltitudeMeters>
            <DistanceMeters>NAN</DistanceMeters>
          </Trackpoint>
          <Trackpoint>
            <Time>2021-08-13T10:41:47.000Z</Time>
            <Position>
              <LatitudeDegrees>43.1642715074121952056884765625</LatitudeDegrees>
              <LongitudeDegrees>-1.96932823397219181060791015625</LongitudeDegrees>
            </Position>
            <AltitudeMeters>248.600006103515625</AltitudeMeters>
            <DistanceMeters>NAN</DistanceMeters>
          </Trackpoint>
          <Trackpoint>
            <Time>2021-08-13T10:41:48.000Z</Time>
            <Position>
              <LatitudeDegrees>43.16424719989299774169921875</LatitudeDegrees>
              <LongitudeDegrees>-1.96935899555683135986328125</LongitudeDegrees>
            </Position>
            <AltitudeMeters>248.600006103515625</AltitudeMeters>
            <DistanceMeters>NAN</DistanceMeters>
          </Trackpoint>
          <Trackpoint>
            <Time>2021-08-13T10:41:49.000Z</Time>
            <Position>
              <LatitudeDegrees>43.16422180272638797760009765625</LatitudeDegrees>
              <LongitudeDegrees>-1.96937869302928447723388671875</LongitudeDegrees>
            </Position>
            <AltitudeMeters>248.600006103515625</AltitudeMeters>
            <DistanceMeters>NAN</DistanceMeters>
          </Trackpoint>
          <Trackpoint>
            <Time>2021-08-13T10:41:50.000Z</Time>
            <Position>
              <LatitudeDegrees>43.1641950644552707672119140625</LatitudeDegrees>
              <LongitudeDegrees>-1.96940283291041851043701171875</LongitudeDegrees>
            </Position>
            <AltitudeMeters>248.8000030517578125</AltitudeMeters>
            <DistanceMeters>NAN</DistanceMeters>
          </Trackpoint>
          <Trackpoint>
            <Time>2021-08-13T10:41:51.000Z</Time>
            <Position>
              <LatitudeDegrees>43.164170421659946441650390625</LatitudeDegrees>
              <LongitudeDegrees>-1.96942680515348911285400390625</LongitudeDegrees>
            </Position>
            <AltitudeMeters>248.8000030517578125</AltitudeMeters>
            <DistanceMeters>NAN</DistanceMeters>
          </Trackpoint>
          <Trackpoint>
            <Time>2021-08-13T10:41:52.000Z</Time>
            <Position>
              <LatitudeDegrees>43.164145946502685546875</LatitudeDegrees>
              <LongitudeDegrees>-1.96944708935916423797607421875</LongitudeDegrees>
            </Position>
            <AltitudeMeters>248.8000030517578125</AltitudeMeters>
            <DistanceMeters>NAN</DistanceMeters>
          </Trackpoint>
          <Trackpoint>
            <Time>2021-08-13T10:41:53.000Z</Time>
            <Position>
              <LatitudeDegrees>43.164118789136409759521484375</LatitudeDegrees>
              <LongitudeDegrees>-1.96946267969906330108642578125</LongitudeDegrees>
            </Position>
            <AltitudeMeters>248.8000030517578125</AltitudeMeters>
            <DistanceMeters>NAN</DistanceMeters>
          </Trackpoint>
          <Trackpoint>
            <Time>2021-08-13T10:41:54.000Z</Time>
            <Position>
              <LatitudeDegrees>43.164088614284992218017578125</LatitudeDegrees>
              <LongitudeDegrees>-1.9694781862199306488037109375</LongitudeDegrees>
            </Position>
            <AltitudeMeters>248.8000030517578125</AltitudeMeters>
            <DistanceMeters>NAN</DistanceMeters>
          </Trackpoint>
          <Trackpoint>
            <Time>2021-08-13T10:41:55.000Z</Time>
            <Position>
              <LatitudeDegrees>43.1640602834522724151611328125</LatitudeDegrees>
              <LongitudeDegrees>-1.96949704550206661224365234375</LongitudeDegrees>
            </Position>
            <AltitudeMeters>249</AltitudeMeters>
            <DistanceMeters>NAN</DistanceMeters>
          </Trackpoint>
          <Trackpoint>
            <Time>2021-08-13T10:41:56.000Z</Time>
            <Position>
              <LatitudeDegrees>43.16403404809534549713134765625</LatitudeDegrees>
              <LongitudeDegrees>-1.9695140607655048370361328125</LongitudeDegrees>
            </Position>
            <AltitudeMeters>249</AltitudeMeters>
            <DistanceMeters>NAN</DistanceMeters>
          </Trackpoint>
          <Trackpoint>
            <Time>2021-08-13T10:42:00.000Z</Time>
            <Position>
              <LatitudeDegrees>43.1639221496880054473876953125</LatitudeDegrees>
              <LongitudeDegrees>-1.96957114152610301971435546875</LongitudeDegrees>
            </Position>
            <AltitudeMeters>249.1999969482421875</AltitudeMeters>
            <DistanceMeters>NAN</DistanceMeters>
          </Trackpoint>
          <Trackpoint>
            <Time>2021-08-13T10:42:01.000Z</Time>
            <Position>
              <LatitudeDegrees>43.163892813026905059814453125</LatitudeDegrees>
              <LongitudeDegrees>-1.96958069689571857452392578125</LongitudeDegrees>
            </Position>
            <AltitudeMeters>249.1999969482421875</AltitudeMeters>
            <DistanceMeters>NAN</DistanceMeters>
          </Trackpoint>
          <Trackpoint>
            <Time>2021-08-13T10:42:02.000Z</Time>
            <Position>
              <LatitudeDegrees>43.1638651527464389801025390625</LatitudeDegrees>
              <LongitudeDegrees>-1.9695894978940486907958984375</LongitudeDegrees>
            </Position>
            <AltitudeMeters>249.399993896484375</AltitudeMeters>
            <DistanceMeters>NAN</DistanceMeters>
          </Trackpoint>
          <Trackpoint>
            <Time>2021-08-13T10:42:07.000Z</Time>
            <Position>
              <LatitudeDegrees>43.16370849497616291046142578125</LatitudeDegrees>
              <LongitudeDegrees>-1.96963660418987274169921875</LongitudeDegrees>
            </Position>
            <AltitudeMeters>249.8000030517578125</AltitudeMeters>
            <DistanceMeters>NAN</DistanceMeters>
          </Trackpoint>
          <Trackpoint>
            <Time>2021-08-13T10:42:09.000Z</Time>
            <Position>
              <LatitudeDegrees>43.16365183331072330474853515625</LatitudeDegrees>
              <LongitudeDegrees>-1.96965403854846954345703125</LongitudeDegrees>
            </Position>
            <AltitudeMeters>250</AltitudeMeters>
            <DistanceMeters>NAN</DistanceMeters>
          </Trackpoint>
          <Trackpoint>
            <Time>2021-08-13T10:42:10.000Z</Time>
            <Position>
              <LatitudeDegrees>43.1636230833828449249267578125</LatitudeDegrees>
              <LongitudeDegrees>-1.96965529583394527435302734375</LongitudeDegrees>
            </Position>
            <AltitudeMeters>250</AltitudeMeters>
            <DistanceMeters>NAN</DistanceMeters>
          </Trackpoint>
          <Trackpoint>
            <Time>2021-08-13T10:42:18.000Z</Time>
            <Position>
              <LatitudeDegrees>43.163346983492374420166015625</LatitudeDegrees>
              <LongitudeDegrees>-1.96960441768169403076171875</LongitudeDegrees>
            </Position>
            <AltitudeMeters>250.399993896484375</AltitudeMeters>
            <DistanceMeters>NAN</DistanceMeters>
          </Trackpoint>
          <Trackpoint>
            <Time>2021-08-13T10:42:22.000Z</Time>
            <Position>
              <LatitudeDegrees>43.163236677646636962890625</LatitudeDegrees>
              <LongitudeDegrees>-1.96953258477151393890380859375</LongitudeDegrees>
            </Position>
            <AltitudeMeters>250.600006103515625</AltitudeMeters>
            <DistanceMeters>NAN</DistanceMeters>
          </Trackpoint>
          <Trackpoint>
            <Time>2021-08-13T10:42:23.000Z</Time>
            <Position>
              <LatitudeDegrees>43.16321245394647121429443359375</LatitudeDegrees>
              <LongitudeDegrees>-1.9695170782506465911865234375</LongitudeDegrees>
            </Position>
            <AltitudeMeters>250.600006103515625</AltitudeMeters>
            <DistanceMeters>NAN</DistanceMeters>
          </Trackpoint>
          <Trackpoint>
            <Time>2021-08-13T10:42:24.000Z</Time>
            <Position>
              <LatitudeDegrees>43.16318177618086338043212890625</LatitudeDegrees>
              <LongitudeDegrees>-1.96949444711208343505859375</LongitudeDegrees>
            </Position>
            <AltitudeMeters>250.600006103515625</AltitudeMeters>
            <DistanceMeters>NAN</DistanceMeters>
          </Trackpoint>
          <Trackpoint>
            <Time>2021-08-13T10:42:29.000Z</Time>
            <Position>
              <LatitudeDegrees>43.1630209274590015411376953125</LatitudeDegrees>
              <LongitudeDegrees>-1.96939160116016864776611328125</LongitudeDegrees>
            </Position>
            <AltitudeMeters>250.8000030517578125</AltitudeMeters>
            <DistanceMeters>NAN</DistanceMeters>
          </Trackpoint>
          <Trackpoint>
            <Time>2021-08-13T10:42:30.000Z</Time>
            <Position>
              <LatitudeDegrees>43.16299921832978725433349609375</LatitudeDegrees>
              <LongitudeDegrees>-1.96936679072678089141845703125</LongitudeDegrees>
            </Position>
            <AltitudeMeters>251</AltitudeMeters>
            <DistanceMeters>NAN</DistanceMeters>
          </Trackpoint>
          <Trackpoint>
            <Time>2021-08-13T10:42:35.000Z</Time>
            <Position>
              <LatitudeDegrees>43.1628884933888912200927734375</LatitudeDegrees>
              <LongitudeDegrees>-1.9692327640950679779052734375</LongitudeDegrees>
            </Position>
            <AltitudeMeters>251.1999969482421875</AltitudeMeters>
            <DistanceMeters>NAN</DistanceMeters>
          </Trackpoint>
          <Trackpoint>
            <Time>2021-08-13T10:42:36.000Z</Time>
            <Position>
              <LatitudeDegrees>43.16287927329540252685546875</LatitudeDegrees>
              <LongitudeDegrees>-1.96919764392077922821044921875</LongitudeDegrees>
            </Position>
            <AltitudeMeters>251.399993896484375</AltitudeMeters>
            <DistanceMeters>NAN</DistanceMeters>
          </Trackpoint>
          <Trackpoint>
            <Time>2021-08-13T10:42:37.000Z</Time>
            <Position>
              <LatitudeDegrees>43.16286318004131317138671875</LatitudeDegrees>
              <LongitudeDegrees>-1.969160176813602447509765625</LongitudeDegrees>
            </Position>
            <AltitudeMeters>251.600006103515625</AltitudeMeters>
            <DistanceMeters>NAN</DistanceMeters>
          </Trackpoint>
          <Trackpoint>
            <Time>2021-08-13T10:42:40.000Z</Time>
            <Position>
              <LatitudeDegrees>43.16282353363931179046630859375</LatitudeDegrees>
              <LongitudeDegrees>-1.9690503738820552825927734375</LongitudeDegrees>
            </Position>
            <AltitudeMeters>251.600006103515625</AltitudeMeters>
            <DistanceMeters>NAN</DistanceMeters>
          </Trackpoint>
          <Trackpoint>
            <Time>2021-08-13T10:42:42.000Z</Time>
            <Position>
              <LatitudeDegrees>43.162798471748828887939453125</LatitudeDegrees>
              <LongitudeDegrees>-1.968977786600589752197265625</LongitudeDegrees>
            </Position>
            <AltitudeMeters>251.600006103515625</AltitudeMeters>
            <DistanceMeters>NAN</DistanceMeters>
          </Trackpoint>
          <Trackpoint>
            <Time>2021-08-13T10:42:43.000Z</Time>
            <Position>
              <LatitudeDegrees>43.162788413465023040771484375</LatitudeDegrees>
              <LongitudeDegrees>-1.968938894569873809814453125</LongitudeDegrees>
            </Position>
            <AltitudeMeters>251.600006103515625</AltitudeMeters>
            <DistanceMeters>NAN</DistanceMeters>
          </Trackpoint>
          <Trackpoint>
            <Time>2021-08-13T10:42:44.000Z</Time>
            <Position>
              <LatitudeDegrees>43.16277961246669292449951171875</LatitudeDegrees>
              <LongitudeDegrees>-1.96889991872012615203857421875</LongitudeDegrees>
            </Position>
            <AltitudeMeters>251.8000030517578125</AltitudeMeters>
            <DistanceMeters>NAN</DistanceMeters>
          </Trackpoint>
          <Trackpoint>
            <Time>2021-08-13T10:42:50.000Z</Time>
            <Position>
              <LatitudeDegrees>43.16273602657020092010498046875</LatitudeDegrees>
              <LongitudeDegrees>-1.96867209859192371368408203125</LongitudeDegrees>
            </Position>
            <AltitudeMeters>252</AltitudeMeters>
            <DistanceMeters>NAN</DistanceMeters>
          </Trackpoint>
          <Trackpoint>
            <Time>2021-08-13T10:42:51.000Z</Time>
            <Position>
              <LatitudeDegrees>43.16273351199924945831298828125</LatitudeDegrees>
              <LongitudeDegrees>-1.9686336256563663482666015625</LongitudeDegrees>
            </Position>
            <AltitudeMeters>252.1999969482421875</AltitudeMeters>
            <DistanceMeters>NAN</DistanceMeters>
          </Trackpoint>
          <Trackpoint>
            <Time>2021-08-13T10:42:52.000Z</Time>
            <Position>
              <LatitudeDegrees>43.16272730939090251922607421875</LatitudeDegrees>
              <LongitudeDegrees>-1.96859213523566722869873046875</LongitudeDegrees>
            </Position>
            <AltitudeMeters>252.1999969482421875</AltitudeMeters>
            <DistanceMeters>NAN</DistanceMeters>
          </Trackpoint>
          <Trackpoint>
            <Time>2021-08-13T10:42:54.000Z</Time>
            <Position>
              <LatitudeDegrees>43.1627151556313037872314453125</LatitudeDegrees>
              <LongitudeDegrees>-1.96851217187941074371337890625</LongitudeDegrees>
            </Position>
            <AltitudeMeters>252.1999969482421875</AltitudeMeters>
            <DistanceMeters>NAN</DistanceMeters>
          </Trackpoint>
          <Trackpoint>
            <Time>2021-08-13T10:42:55.000Z</Time>
            <Position>
              <LatitudeDegrees>43.16271423362195491790771484375</LatitudeDegrees>
              <LongitudeDegrees>-1.96847512386739253997802734375</LongitudeDegrees>
            </Position>
            <AltitudeMeters>252.399993896484375</AltitudeMeters>
            <DistanceMeters>NAN</DistanceMeters>
          </Trackpoint>
          <Trackpoint>
            <Time>2021-08-13T10:42:56.000Z</Time>
            <Position>
              <LatitudeDegrees>43.16270736046135425567626953125</LatitudeDegrees>
              <LongitudeDegrees>-1.968436650931835174560546875</LongitudeDegrees>
            </Position>
            <AltitudeMeters>252.399993896484375</AltitudeMeters>
            <DistanceMeters>NAN</DistanceMeters>
          </Trackpoint>
          <Trackpoint>
            <Time>2021-08-13T10:42:57.000Z</Time>
            <Position>
              <LatitudeDegrees>43.16270090639591217041015625</LatitudeDegrees>
              <LongitudeDegrees>-1.9683922268450260162353515625</LongitudeDegrees>
            </Position>
            <AltitudeMeters>252.600006103515625</AltitudeMeters>
            <DistanceMeters>NAN</DistanceMeters>
          </Trackpoint>
          <Trackpoint>
            <Time>2021-08-13T10:42:58.000Z</Time>
            <Position>
              <LatitudeDegrees>43.1626950390636920928955078125</LatitudeDegrees>
              <LongitudeDegrees>-1.96834872476756572723388671875</LongitudeDegrees>
            </Position>
            <AltitudeMeters>252.600006103515625</AltitudeMeters>
            <DistanceMeters>NAN</DistanceMeters>
          </Trackpoint>
          <Trackpoint>
            <Time>2021-08-13T10:42:59.000Z</Time>
            <Position>
              <LatitudeDegrees>43.1626900099217891693115234375</LatitudeDegrees>
              <LongitudeDegrees>-1.96830463595688343048095703125</LongitudeDegrees>
            </Position>
            <AltitudeMeters>252.8000030517578125</AltitudeMeters>
            <DistanceMeters>NAN</DistanceMeters>
          </Trackpoint>
          <Trackpoint>
            <Time>2021-08-13T10:43:02.000Z</Time>
            <Position>
              <LatitudeDegrees>43.16267768852412700653076171875</LatitudeDegrees>
              <LongitudeDegrees>-1.9681753031909465789794921875</LongitudeDegrees>
            </Position>
            <AltitudeMeters>253</AltitudeMeters>
            <DistanceMeters>NAN</DistanceMeters>
          </Trackpoint>
          <Trackpoint>
            <Time>2021-08-13T10:43:07.000Z</Time>
            <Position>
              <LatitudeDegrees>43.162630833685398101806640625</LatitudeDegrees>
              <LongitudeDegrees>-1.9679399393498897552490234375</LongitudeDegrees>
            </Position>
            <AltitudeMeters>253.1999969482421875</AltitudeMeters>
            <DistanceMeters>NAN</DistanceMeters>
          </Trackpoint>
          <Trackpoint>
            <Time>2021-08-13T10:43:11.000Z</Time>
            <Position>
              <LatitudeDegrees>43.16260426305234432220458984375</LatitudeDegrees>
              <LongitudeDegrees>-1.9677411206066608428955078125</LongitudeDegrees>
            </Position>
            <AltitudeMeters>253.600006103515625</AltitudeMeters>
            <DistanceMeters>NAN</DistanceMeters>
          </Trackpoint>
          <Trackpoint>
            <Time>2021-08-13T10:43:12.000Z</Time>
            <Position>
              <LatitudeDegrees>43.1625994853675365447998046875</LatitudeDegrees>
              <LongitudeDegrees>-1.9676904939115047454833984375</LongitudeDegrees>
            </Position>
            <AltitudeMeters>253.8000030517578125</AltitudeMeters>
            <DistanceMeters>NAN</DistanceMeters>
          </Trackpoint>
          <Trackpoint>
            <Time>2021-08-13T10:43:13.000Z</Time>
            <Position>
              <LatitudeDegrees>43.162589929997920989990234375</LatitudeDegrees>
              <LongitudeDegrees>-1.9676510989665985107421875</LongitudeDegrees>
            </Position>
            <AltitudeMeters>253.8000030517578125</AltitudeMeters>
            <DistanceMeters>NAN</DistanceMeters>
          </Trackpoint>
          <Trackpoint>
            <Time>2021-08-13T10:43:14.000Z</Time>
            <Position>
              <LatitudeDegrees>43.1625672988593578338623046875</LatitudeDegrees>
              <LongitudeDegrees>-1.96761631406843662261962890625</LongitudeDegrees>
            </Position>
            <AltitudeMeters>253.8000030517578125</AltitudeMeters>
            <DistanceMeters>NAN</DistanceMeters>
          </Trackpoint>
          <Trackpoint>
            <Time>2021-08-13T10:43:15.000Z</Time>
            <Position>
              <LatitudeDegrees>43.1625552289187908172607421875</LatitudeDegrees>
              <LongitudeDegrees>-1.96755252778530120849609375</LongitudeDegrees>
            </Position>
            <AltitudeMeters>254</AltitudeMeters>
            <DistanceMeters>NAN</DistanceMeters>
          </Trackpoint>
          <Trackpoint>
            <Time>2021-08-13T10:43:16.000Z</Time>
            <Position>
              <LatitudeDegrees>43.16254626028239727020263671875</LatitudeDegrees>
              <LongitudeDegrees>-1.96751707233488559722900390625</LongitudeDegrees>
            </Position>
            <AltitudeMeters>254</AltitudeMeters>
            <DistanceMeters>NAN</DistanceMeters>
          </Trackpoint>
          <Trackpoint>
            <Time>2021-08-13T10:43:17.000Z</Time>
            <Position>
              <LatitudeDegrees>43.16253502853214740753173828125</LatitudeDegrees>
              <LongitudeDegrees>-1.96749276481568813323974609375</LongitudeDegrees>
            </Position>
            <AltitudeMeters>254</AltitudeMeters>
            <DistanceMeters>NAN</DistanceMeters>
          </Trackpoint>
          <Trackpoint>
            <Time>2021-08-13T10:43:18.000Z</Time>
            <Position>
              <LatitudeDegrees>43.16252580843865871429443359375</LatitudeDegrees>
              <LongitudeDegrees>-1.9674638472497463226318359375</LongitudeDegrees>
            </Position>
            <AltitudeMeters>254.1999969482421875</AltitudeMeters>
            <DistanceMeters>NAN</DistanceMeters>
          </Trackpoint>
          <Trackpoint>
            <Time>2021-08-13T10:43:19.000Z</Time>
            <Position>
              <LatitudeDegrees>43.16251357086002826690673828125</LatitudeDegrees>
              <LongitudeDegrees>-1.9674330018460750579833984375</LongitudeDegrees>
            </Position>
            <AltitudeMeters>254.1999969482421875</AltitudeMeters>
            <DistanceMeters>NAN</DistanceMeters>
          </Trackpoint>
          <Trackpoint>
            <Time>2021-08-13T10:43:20.000Z</Time>
            <Position>
              <LatitudeDegrees>43.1624948792159557342529296875</LatitudeDegrees>
              <LongitudeDegrees>-1.96739503182470798492431640625</LongitudeDegrees>
            </Position>
            <AltitudeMeters>254.399993896484375</AltitudeMeters>
            <DistanceMeters>NAN</DistanceMeters>
          </Trackpoint>
          <Trackpoint>
            <Time>2021-08-13T10:43:21.000Z</Time>
            <Position>
              <LatitudeDegrees>43.162473924458026885986328125</LatitudeDegrees>
              <LongitudeDegrees>-1.9673605822026729583740234375</LongitudeDegrees>
            </Position>
            <AltitudeMeters>254.399993896484375</AltitudeMeters>
            <DistanceMeters>NAN</DistanceMeters>
          </Trackpoint>
          <Trackpoint>
            <Time>2021-08-13T10:43:23.000Z</Time>
            <Position>
              <LatitudeDegrees>43.16243377514183521270751953125</LatitudeDegrees>
              <LongitudeDegrees>-1.9673052616417407989501953125</LongitudeDegrees>
            </Position>
            <AltitudeMeters>254.399993896484375</AltitudeMeters>
            <DistanceMeters>NAN</DistanceMeters>
          </Trackpoint>
          <Trackpoint>
            <Time>2021-08-13T10:43:28.000Z</Time>
            <Position>
              <LatitudeDegrees>43.162365965545177459716796875</LatitudeDegrees>
              <LongitudeDegrees>-1.96717676706612110137939453125</LongitudeDegrees>
            </Position>
            <AltitudeMeters>254.600006103515625</AltitudeMeters>
            <DistanceMeters>NAN</DistanceMeters>
          </Trackpoint>
          <Trackpoint>
            <Time>2021-08-13T10:43:29.000Z</Time>
            <Position>
              <LatitudeDegrees>43.16234945319592952728271484375</LatitudeDegrees>
              <LongitudeDegrees>-1.96714508347213268280029296875</LongitudeDegrees>
            </Position>
            <AltitudeMeters>254.600006103515625</AltitudeMeters>
            <DistanceMeters>NAN</DistanceMeters>
          </Trackpoint>
          <Trackpoint>
            <Time>2021-08-13T10:43:32.000Z</Time>
            <Position>
              <LatitudeDegrees>43.16228491254150867462158203125</LatitudeDegrees>
              <LongitudeDegrees>-1.9670544750988483428955078125</LongitudeDegrees>
            </Position>
            <AltitudeMeters>254.600006103515625</AltitudeMeters>
            <DistanceMeters>NAN</DistanceMeters>
          </Trackpoint>
          <Trackpoint>
            <Time>2021-08-13T10:43:33.000Z</Time>
            <Position>
              <LatitudeDegrees>43.1622655503451824188232421875</LatitudeDegrees>
              <LongitudeDegrees>-1.96702572517096996307373046875</LongitudeDegrees>
            </Position>
            <AltitudeMeters>254.600006103515625</AltitudeMeters>
            <DistanceMeters>NAN</DistanceMeters>
          </Trackpoint>
          <Trackpoint>
            <Time>2021-08-13T10:43:34.000Z</Time>
            <Position>
              <LatitudeDegrees>43.1622509658336639404296875</LatitudeDegrees>
              <LongitudeDegrees>-1.96699856780469417572021484375</LongitudeDegrees>
            </Position>
            <AltitudeMeters>254.600006103515625</AltitudeMeters>
            <DistanceMeters>NAN</DistanceMeters>
          </Trackpoint>
          <Trackpoint>
            <Time>2021-08-13T10:43:35.000Z</Time>
            <Position>
              <LatitudeDegrees>43.16223311237990856170654296875</LatitudeDegrees>
              <LongitudeDegrees>-1.96697224862873554229736328125</LongitudeDegrees>
            </Position>
            <AltitudeMeters>254.600006103515625</AltitudeMeters>
            <DistanceMeters>NAN</DistanceMeters>
          </Trackpoint>
          <Trackpoint>
            <Time>2021-08-13T10:43:36.000Z</Time>
            <Position>
              <LatitudeDegrees>43.1622122414410114288330078125</LatitudeDegrees>
              <LongitudeDegrees>-1.96694911457598209381103515625</LongitudeDegrees>
            </Position>
            <AltitudeMeters>254.600006103515625</AltitudeMeters>
            <DistanceMeters>NAN</DistanceMeters>
          </Trackpoint>
          <Trackpoint>
            <Time>2021-08-13T10:43:40.000Z</Time>
            <Position>
              <LatitudeDegrees>43.16211174242198467254638671875</LatitudeDegrees>
              <LongitudeDegrees>-1.96685917675495147705078125</LongitudeDegrees>
            </Position>
            <AltitudeMeters>254.8000030517578125</AltitudeMeters>
            <DistanceMeters>NAN</DistanceMeters>
          </Trackpoint>
          <Trackpoint>
            <Time>2021-08-13T10:43:42.000Z</Time>
            <Position>
              <LatitudeDegrees>43.162057511508464813232421875</LatitudeDegrees>
              <LongitudeDegrees>-1.96680729277431964874267578125</LongitudeDegrees>
            </Position>
            <AltitudeMeters>255</AltitudeMeters>
            <DistanceMeters>NAN</DistanceMeters>
          </Trackpoint>
          <Trackpoint>
            <Time>2021-08-13T10:43:43.000Z</Time>
            <Position>
              <LatitudeDegrees>43.162032701075077056884765625</LatitudeDegrees>
              <LongitudeDegrees>-1.96678700856864452362060546875</LongitudeDegrees>
            </Position>
            <AltitudeMeters>255</AltitudeMeters>
            <DistanceMeters>NAN</DistanceMeters>
          </Trackpoint>
          <Trackpoint>
            <Time>2021-08-13T10:43:47.000Z</Time>
            <Position>
              <LatitudeDegrees>43.16193505190312862396240234375</LatitudeDegrees>
              <LongitudeDegrees>-1.9666816480457782745361328125</LongitudeDegrees>
            </Position>
            <AltitudeMeters>255.1999969482421875</AltitudeMeters>
            <DistanceMeters>NAN</DistanceMeters>
          </Trackpoint>
          <Trackpoint>
            <Time>2021-08-13T10:43:48.000Z</Time>
            <Position>
              <LatitudeDegrees>43.1619145162403583526611328125</LatitudeDegrees>
              <LongitudeDegrees>-1.966651640832424163818359375</LongitudeDegrees>
            </Position>
            <AltitudeMeters>255.1999969482421875</AltitudeMeters>
            <DistanceMeters>NAN</DistanceMeters>
          </Trackpoint>
          <Trackpoint>
            <Time>2021-08-13T10:43:49.000Z</Time>
            <Position>
              <LatitudeDegrees>43.16189481876790523529052734375</LatitudeDegrees>
              <LongitudeDegrees>-1.9666320271790027618408203125</LongitudeDegrees>
            </Position>
            <AltitudeMeters>255.399993896484375</AltitudeMeters>
            <DistanceMeters>NAN</DistanceMeters>
          </Trackpoint>
          <Trackpoint>
            <Time>2021-08-13T10:43:50.000Z</Time>
            <Position>
              <LatitudeDegrees>43.1618672423064708709716796875</LatitudeDegrees>
              <LongitudeDegrees>-1.9666159339249134063720703125</LongitudeDegrees>
            </Position>
            <AltitudeMeters>255.399993896484375</AltitudeMeters>
            <DistanceMeters>NAN</DistanceMeters>
          </Trackpoint>
          <Trackpoint>
            <Time>2021-08-13T10:43:51.000Z</Time>
            <Position>
              <LatitudeDegrees>43.16183899529278278350830078125</LatitudeDegrees>
              <LongitudeDegrees>-1.96659372188150882720947265625</LongitudeDegrees>
            </Position>
            <AltitudeMeters>255.399993896484375</AltitudeMeters>
            <DistanceMeters>NAN</DistanceMeters>
          </Trackpoint>
          <Trackpoint>
            <Time>2021-08-13T10:43:52.000Z</Time>
            <Position>
              <LatitudeDegrees>43.16181971691548824310302734375</LatitudeDegrees>
              <LongitudeDegrees>-1.966587938368320465087890625</LongitudeDegrees>
            </Position>
            <AltitudeMeters>255.399993896484375</AltitudeMeters>
            <DistanceMeters>NAN</DistanceMeters>
          </Trackpoint>
          <Trackpoint>
            <Time>2021-08-13T10:43:53.000Z</Time>
            <Position>
              <LatitudeDegrees>43.1618028692901134490966796875</LatitudeDegrees>
              <LongitudeDegrees>-1.96657955646514892578125</LongitudeDegrees>
            </Position>
            <AltitudeMeters>255.399993896484375</AltitudeMeters>
            <DistanceMeters>NAN</DistanceMeters>
          </Trackpoint>
          <Trackpoint>
            <Time>2021-08-13T10:43:54.000Z</Time>
            <Position>
              <LatitudeDegrees>43.1617837585508823394775390625</LatitudeDegrees>
              <LongitudeDegrees>-1.9665622897446155548095703125</LongitudeDegrees>
            </Position>
            <AltitudeMeters>255.399993896484375</AltitudeMeters>
            <DistanceMeters>NAN</DistanceMeters>
          </Trackpoint>
          <Trackpoint>
            <Time>2021-08-13T10:43:55.000Z</Time>
            <Position>
              <LatitudeDegrees>43.1617549248039722442626953125</LatitudeDegrees>
              <LongitudeDegrees>-1.96653739549219608306884765625</LongitudeDegrees>
            </Position>
            <AltitudeMeters>255.399993896484375</AltitudeMeters>
            <DistanceMeters>NAN</DistanceMeters>
          </Trackpoint>
          <Trackpoint>
            <Time>2021-08-13T10:43:56.000Z</Time>
            <Position>
              <LatitudeDegrees>43.16173438914120197296142578125</LatitudeDegrees>
              <LongitudeDegrees>-1.96651711128652095794677734375</LongitudeDegrees>
            </Position>
            <AltitudeMeters>255.399993896484375</AltitudeMeters>
            <DistanceMeters>NAN</DistanceMeters>
          </Trackpoint>
          <Trackpoint>
            <Time>2021-08-13T10:43:57.000Z</Time>
            <Position>
              <LatitudeDegrees>43.16171787679195404052734375</LatitudeDegrees>
              <LongitudeDegrees>-1.9664952345192432403564453125</LongitudeDegrees>
            </Position>
            <AltitudeMeters>255.399993896484375</AltitudeMeters>
            <DistanceMeters>NAN</DistanceMeters>
          </Trackpoint>
          <Trackpoint>
            <Time>2021-08-13T10:43:58.000Z</Time>
            <Position>
              <LatitudeDegrees>43.16170203499495983123779296875</LatitudeDegrees>
              <LongitudeDegrees>-1.9664865173399448394775390625</LongitudeDegrees>
            </Position>
            <AltitudeMeters>255.399993896484375</AltitudeMeters>
            <DistanceMeters>NAN</DistanceMeters>
          </Trackpoint>
          <Trackpoint>
            <Time>2021-08-13T10:43:59.000Z</Time>
            <Position>
              <LatitudeDegrees>43.16168761812150478363037109375</LatitudeDegrees>
              <LongitudeDegrees>-1.96648593060672283172607421875</LongitudeDegrees>
            </Position>
            <AltitudeMeters>255.399993896484375</AltitudeMeters>
            <DistanceMeters>NAN</DistanceMeters>
          </Trackpoint>
          <Trackpoint>
            <Time>2021-08-13T10:44:00.000Z</Time>
            <Position>
              <LatitudeDegrees>43.1616727821528911590576171875</LatitudeDegrees>
              <LongitudeDegrees>-1.9664788059890270233154296875</LongitudeDegrees>
            </Position>
            <AltitudeMeters>255.399993896484375</AltitudeMeters>
            <DistanceMeters>NAN</DistanceMeters>
          </Trackpoint>
          <Trackpoint>
            <Time>2021-08-13T10:44:02.000Z</Time>
            <Position>
              <LatitudeDegrees>43.16164813935756683349609375</LatitudeDegrees>
              <LongitudeDegrees>-1.96643647737801074981689453125</LongitudeDegrees>
            </Position>
            <AltitudeMeters>255.1999969482421875</AltitudeMeters>
            <DistanceMeters>NAN</DistanceMeters>
          </Trackpoint>
          <Trackpoint>
            <Time>2021-08-13T10:44:03.000Z</Time>
            <Position>
              <LatitudeDegrees>43.1616392545402050018310546875</LatitudeDegrees>
              <LongitudeDegrees>-1.9664469547569751739501953125</LongitudeDegrees>
            </Position>
            <AltitudeMeters>255.1999969482421875</AltitudeMeters>
            <DistanceMeters>NAN</DistanceMeters>
          </Trackpoint>
          <Trackpoint>
            <Time>2021-08-13T10:44:04.000Z</Time>
            <Position>
              <LatitudeDegrees>43.1616298668086528778076171875</LatitudeDegrees>
              <LongitudeDegrees>-1.9664405845105648040771484375</LongitudeDegrees>
            </Position>
            <AltitudeMeters>255.1999969482421875</AltitudeMeters>
            <DistanceMeters>NAN</DistanceMeters>
          </Trackpoint>
          <Trackpoint>
            <Time>2021-08-13T10:44:05.000Z</Time>
            <Position>
              <LatitudeDegrees>43.1616221554577350616455078125</LatitudeDegrees>
              <LongitudeDegrees>-1.96642993949353694915771484375</LongitudeDegrees>
            </Position>
            <AltitudeMeters>255.1999969482421875</AltitudeMeters>
            <DistanceMeters>NAN</DistanceMeters>
          </Trackpoint>
          <Trackpoint>
            <Time>2021-08-13T10:44:06.000Z</Time>
            <Position>
              <LatitudeDegrees>43.16161737777292728424072265625</LatitudeDegrees>
              <LongitudeDegrees>-1.96642071940004825592041015625</LongitudeDegrees>
            </Position>
            <AltitudeMeters>255.399993896484375</AltitudeMeters>
            <DistanceMeters>NAN</DistanceMeters>
          </Trackpoint>
          <Trackpoint>
            <Time>2021-08-13T10:44:07.000Z</Time>
            <Position>
              <LatitudeDegrees>43.1616134382784366607666015625</LatitudeDegrees>
              <LongitudeDegrees>-1.96641736663877964019775390625</LongitudeDegrees>
            </Position>
            <AltitudeMeters>255.399993896484375</AltitudeMeters>
            <DistanceMeters>NAN</DistanceMeters>
          </Trackpoint>
          <Trackpoint>
            <Time>2021-08-13T10:44:09.000Z</Time>
            <Position>
              <LatitudeDegrees>43.1616134382784366607666015625</LatitudeDegrees>
              <LongitudeDegrees>-1.96641736663877964019775390625</LongitudeDegrees>
            </Position>
            <AltitudeMeters>255.1999969482421875</AltitudeMeters>
            <DistanceMeters>NAN</DistanceMeters>
          </Trackpoint>
          <Trackpoint>
            <Time>2021-08-13T10:44:20.000Z</Time>
            <Position>
              <LatitudeDegrees>43.16160514019429683685302734375</LatitudeDegrees>
              <LongitudeDegrees>-1.9664043746888637542724609375</LongitudeDegrees>
            </Position>
            <AltitudeMeters>255.399993896484375</AltitudeMeters>
            <DistanceMeters>NAN</DistanceMeters>
          </Trackpoint>
          <Trackpoint>
            <Time>2021-08-13T10:44:21.000Z</Time>
            <Position>
              <LatitudeDegrees>43.16159239970147609710693359375</LatitudeDegrees>
              <LongitudeDegrees>-1.9663824141025543212890625</LongitudeDegrees>
            </Position>
            <AltitudeMeters>255.399993896484375</AltitudeMeters>
            <DistanceMeters>NAN</DistanceMeters>
          </Trackpoint>
          <Trackpoint>
            <Time>2021-08-13T10:44:22.000Z</Time>
            <Position>
              <LatitudeDegrees>43.16157898865640163421630859375</LatitudeDegrees>
              <LongitudeDegrees>-1.9663510657846927642822265625</LongitudeDegrees>
            </Position>
            <AltitudeMeters>255.399993896484375</AltitudeMeters>
            <DistanceMeters>NAN</DistanceMeters>
          </Trackpoint>
          <Trackpoint>
            <Time>2021-08-13T10:44:23.000Z</Time>
            <Position>
              <LatitudeDegrees>43.1615584529936313629150390625</LatitudeDegrees>
              <LongitudeDegrees>-1.9663175381720066070556640625</LongitudeDegrees>
            </Position>
            <AltitudeMeters>255.1999969482421875</AltitudeMeters>
            <DistanceMeters>NAN</DistanceMeters>
          </Trackpoint>
          <Trackpoint>
            <Time>2021-08-13T10:44:27.000Z</Time>
            <Position>
              <LatitudeDegrees>43.16144026815891265869140625</LatitudeDegrees>
              <LongitudeDegrees>-1.9661797396838665008544921875</LongitudeDegrees>
            </Position>
            <AltitudeMeters>255.1999969482421875</AltitudeMeters>
            <DistanceMeters>NAN</DistanceMeters>
          </Trackpoint>
          <Trackpoint>
            <Time>2021-08-13T10:44:28.000Z</Time>
            <Position>
              <LatitudeDegrees>43.16141210496425628662109375</LatitudeDegrees>
              <LongitudeDegrees>-1.966148056089878082275390625</LongitudeDegrees>
            </Position>
            <AltitudeMeters>255.1999969482421875</AltitudeMeters>
            <DistanceMeters>NAN</DistanceMeters>
          </Trackpoint>
          <Trackpoint>
            <Time>2021-08-13T10:44:29.000Z</Time>
            <Position>
              <LatitudeDegrees>43.16138922236859798431396484375</LatitudeDegrees>
              <LongitudeDegrees>-1.96611754596233367919921875</LongitudeDegrees>
            </Position>
            <AltitudeMeters>255.1999969482421875</AltitudeMeters>
            <DistanceMeters>NAN</DistanceMeters>
          </Trackpoint>
          <Trackpoint>
            <Time>2021-08-13T10:44:30.000Z</Time>
            <Position>
              <LatitudeDegrees>43.16136659123003482818603515625</LatitudeDegrees>
              <LongitudeDegrees>-1.96608980186283588409423828125</LongitudeDegrees>
            </Position>
            <AltitudeMeters>255.1999969482421875</AltitudeMeters>
            <DistanceMeters>NAN</DistanceMeters>
          </Trackpoint>
          <Trackpoint>
            <Time>2021-08-13T10:44:33.000Z</Time>
            <Position>
              <LatitudeDegrees>43.16130389459431171417236328125</LatitudeDegrees>
              <LongitudeDegrees>-1.9659869559109210968017578125</LongitudeDegrees>
            </Position>
            <AltitudeMeters>255.600006103515625</AltitudeMeters>
            <DistanceMeters>NAN</DistanceMeters>
          </Trackpoint>
          <Trackpoint>
            <Time>2021-08-13T10:44:36.000Z</Time>
            <Position>
              <LatitudeDegrees>43.16124446690082550048828125</LatitudeDegrees>
              <LongitudeDegrees>-1.965878494083881378173828125</LongitudeDegrees>
            </Position>
            <AltitudeMeters>255.8000030517578125</AltitudeMeters>
            <DistanceMeters>NAN</DistanceMeters>
          </Trackpoint>
          <Trackpoint>
            <Time>2021-08-13T10:44:37.000Z</Time>
            <Position>
              <LatitudeDegrees>43.16122862510383129119873046875</LatitudeDegrees>
              <LongitudeDegrees>-1.9658414460718631744384765625</LongitudeDegrees>
            </Position>
            <AltitudeMeters>255.8000030517578125</AltitudeMeters>
            <DistanceMeters>NAN</DistanceMeters>
          </Trackpoint>
          <Trackpoint>
            <Time>2021-08-13T10:44:38.000Z</Time>
            <Position>
              <LatitudeDegrees>43.16121454350650310516357421875</LatitudeDegrees>
              <LongitudeDegrees>-1.9658042304217815399169921875</LongitudeDegrees>
            </Position>
            <AltitudeMeters>256</AltitudeMeters>
            <DistanceMeters>NAN</DistanceMeters>
          </Trackpoint>
          <Trackpoint>
            <Time>2021-08-13T10:44:39.000Z</Time>
            <Position>
              <LatitudeDegrees>43.1611990369856357574462890625</LatitudeDegrees>
              <LongitudeDegrees>-1.96576693095266819000244140625</LongitudeDegrees>
            </Position>
            <AltitudeMeters>256</AltitudeMeters>
            <DistanceMeters>NAN</DistanceMeters>
          </Trackpoint>
          <Trackpoint>
            <Time>2021-08-13T10:44:43.000Z</Time>
            <Position>
              <LatitudeDegrees>43.16116274334490299224853515625</LatitudeDegrees>
              <LongitudeDegrees>-1.965580098330974578857421875</LongitudeDegrees>
            </Position>
            <AltitudeMeters>256.20001220703125</AltitudeMeters>
            <DistanceMeters>NAN</DistanceMeters>
          </Trackpoint>
          <Trackpoint>
            <Time>2021-08-13T10:44:46.000Z</Time>
            <Position>
              <LatitudeDegrees>43.1611477397382259368896484375</LatitudeDegrees>
              <LongitudeDegrees>-1.96541908197104930877685546875</LongitudeDegrees>
            </Position>
            <AltitudeMeters>256.399993896484375</AltitudeMeters>
            <DistanceMeters>NAN</DistanceMeters>
          </Trackpoint>
          <Trackpoint>
            <Time>2021-08-13T10:44:47.000Z</Time>
            <Position>
              <LatitudeDegrees>43.16114312969148159027099609375</LatitudeDegrees>
              <LongitudeDegrees>-1.96536828763782978057861328125</LongitudeDegrees>
            </Position>
            <AltitudeMeters>256.399993896484375</AltitudeMeters>
            <DistanceMeters>NAN</DistanceMeters>
          </Trackpoint>
          <Trackpoint>
            <Time>2021-08-13T10:44:51.000Z</Time>
            <Position>
              <LatitudeDegrees>43.16111798398196697235107421875</LatitudeDegrees>
              <LongitudeDegrees>-1.96519352495670318603515625</LongitudeDegrees>
            </Position>
            <AltitudeMeters>256.399993896484375</AltitudeMeters>
            <DistanceMeters>NAN</DistanceMeters>
          </Trackpoint>
          <Trackpoint>
            <Time>2021-08-13T10:44:54.000Z</Time>
            <Position>
              <LatitudeDegrees>43.16108378581702709197998046875</LatitudeDegrees>
              <LongitudeDegrees>-1.96504659019410610198974609375</LongitudeDegrees>
            </Position>
            <AltitudeMeters>256.600006103515625</AltitudeMeters>
            <DistanceMeters>NAN</DistanceMeters>
          </Trackpoint>
          <Trackpoint>
            <Time>2021-08-13T10:44:55.000Z</Time>
            <Position>
              <LatitudeDegrees>43.161067776381969451904296875</LatitudeDegrees>
              <LongitudeDegrees>-1.96500551886856555938720703125</LongitudeDegrees>
            </Position>
            <AltitudeMeters>256.600006103515625</AltitudeMeters>
            <DistanceMeters>NAN</DistanceMeters>
          </Trackpoint>
          <Trackpoint>
            <Time>2021-08-13T10:44:56.000Z</Time>
            <Position>
              <LatitudeDegrees>43.16105537116527557373046875</LatitudeDegrees>
              <LongitudeDegrees>-1.96496310643851757049560546875</LongitudeDegrees>
            </Position>
            <AltitudeMeters>256.600006103515625</AltitudeMeters>
            <DistanceMeters>NAN</DistanceMeters>
          </Trackpoint>
          <Trackpoint>
            <Time>2021-08-13T10:44:57.000Z</Time>
            <Position>
              <LatitudeDegrees>43.16104439087212085723876953125</LatitudeDegrees>
              <LongitudeDegrees>-1.96492957882583141326904296875</LongitudeDegrees>
            </Position>
            <AltitudeMeters>256.600006103515625</AltitudeMeters>
            <DistanceMeters>NAN</DistanceMeters>
          </Trackpoint>
          <Trackpoint>
            <Time>2021-08-13T10:45:00.000Z</Time>
            <Position>
              <LatitudeDegrees>43.16099309362471103668212890625</LatitudeDegrees>
              <LongitudeDegrees>-1.964791528880596160888671875</LongitudeDegrees>
            </Position>
            <AltitudeMeters>256.79998779296875</AltitudeMeters>
            <DistanceMeters>NAN</DistanceMeters>
          </Trackpoint>
          <Trackpoint>
            <Time>2021-08-13T10:45:04.000Z</Time>
            <Position>
              <LatitudeDegrees>43.16090541891753673553466796875</LatitudeDegrees>
              <LongitudeDegrees>-1.9646408222615718841552734375</LongitudeDegrees>
            </Position>
            <AltitudeMeters>257.399993896484375</AltitudeMeters>
            <DistanceMeters>NAN</DistanceMeters>
          </Trackpoint>
          <Trackpoint>
            <Time>2021-08-13T10:45:05.000Z</Time>
            <Position>
              <LatitudeDegrees>43.16087960265576839447021484375</LatitudeDegrees>
              <LongitudeDegrees>-1.964613161981105804443359375</LongitudeDegrees>
            </Position>
            <AltitudeMeters>257.399993896484375</AltitudeMeters>
            <DistanceMeters>NAN</DistanceMeters>
          </Trackpoint>
          <Trackpoint>
            <Time>2021-08-13T10:45:06.000Z</Time>
            <Position>
              <LatitudeDegrees>43.160853870213031768798828125</LatitudeDegrees>
              <LongitudeDegrees>-1.9645880162715911865234375</LongitudeDegrees>
            </Position>
            <AltitudeMeters>257.399993896484375</AltitudeMeters>
            <DistanceMeters>NAN</DistanceMeters>
          </Trackpoint>
          <Trackpoint>
            <Time>2021-08-13T10:45:07.000Z</Time>
            <Position>
              <LatitudeDegrees>43.16082444973289966583251953125</LatitudeDegrees>
              <LongitudeDegrees>-1.96456312201917171478271484375</LongitudeDegrees>
            </Position>
            <AltitudeMeters>257.399993896484375</AltitudeMeters>
            <DistanceMeters>NAN</DistanceMeters>
          </Trackpoint>
          <Trackpoint>
            <Time>2021-08-13T10:45:09.000Z</Time>
            <Position>
              <LatitudeDegrees>43.16076410003006458282470703125</LatitudeDegrees>
              <LongitudeDegrees>-1.96452070958912372589111328125</LongitudeDegrees>
            </Position>
            <AltitudeMeters>257.600006103515625</AltitudeMeters>
            <DistanceMeters>NAN</DistanceMeters>
          </Trackpoint>
          <Trackpoint>
            <Time>2021-08-13T10:45:14.000Z</Time>
            <Position>
              <LatitudeDegrees>43.1606039218604564666748046875</LatitudeDegrees>
              <LongitudeDegrees>-1.9644485414028167724609375</LongitudeDegrees>
            </Position>
            <AltitudeMeters>257.79998779296875</AltitudeMeters>
            <DistanceMeters>NAN</DistanceMeters>
          </Trackpoint>
          <Trackpoint>
            <Time>2021-08-13T10:45:19.000Z</Time>
            <Position>
              <LatitudeDegrees>43.1604446657001972198486328125</LatitudeDegrees>
              <LongitudeDegrees>-1.9644490443170070648193359375</LongitudeDegrees>
            </Position>
            <AltitudeMeters>258</AltitudeMeters>
            <DistanceMeters>NAN</DistanceMeters>
          </Trackpoint>
          <Trackpoint>
            <Time>2021-08-13T10:45:20.000Z</Time>
            <Position>
              <LatitudeDegrees>43.16041239537298679351806640625</LatitudeDegrees>
              <LongitudeDegrees>-1.964455582201480865478515625</LongitudeDegrees>
            </Position>
            <AltitudeMeters>258</AltitudeMeters>
            <DistanceMeters>NAN</DistanceMeters>
          </Trackpoint>
          <Trackpoint>
            <Time>2021-08-13T10:45:21.000Z</Time>
            <Position>
              <LatitudeDegrees>43.16038004122674465179443359375</LatitudeDegrees>
              <LongitudeDegrees>-1.964463628828525543212890625</LongitudeDegrees>
            </Position>
            <AltitudeMeters>258.20001220703125</AltitudeMeters>
            <DistanceMeters>NAN</DistanceMeters>
          </Trackpoint>
          <Trackpoint>
            <Time>2021-08-13T10:45:22.000Z</Time>
            <Position>
              <LatitudeDegrees>43.160344921052455902099609375</LatitudeDegrees>
              <LongitudeDegrees>-1.96447343565523624420166015625</LongitudeDegrees>
            </Position>
            <AltitudeMeters>258.20001220703125</AltitudeMeters>
            <DistanceMeters>NAN</DistanceMeters>
          </Trackpoint>
          <Trackpoint>
            <Time>2021-08-13T10:45:23.000Z</Time>
            <Position>
              <LatitudeDegrees>43.160308040678501129150390625</LatitudeDegrees>
              <LongitudeDegrees>-1.96448517031967639923095703125</LongitudeDegrees>
            </Position>
            <AltitudeMeters>258.20001220703125</AltitudeMeters>
            <DistanceMeters>NAN</DistanceMeters>
          </Trackpoint>
          <Trackpoint>
            <Time>2021-08-13T10:45:30.000Z</Time>
            <Position>
              <LatitudeDegrees>43.16007762216031551361083984375</LatitudeDegrees>
              <LongitudeDegrees>-1.96457049809396266937255859375</LongitudeDegrees>
            </Position>
            <AltitudeMeters>259</AltitudeMeters>
            <DistanceMeters>NAN</DistanceMeters>
          </Trackpoint>
          <Trackpoint>
            <Time>2021-08-13T10:45:32.000Z</Time>
            <Position>
              <LatitudeDegrees>43.16001207567751407623291015625</LatitudeDegrees>
              <LongitudeDegrees>-1.96459245868027210235595703125</LongitudeDegrees>
            </Position>
            <AltitudeMeters>259.399993896484375</AltitudeMeters>
            <DistanceMeters>NAN</DistanceMeters>
          </Trackpoint>
          <Trackpoint>
            <Time>2021-08-13T10:45:33.000Z</Time>
            <Position>
              <LatitudeDegrees>43.15998516976833343505859375</LatitudeDegrees>
              <LongitudeDegrees>-1.96460201404988765716552734375</LongitudeDegrees>
            </Position>
            <AltitudeMeters>259.20001220703125</AltitudeMeters>
            <DistanceMeters>NAN</DistanceMeters>
          </Trackpoint>
          <Trackpoint>
            <Time>2021-08-13T10:45:34.000Z</Time>
            <Position>
              <LatitudeDegrees>43.159954659640789031982421875</LatitudeDegrees>
              <LongitudeDegrees>-1.96461617946624755859375</LongitudeDegrees>
            </Position>
            <AltitudeMeters>259.20001220703125</AltitudeMeters>
            <DistanceMeters>NAN</DistanceMeters>
          </Trackpoint>
          <Trackpoint>
            <Time>2021-08-13T10:45:35.000Z</Time>
            <Position>
              <LatitudeDegrees>43.1599223054945468902587890625</LatitudeDegrees>
              <LongitudeDegrees>-1.96463068015873432159423828125</LongitudeDegrees>
            </Position>
            <AltitudeMeters>259.399993896484375</AltitudeMeters>
            <DistanceMeters>NAN</DistanceMeters>
          </Trackpoint>
          <Trackpoint>
            <Time>2021-08-13T10:45:36.000Z</Time>
            <Position>
              <LatitudeDegrees>43.15988869406282901763916015625</LatitudeDegrees>
              <LongitudeDegrees>-1.96464476175606250762939453125</LongitudeDegrees>
            </Position>
            <AltitudeMeters>259.399993896484375</AltitudeMeters>
            <DistanceMeters>NAN</DistanceMeters>
          </Trackpoint>
          <Trackpoint>
            <Time>2021-08-13T10:45:44.000Z</Time>
            <Position>
              <LatitudeDegrees>43.1596198864281177520751953125</LatitudeDegrees>
              <LongitudeDegrees>-1.96482614614069461822509765625</LongitudeDegrees>
            </Position>
            <AltitudeMeters>259.600006103515625</AltitudeMeters>
            <DistanceMeters>NAN</DistanceMeters>
          </Trackpoint>
          <Trackpoint>
            <Time>2021-08-13T10:45:46.000Z</Time>
            <Position>
              <LatitudeDegrees>43.1595484726130962371826171875</LatitudeDegrees>
              <LongitudeDegrees>-1.96487308479845523834228515625</LongitudeDegrees>
            </Position>
            <AltitudeMeters>259.79998779296875</AltitudeMeters>
            <DistanceMeters>NAN</DistanceMeters>
          </Trackpoint>
          <Trackpoint>
            <Time>2021-08-13T10:45:48.000Z</Time>
            <Position>
              <LatitudeDegrees>43.15949189476668834686279296875</LatitudeDegrees>
              <LongitudeDegrees>-1.964945755898952484130859375</LongitudeDegrees>
            </Position>
            <AltitudeMeters>259.79998779296875</AltitudeMeters>
            <DistanceMeters>NAN</DistanceMeters>
          </Trackpoint>
          <Trackpoint>
            <Time>2021-08-13T10:45:53.000Z</Time>
            <Position>
              <LatitudeDegrees>43.1593305431306362152099609375</LatitudeDegrees>
              <LongitudeDegrees>-1.96510476060211658477783203125</LongitudeDegrees>
            </Position>
            <AltitudeMeters>259.79998779296875</AltitudeMeters>
            <DistanceMeters>NAN</DistanceMeters>
          </Trackpoint>
          <Trackpoint>
            <Time>2021-08-13T10:45:54.000Z</Time>
            <Position>
              <LatitudeDegrees>43.15929911099374294281005859375</LatitudeDegrees>
              <LongitudeDegrees>-1.96514365263283252716064453125</LongitudeDegrees>
            </Position>
            <AltitudeMeters>260</AltitudeMeters>
            <DistanceMeters>NAN</DistanceMeters>
          </Trackpoint>
          <Trackpoint>
            <Time>2021-08-13T10:45:58.000Z</Time>
            <Position>
              <LatitudeDegrees>43.15916248597204685211181640625</LatitudeDegrees>
              <LongitudeDegrees>-1.96525764651596546173095703125</LongitudeDegrees>
            </Position>
            <AltitudeMeters>260</AltitudeMeters>
            <DistanceMeters>NAN</DistanceMeters>
          </Trackpoint>
          <Trackpoint>
            <Time>2021-08-13T10:45:59.000Z</Time>
            <Position>
              <LatitudeDegrees>43.1591233424842357635498046875</LatitudeDegrees>
              <LongitudeDegrees>-1.96527742780745029449462890625</LongitudeDegrees>
            </Position>
            <AltitudeMeters>260.20001220703125</AltitudeMeters>
            <DistanceMeters>NAN</DistanceMeters>
          </Trackpoint>
          <Trackpoint>
            <Time>2021-08-13T10:46:04.000Z</Time>
            <Position>
              <LatitudeDegrees>43.15893148072063922882080078125</LatitudeDegrees>
              <LongitudeDegrees>-1.96534263901412487030029296875</LongitudeDegrees>
            </Position>
            <AltitudeMeters>260.20001220703125</AltitudeMeters>
            <DistanceMeters>NAN</DistanceMeters>
          </Trackpoint>
          <Trackpoint>
            <Time>2021-08-13T10:46:06.000Z</Time>
            <Position>
              <LatitudeDegrees>43.1588598154485225677490234375</LatitudeDegrees>
              <LongitudeDegrees>-1.9653509370982646942138671875</LongitudeDegrees>
            </Position>
            <AltitudeMeters>260.20001220703125</AltitudeMeters>
            <DistanceMeters>NAN</DistanceMeters>
          </Trackpoint>
          <Trackpoint>
            <Time>2021-08-13T10:46:07.000Z</Time>
            <Position>
              <LatitudeDegrees>43.15882469527423381805419921875</LatitudeDegrees>
              <LongitudeDegrees>-1.96535420604050159454345703125</LongitudeDegrees>
            </Position>
            <AltitudeMeters>260.20001220703125</AltitudeMeters>
            <DistanceMeters>NAN</DistanceMeters>
          </Trackpoint>
          <Trackpoint>
            <Time>2021-08-13T10:46:09.000Z</Time>
            <Position>
              <LatitudeDegrees>43.15875579603016376495361328125</LatitudeDegrees>
              <LongitudeDegrees>-1.9653452374041080474853515625</LongitudeDegrees>
            </Position>
            <AltitudeMeters>260.399993896484375</AltitudeMeters>
            <DistanceMeters>NAN</DistanceMeters>
          </Trackpoint>
          <Trackpoint>
            <Time>2021-08-13T10:46:10.000Z</Time>
            <Position>
              <LatitudeDegrees>43.15872277133166790008544921875</LatitudeDegrees>
              <LongitudeDegrees>-1.96534113027155399322509765625</LongitudeDegrees>
            </Position>
            <AltitudeMeters>260.399993896484375</AltitudeMeters>
            <DistanceMeters>NAN</DistanceMeters>
          </Trackpoint>
          <Trackpoint>
            <Time>2021-08-13T10:46:11.000Z</Time>
            <Position>
              <LatitudeDegrees>43.158685304224491119384765625</LatitudeDegrees>
              <LongitudeDegrees>-1.9653361849486827850341796875</LongitudeDegrees>
            </Position>
            <AltitudeMeters>260.20001220703125</AltitudeMeters>
            <DistanceMeters>NAN</DistanceMeters>
          </Trackpoint>
          <Trackpoint>
            <Time>2021-08-13T10:46:16.000Z</Time>
            <Position>
              <LatitudeDegrees>43.15848304890096187591552734375</LatitudeDegrees>
              <LongitudeDegrees>-1.96526058018207550048828125</LongitudeDegrees>
            </Position>
            <AltitudeMeters>260.600006103515625</AltitudeMeters>
            <DistanceMeters>NAN</DistanceMeters>
          </Trackpoint>
          <Trackpoint>
            <Time>2021-08-13T10:46:22.000Z</Time>
            <Position>
              <LatitudeDegrees>43.15827065147459506988525390625</LatitudeDegrees>
              <LongitudeDegrees>-1.96512646973133087158203125</LongitudeDegrees>
            </Position>
            <AltitudeMeters>260.79998779296875</AltitudeMeters>
            <DistanceMeters>NAN</DistanceMeters>
          </Trackpoint>
          <Trackpoint>
            <Time>2021-08-13T10:46:23.000Z</Time>
            <Position>
              <LatitudeDegrees>43.1582278199493885040283203125</LatitudeDegrees>
              <LongitudeDegrees>-1.96511146612465381622314453125</LongitudeDegrees>
            </Position>
            <AltitudeMeters>260.79998779296875</AltitudeMeters>
            <DistanceMeters>NAN</DistanceMeters>
          </Trackpoint>
          <Trackpoint>
            <Time>2021-08-13T10:46:24.000Z</Time>
            <Position>
              <LatitudeDegrees>43.15818674862384796142578125</LatitudeDegrees>
              <LongitudeDegrees>-1.9650981388986110687255859375</LongitudeDegrees>
            </Position>
            <AltitudeMeters>261</AltitudeMeters>
            <DistanceMeters>NAN</DistanceMeters>
          </Trackpoint>
          <Trackpoint>
            <Time>2021-08-13T10:46:25.000Z</Time>
            <Position>
              <LatitudeDegrees>43.158147521317005157470703125</LatitudeDegrees>
              <LongitudeDegrees>-1.9650840573012828826904296875</LongitudeDegrees>
            </Position>
            <AltitudeMeters>261</AltitudeMeters>
            <DistanceMeters>NAN</DistanceMeters>
          </Trackpoint>
          <Trackpoint>
            <Time>2021-08-13T10:46:26.000Z</Time>
            <Position>
              <LatitudeDegrees>43.158111982047557830810546875</LatitudeDegrees>
              <LongitudeDegrees>-1.96506670676171779632568359375</LongitudeDegrees>
            </Position>
            <AltitudeMeters>261</AltitudeMeters>
            <DistanceMeters>NAN</DistanceMeters>
          </Trackpoint>
          <Trackpoint>
            <Time>2021-08-13T10:46:27.000Z</Time>
            <Position>
              <LatitudeDegrees>43.158074431121349334716796875</LatitudeDegrees>
              <LongitudeDegrees>-1.9650468416512012481689453125</LongitudeDegrees>
            </Position>
            <AltitudeMeters>261</AltitudeMeters>
            <DistanceMeters>NAN</DistanceMeters>
          </Trackpoint>
          <Trackpoint>
            <Time>2021-08-13T10:46:28.000Z</Time>
            <Position>
              <LatitudeDegrees>43.15803729929029941558837890625</LatitudeDegrees>
              <LongitudeDegrees>-1.96503586135804653167724609375</LongitudeDegrees>
            </Position>
            <AltitudeMeters>261</AltitudeMeters>
            <DistanceMeters>NAN</DistanceMeters>
          </Trackpoint>
          <Trackpoint>
            <Time>2021-08-13T10:46:29.000Z</Time>
            <Position>
              <LatitudeDegrees>43.15800410695374011993408203125</LatitudeDegrees>
              <LongitudeDegrees>-1.96502278558909893035888671875</LongitudeDegrees>
            </Position>
            <AltitudeMeters>261</AltitudeMeters>
            <DistanceMeters>NAN</DistanceMeters>
          </Trackpoint>
          <Trackpoint>
            <Time>2021-08-13T10:46:30.000Z</Time>
            <Position>
              <LatitudeDegrees>43.15797141753137111663818359375</LatitudeDegrees>
              <LongitudeDegrees>-1.9650106318295001983642578125</LongitudeDegrees>
            </Position>
            <AltitudeMeters>261</AltitudeMeters>
            <DistanceMeters>NAN</DistanceMeters>
          </Trackpoint>
          <Trackpoint>
            <Time>2021-08-13T10:46:31.000Z</Time>
            <Position>
              <LatitudeDegrees>43.1579341180622577667236328125</LatitudeDegrees>
              <LongitudeDegrees>-1.9649985618889331817626953125</LongitudeDegrees>
            </Position>
            <AltitudeMeters>261</AltitudeMeters>
            <DistanceMeters>NAN</DistanceMeters>
          </Trackpoint>
          <Trackpoint>
            <Time>2021-08-13T10:46:32.000Z</Time>
            <Position>
              <LatitudeDegrees>43.157898075878620147705078125</LatitudeDegrees>
              <LongitudeDegrees>-1.96499009616672992706298828125</LongitudeDegrees>
            </Position>
            <AltitudeMeters>261.20001220703125</AltitudeMeters>
            <DistanceMeters>NAN</DistanceMeters>
          </Trackpoint>
          <Trackpoint>
            <Time>2021-08-13T10:46:33.000Z</Time>
            <Position>
              <LatitudeDegrees>43.15786647610366344451904296875</LatitudeDegrees>
              <LongitudeDegrees>-1.9649823009967803955078125</LongitudeDegrees>
            </Position>
            <AltitudeMeters>261.20001220703125</AltitudeMeters>
            <DistanceMeters>NAN</DistanceMeters>
          </Trackpoint>
          <Trackpoint>
            <Time>2021-08-13T10:46:34.000Z</Time>
            <Position>
              <LatitudeDegrees>43.15783043392002582550048828125</LatitudeDegrees>
              <LongitudeDegrees>-1.96497752331197261810302734375</LongitudeDegrees>
            </Position>
            <AltitudeMeters>261.399993896484375</AltitudeMeters>
            <DistanceMeters>NAN</DistanceMeters>
          </Trackpoint>
          <Trackpoint>
            <Time>2021-08-13T10:46:35.000Z</Time>
            <Position>
              <LatitudeDegrees>43.157796822488307952880859375</LatitudeDegrees>
              <LongitudeDegrees>-1.96497718803584575653076171875</LongitudeDegrees>
            </Position>
            <AltitudeMeters>261.399993896484375</AltitudeMeters>
            <DistanceMeters>NAN</DistanceMeters>
          </Trackpoint>
          <Trackpoint>
            <Time>2021-08-13T10:46:38.000Z</Time>
            <Position>
              <LatitudeDegrees>43.15769431181252002716064453125</LatitudeDegrees>
              <LongitudeDegrees>-1.964985989034175872802734375</LongitudeDegrees>
            </Position>
            <AltitudeMeters>261.79998779296875</AltitudeMeters>
            <DistanceMeters>NAN</DistanceMeters>
          </Trackpoint>
          <Trackpoint>
            <Time>2021-08-13T10:46:39.000Z</Time>
            <Position>
              <LatitudeDegrees>43.1576685793697834014892578125</LatitudeDegrees>
              <LongitudeDegrees>-1.9649838097393512725830078125</LongitudeDegrees>
            </Position>
            <AltitudeMeters>261.79998779296875</AltitudeMeters>
            <DistanceMeters>NAN</DistanceMeters>
          </Trackpoint>
          <Trackpoint>
            <Time>2021-08-13T10:46:40.000Z</Time>
            <Position>
              <LatitudeDegrees>43.157649300992488861083984375</LatitudeDegrees>
              <LongitudeDegrees>-1.96498171426355838775634765625</LongitudeDegrees>
            </Position>
            <AltitudeMeters>262</AltitudeMeters>
            <DistanceMeters>NAN</DistanceMeters>
          </Trackpoint>
          <Trackpoint>
            <Time>2021-08-13T10:46:41.000Z</Time>
            <Position>
              <LatitudeDegrees>43.15763412974774837493896484375</LatitudeDegrees>
              <LongitudeDegrees>-1.96498121134936809539794921875</LongitudeDegrees>
            </Position>
            <AltitudeMeters>262</AltitudeMeters>
            <DistanceMeters>NAN</DistanceMeters>
          </Trackpoint>
          <Trackpoint>
            <Time>2021-08-13T10:46:42.000Z</Time>
            <Position>
              <LatitudeDegrees>43.15762105397880077362060546875</LatitudeDegrees>
              <LongitudeDegrees>-1.96498020552098751068115234375</LongitudeDegrees>
            </Position>
            <AltitudeMeters>262.20001220703125</AltitudeMeters>
            <DistanceMeters>NAN</DistanceMeters>
          </Trackpoint>
          <Trackpoint>
            <Time>2021-08-13T10:46:43.000Z</Time>
            <Position>
              <LatitudeDegrees>43.15760915167629718780517578125</LatitudeDegrees>
              <LongitudeDegrees>-1.96498204953968524932861328125</LongitudeDegrees>
            </Position>
            <AltitudeMeters>262.20001220703125</AltitudeMeters>
            <DistanceMeters>NAN</DistanceMeters>
          </Trackpoint>
          <Trackpoint>
            <Time>2021-08-13T10:46:44.000Z</Time>
            <Position>
              <LatitudeDegrees>43.15759724937379360198974609375</LatitudeDegrees>
              <LongitudeDegrees>-1.9649888388812541961669921875</LongitudeDegrees>
            </Position>
            <AltitudeMeters>262.20001220703125</AltitudeMeters>
            <DistanceMeters>NAN</DistanceMeters>
          </Trackpoint>
          <Trackpoint>
            <Time>2021-08-13T10:46:45.000Z</Time>
            <Position>
              <LatitudeDegrees>43.15758568234741687774658203125</LatitudeDegrees>
              <LongitudeDegrees>-1.96499160490930080413818359375</LongitudeDegrees>
            </Position>
            <AltitudeMeters>262.399993896484375</AltitudeMeters>
            <DistanceMeters>NAN</DistanceMeters>
          </Trackpoint>
          <Trackpoint>
            <Time>2021-08-13T10:46:46.000Z</Time>
            <Position>
              <LatitudeDegrees>43.15757830627262592315673828125</LatitudeDegrees>
              <LongitudeDegrees>-1.965004093945026397705078125</LongitudeDegrees>
            </Position>
            <AltitudeMeters>262.399993896484375</AltitudeMeters>
            <DistanceMeters>NAN</DistanceMeters>
          </Trackpoint>
          <Trackpoint>
            <Time>2021-08-13T10:46:47.000Z</Time>
            <Position>
              <LatitudeDegrees>43.15758115611970424652099609375</LatitudeDegrees>
              <LongitudeDegrees>-1.96500216610729694366455078125</LongitudeDegrees>
            </Position>
            <AltitudeMeters>262.600006103515625</AltitudeMeters>
            <DistanceMeters>NAN</DistanceMeters>
          </Trackpoint>
          <Trackpoint>
            <Time>2021-08-13T10:46:48.000Z</Time>
            <Position>
              <LatitudeDegrees>43.1575877778232097625732421875</LatitudeDegrees>
              <LongitudeDegrees>-1.96498724631965160369873046875</LongitudeDegrees>
            </Position>
            <AltitudeMeters>262.600006103515625</AltitudeMeters>
            <DistanceMeters>NAN</DistanceMeters>
          </Trackpoint>
          <Trackpoint>
            <Time>2021-08-13T10:47:13.000Z</Time>
            <Position>
              <LatitudeDegrees>43.1568194925785064697265625</LatitudeDegrees>
              <LongitudeDegrees>-1.9650270603597164154052734375</LongitudeDegrees>
            </Position>
            <AltitudeMeters>264.79998779296875</AltitudeMeters>
            <DistanceMeters>NAN</DistanceMeters>
          </Trackpoint>
          <Trackpoint>
            <Time>2021-08-13T10:47:14.000Z</Time>
            <Position>
              <LatitudeDegrees>43.15681404434144496917724609375</LatitudeDegrees>
              <LongitudeDegrees>-1.965026892721652984619140625</LongitudeDegrees>
            </Position>
            <AltitudeMeters>264.79998779296875</AltitudeMeters>
            <DistanceMeters>NAN</DistanceMeters>
          </Trackpoint>
          <Trackpoint>
            <Time>2021-08-13T10:47:15.000Z</Time>
            <Position>
              <LatitudeDegrees>43.15676115453243255615234375</LatitudeDegrees>
              <LongitudeDegrees>-1.9650290720164775848388671875</LongitudeDegrees>
            </Position>
            <AltitudeMeters>264.79998779296875</AltitudeMeters>
            <DistanceMeters>NAN</DistanceMeters>
          </Trackpoint>
          <Trackpoint>
            <Time>2021-08-13T10:47:16.000Z</Time>
            <Position>
              <LatitudeDegrees>43.15672586672008037567138671875</LatitudeDegrees>
              <LongitudeDegrees>-1.9650129787623882293701171875</LongitudeDegrees>
            </Position>
            <AltitudeMeters>264.79998779296875</AltitudeMeters>
            <DistanceMeters>NAN</DistanceMeters>
          </Trackpoint>
          <Trackpoint>
            <Time>2021-08-13T10:47:17.000Z</Time>
            <Position>
              <LatitudeDegrees>43.1566828675568103790283203125</LatitudeDegrees>
              <LongitudeDegrees>-1.96504198014736175537109375</LongitudeDegrees>
            </Position>
            <AltitudeMeters>264.79998779296875</AltitudeMeters>
            <DistanceMeters>NAN</DistanceMeters>
          </Trackpoint>
          <Trackpoint>
            <Time>2021-08-13T10:47:18.000Z</Time>
            <Position>
              <LatitudeDegrees>43.15664690919220447540283203125</LatitudeDegrees>
              <LongitudeDegrees>-1.96503200568258762359619140625</LongitudeDegrees>
            </Position>
            <AltitudeMeters>264.79998779296875</AltitudeMeters>
            <DistanceMeters>NAN</DistanceMeters>
          </Trackpoint>
          <Trackpoint>
            <Time>2021-08-13T10:47:19.000Z</Time>
            <Position>
              <LatitudeDegrees>43.15662025474011898040771484375</LatitudeDegrees>
              <LongitudeDegrees>-1.9650153256952762603759765625</LongitudeDegrees>
            </Position>
            <AltitudeMeters>264.79998779296875</AltitudeMeters>
            <DistanceMeters>NAN</DistanceMeters>
          </Trackpoint>
          <Trackpoint>
            <Time>2021-08-13T10:47:20.000Z</Time>
            <Position>
              <LatitudeDegrees>43.15658672712743282318115234375</LatitudeDegrees>
              <LongitudeDegrees>-1.965020187199115753173828125</LongitudeDegrees>
            </Position>
            <AltitudeMeters>264.79998779296875</AltitudeMeters>
            <DistanceMeters>NAN</DistanceMeters>
          </Trackpoint>
          <Trackpoint>
            <Time>2021-08-13T10:47:21.000Z</Time>
            <Position>
              <LatitudeDegrees>43.156557977199554443359375</LatitudeDegrees>
              <LongitudeDegrees>-1.96500635705888271331787109375</LongitudeDegrees>
            </Position>
            <AltitudeMeters>264.600006103515625</AltitudeMeters>
            <DistanceMeters>NAN</DistanceMeters>
          </Trackpoint>
          <Trackpoint>
            <Time>2021-08-13T10:47:22.000Z</Time>
            <Position>
              <LatitudeDegrees>43.15653040073812007904052734375</LatitudeDegrees>
              <LongitudeDegrees>-1.96498422883450984954833984375</LongitudeDegrees>
            </Position>
            <AltitudeMeters>264.600006103515625</AltitudeMeters>
            <DistanceMeters>NAN</DistanceMeters>
          </Trackpoint>
          <Trackpoint>
            <Time>2021-08-13T10:47:23.000Z</Time>
            <Position>
              <LatitudeDegrees>43.1564894132316112518310546875</LatitudeDegrees>
              <LongitudeDegrees>-1.96494944393634796142578125</LongitudeDegrees>
            </Position>
            <AltitudeMeters>264.600006103515625</AltitudeMeters>
            <DistanceMeters>NAN</DistanceMeters>
          </Trackpoint>
          <Trackpoint>
            <Time>2021-08-13T10:47:24.000Z</Time>
            <Position>
              <LatitudeDegrees>43.1564615853130817413330078125</LatitudeDegrees>
              <LongitudeDegrees>-1.96492354385554790496826171875</LongitudeDegrees>
            </Position>
            <AltitudeMeters>264.600006103515625</AltitudeMeters>
            <DistanceMeters>NAN</DistanceMeters>
          </Trackpoint>
          <Trackpoint>
            <Time>2021-08-13T10:47:25.000Z</Time>
            <Position>
              <LatitudeDegrees>43.15642663277685642242431640625</LatitudeDegrees>
              <LongitudeDegrees>-1.96489403955638408660888671875</LongitudeDegrees>
            </Position>
            <AltitudeMeters>264.600006103515625</AltitudeMeters>
            <DistanceMeters>NAN</DistanceMeters>
          </Trackpoint>
          <Trackpoint>
            <Time>2021-08-13T10:47:26.000Z</Time>
            <Position>
              <LatitudeDegrees>43.15639243461191654205322265625</LatitudeDegrees>
              <LongitudeDegrees>-1.96486520580947399139404296875</LongitudeDegrees>
            </Position>
            <AltitudeMeters>264.600006103515625</AltitudeMeters>
            <DistanceMeters>NAN</DistanceMeters>
          </Trackpoint>
          <Trackpoint>
            <Time>2021-08-13T10:47:27.000Z</Time>
            <Position>
              <LatitudeDegrees>43.1563620083034038543701171875</LatitudeDegrees>
              <LongitudeDegrees>-1.9648336060345172882080078125</LongitudeDegrees>
            </Position>
            <AltitudeMeters>264.600006103515625</AltitudeMeters>
            <DistanceMeters>NAN</DistanceMeters>
          </Trackpoint>
          <Trackpoint>
            <Time>2021-08-13T10:47:28.000Z</Time>
            <Position>
              <LatitudeDegrees>43.1563281454145908355712890625</LatitudeDegrees>
              <LongitudeDegrees>-1.96480586193501949310302734375</LongitudeDegrees>
            </Position>
            <AltitudeMeters>264.600006103515625</AltitudeMeters>
            <DistanceMeters>NAN</DistanceMeters>
          </Trackpoint>
          <Trackpoint>
            <Time>2021-08-13T10:47:29.000Z</Time>
            <Position>
              <LatitudeDegrees>43.1562969647347927093505859375</LatitudeDegrees>
              <LongitudeDegrees>-1.9647715799510478973388671875</LongitudeDegrees>
            </Position>
            <AltitudeMeters>264.600006103515625</AltitudeMeters>
            <DistanceMeters>NAN</DistanceMeters>
          </Trackpoint>
          <Trackpoint>
            <Time>2021-08-13T10:47:30.000Z</Time>
            <Position>
              <LatitudeDegrees>43.15625865943729877471923828125</LatitudeDegrees>
              <LongitudeDegrees>-1.96473897434771060943603515625</LongitudeDegrees>
            </Position>
            <AltitudeMeters>264.79998779296875</AltitudeMeters>
            <DistanceMeters>NAN</DistanceMeters>
          </Trackpoint>
          <Trackpoint>
            <Time>2021-08-13T10:47:31.000Z</Time>
            <Position>
              <LatitudeDegrees>43.15622345544397830963134765625</LatitudeDegrees>
              <LongitudeDegrees>-1.9647068716585636138916015625</LongitudeDegrees>
            </Position>
            <AltitudeMeters>264.79998779296875</AltitudeMeters>
            <DistanceMeters>NAN</DistanceMeters>
          </Trackpoint>
          <Trackpoint>
            <Time>2021-08-13T10:47:32.000Z</Time>
            <Position>
              <LatitudeDegrees>43.15618841908872127532958984375</LatitudeDegrees>
              <LongitudeDegrees>-1.96466781198978424072265625</LongitudeDegrees>
            </Position>
            <AltitudeMeters>264.79998779296875</AltitudeMeters>
            <DistanceMeters>NAN</DistanceMeters>
          </Trackpoint>
          <Trackpoint>
            <Time>2021-08-13T10:47:33.000Z</Time>
            <Position>
              <LatitudeDegrees>43.15615363419055938720703125</LatitudeDegrees>
              <LongitudeDegrees>-1.9646240584552288055419921875</LongitudeDegrees>
            </Position>
            <AltitudeMeters>264.79998779296875</AltitudeMeters>
            <DistanceMeters>NAN</DistanceMeters>
          </Trackpoint>
          <Trackpoint>
            <Time>2021-08-13T10:47:36.000Z</Time>
            <Position>
              <LatitudeDegrees>43.15606168471276760101318359375</LatitudeDegrees>
              <LongitudeDegrees>-1.964505873620510101318359375</LongitudeDegrees>
            </Position>
            <AltitudeMeters>264.79998779296875</AltitudeMeters>
            <DistanceMeters>NAN</DistanceMeters>
          </Trackpoint>
          <Trackpoint>
            <Time>2021-08-13T10:47:38.000Z</Time>
            <Position>
              <LatitudeDegrees>43.156007118523120880126953125</LatitudeDegrees>
              <LongitudeDegrees>-1.9644403271377086639404296875</LongitudeDegrees>
            </Position>
            <AltitudeMeters>264.79998779296875</AltitudeMeters>
            <DistanceMeters>NAN</DistanceMeters>
          </Trackpoint>
          <Trackpoint>
            <Time>2021-08-13T10:47:40.000Z</Time>
            <Position>
              <LatitudeDegrees>43.1559580005705356597900390625</LatitudeDegrees>
              <LongitudeDegrees>-1.96436405181884765625</LongitudeDegrees>
            </Position>
            <AltitudeMeters>264.79998779296875</AltitudeMeters>
            <DistanceMeters>NAN</DistanceMeters>
          </Trackpoint>
          <Trackpoint>
            <Time>2021-08-13T10:47:41.000Z</Time>
            <Position>
              <LatitudeDegrees>43.155932016670703887939453125</LatitudeDegrees>
              <LongitudeDegrees>-1.96432054974138736724853515625</LongitudeDegrees>
            </Position>
            <AltitudeMeters>264.79998779296875</AltitudeMeters>
            <DistanceMeters>NAN</DistanceMeters>
          </Trackpoint>
          <Trackpoint>
            <Time>2021-08-13T10:47:42.000Z</Time>
            <Position>
              <LatitudeDegrees>43.15590477548539638519287109375</LatitudeDegrees>
              <LongitudeDegrees>-1.9642790593206882476806640625</LongitudeDegrees>
            </Position>
            <AltitudeMeters>264.600006103515625</AltitudeMeters>
            <DistanceMeters>NAN</DistanceMeters>
          </Trackpoint>
          <Trackpoint>
            <Time>2021-08-13T10:47:43.000Z</Time>
            <Position>
              <LatitudeDegrees>43.15588097088038921356201171875</LatitudeDegrees>
              <LongitudeDegrees>-1.9642371498048305511474609375</LongitudeDegrees>
            </Position>
            <AltitudeMeters>264.600006103515625</AltitudeMeters>
            <DistanceMeters>NAN</DistanceMeters>
          </Trackpoint>
          <Trackpoint>
            <Time>2021-08-13T10:47:44.000Z</Time>
            <Position>
              <LatitudeDegrees>43.15585616044700145721435546875</LatitudeDegrees>
              <LongitudeDegrees>-1.96419364772737026214599609375</LongitudeDegrees>
            </Position>
            <AltitudeMeters>264.600006103515625</AltitudeMeters>
            <DistanceMeters>NAN</DistanceMeters>
          </Trackpoint>
          <Trackpoint>
            <Time>2021-08-13T10:47:45.000Z</Time>
            <Position>
              <LatitudeDegrees>43.1558302603662014007568359375</LatitudeDegrees>
              <LongitudeDegrees>-1.96414754725992679595947265625</LongitudeDegrees>
            </Position>
            <AltitudeMeters>264.600006103515625</AltitudeMeters>
            <DistanceMeters>NAN</DistanceMeters>
          </Trackpoint>
          <Trackpoint>
            <Time>2021-08-13T10:47:49.000Z</Time>
            <Position>
              <LatitudeDegrees>43.155742585659027099609375</LatitudeDegrees>
              <LongitudeDegrees>-1.9639675877988338470458984375</LongitudeDegrees>
            </Position>
            <AltitudeMeters>265.20001220703125</AltitudeMeters>
            <DistanceMeters>NAN</DistanceMeters>
          </Trackpoint>
          <Trackpoint>
            <Time>2021-08-13T10:47:50.000Z</Time>
            <Position>
              <LatitudeDegrees>43.15572406165301799774169921875</LatitudeDegrees>
              <LongitudeDegrees>-1.9639303721487522125244140625</LongitudeDegrees>
            </Position>
            <AltitudeMeters>265.20001220703125</AltitudeMeters>
            <DistanceMeters>NAN</DistanceMeters>
          </Trackpoint>
          <Trackpoint>
            <Time>2021-08-13T10:47:51.000Z</Time>
            <Position>
              <LatitudeDegrees>43.15570729784667491912841796875</LatitudeDegrees>
              <LongitudeDegrees>-1.9638898037374019622802734375</LongitudeDegrees>
            </Position>
            <AltitudeMeters>265.399993896484375</AltitudeMeters>
            <DistanceMeters>NAN</DistanceMeters>
          </Trackpoint>
          <Trackpoint>
            <Time>2021-08-13T10:47:52.000Z</Time>
            <Position>
              <LatitudeDegrees>43.15569187514483928680419921875</LatitudeDegrees>
              <LongitudeDegrees>-1.96385317482054233551025390625</LongitudeDegrees>
            </Position>
            <AltitudeMeters>265.399993896484375</AltitudeMeters>
            <DistanceMeters>NAN</DistanceMeters>
          </Trackpoint>
          <Trackpoint>
            <Time>2021-08-13T10:47:53.000Z</Time>
            <Position>
              <LatitudeDegrees>43.15568022429943084716796875</LatitudeDegrees>
              <LongitudeDegrees>-1.963820569217205047607421875</LongitudeDegrees>
            </Position>
            <AltitudeMeters>265.399993896484375</AltitudeMeters>
            <DistanceMeters>NAN</DistanceMeters>
          </Trackpoint>
          <Trackpoint>
            <Time>2021-08-13T10:47:54.000Z</Time>
            <Position>
              <LatitudeDegrees>43.15566773526370525360107421875</LatitudeDegrees>
              <LongitudeDegrees>-1.963790394365787506103515625</LongitudeDegrees>
            </Position>
            <AltitudeMeters>265.399993896484375</AltitudeMeters>
            <DistanceMeters>NAN</DistanceMeters>
          </Trackpoint>
          <Trackpoint>
            <Time>2021-08-13T10:47:55.000Z</Time>
            <Position>
              <LatitudeDegrees>43.1556572578847408294677734375</LatitudeDegrees>
              <LongitudeDegrees>-1.9637620635330677032470703125</LongitudeDegrees>
            </Position>
            <AltitudeMeters>265.399993896484375</AltitudeMeters>
            <DistanceMeters>NAN</DistanceMeters>
          </Trackpoint>
          <Trackpoint>
            <Time>2021-08-13T10:47:56.000Z</Time>
            <Position>
              <LatitudeDegrees>43.15564728341996669769287109375</LatitudeDegrees>
              <LongitudeDegrees>-1.96372996084392070770263671875</LongitudeDegrees>
            </Position>
            <AltitudeMeters>265.399993896484375</AltitudeMeters>
            <DistanceMeters>NAN</DistanceMeters>
          </Trackpoint>
          <Trackpoint>
            <Time>2021-08-13T10:48:01.000Z</Time>
            <Position>
              <LatitudeDegrees>43.155570589005947113037109375</LatitudeDegrees>
              <LongitudeDegrees>-1.9635273702442646026611328125</LongitudeDegrees>
            </Position>
            <AltitudeMeters>265.600006103515625</AltitudeMeters>
            <DistanceMeters>NAN</DistanceMeters>
          </Trackpoint>
          <Trackpoint>
            <Time>2021-08-13T10:48:08.000Z</Time>
            <Position>
              <LatitudeDegrees>43.15548500977456569671630859375</LatitudeDegrees>
              <LongitudeDegrees>-1.9632531143724918365478515625</LongitudeDegrees>
            </Position>
            <AltitudeMeters>265.79998779296875</AltitudeMeters>
            <DistanceMeters>NAN</DistanceMeters>
          </Trackpoint>
          <Trackpoint>
            <Time>2021-08-13T10:48:09.000Z</Time>
            <Position>
              <LatitudeDegrees>43.15547914244234561920166015625</LatitudeDegrees>
              <LongitudeDegrees>-1.96321866475045680999755859375</LongitudeDegrees>
            </Position>
            <AltitudeMeters>266</AltitudeMeters>
            <DistanceMeters>NAN</DistanceMeters>
          </Trackpoint>
          <Trackpoint>
            <Time>2021-08-13T10:48:14.000Z</Time>
            <Position>
              <LatitudeDegrees>43.1553840078413486480712890625</LatitudeDegrees>
              <LongitudeDegrees>-1.963009871542453765869140625</LongitudeDegrees>
            </Position>
            <AltitudeMeters>265.79998779296875</AltitudeMeters>
            <DistanceMeters>NAN</DistanceMeters>
          </Trackpoint>
          <Trackpoint>
            <Time>2021-08-13T10:48:15.000Z</Time>
            <Position>
              <LatitudeDegrees>43.15536213107407093048095703125</LatitudeDegrees>
              <LongitudeDegrees>-1.96297257207334041595458984375</LongitudeDegrees>
            </Position>
            <AltitudeMeters>265.79998779296875</AltitudeMeters>
            <DistanceMeters>NAN</DistanceMeters>
          </Trackpoint>
          <Trackpoint>
            <Time>2021-08-13T10:48:16.000Z</Time>
            <Position>
              <LatitudeDegrees>43.15533396787941455841064453125</LatitudeDegrees>
              <LongitudeDegrees>-1.9629198499023914337158203125</LongitudeDegrees>
            </Position>
            <AltitudeMeters>265.79998779296875</AltitudeMeters>
            <DistanceMeters>NAN</DistanceMeters>
          </Trackpoint>
          <Trackpoint>
            <Time>2021-08-13T10:48:19.000Z</Time>
            <Position>
              <LatitudeDegrees>43.15525601617991924285888671875</LatitudeDegrees>
              <LongitudeDegrees>-1.96279034949839115142822265625</LongitudeDegrees>
            </Position>
            <AltitudeMeters>265.79998779296875</AltitudeMeters>
            <DistanceMeters>NAN</DistanceMeters>
          </Trackpoint>
          <Trackpoint>
            <Time>2021-08-13T10:48:21.000Z</Time>
            <Position>
              <LatitudeDegrees>43.15520589239895343780517578125</LatitudeDegrees>
              <LongitudeDegrees>-1.96270770393311977386474609375</LongitudeDegrees>
            </Position>
            <AltitudeMeters>266</AltitudeMeters>
            <DistanceMeters>NAN</DistanceMeters>
          </Trackpoint>
          <Trackpoint>
            <Time>2021-08-13T10:48:24.000Z</Time>
            <Position>
              <LatitudeDegrees>43.15510698594152927398681640625</LatitudeDegrees>
              <LongitudeDegrees>-1.96262790821492671966552734375</LongitudeDegrees>
            </Position>
            <AltitudeMeters>266.20001220703125</AltitudeMeters>
            <DistanceMeters>NAN</DistanceMeters>
          </Trackpoint>
          <Trackpoint>
            <Time>2021-08-13T10:48:25.000Z</Time>
            <Position>
              <LatitudeDegrees>43.15507044084370136260986328125</LatitudeDegrees>
              <LongitudeDegrees>-1.96261181496083736419677734375</LongitudeDegrees>
            </Position>
            <AltitudeMeters>266.20001220703125</AltitudeMeters>
            <DistanceMeters>NAN</DistanceMeters>
          </Trackpoint>
          <Trackpoint>
            <Time>2021-08-13T10:48:26.000Z</Time>
            <Position>
              <LatitudeDegrees>43.155034817755222320556640625</LatitudeDegrees>
              <LongitudeDegrees>-1.9625951349735260009765625</LongitudeDegrees>
            </Position>
            <AltitudeMeters>266.20001220703125</AltitudeMeters>
            <DistanceMeters>NAN</DistanceMeters>
          </Trackpoint>
          <Trackpoint>
            <Time>2021-08-13T10:48:31.000Z</Time>
            <Position>
              <LatitudeDegrees>43.15485552884638309478759765625</LatitudeDegrees>
              <LongitudeDegrees>-1.9625332765281200408935546875</LongitudeDegrees>
            </Position>
            <AltitudeMeters>266.20001220703125</AltitudeMeters>
            <DistanceMeters>NAN</DistanceMeters>
          </Trackpoint>
          <Trackpoint>
            <Time>2021-08-13T10:48:36.000Z</Time>
            <Position>
              <LatitudeDegrees>43.15467615611851215362548828125</LatitudeDegrees>
              <LongitudeDegrees>-1.962524391710758209228515625</LongitudeDegrees>
            </Position>
            <AltitudeMeters>266.20001220703125</AltitudeMeters>
            <DistanceMeters>NAN</DistanceMeters>
          </Trackpoint>
          <Trackpoint>
            <Time>2021-08-13T10:48:37.000Z</Time>
            <Position>
              <LatitudeDegrees>43.15464489161968231201171875</LatitudeDegrees>
              <LongitudeDegrees>-1.96253084577620029449462890625</LongitudeDegrees>
            </Position>
            <AltitudeMeters>266.20001220703125</AltitudeMeters>
            <DistanceMeters>NAN</DistanceMeters>
          </Trackpoint>
          <Trackpoint>
            <Time>2021-08-13T10:48:38.000Z</Time>
            <Position>
              <LatitudeDegrees>43.154617734253406524658203125</LatitudeDegrees>
              <LongitudeDegrees>-1.9625352881848812103271484375</LongitudeDegrees>
            </Position>
            <AltitudeMeters>266.20001220703125</AltitudeMeters>
            <DistanceMeters>NAN</DistanceMeters>
          </Trackpoint>
          <Trackpoint>
            <Time>2021-08-13T10:48:39.000Z</Time>
            <Position>
              <LatitudeDegrees>43.154590912163257598876953125</LatitudeDegrees>
              <LongitudeDegrees>-1.96254073642194271087646484375</LongitudeDegrees>
            </Position>
            <AltitudeMeters>266.20001220703125</AltitudeMeters>
            <DistanceMeters>NAN</DistanceMeters>
          </Trackpoint>
          <Trackpoint>
            <Time>2021-08-13T10:48:40.000Z</Time>
            <Position>
              <LatitudeDegrees>43.1545642577111721038818359375</LatitudeDegrees>
              <LongitudeDegrees>-1.9625486992299556732177734375</LongitudeDegrees>
            </Position>
            <AltitudeMeters>266.20001220703125</AltitudeMeters>
            <DistanceMeters>NAN</DistanceMeters>
          </Trackpoint>
          <Trackpoint>
            <Time>2021-08-13T10:48:41.000Z</Time>
            <Position>
              <LatitudeDegrees>43.15453751944005489349365234375</LatitudeDegrees>
              <LongitudeDegrees>-1.96255582384765148162841796875</LongitudeDegrees>
            </Position>
            <AltitudeMeters>266.20001220703125</AltitudeMeters>
            <DistanceMeters>NAN</DistanceMeters>
          </Trackpoint>
          <Trackpoint>
            <Time>2021-08-13T10:48:42.000Z</Time>
            <Position>
              <LatitudeDegrees>43.15451254136860370635986328125</LatitudeDegrees>
              <LongitudeDegrees>-1.962564624845981597900390625</LongitudeDegrees>
            </Position>
            <AltitudeMeters>266.20001220703125</AltitudeMeters>
            <DistanceMeters>NAN</DistanceMeters>
          </Trackpoint>
          <Trackpoint>
            <Time>2021-08-13T10:48:43.000Z</Time>
            <Position>
              <LatitudeDegrees>43.15448571927845478057861328125</LatitudeDegrees>
              <LongitudeDegrees>-1.96257744915783405303955078125</LongitudeDegrees>
            </Position>
            <AltitudeMeters>266.399993896484375</AltitudeMeters>
            <DistanceMeters>NAN</DistanceMeters>
          </Trackpoint>
          <Trackpoint>
            <Time>2021-08-13T10:48:46.000Z</Time>
            <Position>
              <LatitudeDegrees>43.15441153943538665771484375</LatitudeDegrees>
              <LongitudeDegrees>-1.96262530982494354248046875</LongitudeDegrees>
            </Position>
            <AltitudeMeters>266.600006103515625</AltitudeMeters>
            <DistanceMeters>NAN</DistanceMeters>
          </Trackpoint>
          <Trackpoint>
            <Time>2021-08-13T10:48:47.000Z</Time>
            <Position>
              <LatitudeDegrees>43.15438966266810894012451171875</LatitudeDegrees>
              <LongitudeDegrees>-1.96264400146901607513427734375</LongitudeDegrees>
            </Position>
            <AltitudeMeters>266.600006103515625</AltitudeMeters>
            <DistanceMeters>NAN</DistanceMeters>
          </Trackpoint>
          <Trackpoint>
            <Time>2021-08-13T10:48:48.000Z</Time>
            <Position>
              <LatitudeDegrees>43.15436786971986293792724609375</LatitudeDegrees>
              <LongitudeDegrees>-1.962665207684040069580078125</LongitudeDegrees>
            </Position>
            <AltitudeMeters>266.600006103515625</AltitudeMeters>
            <DistanceMeters>NAN</DistanceMeters>
          </Trackpoint>
          <Trackpoint>
            <Time>2021-08-13T10:48:49.000Z</Time>
            <Position>
              <LatitudeDegrees>43.154344819486141204833984375</LatitudeDegrees>
              <LongitudeDegrees>-1.9626809656620025634765625</LongitudeDegrees>
            </Position>
            <AltitudeMeters>266.600006103515625</AltitudeMeters>
            <DistanceMeters>NAN</DistanceMeters>
          </Trackpoint>
          <Trackpoint>
            <Time>2021-08-13T10:48:50.000Z</Time>
            <Position>
              <LatitudeDegrees>43.15432026050984859466552734375</LatitudeDegrees>
              <LongitudeDegrees>-1.96269747801125049591064453125</LongitudeDegrees>
            </Position>
            <AltitudeMeters>266.600006103515625</AltitudeMeters>
            <DistanceMeters>NAN</DistanceMeters>
          </Trackpoint>
          <Trackpoint>
            <Time>2021-08-13T10:48:51.000Z</Time>
            <Position>
              <LatitudeDegrees>43.154290504753589630126953125</LatitudeDegrees>
              <LongitudeDegrees>-1.96272346191108226776123046875</LongitudeDegrees>
            </Position>
            <AltitudeMeters>266.600006103515625</AltitudeMeters>
            <DistanceMeters>NAN</DistanceMeters>
          </Trackpoint>
          <Trackpoint>
            <Time>2021-08-13T10:48:54.000Z</Time>
            <Position>
              <LatitudeDegrees>43.15421951003372669219970703125</LatitudeDegrees>
              <LongitudeDegrees>-1.96283242665231227874755859375</LongitudeDegrees>
            </Position>
            <AltitudeMeters>266.79998779296875</AltitudeMeters>
            <DistanceMeters>NAN</DistanceMeters>
          </Trackpoint>
          <Trackpoint>
            <Time>2021-08-13T10:48:56.000Z</Time>
            <Position>
              <LatitudeDegrees>43.15416804514825344085693359375</LatitudeDegrees>
              <LongitudeDegrees>-1.9628997333347797393798828125</LongitudeDegrees>
            </Position>
            <AltitudeMeters>266.79998779296875</AltitudeMeters>
            <DistanceMeters>NAN</DistanceMeters>
          </Trackpoint>
          <Trackpoint>
            <Time>2021-08-13T10:48:58.000Z</Time>
            <Position>
              <LatitudeDegrees>43.15412948839366436004638671875</LatitudeDegrees>
              <LongitudeDegrees>-1.9629667885601520538330078125</LongitudeDegrees>
            </Position>
            <AltitudeMeters>267</AltitudeMeters>
            <DistanceMeters>NAN</DistanceMeters>
          </Trackpoint>
          <Trackpoint>
            <Time>2021-08-13T10:49:00.000Z</Time>
            <Position>
              <LatitudeDegrees>43.1541089527308940887451171875</LatitudeDegrees>
              <LongitudeDegrees>-1.9630348496139049530029296875</LongitudeDegrees>
            </Position>
            <AltitudeMeters>267.20001220703125</AltitudeMeters>
            <DistanceMeters>NAN</DistanceMeters>
          </Trackpoint>
          <Trackpoint>
            <Time>2021-08-13T10:49:01.000Z</Time>
            <Position>
              <LatitudeDegrees>43.1540988944470882415771484375</LatitudeDegrees>
              <LongitudeDegrees>-1.96306879632174968719482421875</LongitudeDegrees>
            </Position>
            <AltitudeMeters>267.20001220703125</AltitudeMeters>
            <DistanceMeters>NAN</DistanceMeters>
          </Trackpoint>
          <Trackpoint>
            <Time>2021-08-13T10:49:05.000Z</Time>
            <Position>
              <LatitudeDegrees>43.154071904718875885009765625</LatitudeDegrees>
              <LongitudeDegrees>-1.9632749073207378387451171875</LongitudeDegrees>
            </Position>
            <AltitudeMeters>267.399993896484375</AltitudeMeters>
            <DistanceMeters>NAN</DistanceMeters>
          </Trackpoint>
          <Trackpoint>
            <Time>2021-08-13T10:49:06.000Z</Time>
            <Position>
              <LatitudeDegrees>43.154100067913532257080078125</LatitudeDegrees>
              <LongitudeDegrees>-1.963359229266643524169921875</LongitudeDegrees>
            </Position>
            <AltitudeMeters>267.399993896484375</AltitudeMeters>
            <DistanceMeters>NAN</DistanceMeters>
          </Trackpoint>
          <Trackpoint>
            <Time>2021-08-13T10:49:08.000Z</Time>
            <Position>
              <LatitudeDegrees>43.1541045941412448883056640625</LatitudeDegrees>
              <LongitudeDegrees>-1.96348001249134540557861328125</LongitudeDegrees>
            </Position>
            <AltitudeMeters>267.600006103515625</AltitudeMeters>
            <DistanceMeters>NAN</DistanceMeters>
          </Trackpoint>
          <Trackpoint>
            <Time>2021-08-13T10:49:09.000Z</Time>
            <Position>
              <LatitudeDegrees>43.154097385704517364501953125</LatitudeDegrees>
              <LongitudeDegrees>-1.9635018892586231231689453125</LongitudeDegrees>
            </Position>
            <AltitudeMeters>267.79998779296875</AltitudeMeters>
            <DistanceMeters>NAN</DistanceMeters>
          </Trackpoint>
          <Trackpoint>
            <Time>2021-08-13T10:49:10.000Z</Time>
            <Position>
              <LatitudeDegrees>43.15410367213189601898193359375</LatitudeDegrees>
              <LongitudeDegrees>-1.96353248320519924163818359375</LongitudeDegrees>
            </Position>
            <AltitudeMeters>267.600006103515625</AltitudeMeters>
            <DistanceMeters>NAN</DistanceMeters>
          </Trackpoint>
          <Trackpoint>
            <Time>2021-08-13T10:49:11.000Z</Time>
            <Position>
              <LatitudeDegrees>43.15406796522438526153564453125</LatitudeDegrees>
              <LongitudeDegrees>-1.9635768234729766845703125</LongitudeDegrees>
            </Position>
            <AltitudeMeters>267.79998779296875</AltitudeMeters>
            <DistanceMeters>NAN</DistanceMeters>
          </Trackpoint>
          <Trackpoint>
            <Time>2021-08-13T10:49:12.000Z</Time>
            <Position>
              <LatitudeDegrees>43.1540040113031864166259765625</LatitudeDegrees>
              <LongitudeDegrees>-1.9636329822242259979248046875</LongitudeDegrees>
            </Position>
            <AltitudeMeters>267.79998779296875</AltitudeMeters>
            <DistanceMeters>NAN</DistanceMeters>
          </Trackpoint>
          <Trackpoint>
            <Time>2021-08-13T10:49:16.000Z</Time>
            <Position>
              <LatitudeDegrees>43.153916336596012115478515625</LatitudeDegrees>
              <LongitudeDegrees>-1.96382987312972545623779296875</LongitudeDegrees>
            </Position>
            <AltitudeMeters>268.20001220703125</AltitudeMeters>
            <DistanceMeters>NAN</DistanceMeters>
          </Trackpoint>
          <Trackpoint>
            <Time>2021-08-13T10:49:17.000Z</Time>
            <Position>
              <LatitudeDegrees>43.1539034284651279449462890625</LatitudeDegrees>
              <LongitudeDegrees>-1.96386314928531646728515625</LongitudeDegrees>
            </Position>
            <AltitudeMeters>268.20001220703125</AltitudeMeters>
            <DistanceMeters>NAN</DistanceMeters>
          </Trackpoint>
          <Trackpoint>
            <Time>2021-08-13T10:49:21.000Z</Time>
            <Position>
              <LatitudeDegrees>43.1539629399776458740234375</LatitudeDegrees>
              <LongitudeDegrees>-1.96395032107830047607421875</LongitudeDegrees>
            </Position>
            <AltitudeMeters>268.399993896484375</AltitudeMeters>
            <DistanceMeters>NAN</DistanceMeters>
          </Trackpoint>
          <Trackpoint>
            <Time>2021-08-13T10:49:22.000Z</Time>
            <Position>
              <LatitudeDegrees>43.1539792008697986602783203125</LatitudeDegrees>
              <LongitudeDegrees>-1.9639561884105205535888671875</LongitudeDegrees>
            </Position>
            <AltitudeMeters>268.399993896484375</AltitudeMeters>
            <DistanceMeters>NAN</DistanceMeters>
          </Trackpoint>
          <Trackpoint>
            <Time>2021-08-13T10:49:46.000Z</Time>
            <Position>
              <LatitudeDegrees>43.15324452705681324005126953125</LatitudeDegrees>
              <LongitudeDegrees>-1.9643709249794483184814453125</LongitudeDegrees>
            </Position>
            <AltitudeMeters>270.600006103515625</AltitudeMeters>
            <DistanceMeters>NAN</DistanceMeters>
          </Trackpoint>
          <Trackpoint>
            <Time>2021-08-13T10:49:47.000Z</Time>
            <Position>
              <LatitudeDegrees>43.1532368995249271392822265625</LatitudeDegrees>
              <LongitudeDegrees>-1.96437201462686061859130859375</LongitudeDegrees>
            </Position>
            <AltitudeMeters>270.600006103515625</AltitudeMeters>
            <DistanceMeters>NAN</DistanceMeters>
          </Trackpoint>
          <Trackpoint>
            <Time>2021-08-13T10:49:49.000Z</Time>
            <Position>
              <LatitudeDegrees>43.153167329728603363037109375</LatitudeDegrees>
              <LongitudeDegrees>-1.9643984176218509674072265625</LongitudeDegrees>
            </Position>
            <AltitudeMeters>270.600006103515625</AltitudeMeters>
            <DistanceMeters>NAN</DistanceMeters>
          </Trackpoint>
          <Trackpoint>
            <Time>2021-08-13T10:49:50.000Z</Time>
            <Position>
              <LatitudeDegrees>43.1531440280377864837646484375</LatitudeDegrees>
              <LongitudeDegrees>-1.96435877121984958648681640625</LongitudeDegrees>
            </Position>
            <AltitudeMeters>270.79998779296875</AltitudeMeters>
            <DistanceMeters>NAN</DistanceMeters>
          </Trackpoint>
          <Trackpoint>
            <Time>2021-08-13T10:49:51.000Z</Time>
            <Position>
              <LatitudeDegrees>43.15311737358570098876953125</LatitudeDegrees>
              <LongitudeDegrees>-1.96433722972869873046875</LongitudeDegrees>
            </Position>
            <AltitudeMeters>270.79998779296875</AltitudeMeters>
            <DistanceMeters>NAN</DistanceMeters>
          </Trackpoint>
          <Trackpoint>
            <Time>2021-08-13T10:49:52.000Z</Time>
            <Position>
              <LatitudeDegrees>43.1530910544097423553466796875</LatitudeDegrees>
              <LongitudeDegrees>-1.96433044038712978363037109375</LongitudeDegrees>
            </Position>
            <AltitudeMeters>270.79998779296875</AltitudeMeters>
            <DistanceMeters>NAN</DistanceMeters>
          </Trackpoint>
          <Trackpoint>
            <Time>2021-08-13T10:49:53.000Z</Time>
            <Position>
              <LatitudeDegrees>43.1530588679015636444091796875</LatitudeDegrees>
              <LongitudeDegrees>-1.9643305242061614990234375</LongitudeDegrees>
            </Position>
            <AltitudeMeters>270.79998779296875</AltitudeMeters>
            <DistanceMeters>NAN</DistanceMeters>
          </Trackpoint>
          <Trackpoint>
            <Time>2021-08-13T10:49:54.000Z</Time>
            <Position>
              <LatitudeDegrees>43.15302760340273380279541015625</LatitudeDegrees>
              <LongitudeDegrees>-1.9643363915383815765380859375</LongitudeDegrees>
            </Position>
            <AltitudeMeters>270.399993896484375</AltitudeMeters>
            <DistanceMeters>NAN</DistanceMeters>
          </Trackpoint>
          <Trackpoint>
            <Time>2021-08-13T10:49:55.000Z</Time>
            <Position>
              <LatitudeDegrees>43.1530001945793628692626953125</LatitudeDegrees>
              <LongitudeDegrees>-1.96430303156375885009765625</LongitudeDegrees>
            </Position>
            <AltitudeMeters>270.399993896484375</AltitudeMeters>
            <DistanceMeters>NAN</DistanceMeters>
          </Trackpoint>
          <Trackpoint>
            <Time>2021-08-13T10:49:56.000Z</Time>
            <Position>
              <LatitudeDegrees>43.1529639847576618194580078125</LatitudeDegrees>
              <LongitudeDegrees>-1.96429121308028697967529296875</LongitudeDegrees>
            </Position>
            <AltitudeMeters>270.399993896484375</AltitudeMeters>
            <DistanceMeters>NAN</DistanceMeters>
          </Trackpoint>
          <Trackpoint>
            <Time>2021-08-13T10:49:57.000Z</Time>
            <Position>
              <LatitudeDegrees>43.1529328040778636932373046875</LatitudeDegrees>
              <LongitudeDegrees>-1.96427755057811737060546875</LongitudeDegrees>
            </Position>
            <AltitudeMeters>270.399993896484375</AltitudeMeters>
            <DistanceMeters>NAN</DistanceMeters>
          </Trackpoint>
          <Trackpoint>
            <Time>2021-08-13T10:49:58.000Z</Time>
            <Position>
              <LatitudeDegrees>43.15290891565382480621337890625</LatitudeDegrees>
              <LongitudeDegrees>-1.96425600908696651458740234375</LongitudeDegrees>
            </Position>
            <AltitudeMeters>270.600006103515625</AltitudeMeters>
            <DistanceMeters>NAN</DistanceMeters>
          </Trackpoint>
          <Trackpoint>
            <Time>2021-08-13T10:49:59.000Z</Time>
            <Position>
              <LatitudeDegrees>43.15288402140140533447265625</LatitudeDegrees>
              <LongitudeDegrees>-1.9642498902976512908935546875</LongitudeDegrees>
            </Position>
            <AltitudeMeters>270.600006103515625</AltitudeMeters>
            <DistanceMeters>NAN</DistanceMeters>
          </Trackpoint>
          <Trackpoint>
            <Time>2021-08-13T10:50:00.000Z</Time>
            <Position>
              <LatitudeDegrees>43.1528523378074169158935546875</LatitudeDegrees>
              <LongitudeDegrees>-1.96424243040382862091064453125</LongitudeDegrees>
            </Position>
            <AltitudeMeters>270.79998779296875</AltitudeMeters>
            <DistanceMeters>NAN</DistanceMeters>
          </Trackpoint>
          <Trackpoint>
            <Time>2021-08-13T10:50:01.000Z</Time>
            <Position>
              <LatitudeDegrees>43.1528211571276187896728515625</LatitudeDegrees>
              <LongitudeDegrees>-1.96423119865357875823974609375</LongitudeDegrees>
            </Position>
            <AltitudeMeters>270.79998779296875</AltitudeMeters>
            <DistanceMeters>NAN</DistanceMeters>
          </Trackpoint>
          <Trackpoint>
            <Time>2021-08-13T10:50:02.000Z</Time>
            <Position>
              <LatitudeDegrees>43.15279156900942325592041015625</LatitudeDegrees>
              <LongitudeDegrees>-1.9642187096178531646728515625</LongitudeDegrees>
            </Position>
            <AltitudeMeters>270.79998779296875</AltitudeMeters>
            <DistanceMeters>NAN</DistanceMeters>
          </Trackpoint>
          <Trackpoint>
            <Time>2021-08-13T10:50:03.000Z</Time>
            <Position>
              <LatitudeDegrees>43.15275988541543483734130859375</LatitudeDegrees>
              <LongitudeDegrees>-1.9642109982669353485107421875</LongitudeDegrees>
            </Position>
            <AltitudeMeters>270.79998779296875</AltitudeMeters>
            <DistanceMeters>NAN</DistanceMeters>
          </Trackpoint>
          <Trackpoint>
            <Time>2021-08-13T10:50:04.000Z</Time>
            <Position>
              <LatitudeDegrees>43.1527282856404781341552734375</LatitudeDegrees>
              <LongitudeDegrees>-1.96420102380216121673583984375</LongitudeDegrees>
            </Position>
            <AltitudeMeters>270.79998779296875</AltitudeMeters>
            <DistanceMeters>NAN</DistanceMeters>
          </Trackpoint>
          <Trackpoint>
            <Time>2021-08-13T10:50:05.000Z</Time>
            <Position>
              <LatitudeDegrees>43.15269735641777515411376953125</LatitudeDegrees>
              <LongitudeDegrees>-1.9641875289380550384521484375</LongitudeDegrees>
            </Position>
            <AltitudeMeters>270.79998779296875</AltitudeMeters>
            <DistanceMeters>NAN</DistanceMeters>
          </Trackpoint>
          <Trackpoint>
            <Time>2021-08-13T10:50:06.000Z</Time>
            <Position>
              <LatitudeDegrees>43.1526689417660236358642578125</LatitudeDegrees>
              <LongitudeDegrees>-1.9641711004078388214111328125</LongitudeDegrees>
            </Position>
            <AltitudeMeters>270.79998779296875</AltitudeMeters>
            <DistanceMeters>NAN</DistanceMeters>
          </Trackpoint>
          <Trackpoint>
            <Time>2021-08-13T10:50:12.000Z</Time>
            <Position>
              <LatitudeDegrees>43.152487389743328094482421875</LatitudeDegrees>
              <LongitudeDegrees>-1.96409172378480434417724609375</LongitudeDegrees>
            </Position>
            <AltitudeMeters>270.600006103515625</AltitudeMeters>
            <DistanceMeters>NAN</DistanceMeters>
          </Trackpoint>
          <Trackpoint>
            <Time>2021-08-13T10:50:16.000Z</Time>
            <Position>
              <LatitudeDegrees>43.15233743749558925628662109375</LatitudeDegrees>
              <LongitudeDegrees>-1.9640607945621013641357421875</LongitudeDegrees>
            </Position>
            <AltitudeMeters>271</AltitudeMeters>
            <DistanceMeters>NAN</DistanceMeters>
          </Trackpoint>
          <Trackpoint>
            <Time>2021-08-13T10:50:17.000Z</Time>
            <Position>
              <LatitudeDegrees>43.1522870622575283050537109375</LatitudeDegrees>
              <LongitudeDegrees>-1.9640661589801311492919921875</LongitudeDegrees>
            </Position>
            <AltitudeMeters>271</AltitudeMeters>
            <DistanceMeters>NAN</DistanceMeters>
          </Trackpoint>
          <Trackpoint>
            <Time>2021-08-13T10:50:21.000Z</Time>
            <Position>
              <LatitudeDegrees>43.15213702619075775146484375</LatitudeDegrees>
              <LongitudeDegrees>-1.9640638120472431182861328125</LongitudeDegrees>
            </Position>
            <AltitudeMeters>271.399993896484375</AltitudeMeters>
            <DistanceMeters>NAN</DistanceMeters>
          </Trackpoint>
          <Trackpoint>
            <Time>2021-08-13T10:50:23.000Z</Time>
            <Position>
              <LatitudeDegrees>43.152062930166721343994140625</LatitudeDegrees>
              <LongitudeDegrees>-1.9640675000846385955810546875</LongitudeDegrees>
            </Position>
            <AltitudeMeters>271.600006103515625</AltitudeMeters>
            <DistanceMeters>NAN</DistanceMeters>
          </Trackpoint>
          <Trackpoint>
            <Time>2021-08-13T10:50:26.000Z</Time>
            <Position>
              <LatitudeDegrees>43.15195052884519100189208984375</LatitudeDegrees>
              <LongitudeDegrees>-1.9640738703310489654541015625</LongitudeDegrees>
            </Position>
            <AltitudeMeters>271.600006103515625</AltitudeMeters>
            <DistanceMeters>NAN</DistanceMeters>
          </Trackpoint>
          <Trackpoint>
            <Time>2021-08-13T10:50:27.000Z</Time>
            <Position>
              <LatitudeDegrees>43.15190945751965045928955078125</LatitudeDegrees>
              <LongitudeDegrees>-1.9640752114355564117431640625</LongitudeDegrees>
            </Position>
            <AltitudeMeters>271.600006103515625</AltitudeMeters>
            <DistanceMeters>NAN</DistanceMeters>
          </Trackpoint>
          <Trackpoint>
            <Time>2021-08-13T10:50:28.000Z</Time>
            <Position>
              <LatitudeDegrees>43.15187542699277400970458984375</LatitudeDegrees>
              <LongitudeDegrees>-1.96407831273972988128662109375</LongitudeDegrees>
            </Position>
            <AltitudeMeters>271.600006103515625</AltitudeMeters>
            <DistanceMeters>NAN</DistanceMeters>
          </Trackpoint>
          <Trackpoint>
            <Time>2021-08-13T10:50:29.000Z</Time>
            <Position>
              <LatitudeDegrees>43.151839636266231536865234375</LatitudeDegrees>
              <LongitudeDegrees>-1.9640812464058399200439453125</LongitudeDegrees>
            </Position>
            <AltitudeMeters>271.600006103515625</AltitudeMeters>
            <DistanceMeters>NAN</DistanceMeters>
          </Trackpoint>
          <Trackpoint>
            <Time>2021-08-13T10:50:30.000Z</Time>
            <Position>
              <LatitudeDegrees>43.15181122161448001861572265625</LatitudeDegrees>
              <LongitudeDegrees>-1.964082084596157073974609375</LongitudeDegrees>
            </Position>
            <AltitudeMeters>271.79998779296875</AltitudeMeters>
            <DistanceMeters>NAN</DistanceMeters>
          </Trackpoint>
          <Trackpoint>
            <Time>2021-08-13T10:50:31.000Z</Time>
            <Position>
              <LatitudeDegrees>43.151771239936351776123046875</LatitudeDegrees>
              <LongitudeDegrees>-1.96408384479582309722900390625</LongitudeDegrees>
            </Position>
            <AltitudeMeters>271.600006103515625</AltitudeMeters>
            <DistanceMeters>NAN</DistanceMeters>
          </Trackpoint>
          <Trackpoint>
            <Time>2021-08-13T10:50:35.000Z</Time>
            <Position>
              <LatitudeDegrees>43.15161609090864658355712890625</LatitudeDegrees>
              <LongitudeDegrees>-1.96410052478313446044921875</LongitudeDegrees>
            </Position>
            <AltitudeMeters>271.79998779296875</AltitudeMeters>
            <DistanceMeters>NAN</DistanceMeters>
          </Trackpoint>
          <Trackpoint>
            <Time>2021-08-13T10:50:36.000Z</Time>
            <Position>
              <LatitudeDegrees>43.15157518722116947174072265625</LatitudeDegrees>
              <LongitudeDegrees>-1.964112929999828338623046875</LongitudeDegrees>
            </Position>
            <AltitudeMeters>271.79998779296875</AltitudeMeters>
            <DistanceMeters>NAN</DistanceMeters>
          </Trackpoint>
          <Trackpoint>
            <Time>2021-08-13T10:50:40.000Z</Time>
            <Position>
              <LatitudeDegrees>43.1514237262308597564697265625</LatitudeDegrees>
              <LongitudeDegrees>-1.96414771489799022674560546875</LongitudeDegrees>
            </Position>
            <AltitudeMeters>272.399993896484375</AltitudeMeters>
            <DistanceMeters>NAN</DistanceMeters>
          </Trackpoint>
          <Trackpoint>
            <Time>2021-08-13T10:50:46.000Z</Time>
            <Position>
              <LatitudeDegrees>43.15117117948830127716064453125</LatitudeDegrees>
              <LongitudeDegrees>-1.9641841761767864227294921875</LongitudeDegrees>
            </Position>
            <AltitudeMeters>272.79998779296875</AltitudeMeters>
            <DistanceMeters>NAN</DistanceMeters>
          </Trackpoint>
          <Trackpoint>
            <Time>2021-08-13T10:50:51.000Z</Time>
            <Position>
              <LatitudeDegrees>43.150973282754421234130859375</LatitudeDegrees>
              <LongitudeDegrees>-1.96419767104089260101318359375</LongitudeDegrees>
            </Position>
            <AltitudeMeters>273.20001220703125</AltitudeMeters>
            <DistanceMeters>NAN</DistanceMeters>
          </Trackpoint>
          <Trackpoint>
            <Time>2021-08-13T10:50:52.000Z</Time>
            <Position>
              <LatitudeDegrees>43.1509320437908172607421875</LatitudeDegrees>
              <LongitudeDegrees>-1.96419180370867252349853515625</LongitudeDegrees>
            </Position>
            <AltitudeMeters>273.20001220703125</AltitudeMeters>
            <DistanceMeters>NAN</DistanceMeters>
          </Trackpoint>
          <Trackpoint>
            <Time>2021-08-13T10:50:55.000Z</Time>
            <Position>
              <LatitudeDegrees>43.15082064829766750335693359375</LatitudeDegrees>
              <LongitudeDegrees>-1.96421720087528228759765625</LongitudeDegrees>
            </Position>
            <AltitudeMeters>273.399993896484375</AltitudeMeters>
            <DistanceMeters>NAN</DistanceMeters>
          </Trackpoint>
          <Trackpoint>
            <Time>2021-08-13T10:50:56.000Z</Time>
            <Position>
              <LatitudeDegrees>43.150785863399505615234375</LatitudeDegrees>
              <LongitudeDegrees>-1.96422482840716838836669921875</LongitudeDegrees>
            </Position>
            <AltitudeMeters>273.399993896484375</AltitudeMeters>
            <DistanceMeters>NAN</DistanceMeters>
          </Trackpoint>
          <Trackpoint>
            <Time>2021-08-13T10:50:58.000Z</Time>
            <Position>
              <LatitudeDegrees>43.150718472898006439208984375</LatitudeDegrees>
              <LongitudeDegrees>-1.96424134075641632080078125</LongitudeDegrees>
            </Position>
            <AltitudeMeters>273.600006103515625</AltitudeMeters>
            <DistanceMeters>NAN</DistanceMeters>
          </Trackpoint>
          <Trackpoint>
            <Time>2021-08-13T10:50:59.000Z</Time>
            <Position>
              <LatitudeDegrees>43.15068729221820831298828125</LatitudeDegrees>
              <LongitudeDegrees>-1.9642519019544124603271484375</LongitudeDegrees>
            </Position>
            <AltitudeMeters>273.79998779296875</AltitudeMeters>
            <DistanceMeters>NAN</DistanceMeters>
          </Trackpoint>
          <Trackpoint>
            <Time>2021-08-13T10:51:00.000Z</Time>
            <Position>
              <LatitudeDegrees>43.1506592966616153717041015625</LatitudeDegrees>
              <LongitudeDegrees>-1.964264810085296630859375</LongitudeDegrees>
            </Position>
            <AltitudeMeters>273.79998779296875</AltitudeMeters>
            <DistanceMeters>NAN</DistanceMeters>
          </Trackpoint>
          <Trackpoint>
            <Time>2021-08-13T10:51:01.000Z</Time>
            <Position>
              <LatitudeDegrees>43.15063507296144962310791015625</LatitudeDegrees>
              <LongitudeDegrees>-1.96427746675908565521240234375</LongitudeDegrees>
            </Position>
            <AltitudeMeters>273.79998779296875</AltitudeMeters>
            <DistanceMeters>NAN</DistanceMeters>
          </Trackpoint>
          <Trackpoint>
            <Time>2021-08-13T10:51:02.000Z</Time>
            <Position>
              <LatitudeDegrees>43.150611855089664459228515625</LatitudeDegrees>
              <LongitudeDegrees>-1.96428467519581317901611328125</LongitudeDegrees>
            </Position>
            <AltitudeMeters>274</AltitudeMeters>
            <DistanceMeters>NAN</DistanceMeters>
          </Trackpoint>
          <Trackpoint>
            <Time>2021-08-13T10:51:03.000Z</Time>
            <Position>
              <LatitudeDegrees>43.15058746375143527984619140625</LatitudeDegrees>
              <LongitudeDegrees>-1.96429188363254070281982421875</LongitudeDegrees>
            </Position>
            <AltitudeMeters>274</AltitudeMeters>
            <DistanceMeters>NAN</DistanceMeters>
          </Trackpoint>
          <Trackpoint>
            <Time>2021-08-13T10:51:05.000Z</Time>
            <Position>
              <LatitudeDegrees>43.15054245293140411376953125</LatitudeDegrees>
              <LongitudeDegrees>-1.9643062166869640350341796875</LongitudeDegrees>
            </Position>
            <AltitudeMeters>274.20001220703125</AltitudeMeters>
            <DistanceMeters>NAN</DistanceMeters>
          </Trackpoint>
          <Trackpoint>
            <Time>2021-08-13T10:51:08.000Z</Time>
            <Position>
              <LatitudeDegrees>43.1504681892693042755126953125</LatitudeDegrees>
              <LongitudeDegrees>-1.96430026553571224212646484375</LongitudeDegrees>
            </Position>
            <AltitudeMeters>274.399993896484375</AltitudeMeters>
            <DistanceMeters>NAN</DistanceMeters>
          </Trackpoint>
          <Trackpoint>
            <Time>2021-08-13T10:51:09.000Z</Time>
            <Position>
              <LatitudeDegrees>43.15045000053942203521728515625</LatitudeDegrees>
              <LongitudeDegrees>-1.96429758332669734954833984375</LongitudeDegrees>
            </Position>
            <AltitudeMeters>274.399993896484375</AltitudeMeters>
            <DistanceMeters>NAN</DistanceMeters>
          </Trackpoint>
          <Trackpoint>
            <Time>2021-08-13T10:51:11.000Z</Time>
            <Position>
              <LatitudeDegrees>43.15038344822824001312255859375</LatitudeDegrees>
              <LongitudeDegrees>-1.9643011875450611114501953125</LongitudeDegrees>
            </Position>
            <AltitudeMeters>274.600006103515625</AltitudeMeters>
            <DistanceMeters>NAN</DistanceMeters>
          </Trackpoint>
          <Trackpoint>
            <Time>2021-08-13T10:51:14.000Z</Time>
            <Position>
              <LatitudeDegrees>43.15029242075979709625244140625</LatitudeDegrees>
              <LongitudeDegrees>-1.964304707944393157958984375</LongitudeDegrees>
            </Position>
            <AltitudeMeters>274.79998779296875</AltitudeMeters>
            <DistanceMeters>NAN</DistanceMeters>
          </Trackpoint>
          <Trackpoint>
            <Time>2021-08-13T10:51:17.000Z</Time>
            <Position>
              <LatitudeDegrees>43.1501966156065464019775390625</LatitudeDegrees>
              <LongitudeDegrees>-1.96430143900215625762939453125</LongitudeDegrees>
            </Position>
            <AltitudeMeters>275.20001220703125</AltitudeMeters>
            <DistanceMeters>NAN</DistanceMeters>
          </Trackpoint>
          <Trackpoint>
            <Time>2021-08-13T10:51:18.000Z</Time>
            <Position>
              <LatitudeDegrees>43.1501677818596363067626953125</LatitudeDegrees>
              <LongitudeDegrees>-1.9642954878509044647216796875</LongitudeDegrees>
            </Position>
            <AltitudeMeters>275.399993896484375</AltitudeMeters>
            <DistanceMeters>NAN</DistanceMeters>
          </Trackpoint>
          <Trackpoint>
            <Time>2021-08-13T10:51:20.000Z</Time>
            <Position>
              <LatitudeDegrees>43.15011153928935527801513671875</LatitudeDegrees>
              <LongitudeDegrees>-1.96427889168262481689453125</LongitudeDegrees>
            </Position>
            <AltitudeMeters>275.600006103515625</AltitudeMeters>
            <DistanceMeters>NAN</DistanceMeters>
          </Trackpoint>
          <Trackpoint>
            <Time>2021-08-13T10:51:21.000Z</Time>
            <Position>
              <LatitudeDegrees>43.150086812674999237060546875</LatitudeDegrees>
              <LongitudeDegrees>-1.9642723537981510162353515625</LongitudeDegrees>
            </Position>
            <AltitudeMeters>275.600006103515625</AltitudeMeters>
            <DistanceMeters>NAN</DistanceMeters>
          </Trackpoint>
          <Trackpoint>
            <Time>2021-08-13T10:51:22.000Z</Time>
            <Position>
              <LatitudeDegrees>43.1500628404319286346435546875</LatitudeDegrees>
              <LongitudeDegrees>-1.9642612896859645843505859375</LongitudeDegrees>
            </Position>
            <AltitudeMeters>275.79998779296875</AltitudeMeters>
            <DistanceMeters>NAN</DistanceMeters>
          </Trackpoint>
          <Trackpoint>
            <Time>2021-08-13T10:51:23.000Z</Time>
            <Position>
              <LatitudeDegrees>43.1500340066850185394287109375</LatitudeDegrees>
              <LongitudeDegrees>-1.9642468728125095367431640625</LongitudeDegrees>
            </Position>
            <AltitudeMeters>275.79998779296875</AltitudeMeters>
            <DistanceMeters>NAN</DistanceMeters>
          </Trackpoint>
          <Trackpoint>
            <Time>2021-08-13T10:51:24.000Z</Time>
            <Position>
              <LatitudeDegrees>43.15001246519386768341064453125</LatitudeDegrees>
              <LongitudeDegrees>-1.964236311614513397216796875</LongitudeDegrees>
            </Position>
            <AltitudeMeters>275.79998779296875</AltitudeMeters>
            <DistanceMeters>NAN</DistanceMeters>
          </Trackpoint>
          <Trackpoint>
            <Time>2021-08-13T10:51:25.000Z</Time>
            <Position>
              <LatitudeDegrees>43.14998564310371875762939453125</LatitudeDegrees>
              <LongitudeDegrees>-1.96422365494072437286376953125</LongitudeDegrees>
            </Position>
            <AltitudeMeters>275.79998779296875</AltitudeMeters>
            <DistanceMeters>NAN</DistanceMeters>
          </Trackpoint>
          <Trackpoint>
            <Time>2021-08-13T10:51:26.000Z</Time>
            <Position>
              <LatitudeDegrees>43.14995513297617435455322265625</LatitudeDegrees>
              <LongitudeDegrees>-1.96421007625758647918701171875</LongitudeDegrees>
            </Position>
            <AltitudeMeters>275.79998779296875</AltitudeMeters>
            <DistanceMeters>NAN</DistanceMeters>
          </Trackpoint>
          <Trackpoint>
            <Time>2021-08-13T10:51:30.000Z</Time>
            <Position>
              <LatitudeDegrees>43.14983393065631389617919921875</LatitudeDegrees>
              <LongitudeDegrees>-1.9641251675784587860107421875</LongitudeDegrees>
            </Position>
            <AltitudeMeters>276.20001220703125</AltitudeMeters>
            <DistanceMeters>NAN</DistanceMeters>
          </Trackpoint>
          <Trackpoint>
            <Time>2021-08-13T10:51:34.000Z</Time>
            <Position>
              <LatitudeDegrees>43.14971976913511753082275390625</LatitudeDegrees>
              <LongitudeDegrees>-1.96401192806661128997802734375</LongitudeDegrees>
            </Position>
            <AltitudeMeters>276.399993896484375</AltitudeMeters>
            <DistanceMeters>NAN</DistanceMeters>
          </Trackpoint>
          <Trackpoint>
            <Time>2021-08-13T10:51:37.000Z</Time>
            <Position>
              <LatitudeDegrees>43.1496410630643367767333984375</LatitudeDegrees>
              <LongitudeDegrees>-1.9639008678495883941650390625</LongitudeDegrees>
            </Position>
            <AltitudeMeters>276.399993896484375</AltitudeMeters>
            <DistanceMeters>NAN</DistanceMeters>
          </Trackpoint>
          <Trackpoint>
            <Time>2021-08-13T10:51:45.000Z</Time>
            <Position>
              <LatitudeDegrees>43.14945255406200885772705078125</LatitudeDegrees>
              <LongitudeDegrees>-1.96359115652740001678466796875</LongitudeDegrees>
            </Position>
            <AltitudeMeters>276.399993896484375</AltitudeMeters>
            <DistanceMeters>NAN</DistanceMeters>
          </Trackpoint>
          <Trackpoint>
            <Time>2021-08-13T10:51:51.000Z</Time>
            <Position>
              <LatitudeDegrees>43.14933805726468563079833984375</LatitudeDegrees>
              <LongitudeDegrees>-1.963308267295360565185546875</LongitudeDegrees>
            </Position>
            <AltitudeMeters>276.79998779296875</AltitudeMeters>
            <DistanceMeters>NAN</DistanceMeters>
          </Trackpoint>
          <Trackpoint>
            <Time>2021-08-13T10:51:55.000Z</Time>
            <Position>
              <LatitudeDegrees>43.14926815219223499298095703125</LatitudeDegrees>
              <LongitudeDegrees>-1.96312327869236469268798828125</LongitudeDegrees>
            </Position>
            <AltitudeMeters>277.20001220703125</AltitudeMeters>
            <DistanceMeters>NAN</DistanceMeters>
          </Trackpoint>
          <Trackpoint>
            <Time>2021-08-13T10:51:57.000Z</Time>
            <Position>
              <LatitudeDegrees>43.14922682940959930419921875</LatitudeDegrees>
              <LongitudeDegrees>-1.9630135595798492431640625</LongitudeDegrees>
            </Position>
            <AltitudeMeters>277.20001220703125</AltitudeMeters>
            <DistanceMeters>NAN</DistanceMeters>
          </Trackpoint>
          <Trackpoint>
            <Time>2021-08-13T10:51:59.000Z</Time>
            <Position>
              <LatitudeDegrees>43.14918131567537784576416015625</LatitudeDegrees>
              <LongitudeDegrees>-1.9629255495965480804443359375</LongitudeDegrees>
            </Position>
            <AltitudeMeters>277.399993896484375</AltitudeMeters>
            <DistanceMeters>NAN</DistanceMeters>
          </Trackpoint>
          <Trackpoint>
            <Time>2021-08-13T10:52:01.000Z</Time>
            <Position>
              <LatitudeDegrees>43.14913119189441204071044921875</LatitudeDegrees>
              <LongitudeDegrees>-1.96284751407802104949951171875</LongitudeDegrees>
            </Position>
            <AltitudeMeters>277.399993896484375</AltitudeMeters>
            <DistanceMeters>NAN</DistanceMeters>
          </Trackpoint>
          <Trackpoint>
            <Time>2021-08-13T10:52:02.000Z</Time>
            <Position>
              <LatitudeDegrees>43.14910789020359516143798828125</LatitudeDegrees>
              <LongitudeDegrees>-1.96280694566667079925537109375</LongitudeDegrees>
            </Position>
            <AltitudeMeters>277.399993896484375</AltitudeMeters>
            <DistanceMeters>NAN</DistanceMeters>
          </Trackpoint>
          <Trackpoint>
            <Time>2021-08-13T10:52:03.000Z</Time>
            <Position>
              <LatitudeDegrees>43.14908559434115886688232421875</LatitudeDegrees>
              <LongitudeDegrees>-1.96276956237852573394775390625</LongitudeDegrees>
            </Position>
            <AltitudeMeters>277.600006103515625</AltitudeMeters>
            <DistanceMeters>NAN</DistanceMeters>
          </Trackpoint>
          <Trackpoint>
            <Time>2021-08-13T10:52:04.000Z</Time>
            <Position>
              <LatitudeDegrees>43.1490680761635303497314453125</LatitudeDegrees>
              <LongitudeDegrees>-1.9627424888312816619873046875</LongitudeDegrees>
            </Position>
            <AltitudeMeters>277.79998779296875</AltitudeMeters>
            <DistanceMeters>NAN</DistanceMeters>
          </Trackpoint>
          <Trackpoint>
            <Time>2021-08-13T10:52:05.000Z</Time>
            <Position>
              <LatitudeDegrees>43.1490519829094409942626953125</LatitudeDegrees>
              <LongitudeDegrees>-1.9627039320766925811767578125</LongitudeDegrees>
            </Position>
            <AltitudeMeters>277.79998779296875</AltitudeMeters>
            <DistanceMeters>NAN</DistanceMeters>
          </Trackpoint>
          <Trackpoint>
            <Time>2021-08-13T10:52:07.000Z</Time>
            <Position>
              <LatitudeDegrees>43.149023316800594329833984375</LatitudeDegrees>
              <LongitudeDegrees>-1.9626154191792011260986328125</LongitudeDegrees>
            </Position>
            <AltitudeMeters>278</AltitudeMeters>
            <DistanceMeters>NAN</DistanceMeters>
          </Trackpoint>
          <Trackpoint>
            <Time>2021-08-13T10:52:08.000Z</Time>
            <Position>
              <LatitudeDegrees>43.1490035355091094970703125</LatitudeDegrees>
              <LongitudeDegrees>-1.962580382823944091796875</LongitudeDegrees>
            </Position>
            <AltitudeMeters>278.20001220703125</AltitudeMeters>
            <DistanceMeters>NAN</DistanceMeters>
          </Trackpoint>
          <Trackpoint>
            <Time>2021-08-13T10:52:09.000Z</Time>
            <Position>
              <LatitudeDegrees>43.14898249693214893341064453125</LatitudeDegrees>
              <LongitudeDegrees>-1.9625495374202728271484375</LongitudeDegrees>
            </Position>
            <AltitudeMeters>278.20001220703125</AltitudeMeters>
            <DistanceMeters>NAN</DistanceMeters>
          </Trackpoint>
          <Trackpoint>
            <Time>2021-08-13T10:52:10.000Z</Time>
            <Position>
              <LatitudeDegrees>43.14895634539425373077392578125</LatitudeDegrees>
              <LongitudeDegrees>-1.96251257322728633880615234375</LongitudeDegrees>
            </Position>
            <AltitudeMeters>278.20001220703125</AltitudeMeters>
            <DistanceMeters>NAN</DistanceMeters>
          </Trackpoint>
          <Trackpoint>
            <Time>2021-08-13T10:52:11.000Z</Time>
            <Position>
              <LatitudeDegrees>43.14892382360994815826416015625</LatitudeDegrees>
              <LongitudeDegrees>-1.96246848441660404205322265625</LongitudeDegrees>
            </Position>
            <AltitudeMeters>278.399993896484375</AltitudeMeters>
            <DistanceMeters>NAN</DistanceMeters>
          </Trackpoint>
          <Trackpoint>
            <Time>2021-08-13T10:52:12.000Z</Time>
            <Position>
              <LatitudeDegrees>43.1489031203091144561767578125</LatitudeDegrees>
              <LongitudeDegrees>-1.9624316878616809844970703125</LongitudeDegrees>
            </Position>
            <AltitudeMeters>278.399993896484375</AltitudeMeters>
            <DistanceMeters>NAN</DistanceMeters>
          </Trackpoint>
          <Trackpoint>
            <Time>2021-08-13T10:52:13.000Z</Time>
            <Position>
              <LatitudeDegrees>43.14888493157923221588134765625</LatitudeDegrees>
              <LongitudeDegrees>-1.9624021835625171661376953125</LongitudeDegrees>
            </Position>
            <AltitudeMeters>278.399993896484375</AltitudeMeters>
            <DistanceMeters>NAN</DistanceMeters>
          </Trackpoint>
          <Trackpoint>
            <Time>2021-08-13T10:52:14.000Z</Time>
            <Position>
              <LatitudeDegrees>43.14887973479926586151123046875</LatitudeDegrees>
              <LongitudeDegrees>-1.96235801093280315399169921875</LongitudeDegrees>
            </Position>
            <AltitudeMeters>278.399993896484375</AltitudeMeters>
            <DistanceMeters>NAN</DistanceMeters>
          </Trackpoint>
          <Trackpoint>
            <Time>2021-08-13T10:52:15.000Z</Time>
            <Position>
              <LatitudeDegrees>43.14886330626904964447021484375</LatitudeDegrees>
              <LongitudeDegrees>-1.96231459267437458038330078125</LongitudeDegrees>
            </Position>
            <AltitudeMeters>278.399993896484375</AltitudeMeters>
            <DistanceMeters>NAN</DistanceMeters>
          </Trackpoint>
          <Trackpoint>
            <Time>2021-08-13T10:52:18.000Z</Time>
            <Position>
              <LatitudeDegrees>43.14880060963332653045654296875</LatitudeDegrees>
              <LongitudeDegrees>-1.9622275047004222869873046875</LongitudeDegrees>
            </Position>
            <AltitudeMeters>278.79998779296875</AltitudeMeters>
            <DistanceMeters>NAN</DistanceMeters>
          </Trackpoint>
          <Trackpoint>
            <Time>2021-08-13T10:52:19.000Z</Time>
            <Position>
              <LatitudeDegrees>43.1487884558737277984619140625</LatitudeDegrees>
              <LongitudeDegrees>-1.9622167758643627166748046875</LongitudeDegrees>
            </Position>
            <AltitudeMeters>278.79998779296875</AltitudeMeters>
            <DistanceMeters>NAN</DistanceMeters>
          </Trackpoint>
          <Trackpoint>
            <Time>2021-08-13T10:52:20.000Z</Time>
            <Position>
              <LatitudeDegrees>43.14877093769609928131103515625</LatitudeDegrees>
              <LongitudeDegrees>-1.96222322992980480194091796875</LongitudeDegrees>
            </Position>
            <AltitudeMeters>279</AltitudeMeters>
            <DistanceMeters>NAN</DistanceMeters>
          </Trackpoint>
          <Trackpoint>
            <Time>2021-08-13T10:52:21.000Z</Time>
            <Position>
              <LatitudeDegrees>43.14875517971813678741455078125</LatitudeDegrees>
              <LongitudeDegrees>-1.96223949082195758819580078125</LongitudeDegrees>
            </Position>
            <AltitudeMeters>279.20001220703125</AltitudeMeters>
            <DistanceMeters>NAN</DistanceMeters>
          </Trackpoint>
          <Trackpoint>
            <Time>2021-08-13T10:52:22.000Z</Time>
            <Position>
              <LatitudeDegrees>43.14875249750912189483642578125</LatitudeDegrees>
              <LongitudeDegrees>-1.9622771255671977996826171875</LongitudeDegrees>
            </Position>
            <AltitudeMeters>279.20001220703125</AltitudeMeters>
            <DistanceMeters>NAN</DistanceMeters>
          </Trackpoint>
          <Trackpoint>
            <Time>2021-08-13T10:52:41.000Z</Time>
            <Position>
              <LatitudeDegrees>43.14866934902966022491455078125</LatitudeDegrees>
              <LongitudeDegrees>-1.96116995997726917266845703125</LongitudeDegrees>
            </Position>
            <AltitudeMeters>280.79998779296875</AltitudeMeters>
            <DistanceMeters>NAN</DistanceMeters>
          </Trackpoint>
          <Trackpoint>
            <Time>2021-08-13T10:52:42.000Z</Time>
            <Position>
              <LatitudeDegrees>43.148662559688091278076171875</LatitudeDegrees>
              <LongitudeDegrees>-1.961144395172595977783203125</LongitudeDegrees>
            </Position>
            <AltitudeMeters>281</AltitudeMeters>
            <DistanceMeters>NAN</DistanceMeters>
          </Trackpoint>
          <Trackpoint>
            <Time>2021-08-13T10:52:43.000Z</Time>
            <Position>
              <LatitudeDegrees>43.148673288524150848388671875</LatitudeDegrees>
              <LongitudeDegrees>-1.96113157086074352264404296875</LongitudeDegrees>
            </Position>
            <AltitudeMeters>281</AltitudeMeters>
            <DistanceMeters>NAN</DistanceMeters>
          </Trackpoint>
          <Trackpoint>
            <Time>2021-08-13T10:52:44.000Z</Time>
            <Position>
              <LatitudeDegrees>43.14868929795920848846435546875</LatitudeDegrees>
              <LongitudeDegrees>-1.96109217591583728790283203125</LongitudeDegrees>
            </Position>
            <AltitudeMeters>281.20001220703125</AltitudeMeters>
            <DistanceMeters>NAN</DistanceMeters>
          </Trackpoint>
          <Trackpoint>
            <Time>2021-08-13T10:52:45.000Z</Time>
            <Position>
              <LatitudeDegrees>43.1486918963491916656494140625</LatitudeDegrees>
              <LongitudeDegrees>-1.96104942820966243743896484375</LongitudeDegrees>
            </Position>
            <AltitudeMeters>281.20001220703125</AltitudeMeters>
            <DistanceMeters>NAN</DistanceMeters>
          </Trackpoint>
          <Trackpoint>
            <Time>2021-08-13T10:52:46.000Z</Time>
            <Position>
              <LatitudeDegrees>43.1487046368420124053955078125</LatitudeDegrees>
              <LongitudeDegrees>-1.96102813817560672760009765625</LongitudeDegrees>
            </Position>
            <AltitudeMeters>281.20001220703125</AltitudeMeters>
            <DistanceMeters>NAN</DistanceMeters>
          </Trackpoint>
          <Trackpoint>
            <Time>2021-08-13T10:52:47.000Z</Time>
            <Position>
              <LatitudeDegrees>43.14870656467974185943603515625</LatitudeDegrees>
              <LongitudeDegrees>-1.960978098213672637939453125</LongitudeDegrees>
            </Position>
            <AltitudeMeters>281.20001220703125</AltitudeMeters>
            <DistanceMeters>NAN</DistanceMeters>
          </Trackpoint>
          <Trackpoint>
            <Time>2021-08-13T10:52:48.000Z</Time>
            <Position>
              <LatitudeDegrees>43.14870120026171207427978515625</LatitudeDegrees>
              <LongitudeDegrees>-1.96093526668846607208251953125</LongitudeDegrees>
            </Position>
            <AltitudeMeters>281.20001220703125</AltitudeMeters>
            <DistanceMeters>NAN</DistanceMeters>
          </Trackpoint>
          <Trackpoint>
            <Time>2021-08-13T10:52:49.000Z</Time>
            <Position>
              <LatitudeDegrees>43.1487163715064525604248046875</LatitudeDegrees>
              <LongitudeDegrees>-1.960907019674777984619140625</LongitudeDegrees>
            </Position>
            <AltitudeMeters>281.20001220703125</AltitudeMeters>
            <DistanceMeters>NAN</DistanceMeters>
          </Trackpoint>
          <Trackpoint>
            <Time>2021-08-13T10:52:50.000Z</Time>
            <Position>
              <LatitudeDegrees>43.14872768707573413848876953125</LatitudeDegrees>
              <LongitudeDegrees>-1.9608739949762821197509765625</LongitudeDegrees>
            </Position>
            <AltitudeMeters>281.20001220703125</AltitudeMeters>
            <DistanceMeters>NAN</DistanceMeters>
          </Trackpoint>
          <Trackpoint>
            <Time>2021-08-13T10:52:51.000Z</Time>
            <Position>
              <LatitudeDegrees>43.14874948002398014068603515625</LatitudeDegrees>
              <LongitudeDegrees>-1.96083602495491504669189453125</LongitudeDegrees>
            </Position>
            <AltitudeMeters>281.20001220703125</AltitudeMeters>
            <DistanceMeters>NAN</DistanceMeters>
          </Trackpoint>
          <Trackpoint>
            <Time>2021-08-13T10:52:52.000Z</Time>
            <Position>
              <LatitudeDegrees>43.1487659923732280731201171875</LatitudeDegrees>
              <LongitudeDegrees>-1.96080031804740428924560546875</LongitudeDegrees>
            </Position>
            <AltitudeMeters>281.20001220703125</AltitudeMeters>
            <DistanceMeters>NAN</DistanceMeters>
          </Trackpoint>
          <Trackpoint>
            <Time>2021-08-13T10:52:53.000Z</Time>
            <Position>
              <LatitudeDegrees>43.1487807445228099822998046875</LatitudeDegrees>
              <LongitudeDegrees>-1.96076042018830776214599609375</LongitudeDegrees>
            </Position>
            <AltitudeMeters>281.20001220703125</AltitudeMeters>
            <DistanceMeters>NAN</DistanceMeters>
          </Trackpoint>
          <Trackpoint>
            <Time>2021-08-13T10:52:54.000Z</Time>
            <Position>
              <LatitudeDegrees>43.14880111254751682281494140625</LatitudeDegrees>
              <LongitudeDegrees>-1.960716582834720611572265625</LongitudeDegrees>
            </Position>
            <AltitudeMeters>281.20001220703125</AltitudeMeters>
            <DistanceMeters>NAN</DistanceMeters>
          </Trackpoint>
          <Trackpoint>
            <Time>2021-08-13T10:52:55.000Z</Time>
            <Position>
              <LatitudeDegrees>43.1488176248967647552490234375</LatitudeDegrees>
              <LongitudeDegrees>-1.96068112738430500030517578125</LongitudeDegrees>
            </Position>
            <AltitudeMeters>281.20001220703125</AltitudeMeters>
            <DistanceMeters>NAN</DistanceMeters>
          </Trackpoint>
          <Trackpoint>
            <Time>2021-08-13T10:52:56.000Z</Time>
            <Position>
              <LatitudeDegrees>43.14883095212280750274658203125</LatitudeDegrees>
              <LongitudeDegrees>-1.96064273826777935028076171875</LongitudeDegrees>
            </Position>
            <AltitudeMeters>281.399993896484375</AltitudeMeters>
            <DistanceMeters>NAN</DistanceMeters>
          </Trackpoint>
          <Trackpoint>
            <Time>2021-08-13T10:52:57.000Z</Time>
            <Position>
              <LatitudeDegrees>43.14884419552981853485107421875</LatitudeDegrees>
              <LongitudeDegrees>-1.96061038412153720855712890625</LongitudeDegrees>
            </Position>
            <AltitudeMeters>281.399993896484375</AltitudeMeters>
            <DistanceMeters>NAN</DistanceMeters>
          </Trackpoint>
          <Trackpoint>
            <Time>2021-08-13T10:52:58.000Z</Time>
            <Position>
              <LatitudeDegrees>43.148861713707447052001953125</LatitudeDegrees>
              <LongitudeDegrees>-1.9605688937008380889892578125</LongitudeDegrees>
            </Position>
            <AltitudeMeters>281.600006103515625</AltitudeMeters>
            <DistanceMeters>NAN</DistanceMeters>
          </Trackpoint>
          <Trackpoint>
            <Time>2021-08-13T10:52:59.000Z</Time>
            <Position>
              <LatitudeDegrees>43.14887437038123607635498046875</LatitudeDegrees>
              <LongitudeDegrees>-1.96053394116461277008056640625</LongitudeDegrees>
            </Position>
            <AltitudeMeters>281.600006103515625</AltitudeMeters>
            <DistanceMeters>NAN</DistanceMeters>
          </Trackpoint>
          <Trackpoint>
            <Time>2021-08-13T10:53:00.000Z</Time>
            <Position>
              <LatitudeDegrees>43.1488913856446743011474609375</LatitudeDegrees>
              <LongitudeDegrees>-1.96050259284675121307373046875</LongitudeDegrees>
            </Position>
            <AltitudeMeters>281.79998779296875</AltitudeMeters>
            <DistanceMeters>NAN</DistanceMeters>
          </Trackpoint>
          <Trackpoint>
            <Time>2021-08-13T10:53:01.000Z</Time>
            <Position>
              <LatitudeDegrees>43.148903287947177886962890625</LatitudeDegrees>
              <LongitudeDegrees>-1.960461437702178955078125</LongitudeDegrees>
            </Position>
            <AltitudeMeters>281.79998779296875</AltitudeMeters>
            <DistanceMeters>NAN</DistanceMeters>
          </Trackpoint>
          <Trackpoint>
            <Time>2021-08-13T10:53:02.000Z</Time>
            <Position>
              <LatitudeDegrees>43.14891762100160121917724609375</LatitudeDegrees>
              <LongitudeDegrees>-1.9604193605482578277587890625</LongitudeDegrees>
            </Position>
            <AltitudeMeters>281.79998779296875</AltitudeMeters>
            <DistanceMeters>NAN</DistanceMeters>
          </Trackpoint>
          <Trackpoint>
            <Time>2021-08-13T10:53:03.000Z</Time>
            <Position>
              <LatitudeDegrees>43.14893807284533977508544921875</LatitudeDegrees>
              <LongitudeDegrees>-1.96038759313523769378662109375</LongitudeDegrees>
            </Position>
            <AltitudeMeters>281.79998779296875</AltitudeMeters>
            <DistanceMeters>NAN</DistanceMeters>
          </Trackpoint>
          <Trackpoint>
            <Time>2021-08-13T10:53:04.000Z</Time>
            <Position>
              <LatitudeDegrees>43.14896388910710811614990234375</LatitudeDegrees>
              <LongitudeDegrees>-1.96034367196261882781982421875</LongitudeDegrees>
            </Position>
            <AltitudeMeters>281.79998779296875</AltitudeMeters>
            <DistanceMeters>NAN</DistanceMeters>
          </Trackpoint>
          <Trackpoint>
            <Time>2021-08-13T10:53:05.000Z</Time>
            <Position>
              <LatitudeDegrees>43.14897931180894374847412109375</LatitudeDegrees>
              <LongitudeDegrees>-1.96029991842806339263916015625</LongitudeDegrees>
            </Position>
            <AltitudeMeters>281.79998779296875</AltitudeMeters>
            <DistanceMeters>NAN</DistanceMeters>
          </Trackpoint>
          <Trackpoint>
            <Time>2021-08-13T10:53:06.000Z</Time>
            <Position>
              <LatitudeDegrees>43.14899506978690624237060546875</LatitudeDegrees>
              <LongitudeDegrees>-1.9602668099105358123779296875</LongitudeDegrees>
            </Position>
            <AltitudeMeters>281.79998779296875</AltitudeMeters>
            <DistanceMeters>NAN</DistanceMeters>
          </Trackpoint>
          <Trackpoint>
            <Time>2021-08-13T10:53:09.000Z</Time>
            <Position>
              <LatitudeDegrees>43.14905650913715362548828125</LatitudeDegrees>
              <LongitudeDegrees>-1.9601330347359180450439453125</LongitudeDegrees>
            </Position>
            <AltitudeMeters>282.20001220703125</AltitudeMeters>
            <DistanceMeters>NAN</DistanceMeters>
          </Trackpoint>
          <Trackpoint>
            <Time>2021-08-13T10:53:14.000Z</Time>
            <Position>
              <LatitudeDegrees>43.14917159266769886016845703125</LatitudeDegrees>
              <LongitudeDegrees>-1.9599305279552936553955078125</LongitudeDegrees>
            </Position>
            <AltitudeMeters>282.79998779296875</AltitudeMeters>
            <DistanceMeters>NAN</DistanceMeters>
          </Trackpoint>
          <Trackpoint>
            <Time>2021-08-13T10:53:17.000Z</Time>
            <Position>
              <LatitudeDegrees>43.149221800267696380615234375</LatitudeDegrees>
              <LongitudeDegrees>-1.95979314856231212615966796875</LongitudeDegrees>
            </Position>
            <AltitudeMeters>283.20001220703125</AltitudeMeters>
            <DistanceMeters>NAN</DistanceMeters>
          </Trackpoint>
          <Trackpoint>
            <Time>2021-08-13T10:53:20.000Z</Time>
            <Position>
              <LatitudeDegrees>43.149283826351165771484375</LatitudeDegrees>
              <LongitudeDegrees>-1.95964344777166843414306640625</LongitudeDegrees>
            </Position>
            <AltitudeMeters>283.399993896484375</AltitudeMeters>
            <DistanceMeters>NAN</DistanceMeters>
          </Trackpoint>
          <Trackpoint>
            <Time>2021-08-13T10:53:21.000Z</Time>
            <Position>
              <LatitudeDegrees>43.14929899759590625762939453125</LatitudeDegrees>
              <LongitudeDegrees>-1.9596036337316036224365234375</LongitudeDegrees>
            </Position>
            <AltitudeMeters>283.600006103515625</AltitudeMeters>
            <DistanceMeters>NAN</DistanceMeters>
          </Trackpoint>
          <Trackpoint>
            <Time>2021-08-13T10:53:23.000Z</Time>
            <Position>
              <LatitudeDegrees>43.14931106753647327423095703125</LatitudeDegrees>
              <LongitudeDegrees>-1.95949709974229335784912109375</LongitudeDegrees>
            </Position>
            <AltitudeMeters>283.600006103515625</AltitudeMeters>
            <DistanceMeters>NAN</DistanceMeters>
          </Trackpoint>
          <Trackpoint>
            <Time>2021-08-13T10:53:24.000Z</Time>
            <Position>
              <LatitudeDegrees>43.14931509084999561309814453125</LatitudeDegrees>
              <LongitudeDegrees>-1.95946021936833858489990234375</LongitudeDegrees>
            </Position>
            <AltitudeMeters>283.600006103515625</AltitudeMeters>
            <DistanceMeters>NAN</DistanceMeters>
          </Trackpoint>
          <Trackpoint>
            <Time>2021-08-13T10:53:25.000Z</Time>
            <Position>
              <LatitudeDegrees>43.14932079054415225982666015625</LatitudeDegrees>
              <LongitudeDegrees>-1.95941763930022716522216796875</LongitudeDegrees>
            </Position>
            <AltitudeMeters>283.600006103515625</AltitudeMeters>
            <DistanceMeters>NAN</DistanceMeters>
          </Trackpoint>
          <Trackpoint>
            <Time>2021-08-13T10:53:26.000Z</Time>
            <Position>
              <LatitudeDegrees>43.14933068118989467620849609375</LatitudeDegrees>
              <LongitudeDegrees>-1.9593823514878749847412109375</LongitudeDegrees>
            </Position>
            <AltitudeMeters>283.600006103515625</AltitudeMeters>
            <DistanceMeters>NAN</DistanceMeters>
          </Trackpoint>
          <Trackpoint>
            <Time>2021-08-13T10:53:27.000Z</Time>
            <Position>
              <LatitudeDegrees>43.14933537505567073822021484375</LatitudeDegrees>
              <LongitudeDegrees>-1.9593541882932186126708984375</LongitudeDegrees>
            </Position>
            <AltitudeMeters>283.600006103515625</AltitudeMeters>
            <DistanceMeters>NAN</DistanceMeters>
          </Trackpoint>
          <Trackpoint>
            <Time>2021-08-13T10:53:28.000Z</Time>
            <Position>
              <LatitudeDegrees>43.1493369676172733306884765625</LatitudeDegrees>
              <LongitudeDegrees>-1.95932292379438877105712890625</LongitudeDegrees>
            </Position>
            <AltitudeMeters>283.79998779296875</AltitudeMeters>
            <DistanceMeters>NAN</DistanceMeters>
          </Trackpoint>
          <Trackpoint>
            <Time>2021-08-13T10:53:29.000Z</Time>
            <Position>
              <LatitudeDegrees>43.149347864091396331787109375</LatitudeDegrees>
              <LongitudeDegrees>-1.95929828099906444549560546875</LongitudeDegrees>
            </Position>
            <AltitudeMeters>283.79998779296875</AltitudeMeters>
            <DistanceMeters>NAN</DistanceMeters>
          </Trackpoint>
          <Trackpoint>
            <Time>2021-08-13T10:53:30.000Z</Time>
            <Position>
              <LatitudeDegrees>43.14935431815683841705322265625</LatitudeDegrees>
              <LongitudeDegrees>-1.959260813891887664794921875</LongitudeDegrees>
            </Position>
            <AltitudeMeters>284</AltitudeMeters>
            <DistanceMeters>NAN</DistanceMeters>
          </Trackpoint>
          <Trackpoint>
            <Time>2021-08-13T10:53:32.000Z</Time>
            <Position>
              <LatitudeDegrees>43.1493500433862209320068359375</LatitudeDegrees>
              <LongitudeDegrees>-1.95917188189923763275146484375</LongitudeDegrees>
            </Position>
            <AltitudeMeters>284</AltitudeMeters>
            <DistanceMeters>NAN</DistanceMeters>
          </Trackpoint>
          <Trackpoint>
            <Time>2021-08-13T10:53:37.000Z</Time>
            <Position>
              <LatitudeDegrees>43.14940385520458221435546875</LatitudeDegrees>
              <LongitudeDegrees>-1.958909444510936737060546875</LongitudeDegrees>
            </Position>
            <AltitudeMeters>284.399993896484375</AltitudeMeters>
            <DistanceMeters>NAN</DistanceMeters>
          </Trackpoint>
          <Trackpoint>
            <Time>2021-08-13T10:53:38.000Z</Time>
            <Position>
              <LatitudeDegrees>43.1494380533695220947265625</LatitudeDegrees>
              <LongitudeDegrees>-1.9588428921997547149658203125</LongitudeDegrees>
            </Position>
            <AltitudeMeters>284.399993896484375</AltitudeMeters>
            <DistanceMeters>NAN</DistanceMeters>
          </Trackpoint>
          <Trackpoint>
            <Time>2021-08-13T10:53:39.000Z</Time>
            <Position>
              <LatitudeDegrees>43.14945758320391178131103515625</LatitudeDegrees>
              <LongitudeDegrees>-1.95880316197872161865234375</LongitudeDegrees>
            </Position>
            <AltitudeMeters>284.399993896484375</AltitudeMeters>
            <DistanceMeters>NAN</DistanceMeters>
          </Trackpoint>
          <Trackpoint>
            <Time>2021-08-13T10:53:40.000Z</Time>
            <Position>
              <LatitudeDegrees>43.1494751013815402984619140625</LatitudeDegrees>
              <LongitudeDegrees>-1.95875345729291439056396484375</LongitudeDegrees>
            </Position>
            <AltitudeMeters>284.399993896484375</AltitudeMeters>
            <DistanceMeters>NAN</DistanceMeters>
          </Trackpoint>
          <Trackpoint>
            <Time>2021-08-13T10:53:44.000Z</Time>
            <Position>
              <LatitudeDegrees>43.14952949993312358856201171875</LatitudeDegrees>
              <LongitudeDegrees>-1.95857307873666286468505859375</LongitudeDegrees>
            </Position>
            <AltitudeMeters>284.600006103515625</AltitudeMeters>
            <DistanceMeters>NAN</DistanceMeters>
          </Trackpoint>
          <Trackpoint>
            <Time>2021-08-13T10:53:48.000Z</Time>
            <Position>
              <LatitudeDegrees>43.1495936214923858642578125</LatitudeDegrees>
              <LongitudeDegrees>-1.95838599465787410736083984375</LongitudeDegrees>
            </Position>
            <AltitudeMeters>284.79998779296875</AltitudeMeters>
            <DistanceMeters>NAN</DistanceMeters>
          </Trackpoint>
          <Trackpoint>
            <Time>2021-08-13T10:53:49.000Z</Time>
            <Position>
              <LatitudeDegrees>43.14960627816617488861083984375</LatitudeDegrees>
              <LongitudeDegrees>-1.95835330523550510406494140625</LongitudeDegrees>
            </Position>
            <AltitudeMeters>285</AltitudeMeters>
            <DistanceMeters>NAN</DistanceMeters>
          </Trackpoint>
          <Trackpoint>
            <Time>2021-08-13T10:53:51.000Z</Time>
            <Position>
              <LatitudeDegrees>43.14963762648403644561767578125</LatitudeDegrees>
              <LongitudeDegrees>-1.95825423114001750946044921875</LongitudeDegrees>
            </Position>
            <AltitudeMeters>285.399993896484375</AltitudeMeters>
            <DistanceMeters>NAN</DistanceMeters>
          </Trackpoint>
          <Trackpoint>
            <Time>2021-08-13T10:53:52.000Z</Time>
            <Position>
              <LatitudeDegrees>43.14964919351041316986083984375</LatitudeDegrees>
              <LongitudeDegrees>-1.95821634493768215179443359375</LongitudeDegrees>
            </Position>
            <AltitudeMeters>285.399993896484375</AltitudeMeters>
            <DistanceMeters>NAN</DistanceMeters>
          </Trackpoint>
          <Trackpoint>
            <Time>2021-08-13T10:54:01.000Z</Time>
            <Position>
              <LatitudeDegrees>43.1497637741267681121826171875</LatitudeDegrees>
              <LongitudeDegrees>-1.95779976435005664825439453125</LongitudeDegrees>
            </Position>
            <AltitudeMeters>286</AltitudeMeters>
            <DistanceMeters>NAN</DistanceMeters>
          </Trackpoint>
          <Trackpoint>
            <Time>2021-08-13T10:54:02.000Z</Time>
            <Position>
              <LatitudeDegrees>43.1497708149254322052001953125</LatitudeDegrees>
              <LongitudeDegrees>-1.95776355452835559844970703125</LongitudeDegrees>
            </Position>
            <AltitudeMeters>285.79998779296875</AltitudeMeters>
            <DistanceMeters>NAN</DistanceMeters>
          </Trackpoint>
          <Trackpoint>
            <Time>2021-08-13T10:54:03.000Z</Time>
            <Position>
              <LatitudeDegrees>43.14977626316249370574951171875</LatitudeDegrees>
              <LongitudeDegrees>-1.95773522369563579559326171875</LongitudeDegrees>
            </Position>
            <AltitudeMeters>286</AltitudeMeters>
            <DistanceMeters>NAN</DistanceMeters>
          </Trackpoint>
          <Trackpoint>
            <Time>2021-08-13T10:54:04.000Z</Time>
            <Position>
              <LatitudeDegrees>43.14978229813277721405029296875</LatitudeDegrees>
              <LongitudeDegrees>-1.9577143527567386627197265625</LongitudeDegrees>
            </Position>
            <AltitudeMeters>286</AltitudeMeters>
            <DistanceMeters>NAN</DistanceMeters>
          </Trackpoint>
          <Trackpoint>
            <Time>2021-08-13T10:54:05.000Z</Time>
            <Position>
              <LatitudeDegrees>43.14978933893144130706787109375</LatitudeDegrees>
              <LongitudeDegrees>-1.9576920568943023681640625</LongitudeDegrees>
            </Position>
            <AltitudeMeters>286</AltitudeMeters>
            <DistanceMeters>NAN</DistanceMeters>
          </Trackpoint>
          <Trackpoint>
            <Time>2021-08-13T10:54:06.000Z</Time>
            <Position>
              <LatitudeDegrees>43.14979537390172481536865234375</LatitudeDegrees>
              <LongitudeDegrees>-1.9576744548976421356201171875</LongitudeDegrees>
            </Position>
            <AltitudeMeters>286.20001220703125</AltitudeMeters>
            <DistanceMeters>NAN</DistanceMeters>
          </Trackpoint>
          <Trackpoint>
            <Time>2021-08-13T10:54:07.000Z</Time>
            <Position>
              <LatitudeDegrees>43.14980677329003810882568359375</LatitudeDegrees>
              <LongitudeDegrees>-1.95765023119747638702392578125</LongitudeDegrees>
            </Position>
            <AltitudeMeters>286.20001220703125</AltitudeMeters>
            <DistanceMeters>NAN</DistanceMeters>
          </Trackpoint>
          <Trackpoint>
            <Time>2021-08-13T10:54:10.000Z</Time>
            <Position>
              <LatitudeDegrees>43.14982370473444461822509765625</LatitudeDegrees>
              <LongitudeDegrees>-1.9575498998165130615234375</LongitudeDegrees>
            </Position>
            <AltitudeMeters>286.600006103515625</AltitudeMeters>
            <DistanceMeters>NAN</DistanceMeters>
          </Trackpoint>
          <Trackpoint>
            <Time>2021-08-13T10:54:11.000Z</Time>
            <Position>
              <LatitudeDegrees>43.14982839860022068023681640625</LatitudeDegrees>
              <LongitudeDegrees>-1.9575219042599201202392578125</LongitudeDegrees>
            </Position>
            <AltitudeMeters>286.600006103515625</AltitudeMeters>
            <DistanceMeters>NAN</DistanceMeters>
          </Trackpoint>
          <Trackpoint>
            <Time>2021-08-13T10:54:12.000Z</Time>
            <Position>
              <LatitudeDegrees>43.14983409829437732696533203125</LatitudeDegrees>
              <LongitudeDegrees>-1.95749424397945404052734375</LongitudeDegrees>
            </Position>
            <AltitudeMeters>286.600006103515625</AltitudeMeters>
            <DistanceMeters>NAN</DistanceMeters>
          </Trackpoint>
          <Trackpoint>
            <Time>2021-08-13T10:54:13.000Z</Time>
            <Position>
              <LatitudeDegrees>43.14983971416950225830078125</LatitudeDegrees>
              <LongitudeDegrees>-1.9574672542512416839599609375</LongitudeDegrees>
            </Position>
            <AltitudeMeters>286.79998779296875</AltitudeMeters>
            <DistanceMeters>NAN</DistanceMeters>
          </Trackpoint>
          <Trackpoint>
            <Time>2021-08-13T10:54:14.000Z</Time>
            <Position>
              <LatitudeDegrees>43.14984214492142200469970703125</LatitudeDegrees>
              <LongitudeDegrees>-1.95744059979915618896484375</LongitudeDegrees>
            </Position>
            <AltitudeMeters>286.79998779296875</AltitudeMeters>
            <DistanceMeters>NAN</DistanceMeters>
          </Trackpoint>
          <Trackpoint>
            <Time>2021-08-13T10:54:15.000Z</Time>
            <Position>
              <LatitudeDegrees>43.149842731654644012451171875</LatitudeDegrees>
              <LongitudeDegrees>-1.95741503499448299407958984375</LongitudeDegrees>
            </Position>
            <AltitudeMeters>287.20001220703125</AltitudeMeters>
            <DistanceMeters>NAN</DistanceMeters>
          </Trackpoint>
          <Trackpoint>
            <Time>2021-08-13T10:54:17.000Z</Time>
            <Position>
              <LatitudeDegrees>43.14984935335814952850341796875</LatitudeDegrees>
              <LongitudeDegrees>-1.9573581218719482421875</LongitudeDegrees>
            </Position>
            <AltitudeMeters>287.20001220703125</AltitudeMeters>
            <DistanceMeters>NAN</DistanceMeters>
          </Trackpoint>
          <Trackpoint>
            <Time>2021-08-13T10:54:18.000Z</Time>
            <Position>
              <LatitudeDegrees>43.14985270611941814422607421875</LatitudeDegrees>
              <LongitudeDegrees>-1.95733255706727504730224609375</LongitudeDegrees>
            </Position>
            <AltitudeMeters>287.20001220703125</AltitudeMeters>
            <DistanceMeters>NAN</DistanceMeters>
          </Trackpoint>
          <Trackpoint>
            <Time>2021-08-13T10:54:19.000Z</Time>
            <Position>
              <LatitudeDegrees>43.149854801595211029052734375</LatitudeDegrees>
              <LongitudeDegrees>-1.95730489678680896759033203125</LongitudeDegrees>
            </Position>
            <AltitudeMeters>287.399993896484375</AltitudeMeters>
            <DistanceMeters>NAN</DistanceMeters>
          </Trackpoint>
          <Trackpoint>
            <Time>2021-08-13T10:54:20.000Z</Time>
            <Position>
              <LatitudeDegrees>43.14985706470906734466552734375</LatitudeDegrees>
              <LongitudeDegrees>-1.95728008635342121124267578125</LongitudeDegrees>
            </Position>
            <AltitudeMeters>287.399993896484375</AltitudeMeters>
            <DistanceMeters>NAN</DistanceMeters>
          </Trackpoint>
          <Trackpoint>
            <Time>2021-08-13T10:54:21.000Z</Time>
            <Position>
              <LatitudeDegrees>43.149858824908733367919921875</LatitudeDegrees>
              <LongitudeDegrees>-1.95725292898714542388916015625</LongitudeDegrees>
            </Position>
            <AltitudeMeters>287.600006103515625</AltitudeMeters>
            <DistanceMeters>NAN</DistanceMeters>
          </Trackpoint>
          <Trackpoint>
            <Time>2021-08-13T10:54:22.000Z</Time>
            <Position>
              <LatitudeDegrees>43.149857819080352783203125</LatitudeDegrees>
              <LongitudeDegrees>-1.95722091011703014373779296875</LongitudeDegrees>
            </Position>
            <AltitudeMeters>287.600006103515625</AltitudeMeters>
            <DistanceMeters>NAN</DistanceMeters>
          </Trackpoint>
          <Trackpoint>
            <Time>2021-08-13T10:54:25.000Z</Time>
            <Position>
              <LatitudeDegrees>43.149863518774509429931640625</LatitudeDegrees>
              <LongitudeDegrees>-1.95711580105125904083251953125</LongitudeDegrees>
            </Position>
            <AltitudeMeters>287.79998779296875</AltitudeMeters>
            <DistanceMeters>NAN</DistanceMeters>
          </Trackpoint>
          <Trackpoint>
            <Time>2021-08-13T10:54:30.000Z</Time>
            <Position>
              <LatitudeDegrees>43.1498717330396175384521484375</LatitudeDegrees>
              <LongitudeDegrees>-1.95696308277547359466552734375</LongitudeDegrees>
            </Position>
            <AltitudeMeters>288</AltitudeMeters>
            <DistanceMeters>NAN</DistanceMeters>
          </Trackpoint>
          <Trackpoint>
            <Time>2021-08-13T10:54:31.000Z</Time>
            <Position>
              <LatitudeDegrees>43.1498752534389495849609375</LatitudeDegrees>
              <LongitudeDegrees>-1.95694170892238616943359375</LongitudeDegrees>
            </Position>
            <AltitudeMeters>288</AltitudeMeters>
            <DistanceMeters>NAN</DistanceMeters>
          </Trackpoint>
          <Trackpoint>
            <Time>2021-08-13T10:54:32.000Z</Time>
            <Position>
              <LatitudeDegrees>43.1498781032860279083251953125</LatitudeDegrees>
              <LongitudeDegrees>-1.95692268200218677520751953125</LongitudeDegrees>
            </Position>
            <AltitudeMeters>288</AltitudeMeters>
            <DistanceMeters>NAN</DistanceMeters>
          </Trackpoint>
          <Trackpoint>
            <Time>2021-08-13T10:54:33.000Z</Time>
            <Position>
              <LatitudeDegrees>43.14988070167601108551025390625</LatitudeDegrees>
              <LongitudeDegrees>-1.95690340362489223480224609375</LongitudeDegrees>
            </Position>
            <AltitudeMeters>288.20001220703125</AltitudeMeters>
            <DistanceMeters>NAN</DistanceMeters>
          </Trackpoint>
          <Trackpoint>
            <Time>2021-08-13T10:54:34.000Z</Time>
            <Position>
              <LatitudeDegrees>43.149882964789867401123046875</LatitudeDegrees>
              <LongitudeDegrees>-1.95687892846763134002685546875</LongitudeDegrees>
            </Position>
            <AltitudeMeters>288.20001220703125</AltitudeMeters>
            <DistanceMeters>NAN</DistanceMeters>
          </Trackpoint>
          <Trackpoint>
            <Time>2021-08-13T10:54:35.000Z</Time>
            <Position>
              <LatitudeDegrees>43.14987986348569393157958984375</LatitudeDegrees>
              <LongitudeDegrees>-1.9568526931107044219970703125</LongitudeDegrees>
            </Position>
            <AltitudeMeters>288.20001220703125</AltitudeMeters>
            <DistanceMeters>NAN</DistanceMeters>
          </Trackpoint>
          <Trackpoint>
            <Time>2021-08-13T10:54:36.000Z</Time>
            <Position>
              <LatitudeDegrees>43.14987349323928356170654296875</LatitudeDegrees>
              <LongitudeDegrees>-1.95683819241821765899658203125</LongitudeDegrees>
            </Position>
            <AltitudeMeters>288.399993896484375</AltitudeMeters>
            <DistanceMeters>NAN</DistanceMeters>
          </Trackpoint>
          <Trackpoint>
            <Time>2021-08-13T10:54:37.000Z</Time>
            <Position>
              <LatitudeDegrees>43.14987114630639553070068359375</LatitudeDegrees>
              <LongitudeDegrees>-1.95683383382856845855712890625</LongitudeDegrees>
            </Position>
            <AltitudeMeters>288.399993896484375</AltitudeMeters>
            <DistanceMeters>NAN</DistanceMeters>
          </Trackpoint>
          <Trackpoint>
            <Time>2021-08-13T10:54:38.000Z</Time>
            <Position>
              <LatitudeDegrees>43.1498703919351100921630859375</LatitudeDegrees>
              <LongitudeDegrees>-1.9568369351327419281005859375</LongitudeDegrees>
            </Position>
            <AltitudeMeters>288.600006103515625</AltitudeMeters>
            <DistanceMeters>NAN</DistanceMeters>
          </Trackpoint>
          <Trackpoint>
            <Time>2021-08-13T10:54:39.000Z</Time>
            <Position>
              <LatitudeDegrees>43.14986946992576122283935546875</LatitudeDegrees>
              <LongitudeDegrees>-1.95683936588466167449951171875</LongitudeDegrees>
            </Position>
            <AltitudeMeters>288.600006103515625</AltitudeMeters>
            <DistanceMeters>NAN</DistanceMeters>
          </Trackpoint>
          <Trackpoint>
            <Time>2021-08-13T10:54:40.000Z</Time>
            <Position>
              <LatitudeDegrees>43.14986879937350749969482421875</LatitudeDegrees>
              <LongitudeDegrees>-1.95684120990335941314697265625</LongitudeDegrees>
            </Position>
            <AltitudeMeters>288.79998779296875</AltitudeMeters>
            <DistanceMeters>NAN</DistanceMeters>
          </Trackpoint>
          <Trackpoint>
            <Time>2021-08-13T10:54:58.000Z</Time>
            <Position>
              <LatitudeDegrees>43.14949245192110538482666015625</LatitudeDegrees>
              <LongitudeDegrees>-1.955977119505405426025390625</LongitudeDegrees>
            </Position>
            <AltitudeMeters>290.600006103515625</AltitudeMeters>
            <DistanceMeters>NAN</DistanceMeters>
          </Trackpoint>
          <Trackpoint>
            <Time>2021-08-13T10:55:00.000Z</Time>
            <Position>
              <LatitudeDegrees>43.1494479440152645111083984375</LatitudeDegrees>
              <LongitudeDegrees>-1.95592490024864673614501953125</LongitudeDegrees>
            </Position>
            <AltitudeMeters>290.79998779296875</AltitudeMeters>
            <DistanceMeters>NAN</DistanceMeters>
          </Trackpoint>
          <Trackpoint>
            <Time>2021-08-13T10:55:01.000Z</Time>
            <Position>
              <LatitudeDegrees>43.149432353675365447998046875</LatitudeDegrees>
              <LongitudeDegrees>-1.95590629242360591888427734375</LongitudeDegrees>
            </Position>
            <AltitudeMeters>290.79998779296875</AltitudeMeters>
            <DistanceMeters>NAN</DistanceMeters>
          </Trackpoint>
          <Trackpoint>
            <Time>2021-08-13T10:55:02.000Z</Time>
            <Position>
              <LatitudeDegrees>43.1494045257568359375</LatitudeDegrees>
              <LongitudeDegrees>-1.95589363574981689453125</LongitudeDegrees>
            </Position>
            <AltitudeMeters>290.79998779296875</AltitudeMeters>
            <DistanceMeters>NAN</DistanceMeters>
          </Trackpoint>
          <Trackpoint>
            <Time>2021-08-13T10:55:03.000Z</Time>
            <Position>
              <LatitudeDegrees>43.149368651211261749267578125</LatitudeDegrees>
              <LongitudeDegrees>-1.95588047616183757781982421875</LongitudeDegrees>
            </Position>
            <AltitudeMeters>291</AltitudeMeters>
            <DistanceMeters>NAN</DistanceMeters>
          </Trackpoint>
          <Trackpoint>
            <Time>2021-08-13T10:55:04.000Z</Time>
            <Position>
              <LatitudeDegrees>43.14934191294014453887939453125</LatitudeDegrees>
              <LongitudeDegrees>-1.9558609463274478912353515625</LongitudeDegrees>
            </Position>
            <AltitudeMeters>291</AltitudeMeters>
            <DistanceMeters>NAN</DistanceMeters>
          </Trackpoint>
          <Trackpoint>
            <Time>2021-08-13T10:55:05.000Z</Time>
            <Position>
              <LatitudeDegrees>43.14931374974548816680908203125</LatitudeDegrees>
              <LongitudeDegrees>-1.95584468543529510498046875</LongitudeDegrees>
            </Position>
            <AltitudeMeters>291</AltitudeMeters>
            <DistanceMeters>NAN</DistanceMeters>
          </Trackpoint>
          <Trackpoint>
            <Time>2021-08-13T10:55:06.000Z</Time>
            <Position>
              <LatitudeDegrees>43.14928357489407062530517578125</LatitudeDegrees>
              <LongitudeDegrees>-1.9558279216289520263671875</LongitudeDegrees>
            </Position>
            <AltitudeMeters>291</AltitudeMeters>
            <DistanceMeters>NAN</DistanceMeters>
          </Trackpoint>
          <Trackpoint>
            <Time>2021-08-13T10:55:07.000Z</Time>
            <Position>
              <LatitudeDegrees>43.1492529809474945068359375</LatitudeDegrees>
              <LongitudeDegrees>-1.95581040345132350921630859375</LongitudeDegrees>
            </Position>
            <AltitudeMeters>291</AltitudeMeters>
            <DistanceMeters>NAN</DistanceMeters>
          </Trackpoint>
          <Trackpoint>
            <Time>2021-08-13T10:55:08.000Z</Time>
            <Position>
              <LatitudeDegrees>43.14922356046736240386962890625</LatitudeDegrees>
              <LongitudeDegrees>-1.95579682476818561553955078125</LongitudeDegrees>
            </Position>
            <AltitudeMeters>291</AltitudeMeters>
            <DistanceMeters>NAN</DistanceMeters>
          </Trackpoint>
          <Trackpoint>
            <Time>2021-08-13T10:55:09.000Z</Time>
            <Position>
              <LatitudeDegrees>43.14919590018689632415771484375</LatitudeDegrees>
              <LongitudeDegrees>-1.9557796418666839599609375</LongitudeDegrees>
            </Position>
            <AltitudeMeters>291</AltitudeMeters>
            <DistanceMeters>NAN</DistanceMeters>
          </Trackpoint>
          <Trackpoint>
            <Time>2021-08-13T10:55:10.000Z</Time>
            <Position>
              <LatitudeDegrees>43.14916773699223995208740234375</LatitudeDegrees>
              <LongitudeDegrees>-1.9557603634893894195556640625</LongitudeDegrees>
            </Position>
            <AltitudeMeters>291</AltitudeMeters>
            <DistanceMeters>NAN</DistanceMeters>
          </Trackpoint>
          <Trackpoint>
            <Time>2021-08-13T10:55:11.000Z</Time>
            <Position>
              <LatitudeDegrees>43.14914443530142307281494140625</LatitudeDegrees>
              <LongitudeDegrees>-1.955751478672027587890625</LongitudeDegrees>
            </Position>
            <AltitudeMeters>291.20001220703125</AltitudeMeters>
            <DistanceMeters>NAN</DistanceMeters>
          </Trackpoint>
          <Trackpoint>
            <Time>2021-08-13T10:55:12.000Z</Time>
            <Position>
              <LatitudeDegrees>43.1491161882877349853515625</LatitudeDegrees>
              <LongitudeDegrees>-1.955740414559841156005859375</LongitudeDegrees>
            </Position>
            <AltitudeMeters>291.20001220703125</AltitudeMeters>
            <DistanceMeters>NAN</DistanceMeters>
          </Trackpoint>
          <Trackpoint>
            <Time>2021-08-13T10:55:13.000Z</Time>
            <Position>
              <LatitudeDegrees>43.149088360369205474853515625</LatitudeDegrees>
              <LongitudeDegrees>-1.9557278417050838470458984375</LongitudeDegrees>
            </Position>
            <AltitudeMeters>291.20001220703125</AltitudeMeters>
            <DistanceMeters>NAN</DistanceMeters>
          </Trackpoint>
          <Trackpoint>
            <Time>2021-08-13T10:55:14.000Z</Time>
            <Position>
              <LatitudeDegrees>43.14906028099358081817626953125</LatitudeDegrees>
              <LongitudeDegrees>-1.9557104073464870452880859375</LongitudeDegrees>
            </Position>
            <AltitudeMeters>291.399993896484375</AltitudeMeters>
            <DistanceMeters>NAN</DistanceMeters>
          </Trackpoint>
          <Trackpoint>
            <Time>2021-08-13T10:55:15.000Z</Time>
            <Position>
              <LatitudeDegrees>43.14903077669441699981689453125</LatitudeDegrees>
              <LongitudeDegrees>-1.9556983374059200286865234375</LongitudeDegrees>
            </Position>
            <AltitudeMeters>291.399993896484375</AltitudeMeters>
            <DistanceMeters>NAN</DistanceMeters>
          </Trackpoint>
          <Trackpoint>
            <Time>2021-08-13T10:55:16.000Z</Time>
            <Position>
              <LatitudeDegrees>43.14900613389909267425537109375</LatitudeDegrees>
              <LongitudeDegrees>-1.95569255389273166656494140625</LongitudeDegrees>
            </Position>
            <AltitudeMeters>291.600006103515625</AltitudeMeters>
            <DistanceMeters>NAN</DistanceMeters>
          </Trackpoint>
          <Trackpoint>
            <Time>2021-08-13T10:55:17.000Z</Time>
            <Position>
              <LatitudeDegrees>43.14898367039859294891357421875</LatitudeDegrees>
              <LongitudeDegrees>-1.95568836294114589691162109375</LongitudeDegrees>
            </Position>
            <AltitudeMeters>291.79998779296875</AltitudeMeters>
            <DistanceMeters>NAN</DistanceMeters>
          </Trackpoint>
          <Trackpoint>
            <Time>2021-08-13T10:55:18.000Z</Time>
            <Position>
              <LatitudeDegrees>43.1489664874970912933349609375</LatitudeDegrees>
              <LongitudeDegrees>-1.95567931048572063446044921875</LongitudeDegrees>
            </Position>
            <AltitudeMeters>291.79998779296875</AltitudeMeters>
            <DistanceMeters>NAN</DistanceMeters>
          </Trackpoint>
          <Trackpoint>
            <Time>2021-08-13T10:55:19.000Z</Time>
            <Position>
              <LatitudeDegrees>43.14896288327872753143310546875</LatitudeDegrees>
              <LongitudeDegrees>-1.955664642155170440673828125</LongitudeDegrees>
            </Position>
            <AltitudeMeters>291.79998779296875</AltitudeMeters>
            <DistanceMeters>NAN</DistanceMeters>
          </Trackpoint>
          <Trackpoint>
            <Time>2021-08-13T10:55:20.000Z</Time>
            <Position>
              <LatitudeDegrees>43.1489912979304790496826171875</LatitudeDegrees>
              <LongitudeDegrees>-1.95565751753747463226318359375</LongitudeDegrees>
            </Position>
            <AltitudeMeters>292.20001220703125</AltitudeMeters>
            <DistanceMeters>NAN</DistanceMeters>
          </Trackpoint>
          <Trackpoint>
            <Time>2021-08-13T10:55:21.000Z</Time>
            <Position>
              <LatitudeDegrees>43.14899750053882598876953125</LatitudeDegrees>
              <LongitudeDegrees>-1.95565424859523773193359375</LongitudeDegrees>
            </Position>
            <AltitudeMeters>292.20001220703125</AltitudeMeters>
            <DistanceMeters>NAN</DistanceMeters>
          </Trackpoint>
          <Trackpoint>
            <Time>2021-08-13T10:55:22.000Z</Time>
            <Position>
              <LatitudeDegrees>43.1490008533000946044921875</LatitudeDegrees>
              <LongitudeDegrees>-1.95565693080425262451171875</LongitudeDegrees>
            </Position>
            <AltitudeMeters>292.399993896484375</AltitudeMeters>
            <DistanceMeters>NAN</DistanceMeters>
          </Trackpoint>
          <Trackpoint>
            <Time>2021-08-13T10:55:23.000Z</Time>
            <Position>
              <LatitudeDegrees>43.1490094028413295745849609375</LatitudeDegrees>
              <LongitudeDegrees>-1.95566472597420215606689453125</LongitudeDegrees>
            </Position>
            <AltitudeMeters>292.399993896484375</AltitudeMeters>
            <DistanceMeters>NAN</DistanceMeters>
          </Trackpoint>
          <Trackpoint>
            <Time>2021-08-13T10:56:01.000Z</Time>
            <Position>
              <LatitudeDegrees>43.14819443039596080780029296875</LatitudeDegrees>
              <LongitudeDegrees>-1.95434675551950931549072265625</LongitudeDegrees>
            </Position>
            <AltitudeMeters>294.79998779296875</AltitudeMeters>
            <DistanceMeters>NAN</DistanceMeters>
          </Trackpoint>
          <Trackpoint>
            <Time>2021-08-13T10:56:02.000Z</Time>
            <Position>
              <LatitudeDegrees>43.148246817290782928466796875</LatitudeDegrees>
              <LongitudeDegrees>-1.9543763436377048492431640625</LongitudeDegrees>
            </Position>
            <AltitudeMeters>294.79998779296875</AltitudeMeters>
            <DistanceMeters>NAN</DistanceMeters>
          </Trackpoint>
          <Trackpoint>
            <Time>2021-08-13T10:56:03.000Z</Time>
            <Position>
              <LatitudeDegrees>43.148219324648380279541015625</LatitudeDegrees>
              <LongitudeDegrees>-1.95431238971650600433349609375</LongitudeDegrees>
            </Position>
            <AltitudeMeters>294.79998779296875</AltitudeMeters>
            <DistanceMeters>NAN</DistanceMeters>
          </Trackpoint>
          <Trackpoint>
            <Time>2021-08-13T10:56:04.000Z</Time>
            <Position>
              <LatitudeDegrees>43.1482375971972942352294921875</LatitudeDegrees>
              <LongitudeDegrees>-1.95424667559564113616943359375</LongitudeDegrees>
            </Position>
            <AltitudeMeters>294.79998779296875</AltitudeMeters>
            <DistanceMeters>NAN</DistanceMeters>
          </Trackpoint>
          <Trackpoint>
            <Time>2021-08-13T10:56:05.000Z</Time>
            <Position>
              <LatitudeDegrees>43.14821555279195308685302734375</LatitudeDegrees>
              <LongitudeDegrees>-1.954206526279449462890625</LongitudeDegrees>
            </Position>
            <AltitudeMeters>294.79998779296875</AltitudeMeters>
            <DistanceMeters>NAN</DistanceMeters>
          </Trackpoint>
          <Trackpoint>
            <Time>2021-08-13T10:56:06.000Z</Time>
            <Position>
              <LatitudeDegrees>43.14820230938494205474853515625</LatitudeDegrees>
              <LongitudeDegrees>-1.95413821376860141754150390625</LongitudeDegrees>
            </Position>
            <AltitudeMeters>294.79998779296875</AltitudeMeters>
            <DistanceMeters>NAN</DistanceMeters>
          </Trackpoint>
          <Trackpoint>
            <Time>2021-08-13T10:56:07.000Z</Time>
            <Position>
              <LatitudeDegrees>43.1482097692787647247314453125</LatitudeDegrees>
              <LongitudeDegrees>-1.954077780246734619140625</LongitudeDegrees>
            </Position>
            <AltitudeMeters>294.79998779296875</AltitudeMeters>
            <DistanceMeters>NAN</DistanceMeters>
          </Trackpoint>
          <Trackpoint>
            <Time>2021-08-13T10:56:08.000Z</Time>
            <Position>
              <LatitudeDegrees>43.1482094340026378631591796875</LatitudeDegrees>
              <LongitudeDegrees>-1.954020448029041290283203125</LongitudeDegrees>
            </Position>
            <AltitudeMeters>294.79998779296875</AltitudeMeters>
            <DistanceMeters>NAN</DistanceMeters>
          </Trackpoint>
          <Trackpoint>
            <Time>2021-08-13T10:56:09.000Z</Time>
            <Position>
              <LatitudeDegrees>43.1481916643679141998291015625</LatitudeDegrees>
              <LongitudeDegrees>-1.95396319963037967681884765625</LongitudeDegrees>
            </Position>
            <AltitudeMeters>294.600006103515625</AltitudeMeters>
            <DistanceMeters>NAN</DistanceMeters>
          </Trackpoint>
          <Trackpoint>
            <Time>2021-08-13T10:56:10.000Z</Time>
            <Position>
              <LatitudeDegrees>43.1481946818530559539794921875</LatitudeDegrees>
              <LongitudeDegrees>-1.9539220444858074188232421875</LongitudeDegrees>
            </Position>
            <AltitudeMeters>294.600006103515625</AltitudeMeters>
            <DistanceMeters>NAN</DistanceMeters>
          </Trackpoint>
          <Trackpoint>
            <Time>2021-08-13T10:56:11.000Z</Time>
            <Position>
              <LatitudeDegrees>43.14820180647075176239013671875</LatitudeDegrees>
              <LongitudeDegrees>-1.95387368090450763702392578125</LongitudeDegrees>
            </Position>
            <AltitudeMeters>294.600006103515625</AltitudeMeters>
            <DistanceMeters>NAN</DistanceMeters>
          </Trackpoint>
          <Trackpoint>
            <Time>2021-08-13T10:56:12.000Z</Time>
            <Position>
              <LatitudeDegrees>43.1482087634503841400146484375</LatitudeDegrees>
              <LongitudeDegrees>-1.9538224674761295318603515625</LongitudeDegrees>
            </Position>
            <AltitudeMeters>294.600006103515625</AltitudeMeters>
            <DistanceMeters>NAN</DistanceMeters>
          </Trackpoint>
          <Trackpoint>
            <Time>2021-08-13T10:56:13.000Z</Time>
            <Position>
              <LatitudeDegrees>43.148228041827678680419921875</LatitudeDegrees>
              <LongitudeDegrees>-1.95377259515225887298583984375</LongitudeDegrees>
            </Position>
            <AltitudeMeters>294.600006103515625</AltitudeMeters>
            <DistanceMeters>NAN</DistanceMeters>
          </Trackpoint>
          <Trackpoint>
            <Time>2021-08-13T10:56:14.000Z</Time>
            <Position>
              <LatitudeDegrees>43.14822929911315441131591796875</LatitudeDegrees>
              <LongitudeDegrees>-1.95371844805777072906494140625</LongitudeDegrees>
            </Position>
            <AltitudeMeters>294.79998779296875</AltitudeMeters>
            <DistanceMeters>NAN</DistanceMeters>
          </Trackpoint>
          <Trackpoint>
            <Time>2021-08-13T10:56:15.000Z</Time>
            <Position>
              <LatitudeDegrees>43.148241452872753143310546875</LatitudeDegrees>
              <LongitudeDegrees>-1.9536568410694599151611328125</LongitudeDegrees>
            </Position>
            <AltitudeMeters>294.79998779296875</AltitudeMeters>
            <DistanceMeters>NAN</DistanceMeters>
          </Trackpoint>
          <Trackpoint>
            <Time>2021-08-13T10:56:16.000Z</Time>
            <Position>
              <LatitudeDegrees>43.1482406146824359893798828125</LatitudeDegrees>
              <LongitudeDegrees>-1.9536129198968410491943359375</LongitudeDegrees>
            </Position>
            <AltitudeMeters>294.79998779296875</AltitudeMeters>
            <DistanceMeters>NAN</DistanceMeters>
          </Trackpoint>
          <Trackpoint>
            <Time>2021-08-13T10:56:17.000Z</Time>
            <Position>
              <LatitudeDegrees>43.148243129253387451171875</LatitudeDegrees>
              <LongitudeDegrees>-1.95356690324842929840087890625</LongitudeDegrees>
            </Position>
            <AltitudeMeters>295</AltitudeMeters>
            <DistanceMeters>NAN</DistanceMeters>
          </Trackpoint>
          <Trackpoint>
            <Time>2021-08-13T10:56:18.000Z</Time>
            <Position>
              <LatitudeDegrees>43.14823701046407222747802734375</LatitudeDegrees>
              <LongitudeDegrees>-1.9535143487155437469482421875</LongitudeDegrees>
            </Position>
            <AltitudeMeters>295</AltitudeMeters>
            <DistanceMeters>NAN</DistanceMeters>
          </Trackpoint>
          <Trackpoint>
            <Time>2021-08-13T10:56:19.000Z</Time>
            <Position>
              <LatitudeDegrees>43.14823013730347156524658203125</LatitudeDegrees>
              <LongitudeDegrees>-1.95345710031688213348388671875</LongitudeDegrees>
            </Position>
            <AltitudeMeters>295</AltitudeMeters>
            <DistanceMeters>NAN</DistanceMeters>
          </Trackpoint>
          <Trackpoint>
            <Time>2021-08-13T10:56:20.000Z</Time>
            <Position>
              <LatitudeDegrees>43.1482218392193317413330078125</LatitudeDegrees>
              <LongitudeDegrees>-1.953416280448436737060546875</LongitudeDegrees>
            </Position>
            <AltitudeMeters>295.20001220703125</AltitudeMeters>
            <DistanceMeters>NAN</DistanceMeters>
          </Trackpoint>
          <Trackpoint>
            <Time>2021-08-13T10:56:21.000Z</Time>
            <Position>
              <LatitudeDegrees>43.14821161329746246337890625</LatitudeDegrees>
              <LongitudeDegrees>-1.95337302982807159423828125</LongitudeDegrees>
            </Position>
            <AltitudeMeters>295.20001220703125</AltitudeMeters>
            <DistanceMeters>NAN</DistanceMeters>
          </Trackpoint>
          <Trackpoint>
            <Time>2021-08-13T10:56:22.000Z</Time>
            <Position>
              <LatitudeDegrees>43.1482003815472126007080078125</LatitudeDegrees>
              <LongitudeDegrees>-1.9533212296664714813232421875</LongitudeDegrees>
            </Position>
            <AltitudeMeters>295.20001220703125</AltitudeMeters>
            <DistanceMeters>NAN</DistanceMeters>
          </Trackpoint>
          <Trackpoint>
            <Time>2021-08-13T10:56:23.000Z</Time>
            <Position>
              <LatitudeDegrees>43.1481827795505523681640625</LatitudeDegrees>
              <LongitudeDegrees>-1.95327923633158206939697265625</LongitudeDegrees>
            </Position>
            <AltitudeMeters>295.399993896484375</AltitudeMeters>
            <DistanceMeters>NAN</DistanceMeters>
          </Trackpoint>
          <Trackpoint>
            <Time>2021-08-13T10:56:24.000Z</Time>
            <Position>
              <LatitudeDegrees>43.14816107042133808135986328125</LatitudeDegrees>
              <LongitudeDegrees>-1.9532467983663082122802734375</LongitudeDegrees>
            </Position>
            <AltitudeMeters>295.399993896484375</AltitudeMeters>
            <DistanceMeters>NAN</DistanceMeters>
          </Trackpoint>
          <Trackpoint>
            <Time>2021-08-13T10:56:25.000Z</Time>
            <Position>
              <LatitudeDegrees>43.14814187586307525634765625</LatitudeDegrees>
              <LongitudeDegrees>-1.95320765487849712371826171875</LongitudeDegrees>
            </Position>
            <AltitudeMeters>295.399993896484375</AltitudeMeters>
            <DistanceMeters>NAN</DistanceMeters>
          </Trackpoint>
          <Trackpoint>
            <Time>2021-08-13T10:56:26.000Z</Time>
            <Position>
              <LatitudeDegrees>43.14813315868377685546875</LatitudeDegrees>
              <LongitudeDegrees>-1.9531700201332569122314453125</LongitudeDegrees>
            </Position>
            <AltitudeMeters>295.600006103515625</AltitudeMeters>
            <DistanceMeters>NAN</DistanceMeters>
          </Trackpoint>
          <Trackpoint>
            <Time>2021-08-13T10:56:27.000Z</Time>
            <Position>
              <LatitudeDegrees>43.14812787808477878570556640625</LatitudeDegrees>
              <LongitudeDegrees>-1.9531348161399364471435546875</LongitudeDegrees>
            </Position>
            <AltitudeMeters>295.600006103515625</AltitudeMeters>
            <DistanceMeters>NAN</DistanceMeters>
          </Trackpoint>
          <Trackpoint>
            <Time>2021-08-13T10:56:28.000Z</Time>
            <Position>
              <LatitudeDegrees>43.1481202505528926849365234375</LatitudeDegrees>
              <LongitudeDegrees>-1.95309164933860301971435546875</LongitudeDegrees>
            </Position>
            <AltitudeMeters>295.600006103515625</AltitudeMeters>
            <DistanceMeters>NAN</DistanceMeters>
          </Trackpoint>
          <Trackpoint>
            <Time>2021-08-13T10:56:29.000Z</Time>
            <Position>
              <LatitudeDegrees>43.14810960553586483001708984375</LatitudeDegrees>
              <LongitudeDegrees>-1.9530526734888553619384765625</LongitudeDegrees>
            </Position>
            <AltitudeMeters>295.600006103515625</AltitudeMeters>
            <DistanceMeters>NAN</DistanceMeters>
          </Trackpoint>
          <Trackpoint>
            <Time>2021-08-13T10:56:30.000Z</Time>
            <Position>
              <LatitudeDegrees>43.1480991281569004058837890625</LatitudeDegrees>
              <LongitudeDegrees>-1.9530116021633148193359375</LongitudeDegrees>
            </Position>
            <AltitudeMeters>295.79998779296875</AltitudeMeters>
            <DistanceMeters>NAN</DistanceMeters>
          </Trackpoint>
          <Trackpoint>
            <Time>2021-08-13T10:56:34.000Z</Time>
            <Position>
              <LatitudeDegrees>43.1480438075959682464599609375</LatitudeDegrees>
              <LongitudeDegrees>-1.95284019224345684051513671875</LongitudeDegrees>
            </Position>
            <AltitudeMeters>296</AltitudeMeters>
            <DistanceMeters>NAN</DistanceMeters>
          </Trackpoint>
          <Trackpoint>
            <Time>2021-08-13T10:56:35.000Z</Time>
            <Position>
              <LatitudeDegrees>43.14803048036992549896240234375</LatitudeDegrees>
              <LongitudeDegrees>-1.9528005458414554595947265625</LongitudeDegrees>
            </Position>
            <AltitudeMeters>296.20001220703125</AltitudeMeters>
            <DistanceMeters>NAN</DistanceMeters>
          </Trackpoint>
          <Trackpoint>
            <Time>2021-08-13T10:56:41.000Z</Time>
            <Position>
              <LatitudeDegrees>43.14792771823704242706298828125</LatitudeDegrees>
              <LongitudeDegrees>-1.952561996877193450927734375</LongitudeDegrees>
            </Position>
            <AltitudeMeters>296.399993896484375</AltitudeMeters>
            <DistanceMeters>NAN</DistanceMeters>
          </Trackpoint>
          <Trackpoint>
            <Time>2021-08-13T10:56:44.000Z</Time>
            <Position>
              <LatitudeDegrees>43.14787440933287143707275390625</LatitudeDegrees>
              <LongitudeDegrees>-1.95244909264147281646728515625</LongitudeDegrees>
            </Position>
            <AltitudeMeters>296.79998779296875</AltitudeMeters>
            <DistanceMeters>NAN</DistanceMeters>
          </Trackpoint>
          <Trackpoint>
            <Time>2021-08-13T10:56:45.000Z</Time>
            <Position>
              <LatitudeDegrees>43.14785622060298919677734375</LatitudeDegrees>
              <LongitudeDegrees>-1.95241958834230899810791015625</LongitudeDegrees>
            </Position>
            <AltitudeMeters>297</AltitudeMeters>
            <DistanceMeters>NAN</DistanceMeters>
          </Trackpoint>
          <Trackpoint>
            <Time>2021-08-13T10:56:46.000Z</Time>
            <Position>
              <LatitudeDegrees>43.14783610403537750244140625</LatitudeDegrees>
              <LongitudeDegrees>-1.95239511318504810333251953125</LongitudeDegrees>
            </Position>
            <AltitudeMeters>297</AltitudeMeters>
            <DistanceMeters>NAN</DistanceMeters>
          </Trackpoint>
          <Trackpoint>
            <Time>2021-08-13T10:56:47.000Z</Time>
            <Position>
              <LatitudeDegrees>43.14782026223838329315185546875</LatitudeDegrees>
              <LongitudeDegrees>-1.95237482897937297821044921875</LongitudeDegrees>
            </Position>
            <AltitudeMeters>297.20001220703125</AltitudeMeters>
            <DistanceMeters>NAN</DistanceMeters>
          </Trackpoint>
          <Trackpoint>
            <Time>2021-08-13T10:56:48.000Z</Time>
            <Position>
              <LatitudeDegrees>43.1478040851652622222900390625</LatitudeDegrees>
              <LongitudeDegrees>-1.95235513150691986083984375</LongitudeDegrees>
            </Position>
            <AltitudeMeters>297.20001220703125</AltitudeMeters>
            <DistanceMeters>NAN</DistanceMeters>
          </Trackpoint>
          <Trackpoint>
            <Time>2021-08-13T10:56:49.000Z</Time>
            <Position>
              <LatitudeDegrees>43.14778338186442852020263671875</LatitudeDegrees>
              <LongitudeDegrees>-1.952334679663181304931640625</LongitudeDegrees>
            </Position>
            <AltitudeMeters>297.399993896484375</AltitudeMeters>
            <DistanceMeters>NAN</DistanceMeters>
          </Trackpoint>
          <Trackpoint>
            <Time>2021-08-13T10:56:52.000Z</Time>
            <Position>
              <LatitudeDegrees>43.14770869910717010498046875</LatitudeDegrees>
              <LongitudeDegrees>-1.9522687979042530059814453125</LongitudeDegrees>
            </Position>
            <AltitudeMeters>297.600006103515625</AltitudeMeters>
            <DistanceMeters>NAN</DistanceMeters>
          </Trackpoint>
          <Trackpoint>
            <Time>2021-08-13T10:56:53.000Z</Time>
            <Position>
              <LatitudeDegrees>43.147684223949909210205078125</LatitudeDegrees>
              <LongitudeDegrees>-1.9522473402321338653564453125</LongitudeDegrees>
            </Position>
            <AltitudeMeters>297.600006103515625</AltitudeMeters>
            <DistanceMeters>NAN</DistanceMeters>
          </Trackpoint>
          <Trackpoint>
            <Time>2021-08-13T10:57:02.000Z</Time>
            <Position>
              <LatitudeDegrees>43.14740569330751895904541015625</LatitudeDegrees>
              <LongitudeDegrees>-1.95210836827754974365234375</LongitudeDegrees>
            </Position>
            <AltitudeMeters>298.20001220703125</AltitudeMeters>
            <DistanceMeters>NAN</DistanceMeters>
          </Trackpoint>
          <Trackpoint>
            <Time>2021-08-13T10:57:07.000Z</Time>
            <Position>
              <LatitudeDegrees>43.1472279131412506103515625</LatitudeDegrees>
              <LongitudeDegrees>-1.95208313874900341033935546875</LongitudeDegrees>
            </Position>
            <AltitudeMeters>298.600006103515625</AltitudeMeters>
            <DistanceMeters>NAN</DistanceMeters>
          </Trackpoint>
          <Trackpoint>
            <Time>2021-08-13T10:57:08.000Z</Time>
            <Position>
              <LatitudeDegrees>43.14719782210886478424072265625</LatitudeDegrees>
              <LongitudeDegrees>-1.95208112709224224090576171875</LongitudeDegrees>
            </Position>
            <AltitudeMeters>298.79998779296875</AltitudeMeters>
            <DistanceMeters>NAN</DistanceMeters>
          </Trackpoint>
          <Trackpoint>
            <Time>2021-08-13T10:57:09.000Z</Time>
            <Position>
              <LatitudeDegrees>43.14716781489551067352294921875</LatitudeDegrees>
              <LongitudeDegrees>-1.95208632387220859527587890625</LongitudeDegrees>
            </Position>
            <AltitudeMeters>298.79998779296875</AltitudeMeters>
            <DistanceMeters>NAN</DistanceMeters>
          </Trackpoint>
          <Trackpoint>
            <Time>2021-08-13T10:57:13.000Z</Time>
            <Position>
              <LatitudeDegrees>43.14704460091888904571533203125</LatitudeDegrees>
              <LongitudeDegrees>-1.9521264731884002685546875</LongitudeDegrees>
            </Position>
            <AltitudeMeters>299</AltitudeMeters>
            <DistanceMeters>NAN</DistanceMeters>
          </Trackpoint>
          <Trackpoint>
            <Time>2021-08-13T10:57:16.000Z</Time>
            <Position>
              <LatitudeDegrees>43.1469461135566234588623046875</LatitudeDegrees>
              <LongitudeDegrees>-1.9521638564765453338623046875</LongitudeDegrees>
            </Position>
            <AltitudeMeters>299.20001220703125</AltitudeMeters>
            <DistanceMeters>NAN</DistanceMeters>
          </Trackpoint>
          <Trackpoint>
            <Time>2021-08-13T10:57:21.000Z</Time>
            <Position>
              <LatitudeDegrees>43.14677051268517971038818359375</LatitudeDegrees>
              <LongitudeDegrees>-1.9522490166127681732177734375</LongitudeDegrees>
            </Position>
            <AltitudeMeters>299.399993896484375</AltitudeMeters>
            <DistanceMeters>NAN</DistanceMeters>
          </Trackpoint>
          <Trackpoint>
            <Time>2021-08-13T10:57:22.000Z</Time>
            <Position>
              <LatitudeDegrees>43.14674100838601589202880859375</LatitudeDegrees>
              <LongitudeDegrees>-1.95226385258138179779052734375</LongitudeDegrees>
            </Position>
            <AltitudeMeters>299.399993896484375</AltitudeMeters>
            <DistanceMeters>NAN</DistanceMeters>
          </Trackpoint>
          <Trackpoint>
            <Time>2021-08-13T10:57:23.000Z</Time>
            <Position>
              <LatitudeDegrees>43.146709240972995758056640625</LatitudeDegrees>
              <LongitudeDegrees>-1.952275671064853668212890625</LongitudeDegrees>
            </Position>
            <AltitudeMeters>299.600006103515625</AltitudeMeters>
            <DistanceMeters>NAN</DistanceMeters>
          </Trackpoint>
          <Trackpoint>
            <Time>2021-08-13T10:57:24.000Z</Time>
            <Position>
              <LatitudeDegrees>43.14668049104511737823486328125</LatitudeDegrees>
              <LongitudeDegrees>-1.952291093766689300537109375</LongitudeDegrees>
            </Position>
            <AltitudeMeters>299.600006103515625</AltitudeMeters>
            <DistanceMeters>NAN</DistanceMeters>
          </Trackpoint>
          <Trackpoint>
            <Time>2021-08-13T10:57:26.000Z</Time>
            <Position>
              <LatitudeDegrees>43.14663372002542018890380859375</LatitudeDegrees>
              <LongitudeDegrees>-1.95232286117970943450927734375</LongitudeDegrees>
            </Position>
            <AltitudeMeters>299.79998779296875</AltitudeMeters>
            <DistanceMeters>NAN</DistanceMeters>
          </Trackpoint>
          <Trackpoint>
            <Time>2021-08-13T10:57:27.000Z</Time>
            <Position>
              <LatitudeDegrees>43.14662433229386806488037109375</LatitudeDegrees>
              <LongitudeDegrees>-1.95232302881777286529541015625</LongitudeDegrees>
            </Position>
            <AltitudeMeters>300</AltitudeMeters>
            <DistanceMeters>NAN</DistanceMeters>
          </Trackpoint>
          <Trackpoint>
            <Time>2021-08-13T10:57:28.000Z</Time>
            <Position>
              <LatitudeDegrees>43.14662064425647258758544921875</LatitudeDegrees>
              <LongitudeDegrees>-1.95232252590358257293701171875</LongitudeDegrees>
            </Position>
            <AltitudeMeters>300</AltitudeMeters>
            <DistanceMeters>NAN</DistanceMeters>
          </Trackpoint>
          <Trackpoint>
            <Time>2021-08-13T10:57:29.000Z</Time>
            <Position>
              <LatitudeDegrees>43.14662064425647258758544921875</LatitudeDegrees>
              <LongitudeDegrees>-1.95232252590358257293701171875</LongitudeDegrees>
            </Position>
            <AltitudeMeters>300.20001220703125</AltitudeMeters>
            <DistanceMeters>NAN</DistanceMeters>
          </Trackpoint>
          <Trackpoint>
            <Time>2021-08-13T10:57:30.000Z</Time>
            <Position>
              <LatitudeDegrees>43.14662064425647258758544921875</LatitudeDegrees>
              <LongitudeDegrees>-1.95232252590358257293701171875</LongitudeDegrees>
            </Position>
            <AltitudeMeters>300.20001220703125</AltitudeMeters>
            <DistanceMeters>NAN</DistanceMeters>
          </Trackpoint>
          <Trackpoint>
            <Time>2021-08-13T10:57:32.000Z</Time>
            <Position>
              <LatitudeDegrees>43.1465467996895313262939453125</LatitudeDegrees>
              <LongitudeDegrees>-1.952404417097568511962890625</LongitudeDegrees>
            </Position>
            <AltitudeMeters>300.399993896484375</AltitudeMeters>
            <DistanceMeters>NAN</DistanceMeters>
          </Trackpoint>
          <Trackpoint>
            <Time>2021-08-13T10:57:33.000Z</Time>
            <Position>
              <LatitudeDegrees>43.1464602984488010406494140625</LatitudeDegrees>
              <LongitudeDegrees>-1.95250240154564380645751953125</LongitudeDegrees>
            </Position>
            <AltitudeMeters>300.600006103515625</AltitudeMeters>
            <DistanceMeters>NAN</DistanceMeters>
          </Trackpoint>
          <Trackpoint>
            <Time>2021-08-13T10:57:35.000Z</Time>
            <Position>
              <LatitudeDegrees>43.14637430012226104736328125</LatitudeDegrees>
              <LongitudeDegrees>-1.952648498117923736572265625</LongitudeDegrees>
            </Position>
            <AltitudeMeters>300.79998779296875</AltitudeMeters>
            <DistanceMeters>NAN</DistanceMeters>
          </Trackpoint>
          <Trackpoint>
            <Time>2021-08-13T10:57:36.000Z</Time>
            <Position>
              <LatitudeDegrees>43.14629458822309970855712890625</LatitudeDegrees>
              <LongitudeDegrees>-1.9526620768010616302490234375</LongitudeDegrees>
            </Position>
            <AltitudeMeters>301</AltitudeMeters>
            <DistanceMeters>NAN</DistanceMeters>
          </Trackpoint>
          <Trackpoint>
            <Time>2021-08-13T10:57:37.000Z</Time>
            <Position>
              <LatitudeDegrees>43.14628017134964466094970703125</LatitudeDegrees>
              <LongitudeDegrees>-1.9526241905987262725830078125</LongitudeDegrees>
            </Position>
            <AltitudeMeters>301</AltitudeMeters>
            <DistanceMeters>NAN</DistanceMeters>
          </Trackpoint>
          <Trackpoint>
            <Time>2021-08-13T10:57:38.000Z</Time>
            <Position>
              <LatitudeDegrees>43.1462725438177585601806640625</LatitudeDegrees>
              <LongitudeDegrees>-1.95263399742543697357177734375</LongitudeDegrees>
            </Position>
            <AltitudeMeters>301</AltitudeMeters>
            <DistanceMeters>NAN</DistanceMeters>
          </Trackpoint>
          <Trackpoint>
            <Time>2021-08-13T10:57:39.000Z</Time>
            <Position>
              <LatitudeDegrees>43.14625502564013004302978515625</LatitudeDegrees>
              <LongitudeDegrees>-1.952645145356655120849609375</LongitudeDegrees>
            </Position>
            <AltitudeMeters>301</AltitudeMeters>
            <DistanceMeters>NAN</DistanceMeters>
          </Trackpoint>
          <Trackpoint>
            <Time>2021-08-13T10:57:42.000Z</Time>
            <Position>
              <LatitudeDegrees>43.14616148360073566436767578125</LatitudeDegrees>
              <LongitudeDegrees>-1.95267875678837299346923828125</LongitudeDegrees>
            </Position>
            <AltitudeMeters>301.20001220703125</AltitudeMeters>
            <DistanceMeters>NAN</DistanceMeters>
          </Trackpoint>
          <Trackpoint>
            <Time>2021-08-13T10:57:43.000Z</Time>
            <Position>
              <LatitudeDegrees>43.14613147638738155364990234375</LatitudeDegrees>
              <LongitudeDegrees>-1.95268630050122737884521484375</LongitudeDegrees>
            </Position>
            <AltitudeMeters>301.399993896484375</AltitudeMeters>
            <DistanceMeters>NAN</DistanceMeters>
          </Trackpoint>
          <Trackpoint>
            <Time>2021-08-13T10:57:44.000Z</Time>
            <Position>
              <LatitudeDegrees>43.146103732287883758544921875</LatitudeDegrees>
              <LongitudeDegrees>-1.95269300602376461029052734375</LongitudeDegrees>
            </Position>
            <AltitudeMeters>301.399993896484375</AltitudeMeters>
            <DistanceMeters>NAN</DistanceMeters>
          </Trackpoint>
          <Trackpoint>
            <Time>2021-08-13T10:57:47.000Z</Time>
            <Position>
              <LatitudeDegrees>43.14600356854498386383056640625</LatitudeDegrees>
              <LongitudeDegrees>-1.95273868739604949951171875</LongitudeDegrees>
            </Position>
            <AltitudeMeters>301.399993896484375</AltitudeMeters>
            <DistanceMeters>NAN</DistanceMeters>
          </Trackpoint>
          <Trackpoint>
            <Time>2021-08-13T10:57:53.000Z</Time>
            <Position>
              <LatitudeDegrees>43.14578153192996978759765625</LatitudeDegrees>
              <LongitudeDegrees>-1.952832899987697601318359375</LongitudeDegrees>
            </Position>
            <AltitudeMeters>301.399993896484375</AltitudeMeters>
            <DistanceMeters>NAN</DistanceMeters>
          </Trackpoint>
          <Trackpoint>
            <Time>2021-08-13T10:57:54.000Z</Time>
            <Position>
              <LatitudeDegrees>43.14574792049825191497802734375</LatitudeDegrees>
              <LongitudeDegrees>-1.95284538902342319488525390625</LongitudeDegrees>
            </Position>
            <AltitudeMeters>301.399993896484375</AltitudeMeters>
            <DistanceMeters>NAN</DistanceMeters>
          </Trackpoint>
          <Trackpoint>
            <Time>2021-08-13T10:57:58.000Z</Time>
            <Position>
              <LatitudeDegrees>43.14560039900243282318115234375</LatitudeDegrees>
              <LongitudeDegrees>-1.95289517752826213836669921875</LongitudeDegrees>
            </Position>
            <AltitudeMeters>301.399993896484375</AltitudeMeters>
            <DistanceMeters>NAN</DistanceMeters>
          </Trackpoint>
          <Trackpoint>
            <Time>2021-08-13T10:57:59.000Z</Time>
            <Position>
              <LatitudeDegrees>43.14556804485619068145751953125</LatitudeDegrees>
              <LongitudeDegrees>-1.952903978526592254638671875</LongitudeDegrees>
            </Position>
            <AltitudeMeters>301.399993896484375</AltitudeMeters>
            <DistanceMeters>NAN</DistanceMeters>
          </Trackpoint>
          <Trackpoint>
            <Time>2021-08-13T10:58:00.000Z</Time>
            <Position>
              <LatitudeDegrees>43.1455376185476779937744140625</LatitudeDegrees>
              <LongitudeDegrees>-1.9529152102768421173095703125</LongitudeDegrees>
            </Position>
            <AltitudeMeters>301.399993896484375</AltitudeMeters>
            <DistanceMeters>NAN</DistanceMeters>
          </Trackpoint>
          <Trackpoint>
            <Time>2021-08-13T10:58:01.000Z</Time>
            <Position>
              <LatitudeDegrees>43.145508281886577606201171875</LatitudeDegrees>
              <LongitudeDegrees>-1.95292644202709197998046875</LongitudeDegrees>
            </Position>
            <AltitudeMeters>301.399993896484375</AltitudeMeters>
            <DistanceMeters>NAN</DistanceMeters>
          </Trackpoint>
          <Trackpoint>
            <Time>2021-08-13T10:58:04.000Z</Time>
            <Position>
              <LatitudeDegrees>43.1454147398471832275390625</LatitudeDegrees>
              <LongitudeDegrees>-1.952940858900547027587890625</LongitudeDegrees>
            </Position>
            <AltitudeMeters>301.399993896484375</AltitudeMeters>
            <DistanceMeters>NAN</DistanceMeters>
          </Trackpoint>
          <Trackpoint>
            <Time>2021-08-13T10:58:07.000Z</Time>
            <Position>
              <LatitudeDegrees>43.1453119777143001556396484375</LatitudeDegrees>
              <LongitudeDegrees>-1.9529755599796772003173828125</LongitudeDegrees>
            </Position>
            <AltitudeMeters>301.399993896484375</AltitudeMeters>
            <DistanceMeters>NAN</DistanceMeters>
          </Trackpoint>
          <Trackpoint>
            <Time>2021-08-13T10:58:12.000Z</Time>
            <Position>
              <LatitudeDegrees>43.145142160356044769287109375</LatitudeDegrees>
              <LongitudeDegrees>-1.95304957218468189239501953125</LongitudeDegrees>
            </Position>
            <AltitudeMeters>301.600006103515625</AltitudeMeters>
            <DistanceMeters>NAN</DistanceMeters>
          </Trackpoint>
          <Trackpoint>
            <Time>2021-08-13T10:58:14.000Z</Time>
            <Position>
              <LatitudeDegrees>43.14508189447224140167236328125</LatitudeDegrees>
              <LongitudeDegrees>-1.95306717418134212493896484375</LongitudeDegrees>
            </Position>
            <AltitudeMeters>301.79998779296875</AltitudeMeters>
            <DistanceMeters>NAN</DistanceMeters>
          </Trackpoint>
          <Trackpoint>
            <Time>2021-08-13T10:58:17.000Z</Time>
            <Position>
              <LatitudeDegrees>43.1449911184608936309814453125</LatitudeDegrees>
              <LongitudeDegrees>-1.953089050948619842529296875</LongitudeDegrees>
            </Position>
            <AltitudeMeters>302.20001220703125</AltitudeMeters>
            <DistanceMeters>NAN</DistanceMeters>
          </Trackpoint>
          <Trackpoint>
            <Time>2021-08-13T10:58:18.000Z</Time>
            <Position>
              <LatitudeDegrees>43.14496186561882495880126953125</LatitudeDegrees>
              <LongitudeDegrees>-1.95310070179402828216552734375</LongitudeDegrees>
            </Position>
            <AltitudeMeters>302.20001220703125</AltitudeMeters>
            <DistanceMeters>NAN</DistanceMeters>
          </Trackpoint>
          <Trackpoint>
            <Time>2021-08-13T10:58:22.000Z</Time>
            <Position>
              <LatitudeDegrees>43.1448271684348583221435546875</LatitudeDegrees>
              <LongitudeDegrees>-1.9531281106173992156982421875</LongitudeDegrees>
            </Position>
            <AltitudeMeters>302.399993896484375</AltitudeMeters>
            <DistanceMeters>NAN</DistanceMeters>
          </Trackpoint>
          <Trackpoint>
            <Time>2021-08-13T10:58:23.000Z</Time>
            <Position>
              <LatitudeDegrees>43.14479791559278964996337890625</LatitudeDegrees>
              <LongitudeDegrees>-1.95313774980604648590087890625</LongitudeDegrees>
            </Position>
            <AltitudeMeters>302.399993896484375</AltitudeMeters>
            <DistanceMeters>NAN</DistanceMeters>
          </Trackpoint>
          <Trackpoint>
            <Time>2021-08-13T10:58:24.000Z</Time>
            <Position>
              <LatitudeDegrees>43.1447664834558963775634765625</LatitudeDegrees>
              <LongitudeDegrees>-1.9531510770320892333984375</LongitudeDegrees>
            </Position>
            <AltitudeMeters>302.600006103515625</AltitudeMeters>
            <DistanceMeters>NAN</DistanceMeters>
          </Trackpoint>
          <Trackpoint>
            <Time>2021-08-13T10:58:25.000Z</Time>
            <Position>
              <LatitudeDegrees>43.1447322852909564971923828125</LatitudeDegrees>
              <LongitudeDegrees>-1.95316725410521030426025390625</LongitudeDegrees>
            </Position>
            <AltitudeMeters>302.79998779296875</AltitudeMeters>
            <DistanceMeters>NAN</DistanceMeters>
          </Trackpoint>
          <Trackpoint>
            <Time>2021-08-13T10:58:26.000Z</Time>
            <Position>
              <LatitudeDegrees>43.1447034515440464019775390625</LatitudeDegrees>
              <LongitudeDegrees>-1.95318100042641162872314453125</LongitudeDegrees>
            </Position>
            <AltitudeMeters>302.79998779296875</AltitudeMeters>
            <DistanceMeters>NAN</DistanceMeters>
          </Trackpoint>
          <Trackpoint>
            <Time>2021-08-13T10:58:27.000Z</Time>
            <Position>
              <LatitudeDegrees>43.14467403106391429901123046875</LatitudeDegrees>
              <LongitudeDegrees>-1.953193657100200653076171875</LongitudeDegrees>
            </Position>
            <AltitudeMeters>303</AltitudeMeters>
            <DistanceMeters>NAN</DistanceMeters>
          </Trackpoint>
          <Trackpoint>
            <Time>2021-08-13T10:58:28.000Z</Time>
            <Position>
              <LatitudeDegrees>43.14464570023119449615478515625</LatitudeDegrees>
              <LongitudeDegrees>-1.95319977588951587677001953125</LongitudeDegrees>
            </Position>
            <AltitudeMeters>303</AltitudeMeters>
            <DistanceMeters>NAN</DistanceMeters>
          </Trackpoint>
          <Trackpoint>
            <Time>2021-08-13T10:58:30.000Z</Time>
            <Position>
              <LatitudeDegrees>43.14458048902451992034912109375</LatitudeDegrees>
              <LongitudeDegrees>-1.953232549130916595458984375</LongitudeDegrees>
            </Position>
            <AltitudeMeters>303</AltitudeMeters>
            <DistanceMeters>NAN</DistanceMeters>
          </Trackpoint>
          <Trackpoint>
            <Time>2021-08-13T10:58:35.000Z</Time>
            <Position>
              <LatitudeDegrees>43.1444089114665985107421875</LatitudeDegrees>
              <LongitudeDegrees>-1.95327353663742542266845703125</LongitudeDegrees>
            </Position>
            <AltitudeMeters>303.399993896484375</AltitudeMeters>
            <DistanceMeters>NAN</DistanceMeters>
          </Trackpoint>
          <Trackpoint>
            <Time>2021-08-13T10:58:36.000Z</Time>
            <Position>
              <LatitudeDegrees>43.14438334666192531585693359375</LatitudeDegrees>
              <LongitudeDegrees>-1.9532695971429347991943359375</LongitudeDegrees>
            </Position>
            <AltitudeMeters>303.399993896484375</AltitudeMeters>
            <DistanceMeters>NAN</DistanceMeters>
          </Trackpoint>
          <Trackpoint>
            <Time>2021-08-13T10:58:37.000Z</Time>
            <Position>
              <LatitudeDegrees>43.144358284771442413330078125</LatitudeDegrees>
              <LongitudeDegrees>-1.9532742910087108612060546875</LongitudeDegrees>
            </Position>
            <AltitudeMeters>303.600006103515625</AltitudeMeters>
            <DistanceMeters>NAN</DistanceMeters>
          </Trackpoint>
          <Trackpoint>
            <Time>2021-08-13T10:58:39.000Z</Time>
            <Position>
              <LatitudeDegrees>43.144291900098323822021484375</LatitudeDegrees>
              <LongitudeDegrees>-1.95330974645912647247314453125</LongitudeDegrees>
            </Position>
            <AltitudeMeters>303.600006103515625</AltitudeMeters>
            <DistanceMeters>NAN</DistanceMeters>
          </Trackpoint>
          <Trackpoint>
            <Time>2021-08-13T10:58:40.000Z</Time>
            <Position>
              <LatitudeDegrees>43.1442669220268726348876953125</LatitudeDegrees>
              <LongitudeDegrees>-1.9533254206180572509765625</LongitudeDegrees>
            </Position>
            <AltitudeMeters>303.600006103515625</AltitudeMeters>
            <DistanceMeters>NAN</DistanceMeters>
          </Trackpoint>
          <Trackpoint>
            <Time>2021-08-13T10:58:41.000Z</Time>
            <Position>
              <LatitudeDegrees>43.14423280768096446990966796875</LatitudeDegrees>
              <LongitudeDegrees>-1.95334159769117832183837890625</LongitudeDegrees>
            </Position>
            <AltitudeMeters>303.600006103515625</AltitudeMeters>
            <DistanceMeters>NAN</DistanceMeters>
          </Trackpoint>
          <Trackpoint>
            <Time>2021-08-13T10:58:43.000Z</Time>
            <Position>
              <LatitudeDegrees>43.1441648304462432861328125</LatitudeDegrees>
              <LongitudeDegrees>-1.9533634744584560394287109375</LongitudeDegrees>
            </Position>
            <AltitudeMeters>303.79998779296875</AltitudeMeters>
            <DistanceMeters>NAN</DistanceMeters>
          </Trackpoint>
          <Trackpoint>
            <Time>2021-08-13T10:58:44.000Z</Time>
            <Position>
              <LatitudeDegrees>43.1441227532923221588134765625</LatitudeDegrees>
              <LongitudeDegrees>-1.95337177254259586334228515625</LongitudeDegrees>
            </Position>
            <AltitudeMeters>303.79998779296875</AltitudeMeters>
            <DistanceMeters>NAN</DistanceMeters>
          </Trackpoint>
          <Trackpoint>
            <Time>2021-08-13T10:58:45.000Z</Time>
            <Position>
              <LatitudeDegrees>43.14409618265926837921142578125</LatitudeDegrees>
              <LongitudeDegrees>-1.95337998680770397186279296875</LongitudeDegrees>
            </Position>
            <AltitudeMeters>304</AltitudeMeters>
            <DistanceMeters>NAN</DistanceMeters>
          </Trackpoint>
          <Trackpoint>
            <Time>2021-08-13T10:58:46.000Z</Time>
            <Position>
              <LatitudeDegrees>43.14406567253172397613525390625</LatitudeDegrees>
              <LongitudeDegrees>-1.9533799029886722564697265625</LongitudeDegrees>
            </Position>
            <AltitudeMeters>304.20001220703125</AltitudeMeters>
            <DistanceMeters>NAN</DistanceMeters>
          </Trackpoint>
          <Trackpoint>
            <Time>2021-08-13T10:58:47.000Z</Time>
            <Position>
              <LatitudeDegrees>43.1440322287380695343017578125</LatitudeDegrees>
              <LongitudeDegrees>-1.95336674340069293975830078125</LongitudeDegrees>
            </Position>
            <AltitudeMeters>304.20001220703125</AltitudeMeters>
            <DistanceMeters>NAN</DistanceMeters>
          </Trackpoint>
          <Trackpoint>
            <Time>2021-08-13T10:58:50.000Z</Time>
            <Position>
              <LatitudeDegrees>43.14393156208097934722900390625</LatitudeDegrees>
              <LongitudeDegrees>-1.95335484109818935394287109375</LongitudeDegrees>
            </Position>
            <AltitudeMeters>304.20001220703125</AltitudeMeters>
            <DistanceMeters>NAN</DistanceMeters>
          </Trackpoint>
          <Trackpoint>
            <Time>2021-08-13T10:58:51.000Z</Time>
            <Position>
              <LatitudeDegrees>43.1438984535634517669677734375</LatitudeDegrees>
              <LongitudeDegrees>-1.95335425436496734619140625</LongitudeDegrees>
            </Position>
            <AltitudeMeters>304.399993896484375</AltitudeMeters>
            <DistanceMeters>NAN</DistanceMeters>
          </Trackpoint>
          <Trackpoint>
            <Time>2021-08-13T10:58:52.000Z</Time>
            <Position>
              <LatitudeDegrees>43.14386601559817790985107421875</LatitudeDegrees>
              <LongitudeDegrees>-1.95335065014660358428955078125</LongitudeDegrees>
            </Position>
            <AltitudeMeters>304.399993896484375</AltitudeMeters>
            <DistanceMeters>NAN</DistanceMeters>
          </Trackpoint>
          <Trackpoint>
            <Time>2021-08-13T10:58:53.000Z</Time>
            <Position>
              <LatitudeDegrees>43.143831901252269744873046875</LatitudeDegrees>
              <LongitudeDegrees>-1.95334897376596927642822265625</LongitudeDegrees>
            </Position>
            <AltitudeMeters>304.399993896484375</AltitudeMeters>
            <DistanceMeters>NAN</DistanceMeters>
          </Trackpoint>
          <Trackpoint>
            <Time>2021-08-13T10:58:55.000Z</Time>
            <Position>
              <LatitudeDegrees>43.14376492984592914581298828125</LatitudeDegrees>
              <LongitudeDegrees>-1.9533400051295757293701171875</LongitudeDegrees>
            </Position>
            <AltitudeMeters>304.399993896484375</AltitudeMeters>
            <DistanceMeters>NAN</DistanceMeters>
          </Trackpoint>
          <Trackpoint>
            <Time>2021-08-13T10:58:58.000Z</Time>
            <Position>
              <LatitudeDegrees>43.1436815299093723297119140625</LatitudeDegrees>
              <LongitudeDegrees>-1.95330304093658924102783203125</LongitudeDegrees>
            </Position>
            <AltitudeMeters>304.600006103515625</AltitudeMeters>
            <DistanceMeters>NAN</DistanceMeters>
          </Trackpoint>
          <Trackpoint>
            <Time>2021-08-13T10:58:59.000Z</Time>
            <Position>
              <LatitudeDegrees>43.14365462400019168853759765625</LatitudeDegrees>
              <LongitudeDegrees>-1.9532830081880092620849609375</LongitudeDegrees>
            </Position>
            <AltitudeMeters>304.600006103515625</AltitudeMeters>
            <DistanceMeters>NAN</DistanceMeters>
          </Trackpoint>
          <Trackpoint>
            <Time>2021-08-13T10:59:05.000Z</Time>
            <Position>
              <LatitudeDegrees>43.1434723176062107086181640625</LatitudeDegrees>
              <LongitudeDegrees>-1.95312651805579662322998046875</LongitudeDegrees>
            </Position>
            <AltitudeMeters>304.79998779296875</AltitudeMeters>
            <DistanceMeters>NAN</DistanceMeters>
          </Trackpoint>
          <Trackpoint>
            <Time>2021-08-13T10:59:06.000Z</Time>
            <Position>
              <LatitudeDegrees>43.14344541169703006744384765625</LatitudeDegrees>
              <LongitudeDegrees>-1.95309651084244251251220703125</LongitudeDegrees>
            </Position>
            <AltitudeMeters>304.79998779296875</AltitudeMeters>
            <DistanceMeters>NAN</DistanceMeters>
          </Trackpoint>
          <Trackpoint>
            <Time>2021-08-13T10:59:12.000Z</Time>
            <Position>
              <LatitudeDegrees>43.1432892568409442901611328125</LatitudeDegrees>
              <LongitudeDegrees>-1.95291210897266864776611328125</LongitudeDegrees>
            </Position>
            <AltitudeMeters>305</AltitudeMeters>
            <DistanceMeters>NAN</DistanceMeters>
          </Trackpoint>
          <Trackpoint>
            <Time>2021-08-13T10:59:13.000Z</Time>
            <Position>
              <LatitudeDegrees>43.143269978463649749755859375</LatitudeDegrees>
              <LongitudeDegrees>-1.95288344286382198333740234375</LongitudeDegrees>
            </Position>
            <AltitudeMeters>305</AltitudeMeters>
            <DistanceMeters>NAN</DistanceMeters>
          </Trackpoint>
          <Trackpoint>
            <Time>2021-08-13T10:59:19.000Z</Time>
            <Position>
              <LatitudeDegrees>43.14313712529838085174560546875</LatitudeDegrees>
              <LongitudeDegrees>-1.95269183255732059478759765625</LongitudeDegrees>
            </Position>
            <AltitudeMeters>305.20001220703125</AltitudeMeters>
            <DistanceMeters>NAN</DistanceMeters>
          </Trackpoint>
          <Trackpoint>
            <Time>2021-08-13T10:59:28.000Z</Time>
            <Position>
              <LatitudeDegrees>43.14289840869605541229248046875</LatitudeDegrees>
              <LongitudeDegrees>-1.95235789753496646881103515625</LongitudeDegrees>
            </Position>
            <AltitudeMeters>305.399993896484375</AltitudeMeters>
            <DistanceMeters>NAN</DistanceMeters>
          </Trackpoint>
          <Trackpoint>
            <Time>2021-08-13T10:59:35.000Z</Time>
            <Position>
              <LatitudeDegrees>43.14272909425199031829833984375</LatitudeDegrees>
              <LongitudeDegrees>-1.9520827196538448333740234375</LongitudeDegrees>
            </Position>
            <AltitudeMeters>305.600006103515625</AltitudeMeters>
            <DistanceMeters>NAN</DistanceMeters>
          </Trackpoint>
          <Trackpoint>
            <Time>2021-08-13T10:59:36.000Z</Time>
            <Position>
              <LatitudeDegrees>43.142706714570522308349609375</LatitudeDegrees>
              <LongitudeDegrees>-1.95204340852797031402587890625</LongitudeDegrees>
            </Position>
            <AltitudeMeters>305.600006103515625</AltitudeMeters>
            <DistanceMeters>NAN</DistanceMeters>
          </Trackpoint>
          <Trackpoint>
            <Time>2021-08-13T10:59:37.000Z</Time>
            <Position>
              <LatitudeDegrees>43.1426857598125934600830078125</LatitudeDegrees>
              <LongitudeDegrees>-1.952004097402095794677734375</LongitudeDegrees>
            </Position>
            <AltitudeMeters>305.600006103515625</AltitudeMeters>
            <DistanceMeters>NAN</DistanceMeters>
          </Trackpoint>
          <Trackpoint>
            <Time>2021-08-13T10:59:38.000Z</Time>
            <Position>
              <LatitudeDegrees>43.14265952445566654205322265625</LatitudeDegrees>
              <LongitudeDegrees>-1.95196998305618762969970703125</LongitudeDegrees>
            </Position>
            <AltitudeMeters>305.79998779296875</AltitudeMeters>
            <DistanceMeters>NAN</DistanceMeters>
          </Trackpoint>
          <Trackpoint>
            <Time>2021-08-13T10:59:39.000Z</Time>
            <Position>
              <LatitudeDegrees>43.142634965479373931884765625</LatitudeDegrees>
              <LongitudeDegrees>-1.95193662308156490325927734375</LongitudeDegrees>
            </Position>
            <AltitudeMeters>305.79998779296875</AltitudeMeters>
            <DistanceMeters>NAN</DistanceMeters>
          </Trackpoint>
          <Trackpoint>
            <Time>2021-08-13T10:59:40.000Z</Time>
            <Position>
              <LatitudeDegrees>43.142611496150493621826171875</LatitudeDegrees>
              <LongitudeDegrees>-1.951909549534320831298828125</LongitudeDegrees>
            </Position>
            <AltitudeMeters>305.79998779296875</AltitudeMeters>
            <DistanceMeters>NAN</DistanceMeters>
          </Trackpoint>
          <Trackpoint>
            <Time>2021-08-13T10:59:41.000Z</Time>
            <Position>
              <LatitudeDegrees>43.142590038478374481201171875</LatitudeDegrees>
              <LongitudeDegrees>-1.9518855772912502288818359375</LongitudeDegrees>
            </Position>
            <AltitudeMeters>306</AltitudeMeters>
            <DistanceMeters>NAN</DistanceMeters>
          </Trackpoint>
          <Trackpoint>
            <Time>2021-08-13T10:59:42.000Z</Time>
            <Position>
              <LatitudeDegrees>43.1425687484443187713623046875</LatitudeDegrees>
              <LongitudeDegrees>-1.95185917429625988006591796875</LongitudeDegrees>
            </Position>
            <AltitudeMeters>306.20001220703125</AltitudeMeters>
            <DistanceMeters>NAN</DistanceMeters>
          </Trackpoint>
          <Trackpoint>
            <Time>2021-08-13T10:59:48.000Z</Time>
            <Position>
              <LatitudeDegrees>43.14242399297654628753662109375</LatitudeDegrees>
              <LongitudeDegrees>-1.95167074911296367645263671875</LongitudeDegrees>
            </Position>
            <AltitudeMeters>306.600006103515625</AltitudeMeters>
            <DistanceMeters>NAN</DistanceMeters>
          </Trackpoint>
          <Trackpoint>
            <Time>2021-08-13T10:59:51.000Z</Time>
            <Position>
              <LatitudeDegrees>43.14233933575451374053955078125</LatitudeDegrees>
              <LongitudeDegrees>-1.9515952281653881072998046875</LongitudeDegrees>
            </Position>
            <AltitudeMeters>306.600006103515625</AltitudeMeters>
            <DistanceMeters>NAN</DistanceMeters>
          </Trackpoint>
          <Trackpoint>
            <Time>2021-08-13T10:59:52.000Z</Time>
            <Position>
              <LatitudeDegrees>43.14231385476887226104736328125</LatitudeDegrees>
              <LongitudeDegrees>-1.951566897332668304443359375</LongitudeDegrees>
            </Position>
            <AltitudeMeters>306.600006103515625</AltitudeMeters>
            <DistanceMeters>NAN</DistanceMeters>
          </Trackpoint>
          <Trackpoint>
            <Time>2021-08-13T10:59:54.000Z</Time>
            <Position>
              <LatitudeDegrees>43.1422730349004268646240234375</LatitudeDegrees>
              <LongitudeDegrees>-1.951526664197444915771484375</LongitudeDegrees>
            </Position>
            <AltitudeMeters>306.79998779296875</AltitudeMeters>
            <DistanceMeters>NAN</DistanceMeters>
          </Trackpoint>
          <Trackpoint>
            <Time>2021-08-13T10:59:55.000Z</Time>
            <Position>
              <LatitudeDegrees>43.14225451089441776275634765625</LatitudeDegrees>
              <LongitudeDegrees>-1.9515207968652248382568359375</LongitudeDegrees>
            </Position>
            <AltitudeMeters>306.79998779296875</AltitudeMeters>
            <DistanceMeters>NAN</DistanceMeters>
          </Trackpoint>
          <Trackpoint>
            <Time>2021-08-13T10:59:56.000Z</Time>
            <Position>
              <LatitudeDegrees>43.1422294490039348602294921875</LatitudeDegrees>
              <LongitudeDegrees>-1.9515144266188144683837890625</LongitudeDegrees>
            </Position>
            <AltitudeMeters>306.79998779296875</AltitudeMeters>
            <DistanceMeters>NAN</DistanceMeters>
          </Trackpoint>
          <Trackpoint>
            <Time>2021-08-13T10:59:57.000Z</Time>
            <Position>
              <LatitudeDegrees>43.1422073207795619964599609375</LatitudeDegrees>
              <LongitudeDegrees>-1.9515083916485309600830078125</LongitudeDegrees>
            </Position>
            <AltitudeMeters>307</AltitudeMeters>
            <DistanceMeters>NAN</DistanceMeters>
          </Trackpoint>
          <Trackpoint>
            <Time>2021-08-13T10:59:58.000Z</Time>
            <Position>
              <LatitudeDegrees>43.14218779094517230987548828125</LatitudeDegrees>
              <LongitudeDegrees>-1.95149791426956653594970703125</LongitudeDegrees>
            </Position>
            <AltitudeMeters>307</AltitudeMeters>
            <DistanceMeters>NAN</DistanceMeters>
          </Trackpoint>
          <Trackpoint>
            <Time>2021-08-13T10:59:59.000Z</Time>
            <Position>
              <LatitudeDegrees>43.14217521809041500091552734375</LatitudeDegrees>
              <LongitudeDegrees>-1.9514808990061283111572265625</LongitudeDegrees>
            </Position>
            <AltitudeMeters>307.20001220703125</AltitudeMeters>
            <DistanceMeters>NAN</DistanceMeters>
          </Trackpoint>
          <Trackpoint>
            <Time>2021-08-13T11:00:00.000Z</Time>
            <Position>
              <LatitudeDegrees>43.14217127859592437744140625</LatitudeDegrees>
              <LongitudeDegrees>-1.95147536695003509521484375</LongitudeDegrees>
            </Position>
            <AltitudeMeters>307.399993896484375</AltitudeMeters>
            <DistanceMeters>NAN</DistanceMeters>
          </Trackpoint>
          <Trackpoint>
            <Time>2021-08-13T11:01:03.000Z</Time>
            <Position>
              <LatitudeDegrees>43.14058952964842319488525390625</LatitudeDegrees>
              <LongitudeDegrees>-1.950672380626201629638671875</LongitudeDegrees>
            </Position>
            <AltitudeMeters>311.79998779296875</AltitudeMeters>
            <DistanceMeters>NAN</DistanceMeters>
          </Trackpoint>
          <Trackpoint>
            <Time>2021-08-13T11:01:04.000Z</Time>
            <Position>
              <LatitudeDegrees>43.14029482193291187286376953125</LatitudeDegrees>
              <LongitudeDegrees>-1.95046928711235523223876953125</LongitudeDegrees>
            </Position>
            <AltitudeMeters>311.79998779296875</AltitudeMeters>
            <DistanceMeters>NAN</DistanceMeters>
          </Trackpoint>
          <Trackpoint>
            <Time>2021-08-13T11:01:05.000Z</Time>
            <Position>
              <LatitudeDegrees>43.1403455324470996856689453125</LatitudeDegrees>
              <LongitudeDegrees>-1.95049610920250415802001953125</LongitudeDegrees>
            </Position>
            <AltitudeMeters>311.79998779296875</AltitudeMeters>
            <DistanceMeters>NAN</DistanceMeters>
          </Trackpoint>
          <Trackpoint>
            <Time>2021-08-13T11:01:06.000Z</Time>
            <Position>
              <LatitudeDegrees>43.14039909280836582183837890625</LatitudeDegrees>
              <LongitudeDegrees>-1.950458474457263946533203125</LongitudeDegrees>
            </Position>
            <AltitudeMeters>311.79998779296875</AltitudeMeters>
            <DistanceMeters>NAN</DistanceMeters>
          </Trackpoint>
          <Trackpoint>
            <Time>2021-08-13T11:01:07.000Z</Time>
            <Position>
              <LatitudeDegrees>43.14033673144876956939697265625</LatitudeDegrees>
              <LongitudeDegrees>-1.95052921772003173828125</LongitudeDegrees>
            </Position>
            <AltitudeMeters>311.79998779296875</AltitudeMeters>
            <DistanceMeters>NAN</DistanceMeters>
          </Trackpoint>
          <Trackpoint>
            <Time>2021-08-13T11:01:08.000Z</Time>
            <Position>
              <LatitudeDegrees>43.1402756273746490478515625</LatitudeDegrees>
              <LongitudeDegrees>-1.95050952024757862091064453125</LongitudeDegrees>
            </Position>
            <AltitudeMeters>311.79998779296875</AltitudeMeters>
            <DistanceMeters>NAN</DistanceMeters>
          </Trackpoint>
          <Trackpoint>
            <Time>2021-08-13T11:01:09.000Z</Time>
            <Position>
              <LatitudeDegrees>43.14024972729384899139404296875</LatitudeDegrees>
              <LongitudeDegrees>-1.95046677254140377044677734375</LongitudeDegrees>
            </Position>
            <AltitudeMeters>311.600006103515625</AltitudeMeters>
            <DistanceMeters>NAN</DistanceMeters>
          </Trackpoint>
          <Trackpoint>
            <Time>2021-08-13T11:01:10.000Z</Time>
            <Position>
              <LatitudeDegrees>43.1402278505265712738037109375</LatitudeDegrees>
              <LongitudeDegrees>-1.950435675680637359619140625</LongitudeDegrees>
            </Position>
            <AltitudeMeters>311.600006103515625</AltitudeMeters>
            <DistanceMeters>NAN</DistanceMeters>
          </Trackpoint>
          <Trackpoint>
            <Time>2021-08-13T11:01:11.000Z</Time>
            <Position>
              <LatitudeDegrees>43.1402090750634670257568359375</LatitudeDegrees>
              <LongitudeDegrees>-1.95042318664491176605224609375</LongitudeDegrees>
            </Position>
            <AltitudeMeters>311.600006103515625</AltitudeMeters>
            <DistanceMeters>NAN</DistanceMeters>
          </Trackpoint>
          <Trackpoint>
            <Time>2021-08-13T11:01:12.000Z</Time>
            <Position>
              <LatitudeDegrees>43.14019717276096343994140625</LatitudeDegrees>
              <LongitudeDegrees>-1.9504220969974994659423828125</LongitudeDegrees>
            </Position>
            <AltitudeMeters>311.600006103515625</AltitudeMeters>
            <DistanceMeters>NAN</DistanceMeters>
          </Trackpoint>
          <Trackpoint>
            <Time>2021-08-13T11:01:13.000Z</Time>
            <Position>
              <LatitudeDegrees>43.14019046723842620849609375</LatitudeDegrees>
              <LongitudeDegrees>-1.9504220969974994659423828125</LongitudeDegrees>
            </Position>
            <AltitudeMeters>311.600006103515625</AltitudeMeters>
            <DistanceMeters>NAN</DistanceMeters>
          </Trackpoint>
          <Trackpoint>
            <Time>2021-08-13T11:01:14.000Z</Time>
            <Position>
              <LatitudeDegrees>43.1401849351823329925537109375</LatitudeDegrees>
              <LongitudeDegrees>-1.9504180736839771270751953125</LongitudeDegrees>
            </Position>
            <AltitudeMeters>311.600006103515625</AltitudeMeters>
            <DistanceMeters>NAN</DistanceMeters>
          </Trackpoint>
          <Trackpoint>
            <Time>2021-08-13T11:01:15.000Z</Time>
            <Position>
              <LatitudeDegrees>43.1401782296597957611083984375</LatitudeDegrees>
              <LongitudeDegrees>-1.95042167790234088897705078125</LongitudeDegrees>
            </Position>
            <AltitudeMeters>311.600006103515625</AltitudeMeters>
            <DistanceMeters>NAN</DistanceMeters>
          </Trackpoint>
          <Trackpoint>
            <Time>2021-08-13T11:01:16.000Z</Time>
            <Position>
              <LatitudeDegrees>43.1401695124804973602294921875</LatitudeDegrees>
              <LongitudeDegrees>-1.95042670704424381256103515625</LongitudeDegrees>
            </Position>
            <AltitudeMeters>311.600006103515625</AltitudeMeters>
            <DistanceMeters>NAN</DistanceMeters>
          </Trackpoint>
          <Trackpoint>
            <Time>2021-08-13T11:01:17.000Z</Time>
            <Position>
              <LatitudeDegrees>43.14016154967248439788818359375</LatitudeDegrees>
              <LongitudeDegrees>-1.95042871870100498199462890625</LongitudeDegrees>
            </Position>
            <AltitudeMeters>311.600006103515625</AltitudeMeters>
            <DistanceMeters>NAN</DistanceMeters>
          </Trackpoint>
          <Trackpoint>
            <Time>2021-08-13T11:01:18.000Z</Time>
            <Position>
              <LatitudeDegrees>43.14015467651188373565673828125</LatitudeDegrees>
              <LongitudeDegrees>-1.95043575949966907501220703125</LongitudeDegrees>
            </Position>
            <AltitudeMeters>311.600006103515625</AltitudeMeters>
            <DistanceMeters>NAN</DistanceMeters>
          </Trackpoint>
          <Trackpoint>
            <Time>2021-08-13T11:01:19.000Z</Time>
            <Position>
              <LatitudeDegrees>43.140141181647777557373046875</LatitudeDegrees>
              <LongitudeDegrees>-1.950436346232891082763671875</LongitudeDegrees>
            </Position>
            <AltitudeMeters>311.600006103515625</AltitudeMeters>
            <DistanceMeters>NAN</DistanceMeters>
          </Trackpoint>
          <Trackpoint>
            <Time>2021-08-13T11:01:20.000Z</Time>
            <Position>
              <LatitudeDegrees>43.14013036899268627166748046875</LatitudeDegrees>
              <LongitudeDegrees>-1.95042620413005352020263671875</LongitudeDegrees>
            </Position>
            <AltitudeMeters>311.600006103515625</AltitudeMeters>
            <DistanceMeters>NAN</DistanceMeters>
          </Trackpoint>
          <Trackpoint>
            <Time>2021-08-13T11:01:21.000Z</Time>
            <Position>
              <LatitudeDegrees>43.140117712318897247314453125</LatitudeDegrees>
              <LongitudeDegrees>-1.95041681639850139617919921875</LongitudeDegrees>
            </Position>
            <AltitudeMeters>311.600006103515625</AltitudeMeters>
            <DistanceMeters>NAN</DistanceMeters>
          </Trackpoint>
          <Trackpoint>
            <Time>2021-08-13T11:01:22.000Z</Time>
            <Position>
              <LatitudeDegrees>43.14010270871222019195556640625</LatitudeDegrees>
              <LongitudeDegrees>-1.95040994323790073394775390625</LongitudeDegrees>
            </Position>
            <AltitudeMeters>311.600006103515625</AltitudeMeters>
            <DistanceMeters>NAN</DistanceMeters>
          </Trackpoint>
          <Trackpoint>
            <Time>2021-08-13T11:01:23.000Z</Time>
            <Position>
              <LatitudeDegrees>43.14009114168584346771240234375</LatitudeDegrees>
              <LongitudeDegrees>-1.95040390826761722564697265625</LongitudeDegrees>
            </Position>
            <AltitudeMeters>311.600006103515625</AltitudeMeters>
            <DistanceMeters>NAN</DistanceMeters>
          </Trackpoint>
          <Trackpoint>
            <Time>2021-08-13T11:01:24.000Z</Time>
            <Position>
              <LatitudeDegrees>43.14008317887783050537109375</LatitudeDegrees>
              <LongitudeDegrees>-1.95039846003055572509765625</LongitudeDegrees>
            </Position>
            <AltitudeMeters>311.600006103515625</AltitudeMeters>
            <DistanceMeters>NAN</DistanceMeters>
          </Trackpoint>
          <Trackpoint>
            <Time>2021-08-13T11:01:25.000Z</Time>
            <Position>
              <LatitudeDegrees>43.1400803290307521820068359375</LatitudeDegrees>
              <LongitudeDegrees>-1.9503956101834774017333984375</LongitudeDegrees>
            </Position>
            <AltitudeMeters>311.600006103515625</AltitudeMeters>
            <DistanceMeters>NAN</DistanceMeters>
          </Trackpoint>
          <Trackpoint>
            <Time>2021-08-13T11:01:27.000Z</Time>
            <Position>
              <LatitudeDegrees>43.140088208019733428955078125</LatitudeDegrees>
              <LongitudeDegrees>-1.9503862224519252777099609375</LongitudeDegrees>
            </Position>
            <AltitudeMeters>311.600006103515625</AltitudeMeters>
            <DistanceMeters>NAN</DistanceMeters>
          </Trackpoint>
          <Trackpoint>
            <Time>2021-08-13T11:01:55.000Z</Time>
            <Position>
              <LatitudeDegrees>43.1400923989713191986083984375</LatitudeDegrees>
              <LongitudeDegrees>-1.9503674469888210296630859375</LongitudeDegrees>
            </Position>
            <AltitudeMeters>311.399993896484375</AltitudeMeters>
            <DistanceMeters>NAN</DistanceMeters>
          </Trackpoint>
          <Trackpoint>
            <Time>2021-08-13T11:01:56.000Z</Time>
            <Position>
              <LatitudeDegrees>43.14009080640971660614013671875</LatitudeDegrees>
              <LongitudeDegrees>-1.9503677822649478912353515625</LongitudeDegrees>
            </Position>
            <AltitudeMeters>311.399993896484375</AltitudeMeters>
            <DistanceMeters>NAN</DistanceMeters>
          </Trackpoint>
          <Trackpoint>
            <Time>2021-08-13T11:28:35.000Z</Time>
            <Position>
              <LatitudeDegrees>43.14005007036030292510986328125</LatitudeDegrees>
              <LongitudeDegrees>-1.9504707120358943939208984375</LongitudeDegrees>
            </Position>
            <AltitudeMeters>312.79998779296875</AltitudeMeters>
            <DistanceMeters>NAN</DistanceMeters>
          </Trackpoint>
          <Trackpoint>
            <Time>2021-08-13T11:28:43.000Z</Time>
            <Position>
              <LatitudeDegrees>43.14003464765846729278564453125</LatitudeDegrees>
              <LongitudeDegrees>-1.95045403204858303070068359375</LongitudeDegrees>
            </Position>
            <AltitudeMeters>313</AltitudeMeters>
            <DistanceMeters>NAN</DistanceMeters>
          </Trackpoint>
          <Trackpoint>
            <Time>2021-08-13T11:28:44.000Z</Time>
            <Position>
              <LatitudeDegrees>43.14002810977399349212646484375</LatitudeDegrees>
              <LongitudeDegrees>-1.9504485838115215301513671875</LongitudeDegrees>
            </Position>
            <AltitudeMeters>313</AltitudeMeters>
            <DistanceMeters>NAN</DistanceMeters>
          </Trackpoint>
          <Trackpoint>
            <Time>2021-08-13T11:28:45.000Z</Time>
            <Position>
              <LatitudeDegrees>43.14002090133726596832275390625</LatitudeDegrees>
              <LongitudeDegrees>-1.9504452310502529144287109375</LongitudeDegrees>
            </Position>
            <AltitudeMeters>313</AltitudeMeters>
            <DistanceMeters>NAN</DistanceMeters>
          </Trackpoint>
          <Trackpoint>
            <Time>2021-08-13T11:28:46.000Z</Time>
            <Position>
              <LatitudeDegrees>43.140015117824077606201171875</LatitudeDegrees>
              <LongitudeDegrees>-1.9504393637180328369140625</LongitudeDegrees>
            </Position>
            <AltitudeMeters>313</AltitudeMeters>
            <DistanceMeters>NAN</DistanceMeters>
          </Trackpoint>
          <Trackpoint>
            <Time>2021-08-13T11:28:49.000Z</Time>
            <Position>
              <LatitudeDegrees>43.1400089152157306671142578125</LatitudeDegrees>
              <LongitudeDegrees>-1.9504318200051784515380859375</LongitudeDegrees>
            </Position>
            <AltitudeMeters>313</AltitudeMeters>
            <DistanceMeters>NAN</DistanceMeters>
          </Trackpoint>
          <Trackpoint>
            <Time>2021-08-13T11:28:51.000Z</Time>
            <Position>
              <LatitudeDegrees>43.140005730092525482177734375</LatitudeDegrees>
              <LongitudeDegrees>-1.95042922161519527435302734375</LongitudeDegrees>
            </Position>
            <AltitudeMeters>313</AltitudeMeters>
            <DistanceMeters>NAN</DistanceMeters>
          </Trackpoint>
          <Trackpoint>
            <Time>2021-08-13T11:29:05.000Z</Time>
            <Position>
              <LatitudeDegrees>43.13998125493526458740234375</LatitudeDegrees>
              <LongitudeDegrees>-1.95040843449532985687255859375</LongitudeDegrees>
            </Position>
            <AltitudeMeters>313</AltitudeMeters>
            <DistanceMeters>NAN</DistanceMeters>
          </Trackpoint>
          <Trackpoint>
            <Time>2021-08-13T11:29:06.000Z</Time>
            <Position>
              <LatitudeDegrees>43.13995443284511566162109375</LatitudeDegrees>
              <LongitudeDegrees>-1.950393430888652801513671875</LongitudeDegrees>
            </Position>
            <AltitudeMeters>313</AltitudeMeters>
            <DistanceMeters>NAN</DistanceMeters>
          </Trackpoint>
          <Trackpoint>
            <Time>2021-08-13T11:29:07.000Z</Time>
            <Position>
              <LatitudeDegrees>43.13993641175329685211181640625</LatitudeDegrees>
              <LongitudeDegrees>-1.95038429461419582366943359375</LongitudeDegrees>
            </Position>
            <AltitudeMeters>313</AltitudeMeters>
            <DistanceMeters>NAN</DistanceMeters>
          </Trackpoint>
          <Trackpoint>
            <Time>2021-08-13T11:29:08.000Z</Time>
            <Position>
              <LatitudeDegrees>43.13992031849920749664306640625</LatitudeDegrees>
              <LongitudeDegrees>-1.950375325977802276611328125</LongitudeDegrees>
            </Position>
            <AltitudeMeters>313</AltitudeMeters>
            <DistanceMeters>NAN</DistanceMeters>
          </Trackpoint>
          <Trackpoint>
            <Time>2021-08-13T11:29:11.000Z</Time>
            <Position>
              <LatitudeDegrees>43.1398664228618144989013671875</LatitudeDegrees>
              <LongitudeDegrees>-1.95034607313573360443115234375</LongitudeDegrees>
            </Position>
            <AltitudeMeters>313</AltitudeMeters>
            <DistanceMeters>NAN</DistanceMeters>
          </Trackpoint>
          <Trackpoint>
            <Time>2021-08-13T11:29:14.000Z</Time>
            <Position>
              <LatitudeDegrees>43.13981420360505580902099609375</LatitudeDegrees>
              <LongitudeDegrees>-1.95029159076511859893798828125</LongitudeDegrees>
            </Position>
            <AltitudeMeters>313.20001220703125</AltitudeMeters>
            <DistanceMeters>NAN</DistanceMeters>
          </Trackpoint>
          <Trackpoint>
            <Time>2021-08-13T11:29:15.000Z</Time>
            <Position>
              <LatitudeDegrees>43.13979794271290302276611328125</LatitudeDegrees>
              <LongitudeDegrees>-1.95027834735810756683349609375</LongitudeDegrees>
            </Position>
            <AltitudeMeters>313.20001220703125</AltitudeMeters>
            <DistanceMeters>NAN</DistanceMeters>
          </Trackpoint>
          <Trackpoint>
            <Time>2021-08-13T11:29:16.000Z</Time>
            <Position>
              <LatitudeDegrees>43.1397819332778453826904296875</LatitudeDegrees>
              <LongitudeDegrees>-1.95027030073106288909912109375</LongitudeDegrees>
            </Position>
            <AltitudeMeters>313.20001220703125</AltitudeMeters>
            <DistanceMeters>NAN</DistanceMeters>
          </Trackpoint>
          <Trackpoint>
            <Time>2021-08-13T11:29:17.000Z</Time>
            <Position>
              <LatitudeDegrees>43.13978754915297031402587890625</LatitudeDegrees>
              <LongitudeDegrees>-1.95025236345827579498291015625</LongitudeDegrees>
            </Position>
            <AltitudeMeters>313.399993896484375</AltitudeMeters>
            <DistanceMeters>NAN</DistanceMeters>
          </Trackpoint>
          <Trackpoint>
            <Time>2021-08-13T11:29:18.000Z</Time>
            <Position>
              <LatitudeDegrees>43.1397946737706661224365234375</LatitudeDegrees>
              <LongitudeDegrees>-1.95023710839450359344482421875</LongitudeDegrees>
            </Position>
            <AltitudeMeters>313.399993896484375</AltitudeMeters>
            <DistanceMeters>NAN</DistanceMeters>
          </Trackpoint>
          <Trackpoint>
            <Time>2021-08-13T11:29:19.000Z</Time>
            <Position>
              <LatitudeDegrees>43.13980280421674251556396484375</LatitudeDegrees>
              <LongitudeDegrees>-1.95021783001720905303955078125</LongitudeDegrees>
            </Position>
            <AltitudeMeters>313.600006103515625</AltitudeMeters>
            <DistanceMeters>NAN</DistanceMeters>
          </Trackpoint>
          <Trackpoint>
            <Time>2021-08-13T11:29:56.000Z</Time>
            <Position>
              <LatitudeDegrees>43.13886436633765697479248046875</LatitudeDegrees>
              <LongitudeDegrees>-1.949727572500705718994140625</LongitudeDegrees>
            </Position>
            <AltitudeMeters>316</AltitudeMeters>
            <DistanceMeters>NAN</DistanceMeters>
          </Trackpoint>
          <Trackpoint>
            <Time>2021-08-13T11:29:57.000Z</Time>
            <Position>
              <LatitudeDegrees>43.13881692476570606231689453125</LatitudeDegrees>
              <LongitudeDegrees>-1.94976009428501129150390625</LongitudeDegrees>
            </Position>
            <AltitudeMeters>316.20001220703125</AltitudeMeters>
            <DistanceMeters>NAN</DistanceMeters>
          </Trackpoint>
          <Trackpoint>
            <Time>2021-08-13T11:30:00.000Z</Time>
            <Position>
              <LatitudeDegrees>43.13872623257339000701904296875</LatitudeDegrees>
              <LongitudeDegrees>-1.94973184727132320404052734375</LongitudeDegrees>
            </Position>
            <AltitudeMeters>316.20001220703125</AltitudeMeters>
            <DistanceMeters>NAN</DistanceMeters>
          </Trackpoint>
          <Trackpoint>
            <Time>2021-08-13T11:30:01.000Z</Time>
            <Position>
              <LatitudeDegrees>43.13867677934467792510986328125</LatitudeDegrees>
              <LongitudeDegrees>-1.9497371278703212738037109375</LongitudeDegrees>
            </Position>
            <AltitudeMeters>316.399993896484375</AltitudeMeters>
            <DistanceMeters>NAN</DistanceMeters>
          </Trackpoint>
          <Trackpoint>
            <Time>2021-08-13T11:30:02.000Z</Time>
            <Position>
              <LatitudeDegrees>43.138651885092258453369140625</LatitudeDegrees>
              <LongitudeDegrees>-1.94971424527466297149658203125</LongitudeDegrees>
            </Position>
            <AltitudeMeters>316.399993896484375</AltitudeMeters>
            <DistanceMeters>NAN</DistanceMeters>
          </Trackpoint>
          <Trackpoint>
            <Time>2021-08-13T11:30:03.000Z</Time>
            <Position>
              <LatitudeDegrees>43.1386265717446804046630859375</LatitudeDegrees>
              <LongitudeDegrees>-1.94970133714377880096435546875</LongitudeDegrees>
            </Position>
            <AltitudeMeters>316.399993896484375</AltitudeMeters>
            <DistanceMeters>NAN</DistanceMeters>
          </Trackpoint>
          <Trackpoint>
            <Time>2021-08-13T11:30:04.000Z</Time>
            <Position>
              <LatitudeDegrees>43.1386020965874195098876953125</LatitudeDegrees>
              <LongitudeDegrees>-1.94968507625162601470947265625</LongitudeDegrees>
            </Position>
            <AltitudeMeters>316.399993896484375</AltitudeMeters>
            <DistanceMeters>NAN</DistanceMeters>
          </Trackpoint>
          <Trackpoint>
            <Time>2021-08-13T11:30:05.000Z</Time>
            <Position>
              <LatitudeDegrees>43.1385833211243152618408203125</LatitudeDegrees>
              <LongitudeDegrees>-1.9496600143611431121826171875</LongitudeDegrees>
            </Position>
            <AltitudeMeters>316.399993896484375</AltitudeMeters>
            <DistanceMeters>NAN</DistanceMeters>
          </Trackpoint>
          <Trackpoint>
            <Time>2021-08-13T11:30:06.000Z</Time>
            <Position>
              <LatitudeDegrees>43.1385608576238155364990234375</LatitudeDegrees>
              <LongitudeDegrees>-1.94963939487934112548828125</LongitudeDegrees>
            </Position>
            <AltitudeMeters>316.399993896484375</AltitudeMeters>
            <DistanceMeters>NAN</DistanceMeters>
          </Trackpoint>
          <Trackpoint>
            <Time>2021-08-13T11:30:07.000Z</Time>
            <Position>
              <LatitudeDegrees>43.13853898085653781890869140625</LatitudeDegrees>
              <LongitudeDegrees>-1.94961751811206340789794921875</LongitudeDegrees>
            </Position>
            <AltitudeMeters>316.399993896484375</AltitudeMeters>
            <DistanceMeters>NAN</DistanceMeters>
          </Trackpoint>
          <Trackpoint>
            <Time>2021-08-13T11:30:08.000Z</Time>
            <Position>
              <LatitudeDegrees>43.13852079212665557861328125</LatitudeDegrees>
              <LongitudeDegrees>-1.94959245622158050537109375</LongitudeDegrees>
            </Position>
            <AltitudeMeters>316.20001220703125</AltitudeMeters>
            <DistanceMeters>NAN</DistanceMeters>
          </Trackpoint>
          <Trackpoint>
            <Time>2021-08-13T11:30:09.000Z</Time>
            <Position>
              <LatitudeDegrees>43.138503693044185638427734375</LatitudeDegrees>
              <LongitudeDegrees>-1.94957057945430278778076171875</LongitudeDegrees>
            </Position>
            <AltitudeMeters>316.20001220703125</AltitudeMeters>
            <DistanceMeters>NAN</DistanceMeters>
          </Trackpoint>
          <Trackpoint>
            <Time>2021-08-13T11:30:10.000Z</Time>
            <Position>
              <LatitudeDegrees>43.1384807266294956207275390625</LatitudeDegrees>
              <LongitudeDegrees>-1.94955758750438690185546875</LongitudeDegrees>
            </Position>
            <AltitudeMeters>316.20001220703125</AltitudeMeters>
            <DistanceMeters>NAN</DistanceMeters>
          </Trackpoint>
          <Trackpoint>
            <Time>2021-08-13T11:30:11.000Z</Time>
            <Position>
              <LatitudeDegrees>43.1384562514722347259521484375</LatitudeDegrees>
              <LongitudeDegrees>-1.9495453499257564544677734375</LongitudeDegrees>
            </Position>
            <AltitudeMeters>316.399993896484375</AltitudeMeters>
            <DistanceMeters>NAN</DistanceMeters>
          </Trackpoint>
          <Trackpoint>
            <Time>2021-08-13T11:30:12.000Z</Time>
            <Position>
              <LatitudeDegrees>43.138440661132335662841796875</LatitudeDegrees>
              <LongitudeDegrees>-1.94953269325196743011474609375</LongitudeDegrees>
            </Position>
            <AltitudeMeters>316.399993896484375</AltitudeMeters>
            <DistanceMeters>NAN</DistanceMeters>
          </Trackpoint>
          <Trackpoint>
            <Time>2021-08-13T11:30:13.000Z</Time>
            <Position>
              <LatitudeDegrees>43.13841626979410648345947265625</LatitudeDegrees>
              <LongitudeDegrees>-1.949514336884021759033203125</LongitudeDegrees>
            </Position>
            <AltitudeMeters>316.399993896484375</AltitudeMeters>
            <DistanceMeters>NAN</DistanceMeters>
          </Trackpoint>
          <Trackpoint>
            <Time>2021-08-13T11:30:14.000Z</Time>
            <Position>
              <LatitudeDegrees>43.13839129172265529632568359375</LatitudeDegrees>
              <LongitudeDegrees>-1.94950385950505733489990234375</LongitudeDegrees>
            </Position>
            <AltitudeMeters>316.399993896484375</AltitudeMeters>
            <DistanceMeters>NAN</DistanceMeters>
          </Trackpoint>
          <Trackpoint>
            <Time>2021-08-13T11:30:15.000Z</Time>
            <Position>
              <LatitudeDegrees>43.13836346380412578582763671875</LatitudeDegrees>
              <LongitudeDegrees>-1.9494960643351078033447265625</LongitudeDegrees>
            </Position>
            <AltitudeMeters>316.600006103515625</AltitudeMeters>
            <DistanceMeters>NAN</DistanceMeters>
          </Trackpoint>
          <Trackpoint>
            <Time>2021-08-13T11:30:16.000Z</Time>
            <Position>
              <LatitudeDegrees>43.13833965919911861419677734375</LatitudeDegrees>
              <LongitudeDegrees>-1.949493549764156341552734375</LongitudeDegrees>
            </Position>
            <AltitudeMeters>316.600006103515625</AltitudeMeters>
            <DistanceMeters>NAN</DistanceMeters>
          </Trackpoint>
          <Trackpoint>
            <Time>2021-08-13T11:30:17.000Z</Time>
            <Position>
              <LatitudeDegrees>43.13831367529928684234619140625</LatitudeDegrees>
              <LongitudeDegrees>-1.94948709569871425628662109375</LongitudeDegrees>
            </Position>
            <AltitudeMeters>316.600006103515625</AltitudeMeters>
            <DistanceMeters>NAN</DistanceMeters>
          </Trackpoint>
          <Trackpoint>
            <Time>2021-08-13T11:30:19.000Z</Time>
            <Position>
              <LatitudeDegrees>43.1382684968411922454833984375</LatitudeDegrees>
              <LongitudeDegrees>-1.9494442641735076904296875</LongitudeDegrees>
            </Position>
            <AltitudeMeters>316.600006103515625</AltitudeMeters>
            <DistanceMeters>NAN</DistanceMeters>
          </Trackpoint>
          <Trackpoint>
            <Time>2021-08-13T11:30:20.000Z</Time>
            <Position>
              <LatitudeDegrees>43.13824980519711971282958984375</LatitudeDegrees>
              <LongitudeDegrees>-1.94942188449203968048095703125</LongitudeDegrees>
            </Position>
            <AltitudeMeters>316.600006103515625</AltitudeMeters>
            <DistanceMeters>NAN</DistanceMeters>
          </Trackpoint>
          <Trackpoint>
            <Time>2021-08-13T11:30:21.000Z</Time>
            <Position>
              <LatitudeDegrees>43.138236813247203826904296875</LatitudeDegrees>
              <LongitudeDegrees>-1.9494055397808551788330078125</LongitudeDegrees>
            </Position>
            <AltitudeMeters>316.79998779296875</AltitudeMeters>
            <DistanceMeters>NAN</DistanceMeters>
          </Trackpoint>
          <Trackpoint>
            <Time>2021-08-13T11:30:22.000Z</Time>
            <Position>
              <LatitudeDegrees>43.13821996562182903289794921875</LatitudeDegrees>
              <LongitudeDegrees>-1.94938860833644866943359375</LongitudeDegrees>
            </Position>
            <AltitudeMeters>316.79998779296875</AltitudeMeters>
            <DistanceMeters>NAN</DistanceMeters>
          </Trackpoint>
          <Trackpoint>
            <Time>2021-08-13T11:30:23.000Z</Time>
            <Position>
              <LatitudeDegrees>43.1381984241306781768798828125</LatitudeDegrees>
              <LongitudeDegrees>-1.949376203119754791259765625</LongitudeDegrees>
            </Position>
            <AltitudeMeters>317</AltitudeMeters>
            <DistanceMeters>NAN</DistanceMeters>
          </Trackpoint>
          <Trackpoint>
            <Time>2021-08-13T11:30:25.000Z</Time>
            <Position>
              <LatitudeDegrees>43.13814754597842693328857421875</LatitudeDegrees>
              <LongitudeDegrees>-1.9493448548018932342529296875</LongitudeDegrees>
            </Position>
            <AltitudeMeters>317</AltitudeMeters>
            <DistanceMeters>NAN</DistanceMeters>
          </Trackpoint>
          <Trackpoint>
            <Time>2021-08-13T11:30:29.000Z</Time>
            <Position>
              <LatitudeDegrees>43.13803673721849918365478515625</LatitudeDegrees>
              <LongitudeDegrees>-1.94930939935147762298583984375</LongitudeDegrees>
            </Position>
            <AltitudeMeters>317.399993896484375</AltitudeMeters>
            <DistanceMeters>NAN</DistanceMeters>
          </Trackpoint>
          <Trackpoint>
            <Time>2021-08-13T11:30:32.000Z</Time>
            <Position>
              <LatitudeDegrees>43.1379657424986362457275390625</LatitudeDegrees>
              <LongitudeDegrees>-1.9492798112332820892333984375</LongitudeDegrees>
            </Position>
            <AltitudeMeters>317.600006103515625</AltitudeMeters>
            <DistanceMeters>NAN</DistanceMeters>
          </Trackpoint>
          <Trackpoint>
            <Time>2021-08-13T11:30:36.000Z</Time>
            <Position>
              <LatitudeDegrees>43.1378723680973052978515625</LatitudeDegrees>
              <LongitudeDegrees>-1.94924402050673961639404296875</LongitudeDegrees>
            </Position>
            <AltitudeMeters>317.79998779296875</AltitudeMeters>
            <DistanceMeters>NAN</DistanceMeters>
          </Trackpoint>
          <Trackpoint>
            <Time>2021-08-13T11:30:37.000Z</Time>
            <Position>
              <LatitudeDegrees>43.13784764148294925689697265625</LatitudeDegrees>
              <LongitudeDegrees>-1.94924117065966129302978515625</LongitudeDegrees>
            </Position>
            <AltitudeMeters>318</AltitudeMeters>
            <DistanceMeters>NAN</DistanceMeters>
          </Trackpoint>
          <Trackpoint>
            <Time>2021-08-13T11:30:38.000Z</Time>
            <Position>
              <LatitudeDegrees>43.13782031647861003875732421875</LatitudeDegrees>
              <LongitudeDegrees>-1.94924066774547100067138671875</LongitudeDegrees>
            </Position>
            <AltitudeMeters>318</AltitudeMeters>
            <DistanceMeters>NAN</DistanceMeters>
          </Trackpoint>
          <Trackpoint>
            <Time>2021-08-13T11:30:39.000Z</Time>
            <Position>
              <LatitudeDegrees>43.13779349438846111297607421875</LatitudeDegrees>
              <LongitudeDegrees>-1.9492372311651706695556640625</LongitudeDegrees>
            </Position>
            <AltitudeMeters>318.20001220703125</AltitudeMeters>
            <DistanceMeters>NAN</DistanceMeters>
          </Trackpoint>
          <Trackpoint>
            <Time>2021-08-13T11:30:40.000Z</Time>
            <Position>
              <LatitudeDegrees>43.13776885159313678741455078125</LatitudeDegrees>
              <LongitudeDegrees>-1.94923329167068004608154296875</LongitudeDegrees>
            </Position>
            <AltitudeMeters>318.20001220703125</AltitudeMeters>
            <DistanceMeters>NAN</DistanceMeters>
          </Trackpoint>
          <Trackpoint>
            <Time>2021-08-13T11:30:41.000Z</Time>
            <Position>
              <LatitudeDegrees>43.13774303533136844635009765625</LatitudeDegrees>
              <LongitudeDegrees>-1.94923161529004573822021484375</LongitudeDegrees>
            </Position>
            <AltitudeMeters>318.600006103515625</AltitudeMeters>
            <DistanceMeters>NAN</DistanceMeters>
          </Trackpoint>
          <Trackpoint>
            <Time>2021-08-13T11:30:45.000Z</Time>
            <Position>
              <LatitudeDegrees>43.1376465596258640289306640625</LatitudeDegrees>
              <LongitudeDegrees>-1.94921753369271755218505859375</LongitudeDegrees>
            </Position>
            <AltitudeMeters>318.79998779296875</AltitudeMeters>
            <DistanceMeters>NAN</DistanceMeters>
          </Trackpoint>
          <Trackpoint>
            <Time>2021-08-13T11:30:50.000Z</Time>
            <Position>
              <LatitudeDegrees>43.13752309419214725494384765625</LatitudeDegrees>
              <LongitudeDegrees>-1.94921032525599002838134765625</LongitudeDegrees>
            </Position>
            <AltitudeMeters>319</AltitudeMeters>
            <DistanceMeters>NAN</DistanceMeters>
          </Trackpoint>
          <Trackpoint>
            <Time>2021-08-13T11:30:51.000Z</Time>
            <Position>
              <LatitudeDegrees>43.1374973617494106292724609375</LatitudeDegrees>
              <LongitudeDegrees>-1.949208565056324005126953125</LongitudeDegrees>
            </Position>
            <AltitudeMeters>319</AltitudeMeters>
            <DistanceMeters>NAN</DistanceMeters>
          </Trackpoint>
          <Trackpoint>
            <Time>2021-08-13T11:30:58.000Z</Time>
            <Position>
              <LatitudeDegrees>43.13730717636644840240478515625</LatitudeDegrees>
              <LongitudeDegrees>-1.94918878376483917236328125</LongitudeDegrees>
            </Position>
            <AltitudeMeters>319</AltitudeMeters>
            <DistanceMeters>NAN</DistanceMeters>
          </Trackpoint>
          <Trackpoint>
            <Time>2021-08-13T11:31:08.000Z</Time>
            <Position>
              <LatitudeDegrees>43.137023113667964935302734375</LatitudeDegrees>
              <LongitudeDegrees>-1.94914779625833034515380859375</LongitudeDegrees>
            </Position>
            <AltitudeMeters>319.20001220703125</AltitudeMeters>
            <DistanceMeters>NAN</DistanceMeters>
          </Trackpoint>
          <Trackpoint>
            <Time>2021-08-13T11:31:09.000Z</Time>
            <Position>
              <LatitudeDegrees>43.136995621025562286376953125</LatitudeDegrees>
              <LongitudeDegrees>-1.949140168726444244384765625</LongitudeDegrees>
            </Position>
            <AltitudeMeters>319.399993896484375</AltitudeMeters>
            <DistanceMeters>NAN</DistanceMeters>
          </Trackpoint>
          <Trackpoint>
            <Time>2021-08-13T11:31:10.000Z</Time>
            <Position>
              <LatitudeDegrees>43.13696586526930332183837890625</LatitudeDegrees>
              <LongitudeDegrees>-1.9491410069167613983154296875</LongitudeDegrees>
            </Position>
            <AltitudeMeters>319.399993896484375</AltitudeMeters>
            <DistanceMeters>NAN</DistanceMeters>
          </Trackpoint>
          <Trackpoint>
            <Time>2021-08-13T11:31:11.000Z</Time>
            <Position>
              <LatitudeDegrees>43.1369344331324100494384765625</LatitudeDegrees>
              <LongitudeDegrees>-1.94913036189973354339599609375</LongitudeDegrees>
            </Position>
            <AltitudeMeters>319.399993896484375</AltitudeMeters>
            <DistanceMeters>NAN</DistanceMeters>
          </Trackpoint>
          <Trackpoint>
            <Time>2021-08-13T11:31:17.000Z</Time>
            <Position>
              <LatitudeDegrees>43.136740140616893768310546875</LatitudeDegrees>
              <LongitudeDegrees>-1.9491376541554927825927734375</LongitudeDegrees>
            </Position>
            <AltitudeMeters>319.600006103515625</AltitudeMeters>
            <DistanceMeters>NAN</DistanceMeters>
          </Trackpoint>
          <Trackpoint>
            <Time>2021-08-13T11:31:20.000Z</Time>
            <Position>
              <LatitudeDegrees>43.13664969988167285919189453125</LatitudeDegrees>
              <LongitudeDegrees>-1.9491430185735225677490234375</LongitudeDegrees>
            </Position>
            <AltitudeMeters>319.79998779296875</AltitudeMeters>
            <DistanceMeters>NAN</DistanceMeters>
          </Trackpoint>
          <Trackpoint>
            <Time>2021-08-13T11:31:21.000Z</Time>
            <Position>
              <LatitudeDegrees>43.136632852256298065185546875</LatitudeDegrees>
              <LongitudeDegrees>-1.94914410822093486785888671875</LongitudeDegrees>
            </Position>
            <AltitudeMeters>319.79998779296875</AltitudeMeters>
            <DistanceMeters>NAN</DistanceMeters>
          </Trackpoint>
          <Trackpoint>
            <Time>2021-08-13T11:31:22.000Z</Time>
            <Position>
              <LatitudeDegrees>43.13660209067165851593017578125</LatitudeDegrees>
              <LongitudeDegrees>-1.94914528168737888336181640625</LongitudeDegrees>
            </Position>
            <AltitudeMeters>320</AltitudeMeters>
            <DistanceMeters>NAN</DistanceMeters>
          </Trackpoint>
          <Trackpoint>
            <Time>2021-08-13T11:31:23.000Z</Time>
            <Position>
              <LatitudeDegrees>43.13657610677182674407958984375</LatitudeDegrees>
              <LongitudeDegrees>-1.9491403363645076751708984375</LongitudeDegrees>
            </Position>
            <AltitudeMeters>320.20001220703125</AltitudeMeters>
            <DistanceMeters>NAN</DistanceMeters>
          </Trackpoint>
          <Trackpoint>
            <Time>2021-08-13T11:31:24.000Z</Time>
            <Position>
              <LatitudeDegrees>43.1365475244820117950439453125</LatitudeDegrees>
              <LongitudeDegrees>-1.949134804308414459228515625</LongitudeDegrees>
            </Position>
            <AltitudeMeters>320.20001220703125</AltitudeMeters>
            <DistanceMeters>NAN</DistanceMeters>
          </Trackpoint>
          <Trackpoint>
            <Time>2021-08-13T11:31:26.000Z</Time>
            <Position>
              <LatitudeDegrees>43.1364962272346019744873046875</LatitudeDegrees>
              <LongitudeDegrees>-1.94913237355649471282958984375</LongitudeDegrees>
            </Position>
            <AltitudeMeters>320.399993896484375</AltitudeMeters>
            <DistanceMeters>NAN</DistanceMeters>
          </Trackpoint>
          <Trackpoint>
            <Time>2021-08-13T11:31:32.000Z</Time>
            <Position>
              <LatitudeDegrees>43.1363289244472980499267578125</LatitudeDegrees>
              <LongitudeDegrees>-1.94911636412143707275390625</LongitudeDegrees>
            </Position>
            <AltitudeMeters>321</AltitudeMeters>
            <DistanceMeters>NAN</DistanceMeters>
          </Trackpoint>
          <Trackpoint>
            <Time>2021-08-13T11:31:33.000Z</Time>
            <Position>
              <LatitudeDegrees>43.1363010965287685394287109375</LatitudeDegrees>
              <LongitudeDegrees>-1.94910689257085323333740234375</LongitudeDegrees>
            </Position>
            <AltitudeMeters>321.20001220703125</AltitudeMeters>
            <DistanceMeters>NAN</DistanceMeters>
          </Trackpoint>
          <Trackpoint>
            <Time>2021-08-13T11:31:38.000Z</Time>
            <Position>
              <LatitudeDegrees>43.13616941682994365692138671875</LatitudeDegrees>
              <LongitudeDegrees>-1.94907210767269134521484375</LongitudeDegrees>
            </Position>
            <AltitudeMeters>321.600006103515625</AltitudeMeters>
            <DistanceMeters>NAN</DistanceMeters>
          </Trackpoint>
          <Trackpoint>
            <Time>2021-08-13T11:31:39.000Z</Time>
            <Position>
              <LatitudeDegrees>43.1361431814730167388916015625</LatitudeDegrees>
              <LongitudeDegrees>-1.94905509240925312042236328125</LongitudeDegrees>
            </Position>
            <AltitudeMeters>321.79998779296875</AltitudeMeters>
            <DistanceMeters>NAN</DistanceMeters>
          </Trackpoint>
          <Trackpoint>
            <Time>2021-08-13T11:31:40.000Z</Time>
            <Position>
              <LatitudeDegrees>43.1361182034015655517578125</LatitudeDegrees>
              <LongitudeDegrees>-1.94903698749840259552001953125</LongitudeDegrees>
            </Position>
            <AltitudeMeters>321.79998779296875</AltitudeMeters>
            <DistanceMeters>NAN</DistanceMeters>
          </Trackpoint>
          <Trackpoint>
            <Time>2021-08-13T11:31:41.000Z</Time>
            <Position>
              <LatitudeDegrees>43.13609205186367034912109375</LatitudeDegrees>
              <LongitudeDegrees>-1.94902022369205951690673828125</LongitudeDegrees>
            </Position>
            <AltitudeMeters>322</AltitudeMeters>
            <DistanceMeters>NAN</DistanceMeters>
          </Trackpoint>
          <Trackpoint>
            <Time>2021-08-13T11:31:43.000Z</Time>
            <Position>
              <LatitudeDegrees>43.13605022616684436798095703125</LatitudeDegrees>
              <LongitudeDegrees>-1.9489770568907260894775390625</LongitudeDegrees>
            </Position>
            <AltitudeMeters>322.399993896484375</AltitudeMeters>
            <DistanceMeters>NAN</DistanceMeters>
          </Trackpoint>
          <Trackpoint>
            <Time>2021-08-13T11:31:44.000Z</Time>
            <Position>
              <LatitudeDegrees>43.13603145070374011993408203125</LatitudeDegrees>
              <LongitudeDegrees>-1.948957778513431549072265625</LongitudeDegrees>
            </Position>
            <AltitudeMeters>322.600006103515625</AltitudeMeters>
            <DistanceMeters>NAN</DistanceMeters>
          </Trackpoint>
          <Trackpoint>
            <Time>2021-08-13T11:31:45.000Z</Time>
            <Position>
              <LatitudeDegrees>43.136009909212589263916015625</LatitudeDegrees>
              <LongitudeDegrees>-1.9489374943077564239501953125</LongitudeDegrees>
            </Position>
            <AltitudeMeters>322.600006103515625</AltitudeMeters>
            <DistanceMeters>NAN</DistanceMeters>
          </Trackpoint>
          <Trackpoint>
            <Time>2021-08-13T11:31:46.000Z</Time>
            <Position>
              <LatitudeDegrees>43.1359896250069141387939453125</LatitudeDegrees>
              <LongitudeDegrees>-1.9489146955311298370361328125</LongitudeDegrees>
            </Position>
            <AltitudeMeters>322.79998779296875</AltitudeMeters>
            <DistanceMeters>NAN</DistanceMeters>
          </Trackpoint>
          <Trackpoint>
            <Time>2021-08-13T11:31:47.000Z</Time>
            <Position>
              <LatitudeDegrees>43.13597277738153934478759765625</LatitudeDegrees>
              <LongitudeDegrees>-1.94889868609607219696044921875</LongitudeDegrees>
            </Position>
            <AltitudeMeters>323</AltitudeMeters>
            <DistanceMeters>NAN</DistanceMeters>
          </Trackpoint>
          <Trackpoint>
            <Time>2021-08-13T11:31:48.000Z</Time>
            <Position>
              <LatitudeDegrees>43.13595802523195743560791015625</LatitudeDegrees>
              <LongitudeDegrees>-1.9488895498216152191162109375</LongitudeDegrees>
            </Position>
            <AltitudeMeters>323</AltitudeMeters>
            <DistanceMeters>NAN</DistanceMeters>
          </Trackpoint>
          <Trackpoint>
            <Time>2021-08-13T11:31:49.000Z</Time>
            <Position>
              <LatitudeDegrees>43.1359527446329593658447265625</LatitudeDegrees>
              <LongitudeDegrees>-1.948869936168193817138671875</LongitudeDegrees>
            </Position>
            <AltitudeMeters>323</AltitudeMeters>
            <DistanceMeters>NAN</DistanceMeters>
          </Trackpoint>
          <Trackpoint>
            <Time>2021-08-13T11:31:50.000Z</Time>
            <Position>
              <LatitudeDegrees>43.13595567829906940460205078125</LatitudeDegrees>
              <LongitudeDegrees>-1.94884872995316982269287109375</LongitudeDegrees>
            </Position>
            <AltitudeMeters>323.20001220703125</AltitudeMeters>
            <DistanceMeters>NAN</DistanceMeters>
          </Trackpoint>
          <Trackpoint>
            <Time>2021-08-13T11:31:51.000Z</Time>
            <Position>
              <LatitudeDegrees>43.13596724532544612884521484375</LatitudeDegrees>
              <LongitudeDegrees>-1.94884805940091609954833984375</LongitudeDegrees>
            </Position>
            <AltitudeMeters>323.20001220703125</AltitudeMeters>
            <DistanceMeters>NAN</DistanceMeters>
          </Trackpoint>
          <Trackpoint>
            <Time>2021-08-13T11:31:52.000Z</Time>
            <Position>
              <LatitudeDegrees>43.135977052152156829833984375</LatitudeDegrees>
              <LongitudeDegrees>-1.948845796287059783935546875</LongitudeDegrees>
            </Position>
            <AltitudeMeters>323.20001220703125</AltitudeMeters>
            <DistanceMeters>NAN</DistanceMeters>
          </Trackpoint>
          <Trackpoint>
            <Time>2021-08-13T11:31:53.000Z</Time>
            <Position>
              <LatitudeDegrees>43.13598786480724811553955078125</LatitudeDegrees>
              <LongitudeDegrees>-1.94884219206869602203369140625</LongitudeDegrees>
            </Position>
            <AltitudeMeters>323.399993896484375</AltitudeMeters>
            <DistanceMeters>NAN</DistanceMeters>
          </Trackpoint>
          <Trackpoint>
            <Time>2021-08-13T11:32:24.000Z</Time>
            <Position>
              <LatitudeDegrees>43.13597143627703189849853515625</LatitudeDegrees>
              <LongitudeDegrees>-1.947569064795970916748046875</LongitudeDegrees>
            </Position>
            <AltitudeMeters>325.79998779296875</AltitudeMeters>
            <DistanceMeters>NAN</DistanceMeters>
          </Trackpoint>
          <Trackpoint>
            <Time>2021-08-13T11:32:25.000Z</Time>
            <Position>
              <LatitudeDegrees>43.13593204133212566375732421875</LatitudeDegrees>
              <LongitudeDegrees>-1.94753511808812618255615234375</LongitudeDegrees>
            </Position>
            <AltitudeMeters>326</AltitudeMeters>
            <DistanceMeters>NAN</DistanceMeters>
          </Trackpoint>
          <Trackpoint>
            <Time>2021-08-13T11:32:26.000Z</Time>
            <Position>
              <LatitudeDegrees>43.1359550915658473968505859375</LatitudeDegrees>
              <LongitudeDegrees>-1.9474914483726024627685546875</LongitudeDegrees>
            </Position>
            <AltitudeMeters>326</AltitudeMeters>
            <DistanceMeters>NAN</DistanceMeters>
          </Trackpoint>
          <Trackpoint>
            <Time>2021-08-13T11:32:27.000Z</Time>
            <Position>
              <LatitudeDegrees>43.1359738670289516448974609375</LatitudeDegrees>
              <LongitudeDegrees>-1.94745716638863086700439453125</LongitudeDegrees>
            </Position>
            <AltitudeMeters>326</AltitudeMeters>
            <DistanceMeters>NAN</DistanceMeters>
          </Trackpoint>
          <Trackpoint>
            <Time>2021-08-13T11:32:28.000Z</Time>
            <Position>
              <LatitudeDegrees>43.1359896250069141387939453125</LatitudeDegrees>
              <LongitudeDegrees>-1.94742196239531040191650390625</LongitudeDegrees>
            </Position>
            <AltitudeMeters>326</AltitudeMeters>
            <DistanceMeters>NAN</DistanceMeters>
          </Trackpoint>
          <Trackpoint>
            <Time>2021-08-13T11:32:29.000Z</Time>
            <Position>
              <LatitudeDegrees>43.13600957393646240234375</LatitudeDegrees>
              <LongitudeDegrees>-1.9473922066390514373779296875</LongitudeDegrees>
            </Position>
            <AltitudeMeters>326</AltitudeMeters>
            <DistanceMeters>NAN</DistanceMeters>
          </Trackpoint>
          <Trackpoint>
            <Time>2021-08-13T11:32:30.000Z</Time>
            <Position>
              <LatitudeDegrees>43.13603438436985015869140625</LatitudeDegrees>
              <LongitudeDegrees>-1.94736613892018795013427734375</LongitudeDegrees>
            </Position>
            <AltitudeMeters>326.20001220703125</AltitudeMeters>
            <DistanceMeters>NAN</DistanceMeters>
          </Trackpoint>
          <Trackpoint>
            <Time>2021-08-13T11:32:31.000Z</Time>
            <Position>
              <LatitudeDegrees>43.136060535907745361328125</LatitudeDegrees>
              <LongitudeDegrees>-1.94734451361000537872314453125</LongitudeDegrees>
            </Position>
            <AltitudeMeters>326.399993896484375</AltitudeMeters>
            <DistanceMeters>NAN</DistanceMeters>
          </Trackpoint>
          <Trackpoint>
            <Time>2021-08-13T11:32:32.000Z</Time>
            <Position>
              <LatitudeDegrees>43.13608895055949687957763671875</LatitudeDegrees>
              <LongitudeDegrees>-1.94732272066175937652587890625</LongitudeDegrees>
            </Position>
            <AltitudeMeters>326.399993896484375</AltitudeMeters>
            <DistanceMeters>NAN</DistanceMeters>
          </Trackpoint>
          <Trackpoint>
            <Time>2021-08-13T11:32:33.000Z</Time>
            <Position>
              <LatitudeDegrees>43.1361156888306140899658203125</LatitudeDegrees>
              <LongitudeDegrees>-1.94729690439999103546142578125</LongitudeDegrees>
            </Position>
            <AltitudeMeters>326.399993896484375</AltitudeMeters>
            <DistanceMeters>NAN</DistanceMeters>
          </Trackpoint>
          <Trackpoint>
            <Time>2021-08-13T11:32:34.000Z</Time>
            <Position>
              <LatitudeDegrees>43.13614393584430217742919921875</LatitudeDegrees>
              <LongitudeDegrees>-1.9472663104534149169921875</LongitudeDegrees>
            </Position>
            <AltitudeMeters>326.399993896484375</AltitudeMeters>
            <DistanceMeters>NAN</DistanceMeters>
          </Trackpoint>
          <Trackpoint>
            <Time>2021-08-13T11:32:35.000Z</Time>
            <Position>
              <LatitudeDegrees>43.13617545180022716522216796875</LatitudeDegrees>
              <LongitudeDegrees>-1.94723538123071193695068359375</LongitudeDegrees>
            </Position>
            <AltitudeMeters>326.600006103515625</AltitudeMeters>
            <DistanceMeters>NAN</DistanceMeters>
          </Trackpoint>
          <Trackpoint>
            <Time>2021-08-13T11:32:36.000Z</Time>
            <Position>
              <LatitudeDegrees>43.13620763830840587615966796875</LatitudeDegrees>
              <LongitudeDegrees>-1.94720721803605556488037109375</LongitudeDegrees>
            </Position>
            <AltitudeMeters>326.600006103515625</AltitudeMeters>
            <DistanceMeters>NAN</DistanceMeters>
          </Trackpoint>
          <Trackpoint>
            <Time>2021-08-13T11:32:37.000Z</Time>
            <Position>
              <LatitudeDegrees>43.13623647205531597137451171875</LatitudeDegrees>
              <LongitudeDegrees>-1.94718425162136554718017578125</LongitudeDegrees>
            </Position>
            <AltitudeMeters>326.600006103515625</AltitudeMeters>
            <DistanceMeters>NAN</DistanceMeters>
          </Trackpoint>
          <Trackpoint>
            <Time>2021-08-13T11:32:38.000Z</Time>
            <Position>
              <LatitudeDegrees>43.1362628750503063201904296875</LatitudeDegrees>
              <LongitudeDegrees>-1.94716564379632472991943359375</LongitudeDegrees>
            </Position>
            <AltitudeMeters>326.79998779296875</AltitudeMeters>
            <DistanceMeters>NAN</DistanceMeters>
          </Trackpoint>
          <Trackpoint>
            <Time>2021-08-13T11:32:39.000Z</Time>
            <Position>
              <LatitudeDegrees>43.13629095442593097686767578125</LatitudeDegrees>
              <LongitudeDegrees>-1.94714401848614215850830078125</LongitudeDegrees>
            </Position>
            <AltitudeMeters>326.79998779296875</AltitudeMeters>
            <DistanceMeters>NAN</DistanceMeters>
          </Trackpoint>
          <Trackpoint>
            <Time>2021-08-13T11:32:40.000Z</Time>
            <Position>
              <LatitudeDegrees>43.1363193690776824951171875</LatitudeDegrees>
              <LongitudeDegrees>-1.94711677730083465576171875</LongitudeDegrees>
            </Position>
            <AltitudeMeters>326.79998779296875</AltitudeMeters>
            <DistanceMeters>NAN</DistanceMeters>
          </Trackpoint>
          <Trackpoint>
            <Time>2021-08-13T11:32:41.000Z</Time>
            <Position>
              <LatitudeDegrees>43.136341832578182220458984375</LatitudeDegrees>
              <LongitudeDegrees>-1.947090625762939453125</LongitudeDegrees>
            </Position>
            <AltitudeMeters>326.79998779296875</AltitudeMeters>
            <DistanceMeters>NAN</DistanceMeters>
          </Trackpoint>
          <Trackpoint>
            <Time>2021-08-13T11:32:42.000Z</Time>
            <Position>
              <LatitudeDegrees>43.13637024722993373870849609375</LatitudeDegrees>
              <LongitudeDegrees>-1.9470616243779659271240234375</LongitudeDegrees>
            </Position>
            <AltitudeMeters>327</AltitudeMeters>
            <DistanceMeters>NAN</DistanceMeters>
          </Trackpoint>
          <Trackpoint>
            <Time>2021-08-13T11:32:43.000Z</Time>
            <Position>
              <LatitudeDegrees>43.13639807514846324920654296875</LatitudeDegrees>
              <LongitudeDegrees>-1.947032622992992401123046875</LongitudeDegrees>
            </Position>
            <AltitudeMeters>327</AltitudeMeters>
            <DistanceMeters>NAN</DistanceMeters>
          </Trackpoint>
          <Trackpoint>
            <Time>2021-08-13T11:32:44.000Z</Time>
            <Position>
              <LatitudeDegrees>43.1364278309047222137451171875</LatitudeDegrees>
              <LongitudeDegrees>-1.947002448141574859619140625</LongitudeDegrees>
            </Position>
            <AltitudeMeters>327</AltitudeMeters>
            <DistanceMeters>NAN</DistanceMeters>
          </Trackpoint>
          <Trackpoint>
            <Time>2021-08-13T11:32:45.000Z</Time>
            <Position>
              <LatitudeDegrees>43.1364548206329345703125</LatitudeDegrees>
              <LongitudeDegrees>-1.94697101600468158721923828125</LongitudeDegrees>
            </Position>
            <AltitudeMeters>327</AltitudeMeters>
            <DistanceMeters>NAN</DistanceMeters>
          </Trackpoint>
          <Trackpoint>
            <Time>2021-08-13T11:32:46.000Z</Time>
            <Position>
              <LatitudeDegrees>43.13648097217082977294921875</LatitudeDegrees>
              <LongitudeDegrees>-1.94694201461970806121826171875</LongitudeDegrees>
            </Position>
            <AltitudeMeters>327</AltitudeMeters>
            <DistanceMeters>NAN</DistanceMeters>
          </Trackpoint>
          <Trackpoint>
            <Time>2021-08-13T11:32:47.000Z</Time>
            <Position>
              <LatitudeDegrees>43.1365025974810123443603515625</LatitudeDegrees>
              <LongitudeDegrees>-1.94692307151854038238525390625</LongitudeDegrees>
            </Position>
            <AltitudeMeters>327.20001220703125</AltitudeMeters>
            <DistanceMeters>NAN</DistanceMeters>
          </Trackpoint>
          <Trackpoint>
            <Time>2021-08-13T11:32:48.000Z</Time>
            <Position>
              <LatitudeDegrees>43.13652883283793926239013671875</LatitudeDegrees>
              <LongitudeDegrees>-1.94689591415226459503173828125</LongitudeDegrees>
            </Position>
            <AltitudeMeters>327.20001220703125</AltitudeMeters>
            <DistanceMeters>NAN</DistanceMeters>
          </Trackpoint>
          <Trackpoint>
            <Time>2021-08-13T11:32:49.000Z</Time>
            <Position>
              <LatitudeDegrees>43.136556409299373626708984375</LatitudeDegrees>
              <LongitudeDegrees>-1.94686624221503734588623046875</LongitudeDegrees>
            </Position>
            <AltitudeMeters>327.399993896484375</AltitudeMeters>
            <DistanceMeters>NAN</DistanceMeters>
          </Trackpoint>
          <Trackpoint>
            <Time>2021-08-13T11:32:50.000Z</Time>
            <Position>
              <LatitudeDegrees>43.1365730054676532745361328125</LatitudeDegrees>
              <LongitudeDegrees>-1.94684361107647418975830078125</LongitudeDegrees>
            </Position>
            <AltitudeMeters>327.399993896484375</AltitudeMeters>
            <DistanceMeters>NAN</DistanceMeters>
          </Trackpoint>
          <Trackpoint>
            <Time>2021-08-13T11:32:51.000Z</Time>
            <Position>
              <LatitudeDegrees>43.13659756444394588470458984375</LatitudeDegrees>
              <LongitudeDegrees>-1.9468141905963420867919921875</LongitudeDegrees>
            </Position>
            <AltitudeMeters>327.399993896484375</AltitudeMeters>
            <DistanceMeters>NAN</DistanceMeters>
          </Trackpoint>
          <Trackpoint>
            <Time>2021-08-13T11:32:52.000Z</Time>
            <Position>
              <LatitudeDegrees>43.1366229616105556488037109375</LatitudeDegrees>
              <LongitudeDegrees>-1.94678242318332195281982421875</LongitudeDegrees>
            </Position>
            <AltitudeMeters>327.399993896484375</AltitudeMeters>
            <DistanceMeters>NAN</DistanceMeters>
          </Trackpoint>
          <Trackpoint>
            <Time>2021-08-13T11:32:53.000Z</Time>
            <Position>
              <LatitudeDegrees>43.13664534129202365875244140625</LatitudeDegrees>
              <LongitudeDegrees>-1.9467508234083652496337890625</LongitudeDegrees>
            </Position>
            <AltitudeMeters>327.399993896484375</AltitudeMeters>
            <DistanceMeters>NAN</DistanceMeters>
          </Trackpoint>
          <Trackpoint>
            <Time>2021-08-13T11:32:54.000Z</Time>
            <Position>
              <LatitudeDegrees>43.1366675533354282379150390625</LatitudeDegrees>
              <LongitudeDegrees>-1.946721486747264862060546875</LongitudeDegrees>
            </Position>
            <AltitudeMeters>327.600006103515625</AltitudeMeters>
            <DistanceMeters>NAN</DistanceMeters>
          </Trackpoint>
          <Trackpoint>
            <Time>2021-08-13T11:32:55.000Z</Time>
            <Position>
              <LatitudeDegrees>43.13668775372207164764404296875</LatitudeDegrees>
              <LongitudeDegrees>-1.94669240154325962066650390625</LongitudeDegrees>
            </Position>
            <AltitudeMeters>327.600006103515625</AltitudeMeters>
            <DistanceMeters>NAN</DistanceMeters>
          </Trackpoint>
          <Trackpoint>
            <Time>2021-08-13T11:32:56.000Z</Time>
            <Position>
              <LatitudeDegrees>43.13670854084193706512451171875</LatitudeDegrees>
              <LongitudeDegrees>-1.9466636516153812408447265625</LongitudeDegrees>
            </Position>
            <AltitudeMeters>327.79998779296875</AltitudeMeters>
            <DistanceMeters>NAN</DistanceMeters>
          </Trackpoint>
          <Trackpoint>
            <Time>2021-08-13T11:33:00.000Z</Time>
            <Position>
              <LatitudeDegrees>43.1367865763604640960693359375</LatitudeDegrees>
              <LongitudeDegrees>-1.9465157948434352874755859375</LongitudeDegrees>
            </Position>
            <AltitudeMeters>328.20001220703125</AltitudeMeters>
            <DistanceMeters>NAN</DistanceMeters>
          </Trackpoint>
          <Trackpoint>
            <Time>2021-08-13T11:33:02.000Z</Time>
            <Position>
              <LatitudeDegrees>43.13681364990770816802978515625</LatitudeDegrees>
              <LongitudeDegrees>-1.94644547067582607269287109375</LongitudeDegrees>
            </Position>
            <AltitudeMeters>328.399993896484375</AltitudeMeters>
            <DistanceMeters>NAN</DistanceMeters>
          </Trackpoint>
          <Trackpoint>
            <Time>2021-08-13T11:33:06.000Z</Time>
            <Position>
              <LatitudeDegrees>43.13684768043458461761474609375</LatitudeDegrees>
              <LongitudeDegrees>-1.94630465470254421234130859375</LongitudeDegrees>
            </Position>
            <AltitudeMeters>328.600006103515625</AltitudeMeters>
            <DistanceMeters>NAN</DistanceMeters>
          </Trackpoint>
          <Trackpoint>
            <Time>2021-08-13T11:33:07.000Z</Time>
            <Position>
              <LatitudeDegrees>43.13685245811939239501953125</LatitudeDegrees>
              <LongitudeDegrees>-1.9462733902037143707275390625</LongitudeDegrees>
            </Position>
            <AltitudeMeters>328.600006103515625</AltitudeMeters>
            <DistanceMeters>NAN</DistanceMeters>
          </Trackpoint>
          <Trackpoint>
            <Time>2021-08-13T11:33:08.000Z</Time>
            <Position>
              <LatitudeDegrees>43.13685555942356586456298828125</LatitudeDegrees>
              <LongitudeDegrees>-1.94622485898435115814208984375</LongitudeDegrees>
            </Position>
            <AltitudeMeters>328.600006103515625</AltitudeMeters>
            <DistanceMeters>NAN</DistanceMeters>
          </Trackpoint>
          <Trackpoint>
            <Time>2021-08-13T11:33:12.000Z</Time>
            <Position>
              <LatitudeDegrees>43.1368361972272396087646484375</LatitudeDegrees>
              <LongitudeDegrees>-1.94605730473995208740234375</LongitudeDegrees>
            </Position>
            <AltitudeMeters>329</AltitudeMeters>
            <DistanceMeters>NAN</DistanceMeters>
          </Trackpoint>
          <Trackpoint>
            <Time>2021-08-13T11:33:13.000Z</Time>
            <Position>
              <LatitudeDegrees>43.13683510757982730865478515625</LatitudeDegrees>
              <LongitudeDegrees>-1.94601816125214099884033203125</LongitudeDegrees>
            </Position>
            <AltitudeMeters>329</AltitudeMeters>
            <DistanceMeters>NAN</DistanceMeters>
          </Trackpoint>
          <Trackpoint>
            <Time>2021-08-13T11:33:17.000Z</Time>
            <Position>
              <LatitudeDegrees>43.13679202459752559661865234375</LatitudeDegrees>
              <LongitudeDegrees>-1.94582856260240077972412109375</LongitudeDegrees>
            </Position>
            <AltitudeMeters>329.20001220703125</AltitudeMeters>
            <DistanceMeters>NAN</DistanceMeters>
          </Trackpoint>
          <Trackpoint>
            <Time>2021-08-13T11:33:22.000Z</Time>
            <Position>
              <LatitudeDegrees>43.13672111369669437408447265625</LatitudeDegrees>
              <LongitudeDegrees>-1.945629157125949859619140625</LongitudeDegrees>
            </Position>
            <AltitudeMeters>329.399993896484375</AltitudeMeters>
            <DistanceMeters>NAN</DistanceMeters>
          </Trackpoint>
          <Trackpoint>
            <Time>2021-08-13T11:33:27.000Z</Time>
            <Position>
              <LatitudeDegrees>43.13665221445262432098388671875</LatitudeDegrees>
              <LongitudeDegrees>-1.94541902281343936920166015625</LongitudeDegrees>
            </Position>
            <AltitudeMeters>329.600006103515625</AltitudeMeters>
            <DistanceMeters>NAN</DistanceMeters>
          </Trackpoint>
          <Trackpoint>
            <Time>2021-08-13T11:33:28.000Z</Time>
            <Position>
              <LatitudeDegrees>43.13662991859018802642822265625</LatitudeDegrees>
              <LongitudeDegrees>-1.94537677802145481109619140625</LongitudeDegrees>
            </Position>
            <AltitudeMeters>329.79998779296875</AltitudeMeters>
            <DistanceMeters>NAN</DistanceMeters>
          </Trackpoint>
          <Trackpoint>
            <Time>2021-08-13T11:33:29.000Z</Time>
            <Position>
              <LatitudeDegrees>43.13660745508968830108642578125</LatitudeDegrees>
              <LongitudeDegrees>-1.94533855654299259185791015625</LongitudeDegrees>
            </Position>
            <AltitudeMeters>329.79998779296875</AltitudeMeters>
            <DistanceMeters>NAN</DistanceMeters>
          </Trackpoint>
          <Trackpoint>
            <Time>2021-08-13T11:33:31.000Z</Time>
            <Position>
              <LatitudeDegrees>43.1365652941167354583740234375</LatitudeDegrees>
              <LongitudeDegrees>-1.94528558291494846343994140625</LongitudeDegrees>
            </Position>
            <AltitudeMeters>329.79998779296875</AltitudeMeters>
            <DistanceMeters>NAN</DistanceMeters>
          </Trackpoint>
          <Trackpoint>
            <Time>2021-08-13T11:33:33.000Z</Time>
            <Position>
              <LatitudeDegrees>43.13653067685663700103759765625</LatitudeDegrees>
              <LongitudeDegrees>-1.9452179409563541412353515625</LongitudeDegrees>
            </Position>
            <AltitudeMeters>330</AltitudeMeters>
            <DistanceMeters>NAN</DistanceMeters>
          </Trackpoint>
          <Trackpoint>
            <Time>2021-08-13T11:33:34.000Z</Time>
            <Position>
              <LatitudeDegrees>43.1365079618990421295166015625</LatitudeDegrees>
              <LongitudeDegrees>-1.94519304670393466949462890625</LongitudeDegrees>
            </Position>
            <AltitudeMeters>330</AltitudeMeters>
            <DistanceMeters>NAN</DistanceMeters>
          </Trackpoint>
          <Trackpoint>
            <Time>2021-08-13T11:33:35.000Z</Time>
            <Position>
              <LatitudeDegrees>43.1364865042269229888916015625</LatitudeDegrees>
              <LongitudeDegrees>-1.94516974501311779022216796875</LongitudeDegrees>
            </Position>
            <AltitudeMeters>330</AltitudeMeters>
            <DistanceMeters>NAN</DistanceMeters>
          </Trackpoint>
          <Trackpoint>
            <Time>2021-08-13T11:33:37.000Z</Time>
            <Position>
              <LatitudeDegrees>43.13644182868301868438720703125</LatitudeDegrees>
              <LongitudeDegrees>-1.94512029178440570831298828125</LongitudeDegrees>
            </Position>
            <AltitudeMeters>330.20001220703125</AltitudeMeters>
            <DistanceMeters>NAN</DistanceMeters>
          </Trackpoint>
          <Trackpoint>
            <Time>2021-08-13T11:33:43.000Z</Time>
            <Position>
              <LatitudeDegrees>43.136314339935779571533203125</LatitudeDegrees>
              <LongitudeDegrees>-1.94495533592998981475830078125</LongitudeDegrees>
            </Position>
            <AltitudeMeters>330.600006103515625</AltitudeMeters>
            <DistanceMeters>NAN</DistanceMeters>
          </Trackpoint>
          <Trackpoint>
            <Time>2021-08-13T11:33:48.000Z</Time>
            <Position>
              <LatitudeDegrees>43.13619657419621944427490234375</LatitudeDegrees>
              <LongitudeDegrees>-1.9448228180408477783203125</LongitudeDegrees>
            </Position>
            <AltitudeMeters>330.79998779296875</AltitudeMeters>
            <DistanceMeters>NAN</DistanceMeters>
          </Trackpoint>
          <Trackpoint>
            <Time>2021-08-13T11:33:50.000Z</Time>
            <Position>
              <LatitudeDegrees>43.13614376820623874664306640625</LatitudeDegrees>
              <LongitudeDegrees>-1.94478987716138362884521484375</LongitudeDegrees>
            </Position>
            <AltitudeMeters>330.79998779296875</AltitudeMeters>
            <DistanceMeters>NAN</DistanceMeters>
          </Trackpoint>
          <Trackpoint>
            <Time>2021-08-13T11:33:52.000Z</Time>
            <Position>
              <LatitudeDegrees>43.13609649427235126495361328125</LatitudeDegrees>
              <LongitudeDegrees>-1.94473925046622753143310546875</LongitudeDegrees>
            </Position>
            <AltitudeMeters>331</AltitudeMeters>
            <DistanceMeters>NAN</DistanceMeters>
          </Trackpoint>
          <Trackpoint>
            <Time>2021-08-13T11:33:57.000Z</Time>
            <Position>
              <LatitudeDegrees>43.135962300002574920654296875</LatitudeDegrees>
              <LongitudeDegrees>-1.9446003623306751251220703125</LongitudeDegrees>
            </Position>
            <AltitudeMeters>331.399993896484375</AltitudeMeters>
            <DistanceMeters>NAN</DistanceMeters>
          </Trackpoint>
          <Trackpoint>
            <Time>2021-08-13T11:34:01.000Z</Time>
            <Position>
              <LatitudeDegrees>43.13584352843463420867919921875</LatitudeDegrees>
              <LongitudeDegrees>-1.9444967620074748992919921875</LongitudeDegrees>
            </Position>
            <AltitudeMeters>331.399993896484375</AltitudeMeters>
            <DistanceMeters>NAN</DistanceMeters>
          </Trackpoint>
          <Trackpoint>
            <Time>2021-08-13T11:34:02.000Z</Time>
            <Position>
              <LatitudeDegrees>43.13581352122128009796142578125</LatitudeDegrees>
              <LongitudeDegrees>-1.94447672925889492034912109375</LongitudeDegrees>
            </Position>
            <AltitudeMeters>331.600006103515625</AltitudeMeters>
            <DistanceMeters>NAN</DistanceMeters>
          </Trackpoint>
          <Trackpoint>
            <Time>2021-08-13T11:34:05.000Z</Time>
            <Position>
              <LatitudeDegrees>43.13573506660759449005126953125</LatitudeDegrees>
              <LongitudeDegrees>-1.9443877972662448883056640625</LongitudeDegrees>
            </Position>
            <AltitudeMeters>331.79998779296875</AltitudeMeters>
            <DistanceMeters>NAN</DistanceMeters>
          </Trackpoint>
          <Trackpoint>
            <Time>2021-08-13T11:34:06.000Z</Time>
            <Position>
              <LatitudeDegrees>43.1357066519558429718017578125</LatitudeDegrees>
              <LongitudeDegrees>-1.94435871206223964691162109375</LongitudeDegrees>
            </Position>
            <AltitudeMeters>331.79998779296875</AltitudeMeters>
            <DistanceMeters>NAN</DistanceMeters>
          </Trackpoint>
          <Trackpoint>
            <Time>2021-08-13T11:34:08.000Z</Time>
            <Position>
              <LatitudeDegrees>43.13564504496753215789794921875</LatitudeDegrees>
              <LongitudeDegrees>-1.9443059898912906646728515625</LongitudeDegrees>
            </Position>
            <AltitudeMeters>332</AltitudeMeters>
            <DistanceMeters>NAN</DistanceMeters>
          </Trackpoint>
          <Trackpoint>
            <Time>2021-08-13T11:34:09.000Z</Time>
            <Position>
              <LatitudeDegrees>43.1356157921254634857177734375</LatitudeDegrees>
              <LongitudeDegrees>-1.94428310729563236236572265625</LongitudeDegrees>
            </Position>
            <AltitudeMeters>332</AltitudeMeters>
            <DistanceMeters>NAN</DistanceMeters>
          </Trackpoint>
          <Trackpoint>
            <Time>2021-08-13T11:34:10.000Z</Time>
            <Position>
              <LatitudeDegrees>43.135585449635982513427734375</LatitudeDegrees>
              <LongitudeDegrees>-1.94425544701516628265380859375</LongitudeDegrees>
            </Position>
            <AltitudeMeters>332.20001220703125</AltitudeMeters>
            <DistanceMeters>NAN</DistanceMeters>
          </Trackpoint>
          <Trackpoint>
            <Time>2021-08-13T11:34:13.000Z</Time>
            <Position>
              <LatitudeDegrees>43.135492242872714996337890625</LatitudeDegrees>
              <LongitudeDegrees>-1.94418302737176418304443359375</LongitudeDegrees>
            </Position>
            <AltitudeMeters>332.399993896484375</AltitudeMeters>
            <DistanceMeters>NAN</DistanceMeters>
          </Trackpoint>
          <Trackpoint>
            <Time>2021-08-13T11:34:15.000Z</Time>
            <Position>
              <LatitudeDegrees>43.1354280374944210052490234375</LatitudeDegrees>
              <LongitudeDegrees>-1.94417397491633892059326171875</LongitudeDegrees>
            </Position>
            <AltitudeMeters>332.399993896484375</AltitudeMeters>
            <DistanceMeters>NAN</DistanceMeters>
          </Trackpoint>
          <Trackpoint>
            <Time>2021-08-13T11:34:16.000Z</Time>
            <Position>
              <LatitudeDegrees>43.13539911992847919464111328125</LatitudeDegrees>
              <LongitudeDegrees>-1.9441722147166728973388671875</LongitudeDegrees>
            </Position>
            <AltitudeMeters>332.600006103515625</AltitudeMeters>
            <DistanceMeters>NAN</DistanceMeters>
          </Trackpoint>
          <Trackpoint>
            <Time>2021-08-13T11:34:17.000Z</Time>
            <Position>
              <LatitudeDegrees>43.13536391593515872955322265625</LatitudeDegrees>
              <LongitudeDegrees>-1.94414480589330196380615234375</LongitudeDegrees>
            </Position>
            <AltitudeMeters>332.600006103515625</AltitudeMeters>
            <DistanceMeters>NAN</DistanceMeters>
          </Trackpoint>
          <Trackpoint>
            <Time>2021-08-13T11:34:18.000Z</Time>
            <Position>
              <LatitudeDegrees>43.13533726148307323455810546875</LatitudeDegrees>
              <LongitudeDegrees>-1.94412502460181713104248046875</LongitudeDegrees>
            </Position>
            <AltitudeMeters>332.79998779296875</AltitudeMeters>
            <DistanceMeters>NAN</DistanceMeters>
          </Trackpoint>
          <Trackpoint>
            <Time>2021-08-13T11:34:19.000Z</Time>
            <Position>
              <LatitudeDegrees>43.13531395979225635528564453125</LatitudeDegrees>
              <LongitudeDegrees>-1.944102309644222259521484375</LongitudeDegrees>
            </Position>
            <AltitudeMeters>332.79998779296875</AltitudeMeters>
            <DistanceMeters>NAN</DistanceMeters>
          </Trackpoint>
          <Trackpoint>
            <Time>2021-08-13T11:34:20.000Z</Time>
            <Position>
              <LatitudeDegrees>43.1352915801107883453369140625</LatitudeDegrees>
              <LongitudeDegrees>-1.94408797658979892730712890625</LongitudeDegrees>
            </Position>
            <AltitudeMeters>333</AltitudeMeters>
            <DistanceMeters>NAN</DistanceMeters>
          </Trackpoint>
          <Trackpoint>
            <Time>2021-08-13T11:34:22.000Z</Time>
            <Position>
              <LatitudeDegrees>43.1352194957435131072998046875</LatitudeDegrees>
              <LongitudeDegrees>-1.9440723024308681488037109375</LongitudeDegrees>
            </Position>
            <AltitudeMeters>333</AltitudeMeters>
            <DistanceMeters>NAN</DistanceMeters>
          </Trackpoint>
          <Trackpoint>
            <Time>2021-08-13T11:34:23.000Z</Time>
            <Position>
              <LatitudeDegrees>43.13517750240862369537353515625</LatitudeDegrees>
              <LongitudeDegrees>-1.9440676085650920867919921875</LongitudeDegrees>
            </Position>
            <AltitudeMeters>333</AltitudeMeters>
            <DistanceMeters>NAN</DistanceMeters>
          </Trackpoint>
          <Trackpoint>
            <Time>2021-08-13T11:34:24.000Z</Time>
            <Position>
              <LatitudeDegrees>43.13513676635921001434326171875</LatitudeDegrees>
              <LongitudeDegrees>-1.94405679591000080108642578125</LongitudeDegrees>
            </Position>
            <AltitudeMeters>333</AltitudeMeters>
            <DistanceMeters>NAN</DistanceMeters>
          </Trackpoint>
          <Trackpoint>
            <Time>2021-08-13T11:34:27.000Z</Time>
            <Position>
              <LatitudeDegrees>43.135026879608631134033203125</LatitudeDegrees>
              <LongitudeDegrees>-1.94404154084622859954833984375</LongitudeDegrees>
            </Position>
            <AltitudeMeters>333.20001220703125</AltitudeMeters>
            <DistanceMeters>NAN</DistanceMeters>
          </Trackpoint>
          <Trackpoint>
            <Time>2021-08-13T11:34:29.000Z</Time>
            <Position>
              <LatitudeDegrees>43.1349623389542102813720703125</LatitudeDegrees>
              <LongitudeDegrees>-1.9440146349370479583740234375</LongitudeDegrees>
            </Position>
            <AltitudeMeters>333.399993896484375</AltitudeMeters>
            <DistanceMeters>NAN</DistanceMeters>
          </Trackpoint>
          <Trackpoint>
            <Time>2021-08-13T11:34:30.000Z</Time>
            <Position>
              <LatitudeDegrees>43.13493325375020503997802734375</LatitudeDegrees>
              <LongitudeDegrees>-1.9439931772649288177490234375</LongitudeDegrees>
            </Position>
            <AltitudeMeters>333.399993896484375</AltitudeMeters>
            <DistanceMeters>NAN</DistanceMeters>
          </Trackpoint>
          <Trackpoint>
            <Time>2021-08-13T11:34:32.000Z</Time>
            <Position>
              <LatitudeDegrees>43.13487759791314601898193359375</LatitudeDegrees>
              <LongitudeDegrees>-1.943967528641223907470703125</LongitudeDegrees>
            </Position>
            <AltitudeMeters>333.600006103515625</AltitudeMeters>
            <DistanceMeters>NAN</DistanceMeters>
          </Trackpoint>
          <Trackpoint>
            <Time>2021-08-13T11:34:33.000Z</Time>
            <Position>
              <LatitudeDegrees>43.1348459981381893157958984375</LatitudeDegrees>
              <LongitudeDegrees>-1.94396140985190868377685546875</LongitudeDegrees>
            </Position>
            <AltitudeMeters>333.79998779296875</AltitudeMeters>
            <DistanceMeters>NAN</DistanceMeters>
          </Trackpoint>
          <Trackpoint>
            <Time>2021-08-13T11:34:34.000Z</Time>
            <Position>
              <LatitudeDegrees>43.1348181702196598052978515625</LatitudeDegrees>
              <LongitudeDegrees>-1.94395503960549831390380859375</LongitudeDegrees>
            </Position>
            <AltitudeMeters>333.79998779296875</AltitudeMeters>
            <DistanceMeters>NAN</DistanceMeters>
          </Trackpoint>
          <Trackpoint>
            <Time>2021-08-13T11:34:35.000Z</Time>
            <Position>
              <LatitudeDegrees>43.1348014064133167266845703125</LatitudeDegrees>
              <LongitudeDegrees>-1.94395202212035655975341796875</LongitudeDegrees>
            </Position>
            <AltitudeMeters>333.79998779296875</AltitudeMeters>
            <DistanceMeters>NAN</DistanceMeters>
          </Trackpoint>
          <Trackpoint>
            <Time>2021-08-13T11:34:36.000Z</Time>
            <Position>
              <LatitudeDegrees>43.1347950361669063568115234375</LatitudeDegrees>
              <LongitudeDegrees>-1.94394079037010669708251953125</LongitudeDegrees>
            </Position>
            <AltitudeMeters>334</AltitudeMeters>
            <DistanceMeters>NAN</DistanceMeters>
          </Trackpoint>
          <Trackpoint>
            <Time>2021-08-13T11:34:48.000Z</Time>
            <Position>
              <LatitudeDegrees>43.13441407866775989532470703125</LatitudeDegrees>
              <LongitudeDegrees>-1.9437782652676105499267578125</LongitudeDegrees>
            </Position>
            <AltitudeMeters>335.79998779296875</AltitudeMeters>
            <DistanceMeters>NAN</DistanceMeters>
          </Trackpoint>
          <Trackpoint>
            <Time>2021-08-13T11:34:49.000Z</Time>
            <Position>
              <LatitudeDegrees>43.13441189937293529510498046875</LatitudeDegrees>
              <LongitudeDegrees>-1.943726129829883575439453125</LongitudeDegrees>
            </Position>
            <AltitudeMeters>335.79998779296875</AltitudeMeters>
            <DistanceMeters>NAN</DistanceMeters>
          </Trackpoint>
          <Trackpoint>
            <Time>2021-08-13T11:34:51.000Z</Time>
            <Position>
              <LatitudeDegrees>43.1343699060380458831787109375</LatitudeDegrees>
              <LongitudeDegrees>-1.94364323280751705169677734375</LongitudeDegrees>
            </Position>
            <AltitudeMeters>335.79998779296875</AltitudeMeters>
            <DistanceMeters>NAN</DistanceMeters>
          </Trackpoint>
          <Trackpoint>
            <Time>2021-08-13T11:34:52.000Z</Time>
            <Position>
              <LatitudeDegrees>43.13434467650949954986572265625</LatitudeDegrees>
              <LongitudeDegrees>-1.9436089508235454559326171875</LongitudeDegrees>
            </Position>
            <AltitudeMeters>335.79998779296875</AltitudeMeters>
            <DistanceMeters>NAN</DistanceMeters>
          </Trackpoint>
          <Trackpoint>
            <Time>2021-08-13T11:34:53.000Z</Time>
            <Position>
              <LatitudeDegrees>43.1343216262757778167724609375</LatitudeDegrees>
              <LongitudeDegrees>-1.9435774348676204681396484375</LongitudeDegrees>
            </Position>
            <AltitudeMeters>336</AltitudeMeters>
            <DistanceMeters>NAN</DistanceMeters>
          </Trackpoint>
          <Trackpoint>
            <Time>2021-08-13T11:34:54.000Z</Time>
            <Position>
              <LatitudeDegrees>43.13429421745240688323974609375</LatitudeDegrees>
              <LongitudeDegrees>-1.94355069659650325775146484375</LongitudeDegrees>
            </Position>
            <AltitudeMeters>336</AltitudeMeters>
            <DistanceMeters>NAN</DistanceMeters>
          </Trackpoint>
          <Trackpoint>
            <Time>2021-08-13T11:34:55.000Z</Time>
            <Position>
              <LatitudeDegrees>43.1342709995806217193603515625</LatitudeDegrees>
              <LongitudeDegrees>-1.94352236576378345489501953125</LongitudeDegrees>
            </Position>
            <AltitudeMeters>336.20001220703125</AltitudeMeters>
            <DistanceMeters>NAN</DistanceMeters>
          </Trackpoint>
          <Trackpoint>
            <Time>2021-08-13T11:34:56.000Z</Time>
            <Position>
              <LatitudeDegrees>43.1342492066323757171630859375</LatitudeDegrees>
              <LongitudeDegrees>-1.94349889643490314483642578125</LongitudeDegrees>
            </Position>
            <AltitudeMeters>336.20001220703125</AltitudeMeters>
            <DistanceMeters>NAN</DistanceMeters>
          </Trackpoint>
          <Trackpoint>
            <Time>2021-08-13T11:34:57.000Z</Time>
            <Position>
              <LatitudeDegrees>43.13422657549381256103515625</LatitudeDegrees>
              <LongitudeDegrees>-1.9434704817831516265869140625</LongitudeDegrees>
            </Position>
            <AltitudeMeters>336.399993896484375</AltitudeMeters>
            <DistanceMeters>NAN</DistanceMeters>
          </Trackpoint>
          <Trackpoint>
            <Time>2021-08-13T11:34:58.000Z</Time>
            <Position>
              <LatitudeDegrees>43.1342150084674358367919921875</LatitudeDegrees>
              <LongitudeDegrees>-1.94343745708465576171875</LongitudeDegrees>
            </Position>
            <AltitudeMeters>336.20001220703125</AltitudeMeters>
            <DistanceMeters>NAN</DistanceMeters>
          </Trackpoint>
          <Trackpoint>
            <Time>2021-08-13T11:34:59.000Z</Time>
            <Position>
              <LatitudeDegrees>43.13419598154723644256591796875</LatitudeDegrees>
              <LongitudeDegrees>-1.94340719841420650482177734375</LongitudeDegrees>
            </Position>
            <AltitudeMeters>336.399993896484375</AltitudeMeters>
            <DistanceMeters>NAN</DistanceMeters>
          </Trackpoint>
          <Trackpoint>
            <Time>2021-08-13T11:35:00.000Z</Time>
            <Position>
              <LatitudeDegrees>43.1341861747205257415771484375</LatitudeDegrees>
              <LongitudeDegrees>-1.94337836466729640960693359375</LongitudeDegrees>
            </Position>
            <AltitudeMeters>336.399993896484375</AltitudeMeters>
            <DistanceMeters>NAN</DistanceMeters>
          </Trackpoint>
          <Trackpoint>
            <Time>2021-08-13T11:35:01.000Z</Time>
            <Position>
              <LatitudeDegrees>43.13417695462703704833984375</LatitudeDegrees>
              <LongitudeDegrees>-1.94335087202489376068115234375</LongitudeDegrees>
            </Position>
            <AltitudeMeters>336.600006103515625</AltitudeMeters>
            <DistanceMeters>NAN</DistanceMeters>
          </Trackpoint>
          <Trackpoint>
            <Time>2021-08-13T11:35:02.000Z</Time>
            <Position>
              <LatitudeDegrees>43.1341734342277050018310546875</LatitudeDegrees>
              <LongitudeDegrees>-1.9433243013918399810791015625</LongitudeDegrees>
            </Position>
            <AltitudeMeters>336.600006103515625</AltitudeMeters>
            <DistanceMeters>NAN</DistanceMeters>
          </Trackpoint>
          <Trackpoint>
            <Time>2021-08-13T11:35:03.000Z</Time>
            <Position>
              <LatitudeDegrees>43.13416957855224609375</LatitudeDegrees>
              <LongitudeDegrees>-1.9433001615107059478759765625</LongitudeDegrees>
            </Position>
            <AltitudeMeters>336.79998779296875</AltitudeMeters>
            <DistanceMeters>NAN</DistanceMeters>
          </Trackpoint>
          <Trackpoint>
            <Time>2021-08-13T11:35:04.000Z</Time>
            <Position>
              <LatitudeDegrees>43.134161531925201416015625</LatitudeDegrees>
              <LongitudeDegrees>-1.94328716956079006195068359375</LongitudeDegrees>
            </Position>
            <AltitudeMeters>336.79998779296875</AltitudeMeters>
            <DistanceMeters>NAN</DistanceMeters>
          </Trackpoint>
          <Trackpoint>
            <Time>2021-08-13T11:35:05.000Z</Time>
            <Position>
              <LatitudeDegrees>43.13414837233722209930419921875</LatitudeDegrees>
              <LongitudeDegrees>-1.94328465498983860015869140625</LongitudeDegrees>
            </Position>
            <AltitudeMeters>336.79998779296875</AltitudeMeters>
            <DistanceMeters>NAN</DistanceMeters>
          </Trackpoint>
          <Trackpoint>
            <Time>2021-08-13T11:35:27.000Z</Time>
            <Position>
              <LatitudeDegrees>43.133689463138580322265625</LatitudeDegrees>
              <LongitudeDegrees>-1.94239030592143535614013671875</LongitudeDegrees>
            </Position>
            <AltitudeMeters>339.20001220703125</AltitudeMeters>
            <DistanceMeters>NAN</DistanceMeters>
          </Trackpoint>
          <Trackpoint>
            <Time>2021-08-13T11:35:28.000Z</Time>
            <Position>
              <LatitudeDegrees>43.133697845041751861572265625</LatitudeDegrees>
              <LongitudeDegrees>-1.9423198141157627105712890625</LongitudeDegrees>
            </Position>
            <AltitudeMeters>339.20001220703125</AltitudeMeters>
            <DistanceMeters>NAN</DistanceMeters>
          </Trackpoint>
          <Trackpoint>
            <Time>2021-08-13T11:35:29.000Z</Time>
            <Position>
              <LatitudeDegrees>43.13373229466378688812255859375</LatitudeDegrees>
              <LongitudeDegrees>-1.9422675110399723052978515625</LongitudeDegrees>
            </Position>
            <AltitudeMeters>339.399993896484375</AltitudeMeters>
            <DistanceMeters>NAN</DistanceMeters>
          </Trackpoint>
          <Trackpoint>
            <Time>2021-08-13T11:35:30.000Z</Time>
            <Position>
              <LatitudeDegrees>43.13371351920068264007568359375</LatitudeDegrees>
              <LongitudeDegrees>-1.9422500766813755035400390625</LongitudeDegrees>
            </Position>
            <AltitudeMeters>339.399993896484375</AltitudeMeters>
            <DistanceMeters>NAN</DistanceMeters>
          </Trackpoint>
          <Trackpoint>
            <Time>2021-08-13T11:35:31.000Z</Time>
            <Position>
              <LatitudeDegrees>43.1336953304708003997802734375</LatitudeDegrees>
              <LongitudeDegrees>-1.94219232536852359771728515625</LongitudeDegrees>
            </Position>
            <AltitudeMeters>339.399993896484375</AltitudeMeters>
            <DistanceMeters>NAN</DistanceMeters>
          </Trackpoint>
          <Trackpoint>
            <Time>2021-08-13T11:35:32.000Z</Time>
            <Position>
              <LatitudeDegrees>43.1336882896721363067626953125</LatitudeDegrees>
              <LongitudeDegrees>-1.94214941002428531646728515625</LongitudeDegrees>
            </Position>
            <AltitudeMeters>339.600006103515625</AltitudeMeters>
            <DistanceMeters>NAN</DistanceMeters>
          </Trackpoint>
          <Trackpoint>
            <Time>2021-08-13T11:35:33.000Z</Time>
            <Position>
              <LatitudeDegrees>43.13368611037731170654296875</LatitudeDegrees>
              <LongitudeDegrees>-1.9421057403087615966796875</LongitudeDegrees>
            </Position>
            <AltitudeMeters>339.600006103515625</AltitudeMeters>
            <DistanceMeters>NAN</DistanceMeters>
          </Trackpoint>
          <Trackpoint>
            <Time>2021-08-13T11:35:34.000Z</Time>
            <Position>
              <LatitudeDegrees>43.1336976774036884307861328125</LatitudeDegrees>
              <LongitudeDegrees>-1.94207020103931427001953125</LongitudeDegrees>
            </Position>
            <AltitudeMeters>339.600006103515625</AltitudeMeters>
            <DistanceMeters>NAN</DistanceMeters>
          </Trackpoint>
          <Trackpoint>
            <Time>2021-08-13T11:35:35.000Z</Time>
            <Position>
              <LatitudeDegrees>43.13370765186846256256103515625</LatitudeDegrees>
              <LongitudeDegrees>-1.94202971644699573516845703125</LongitudeDegrees>
            </Position>
            <AltitudeMeters>339.600006103515625</AltitudeMeters>
            <DistanceMeters>NAN</DistanceMeters>
          </Trackpoint>
          <Trackpoint>
            <Time>2021-08-13T11:35:36.000Z</Time>
            <Position>
              <LatitudeDegrees>43.13371418975293636322021484375</LatitudeDegrees>
              <LongitudeDegrees>-1.94198613055050373077392578125</LongitudeDegrees>
            </Position>
            <AltitudeMeters>339.79998779296875</AltitudeMeters>
            <DistanceMeters>NAN</DistanceMeters>
          </Trackpoint>
          <Trackpoint>
            <Time>2021-08-13T11:35:37.000Z</Time>
            <Position>
              <LatitudeDegrees>43.13372022472321987152099609375</LatitudeDegrees>
              <LongitudeDegrees>-1.94193030707538127899169921875</LongitudeDegrees>
            </Position>
            <AltitudeMeters>340</AltitudeMeters>
            <DistanceMeters>NAN</DistanceMeters>
          </Trackpoint>
          <Trackpoint>
            <Time>2021-08-13T11:35:38.000Z</Time>
            <Position>
              <LatitudeDegrees>43.13372458331286907196044921875</LatitudeDegrees>
              <LongitudeDegrees>-1.9418896548449993133544921875</LongitudeDegrees>
            </Position>
            <AltitudeMeters>340</AltitudeMeters>
            <DistanceMeters>NAN</DistanceMeters>
          </Trackpoint>
          <Trackpoint>
            <Time>2021-08-13T11:35:39.000Z</Time>
            <Position>
              <LatitudeDegrees>43.1337328813970088958740234375</LatitudeDegrees>
              <LongitudeDegrees>-1.941842548549175262451171875</LongitudeDegrees>
            </Position>
            <AltitudeMeters>340.20001220703125</AltitudeMeters>
            <DistanceMeters>NAN</DistanceMeters>
          </Trackpoint>
          <Trackpoint>
            <Time>2021-08-13T11:35:40.000Z</Time>
            <Position>
              <LatitudeDegrees>43.13375274650752544403076171875</LatitudeDegrees>
              <LongitudeDegrees>-1.94179904647171497344970703125</LongitudeDegrees>
            </Position>
            <AltitudeMeters>340.399993896484375</AltitudeMeters>
            <DistanceMeters>NAN</DistanceMeters>
          </Trackpoint>
          <Trackpoint>
            <Time>2021-08-13T11:35:41.000Z</Time>
            <Position>
              <LatitudeDegrees>43.1337687559425830841064453125</LatitudeDegrees>
              <LongitudeDegrees>-1.94175680167973041534423828125</LongitudeDegrees>
            </Position>
            <AltitudeMeters>340.399993896484375</AltitudeMeters>
            <DistanceMeters>NAN</DistanceMeters>
          </Trackpoint>
          <Trackpoint>
            <Time>2021-08-13T11:35:42.000Z</Time>
            <Position>
              <LatitudeDegrees>43.13378803431987762451171875</LatitudeDegrees>
              <LongitudeDegrees>-1.94171707145869731903076171875</LongitudeDegrees>
            </Position>
            <AltitudeMeters>340.399993896484375</AltitudeMeters>
            <DistanceMeters>NAN</DistanceMeters>
          </Trackpoint>
          <Trackpoint>
            <Time>2021-08-13T11:35:43.000Z</Time>
            <Position>
              <LatitudeDegrees>43.1337955780327320098876953125</LatitudeDegrees>
              <LongitudeDegrees>-1.94166979752480983734130859375</LongitudeDegrees>
            </Position>
            <AltitudeMeters>340.600006103515625</AltitudeMeters>
            <DistanceMeters>NAN</DistanceMeters>
          </Trackpoint>
          <Trackpoint>
            <Time>2021-08-13T11:35:44.000Z</Time>
            <Position>
              <LatitudeDegrees>43.1337942369282245635986328125</LatitudeDegrees>
              <LongitudeDegrees>-1.94162067957222461700439453125</LongitudeDegrees>
            </Position>
            <AltitudeMeters>340.600006103515625</AltitudeMeters>
            <DistanceMeters>NAN</DistanceMeters>
          </Trackpoint>
          <Trackpoint>
            <Time>2021-08-13T11:35:45.000Z</Time>
            <Position>
              <LatitudeDegrees>43.13380538485944271087646484375</LatitudeDegrees>
              <LongitudeDegrees>-1.94157290272414684295654296875</LongitudeDegrees>
            </Position>
            <AltitudeMeters>340.600006103515625</AltitudeMeters>
            <DistanceMeters>NAN</DistanceMeters>
          </Trackpoint>
          <Trackpoint>
            <Time>2021-08-13T11:35:46.000Z</Time>
            <Position>
              <LatitudeDegrees>43.133822567760944366455078125</LatitudeDegrees>
              <LongitudeDegrees>-1.9415302388370037078857421875</LongitudeDegrees>
            </Position>
            <AltitudeMeters>340.79998779296875</AltitudeMeters>
            <DistanceMeters>NAN</DistanceMeters>
          </Trackpoint>
          <Trackpoint>
            <Time>2021-08-13T11:35:47.000Z</Time>
            <Position>
              <LatitudeDegrees>43.1338356435298919677734375</LatitudeDegrees>
              <LongitudeDegrees>-1.941487491130828857421875</LongitudeDegrees>
            </Position>
            <AltitudeMeters>340.79998779296875</AltitudeMeters>
            <DistanceMeters>NAN</DistanceMeters>
          </Trackpoint>
          <Trackpoint>
            <Time>2021-08-13T11:35:48.000Z</Time>
            <Position>
              <LatitudeDegrees>43.13385215587913990020751953125</LatitudeDegrees>
              <LongitudeDegrees>-1.941445581614971160888671875</LongitudeDegrees>
            </Position>
            <AltitudeMeters>340.79998779296875</AltitudeMeters>
            <DistanceMeters>NAN</DistanceMeters>
          </Trackpoint>
          <Trackpoint>
            <Time>2021-08-13T11:35:49.000Z</Time>
            <Position>
              <LatitudeDegrees>43.13386791385710239410400390625</LatitudeDegrees>
              <LongitudeDegrees>-1.94139939732849597930908203125</LongitudeDegrees>
            </Position>
            <AltitudeMeters>340.79998779296875</AltitudeMeters>
            <DistanceMeters>NAN</DistanceMeters>
          </Trackpoint>
          <Trackpoint>
            <Time>2021-08-13T11:35:50.000Z</Time>
            <Position>
              <LatitudeDegrees>43.13388367183506488800048828125</LatitudeDegrees>
              <LongitudeDegrees>-1.9413569010794162750244140625</LongitudeDegrees>
            </Position>
            <AltitudeMeters>340.79998779296875</AltitudeMeters>
            <DistanceMeters>NAN</DistanceMeters>
          </Trackpoint>
          <Trackpoint>
            <Time>2021-08-13T11:35:51.000Z</Time>
            <Position>
              <LatitudeDegrees>43.13390429131686687469482421875</LatitudeDegrees>
              <LongitudeDegrees>-1.94132328964769840240478515625</LongitudeDegrees>
            </Position>
            <AltitudeMeters>341</AltitudeMeters>
            <DistanceMeters>NAN</DistanceMeters>
          </Trackpoint>
          <Trackpoint>
            <Time>2021-08-13T11:35:52.000Z</Time>
            <Position>
              <LatitudeDegrees>43.1339260004460811614990234375</LatitudeDegrees>
              <LongitudeDegrees>-1.94128540344536304473876953125</LongitudeDegrees>
            </Position>
            <AltitudeMeters>341</AltitudeMeters>
            <DistanceMeters>NAN</DistanceMeters>
          </Trackpoint>
          <Trackpoint>
            <Time>2021-08-13T11:35:53.000Z</Time>
            <Position>
              <LatitudeDegrees>43.1339494697749614715576171875</LatitudeDegrees>
              <LongitudeDegrees>-1.9412479363381862640380859375</LongitudeDegrees>
            </Position>
            <AltitudeMeters>341</AltitudeMeters>
            <DistanceMeters>NAN</DistanceMeters>
          </Trackpoint>
          <Trackpoint>
            <Time>2021-08-13T11:35:54.000Z</Time>
            <Position>
              <LatitudeDegrees>43.1339759565889835357666015625</LatitudeDegrees>
              <LongitudeDegrees>-1.94120359607040882110595703125</LongitudeDegrees>
            </Position>
            <AltitudeMeters>341</AltitudeMeters>
            <DistanceMeters>NAN</DistanceMeters>
          </Trackpoint>
          <Trackpoint>
            <Time>2021-08-13T11:35:55.000Z</Time>
            <Position>
              <LatitudeDegrees>43.1339890323579311370849609375</LatitudeDegrees>
              <LongitudeDegrees>-1.941173337399959564208984375</LongitudeDegrees>
            </Position>
            <AltitudeMeters>341.20001220703125</AltitudeMeters>
            <DistanceMeters>NAN</DistanceMeters>
          </Trackpoint>
          <Trackpoint>
            <Time>2021-08-13T11:35:56.000Z</Time>
            <Position>
              <LatitudeDegrees>43.13400537706911563873291015625</LatitudeDegrees>
              <LongitudeDegrees>-1.9411285780370235443115234375</LongitudeDegrees>
            </Position>
            <AltitudeMeters>341.399993896484375</AltitudeMeters>
            <DistanceMeters>NAN</DistanceMeters>
          </Trackpoint>
          <Trackpoint>
            <Time>2021-08-13T11:35:57.000Z</Time>
            <Position>
              <LatitudeDegrees>43.134019374847412109375</LatitudeDegrees>
              <LongitudeDegrees>-1.94109764881432056427001953125</LongitudeDegrees>
            </Position>
            <AltitudeMeters>341.600006103515625</AltitudeMeters>
            <DistanceMeters>NAN</DistanceMeters>
          </Trackpoint>
          <Trackpoint>
            <Time>2021-08-13T11:35:58.000Z</Time>
            <Position>
              <LatitudeDegrees>43.13403747975826263427734375</LatitudeDegrees>
              <LongitudeDegrees>-1.94105892442166805267333984375</LongitudeDegrees>
            </Position>
            <AltitudeMeters>341.600006103515625</AltitudeMeters>
            <DistanceMeters>NAN</DistanceMeters>
          </Trackpoint>
          <Trackpoint>
            <Time>2021-08-13T11:35:59.000Z</Time>
            <Position>
              <LatitudeDegrees>43.13405885361135005950927734375</LatitudeDegrees>
              <LongitudeDegrees>-1.94101936183869838714599609375</LongitudeDegrees>
            </Position>
            <AltitudeMeters>341.600006103515625</AltitudeMeters>
            <DistanceMeters>NAN</DistanceMeters>
          </Trackpoint>
          <Trackpoint>
            <Time>2021-08-13T11:36:00.000Z</Time>
            <Position>
              <LatitudeDegrees>43.13407905399799346923828125</LatitudeDegrees>
              <LongitudeDegrees>-1.9409860856831073760986328125</LongitudeDegrees>
            </Position>
            <AltitudeMeters>341.79998779296875</AltitudeMeters>
            <DistanceMeters>NAN</DistanceMeters>
          </Trackpoint>
          <Trackpoint>
            <Time>2021-08-13T11:36:01.000Z</Time>
            <Position>
              <LatitudeDegrees>43.134104199707508087158203125</LatitudeDegrees>
              <LongitudeDegrees>-1.94095750339329242706298828125</LongitudeDegrees>
            </Position>
            <AltitudeMeters>341.79998779296875</AltitudeMeters>
            <DistanceMeters>NAN</DistanceMeters>
          </Trackpoint>
          <Trackpoint>
            <Time>2021-08-13T11:36:02.000Z</Time>
            <Position>
              <LatitudeDegrees>43.134124316275119781494140625</LatitudeDegrees>
              <LongitudeDegrees>-1.94092716090381145477294921875</LongitudeDegrees>
            </Position>
            <AltitudeMeters>341.79998779296875</AltitudeMeters>
            <DistanceMeters>NAN</DistanceMeters>
          </Trackpoint>
          <Trackpoint>
            <Time>2021-08-13T11:36:03.000Z</Time>
            <Position>
              <LatitudeDegrees>43.1341462768614292144775390625</LatitudeDegrees>
              <LongitudeDegrees>-1.9408958964049816131591796875</LongitudeDegrees>
            </Position>
            <AltitudeMeters>341.79998779296875</AltitudeMeters>
            <DistanceMeters>NAN</DistanceMeters>
          </Trackpoint>
          <Trackpoint>
            <Time>2021-08-13T11:36:04.000Z</Time>
            <Position>
              <LatitudeDegrees>43.1341673992574214935302734375</LatitudeDegrees>
              <LongitudeDegrees>-1.94086396135389804840087890625</LongitudeDegrees>
            </Position>
            <AltitudeMeters>342</AltitudeMeters>
            <DistanceMeters>NAN</DistanceMeters>
          </Trackpoint>
          <Trackpoint>
            <Time>2021-08-13T11:36:05.000Z</Time>
            <Position>
              <LatitudeDegrees>43.13419296406209468841552734375</LatitudeDegrees>
              <LongitudeDegrees>-1.9408187828958034515380859375</LongitudeDegrees>
            </Position>
            <AltitudeMeters>342</AltitudeMeters>
            <DistanceMeters>NAN</DistanceMeters>
          </Trackpoint>
          <Trackpoint>
            <Time>2021-08-13T11:36:08.000Z</Time>
            <Position>
              <LatitudeDegrees>43.1342535652220249176025390625</LatitudeDegrees>
              <LongitudeDegrees>-1.94069313816726207733154296875</LongitudeDegrees>
            </Position>
            <AltitudeMeters>342.399993896484375</AltitudeMeters>
            <DistanceMeters>NAN</DistanceMeters>
          </Trackpoint>
          <Trackpoint>
            <Time>2021-08-13T11:36:10.000Z</Time>
            <Position>
              <LatitudeDegrees>43.13429472036659717559814453125</LatitudeDegrees>
              <LongitudeDegrees>-1.9406052120029926300048828125</LongitudeDegrees>
            </Position>
            <AltitudeMeters>342.600006103515625</AltitudeMeters>
            <DistanceMeters>NAN</DistanceMeters>
          </Trackpoint>
          <Trackpoint>
            <Time>2021-08-13T11:36:16.000Z</Time>
            <Position>
              <LatitudeDegrees>43.13439982943236827850341796875</LatitudeDegrees>
              <LongitudeDegrees>-1.9403799064457416534423828125</LongitudeDegrees>
            </Position>
            <AltitudeMeters>343.399993896484375</AltitudeMeters>
            <DistanceMeters>NAN</DistanceMeters>
          </Trackpoint>
          <Trackpoint>
            <Time>2021-08-13T11:36:17.000Z</Time>
            <Position>
              <LatitudeDegrees>43.13441357575356960296630859375</LatitudeDegrees>
              <LongitudeDegrees>-1.94033506326377391815185546875</LongitudeDegrees>
            </Position>
            <AltitudeMeters>343.399993896484375</AltitudeMeters>
            <DistanceMeters>NAN</DistanceMeters>
          </Trackpoint>
          <Trackpoint>
            <Time>2021-08-13T11:36:18.000Z</Time>
            <Position>
              <LatitudeDegrees>43.13442380167543888092041015625</LatitudeDegrees>
              <LongitudeDegrees>-1.94029784761369228363037109375</LongitudeDegrees>
            </Position>
            <AltitudeMeters>343.600006103515625</AltitudeMeters>
            <DistanceMeters>NAN</DistanceMeters>
          </Trackpoint>
          <Trackpoint>
            <Time>2021-08-13T11:36:19.000Z</Time>
            <Position>
              <LatitudeDegrees>43.13443570397794246673583984375</LatitudeDegrees>
              <LongitudeDegrees>-1.940260045230388641357421875</LongitudeDegrees>
            </Position>
            <AltitudeMeters>343.79998779296875</AltitudeMeters>
            <DistanceMeters>NAN</DistanceMeters>
          </Trackpoint>
          <Trackpoint>
            <Time>2021-08-13T11:36:20.000Z</Time>
            <Position>
              <LatitudeDegrees>43.134445846080780029296875</LatitudeDegrees>
              <LongitudeDegrees>-1.94022173993289470672607421875</LongitudeDegrees>
            </Position>
            <AltitudeMeters>343.79998779296875</AltitudeMeters>
            <DistanceMeters>NAN</DistanceMeters>
          </Trackpoint>
          <Trackpoint>
            <Time>2021-08-13T11:36:21.000Z</Time>
            <Position>
              <LatitudeDegrees>43.1344592571258544921875</LatitudeDegrees>
              <LongitudeDegrees>-1.9401825964450836181640625</LongitudeDegrees>
            </Position>
            <AltitudeMeters>344</AltitudeMeters>
            <DistanceMeters>NAN</DistanceMeters>
          </Trackpoint>
          <Trackpoint>
            <Time>2021-08-13T11:36:22.000Z</Time>
            <Position>
              <LatitudeDegrees>43.13447845168411731719970703125</LatitudeDegrees>
              <LongitudeDegrees>-1.94013942964375019073486328125</LongitudeDegrees>
            </Position>
            <AltitudeMeters>344</AltitudeMeters>
            <DistanceMeters>NAN</DistanceMeters>
          </Trackpoint>
          <Trackpoint>
            <Time>2021-08-13T11:36:23.000Z</Time>
            <Position>
              <LatitudeDegrees>43.1344926171004772186279296875</LatitudeDegrees>
              <LongitudeDegrees>-1.94009584374725818634033203125</LongitudeDegrees>
            </Position>
            <AltitudeMeters>344.20001220703125</AltitudeMeters>
            <DistanceMeters>NAN</DistanceMeters>
          </Trackpoint>
          <Trackpoint>
            <Time>2021-08-13T11:36:24.000Z</Time>
            <Position>
              <LatitudeDegrees>43.1345036812126636505126953125</LatitudeDegrees>
              <LongitudeDegrees>-1.94005158729851245880126953125</LongitudeDegrees>
            </Position>
            <AltitudeMeters>344.20001220703125</AltitudeMeters>
            <DistanceMeters>NAN</DistanceMeters>
          </Trackpoint>
          <Trackpoint>
            <Time>2021-08-13T11:36:25.000Z</Time>
            <Position>
              <LatitudeDegrees>43.134503848850727081298828125</LatitudeDegrees>
              <LongitudeDegrees>-1.94000230170786380767822265625</LongitudeDegrees>
            </Position>
            <AltitudeMeters>344.399993896484375</AltitudeMeters>
            <DistanceMeters>NAN</DistanceMeters>
          </Trackpoint>
          <Trackpoint>
            <Time>2021-08-13T11:36:26.000Z</Time>
            <Position>
              <LatitudeDegrees>43.13451030291616916656494140625</LatitudeDegrees>
              <LongitudeDegrees>-1.93993994034826755523681640625</LongitudeDegrees>
            </Position>
            <AltitudeMeters>344.600006103515625</AltitudeMeters>
            <DistanceMeters>NAN</DistanceMeters>
          </Trackpoint>
          <Trackpoint>
            <Time>2021-08-13T11:36:27.000Z</Time>
            <Position>
              <LatitudeDegrees>43.13451399095356464385986328125</LatitudeDegrees>
              <LongitudeDegrees>-1.939887218177318572998046875</LongitudeDegrees>
            </Position>
            <AltitudeMeters>345</AltitudeMeters>
            <DistanceMeters>NAN</DistanceMeters>
          </Trackpoint>
          <Trackpoint>
            <Time>2021-08-13T11:36:28.000Z</Time>
            <Position>
              <LatitudeDegrees>43.13451885245740413665771484375</LatitudeDegrees>
              <LongitudeDegrees>-1.93983784876763820648193359375</LongitudeDegrees>
            </Position>
            <AltitudeMeters>345.20001220703125</AltitudeMeters>
            <DistanceMeters>NAN</DistanceMeters>
          </Trackpoint>
          <Trackpoint>
            <Time>2021-08-13T11:36:29.000Z</Time>
            <Position>
              <LatitudeDegrees>43.1345224566757678985595703125</LatitudeDegrees>
              <LongitudeDegrees>-1.9397909939289093017578125</LongitudeDegrees>
            </Position>
            <AltitudeMeters>345.20001220703125</AltitudeMeters>
            <DistanceMeters>NAN</DistanceMeters>
          </Trackpoint>
          <Trackpoint>
            <Time>2021-08-13T11:36:30.000Z</Time>
            <Position>
              <LatitudeDegrees>43.1345249712467193603515625</LatitudeDegrees>
              <LongitudeDegrees>-1.939742378890514373779296875</LongitudeDegrees>
            </Position>
            <AltitudeMeters>345.20001220703125</AltitudeMeters>
            <DistanceMeters>NAN</DistanceMeters>
          </Trackpoint>
          <Trackpoint>
            <Time>2021-08-13T11:36:31.000Z</Time>
            <Position>
              <LatitudeDegrees>43.134528659284114837646484375</LatitudeDegrees>
              <LongitudeDegrees>-1.9397033192217350006103515625</LongitudeDegrees>
            </Position>
            <AltitudeMeters>345.399993896484375</AltitudeMeters>
            <DistanceMeters>NAN</DistanceMeters>
          </Trackpoint>
          <Trackpoint>
            <Time>2021-08-13T11:36:32.000Z</Time>
            <Position>
              <LatitudeDegrees>43.13452723436057567596435546875</LatitudeDegrees>
              <LongitudeDegrees>-1.93965353071689605712890625</LongitudeDegrees>
            </Position>
            <AltitudeMeters>345.399993896484375</AltitudeMeters>
            <DistanceMeters>NAN</DistanceMeters>
          </Trackpoint>
          <Trackpoint>
            <Time>2021-08-13T11:36:33.000Z</Time>
            <Position>
              <LatitudeDegrees>43.13452857546508312225341796875</LatitudeDegrees>
              <LongitudeDegrees>-1.9396087713539600372314453125</LongitudeDegrees>
            </Position>
            <AltitudeMeters>345.600006103515625</AltitudeMeters>
            <DistanceMeters>NAN</DistanceMeters>
          </Trackpoint>
          <Trackpoint>
            <Time>2021-08-13T11:36:34.000Z</Time>
            <Position>
              <LatitudeDegrees>43.1345274858176708221435546875</LatitudeDegrees>
              <LongitudeDegrees>-1.93957013078033924102783203125</LongitudeDegrees>
            </Position>
            <AltitudeMeters>345.79998779296875</AltitudeMeters>
            <DistanceMeters>NAN</DistanceMeters>
          </Trackpoint>
          <Trackpoint>
            <Time>2021-08-13T11:36:35.000Z</Time>
            <Position>
              <LatitudeDegrees>43.134525306522846221923828125</LatitudeDegrees>
              <LongitudeDegrees>-1.93953241221606731414794921875</LongitudeDegrees>
            </Position>
            <AltitudeMeters>346</AltitudeMeters>
            <DistanceMeters>NAN</DistanceMeters>
          </Trackpoint>
          <Trackpoint>
            <Time>2021-08-13T11:36:36.000Z</Time>
            <Position>
              <LatitudeDegrees>43.13451969064772129058837890625</LatitudeDegrees>
              <LongitudeDegrees>-1.9394917599856853485107421875</LongitudeDegrees>
            </Position>
            <AltitudeMeters>346</AltitudeMeters>
            <DistanceMeters>NAN</DistanceMeters>
          </Trackpoint>
          <Trackpoint>
            <Time>2021-08-13T11:36:37.000Z</Time>
            <Position>
              <LatitudeDegrees>43.13451231457293033599853515625</LatitudeDegrees>
              <LongitudeDegrees>-1.93944239057600498199462890625</LongitudeDegrees>
            </Position>
            <AltitudeMeters>346</AltitudeMeters>
            <DistanceMeters>NAN</DistanceMeters>
          </Trackpoint>
          <Trackpoint>
            <Time>2021-08-13T11:36:38.000Z</Time>
            <Position>
              <LatitudeDegrees>43.13449337147176265716552734375</LatitudeDegrees>
              <LongitudeDegrees>-1.9393817894160747528076171875</LongitudeDegrees>
            </Position>
            <AltitudeMeters>346.20001220703125</AltitudeMeters>
            <DistanceMeters>NAN</DistanceMeters>
          </Trackpoint>
          <Trackpoint>
            <Time>2021-08-13T11:36:39.000Z</Time>
            <Position>
              <LatitudeDegrees>43.13448607921600341796875</LatitudeDegrees>
              <LongitudeDegrees>-1.9393261335790157318115234375</LongitudeDegrees>
            </Position>
            <AltitudeMeters>346.20001220703125</AltitudeMeters>
            <DistanceMeters>NAN</DistanceMeters>
          </Trackpoint>
          <Trackpoint>
            <Time>2021-08-13T11:36:40.000Z</Time>
            <Position>
              <LatitudeDegrees>43.13448549248278141021728515625</LatitudeDegrees>
              <LongitudeDegrees>-1.93928397260606288909912109375</LongitudeDegrees>
            </Position>
            <AltitudeMeters>346.20001220703125</AltitudeMeters>
            <DistanceMeters>NAN</DistanceMeters>
          </Trackpoint>
          <Trackpoint>
            <Time>2021-08-13T11:36:41.000Z</Time>
            <Position>
              <LatitudeDegrees>43.13448867760598659515380859375</LatitudeDegrees>
              <LongitudeDegrees>-1.93924256600439548492431640625</LongitudeDegrees>
            </Position>
            <AltitudeMeters>346.399993896484375</AltitudeMeters>
            <DistanceMeters>NAN</DistanceMeters>
          </Trackpoint>
          <Trackpoint>
            <Time>2021-08-13T11:36:42.000Z</Time>
            <Position>
              <LatitudeDegrees>43.13448063097894191741943359375</LatitudeDegrees>
              <LongitudeDegrees>-1.939194202423095703125</LongitudeDegrees>
            </Position>
            <AltitudeMeters>346.399993896484375</AltitudeMeters>
            <DistanceMeters>NAN</DistanceMeters>
          </Trackpoint>
          <Trackpoint>
            <Time>2021-08-13T11:36:43.000Z</Time>
            <Position>
              <LatitudeDegrees>43.1344748474657535552978515625</LatitudeDegrees>
              <LongitudeDegrees>-1.93914919160306453704833984375</LongitudeDegrees>
            </Position>
            <AltitudeMeters>346.399993896484375</AltitudeMeters>
            <DistanceMeters>NAN</DistanceMeters>
          </Trackpoint>
          <Trackpoint>
            <Time>2021-08-13T11:36:44.000Z</Time>
            <Position>
              <LatitudeDegrees>43.1344731710851192474365234375</LatitudeDegrees>
              <LongitudeDegrees>-1.939095295965671539306640625</LongitudeDegrees>
            </Position>
            <AltitudeMeters>346.600006103515625</AltitudeMeters>
            <DistanceMeters>NAN</DistanceMeters>
          </Trackpoint>
          <Trackpoint>
            <Time>2021-08-13T11:36:45.000Z</Time>
            <Position>
              <LatitudeDegrees>43.13448406755924224853515625</LatitudeDegrees>
              <LongitudeDegrees>-1.93905137479305267333984375</LongitudeDegrees>
            </Position>
            <AltitudeMeters>346.600006103515625</AltitudeMeters>
            <DistanceMeters>NAN</DistanceMeters>
          </Trackpoint>
          <Trackpoint>
            <Time>2021-08-13T11:36:46.000Z</Time>
            <Position>
              <LatitudeDegrees>43.13448180444538593292236328125</LatitudeDegrees>
              <LongitudeDegrees>-1.93900904618203639984130859375</LongitudeDegrees>
            </Position>
            <AltitudeMeters>346.600006103515625</AltitudeMeters>
            <DistanceMeters>NAN</DistanceMeters>
          </Trackpoint>
          <Trackpoint>
            <Time>2021-08-13T11:36:47.000Z</Time>
            <Position>
              <LatitudeDegrees>43.1344758532941341400146484375</LatitudeDegrees>
              <LongitudeDegrees>-1.93896747194230556488037109375</LongitudeDegrees>
            </Position>
            <AltitudeMeters>346.600006103515625</AltitudeMeters>
            <DistanceMeters>NAN</DistanceMeters>
          </Trackpoint>
          <Trackpoint>
            <Time>2021-08-13T11:36:48.000Z</Time>
            <Position>
              <LatitudeDegrees>43.13447291962802410125732421875</LatitudeDegrees>
              <LongitudeDegrees>-1.93892640061676502227783203125</LongitudeDegrees>
            </Position>
            <AltitudeMeters>346.79998779296875</AltitudeMeters>
            <DistanceMeters>NAN</DistanceMeters>
          </Trackpoint>
          <Trackpoint>
            <Time>2021-08-13T11:36:49.000Z</Time>
            <Position>
              <LatitudeDegrees>43.1344681419432163238525390625</LatitudeDegrees>
              <LongitudeDegrees>-1.93889220245182514190673828125</LongitudeDegrees>
            </Position>
            <AltitudeMeters>347</AltitudeMeters>
            <DistanceMeters>NAN</DistanceMeters>
          </Trackpoint>
          <Trackpoint>
            <Time>2021-08-13T11:36:50.000Z</Time>
            <Position>
              <LatitudeDegrees>43.1344590894877910614013671875</LatitudeDegrees>
              <LongitudeDegrees>-1.93885020911693572998046875</LongitudeDegrees>
            </Position>
            <AltitudeMeters>347</AltitudeMeters>
            <DistanceMeters>NAN</DistanceMeters>
          </Trackpoint>
          <Trackpoint>
            <Time>2021-08-13T11:36:51.000Z</Time>
            <Position>
              <LatitudeDegrees>43.13444710336625576019287109375</LatitudeDegrees>
              <LongitudeDegrees>-1.93881492130458354949951171875</LongitudeDegrees>
            </Position>
            <AltitudeMeters>347</AltitudeMeters>
            <DistanceMeters>NAN</DistanceMeters>
          </Trackpoint>
          <Trackpoint>
            <Time>2021-08-13T11:36:52.000Z</Time>
            <Position>
              <LatitudeDegrees>43.13443620689213275909423828125</LatitudeDegrees>
              <LongitudeDegrees>-1.93877913057804107666015625</LongitudeDegrees>
            </Position>
            <AltitudeMeters>347</AltitudeMeters>
            <DistanceMeters>NAN</DistanceMeters>
          </Trackpoint>
          <Trackpoint>
            <Time>2021-08-13T11:36:53.000Z</Time>
            <Position>
              <LatitudeDegrees>43.13442531041800975799560546875</LatitudeDegrees>
              <LongitudeDegrees>-1.938741914927959442138671875</LongitudeDegrees>
            </Position>
            <AltitudeMeters>347.20001220703125</AltitudeMeters>
            <DistanceMeters>NAN</DistanceMeters>
          </Trackpoint>
          <Trackpoint>
            <Time>2021-08-13T11:36:54.000Z</Time>
            <Position>
              <LatitudeDegrees>43.1344121508300304412841796875</LatitudeDegrees>
              <LongitudeDegrees>-1.93870411254465579986572265625</LongitudeDegrees>
            </Position>
            <AltitudeMeters>347.399993896484375</AltitudeMeters>
            <DistanceMeters>NAN</DistanceMeters>
          </Trackpoint>
          <Trackpoint>
            <Time>2021-08-13T11:36:55.000Z</Time>
            <Position>
              <LatitudeDegrees>43.13440402038395404815673828125</LatitudeDegrees>
              <LongitudeDegrees>-1.93866538815200328826904296875</LongitudeDegrees>
            </Position>
            <AltitudeMeters>347.600006103515625</AltitudeMeters>
            <DistanceMeters>NAN</DistanceMeters>
          </Trackpoint>
          <Trackpoint>
            <Time>2021-08-13T11:36:56.000Z</Time>
            <Position>
              <LatitudeDegrees>43.13441491685807704925537109375</LatitudeDegrees>
              <LongitudeDegrees>-1.93863571621477603912353515625</LongitudeDegrees>
            </Position>
            <AltitudeMeters>347.79998779296875</AltitudeMeters>
            <DistanceMeters>NAN</DistanceMeters>
          </Trackpoint>
          <Trackpoint>
            <Time>2021-08-13T11:36:57.000Z</Time>
            <Position>
              <LatitudeDegrees>43.13441676087677478790283203125</LatitudeDegrees>
              <LongitudeDegrees>-1.93860302679240703582763671875</LongitudeDegrees>
            </Position>
            <AltitudeMeters>347.79998779296875</AltitudeMeters>
            <DistanceMeters>NAN</DistanceMeters>
          </Trackpoint>
          <Trackpoint>
            <Time>2021-08-13T11:36:58.000Z</Time>
            <Position>
              <LatitudeDegrees>43.13441927544772624969482421875</LatitudeDegrees>
              <LongitudeDegrees>-1.938574612140655517578125</LongitudeDegrees>
            </Position>
            <AltitudeMeters>348</AltitudeMeters>
            <DistanceMeters>NAN</DistanceMeters>
          </Trackpoint>
          <Trackpoint>
            <Time>2021-08-13T11:36:59.000Z</Time>
            <Position>
              <LatitudeDegrees>43.13443151302635669708251953125</LatitudeDegrees>
              <LongitudeDegrees>-1.93854066543281078338623046875</LongitudeDegrees>
            </Position>
            <AltitudeMeters>348</AltitudeMeters>
            <DistanceMeters>NAN</DistanceMeters>
          </Trackpoint>
          <Trackpoint>
            <Time>2021-08-13T11:37:00.000Z</Time>
            <Position>
              <LatitudeDegrees>43.1344326026737689971923828125</LatitudeDegrees>
              <LongitudeDegrees>-1.93851635791361331939697265625</LongitudeDegrees>
            </Position>
            <AltitudeMeters>348.20001220703125</AltitudeMeters>
            <DistanceMeters>NAN</DistanceMeters>
          </Trackpoint>
          <Trackpoint>
            <Time>2021-08-13T11:37:01.000Z</Time>
            <Position>
              <LatitudeDegrees>43.13443017192184925079345703125</LatitudeDegrees>
              <LongitudeDegrees>-1.9385063834488391876220703125</LongitudeDegrees>
            </Position>
            <AltitudeMeters>348.20001220703125</AltitudeMeters>
            <DistanceMeters>NAN</DistanceMeters>
          </Trackpoint>
          <Trackpoint>
            <Time>2021-08-13T11:37:02.000Z</Time>
            <Position>
              <LatitudeDegrees>43.134424388408660888671875</LatitudeDegrees>
              <LongitudeDegrees>-1.9384981691837310791015625</LongitudeDegrees>
            </Position>
            <AltitudeMeters>348.399993896484375</AltitudeMeters>
            <DistanceMeters>NAN</DistanceMeters>
          </Trackpoint>
          <Trackpoint>
            <Time>2021-08-13T11:37:03.000Z</Time>
            <Position>
              <LatitudeDegrees>43.1344279088079929351806640625</LatitudeDegrees>
              <LongitudeDegrees>-1.93849322386085987091064453125</LongitudeDegrees>
            </Position>
            <AltitudeMeters>348.600006103515625</AltitudeMeters>
            <DistanceMeters>NAN</DistanceMeters>
          </Trackpoint>
          <Trackpoint>
            <Time>2021-08-13T11:37:04.000Z</Time>
            <Position>
              <LatitudeDegrees>43.13442950136959552764892578125</LatitudeDegrees>
              <LongitudeDegrees>-1.93848199211061000823974609375</LongitudeDegrees>
            </Position>
            <AltitudeMeters>348.600006103515625</AltitudeMeters>
            <DistanceMeters>NAN</DistanceMeters>
          </Trackpoint>
          <Trackpoint>
            <Time>2021-08-13T11:37:05.000Z</Time>
            <Position>
              <LatitudeDegrees>43.13443201594054698944091796875</LatitudeDegrees>
              <LongitudeDegrees>-1.93846405483782291412353515625</LongitudeDegrees>
            </Position>
            <AltitudeMeters>348.399993896484375</AltitudeMeters>
            <DistanceMeters>NAN</DistanceMeters>
          </Trackpoint>
          <Trackpoint>
            <Time>2021-08-13T11:37:06.000Z</Time>
            <Position>
              <LatitudeDegrees>43.13444073311984539031982421875</LatitudeDegrees>
              <LongitudeDegrees>-1.9384436868131160736083984375</LongitudeDegrees>
            </Position>
            <AltitudeMeters>348.399993896484375</AltitudeMeters>
            <DistanceMeters>NAN</DistanceMeters>
          </Trackpoint>
          <Trackpoint>
            <Time>2021-08-13T11:37:57.000Z</Time>
            <Position>
              <LatitudeDegrees>43.1338703446090221405029296875</LatitudeDegrees>
              <LongitudeDegrees>-1.93637662567198276519775390625</LongitudeDegrees>
            </Position>
            <AltitudeMeters>352.600006103515625</AltitudeMeters>
            <DistanceMeters>NAN</DistanceMeters>
          </Trackpoint>
          <Trackpoint>
            <Time>2021-08-13T11:37:58.000Z</Time>
            <Position>
              <LatitudeDegrees>43.13388903625309467315673828125</LatitudeDegrees>
              <LongitudeDegrees>-1.9363524019718170166015625</LongitudeDegrees>
            </Position>
            <AltitudeMeters>352.79998779296875</AltitudeMeters>
            <DistanceMeters>NAN</DistanceMeters>
          </Trackpoint>
          <Trackpoint>
            <Time>2021-08-13T11:37:59.000Z</Time>
            <Position>
              <LatitudeDegrees>43.13386154361069202423095703125</LatitudeDegrees>
              <LongitudeDegrees>-1.93633438087999820709228515625</LongitudeDegrees>
            </Position>
            <AltitudeMeters>352.79998779296875</AltitudeMeters>
            <DistanceMeters>NAN</DistanceMeters>
          </Trackpoint>
          <Trackpoint>
            <Time>2021-08-13T11:38:00.000Z</Time>
            <Position>
              <LatitudeDegrees>43.133828938007354736328125</LatitudeDegrees>
              <LongitudeDegrees>-1.93632029928267002105712890625</LongitudeDegrees>
            </Position>
            <AltitudeMeters>352.79998779296875</AltitudeMeters>
            <DistanceMeters>NAN</DistanceMeters>
          </Trackpoint>
          <Trackpoint>
            <Time>2021-08-13T11:38:01.000Z</Time>
            <Position>
              <LatitudeDegrees>43.1338016130030155181884765625</LatitudeDegrees>
              <LongitudeDegrees>-1.93629800342023372650146484375</LongitudeDegrees>
            </Position>
            <AltitudeMeters>352.79998779296875</AltitudeMeters>
            <DistanceMeters>NAN</DistanceMeters>
          </Trackpoint>
          <Trackpoint>
            <Time>2021-08-13T11:38:02.000Z</Time>
            <Position>
              <LatitudeDegrees>43.1337613798677921295166015625</LatitudeDegrees>
              <LongitudeDegrees>-1.936277635395526885986328125</LongitudeDegrees>
            </Position>
            <AltitudeMeters>352.79998779296875</AltitudeMeters>
            <DistanceMeters>NAN</DistanceMeters>
          </Trackpoint>
          <Trackpoint>
            <Time>2021-08-13T11:38:03.000Z</Time>
            <Position>
              <LatitudeDegrees>43.133722655475139617919921875</LatitudeDegrees>
              <LongitudeDegrees>-1.936258859932422637939453125</LongitudeDegrees>
            </Position>
            <AltitudeMeters>352.79998779296875</AltitudeMeters>
            <DistanceMeters>NAN</DistanceMeters>
          </Trackpoint>
          <Trackpoint>
            <Time>2021-08-13T11:38:04.000Z</Time>
            <Position>
              <LatitudeDegrees>43.13368745148181915283203125</LatitudeDegrees>
              <LongitudeDegrees>-1.936241090297698974609375</LongitudeDegrees>
            </Position>
            <AltitudeMeters>352.79998779296875</AltitudeMeters>
            <DistanceMeters>NAN</DistanceMeters>
          </Trackpoint>
          <Trackpoint>
            <Time>2021-08-13T11:38:05.000Z</Time>
            <Position>
              <LatitudeDegrees>43.133650906383991241455078125</LatitudeDegrees>
              <LongitudeDegrees>-1.93622273392975330352783203125</LongitudeDegrees>
            </Position>
            <AltitudeMeters>352.79998779296875</AltitudeMeters>
            <DistanceMeters>NAN</DistanceMeters>
          </Trackpoint>
          <Trackpoint>
            <Time>2021-08-13T11:38:06.000Z</Time>
            <Position>
              <LatitudeDegrees>43.1336162053048610687255859375</LatitudeDegrees>
              <LongitudeDegrees>-1.9362030364573001861572265625</LongitudeDegrees>
            </Position>
            <AltitudeMeters>352.79998779296875</AltitudeMeters>
            <DistanceMeters>NAN</DistanceMeters>
          </Trackpoint>
          <Trackpoint>
            <Time>2021-08-13T11:38:07.000Z</Time>
            <Position>
              <LatitudeDegrees>43.1335806660354137420654296875</LatitudeDegrees>
              <LongitudeDegrees>-1.93620395846664905548095703125</LongitudeDegrees>
            </Position>
            <AltitudeMeters>352.79998779296875</AltitudeMeters>
            <DistanceMeters>NAN</DistanceMeters>
          </Trackpoint>
          <Trackpoint>
            <Time>2021-08-13T11:38:08.000Z</Time>
            <Position>
              <LatitudeDegrees>43.13355468213558197021484375</LatitudeDegrees>
              <LongitudeDegrees>-1.93621569313108921051025390625</LongitudeDegrees>
            </Position>
            <AltitudeMeters>352.79998779296875</AltitudeMeters>
            <DistanceMeters>NAN</DistanceMeters>
          </Trackpoint>
          <Trackpoint>
            <Time>2021-08-13T11:38:09.000Z</Time>
            <Position>
              <LatitudeDegrees>43.13353054225444793701171875</LatitudeDegrees>
              <LongitudeDegrees>-1.93621418438851833343505859375</LongitudeDegrees>
            </Position>
            <AltitudeMeters>352.79998779296875</AltitudeMeters>
            <DistanceMeters>NAN</DistanceMeters>
          </Trackpoint>
          <Trackpoint>
            <Time>2021-08-13T11:38:10.000Z</Time>
            <Position>
              <LatitudeDegrees>43.133500702679157257080078125</LatitudeDegrees>
              <LongitudeDegrees>-1.93621435202658176422119140625</LongitudeDegrees>
            </Position>
            <AltitudeMeters>352.79998779296875</AltitudeMeters>
            <DistanceMeters>NAN</DistanceMeters>
          </Trackpoint>
          <Trackpoint>
            <Time>2021-08-13T11:38:11.000Z</Time>
            <Position>
              <LatitudeDegrees>43.13346994109451770782470703125</LatitudeDegrees>
              <LongitudeDegrees>-1.9362211413681507110595703125</LongitudeDegrees>
            </Position>
            <AltitudeMeters>352.79998779296875</AltitudeMeters>
            <DistanceMeters>NAN</DistanceMeters>
          </Trackpoint>
          <Trackpoint>
            <Time>2021-08-13T11:38:12.000Z</Time>
            <Position>
              <LatitudeDegrees>43.13344479538500308990478515625</LatitudeDegrees>
              <LongitudeDegrees>-1.93622910417616367340087890625</LongitudeDegrees>
            </Position>
            <AltitudeMeters>352.79998779296875</AltitudeMeters>
            <DistanceMeters>NAN</DistanceMeters>
          </Trackpoint>
          <Trackpoint>
            <Time>2021-08-13T11:38:13.000Z</Time>
            <Position>
              <LatitudeDegrees>43.13341830857098102569580078125</LatitudeDegrees>
              <LongitudeDegrees>-1.9362355582416057586669921875</LongitudeDegrees>
            </Position>
            <AltitudeMeters>352.79998779296875</AltitudeMeters>
            <DistanceMeters>NAN</DistanceMeters>
          </Trackpoint>
          <Trackpoint>
            <Time>2021-08-13T11:38:14.000Z</Time>
            <Position>
              <LatitudeDegrees>43.1333912350237369537353515625</LatitudeDegrees>
              <LongitudeDegrees>-1.93623798899352550506591796875</LongitudeDegrees>
            </Position>
            <AltitudeMeters>352.79998779296875</AltitudeMeters>
            <DistanceMeters>NAN</DistanceMeters>
          </Trackpoint>
          <Trackpoint>
            <Time>2021-08-13T11:38:15.000Z</Time>
            <Position>
              <LatitudeDegrees>43.1333635747432708740234375</LatitudeDegrees>
              <LongitudeDegrees>-1.93624352104961872100830078125</LongitudeDegrees>
            </Position>
            <AltitudeMeters>353</AltitudeMeters>
            <DistanceMeters>NAN</DistanceMeters>
          </Trackpoint>
          <Trackpoint>
            <Time>2021-08-13T11:38:16.000Z</Time>
            <Position>
              <LatitudeDegrees>43.13333935104310512542724609375</LatitudeDegrees>
              <LongitudeDegrees>-1.93625726737082004547119140625</LongitudeDegrees>
            </Position>
            <AltitudeMeters>353</AltitudeMeters>
            <DistanceMeters>NAN</DistanceMeters>
          </Trackpoint>
          <Trackpoint>
            <Time>2021-08-13T11:38:17.000Z</Time>
            <Position>
              <LatitudeDegrees>43.1333255209028720855712890625</LatitudeDegrees>
              <LongitudeDegrees>-1.936262212693691253662109375</LongitudeDegrees>
            </Position>
            <AltitudeMeters>353.20001220703125</AltitudeMeters>
            <DistanceMeters>NAN</DistanceMeters>
          </Trackpoint>
          <Trackpoint>
            <Time>2021-08-13T11:38:18.000Z</Time>
            <Position>
              <LatitudeDegrees>43.13332795165479183197021484375</LatitudeDegrees>
              <LongitudeDegrees>-1.936268247663974761962890625</LongitudeDegrees>
            </Position>
            <AltitudeMeters>353.399993896484375</AltitudeMeters>
            <DistanceMeters>NAN</DistanceMeters>
          </Trackpoint>
          <Trackpoint>
            <Time>2021-08-13T11:38:19.000Z</Time>
            <Position>
              <LatitudeDegrees>43.1333389319479465484619140625</LatitudeDegrees>
              <LongitudeDegrees>-1.93626933731138706207275390625</LongitudeDegrees>
            </Position>
            <AltitudeMeters>353.600006103515625</AltitudeMeters>
            <DistanceMeters>NAN</DistanceMeters>
          </Trackpoint>
          <Trackpoint>
            <Time>2021-08-13T11:38:20.000Z</Time>
            <Position>
              <LatitudeDegrees>43.133370615541934967041015625</LatitudeDegrees>
              <LongitudeDegrees>-1.93628777749836444854736328125</LongitudeDegrees>
            </Position>
            <AltitudeMeters>353.79998779296875</AltitudeMeters>
            <DistanceMeters>NAN</DistanceMeters>
          </Trackpoint>
          <Trackpoint>
            <Time>2021-08-13T11:38:55.000Z</Time>
            <Position>
              <LatitudeDegrees>43.13249663449823856353759765625</LatitudeDegrees>
              <LongitudeDegrees>-1.9374100305140018463134765625</LongitudeDegrees>
            </Position>
            <AltitudeMeters>356.20001220703125</AltitudeMeters>
            <DistanceMeters>NAN</DistanceMeters>
          </Trackpoint>
          <Trackpoint>
            <Time>2021-08-13T11:38:56.000Z</Time>
            <Position>
              <LatitudeDegrees>43.1324849836528301239013671875</LatitudeDegrees>
              <LongitudeDegrees>-1.9372906722128391265869140625</LongitudeDegrees>
            </Position>
            <AltitudeMeters>356.20001220703125</AltitudeMeters>
            <DistanceMeters>NAN</DistanceMeters>
          </Trackpoint>
          <Trackpoint>
            <Time>2021-08-13T11:38:57.000Z</Time>
            <Position>
              <LatitudeDegrees>43.13247266225516796112060546875</LatitudeDegrees>
              <LongitudeDegrees>-1.937217414379119873046875</LongitudeDegrees>
            </Position>
            <AltitudeMeters>356.20001220703125</AltitudeMeters>
            <DistanceMeters>NAN</DistanceMeters>
          </Trackpoint>
          <Trackpoint>
            <Time>2021-08-13T11:38:58.000Z</Time>
            <Position>
              <LatitudeDegrees>43.1324400566518306732177734375</LatitudeDegrees>
              <LongitudeDegrees>-1.9371320866048336029052734375</LongitudeDegrees>
            </Position>
            <AltitudeMeters>356.20001220703125</AltitudeMeters>
            <DistanceMeters>NAN</DistanceMeters>
          </Trackpoint>
          <Trackpoint>
            <Time>2021-08-13T11:38:59.000Z</Time>
            <Position>
              <LatitudeDegrees>43.13242857344448566436767578125</LatitudeDegrees>
              <LongitudeDegrees>-1.9371045939624309539794921875</LongitudeDegrees>
            </Position>
            <AltitudeMeters>356.20001220703125</AltitudeMeters>
            <DistanceMeters>NAN</DistanceMeters>
          </Trackpoint>
          <Trackpoint>
            <Time>2021-08-13T11:39:00.000Z</Time>
            <Position>
              <LatitudeDegrees>43.13241767697036266326904296875</LatitudeDegrees>
              <LongitudeDegrees>-1.9370864890515804290771484375</LongitudeDegrees>
            </Position>
            <AltitudeMeters>356.20001220703125</AltitudeMeters>
            <DistanceMeters>NAN</DistanceMeters>
          </Trackpoint>
          <Trackpoint>
            <Time>2021-08-13T11:39:01.000Z</Time>
            <Position>
              <LatitudeDegrees>43.13241206109523773193359375</LatitudeDegrees>
              <LongitudeDegrees>-1.9370760954916477203369140625</LongitudeDegrees>
            </Position>
            <AltitudeMeters>356.20001220703125</AltitudeMeters>
            <DistanceMeters>NAN</DistanceMeters>
          </Trackpoint>
          <Trackpoint>
            <Time>2021-08-13T11:39:02.000Z</Time>
            <Position>
              <LatitudeDegrees>43.1324222870171070098876953125</LatitudeDegrees>
              <LongitudeDegrees>-1.93706444464623928070068359375</LongitudeDegrees>
            </Position>
            <AltitudeMeters>356.20001220703125</AltitudeMeters>
            <DistanceMeters>NAN</DistanceMeters>
          </Trackpoint>
          <Trackpoint>
            <Time>2021-08-13T11:39:03.000Z</Time>
            <Position>
              <LatitudeDegrees>43.13241608440876007080078125</LatitudeDegrees>
              <LongitudeDegrees>-1.93707098253071308135986328125</LongitudeDegrees>
            </Position>
            <AltitudeMeters>356.20001220703125</AltitudeMeters>
            <DistanceMeters>NAN</DistanceMeters>
          </Trackpoint>
          <Trackpoint>
            <Time>2021-08-13T11:39:04.000Z</Time>
            <Position>
              <LatitudeDegrees>43.13241549767553806304931640625</LatitudeDegrees>
              <LongitudeDegrees>-1.9370905123651027679443359375</LongitudeDegrees>
            </Position>
            <AltitudeMeters>356.20001220703125</AltitudeMeters>
            <DistanceMeters>NAN</DistanceMeters>
          </Trackpoint>
          <Trackpoint>
            <Time>2021-08-13T11:39:06.000Z</Time>
            <Position>
              <LatitudeDegrees>43.1324165873229503631591796875</LatitudeDegrees>
              <LongitudeDegrees>-1.9371168315410614013671875</LongitudeDegrees>
            </Position>
            <AltitudeMeters>356.399993896484375</AltitudeMeters>
            <DistanceMeters>NAN</DistanceMeters>
          </Trackpoint>
          <Trackpoint>
            <Time>2021-08-13T11:39:07.000Z</Time>
            <Position>
              <LatitudeDegrees>43.13241734169423580169677734375</LatitudeDegrees>
              <LongitudeDegrees>-1.93713351152837276458740234375</LongitudeDegrees>
            </Position>
            <AltitudeMeters>356.399993896484375</AltitudeMeters>
            <DistanceMeters>NAN</DistanceMeters>
          </Trackpoint>
          <Trackpoint>
            <Time>2021-08-13T11:39:08.000Z</Time>
            <Position>
              <LatitudeDegrees>43.13241583295166492462158203125</LatitudeDegrees>
              <LongitudeDegrees>-1.93713493645191192626953125</LongitudeDegrees>
            </Position>
            <AltitudeMeters>356.399993896484375</AltitudeMeters>
            <DistanceMeters>NAN</DistanceMeters>
          </Trackpoint>
          <Trackpoint>
            <Time>2021-08-13T11:39:09.000Z</Time>
            <Position>
              <LatitudeDegrees>43.13241667114198207855224609375</LatitudeDegrees>
              <LongitudeDegrees>-1.937142647802829742431640625</LongitudeDegrees>
            </Position>
            <AltitudeMeters>356.399993896484375</AltitudeMeters>
            <DistanceMeters>NAN</DistanceMeters>
          </Trackpoint>
          <Trackpoint>
            <Time>2021-08-13T11:39:10.000Z</Time>
            <Position>
              <LatitudeDegrees>43.1324098818004131317138671875</LatitudeDegrees>
              <LongitudeDegrees>-1.93713988177478313446044921875</LongitudeDegrees>
            </Position>
            <AltitudeMeters>356.399993896484375</AltitudeMeters>
            <DistanceMeters>NAN</DistanceMeters>
          </Trackpoint>
          <Trackpoint>
            <Time>2021-08-13T11:39:11.000Z</Time>
            <Position>
              <LatitudeDegrees>43.1324065290391445159912109375</LatitudeDegrees>
              <LongitudeDegrees>-1.93712982349097728729248046875</LongitudeDegrees>
            </Position>
            <AltitudeMeters>356.399993896484375</AltitudeMeters>
            <DistanceMeters>NAN</DistanceMeters>
          </Trackpoint>
          <Trackpoint>
            <Time>2021-08-13T11:39:17.000Z</Time>
            <Position>
              <LatitudeDegrees>43.1323465146124362945556640625</LatitudeDegrees>
              <LongitudeDegrees>-1.93713937886059284210205078125</LongitudeDegrees>
            </Position>
            <AltitudeMeters>356</AltitudeMeters>
            <DistanceMeters>NAN</DistanceMeters>
          </Trackpoint>
          <Trackpoint>
            <Time>2021-08-13T11:39:27.000Z</Time>
            <Position>
              <LatitudeDegrees>43.13233838416635990142822265625</LatitudeDegrees>
              <LongitudeDegrees>-1.9371807016432285308837890625</LongitudeDegrees>
            </Position>
            <AltitudeMeters>356</AltitudeMeters>
            <DistanceMeters>NAN</DistanceMeters>
          </Trackpoint>
          <Trackpoint>
            <Time>2021-08-13T11:39:47.000Z</Time>
            <Position>
              <LatitudeDegrees>43.13233117572963237762451171875</LatitudeDegrees>
              <LongitudeDegrees>-1.93718531168997287750244140625</LongitudeDegrees>
            </Position>
            <AltitudeMeters>356.399993896484375</AltitudeMeters>
            <DistanceMeters>NAN</DistanceMeters>
          </Trackpoint>
          <Trackpoint>
            <Time>2021-08-13T11:39:50.000Z</Time>
            <Position>
              <LatitudeDegrees>43.132332600653171539306640625</LatitudeDegrees>
              <LongitudeDegrees>-1.93718883208930492401123046875</LongitudeDegrees>
            </Position>
            <AltitudeMeters>356.399993896484375</AltitudeMeters>
            <DistanceMeters>NAN</DistanceMeters>
          </Trackpoint>
          <Trackpoint>
            <Time>2021-08-13T11:39:55.000Z</Time>
            <Position>
              <LatitudeDegrees>43.13228792510926723480224609375</LatitudeDegrees>
              <LongitudeDegrees>-1.9372095353901386260986328125</LongitudeDegrees>
            </Position>
            <AltitudeMeters>356.600006103515625</AltitudeMeters>
            <DistanceMeters>NAN</DistanceMeters>
          </Trackpoint>
          <Trackpoint>
            <Time>2021-08-13T11:39:56.000Z</Time>
            <Position>
              <LatitudeDegrees>43.13227116130292415618896484375</LatitudeDegrees>
              <LongitudeDegrees>-1.937227137386798858642578125</LongitudeDegrees>
            </Position>
            <AltitudeMeters>356.600006103515625</AltitudeMeters>
            <DistanceMeters>NAN</DistanceMeters>
          </Trackpoint>
          <Trackpoint>
            <Time>2021-08-13T11:40:00.000Z</Time>
            <Position>
              <LatitudeDegrees>43.132193796336650848388671875</LatitudeDegrees>
              <LongitudeDegrees>-1.93732361309230327606201171875</LongitudeDegrees>
            </Position>
            <AltitudeMeters>356.600006103515625</AltitudeMeters>
            <DistanceMeters>NAN</DistanceMeters>
          </Trackpoint>
          <Trackpoint>
            <Time>2021-08-13T11:40:03.000Z</Time>
            <Position>
              <LatitudeDegrees>43.13211592845618724822998046875</LatitudeDegrees>
              <LongitudeDegrees>-1.93740609101951122283935546875</LongitudeDegrees>
            </Position>
            <AltitudeMeters>356.79998779296875</AltitudeMeters>
            <DistanceMeters>NAN</DistanceMeters>
          </Trackpoint>
          <Trackpoint>
            <Time>2021-08-13T11:40:04.000Z</Time>
            <Position>
              <LatitudeDegrees>43.13209044747054576873779296875</LatitudeDegrees>
              <LongitudeDegrees>-1.93742486648261547088623046875</LongitudeDegrees>
            </Position>
            <AltitudeMeters>357</AltitudeMeters>
            <DistanceMeters>NAN</DistanceMeters>
          </Trackpoint>
          <Trackpoint>
            <Time>2021-08-13T11:40:05.000Z</Time>
            <Position>
              <LatitudeDegrees>43.13206999562680721282958984375</LatitudeDegrees>
              <LongitudeDegrees>-1.9374391995370388031005859375</LongitudeDegrees>
            </Position>
            <AltitudeMeters>357</AltitudeMeters>
            <DistanceMeters>NAN</DistanceMeters>
          </Trackpoint>
          <Trackpoint>
            <Time>2021-08-13T11:40:12.000Z</Time>
            <Position>
              <LatitudeDegrees>43.1318985857069492340087890625</LatitudeDegrees>
              <LongitudeDegrees>-1.9376125372946262359619140625</LongitudeDegrees>
            </Position>
            <AltitudeMeters>357.600006103515625</AltitudeMeters>
            <DistanceMeters>NAN</DistanceMeters>
          </Trackpoint>
          <Trackpoint>
            <Time>2021-08-13T11:40:16.000Z</Time>
            <Position>
              <LatitudeDegrees>43.13179942779242992401123046875</LatitudeDegrees>
              <LongitudeDegrees>-1.937731392681598663330078125</LongitudeDegrees>
            </Position>
            <AltitudeMeters>357.79998779296875</AltitudeMeters>
            <DistanceMeters>NAN</DistanceMeters>
          </Trackpoint>
          <Trackpoint>
            <Time>2021-08-13T11:40:17.000Z</Time>
            <Position>
              <LatitudeDegrees>43.13177830539643764495849609375</LatitudeDegrees>
              <LongitudeDegrees>-1.93775662221014499664306640625</LongitudeDegrees>
            </Position>
            <AltitudeMeters>357.79998779296875</AltitudeMeters>
            <DistanceMeters>NAN</DistanceMeters>
          </Trackpoint>
          <Trackpoint>
            <Time>2021-08-13T11:40:24.000Z</Time>
            <Position>
              <LatitudeDegrees>43.13156959600746631622314453125</LatitudeDegrees>
              <LongitudeDegrees>-1.9380390085279941558837890625</LongitudeDegrees>
            </Position>
            <AltitudeMeters>358.600006103515625</AltitudeMeters>
            <DistanceMeters>NAN</DistanceMeters>
          </Trackpoint>
          <Trackpoint>
            <Time>2021-08-13T11:40:25.000Z</Time>
            <Position>
              <LatitudeDegrees>43.13154478557407855987548828125</LatitudeDegrees>
              <LongitudeDegrees>-1.93805719725787639617919921875</LongitudeDegrees>
            </Position>
            <AltitudeMeters>358.600006103515625</AltitudeMeters>
            <DistanceMeters>NAN</DistanceMeters>
          </Trackpoint>
          <Trackpoint>
            <Time>2021-08-13T11:40:27.000Z</Time>
            <Position>
              <LatitudeDegrees>43.13147555105388164520263671875</LatitudeDegrees>
              <LongitudeDegrees>-1.93806390278041362762451171875</LongitudeDegrees>
            </Position>
            <AltitudeMeters>358.79998779296875</AltitudeMeters>
            <DistanceMeters>NAN</DistanceMeters>
          </Trackpoint>
          <Trackpoint>
            <Time>2021-08-13T11:40:28.000Z</Time>
            <Position>
              <LatitudeDegrees>43.131452500820159912109375</LatitudeDegrees>
              <LongitudeDegrees>-1.93808854557573795318603515625</LongitudeDegrees>
            </Position>
            <AltitudeMeters>359</AltitudeMeters>
            <DistanceMeters>NAN</DistanceMeters>
          </Trackpoint>
          <Trackpoint>
            <Time>2021-08-13T11:40:30.000Z</Time>
            <Position>
              <LatitudeDegrees>43.1313973478972911834716796875</LatitudeDegrees>
              <LongitudeDegrees>-1.93812844343483448028564453125</LongitudeDegrees>
            </Position>
            <AltitudeMeters>359.20001220703125</AltitudeMeters>
            <DistanceMeters>NAN</DistanceMeters>
          </Trackpoint>
          <Trackpoint>
            <Time>2021-08-13T11:40:36.000Z</Time>
            <Position>
              <LatitudeDegrees>43.1312230043113231658935546875</LatitudeDegrees>
              <LongitudeDegrees>-1.93828904069960117340087890625</LongitudeDegrees>
            </Position>
            <AltitudeMeters>360</AltitudeMeters>
            <DistanceMeters>NAN</DistanceMeters>
          </Trackpoint>
          <Trackpoint>
            <Time>2021-08-13T11:40:39.000Z</Time>
            <Position>
              <LatitudeDegrees>43.13113524578511714935302734375</LatitudeDegrees>
              <LongitudeDegrees>-1.93835492245852947235107421875</LongitudeDegrees>
            </Position>
            <AltitudeMeters>360.399993896484375</AltitudeMeters>
            <DistanceMeters>NAN</DistanceMeters>
          </Trackpoint>
          <Trackpoint>
            <Time>2021-08-13T11:40:40.000Z</Time>
            <Position>
              <LatitudeDegrees>43.13110892660915851593017578125</LatitudeDegrees>
              <LongitudeDegrees>-1.9383819960057735443115234375</LongitudeDegrees>
            </Position>
            <AltitudeMeters>360.399993896484375</AltitudeMeters>
            <DistanceMeters>NAN</DistanceMeters>
          </Trackpoint>
          <Trackpoint>
            <Time>2021-08-13T11:40:41.000Z</Time>
            <Position>
              <LatitudeDegrees>43.1310821883380413055419921875</LatitudeDegrees>
              <LongitudeDegrees>-1.93840764462947845458984375</LongitudeDegrees>
            </Position>
            <AltitudeMeters>360.399993896484375</AltitudeMeters>
            <DistanceMeters>NAN</DistanceMeters>
          </Trackpoint>
          <Trackpoint>
            <Time>2021-08-13T11:40:42.000Z</Time>
            <Position>
              <LatitudeDegrees>43.1310510076582431793212890625</LatitudeDegrees>
              <LongitudeDegrees>-1.93843203596770763397216796875</LongitudeDegrees>
            </Position>
            <AltitudeMeters>360.399993896484375</AltitudeMeters>
            <DistanceMeters>NAN</DistanceMeters>
          </Trackpoint>
          <Trackpoint>
            <Time>2021-08-13T11:40:43.000Z</Time>
            <Position>
              <LatitudeDegrees>43.13102192245423793792724609375</LatitudeDegrees>
              <LongitudeDegrees>-1.93845215253531932830810546875</LongitudeDegrees>
            </Position>
            <AltitudeMeters>360.399993896484375</AltitudeMeters>
            <DistanceMeters>NAN</DistanceMeters>
          </Trackpoint>
          <Trackpoint>
            <Time>2021-08-13T11:40:44.000Z</Time>
            <Position>
              <LatitudeDegrees>43.13099426217377185821533203125</LatitudeDegrees>
              <LongitudeDegrees>-1.93847662769258022308349609375</LongitudeDegrees>
            </Position>
            <AltitudeMeters>360.600006103515625</AltitudeMeters>
            <DistanceMeters>NAN</DistanceMeters>
          </Trackpoint>
          <Trackpoint>
            <Time>2021-08-13T11:40:45.000Z</Time>
            <Position>
              <LatitudeDegrees>43.13096710480749607086181640625</LatitudeDegrees>
              <LongitudeDegrees>-1.93850210867822170257568359375</LongitudeDegrees>
            </Position>
            <AltitudeMeters>360.600006103515625</AltitudeMeters>
            <DistanceMeters>NAN</DistanceMeters>
          </Trackpoint>
          <Trackpoint>
            <Time>2021-08-13T11:40:46.000Z</Time>
            <Position>
              <LatitudeDegrees>43.13093776814639568328857421875</LatitudeDegrees>
              <LongitudeDegrees>-1.93852054886519908905029296875</LongitudeDegrees>
            </Position>
            <AltitudeMeters>360.600006103515625</AltitudeMeters>
            <DistanceMeters>NAN</DistanceMeters>
          </Trackpoint>
          <Trackpoint>
            <Time>2021-08-13T11:40:47.000Z</Time>
            <Position>
              <LatitudeDegrees>43.13091061078011989593505859375</LatitudeDegrees>
              <LongitudeDegrees>-1.9385352171957492828369140625</LongitudeDegrees>
            </Position>
            <AltitudeMeters>361</AltitudeMeters>
            <DistanceMeters>NAN</DistanceMeters>
          </Trackpoint>
          <Trackpoint>
            <Time>2021-08-13T11:40:48.000Z</Time>
            <Position>
              <LatitudeDegrees>43.13088496215641498565673828125</LatitudeDegrees>
              <LongitudeDegrees>-1.93855558522045612335205078125</LongitudeDegrees>
            </Position>
            <AltitudeMeters>361</AltitudeMeters>
            <DistanceMeters>NAN</DistanceMeters>
          </Trackpoint>
          <Trackpoint>
            <Time>2021-08-13T11:40:49.000Z</Time>
            <Position>
              <LatitudeDegrees>43.13085797242820262908935546875</LatitudeDegrees>
              <LongitudeDegrees>-1.938574612140655517578125</LongitudeDegrees>
            </Position>
            <AltitudeMeters>361.20001220703125</AltitudeMeters>
            <DistanceMeters>NAN</DistanceMeters>
          </Trackpoint>
          <Trackpoint>
            <Time>2021-08-13T11:40:50.000Z</Time>
            <Position>
              <LatitudeDegrees>43.13083165325224399566650390625</LatitudeDegrees>
              <LongitudeDegrees>-1.938596069812774658203125</LongitudeDegrees>
            </Position>
            <AltitudeMeters>361.399993896484375</AltitudeMeters>
            <DistanceMeters>NAN</DistanceMeters>
          </Trackpoint>
          <Trackpoint>
            <Time>2021-08-13T11:40:51.000Z</Time>
            <Position>
              <LatitudeDegrees>43.13080550171434879302978515625</LatitudeDegrees>
              <LongitudeDegrees>-1.93861953914165496826171875</LongitudeDegrees>
            </Position>
            <AltitudeMeters>361.600006103515625</AltitudeMeters>
            <DistanceMeters>NAN</DistanceMeters>
          </Trackpoint>
          <Trackpoint>
            <Time>2021-08-13T11:40:52.000Z</Time>
            <Position>
              <LatitudeDegrees>43.1307811103761196136474609375</LatitudeDegrees>
              <LongitudeDegrees>-1.93863605149090290069580078125</LongitudeDegrees>
            </Position>
            <AltitudeMeters>361.79998779296875</AltitudeMeters>
            <DistanceMeters>NAN</DistanceMeters>
          </Trackpoint>
          <Trackpoint>
            <Time>2021-08-13T11:40:53.000Z</Time>
            <Position>
              <LatitudeDegrees>43.13076250255107879638671875</LatitudeDegrees>
              <LongitudeDegrees>-1.9386549107730388641357421875</LongitudeDegrees>
            </Position>
            <AltitudeMeters>361.79998779296875</AltitudeMeters>
            <DistanceMeters>NAN</DistanceMeters>
          </Trackpoint>
          <Trackpoint>
            <Time>2021-08-13T11:40:54.000Z</Time>
            <Position>
              <LatitudeDegrees>43.1307418830692768096923828125</LatitudeDegrees>
              <LongitudeDegrees>-1.93867988884449005126953125</LongitudeDegrees>
            </Position>
            <AltitudeMeters>361.79998779296875</AltitudeMeters>
            <DistanceMeters>NAN</DistanceMeters>
          </Trackpoint>
          <Trackpoint>
            <Time>2021-08-13T11:40:55.000Z</Time>
            <Position>
              <LatitudeDegrees>43.13071279786527156829833984375</LatitudeDegrees>
              <LongitudeDegrees>-1.938701681792736053466796875</LongitudeDegrees>
            </Position>
            <AltitudeMeters>361.79998779296875</AltitudeMeters>
            <DistanceMeters>NAN</DistanceMeters>
          </Trackpoint>
          <Trackpoint>
            <Time>2021-08-13T11:40:56.000Z</Time>
            <Position>
              <LatitudeDegrees>43.13068128190934658050537109375</LatitudeDegrees>
              <LongitudeDegrees>-1.938729844987392425537109375</LongitudeDegrees>
            </Position>
            <AltitudeMeters>362</AltitudeMeters>
            <DistanceMeters>NAN</DistanceMeters>
          </Trackpoint>
          <Trackpoint>
            <Time>2021-08-13T11:40:57.000Z</Time>
            <Position>
              <LatitudeDegrees>43.1306537054479122161865234375</LatitudeDegrees>
              <LongitudeDegrees>-1.938755325973033905029296875</LongitudeDegrees>
            </Position>
            <AltitudeMeters>362</AltitudeMeters>
            <DistanceMeters>NAN</DistanceMeters>
          </Trackpoint>
          <Trackpoint>
            <Time>2021-08-13T11:40:58.000Z</Time>
            <Position>
              <LatitudeDegrees>43.13063015230000019073486328125</LatitudeDegrees>
              <LongitudeDegrees>-1.93877720274031162261962890625</LongitudeDegrees>
            </Position>
            <AltitudeMeters>362.20001220703125</AltitudeMeters>
            <DistanceMeters>NAN</DistanceMeters>
          </Trackpoint>
          <Trackpoint>
            <Time>2021-08-13T11:40:59.000Z</Time>
            <Position>
              <LatitudeDegrees>43.13060584478080272674560546875</LatitudeDegrees>
              <LongitudeDegrees>-1.93880301900207996368408203125</LongitudeDegrees>
            </Position>
            <AltitudeMeters>362.20001220703125</AltitudeMeters>
            <DistanceMeters>NAN</DistanceMeters>
          </Trackpoint>
          <Trackpoint>
            <Time>2021-08-13T11:41:00.000Z</Time>
            <Position>
              <LatitudeDegrees>43.1305799447000026702880859375</LatitudeDegrees>
              <LongitudeDegrees>-1.93882581777870655059814453125</LongitudeDegrees>
            </Position>
            <AltitudeMeters>362.20001220703125</AltitudeMeters>
            <DistanceMeters>NAN</DistanceMeters>
          </Trackpoint>
          <Trackpoint>
            <Time>2021-08-13T11:41:01.000Z</Time>
            <Position>
              <LatitudeDegrees>43.130556643009185791015625</LatitudeDegrees>
              <LongitudeDegrees>-1.9388433359563350677490234375</LongitudeDegrees>
            </Position>
            <AltitudeMeters>362.20001220703125</AltitudeMeters>
            <DistanceMeters>NAN</DistanceMeters>
          </Trackpoint>
          <Trackpoint>
            <Time>2021-08-13T11:41:02.000Z</Time>
            <Position>
              <LatitudeDegrees>43.1305353529751300811767578125</LatitudeDegrees>
              <LongitudeDegrees>-1.9388523884117603302001953125</LongitudeDegrees>
            </Position>
            <AltitudeMeters>362.20001220703125</AltitudeMeters>
            <DistanceMeters>NAN</DistanceMeters>
          </Trackpoint>
          <Trackpoint>
            <Time>2021-08-13T11:41:03.000Z</Time>
            <Position>
              <LatitudeDegrees>43.1305162422358989715576171875</LatitudeDegrees>
              <LongitudeDegrees>-1.93885691463947296142578125</LongitudeDegrees>
            </Position>
            <AltitudeMeters>362.20001220703125</AltitudeMeters>
            <DistanceMeters>NAN</DistanceMeters>
          </Trackpoint>
          <Trackpoint>
            <Time>2021-08-13T11:41:04.000Z</Time>
            <Position>
              <LatitudeDegrees>43.130495958030223846435546875</LatitudeDegrees>
              <LongitudeDegrees>-1.93886001594364643096923828125</LongitudeDegrees>
            </Position>
            <AltitudeMeters>362.20001220703125</AltitudeMeters>
            <DistanceMeters>NAN</DistanceMeters>
          </Trackpoint>
          <Trackpoint>
            <Time>2021-08-13T11:41:05.000Z</Time>
            <Position>
              <LatitudeDegrees>43.13048464246094226837158203125</LatitudeDegrees>
              <LongitudeDegrees>-1.9388483650982379913330078125</LongitudeDegrees>
            </Position>
            <AltitudeMeters>362.399993896484375</AltitudeMeters>
            <DistanceMeters>NAN</DistanceMeters>
          </Trackpoint>
          <Trackpoint>
            <Time>2021-08-13T11:41:06.000Z</Time>
            <Position>
              <LatitudeDegrees>43.1304686330258846282958984375</LatitudeDegrees>
              <LongitudeDegrees>-1.93885096348822116851806640625</LongitudeDegrees>
            </Position>
            <AltitudeMeters>362.600006103515625</AltitudeMeters>
            <DistanceMeters>NAN</DistanceMeters>
          </Trackpoint>
          <Trackpoint>
            <Time>2021-08-13T11:41:07.000Z</Time>
            <Position>
              <LatitudeDegrees>43.13045932911336421966552734375</LatitudeDegrees>
              <LongitudeDegrees>-1.9388602674007415771484375</LongitudeDegrees>
            </Position>
            <AltitudeMeters>362.600006103515625</AltitudeMeters>
            <DistanceMeters>NAN</DistanceMeters>
          </Trackpoint>
          <Trackpoint>
            <Time>2021-08-13T11:41:08.000Z</Time>
            <Position>
              <LatitudeDegrees>43.1304560601711273193359375</LatitudeDegrees>
              <LongitudeDegrees>-1.93886873312294483184814453125</LongitudeDegrees>
            </Position>
            <AltitudeMeters>362.79998779296875</AltitudeMeters>
            <DistanceMeters>NAN</DistanceMeters>
          </Trackpoint>
          <Trackpoint>
            <Time>2021-08-13T11:41:09.000Z</Time>
            <Position>
              <LatitudeDegrees>43.13045161776244640350341796875</LatitudeDegrees>
              <LongitudeDegrees>-1.9388785399496555328369140625</LongitudeDegrees>
            </Position>
            <AltitudeMeters>363</AltitudeMeters>
            <DistanceMeters>NAN</DistanceMeters>
          </Trackpoint>
          <Trackpoint>
            <Time>2021-08-13T11:41:10.000Z</Time>
            <Position>
              <LatitudeDegrees>43.1304495222866535186767578125</LatitudeDegrees>
              <LongitudeDegrees>-1.93888717330992221832275390625</LongitudeDegrees>
            </Position>
            <AltitudeMeters>363.20001220703125</AltitudeMeters>
            <DistanceMeters>NAN</DistanceMeters>
          </Trackpoint>
          <Trackpoint>
            <Time>2021-08-13T11:41:26.000Z</Time>
            <Position>
              <LatitudeDegrees>43.129799924790859222412109375</LatitudeDegrees>
              <LongitudeDegrees>-1.9389559887349605560302734375</LongitudeDegrees>
            </Position>
            <AltitudeMeters>365.399993896484375</AltitudeMeters>
            <DistanceMeters>NAN</DistanceMeters>
          </Trackpoint>
          <Trackpoint>
            <Time>2021-08-13T11:41:27.000Z</Time>
            <Position>
              <LatitudeDegrees>43.12978156842291355133056640625</LatitudeDegrees>
              <LongitudeDegrees>-1.93892070092260837554931640625</LongitudeDegrees>
            </Position>
            <AltitudeMeters>365.600006103515625</AltitudeMeters>
            <DistanceMeters>NAN</DistanceMeters>
          </Trackpoint>
          <Trackpoint>
            <Time>2021-08-13T11:41:28.000Z</Time>
            <Position>
              <LatitudeDegrees>43.12974837608635425567626953125</LatitudeDegrees>
              <LongitudeDegrees>-1.93889982998371124267578125</LongitudeDegrees>
            </Position>
            <AltitudeMeters>365.600006103515625</AltitudeMeters>
            <DistanceMeters>NAN</DistanceMeters>
          </Trackpoint>
          <Trackpoint>
            <Time>2021-08-13T11:41:29.000Z</Time>
            <Position>
              <LatitudeDegrees>43.12970981933176517486572265625</LatitudeDegrees>
              <LongitudeDegrees>-1.93887677974998950958251953125</LongitudeDegrees>
            </Position>
            <AltitudeMeters>365.79998779296875</AltitudeMeters>
            <DistanceMeters>NAN</DistanceMeters>
          </Trackpoint>
          <Trackpoint>
            <Time>2021-08-13T11:41:30.000Z</Time>
            <Position>
              <LatitudeDegrees>43.1296767108142375946044921875</LatitudeDegrees>
              <LongitudeDegrees>-1.93887677974998950958251953125</LongitudeDegrees>
            </Position>
            <AltitudeMeters>365.79998779296875</AltitudeMeters>
            <DistanceMeters>NAN</DistanceMeters>
          </Trackpoint>
          <Trackpoint>
            <Time>2021-08-13T11:41:31.000Z</Time>
            <Position>
              <LatitudeDegrees>43.12964226119220256805419921875</LatitudeDegrees>
              <LongitudeDegrees>-1.93887510336935520172119140625</LongitudeDegrees>
            </Position>
            <AltitudeMeters>365.79998779296875</AltitudeMeters>
            <DistanceMeters>NAN</DistanceMeters>
          </Trackpoint>
          <Trackpoint>
            <Time>2021-08-13T11:41:32.000Z</Time>
            <Position>
              <LatitudeDegrees>43.12959297560155391693115234375</LatitudeDegrees>
              <LongitudeDegrees>-1.93891726434230804443359375</LongitudeDegrees>
            </Position>
            <AltitudeMeters>365.79998779296875</AltitudeMeters>
            <DistanceMeters>NAN</DistanceMeters>
          </Trackpoint>
          <Trackpoint>
            <Time>2021-08-13T11:41:33.000Z</Time>
            <Position>
              <LatitudeDegrees>43.12955525703728199005126953125</LatitudeDegrees>
              <LongitudeDegrees>-1.93891860544681549072265625</LongitudeDegrees>
            </Position>
            <AltitudeMeters>365.79998779296875</AltitudeMeters>
            <DistanceMeters>NAN</DistanceMeters>
          </Trackpoint>
          <Trackpoint>
            <Time>2021-08-13T11:41:34.000Z</Time>
            <Position>
              <LatitudeDegrees>43.12952734529972076416015625</LatitudeDegrees>
              <LongitudeDegrees>-1.93891064263880252838134765625</LongitudeDegrees>
            </Position>
            <AltitudeMeters>365.79998779296875</AltitudeMeters>
            <DistanceMeters>NAN</DistanceMeters>
          </Trackpoint>
          <Trackpoint>
            <Time>2021-08-13T11:41:35.000Z</Time>
            <Position>
              <LatitudeDegrees>43.12948619015514850616455078125</LatitudeDegrees>
              <LongitudeDegrees>-1.9389077089726924896240234375</LongitudeDegrees>
            </Position>
            <AltitudeMeters>365.79998779296875</AltitudeMeters>
            <DistanceMeters>NAN</DistanceMeters>
          </Trackpoint>
          <Trackpoint>
            <Time>2021-08-13T11:41:36.000Z</Time>
            <Position>
              <LatitudeDegrees>43.12945852987468242645263671875</LatitudeDegrees>
              <LongitudeDegrees>-1.9389067031443119049072265625</LongitudeDegrees>
            </Position>
            <AltitudeMeters>365.600006103515625</AltitudeMeters>
            <DistanceMeters>NAN</DistanceMeters>
          </Trackpoint>
          <Trackpoint>
            <Time>2021-08-13T11:41:37.000Z</Time>
            <Position>
              <LatitudeDegrees>43.129426427185535430908203125</LatitudeDegrees>
              <LongitudeDegrees>-1.93891215138137340545654296875</LongitudeDegrees>
            </Position>
            <AltitudeMeters>365.600006103515625</AltitudeMeters>
            <DistanceMeters>NAN</DistanceMeters>
          </Trackpoint>
          <Trackpoint>
            <Time>2021-08-13T11:41:38.000Z</Time>
            <Position>
              <LatitudeDegrees>43.129390887916088104248046875</LatitudeDegrees>
              <LongitudeDegrees>-1.93892262876033782958984375</LongitudeDegrees>
            </Position>
            <AltitudeMeters>365.600006103515625</AltitudeMeters>
            <DistanceMeters>NAN</DistanceMeters>
          </Trackpoint>
          <Trackpoint>
            <Time>2021-08-13T11:41:39.000Z</Time>
            <Position>
              <LatitudeDegrees>43.12935057096183300018310546875</LatitudeDegrees>
              <LongitudeDegrees>-1.93892522715032100677490234375</LongitudeDegrees>
            </Position>
            <AltitudeMeters>365.79998779296875</AltitudeMeters>
            <DistanceMeters>NAN</DistanceMeters>
          </Trackpoint>
          <Trackpoint>
            <Time>2021-08-13T11:41:40.000Z</Time>
            <Position>
              <LatitudeDegrees>43.1293136067688465118408203125</LatitudeDegrees>
              <LongitudeDegrees>-1.93892640061676502227783203125</LongitudeDegrees>
            </Position>
            <AltitudeMeters>365.79998779296875</AltitudeMeters>
            <DistanceMeters>NAN</DistanceMeters>
          </Trackpoint>
          <Trackpoint>
            <Time>2021-08-13T11:41:41.000Z</Time>
            <Position>
              <LatitudeDegrees>43.12927521765232086181640625</LatitudeDegrees>
              <LongitudeDegrees>-1.93892774172127246856689453125</LongitudeDegrees>
            </Position>
            <AltitudeMeters>365.79998779296875</AltitudeMeters>
            <DistanceMeters>NAN</DistanceMeters>
          </Trackpoint>
          <Trackpoint>
            <Time>2021-08-13T11:41:42.000Z</Time>
            <Position>
              <LatitudeDegrees>43.12924973666667938232421875</LatitudeDegrees>
              <LongitudeDegrees>-1.93893176503479480743408203125</LongitudeDegrees>
            </Position>
            <AltitudeMeters>366</AltitudeMeters>
            <DistanceMeters>NAN</DistanceMeters>
          </Trackpoint>
          <Trackpoint>
            <Time>2021-08-13T11:41:43.000Z</Time>
            <Position>
              <LatitudeDegrees>43.12921755015850067138671875</LatitudeDegrees>
              <LongitudeDegrees>-1.938928328454494476318359375</LongitudeDegrees>
            </Position>
            <AltitudeMeters>366</AltitudeMeters>
            <DistanceMeters>NAN</DistanceMeters>
          </Trackpoint>
          <Trackpoint>
            <Time>2021-08-13T11:41:44.000Z</Time>
            <Position>
              <LatitudeDegrees>43.12918209470808506011962890625</LatitudeDegrees>
              <LongitudeDegrees>-1.93893344141542911529541015625</LongitudeDegrees>
            </Position>
            <AltitudeMeters>366</AltitudeMeters>
            <DistanceMeters>NAN</DistanceMeters>
          </Trackpoint>
          <Trackpoint>
            <Time>2021-08-13T11:41:45.000Z</Time>
            <Position>
              <LatitudeDegrees>43.12915393151342868804931640625</LatitudeDegrees>
              <LongitudeDegrees>-1.9389352016150951385498046875</LongitudeDegrees>
            </Position>
            <AltitudeMeters>366</AltitudeMeters>
            <DistanceMeters>NAN</DistanceMeters>
          </Trackpoint>
          <Trackpoint>
            <Time>2021-08-13T11:41:46.000Z</Time>
            <Position>
              <LatitudeDegrees>43.12912861816585063934326171875</LatitudeDegrees>
              <LongitudeDegrees>-1.9389338605105876922607421875</LongitudeDegrees>
            </Position>
            <AltitudeMeters>366</AltitudeMeters>
            <DistanceMeters>NAN</DistanceMeters>
          </Trackpoint>
          <Trackpoint>
            <Time>2021-08-13T11:41:47.000Z</Time>
            <Position>
              <LatitudeDegrees>43.12909953296184539794921875</LatitudeDegrees>
              <LongitudeDegrees>-1.93893059156835079193115234375</LongitudeDegrees>
            </Position>
            <AltitudeMeters>366</AltitudeMeters>
            <DistanceMeters>NAN</DistanceMeters>
          </Trackpoint>
          <Trackpoint>
            <Time>2021-08-13T11:41:48.000Z</Time>
            <Position>
              <LatitudeDegrees>43.12908302061259746551513671875</LatitudeDegrees>
              <LongitudeDegrees>-1.9389251433312892913818359375</LongitudeDegrees>
            </Position>
            <AltitudeMeters>366.20001220703125</AltitudeMeters>
            <DistanceMeters>NAN</DistanceMeters>
          </Trackpoint>
          <Trackpoint>
            <Time>2021-08-13T11:41:49.000Z</Time>
            <Position>
              <LatitudeDegrees>43.12905804254114627838134765625</LatitudeDegrees>
              <LongitudeDegrees>-1.93891902454197406768798828125</LongitudeDegrees>
            </Position>
            <AltitudeMeters>366.399993896484375</AltitudeMeters>
            <DistanceMeters>NAN</DistanceMeters>
          </Trackpoint>
          <Trackpoint>
            <Time>2021-08-13T11:41:50.000Z</Time>
            <Position>
              <LatitudeDegrees>43.12903088517487049102783203125</LatitudeDegrees>
              <LongitudeDegrees>-1.93892396986484527587890625</LongitudeDegrees>
            </Position>
            <AltitudeMeters>366.600006103515625</AltitudeMeters>
            <DistanceMeters>NAN</DistanceMeters>
          </Trackpoint>
          <Trackpoint>
            <Time>2021-08-13T11:41:51.000Z</Time>
            <Position>
              <LatitudeDegrees>43.12900758348405361175537109375</LatitudeDegrees>
              <LongitudeDegrees>-1.93892262876033782958984375</LongitudeDegrees>
            </Position>
            <AltitudeMeters>366.600006103515625</AltitudeMeters>
            <DistanceMeters>NAN</DistanceMeters>
          </Trackpoint>
          <Trackpoint>
            <Time>2021-08-13T11:41:53.000Z</Time>
            <Position>
              <LatitudeDegrees>43.12895678915083408355712890625</LatitudeDegrees>
              <LongitudeDegrees>-1.93893243558704853057861328125</LongitudeDegrees>
            </Position>
            <AltitudeMeters>366.79998779296875</AltitudeMeters>
            <DistanceMeters>NAN</DistanceMeters>
          </Trackpoint>
          <Trackpoint>
            <Time>2021-08-13T11:41:54.000Z</Time>
            <Position>
              <LatitudeDegrees>43.12893114052712917327880859375</LatitudeDegrees>
              <LongitudeDegrees>-1.93893310613930225372314453125</LongitudeDegrees>
            </Position>
            <AltitudeMeters>367</AltitudeMeters>
            <DistanceMeters>NAN</DistanceMeters>
          </Trackpoint>
          <Trackpoint>
            <Time>2021-08-13T11:41:55.000Z</Time>
            <Position>
              <LatitudeDegrees>43.12890264205634593963623046875</LatitudeDegrees>
              <LongitudeDegrees>-1.93893511779606342315673828125</LongitudeDegrees>
            </Position>
            <AltitudeMeters>367</AltitudeMeters>
            <DistanceMeters>NAN</DistanceMeters>
          </Trackpoint>
          <Trackpoint>
            <Time>2021-08-13T11:41:58.000Z</Time>
            <Position>
              <LatitudeDegrees>43.12883131206035614013671875</LatitudeDegrees>
              <LongitudeDegrees>-1.93893327377736568450927734375</LongitudeDegrees>
            </Position>
            <AltitudeMeters>367.399993896484375</AltitudeMeters>
            <DistanceMeters>NAN</DistanceMeters>
          </Trackpoint>
          <Trackpoint>
            <Time>2021-08-13T11:42:00.000Z</Time>
            <Position>
              <LatitudeDegrees>43.12878278084099292755126953125</LatitudeDegrees>
              <LongitudeDegrees>-1.9389380514621734619140625</LongitudeDegrees>
            </Position>
            <AltitudeMeters>367.600006103515625</AltitudeMeters>
            <DistanceMeters>NAN</DistanceMeters>
          </Trackpoint>
          <Trackpoint>
            <Time>2021-08-13T11:42:01.000Z</Time>
            <Position>
              <LatitudeDegrees>43.12875889241695404052734375</LatitudeDegrees>
              <LongitudeDegrees>-1.9389479421079158782958984375</LongitudeDegrees>
            </Position>
            <AltitudeMeters>367.600006103515625</AltitudeMeters>
            <DistanceMeters>NAN</DistanceMeters>
          </Trackpoint>
          <Trackpoint>
            <Time>2021-08-13T11:42:02.000Z</Time>
            <Position>
              <LatitudeDegrees>43.1287376023828983306884765625</LatitudeDegrees>
              <LongitudeDegrees>-1.93894567899405956268310546875</LongitudeDegrees>
            </Position>
            <AltitudeMeters>367.600006103515625</AltitudeMeters>
            <DistanceMeters>NAN</DistanceMeters>
          </Trackpoint>
          <Trackpoint>
            <Time>2021-08-13T11:42:03.000Z</Time>
            <Position>
              <LatitudeDegrees>43.12871488742530345916748046875</LatitudeDegrees>
              <LongitudeDegrees>-1.93893763236701488494873046875</LongitudeDegrees>
            </Position>
            <AltitudeMeters>367.79998779296875</AltitudeMeters>
            <DistanceMeters>NAN</DistanceMeters>
          </Trackpoint>
          <Trackpoint>
            <Time>2021-08-13T11:42:04.000Z</Time>
            <Position>
              <LatitudeDegrees>43.128686808049678802490234375</LatitudeDegrees>
              <LongitudeDegrees>-1.93893025629222393035888671875</LongitudeDegrees>
            </Position>
            <AltitudeMeters>367.79998779296875</AltitudeMeters>
            <DistanceMeters>NAN</DistanceMeters>
          </Trackpoint>
          <Trackpoint>
            <Time>2021-08-13T11:42:05.000Z</Time>
            <Position>
              <LatitudeDegrees>43.12865696847438812255859375</LatitudeDegrees>
              <LongitudeDegrees>-1.93892740644514560699462890625</LongitudeDegrees>
            </Position>
            <AltitudeMeters>368</AltitudeMeters>
            <DistanceMeters>NAN</DistanceMeters>
          </Trackpoint>
          <Trackpoint>
            <Time>2021-08-13T11:42:11.000Z</Time>
            <Position>
              <LatitudeDegrees>43.12848371453583240509033203125</LatitudeDegrees>
              <LongitudeDegrees>-1.93886672146618366241455078125</LongitudeDegrees>
            </Position>
            <AltitudeMeters>368.399993896484375</AltitudeMeters>
            <DistanceMeters>NAN</DistanceMeters>
          </Trackpoint>
          <Trackpoint>
            <Time>2021-08-13T11:42:16.000Z</Time>
            <Position>
              <LatitudeDegrees>43.1283503584563732147216796875</LatitudeDegrees>
              <LongitudeDegrees>-1.9388124905526638031005859375</LongitudeDegrees>
            </Position>
            <AltitudeMeters>368.600006103515625</AltitudeMeters>
            <DistanceMeters>NAN</DistanceMeters>
          </Trackpoint>
          <Trackpoint>
            <Time>2021-08-13T11:42:17.000Z</Time>
            <Position>
              <LatitudeDegrees>43.1283263862133026123046875</LatitudeDegrees>
              <LongitudeDegrees>-1.9387943856418132781982421875</LongitudeDegrees>
            </Position>
            <AltitudeMeters>368.600006103515625</AltitudeMeters>
            <DistanceMeters>NAN</DistanceMeters>
          </Trackpoint>
          <Trackpoint>
            <Time>2021-08-13T11:42:18.000Z</Time>
            <Position>
              <LatitudeDegrees>43.12830953858792781829833984375</LatitudeDegrees>
              <LongitudeDegrees>-1.93878223188221454620361328125</LongitudeDegrees>
            </Position>
            <AltitudeMeters>368.79998779296875</AltitudeMeters>
            <DistanceMeters>NAN</DistanceMeters>
          </Trackpoint>
          <Trackpoint>
            <Time>2021-08-13T11:42:19.000Z</Time>
            <Position>
              <LatitudeDegrees>43.12827936373651027679443359375</LatitudeDegrees>
              <LongitudeDegrees>-1.938765048980712890625</LongitudeDegrees>
            </Position>
            <AltitudeMeters>368.79998779296875</AltitudeMeters>
            <DistanceMeters>NAN</DistanceMeters>
          </Trackpoint>
          <Trackpoint>
            <Time>2021-08-13T11:42:20.000Z</Time>
            <Position>
              <LatitudeDegrees>43.128262348473072052001953125</LatitudeDegrees>
              <LongitudeDegrees>-1.93875323049724102020263671875</LongitudeDegrees>
            </Position>
            <AltitudeMeters>368.79998779296875</AltitudeMeters>
            <DistanceMeters>NAN</DistanceMeters>
          </Trackpoint>
          <Trackpoint>
            <Time>2021-08-13T11:42:21.000Z</Time>
            <Position>
              <LatitudeDegrees>43.128242902457714080810546875</LatitudeDegrees>
              <LongitudeDegrees>-1.93873143754899501800537109375</LongitudeDegrees>
            </Position>
            <AltitudeMeters>369</AltitudeMeters>
            <DistanceMeters>NAN</DistanceMeters>
          </Trackpoint>
          <Trackpoint>
            <Time>2021-08-13T11:42:22.000Z</Time>
            <Position>
              <LatitudeDegrees>43.12822152860462665557861328125</LatitudeDegrees>
              <LongitudeDegrees>-1.93871333263814449310302734375</LongitudeDegrees>
            </Position>
            <AltitudeMeters>369</AltitudeMeters>
            <DistanceMeters>NAN</DistanceMeters>
          </Trackpoint>
          <Trackpoint>
            <Time>2021-08-13T11:42:23.000Z</Time>
            <Position>
              <LatitudeDegrees>43.1281968019902706146240234375</LatitudeDegrees>
              <LongitudeDegrees>-1.93869371898472309112548828125</LongitudeDegrees>
            </Position>
            <AltitudeMeters>369</AltitudeMeters>
            <DistanceMeters>NAN</DistanceMeters>
          </Trackpoint>
          <Trackpoint>
            <Time>2021-08-13T11:42:24.000Z</Time>
            <Position>
              <LatitudeDegrees>43.128168471157550811767578125</LatitudeDegrees>
              <LongitudeDegrees>-1.9386750273406505584716796875</LongitudeDegrees>
            </Position>
            <AltitudeMeters>369</AltitudeMeters>
            <DistanceMeters>NAN</DistanceMeters>
          </Trackpoint>
          <Trackpoint>
            <Time>2021-08-13T11:42:30.000Z</Time>
            <Position>
              <LatitudeDegrees>43.1280010007321834564208984375</LatitudeDegrees>
              <LongitudeDegrees>-1.9384874403476715087890625</LongitudeDegrees>
            </Position>
            <AltitudeMeters>369.399993896484375</AltitudeMeters>
            <DistanceMeters>NAN</DistanceMeters>
          </Trackpoint>
          <Trackpoint>
            <Time>2021-08-13T11:42:38.000Z</Time>
            <Position>
              <LatitudeDegrees>43.12778768129646778106689453125</LatitudeDegrees>
              <LongitudeDegrees>-1.938276551663875579833984375</LongitudeDegrees>
            </Position>
            <AltitudeMeters>369.399993896484375</AltitudeMeters>
            <DistanceMeters>NAN</DistanceMeters>
          </Trackpoint>
          <Trackpoint>
            <Time>2021-08-13T11:42:48.000Z</Time>
            <Position>
              <LatitudeDegrees>43.12751996330916881561279296875</LatitudeDegrees>
              <LongitudeDegrees>-1.93797941319644451141357421875</LongitudeDegrees>
            </Position>
            <AltitudeMeters>370</AltitudeMeters>
            <DistanceMeters>NAN</DistanceMeters>
          </Trackpoint>
          <Trackpoint>
            <Time>2021-08-13T11:42:50.000Z</Time>
            <Position>
              <LatitudeDegrees>43.12746782787144184112548828125</LatitudeDegrees>
              <LongitudeDegrees>-1.93792694248259067535400390625</LongitudeDegrees>
            </Position>
            <AltitudeMeters>370.20001220703125</AltitudeMeters>
            <DistanceMeters>NAN</DistanceMeters>
          </Trackpoint>
          <Trackpoint>
            <Time>2021-08-13T11:42:57.000Z</Time>
            <Position>
              <LatitudeDegrees>43.12730572186410427093505859375</LatitudeDegrees>
              <LongitudeDegrees>-1.9377310574054718017578125</LongitudeDegrees>
            </Position>
            <AltitudeMeters>370.399993896484375</AltitudeMeters>
            <DistanceMeters>NAN</DistanceMeters>
          </Trackpoint>
          <Trackpoint>
            <Time>2021-08-13T11:42:58.000Z</Time>
            <Position>
              <LatitudeDegrees>43.1272811628878116607666015625</LatitudeDegrees>
              <LongitudeDegrees>-1.93770616315305233001708984375</LongitudeDegrees>
            </Position>
            <AltitudeMeters>370.399993896484375</AltitudeMeters>
            <DistanceMeters>NAN</DistanceMeters>
          </Trackpoint>
          <Trackpoint>
            <Time>2021-08-13T11:42:59.000Z</Time>
            <Position>
              <LatitudeDegrees>43.12725425697863101959228515625</LatitudeDegrees>
              <LongitudeDegrees>-1.937686465680599212646484375</LongitudeDegrees>
            </Position>
            <AltitudeMeters>370.399993896484375</AltitudeMeters>
            <DistanceMeters>NAN</DistanceMeters>
          </Trackpoint>
          <Trackpoint>
            <Time>2021-08-13T11:43:00.000Z</Time>
            <Position>
              <LatitudeDegrees>43.12722810544073581695556640625</LatitudeDegrees>
              <LongitudeDegrees>-1.93766626529395580291748046875</LongitudeDegrees>
            </Position>
            <AltitudeMeters>370.399993896484375</AltitudeMeters>
            <DistanceMeters>NAN</DistanceMeters>
          </Trackpoint>
          <Trackpoint>
            <Time>2021-08-13T11:43:01.000Z</Time>
            <Position>
              <LatitudeDegrees>43.1272065639495849609375</LatitudeDegrees>
              <LongitudeDegrees>-1.93764866329729557037353515625</LongitudeDegrees>
            </Position>
            <AltitudeMeters>370.399993896484375</AltitudeMeters>
            <DistanceMeters>NAN</DistanceMeters>
          </Trackpoint>
          <Trackpoint>
            <Time>2021-08-13T11:43:02.000Z</Time>
            <Position>
              <LatitudeDegrees>43.12718418426811695098876953125</LatitudeDegrees>
              <LongitudeDegrees>-1.937628127634525299072265625</LongitudeDegrees>
            </Position>
            <AltitudeMeters>370.600006103515625</AltitudeMeters>
            <DistanceMeters>NAN</DistanceMeters>
          </Trackpoint>
          <Trackpoint>
            <Time>2021-08-13T11:43:03.000Z</Time>
            <Position>
              <LatitudeDegrees>43.127158619463443756103515625</LatitudeDegrees>
              <LongitudeDegrees>-1.9376031495630741119384765625</LongitudeDegrees>
            </Position>
            <AltitudeMeters>370.600006103515625</AltitudeMeters>
            <DistanceMeters>NAN</DistanceMeters>
          </Trackpoint>
          <Trackpoint>
            <Time>2021-08-13T11:43:06.000Z</Time>
            <Position>
              <LatitudeDegrees>43.1270791590213775634765625</LatitudeDegrees>
              <LongitudeDegrees>-1.937514133751392364501953125</LongitudeDegrees>
            </Position>
            <AltitudeMeters>370.79998779296875</AltitudeMeters>
            <DistanceMeters>NAN</DistanceMeters>
          </Trackpoint>
          <Trackpoint>
            <Time>2021-08-13T11:43:08.000Z</Time>
            <Position>
              <LatitudeDegrees>43.12702744267880916595458984375</LatitudeDegrees>
              <LongitudeDegrees>-1.93745814263820648193359375</LongitudeDegrees>
            </Position>
            <AltitudeMeters>371.20001220703125</AltitudeMeters>
            <DistanceMeters>NAN</DistanceMeters>
          </Trackpoint>
          <Trackpoint>
            <Time>2021-08-13T11:43:10.000Z</Time>
            <Position>
              <LatitudeDegrees>43.126980252563953399658203125</LatitudeDegrees>
              <LongitudeDegrees>-1.9374065101146697998046875</LongitudeDegrees>
            </Position>
            <AltitudeMeters>371.20001220703125</AltitudeMeters>
            <DistanceMeters>NAN</DistanceMeters>
          </Trackpoint>
          <Trackpoint>
            <Time>2021-08-13T11:43:13.000Z</Time>
            <Position>
              <LatitudeDegrees>43.12690012156963348388671875</LatitudeDegrees>
              <LongitudeDegrees>-1.9373185001313686370849609375</LongitudeDegrees>
            </Position>
            <AltitudeMeters>371.399993896484375</AltitudeMeters>
            <DistanceMeters>NAN</DistanceMeters>
          </Trackpoint>
          <Trackpoint>
            <Time>2021-08-13T11:43:22.000Z</Time>
            <Position>
              <LatitudeDegrees>43.12665964476764202117919921875</LatitudeDegrees>
              <LongitudeDegrees>-1.93704751320183277130126953125</LongitudeDegrees>
            </Position>
            <AltitudeMeters>372</AltitudeMeters>
            <DistanceMeters>NAN</DistanceMeters>
          </Trackpoint>
          <Trackpoint>
            <Time>2021-08-13T11:43:23.000Z</Time>
            <Position>
              <LatitudeDegrees>43.12663466669619083404541015625</LatitudeDegrees>
              <LongitudeDegrees>-1.93702094256877899169921875</LongitudeDegrees>
            </Position>
            <AltitudeMeters>372.20001220703125</AltitudeMeters>
            <DistanceMeters>NAN</DistanceMeters>
          </Trackpoint>
          <Trackpoint>
            <Time>2021-08-13T11:43:26.000Z</Time>
            <Position>
              <LatitudeDegrees>43.126559145748615264892578125</LatitudeDegrees>
              <LongitudeDegrees>-1.93695296533405780792236328125</LongitudeDegrees>
            </Position>
            <AltitudeMeters>372.600006103515625</AltitudeMeters>
            <DistanceMeters>NAN</DistanceMeters>
          </Trackpoint>
          <Trackpoint>
            <Time>2021-08-13T11:43:27.000Z</Time>
            <Position>
              <LatitudeDegrees>43.126535676419734954833984375</LatitudeDegrees>
              <LongitudeDegrees>-1.936927400529384613037109375</LongitudeDegrees>
            </Position>
            <AltitudeMeters>372.600006103515625</AltitudeMeters>
            <DistanceMeters>NAN</DistanceMeters>
          </Trackpoint>
          <Trackpoint>
            <Time>2021-08-13T11:43:28.000Z</Time>
            <Position>
              <LatitudeDegrees>43.12651178799569606781005859375</LatitudeDegrees>
              <LongitudeDegrees>-1.93690217100083827972412109375</LongitudeDegrees>
            </Position>
            <AltitudeMeters>372.79998779296875</AltitudeMeters>
            <DistanceMeters>NAN</DistanceMeters>
          </Trackpoint>
          <Trackpoint>
            <Time>2021-08-13T11:43:29.000Z</Time>
            <Position>
              <LatitudeDegrees>43.126490414142608642578125</LatitudeDegrees>
              <LongitudeDegrees>-1.936873756349086761474609375</LongitudeDegrees>
            </Position>
            <AltitudeMeters>372.79998779296875</AltitudeMeters>
            <DistanceMeters>NAN</DistanceMeters>
          </Trackpoint>
          <Trackpoint>
            <Time>2021-08-13T11:43:30.000Z</Time>
            <Position>
              <LatitudeDegrees>43.126471303403377532958984375</LatitudeDegrees>
              <LongitudeDegrees>-1.93684215657413005828857421875</LongitudeDegrees>
            </Position>
            <AltitudeMeters>373.20001220703125</AltitudeMeters>
            <DistanceMeters>NAN</DistanceMeters>
          </Trackpoint>
          <Trackpoint>
            <Time>2021-08-13T11:43:31.000Z</Time>
            <Position>
              <LatitudeDegrees>43.1264520250260829925537109375</LatitudeDegrees>
              <LongitudeDegrees>-1.93681667558848857879638671875</LongitudeDegrees>
            </Position>
            <AltitudeMeters>373.399993896484375</AltitudeMeters>
            <DistanceMeters>NAN</DistanceMeters>
          </Trackpoint>
          <Trackpoint>
            <Time>2021-08-13T11:43:32.000Z</Time>
            <Position>
              <LatitudeDegrees>43.12642981298267841339111328125</LatitudeDegrees>
              <LongitudeDegrees>-1.93678817711770534515380859375</LongitudeDegrees>
            </Position>
            <AltitudeMeters>373.399993896484375</AltitudeMeters>
            <DistanceMeters>NAN</DistanceMeters>
          </Trackpoint>
          <Trackpoint>
            <Time>2021-08-13T11:43:33.000Z</Time>
            <Position>
              <LatitudeDegrees>43.12640466727316379547119140625</LatitudeDegrees>
              <LongitudeDegrees>-1.93676747381687164306640625</LongitudeDegrees>
            </Position>
            <AltitudeMeters>373.600006103515625</AltitudeMeters>
            <DistanceMeters>NAN</DistanceMeters>
          </Trackpoint>
          <Trackpoint>
            <Time>2021-08-13T11:43:34.000Z</Time>
            <Position>
              <LatitudeDegrees>43.12638119794428348541259765625</LatitudeDegrees>
              <LongitudeDegrees>-1.93673587404191493988037109375</LongitudeDegrees>
            </Position>
            <AltitudeMeters>373.600006103515625</AltitudeMeters>
            <DistanceMeters>NAN</DistanceMeters>
          </Trackpoint>
          <Trackpoint>
            <Time>2021-08-13T11:43:35.000Z</Time>
            <Position>
              <LatitudeDegrees>43.12636208720505237579345703125</LatitudeDegrees>
              <LongitudeDegrees>-1.936697401106357574462890625</LongitudeDegrees>
            </Position>
            <AltitudeMeters>373.600006103515625</AltitudeMeters>
            <DistanceMeters>NAN</DistanceMeters>
          </Trackpoint>
          <Trackpoint>
            <Time>2021-08-13T11:43:42.000Z</Time>
            <Position>
              <LatitudeDegrees>43.12621414661407470703125</LatitudeDegrees>
              <LongitudeDegrees>-1.93647083826363086700439453125</LongitudeDegrees>
            </Position>
            <AltitudeMeters>374.20001220703125</AltitudeMeters>
            <DistanceMeters>NAN</DistanceMeters>
          </Trackpoint>
          <Trackpoint>
            <Time>2021-08-13T11:43:44.000Z</Time>
            <Position>
              <LatitudeDegrees>43.1261784397065639495849609375</LatitudeDegrees>
              <LongitudeDegrees>-1.93640328012406826019287109375</LongitudeDegrees>
            </Position>
            <AltitudeMeters>374.399993896484375</AltitudeMeters>
            <DistanceMeters>NAN</DistanceMeters>
          </Trackpoint>
          <Trackpoint>
            <Time>2021-08-13T11:43:48.000Z</Time>
            <Position>
              <LatitudeDegrees>43.126108534634113311767578125</LatitudeDegrees>
              <LongitudeDegrees>-1.9362469576299190521240234375</LongitudeDegrees>
            </Position>
            <AltitudeMeters>374.399993896484375</AltitudeMeters>
            <DistanceMeters>NAN</DistanceMeters>
          </Trackpoint>
          <Trackpoint>
            <Time>2021-08-13T11:43:52.000Z</Time>
            <Position>
              <LatitudeDegrees>43.12603904865682125091552734375</LatitudeDegrees>
              <LongitudeDegrees>-1.93609021604061126708984375</LongitudeDegrees>
            </Position>
            <AltitudeMeters>374.399993896484375</AltitudeMeters>
            <DistanceMeters>NAN</DistanceMeters>
          </Trackpoint>
          <Trackpoint>
            <Time>2021-08-13T11:43:54.000Z</Time>
            <Position>
              <LatitudeDegrees>43.1259910203516483306884765625</LatitudeDegrees>
              <LongitudeDegrees>-1.9360102526843547821044921875</LongitudeDegrees>
            </Position>
            <AltitudeMeters>374.600006103515625</AltitudeMeters>
            <DistanceMeters>NAN</DistanceMeters>
          </Trackpoint>
          <Trackpoint>
            <Time>2021-08-13T11:43:55.000Z</Time>
            <Position>
              <LatitudeDegrees>43.12596361152827739715576171875</LatitudeDegrees>
              <LongitudeDegrees>-1.9359696842730045318603515625</LongitudeDegrees>
            </Position>
            <AltitudeMeters>374.600006103515625</AltitudeMeters>
            <DistanceMeters>NAN</DistanceMeters>
          </Trackpoint>
          <Trackpoint>
            <Time>2021-08-13T11:43:57.000Z</Time>
            <Position>
              <LatitudeDegrees>43.12591868452727794647216796875</LatitudeDegrees>
              <LongitudeDegrees>-1.93588645197451114654541015625</LongitudeDegrees>
            </Position>
            <AltitudeMeters>374.600006103515625</AltitudeMeters>
            <DistanceMeters>NAN</DistanceMeters>
          </Trackpoint>
          <Trackpoint>
            <Time>2021-08-13T11:43:58.000Z</Time>
            <Position>
              <LatitudeDegrees>43.12589722685515880584716796875</LatitudeDegrees>
              <LongitudeDegrees>-1.9358520023524761199951171875</LongitudeDegrees>
            </Position>
            <AltitudeMeters>374.600006103515625</AltitudeMeters>
            <DistanceMeters>NAN</DistanceMeters>
          </Trackpoint>
          <Trackpoint>
            <Time>2021-08-13T11:44:05.000Z</Time>
            <Position>
              <LatitudeDegrees>43.12574685551226139068603515625</LatitudeDegrees>
              <LongitudeDegrees>-1.9355878047645092010498046875</LongitudeDegrees>
            </Position>
            <AltitudeMeters>375.20001220703125</AltitudeMeters>
            <DistanceMeters>NAN</DistanceMeters>
          </Trackpoint>
          <Trackpoint>
            <Time>2021-08-13T11:44:07.000Z</Time>
            <Position>
              <LatitudeDegrees>43.12572472728788852691650390625</LatitudeDegrees>
              <LongitudeDegrees>-1.9354902394115924835205078125</LongitudeDegrees>
            </Position>
            <AltitudeMeters>375.20001220703125</AltitudeMeters>
            <DistanceMeters>NAN</DistanceMeters>
          </Trackpoint>
          <Trackpoint>
            <Time>2021-08-13T11:44:08.000Z</Time>
            <Position>
              <LatitudeDegrees>43.12569983303546905517578125</LatitudeDegrees>
              <LongitudeDegrees>-1.935465596616268157958984375</LongitudeDegrees>
            </Position>
            <AltitudeMeters>375.20001220703125</AltitudeMeters>
            <DistanceMeters>NAN</DistanceMeters>
          </Trackpoint>
          <Trackpoint>
            <Time>2021-08-13T11:44:09.000Z</Time>
            <Position>
              <LatitudeDegrees>43.12566974200308322906494140625</LatitudeDegrees>
              <LongitudeDegrees>-1.93543366156518459320068359375</LongitudeDegrees>
            </Position>
            <AltitudeMeters>375.20001220703125</AltitudeMeters>
            <DistanceMeters>NAN</DistanceMeters>
          </Trackpoint>
          <Trackpoint>
            <Time>2021-08-13T11:44:10.000Z</Time>
            <Position>
              <LatitudeDegrees>43.12564677558839321136474609375</LatitudeDegrees>
              <LongitudeDegrees>-1.93539552390575408935546875</LongitudeDegrees>
            </Position>
            <AltitudeMeters>375.20001220703125</AltitudeMeters>
            <DistanceMeters>NAN</DistanceMeters>
          </Trackpoint>
          <Trackpoint>
            <Time>2021-08-13T11:44:15.000Z</Time>
            <Position>
              <LatitudeDegrees>43.12552305869758129119873046875</LatitudeDegrees>
              <LongitudeDegrees>-1.93522964604198932647705078125</LongitudeDegrees>
            </Position>
            <AltitudeMeters>375.399993896484375</AltitudeMeters>
            <DistanceMeters>NAN</DistanceMeters>
          </Trackpoint>
          <Trackpoint>
            <Time>2021-08-13T11:44:17.000Z</Time>
            <Position>
              <LatitudeDegrees>43.12546354718506336212158203125</LatitudeDegrees>
              <LongitudeDegrees>-1.935179941356182098388671875</LongitudeDegrees>
            </Position>
            <AltitudeMeters>375.399993896484375</AltitudeMeters>
            <DistanceMeters>NAN</DistanceMeters>
          </Trackpoint>
          <Trackpoint>
            <Time>2021-08-13T11:44:22.000Z</Time>
            <Position>
              <LatitudeDegrees>43.12529825605452060699462890625</LatitudeDegrees>
              <LongitudeDegrees>-1.935114562511444091796875</LongitudeDegrees>
            </Position>
            <AltitudeMeters>375.399993896484375</AltitudeMeters>
            <DistanceMeters>NAN</DistanceMeters>
          </Trackpoint>
          <Trackpoint>
            <Time>2021-08-13T11:44:24.000Z</Time>
            <Position>
              <LatitudeDegrees>43.125240504741668701171875</LatitudeDegrees>
              <LongitudeDegrees>-1.93509117700159549713134765625</LongitudeDegrees>
            </Position>
            <AltitudeMeters>375.600006103515625</AltitudeMeters>
            <DistanceMeters>NAN</DistanceMeters>
          </Trackpoint>
          <Trackpoint>
            <Time>2021-08-13T11:44:25.000Z</Time>
            <Position>
              <LatitudeDegrees>43.1252101622521877288818359375</LatitudeDegrees>
              <LongitudeDegrees>-1.93509084172546863555908203125</LongitudeDegrees>
            </Position>
            <AltitudeMeters>375.399993896484375</AltitudeMeters>
            <DistanceMeters>NAN</DistanceMeters>
          </Trackpoint>
          <Trackpoint>
            <Time>2021-08-13T11:44:26.000Z</Time>
            <Position>
              <LatitudeDegrees>43.12517940066754817962646484375</LatitudeDegrees>
              <LongitudeDegrees>-1.93509385921061038970947265625</LongitudeDegrees>
            </Position>
            <AltitudeMeters>375.399993896484375</AltitudeMeters>
            <DistanceMeters>NAN</DistanceMeters>
          </Trackpoint>
          <Trackpoint>
            <Time>2021-08-13T11:44:27.000Z</Time>
            <Position>
              <LatitudeDegrees>43.12514469958841800689697265625</LatitudeDegrees>
              <LongitudeDegrees>-1.93509721197187900543212890625</LongitudeDegrees>
            </Position>
            <AltitudeMeters>375.600006103515625</AltitudeMeters>
            <DistanceMeters>NAN</DistanceMeters>
          </Trackpoint>
          <Trackpoint>
            <Time>2021-08-13T11:44:28.000Z</Time>
            <Position>
              <LatitudeDegrees>43.1251139380037784576416015625</LatitudeDegrees>
              <LongitudeDegrees>-1.93509922362864017486572265625</LongitudeDegrees>
            </Position>
            <AltitudeMeters>375.79998779296875</AltitudeMeters>
            <DistanceMeters>NAN</DistanceMeters>
          </Trackpoint>
          <Trackpoint>
            <Time>2021-08-13T11:44:29.000Z</Time>
            <Position>
              <LatitudeDegrees>43.12507881782948970794677734375</LatitudeDegrees>
              <LongitudeDegrees>-1.93510978482663631439208984375</LongitudeDegrees>
            </Position>
            <AltitudeMeters>375.79998779296875</AltitudeMeters>
            <DistanceMeters>NAN</DistanceMeters>
          </Trackpoint>
          <Trackpoint>
            <Time>2021-08-13T11:44:30.000Z</Time>
            <Position>
              <LatitudeDegrees>43.12504269182682037353515625</LatitudeDegrees>
              <LongitudeDegrees>-1.93512369878590106964111328125</LongitudeDegrees>
            </Position>
            <AltitudeMeters>375.79998779296875</AltitudeMeters>
            <DistanceMeters>NAN</DistanceMeters>
          </Trackpoint>
          <Trackpoint>
            <Time>2021-08-13T11:44:31.000Z</Time>
            <Position>
              <LatitudeDegrees>43.1250079907476902008056640625</LatitudeDegrees>
              <LongitudeDegrees>-1.93512906320393085479736328125</LongitudeDegrees>
            </Position>
            <AltitudeMeters>375.79998779296875</AltitudeMeters>
            <DistanceMeters>NAN</DistanceMeters>
          </Trackpoint>
          <Trackpoint>
            <Time>2021-08-13T11:44:32.000Z</Time>
            <Position>
              <LatitudeDegrees>43.1249704398214817047119140625</LatitudeDegrees>
              <LongitudeDegrees>-1.9351311586797237396240234375</LongitudeDegrees>
            </Position>
            <AltitudeMeters>375.79998779296875</AltitudeMeters>
            <DistanceMeters>NAN</DistanceMeters>
          </Trackpoint>
          <Trackpoint>
            <Time>2021-08-13T11:44:33.000Z</Time>
            <Position>
              <LatitudeDegrees>43.1249315477907657623291015625</LatitudeDegrees>
              <LongitudeDegrees>-1.93511364050209522247314453125</LongitudeDegrees>
            </Position>
            <AltitudeMeters>375.79998779296875</AltitudeMeters>
            <DistanceMeters>NAN</DistanceMeters>
          </Trackpoint>
          <Trackpoint>
            <Time>2021-08-13T11:44:34.000Z</Time>
            <Position>
              <LatitudeDegrees>43.12489257194101810455322265625</LatitudeDegrees>
              <LongitudeDegrees>-1.9351100362837314605712890625</LongitudeDegrees>
            </Position>
            <AltitudeMeters>375.79998779296875</AltitudeMeters>
            <DistanceMeters>NAN</DistanceMeters>
          </Trackpoint>
          <Trackpoint>
            <Time>2021-08-13T11:44:37.000Z</Time>
            <Position>
              <LatitudeDegrees>43.12478075735270977020263671875</LatitudeDegrees>
              <LongitudeDegrees>-1.93510710261762142181396484375</LongitudeDegrees>
            </Position>
            <AltitudeMeters>376</AltitudeMeters>
            <DistanceMeters>NAN</DistanceMeters>
          </Trackpoint>
          <Trackpoint>
            <Time>2021-08-13T11:44:38.000Z</Time>
            <Position>
              <LatitudeDegrees>43.12474739737808704376220703125</LatitudeDegrees>
              <LongitudeDegrees>-1.93510961718857288360595703125</LongitudeDegrees>
            </Position>
            <AltitudeMeters>376</AltitudeMeters>
            <DistanceMeters>NAN</DistanceMeters>
          </Trackpoint>
          <Trackpoint>
            <Time>2021-08-13T11:44:39.000Z</Time>
            <Position>
              <LatitudeDegrees>43.124712444841861724853515625</LatitudeDegrees>
              <LongitudeDegrees>-1.93508765660226345062255859375</LongitudeDegrees>
            </Position>
            <AltitudeMeters>376.20001220703125</AltitudeMeters>
            <DistanceMeters>NAN</DistanceMeters>
          </Trackpoint>
          <Trackpoint>
            <Time>2021-08-13T11:44:40.000Z</Time>
            <Position>
              <LatitudeDegrees>43.1246790848672389984130859375</LatitudeDegrees>
              <LongitudeDegrees>-1.93507424555718898773193359375</LongitudeDegrees>
            </Position>
            <AltitudeMeters>376.20001220703125</AltitudeMeters>
            <DistanceMeters>NAN</DistanceMeters>
          </Trackpoint>
          <Trackpoint>
            <Time>2021-08-13T11:44:41.000Z</Time>
            <Position>
              <LatitudeDegrees>43.12464413233101367950439453125</LatitudeDegrees>
              <LongitudeDegrees>-1.93507290445268154144287109375</LongitudeDegrees>
            </Position>
            <AltitudeMeters>376.20001220703125</AltitudeMeters>
            <DistanceMeters>NAN</DistanceMeters>
          </Trackpoint>
          <Trackpoint>
            <Time>2021-08-13T11:44:44.000Z</Time>
            <Position>
              <LatitudeDegrees>43.1245399452745914459228515625</LatitudeDegrees>
              <LongitudeDegrees>-1.93507541902363300323486328125</LongitudeDegrees>
            </Position>
            <AltitudeMeters>376.399993896484375</AltitudeMeters>
            <DistanceMeters>NAN</DistanceMeters>
          </Trackpoint>
          <Trackpoint>
            <Time>2021-08-13T11:44:45.000Z</Time>
            <Position>
              <LatitudeDegrees>43.12450448982417583465576171875</LatitudeDegrees>
              <LongitudeDegrees>-1.935086734592914581298828125</LongitudeDegrees>
            </Position>
            <AltitudeMeters>376.399993896484375</AltitudeMeters>
            <DistanceMeters>NAN</DistanceMeters>
          </Trackpoint>
          <Trackpoint>
            <Time>2021-08-13T11:44:47.000Z</Time>
            <Position>
              <LatitudeDegrees>43.1244319863617420196533203125</LatitudeDegrees>
              <LongitudeDegrees>-1.93506955169141292572021484375</LongitudeDegrees>
            </Position>
            <AltitudeMeters>376.600006103515625</AltitudeMeters>
            <DistanceMeters>NAN</DistanceMeters>
          </Trackpoint>
          <Trackpoint>
            <Time>2021-08-13T11:44:48.000Z</Time>
            <Position>
              <LatitudeDegrees>43.1243984587490558624267578125</LatitudeDegrees>
              <LongitudeDegrees>-1.935065947473049163818359375</LongitudeDegrees>
            </Position>
            <AltitudeMeters>376.600006103515625</AltitudeMeters>
            <DistanceMeters>NAN</DistanceMeters>
          </Trackpoint>
          <Trackpoint>
            <Time>2021-08-13T11:44:50.000Z</Time>
            <Position>
              <LatitudeDegrees>43.12432897277176380157470703125</LatitudeDegrees>
              <LongitudeDegrees>-1.9350630976259708404541015625</LongitudeDegrees>
            </Position>
            <AltitudeMeters>376.79998779296875</AltitudeMeters>
            <DistanceMeters>NAN</DistanceMeters>
          </Trackpoint>
          <Trackpoint>
            <Time>2021-08-13T11:44:51.000Z</Time>
            <Position>
              <LatitudeDegrees>43.12429611571133136749267578125</LatitudeDegrees>
              <LongitudeDegrees>-1.93506301380693912506103515625</LongitudeDegrees>
            </Position>
            <AltitudeMeters>376.79998779296875</AltitudeMeters>
            <DistanceMeters>NAN</DistanceMeters>
          </Trackpoint>
          <Trackpoint>
            <Time>2021-08-13T11:44:52.000Z</Time>
            <Position>
              <LatitudeDegrees>43.12426275573670864105224609375</LatitudeDegrees>
              <LongitudeDegrees>-1.93506217561662197113037109375</LongitudeDegrees>
            </Position>
            <AltitudeMeters>377</AltitudeMeters>
            <DistanceMeters>NAN</DistanceMeters>
          </Trackpoint>
          <Trackpoint>
            <Time>2021-08-13T11:44:53.000Z</Time>
            <Position>
              <LatitudeDegrees>43.1242338381707668304443359375</LatitudeDegrees>
              <LongitudeDegrees>-1.935061253607273101806640625</LongitudeDegrees>
            </Position>
            <AltitudeMeters>377</AltitudeMeters>
            <DistanceMeters>NAN</DistanceMeters>
          </Trackpoint>
          <Trackpoint>
            <Time>2021-08-13T11:44:54.000Z</Time>
            <Position>
              <LatitudeDegrees>43.1242083571851253509521484375</LatitudeDegrees>
              <LongitudeDegrees>-1.93506217561662197113037109375</LongitudeDegrees>
            </Position>
            <AltitudeMeters>377.20001220703125</AltitudeMeters>
            <DistanceMeters>NAN</DistanceMeters>
          </Trackpoint>
          <Trackpoint>
            <Time>2021-08-13T11:44:55.000Z</Time>
            <Position>
              <LatitudeDegrees>43.12418178655207157135009765625</LatitudeDegrees>
              <LongitudeDegrees>-1.93506871350109577178955078125</LongitudeDegrees>
            </Position>
            <AltitudeMeters>377.399993896484375</AltitudeMeters>
            <DistanceMeters>NAN</DistanceMeters>
          </Trackpoint>
          <Trackpoint>
            <Time>2021-08-13T11:44:57.000Z</Time>
            <Position>
              <LatitudeDegrees>43.12412898056209087371826171875</LatitudeDegrees>
              <LongitudeDegrees>-1.93509109318256378173828125</LongitudeDegrees>
            </Position>
            <AltitudeMeters>377.79998779296875</AltitudeMeters>
            <DistanceMeters>NAN</DistanceMeters>
          </Trackpoint>
          <Trackpoint>
            <Time>2021-08-13T11:44:58.000Z</Time>
            <Position>
              <LatitudeDegrees>43.124110288918018341064453125</LatitudeDegrees>
              <LongitudeDegrees>-1.93510525859892368316650390625</LongitudeDegrees>
            </Position>
            <AltitudeMeters>377.79998779296875</AltitudeMeters>
            <DistanceMeters>NAN</DistanceMeters>
          </Trackpoint>
          <Trackpoint>
            <Time>2021-08-13T11:44:59.000Z</Time>
            <Position>
              <LatitudeDegrees>43.12408111989498138427734375</LatitudeDegrees>
              <LongitudeDegrees>-1.935109198093414306640625</LongitudeDegrees>
            </Position>
            <AltitudeMeters>377.79998779296875</AltitudeMeters>
            <DistanceMeters>NAN</DistanceMeters>
          </Trackpoint>
          <Trackpoint>
            <Time>2021-08-13T11:45:00.000Z</Time>
            <Position>
              <LatitudeDegrees>43.1240558065474033355712890625</LatitudeDegrees>
              <LongitudeDegrees>-1.9351159036159515380859375</LongitudeDegrees>
            </Position>
            <AltitudeMeters>378</AltitudeMeters>
            <DistanceMeters>NAN</DistanceMeters>
          </Trackpoint>
          <Trackpoint>
            <Time>2021-08-13T11:45:01.000Z</Time>
            <Position>
              <LatitudeDegrees>43.124031163752079010009765625</LatitudeDegrees>
              <LongitudeDegrees>-1.93513543345034122467041015625</LongitudeDegrees>
            </Position>
            <AltitudeMeters>378</AltitudeMeters>
            <DistanceMeters>NAN</DistanceMeters>
          </Trackpoint>
          <Trackpoint>
            <Time>2021-08-13T11:45:03.000Z</Time>
            <Position>
              <LatitudeDegrees>43.12395916320383548736572265625</LatitudeDegrees>
              <LongitudeDegrees>-1.93517868407070636749267578125</LongitudeDegrees>
            </Position>
            <AltitudeMeters>378</AltitudeMeters>
            <DistanceMeters>NAN</DistanceMeters>
          </Trackpoint>
          <Trackpoint>
            <Time>2021-08-13T11:45:04.000Z</Time>
            <Position>
              <LatitudeDegrees>43.123925887048244476318359375</LatitudeDegrees>
              <LongitudeDegrees>-1.935210786759853363037109375</LongitudeDegrees>
            </Position>
            <AltitudeMeters>378</AltitudeMeters>
            <DistanceMeters>NAN</DistanceMeters>
          </Trackpoint>
          <Trackpoint>
            <Time>2021-08-13T11:45:06.000Z</Time>
            <Position>
              <LatitudeDegrees>43.1238502822816371917724609375</LatitudeDegrees>
              <LongitudeDegrees>-1.93527222611010074615478515625</LongitudeDegrees>
            </Position>
            <AltitudeMeters>378.600006103515625</AltitudeMeters>
            <DistanceMeters>NAN</DistanceMeters>
          </Trackpoint>
          <Trackpoint>
            <Time>2021-08-13T11:45:07.000Z</Time>
            <Position>
              <LatitudeDegrees>43.1238224543631076812744140625</LatitudeDegrees>
              <LongitudeDegrees>-1.93529066629707813262939453125</LongitudeDegrees>
            </Position>
            <AltitudeMeters>378.600006103515625</AltitudeMeters>
            <DistanceMeters>NAN</DistanceMeters>
          </Trackpoint>
          <Trackpoint>
            <Time>2021-08-13T11:45:09.000Z</Time>
            <Position>
              <LatitudeDegrees>43.1237661279737949371337890625</LatitudeDegrees>
              <LongitudeDegrees>-1.93533291108906269073486328125</LongitudeDegrees>
            </Position>
            <AltitudeMeters>378.79998779296875</AltitudeMeters>
            <DistanceMeters>NAN</DistanceMeters>
          </Trackpoint>
          <Trackpoint>
            <Time>2021-08-13T11:45:10.000Z</Time>
            <Position>
              <LatitudeDegrees>43.12376587651669979095458984375</LatitudeDegrees>
              <LongitudeDegrees>-1.9353531114757061004638671875</LongitudeDegrees>
            </Position>
            <AltitudeMeters>378.79998779296875</AltitudeMeters>
            <DistanceMeters>NAN</DistanceMeters>
          </Trackpoint>
          <Trackpoint>
            <Time>2021-08-13T11:46:07.000Z</Time>
            <Position>
              <LatitudeDegrees>43.1220719777047634124755859375</LatitudeDegrees>
              <LongitudeDegrees>-1.93583264015614986419677734375</LongitudeDegrees>
            </Position>
            <AltitudeMeters>384.20001220703125</AltitudeMeters>
            <DistanceMeters>NAN</DistanceMeters>
          </Trackpoint>
          <Trackpoint>
            <Time>2021-08-13T11:46:08.000Z</Time>
            <Position>
              <LatitudeDegrees>43.1220186688005924224853515625</LatitudeDegrees>
              <LongitudeDegrees>-1.93591453135013580322265625</LongitudeDegrees>
            </Position>
            <AltitudeMeters>384.399993896484375</AltitudeMeters>
            <DistanceMeters>NAN</DistanceMeters>
          </Trackpoint>
          <Trackpoint>
            <Time>2021-08-13T11:46:09.000Z</Time>
            <Position>
              <LatitudeDegrees>43.12205194495618343353271484375</LatitudeDegrees>
              <LongitudeDegrees>-1.9359317980706691741943359375</LongitudeDegrees>
            </Position>
            <AltitudeMeters>384.399993896484375</AltitudeMeters>
            <DistanceMeters>NAN</DistanceMeters>
          </Trackpoint>
          <Trackpoint>
            <Time>2021-08-13T11:46:10.000Z</Time>
            <Position>
              <LatitudeDegrees>43.12202529050409793853759765625</LatitudeDegrees>
              <LongitudeDegrees>-1.9359447062015533447265625</LongitudeDegrees>
            </Position>
            <AltitudeMeters>384.399993896484375</AltitudeMeters>
            <DistanceMeters>NAN</DistanceMeters>
          </Trackpoint>
          <Trackpoint>
            <Time>2021-08-13T11:46:11.000Z</Time>
            <Position>
              <LatitudeDegrees>43.12197717837989330291748046875</LatitudeDegrees>
              <LongitudeDegrees>-1.9359433650970458984375</LongitudeDegrees>
            </Position>
            <AltitudeMeters>384.399993896484375</AltitudeMeters>
            <DistanceMeters>NAN</DistanceMeters>
          </Trackpoint>
          <Trackpoint>
            <Time>2021-08-13T11:46:12.000Z</Time>
            <Position>
              <LatitudeDegrees>43.1219496019184589385986328125</LatitudeDegrees>
              <LongitudeDegrees>-1.93592634983360767364501953125</LongitudeDegrees>
            </Position>
            <AltitudeMeters>384.600006103515625</AltitudeMeters>
            <DistanceMeters>NAN</DistanceMeters>
          </Trackpoint>
          <Trackpoint>
            <Time>2021-08-13T11:46:13.000Z</Time>
            <Position>
              <LatitudeDegrees>43.12192655168473720550537109375</LatitudeDegrees>
              <LongitudeDegrees>-1.9359244219958782196044921875</LongitudeDegrees>
            </Position>
            <AltitudeMeters>384.600006103515625</AltitudeMeters>
            <DistanceMeters>NAN</DistanceMeters>
          </Trackpoint>
          <Trackpoint>
            <Time>2021-08-13T11:46:14.000Z</Time>
            <Position>
              <LatitudeDegrees>43.12190576456487178802490234375</LatitudeDegrees>
              <LongitudeDegrees>-1.9359301216900348663330078125</LongitudeDegrees>
            </Position>
            <AltitudeMeters>384.600006103515625</AltitudeMeters>
            <DistanceMeters>NAN</DistanceMeters>
          </Trackpoint>
          <Trackpoint>
            <Time>2021-08-13T11:46:15.000Z</Time>
            <Position>
              <LatitudeDegrees>43.12189470045268535614013671875</LatitudeDegrees>
              <LongitudeDegrees>-1.93593255244195461273193359375</LongitudeDegrees>
            </Position>
            <AltitudeMeters>384.79998779296875</AltitudeMeters>
            <DistanceMeters>NAN</DistanceMeters>
          </Trackpoint>
          <Trackpoint>
            <Time>2021-08-13T11:46:16.000Z</Time>
            <Position>
              <LatitudeDegrees>43.12188464216887950897216796875</LatitudeDegrees>
              <LongitudeDegrees>-1.93593330681324005126953125</LongitudeDegrees>
            </Position>
            <AltitudeMeters>384.79998779296875</AltitudeMeters>
            <DistanceMeters>NAN</DistanceMeters>
          </Trackpoint>
          <Trackpoint>
            <Time>2021-08-13T11:46:17.000Z</Time>
            <Position>
              <LatitudeDegrees>43.12187659554183483123779296875</LatitudeDegrees>
              <LongitudeDegrees>-1.9359317980706691741943359375</LongitudeDegrees>
            </Position>
            <AltitudeMeters>385</AltitudeMeters>
            <DistanceMeters>NAN</DistanceMeters>
          </Trackpoint>
          <Trackpoint>
            <Time>2021-08-13T11:46:20.000Z</Time>
            <Position>
              <LatitudeDegrees>43.12185756862163543701171875</LatitudeDegrees>
              <LongitudeDegrees>-1.93593758158385753631591796875</LongitudeDegrees>
            </Position>
            <AltitudeMeters>385.20001220703125</AltitudeMeters>
            <DistanceMeters>NAN</DistanceMeters>
          </Trackpoint>
          <Trackpoint>
            <Time>2021-08-13T11:46:27.000Z</Time>
            <Position>
              <LatitudeDegrees>43.1218175031244754791259765625</LatitudeDegrees>
              <LongitudeDegrees>-1.93598426878452301025390625</LongitudeDegrees>
            </Position>
            <AltitudeMeters>385.399993896484375</AltitudeMeters>
            <DistanceMeters>NAN</DistanceMeters>
          </Trackpoint>
          <Trackpoint>
            <Time>2021-08-13T11:46:39.000Z</Time>
            <Position>
              <LatitudeDegrees>43.12182311899960041046142578125</LatitudeDegrees>
              <LongitudeDegrees>-1.9359039701521396636962890625</LongitudeDegrees>
            </Position>
            <AltitudeMeters>385.399993896484375</AltitudeMeters>
            <DistanceMeters>NAN</DistanceMeters>
          </Trackpoint>
          <Trackpoint>
            <Time>2021-08-13T11:47:16.000Z</Time>
            <Position>
              <LatitudeDegrees>43.12178271822631359100341796875</LatitudeDegrees>
              <LongitudeDegrees>-1.935898773372173309326171875</LongitudeDegrees>
            </Position>
            <AltitudeMeters>385</AltitudeMeters>
            <DistanceMeters>NAN</DistanceMeters>
          </Trackpoint>
          <Trackpoint>
            <Time>2021-08-13T11:50:59.000Z</Time>
            <Position>
              <LatitudeDegrees>43.12175623141229152679443359375</LatitudeDegrees>
              <LongitudeDegrees>-1.935933642089366912841796875</LongitudeDegrees>
            </Position>
            <AltitudeMeters>384.79998779296875</AltitudeMeters>
            <DistanceMeters>NAN</DistanceMeters>
          </Trackpoint>
          <Trackpoint>
            <Time>2021-08-13T11:51:01.000Z</Time>
            <Position>
              <LatitudeDegrees>43.12172739766538143157958984375</LatitudeDegrees>
              <LongitudeDegrees>-1.9359344802796840667724609375</LongitudeDegrees>
            </Position>
            <AltitudeMeters>385</AltitudeMeters>
            <DistanceMeters>NAN</DistanceMeters>
          </Trackpoint>
          <Trackpoint>
            <Time>2021-08-13T11:51:02.000Z</Time>
            <Position>
              <LatitudeDegrees>43.12171549536287784576416015625</LatitudeDegrees>
              <LongitudeDegrees>-1.93593171425163745880126953125</LongitudeDegrees>
            </Position>
            <AltitudeMeters>385</AltitudeMeters>
            <DistanceMeters>NAN</DistanceMeters>
          </Trackpoint>
          <Trackpoint>
            <Time>2021-08-13T11:51:03.000Z</Time>
            <Position>
              <LatitudeDegrees>43.1217028386890888214111328125</LatitudeDegrees>
              <LongitudeDegrees>-1.93592987023293972015380859375</LongitudeDegrees>
            </Position>
            <AltitudeMeters>385.20001220703125</AltitudeMeters>
            <DistanceMeters>NAN</DistanceMeters>
          </Trackpoint>
          <Trackpoint>
            <Time>2021-08-13T11:51:04.000Z</Time>
            <Position>
              <LatitudeDegrees>43.1217028386890888214111328125</LatitudeDegrees>
              <LongitudeDegrees>-1.93592987023293972015380859375</LongitudeDegrees>
            </Position>
            <AltitudeMeters>385.20001220703125</AltitudeMeters>
            <DistanceMeters>NAN</DistanceMeters>
          </Trackpoint>
          <Trackpoint>
            <Time>2021-08-13T11:51:05.000Z</Time>
            <Position>
              <LatitudeDegrees>43.1216639466583728790283203125</LatitudeDegrees>
              <LongitudeDegrees>-1.9359334744513034820556640625</LongitudeDegrees>
            </Position>
            <AltitudeMeters>385.20001220703125</AltitudeMeters>
            <DistanceMeters>NAN</DistanceMeters>
          </Trackpoint>
          <Trackpoint>
            <Time>2021-08-13T11:51:06.000Z</Time>
            <Position>
              <LatitudeDegrees>43.12164475210011005401611328125</LatitudeDegrees>
              <LongitudeDegrees>-1.93594562821090221405029296875</LongitudeDegrees>
            </Position>
            <AltitudeMeters>385.20001220703125</AltitudeMeters>
            <DistanceMeters>NAN</DistanceMeters>
          </Trackpoint>
          <Trackpoint>
            <Time>2021-08-13T11:51:07.000Z</Time>
            <Position>
              <LatitudeDegrees>43.12162513844668865203857421875</LatitudeDegrees>
              <LongitudeDegrees>-1.935951411724090576171875</LongitudeDegrees>
            </Position>
            <AltitudeMeters>385.399993896484375</AltitudeMeters>
            <DistanceMeters>NAN</DistanceMeters>
          </Trackpoint>
          <Trackpoint>
            <Time>2021-08-13T11:51:13.000Z</Time>
            <Position>
              <LatitudeDegrees>43.1215281598269939422607421875</LatitudeDegrees>
              <LongitudeDegrees>-1.93598317913711071014404296875</LongitudeDegrees>
            </Position>
            <AltitudeMeters>385.600006103515625</AltitudeMeters>
            <DistanceMeters>NAN</DistanceMeters>
          </Trackpoint>
          <Trackpoint>
            <Time>2021-08-13T11:51:17.000Z</Time>
            <Position>
              <LatitudeDegrees>43.12139195390045642852783203125</LatitudeDegrees>
              <LongitudeDegrees>-1.93605392239987850189208984375</LongitudeDegrees>
            </Position>
            <AltitudeMeters>385.79998779296875</AltitudeMeters>
            <DistanceMeters>NAN</DistanceMeters>
          </Trackpoint>
          <Trackpoint>
            <Time>2021-08-13T11:51:18.000Z</Time>
            <Position>
              <LatitudeDegrees>43.12136177904903888702392578125</LatitudeDegrees>
              <LongitudeDegrees>-1.93606280721724033355712890625</LongitudeDegrees>
            </Position>
            <AltitudeMeters>385.79998779296875</AltitudeMeters>
            <DistanceMeters>NAN</DistanceMeters>
          </Trackpoint>
          <Trackpoint>
            <Time>2021-08-13T11:51:21.000Z</Time>
            <Position>
              <LatitudeDegrees>43.12126890756189823150634765625</LatitudeDegrees>
              <LongitudeDegrees>-1.936091221868991851806640625</LongitudeDegrees>
            </Position>
            <AltitudeMeters>386.20001220703125</AltitudeMeters>
            <DistanceMeters>NAN</DistanceMeters>
          </Trackpoint>
          <Trackpoint>
            <Time>2021-08-13T11:51:22.000Z</Time>
            <Position>
              <LatitudeDegrees>43.12123722396790981292724609375</LatitudeDegrees>
              <LongitudeDegrees>-1.9361061416566371917724609375</LongitudeDegrees>
            </Position>
            <AltitudeMeters>386.20001220703125</AltitudeMeters>
            <DistanceMeters>NAN</DistanceMeters>
          </Trackpoint>
          <Trackpoint>
            <Time>2021-08-13T11:51:27.000Z</Time>
            <Position>
              <LatitudeDegrees>43.121072351932525634765625</LatitudeDegrees>
              <LongitudeDegrees>-1.93616288714110851287841796875</LongitudeDegrees>
            </Position>
            <AltitudeMeters>386.600006103515625</AltitudeMeters>
            <DistanceMeters>NAN</DistanceMeters>
          </Trackpoint>
          <Trackpoint>
            <Time>2021-08-13T11:51:29.000Z</Time>
            <Position>
              <LatitudeDegrees>43.12099389731884002685546875</LatitudeDegrees>
              <LongitudeDegrees>-1.93622524850070476531982421875</LongitudeDegrees>
            </Position>
            <AltitudeMeters>386.600006103515625</AltitudeMeters>
            <DistanceMeters>NAN</DistanceMeters>
          </Trackpoint>
          <Trackpoint>
            <Time>2021-08-13T11:51:31.000Z</Time>
            <Position>
              <LatitudeDegrees>43.12092483043670654296875</LatitudeDegrees>
              <LongitudeDegrees>-1.93623078055679798126220703125</LongitudeDegrees>
            </Position>
            <AltitudeMeters>386.79998779296875</AltitudeMeters>
            <DistanceMeters>NAN</DistanceMeters>
          </Trackpoint>
          <Trackpoint>
            <Time>2021-08-13T11:51:32.000Z</Time>
            <Position>
              <LatitudeDegrees>43.1208918057382106781005859375</LatitudeDegrees>
              <LongitudeDegrees>-1.93622357212007045745849609375</LongitudeDegrees>
            </Position>
            <AltitudeMeters>386.79998779296875</AltitudeMeters>
            <DistanceMeters>NAN</DistanceMeters>
          </Trackpoint>
          <Trackpoint>
            <Time>2021-08-13T11:51:33.000Z</Time>
            <Position>
              <LatitudeDegrees>43.12084595672786235809326171875</LatitudeDegrees>
              <LongitudeDegrees>-1.9362399168312549591064453125</LongitudeDegrees>
            </Position>
            <AltitudeMeters>387</AltitudeMeters>
            <DistanceMeters>NAN</DistanceMeters>
          </Trackpoint>
          <Trackpoint>
            <Time>2021-08-13T11:51:34.000Z</Time>
            <Position>
              <LatitudeDegrees>43.120801448822021484375</LatitudeDegrees>
              <LongitudeDegrees>-1.93626246415078639984130859375</LongitudeDegrees>
            </Position>
            <AltitudeMeters>387</AltitudeMeters>
            <DistanceMeters>NAN</DistanceMeters>
          </Trackpoint>
          <Trackpoint>
            <Time>2021-08-13T11:51:36.000Z</Time>
            <Position>
              <LatitudeDegrees>43.12071486376225948333740234375</LatitudeDegrees>
              <LongitudeDegrees>-1.93632348440587520599365234375</LongitudeDegrees>
            </Position>
            <AltitudeMeters>387.20001220703125</AltitudeMeters>
            <DistanceMeters>NAN</DistanceMeters>
          </Trackpoint>
          <Trackpoint>
            <Time>2021-08-13T11:51:37.000Z</Time>
            <Position>
              <LatitudeDegrees>43.120672702789306640625</LatitudeDegrees>
              <LongitudeDegrees>-1.93634293042123317718505859375</LongitudeDegrees>
            </Position>
            <AltitudeMeters>387.399993896484375</AltitudeMeters>
            <DistanceMeters>NAN</DistanceMeters>
          </Trackpoint>
          <Trackpoint>
            <Time>2021-08-13T11:51:38.000Z</Time>
            <Position>
              <LatitudeDegrees>43.12063255347311496734619140625</LatitudeDegrees>
              <LongitudeDegrees>-1.93635550327599048614501953125</LongitudeDegrees>
            </Position>
            <AltitudeMeters>387.399993896484375</AltitudeMeters>
            <DistanceMeters>NAN</DistanceMeters>
          </Trackpoint>
          <Trackpoint>
            <Time>2021-08-13T11:51:41.000Z</Time>
            <Position>
              <LatitudeDegrees>43.12051336281001567840576171875</LatitudeDegrees>
              <LongitudeDegrees>-1.9364394061267375946044921875</LongitudeDegrees>
            </Position>
            <AltitudeMeters>387.79998779296875</AltitudeMeters>
            <DistanceMeters>NAN</DistanceMeters>
          </Trackpoint>
          <Trackpoint>
            <Time>2021-08-13T11:51:45.000Z</Time>
            <Position>
              <LatitudeDegrees>43.12033834867179393768310546875</LatitudeDegrees>
              <LongitudeDegrees>-1.93656672723591327667236328125</LongitudeDegrees>
            </Position>
            <AltitudeMeters>387.79998779296875</AltitudeMeters>
            <DistanceMeters>NAN</DistanceMeters>
          </Trackpoint>
          <Trackpoint>
            <Time>2021-08-13T11:51:46.000Z</Time>
            <Position>
              <LatitudeDegrees>43.1202958524227142333984375</LatitudeDegrees>
              <LongitudeDegrees>-1.93660176359117031097412109375</LongitudeDegrees>
            </Position>
            <AltitudeMeters>387.79998779296875</AltitudeMeters>
            <DistanceMeters>NAN</DistanceMeters>
          </Trackpoint>
          <Trackpoint>
            <Time>2021-08-13T11:51:47.000Z</Time>
            <Position>
              <LatitudeDegrees>43.12025788240134716033935546875</LatitudeDegrees>
              <LongitudeDegrees>-1.93661550991237163543701171875</LongitudeDegrees>
            </Position>
            <AltitudeMeters>387.600006103515625</AltitudeMeters>
            <DistanceMeters>NAN</DistanceMeters>
          </Trackpoint>
          <Trackpoint>
            <Time>2021-08-13T11:51:49.000Z</Time>
            <Position>
              <LatitudeDegrees>43.1201823614537715911865234375</LatitudeDegrees>
              <LongitudeDegrees>-1.936676613986492156982421875</LongitudeDegrees>
            </Position>
            <AltitudeMeters>387.600006103515625</AltitudeMeters>
            <DistanceMeters>NAN</DistanceMeters>
          </Trackpoint>
          <Trackpoint>
            <Time>2021-08-13T11:51:50.000Z</Time>
            <Position>
              <LatitudeDegrees>43.1201429665088653564453125</LatitudeDegrees>
              <LongitudeDegrees>-1.9366999156773090362548828125</LongitudeDegrees>
            </Position>
            <AltitudeMeters>387.600006103515625</AltitudeMeters>
            <DistanceMeters>NAN</DistanceMeters>
          </Trackpoint>
          <Trackpoint>
            <Time>2021-08-13T11:51:51.000Z</Time>
            <Position>
              <LatitudeDegrees>43.120093680918216705322265625</LatitudeDegrees>
              <LongitudeDegrees>-1.9366992451250553131103515625</LongitudeDegrees>
            </Position>
            <AltitudeMeters>387.79998779296875</AltitudeMeters>
            <DistanceMeters>NAN</DistanceMeters>
          </Trackpoint>
          <Trackpoint>
            <Time>2021-08-13T11:51:53.000Z</Time>
            <Position>
              <LatitudeDegrees>43.120011873543262481689453125</LatitudeDegrees>
              <LongitudeDegrees>-1.93673151545226573944091796875</LongitudeDegrees>
            </Position>
            <AltitudeMeters>387.399993896484375</AltitudeMeters>
            <DistanceMeters>NAN</DistanceMeters>
          </Trackpoint>
          <Trackpoint>
            <Time>2021-08-13T11:51:55.000Z</Time>
            <Position>
              <LatitudeDegrees>43.11993266455829143524169921875</LatitudeDegrees>
              <LongitudeDegrees>-1.93678197450935840606689453125</LongitudeDegrees>
            </Position>
            <AltitudeMeters>387.399993896484375</AltitudeMeters>
            <DistanceMeters>NAN</DistanceMeters>
          </Trackpoint>
          <Trackpoint>
            <Time>2021-08-13T11:51:56.000Z</Time>
            <Position>
              <LatitudeDegrees>43.11989477835595607757568359375</LatitudeDegrees>
              <LongitudeDegrees>-1.936804354190826416015625</LongitudeDegrees>
            </Position>
            <AltitudeMeters>387.20001220703125</AltitudeMeters>
            <DistanceMeters>NAN</DistanceMeters>
          </Trackpoint>
          <Trackpoint>
            <Time>2021-08-13T11:51:57.000Z</Time>
            <Position>
              <LatitudeDegrees>43.119859658181667327880859375</LatitudeDegrees>
              <LongitudeDegrees>-1.93683209829032421112060546875</LongitudeDegrees>
            </Position>
            <AltitudeMeters>387.20001220703125</AltitudeMeters>
            <DistanceMeters>NAN</DistanceMeters>
          </Trackpoint>
          <Trackpoint>
            <Time>2021-08-13T11:52:00.000Z</Time>
            <Position>
              <LatitudeDegrees>43.11975480057299137115478515625</LatitudeDegrees>
              <LongitudeDegrees>-1.93691390566527843475341796875</LongitudeDegrees>
            </Position>
            <AltitudeMeters>387.399993896484375</AltitudeMeters>
            <DistanceMeters>NAN</DistanceMeters>
          </Trackpoint>
          <Trackpoint>
            <Time>2021-08-13T11:52:02.000Z</Time>
            <Position>
              <LatitudeDegrees>43.1196831353008747100830078125</LatitudeDegrees>
              <LongitudeDegrees>-1.93696218542754650115966796875</LongitudeDegrees>
            </Position>
            <AltitudeMeters>387.600006103515625</AltitudeMeters>
            <DistanceMeters>NAN</DistanceMeters>
          </Trackpoint>
          <Trackpoint>
            <Time>2021-08-13T11:52:03.000Z</Time>
            <Position>
              <LatitudeDegrees>43.1196831353008747100830078125</LatitudeDegrees>
              <LongitudeDegrees>-1.93696218542754650115966796875</LongitudeDegrees>
            </Position>
            <AltitudeMeters>387.600006103515625</AltitudeMeters>
            <DistanceMeters>NAN</DistanceMeters>
          </Trackpoint>
          <Trackpoint>
            <Time>2021-08-13T11:52:06.000Z</Time>
            <Position>
              <LatitudeDegrees>43.11955816112458705902099609375</LatitudeDegrees>
              <LongitudeDegrees>-1.93702504970133304595947265625</LongitudeDegrees>
            </Position>
            <AltitudeMeters>387.600006103515625</AltitudeMeters>
            <DistanceMeters>NAN</DistanceMeters>
          </Trackpoint>
          <Trackpoint>
            <Time>2021-08-13T11:52:07.000Z</Time>
            <Position>
              <LatitudeDegrees>43.11952915973961353302001953125</LatitudeDegrees>
              <LongitudeDegrees>-1.9370328448712825775146484375</LongitudeDegrees>
            </Position>
            <AltitudeMeters>387.79998779296875</AltitudeMeters>
            <DistanceMeters>NAN</DistanceMeters>
          </Trackpoint>
          <Trackpoint>
            <Time>2021-08-13T11:52:08.000Z</Time>
            <Position>
              <LatitudeDegrees>43.11950183473527431488037109375</LatitudeDegrees>
              <LongitudeDegrees>-1.9370472617447376251220703125</LongitudeDegrees>
            </Position>
            <AltitudeMeters>387.79998779296875</AltitudeMeters>
            <DistanceMeters>NAN</DistanceMeters>
          </Trackpoint>
          <Trackpoint>
            <Time>2021-08-13T11:52:09.000Z</Time>
            <Position>
              <LatitudeDegrees>43.119475431740283966064453125</LatitudeDegrees>
              <LongitudeDegrees>-1.93706519901752471923828125</LongitudeDegrees>
            </Position>
            <AltitudeMeters>387.79998779296875</AltitudeMeters>
            <DistanceMeters>NAN</DistanceMeters>
          </Trackpoint>
          <Trackpoint>
            <Time>2021-08-13T11:52:10.000Z</Time>
            <Position>
              <LatitudeDegrees>43.1194474361836910247802734375</LatitudeDegrees>
              <LongitudeDegrees>-1.937091015279293060302734375</LongitudeDegrees>
            </Position>
            <AltitudeMeters>387.79998779296875</AltitudeMeters>
            <DistanceMeters>NAN</DistanceMeters>
          </Trackpoint>
          <Trackpoint>
            <Time>2021-08-13T11:52:11.000Z</Time>
            <Position>
              <LatitudeDegrees>43.1194219551980495452880859375</LatitudeDegrees>
              <LongitudeDegrees>-1.93710333667695522308349609375</LongitudeDegrees>
            </Position>
            <AltitudeMeters>387.79998779296875</AltitudeMeters>
            <DistanceMeters>NAN</DistanceMeters>
          </Trackpoint>
          <Trackpoint>
            <Time>2021-08-13T11:52:12.000Z</Time>
            <Position>
              <LatitudeDegrees>43.11939169652760028839111328125</LatitudeDegrees>
              <LongitudeDegrees>-1.93711406551301479339599609375</LongitudeDegrees>
            </Position>
            <AltitudeMeters>387.79998779296875</AltitudeMeters>
            <DistanceMeters>NAN</DistanceMeters>
          </Trackpoint>
          <Trackpoint>
            <Time>2021-08-13T11:52:14.000Z</Time>
            <Position>
              <LatitudeDegrees>43.11933235265314579010009765625</LatitudeDegrees>
              <LongitudeDegrees>-1.937133930623531341552734375</LongitudeDegrees>
            </Position>
            <AltitudeMeters>387.79998779296875</AltitudeMeters>
            <DistanceMeters>NAN</DistanceMeters>
          </Trackpoint>
          <Trackpoint>
            <Time>2021-08-13T11:52:15.000Z</Time>
            <Position>
              <LatitudeDegrees>43.11930117197334766387939453125</LatitudeDegrees>
              <LongitudeDegrees>-1.93715572357177734375</LongitudeDegrees>
            </Position>
            <AltitudeMeters>388</AltitudeMeters>
            <DistanceMeters>NAN</DistanceMeters>
          </Trackpoint>
          <Trackpoint>
            <Time>2021-08-13T11:52:16.000Z</Time>
            <Position>
              <LatitudeDegrees>43.1192694045603275299072265625</LatitudeDegrees>
              <LongitudeDegrees>-1.93718749098479747772216796875</LongitudeDegrees>
            </Position>
            <AltitudeMeters>388</AltitudeMeters>
            <DistanceMeters>NAN</DistanceMeters>
          </Trackpoint>
          <Trackpoint>
            <Time>2021-08-13T11:52:17.000Z</Time>
            <Position>
              <LatitudeDegrees>43.11923294328153133392333984375</LatitudeDegrees>
              <LongitudeDegrees>-1.9372214376926422119140625</LongitudeDegrees>
            </Position>
            <AltitudeMeters>388</AltitudeMeters>
            <DistanceMeters>NAN</DistanceMeters>
          </Trackpoint>
          <Trackpoint>
            <Time>2021-08-13T11:52:19.000Z</Time>
            <Position>
              <LatitudeDegrees>43.119160272181034088134765625</LatitudeDegrees>
              <LongitudeDegrees>-1.93729243241250514984130859375</LongitudeDegrees>
            </Position>
            <AltitudeMeters>388</AltitudeMeters>
            <DistanceMeters>NAN</DistanceMeters>
          </Trackpoint>
          <Trackpoint>
            <Time>2021-08-13T11:52:22.000Z</Time>
            <Position>
              <LatitudeDegrees>43.11904569156467914581298828125</LatitudeDegrees>
              <LongitudeDegrees>-1.9373904168605804443359375</LongitudeDegrees>
            </Position>
            <AltitudeMeters>388</AltitudeMeters>
            <DistanceMeters>NAN</DistanceMeters>
          </Trackpoint>
          <Trackpoint>
            <Time>2021-08-13T11:52:23.000Z</Time>
            <Position>
              <LatitudeDegrees>43.11900445260107517242431640625</LatitudeDegrees>
              <LongitudeDegrees>-1.93741514347493648529052734375</LongitudeDegrees>
            </Position>
            <AltitudeMeters>388.20001220703125</AltitudeMeters>
            <DistanceMeters>NAN</DistanceMeters>
          </Trackpoint>
          <Trackpoint>
            <Time>2021-08-13T11:52:25.000Z</Time>
            <Position>
              <LatitudeDegrees>43.11895902268588542938232421875</LatitudeDegrees>
              <LongitudeDegrees>-1.93743760697543621063232421875</LongitudeDegrees>
            </Position>
            <AltitudeMeters>388.399993896484375</AltitudeMeters>
            <DistanceMeters>NAN</DistanceMeters>
          </Trackpoint>
          <Trackpoint>
            <Time>2021-08-13T11:52:26.000Z</Time>
            <Position>
              <LatitudeDegrees>43.118879981338977813720703125</LatitudeDegrees>
              <LongitudeDegrees>-1.93747079931199550628662109375</LongitudeDegrees>
            </Position>
            <AltitudeMeters>388.399993896484375</AltitudeMeters>
            <DistanceMeters>NAN</DistanceMeters>
          </Trackpoint>
          <Trackpoint>
            <Time>2021-08-13T11:52:27.000Z</Time>
            <Position>
              <LatitudeDegrees>43.11883069574832916259765625</LatitudeDegrees>
              <LongitudeDegrees>-1.93749678321182727813720703125</LongitudeDegrees>
            </Position>
            <AltitudeMeters>388.399993896484375</AltitudeMeters>
            <DistanceMeters>NAN</DistanceMeters>
          </Trackpoint>
          <Trackpoint>
            <Time>2021-08-13T11:52:28.000Z</Time>
            <Position>
              <LatitudeDegrees>43.1187879480421543121337890625</LatitudeDegrees>
              <LongitudeDegrees>-1.93754263222217559814453125</LongitudeDegrees>
            </Position>
            <AltitudeMeters>388.399993896484375</AltitudeMeters>
            <DistanceMeters>NAN</DistanceMeters>
          </Trackpoint>
          <Trackpoint>
            <Time>2021-08-13T11:52:34.000Z</Time>
            <Position>
              <LatitudeDegrees>43.11856725253164768218994140625</LatitudeDegrees>
              <LongitudeDegrees>-1.93772007711231708526611328125</LongitudeDegrees>
            </Position>
            <AltitudeMeters>388.79998779296875</AltitudeMeters>
            <DistanceMeters>NAN</DistanceMeters>
          </Trackpoint>
          <Trackpoint>
            <Time>2021-08-13T11:52:35.000Z</Time>
            <Position>
              <LatitudeDegrees>43.118485696613788604736328125</LatitudeDegrees>
              <LongitudeDegrees>-1.937705241143703460693359375</LongitudeDegrees>
            </Position>
            <AltitudeMeters>388.79998779296875</AltitudeMeters>
            <DistanceMeters>NAN</DistanceMeters>
          </Trackpoint>
          <Trackpoint>
            <Time>2021-08-13T11:52:36.000Z</Time>
            <Position>
              <LatitudeDegrees>43.1184446252882480621337890625</LatitudeDegrees>
              <LongitudeDegrees>-1.93771353922784328460693359375</LongitudeDegrees>
            </Position>
            <AltitudeMeters>388.79998779296875</AltitudeMeters>
            <DistanceMeters>NAN</DistanceMeters>
          </Trackpoint>
          <Trackpoint>
            <Time>2021-08-13T11:52:37.000Z</Time>
            <Position>
              <LatitudeDegrees>43.1184131093323230743408203125</LatitudeDegrees>
              <LongitudeDegrees>-1.93772795610129833221435546875</LongitudeDegrees>
            </Position>
            <AltitudeMeters>389</AltitudeMeters>
            <DistanceMeters>NAN</DistanceMeters>
          </Trackpoint>
          <Trackpoint>
            <Time>2021-08-13T11:52:38.000Z</Time>
            <Position>
              <LatitudeDegrees>43.11837899498641490936279296875</LatitudeDegrees>
              <LongitudeDegrees>-1.9377533532679080963134765625</LongitudeDegrees>
            </Position>
            <AltitudeMeters>389</AltitudeMeters>
            <DistanceMeters>NAN</DistanceMeters>
          </Trackpoint>
          <Trackpoint>
            <Time>2021-08-13T11:52:40.000Z</Time>
            <Position>
              <LatitudeDegrees>43.1183017976582050323486328125</LatitudeDegrees>
              <LongitudeDegrees>-1.93778746761381626129150390625</LongitudeDegrees>
            </Position>
            <AltitudeMeters>389</AltitudeMeters>
            <DistanceMeters>NAN</DistanceMeters>
          </Trackpoint>
          <Trackpoint>
            <Time>2021-08-13T11:52:41.000Z</Time>
            <Position>
              <LatitudeDegrees>43.11825930140912532806396484375</LatitudeDegrees>
              <LongitudeDegrees>-1.93779987283051013946533203125</LongitudeDegrees>
            </Position>
            <AltitudeMeters>389.20001220703125</AltitudeMeters>
            <DistanceMeters>NAN</DistanceMeters>
          </Trackpoint>
          <Trackpoint>
            <Time>2021-08-13T11:52:43.000Z</Time>
            <Position>
              <LatitudeDegrees>43.11817397363483905792236328125</LatitudeDegrees>
              <LongitudeDegrees>-1.93783038295805454254150390625</LongitudeDegrees>
            </Position>
            <AltitudeMeters>389.20001220703125</AltitudeMeters>
            <DistanceMeters>NAN</DistanceMeters>
          </Trackpoint>
          <Trackpoint>
            <Time>2021-08-13T11:52:45.000Z</Time>
            <Position>
              <LatitudeDegrees>43.11808814294636249542236328125</LatitudeDegrees>
              <LongitudeDegrees>-1.9378619827330112457275390625</LongitudeDegrees>
            </Position>
            <AltitudeMeters>389.20001220703125</AltitudeMeters>
            <DistanceMeters>NAN</DistanceMeters>
          </Trackpoint>
          <Trackpoint>
            <Time>2021-08-13T11:52:48.000Z</Time>
            <Position>
              <LatitudeDegrees>43.11796509660780429840087890625</LatitudeDegrees>
              <LongitudeDegrees>-1.93788536824285984039306640625</LongitudeDegrees>
            </Position>
            <AltitudeMeters>389.399993896484375</AltitudeMeters>
            <DistanceMeters>NAN</DistanceMeters>
          </Trackpoint>
          <Trackpoint>
            <Time>2021-08-13T11:52:50.000Z</Time>
            <Position>
              <LatitudeDegrees>43.1178910844027996063232421875</LatitudeDegrees>
              <LongitudeDegrees>-1.93788729608058929443359375</LongitudeDegrees>
            </Position>
            <AltitudeMeters>389.399993896484375</AltitudeMeters>
            <DistanceMeters>NAN</DistanceMeters>
          </Trackpoint>
          <Trackpoint>
            <Time>2021-08-13T11:52:53.000Z</Time>
            <Position>
              <LatitudeDegrees>43.11778404749929904937744140625</LatitudeDegrees>
              <LongitudeDegrees>-1.937866173684597015380859375</LongitudeDegrees>
            </Position>
            <AltitudeMeters>389.399993896484375</AltitudeMeters>
            <DistanceMeters>NAN</DistanceMeters>
          </Trackpoint>
          <Trackpoint>
            <Time>2021-08-13T11:52:54.000Z</Time>
            <Position>
              <LatitudeDegrees>43.117746748030185699462890625</LatitudeDegrees>
              <LongitudeDegrees>-1.937846727669239044189453125</LongitudeDegrees>
            </Position>
            <AltitudeMeters>389.600006103515625</AltitudeMeters>
            <DistanceMeters>NAN</DistanceMeters>
          </Trackpoint>
          <Trackpoint>
            <Time>2021-08-13T11:52:55.000Z</Time>
            <Position>
              <LatitudeDegrees>43.11772026121616363525390625</LatitudeDegrees>
              <LongitudeDegrees>-1.93782904185354709625244140625</LongitudeDegrees>
            </Position>
            <AltitudeMeters>389.600006103515625</AltitudeMeters>
            <DistanceMeters>NAN</DistanceMeters>
          </Trackpoint>
          <Trackpoint>
            <Time>2021-08-13T11:52:56.000Z</Time>
            <Position>
              <LatitudeDegrees>43.1176875717937946319580078125</LatitudeDegrees>
              <LongitudeDegrees>-1.937813200056552886962890625</LongitudeDegrees>
            </Position>
            <AltitudeMeters>389.600006103515625</AltitudeMeters>
            <DistanceMeters>NAN</DistanceMeters>
          </Trackpoint>
          <Trackpoint>
            <Time>2021-08-13T11:52:57.000Z</Time>
            <Position>
              <LatitudeDegrees>43.11765245161950588226318359375</LatitudeDegrees>
              <LongitudeDegrees>-1.93779568187892436981201171875</LongitudeDegrees>
            </Position>
            <AltitudeMeters>389.600006103515625</AltitudeMeters>
            <DistanceMeters>NAN</DistanceMeters>
          </Trackpoint>
          <Trackpoint>
            <Time>2021-08-13T11:52:58.000Z</Time>
            <Position>
              <LatitudeDegrees>43.117620684206485748291015625</LatitudeDegrees>
              <LongitudeDegrees>-1.9377805106341838836669921875</LongitudeDegrees>
            </Position>
            <AltitudeMeters>389.600006103515625</AltitudeMeters>
            <DistanceMeters>NAN</DistanceMeters>
          </Trackpoint>
          <Trackpoint>
            <Time>2021-08-13T11:52:59.000Z</Time>
            <Position>
              <LatitudeDegrees>43.1175980530679225921630859375</LatitudeDegrees>
              <LongitudeDegrees>-1.93777221255004405975341796875</LongitudeDegrees>
            </Position>
            <AltitudeMeters>389.600006103515625</AltitudeMeters>
            <DistanceMeters>NAN</DistanceMeters>
          </Trackpoint>
          <Trackpoint>
            <Time>2021-08-13T11:53:00.000Z</Time>
            <Position>
              <LatitudeDegrees>43.11756242997944355010986328125</LatitudeDegrees>
              <LongitudeDegrees>-1.93776953034102916717529296875</LongitudeDegrees>
            </Position>
            <AltitudeMeters>389.399993896484375</AltitudeMeters>
            <DistanceMeters>NAN</DistanceMeters>
          </Trackpoint>
          <Trackpoint>
            <Time>2021-08-13T11:53:02.000Z</Time>
            <Position>
              <LatitudeDegrees>43.1175035052001476287841796875</LatitudeDegrees>
              <LongitudeDegrees>-1.93771655671298503875732421875</LongitudeDegrees>
            </Position>
            <AltitudeMeters>389.399993896484375</AltitudeMeters>
            <DistanceMeters>NAN</DistanceMeters>
          </Trackpoint>
          <Trackpoint>
            <Time>2021-08-13T11:53:03.000Z</Time>
            <Position>
              <LatitudeDegrees>43.1174770183861255645751953125</LatitudeDegrees>
              <LongitudeDegrees>-1.93768688477575778961181640625</LongitudeDegrees>
            </Position>
            <AltitudeMeters>389.600006103515625</AltitudeMeters>
            <DistanceMeters>NAN</DistanceMeters>
          </Trackpoint>
          <Trackpoint>
            <Time>2021-08-13T11:53:04.000Z</Time>
            <Position>
              <LatitudeDegrees>43.11745597980916500091552734375</LatitudeDegrees>
              <LongitudeDegrees>-1.93765654228627681732177734375</LongitudeDegrees>
            </Position>
            <AltitudeMeters>389.600006103515625</AltitudeMeters>
            <DistanceMeters>NAN</DistanceMeters>
          </Trackpoint>
          <Trackpoint>
            <Time>2021-08-13T11:53:05.000Z</Time>
            <Position>
              <LatitudeDegrees>43.11744173057377338409423828125</LatitudeDegrees>
              <LongitudeDegrees>-1.93764849565923213958740234375</LongitudeDegrees>
            </Position>
            <AltitudeMeters>389.600006103515625</AltitudeMeters>
            <DistanceMeters>NAN</DistanceMeters>
          </Trackpoint>
          <Trackpoint>
            <Time>2021-08-13T11:53:06.000Z</Time>
            <Position>
              <LatitudeDegrees>43.11743401922285556793212890625</LatitudeDegrees>
              <LongitudeDegrees>-1.9376479089260101318359375</LongitudeDegrees>
            </Position>
            <AltitudeMeters>389.79998779296875</AltitudeMeters>
            <DistanceMeters>NAN</DistanceMeters>
          </Trackpoint>
          <Trackpoint>
            <Time>2021-08-13T11:53:07.000Z</Time>
            <Position>
              <LatitudeDegrees>43.11742647551000118255615234375</LatitudeDegrees>
              <LongitudeDegrees>-1.93763994611799716949462890625</LongitudeDegrees>
            </Position>
            <AltitudeMeters>389.79998779296875</AltitudeMeters>
            <DistanceMeters>NAN</DistanceMeters>
          </Trackpoint>
          <Trackpoint>
            <Time>2021-08-13T11:53:08.000Z</Time>
            <Position>
              <LatitudeDegrees>43.11742077581584453582763671875</LatitudeDegrees>
              <LongitudeDegrees>-1.93763441406190395355224609375</LongitudeDegrees>
            </Position>
            <AltitudeMeters>389.79998779296875</AltitudeMeters>
            <DistanceMeters>NAN</DistanceMeters>
          </Trackpoint>
          <Trackpoint>
            <Time>2021-08-13T11:53:09.000Z</Time>
            <Position>
              <LatitudeDegrees>43.1174133159220218658447265625</LatitudeDegrees>
              <LongitudeDegrees>-1.9376237690448760986328125</LongitudeDegrees>
            </Position>
            <AltitudeMeters>390</AltitudeMeters>
            <DistanceMeters>NAN</DistanceMeters>
          </Trackpoint>
          <Trackpoint>
            <Time>2021-08-13T11:53:10.000Z</Time>
            <Position>
              <LatitudeDegrees>43.11740904115140438079833984375</LatitudeDegrees>
              <LongitudeDegrees>-1.93761865608394145965576171875</LongitudeDegrees>
            </Position>
            <AltitudeMeters>390.20001220703125</AltitudeMeters>
            <DistanceMeters>NAN</DistanceMeters>
          </Trackpoint>
          <Trackpoint>
            <Time>2021-08-13T11:53:11.000Z</Time>
            <Position>
              <LatitudeDegrees>43.11740904115140438079833984375</LatitudeDegrees>
              <LongitudeDegrees>-1.93761865608394145965576171875</LongitudeDegrees>
            </Position>
            <AltitudeMeters>390.20001220703125</AltitudeMeters>
            <DistanceMeters>NAN</DistanceMeters>
          </Trackpoint>
          <Trackpoint>
            <Time>2021-08-13T11:53:18.000Z</Time>
            <Position>
              <LatitudeDegrees>43.11699849553406238555908203125</LatitudeDegrees>
              <LongitudeDegrees>-1.93720065057277679443359375</LongitudeDegrees>
            </Position>
            <AltitudeMeters>390.79998779296875</AltitudeMeters>
            <DistanceMeters>NAN</DistanceMeters>
          </Trackpoint>
          <Trackpoint>
            <Time>2021-08-13T11:53:20.000Z</Time>
            <Position>
              <LatitudeDegrees>43.11698927544057369232177734375</LatitudeDegrees>
              <LongitudeDegrees>-1.937112472951412200927734375</LongitudeDegrees>
            </Position>
            <AltitudeMeters>390.79998779296875</AltitudeMeters>
            <DistanceMeters>NAN</DistanceMeters>
          </Trackpoint>
          <Trackpoint>
            <Time>2021-08-13T11:53:21.000Z</Time>
            <Position>
              <LatitudeDegrees>43.11698927544057369232177734375</LatitudeDegrees>
              <LongitudeDegrees>-1.937112472951412200927734375</LongitudeDegrees>
            </Position>
            <AltitudeMeters>390.79998779296875</AltitudeMeters>
            <DistanceMeters>NAN</DistanceMeters>
          </Trackpoint>
          <Trackpoint>
            <Time>2021-08-13T11:53:22.000Z</Time>
            <Position>
              <LatitudeDegrees>43.1169603578746318817138671875</LatitudeDegrees>
              <LongitudeDegrees>-1.93703846074640750885009765625</LongitudeDegrees>
            </Position>
            <AltitudeMeters>390.79998779296875</AltitudeMeters>
            <DistanceMeters>NAN</DistanceMeters>
          </Trackpoint>
          <Trackpoint>
            <Time>2021-08-13T11:53:23.000Z</Time>
            <Position>
              <LatitudeDegrees>43.11693563126027584075927734375</LatitudeDegrees>
              <LongitudeDegrees>-1.936995796859264373779296875</LongitudeDegrees>
            </Position>
            <AltitudeMeters>391</AltitudeMeters>
            <DistanceMeters>NAN</DistanceMeters>
          </Trackpoint>
          <Trackpoint>
            <Time>2021-08-13T11:53:24.000Z</Time>
            <Position>
              <LatitudeDegrees>43.11691786162555217742919921875</LatitudeDegrees>
              <LongitudeDegrees>-1.93695480935275554656982421875</LongitudeDegrees>
            </Position>
            <AltitudeMeters>391</AltitudeMeters>
            <DistanceMeters>NAN</DistanceMeters>
          </Trackpoint>
          <Trackpoint>
            <Time>2021-08-13T11:53:25.000Z</Time>
            <Position>
              <LatitudeDegrees>43.1168906204402446746826171875</LatitudeDegrees>
              <LongitudeDegrees>-1.93691826425492763519287109375</LongitudeDegrees>
            </Position>
            <AltitudeMeters>391</AltitudeMeters>
            <DistanceMeters>NAN</DistanceMeters>
          </Trackpoint>
          <Trackpoint>
            <Time>2021-08-13T11:53:30.000Z</Time>
            <Position>
              <LatitudeDegrees>43.11678341589868068695068359375</LatitudeDegrees>
              <LongitudeDegrees>-1.9367200322449207305908203125</LongitudeDegrees>
            </Position>
            <AltitudeMeters>391.20001220703125</AltitudeMeters>
            <DistanceMeters>NAN</DistanceMeters>
          </Trackpoint>
          <Trackpoint>
            <Time>2021-08-13T11:53:33.000Z</Time>
            <Position>
              <LatitudeDegrees>43.1167216412723064422607421875</LatitudeDegrees>
              <LongitudeDegrees>-1.93660394288599491119384765625</LongitudeDegrees>
            </Position>
            <AltitudeMeters>391.20001220703125</AltitudeMeters>
            <DistanceMeters>NAN</DistanceMeters>
          </Trackpoint>
          <Trackpoint>
            <Time>2021-08-13T11:53:37.000Z</Time>
            <Position>
              <LatitudeDegrees>43.11664595268666744232177734375</LatitudeDegrees>
              <LongitudeDegrees>-1.93647402338683605194091796875</LongitudeDegrees>
            </Position>
            <AltitudeMeters>391.600006103515625</AltitudeMeters>
            <DistanceMeters>NAN</DistanceMeters>
          </Trackpoint>
          <Trackpoint>
            <Time>2021-08-13T11:53:38.000Z</Time>
            <Position>
              <LatitudeDegrees>43.1166230700910091400146484375</LatitudeDegrees>
              <LongitudeDegrees>-1.93643244914710521697998046875</LongitudeDegrees>
            </Position>
            <AltitudeMeters>391.79998779296875</AltitudeMeters>
            <DistanceMeters>NAN</DistanceMeters>
          </Trackpoint>
          <Trackpoint>
            <Time>2021-08-13T11:53:44.000Z</Time>
            <Position>
              <LatitudeDegrees>43.11648066155612468719482421875</LatitudeDegrees>
              <LongitudeDegrees>-1.936179734766483306884765625</LongitudeDegrees>
            </Position>
            <AltitudeMeters>392</AltitudeMeters>
            <DistanceMeters>NAN</DistanceMeters>
          </Trackpoint>
          <Trackpoint>
            <Time>2021-08-13T11:53:45.000Z</Time>
            <Position>
              <LatitudeDegrees>43.1164584495127201080322265625</LatitudeDegrees>
              <LongitudeDegrees>-1.93615115247666835784912109375</LongitudeDegrees>
            </Position>
            <AltitudeMeters>392</AltitudeMeters>
            <DistanceMeters>NAN</DistanceMeters>
          </Trackpoint>
          <Trackpoint>
            <Time>2021-08-13T11:53:46.000Z</Time>
            <Position>
              <LatitudeDegrees>43.11643037013709545135498046875</LatitudeDegrees>
              <LongitudeDegrees>-1.9361192174255847930908203125</LongitudeDegrees>
            </Position>
            <AltitudeMeters>392</AltitudeMeters>
            <DistanceMeters>NAN</DistanceMeters>
          </Trackpoint>
          <Trackpoint>
            <Time>2021-08-13T11:53:48.000Z</Time>
            <Position>
              <LatitudeDegrees>43.11637303791940212249755859375</LatitudeDegrees>
              <LongitudeDegrees>-1.93605543114244937896728515625</LongitudeDegrees>
            </Position>
            <AltitudeMeters>392.399993896484375</AltitudeMeters>
            <DistanceMeters>NAN</DistanceMeters>
          </Trackpoint>
          <Trackpoint>
            <Time>2021-08-13T11:53:54.000Z</Time>
            <Position>
              <LatitudeDegrees>43.1161652505397796630859375</LatitudeDegrees>
              <LongitudeDegrees>-1.93588242866098880767822265625</LongitudeDegrees>
            </Position>
            <AltitudeMeters>393</AltitudeMeters>
            <DistanceMeters>NAN</DistanceMeters>
          </Trackpoint>
          <Trackpoint>
            <Time>2021-08-13T11:53:58.000Z</Time>
            <Position>
              <LatitudeDegrees>43.11604731716215610504150390625</LatitudeDegrees>
              <LongitudeDegrees>-1.9358074106276035308837890625</LongitudeDegrees>
            </Position>
            <AltitudeMeters>393.399993896484375</AltitudeMeters>
            <DistanceMeters>NAN</DistanceMeters>
          </Trackpoint>
          <Trackpoint>
            <Time>2021-08-13T11:54:00.000Z</Time>
            <Position>
              <LatitudeDegrees>43.11601177789270877838134765625</LatitudeDegrees>
              <LongitudeDegrees>-1.9357856176793575286865234375</LongitudeDegrees>
            </Position>
            <AltitudeMeters>393.79998779296875</AltitudeMeters>
            <DistanceMeters>NAN</DistanceMeters>
          </Trackpoint>
          <Trackpoint>
            <Time>2021-08-13T11:54:01.000Z</Time>
            <Position>
              <LatitudeDegrees>43.1159448064863681793212890625</LatitudeDegrees>
              <LongitudeDegrees>-1.93573708645999431610107421875</LongitudeDegrees>
            </Position>
            <AltitudeMeters>393.79998779296875</AltitudeMeters>
            <DistanceMeters>NAN</DistanceMeters>
          </Trackpoint>
          <Trackpoint>
            <Time>2021-08-13T11:54:02.000Z</Time>
            <Position>
              <LatitudeDegrees>43.1159132905304431915283203125</LatitudeDegrees>
              <LongitudeDegrees>-1.93571194075047969818115234375</LongitudeDegrees>
            </Position>
            <AltitudeMeters>394</AltitudeMeters>
            <DistanceMeters>NAN</DistanceMeters>
          </Trackpoint>
          <Trackpoint>
            <Time>2021-08-13T11:54:03.000Z</Time>
            <Position>
              <LatitudeDegrees>43.11588001437485218048095703125</LatitudeDegrees>
              <LongitudeDegrees>-1.93568528629839420318603515625</LongitudeDegrees>
            </Position>
            <AltitudeMeters>394</AltitudeMeters>
            <DistanceMeters>NAN</DistanceMeters>
          </Trackpoint>
          <Trackpoint>
            <Time>2021-08-13T11:54:10.000Z</Time>
            <Position>
              <LatitudeDegrees>43.1156350113451480865478515625</LatitudeDegrees>
              <LongitudeDegrees>-1.9354927539825439453125</LongitudeDegrees>
            </Position>
            <AltitudeMeters>394.399993896484375</AltitudeMeters>
            <DistanceMeters>NAN</DistanceMeters>
          </Trackpoint>
          <Trackpoint>
            <Time>2021-08-13T11:54:11.000Z</Time>
            <Position>
              <LatitudeDegrees>43.11559234745800495147705078125</LatitudeDegrees>
              <LongitudeDegrees>-1.9354728050529956817626953125</LongitudeDegrees>
            </Position>
            <AltitudeMeters>394.399993896484375</AltitudeMeters>
            <DistanceMeters>NAN</DistanceMeters>
          </Trackpoint>
          <Trackpoint>
            <Time>2021-08-13T11:54:16.000Z</Time>
            <Position>
              <LatitudeDegrees>43.11542152427136898040771484375</LatitudeDegrees>
              <LongitudeDegrees>-1.93540952168405055999755859375</LongitudeDegrees>
            </Position>
            <AltitudeMeters>395</AltitudeMeters>
            <DistanceMeters>NAN</DistanceMeters>
          </Trackpoint>
          <Trackpoint>
            <Time>2021-08-13T11:54:18.000Z</Time>
            <Position>
              <LatitudeDegrees>43.115369975566864013671875</LatitudeDegrees>
              <LongitudeDegrees>-1.935408599674701690673828125</LongitudeDegrees>
            </Position>
            <AltitudeMeters>395</AltitudeMeters>
            <DistanceMeters>NAN</DistanceMeters>
          </Trackpoint>
          <Trackpoint>
            <Time>2021-08-13T11:54:19.000Z</Time>
            <Position>
              <LatitudeDegrees>43.115369975566864013671875</LatitudeDegrees>
              <LongitudeDegrees>-1.935408599674701690673828125</LongitudeDegrees>
            </Position>
            <AltitudeMeters>395.20001220703125</AltitudeMeters>
            <DistanceMeters>NAN</DistanceMeters>
          </Trackpoint>
          <Trackpoint>
            <Time>2021-08-13T11:54:20.000Z</Time>
            <Position>
              <LatitudeDegrees>43.1153238750994205474853515625</LatitudeDegrees>
              <LongitudeDegrees>-1.9354077614843845367431640625</LongitudeDegrees>
            </Position>
            <AltitudeMeters>395.20001220703125</AltitudeMeters>
            <DistanceMeters>NAN</DistanceMeters>
          </Trackpoint>
          <Trackpoint>
            <Time>2021-08-13T11:54:21.000Z</Time>
            <Position>
              <LatitudeDegrees>43.11529629863798618316650390625</LatitudeDegrees>
              <LongitudeDegrees>-1.93540482781827449798583984375</LongitudeDegrees>
            </Position>
            <AltitudeMeters>395.399993896484375</AltitudeMeters>
            <DistanceMeters>NAN</DistanceMeters>
          </Trackpoint>
          <Trackpoint>
            <Time>2021-08-13T11:54:22.000Z</Time>
            <Position>
              <LatitudeDegrees>43.11529629863798618316650390625</LatitudeDegrees>
              <LongitudeDegrees>-1.93540482781827449798583984375</LongitudeDegrees>
            </Position>
            <AltitudeMeters>395.600006103515625</AltitudeMeters>
            <DistanceMeters>NAN</DistanceMeters>
          </Trackpoint>
          <Trackpoint>
            <Time>2021-08-13T11:54:24.000Z</Time>
            <Position>
              <LatitudeDegrees>43.11520661227405071258544921875</LatitudeDegrees>
              <LongitudeDegrees>-1.935405917465686798095703125</LongitudeDegrees>
            </Position>
            <AltitudeMeters>395.79998779296875</AltitudeMeters>
            <DistanceMeters>NAN</DistanceMeters>
          </Trackpoint>
          <Trackpoint>
            <Time>2021-08-13T11:54:25.000Z</Time>
            <Position>
              <LatitudeDegrees>43.1151844002306461334228515625</LatitudeDegrees>
              <LongitudeDegrees>-1.93539686501026153564453125</LongitudeDegrees>
            </Position>
            <AltitudeMeters>395.79998779296875</AltitudeMeters>
            <DistanceMeters>NAN</DistanceMeters>
          </Trackpoint>
          <Trackpoint>
            <Time>2021-08-13T11:54:26.000Z</Time>
            <Position>
              <LatitudeDegrees>43.11516570858657360076904296875</LatitudeDegrees>
              <LongitudeDegrees>-1.93537800572812557220458984375</LongitudeDegrees>
            </Position>
            <AltitudeMeters>396</AltitudeMeters>
            <DistanceMeters>NAN</DistanceMeters>
          </Trackpoint>
          <Trackpoint>
            <Time>2021-08-13T11:54:31.000Z</Time>
            <Position>
              <LatitudeDegrees>43.1149869225919246673583984375</LatitudeDegrees>
              <LongitudeDegrees>-1.93548328243196010589599609375</LongitudeDegrees>
            </Position>
            <AltitudeMeters>396.399993896484375</AltitudeMeters>
            <DistanceMeters>NAN</DistanceMeters>
          </Trackpoint>
          <Trackpoint>
            <Time>2021-08-13T11:54:32.000Z</Time>
            <Position>
              <LatitudeDegrees>43.11494694091379642486572265625</LatitudeDegrees>
              <LongitudeDegrees>-1.93551748059689998626708984375</LongitudeDegrees>
            </Position>
            <AltitudeMeters>396.399993896484375</AltitudeMeters>
            <DistanceMeters>NAN</DistanceMeters>
          </Trackpoint>
          <Trackpoint>
            <Time>2021-08-13T11:54:34.000Z</Time>
            <Position>
              <LatitudeDegrees>43.11488055624067783355712890625</LatitudeDegrees>
              <LongitudeDegrees>-1.93558755330741405487060546875</LongitudeDegrees>
            </Position>
            <AltitudeMeters>396.600006103515625</AltitudeMeters>
            <DistanceMeters>NAN</DistanceMeters>
          </Trackpoint>
          <Trackpoint>
            <Time>2021-08-13T11:54:35.000Z</Time>
            <Position>
              <LatitudeDegrees>43.114860020577907562255859375</LatitudeDegrees>
              <LongitudeDegrees>-1.93561655469238758087158203125</LongitudeDegrees>
            </Position>
            <AltitudeMeters>396.600006103515625</AltitudeMeters>
            <DistanceMeters>NAN</DistanceMeters>
          </Trackpoint>
          <Trackpoint>
            <Time>2021-08-13T11:54:37.000Z</Time>
            <Position>
              <LatitudeDegrees>43.11479824595153331756591796875</LatitudeDegrees>
              <LongitudeDegrees>-1.93569702096283435821533203125</LongitudeDegrees>
            </Position>
            <AltitudeMeters>397</AltitudeMeters>
            <DistanceMeters>NAN</DistanceMeters>
          </Trackpoint>
          <Trackpoint>
            <Time>2021-08-13T11:54:38.000Z</Time>
            <Position>
              <LatitudeDegrees>43.11477041803300380706787109375</LatitudeDegrees>
              <LongitudeDegrees>-1.9357289560139179229736328125</LongitudeDegrees>
            </Position>
            <AltitudeMeters>397</AltitudeMeters>
            <DistanceMeters>NAN</DistanceMeters>
          </Trackpoint>
          <Trackpoint>
            <Time>2021-08-13T11:54:39.000Z</Time>
            <Position>
              <LatitudeDegrees>43.1147421710193157196044921875</LatitudeDegrees>
              <LongitudeDegrees>-1.93575820885598659515380859375</LongitudeDegrees>
            </Position>
            <AltitudeMeters>397.20001220703125</AltitudeMeters>
            <DistanceMeters>NAN</DistanceMeters>
          </Trackpoint>
          <Trackpoint>
            <Time>2021-08-13T11:54:40.000Z</Time>
            <Position>
              <LatitudeDegrees>43.11471643857657909393310546875</LatitudeDegrees>
              <LongitudeDegrees>-1.93579022772610187530517578125</LongitudeDegrees>
            </Position>
            <AltitudeMeters>397.20001220703125</AltitudeMeters>
            <DistanceMeters>NAN</DistanceMeters>
          </Trackpoint>
          <Trackpoint>
            <Time>2021-08-13T11:54:41.000Z</Time>
            <Position>
              <LatitudeDegrees>43.114696405827999114990234375</LatitudeDegrees>
              <LongitudeDegrees>-1.93582308478653430938720703125</LongitudeDegrees>
            </Position>
            <AltitudeMeters>397.399993896484375</AltitudeMeters>
            <DistanceMeters>NAN</DistanceMeters>
          </Trackpoint>
          <Trackpoint>
            <Time>2021-08-13T11:54:42.000Z</Time>
            <Position>
              <LatitudeDegrees>43.1146752834320068359375</LatitudeDegrees>
              <LongitudeDegrees>-1.93585610948503017425537109375</LongitudeDegrees>
            </Position>
            <AltitudeMeters>397.399993896484375</AltitudeMeters>
            <DistanceMeters>NAN</DistanceMeters>
          </Trackpoint>
          <Trackpoint>
            <Time>2021-08-13T11:54:43.000Z</Time>
            <Position>
              <LatitudeDegrees>43.114651143550872802734375</LatitudeDegrees>
              <LongitudeDegrees>-1.9358848594129085540771484375</LongitudeDegrees>
            </Position>
            <AltitudeMeters>397.600006103515625</AltitudeMeters>
            <DistanceMeters>NAN</DistanceMeters>
          </Trackpoint>
          <Trackpoint>
            <Time>2021-08-13T11:54:44.000Z</Time>
            <Position>
              <LatitudeDegrees>43.11463127844035625457763671875</LatitudeDegrees>
              <LongitudeDegrees>-1.93591654300689697265625</LongitudeDegrees>
            </Position>
            <AltitudeMeters>397.600006103515625</AltitudeMeters>
            <DistanceMeters>NAN</DistanceMeters>
          </Trackpoint>
          <Trackpoint>
            <Time>2021-08-13T11:54:45.000Z</Time>
            <Position>
              <LatitudeDegrees>43.11460797674953937530517578125</LatitudeDegrees>
              <LongitudeDegrees>-1.93595065735280513763427734375</LongitudeDegrees>
            </Position>
            <AltitudeMeters>397.600006103515625</AltitudeMeters>
            <DistanceMeters>NAN</DistanceMeters>
          </Trackpoint>
          <Trackpoint>
            <Time>2021-08-13T11:54:46.000Z</Time>
            <Position>
              <LatitudeDegrees>43.11460797674953937530517578125</LatitudeDegrees>
              <LongitudeDegrees>-1.93595065735280513763427734375</LongitudeDegrees>
            </Position>
            <AltitudeMeters>397.600006103515625</AltitudeMeters>
            <DistanceMeters>NAN</DistanceMeters>
          </Trackpoint>
          <Trackpoint>
            <Time>2021-08-13T11:54:47.000Z</Time>
            <Position>
              <LatitudeDegrees>43.1145720183849334716796875</LatitudeDegrees>
              <LongitudeDegrees>-1.93600262515246868133544921875</LongitudeDegrees>
            </Position>
            <AltitudeMeters>397.79998779296875</AltitudeMeters>
            <DistanceMeters>NAN</DistanceMeters>
          </Trackpoint>
          <Trackpoint>
            <Time>2021-08-13T11:54:48.000Z</Time>
            <Position>
              <LatitudeDegrees>43.11454377137124538421630859375</LatitudeDegrees>
              <LongitudeDegrees>-1.93604595959186553955078125</LongitudeDegrees>
            </Position>
            <AltitudeMeters>397.79998779296875</AltitudeMeters>
            <DistanceMeters>NAN</DistanceMeters>
          </Trackpoint>
          <Trackpoint>
            <Time>2021-08-13T11:54:49.000Z</Time>
            <Position>
              <LatitudeDegrees>43.1145198829472064971923828125</LatitudeDegrees>
              <LongitudeDegrees>-1.93606951273977756500244140625</LongitudeDegrees>
            </Position>
            <AltitudeMeters>398</AltitudeMeters>
            <DistanceMeters>NAN</DistanceMeters>
          </Trackpoint>
          <Trackpoint>
            <Time>2021-08-13T11:54:50.000Z</Time>
            <Position>
              <LatitudeDegrees>43.1144915521144866943359375</LatitudeDegrees>
              <LongitudeDegrees>-1.93610086105763912200927734375</LongitudeDegrees>
            </Position>
            <AltitudeMeters>398</AltitudeMeters>
            <DistanceMeters>NAN</DistanceMeters>
          </Trackpoint>
          <Trackpoint>
            <Time>2021-08-13T11:54:51.000Z</Time>
            <Position>
              <LatitudeDegrees>43.11445978470146656036376953125</LatitudeDegrees>
              <LongitudeDegrees>-1.9361364841461181640625</LongitudeDegrees>
            </Position>
            <AltitudeMeters>398.20001220703125</AltitudeMeters>
            <DistanceMeters>NAN</DistanceMeters>
          </Trackpoint>
          <Trackpoint>
            <Time>2021-08-13T11:54:56.000Z</Time>
            <Position>
              <LatitudeDegrees>43.1143187172710895538330078125</LatitudeDegrees>
              <LongitudeDegrees>-1.93627889268100261688232421875</LongitudeDegrees>
            </Position>
            <AltitudeMeters>398.600006103515625</AltitudeMeters>
            <DistanceMeters>NAN</DistanceMeters>
          </Trackpoint>
          <Trackpoint>
            <Time>2021-08-13T11:54:59.000Z</Time>
            <Position>
              <LatitudeDegrees>43.114257864654064178466796875</LatitudeDegrees>
              <LongitudeDegrees>-1.93638165481388568878173828125</LongitudeDegrees>
            </Position>
            <AltitudeMeters>398.79998779296875</AltitudeMeters>
            <DistanceMeters>NAN</DistanceMeters>
          </Trackpoint>
          <Trackpoint>
            <Time>2021-08-13T11:55:03.000Z</Time>
            <Position>
              <LatitudeDegrees>43.11416926793754100799560546875</LatitudeDegrees>
              <LongitudeDegrees>-1.9365285895764827728271484375</LongitudeDegrees>
            </Position>
            <AltitudeMeters>399</AltitudeMeters>
            <DistanceMeters>NAN</DistanceMeters>
          </Trackpoint>
          <Trackpoint>
            <Time>2021-08-13T11:55:04.000Z</Time>
            <Position>
              <LatitudeDegrees>43.1141574494540691375732421875</LatitudeDegrees>
              <LongitudeDegrees>-1.9365574233233928680419921875</LongitudeDegrees>
            </Position>
            <AltitudeMeters>399</AltitudeMeters>
            <DistanceMeters>NAN</DistanceMeters>
          </Trackpoint>
          <Trackpoint>
            <Time>2021-08-13T11:55:05.000Z</Time>
            <Position>
              <LatitudeDegrees>43.1141497381031513214111328125</LatitudeDegrees>
              <LongitudeDegrees>-1.93657041527330875396728515625</LongitudeDegrees>
            </Position>
            <AltitudeMeters>399</AltitudeMeters>
            <DistanceMeters>NAN</DistanceMeters>
          </Trackpoint>
          <Trackpoint>
            <Time>2021-08-13T11:55:19.000Z</Time>
            <Position>
              <LatitudeDegrees>43.11373022384941577911376953125</LatitudeDegrees>
              <LongitudeDegrees>-1.9368933700025081634521484375</LongitudeDegrees>
            </Position>
            <AltitudeMeters>400.79998779296875</AltitudeMeters>
            <DistanceMeters>NAN</DistanceMeters>
          </Trackpoint>
          <Trackpoint>
            <Time>2021-08-13T11:55:21.000Z</Time>
            <Position>
              <LatitudeDegrees>43.113647662103176116943359375</LatitudeDegrees>
              <LongitudeDegrees>-1.93693301640450954437255859375</LongitudeDegrees>
            </Position>
            <AltitudeMeters>401</AltitudeMeters>
            <DistanceMeters>NAN</DistanceMeters>
          </Trackpoint>
          <Trackpoint>
            <Time>2021-08-13T11:55:22.000Z</Time>
            <Position>
              <LatitudeDegrees>43.1136163137853145599365234375</LatitudeDegrees>
              <LongitudeDegrees>-1.9369532167911529541015625</LongitudeDegrees>
            </Position>
            <AltitudeMeters>401</AltitudeMeters>
            <DistanceMeters>NAN</DistanceMeters>
          </Trackpoint>
          <Trackpoint>
            <Time>2021-08-13T11:55:23.000Z</Time>
            <Position>
              <LatitudeDegrees>43.11357733793556690216064453125</LatitudeDegrees>
              <LongitudeDegrees>-1.93696050904691219329833984375</LongitudeDegrees>
            </Position>
            <AltitudeMeters>401</AltitudeMeters>
            <DistanceMeters>NAN</DistanceMeters>
          </Trackpoint>
          <Trackpoint>
            <Time>2021-08-13T11:55:24.000Z</Time>
            <Position>
              <LatitudeDegrees>43.11353065073490142822265625</LatitudeDegrees>
              <LongitudeDegrees>-1.93696998059749603271484375</LongitudeDegrees>
            </Position>
            <AltitudeMeters>401.20001220703125</AltitudeMeters>
            <DistanceMeters>NAN</DistanceMeters>
          </Trackpoint>
          <Trackpoint>
            <Time>2021-08-13T11:55:25.000Z</Time>
            <Position>
              <LatitudeDegrees>43.1134905852377414703369140625</LatitudeDegrees>
              <LongitudeDegrees>-1.93697643466293811798095703125</LongitudeDegrees>
            </Position>
            <AltitudeMeters>401.20001220703125</AltitudeMeters>
            <DistanceMeters>NAN</DistanceMeters>
          </Trackpoint>
          <Trackpoint>
            <Time>2021-08-13T11:55:26.000Z</Time>
            <Position>
              <LatitudeDegrees>43.1134510226547718048095703125</LatitudeDegrees>
              <LongitudeDegrees>-1.9369735009968280792236328125</LongitudeDegrees>
            </Position>
            <AltitudeMeters>401.399993896484375</AltitudeMeters>
            <DistanceMeters>NAN</DistanceMeters>
          </Trackpoint>
          <Trackpoint>
            <Time>2021-08-13T11:55:27.000Z</Time>
            <Position>
              <LatitudeDegrees>43.11341665685176849365234375</LatitudeDegrees>
              <LongitudeDegrees>-1.936967633664608001708984375</LongitudeDegrees>
            </Position>
            <AltitudeMeters>401.600006103515625</AltitudeMeters>
            <DistanceMeters>NAN</DistanceMeters>
          </Trackpoint>
          <Trackpoint>
            <Time>2021-08-13T11:55:28.000Z</Time>
            <Position>
              <LatitudeDegrees>43.113383464515209197998046875</LatitudeDegrees>
              <LongitudeDegrees>-1.936959922313690185546875</LongitudeDegrees>
            </Position>
            <AltitudeMeters>401.79998779296875</AltitudeMeters>
            <DistanceMeters>NAN</DistanceMeters>
          </Trackpoint>
          <Trackpoint>
            <Time>2021-08-13T11:55:29.000Z</Time>
            <Position>
              <LatitudeDegrees>43.11334968544542789459228515625</LatitudeDegrees>
              <LongitudeDegrees>-1.93695078603923320770263671875</LongitudeDegrees>
            </Position>
            <AltitudeMeters>401.79998779296875</AltitudeMeters>
            <DistanceMeters>NAN</DistanceMeters>
          </Trackpoint>
          <Trackpoint>
            <Time>2021-08-13T11:55:30.000Z</Time>
            <Position>
              <LatitudeDegrees>43.113313727080821990966796875</LatitudeDegrees>
              <LongitudeDegrees>-1.93693804554641246795654296875</LongitudeDegrees>
            </Position>
            <AltitudeMeters>401.79998779296875</AltitudeMeters>
            <DistanceMeters>NAN</DistanceMeters>
          </Trackpoint>
          <Trackpoint>
            <Time>2021-08-13T11:55:31.000Z</Time>
            <Position>
              <LatitudeDegrees>43.11328279785811901092529296875</LatitudeDegrees>
              <LongitudeDegrees>-1.93692228756844997406005859375</LongitudeDegrees>
            </Position>
            <AltitudeMeters>402</AltitudeMeters>
            <DistanceMeters>NAN</DistanceMeters>
          </Trackpoint>
          <Trackpoint>
            <Time>2021-08-13T11:55:32.000Z</Time>
            <Position>
              <LatitudeDegrees>43.11325580812990665435791015625</LatitudeDegrees>
              <LongitudeDegrees>-1.9369089603424072265625</LongitudeDegrees>
            </Position>
            <AltitudeMeters>402</AltitudeMeters>
            <DistanceMeters>NAN</DistanceMeters>
          </Trackpoint>
          <Trackpoint>
            <Time>2021-08-13T11:55:33.000Z</Time>
            <Position>
              <LatitudeDegrees>43.113227225840091705322265625</LatitudeDegrees>
              <LongitudeDegrees>-1.93689085543155670166015625</LongitudeDegrees>
            </Position>
            <AltitudeMeters>402.20001220703125</AltitudeMeters>
            <DistanceMeters>NAN</DistanceMeters>
          </Trackpoint>
          <Trackpoint>
            <Time>2021-08-13T11:55:34.000Z</Time>
            <Position>
              <LatitudeDegrees>43.11320031993091106414794921875</LatitudeDegrees>
              <LongitudeDegrees>-1.9368702359497547149658203125</LongitudeDegrees>
            </Position>
            <AltitudeMeters>402.20001220703125</AltitudeMeters>
            <DistanceMeters>NAN</DistanceMeters>
          </Trackpoint>
          <Trackpoint>
            <Time>2021-08-13T11:55:35.000Z</Time>
            <Position>
              <LatitudeDegrees>43.11317115090787410736083984375</LatitudeDegrees>
              <LongitudeDegrees>-1.936850957572460174560546875</LongitudeDegrees>
            </Position>
            <AltitudeMeters>402.20001220703125</AltitudeMeters>
            <DistanceMeters>NAN</DistanceMeters>
          </Trackpoint>
          <Trackpoint>
            <Time>2021-08-13T11:55:36.000Z</Time>
            <Position>
              <LatitudeDegrees>43.11313896439969539642333984375</LatitudeDegrees>
              <LongitudeDegrees>-1.93683922290802001953125</LongitudeDegrees>
            </Position>
            <AltitudeMeters>402.399993896484375</AltitudeMeters>
            <DistanceMeters>NAN</DistanceMeters>
          </Trackpoint>
          <Trackpoint>
            <Time>2021-08-13T11:55:37.000Z</Time>
            <Position>
              <LatitudeDegrees>43.1131087057292461395263671875</LatitudeDegrees>
              <LongitudeDegrees>-1.93681935779750347137451171875</LongitudeDegrees>
            </Position>
            <AltitudeMeters>402.600006103515625</AltitudeMeters>
            <DistanceMeters>NAN</DistanceMeters>
          </Trackpoint>
          <Trackpoint>
            <Time>2021-08-13T11:55:38.000Z</Time>
            <Position>
              <LatitudeDegrees>43.113077692687511444091796875</LatitudeDegrees>
              <LongitudeDegrees>-1.9367949664592742919921875</LongitudeDegrees>
            </Position>
            <AltitudeMeters>402.600006103515625</AltitudeMeters>
            <DistanceMeters>NAN</DistanceMeters>
          </Trackpoint>
          <Trackpoint>
            <Time>2021-08-13T11:55:39.000Z</Time>
            <Position>
              <LatitudeDegrees>43.113077692687511444091796875</LatitudeDegrees>
              <LongitudeDegrees>-1.9367949664592742919921875</LongitudeDegrees>
            </Position>
            <AltitudeMeters>402.600006103515625</AltitudeMeters>
            <DistanceMeters>NAN</DistanceMeters>
          </Trackpoint>
          <Trackpoint>
            <Time>2021-08-13T11:55:40.000Z</Time>
            <Position>
              <LatitudeDegrees>43.1130181811749935150146484375</LatitudeDegrees>
              <LongitudeDegrees>-1.9367357902228832244873046875</LongitudeDegrees>
            </Position>
            <AltitudeMeters>402.79998779296875</AltitudeMeters>
            <DistanceMeters>NAN</DistanceMeters>
          </Trackpoint>
          <Trackpoint>
            <Time>2021-08-13T11:55:41.000Z</Time>
            <Position>
              <LatitudeDegrees>43.1129886768758296966552734375</LatitudeDegrees>
              <LongitudeDegrees>-1.93670871667563915252685546875</LongitudeDegrees>
            </Position>
            <AltitudeMeters>402.79998779296875</AltitudeMeters>
            <DistanceMeters>NAN</DistanceMeters>
          </Trackpoint>
          <Trackpoint>
            <Time>2021-08-13T11:55:42.000Z</Time>
            <Position>
              <LatitudeDegrees>43.1129886768758296966552734375</LatitudeDegrees>
              <LongitudeDegrees>-1.93670871667563915252685546875</LongitudeDegrees>
            </Position>
            <AltitudeMeters>402.79998779296875</AltitudeMeters>
            <DistanceMeters>NAN</DistanceMeters>
          </Trackpoint>
          <Trackpoint>
            <Time>2021-08-13T11:55:43.000Z</Time>
            <Position>
              <LatitudeDegrees>43.11294257640838623046875</LatitudeDegrees>
              <LongitudeDegrees>-1.93663545884191989898681640625</LongitudeDegrees>
            </Position>
            <AltitudeMeters>403</AltitudeMeters>
            <DistanceMeters>NAN</DistanceMeters>
          </Trackpoint>
          <Trackpoint>
            <Time>2021-08-13T11:55:44.000Z</Time>
            <Position>
              <LatitudeDegrees>43.11292254365980625152587890625</LatitudeDegrees>
              <LongitudeDegrees>-1.936596147716045379638671875</LongitudeDegrees>
            </Position>
            <AltitudeMeters>403</AltitudeMeters>
            <DistanceMeters>NAN</DistanceMeters>
          </Trackpoint>
          <Trackpoint>
            <Time>2021-08-13T11:55:45.000Z</Time>
            <Position>
              <LatitudeDegrees>43.11290033161640167236328125</LatitudeDegrees>
              <LongitudeDegrees>-1.9365584291517734527587890625</LongitudeDegrees>
            </Position>
            <AltitudeMeters>403.20001220703125</AltitudeMeters>
            <DistanceMeters>NAN</DistanceMeters>
          </Trackpoint>
          <Trackpoint>
            <Time>2021-08-13T11:55:46.000Z</Time>
            <Position>
              <LatitudeDegrees>43.11288013122975826263427734375</LatitudeDegrees>
              <LongitudeDegrees>-1.93652347661554813385009765625</LongitudeDegrees>
            </Position>
            <AltitudeMeters>403.20001220703125</AltitudeMeters>
            <DistanceMeters>NAN</DistanceMeters>
          </Trackpoint>
          <Trackpoint>
            <Time>2021-08-13T11:55:47.000Z</Time>
            <Position>
              <LatitudeDegrees>43.112860433757305145263671875</LatitudeDegrees>
              <LongitudeDegrees>-1.93648156709969043731689453125</LongitudeDegrees>
            </Position>
            <AltitudeMeters>403.399993896484375</AltitudeMeters>
            <DistanceMeters>NAN</DistanceMeters>
          </Trackpoint>
          <Trackpoint>
            <Time>2021-08-13T11:55:48.000Z</Time>
            <Position>
              <LatitudeDegrees>43.1128394789993762969970703125</LatitudeDegrees>
              <LongitudeDegrees>-1.93644292652606964111328125</LongitudeDegrees>
            </Position>
            <AltitudeMeters>403.399993896484375</AltitudeMeters>
            <DistanceMeters>NAN</DistanceMeters>
          </Trackpoint>
          <Trackpoint>
            <Time>2021-08-13T11:55:49.000Z</Time>
            <Position>
              <LatitudeDegrees>43.1128243915736675262451171875</LatitudeDegrees>
              <LongitudeDegrees>-1.93640403449535369873046875</LongitudeDegrees>
            </Position>
            <AltitudeMeters>403.600006103515625</AltitudeMeters>
            <DistanceMeters>NAN</DistanceMeters>
          </Trackpoint>
          <Trackpoint>
            <Time>2021-08-13T11:55:50.000Z</Time>
            <Position>
              <LatitudeDegrees>43.1128062866628170013427734375</LatitudeDegrees>
              <LongitudeDegrees>-1.93636304698884487152099609375</LongitudeDegrees>
            </Position>
            <AltitudeMeters>403.600006103515625</AltitudeMeters>
            <DistanceMeters>NAN</DistanceMeters>
          </Trackpoint>
          <Trackpoint>
            <Time>2021-08-13T11:55:51.000Z</Time>
            <Position>
              <LatitudeDegrees>43.11278642155230045318603515625</LatitudeDegrees>
              <LongitudeDegrees>-1.93632683716714382171630859375</LongitudeDegrees>
            </Position>
            <AltitudeMeters>403.79998779296875</AltitudeMeters>
            <DistanceMeters>NAN</DistanceMeters>
          </Trackpoint>
          <Trackpoint>
            <Time>2021-08-13T11:55:52.000Z</Time>
            <Position>
              <LatitudeDegrees>43.11276513151824474334716796875</LatitudeDegrees>
              <LongitudeDegrees>-1.936294399201869964599609375</LongitudeDegrees>
            </Position>
            <AltitudeMeters>404</AltitudeMeters>
            <DistanceMeters>NAN</DistanceMeters>
          </Trackpoint>
          <Trackpoint>
            <Time>2021-08-13T11:55:53.000Z</Time>
            <Position>
              <LatitudeDegrees>43.1127409078180789947509765625</LatitudeDegrees>
              <LongitudeDegrees>-1.9362531602382659912109375</LongitudeDegrees>
            </Position>
            <AltitudeMeters>404</AltitudeMeters>
            <DistanceMeters>NAN</DistanceMeters>
          </Trackpoint>
          <Trackpoint>
            <Time>2021-08-13T11:55:54.000Z</Time>
            <Position>
              <LatitudeDegrees>43.11271919868886470794677734375</LatitudeDegrees>
              <LongitudeDegrees>-1.93621267564594745635986328125</LongitudeDegrees>
            </Position>
            <AltitudeMeters>404.20001220703125</AltitudeMeters>
            <DistanceMeters>NAN</DistanceMeters>
          </Trackpoint>
          <Trackpoint>
            <Time>2021-08-13T11:55:55.000Z</Time>
            <Position>
              <LatitudeDegrees>43.1126946397125720977783203125</LatitudeDegrees>
              <LongitudeDegrees>-1.9361738674342632293701171875</LongitudeDegrees>
            </Position>
            <AltitudeMeters>404.600006103515625</AltitudeMeters>
            <DistanceMeters>NAN</DistanceMeters>
          </Trackpoint>
          <Trackpoint>
            <Time>2021-08-13T11:55:56.000Z</Time>
            <Position>
              <LatitudeDegrees>43.1126681528985500335693359375</LatitudeDegrees>
              <LongitudeDegrees>-1.93613472394645214080810546875</LongitudeDegrees>
            </Position>
            <AltitudeMeters>404.600006103515625</AltitudeMeters>
            <DistanceMeters>NAN</DistanceMeters>
          </Trackpoint>
          <Trackpoint>
            <Time>2021-08-13T11:55:57.000Z</Time>
            <Position>
              <LatitudeDegrees>43.11264309100806713104248046875</LatitudeDegrees>
              <LongitudeDegrees>-1.936099268496036529541015625</LongitudeDegrees>
            </Position>
            <AltitudeMeters>404.600006103515625</AltitudeMeters>
            <DistanceMeters>NAN</DistanceMeters>
          </Trackpoint>
          <Trackpoint>
            <Time>2021-08-13T11:55:58.000Z</Time>
            <Position>
              <LatitudeDegrees>43.1126140058040618896484375</LatitudeDegrees>
              <LongitudeDegrees>-1.93606163375079631805419921875</LongitudeDegrees>
            </Position>
            <AltitudeMeters>404.79998779296875</AltitudeMeters>
            <DistanceMeters>NAN</DistanceMeters>
          </Trackpoint>
          <Trackpoint>
            <Time>2021-08-13T11:55:59.000Z</Time>
            <Position>
              <LatitudeDegrees>43.1125883571803569793701171875</LatitudeDegrees>
              <LongitudeDegrees>-1.93602316081523895263671875</LongitudeDegrees>
            </Position>
            <AltitudeMeters>404.79998779296875</AltitudeMeters>
            <DistanceMeters>NAN</DistanceMeters>
          </Trackpoint>
          <Trackpoint>
            <Time>2021-08-13T11:56:00.000Z</Time>
            <Position>
              <LatitudeDegrees>43.112561367452144622802734375</LatitudeDegrees>
              <LongitudeDegrees>-1.9359861128032207489013671875</LongitudeDegrees>
            </Position>
            <AltitudeMeters>405</AltitudeMeters>
            <DistanceMeters>NAN</DistanceMeters>
          </Trackpoint>
          <Trackpoint>
            <Time>2021-08-13T11:56:01.000Z</Time>
            <Position>
              <LatitudeDegrees>43.11253018677234649658203125</LatitudeDegrees>
              <LongitudeDegrees>-1.93594898097217082977294921875</LongitudeDegrees>
            </Position>
            <AltitudeMeters>405</AltitudeMeters>
            <DistanceMeters>NAN</DistanceMeters>
          </Trackpoint>
          <Trackpoint>
            <Time>2021-08-13T11:56:02.000Z</Time>
            <Position>
              <LatitudeDegrees>43.11253018677234649658203125</LatitudeDegrees>
              <LongitudeDegrees>-1.93594898097217082977294921875</LongitudeDegrees>
            </Position>
            <AltitudeMeters>405</AltitudeMeters>
            <DistanceMeters>NAN</DistanceMeters>
          </Trackpoint>
          <Trackpoint>
            <Time>2021-08-13T11:56:03.000Z</Time>
            <Position>
              <LatitudeDegrees>43.112472854554653167724609375</LatitudeDegrees>
              <LongitudeDegrees>-1.9358882121741771697998046875</LongitudeDegrees>
            </Position>
            <AltitudeMeters>405</AltitudeMeters>
            <DistanceMeters>NAN</DistanceMeters>
          </Trackpoint>
          <Trackpoint>
            <Time>2021-08-13T11:56:04.000Z</Time>
            <Position>
              <LatitudeDegrees>43.1124450266361236572265625</LatitudeDegrees>
              <LongitudeDegrees>-1.93585694767534732818603515625</LongitudeDegrees>
            </Position>
            <AltitudeMeters>405.20001220703125</AltitudeMeters>
            <DistanceMeters>NAN</DistanceMeters>
          </Trackpoint>
          <Trackpoint>
            <Time>2021-08-13T11:56:05.000Z</Time>
            <Position>
              <LatitudeDegrees>43.1124136783182621002197265625</LatitudeDegrees>
              <LongitudeDegrees>-1.93583113141357898712158203125</LongitudeDegrees>
            </Position>
            <AltitudeMeters>405.20001220703125</AltitudeMeters>
            <DistanceMeters>NAN</DistanceMeters>
          </Trackpoint>
          <Trackpoint>
            <Time>2021-08-13T11:56:06.000Z</Time>
            <Position>
              <LatitudeDegrees>43.1123838387429714202880859375</LatitudeDegrees>
              <LongitudeDegrees>-1.9358047284185886383056640625</LongitudeDegrees>
            </Position>
            <AltitudeMeters>405.600006103515625</AltitudeMeters>
            <DistanceMeters>NAN</DistanceMeters>
          </Trackpoint>
          <Trackpoint>
            <Time>2021-08-13T11:56:07.000Z</Time>
            <Position>
              <LatitudeDegrees>43.11235056258738040924072265625</LatitudeDegrees>
              <LongitudeDegrees>-1.9357829354703426361083984375</LongitudeDegrees>
            </Position>
            <AltitudeMeters>405.79998779296875</AltitudeMeters>
            <DistanceMeters>NAN</DistanceMeters>
          </Trackpoint>
          <Trackpoint>
            <Time>2021-08-13T11:56:08.000Z</Time>
            <Position>
              <LatitudeDegrees>43.112315945327281951904296875</LatitudeDegrees>
              <LongitudeDegrees>-1.9357651658356189727783203125</LongitudeDegrees>
            </Position>
            <AltitudeMeters>406</AltitudeMeters>
            <DistanceMeters>NAN</DistanceMeters>
          </Trackpoint>
          <Trackpoint>
            <Time>2021-08-13T11:56:09.000Z</Time>
            <Position>
              <LatitudeDegrees>43.11228350736200809478759765625</LatitudeDegrees>
              <LongitudeDegrees>-1.93575468845665454864501953125</LongitudeDegrees>
            </Position>
            <AltitudeMeters>406.20001220703125</AltitudeMeters>
            <DistanceMeters>NAN</DistanceMeters>
          </Trackpoint>
          <Trackpoint>
            <Time>2021-08-13T11:56:10.000Z</Time>
            <Position>
              <LatitudeDegrees>43.112253583967685699462890625</LatitudeDegrees>
              <LongitudeDegrees>-1.9357383437454700469970703125</LongitudeDegrees>
            </Position>
            <AltitudeMeters>406.20001220703125</AltitudeMeters>
            <DistanceMeters>NAN</DistanceMeters>
          </Trackpoint>
          <Trackpoint>
            <Time>2021-08-13T11:56:11.000Z</Time>
            <Position>
              <LatitudeDegrees>43.1122215650975704193115234375</LatitudeDegrees>
              <LongitudeDegrees>-1.9357113540172576904296875</LongitudeDegrees>
            </Position>
            <AltitudeMeters>406.399993896484375</AltitudeMeters>
            <DistanceMeters>NAN</DistanceMeters>
          </Trackpoint>
          <Trackpoint>
            <Time>2021-08-13T11:56:12.000Z</Time>
            <Position>
              <LatitudeDegrees>43.11218644492328166961669921875</LatitudeDegrees>
              <LongitudeDegrees>-1.935693584382534027099609375</LongitudeDegrees>
            </Position>
            <AltitudeMeters>406.399993896484375</AltitudeMeters>
            <DistanceMeters>NAN</DistanceMeters>
          </Trackpoint>
          <Trackpoint>
            <Time>2021-08-13T11:56:13.000Z</Time>
            <Position>
              <LatitudeDegrees>43.11214755289256572723388671875</LatitudeDegrees>
              <LongitudeDegrees>-1.93567975424230098724365234375</LongitudeDegrees>
            </Position>
            <AltitudeMeters>406.399993896484375</AltitudeMeters>
            <DistanceMeters>NAN</DistanceMeters>
          </Trackpoint>
          <Trackpoint>
            <Time>2021-08-13T11:56:14.000Z</Time>
            <Position>
              <LatitudeDegrees>43.11211218126118183135986328125</LatitudeDegrees>
              <LongitudeDegrees>-1.93567405454814434051513671875</LongitudeDegrees>
            </Position>
            <AltitudeMeters>406.600006103515625</AltitudeMeters>
            <DistanceMeters>NAN</DistanceMeters>
          </Trackpoint>
          <Trackpoint>
            <Time>2021-08-13T11:56:15.000Z</Time>
            <Position>
              <LatitudeDegrees>43.11207287013530731201171875</LatitudeDegrees>
              <LongitudeDegrees>-1.93568344227969646453857421875</LongitudeDegrees>
            </Position>
            <AltitudeMeters>406.600006103515625</AltitudeMeters>
            <DistanceMeters>NAN</DistanceMeters>
          </Trackpoint>
          <Trackpoint>
            <Time>2021-08-13T11:56:16.000Z</Time>
            <Position>
              <LatitudeDegrees>43.11202995479106903076171875</LatitudeDegrees>
              <LongitudeDegrees>-1.93570104427635669708251953125</LongitudeDegrees>
            </Position>
            <AltitudeMeters>406.79998779296875</AltitudeMeters>
            <DistanceMeters>NAN</DistanceMeters>
          </Trackpoint>
          <Trackpoint>
            <Time>2021-08-13T11:56:17.000Z</Time>
            <Position>
              <LatitudeDegrees>43.11199232004582881927490234375</LatitudeDegrees>
              <LongitudeDegrees>-1.93570339120924472808837890625</LongitudeDegrees>
            </Position>
            <AltitudeMeters>406.79998779296875</AltitudeMeters>
            <DistanceMeters>NAN</DistanceMeters>
          </Trackpoint>
          <Trackpoint>
            <Time>2021-08-13T11:56:18.000Z</Time>
            <Position>
              <LatitudeDegrees>43.11194739304482936859130859375</LatitudeDegrees>
              <LongitudeDegrees>-1.93571043200790882110595703125</LongitudeDegrees>
            </Position>
            <AltitudeMeters>407</AltitudeMeters>
            <DistanceMeters>NAN</DistanceMeters>
          </Trackpoint>
          <Trackpoint>
            <Time>2021-08-13T11:56:19.000Z</Time>
            <Position>
              <LatitudeDegrees>43.11190263368189334869384765625</LatitudeDegrees>
              <LongitudeDegrees>-1.93571713753044605255126953125</LongitudeDegrees>
            </Position>
            <AltitudeMeters>407</AltitudeMeters>
            <DistanceMeters>NAN</DistanceMeters>
          </Trackpoint>
          <Trackpoint>
            <Time>2021-08-13T11:56:20.000Z</Time>
            <Position>
              <LatitudeDegrees>43.11186969280242919921875</LatitudeDegrees>
              <LongitudeDegrees>-1.93572384305298328399658203125</LongitudeDegrees>
            </Position>
            <AltitudeMeters>407.20001220703125</AltitudeMeters>
            <DistanceMeters>NAN</DistanceMeters>
          </Trackpoint>
          <Trackpoint>
            <Time>2021-08-13T11:56:21.000Z</Time>
            <Position>
              <LatitudeDegrees>43.11184396035969257354736328125</LatitudeDegrees>
              <LongitudeDegrees>-1.935725100338459014892578125</LongitudeDegrees>
            </Position>
            <AltitudeMeters>407.399993896484375</AltitudeMeters>
            <DistanceMeters>NAN</DistanceMeters>
          </Trackpoint>
          <Trackpoint>
            <Time>2021-08-13T11:56:22.000Z</Time>
            <Position>
              <LatitudeDegrees>43.11181604862213134765625</LatitudeDegrees>
              <LongitudeDegrees>-1.9357256032526493072509765625</LongitudeDegrees>
            </Position>
            <AltitudeMeters>407.399993896484375</AltitudeMeters>
            <DistanceMeters>NAN</DistanceMeters>
          </Trackpoint>
          <Trackpoint>
            <Time>2021-08-13T11:56:23.000Z</Time>
            <Position>
              <LatitudeDegrees>43.11178931035101413726806640625</LatitudeDegrees>
              <LongitudeDegrees>-1.9357339851558208465576171875</LongitudeDegrees>
            </Position>
            <AltitudeMeters>407.600006103515625</AltitudeMeters>
            <DistanceMeters>NAN</DistanceMeters>
          </Trackpoint>
          <Trackpoint>
            <Time>2021-08-13T11:56:24.000Z</Time>
            <Position>
              <LatitudeDegrees>43.11176039278507232666015625</LatitudeDegrees>
              <LongitudeDegrees>-1.93575150333344936370849609375</LongitudeDegrees>
            </Position>
            <AltitudeMeters>407.600006103515625</AltitudeMeters>
            <DistanceMeters>NAN</DistanceMeters>
          </Trackpoint>
          <Trackpoint>
            <Time>2021-08-13T11:56:25.000Z</Time>
            <Position>
              <LatitudeDegrees>43.11173466034233570098876953125</LatitudeDegrees>
              <LongitudeDegrees>-1.93577245809137821197509765625</LongitudeDegrees>
            </Position>
            <AltitudeMeters>407.79998779296875</AltitudeMeters>
            <DistanceMeters>NAN</DistanceMeters>
          </Trackpoint>
          <Trackpoint>
            <Time>2021-08-13T11:56:26.000Z</Time>
            <Position>
              <LatitudeDegrees>43.1117142923176288604736328125</LatitudeDegrees>
              <LongitudeDegrees>-1.93579307757318019866943359375</LongitudeDegrees>
            </Position>
            <AltitudeMeters>408</AltitudeMeters>
            <DistanceMeters>NAN</DistanceMeters>
          </Trackpoint>
          <Trackpoint>
            <Time>2021-08-13T11:56:27.000Z</Time>
            <Position>
              <LatitudeDegrees>43.11169392429292201995849609375</LatitudeDegrees>
              <LongitudeDegrees>-1.93581285886466503143310546875</LongitudeDegrees>
            </Position>
            <AltitudeMeters>408.20001220703125</AltitudeMeters>
            <DistanceMeters>NAN</DistanceMeters>
          </Trackpoint>
          <Trackpoint>
            <Time>2021-08-13T11:56:28.000Z</Time>
            <Position>
              <LatitudeDegrees>43.111673891544342041015625</LatitudeDegrees>
              <LongitudeDegrees>-1.93582476116716861724853515625</LongitudeDegrees>
            </Position>
            <AltitudeMeters>408.20001220703125</AltitudeMeters>
            <DistanceMeters>NAN</DistanceMeters>
          </Trackpoint>
          <Trackpoint>
            <Time>2021-08-13T11:56:29.000Z</Time>
            <Position>
              <LatitudeDegrees>43.111652769148349761962890625</LatitudeDegrees>
              <LongitudeDegrees>-1.93583616055548191070556640625</LongitudeDegrees>
            </Position>
            <AltitudeMeters>408.399993896484375</AltitudeMeters>
            <DistanceMeters>NAN</DistanceMeters>
          </Trackpoint>
          <Trackpoint>
            <Time>2021-08-13T11:56:30.000Z</Time>
            <Position>
              <LatitudeDegrees>43.111631311476230621337890625</LatitudeDegrees>
              <LongitudeDegrees>-1.9358566962182521820068359375</LongitudeDegrees>
            </Position>
            <AltitudeMeters>408.399993896484375</AltitudeMeters>
            <DistanceMeters>NAN</DistanceMeters>
          </Trackpoint>
          <Trackpoint>
            <Time>2021-08-13T11:56:31.000Z</Time>
            <Position>
              <LatitudeDegrees>43.1116106919944286346435546875</LatitudeDegrees>
              <LongitudeDegrees>-1.9358803331851959228515625</LongitudeDegrees>
            </Position>
            <AltitudeMeters>408.399993896484375</AltitudeMeters>
            <DistanceMeters>NAN</DistanceMeters>
          </Trackpoint>
          <Trackpoint>
            <Time>2021-08-13T11:56:32.000Z</Time>
            <Position>
              <LatitudeDegrees>43.11159132979810237884521484375</LatitudeDegrees>
              <LongitudeDegrees>-1.93590438924729824066162109375</LongitudeDegrees>
            </Position>
            <AltitudeMeters>408.600006103515625</AltitudeMeters>
            <DistanceMeters>NAN</DistanceMeters>
          </Trackpoint>
          <Trackpoint>
            <Time>2021-08-13T11:56:33.000Z</Time>
            <Position>
              <LatitudeDegrees>43.111571632325649261474609375</LatitudeDegrees>
              <LongitudeDegrees>-1.93592660129070281982421875</LongitudeDegrees>
            </Position>
            <AltitudeMeters>408.600006103515625</AltitudeMeters>
            <DistanceMeters>NAN</DistanceMeters>
          </Trackpoint>
          <Trackpoint>
            <Time>2021-08-13T11:56:34.000Z</Time>
            <Position>
              <LatitudeDegrees>43.11155495233833789825439453125</LatitudeDegrees>
              <LongitudeDegrees>-1.93594227544963359832763671875</LongitudeDegrees>
            </Position>
            <AltitudeMeters>408.79998779296875</AltitudeMeters>
            <DistanceMeters>NAN</DistanceMeters>
          </Trackpoint>
          <Trackpoint>
            <Time>2021-08-13T11:56:35.000Z</Time>
            <Position>
              <LatitudeDegrees>43.111540116369724273681640625</LatitudeDegrees>
              <LongitudeDegrees>-1.93596758879721164703369140625</LongitudeDegrees>
            </Position>
            <AltitudeMeters>408.600006103515625</AltitudeMeters>
            <DistanceMeters>NAN</DistanceMeters>
          </Trackpoint>
          <Trackpoint>
            <Time>2021-08-13T11:56:36.000Z</Time>
            <Position>
              <LatitudeDegrees>43.111528046429157257080078125</LatitudeDegrees>
              <LongitudeDegrees>-1.935991980135440826416015625</LongitudeDegrees>
            </Position>
            <AltitudeMeters>408.600006103515625</AltitudeMeters>
            <DistanceMeters>NAN</DistanceMeters>
          </Trackpoint>
          <Trackpoint>
            <Time>2021-08-13T11:56:37.000Z</Time>
            <Position>
              <LatitudeDegrees>43.11151555739343166351318359375</LatitudeDegrees>
              <LongitudeDegrees>-1.93601486273109912872314453125</LongitudeDegrees>
            </Position>
            <AltitudeMeters>408.79998779296875</AltitudeMeters>
            <DistanceMeters>NAN</DistanceMeters>
          </Trackpoint>
          <Trackpoint>
            <Time>2021-08-13T11:56:38.000Z</Time>
            <Position>
              <LatitudeDegrees>43.1115010567009449005126953125</LatitudeDegrees>
              <LongitudeDegrees>-1.93603749386966228485107421875</LongitudeDegrees>
            </Position>
            <AltitudeMeters>408.79998779296875</AltitudeMeters>
            <DistanceMeters>NAN</DistanceMeters>
          </Trackpoint>
          <Trackpoint>
            <Time>2021-08-13T11:56:39.000Z</Time>
            <Position>
              <LatitudeDegrees>43.11148974113166332244873046875</LatitudeDegrees>
              <LongitudeDegrees>-1.93606364540755748748779296875</LongitudeDegrees>
            </Position>
            <AltitudeMeters>408.79998779296875</AltitudeMeters>
            <DistanceMeters>NAN</DistanceMeters>
          </Trackpoint>
          <Trackpoint>
            <Time>2021-08-13T11:56:40.000Z</Time>
            <Position>
              <LatitudeDegrees>43.1114732287824153900146484375</LatitudeDegrees>
              <LongitudeDegrees>-1.93609834648668766021728515625</LongitudeDegrees>
            </Position>
            <AltitudeMeters>408.79998779296875</AltitudeMeters>
            <DistanceMeters>NAN</DistanceMeters>
          </Trackpoint>
          <Trackpoint>
            <Time>2021-08-13T11:56:41.000Z</Time>
            <Position>
              <LatitudeDegrees>43.1114564649760723114013671875</LatitudeDegrees>
              <LongitudeDegrees>-1.9361373223364353179931640625</LongitudeDegrees>
            </Position>
            <AltitudeMeters>408.79998779296875</AltitudeMeters>
            <DistanceMeters>NAN</DistanceMeters>
          </Trackpoint>
          <Trackpoint>
            <Time>2021-08-13T11:56:42.000Z</Time>
            <Position>
              <LatitudeDegrees>43.1114407069981098175048828125</LatitudeDegrees>
              <LongitudeDegrees>-1.9361708499491214752197265625</LongitudeDegrees>
            </Position>
            <AltitudeMeters>408.79998779296875</AltitudeMeters>
            <DistanceMeters>NAN</DistanceMeters>
          </Trackpoint>
          <Trackpoint>
            <Time>2021-08-13T11:56:44.000Z</Time>
            <Position>
              <LatitudeDegrees>43.11141061596572399139404296875</LatitudeDegrees>
              <LongitudeDegrees>-1.9362345524132251739501953125</LongitudeDegrees>
            </Position>
            <AltitudeMeters>409</AltitudeMeters>
            <DistanceMeters>NAN</DistanceMeters>
          </Trackpoint>
          <Trackpoint>
            <Time>2021-08-13T11:56:47.000Z</Time>
            <Position>
              <LatitudeDegrees>43.1113585643470287322998046875</LatitudeDegrees>
              <LongitudeDegrees>-1.93634477443993091583251953125</LongitudeDegrees>
            </Position>
            <AltitudeMeters>409.399993896484375</AltitudeMeters>
            <DistanceMeters>NAN</DistanceMeters>
          </Trackpoint>
          <Trackpoint>
            <Time>2021-08-13T11:56:54.000Z</Time>
            <Position>
              <LatitudeDegrees>43.111243732273578643798828125</LatitudeDegrees>
              <LongitudeDegrees>-1.936600171029567718505859375</LongitudeDegrees>
            </Position>
            <AltitudeMeters>409.600006103515625</AltitudeMeters>
            <DistanceMeters>NAN</DistanceMeters>
          </Trackpoint>
          <Trackpoint>
            <Time>2021-08-13T11:56:56.000Z</Time>
            <Position>
              <LatitudeDegrees>43.111212216317653656005859375</LatitudeDegrees>
              <LongitudeDegrees>-1.93666932173073291778564453125</LongitudeDegrees>
            </Position>
            <AltitudeMeters>410.20001220703125</AltitudeMeters>
            <DistanceMeters>NAN</DistanceMeters>
          </Trackpoint>
          <Trackpoint>
            <Time>2021-08-13T11:57:03.000Z</Time>
            <Position>
              <LatitudeDegrees>43.1110849790275096893310546875</LatitudeDegrees>
              <LongitudeDegrees>-1.9369047693908214569091796875</LongitudeDegrees>
            </Position>
            <AltitudeMeters>410.79998779296875</AltitudeMeters>
            <DistanceMeters>NAN</DistanceMeters>
          </Trackpoint>
          <Trackpoint>
            <Time>2021-08-13T11:57:06.000Z</Time>
            <Position>
              <LatitudeDegrees>43.11100627295672893524169921875</LatitudeDegrees>
              <LongitudeDegrees>-1.9369934499263763427734375</LongitudeDegrees>
            </Position>
            <AltitudeMeters>411.20001220703125</AltitudeMeters>
            <DistanceMeters>NAN</DistanceMeters>
          </Trackpoint>
          <Trackpoint>
            <Time>2021-08-13T11:57:07.000Z</Time>
            <Position>
              <LatitudeDegrees>43.11098121106624603271484375</LatitudeDegrees>
              <LongitudeDegrees>-1.937019266188144683837890625</LongitudeDegrees>
            </Position>
            <AltitudeMeters>411.20001220703125</AltitudeMeters>
            <DistanceMeters>NAN</DistanceMeters>
          </Trackpoint>
          <Trackpoint>
            <Time>2021-08-13T11:57:11.000Z</Time>
            <Position>
              <LatitudeDegrees>43.11088557355105876922607421875</LatitudeDegrees>
              <LongitudeDegrees>-1.93712462671101093292236328125</LongitudeDegrees>
            </Position>
            <AltitudeMeters>411.600006103515625</AltitudeMeters>
            <DistanceMeters>NAN</DistanceMeters>
          </Trackpoint>
          <Trackpoint>
            <Time>2021-08-13T11:57:19.000Z</Time>
            <Position>
              <LatitudeDegrees>43.11063830740749835968017578125</LatitudeDegrees>
              <LongitudeDegrees>-1.93730383180081844329833984375</LongitudeDegrees>
            </Position>
            <AltitudeMeters>412.600006103515625</AltitudeMeters>
            <DistanceMeters>NAN</DistanceMeters>
          </Trackpoint>
          <Trackpoint>
            <Time>2021-08-13T11:57:23.000Z</Time>
            <Position>
              <LatitudeDegrees>43.1105213798582553863525390625</LatitudeDegrees>
              <LongitudeDegrees>-1.93736334331333637237548828125</LongitudeDegrees>
            </Position>
            <AltitudeMeters>412.79998779296875</AltitudeMeters>
            <DistanceMeters>NAN</DistanceMeters>
          </Trackpoint>
          <Trackpoint>
            <Time>2021-08-13T11:57:24.000Z</Time>
            <Position>
              <LatitudeDegrees>43.110494725406169891357421875</LatitudeDegrees>
              <LongitudeDegrees>-1.93736854009330272674560546875</LongitudeDegrees>
            </Position>
            <AltitudeMeters>413</AltitudeMeters>
            <DistanceMeters>NAN</DistanceMeters>
          </Trackpoint>
          <Trackpoint>
            <Time>2021-08-13T11:57:25.000Z</Time>
            <Position>
              <LatitudeDegrees>43.11046849004924297332763671875</LatitudeDegrees>
              <LongitudeDegrees>-1.9373731501400470733642578125</LongitudeDegrees>
            </Position>
            <AltitudeMeters>413</AltitudeMeters>
            <DistanceMeters>NAN</DistanceMeters>
          </Trackpoint>
          <Trackpoint>
            <Time>2021-08-13T11:57:26.000Z</Time>
            <Position>
              <LatitudeDegrees>43.11044686473906040191650390625</LatitudeDegrees>
              <LongitudeDegrees>-1.9373758323490619659423828125</LongitudeDegrees>
            </Position>
            <AltitudeMeters>413.20001220703125</AltitudeMeters>
            <DistanceMeters>NAN</DistanceMeters>
          </Trackpoint>
          <Trackpoint>
            <Time>2021-08-13T11:57:27.000Z</Time>
            <Position>
              <LatitudeDegrees>43.1104207970201969146728515625</LatitudeDegrees>
              <LongitudeDegrees>-1.93737809546291828155517578125</LongitudeDegrees>
            </Position>
            <AltitudeMeters>413.20001220703125</AltitudeMeters>
            <DistanceMeters>NAN</DistanceMeters>
          </Trackpoint>
          <Trackpoint>
            <Time>2021-08-13T11:57:28.000Z</Time>
            <Position>
              <LatitudeDegrees>43.1104207970201969146728515625</LatitudeDegrees>
              <LongitudeDegrees>-1.93737809546291828155517578125</LongitudeDegrees>
            </Position>
            <AltitudeMeters>413.399993896484375</AltitudeMeters>
            <DistanceMeters>NAN</DistanceMeters>
          </Trackpoint>
          <Trackpoint>
            <Time>2021-08-13T11:57:29.000Z</Time>
            <Position>
              <LatitudeDegrees>43.11036589555442333221435546875</LatitudeDegrees>
              <LongitudeDegrees>-1.93738580681383609771728515625</LongitudeDegrees>
            </Position>
            <AltitudeMeters>413.399993896484375</AltitudeMeters>
            <DistanceMeters>NAN</DistanceMeters>
          </Trackpoint>
          <Trackpoint>
            <Time>2021-08-13T11:57:31.000Z</Time>
            <Position>
              <LatitudeDegrees>43.1103135086596012115478515625</LatitudeDegrees>
              <LongitudeDegrees>-1.937382034957408905029296875</LongitudeDegrees>
            </Position>
            <AltitudeMeters>413.399993896484375</AltitudeMeters>
            <DistanceMeters>NAN</DistanceMeters>
          </Trackpoint>
          <Trackpoint>
            <Time>2021-08-13T11:57:32.000Z</Time>
            <Position>
              <LatitudeDegrees>43.1102893687784671783447265625</LatitudeDegrees>
              <LongitudeDegrees>-1.9373775087296962738037109375</LongitudeDegrees>
            </Position>
            <AltitudeMeters>413.600006103515625</AltitudeMeters>
            <DistanceMeters>NAN</DistanceMeters>
          </Trackpoint>
          <Trackpoint>
            <Time>2021-08-13T11:57:33.000Z</Time>
            <Position>
              <LatitudeDegrees>43.1102648936212062835693359375</LatitudeDegrees>
              <LongitudeDegrees>-1.93737566471099853515625</LongitudeDegrees>
            </Position>
            <AltitudeMeters>413.600006103515625</AltitudeMeters>
            <DistanceMeters>NAN</DistanceMeters>
          </Trackpoint>
          <Trackpoint>
            <Time>2021-08-13T11:57:38.000Z</Time>
            <Position>
              <LatitudeDegrees>43.11011259444057941436767578125</LatitudeDegrees>
              <LongitudeDegrees>-1.9373701326549053192138671875</LongitudeDegrees>
            </Position>
            <AltitudeMeters>414.20001220703125</AltitudeMeters>
            <DistanceMeters>NAN</DistanceMeters>
          </Trackpoint>
          <Trackpoint>
            <Time>2021-08-13T11:57:40.000Z</Time>
            <Position>
              <LatitudeDegrees>43.11003799550235271453857421875</LatitudeDegrees>
              <LongitudeDegrees>-1.9373848848044872283935546875</LongitudeDegrees>
            </Position>
            <AltitudeMeters>414.399993896484375</AltitudeMeters>
            <DistanceMeters>NAN</DistanceMeters>
          </Trackpoint>
          <Trackpoint>
            <Time>2021-08-13T11:57:43.000Z</Time>
            <Position>
              <LatitudeDegrees>43.1099299527704715728759765625</LatitudeDegrees>
              <LongitudeDegrees>-1.93740877322852611541748046875</LongitudeDegrees>
            </Position>
            <AltitudeMeters>414.399993896484375</AltitudeMeters>
            <DistanceMeters>NAN</DistanceMeters>
          </Trackpoint>
          <Trackpoint>
            <Time>2021-08-13T11:57:45.000Z</Time>
            <Position>
              <LatitudeDegrees>43.1098541803658008575439453125</LatitudeDegrees>
              <LongitudeDegrees>-1.93741933442652225494384765625</LongitudeDegrees>
            </Position>
            <AltitudeMeters>414.600006103515625</AltitudeMeters>
            <DistanceMeters>NAN</DistanceMeters>
          </Trackpoint>
          <Trackpoint>
            <Time>2021-08-13T11:57:52.000Z</Time>
            <Position>
              <LatitudeDegrees>43.10956425033509731292724609375</LatitudeDegrees>
              <LongitudeDegrees>-1.937452442944049835205078125</LongitudeDegrees>
            </Position>
            <AltitudeMeters>414.600006103515625</AltitudeMeters>
            <DistanceMeters>NAN</DistanceMeters>
          </Trackpoint>
          <Trackpoint>
            <Time>2021-08-13T11:57:59.000Z</Time>
            <Position>
              <LatitudeDegrees>43.1093056686222553253173828125</LatitudeDegrees>
              <LongitudeDegrees>-1.937482617795467376708984375</LongitudeDegrees>
            </Position>
            <AltitudeMeters>415</AltitudeMeters>
            <DistanceMeters>NAN</DistanceMeters>
          </Trackpoint>
          <Trackpoint>
            <Time>2021-08-13T11:58:00.000Z</Time>
            <Position>
              <LatitudeDegrees>43.10926996171474456787109375</LatitudeDegrees>
              <LongitudeDegrees>-1.93748421035706996917724609375</LongitudeDegrees>
            </Position>
            <AltitudeMeters>415</AltitudeMeters>
            <DistanceMeters>NAN</DistanceMeters>
          </Trackpoint>
          <Trackpoint>
            <Time>2021-08-13T11:58:01.000Z</Time>
            <Position>
              <LatitudeDegrees>43.1092332489788532257080078125</LatitudeDegrees>
              <LongitudeDegrees>-1.9374898262321949005126953125</LongitudeDegrees>
            </Position>
            <AltitudeMeters>415</AltitudeMeters>
            <DistanceMeters>NAN</DistanceMeters>
          </Trackpoint>
          <Trackpoint>
            <Time>2021-08-13T11:58:07.000Z</Time>
            <Position>
              <LatitudeDegrees>43.10904524289071559906005859375</LatitudeDegrees>
              <LongitudeDegrees>-1.9375082664191722869873046875</LongitudeDegrees>
            </Position>
            <AltitudeMeters>415</AltitudeMeters>
            <DistanceMeters>NAN</DistanceMeters>
          </Trackpoint>
          <Trackpoint>
            <Time>2021-08-13T11:58:08.000Z</Time>
            <Position>
              <LatitudeDegrees>43.109020851552486419677734375</LatitudeDegrees>
              <LongitudeDegrees>-1.937508098781108856201171875</LongitudeDegrees>
            </Position>
            <AltitudeMeters>415</AltitudeMeters>
            <DistanceMeters>NAN</DistanceMeters>
          </Trackpoint>
          <Trackpoint>
            <Time>2021-08-13T11:58:09.000Z</Time>
            <Position>
              <LatitudeDegrees>43.10899511910974979400634765625</LatitudeDegrees>
              <LongitudeDegrees>-1.93750508129596710205078125</LongitudeDegrees>
            </Position>
            <AltitudeMeters>415</AltitudeMeters>
            <DistanceMeters>NAN</DistanceMeters>
          </Trackpoint>
          <Trackpoint>
            <Time>2021-08-13T11:58:10.000Z</Time>
            <Position>
              <LatitudeDegrees>43.1089710630476474761962890625</LatitudeDegrees>
              <LongitudeDegrees>-1.93750441074371337890625</LongitudeDegrees>
            </Position>
            <AltitudeMeters>415</AltitudeMeters>
            <DistanceMeters>NAN</DistanceMeters>
          </Trackpoint>
          <Trackpoint>
            <Time>2021-08-13T11:58:12.000Z</Time>
            <Position>
              <LatitudeDegrees>43.1089251302182674407958984375</LatitudeDegrees>
              <LongitudeDegrees>-1.93750583566725254058837890625</LongitudeDegrees>
            </Position>
            <AltitudeMeters>414.79998779296875</AltitudeMeters>
            <DistanceMeters>NAN</DistanceMeters>
          </Trackpoint>
          <Trackpoint>
            <Time>2021-08-13T11:58:13.000Z</Time>
            <Position>
              <LatitudeDegrees>43.10890308581292629241943359375</LatitudeDegrees>
              <LongitudeDegrees>-1.93751002661883831024169921875</LongitudeDegrees>
            </Position>
            <AltitudeMeters>415.20001220703125</AltitudeMeters>
            <DistanceMeters>NAN</DistanceMeters>
          </Trackpoint>
          <Trackpoint>
            <Time>2021-08-13T11:58:14.000Z</Time>
            <Position>
              <LatitudeDegrees>43.1088828854262828826904296875</LatitudeDegrees>
              <LongitudeDegrees>-1.937516815960407257080078125</LongitudeDegrees>
            </Position>
            <AltitudeMeters>415.20001220703125</AltitudeMeters>
            <DistanceMeters>NAN</DistanceMeters>
          </Trackpoint>
          <Trackpoint>
            <Time>2021-08-13T11:58:15.000Z</Time>
            <Position>
              <LatitudeDegrees>43.10886134393513202667236328125</LatitudeDegrees>
              <LongitudeDegrees>-1.93752251565456390380859375</LongitudeDegrees>
            </Position>
            <AltitudeMeters>415.20001220703125</AltitudeMeters>
            <DistanceMeters>NAN</DistanceMeters>
          </Trackpoint>
          <Trackpoint>
            <Time>2021-08-13T11:58:16.000Z</Time>
            <Position>
              <LatitudeDegrees>43.10884977690875530242919921875</LatitudeDegrees>
              <LongitudeDegrees>-1.93752578459680080413818359375</LongitudeDegrees>
            </Position>
            <AltitudeMeters>415.20001220703125</AltitudeMeters>
            <DistanceMeters>NAN</DistanceMeters>
          </Trackpoint>
          <Trackpoint>
            <Time>2021-08-13T11:58:17.000Z</Time>
            <Position>
              <LatitudeDegrees>43.10884977690875530242919921875</LatitudeDegrees>
              <LongitudeDegrees>-1.93752578459680080413818359375</LongitudeDegrees>
            </Position>
            <AltitudeMeters>415.20001220703125</AltitudeMeters>
            <DistanceMeters>NAN</DistanceMeters>
          </Trackpoint>
          <Trackpoint>
            <Time>2021-08-13T11:58:18.000Z</Time>
            <Position>
              <LatitudeDegrees>43.10881859622895717620849609375</LatitudeDegrees>
              <LongitudeDegrees>-1.937553025782108306884765625</LongitudeDegrees>
            </Position>
            <AltitudeMeters>415.20001220703125</AltitudeMeters>
            <DistanceMeters>NAN</DistanceMeters>
          </Trackpoint>
          <Trackpoint>
            <Time>2021-08-13T11:58:19.000Z</Time>
            <Position>
              <LatitudeDegrees>43.108802922070026397705078125</LatitudeDegrees>
              <LongitudeDegrees>-1.93756937049329280853271484375</LongitudeDegrees>
            </Position>
            <AltitudeMeters>415.20001220703125</AltitudeMeters>
            <DistanceMeters>NAN</DistanceMeters>
          </Trackpoint>
          <Trackpoint>
            <Time>2021-08-13T11:58:20.000Z</Time>
            <Position>
              <LatitudeDegrees>43.10878942720592021942138671875</LatitudeDegrees>
              <LongitudeDegrees>-1.93758948706090450286865234375</LongitudeDegrees>
            </Position>
            <AltitudeMeters>415.20001220703125</AltitudeMeters>
            <DistanceMeters>NAN</DistanceMeters>
          </Trackpoint>
          <Trackpoint>
            <Time>2021-08-13T11:58:21.000Z</Time>
            <Position>
              <LatitudeDegrees>43.1087762676179409027099609375</LatitudeDegrees>
              <LongitudeDegrees>-1.93761077709496021270751953125</LongitudeDegrees>
            </Position>
            <AltitudeMeters>415.20001220703125</AltitudeMeters>
            <DistanceMeters>NAN</DistanceMeters>
          </Trackpoint>
          <Trackpoint>
            <Time>2021-08-13T11:58:22.000Z</Time>
            <Position>
              <LatitudeDegrees>43.1087611801922321319580078125</LatitudeDegrees>
              <LongitudeDegrees>-1.93763055838644504547119140625</LongitudeDegrees>
            </Position>
            <AltitudeMeters>415.20001220703125</AltitudeMeters>
            <DistanceMeters>NAN</DistanceMeters>
          </Trackpoint>
          <Trackpoint>
            <Time>2021-08-13T11:58:23.000Z</Time>
            <Position>
              <LatitudeDegrees>43.10874718241393566131591796875</LatitudeDegrees>
              <LongitudeDegrees>-1.937648914754390716552734375</LongitudeDegrees>
            </Position>
            <AltitudeMeters>415.20001220703125</AltitudeMeters>
            <DistanceMeters>NAN</DistanceMeters>
          </Trackpoint>
          <Trackpoint>
            <Time>2021-08-13T11:58:24.000Z</Time>
            <Position>
              <LatitudeDegrees>43.108732514083385467529296875</LatitudeDegrees>
              <LongitudeDegrees>-1.93766844458878040313720703125</LongitudeDegrees>
            </Position>
            <AltitudeMeters>415.20001220703125</AltitudeMeters>
            <DistanceMeters>NAN</DistanceMeters>
          </Trackpoint>
          <Trackpoint>
            <Time>2021-08-13T11:58:25.000Z</Time>
            <Position>
              <LatitudeDegrees>43.10872522182762622833251953125</LatitudeDegrees>
              <LongitudeDegrees>-1.93768185563385486602783203125</LongitudeDegrees>
            </Position>
            <AltitudeMeters>415</AltitudeMeters>
            <DistanceMeters>NAN</DistanceMeters>
          </Trackpoint>
          <Trackpoint>
            <Time>2021-08-13T11:58:26.000Z</Time>
            <Position>
              <LatitudeDegrees>43.108711726963520050048828125</LatitudeDegrees>
              <LongitudeDegrees>-1.9377017207443714141845703125</LongitudeDegrees>
            </Position>
            <AltitudeMeters>415</AltitudeMeters>
            <DistanceMeters>NAN</DistanceMeters>
          </Trackpoint>
          <Trackpoint>
            <Time>2021-08-13T11:58:27.000Z</Time>
            <Position>
              <LatitudeDegrees>43.1086979806423187255859375</LatitudeDegrees>
              <LongitudeDegrees>-1.93771957419812679290771484375</LongitudeDegrees>
            </Position>
            <AltitudeMeters>415</AltitudeMeters>
            <DistanceMeters>NAN</DistanceMeters>
          </Trackpoint>
          <Trackpoint>
            <Time>2021-08-13T11:58:30.000Z</Time>
            <Position>
              <LatitudeDegrees>43.1086497008800506591796875</LatitudeDegrees>
              <LongitudeDegrees>-1.93778344430029392242431640625</LongitudeDegrees>
            </Position>
            <AltitudeMeters>415</AltitudeMeters>
            <DistanceMeters>NAN</DistanceMeters>
          </Trackpoint>
          <Trackpoint>
            <Time>2021-08-13T11:58:31.000Z</Time>
            <Position>
              <LatitudeDegrees>43.10863721184432506561279296875</LatitudeDegrees>
              <LongitudeDegrees>-1.93780322559177875518798828125</LongitudeDegrees>
            </Position>
            <AltitudeMeters>415</AltitudeMeters>
            <DistanceMeters>NAN</DistanceMeters>
          </Trackpoint>
          <Trackpoint>
            <Time>2021-08-13T11:58:32.000Z</Time>
            <Position>
              <LatitudeDegrees>43.1086210347712039947509765625</LatitudeDegrees>
              <LongitudeDegrees>-1.937824599444866180419921875</LongitudeDegrees>
            </Position>
            <AltitudeMeters>415</AltitudeMeters>
            <DistanceMeters>NAN</DistanceMeters>
          </Trackpoint>
          <Trackpoint>
            <Time>2021-08-13T11:58:33.000Z</Time>
            <Position>
              <LatitudeDegrees>43.10860636644065380096435546875</LatitudeDegrees>
              <LongitudeDegrees>-1.93784781731665134429931640625</LongitudeDegrees>
            </Position>
            <AltitudeMeters>415</AltitudeMeters>
            <DistanceMeters>NAN</DistanceMeters>
          </Trackpoint>
          <Trackpoint>
            <Time>2021-08-13T11:58:34.000Z</Time>
            <Position>
              <LatitudeDegrees>43.108593039214611053466796875</LatitudeDegrees>
              <LongitudeDegrees>-1.93787463940680027008056640625</LongitudeDegrees>
            </Position>
            <AltitudeMeters>415</AltitudeMeters>
            <DistanceMeters>NAN</DistanceMeters>
          </Trackpoint>
          <Trackpoint>
            <Time>2021-08-13T11:58:37.000Z</Time>
            <Position>
              <LatitudeDegrees>43.1085626967251300811767578125</LatitudeDegrees>
              <LongitudeDegrees>-1.93796449340879917144775390625</LongitudeDegrees>
            </Position>
            <AltitudeMeters>415</AltitudeMeters>
            <DistanceMeters>NAN</DistanceMeters>
          </Trackpoint>
          <Trackpoint>
            <Time>2021-08-13T11:58:38.000Z</Time>
            <Position>
              <LatitudeDegrees>43.10855247080326080322265625</LatitudeDegrees>
              <LongitudeDegrees>-1.93799869157373905181884765625</LongitudeDegrees>
            </Position>
            <AltitudeMeters>415</AltitudeMeters>
            <DistanceMeters>NAN</DistanceMeters>
          </Trackpoint>
          <Trackpoint>
            <Time>2021-08-13T11:58:40.000Z</Time>
            <Position>
              <LatitudeDegrees>43.10854710638523101806640625</LatitudeDegrees>
              <LongitudeDegrees>-1.93809893913567066192626953125</LongitudeDegrees>
            </Position>
            <AltitudeMeters>415</AltitudeMeters>
            <DistanceMeters>NAN</DistanceMeters>
          </Trackpoint>
          <Trackpoint>
            <Time>2021-08-13T11:58:45.000Z</Time>
            <Position>
              <LatitudeDegrees>43.108507208526134490966796875</LatitudeDegrees>
              <LongitudeDegrees>-1.93835844285786151885986328125</LongitudeDegrees>
            </Position>
            <AltitudeMeters>414.79998779296875</AltitudeMeters>
            <DistanceMeters>NAN</DistanceMeters>
          </Trackpoint>
          <Trackpoint>
            <Time>2021-08-13T11:58:46.000Z</Time>
            <Position>
              <LatitudeDegrees>43.1084959767758846282958984375</LatitudeDegrees>
              <LongitudeDegrees>-1.93840387277305126190185546875</LongitudeDegrees>
            </Position>
            <AltitudeMeters>414.79998779296875</AltitudeMeters>
            <DistanceMeters>NAN</DistanceMeters>
          </Trackpoint>
          <Trackpoint>
            <Time>2021-08-13T11:58:47.000Z</Time>
            <Position>
              <LatitudeDegrees>43.1084835715591907501220703125</LatitudeDegrees>
              <LongitudeDegrees>-1.93844787776470184326171875</LongitudeDegrees>
            </Position>
            <AltitudeMeters>414.79998779296875</AltitudeMeters>
            <DistanceMeters>NAN</DistanceMeters>
          </Trackpoint>
          <Trackpoint>
            <Time>2021-08-13T11:58:48.000Z</Time>
            <Position>
              <LatitudeDegrees>43.10847577638924121856689453125</LatitudeDegrees>
              <LongitudeDegrees>-1.93850160576403141021728515625</LongitudeDegrees>
            </Position>
            <AltitudeMeters>414.600006103515625</AltitudeMeters>
            <DistanceMeters>NAN</DistanceMeters>
          </Trackpoint>
          <Trackpoint>
            <Time>2021-08-13T11:58:51.000Z</Time>
            <Position>
              <LatitudeDegrees>43.10844442807137966156005859375</LatitudeDegrees>
              <LongitudeDegrees>-1.938635967671871185302734375</LongitudeDegrees>
            </Position>
            <AltitudeMeters>414.600006103515625</AltitudeMeters>
            <DistanceMeters>NAN</DistanceMeters>
          </Trackpoint>
          <Trackpoint>
            <Time>2021-08-13T11:58:54.000Z</Time>
            <Position>
              <LatitudeDegrees>43.1083853356540203094482421875</LatitudeDegrees>
              <LongitudeDegrees>-1.93875230848789215087890625</LongitudeDegrees>
            </Position>
            <AltitudeMeters>414.20001220703125</AltitudeMeters>
            <DistanceMeters>NAN</DistanceMeters>
          </Trackpoint>
          <Trackpoint>
            <Time>2021-08-13T11:58:55.000Z</Time>
            <Position>
              <LatitudeDegrees>43.108369410037994384765625</LatitudeDegrees>
              <LongitudeDegrees>-1.93877753801643848419189453125</LongitudeDegrees>
            </Position>
            <AltitudeMeters>414.20001220703125</AltitudeMeters>
            <DistanceMeters>NAN</DistanceMeters>
          </Trackpoint>
          <Trackpoint>
            <Time>2021-08-13T11:58:56.000Z</Time>
            <Position>
              <LatitudeDegrees>43.108345605432987213134765625</LatitudeDegrees>
              <LongitudeDegrees>-1.9387997500598430633544921875</LongitudeDegrees>
            </Position>
            <AltitudeMeters>414.20001220703125</AltitudeMeters>
            <DistanceMeters>NAN</DistanceMeters>
          </Trackpoint>
          <Trackpoint>
            <Time>2021-08-13T11:58:57.000Z</Time>
            <Position>
              <LatitudeDegrees>43.1083159334957599639892578125</LatitudeDegrees>
              <LongitudeDegrees>-1.938814334571361541748046875</LongitudeDegrees>
            </Position>
            <AltitudeMeters>414.20001220703125</AltitudeMeters>
            <DistanceMeters>NAN</DistanceMeters>
          </Trackpoint>
          <Trackpoint>
            <Time>2021-08-13T11:58:58.000Z</Time>
            <Position>
              <LatitudeDegrees>43.10830009169876575469970703125</LatitudeDegrees>
              <LongitudeDegrees>-1.938814334571361541748046875</LongitudeDegrees>
            </Position>
            <AltitudeMeters>414</AltitudeMeters>
            <DistanceMeters>NAN</DistanceMeters>
          </Trackpoint>
          <Trackpoint>
            <Time>2021-08-13T11:58:59.000Z</Time>
            <Position>
              <LatitudeDegrees>43.1082763709127902984619140625</LatitudeDegrees>
              <LongitudeDegrees>-1.93881492130458354949951171875</LongitudeDegrees>
            </Position>
            <AltitudeMeters>414</AltitudeMeters>
            <DistanceMeters>NAN</DistanceMeters>
          </Trackpoint>
          <Trackpoint>
            <Time>2021-08-13T11:59:00.000Z</Time>
            <Position>
              <LatitudeDegrees>43.1082512252032756805419921875</LatitudeDegrees>
              <LongitudeDegrees>-1.9388134963810443878173828125</LongitudeDegrees>
            </Position>
            <AltitudeMeters>414.399993896484375</AltitudeMeters>
            <DistanceMeters>NAN</DistanceMeters>
          </Trackpoint>
          <Trackpoint>
            <Time>2021-08-13T11:59:01.000Z</Time>
            <Position>
              <LatitudeDegrees>43.10823035426437854766845703125</LatitudeDegrees>
              <LongitudeDegrees>-1.938800252974033355712890625</LongitudeDegrees>
            </Position>
            <AltitudeMeters>414.399993896484375</AltitudeMeters>
            <DistanceMeters>NAN</DistanceMeters>
          </Trackpoint>
          <Trackpoint>
            <Time>2021-08-13T11:59:02.000Z</Time>
            <Position>
              <LatitudeDegrees>43.10823035426437854766845703125</LatitudeDegrees>
              <LongitudeDegrees>-1.938800252974033355712890625</LongitudeDegrees>
            </Position>
            <AltitudeMeters>414.600006103515625</AltitudeMeters>
            <DistanceMeters>NAN</DistanceMeters>
          </Trackpoint>
          <Trackpoint>
            <Time>2021-08-13T11:59:03.000Z</Time>
            <Position>
              <LatitudeDegrees>43.1081938929855823516845703125</LatitudeDegrees>
              <LongitudeDegrees>-1.93876580335199832916259765625</LongitudeDegrees>
            </Position>
            <AltitudeMeters>414.600006103515625</AltitudeMeters>
            <DistanceMeters>NAN</DistanceMeters>
          </Trackpoint>
          <Trackpoint>
            <Time>2021-08-13T11:59:04.000Z</Time>
            <Position>
              <LatitudeDegrees>43.10817025601863861083984375</LatitudeDegrees>
              <LongitudeDegrees>-1.9387451000511646270751953125</LongitudeDegrees>
            </Position>
            <AltitudeMeters>414.79998779296875</AltitudeMeters>
            <DistanceMeters>NAN</DistanceMeters>
          </Trackpoint>
          <Trackpoint>
            <Time>2021-08-13T11:59:05.000Z</Time>
            <Position>
              <LatitudeDegrees>43.1081489659845829010009765625</LatitudeDegrees>
              <LongitudeDegrees>-1.938727162778377532958984375</LongitudeDegrees>
            </Position>
            <AltitudeMeters>415</AltitudeMeters>
            <DistanceMeters>NAN</DistanceMeters>
          </Trackpoint>
          <Trackpoint>
            <Time>2021-08-13T11:59:06.000Z</Time>
            <Position>
              <LatitudeDegrees>43.10812725685536861419677734375</LatitudeDegrees>
              <LongitudeDegrees>-1.9387046992778778076171875</LongitudeDegrees>
            </Position>
            <AltitudeMeters>415</AltitudeMeters>
            <DistanceMeters>NAN</DistanceMeters>
          </Trackpoint>
          <Trackpoint>
            <Time>2021-08-13T11:59:07.000Z</Time>
            <Position>
              <LatitudeDegrees>43.1081060506403446197509765625</LatitudeDegrees>
              <LongitudeDegrees>-1.9386767037212848663330078125</LongitudeDegrees>
            </Position>
            <AltitudeMeters>415.399993896484375</AltitudeMeters>
            <DistanceMeters>NAN</DistanceMeters>
          </Trackpoint>
          <Trackpoint>
            <Time>2021-08-13T11:59:12.000Z</Time>
            <Position>
              <LatitudeDegrees>43.10802005231380462646484375</LatitudeDegrees>
              <LongitudeDegrees>-1.9385459460318088531494140625</LongitudeDegrees>
            </Position>
            <AltitudeMeters>415.79998779296875</AltitudeMeters>
            <DistanceMeters>NAN</DistanceMeters>
          </Trackpoint>
          <Trackpoint>
            <Time>2021-08-13T11:59:18.000Z</Time>
            <Position>
              <LatitudeDegrees>43.1078069843351840972900390625</LatitudeDegrees>
              <LongitudeDegrees>-1.93835659883916378021240234375</LongitudeDegrees>
            </Position>
            <AltitudeMeters>416</AltitudeMeters>
            <DistanceMeters>NAN</DistanceMeters>
          </Trackpoint>
          <Trackpoint>
            <Time>2021-08-13T11:59:24.000Z</Time>
            <Position>
              <LatitudeDegrees>43.107633478939533233642578125</LatitudeDegrees>
              <LongitudeDegrees>-1.9382291100919246673583984375</LongitudeDegrees>
            </Position>
            <AltitudeMeters>416.600006103515625</AltitudeMeters>
            <DistanceMeters>NAN</DistanceMeters>
          </Trackpoint>
          <Trackpoint>
            <Time>2021-08-13T11:59:25.000Z</Time>
            <Position>
              <LatitudeDegrees>43.1076061539351940155029296875</LatitudeDegrees>
              <LongitudeDegrees>-1.93820605985820293426513671875</LongitudeDegrees>
            </Position>
            <AltitudeMeters>416.600006103515625</AltitudeMeters>
            <DistanceMeters>NAN</DistanceMeters>
          </Trackpoint>
          <Trackpoint>
            <Time>2021-08-13T11:59:26.000Z</Time>
            <Position>
              <LatitudeDegrees>43.10757723636925220489501953125</LatitudeDegrees>
              <LongitudeDegrees>-1.93818233907222747802734375</LongitudeDegrees>
            </Position>
            <AltitudeMeters>416.79998779296875</AltitudeMeters>
            <DistanceMeters>NAN</DistanceMeters>
          </Trackpoint>
          <Trackpoint>
            <Time>2021-08-13T11:59:28.000Z</Time>
            <Position>
              <LatitudeDegrees>43.10751437209546566009521484375</LatitudeDegrees>
              <LongitudeDegrees>-1.938136406242847442626953125</LongitudeDegrees>
            </Position>
            <AltitudeMeters>417</AltitudeMeters>
            <DistanceMeters>NAN</DistanceMeters>
          </Trackpoint>
          <Trackpoint>
            <Time>2021-08-13T11:59:32.000Z</Time>
            <Position>
              <LatitudeDegrees>43.1073406152427196502685546875</LatitudeDegrees>
              <LongitudeDegrees>-1.93803523667156696319580078125</LongitudeDegrees>
            </Position>
            <AltitudeMeters>417.20001220703125</AltitudeMeters>
            <DistanceMeters>NAN</DistanceMeters>
          </Trackpoint>
          <Trackpoint>
            <Time>2021-08-13T11:59:35.000Z</Time>
            <Position>
              <LatitudeDegrees>43.10721010901033878326416015625</LatitudeDegrees>
              <LongitudeDegrees>-1.93796399049460887908935546875</LongitudeDegrees>
            </Position>
            <AltitudeMeters>417</AltitudeMeters>
            <DistanceMeters>NAN</DistanceMeters>
          </Trackpoint>
          <Trackpoint>
            <Time>2021-08-13T11:59:37.000Z</Time>
            <Position>
              <LatitudeDegrees>43.1071315705776214599609375</LatitudeDegrees>
              <LongitudeDegrees>-1.9379162974655628204345703125</LongitudeDegrees>
            </Position>
            <AltitudeMeters>416.600006103515625</AltitudeMeters>
            <DistanceMeters>NAN</DistanceMeters>
          </Trackpoint>
          <Trackpoint>
            <Time>2021-08-13T11:59:38.000Z</Time>
            <Position>
              <LatitudeDegrees>43.10710248537361621856689453125</LatitudeDegrees>
              <LongitudeDegrees>-1.93789090029895305633544921875</LongitudeDegrees>
            </Position>
            <AltitudeMeters>416.600006103515625</AltitudeMeters>
            <DistanceMeters>NAN</DistanceMeters>
          </Trackpoint>
          <Trackpoint>
            <Time>2021-08-13T11:59:39.000Z</Time>
            <Position>
              <LatitudeDegrees>43.10706811957061290740966796875</LatitudeDegrees>
              <LongitudeDegrees>-1.93785469047725200653076171875</LongitudeDegrees>
            </Position>
            <AltitudeMeters>416.399993896484375</AltitudeMeters>
            <DistanceMeters>NAN</DistanceMeters>
          </Trackpoint>
          <Trackpoint>
            <Time>2021-08-13T11:59:41.000Z</Time>
            <Position>
              <LatitudeDegrees>43.10700341127812862396240234375</LatitudeDegrees>
              <LongitudeDegrees>-1.93776768632233142852783203125</LongitudeDegrees>
            </Position>
            <AltitudeMeters>416.399993896484375</AltitudeMeters>
            <DistanceMeters>NAN</DistanceMeters>
          </Trackpoint>
          <Trackpoint>
            <Time>2021-08-13T11:59:43.000Z</Time>
            <Position>
              <LatitudeDegrees>43.106957562267780303955078125</LatitudeDegrees>
              <LongitudeDegrees>-1.9376963563263416290283203125</LongitudeDegrees>
            </Position>
            <AltitudeMeters>416.399993896484375</AltitudeMeters>
            <DistanceMeters>NAN</DistanceMeters>
          </Trackpoint>
          <Trackpoint>
            <Time>2021-08-13T11:59:44.000Z</Time>
            <Position>
              <LatitudeDegrees>43.1069305725395679473876953125</LatitudeDegrees>
              <LongitudeDegrees>-1.93764589726924896240234375</LongitudeDegrees>
            </Position>
            <AltitudeMeters>416.399993896484375</AltitudeMeters>
            <DistanceMeters>NAN</DistanceMeters>
          </Trackpoint>
          <Trackpoint>
            <Time>2021-08-13T11:59:45.000Z</Time>
            <Position>
              <LatitudeDegrees>43.1069064326584339141845703125</LatitudeDegrees>
              <LongitudeDegrees>-1.93760859780013561248779296875</LongitudeDegrees>
            </Position>
            <AltitudeMeters>416.399993896484375</AltitudeMeters>
            <DistanceMeters>NAN</DistanceMeters>
          </Trackpoint>
          <Trackpoint>
            <Time>2021-08-13T11:59:46.000Z</Time>
            <Position>
              <LatitudeDegrees>43.1068779341876506805419921875</LatitudeDegrees>
              <LongitudeDegrees>-1.937579847872257232666015625</LongitudeDegrees>
            </Position>
            <AltitudeMeters>416.600006103515625</AltitudeMeters>
            <DistanceMeters>NAN</DistanceMeters>
          </Trackpoint>
          <Trackpoint>
            <Time>2021-08-13T11:59:47.000Z</Time>
            <Position>
              <LatitudeDegrees>43.106849603354930877685546875</LatitudeDegrees>
              <LongitudeDegrees>-1.93755025975406169891357421875</LongitudeDegrees>
            </Position>
            <AltitudeMeters>416.79998779296875</AltitudeMeters>
            <DistanceMeters>NAN</DistanceMeters>
          </Trackpoint>
          <Trackpoint>
            <Time>2021-08-13T11:59:49.000Z</Time>
            <Position>
              <LatitudeDegrees>43.10679160058498382568359375</LatitudeDegrees>
              <LongitudeDegrees>-1.93749410100281238555908203125</LongitudeDegrees>
            </Position>
            <AltitudeMeters>417.79998779296875</AltitudeMeters>
            <DistanceMeters>NAN</DistanceMeters>
          </Trackpoint>
          <Trackpoint>
            <Time>2021-08-13T11:59:50.000Z</Time>
            <Position>
              <LatitudeDegrees>43.1067558936774730682373046875</LatitudeDegrees>
              <LongitudeDegrees>-1.93747666664421558380126953125</LongitudeDegrees>
            </Position>
            <AltitudeMeters>418</AltitudeMeters>
            <DistanceMeters>NAN</DistanceMeters>
          </Trackpoint>
          <Trackpoint>
            <Time>2021-08-13T11:59:51.000Z</Time>
            <Position>
              <LatitudeDegrees>43.10672144405543804168701171875</LatitudeDegrees>
              <LongitudeDegrees>-1.93746090866625308990478515625</LongitudeDegrees>
            </Position>
            <AltitudeMeters>418.399993896484375</AltitudeMeters>
            <DistanceMeters>NAN</DistanceMeters>
          </Trackpoint>
          <Trackpoint>
            <Time>2021-08-13T11:59:52.000Z</Time>
            <Position>
              <LatitudeDegrees>43.10668540187180042266845703125</LatitudeDegrees>
              <LongitudeDegrees>-1.9374502636492252349853515625</LongitudeDegrees>
            </Position>
            <AltitudeMeters>418.399993896484375</AltitudeMeters>
            <DistanceMeters>NAN</DistanceMeters>
          </Trackpoint>
          <Trackpoint>
            <Time>2021-08-13T11:59:53.000Z</Time>
            <Position>
              <LatitudeDegrees>43.1066559813916683197021484375</LatitudeDegrees>
              <LongitudeDegrees>-1.937445737421512603759765625</LongitudeDegrees>
            </Position>
            <AltitudeMeters>418.79998779296875</AltitudeMeters>
            <DistanceMeters>NAN</DistanceMeters>
          </Trackpoint>
          <Trackpoint>
            <Time>2021-08-13T11:59:54.000Z</Time>
            <Position>
              <LatitudeDegrees>43.10661256313323974609375</LatitudeDegrees>
              <LongitudeDegrees>-1.93743693642318248748779296875</LongitudeDegrees>
            </Position>
            <AltitudeMeters>418.79998779296875</AltitudeMeters>
            <DistanceMeters>NAN</DistanceMeters>
          </Trackpoint>
          <Trackpoint>
            <Time>2021-08-13T11:59:55.000Z</Time>
            <Position>
              <LatitudeDegrees>43.106578700244426727294921875</LatitudeDegrees>
              <LongitudeDegrees>-1.93742654286324977874755859375</LongitudeDegrees>
            </Position>
            <AltitudeMeters>419.20001220703125</AltitudeMeters>
            <DistanceMeters>NAN</DistanceMeters>
          </Trackpoint>
          <Trackpoint>
            <Time>2021-08-13T11:59:56.000Z</Time>
            <Position>
              <LatitudeDegrees>43.10654844157397747039794921875</LatitudeDegrees>
              <LongitudeDegrees>-1.937413550913333892822265625</LongitudeDegrees>
            </Position>
            <AltitudeMeters>419.399993896484375</AltitudeMeters>
            <DistanceMeters>NAN</DistanceMeters>
          </Trackpoint>
          <Trackpoint>
            <Time>2021-08-13T11:59:58.000Z</Time>
            <Position>
              <LatitudeDegrees>43.10649228282272815704345703125</LatitudeDegrees>
              <LongitudeDegrees>-1.93738731555640697479248046875</LongitudeDegrees>
            </Position>
            <AltitudeMeters>419.399993896484375</AltitudeMeters>
            <DistanceMeters>NAN</DistanceMeters>
          </Trackpoint>
          <Trackpoint>
            <Time>2021-08-13T11:59:59.000Z</Time>
            <Position>
              <LatitudeDegrees>43.10645171441137790679931640625</LatitudeDegrees>
              <LongitudeDegrees>-1.93737273104488849639892578125</LongitudeDegrees>
            </Position>
            <AltitudeMeters>419.600006103515625</AltitudeMeters>
            <DistanceMeters>NAN</DistanceMeters>
          </Trackpoint>
          <Trackpoint>
            <Time>2021-08-13T12:00:00.000Z</Time>
            <Position>
              <LatitudeDegrees>43.10641449876129627227783203125</LatitudeDegrees>
              <LongitudeDegrees>-1.93735890090465545654296875</LongitudeDegrees>
            </Position>
            <AltitudeMeters>419.600006103515625</AltitudeMeters>
            <DistanceMeters>NAN</DistanceMeters>
          </Trackpoint>
          <Trackpoint>
            <Time>2021-08-13T12:00:01.000Z</Time>
            <Position>
              <LatitudeDegrees>43.10637728311121463775634765625</LatitudeDegrees>
              <LongitudeDegrees>-1.93734825588762760162353515625</LongitudeDegrees>
            </Position>
            <AltitudeMeters>419.600006103515625</AltitudeMeters>
            <DistanceMeters>NAN</DistanceMeters>
          </Trackpoint>
          <Trackpoint>
            <Time>2021-08-13T12:00:02.000Z</Time>
            <Position>
              <LatitudeDegrees>43.10634643770754337310791015625</LatitudeDegrees>
              <LongitudeDegrees>-1.93734473548829555511474609375</LongitudeDegrees>
            </Position>
            <AltitudeMeters>419.79998779296875</AltitudeMeters>
            <DistanceMeters>NAN</DistanceMeters>
          </Trackpoint>
          <Trackpoint>
            <Time>2021-08-13T12:00:03.000Z</Time>
            <Position>
              <LatitudeDegrees>43.10634643770754337310791015625</LatitudeDegrees>
              <LongitudeDegrees>-1.93734473548829555511474609375</LongitudeDegrees>
            </Position>
            <AltitudeMeters>420</AltitudeMeters>
            <DistanceMeters>NAN</DistanceMeters>
          </Trackpoint>
          <Trackpoint>
            <Time>2021-08-13T12:00:04.000Z</Time>
            <Position>
              <LatitudeDegrees>43.10625943355262279510498046875</LatitudeDegrees>
              <LongitudeDegrees>-1.93733987398445606231689453125</LongitudeDegrees>
            </Position>
            <AltitudeMeters>420.20001220703125</AltitudeMeters>
            <DistanceMeters>NAN</DistanceMeters>
          </Trackpoint>
          <Trackpoint>
            <Time>2021-08-13T12:00:05.000Z</Time>
            <Position>
              <LatitudeDegrees>43.1062197871506214141845703125</LatitudeDegrees>
              <LongitudeDegrees>-1.93733207881450653076171875</LongitudeDegrees>
            </Position>
            <AltitudeMeters>420.399993896484375</AltitudeMeters>
            <DistanceMeters>NAN</DistanceMeters>
          </Trackpoint>
          <Trackpoint>
            <Time>2021-08-13T12:00:06.000Z</Time>
            <Position>
              <LatitudeDegrees>43.10618701390922069549560546875</LatitudeDegrees>
              <LongitudeDegrees>-1.9373268820345401763916015625</LongitudeDegrees>
            </Position>
            <AltitudeMeters>420.399993896484375</AltitudeMeters>
            <DistanceMeters>NAN</DistanceMeters>
          </Trackpoint>
          <Trackpoint>
            <Time>2021-08-13T12:00:07.000Z</Time>
            <Position>
              <LatitudeDegrees>43.106142170727252960205078125</LatitudeDegrees>
              <LongitudeDegrees>-1.93733115680515766143798828125</LongitudeDegrees>
            </Position>
            <AltitudeMeters>420.399993896484375</AltitudeMeters>
            <DistanceMeters>NAN</DistanceMeters>
          </Trackpoint>
          <Trackpoint>
            <Time>2021-08-13T12:00:08.000Z</Time>
            <Position>
              <LatitudeDegrees>43.106103949248790740966796875</LatitudeDegrees>
              <LongitudeDegrees>-1.9373292289674282073974609375</LongitudeDegrees>
            </Position>
            <AltitudeMeters>420.600006103515625</AltitudeMeters>
            <DistanceMeters>NAN</DistanceMeters>
          </Trackpoint>
          <Trackpoint>
            <Time>2021-08-13T12:00:09.000Z</Time>
            <Position>
              <LatitudeDegrees>43.106057345867156982421875</LatitudeDegrees>
              <LongitudeDegrees>-1.93733434192836284637451171875</LongitudeDegrees>
            </Position>
            <AltitudeMeters>420.600006103515625</AltitudeMeters>
            <DistanceMeters>NAN</DistanceMeters>
          </Trackpoint>
          <Trackpoint>
            <Time>2021-08-13T12:00:10.000Z</Time>
            <Position>
              <LatitudeDegrees>43.1060162745416164398193359375</LatitudeDegrees>
              <LongitudeDegrees>-1.9373355992138385772705078125</LongitudeDegrees>
            </Position>
            <AltitudeMeters>420.79998779296875</AltitudeMeters>
            <DistanceMeters>NAN</DistanceMeters>
          </Trackpoint>
          <Trackpoint>
            <Time>2021-08-13T12:00:11.000Z</Time>
            <Position>
              <LatitudeDegrees>43.10597713105380535125732421875</LatitudeDegrees>
              <LongitudeDegrees>-1.93733685649931430816650390625</LongitudeDegrees>
            </Position>
            <AltitudeMeters>420.79998779296875</AltitudeMeters>
            <DistanceMeters>NAN</DistanceMeters>
          </Trackpoint>
          <Trackpoint>
            <Time>2021-08-13T12:00:12.000Z</Time>
            <Position>
              <LatitudeDegrees>43.10594477690756320953369140625</LatitudeDegrees>
              <LongitudeDegrees>-1.93733903579413890838623046875</LongitudeDegrees>
            </Position>
            <AltitudeMeters>421</AltitudeMeters>
            <DistanceMeters>NAN</DistanceMeters>
          </Trackpoint>
          <Trackpoint>
            <Time>2021-08-13T12:00:13.000Z</Time>
            <Position>
              <LatitudeDegrees>43.105894066393375396728515625</LatitudeDegrees>
              <LongitudeDegrees>-1.93735730834305286407470703125</LongitudeDegrees>
            </Position>
            <AltitudeMeters>421</AltitudeMeters>
            <DistanceMeters>NAN</DistanceMeters>
          </Trackpoint>
          <Trackpoint>
            <Time>2021-08-13T12:00:14.000Z</Time>
            <Position>
              <LatitudeDegrees>43.10584922321140766143798828125</LatitudeDegrees>
              <LongitudeDegrees>-1.9373768381774425506591796875</LongitudeDegrees>
            </Position>
            <AltitudeMeters>421</AltitudeMeters>
            <DistanceMeters>NAN</DistanceMeters>
          </Trackpoint>
          <Trackpoint>
            <Time>2021-08-13T12:00:15.000Z</Time>
            <Position>
              <LatitudeDegrees>43.1058100797235965728759765625</LatitudeDegrees>
              <LongitudeDegrees>-1.9373868964612483978271484375</LongitudeDegrees>
            </Position>
            <AltitudeMeters>421</AltitudeMeters>
            <DistanceMeters>NAN</DistanceMeters>
          </Trackpoint>
          <Trackpoint>
            <Time>2021-08-13T12:00:16.000Z</Time>
            <Position>
              <LatitudeDegrees>43.10576967895030975341796875</LatitudeDegrees>
              <LongitudeDegrees>-1.93740223534405231475830078125</LongitudeDegrees>
            </Position>
            <AltitudeMeters>421</AltitudeMeters>
            <DistanceMeters>NAN</DistanceMeters>
          </Trackpoint>
          <Trackpoint>
            <Time>2021-08-13T12:00:17.000Z</Time>
            <Position>
              <LatitudeDegrees>43.1057346425950527191162109375</LatitudeDegrees>
              <LongitudeDegrees>-1.93742402829229831695556640625</LongitudeDegrees>
            </Position>
            <AltitudeMeters>421.20001220703125</AltitudeMeters>
            <DistanceMeters>NAN</DistanceMeters>
          </Trackpoint>
          <Trackpoint>
            <Time>2021-08-13T12:00:18.000Z</Time>
            <Position>
              <LatitudeDegrees>43.10568678192794322967529296875</LatitudeDegrees>
              <LongitudeDegrees>-1.9374438934028148651123046875</LongitudeDegrees>
            </Position>
            <AltitudeMeters>421.20001220703125</AltitudeMeters>
            <DistanceMeters>NAN</DistanceMeters>
          </Trackpoint>
          <Trackpoint>
            <Time>2021-08-13T12:00:19.000Z</Time>
            <Position>
              <LatitudeDegrees>43.10568678192794322967529296875</LatitudeDegrees>
              <LongitudeDegrees>-1.9374438934028148651123046875</LongitudeDegrees>
            </Position>
            <AltitudeMeters>421.20001220703125</AltitudeMeters>
            <DistanceMeters>NAN</DistanceMeters>
          </Trackpoint>
          <Trackpoint>
            <Time>2021-08-13T12:00:20.000Z</Time>
            <Position>
              <LatitudeDegrees>43.10561201535165309906005859375</LatitudeDegrees>
              <LongitudeDegrees>-1.93748295307159423828125</LongitudeDegrees>
            </Position>
            <AltitudeMeters>421.399993896484375</AltitudeMeters>
            <DistanceMeters>NAN</DistanceMeters>
          </Trackpoint>
          <Trackpoint>
            <Time>2021-08-13T12:00:21.000Z</Time>
            <Position>
              <LatitudeDegrees>43.10557194985449314117431640625</LatitudeDegrees>
              <LongitudeDegrees>-1.9375075958669185638427734375</LongitudeDegrees>
            </Position>
            <AltitudeMeters>421.399993896484375</AltitudeMeters>
            <DistanceMeters>NAN</DistanceMeters>
          </Trackpoint>
          <Trackpoint>
            <Time>2021-08-13T12:00:22.000Z</Time>
            <Position>
              <LatitudeDegrees>43.10557194985449314117431640625</LatitudeDegrees>
              <LongitudeDegrees>-1.9375075958669185638427734375</LongitudeDegrees>
            </Position>
            <AltitudeMeters>421.399993896484375</AltitudeMeters>
            <DistanceMeters>NAN</DistanceMeters>
          </Trackpoint>
          <Trackpoint>
            <Time>2021-08-13T12:00:23.000Z</Time>
            <Position>
              <LatitudeDegrees>43.10549902729690074920654296875</LatitudeDegrees>
              <LongitudeDegrees>-1.9375823624432086944580078125</LongitudeDegrees>
            </Position>
            <AltitudeMeters>421.399993896484375</AltitudeMeters>
            <DistanceMeters>NAN</DistanceMeters>
          </Trackpoint>
          <Trackpoint>
            <Time>2021-08-13T12:00:26.000Z</Time>
            <Position>
              <LatitudeDegrees>43.1053983606398105621337890625</LatitudeDegrees>
              <LongitudeDegrees>-1.93769409321248531341552734375</LongitudeDegrees>
            </Position>
            <AltitudeMeters>421.600006103515625</AltitudeMeters>
            <DistanceMeters>NAN</DistanceMeters>
          </Trackpoint>
          <Trackpoint>
            <Time>2021-08-13T12:00:27.000Z</Time>
            <Position>
              <LatitudeDegrees>43.10536592267453670501708984375</LatitudeDegrees>
              <LongitudeDegrees>-1.93773617036640644073486328125</LongitudeDegrees>
            </Position>
            <AltitudeMeters>421.600006103515625</AltitudeMeters>
            <DistanceMeters>NAN</DistanceMeters>
          </Trackpoint>
          <Trackpoint>
            <Time>2021-08-13T12:00:28.000Z</Time>
            <Position>
              <LatitudeDegrees>43.105333484709262847900390625</LatitudeDegrees>
              <LongitudeDegrees>-1.93777288310229778289794921875</LongitudeDegrees>
            </Position>
            <AltitudeMeters>421.79998779296875</AltitudeMeters>
            <DistanceMeters>NAN</DistanceMeters>
          </Trackpoint>
          <Trackpoint>
            <Time>2021-08-13T12:00:29.000Z</Time>
            <Position>
              <LatitudeDegrees>43.10530825518071651458740234375</LatitudeDegrees>
              <LongitudeDegrees>-1.9378130324184894561767578125</LongitudeDegrees>
            </Position>
            <AltitudeMeters>421.79998779296875</AltitudeMeters>
            <DistanceMeters>NAN</DistanceMeters>
          </Trackpoint>
          <Trackpoint>
            <Time>2021-08-13T12:00:30.000Z</Time>
            <Position>
              <LatitudeDegrees>43.10529291629791259765625</LatitudeDegrees>
              <LongitudeDegrees>-1.9378344900906085968017578125</LongitudeDegrees>
            </Position>
            <AltitudeMeters>422</AltitudeMeters>
            <DistanceMeters>NAN</DistanceMeters>
          </Trackpoint>
          <Trackpoint>
            <Time>2021-08-13T12:00:31.000Z</Time>
            <Position>
              <LatitudeDegrees>43.1052727997303009033203125</LatitudeDegrees>
              <LongitudeDegrees>-1.9378576241433620452880859375</LongitudeDegrees>
            </Position>
            <AltitudeMeters>422.20001220703125</AltitudeMeters>
            <DistanceMeters>NAN</DistanceMeters>
          </Trackpoint>
          <Trackpoint>
            <Time>2021-08-13T12:00:32.000Z</Time>
            <Position>
              <LatitudeDegrees>43.1052501685917377471923828125</LatitudeDegrees>
              <LongitudeDegrees>-1.93788721226155757904052734375</LongitudeDegrees>
            </Position>
            <AltitudeMeters>422.20001220703125</AltitudeMeters>
            <DistanceMeters>NAN</DistanceMeters>
          </Trackpoint>
          <Trackpoint>
            <Time>2021-08-13T12:00:33.000Z</Time>
            <Position>
              <LatitudeDegrees>43.10523818247020244598388671875</LatitudeDegrees>
              <LongitudeDegrees>-1.9379122741520404815673828125</LongitudeDegrees>
            </Position>
            <AltitudeMeters>422.20001220703125</AltitudeMeters>
            <DistanceMeters>NAN</DistanceMeters>
          </Trackpoint>
          <Trackpoint>
            <Time>2021-08-13T12:00:36.000Z</Time>
            <Position>
              <LatitudeDegrees>43.10519945807754993438720703125</LatitudeDegrees>
              <LongitudeDegrees>-1.9379833526909351348876953125</LongitudeDegrees>
            </Position>
            <AltitudeMeters>422.20001220703125</AltitudeMeters>
            <DistanceMeters>NAN</DistanceMeters>
          </Trackpoint>
          <Trackpoint>
            <Time>2021-08-13T12:00:37.000Z</Time>
            <Position>
              <LatitudeDegrees>43.10518990270793437957763671875</LatitudeDegrees>
              <LongitudeDegrees>-1.9380058161914348602294921875</LongitudeDegrees>
            </Position>
            <AltitudeMeters>422.399993896484375</AltitudeMeters>
            <DistanceMeters>NAN</DistanceMeters>
          </Trackpoint>
          <Trackpoint>
            <Time>2021-08-13T12:00:38.000Z</Time>
            <Position>
              <LatitudeDegrees>43.10517515055835247039794921875</LatitudeDegrees>
              <LongitudeDegrees>-1.93803322501480579376220703125</LongitudeDegrees>
            </Position>
            <AltitudeMeters>422.399993896484375</AltitudeMeters>
            <DistanceMeters>NAN</DistanceMeters>
          </Trackpoint>
          <Trackpoint>
            <Time>2021-08-13T12:00:39.000Z</Time>
            <Position>
              <LatitudeDegrees>43.10516056604683399200439453125</LatitudeDegrees>
              <LongitudeDegrees>-1.93805694580078125</LongitudeDegrees>
            </Position>
            <AltitudeMeters>422.399993896484375</AltitudeMeters>
            <DistanceMeters>NAN</DistanceMeters>
          </Trackpoint>
          <Trackpoint>
            <Time>2021-08-13T12:00:40.000Z</Time>
            <Position>
              <LatitudeDegrees>43.1051432155072689056396484375</LatitudeDegrees>
              <LongitudeDegrees>-1.93807496689260005950927734375</LongitudeDegrees>
            </Position>
            <AltitudeMeters>422.399993896484375</AltitudeMeters>
            <DistanceMeters>NAN</DistanceMeters>
          </Trackpoint>
          <Trackpoint>
            <Time>2021-08-13T12:00:41.000Z</Time>
            <Position>
              <LatitudeDegrees>43.10513558797538280487060546875</LatitudeDegrees>
              <LongitudeDegrees>-1.93809692747890949249267578125</LongitudeDegrees>
            </Position>
            <AltitudeMeters>422.399993896484375</AltitudeMeters>
            <DistanceMeters>NAN</DistanceMeters>
          </Trackpoint>
          <Trackpoint>
            <Time>2021-08-13T12:00:42.000Z</Time>
            <Position>
              <LatitudeDegrees>43.10512636788189411163330078125</LatitudeDegrees>
              <LongitudeDegrees>-1.9381255097687244415283203125</LongitudeDegrees>
            </Position>
            <AltitudeMeters>422.600006103515625</AltitudeMeters>
            <DistanceMeters>NAN</DistanceMeters>
          </Trackpoint>
          <Trackpoint>
            <Time>2021-08-13T12:00:43.000Z</Time>
            <Position>
              <LatitudeDegrees>43.105114214122295379638671875</LatitudeDegrees>
              <LongitudeDegrees>-1.938146464526653289794921875</LongitudeDegrees>
            </Position>
            <AltitudeMeters>422.600006103515625</AltitudeMeters>
            <DistanceMeters>NAN</DistanceMeters>
          </Trackpoint>
          <Trackpoint>
            <Time>2021-08-13T12:00:44.000Z</Time>
            <Position>
              <LatitudeDegrees>43.10510910116136074066162109375</LatitudeDegrees>
              <LongitudeDegrees>-1.938177309930324554443359375</LongitudeDegrees>
            </Position>
            <AltitudeMeters>422.600006103515625</AltitudeMeters>
            <DistanceMeters>NAN</DistanceMeters>
          </Trackpoint>
          <Trackpoint>
            <Time>2021-08-13T12:00:45.000Z</Time>
            <Position>
              <LatitudeDegrees>43.10510960407555103302001953125</LatitudeDegrees>
              <LongitudeDegrees>-1.9382039643824100494384765625</LongitudeDegrees>
            </Position>
            <AltitudeMeters>422.600006103515625</AltitudeMeters>
            <DistanceMeters>NAN</DistanceMeters>
          </Trackpoint>
          <Trackpoint>
            <Time>2021-08-13T12:00:46.000Z</Time>
            <Position>
              <LatitudeDegrees>43.10511513613164424896240234375</LatitudeDegrees>
              <LongitudeDegrees>-1.93823422305285930633544921875</LongitudeDegrees>
            </Position>
            <AltitudeMeters>422.600006103515625</AltitudeMeters>
            <DistanceMeters>NAN</DistanceMeters>
          </Trackpoint>
          <Trackpoint>
            <Time>2021-08-13T12:00:47.000Z</Time>
            <Position>
              <LatitudeDegrees>43.1051059998571872711181640625</LatitudeDegrees>
              <LongitudeDegrees>-1.938254423439502716064453125</LongitudeDegrees>
            </Position>
            <AltitudeMeters>422.79998779296875</AltitudeMeters>
            <DistanceMeters>NAN</DistanceMeters>
          </Trackpoint>
          <Trackpoint>
            <Time>2021-08-13T12:00:48.000Z</Time>
            <Position>
              <LatitudeDegrees>43.10510407201945781707763671875</LatitudeDegrees>
              <LongitudeDegrees>-1.93827177397906780242919921875</LongitudeDegrees>
            </Position>
            <AltitudeMeters>422.79998779296875</AltitudeMeters>
            <DistanceMeters>NAN</DistanceMeters>
          </Trackpoint>
          <Trackpoint>
            <Time>2021-08-13T12:00:49.000Z</Time>
            <Position>
              <LatitudeDegrees>43.10509066097438335418701171875</LatitudeDegrees>
              <LongitudeDegrees>-1.938288621604442596435546875</LongitudeDegrees>
            </Position>
            <AltitudeMeters>422.79998779296875</AltitudeMeters>
            <DistanceMeters>NAN</DistanceMeters>
          </Trackpoint>
          <Trackpoint>
            <Time>2021-08-13T12:00:50.000Z</Time>
            <Position>
              <LatitudeDegrees>43.10506802983582019805908203125</LatitudeDegrees>
              <LongitudeDegrees>-1.938295327126979827880859375</LongitudeDegrees>
            </Position>
            <AltitudeMeters>422.79998779296875</AltitudeMeters>
            <DistanceMeters>NAN</DistanceMeters>
          </Trackpoint>
          <Trackpoint>
            <Time>2021-08-13T12:00:51.000Z</Time>
            <Position>
              <LatitudeDegrees>43.10505394823849201202392578125</LatitudeDegrees>
              <LongitudeDegrees>-1.93828954361379146575927734375</LongitudeDegrees>
            </Position>
            <AltitudeMeters>422.79998779296875</AltitudeMeters>
            <DistanceMeters>NAN</DistanceMeters>
          </Trackpoint>
          <Trackpoint>
            <Time>2021-08-13T12:00:52.000Z</Time>
            <Position>
              <LatitudeDegrees>43.105034418404102325439453125</LatitudeDegrees>
              <LongitudeDegrees>-1.93829524330794811248779296875</LongitudeDegrees>
            </Position>
            <AltitudeMeters>422.79998779296875</AltitudeMeters>
            <DistanceMeters>NAN</DistanceMeters>
          </Trackpoint>
          <Trackpoint>
            <Time>2021-08-13T12:00:53.000Z</Time>
            <Position>
              <LatitudeDegrees>43.1050208397209644317626953125</LatitudeDegrees>
              <LongitudeDegrees>-1.9383072294294834136962890625</LongitudeDegrees>
            </Position>
            <AltitudeMeters>422.79998779296875</AltitudeMeters>
            <DistanceMeters>NAN</DistanceMeters>
          </Trackpoint>
          <Trackpoint>
            <Time>2021-08-13T12:00:55.000Z</Time>
            <Position>
              <LatitudeDegrees>43.10499829240143299102783203125</LatitudeDegrees>
              <LongitudeDegrees>-1.9383323751389980316162109375</LongitudeDegrees>
            </Position>
            <AltitudeMeters>422.79998779296875</AltitudeMeters>
            <DistanceMeters>NAN</DistanceMeters>
          </Trackpoint>
          <Trackpoint>
            <Time>2021-08-13T12:00:56.000Z</Time>
            <Position>
              <LatitudeDegrees>43.104992844164371490478515625</LatitudeDegrees>
              <LongitudeDegrees>-1.93834117613732814788818359375</LongitudeDegrees>
            </Position>
            <AltitudeMeters>422.79998779296875</AltitudeMeters>
            <DistanceMeters>NAN</DistanceMeters>
          </Trackpoint>
          <Trackpoint>
            <Time>2021-08-13T12:00:58.000Z</Time>
            <Position>
              <LatitudeDegrees>43.1049896590411663055419921875</LatitudeDegrees>
              <LongitudeDegrees>-1.93834704346954822540283203125</LongitudeDegrees>
            </Position>
            <AltitudeMeters>422.79998779296875</AltitudeMeters>
            <DistanceMeters>NAN</DistanceMeters>
          </Trackpoint>
          <Trackpoint>
            <Time>2021-08-13T12:00:59.000Z</Time>
            <Position>
              <LatitudeDegrees>43.1049896590411663055419921875</LatitudeDegrees>
              <LongitudeDegrees>-1.93834704346954822540283203125</LongitudeDegrees>
            </Position>
            <AltitudeMeters>422.79998779296875</AltitudeMeters>
            <DistanceMeters>NAN</DistanceMeters>
          </Trackpoint>
          <Trackpoint>
            <Time>2021-08-13T12:01:13.000Z</Time>
            <Position>
              <LatitudeDegrees>43.1049896590411663055419921875</LatitudeDegrees>
              <LongitudeDegrees>-1.93834704346954822540283203125</LongitudeDegrees>
            </Position>
            <AltitudeMeters>422.600006103515625</AltitudeMeters>
            <DistanceMeters>NAN</DistanceMeters>
          </Trackpoint>
          <Trackpoint>
            <Time>2021-08-13T12:01:52.000Z</Time>
            <Position>
              <LatitudeDegrees>43.104980774223804473876953125</LatitudeDegrees>
              <LongitudeDegrees>-1.9383541680872440338134765625</LongitudeDegrees>
            </Position>
            <AltitudeMeters>422.600006103515625</AltitudeMeters>
            <DistanceMeters>NAN</DistanceMeters>
          </Trackpoint>
          <Trackpoint>
            <Time>2021-08-13T12:01:55.000Z</Time>
            <Position>
              <LatitudeDegrees>43.10494347475469112396240234375</LatitudeDegrees>
              <LongitudeDegrees>-1.93839297629892826080322265625</LongitudeDegrees>
            </Position>
            <AltitudeMeters>422.600006103515625</AltitudeMeters>
            <DistanceMeters>NAN</DistanceMeters>
          </Trackpoint>
          <Trackpoint>
            <Time>2021-08-13T12:01:57.000Z</Time>
            <Position>
              <LatitudeDegrees>43.10490575619041919708251953125</LatitudeDegrees>
              <LongitudeDegrees>-1.938424743711948394775390625</LongitudeDegrees>
            </Position>
            <AltitudeMeters>422.600006103515625</AltitudeMeters>
            <DistanceMeters>NAN</DistanceMeters>
          </Trackpoint>
          <Trackpoint>
            <Time>2021-08-13T12:02:00.000Z</Time>
            <Position>
              <LatitudeDegrees>43.10484909452497959136962890625</LatitudeDegrees>
              <LongitudeDegrees>-1.9384852610528469085693359375</LongitudeDegrees>
            </Position>
            <AltitudeMeters>422.600006103515625</AltitudeMeters>
            <DistanceMeters>NAN</DistanceMeters>
          </Trackpoint>
          <Trackpoint>
            <Time>2021-08-13T12:02:01.000Z</Time>
            <Position>
              <LatitudeDegrees>43.1048297323286533355712890625</LatitudeDegrees>
              <LongitudeDegrees>-1.9385117478668689727783203125</LongitudeDegrees>
            </Position>
            <AltitudeMeters>422.399993896484375</AltitudeMeters>
            <DistanceMeters>NAN</DistanceMeters>
          </Trackpoint>
          <Trackpoint>
            <Time>2021-08-13T12:02:03.000Z</Time>
            <Position>
              <LatitudeDegrees>43.1047878228127956390380859375</LatitudeDegrees>
              <LongitudeDegrees>-1.9385650567710399627685546875</LongitudeDegrees>
            </Position>
            <AltitudeMeters>422.600006103515625</AltitudeMeters>
            <DistanceMeters>NAN</DistanceMeters>
          </Trackpoint>
          <Trackpoint>
            <Time>2021-08-13T12:02:04.000Z</Time>
            <Position>
              <LatitudeDegrees>43.104772903025150299072265625</LatitudeDegrees>
              <LongitudeDegrees>-1.93858928047120571136474609375</LongitudeDegrees>
            </Position>
            <AltitudeMeters>422.79998779296875</AltitudeMeters>
            <DistanceMeters>NAN</DistanceMeters>
          </Trackpoint>
          <Trackpoint>
            <Time>2021-08-13T12:02:07.000Z</Time>
            <Position>
              <LatitudeDegrees>43.10470844618976116180419921875</LatitudeDegrees>
              <LongitudeDegrees>-1.93865901790559291839599609375</LongitudeDegrees>
            </Position>
            <AltitudeMeters>423.20001220703125</AltitudeMeters>
            <DistanceMeters>NAN</DistanceMeters>
          </Trackpoint>
          <Trackpoint>
            <Time>2021-08-13T12:02:08.000Z</Time>
            <Position>
              <LatitudeDegrees>43.10468598268926143646240234375</LatitudeDegrees>
              <LongitudeDegrees>-1.9386884383857250213623046875</LongitudeDegrees>
            </Position>
            <AltitudeMeters>423.20001220703125</AltitudeMeters>
            <DistanceMeters>NAN</DistanceMeters>
          </Trackpoint>
          <Trackpoint>
            <Time>2021-08-13T12:02:10.000Z</Time>
            <Position>
              <LatitudeDegrees>43.1046439893543720245361328125</LatitudeDegrees>
              <LongitudeDegrees>-1.93875473923981189727783203125</LongitudeDegrees>
            </Position>
            <AltitudeMeters>423.399993896484375</AltitudeMeters>
            <DistanceMeters>NAN</DistanceMeters>
          </Trackpoint>
          <Trackpoint>
            <Time>2021-08-13T12:02:14.000Z</Time>
            <Position>
              <LatitudeDegrees>43.1045983918011188507080078125</LatitudeDegrees>
              <LongitudeDegrees>-1.93884945474565029144287109375</LongitudeDegrees>
            </Position>
            <AltitudeMeters>423.79998779296875</AltitudeMeters>
            <DistanceMeters>NAN</DistanceMeters>
          </Trackpoint>
          <Trackpoint>
            <Time>2021-08-13T12:02:22.000Z</Time>
            <Position>
              <LatitudeDegrees>43.1044116429984569549560546875</LatitudeDegrees>
              <LongitudeDegrees>-1.939148604869842529296875</LongitudeDegrees>
            </Position>
            <AltitudeMeters>424.20001220703125</AltitudeMeters>
            <DistanceMeters>NAN</DistanceMeters>
          </Trackpoint>
          <Trackpoint>
            <Time>2021-08-13T12:02:23.000Z</Time>
            <Position>
              <LatitudeDegrees>43.10438859276473522186279296875</LatitudeDegrees>
              <LongitudeDegrees>-1.93917743861675262451171875</LongitudeDegrees>
            </Position>
            <AltitudeMeters>424.399993896484375</AltitudeMeters>
            <DistanceMeters>NAN</DistanceMeters>
          </Trackpoint>
          <Trackpoint>
            <Time>2021-08-13T12:02:26.000Z</Time>
            <Position>
              <LatitudeDegrees>43.1043150834739208221435546875</LatitudeDegrees>
              <LongitudeDegrees>-1.93927240557968616485595703125</LongitudeDegrees>
            </Position>
            <AltitudeMeters>424.399993896484375</AltitudeMeters>
            <DistanceMeters>NAN</DistanceMeters>
          </Trackpoint>
          <Trackpoint>
            <Time>2021-08-13T12:02:27.000Z</Time>
            <Position>
              <LatitudeDegrees>43.10429320670664310455322265625</LatitudeDegrees>
              <LongitudeDegrees>-1.939299814403057098388671875</LongitudeDegrees>
            </Position>
            <AltitudeMeters>424.600006103515625</AltitudeMeters>
            <DistanceMeters>NAN</DistanceMeters>
          </Trackpoint>
          <Trackpoint>
            <Time>2021-08-13T12:02:30.000Z</Time>
            <Position>
              <LatitudeDegrees>43.1042321026325225830078125</LatitudeDegrees>
              <LongitudeDegrees>-1.9393672049045562744140625</LongitudeDegrees>
            </Position>
            <AltitudeMeters>424.79998779296875</AltitudeMeters>
            <DistanceMeters>NAN</DistanceMeters>
          </Trackpoint>
          <Trackpoint>
            <Time>2021-08-13T12:02:31.000Z</Time>
            <Position>
              <LatitudeDegrees>43.10422413982450962066650390625</LatitudeDegrees>
              <LongitudeDegrees>-1.93938790820538997650146484375</LongitudeDegrees>
            </Position>
            <AltitudeMeters>424.79998779296875</AltitudeMeters>
            <DistanceMeters>NAN</DistanceMeters>
          </Trackpoint>
          <Trackpoint>
            <Time>2021-08-13T12:02:32.000Z</Time>
            <Position>
              <LatitudeDegrees>43.10421894304454326629638671875</LatitudeDegrees>
              <LongitudeDegrees>-1.939405091106891632080078125</LongitudeDegrees>
            </Position>
            <AltitudeMeters>425</AltitudeMeters>
            <DistanceMeters>NAN</DistanceMeters>
          </Trackpoint>
          <Trackpoint>
            <Time>2021-08-13T12:02:33.000Z</Time>
            <Position>
              <LatitudeDegrees>43.10421056114137172698974609375</LatitudeDegrees>
              <LongitudeDegrees>-1.9394200108945369720458984375</LongitudeDegrees>
            </Position>
            <AltitudeMeters>425</AltitudeMeters>
            <DistanceMeters>NAN</DistanceMeters>
          </Trackpoint>
          <Trackpoint>
            <Time>2021-08-13T12:02:34.000Z</Time>
            <Position>
              <LatitudeDegrees>43.10420301742851734161376953125</LatitudeDegrees>
              <LongitudeDegrees>-1.9394350983202457427978515625</LongitudeDegrees>
            </Position>
            <AltitudeMeters>425.20001220703125</AltitudeMeters>
            <DistanceMeters>NAN</DistanceMeters>
          </Trackpoint>
          <Trackpoint>
            <Time>2021-08-13T12:02:35.000Z</Time>
            <Position>
              <LatitudeDegrees>43.104201592504978179931640625</LatitudeDegrees>
              <LongitudeDegrees>-1.9394397921860218048095703125</LongitudeDegrees>
            </Position>
            <AltitudeMeters>425.20001220703125</AltitudeMeters>
            <DistanceMeters>NAN</DistanceMeters>
          </Trackpoint>
          <Trackpoint>
            <Time>2021-08-13T12:02:36.000Z</Time>
            <Position>
              <LatitudeDegrees>43.104201592504978179931640625</LatitudeDegrees>
              <LongitudeDegrees>-1.9394397921860218048095703125</LongitudeDegrees>
            </Position>
            <AltitudeMeters>425.20001220703125</AltitudeMeters>
            <DistanceMeters>NAN</DistanceMeters>
          </Trackpoint>
          <Trackpoint>
            <Time>2021-08-13T12:02:38.000Z</Time>
            <Position>
              <LatitudeDegrees>43.104201592504978179931640625</LatitudeDegrees>
              <LongitudeDegrees>-1.9394397921860218048095703125</LongitudeDegrees>
            </Position>
            <AltitudeMeters>425.20001220703125</AltitudeMeters>
            <DistanceMeters>NAN</DistanceMeters>
          </Trackpoint>
          <Trackpoint>
            <Time>2021-08-13T12:02:39.000Z</Time>
            <Position>
              <LatitudeDegrees>43.104201592504978179931640625</LatitudeDegrees>
              <LongitudeDegrees>-1.9394397921860218048095703125</LongitudeDegrees>
            </Position>
            <AltitudeMeters>425.20001220703125</AltitudeMeters>
            <DistanceMeters>NAN</DistanceMeters>
          </Trackpoint>
          <Trackpoint>
            <Time>2021-08-13T12:02:45.000Z</Time>
            <Position>
              <LatitudeDegrees>43.10419312678277492523193359375</LatitudeDegrees>
              <LongitudeDegrees>-1.93947658874094486236572265625</LongitudeDegrees>
            </Position>
            <AltitudeMeters>425.399993896484375</AltitudeMeters>
            <DistanceMeters>NAN</DistanceMeters>
          </Trackpoint>
          <Trackpoint>
            <Time>2021-08-13T12:02:46.000Z</Time>
            <Position>
              <LatitudeDegrees>43.10419312678277492523193359375</LatitudeDegrees>
              <LongitudeDegrees>-1.93947658874094486236572265625</LongitudeDegrees>
            </Position>
            <AltitudeMeters>425.399993896484375</AltitudeMeters>
            <DistanceMeters>NAN</DistanceMeters>
          </Trackpoint>
          <Trackpoint>
            <Time>2021-08-13T12:02:47.000Z</Time>
            <Position>
              <LatitudeDegrees>43.10419312678277492523193359375</LatitudeDegrees>
              <LongitudeDegrees>-1.93947658874094486236572265625</LongitudeDegrees>
            </Position>
            <AltitudeMeters>425.399993896484375</AltitudeMeters>
            <DistanceMeters>NAN</DistanceMeters>
          </Trackpoint>
          <Trackpoint>
            <Time>2021-08-13T12:06:33.000Z</Time>
            <Position>
              <LatitudeDegrees>43.10419631190598011016845703125</LatitudeDegrees>
              <LongitudeDegrees>-1.9394780136644840240478515625</LongitudeDegrees>
            </Position>
            <AltitudeMeters>425.600006103515625</AltitudeMeters>
            <DistanceMeters>NAN</DistanceMeters>
          </Trackpoint>
          <Trackpoint>
            <Time>2021-08-13T12:06:41.000Z</Time>
            <Position>
              <LatitudeDegrees>43.104182146489620208740234375</LatitudeDegrees>
              <LongitudeDegrees>-1.93948262371122837066650390625</LongitudeDegrees>
            </Position>
            <AltitudeMeters>425.600006103515625</AltitudeMeters>
            <DistanceMeters>NAN</DistanceMeters>
          </Trackpoint>
          <Trackpoint>
            <Time>2021-08-13T12:06:45.000Z</Time>
            <Position>
              <LatitudeDegrees>43.104123137891292572021484375</LatitudeDegrees>
              <LongitudeDegrees>-1.9395254552364349365234375</LongitudeDegrees>
            </Position>
            <AltitudeMeters>425.79998779296875</AltitudeMeters>
            <DistanceMeters>NAN</DistanceMeters>
          </Trackpoint>
          <Trackpoint>
            <Time>2021-08-13T12:06:46.000Z</Time>
            <Position>
              <LatitudeDegrees>43.10409254394471645355224609375</LatitudeDegrees>
              <LongitudeDegrees>-1.93954682908952236175537109375</LongitudeDegrees>
            </Position>
            <AltitudeMeters>425.79998779296875</AltitudeMeters>
            <DistanceMeters>NAN</DistanceMeters>
          </Trackpoint>
          <Trackpoint>
            <Time>2021-08-13T12:06:50.000Z</Time>
            <Position>
              <LatitudeDegrees>43.1039908714592456817626953125</LatitudeDegrees>
              <LongitudeDegrees>-1.9396542012691497802734375</LongitudeDegrees>
            </Position>
            <AltitudeMeters>425.79998779296875</AltitudeMeters>
            <DistanceMeters>NAN</DistanceMeters>
          </Trackpoint>
          <Trackpoint>
            <Time>2021-08-13T12:06:51.000Z</Time>
            <Position>
              <LatitudeDegrees>43.10396497137844562530517578125</LatitudeDegrees>
              <LongitudeDegrees>-1.9396815262734889984130859375</LongitudeDegrees>
            </Position>
            <AltitudeMeters>425.79998779296875</AltitudeMeters>
            <DistanceMeters>NAN</DistanceMeters>
          </Trackpoint>
          <Trackpoint>
            <Time>2021-08-13T12:06:52.000Z</Time>
            <Position>
              <LatitudeDegrees>43.1039345450699329376220703125</LatitudeDegrees>
              <LongitudeDegrees>-1.93972620181739330291748046875</LongitudeDegrees>
            </Position>
            <AltitudeMeters>426</AltitudeMeters>
            <DistanceMeters>NAN</DistanceMeters>
          </Trackpoint>
          <Trackpoint>
            <Time>2021-08-13T12:07:00.000Z</Time>
            <Position>
              <LatitudeDegrees>43.10372860170900821685791015625</LatitudeDegrees>
              <LongitudeDegrees>-1.94008377380669116973876953125</LongitudeDegrees>
            </Position>
            <AltitudeMeters>426.399993896484375</AltitudeMeters>
            <DistanceMeters>NAN</DistanceMeters>
          </Trackpoint>
          <Trackpoint>
            <Time>2021-08-13T12:07:04.000Z</Time>
            <Position>
              <LatitudeDegrees>43.10361586511135101318359375</LatitudeDegrees>
              <LongitudeDegrees>-1.94029717706143856048583984375</LongitudeDegrees>
            </Position>
            <AltitudeMeters>426.79998779296875</AltitudeMeters>
            <DistanceMeters>NAN</DistanceMeters>
          </Trackpoint>
          <Trackpoint>
            <Time>2021-08-13T12:07:07.000Z</Time>
            <Position>
              <LatitudeDegrees>43.10354319401085376739501953125</LatitudeDegrees>
              <LongitudeDegrees>-1.94046758115291595458984375</LongitudeDegrees>
            </Position>
            <AltitudeMeters>426.79998779296875</AltitudeMeters>
            <DistanceMeters>NAN</DistanceMeters>
          </Trackpoint>
          <Trackpoint>
            <Time>2021-08-13T12:07:11.000Z</Time>
            <Position>
              <LatitudeDegrees>43.10345266945660114288330078125</LatitudeDegrees>
              <LongitudeDegrees>-1.94065667688846588134765625</LongitudeDegrees>
            </Position>
            <AltitudeMeters>427</AltitudeMeters>
            <DistanceMeters>NAN</DistanceMeters>
          </Trackpoint>
          <Trackpoint>
            <Time>2021-08-13T12:07:17.000Z</Time>
            <Position>
              <LatitudeDegrees>43.10330783016979694366455078125</LatitudeDegrees>
              <LongitudeDegrees>-1.94098298437893390655517578125</LongitudeDegrees>
            </Position>
            <AltitudeMeters>427.600006103515625</AltitudeMeters>
            <DistanceMeters>NAN</DistanceMeters>
          </Trackpoint>
          <Trackpoint>
            <Time>2021-08-13T12:07:21.000Z</Time>
            <Position>
              <LatitudeDegrees>43.10322292149066925048828125</LatitudeDegrees>
              <LongitudeDegrees>-1.94111843593418598175048828125</LongitudeDegrees>
            </Position>
            <AltitudeMeters>427.79998779296875</AltitudeMeters>
            <DistanceMeters>NAN</DistanceMeters>
          </Trackpoint>
          <Trackpoint>
            <Time>2021-08-13T12:07:22.000Z</Time>
            <Position>
              <LatitudeDegrees>43.10319081880152225494384765625</LatitudeDegrees>
              <LongitudeDegrees>-1.94115933962166309356689453125</LongitudeDegrees>
            </Position>
            <AltitudeMeters>428</AltitudeMeters>
            <DistanceMeters>NAN</DistanceMeters>
          </Trackpoint>
          <Trackpoint>
            <Time>2021-08-13T12:07:27.000Z</Time>
            <Position>
              <LatitudeDegrees>43.10305687598884105682373046875</LatitudeDegrees>
              <LongitudeDegrees>-1.94135849364101886749267578125</LongitudeDegrees>
            </Position>
            <AltitudeMeters>428.600006103515625</AltitudeMeters>
            <DistanceMeters>NAN</DistanceMeters>
          </Trackpoint>
          <Trackpoint>
            <Time>2021-08-13T12:07:29.000Z</Time>
            <Position>
              <LatitudeDegrees>43.10301362536847591400146484375</LatitudeDegrees>
              <LongitudeDegrees>-1.94147701375186443328857421875</LongitudeDegrees>
            </Position>
            <AltitudeMeters>428.79998779296875</AltitudeMeters>
            <DistanceMeters>NAN</DistanceMeters>
          </Trackpoint>
          <Trackpoint>
            <Time>2021-08-13T12:07:33.000Z</Time>
            <Position>
              <LatitudeDegrees>43.1029441393911838531494140625</LatitudeDegrees>
              <LongitudeDegrees>-1.941729225218296051025390625</LongitudeDegrees>
            </Position>
            <AltitudeMeters>429</AltitudeMeters>
            <DistanceMeters>NAN</DistanceMeters>
          </Trackpoint>
          <Trackpoint>
            <Time>2021-08-13T12:07:37.000Z</Time>
            <Position>
              <LatitudeDegrees>43.10286845080554485321044921875</LatitudeDegrees>
              <LongitudeDegrees>-1.9419796764850616455078125</LongitudeDegrees>
            </Position>
            <AltitudeMeters>429.399993896484375</AltitudeMeters>
            <DistanceMeters>NAN</DistanceMeters>
          </Trackpoint>
          <Trackpoint>
            <Time>2021-08-13T12:07:40.000Z</Time>
            <Position>
              <LatitudeDegrees>43.1028091907501220703125</LatitudeDegrees>
              <LongitudeDegrees>-1.94216868840157985687255859375</LongitudeDegrees>
            </Position>
            <AltitudeMeters>429.79998779296875</AltitudeMeters>
            <DistanceMeters>NAN</DistanceMeters>
          </Trackpoint>
          <Trackpoint>
            <Time>2021-08-13T12:07:41.000Z</Time>
            <Position>
              <LatitudeDegrees>43.1027902476489543914794921875</LatitudeDegrees>
              <LongitudeDegrees>-1.942231468856334686279296875</LongitudeDegrees>
            </Position>
            <AltitudeMeters>429.79998779296875</AltitudeMeters>
            <DistanceMeters>NAN</DistanceMeters>
          </Trackpoint>
          <Trackpoint>
            <Time>2021-08-13T12:07:45.000Z</Time>
            <Position>
              <LatitudeDegrees>43.10269963927567005157470703125</LatitudeDegrees>
              <LongitudeDegrees>-1.942427270114421844482421875</LongitudeDegrees>
            </Position>
            <AltitudeMeters>430</AltitudeMeters>
            <DistanceMeters>NAN</DistanceMeters>
          </Trackpoint>
          <Trackpoint>
            <Time>2021-08-13T12:07:56.000Z</Time>
            <Position>
              <LatitudeDegrees>43.10242806561291217803955078125</LatitudeDegrees>
              <LongitudeDegrees>-1.9430255703628063201904296875</LongitudeDegrees>
            </Position>
            <AltitudeMeters>430.600006103515625</AltitudeMeters>
            <DistanceMeters>NAN</DistanceMeters>
          </Trackpoint>
          <Trackpoint>
            <Time>2021-08-13T12:08:01.000Z</Time>
            <Position>
              <LatitudeDegrees>43.10230636037886142730712890625</LatitudeDegrees>
              <LongitudeDegrees>-1.94330963306128978729248046875</LongitudeDegrees>
            </Position>
            <AltitudeMeters>430.79998779296875</AltitudeMeters>
            <DistanceMeters>NAN</DistanceMeters>
          </Trackpoint>
          <Trackpoint>
            <Time>2021-08-13T12:08:05.000Z</Time>
            <Position>
              <LatitudeDegrees>43.1021976470947265625</LatitudeDegrees>
              <LongitudeDegrees>-1.94354902021586894989013671875</LongitudeDegrees>
            </Position>
            <AltitudeMeters>431</AltitudeMeters>
            <DistanceMeters>NAN</DistanceMeters>
          </Trackpoint>
          <Trackpoint>
            <Time>2021-08-13T12:08:13.000Z</Time>
            <Position>
              <LatitudeDegrees>43.1019629538059234619140625</LatitudeDegrees>
              <LongitudeDegrees>-1.94402846507728099822998046875</LongitudeDegrees>
            </Position>
            <AltitudeMeters>432</AltitudeMeters>
            <DistanceMeters>NAN</DistanceMeters>
          </Trackpoint>
          <Trackpoint>
            <Time>2021-08-13T12:08:14.000Z</Time>
            <Position>
              <LatitudeDegrees>43.1019312702119350433349609375</LatitudeDegrees>
              <LongitudeDegrees>-1.94408780895173549652099609375</LongitudeDegrees>
            </Position>
            <AltitudeMeters>432.20001220703125</AltitudeMeters>
            <DistanceMeters>NAN</DistanceMeters>
          </Trackpoint>
          <Trackpoint>
            <Time>2021-08-13T12:08:16.000Z</Time>
            <Position>
              <LatitudeDegrees>43.10186044313013553619384765625</LatitudeDegrees>
              <LongitudeDegrees>-1.944197528064250946044921875</LongitudeDegrees>
            </Position>
            <AltitudeMeters>432.600006103515625</AltitudeMeters>
            <DistanceMeters>NAN</DistanceMeters>
          </Trackpoint>
          <Trackpoint>
            <Time>2021-08-13T12:08:20.000Z</Time>
            <Position>
              <LatitudeDegrees>43.10172398574650287628173828125</LatitudeDegrees>
              <LongitudeDegrees>-1.94439324550330638885498046875</LongitudeDegrees>
            </Position>
            <AltitudeMeters>433.20001220703125</AltitudeMeters>
            <DistanceMeters>NAN</DistanceMeters>
          </Trackpoint>
          <Trackpoint>
            <Time>2021-08-13T12:08:21.000Z</Time>
            <Position>
              <LatitudeDegrees>43.10170303098857402801513671875</LatitudeDegrees>
              <LongitudeDegrees>-1.94443465210497379302978515625</LongitudeDegrees>
            </Position>
            <AltitudeMeters>433.399993896484375</AltitudeMeters>
            <DistanceMeters>NAN</DistanceMeters>
          </Trackpoint>
          <Trackpoint>
            <Time>2021-08-13T12:08:22.000Z</Time>
            <Position>
              <LatitudeDegrees>43.101680316030979156494140625</LatitudeDegrees>
              <LongitudeDegrees>-1.944471113383769989013671875</LongitudeDegrees>
            </Position>
            <AltitudeMeters>433.399993896484375</AltitudeMeters>
            <DistanceMeters>NAN</DistanceMeters>
          </Trackpoint>
          <Trackpoint>
            <Time>2021-08-13T12:08:23.000Z</Time>
            <Position>
              <LatitudeDegrees>43.1016550026834011077880859375</LatitudeDegrees>
              <LongitudeDegrees>-1.94451126269996166229248046875</LongitudeDegrees>
            </Position>
            <AltitudeMeters>433.399993896484375</AltitudeMeters>
            <DistanceMeters>NAN</DistanceMeters>
          </Trackpoint>
          <Trackpoint>
            <Time>2021-08-13T12:08:24.000Z</Time>
            <Position>
              <LatitudeDegrees>43.101630024611949920654296875</LatitudeDegrees>
              <LongitudeDegrees>-1.94455049000680446624755859375</LongitudeDegrees>
            </Position>
            <AltitudeMeters>433.600006103515625</AltitudeMeters>
            <DistanceMeters>NAN</DistanceMeters>
          </Trackpoint>
          <Trackpoint>
            <Time>2021-08-13T12:08:25.000Z</Time>
            <Position>
              <LatitudeDegrees>43.1016070581972599029541015625</LatitudeDegrees>
              <LongitudeDegrees>-1.94458971731364727020263671875</LongitudeDegrees>
            </Position>
            <AltitudeMeters>433.600006103515625</AltitudeMeters>
            <DistanceMeters>NAN</DistanceMeters>
          </Trackpoint>
          <Trackpoint>
            <Time>2021-08-13T12:08:26.000Z</Time>
            <Position>
              <LatitudeDegrees>43.101579062640666961669921875</LatitudeDegrees>
              <LongitudeDegrees>-1.944621317088603973388671875</LongitudeDegrees>
            </Position>
            <AltitudeMeters>433.600006103515625</AltitudeMeters>
            <DistanceMeters>NAN</DistanceMeters>
          </Trackpoint>
          <Trackpoint>
            <Time>2021-08-13T12:08:27.000Z</Time>
            <Position>
              <LatitudeDegrees>43.1015400029718875885009765625</LatitudeDegrees>
              <LongitudeDegrees>-1.94464487023651599884033203125</LongitudeDegrees>
            </Position>
            <AltitudeMeters>433.79998779296875</AltitudeMeters>
            <DistanceMeters>NAN</DistanceMeters>
          </Trackpoint>
          <Trackpoint>
            <Time>2021-08-13T12:08:28.000Z</Time>
            <Position>
              <LatitudeDegrees>43.1015024520456790924072265625</LatitudeDegrees>
              <LongitudeDegrees>-1.94466850720345973968505859375</LongitudeDegrees>
            </Position>
            <AltitudeMeters>434</AltitudeMeters>
            <DistanceMeters>NAN</DistanceMeters>
          </Trackpoint>
          <Trackpoint>
            <Time>2021-08-13T12:08:29.000Z</Time>
            <Position>
              <LatitudeDegrees>43.10146967880427837371826171875</LatitudeDegrees>
              <LongitudeDegrees>-1.94468937814235687255859375</LongitudeDegrees>
            </Position>
            <AltitudeMeters>434</AltitudeMeters>
            <DistanceMeters>NAN</DistanceMeters>
          </Trackpoint>
          <Trackpoint>
            <Time>2021-08-13T12:08:30.000Z</Time>
            <Position>
              <LatitudeDegrees>43.10144118033349514007568359375</LatitudeDegrees>
              <LongitudeDegrees>-1.9447076506912708282470703125</LongitudeDegrees>
            </Position>
            <AltitudeMeters>434.20001220703125</AltitudeMeters>
            <DistanceMeters>NAN</DistanceMeters>
          </Trackpoint>
          <Trackpoint>
            <Time>2021-08-13T12:08:31.000Z</Time>
            <Position>
              <LatitudeDegrees>43.1014077365398406982421875</LatitudeDegrees>
              <LongitudeDegrees>-1.944727934896945953369140625</LongitudeDegrees>
            </Position>
            <AltitudeMeters>434.399993896484375</AltitudeMeters>
            <DistanceMeters>NAN</DistanceMeters>
          </Trackpoint>
          <Trackpoint>
            <Time>2021-08-13T12:08:32.000Z</Time>
            <Position>
              <LatitudeDegrees>43.10137446038424968719482421875</LatitudeDegrees>
              <LongitudeDegrees>-1.94475366733968257904052734375</LongitudeDegrees>
            </Position>
            <AltitudeMeters>434.600006103515625</AltitudeMeters>
            <DistanceMeters>NAN</DistanceMeters>
          </Trackpoint>
          <Trackpoint>
            <Time>2021-08-13T12:08:33.000Z</Time>
            <Position>
              <LatitudeDegrees>43.10134244151413440704345703125</LatitudeDegrees>
              <LongitudeDegrees>-1.94478183053433895111083984375</LongitudeDegrees>
            </Position>
            <AltitudeMeters>434.600006103515625</AltitudeMeters>
            <DistanceMeters>NAN</DistanceMeters>
          </Trackpoint>
          <Trackpoint>
            <Time>2021-08-13T12:08:34.000Z</Time>
            <Position>
              <LatitudeDegrees>43.10130790807306766510009765625</LatitudeDegrees>
              <LongitudeDegrees>-1.94481275975704193115234375</LongitudeDegrees>
            </Position>
            <AltitudeMeters>434.79998779296875</AltitudeMeters>
            <DistanceMeters>NAN</DistanceMeters>
          </Trackpoint>
          <Trackpoint>
            <Time>2021-08-13T12:08:35.000Z</Time>
            <Position>
              <LatitudeDegrees>43.1012717820703983306884765625</LatitudeDegrees>
              <LongitudeDegrees>-1.944838576018810272216796875</LongitudeDegrees>
            </Position>
            <AltitudeMeters>435</AltitudeMeters>
            <DistanceMeters>NAN</DistanceMeters>
          </Trackpoint>
          <Trackpoint>
            <Time>2021-08-13T12:08:36.000Z</Time>
            <Position>
              <LatitudeDegrees>43.10123406350612640380859375</LatitudeDegrees>
              <LongitudeDegrees>-1.94485743530094623565673828125</LongitudeDegrees>
            </Position>
            <AltitudeMeters>435</AltitudeMeters>
            <DistanceMeters>NAN</DistanceMeters>
          </Trackpoint>
          <Trackpoint>
            <Time>2021-08-13T12:08:37.000Z</Time>
            <Position>
              <LatitudeDegrees>43.1011929921805858612060546875</LatitudeDegrees>
              <LongitudeDegrees>-1.9448752887547016143798828125</LongitudeDegrees>
            </Position>
            <AltitudeMeters>435.20001220703125</AltitudeMeters>
            <DistanceMeters>NAN</DistanceMeters>
          </Trackpoint>
          <Trackpoint>
            <Time>2021-08-13T12:08:38.000Z</Time>
            <Position>
              <LatitudeDegrees>43.10114848427474498748779296875</LatitudeDegrees>
              <LongitudeDegrees>-1.94488693960011005401611328125</LongitudeDegrees>
            </Position>
            <AltitudeMeters>435.20001220703125</AltitudeMeters>
            <DistanceMeters>NAN</DistanceMeters>
          </Trackpoint>
          <Trackpoint>
            <Time>2021-08-13T12:08:39.000Z</Time>
            <Position>
              <LatitudeDegrees>43.10111344791948795318603515625</LatitudeDegrees>
              <LongitudeDegrees>-1.944902278482913970947265625</LongitudeDegrees>
            </Position>
            <AltitudeMeters>435.20001220703125</AltitudeMeters>
            <DistanceMeters>NAN</DistanceMeters>
          </Trackpoint>
          <Trackpoint>
            <Time>2021-08-13T12:08:40.000Z</Time>
            <Position>
              <LatitudeDegrees>43.10107447206974029541015625</LatitudeDegrees>
              <LongitudeDegrees>-1.944913007318973541259765625</LongitudeDegrees>
            </Position>
            <AltitudeMeters>435.399993896484375</AltitudeMeters>
            <DistanceMeters>NAN</DistanceMeters>
          </Trackpoint>
          <Trackpoint>
            <Time>2021-08-13T12:08:41.000Z</Time>
            <Position>
              <LatitudeDegrees>43.10102862305939197540283203125</LatitudeDegrees>
              <LongitudeDegrees>-1.94493253715336322784423828125</LongitudeDegrees>
            </Position>
            <AltitudeMeters>435.399993896484375</AltitudeMeters>
            <DistanceMeters>NAN</DistanceMeters>
          </Trackpoint>
          <Trackpoint>
            <Time>2021-08-13T12:08:42.000Z</Time>
            <Position>
              <LatitudeDegrees>43.100989647209644317626953125</LatitudeDegrees>
              <LongitudeDegrees>-1.944945193827152252197265625</LongitudeDegrees>
            </Position>
            <AltitudeMeters>435.600006103515625</AltitudeMeters>
            <DistanceMeters>NAN</DistanceMeters>
          </Trackpoint>
          <Trackpoint>
            <Time>2021-08-13T12:08:43.000Z</Time>
            <Position>
              <LatitudeDegrees>43.10094396583735942840576171875</LatitudeDegrees>
              <LongitudeDegrees>-1.9449554197490215301513671875</LongitudeDegrees>
            </Position>
            <AltitudeMeters>435.600006103515625</AltitudeMeters>
            <DistanceMeters>NAN</DistanceMeters>
          </Trackpoint>
          <Trackpoint>
            <Time>2021-08-13T12:08:44.000Z</Time>
            <Position>
              <LatitudeDegrees>43.10089518316090106964111328125</LatitudeDegrees>
              <LongitudeDegrees>-1.94497662596404552459716796875</LongitudeDegrees>
            </Position>
            <AltitudeMeters>435.600006103515625</AltitudeMeters>
            <DistanceMeters>NAN</DistanceMeters>
          </Trackpoint>
          <Trackpoint>
            <Time>2021-08-13T12:08:45.000Z</Time>
            <Position>
              <LatitudeDegrees>43.10084514319896697998046875</LatitudeDegrees>
              <LongitudeDegrees>-1.94499389268457889556884765625</LongitudeDegrees>
            </Position>
            <AltitudeMeters>435.600006103515625</AltitudeMeters>
            <DistanceMeters>NAN</DistanceMeters>
          </Trackpoint>
          <Trackpoint>
            <Time>2021-08-13T12:08:46.000Z</Time>
            <Position>
              <LatitudeDegrees>43.10079761780798435211181640625</LatitudeDegrees>
              <LongitudeDegrees>-1.94501928985118865966796875</LongitudeDegrees>
            </Position>
            <AltitudeMeters>435.79998779296875</AltitudeMeters>
            <DistanceMeters>NAN</DistanceMeters>
          </Trackpoint>
          <Trackpoint>
            <Time>2021-08-13T12:08:47.000Z</Time>
            <Position>
              <LatitudeDegrees>43.1007504276931285858154296875</LatitudeDegrees>
              <LongitudeDegrees>-1.9450342096388339996337890625</LongitudeDegrees>
            </Position>
            <AltitudeMeters>435.79998779296875</AltitudeMeters>
            <DistanceMeters>NAN</DistanceMeters>
          </Trackpoint>
          <Trackpoint>
            <Time>2021-08-13T12:08:48.000Z</Time>
            <Position>
              <LatitudeDegrees>43.100707344710826873779296875</LatitudeDegrees>
              <LongitudeDegrees>-1.94504066370427608489990234375</LongitudeDegrees>
            </Position>
            <AltitudeMeters>436</AltitudeMeters>
            <DistanceMeters>NAN</DistanceMeters>
          </Trackpoint>
          <Trackpoint>
            <Time>2021-08-13T12:08:49.000Z</Time>
            <Position>
              <LatitudeDegrees>43.10066149570047855377197265625</LatitudeDegrees>
              <LongitudeDegrees>-1.945048458874225616455078125</LongitudeDegrees>
            </Position>
            <AltitudeMeters>436</AltitudeMeters>
            <DistanceMeters>NAN</DistanceMeters>
          </Trackpoint>
          <Trackpoint>
            <Time>2021-08-13T12:08:50.000Z</Time>
            <Position>
              <LatitudeDegrees>43.1006149761378765106201171875</LatitudeDegrees>
              <LongitudeDegrees>-1.94506295956671237945556640625</LongitudeDegrees>
            </Position>
            <AltitudeMeters>436</AltitudeMeters>
            <DistanceMeters>NAN</DistanceMeters>
          </Trackpoint>
          <Trackpoint>
            <Time>2021-08-13T12:08:51.000Z</Time>
            <Position>
              <LatitudeDegrees>43.1005687080323696136474609375</LatitudeDegrees>
              <LongitudeDegrees>-1.9450737722218036651611328125</LongitudeDegrees>
            </Position>
            <AltitudeMeters>436</AltitudeMeters>
            <DistanceMeters>NAN</DistanceMeters>
          </Trackpoint>
          <Trackpoint>
            <Time>2021-08-13T12:08:55.000Z</Time>
            <Position>
              <LatitudeDegrees>43.10039193369448184967041015625</LatitudeDegrees>
              <LongitudeDegrees>-1.9451151788234710693359375</LongitudeDegrees>
            </Position>
            <AltitudeMeters>436.20001220703125</AltitudeMeters>
            <DistanceMeters>NAN</DistanceMeters>
          </Trackpoint>
          <Trackpoint>
            <Time>2021-08-13T12:08:57.000Z</Time>
            <Position>
              <LatitudeDegrees>43.1002954579889774322509765625</LatitudeDegrees>
              <LongitudeDegrees>-1.94514191709458827972412109375</LongitudeDegrees>
            </Position>
            <AltitudeMeters>436.399993896484375</AltitudeMeters>
            <DistanceMeters>NAN</DistanceMeters>
          </Trackpoint>
          <Trackpoint>
            <Time>2021-08-13T12:08:58.000Z</Time>
            <Position>
              <LatitudeDegrees>43.1002508662641048431396484375</LatitudeDegrees>
              <LongitudeDegrees>-1.94514409638941287994384765625</LongitudeDegrees>
            </Position>
            <AltitudeMeters>436.399993896484375</AltitudeMeters>
            <DistanceMeters>NAN</DistanceMeters>
          </Trackpoint>
          <Trackpoint>
            <Time>2021-08-13T12:08:59.000Z</Time>
            <Position>
              <LatitudeDegrees>43.1002039276063442230224609375</LatitudeDegrees>
              <LongitudeDegrees>-1.945159770548343658447265625</LongitudeDegrees>
            </Position>
            <AltitudeMeters>436.399993896484375</AltitudeMeters>
            <DistanceMeters>NAN</DistanceMeters>
          </Trackpoint>
          <Trackpoint>
            <Time>2021-08-13T12:09:00.000Z</Time>
            <Position>
              <LatitudeDegrees>43.100160174071788787841796875</LatitudeDegrees>
              <LongitudeDegrees>-1.94517544470727443695068359375</LongitudeDegrees>
            </Position>
            <AltitudeMeters>436.399993896484375</AltitudeMeters>
            <DistanceMeters>NAN</DistanceMeters>
          </Trackpoint>
          <Trackpoint>
            <Time>2021-08-13T12:09:02.000Z</Time>
            <Position>
              <LatitudeDegrees>43.1000785343348979949951171875</LatitudeDegrees>
              <LongitudeDegrees>-1.94519556127488613128662109375</LongitudeDegrees>
            </Position>
            <AltitudeMeters>436.600006103515625</AltitudeMeters>
            <DistanceMeters>NAN</DistanceMeters>
          </Trackpoint>
          <Trackpoint>
            <Time>2021-08-13T12:09:04.000Z</Time>
            <Position>
              <LatitudeDegrees>43.09999111108481884002685546875</LatitudeDegrees>
              <LongitudeDegrees>-1.945217438042163848876953125</LongitudeDegrees>
            </Position>
            <AltitudeMeters>436.79998779296875</AltitudeMeters>
            <DistanceMeters>NAN</DistanceMeters>
          </Trackpoint>
          <Trackpoint>
            <Time>2021-08-13T12:09:06.000Z</Time>
            <Position>
              <LatitudeDegrees>43.0999068729579448699951171875</LatitudeDegrees>
              <LongitudeDegrees>-1.945231519639492034912109375</LongitudeDegrees>
            </Position>
            <AltitudeMeters>437</AltitudeMeters>
            <DistanceMeters>NAN</DistanceMeters>
          </Trackpoint>
          <Trackpoint>
            <Time>2021-08-13T12:09:07.000Z</Time>
            <Position>
              <LatitudeDegrees>43.099865801632404327392578125</LatitudeDegrees>
              <LongitudeDegrees>-1.945232190191745758056640625</LongitudeDegrees>
            </Position>
            <AltitudeMeters>437.399993896484375</AltitudeMeters>
            <DistanceMeters>NAN</DistanceMeters>
          </Trackpoint>
          <Trackpoint>
            <Time>2021-08-13T12:09:10.000Z</Time>
            <Position>
              <LatitudeDegrees>43.09972557239234447479248046875</LatitudeDegrees>
              <LongitudeDegrees>-1.9452548213303089141845703125</LongitudeDegrees>
            </Position>
            <AltitudeMeters>438</AltitudeMeters>
            <DistanceMeters>NAN</DistanceMeters>
          </Trackpoint>
          <Trackpoint>
            <Time>2021-08-13T12:09:11.000Z</Time>
            <Position>
              <LatitudeDegrees>43.0996768735349178314208984375</LatitudeDegrees>
              <LongitudeDegrees>-1.9452665559947490692138671875</LongitudeDegrees>
            </Position>
            <AltitudeMeters>438.20001220703125</AltitudeMeters>
            <DistanceMeters>NAN</DistanceMeters>
          </Trackpoint>
          <Trackpoint>
            <Time>2021-08-13T12:09:18.000Z</Time>
            <Position>
              <LatitudeDegrees>43.09933899901807308197021484375</LatitudeDegrees>
              <LongitudeDegrees>-1.94534475915133953094482421875</LongitudeDegrees>
            </Position>
            <AltitudeMeters>438.600006103515625</AltitudeMeters>
            <DistanceMeters>NAN</DistanceMeters>
          </Trackpoint>
          <Trackpoint>
            <Time>2021-08-13T12:09:19.000Z</Time>
            <Position>
              <LatitudeDegrees>43.099287785589694976806640625</LatitudeDegrees>
              <LongitudeDegrees>-1.94535783492028713226318359375</LongitudeDegrees>
            </Position>
            <AltitudeMeters>438.79998779296875</AltitudeMeters>
            <DistanceMeters>NAN</DistanceMeters>
          </Trackpoint>
          <Trackpoint>
            <Time>2021-08-13T12:09:20.000Z</Time>
            <Position>
              <LatitudeDegrees>43.09923774562776088714599609375</LatitudeDegrees>
              <LongitudeDegrees>-1.94537124596536159515380859375</LongitudeDegrees>
            </Position>
            <AltitudeMeters>438.79998779296875</AltitudeMeters>
            <DistanceMeters>NAN</DistanceMeters>
          </Trackpoint>
          <Trackpoint>
            <Time>2021-08-13T12:09:21.000Z</Time>
            <Position>
              <LatitudeDegrees>43.0991890467703342437744140625</LatitudeDegrees>
              <LongitudeDegrees>-1.9453855790197849273681640625</LongitudeDegrees>
            </Position>
            <AltitudeMeters>439</AltitudeMeters>
            <DistanceMeters>NAN</DistanceMeters>
          </Trackpoint>
          <Trackpoint>
            <Time>2021-08-13T12:09:22.000Z</Time>
            <Position>
              <LatitudeDegrees>43.099139593541622161865234375</LatitudeDegrees>
              <LongitudeDegrees>-1.94540016353130340576171875</LongitudeDegrees>
            </Position>
            <AltitudeMeters>439</AltitudeMeters>
            <DistanceMeters>NAN</DistanceMeters>
          </Trackpoint>
          <Trackpoint>
            <Time>2021-08-13T12:09:23.000Z</Time>
            <Position>
              <LatitudeDegrees>43.09909223578870296478271484375</LatitudeDegrees>
              <LongitudeDegrees>-1.94541080854833126068115234375</LongitudeDegrees>
            </Position>
            <AltitudeMeters>439</AltitudeMeters>
            <DistanceMeters>NAN</DistanceMeters>
          </Trackpoint>
          <Trackpoint>
            <Time>2021-08-13T12:09:24.000Z</Time>
            <Position>
              <LatitudeDegrees>43.09904403984546661376953125</LatitudeDegrees>
              <LongitudeDegrees>-1.94542086683213710784912109375</LongitudeDegrees>
            </Position>
            <AltitudeMeters>439.20001220703125</AltitudeMeters>
            <DistanceMeters>NAN</DistanceMeters>
          </Trackpoint>
          <Trackpoint>
            <Time>2021-08-13T12:09:25.000Z</Time>
            <Position>
              <LatitudeDegrees>43.09899500571191310882568359375</LatitudeDegrees>
              <LongitudeDegrees>-1.94543503224849700927734375</LongitudeDegrees>
            </Position>
            <AltitudeMeters>439.20001220703125</AltitudeMeters>
            <DistanceMeters>NAN</DistanceMeters>
          </Trackpoint>
          <Trackpoint>
            <Time>2021-08-13T12:09:26.000Z</Time>
            <Position>
              <LatitudeDegrees>43.09894437901675701141357421875</LatitudeDegrees>
              <LongitudeDegrees>-1.9454499520361423492431640625</LongitudeDegrees>
            </Position>
            <AltitudeMeters>439.399993896484375</AltitudeMeters>
            <DistanceMeters>NAN</DistanceMeters>
          </Trackpoint>
          <Trackpoint>
            <Time>2021-08-13T12:09:27.000Z</Time>
            <Position>
              <LatitudeDegrees>43.09889324940741062164306640625</LatitudeDegrees>
              <LongitudeDegrees>-1.94546512328088283538818359375</LongitudeDegrees>
            </Position>
            <AltitudeMeters>439.399993896484375</AltitudeMeters>
            <DistanceMeters>NAN</DistanceMeters>
          </Trackpoint>
          <Trackpoint>
            <Time>2021-08-13T12:09:29.000Z</Time>
            <Position>
              <LatitudeDegrees>43.09879803098738193511962890625</LatitudeDegrees>
              <LongitudeDegrees>-1.94548155181109905242919921875</LongitudeDegrees>
            </Position>
            <AltitudeMeters>439.600006103515625</AltitudeMeters>
            <DistanceMeters>NAN</DistanceMeters>
          </Trackpoint>
          <Trackpoint>
            <Time>2021-08-13T12:09:30.000Z</Time>
            <Position>
              <LatitudeDegrees>43.098752684891223907470703125</LatitudeDegrees>
              <LongitudeDegrees>-1.94548892788589000701904296875</LongitudeDegrees>
            </Position>
            <AltitudeMeters>439.600006103515625</AltitudeMeters>
            <DistanceMeters>NAN</DistanceMeters>
          </Trackpoint>
          <Trackpoint>
            <Time>2021-08-13T12:09:31.000Z</Time>
            <Position>
              <LatitudeDegrees>43.0987059138715267181396484375</LatitudeDegrees>
              <LongitudeDegrees>-1.9454985670745372772216796875</LongitudeDegrees>
            </Position>
            <AltitudeMeters>439.79998779296875</AltitudeMeters>
            <DistanceMeters>NAN</DistanceMeters>
          </Trackpoint>
          <Trackpoint>
            <Time>2021-08-13T12:09:34.000Z</Time>
            <Position>
              <LatitudeDegrees>43.09856660664081573486328125</LatitudeDegrees>
              <LongitudeDegrees>-1.94554592482745647430419921875</LongitudeDegrees>
            </Position>
            <AltitudeMeters>440</AltitudeMeters>
            <DistanceMeters>NAN</DistanceMeters>
          </Trackpoint>
          <Trackpoint>
            <Time>2021-08-13T12:09:36.000Z</Time>
            <Position>
              <LatitudeDegrees>43.09847298078238964080810546875</LatitudeDegrees>
              <LongitudeDegrees>-1.94556302390992641448974609375</LongitudeDegrees>
            </Position>
            <AltitudeMeters>440.399993896484375</AltitudeMeters>
            <DistanceMeters>NAN</DistanceMeters>
          </Trackpoint>
          <Trackpoint>
            <Time>2021-08-13T12:09:40.000Z</Time>
            <Position>
              <LatitudeDegrees>43.0982905067503452301025390625</LatitudeDegrees>
              <LongitudeDegrees>-1.9455833919346332550048828125</LongitudeDegrees>
            </Position>
            <AltitudeMeters>441.20001220703125</AltitudeMeters>
            <DistanceMeters>NAN</DistanceMeters>
          </Trackpoint>
          <Trackpoint>
            <Time>2021-08-13T12:09:41.000Z</Time>
            <Position>
              <LatitudeDegrees>43.0982387065887451171875</LatitudeDegrees>
              <LongitudeDegrees>-1.94558649323880672454833984375</LongitudeDegrees>
            </Position>
            <AltitudeMeters>441.20001220703125</AltitudeMeters>
            <DistanceMeters>NAN</DistanceMeters>
          </Trackpoint>
          <Trackpoint>
            <Time>2021-08-13T12:09:42.000Z</Time>
            <Position>
              <LatitudeDegrees>43.098191432654857635498046875</LatitudeDegrees>
              <LongitudeDegrees>-1.94558389484882354736328125</LongitudeDegrees>
            </Position>
            <AltitudeMeters>441.20001220703125</AltitudeMeters>
            <DistanceMeters>NAN</DistanceMeters>
          </Trackpoint>
          <Trackpoint>
            <Time>2021-08-13T12:09:43.000Z</Time>
            <Position>
              <LatitudeDegrees>43.09814357198774814605712890625</LatitudeDegrees>
              <LongitudeDegrees>-1.9455820508301258087158203125</LongitudeDegrees>
            </Position>
            <AltitudeMeters>441.399993896484375</AltitudeMeters>
            <DistanceMeters>NAN</DistanceMeters>
          </Trackpoint>
          <Trackpoint>
            <Time>2021-08-13T12:09:44.000Z</Time>
            <Position>
              <LatitudeDegrees>43.09809495694935321807861328125</LatitudeDegrees>
              <LongitudeDegrees>-1.94557827897369861602783203125</LongitudeDegrees>
            </Position>
            <AltitudeMeters>441.399993896484375</AltitudeMeters>
            <DistanceMeters>NAN</DistanceMeters>
          </Trackpoint>
          <Trackpoint>
            <Time>2021-08-13T12:09:45.000Z</Time>
            <Position>
              <LatitudeDegrees>43.098045922815799713134765625</LatitudeDegrees>
              <LongitudeDegrees>-1.945573501288890838623046875</LongitudeDegrees>
            </Position>
            <AltitudeMeters>441.600006103515625</AltitudeMeters>
            <DistanceMeters>NAN</DistanceMeters>
          </Trackpoint>
          <Trackpoint>
            <Time>2021-08-13T12:09:46.000Z</Time>
            <Position>
              <LatitudeDegrees>43.0979959666728973388671875</LatitudeDegrees>
              <LongitudeDegrees>-1.94557090289890766143798828125</LongitudeDegrees>
            </Position>
            <AltitudeMeters>441.79998779296875</AltitudeMeters>
            <DistanceMeters>NAN</DistanceMeters>
          </Trackpoint>
          <Trackpoint>
            <Time>2021-08-13T12:09:47.000Z</Time>
            <Position>
              <LatitudeDegrees>43.09794760309159755706787109375</LatitudeDegrees>
              <LongitudeDegrees>-1.94556436501443386077880859375</LongitudeDegrees>
            </Position>
            <AltitudeMeters>441.79998779296875</AltitudeMeters>
            <DistanceMeters>NAN</DistanceMeters>
          </Trackpoint>
          <Trackpoint>
            <Time>2021-08-13T12:09:48.000Z</Time>
            <Position>
              <LatitudeDegrees>43.097899742424488067626953125</LatitudeDegrees>
              <LongitudeDegrees>-1.94555212743580341339111328125</LongitudeDegrees>
            </Position>
            <AltitudeMeters>442</AltitudeMeters>
            <DistanceMeters>NAN</DistanceMeters>
          </Trackpoint>
          <Trackpoint>
            <Time>2021-08-13T12:09:49.000Z</Time>
            <Position>
              <LatitudeDegrees>43.0978499539196491241455078125</LatitudeDegrees>
              <LongitudeDegrees>-1.94553955458104610443115234375</LongitudeDegrees>
            </Position>
            <AltitudeMeters>442</AltitudeMeters>
            <DistanceMeters>NAN</DistanceMeters>
          </Trackpoint>
          <Trackpoint>
            <Time>2021-08-13T12:09:50.000Z</Time>
            <Position>
              <LatitudeDegrees>43.0977974832057952880859375</LatitudeDegrees>
              <LongitudeDegrees>-1.94552530534565448760986328125</LongitudeDegrees>
            </Position>
            <AltitudeMeters>442</AltitudeMeters>
            <DistanceMeters>NAN</DistanceMeters>
          </Trackpoint>
          <Trackpoint>
            <Time>2021-08-13T12:09:51.000Z</Time>
            <Position>
              <LatitudeDegrees>43.09774794615805149078369140625</LatitudeDegrees>
              <LongitudeDegrees>-1.94550870917737483978271484375</LongitudeDegrees>
            </Position>
            <AltitudeMeters>442.20001220703125</AltitudeMeters>
            <DistanceMeters>NAN</DistanceMeters>
          </Trackpoint>
          <Trackpoint>
            <Time>2021-08-13T12:09:52.000Z</Time>
            <Position>
              <LatitudeDegrees>43.09769799001514911651611328125</LatitudeDegrees>
              <LongitudeDegrees>-1.9454932026565074920654296875</LongitudeDegrees>
            </Position>
            <AltitudeMeters>442.399993896484375</AltitudeMeters>
            <DistanceMeters>NAN</DistanceMeters>
          </Trackpoint>
          <Trackpoint>
            <Time>2021-08-13T12:09:53.000Z</Time>
            <Position>
              <LatitudeDegrees>43.0976497940719127655029296875</LatitudeDegrees>
              <LongitudeDegrees>-1.945476941764354705810546875</LongitudeDegrees>
            </Position>
            <AltitudeMeters>442.399993896484375</AltitudeMeters>
            <DistanceMeters>NAN</DistanceMeters>
          </Trackpoint>
          <Trackpoint>
            <Time>2021-08-13T12:09:54.000Z</Time>
            <Position>
              <LatitudeDegrees>43.097602687776088714599609375</LatitudeDegrees>
              <LongitudeDegrees>-1.9454585015773773193359375</LongitudeDegrees>
            </Position>
            <AltitudeMeters>442.600006103515625</AltitudeMeters>
            <DistanceMeters>NAN</DistanceMeters>
          </Trackpoint>
          <Trackpoint>
            <Time>2021-08-13T12:09:55.000Z</Time>
            <Position>
              <LatitudeDegrees>43.0975535698235034942626953125</LatitudeDegrees>
              <LongitudeDegrees>-1.9454385526478290557861328125</LongitudeDegrees>
            </Position>
            <AltitudeMeters>442.600006103515625</AltitudeMeters>
            <DistanceMeters>NAN</DistanceMeters>
          </Trackpoint>
          <Trackpoint>
            <Time>2021-08-13T12:09:56.000Z</Time>
            <Position>
              <LatitudeDegrees>43.0975026078522205352783203125</LatitudeDegrees>
              <LongitudeDegrees>-1.945419274270534515380859375</LongitudeDegrees>
            </Position>
            <AltitudeMeters>442.600006103515625</AltitudeMeters>
            <DistanceMeters>NAN</DistanceMeters>
          </Trackpoint>
          <Trackpoint>
            <Time>2021-08-13T12:09:57.000Z</Time>
            <Position>
              <LatitudeDegrees>43.09745307080447673797607421875</LatitudeDegrees>
              <LongitudeDegrees>-1.945399157702922821044921875</LongitudeDegrees>
            </Position>
            <AltitudeMeters>442.79998779296875</AltitudeMeters>
            <DistanceMeters>NAN</DistanceMeters>
          </Trackpoint>
          <Trackpoint>
            <Time>2021-08-13T12:09:58.000Z</Time>
            <Position>
              <LatitudeDegrees>43.0974043719470500946044921875</LatitudeDegrees>
              <LongitudeDegrees>-1.94537694565951824188232421875</LongitudeDegrees>
            </Position>
            <AltitudeMeters>442.79998779296875</AltitudeMeters>
            <DistanceMeters>NAN</DistanceMeters>
          </Trackpoint>
          <Trackpoint>
            <Time>2021-08-13T12:09:59.000Z</Time>
            <Position>
              <LatitudeDegrees>43.0973570980131626129150390625</LatitudeDegrees>
              <LongitudeDegrees>-1.945351548492908477783203125</LongitudeDegrees>
            </Position>
            <AltitudeMeters>443</AltitudeMeters>
            <DistanceMeters>NAN</DistanceMeters>
          </Trackpoint>
          <Trackpoint>
            <Time>2021-08-13T12:10:00.000Z</Time>
            <Position>
              <LatitudeDegrees>43.09730923734605312347412109375</LatitudeDegrees>
              <LongitudeDegrees>-1.9453235529363155364990234375</LongitudeDegrees>
            </Position>
            <AltitudeMeters>443</AltitudeMeters>
            <DistanceMeters>NAN</DistanceMeters>
          </Trackpoint>
          <Trackpoint>
            <Time>2021-08-13T12:10:01.000Z</Time>
            <Position>
              <LatitudeDegrees>43.09726229868829250335693359375</LatitudeDegrees>
              <LongitudeDegrees>-1.94529597647488117218017578125</LongitudeDegrees>
            </Position>
            <AltitudeMeters>443</AltitudeMeters>
            <DistanceMeters>NAN</DistanceMeters>
          </Trackpoint>
          <Trackpoint>
            <Time>2021-08-13T12:10:05.000Z</Time>
            <Position>
              <LatitudeDegrees>43.09708066284656524658203125</LatitudeDegrees>
              <LongitudeDegrees>-1.9451763667166233062744140625</LongitudeDegrees>
            </Position>
            <AltitudeMeters>443.399993896484375</AltitudeMeters>
            <DistanceMeters>NAN</DistanceMeters>
          </Trackpoint>
          <Trackpoint>
            <Time>2021-08-13T12:10:07.000Z</Time>
            <Position>
              <LatitudeDegrees>43.09699709527194499969482421875</LatitudeDegrees>
              <LongitudeDegrees>-1.94509983994066715240478515625</LongitudeDegrees>
            </Position>
            <AltitudeMeters>443.600006103515625</AltitudeMeters>
            <DistanceMeters>NAN</DistanceMeters>
          </Trackpoint>
          <Trackpoint>
            <Time>2021-08-13T12:10:13.000Z</Time>
            <Position>
              <LatitudeDegrees>43.096760474145412445068359375</LatitudeDegrees>
              <LongitudeDegrees>-1.9448441080749034881591796875</LongitudeDegrees>
            </Position>
            <AltitudeMeters>444.600006103515625</AltitudeMeters>
            <DistanceMeters>NAN</DistanceMeters>
          </Trackpoint>
          <Trackpoint>
            <Time>2021-08-13T12:10:15.000Z</Time>
            <Position>
              <LatitudeDegrees>43.09668461792171001434326171875</LatitudeDegrees>
              <LongitudeDegrees>-1.94475551135838031768798828125</LongitudeDegrees>
            </Position>
            <AltitudeMeters>444.79998779296875</AltitudeMeters>
            <DistanceMeters>NAN</DistanceMeters>
          </Trackpoint>
          <Trackpoint>
            <Time>2021-08-13T12:10:18.000Z</Time>
            <Position>
              <LatitudeDegrees>43.09659107588231563568115234375</LatitudeDegrees>
              <LongitudeDegrees>-1.94462643004953861236572265625</LongitudeDegrees>
            </Position>
            <AltitudeMeters>444.79998779296875</AltitudeMeters>
            <DistanceMeters>NAN</DistanceMeters>
          </Trackpoint>
          <Trackpoint>
            <Time>2021-08-13T12:10:19.000Z</Time>
            <Position>
              <LatitudeDegrees>43.09656509198248386383056640625</LatitudeDegrees>
              <LongitudeDegrees>-1.94458720274269580841064453125</LongitudeDegrees>
            </Position>
            <AltitudeMeters>444.79998779296875</AltitudeMeters>
            <DistanceMeters>NAN</DistanceMeters>
          </Trackpoint>
          <Trackpoint>
            <Time>2021-08-13T12:10:20.000Z</Time>
            <Position>
              <LatitudeDegrees>43.0965393595397472381591796875</LatitudeDegrees>
              <LongitudeDegrees>-1.94455233402550220489501953125</LongitudeDegrees>
            </Position>
            <AltitudeMeters>445</AltitudeMeters>
            <DistanceMeters>NAN</DistanceMeters>
          </Trackpoint>
          <Trackpoint>
            <Time>2021-08-13T12:10:21.000Z</Time>
            <Position>
              <LatitudeDegrees>43.09651262126863002777099609375</LatitudeDegrees>
              <LongitudeDegrees>-1.9445222429931163787841796875</LongitudeDegrees>
            </Position>
            <AltitudeMeters>445.20001220703125</AltitudeMeters>
            <DistanceMeters>NAN</DistanceMeters>
          </Trackpoint>
          <Trackpoint>
            <Time>2021-08-13T12:10:22.000Z</Time>
            <Position>
              <LatitudeDegrees>43.0964912474155426025390625</LatitudeDegrees>
              <LongitudeDegrees>-1.94449483416974544525146484375</LongitudeDegrees>
            </Position>
            <AltitudeMeters>445.399993896484375</AltitudeMeters>
            <DistanceMeters>NAN</DistanceMeters>
          </Trackpoint>
          <Trackpoint>
            <Time>2021-08-13T12:10:23.000Z</Time>
            <Position>
              <LatitudeDegrees>43.0964746512472629547119140625</LatitudeDegrees>
              <LongitudeDegrees>-1.94446968846023082733154296875</LongitudeDegrees>
            </Position>
            <AltitudeMeters>445.399993896484375</AltitudeMeters>
            <DistanceMeters>NAN</DistanceMeters>
          </Trackpoint>
          <Trackpoint>
            <Time>2021-08-13T12:10:24.000Z</Time>
            <Position>
              <LatitudeDegrees>43.09646308422088623046875</LatitudeDegrees>
              <LongitudeDegrees>-1.9444481469690799713134765625</LongitudeDegrees>
            </Position>
            <AltitudeMeters>445.600006103515625</AltitudeMeters>
            <DistanceMeters>NAN</DistanceMeters>
          </Trackpoint>
          <Trackpoint>
            <Time>2021-08-13T12:10:25.000Z</Time>
            <Position>
              <LatitudeDegrees>43.09645445086061954498291015625</LatitudeDegrees>
              <LongitudeDegrees>-1.94442844949662685394287109375</LongitudeDegrees>
            </Position>
            <AltitudeMeters>445.600006103515625</AltitudeMeters>
            <DistanceMeters>NAN</DistanceMeters>
          </Trackpoint>
          <Trackpoint>
            <Time>2021-08-13T12:10:26.000Z</Time>
            <Position>
              <LatitudeDegrees>43.09644506312906742095947265625</LatitudeDegrees>
              <LongitudeDegrees>-1.94441084749996662139892578125</LongitudeDegrees>
            </Position>
            <AltitudeMeters>445.600006103515625</AltitudeMeters>
            <DistanceMeters>NAN</DistanceMeters>
          </Trackpoint>
          <Trackpoint>
            <Time>2021-08-13T12:10:27.000Z</Time>
            <Position>
              <LatitudeDegrees>43.0964387767016887664794921875</LatitudeDegrees>
              <LongitudeDegrees>-1.9443924911320209503173828125</LongitudeDegrees>
            </Position>
            <AltitudeMeters>445.79998779296875</AltitudeMeters>
            <DistanceMeters>NAN</DistanceMeters>
          </Trackpoint>
          <Trackpoint>
            <Time>2021-08-13T12:10:28.000Z</Time>
            <Position>
              <LatitudeDegrees>43.09643265791237354278564453125</LatitudeDegrees>
              <LongitudeDegrees>-1.9443740509450435638427734375</LongitudeDegrees>
            </Position>
            <AltitudeMeters>445.79998779296875</AltitudeMeters>
            <DistanceMeters>NAN</DistanceMeters>
          </Trackpoint>
          <Trackpoint>
            <Time>2021-08-13T12:10:30.000Z</Time>
            <Position>
              <LatitudeDegrees>43.0964166484773159027099609375</LatitudeDegrees>
              <LongitudeDegrees>-1.94433943368494510650634765625</LongitudeDegrees>
            </Position>
            <AltitudeMeters>445.79998779296875</AltitudeMeters>
            <DistanceMeters>NAN</DistanceMeters>
          </Trackpoint>
          <Trackpoint>
            <Time>2021-08-13T12:10:32.000Z</Time>
            <Position>
              <LatitudeDegrees>43.09640600346028804779052734375</LatitudeDegrees>
              <LongitudeDegrees>-1.9442997872829437255859375</LongitudeDegrees>
            </Position>
            <AltitudeMeters>446</AltitudeMeters>
            <DistanceMeters>NAN</DistanceMeters>
          </Trackpoint>
          <Trackpoint>
            <Time>2021-08-13T12:10:38.000Z</Time>
            <Position>
              <LatitudeDegrees>43.09633442200720310211181640625</LatitudeDegrees>
              <LongitudeDegrees>-1.94413994438946247100830078125</LongitudeDegrees>
            </Position>
            <AltitudeMeters>446.399993896484375</AltitudeMeters>
            <DistanceMeters>NAN</DistanceMeters>
          </Trackpoint>
          <Trackpoint>
            <Time>2021-08-13T12:10:39.000Z</Time>
            <Position>
              <LatitudeDegrees>43.0963197536766529083251953125</LatitudeDegrees>
              <LongitudeDegrees>-1.94411261938512325286865234375</LongitudeDegrees>
            </Position>
            <AltitudeMeters>446.399993896484375</AltitudeMeters>
            <DistanceMeters>NAN</DistanceMeters>
          </Trackpoint>
          <Trackpoint>
            <Time>2021-08-13T12:10:40.000Z</Time>
            <Position>
              <LatitudeDegrees>43.0963127128779888153076171875</LatitudeDegrees>
              <LongitudeDegrees>-1.94409434683620929718017578125</LongitudeDegrees>
            </Position>
            <AltitudeMeters>446.600006103515625</AltitudeMeters>
            <DistanceMeters>NAN</DistanceMeters>
          </Trackpoint>
          <Trackpoint>
            <Time>2021-08-13T12:10:46.000Z</Time>
            <Position>
              <LatitudeDegrees>43.09621456079185009002685546875</LatitudeDegrees>
              <LongitudeDegrees>-1.9438919238746166229248046875</LongitudeDegrees>
            </Position>
            <AltitudeMeters>447.399993896484375</AltitudeMeters>
            <DistanceMeters>NAN</DistanceMeters>
          </Trackpoint>
          <Trackpoint>
            <Time>2021-08-13T12:10:53.000Z</Time>
            <Position>
              <LatitudeDegrees>43.09609671123325824737548828125</LatitudeDegrees>
              <LongitudeDegrees>-1.94359235465526580810546875</LongitudeDegrees>
            </Position>
            <AltitudeMeters>447.79998779296875</AltitudeMeters>
            <DistanceMeters>NAN</DistanceMeters>
          </Trackpoint>
          <Trackpoint>
            <Time>2021-08-13T12:10:58.000Z</Time>
            <Position>
              <LatitudeDegrees>43.09603300876915454864501953125</LatitudeDegrees>
              <LongitudeDegrees>-1.943304352462291717529296875</LongitudeDegrees>
            </Position>
            <AltitudeMeters>448.399993896484375</AltitudeMeters>
            <DistanceMeters>NAN</DistanceMeters>
          </Trackpoint>
          <Trackpoint>
            <Time>2021-08-13T12:11:00.000Z</Time>
            <Position>
              <LatitudeDegrees>43.09599436819553375244140625</LatitudeDegrees>
              <LongitudeDegrees>-1.9431942142546176910400390625</LongitudeDegrees>
            </Position>
            <AltitudeMeters>448.399993896484375</AltitudeMeters>
            <DistanceMeters>NAN</DistanceMeters>
          </Trackpoint>
          <Trackpoint>
            <Time>2021-08-13T12:11:01.000Z</Time>
            <Position>
              <LatitudeDegrees>43.0959663726389408111572265625</LatitudeDegrees>
              <LongitudeDegrees>-1.94315238855779170989990234375</LongitudeDegrees>
            </Position>
            <AltitudeMeters>448.600006103515625</AltitudeMeters>
            <DistanceMeters>NAN</DistanceMeters>
          </Trackpoint>
          <Trackpoint>
            <Time>2021-08-13T12:11:03.000Z</Time>
            <Position>
              <LatitudeDegrees>43.09591666795313358306884765625</LatitudeDegrees>
              <LongitudeDegrees>-1.94309480488300323486328125</LongitudeDegrees>
            </Position>
            <AltitudeMeters>448.600006103515625</AltitudeMeters>
            <DistanceMeters>NAN</DistanceMeters>
          </Trackpoint>
          <Trackpoint>
            <Time>2021-08-13T12:11:04.000Z</Time>
            <Position>
              <LatitudeDegrees>43.0958909355103969573974609375</LatitudeDegrees>
              <LongitudeDegrees>-1.94310821592807769775390625</LongitudeDegrees>
            </Position>
            <AltitudeMeters>448.600006103515625</AltitudeMeters>
            <DistanceMeters>NAN</DistanceMeters>
          </Trackpoint>
          <Trackpoint>
            <Time>2021-08-13T12:11:05.000Z</Time>
            <Position>
              <LatitudeDegrees>43.0958614312112331390380859375</LatitudeDegrees>
              <LongitudeDegrees>-1.94308818317949771881103515625</LongitudeDegrees>
            </Position>
            <AltitudeMeters>448.600006103515625</AltitudeMeters>
            <DistanceMeters>NAN</DistanceMeters>
          </Trackpoint>
          <Trackpoint>
            <Time>2021-08-13T12:11:06.000Z</Time>
            <Position>
              <LatitudeDegrees>43.09585397131741046905517578125</LatitudeDegrees>
              <LongitudeDegrees>-1.943048872053623199462890625</LongitudeDegrees>
            </Position>
            <AltitudeMeters>448.79998779296875</AltitudeMeters>
            <DistanceMeters>NAN</DistanceMeters>
          </Trackpoint>
          <Trackpoint>
            <Time>2021-08-13T12:11:07.000Z</Time>
            <Position>
              <LatitudeDegrees>43.0958651192486286163330078125</LatitudeDegrees>
              <LongitudeDegrees>-1.94298927672207355499267578125</LongitudeDegrees>
            </Position>
            <AltitudeMeters>448.79998779296875</AltitudeMeters>
            <DistanceMeters>NAN</DistanceMeters>
          </Trackpoint>
          <Trackpoint>
            <Time>2021-08-13T12:11:08.000Z</Time>
            <Position>
              <LatitudeDegrees>43.09587794356048107147216796875</LatitudeDegrees>
              <LongitudeDegrees>-1.94283370859920978546142578125</LongitudeDegrees>
            </Position>
            <AltitudeMeters>448.79998779296875</AltitudeMeters>
            <DistanceMeters>NAN</DistanceMeters>
          </Trackpoint>
          <Trackpoint>
            <Time>2021-08-13T12:11:09.000Z</Time>
            <Position>
              <LatitudeDegrees>43.09589512646198272705078125</LatitudeDegrees>
              <LongitudeDegrees>-1.94272675551474094390869140625</LongitudeDegrees>
            </Position>
            <AltitudeMeters>448.79998779296875</AltitudeMeters>
            <DistanceMeters>NAN</DistanceMeters>
          </Trackpoint>
          <Trackpoint>
            <Time>2021-08-13T12:11:10.000Z</Time>
            <Position>
              <LatitudeDegrees>43.09590225107967853546142578125</LatitudeDegrees>
              <LongitudeDegrees>-1.9426596164703369140625</LongitudeDegrees>
            </Position>
            <AltitudeMeters>449</AltitudeMeters>
            <DistanceMeters>NAN</DistanceMeters>
          </Trackpoint>
          <Trackpoint>
            <Time>2021-08-13T12:11:14.000Z</Time>
            <Position>
              <LatitudeDegrees>43.09587157331407070159912109375</LatitudeDegrees>
              <LongitudeDegrees>-1.9424341432750225067138671875</LongitudeDegrees>
            </Position>
            <AltitudeMeters>449.399993896484375</AltitudeMeters>
            <DistanceMeters>NAN</DistanceMeters>
          </Trackpoint>
          <Trackpoint>
            <Time>2021-08-13T12:11:15.000Z</Time>
            <Position>
              <LatitudeDegrees>43.09585883282124996185302734375</LatitudeDegrees>
              <LongitudeDegrees>-1.9423838518559932708740234375</LongitudeDegrees>
            </Position>
            <AltitudeMeters>449.399993896484375</AltitudeMeters>
            <DistanceMeters>NAN</DistanceMeters>
          </Trackpoint>
          <Trackpoint>
            <Time>2021-08-13T12:11:16.000Z</Time>
            <Position>
              <LatitudeDegrees>43.0958600901067256927490234375</LatitudeDegrees>
              <LongitudeDegrees>-1.94232945330440998077392578125</LongitudeDegrees>
            </Position>
            <AltitudeMeters>449.399993896484375</AltitudeMeters>
            <DistanceMeters>NAN</DistanceMeters>
          </Trackpoint>
          <Trackpoint>
            <Time>2021-08-13T12:11:20.000Z</Time>
            <Position>
              <LatitudeDegrees>43.09586771763861179351806640625</LatitudeDegrees>
              <LongitudeDegrees>-1.94209476001560688018798828125</LongitudeDegrees>
            </Position>
            <AltitudeMeters>449.600006103515625</AltitudeMeters>
            <DistanceMeters>NAN</DistanceMeters>
          </Trackpoint>
          <Trackpoint>
            <Time>2021-08-13T12:11:23.000Z</Time>
            <Position>
              <LatitudeDegrees>43.0958475172519683837890625</LatitudeDegrees>
              <LongitudeDegrees>-1.9419292174279689788818359375</LongitudeDegrees>
            </Position>
            <AltitudeMeters>450.20001220703125</AltitudeMeters>
            <DistanceMeters>NAN</DistanceMeters>
          </Trackpoint>
          <Trackpoint>
            <Time>2021-08-13T12:11:24.000Z</Time>
            <Position>
              <LatitudeDegrees>43.095829747617244720458984375</LatitudeDegrees>
              <LongitudeDegrees>-1.94188018329441547393798828125</LongitudeDegrees>
            </Position>
            <AltitudeMeters>450.20001220703125</AltitudeMeters>
            <DistanceMeters>NAN</DistanceMeters>
          </Trackpoint>
          <Trackpoint>
            <Time>2021-08-13T12:11:25.000Z</Time>
            <Position>
              <LatitudeDegrees>43.0958181805908679962158203125</LatitudeDegrees>
              <LongitudeDegrees>-1.9418269582092761993408203125</LongitudeDegrees>
            </Position>
            <AltitudeMeters>450.20001220703125</AltitudeMeters>
            <DistanceMeters>NAN</DistanceMeters>
          </Trackpoint>
          <Trackpoint>
            <Time>2021-08-13T12:11:27.000Z</Time>
            <Position>
              <LatitudeDegrees>43.09580183587968349456787109375</LatitudeDegrees>
              <LongitudeDegrees>-1.94174087606370449066162109375</LongitudeDegrees>
            </Position>
            <AltitudeMeters>450.399993896484375</AltitudeMeters>
            <DistanceMeters>NAN</DistanceMeters>
          </Trackpoint>
          <Trackpoint>
            <Time>2021-08-13T12:11:28.000Z</Time>
            <Position>
              <LatitudeDegrees>43.09579378925263881683349609375</LatitudeDegrees>
              <LongitudeDegrees>-1.94169242866337299346923828125</LongitudeDegrees>
            </Position>
            <AltitudeMeters>450.399993896484375</AltitudeMeters>
            <DistanceMeters>NAN</DistanceMeters>
          </Trackpoint>
          <Trackpoint>
            <Time>2021-08-13T12:11:29.000Z</Time>
            <Position>
              <LatitudeDegrees>43.09578876011073589324951171875</LatitudeDegrees>
              <LongitudeDegrees>-1.941643394529819488525390625</LongitudeDegrees>
            </Position>
            <AltitudeMeters>450.399993896484375</AltitudeMeters>
            <DistanceMeters>NAN</DistanceMeters>
          </Trackpoint>
          <Trackpoint>
            <Time>2021-08-13T12:11:30.000Z</Time>
            <Position>
              <LatitudeDegrees>43.09575841762125492095947265625</LatitudeDegrees>
              <LongitudeDegrees>-1.941593103110790252685546875</LongitudeDegrees>
            </Position>
            <AltitudeMeters>450.600006103515625</AltitudeMeters>
            <DistanceMeters>NAN</DistanceMeters>
          </Trackpoint>
          <Trackpoint>
            <Time>2021-08-13T12:11:31.000Z</Time>
            <Position>
              <LatitudeDegrees>43.095732517540454864501953125</LatitudeDegrees>
              <LongitudeDegrees>-1.94154842756688594818115234375</LongitudeDegrees>
            </Position>
            <AltitudeMeters>450.600006103515625</AltitudeMeters>
            <DistanceMeters>NAN</DistanceMeters>
          </Trackpoint>
          <Trackpoint>
            <Time>2021-08-13T12:11:34.000Z</Time>
            <Position>
              <LatitudeDegrees>43.09566621668636798858642578125</LatitudeDegrees>
              <LongitudeDegrees>-1.941399313509464263916015625</LongitudeDegrees>
            </Position>
            <AltitudeMeters>450.79998779296875</AltitudeMeters>
            <DistanceMeters>NAN</DistanceMeters>
          </Trackpoint>
          <Trackpoint>
            <Time>2021-08-13T12:11:37.000Z</Time>
            <Position>
              <LatitudeDegrees>43.09559664689004421234130859375</LatitudeDegrees>
              <LongitudeDegrees>-1.9412415660917758941650390625</LongitudeDegrees>
            </Position>
            <AltitudeMeters>451.20001220703125</AltitudeMeters>
            <DistanceMeters>NAN</DistanceMeters>
          </Trackpoint>
          <Trackpoint>
            <Time>2021-08-13T12:11:42.000Z</Time>
            <Position>
              <LatitudeDegrees>43.09549053199589252471923828125</LatitudeDegrees>
              <LongitudeDegrees>-1.94106562994420528411865234375</LongitudeDegrees>
            </Position>
            <AltitudeMeters>451.600006103515625</AltitudeMeters>
            <DistanceMeters>NAN</DistanceMeters>
          </Trackpoint>
          <Trackpoint>
            <Time>2021-08-13T12:11:43.000Z</Time>
            <Position>
              <LatitudeDegrees>43.09546287171542644500732421875</LatitudeDegrees>
              <LongitudeDegrees>-1.94104081951081752777099609375</LongitudeDegrees>
            </Position>
            <AltitudeMeters>451.600006103515625</AltitudeMeters>
            <DistanceMeters>NAN</DistanceMeters>
          </Trackpoint>
          <Trackpoint>
            <Time>2021-08-13T12:11:44.000Z</Time>
            <Position>
              <LatitudeDegrees>43.09544510208070278167724609375</LatitudeDegrees>
              <LongitudeDegrees>-1.94100947119295597076416015625</LongitudeDegrees>
            </Position>
            <AltitudeMeters>451.79998779296875</AltitudeMeters>
            <DistanceMeters>NAN</DistanceMeters>
          </Trackpoint>
          <Trackpoint>
            <Time>2021-08-13T12:11:46.000Z</Time>
            <Position>
              <LatitudeDegrees>43.09539891779422760009765625</LatitudeDegrees>
              <LongitudeDegrees>-1.94093763828277587890625</LongitudeDegrees>
            </Position>
            <AltitudeMeters>452</AltitudeMeters>
            <DistanceMeters>NAN</DistanceMeters>
          </Trackpoint>
          <Trackpoint>
            <Time>2021-08-13T12:11:47.000Z</Time>
            <Position>
              <LatitudeDegrees>43.09537687338888645172119140625</LatitudeDegrees>
              <LongitudeDegrees>-1.94090478122234344482421875</LongitudeDegrees>
            </Position>
            <AltitudeMeters>452</AltitudeMeters>
            <DistanceMeters>NAN</DistanceMeters>
          </Trackpoint>
          <Trackpoint>
            <Time>2021-08-13T12:11:49.000Z</Time>
            <Position>
              <LatitudeDegrees>43.09532373212277889251708984375</LatitudeDegrees>
              <LongitudeDegrees>-1.94083504378795623779296875</LongitudeDegrees>
            </Position>
            <AltitudeMeters>452.20001220703125</AltitudeMeters>
            <DistanceMeters>NAN</DistanceMeters>
          </Trackpoint>
          <Trackpoint>
            <Time>2021-08-13T12:11:54.000Z</Time>
            <Position>
              <LatitudeDegrees>43.0951600335538387298583984375</LatitudeDegrees>
              <LongitudeDegrees>-1.94068945012986660003662109375</LongitudeDegrees>
            </Position>
            <AltitudeMeters>452.600006103515625</AltitudeMeters>
            <DistanceMeters>NAN</DistanceMeters>
          </Trackpoint>
          <Trackpoint>
            <Time>2021-08-13T12:11:59.000Z</Time>
            <Position>
              <LatitudeDegrees>43.09496129862964153289794921875</LatitudeDegrees>
              <LongitudeDegrees>-1.9405592791736125946044921875</LongitudeDegrees>
            </Position>
            <AltitudeMeters>453</AltitudeMeters>
            <DistanceMeters>NAN</DistanceMeters>
          </Trackpoint>
          <Trackpoint>
            <Time>2021-08-13T12:12:02.000Z</Time>
            <Position>
              <LatitudeDegrees>43.09485417790710926055908203125</LatitudeDegrees>
              <LongitudeDegrees>-1.94050186313688755035400390625</LongitudeDegrees>
            </Position>
            <AltitudeMeters>453.399993896484375</AltitudeMeters>
            <DistanceMeters>NAN</DistanceMeters>
          </Trackpoint>
          <Trackpoint>
            <Time>2021-08-13T12:12:03.000Z</Time>
            <Position>
              <LatitudeDegrees>43.0948150344192981719970703125</LatitudeDegrees>
              <LongitudeDegrees>-1.9404825009405612945556640625</LongitudeDegrees>
            </Position>
            <AltitudeMeters>453.399993896484375</AltitudeMeters>
            <DistanceMeters>NAN</DistanceMeters>
          </Trackpoint>
          <Trackpoint>
            <Time>2021-08-13T12:12:04.000Z</Time>
            <Position>
              <LatitudeDegrees>43.09477798640727996826171875</LatitudeDegrees>
              <LongitudeDegrees>-1.94047470577061176300048828125</LongitudeDegrees>
            </Position>
            <AltitudeMeters>453.600006103515625</AltitudeMeters>
            <DistanceMeters>NAN</DistanceMeters>
          </Trackpoint>
          <Trackpoint>
            <Time>2021-08-13T12:12:06.000Z</Time>
            <Position>
              <LatitudeDegrees>43.0946839414536952972412109375</LatitudeDegrees>
              <LongitudeDegrees>-1.9404224865138530731201171875</LongitudeDegrees>
            </Position>
            <AltitudeMeters>453.79998779296875</AltitudeMeters>
            <DistanceMeters>NAN</DistanceMeters>
          </Trackpoint>
          <Trackpoint>
            <Time>2021-08-13T12:12:10.000Z</Time>
            <Position>
              <LatitudeDegrees>43.094526194036006927490234375</LatitudeDegrees>
              <LongitudeDegrees>-1.94034956395626068115234375</LongitudeDegrees>
            </Position>
            <AltitudeMeters>454.20001220703125</AltitudeMeters>
            <DistanceMeters>NAN</DistanceMeters>
          </Trackpoint>
          <Trackpoint>
            <Time>2021-08-13T12:12:11.000Z</Time>
            <Position>
              <LatitudeDegrees>43.09449970722198486328125</LatitudeDegrees>
              <LongitudeDegrees>-1.94034411571919918060302734375</LongitudeDegrees>
            </Position>
            <AltitudeMeters>454.20001220703125</AltitudeMeters>
            <DistanceMeters>NAN</DistanceMeters>
          </Trackpoint>
          <Trackpoint>
            <Time>2021-08-13T12:12:17.000Z</Time>
            <Position>
              <LatitudeDegrees>43.09422268532216548919677734375</LatitudeDegrees>
              <LongitudeDegrees>-1.94027638994157314300537109375</LongitudeDegrees>
            </Position>
            <AltitudeMeters>454.79998779296875</AltitudeMeters>
            <DistanceMeters>NAN</DistanceMeters>
          </Trackpoint>
          <Trackpoint>
            <Time>2021-08-13T12:12:19.000Z</Time>
            <Position>
              <LatitudeDegrees>43.0941441468894481658935546875</LatitudeDegrees>
              <LongitudeDegrees>-1.94029399193823337554931640625</LongitudeDegrees>
            </Position>
            <AltitudeMeters>454.79998779296875</AltitudeMeters>
            <DistanceMeters>NAN</DistanceMeters>
          </Trackpoint>
          <Trackpoint>
            <Time>2021-08-13T12:12:20.000Z</Time>
            <Position>
              <LatitudeDegrees>43.094096370041370391845703125</LatitudeDegrees>
              <LongitudeDegrees>-1.94030203856527805328369140625</LongitudeDegrees>
            </Position>
            <AltitudeMeters>455</AltitudeMeters>
            <DistanceMeters>NAN</DistanceMeters>
          </Trackpoint>
          <Trackpoint>
            <Time>2021-08-13T12:12:22.000Z</Time>
            <Position>
              <LatitudeDegrees>43.0940115451812744140625</LatitudeDegrees>
              <LongitudeDegrees>-1.94031628780066967010498046875</LongitudeDegrees>
            </Position>
            <AltitudeMeters>455.20001220703125</AltitudeMeters>
            <DistanceMeters>NAN</DistanceMeters>
          </Trackpoint>
          <Trackpoint>
            <Time>2021-08-13T12:12:28.000Z</Time>
            <Position>
              <LatitudeDegrees>43.09373728930950164794921875</LatitudeDegrees>
              <LongitudeDegrees>-1.9403490610420703887939453125</LongitudeDegrees>
            </Position>
            <AltitudeMeters>455.399993896484375</AltitudeMeters>
            <DistanceMeters>NAN</DistanceMeters>
          </Trackpoint>
          <Trackpoint>
            <Time>2021-08-13T12:12:34.000Z</Time>
            <Position>
              <LatitudeDegrees>43.09352849610149860382080078125</LatitudeDegrees>
              <LongitudeDegrees>-1.9403450377285480499267578125</LongitudeDegrees>
            </Position>
            <AltitudeMeters>455.79998779296875</AltitudeMeters>
            <DistanceMeters>NAN</DistanceMeters>
          </Trackpoint>
          <Trackpoint>
            <Time>2021-08-13T12:12:35.000Z</Time>
            <Position>
              <LatitudeDegrees>43.0935285799205303192138671875</LatitudeDegrees>
              <LongitudeDegrees>-1.9403450377285480499267578125</LongitudeDegrees>
            </Position>
            <AltitudeMeters>456</AltitudeMeters>
            <DistanceMeters>NAN</DistanceMeters>
          </Trackpoint>
          <Trackpoint>
            <Time>2021-08-13T12:12:38.000Z</Time>
            <Position>
              <LatitudeDegrees>43.093529082834720611572265625</LatitudeDegrees>
              <LongitudeDegrees>-1.940342523157596588134765625</LongitudeDegrees>
            </Position>
            <AltitudeMeters>456.399993896484375</AltitudeMeters>
            <DistanceMeters>NAN</DistanceMeters>
          </Trackpoint>
          <Trackpoint>
            <Time>2021-08-13T12:12:39.000Z</Time>
            <Position>
              <LatitudeDegrees>43.0935292504727840423583984375</LatitudeDegrees>
              <LongitudeDegrees>-1.94034327752888202667236328125</LongitudeDegrees>
            </Position>
            <AltitudeMeters>456.399993896484375</AltitudeMeters>
            <DistanceMeters>NAN</DistanceMeters>
          </Trackpoint>
          <Trackpoint>
            <Time>2021-08-13T12:12:55.000Z</Time>
            <Position>
              <LatitudeDegrees>43.09262090362608432769775390625</LatitudeDegrees>
              <LongitudeDegrees>-1.94021738134324550628662109375</LongitudeDegrees>
            </Position>
            <AltitudeMeters>458.399993896484375</AltitudeMeters>
            <DistanceMeters>NAN</DistanceMeters>
          </Trackpoint>
          <Trackpoint>
            <Time>2021-08-13T12:12:56.000Z</Time>
            <Position>
              <LatitudeDegrees>43.092601709067821502685546875</LatitudeDegrees>
              <LongitudeDegrees>-1.9402843527495861053466796875</LongitudeDegrees>
            </Position>
            <AltitudeMeters>458.399993896484375</AltitudeMeters>
            <DistanceMeters>NAN</DistanceMeters>
          </Trackpoint>
          <Trackpoint>
            <Time>2021-08-13T12:12:57.000Z</Time>
            <Position>
              <LatitudeDegrees>43.0925877951085567474365234375</LatitudeDegrees>
              <LongitudeDegrees>-1.9402514956891536712646484375</LongitudeDegrees>
            </Position>
            <AltitudeMeters>458.600006103515625</AltitudeMeters>
            <DistanceMeters>NAN</DistanceMeters>
          </Trackpoint>
          <Trackpoint>
            <Time>2021-08-13T12:12:58.000Z</Time>
            <Position>
              <LatitudeDegrees>43.09252887032926082611083984375</LatitudeDegrees>
              <LongitudeDegrees>-1.940251328051090240478515625</LongitudeDegrees>
            </Position>
            <AltitudeMeters>458.600006103515625</AltitudeMeters>
            <DistanceMeters>NAN</DistanceMeters>
          </Trackpoint>
          <Trackpoint>
            <Time>2021-08-13T12:12:59.000Z</Time>
            <Position>
              <LatitudeDegrees>43.0925002880394458770751953125</LatitudeDegrees>
              <LongitudeDegrees>-1.94022006355226039886474609375</LongitudeDegrees>
            </Position>
            <AltitudeMeters>458.79998779296875</AltitudeMeters>
            <DistanceMeters>NAN</DistanceMeters>
          </Trackpoint>
          <Trackpoint>
            <Time>2021-08-13T12:13:00.000Z</Time>
            <Position>
              <LatitudeDegrees>43.09246852062642574310302734375</LatitudeDegrees>
              <LongitudeDegrees>-1.94019843824207782745361328125</LongitudeDegrees>
            </Position>
            <AltitudeMeters>458.79998779296875</AltitudeMeters>
            <DistanceMeters>NAN</DistanceMeters>
          </Trackpoint>
          <Trackpoint>
            <Time>2021-08-13T12:13:01.000Z</Time>
            <Position>
              <LatitudeDegrees>43.092427365481853485107421875</LatitudeDegrees>
              <LongitudeDegrees>-1.94015183486044406890869140625</LongitudeDegrees>
            </Position>
            <AltitudeMeters>459</AltitudeMeters>
            <DistanceMeters>NAN</DistanceMeters>
          </Trackpoint>
          <Trackpoint>
            <Time>2021-08-13T12:13:02.000Z</Time>
            <Position>
              <LatitudeDegrees>43.0923966877162456512451171875</LatitudeDegrees>
              <LongitudeDegrees>-1.94011629559099674224853515625</LongitudeDegrees>
            </Position>
            <AltitudeMeters>459</AltitudeMeters>
            <DistanceMeters>NAN</DistanceMeters>
          </Trackpoint>
          <Trackpoint>
            <Time>2021-08-13T12:13:03.000Z</Time>
            <Position>
              <LatitudeDegrees>43.09236894361674785614013671875</LatitudeDegrees>
              <LongitudeDegrees>-1.940078325569629669189453125</LongitudeDegrees>
            </Position>
            <AltitudeMeters>459</AltitudeMeters>
            <DistanceMeters>NAN</DistanceMeters>
          </Trackpoint>
          <Trackpoint>
            <Time>2021-08-13T12:13:04.000Z</Time>
            <Position>
              <LatitudeDegrees>43.09232619591057300567626953125</LatitudeDegrees>
              <LongitudeDegrees>-1.94004337303340435028076171875</LongitudeDegrees>
            </Position>
            <AltitudeMeters>459</AltitudeMeters>
            <DistanceMeters>NAN</DistanceMeters>
          </Trackpoint>
          <Trackpoint>
            <Time>2021-08-13T12:13:05.000Z</Time>
            <Position>
              <LatitudeDegrees>43.09229853563010692596435546875</LatitudeDegrees>
              <LongitudeDegrees>-1.94002174772322177886962890625</LongitudeDegrees>
            </Position>
            <AltitudeMeters>459.20001220703125</AltitudeMeters>
            <DistanceMeters>NAN</DistanceMeters>
          </Trackpoint>
          <Trackpoint>
            <Time>2021-08-13T12:13:06.000Z</Time>
            <Position>
              <LatitudeDegrees>43.09226400218904018402099609375</LatitudeDegrees>
              <LongitudeDegrees>-1.9399988651275634765625</LongitudeDegrees>
            </Position>
            <AltitudeMeters>459.20001220703125</AltitudeMeters>
            <DistanceMeters>NAN</DistanceMeters>
          </Trackpoint>
          <Trackpoint>
            <Time>2021-08-13T12:13:07.000Z</Time>
            <Position>
              <LatitudeDegrees>43.09223382733762264251708984375</LatitudeDegrees>
              <LongitudeDegrees>-1.93996944464743137359619140625</LongitudeDegrees>
            </Position>
            <AltitudeMeters>459.20001220703125</AltitudeMeters>
            <DistanceMeters>NAN</DistanceMeters>
          </Trackpoint>
          <Trackpoint>
            <Time>2021-08-13T12:13:08.000Z</Time>
            <Position>
              <LatitudeDegrees>43.09219744987785816192626953125</LatitudeDegrees>
              <LongitudeDegrees>-1.93992577493190765380859375</LongitudeDegrees>
            </Position>
            <AltitudeMeters>459.20001220703125</AltitudeMeters>
            <DistanceMeters>NAN</DistanceMeters>
          </Trackpoint>
          <Trackpoint>
            <Time>2021-08-13T12:13:09.000Z</Time>
            <Position>
              <LatitudeDegrees>43.09216593392193317413330078125</LatitudeDegrees>
              <LongitudeDegrees>-1.93988931365311145782470703125</LongitudeDegrees>
            </Position>
            <AltitudeMeters>459.399993896484375</AltitudeMeters>
            <DistanceMeters>NAN</DistanceMeters>
          </Trackpoint>
          <Trackpoint>
            <Time>2021-08-13T12:13:10.000Z</Time>
            <Position>
              <LatitudeDegrees>43.092137686908245086669921875</LatitudeDegrees>
              <LongitudeDegrees>-1.9398605637252330780029296875</LongitudeDegrees>
            </Position>
            <AltitudeMeters>459.600006103515625</AltitudeMeters>
            <DistanceMeters>NAN</DistanceMeters>
          </Trackpoint>
          <Trackpoint>
            <Time>2021-08-13T12:13:11.000Z</Time>
            <Position>
              <LatitudeDegrees>43.092102147638797760009765625</LatitudeDegrees>
              <LongitudeDegrees>-1.939820162951946258544921875</LongitudeDegrees>
            </Position>
            <AltitudeMeters>459.600006103515625</AltitudeMeters>
            <DistanceMeters>NAN</DistanceMeters>
          </Trackpoint>
          <Trackpoint>
            <Time>2021-08-13T12:13:12.000Z</Time>
            <Position>
              <LatitudeDegrees>43.09206987731158733367919921875</LatitudeDegrees>
              <LongitudeDegrees>-1.9397807680070400238037109375</LongitudeDegrees>
            </Position>
            <AltitudeMeters>459.79998779296875</AltitudeMeters>
            <DistanceMeters>NAN</DistanceMeters>
          </Trackpoint>
          <Trackpoint>
            <Time>2021-08-13T12:13:13.000Z</Time>
            <Position>
              <LatitudeDegrees>43.09204322285950183868408203125</LatitudeDegrees>
              <LongitudeDegrees>-1.939730979502201080322265625</LongitudeDegrees>
            </Position>
            <AltitudeMeters>459.79998779296875</AltitudeMeters>
            <DistanceMeters>NAN</DistanceMeters>
          </Trackpoint>
          <Trackpoint>
            <Time>2021-08-13T12:13:14.000Z</Time>
            <Position>
              <LatitudeDegrees>43.092018999159336090087890625</LatitudeDegrees>
              <LongitudeDegrees>-1.9396946020424365997314453125</LongitudeDegrees>
            </Position>
            <AltitudeMeters>460</AltitudeMeters>
            <DistanceMeters>NAN</DistanceMeters>
          </Trackpoint>
          <Trackpoint>
            <Time>2021-08-13T12:13:15.000Z</Time>
            <Position>
              <LatitudeDegrees>43.09200055897235870361328125</LatitudeDegrees>
              <LongitudeDegrees>-1.9396570511162281036376953125</LongitudeDegrees>
            </Position>
            <AltitudeMeters>460</AltitudeMeters>
            <DistanceMeters>NAN</DistanceMeters>
          </Trackpoint>
          <Trackpoint>
            <Time>2021-08-13T12:13:16.000Z</Time>
            <Position>
              <LatitudeDegrees>43.09198706410825252532958984375</LatitudeDegrees>
              <LongitudeDegrees>-1.9396168179810047149658203125</LongitudeDegrees>
            </Position>
            <AltitudeMeters>460</AltitudeMeters>
            <DistanceMeters>NAN</DistanceMeters>
          </Trackpoint>
          <Trackpoint>
            <Time>2021-08-13T12:13:17.000Z</Time>
            <Position>
              <LatitudeDegrees>43.091970384120941162109375</LatitudeDegrees>
              <LongitudeDegrees>-1.939574740827083587646484375</LongitudeDegrees>
            </Position>
            <AltitudeMeters>460.20001220703125</AltitudeMeters>
            <DistanceMeters>NAN</DistanceMeters>
          </Trackpoint>
          <Trackpoint>
            <Time>2021-08-13T12:13:18.000Z</Time>
            <Position>
              <LatitudeDegrees>43.0919475853443145751953125</LatitudeDegrees>
              <LongitudeDegrees>-1.939529143273830413818359375</LongitudeDegrees>
            </Position>
            <AltitudeMeters>460.20001220703125</AltitudeMeters>
            <DistanceMeters>NAN</DistanceMeters>
          </Trackpoint>
          <Trackpoint>
            <Time>2021-08-13T12:13:19.000Z</Time>
            <Position>
              <LatitudeDegrees>43.09192478656768798828125</LatitudeDegrees>
              <LongitudeDegrees>-1.93948748521506786346435546875</LongitudeDegrees>
            </Position>
            <AltitudeMeters>460.399993896484375</AltitudeMeters>
            <DistanceMeters>NAN</DistanceMeters>
          </Trackpoint>
          <Trackpoint>
            <Time>2021-08-13T12:13:20.000Z</Time>
            <Position>
              <LatitudeDegrees>43.09190022759139537811279296875</LatitudeDegrees>
              <LongitudeDegrees>-1.93944490514695644378662109375</LongitudeDegrees>
            </Position>
            <AltitudeMeters>460.399993896484375</AltitudeMeters>
            <DistanceMeters>NAN</DistanceMeters>
          </Trackpoint>
          <Trackpoint>
            <Time>2021-08-13T12:13:21.000Z</Time>
            <Position>
              <LatitudeDegrees>43.0918860621750354766845703125</LatitudeDegrees>
              <LongitudeDegrees>-1.93940081633627414703369140625</LongitudeDegrees>
            </Position>
            <AltitudeMeters>460.79998779296875</AltitudeMeters>
            <DistanceMeters>NAN</DistanceMeters>
          </Trackpoint>
          <Trackpoint>
            <Time>2021-08-13T12:13:22.000Z</Time>
            <Position>
              <LatitudeDegrees>43.09186938218772411346435546875</LatitudeDegrees>
              <LongitudeDegrees>-1.939356140792369842529296875</LongitudeDegrees>
            </Position>
            <AltitudeMeters>460.79998779296875</AltitudeMeters>
            <DistanceMeters>NAN</DistanceMeters>
          </Trackpoint>
          <Trackpoint>
            <Time>2021-08-13T12:13:23.000Z</Time>
            <Position>
              <LatitudeDegrees>43.09184859506785869598388671875</LatitudeDegrees>
              <LongitudeDegrees>-1.9393076933920383453369140625</LongitudeDegrees>
            </Position>
            <AltitudeMeters>460.79998779296875</AltitudeMeters>
            <DistanceMeters>NAN</DistanceMeters>
          </Trackpoint>
          <Trackpoint>
            <Time>2021-08-13T12:13:24.000Z</Time>
            <Position>
              <LatitudeDegrees>43.09183535166084766387939453125</LatitudeDegrees>
              <LongitudeDegrees>-1.93925212137401103973388671875</LongitudeDegrees>
            </Position>
            <AltitudeMeters>460.79998779296875</AltitudeMeters>
            <DistanceMeters>NAN</DistanceMeters>
          </Trackpoint>
          <Trackpoint>
            <Time>2021-08-13T12:13:25.000Z</Time>
            <Position>
              <LatitudeDegrees>43.09181573800742626190185546875</LatitudeDegrees>
              <LongitudeDegrees>-1.9391879998147487640380859375</LongitudeDegrees>
            </Position>
            <AltitudeMeters>461</AltitudeMeters>
            <DistanceMeters>NAN</DistanceMeters>
          </Trackpoint>
          <Trackpoint>
            <Time>2021-08-13T12:13:26.000Z</Time>
            <Position>
              <LatitudeDegrees>43.0917898379266262054443359375</LatitudeDegrees>
              <LongitudeDegrees>-1.939128153026103973388671875</LongitudeDegrees>
            </Position>
            <AltitudeMeters>461</AltitudeMeters>
            <DistanceMeters>NAN</DistanceMeters>
          </Trackpoint>
          <Trackpoint>
            <Time>2021-08-13T12:13:27.000Z</Time>
            <Position>
              <LatitudeDegrees>43.09177030809223651885986328125</LatitudeDegrees>
              <LongitudeDegrees>-1.93907325156033039093017578125</LongitudeDegrees>
            </Position>
            <AltitudeMeters>461</AltitudeMeters>
            <DistanceMeters>NAN</DistanceMeters>
          </Trackpoint>
          <Trackpoint>
            <Time>2021-08-13T12:13:28.000Z</Time>
            <Position>
              <LatitudeDegrees>43.09175455011427402496337890625</LatitudeDegrees>
              <LongitudeDegrees>-1.93902078084647655487060546875</LongitudeDegrees>
            </Position>
            <AltitudeMeters>461.20001220703125</AltitudeMeters>
            <DistanceMeters>NAN</DistanceMeters>
          </Trackpoint>
          <Trackpoint>
            <Time>2021-08-13T12:13:29.000Z</Time>
            <Position>
              <LatitudeDegrees>43.09174013324081897735595703125</LatitudeDegrees>
              <LongitudeDegrees>-1.9389677233994007110595703125</LongitudeDegrees>
            </Position>
            <AltitudeMeters>461.20001220703125</AltitudeMeters>
            <DistanceMeters>NAN</DistanceMeters>
          </Trackpoint>
          <Trackpoint>
            <Time>2021-08-13T12:13:30.000Z</Time>
            <Position>
              <LatitudeDegrees>43.09172563254833221435546875</LatitudeDegrees>
              <LongitudeDegrees>-1.9389150850474834442138671875</LongitudeDegrees>
            </Position>
            <AltitudeMeters>461.20001220703125</AltitudeMeters>
            <DistanceMeters>NAN</DistanceMeters>
          </Trackpoint>
          <Trackpoint>
            <Time>2021-08-13T12:13:33.000Z</Time>
            <Position>
              <LatitudeDegrees>43.09167961589992046356201171875</LatitudeDegrees>
              <LongitudeDegrees>-1.93874157965183258056640625</LongitudeDegrees>
            </Position>
            <AltitudeMeters>461.20001220703125</AltitudeMeters>
            <DistanceMeters>NAN</DistanceMeters>
          </Trackpoint>
          <Trackpoint>
            <Time>2021-08-13T12:13:34.000Z</Time>
            <Position>
              <LatitudeDegrees>43.09168213047087192535400390625</LatitudeDegrees>
              <LongitudeDegrees>-1.9386966526508331298828125</LongitudeDegrees>
            </Position>
            <AltitudeMeters>461.20001220703125</AltitudeMeters>
            <DistanceMeters>NAN</DistanceMeters>
          </Trackpoint>
          <Trackpoint>
            <Time>2021-08-13T12:13:35.000Z</Time>
            <Position>
              <LatitudeDegrees>43.09168196283280849456787109375</LatitudeDegrees>
              <LongitudeDegrees>-1.93864460103213787078857421875</LongitudeDegrees>
            </Position>
            <AltitudeMeters>461.20001220703125</AltitudeMeters>
            <DistanceMeters>NAN</DistanceMeters>
          </Trackpoint>
          <Trackpoint>
            <Time>2021-08-13T12:13:36.000Z</Time>
            <Position>
              <LatitudeDegrees>43.0916731618344783782958984375</LatitudeDegrees>
              <LongitudeDegrees>-1.93858911283314228057861328125</LongitudeDegrees>
            </Position>
            <AltitudeMeters>461.20001220703125</AltitudeMeters>
            <DistanceMeters>NAN</DistanceMeters>
          </Trackpoint>
          <Trackpoint>
            <Time>2021-08-13T12:13:38.000Z</Time>
            <Position>
              <LatitudeDegrees>43.09161289595067501068115234375</LatitudeDegrees>
              <LongitudeDegrees>-1.93846321664750576019287109375</LongitudeDegrees>
            </Position>
            <AltitudeMeters>461.20001220703125</AltitudeMeters>
            <DistanceMeters>NAN</DistanceMeters>
          </Trackpoint>
          <Trackpoint>
            <Time>2021-08-13T12:13:39.000Z</Time>
            <Position>
              <LatitudeDegrees>43.09158372692763805389404296875</LatitudeDegrees>
              <LongitudeDegrees>-1.93841460160911083221435546875</LongitudeDegrees>
            </Position>
            <AltitudeMeters>461.20001220703125</AltitudeMeters>
            <DistanceMeters>NAN</DistanceMeters>
          </Trackpoint>
          <Trackpoint>
            <Time>2021-08-13T12:13:40.000Z</Time>
            <Position>
              <LatitudeDegrees>43.0915524624288082122802734375</LatitudeDegrees>
              <LongitudeDegrees>-1.93836070597171783447265625</LongitudeDegrees>
            </Position>
            <AltitudeMeters>461.399993896484375</AltitudeMeters>
            <DistanceMeters>NAN</DistanceMeters>
          </Trackpoint>
          <Trackpoint>
            <Time>2021-08-13T12:13:41.000Z</Time>
            <Position>
              <LatitudeDegrees>43.09153251349925994873046875</LatitudeDegrees>
              <LongitudeDegrees>-1.9383058883249759674072265625</LongitudeDegrees>
            </Position>
            <AltitudeMeters>461.399993896484375</AltitudeMeters>
            <DistanceMeters>NAN</DistanceMeters>
          </Trackpoint>
          <Trackpoint>
            <Time>2021-08-13T12:13:47.000Z</Time>
            <Position>
              <LatitudeDegrees>43.091417513787746429443359375</LatitudeDegrees>
              <LongitudeDegrees>-1.937952674925327301025390625</LongitudeDegrees>
            </Position>
            <AltitudeMeters>461.79998779296875</AltitudeMeters>
            <DistanceMeters>NAN</DistanceMeters>
          </Trackpoint>
          <Trackpoint>
            <Time>2021-08-13T12:13:50.000Z</Time>
            <Position>
              <LatitudeDegrees>43.09136462397873401641845703125</LatitudeDegrees>
              <LongitudeDegrees>-1.93777623586356639862060546875</LongitudeDegrees>
            </Position>
            <AltitudeMeters>462</AltitudeMeters>
            <DistanceMeters>NAN</DistanceMeters>
          </Trackpoint>
          <Trackpoint>
            <Time>2021-08-13T12:13:55.000Z</Time>
            <Position>
              <LatitudeDegrees>43.09127041138708591461181640625</LatitudeDegrees>
              <LongitudeDegrees>-1.93748471327126026153564453125</LongitudeDegrees>
            </Position>
            <AltitudeMeters>462.399993896484375</AltitudeMeters>
            <DistanceMeters>NAN</DistanceMeters>
          </Trackpoint>
          <Trackpoint>
            <Time>2021-08-13T12:14:00.000Z</Time>
            <Position>
              <LatitudeDegrees>43.09116546995937824249267578125</LatitudeDegrees>
              <LongitudeDegrees>-1.93719352595508098602294921875</LongitudeDegrees>
            </Position>
            <AltitudeMeters>462.399993896484375</AltitudeMeters>
            <DistanceMeters>NAN</DistanceMeters>
          </Trackpoint>
          <Trackpoint>
            <Time>2021-08-13T12:14:02.000Z</Time>
            <Position>
              <LatitudeDegrees>43.09112615883350372314453125</LatitudeDegrees>
              <LongitudeDegrees>-1.93707148544490337371826171875</LongitudeDegrees>
            </Position>
            <AltitudeMeters>462.600006103515625</AltitudeMeters>
            <DistanceMeters>NAN</DistanceMeters>
          </Trackpoint>
          <Trackpoint>
            <Time>2021-08-13T12:14:08.000Z</Time>
            <Position>
              <LatitudeDegrees>43.09100411832332611083984375</LatitudeDegrees>
              <LongitudeDegrees>-1.93673285655677318572998046875</LongitudeDegrees>
            </Position>
            <AltitudeMeters>463.20001220703125</AltitudeMeters>
            <DistanceMeters>NAN</DistanceMeters>
          </Trackpoint>
          <Trackpoint>
            <Time>2021-08-13T12:14:09.000Z</Time>
            <Position>
              <LatitudeDegrees>43.09098525904119014739990234375</LatitudeDegrees>
              <LongitudeDegrees>-1.9366747699677944183349609375</LongitudeDegrees>
            </Position>
            <AltitudeMeters>463.399993896484375</AltitudeMeters>
            <DistanceMeters>NAN</DistanceMeters>
          </Trackpoint>
          <Trackpoint>
            <Time>2021-08-13T12:14:11.000Z</Time>
            <Position>
              <LatitudeDegrees>43.0909476242959499359130859375</LatitudeDegrees>
              <LongitudeDegrees>-1.93655901588499546051025390625</LongitudeDegrees>
            </Position>
            <AltitudeMeters>463.600006103515625</AltitudeMeters>
            <DistanceMeters>NAN</DistanceMeters>
          </Trackpoint>
          <Trackpoint>
            <Time>2021-08-13T12:14:15.000Z</Time>
            <Position>
              <LatitudeDegrees>43.09088434092700481414794921875</LatitudeDegrees>
              <LongitudeDegrees>-1.93631778471171855926513671875</LongitudeDegrees>
            </Position>
            <AltitudeMeters>464</AltitudeMeters>
            <DistanceMeters>NAN</DistanceMeters>
          </Trackpoint>
          <Trackpoint>
            <Time>2021-08-13T12:14:17.000Z</Time>
            <Position>
              <LatitudeDegrees>43.0908587761223316192626953125</LatitudeDegrees>
              <LongitudeDegrees>-1.93621150217950344085693359375</LongitudeDegrees>
            </Position>
            <AltitudeMeters>464.399993896484375</AltitudeMeters>
            <DistanceMeters>NAN</DistanceMeters>
          </Trackpoint>
          <Trackpoint>
            <Time>2021-08-13T12:14:18.000Z</Time>
            <Position>
              <LatitudeDegrees>43.0908490531146526336669921875</LatitudeDegrees>
              <LongitudeDegrees>-1.93615651689469814300537109375</LongitudeDegrees>
            </Position>
            <AltitudeMeters>464.399993896484375</AltitudeMeters>
            <DistanceMeters>NAN</DistanceMeters>
          </Trackpoint>
          <Trackpoint>
            <Time>2021-08-13T12:14:19.000Z</Time>
            <Position>
              <LatitudeDegrees>43.09083505533635616302490234375</LatitudeDegrees>
              <LongitudeDegrees>-1.9361004419624805450439453125</LongitudeDegrees>
            </Position>
            <AltitudeMeters>464.600006103515625</AltitudeMeters>
            <DistanceMeters>NAN</DistanceMeters>
          </Trackpoint>
          <Trackpoint>
            <Time>2021-08-13T12:14:20.000Z</Time>
            <Position>
              <LatitudeDegrees>43.090818040072917938232421875</LatitudeDegrees>
              <LongitudeDegrees>-1.93604671396315097808837890625</LongitudeDegrees>
            </Position>
            <AltitudeMeters>464.600006103515625</AltitudeMeters>
            <DistanceMeters>NAN</DistanceMeters>
          </Trackpoint>
          <Trackpoint>
            <Time>2021-08-13T12:14:21.000Z</Time>
            <Position>
              <LatitudeDegrees>43.0908024497330188751220703125</LatitudeDegrees>
              <LongitudeDegrees>-1.9359944947063922882080078125</LongitudeDegrees>
            </Position>
            <AltitudeMeters>464.79998779296875</AltitudeMeters>
            <DistanceMeters>NAN</DistanceMeters>
          </Trackpoint>
          <Trackpoint>
            <Time>2021-08-13T12:14:22.000Z</Time>
            <Position>
              <LatitudeDegrees>43.0907907150685787200927734375</LatitudeDegrees>
              <LongitudeDegrees>-1.93593858741223812103271484375</LongitudeDegrees>
            </Position>
            <AltitudeMeters>465</AltitudeMeters>
            <DistanceMeters>NAN</DistanceMeters>
          </Trackpoint>
          <Trackpoint>
            <Time>2021-08-13T12:14:23.000Z</Time>
            <Position>
              <LatitudeDegrees>43.0907823331654071807861328125</LatitudeDegrees>
              <LongitudeDegrees>-1.93588435649871826171875</LongitudeDegrees>
            </Position>
            <AltitudeMeters>465.20001220703125</AltitudeMeters>
            <DistanceMeters>NAN</DistanceMeters>
          </Trackpoint>
          <Trackpoint>
            <Time>2021-08-13T12:14:24.000Z</Time>
            <Position>
              <LatitudeDegrees>43.0907742865383625030517578125</LatitudeDegrees>
              <LongitudeDegrees>-1.9358285330235958099365234375</LongitudeDegrees>
            </Position>
            <AltitudeMeters>465.399993896484375</AltitudeMeters>
            <DistanceMeters>NAN</DistanceMeters>
          </Trackpoint>
          <Trackpoint>
            <Time>2021-08-13T12:14:25.000Z</Time>
            <Position>
              <LatitudeDegrees>43.09076699428260326385498046875</LatitudeDegrees>
              <LongitudeDegrees>-1.93577446974813938140869140625</LongitudeDegrees>
            </Position>
            <AltitudeMeters>465.600006103515625</AltitudeMeters>
            <DistanceMeters>NAN</DistanceMeters>
          </Trackpoint>
          <Trackpoint>
            <Time>2021-08-13T12:14:26.000Z</Time>
            <Position>
              <LatitudeDegrees>43.090757690370082855224609375</LatitudeDegrees>
              <LongitudeDegrees>-1.93572132848203182220458984375</LongitudeDegrees>
            </Position>
            <AltitudeMeters>465.79998779296875</AltitudeMeters>
            <DistanceMeters>NAN</DistanceMeters>
          </Trackpoint>
          <Trackpoint>
            <Time>2021-08-13T12:14:27.000Z</Time>
            <Position>
              <LatitudeDegrees>43.090750314295291900634765625</LatitudeDegrees>
              <LongitudeDegrees>-1.9356692768633365631103515625</LongitudeDegrees>
            </Position>
            <AltitudeMeters>466</AltitudeMeters>
            <DistanceMeters>NAN</DistanceMeters>
          </Trackpoint>
          <Trackpoint>
            <Time>2021-08-13T12:14:28.000Z</Time>
            <Position>
              <LatitudeDegrees>43.0907434411346912384033203125</LatitudeDegrees>
              <LongitudeDegrees>-1.93561621941626071929931640625</LongitudeDegrees>
            </Position>
            <AltitudeMeters>466</AltitudeMeters>
            <DistanceMeters>NAN</DistanceMeters>
          </Trackpoint>
          <Trackpoint>
            <Time>2021-08-13T12:14:29.000Z</Time>
            <Position>
              <LatitudeDegrees>43.090736232697963714599609375</LatitudeDegrees>
              <LongitudeDegrees>-1.9355638325214385986328125</LongitudeDegrees>
            </Position>
            <AltitudeMeters>466</AltitudeMeters>
            <DistanceMeters>NAN</DistanceMeters>
          </Trackpoint>
          <Trackpoint>
            <Time>2021-08-13T12:14:30.000Z</Time>
            <Position>
              <LatitudeDegrees>43.09073111973702907562255859375</LatitudeDegrees>
              <LongitudeDegrees>-1.935511864721775054931640625</LongitudeDegrees>
            </Position>
            <AltitudeMeters>466</AltitudeMeters>
            <DistanceMeters>NAN</DistanceMeters>
          </Trackpoint>
          <Trackpoint>
            <Time>2021-08-13T12:14:31.000Z</Time>
            <Position>
              <LatitudeDegrees>43.09072642587125301361083984375</LatitudeDegrees>
              <LongitudeDegrees>-1.93545813672244548797607421875</LongitudeDegrees>
            </Position>
            <AltitudeMeters>466</AltitudeMeters>
            <DistanceMeters>NAN</DistanceMeters>
          </Trackpoint>
          <Trackpoint>
            <Time>2021-08-13T12:14:32.000Z</Time>
            <Position>
              <LatitudeDegrees>43.09072039090096950531005859375</LatitudeDegrees>
              <LongitudeDegrees>-1.9354077614843845367431640625</LongitudeDegrees>
            </Position>
            <AltitudeMeters>466.20001220703125</AltitudeMeters>
            <DistanceMeters>NAN</DistanceMeters>
          </Trackpoint>
          <Trackpoint>
            <Time>2021-08-13T12:14:33.000Z</Time>
            <Position>
              <LatitudeDegrees>43.09071619994938373565673828125</LatitudeDegrees>
              <LongitudeDegrees>-1.93536208011209964752197265625</LongitudeDegrees>
            </Position>
            <AltitudeMeters>466.20001220703125</AltitudeMeters>
            <DistanceMeters>NAN</DistanceMeters>
          </Trackpoint>
          <Trackpoint>
            <Time>2021-08-13T12:14:34.000Z</Time>
            <Position>
              <LatitudeDegrees>43.0907149426639080047607421875</LatitudeDegrees>
              <LongitudeDegrees>-1.93531908094882965087890625</LongitudeDegrees>
            </Position>
            <AltitudeMeters>466.399993896484375</AltitudeMeters>
            <DistanceMeters>NAN</DistanceMeters>
          </Trackpoint>
          <Trackpoint>
            <Time>2021-08-13T12:14:35.000Z</Time>
            <Position>
              <LatitudeDegrees>43.09071519412100315093994140625</LatitudeDegrees>
              <LongitudeDegrees>-1.935281194746494293212890625</LongitudeDegrees>
            </Position>
            <AltitudeMeters>466.399993896484375</AltitudeMeters>
            <DistanceMeters>NAN</DistanceMeters>
          </Trackpoint>
          <Trackpoint>
            <Time>2021-08-13T12:14:36.000Z</Time>
            <Position>
              <LatitudeDegrees>43.0907137691974639892578125</LatitudeDegrees>
              <LongitudeDegrees>-1.935250349342823028564453125</LongitudeDegrees>
            </Position>
            <AltitudeMeters>466.79998779296875</AltitudeMeters>
            <DistanceMeters>NAN</DistanceMeters>
          </Trackpoint>
          <Trackpoint>
            <Time>2021-08-13T12:14:37.000Z</Time>
            <Position>
              <LatitudeDegrees>43.090712092816829681396484375</LatitudeDegrees>
              <LongitudeDegrees>-1.93521975539624691009521484375</LongitudeDegrees>
            </Position>
            <AltitudeMeters>467</AltitudeMeters>
            <DistanceMeters>NAN</DistanceMeters>
          </Trackpoint>
          <Trackpoint>
            <Time>2021-08-13T12:14:38.000Z</Time>
            <Position>
              <LatitudeDegrees>43.090712763369083404541015625</LatitudeDegrees>
              <LongitudeDegrees>-1.93518673069775104522705078125</LongitudeDegrees>
            </Position>
            <AltitudeMeters>467.600006103515625</AltitudeMeters>
            <DistanceMeters>NAN</DistanceMeters>
          </Trackpoint>
          <Trackpoint>
            <Time>2021-08-13T12:14:39.000Z</Time>
            <Position>
              <LatitudeDegrees>43.090714104473590850830078125</LatitudeDegrees>
              <LongitudeDegrees>-1.9351485930383205413818359375</LongitudeDegrees>
            </Position>
            <AltitudeMeters>468</AltitudeMeters>
            <DistanceMeters>NAN</DistanceMeters>
          </Trackpoint>
          <Trackpoint>
            <Time>2021-08-13T12:14:40.000Z</Time>
            <Position>
              <LatitudeDegrees>43.09071351774036884307861328125</LatitudeDegrees>
              <LongitudeDegrees>-1.93510458804666996002197265625</LongitudeDegrees>
            </Position>
            <AltitudeMeters>468.20001220703125</AltitudeMeters>
            <DistanceMeters>NAN</DistanceMeters>
          </Trackpoint>
          <Trackpoint>
            <Time>2021-08-13T12:14:41.000Z</Time>
            <Position>
              <LatitudeDegrees>43.09071167372167110443115234375</LatitudeDegrees>
              <LongitudeDegrees>-1.93505580537021160125732421875</LongitudeDegrees>
            </Position>
            <AltitudeMeters>468.399993896484375</AltitudeMeters>
            <DistanceMeters>NAN</DistanceMeters>
          </Trackpoint>
          <Trackpoint>
            <Time>2021-08-13T12:14:42.000Z</Time>
            <Position>
              <LatitudeDegrees>43.09071267955005168914794921875</LatitudeDegrees>
              <LongitudeDegrees>-1.9350040890276432037353515625</LongitudeDegrees>
            </Position>
            <AltitudeMeters>468.600006103515625</AltitudeMeters>
            <DistanceMeters>NAN</DistanceMeters>
          </Trackpoint>
          <Trackpoint>
            <Time>2021-08-13T12:14:43.000Z</Time>
            <Position>
              <LatitudeDegrees>43.0907179601490497589111328125</LatitudeDegrees>
              <LongitudeDegrees>-1.93495824001729488372802734375</LongitudeDegrees>
            </Position>
            <AltitudeMeters>469.20001220703125</AltitudeMeters>
            <DistanceMeters>NAN</DistanceMeters>
          </Trackpoint>
          <Trackpoint>
            <Time>2021-08-13T12:14:44.000Z</Time>
            <Position>
              <LatitudeDegrees>43.09072072617709636688232421875</LatitudeDegrees>
              <LongitudeDegrees>-1.9349152408540248870849609375</LongitudeDegrees>
            </Position>
            <AltitudeMeters>469.20001220703125</AltitudeMeters>
            <DistanceMeters>NAN</DistanceMeters>
          </Trackpoint>
          <Trackpoint>
            <Time>2021-08-13T12:14:45.000Z</Time>
            <Position>
              <LatitudeDegrees>43.09072257019579410552978515625</LatitudeDegrees>
              <LongitudeDegrees>-1.9348746724426746368408203125</LongitudeDegrees>
            </Position>
            <AltitudeMeters>469.600006103515625</AltitudeMeters>
            <DistanceMeters>NAN</DistanceMeters>
          </Trackpoint>
          <Trackpoint>
            <Time>2021-08-13T12:14:46.000Z</Time>
            <Position>
              <LatitudeDegrees>43.09072642587125301361083984375</LatitudeDegrees>
              <LongitudeDegrees>-1.9348310865461826324462890625</LongitudeDegrees>
            </Position>
            <AltitudeMeters>469.79998779296875</AltitudeMeters>
            <DistanceMeters>NAN</DistanceMeters>
          </Trackpoint>
          <Trackpoint>
            <Time>2021-08-13T12:14:47.000Z</Time>
            <Position>
              <LatitudeDegrees>43.0907343886792659759521484375</LatitudeDegrees>
              <LongitudeDegrees>-1.93477719090878963470458984375</LongitudeDegrees>
            </Position>
            <AltitudeMeters>470</AltitudeMeters>
            <DistanceMeters>NAN</DistanceMeters>
          </Trackpoint>
          <Trackpoint>
            <Time>2021-08-13T12:14:48.000Z</Time>
            <Position>
              <LatitudeDegrees>43.09073992073535919189453125</LatitudeDegrees>
              <LongitudeDegrees>-1.93472555838525295257568359375</LongitudeDegrees>
            </Position>
            <AltitudeMeters>470</AltitudeMeters>
            <DistanceMeters>NAN</DistanceMeters>
          </Trackpoint>
          <Trackpoint>
            <Time>2021-08-13T12:14:49.000Z</Time>
            <Position>
              <LatitudeDegrees>43.0907434411346912384033203125</LatitudeDegrees>
              <LongitudeDegrees>-1.93467845208942890167236328125</LongitudeDegrees>
            </Position>
            <AltitudeMeters>470</AltitudeMeters>
            <DistanceMeters>NAN</DistanceMeters>
          </Trackpoint>
          <Trackpoint>
            <Time>2021-08-13T12:14:50.000Z</Time>
            <Position>
              <LatitudeDegrees>43.0907467938959598541259765625</LatitudeDegrees>
              <LongitudeDegrees>-1.9346250593662261962890625</LongitudeDegrees>
            </Position>
            <AltitudeMeters>470.20001220703125</AltitudeMeters>
            <DistanceMeters>NAN</DistanceMeters>
          </Trackpoint>
          <Trackpoint>
            <Time>2021-08-13T12:14:51.000Z</Time>
            <Position>
              <LatitudeDegrees>43.0907491408288478851318359375</LatitudeDegrees>
              <LongitudeDegrees>-1.93456781096756458282470703125</LongitudeDegrees>
            </Position>
            <AltitudeMeters>470.20001220703125</AltitudeMeters>
            <DistanceMeters>NAN</DistanceMeters>
          </Trackpoint>
          <Trackpoint>
            <Time>2021-08-13T12:14:52.000Z</Time>
            <Position>
              <LatitudeDegrees>43.09075006283819675445556640625</LatitudeDegrees>
              <LongitudeDegrees>-1.93451106548309326171875</LongitudeDegrees>
            </Position>
            <AltitudeMeters>470.399993896484375</AltitudeMeters>
            <DistanceMeters>NAN</DistanceMeters>
          </Trackpoint>
          <Trackpoint>
            <Time>2021-08-13T12:14:53.000Z</Time>
            <Position>
              <LatitudeDegrees>43.090744949877262115478515625</LatitudeDegrees>
              <LongitudeDegrees>-1.93445465527474880218505859375</LongitudeDegrees>
            </Position>
            <AltitudeMeters>470.399993896484375</AltitudeMeters>
            <DistanceMeters>NAN</DistanceMeters>
          </Trackpoint>
          <Trackpoint>
            <Time>2021-08-13T12:14:54.000Z</Time>
            <Position>
              <LatitudeDegrees>43.09074671007692813873291015625</LatitudeDegrees>
              <LongitudeDegrees>-1.93440268747508525848388671875</LongitudeDegrees>
            </Position>
            <AltitudeMeters>470.399993896484375</AltitudeMeters>
            <DistanceMeters>NAN</DistanceMeters>
          </Trackpoint>
          <Trackpoint>
            <Time>2021-08-13T12:14:55.000Z</Time>
            <Position>
              <LatitudeDegrees>43.09073648415505886077880859375</LatitudeDegrees>
              <LongitudeDegrees>-1.93434946238994598388671875</LongitudeDegrees>
            </Position>
            <AltitudeMeters>470.600006103515625</AltitudeMeters>
            <DistanceMeters>NAN</DistanceMeters>
          </Trackpoint>
          <Trackpoint>
            <Time>2021-08-13T12:14:56.000Z</Time>
            <Position>
              <LatitudeDegrees>43.09072525240480899810791015625</LatitudeDegrees>
              <LongitudeDegrees>-1.93429741077125072479248046875</LongitudeDegrees>
            </Position>
            <AltitudeMeters>470.600006103515625</AltitudeMeters>
            <DistanceMeters>NAN</DistanceMeters>
          </Trackpoint>
          <Trackpoint>
            <Time>2021-08-13T12:14:57.000Z</Time>
            <Position>
              <LatitudeDegrees>43.09070915915071964263916015625</LatitudeDegrees>
              <LongitudeDegrees>-1.93423320539295673370361328125</LongitudeDegrees>
            </Position>
            <AltitudeMeters>470.600006103515625</AltitudeMeters>
            <DistanceMeters>NAN</DistanceMeters>
          </Trackpoint>
          <Trackpoint>
            <Time>2021-08-13T12:14:58.000Z</Time>
            <Position>
              <LatitudeDegrees>43.09071150608360767364501953125</LatitudeDegrees>
              <LongitudeDegrees>-1.93417511880397796630859375</LongitudeDegrees>
            </Position>
            <AltitudeMeters>470.600006103515625</AltitudeMeters>
            <DistanceMeters>NAN</DistanceMeters>
          </Trackpoint>
          <Trackpoint>
            <Time>2021-08-13T12:14:59.000Z</Time>
            <Position>
              <LatitudeDegrees>43.0907233245670795440673828125</LatitudeDegrees>
              <LongitudeDegrees>-1.93413094617426395416259765625</LongitudeDegrees>
            </Position>
            <AltitudeMeters>470.79998779296875</AltitudeMeters>
            <DistanceMeters>NAN</DistanceMeters>
          </Trackpoint>
          <Trackpoint>
            <Time>2021-08-13T12:15:00.000Z</Time>
            <Position>
              <LatitudeDegrees>43.0907350592315196990966796875</LatitudeDegrees>
              <LongitudeDegrees>-1.9340891204774379730224609375</LongitudeDegrees>
            </Position>
            <AltitudeMeters>470.79998779296875</AltitudeMeters>
            <DistanceMeters>NAN</DistanceMeters>
          </Trackpoint>
          <Trackpoint>
            <Time>2021-08-13T12:15:01.000Z</Time>
            <Position>
              <LatitudeDegrees>43.0907397530972957611083984375</LatitudeDegrees>
              <LongitudeDegrees>-1.9340455345809459686279296875</LongitudeDegrees>
            </Position>
            <AltitudeMeters>470.79998779296875</AltitudeMeters>
            <DistanceMeters>NAN</DistanceMeters>
          </Trackpoint>
          <Trackpoint>
            <Time>2021-08-13T12:15:02.000Z</Time>
            <Position>
              <LatitudeDegrees>43.09072491712868213653564453125</LatitudeDegrees>
              <LongitudeDegrees>-1.93398158065974712371826171875</LongitudeDegrees>
            </Position>
            <AltitudeMeters>470.79998779296875</AltitudeMeters>
            <DistanceMeters>NAN</DistanceMeters>
          </Trackpoint>
          <Trackpoint>
            <Time>2021-08-13T12:15:03.000Z</Time>
            <Position>
              <LatitudeDegrees>43.09072382748126983642578125</LatitudeDegrees>
              <LongitudeDegrees>-1.93393749184906482696533203125</LongitudeDegrees>
            </Position>
            <AltitudeMeters>470.79998779296875</AltitudeMeters>
            <DistanceMeters>NAN</DistanceMeters>
          </Trackpoint>
          <Trackpoint>
            <Time>2021-08-13T12:15:04.000Z</Time>
            <Position>
              <LatitudeDegrees>43.0907142721116542816162109375</LatitudeDegrees>
              <LongitudeDegrees>-1.93388468585908412933349609375</LongitudeDegrees>
            </Position>
            <AltitudeMeters>470.79998779296875</AltitudeMeters>
            <DistanceMeters>NAN</DistanceMeters>
          </Trackpoint>
          <Trackpoint>
            <Time>2021-08-13T12:15:05.000Z</Time>
            <Position>
              <LatitudeDegrees>43.09069541282951831817626953125</LatitudeDegrees>
              <LongitudeDegrees>-1.933805979788303375244140625</LongitudeDegrees>
            </Position>
            <AltitudeMeters>470.79998779296875</AltitudeMeters>
            <DistanceMeters>NAN</DistanceMeters>
          </Trackpoint>
          <Trackpoint>
            <Time>2021-08-13T12:15:06.000Z</Time>
            <Position>
              <LatitudeDegrees>43.09068518690764904022216796875</LatitudeDegrees>
              <LongitudeDegrees>-1.9337156228721141815185546875</LongitudeDegrees>
            </Position>
            <AltitudeMeters>470.79998779296875</AltitudeMeters>
            <DistanceMeters>NAN</DistanceMeters>
          </Trackpoint>
          <Trackpoint>
            <Time>2021-08-13T12:15:07.000Z</Time>
            <Position>
              <LatitudeDegrees>43.0906856060028076171875</LatitudeDegrees>
              <LongitudeDegrees>-1.933626271784305572509765625</LongitudeDegrees>
            </Position>
            <AltitudeMeters>470.79998779296875</AltitudeMeters>
            <DistanceMeters>NAN</DistanceMeters>
          </Trackpoint>
          <Trackpoint>
            <Time>2021-08-13T12:15:08.000Z</Time>
            <Position>
              <LatitudeDegrees>43.09068904258310794830322265625</LatitudeDegrees>
              <LongitudeDegrees>-1.93355686962604522705078125</LongitudeDegrees>
            </Position>
            <AltitudeMeters>470.79998779296875</AltitudeMeters>
            <DistanceMeters>NAN</DistanceMeters>
          </Trackpoint>
          <Trackpoint>
            <Time>2021-08-13T12:15:09.000Z</Time>
            <Position>
              <LatitudeDegrees>43.09068954549729824066162109375</LatitudeDegrees>
              <LongitudeDegrees>-1.933474056422710418701171875</LongitudeDegrees>
            </Position>
            <AltitudeMeters>470.600006103515625</AltitudeMeters>
            <DistanceMeters>NAN</DistanceMeters>
          </Trackpoint>
          <Trackpoint>
            <Time>2021-08-13T12:15:10.000Z</Time>
            <Position>
              <LatitudeDegrees>43.0906842648983001708984375</LatitudeDegrees>
              <LongitudeDegrees>-1.9334021396934986114501953125</LongitudeDegrees>
            </Position>
            <AltitudeMeters>470.600006103515625</AltitudeMeters>
            <DistanceMeters>NAN</DistanceMeters>
          </Trackpoint>
          <Trackpoint>
            <Time>2021-08-13T12:15:11.000Z</Time>
            <Position>
              <LatitudeDegrees>43.09067781083285808563232421875</LatitudeDegrees>
              <LongitudeDegrees>-1.933341287076473236083984375</LongitudeDegrees>
            </Position>
            <AltitudeMeters>470.399993896484375</AltitudeMeters>
            <DistanceMeters>NAN</DistanceMeters>
          </Trackpoint>
          <Trackpoint>
            <Time>2021-08-13T12:15:12.000Z</Time>
            <Position>
              <LatitudeDegrees>43.09067915193736553192138671875</LatitudeDegrees>
              <LongitudeDegrees>-1.93328269757330417633056640625</LongitudeDegrees>
            </Position>
            <AltitudeMeters>470.399993896484375</AltitudeMeters>
            <DistanceMeters>NAN</DistanceMeters>
          </Trackpoint>
          <Trackpoint>
            <Time>2021-08-13T12:15:13.000Z</Time>
            <Position>
              <LatitudeDegrees>43.09068359434604644775390625</LatitudeDegrees>
              <LongitudeDegrees>-1.93321346305310726165771484375</LongitudeDegrees>
            </Position>
            <AltitudeMeters>470.20001220703125</AltitudeMeters>
            <DistanceMeters>NAN</DistanceMeters>
          </Trackpoint>
          <Trackpoint>
            <Time>2021-08-13T12:15:14.000Z</Time>
            <Position>
              <LatitudeDegrees>43.0906884558498859405517578125</LatitudeDegrees>
              <LongitudeDegrees>-1.933140456676483154296875</LongitudeDegrees>
            </Position>
            <AltitudeMeters>470.20001220703125</AltitudeMeters>
            <DistanceMeters>NAN</DistanceMeters>
          </Trackpoint>
          <Trackpoint>
            <Time>2021-08-13T12:15:16.000Z</Time>
            <Position>
              <LatitudeDegrees>43.09069524519145488739013671875</LatitudeDegrees>
              <LongitudeDegrees>-1.93302688188850879669189453125</LongitudeDegrees>
            </Position>
            <AltitudeMeters>470.20001220703125</AltitudeMeters>
            <DistanceMeters>NAN</DistanceMeters>
          </Trackpoint>
          <Trackpoint>
            <Time>2021-08-13T12:15:17.000Z</Time>
            <Position>
              <LatitudeDegrees>43.0906908027827739715576171875</LatitudeDegrees>
              <LongitudeDegrees>-1.9329889118671417236328125</LongitudeDegrees>
            </Position>
            <AltitudeMeters>470.20001220703125</AltitudeMeters>
            <DistanceMeters>NAN</DistanceMeters>
          </Trackpoint>
          <Trackpoint>
            <Time>2021-08-13T12:15:18.000Z</Time>
            <Position>
              <LatitudeDegrees>43.09068627655506134033203125</LatitudeDegrees>
              <LongitudeDegrees>-1.932931579649448394775390625</LongitudeDegrees>
            </Position>
            <AltitudeMeters>470.399993896484375</AltitudeMeters>
            <DistanceMeters>NAN</DistanceMeters>
          </Trackpoint>
          <Trackpoint>
            <Time>2021-08-13T12:15:19.000Z</Time>
            <Position>
              <LatitudeDegrees>43.09069340117275714874267578125</LatitudeDegrees>
              <LongitudeDegrees>-1.93289461545646190643310546875</LongitudeDegrees>
            </Position>
            <AltitudeMeters>470.399993896484375</AltitudeMeters>
            <DistanceMeters>NAN</DistanceMeters>
          </Trackpoint>
          <Trackpoint>
            <Time>2021-08-13T12:15:20.000Z</Time>
            <Position>
              <LatitudeDegrees>43.0906968377530574798583984375</LatitudeDegrees>
              <LongitudeDegrees>-1.9328536279499530792236328125</LongitudeDegrees>
            </Position>
            <AltitudeMeters>470.399993896484375</AltitudeMeters>
            <DistanceMeters>NAN</DistanceMeters>
          </Trackpoint>
          <Trackpoint>
            <Time>2021-08-13T12:15:23.000Z</Time>
            <Position>
              <LatitudeDegrees>43.09070236980915069580078125</LatitudeDegrees>
              <LongitudeDegrees>-1.93271289579570293426513671875</LongitudeDegrees>
            </Position>
            <AltitudeMeters>470.79998779296875</AltitudeMeters>
            <DistanceMeters>NAN</DistanceMeters>
          </Trackpoint>
          <Trackpoint>
            <Time>2021-08-13T12:15:24.000Z</Time>
            <Position>
              <LatitudeDegrees>43.0907055549323558807373046875</LatitudeDegrees>
              <LongitudeDegrees>-1.93267148919403553009033203125</LongitudeDegrees>
            </Position>
            <AltitudeMeters>471</AltitudeMeters>
            <DistanceMeters>NAN</DistanceMeters>
          </Trackpoint>
          <Trackpoint>
            <Time>2021-08-13T12:15:25.000Z</Time>
            <Position>
              <LatitudeDegrees>43.0907137691974639892578125</LatitudeDegrees>
              <LongitudeDegrees>-1.9326310046017169952392578125</LongitudeDegrees>
            </Position>
            <AltitudeMeters>471.20001220703125</AltitudeMeters>
            <DistanceMeters>NAN</DistanceMeters>
          </Trackpoint>
          <Trackpoint>
            <Time>2021-08-13T12:15:26.000Z</Time>
            <Position>
              <LatitudeDegrees>43.0907219834625720977783203125</LatitudeDegrees>
              <LongitudeDegrees>-1.93259320221841335296630859375</LongitudeDegrees>
            </Position>
            <AltitudeMeters>471.20001220703125</AltitudeMeters>
            <DistanceMeters>NAN</DistanceMeters>
          </Trackpoint>
          <Trackpoint>
            <Time>2021-08-13T12:15:27.000Z</Time>
            <Position>
              <LatitudeDegrees>43.09073187410831451416015625</LatitudeDegrees>
              <LongitudeDegrees>-1.93254961632192134857177734375</LongitudeDegrees>
            </Position>
            <AltitudeMeters>471.399993896484375</AltitudeMeters>
            <DistanceMeters>NAN</DistanceMeters>
          </Trackpoint>
          <Trackpoint>
            <Time>2021-08-13T12:15:33.000Z</Time>
            <Position>
              <LatitudeDegrees>43.090755008161067962646484375</LatitudeDegrees>
              <LongitudeDegrees>-1.93222104571759700775146484375</LongitudeDegrees>
            </Position>
            <AltitudeMeters>471.79998779296875</AltitudeMeters>
            <DistanceMeters>NAN</DistanceMeters>
          </Trackpoint>
          <Trackpoint>
            <Time>2021-08-13T12:15:38.000Z</Time>
            <Position>
              <LatitudeDegrees>43.0907615460455417633056640625</LatitudeDegrees>
              <LongitudeDegrees>-1.93194628693163394927978515625</LongitudeDegrees>
            </Position>
            <AltitudeMeters>472</AltitudeMeters>
            <DistanceMeters>NAN</DistanceMeters>
          </Trackpoint>
          <Trackpoint>
            <Time>2021-08-13T12:15:39.000Z</Time>
            <Position>
              <LatitudeDegrees>43.0907705985009670257568359375</LatitudeDegrees>
              <LongitudeDegrees>-1.9318972527980804443359375</LongitudeDegrees>
            </Position>
            <AltitudeMeters>472.20001220703125</AltitudeMeters>
            <DistanceMeters>NAN</DistanceMeters>
          </Trackpoint>
          <Trackpoint>
            <Time>2021-08-13T12:15:41.000Z</Time>
            <Position>
              <LatitudeDegrees>43.0907793156802654266357421875</LatitudeDegrees>
              <LongitudeDegrees>-1.93179826252162456512451171875</LongitudeDegrees>
            </Position>
            <AltitudeMeters>472.20001220703125</AltitudeMeters>
            <DistanceMeters>NAN</DistanceMeters>
          </Trackpoint>
          <Trackpoint>
            <Time>2021-08-13T12:15:42.000Z</Time>
            <Position>
              <LatitudeDegrees>43.090782500803470611572265625</LatitudeDegrees>
              <LongitudeDegrees>-1.931744702160358428955078125</LongitudeDegrees>
            </Position>
            <AltitudeMeters>472.399993896484375</AltitudeMeters>
            <DistanceMeters>NAN</DistanceMeters>
          </Trackpoint>
          <Trackpoint>
            <Time>2021-08-13T12:15:43.000Z</Time>
            <Position>
              <LatitudeDegrees>43.09077152051031589508056640625</LatitudeDegrees>
              <LongitudeDegrees>-1.93168913014233112335205078125</LongitudeDegrees>
            </Position>
            <AltitudeMeters>472.399993896484375</AltitudeMeters>
            <DistanceMeters>NAN</DistanceMeters>
          </Trackpoint>
          <Trackpoint>
            <Time>2021-08-13T12:15:44.000Z</Time>
            <Position>
              <LatitudeDegrees>43.0907674133777618408203125</LatitudeDegrees>
              <LongitudeDegrees>-1.931627690792083740234375</LongitudeDegrees>
            </Position>
            <AltitudeMeters>472.399993896484375</AltitudeMeters>
            <DistanceMeters>NAN</DistanceMeters>
          </Trackpoint>
          <Trackpoint>
            <Time>2021-08-13T12:15:46.000Z</Time>
            <Position>
              <LatitudeDegrees>43.09074754826724529266357421875</LatitudeDegrees>
              <LongitudeDegrees>-1.9315031357109546661376953125</LongitudeDegrees>
            </Position>
            <AltitudeMeters>472.600006103515625</AltitudeMeters>
            <DistanceMeters>NAN</DistanceMeters>
          </Trackpoint>
          <Trackpoint>
            <Time>2021-08-13T12:15:47.000Z</Time>
            <Position>
              <LatitudeDegrees>43.09075425378978252410888671875</LatitudeDegrees>
              <LongitudeDegrees>-1.9314454682171344757080078125</LongitudeDegrees>
            </Position>
            <AltitudeMeters>472.600006103515625</AltitudeMeters>
            <DistanceMeters>NAN</DistanceMeters>
          </Trackpoint>
          <Trackpoint>
            <Time>2021-08-13T12:15:48.000Z</Time>
            <Position>
              <LatitudeDegrees>43.09076028876006603240966796875</LatitudeDegrees>
              <LongitudeDegrees>-1.9313728809356689453125</LongitudeDegrees>
            </Position>
            <AltitudeMeters>472.79998779296875</AltitudeMeters>
            <DistanceMeters>NAN</DistanceMeters>
          </Trackpoint>
          <Trackpoint>
            <Time>2021-08-13T12:15:49.000Z</Time>
            <Position>
              <LatitudeDegrees>43.09075240977108478546142578125</LatitudeDegrees>
              <LongitudeDegrees>-1.93132669664919376373291015625</LongitudeDegrees>
            </Position>
            <AltitudeMeters>472.79998779296875</AltitudeMeters>
            <DistanceMeters>NAN</DistanceMeters>
          </Trackpoint>
          <Trackpoint>
            <Time>2021-08-13T12:15:50.000Z</Time>
            <Position>
              <LatitudeDegrees>43.09076095931231975555419921875</LatitudeDegrees>
              <LongitudeDegrees>-1.93128746934235095977783203125</LongitudeDegrees>
            </Position>
            <AltitudeMeters>473</AltitudeMeters>
            <DistanceMeters>NAN</DistanceMeters>
          </Trackpoint>
          <Trackpoint>
            <Time>2021-08-13T12:15:51.000Z</Time>
            <Position>
              <LatitudeDegrees>43.09076196514070034027099609375</LatitudeDegrees>
              <LongitudeDegrees>-1.93122175522148609161376953125</LongitudeDegrees>
            </Position>
            <AltitudeMeters>473.20001220703125</AltitudeMeters>
            <DistanceMeters>NAN</DistanceMeters>
          </Trackpoint>
          <Trackpoint>
            <Time>2021-08-13T12:15:53.000Z</Time>
            <Position>
              <LatitudeDegrees>43.0907531641423702239990234375</LatitudeDegrees>
              <LongitudeDegrees>-1.93109720014035701751708984375</LongitudeDegrees>
            </Position>
            <AltitudeMeters>473.399993896484375</AltitudeMeters>
            <DistanceMeters>NAN</DistanceMeters>
          </Trackpoint>
          <Trackpoint>
            <Time>2021-08-13T12:15:54.000Z</Time>
            <Position>
              <LatitudeDegrees>43.09075224213302135467529296875</LatitudeDegrees>
              <LongitudeDegrees>-1.93106099031865596771240234375</LongitudeDegrees>
            </Position>
            <AltitudeMeters>473.600006103515625</AltitudeMeters>
            <DistanceMeters>NAN</DistanceMeters>
          </Trackpoint>
          <Trackpoint>
            <Time>2021-08-13T12:15:59.000Z</Time>
            <Position>
              <LatitudeDegrees>43.09075601398944854736328125</LatitudeDegrees>
              <LongitudeDegrees>-1.93076670169830322265625</LongitudeDegrees>
            </Position>
            <AltitudeMeters>474</AltitudeMeters>
            <DistanceMeters>NAN</DistanceMeters>
          </Trackpoint>
          <Trackpoint>
            <Time>2021-08-13T12:16:03.000Z</Time>
            <Position>
              <LatitudeDegrees>43.09080085717141628265380859375</LatitudeDegrees>
              <LongitudeDegrees>-1.93050258792936801910400390625</LongitudeDegrees>
            </Position>
            <AltitudeMeters>474.20001220703125</AltitudeMeters>
            <DistanceMeters>NAN</DistanceMeters>
          </Trackpoint>
          <Trackpoint>
            <Time>2021-08-13T12:16:04.000Z</Time>
            <Position>
              <LatitudeDegrees>43.0908371508121490478515625</LatitudeDegrees>
              <LongitudeDegrees>-1.9304113090038299560546875</LongitudeDegrees>
            </Position>
            <AltitudeMeters>474.20001220703125</AltitudeMeters>
            <DistanceMeters>NAN</DistanceMeters>
          </Trackpoint>
          <Trackpoint>
            <Time>2021-08-13T12:16:06.000Z</Time>
            <Position>
              <LatitudeDegrees>43.0909238196909427642822265625</LatitudeDegrees>
              <LongitudeDegrees>-1.93026982247829437255859375</LongitudeDegrees>
            </Position>
            <AltitudeMeters>474.399993896484375</AltitudeMeters>
            <DistanceMeters>NAN</DistanceMeters>
          </Trackpoint>
          <Trackpoint>
            <Time>2021-08-13T12:16:07.000Z</Time>
            <Position>
              <LatitudeDegrees>43.09094267897307872772216796875</LatitudeDegrees>
              <LongitudeDegrees>-1.93020008504390716552734375</LongitudeDegrees>
            </Position>
            <AltitudeMeters>474.399993896484375</AltitudeMeters>
            <DistanceMeters>NAN</DistanceMeters>
          </Trackpoint>
          <Trackpoint>
            <Time>2021-08-13T12:16:09.000Z</Time>
            <Position>
              <LatitudeDegrees>43.09095977805554866790771484375</LatitudeDegrees>
              <LongitudeDegrees>-1.93009120412170886993408203125</LongitudeDegrees>
            </Position>
            <AltitudeMeters>474.399993896484375</AltitudeMeters>
            <DistanceMeters>NAN</DistanceMeters>
          </Trackpoint>
          <Trackpoint>
            <Time>2021-08-13T12:16:10.000Z</Time>
            <Position>
              <LatitudeDegrees>43.0909744463860988616943359375</LatitudeDegrees>
              <LongitudeDegrees>-1.93004409782588481903076171875</LongitudeDegrees>
            </Position>
            <AltitudeMeters>474.399993896484375</AltitudeMeters>
            <DistanceMeters>NAN</DistanceMeters>
          </Trackpoint>
          <Trackpoint>
            <Time>2021-08-13T12:16:11.000Z</Time>
            <Position>
              <LatitudeDegrees>43.09098592959344387054443359375</LatitudeDegrees>
              <LongitudeDegrees>-1.92998676560819149017333984375</LongitudeDegrees>
            </Position>
            <AltitudeMeters>474.600006103515625</AltitudeMeters>
            <DistanceMeters>NAN</DistanceMeters>
          </Trackpoint>
          <Trackpoint>
            <Time>2021-08-13T12:16:12.000Z</Time>
            <Position>
              <LatitudeDegrees>43.09099112637341022491455078125</LatitudeDegrees>
              <LongitudeDegrees>-1.92994259297847747802734375</LongitudeDegrees>
            </Position>
            <AltitudeMeters>474.600006103515625</AltitudeMeters>
            <DistanceMeters>NAN</DistanceMeters>
          </Trackpoint>
          <Trackpoint>
            <Time>2021-08-13T12:16:14.000Z</Time>
            <Position>
              <LatitudeDegrees>43.0910114943981170654296875</LatitudeDegrees>
              <LongitudeDegrees>-1.92984427325427532196044921875</LongitudeDegrees>
            </Position>
            <AltitudeMeters>474.79998779296875</AltitudeMeters>
            <DistanceMeters>NAN</DistanceMeters>
          </Trackpoint>
          <Trackpoint>
            <Time>2021-08-13T12:16:17.000Z</Time>
            <Position>
              <LatitudeDegrees>43.0910582654178142547607421875</LatitudeDegrees>
              <LongitudeDegrees>-1.929648555815219879150390625</LongitudeDegrees>
            </Position>
            <AltitudeMeters>475</AltitudeMeters>
            <DistanceMeters>NAN</DistanceMeters>
          </Trackpoint>
          <Trackpoint>
            <Time>2021-08-13T12:16:19.000Z</Time>
            <Position>
              <LatitudeDegrees>43.0910756997764110565185546875</LatitudeDegrees>
              <LongitudeDegrees>-1.92953581921756267547607421875</LongitudeDegrees>
            </Position>
            <AltitudeMeters>475.399993896484375</AltitudeMeters>
            <DistanceMeters>NAN</DistanceMeters>
          </Trackpoint>
          <Trackpoint>
            <Time>2021-08-13T12:16:21.000Z</Time>
            <Position>
              <LatitudeDegrees>43.09109757654368877410888671875</LatitudeDegrees>
              <LongitudeDegrees>-1.92942987196147441864013671875</LongitudeDegrees>
            </Position>
            <AltitudeMeters>475.399993896484375</AltitudeMeters>
            <DistanceMeters>NAN</DistanceMeters>
          </Trackpoint>
          <Trackpoint>
            <Time>2021-08-13T12:16:22.000Z</Time>
            <Position>
              <LatitudeDegrees>43.09110947884619235992431640625</LatitudeDegrees>
              <LongitudeDegrees>-1.9293771497905254364013671875</LongitudeDegrees>
            </Position>
            <AltitudeMeters>475.399993896484375</AltitudeMeters>
            <DistanceMeters>NAN</DistanceMeters>
          </Trackpoint>
          <Trackpoint>
            <Time>2021-08-13T12:16:24.000Z</Time>
            <Position>
              <LatitudeDegrees>43.0911263264715671539306640625</LatitudeDegrees>
              <LongitudeDegrees>-1.92927966825664043426513671875</LongitudeDegrees>
            </Position>
            <AltitudeMeters>475.79998779296875</AltitudeMeters>
            <DistanceMeters>NAN</DistanceMeters>
          </Trackpoint>
          <Trackpoint>
            <Time>2021-08-13T12:16:25.000Z</Time>
            <Position>
              <LatitudeDegrees>43.09113613329827785491943359375</LatitudeDegrees>
              <LongitudeDegrees>-1.9292175583541393280029296875</LongitudeDegrees>
            </Position>
            <AltitudeMeters>476</AltitudeMeters>
            <DistanceMeters>NAN</DistanceMeters>
          </Trackpoint>
          <Trackpoint>
            <Time>2021-08-13T12:16:27.000Z</Time>
            <Position>
              <LatitudeDegrees>43.091151304543018341064453125</LatitudeDegrees>
              <LongitudeDegrees>-1.9290898181498050689697265625</LongitudeDegrees>
            </Position>
            <AltitudeMeters>476.20001220703125</AltitudeMeters>
            <DistanceMeters>NAN</DistanceMeters>
          </Trackpoint>
          <Trackpoint>
            <Time>2021-08-13T12:16:30.000Z</Time>
            <Position>
              <LatitudeDegrees>43.0911772884428501129150390625</LatitudeDegrees>
              <LongitudeDegrees>-1.9288819469511508941650390625</LongitudeDegrees>
            </Position>
            <AltitudeMeters>476.399993896484375</AltitudeMeters>
            <DistanceMeters>NAN</DistanceMeters>
          </Trackpoint>
          <Trackpoint>
            <Time>2021-08-13T12:16:33.000Z</Time>
            <Position>
              <LatitudeDegrees>43.09120536781847476959228515625</LatitudeDegrees>
              <LongitudeDegrees>-1.92867633886635303497314453125</LongitudeDegrees>
            </Position>
            <AltitudeMeters>476.79998779296875</AltitudeMeters>
            <DistanceMeters>NAN</DistanceMeters>
          </Trackpoint>
          <Trackpoint>
            <Time>2021-08-13T12:16:34.000Z</Time>
            <Position>
              <LatitudeDegrees>43.0911970697343349456787109375</LatitudeDegrees>
              <LongitudeDegrees>-1.92862252704799175262451171875</LongitudeDegrees>
            </Position>
            <AltitudeMeters>477</AltitudeMeters>
            <DistanceMeters>NAN</DistanceMeters>
          </Trackpoint>
          <Trackpoint>
            <Time>2021-08-13T12:16:35.000Z</Time>
            <Position>
              <LatitudeDegrees>43.09119849465787410736083984375</LatitudeDegrees>
              <LongitudeDegrees>-1.928570978343486785888671875</LongitudeDegrees>
            </Position>
            <AltitudeMeters>477</AltitudeMeters>
            <DistanceMeters>NAN</DistanceMeters>
          </Trackpoint>
          <Trackpoint>
            <Time>2021-08-13T12:16:36.000Z</Time>
            <Position>
              <LatitudeDegrees>43.09121207334101200103759765625</LatitudeDegrees>
              <LongitudeDegrees>-1.92851741798222064971923828125</LongitudeDegrees>
            </Position>
            <AltitudeMeters>477</AltitudeMeters>
            <DistanceMeters>NAN</DistanceMeters>
          </Trackpoint>
          <Trackpoint>
            <Time>2021-08-13T12:16:37.000Z</Time>
            <Position>
              <LatitudeDegrees>43.091215007007122039794921875</LatitudeDegrees>
              <LongitudeDegrees>-1.92846545018255710601806640625</LongitudeDegrees>
            </Position>
            <AltitudeMeters>477.399993896484375</AltitudeMeters>
            <DistanceMeters>NAN</DistanceMeters>
          </Trackpoint>
          <Trackpoint>
            <Time>2021-08-13T12:16:38.000Z</Time>
            <Position>
              <LatitudeDegrees>43.09122581966221332550048828125</LatitudeDegrees>
              <LongitudeDegrees>-1.92841465584933757781982421875</LongitudeDegrees>
            </Position>
            <AltitudeMeters>477.399993896484375</AltitudeMeters>
            <DistanceMeters>NAN</DistanceMeters>
          </Trackpoint>
          <Trackpoint>
            <Time>2021-08-13T12:16:39.000Z</Time>
            <Position>
              <LatitudeDegrees>43.09122405946254730224609375</LatitudeDegrees>
              <LongitudeDegrees>-1.92836134694516658782958984375</LongitudeDegrees>
            </Position>
            <AltitudeMeters>477.600006103515625</AltitudeMeters>
            <DistanceMeters>NAN</DistanceMeters>
          </Trackpoint>
          <Trackpoint>
            <Time>2021-08-13T12:16:40.000Z</Time>
            <Position>
              <LatitudeDegrees>43.0912238918244838714599609375</LatitudeDegrees>
              <LongitudeDegrees>-1.92831046879291534423828125</LongitudeDegrees>
            </Position>
            <AltitudeMeters>477.79998779296875</AltitudeMeters>
            <DistanceMeters>NAN</DistanceMeters>
          </Trackpoint>
          <Trackpoint>
            <Time>2021-08-13T12:16:41.000Z</Time>
            <Position>
              <LatitudeDegrees>43.091223724186420440673828125</LatitudeDegrees>
              <LongitudeDegrees>-1.9282472692430019378662109375</LongitudeDegrees>
            </Position>
            <AltitudeMeters>478</AltitudeMeters>
            <DistanceMeters>NAN</DistanceMeters>
          </Trackpoint>
          <Trackpoint>
            <Time>2021-08-13T12:16:42.000Z</Time>
            <Position>
              <LatitudeDegrees>43.0912416614592075347900390625</LatitudeDegrees>
              <LongitudeDegrees>-1.9281691499054431915283203125</LongitudeDegrees>
            </Position>
            <AltitudeMeters>478.20001220703125</AltitudeMeters>
            <DistanceMeters>NAN</DistanceMeters>
          </Trackpoint>
          <Trackpoint>
            <Time>2021-08-13T12:16:43.000Z</Time>
            <Position>
              <LatitudeDegrees>43.0912446789443492889404296875</LatitudeDegrees>
              <LongitudeDegrees>-1.928108967840671539306640625</LongitudeDegrees>
            </Position>
            <AltitudeMeters>478.399993896484375</AltitudeMeters>
            <DistanceMeters>NAN</DistanceMeters>
          </Trackpoint>
          <Trackpoint>
            <Time>2021-08-13T12:16:44.000Z</Time>
            <Position>
              <LatitudeDegrees>43.09125012718141078948974609375</LatitudeDegrees>
              <LongitudeDegrees>-1.92803554236888885498046875</LongitudeDegrees>
            </Position>
            <AltitudeMeters>478.600006103515625</AltitudeMeters>
            <DistanceMeters>NAN</DistanceMeters>
          </Trackpoint>
          <Trackpoint>
            <Time>2021-08-13T12:16:45.000Z</Time>
            <Position>
              <LatitudeDegrees>43.0912413261830806732177734375</LatitudeDegrees>
              <LongitudeDegrees>-1.9279611110687255859375</LongitudeDegrees>
            </Position>
            <AltitudeMeters>478.600006103515625</AltitudeMeters>
            <DistanceMeters>NAN</DistanceMeters>
          </Trackpoint>
          <Trackpoint>
            <Time>2021-08-13T12:16:46.000Z</Time>
            <Position>
              <LatitudeDegrees>43.09123906306922435760498046875</LatitudeDegrees>
              <LongitudeDegrees>-1.927905119955539703369140625</LongitudeDegrees>
            </Position>
            <AltitudeMeters>478.79998779296875</AltitudeMeters>
            <DistanceMeters>NAN</DistanceMeters>
          </Trackpoint>
          <Trackpoint>
            <Time>2021-08-13T12:16:47.000Z</Time>
            <Position>
              <LatitudeDegrees>43.09124828316271305084228515625</LatitudeDegrees>
              <LongitudeDegrees>-1.9278258271515369415283203125</LongitudeDegrees>
            </Position>
            <AltitudeMeters>479</AltitudeMeters>
            <DistanceMeters>NAN</DistanceMeters>
          </Trackpoint>
          <Trackpoint>
            <Time>2021-08-13T12:16:48.000Z</Time>
            <Position>
              <LatitudeDegrees>43.09124275110661983489990234375</LatitudeDegrees>
              <LongitudeDegrees>-1.9277527369558811187744140625</LongitudeDegrees>
            </Position>
            <AltitudeMeters>479.20001220703125</AltitudeMeters>
            <DistanceMeters>NAN</DistanceMeters>
          </Trackpoint>
          <Trackpoint>
            <Time>2021-08-13T12:16:49.000Z</Time>
            <Position>
              <LatitudeDegrees>43.0912530608475208282470703125</LatitudeDegrees>
              <LongitudeDegrees>-1.92767755128443241119384765625</LongitudeDegrees>
            </Position>
            <AltitudeMeters>479.399993896484375</AltitudeMeters>
            <DistanceMeters>NAN</DistanceMeters>
          </Trackpoint>
          <Trackpoint>
            <Time>2021-08-13T12:16:50.000Z</Time>
            <Position>
              <LatitudeDegrees>43.091240823268890380859375</LatitudeDegrees>
              <LongitudeDegrees>-1.92760060541331768035888671875</LongitudeDegrees>
            </Position>
            <AltitudeMeters>479.399993896484375</AltitudeMeters>
            <DistanceMeters>NAN</DistanceMeters>
          </Trackpoint>
          <Trackpoint>
            <Time>2021-08-13T12:16:51.000Z</Time>
            <Position>
              <LatitudeDegrees>43.091229088604450225830078125</LatitudeDegrees>
              <LongitudeDegrees>-1.92753790877759456634521484375</LongitudeDegrees>
            </Position>
            <AltitudeMeters>479.600006103515625</AltitudeMeters>
            <DistanceMeters>NAN</DistanceMeters>
          </Trackpoint>
          <Trackpoint>
            <Time>2021-08-13T12:16:52.000Z</Time>
            <Position>
              <LatitudeDegrees>43.091224730014801025390625</LatitudeDegrees>
              <LongitudeDegrees>-1.92748191766440868377685546875</LongitudeDegrees>
            </Position>
            <AltitudeMeters>479.600006103515625</AltitudeMeters>
            <DistanceMeters>NAN</DistanceMeters>
          </Trackpoint>
          <Trackpoint>
            <Time>2021-08-13T12:16:53.000Z</Time>
            <Position>
              <LatitudeDegrees>43.09120402671396732330322265625</LatitudeDegrees>
              <LongitudeDegrees>-1.92742123268544673919677734375</LongitudeDegrees>
            </Position>
            <AltitudeMeters>479.79998779296875</AltitudeMeters>
            <DistanceMeters>NAN</DistanceMeters>
          </Trackpoint>
          <Trackpoint>
            <Time>2021-08-13T12:16:54.000Z</Time>
            <Position>
              <LatitudeDegrees>43.09120603837072849273681640625</LatitudeDegrees>
              <LongitudeDegrees>-1.92735283635556697845458984375</LongitudeDegrees>
            </Position>
            <AltitudeMeters>479.79998779296875</AltitudeMeters>
            <DistanceMeters>NAN</DistanceMeters>
          </Trackpoint>
          <Trackpoint>
            <Time>2021-08-13T12:16:55.000Z</Time>
            <Position>
              <LatitudeDegrees>43.0912027694284915924072265625</LatitudeDegrees>
              <LongitudeDegrees>-1.92728192545473575592041015625</LongitudeDegrees>
            </Position>
            <AltitudeMeters>479.79998779296875</AltitudeMeters>
            <DistanceMeters>NAN</DistanceMeters>
          </Trackpoint>
          <Trackpoint>
            <Time>2021-08-13T12:16:56.000Z</Time>
            <Position>
              <LatitudeDegrees>43.09119430370628833770751953125</LatitudeDegrees>
              <LongitudeDegrees>-1.92720514722168445587158203125</LongitudeDegrees>
            </Position>
            <AltitudeMeters>480</AltitudeMeters>
            <DistanceMeters>NAN</DistanceMeters>
          </Trackpoint>
          <Trackpoint>
            <Time>2021-08-13T12:16:57.000Z</Time>
            <Position>
              <LatitudeDegrees>43.09119748882949352264404296875</LatitudeDegrees>
              <LongitudeDegrees>-1.9271271117031574249267578125</LongitudeDegrees>
            </Position>
            <AltitudeMeters>480</AltitudeMeters>
            <DistanceMeters>NAN</DistanceMeters>
          </Trackpoint>
          <Trackpoint>
            <Time>2021-08-13T12:16:58.000Z</Time>
            <Position>
              <LatitudeDegrees>43.09119547717273235321044921875</LatitudeDegrees>
              <LongitudeDegrees>-1.92704957909882068634033203125</LongitudeDegrees>
            </Position>
            <AltitudeMeters>480</AltitudeMeters>
            <DistanceMeters>NAN</DistanceMeters>
          </Trackpoint>
          <Trackpoint>
            <Time>2021-08-13T12:16:59.000Z</Time>
            <Position>
              <LatitudeDegrees>43.0911793000996112823486328125</LatitudeDegrees>
              <LongitudeDegrees>-1.92699040286242961883544921875</LongitudeDegrees>
            </Position>
            <AltitudeMeters>480.20001220703125</AltitudeMeters>
            <DistanceMeters>NAN</DistanceMeters>
          </Trackpoint>
          <Trackpoint>
            <Time>2021-08-13T12:17:00.000Z</Time>
            <Position>
              <LatitudeDegrees>43.091168068349361419677734375</LatitudeDegrees>
              <LongitudeDegrees>-1.926926113665103912353515625</LongitudeDegrees>
            </Position>
            <AltitudeMeters>480.20001220703125</AltitudeMeters>
            <DistanceMeters>NAN</DistanceMeters>
          </Trackpoint>
          <Trackpoint>
            <Time>2021-08-13T12:17:01.000Z</Time>
            <Position>
              <LatitudeDegrees>43.09115834534168243408203125</LatitudeDegrees>
              <LongitudeDegrees>-1.9268672727048397064208984375</LongitudeDegrees>
            </Position>
            <AltitudeMeters>480.600006103515625</AltitudeMeters>
            <DistanceMeters>NAN</DistanceMeters>
          </Trackpoint>
          <Trackpoint>
            <Time>2021-08-13T12:17:02.000Z</Time>
            <Position>
              <LatitudeDegrees>43.09114686213433742523193359375</LatitudeDegrees>
              <LongitudeDegrees>-1.926812790334224700927734375</LongitudeDegrees>
            </Position>
            <AltitudeMeters>480.600006103515625</AltitudeMeters>
            <DistanceMeters>NAN</DistanceMeters>
          </Trackpoint>
          <Trackpoint>
            <Time>2021-08-13T12:17:03.000Z</Time>
            <Position>
              <LatitudeDegrees>43.091133199632167816162109375</LatitudeDegrees>
              <LongitudeDegrees>-1.9267512671649456024169921875</LongitudeDegrees>
            </Position>
            <AltitudeMeters>480.79998779296875</AltitudeMeters>
            <DistanceMeters>NAN</DistanceMeters>
          </Trackpoint>
          <Trackpoint>
            <Time>2021-08-13T12:17:04.000Z</Time>
            <Position>
              <LatitudeDegrees>43.0911320261657238006591796875</LatitudeDegrees>
              <LongitudeDegrees>-1.92667566239833831787109375</LongitudeDegrees>
            </Position>
            <AltitudeMeters>480.79998779296875</AltitudeMeters>
            <DistanceMeters>NAN</DistanceMeters>
          </Trackpoint>
          <Trackpoint>
            <Time>2021-08-13T12:17:05.000Z</Time>
            <Position>
              <LatitudeDegrees>43.09111299924552440643310546875</LatitudeDegrees>
              <LongitudeDegrees>-1.92660148255527019500732421875</LongitudeDegrees>
            </Position>
            <AltitudeMeters>481</AltitudeMeters>
            <DistanceMeters>NAN</DistanceMeters>
          </Trackpoint>
          <Trackpoint>
            <Time>2021-08-13T12:17:06.000Z</Time>
            <Position>
              <LatitudeDegrees>43.09110143221914768218994140625</LatitudeDegrees>
              <LongitudeDegrees>-1.9265309907495975494384765625</LongitudeDegrees>
            </Position>
            <AltitudeMeters>481</AltitudeMeters>
            <DistanceMeters>NAN</DistanceMeters>
          </Trackpoint>
          <Trackpoint>
            <Time>2021-08-13T12:17:07.000Z</Time>
            <Position>
              <LatitudeDegrees>43.09107360430061817169189453125</LatitudeDegrees>
              <LongitudeDegrees>-1.926463432610034942626953125</LongitudeDegrees>
            </Position>
            <AltitudeMeters>481</AltitudeMeters>
            <DistanceMeters>NAN</DistanceMeters>
          </Trackpoint>
          <Trackpoint>
            <Time>2021-08-13T12:17:08.000Z</Time>
            <Position>
              <LatitudeDegrees>43.0910552479326725006103515625</LatitudeDegrees>
              <LongitudeDegrees>-1.92639109678566455841064453125</LongitudeDegrees>
            </Position>
            <AltitudeMeters>481</AltitudeMeters>
            <DistanceMeters>NAN</DistanceMeters>
          </Trackpoint>
          <Trackpoint>
            <Time>2021-08-13T12:17:09.000Z</Time>
            <Position>
              <LatitudeDegrees>43.09104259125888347625732421875</LatitudeDegrees>
              <LongitudeDegrees>-1.9263184256851673126220703125</LongitudeDegrees>
            </Position>
            <AltitudeMeters>481</AltitudeMeters>
            <DistanceMeters>NAN</DistanceMeters>
          </Trackpoint>
          <Trackpoint>
            <Time>2021-08-13T12:17:10.000Z</Time>
            <Position>
              <LatitudeDegrees>43.09102364815771579742431640625</LatitudeDegrees>
              <LongitudeDegrees>-1.92624793387949466705322265625</LongitudeDegrees>
            </Position>
            <AltitudeMeters>481</AltitudeMeters>
            <DistanceMeters>NAN</DistanceMeters>
          </Trackpoint>
          <Trackpoint>
            <Time>2021-08-13T12:17:11.000Z</Time>
            <Position>
              <LatitudeDegrees>43.0910073034465312957763671875</LatitudeDegrees>
              <LongitudeDegrees>-1.92617199383676052093505859375</LongitudeDegrees>
            </Position>
            <AltitudeMeters>481</AltitudeMeters>
            <DistanceMeters>NAN</DistanceMeters>
          </Trackpoint>
          <Trackpoint>
            <Time>2021-08-13T12:17:13.000Z</Time>
            <Position>
              <LatitudeDegrees>43.090967237949371337890625</LatitudeDegrees>
              <LongitudeDegrees>-1.9260401464998722076416015625</LongitudeDegrees>
            </Position>
            <AltitudeMeters>481.20001220703125</AltitudeMeters>
            <DistanceMeters>NAN</DistanceMeters>
          </Trackpoint>
          <Trackpoint>
            <Time>2021-08-13T12:17:14.000Z</Time>
            <Position>
              <LatitudeDegrees>43.09093764983117580413818359375</LatitudeDegrees>
              <LongitudeDegrees>-1.92599044181406497955322265625</LongitudeDegrees>
            </Position>
            <AltitudeMeters>481.20001220703125</AltitudeMeters>
            <DistanceMeters>NAN</DistanceMeters>
          </Trackpoint>
          <Trackpoint>
            <Time>2021-08-13T12:17:15.000Z</Time>
            <Position>
              <LatitudeDegrees>43.09090621769428253173828125</LatitudeDegrees>
              <LongitudeDegrees>-1.925940401852130889892578125</LongitudeDegrees>
            </Position>
            <AltitudeMeters>481.399993896484375</AltitudeMeters>
            <DistanceMeters>NAN</DistanceMeters>
          </Trackpoint>
          <Trackpoint>
            <Time>2021-08-13T12:17:17.000Z</Time>
            <Position>
              <LatitudeDegrees>43.090865649282932281494140625</LatitudeDegrees>
              <LongitudeDegrees>-1.92584417760372161865234375</LongitudeDegrees>
            </Position>
            <AltitudeMeters>481.399993896484375</AltitudeMeters>
            <DistanceMeters>NAN</DistanceMeters>
          </Trackpoint>
          <Trackpoint>
            <Time>2021-08-13T12:17:18.000Z</Time>
            <Position>
              <LatitudeDegrees>43.0908406712114810943603515625</LatitudeDegrees>
              <LongitudeDegrees>-1.925800256431102752685546875</LongitudeDegrees>
            </Position>
            <AltitudeMeters>481.399993896484375</AltitudeMeters>
            <DistanceMeters>NAN</DistanceMeters>
          </Trackpoint>
          <Trackpoint>
            <Time>2021-08-13T12:17:19.000Z</Time>
            <Position>
              <LatitudeDegrees>43.090809993445873260498046875</LatitudeDegrees>
              <LongitudeDegrees>-1.92575776018202304840087890625</LongitudeDegrees>
            </Position>
            <AltitudeMeters>481.399993896484375</AltitudeMeters>
            <DistanceMeters>NAN</DistanceMeters>
          </Trackpoint>
          <Trackpoint>
            <Time>2021-08-13T12:17:21.000Z</Time>
            <Position>
              <LatitudeDegrees>43.09074184857308864593505859375</LatitudeDegrees>
              <LongitudeDegrees>-1.9256696663796901702880859375</LongitudeDegrees>
            </Position>
            <AltitudeMeters>481.600006103515625</AltitudeMeters>
            <DistanceMeters>NAN</DistanceMeters>
          </Trackpoint>
          <Trackpoint>
            <Time>2021-08-13T12:17:23.000Z</Time>
            <Position>
              <LatitudeDegrees>43.0906760506331920623779296875</LatitudeDegrees>
              <LongitudeDegrees>-1.9255754537880420684814453125</LongitudeDegrees>
            </Position>
            <AltitudeMeters>481.79998779296875</AltitudeMeters>
            <DistanceMeters>NAN</DistanceMeters>
          </Trackpoint>
          <Trackpoint>
            <Time>2021-08-13T12:17:24.000Z</Time>
            <Position>
              <LatitudeDegrees>43.0906465463340282440185546875</LatitudeDegrees>
              <LongitudeDegrees>-1.9255295209586620330810546875</LongitudeDegrees>
            </Position>
            <AltitudeMeters>481.79998779296875</AltitudeMeters>
            <DistanceMeters>NAN</DistanceMeters>
          </Trackpoint>
          <Trackpoint>
            <Time>2021-08-13T12:17:25.000Z</Time>
            <Position>
              <LatitudeDegrees>43.09061586856842041015625</LatitudeDegrees>
              <LongitudeDegrees>-1.92548417486250400543212890625</LongitudeDegrees>
            </Position>
            <AltitudeMeters>481.79998779296875</AltitudeMeters>
            <DistanceMeters>NAN</DistanceMeters>
          </Trackpoint>
          <Trackpoint>
            <Time>2021-08-13T12:17:28.000Z</Time>
            <Position>
              <LatitudeDegrees>43.0905194766819477081298828125</LatitudeDegrees>
              <LongitudeDegrees>-1.92535492591559886932373046875</LongitudeDegrees>
            </Position>
            <AltitudeMeters>482.20001220703125</AltitudeMeters>
            <DistanceMeters>NAN</DistanceMeters>
          </Trackpoint>
          <Trackpoint>
            <Time>2021-08-13T12:17:29.000Z</Time>
            <Position>
              <LatitudeDegrees>43.0904866196215152740478515625</LatitudeDegrees>
              <LongitudeDegrees>-1.9253105856478214263916015625</LongitudeDegrees>
            </Position>
            <AltitudeMeters>482.399993896484375</AltitudeMeters>
            <DistanceMeters>NAN</DistanceMeters>
          </Trackpoint>
          <Trackpoint>
            <Time>2021-08-13T12:17:36.000Z</Time>
            <Position>
              <LatitudeDegrees>43.0902643315494060516357421875</LatitudeDegrees>
              <LongitudeDegrees>-1.924991570413112640380859375</LongitudeDegrees>
            </Position>
            <AltitudeMeters>482.79998779296875</AltitudeMeters>
            <DistanceMeters>NAN</DistanceMeters>
          </Trackpoint>
          <Trackpoint>
            <Time>2021-08-13T12:17:37.000Z</Time>
            <Position>
              <LatitudeDegrees>43.0902314744889736175537109375</LatitudeDegrees>
              <LongitudeDegrees>-1.92495376802980899810791015625</LongitudeDegrees>
            </Position>
            <AltitudeMeters>482.79998779296875</AltitudeMeters>
            <DistanceMeters>NAN</DistanceMeters>
          </Trackpoint>
          <Trackpoint>
            <Time>2021-08-13T12:17:41.000Z</Time>
            <Position>
              <LatitudeDegrees>43.09010733850300312042236328125</LatitudeDegrees>
              <LongitudeDegrees>-1.9247919134795665740966796875</LongitudeDegrees>
            </Position>
            <AltitudeMeters>483</AltitudeMeters>
            <DistanceMeters>NAN</DistanceMeters>
          </Trackpoint>
          <Trackpoint>
            <Time>2021-08-13T12:17:42.000Z</Time>
            <Position>
              <LatitudeDegrees>43.090076409280300140380859375</LatitudeDegrees>
              <LongitudeDegrees>-1.92474841140210628509521484375</LongitudeDegrees>
            </Position>
            <AltitudeMeters>483.20001220703125</AltitudeMeters>
            <DistanceMeters>NAN</DistanceMeters>
          </Trackpoint>
          <Trackpoint>
            <Time>2021-08-13T12:17:43.000Z</Time>
            <Position>
              <LatitudeDegrees>43.09004715643823146820068359375</LatitudeDegrees>
              <LongitudeDegrees>-1.924704574048519134521484375</LongitudeDegrees>
            </Position>
            <AltitudeMeters>483.20001220703125</AltitudeMeters>
            <DistanceMeters>NAN</DistanceMeters>
          </Trackpoint>
          <Trackpoint>
            <Time>2021-08-13T12:17:44.000Z</Time>
            <Position>
              <LatitudeDegrees>43.0900172330439090728759765625</LatitudeDegrees>
              <LongitudeDegrees>-1.92466191016137599945068359375</LongitudeDegrees>
            </Position>
            <AltitudeMeters>483.20001220703125</AltitudeMeters>
            <DistanceMeters>NAN</DistanceMeters>
          </Trackpoint>
          <Trackpoint>
            <Time>2021-08-13T12:17:47.000Z</Time>
            <Position>
              <LatitudeDegrees>43.0899277143180370330810546875</LatitudeDegrees>
              <LongitudeDegrees>-1.924526877701282501220703125</LongitudeDegrees>
            </Position>
            <AltitudeMeters>483.600006103515625</AltitudeMeters>
            <DistanceMeters>NAN</DistanceMeters>
          </Trackpoint>
          <Trackpoint>
            <Time>2021-08-13T12:17:49.000Z</Time>
            <Position>
              <LatitudeDegrees>43.0898754112422466278076171875</LatitudeDegrees>
              <LongitudeDegrees>-1.92442151717841625213623046875</LongitudeDegrees>
            </Position>
            <AltitudeMeters>484</AltitudeMeters>
            <DistanceMeters>NAN</DistanceMeters>
          </Trackpoint>
          <Trackpoint>
            <Time>2021-08-13T12:17:51.000Z</Time>
            <Position>
              <LatitudeDegrees>43.08981548063457012176513671875</LatitudeDegrees>
              <LongitudeDegrees>-1.92433618940412998199462890625</LongitudeDegrees>
            </Position>
            <AltitudeMeters>484.20001220703125</AltitudeMeters>
            <DistanceMeters>NAN</DistanceMeters>
          </Trackpoint>
          <Trackpoint>
            <Time>2021-08-13T12:17:52.000Z</Time>
            <Position>
              <LatitudeDegrees>43.089790083467960357666015625</LatitudeDegrees>
              <LongitudeDegrees>-1.92430366761982440948486328125</LongitudeDegrees>
            </Position>
            <AltitudeMeters>484.399993896484375</AltitudeMeters>
            <DistanceMeters>NAN</DistanceMeters>
          </Trackpoint>
          <Trackpoint>
            <Time>2021-08-13T12:17:53.000Z</Time>
            <Position>
              <LatitudeDegrees>43.0897697992622852325439453125</LatitudeDegrees>
              <LongitudeDegrees>-1.92427298985421657562255859375</LongitudeDegrees>
            </Position>
            <AltitudeMeters>484.399993896484375</AltitudeMeters>
            <DistanceMeters>NAN</DistanceMeters>
          </Trackpoint>
          <Trackpoint>
            <Time>2021-08-13T12:17:54.000Z</Time>
            <Position>
              <LatitudeDegrees>43.08974892832338809967041015625</LatitudeDegrees>
              <LongitudeDegrees>-1.924249939620494842529296875</LongitudeDegrees>
            </Position>
            <AltitudeMeters>484.399993896484375</AltitudeMeters>
            <DistanceMeters>NAN</DistanceMeters>
          </Trackpoint>
          <Trackpoint>
            <Time>2021-08-13T12:17:55.000Z</Time>
            <Position>
              <LatitudeDegrees>43.0897305719554424285888671875</LatitudeDegrees>
              <LongitudeDegrees>-1.92422655411064624786376953125</LongitudeDegrees>
            </Position>
            <AltitudeMeters>484.600006103515625</AltitudeMeters>
            <DistanceMeters>NAN</DistanceMeters>
          </Trackpoint>
          <Trackpoint>
            <Time>2021-08-13T12:17:56.000Z</Time>
            <Position>
              <LatitudeDegrees>43.08971925638616085052490234375</LatitudeDegrees>
              <LongitudeDegrees>-1.9241971336305141448974609375</LongitudeDegrees>
            </Position>
            <AltitudeMeters>484.79998779296875</AltitudeMeters>
            <DistanceMeters>NAN</DistanceMeters>
          </Trackpoint>
          <Trackpoint>
            <Time>2021-08-13T12:17:57.000Z</Time>
            <Position>
              <LatitudeDegrees>43.08971573598682880401611328125</LatitudeDegrees>
              <LongitudeDegrees>-1.9241666235029697418212890625</LongitudeDegrees>
            </Position>
            <AltitudeMeters>485</AltitudeMeters>
            <DistanceMeters>NAN</DistanceMeters>
          </Trackpoint>
          <Trackpoint>
            <Time>2021-08-13T12:17:58.000Z</Time>
            <Position>
              <LatitudeDegrees>43.08970861136913299560546875</LatitudeDegrees>
              <LongitudeDegrees>-1.9241361133754253387451171875</LongitudeDegrees>
            </Position>
            <AltitudeMeters>485</AltitudeMeters>
            <DistanceMeters>NAN</DistanceMeters>
          </Trackpoint>
          <Trackpoint>
            <Time>2021-08-13T12:17:59.000Z</Time>
            <Position>
              <LatitudeDegrees>43.0896930210292339324951171875</LatitudeDegrees>
              <LongitudeDegrees>-1.924103759229183197021484375</LongitudeDegrees>
            </Position>
            <AltitudeMeters>485</AltitudeMeters>
            <DistanceMeters>NAN</DistanceMeters>
          </Trackpoint>
          <Trackpoint>
            <Time>2021-08-13T12:18:00.000Z</Time>
            <Position>
              <LatitudeDegrees>43.0896802805364131927490234375</LatitudeDegrees>
              <LongitudeDegrees>-1.9240687228739261627197265625</LongitudeDegrees>
            </Position>
            <AltitudeMeters>485.20001220703125</AltitudeMeters>
            <DistanceMeters>NAN</DistanceMeters>
          </Trackpoint>
          <Trackpoint>
            <Time>2021-08-13T12:18:02.000Z</Time>
            <Position>
              <LatitudeDegrees>43.08966301381587982177734375</LatitudeDegrees>
              <LongitudeDegrees>-1.92398968152701854705810546875</LongitudeDegrees>
            </Position>
            <AltitudeMeters>485.399993896484375</AltitudeMeters>
            <DistanceMeters>NAN</DistanceMeters>
          </Trackpoint>
          <Trackpoint>
            <Time>2021-08-13T12:18:11.000Z</Time>
            <Position>
              <LatitudeDegrees>43.0895602516829967498779296875</LatitudeDegrees>
              <LongitudeDegrees>-1.9236360490322113037109375</LongitudeDegrees>
            </Position>
            <AltitudeMeters>485.600006103515625</AltitudeMeters>
            <DistanceMeters>NAN</DistanceMeters>
          </Trackpoint>
          <Trackpoint>
            <Time>2021-08-13T12:18:17.000Z</Time>
            <Position>
              <LatitudeDegrees>43.0894298292696475982666015625</LatitudeDegrees>
              <LongitudeDegrees>-1.92341082729399204254150390625</LongitudeDegrees>
            </Position>
            <AltitudeMeters>486</AltitudeMeters>
            <DistanceMeters>NAN</DistanceMeters>
          </Trackpoint>
          <Trackpoint>
            <Time>2021-08-13T12:18:18.000Z</Time>
            <Position>
              <LatitudeDegrees>43.08941423892974853515625</LatitudeDegrees>
              <LongitudeDegrees>-1.92338149063289165496826171875</LongitudeDegrees>
            </Position>
            <AltitudeMeters>486</AltitudeMeters>
            <DistanceMeters>NAN</DistanceMeters>
          </Trackpoint>
          <Trackpoint>
            <Time>2021-08-13T12:18:25.000Z</Time>
            <Position>
              <LatitudeDegrees>43.08928825892508029937744140625</LatitudeDegrees>
              <LongitudeDegrees>-1.92305576987564563751220703125</LongitudeDegrees>
            </Position>
            <AltitudeMeters>486.79998779296875</AltitudeMeters>
            <DistanceMeters>NAN</DistanceMeters>
          </Trackpoint>
          <Trackpoint>
            <Time>2021-08-13T12:18:29.000Z</Time>
            <Position>
              <LatitudeDegrees>43.08919857256114482879638671875</LatitudeDegrees>
              <LongitudeDegrees>-1.92284421063959598541259765625</LongitudeDegrees>
            </Position>
            <AltitudeMeters>487</AltitudeMeters>
            <DistanceMeters>NAN</DistanceMeters>
          </Trackpoint>
          <Trackpoint>
            <Time>2021-08-13T12:18:31.000Z</Time>
            <Position>
              <LatitudeDegrees>43.08916102163493633270263671875</LatitudeDegrees>
              <LongitudeDegrees>-1.92274949513375759124755859375</LongitudeDegrees>
            </Position>
            <AltitudeMeters>487.20001220703125</AltitudeMeters>
            <DistanceMeters>NAN</DistanceMeters>
          </Trackpoint>
          <Trackpoint>
            <Time>2021-08-13T12:18:32.000Z</Time>
            <Position>
              <LatitudeDegrees>43.08915674686431884765625</LatitudeDegrees>
              <LongitudeDegrees>-1.92270859144628047943115234375</LongitudeDegrees>
            </Position>
            <AltitudeMeters>487.20001220703125</AltitudeMeters>
            <DistanceMeters>NAN</DistanceMeters>
          </Trackpoint>
          <Trackpoint>
            <Time>2021-08-13T12:18:33.000Z</Time>
            <Position>
              <LatitudeDegrees>43.0891500413417816162109375</LatitudeDegrees>
              <LongitudeDegrees>-1.92265712656080722808837890625</LongitudeDegrees>
            </Position>
            <AltitudeMeters>487.399993896484375</AltitudeMeters>
            <DistanceMeters>NAN</DistanceMeters>
          </Trackpoint>
          <Trackpoint>
            <Time>2021-08-13T12:18:35.000Z</Time>
            <Position>
              <LatitudeDegrees>43.089120872318744659423828125</LatitudeDegrees>
              <LongitudeDegrees>-1.92254698835313320159912109375</LongitudeDegrees>
            </Position>
            <AltitudeMeters>487.600006103515625</AltitudeMeters>
            <DistanceMeters>NAN</DistanceMeters>
          </Trackpoint>
          <Trackpoint>
            <Time>2021-08-13T12:18:38.000Z</Time>
            <Position>
              <LatitudeDegrees>43.08907502330839633941650390625</LatitudeDegrees>
              <LongitudeDegrees>-1.92241899669170379638671875</LongitudeDegrees>
            </Position>
            <AltitudeMeters>488</AltitudeMeters>
            <DistanceMeters>NAN</DistanceMeters>
          </Trackpoint>
          <Trackpoint>
            <Time>2021-08-13T12:18:39.000Z</Time>
            <Position>
              <LatitudeDegrees>43.089060522615909576416015625</LatitudeDegrees>
              <LongitudeDegrees>-1.922400556504726409912109375</LongitudeDegrees>
            </Position>
            <AltitudeMeters>488</AltitudeMeters>
            <DistanceMeters>NAN</DistanceMeters>
          </Trackpoint>
          <Trackpoint>
            <Time>2021-08-13T12:19:20.000Z</Time>
            <Position>
              <LatitudeDegrees>43.0881951749324798583984375</LatitudeDegrees>
              <LongitudeDegrees>-1.92042351700365543365478515625</LongitudeDegrees>
            </Position>
            <AltitudeMeters>492.399993896484375</AltitudeMeters>
            <DistanceMeters>NAN</DistanceMeters>
          </Trackpoint>
          <Trackpoint>
            <Time>2021-08-13T12:19:21.000Z</Time>
            <Position>
              <LatitudeDegrees>43.0882513336837291717529296875</LatitudeDegrees>
              <LongitudeDegrees>-1.92037305794656276702880859375</LongitudeDegrees>
            </Position>
            <AltitudeMeters>492.399993896484375</AltitudeMeters>
            <DistanceMeters>NAN</DistanceMeters>
          </Trackpoint>
          <Trackpoint>
            <Time>2021-08-13T12:19:22.000Z</Time>
            <Position>
              <LatitudeDegrees>43.08823549188673496246337890625</LatitudeDegrees>
              <LongitudeDegrees>-1.9203491695225238800048828125</LongitudeDegrees>
            </Position>
            <AltitudeMeters>492.600006103515625</AltitudeMeters>
            <DistanceMeters>NAN</DistanceMeters>
          </Trackpoint>
          <Trackpoint>
            <Time>2021-08-13T12:19:23.000Z</Time>
            <Position>
              <LatitudeDegrees>43.08821487240493297576904296875</LatitudeDegrees>
              <LongitudeDegrees>-1.92028974182903766632080078125</LongitudeDegrees>
            </Position>
            <AltitudeMeters>492.600006103515625</AltitudeMeters>
            <DistanceMeters>NAN</DistanceMeters>
          </Trackpoint>
          <Trackpoint>
            <Time>2021-08-13T12:19:24.000Z</Time>
            <Position>
              <LatitudeDegrees>43.08817681856453418731689453125</LatitudeDegrees>
              <LongitudeDegrees>-1.92019318230450153350830078125</LongitudeDegrees>
            </Position>
            <AltitudeMeters>492.600006103515625</AltitudeMeters>
            <DistanceMeters>NAN</DistanceMeters>
          </Trackpoint>
          <Trackpoint>
            <Time>2021-08-13T12:19:25.000Z</Time>
            <Position>
              <LatitudeDegrees>43.08816256932914257049560546875</LatitudeDegrees>
              <LongitudeDegrees>-1.9201290607452392578125</LongitudeDegrees>
            </Position>
            <AltitudeMeters>492.399993896484375</AltitudeMeters>
            <DistanceMeters>NAN</DistanceMeters>
          </Trackpoint>
          <Trackpoint>
            <Time>2021-08-13T12:19:26.000Z</Time>
            <Position>
              <LatitudeDegrees>43.08813524432480335235595703125</LatitudeDegrees>
              <LongitudeDegrees>-1.92005605436861515045166015625</LongitudeDegrees>
            </Position>
            <AltitudeMeters>492.399993896484375</AltitudeMeters>
            <DistanceMeters>NAN</DistanceMeters>
          </Trackpoint>
          <Trackpoint>
            <Time>2021-08-13T12:19:27.000Z</Time>
            <Position>
              <LatitudeDegrees>43.08810733258724212646484375</LatitudeDegrees>
              <LongitudeDegrees>-1.91997307352721691131591796875</LongitudeDegrees>
            </Position>
            <AltitudeMeters>492.399993896484375</AltitudeMeters>
            <DistanceMeters>NAN</DistanceMeters>
          </Trackpoint>
          <Trackpoint>
            <Time>2021-08-13T12:19:28.000Z</Time>
            <Position>
              <LatitudeDegrees>43.088071458041667938232421875</LatitudeDegrees>
              <LongitudeDegrees>-1.91990031860768795013427734375</LongitudeDegrees>
            </Position>
            <AltitudeMeters>492.399993896484375</AltitudeMeters>
            <DistanceMeters>NAN</DistanceMeters>
          </Trackpoint>
          <Trackpoint>
            <Time>2021-08-13T12:19:29.000Z</Time>
            <Position>
              <LatitudeDegrees>43.0880448035895824432373046875</LatitudeDegrees>
              <LongitudeDegrees>-1.91985824145376682281494140625</LongitudeDegrees>
            </Position>
            <AltitudeMeters>492.399993896484375</AltitudeMeters>
            <DistanceMeters>NAN</DistanceMeters>
          </Trackpoint>
          <Trackpoint>
            <Time>2021-08-13T12:19:30.000Z</Time>
            <Position>
              <LatitudeDegrees>43.088010437786579132080078125</LatitudeDegrees>
              <LongitudeDegrees>-1.91981415264308452606201171875</LongitudeDegrees>
            </Position>
            <AltitudeMeters>492.399993896484375</AltitudeMeters>
            <DistanceMeters>NAN</DistanceMeters>
          </Trackpoint>
          <Trackpoint>
            <Time>2021-08-13T12:19:31.000Z</Time>
            <Position>
              <LatitudeDegrees>43.08799375779926776885986328125</LatitudeDegrees>
              <LongitudeDegrees>-1.91976469941437244415283203125</LongitudeDegrees>
            </Position>
            <AltitudeMeters>492.399993896484375</AltitudeMeters>
            <DistanceMeters>NAN</DistanceMeters>
          </Trackpoint>
          <Trackpoint>
            <Time>2021-08-13T12:19:32.000Z</Time>
            <Position>
              <LatitudeDegrees>43.087963163852691650390625</LatitudeDegrees>
              <LongitudeDegrees>-1.919721029698848724365234375</LongitudeDegrees>
            </Position>
            <AltitudeMeters>492.399993896484375</AltitudeMeters>
            <DistanceMeters>NAN</DistanceMeters>
          </Trackpoint>
          <Trackpoint>
            <Time>2021-08-13T12:19:33.000Z</Time>
            <Position>
              <LatitudeDegrees>43.08793575502932071685791015625</LatitudeDegrees>
              <LongitudeDegrees>-1.91964852623641490936279296875</LongitudeDegrees>
            </Position>
            <AltitudeMeters>492.20001220703125</AltitudeMeters>
            <DistanceMeters>NAN</DistanceMeters>
          </Trackpoint>
          <Trackpoint>
            <Time>2021-08-13T12:19:34.000Z</Time>
            <Position>
              <LatitudeDegrees>43.0879214219748973846435546875</LatitudeDegrees>
              <LongitudeDegrees>-1.9195890985429286956787109375</LongitudeDegrees>
            </Position>
            <AltitudeMeters>492</AltitudeMeters>
            <DistanceMeters>NAN</DistanceMeters>
          </Trackpoint>
          <Trackpoint>
            <Time>2021-08-13T12:19:35.000Z</Time>
            <Position>
              <LatitudeDegrees>43.08790792711079120635986328125</LatitudeDegrees>
              <LongitudeDegrees>-1.919522546231746673583984375</LongitudeDegrees>
            </Position>
            <AltitudeMeters>492</AltitudeMeters>
            <DistanceMeters>NAN</DistanceMeters>
          </Trackpoint>
          <Trackpoint>
            <Time>2021-08-13T12:19:36.000Z</Time>
            <Position>
              <LatitudeDegrees>43.0878979526460170745849609375</LatitudeDegrees>
              <LongitudeDegrees>-1.919450797140598297119140625</LongitudeDegrees>
            </Position>
            <AltitudeMeters>492</AltitudeMeters>
            <DistanceMeters>NAN</DistanceMeters>
          </Trackpoint>
          <Trackpoint>
            <Time>2021-08-13T12:19:37.000Z</Time>
            <Position>
              <LatitudeDegrees>43.08788579888641834259033203125</LatitudeDegrees>
              <LongitudeDegrees>-1.91939740441739559173583984375</LongitudeDegrees>
            </Position>
            <AltitudeMeters>492</AltitudeMeters>
            <DistanceMeters>NAN</DistanceMeters>
          </Trackpoint>
          <Trackpoint>
            <Time>2021-08-13T12:19:38.000Z</Time>
            <Position>
              <LatitudeDegrees>43.08785931207239627838134765625</LatitudeDegrees>
              <LongitudeDegrees>-1.91935750655829906463623046875</LongitudeDegrees>
            </Position>
            <AltitudeMeters>492</AltitudeMeters>
            <DistanceMeters>NAN</DistanceMeters>
          </Trackpoint>
          <Trackpoint>
            <Time>2021-08-13T12:19:39.000Z</Time>
            <Position>
              <LatitudeDegrees>43.08784053660929203033447265625</LatitudeDegrees>
              <LongitudeDegrees>-1.91931291483342647552490234375</LongitudeDegrees>
            </Position>
            <AltitudeMeters>491.79998779296875</AltitudeMeters>
            <DistanceMeters>NAN</DistanceMeters>
          </Trackpoint>
          <Trackpoint>
            <Time>2021-08-13T12:19:40.000Z</Time>
            <Position>
              <LatitudeDegrees>43.0878235213458538055419921875</LatitudeDegrees>
              <LongitudeDegrees>-1.9192601926624774932861328125</LongitudeDegrees>
            </Position>
            <AltitudeMeters>491.79998779296875</AltitudeMeters>
            <DistanceMeters>NAN</DistanceMeters>
          </Trackpoint>
          <Trackpoint>
            <Time>2021-08-13T12:19:41.000Z</Time>
            <Position>
              <LatitudeDegrees>43.087807260453701019287109375</LatitudeDegrees>
              <LongitudeDegrees>-1.91921367309987545013427734375</LongitudeDegrees>
            </Position>
            <AltitudeMeters>491.79998779296875</AltitudeMeters>
            <DistanceMeters>NAN</DistanceMeters>
          </Trackpoint>
          <Trackpoint>
            <Time>2021-08-13T12:19:42.000Z</Time>
            <Position>
              <LatitudeDegrees>43.0877866409718990325927734375</LatitudeDegrees>
              <LongitudeDegrees>-1.91914812661707401275634765625</LongitudeDegrees>
            </Position>
            <AltitudeMeters>491.79998779296875</AltitudeMeters>
            <DistanceMeters>NAN</DistanceMeters>
          </Trackpoint>
          <Trackpoint>
            <Time>2021-08-13T12:19:43.000Z</Time>
            <Position>
              <LatitudeDegrees>43.0877698771655559539794921875</LatitudeDegrees>
              <LongitudeDegrees>-1.91910839639604091644287109375</LongitudeDegrees>
            </Position>
            <AltitudeMeters>491.79998779296875</AltitudeMeters>
            <DistanceMeters>NAN</DistanceMeters>
          </Trackpoint>
          <Trackpoint>
            <Time>2021-08-13T12:19:44.000Z</Time>
            <Position>
              <LatitudeDegrees>43.087753616273403167724609375</LatitudeDegrees>
              <LongitudeDegrees>-1.9190670736134052276611328125</LongitudeDegrees>
            </Position>
            <AltitudeMeters>491.600006103515625</AltitudeMeters>
            <DistanceMeters>NAN</DistanceMeters>
          </Trackpoint>
          <Trackpoint>
            <Time>2021-08-13T12:19:45.000Z</Time>
            <Position>
              <LatitudeDegrees>43.08773810975253582000732421875</LatitudeDegrees>
              <LongitudeDegrees>-1.91901770420372486114501953125</LongitudeDegrees>
            </Position>
            <AltitudeMeters>491.600006103515625</AltitudeMeters>
            <DistanceMeters>NAN</DistanceMeters>
          </Trackpoint>
          <Trackpoint>
            <Time>2021-08-13T12:19:46.000Z</Time>
            <Position>
              <LatitudeDegrees>43.0877262912690639495849609375</LatitudeDegrees>
              <LongitudeDegrees>-1.91899440251290798187255859375</LongitudeDegrees>
            </Position>
            <AltitudeMeters>491.399993896484375</AltitudeMeters>
            <DistanceMeters>NAN</DistanceMeters>
          </Trackpoint>
          <Trackpoint>
            <Time>2021-08-13T12:19:47.000Z</Time>
            <Position>
              <LatitudeDegrees>43.08770902454853057861328125</LatitudeDegrees>
              <LongitudeDegrees>-1.9189597852528095245361328125</LongitudeDegrees>
            </Position>
            <AltitudeMeters>491.600006103515625</AltitudeMeters>
            <DistanceMeters>NAN</DistanceMeters>
          </Trackpoint>
          <Trackpoint>
            <Time>2021-08-13T12:19:49.000Z</Time>
            <Position>
              <LatitudeDegrees>43.0876659415662288665771484375</LatitudeDegrees>
              <LongitudeDegrees>-1.91885995678603649139404296875</LongitudeDegrees>
            </Position>
            <AltitudeMeters>491.600006103515625</AltitudeMeters>
            <DistanceMeters>NAN</DistanceMeters>
          </Trackpoint>
          <Trackpoint>
            <Time>2021-08-13T12:19:50.000Z</Time>
            <Position>
              <LatitudeDegrees>43.08763836510479450225830078125</LatitudeDegrees>
              <LongitudeDegrees>-1.91880916245281696319580078125</LongitudeDegrees>
            </Position>
            <AltitudeMeters>491.600006103515625</AltitudeMeters>
            <DistanceMeters>NAN</DistanceMeters>
          </Trackpoint>
          <Trackpoint>
            <Time>2021-08-13T12:19:55.000Z</Time>
            <Position>
              <LatitudeDegrees>43.087528981268405914306640625</LatitudeDegrees>
              <LongitudeDegrees>-1.918534152209758758544921875</LongitudeDegrees>
            </Position>
            <AltitudeMeters>491.399993896484375</AltitudeMeters>
            <DistanceMeters>NAN</DistanceMeters>
          </Trackpoint>
          <Trackpoint>
            <Time>2021-08-13T12:19:59.000Z</Time>
            <Position>
              <LatitudeDegrees>43.0874473415315151214599609375</LatitudeDegrees>
              <LongitudeDegrees>-1.91832418553531169891357421875</LongitudeDegrees>
            </Position>
            <AltitudeMeters>491.399993896484375</AltitudeMeters>
            <DistanceMeters>NAN</DistanceMeters>
          </Trackpoint>
          <Trackpoint>
            <Time>2021-08-13T12:20:00.000Z</Time>
            <Position>
              <LatitudeDegrees>43.0874253809452056884765625</LatitudeDegrees>
              <LongitudeDegrees>-1.91827037371695041656494140625</LongitudeDegrees>
            </Position>
            <AltitudeMeters>491.20001220703125</AltitudeMeters>
            <DistanceMeters>NAN</DistanceMeters>
          </Trackpoint>
          <Trackpoint>
            <Time>2021-08-13T12:20:03.000Z</Time>
            <Position>
              <LatitudeDegrees>43.0873636901378631591796875</LatitudeDegrees>
              <LongitudeDegrees>-1.9181242771446704864501953125</LongitudeDegrees>
            </Position>
            <AltitudeMeters>491.20001220703125</AltitudeMeters>
            <DistanceMeters>NAN</DistanceMeters>
          </Trackpoint>
          <Trackpoint>
            <Time>2021-08-13T12:20:04.000Z</Time>
            <Position>
              <LatitudeDegrees>43.08734248392283916473388671875</LatitudeDegrees>
              <LongitudeDegrees>-1.91806577146053314208984375</LongitudeDegrees>
            </Position>
            <AltitudeMeters>491.20001220703125</AltitudeMeters>
            <DistanceMeters>NAN</DistanceMeters>
          </Trackpoint>
          <Trackpoint>
            <Time>2021-08-13T12:20:05.000Z</Time>
            <Position>
              <LatitudeDegrees>43.08732890523970127105712890625</LatitudeDegrees>
              <LongitudeDegrees>-1.91802361048758029937744140625</LongitudeDegrees>
            </Position>
            <AltitudeMeters>491.20001220703125</AltitudeMeters>
            <DistanceMeters>NAN</DistanceMeters>
          </Trackpoint>
          <Trackpoint>
            <Time>2021-08-13T12:20:07.000Z</Time>
            <Position>
              <LatitudeDegrees>43.08729437179863452911376953125</LatitudeDegrees>
              <LongitudeDegrees>-1.91791154444217681884765625</LongitudeDegrees>
            </Position>
            <AltitudeMeters>491</AltitudeMeters>
            <DistanceMeters>NAN</DistanceMeters>
          </Trackpoint>
          <Trackpoint>
            <Time>2021-08-13T12:20:08.000Z</Time>
            <Position>
              <LatitudeDegrees>43.08727425523102283477783203125</LatitudeDegrees>
              <LongitudeDegrees>-1.91786217503249645233154296875</LongitudeDegrees>
            </Position>
            <AltitudeMeters>491</AltitudeMeters>
            <DistanceMeters>NAN</DistanceMeters>
          </Trackpoint>
          <Trackpoint>
            <Time>2021-08-13T12:20:09.000Z</Time>
            <Position>
              <LatitudeDegrees>43.08725128881633281707763671875</LatitudeDegrees>
              <LongitudeDegrees>-1.91781708039343357086181640625</LongitudeDegrees>
            </Position>
            <AltitudeMeters>491</AltitudeMeters>
            <DistanceMeters>NAN</DistanceMeters>
          </Trackpoint>
          <Trackpoint>
            <Time>2021-08-13T12:20:10.000Z</Time>
            <Position>
              <LatitudeDegrees>43.087229244410991668701171875</LatitudeDegrees>
              <LongitudeDegrees>-1.9177759252488613128662109375</LongitudeDegrees>
            </Position>
            <AltitudeMeters>491</AltitudeMeters>
            <DistanceMeters>NAN</DistanceMeters>
          </Trackpoint>
          <Trackpoint>
            <Time>2021-08-13T12:20:11.000Z</Time>
            <Position>
              <LatitudeDegrees>43.08721172623336315155029296875</LatitudeDegrees>
              <LongitudeDegrees>-1.91773049533367156982421875</LongitudeDegrees>
            </Position>
            <AltitudeMeters>491</AltitudeMeters>
            <DistanceMeters>NAN</DistanceMeters>
          </Trackpoint>
          <Trackpoint>
            <Time>2021-08-13T12:20:12.000Z</Time>
            <Position>
              <LatitudeDegrees>43.08719479478895664215087890625</LatitudeDegrees>
              <LongitudeDegrees>-1.91768632270395755767822265625</LongitudeDegrees>
            </Position>
            <AltitudeMeters>491</AltitudeMeters>
            <DistanceMeters>NAN</DistanceMeters>
          </Trackpoint>
          <Trackpoint>
            <Time>2021-08-13T12:20:13.000Z</Time>
            <Position>
              <LatitudeDegrees>43.08717970736324787139892578125</LatitudeDegrees>
              <LongitudeDegrees>-1.91764541901648044586181640625</LongitudeDegrees>
            </Position>
            <AltitudeMeters>491</AltitudeMeters>
            <DistanceMeters>NAN</DistanceMeters>
          </Trackpoint>
          <Trackpoint>
            <Time>2021-08-13T12:20:14.000Z</Time>
            <Position>
              <LatitudeDegrees>43.087164871394634246826171875</LatitudeDegrees>
              <LongitudeDegrees>-1.917607784271240234375</LongitudeDegrees>
            </Position>
            <AltitudeMeters>491</AltitudeMeters>
            <DistanceMeters>NAN</DistanceMeters>
          </Trackpoint>
          <Trackpoint>
            <Time>2021-08-13T12:20:15.000Z</Time>
            <Position>
              <LatitudeDegrees>43.08714718557894229888916015625</LatitudeDegrees>
              <LongitudeDegrees>-1.9175720773637294769287109375</LongitudeDegrees>
            </Position>
            <AltitudeMeters>491</AltitudeMeters>
            <DistanceMeters>NAN</DistanceMeters>
          </Trackpoint>
          <Trackpoint>
            <Time>2021-08-13T12:20:16.000Z</Time>
            <Position>
              <LatitudeDegrees>43.0871294997632503509521484375</LatitudeDegrees>
              <LongitudeDegrees>-1.917539052665233612060546875</LongitudeDegrees>
            </Position>
            <AltitudeMeters>491</AltitudeMeters>
            <DistanceMeters>NAN</DistanceMeters>
          </Trackpoint>
          <Trackpoint>
            <Time>2021-08-13T12:20:17.000Z</Time>
            <Position>
              <LatitudeDegrees>43.087113238871097564697265625</LatitudeDegrees>
              <LongitudeDegrees>-1.91751725971698760986328125</LongitudeDegrees>
            </Position>
            <AltitudeMeters>491</AltitudeMeters>
            <DistanceMeters>NAN</DistanceMeters>
          </Trackpoint>
          <Trackpoint>
            <Time>2021-08-13T12:20:18.000Z</Time>
            <Position>
              <LatitudeDegrees>43.0870979838073253631591796875</LatitudeDegrees>
              <LongitudeDegrees>-1.917501501739025115966796875</LongitudeDegrees>
            </Position>
            <AltitudeMeters>491.20001220703125</AltitudeMeters>
            <DistanceMeters>NAN</DistanceMeters>
          </Trackpoint>
          <Trackpoint>
            <Time>2021-08-13T12:20:19.000Z</Time>
            <Position>
              <LatitudeDegrees>43.08708214201033115386962890625</LatitudeDegrees>
              <LongitudeDegrees>-1.91748800687491893768310546875</LongitudeDegrees>
            </Position>
            <AltitudeMeters>491.20001220703125</AltitudeMeters>
            <DistanceMeters>NAN</DistanceMeters>
          </Trackpoint>
          <Trackpoint>
            <Time>2021-08-13T12:20:20.000Z</Time>
            <Position>
              <LatitudeDegrees>43.0870718322694301605224609375</LatitudeDegrees>
              <LongitudeDegrees>-1.917473338544368743896484375</LongitudeDegrees>
            </Position>
            <AltitudeMeters>491.20001220703125</AltitudeMeters>
            <DistanceMeters>NAN</DistanceMeters>
          </Trackpoint>
          <Trackpoint>
            <Time>2021-08-13T12:20:21.000Z</Time>
            <Position>
              <LatitudeDegrees>43.087066300213336944580078125</LatitudeDegrees>
              <LongitudeDegrees>-1.91746587865054607391357421875</LongitudeDegrees>
            </Position>
            <AltitudeMeters>491.20001220703125</AltitudeMeters>
            <DistanceMeters>NAN</DistanceMeters>
          </Trackpoint>
          <Trackpoint>
            <Time>2021-08-13T12:20:22.000Z</Time>
            <Position>
              <LatitudeDegrees>43.08706252835690975189208984375</LatitudeDegrees>
              <LongitudeDegrees>-1.91746587865054607391357421875</LongitudeDegrees>
            </Position>
            <AltitudeMeters>491.20001220703125</AltitudeMeters>
            <DistanceMeters>NAN</DistanceMeters>
          </Trackpoint>
          <Trackpoint>
            <Time>2021-08-13T12:20:23.000Z</Time>
            <Position>
              <LatitudeDegrees>43.08705062605440616607666015625</LatitudeDegrees>
              <LongitudeDegrees>-1.91746638156473636627197265625</LongitudeDegrees>
            </Position>
            <AltitudeMeters>491.20001220703125</AltitudeMeters>
            <DistanceMeters>NAN</DistanceMeters>
          </Trackpoint>
          <Trackpoint>
            <Time>2021-08-13T12:20:24.000Z</Time>
            <Position>
              <LatitudeDegrees>43.0870396457612514495849609375</LatitudeDegrees>
              <LongitudeDegrees>-1.9174617715179920196533203125</LongitudeDegrees>
            </Position>
            <AltitudeMeters>491.399993896484375</AltitudeMeters>
            <DistanceMeters>NAN</DistanceMeters>
          </Trackpoint>
          <Trackpoint>
            <Time>2021-08-13T12:20:25.000Z</Time>
            <Position>
              <LatitudeDegrees>43.087036125361919403076171875</LatitudeDegrees>
              <LongitudeDegrees>-1.91745766438543796539306640625</LongitudeDegrees>
            </Position>
            <AltitudeMeters>491.399993896484375</AltitudeMeters>
            <DistanceMeters>NAN</DistanceMeters>
          </Trackpoint>
          <Trackpoint>
            <Time>2021-08-13T12:20:37.000Z</Time>
            <Position>
              <LatitudeDegrees>43.087040483951568603515625</LatitudeDegrees>
              <LongitudeDegrees>-1.917455233633518218994140625</LongitudeDegrees>
            </Position>
            <AltitudeMeters>491.399993896484375</AltitudeMeters>
            <DistanceMeters>NAN</DistanceMeters>
          </Trackpoint>
          <Trackpoint>
            <Time>2021-08-13T12:20:45.000Z</Time>
            <Position>
              <LatitudeDegrees>43.08705724775791168212890625</LatitudeDegrees>
              <LongitudeDegrees>-1.9174406491219997406005859375</LongitudeDegrees>
            </Position>
            <AltitudeMeters>491.20001220703125</AltitudeMeters>
            <DistanceMeters>NAN</DistanceMeters>
          </Trackpoint>
          <Trackpoint>
            <Time>2021-08-13T12:20:46.000Z</Time>
            <Position>
              <LatitudeDegrees>43.0870768614113330841064453125</LatitudeDegrees>
              <LongitudeDegrees>-1.91744224168360233306884765625</LongitudeDegrees>
            </Position>
            <AltitudeMeters>491.20001220703125</AltitudeMeters>
            <DistanceMeters>NAN</DistanceMeters>
          </Trackpoint>
          <Trackpoint>
            <Time>2021-08-13T12:20:49.000Z</Time>
            <Position>
              <LatitudeDegrees>43.08712371625006198883056640625</LatitudeDegrees>
              <LongitudeDegrees>-1.9174857437610626220703125</LongitudeDegrees>
            </Position>
            <AltitudeMeters>491.20001220703125</AltitudeMeters>
            <DistanceMeters>NAN</DistanceMeters>
          </Trackpoint>
          <Trackpoint>
            <Time>2021-08-13T12:20:50.000Z</Time>
            <Position>
              <LatitudeDegrees>43.08713846839964389801025390625</LatitudeDegrees>
              <LongitudeDegrees>-1.9175006635487079620361328125</LongitudeDegrees>
            </Position>
            <AltitudeMeters>491.20001220703125</AltitudeMeters>
            <DistanceMeters>NAN</DistanceMeters>
          </Trackpoint>
          <Trackpoint>
            <Time>2021-08-13T12:20:52.000Z</Time>
            <Position>
              <LatitudeDegrees>43.0871650390326976776123046875</LatitudeDegrees>
              <LongitudeDegrees>-1.91752924583852291107177734375</LongitudeDegrees>
            </Position>
            <AltitudeMeters>491.20001220703125</AltitudeMeters>
            <DistanceMeters>NAN</DistanceMeters>
          </Trackpoint>
          <Trackpoint>
            <Time>2021-08-13T12:20:53.000Z</Time>
            <Position>
              <LatitudeDegrees>43.087173588573932647705078125</LatitudeDegrees>
              <LongitudeDegrees>-1.91753963939845561981201171875</LongitudeDegrees>
            </Position>
            <AltitudeMeters>491.399993896484375</AltitudeMeters>
            <DistanceMeters>NAN</DistanceMeters>
          </Trackpoint>
          <Trackpoint>
            <Time>2021-08-13T12:20:54.000Z</Time>
            <Position>
              <LatitudeDegrees>43.08717836625874042510986328125</LatitudeDegrees>
              <LongitudeDegrees>-1.9175449199974536895751953125</LongitudeDegrees>
            </Position>
            <AltitudeMeters>491.399993896484375</AltitudeMeters>
            <DistanceMeters>NAN</DistanceMeters>
          </Trackpoint>
          <Trackpoint>
            <Time>2021-08-13T12:20:57.000Z</Time>
            <Position>
              <LatitudeDegrees>43.08717836625874042510986328125</LatitudeDegrees>
              <LongitudeDegrees>-1.9175449199974536895751953125</LongitudeDegrees>
            </Position>
            <AltitudeMeters>491.399993896484375</AltitudeMeters>
            <DistanceMeters>NAN</DistanceMeters>
          </Trackpoint>
          <Trackpoint>
            <Time>2021-08-13T12:21:05.000Z</Time>
            <Position>
              <LatitudeDegrees>43.0871700681746006011962890625</LatitudeDegrees>
              <LongitudeDegrees>-1.91757836379110813140869140625</LongitudeDegrees>
            </Position>
            <AltitudeMeters>491.399993896484375</AltitudeMeters>
            <DistanceMeters>NAN</DistanceMeters>
          </Trackpoint>
          <Trackpoint>
            <Time>2021-08-13T12:21:06.000Z</Time>
            <Position>
              <LatitudeDegrees>43.08715908788144588470458984375</LatitudeDegrees>
              <LongitudeDegrees>-1.91758054308593273162841796875</LongitudeDegrees>
            </Position>
            <AltitudeMeters>491.399993896484375</AltitudeMeters>
            <DistanceMeters>NAN</DistanceMeters>
          </Trackpoint>
          <Trackpoint>
            <Time>2021-08-13T12:21:07.000Z</Time>
            <Position>
              <LatitudeDegrees>43.087146766483783721923828125</LatitudeDegrees>
              <LongitudeDegrees>-1.91757366992533206939697265625</LongitudeDegrees>
            </Position>
            <AltitudeMeters>491.399993896484375</AltitudeMeters>
            <DistanceMeters>NAN</DistanceMeters>
          </Trackpoint>
          <Trackpoint>
            <Time>2021-08-13T12:21:10.000Z</Time>
            <Position>
              <LatitudeDegrees>43.087115250527858734130859375</LatitudeDegrees>
              <LongitudeDegrees>-1.9175144098699092864990234375</LongitudeDegrees>
            </Position>
            <AltitudeMeters>491.600006103515625</AltitudeMeters>
            <DistanceMeters>NAN</DistanceMeters>
          </Trackpoint>
          <Trackpoint>
            <Time>2021-08-13T12:21:11.000Z</Time>
            <Position>
              <LatitudeDegrees>43.08710862882435321807861328125</LatitudeDegrees>
              <LongitudeDegrees>-1.91749890334904193878173828125</LongitudeDegrees>
            </Position>
            <AltitudeMeters>491.600006103515625</AltitudeMeters>
            <DistanceMeters>NAN</DistanceMeters>
          </Trackpoint>
          <Trackpoint>
            <Time>2021-08-13T12:21:12.000Z</Time>
            <Position>
              <LatitudeDegrees>43.08709907345473766326904296875</LatitudeDegrees>
              <LongitudeDegrees>-1.917493455111980438232421875</LongitudeDegrees>
            </Position>
            <AltitudeMeters>491.600006103515625</AltitudeMeters>
            <DistanceMeters>NAN</DistanceMeters>
          </Trackpoint>
          <Trackpoint>
            <Time>2021-08-13T12:21:13.000Z</Time>
            <Position>
              <LatitudeDegrees>43.08708683587610721588134765625</LatitudeDegrees>
              <LongitudeDegrees>-1.917494125664234161376953125</LongitudeDegrees>
            </Position>
            <AltitudeMeters>491.600006103515625</AltitudeMeters>
            <DistanceMeters>NAN</DistanceMeters>
          </Trackpoint>
          <Trackpoint>
            <Time>2021-08-13T12:21:14.000Z</Time>
            <Position>
              <LatitudeDegrees>43.0870751850306987762451171875</LatitudeDegrees>
              <LongitudeDegrees>-1.91749856807291507720947265625</LongitudeDegrees>
            </Position>
            <AltitudeMeters>491.600006103515625</AltitudeMeters>
            <DistanceMeters>NAN</DistanceMeters>
          </Trackpoint>
          <Trackpoint>
            <Time>2021-08-13T12:21:16.000Z</Time>
            <Position>
              <LatitudeDegrees>43.08705263771116733551025390625</LatitudeDegrees>
              <LongitudeDegrees>-1.917508877813816070556640625</LongitudeDegrees>
            </Position>
            <AltitudeMeters>491.600006103515625</AltitudeMeters>
            <DistanceMeters>NAN</DistanceMeters>
          </Trackpoint>
          <Trackpoint>
            <Time>2021-08-13T12:21:17.000Z</Time>
            <Position>
              <LatitudeDegrees>43.08704190887510776519775390625</LatitudeDegrees>
              <LongitudeDegrees>-1.9175098836421966552734375</LongitudeDegrees>
            </Position>
            <AltitudeMeters>491.600006103515625</AltitudeMeters>
            <DistanceMeters>NAN</DistanceMeters>
          </Trackpoint>
          <Trackpoint>
            <Time>2021-08-13T12:21:18.000Z</Time>
            <Position>
              <LatitudeDegrees>43.08703151531517505645751953125</LatitudeDegrees>
              <LongitudeDegrees>-1.91750728525221347808837890625</LongitudeDegrees>
            </Position>
            <AltitudeMeters>491.600006103515625</AltitudeMeters>
            <DistanceMeters>NAN</DistanceMeters>
          </Trackpoint>
          <Trackpoint>
            <Time>2021-08-13T12:21:19.000Z</Time>
            <Position>
              <LatitudeDegrees>43.087019026279449462890625</LatitudeDegrees>
              <LongitudeDegrees>-1.9175070337951183319091796875</LongitudeDegrees>
            </Position>
            <AltitudeMeters>491.600006103515625</AltitudeMeters>
            <DistanceMeters>NAN</DistanceMeters>
          </Trackpoint>
          <Trackpoint>
            <Time>2021-08-13T12:21:20.000Z</Time>
            <Position>
              <LatitudeDegrees>43.08700628578662872314453125</LatitudeDegrees>
              <LongitudeDegrees>-1.91750661469995975494384765625</LongitudeDegrees>
            </Position>
            <AltitudeMeters>491.600006103515625</AltitudeMeters>
            <DistanceMeters>NAN</DistanceMeters>
          </Trackpoint>
          <Trackpoint>
            <Time>2021-08-13T12:21:21.000Z</Time>
            <Position>
              <LatitudeDegrees>43.0869943834841251373291015625</LatitudeDegrees>
              <LongitudeDegrees>-1.91750929690897464752197265625</LongitudeDegrees>
            </Position>
            <AltitudeMeters>491.600006103515625</AltitudeMeters>
            <DistanceMeters>NAN</DistanceMeters>
          </Trackpoint>
          <Trackpoint>
            <Time>2021-08-13T12:21:23.000Z</Time>
            <Position>
              <LatitudeDegrees>43.0869658850133419036865234375</LatitudeDegrees>
              <LongitudeDegrees>-1.9175152480602264404296875</LongitudeDegrees>
            </Position>
            <AltitudeMeters>491.600006103515625</AltitudeMeters>
            <DistanceMeters>NAN</DistanceMeters>
          </Trackpoint>
          <Trackpoint>
            <Time>2021-08-13T12:21:28.000Z</Time>
            <Position>
              <LatitudeDegrees>43.08689656667411327362060546875</LatitudeDegrees>
              <LongitudeDegrees>-1.91754248924553394317626953125</LongitudeDegrees>
            </Position>
            <AltitudeMeters>491.399993896484375</AltitudeMeters>
            <DistanceMeters>NAN</DistanceMeters>
          </Trackpoint>
          <Trackpoint>
            <Time>2021-08-13T12:21:30.000Z</Time>
            <Position>
              <LatitudeDegrees>43.08687661774456501007080078125</LatitudeDegrees>
              <LongitudeDegrees>-1.91752740181982517242431640625</LongitudeDegrees>
            </Position>
            <AltitudeMeters>491.399993896484375</AltitudeMeters>
            <DistanceMeters>NAN</DistanceMeters>
          </Trackpoint>
          <Trackpoint>
            <Time>2021-08-13T12:21:34.000Z</Time>
            <Position>
              <LatitudeDegrees>43.08687661774456501007080078125</LatitudeDegrees>
              <LongitudeDegrees>-1.91752740181982517242431640625</LongitudeDegrees>
            </Position>
            <AltitudeMeters>491.20001220703125</AltitudeMeters>
            <DistanceMeters>NAN</DistanceMeters>
          </Trackpoint>
          <Trackpoint>
            <Time>2021-08-13T12:21:44.000Z</Time>
            <Position>
              <LatitudeDegrees>43.08687661774456501007080078125</LatitudeDegrees>
              <LongitudeDegrees>-1.91752740181982517242431640625</LongitudeDegrees>
            </Position>
            <AltitudeMeters>491.79998779296875</AltitudeMeters>
            <DistanceMeters>NAN</DistanceMeters>
          </Trackpoint>
          <Trackpoint>
            <Time>2021-08-13T12:21:46.000Z</Time>
            <Position>
              <LatitudeDegrees>43.08687661774456501007080078125</LatitudeDegrees>
              <LongitudeDegrees>-1.91752740181982517242431640625</LongitudeDegrees>
            </Position>
            <AltitudeMeters>491.79998779296875</AltitudeMeters>
            <DistanceMeters>NAN</DistanceMeters>
          </Trackpoint>
          <Trackpoint>
            <Time>2021-08-13T12:22:10.000Z</Time>
            <Position>
              <LatitudeDegrees>43.08687661774456501007080078125</LatitudeDegrees>
              <LongitudeDegrees>-1.91752740181982517242431640625</LongitudeDegrees>
            </Position>
            <AltitudeMeters>492</AltitudeMeters>
            <DistanceMeters>NAN</DistanceMeters>
          </Trackpoint>
          <Trackpoint>
            <Time>2021-08-13T12:23:09.000Z</Time>
            <Position>
              <LatitudeDegrees>43.08686220087110996246337890625</LatitudeDegrees>
              <LongitudeDegrees>-1.917541064321994781494140625</LongitudeDegrees>
            </Position>
            <AltitudeMeters>491.79998779296875</AltitudeMeters>
            <DistanceMeters>NAN</DistanceMeters>
          </Trackpoint>
          <Trackpoint>
            <Time>2021-08-13T12:23:11.000Z</Time>
            <Position>
              <LatitudeDegrees>43.0868321098387241363525390625</LatitudeDegrees>
              <LongitudeDegrees>-1.91759680397808551788330078125</LongitudeDegrees>
            </Position>
            <AltitudeMeters>491.79998779296875</AltitudeMeters>
            <DistanceMeters>NAN</DistanceMeters>
          </Trackpoint>
          <Trackpoint>
            <Time>2021-08-13T12:23:16.000Z</Time>
            <Position>
              <LatitudeDegrees>43.086712919175624847412109375</LatitudeDegrees>
              <LongitudeDegrees>-1.91774684004485607147216796875</LongitudeDegrees>
            </Position>
            <AltitudeMeters>491.600006103515625</AltitudeMeters>
            <DistanceMeters>NAN</DistanceMeters>
          </Trackpoint>
          <Trackpoint>
            <Time>2021-08-13T12:23:17.000Z</Time>
            <Position>
              <LatitudeDegrees>43.08668148703873157501220703125</LatitudeDegrees>
              <LongitudeDegrees>-1.91776108928024768829345703125</LongitudeDegrees>
            </Position>
            <AltitudeMeters>491.399993896484375</AltitudeMeters>
            <DistanceMeters>NAN</DistanceMeters>
          </Trackpoint>
          <Trackpoint>
            <Time>2021-08-13T12:23:18.000Z</Time>
            <Position>
              <LatitudeDegrees>43.0866550840437412261962890625</LatitudeDegrees>
              <LongitudeDegrees>-1.91777097992599010467529296875</LongitudeDegrees>
            </Position>
            <AltitudeMeters>491.399993896484375</AltitudeMeters>
            <DistanceMeters>NAN</DistanceMeters>
          </Trackpoint>
          <Trackpoint>
            <Time>2021-08-13T12:23:19.000Z</Time>
            <Position>
              <LatitudeDegrees>43.08662750758230686187744140625</LatitudeDegrees>
              <LongitudeDegrees>-1.917778439819812774658203125</LongitudeDegrees>
            </Position>
            <AltitudeMeters>491.20001220703125</AltitudeMeters>
            <DistanceMeters>NAN</DistanceMeters>
          </Trackpoint>
          <Trackpoint>
            <Time>2021-08-13T12:23:23.000Z</Time>
            <Position>
              <LatitudeDegrees>43.0864891223609447479248046875</LatitudeDegrees>
              <LongitudeDegrees>-1.91776846535503864288330078125</LongitudeDegrees>
            </Position>
            <AltitudeMeters>490.79998779296875</AltitudeMeters>
            <DistanceMeters>NAN</DistanceMeters>
          </Trackpoint>
          <Trackpoint>
            <Time>2021-08-13T12:23:26.000Z</Time>
            <Position>
              <LatitudeDegrees>43.086394406855106353759765625</LatitudeDegrees>
              <LongitudeDegrees>-1.91774256527423858642578125</LongitudeDegrees>
            </Position>
            <AltitudeMeters>490.399993896484375</AltitudeMeters>
            <DistanceMeters>NAN</DistanceMeters>
          </Trackpoint>
          <Trackpoint>
            <Time>2021-08-13T12:23:27.000Z</Time>
            <Position>
              <LatitudeDegrees>43.0863687582314014434814453125</LatitudeDegrees>
              <LongitudeDegrees>-1.9177330099046230316162109375</LongitudeDegrees>
            </Position>
            <AltitudeMeters>490.20001220703125</AltitudeMeters>
            <DistanceMeters>NAN</DistanceMeters>
          </Trackpoint>
          <Trackpoint>
            <Time>2021-08-13T12:23:28.000Z</Time>
            <Position>
              <LatitudeDegrees>43.08634520508348941802978515625</LatitudeDegrees>
              <LongitudeDegrees>-1.9177236221730709075927734375</LongitudeDegrees>
            </Position>
            <AltitudeMeters>490</AltitudeMeters>
            <DistanceMeters>NAN</DistanceMeters>
          </Trackpoint>
          <Trackpoint>
            <Time>2021-08-13T12:23:29.000Z</Time>
            <Position>
              <LatitudeDegrees>43.086323328316211700439453125</LatitudeDegrees>
              <LongitudeDegrees>-1.9177137315273284912109375</LongitudeDegrees>
            </Position>
            <AltitudeMeters>489.600006103515625</AltitudeMeters>
            <DistanceMeters>NAN</DistanceMeters>
          </Trackpoint>
          <Trackpoint>
            <Time>2021-08-13T12:23:30.000Z</Time>
            <Position>
              <LatitudeDegrees>43.0863040499389171600341796875</LatitudeDegrees>
              <LongitudeDegrees>-1.9176981411874294281005859375</LongitudeDegrees>
            </Position>
            <AltitudeMeters>489.600006103515625</AltitudeMeters>
            <DistanceMeters>NAN</DistanceMeters>
          </Trackpoint>
          <Trackpoint>
            <Time>2021-08-13T12:23:31.000Z</Time>
            <Position>
              <LatitudeDegrees>43.0862876214087009429931640625</LatitudeDegrees>
              <LongitudeDegrees>-1.91768162883818149566650390625</LongitudeDegrees>
            </Position>
            <AltitudeMeters>489.399993896484375</AltitudeMeters>
            <DistanceMeters>NAN</DistanceMeters>
          </Trackpoint>
          <Trackpoint>
            <Time>2021-08-13T12:23:32.000Z</Time>
            <Position>
              <LatitudeDegrees>43.08627270162105560302734375</LatitudeDegrees>
              <LongitudeDegrees>-1.91767207346856594085693359375</LongitudeDegrees>
            </Position>
            <AltitudeMeters>489.399993896484375</AltitudeMeters>
            <DistanceMeters>NAN</DistanceMeters>
          </Trackpoint>
          <Trackpoint>
            <Time>2021-08-13T12:23:33.000Z</Time>
            <Position>
              <LatitudeDegrees>43.08626574464142322540283203125</LatitudeDegrees>
              <LongitudeDegrees>-1.91766880452632904052734375</LongitudeDegrees>
            </Position>
            <AltitudeMeters>489.20001220703125</AltitudeMeters>
            <DistanceMeters>NAN</DistanceMeters>
          </Trackpoint>
          <Trackpoint>
            <Time>2021-08-13T12:23:35.000Z</Time>
            <Position>
              <LatitudeDegrees>43.08626574464142322540283203125</LatitudeDegrees>
              <LongitudeDegrees>-1.91766880452632904052734375</LongitudeDegrees>
            </Position>
            <AltitudeMeters>489</AltitudeMeters>
            <DistanceMeters>NAN</DistanceMeters>
          </Trackpoint>
          <Trackpoint>
            <Time>2021-08-13T12:23:42.000Z</Time>
            <Position>
              <LatitudeDegrees>43.08620790950953960418701171875</LatitudeDegrees>
              <LongitudeDegrees>-1.917675845324993133544921875</LongitudeDegrees>
            </Position>
            <AltitudeMeters>488.600006103515625</AltitudeMeters>
            <DistanceMeters>NAN</DistanceMeters>
          </Trackpoint>
          <Trackpoint>
            <Time>2021-08-13T12:23:46.000Z</Time>
            <Position>
              <LatitudeDegrees>43.0860968492925167083740234375</LatitudeDegrees>
              <LongitudeDegrees>-1.91766788251698017120361328125</LongitudeDegrees>
            </Position>
            <AltitudeMeters>488.399993896484375</AltitudeMeters>
            <DistanceMeters>NAN</DistanceMeters>
          </Trackpoint>
          <Trackpoint>
            <Time>2021-08-13T12:23:47.000Z</Time>
            <Position>
              <LatitudeDegrees>43.0860592983663082122802734375</LatitudeDegrees>
              <LongitudeDegrees>-1.91765212453901767730712890625</LongitudeDegrees>
            </Position>
            <AltitudeMeters>488.399993896484375</AltitudeMeters>
            <DistanceMeters>NAN</DistanceMeters>
          </Trackpoint>
          <Trackpoint>
            <Time>2021-08-13T12:23:49.000Z</Time>
            <Position>
              <LatitudeDegrees>43.0860073305666446685791015625</LatitudeDegrees>
              <LongitudeDegrees>-1.91763619892299175262451171875</LongitudeDegrees>
            </Position>
            <AltitudeMeters>488.20001220703125</AltitudeMeters>
            <DistanceMeters>NAN</DistanceMeters>
          </Trackpoint>
          <Trackpoint>
            <Time>2021-08-13T12:23:50.000Z</Time>
            <Position>
              <LatitudeDegrees>43.0859892256557941436767578125</LatitudeDegrees>
              <LongitudeDegrees>-1.91763184033334255218505859375</LongitudeDegrees>
            </Position>
            <AltitudeMeters>488.20001220703125</AltitudeMeters>
            <DistanceMeters>NAN</DistanceMeters>
          </Trackpoint>
          <Trackpoint>
            <Time>2021-08-13T12:23:51.000Z</Time>
            <Position>
              <LatitudeDegrees>43.0859640799462795257568359375</LatitudeDegrees>
              <LongitudeDegrees>-1.917623542249202728271484375</LongitudeDegrees>
            </Position>
            <AltitudeMeters>488</AltitudeMeters>
            <DistanceMeters>NAN</DistanceMeters>
          </Trackpoint>
          <Trackpoint>
            <Time>2021-08-13T12:23:54.000Z</Time>
            <Position>
              <LatitudeDegrees>43.08585964143276214599609375</LatitudeDegrees>
              <LongitudeDegrees>-1.917587332427501678466796875</LongitudeDegrees>
            </Position>
            <AltitudeMeters>487.600006103515625</AltitudeMeters>
            <DistanceMeters>NAN</DistanceMeters>
          </Trackpoint>
          <Trackpoint>
            <Time>2021-08-13T12:23:56.000Z</Time>
            <Position>
              <LatitudeDegrees>43.0857945978641510009765625</LatitudeDegrees>
              <LongitudeDegrees>-1.91755388863384723663330078125</LongitudeDegrees>
            </Position>
            <AltitudeMeters>487.399993896484375</AltitudeMeters>
            <DistanceMeters>NAN</DistanceMeters>
          </Trackpoint>
          <Trackpoint>
            <Time>2021-08-13T12:23:58.000Z</Time>
            <Position>
              <LatitudeDegrees>43.0857179872691631317138671875</LatitudeDegrees>
              <LongitudeDegrees>-1.91752606071531772613525390625</LongitudeDegrees>
            </Position>
            <AltitudeMeters>487.20001220703125</AltitudeMeters>
            <DistanceMeters>NAN</DistanceMeters>
          </Trackpoint>
          <Trackpoint>
            <Time>2021-08-13T12:23:59.000Z</Time>
            <Position>
              <LatitudeDegrees>43.085682280361652374267578125</LatitudeDegrees>
              <LongitudeDegrees>-1.9175194390118122100830078125</LongitudeDegrees>
            </Position>
            <AltitudeMeters>486.79998779296875</AltitudeMeters>
            <DistanceMeters>NAN</DistanceMeters>
          </Trackpoint>
          <Trackpoint>
            <Time>2021-08-13T12:24:00.000Z</Time>
            <Position>
              <LatitudeDegrees>43.08564498089253902435302734375</LatitudeDegrees>
              <LongitudeDegrees>-1.917509548366069793701171875</LongitudeDegrees>
            </Position>
            <AltitudeMeters>486.79998779296875</AltitudeMeters>
            <DistanceMeters>NAN</DistanceMeters>
          </Trackpoint>
          <Trackpoint>
            <Time>2021-08-13T12:24:02.000Z</Time>
            <Position>
              <LatitudeDegrees>43.0855741538107395172119140625</LatitudeDegrees>
              <LongitudeDegrees>-1.91747761331498622894287109375</LongitudeDegrees>
            </Position>
            <AltitudeMeters>486.399993896484375</AltitudeMeters>
            <DistanceMeters>NAN</DistanceMeters>
          </Trackpoint>
          <Trackpoint>
            <Time>2021-08-13T12:24:06.000Z</Time>
            <Position>
              <LatitudeDegrees>43.0853924341499805450439453125</LatitudeDegrees>
              <LongitudeDegrees>-1.9174004159867763519287109375</LongitudeDegrees>
            </Position>
            <AltitudeMeters>485.600006103515625</AltitudeMeters>
            <DistanceMeters>NAN</DistanceMeters>
          </Trackpoint>
          <Trackpoint>
            <Time>2021-08-13T12:24:08.000Z</Time>
            <Position>
              <LatitudeDegrees>43.0852777697145938873291015625</LatitudeDegrees>
              <LongitudeDegrees>-1.9173621945083141326904296875</LongitudeDegrees>
            </Position>
            <AltitudeMeters>485.20001220703125</AltitudeMeters>
            <DistanceMeters>NAN</DistanceMeters>
          </Trackpoint>
          <Trackpoint>
            <Time>2021-08-13T12:24:09.000Z</Time>
            <Position>
              <LatitudeDegrees>43.08523225598037242889404296875</LatitudeDegrees>
              <LongitudeDegrees>-1.91734367050230503082275390625</LongitudeDegrees>
            </Position>
            <AltitudeMeters>485</AltitudeMeters>
            <DistanceMeters>NAN</DistanceMeters>
          </Trackpoint>
          <Trackpoint>
            <Time>2021-08-13T12:24:10.000Z</Time>
            <Position>
              <LatitudeDegrees>43.08518984355032444000244140625</LatitudeDegrees>
              <LongitudeDegrees>-1.91733084619045257568359375</LongitudeDegrees>
            </Position>
            <AltitudeMeters>485</AltitudeMeters>
            <DistanceMeters>NAN</DistanceMeters>
          </Trackpoint>
          <Trackpoint>
            <Time>2021-08-13T12:24:11.000Z</Time>
            <Position>
              <LatitudeDegrees>43.08515514247119426727294921875</LatitudeDegrees>
              <LongitudeDegrees>-1.91732103936374187469482421875</LongitudeDegrees>
            </Position>
            <AltitudeMeters>484.600006103515625</AltitudeMeters>
            <DistanceMeters>NAN</DistanceMeters>
          </Trackpoint>
          <Trackpoint>
            <Time>2021-08-13T12:24:12.000Z</Time>
            <Position>
              <LatitudeDegrees>43.0851356126368045806884765625</LatitudeDegrees>
              <LongitudeDegrees>-1.91731601022183895111083984375</LongitudeDegrees>
            </Position>
            <AltitudeMeters>484.399993896484375</AltitudeMeters>
            <DistanceMeters>NAN</DistanceMeters>
          </Trackpoint>
          <Trackpoint>
            <Time>2021-08-13T12:24:13.000Z</Time>
            <Position>
              <LatitudeDegrees>43.0851071141660213470458984375</LatitudeDegrees>
              <LongitudeDegrees>-1.91730779595673084259033203125</LongitudeDegrees>
            </Position>
            <AltitudeMeters>484</AltitudeMeters>
            <DistanceMeters>NAN</DistanceMeters>
          </Trackpoint>
          <Trackpoint>
            <Time>2021-08-13T12:24:14.000Z</Time>
            <Position>
              <LatitudeDegrees>43.0850782804191112518310546875</LatitudeDegrees>
              <LongitudeDegrees>-1.91729153506457805633544921875</LongitudeDegrees>
            </Position>
            <AltitudeMeters>483.79998779296875</AltitudeMeters>
            <DistanceMeters>NAN</DistanceMeters>
          </Trackpoint>
          <Trackpoint>
            <Time>2021-08-13T12:24:16.000Z</Time>
            <Position>
              <LatitudeDegrees>43.085009716451168060302734375</LatitudeDegrees>
              <LongitudeDegrees>-1.9172582589089870452880859375</LongitudeDegrees>
            </Position>
            <AltitudeMeters>483.600006103515625</AltitudeMeters>
            <DistanceMeters>NAN</DistanceMeters>
          </Trackpoint>
          <Trackpoint>
            <Time>2021-08-13T12:24:18.000Z</Time>
            <Position>
              <LatitudeDegrees>43.08494492433965206146240234375</LatitudeDegrees>
              <LongitudeDegrees>-1.91723638214170932769775390625</LongitudeDegrees>
            </Position>
            <AltitudeMeters>483.399993896484375</AltitudeMeters>
            <DistanceMeters>NAN</DistanceMeters>
          </Trackpoint>
          <Trackpoint>
            <Time>2021-08-13T12:24:19.000Z</Time>
            <Position>
              <LatitudeDegrees>43.08490745723247528076171875</LatitudeDegrees>
              <LongitudeDegrees>-1.91722833551466464996337890625</LongitudeDegrees>
            </Position>
            <AltitudeMeters>483.20001220703125</AltitudeMeters>
            <DistanceMeters>NAN</DistanceMeters>
          </Trackpoint>
          <Trackpoint>
            <Time>2021-08-13T12:24:20.000Z</Time>
            <Position>
              <LatitudeDegrees>43.0848772823810577392578125</LatitudeDegrees>
              <LongitudeDegrees>-1.9172183610498905181884765625</LongitudeDegrees>
            </Position>
            <AltitudeMeters>483</AltitudeMeters>
            <DistanceMeters>NAN</DistanceMeters>
          </Trackpoint>
          <Trackpoint>
            <Time>2021-08-13T12:24:21.000Z</Time>
            <Position>
              <LatitudeDegrees>43.0848429165780544281005859375</LatitudeDegrees>
              <LongitudeDegrees>-1.9172083027660846710205078125</LongitudeDegrees>
            </Position>
            <AltitudeMeters>482.79998779296875</AltitudeMeters>
            <DistanceMeters>NAN</DistanceMeters>
          </Trackpoint>
          <Trackpoint>
            <Time>2021-08-13T12:24:22.000Z</Time>
            <Position>
              <LatitudeDegrees>43.08481500484049320220947265625</LatitudeDegrees>
              <LongitudeDegrees>-1.91719229333102703094482421875</LongitudeDegrees>
            </Position>
            <AltitudeMeters>482.600006103515625</AltitudeMeters>
            <DistanceMeters>NAN</DistanceMeters>
          </Trackpoint>
          <Trackpoint>
            <Time>2021-08-13T12:24:25.000Z</Time>
            <Position>
              <LatitudeDegrees>43.08471106924116611480712890625</LatitudeDegrees>
              <LongitudeDegrees>-1.917152814567089080810546875</LongitudeDegrees>
            </Position>
            <AltitudeMeters>482.20001220703125</AltitudeMeters>
            <DistanceMeters>NAN</DistanceMeters>
          </Trackpoint>
          <Trackpoint>
            <Time>2021-08-13T12:24:27.000Z</Time>
            <Position>
              <LatitudeDegrees>43.0846444331109523773193359375</LatitudeDegrees>
              <LongitudeDegrees>-1.9171290099620819091796875</LongitudeDegrees>
            </Position>
            <AltitudeMeters>481.79998779296875</AltitudeMeters>
            <DistanceMeters>NAN</DistanceMeters>
          </Trackpoint>
          <Trackpoint>
            <Time>2021-08-13T12:24:29.000Z</Time>
            <Position>
              <LatitudeDegrees>43.08457762934267520904541015625</LatitudeDegrees>
              <LongitudeDegrees>-1.9171100668609142303466796875</LongitudeDegrees>
            </Position>
            <AltitudeMeters>481.399993896484375</AltitudeMeters>
            <DistanceMeters>NAN</DistanceMeters>
          </Trackpoint>
          <Trackpoint>
            <Time>2021-08-13T12:24:35.000Z</Time>
            <Position>
              <LatitudeDegrees>43.0843044631183147430419921875</LatitudeDegrees>
              <LongitudeDegrees>-1.9170078076422214508056640625</LongitudeDegrees>
            </Position>
            <AltitudeMeters>480.79998779296875</AltitudeMeters>
            <DistanceMeters>NAN</DistanceMeters>
          </Trackpoint>
          <Trackpoint>
            <Time>2021-08-13T12:24:36.000Z</Time>
            <Position>
              <LatitudeDegrees>43.08425978757441043853759765625</LatitudeDegrees>
              <LongitudeDegrees>-1.91699096001684665679931640625</LongitudeDegrees>
            </Position>
            <AltitudeMeters>480.20001220703125</AltitudeMeters>
            <DistanceMeters>NAN</DistanceMeters>
          </Trackpoint>
          <Trackpoint>
            <Time>2021-08-13T12:24:37.000Z</Time>
            <Position>
              <LatitudeDegrees>43.084214441478252410888671875</LatitudeDegrees>
              <LongitudeDegrees>-1.9169699214398860931396484375</LongitudeDegrees>
            </Position>
            <AltitudeMeters>480.20001220703125</AltitudeMeters>
            <DistanceMeters>NAN</DistanceMeters>
          </Trackpoint>
          <Trackpoint>
            <Time>2021-08-13T12:24:41.000Z</Time>
            <Position>
              <LatitudeDegrees>43.084024675190448760986328125</LatitudeDegrees>
              <LongitudeDegrees>-1.9169104099273681640625</LongitudeDegrees>
            </Position>
            <AltitudeMeters>479</AltitudeMeters>
            <DistanceMeters>NAN</DistanceMeters>
          </Trackpoint>
          <Trackpoint>
            <Time>2021-08-13T12:24:43.000Z</Time>
            <Position>
              <LatitudeDegrees>43.08393456973135471343994140625</LatitudeDegrees>
              <LongitudeDegrees>-1.91687512211501598358154296875</LongitudeDegrees>
            </Position>
            <AltitudeMeters>479</AltitudeMeters>
            <DistanceMeters>NAN</DistanceMeters>
          </Trackpoint>
          <Trackpoint>
            <Time>2021-08-13T12:24:44.000Z</Time>
            <Position>
              <LatitudeDegrees>43.08389785699546337127685546875</LatitudeDegrees>
              <LongitudeDegrees>-1.91686070524156093597412109375</LongitudeDegrees>
            </Position>
            <AltitudeMeters>478.79998779296875</AltitudeMeters>
            <DistanceMeters>NAN</DistanceMeters>
          </Trackpoint>
          <Trackpoint>
            <Time>2021-08-13T12:24:46.000Z</Time>
            <Position>
              <LatitudeDegrees>43.08379224501550197601318359375</LatitudeDegrees>
              <LongitudeDegrees>-1.916821561753749847412109375</LongitudeDegrees>
            </Position>
            <AltitudeMeters>478.20001220703125</AltitudeMeters>
            <DistanceMeters>NAN</DistanceMeters>
          </Trackpoint>
          <Trackpoint>
            <Time>2021-08-13T12:24:50.000Z</Time>
            <Position>
              <LatitudeDegrees>43.083607256412506103515625</LatitudeDegrees>
              <LongitudeDegrees>-1.91676531918346881866455078125</LongitudeDegrees>
            </Position>
            <AltitudeMeters>477</AltitudeMeters>
            <DistanceMeters>NAN</DistanceMeters>
          </Trackpoint>
          <Trackpoint>
            <Time>2021-08-13T12:24:53.000Z</Time>
            <Position>
              <LatitudeDegrees>43.0834659375250339508056640625</LatitudeDegrees>
              <LongitudeDegrees>-1.91673179157078266143798828125</LongitudeDegrees>
            </Position>
            <AltitudeMeters>476.399993896484375</AltitudeMeters>
            <DistanceMeters>NAN</DistanceMeters>
          </Trackpoint>
          <Trackpoint>
            <Time>2021-08-13T12:24:55.000Z</Time>
            <Position>
              <LatitudeDegrees>43.0833559669554233551025390625</LatitudeDegrees>
              <LongitudeDegrees>-1.91672458313405513763427734375</LongitudeDegrees>
            </Position>
            <AltitudeMeters>475.79998779296875</AltitudeMeters>
            <DistanceMeters>NAN</DistanceMeters>
          </Trackpoint>
          <Trackpoint>
            <Time>2021-08-13T12:24:59.000Z</Time>
            <Position>
              <LatitudeDegrees>43.08312169276177883148193359375</LatitudeDegrees>
              <LongitudeDegrees>-1.9167436100542545318603515625</LongitudeDegrees>
            </Position>
            <AltitudeMeters>475.20001220703125</AltitudeMeters>
            <DistanceMeters>NAN</DistanceMeters>
          </Trackpoint>
          <Trackpoint>
            <Time>2021-08-13T12:25:01.000Z</Time>
            <Position>
              <LatitudeDegrees>43.082983307540416717529296875</LatitudeDegrees>
              <LongitudeDegrees>-1.91675283014774322509765625</LongitudeDegrees>
            </Position>
            <AltitudeMeters>474.399993896484375</AltitudeMeters>
            <DistanceMeters>NAN</DistanceMeters>
          </Trackpoint>
          <Trackpoint>
            <Time>2021-08-13T12:25:02.000Z</Time>
            <Position>
              <LatitudeDegrees>43.08292186819016933441162109375</LatitudeDegrees>
              <LongitudeDegrees>-1.9167513214051723480224609375</LongitudeDegrees>
            </Position>
            <AltitudeMeters>474.399993896484375</AltitudeMeters>
            <DistanceMeters>NAN</DistanceMeters>
          </Trackpoint>
          <Trackpoint>
            <Time>2021-08-13T12:25:04.000Z</Time>
            <Position>
              <LatitudeDegrees>43.08280888013541698455810546875</LatitudeDegrees>
              <LongitudeDegrees>-1.91672944463789463043212890625</LongitudeDegrees>
            </Position>
            <AltitudeMeters>473.399993896484375</AltitudeMeters>
            <DistanceMeters>NAN</DistanceMeters>
          </Trackpoint>
          <Trackpoint>
            <Time>2021-08-13T12:25:05.000Z</Time>
            <Position>
              <LatitudeDegrees>43.08276839554309844970703125</LatitudeDegrees>
              <LongitudeDegrees>-1.9167132675647735595703125</LongitudeDegrees>
            </Position>
            <AltitudeMeters>473.399993896484375</AltitudeMeters>
            <DistanceMeters>NAN</DistanceMeters>
          </Trackpoint>
          <Trackpoint>
            <Time>2021-08-13T12:25:06.000Z</Time>
            <Position>
              <LatitudeDegrees>43.08272070251405239105224609375</LatitudeDegrees>
              <LongitudeDegrees>-1.9166859425604343414306640625</LongitudeDegrees>
            </Position>
            <AltitudeMeters>473.20001220703125</AltitudeMeters>
            <DistanceMeters>NAN</DistanceMeters>
          </Trackpoint>
          <Trackpoint>
            <Time>2021-08-13T12:25:08.000Z</Time>
            <Position>
              <LatitudeDegrees>43.0826295912265777587890625</LatitudeDegrees>
              <LongitudeDegrees>-1.9165940769016742706298828125</LongitudeDegrees>
            </Position>
            <AltitudeMeters>472.600006103515625</AltitudeMeters>
            <DistanceMeters>NAN</DistanceMeters>
          </Trackpoint>
          <Trackpoint>
            <Time>2021-08-13T12:25:09.000Z</Time>
            <Position>
              <LatitudeDegrees>43.08259564451873302459716796875</LatitudeDegrees>
              <LongitudeDegrees>-1.91654227674007415771484375</LongitudeDegrees>
            </Position>
            <AltitudeMeters>472.600006103515625</AltitudeMeters>
            <DistanceMeters>NAN</DistanceMeters>
          </Trackpoint>
          <Trackpoint>
            <Time>2021-08-13T12:25:10.000Z</Time>
            <Position>
              <LatitudeDegrees>43.08257452212274074554443359375</LatitudeDegrees>
              <LongitudeDegrees>-1.9164928235113620758056640625</LongitudeDegrees>
            </Position>
            <AltitudeMeters>472.399993896484375</AltitudeMeters>
            <DistanceMeters>NAN</DistanceMeters>
          </Trackpoint>
          <Trackpoint>
            <Time>2021-08-13T12:25:11.000Z</Time>
            <Position>
              <LatitudeDegrees>43.08254937641322612762451171875</LatitudeDegrees>
              <LongitudeDegrees>-1.9164271093904972076416015625</LongitudeDegrees>
            </Position>
            <AltitudeMeters>472</AltitudeMeters>
            <DistanceMeters>NAN</DistanceMeters>
          </Trackpoint>
          <Trackpoint>
            <Time>2021-08-13T12:25:12.000Z</Time>
            <Position>
              <LatitudeDegrees>43.0825196206569671630859375</LatitudeDegrees>
              <LongitudeDegrees>-1.916349492967128753662109375</LongitudeDegrees>
            </Position>
            <AltitudeMeters>471.79998779296875</AltitudeMeters>
            <DistanceMeters>NAN</DistanceMeters>
          </Trackpoint>
          <Trackpoint>
            <Time>2021-08-13T12:25:13.000Z</Time>
            <Position>
              <LatitudeDegrees>43.082496821880340576171875</LatitudeDegrees>
              <LongitudeDegrees>-1.91628838889300823211669921875</LongitudeDegrees>
            </Position>
            <AltitudeMeters>471.600006103515625</AltitudeMeters>
            <DistanceMeters>NAN</DistanceMeters>
          </Trackpoint>
          <Trackpoint>
            <Time>2021-08-13T12:25:14.000Z</Time>
            <Position>
              <LatitudeDegrees>43.0824785493314266204833984375</LatitudeDegrees>
              <LongitudeDegrees>-1.91622535698115825653076171875</LongitudeDegrees>
            </Position>
            <AltitudeMeters>471.399993896484375</AltitudeMeters>
            <DistanceMeters>NAN</DistanceMeters>
          </Trackpoint>
          <Trackpoint>
            <Time>2021-08-13T12:25:15.000Z</Time>
            <Position>
              <LatitudeDegrees>43.0824648030102252960205078125</LatitudeDegrees>
              <LongitudeDegrees>-1.9161733053624629974365234375</LongitudeDegrees>
            </Position>
            <AltitudeMeters>470.79998779296875</AltitudeMeters>
            <DistanceMeters>NAN</DistanceMeters>
          </Trackpoint>
          <Trackpoint>
            <Time>2021-08-13T12:25:16.000Z</Time>
            <Position>
              <LatitudeDegrees>43.08244627900421619415283203125</LatitudeDegrees>
              <LongitudeDegrees>-1.91611035726964473724365234375</LongitudeDegrees>
            </Position>
            <AltitudeMeters>470.600006103515625</AltitudeMeters>
            <DistanceMeters>NAN</DistanceMeters>
          </Trackpoint>
          <Trackpoint>
            <Time>2021-08-13T12:25:17.000Z</Time>
            <Position>
              <LatitudeDegrees>43.08242280967533588409423828125</LatitudeDegrees>
              <LongitudeDegrees>-1.91604129038751125335693359375</LongitudeDegrees>
            </Position>
            <AltitudeMeters>470</AltitudeMeters>
            <DistanceMeters>NAN</DistanceMeters>
          </Trackpoint>
          <Trackpoint>
            <Time>2021-08-13T12:25:18.000Z</Time>
            <Position>
              <LatitudeDegrees>43.08240830898284912109375</LatitudeDegrees>
              <LongitudeDegrees>-1.915990076959133148193359375</LongitudeDegrees>
            </Position>
            <AltitudeMeters>469.79998779296875</AltitudeMeters>
            <DistanceMeters>NAN</DistanceMeters>
          </Trackpoint>
          <Trackpoint>
            <Time>2021-08-13T12:25:19.000Z</Time>
            <Position>
              <LatitudeDegrees>43.0823960714042186737060546875</LatitudeDegrees>
              <LongitudeDegrees>-1.915946491062641143798828125</LongitudeDegrees>
            </Position>
            <AltitudeMeters>469.600006103515625</AltitudeMeters>
            <DistanceMeters>NAN</DistanceMeters>
          </Trackpoint>
          <Trackpoint>
            <Time>2021-08-13T12:25:20.000Z</Time>
            <Position>
              <LatitudeDegrees>43.0823809839785099029541015625</LatitudeDegrees>
              <LongitudeDegrees>-1.91591623239219188690185546875</LongitudeDegrees>
            </Position>
            <AltitudeMeters>469</AltitudeMeters>
            <DistanceMeters>NAN</DistanceMeters>
          </Trackpoint>
          <Trackpoint>
            <Time>2021-08-13T12:25:21.000Z</Time>
            <Position>
              <LatitudeDegrees>43.0823679082095623016357421875</LatitudeDegrees>
              <LongitudeDegrees>-1.9159007258713245391845703125</LongitudeDegrees>
            </Position>
            <AltitudeMeters>469</AltitudeMeters>
            <DistanceMeters>NAN</DistanceMeters>
          </Trackpoint>
          <Trackpoint>
            <Time>2021-08-13T12:25:22.000Z</Time>
            <Position>
              <LatitudeDegrees>43.08235273696482181549072265625</LatitudeDegrees>
              <LongitudeDegrees>-1.9158844649791717529296875</LongitudeDegrees>
            </Position>
            <AltitudeMeters>468.600006103515625</AltitudeMeters>
            <DistanceMeters>NAN</DistanceMeters>
          </Trackpoint>
          <Trackpoint>
            <Time>2021-08-13T12:25:23.000Z</Time>
            <Position>
              <LatitudeDegrees>43.08233815245330333709716796875</LatitudeDegrees>
              <LongitudeDegrees>-1.91587038338184356689453125</LongitudeDegrees>
            </Position>
            <AltitudeMeters>468.399993896484375</AltitudeMeters>
            <DistanceMeters>NAN</DistanceMeters>
          </Trackpoint>
          <Trackpoint>
            <Time>2021-08-13T12:25:24.000Z</Time>
            <Position>
              <LatitudeDegrees>43.08232717216014862060546875</LatitudeDegrees>
              <LongitudeDegrees>-1.9158668629825115203857421875</LongitudeDegrees>
            </Position>
            <AltitudeMeters>468</AltitudeMeters>
            <DistanceMeters>NAN</DistanceMeters>
          </Trackpoint>
          <Trackpoint>
            <Time>2021-08-13T12:25:25.000Z</Time>
            <Position>
              <LatitudeDegrees>43.08231770060956478118896484375</LatitudeDegrees>
              <LongitudeDegrees>-1.9158683717250823974609375</LongitudeDegrees>
            </Position>
            <AltitudeMeters>467.79998779296875</AltitudeMeters>
            <DistanceMeters>NAN</DistanceMeters>
          </Trackpoint>
          <Trackpoint>
            <Time>2021-08-13T12:25:30.000Z</Time>
            <Position>
              <LatitudeDegrees>43.0823149345815181732177734375</LatitudeDegrees>
              <LongitudeDegrees>-1.9158685393631458282470703125</LongitudeDegrees>
            </Position>
            <AltitudeMeters>467.600006103515625</AltitudeMeters>
            <DistanceMeters>NAN</DistanceMeters>
          </Trackpoint>
          <Trackpoint>
            <Time>2021-08-13T12:25:40.000Z</Time>
            <Position>
              <LatitudeDegrees>43.08231267146766185760498046875</LatitudeDegrees>
              <LongitudeDegrees>-1.9158906675875186920166015625</LongitudeDegrees>
            </Position>
            <AltitudeMeters>467.399993896484375</AltitudeMeters>
            <DistanceMeters>NAN</DistanceMeters>
          </Trackpoint>
          <Trackpoint>
            <Time>2021-08-13T12:25:41.000Z</Time>
            <Position>
              <LatitudeDegrees>43.08231786824762821197509765625</LatitudeDegrees>
              <LongitudeDegrees>-1.915914975106716156005859375</LongitudeDegrees>
            </Position>
            <AltitudeMeters>467.399993896484375</AltitudeMeters>
            <DistanceMeters>NAN</DistanceMeters>
          </Trackpoint>
          <Trackpoint>
            <Time>2021-08-13T12:25:43.000Z</Time>
            <Position>
              <LatitudeDegrees>43.0823333747684955596923828125</LatitudeDegrees>
              <LongitudeDegrees>-1.91597691737115383148193359375</LongitudeDegrees>
            </Position>
            <AltitudeMeters>467.20001220703125</AltitudeMeters>
            <DistanceMeters>NAN</DistanceMeters>
          </Trackpoint>
          <Trackpoint>
            <Time>2021-08-13T12:25:44.000Z</Time>
            <Position>
              <LatitudeDegrees>43.08234502561390399932861328125</LatitudeDegrees>
              <LongitudeDegrees>-1.91602083854377269744873046875</LongitudeDegrees>
            </Position>
            <AltitudeMeters>467.20001220703125</AltitudeMeters>
            <DistanceMeters>NAN</DistanceMeters>
          </Trackpoint>
          <Trackpoint>
            <Time>2021-08-13T12:25:46.000Z</Time>
            <Position>
              <LatitudeDegrees>43.08236245997250080108642578125</LatitudeDegrees>
              <LongitudeDegrees>-1.916083283722400665283203125</LongitudeDegrees>
            </Position>
            <AltitudeMeters>467.20001220703125</AltitudeMeters>
            <DistanceMeters>NAN</DistanceMeters>
          </Trackpoint>
          <Trackpoint>
            <Time>2021-08-13T12:25:47.000Z</Time>
            <Position>
              <LatitudeDegrees>43.08237486518919467926025390625</LatitudeDegrees>
              <LongitudeDegrees>-1.91612184047698974609375</LongitudeDegrees>
            </Position>
            <AltitudeMeters>467.20001220703125</AltitudeMeters>
            <DistanceMeters>NAN</DistanceMeters>
          </Trackpoint>
          <Trackpoint>
            <Time>2021-08-13T12:25:52.000Z</Time>
            <Position>
              <LatitudeDegrees>43.082453571259975433349609375</LatitudeDegrees>
              <LongitudeDegrees>-1.916301213204860687255859375</LongitudeDegrees>
            </Position>
            <AltitudeMeters>466.79998779296875</AltitudeMeters>
            <DistanceMeters>NAN</DistanceMeters>
          </Trackpoint>
          <Trackpoint>
            <Time>2021-08-13T12:25:54.000Z</Time>
            <Position>
              <LatitudeDegrees>43.08248433284461498260498046875</LatitudeDegrees>
              <LongitudeDegrees>-1.9163697771728038787841796875</LongitudeDegrees>
            </Position>
            <AltitudeMeters>466.79998779296875</AltitudeMeters>
            <DistanceMeters>NAN</DistanceMeters>
          </Trackpoint>
          <Trackpoint>
            <Time>2021-08-13T12:26:00.000Z</Time>
            <Position>
              <LatitudeDegrees>43.08259329758584499359130859375</LatitudeDegrees>
              <LongitudeDegrees>-1.9166328012943267822265625</LongitudeDegrees>
            </Position>
            <AltitudeMeters>466.399993896484375</AltitudeMeters>
            <DistanceMeters>NAN</DistanceMeters>
          </Trackpoint>
          <Trackpoint>
            <Time>2021-08-13T12:26:07.000Z</Time>
            <Position>
              <LatitudeDegrees>43.082725144922733306884765625</LatitudeDegrees>
              <LongitudeDegrees>-1.9169139303267002105712890625</LongitudeDegrees>
            </Position>
            <AltitudeMeters>465.79998779296875</AltitudeMeters>
            <DistanceMeters>NAN</DistanceMeters>
          </Trackpoint>
          <Trackpoint>
            <Time>2021-08-13T12:26:08.000Z</Time>
            <Position>
              <LatitudeDegrees>43.082743585109710693359375</LatitudeDegrees>
              <LongitudeDegrees>-1.916956342756748199462890625</LongitudeDegrees>
            </Position>
            <AltitudeMeters>465.600006103515625</AltitudeMeters>
            <DistanceMeters>NAN</DistanceMeters>
          </Trackpoint>
          <Trackpoint>
            <Time>2021-08-13T12:26:10.000Z</Time>
            <Position>
              <LatitudeDegrees>43.08277518488466739654541015625</LatitudeDegrees>
              <LongitudeDegrees>-1.9170349650084972381591796875</LongitudeDegrees>
            </Position>
            <AltitudeMeters>465.399993896484375</AltitudeMeters>
            <DistanceMeters>NAN</DistanceMeters>
          </Trackpoint>
          <Trackpoint>
            <Time>2021-08-13T12:26:11.000Z</Time>
            <Position>
              <LatitudeDegrees>43.08279194869101047515869140625</LatitudeDegrees>
              <LongitudeDegrees>-1.91707679070532321929931640625</LongitudeDegrees>
            </Position>
            <AltitudeMeters>465.20001220703125</AltitudeMeters>
            <DistanceMeters>NAN</DistanceMeters>
          </Trackpoint>
          <Trackpoint>
            <Time>2021-08-13T12:26:12.000Z</Time>
            <Position>
              <LatitudeDegrees>43.082806281745433807373046875</LatitudeDegrees>
              <LongitudeDegrees>-1.91710746847093105316162109375</LongitudeDegrees>
            </Position>
            <AltitudeMeters>465.20001220703125</AltitudeMeters>
            <DistanceMeters>NAN</DistanceMeters>
          </Trackpoint>
          <Trackpoint>
            <Time>2021-08-13T12:26:13.000Z</Time>
            <Position>
              <LatitudeDegrees>43.08281893841922283172607421875</LatitudeDegrees>
              <LongitudeDegrees>-1.91713395528495311737060546875</LongitudeDegrees>
            </Position>
            <AltitudeMeters>465.20001220703125</AltitudeMeters>
            <DistanceMeters>NAN</DistanceMeters>
          </Trackpoint>
          <Trackpoint>
            <Time>2021-08-13T12:26:14.000Z</Time>
            <Position>
              <LatitudeDegrees>43.0828195251524448394775390625</LatitudeDegrees>
              <LongitudeDegrees>-1.9171611964702606201171875</LongitudeDegrees>
            </Position>
            <AltitudeMeters>465</AltitudeMeters>
            <DistanceMeters>NAN</DistanceMeters>
          </Trackpoint>
          <Trackpoint>
            <Time>2021-08-13T12:26:15.000Z</Time>
            <Position>
              <LatitudeDegrees>43.08281659148633480072021484375</LatitudeDegrees>
              <LongitudeDegrees>-1.91718122921884059906005859375</LongitudeDegrees>
            </Position>
            <AltitudeMeters>465</AltitudeMeters>
            <DistanceMeters>NAN</DistanceMeters>
          </Trackpoint>
          <Trackpoint>
            <Time>2021-08-13T12:26:16.000Z</Time>
            <Position>
              <LatitudeDegrees>43.0828134901821613311767578125</LatitudeDegrees>
              <LongitudeDegrees>-1.91719816066324710845947265625</LongitudeDegrees>
            </Position>
            <AltitudeMeters>465</AltitudeMeters>
            <DistanceMeters>NAN</DistanceMeters>
          </Trackpoint>
          <Trackpoint>
            <Time>2021-08-13T12:26:17.000Z</Time>
            <Position>
              <LatitudeDegrees>43.08281390927731990814208984375</LatitudeDegrees>
              <LongitudeDegrees>-1.917213834822177886962890625</LongitudeDegrees>
            </Position>
            <AltitudeMeters>464.79998779296875</AltitudeMeters>
            <DistanceMeters>NAN</DistanceMeters>
          </Trackpoint>
          <Trackpoint>
            <Time>2021-08-13T12:26:18.000Z</Time>
            <Position>
              <LatitudeDegrees>43.0828158371150493621826171875</LatitudeDegrees>
              <LongitudeDegrees>-1.91723168827593326568603515625</LongitudeDegrees>
            </Position>
            <AltitudeMeters>465</AltitudeMeters>
            <DistanceMeters>NAN</DistanceMeters>
          </Trackpoint>
          <Trackpoint>
            <Time>2021-08-13T12:26:19.000Z</Time>
            <Position>
              <LatitudeDegrees>43.0828191898763179779052734375</LatitudeDegrees>
              <LongitudeDegrees>-1.91724694333970546722412109375</LongitudeDegrees>
            </Position>
            <AltitudeMeters>465</AltitudeMeters>
            <DistanceMeters>NAN</DistanceMeters>
          </Trackpoint>
          <Trackpoint>
            <Time>2021-08-13T12:26:20.000Z</Time>
            <Position>
              <LatitudeDegrees>43.08281826786696910858154296875</LatitudeDegrees>
              <LongitudeDegrees>-1.91726102493703365325927734375</LongitudeDegrees>
            </Position>
            <AltitudeMeters>464.79998779296875</AltitudeMeters>
            <DistanceMeters>NAN</DistanceMeters>
          </Trackpoint>
          <Trackpoint>
            <Time>2021-08-13T12:26:21.000Z</Time>
            <Position>
              <LatitudeDegrees>43.082818686962127685546875</LatitudeDegrees>
              <LongitudeDegrees>-1.91727183759212493896484375</LongitudeDegrees>
            </Position>
            <AltitudeMeters>465</AltitudeMeters>
            <DistanceMeters>NAN</DistanceMeters>
          </Trackpoint>
          <Trackpoint>
            <Time>2021-08-13T12:26:22.000Z</Time>
            <Position>
              <LatitudeDegrees>43.0828185193240642547607421875</LatitudeDegrees>
              <LongitudeDegrees>-1.9172770343720912933349609375</LongitudeDegrees>
            </Position>
            <AltitudeMeters>464.79998779296875</AltitudeMeters>
            <DistanceMeters>NAN</DistanceMeters>
          </Trackpoint>
          <Trackpoint>
            <Time>2021-08-13T12:26:23.000Z</Time>
            <Position>
              <LatitudeDegrees>43.082816340029239654541015625</LatitudeDegrees>
              <LongitudeDegrees>-1.9172743521630764007568359375</LongitudeDegrees>
            </Position>
            <AltitudeMeters>464.79998779296875</AltitudeMeters>
            <DistanceMeters>NAN</DistanceMeters>
          </Trackpoint>
          <Trackpoint>
            <Time>2021-08-13T12:26:24.000Z</Time>
            <Position>
              <LatitudeDegrees>43.0828138254582881927490234375</LatitudeDegrees>
              <LongitudeDegrees>-1.9172720052301883697509765625</LongitudeDegrees>
            </Position>
            <AltitudeMeters>464.79998779296875</AltitudeMeters>
            <DistanceMeters>NAN</DistanceMeters>
          </Trackpoint>
          <Trackpoint>
            <Time>2021-08-13T12:26:31.000Z</Time>
            <Position>
              <LatitudeDegrees>43.08281022123992443084716796875</LatitudeDegrees>
              <LongitudeDegrees>-1.91725976765155792236328125</LongitudeDegrees>
            </Position>
            <AltitudeMeters>464.600006103515625</AltitudeMeters>
            <DistanceMeters>NAN</DistanceMeters>
          </Trackpoint>
          <Trackpoint>
            <Time>2021-08-13T12:26:45.000Z</Time>
            <Position>
              <LatitudeDegrees>43.08281022123992443084716796875</LatitudeDegrees>
              <LongitudeDegrees>-1.91725976765155792236328125</LongitudeDegrees>
            </Position>
            <AltitudeMeters>464.399993896484375</AltitudeMeters>
            <DistanceMeters>NAN</DistanceMeters>
          </Trackpoint>
          <Trackpoint>
            <Time>2021-08-13T12:26:56.000Z</Time>
            <Position>
              <LatitudeDegrees>43.08280284516513347625732421875</LatitudeDegrees>
              <LongitudeDegrees>-1.91723562777042388916015625</LongitudeDegrees>
            </Position>
            <AltitudeMeters>464.399993896484375</AltitudeMeters>
            <DistanceMeters>NAN</DistanceMeters>
          </Trackpoint>
          <Trackpoint>
            <Time>2021-08-13T12:26:57.000Z</Time>
            <Position>
              <LatitudeDegrees>43.0827930383384227752685546875</LatitudeDegrees>
              <LongitudeDegrees>-1.91721308045089244842529296875</LongitudeDegrees>
            </Position>
            <AltitudeMeters>464.399993896484375</AltitudeMeters>
            <DistanceMeters>NAN</DistanceMeters>
          </Trackpoint>
          <Trackpoint>
            <Time>2021-08-13T12:26:58.000Z</Time>
            <Position>
              <LatitudeDegrees>43.082782141864299774169921875</LatitudeDegrees>
              <LongitudeDegrees>-1.91718810237944126129150390625</LongitudeDegrees>
            </Position>
            <AltitudeMeters>464.399993896484375</AltitudeMeters>
            <DistanceMeters>NAN</DistanceMeters>
          </Trackpoint>
          <Trackpoint>
            <Time>2021-08-13T12:27:00.000Z</Time>
            <Position>
              <LatitudeDegrees>43.0827678926289081573486328125</LatitudeDegrees>
              <LongitudeDegrees>-1.91712389700114727020263671875</LongitudeDegrees>
            </Position>
            <AltitudeMeters>464.399993896484375</AltitudeMeters>
            <DistanceMeters>NAN</DistanceMeters>
          </Trackpoint>
          <Trackpoint>
            <Time>2021-08-13T12:27:01.000Z</Time>
            <Position>
              <LatitudeDegrees>43.08275775052607059478759765625</LatitudeDegrees>
              <LongitudeDegrees>-1.9170946441590785980224609375</LongitudeDegrees>
            </Position>
            <AltitudeMeters>464.399993896484375</AltitudeMeters>
            <DistanceMeters>NAN</DistanceMeters>
          </Trackpoint>
          <Trackpoint>
            <Time>2021-08-13T12:27:02.000Z</Time>
            <Position>
              <LatitudeDegrees>43.08274484239518642425537109375</LatitudeDegrees>
              <LongitudeDegrees>-1.91706304438412189483642578125</LongitudeDegrees>
            </Position>
            <AltitudeMeters>464.399993896484375</AltitudeMeters>
            <DistanceMeters>NAN</DistanceMeters>
          </Trackpoint>
          <Trackpoint>
            <Time>2021-08-13T12:27:03.000Z</Time>
            <Position>
              <LatitudeDegrees>43.0827383883297443389892578125</LatitudeDegrees>
              <LongitudeDegrees>-1.917027421295642852783203125</LongitudeDegrees>
            </Position>
            <AltitudeMeters>464.399993896484375</AltitudeMeters>
            <DistanceMeters>NAN</DistanceMeters>
          </Trackpoint>
          <Trackpoint>
            <Time>2021-08-13T12:27:05.000Z</Time>
            <Position>
              <LatitudeDegrees>43.08270402252674102783203125</LatitudeDegrees>
              <LongitudeDegrees>-1.91695357672870159149169921875</LongitudeDegrees>
            </Position>
            <AltitudeMeters>464.399993896484375</AltitudeMeters>
            <DistanceMeters>NAN</DistanceMeters>
          </Trackpoint>
          <Trackpoint>
            <Time>2021-08-13T12:27:08.000Z</Time>
            <Position>
              <LatitudeDegrees>43.08265582658350467681884765625</LatitudeDegrees>
              <LongitudeDegrees>-1.91681443713605403900146484375</LongitudeDegrees>
            </Position>
            <AltitudeMeters>464.399993896484375</AltitudeMeters>
            <DistanceMeters>NAN</DistanceMeters>
          </Trackpoint>
          <Trackpoint>
            <Time>2021-08-13T12:27:09.000Z</Time>
            <Position>
              <LatitudeDegrees>43.0826300941407680511474609375</LatitudeDegrees>
              <LongitudeDegrees>-1.9167749583721160888671875</LongitudeDegrees>
            </Position>
            <AltitudeMeters>464.600006103515625</AltitudeMeters>
            <DistanceMeters>NAN</DistanceMeters>
          </Trackpoint>
          <Trackpoint>
            <Time>2021-08-13T12:27:10.000Z</Time>
            <Position>
              <LatitudeDegrees>43.08261039666831493377685546875</LatitudeDegrees>
              <LongitudeDegrees>-1.9167320430278778076171875</LongitudeDegrees>
            </Position>
            <AltitudeMeters>464.79998779296875</AltitudeMeters>
            <DistanceMeters>NAN</DistanceMeters>
          </Trackpoint>
          <Trackpoint>
            <Time>2021-08-13T12:27:11.000Z</Time>
            <Position>
              <LatitudeDegrees>43.0825965665280818939208984375</LatitudeDegrees>
              <LongitudeDegrees>-1.9166903011500835418701171875</LongitudeDegrees>
            </Position>
            <AltitudeMeters>465</AltitudeMeters>
            <DistanceMeters>NAN</DistanceMeters>
          </Trackpoint>
          <Trackpoint>
            <Time>2021-08-13T12:27:14.000Z</Time>
            <Position>
              <LatitudeDegrees>43.0825439281761646270751953125</LatitudeDegrees>
              <LongitudeDegrees>-1.91657018847763538360595703125</LongitudeDegrees>
            </Position>
            <AltitudeMeters>465.399993896484375</AltitudeMeters>
            <DistanceMeters>NAN</DistanceMeters>
          </Trackpoint>
          <Trackpoint>
            <Time>2021-08-13T12:27:15.000Z</Time>
            <Position>
              <LatitudeDegrees>43.08252154849469661712646484375</LatitudeDegrees>
              <LongitudeDegrees>-1.916529200971126556396484375</LongitudeDegrees>
            </Position>
            <AltitudeMeters>465.399993896484375</AltitudeMeters>
            <DistanceMeters>NAN</DistanceMeters>
          </Trackpoint>
          <Trackpoint>
            <Time>2021-08-13T12:27:16.000Z</Time>
            <Position>
              <LatitudeDegrees>43.08250361122190952301025390625</LatitudeDegrees>
              <LongitudeDegrees>-1.91648595035076141357421875</LongitudeDegrees>
            </Position>
            <AltitudeMeters>465.600006103515625</AltitudeMeters>
            <DistanceMeters>NAN</DistanceMeters>
          </Trackpoint>
          <Trackpoint>
            <Time>2021-08-13T12:27:17.000Z</Time>
            <Position>
              <LatitudeDegrees>43.082483075559139251708984375</LatitudeDegrees>
              <LongitudeDegrees>-1.91643775440752506256103515625</LongitudeDegrees>
            </Position>
            <AltitudeMeters>465.600006103515625</AltitudeMeters>
            <DistanceMeters>NAN</DistanceMeters>
          </Trackpoint>
          <Trackpoint>
            <Time>2021-08-13T12:27:18.000Z</Time>
            <Position>
              <LatitudeDegrees>43.0824520625174045562744140625</LatitudeDegrees>
              <LongitudeDegrees>-1.916391067206859588623046875</LongitudeDegrees>
            </Position>
            <AltitudeMeters>465.600006103515625</AltitudeMeters>
            <DistanceMeters>NAN</DistanceMeters>
          </Trackpoint>
          <Trackpoint>
            <Time>2021-08-13T12:27:19.000Z</Time>
            <Position>
              <LatitudeDegrees>43.0824289284646511077880859375</LatitudeDegrees>
              <LongitudeDegrees>-1.9163479842245578765869140625</LongitudeDegrees>
            </Position>
            <AltitudeMeters>465.79998779296875</AltitudeMeters>
            <DistanceMeters>NAN</DistanceMeters>
          </Trackpoint>
          <Trackpoint>
            <Time>2021-08-13T12:27:20.000Z</Time>
            <Position>
              <LatitudeDegrees>43.08240403421223163604736328125</LatitudeDegrees>
              <LongitudeDegrees>-1.91630397923290729522705078125</LongitudeDegrees>
            </Position>
            <AltitudeMeters>466</AltitudeMeters>
            <DistanceMeters>NAN</DistanceMeters>
          </Trackpoint>
          <Trackpoint>
            <Time>2021-08-13T12:27:21.000Z</Time>
            <Position>
              <LatitudeDegrees>43.082387186586856842041015625</LatitudeDegrees>
              <LongitudeDegrees>-1.91626039333641529083251953125</LongitudeDegrees>
            </Position>
            <AltitudeMeters>466</AltitudeMeters>
            <DistanceMeters>NAN</DistanceMeters>
          </Trackpoint>
          <Trackpoint>
            <Time>2021-08-13T12:27:25.000Z</Time>
            <Position>
              <LatitudeDegrees>43.08231401257216930389404296875</LatitudeDegrees>
              <LongitudeDegrees>-1.91604816354811191558837890625</LongitudeDegrees>
            </Position>
            <AltitudeMeters>466.600006103515625</AltitudeMeters>
            <DistanceMeters>NAN</DistanceMeters>
          </Trackpoint>
          <Trackpoint>
            <Time>2021-08-13T12:27:29.000Z</Time>
            <Position>
              <LatitudeDegrees>43.08221510611474514007568359375</LatitudeDegrees>
              <LongitudeDegrees>-1.915859319269657135009765625</LongitudeDegrees>
            </Position>
            <AltitudeMeters>467</AltitudeMeters>
            <DistanceMeters>NAN</DistanceMeters>
          </Trackpoint>
          <Trackpoint>
            <Time>2021-08-13T12:27:32.000Z</Time>
            <Position>
              <LatitudeDegrees>43.0821073986589908599853515625</LatitudeDegrees>
              <LongitudeDegrees>-1.9157361052930355072021484375</LongitudeDegrees>
            </Position>
            <AltitudeMeters>467.20001220703125</AltitudeMeters>
            <DistanceMeters>NAN</DistanceMeters>
          </Trackpoint>
          <Trackpoint>
            <Time>2021-08-13T12:27:38.000Z</Time>
            <Position>
              <LatitudeDegrees>43.08190933428704738616943359375</LatitudeDegrees>
              <LongitudeDegrees>-1.91560191102325916290283203125</LongitudeDegrees>
            </Position>
            <AltitudeMeters>467.399993896484375</AltitudeMeters>
            <DistanceMeters>NAN</DistanceMeters>
          </Trackpoint>
          <Trackpoint>
            <Time>2021-08-13T12:27:46.000Z</Time>
            <Position>
              <LatitudeDegrees>43.08158244006335735321044921875</LatitudeDegrees>
              <LongitudeDegrees>-1.9155067764222621917724609375</LongitudeDegrees>
            </Position>
            <AltitudeMeters>467.20001220703125</AltitudeMeters>
            <DistanceMeters>NAN</DistanceMeters>
          </Trackpoint>
          <Trackpoint>
            <Time>2021-08-13T12:27:53.000Z</Time>
            <Position>
              <LatitudeDegrees>43.0813057534396648406982421875</LatitudeDegrees>
              <LongitudeDegrees>-1.91552027128636837005615234375</LongitudeDegrees>
            </Position>
            <AltitudeMeters>468.20001220703125</AltitudeMeters>
            <DistanceMeters>NAN</DistanceMeters>
          </Trackpoint>
          <Trackpoint>
            <Time>2021-08-13T12:27:54.000Z</Time>
            <Position>
              <LatitudeDegrees>43.08126945979893207550048828125</LatitudeDegrees>
              <LongitudeDegrees>-1.91552110947668552398681640625</LongitudeDegrees>
            </Position>
            <AltitudeMeters>468.20001220703125</AltitudeMeters>
            <DistanceMeters>NAN</DistanceMeters>
          </Trackpoint>
          <Trackpoint>
            <Time>2021-08-13T12:27:55.000Z</Time>
            <Position>
              <LatitudeDegrees>43.08123794384300708770751953125</LatitudeDegrees>
              <LongitudeDegrees>-1.91552228294312953948974609375</LongitudeDegrees>
            </Position>
            <AltitudeMeters>468.20001220703125</AltitudeMeters>
            <DistanceMeters>NAN</DistanceMeters>
          </Trackpoint>
          <Trackpoint>
            <Time>2021-08-13T12:27:56.000Z</Time>
            <Position>
              <LatitudeDegrees>43.081215061247348785400390625</LatitudeDegrees>
              <LongitudeDegrees>-1.9155248813331127166748046875</LongitudeDegrees>
            </Position>
            <AltitudeMeters>468.20001220703125</AltitudeMeters>
            <DistanceMeters>NAN</DistanceMeters>
          </Trackpoint>
          <Trackpoint>
            <Time>2021-08-13T12:27:57.000Z</Time>
            <Position>
              <LatitudeDegrees>43.081194944679737091064453125</LatitudeDegrees>
              <LongitudeDegrees>-1.9155262224376201629638671875</LongitudeDegrees>
            </Position>
            <AltitudeMeters>468.20001220703125</AltitudeMeters>
            <DistanceMeters>NAN</DistanceMeters>
          </Trackpoint>
          <Trackpoint>
            <Time>2021-08-13T12:27:58.000Z</Time>
            <Position>
              <LatitudeDegrees>43.0811880715191364288330078125</LatitudeDegrees>
              <LongitudeDegrees>-1.91552747972309589385986328125</LongitudeDegrees>
            </Position>
            <AltitudeMeters>468.20001220703125</AltitudeMeters>
            <DistanceMeters>NAN</DistanceMeters>
          </Trackpoint>
          <Trackpoint>
            <Time>2021-08-13T12:27:59.000Z</Time>
            <Position>
              <LatitudeDegrees>43.08118077926337718963623046875</LatitudeDegrees>
              <LongitudeDegrees>-1.9155312515795230865478515625</LongitudeDegrees>
            </Position>
            <AltitudeMeters>468.20001220703125</AltitudeMeters>
            <DistanceMeters>NAN</DistanceMeters>
          </Trackpoint>
          <Trackpoint>
            <Time>2021-08-13T12:28:00.000Z</Time>
            <Position>
              <LatitudeDegrees>43.0811810307204723358154296875</LatitudeDegrees>
              <LongitudeDegrees>-1.91553485579788684844970703125</LongitudeDegrees>
            </Position>
            <AltitudeMeters>468.20001220703125</AltitudeMeters>
            <DistanceMeters>NAN</DistanceMeters>
          </Trackpoint>
          <Trackpoint>
            <Time>2021-08-13T12:28:01.000Z</Time>
            <Position>
              <LatitudeDegrees>43.0811810307204723358154296875</LatitudeDegrees>
              <LongitudeDegrees>-1.91553485579788684844970703125</LongitudeDegrees>
            </Position>
            <AltitudeMeters>468.20001220703125</AltitudeMeters>
            <DistanceMeters>NAN</DistanceMeters>
          </Trackpoint>
          <Trackpoint>
            <Time>2021-08-13T12:28:02.000Z</Time>
            <Position>
              <LatitudeDegrees>43.0811810307204723358154296875</LatitudeDegrees>
              <LongitudeDegrees>-1.91553485579788684844970703125</LongitudeDegrees>
            </Position>
            <AltitudeMeters>468</AltitudeMeters>
            <DistanceMeters>NAN</DistanceMeters>
          </Trackpoint>
          <Trackpoint>
            <Time>2021-08-13T12:28:12.000Z</Time>
            <Position>
              <LatitudeDegrees>43.0811810307204723358154296875</LatitudeDegrees>
              <LongitudeDegrees>-1.91553485579788684844970703125</LongitudeDegrees>
            </Position>
            <AltitudeMeters>468.20001220703125</AltitudeMeters>
            <DistanceMeters>NAN</DistanceMeters>
          </Trackpoint>
          <Trackpoint>
            <Time>2021-08-13T12:28:13.000Z</Time>
            <Position>
              <LatitudeDegrees>43.0811810307204723358154296875</LatitudeDegrees>
              <LongitudeDegrees>-1.91553485579788684844970703125</LongitudeDegrees>
            </Position>
            <AltitudeMeters>468.20001220703125</AltitudeMeters>
            <DistanceMeters>NAN</DistanceMeters>
          </Trackpoint>
          <Trackpoint>
            <Time>2021-08-13T12:28:49.000Z</Time>
            <Position>
              <LatitudeDegrees>43.0811166577041149139404296875</LatitudeDegrees>
              <LongitudeDegrees>-1.915520019829273223876953125</LongitudeDegrees>
            </Position>
            <AltitudeMeters>468.399993896484375</AltitudeMeters>
            <DistanceMeters>NAN</DistanceMeters>
          </Trackpoint>
          <Trackpoint>
            <Time>2021-08-13T12:28:53.000Z</Time>
            <Position>
              <LatitudeDegrees>43.081011883914470672607421875</LatitudeDegrees>
              <LongitudeDegrees>-1.91551306284964084625244140625</LongitudeDegrees>
            </Position>
            <AltitudeMeters>468.399993896484375</AltitudeMeters>
            <DistanceMeters>NAN</DistanceMeters>
          </Trackpoint>
          <Trackpoint>
            <Time>2021-08-13T12:28:56.000Z</Time>
            <Position>
              <LatitudeDegrees>43.08094357140362262725830078125</LatitudeDegrees>
              <LongitudeDegrees>-1.9155101291835308074951171875</LongitudeDegrees>
            </Position>
            <AltitudeMeters>468.399993896484375</AltitudeMeters>
            <DistanceMeters>NAN</DistanceMeters>
          </Trackpoint>
          <Trackpoint>
            <Time>2021-08-13T12:28:59.000Z</Time>
            <Position>
              <LatitudeDegrees>43.08087986893951892852783203125</LatitudeDegrees>
              <LongitudeDegrees>-1.91550937481224536895751953125</LongitudeDegrees>
            </Position>
            <AltitudeMeters>468.600006103515625</AltitudeMeters>
            <DistanceMeters>NAN</DistanceMeters>
          </Trackpoint>
          <Trackpoint>
            <Time>2021-08-13T12:29:00.000Z</Time>
            <Position>
              <LatitudeDegrees>43.08086444623768329620361328125</LatitudeDegrees>
              <LongitudeDegrees>-1.91551172174513339996337890625</LongitudeDegrees>
            </Position>
            <AltitudeMeters>468.79998779296875</AltitudeMeters>
            <DistanceMeters>NAN</DistanceMeters>
          </Trackpoint>
          <Trackpoint>
            <Time>2021-08-13T12:29:01.000Z</Time>
            <Position>
              <LatitudeDegrees>43.08085170574486255645751953125</LatitudeDegrees>
              <LongitudeDegrees>-1.91550535149872303009033203125</LongitudeDegrees>
            </Position>
            <AltitudeMeters>468.79998779296875</AltitudeMeters>
            <DistanceMeters>NAN</DistanceMeters>
          </Trackpoint>
          <Trackpoint>
            <Time>2021-08-13T12:29:02.000Z</Time>
            <Position>
              <LatitudeDegrees>43.08083410374820232391357421875</LatitudeDegrees>
              <LongitudeDegrees>-1.91549881361424922943115234375</LongitudeDegrees>
            </Position>
            <AltitudeMeters>468.79998779296875</AltitudeMeters>
            <DistanceMeters>NAN</DistanceMeters>
          </Trackpoint>
          <Trackpoint>
            <Time>2021-08-13T12:29:03.000Z</Time>
            <Position>
              <LatitudeDegrees>43.08081683702766895294189453125</LatitudeDegrees>
              <LongitudeDegrees>-1.9154896773397922515869140625</LongitudeDegrees>
            </Position>
            <AltitudeMeters>468.79998779296875</AltitudeMeters>
            <DistanceMeters>NAN</DistanceMeters>
          </Trackpoint>
          <Trackpoint>
            <Time>2021-08-13T12:29:04.000Z</Time>
            <Position>
              <LatitudeDegrees>43.08080778457224369049072265625</LatitudeDegrees>
              <LongitudeDegrees>-1.91548389382660388946533203125</LongitudeDegrees>
            </Position>
            <AltitudeMeters>468.79998779296875</AltitudeMeters>
            <DistanceMeters>NAN</DistanceMeters>
          </Trackpoint>
          <Trackpoint>
            <Time>2021-08-13T12:29:05.000Z</Time>
            <Position>
              <LatitudeDegrees>43.08080242015421390533447265625</LatitudeDegrees>
              <LongitudeDegrees>-1.91548657603561878204345703125</LongitudeDegrees>
            </Position>
            <AltitudeMeters>468.79998779296875</AltitudeMeters>
            <DistanceMeters>NAN</DistanceMeters>
          </Trackpoint>
          <Trackpoint>
            <Time>2021-08-13T12:29:06.000Z</Time>
            <Position>
              <LatitudeDegrees>43.08080242015421390533447265625</LatitudeDegrees>
              <LongitudeDegrees>-1.91548657603561878204345703125</LongitudeDegrees>
            </Position>
            <AltitudeMeters>469</AltitudeMeters>
            <DistanceMeters>NAN</DistanceMeters>
          </Trackpoint>
          <Trackpoint>
            <Time>2021-08-13T12:29:07.000Z</Time>
            <Position>
              <LatitudeDegrees>43.08080242015421390533447265625</LatitudeDegrees>
              <LongitudeDegrees>-1.91548657603561878204345703125</LongitudeDegrees>
            </Position>
            <AltitudeMeters>469</AltitudeMeters>
            <DistanceMeters>NAN</DistanceMeters>
          </Trackpoint>
          <Trackpoint>
            <Time>2021-08-13T12:29:18.000Z</Time>
            <Position>
              <LatitudeDegrees>43.08079269714653491973876953125</LatitudeDegrees>
              <LongitudeDegrees>-1.9154789485037326812744140625</LongitudeDegrees>
            </Position>
            <AltitudeMeters>469.399993896484375</AltitudeMeters>
            <DistanceMeters>NAN</DistanceMeters>
          </Trackpoint>
          <Trackpoint>
            <Time>2021-08-13T12:29:21.000Z</Time>
            <Position>
              <LatitudeDegrees>43.08079269714653491973876953125</LatitudeDegrees>
              <LongitudeDegrees>-1.9154789485037326812744140625</LongitudeDegrees>
            </Position>
            <AltitudeMeters>469.399993896484375</AltitudeMeters>
            <DistanceMeters>NAN</DistanceMeters>
          </Trackpoint>
          <Trackpoint>
            <Time>2021-08-13T14:43:02.000Z</Time>
            <Position>
              <LatitudeDegrees>43.0808212794363498687744140625</LatitudeDegrees>
              <LongitudeDegrees>-1.91542622633278369903564453125</LongitudeDegrees>
            </Position>
            <AltitudeMeters>476.79998779296875</AltitudeMeters>
            <DistanceMeters>NAN</DistanceMeters>
          </Trackpoint>
          <Trackpoint>
            <Time>2021-08-13T14:43:06.000Z</Time>
            <Position>
              <LatitudeDegrees>43.0808182619512081146240234375</LatitudeDegrees>
              <LongitudeDegrees>-1.91541516222059726715087890625</LongitudeDegrees>
            </Position>
            <AltitudeMeters>477</AltitudeMeters>
            <DistanceMeters>NAN</DistanceMeters>
          </Trackpoint>
          <Trackpoint>
            <Time>2021-08-13T14:43:07.000Z</Time>
            <Position>
              <LatitudeDegrees>43.0808058567345142364501953125</LatitudeDegrees>
              <LongitudeDegrees>-1.91540292464196681976318359375</LongitudeDegrees>
            </Position>
            <AltitudeMeters>477</AltitudeMeters>
            <DistanceMeters>NAN</DistanceMeters>
          </Trackpoint>
          <Trackpoint>
            <Time>2021-08-13T14:43:09.000Z</Time>
            <Position>
              <LatitudeDegrees>43.08075933717191219329833984375</LatitudeDegrees>
              <LongitudeDegrees>-1.91539253108203411102294921875</LongitudeDegrees>
            </Position>
            <AltitudeMeters>477</AltitudeMeters>
            <DistanceMeters>NAN</DistanceMeters>
          </Trackpoint>
          <Trackpoint>
            <Time>2021-08-13T14:43:10.000Z</Time>
            <Position>
              <LatitudeDegrees>43.08073217980563640594482421875</LatitudeDegrees>
              <LongitudeDegrees>-1.91539672203361988067626953125</LongitudeDegrees>
            </Position>
            <AltitudeMeters>477.20001220703125</AltitudeMeters>
            <DistanceMeters>NAN</DistanceMeters>
          </Trackpoint>
          <Trackpoint>
            <Time>2021-08-13T14:43:11.000Z</Time>
            <Position>
              <LatitudeDegrees>43.0807082913815975189208984375</LatitudeDegrees>
              <LongitudeDegrees>-1.9154001586139202117919921875</LongitudeDegrees>
            </Position>
            <AltitudeMeters>477.20001220703125</AltitudeMeters>
            <DistanceMeters>NAN</DistanceMeters>
          </Trackpoint>
          <Trackpoint>
            <Time>2021-08-13T14:43:12.000Z</Time>
            <Position>
              <LatitudeDegrees>43.08068155311048030853271484375</LatitudeDegrees>
              <LongitudeDegrees>-1.915397308766841888427734375</LongitudeDegrees>
            </Position>
            <AltitudeMeters>477.20001220703125</AltitudeMeters>
            <DistanceMeters>NAN</DistanceMeters>
          </Trackpoint>
          <Trackpoint>
            <Time>2021-08-13T14:43:14.000Z</Time>
            <Position>
              <LatitudeDegrees>43.08062757365405559539794921875</LatitudeDegrees>
              <LongitudeDegrees>-1.91538934595882892608642578125</LongitudeDegrees>
            </Position>
            <AltitudeMeters>477.399993896484375</AltitudeMeters>
            <DistanceMeters>NAN</DistanceMeters>
          </Trackpoint>
          <Trackpoint>
            <Time>2021-08-13T14:43:15.000Z</Time>
            <Position>
              <LatitudeDegrees>43.08060108684003353118896484375</LatitudeDegrees>
              <LongitudeDegrees>-1.9153847359120845794677734375</LongitudeDegrees>
            </Position>
            <AltitudeMeters>477.399993896484375</AltitudeMeters>
            <DistanceMeters>NAN</DistanceMeters>
          </Trackpoint>
          <Trackpoint>
            <Time>2021-08-13T14:43:17.000Z</Time>
            <Position>
              <LatitudeDegrees>43.0805560760200023651123046875</LatitudeDegrees>
              <LongitudeDegrees>-1.91539621911942958831787109375</LongitudeDegrees>
            </Position>
            <AltitudeMeters>477.399993896484375</AltitudeMeters>
            <DistanceMeters>NAN</DistanceMeters>
          </Trackpoint>
          <Trackpoint>
            <Time>2021-08-13T14:43:21.000Z</Time>
            <Position>
              <LatitudeDegrees>43.0804502964019775390625</LatitudeDegrees>
              <LongitudeDegrees>-1.91536939702928066253662109375</LongitudeDegrees>
            </Position>
            <AltitudeMeters>477.600006103515625</AltitudeMeters>
            <DistanceMeters>NAN</DistanceMeters>
          </Trackpoint>
          <Trackpoint>
            <Time>2021-08-13T14:43:22.000Z</Time>
            <Position>
              <LatitudeDegrees>43.0804189480841159820556640625</LatitudeDegrees>
              <LongitudeDegrees>-1.91535850055515766143798828125</LongitudeDegrees>
            </Position>
            <AltitudeMeters>477.600006103515625</AltitudeMeters>
            <DistanceMeters>NAN</DistanceMeters>
          </Trackpoint>
          <Trackpoint>
            <Time>2021-08-13T14:43:29.000Z</Time>
            <Position>
              <LatitudeDegrees>43.08021417818963527679443359375</LatitudeDegrees>
              <LongitudeDegrees>-1.915314495563507080078125</LongitudeDegrees>
            </Position>
            <AltitudeMeters>477.79998779296875</AltitudeMeters>
            <DistanceMeters>NAN</DistanceMeters>
          </Trackpoint>
          <Trackpoint>
            <Time>2021-08-13T14:43:32.000Z</Time>
            <Position>
              <LatitudeDegrees>43.08013505302369594573974609375</LatitudeDegrees>
              <LongitudeDegrees>-1.915307454764842987060546875</LongitudeDegrees>
            </Position>
            <AltitudeMeters>477.79998779296875</AltitudeMeters>
            <DistanceMeters>NAN</DistanceMeters>
          </Trackpoint>
          <Trackpoint>
            <Time>2021-08-13T14:43:33.000Z</Time>
            <Position>
              <LatitudeDegrees>43.080114014446735382080078125</LatitudeDegrees>
              <LongitudeDegrees>-1.91530619747936725616455078125</LongitudeDegrees>
            </Position>
            <AltitudeMeters>477.79998779296875</AltitudeMeters>
            <DistanceMeters>NAN</DistanceMeters>
          </Trackpoint>
          <Trackpoint>
            <Time>2021-08-13T14:43:34.000Z</Time>
            <Position>
              <LatitudeDegrees>43.08009331114590167999267578125</LatitudeDegrees>
              <LongitudeDegrees>-1.91529764793813228607177734375</LongitudeDegrees>
            </Position>
            <AltitudeMeters>478</AltitudeMeters>
            <DistanceMeters>NAN</DistanceMeters>
          </Trackpoint>
          <Trackpoint>
            <Time>2021-08-13T14:43:35.000Z</Time>
            <Position>
              <LatitudeDegrees>43.0800736136734485626220703125</LatitudeDegrees>
              <LongitudeDegrees>-1.9152888469398021697998046875</LongitudeDegrees>
            </Position>
            <AltitudeMeters>478.20001220703125</AltitudeMeters>
            <DistanceMeters>NAN</DistanceMeters>
          </Trackpoint>
          <Trackpoint>
            <Time>2021-08-13T14:43:36.000Z</Time>
            <Position>
              <LatitudeDegrees>43.080061040818691253662109375</LatitudeDegrees>
              <LongitudeDegrees>-1.9152895174920558929443359375</LongitudeDegrees>
            </Position>
            <AltitudeMeters>478.399993896484375</AltitudeMeters>
            <DistanceMeters>NAN</DistanceMeters>
          </Trackpoint>
          <Trackpoint>
            <Time>2021-08-13T14:43:37.000Z</Time>
            <Position>
              <LatitudeDegrees>43.08004385791718959808349609375</LatitudeDegrees>
              <LongitudeDegrees>-1.915290355682373046875</LongitudeDegrees>
            </Position>
            <AltitudeMeters>478.399993896484375</AltitudeMeters>
            <DistanceMeters>NAN</DistanceMeters>
          </Trackpoint>
          <Trackpoint>
            <Time>2021-08-13T14:43:38.000Z</Time>
            <Position>
              <LatitudeDegrees>43.08002776466310024261474609375</LatitudeDegrees>
              <LongitudeDegrees>-1.91530468873679637908935546875</LongitudeDegrees>
            </Position>
            <AltitudeMeters>478.600006103515625</AltitudeMeters>
            <DistanceMeters>NAN</DistanceMeters>
          </Trackpoint>
          <Trackpoint>
            <Time>2021-08-13T14:43:39.000Z</Time>
            <Position>
              <LatitudeDegrees>43.08001108467578887939453125</LatitudeDegrees>
              <LongitudeDegrees>-1.91531776450574398040771484375</LongitudeDegrees>
            </Position>
            <AltitudeMeters>478.600006103515625</AltitudeMeters>
            <DistanceMeters>NAN</DistanceMeters>
          </Trackpoint>
          <Trackpoint>
            <Time>2021-08-13T14:43:41.000Z</Time>
            <Position>
              <LatitudeDegrees>43.07997663505375385284423828125</LatitudeDegrees>
              <LongitudeDegrees>-1.91532949917018413543701171875</LongitudeDegrees>
            </Position>
            <AltitudeMeters>478.79998779296875</AltitudeMeters>
            <DistanceMeters>NAN</DistanceMeters>
          </Trackpoint>
          <Trackpoint>
            <Time>2021-08-13T14:43:42.000Z</Time>
            <Position>
              <LatitudeDegrees>43.0799661576747894287109375</LatitudeDegrees>
              <LongitudeDegrees>-1.91533863544464111328125</LongitudeDegrees>
            </Position>
            <AltitudeMeters>478.79998779296875</AltitudeMeters>
            <DistanceMeters>NAN</DistanceMeters>
          </Trackpoint>
          <Trackpoint>
            <Time>2021-08-13T14:43:43.000Z</Time>
            <Position>
              <LatitudeDegrees>43.07996003888547420501708984375</LatitudeDegrees>
              <LongitudeDegrees>-1.9153535552322864532470703125</LongitudeDegrees>
            </Position>
            <AltitudeMeters>479</AltitudeMeters>
            <DistanceMeters>NAN</DistanceMeters>
          </Trackpoint>
          <Trackpoint>
            <Time>2021-08-13T14:43:44.000Z</Time>
            <Position>
              <LatitudeDegrees>43.0799582786858081817626953125</LatitudeDegrees>
              <LongitudeDegrees>-1.9153736717998981475830078125</LongitudeDegrees>
            </Position>
            <AltitudeMeters>479</AltitudeMeters>
            <DistanceMeters>NAN</DistanceMeters>
          </Trackpoint>
          <Trackpoint>
            <Time>2021-08-13T14:43:45.000Z</Time>
            <Position>
              <LatitudeDegrees>43.07995551265776157379150390625</LatitudeDegrees>
              <LongitudeDegrees>-1.91539202816784381866455078125</LongitudeDegrees>
            </Position>
            <AltitudeMeters>479</AltitudeMeters>
            <DistanceMeters>NAN</DistanceMeters>
          </Trackpoint>
          <Trackpoint>
            <Time>2021-08-13T14:43:46.000Z</Time>
            <Position>
              <LatitudeDegrees>43.0799529142677783966064453125</LatitudeDegrees>
              <LongitudeDegrees>-1.91540963016450405120849609375</LongitudeDegrees>
            </Position>
            <AltitudeMeters>479</AltitudeMeters>
            <DistanceMeters>NAN</DistanceMeters>
          </Trackpoint>
          <Trackpoint>
            <Time>2021-08-13T14:43:47.000Z</Time>
            <Position>
              <LatitudeDegrees>43.07995081879198551177978515625</LatitudeDegrees>
              <LongitudeDegrees>-1.9154269807040691375732421875</LongitudeDegrees>
            </Position>
            <AltitudeMeters>479</AltitudeMeters>
            <DistanceMeters>NAN</DistanceMeters>
          </Trackpoint>
          <Trackpoint>
            <Time>2021-08-13T14:43:48.000Z</Time>
            <Position>
              <LatitudeDegrees>43.07995065115392208099365234375</LatitudeDegrees>
              <LongitudeDegrees>-1.91544516943395137786865234375</LongitudeDegrees>
            </Position>
            <AltitudeMeters>479.20001220703125</AltitudeMeters>
            <DistanceMeters>NAN</DistanceMeters>
          </Trackpoint>
          <Trackpoint>
            <Time>2021-08-13T14:43:49.000Z</Time>
            <Position>
              <LatitudeDegrees>43.079951740801334381103515625</LatitudeDegrees>
              <LongitudeDegrees>-1.9154605083167552947998046875</LongitudeDegrees>
            </Position>
            <AltitudeMeters>479.20001220703125</AltitudeMeters>
            <DistanceMeters>NAN</DistanceMeters>
          </Trackpoint>
          <Trackpoint>
            <Time>2021-08-13T14:43:50.000Z</Time>
            <Position>
              <LatitudeDegrees>43.0799498967826366424560546875</LatitudeDegrees>
              <LongitudeDegrees>-1.91547282971441745758056640625</LongitudeDegrees>
            </Position>
            <AltitudeMeters>479.20001220703125</AltitudeMeters>
            <DistanceMeters>NAN</DistanceMeters>
          </Trackpoint>
          <Trackpoint>
            <Time>2021-08-13T14:43:51.000Z</Time>
            <Position>
              <LatitudeDegrees>43.079947046935558319091796875</LatitudeDegrees>
              <LongitudeDegrees>-1.9154836423695087432861328125</LongitudeDegrees>
            </Position>
            <AltitudeMeters>479.20001220703125</AltitudeMeters>
            <DistanceMeters>NAN</DistanceMeters>
          </Trackpoint>
          <Trackpoint>
            <Time>2021-08-13T14:43:52.000Z</Time>
            <Position>
              <LatitudeDegrees>43.079946041107177734375</LatitudeDegrees>
              <LongitudeDegrees>-1.9154990650713443756103515625</LongitudeDegrees>
            </Position>
            <AltitudeMeters>479.399993896484375</AltitudeMeters>
            <DistanceMeters>NAN</DistanceMeters>
          </Trackpoint>
          <Trackpoint>
            <Time>2021-08-13T14:43:53.000Z</Time>
            <Position>
              <LatitudeDegrees>43.07994537055492401123046875</LatitudeDegrees>
              <LongitudeDegrees>-1.91551540978252887725830078125</LongitudeDegrees>
            </Position>
            <AltitudeMeters>479.600006103515625</AltitudeMeters>
            <DistanceMeters>NAN</DistanceMeters>
          </Trackpoint>
          <Trackpoint>
            <Time>2021-08-13T14:43:54.000Z</Time>
            <Position>
              <LatitudeDegrees>43.07994629256427288055419921875</LatitudeDegrees>
              <LongitudeDegrees>-1.91552840173244476318359375</LongitudeDegrees>
            </Position>
            <AltitudeMeters>479.600006103515625</AltitudeMeters>
            <DistanceMeters>NAN</DistanceMeters>
          </Trackpoint>
          <Trackpoint>
            <Time>2021-08-13T14:43:55.000Z</Time>
            <Position>
              <LatitudeDegrees>43.0799485556781291961669921875</LatitudeDegrees>
              <LongitudeDegrees>-1.9155382923781871795654296875</LongitudeDegrees>
            </Position>
            <AltitudeMeters>479.600006103515625</AltitudeMeters>
            <DistanceMeters>NAN</DistanceMeters>
          </Trackpoint>
          <Trackpoint>
            <Time>2021-08-13T14:43:56.000Z</Time>
            <Position>
              <LatitudeDegrees>43.079951070249080657958984375</LatitudeDegrees>
              <LongitudeDegrees>-1.91554675810039043426513671875</LongitudeDegrees>
            </Position>
            <AltitudeMeters>479.600006103515625</AltitudeMeters>
            <DistanceMeters>NAN</DistanceMeters>
          </Trackpoint>
          <Trackpoint>
            <Time>2021-08-13T14:43:57.000Z</Time>
            <Position>
              <LatitudeDegrees>43.0799539200961589813232421875</LatitudeDegrees>
              <LongitudeDegrees>-1.915556900203227996826171875</LongitudeDegrees>
            </Position>
            <AltitudeMeters>479.600006103515625</AltitudeMeters>
            <DistanceMeters>NAN</DistanceMeters>
          </Trackpoint>
          <Trackpoint>
            <Time>2021-08-13T14:43:58.000Z</Time>
            <Position>
              <LatitudeDegrees>43.07995207607746124267578125</LatitudeDegrees>
              <LongitudeDegrees>-1.91556519828736782073974609375</LongitudeDegrees>
            </Position>
            <AltitudeMeters>479.600006103515625</AltitudeMeters>
            <DistanceMeters>NAN</DistanceMeters>
          </Trackpoint>
          <Trackpoint>
            <Time>2021-08-13T14:43:59.000Z</Time>
            <Position>
              <LatitudeDegrees>43.07995232753455638885498046875</LatitudeDegrees>
              <LongitudeDegrees>-1.915575675666332244873046875</LongitudeDegrees>
            </Position>
            <AltitudeMeters>479.600006103515625</AltitudeMeters>
            <DistanceMeters>NAN</DistanceMeters>
          </Trackpoint>
          <Trackpoint>
            <Time>2021-08-13T14:44:00.000Z</Time>
            <Position>
              <LatitudeDegrees>43.07995266281068325042724609375</LatitudeDegrees>
              <LongitudeDegrees>-1.9155875779688358306884765625</LongitudeDegrees>
            </Position>
            <AltitudeMeters>479.600006103515625</AltitudeMeters>
            <DistanceMeters>NAN</DistanceMeters>
          </Trackpoint>
          <Trackpoint>
            <Time>2021-08-13T14:44:01.000Z</Time>
            <Position>
              <LatitudeDegrees>43.0799505673348903656005859375</LatitudeDegrees>
              <LongitudeDegrees>-1.915594451129436492919921875</LongitudeDegrees>
            </Position>
            <AltitudeMeters>479.600006103515625</AltitudeMeters>
            <DistanceMeters>NAN</DistanceMeters>
          </Trackpoint>
          <Trackpoint>
            <Time>2021-08-13T14:44:02.000Z</Time>
            <Position>
              <LatitudeDegrees>43.07995283044874668121337890625</LatitudeDegrees>
              <LongitudeDegrees>-1.915594451129436492919921875</LongitudeDegrees>
            </Position>
            <AltitudeMeters>479.600006103515625</AltitudeMeters>
            <DistanceMeters>NAN</DistanceMeters>
          </Trackpoint>
          <Trackpoint>
            <Time>2021-08-13T14:44:10.000Z</Time>
            <Position>
              <LatitudeDegrees>43.079939000308513641357421875</LatitudeDegrees>
              <LongitudeDegrees>-1.91562906838953495025634765625</LongitudeDegrees>
            </Position>
            <AltitudeMeters>479.79998779296875</AltitudeMeters>
            <DistanceMeters>NAN</DistanceMeters>
          </Trackpoint>
          <Trackpoint>
            <Time>2021-08-13T14:44:13.000Z</Time>
            <Position>
              <LatitudeDegrees>43.07991947047412395477294921875</LatitudeDegrees>
              <LongitudeDegrees>-1.91561230458319187164306640625</LongitudeDegrees>
            </Position>
            <AltitudeMeters>479.79998779296875</AltitudeMeters>
            <DistanceMeters>NAN</DistanceMeters>
          </Trackpoint>
          <Trackpoint>
            <Time>2021-08-13T14:44:14.000Z</Time>
            <Position>
              <LatitudeDegrees>43.07992902584373950958251953125</LatitudeDegrees>
              <LongitudeDegrees>-1.915581040084362030029296875</LongitudeDegrees>
            </Position>
            <AltitudeMeters>479.79998779296875</AltitudeMeters>
            <DistanceMeters>NAN</DistanceMeters>
          </Trackpoint>
          <Trackpoint>
            <Time>2021-08-13T14:44:16.000Z</Time>
            <Position>
              <LatitudeDegrees>43.07994897477328777313232421875</LatitudeDegrees>
              <LongitudeDegrees>-1.91552613861858844757080078125</LongitudeDegrees>
            </Position>
            <AltitudeMeters>479.79998779296875</AltitudeMeters>
            <DistanceMeters>NAN</DistanceMeters>
          </Trackpoint>
          <Trackpoint>
            <Time>2021-08-13T14:44:17.000Z</Time>
            <Position>
              <LatitudeDegrees>43.07995450682938098907470703125</LatitudeDegrees>
              <LongitudeDegrees>-1.915505938231945037841796875</LongitudeDegrees>
            </Position>
            <AltitudeMeters>479.79998779296875</AltitudeMeters>
            <DistanceMeters>NAN</DistanceMeters>
          </Trackpoint>
          <Trackpoint>
            <Time>2021-08-13T14:44:18.000Z</Time>
            <Position>
              <LatitudeDegrees>43.07995551265776157379150390625</LatitudeDegrees>
              <LongitudeDegrees>-1.915481798350811004638671875</LongitudeDegrees>
            </Position>
            <AltitudeMeters>479.79998779296875</AltitudeMeters>
            <DistanceMeters>NAN</DistanceMeters>
          </Trackpoint>
          <Trackpoint>
            <Time>2021-08-13T14:44:19.000Z</Time>
            <Position>
              <LatitudeDegrees>43.0799473822116851806640625</LatitudeDegrees>
              <LongitudeDegrees>-1.91545573063194751739501953125</LongitudeDegrees>
            </Position>
            <AltitudeMeters>479.600006103515625</AltitudeMeters>
            <DistanceMeters>NAN</DistanceMeters>
          </Trackpoint>
          <Trackpoint>
            <Time>2021-08-13T14:44:20.000Z</Time>
            <Position>
              <LatitudeDegrees>43.0799447000026702880859375</LatitudeDegrees>
              <LongitudeDegrees>-1.9154356978833675384521484375</LongitudeDegrees>
            </Position>
            <AltitudeMeters>479.600006103515625</AltitudeMeters>
            <DistanceMeters>NAN</DistanceMeters>
          </Trackpoint>
          <Trackpoint>
            <Time>2021-08-13T14:44:21.000Z</Time>
            <Position>
              <LatitudeDegrees>43.079937994480133056640625</LatitudeDegrees>
              <LongitudeDegrees>-1.91542170010507106781005859375</LongitudeDegrees>
            </Position>
            <AltitudeMeters>479.600006103515625</AltitudeMeters>
            <DistanceMeters>NAN</DistanceMeters>
          </Trackpoint>
          <Trackpoint>
            <Time>2021-08-13T14:44:22.000Z</Time>
            <Position>
              <LatitudeDegrees>43.079936318099498748779296875</LatitudeDegrees>
              <LongitudeDegrees>-1.915405355393886566162109375</LongitudeDegrees>
            </Position>
            <AltitudeMeters>479.600006103515625</AltitudeMeters>
            <DistanceMeters>NAN</DistanceMeters>
          </Trackpoint>
          <Trackpoint>
            <Time>2021-08-13T14:44:23.000Z</Time>
            <Position>
              <LatitudeDegrees>43.07993874885141849517822265625</LatitudeDegrees>
              <LongitudeDegrees>-1.915386579930782318115234375</LongitudeDegrees>
            </Position>
            <AltitudeMeters>479.600006103515625</AltitudeMeters>
            <DistanceMeters>NAN</DistanceMeters>
          </Trackpoint>
          <Trackpoint>
            <Time>2021-08-13T14:44:24.000Z</Time>
            <Position>
              <LatitudeDegrees>43.07994713075459003448486328125</LatitudeDegrees>
              <LongitudeDegrees>-1.91537526436150074005126953125</LongitudeDegrees>
            </Position>
            <AltitudeMeters>479.600006103515625</AltitudeMeters>
            <DistanceMeters>NAN</DistanceMeters>
          </Trackpoint>
          <Trackpoint>
            <Time>2021-08-13T14:44:25.000Z</Time>
            <Position>
              <LatitudeDegrees>43.0799542553722858428955078125</LatitudeDegrees>
              <LongitudeDegrees>-1.9153721630573272705078125</LongitudeDegrees>
            </Position>
            <AltitudeMeters>479.600006103515625</AltitudeMeters>
            <DistanceMeters>NAN</DistanceMeters>
          </Trackpoint>
          <Trackpoint>
            <Time>2021-08-13T14:44:26.000Z</Time>
            <Position>
              <LatitudeDegrees>43.07996238581836223602294921875</LatitudeDegrees>
              <LongitudeDegrees>-1.91537576727569103240966796875</LongitudeDegrees>
            </Position>
            <AltitudeMeters>479.600006103515625</AltitudeMeters>
            <DistanceMeters>NAN</DistanceMeters>
          </Trackpoint>
          <Trackpoint>
            <Time>2021-08-13T14:44:27.000Z</Time>
            <Position>
              <LatitudeDegrees>43.079967163503170013427734375</LatitudeDegrees>
              <LongitudeDegrees>-1.91538733430206775665283203125</LongitudeDegrees>
            </Position>
            <AltitudeMeters>479.600006103515625</AltitudeMeters>
            <DistanceMeters>NAN</DistanceMeters>
          </Trackpoint>
          <Trackpoint>
            <Time>2021-08-13T14:44:28.000Z</Time>
            <Position>
              <LatitudeDegrees>43.07997227646410465240478515625</LatitudeDegrees>
              <LongitudeDegrees>-1.91540292464196681976318359375</LongitudeDegrees>
            </Position>
            <AltitudeMeters>479.600006103515625</AltitudeMeters>
            <DistanceMeters>NAN</DistanceMeters>
          </Trackpoint>
          <Trackpoint>
            <Time>2021-08-13T14:44:29.000Z</Time>
            <Position>
              <LatitudeDegrees>43.07997982017695903778076171875</LatitudeDegrees>
              <LongitudeDegrees>-1.9154189340770244598388671875</LongitudeDegrees>
            </Position>
            <AltitudeMeters>479.600006103515625</AltitudeMeters>
            <DistanceMeters>NAN</DistanceMeters>
          </Trackpoint>
          <Trackpoint>
            <Time>2021-08-13T14:44:30.000Z</Time>
            <Position>
              <LatitudeDegrees>43.07997982017695903778076171875</LatitudeDegrees>
              <LongitudeDegrees>-1.9154367037117481231689453125</LongitudeDegrees>
            </Position>
            <AltitudeMeters>479.600006103515625</AltitudeMeters>
            <DistanceMeters>NAN</DistanceMeters>
          </Trackpoint>
          <Trackpoint>
            <Time>2021-08-13T14:44:31.000Z</Time>
            <Position>
              <LatitudeDegrees>43.07997143827378749847412109375</LatitudeDegrees>
              <LongitudeDegrees>-1.91545355133712291717529296875</LongitudeDegrees>
            </Position>
            <AltitudeMeters>479.600006103515625</AltitudeMeters>
            <DistanceMeters>NAN</DistanceMeters>
          </Trackpoint>
          <Trackpoint>
            <Time>2021-08-13T14:44:32.000Z</Time>
            <Position>
              <LatitudeDegrees>43.079967163503170013427734375</LatitudeDegrees>
              <LongitudeDegrees>-1.91547769121825695037841796875</LongitudeDegrees>
            </Position>
            <AltitudeMeters>479.600006103515625</AltitudeMeters>
            <DistanceMeters>NAN</DistanceMeters>
          </Trackpoint>
          <Trackpoint>
            <Time>2021-08-13T14:44:33.000Z</Time>
            <Position>
              <LatitudeDegrees>43.07996339164674282073974609375</LatitudeDegrees>
              <LongitudeDegrees>-1.9155131466686725616455078125</LongitudeDegrees>
            </Position>
            <AltitudeMeters>479.600006103515625</AltitudeMeters>
            <DistanceMeters>NAN</DistanceMeters>
          </Trackpoint>
          <Trackpoint>
            <Time>2021-08-13T14:44:34.000Z</Time>
            <Position>
              <LatitudeDegrees>43.07996305637061595916748046875</LatitudeDegrees>
              <LongitudeDegrees>-1.915555894374847412109375</LongitudeDegrees>
            </Position>
            <AltitudeMeters>479.600006103515625</AltitudeMeters>
            <DistanceMeters>NAN</DistanceMeters>
          </Trackpoint>
          <Trackpoint>
            <Time>2021-08-13T14:44:35.000Z</Time>
            <Position>
              <LatitudeDegrees>43.079962469637393951416015625</LatitudeDegrees>
              <LongitudeDegrees>-1.91559889353811740875244140625</LongitudeDegrees>
            </Position>
            <AltitudeMeters>479.600006103515625</AltitudeMeters>
            <DistanceMeters>NAN</DistanceMeters>
          </Trackpoint>
          <Trackpoint>
            <Time>2021-08-13T14:44:36.000Z</Time>
            <Position>
              <LatitudeDegrees>43.07996339164674282073974609375</LatitudeDegrees>
              <LongitudeDegrees>-1.91564147360622882843017578125</LongitudeDegrees>
            </Position>
            <AltitudeMeters>479.600006103515625</AltitudeMeters>
            <DistanceMeters>NAN</DistanceMeters>
          </Trackpoint>
          <Trackpoint>
            <Time>2021-08-13T14:44:38.000Z</Time>
            <Position>
              <LatitudeDegrees>43.07996775023639202117919921875</LatitudeDegrees>
              <LongitudeDegrees>-1.9157324172556400299072265625</LongitudeDegrees>
            </Position>
            <AltitudeMeters>479.600006103515625</AltitudeMeters>
            <DistanceMeters>NAN</DistanceMeters>
          </Trackpoint>
          <Trackpoint>
            <Time>2021-08-13T14:44:44.000Z</Time>
            <Position>
              <LatitudeDegrees>43.07995651848614215850830078125</LatitudeDegrees>
              <LongitudeDegrees>-1.916028298437595367431640625</LongitudeDegrees>
            </Position>
            <AltitudeMeters>479.600006103515625</AltitudeMeters>
            <DistanceMeters>NAN</DistanceMeters>
          </Trackpoint>
          <Trackpoint>
            <Time>2021-08-13T14:44:52.000Z</Time>
            <Position>
              <LatitudeDegrees>43.07993288151919841766357421875</LatitudeDegrees>
              <LongitudeDegrees>-1.91645166836678981781005859375</LongitudeDegrees>
            </Position>
            <AltitudeMeters>479</AltitudeMeters>
            <DistanceMeters>NAN</DistanceMeters>
          </Trackpoint>
          <Trackpoint>
            <Time>2021-08-13T14:44:55.000Z</Time>
            <Position>
              <LatitudeDegrees>43.07990404777228832244873046875</LatitudeDegrees>
              <LongitudeDegrees>-1.91661561839282512664794921875</LongitudeDegrees>
            </Position>
            <AltitudeMeters>479</AltitudeMeters>
            <DistanceMeters>NAN</DistanceMeters>
          </Trackpoint>
          <Trackpoint>
            <Time>2021-08-13T14:44:56.000Z</Time>
            <Position>
              <LatitudeDegrees>43.0798754654824733734130859375</LatitudeDegrees>
              <LongitudeDegrees>-1.91664897836744785308837890625</LongitudeDegrees>
            </Position>
            <AltitudeMeters>478.79998779296875</AltitudeMeters>
            <DistanceMeters>NAN</DistanceMeters>
          </Trackpoint>
          <Trackpoint>
            <Time>2021-08-13T14:44:57.000Z</Time>
            <Position>
              <LatitudeDegrees>43.07984638027846813201904296875</LatitudeDegrees>
              <LongitudeDegrees>-1.9166678376495838165283203125</LongitudeDegrees>
            </Position>
            <AltitudeMeters>478.79998779296875</AltitudeMeters>
            <DistanceMeters>NAN</DistanceMeters>
          </Trackpoint>
          <Trackpoint>
            <Time>2021-08-13T14:44:58.000Z</Time>
            <Position>
              <LatitudeDegrees>43.07981603778898715972900390625</LatitudeDegrees>
              <LongitudeDegrees>-1.91667730920016765594482421875</LongitudeDegrees>
            </Position>
            <AltitudeMeters>478.79998779296875</AltitudeMeters>
            <DistanceMeters>NAN</DistanceMeters>
          </Trackpoint>
          <Trackpoint>
            <Time>2021-08-13T14:44:59.000Z</Time>
            <Position>
              <LatitudeDegrees>43.0797851085662841796875</LatitudeDegrees>
              <LongitudeDegrees>-1.91668150015175342559814453125</LongitudeDegrees>
            </Position>
            <AltitudeMeters>478.600006103515625</AltitudeMeters>
            <DistanceMeters>NAN</DistanceMeters>
          </Trackpoint>
          <Trackpoint>
            <Time>2021-08-13T14:45:00.000Z</Time>
            <Position>
              <LatitudeDegrees>43.07975049130618572235107421875</LatitudeDegrees>
              <LongitudeDegrees>-1.9166851043701171875</LongitudeDegrees>
            </Position>
            <AltitudeMeters>478.600006103515625</AltitudeMeters>
            <DistanceMeters>NAN</DistanceMeters>
          </Trackpoint>
          <Trackpoint>
            <Time>2021-08-13T14:45:03.000Z</Time>
            <Position>
              <LatitudeDegrees>43.079643957316875457763671875</LatitudeDegrees>
              <LongitudeDegrees>-1.916688121855258941650390625</LongitudeDegrees>
            </Position>
            <AltitudeMeters>478.399993896484375</AltitudeMeters>
            <DistanceMeters>NAN</DistanceMeters>
          </Trackpoint>
          <Trackpoint>
            <Time>2021-08-13T14:45:04.000Z</Time>
            <Position>
              <LatitudeDegrees>43.0796136148273944854736328125</LatitudeDegrees>
              <LongitudeDegrees>-1.91668787039816379547119140625</LongitudeDegrees>
            </Position>
            <AltitudeMeters>478.399993896484375</AltitudeMeters>
            <DistanceMeters>NAN</DistanceMeters>
          </Trackpoint>
          <Trackpoint>
            <Time>2021-08-13T14:45:05.000Z</Time>
            <Position>
              <LatitudeDegrees>43.07958729565143585205078125</LatitudeDegrees>
              <LongitudeDegrees>-1.9166906364262104034423828125</LongitudeDegrees>
            </Position>
            <AltitudeMeters>478.399993896484375</AltitudeMeters>
            <DistanceMeters>NAN</DistanceMeters>
          </Trackpoint>
          <Trackpoint>
            <Time>2021-08-13T14:45:06.000Z</Time>
            <Position>
              <LatitudeDegrees>43.0795629881322383880615234375</LatitudeDegrees>
              <LongitudeDegrees>-1.91669491119682788848876953125</LongitudeDegrees>
            </Position>
            <AltitudeMeters>478.399993896484375</AltitudeMeters>
            <DistanceMeters>NAN</DistanceMeters>
          </Trackpoint>
          <Trackpoint>
            <Time>2021-08-13T14:45:07.000Z</Time>
            <Position>
              <LatitudeDegrees>43.0795316398143768310546875</LatitudeDegrees>
              <LongitudeDegrees>-1.9166998565196990966796875</LongitudeDegrees>
            </Position>
            <AltitudeMeters>478.399993896484375</AltitudeMeters>
            <DistanceMeters>NAN</DistanceMeters>
          </Trackpoint>
          <Trackpoint>
            <Time>2021-08-13T14:45:08.000Z</Time>
            <Position>
              <LatitudeDegrees>43.07950322516262531280517578125</LatitudeDegrees>
              <LongitudeDegrees>-1.9167070649564266204833984375</LongitudeDegrees>
            </Position>
            <AltitudeMeters>478.600006103515625</AltitudeMeters>
            <DistanceMeters>NAN</DistanceMeters>
          </Trackpoint>
          <Trackpoint>
            <Time>2021-08-13T14:45:09.000Z</Time>
            <Position>
              <LatitudeDegrees>43.07947464287281036376953125</LatitudeDegrees>
              <LongitudeDegrees>-1.91671519540250301361083984375</LongitudeDegrees>
            </Position>
            <AltitudeMeters>478.600006103515625</AltitudeMeters>
            <DistanceMeters>NAN</DistanceMeters>
          </Trackpoint>
          <Trackpoint>
            <Time>2021-08-13T14:45:12.000Z</Time>
            <Position>
              <LatitudeDegrees>43.07939057238399982452392578125</LatitudeDegrees>
              <LongitudeDegrees>-1.91673799417912960052490234375</LongitudeDegrees>
            </Position>
            <AltitudeMeters>478.600006103515625</AltitudeMeters>
            <DistanceMeters>NAN</DistanceMeters>
          </Trackpoint>
          <Trackpoint>
            <Time>2021-08-13T14:45:13.000Z</Time>
            <Position>
              <LatitudeDegrees>43.07937716133892536163330078125</LatitudeDegrees>
              <LongitudeDegrees>-1.91676112823188304901123046875</LongitudeDegrees>
            </Position>
            <AltitudeMeters>478.399993896484375</AltitudeMeters>
            <DistanceMeters>NAN</DistanceMeters>
          </Trackpoint>
          <Trackpoint>
            <Time>2021-08-13T14:45:14.000Z</Time>
            <Position>
              <LatitudeDegrees>43.07936727069318294525146484375</LatitudeDegrees>
              <LongitudeDegrees>-1.9167902134358882904052734375</LongitudeDegrees>
            </Position>
            <AltitudeMeters>478.399993896484375</AltitudeMeters>
            <DistanceMeters>NAN</DistanceMeters>
          </Trackpoint>
          <Trackpoint>
            <Time>2021-08-13T14:45:15.000Z</Time>
            <Position>
              <LatitudeDegrees>43.0793661810457706451416015625</LatitudeDegrees>
              <LongitudeDegrees>-1.91682516597211360931396484375</LongitudeDegrees>
            </Position>
            <AltitudeMeters>478.399993896484375</AltitudeMeters>
            <DistanceMeters>NAN</DistanceMeters>
          </Trackpoint>
          <Trackpoint>
            <Time>2021-08-13T14:45:16.000Z</Time>
            <Position>
              <LatitudeDegrees>43.07936458848416805267333984375</LatitudeDegrees>
              <LongitudeDegrees>-1.916862465441226959228515625</LongitudeDegrees>
            </Position>
            <AltitudeMeters>478.600006103515625</AltitudeMeters>
            <DistanceMeters>NAN</DistanceMeters>
          </Trackpoint>
          <Trackpoint>
            <Time>2021-08-13T14:45:17.000Z</Time>
            <Position>
              <LatitudeDegrees>43.079365678131580352783203125</LatitudeDegrees>
              <LongitudeDegrees>-1.91690244711935520172119140625</LongitudeDegrees>
            </Position>
            <AltitudeMeters>478.600006103515625</AltitudeMeters>
            <DistanceMeters>NAN</DistanceMeters>
          </Trackpoint>
          <Trackpoint>
            <Time>2021-08-13T14:45:18.000Z</Time>
            <Position>
              <LatitudeDegrees>43.079367689788341522216796875</LatitudeDegrees>
              <LongitudeDegrees>-1.91694033332169055938720703125</LongitudeDegrees>
            </Position>
            <AltitudeMeters>478.399993896484375</AltitudeMeters>
            <DistanceMeters>NAN</DistanceMeters>
          </Trackpoint>
          <Trackpoint>
            <Time>2021-08-13T14:45:19.000Z</Time>
            <Position>
              <LatitudeDegrees>43.07937665842473506927490234375</LatitudeDegrees>
              <LongitudeDegrees>-1.9169789738953113555908203125</LongitudeDegrees>
            </Position>
            <AltitudeMeters>478.399993896484375</AltitudeMeters>
            <DistanceMeters>NAN</DistanceMeters>
          </Trackpoint>
          <Trackpoint>
            <Time>2021-08-13T14:45:20.000Z</Time>
            <Position>
              <LatitudeDegrees>43.07938923127949237823486328125</LatitudeDegrees>
              <LongitudeDegrees>-1.91701208241283893585205078125</LongitudeDegrees>
            </Position>
            <AltitudeMeters>478.399993896484375</AltitudeMeters>
            <DistanceMeters>NAN</DistanceMeters>
          </Trackpoint>
          <Trackpoint>
            <Time>2021-08-13T14:45:21.000Z</Time>
            <Position>
              <LatitudeDegrees>43.07940146885812282562255859375</LatitudeDegrees>
              <LongitudeDegrees>-1.91704527474939823150634765625</LongitudeDegrees>
            </Position>
            <AltitudeMeters>478.399993896484375</AltitudeMeters>
            <DistanceMeters>NAN</DistanceMeters>
          </Trackpoint>
          <Trackpoint>
            <Time>2021-08-13T14:45:22.000Z</Time>
            <Position>
              <LatitudeDegrees>43.07941873557865619659423828125</LatitudeDegrees>
              <LongitudeDegrees>-1.91708349622786045074462890625</LongitudeDegrees>
            </Position>
            <AltitudeMeters>478.20001220703125</AltitudeMeters>
            <DistanceMeters>NAN</DistanceMeters>
          </Trackpoint>
          <Trackpoint>
            <Time>2021-08-13T14:45:25.000Z</Time>
            <Position>
              <LatitudeDegrees>43.0794909037649631500244140625</LatitudeDegrees>
              <LongitudeDegrees>-1.9172290898859500885009765625</LongitudeDegrees>
            </Position>
            <AltitudeMeters>478</AltitudeMeters>
            <DistanceMeters>NAN</DistanceMeters>
          </Trackpoint>
          <Trackpoint>
            <Time>2021-08-13T14:45:27.000Z</Time>
            <Position>
              <LatitudeDegrees>43.07953876443207263946533203125</LatitudeDegrees>
              <LongitudeDegrees>-1.91732489503920078277587890625</LongitudeDegrees>
            </Position>
            <AltitudeMeters>477.79998779296875</AltitudeMeters>
            <DistanceMeters>NAN</DistanceMeters>
          </Trackpoint>
          <Trackpoint>
            <Time>2021-08-13T14:45:28.000Z</Time>
            <Position>
              <LatitudeDegrees>43.07956055738031864166259765625</LatitudeDegrees>
              <LongitudeDegrees>-1.9173648767173290252685546875</LongitudeDegrees>
            </Position>
            <AltitudeMeters>477.79998779296875</AltitudeMeters>
            <DistanceMeters>NAN</DistanceMeters>
          </Trackpoint>
          <Trackpoint>
            <Time>2021-08-13T14:45:29.000Z</Time>
            <Position>
              <LatitudeDegrees>43.0795784108340740203857421875</LatitudeDegrees>
              <LongitudeDegrees>-1.917402930557727813720703125</LongitudeDegrees>
            </Position>
            <AltitudeMeters>477.79998779296875</AltitudeMeters>
            <DistanceMeters>NAN</DistanceMeters>
          </Trackpoint>
          <Trackpoint>
            <Time>2021-08-13T14:45:30.000Z</Time>
            <Position>
              <LatitudeDegrees>43.0795918218791484832763671875</LatitudeDegrees>
              <LongitudeDegrees>-1.91744207404553890228271484375</LongitudeDegrees>
            </Position>
            <AltitudeMeters>477.79998779296875</AltitudeMeters>
            <DistanceMeters>NAN</DistanceMeters>
          </Trackpoint>
          <Trackpoint>
            <Time>2021-08-13T14:45:31.000Z</Time>
            <Position>
              <LatitudeDegrees>43.0796062387526035308837890625</LatitudeDegrees>
              <LongitudeDegrees>-1.91749203018844127655029296875</LongitudeDegrees>
            </Position>
            <AltitudeMeters>478</AltitudeMeters>
            <DistanceMeters>NAN</DistanceMeters>
          </Trackpoint>
          <Trackpoint>
            <Time>2021-08-13T14:45:32.000Z</Time>
            <Position>
              <LatitudeDegrees>43.079623170197010040283203125</LatitudeDegrees>
              <LongitudeDegrees>-1.91754265688359737396240234375</LongitudeDegrees>
            </Position>
            <AltitudeMeters>477.79998779296875</AltitudeMeters>
            <DistanceMeters>NAN</DistanceMeters>
          </Trackpoint>
          <Trackpoint>
            <Time>2021-08-13T14:45:34.000Z</Time>
            <Position>
              <LatitudeDegrees>43.07963180355727672576904296875</LatitudeDegrees>
              <LongitudeDegrees>-1.91764458082616329193115234375</LongitudeDegrees>
            </Position>
            <AltitudeMeters>478</AltitudeMeters>
            <DistanceMeters>NAN</DistanceMeters>
          </Trackpoint>
          <Trackpoint>
            <Time>2021-08-13T14:45:35.000Z</Time>
            <Position>
              <LatitudeDegrees>43.07962325401604175567626953125</LatitudeDegrees>
              <LongitudeDegrees>-1.91768749617040157318115234375</LongitudeDegrees>
            </Position>
            <AltitudeMeters>478</AltitudeMeters>
            <DistanceMeters>NAN</DistanceMeters>
          </Trackpoint>
          <Trackpoint>
            <Time>2021-08-13T14:45:36.000Z</Time>
            <Position>
              <LatitudeDegrees>43.0796122737228870391845703125</LatitudeDegrees>
              <LongitudeDegrees>-1.9177199341356754302978515625</LongitudeDegrees>
            </Position>
            <AltitudeMeters>478</AltitudeMeters>
            <DistanceMeters>NAN</DistanceMeters>
          </Trackpoint>
          <Trackpoint>
            <Time>2021-08-13T14:45:37.000Z</Time>
            <Position>
              <LatitudeDegrees>43.07958939112722873687744140625</LatitudeDegrees>
              <LongitudeDegrees>-1.91773409955203533172607421875</LongitudeDegrees>
            </Position>
            <AltitudeMeters>478</AltitudeMeters>
            <DistanceMeters>NAN</DistanceMeters>
          </Trackpoint>
          <Trackpoint>
            <Time>2021-08-13T14:45:38.000Z</Time>
            <Position>
              <LatitudeDegrees>43.07956106029450893402099609375</LatitudeDegrees>
              <LongitudeDegrees>-1.91774147562682628631591796875</LongitudeDegrees>
            </Position>
            <AltitudeMeters>478.20001220703125</AltitudeMeters>
            <DistanceMeters>NAN</DistanceMeters>
          </Trackpoint>
          <Trackpoint>
            <Time>2021-08-13T14:45:39.000Z</Time>
            <Position>
              <LatitudeDegrees>43.07953306473791599273681640625</LatitudeDegrees>
              <LongitudeDegrees>-1.9177501089870929718017578125</LongitudeDegrees>
            </Position>
            <AltitudeMeters>478.20001220703125</AltitudeMeters>
            <DistanceMeters>NAN</DistanceMeters>
          </Trackpoint>
          <Trackpoint>
            <Time>2021-08-13T14:45:40.000Z</Time>
            <Position>
              <LatitudeDegrees>43.07949953712522983551025390625</LatitudeDegrees>
              <LongitudeDegrees>-1.9177541323006153106689453125</LongitudeDegrees>
            </Position>
            <AltitudeMeters>478.20001220703125</AltitudeMeters>
            <DistanceMeters>NAN</DistanceMeters>
          </Trackpoint>
          <Trackpoint>
            <Time>2021-08-13T14:45:41.000Z</Time>
            <Position>
              <LatitudeDegrees>43.07948159985244274139404296875</LatitudeDegrees>
              <LongitudeDegrees>-1.91776762716472148895263671875</LongitudeDegrees>
            </Position>
            <AltitudeMeters>478.20001220703125</AltitudeMeters>
            <DistanceMeters>NAN</DistanceMeters>
          </Trackpoint>
          <Trackpoint>
            <Time>2021-08-13T14:45:42.000Z</Time>
            <Position>
              <LatitudeDegrees>43.079457543790340423583984375</LatitudeDegrees>
              <LongitudeDegrees>-1.9177687168121337890625</LongitudeDegrees>
            </Position>
            <AltitudeMeters>478.399993896484375</AltitudeMeters>
            <DistanceMeters>NAN</DistanceMeters>
          </Trackpoint>
          <Trackpoint>
            <Time>2021-08-13T14:45:43.000Z</Time>
            <Position>
              <LatitudeDegrees>43.0794335715472698211669921875</LatitudeDegrees>
              <LongitudeDegrees>-1.91777936182916164398193359375</LongitudeDegrees>
            </Position>
            <AltitudeMeters>478.399993896484375</AltitudeMeters>
            <DistanceMeters>NAN</DistanceMeters>
          </Trackpoint>
          <Trackpoint>
            <Time>2021-08-13T14:45:44.000Z</Time>
            <Position>
              <LatitudeDegrees>43.0794050730764865875244140625</LatitudeDegrees>
              <LongitudeDegrees>-1.91778690554201602935791015625</LongitudeDegrees>
            </Position>
            <AltitudeMeters>478.399993896484375</AltitudeMeters>
            <DistanceMeters>NAN</DistanceMeters>
          </Trackpoint>
          <Trackpoint>
            <Time>2021-08-13T14:45:45.000Z</Time>
            <Position>
              <LatitudeDegrees>43.0793846212327480316162109375</LatitudeDegrees>
              <LongitudeDegrees>-1.91779377870261669158935546875</LongitudeDegrees>
            </Position>
            <AltitudeMeters>478.399993896484375</AltitudeMeters>
            <DistanceMeters>NAN</DistanceMeters>
          </Trackpoint>
          <Trackpoint>
            <Time>2021-08-13T14:45:46.000Z</Time>
            <Position>
              <LatitudeDegrees>43.079362325370311737060546875</LatitudeDegrees>
              <LongitudeDegrees>-1.91779813729226589202880859375</LongitudeDegrees>
            </Position>
            <AltitudeMeters>478.399993896484375</AltitudeMeters>
            <DistanceMeters>NAN</DistanceMeters>
          </Trackpoint>
          <Trackpoint>
            <Time>2021-08-13T14:45:47.000Z</Time>
            <Position>
              <LatitudeDegrees>43.07934950105845928192138671875</LatitudeDegrees>
              <LongitudeDegrees>-1.91781003959476947784423828125</LongitudeDegrees>
            </Position>
            <AltitudeMeters>478.399993896484375</AltitudeMeters>
            <DistanceMeters>NAN</DistanceMeters>
          </Trackpoint>
          <Trackpoint>
            <Time>2021-08-13T14:45:48.000Z</Time>
            <Position>
              <LatitudeDegrees>43.07933558709919452667236328125</LatitudeDegrees>
              <LongitudeDegrees>-1.9178231991827487945556640625</LongitudeDegrees>
            </Position>
            <AltitudeMeters>478.399993896484375</AltitudeMeters>
            <DistanceMeters>NAN</DistanceMeters>
          </Trackpoint>
          <Trackpoint>
            <Time>2021-08-13T14:45:49.000Z</Time>
            <Position>
              <LatitudeDegrees>43.07932049967348575592041015625</LatitudeDegrees>
              <LongitudeDegrees>-1.9178359396755695343017578125</LongitudeDegrees>
            </Position>
            <AltitudeMeters>478.399993896484375</AltitudeMeters>
            <DistanceMeters>NAN</DistanceMeters>
          </Trackpoint>
          <Trackpoint>
            <Time>2021-08-13T14:45:50.000Z</Time>
            <Position>
              <LatitudeDegrees>43.07930566370487213134765625</LatitudeDegrees>
              <LongitudeDegrees>-1.91784046590328216552734375</LongitudeDegrees>
            </Position>
            <AltitudeMeters>478.399993896484375</AltitudeMeters>
            <DistanceMeters>NAN</DistanceMeters>
          </Trackpoint>
          <Trackpoint>
            <Time>2021-08-13T14:45:51.000Z</Time>
            <Position>
              <LatitudeDegrees>43.0792917497456073760986328125</LatitudeDegrees>
              <LongitudeDegrees>-1.917842142283916473388671875</LongitudeDegrees>
            </Position>
            <AltitudeMeters>478.399993896484375</AltitudeMeters>
            <DistanceMeters>NAN</DistanceMeters>
          </Trackpoint>
          <Trackpoint>
            <Time>2021-08-13T14:45:52.000Z</Time>
            <Position>
              <LatitudeDegrees>43.0792821943759918212890625</LatitudeDegrees>
              <LongitudeDegrees>-1.91785178147256374359130859375</LongitudeDegrees>
            </Position>
            <AltitudeMeters>478.399993896484375</AltitudeMeters>
            <DistanceMeters>NAN</DistanceMeters>
          </Trackpoint>
          <Trackpoint>
            <Time>2021-08-13T14:45:53.000Z</Time>
            <Position>
              <LatitudeDegrees>43.079271130263805389404296875</LatitudeDegrees>
              <LongitudeDegrees>-1.91786284558475017547607421875</LongitudeDegrees>
            </Position>
            <AltitudeMeters>478.399993896484375</AltitudeMeters>
            <DistanceMeters>NAN</DistanceMeters>
          </Trackpoint>
          <Trackpoint>
            <Time>2021-08-13T14:45:54.000Z</Time>
            <Position>
              <LatitudeDegrees>43.0792639218270778656005859375</LatitudeDegrees>
              <LongitudeDegrees>-1.9178681261837482452392578125</LongitudeDegrees>
            </Position>
            <AltitudeMeters>478.399993896484375</AltitudeMeters>
            <DistanceMeters>NAN</DistanceMeters>
          </Trackpoint>
          <Trackpoint>
            <Time>2021-08-13T14:45:55.000Z</Time>
            <Position>
              <LatitudeDegrees>43.07926182635128498077392578125</LatitudeDegrees>
              <LongitudeDegrees>-1.91787089221179485321044921875</LongitudeDegrees>
            </Position>
            <AltitudeMeters>478.399993896484375</AltitudeMeters>
            <DistanceMeters>NAN</DistanceMeters>
          </Trackpoint>
          <Trackpoint>
            <Time>2021-08-13T14:45:56.000Z</Time>
            <Position>
              <LatitudeDegrees>43.07926266454160213470458984375</LatitudeDegrees>
              <LongitudeDegrees>-1.91787458024919033050537109375</LongitudeDegrees>
            </Position>
            <AltitudeMeters>478.20001220703125</AltitudeMeters>
            <DistanceMeters>NAN</DistanceMeters>
          </Trackpoint>
          <Trackpoint>
            <Time>2021-08-13T14:45:57.000Z</Time>
            <Position>
              <LatitudeDegrees>43.0792622454464435577392578125</LatitudeDegrees>
              <LongitudeDegrees>-1.91787340678274631500244140625</LongitudeDegrees>
            </Position>
            <AltitudeMeters>478.20001220703125</AltitudeMeters>
            <DistanceMeters>NAN</DistanceMeters>
          </Trackpoint>
          <Trackpoint>
            <Time>2021-08-13T14:45:58.000Z</Time>
            <Position>
              <LatitudeDegrees>43.0792592279613018035888671875</LatitudeDegrees>
              <LongitudeDegrees>-1.9178731553256511688232421875</LongitudeDegrees>
            </Position>
            <AltitudeMeters>478.20001220703125</AltitudeMeters>
            <DistanceMeters>NAN</DistanceMeters>
          </Trackpoint>
          <Trackpoint>
            <Time>2021-08-13T14:45:59.000Z</Time>
            <Position>
              <LatitudeDegrees>43.07925696484744548797607421875</LatitudeDegrees>
              <LongitudeDegrees>-1.91787910647690296173095703125</LongitudeDegrees>
            </Position>
            <AltitudeMeters>478.20001220703125</AltitudeMeters>
            <DistanceMeters>NAN</DistanceMeters>
          </Trackpoint>
          <Trackpoint>
            <Time>2021-08-13T14:46:00.000Z</Time>
            <Position>
              <LatitudeDegrees>43.0792562104761600494384765625</LatitudeDegrees>
              <LongitudeDegrees>-1.91787793301045894622802734375</LongitudeDegrees>
            </Position>
            <AltitudeMeters>478.20001220703125</AltitudeMeters>
            <DistanceMeters>NAN</DistanceMeters>
          </Trackpoint>
          <Trackpoint>
            <Time>2021-08-13T14:46:05.000Z</Time>
            <Position>
              <LatitudeDegrees>43.079252354800701141357421875</LatitudeDegrees>
              <LongitudeDegrees>-1.91786058247089385986328125</LongitudeDegrees>
            </Position>
            <AltitudeMeters>478.20001220703125</AltitudeMeters>
            <DistanceMeters>NAN</DistanceMeters>
          </Trackpoint>
          <Trackpoint>
            <Time>2021-08-13T14:46:06.000Z</Time>
            <Position>
              <LatitudeDegrees>43.07924992404878139495849609375</LatitudeDegrees>
              <LongitudeDegrees>-1.91785630770027637481689453125</LongitudeDegrees>
            </Position>
            <AltitudeMeters>478.20001220703125</AltitudeMeters>
            <DistanceMeters>NAN</DistanceMeters>
          </Trackpoint>
          <Trackpoint>
            <Time>2021-08-13T14:46:13.000Z</Time>
            <Position>
              <LatitudeDegrees>43.07924774475395679473876953125</LatitudeDegrees>
              <LongitudeDegrees>-1.9178533740341663360595703125</LongitudeDegrees>
            </Position>
            <AltitudeMeters>478</AltitudeMeters>
            <DistanceMeters>NAN</DistanceMeters>
          </Trackpoint>
          <Trackpoint>
            <Time>2021-08-13T14:46:22.000Z</Time>
            <Position>
              <LatitudeDegrees>43.07924774475395679473876953125</LatitudeDegrees>
              <LongitudeDegrees>-1.9178533740341663360595703125</LongitudeDegrees>
            </Position>
            <AltitudeMeters>478</AltitudeMeters>
            <DistanceMeters>NAN</DistanceMeters>
          </Trackpoint>
          <Trackpoint>
            <Time>2021-08-13T14:47:28.000Z</Time>
            <Position>
              <LatitudeDegrees>43.07927481830120086669921875</LatitudeDegrees>
              <LongitudeDegrees>-1.917942054569721221923828125</LongitudeDegrees>
            </Position>
            <AltitudeMeters>478.399993896484375</AltitudeMeters>
            <DistanceMeters>NAN</DistanceMeters>
          </Trackpoint>
          <Trackpoint>
            <Time>2021-08-13T14:47:32.000Z</Time>
            <Position>
              <LatitudeDegrees>43.0792974494397640228271484375</LatitudeDegrees>
              <LongitudeDegrees>-1.91792788915336132049560546875</LongitudeDegrees>
            </Position>
            <AltitudeMeters>479</AltitudeMeters>
            <DistanceMeters>NAN</DistanceMeters>
          </Trackpoint>
          <Trackpoint>
            <Time>2021-08-13T14:47:33.000Z</Time>
            <Position>
              <LatitudeDegrees>43.0793014727532863616943359375</LatitudeDegrees>
              <LongitudeDegrees>-1.91792101599276065826416015625</LongitudeDegrees>
            </Position>
            <AltitudeMeters>479.20001220703125</AltitudeMeters>
            <DistanceMeters>NAN</DistanceMeters>
          </Trackpoint>
          <Trackpoint>
            <Time>2021-08-13T14:47:34.000Z</Time>
            <Position>
              <LatitudeDegrees>43.0793014727532863616943359375</LatitudeDegrees>
              <LongitudeDegrees>-1.91792101599276065826416015625</LongitudeDegrees>
            </Position>
            <AltitudeMeters>479.20001220703125</AltitudeMeters>
            <DistanceMeters>NAN</DistanceMeters>
          </Trackpoint>
          <Trackpoint>
            <Time>2021-08-13T14:47:38.000Z</Time>
            <Position>
              <LatitudeDegrees>43.079245984554290771484375</LatitudeDegrees>
              <LongitudeDegrees>-1.91788740456104278564453125</LongitudeDegrees>
            </Position>
            <AltitudeMeters>478.600006103515625</AltitudeMeters>
            <DistanceMeters>NAN</DistanceMeters>
          </Trackpoint>
          <Trackpoint>
            <Time>2021-08-13T14:47:40.000Z</Time>
            <Position>
              <LatitudeDegrees>43.07923601008951663970947265625</LatitudeDegrees>
              <LongitudeDegrees>-1.917858235538005828857421875</LongitudeDegrees>
            </Position>
            <AltitudeMeters>478.399993896484375</AltitudeMeters>
            <DistanceMeters>NAN</DistanceMeters>
          </Trackpoint>
          <Trackpoint>
            <Time>2021-08-13T14:47:42.000Z</Time>
            <Position>
              <LatitudeDegrees>43.079228214919567108154296875</LatitudeDegrees>
              <LongitudeDegrees>-1.91783300600945949554443359375</LongitudeDegrees>
            </Position>
            <AltitudeMeters>478.399993896484375</AltitudeMeters>
            <DistanceMeters>NAN</DistanceMeters>
          </Trackpoint>
          <Trackpoint>
            <Time>2021-08-13T14:47:43.000Z</Time>
            <Position>
              <LatitudeDegrees>43.0792541988193988800048828125</LatitudeDegrees>
              <LongitudeDegrees>-1.9178044237196445465087890625</LongitudeDegrees>
            </Position>
            <AltitudeMeters>478.399993896484375</AltitudeMeters>
            <DistanceMeters>NAN</DistanceMeters>
          </Trackpoint>
          <Trackpoint>
            <Time>2021-08-13T14:47:44.000Z</Time>
            <Position>
              <LatitudeDegrees>43.07925797067582607269287109375</LatitudeDegrees>
              <LongitudeDegrees>-1.91779847256839275360107421875</LongitudeDegrees>
            </Position>
            <AltitudeMeters>478.399993896484375</AltitudeMeters>
            <DistanceMeters>NAN</DistanceMeters>
          </Trackpoint>
          <Trackpoint>
            <Time>2021-08-13T14:47:45.000Z</Time>
            <Position>
              <LatitudeDegrees>43.0792719684541225433349609375</LatitudeDegrees>
              <LongitudeDegrees>-1.9178024120628833770751953125</LongitudeDegrees>
            </Position>
            <AltitudeMeters>478.399993896484375</AltitudeMeters>
            <DistanceMeters>NAN</DistanceMeters>
          </Trackpoint>
          <Trackpoint>
            <Time>2021-08-13T14:47:46.000Z</Time>
            <Position>
              <LatitudeDegrees>43.07930373586714267730712890625</LatitudeDegrees>
              <LongitudeDegrees>-1.91780132241547107696533203125</LongitudeDegrees>
            </Position>
            <AltitudeMeters>478.399993896484375</AltitudeMeters>
            <DistanceMeters>NAN</DistanceMeters>
          </Trackpoint>
          <Trackpoint>
            <Time>2021-08-13T14:47:50.000Z</Time>
            <Position>
              <LatitudeDegrees>43.0793948471546173095703125</LatitudeDegrees>
              <LongitudeDegrees>-1.91780065186321735382080078125</LongitudeDegrees>
            </Position>
            <AltitudeMeters>478.399993896484375</AltitudeMeters>
            <DistanceMeters>NAN</DistanceMeters>
          </Trackpoint>
          <Trackpoint>
            <Time>2021-08-13T14:47:51.000Z</Time>
            <Position>
              <LatitudeDegrees>43.07941320352256298065185546875</LatitudeDegrees>
              <LongitudeDegrees>-1.91779143176972866058349609375</LongitudeDegrees>
            </Position>
            <AltitudeMeters>478.399993896484375</AltitudeMeters>
            <DistanceMeters>NAN</DistanceMeters>
          </Trackpoint>
          <Trackpoint>
            <Time>2021-08-13T14:47:52.000Z</Time>
            <Position>
              <LatitudeDegrees>43.07945695705711841583251953125</LatitudeDegrees>
              <LongitudeDegrees>-1.917754299938678741455078125</LongitudeDegrees>
            </Position>
            <AltitudeMeters>478.399993896484375</AltitudeMeters>
            <DistanceMeters>NAN</DistanceMeters>
          </Trackpoint>
          <Trackpoint>
            <Time>2021-08-13T14:47:53.000Z</Time>
            <Position>
              <LatitudeDegrees>43.07948914356529712677001953125</LatitudeDegrees>
              <LongitudeDegrees>-1.91773175261914730072021484375</LongitudeDegrees>
            </Position>
            <AltitudeMeters>478.600006103515625</AltitudeMeters>
            <DistanceMeters>NAN</DistanceMeters>
          </Trackpoint>
          <Trackpoint>
            <Time>2021-08-13T14:47:54.000Z</Time>
            <Position>
              <LatitudeDegrees>43.07951579801738262176513671875</LatitudeDegrees>
              <LongitudeDegrees>-1.91770979203283786773681640625</LongitudeDegrees>
            </Position>
            <AltitudeMeters>478.600006103515625</AltitudeMeters>
            <DistanceMeters>NAN</DistanceMeters>
          </Trackpoint>
          <Trackpoint>
            <Time>2021-08-13T14:47:55.000Z</Time>
            <Position>
              <LatitudeDegrees>43.0795365013182163238525390625</LatitudeDegrees>
              <LongitudeDegrees>-1.91771037876605987548828125</LongitudeDegrees>
            </Position>
            <AltitudeMeters>478.600006103515625</AltitudeMeters>
            <DistanceMeters>NAN</DistanceMeters>
          </Trackpoint>
          <Trackpoint>
            <Time>2021-08-13T14:47:56.000Z</Time>
            <Position>
              <LatitudeDegrees>43.07956089265644550323486328125</LatitudeDegrees>
              <LongitudeDegrees>-1.9177286513149738311767578125</LongitudeDegrees>
            </Position>
            <AltitudeMeters>478.600006103515625</AltitudeMeters>
            <DistanceMeters>NAN</DistanceMeters>
          </Trackpoint>
          <Trackpoint>
            <Time>2021-08-13T14:47:57.000Z</Time>
            <Position>
              <LatitudeDegrees>43.07956089265644550323486328125</LatitudeDegrees>
              <LongitudeDegrees>-1.9177286513149738311767578125</LongitudeDegrees>
            </Position>
            <AltitudeMeters>478.600006103515625</AltitudeMeters>
            <DistanceMeters>NAN</DistanceMeters>
          </Trackpoint>
          <Trackpoint>
            <Time>2021-08-13T14:47:58.000Z</Time>
            <Position>
              <LatitudeDegrees>43.07961805723607540130615234375</LatitudeDegrees>
              <LongitudeDegrees>-1.91779143176972866058349609375</LongitudeDegrees>
            </Position>
            <AltitudeMeters>478.600006103515625</AltitudeMeters>
            <DistanceMeters>NAN</DistanceMeters>
          </Trackpoint>
          <Trackpoint>
            <Time>2021-08-13T14:48:01.000Z</Time>
            <Position>
              <LatitudeDegrees>43.07969248853623867034912109375</LatitudeDegrees>
              <LongitudeDegrees>-1.91790408454835414886474609375</LongitudeDegrees>
            </Position>
            <AltitudeMeters>478.600006103515625</AltitudeMeters>
            <DistanceMeters>NAN</DistanceMeters>
          </Trackpoint>
          <Trackpoint>
            <Time>2021-08-13T14:48:03.000Z</Time>
            <Position>
              <LatitudeDegrees>43.07970120571553707122802734375</LatitudeDegrees>
              <LongitudeDegrees>-1.91794146783649921417236328125</LongitudeDegrees>
            </Position>
            <AltitudeMeters>478.399993896484375</AltitudeMeters>
            <DistanceMeters>NAN</DistanceMeters>
          </Trackpoint>
          <Trackpoint>
            <Time>2021-08-13T14:48:04.000Z</Time>
            <Position>
              <LatitudeDegrees>43.0796910636126995086669921875</LatitudeDegrees>
              <LongitudeDegrees>-1.91799092106521129608154296875</LongitudeDegrees>
            </Position>
            <AltitudeMeters>478.399993896484375</AltitudeMeters>
            <DistanceMeters>NAN</DistanceMeters>
          </Trackpoint>
          <Trackpoint>
            <Time>2021-08-13T14:48:05.000Z</Time>
            <Position>
              <LatitudeDegrees>43.079670108854770660400390625</LatitudeDegrees>
              <LongitudeDegrees>-1.91800684668123722076416015625</LongitudeDegrees>
            </Position>
            <AltitudeMeters>478.399993896484375</AltitudeMeters>
            <DistanceMeters>NAN</DistanceMeters>
          </Trackpoint>
          <Trackpoint>
            <Time>2021-08-13T14:48:11.000Z</Time>
            <Position>
              <LatitudeDegrees>43.07953943498432636260986328125</LatitudeDegrees>
              <LongitudeDegrees>-1.9180930964648723602294921875</LongitudeDegrees>
            </Position>
            <AltitudeMeters>478.20001220703125</AltitudeMeters>
            <DistanceMeters>NAN</DistanceMeters>
          </Trackpoint>
          <Trackpoint>
            <Time>2021-08-13T14:48:12.000Z</Time>
            <Position>
              <LatitudeDegrees>43.07949601672589778900146484375</LatitudeDegrees>
              <LongitudeDegrees>-1.9181279651820659637451171875</LongitudeDegrees>
            </Position>
            <AltitudeMeters>478</AltitudeMeters>
            <DistanceMeters>NAN</DistanceMeters>
          </Trackpoint>
          <Trackpoint>
            <Time>2021-08-13T14:48:13.000Z</Time>
            <Position>
              <LatitudeDegrees>43.0794724635779857635498046875</LatitudeDegrees>
              <LongitudeDegrees>-1.91813911311328411102294921875</LongitudeDegrees>
            </Position>
            <AltitudeMeters>478</AltitudeMeters>
            <DistanceMeters>NAN</DistanceMeters>
          </Trackpoint>
          <Trackpoint>
            <Time>2021-08-13T14:48:14.000Z</Time>
            <Position>
              <LatitudeDegrees>43.0794500000774860382080078125</LatitudeDegrees>
              <LongitudeDegrees>-1.918157301843166351318359375</LongitudeDegrees>
            </Position>
            <AltitudeMeters>478</AltitudeMeters>
            <DistanceMeters>NAN</DistanceMeters>
          </Trackpoint>
          <Trackpoint>
            <Time>2021-08-13T14:48:16.000Z</Time>
            <Position>
              <LatitudeDegrees>43.07941152714192867279052734375</LatitudeDegrees>
              <LongitudeDegrees>-1.918215639889240264892578125</LongitudeDegrees>
            </Position>
            <AltitudeMeters>478</AltitudeMeters>
            <DistanceMeters>NAN</DistanceMeters>
          </Trackpoint>
          <Trackpoint>
            <Time>2021-08-13T14:48:17.000Z</Time>
            <Position>
              <LatitudeDegrees>43.07941152714192867279052734375</LatitudeDegrees>
              <LongitudeDegrees>-1.918215639889240264892578125</LongitudeDegrees>
            </Position>
            <AltitudeMeters>478</AltitudeMeters>
            <DistanceMeters>NAN</DistanceMeters>
          </Trackpoint>
          <Trackpoint>
            <Time>2021-08-13T14:48:18.000Z</Time>
            <Position>
              <LatitudeDegrees>43.0793718807399272918701171875</LatitudeDegrees>
              <LongitudeDegrees>-1.9182479940354824066162109375</LongitudeDegrees>
            </Position>
            <AltitudeMeters>478</AltitudeMeters>
            <DistanceMeters>NAN</DistanceMeters>
          </Trackpoint>
          <Trackpoint>
            <Time>2021-08-13T14:48:19.000Z</Time>
            <Position>
              <LatitudeDegrees>43.07935486547648906707763671875</LatitudeDegrees>
              <LongitudeDegrees>-1.91826165653765201568603515625</LongitudeDegrees>
            </Position>
            <AltitudeMeters>478</AltitudeMeters>
            <DistanceMeters>NAN</DistanceMeters>
          </Trackpoint>
          <Trackpoint>
            <Time>2021-08-13T14:48:20.000Z</Time>
            <Position>
              <LatitudeDegrees>43.07934455573558807373046875</LatitudeDegrees>
              <LongitudeDegrees>-1.91827221773564815521240234375</LongitudeDegrees>
            </Position>
            <AltitudeMeters>478</AltitudeMeters>
            <DistanceMeters>NAN</DistanceMeters>
          </Trackpoint>
          <Trackpoint>
            <Time>2021-08-13T14:48:21.000Z</Time>
            <Position>
              <LatitudeDegrees>43.07934455573558807373046875</LatitudeDegrees>
              <LongitudeDegrees>-1.91827221773564815521240234375</LongitudeDegrees>
            </Position>
            <AltitudeMeters>478</AltitudeMeters>
            <DistanceMeters>NAN</DistanceMeters>
          </Trackpoint>
          <Trackpoint>
            <Time>2021-08-13T14:48:22.000Z</Time>
            <Position>
              <LatitudeDegrees>43.0793078429996967315673828125</LatitudeDegrees>
              <LongitudeDegrees>-1.91830440424382686614990234375</LongitudeDegrees>
            </Position>
            <AltitudeMeters>478</AltitudeMeters>
            <DistanceMeters>NAN</DistanceMeters>
          </Trackpoint>
          <Trackpoint>
            <Time>2021-08-13T14:48:23.000Z</Time>
            <Position>
              <LatitudeDegrees>43.07929183356463909149169921875</LatitudeDegrees>
              <LongitudeDegrees>-1.9183204136788845062255859375</LongitudeDegrees>
            </Position>
            <AltitudeMeters>478</AltitudeMeters>
            <DistanceMeters>NAN</DistanceMeters>
          </Trackpoint>
          <Trackpoint>
            <Time>2021-08-13T14:48:24.000Z</Time>
            <Position>
              <LatitudeDegrees>43.07929183356463909149169921875</LatitudeDegrees>
              <LongitudeDegrees>-1.9183204136788845062255859375</LongitudeDegrees>
            </Position>
            <AltitudeMeters>478</AltitudeMeters>
            <DistanceMeters>NAN</DistanceMeters>
          </Trackpoint>
          <Trackpoint>
            <Time>2021-08-13T14:48:25.000Z</Time>
            <Position>
              <LatitudeDegrees>43.0792709626257419586181640625</LatitudeDegrees>
              <LongitudeDegrees>-1.91834514029324054718017578125</LongitudeDegrees>
            </Position>
            <AltitudeMeters>478</AltitudeMeters>
            <DistanceMeters>NAN</DistanceMeters>
          </Trackpoint>
          <Trackpoint>
            <Time>2021-08-13T14:48:27.000Z</Time>
            <Position>
              <LatitudeDegrees>43.0792498402297496795654296875</LatitudeDegrees>
              <LongitudeDegrees>-1.918364502489566802978515625</LongitudeDegrees>
            </Position>
            <AltitudeMeters>478</AltitudeMeters>
            <DistanceMeters>NAN</DistanceMeters>
          </Trackpoint>
          <Trackpoint>
            <Time>2021-08-13T14:48:28.000Z</Time>
            <Position>
              <LatitudeDegrees>43.07924330234527587890625</LatitudeDegrees>
              <LongitudeDegrees>-1.91837430931627750396728515625</LongitudeDegrees>
            </Position>
            <AltitudeMeters>478</AltitudeMeters>
            <DistanceMeters>NAN</DistanceMeters>
          </Trackpoint>
          <Trackpoint>
            <Time>2021-08-13T14:48:29.000Z</Time>
            <Position>
              <LatitudeDegrees>43.07924330234527587890625</LatitudeDegrees>
              <LongitudeDegrees>-1.91837430931627750396728515625</LongitudeDegrees>
            </Position>
            <AltitudeMeters>478</AltitudeMeters>
            <DistanceMeters>NAN</DistanceMeters>
          </Trackpoint>
          <Trackpoint>
            <Time>2021-08-13T14:48:30.000Z</Time>
            <Position>
              <LatitudeDegrees>43.0792401172220706939697265625</LatitudeDegrees>
              <LongitudeDegrees>-1.91837112419307231903076171875</LongitudeDegrees>
            </Position>
            <AltitudeMeters>478</AltitudeMeters>
            <DistanceMeters>NAN</DistanceMeters>
          </Trackpoint>
          <Trackpoint>
            <Time>2021-08-13T14:48:32.000Z</Time>
            <Position>
              <LatitudeDegrees>43.0792407877743244171142578125</LatitudeDegrees>
              <LongitudeDegrees>-1.91836978308856487274169921875</LongitudeDegrees>
            </Position>
            <AltitudeMeters>478</AltitudeMeters>
            <DistanceMeters>NAN</DistanceMeters>
          </Trackpoint>
          <Trackpoint>
            <Time>2021-08-14T06:48:16.000Z</Time>
            <Position>
              <LatitudeDegrees>43.0790111236274242401123046875</LatitudeDegrees>
              <LongitudeDegrees>-1.918383277952671051025390625</LongitudeDegrees>
            </Position>
            <AltitudeMeters>470.20001220703125</AltitudeMeters>
            <DistanceMeters>NAN</DistanceMeters>
          </Trackpoint>
          <Trackpoint>
            <Time>2021-08-14T06:48:17.000Z</Time>
            <Position>
              <LatitudeDegrees>43.07888966985046863555908203125</LatitudeDegrees>
              <LongitudeDegrees>-1.91837665624916553497314453125</LongitudeDegrees>
            </Position>
            <AltitudeMeters>468.399993896484375</AltitudeMeters>
            <DistanceMeters>NAN</DistanceMeters>
          </Trackpoint>
          <Trackpoint>
            <Time>2021-08-14T06:48:25.000Z</Time>
            <Position>
              <LatitudeDegrees>43.0789903365075588226318359375</LatitudeDegrees>
              <LongitudeDegrees>-1.918341703712940216064453125</LongitudeDegrees>
            </Position>
            <AltitudeMeters>469</AltitudeMeters>
            <DistanceMeters>NAN</DistanceMeters>
          </Trackpoint>
          <Trackpoint>
            <Time>2021-08-14T06:48:34.000Z</Time>
            <Position>
              <LatitudeDegrees>43.07903945446014404296875</LatitudeDegrees>
              <LongitudeDegrees>-1.91827297210693359375</LongitudeDegrees>
            </Position>
            <AltitudeMeters>469.20001220703125</AltitudeMeters>
            <DistanceMeters>NAN</DistanceMeters>
          </Trackpoint>
          <Trackpoint>
            <Time>2021-08-14T06:48:43.000Z</Time>
            <Position>
              <LatitudeDegrees>43.07912939228117465972900390625</LatitudeDegrees>
              <LongitudeDegrees>-1.91821605898439884185791015625</LongitudeDegrees>
            </Position>
            <AltitudeMeters>469.20001220703125</AltitudeMeters>
            <DistanceMeters>NAN</DistanceMeters>
          </Trackpoint>
          <Trackpoint>
            <Time>2021-08-14T06:48:49.000Z</Time>
            <Position>
              <LatitudeDegrees>43.07926786132156848907470703125</LatitudeDegrees>
              <LongitudeDegrees>-1.9182560406625270843505859375</LongitudeDegrees>
            </Position>
            <AltitudeMeters>469</AltitudeMeters>
            <DistanceMeters>NAN</DistanceMeters>
          </Trackpoint>
          <Trackpoint>
            <Time>2021-08-14T06:48:50.000Z</Time>
            <Position>
              <LatitudeDegrees>43.07928060181438922882080078125</LatitudeDegrees>
              <LongitudeDegrees>-1.918278671801090240478515625</LongitudeDegrees>
            </Position>
            <AltitudeMeters>469</AltitudeMeters>
            <DistanceMeters>NAN</DistanceMeters>
          </Trackpoint>
          <Trackpoint>
            <Time>2021-08-14T06:48:52.000Z</Time>
            <Position>
              <LatitudeDegrees>43.079324103891849517822265625</LatitudeDegrees>
              <LongitudeDegrees>-1.91824019886553287506103515625</LongitudeDegrees>
            </Position>
            <AltitudeMeters>469</AltitudeMeters>
            <DistanceMeters>NAN</DistanceMeters>
          </Trackpoint>
          <Trackpoint>
            <Time>2021-08-14T06:48:53.000Z</Time>
            <Position>
              <LatitudeDegrees>43.0793993733823299407958984375</LatitudeDegrees>
              <LongitudeDegrees>-1.91817549057304859161376953125</LongitudeDegrees>
            </Position>
            <AltitudeMeters>469</AltitudeMeters>
            <DistanceMeters>NAN</DistanceMeters>
          </Trackpoint>
          <Trackpoint>
            <Time>2021-08-14T06:48:57.000Z</Time>
            <Position>
              <LatitudeDegrees>43.07952250353991985321044921875</LatitudeDegrees>
              <LongitudeDegrees>-1.91811681725084781646728515625</LongitudeDegrees>
            </Position>
            <AltitudeMeters>469</AltitudeMeters>
            <DistanceMeters>NAN</DistanceMeters>
          </Trackpoint>
          <Trackpoint>
            <Time>2021-08-14T06:48:59.000Z</Time>
            <Position>
              <LatitudeDegrees>43.079594671726226806640625</LatitudeDegrees>
              <LongitudeDegrees>-1.9181169010698795318603515625</LongitudeDegrees>
            </Position>
            <AltitudeMeters>469</AltitudeMeters>
            <DistanceMeters>NAN</DistanceMeters>
          </Trackpoint>
          <Trackpoint>
            <Time>2021-08-14T06:49:00.000Z</Time>
            <Position>
              <LatitudeDegrees>43.07963381521403789520263671875</LatitudeDegrees>
              <LongitudeDegrees>-1.918109022080898284912109375</LongitudeDegrees>
            </Position>
            <AltitudeMeters>469.20001220703125</AltitudeMeters>
            <DistanceMeters>NAN</DistanceMeters>
          </Trackpoint>
          <Trackpoint>
            <Time>2021-08-14T06:49:02.000Z</Time>
            <Position>
              <LatitudeDegrees>43.07968712411820888519287109375</LatitudeDegrees>
              <LongitudeDegrees>-1.91807976923882961273193359375</LongitudeDegrees>
            </Position>
            <AltitudeMeters>469.20001220703125</AltitudeMeters>
            <DistanceMeters>NAN</DistanceMeters>
          </Trackpoint>
          <Trackpoint>
            <Time>2021-08-14T06:49:03.000Z</Time>
            <Position>
              <LatitudeDegrees>43.079712353646755218505859375</LatitudeDegrees>
              <LongitudeDegrees>-1.91805227659642696380615234375</LongitudeDegrees>
            </Position>
            <AltitudeMeters>469.20001220703125</AltitudeMeters>
            <DistanceMeters>NAN</DistanceMeters>
          </Trackpoint>
          <Trackpoint>
            <Time>2021-08-14T06:49:04.000Z</Time>
            <Position>
              <LatitudeDegrees>43.0797302909195423126220703125</LatitudeDegrees>
              <LongitudeDegrees>-1.91802017390727996826171875</LongitudeDegrees>
            </Position>
            <AltitudeMeters>469.20001220703125</AltitudeMeters>
            <DistanceMeters>NAN</DistanceMeters>
          </Trackpoint>
          <Trackpoint>
            <Time>2021-08-14T06:49:05.000Z</Time>
            <Position>
              <LatitudeDegrees>43.0797167122364044189453125</LatitudeDegrees>
              <LongitudeDegrees>-1.9179767556488513946533203125</LongitudeDegrees>
            </Position>
            <AltitudeMeters>469.20001220703125</AltitudeMeters>
            <DistanceMeters>NAN</DistanceMeters>
          </Trackpoint>
          <Trackpoint>
            <Time>2021-08-14T06:49:06.000Z</Time>
            <Position>
              <LatitudeDegrees>43.079695589840412139892578125</LatitudeDegrees>
              <LongitudeDegrees>-1.917932331562042236328125</LongitudeDegrees>
            </Position>
            <AltitudeMeters>469.20001220703125</AltitudeMeters>
            <DistanceMeters>NAN</DistanceMeters>
          </Trackpoint>
          <Trackpoint>
            <Time>2021-08-14T06:49:07.000Z</Time>
            <Position>
              <LatitudeDegrees>43.07968117296695709228515625</LatitudeDegrees>
              <LongitudeDegrees>-1.9178949482738971710205078125</LongitudeDegrees>
            </Position>
            <AltitudeMeters>469.20001220703125</AltitudeMeters>
            <DistanceMeters>NAN</DistanceMeters>
          </Trackpoint>
          <Trackpoint>
            <Time>2021-08-14T06:49:11.000Z</Time>
            <Position>
              <LatitudeDegrees>43.07963180355727672576904296875</LatitudeDegrees>
              <LongitudeDegrees>-1.91775991581380367279052734375</LongitudeDegrees>
            </Position>
            <AltitudeMeters>469.20001220703125</AltitudeMeters>
            <DistanceMeters>NAN</DistanceMeters>
          </Trackpoint>
          <Trackpoint>
            <Time>2021-08-14T06:49:17.000Z</Time>
            <Position>
              <LatitudeDegrees>43.079570867121219635009765625</LatitudeDegrees>
              <LongitudeDegrees>-1.91756025888025760650634765625</LongitudeDegrees>
            </Position>
            <AltitudeMeters>469.20001220703125</AltitudeMeters>
            <DistanceMeters>NAN</DistanceMeters>
          </Trackpoint>
          <Trackpoint>
            <Time>2021-08-14T06:49:26.000Z</Time>
            <Position>
              <LatitudeDegrees>43.07956877164542675018310546875</LatitudeDegrees>
              <LongitudeDegrees>-1.91748180426657199859619140625</LongitudeDegrees>
            </Position>
            <AltitudeMeters>469.20001220703125</AltitudeMeters>
            <DistanceMeters>NAN</DistanceMeters>
          </Trackpoint>
          <Trackpoint>
            <Time>2021-08-14T06:49:28.000Z</Time>
            <Position>
              <LatitudeDegrees>43.0795660056173801422119140625</LatitudeDegrees>
              <LongitudeDegrees>-1.917399577796459197998046875</LongitudeDegrees>
            </Position>
            <AltitudeMeters>469.20001220703125</AltitudeMeters>
            <DistanceMeters>NAN</DistanceMeters>
          </Trackpoint>
          <Trackpoint>
            <Time>2021-08-14T06:49:34.000Z</Time>
            <Position>
              <LatitudeDegrees>43.07946131564676761627197265625</LatitudeDegrees>
              <LongitudeDegrees>-1.91721458919346332550048828125</LongitudeDegrees>
            </Position>
            <AltitudeMeters>469.399993896484375</AltitudeMeters>
            <DistanceMeters>NAN</DistanceMeters>
          </Trackpoint>
          <Trackpoint>
            <Time>2021-08-14T06:49:35.000Z</Time>
            <Position>
              <LatitudeDegrees>43.0794486589729785919189453125</LatitudeDegrees>
              <LongitudeDegrees>-1.91719179041683673858642578125</LongitudeDegrees>
            </Position>
            <AltitudeMeters>469.399993896484375</AltitudeMeters>
            <DistanceMeters>NAN</DistanceMeters>
          </Trackpoint>
          <Trackpoint>
            <Time>2021-08-14T06:49:36.000Z</Time>
            <Position>
              <LatitudeDegrees>43.07943549938499927520751953125</LatitudeDegrees>
              <LongitudeDegrees>-1.91717184148728847503662109375</LongitudeDegrees>
            </Position>
            <AltitudeMeters>469.399993896484375</AltitudeMeters>
            <DistanceMeters>NAN</DistanceMeters>
          </Trackpoint>
          <Trackpoint>
            <Time>2021-08-14T06:49:37.000Z</Time>
            <Position>
              <LatitudeDegrees>43.07941974140703678131103515625</LatitudeDegrees>
              <LongitudeDegrees>-1.91717125475406646728515625</LongitudeDegrees>
            </Position>
            <AltitudeMeters>469.600006103515625</AltitudeMeters>
            <DistanceMeters>NAN</DistanceMeters>
          </Trackpoint>
          <Trackpoint>
            <Time>2021-08-14T06:49:38.000Z</Time>
            <Position>
              <LatitudeDegrees>43.079405240714550018310546875</LatitudeDegrees>
              <LongitudeDegrees>-1.917156837880611419677734375</LongitudeDegrees>
            </Position>
            <AltitudeMeters>469.600006103515625</AltitudeMeters>
            <DistanceMeters>NAN</DistanceMeters>
          </Trackpoint>
          <Trackpoint>
            <Time>2021-08-14T06:49:39.000Z</Time>
            <Position>
              <LatitudeDegrees>43.07939643971621990203857421875</LatitudeDegrees>
              <LongitudeDegrees>-1.91714501939713954925537109375</LongitudeDegrees>
            </Position>
            <AltitudeMeters>469.600006103515625</AltitudeMeters>
            <DistanceMeters>NAN</DistanceMeters>
          </Trackpoint>
          <Trackpoint>
            <Time>2021-08-14T06:49:40.000Z</Time>
            <Position>
              <LatitudeDegrees>43.07938755489885807037353515625</LatitudeDegrees>
              <LongitudeDegrees>-1.91712825559079647064208984375</LongitudeDegrees>
            </Position>
            <AltitudeMeters>469.600006103515625</AltitudeMeters>
            <DistanceMeters>NAN</DistanceMeters>
          </Trackpoint>
          <Trackpoint>
            <Time>2021-08-14T06:49:41.000Z</Time>
            <Position>
              <LatitudeDegrees>43.07937632314860820770263671875</LatitudeDegrees>
              <LongitudeDegrees>-1.9171087257564067840576171875</LongitudeDegrees>
            </Position>
            <AltitudeMeters>469.600006103515625</AltitudeMeters>
            <DistanceMeters>NAN</DistanceMeters>
          </Trackpoint>
          <Trackpoint>
            <Time>2021-08-14T06:49:47.000Z</Time>
            <Position>
              <LatitudeDegrees>43.0792863853275775909423828125</LatitudeDegrees>
              <LongitudeDegrees>-1.916950643062591552734375</LongitudeDegrees>
            </Position>
            <AltitudeMeters>469.79998779296875</AltitudeMeters>
            <DistanceMeters>NAN</DistanceMeters>
          </Trackpoint>
          <Trackpoint>
            <Time>2021-08-14T06:49:48.000Z</Time>
            <Position>
              <LatitudeDegrees>43.0792749859392642974853515625</LatitudeDegrees>
              <LongitudeDegrees>-1.91692876629531383514404296875</LongitudeDegrees>
            </Position>
            <AltitudeMeters>469.79998779296875</AltitudeMeters>
            <DistanceMeters>NAN</DistanceMeters>
          </Trackpoint>
          <Trackpoint>
            <Time>2021-08-14T06:49:54.000Z</Time>
            <Position>
              <LatitudeDegrees>43.079209439456462860107421875</LatitudeDegrees>
              <LongitudeDegrees>-1.91674822010099887847900390625</LongitudeDegrees>
            </Position>
            <AltitudeMeters>470</AltitudeMeters>
            <DistanceMeters>NAN</DistanceMeters>
          </Trackpoint>
          <Trackpoint>
            <Time>2021-08-14T06:49:55.000Z</Time>
            <Position>
              <LatitudeDegrees>43.0791961960494518280029296875</LatitudeDegrees>
              <LongitudeDegrees>-1.9167255051434040069580078125</LongitudeDegrees>
            </Position>
            <AltitudeMeters>470</AltitudeMeters>
            <DistanceMeters>NAN</DistanceMeters>
          </Trackpoint>
          <Trackpoint>
            <Time>2021-08-14T06:49:56.000Z</Time>
            <Position>
              <LatitudeDegrees>43.07918018661439418792724609375</LatitudeDegrees>
              <LongitudeDegrees>-1.91670455038547515869140625</LongitudeDegrees>
            </Position>
            <AltitudeMeters>470.20001220703125</AltitudeMeters>
            <DistanceMeters>NAN</DistanceMeters>
          </Trackpoint>
          <Trackpoint>
            <Time>2021-08-14T06:49:57.000Z</Time>
            <Position>
              <LatitudeDegrees>43.079175241291522979736328125</LatitudeDegrees>
              <LongitudeDegrees>-1.91667680628597736358642578125</LongitudeDegrees>
            </Position>
            <AltitudeMeters>470.20001220703125</AltitudeMeters>
            <DistanceMeters>NAN</DistanceMeters>
          </Trackpoint>
          <Trackpoint>
            <Time>2021-08-14T06:49:58.000Z</Time>
            <Position>
              <LatitudeDegrees>43.07917901314795017242431640625</LatitudeDegrees>
              <LongitudeDegrees>-1.91664864309132099151611328125</LongitudeDegrees>
            </Position>
            <AltitudeMeters>470.20001220703125</AltitudeMeters>
            <DistanceMeters>NAN</DistanceMeters>
          </Trackpoint>
          <Trackpoint>
            <Time>2021-08-14T06:49:59.000Z</Time>
            <Position>
              <LatitudeDegrees>43.07918203063309192657470703125</LatitudeDegrees>
              <LongitudeDegrees>-1.9166198931634426116943359375</LongitudeDegrees>
            </Position>
            <AltitudeMeters>470.399993896484375</AltitudeMeters>
            <DistanceMeters>NAN</DistanceMeters>
          </Trackpoint>
          <Trackpoint>
            <Time>2021-08-14T06:50:01.000Z</Time>
            <Position>
              <LatitudeDegrees>43.0791606567800045013427734375</LatitudeDegrees>
              <LongitudeDegrees>-1.9165602140128612518310546875</LongitudeDegrees>
            </Position>
            <AltitudeMeters>470.399993896484375</AltitudeMeters>
            <DistanceMeters>NAN</DistanceMeters>
          </Trackpoint>
          <Trackpoint>
            <Time>2021-08-14T06:50:02.000Z</Time>
            <Position>
              <LatitudeDegrees>43.0791465751826763153076171875</LatitudeDegrees>
              <LongitudeDegrees>-1.916527859866619110107421875</LongitudeDegrees>
            </Position>
            <AltitudeMeters>470.399993896484375</AltitudeMeters>
            <DistanceMeters>NAN</DistanceMeters>
          </Trackpoint>
          <Trackpoint>
            <Time>2021-08-14T06:50:03.000Z</Time>
            <Position>
              <LatitudeDegrees>43.07913668453693389892578125</LatitudeDegrees>
              <LongitudeDegrees>-1.9164981879293918609619140625</LongitudeDegrees>
            </Position>
            <AltitudeMeters>470.600006103515625</AltitudeMeters>
            <DistanceMeters>NAN</DistanceMeters>
          </Trackpoint>
          <Trackpoint>
            <Time>2021-08-14T06:50:04.000Z</Time>
            <Position>
              <LatitudeDegrees>43.07912671007215976715087890625</LatitudeDegrees>
              <LongitudeDegrees>-1.9164690189063549041748046875</LongitudeDegrees>
            </Position>
            <AltitudeMeters>470.600006103515625</AltitudeMeters>
            <DistanceMeters>NAN</DistanceMeters>
          </Trackpoint>
          <Trackpoint>
            <Time>2021-08-14T06:50:05.000Z</Time>
            <Position>
              <LatitudeDegrees>43.07911279611289501190185546875</LatitudeDegrees>
              <LongitudeDegrees>-1.91644831560552120208740234375</LongitudeDegrees>
            </Position>
            <AltitudeMeters>470.600006103515625</AltitudeMeters>
            <DistanceMeters>NAN</DistanceMeters>
          </Trackpoint>
          <Trackpoint>
            <Time>2021-08-14T06:50:06.000Z</Time>
            <Position>
              <LatitudeDegrees>43.07910173200070858001708984375</LatitudeDegrees>
              <LongitudeDegrees>-1.9164316356182098388671875</LongitudeDegrees>
            </Position>
            <AltitudeMeters>470.79998779296875</AltitudeMeters>
            <DistanceMeters>NAN</DistanceMeters>
          </Trackpoint>
          <Trackpoint>
            <Time>2021-08-14T06:50:07.000Z</Time>
            <Position>
              <LatitudeDegrees>43.07909217663109302520751953125</LatitudeDegrees>
              <LongitudeDegrees>-1.9164090044796466827392578125</LongitudeDegrees>
            </Position>
            <AltitudeMeters>470.79998779296875</AltitudeMeters>
            <DistanceMeters>NAN</DistanceMeters>
          </Trackpoint>
          <Trackpoint>
            <Time>2021-08-14T06:50:09.000Z</Time>
            <Position>
              <LatitudeDegrees>43.07905512861907482147216796875</LatitudeDegrees>
              <LongitudeDegrees>-1.91635862924158573150634765625</LongitudeDegrees>
            </Position>
            <AltitudeMeters>471.20001220703125</AltitudeMeters>
            <DistanceMeters>NAN</DistanceMeters>
          </Trackpoint>
          <Trackpoint>
            <Time>2021-08-14T06:50:10.000Z</Time>
            <Position>
              <LatitudeDegrees>43.07903015054762363433837890625</LatitudeDegrees>
              <LongitudeDegrees>-1.916333399713039398193359375</LongitudeDegrees>
            </Position>
            <AltitudeMeters>471.20001220703125</AltitudeMeters>
            <DistanceMeters>NAN</DistanceMeters>
          </Trackpoint>
          <Trackpoint>
            <Time>2021-08-14T06:50:11.000Z</Time>
            <Position>
              <LatitudeDegrees>43.0790228582918643951416015625</LatitudeDegrees>
              <LongitudeDegrees>-1.91629911772906780242919921875</LongitudeDegrees>
            </Position>
            <AltitudeMeters>471.399993896484375</AltitudeMeters>
            <DistanceMeters>NAN</DistanceMeters>
          </Trackpoint>
          <Trackpoint>
            <Time>2021-08-14T06:50:12.000Z</Time>
            <Position>
              <LatitudeDegrees>43.07901439256966114044189453125</LatitudeDegrees>
              <LongitudeDegrees>-1.916260980069637298583984375</LongitudeDegrees>
            </Position>
            <AltitudeMeters>471.600006103515625</AltitudeMeters>
            <DistanceMeters>NAN</DistanceMeters>
          </Trackpoint>
          <Trackpoint>
            <Time>2021-08-14T06:50:13.000Z</Time>
            <Position>
              <LatitudeDegrees>43.07900114916265010833740234375</LatitudeDegrees>
              <LongitudeDegrees>-1.91622250713407993316650390625</LongitudeDegrees>
            </Position>
            <AltitudeMeters>471.600006103515625</AltitudeMeters>
            <DistanceMeters>NAN</DistanceMeters>
          </Trackpoint>
          <Trackpoint>
            <Time>2021-08-14T06:50:14.000Z</Time>
            <Position>
              <LatitudeDegrees>43.07897667400538921356201171875</LatitudeDegrees>
              <LongitudeDegrees>-1.916191242635250091552734375</LongitudeDegrees>
            </Position>
            <AltitudeMeters>471.79998779296875</AltitudeMeters>
            <DistanceMeters>NAN</DistanceMeters>
          </Trackpoint>
          <Trackpoint>
            <Time>2021-08-14T06:50:15.000Z</Time>
            <Position>
              <LatitudeDegrees>43.07894624769687652587890625</LatitudeDegrees>
              <LongitudeDegrees>-1.91616014577448368072509765625</LongitudeDegrees>
            </Position>
            <AltitudeMeters>471.79998779296875</AltitudeMeters>
            <DistanceMeters>NAN</DistanceMeters>
          </Trackpoint>
          <Trackpoint>
            <Time>2021-08-14T06:50:16.000Z</Time>
            <Position>
              <LatitudeDegrees>43.0789227783679962158203125</LatitudeDegrees>
              <LongitudeDegrees>-1.91612728871405124664306640625</LongitudeDegrees>
            </Position>
            <AltitudeMeters>471.79998779296875</AltitudeMeters>
            <DistanceMeters>NAN</DistanceMeters>
          </Trackpoint>
          <Trackpoint>
            <Time>2021-08-14T06:50:21.000Z</Time>
            <Position>
              <LatitudeDegrees>43.0788441561162471771240234375</LatitudeDegrees>
              <LongitudeDegrees>-1.9159738160669803619384765625</LongitudeDegrees>
            </Position>
            <AltitudeMeters>472.20001220703125</AltitudeMeters>
            <DistanceMeters>NAN</DistanceMeters>
          </Trackpoint>
          <Trackpoint>
            <Time>2021-08-14T06:50:24.000Z</Time>
            <Position>
              <LatitudeDegrees>43.0788216926157474517822265625</LatitudeDegrees>
              <LongitudeDegrees>-1.9158866442739963531494140625</LongitudeDegrees>
            </Position>
            <AltitudeMeters>472.600006103515625</AltitudeMeters>
            <DistanceMeters>NAN</DistanceMeters>
          </Trackpoint>
          <Trackpoint>
            <Time>2021-08-14T06:50:25.000Z</Time>
            <Position>
              <LatitudeDegrees>43.07881213724613189697265625</LatitudeDegrees>
              <LongitudeDegrees>-1.91586258821189403533935546875</LongitudeDegrees>
            </Position>
            <AltitudeMeters>472.600006103515625</AltitudeMeters>
            <DistanceMeters>NAN</DistanceMeters>
          </Trackpoint>
          <Trackpoint>
            <Time>2021-08-14T06:50:28.000Z</Time>
            <Position>
              <LatitudeDegrees>43.07878305204212665557861328125</LatitudeDegrees>
              <LongitudeDegrees>-1.91577248275279998779296875</LongitudeDegrees>
            </Position>
            <AltitudeMeters>473.20001220703125</AltitudeMeters>
            <DistanceMeters>NAN</DistanceMeters>
          </Trackpoint>
          <Trackpoint>
            <Time>2021-08-14T06:50:32.000Z</Time>
            <Position>
              <LatitudeDegrees>43.07874013669788837432861328125</LatitudeDegrees>
              <LongitudeDegrees>-1.91566117107868194580078125</LongitudeDegrees>
            </Position>
            <AltitudeMeters>473.600006103515625</AltitudeMeters>
            <DistanceMeters>NAN</DistanceMeters>
          </Trackpoint>
          <Trackpoint>
            <Time>2021-08-14T06:50:33.000Z</Time>
            <Position>
              <LatitudeDegrees>43.07873410172760486602783203125</LatitudeDegrees>
              <LongitudeDegrees>-1.91563543863594532012939453125</LongitudeDegrees>
            </Position>
            <AltitudeMeters>473.79998779296875</AltitudeMeters>
            <DistanceMeters>NAN</DistanceMeters>
          </Trackpoint>
          <Trackpoint>
            <Time>2021-08-14T06:50:34.000Z</Time>
            <Position>
              <LatitudeDegrees>43.078726641833782196044921875</LatitudeDegrees>
              <LongitudeDegrees>-1.91561884246766567230224609375</LongitudeDegrees>
            </Position>
            <AltitudeMeters>473.79998779296875</AltitudeMeters>
            <DistanceMeters>NAN</DistanceMeters>
          </Trackpoint>
          <Trackpoint>
            <Time>2021-08-14T06:50:35.000Z</Time>
            <Position>
              <LatitudeDegrees>43.078719265758991241455078125</LatitudeDegrees>
              <LongitudeDegrees>-1.91559411585330963134765625</LongitudeDegrees>
            </Position>
            <AltitudeMeters>474</AltitudeMeters>
            <DistanceMeters>NAN</DistanceMeters>
          </Trackpoint>
          <Trackpoint>
            <Time>2021-08-14T06:50:36.000Z</Time>
            <Position>
              <LatitudeDegrees>43.0787107162177562713623046875</LatitudeDegrees>
              <LongitudeDegrees>-1.915561258792877197265625</LongitudeDegrees>
            </Position>
            <AltitudeMeters>474</AltitudeMeters>
            <DistanceMeters>NAN</DistanceMeters>
          </Trackpoint>
          <Trackpoint>
            <Time>2021-08-14T06:50:37.000Z</Time>
            <Position>
              <LatitudeDegrees>43.0787100456655025482177734375</LatitudeDegrees>
              <LongitudeDegrees>-1.91553234122693538665771484375</LongitudeDegrees>
            </Position>
            <AltitudeMeters>474.20001220703125</AltitudeMeters>
            <DistanceMeters>NAN</DistanceMeters>
          </Trackpoint>
          <Trackpoint>
            <Time>2021-08-14T06:50:38.000Z</Time>
            <Position>
              <LatitudeDegrees>43.07871448807418346405029296875</LatitudeDegrees>
              <LongitudeDegrees>-1.9155034236609935760498046875</LongitudeDegrees>
            </Position>
            <AltitudeMeters>474.20001220703125</AltitudeMeters>
            <DistanceMeters>NAN</DistanceMeters>
          </Trackpoint>
          <Trackpoint>
            <Time>2021-08-14T06:50:39.000Z</Time>
            <Position>
              <LatitudeDegrees>43.07872320525348186492919921875</LatitudeDegrees>
              <LongitudeDegrees>-1.915479786694049835205078125</LongitudeDegrees>
            </Position>
            <AltitudeMeters>474.20001220703125</AltitudeMeters>
            <DistanceMeters>NAN</DistanceMeters>
          </Trackpoint>
          <Trackpoint>
            <Time>2021-08-14T06:50:40.000Z</Time>
            <Position>
              <LatitudeDegrees>43.07873795740306377410888671875</LatitudeDegrees>
              <LongitudeDegrees>-1.91546143032610416412353515625</LongitudeDegrees>
            </Position>
            <AltitudeMeters>474.399993896484375</AltitudeMeters>
            <DistanceMeters>NAN</DistanceMeters>
          </Trackpoint>
          <Trackpoint>
            <Time>2021-08-14T06:50:41.000Z</Time>
            <Position>
              <LatitudeDegrees>43.0787536315619945526123046875</LatitudeDegrees>
              <LongitudeDegrees>-1.91545455716550350189208984375</LongitudeDegrees>
            </Position>
            <AltitudeMeters>474.399993896484375</AltitudeMeters>
            <DistanceMeters>NAN</DistanceMeters>
          </Trackpoint>
          <Trackpoint>
            <Time>2021-08-14T06:50:42.000Z</Time>
            <Position>
              <LatitudeDegrees>43.0787677131593227386474609375</LatitudeDegrees>
              <LongitudeDegrees>-1.9154454208910465240478515625</LongitudeDegrees>
            </Position>
            <AltitudeMeters>474.399993896484375</AltitudeMeters>
            <DistanceMeters>NAN</DistanceMeters>
          </Trackpoint>
          <Trackpoint>
            <Time>2021-08-14T06:50:43.000Z</Time>
            <Position>
              <LatitudeDegrees>43.07877886109054088592529296875</LatitudeDegrees>
              <LongitudeDegrees>-1.91543645225465297698974609375</LongitudeDegrees>
            </Position>
            <AltitudeMeters>474.600006103515625</AltitudeMeters>
            <DistanceMeters>NAN</DistanceMeters>
          </Trackpoint>
          <Trackpoint>
            <Time>2021-08-14T06:50:44.000Z</Time>
            <Position>
              <LatitudeDegrees>43.07878774590790271759033203125</LatitudeDegrees>
              <LongitudeDegrees>-1.91542991437017917633056640625</LongitudeDegrees>
            </Position>
            <AltitudeMeters>474.600006103515625</AltitudeMeters>
            <DistanceMeters>NAN</DistanceMeters>
          </Trackpoint>
          <Trackpoint>
            <Time>2021-08-14T06:50:45.000Z</Time>
            <Position>
              <LatitudeDegrees>43.078795708715915679931640625</LatitudeDegrees>
              <LongitudeDegrees>-1.9154242984950542449951171875</LongitudeDegrees>
            </Position>
            <AltitudeMeters>474.600006103515625</AltitudeMeters>
            <DistanceMeters>NAN</DistanceMeters>
          </Trackpoint>
          <Trackpoint>
            <Time>2021-08-14T06:50:46.000Z</Time>
            <Position>
              <LatitudeDegrees>43.0788025818765163421630859375</LatitudeDegrees>
              <LongitudeDegrees>-1.915420107543468475341796875</LongitudeDegrees>
            </Position>
            <AltitudeMeters>474.600006103515625</AltitudeMeters>
            <DistanceMeters>NAN</DistanceMeters>
          </Trackpoint>
          <Trackpoint>
            <Time>2021-08-14T06:50:48.000Z</Time>
            <Position>
              <LatitudeDegrees>43.07882286608219146728515625</LatitudeDegrees>
              <LongitudeDegrees>-1.915416084229946136474609375</LongitudeDegrees>
            </Position>
            <AltitudeMeters>474.600006103515625</AltitudeMeters>
            <DistanceMeters>NAN</DistanceMeters>
          </Trackpoint>
          <Trackpoint>
            <Time>2021-08-14T06:50:49.000Z</Time>
            <Position>
              <LatitudeDegrees>43.07882982306182384490966796875</LatitudeDegrees>
              <LongitudeDegrees>-1.91541440784931182861328125</LongitudeDegrees>
            </Position>
            <AltitudeMeters>474.600006103515625</AltitudeMeters>
            <DistanceMeters>NAN</DistanceMeters>
          </Trackpoint>
          <Trackpoint>
            <Time>2021-08-14T06:50:50.000Z</Time>
            <Position>
              <LatitudeDegrees>43.07883317582309246063232421875</LatitudeDegrees>
              <LongitudeDegrees>-1.91541231237351894378662109375</LongitudeDegrees>
            </Position>
            <AltitudeMeters>474.399993896484375</AltitudeMeters>
            <DistanceMeters>NAN</DistanceMeters>
          </Trackpoint>
          <Trackpoint>
            <Time>2021-08-14T06:50:54.000Z</Time>
            <Position>
              <LatitudeDegrees>43.07884893380105495452880859375</LatitudeDegrees>
              <LongitudeDegrees>-1.915397308766841888427734375</LongitudeDegrees>
            </Position>
            <AltitudeMeters>474.20001220703125</AltitudeMeters>
            <DistanceMeters>NAN</DistanceMeters>
          </Trackpoint>
          <Trackpoint>
            <Time>2021-08-14T06:51:00.000Z</Time>
            <Position>
              <LatitudeDegrees>43.0788766779005527496337890625</LatitudeDegrees>
              <LongitudeDegrees>-1.91536956466734409332275390625</LongitudeDegrees>
            </Position>
            <AltitudeMeters>474</AltitudeMeters>
            <DistanceMeters>NAN</DistanceMeters>
          </Trackpoint>
          <Trackpoint>
            <Time>2021-08-14T06:51:10.000Z</Time>
            <Position>
              <LatitudeDegrees>43.07889721356332302093505859375</LatitudeDegrees>
              <LongitudeDegrees>-1.91534643061459064483642578125</LongitudeDegrees>
            </Position>
            <AltitudeMeters>474</AltitudeMeters>
            <DistanceMeters>NAN</DistanceMeters>
          </Trackpoint>
          <Trackpoint>
            <Time>2021-08-14T07:23:21.000Z</Time>
            <Position>
              <LatitudeDegrees>43.0788444913923740386962890625</LatitudeDegrees>
              <LongitudeDegrees>-1.915182732045650482177734375</LongitudeDegrees>
            </Position>
            <AltitudeMeters>474.600006103515625</AltitudeMeters>
            <DistanceMeters>NAN</DistanceMeters>
          </Trackpoint>
          <Trackpoint>
            <Time>2021-08-14T07:23:22.000Z</Time>
            <Position>
              <LatitudeDegrees>43.078844659030437469482421875</LatitudeDegrees>
              <LongitudeDegrees>-1.91518147476017475128173828125</LongitudeDegrees>
            </Position>
            <AltitudeMeters>471.600006103515625</AltitudeMeters>
            <DistanceMeters>NAN</DistanceMeters>
          </Trackpoint>
          <Trackpoint>
            <Time>2021-08-14T07:33:04.000Z</Time>
            <Position>
              <LatitudeDegrees>43.0787824653089046478271484375</LatitudeDegrees>
              <LongitudeDegrees>-1.9152600131928920745849609375</LongitudeDegrees>
            </Position>
            <AltitudeMeters>472.79998779296875</AltitudeMeters>
            <DistanceMeters>NAN</DistanceMeters>
          </Trackpoint>
          <Trackpoint>
            <Time>2021-08-14T07:33:05.000Z</Time>
            <Position>
              <LatitudeDegrees>43.0787787772715091705322265625</LatitudeDegrees>
              <LongitudeDegrees>-1.91522271372377872467041015625</LongitudeDegrees>
            </Position>
            <AltitudeMeters>473.20001220703125</AltitudeMeters>
            <DistanceMeters>NAN</DistanceMeters>
          </Trackpoint>
          <Trackpoint>
            <Time>2021-08-14T07:33:08.000Z</Time>
            <Position>
              <LatitudeDegrees>43.0787060223519802093505859375</LatitudeDegrees>
              <LongitudeDegrees>-1.91514861769974231719970703125</LongitudeDegrees>
            </Position>
            <AltitudeMeters>473.399993896484375</AltitudeMeters>
            <DistanceMeters>NAN</DistanceMeters>
          </Trackpoint>
          <Trackpoint>
            <Time>2021-08-14T07:33:11.000Z</Time>
            <Position>
              <LatitudeDegrees>43.07872856967151165008544921875</LatitudeDegrees>
              <LongitudeDegrees>-1.91512875258922576904296875</LongitudeDegrees>
            </Position>
            <AltitudeMeters>473</AltitudeMeters>
            <DistanceMeters>NAN</DistanceMeters>
          </Trackpoint>
          <Trackpoint>
            <Time>2021-08-14T07:33:14.000Z</Time>
            <Position>
              <LatitudeDegrees>43.07873376645147800445556640625</LatitudeDegrees>
              <LongitudeDegrees>-1.91514610312879085540771484375</LongitudeDegrees>
            </Position>
            <AltitudeMeters>473</AltitudeMeters>
            <DistanceMeters>NAN</DistanceMeters>
          </Trackpoint>
          <Trackpoint>
            <Time>2021-08-14T07:33:25.000Z</Time>
            <Position>
              <LatitudeDegrees>43.07872588746249675750732421875</LatitudeDegrees>
              <LongitudeDegrees>-1.91522573120892047882080078125</LongitudeDegrees>
            </Position>
            <AltitudeMeters>473</AltitudeMeters>
            <DistanceMeters>NAN</DistanceMeters>
          </Trackpoint>
          <Trackpoint>
            <Time>2021-08-14T07:33:40.000Z</Time>
            <Position>
              <LatitudeDegrees>43.07866587303578853607177734375</LatitudeDegrees>
              <LongitudeDegrees>-1.91526629962027072906494140625</LongitudeDegrees>
            </Position>
            <AltitudeMeters>473</AltitudeMeters>
            <DistanceMeters>NAN</DistanceMeters>
          </Trackpoint>
          <Trackpoint>
            <Time>2021-08-14T07:33:43.000Z</Time>
            <Position>
              <LatitudeDegrees>43.07866671122610569000244140625</LatitudeDegrees>
              <LongitudeDegrees>-1.91527099348604679107666015625</LongitudeDegrees>
            </Position>
            <AltitudeMeters>473.20001220703125</AltitudeMeters>
            <DistanceMeters>NAN</DistanceMeters>
          </Trackpoint>
          <Trackpoint>
            <Time>2021-08-14T07:33:44.000Z</Time>
            <Position>
              <LatitudeDegrees>43.078662939369678497314453125</LatitudeDegrees>
              <LongitudeDegrees>-1.9152734242379665374755859375</LongitudeDegrees>
            </Position>
            <AltitudeMeters>473.399993896484375</AltitudeMeters>
            <DistanceMeters>NAN</DistanceMeters>
          </Trackpoint>
          <Trackpoint>
            <Time>2021-08-14T07:33:47.000Z</Time>
            <Position>
              <LatitudeDegrees>43.078666292130947113037109375</LatitudeDegrees>
              <LongitudeDegrees>-1.91523863933980464935302734375</LongitudeDegrees>
            </Position>
            <AltitudeMeters>473.399993896484375</AltitudeMeters>
            <DistanceMeters>NAN</DistanceMeters>
          </Trackpoint>
          <Trackpoint>
            <Time>2021-08-14T07:33:48.000Z</Time>
            <Position>
              <LatitudeDegrees>43.0786661244928836822509765625</LatitudeDegrees>
              <LongitudeDegrees>-1.91522858105599880218505859375</LongitudeDegrees>
            </Position>
            <AltitudeMeters>473.600006103515625</AltitudeMeters>
            <DistanceMeters>NAN</DistanceMeters>
          </Trackpoint>
          <Trackpoint>
            <Time>2021-08-14T07:33:49.000Z</Time>
            <Position>
              <LatitudeDegrees>43.07866402901709079742431640625</LatitudeDegrees>
              <LongitudeDegrees>-1.9152278266847133636474609375</LongitudeDegrees>
            </Position>
            <AltitudeMeters>473.600006103515625</AltitudeMeters>
            <DistanceMeters>NAN</DistanceMeters>
          </Trackpoint>
          <Trackpoint>
            <Time>2021-08-14T07:33:50.000Z</Time>
            <Position>
              <LatitudeDegrees>43.07866654358804225921630859375</LatitudeDegrees>
              <LongitudeDegrees>-1.9152331911027431488037109375</LongitudeDegrees>
            </Position>
            <AltitudeMeters>473.600006103515625</AltitudeMeters>
            <DistanceMeters>NAN</DistanceMeters>
          </Trackpoint>
          <Trackpoint>
            <Time>2021-08-14T07:33:53.000Z</Time>
            <Position>
              <LatitudeDegrees>43.07867668569087982177734375</LatitudeDegrees>
              <LongitudeDegrees>-1.91520796157419681549072265625</LongitudeDegrees>
            </Position>
            <AltitudeMeters>473.79998779296875</AltitudeMeters>
            <DistanceMeters>NAN</DistanceMeters>
          </Trackpoint>
          <Trackpoint>
            <Time>2021-08-14T07:33:54.000Z</Time>
            <Position>
              <LatitudeDegrees>43.078681044280529022216796875</LatitudeDegrees>
              <LongitudeDegrees>-1.9151959754526615142822265625</LongitudeDegrees>
            </Position>
            <AltitudeMeters>473.79998779296875</AltitudeMeters>
            <DistanceMeters>NAN</DistanceMeters>
          </Trackpoint>
          <Trackpoint>
            <Time>2021-08-14T07:33:57.000Z</Time>
            <Position>
              <LatitudeDegrees>43.0786912702023983001708984375</LatitudeDegrees>
              <LongitudeDegrees>-1.9151547364890575408935546875</LongitudeDegrees>
            </Position>
            <AltitudeMeters>474</AltitudeMeters>
            <DistanceMeters>NAN</DistanceMeters>
          </Trackpoint>
          <Trackpoint>
            <Time>2021-08-14T07:33:58.000Z</Time>
            <Position>
              <LatitudeDegrees>43.07869034819304943084716796875</LatitudeDegrees>
              <LongitudeDegrees>-1.9151453487575054168701171875</LongitudeDegrees>
            </Position>
            <AltitudeMeters>474</AltitudeMeters>
            <DistanceMeters>NAN</DistanceMeters>
          </Trackpoint>
          <Trackpoint>
            <Time>2021-08-14T07:33:59.000Z</Time>
            <Position>
              <LatitudeDegrees>43.07869277894496917724609375</LatitudeDegrees>
              <LongitudeDegrees>-1.9151332788169384002685546875</LongitudeDegrees>
            </Position>
            <AltitudeMeters>474</AltitudeMeters>
            <DistanceMeters>NAN</DistanceMeters>
          </Trackpoint>
          <Trackpoint>
            <Time>2021-08-14T07:34:01.000Z</Time>
            <Position>
              <LatitudeDegrees>43.0786983110010623931884765625</LatitudeDegrees>
              <LongitudeDegrees>-1.91510821692645549774169921875</LongitudeDegrees>
            </Position>
            <AltitudeMeters>474.20001220703125</AltitudeMeters>
            <DistanceMeters>NAN</DistanceMeters>
          </Trackpoint>
          <Trackpoint>
            <Time>2021-08-14T07:34:02.000Z</Time>
            <Position>
              <LatitudeDegrees>43.07869671843945980072021484375</LatitudeDegrees>
              <LongitudeDegrees>-1.91509866155683994293212890625</LongitudeDegrees>
            </Position>
            <AltitudeMeters>474.20001220703125</AltitudeMeters>
            <DistanceMeters>NAN</DistanceMeters>
          </Trackpoint>
          <Trackpoint>
            <Time>2021-08-14T07:34:03.000Z</Time>
            <Position>
              <LatitudeDegrees>43.07869437150657176971435546875</LatitudeDegrees>
              <LongitudeDegrees>-1.9150905311107635498046875</LongitudeDegrees>
            </Position>
            <AltitudeMeters>474.20001220703125</AltitudeMeters>
            <DistanceMeters>NAN</DistanceMeters>
          </Trackpoint>
          <Trackpoint>
            <Time>2021-08-14T07:34:04.000Z</Time>
            <Position>
              <LatitudeDegrees>43.07869873009622097015380859375</LatitudeDegrees>
              <LongitudeDegrees>-1.91507510840892791748046875</LongitudeDegrees>
            </Position>
            <AltitudeMeters>474.399993896484375</AltitudeMeters>
            <DistanceMeters>NAN</DistanceMeters>
          </Trackpoint>
          <Trackpoint>
            <Time>2021-08-14T07:34:05.000Z</Time>
            <Position>
              <LatitudeDegrees>43.0786983110010623931884765625</LatitudeDegrees>
              <LongitudeDegrees>-1.91506647504866123199462890625</LongitudeDegrees>
            </Position>
            <AltitudeMeters>474.399993896484375</AltitudeMeters>
            <DistanceMeters>NAN</DistanceMeters>
          </Trackpoint>
          <Trackpoint>
            <Time>2021-08-14T07:34:06.000Z</Time>
            <Position>
              <LatitudeDegrees>43.07869546115398406982421875</LatitudeDegrees>
              <LongitudeDegrees>-1.915055327117443084716796875</LongitudeDegrees>
            </Position>
            <AltitudeMeters>474.600006103515625</AltitudeMeters>
            <DistanceMeters>NAN</DistanceMeters>
          </Trackpoint>
          <Trackpoint>
            <Time>2021-08-14T07:34:07.000Z</Time>
            <Position>
              <LatitudeDegrees>43.07869722135365009307861328125</LatitudeDegrees>
              <LongitudeDegrees>-1.9150457717478275299072265625</LongitudeDegrees>
            </Position>
            <AltitudeMeters>474.600006103515625</AltitudeMeters>
            <DistanceMeters>NAN</DistanceMeters>
          </Trackpoint>
          <Trackpoint>
            <Time>2021-08-14T07:34:08.000Z</Time>
            <Position>
              <LatitudeDegrees>43.078701831400394439697265625</LatitudeDegrees>
              <LongitudeDegrees>-1.915038563311100006103515625</LongitudeDegrees>
            </Position>
            <AltitudeMeters>474.600006103515625</AltitudeMeters>
            <DistanceMeters>NAN</DistanceMeters>
          </Trackpoint>
          <Trackpoint>
            <Time>2021-08-14T07:34:09.000Z</Time>
            <Position>
              <LatitudeDegrees>43.0787033401429653167724609375</LatitudeDegrees>
              <LongitudeDegrees>-1.9150269962847232818603515625</LongitudeDegrees>
            </Position>
            <AltitudeMeters>474.600006103515625</AltitudeMeters>
            <DistanceMeters>NAN</DistanceMeters>
          </Trackpoint>
          <Trackpoint>
            <Time>2021-08-14T07:34:10.000Z</Time>
            <Position>
              <LatitudeDegrees>43.07870778255164623260498046875</LatitudeDegrees>
              <LongitudeDegrees>-1.91501266323029994964599609375</LongitudeDegrees>
            </Position>
            <AltitudeMeters>474.79998779296875</AltitudeMeters>
            <DistanceMeters>NAN</DistanceMeters>
          </Trackpoint>
          <Trackpoint>
            <Time>2021-08-14T07:34:11.000Z</Time>
            <Position>
              <LatitudeDegrees>43.07870887219905853271484375</LatitudeDegrees>
              <LongitudeDegrees>-1.91500126384198665618896484375</LongitudeDegrees>
            </Position>
            <AltitudeMeters>474.79998779296875</AltitudeMeters>
            <DistanceMeters>NAN</DistanceMeters>
          </Trackpoint>
          <Trackpoint>
            <Time>2021-08-14T07:34:12.000Z</Time>
            <Position>
              <LatitudeDegrees>43.0787076987326145172119140625</LatitudeDegrees>
              <LongitudeDegrees>-1.91499237902462482452392578125</LongitudeDegrees>
            </Position>
            <AltitudeMeters>474.79998779296875</AltitudeMeters>
            <DistanceMeters>NAN</DistanceMeters>
          </Trackpoint>
          <Trackpoint>
            <Time>2021-08-14T07:34:13.000Z</Time>
            <Position>
              <LatitudeDegrees>43.07870644144713878631591796875</LatitudeDegrees>
              <LongitudeDegrees>-1.914981566369533538818359375</LongitudeDegrees>
            </Position>
            <AltitudeMeters>474.79998779296875</AltitudeMeters>
            <DistanceMeters>NAN</DistanceMeters>
          </Trackpoint>
          <Trackpoint>
            <Time>2021-08-14T07:34:14.000Z</Time>
            <Position>
              <LatitudeDegrees>43.0787055194377899169921875</LatitudeDegrees>
              <LongitudeDegrees>-1.91497125662863254547119140625</LongitudeDegrees>
            </Position>
            <AltitudeMeters>475</AltitudeMeters>
            <DistanceMeters>NAN</DistanceMeters>
          </Trackpoint>
          <Trackpoint>
            <Time>2021-08-14T07:34:15.000Z</Time>
            <Position>
              <LatitudeDegrees>43.078704178333282470703125</LatitudeDegrees>
              <LongitudeDegrees>-1.91496321000158786773681640625</LongitudeDegrees>
            </Position>
            <AltitudeMeters>475</AltitudeMeters>
            <DistanceMeters>NAN</DistanceMeters>
          </Trackpoint>
          <Trackpoint>
            <Time>2021-08-14T07:34:17.000Z</Time>
            <Position>
              <LatitudeDegrees>43.07869789190590381622314453125</LatitudeDegrees>
              <LongitudeDegrees>-1.91494527272880077362060546875</LongitudeDegrees>
            </Position>
            <AltitudeMeters>475</AltitudeMeters>
            <DistanceMeters>NAN</DistanceMeters>
          </Trackpoint>
          <Trackpoint>
            <Time>2021-08-14T07:34:18.000Z</Time>
            <Position>
              <LatitudeDegrees>43.078695796430110931396484375</LatitudeDegrees>
              <LongitudeDegrees>-1.91493990831077098846435546875</LongitudeDegrees>
            </Position>
            <AltitudeMeters>475</AltitudeMeters>
            <DistanceMeters>NAN</DistanceMeters>
          </Trackpoint>
          <Trackpoint>
            <Time>2021-08-14T07:34:19.000Z</Time>
            <Position>
              <LatitudeDegrees>43.07869303040206432342529296875</LatitudeDegrees>
              <LongitudeDegrees>-1.9149324484169483184814453125</LongitudeDegrees>
            </Position>
            <AltitudeMeters>475</AltitudeMeters>
            <DistanceMeters>NAN</DistanceMeters>
          </Trackpoint>
          <Trackpoint>
            <Time>2021-08-14T07:34:20.000Z</Time>
            <Position>
              <LatitudeDegrees>43.07868934236466884613037109375</LatitudeDegrees>
              <LongitudeDegrees>-1.9149257428944110870361328125</LongitudeDegrees>
            </Position>
            <AltitudeMeters>475</AltitudeMeters>
            <DistanceMeters>NAN</DistanceMeters>
          </Trackpoint>
          <Trackpoint>
            <Time>2021-08-14T07:34:21.000Z</Time>
            <Position>
              <LatitudeDegrees>43.07868875563144683837890625</LatitudeDegrees>
              <LongitudeDegrees>-1.9149213843047618865966796875</LongitudeDegrees>
            </Position>
            <AltitudeMeters>475</AltitudeMeters>
            <DistanceMeters>NAN</DistanceMeters>
          </Trackpoint>
          <Trackpoint>
            <Time>2021-08-14T07:34:22.000Z</Time>
            <Position>
              <LatitudeDegrees>43.078686408698558807373046875</LatitudeDegrees>
              <LongitudeDegrees>-1.91491828300058841705322265625</LongitudeDegrees>
            </Position>
            <AltitudeMeters>475</AltitudeMeters>
            <DistanceMeters>NAN</DistanceMeters>
          </Trackpoint>
          <Trackpoint>
            <Time>2021-08-14T07:34:23.000Z</Time>
            <Position>
              <LatitudeDegrees>43.078686408698558807373046875</LatitudeDegrees>
              <LongitudeDegrees>-1.9149150140583515167236328125</LongitudeDegrees>
            </Position>
            <AltitudeMeters>475.20001220703125</AltitudeMeters>
            <DistanceMeters>NAN</DistanceMeters>
          </Trackpoint>
          <Trackpoint>
            <Time>2021-08-14T07:34:24.000Z</Time>
            <Position>
              <LatitudeDegrees>43.07868448086082935333251953125</LatitudeDegrees>
              <LongitudeDegrees>-1.91491208039224147796630859375</LongitudeDegrees>
            </Position>
            <AltitudeMeters>475.20001220703125</AltitudeMeters>
            <DistanceMeters>NAN</DistanceMeters>
          </Trackpoint>
          <Trackpoint>
            <Time>2021-08-14T07:34:26.000Z</Time>
            <Position>
              <LatitudeDegrees>43.07868464849889278411865234375</LatitudeDegrees>
              <LongitudeDegrees>-1.91491593606770038604736328125</LongitudeDegrees>
            </Position>
            <AltitudeMeters>475.20001220703125</AltitudeMeters>
            <DistanceMeters>NAN</DistanceMeters>
          </Trackpoint>
          <Trackpoint>
            <Time>2021-08-14T07:34:36.000Z</Time>
            <Position>
              <LatitudeDegrees>43.07868448086082935333251953125</LatitudeDegrees>
              <LongitudeDegrees>-1.9148982502520084381103515625</LongitudeDegrees>
            </Position>
            <AltitudeMeters>475.399993896484375</AltitudeMeters>
            <DistanceMeters>NAN</DistanceMeters>
          </Trackpoint>
          <Trackpoint>
            <Time>2021-08-14T07:34:37.000Z</Time>
            <Position>
              <LatitudeDegrees>43.078680373728275299072265625</LatitudeDegrees>
              <LongitudeDegrees>-1.91488777287304401397705078125</LongitudeDegrees>
            </Position>
            <AltitudeMeters>475.399993896484375</AltitudeMeters>
            <DistanceMeters>NAN</DistanceMeters>
          </Trackpoint>
          <Trackpoint>
            <Time>2021-08-14T07:34:38.000Z</Time>
            <Position>
              <LatitudeDegrees>43.07867324911057949066162109375</LatitudeDegrees>
              <LongitudeDegrees>-1.91487670876085758209228515625</LongitudeDegrees>
            </Position>
            <AltitudeMeters>475.399993896484375</AltitudeMeters>
            <DistanceMeters>NAN</DistanceMeters>
          </Trackpoint>
          <Trackpoint>
            <Time>2021-08-14T07:34:39.000Z</Time>
            <Position>
              <LatitudeDegrees>43.0786679685115814208984375</LatitudeDegrees>
              <LongitudeDegrees>-1.9148680754005908966064453125</LongitudeDegrees>
            </Position>
            <AltitudeMeters>475.399993896484375</AltitudeMeters>
            <DistanceMeters>NAN</DistanceMeters>
          </Trackpoint>
          <Trackpoint>
            <Time>2021-08-14T07:34:40.000Z</Time>
            <Position>
              <LatitudeDegrees>43.07866469956934452056884765625</LatitudeDegrees>
              <LongitudeDegrees>-1.91486162133514881134033203125</LongitudeDegrees>
            </Position>
            <AltitudeMeters>475.399993896484375</AltitudeMeters>
            <DistanceMeters>NAN</DistanceMeters>
          </Trackpoint>
          <Trackpoint>
            <Time>2021-08-14T07:34:49.000Z</Time>
            <Position>
              <LatitudeDegrees>43.078654222190380096435546875</LatitudeDegrees>
              <LongitudeDegrees>-1.91486162133514881134033203125</LongitudeDegrees>
            </Position>
            <AltitudeMeters>476</AltitudeMeters>
            <DistanceMeters>NAN</DistanceMeters>
          </Trackpoint>
          <Trackpoint>
            <Time>2021-08-14T07:34:55.000Z</Time>
            <Position>
              <LatitudeDegrees>43.078654222190380096435546875</LatitudeDegrees>
              <LongitudeDegrees>-1.91486162133514881134033203125</LongitudeDegrees>
            </Position>
            <AltitudeMeters>475.79998779296875</AltitudeMeters>
            <DistanceMeters>NAN</DistanceMeters>
          </Trackpoint>
          <Trackpoint>
            <Time>2021-08-14T07:37:17.000Z</Time>
            <Position>
              <LatitudeDegrees>43.07863603346049785614013671875</LatitudeDegrees>
              <LongitudeDegrees>-1.91487369127571582794189453125</LongitudeDegrees>
            </Position>
            <AltitudeMeters>476.399993896484375</AltitudeMeters>
            <DistanceMeters>NAN</DistanceMeters>
          </Trackpoint>
          <Trackpoint>
            <Time>2021-08-14T07:37:33.000Z</Time>
            <Position>
              <LatitudeDegrees>43.0786051042377948760986328125</LatitudeDegrees>
              <LongitudeDegrees>-1.91479758359491825103759765625</LongitudeDegrees>
            </Position>
            <AltitudeMeters>476.20001220703125</AltitudeMeters>
            <DistanceMeters>NAN</DistanceMeters>
          </Trackpoint>
          <Trackpoint>
            <Time>2021-08-14T07:37:34.000Z</Time>
            <Position>
              <LatitudeDegrees>43.078596554696559906005859375</LatitudeDegrees>
              <LongitudeDegrees>-1.91477428190410137176513671875</LongitudeDegrees>
            </Position>
            <AltitudeMeters>476.20001220703125</AltitudeMeters>
            <DistanceMeters>NAN</DistanceMeters>
          </Trackpoint>
          <Trackpoint>
            <Time>2021-08-14T07:37:35.000Z</Time>
            <Position>
              <LatitudeDegrees>43.0785869993269443511962890625</LatitudeDegrees>
              <LongitudeDegrees>-1.9147579371929168701171875</LongitudeDegrees>
            </Position>
            <AltitudeMeters>476.20001220703125</AltitudeMeters>
            <DistanceMeters>NAN</DistanceMeters>
          </Trackpoint>
          <Trackpoint>
            <Time>2021-08-14T07:37:36.000Z</Time>
            <Position>
              <LatitudeDegrees>43.0785739235579967498779296875</LatitudeDegrees>
              <LongitudeDegrees>-1.91474176011979579925537109375</LongitudeDegrees>
            </Position>
            <AltitudeMeters>476.20001220703125</AltitudeMeters>
            <DistanceMeters>NAN</DistanceMeters>
          </Trackpoint>
          <Trackpoint>
            <Time>2021-08-14T07:37:37.000Z</Time>
            <Position>
              <LatitudeDegrees>43.0785591714084148406982421875</LatitudeDegrees>
              <LongitudeDegrees>-1.91472331993281841278076171875</LongitudeDegrees>
            </Position>
            <AltitudeMeters>476.20001220703125</AltitudeMeters>
            <DistanceMeters>NAN</DistanceMeters>
          </Trackpoint>
          <Trackpoint>
            <Time>2021-08-14T07:37:40.000Z</Time>
            <Position>
              <LatitudeDegrees>43.07851047255098819732666015625</LatitudeDegrees>
              <LongitudeDegrees>-1.9146652333438396453857421875</LongitudeDegrees>
            </Position>
            <AltitudeMeters>476.20001220703125</AltitudeMeters>
            <DistanceMeters>NAN</DistanceMeters>
          </Trackpoint>
          <Trackpoint>
            <Time>2021-08-14T07:37:41.000Z</Time>
            <Position>
              <LatitudeDegrees>43.07850762270390987396240234375</LatitudeDegrees>
              <LongitudeDegrees>-1.91464872099459171295166015625</LongitudeDegrees>
            </Position>
            <AltitudeMeters>476.20001220703125</AltitudeMeters>
            <DistanceMeters>NAN</DistanceMeters>
          </Trackpoint>
          <Trackpoint>
            <Time>2021-08-14T07:37:42.000Z</Time>
            <Position>
              <LatitudeDegrees>43.07851709425449371337890625</LatitudeDegrees>
              <LongitudeDegrees>-1.914630196988582611083984375</LongitudeDegrees>
            </Position>
            <AltitudeMeters>476.399993896484375</AltitudeMeters>
            <DistanceMeters>NAN</DistanceMeters>
          </Trackpoint>
          <Trackpoint>
            <Time>2021-08-14T07:37:44.000Z</Time>
            <Position>
              <LatitudeDegrees>43.07853444479405879974365234375</LatitudeDegrees>
              <LongitudeDegrees>-1.91458384506404399871826171875</LongitudeDegrees>
            </Position>
            <AltitudeMeters>476.600006103515625</AltitudeMeters>
            <DistanceMeters>NAN</DistanceMeters>
          </Trackpoint>
          <Trackpoint>
            <Time>2021-08-14T07:37:45.000Z</Time>
            <Position>
              <LatitudeDegrees>43.07854257524013519287109375</LatitudeDegrees>
              <LongitudeDegrees>-1.914555765688419342041015625</LongitudeDegrees>
            </Position>
            <AltitudeMeters>476.600006103515625</AltitudeMeters>
            <DistanceMeters>NAN</DistanceMeters>
          </Trackpoint>
          <Trackpoint>
            <Time>2021-08-14T07:37:47.000Z</Time>
            <Position>
              <LatitudeDegrees>43.07854483835399150848388671875</LatitudeDegrees>
              <LongitudeDegrees>-1.91450178623199462890625</LongitudeDegrees>
            </Position>
            <AltitudeMeters>476.79998779296875</AltitudeMeters>
            <DistanceMeters>NAN</DistanceMeters>
          </Trackpoint>
          <Trackpoint>
            <Time>2021-08-14T07:37:48.000Z</Time>
            <Position>
              <LatitudeDegrees>43.0785434134304523468017578125</LatitudeDegrees>
              <LongitudeDegrees>-1.91446985118091106414794921875</LongitudeDegrees>
            </Position>
            <AltitudeMeters>476.79998779296875</AltitudeMeters>
            <DistanceMeters>NAN</DistanceMeters>
          </Trackpoint>
          <Trackpoint>
            <Time>2021-08-14T07:37:49.000Z</Time>
            <Position>
              <LatitudeDegrees>43.07854148559272289276123046875</LatitudeDegrees>
              <LongitudeDegrees>-1.91443867050111293792724609375</LongitudeDegrees>
            </Position>
            <AltitudeMeters>476.79998779296875</AltitudeMeters>
            <DistanceMeters>NAN</DistanceMeters>
          </Trackpoint>
          <Trackpoint>
            <Time>2021-08-14T07:37:52.000Z</Time>
            <Position>
              <LatitudeDegrees>43.0785417370498180389404296875</LatitudeDegrees>
              <LongitudeDegrees>-1.914354264736175537109375</LongitudeDegrees>
            </Position>
            <AltitudeMeters>477.20001220703125</AltitudeMeters>
            <DistanceMeters>NAN</DistanceMeters>
          </Trackpoint>
          <Trackpoint>
            <Time>2021-08-14T07:37:55.000Z</Time>
            <Position>
              <LatitudeDegrees>43.0785311758518218994140625</LatitudeDegrees>
              <LongitudeDegrees>-1.91426918841898441314697265625</LongitudeDegrees>
            </Position>
            <AltitudeMeters>477.399993896484375</AltitudeMeters>
            <DistanceMeters>NAN</DistanceMeters>
          </Trackpoint>
          <Trackpoint>
            <Time>2021-08-14T07:37:56.000Z</Time>
            <Position>
              <LatitudeDegrees>43.07852782309055328369140625</LatitudeDegrees>
              <LongitudeDegrees>-1.91424119286239147186279296875</LongitudeDegrees>
            </Position>
            <AltitudeMeters>477.399993896484375</AltitudeMeters>
            <DistanceMeters>NAN</DistanceMeters>
          </Trackpoint>
          <Trackpoint>
            <Time>2021-08-14T07:37:59.000Z</Time>
            <Position>
              <LatitudeDegrees>43.07849907316267490386962890625</LatitudeDegrees>
              <LongitudeDegrees>-1.91417313180863857269287109375</LongitudeDegrees>
            </Position>
            <AltitudeMeters>477.600006103515625</AltitudeMeters>
            <DistanceMeters>NAN</DistanceMeters>
          </Trackpoint>
          <Trackpoint>
            <Time>2021-08-14T07:38:00.000Z</Time>
            <Position>
              <LatitudeDegrees>43.07849488221108913421630859375</LatitudeDegrees>
              <LongitudeDegrees>-1.91414932720363140106201171875</LongitudeDegrees>
            </Position>
            <AltitudeMeters>477.79998779296875</AltitudeMeters>
            <DistanceMeters>NAN</DistanceMeters>
          </Trackpoint>
          <Trackpoint>
            <Time>2021-08-14T07:38:01.000Z</Time>
            <Position>
              <LatitudeDegrees>43.078484572470188140869140625</LatitudeDegrees>
              <LongitudeDegrees>-1.9141321443021297454833984375</LongitudeDegrees>
            </Position>
            <AltitudeMeters>477.79998779296875</AltitudeMeters>
            <DistanceMeters>NAN</DistanceMeters>
          </Trackpoint>
          <Trackpoint>
            <Time>2021-08-14T07:38:02.000Z</Time>
            <Position>
              <LatitudeDegrees>43.078485243022441864013671875</LatitudeDegrees>
              <LongitudeDegrees>-1.914107166230678558349609375</LongitudeDegrees>
            </Position>
            <AltitudeMeters>477.79998779296875</AltitudeMeters>
            <DistanceMeters>NAN</DistanceMeters>
          </Trackpoint>
          <Trackpoint>
            <Time>2021-08-14T07:38:03.000Z</Time>
            <Position>
              <LatitudeDegrees>43.0784937925636768341064453125</LatitudeDegrees>
              <LongitudeDegrees>-1.91408176906406879425048828125</LongitudeDegrees>
            </Position>
            <AltitudeMeters>478</AltitudeMeters>
            <DistanceMeters>NAN</DistanceMeters>
          </Trackpoint>
          <Trackpoint>
            <Time>2021-08-14T07:38:04.000Z</Time>
            <Position>
              <LatitudeDegrees>43.0785021744668483734130859375</LatitudeDegrees>
              <LongitudeDegrees>-1.91406098194420337677001953125</LongitudeDegrees>
            </Position>
            <AltitudeMeters>478.20001220703125</AltitudeMeters>
            <DistanceMeters>NAN</DistanceMeters>
          </Trackpoint>
          <Trackpoint>
            <Time>2021-08-14T07:38:05.000Z</Time>
            <Position>
              <LatitudeDegrees>43.078491277992725372314453125</LatitudeDegrees>
              <LongitudeDegrees>-1.914040111005306243896484375</LongitudeDegrees>
            </Position>
            <AltitudeMeters>478.399993896484375</AltitudeMeters>
            <DistanceMeters>NAN</DistanceMeters>
          </Trackpoint>
          <Trackpoint>
            <Time>2021-08-14T07:38:07.000Z</Time>
            <Position>
              <LatitudeDegrees>43.07845582254230976104736328125</LatitudeDegrees>
              <LongitudeDegrees>-1.9140074215829372406005859375</LongitudeDegrees>
            </Position>
            <AltitudeMeters>478.79998779296875</AltitudeMeters>
            <DistanceMeters>NAN</DistanceMeters>
          </Trackpoint>
          <Trackpoint>
            <Time>2021-08-14T07:38:10.000Z</Time>
            <Position>
              <LatitudeDegrees>43.0784143321216106414794921875</LatitudeDegrees>
              <LongitudeDegrees>-1.91396425478160381317138671875</LongitudeDegrees>
            </Position>
            <AltitudeMeters>479.20001220703125</AltitudeMeters>
            <DistanceMeters>NAN</DistanceMeters>
          </Trackpoint>
          <Trackpoint>
            <Time>2021-08-14T07:38:11.000Z</Time>
            <Position>
              <LatitudeDegrees>43.078404776751995086669921875</LatitudeDegrees>
              <LongitudeDegrees>-1.9139547832310199737548828125</LongitudeDegrees>
            </Position>
            <AltitudeMeters>479.399993896484375</AltitudeMeters>
            <DistanceMeters>NAN</DistanceMeters>
          </Trackpoint>
          <Trackpoint>
            <Time>2021-08-14T07:38:12.000Z</Time>
            <Position>
              <LatitudeDegrees>43.07839228771626949310302734375</LatitudeDegrees>
              <LongitudeDegrees>-1.9139447249472141265869140625</LongitudeDegrees>
            </Position>
            <AltitudeMeters>479.600006103515625</AltitudeMeters>
            <DistanceMeters>NAN</DistanceMeters>
          </Trackpoint>
          <Trackpoint>
            <Time>2021-08-14T07:38:13.000Z</Time>
            <Position>
              <LatitudeDegrees>43.0783809721469879150390625</LatitudeDegrees>
              <LongitudeDegrees>-1.91393391229212284088134765625</LongitudeDegrees>
            </Position>
            <AltitudeMeters>479.600006103515625</AltitudeMeters>
            <DistanceMeters>NAN</DistanceMeters>
          </Trackpoint>
          <Trackpoint>
            <Time>2021-08-14T07:38:14.000Z</Time>
            <Position>
              <LatitudeDegrees>43.07836814783513545989990234375</LatitudeDegrees>
              <LongitudeDegrees>-1.9139192439615726470947265625</LongitudeDegrees>
            </Position>
            <AltitudeMeters>480</AltitudeMeters>
            <DistanceMeters>NAN</DistanceMeters>
          </Trackpoint>
          <Trackpoint>
            <Time>2021-08-14T07:38:15.000Z</Time>
            <Position>
              <LatitudeDegrees>43.0783566646277904510498046875</LatitudeDegrees>
              <LongitudeDegrees>-1.913903988897800445556640625</LongitudeDegrees>
            </Position>
            <AltitudeMeters>480</AltitudeMeters>
            <DistanceMeters>NAN</DistanceMeters>
          </Trackpoint>
          <Trackpoint>
            <Time>2021-08-14T07:38:16.000Z</Time>
            <Position>
              <LatitudeDegrees>43.07834937237203121185302734375</LatitudeDegrees>
              <LongitudeDegrees>-1.9138910807669162750244140625</LongitudeDegrees>
            </Position>
            <AltitudeMeters>480</AltitudeMeters>
            <DistanceMeters>NAN</DistanceMeters>
          </Trackpoint>
          <Trackpoint>
            <Time>2021-08-14T07:38:17.000Z</Time>
            <Position>
              <LatitudeDegrees>43.07834208011627197265625</LatitudeDegrees>
              <LongitudeDegrees>-1.91387691535055637359619140625</LongitudeDegrees>
            </Position>
            <AltitudeMeters>480</AltitudeMeters>
            <DistanceMeters>NAN</DistanceMeters>
          </Trackpoint>
          <Trackpoint>
            <Time>2021-08-14T07:38:18.000Z</Time>
            <Position>
              <LatitudeDegrees>43.07834065519273281097412109375</LatitudeDegrees>
              <LongitudeDegrees>-1.9138682819902896881103515625</LongitudeDegrees>
            </Position>
            <AltitudeMeters>480.20001220703125</AltitudeMeters>
            <DistanceMeters>NAN</DistanceMeters>
          </Trackpoint>
          <Trackpoint>
            <Time>2021-08-14T07:38:20.000Z</Time>
            <Position>
              <LatitudeDegrees>43.0783405713737010955810546875</LatitudeDegrees>
              <LongitudeDegrees>-1.9138642586767673492431640625</LongitudeDegrees>
            </Position>
            <AltitudeMeters>480.20001220703125</AltitudeMeters>
            <DistanceMeters>NAN</DistanceMeters>
          </Trackpoint>
          <Trackpoint>
            <Time>2021-08-14T07:38:24.000Z</Time>
            <Position>
              <LatitudeDegrees>43.07836127467453479766845703125</LatitudeDegrees>
              <LongitudeDegrees>-1.91387079656124114990234375</LongitudeDegrees>
            </Position>
            <AltitudeMeters>480.20001220703125</AltitudeMeters>
            <DistanceMeters>NAN</DistanceMeters>
          </Trackpoint>
          <Trackpoint>
            <Time>2021-08-14T07:38:25.000Z</Time>
            <Position>
              <LatitudeDegrees>43.07836747728288173675537109375</LatitudeDegrees>
              <LongitudeDegrees>-1.91387020982801914215087890625</LongitudeDegrees>
            </Position>
            <AltitudeMeters>480.20001220703125</AltitudeMeters>
            <DistanceMeters>NAN</DistanceMeters>
          </Trackpoint>
          <Trackpoint>
            <Time>2021-08-14T07:38:26.000Z</Time>
            <Position>
              <LatitudeDegrees>43.07836915366351604461669921875</LatitudeDegrees>
              <LongitudeDegrees>-1.91387616097927093505859375</LongitudeDegrees>
            </Position>
            <AltitudeMeters>480.20001220703125</AltitudeMeters>
            <DistanceMeters>NAN</DistanceMeters>
          </Trackpoint>
          <Trackpoint>
            <Time>2021-08-14T07:38:27.000Z</Time>
            <Position>
              <LatitudeDegrees>43.07836982421576976776123046875</LatitudeDegrees>
              <LongitudeDegrees>-1.91388429142534732818603515625</LongitudeDegrees>
            </Position>
            <AltitudeMeters>480</AltitudeMeters>
            <DistanceMeters>NAN</DistanceMeters>
          </Trackpoint>
          <Trackpoint>
            <Time>2021-08-14T07:38:28.000Z</Time>
            <Position>
              <LatitudeDegrees>43.07836957275867462158203125</LatitudeDegrees>
              <LongitudeDegrees>-1.913891918957233428955078125</LongitudeDegrees>
            </Position>
            <AltitudeMeters>480</AltitudeMeters>
            <DistanceMeters>NAN</DistanceMeters>
          </Trackpoint>
          <Trackpoint>
            <Time>2021-08-14T07:38:29.000Z</Time>
            <Position>
              <LatitudeDegrees>43.078368566930294036865234375</LatitudeDegrees>
              <LongitudeDegrees>-1.91389560699462890625</LongitudeDegrees>
            </Position>
            <AltitudeMeters>480</AltitudeMeters>
            <DistanceMeters>NAN</DistanceMeters>
          </Trackpoint>
          <Trackpoint>
            <Time>2021-08-14T07:38:33.000Z</Time>
            <Position>
              <LatitudeDegrees>43.0783680640161037445068359375</LatitudeDegrees>
              <LongitudeDegrees>-1.913899295032024383544921875</LongitudeDegrees>
            </Position>
            <AltitudeMeters>480</AltitudeMeters>
            <DistanceMeters>NAN</DistanceMeters>
          </Trackpoint>
          <Trackpoint>
            <Time>2021-08-14T07:38:55.000Z</Time>
            <Position>
              <LatitudeDegrees>43.07835892774164676666259765625</LatitudeDegrees>
              <LongitudeDegrees>-1.9139128737151622772216796875</LongitudeDegrees>
            </Position>
            <AltitudeMeters>480</AltitudeMeters>
            <DistanceMeters>NAN</DistanceMeters>
          </Trackpoint>
          <Trackpoint>
            <Time>2021-08-14T07:39:27.000Z</Time>
            <Position>
              <LatitudeDegrees>43.07832531630992889404296875</LatitudeDegrees>
              <LongitudeDegrees>-1.913892589509487152099609375</LongitudeDegrees>
            </Position>
            <AltitudeMeters>480.20001220703125</AltitudeMeters>
            <DistanceMeters>NAN</DistanceMeters>
          </Trackpoint>
          <Trackpoint>
            <Time>2021-08-14T07:39:30.000Z</Time>
            <Position>
              <LatitudeDegrees>43.07830997742712497711181640625</LatitudeDegrees>
              <LongitudeDegrees>-1.91390172578394412994384765625</LongitudeDegrees>
            </Position>
            <AltitudeMeters>480.20001220703125</AltitudeMeters>
            <DistanceMeters>NAN</DistanceMeters>
          </Trackpoint>
          <Trackpoint>
            <Time>2021-08-14T07:39:32.000Z</Time>
            <Position>
              <LatitudeDegrees>43.0782983265817165374755859375</LatitudeDegrees>
              <LongitudeDegrees>-1.9139068387448787689208984375</LongitudeDegrees>
            </Position>
            <AltitudeMeters>480.20001220703125</AltitudeMeters>
            <DistanceMeters>NAN</DistanceMeters>
          </Trackpoint>
          <Trackpoint>
            <Time>2021-08-14T07:39:33.000Z</Time>
            <Position>
              <LatitudeDegrees>43.07829170487821102142333984375</LatitudeDegrees>
              <LongitudeDegrees>-1.9139091856777667999267578125</LongitudeDegrees>
            </Position>
            <AltitudeMeters>480.20001220703125</AltitudeMeters>
            <DistanceMeters>NAN</DistanceMeters>
          </Trackpoint>
          <Trackpoint>
            <Time>2021-08-14T07:39:34.000Z</Time>
            <Position>
              <LatitudeDegrees>43.0782817304134368896484375</LatitudeDegrees>
              <LongitudeDegrees>-1.913907341659069061279296875</LongitudeDegrees>
            </Position>
            <AltitudeMeters>480.20001220703125</AltitudeMeters>
            <DistanceMeters>NAN</DistanceMeters>
          </Trackpoint>
          <Trackpoint>
            <Time>2021-08-14T07:39:35.000Z</Time>
            <Position>
              <LatitudeDegrees>43.07827058248221874237060546875</LatitudeDegrees>
              <LongitudeDegrees>-1.91389954648911952972412109375</LongitudeDegrees>
            </Position>
            <AltitudeMeters>480.20001220703125</AltitudeMeters>
            <DistanceMeters>NAN</DistanceMeters>
          </Trackpoint>
          <Trackpoint>
            <Time>2021-08-14T07:39:36.000Z</Time>
            <Position>
              <LatitudeDegrees>43.0782567523419857025146484375</LatitudeDegrees>
              <LongitudeDegrees>-1.91389652900397777557373046875</LongitudeDegrees>
            </Position>
            <AltitudeMeters>480.20001220703125</AltitudeMeters>
            <DistanceMeters>NAN</DistanceMeters>
          </Trackpoint>
          <Trackpoint>
            <Time>2021-08-14T07:39:37.000Z</Time>
            <Position>
              <LatitudeDegrees>43.07824912481009960174560546875</LatitudeDegrees>
              <LongitudeDegrees>-1.91390306688845157623291015625</LongitudeDegrees>
            </Position>
            <AltitudeMeters>480.399993896484375</AltitudeMeters>
            <DistanceMeters>NAN</DistanceMeters>
          </Trackpoint>
          <Trackpoint>
            <Time>2021-08-14T07:39:38.000Z</Time>
            <Position>
              <LatitudeDegrees>43.07824459858238697052001953125</LatitudeDegrees>
              <LongitudeDegrees>-1.91391245462000370025634765625</LongitudeDegrees>
            </Position>
            <AltitudeMeters>480.399993896484375</AltitudeMeters>
            <DistanceMeters>NAN</DistanceMeters>
          </Trackpoint>
          <Trackpoint>
            <Time>2021-08-14T07:39:39.000Z</Time>
            <Position>
              <LatitudeDegrees>43.07824342511594295501708984375</LatitudeDegrees>
              <LongitudeDegrees>-1.91391580738127231597900390625</LongitudeDegrees>
            </Position>
            <AltitudeMeters>480.399993896484375</AltitudeMeters>
            <DistanceMeters>NAN</DistanceMeters>
          </Trackpoint>
          <Trackpoint>
            <Time>2021-08-14T07:39:40.000Z</Time>
            <Position>
              <LatitudeDegrees>43.07824409566819667816162109375</LatitudeDegrees>
              <LongitudeDegrees>-1.91391563974320888519287109375</LongitudeDegrees>
            </Position>
            <AltitudeMeters>480.399993896484375</AltitudeMeters>
            <DistanceMeters>NAN</DistanceMeters>
          </Trackpoint>
          <Trackpoint>
            <Time>2021-08-14T07:39:41.000Z</Time>
            <Position>
              <LatitudeDegrees>43.078245855867862701416015625</LatitudeDegrees>
              <LongitudeDegrees>-1.9139212556183338165283203125</LongitudeDegrees>
            </Position>
            <AltitudeMeters>480.399993896484375</AltitudeMeters>
            <DistanceMeters>NAN</DistanceMeters>
          </Trackpoint>
          <Trackpoint>
            <Time>2021-08-14T07:39:42.000Z</Time>
            <Position>
              <LatitudeDegrees>43.07825155556201934814453125</LatitudeDegrees>
              <LongitudeDegrees>-1.91392351873219013214111328125</LongitudeDegrees>
            </Position>
            <AltitudeMeters>480.399993896484375</AltitudeMeters>
            <DistanceMeters>NAN</DistanceMeters>
          </Trackpoint>
          <Trackpoint>
            <Time>2021-08-14T07:39:43.000Z</Time>
            <Position>
              <LatitudeDegrees>43.07825700379908084869384765625</LatitudeDegrees>
              <LongitudeDegrees>-1.91393441520631313323974609375</LongitudeDegrees>
            </Position>
            <AltitudeMeters>480.20001220703125</AltitudeMeters>
            <DistanceMeters>NAN</DistanceMeters>
          </Trackpoint>
          <Trackpoint>
            <Time>2021-08-14T07:39:44.000Z</Time>
            <Position>
              <LatitudeDegrees>43.07825683616101741790771484375</LatitudeDegrees>
              <LongitudeDegrees>-1.91396023146808147430419921875</LongitudeDegrees>
            </Position>
            <AltitudeMeters>480.20001220703125</AltitudeMeters>
            <DistanceMeters>NAN</DistanceMeters>
          </Trackpoint>
          <Trackpoint>
            <Time>2021-08-14T07:39:46.000Z</Time>
            <Position>
              <LatitudeDegrees>43.07826069183647632598876953125</LatitudeDegrees>
              <LongitudeDegrees>-1.91401823423802852630615234375</LongitudeDegrees>
            </Position>
            <AltitudeMeters>480.20001220703125</AltitudeMeters>
            <DistanceMeters>NAN</DistanceMeters>
          </Trackpoint>
          <Trackpoint>
            <Time>2021-08-14T07:39:48.000Z</Time>
            <Position>
              <LatitudeDegrees>43.0782946385443210601806640625</LatitudeDegrees>
              <LongitudeDegrees>-1.914058886468410491943359375</LongitudeDegrees>
            </Position>
            <AltitudeMeters>480</AltitudeMeters>
            <DistanceMeters>NAN</DistanceMeters>
          </Trackpoint>
          <Trackpoint>
            <Time>2021-08-14T07:39:49.000Z</Time>
            <Position>
              <LatitudeDegrees>43.07831282727420330047607421875</LatitudeDegrees>
              <LongitudeDegrees>-1.9140667654573917388916015625</LongitudeDegrees>
            </Position>
            <AltitudeMeters>479.79998779296875</AltitudeMeters>
            <DistanceMeters>NAN</DistanceMeters>
          </Trackpoint>
          <Trackpoint>
            <Time>2021-08-14T07:39:50.000Z</Time>
            <Position>
              <LatitudeDegrees>43.07833042927086353302001953125</LatitudeDegrees>
              <LongitudeDegrees>-1.91407104022800922393798828125</LongitudeDegrees>
            </Position>
            <AltitudeMeters>479.79998779296875</AltitudeMeters>
            <DistanceMeters>NAN</DistanceMeters>
          </Trackpoint>
          <Trackpoint>
            <Time>2021-08-14T07:39:51.000Z</Time>
            <Position>
              <LatitudeDegrees>43.078344762325286865234375</LatitudeDegrees>
              <LongitudeDegrees>-1.9140738062560558319091796875</LongitudeDegrees>
            </Position>
            <AltitudeMeters>479.600006103515625</AltitudeMeters>
            <DistanceMeters>NAN</DistanceMeters>
          </Trackpoint>
          <Trackpoint>
            <Time>2021-08-14T07:39:52.000Z</Time>
            <Position>
              <LatitudeDegrees>43.07835347950458526611328125</LatitudeDegrees>
              <LongitudeDegrees>-1.91407741047441959381103515625</LongitudeDegrees>
            </Position>
            <AltitudeMeters>479.600006103515625</AltitudeMeters>
            <DistanceMeters>NAN</DistanceMeters>
          </Trackpoint>
          <Trackpoint>
            <Time>2021-08-14T07:39:53.000Z</Time>
            <Position>
              <LatitudeDegrees>43.07835808955132961273193359375</LatitudeDegrees>
              <LongitudeDegrees>-1.91408269107341766357421875</LongitudeDegrees>
            </Position>
            <AltitudeMeters>479.399993896484375</AltitudeMeters>
            <DistanceMeters>NAN</DistanceMeters>
          </Trackpoint>
          <Trackpoint>
            <Time>2021-08-14T07:39:54.000Z</Time>
            <Position>
              <LatitudeDegrees>43.07836513034999370574951171875</LatitudeDegrees>
              <LongitudeDegrees>-1.914087049663066864013671875</LongitudeDegrees>
            </Position>
            <AltitudeMeters>479.20001220703125</AltitudeMeters>
            <DistanceMeters>NAN</DistanceMeters>
          </Trackpoint>
          <Trackpoint>
            <Time>2021-08-14T07:39:55.000Z</Time>
            <Position>
              <LatitudeDegrees>43.07837066240608692169189453125</LatitudeDegrees>
              <LongitudeDegrees>-1.91410020925104618072509765625</LongitudeDegrees>
            </Position>
            <AltitudeMeters>479.20001220703125</AltitudeMeters>
            <DistanceMeters>NAN</DistanceMeters>
          </Trackpoint>
          <Trackpoint>
            <Time>2021-08-14T07:39:56.000Z</Time>
            <Position>
              <LatitudeDegrees>43.078372590243816375732421875</LatitudeDegrees>
              <LongitudeDegrees>-1.9141294620931148529052734375</LongitudeDegrees>
            </Position>
            <AltitudeMeters>479</AltitudeMeters>
            <DistanceMeters>NAN</DistanceMeters>
          </Trackpoint>
          <Trackpoint>
            <Time>2021-08-14T07:39:57.000Z</Time>
            <Position>
              <LatitudeDegrees>43.07837317697703838348388671875</LatitudeDegrees>
              <LongitudeDegrees>-1.914157457649707794189453125</LongitudeDegrees>
            </Position>
            <AltitudeMeters>479</AltitudeMeters>
            <DistanceMeters>NAN</DistanceMeters>
          </Trackpoint>
          <Trackpoint>
            <Time>2021-08-14T07:39:58.000Z</Time>
            <Position>
              <LatitudeDegrees>43.07837904430925846099853515625</LatitudeDegrees>
              <LongitudeDegrees>-1.9141839444637298583984375</LongitudeDegrees>
            </Position>
            <AltitudeMeters>478.79998779296875</AltitudeMeters>
            <DistanceMeters>NAN</DistanceMeters>
          </Trackpoint>
          <Trackpoint>
            <Time>2021-08-14T07:39:59.000Z</Time>
            <Position>
              <LatitudeDegrees>43.07838206179440021514892578125</LatitudeDegrees>
              <LongitudeDegrees>-1.9141975231468677520751953125</LongitudeDegrees>
            </Position>
            <AltitudeMeters>478.79998779296875</AltitudeMeters>
            <DistanceMeters>NAN</DistanceMeters>
          </Trackpoint>
          <Trackpoint>
            <Time>2021-08-14T07:40:00.000Z</Time>
            <Position>
              <LatitudeDegrees>43.078381307423114776611328125</LatitudeDegrees>
              <LongitudeDegrees>-1.91420883871614933013916015625</LongitudeDegrees>
            </Position>
            <AltitudeMeters>478.600006103515625</AltitudeMeters>
            <DistanceMeters>NAN</DistanceMeters>
          </Trackpoint>
          <Trackpoint>
            <Time>2021-08-14T07:40:01.000Z</Time>
            <Position>
              <LatitudeDegrees>43.07836395688354969024658203125</LatitudeDegrees>
              <LongitudeDegrees>-1.9142300449311733245849609375</LongitudeDegrees>
            </Position>
            <AltitudeMeters>478.399993896484375</AltitudeMeters>
            <DistanceMeters>NAN</DistanceMeters>
          </Trackpoint>
          <Trackpoint>
            <Time>2021-08-14T07:40:02.000Z</Time>
            <Position>
              <LatitudeDegrees>43.07834518142044544219970703125</LatitudeDegrees>
              <LongitudeDegrees>-1.91424756310880184173583984375</LongitudeDegrees>
            </Position>
            <AltitudeMeters>478.399993896484375</AltitudeMeters>
            <DistanceMeters>NAN</DistanceMeters>
          </Trackpoint>
          <Trackpoint>
            <Time>2021-08-14T07:40:03.000Z</Time>
            <Position>
              <LatitudeDegrees>43.0783355422317981719970703125</LatitudeDegrees>
              <LongitudeDegrees>-1.9142629019916057586669921875</LongitudeDegrees>
            </Position>
            <AltitudeMeters>478.20001220703125</AltitudeMeters>
            <DistanceMeters>NAN</DistanceMeters>
          </Trackpoint>
          <Trackpoint>
            <Time>2021-08-14T07:40:04.000Z</Time>
            <Position>
              <LatitudeDegrees>43.0783335305750370025634765625</LatitudeDegrees>
              <LongitudeDegrees>-1.91427689976990222930908203125</LongitudeDegrees>
            </Position>
            <AltitudeMeters>478.20001220703125</AltitudeMeters>
            <DistanceMeters>NAN</DistanceMeters>
          </Trackpoint>
          <Trackpoint>
            <Time>2021-08-14T07:40:06.000Z</Time>
            <Position>
              <LatitudeDegrees>43.0783449299633502960205078125</LatitudeDegrees>
              <LongitudeDegrees>-1.91431880928575992584228515625</LongitudeDegrees>
            </Position>
            <AltitudeMeters>478</AltitudeMeters>
            <DistanceMeters>NAN</DistanceMeters>
          </Trackpoint>
          <Trackpoint>
            <Time>2021-08-14T07:40:07.000Z</Time>
            <Position>
              <LatitudeDegrees>43.0783523060381412506103515625</LatitudeDegrees>
              <LongitudeDegrees>-1.9143517501652240753173828125</LongitudeDegrees>
            </Position>
            <AltitudeMeters>478</AltitudeMeters>
            <DistanceMeters>NAN</DistanceMeters>
          </Trackpoint>
          <Trackpoint>
            <Time>2021-08-14T07:40:10.000Z</Time>
            <Position>
              <LatitudeDegrees>43.0783261545002460479736328125</LatitudeDegrees>
              <LongitudeDegrees>-1.91449918784201145172119140625</LongitudeDegrees>
            </Position>
            <AltitudeMeters>477.79998779296875</AltitudeMeters>
            <DistanceMeters>NAN</DistanceMeters>
          </Trackpoint>
          <Trackpoint>
            <Time>2021-08-14T07:40:11.000Z</Time>
            <Position>
              <LatitudeDegrees>43.0782966502010822296142578125</LatitudeDegrees>
              <LongitudeDegrees>-1.914530284702777862548828125</LongitudeDegrees>
            </Position>
            <AltitudeMeters>477.79998779296875</AltitudeMeters>
            <DistanceMeters>NAN</DistanceMeters>
          </Trackpoint>
          <Trackpoint>
            <Time>2021-08-14T07:40:12.000Z</Time>
            <Position>
              <LatitudeDegrees>43.07827393524348735809326171875</LatitudeDegrees>
              <LongitudeDegrees>-1.91455786116421222686767578125</LongitudeDegrees>
            </Position>
            <AltitudeMeters>477.79998779296875</AltitudeMeters>
            <DistanceMeters>NAN</DistanceMeters>
          </Trackpoint>
          <Trackpoint>
            <Time>2021-08-14T07:40:13.000Z</Time>
            <Position>
              <LatitudeDegrees>43.07825423777103424072265625</LatitudeDegrees>
              <LongitudeDegrees>-1.91457076929509639739990234375</LongitudeDegrees>
            </Position>
            <AltitudeMeters>477.79998779296875</AltitudeMeters>
            <DistanceMeters>NAN</DistanceMeters>
          </Trackpoint>
          <Trackpoint>
            <Time>2021-08-14T07:40:14.000Z</Time>
            <Position>
              <LatitudeDegrees>43.07824124582111835479736328125</LatitudeDegrees>
              <LongitudeDegrees>-1.9145824201405048370361328125</LongitudeDegrees>
            </Position>
            <AltitudeMeters>477.79998779296875</AltitudeMeters>
            <DistanceMeters>NAN</DistanceMeters>
          </Trackpoint>
          <Trackpoint>
            <Time>2021-08-14T07:40:15.000Z</Time>
            <Position>
              <LatitudeDegrees>43.078219704329967498779296875</LatitudeDegrees>
              <LongitudeDegrees>-1.91459340043365955352783203125</LongitudeDegrees>
            </Position>
            <AltitudeMeters>477.79998779296875</AltitudeMeters>
            <DistanceMeters>NAN</DistanceMeters>
          </Trackpoint>
          <Trackpoint>
            <Time>2021-08-14T07:40:16.000Z</Time>
            <Position>
              <LatitudeDegrees>43.078192882239818572998046875</LatitudeDegrees>
              <LongitudeDegrees>-1.91460597328841686248779296875</LongitudeDegrees>
            </Position>
            <AltitudeMeters>477.600006103515625</AltitudeMeters>
            <DistanceMeters>NAN</DistanceMeters>
          </Trackpoint>
          <Trackpoint>
            <Time>2021-08-14T07:40:19.000Z</Time>
            <Position>
              <LatitudeDegrees>43.078119456768035888671875</LatitudeDegrees>
              <LongitudeDegrees>-1.9146766327321529388427734375</LongitudeDegrees>
            </Position>
            <AltitudeMeters>477.600006103515625</AltitudeMeters>
            <DistanceMeters>NAN</DistanceMeters>
          </Trackpoint>
          <Trackpoint>
            <Time>2021-08-14T07:40:20.000Z</Time>
            <Position>
              <LatitudeDegrees>43.07811266742646694183349609375</LatitudeDegrees>
              <LongitudeDegrees>-1.914677135646343231201171875</LongitudeDegrees>
            </Position>
            <AltitudeMeters>477.600006103515625</AltitudeMeters>
            <DistanceMeters>NAN</DistanceMeters>
          </Trackpoint>
          <Trackpoint>
            <Time>2021-08-14T07:40:21.000Z</Time>
            <Position>
              <LatitudeDegrees>43.07810311205685138702392578125</LatitudeDegrees>
              <LongitudeDegrees>-1.91468157805502414703369140625</LongitudeDegrees>
            </Position>
            <AltitudeMeters>477.600006103515625</AltitudeMeters>
            <DistanceMeters>NAN</DistanceMeters>
          </Trackpoint>
          <Trackpoint>
            <Time>2021-08-14T07:40:22.000Z</Time>
            <Position>
              <LatitudeDegrees>43.078107051551342010498046875</LatitudeDegrees>
              <LongitudeDegrees>-1.91467520780861377716064453125</LongitudeDegrees>
            </Position>
            <AltitudeMeters>477.600006103515625</AltitudeMeters>
            <DistanceMeters>NAN</DistanceMeters>
          </Trackpoint>
          <Trackpoint>
            <Time>2021-08-14T07:40:23.000Z</Time>
            <Position>
              <LatitudeDegrees>43.078105039894580841064453125</LatitudeDegrees>
              <LongitudeDegrees>-1.91468291915953159332275390625</LongitudeDegrees>
            </Position>
            <AltitudeMeters>477.600006103515625</AltitudeMeters>
            <DistanceMeters>NAN</DistanceMeters>
          </Trackpoint>
          <Trackpoint>
            <Time>2021-08-14T07:40:24.000Z</Time>
            <Position>
              <LatitudeDegrees>43.078099675476551055908203125</LatitudeDegrees>
              <LongitudeDegrees>-1.91470555029809474945068359375</LongitudeDegrees>
            </Position>
            <AltitudeMeters>477.600006103515625</AltitudeMeters>
            <DistanceMeters>NAN</DistanceMeters>
          </Trackpoint>
          <Trackpoint>
            <Time>2021-08-14T07:40:25.000Z</Time>
            <Position>
              <LatitudeDegrees>43.07809707708656787872314453125</LatitudeDegrees>
              <LongitudeDegrees>-1.91471544094383716583251953125</LongitudeDegrees>
            </Position>
            <AltitudeMeters>477.600006103515625</AltitudeMeters>
            <DistanceMeters>NAN</DistanceMeters>
          </Trackpoint>
          <Trackpoint>
            <Time>2021-08-14T07:40:26.000Z</Time>
            <Position>
              <LatitudeDegrees>43.0780948139727115631103515625</LatitudeDegrees>
              <LongitudeDegrees>-1.91472298465669155120849609375</LongitudeDegrees>
            </Position>
            <AltitudeMeters>477.79998779296875</AltitudeMeters>
            <DistanceMeters>NAN</DistanceMeters>
          </Trackpoint>
          <Trackpoint>
            <Time>2021-08-14T07:40:27.000Z</Time>
            <Position>
              <LatitudeDegrees>43.0780938081443309783935546875</LatitudeDegrees>
              <LongitudeDegrees>-1.914732456207275390625</LongitudeDegrees>
            </Position>
            <AltitudeMeters>477.79998779296875</AltitudeMeters>
            <DistanceMeters>NAN</DistanceMeters>
          </Trackpoint>
          <Trackpoint>
            <Time>2021-08-14T07:40:28.000Z</Time>
            <Position>
              <LatitudeDegrees>43.078095652163028717041015625</LatitudeDegrees>
              <LongitudeDegrees>-1.9147440232336521148681640625</LongitudeDegrees>
            </Position>
            <AltitudeMeters>477.79998779296875</AltitudeMeters>
            <DistanceMeters>NAN</DistanceMeters>
          </Trackpoint>
          <Trackpoint>
            <Time>2021-08-14T07:40:29.000Z</Time>
            <Position>
              <LatitudeDegrees>43.07809892110526561737060546875</LatitudeDegrees>
              <LongitudeDegrees>-1.91475751809775829315185546875</LongitudeDegrees>
            </Position>
            <AltitudeMeters>477.79998779296875</AltitudeMeters>
            <DistanceMeters>NAN</DistanceMeters>
          </Trackpoint>
          <Trackpoint>
            <Time>2021-08-14T07:40:30.000Z</Time>
            <Position>
              <LatitudeDegrees>43.078103698790073394775390625</LatitudeDegrees>
              <LongitudeDegrees>-1.91477335989475250244140625</LongitudeDegrees>
            </Position>
            <AltitudeMeters>477.79998779296875</AltitudeMeters>
            <DistanceMeters>NAN</DistanceMeters>
          </Trackpoint>
          <Trackpoint>
            <Time>2021-08-14T07:40:31.000Z</Time>
            <Position>
              <LatitudeDegrees>43.07811032049357891082763671875</LatitudeDegrees>
              <LongitudeDegrees>-1.91478618420660495758056640625</LongitudeDegrees>
            </Position>
            <AltitudeMeters>477.79998779296875</AltitudeMeters>
            <DistanceMeters>NAN</DistanceMeters>
          </Trackpoint>
          <Trackpoint>
            <Time>2021-08-14T07:40:32.000Z</Time>
            <Position>
              <LatitudeDegrees>43.07811585254967212677001953125</LatitudeDegrees>
              <LongitudeDegrees>-1.91480009816586971282958984375</LongitudeDegrees>
            </Position>
            <AltitudeMeters>477.79998779296875</AltitudeMeters>
            <DistanceMeters>NAN</DistanceMeters>
          </Trackpoint>
          <Trackpoint>
            <Time>2021-08-14T07:40:33.000Z</Time>
            <Position>
              <LatitudeDegrees>43.07812389917671680450439453125</LatitudeDegrees>
              <LongitudeDegrees>-1.9148134253919124603271484375</LongitudeDegrees>
            </Position>
            <AltitudeMeters>477.79998779296875</AltitudeMeters>
            <DistanceMeters>NAN</DistanceMeters>
          </Trackpoint>
          <Trackpoint>
            <Time>2021-08-14T07:40:34.000Z</Time>
            <Position>
              <LatitudeDegrees>43.07812825776636600494384765625</LatitudeDegrees>
              <LongitudeDegrees>-1.9148308597505092620849609375</LongitudeDegrees>
            </Position>
            <AltitudeMeters>477.79998779296875</AltitudeMeters>
            <DistanceMeters>NAN</DistanceMeters>
          </Trackpoint>
          <Trackpoint>
            <Time>2021-08-14T07:40:35.000Z</Time>
            <Position>
              <LatitudeDegrees>43.07812842540442943572998046875</LatitudeDegrees>
              <LongitudeDegrees>-1.914844103157520294189453125</LongitudeDegrees>
            </Position>
            <AltitudeMeters>477.79998779296875</AltitudeMeters>
            <DistanceMeters>NAN</DistanceMeters>
          </Trackpoint>
          <Trackpoint>
            <Time>2021-08-14T07:40:38.000Z</Time>
            <Position>
              <LatitudeDegrees>43.0781370587646961212158203125</LatitudeDegrees>
              <LongitudeDegrees>-1.91482608206570148468017578125</LongitudeDegrees>
            </Position>
            <AltitudeMeters>477.600006103515625</AltitudeMeters>
            <DistanceMeters>NAN</DistanceMeters>
          </Trackpoint>
          <Trackpoint>
            <Time>2021-08-14T07:40:39.000Z</Time>
            <Position>
              <LatitudeDegrees>43.0781424231827259063720703125</LatitudeDegrees>
              <LongitudeDegrees>-1.91480428911745548248291015625</LongitudeDegrees>
            </Position>
            <AltitudeMeters>477.600006103515625</AltitudeMeters>
            <DistanceMeters>NAN</DistanceMeters>
          </Trackpoint>
          <Trackpoint>
            <Time>2021-08-14T07:40:42.000Z</Time>
            <Position>
              <LatitudeDegrees>43.07813764549791812896728515625</LatitudeDegrees>
              <LongitudeDegrees>-1.91474243067204952239990234375</LongitudeDegrees>
            </Position>
            <AltitudeMeters>477.399993896484375</AltitudeMeters>
            <DistanceMeters>NAN</DistanceMeters>
          </Trackpoint>
          <Trackpoint>
            <Time>2021-08-14T07:40:43.000Z</Time>
            <Position>
              <LatitudeDegrees>43.0781367234885692596435546875</LatitudeDegrees>
              <LongitudeDegrees>-1.91473237238824367523193359375</LongitudeDegrees>
            </Position>
            <AltitudeMeters>477.399993896484375</AltitudeMeters>
            <DistanceMeters>NAN</DistanceMeters>
          </Trackpoint>
          <Trackpoint>
            <Time>2021-08-14T07:40:44.000Z</Time>
            <Position>
              <LatitudeDegrees>43.0781377293169498443603515625</LatitudeDegrees>
              <LongitudeDegrees>-1.9147081486880779266357421875</LongitudeDegrees>
            </Position>
            <AltitudeMeters>477.399993896484375</AltitudeMeters>
            <DistanceMeters>NAN</DistanceMeters>
          </Trackpoint>
          <Trackpoint>
            <Time>2021-08-14T07:40:45.000Z</Time>
            <Position>
              <LatitudeDegrees>43.07813881896436214447021484375</LatitudeDegrees>
              <LongitudeDegrees>-1.91467185504734516143798828125</LongitudeDegrees>
            </Position>
            <AltitudeMeters>477.399993896484375</AltitudeMeters>
            <DistanceMeters>NAN</DistanceMeters>
          </Trackpoint>
          <Trackpoint>
            <Time>2021-08-14T07:40:46.000Z</Time>
            <Position>
              <LatitudeDegrees>43.0781363882124423980712890625</LatitudeDegrees>
              <LongitudeDegrees>-1.91464235074818134307861328125</LongitudeDegrees>
            </Position>
            <AltitudeMeters>477.399993896484375</AltitudeMeters>
            <DistanceMeters>NAN</DistanceMeters>
          </Trackpoint>
          <Trackpoint>
            <Time>2021-08-14T07:40:47.000Z</Time>
            <Position>
              <LatitudeDegrees>43.07812876068055629730224609375</LatitudeDegrees>
              <LongitudeDegrees>-1.9146189652383327484130859375</LongitudeDegrees>
            </Position>
            <AltitudeMeters>477.399993896484375</AltitudeMeters>
            <DistanceMeters>NAN</DistanceMeters>
          </Trackpoint>
          <Trackpoint>
            <Time>2021-08-14T07:40:48.000Z</Time>
            <Position>
              <LatitudeDegrees>43.0781156010925769805908203125</LatitudeDegrees>
              <LongitudeDegrees>-1.91459323279559612274169921875</LongitudeDegrees>
            </Position>
            <AltitudeMeters>477.399993896484375</AltitudeMeters>
            <DistanceMeters>NAN</DistanceMeters>
          </Trackpoint>
          <Trackpoint>
            <Time>2021-08-14T07:40:49.000Z</Time>
            <Position>
              <LatitudeDegrees>43.07810009457170963287353515625</LatitudeDegrees>
              <LongitudeDegrees>-1.91456087864935398101806640625</LongitudeDegrees>
            </Position>
            <AltitudeMeters>477.600006103515625</AltitudeMeters>
            <DistanceMeters>NAN</DistanceMeters>
          </Trackpoint>
          <Trackpoint>
            <Time>2021-08-14T07:40:50.000Z</Time>
            <Position>
              <LatitudeDegrees>43.0780877731740474700927734375</LatitudeDegrees>
              <LongitudeDegrees>-1.91452927887439727783203125</LongitudeDegrees>
            </Position>
            <AltitudeMeters>477.600006103515625</AltitudeMeters>
            <DistanceMeters>NAN</DistanceMeters>
          </Trackpoint>
          <Trackpoint>
            <Time>2021-08-14T07:40:52.000Z</Time>
            <Position>
              <LatitudeDegrees>43.07807193137705326080322265625</LatitudeDegrees>
              <LongitudeDegrees>-1.9144560210406780242919921875</LongitudeDegrees>
            </Position>
            <AltitudeMeters>477.600006103515625</AltitudeMeters>
            <DistanceMeters>NAN</DistanceMeters>
          </Trackpoint>
          <Trackpoint>
            <Time>2021-08-14T07:40:56.000Z</Time>
            <Position>
              <LatitudeDegrees>43.07801158167421817779541015625</LatitudeDegrees>
              <LongitudeDegrees>-1.91437597386538982391357421875</LongitudeDegrees>
            </Position>
            <AltitudeMeters>478</AltitudeMeters>
            <DistanceMeters>NAN</DistanceMeters>
          </Trackpoint>
          <Trackpoint>
            <Time>2021-08-14T07:40:57.000Z</Time>
            <Position>
              <LatitudeDegrees>43.0779893696308135986328125</LatitudeDegrees>
              <LongitudeDegrees>-1.914370357990264892578125</LongitudeDegrees>
            </Position>
            <AltitudeMeters>478.20001220703125</AltitudeMeters>
            <DistanceMeters>NAN</DistanceMeters>
          </Trackpoint>
          <Trackpoint>
            <Time>2021-08-14T07:40:58.000Z</Time>
            <Position>
              <LatitudeDegrees>43.0779700912535190582275390625</LatitudeDegrees>
              <LongitudeDegrees>-1.91436625085771083831787109375</LongitudeDegrees>
            </Position>
            <AltitudeMeters>478.399993896484375</AltitudeMeters>
            <DistanceMeters>NAN</DistanceMeters>
          </Trackpoint>
          <Trackpoint>
            <Time>2021-08-14T07:40:59.000Z</Time>
            <Position>
              <LatitudeDegrees>43.07795173488557338714599609375</LatitudeDegrees>
              <LongitudeDegrees>-1.91435552202165126800537109375</LongitudeDegrees>
            </Position>
            <AltitudeMeters>478.600006103515625</AltitudeMeters>
            <DistanceMeters>NAN</DistanceMeters>
          </Trackpoint>
          <Trackpoint>
            <Time>2021-08-14T07:41:00.000Z</Time>
            <Position>
              <LatitudeDegrees>43.07793647982180118560791015625</LatitudeDegrees>
              <LongitudeDegrees>-1.91433079540729522705078125</LongitudeDegrees>
            </Position>
            <AltitudeMeters>478.600006103515625</AltitudeMeters>
            <DistanceMeters>NAN</DistanceMeters>
          </Trackpoint>
          <Trackpoint>
            <Time>2021-08-14T07:41:01.000Z</Time>
            <Position>
              <LatitudeDegrees>43.0779204703867435455322265625</LatitudeDegrees>
              <LongitudeDegrees>-1.91431143321096897125244140625</LongitudeDegrees>
            </Position>
            <AltitudeMeters>478.79998779296875</AltitudeMeters>
            <DistanceMeters>NAN</DistanceMeters>
          </Trackpoint>
          <Trackpoint>
            <Time>2021-08-14T07:41:02.000Z</Time>
            <Position>
              <LatitudeDegrees>43.07790848426520824432373046875</LatitudeDegrees>
              <LongitudeDegrees>-1.91429249010980129241943359375</LongitudeDegrees>
            </Position>
            <AltitudeMeters>478.79998779296875</AltitudeMeters>
            <DistanceMeters>NAN</DistanceMeters>
          </Trackpoint>
          <Trackpoint>
            <Time>2021-08-14T07:41:03.000Z</Time>
            <Position>
              <LatitudeDegrees>43.077897839248180389404296875</LatitudeDegrees>
              <LongitudeDegrees>-1.91427254118025302886962890625</LongitudeDegrees>
            </Position>
            <AltitudeMeters>479</AltitudeMeters>
            <DistanceMeters>NAN</DistanceMeters>
          </Trackpoint>
          <Trackpoint>
            <Time>2021-08-14T07:41:05.000Z</Time>
            <Position>
              <LatitudeDegrees>43.0778849311172962188720703125</LatitudeDegrees>
              <LongitudeDegrees>-1.91421001218259334564208984375</LongitudeDegrees>
            </Position>
            <AltitudeMeters>479.20001220703125</AltitudeMeters>
            <DistanceMeters>NAN</DistanceMeters>
          </Trackpoint>
          <Trackpoint>
            <Time>2021-08-14T07:41:06.000Z</Time>
            <Position>
              <LatitudeDegrees>43.07788300327956676483154296875</LatitudeDegrees>
              <LongitudeDegrees>-1.91417464055120944976806640625</LongitudeDegrees>
            </Position>
            <AltitudeMeters>479.20001220703125</AltitudeMeters>
            <DistanceMeters>NAN</DistanceMeters>
          </Trackpoint>
          <Trackpoint>
            <Time>2021-08-14T07:41:09.000Z</Time>
            <Position>
              <LatitudeDegrees>43.07788333855569362640380859375</LatitudeDegrees>
              <LongitudeDegrees>-1.9140761531889438629150390625</LongitudeDegrees>
            </Position>
            <AltitudeMeters>479.399993896484375</AltitudeMeters>
            <DistanceMeters>NAN</DistanceMeters>
          </Trackpoint>
          <Trackpoint>
            <Time>2021-08-14T07:41:10.000Z</Time>
            <Position>
              <LatitudeDegrees>43.07788535021245479583740234375</LatitudeDegrees>
              <LongitudeDegrees>-1.91404136829078197479248046875</LongitudeDegrees>
            </Position>
            <AltitudeMeters>479.399993896484375</AltitudeMeters>
            <DistanceMeters>NAN</DistanceMeters>
          </Trackpoint>
          <Trackpoint>
            <Time>2021-08-14T07:41:16.000Z</Time>
            <Position>
              <LatitudeDegrees>43.07789742015302181243896484375</LatitudeDegrees>
              <LongitudeDegrees>-1.91387775354087352752685546875</LongitudeDegrees>
            </Position>
            <AltitudeMeters>479.79998779296875</AltitudeMeters>
            <DistanceMeters>NAN</DistanceMeters>
          </Trackpoint>
          <Trackpoint>
            <Time>2021-08-14T07:41:17.000Z</Time>
            <Position>
              <LatitudeDegrees>43.07789104990661144256591796875</LatitudeDegrees>
              <LongitudeDegrees>-1.9138505123555660247802734375</LongitudeDegrees>
            </Position>
            <AltitudeMeters>479.79998779296875</AltitudeMeters>
            <DistanceMeters>NAN</DistanceMeters>
          </Trackpoint>
          <Trackpoint>
            <Time>2021-08-14T07:41:18.000Z</Time>
            <Position>
              <LatitudeDegrees>43.07788535021245479583740234375</LatitudeDegrees>
              <LongitudeDegrees>-1.9138297252357006072998046875</LongitudeDegrees>
            </Position>
            <AltitudeMeters>479.79998779296875</AltitudeMeters>
            <DistanceMeters>NAN</DistanceMeters>
          </Trackpoint>
          <Trackpoint>
            <Time>2021-08-14T07:41:19.000Z</Time>
            <Position>
              <LatitudeDegrees>43.0778859369456768035888671875</LatitudeDegrees>
              <LongitudeDegrees>-1.913803406059741973876953125</LongitudeDegrees>
            </Position>
            <AltitudeMeters>479.79998779296875</AltitudeMeters>
            <DistanceMeters>NAN</DistanceMeters>
          </Trackpoint>
          <Trackpoint>
            <Time>2021-08-14T07:41:20.000Z</Time>
            <Position>
              <LatitudeDegrees>43.07789406739175319671630859375</LatitudeDegrees>
              <LongitudeDegrees>-1.91376979462802410125732421875</LongitudeDegrees>
            </Position>
            <AltitudeMeters>480</AltitudeMeters>
            <DistanceMeters>NAN</DistanceMeters>
          </Trackpoint>
          <Trackpoint>
            <Time>2021-08-14T07:41:21.000Z</Time>
            <Position>
              <LatitudeDegrees>43.07790010236203670501708984375</LatitudeDegrees>
              <LongitudeDegrees>-1.91373911686241626739501953125</LongitudeDegrees>
            </Position>
            <AltitudeMeters>480</AltitudeMeters>
            <DistanceMeters>NAN</DistanceMeters>
          </Trackpoint>
          <Trackpoint>
            <Time>2021-08-14T07:41:22.000Z</Time>
            <Position>
              <LatitudeDegrees>43.077911250293254852294921875</LatitudeDegrees>
              <LongitudeDegrees>-1.913710534572601318359375</LongitudeDegrees>
            </Position>
            <AltitudeMeters>480.399993896484375</AltitudeMeters>
            <DistanceMeters>NAN</DistanceMeters>
          </Trackpoint>
          <Trackpoint>
            <Time>2021-08-14T07:41:23.000Z</Time>
            <Position>
              <LatitudeDegrees>43.07791636325418949127197265625</LatitudeDegrees>
              <LongitudeDegrees>-1.91368966363370418548583984375</LongitudeDegrees>
            </Position>
            <AltitudeMeters>480.600006103515625</AltitudeMeters>
            <DistanceMeters>NAN</DistanceMeters>
          </Trackpoint>
          <Trackpoint>
            <Time>2021-08-14T07:41:24.000Z</Time>
            <Position>
              <LatitudeDegrees>43.07792164385318756103515625</LatitudeDegrees>
              <LongitudeDegrees>-1.9136635959148406982421875</LongitudeDegrees>
            </Position>
            <AltitudeMeters>480.600006103515625</AltitudeMeters>
            <DistanceMeters>NAN</DistanceMeters>
          </Trackpoint>
          <Trackpoint>
            <Time>2021-08-14T07:41:27.000Z</Time>
            <Position>
              <LatitudeDegrees>43.07793907821178436279296875</LatitudeDegrees>
              <LongitudeDegrees>-1.9135967083275318145751953125</LongitudeDegrees>
            </Position>
            <AltitudeMeters>481.20001220703125</AltitudeMeters>
            <DistanceMeters>NAN</DistanceMeters>
          </Trackpoint>
          <Trackpoint>
            <Time>2021-08-14T07:41:28.000Z</Time>
            <Position>
              <LatitudeDegrees>43.077947795391082763671875</LatitudeDegrees>
              <LongitudeDegrees>-1.9135752506554126739501953125</LongitudeDegrees>
            </Position>
            <AltitudeMeters>481.399993896484375</AltitudeMeters>
            <DistanceMeters>NAN</DistanceMeters>
          </Trackpoint>
          <Trackpoint>
            <Time>2021-08-14T07:41:29.000Z</Time>
            <Position>
              <LatitudeDegrees>43.07795257307589054107666015625</LatitudeDegrees>
              <LongitudeDegrees>-1.91355907358229160308837890625</LongitudeDegrees>
            </Position>
            <AltitudeMeters>481.399993896484375</AltitudeMeters>
            <DistanceMeters>NAN</DistanceMeters>
          </Trackpoint>
          <Trackpoint>
            <Time>2021-08-14T07:41:30.000Z</Time>
            <Position>
              <LatitudeDegrees>43.0779573507606983184814453125</LatitudeDegrees>
              <LongitudeDegrees>-1.91354247741401195526123046875</LongitudeDegrees>
            </Position>
            <AltitudeMeters>481.600006103515625</AltitudeMeters>
            <DistanceMeters>NAN</DistanceMeters>
          </Trackpoint>
          <Trackpoint>
            <Time>2021-08-14T07:41:31.000Z</Time>
            <Position>
              <LatitudeDegrees>43.0779571831226348876953125</LatitudeDegrees>
              <LongitudeDegrees>-1.9135179184377193450927734375</LongitudeDegrees>
            </Position>
            <AltitudeMeters>481.79998779296875</AltitudeMeters>
            <DistanceMeters>NAN</DistanceMeters>
          </Trackpoint>
          <Trackpoint>
            <Time>2021-08-14T07:41:32.000Z</Time>
            <Position>
              <LatitudeDegrees>43.07795542292296886444091796875</LatitudeDegrees>
              <LongitudeDegrees>-1.9134981371462345123291015625</LongitudeDegrees>
            </Position>
            <AltitudeMeters>482</AltitudeMeters>
            <DistanceMeters>NAN</DistanceMeters>
          </Trackpoint>
          <Trackpoint>
            <Time>2021-08-14T07:41:33.000Z</Time>
            <Position>
              <LatitudeDegrees>43.0779545009136199951171875</LatitudeDegrees>
              <LongitudeDegrees>-1.91348145715892314910888671875</LongitudeDegrees>
            </Position>
            <AltitudeMeters>482.20001220703125</AltitudeMeters>
            <DistanceMeters>NAN</DistanceMeters>
          </Trackpoint>
          <Trackpoint>
            <Time>2021-08-14T07:41:34.000Z</Time>
            <Position>
              <LatitudeDegrees>43.07795223779976367950439453125</LatitudeDegrees>
              <LongitudeDegrees>-1.913470141589641571044921875</LongitudeDegrees>
            </Position>
            <AltitudeMeters>482.20001220703125</AltitudeMeters>
            <DistanceMeters>NAN</DistanceMeters>
          </Trackpoint>
          <Trackpoint>
            <Time>2021-08-14T07:41:35.000Z</Time>
            <Position>
              <LatitudeDegrees>43.077947460114955902099609375</LatitudeDegrees>
              <LongitudeDegrees>-1.913453377783298492431640625</LongitudeDegrees>
            </Position>
            <AltitudeMeters>482.20001220703125</AltitudeMeters>
            <DistanceMeters>NAN</DistanceMeters>
          </Trackpoint>
          <Trackpoint>
            <Time>2021-08-14T07:41:36.000Z</Time>
            <Position>
              <LatitudeDegrees>43.07793949730694293975830078125</LatitudeDegrees>
              <LongitudeDegrees>-1.91343083046376705169677734375</LongitudeDegrees>
            </Position>
            <AltitudeMeters>482.399993896484375</AltitudeMeters>
            <DistanceMeters>NAN</DistanceMeters>
          </Trackpoint>
          <Trackpoint>
            <Time>2021-08-14T07:41:37.000Z</Time>
            <Position>
              <LatitudeDegrees>43.0779335461556911468505859375</LatitudeDegrees>
              <LongitudeDegrees>-1.91341674886643886566162109375</LongitudeDegrees>
            </Position>
            <AltitudeMeters>482.399993896484375</AltitudeMeters>
            <DistanceMeters>NAN</DistanceMeters>
          </Trackpoint>
          <Trackpoint>
            <Time>2021-08-14T07:41:38.000Z</Time>
            <Position>
              <LatitudeDegrees>43.0779234878718852996826171875</LatitudeDegrees>
              <LongitudeDegrees>-1.9134072773158550262451171875</LongitudeDegrees>
            </Position>
            <AltitudeMeters>482.600006103515625</AltitudeMeters>
            <DistanceMeters>NAN</DistanceMeters>
          </Trackpoint>
          <Trackpoint>
            <Time>2021-08-14T07:41:39.000Z</Time>
            <Position>
              <LatitudeDegrees>43.07791586033999919891357421875</LatitudeDegrees>
              <LongitudeDegrees>-1.913397051393985748291015625</LongitudeDegrees>
            </Position>
            <AltitudeMeters>483</AltitudeMeters>
            <DistanceMeters>NAN</DistanceMeters>
          </Trackpoint>
          <Trackpoint>
            <Time>2021-08-14T07:41:40.000Z</Time>
            <Position>
              <LatitudeDegrees>43.077905885875225067138671875</LatitudeDegrees>
              <LongitudeDegrees>-1.913384981453418731689453125</LongitudeDegrees>
            </Position>
            <AltitudeMeters>483</AltitudeMeters>
            <DistanceMeters>NAN</DistanceMeters>
          </Trackpoint>
          <Trackpoint>
            <Time>2021-08-14T07:41:41.000Z</Time>
            <Position>
              <LatitudeDegrees>43.07789457030594348907470703125</LatitudeDegrees>
              <LongitudeDegrees>-1.91337232477962970733642578125</LongitudeDegrees>
            </Position>
            <AltitudeMeters>483.20001220703125</AltitudeMeters>
            <DistanceMeters>NAN</DistanceMeters>
          </Trackpoint>
          <Trackpoint>
            <Time>2021-08-14T07:41:42.000Z</Time>
            <Position>
              <LatitudeDegrees>43.07788048870861530303955078125</LatitudeDegrees>
              <LongitudeDegrees>-1.9133573211729526519775390625</LongitudeDegrees>
            </Position>
            <AltitudeMeters>483.20001220703125</AltitudeMeters>
            <DistanceMeters>NAN</DistanceMeters>
          </Trackpoint>
          <Trackpoint>
            <Time>2021-08-14T07:41:43.000Z</Time>
            <Position>
              <LatitudeDegrees>43.0778678320348262786865234375</LatitudeDegrees>
              <LongitudeDegrees>-1.913344077765941619873046875</LongitudeDegrees>
            </Position>
            <AltitudeMeters>483.399993896484375</AltitudeMeters>
            <DistanceMeters>NAN</DistanceMeters>
          </Trackpoint>
          <Trackpoint>
            <Time>2021-08-14T07:41:44.000Z</Time>
            <Position>
              <LatitudeDegrees>43.07785400189459323883056640625</LatitudeDegrees>
              <LongitudeDegrees>-1.9133335165679454803466796875</LongitudeDegrees>
            </Position>
            <AltitudeMeters>483.600006103515625</AltitudeMeters>
            <DistanceMeters>NAN</DistanceMeters>
          </Trackpoint>
          <Trackpoint>
            <Time>2021-08-14T07:41:45.000Z</Time>
            <Position>
              <LatitudeDegrees>43.0778443627059459686279296875</LatitudeDegrees>
              <LongitudeDegrees>-1.91332630813121795654296875</LongitudeDegrees>
            </Position>
            <AltitudeMeters>483.79998779296875</AltitudeMeters>
            <DistanceMeters>NAN</DistanceMeters>
          </Trackpoint>
          <Trackpoint>
            <Time>2021-08-14T07:41:46.000Z</Time>
            <Position>
              <LatitudeDegrees>43.07783220894634723663330078125</LatitudeDegrees>
              <LongitudeDegrees>-1.9133177585899829864501953125</LongitudeDegrees>
            </Position>
            <AltitudeMeters>483.79998779296875</AltitudeMeters>
            <DistanceMeters>NAN</DistanceMeters>
          </Trackpoint>
          <Trackpoint>
            <Time>2021-08-14T07:41:47.000Z</Time>
            <Position>
              <LatitudeDegrees>43.0778158642351627349853515625</LatitudeDegrees>
              <LongitudeDegrees>-1.91330493427813053131103515625</LongitudeDegrees>
            </Position>
            <AltitudeMeters>484</AltitudeMeters>
            <DistanceMeters>NAN</DistanceMeters>
          </Trackpoint>
          <Trackpoint>
            <Time>2021-08-14T07:41:48.000Z</Time>
            <Position>
              <LatitudeDegrees>43.0778064765036106109619140625</LatitudeDegrees>
              <LongitudeDegrees>-1.91329873166978359222412109375</LongitudeDegrees>
            </Position>
            <AltitudeMeters>484</AltitudeMeters>
            <DistanceMeters>NAN</DistanceMeters>
          </Trackpoint>
          <Trackpoint>
            <Time>2021-08-14T07:41:49.000Z</Time>
            <Position>
              <LatitudeDegrees>43.07779692113399505615234375</LatitudeDegrees>
              <LongitudeDegrees>-1.91328800283372402191162109375</LongitudeDegrees>
            </Position>
            <AltitudeMeters>484.20001220703125</AltitudeMeters>
            <DistanceMeters>NAN</DistanceMeters>
          </Trackpoint>
          <Trackpoint>
            <Time>2021-08-14T07:41:50.000Z</Time>
            <Position>
              <LatitudeDegrees>43.07778862304985523223876953125</LatitudeDegrees>
              <LongitudeDegrees>-1.91327861510217189788818359375</LongitudeDegrees>
            </Position>
            <AltitudeMeters>484.399993896484375</AltitudeMeters>
            <DistanceMeters>NAN</DistanceMeters>
          </Trackpoint>
          <Trackpoint>
            <Time>2021-08-14T07:41:51.000Z</Time>
            <Position>
              <LatitudeDegrees>43.07777387090027332305908203125</LatitudeDegrees>
              <LongitudeDegrees>-1.9132751785218715667724609375</LongitudeDegrees>
            </Position>
            <AltitudeMeters>484.600006103515625</AltitudeMeters>
            <DistanceMeters>NAN</DistanceMeters>
          </Trackpoint>
          <Trackpoint>
            <Time>2021-08-14T07:41:52.000Z</Time>
            <Position>
              <LatitudeDegrees>43.0777561850845813751220703125</LatitudeDegrees>
              <LongitudeDegrees>-1.9132688082754611968994140625</LongitudeDegrees>
            </Position>
            <AltitudeMeters>484.600006103515625</AltitudeMeters>
            <DistanceMeters>NAN</DistanceMeters>
          </Trackpoint>
          <Trackpoint>
            <Time>2021-08-14T07:41:53.000Z</Time>
            <Position>
              <LatitudeDegrees>43.07774637825787067413330078125</LatitudeDegrees>
              <LongitudeDegrees>-1.91325564868748188018798828125</LongitudeDegrees>
            </Position>
            <AltitudeMeters>484.79998779296875</AltitudeMeters>
            <DistanceMeters>NAN</DistanceMeters>
          </Trackpoint>
          <Trackpoint>
            <Time>2021-08-14T07:41:54.000Z</Time>
            <Position>
              <LatitudeDegrees>43.077737577259540557861328125</LatitudeDegrees>
              <LongitudeDegrees>-1.91324106417596340179443359375</LongitudeDegrees>
            </Position>
            <AltitudeMeters>484.79998779296875</AltitudeMeters>
            <DistanceMeters>NAN</DistanceMeters>
          </Trackpoint>
          <Trackpoint>
            <Time>2021-08-14T07:41:55.000Z</Time>
            <Position>
              <LatitudeDegrees>43.0777318775653839111328125</LatitudeDegrees>
              <LongitudeDegrees>-1.91322798840701580047607421875</LongitudeDegrees>
            </Position>
            <AltitudeMeters>484.79998779296875</AltitudeMeters>
            <DistanceMeters>NAN</DistanceMeters>
          </Trackpoint>
          <Trackpoint>
            <Time>2021-08-14T07:41:56.000Z</Time>
            <Position>
              <LatitudeDegrees>43.07772374711930751800537109375</LatitudeDegrees>
              <LongitudeDegrees>-1.91321910358965396881103515625</LongitudeDegrees>
            </Position>
            <AltitudeMeters>485</AltitudeMeters>
            <DistanceMeters>NAN</DistanceMeters>
          </Trackpoint>
          <Trackpoint>
            <Time>2021-08-14T07:41:57.000Z</Time>
            <Position>
              <LatitudeDegrees>43.07771469466388225555419921875</LatitudeDegrees>
              <LongitudeDegrees>-1.91320770420134067535400390625</LongitudeDegrees>
            </Position>
            <AltitudeMeters>485.20001220703125</AltitudeMeters>
            <DistanceMeters>NAN</DistanceMeters>
          </Trackpoint>
          <Trackpoint>
            <Time>2021-08-14T07:41:58.000Z</Time>
            <Position>
              <LatitudeDegrees>43.07770279236137866973876953125</LatitudeDegrees>
              <LongitudeDegrees>-1.91319161094725131988525390625</LongitudeDegrees>
            </Position>
            <AltitudeMeters>485.399993896484375</AltitudeMeters>
            <DistanceMeters>NAN</DistanceMeters>
          </Trackpoint>
          <Trackpoint>
            <Time>2021-08-14T07:41:59.000Z</Time>
            <Position>
              <LatitudeDegrees>43.07769156061112880706787109375</LatitudeDegrees>
              <LongitudeDegrees>-1.91317744553089141845703125</LongitudeDegrees>
            </Position>
            <AltitudeMeters>485.399993896484375</AltitudeMeters>
            <DistanceMeters>NAN</DistanceMeters>
          </Trackpoint>
          <Trackpoint>
            <Time>2021-08-14T07:42:00.000Z</Time>
            <Position>
              <LatitudeDegrees>43.0776841007173061370849609375</LatitudeDegrees>
              <LongitudeDegrees>-1.9131642021238803863525390625</LongitudeDegrees>
            </Position>
            <AltitudeMeters>485.600006103515625</AltitudeMeters>
            <DistanceMeters>NAN</DistanceMeters>
          </Trackpoint>
          <Trackpoint>
            <Time>2021-08-14T07:42:01.000Z</Time>
            <Position>
              <LatitudeDegrees>43.07767697609961032867431640625</LatitudeDegrees>
              <LongitudeDegrees>-1.91314919851720333099365234375</LongitudeDegrees>
            </Position>
            <AltitudeMeters>485.600006103515625</AltitudeMeters>
            <DistanceMeters>NAN</DistanceMeters>
          </Trackpoint>
          <Trackpoint>
            <Time>2021-08-14T07:42:02.000Z</Time>
            <Position>
              <LatitudeDegrees>43.077669851481914520263671875</LatitudeDegrees>
              <LongitudeDegrees>-1.913134865462779998779296875</LongitudeDegrees>
            </Position>
            <AltitudeMeters>485.79998779296875</AltitudeMeters>
            <DistanceMeters>NAN</DistanceMeters>
          </Trackpoint>
          <Trackpoint>
            <Time>2021-08-14T07:42:03.000Z</Time>
            <Position>
              <LatitudeDegrees>43.07766205631196498870849609375</LatitudeDegrees>
              <LongitudeDegrees>-1.91311852075159549713134765625</LongitudeDegrees>
            </Position>
            <AltitudeMeters>485.79998779296875</AltitudeMeters>
            <DistanceMeters>NAN</DistanceMeters>
          </Trackpoint>
          <Trackpoint>
            <Time>2021-08-14T07:42:04.000Z</Time>
            <Position>
              <LatitudeDegrees>43.0776579491794109344482421875</LatitudeDegrees>
              <LongitudeDegrees>-1.9131015054881572723388671875</LongitudeDegrees>
            </Position>
            <AltitudeMeters>486</AltitudeMeters>
            <DistanceMeters>NAN</DistanceMeters>
          </Trackpoint>
          <Trackpoint>
            <Time>2021-08-14T07:42:05.000Z</Time>
            <Position>
              <LatitudeDegrees>43.07764881290495395660400390625</LatitudeDegrees>
              <LongitudeDegrees>-1.91308583132922649383544921875</LongitudeDegrees>
            </Position>
            <AltitudeMeters>486.20001220703125</AltitudeMeters>
            <DistanceMeters>NAN</DistanceMeters>
          </Trackpoint>
          <Trackpoint>
            <Time>2021-08-14T07:42:06.000Z</Time>
            <Position>
              <LatitudeDegrees>43.0776433646678924560546875</LatitudeDegrees>
              <LongitudeDegrees>-1.9130740128457546234130859375</LongitudeDegrees>
            </Position>
            <AltitudeMeters>486.20001220703125</AltitudeMeters>
            <DistanceMeters>NAN</DistanceMeters>
          </Trackpoint>
          <Trackpoint>
            <Time>2021-08-14T07:42:07.000Z</Time>
            <Position>
              <LatitudeDegrees>43.07763774879276752471923828125</LatitudeDegrees>
              <LongitudeDegrees>-1.9130589254200458526611328125</LongitudeDegrees>
            </Position>
            <AltitudeMeters>486.399993896484375</AltitudeMeters>
            <DistanceMeters>NAN</DistanceMeters>
          </Trackpoint>
          <Trackpoint>
            <Time>2021-08-14T07:42:08.000Z</Time>
            <Position>
              <LatitudeDegrees>43.077628277242183685302734375</LatitudeDegrees>
              <LongitudeDegrees>-1.9130468554794788360595703125</LongitudeDegrees>
            </Position>
            <AltitudeMeters>486.399993896484375</AltitudeMeters>
            <DistanceMeters>NAN</DistanceMeters>
          </Trackpoint>
          <Trackpoint>
            <Time>2021-08-14T07:42:09.000Z</Time>
            <Position>
              <LatitudeDegrees>43.07761318981647491455078125</LatitudeDegrees>
              <LongitudeDegrees>-1.9130388088524341583251953125</LongitudeDegrees>
            </Position>
            <AltitudeMeters>486.399993896484375</AltitudeMeters>
            <DistanceMeters>NAN</DistanceMeters>
          </Trackpoint>
          <Trackpoint>
            <Time>2021-08-14T07:42:10.000Z</Time>
            <Position>
              <LatitudeDegrees>43.07760170660912990570068359375</LatitudeDegrees>
              <LongitudeDegrees>-1.91302849911153316497802734375</LongitudeDegrees>
            </Position>
            <AltitudeMeters>486.399993896484375</AltitudeMeters>
            <DistanceMeters>NAN</DistanceMeters>
          </Trackpoint>
          <Trackpoint>
            <Time>2021-08-14T07:42:11.000Z</Time>
            <Position>
              <LatitudeDegrees>43.077587373554706573486328125</LatitudeDegrees>
              <LongitudeDegrees>-1.9130217097699642181396484375</LongitudeDegrees>
            </Position>
            <AltitudeMeters>486.600006103515625</AltitudeMeters>
            <DistanceMeters>NAN</DistanceMeters>
          </Trackpoint>
          <Trackpoint>
            <Time>2021-08-14T07:42:12.000Z</Time>
            <Position>
              <LatitudeDegrees>43.0775724537670612335205078125</LatitudeDegrees>
              <LongitudeDegrees>-1.91301592625677585601806640625</LongitudeDegrees>
            </Position>
            <AltitudeMeters>486.79998779296875</AltitudeMeters>
            <DistanceMeters>NAN</DistanceMeters>
          </Trackpoint>
          <Trackpoint>
            <Time>2021-08-14T07:42:13.000Z</Time>
            <Position>
              <LatitudeDegrees>43.0775590427219867706298828125</LatitudeDegrees>
              <LongitudeDegrees>-1.91300100646913051605224609375</LongitudeDegrees>
            </Position>
            <AltitudeMeters>486.79998779296875</AltitudeMeters>
            <DistanceMeters>NAN</DistanceMeters>
          </Trackpoint>
          <Trackpoint>
            <Time>2021-08-14T07:42:14.000Z</Time>
            <Position>
              <LatitudeDegrees>43.07754253037273883819580078125</LatitudeDegrees>
              <LongitudeDegrees>-1.91298457793891429901123046875</LongitudeDegrees>
            </Position>
            <AltitudeMeters>486.79998779296875</AltitudeMeters>
            <DistanceMeters>NAN</DistanceMeters>
          </Trackpoint>
          <Trackpoint>
            <Time>2021-08-14T07:42:15.000Z</Time>
            <Position>
              <LatitudeDegrees>43.07752727530896663665771484375</LatitudeDegrees>
              <LongitudeDegrees>-1.91297234036028385162353515625</LongitudeDegrees>
            </Position>
            <AltitudeMeters>486.79998779296875</AltitudeMeters>
            <DistanceMeters>NAN</DistanceMeters>
          </Trackpoint>
          <Trackpoint>
            <Time>2021-08-14T07:42:16.000Z</Time>
            <Position>
              <LatitudeDegrees>43.07750866748392581939697265625</LatitudeDegrees>
              <LongitudeDegrees>-1.91296152770519256591796875</LongitudeDegrees>
            </Position>
            <AltitudeMeters>487</AltitudeMeters>
            <DistanceMeters>NAN</DistanceMeters>
          </Trackpoint>
          <Trackpoint>
            <Time>2021-08-14T07:42:17.000Z</Time>
            <Position>
              <LatitudeDegrees>43.07749358005821704864501953125</LatitudeDegrees>
              <LongitudeDegrees>-1.91294300369918346405029296875</LongitudeDegrees>
            </Position>
            <AltitudeMeters>487.20001220703125</AltitudeMeters>
            <DistanceMeters>NAN</DistanceMeters>
          </Trackpoint>
          <Trackpoint>
            <Time>2021-08-14T07:42:18.000Z</Time>
            <Position>
              <LatitudeDegrees>43.07748117484152317047119140625</LatitudeDegrees>
              <LongitudeDegrees>-1.9129285030066967010498046875</LongitudeDegrees>
            </Position>
            <AltitudeMeters>487.600006103515625</AltitudeMeters>
            <DistanceMeters>NAN</DistanceMeters>
          </Trackpoint>
          <Trackpoint>
            <Time>2021-08-14T07:42:19.000Z</Time>
            <Position>
              <LatitudeDegrees>43.077470026910305023193359375</LatitudeDegrees>
              <LongitudeDegrees>-1.912916600704193115234375</LongitudeDegrees>
            </Position>
            <AltitudeMeters>487.600006103515625</AltitudeMeters>
            <DistanceMeters>NAN</DistanceMeters>
          </Trackpoint>
          <Trackpoint>
            <Time>2021-08-14T07:42:20.000Z</Time>
            <Position>
              <LatitudeDegrees>43.0774614773690700531005859375</LatitudeDegrees>
              <LongitudeDegrees>-1.912907548248767852783203125</LongitudeDegrees>
            </Position>
            <AltitudeMeters>487.79998779296875</AltitudeMeters>
            <DistanceMeters>NAN</DistanceMeters>
          </Trackpoint>
          <Trackpoint>
            <Time>2021-08-14T07:42:21.000Z</Time>
            <Position>
              <LatitudeDegrees>43.0774514190852642059326171875</LatitudeDegrees>
              <LongitudeDegrees>-1.912899501621723175048828125</LongitudeDegrees>
            </Position>
            <AltitudeMeters>487.79998779296875</AltitudeMeters>
            <DistanceMeters>NAN</DistanceMeters>
          </Trackpoint>
          <Trackpoint>
            <Time>2021-08-14T07:42:22.000Z</Time>
            <Position>
              <LatitudeDegrees>43.07744060643017292022705078125</LatitudeDegrees>
              <LongitudeDegrees>-1.91290109418332576751708984375</LongitudeDegrees>
            </Position>
            <AltitudeMeters>487.79998779296875</AltitudeMeters>
            <DistanceMeters>NAN</DistanceMeters>
          </Trackpoint>
          <Trackpoint>
            <Time>2021-08-14T07:42:23.000Z</Time>
            <Position>
              <LatitudeDegrees>43.07742769829928874969482421875</LatitudeDegrees>
              <LongitudeDegrees>-1.91290964372456073760986328125</LongitudeDegrees>
            </Position>
            <AltitudeMeters>487.79998779296875</AltitudeMeters>
            <DistanceMeters>NAN</DistanceMeters>
          </Trackpoint>
          <Trackpoint>
            <Time>2021-08-14T07:42:24.000Z</Time>
            <Position>
              <LatitudeDegrees>43.077416718006134033203125</LatitudeDegrees>
              <LongitudeDegrees>-1.912918947637081146240234375</LongitudeDegrees>
            </Position>
            <AltitudeMeters>487.79998779296875</AltitudeMeters>
            <DistanceMeters>NAN</DistanceMeters>
          </Trackpoint>
          <Trackpoint>
            <Time>2021-08-14T07:42:25.000Z</Time>
            <Position>
              <LatitudeDegrees>43.07740758173167705535888671875</LatitudeDegrees>
              <LongitudeDegrees>-1.91292934119701385498046875</LongitudeDegrees>
            </Position>
            <AltitudeMeters>487.600006103515625</AltitudeMeters>
            <DistanceMeters>NAN</DistanceMeters>
          </Trackpoint>
          <Trackpoint>
            <Time>2021-08-14T07:42:26.000Z</Time>
            <Position>
              <LatitudeDegrees>43.07739366777241230010986328125</LatitudeDegrees>
              <LongitudeDegrees>-1.9129420816898345947265625</LongitudeDegrees>
            </Position>
            <AltitudeMeters>487.600006103515625</AltitudeMeters>
            <DistanceMeters>NAN</DistanceMeters>
          </Trackpoint>
          <Trackpoint>
            <Time>2021-08-14T07:42:27.000Z</Time>
            <Position>
              <LatitudeDegrees>43.07738109491765499114990234375</LatitudeDegrees>
              <LongitudeDegrees>-1.9129523076117038726806640625</LongitudeDegrees>
            </Position>
            <AltitudeMeters>487.600006103515625</AltitudeMeters>
            <DistanceMeters>NAN</DistanceMeters>
          </Trackpoint>
          <Trackpoint>
            <Time>2021-08-14T07:42:28.000Z</Time>
            <Position>
              <LatitudeDegrees>43.07736868970096111297607421875</LatitudeDegrees>
              <LongitudeDegrees>-1.91296295262873172760009765625</LongitudeDegrees>
            </Position>
            <AltitudeMeters>487.600006103515625</AltitudeMeters>
            <DistanceMeters>NAN</DistanceMeters>
          </Trackpoint>
          <Trackpoint>
            <Time>2021-08-14T07:42:32.000Z</Time>
            <Position>
              <LatitudeDegrees>43.07730875909328460693359375</LatitudeDegrees>
              <LongitudeDegrees>-1.91299513913691043853759765625</LongitudeDegrees>
            </Position>
            <AltitudeMeters>487.79998779296875</AltitudeMeters>
            <DistanceMeters>NAN</DistanceMeters>
          </Trackpoint>
          <Trackpoint>
            <Time>2021-08-14T07:42:33.000Z</Time>
            <Position>
              <LatitudeDegrees>43.07729308493435382843017578125</LatitudeDegrees>
              <LongitudeDegrees>-1.91299513913691043853759765625</LongitudeDegrees>
            </Position>
            <AltitudeMeters>488</AltitudeMeters>
            <DistanceMeters>NAN</DistanceMeters>
          </Trackpoint>
          <Trackpoint>
            <Time>2021-08-14T07:42:35.000Z</Time>
            <Position>
              <LatitudeDegrees>43.07725788094103336334228515625</LatitudeDegrees>
              <LongitudeDegrees>-1.91299765370786190032958984375</LongitudeDegrees>
            </Position>
            <AltitudeMeters>488.399993896484375</AltitudeMeters>
            <DistanceMeters>NAN</DistanceMeters>
          </Trackpoint>
          <Trackpoint>
            <Time>2021-08-14T07:42:36.000Z</Time>
            <Position>
              <LatitudeDegrees>43.077246062457561492919921875</LatitudeDegrees>
              <LongitudeDegrees>-1.91298809833824634552001953125</LongitudeDegrees>
            </Position>
            <AltitudeMeters>488.399993896484375</AltitudeMeters>
            <DistanceMeters>NAN</DistanceMeters>
          </Trackpoint>
          <Trackpoint>
            <Time>2021-08-14T07:42:37.000Z</Time>
            <Position>
              <LatitudeDegrees>43.07723457925021648406982421875</LatitudeDegrees>
              <LongitudeDegrees>-1.91298156045377254486083984375</LongitudeDegrees>
            </Position>
            <AltitudeMeters>488.399993896484375</AltitudeMeters>
            <DistanceMeters>NAN</DistanceMeters>
          </Trackpoint>
          <Trackpoint>
            <Time>2021-08-14T07:42:38.000Z</Time>
            <Position>
              <LatitudeDegrees>43.0772227607667446136474609375</LatitudeDegrees>
              <LongitudeDegrees>-1.91298239864408969879150390625</LongitudeDegrees>
            </Position>
            <AltitudeMeters>488.399993896484375</AltitudeMeters>
            <DistanceMeters>NAN</DistanceMeters>
          </Trackpoint>
          <Trackpoint>
            <Time>2021-08-14T07:42:39.000Z</Time>
            <Position>
              <LatitudeDegrees>43.07721127755939960479736328125</LatitudeDegrees>
              <LongitudeDegrees>-1.91298524849116802215576171875</LongitudeDegrees>
            </Position>
            <AltitudeMeters>488.600006103515625</AltitudeMeters>
            <DistanceMeters>NAN</DistanceMeters>
          </Trackpoint>
          <Trackpoint>
            <Time>2021-08-14T07:42:40.000Z</Time>
            <Position>
              <LatitudeDegrees>43.077204488217830657958984375</LatitudeDegrees>
              <LongitudeDegrees>-1.912992037832736968994140625</LongitudeDegrees>
            </Position>
            <AltitudeMeters>488.79998779296875</AltitudeMeters>
            <DistanceMeters>NAN</DistanceMeters>
          </Trackpoint>
          <Trackpoint>
            <Time>2021-08-14T07:42:41.000Z</Time>
            <Position>
              <LatitudeDegrees>43.07719786651432514190673828125</LatitudeDegrees>
              <LongitudeDegrees>-1.9130022637546062469482421875</LongitudeDegrees>
            </Position>
            <AltitudeMeters>489</AltitudeMeters>
            <DistanceMeters>NAN</DistanceMeters>
          </Trackpoint>
          <Trackpoint>
            <Time>2021-08-14T07:42:42.000Z</Time>
            <Position>
              <LatitudeDegrees>43.077188394963741302490234375</LatitudeDegrees>
              <LongitudeDegrees>-1.91301458515226840972900390625</LongitudeDegrees>
            </Position>
            <AltitudeMeters>489</AltitudeMeters>
            <DistanceMeters>NAN</DistanceMeters>
          </Trackpoint>
          <Trackpoint>
            <Time>2021-08-14T07:42:43.000Z</Time>
            <Position>
              <LatitudeDegrees>43.07718210853636264801025390625</LatitudeDegrees>
              <LongitudeDegrees>-1.9130280800163745880126953125</LongitudeDegrees>
            </Position>
            <AltitudeMeters>489.20001220703125</AltitudeMeters>
            <DistanceMeters>NAN</DistanceMeters>
          </Trackpoint>
          <Trackpoint>
            <Time>2021-08-14T07:42:44.000Z</Time>
            <Position>
              <LatitudeDegrees>43.0771728046238422393798828125</LatitudeDegrees>
              <LongitudeDegrees>-1.91303922794759273529052734375</LongitudeDegrees>
            </Position>
            <AltitudeMeters>489.399993896484375</AltitudeMeters>
            <DistanceMeters>NAN</DistanceMeters>
          </Trackpoint>
          <Trackpoint>
            <Time>2021-08-14T07:42:45.000Z</Time>
            <Position>
              <LatitudeDegrees>43.07716635055840015411376953125</LatitudeDegrees>
              <LongitudeDegrees>-1.91305062733590602874755859375</LongitudeDegrees>
            </Position>
            <AltitudeMeters>489.600006103515625</AltitudeMeters>
            <DistanceMeters>NAN</DistanceMeters>
          </Trackpoint>
          <Trackpoint>
            <Time>2021-08-14T07:42:46.000Z</Time>
            <Position>
              <LatitudeDegrees>43.07715813629329204559326171875</LatitudeDegrees>
              <LongitudeDegrees>-1.91306672058999538421630859375</LongitudeDegrees>
            </Position>
            <AltitudeMeters>489.79998779296875</AltitudeMeters>
            <DistanceMeters>NAN</DistanceMeters>
          </Trackpoint>
          <Trackpoint>
            <Time>2021-08-14T07:42:47.000Z</Time>
            <Position>
              <LatitudeDegrees>43.07714975439012050628662109375</LatitudeDegrees>
              <LongitudeDegrees>-1.91307996399700641632080078125</LongitudeDegrees>
            </Position>
            <AltitudeMeters>490.20001220703125</AltitudeMeters>
            <DistanceMeters>NAN</DistanceMeters>
          </Trackpoint>
          <Trackpoint>
            <Time>2021-08-14T07:42:49.000Z</Time>
            <Position>
              <LatitudeDegrees>43.0771335773169994354248046875</LatitudeDegrees>
              <LongitudeDegrees>-1.913112737238407135009765625</LongitudeDegrees>
            </Position>
            <AltitudeMeters>490.79998779296875</AltitudeMeters>
            <DistanceMeters>NAN</DistanceMeters>
          </Trackpoint>
          <Trackpoint>
            <Time>2021-08-14T07:42:50.000Z</Time>
            <Position>
              <LatitudeDegrees>43.07712494395673274993896484375</LatitudeDegrees>
              <LongitudeDegrees>-1.9131246395409107208251953125</LongitudeDegrees>
            </Position>
            <AltitudeMeters>490.79998779296875</AltitudeMeters>
            <DistanceMeters>NAN</DistanceMeters>
          </Trackpoint>
          <Trackpoint>
            <Time>2021-08-14T07:42:51.000Z</Time>
            <Position>
              <LatitudeDegrees>43.07711438275873661041259765625</LatitudeDegrees>
              <LongitudeDegrees>-1.91314048133790493011474609375</LongitudeDegrees>
            </Position>
            <AltitudeMeters>491.399993896484375</AltitudeMeters>
            <DistanceMeters>NAN</DistanceMeters>
          </Trackpoint>
          <Trackpoint>
            <Time>2021-08-14T07:42:52.000Z</Time>
            <Position>
              <LatitudeDegrees>43.07710818015038967132568359375</LatitudeDegrees>
              <LongitudeDegrees>-1.91315741278231143951416015625</LongitudeDegrees>
            </Position>
            <AltitudeMeters>491.79998779296875</AltitudeMeters>
            <DistanceMeters>NAN</DistanceMeters>
          </Trackpoint>
          <Trackpoint>
            <Time>2021-08-14T07:42:53.000Z</Time>
            <Position>
              <LatitudeDegrees>43.07710625231266021728515625</LatitudeDegrees>
              <LongitudeDegrees>-1.9131782837212085723876953125</LongitudeDegrees>
            </Position>
            <AltitudeMeters>492</AltitudeMeters>
            <DistanceMeters>NAN</DistanceMeters>
          </Trackpoint>
          <Trackpoint>
            <Time>2021-08-14T07:42:54.000Z</Time>
            <Position>
              <LatitudeDegrees>43.07710415683686733245849609375</LatitudeDegrees>
              <LongitudeDegrees>-1.91319513134658336639404296875</LongitudeDegrees>
            </Position>
            <AltitudeMeters>492.600006103515625</AltitudeMeters>
            <DistanceMeters>NAN</DistanceMeters>
          </Trackpoint>
          <Trackpoint>
            <Time>2021-08-14T07:42:55.000Z</Time>
            <Position>
              <LatitudeDegrees>43.077100552618503570556640625</LatitudeDegrees>
              <LongitudeDegrees>-1.9132097996771335601806640625</LongitudeDegrees>
            </Position>
            <AltitudeMeters>492.600006103515625</AltitudeMeters>
            <DistanceMeters>NAN</DistanceMeters>
          </Trackpoint>
          <Trackpoint>
            <Time>2021-08-14T07:42:56.000Z</Time>
            <Position>
              <LatitudeDegrees>43.07709820568561553955078125</LatitudeDegrees>
              <LongitudeDegrees>-1.91322379745543003082275390625</LongitudeDegrees>
            </Position>
            <AltitudeMeters>492.79998779296875</AltitudeMeters>
            <DistanceMeters>NAN</DistanceMeters>
          </Trackpoint>
          <Trackpoint>
            <Time>2021-08-14T07:42:57.000Z</Time>
            <Position>
              <LatitudeDegrees>43.07709510438144207000732421875</LatitudeDegrees>
              <LongitudeDegrees>-1.91323754377663135528564453125</LongitudeDegrees>
            </Position>
            <AltitudeMeters>493</AltitudeMeters>
            <DistanceMeters>NAN</DistanceMeters>
          </Trackpoint>
          <Trackpoint>
            <Time>2021-08-14T07:42:58.000Z</Time>
            <Position>
              <LatitudeDegrees>43.0770970322191715240478515625</LatitudeDegrees>
              <LongitudeDegrees>-1.9132540561258792877197265625</LongitudeDegrees>
            </Position>
            <AltitudeMeters>493</AltitudeMeters>
            <DistanceMeters>NAN</DistanceMeters>
          </Trackpoint>
          <Trackpoint>
            <Time>2021-08-14T07:42:59.000Z</Time>
            <Position>
              <LatitudeDegrees>43.0770963616669178009033203125</LatitudeDegrees>
              <LongitudeDegrees>-1.91327107138931751251220703125</LongitudeDegrees>
            </Position>
            <AltitudeMeters>493.20001220703125</AltitudeMeters>
            <DistanceMeters>NAN</DistanceMeters>
          </Trackpoint>
          <Trackpoint>
            <Time>2021-08-14T07:43:00.000Z</Time>
            <Position>
              <LatitudeDegrees>43.07709527201950550079345703125</LatitudeDegrees>
              <LongitudeDegrees>-1.91329135559499263763427734375</LongitudeDegrees>
            </Position>
            <AltitudeMeters>493.20001220703125</AltitudeMeters>
            <DistanceMeters>NAN</DistanceMeters>
          </Trackpoint>
          <Trackpoint>
            <Time>2021-08-14T07:43:01.000Z</Time>
            <Position>
              <LatitudeDegrees>43.07709150016307830810546875</LatitudeDegrees>
              <LongitudeDegrees>-1.9133160822093486785888671875</LongitudeDegrees>
            </Position>
            <AltitudeMeters>493.20001220703125</AltitudeMeters>
            <DistanceMeters>NAN</DistanceMeters>
          </Trackpoint>
          <Trackpoint>
            <Time>2021-08-14T07:43:02.000Z</Time>
            <Position>
              <LatitudeDegrees>43.07708521373569965362548828125</LatitudeDegrees>
              <LongitudeDegrees>-1.91334768198430538177490234375</LongitudeDegrees>
            </Position>
            <AltitudeMeters>493.20001220703125</AltitudeMeters>
            <DistanceMeters>NAN</DistanceMeters>
          </Trackpoint>
          <Trackpoint>
            <Time>2021-08-14T07:43:03.000Z</Time>
            <Position>
              <LatitudeDegrees>43.077083118259906768798828125</LatitudeDegrees>
              <LongitudeDegrees>-1.91337970085442066192626953125</LongitudeDegrees>
            </Position>
            <AltitudeMeters>493.20001220703125</AltitudeMeters>
            <DistanceMeters>NAN</DistanceMeters>
          </Trackpoint>
          <Trackpoint>
            <Time>2021-08-14T07:43:04.000Z</Time>
            <Position>
              <LatitudeDegrees>43.07708077132701873779296875</LatitudeDegrees>
              <LongitudeDegrees>-1.9134109653532505035400390625</LongitudeDegrees>
            </Position>
            <AltitudeMeters>493.20001220703125</AltitudeMeters>
            <DistanceMeters>NAN</DistanceMeters>
          </Trackpoint>
          <Trackpoint>
            <Time>2021-08-14T07:43:05.000Z</Time>
            <Position>
              <LatitudeDegrees>43.0770762450993061065673828125</LatitudeDegrees>
              <LongitudeDegrees>-1.91344432532787322998046875</LongitudeDegrees>
            </Position>
            <AltitudeMeters>493</AltitudeMeters>
            <DistanceMeters>NAN</DistanceMeters>
          </Trackpoint>
          <Trackpoint>
            <Time>2021-08-14T07:43:06.000Z</Time>
            <Position>
              <LatitudeDegrees>43.0770685337483882904052734375</LatitudeDegrees>
              <LongitudeDegrees>-1.9134766794741153717041015625</LongitudeDegrees>
            </Position>
            <AltitudeMeters>493</AltitudeMeters>
            <DistanceMeters>NAN</DistanceMeters>
          </Trackpoint>
          <Trackpoint>
            <Time>2021-08-14T07:43:07.000Z</Time>
            <Position>
              <LatitudeDegrees>43.0770641751587390899658203125</LatitudeDegrees>
              <LongitudeDegrees>-1.9134964607656002044677734375</LongitudeDegrees>
            </Position>
            <AltitudeMeters>493</AltitudeMeters>
            <DistanceMeters>NAN</DistanceMeters>
          </Trackpoint>
          <Trackpoint>
            <Time>2021-08-14T07:43:08.000Z</Time>
            <Position>
              <LatitudeDegrees>43.077063672244548797607421875</LatitudeDegrees>
              <LongitudeDegrees>-1.91351330839097499847412109375</LongitudeDegrees>
            </Position>
            <AltitudeMeters>493</AltitudeMeters>
            <DistanceMeters>NAN</DistanceMeters>
          </Trackpoint>
          <Trackpoint>
            <Time>2021-08-14T07:43:09.000Z</Time>
            <Position>
              <LatitudeDegrees>43.07706333696842193603515625</LatitudeDegrees>
              <LongitudeDegrees>-1.91352210938930511474609375</LongitudeDegrees>
            </Position>
            <AltitudeMeters>492.79998779296875</AltitudeMeters>
            <DistanceMeters>NAN</DistanceMeters>
          </Trackpoint>
          <Trackpoint>
            <Time>2021-08-14T07:43:12.000Z</Time>
            <Position>
              <LatitudeDegrees>43.077063672244548797607421875</LatitudeDegrees>
              <LongitudeDegrees>-1.91352738998830318450927734375</LongitudeDegrees>
            </Position>
            <AltitudeMeters>492</AltitudeMeters>
            <DistanceMeters>NAN</DistanceMeters>
          </Trackpoint>
          <Trackpoint>
            <Time>2021-08-14T07:43:27.000Z</Time>
            <Position>
              <LatitudeDegrees>43.077048920094966888427734375</LatitudeDegrees>
              <LongitudeDegrees>-1.91352772526443004608154296875</LongitudeDegrees>
            </Position>
            <AltitudeMeters>491.399993896484375</AltitudeMeters>
            <DistanceMeters>NAN</DistanceMeters>
          </Trackpoint>
          <Trackpoint>
            <Time>2021-08-14T07:43:28.000Z</Time>
            <Position>
              <LatitudeDegrees>43.07704263366758823394775390625</LatitudeDegrees>
              <LongitudeDegrees>-1.91354650072753429412841796875</LongitudeDegrees>
            </Position>
            <AltitudeMeters>491.399993896484375</AltitudeMeters>
            <DistanceMeters>NAN</DistanceMeters>
          </Trackpoint>
          <Trackpoint>
            <Time>2021-08-14T07:43:29.000Z</Time>
            <Position>
              <LatitudeDegrees>43.077042214572429656982421875</LatitudeDegrees>
              <LongitudeDegrees>-1.9135635159909725189208984375</LongitudeDegrees>
            </Position>
            <AltitudeMeters>491.600006103515625</AltitudeMeters>
            <DistanceMeters>NAN</DistanceMeters>
          </Trackpoint>
          <Trackpoint>
            <Time>2021-08-14T07:43:33.000Z</Time>
            <Position>
              <LatitudeDegrees>43.07701497338712215423583984375</LatitudeDegrees>
              <LongitudeDegrees>-1.91366066224873065948486328125</LongitudeDegrees>
            </Position>
            <AltitudeMeters>491.600006103515625</AltitudeMeters>
            <DistanceMeters>NAN</DistanceMeters>
          </Trackpoint>
          <Trackpoint>
            <Time>2021-08-14T07:43:35.000Z</Time>
            <Position>
              <LatitudeDegrees>43.07700508274137973785400390625</LatitudeDegrees>
              <LongitudeDegrees>-1.91371346823871135711669921875</LongitudeDegrees>
            </Position>
            <AltitudeMeters>491.600006103515625</AltitudeMeters>
            <DistanceMeters>NAN</DistanceMeters>
          </Trackpoint>
          <Trackpoint>
            <Time>2021-08-14T07:43:36.000Z</Time>
            <Position>
              <LatitudeDegrees>43.076999969780445098876953125</LatitudeDegrees>
              <LongitudeDegrees>-1.913738362491130828857421875</LongitudeDegrees>
            </Position>
            <AltitudeMeters>491.600006103515625</AltitudeMeters>
            <DistanceMeters>NAN</DistanceMeters>
          </Trackpoint>
          <Trackpoint>
            <Time>2021-08-14T07:43:37.000Z</Time>
            <Position>
              <LatitudeDegrees>43.0769927613437175750732421875</LatitudeDegrees>
              <LongitudeDegrees>-1.9137586466968059539794921875</LongitudeDegrees>
            </Position>
            <AltitudeMeters>491.600006103515625</AltitudeMeters>
            <DistanceMeters>NAN</DistanceMeters>
          </Trackpoint>
          <Trackpoint>
            <Time>2021-08-14T07:43:39.000Z</Time>
            <Position>
              <LatitudeDegrees>43.0769739858806133270263671875</LatitudeDegrees>
              <LongitudeDegrees>-1.91379494033753871917724609375</LongitudeDegrees>
            </Position>
            <AltitudeMeters>491.600006103515625</AltitudeMeters>
            <DistanceMeters>NAN</DistanceMeters>
          </Trackpoint>
          <Trackpoint>
            <Time>2021-08-14T07:43:42.000Z</Time>
            <Position>
              <LatitudeDegrees>43.076956383883953094482421875</LatitudeDegrees>
              <LongitudeDegrees>-1.91383852623403072357177734375</LongitudeDegrees>
            </Position>
            <AltitudeMeters>492.399993896484375</AltitudeMeters>
            <DistanceMeters>NAN</DistanceMeters>
          </Trackpoint>
          <Trackpoint>
            <Time>2021-08-14T07:43:43.000Z</Time>
            <Position>
              <LatitudeDegrees>43.07694775052368640899658203125</LatitudeDegrees>
              <LongitudeDegrees>-1.913858391344547271728515625</LongitudeDegrees>
            </Position>
            <AltitudeMeters>492.79998779296875</AltitudeMeters>
            <DistanceMeters>NAN</DistanceMeters>
          </Trackpoint>
          <Trackpoint>
            <Time>2021-08-14T07:43:44.000Z</Time>
            <Position>
              <LatitudeDegrees>43.07693819515407085418701171875</LatitudeDegrees>
              <LongitudeDegrees>-1.91387708298861980438232421875</LongitudeDegrees>
            </Position>
            <AltitudeMeters>492.79998779296875</AltitudeMeters>
            <DistanceMeters>NAN</DistanceMeters>
          </Trackpoint>
          <Trackpoint>
            <Time>2021-08-14T07:43:45.000Z</Time>
            <Position>
              <LatitudeDegrees>43.07692788541316986083984375</LatitudeDegrees>
              <LongitudeDegrees>-1.91389803774654865264892578125</LongitudeDegrees>
            </Position>
            <AltitudeMeters>493.20001220703125</AltitudeMeters>
            <DistanceMeters>NAN</DistanceMeters>
          </Trackpoint>
          <Trackpoint>
            <Time>2021-08-14T07:43:46.000Z</Time>
            <Position>
              <LatitudeDegrees>43.0769210122525691986083984375</LatitudeDegrees>
              <LongitudeDegrees>-1.913912706077098846435546875</LongitudeDegrees>
            </Position>
            <AltitudeMeters>493.399993896484375</AltitudeMeters>
            <DistanceMeters>NAN</DistanceMeters>
          </Trackpoint>
          <Trackpoint>
            <Time>2021-08-14T07:43:47.000Z</Time>
            <Position>
              <LatitudeDegrees>43.0769143067300319671630859375</LatitudeDegrees>
              <LongitudeDegrees>-1.913925446569919586181640625</LongitudeDegrees>
            </Position>
            <AltitudeMeters>493.600006103515625</AltitudeMeters>
            <DistanceMeters>NAN</DistanceMeters>
          </Trackpoint>
          <Trackpoint>
            <Time>2021-08-14T07:43:48.000Z</Time>
            <Position>
              <LatitudeDegrees>43.07690265588462352752685546875</LatitudeDegrees>
              <LongitudeDegrees>-1.9139457307755947113037109375</LongitudeDegrees>
            </Position>
            <AltitudeMeters>493.79998779296875</AltitudeMeters>
            <DistanceMeters>NAN</DistanceMeters>
          </Trackpoint>
          <Trackpoint>
            <Time>2021-08-14T07:43:49.000Z</Time>
            <Position>
              <LatitudeDegrees>43.0768896639347076416015625</LatitudeDegrees>
              <LongitudeDegrees>-1.91395754925906658172607421875</LongitudeDegrees>
            </Position>
            <AltitudeMeters>494</AltitudeMeters>
            <DistanceMeters>NAN</DistanceMeters>
          </Trackpoint>
          <Trackpoint>
            <Time>2021-08-14T07:43:50.000Z</Time>
            <Position>
              <LatitudeDegrees>43.07688052766025066375732421875</LatitudeDegrees>
              <LongitudeDegrees>-1.913967691361904144287109375</LongitudeDegrees>
            </Position>
            <AltitudeMeters>494.399993896484375</AltitudeMeters>
            <DistanceMeters>NAN</DistanceMeters>
          </Trackpoint>
          <Trackpoint>
            <Time>2021-08-14T07:43:51.000Z</Time>
            <Position>
              <LatitudeDegrees>43.07687398977577686309814453125</LatitudeDegrees>
              <LongitudeDegrees>-1.91397950984537601470947265625</LongitudeDegrees>
            </Position>
            <AltitudeMeters>494.399993896484375</AltitudeMeters>
            <DistanceMeters>NAN</DistanceMeters>
          </Trackpoint>
          <Trackpoint>
            <Time>2021-08-14T07:43:52.000Z</Time>
            <Position>
              <LatitudeDegrees>43.0768653564155101776123046875</LatitudeDegrees>
              <LongitudeDegrees>-1.91398940049111843109130859375</LongitudeDegrees>
            </Position>
            <AltitudeMeters>494.79998779296875</AltitudeMeters>
            <DistanceMeters>NAN</DistanceMeters>
          </Trackpoint>
          <Trackpoint>
            <Time>2021-08-14T07:43:53.000Z</Time>
            <Position>
              <LatitudeDegrees>43.07685412466526031494140625</LatitudeDegrees>
              <LongitudeDegrees>-1.9140033982694149017333984375</LongitudeDegrees>
            </Position>
            <AltitudeMeters>495.20001220703125</AltitudeMeters>
            <DistanceMeters>NAN</DistanceMeters>
          </Trackpoint>
          <Trackpoint>
            <Time>2021-08-14T07:43:54.000Z</Time>
            <Position>
              <LatitudeDegrees>43.07684264145791530609130859375</LatitudeDegrees>
              <LongitudeDegrees>-1.91402091644704341888427734375</LongitudeDegrees>
            </Position>
            <AltitudeMeters>495.399993896484375</AltitudeMeters>
            <DistanceMeters>NAN</DistanceMeters>
          </Trackpoint>
          <Trackpoint>
            <Time>2021-08-14T07:43:55.000Z</Time>
            <Position>
              <LatitudeDegrees>43.0768375284969806671142578125</LatitudeDegrees>
              <LongitudeDegrees>-1.91403709352016448974609375</LongitudeDegrees>
            </Position>
            <AltitudeMeters>496</AltitudeMeters>
            <DistanceMeters>NAN</DistanceMeters>
          </Trackpoint>
          <Trackpoint>
            <Time>2021-08-14T07:43:56.000Z</Time>
            <Position>
              <LatitudeDegrees>43.0768338404595851898193359375</LatitudeDegrees>
              <LongitudeDegrees>-1.9140565395355224609375</LongitudeDegrees>
            </Position>
            <AltitudeMeters>496.20001220703125</AltitudeMeters>
            <DistanceMeters>NAN</DistanceMeters>
          </Trackpoint>
          <Trackpoint>
            <Time>2021-08-14T07:43:57.000Z</Time>
            <Position>
              <LatitudeDegrees>43.0768294818699359893798828125</LatitudeDegrees>
              <LongitudeDegrees>-1.91407271660864353179931640625</LongitudeDegrees>
            </Position>
            <AltitudeMeters>496.79998779296875</AltitudeMeters>
            <DistanceMeters>NAN</DistanceMeters>
          </Trackpoint>
          <Trackpoint>
            <Time>2021-08-14T07:43:58.000Z</Time>
            <Position>
              <LatitudeDegrees>43.07682705111801624298095703125</LatitudeDegrees>
              <LongitudeDegrees>-1.9140865467488765716552734375</LongitudeDegrees>
            </Position>
            <AltitudeMeters>496.79998779296875</AltitudeMeters>
            <DistanceMeters>NAN</DistanceMeters>
          </Trackpoint>
          <Trackpoint>
            <Time>2021-08-14T07:43:59.000Z</Time>
            <Position>
              <LatitudeDegrees>43.0768207646906375885009765625</LatitudeDegrees>
              <LongitudeDegrees>-1.91410280764102935791015625</LongitudeDegrees>
            </Position>
            <AltitudeMeters>497.399993896484375</AltitudeMeters>
            <DistanceMeters>NAN</DistanceMeters>
          </Trackpoint>
          <Trackpoint>
            <Time>2021-08-14T07:44:00.000Z</Time>
            <Position>
              <LatitudeDegrees>43.07681313715875148773193359375</LatitudeDegrees>
              <LongitudeDegrees>-1.9141170568764209747314453125</LongitudeDegrees>
            </Position>
            <AltitudeMeters>497.79998779296875</AltitudeMeters>
            <DistanceMeters>NAN</DistanceMeters>
          </Trackpoint>
          <Trackpoint>
            <Time>2021-08-14T07:44:01.000Z</Time>
            <Position>
              <LatitudeDegrees>43.07680710218846797943115234375</LatitudeDegrees>
              <LongitudeDegrees>-1.91413256339728832244873046875</LongitudeDegrees>
            </Position>
            <AltitudeMeters>498</AltitudeMeters>
            <DistanceMeters>NAN</DistanceMeters>
          </Trackpoint>
          <Trackpoint>
            <Time>2021-08-14T07:44:02.000Z</Time>
            <Position>
              <LatitudeDegrees>43.07679888792335987091064453125</LatitudeDegrees>
              <LongitudeDegrees>-1.91415603272616863250732421875</LongitudeDegrees>
            </Position>
            <AltitudeMeters>498.399993896484375</AltitudeMeters>
            <DistanceMeters>NAN</DistanceMeters>
          </Trackpoint>
          <Trackpoint>
            <Time>2021-08-14T07:44:03.000Z</Time>
            <Position>
              <LatitudeDegrees>43.07679318822920322418212890625</LatitudeDegrees>
              <LongitudeDegrees>-1.91416961140930652618408203125</LongitudeDegrees>
            </Position>
            <AltitudeMeters>498.79998779296875</AltitudeMeters>
            <DistanceMeters>NAN</DistanceMeters>
          </Trackpoint>
          <Trackpoint>
            <Time>2021-08-14T07:44:04.000Z</Time>
            <Position>
              <LatitudeDegrees>43.076786063611507415771484375</LatitudeDegrees>
              <LongitudeDegrees>-1.91418721340596675872802734375</LongitudeDegrees>
            </Position>
            <AltitudeMeters>499.20001220703125</AltitudeMeters>
            <DistanceMeters>NAN</DistanceMeters>
          </Trackpoint>
          <Trackpoint>
            <Time>2021-08-14T07:44:05.000Z</Time>
            <Position>
              <LatitudeDegrees>43.0767758376896381378173828125</LatitudeDegrees>
              <LongitudeDegrees>-1.91420615650713443756103515625</LongitudeDegrees>
            </Position>
            <AltitudeMeters>499.399993896484375</AltitudeMeters>
            <DistanceMeters>NAN</DistanceMeters>
          </Trackpoint>
          <Trackpoint>
            <Time>2021-08-14T07:44:06.000Z</Time>
            <Position>
              <LatitudeDegrees>43.07676871307194232940673828125</LatitudeDegrees>
              <LongitudeDegrees>-1.91422224976122379302978515625</LongitudeDegrees>
            </Position>
            <AltitudeMeters>500</AltitudeMeters>
            <DistanceMeters>NAN</DistanceMeters>
          </Trackpoint>
          <Trackpoint>
            <Time>2021-08-14T07:44:07.000Z</Time>
            <Position>
              <LatitudeDegrees>43.07676116935908794403076171875</LatitudeDegrees>
              <LongitudeDegrees>-1.91423582844436168670654296875</LongitudeDegrees>
            </Position>
            <AltitudeMeters>500.399993896484375</AltitudeMeters>
            <DistanceMeters>NAN</DistanceMeters>
          </Trackpoint>
          <Trackpoint>
            <Time>2021-08-14T07:44:08.000Z</Time>
            <Position>
              <LatitudeDegrees>43.076753206551074981689453125</LatitudeDegrees>
              <LongitudeDegrees>-1.91425032913684844970703125</LongitudeDegrees>
            </Position>
            <AltitudeMeters>500.600006103515625</AltitudeMeters>
            <DistanceMeters>NAN</DistanceMeters>
          </Trackpoint>
          <Trackpoint>
            <Time>2021-08-14T07:44:09.000Z</Time>
            <Position>
              <LatitudeDegrees>43.07674574665725231170654296875</LatitudeDegrees>
              <LongitudeDegrees>-1.91426499746739864349365234375</LongitudeDegrees>
            </Position>
            <AltitudeMeters>501</AltitudeMeters>
            <DistanceMeters>NAN</DistanceMeters>
          </Trackpoint>
          <Trackpoint>
            <Time>2021-08-14T07:44:10.000Z</Time>
            <Position>
              <LatitudeDegrees>43.07673803530633449554443359375</LatitudeDegrees>
              <LongitudeDegrees>-1.9142793305218219757080078125</LongitudeDegrees>
            </Position>
            <AltitudeMeters>501</AltitudeMeters>
            <DistanceMeters>NAN</DistanceMeters>
          </Trackpoint>
          <Trackpoint>
            <Time>2021-08-14T07:44:11.000Z</Time>
            <Position>
              <LatitudeDegrees>43.07672948576509952545166015625</LatitudeDegrees>
              <LongitudeDegrees>-1.9142944179475307464599609375</LongitudeDegrees>
            </Position>
            <AltitudeMeters>501.399993896484375</AltitudeMeters>
            <DistanceMeters>NAN</DistanceMeters>
          </Trackpoint>
          <Trackpoint>
            <Time>2021-08-14T07:44:12.000Z</Time>
            <Position>
              <LatitudeDegrees>43.07672546245157718658447265625</LatitudeDegrees>
              <LongitudeDegrees>-1.91430774517357349395751953125</LongitudeDegrees>
            </Position>
            <AltitudeMeters>501.600006103515625</AltitudeMeters>
            <DistanceMeters>NAN</DistanceMeters>
          </Trackpoint>
          <Trackpoint>
            <Time>2021-08-14T07:44:13.000Z</Time>
            <Position>
              <LatitudeDegrees>43.0767206847667694091796875</LatitudeDegrees>
              <LongitudeDegrees>-1.914321072399616241455078125</LongitudeDegrees>
            </Position>
            <AltitudeMeters>501.79998779296875</AltitudeMeters>
            <DistanceMeters>NAN</DistanceMeters>
          </Trackpoint>
          <Trackpoint>
            <Time>2021-08-14T07:44:14.000Z</Time>
            <Position>
              <LatitudeDegrees>43.07671221904456615447998046875</LatitudeDegrees>
              <LongitudeDegrees>-1.9143341481685638427734375</LongitudeDegrees>
            </Position>
            <AltitudeMeters>502</AltitudeMeters>
            <DistanceMeters>NAN</DistanceMeters>
          </Trackpoint>
          <Trackpoint>
            <Time>2021-08-14T07:44:15.000Z</Time>
            <Position>
              <LatitudeDegrees>43.0767061002552509307861328125</LatitudeDegrees>
              <LongitudeDegrees>-1.91434613429009914398193359375</LongitudeDegrees>
            </Position>
            <AltitudeMeters>502.20001220703125</AltitudeMeters>
            <DistanceMeters>NAN</DistanceMeters>
          </Trackpoint>
          <Trackpoint>
            <Time>2021-08-14T07:44:16.000Z</Time>
            <Position>
              <LatitudeDegrees>43.07670132257044315338134765625</LatitudeDegrees>
              <LongitudeDegrees>-1.91436088643968105316162109375</LongitudeDegrees>
            </Position>
            <AltitudeMeters>502.20001220703125</AltitudeMeters>
            <DistanceMeters>NAN</DistanceMeters>
          </Trackpoint>
          <Trackpoint>
            <Time>2021-08-14T07:44:17.000Z</Time>
            <Position>
              <LatitudeDegrees>43.07669428177177906036376953125</LatitudeDegrees>
              <LongitudeDegrees>-1.91438117064535617828369140625</LongitudeDegrees>
            </Position>
            <AltitudeMeters>502.399993896484375</AltitudeMeters>
            <DistanceMeters>NAN</DistanceMeters>
          </Trackpoint>
          <Trackpoint>
            <Time>2021-08-14T07:44:18.000Z</Time>
            <Position>
              <LatitudeDegrees>43.07668305002152919769287109375</LatitudeDegrees>
              <LongitudeDegrees>-1.9143980182707309722900390625</LongitudeDegrees>
            </Position>
            <AltitudeMeters>502.600006103515625</AltitudeMeters>
            <DistanceMeters>NAN</DistanceMeters>
          </Trackpoint>
          <Trackpoint>
            <Time>2021-08-14T07:44:19.000Z</Time>
            <Position>
              <LatitudeDegrees>43.07667198590934276580810546875</LatitudeDegrees>
              <LongitudeDegrees>-1.91441059112548828125</LongitudeDegrees>
            </Position>
            <AltitudeMeters>503</AltitudeMeters>
            <DistanceMeters>NAN</DistanceMeters>
          </Trackpoint>
          <Trackpoint>
            <Time>2021-08-14T07:44:20.000Z</Time>
            <Position>
              <LatitudeDegrees>43.07665958069264888763427734375</LatitudeDegrees>
              <LongitudeDegrees>-1.9144255109131336212158203125</LongitudeDegrees>
            </Position>
            <AltitudeMeters>503</AltitudeMeters>
            <DistanceMeters>NAN</DistanceMeters>
          </Trackpoint>
          <Trackpoint>
            <Time>2021-08-14T07:44:21.000Z</Time>
            <Position>
              <LatitudeDegrees>43.0766497738659381866455078125</LatitudeDegrees>
              <LongitudeDegrees>-1.91444671712815761566162109375</LongitudeDegrees>
            </Position>
            <AltitudeMeters>503.399993896484375</AltitudeMeters>
            <DistanceMeters>NAN</DistanceMeters>
          </Trackpoint>
          <Trackpoint>
            <Time>2021-08-14T07:44:22.000Z</Time>
            <Position>
              <LatitudeDegrees>43.07664315216243267059326171875</LatitudeDegrees>
              <LongitudeDegrees>-1.91446515731513500213623046875</LongitudeDegrees>
            </Position>
            <AltitudeMeters>503.600006103515625</AltitudeMeters>
            <DistanceMeters>NAN</DistanceMeters>
          </Trackpoint>
          <Trackpoint>
            <Time>2021-08-14T07:44:23.000Z</Time>
            <Position>
              <LatitudeDegrees>43.07663686573505401611328125</LatitudeDegrees>
              <LongitudeDegrees>-1.91447873599827289581298828125</LongitudeDegrees>
            </Position>
            <AltitudeMeters>504</AltitudeMeters>
            <DistanceMeters>NAN</DistanceMeters>
          </Trackpoint>
          <Trackpoint>
            <Time>2021-08-14T07:44:24.000Z</Time>
            <Position>
              <LatitudeDegrees>43.076629824936389923095703125</LatitudeDegrees>
              <LongitudeDegrees>-1.9144922308623790740966796875</LongitudeDegrees>
            </Position>
            <AltitudeMeters>504.20001220703125</AltitudeMeters>
            <DistanceMeters>NAN</DistanceMeters>
          </Trackpoint>
          <Trackpoint>
            <Time>2021-08-14T07:44:25.000Z</Time>
            <Position>
              <LatitudeDegrees>43.0766212753951549530029296875</LatitudeDegrees>
              <LongitudeDegrees>-1.914508827030658721923828125</LongitudeDegrees>
            </Position>
            <AltitudeMeters>504.399993896484375</AltitudeMeters>
            <DistanceMeters>NAN</DistanceMeters>
          </Trackpoint>
          <Trackpoint>
            <Time>2021-08-14T07:44:26.000Z</Time>
            <Position>
              <LatitudeDegrees>43.0766135640442371368408203125</LatitudeDegrees>
              <LongitudeDegrees>-1.9145254231989383697509765625</LongitudeDegrees>
            </Position>
            <AltitudeMeters>504.79998779296875</AltitudeMeters>
            <DistanceMeters>NAN</DistanceMeters>
          </Trackpoint>
          <Trackpoint>
            <Time>2021-08-14T07:44:27.000Z</Time>
            <Position>
              <LatitudeDegrees>43.0766055174171924591064453125</LatitudeDegrees>
              <LongitudeDegrees>-1.91454210318624973297119140625</LongitudeDegrees>
            </Position>
            <AltitudeMeters>504.79998779296875</AltitudeMeters>
            <DistanceMeters>NAN</DistanceMeters>
          </Trackpoint>
          <Trackpoint>
            <Time>2021-08-14T07:44:28.000Z</Time>
            <Position>
              <LatitudeDegrees>43.07659621350467205047607421875</LatitudeDegrees>
              <LongitudeDegrees>-1.91455802880227565765380859375</LongitudeDegrees>
            </Position>
            <AltitudeMeters>505.20001220703125</AltitudeMeters>
            <DistanceMeters>NAN</DistanceMeters>
          </Trackpoint>
          <Trackpoint>
            <Time>2021-08-14T07:44:29.000Z</Time>
            <Position>
              <LatitudeDegrees>43.07659017853438854217529296875</LatitudeDegrees>
              <LongitudeDegrees>-1.914570517838001251220703125</LongitudeDegrees>
            </Position>
            <AltitudeMeters>505.20001220703125</AltitudeMeters>
            <DistanceMeters>NAN</DistanceMeters>
          </Trackpoint>
          <Trackpoint>
            <Time>2021-08-14T07:44:30.000Z</Time>
            <Position>
              <LatitudeDegrees>43.07658514939248561859130859375</LatitudeDegrees>
              <LongitudeDegrees>-1.91458158195018768310546875</LongitudeDegrees>
            </Position>
            <AltitudeMeters>505.79998779296875</AltitudeMeters>
            <DistanceMeters>NAN</DistanceMeters>
          </Trackpoint>
          <Trackpoint>
            <Time>2021-08-14T07:44:31.000Z</Time>
            <Position>
              <LatitudeDegrees>43.07657911442220211029052734375</LatitudeDegrees>
              <LongitudeDegrees>-1.91459440626204013824462890625</LongitudeDegrees>
            </Position>
            <AltitudeMeters>506</AltitudeMeters>
            <DistanceMeters>NAN</DistanceMeters>
          </Trackpoint>
          <Trackpoint>
            <Time>2021-08-14T07:44:32.000Z</Time>
            <Position>
              <LatitudeDegrees>43.07657182216644287109375</LatitudeDegrees>
              <LongitudeDegrees>-1.914609409868717193603515625</LongitudeDegrees>
            </Position>
            <AltitudeMeters>506.20001220703125</AltitudeMeters>
            <DistanceMeters>NAN</DistanceMeters>
          </Trackpoint>
          <Trackpoint>
            <Time>2021-08-14T07:44:33.000Z</Time>
            <Position>
              <LatitudeDegrees>43.07656469754874706268310546875</LatitudeDegrees>
              <LongitudeDegrees>-1.91462541930377483367919921875</LongitudeDegrees>
            </Position>
            <AltitudeMeters>506.399993896484375</AltitudeMeters>
            <DistanceMeters>NAN</DistanceMeters>
          </Trackpoint>
          <Trackpoint>
            <Time>2021-08-14T07:44:34.000Z</Time>
            <Position>
              <LatitudeDegrees>43.07656134478747844696044921875</LatitudeDegrees>
              <LongitudeDegrees>-1.91463866271078586578369140625</LongitudeDegrees>
            </Position>
            <AltitudeMeters>506.600006103515625</AltitudeMeters>
            <DistanceMeters>NAN</DistanceMeters>
          </Trackpoint>
          <Trackpoint>
            <Time>2021-08-14T07:44:35.000Z</Time>
            <Position>
              <LatitudeDegrees>43.0765565671026706695556640625</LatitudeDegrees>
              <LongitudeDegrees>-1.91465391777455806732177734375</LongitudeDegrees>
            </Position>
            <AltitudeMeters>506.79998779296875</AltitudeMeters>
            <DistanceMeters>NAN</DistanceMeters>
          </Trackpoint>
          <Trackpoint>
            <Time>2021-08-14T07:44:36.000Z</Time>
            <Position>
              <LatitudeDegrees>43.07655363343656063079833984375</LatitudeDegrees>
              <LongitudeDegrees>-1.91466582007706165313720703125</LongitudeDegrees>
            </Position>
            <AltitudeMeters>507.20001220703125</AltitudeMeters>
            <DistanceMeters>NAN</DistanceMeters>
          </Trackpoint>
          <Trackpoint>
            <Time>2021-08-14T07:44:37.000Z</Time>
            <Position>
              <LatitudeDegrees>43.07655011303722858428955078125</LatitudeDegrees>
              <LongitudeDegrees>-1.91467520780861377716064453125</LongitudeDegrees>
            </Position>
            <AltitudeMeters>507.600006103515625</AltitudeMeters>
            <DistanceMeters>NAN</DistanceMeters>
          </Trackpoint>
          <Trackpoint>
            <Time>2021-08-14T07:44:38.000Z</Time>
            <Position>
              <LatitudeDegrees>43.07654525153338909149169921875</LatitudeDegrees>
              <LongitudeDegrees>-1.91468350589275360107421875</LongitudeDegrees>
            </Position>
            <AltitudeMeters>507.79998779296875</AltitudeMeters>
            <DistanceMeters>NAN</DistanceMeters>
          </Trackpoint>
          <Trackpoint>
            <Time>2021-08-14T07:44:39.000Z</Time>
            <Position>
              <LatitudeDegrees>43.07654022239148616790771484375</LatitudeDegrees>
              <LongitudeDegrees>-1.9146947376430034637451171875</LongitudeDegrees>
            </Position>
            <AltitudeMeters>508</AltitudeMeters>
            <DistanceMeters>NAN</DistanceMeters>
          </Trackpoint>
          <Trackpoint>
            <Time>2021-08-14T07:44:40.000Z</Time>
            <Position>
              <LatitudeDegrees>43.07653418742120265960693359375</LatitudeDegrees>
              <LongitudeDegrees>-1.9147024489939212799072265625</LongitudeDegrees>
            </Position>
            <AltitudeMeters>508.399993896484375</AltitudeMeters>
            <DistanceMeters>NAN</DistanceMeters>
          </Trackpoint>
          <Trackpoint>
            <Time>2021-08-14T07:44:41.000Z</Time>
            <Position>
              <LatitudeDegrees>43.07652848772704601287841796875</LatitudeDegrees>
              <LongitudeDegrees>-1.914713680744171142578125</LongitudeDegrees>
            </Position>
            <AltitudeMeters>508.600006103515625</AltitudeMeters>
            <DistanceMeters>NAN</DistanceMeters>
          </Trackpoint>
          <Trackpoint>
            <Time>2021-08-14T07:44:42.000Z</Time>
            <Position>
              <LatitudeDegrees>43.076520524919033050537109375</LatitudeDegrees>
              <LongitudeDegrees>-1.9147252477705478668212890625</LongitudeDegrees>
            </Position>
            <AltitudeMeters>508.79998779296875</AltitudeMeters>
            <DistanceMeters>NAN</DistanceMeters>
          </Trackpoint>
          <Trackpoint>
            <Time>2021-08-14T07:44:43.000Z</Time>
            <Position>
              <LatitudeDegrees>43.0765168368816375732421875</LatitudeDegrees>
              <LongitudeDegrees>-1.9147359766066074371337890625</LongitudeDegrees>
            </Position>
            <AltitudeMeters>509</AltitudeMeters>
            <DistanceMeters>NAN</DistanceMeters>
          </Trackpoint>
          <Trackpoint>
            <Time>2021-08-14T07:44:44.000Z</Time>
            <Position>
              <LatitudeDegrees>43.07651189155876636505126953125</LatitudeDegrees>
              <LongitudeDegrees>-1.91474611870944499969482421875</LongitudeDegrees>
            </Position>
            <AltitudeMeters>509.20001220703125</AltitudeMeters>
            <DistanceMeters>NAN</DistanceMeters>
          </Trackpoint>
          <Trackpoint>
            <Time>2021-08-14T07:44:45.000Z</Time>
            <Position>
              <LatitudeDegrees>43.07650686241686344146728515625</LatitudeDegrees>
              <LongitudeDegrees>-1.9147547520697116851806640625</LongitudeDegrees>
            </Position>
            <AltitudeMeters>509.399993896484375</AltitudeMeters>
            <DistanceMeters>NAN</DistanceMeters>
          </Trackpoint>
          <Trackpoint>
            <Time>2021-08-14T07:44:46.000Z</Time>
            <Position>
              <LatitudeDegrees>43.07649739086627960205078125</LatitudeDegrees>
              <LongitudeDegrees>-1.91476799547672271728515625</LongitudeDegrees>
            </Position>
            <AltitudeMeters>509.600006103515625</AltitudeMeters>
            <DistanceMeters>NAN</DistanceMeters>
          </Trackpoint>
          <Trackpoint>
            <Time>2021-08-14T07:44:47.000Z</Time>
            <Position>
              <LatitudeDegrees>43.0764846503734588623046875</LatitudeDegrees>
              <LongitudeDegrees>-1.91478501074016094207763671875</LongitudeDegrees>
            </Position>
            <AltitudeMeters>509.600006103515625</AltitudeMeters>
            <DistanceMeters>NAN</DistanceMeters>
          </Trackpoint>
          <Trackpoint>
            <Time>2021-08-14T07:44:48.000Z</Time>
            <Position>
              <LatitudeDegrees>43.076476268470287322998046875</LatitudeDegrees>
              <LongitudeDegrees>-1.9147980026900768280029296875</LongitudeDegrees>
            </Position>
            <AltitudeMeters>509.79998779296875</AltitudeMeters>
            <DistanceMeters>NAN</DistanceMeters>
          </Trackpoint>
          <Trackpoint>
            <Time>2021-08-14T07:44:49.000Z</Time>
            <Position>
              <LatitudeDegrees>43.07646713219583034515380859375</LatitudeDegrees>
              <LongitudeDegrees>-1.91481015644967555999755859375</LongitudeDegrees>
            </Position>
            <AltitudeMeters>510</AltitudeMeters>
            <DistanceMeters>NAN</DistanceMeters>
          </Trackpoint>
          <Trackpoint>
            <Time>2021-08-14T07:44:50.000Z</Time>
            <Position>
              <LatitudeDegrees>43.07646361179649829864501953125</LatitudeDegrees>
              <LongitudeDegrees>-1.91482222639024257659912109375</LongitudeDegrees>
            </Position>
            <AltitudeMeters>510</AltitudeMeters>
            <DistanceMeters>NAN</DistanceMeters>
          </Trackpoint>
          <Trackpoint>
            <Time>2021-08-14T07:44:51.000Z</Time>
            <Position>
              <LatitudeDegrees>43.07645908556878566741943359375</LatitudeDegrees>
              <LongitudeDegrees>-1.91483546979725360870361328125</LongitudeDegrees>
            </Position>
            <AltitudeMeters>510.20001220703125</AltitudeMeters>
            <DistanceMeters>NAN</DistanceMeters>
          </Trackpoint>
          <Trackpoint>
            <Time>2021-08-14T07:44:52.000Z</Time>
            <Position>
              <LatitudeDegrees>43.07645380496978759765625</LatitudeDegrees>
              <LongitudeDegrees>-1.91484653390944004058837890625</LongitudeDegrees>
            </Position>
            <AltitudeMeters>510.399993896484375</AltitudeMeters>
            <DistanceMeters>NAN</DistanceMeters>
          </Trackpoint>
          <Trackpoint>
            <Time>2021-08-14T07:44:53.000Z</Time>
            <Position>
              <LatitudeDegrees>43.07644701562821865081787109375</LatitudeDegrees>
              <LongitudeDegrees>-1.91485960967838764190673828125</LongitudeDegrees>
            </Position>
            <AltitudeMeters>510.600006103515625</AltitudeMeters>
            <DistanceMeters>NAN</DistanceMeters>
          </Trackpoint>
          <Trackpoint>
            <Time>2021-08-14T07:44:54.000Z</Time>
            <Position>
              <LatitudeDegrees>43.0764388851821422576904296875</LatitudeDegrees>
              <LongitudeDegrees>-1.91487184725701808929443359375</LongitudeDegrees>
            </Position>
            <AltitudeMeters>511</AltitudeMeters>
            <DistanceMeters>NAN</DistanceMeters>
          </Trackpoint>
          <Trackpoint>
            <Time>2021-08-14T07:44:55.000Z</Time>
            <Position>
              <LatitudeDegrees>43.0764328502118587493896484375</LatitudeDegrees>
              <LongitudeDegrees>-1.91488492302596569061279296875</LongitudeDegrees>
            </Position>
            <AltitudeMeters>511</AltitudeMeters>
            <DistanceMeters>NAN</DistanceMeters>
          </Trackpoint>
          <Trackpoint>
            <Time>2021-08-14T07:44:56.000Z</Time>
            <Position>
              <LatitudeDegrees>43.0764268152415752410888671875</LatitudeDegrees>
              <LongitudeDegrees>-1.91489464603364467620849609375</LongitudeDegrees>
            </Position>
            <AltitudeMeters>511.399993896484375</AltitudeMeters>
            <DistanceMeters>NAN</DistanceMeters>
          </Trackpoint>
          <Trackpoint>
            <Time>2021-08-14T07:44:57.000Z</Time>
            <Position>
              <LatitudeDegrees>43.0764170922338962554931640625</LatitudeDegrees>
              <LongitudeDegrees>-1.9149081408977508544921875</LongitudeDegrees>
            </Position>
            <AltitudeMeters>511.600006103515625</AltitudeMeters>
            <DistanceMeters>NAN</DistanceMeters>
          </Trackpoint>
          <Trackpoint>
            <Time>2021-08-14T07:44:58.000Z</Time>
            <Position>
              <LatitudeDegrees>43.0764013342559337615966796875</LatitudeDegrees>
              <LongitudeDegrees>-1.91492683254182338714599609375</LongitudeDegrees>
            </Position>
            <AltitudeMeters>511.79998779296875</AltitudeMeters>
            <DistanceMeters>NAN</DistanceMeters>
          </Trackpoint>
          <Trackpoint>
            <Time>2021-08-14T07:44:59.000Z</Time>
            <Position>
              <LatitudeDegrees>43.07639555074274539947509765625</LatitudeDegrees>
              <LongitudeDegrees>-1.9149428419768810272216796875</LongitudeDegrees>
            </Position>
            <AltitudeMeters>511.79998779296875</AltitudeMeters>
            <DistanceMeters>NAN</DistanceMeters>
          </Trackpoint>
          <Trackpoint>
            <Time>2021-08-14T07:45:00.000Z</Time>
            <Position>
              <LatitudeDegrees>43.0763926170766353607177734375</LatitudeDegrees>
              <LongitudeDegrees>-1.91495231352746486663818359375</LongitudeDegrees>
            </Position>
            <AltitudeMeters>512.20001220703125</AltitudeMeters>
            <DistanceMeters>NAN</DistanceMeters>
          </Trackpoint>
          <Trackpoint>
            <Time>2021-08-14T07:45:01.000Z</Time>
            <Position>
              <LatitudeDegrees>43.07639001868665218353271484375</LatitudeDegrees>
              <LongitudeDegrees>-1.9149602763354778289794921875</LongitudeDegrees>
            </Position>
            <AltitudeMeters>512.4000244140625</AltitudeMeters>
            <DistanceMeters>NAN</DistanceMeters>
          </Trackpoint>
          <Trackpoint>
            <Time>2021-08-14T07:45:02.000Z</Time>
            <Position>
              <LatitudeDegrees>43.07638599537312984466552734375</LatitudeDegrees>
              <LongitudeDegrees>-1.914973519742488861083984375</LongitudeDegrees>
            </Position>
            <AltitudeMeters>512.4000244140625</AltitudeMeters>
            <DistanceMeters>NAN</DistanceMeters>
          </Trackpoint>
          <Trackpoint>
            <Time>2021-08-14T07:45:03.000Z</Time>
            <Position>
              <LatitudeDegrees>43.07638515718281269073486328125</LatitudeDegrees>
              <LongitudeDegrees>-1.91498651169240474700927734375</LongitudeDegrees>
            </Position>
            <AltitudeMeters>512.5999755859375</AltitudeMeters>
            <DistanceMeters>NAN</DistanceMeters>
          </Trackpoint>
          <Trackpoint>
            <Time>2021-08-14T07:45:04.000Z</Time>
            <Position>
              <LatitudeDegrees>43.0763805471360683441162109375</LatitudeDegrees>
              <LongitudeDegrees>-1.91499372012913227081298828125</LongitudeDegrees>
            </Position>
            <AltitudeMeters>512.79998779296875</AltitudeMeters>
            <DistanceMeters>NAN</DistanceMeters>
          </Trackpoint>
          <Trackpoint>
            <Time>2021-08-14T07:45:05.000Z</Time>
            <Position>
              <LatitudeDegrees>43.07637266814708709716796875</LatitudeDegrees>
              <LongitudeDegrees>-1.9150028564035892486572265625</LongitudeDegrees>
            </Position>
            <AltitudeMeters>513</AltitudeMeters>
            <DistanceMeters>NAN</DistanceMeters>
          </Trackpoint>
          <Trackpoint>
            <Time>2021-08-14T07:45:06.000Z</Time>
            <Position>
              <LatitudeDegrees>43.0763621069490909576416015625</LatitudeDegrees>
              <LongitudeDegrees>-1.91501836292445659637451171875</LongitudeDegrees>
            </Position>
            <AltitudeMeters>513</AltitudeMeters>
            <DistanceMeters>NAN</DistanceMeters>
          </Trackpoint>
          <Trackpoint>
            <Time>2021-08-14T07:45:07.000Z</Time>
            <Position>
              <LatitudeDegrees>43.0763505399227142333984375</LatitudeDegrees>
              <LongitudeDegrees>-1.9150323607027530670166015625</LongitudeDegrees>
            </Position>
            <AltitudeMeters>513.20001220703125</AltitudeMeters>
            <DistanceMeters>NAN</DistanceMeters>
          </Trackpoint>
          <Trackpoint>
            <Time>2021-08-14T07:45:08.000Z</Time>
            <Position>
              <LatitudeDegrees>43.07634450495243072509765625</LatitudeDegrees>
              <LongitudeDegrees>-1.91504895687103271484375</LongitudeDegrees>
            </Position>
            <AltitudeMeters>513.5999755859375</AltitudeMeters>
            <DistanceMeters>NAN</DistanceMeters>
          </Trackpoint>
          <Trackpoint>
            <Time>2021-08-14T07:45:09.000Z</Time>
            <Position>
              <LatitudeDegrees>43.0763446725904941558837890625</LatitudeDegrees>
              <LongitudeDegrees>-1.915062032639980316162109375</LongitudeDegrees>
            </Position>
            <AltitudeMeters>513.79998779296875</AltitudeMeters>
            <DistanceMeters>NAN</DistanceMeters>
          </Trackpoint>
          <Trackpoint>
            <Time>2021-08-14T07:45:10.000Z</Time>
            <Position>
              <LatitudeDegrees>43.07634324766695499420166015625</LatitudeDegrees>
              <LongitudeDegrees>-1.91508374176919460296630859375</LongitudeDegrees>
            </Position>
            <AltitudeMeters>513.79998779296875</AltitudeMeters>
            <DistanceMeters>NAN</DistanceMeters>
          </Trackpoint>
          <Trackpoint>
            <Time>2021-08-14T07:45:11.000Z</Time>
            <Position>
              <LatitudeDegrees>43.0763406492769718170166015625</LatitudeDegrees>
              <LongitudeDegrees>-1.91510469652712345123291015625</LongitudeDegrees>
            </Position>
            <AltitudeMeters>514</AltitudeMeters>
            <DistanceMeters>NAN</DistanceMeters>
          </Trackpoint>
          <Trackpoint>
            <Time>2021-08-14T07:45:12.000Z</Time>
            <Position>
              <LatitudeDegrees>43.07632883079349994659423828125</LatitudeDegrees>
              <LongitudeDegrees>-1.9151191972196102142333984375</LongitudeDegrees>
            </Position>
            <AltitudeMeters>514.4000244140625</AltitudeMeters>
            <DistanceMeters>NAN</DistanceMeters>
          </Trackpoint>
          <Trackpoint>
            <Time>2021-08-14T07:45:13.000Z</Time>
            <Position>
              <LatitudeDegrees>43.07631231844425201416015625</LatitudeDegrees>
              <LongitudeDegrees>-1.915135122835636138916015625</LongitudeDegrees>
            </Position>
            <AltitudeMeters>514.5999755859375</AltitudeMeters>
            <DistanceMeters>NAN</DistanceMeters>
          </Trackpoint>
          <Trackpoint>
            <Time>2021-08-14T07:45:14.000Z</Time>
            <Position>
              <LatitudeDegrees>43.07629287242889404296875</LatitudeDegrees>
              <LongitudeDegrees>-1.9151611067354679107666015625</LongitudeDegrees>
            </Position>
            <AltitudeMeters>514.5999755859375</AltitudeMeters>
            <DistanceMeters>NAN</DistanceMeters>
          </Trackpoint>
          <Trackpoint>
            <Time>2021-08-14T07:45:15.000Z</Time>
            <Position>
              <LatitudeDegrees>43.0762853287160396575927734375</LatitudeDegrees>
              <LongitudeDegrees>-1.9151691533625125885009765625</LongitudeDegrees>
            </Position>
            <AltitudeMeters>514.79998779296875</AltitudeMeters>
            <DistanceMeters>NAN</DistanceMeters>
          </Trackpoint>
          <Trackpoint>
            <Time>2021-08-14T07:45:16.000Z</Time>
            <Position>
              <LatitudeDegrees>43.07628013193607330322265625</LatitudeDegrees>
              <LongitudeDegrees>-1.9151859171688556671142578125</LongitudeDegrees>
            </Position>
            <AltitudeMeters>515</AltitudeMeters>
            <DistanceMeters>NAN</DistanceMeters>
          </Trackpoint>
          <Trackpoint>
            <Time>2021-08-14T07:45:17.000Z</Time>
            <Position>
              <LatitudeDegrees>43.0762729234993457794189453125</LatitudeDegrees>
              <LongitudeDegrees>-1.91519857384264469146728515625</LongitudeDegrees>
            </Position>
            <AltitudeMeters>515.20001220703125</AltitudeMeters>
            <DistanceMeters>NAN</DistanceMeters>
          </Trackpoint>
          <Trackpoint>
            <Time>2021-08-14T07:45:18.000Z</Time>
            <Position>
              <LatitudeDegrees>43.07626797817647457122802734375</LatitudeDegrees>
              <LongitudeDegrees>-1.91521315835416316986083984375</LongitudeDegrees>
            </Position>
            <AltitudeMeters>515.20001220703125</AltitudeMeters>
            <DistanceMeters>NAN</DistanceMeters>
          </Trackpoint>
          <Trackpoint>
            <Time>2021-08-14T07:45:19.000Z</Time>
            <Position>
              <LatitudeDegrees>43.076263032853603363037109375</LatitudeDegrees>
              <LongitudeDegrees>-1.9152295030653476715087890625</LongitudeDegrees>
            </Position>
            <AltitudeMeters>515.4000244140625</AltitudeMeters>
            <DistanceMeters>NAN</DistanceMeters>
          </Trackpoint>
          <Trackpoint>
            <Time>2021-08-14T07:45:20.000Z</Time>
            <Position>
              <LatitudeDegrees>43.07625976391136646270751953125</LatitudeDegrees>
              <LongitudeDegrees>-1.91524098627269268035888671875</LongitudeDegrees>
            </Position>
            <AltitudeMeters>515.5999755859375</AltitudeMeters>
            <DistanceMeters>NAN</DistanceMeters>
          </Trackpoint>
          <Trackpoint>
            <Time>2021-08-14T07:45:21.000Z</Time>
            <Position>
              <LatitudeDegrees>43.07626076973974704742431640625</LatitudeDegrees>
              <LongitudeDegrees>-1.91524735651910305023193359375</LongitudeDegrees>
            </Position>
            <AltitudeMeters>515.5999755859375</AltitudeMeters>
            <DistanceMeters>NAN</DistanceMeters>
          </Trackpoint>
          <Trackpoint>
            <Time>2021-08-14T07:45:22.000Z</Time>
            <Position>
              <LatitudeDegrees>43.0762593448162078857421875</LatitudeDegrees>
              <LongitudeDegrees>-1.915253810584545135498046875</LongitudeDegrees>
            </Position>
            <AltitudeMeters>515.79998779296875</AltitudeMeters>
            <DistanceMeters>NAN</DistanceMeters>
          </Trackpoint>
          <Trackpoint>
            <Time>2021-08-14T07:45:23.000Z</Time>
            <Position>
              <LatitudeDegrees>43.0762544833123683929443359375</LatitudeDegrees>
              <LongitudeDegrees>-1.915261857211589813232421875</LongitudeDegrees>
            </Position>
            <AltitudeMeters>515.79998779296875</AltitudeMeters>
            <DistanceMeters>NAN</DistanceMeters>
          </Trackpoint>
          <Trackpoint>
            <Time>2021-08-14T07:45:24.000Z</Time>
            <Position>
              <LatitudeDegrees>43.0762481130659580230712890625</LatitudeDegrees>
              <LongitudeDegrees>-1.9152724184095859527587890625</LongitudeDegrees>
            </Position>
            <AltitudeMeters>515.79998779296875</AltitudeMeters>
            <DistanceMeters>NAN</DistanceMeters>
          </Trackpoint>
          <Trackpoint>
            <Time>2021-08-14T07:45:25.000Z</Time>
            <Position>
              <LatitudeDegrees>43.0762447603046894073486328125</LatitudeDegrees>
              <LongitudeDegrees>-1.91528205759823322296142578125</LongitudeDegrees>
            </Position>
            <AltitudeMeters>515.79998779296875</AltitudeMeters>
            <DistanceMeters>NAN</DistanceMeters>
          </Trackpoint>
          <Trackpoint>
            <Time>2021-08-14T07:45:26.000Z</Time>
            <Position>
              <LatitudeDegrees>43.07623813860118389129638671875</LatitudeDegrees>
              <LongitudeDegrees>-1.9152968935668468475341796875</LongitudeDegrees>
            </Position>
            <AltitudeMeters>516</AltitudeMeters>
            <DistanceMeters>NAN</DistanceMeters>
          </Trackpoint>
          <Trackpoint>
            <Time>2021-08-14T07:45:27.000Z</Time>
            <Position>
              <LatitudeDegrees>43.076234199106693267822265625</LatitudeDegrees>
              <LongitudeDegrees>-1.91531089134514331817626953125</LongitudeDegrees>
            </Position>
            <AltitudeMeters>516</AltitudeMeters>
            <DistanceMeters>NAN</DistanceMeters>
          </Trackpoint>
          <Trackpoint>
            <Time>2021-08-14T07:45:28.000Z</Time>
            <Position>
              <LatitudeDegrees>43.07623160071671009063720703125</LatitudeDegrees>
              <LongitudeDegrees>-1.9153240509331226348876953125</LongitudeDegrees>
            </Position>
            <AltitudeMeters>516</AltitudeMeters>
            <DistanceMeters>NAN</DistanceMeters>
          </Trackpoint>
          <Trackpoint>
            <Time>2021-08-14T07:45:29.000Z</Time>
            <Position>
              <LatitudeDegrees>43.07622849941253662109375</LatitudeDegrees>
              <LongitudeDegrees>-1.91533721052110195159912109375</LongitudeDegrees>
            </Position>
            <AltitudeMeters>516</AltitudeMeters>
            <DistanceMeters>NAN</DistanceMeters>
          </Trackpoint>
          <Trackpoint>
            <Time>2021-08-14T07:45:30.000Z</Time>
            <Position>
              <LatitudeDegrees>43.076227493584156036376953125</LatitudeDegrees>
              <LongitudeDegrees>-1.91534894518554210662841796875</LongitudeDegrees>
            </Position>
            <AltitudeMeters>516.20001220703125</AltitudeMeters>
            <DistanceMeters>NAN</DistanceMeters>
          </Trackpoint>
          <Trackpoint>
            <Time>2021-08-14T07:45:31.000Z</Time>
            <Position>
              <LatitudeDegrees>43.0762243084609508514404296875</LatitudeDegrees>
              <LongitudeDegrees>-1.91536034457385540008544921875</LongitudeDegrees>
            </Position>
            <AltitudeMeters>516.20001220703125</AltitudeMeters>
            <DistanceMeters>NAN</DistanceMeters>
          </Trackpoint>
          <Trackpoint>
            <Time>2021-08-14T07:45:32.000Z</Time>
            <Position>
              <LatitudeDegrees>43.0762219615280628204345703125</LatitudeDegrees>
              <LongitudeDegrees>-1.915371157228946685791015625</LongitudeDegrees>
            </Position>
            <AltitudeMeters>516.20001220703125</AltitudeMeters>
            <DistanceMeters>NAN</DistanceMeters>
          </Trackpoint>
          <Trackpoint>
            <Time>2021-08-14T07:45:33.000Z</Time>
            <Position>
              <LatitudeDegrees>43.0762226320803165435791015625</LatitudeDegrees>
              <LongitudeDegrees>-1.91537953913211822509765625</LongitudeDegrees>
            </Position>
            <AltitudeMeters>516.4000244140625</AltitudeMeters>
            <DistanceMeters>NAN</DistanceMeters>
          </Trackpoint>
          <Trackpoint>
            <Time>2021-08-14T07:45:34.000Z</Time>
            <Position>
              <LatitudeDegrees>43.0762273259460926055908203125</LatitudeDegrees>
              <LongitudeDegrees>-1.91537945531308650970458984375</LongitudeDegrees>
            </Position>
            <AltitudeMeters>516.4000244140625</AltitudeMeters>
            <DistanceMeters>NAN</DistanceMeters>
          </Trackpoint>
          <Trackpoint>
            <Time>2021-08-14T07:45:35.000Z</Time>
            <Position>
              <LatitudeDegrees>43.07623361237347126007080078125</LatitudeDegrees>
              <LongitudeDegrees>-1.915379203855991363525390625</LongitudeDegrees>
            </Position>
            <AltitudeMeters>516.4000244140625</AltitudeMeters>
            <DistanceMeters>NAN</DistanceMeters>
          </Trackpoint>
          <Trackpoint>
            <Time>2021-08-14T07:45:36.000Z</Time>
            <Position>
              <LatitudeDegrees>43.07623361237347126007080078125</LatitudeDegrees>
              <LongitudeDegrees>-1.91538381390273571014404296875</LongitudeDegrees>
            </Position>
            <AltitudeMeters>516.5999755859375</AltitudeMeters>
            <DistanceMeters>NAN</DistanceMeters>
          </Trackpoint>
          <Trackpoint>
            <Time>2021-08-14T07:45:37.000Z</Time>
            <Position>
              <LatitudeDegrees>43.0762350372970104217529296875</LatitudeDegrees>
              <LongitudeDegrees>-1.91538155078887939453125</LongitudeDegrees>
            </Position>
            <AltitudeMeters>516.5999755859375</AltitudeMeters>
            <DistanceMeters>NAN</DistanceMeters>
          </Trackpoint>
          <Trackpoint>
            <Time>2021-08-14T07:45:38.000Z</Time>
            <Position>
              <LatitudeDegrees>43.0762357078492641448974609375</LatitudeDegrees>
              <LongitudeDegrees>-1.915383227169513702392578125</LongitudeDegrees>
            </Position>
            <AltitudeMeters>516.5999755859375</AltitudeMeters>
            <DistanceMeters>NAN</DistanceMeters>
          </Trackpoint>
          <Trackpoint>
            <Time>2021-08-14T07:45:39.000Z</Time>
            <Position>
              <LatitudeDegrees>43.07623143307864665985107421875</LatitudeDegrees>
              <LongitudeDegrees>-1.91538649611175060272216796875</LongitudeDegrees>
            </Position>
            <AltitudeMeters>516.79998779296875</AltitudeMeters>
            <DistanceMeters>NAN</DistanceMeters>
          </Trackpoint>
          <Trackpoint>
            <Time>2021-08-14T07:45:41.000Z</Time>
            <Position>
              <LatitudeDegrees>43.0762316845357418060302734375</LatitudeDegrees>
              <LongitudeDegrees>-1.915387250483036041259765625</LongitudeDegrees>
            </Position>
            <AltitudeMeters>516.79998779296875</AltitudeMeters>
            <DistanceMeters>NAN</DistanceMeters>
          </Trackpoint>
          <Trackpoint>
            <Time>2021-08-14T07:45:43.000Z</Time>
            <Position>
              <LatitudeDegrees>43.07624048553407192230224609375</LatitudeDegrees>
              <LongitudeDegrees>-1.91539035178720951080322265625</LongitudeDegrees>
            </Position>
            <AltitudeMeters>516.79998779296875</AltitudeMeters>
            <DistanceMeters>NAN</DistanceMeters>
          </Trackpoint>
          <Trackpoint>
            <Time>2021-08-14T07:45:59.000Z</Time>
            <Position>
              <LatitudeDegrees>43.0762474425137042999267578125</LatitudeDegrees>
              <LongitudeDegrees>-1.91538716666400432586669921875</LongitudeDegrees>
            </Position>
            <AltitudeMeters>516.5999755859375</AltitudeMeters>
            <DistanceMeters>NAN</DistanceMeters>
          </Trackpoint>
          <Trackpoint>
            <Time>2021-08-14T07:46:16.000Z</Time>
            <Position>
              <LatitudeDegrees>43.07624392211437225341796875</LatitudeDegrees>
              <LongitudeDegrees>-1.9154058583080768585205078125</LongitudeDegrees>
            </Position>
            <AltitudeMeters>516.79998779296875</AltitudeMeters>
            <DistanceMeters>NAN</DistanceMeters>
          </Trackpoint>
          <Trackpoint>
            <Time>2021-08-14T07:48:48.000Z</Time>
            <Position>
              <LatitudeDegrees>43.07628071866929531097412109375</LatitudeDegrees>
              <LongitudeDegrees>-1.91536352969706058502197265625</LongitudeDegrees>
            </Position>
            <AltitudeMeters>516.20001220703125</AltitudeMeters>
            <DistanceMeters>NAN</DistanceMeters>
          </Trackpoint>
          <Trackpoint>
            <Time>2021-08-14T07:48:54.000Z</Time>
            <Position>
              <LatitudeDegrees>43.07627342641353607177734375</LatitudeDegrees>
              <LongitudeDegrees>-1.91536352969706058502197265625</LongitudeDegrees>
            </Position>
            <AltitudeMeters>516.5999755859375</AltitudeMeters>
            <DistanceMeters>NAN</DistanceMeters>
          </Trackpoint>
          <Trackpoint>
            <Time>2021-08-14T07:48:58.000Z</Time>
            <Position>
              <LatitudeDegrees>43.07625557295978069305419921875</LatitudeDegrees>
              <LongitudeDegrees>-1.915389262139797210693359375</LongitudeDegrees>
            </Position>
            <AltitudeMeters>516.79998779296875</AltitudeMeters>
            <DistanceMeters>NAN</DistanceMeters>
          </Trackpoint>
          <Trackpoint>
            <Time>2021-08-14T07:49:02.000Z</Time>
            <Position>
              <LatitudeDegrees>43.07624517939984798431396484375</LatitudeDegrees>
              <LongitudeDegrees>-1.91540099680423736572265625</LongitudeDegrees>
            </Position>
            <AltitudeMeters>517.20001220703125</AltitudeMeters>
            <DistanceMeters>NAN</DistanceMeters>
          </Trackpoint>
          <Trackpoint>
            <Time>2021-08-14T07:49:05.000Z</Time>
            <Position>
              <LatitudeDegrees>43.0762155912816524505615234375</LatitudeDegrees>
              <LongitudeDegrees>-1.91544793546199798583984375</LongitudeDegrees>
            </Position>
            <AltitudeMeters>517.20001220703125</AltitudeMeters>
            <DistanceMeters>NAN</DistanceMeters>
          </Trackpoint>
          <Trackpoint>
            <Time>2021-08-14T07:49:06.000Z</Time>
            <Position>
              <LatitudeDegrees>43.0762085504829883575439453125</LatitudeDegrees>
              <LongitudeDegrees>-1.915471069514751434326171875</LongitudeDegrees>
            </Position>
            <AltitudeMeters>517.20001220703125</AltitudeMeters>
            <DistanceMeters>NAN</DistanceMeters>
          </Trackpoint>
          <Trackpoint>
            <Time>2021-08-14T07:49:07.000Z</Time>
            <Position>
              <LatitudeDegrees>43.0761991627514362335205078125</LatitudeDegrees>
              <LongitudeDegrees>-1.91549277864396572113037109375</LongitudeDegrees>
            </Position>
            <AltitudeMeters>517.4000244140625</AltitudeMeters>
            <DistanceMeters>NAN</DistanceMeters>
          </Trackpoint>
          <Trackpoint>
            <Time>2021-08-14T07:49:09.000Z</Time>
            <Position>
              <LatitudeDegrees>43.0761750228703022003173828125</LatitudeDegrees>
              <LongitudeDegrees>-1.9155409745872020721435546875</LongitudeDegrees>
            </Position>
            <AltitudeMeters>517.5999755859375</AltitudeMeters>
            <DistanceMeters>NAN</DistanceMeters>
          </Trackpoint>
          <Trackpoint>
            <Time>2021-08-14T07:49:10.000Z</Time>
            <Position>
              <LatitudeDegrees>43.07616672478616237640380859375</LatitudeDegrees>
              <LongitudeDegrees>-1.91556469537317752838134765625</LongitudeDegrees>
            </Position>
            <AltitudeMeters>517.79998779296875</AltitudeMeters>
            <DistanceMeters>NAN</DistanceMeters>
          </Trackpoint>
          <Trackpoint>
            <Time>2021-08-14T07:49:11.000Z</Time>
            <Position>
              <LatitudeDegrees>43.07615901343524456024169921875</LatitudeDegrees>
              <LongitudeDegrees>-1.91558330319821834564208984375</LongitudeDegrees>
            </Position>
            <AltitudeMeters>517.79998779296875</AltitudeMeters>
            <DistanceMeters>NAN</DistanceMeters>
          </Trackpoint>
          <Trackpoint>
            <Time>2021-08-14T07:49:12.000Z</Time>
            <Position>
              <LatitudeDegrees>43.07615113444626331329345703125</LatitudeDegrees>
              <LongitudeDegrees>-1.91559906117618083953857421875</LongitudeDegrees>
            </Position>
            <AltitudeMeters>518</AltitudeMeters>
            <DistanceMeters>NAN</DistanceMeters>
          </Trackpoint>
          <Trackpoint>
            <Time>2021-08-14T07:49:14.000Z</Time>
            <Position>
              <LatitudeDegrees>43.07613403536379337310791015625</LatitudeDegrees>
              <LongitudeDegrees>-1.9156398810446262359619140625</LongitudeDegrees>
            </Position>
            <AltitudeMeters>518.4000244140625</AltitudeMeters>
            <DistanceMeters>NAN</DistanceMeters>
          </Trackpoint>
          <Trackpoint>
            <Time>2021-08-14T07:49:17.000Z</Time>
            <Position>
              <LatitudeDegrees>43.07611039839684963226318359375</LatitudeDegrees>
              <LongitudeDegrees>-1.91569478251039981842041015625</LongitudeDegrees>
            </Position>
            <AltitudeMeters>519.20001220703125</AltitudeMeters>
            <DistanceMeters>NAN</DistanceMeters>
          </Trackpoint>
          <Trackpoint>
            <Time>2021-08-14T07:49:18.000Z</Time>
            <Position>
              <LatitudeDegrees>43.0761049501597881317138671875</LatitudeDegrees>
              <LongitudeDegrees>-1.91571070812642574310302734375</LongitudeDegrees>
            </Position>
            <AltitudeMeters>519.4000244140625</AltitudeMeters>
            <DistanceMeters>NAN</DistanceMeters>
          </Trackpoint>
          <Trackpoint>
            <Time>2021-08-14T07:49:19.000Z</Time>
            <Position>
              <LatitudeDegrees>43.07610302232205867767333984375</LatitudeDegrees>
              <LongitudeDegrees>-1.9157302379608154296875</LongitudeDegrees>
            </Position>
            <AltitudeMeters>519.4000244140625</AltitudeMeters>
            <DistanceMeters>NAN</DistanceMeters>
          </Trackpoint>
          <Trackpoint>
            <Time>2021-08-14T07:49:20.000Z</Time>
            <Position>
              <LatitudeDegrees>43.076090030372142791748046875</LatitudeDegrees>
              <LongitudeDegrees>-1.915754713118076324462890625</LongitudeDegrees>
            </Position>
            <AltitudeMeters>519.5999755859375</AltitudeMeters>
            <DistanceMeters>NAN</DistanceMeters>
          </Trackpoint>
          <Trackpoint>
            <Time>2021-08-14T07:49:21.000Z</Time>
            <Position>
              <LatitudeDegrees>43.07607100345194339752197265625</LatitudeDegrees>
              <LongitudeDegrees>-1.91577943973243236541748046875</LongitudeDegrees>
            </Position>
            <AltitudeMeters>519.79998779296875</AltitudeMeters>
            <DistanceMeters>NAN</DistanceMeters>
          </Trackpoint>
          <Trackpoint>
            <Time>2021-08-14T07:49:22.000Z</Time>
            <Position>
              <LatitudeDegrees>43.0760499648749828338623046875</LatitudeDegrees>
              <LongitudeDegrees>-1.91580793820321559906005859375</LongitudeDegrees>
            </Position>
            <AltitudeMeters>519.79998779296875</AltitudeMeters>
            <DistanceMeters>NAN</DistanceMeters>
          </Trackpoint>
          <Trackpoint>
            <Time>2021-08-14T07:49:23.000Z</Time>
            <Position>
              <LatitudeDegrees>43.07603680528700351715087890625</LatitudeDegrees>
              <LongitudeDegrees>-1.91583140753209590911865234375</LongitudeDegrees>
            </Position>
            <AltitudeMeters>520</AltitudeMeters>
            <DistanceMeters>NAN</DistanceMeters>
          </Trackpoint>
          <Trackpoint>
            <Time>2021-08-14T07:49:24.000Z</Time>
            <Position>
              <LatitudeDegrees>43.07602624408900737762451171875</LatitudeDegrees>
              <LongitudeDegrees>-1.915850602090358734130859375</LongitudeDegrees>
            </Position>
            <AltitudeMeters>520.20001220703125</AltitudeMeters>
            <DistanceMeters>NAN</DistanceMeters>
          </Trackpoint>
          <Trackpoint>
            <Time>2021-08-14T07:49:25.000Z</Time>
            <Position>
              <LatitudeDegrees>43.07601367123425006866455078125</LatitudeDegrees>
              <LongitudeDegrees>-1.91587231121957302093505859375</LongitudeDegrees>
            </Position>
            <AltitudeMeters>520.4000244140625</AltitudeMeters>
            <DistanceMeters>NAN</DistanceMeters>
          </Trackpoint>
          <Trackpoint>
            <Time>2021-08-14T07:49:26.000Z</Time>
            <Position>
              <LatitudeDegrees>43.0760026909410953521728515625</LatitudeDegrees>
              <LongitudeDegrees>-1.915890164673328399658203125</LongitudeDegrees>
            </Position>
            <AltitudeMeters>520.79998779296875</AltitudeMeters>
            <DistanceMeters>NAN</DistanceMeters>
          </Trackpoint>
          <Trackpoint>
            <Time>2021-08-14T07:49:27.000Z</Time>
            <Position>
              <LatitudeDegrees>43.07599447667598724365234375</LatitudeDegrees>
              <LongitudeDegrees>-1.915900893509387969970703125</LongitudeDegrees>
            </Position>
            <AltitudeMeters>520.79998779296875</AltitudeMeters>
            <DistanceMeters>NAN</DistanceMeters>
          </Trackpoint>
          <Trackpoint>
            <Time>2021-08-14T07:49:28.000Z</Time>
            <Position>
              <LatitudeDegrees>43.075980059802532196044921875</LatitudeDegrees>
              <LongitudeDegrees>-1.91591489128768444061279296875</LongitudeDegrees>
            </Position>
            <AltitudeMeters>521.20001220703125</AltitudeMeters>
            <DistanceMeters>NAN</DistanceMeters>
          </Trackpoint>
          <Trackpoint>
            <Time>2021-08-14T07:49:29.000Z</Time>
            <Position>
              <LatitudeDegrees>43.07596958242356777191162109375</LatitudeDegrees>
              <LongitudeDegrees>-1.91593182273209095001220703125</LongitudeDegrees>
            </Position>
            <AltitudeMeters>521.4000244140625</AltitudeMeters>
            <DistanceMeters>NAN</DistanceMeters>
          </Trackpoint>
          <Trackpoint>
            <Time>2021-08-14T07:49:30.000Z</Time>
            <Position>
              <LatitudeDegrees>43.0759584344923496246337890625</LatitudeDegrees>
              <LongitudeDegrees>-1.91595084965229034423828125</LongitudeDegrees>
            </Position>
            <AltitudeMeters>521.5999755859375</AltitudeMeters>
            <DistanceMeters>NAN</DistanceMeters>
          </Trackpoint>
          <Trackpoint>
            <Time>2021-08-14T07:49:31.000Z</Time>
            <Position>
              <LatitudeDegrees>43.075947873294353485107421875</LatitudeDegrees>
              <LongitudeDegrees>-1.915969960391521453857421875</LongitudeDegrees>
            </Position>
            <AltitudeMeters>522</AltitudeMeters>
            <DistanceMeters>NAN</DistanceMeters>
          </Trackpoint>
          <Trackpoint>
            <Time>2021-08-14T07:49:32.000Z</Time>
            <Position>
              <LatitudeDegrees>43.075939156115055084228515625</LatitudeDegrees>
              <LongitudeDegrees>-1.91598680801689624786376953125</LongitudeDegrees>
            </Position>
            <AltitudeMeters>522.4000244140625</AltitudeMeters>
            <DistanceMeters>NAN</DistanceMeters>
          </Trackpoint>
          <Trackpoint>
            <Time>2021-08-14T07:49:33.000Z</Time>
            <Position>
              <LatitudeDegrees>43.0759309418499469757080078125</LatitudeDegrees>
              <LongitudeDegrees>-1.916003488004207611083984375</LongitudeDegrees>
            </Position>
            <AltitudeMeters>522.79998779296875</AltitudeMeters>
            <DistanceMeters>NAN</DistanceMeters>
          </Trackpoint>
          <Trackpoint>
            <Time>2021-08-14T07:49:34.000Z</Time>
            <Position>
              <LatitudeDegrees>43.07592473924160003662109375</LatitudeDegrees>
              <LongitudeDegrees>-1.91601765342056751251220703125</LongitudeDegrees>
            </Position>
            <AltitudeMeters>523.20001220703125</AltitudeMeters>
            <DistanceMeters>NAN</DistanceMeters>
          </Trackpoint>
          <Trackpoint>
            <Time>2021-08-14T07:49:35.000Z</Time>
            <Position>
              <LatitudeDegrees>43.07591862045228481292724609375</LatitudeDegrees>
              <LongitudeDegrees>-1.916034333407878875732421875</LongitudeDegrees>
            </Position>
            <AltitudeMeters>523.5999755859375</AltitudeMeters>
            <DistanceMeters>NAN</DistanceMeters>
          </Trackpoint>
          <Trackpoint>
            <Time>2021-08-14T07:49:36.000Z</Time>
            <Position>
              <LatitudeDegrees>43.07591057382524013519287109375</LatitudeDegrees>
              <LongitudeDegrees>-1.9160534441471099853515625</LongitudeDegrees>
            </Position>
            <AltitudeMeters>524</AltitudeMeters>
            <DistanceMeters>NAN</DistanceMeters>
          </Trackpoint>
          <Trackpoint>
            <Time>2021-08-14T07:49:37.000Z</Time>
            <Position>
              <LatitudeDegrees>43.075902946293354034423828125</LatitudeDegrees>
              <LongitudeDegrees>-1.91606995649635791778564453125</LongitudeDegrees>
            </Position>
            <AltitudeMeters>524.20001220703125</AltitudeMeters>
            <DistanceMeters>NAN</DistanceMeters>
          </Trackpoint>
          <Trackpoint>
            <Time>2021-08-14T07:49:38.000Z</Time>
            <Position>
              <LatitudeDegrees>43.0758940614759922027587890625</LatitudeDegrees>
              <LongitudeDegrees>-1.91608672030270099639892578125</LongitudeDegrees>
            </Position>
            <AltitudeMeters>524.4000244140625</AltitudeMeters>
            <DistanceMeters>NAN</DistanceMeters>
          </Trackpoint>
          <Trackpoint>
            <Time>2021-08-14T07:49:39.000Z</Time>
            <Position>
              <LatitudeDegrees>43.07588442228734493255615234375</LatitudeDegrees>
              <LongitudeDegrees>-1.916103400290012359619140625</LongitudeDegrees>
            </Position>
            <AltitudeMeters>524.5999755859375</AltitudeMeters>
            <DistanceMeters>NAN</DistanceMeters>
          </Trackpoint>
          <Trackpoint>
            <Time>2021-08-14T07:49:40.000Z</Time>
            <Position>
              <LatitudeDegrees>43.0758769623935222625732421875</LatitudeDegrees>
              <LongitudeDegrees>-1.91611924208700656890869140625</LongitudeDegrees>
            </Position>
            <AltitudeMeters>525</AltitudeMeters>
            <DistanceMeters>NAN</DistanceMeters>
          </Trackpoint>
          <Trackpoint>
            <Time>2021-08-14T07:49:41.000Z</Time>
            <Position>
              <LatitudeDegrees>43.07586849667131900787353515625</LatitudeDegrees>
              <LongitudeDegrees>-1.9161313958466053009033203125</LongitudeDegrees>
            </Position>
            <AltitudeMeters>525.79998779296875</AltitudeMeters>
            <DistanceMeters>NAN</DistanceMeters>
          </Trackpoint>
          <Trackpoint>
            <Time>2021-08-14T07:49:42.000Z</Time>
            <Position>
              <LatitudeDegrees>43.07585776783525943756103515625</LatitudeDegrees>
              <LongitudeDegrees>-1.91614422015845775604248046875</LongitudeDegrees>
            </Position>
            <AltitudeMeters>526</AltitudeMeters>
            <DistanceMeters>NAN</DistanceMeters>
          </Trackpoint>
          <Trackpoint>
            <Time>2021-08-14T07:49:43.000Z</Time>
            <Position>
              <LatitudeDegrees>43.07584787718951702117919921875</LatitudeDegrees>
              <LongitudeDegrees>-1.9161578826606273651123046875</LongitudeDegrees>
            </Position>
            <AltitudeMeters>526.4000244140625</AltitudeMeters>
            <DistanceMeters>NAN</DistanceMeters>
          </Trackpoint>
          <Trackpoint>
            <Time>2021-08-14T07:49:44.000Z</Time>
            <Position>
              <LatitudeDegrees>43.0758390761911869049072265625</LatitudeDegrees>
              <LongitudeDegrees>-1.9161712937057018280029296875</LongitudeDegrees>
            </Position>
            <AltitudeMeters>526.5999755859375</AltitudeMeters>
            <DistanceMeters>NAN</DistanceMeters>
          </Trackpoint>
          <Trackpoint>
            <Time>2021-08-14T07:49:45.000Z</Time>
            <Position>
              <LatitudeDegrees>43.07583195157349109649658203125</LatitudeDegrees>
              <LongitudeDegrees>-1.916187219321727752685546875</LongitudeDegrees>
            </Position>
            <AltitudeMeters>526.79998779296875</AltitudeMeters>
            <DistanceMeters>NAN</DistanceMeters>
          </Trackpoint>
          <Trackpoint>
            <Time>2021-08-14T07:49:46.000Z</Time>
            <Position>
              <LatitudeDegrees>43.075825832784175872802734375</LatitudeDegrees>
              <LongitudeDegrees>-1.91620172001421451568603515625</LongitudeDegrees>
            </Position>
            <AltitudeMeters>527</AltitudeMeters>
            <DistanceMeters>NAN</DistanceMeters>
          </Trackpoint>
          <Trackpoint>
            <Time>2021-08-14T07:49:47.000Z</Time>
            <Position>
              <LatitudeDegrees>43.075818121433258056640625</LatitudeDegrees>
              <LongitudeDegrees>-1.9162148796021938323974609375</LongitudeDegrees>
            </Position>
            <AltitudeMeters>527.4000244140625</AltitudeMeters>
            <DistanceMeters>NAN</DistanceMeters>
          </Trackpoint>
          <Trackpoint>
            <Time>2021-08-14T07:49:48.000Z</Time>
            <Position>
              <LatitudeDegrees>43.07580781169235706329345703125</LatitudeDegrees>
              <LongitudeDegrees>-1.91622577607631683349609375</LongitudeDegrees>
            </Position>
            <AltitudeMeters>527.79998779296875</AltitudeMeters>
            <DistanceMeters>NAN</DistanceMeters>
          </Trackpoint>
          <Trackpoint>
            <Time>2021-08-14T07:49:49.000Z</Time>
            <Position>
              <LatitudeDegrees>43.075797669589519500732421875</LatitudeDegrees>
              <LongitudeDegrees>-1.916234157979488372802734375</LongitudeDegrees>
            </Position>
            <AltitudeMeters>528</AltitudeMeters>
            <DistanceMeters>NAN</DistanceMeters>
          </Trackpoint>
          <Trackpoint>
            <Time>2021-08-14T07:49:50.000Z</Time>
            <Position>
              <LatitudeDegrees>43.07578861713409423828125</LatitudeDegrees>
              <LongitudeDegrees>-1.91624564118683338165283203125</LongitudeDegrees>
            </Position>
            <AltitudeMeters>528.4000244140625</AltitudeMeters>
            <DistanceMeters>NAN</DistanceMeters>
          </Trackpoint>
          <Trackpoint>
            <Time>2021-08-14T07:49:51.000Z</Time>
            <Position>
              <LatitudeDegrees>43.0757787264883518218994140625</LatitudeDegrees>
              <LongitudeDegrees>-1.9162574596703052520751953125</LongitudeDegrees>
            </Position>
            <AltitudeMeters>528.4000244140625</AltitudeMeters>
            <DistanceMeters>NAN</DistanceMeters>
          </Trackpoint>
          <Trackpoint>
            <Time>2021-08-14T07:49:52.000Z</Time>
            <Position>
              <LatitudeDegrees>43.07576942257583141326904296875</LatitudeDegrees>
              <LongitudeDegrees>-1.91626709885895252227783203125</LongitudeDegrees>
            </Position>
            <AltitudeMeters>528.79998779296875</AltitudeMeters>
            <DistanceMeters>NAN</DistanceMeters>
          </Trackpoint>
          <Trackpoint>
            <Time>2021-08-14T07:49:53.000Z</Time>
            <Position>
              <LatitudeDegrees>43.07576171122491359710693359375</LatitudeDegrees>
              <LongitudeDegrees>-1.9162795878946781158447265625</LongitudeDegrees>
            </Position>
            <AltitudeMeters>529.20001220703125</AltitudeMeters>
            <DistanceMeters>NAN</DistanceMeters>
          </Trackpoint>
          <Trackpoint>
            <Time>2021-08-14T07:49:54.000Z</Time>
            <Position>
              <LatitudeDegrees>43.07575265876948833465576171875</LatitudeDegrees>
              <LongitudeDegrees>-1.91629417240619659423828125</LongitudeDegrees>
            </Position>
            <AltitudeMeters>529.5999755859375</AltitudeMeters>
            <DistanceMeters>NAN</DistanceMeters>
          </Trackpoint>
          <Trackpoint>
            <Time>2021-08-14T07:49:55.000Z</Time>
            <Position>
              <LatitudeDegrees>43.075746037065982818603515625</LatitudeDegrees>
              <LongitudeDegrees>-1.916309259831905364990234375</LongitudeDegrees>
            </Position>
            <AltitudeMeters>529.79998779296875</AltitudeMeters>
            <DistanceMeters>NAN</DistanceMeters>
          </Trackpoint>
          <Trackpoint>
            <Time>2021-08-14T07:49:56.000Z</Time>
            <Position>
              <LatitudeDegrees>43.07573698461055755615234375</LatitudeDegrees>
              <LongitudeDegrees>-1.91632526926696300506591796875</LongitudeDegrees>
            </Position>
            <AltitudeMeters>530</AltitudeMeters>
            <DistanceMeters>NAN</DistanceMeters>
          </Trackpoint>
          <Trackpoint>
            <Time>2021-08-14T07:49:57.000Z</Time>
            <Position>
              <LatitudeDegrees>43.07572952471673488616943359375</LatitudeDegrees>
              <LongitudeDegrees>-1.91633868031203746795654296875</LongitudeDegrees>
            </Position>
            <AltitudeMeters>530.20001220703125</AltitudeMeters>
            <DistanceMeters>NAN</DistanceMeters>
          </Trackpoint>
          <Trackpoint>
            <Time>2021-08-14T07:49:58.000Z</Time>
            <Position>
              <LatitudeDegrees>43.0757230706512928009033203125</LatitudeDegrees>
              <LongitudeDegrees>-1.91635209135711193084716796875</LongitudeDegrees>
            </Position>
            <AltitudeMeters>530.4000244140625</AltitudeMeters>
            <DistanceMeters>NAN</DistanceMeters>
          </Trackpoint>
          <Trackpoint>
            <Time>2021-08-14T07:49:59.000Z</Time>
            <Position>
              <LatitudeDegrees>43.0757177062332630157470703125</LatitudeDegrees>
              <LongitudeDegrees>-1.9163677655160427093505859375</LongitudeDegrees>
            </Position>
            <AltitudeMeters>530.5999755859375</AltitudeMeters>
            <DistanceMeters>NAN</DistanceMeters>
          </Trackpoint>
          <Trackpoint>
            <Time>2021-08-14T07:50:00.000Z</Time>
            <Position>
              <LatitudeDegrees>43.0757113359868526458740234375</LatitudeDegrees>
              <LongitudeDegrees>-1.91638260148465633392333984375</LongitudeDegrees>
            </Position>
            <AltitudeMeters>530.5999755859375</AltitudeMeters>
            <DistanceMeters>NAN</DistanceMeters>
          </Trackpoint>
          <Trackpoint>
            <Time>2021-08-14T07:50:01.000Z</Time>
            <Position>
              <LatitudeDegrees>43.07570421136915683746337890625</LatitudeDegrees>
              <LongitudeDegrees>-1.916397772729396820068359375</LongitudeDegrees>
            </Position>
            <AltitudeMeters>531.20001220703125</AltitudeMeters>
            <DistanceMeters>NAN</DistanceMeters>
          </Trackpoint>
          <Trackpoint>
            <Time>2021-08-14T07:50:02.000Z</Time>
            <Position>
              <LatitudeDegrees>43.0757016129791736602783203125</LatitudeDegrees>
              <LongitudeDegrees>-1.91641361452639102935791015625</LongitudeDegrees>
            </Position>
            <AltitudeMeters>531.4000244140625</AltitudeMeters>
            <DistanceMeters>NAN</DistanceMeters>
          </Trackpoint>
          <Trackpoint>
            <Time>2021-08-14T07:50:03.000Z</Time>
            <Position>
              <LatitudeDegrees>43.07569549418985843658447265625</LatitudeDegrees>
              <LongitudeDegrees>-1.9164271093904972076416015625</LongitudeDegrees>
            </Position>
            <AltitudeMeters>531.5999755859375</AltitudeMeters>
            <DistanceMeters>NAN</DistanceMeters>
          </Trackpoint>
          <Trackpoint>
            <Time>2021-08-14T07:50:04.000Z</Time>
            <Position>
              <LatitudeDegrees>43.0756838433444499969482421875</LatitudeDegrees>
              <LongitudeDegrees>-1.91644194535911083221435546875</LongitudeDegrees>
            </Position>
            <AltitudeMeters>531.5999755859375</AltitudeMeters>
            <DistanceMeters>NAN</DistanceMeters>
          </Trackpoint>
          <Trackpoint>
            <Time>2021-08-14T07:50:05.000Z</Time>
            <Position>
              <LatitudeDegrees>43.07567202486097812652587890625</LatitudeDegrees>
              <LongitudeDegrees>-1.9164572842419147491455078125</LongitudeDegrees>
            </Position>
            <AltitudeMeters>531.79998779296875</AltitudeMeters>
            <DistanceMeters>NAN</DistanceMeters>
          </Trackpoint>
          <Trackpoint>
            <Time>2021-08-14T07:50:06.000Z</Time>
            <Position>
              <LatitudeDegrees>43.0756620503962039947509765625</LatitudeDegrees>
              <LongitudeDegrees>-1.91647513769567012786865234375</LongitudeDegrees>
            </Position>
            <AltitudeMeters>532</AltitudeMeters>
            <DistanceMeters>NAN</DistanceMeters>
          </Trackpoint>
          <Trackpoint>
            <Time>2021-08-14T07:50:07.000Z</Time>
            <Position>
              <LatitudeDegrees>43.07565526105463504791259765625</LatitudeDegrees>
              <LongitudeDegrees>-1.91649173386394977569580078125</LongitudeDegrees>
            </Position>
            <AltitudeMeters>532</AltitudeMeters>
            <DistanceMeters>NAN</DistanceMeters>
          </Trackpoint>
          <Trackpoint>
            <Time>2021-08-14T07:50:08.000Z</Time>
            <Position>
              <LatitudeDegrees>43.07564922608435153961181640625</LatitudeDegrees>
              <LongitudeDegrees>-1.91650564782321453094482421875</LongitudeDegrees>
            </Position>
            <AltitudeMeters>532.4000244140625</AltitudeMeters>
            <DistanceMeters>NAN</DistanceMeters>
          </Trackpoint>
          <Trackpoint>
            <Time>2021-08-14T07:50:09.000Z</Time>
            <Position>
              <LatitudeDegrees>43.07563849724829196929931640625</LatitudeDegrees>
              <LongitudeDegrees>-1.91652073524892330169677734375</LongitudeDegrees>
            </Position>
            <AltitudeMeters>532.5999755859375</AltitudeMeters>
            <DistanceMeters>NAN</DistanceMeters>
          </Trackpoint>
          <Trackpoint>
            <Time>2021-08-14T07:50:10.000Z</Time>
            <Position>
              <LatitudeDegrees>43.07562676258385181427001953125</LatitudeDegrees>
              <LongitudeDegrees>-1.9165307097136974334716796875</LongitudeDegrees>
            </Position>
            <AltitudeMeters>532.79998779296875</AltitudeMeters>
            <DistanceMeters>NAN</DistanceMeters>
          </Trackpoint>
          <Trackpoint>
            <Time>2021-08-14T07:50:11.000Z</Time>
            <Position>
              <LatitudeDegrees>43.0756174586713314056396484375</LatitudeDegrees>
              <LongitudeDegrees>-1.91654034890234470367431640625</LongitudeDegrees>
            </Position>
            <AltitudeMeters>533.20001220703125</AltitudeMeters>
            <DistanceMeters>NAN</DistanceMeters>
          </Trackpoint>
          <Trackpoint>
            <Time>2021-08-14T07:50:12.000Z</Time>
            <Position>
              <LatitudeDegrees>43.075607903301715850830078125</LatitudeDegrees>
              <LongitudeDegrees>-1.91655141301453113555908203125</LongitudeDegrees>
            </Position>
            <AltitudeMeters>533.20001220703125</AltitudeMeters>
            <DistanceMeters>NAN</DistanceMeters>
          </Trackpoint>
          <Trackpoint>
            <Time>2021-08-14T07:50:13.000Z</Time>
            <Position>
              <LatitudeDegrees>43.075596503913402557373046875</LatitudeDegrees>
              <LongitudeDegrees>-1.916559375822544097900390625</LongitudeDegrees>
            </Position>
            <AltitudeMeters>533.4000244140625</AltitudeMeters>
            <DistanceMeters>NAN</DistanceMeters>
          </Trackpoint>
          <Trackpoint>
            <Time>2021-08-14T07:50:14.000Z</Time>
            <Position>
              <LatitudeDegrees>43.07558678090572357177734375</LatitudeDegrees>
              <LongitudeDegrees>-1.9165652431547641754150390625</LongitudeDegrees>
            </Position>
            <AltitudeMeters>533.5999755859375</AltitudeMeters>
            <DistanceMeters>NAN</DistanceMeters>
          </Trackpoint>
          <Trackpoint>
            <Time>2021-08-14T07:50:15.000Z</Time>
            <Position>
              <LatitudeDegrees>43.07557848282158374786376953125</LatitudeDegrees>
              <LongitudeDegrees>-1.91656750626862049102783203125</LongitudeDegrees>
            </Position>
            <AltitudeMeters>534</AltitudeMeters>
            <DistanceMeters>NAN</DistanceMeters>
          </Trackpoint>
          <Trackpoint>
            <Time>2021-08-14T07:50:16.000Z</Time>
            <Position>
              <LatitudeDegrees>43.07557068765163421630859375</LatitudeDegrees>
              <LongitudeDegrees>-1.91657043993473052978515625</LongitudeDegrees>
            </Position>
            <AltitudeMeters>534.4000244140625</AltitudeMeters>
            <DistanceMeters>NAN</DistanceMeters>
          </Trackpoint>
          <Trackpoint>
            <Time>2021-08-14T07:50:17.000Z</Time>
            <Position>
              <LatitudeDegrees>43.0755618028342723846435546875</LatitudeDegrees>
              <LongitudeDegrees>-1.9165736250579357147216796875</LongitudeDegrees>
            </Position>
            <AltitudeMeters>534.5999755859375</AltitudeMeters>
            <DistanceMeters>NAN</DistanceMeters>
          </Trackpoint>
          <Trackpoint>
            <Time>2021-08-14T07:50:18.000Z</Time>
            <Position>
              <LatitudeDegrees>43.07555233128368854522705078125</LatitudeDegrees>
              <LongitudeDegrees>-1.91657580435276031494140625</LongitudeDegrees>
            </Position>
            <AltitudeMeters>535</AltitudeMeters>
            <DistanceMeters>NAN</DistanceMeters>
          </Trackpoint>
          <Trackpoint>
            <Time>2021-08-14T07:50:19.000Z</Time>
            <Position>
              <LatitudeDegrees>43.0755390040576457977294921875</LatitudeDegrees>
              <LongitudeDegrees>-1.9165803305804729461669921875</LongitudeDegrees>
            </Position>
            <AltitudeMeters>535</AltitudeMeters>
            <DistanceMeters>NAN</DistanceMeters>
          </Trackpoint>
          <Trackpoint>
            <Time>2021-08-14T07:50:20.000Z</Time>
            <Position>
              <LatitudeDegrees>43.07552886195480823516845703125</LatitudeDegrees>
              <LongitudeDegrees>-1.916588880121707916259765625</LongitudeDegrees>
            </Position>
            <AltitudeMeters>535.5999755859375</AltitudeMeters>
            <DistanceMeters>NAN</DistanceMeters>
          </Trackpoint>
          <Trackpoint>
            <Time>2021-08-14T07:50:21.000Z</Time>
            <Position>
              <LatitudeDegrees>43.07551838457584381103515625</LatitudeDegrees>
              <LongitudeDegrees>-1.91659868694841861724853515625</LongitudeDegrees>
            </Position>
            <AltitudeMeters>535.79998779296875</AltitudeMeters>
            <DistanceMeters>NAN</DistanceMeters>
          </Trackpoint>
          <Trackpoint>
            <Time>2021-08-14T07:50:22.000Z</Time>
            <Position>
              <LatitudeDegrees>43.0755041353404521942138671875</LatitudeDegrees>
              <LongitudeDegrees>-1.91660891287028789520263671875</LongitudeDegrees>
            </Position>
            <AltitudeMeters>536.20001220703125</AltitudeMeters>
            <DistanceMeters>NAN</DistanceMeters>
          </Trackpoint>
          <Trackpoint>
            <Time>2021-08-14T07:50:23.000Z</Time>
            <Position>
              <LatitudeDegrees>43.07549231685698032379150390625</LatitudeDegrees>
              <LongitudeDegrees>-1.91661729477345943450927734375</LongitudeDegrees>
            </Position>
            <AltitudeMeters>536.5999755859375</AltitudeMeters>
            <DistanceMeters>NAN</DistanceMeters>
          </Trackpoint>
          <Trackpoint>
            <Time>2021-08-14T07:50:24.000Z</Time>
            <Position>
              <LatitudeDegrees>43.0754823423922061920166015625</LatitudeDegrees>
              <LongitudeDegrees>-1.91662542521953582763671875</LongitudeDegrees>
            </Position>
            <AltitudeMeters>536.79998779296875</AltitudeMeters>
            <DistanceMeters>NAN</DistanceMeters>
          </Trackpoint>
          <Trackpoint>
            <Time>2021-08-14T07:50:25.000Z</Time>
            <Position>
              <LatitudeDegrees>43.07547538541257381439208984375</LatitudeDegrees>
              <LongitudeDegrees>-1.916636489331722259521484375</LongitudeDegrees>
            </Position>
            <AltitudeMeters>537.4000244140625</AltitudeMeters>
            <DistanceMeters>NAN</DistanceMeters>
          </Trackpoint>
          <Trackpoint>
            <Time>2021-08-14T07:50:26.000Z</Time>
            <Position>
              <LatitudeDegrees>43.07546675205230712890625</LatitudeDegrees>
              <LongitudeDegrees>-1.9166490621864795684814453125</LongitudeDegrees>
            </Position>
            <AltitudeMeters>537.5999755859375</AltitudeMeters>
            <DistanceMeters>NAN</DistanceMeters>
          </Trackpoint>
          <Trackpoint>
            <Time>2021-08-14T07:50:27.000Z</Time>
            <Position>
              <LatitudeDegrees>43.075455687940120697021484375</LatitudeDegrees>
              <LongitudeDegrees>-1.91665635444223880767822265625</LongitudeDegrees>
            </Position>
            <AltitudeMeters>538.20001220703125</AltitudeMeters>
            <DistanceMeters>NAN</DistanceMeters>
          </Trackpoint>
          <Trackpoint>
            <Time>2021-08-14T07:50:28.000Z</Time>
            <Position>
              <LatitudeDegrees>43.075448311865329742431640625</LatitudeDegrees>
              <LongitudeDegrees>-1.9166604615747928619384765625</LongitudeDegrees>
            </Position>
            <AltitudeMeters>538.5999755859375</AltitudeMeters>
            <DistanceMeters>NAN</DistanceMeters>
          </Trackpoint>
          <Trackpoint>
            <Time>2021-08-14T07:50:29.000Z</Time>
            <Position>
              <LatitudeDegrees>43.0754501558840274810791015625</LatitudeDegrees>
              <LongitudeDegrees>-1.9166641496121883392333984375</LongitudeDegrees>
            </Position>
            <AltitudeMeters>538.79998779296875</AltitudeMeters>
            <DistanceMeters>NAN</DistanceMeters>
          </Trackpoint>
          <Trackpoint>
            <Time>2021-08-14T07:50:30.000Z</Time>
            <Position>
              <LatitudeDegrees>43.07545141316950321197509765625</LatitudeDegrees>
              <LongitudeDegrees>-1.9166542589664459228515625</LongitudeDegrees>
            </Position>
            <AltitudeMeters>539.20001220703125</AltitudeMeters>
            <DistanceMeters>NAN</DistanceMeters>
          </Trackpoint>
          <Trackpoint>
            <Time>2021-08-14T07:50:31.000Z</Time>
            <Position>
              <LatitudeDegrees>43.0754474736750125885009765625</LatitudeDegrees>
              <LongitudeDegrees>-1.91665099002420902252197265625</LongitudeDegrees>
            </Position>
            <AltitudeMeters>539.20001220703125</AltitudeMeters>
            <DistanceMeters>NAN</DistanceMeters>
          </Trackpoint>
          <Trackpoint>
            <Time>2021-08-14T07:50:32.000Z</Time>
            <Position>
              <LatitudeDegrees>43.0754431150853633880615234375</LatitudeDegrees>
              <LongitudeDegrees>-1.91665015183389186859130859375</LongitudeDegrees>
            </Position>
            <AltitudeMeters>539.5999755859375</AltitudeMeters>
            <DistanceMeters>NAN</DistanceMeters>
          </Trackpoint>
          <Trackpoint>
            <Time>2021-08-14T07:50:33.000Z</Time>
            <Position>
              <LatitudeDegrees>43.075437247753143310546875</LatitudeDegrees>
              <LongitudeDegrees>-1.91665350459516048431396484375</LongitudeDegrees>
            </Position>
            <AltitudeMeters>539.5999755859375</AltitudeMeters>
            <DistanceMeters>NAN</DistanceMeters>
          </Trackpoint>
          <Trackpoint>
            <Time>2021-08-14T07:50:34.000Z</Time>
            <Position>
              <LatitudeDegrees>43.07542894966900348663330078125</LatitudeDegrees>
              <LongitudeDegrees>-1.91665358841419219970703125</LongitudeDegrees>
            </Position>
            <AltitudeMeters>539.79998779296875</AltitudeMeters>
            <DistanceMeters>NAN</DistanceMeters>
          </Trackpoint>
          <Trackpoint>
            <Time>2021-08-14T07:56:04.000Z</Time>
            <Position>
              <LatitudeDegrees>43.07536893524229526519775390625</LatitudeDegrees>
              <LongitudeDegrees>-1.9167255051434040069580078125</LongitudeDegrees>
            </Position>
            <AltitudeMeters>540.20001220703125</AltitudeMeters>
            <DistanceMeters>NAN</DistanceMeters>
          </Trackpoint>
          <Trackpoint>
            <Time>2021-08-14T07:58:46.000Z</Time>
            <Position>
              <LatitudeDegrees>43.0753727070987224578857421875</LatitudeDegrees>
              <LongitudeDegrees>-1.91672600805759429931640625</LongitudeDegrees>
            </Position>
            <AltitudeMeters>540.20001220703125</AltitudeMeters>
            <DistanceMeters>NAN</DistanceMeters>
          </Trackpoint>
          <Trackpoint>
            <Time>2021-08-14T07:58:47.000Z</Time>
            <Position>
              <LatitudeDegrees>43.0753660015761852264404296875</LatitudeDegrees>
              <LongitudeDegrees>-1.9167348928749561309814453125</LongitudeDegrees>
            </Position>
            <AltitudeMeters>540.20001220703125</AltitudeMeters>
            <DistanceMeters>NAN</DistanceMeters>
          </Trackpoint>
          <Trackpoint>
            <Time>2021-08-14T07:58:50.000Z</Time>
            <Position>
              <LatitudeDegrees>43.075338341295719146728515625</LatitudeDegrees>
              <LongitudeDegrees>-1.91677068360149860382080078125</LongitudeDegrees>
            </Position>
            <AltitudeMeters>540.20001220703125</AltitudeMeters>
            <DistanceMeters>NAN</DistanceMeters>
          </Trackpoint>
          <Trackpoint>
            <Time>2021-08-14T07:58:55.000Z</Time>
            <Position>
              <LatitudeDegrees>43.07525745593011379241943359375</LatitudeDegrees>
              <LongitudeDegrees>-1.91688425838947296142578125</LongitudeDegrees>
            </Position>
            <AltitudeMeters>540.20001220703125</AltitudeMeters>
            <DistanceMeters>NAN</DistanceMeters>
          </Trackpoint>
          <Trackpoint>
            <Time>2021-08-14T07:58:56.000Z</Time>
            <Position>
              <LatitudeDegrees>43.075238764286041259765625</LatitudeDegrees>
              <LongitudeDegrees>-1.91690437495708465576171875</LongitudeDegrees>
            </Position>
            <AltitudeMeters>540.4000244140625</AltitudeMeters>
            <DistanceMeters>NAN</DistanceMeters>
          </Trackpoint>
          <Trackpoint>
            <Time>2021-08-14T07:59:02.000Z</Time>
            <Position>
              <LatitudeDegrees>43.07511068880558013916015625</LatitudeDegrees>
              <LongitudeDegrees>-1.9170262478291988372802734375</LongitudeDegrees>
            </Position>
            <AltitudeMeters>540.5999755859375</AltitudeMeters>
            <DistanceMeters>NAN</DistanceMeters>
          </Trackpoint>
          <Trackpoint>
            <Time>2021-08-14T07:59:07.000Z</Time>
            <Position>
              <LatitudeDegrees>43.074993006885051727294921875</LatitudeDegrees>
              <LongitudeDegrees>-1.91710595972836017608642578125</LongitudeDegrees>
            </Position>
            <AltitudeMeters>540.79998779296875</AltitudeMeters>
            <DistanceMeters>NAN</DistanceMeters>
          </Trackpoint>
          <Trackpoint>
            <Time>2021-08-14T07:59:08.000Z</Time>
            <Position>
              <LatitudeDegrees>43.07497280649840831756591796875</LatitudeDegrees>
              <LongitudeDegrees>-1.917122639715671539306640625</LongitudeDegrees>
            </Position>
            <AltitudeMeters>540.79998779296875</AltitudeMeters>
            <DistanceMeters>NAN</DistanceMeters>
          </Trackpoint>
          <Trackpoint>
            <Time>2021-08-14T07:59:13.000Z</Time>
            <Position>
              <LatitudeDegrees>43.074828721582889556884765625</LatitudeDegrees>
              <LongitudeDegrees>-1.91720101051032543182373046875</LongitudeDegrees>
            </Position>
            <AltitudeMeters>541</AltitudeMeters>
            <DistanceMeters>NAN</DistanceMeters>
          </Trackpoint>
          <Trackpoint>
            <Time>2021-08-14T07:59:20.000Z</Time>
            <Position>
              <LatitudeDegrees>43.074589334428310394287109375</LatitudeDegrees>
              <LongitudeDegrees>-1.91729505546391010284423828125</LongitudeDegrees>
            </Position>
            <AltitudeMeters>541.4000244140625</AltitudeMeters>
            <DistanceMeters>NAN</DistanceMeters>
          </Trackpoint>
          <Trackpoint>
            <Time>2021-08-14T07:59:21.000Z</Time>
            <Position>
              <LatitudeDegrees>43.07456024922430515289306640625</LatitudeDegrees>
              <LongitudeDegrees>-1.91730310209095478057861328125</LongitudeDegrees>
            </Position>
            <AltitudeMeters>541.5999755859375</AltitudeMeters>
            <DistanceMeters>NAN</DistanceMeters>
          </Trackpoint>
          <Trackpoint>
            <Time>2021-08-14T07:59:27.000Z</Time>
            <Position>
              <LatitudeDegrees>43.074348270893096923828125</LatitudeDegrees>
              <LongitudeDegrees>-1.9173216260969638824462890625</LongitudeDegrees>
            </Position>
            <AltitudeMeters>542</AltitudeMeters>
            <DistanceMeters>NAN</DistanceMeters>
          </Trackpoint>
          <Trackpoint>
            <Time>2021-08-14T07:59:28.000Z</Time>
            <Position>
              <LatitudeDegrees>43.07431784458458423614501953125</LatitudeDegrees>
              <LongitudeDegrees>-1.9173189438879489898681640625</LongitudeDegrees>
            </Position>
            <AltitudeMeters>542.20001220703125</AltitudeMeters>
            <DistanceMeters>NAN</DistanceMeters>
          </Trackpoint>
          <Trackpoint>
            <Time>2021-08-14T07:59:29.000Z</Time>
            <Position>
              <LatitudeDegrees>43.07429336942732334136962890625</LatitudeDegrees>
              <LongitudeDegrees>-1.91731165163218975067138671875</LongitudeDegrees>
            </Position>
            <AltitudeMeters>542.20001220703125</AltitudeMeters>
            <DistanceMeters>NAN</DistanceMeters>
          </Trackpoint>
          <Trackpoint>
            <Time>2021-08-14T07:59:30.000Z</Time>
            <Position>
              <LatitudeDegrees>43.07427761144936084747314453125</LatitudeDegrees>
              <LongitudeDegrees>-1.91729991696774959564208984375</LongitudeDegrees>
            </Position>
            <AltitudeMeters>542.20001220703125</AltitudeMeters>
            <DistanceMeters>NAN</DistanceMeters>
          </Trackpoint>
          <Trackpoint>
            <Time>2021-08-14T07:59:31.000Z</Time>
            <Position>
              <LatitudeDegrees>43.07426579296588897705078125</LatitudeDegrees>
              <LongitudeDegrees>-1.91729472018778324127197265625</LongitudeDegrees>
            </Position>
            <AltitudeMeters>542.4000244140625</AltitudeMeters>
            <DistanceMeters>NAN</DistanceMeters>
          </Trackpoint>
          <Trackpoint>
            <Time>2021-08-14T07:59:32.000Z</Time>
            <Position>
              <LatitudeDegrees>43.0742557346820831298828125</LatitudeDegrees>
              <LongitudeDegrees>-1.91729689948260784149169921875</LongitudeDegrees>
            </Position>
            <AltitudeMeters>542.4000244140625</AltitudeMeters>
            <DistanceMeters>NAN</DistanceMeters>
          </Trackpoint>
          <Trackpoint>
            <Time>2021-08-14T07:59:33.000Z</Time>
            <Position>
              <LatitudeDegrees>43.07425112463533878326416015625</LatitudeDegrees>
              <LongitudeDegrees>-1.91729991696774959564208984375</LongitudeDegrees>
            </Position>
            <AltitudeMeters>542.4000244140625</AltitudeMeters>
            <DistanceMeters>NAN</DistanceMeters>
          </Trackpoint>
          <Trackpoint>
            <Time>2021-08-14T07:59:36.000Z</Time>
            <Position>
              <LatitudeDegrees>43.0742471851408481597900390625</LatitudeDegrees>
              <LongitudeDegrees>-1.91730645485222339630126953125</LongitudeDegrees>
            </Position>
            <AltitudeMeters>542.5999755859375</AltitudeMeters>
            <DistanceMeters>NAN</DistanceMeters>
          </Trackpoint>
          <Trackpoint>
            <Time>2021-08-14T07:59:48.000Z</Time>
            <Position>
              <LatitudeDegrees>43.07424743659794330596923828125</LatitudeDegrees>
              <LongitudeDegrees>-1.91731248982250690460205078125</LongitudeDegrees>
            </Position>
            <AltitudeMeters>542.79998779296875</AltitudeMeters>
            <DistanceMeters>NAN</DistanceMeters>
          </Trackpoint>
          <Trackpoint>
            <Time>2021-08-14T07:59:49.000Z</Time>
            <Position>
              <LatitudeDegrees>43.07424475438892841339111328125</LatitudeDegrees>
              <LongitudeDegrees>-1.91731416620314121246337890625</LongitudeDegrees>
            </Position>
            <AltitudeMeters>542.79998779296875</AltitudeMeters>
            <DistanceMeters>NAN</DistanceMeters>
          </Trackpoint>
          <Trackpoint>
            <Time>2021-08-14T07:59:52.000Z</Time>
            <Position>
              <LatitudeDegrees>43.07418373413383960723876953125</LatitudeDegrees>
              <LongitudeDegrees>-1.917319111526012420654296875</LongitudeDegrees>
            </Position>
            <AltitudeMeters>542.79998779296875</AltitudeMeters>
            <DistanceMeters>NAN</DistanceMeters>
          </Trackpoint>
          <Trackpoint>
            <Time>2021-08-14T07:59:55.000Z</Time>
            <Position>
              <LatitudeDegrees>43.07411617599427700042724609375</LatitudeDegrees>
              <LongitudeDegrees>-1.91730142571032047271728515625</LongitudeDegrees>
            </Position>
            <AltitudeMeters>543</AltitudeMeters>
            <DistanceMeters>NAN</DistanceMeters>
          </Trackpoint>
          <Trackpoint>
            <Time>2021-08-14T07:59:59.000Z</Time>
            <Position>
              <LatitudeDegrees>43.07403755374252796173095703125</LatitudeDegrees>
              <LongitudeDegrees>-1.91726102493703365325927734375</LongitudeDegrees>
            </Position>
            <AltitudeMeters>543</AltitudeMeters>
            <DistanceMeters>NAN</DistanceMeters>
          </Trackpoint>
          <Trackpoint>
            <Time>2021-08-14T08:00:05.000Z</Time>
            <Position>
              <LatitudeDegrees>43.07388885878026485443115234375</LatitudeDegrees>
              <LongitudeDegrees>-1.91717938520014286041259765625</LongitudeDegrees>
            </Position>
            <AltitudeMeters>543.4000244140625</AltitudeMeters>
            <DistanceMeters>NAN</DistanceMeters>
          </Trackpoint>
          <Trackpoint>
            <Time>2021-08-14T08:00:06.000Z</Time>
            <Position>
              <LatitudeDegrees>43.073863126337528228759765625</LatitudeDegrees>
              <LongitudeDegrees>-1.91716329194605350494384765625</LongitudeDegrees>
            </Position>
            <AltitudeMeters>543.4000244140625</AltitudeMeters>
            <DistanceMeters>NAN</DistanceMeters>
          </Trackpoint>
          <Trackpoint>
            <Time>2021-08-14T08:00:07.000Z</Time>
            <Position>
              <LatitudeDegrees>43.07384158484637737274169921875</LatitudeDegrees>
              <LongitudeDegrees>-1.91714501939713954925537109375</LongitudeDegrees>
            </Position>
            <AltitudeMeters>543.4000244140625</AltitudeMeters>
            <DistanceMeters>NAN</DistanceMeters>
          </Trackpoint>
          <Trackpoint>
            <Time>2021-08-14T08:00:13.000Z</Time>
            <Position>
              <LatitudeDegrees>43.07372742332518100738525390625</LatitudeDegrees>
              <LongitudeDegrees>-1.91701107658445835113525390625</LongitudeDegrees>
            </Position>
            <AltitudeMeters>543.5999755859375</AltitudeMeters>
            <DistanceMeters>NAN</DistanceMeters>
          </Trackpoint>
          <Trackpoint>
            <Time>2021-08-14T08:00:20.000Z</Time>
            <Position>
              <LatitudeDegrees>43.0735786445438861846923828125</LatitudeDegrees>
              <LongitudeDegrees>-1.91685475409030914306640625</LongitudeDegrees>
            </Position>
            <AltitudeMeters>543.79998779296875</AltitudeMeters>
            <DistanceMeters>NAN</DistanceMeters>
          </Trackpoint>
          <Trackpoint>
            <Time>2021-08-14T08:00:25.000Z</Time>
            <Position>
              <LatitudeDegrees>43.07347320020198822021484375</LatitudeDegrees>
              <LongitudeDegrees>-1.91672156564891338348388671875</LongitudeDegrees>
            </Position>
            <AltitudeMeters>544</AltitudeMeters>
            <DistanceMeters>NAN</DistanceMeters>
          </Trackpoint>
          <Trackpoint>
            <Time>2021-08-14T08:00:32.000Z</Time>
            <Position>
              <LatitudeDegrees>43.0733412690460681915283203125</LatitudeDegrees>
              <LongitudeDegrees>-1.91647865809500217437744140625</LongitudeDegrees>
            </Position>
            <AltitudeMeters>544.4000244140625</AltitudeMeters>
            <DistanceMeters>NAN</DistanceMeters>
          </Trackpoint>
          <Trackpoint>
            <Time>2021-08-14T08:00:40.000Z</Time>
            <Position>
              <LatitudeDegrees>43.0731699429452419281005859375</LatitudeDegrees>
              <LongitudeDegrees>-1.91618529148399829864501953125</LongitudeDegrees>
            </Position>
            <AltitudeMeters>545</AltitudeMeters>
            <DistanceMeters>NAN</DistanceMeters>
          </Trackpoint>
          <Trackpoint>
            <Time>2021-08-14T08:00:42.000Z</Time>
            <Position>
              <LatitudeDegrees>43.07313029654324054718017578125</LatitudeDegrees>
              <LongitudeDegrees>-1.91611371003091335296630859375</LongitudeDegrees>
            </Position>
            <AltitudeMeters>545.20001220703125</AltitudeMeters>
            <DistanceMeters>NAN</DistanceMeters>
          </Trackpoint>
          <Trackpoint>
            <Time>2021-08-14T08:00:48.000Z</Time>
            <Position>
              <LatitudeDegrees>43.0729989521205425262451171875</LatitudeDegrees>
              <LongitudeDegrees>-1.915892846882343292236328125</LongitudeDegrees>
            </Position>
            <AltitudeMeters>546</AltitudeMeters>
            <DistanceMeters>NAN</DistanceMeters>
          </Trackpoint>
          <Trackpoint>
            <Time>2021-08-14T08:00:50.000Z</Time>
            <Position>
              <LatitudeDegrees>43.07295176200568675994873046875</LatitudeDegrees>
              <LongitudeDegrees>-1.915821097791194915771484375</LongitudeDegrees>
            </Position>
            <AltitudeMeters>546.20001220703125</AltitudeMeters>
            <DistanceMeters>NAN</DistanceMeters>
          </Trackpoint>
          <Trackpoint>
            <Time>2021-08-14T08:00:55.000Z</Time>
            <Position>
              <LatitudeDegrees>43.0728494189679622650146484375</LatitudeDegrees>
              <LongitudeDegrees>-1.915625296533107757568359375</LongitudeDegrees>
            </Position>
            <AltitudeMeters>546.79998779296875</AltitudeMeters>
            <DistanceMeters>NAN</DistanceMeters>
          </Trackpoint>
          <Trackpoint>
            <Time>2021-08-14T08:01:00.000Z</Time>
            <Position>
              <LatitudeDegrees>43.07275570929050445556640625</LatitudeDegrees>
              <LongitudeDegrees>-1.915429495275020599365234375</LongitudeDegrees>
            </Position>
            <AltitudeMeters>547.20001220703125</AltitudeMeters>
            <DistanceMeters>NAN</DistanceMeters>
          </Trackpoint>
          <Trackpoint>
            <Time>2021-08-14T08:01:01.000Z</Time>
            <Position>
              <LatitudeDegrees>43.07273349724709987640380859375</LatitudeDegrees>
              <LongitudeDegrees>-1.9153931178152561187744140625</LongitudeDegrees>
            </Position>
            <AltitudeMeters>547.20001220703125</AltitudeMeters>
            <DistanceMeters>NAN</DistanceMeters>
          </Trackpoint>
          <Trackpoint>
            <Time>2021-08-14T08:01:02.000Z</Time>
            <Position>
              <LatitudeDegrees>43.072710447013378143310546875</LatitudeDegrees>
              <LongitudeDegrees>-1.9153599254786968231201171875</LongitudeDegrees>
            </Position>
            <AltitudeMeters>547.20001220703125</AltitudeMeters>
            <DistanceMeters>NAN</DistanceMeters>
          </Trackpoint>
          <Trackpoint>
            <Time>2021-08-14T08:01:11.000Z</Time>
            <Position>
              <LatitudeDegrees>43.0725087784230709075927734375</LatitudeDegrees>
              <LongitudeDegrees>-1.915017776191234588623046875</LongitudeDegrees>
            </Position>
            <AltitudeMeters>548.20001220703125</AltitudeMeters>
            <DistanceMeters>NAN</DistanceMeters>
          </Trackpoint>
          <Trackpoint>
            <Time>2021-08-14T08:01:12.000Z</Time>
            <Position>
              <LatitudeDegrees>43.07248472236096858978271484375</LatitudeDegrees>
              <LongitudeDegrees>-1.91497880034148693084716796875</LongitudeDegrees>
            </Position>
            <AltitudeMeters>548.4000244140625</AltitudeMeters>
            <DistanceMeters>NAN</DistanceMeters>
          </Trackpoint>
          <Trackpoint>
            <Time>2021-08-14T08:01:17.000Z</Time>
            <Position>
              <LatitudeDegrees>43.072355724871158599853515625</LatitudeDegrees>
              <LongitudeDegrees>-1.91480462439358234405517578125</LongitudeDegrees>
            </Position>
            <AltitudeMeters>548.79998779296875</AltitudeMeters>
            <DistanceMeters>NAN</DistanceMeters>
          </Trackpoint>
          <Trackpoint>
            <Time>2021-08-14T08:01:20.000Z</Time>
            <Position>
              <LatitudeDegrees>43.07228456251323223114013671875</LatitudeDegrees>
              <LongitudeDegrees>-1.91469532437622547149658203125</LongitudeDegrees>
            </Position>
            <AltitudeMeters>549</AltitudeMeters>
            <DistanceMeters>NAN</DistanceMeters>
          </Trackpoint>
          <Trackpoint>
            <Time>2021-08-14T08:01:21.000Z</Time>
            <Position>
              <LatitudeDegrees>43.0722566507756710052490234375</LatitudeDegrees>
              <LongitudeDegrees>-1.9146638922393321990966796875</LongitudeDegrees>
            </Position>
            <AltitudeMeters>549</AltitudeMeters>
            <DistanceMeters>NAN</DistanceMeters>
          </Trackpoint>
          <Trackpoint>
            <Time>2021-08-14T08:01:25.000Z</Time>
            <Position>
              <LatitudeDegrees>43.0721483565866947174072265625</LatitudeDegrees>
              <LongitudeDegrees>-1.914544366300106048583984375</LongitudeDegrees>
            </Position>
            <AltitudeMeters>549.20001220703125</AltitudeMeters>
            <DistanceMeters>NAN</DistanceMeters>
          </Trackpoint>
          <Trackpoint>
            <Time>2021-08-14T08:01:32.000Z</Time>
            <Position>
              <LatitudeDegrees>43.07194710709154605865478515625</LatitudeDegrees>
              <LongitudeDegrees>-1.91439257003366947174072265625</LongitudeDegrees>
            </Position>
            <AltitudeMeters>549.5999755859375</AltitudeMeters>
            <DistanceMeters>NAN</DistanceMeters>
          </Trackpoint>
          <Trackpoint>
            <Time>2021-08-14T08:01:33.000Z</Time>
            <Position>
              <LatitudeDegrees>43.0719168484210968017578125</LatitudeDegrees>
              <LongitudeDegrees>-1.914377398788928985595703125</LongitudeDegrees>
            </Position>
            <AltitudeMeters>549.79998779296875</AltitudeMeters>
            <DistanceMeters>NAN</DistanceMeters>
          </Trackpoint>
          <Trackpoint>
            <Time>2021-08-14T08:01:34.000Z</Time>
            <Position>
              <LatitudeDegrees>43.0718871764838695526123046875</LatitudeDegrees>
              <LongitudeDegrees>-1.91436407156288623809814453125</LongitudeDegrees>
            </Position>
            <AltitudeMeters>549.79998779296875</AltitudeMeters>
            <DistanceMeters>NAN</DistanceMeters>
          </Trackpoint>
          <Trackpoint>
            <Time>2021-08-14T08:01:35.000Z</Time>
            <Position>
              <LatitudeDegrees>43.07185809127986431121826171875</LatitudeDegrees>
              <LongitudeDegrees>-1.9143569469451904296875</LongitudeDegrees>
            </Position>
            <AltitudeMeters>549.79998779296875</AltitudeMeters>
            <DistanceMeters>NAN</DistanceMeters>
          </Trackpoint>
          <Trackpoint>
            <Time>2021-08-14T08:01:36.000Z</Time>
            <Position>
              <LatitudeDegrees>43.07183093391358852386474609375</LatitudeDegrees>
              <LongitudeDegrees>-1.91434781067073345184326171875</LongitudeDegrees>
            </Position>
            <AltitudeMeters>549.79998779296875</AltitudeMeters>
            <DistanceMeters>NAN</DistanceMeters>
          </Trackpoint>
          <Trackpoint>
            <Time>2021-08-14T08:01:37.000Z</Time>
            <Position>
              <LatitudeDegrees>43.07180159725248813629150390625</LatitudeDegrees>
              <LongitudeDegrees>-1.91433339379727840423583984375</LongitudeDegrees>
            </Position>
            <AltitudeMeters>550</AltitudeMeters>
            <DistanceMeters>NAN</DistanceMeters>
          </Trackpoint>
          <Trackpoint>
            <Time>2021-08-14T08:01:38.000Z</Time>
            <Position>
              <LatitudeDegrees>43.07177008129656314849853515625</LatitudeDegrees>
              <LongitudeDegrees>-1.9143212400376796722412109375</LongitudeDegrees>
            </Position>
            <AltitudeMeters>550.20001220703125</AltitudeMeters>
            <DistanceMeters>NAN</DistanceMeters>
          </Trackpoint>
          <Trackpoint>
            <Time>2021-08-14T08:01:40.000Z</Time>
            <Position>
              <LatitudeDegrees>43.071708641946315765380859375</LatitudeDegrees>
              <LongitudeDegrees>-1.91431310959160327911376953125</LongitudeDegrees>
            </Position>
            <AltitudeMeters>550.20001220703125</AltitudeMeters>
            <DistanceMeters>NAN</DistanceMeters>
          </Trackpoint>
          <Trackpoint>
            <Time>2021-08-14T08:01:43.000Z</Time>
            <Position>
              <LatitudeDegrees>43.07162608020007610321044921875</LatitudeDegrees>
              <LongitudeDegrees>-1.9143168814480304718017578125</LongitudeDegrees>
            </Position>
            <AltitudeMeters>550.5999755859375</AltitudeMeters>
            <DistanceMeters>NAN</DistanceMeters>
          </Trackpoint>
          <Trackpoint>
            <Time>2021-08-14T08:01:44.000Z</Time>
            <Position>
              <LatitudeDegrees>43.07161183096468448638916015625</LatitudeDegrees>
              <LongitudeDegrees>-1.914322413504123687744140625</LongitudeDegrees>
            </Position>
            <AltitudeMeters>550.5999755859375</AltitudeMeters>
            <DistanceMeters>NAN</DistanceMeters>
          </Trackpoint>
          <Trackpoint>
            <Time>2021-08-14T08:01:45.000Z</Time>
            <Position>
              <LatitudeDegrees>43.0716058798134326934814453125</LatitudeDegrees>
              <LongitudeDegrees>-1.9143403507769107818603515625</LongitudeDegrees>
            </Position>
            <AltitudeMeters>550.79998779296875</AltitudeMeters>
            <DistanceMeters>NAN</DistanceMeters>
          </Trackpoint>
          <Trackpoint>
            <Time>2021-08-14T08:01:46.000Z</Time>
            <Position>
              <LatitudeDegrees>43.0716068856418132781982421875</LatitudeDegrees>
              <LongitudeDegrees>-1.9143584556877613067626953125</LongitudeDegrees>
            </Position>
            <AltitudeMeters>550.79998779296875</AltitudeMeters>
            <DistanceMeters>NAN</DistanceMeters>
          </Trackpoint>
          <Trackpoint>
            <Time>2021-08-14T08:02:26.000Z</Time>
            <Position>
              <LatitudeDegrees>43.0703646875917911529541015625</LatitudeDegrees>
              <LongitudeDegrees>-1.9138808548450469970703125</LongitudeDegrees>
            </Position>
            <AltitudeMeters>553.4000244140625</AltitudeMeters>
            <DistanceMeters>NAN</DistanceMeters>
          </Trackpoint>
          <Trackpoint>
            <Time>2021-08-14T08:02:27.000Z</Time>
            <Position>
              <LatitudeDegrees>43.0703182518482208251953125</LatitudeDegrees>
              <LongitudeDegrees>-1.91387272439897060394287109375</LongitudeDegrees>
            </Position>
            <AltitudeMeters>553.4000244140625</AltitudeMeters>
            <DistanceMeters>NAN</DistanceMeters>
          </Trackpoint>
          <Trackpoint>
            <Time>2021-08-14T08:02:28.000Z</Time>
            <Position>
              <LatitudeDegrees>43.070292435586452484130859375</LatitudeDegrees>
              <LongitudeDegrees>-1.91385830752551555633544921875</LongitudeDegrees>
            </Position>
            <AltitudeMeters>553.4000244140625</AltitudeMeters>
            <DistanceMeters>NAN</DistanceMeters>
          </Trackpoint>
          <Trackpoint>
            <Time>2021-08-14T08:02:29.000Z</Time>
            <Position>
              <LatitudeDegrees>43.07027399539947509765625</LatitudeDegrees>
              <LongitudeDegrees>-1.913844980299472808837890625</LongitudeDegrees>
            </Position>
            <AltitudeMeters>553.4000244140625</AltitudeMeters>
            <DistanceMeters>NAN</DistanceMeters>
          </Trackpoint>
          <Trackpoint>
            <Time>2021-08-14T08:02:30.000Z</Time>
            <Position>
              <LatitudeDegrees>43.07024206034839153289794921875</LatitudeDegrees>
              <LongitudeDegrees>-1.9138381071388721466064453125</LongitudeDegrees>
            </Position>
            <AltitudeMeters>553.4000244140625</AltitudeMeters>
            <DistanceMeters>NAN</DistanceMeters>
          </Trackpoint>
          <Trackpoint>
            <Time>2021-08-14T08:02:31.000Z</Time>
            <Position>
              <LatitudeDegrees>43.0702109634876251220703125</LatitudeDegrees>
              <LongitudeDegrees>-1.91380105912685394287109375</LongitudeDegrees>
            </Position>
            <AltitudeMeters>553.4000244140625</AltitudeMeters>
            <DistanceMeters>NAN</DistanceMeters>
          </Trackpoint>
          <Trackpoint>
            <Time>2021-08-14T08:02:32.000Z</Time>
            <Position>
              <LatitudeDegrees>43.070177100598812103271484375</LatitudeDegrees>
              <LongitudeDegrees>-1.9137834571301937103271484375</LongitudeDegrees>
            </Position>
            <AltitudeMeters>553.5999755859375</AltitudeMeters>
            <DistanceMeters>NAN</DistanceMeters>
          </Trackpoint>
          <Trackpoint>
            <Time>2021-08-14T08:02:33.000Z</Time>
            <Position>
              <LatitudeDegrees>43.07015656493604183197021484375</LatitudeDegrees>
              <LongitudeDegrees>-1.91375738941133022308349609375</LongitudeDegrees>
            </Position>
            <AltitudeMeters>553.5999755859375</AltitudeMeters>
            <DistanceMeters>NAN</DistanceMeters>
          </Trackpoint>
          <Trackpoint>
            <Time>2021-08-14T08:02:34.000Z</Time>
            <Position>
              <LatitudeDegrees>43.07013158686459064483642578125</LatitudeDegrees>
              <LongitudeDegrees>-1.91372805275022983551025390625</LongitudeDegrees>
            </Position>
            <AltitudeMeters>553.79998779296875</AltitudeMeters>
            <DistanceMeters>NAN</DistanceMeters>
          </Trackpoint>
          <Trackpoint>
            <Time>2021-08-14T08:02:35.000Z</Time>
            <Position>
              <LatitudeDegrees>43.07010979391634464263916015625</LatitudeDegrees>
              <LongitudeDegrees>-1.91369511187076568603515625</LongitudeDegrees>
            </Position>
            <AltitudeMeters>553.79998779296875</AltitudeMeters>
            <DistanceMeters>NAN</DistanceMeters>
          </Trackpoint>
          <Trackpoint>
            <Time>2021-08-14T08:02:36.000Z</Time>
            <Position>
              <LatitudeDegrees>43.0700857378542423248291015625</LatitudeDegrees>
              <LongitudeDegrees>-1.913669966161251068115234375</LongitudeDegrees>
            </Position>
            <AltitudeMeters>553.79998779296875</AltitudeMeters>
            <DistanceMeters>NAN</DistanceMeters>
          </Trackpoint>
          <Trackpoint>
            <Time>2021-08-14T08:02:37.000Z</Time>
            <Position>
              <LatitudeDegrees>43.0700619332492351531982421875</LatitudeDegrees>
              <LongitudeDegrees>-1.91364549100399017333984375</LongitudeDegrees>
            </Position>
            <AltitudeMeters>553.79998779296875</AltitudeMeters>
            <DistanceMeters>NAN</DistanceMeters>
          </Trackpoint>
          <Trackpoint>
            <Time>2021-08-14T08:02:38.000Z</Time>
            <Position>
              <LatitudeDegrees>43.07003133930265903472900390625</LatitudeDegrees>
              <LongitudeDegrees>-1.9136268831789493560791015625</LongitudeDegrees>
            </Position>
            <AltitudeMeters>553.79998779296875</AltitudeMeters>
            <DistanceMeters>NAN</DistanceMeters>
          </Trackpoint>
          <Trackpoint>
            <Time>2021-08-14T08:02:39.000Z</Time>
            <Position>
              <LatitudeDegrees>43.07000837288796901702880859375</LatitudeDegrees>
              <LongitudeDegrees>-1.91360450349748134613037109375</LongitudeDegrees>
            </Position>
            <AltitudeMeters>554</AltitudeMeters>
            <DistanceMeters>NAN</DistanceMeters>
          </Trackpoint>
          <Trackpoint>
            <Time>2021-08-14T08:02:40.000Z</Time>
            <Position>
              <LatitudeDegrees>43.0699824728071689605712890625</LatitudeDegrees>
              <LongitudeDegrees>-1.91358472220599651336669921875</LongitudeDegrees>
            </Position>
            <AltitudeMeters>554</AltitudeMeters>
            <DistanceMeters>NAN</DistanceMeters>
          </Trackpoint>
          <Trackpoint>
            <Time>2021-08-14T08:02:41.000Z</Time>
            <Position>
              <LatitudeDegrees>43.06995791383087635040283203125</LatitudeDegrees>
              <LongitudeDegrees>-1.91356234252452850341796875</LongitudeDegrees>
            </Position>
            <AltitudeMeters>554</AltitudeMeters>
            <DistanceMeters>NAN</DistanceMeters>
          </Trackpoint>
          <Trackpoint>
            <Time>2021-08-14T08:02:42.000Z</Time>
            <Position>
              <LatitudeDegrees>43.069935701787471771240234375</LatitudeDegrees>
              <LongitudeDegrees>-1.91353996284306049346923828125</LongitudeDegrees>
            </Position>
            <AltitudeMeters>553.79998779296875</AltitudeMeters>
            <DistanceMeters>NAN</DistanceMeters>
          </Trackpoint>
          <Trackpoint>
            <Time>2021-08-14T08:02:43.000Z</Time>
            <Position>
              <LatitudeDegrees>43.06991214863955974578857421875</LatitudeDegrees>
              <LongitudeDegrees>-1.9135175831615924835205078125</LongitudeDegrees>
            </Position>
            <AltitudeMeters>553.79998779296875</AltitudeMeters>
            <DistanceMeters>NAN</DistanceMeters>
          </Trackpoint>
          <Trackpoint>
            <Time>2021-08-14T08:02:44.000Z</Time>
            <Position>
              <LatitudeDegrees>43.0698889307677745819091796875</LatitudeDegrees>
              <LongitudeDegrees>-1.913494281470775604248046875</LongitudeDegrees>
            </Position>
            <AltitudeMeters>553.79998779296875</AltitudeMeters>
            <DistanceMeters>NAN</DistanceMeters>
          </Trackpoint>
          <Trackpoint>
            <Time>2021-08-14T08:02:45.000Z</Time>
            <Position>
              <LatitudeDegrees>43.06986219249665737152099609375</LatitudeDegrees>
              <LongitudeDegrees>-1.913473494350910186767578125</LongitudeDegrees>
            </Position>
            <AltitudeMeters>553.79998779296875</AltitudeMeters>
            <DistanceMeters>NAN</DistanceMeters>
          </Trackpoint>
          <Trackpoint>
            <Time>2021-08-14T08:02:46.000Z</Time>
            <Position>
              <LatitudeDegrees>43.06983436457812786102294921875</LatitudeDegrees>
              <LongitudeDegrees>-1.91345212049782276153564453125</LongitudeDegrees>
            </Position>
            <AltitudeMeters>554</AltitudeMeters>
            <DistanceMeters>NAN</DistanceMeters>
          </Trackpoint>
          <Trackpoint>
            <Time>2021-08-14T08:02:47.000Z</Time>
            <Position>
              <LatitudeDegrees>43.06980838067829608917236328125</LatitudeDegrees>
              <LongitudeDegrees>-1.91343015991151332855224609375</LongitudeDegrees>
            </Position>
            <AltitudeMeters>554</AltitudeMeters>
            <DistanceMeters>NAN</DistanceMeters>
          </Trackpoint>
          <Trackpoint>
            <Time>2021-08-14T08:02:48.000Z</Time>
            <Position>
              <LatitudeDegrees>43.0697833187878131866455078125</LatitudeDegrees>
              <LongitudeDegrees>-1.9134056009352207183837890625</LongitudeDegrees>
            </Position>
            <AltitudeMeters>554</AltitudeMeters>
            <DistanceMeters>NAN</DistanceMeters>
          </Trackpoint>
          <Trackpoint>
            <Time>2021-08-14T08:02:49.000Z</Time>
            <Position>
              <LatitudeDegrees>43.06975741870701313018798828125</LatitudeDegrees>
              <LongitudeDegrees>-1.91338120959699153900146484375</LongitudeDegrees>
            </Position>
            <AltitudeMeters>554</AltitudeMeters>
            <DistanceMeters>NAN</DistanceMeters>
          </Trackpoint>
          <Trackpoint>
            <Time>2021-08-14T08:02:50.000Z</Time>
            <Position>
              <LatitudeDegrees>43.06973285973072052001953125</LatitudeDegrees>
              <LongitudeDegrees>-1.91335841082036495208740234375</LongitudeDegrees>
            </Position>
            <AltitudeMeters>554.20001220703125</AltitudeMeters>
            <DistanceMeters>NAN</DistanceMeters>
          </Trackpoint>
          <Trackpoint>
            <Time>2021-08-14T08:02:51.000Z</Time>
            <Position>
              <LatitudeDegrees>43.069708384573459625244140625</LatitudeDegrees>
              <LongitudeDegrees>-1.91333577968180179595947265625</LongitudeDegrees>
            </Position>
            <AltitudeMeters>554.20001220703125</AltitudeMeters>
            <DistanceMeters>NAN</DistanceMeters>
          </Trackpoint>
          <Trackpoint>
            <Time>2021-08-14T08:02:52.000Z</Time>
            <Position>
              <LatitudeDegrees>43.06968382559716701507568359375</LatitudeDegrees>
              <LongitudeDegrees>-1.91331197507679462432861328125</LongitudeDegrees>
            </Position>
            <AltitudeMeters>554.20001220703125</AltitudeMeters>
            <DistanceMeters>NAN</DistanceMeters>
          </Trackpoint>
          <Trackpoint>
            <Time>2021-08-14T08:02:59.000Z</Time>
            <Position>
              <LatitudeDegrees>43.06950110010802745819091796875</LatitudeDegrees>
              <LongitudeDegrees>-1.9131477735936641693115234375</LongitudeDegrees>
            </Position>
            <AltitudeMeters>554.79998779296875</AltitudeMeters>
            <DistanceMeters>NAN</DistanceMeters>
          </Trackpoint>
          <Trackpoint>
            <Time>2021-08-14T08:03:06.000Z</Time>
            <Position>
              <LatitudeDegrees>43.06933111511170864105224609375</LatitudeDegrees>
              <LongitudeDegrees>-1.91297502256929874420166015625</LongitudeDegrees>
            </Position>
            <AltitudeMeters>555.20001220703125</AltitudeMeters>
            <DistanceMeters>NAN</DistanceMeters>
          </Trackpoint>
          <Trackpoint>
            <Time>2021-08-14T08:03:07.000Z</Time>
            <Position>
              <LatitudeDegrees>43.06930948980152606964111328125</LatitudeDegrees>
              <LongitudeDegrees>-1.91295272670686244964599609375</LongitudeDegrees>
            </Position>
            <AltitudeMeters>555.4000244140625</AltitudeMeters>
            <DistanceMeters>NAN</DistanceMeters>
          </Trackpoint>
          <Trackpoint>
            <Time>2021-08-14T08:03:08.000Z</Time>
            <Position>
              <LatitudeDegrees>43.0692894570529460906982421875</LatitudeDegrees>
              <LongitudeDegrees>-1.912925653159618377685546875</LongitudeDegrees>
            </Position>
            <AltitudeMeters>555.4000244140625</AltitudeMeters>
            <DistanceMeters>NAN</DistanceMeters>
          </Trackpoint>
          <Trackpoint>
            <Time>2021-08-14T08:03:09.000Z</Time>
            <Position>
              <LatitudeDegrees>43.06926473043859004974365234375</LatitudeDegrees>
              <LongitudeDegrees>-1.9129016809165477752685546875</LongitudeDegrees>
            </Position>
            <AltitudeMeters>555.5999755859375</AltitudeMeters>
            <DistanceMeters>NAN</DistanceMeters>
          </Trackpoint>
          <Trackpoint>
            <Time>2021-08-14T08:03:10.000Z</Time>
            <Position>
              <LatitudeDegrees>43.0692400038242340087890625</LatitudeDegrees>
              <LongitudeDegrees>-1.912877373397350311279296875</LongitudeDegrees>
            </Position>
            <AltitudeMeters>555.5999755859375</AltitudeMeters>
            <DistanceMeters>NAN</DistanceMeters>
          </Trackpoint>
          <Trackpoint>
            <Time>2021-08-14T08:03:13.000Z</Time>
            <Position>
              <LatitudeDegrees>43.0691630579531192779541015625</LatitudeDegrees>
              <LongitudeDegrees>-1.91280688159167766571044921875</LongitudeDegrees>
            </Position>
            <AltitudeMeters>555.79998779296875</AltitudeMeters>
            <DistanceMeters>NAN</DistanceMeters>
          </Trackpoint>
          <Trackpoint>
            <Time>2021-08-14T08:03:16.000Z</Time>
            <Position>
              <LatitudeDegrees>43.0690876208245754241943359375</LatitudeDegrees>
              <LongitudeDegrees>-1.912738569080829620361328125</LongitudeDegrees>
            </Position>
            <AltitudeMeters>555.79998779296875</AltitudeMeters>
            <DistanceMeters>NAN</DistanceMeters>
          </Trackpoint>
          <Trackpoint>
            <Time>2021-08-14T08:03:19.000Z</Time>
            <Position>
              <LatitudeDegrees>43.06901712901890277862548828125</LatitudeDegrees>
              <LongitudeDegrees>-1.912662796676158905029296875</LongitudeDegrees>
            </Position>
            <AltitudeMeters>556.20001220703125</AltitudeMeters>
            <DistanceMeters>NAN</DistanceMeters>
          </Trackpoint>
          <Trackpoint>
            <Time>2021-08-14T08:03:20.000Z</Time>
            <Position>
              <LatitudeDegrees>43.06899449788033962249755859375</LatitudeDegrees>
              <LongitudeDegrees>-1.91263739950954914093017578125</LongitudeDegrees>
            </Position>
            <AltitudeMeters>556.20001220703125</AltitudeMeters>
            <DistanceMeters>NAN</DistanceMeters>
          </Trackpoint>
          <Trackpoint>
            <Time>2021-08-14T08:03:22.000Z</Time>
            <Position>
              <LatitudeDegrees>43.06894772686064243316650390625</LatitudeDegrees>
              <LongitudeDegrees>-1.912591047585010528564453125</LongitudeDegrees>
            </Position>
            <AltitudeMeters>556.4000244140625</AltitudeMeters>
            <DistanceMeters>NAN</DistanceMeters>
          </Trackpoint>
          <Trackpoint>
            <Time>2021-08-14T08:03:26.000Z</Time>
            <Position>
              <LatitudeDegrees>43.06883976794779300689697265625</LatitudeDegrees>
              <LongitudeDegrees>-1.91250228323042392730712890625</LongitudeDegrees>
            </Position>
            <AltitudeMeters>556.79998779296875</AltitudeMeters>
            <DistanceMeters>NAN</DistanceMeters>
          </Trackpoint>
          <Trackpoint>
            <Time>2021-08-14T08:03:27.000Z</Time>
            <Position>
              <LatitudeDegrees>43.06881797499954700469970703125</LatitudeDegrees>
              <LongitudeDegrees>-1.9124799035489559173583984375</LongitudeDegrees>
            </Position>
            <AltitudeMeters>556.79998779296875</AltitudeMeters>
            <DistanceMeters>NAN</DistanceMeters>
          </Trackpoint>
          <Trackpoint>
            <Time>2021-08-14T08:03:33.000Z</Time>
            <Position>
              <LatitudeDegrees>43.06865922175347805023193359375</LatitudeDegrees>
              <LongitudeDegrees>-1.91234386526048183441162109375</LongitudeDegrees>
            </Position>
            <AltitudeMeters>557.20001220703125</AltitudeMeters>
            <DistanceMeters>NAN</DistanceMeters>
          </Trackpoint>
          <Trackpoint>
            <Time>2021-08-14T08:03:36.000Z</Time>
            <Position>
              <LatitudeDegrees>43.06857691146433353424072265625</LatitudeDegrees>
              <LongitudeDegrees>-1.9122676737606525421142578125</LongitudeDegrees>
            </Position>
            <AltitudeMeters>557.4000244140625</AltitudeMeters>
            <DistanceMeters>NAN</DistanceMeters>
          </Trackpoint>
          <Trackpoint>
            <Time>2021-08-14T08:03:39.000Z</Time>
            <Position>
              <LatitudeDegrees>43.06849124841392040252685546875</LatitudeDegrees>
              <LongitudeDegrees>-1.912200115621089935302734375</LongitudeDegrees>
            </Position>
            <AltitudeMeters>557.5999755859375</AltitudeMeters>
            <DistanceMeters>NAN</DistanceMeters>
          </Trackpoint>
          <Trackpoint>
            <Time>2021-08-14T08:03:41.000Z</Time>
            <Position>
              <LatitudeDegrees>43.0684418790042400360107421875</LatitudeDegrees>
              <LongitudeDegrees>-1.9121389277279376983642578125</LongitudeDegrees>
            </Position>
            <AltitudeMeters>558</AltitudeMeters>
            <DistanceMeters>NAN</DistanceMeters>
          </Trackpoint>
          <Trackpoint>
            <Time>2021-08-14T08:03:42.000Z</Time>
            <Position>
              <LatitudeDegrees>43.06841011159121990203857421875</LatitudeDegrees>
              <LongitudeDegrees>-1.9121141172945499420166015625</LongitudeDegrees>
            </Position>
            <AltitudeMeters>558</AltitudeMeters>
            <DistanceMeters>NAN</DistanceMeters>
          </Trackpoint>
          <Trackpoint>
            <Time>2021-08-14T08:03:43.000Z</Time>
            <Position>
              <LatitudeDegrees>43.06838597171008586883544921875</LatitudeDegrees>
              <LongitudeDegrees>-1.9120906479656696319580078125</LongitudeDegrees>
            </Position>
            <AltitudeMeters>558.20001220703125</AltitudeMeters>
            <DistanceMeters>NAN</DistanceMeters>
          </Trackpoint>
          <Trackpoint>
            <Time>2021-08-14T08:03:44.000Z</Time>
            <Position>
              <LatitudeDegrees>43.06835998781025409698486328125</LatitudeDegrees>
              <LongitudeDegrees>-1.9120644964277744293212890625</LongitudeDegrees>
            </Position>
            <AltitudeMeters>558.20001220703125</AltitudeMeters>
            <DistanceMeters>NAN</DistanceMeters>
          </Trackpoint>
          <Trackpoint>
            <Time>2021-08-14T08:03:45.000Z</Time>
            <Position>
              <LatitudeDegrees>43.06833366863429546356201171875</LatitudeDegrees>
              <LongitudeDegrees>-1.912036836147308349609375</LongitudeDegrees>
            </Position>
            <AltitudeMeters>558.20001220703125</AltitudeMeters>
            <DistanceMeters>NAN</DistanceMeters>
          </Trackpoint>
          <Trackpoint>
            <Time>2021-08-14T08:03:46.000Z</Time>
            <Position>
              <LatitudeDegrees>43.068310953676700592041015625</LatitudeDegrees>
              <LongitudeDegrees>-1.91201210953295230865478515625</LongitudeDegrees>
            </Position>
            <AltitudeMeters>558.4000244140625</AltitudeMeters>
            <DistanceMeters>NAN</DistanceMeters>
          </Trackpoint>
          <Trackpoint>
            <Time>2021-08-14T08:03:47.000Z</Time>
            <Position>
              <LatitudeDegrees>43.0682856403291225433349609375</LatitudeDegrees>
              <LongitudeDegrees>-1.911986880004405975341796875</LongitudeDegrees>
            </Position>
            <AltitudeMeters>558.4000244140625</AltitudeMeters>
            <DistanceMeters>NAN</DistanceMeters>
          </Trackpoint>
          <Trackpoint>
            <Time>2021-08-14T08:03:48.000Z</Time>
            <Position>
              <LatitudeDegrees>43.06825898587703704833984375</LatitudeDegrees>
              <LongitudeDegrees>-1.91196282394230365753173828125</LongitudeDegrees>
            </Position>
            <AltitudeMeters>558.4000244140625</AltitudeMeters>
            <DistanceMeters>NAN</DistanceMeters>
          </Trackpoint>
          <Trackpoint>
            <Time>2021-08-14T08:03:56.000Z</Time>
            <Position>
              <LatitudeDegrees>43.06801364757120609283447265625</LatitudeDegrees>
              <LongitudeDegrees>-1.91179133020341396331787109375</LongitudeDegrees>
            </Position>
            <AltitudeMeters>558.79998779296875</AltitudeMeters>
            <DistanceMeters>NAN</DistanceMeters>
          </Trackpoint>
          <Trackpoint>
            <Time>2021-08-14T08:04:02.000Z</Time>
            <Position>
              <LatitudeDegrees>43.0678390525281429290771484375</LatitudeDegrees>
              <LongitudeDegrees>-1.911709941923618316650390625</LongitudeDegrees>
            </Position>
            <AltitudeMeters>559</AltitudeMeters>
            <DistanceMeters>NAN</DistanceMeters>
          </Trackpoint>
          <Trackpoint>
            <Time>2021-08-14T08:04:03.000Z</Time>
            <Position>
              <LatitudeDegrees>43.067810721695423126220703125</LatitudeDegrees>
              <LongitudeDegrees>-1.911699883639812469482421875</LongitudeDegrees>
            </Position>
            <AltitudeMeters>559</AltitudeMeters>
            <DistanceMeters>NAN</DistanceMeters>
          </Trackpoint>
          <Trackpoint>
            <Time>2021-08-14T08:04:04.000Z</Time>
            <Position>
              <LatitudeDegrees>43.06778063066303730010986328125</LatitudeDegrees>
              <LongitudeDegrees>-1.911697201430797576904296875</LongitudeDegrees>
            </Position>
            <AltitudeMeters>559.20001220703125</AltitudeMeters>
            <DistanceMeters>NAN</DistanceMeters>
          </Trackpoint>
          <Trackpoint>
            <Time>2021-08-14T08:04:06.000Z</Time>
            <Position>
              <LatitudeDegrees>43.06771189905703067779541015625</LatitudeDegrees>
              <LongitudeDegrees>-1.91169711761176586151123046875</LongitudeDegrees>
            </Position>
            <AltitudeMeters>559.20001220703125</AltitudeMeters>
            <DistanceMeters>NAN</DistanceMeters>
          </Trackpoint>
          <Trackpoint>
            <Time>2021-08-14T08:04:07.000Z</Time>
            <Position>
              <LatitudeDegrees>43.06768423877656459808349609375</LatitudeDegrees>
              <LongitudeDegrees>-1.9116946868598461151123046875</LongitudeDegrees>
            </Position>
            <AltitudeMeters>559.4000244140625</AltitudeMeters>
            <DistanceMeters>NAN</DistanceMeters>
          </Trackpoint>
          <Trackpoint>
            <Time>2021-08-14T08:04:08.000Z</Time>
            <Position>
              <LatitudeDegrees>43.06765423156321048736572265625</LatitudeDegrees>
              <LongitudeDegrees>-1.911693513393402099609375</LongitudeDegrees>
            </Position>
            <AltitudeMeters>559.4000244140625</AltitudeMeters>
            <DistanceMeters>NAN</DistanceMeters>
          </Trackpoint>
          <Trackpoint>
            <Time>2021-08-14T08:04:09.000Z</Time>
            <Position>
              <LatitudeDegrees>43.0676201172173023223876953125</LatitudeDegrees>
              <LongitudeDegrees>-1.91169627942144870758056640625</LongitudeDegrees>
            </Position>
            <AltitudeMeters>559.5999755859375</AltitudeMeters>
            <DistanceMeters>NAN</DistanceMeters>
          </Trackpoint>
          <Trackpoint>
            <Time>2021-08-14T08:04:10.000Z</Time>
            <Position>
              <LatitudeDegrees>43.06759170256555080413818359375</LatitudeDegrees>
              <LongitudeDegrees>-1.9116950221359729766845703125</LongitudeDegrees>
            </Position>
            <AltitudeMeters>559.5999755859375</AltitudeMeters>
            <DistanceMeters>NAN</DistanceMeters>
          </Trackpoint>
          <Trackpoint>
            <Time>2021-08-14T08:04:12.000Z</Time>
            <Position>
              <LatitudeDegrees>43.06754107587039470672607421875</LatitudeDegrees>
              <LongitudeDegrees>-1.911701895296573638916015625</LongitudeDegrees>
            </Position>
            <AltitudeMeters>559.5999755859375</AltitudeMeters>
            <DistanceMeters>NAN</DistanceMeters>
          </Trackpoint>
          <Trackpoint>
            <Time>2021-08-14T08:04:13.000Z</Time>
            <Position>
              <LatitudeDegrees>43.06752674281597137451171875</LatitudeDegrees>
              <LongitudeDegrees>-1.911705918610095977783203125</LongitudeDegrees>
            </Position>
            <AltitudeMeters>559.79998779296875</AltitudeMeters>
            <DistanceMeters>NAN</DistanceMeters>
          </Trackpoint>
          <Trackpoint>
            <Time>2021-08-14T08:04:14.000Z</Time>
            <Position>
              <LatitudeDegrees>43.06751660071313381195068359375</LatitudeDegrees>
              <LongitudeDegrees>-1.9117069244384765625</LongitudeDegrees>
            </Position>
            <AltitudeMeters>559.79998779296875</AltitudeMeters>
            <DistanceMeters>NAN</DistanceMeters>
          </Trackpoint>
          <Trackpoint>
            <Time>2021-08-14T08:04:15.000Z</Time>
            <Position>
              <LatitudeDegrees>43.06751023046672344207763671875</LatitudeDegrees>
              <LongitudeDegrees>-1.91170491278171539306640625</LongitudeDegrees>
            </Position>
            <AltitudeMeters>560</AltitudeMeters>
            <DistanceMeters>NAN</DistanceMeters>
          </Trackpoint>
          <Trackpoint>
            <Time>2021-08-14T08:04:25.000Z</Time>
            <Position>
              <LatitudeDegrees>43.0671058036386966705322265625</LatitudeDegrees>
              <LongitudeDegrees>-1.91174070350825786590576171875</LongitudeDegrees>
            </Position>
            <AltitudeMeters>560.5999755859375</AltitudeMeters>
            <DistanceMeters>NAN</DistanceMeters>
          </Trackpoint>
          <Trackpoint>
            <Time>2021-08-14T08:04:26.000Z</Time>
            <Position>
              <LatitudeDegrees>43.0670783109962940216064453125</LatitudeDegrees>
              <LongitudeDegrees>-1.91176836378872394561767578125</LongitudeDegrees>
            </Position>
            <AltitudeMeters>560.5999755859375</AltitudeMeters>
            <DistanceMeters>NAN</DistanceMeters>
          </Trackpoint>
          <Trackpoint>
            <Time>2021-08-14T08:04:29.000Z</Time>
            <Position>
              <LatitudeDegrees>43.06698954664170742034912109375</LatitudeDegrees>
              <LongitudeDegrees>-1.91182469017803668975830078125</LongitudeDegrees>
            </Position>
            <AltitudeMeters>561</AltitudeMeters>
            <DistanceMeters>NAN</DistanceMeters>
          </Trackpoint>
          <Trackpoint>
            <Time>2021-08-14T08:04:32.000Z</Time>
            <Position>
              <LatitudeDegrees>43.066906146705150604248046875</LatitudeDegrees>
              <LongitudeDegrees>-1.911789067089557647705078125</LongitudeDegrees>
            </Position>
            <AltitudeMeters>561.20001220703125</AltitudeMeters>
            <DistanceMeters>NAN</DistanceMeters>
          </Trackpoint>
          <Trackpoint>
            <Time>2021-08-14T08:04:33.000Z</Time>
            <Position>
              <LatitudeDegrees>43.06687035597860813140869140625</LatitudeDegrees>
              <LongitudeDegrees>-1.91179367713630199432373046875</LongitudeDegrees>
            </Position>
            <AltitudeMeters>561.20001220703125</AltitudeMeters>
            <DistanceMeters>NAN</DistanceMeters>
          </Trackpoint>
          <Trackpoint>
            <Time>2021-08-14T08:04:34.000Z</Time>
            <Position>
              <LatitudeDegrees>43.06682693772017955780029296875</LatitudeDegrees>
              <LongitudeDegrees>-1.91180256195366382598876953125</LongitudeDegrees>
            </Position>
            <AltitudeMeters>561.4000244140625</AltitudeMeters>
            <DistanceMeters>NAN</DistanceMeters>
          </Trackpoint>
          <Trackpoint>
            <Time>2021-08-14T08:04:35.000Z</Time>
            <Position>
              <LatitudeDegrees>43.0667916499078273773193359375</LatitudeDegrees>
              <LongitudeDegrees>-1.91181194968521595001220703125</LongitudeDegrees>
            </Position>
            <AltitudeMeters>561.5999755859375</AltitudeMeters>
            <DistanceMeters>NAN</DistanceMeters>
          </Trackpoint>
          <Trackpoint>
            <Time>2021-08-14T08:04:36.000Z</Time>
            <Position>
              <LatitudeDegrees>43.06676038540899753570556640625</LatitudeDegrees>
              <LongitudeDegrees>-1.91182385198771953582763671875</LongitudeDegrees>
            </Position>
            <AltitudeMeters>561.5999755859375</AltitudeMeters>
            <DistanceMeters>NAN</DistanceMeters>
          </Trackpoint>
          <Trackpoint>
            <Time>2021-08-14T08:04:37.000Z</Time>
            <Position>
              <LatitudeDegrees>43.06672937236726284027099609375</LatitudeDegrees>
              <LongitudeDegrees>-1.9118311442434787750244140625</LongitudeDegrees>
            </Position>
            <AltitudeMeters>561.5999755859375</AltitudeMeters>
            <DistanceMeters>NAN</DistanceMeters>
          </Trackpoint>
          <Trackpoint>
            <Time>2021-08-14T08:04:38.000Z</Time>
            <Position>
              <LatitudeDegrees>43.0667011253535747528076171875</LatitudeDegrees>
              <LongitudeDegrees>-1.9118348322808742523193359375</LongitudeDegrees>
            </Position>
            <AltitudeMeters>561.5999755859375</AltitudeMeters>
            <DistanceMeters>NAN</DistanceMeters>
          </Trackpoint>
          <Trackpoint>
            <Time>2021-08-14T08:04:39.000Z</Time>
            <Position>
              <LatitudeDegrees>43.0666719563305377960205078125</LatitudeDegrees>
              <LongitudeDegrees>-1.91183726303279399871826171875</LongitudeDegrees>
            </Position>
            <AltitudeMeters>561.5999755859375</AltitudeMeters>
            <DistanceMeters>NAN</DistanceMeters>
          </Trackpoint>
          <Trackpoint>
            <Time>2021-08-14T08:04:40.000Z</Time>
            <Position>
              <LatitudeDegrees>43.06664203293621540069580078125</LatitudeDegrees>
              <LongitudeDegrees>-1.91183843649923801422119140625</LongitudeDegrees>
            </Position>
            <AltitudeMeters>561.5999755859375</AltitudeMeters>
            <DistanceMeters>NAN</DistanceMeters>
          </Trackpoint>
          <Trackpoint>
            <Time>2021-08-14T08:04:41.000Z</Time>
            <Position>
              <LatitudeDegrees>43.06661101989448070526123046875</LatitudeDegrees>
              <LongitudeDegrees>-1.9118412025272846221923828125</LongitudeDegrees>
            </Position>
            <AltitudeMeters>561.79998779296875</AltitudeMeters>
            <DistanceMeters>NAN</DistanceMeters>
          </Trackpoint>
          <Trackpoint>
            <Time>2021-08-14T08:04:42.000Z</Time>
            <Position>
              <LatitudeDegrees>43.06657866574823856353759765625</LatitudeDegrees>
              <LongitudeDegrees>-1.9118448905646800994873046875</LongitudeDegrees>
            </Position>
            <AltitudeMeters>561.79998779296875</AltitudeMeters>
            <DistanceMeters>NAN</DistanceMeters>
          </Trackpoint>
          <Trackpoint>
            <Time>2021-08-14T08:04:43.000Z</Time>
            <Position>
              <LatitudeDegrees>43.06654505431652069091796875</LatitudeDegrees>
              <LongitudeDegrees>-1.91184883005917072296142578125</LongitudeDegrees>
            </Position>
            <AltitudeMeters>561.79998779296875</AltitudeMeters>
            <DistanceMeters>NAN</DistanceMeters>
          </Trackpoint>
          <Trackpoint>
            <Time>2021-08-14T08:04:45.000Z</Time>
            <Position>
              <LatitudeDegrees>43.066483028233051300048828125</LatitudeDegrees>
              <LongitudeDegrees>-1.9118559546768665313720703125</LongitudeDegrees>
            </Position>
            <AltitudeMeters>561.79998779296875</AltitudeMeters>
            <DistanceMeters>NAN</DistanceMeters>
          </Trackpoint>
          <Trackpoint>
            <Time>2021-08-14T08:04:47.000Z</Time>
            <Position>
              <LatitudeDegrees>43.06643240153789520263671875</LatitudeDegrees>
              <LongitudeDegrees>-1.911862827837467193603515625</LongitudeDegrees>
            </Position>
            <AltitudeMeters>561.79998779296875</AltitudeMeters>
            <DistanceMeters>NAN</DistanceMeters>
          </Trackpoint>
          <Trackpoint>
            <Time>2021-08-14T08:04:48.000Z</Time>
            <Position>
              <LatitudeDegrees>43.06641186587512493133544921875</LatitudeDegrees>
              <LongitudeDegrees>-1.9118686951696872711181640625</LongitudeDegrees>
            </Position>
            <AltitudeMeters>562</AltitudeMeters>
            <DistanceMeters>NAN</DistanceMeters>
          </Trackpoint>
          <Trackpoint>
            <Time>2021-08-14T08:04:49.000Z</Time>
            <Position>
              <LatitudeDegrees>43.0663950182497501373291015625</LatitudeDegrees>
              <LongitudeDegrees>-1.91187196411192417144775390625</LongitudeDegrees>
            </Position>
            <AltitudeMeters>562</AltitudeMeters>
            <DistanceMeters>NAN</DistanceMeters>
          </Trackpoint>
          <Trackpoint>
            <Time>2021-08-14T08:04:50.000Z</Time>
            <Position>
              <LatitudeDegrees>43.066378422081470489501953125</LatitudeDegrees>
              <LongitudeDegrees>-1.9118737243115901947021484375</LongitudeDegrees>
            </Position>
            <AltitudeMeters>562.20001220703125</AltitudeMeters>
            <DistanceMeters>NAN</DistanceMeters>
          </Trackpoint>
          <Trackpoint>
            <Time>2021-08-14T08:04:51.000Z</Time>
            <Position>
              <LatitudeDegrees>43.066359646618366241455078125</LatitudeDegrees>
              <LongitudeDegrees>-1.91187665797770023345947265625</LongitudeDegrees>
            </Position>
            <AltitudeMeters>562.20001220703125</AltitudeMeters>
            <DistanceMeters>NAN</DistanceMeters>
          </Trackpoint>
          <Trackpoint>
            <Time>2021-08-14T08:04:56.000Z</Time>
            <Position>
              <LatitudeDegrees>43.066242635250091552734375</LatitudeDegrees>
              <LongitudeDegrees>-1.91187783144414424896240234375</LongitudeDegrees>
            </Position>
            <AltitudeMeters>562.4000244140625</AltitudeMeters>
            <DistanceMeters>NAN</DistanceMeters>
          </Trackpoint>
          <Trackpoint>
            <Time>2021-08-14T08:04:57.000Z</Time>
            <Position>
              <LatitudeDegrees>43.066226877272129058837890625</LatitudeDegrees>
              <LongitudeDegrees>-1.91187431104481220245361328125</LongitudeDegrees>
            </Position>
            <AltitudeMeters>562.5999755859375</AltitudeMeters>
            <DistanceMeters>NAN</DistanceMeters>
          </Trackpoint>
          <Trackpoint>
            <Time>2021-08-14T08:04:58.000Z</Time>
            <Position>
              <LatitudeDegrees>43.06621271185576915740966796875</LatitudeDegrees>
              <LongitudeDegrees>-1.91187229938805103302001953125</LongitudeDegrees>
            </Position>
            <AltitudeMeters>562.5999755859375</AltitudeMeters>
            <DistanceMeters>NAN</DistanceMeters>
          </Trackpoint>
          <Trackpoint>
            <Time>2021-08-14T08:04:59.000Z</Time>
            <Position>
              <LatitudeDegrees>43.06619695387780666351318359375</LatitudeDegrees>
              <LongitudeDegrees>-1.91187464632093906402587890625</LongitudeDegrees>
            </Position>
            <AltitudeMeters>562.5999755859375</AltitudeMeters>
            <DistanceMeters>NAN</DistanceMeters>
          </Trackpoint>
          <Trackpoint>
            <Time>2021-08-14T08:05:00.000Z</Time>
            <Position>
              <LatitudeDegrees>43.06618086062371730804443359375</LatitudeDegrees>
              <LongitudeDegrees>-1.9118754006922245025634765625</LongitudeDegrees>
            </Position>
            <AltitudeMeters>562.79998779296875</AltitudeMeters>
            <DistanceMeters>NAN</DistanceMeters>
          </Trackpoint>
          <Trackpoint>
            <Time>2021-08-14T08:05:01.000Z</Time>
            <Position>
              <LatitudeDegrees>43.06616242043673992156982421875</LatitudeDegrees>
              <LongitudeDegrees>-1.91186877898871898651123046875</LongitudeDegrees>
            </Position>
            <AltitudeMeters>562.79998779296875</AltitudeMeters>
            <DistanceMeters>NAN</DistanceMeters>
          </Trackpoint>
          <Trackpoint>
            <Time>2021-08-14T08:05:02.000Z</Time>
            <Position>
              <LatitudeDegrees>43.0661392025649547576904296875</LatitudeDegrees>
              <LongitudeDegrees>-1.91186324693262577056884765625</LongitudeDegrees>
            </Position>
            <AltitudeMeters>562.79998779296875</AltitudeMeters>
            <DistanceMeters>NAN</DistanceMeters>
          </Trackpoint>
          <Trackpoint>
            <Time>2021-08-14T08:05:05.000Z</Time>
            <Position>
              <LatitudeDegrees>43.06607072241604328155517578125</LatitudeDegrees>
              <LongitudeDegrees>-1.9118542782962322235107421875</LongitudeDegrees>
            </Position>
            <AltitudeMeters>563</AltitudeMeters>
            <DistanceMeters>NAN</DistanceMeters>
          </Trackpoint>
          <Trackpoint>
            <Time>2021-08-14T08:05:06.000Z</Time>
            <Position>
              <LatitudeDegrees>43.0660513602197170257568359375</LatitudeDegrees>
              <LongitudeDegrees>-1.91186190582811832427978515625</LongitudeDegrees>
            </Position>
            <AltitudeMeters>563</AltitudeMeters>
            <DistanceMeters>NAN</DistanceMeters>
          </Trackpoint>
          <Trackpoint>
            <Time>2021-08-14T08:05:07.000Z</Time>
            <Position>
              <LatitudeDegrees>43.0660362727940082550048828125</LatitudeDegrees>
              <LongitudeDegrees>-1.91187791526317596435546875</LongitudeDegrees>
            </Position>
            <AltitudeMeters>563</AltitudeMeters>
            <DistanceMeters>NAN</DistanceMeters>
          </Trackpoint>
          <Trackpoint>
            <Time>2021-08-14T08:05:08.000Z</Time>
            <Position>
              <LatitudeDegrees>43.0660275556147098541259765625</LatitudeDegrees>
              <LongitudeDegrees>-1.91189057193696498870849609375</LongitudeDegrees>
            </Position>
            <AltitudeMeters>563.20001220703125</AltitudeMeters>
            <DistanceMeters>NAN</DistanceMeters>
          </Trackpoint>
          <Trackpoint>
            <Time>2021-08-14T08:05:09.000Z</Time>
            <Position>
              <LatitudeDegrees>43.0660228617489337921142578125</LatitudeDegrees>
              <LongitudeDegrees>-1.9118945114314556121826171875</LongitudeDegrees>
            </Position>
            <AltitudeMeters>563.20001220703125</AltitudeMeters>
            <DistanceMeters>NAN</DistanceMeters>
          </Trackpoint>
          <Trackpoint>
            <Time>2021-08-14T08:05:10.000Z</Time>
            <Position>
              <LatitudeDegrees>43.0660178326070308685302734375</LatitudeDegrees>
              <LongitudeDegrees>-1.911902390420436859130859375</LongitudeDegrees>
            </Position>
            <AltitudeMeters>563.4000244140625</AltitudeMeters>
            <DistanceMeters>NAN</DistanceMeters>
          </Trackpoint>
          <Trackpoint>
            <Time>2021-08-14T08:05:11.000Z</Time>
            <Position>
              <LatitudeDegrees>43.06601372547447681427001953125</LatitudeDegrees>
              <LongitudeDegrees>-1.9119116105139255523681640625</LongitudeDegrees>
            </Position>
            <AltitudeMeters>563.4000244140625</AltitudeMeters>
            <DistanceMeters>NAN</DistanceMeters>
          </Trackpoint>
          <Trackpoint>
            <Time>2021-08-14T08:05:12.000Z</Time>
            <Position>
              <LatitudeDegrees>43.0660104565322399139404296875</LatitudeDegrees>
              <LongitudeDegrees>-1.91191705875098705291748046875</LongitudeDegrees>
            </Position>
            <AltitudeMeters>563.5999755859375</AltitudeMeters>
            <DistanceMeters>NAN</DistanceMeters>
          </Trackpoint>
          <Trackpoint>
            <Time>2021-08-14T08:05:18.000Z</Time>
            <Position>
              <LatitudeDegrees>43.0660091154277324676513671875</LatitudeDegrees>
              <LongitudeDegrees>-1.91191990859806537628173828125</LongitudeDegrees>
            </Position>
            <AltitudeMeters>563.79998779296875</AltitudeMeters>
            <DistanceMeters>NAN</DistanceMeters>
          </Trackpoint>
          <Trackpoint>
            <Time>2021-08-14T08:07:08.000Z</Time>
            <Position>
              <LatitudeDegrees>43.06605513207614421844482421875</LatitudeDegrees>
              <LongitudeDegrees>-1.9118609838187694549560546875</LongitudeDegrees>
            </Position>
            <AltitudeMeters>564</AltitudeMeters>
            <DistanceMeters>NAN</DistanceMeters>
          </Trackpoint>
          <Trackpoint>
            <Time>2021-08-14T08:09:27.000Z</Time>
            <Position>
              <LatitudeDegrees>43.06603250093758106231689453125</LatitudeDegrees>
              <LongitudeDegrees>-1.91189593635499477386474609375</LongitudeDegrees>
            </Position>
            <AltitudeMeters>563.5999755859375</AltitudeMeters>
            <DistanceMeters>NAN</DistanceMeters>
          </Trackpoint>
          <Trackpoint>
            <Time>2021-08-14T08:09:36.000Z</Time>
            <Position>
              <LatitudeDegrees>43.06602965109050273895263671875</LatitudeDegrees>
              <LongitudeDegrees>-1.9118960201740264892578125</LongitudeDegrees>
            </Position>
            <AltitudeMeters>563.79998779296875</AltitudeMeters>
            <DistanceMeters>NAN</DistanceMeters>
          </Trackpoint>
          <Trackpoint>
            <Time>2021-08-14T08:09:38.000Z</Time>
            <Position>
              <LatitudeDegrees>43.0660027451813220977783203125</LatitudeDegrees>
              <LongitudeDegrees>-1.91188235767185688018798828125</LongitudeDegrees>
            </Position>
            <AltitudeMeters>563.79998779296875</AltitudeMeters>
            <DistanceMeters>NAN</DistanceMeters>
          </Trackpoint>
          <Trackpoint>
            <Time>2021-08-14T08:09:39.000Z</Time>
            <Position>
              <LatitudeDegrees>43.06598723866045475006103515625</LatitudeDegrees>
              <LongitudeDegrees>-1.91186559386551380157470703125</LongitudeDegrees>
            </Position>
            <AltitudeMeters>563.79998779296875</AltitudeMeters>
            <DistanceMeters>NAN</DistanceMeters>
          </Trackpoint>
          <Trackpoint>
            <Time>2021-08-14T08:09:40.000Z</Time>
            <Position>
              <LatitudeDegrees>43.06596879847347736358642578125</LatitudeDegrees>
              <LongitudeDegrees>-1.911847405135631561279296875</LongitudeDegrees>
            </Position>
            <AltitudeMeters>563.79998779296875</AltitudeMeters>
            <DistanceMeters>NAN</DistanceMeters>
          </Trackpoint>
          <Trackpoint>
            <Time>2021-08-14T08:09:41.000Z</Time>
            <Position>
              <LatitudeDegrees>43.06594767607748508453369140625</LatitudeDegrees>
              <LongitudeDegrees>-1.91182502545416355133056640625</LongitudeDegrees>
            </Position>
            <AltitudeMeters>563.79998779296875</AltitudeMeters>
            <DistanceMeters>NAN</DistanceMeters>
          </Trackpoint>
          <Trackpoint>
            <Time>2021-08-14T08:09:45.000Z</Time>
            <Position>
              <LatitudeDegrees>43.06584038771688938140869140625</LatitudeDegrees>
              <LongitudeDegrees>-1.91174824722111225128173828125</LongitudeDegrees>
            </Position>
            <AltitudeMeters>563.79998779296875</AltitudeMeters>
            <DistanceMeters>NAN</DistanceMeters>
          </Trackpoint>
          <Trackpoint>
            <Time>2021-08-14T08:09:53.000Z</Time>
            <Position>
              <LatitudeDegrees>43.06563913822174072265625</LatitudeDegrees>
              <LongitudeDegrees>-1.91156635992228984832763671875</LongitudeDegrees>
            </Position>
            <AltitudeMeters>563.79998779296875</AltitudeMeters>
            <DistanceMeters>NAN</DistanceMeters>
          </Trackpoint>
          <Trackpoint>
            <Time>2021-08-14T08:10:01.000Z</Time>
            <Position>
              <LatitudeDegrees>43.0654438398778438568115234375</LatitudeDegrees>
              <LongitudeDegrees>-1.91130853258073329925537109375</LongitudeDegrees>
            </Position>
            <AltitudeMeters>564.4000244140625</AltitudeMeters>
            <DistanceMeters>NAN</DistanceMeters>
          </Trackpoint>
          <Trackpoint>
            <Time>2021-08-14T08:10:12.000Z</Time>
            <Position>
              <LatitudeDegrees>43.06521727703511714935302734375</LatitudeDegrees>
              <LongitudeDegrees>-1.9109077937901020050048828125</LongitudeDegrees>
            </Position>
            <AltitudeMeters>565.20001220703125</AltitudeMeters>
            <DistanceMeters>NAN</DistanceMeters>
          </Trackpoint>
          <Trackpoint>
            <Time>2021-08-14T08:10:13.000Z</Time>
            <Position>
              <LatitudeDegrees>43.0651964060962200164794921875</LatitudeDegrees>
              <LongitudeDegrees>-1.91087150014936923980712890625</LongitudeDegrees>
            </Position>
            <AltitudeMeters>565.4000244140625</AltitudeMeters>
            <DistanceMeters>NAN</DistanceMeters>
          </Trackpoint>
          <Trackpoint>
            <Time>2021-08-14T08:10:14.000Z</Time>
            <Position>
              <LatitudeDegrees>43.06517587043344974517822265625</LatitudeDegrees>
              <LongitudeDegrees>-1.91083453595638275146484375</LongitudeDegrees>
            </Position>
            <AltitudeMeters>565.5999755859375</AltitudeMeters>
            <DistanceMeters>NAN</DistanceMeters>
          </Trackpoint>
          <Trackpoint>
            <Time>2021-08-14T08:10:20.000Z</Time>
            <Position>
              <LatitudeDegrees>43.06505617685616016387939453125</LatitudeDegrees>
              <LongitudeDegrees>-1.91060964949429035186767578125</LongitudeDegrees>
            </Position>
            <AltitudeMeters>565.79998779296875</AltitudeMeters>
            <DistanceMeters>NAN</DistanceMeters>
          </Trackpoint>
          <Trackpoint>
            <Time>2021-08-14T08:10:26.000Z</Time>
            <Position>
              <LatitudeDegrees>43.06494855321943759918212890625</LatitudeDegrees>
              <LongitudeDegrees>-1.9103944860398769378662109375</LongitudeDegrees>
            </Position>
            <AltitudeMeters>566.4000244140625</AltitudeMeters>
            <DistanceMeters>NAN</DistanceMeters>
          </Trackpoint>
          <Trackpoint>
            <Time>2021-08-14T08:10:27.000Z</Time>
            <Position>
              <LatitudeDegrees>43.0649338848888874053955078125</LatitudeDegrees>
              <LongitudeDegrees>-1.9103671610355377197265625</LongitudeDegrees>
            </Position>
            <AltitudeMeters>566.4000244140625</AltitudeMeters>
            <DistanceMeters>NAN</DistanceMeters>
          </Trackpoint>
          <Trackpoint>
            <Time>2021-08-14T08:10:28.000Z</Time>
            <Position>
              <LatitudeDegrees>43.06491871364414691925048828125</LatitudeDegrees>
              <LongitudeDegrees>-1.91033899784088134765625</LongitudeDegrees>
            </Position>
            <AltitudeMeters>566.5999755859375</AltitudeMeters>
            <DistanceMeters>NAN</DistanceMeters>
          </Trackpoint>
          <Trackpoint>
            <Time>2021-08-14T08:10:29.000Z</Time>
            <Position>
              <LatitudeDegrees>43.0649043805897235870361328125</LatitudeDegrees>
              <LongitudeDegrees>-1.9103059731423854827880859375</LongitudeDegrees>
            </Position>
            <AltitudeMeters>566.5999755859375</AltitudeMeters>
            <DistanceMeters>NAN</DistanceMeters>
          </Trackpoint>
          <Trackpoint>
            <Time>2021-08-14T08:10:30.000Z</Time>
            <Position>
              <LatitudeDegrees>43.064889125525951385498046875</LatitudeDegrees>
              <LongitudeDegrees>-1.910271942615509033203125</LongitudeDegrees>
            </Position>
            <AltitudeMeters>566.5999755859375</AltitudeMeters>
            <DistanceMeters>NAN</DistanceMeters>
          </Trackpoint>
          <Trackpoint>
            <Time>2021-08-14T08:10:31.000Z</Time>
            <Position>
              <LatitudeDegrees>43.064875714480876922607421875</LatitudeDegrees>
              <LongitudeDegrees>-1.91023380495607852935791015625</LongitudeDegrees>
            </Position>
            <AltitudeMeters>566.5999755859375</AltitudeMeters>
            <DistanceMeters>NAN</DistanceMeters>
          </Trackpoint>
          <Trackpoint>
            <Time>2021-08-14T08:10:32.000Z</Time>
            <Position>
              <LatitudeDegrees>43.0648638121783733367919921875</LatitudeDegrees>
              <LongitudeDegrees>-1.91019642166793346405029296875</LongitudeDegrees>
            </Position>
            <AltitudeMeters>566.5999755859375</AltitudeMeters>
            <DistanceMeters>NAN</DistanceMeters>
          </Trackpoint>
          <Trackpoint>
            <Time>2021-08-14T08:10:33.000Z</Time>
            <Position>
              <LatitudeDegrees>43.06485031731426715850830078125</LatitudeDegrees>
              <LongitudeDegrees>-1.91016289405524730682373046875</LongitudeDegrees>
            </Position>
            <AltitudeMeters>566.79998779296875</AltitudeMeters>
            <DistanceMeters>NAN</DistanceMeters>
          </Trackpoint>
          <Trackpoint>
            <Time>2021-08-14T08:10:34.000Z</Time>
            <Position>
              <LatitudeDegrees>43.06483590044081211090087890625</LatitudeDegrees>
              <LongitudeDegrees>-1.91013322211802005767822265625</LongitudeDegrees>
            </Position>
            <AltitudeMeters>566.79998779296875</AltitudeMeters>
            <DistanceMeters>NAN</DistanceMeters>
          </Trackpoint>
          <Trackpoint>
            <Time>2021-08-14T08:10:40.000Z</Time>
            <Position>
              <LatitudeDegrees>43.0647447891533374786376953125</LatitudeDegrees>
              <LongitudeDegrees>-1.90992803312838077545166015625</LongitudeDegrees>
            </Position>
            <AltitudeMeters>567.4000244140625</AltitudeMeters>
            <DistanceMeters>NAN</DistanceMeters>
          </Trackpoint>
          <Trackpoint>
            <Time>2021-08-14T08:10:41.000Z</Time>
            <Position>
              <LatitudeDegrees>43.064732216298580169677734375</LatitudeDegrees>
              <LongitudeDegrees>-1.9098982773721218109130859375</LongitudeDegrees>
            </Position>
            <AltitudeMeters>567.4000244140625</AltitudeMeters>
            <DistanceMeters>NAN</DistanceMeters>
          </Trackpoint>
          <Trackpoint>
            <Time>2021-08-14T08:10:42.000Z</Time>
            <Position>
              <LatitudeDegrees>43.06471905671060085296630859375</LatitudeDegrees>
              <LongitudeDegrees>-1.90985728986561298370361328125</LongitudeDegrees>
            </Position>
            <AltitudeMeters>567.5999755859375</AltitudeMeters>
            <DistanceMeters>NAN</DistanceMeters>
          </Trackpoint>
          <Trackpoint>
            <Time>2021-08-14T08:10:45.000Z</Time>
            <Position>
              <LatitudeDegrees>43.0646789073944091796875</LatitudeDegrees>
              <LongitudeDegrees>-1.90975687466561794281005859375</LongitudeDegrees>
            </Position>
            <AltitudeMeters>567.79998779296875</AltitudeMeters>
            <DistanceMeters>NAN</DistanceMeters>
          </Trackpoint>
          <Trackpoint>
            <Time>2021-08-14T08:10:46.000Z</Time>
            <Position>
              <LatitudeDegrees>43.06466608308255672454833984375</LatitudeDegrees>
              <LongitudeDegrees>-1.90972150303423404693603515625</LongitudeDegrees>
            </Position>
            <AltitudeMeters>568</AltitudeMeters>
            <DistanceMeters>NAN</DistanceMeters>
          </Trackpoint>
          <Trackpoint>
            <Time>2021-08-14T08:10:47.000Z</Time>
            <Position>
              <LatitudeDegrees>43.06465233676135540008544921875</LatitudeDegrees>
              <LongitudeDegrees>-1.909685544669628143310546875</LongitudeDegrees>
            </Position>
            <AltitudeMeters>568</AltitudeMeters>
            <DistanceMeters>NAN</DistanceMeters>
          </Trackpoint>
          <Trackpoint>
            <Time>2021-08-14T08:10:48.000Z</Time>
            <Position>
              <LatitudeDegrees>43.06463758461177349090576171875</LatitudeDegrees>
              <LongitudeDegrees>-1.90965981222689151763916015625</LongitudeDegrees>
            </Position>
            <AltitudeMeters>568</AltitudeMeters>
            <DistanceMeters>NAN</DistanceMeters>
          </Trackpoint>
          <Trackpoint>
            <Time>2021-08-14T08:10:49.000Z</Time>
            <Position>
              <LatitudeDegrees>43.06461562402546405792236328125</LatitudeDegrees>
              <LongitudeDegrees>-1.9096347503364086151123046875</LongitudeDegrees>
            </Position>
            <AltitudeMeters>568.20001220703125</AltitudeMeters>
            <DistanceMeters>NAN</DistanceMeters>
          </Trackpoint>
          <Trackpoint>
            <Time>2021-08-14T08:10:50.000Z</Time>
            <Position>
              <LatitudeDegrees>43.064594753086566925048828125</LatitudeDegrees>
              <LongitudeDegrees>-1.90960398875176906585693359375</LongitudeDegrees>
            </Position>
            <AltitudeMeters>568.20001220703125</AltitudeMeters>
            <DistanceMeters>NAN</DistanceMeters>
          </Trackpoint>
          <Trackpoint>
            <Time>2021-08-14T08:10:51.000Z</Time>
            <Position>
              <LatitudeDegrees>43.06457488797605037689208984375</LatitudeDegrees>
              <LongitudeDegrees>-1.9095759093761444091796875</LongitudeDegrees>
            </Position>
            <AltitudeMeters>568.20001220703125</AltitudeMeters>
            <DistanceMeters>NAN</DistanceMeters>
          </Trackpoint>
          <Trackpoint>
            <Time>2021-08-14T08:10:52.000Z</Time>
            <Position>
              <LatitudeDegrees>43.06455393321812152862548828125</LatitudeDegrees>
              <LongitudeDegrees>-1.9095502607524394989013671875</LongitudeDegrees>
            </Position>
            <AltitudeMeters>568.20001220703125</AltitudeMeters>
            <DistanceMeters>NAN</DistanceMeters>
          </Trackpoint>
          <Trackpoint>
            <Time>2021-08-14T08:10:53.000Z</Time>
            <Position>
              <LatitudeDegrees>43.0645372532308101654052734375</LatitudeDegrees>
              <LongitudeDegrees>-1.90952033735811710357666015625</LongitudeDegrees>
            </Position>
            <AltitudeMeters>568.4000244140625</AltitudeMeters>
            <DistanceMeters>NAN</DistanceMeters>
          </Trackpoint>
          <Trackpoint>
            <Time>2021-08-14T08:10:54.000Z</Time>
            <Position>
              <LatitudeDegrees>43.06451923213899135589599609375</LatitudeDegrees>
              <LongitudeDegrees>-1.90949837677180767059326171875</LongitudeDegrees>
            </Position>
            <AltitudeMeters>568.5999755859375</AltitudeMeters>
            <DistanceMeters>NAN</DistanceMeters>
          </Trackpoint>
          <Trackpoint>
            <Time>2021-08-14T08:10:55.000Z</Time>
            <Position>
              <LatitudeDegrees>43.0644926615059375762939453125</LatitudeDegrees>
              <LongitudeDegrees>-1.9094775058329105377197265625</LongitudeDegrees>
            </Position>
            <AltitudeMeters>568.5999755859375</AltitudeMeters>
            <DistanceMeters>NAN</DistanceMeters>
          </Trackpoint>
          <Trackpoint>
            <Time>2021-08-14T08:10:56.000Z</Time>
            <Position>
              <LatitudeDegrees>43.06447950191795825958251953125</LatitudeDegrees>
              <LongitudeDegrees>-1.909453533589839935302734375</LongitudeDegrees>
            </Position>
            <AltitudeMeters>568.79998779296875</AltitudeMeters>
            <DistanceMeters>NAN</DistanceMeters>
          </Trackpoint>
          <Trackpoint>
            <Time>2021-08-14T08:10:57.000Z</Time>
            <Position>
              <LatitudeDegrees>43.0644715391099452972412109375</LatitudeDegrees>
              <LongitudeDegrees>-1.909415982663631439208984375</LongitudeDegrees>
            </Position>
            <AltitudeMeters>568.79998779296875</AltitudeMeters>
            <DistanceMeters>NAN</DistanceMeters>
          </Trackpoint>
          <Trackpoint>
            <Time>2021-08-14T08:11:01.000Z</Time>
            <Position>
              <LatitudeDegrees>43.0643932521343231201171875</LatitudeDegrees>
              <LongitudeDegrees>-1.909259743988513946533203125</LongitudeDegrees>
            </Position>
            <AltitudeMeters>569</AltitudeMeters>
            <DistanceMeters>NAN</DistanceMeters>
          </Trackpoint>
          <Trackpoint>
            <Time>2021-08-14T08:11:04.000Z</Time>
            <Position>
              <LatitudeDegrees>43.06431806646287441253662109375</LatitudeDegrees>
              <LongitudeDegrees>-1.90919495187699794769287109375</LongitudeDegrees>
            </Position>
            <AltitudeMeters>569.20001220703125</AltitudeMeters>
            <DistanceMeters>NAN</DistanceMeters>
          </Trackpoint>
          <Trackpoint>
            <Time>2021-08-14T08:11:05.000Z</Time>
            <Position>
              <LatitudeDegrees>43.06429543532431125640869140625</LatitudeDegrees>
              <LongitudeDegrees>-1.909161508083343505859375</LongitudeDegrees>
            </Position>
            <AltitudeMeters>569.20001220703125</AltitudeMeters>
            <DistanceMeters>NAN</DistanceMeters>
          </Trackpoint>
          <Trackpoint>
            <Time>2021-08-14T08:11:06.000Z</Time>
            <Position>
              <LatitudeDegrees>43.0642844550311565399169921875</LatitudeDegrees>
              <LongitudeDegrees>-1.909130327403545379638671875</LongitudeDegrees>
            </Position>
            <AltitudeMeters>569.20001220703125</AltitudeMeters>
            <DistanceMeters>NAN</DistanceMeters>
          </Trackpoint>
          <Trackpoint>
            <Time>2021-08-14T08:11:07.000Z</Time>
            <Position>
              <LatitudeDegrees>43.0642653442919254302978515625</LatitudeDegrees>
              <LongitudeDegrees>-1.90909202210605144500732421875</LongitudeDegrees>
            </Position>
            <AltitudeMeters>569.20001220703125</AltitudeMeters>
            <DistanceMeters>NAN</DistanceMeters>
          </Trackpoint>
          <Trackpoint>
            <Time>2021-08-14T08:11:09.000Z</Time>
            <Position>
              <LatitudeDegrees>43.064214549958705902099609375</LatitudeDegrees>
              <LongitudeDegrees>-1.909009627997875213623046875</LongitudeDegrees>
            </Position>
            <AltitudeMeters>569.4000244140625</AltitudeMeters>
            <DistanceMeters>NAN</DistanceMeters>
          </Trackpoint>
          <Trackpoint>
            <Time>2021-08-14T08:11:12.000Z</Time>
            <Position>
              <LatitudeDegrees>43.06415042839944362640380859375</LatitudeDegrees>
              <LongitudeDegrees>-1.90893176011741161346435546875</LongitudeDegrees>
            </Position>
            <AltitudeMeters>569.79998779296875</AltitudeMeters>
            <DistanceMeters>NAN</DistanceMeters>
          </Trackpoint>
          <Trackpoint>
            <Time>2021-08-14T08:11:13.000Z</Time>
            <Position>
              <LatitudeDegrees>43.06411908008158206939697265625</LatitudeDegrees>
              <LongitudeDegrees>-1.9088978134095668792724609375</LongitudeDegrees>
            </Position>
            <AltitudeMeters>569.79998779296875</AltitudeMeters>
            <DistanceMeters>NAN</DistanceMeters>
          </Trackpoint>
          <Trackpoint>
            <Time>2021-08-14T08:11:18.000Z</Time>
            <Position>
              <LatitudeDegrees>43.06399754248559474945068359375</LatitudeDegrees>
              <LongitudeDegrees>-1.908744759857654571533203125</LongitudeDegrees>
            </Position>
            <AltitudeMeters>570</AltitudeMeters>
            <DistanceMeters>NAN</DistanceMeters>
          </Trackpoint>
          <Trackpoint>
            <Time>2021-08-14T08:11:25.000Z</Time>
            <Position>
              <LatitudeDegrees>43.06380006484687328338623046875</LatitudeDegrees>
              <LongitudeDegrees>-1.90859681926667690277099609375</LongitudeDegrees>
            </Position>
            <AltitudeMeters>570</AltitudeMeters>
            <DistanceMeters>NAN</DistanceMeters>
          </Trackpoint>
          <Trackpoint>
            <Time>2021-08-14T08:11:26.000Z</Time>
            <Position>
              <LatitudeDegrees>43.06377441622316837310791015625</LatitudeDegrees>
              <LongitudeDegrees>-1.9085772894322872161865234375</LongitudeDegrees>
            </Position>
            <AltitudeMeters>570</AltitudeMeters>
            <DistanceMeters>NAN</DistanceMeters>
          </Trackpoint>
          <Trackpoint>
            <Time>2021-08-14T08:11:30.000Z</Time>
            <Position>
              <LatitudeDegrees>43.0636610090732574462890625</LatitudeDegrees>
              <LongitudeDegrees>-1.90850176848471164703369140625</LongitudeDegrees>
            </Position>
            <AltitudeMeters>570.20001220703125</AltitudeMeters>
            <DistanceMeters>NAN</DistanceMeters>
          </Trackpoint>
          <Trackpoint>
            <Time>2021-08-14T08:11:31.000Z</Time>
            <Position>
              <LatitudeDegrees>43.06363024748861789703369140625</LatitudeDegrees>
              <LongitudeDegrees>-1.90848668105900287628173828125</LongitudeDegrees>
            </Position>
            <AltitudeMeters>570.4000244140625</AltitudeMeters>
            <DistanceMeters>NAN</DistanceMeters>
          </Trackpoint>
          <Trackpoint>
            <Time>2021-08-14T08:11:33.000Z</Time>
            <Position>
              <LatitudeDegrees>43.0635786987841129302978515625</LatitudeDegrees>
              <LongitudeDegrees>-1.90846455283463001251220703125</LongitudeDegrees>
            </Position>
            <AltitudeMeters>570.5999755859375</AltitudeMeters>
            <DistanceMeters>NAN</DistanceMeters>
          </Trackpoint>
          <Trackpoint>
            <Time>2021-08-14T08:11:34.000Z</Time>
            <Position>
              <LatitudeDegrees>43.06354927830398082733154296875</LatitudeDegrees>
              <LongitudeDegrees>-1.9084493815898895263671875</LongitudeDegrees>
            </Position>
            <AltitudeMeters>570.4000244140625</AltitudeMeters>
            <DistanceMeters>NAN</DistanceMeters>
          </Trackpoint>
          <Trackpoint>
            <Time>2021-08-14T08:11:35.000Z</Time>
            <Position>
              <LatitudeDegrees>43.06352681480348110198974609375</LatitudeDegrees>
              <LongitudeDegrees>-1.90843270160257816314697265625</LongitudeDegrees>
            </Position>
            <AltitudeMeters>570.4000244140625</AltitudeMeters>
            <DistanceMeters>NAN</DistanceMeters>
          </Trackpoint>
          <Trackpoint>
            <Time>2021-08-14T08:11:36.000Z</Time>
            <Position>
              <LatitudeDegrees>43.06350518949329853057861328125</LatitudeDegrees>
              <LongitudeDegrees>-1.908421553671360015869140625</LongitudeDegrees>
            </Position>
            <AltitudeMeters>570.5999755859375</AltitudeMeters>
            <DistanceMeters>NAN</DistanceMeters>
          </Trackpoint>
          <Trackpoint>
            <Time>2021-08-14T08:11:37.000Z</Time>
            <Position>
              <LatitudeDegrees>43.06348406709730625152587890625</LatitudeDegrees>
              <LongitudeDegrees>-1.90841308794915676116943359375</LongitudeDegrees>
            </Position>
            <AltitudeMeters>570.5999755859375</AltitudeMeters>
            <DistanceMeters>NAN</DistanceMeters>
          </Trackpoint>
          <Trackpoint>
            <Time>2021-08-14T08:11:38.000Z</Time>
            <Position>
              <LatitudeDegrees>43.06346596218645572662353515625</LatitudeDegrees>
              <LongitudeDegrees>-1.90841023810207843780517578125</LongitudeDegrees>
            </Position>
            <AltitudeMeters>570.79998779296875</AltitudeMeters>
            <DistanceMeters>NAN</DistanceMeters>
          </Trackpoint>
          <Trackpoint>
            <Time>2021-08-14T08:11:39.000Z</Time>
            <Position>
              <LatitudeDegrees>43.06345380842685699462890625</LatitudeDegrees>
              <LongitudeDegrees>-1.90840973518788814544677734375</LongitudeDegrees>
            </Position>
            <AltitudeMeters>570.79998779296875</AltitudeMeters>
            <DistanceMeters>NAN</DistanceMeters>
          </Trackpoint>
          <Trackpoint>
            <Time>2021-08-14T08:11:40.000Z</Time>
            <Position>
              <LatitudeDegrees>43.06343394331634044647216796875</LatitudeDegrees>
              <LongitudeDegrees>-1.90840847790241241455078125</LongitudeDegrees>
            </Position>
            <AltitudeMeters>570.79998779296875</AltitudeMeters>
            <DistanceMeters>NAN</DistanceMeters>
          </Trackpoint>
          <Trackpoint>
            <Time>2021-08-14T08:11:41.000Z</Time>
            <Position>
              <LatitudeDegrees>43.06341550312936305999755859375</LatitudeDegrees>
              <LongitudeDegrees>-1.908408142626285552978515625</LongitudeDegrees>
            </Position>
            <AltitudeMeters>571</AltitudeMeters>
            <DistanceMeters>NAN</DistanceMeters>
          </Trackpoint>
          <Trackpoint>
            <Time>2021-08-14T08:11:42.000Z</Time>
            <Position>
              <LatitudeDegrees>43.063410222530364990234375</LatitudeDegrees>
              <LongitudeDegrees>-1.90839984454214572906494140625</LongitudeDegrees>
            </Position>
            <AltitudeMeters>571.20001220703125</AltitudeMeters>
            <DistanceMeters>NAN</DistanceMeters>
          </Trackpoint>
          <Trackpoint>
            <Time>2021-08-14T08:11:43.000Z</Time>
            <Position>
              <LatitudeDegrees>43.0633983202278614044189453125</LatitudeDegrees>
              <LongitudeDegrees>-1.90840453840792179107666015625</LongitudeDegrees>
            </Position>
            <AltitudeMeters>571.20001220703125</AltitudeMeters>
            <DistanceMeters>NAN</DistanceMeters>
          </Trackpoint>
          <Trackpoint>
            <Time>2021-08-14T08:11:44.000Z</Time>
            <Position>
              <LatitudeDegrees>43.063362948596477508544921875</LatitudeDegrees>
              <LongitudeDegrees>-1.9084287621080875396728515625</LongitudeDegrees>
            </Position>
            <AltitudeMeters>571.4000244140625</AltitudeMeters>
            <DistanceMeters>NAN</DistanceMeters>
          </Trackpoint>
          <Trackpoint>
            <Time>2021-08-14T08:12:10.000Z</Time>
            <Position>
              <LatitudeDegrees>43.06259776465594768524169921875</LatitudeDegrees>
              <LongitudeDegrees>-1.9083298556506633758544921875</LongitudeDegrees>
            </Position>
            <AltitudeMeters>573.4000244140625</AltitudeMeters>
            <DistanceMeters>NAN</DistanceMeters>
          </Trackpoint>
          <Trackpoint>
            <Time>2021-08-14T08:12:11.000Z</Time>
            <Position>
              <LatitudeDegrees>43.0625490657985210418701171875</LatitudeDegrees>
              <LongitudeDegrees>-1.9083197973668575286865234375</LongitudeDegrees>
            </Position>
            <AltitudeMeters>573.4000244140625</AltitudeMeters>
            <DistanceMeters>NAN</DistanceMeters>
          </Trackpoint>
          <Trackpoint>
            <Time>2021-08-14T08:12:13.000Z</Time>
            <Position>
              <LatitudeDegrees>43.06251981295645236968994140625</LatitudeDegrees>
              <LongitudeDegrees>-1.90834787674248218536376953125</LongitudeDegrees>
            </Position>
            <AltitudeMeters>573.4000244140625</AltitudeMeters>
            <DistanceMeters>NAN</DistanceMeters>
          </Trackpoint>
          <Trackpoint>
            <Time>2021-08-14T08:12:14.000Z</Time>
            <Position>
              <LatitudeDegrees>43.06250120513141155242919921875</LatitudeDegrees>
              <LongitudeDegrees>-1.90834251232445240020751953125</LongitudeDegrees>
            </Position>
            <AltitudeMeters>573.4000244140625</AltitudeMeters>
            <DistanceMeters>NAN</DistanceMeters>
          </Trackpoint>
          <Trackpoint>
            <Time>2021-08-14T08:12:15.000Z</Time>
            <Position>
              <LatitudeDegrees>43.06247639469802379608154296875</LatitudeDegrees>
              <LongitudeDegrees>-1.9083479605615139007568359375</LongitudeDegrees>
            </Position>
            <AltitudeMeters>573.5999755859375</AltitudeMeters>
            <DistanceMeters>NAN</DistanceMeters>
          </Trackpoint>
          <Trackpoint>
            <Time>2021-08-14T08:12:16.000Z</Time>
            <Position>
              <LatitudeDegrees>43.0624459683895111083984375</LatitudeDegrees>
              <LongitudeDegrees>-1.9083486311137676239013671875</LongitudeDegrees>
            </Position>
            <AltitudeMeters>573.5999755859375</AltitudeMeters>
            <DistanceMeters>NAN</DistanceMeters>
          </Trackpoint>
          <Trackpoint>
            <Time>2021-08-14T08:12:17.000Z</Time>
            <Position>
              <LatitudeDegrees>43.0624250136315822601318359375</LatitudeDegrees>
              <LongitudeDegrees>-1.90834972076117992401123046875</LongitudeDegrees>
            </Position>
            <AltitudeMeters>573.5999755859375</AltitudeMeters>
            <DistanceMeters>NAN</DistanceMeters>
          </Trackpoint>
          <Trackpoint>
            <Time>2021-08-14T08:12:18.000Z</Time>
            <Position>
              <LatitudeDegrees>43.06239827536046504974365234375</LatitudeDegrees>
              <LongitudeDegrees>-1.9083513133227825164794921875</LongitudeDegrees>
            </Position>
            <AltitudeMeters>573.5999755859375</AltitudeMeters>
            <DistanceMeters>NAN</DistanceMeters>
          </Trackpoint>
          <Trackpoint>
            <Time>2021-08-14T08:12:19.000Z</Time>
            <Position>
              <LatitudeDegrees>43.06237212382256984710693359375</LatitudeDegrees>
              <LongitudeDegrees>-1.908352486789226531982421875</LongitudeDegrees>
            </Position>
            <AltitudeMeters>573.5999755859375</AltitudeMeters>
            <DistanceMeters>NAN</DistanceMeters>
          </Trackpoint>
          <Trackpoint>
            <Time>2021-08-14T08:12:20.000Z</Time>
            <Position>
              <LatitudeDegrees>43.06234496645629405975341796875</LatitudeDegrees>
              <LongitudeDegrees>-1.908354498445987701416015625</LongitudeDegrees>
            </Position>
            <AltitudeMeters>573.5999755859375</AltitudeMeters>
            <DistanceMeters>NAN</DistanceMeters>
          </Trackpoint>
          <Trackpoint>
            <Time>2021-08-14T08:12:21.000Z</Time>
            <Position>
              <LatitudeDegrees>43.06231780909001827239990234375</LatitudeDegrees>
              <LongitudeDegrees>-1.90835625864565372467041015625</LongitudeDegrees>
            </Position>
            <AltitudeMeters>573.5999755859375</AltitudeMeters>
            <DistanceMeters>NAN</DistanceMeters>
          </Trackpoint>
          <Trackpoint>
            <Time>2021-08-14T08:12:22.000Z</Time>
            <Position>
              <LatitudeDegrees>43.06229299865663051605224609375</LatitudeDegrees>
              <LongitudeDegrees>-1.9083550013601779937744140625</LongitudeDegrees>
            </Position>
            <AltitudeMeters>573.5999755859375</AltitudeMeters>
            <DistanceMeters>NAN</DistanceMeters>
          </Trackpoint>
          <Trackpoint>
            <Time>2021-08-14T08:12:23.000Z</Time>
            <Position>
              <LatitudeDegrees>43.06226768530905246734619140625</LatitudeDegrees>
              <LongitudeDegrees>-1.90835483372211456298828125</LongitudeDegrees>
            </Position>
            <AltitudeMeters>573.5999755859375</AltitudeMeters>
            <DistanceMeters>NAN</DistanceMeters>
          </Trackpoint>
          <Trackpoint>
            <Time>2021-08-14T08:12:24.000Z</Time>
            <Position>
              <LatitudeDegrees>43.06224421598017215728759765625</LatitudeDegrees>
              <LongitudeDegrees>-1.90836614929139614105224609375</LongitudeDegrees>
            </Position>
            <AltitudeMeters>573.5999755859375</AltitudeMeters>
            <DistanceMeters>NAN</DistanceMeters>
          </Trackpoint>
          <Trackpoint>
            <Time>2021-08-14T08:12:25.000Z</Time>
            <Position>
              <LatitudeDegrees>43.06221789680421352386474609375</LatitudeDegrees>
              <LongitudeDegrees>-1.908367574214935302734375</LongitudeDegrees>
            </Position>
            <AltitudeMeters>573.5999755859375</AltitudeMeters>
            <DistanceMeters>NAN</DistanceMeters>
          </Trackpoint>
          <Trackpoint>
            <Time>2021-08-14T08:12:26.000Z</Time>
            <Position>
              <LatitudeDegrees>43.06218973360955715179443359375</LatitudeDegrees>
              <LongitudeDegrees>-1.90836916677653789520263671875</LongitudeDegrees>
            </Position>
            <AltitudeMeters>573.5999755859375</AltitudeMeters>
            <DistanceMeters>NAN</DistanceMeters>
          </Trackpoint>
          <Trackpoint>
            <Time>2021-08-14T08:12:27.000Z</Time>
            <Position>
              <LatitudeDegrees>43.062162660062313079833984375</LatitudeDegrees>
              <LongitudeDegrees>-1.908370591700077056884765625</LongitudeDegrees>
            </Position>
            <AltitudeMeters>573.5999755859375</AltitudeMeters>
            <DistanceMeters>NAN</DistanceMeters>
          </Trackpoint>
          <Trackpoint>
            <Time>2021-08-14T08:12:28.000Z</Time>
            <Position>
              <LatitudeDegrees>43.06213743053376674652099609375</LatitudeDegrees>
              <LongitudeDegrees>-1.90837268717586994171142578125</LongitudeDegrees>
            </Position>
            <AltitudeMeters>573.79998779296875</AltitudeMeters>
            <DistanceMeters>NAN</DistanceMeters>
          </Trackpoint>
          <Trackpoint>
            <Time>2021-08-14T08:12:29.000Z</Time>
            <Position>
              <LatitudeDegrees>43.06211429648101329803466796875</LatitudeDegrees>
              <LongitudeDegrees>-1.9083751179277896881103515625</LongitudeDegrees>
            </Position>
            <AltitudeMeters>573.79998779296875</AltitudeMeters>
            <DistanceMeters>NAN</DistanceMeters>
          </Trackpoint>
          <Trackpoint>
            <Time>2021-08-14T08:12:30.000Z</Time>
            <Position>
              <LatitudeDegrees>43.0620904080569744110107421875</LatitudeDegrees>
              <LongitudeDegrees>-1.9083788059651851654052734375</LongitudeDegrees>
            </Position>
            <AltitudeMeters>573.79998779296875</AltitudeMeters>
            <DistanceMeters>NAN</DistanceMeters>
          </Trackpoint>
          <Trackpoint>
            <Time>2021-08-14T08:12:31.000Z</Time>
            <Position>
              <LatitudeDegrees>43.06206668727099895477294921875</LatitudeDegrees>
              <LongitudeDegrees>-1.90838291309773921966552734375</LongitudeDegrees>
            </Position>
            <AltitudeMeters>573.79998779296875</AltitudeMeters>
            <DistanceMeters>NAN</DistanceMeters>
          </Trackpoint>
          <Trackpoint>
            <Time>2021-08-14T08:12:35.000Z</Time>
            <Position>
              <LatitudeDegrees>43.06196208111941814422607421875</LatitudeDegrees>
              <LongitudeDegrees>-1.90839800052344799041748046875</LongitudeDegrees>
            </Position>
            <AltitudeMeters>574</AltitudeMeters>
            <DistanceMeters>NAN</DistanceMeters>
          </Trackpoint>
          <Trackpoint>
            <Time>2021-08-14T08:12:36.000Z</Time>
            <Position>
              <LatitudeDegrees>43.06193836033344268798828125</LatitudeDegrees>
              <LongitudeDegrees>-1.90839732997119426727294921875</LongitudeDegrees>
            </Position>
            <AltitudeMeters>574</AltitudeMeters>
            <DistanceMeters>NAN</DistanceMeters>
          </Trackpoint>
          <Trackpoint>
            <Time>2021-08-14T08:12:37.000Z</Time>
            <Position>
              <LatitudeDegrees>43.061916567385196685791015625</LatitudeDegrees>
              <LongitudeDegrees>-1.90839707851409912109375</LongitudeDegrees>
            </Position>
            <AltitudeMeters>574</AltitudeMeters>
            <DistanceMeters>NAN</DistanceMeters>
          </Trackpoint>
          <Trackpoint>
            <Time>2021-08-14T08:12:38.000Z</Time>
            <Position>
              <LatitudeDegrees>43.06189812719821929931640625</LatitudeDegrees>
              <LongitudeDegrees>-1.90839749760925769805908203125</LongitudeDegrees>
            </Position>
            <AltitudeMeters>574</AltitudeMeters>
            <DistanceMeters>NAN</DistanceMeters>
          </Trackpoint>
          <Trackpoint>
            <Time>2021-08-14T08:12:39.000Z</Time>
            <Position>
              <LatitudeDegrees>43.061879016458988189697265625</LatitudeDegrees>
              <LongitudeDegrees>-1.90839800052344799041748046875</LongitudeDegrees>
            </Position>
            <AltitudeMeters>574</AltitudeMeters>
            <DistanceMeters>NAN</DistanceMeters>
          </Trackpoint>
          <Trackpoint>
            <Time>2021-08-14T08:12:40.000Z</Time>
            <Position>
              <LatitudeDegrees>43.06185831315815448760986328125</LatitudeDegrees>
              <LongitudeDegrees>-1.90839883871376514434814453125</LongitudeDegrees>
            </Position>
            <AltitudeMeters>574.20001220703125</AltitudeMeters>
            <DistanceMeters>NAN</DistanceMeters>
          </Trackpoint>
          <Trackpoint>
            <Time>2021-08-14T08:12:41.000Z</Time>
            <Position>
              <LatitudeDegrees>43.06183903478085994720458984375</LatitudeDegrees>
              <LongitudeDegrees>-1.908401437103748321533203125</LongitudeDegrees>
            </Position>
            <AltitudeMeters>574.20001220703125</AltitudeMeters>
            <DistanceMeters>NAN</DistanceMeters>
          </Trackpoint>
          <Trackpoint>
            <Time>2021-08-14T08:12:42.000Z</Time>
            <Position>
              <LatitudeDegrees>43.06182042695581912994384765625</LatitudeDegrees>
              <LongitudeDegrees>-1.90840118564665317535400390625</LongitudeDegrees>
            </Position>
            <AltitudeMeters>574.4000244140625</AltitudeMeters>
            <DistanceMeters>NAN</DistanceMeters>
          </Trackpoint>
          <Trackpoint>
            <Time>2021-08-14T08:12:43.000Z</Time>
            <Position>
              <LatitudeDegrees>43.06180114857852458953857421875</LatitudeDegrees>
              <LongitudeDegrees>-1.9084076397120952606201171875</LongitudeDegrees>
            </Position>
            <AltitudeMeters>574.4000244140625</AltitudeMeters>
            <DistanceMeters>NAN</DistanceMeters>
          </Trackpoint>
          <Trackpoint>
            <Time>2021-08-14T08:12:44.000Z</Time>
            <Position>
              <LatitudeDegrees>43.06178019382059574127197265625</LatitudeDegrees>
              <LongitudeDegrees>-1.9084140099585056304931640625</LongitudeDegrees>
            </Position>
            <AltitudeMeters>574.4000244140625</AltitudeMeters>
            <DistanceMeters>NAN</DistanceMeters>
          </Trackpoint>
          <Trackpoint>
            <Time>2021-08-14T08:12:45.000Z</Time>
            <Position>
              <LatitudeDegrees>43.06175404228270053863525390625</LatitudeDegrees>
              <LongitudeDegrees>-1.90841526724398136138916015625</LongitudeDegrees>
            </Position>
            <AltitudeMeters>574.4000244140625</AltitudeMeters>
            <DistanceMeters>NAN</DistanceMeters>
          </Trackpoint>
          <Trackpoint>
            <Time>2021-08-14T08:12:47.000Z</Time>
            <Position>
              <LatitudeDegrees>43.0617011524736881256103515625</LatitudeDegrees>
              <LongitudeDegrees>-1.9084176979959011077880859375</LongitudeDegrees>
            </Position>
            <AltitudeMeters>574.4000244140625</AltitudeMeters>
            <DistanceMeters>NAN</DistanceMeters>
          </Trackpoint>
          <Trackpoint>
            <Time>2021-08-14T08:12:52.000Z</Time>
            <Position>
              <LatitudeDegrees>43.0615613423287868499755859375</LatitudeDegrees>
              <LongitudeDegrees>-1.90842666663229465484619140625</LongitudeDegrees>
            </Position>
            <AltitudeMeters>574.79998779296875</AltitudeMeters>
            <DistanceMeters>NAN</DistanceMeters>
          </Trackpoint>
          <Trackpoint>
            <Time>2021-08-14T08:12:57.000Z</Time>
            <Position>
              <LatitudeDegrees>43.06142496876418590545654296875</LatitudeDegrees>
              <LongitudeDegrees>-1.908435635268688201904296875</LongitudeDegrees>
            </Position>
            <AltitudeMeters>575.20001220703125</AltitudeMeters>
            <DistanceMeters>NAN</DistanceMeters>
          </Trackpoint>
          <Trackpoint>
            <Time>2021-08-14T08:12:59.000Z</Time>
            <Position>
              <LatitudeDegrees>43.06137836538255214691162109375</LatitudeDegrees>
              <LongitudeDegrees>-1.9084280915558338165283203125</LongitudeDegrees>
            </Position>
            <AltitudeMeters>575.20001220703125</AltitudeMeters>
            <DistanceMeters>NAN</DistanceMeters>
          </Trackpoint>
          <Trackpoint>
            <Time>2021-08-14T08:13:00.000Z</Time>
            <Position>
              <LatitudeDegrees>43.0613595061004161834716796875</LatitudeDegrees>
              <LongitudeDegrees>-1.90842515788972377777099609375</LongitudeDegrees>
            </Position>
            <AltitudeMeters>575.20001220703125</AltitudeMeters>
            <DistanceMeters>NAN</DistanceMeters>
          </Trackpoint>
          <Trackpoint>
            <Time>2021-08-14T08:13:01.000Z</Time>
            <Position>
              <LatitudeDegrees>43.061340562999248504638671875</LatitudeDegrees>
              <LongitudeDegrees>-1.908426918089389801025390625</LongitudeDegrees>
            </Position>
            <AltitudeMeters>575.4000244140625</AltitudeMeters>
            <DistanceMeters>NAN</DistanceMeters>
          </Trackpoint>
          <Trackpoint>
            <Time>2021-08-14T08:13:04.000Z</Time>
            <Position>
              <LatitudeDegrees>43.061260096728801727294921875</LatitudeDegrees>
              <LongitudeDegrees>-1.90844359807670116424560546875</LongitudeDegrees>
            </Position>
            <AltitudeMeters>575.5999755859375</AltitudeMeters>
            <DistanceMeters>NAN</DistanceMeters>
          </Trackpoint>
          <Trackpoint>
            <Time>2021-08-14T08:13:10.000Z</Time>
            <Position>
              <LatitudeDegrees>43.06108114309608936309814453125</LatitudeDegrees>
              <LongitudeDegrees>-1.9084706716239452362060546875</LongitudeDegrees>
            </Position>
            <AltitudeMeters>575.79998779296875</AltitudeMeters>
            <DistanceMeters>NAN</DistanceMeters>
          </Trackpoint>
          <Trackpoint>
            <Time>2021-08-14T08:13:16.000Z</Time>
            <Position>
              <LatitudeDegrees>43.06088383309543132781982421875</LatitudeDegrees>
              <LongitudeDegrees>-1.9084817357361316680908203125</LongitudeDegrees>
            </Position>
            <AltitudeMeters>576.20001220703125</AltitudeMeters>
            <DistanceMeters>NAN</DistanceMeters>
          </Trackpoint>
          <Trackpoint>
            <Time>2021-08-14T08:13:17.000Z</Time>
            <Position>
              <LatitudeDegrees>43.06085751391947269439697265625</LatitudeDegrees>
              <LongitudeDegrees>-1.90848827362060546875</LongitudeDegrees>
            </Position>
            <AltitudeMeters>576.20001220703125</AltitudeMeters>
            <DistanceMeters>NAN</DistanceMeters>
          </Trackpoint>
          <Trackpoint>
            <Time>2021-08-14T08:13:20.000Z</Time>
            <Position>
              <LatitudeDegrees>43.0607829988002777099609375</LatitudeDegrees>
              <LongitudeDegrees>-1.90849204547703266143798828125</LongitudeDegrees>
            </Position>
            <AltitudeMeters>576.4000244140625</AltitudeMeters>
            <DistanceMeters>NAN</DistanceMeters>
          </Trackpoint>
          <Trackpoint>
            <Time>2021-08-14T08:13:21.000Z</Time>
            <Position>
              <LatitudeDegrees>43.06075827218592166900634765625</LatitudeDegrees>
              <LongitudeDegrees>-1.908492632210254669189453125</LongitudeDegrees>
            </Position>
            <AltitudeMeters>576.4000244140625</AltitudeMeters>
            <DistanceMeters>NAN</DistanceMeters>
          </Trackpoint>
          <Trackpoint>
            <Time>2021-08-14T08:13:22.000Z</Time>
            <Position>
              <LatitudeDegrees>43.06073429994285106658935546875</LatitudeDegrees>
              <LongitudeDegrees>-1.90849254839122295379638671875</LongitudeDegrees>
            </Position>
            <AltitudeMeters>576.4000244140625</AltitudeMeters>
            <DistanceMeters>NAN</DistanceMeters>
          </Trackpoint>
          <Trackpoint>
            <Time>2021-08-14T08:13:23.000Z</Time>
            <Position>
              <LatitudeDegrees>43.06071124970912933349609375</LatitudeDegrees>
              <LongitudeDegrees>-1.9084934704005718231201171875</LongitudeDegrees>
            </Position>
            <AltitudeMeters>576.4000244140625</AltitudeMeters>
            <DistanceMeters>NAN</DistanceMeters>
          </Trackpoint>
          <Trackpoint>
            <Time>2021-08-14T08:13:24.000Z</Time>
            <Position>
              <LatitudeDegrees>43.0606856010854244232177734375</LatitudeDegrees>
              <LongitudeDegrees>-1.908495984971523284912109375</LongitudeDegrees>
            </Position>
            <AltitudeMeters>576.5999755859375</AltitudeMeters>
            <DistanceMeters>NAN</DistanceMeters>
          </Trackpoint>
          <Trackpoint>
            <Time>2021-08-14T08:13:25.000Z</Time>
            <Position>
              <LatitudeDegrees>43.060657270252704620361328125</LatitudeDegrees>
              <LongitudeDegrees>-1.9084974937140941619873046875</LongitudeDegrees>
            </Position>
            <AltitudeMeters>576.5999755859375</AltitudeMeters>
            <DistanceMeters>NAN</DistanceMeters>
          </Trackpoint>
          <Trackpoint>
            <Time>2021-08-14T08:13:26.000Z</Time>
            <Position>
              <LatitudeDegrees>43.0606292746961116790771484375</LatitudeDegrees>
              <LongitudeDegrees>-1.90849891863763332366943359375</LongitudeDegrees>
            </Position>
            <AltitudeMeters>576.79998779296875</AltitudeMeters>
            <DistanceMeters>NAN</DistanceMeters>
          </Trackpoint>
          <Trackpoint>
            <Time>2021-08-14T08:13:30.000Z</Time>
            <Position>
              <LatitudeDegrees>43.0605263449251651763916015625</LatitudeDegrees>
              <LongitudeDegrees>-1.90849942155182361602783203125</LongitudeDegrees>
            </Position>
            <AltitudeMeters>576.79998779296875</AltitudeMeters>
            <DistanceMeters>NAN</DistanceMeters>
          </Trackpoint>
          <Trackpoint>
            <Time>2021-08-14T08:13:37.000Z</Time>
            <Position>
              <LatitudeDegrees>43.06033129803836345672607421875</LatitudeDegrees>
              <LongitudeDegrees>-1.90850436687469482421875</LongitudeDegrees>
            </Position>
            <AltitudeMeters>577</AltitudeMeters>
            <DistanceMeters>NAN</DistanceMeters>
          </Trackpoint>
          <Trackpoint>
            <Time>2021-08-14T08:13:38.000Z</Time>
            <Position>
              <LatitudeDegrees>43.06030757725238800048828125</LatitudeDegrees>
              <LongitudeDegrees>-1.9085057079792022705078125</LongitudeDegrees>
            </Position>
            <AltitudeMeters>577</AltitudeMeters>
            <DistanceMeters>NAN</DistanceMeters>
          </Trackpoint>
          <Trackpoint>
            <Time>2021-08-14T08:13:39.000Z</Time>
            <Position>
              <LatitudeDegrees>43.06027899496257305145263671875</LatitudeDegrees>
              <LongitudeDegrees>-1.90850746817886829376220703125</LongitudeDegrees>
            </Position>
            <AltitudeMeters>577</AltitudeMeters>
            <DistanceMeters>NAN</DistanceMeters>
          </Trackpoint>
          <Trackpoint>
            <Time>2021-08-14T08:13:40.000Z</Time>
            <Position>
              <LatitudeDegrees>43.06025552563369274139404296875</LatitudeDegrees>
              <LongitudeDegrees>-1.90850864164531230926513671875</LongitudeDegrees>
            </Position>
            <AltitudeMeters>577.20001220703125</AltitudeMeters>
            <DistanceMeters>NAN</DistanceMeters>
          </Trackpoint>
          <Trackpoint>
            <Time>2021-08-14T08:13:46.000Z</Time>
            <Position>
              <LatitudeDegrees>43.0600861273705959320068359375</LatitudeDegrees>
              <LongitudeDegrees>-1.9085243158042430877685546875</LongitudeDegrees>
            </Position>
            <AltitudeMeters>577.4000244140625</AltitudeMeters>
            <DistanceMeters>NAN</DistanceMeters>
          </Trackpoint>
          <Trackpoint>
            <Time>2021-08-14T08:13:47.000Z</Time>
            <Position>
              <LatitudeDegrees>43.06006056256592273712158203125</LatitudeDegrees>
              <LongitudeDegrees>-1.90852540545165538787841796875</LongitudeDegrees>
            </Position>
            <AltitudeMeters>577.4000244140625</AltitudeMeters>
            <DistanceMeters>NAN</DistanceMeters>
          </Trackpoint>
          <Trackpoint>
            <Time>2021-08-14T08:13:51.000Z</Time>
            <Position>
              <LatitudeDegrees>43.05996785871684551239013671875</LatitudeDegrees>
              <LongitudeDegrees>-1.908531524240970611572265625</LongitudeDegrees>
            </Position>
            <AltitudeMeters>577.5999755859375</AltitudeMeters>
            <DistanceMeters>NAN</DistanceMeters>
          </Trackpoint>
          <Trackpoint>
            <Time>2021-08-14T08:13:52.000Z</Time>
            <Position>
              <LatitudeDegrees>43.05994740687310695648193359375</LatitudeDegrees>
              <LongitudeDegrees>-1.908531524240970611572265625</LongitudeDegrees>
            </Position>
            <AltitudeMeters>577.5999755859375</AltitudeMeters>
            <DistanceMeters>NAN</DistanceMeters>
          </Trackpoint>
          <Trackpoint>
            <Time>2021-08-14T08:13:53.000Z</Time>
            <Position>
              <LatitudeDegrees>43.05993081070482730865478515625</LatitudeDegrees>
              <LongitudeDegrees>-1.908532865345478057861328125</LongitudeDegrees>
            </Position>
            <AltitudeMeters>577.79998779296875</AltitudeMeters>
            <DistanceMeters>NAN</DistanceMeters>
          </Trackpoint>
          <Trackpoint>
            <Time>2021-08-14T08:13:54.000Z</Time>
            <Position>
              <LatitudeDegrees>43.05990792810916900634765625</LatitudeDegrees>
              <LongitudeDegrees>-1.90853076986968517303466796875</LongitudeDegrees>
            </Position>
            <AltitudeMeters>577.79998779296875</AltitudeMeters>
            <DistanceMeters>NAN</DistanceMeters>
          </Trackpoint>
          <Trackpoint>
            <Time>2021-08-14T08:14:00.000Z</Time>
            <Position>
              <LatitudeDegrees>43.05976149626076221466064453125</LatitudeDegrees>
              <LongitudeDegrees>-1.90850210376083850860595703125</LongitudeDegrees>
            </Position>
            <AltitudeMeters>577.79998779296875</AltitudeMeters>
            <DistanceMeters>NAN</DistanceMeters>
          </Trackpoint>
          <Trackpoint>
            <Time>2021-08-14T08:14:07.000Z</Time>
            <Position>
              <LatitudeDegrees>43.05958933196961879730224609375</LatitudeDegrees>
              <LongitudeDegrees>-1.9084321148693561553955078125</LongitudeDegrees>
            </Position>
            <AltitudeMeters>578</AltitudeMeters>
            <DistanceMeters>NAN</DistanceMeters>
          </Trackpoint>
          <Trackpoint>
            <Time>2021-08-14T08:14:16.000Z</Time>
            <Position>
              <LatitudeDegrees>43.05938129313290119171142578125</LatitudeDegrees>
              <LongitudeDegrees>-1.908287107944488525390625</LongitudeDegrees>
            </Position>
            <AltitudeMeters>578.4000244140625</AltitudeMeters>
            <DistanceMeters>NAN</DistanceMeters>
          </Trackpoint>
          <Trackpoint>
            <Time>2021-08-14T08:14:18.000Z</Time>
            <Position>
              <LatitudeDegrees>43.0593394674360752105712890625</LatitudeDegrees>
              <LongitudeDegrees>-1.90823924727737903594970703125</LongitudeDegrees>
            </Position>
            <AltitudeMeters>578.5999755859375</AltitudeMeters>
            <DistanceMeters>NAN</DistanceMeters>
          </Trackpoint>
          <Trackpoint>
            <Time>2021-08-14T08:14:19.000Z</Time>
            <Position>
              <LatitudeDegrees>43.05931943468749523162841796875</LatitudeDegrees>
              <LongitudeDegrees>-1.90821611322462558746337890625</LongitudeDegrees>
            </Position>
            <AltitudeMeters>578.79998779296875</AltitudeMeters>
            <DistanceMeters>NAN</DistanceMeters>
          </Trackpoint>
          <Trackpoint>
            <Time>2021-08-14T08:14:20.000Z</Time>
            <Position>
              <LatitudeDegrees>43.05929931811988353729248046875</LatitudeDegrees>
              <LongitudeDegrees>-1.90819599665701389312744140625</LongitudeDegrees>
            </Position>
            <AltitudeMeters>578.79998779296875</AltitudeMeters>
            <DistanceMeters>NAN</DistanceMeters>
          </Trackpoint>
          <Trackpoint>
            <Time>2021-08-14T08:14:21.000Z</Time>
            <Position>
              <LatitudeDegrees>43.05928431451320648193359375</LatitudeDegrees>
              <LongitudeDegrees>-1.90817914903163909912109375</LongitudeDegrees>
            </Position>
            <AltitudeMeters>578.79998779296875</AltitudeMeters>
            <DistanceMeters>NAN</DistanceMeters>
          </Trackpoint>
          <Trackpoint>
            <Time>2021-08-14T08:14:22.000Z</Time>
            <Position>
              <LatitudeDegrees>43.05926361121237277984619140625</LatitudeDegrees>
              <LongitudeDegrees>-1.9081504829227924346923828125</LongitudeDegrees>
            </Position>
            <AltitudeMeters>578.79998779296875</AltitudeMeters>
            <DistanceMeters>NAN</DistanceMeters>
          </Trackpoint>
          <Trackpoint>
            <Time>2021-08-14T08:14:23.000Z</Time>
            <Position>
              <LatitudeDegrees>43.05924382992088794708251953125</LatitudeDegrees>
              <LongitudeDegrees>-1.90812424756586551666259765625</LongitudeDegrees>
            </Position>
            <AltitudeMeters>579</AltitudeMeters>
            <DistanceMeters>NAN</DistanceMeters>
          </Trackpoint>
          <Trackpoint>
            <Time>2021-08-14T08:14:26.000Z</Time>
            <Position>
              <LatitudeDegrees>43.0591844022274017333984375</LatitudeDegrees>
              <LongitudeDegrees>-1.90804445184767246246337890625</LongitudeDegrees>
            </Position>
            <AltitudeMeters>579.20001220703125</AltitudeMeters>
            <DistanceMeters>NAN</DistanceMeters>
          </Trackpoint>
          <Trackpoint>
            <Time>2021-08-14T08:14:31.000Z</Time>
            <Position>
              <LatitudeDegrees>43.05909899063408374786376953125</LatitudeDegrees>
              <LongitudeDegrees>-1.90790849737823009490966796875</LongitudeDegrees>
            </Position>
            <AltitudeMeters>579.79998779296875</AltitudeMeters>
            <DistanceMeters>NAN</DistanceMeters>
          </Trackpoint>
          <Trackpoint>
            <Time>2021-08-14T08:14:32.000Z</Time>
            <Position>
              <LatitudeDegrees>43.05908306501805782318115234375</LatitudeDegrees>
              <LongitudeDegrees>-1.90786994062364101409912109375</LongitudeDegrees>
            </Position>
            <AltitudeMeters>579.79998779296875</AltitudeMeters>
            <DistanceMeters>NAN</DistanceMeters>
          </Trackpoint>
          <Trackpoint>
            <Time>2021-08-14T08:14:34.000Z</Time>
            <Position>
              <LatitudeDegrees>43.05905775167047977447509765625</LatitudeDegrees>
              <LongitudeDegrees>-1.9078083336353302001953125</LongitudeDegrees>
            </Position>
            <AltitudeMeters>580</AltitudeMeters>
            <DistanceMeters>NAN</DistanceMeters>
          </Trackpoint>
          <Trackpoint>
            <Time>2021-08-14T08:14:40.000Z</Time>
            <Position>
              <LatitudeDegrees>43.05899287573993206024169921875</LatitudeDegrees>
              <LongitudeDegrees>-1.907616890966892242431640625</LongitudeDegrees>
            </Position>
            <AltitudeMeters>580.79998779296875</AltitudeMeters>
            <DistanceMeters>NAN</DistanceMeters>
          </Trackpoint>
          <Trackpoint>
            <Time>2021-08-14T08:14:41.000Z</Time>
            <Position>
              <LatitudeDegrees>43.0589901097118854522705078125</LatitudeDegrees>
              <LongitudeDegrees>-1.90759216435253620147705078125</LongitudeDegrees>
            </Position>
            <AltitudeMeters>580.79998779296875</AltitudeMeters>
            <DistanceMeters>NAN</DistanceMeters>
          </Trackpoint>
          <Trackpoint>
            <Time>2021-08-14T08:14:42.000Z</Time>
            <Position>
              <LatitudeDegrees>43.05898717604577541351318359375</LatitudeDegrees>
              <LongitudeDegrees>-1.90756903029978275299072265625</LongitudeDegrees>
            </Position>
            <AltitudeMeters>581</AltitudeMeters>
            <DistanceMeters>NAN</DistanceMeters>
          </Trackpoint>
          <Trackpoint>
            <Time>2021-08-14T08:14:43.000Z</Time>
            <Position>
              <LatitudeDegrees>43.05898264981806278228759765625</LatitudeDegrees>
              <LongitudeDegrees>-1.9075513444840908050537109375</LongitudeDegrees>
            </Position>
            <AltitudeMeters>581</AltitudeMeters>
            <DistanceMeters>NAN</DistanceMeters>
          </Trackpoint>
          <Trackpoint>
            <Time>2021-08-14T08:14:44.000Z</Time>
            <Position>
              <LatitudeDegrees>43.05897988379001617431640625</LatitudeDegrees>
              <LongitudeDegrees>-1.907530725002288818359375</LongitudeDegrees>
            </Position>
            <AltitudeMeters>581</AltitudeMeters>
            <DistanceMeters>NAN</DistanceMeters>
          </Trackpoint>
          <Trackpoint>
            <Time>2021-08-14T08:14:47.000Z</Time>
            <Position>
              <LatitudeDegrees>43.05896705947816371917724609375</LatitudeDegrees>
              <LongitudeDegrees>-1.9074811041355133056640625</LongitudeDegrees>
            </Position>
            <AltitudeMeters>581.20001220703125</AltitudeMeters>
            <DistanceMeters>NAN</DistanceMeters>
          </Trackpoint>
          <Trackpoint>
            <Time>2021-08-14T08:14:48.000Z</Time>
            <Position>
              <LatitudeDegrees>43.0589644610881805419921875</LatitudeDegrees>
              <LongitudeDegrees>-1.90746542997658252716064453125</LongitudeDegrees>
            </Position>
            <AltitudeMeters>581.20001220703125</AltitudeMeters>
            <DistanceMeters>NAN</DistanceMeters>
          </Trackpoint>
          <Trackpoint>
            <Time>2021-08-14T08:14:49.000Z</Time>
            <Position>
              <LatitudeDegrees>43.058962114155292510986328125</LatitudeDegrees>
              <LongitudeDegrees>-1.90744967199862003326416015625</LongitudeDegrees>
            </Position>
            <AltitudeMeters>581.4000244140625</AltitudeMeters>
            <DistanceMeters>NAN</DistanceMeters>
          </Trackpoint>
          <Trackpoint>
            <Time>2021-08-14T08:14:50.000Z</Time>
            <Position>
              <LatitudeDegrees>43.0589602701365947723388671875</LatitudeDegrees>
              <LongitudeDegrees>-1.90743190236389636993408203125</LongitudeDegrees>
            </Position>
            <AltitudeMeters>581.4000244140625</AltitudeMeters>
            <DistanceMeters>NAN</DistanceMeters>
          </Trackpoint>
          <Trackpoint>
            <Time>2021-08-14T08:14:51.000Z</Time>
            <Position>
              <LatitudeDegrees>43.05895800702273845672607421875</LatitudeDegrees>
              <LongitudeDegrees>-1.90741782076656818389892578125</LongitudeDegrees>
            </Position>
            <AltitudeMeters>581.4000244140625</AltitudeMeters>
            <DistanceMeters>NAN</DistanceMeters>
          </Trackpoint>
          <Trackpoint>
            <Time>2021-08-14T08:14:52.000Z</Time>
            <Position>
              <LatitudeDegrees>43.05895012803375720977783203125</LatitudeDegrees>
              <LongitudeDegrees>-1.9074024818837642669677734375</LongitudeDegrees>
            </Position>
            <AltitudeMeters>581.4000244140625</AltitudeMeters>
            <DistanceMeters>NAN</DistanceMeters>
          </Trackpoint>
          <Trackpoint>
            <Time>2021-08-14T08:14:53.000Z</Time>
            <Position>
              <LatitudeDegrees>43.05894744582474231719970703125</LatitudeDegrees>
              <LongitudeDegrees>-1.90738345496356487274169921875</LongitudeDegrees>
            </Position>
            <AltitudeMeters>581.4000244140625</AltitudeMeters>
            <DistanceMeters>NAN</DistanceMeters>
          </Trackpoint>
          <Trackpoint>
            <Time>2021-08-14T08:14:54.000Z</Time>
            <Position>
              <LatitudeDegrees>43.05894426070153713226318359375</LatitudeDegrees>
              <LongitudeDegrees>-1.90736736170947551727294921875</LongitudeDegrees>
            </Position>
            <AltitudeMeters>581.4000244140625</AltitudeMeters>
            <DistanceMeters>NAN</DistanceMeters>
          </Trackpoint>
          <Trackpoint>
            <Time>2021-08-14T08:14:55.000Z</Time>
            <Position>
              <LatitudeDegrees>43.058939985930919647216796875</LatitudeDegrees>
              <LongitudeDegrees>-1.90735260955989360809326171875</LongitudeDegrees>
            </Position>
            <AltitudeMeters>581.4000244140625</AltitudeMeters>
            <DistanceMeters>NAN</DistanceMeters>
          </Trackpoint>
          <Trackpoint>
            <Time>2021-08-14T08:14:56.000Z</Time>
            <Position>
              <LatitudeDegrees>43.05893721990287303924560546875</LatitudeDegrees>
              <LongitudeDegrees>-1.9073431380093097686767578125</LongitudeDegrees>
            </Position>
            <AltitudeMeters>581.5999755859375</AltitudeMeters>
            <DistanceMeters>NAN</DistanceMeters>
          </Trackpoint>
          <Trackpoint>
            <Time>2021-08-14T08:14:57.000Z</Time>
            <Position>
              <LatitudeDegrees>43.05893772281706333160400390625</LatitudeDegrees>
              <LongitudeDegrees>-1.90733735449612140655517578125</LongitudeDegrees>
            </Position>
            <AltitudeMeters>581.5999755859375</AltitudeMeters>
            <DistanceMeters>NAN</DistanceMeters>
          </Trackpoint>
          <Trackpoint>
            <Time>2021-08-14T08:14:58.000Z</Time>
            <Position>
              <LatitudeDegrees>43.0589414946734905242919921875</LatitudeDegrees>
              <LongitudeDegrees>-1.9073384441435337066650390625</LongitudeDegrees>
            </Position>
            <AltitudeMeters>581.5999755859375</AltitudeMeters>
            <DistanceMeters>NAN</DistanceMeters>
          </Trackpoint>
          <Trackpoint>
            <Time>2021-08-14T08:15:33.000Z</Time>
            <Position>
              <LatitudeDegrees>43.05918515659868717193603515625</LatitudeDegrees>
              <LongitudeDegrees>-1.9058960862457752227783203125</LongitudeDegrees>
            </Position>
            <AltitudeMeters>583.5999755859375</AltitudeMeters>
            <DistanceMeters>NAN</DistanceMeters>
          </Trackpoint>
          <Trackpoint>
            <Time>2021-08-14T08:15:34.000Z</Time>
            <Position>
              <LatitudeDegrees>43.0591909401118755340576171875</LatitudeDegrees>
              <LongitudeDegrees>-1.90588309429585933685302734375</LongitudeDegrees>
            </Position>
            <AltitudeMeters>583.5999755859375</AltitudeMeters>
            <DistanceMeters>NAN</DistanceMeters>
          </Trackpoint>
          <Trackpoint>
            <Time>2021-08-14T08:15:35.000Z</Time>
            <Position>
              <LatitudeDegrees>43.05920477025210857391357421875</LatitudeDegrees>
              <LongitudeDegrees>-1.90584671683609485626220703125</LongitudeDegrees>
            </Position>
            <AltitudeMeters>583.5999755859375</AltitudeMeters>
            <DistanceMeters>NAN</DistanceMeters>
          </Trackpoint>
          <Trackpoint>
            <Time>2021-08-14T08:15:36.000Z</Time>
            <Position>
              <LatitudeDegrees>43.059220276772975921630859375</LatitudeDegrees>
              <LongitudeDegrees>-1.90582710318267345428466796875</LongitudeDegrees>
            </Position>
            <AltitudeMeters>583.79998779296875</AltitudeMeters>
            <DistanceMeters>NAN</DistanceMeters>
          </Trackpoint>
          <Trackpoint>
            <Time>2021-08-14T08:15:37.000Z</Time>
            <Position>
              <LatitudeDegrees>43.0592429079115390777587890625</LatitudeDegrees>
              <LongitudeDegrees>-1.90582215785980224609375</LongitudeDegrees>
            </Position>
            <AltitudeMeters>583.79998779296875</AltitudeMeters>
            <DistanceMeters>NAN</DistanceMeters>
          </Trackpoint>
          <Trackpoint>
            <Time>2021-08-14T08:15:38.000Z</Time>
            <Position>
              <LatitudeDegrees>43.0592764355242252349853515625</LatitudeDegrees>
              <LongitudeDegrees>-1.9058167934417724609375</LongitudeDegrees>
            </Position>
            <AltitudeMeters>583.79998779296875</AltitudeMeters>
            <DistanceMeters>NAN</DistanceMeters>
          </Trackpoint>
          <Trackpoint>
            <Time>2021-08-14T08:15:39.000Z</Time>
            <Position>
              <LatitudeDegrees>43.05930501781404018402099609375</LatitudeDegrees>
              <LongitudeDegrees>-1.9057881273329257965087890625</LongitudeDegrees>
            </Position>
            <AltitudeMeters>583.79998779296875</AltitudeMeters>
            <DistanceMeters>NAN</DistanceMeters>
          </Trackpoint>
          <Trackpoint>
            <Time>2021-08-14T08:15:40.000Z</Time>
            <Position>
              <LatitudeDegrees>43.05932714603841304779052734375</LatitudeDegrees>
              <LongitudeDegrees>-1.9057643227279186248779296875</LongitudeDegrees>
            </Position>
            <AltitudeMeters>583.79998779296875</AltitudeMeters>
            <DistanceMeters>NAN</DistanceMeters>
          </Trackpoint>
          <Trackpoint>
            <Time>2021-08-14T08:15:41.000Z</Time>
            <Position>
              <LatitudeDegrees>43.059352375566959381103515625</LatitudeDegrees>
              <LongitudeDegrees>-1.90573523752391338348388671875</LongitudeDegrees>
            </Position>
            <AltitudeMeters>583.79998779296875</AltitudeMeters>
            <DistanceMeters>NAN</DistanceMeters>
          </Trackpoint>
          <Trackpoint>
            <Time>2021-08-14T08:15:42.000Z</Time>
            <Position>
              <LatitudeDegrees>43.05937844328582286834716796875</LatitudeDegrees>
              <LongitudeDegrees>-1.90570573322474956512451171875</LongitudeDegrees>
            </Position>
            <AltitudeMeters>583.79998779296875</AltitudeMeters>
            <DistanceMeters>NAN</DistanceMeters>
          </Trackpoint>
          <Trackpoint>
            <Time>2021-08-14T08:15:43.000Z</Time>
            <Position>
              <LatitudeDegrees>43.059398643672466278076171875</LatitudeDegrees>
              <LongitudeDegrees>-1.905676983296871185302734375</LongitudeDegrees>
            </Position>
            <AltitudeMeters>583.79998779296875</AltitudeMeters>
            <DistanceMeters>NAN</DistanceMeters>
          </Trackpoint>
          <Trackpoint>
            <Time>2021-08-14T08:15:44.000Z</Time>
            <Position>
              <LatitudeDegrees>43.0594185926020145416259765625</LatitudeDegrees>
              <LongitudeDegrees>-1.90564177930355072021484375</LongitudeDegrees>
            </Position>
            <AltitudeMeters>584</AltitudeMeters>
            <DistanceMeters>NAN</DistanceMeters>
          </Trackpoint>
          <Trackpoint>
            <Time>2021-08-14T08:15:45.000Z</Time>
            <Position>
              <LatitudeDegrees>43.059440888464450836181640625</LatitudeDegrees>
              <LongitudeDegrees>-1.9056127779185771942138671875</LongitudeDegrees>
            </Position>
            <AltitudeMeters>584</AltitudeMeters>
            <DistanceMeters>NAN</DistanceMeters>
          </Trackpoint>
          <Trackpoint>
            <Time>2021-08-14T08:15:46.000Z</Time>
            <Position>
              <LatitudeDegrees>43.05946561507880687713623046875</LatitudeDegrees>
              <LongitudeDegrees>-1.9055782444775104522705078125</LongitudeDegrees>
            </Position>
            <AltitudeMeters>584</AltitudeMeters>
            <DistanceMeters>NAN</DistanceMeters>
          </Trackpoint>
          <Trackpoint>
            <Time>2021-08-14T08:15:47.000Z</Time>
            <Position>
              <LatitudeDegrees>43.05948288179934024810791015625</LatitudeDegrees>
              <LongitudeDegrees>-1.90554320812225341796875</LongitudeDegrees>
            </Position>
            <AltitudeMeters>584</AltitudeMeters>
            <DistanceMeters>NAN</DistanceMeters>
          </Trackpoint>
          <Trackpoint>
            <Time>2021-08-14T08:15:48.000Z</Time>
            <Position>
              <LatitudeDegrees>43.059499561786651611328125</LatitudeDegrees>
              <LongitudeDegrees>-1.90550657920539379119873046875</LongitudeDegrees>
            </Position>
            <AltitudeMeters>584</AltitudeMeters>
            <DistanceMeters>NAN</DistanceMeters>
          </Trackpoint>
          <Trackpoint>
            <Time>2021-08-14T08:15:49.000Z</Time>
            <Position>
              <LatitudeDegrees>43.059517331421375274658203125</LatitudeDegrees>
              <LongitudeDegrees>-1.90547858364880084991455078125</LongitudeDegrees>
            </Position>
            <AltitudeMeters>584</AltitudeMeters>
            <DistanceMeters>NAN</DistanceMeters>
          </Trackpoint>
          <Trackpoint>
            <Time>2021-08-14T08:15:50.000Z</Time>
            <Position>
              <LatitudeDegrees>43.05953267030417919158935546875</LatitudeDegrees>
              <LongitudeDegrees>-1.9054506719112396240234375</LongitudeDegrees>
            </Position>
            <AltitudeMeters>584</AltitudeMeters>
            <DistanceMeters>NAN</DistanceMeters>
          </Trackpoint>
          <Trackpoint>
            <Time>2021-08-14T08:15:51.000Z</Time>
            <Position>
              <LatitudeDegrees>43.05954792536795139312744140625</LatitudeDegrees>
              <LongitudeDegrees>-1.9054196588695049285888671875</LongitudeDegrees>
            </Position>
            <AltitudeMeters>584</AltitudeMeters>
            <DistanceMeters>NAN</DistanceMeters>
          </Trackpoint>
          <Trackpoint>
            <Time>2021-08-14T08:15:52.000Z</Time>
            <Position>
              <LatitudeDegrees>43.05956116877496242523193359375</LatitudeDegrees>
              <LongitudeDegrees>-1.90539107657968997955322265625</LongitudeDegrees>
            </Position>
            <AltitudeMeters>584</AltitudeMeters>
            <DistanceMeters>NAN</DistanceMeters>
          </Trackpoint>
          <Trackpoint>
            <Time>2021-08-14T08:15:53.000Z</Time>
            <Position>
              <LatitudeDegrees>43.0595795251429080963134765625</LatitudeDegrees>
              <LongitudeDegrees>-1.9053567945957183837890625</LongitudeDegrees>
            </Position>
            <AltitudeMeters>584.20001220703125</AltitudeMeters>
            <DistanceMeters>NAN</DistanceMeters>
          </Trackpoint>
          <Trackpoint>
            <Time>2021-08-14T08:15:54.000Z</Time>
            <Position>
              <LatitudeDegrees>43.05959603749215602874755859375</LatitudeDegrees>
              <LongitudeDegrees>-1.90532368607819080352783203125</LongitudeDegrees>
            </Position>
            <AltitudeMeters>584.20001220703125</AltitudeMeters>
            <DistanceMeters>NAN</DistanceMeters>
          </Trackpoint>
          <Trackpoint>
            <Time>2021-08-14T08:15:55.000Z</Time>
            <Position>
              <LatitudeDegrees>43.05960961617529392242431640625</LatitudeDegrees>
              <LongitudeDegrees>-1.90529719926416873931884765625</LongitudeDegrees>
            </Position>
            <AltitudeMeters>584.20001220703125</AltitudeMeters>
            <DistanceMeters>NAN</DistanceMeters>
          </Trackpoint>
          <Trackpoint>
            <Time>2021-08-14T08:15:56.000Z</Time>
            <Position>
              <LatitudeDegrees>43.059623278677463531494140625</LatitudeDegrees>
              <LongitudeDegrees>-1.90526752732694149017333984375</LongitudeDegrees>
            </Position>
            <AltitudeMeters>584.20001220703125</AltitudeMeters>
            <DistanceMeters>NAN</DistanceMeters>
          </Trackpoint>
          <Trackpoint>
            <Time>2021-08-14T08:15:57.000Z</Time>
            <Position>
              <LatitudeDegrees>43.059634007513523101806640625</LatitudeDegrees>
              <LongitudeDegrees>-1.90523819066584110260009765625</LongitudeDegrees>
            </Position>
            <AltitudeMeters>584.20001220703125</AltitudeMeters>
            <DistanceMeters>NAN</DistanceMeters>
          </Trackpoint>
          <Trackpoint>
            <Time>2021-08-14T08:15:58.000Z</Time>
            <Position>
              <LatitudeDegrees>43.05964482016861438751220703125</LatitudeDegrees>
              <LongitudeDegrees>-1.90521036274731159210205078125</LongitudeDegrees>
            </Position>
            <AltitudeMeters>584.20001220703125</AltitudeMeters>
            <DistanceMeters>NAN</DistanceMeters>
          </Trackpoint>
          <Trackpoint>
            <Time>2021-08-14T08:15:59.000Z</Time>
            <Position>
              <LatitudeDegrees>43.0596603266894817352294921875</LatitudeDegrees>
              <LongitudeDegrees>-1.90517775714397430419921875</LongitudeDegrees>
            </Position>
            <AltitudeMeters>584.4000244140625</AltitudeMeters>
            <DistanceMeters>NAN</DistanceMeters>
          </Trackpoint>
          <Trackpoint>
            <Time>2021-08-14T08:16:04.000Z</Time>
            <Position>
              <LatitudeDegrees>43.05973148904740810394287109375</LatitudeDegrees>
              <LongitudeDegrees>-1.905004084110260009765625</LongitudeDegrees>
            </Position>
            <AltitudeMeters>584.4000244140625</AltitudeMeters>
            <DistanceMeters>NAN</DistanceMeters>
          </Trackpoint>
          <Trackpoint>
            <Time>2021-08-14T08:16:10.000Z</Time>
            <Position>
              <LatitudeDegrees>43.05978999473154544830322265625</LatitudeDegrees>
              <LongitudeDegrees>-1.90479294396936893463134765625</LongitudeDegrees>
            </Position>
            <AltitudeMeters>584.79998779296875</AltitudeMeters>
            <DistanceMeters>NAN</DistanceMeters>
          </Trackpoint>
          <Trackpoint>
            <Time>2021-08-14T08:16:11.000Z</Time>
            <Position>
              <LatitudeDegrees>43.05980063974857330322265625</LatitudeDegrees>
              <LongitudeDegrees>-1.904757656157016754150390625</LongitudeDegrees>
            </Position>
            <AltitudeMeters>585</AltitudeMeters>
            <DistanceMeters>NAN</DistanceMeters>
          </Trackpoint>
          <Trackpoint>
            <Time>2021-08-14T08:16:12.000Z</Time>
            <Position>
              <LatitudeDegrees>43.0598118714988231658935546875</LatitudeDegrees>
              <LongitudeDegrees>-1.90472806803882122039794921875</LongitudeDegrees>
            </Position>
            <AltitudeMeters>585</AltitudeMeters>
            <DistanceMeters>NAN</DistanceMeters>
          </Trackpoint>
          <Trackpoint>
            <Time>2021-08-14T08:16:13.000Z</Time>
            <Position>
              <LatitudeDegrees>43.059823103249073028564453125</LatitudeDegrees>
              <LongitudeDegrees>-1.90469772554934024810791015625</LongitudeDegrees>
            </Position>
            <AltitudeMeters>585</AltitudeMeters>
            <DistanceMeters>NAN</DistanceMeters>
          </Trackpoint>
          <Trackpoint>
            <Time>2021-08-14T08:16:14.000Z</Time>
            <Position>
              <LatitudeDegrees>43.0598308145999908447265625</LatitudeDegrees>
              <LongitudeDegrees>-1.90466553904116153717041015625</LongitudeDegrees>
            </Position>
            <AltitudeMeters>585.20001220703125</AltitudeMeters>
            <DistanceMeters>NAN</DistanceMeters>
          </Trackpoint>
          <Trackpoint>
            <Time>2021-08-14T08:16:15.000Z</Time>
            <Position>
              <LatitudeDegrees>43.0598360113799571990966796875</LatitudeDegrees>
              <LongitudeDegrees>-1.904638968408107757568359375</LongitudeDegrees>
            </Position>
            <AltitudeMeters>585.20001220703125</AltitudeMeters>
            <DistanceMeters>NAN</DistanceMeters>
          </Trackpoint>
          <Trackpoint>
            <Time>2021-08-14T08:16:16.000Z</Time>
            <Position>
              <LatitudeDegrees>43.05983953177928924560546875</LatitudeDegrees>
              <LongitudeDegrees>-1.90461239777505397796630859375</LongitudeDegrees>
            </Position>
            <AltitudeMeters>585.20001220703125</AltitudeMeters>
            <DistanceMeters>NAN</DistanceMeters>
          </Trackpoint>
          <Trackpoint>
            <Time>2021-08-14T08:16:18.000Z</Time>
            <Position>
              <LatitudeDegrees>43.059842884540557861328125</LatitudeDegrees>
              <LongitudeDegrees>-1.90456160344183444976806640625</LongitudeDegrees>
            </Position>
            <AltitudeMeters>585.4000244140625</AltitudeMeters>
            <DistanceMeters>NAN</DistanceMeters>
          </Trackpoint>
          <Trackpoint>
            <Time>2021-08-14T08:16:22.000Z</Time>
            <Position>
              <LatitudeDegrees>43.059845231473445892333984375</LatitudeDegrees>
              <LongitudeDegrees>-1.90445112995803356170654296875</LongitudeDegrees>
            </Position>
            <AltitudeMeters>585.5999755859375</AltitudeMeters>
            <DistanceMeters>NAN</DistanceMeters>
          </Trackpoint>
          <Trackpoint>
            <Time>2021-08-14T08:16:23.000Z</Time>
            <Position>
              <LatitudeDegrees>43.05984883569180965423583984375</LatitudeDegrees>
              <LongitudeDegrees>-1.90444006584584712982177734375</LongitudeDegrees>
            </Position>
            <AltitudeMeters>585.79998779296875</AltitudeMeters>
            <DistanceMeters>NAN</DistanceMeters>
          </Trackpoint>
          <Trackpoint>
            <Time>2021-08-14T08:16:24.000Z</Time>
            <Position>
              <LatitudeDegrees>43.05985336191952228546142578125</LatitudeDegrees>
              <LongitudeDegrees>-1.90443185158073902130126953125</LongitudeDegrees>
            </Position>
            <AltitudeMeters>585.79998779296875</AltitudeMeters>
            <DistanceMeters>NAN</DistanceMeters>
          </Trackpoint>
          <Trackpoint>
            <Time>2021-08-14T08:16:51.000Z</Time>
            <Position>
              <LatitudeDegrees>43.05969603359699249267578125</LatitudeDegrees>
              <LongitudeDegrees>-1.9034086726605892181396484375</LongitudeDegrees>
            </Position>
            <AltitudeMeters>588</AltitudeMeters>
            <DistanceMeters>NAN</DistanceMeters>
          </Trackpoint>
          <Trackpoint>
            <Time>2021-08-14T08:16:53.000Z</Time>
            <Position>
              <LatitudeDegrees>43.05964800529181957244873046875</LatitudeDegrees>
              <LongitudeDegrees>-1.90333751030266284942626953125</LongitudeDegrees>
            </Position>
            <AltitudeMeters>587.79998779296875</AltitudeMeters>
            <DistanceMeters>NAN</DistanceMeters>
          </Trackpoint>
          <Trackpoint>
            <Time>2021-08-14T08:16:54.000Z</Time>
            <Position>
              <LatitudeDegrees>43.05962068028748035430908203125</LatitudeDegrees>
              <LongitudeDegrees>-1.90328772179782390594482421875</LongitudeDegrees>
            </Position>
            <AltitudeMeters>587.79998779296875</AltitudeMeters>
            <DistanceMeters>NAN</DistanceMeters>
          </Trackpoint>
          <Trackpoint>
            <Time>2021-08-14T08:16:55.000Z</Time>
            <Position>
              <LatitudeDegrees>43.05960810743272304534912109375</LatitudeDegrees>
              <LongitudeDegrees>-1.903260312974452972412109375</LongitudeDegrees>
            </Position>
            <AltitudeMeters>587.79998779296875</AltitudeMeters>
            <DistanceMeters>NAN</DistanceMeters>
          </Trackpoint>
          <Trackpoint>
            <Time>2021-08-14T08:16:56.000Z</Time>
            <Position>
              <LatitudeDegrees>43.05958195589482784271240234375</LatitudeDegrees>
              <LongitudeDegrees>-1.90320792607963085174560546875</LongitudeDegrees>
            </Position>
            <AltitudeMeters>588</AltitudeMeters>
            <DistanceMeters>NAN</DistanceMeters>
          </Trackpoint>
          <Trackpoint>
            <Time>2021-08-14T08:16:57.000Z</Time>
            <Position>
              <LatitudeDegrees>43.05956703610718250274658203125</LatitudeDegrees>
              <LongitudeDegrees>-1.90317607484757900238037109375</LongitudeDegrees>
            </Position>
            <AltitudeMeters>588</AltitudeMeters>
            <DistanceMeters>NAN</DistanceMeters>
          </Trackpoint>
          <Trackpoint>
            <Time>2021-08-14T08:16:58.000Z</Time>
            <Position>
              <LatitudeDegrees>43.05954909883439540863037109375</LatitudeDegrees>
              <LongitudeDegrees>-1.9031434692442417144775390625</LongitudeDegrees>
            </Position>
            <AltitudeMeters>588</AltitudeMeters>
            <DistanceMeters>NAN</DistanceMeters>
          </Trackpoint>
          <Trackpoint>
            <Time>2021-08-14T08:16:59.000Z</Time>
            <Position>
              <LatitudeDegrees>43.05952948518097400665283203125</LatitudeDegrees>
              <LongitudeDegrees>-1.90310633741319179534912109375</LongitudeDegrees>
            </Position>
            <AltitudeMeters>588</AltitudeMeters>
            <DistanceMeters>NAN</DistanceMeters>
          </Trackpoint>
          <Trackpoint>
            <Time>2021-08-14T08:17:00.000Z</Time>
            <Position>
              <LatitudeDegrees>43.05951573885977268218994140625</LatitudeDegrees>
              <LongitudeDegrees>-1.9030975364148616790771484375</LongitudeDegrees>
            </Position>
            <AltitudeMeters>588</AltitudeMeters>
            <DistanceMeters>NAN</DistanceMeters>
          </Trackpoint>
          <Trackpoint>
            <Time>2021-08-14T08:17:01.000Z</Time>
            <Position>
              <LatitudeDegrees>43.05949277244508266448974609375</LatitudeDegrees>
              <LongitudeDegrees>-1.9030635058879852294921875</LongitudeDegrees>
            </Position>
            <AltitudeMeters>588</AltitudeMeters>
            <DistanceMeters>NAN</DistanceMeters>
          </Trackpoint>
          <Trackpoint>
            <Time>2021-08-14T08:17:02.000Z</Time>
            <Position>
              <LatitudeDegrees>43.05947885848581790924072265625</LatitudeDegrees>
              <LongitudeDegrees>-1.9030445627868175506591796875</LongitudeDegrees>
            </Position>
            <AltitudeMeters>588</AltitudeMeters>
            <DistanceMeters>NAN</DistanceMeters>
          </Trackpoint>
          <Trackpoint>
            <Time>2021-08-14T08:17:03.000Z</Time>
            <Position>
              <LatitudeDegrees>43.05945555679500102996826171875</LatitudeDegrees>
              <LongitudeDegrees>-1.90302251838147640228271484375</LongitudeDegrees>
            </Position>
            <AltitudeMeters>588.20001220703125</AltitudeMeters>
            <DistanceMeters>NAN</DistanceMeters>
          </Trackpoint>
          <Trackpoint>
            <Time>2021-08-14T08:17:04.000Z</Time>
            <Position>
              <LatitudeDegrees>43.05943451821804046630859375</LatitudeDegrees>
              <LongitudeDegrees>-1.90299578011035919189453125</LongitudeDegrees>
            </Position>
            <AltitudeMeters>588.20001220703125</AltitudeMeters>
            <DistanceMeters>NAN</DistanceMeters>
          </Trackpoint>
          <Trackpoint>
            <Time>2021-08-14T08:17:05.000Z</Time>
            <Position>
              <LatitudeDegrees>43.0594118870794773101806640625</LatitudeDegrees>
              <LongitudeDegrees>-1.90297490917146205902099609375</LongitudeDegrees>
            </Position>
            <AltitudeMeters>588.20001220703125</AltitudeMeters>
            <DistanceMeters>NAN</DistanceMeters>
          </Trackpoint>
          <Trackpoint>
            <Time>2021-08-14T08:17:06.000Z</Time>
            <Position>
              <LatitudeDegrees>43.0593870766460895538330078125</LatitudeDegrees>
              <LongitudeDegrees>-1.90295143984258174896240234375</LongitudeDegrees>
            </Position>
            <AltitudeMeters>588.20001220703125</AltitudeMeters>
            <DistanceMeters>NAN</DistanceMeters>
          </Trackpoint>
          <Trackpoint>
            <Time>2021-08-14T08:17:07.000Z</Time>
            <Position>
              <LatitudeDegrees>43.05937073193490505218505859375</LatitudeDegrees>
              <LongitudeDegrees>-1.90293283201754093170166015625</LongitudeDegrees>
            </Position>
            <AltitudeMeters>588.20001220703125</AltitudeMeters>
            <DistanceMeters>NAN</DistanceMeters>
          </Trackpoint>
          <Trackpoint>
            <Time>2021-08-14T08:17:08.000Z</Time>
            <Position>
              <LatitudeDegrees>43.05935078300535678863525390625</LatitudeDegrees>
              <LongitudeDegrees>-1.902908943593502044677734375</LongitudeDegrees>
            </Position>
            <AltitudeMeters>588.4000244140625</AltitudeMeters>
            <DistanceMeters>NAN</DistanceMeters>
          </Trackpoint>
          <Trackpoint>
            <Time>2021-08-14T08:17:09.000Z</Time>
            <Position>
              <LatitudeDegrees>43.05933334864675998687744140625</LatitudeDegrees>
              <LongitudeDegrees>-1.90288656391203403472900390625</LongitudeDegrees>
            </Position>
            <AltitudeMeters>588.4000244140625</AltitudeMeters>
            <DistanceMeters>NAN</DistanceMeters>
          </Trackpoint>
          <Trackpoint>
            <Time>2021-08-14T08:17:10.000Z</Time>
            <Position>
              <LatitudeDegrees>43.0593156628310680389404296875</LatitudeDegrees>
              <LongitudeDegrees>-1.90286477096378803253173828125</LongitudeDegrees>
            </Position>
            <AltitudeMeters>588.4000244140625</AltitudeMeters>
            <DistanceMeters>NAN</DistanceMeters>
          </Trackpoint>
          <Trackpoint>
            <Time>2021-08-14T08:17:11.000Z</Time>
            <Position>
              <LatitudeDegrees>43.05929881520569324493408203125</LatitudeDegrees>
              <LongitudeDegrees>-1.902846582233905792236328125</LongitudeDegrees>
            </Position>
            <AltitudeMeters>588.4000244140625</AltitudeMeters>
            <DistanceMeters>NAN</DistanceMeters>
          </Trackpoint>
          <Trackpoint>
            <Time>2021-08-14T08:17:12.000Z</Time>
            <Position>
              <LatitudeDegrees>43.0592911876738071441650390625</LatitudeDegrees>
              <LongitudeDegrees>-1.902837865054607391357421875</LongitudeDegrees>
            </Position>
            <AltitudeMeters>588.4000244140625</AltitudeMeters>
            <DistanceMeters>NAN</DistanceMeters>
          </Trackpoint>
          <Trackpoint>
            <Time>2021-08-14T08:17:13.000Z</Time>
            <Position>
              <LatitudeDegrees>43.0592888407409191131591796875</LatitudeDegrees>
              <LongitudeDegrees>-1.90283526666462421417236328125</LongitudeDegrees>
            </Position>
            <AltitudeMeters>588.4000244140625</AltitudeMeters>
            <DistanceMeters>NAN</DistanceMeters>
          </Trackpoint>
          <Trackpoint>
            <Time>2021-08-14T08:17:16.000Z</Time>
            <Position>
              <LatitudeDegrees>43.0592890083789825439453125</LatitudeDegrees>
              <LongitudeDegrees>-1.90283794887363910675048828125</LongitudeDegrees>
            </Position>
            <AltitudeMeters>588.5999755859375</AltitudeMeters>
            <DistanceMeters>NAN</DistanceMeters>
          </Trackpoint>
          <Trackpoint>
            <Time>2021-08-14T08:17:34.000Z</Time>
            <Position>
              <LatitudeDegrees>43.05928842164576053619384765625</LatitudeDegrees>
              <LongitudeDegrees>-1.902845241129398345947265625</LongitudeDegrees>
            </Position>
            <AltitudeMeters>588.4000244140625</AltitudeMeters>
            <DistanceMeters>NAN</DistanceMeters>
          </Trackpoint>
          <Trackpoint>
            <Time>2021-08-14T08:17:35.000Z</Time>
            <Position>
              <LatitudeDegrees>43.05926813744008541107177734375</LatitudeDegrees>
              <LongitudeDegrees>-1.90283861942589282989501953125</LongitudeDegrees>
            </Position>
            <AltitudeMeters>588.4000244140625</AltitudeMeters>
            <DistanceMeters>NAN</DistanceMeters>
          </Trackpoint>
          <Trackpoint>
            <Time>2021-08-14T08:17:39.000Z</Time>
            <Position>
              <LatitudeDegrees>43.059185408055782318115234375</LatitudeDegrees>
              <LongitudeDegrees>-1.9027894176542758941650390625</LongitudeDegrees>
            </Position>
            <AltitudeMeters>588.5999755859375</AltitudeMeters>
            <DistanceMeters>NAN</DistanceMeters>
          </Trackpoint>
          <Trackpoint>
            <Time>2021-08-14T08:17:41.000Z</Time>
            <Position>
              <LatitudeDegrees>43.059134446084499359130859375</LatitudeDegrees>
              <LongitudeDegrees>-1.9027498550713062286376953125</LongitudeDegrees>
            </Position>
            <AltitudeMeters>588.5999755859375</AltitudeMeters>
            <DistanceMeters>NAN</DistanceMeters>
          </Trackpoint>
          <Trackpoint>
            <Time>2021-08-14T08:17:44.000Z</Time>
            <Position>
              <LatitudeDegrees>43.05907309055328369140625</LatitudeDegrees>
              <LongitudeDegrees>-1.9026915170252323150634765625</LongitudeDegrees>
            </Position>
            <AltitudeMeters>588.79998779296875</AltitudeMeters>
            <DistanceMeters>NAN</DistanceMeters>
          </Trackpoint>
          <Trackpoint>
            <Time>2021-08-14T08:17:45.000Z</Time>
            <Position>
              <LatitudeDegrees>43.059069402515888214111328125</LatitudeDegrees>
              <LongitudeDegrees>-1.9026757590472698211669921875</LongitudeDegrees>
            </Position>
            <AltitudeMeters>588.79998779296875</AltitudeMeters>
            <DistanceMeters>NAN</DistanceMeters>
          </Trackpoint>
          <Trackpoint>
            <Time>2021-08-14T08:17:46.000Z</Time>
            <Position>
              <LatitudeDegrees>43.059065043926239013671875</LatitudeDegrees>
              <LongitudeDegrees>-1.9026683829724788665771484375</LongitudeDegrees>
            </Position>
            <AltitudeMeters>589</AltitudeMeters>
            <DistanceMeters>NAN</DistanceMeters>
          </Trackpoint>
          <Trackpoint>
            <Time>2021-08-14T08:17:50.000Z</Time>
            <Position>
              <LatitudeDegrees>43.05903830565512180328369140625</LatitudeDegrees>
              <LongitudeDegrees>-1.9026469253003597259521484375</LongitudeDegrees>
            </Position>
            <AltitudeMeters>589.79998779296875</AltitudeMeters>
            <DistanceMeters>NAN</DistanceMeters>
          </Trackpoint>
          <Trackpoint>
            <Time>2021-08-14T08:17:51.000Z</Time>
            <Position>
              <LatitudeDegrees>43.058998994529247283935546875</LatitudeDegrees>
              <LongitudeDegrees>-1.9025875814259052276611328125</LongitudeDegrees>
            </Position>
            <AltitudeMeters>590</AltitudeMeters>
            <DistanceMeters>NAN</DistanceMeters>
          </Trackpoint>
          <Trackpoint>
            <Time>2021-08-14T08:17:52.000Z</Time>
            <Position>
              <LatitudeDegrees>43.05893026292324066162109375</LatitudeDegrees>
              <LongitudeDegrees>-1.9025268964469432830810546875</LongitudeDegrees>
            </Position>
            <AltitudeMeters>590.20001220703125</AltitudeMeters>
            <DistanceMeters>NAN</DistanceMeters>
          </Trackpoint>
          <Trackpoint>
            <Time>2021-08-14T08:17:53.000Z</Time>
            <Position>
              <LatitudeDegrees>43.0588777922093868255615234375</LatitudeDegrees>
              <LongitudeDegrees>-1.90248372964560985565185546875</LongitudeDegrees>
            </Position>
            <AltitudeMeters>590.20001220703125</AltitudeMeters>
            <DistanceMeters>NAN</DistanceMeters>
          </Trackpoint>
          <Trackpoint>
            <Time>2021-08-14T08:17:54.000Z</Time>
            <Position>
              <LatitudeDegrees>43.05883278138935565948486328125</LatitudeDegrees>
              <LongitudeDegrees>-1.9024618528783321380615234375</LongitudeDegrees>
            </Position>
            <AltitudeMeters>590.4000244140625</AltitudeMeters>
            <DistanceMeters>NAN</DistanceMeters>
          </Trackpoint>
          <Trackpoint>
            <Time>2021-08-14T08:17:55.000Z</Time>
            <Position>
              <LatitudeDegrees>43.05880730040371417999267578125</LatitudeDegrees>
              <LongitudeDegrees>-1.902439892292022705078125</LongitudeDegrees>
            </Position>
            <AltitudeMeters>590.5999755859375</AltitudeMeters>
            <DistanceMeters>NAN</DistanceMeters>
          </Trackpoint>
          <Trackpoint>
            <Time>2021-08-14T08:17:56.000Z</Time>
            <Position>
              <LatitudeDegrees>43.05879422463476657867431640625</LatitudeDegrees>
              <LongitudeDegrees>-1.90241038799285888671875</LongitudeDegrees>
            </Position>
            <AltitudeMeters>590.5999755859375</AltitudeMeters>
            <DistanceMeters>NAN</DistanceMeters>
          </Trackpoint>
          <Trackpoint>
            <Time>2021-08-14T08:17:57.000Z</Time>
            <Position>
              <LatitudeDegrees>43.05877930484712123870849609375</LatitudeDegrees>
              <LongitudeDegrees>-1.90238960087299346923828125</LongitudeDegrees>
            </Position>
            <AltitudeMeters>590.79998779296875</AltitudeMeters>
            <DistanceMeters>NAN</DistanceMeters>
          </Trackpoint>
          <Trackpoint>
            <Time>2021-08-14T08:18:03.000Z</Time>
            <Position>
              <LatitudeDegrees>43.0585988424718379974365234375</LatitudeDegrees>
              <LongitudeDegrees>-1.90227049402892589569091796875</LongitudeDegrees>
            </Position>
            <AltitudeMeters>591.20001220703125</AltitudeMeters>
            <DistanceMeters>NAN</DistanceMeters>
          </Trackpoint>
          <Trackpoint>
            <Time>2021-08-14T08:18:04.000Z</Time>
            <Position>
              <LatitudeDegrees>43.05856858380138874053955078125</LatitudeDegrees>
              <LongitudeDegrees>-1.90225792117416858673095703125</LongitudeDegrees>
            </Position>
            <AltitudeMeters>591.20001220703125</AltitudeMeters>
            <DistanceMeters>NAN</DistanceMeters>
          </Trackpoint>
          <Trackpoint>
            <Time>2021-08-14T08:18:05.000Z</Time>
            <Position>
              <LatitudeDegrees>43.0585394985973834991455078125</LatitudeDegrees>
              <LongitudeDegrees>-1.9022342003881931304931640625</LongitudeDegrees>
            </Position>
            <AltitudeMeters>591.20001220703125</AltitudeMeters>
            <DistanceMeters>NAN</DistanceMeters>
          </Trackpoint>
          <Trackpoint>
            <Time>2021-08-14T08:18:06.000Z</Time>
            <Position>
              <LatitudeDegrees>43.05850320495665073394775390625</LatitudeDegrees>
              <LongitudeDegrees>-1.902218945324420928955078125</LongitudeDegrees>
            </Position>
            <AltitudeMeters>591.20001220703125</AltitudeMeters>
            <DistanceMeters>NAN</DistanceMeters>
          </Trackpoint>
          <Trackpoint>
            <Time>2021-08-14T08:18:07.000Z</Time>
            <Position>
              <LatitudeDegrees>43.05847370065748691558837890625</LatitudeDegrees>
              <LongitudeDegrees>-1.90219924785196781158447265625</LongitudeDegrees>
            </Position>
            <AltitudeMeters>591</AltitudeMeters>
            <DistanceMeters>NAN</DistanceMeters>
          </Trackpoint>
          <Trackpoint>
            <Time>2021-08-14T08:18:08.000Z</Time>
            <Position>
              <LatitudeDegrees>43.05844268761575222015380859375</LatitudeDegrees>
              <LongitudeDegrees>-1.90217544324696063995361328125</LongitudeDegrees>
            </Position>
            <AltitudeMeters>591</AltitudeMeters>
            <DistanceMeters>NAN</DistanceMeters>
          </Trackpoint>
          <Trackpoint>
            <Time>2021-08-14T08:18:09.000Z</Time>
            <Position>
              <LatitudeDegrees>43.0584204755723476409912109375</LatitudeDegrees>
              <LongitudeDegrees>-1.9021597690880298614501953125</LongitudeDegrees>
            </Position>
            <AltitudeMeters>591.20001220703125</AltitudeMeters>
            <DistanceMeters>NAN</DistanceMeters>
          </Trackpoint>
          <Trackpoint>
            <Time>2021-08-14T08:18:14.000Z</Time>
            <Position>
              <LatitudeDegrees>43.0582843534648418426513671875</LatitudeDegrees>
              <LongitudeDegrees>-1.90199824981391429901123046875</LongitudeDegrees>
            </Position>
            <AltitudeMeters>591.4000244140625</AltitudeMeters>
            <DistanceMeters>NAN</DistanceMeters>
          </Trackpoint>
          <Trackpoint>
            <Time>2021-08-14T08:18:17.000Z</Time>
            <Position>
              <LatitudeDegrees>43.0581812560558319091796875</LatitudeDegrees>
              <LongitudeDegrees>-1.90188040025532245635986328125</LongitudeDegrees>
            </Position>
            <AltitudeMeters>591.4000244140625</AltitudeMeters>
            <DistanceMeters>NAN</DistanceMeters>
          </Trackpoint>
          <Trackpoint>
            <Time>2021-08-14T08:18:19.000Z</Time>
            <Position>
              <LatitudeDegrees>43.058115206658840179443359375</LatitudeDegrees>
              <LongitudeDegrees>-1.90180613659322261810302734375</LongitudeDegrees>
            </Position>
            <AltitudeMeters>591.4000244140625</AltitudeMeters>
            <DistanceMeters>NAN</DistanceMeters>
          </Trackpoint>
          <Trackpoint>
            <Time>2021-08-14T08:18:20.000Z</Time>
            <Position>
              <LatitudeDegrees>43.05808578617870807647705078125</LatitudeDegrees>
              <LongitudeDegrees>-1.90176732838153839111328125</LongitudeDegrees>
            </Position>
            <AltitudeMeters>591.5999755859375</AltitudeMeters>
            <DistanceMeters>NAN</DistanceMeters>
          </Trackpoint>
          <Trackpoint>
            <Time>2021-08-14T08:18:21.000Z</Time>
            <Position>
              <LatitudeDegrees>43.05806147865951061248779296875</LatitudeDegrees>
              <LongitudeDegrees>-1.9017309509217739105224609375</LongitudeDegrees>
            </Position>
            <AltitudeMeters>591.5999755859375</AltitudeMeters>
            <DistanceMeters>NAN</DistanceMeters>
          </Trackpoint>
          <Trackpoint>
            <Time>2021-08-14T08:18:22.000Z</Time>
            <Position>
              <LatitudeDegrees>43.05803700350224971771240234375</LatitudeDegrees>
              <LongitudeDegrees>-1.9016928970813751220703125</LongitudeDegrees>
            </Position>
            <AltitudeMeters>591.5999755859375</AltitudeMeters>
            <DistanceMeters>NAN</DistanceMeters>
          </Trackpoint>
          <Trackpoint>
            <Time>2021-08-14T08:18:23.000Z</Time>
            <Position>
              <LatitudeDegrees>43.05800967849791049957275390625</LatitudeDegrees>
              <LongitudeDegrees>-1.90167085267603397369384765625</LongitudeDegrees>
            </Position>
            <AltitudeMeters>591.79998779296875</AltitudeMeters>
            <DistanceMeters>NAN</DistanceMeters>
          </Trackpoint>
          <Trackpoint>
            <Time>2021-08-14T08:18:25.000Z</Time>
            <Position>
              <LatitudeDegrees>43.05795502848923206329345703125</LatitudeDegrees>
              <LongitudeDegrees>-1.90162341110408306121826171875</LongitudeDegrees>
            </Position>
            <AltitudeMeters>591.79998779296875</AltitudeMeters>
            <DistanceMeters>NAN</DistanceMeters>
          </Trackpoint>
          <Trackpoint>
            <Time>2021-08-14T08:18:26.000Z</Time>
            <Position>
              <LatitudeDegrees>43.05792854167520999908447265625</LatitudeDegrees>
              <LongitudeDegrees>-1.9016017019748687744140625</LongitudeDegrees>
            </Position>
            <AltitudeMeters>591.79998779296875</AltitudeMeters>
            <DistanceMeters>NAN</DistanceMeters>
          </Trackpoint>
          <Trackpoint>
            <Time>2021-08-14T08:18:27.000Z</Time>
            <Position>
              <LatitudeDegrees>43.0579024739563465118408203125</LatitudeDegrees>
              <LongitudeDegrees>-1.901578567922115325927734375</LongitudeDegrees>
            </Position>
            <AltitudeMeters>591.79998779296875</AltitudeMeters>
            <DistanceMeters>NAN</DistanceMeters>
          </Trackpoint>
          <Trackpoint>
            <Time>2021-08-14T08:18:28.000Z</Time>
            <Position>
              <LatitudeDegrees>43.05787607096135616302490234375</LatitudeDegrees>
              <LongitudeDegrees>-1.90155518241226673126220703125</LongitudeDegrees>
            </Position>
            <AltitudeMeters>591.79998779296875</AltitudeMeters>
            <DistanceMeters>NAN</DistanceMeters>
          </Trackpoint>
          <Trackpoint>
            <Time>2021-08-14T08:18:29.000Z</Time>
            <Position>
              <LatitudeDegrees>43.05785042233765125274658203125</LatitudeDegrees>
              <LongitudeDegrees>-1.90153154544532299041748046875</LongitudeDegrees>
            </Position>
            <AltitudeMeters>591.79998779296875</AltitudeMeters>
            <DistanceMeters>NAN</DistanceMeters>
          </Trackpoint>
          <Trackpoint>
            <Time>2021-08-14T08:18:30.000Z</Time>
            <Position>
              <LatitudeDegrees>43.05782577954232692718505859375</LatitudeDegrees>
              <LongitudeDegrees>-1.901506818830966949462890625</LongitudeDegrees>
            </Position>
            <AltitudeMeters>591.79998779296875</AltitudeMeters>
            <DistanceMeters>NAN</DistanceMeters>
          </Trackpoint>
          <Trackpoint>
            <Time>2021-08-14T08:18:31.000Z</Time>
            <Position>
              <LatitudeDegrees>43.05780373513698577880859375</LatitudeDegrees>
              <LongitudeDegrees>-1.901485361158847808837890625</LongitudeDegrees>
            </Position>
            <AltitudeMeters>591.79998779296875</AltitudeMeters>
            <DistanceMeters>NAN</DistanceMeters>
          </Trackpoint>
          <Trackpoint>
            <Time>2021-08-14T08:18:32.000Z</Time>
            <Position>
              <LatitudeDegrees>43.0577854625880718231201171875</LatitudeDegrees>
              <LongitudeDegrees>-1.90146951936185359954833984375</LongitudeDegrees>
            </Position>
            <AltitudeMeters>592</AltitudeMeters>
            <DistanceMeters>NAN</DistanceMeters>
          </Trackpoint>
          <Trackpoint>
            <Time>2021-08-14T08:18:33.000Z</Time>
            <Position>
              <LatitudeDegrees>43.05775889195501804351806640625</LatitudeDegrees>
              <LongitudeDegrees>-1.90144755877554416656494140625</LongitudeDegrees>
            </Position>
            <AltitudeMeters>592</AltitudeMeters>
            <DistanceMeters>NAN</DistanceMeters>
          </Trackpoint>
          <Trackpoint>
            <Time>2021-08-14T08:18:34.000Z</Time>
            <Position>
              <LatitudeDegrees>43.0577358417212963104248046875</LatitudeDegrees>
              <LongitudeDegrees>-1.90143079496920108795166015625</LongitudeDegrees>
            </Position>
            <AltitudeMeters>592.20001220703125</AltitudeMeters>
            <DistanceMeters>NAN</DistanceMeters>
          </Trackpoint>
          <Trackpoint>
            <Time>2021-08-14T08:18:35.000Z</Time>
            <Position>
              <LatitudeDegrees>43.0577130429446697235107421875</LatitudeDegrees>
              <LongitudeDegrees>-1.90141185186803340911865234375</LongitudeDegrees>
            </Position>
            <AltitudeMeters>592.20001220703125</AltitudeMeters>
            <DistanceMeters>NAN</DistanceMeters>
          </Trackpoint>
          <Trackpoint>
            <Time>2021-08-14T08:18:36.000Z</Time>
            <Position>
              <LatitudeDegrees>43.057692088186740875244140625</LatitudeDegrees>
              <LongitudeDegrees>-1.90139408223330974578857421875</LongitudeDegrees>
            </Position>
            <AltitudeMeters>592.4000244140625</AltitudeMeters>
            <DistanceMeters>NAN</DistanceMeters>
          </Trackpoint>
          <Trackpoint>
            <Time>2021-08-14T08:18:37.000Z</Time>
            <Position>
              <LatitudeDegrees>43.0576754920184612274169921875</LatitudeDegrees>
              <LongitudeDegrees>-1.90138100646436214447021484375</LongitudeDegrees>
            </Position>
            <AltitudeMeters>592.5999755859375</AltitudeMeters>
            <DistanceMeters>NAN</DistanceMeters>
          </Trackpoint>
          <Trackpoint>
            <Time>2021-08-14T08:18:38.000Z</Time>
            <Position>
              <LatitudeDegrees>43.0576503463089466094970703125</LatitudeDegrees>
              <LongitudeDegrees>-1.9013567827641963958740234375</LongitudeDegrees>
            </Position>
            <AltitudeMeters>592.5999755859375</AltitudeMeters>
            <DistanceMeters>NAN</DistanceMeters>
          </Trackpoint>
          <Trackpoint>
            <Time>2021-08-14T08:18:39.000Z</Time>
            <Position>
              <LatitudeDegrees>43.05763014592230319976806640625</LatitudeDegrees>
              <LongitudeDegrees>-1.9013309665024280548095703125</LongitudeDegrees>
            </Position>
            <AltitudeMeters>592.79998779296875</AltitudeMeters>
            <DistanceMeters>NAN</DistanceMeters>
          </Trackpoint>
          <Trackpoint>
            <Time>2021-08-14T08:18:46.000Z</Time>
            <Position>
              <LatitudeDegrees>43.05743199773132801055908203125</LatitudeDegrees>
              <LongitudeDegrees>-1.90117657184600830078125</LongitudeDegrees>
            </Position>
            <AltitudeMeters>593.20001220703125</AltitudeMeters>
            <DistanceMeters>NAN</DistanceMeters>
          </Trackpoint>
          <Trackpoint>
            <Time>2021-08-14T08:18:50.000Z</Time>
            <Position>
              <LatitudeDegrees>43.05733342655003070831298828125</LatitudeDegrees>
              <LongitudeDegrees>-1.9010942615568637847900390625</LongitudeDegrees>
            </Position>
            <AltitudeMeters>593.79998779296875</AltitudeMeters>
            <DistanceMeters>NAN</DistanceMeters>
          </Trackpoint>
          <Trackpoint>
            <Time>2021-08-14T08:18:52.000Z</Time>
            <Position>
              <LatitudeDegrees>43.0572934448719024658203125</LatitudeDegrees>
              <LongitudeDegrees>-1.9010491669178009033203125</LongitudeDegrees>
            </Position>
            <AltitudeMeters>594</AltitudeMeters>
            <DistanceMeters>NAN</DistanceMeters>
          </Trackpoint>
          <Trackpoint>
            <Time>2021-08-14T08:18:53.000Z</Time>
            <Position>
              <LatitudeDegrees>43.05727265775203704833984375</LatitudeDegrees>
              <LongitudeDegrees>-1.9010369293391704559326171875</LongitudeDegrees>
            </Position>
            <AltitudeMeters>594.20001220703125</AltitudeMeters>
            <DistanceMeters>NAN</DistanceMeters>
          </Trackpoint>
          <Trackpoint>
            <Time>2021-08-14T08:18:54.000Z</Time>
            <Position>
              <LatitudeDegrees>43.05725413374602794647216796875</LatitudeDegrees>
              <LongitudeDegrees>-1.9010285474359989166259765625</LongitudeDegrees>
            </Position>
            <AltitudeMeters>594.20001220703125</AltitudeMeters>
            <DistanceMeters>NAN</DistanceMeters>
          </Trackpoint>
          <Trackpoint>
            <Time>2021-08-14T08:18:55.000Z</Time>
            <Position>
              <LatitudeDegrees>43.057238124310970306396484375</LatitudeDegrees>
              <LongitudeDegrees>-1.9010154716670513153076171875</LongitudeDegrees>
            </Position>
            <AltitudeMeters>594.4000244140625</AltitudeMeters>
            <DistanceMeters>NAN</DistanceMeters>
          </Trackpoint>
          <Trackpoint>
            <Time>2021-08-14T08:18:56.000Z</Time>
            <Position>
              <LatitudeDegrees>43.05722211487591266632080078125</LatitudeDegrees>
              <LongitudeDegrees>-1.90100348554551601409912109375</LongitudeDegrees>
            </Position>
            <AltitudeMeters>594.4000244140625</AltitudeMeters>
            <DistanceMeters>NAN</DistanceMeters>
          </Trackpoint>
          <Trackpoint>
            <Time>2021-08-14T08:18:57.000Z</Time>
            <Position>
              <LatitudeDegrees>43.05720736272633075714111328125</LatitudeDegrees>
              <LongitudeDegrees>-1.9009876437485218048095703125</LongitudeDegrees>
            </Position>
            <AltitudeMeters>594.5999755859375</AltitudeMeters>
            <DistanceMeters>NAN</DistanceMeters>
          </Trackpoint>
          <Trackpoint>
            <Time>2021-08-14T08:18:58.000Z</Time>
            <Position>
              <LatitudeDegrees>43.0571755953133106231689453125</LatitudeDegrees>
              <LongitudeDegrees>-1.9009591452777385711669921875</LongitudeDegrees>
            </Position>
            <AltitudeMeters>594.5999755859375</AltitudeMeters>
            <DistanceMeters>NAN</DistanceMeters>
          </Trackpoint>
          <Trackpoint>
            <Time>2021-08-14T08:19:04.000Z</Time>
            <Position>
              <LatitudeDegrees>43.0569930374622344970703125</LatitudeDegrees>
              <LongitudeDegrees>-1.900841630995273590087890625</LongitudeDegrees>
            </Position>
            <AltitudeMeters>594.79998779296875</AltitudeMeters>
            <DistanceMeters>NAN</DistanceMeters>
          </Trackpoint>
          <Trackpoint>
            <Time>2021-08-14T08:19:06.000Z</Time>
            <Position>
              <LatitudeDegrees>43.0569382198154926300048828125</LatitudeDegrees>
              <LongitudeDegrees>-1.90079092048108577728271484375</LongitudeDegrees>
            </Position>
            <AltitudeMeters>595</AltitudeMeters>
            <DistanceMeters>NAN</DistanceMeters>
          </Trackpoint>
          <Trackpoint>
            <Time>2021-08-14T08:19:07.000Z</Time>
            <Position>
              <LatitudeDegrees>43.056912906467914581298828125</LatitudeDegrees>
              <LongitudeDegrees>-1.90075286664068698883056640625</LongitudeDegrees>
            </Position>
            <AltitudeMeters>595</AltitudeMeters>
            <DistanceMeters>NAN</DistanceMeters>
          </Trackpoint>
          <Trackpoint>
            <Time>2021-08-14T08:19:08.000Z</Time>
            <Position>
              <LatitudeDegrees>43.05688616819679737091064453125</LatitudeDegrees>
              <LongitudeDegrees>-1.90070877783000469207763671875</LongitudeDegrees>
            </Position>
            <AltitudeMeters>595</AltitudeMeters>
            <DistanceMeters>NAN</DistanceMeters>
          </Trackpoint>
          <Trackpoint>
            <Time>2021-08-14T08:19:10.000Z</Time>
            <Position>
              <LatitudeDegrees>43.05683470331132411956787109375</LatitudeDegrees>
              <LongitudeDegrees>-1.90062227658927440643310546875</LongitudeDegrees>
            </Position>
            <AltitudeMeters>595</AltitudeMeters>
            <DistanceMeters>NAN</DistanceMeters>
          </Trackpoint>
          <Trackpoint>
            <Time>2021-08-14T08:19:14.000Z</Time>
            <Position>
              <LatitudeDegrees>43.056749962270259857177734375</LatitudeDegrees>
              <LongitudeDegrees>-1.90048296935856342315673828125</LongitudeDegrees>
            </Position>
            <AltitudeMeters>595.20001220703125</AltitudeMeters>
            <DistanceMeters>NAN</DistanceMeters>
          </Trackpoint>
          <Trackpoint>
            <Time>2021-08-14T08:19:15.000Z</Time>
            <Position>
              <LatitudeDegrees>43.056733198463916778564453125</LatitudeDegrees>
              <LongitudeDegrees>-1.90045145340263843536376953125</LongitudeDegrees>
            </Position>
            <AltitudeMeters>595.20001220703125</AltitudeMeters>
            <DistanceMeters>NAN</DistanceMeters>
          </Trackpoint>
          <Trackpoint>
            <Time>2021-08-14T08:19:16.000Z</Time>
            <Position>
              <LatitudeDegrees>43.0567176081240177154541015625</LatitudeDegrees>
              <LongitudeDegrees>-1.9004180096089839935302734375</LongitudeDegrees>
            </Position>
            <AltitudeMeters>595.4000244140625</AltitudeMeters>
            <DistanceMeters>NAN</DistanceMeters>
          </Trackpoint>
          <Trackpoint>
            <Time>2021-08-14T08:19:18.000Z</Time>
            <Position>
              <LatitudeDegrees>43.056686930358409881591796875</LatitudeDegrees>
              <LongitudeDegrees>-1.90033963881433010101318359375</LongitudeDegrees>
            </Position>
            <AltitudeMeters>595.4000244140625</AltitudeMeters>
            <DistanceMeters>NAN</DistanceMeters>
          </Trackpoint>
          <Trackpoint>
            <Time>2021-08-14T08:19:19.000Z</Time>
            <Position>
              <LatitudeDegrees>43.05668030865490436553955078125</LatitudeDegrees>
              <LongitudeDegrees>-1.90030996687710285186767578125</LongitudeDegrees>
            </Position>
            <AltitudeMeters>595.4000244140625</AltitudeMeters>
            <DistanceMeters>NAN</DistanceMeters>
          </Trackpoint>
          <Trackpoint>
            <Time>2021-08-14T08:19:20.000Z</Time>
            <Position>
              <LatitudeDegrees>43.05666723288595676422119140625</LatitudeDegrees>
              <LongitudeDegrees>-1.90027275122702121734619140625</LongitudeDegrees>
            </Position>
            <AltitudeMeters>595.5999755859375</AltitudeMeters>
            <DistanceMeters>NAN</DistanceMeters>
          </Trackpoint>
          <Trackpoint>
            <Time>2021-08-14T08:19:21.000Z</Time>
            <Position>
              <LatitudeDegrees>43.0566537380218505859375</LatitudeDegrees>
              <LongitudeDegrees>-1.9002386368811130523681640625</LongitudeDegrees>
            </Position>
            <AltitudeMeters>595.5999755859375</AltitudeMeters>
            <DistanceMeters>NAN</DistanceMeters>
          </Trackpoint>
          <Trackpoint>
            <Time>2021-08-14T08:19:22.000Z</Time>
            <Position>
              <LatitudeDegrees>43.05664359591901302337646484375</LatitudeDegrees>
              <LongitudeDegrees>-1.9001984037458896636962890625</LongitudeDegrees>
            </Position>
            <AltitudeMeters>595.5999755859375</AltitudeMeters>
            <DistanceMeters>NAN</DistanceMeters>
          </Trackpoint>
          <Trackpoint>
            <Time>2021-08-14T08:19:23.000Z</Time>
            <Position>
              <LatitudeDegrees>43.0566364713013172149658203125</LatitudeDegrees>
              <LongitudeDegrees>-1.90016579814255237579345703125</LongitudeDegrees>
            </Position>
            <AltitudeMeters>595.79998779296875</AltitudeMeters>
            <DistanceMeters>NAN</DistanceMeters>
          </Trackpoint>
          <Trackpoint>
            <Time>2021-08-14T08:19:26.000Z</Time>
            <Position>
              <LatitudeDegrees>43.056602440774440765380859375</LatitudeDegrees>
              <LongitudeDegrees>-1.90003068186342716217041015625</LongitudeDegrees>
            </Position>
            <AltitudeMeters>596</AltitudeMeters>
            <DistanceMeters>NAN</DistanceMeters>
          </Trackpoint>
          <Trackpoint>
            <Time>2021-08-14T08:19:27.000Z</Time>
            <Position>
              <LatitudeDegrees>43.05658861063420772552490234375</LatitudeDegrees>
              <LongitudeDegrees>-1.899988017976284027099609375</LongitudeDegrees>
            </Position>
            <AltitudeMeters>596.20001220703125</AltitudeMeters>
            <DistanceMeters>NAN</DistanceMeters>
          </Trackpoint>
          <Trackpoint>
            <Time>2021-08-14T08:19:29.000Z</Time>
            <Position>
              <LatitudeDegrees>43.056575618684291839599609375</LatitudeDegrees>
              <LongitudeDegrees>-1.899920962750911712646484375</LongitudeDegrees>
            </Position>
            <AltitudeMeters>596.4000244140625</AltitudeMeters>
            <DistanceMeters>NAN</DistanceMeters>
          </Trackpoint>
          <Trackpoint>
            <Time>2021-08-14T08:19:30.000Z</Time>
            <Position>
              <LatitudeDegrees>43.0565653927624225616455078125</LatitudeDegrees>
              <LongitudeDegrees>-1.89989506267011165618896484375</LongitudeDegrees>
            </Position>
            <AltitudeMeters>596.5999755859375</AltitudeMeters>
            <DistanceMeters>NAN</DistanceMeters>
          </Trackpoint>
          <Trackpoint>
            <Time>2021-08-14T08:19:31.000Z</Time>
            <Position>
              <LatitudeDegrees>43.0565556697547435760498046875</LatitudeDegrees>
              <LongitudeDegrees>-1.89986907877027988433837890625</LongitudeDegrees>
            </Position>
            <AltitudeMeters>596.79998779296875</AltitudeMeters>
            <DistanceMeters>NAN</DistanceMeters>
          </Trackpoint>
          <Trackpoint>
            <Time>2021-08-14T08:19:34.000Z</Time>
            <Position>
              <LatitudeDegrees>43.05655022151768207550048828125</LatitudeDegrees>
              <LongitudeDegrees>-1.89976296387612819671630859375</LongitudeDegrees>
            </Position>
            <AltitudeMeters>597.20001220703125</AltitudeMeters>
            <DistanceMeters>NAN</DistanceMeters>
          </Trackpoint>
          <Trackpoint>
            <Time>2021-08-14T08:19:36.000Z</Time>
            <Position>
              <LatitudeDegrees>43.05654133670032024383544921875</LatitudeDegrees>
              <LongitudeDegrees>-1.8996656499803066253662109375</LongitudeDegrees>
            </Position>
            <AltitudeMeters>597.4000244140625</AltitudeMeters>
            <DistanceMeters>NAN</DistanceMeters>
          </Trackpoint>
          <Trackpoint>
            <Time>2021-08-14T08:19:40.000Z</Time>
            <Position>
              <LatitudeDegrees>43.0565352179110050201416015625</LatitudeDegrees>
              <LongitudeDegrees>-1.8995149433612823486328125</LongitudeDegrees>
            </Position>
            <AltitudeMeters>597.5999755859375</AltitudeMeters>
            <DistanceMeters>NAN</DistanceMeters>
          </Trackpoint>
          <Trackpoint>
            <Time>2021-08-14T08:19:43.000Z</Time>
            <Position>
              <LatitudeDegrees>43.05652054958045482635498046875</LatitudeDegrees>
              <LongitudeDegrees>-1.8993967585265636444091796875</LongitudeDegrees>
            </Position>
            <AltitudeMeters>597.5999755859375</AltitudeMeters>
            <DistanceMeters>NAN</DistanceMeters>
          </Trackpoint>
          <Trackpoint>
            <Time>2021-08-14T08:19:50.000Z</Time>
            <Position>
              <LatitudeDegrees>43.05650328285992145538330078125</LatitudeDegrees>
              <LongitudeDegrees>-1.89906307496130466461181640625</LongitudeDegrees>
            </Position>
            <AltitudeMeters>597.79998779296875</AltitudeMeters>
            <DistanceMeters>NAN</DistanceMeters>
          </Trackpoint>
          <Trackpoint>
            <Time>2021-08-14T08:19:52.000Z</Time>
            <Position>
              <LatitudeDegrees>43.056501857936382293701171875</LatitudeDegrees>
              <LongitudeDegrees>-1.8989558704197406768798828125</LongitudeDegrees>
            </Position>
            <AltitudeMeters>598</AltitudeMeters>
            <DistanceMeters>NAN</DistanceMeters>
          </Trackpoint>
          <Trackpoint>
            <Time>2021-08-14T08:19:57.000Z</Time>
            <Position>
              <LatitudeDegrees>43.056481741368770599365234375</LatitudeDegrees>
              <LongitudeDegrees>-1.89874355681240558624267578125</LongitudeDegrees>
            </Position>
            <AltitudeMeters>598.79998779296875</AltitudeMeters>
            <DistanceMeters>NAN</DistanceMeters>
          </Trackpoint>
          <Trackpoint>
            <Time>2021-08-14T08:19:58.000Z</Time>
            <Position>
              <LatitudeDegrees>43.05648299865424633026123046875</LatitudeDegrees>
              <LongitudeDegrees>-1.8986968696117401123046875</LongitudeDegrees>
            </Position>
            <AltitudeMeters>598.79998779296875</AltitudeMeters>
            <DistanceMeters>NAN</DistanceMeters>
          </Trackpoint>
          <Trackpoint>
            <Time>2021-08-14T08:19:59.000Z</Time>
            <Position>
              <LatitudeDegrees>43.05648274719715118408203125</LatitudeDegrees>
              <LongitudeDegrees>-1.89863258041441440582275390625</LongitudeDegrees>
            </Position>
            <AltitudeMeters>598.79998779296875</AltitudeMeters>
            <DistanceMeters>NAN</DistanceMeters>
          </Trackpoint>
          <Trackpoint>
            <Time>2021-08-14T08:20:00.000Z</Time>
            <Position>
              <LatitudeDegrees>43.0564822442829608917236328125</LatitudeDegrees>
              <LongitudeDegrees>-1.8985729850828647613525390625</LongitudeDegrees>
            </Position>
            <AltitudeMeters>598.79998779296875</AltitudeMeters>
            <DistanceMeters>NAN</DistanceMeters>
          </Trackpoint>
          <Trackpoint>
            <Time>2021-08-14T08:20:01.000Z</Time>
            <Position>
              <LatitudeDegrees>43.05648182518780231475830078125</LatitudeDegrees>
              <LongitudeDegrees>-1.8985270522534847259521484375</LongitudeDegrees>
            </Position>
            <AltitudeMeters>599</AltitudeMeters>
            <DistanceMeters>NAN</DistanceMeters>
          </Trackpoint>
          <Trackpoint>
            <Time>2021-08-14T08:20:02.000Z</Time>
            <Position>
              <LatitudeDegrees>43.056479729712009429931640625</LatitudeDegrees>
              <LongitudeDegrees>-1.89848438836634159088134765625</LongitudeDegrees>
            </Position>
            <AltitudeMeters>599.20001220703125</AltitudeMeters>
            <DistanceMeters>NAN</DistanceMeters>
          </Trackpoint>
          <Trackpoint>
            <Time>2021-08-14T08:20:03.000Z</Time>
            <Position>
              <LatitudeDegrees>43.0564611218869686126708984375</LatitudeDegrees>
              <LongitudeDegrees>-1.898431666195392608642578125</LongitudeDegrees>
            </Position>
            <AltitudeMeters>599.4000244140625</AltitudeMeters>
            <DistanceMeters>NAN</DistanceMeters>
          </Trackpoint>
          <Trackpoint>
            <Time>2021-08-14T08:20:04.000Z</Time>
            <Position>
              <LatitudeDegrees>43.0564431846141815185546875</LatitudeDegrees>
              <LongitudeDegrees>-1.89837433397769927978515625</LongitudeDegrees>
            </Position>
            <AltitudeMeters>599.4000244140625</AltitudeMeters>
            <DistanceMeters>NAN</DistanceMeters>
          </Trackpoint>
          <Trackpoint>
            <Time>2021-08-14T08:20:05.000Z</Time>
            <Position>
              <LatitudeDegrees>43.05643790401518344879150390625</LatitudeDegrees>
              <LongitudeDegrees>-1.8983201868832111358642578125</LongitudeDegrees>
            </Position>
            <AltitudeMeters>599.4000244140625</AltitudeMeters>
            <DistanceMeters>NAN</DistanceMeters>
          </Trackpoint>
          <Trackpoint>
            <Time>2021-08-14T08:20:10.000Z</Time>
            <Position>
              <LatitudeDegrees>43.056398928165435791015625</LatitudeDegrees>
              <LongitudeDegrees>-1.8981175124645233154296875</LongitudeDegrees>
            </Position>
            <AltitudeMeters>599.79998779296875</AltitudeMeters>
            <DistanceMeters>NAN</DistanceMeters>
          </Trackpoint>
          <Trackpoint>
            <Time>2021-08-14T08:20:11.000Z</Time>
            <Position>
              <LatitudeDegrees>43.05637805722653865814208984375</LatitudeDegrees>
              <LongitudeDegrees>-1.898089349269866943359375</LongitudeDegrees>
            </Position>
            <AltitudeMeters>599.79998779296875</AltitudeMeters>
            <DistanceMeters>NAN</DistanceMeters>
          </Trackpoint>
          <Trackpoint>
            <Time>2021-08-14T08:20:12.000Z</Time>
            <Position>
              <LatitudeDegrees>43.05636028759181499481201171875</LatitudeDegrees>
              <LongitudeDegrees>-1.89805406145751476287841796875</LongitudeDegrees>
            </Position>
            <AltitudeMeters>599.79998779296875</AltitudeMeters>
            <DistanceMeters>NAN</DistanceMeters>
          </Trackpoint>
          <Trackpoint>
            <Time>2021-08-14T08:20:13.000Z</Time>
            <Position>
              <LatitudeDegrees>43.05634402669966220855712890625</LatitudeDegrees>
              <LongitudeDegrees>-1.89802564680576324462890625</LongitudeDegrees>
            </Position>
            <AltitudeMeters>599.79998779296875</AltitudeMeters>
            <DistanceMeters>NAN</DistanceMeters>
          </Trackpoint>
          <Trackpoint>
            <Time>2021-08-14T08:20:14.000Z</Time>
            <Position>
              <LatitudeDegrees>43.056328855454921722412109375</LatitudeDegrees>
              <LongitudeDegrees>-1.89798499457538127899169921875</LongitudeDegrees>
            </Position>
            <AltitudeMeters>599.79998779296875</AltitudeMeters>
            <DistanceMeters>NAN</DistanceMeters>
          </Trackpoint>
          <Trackpoint>
            <Time>2021-08-14T08:20:15.000Z</Time>
            <Position>
              <LatitudeDegrees>43.05631753988564014434814453125</LatitudeDegrees>
              <LongitudeDegrees>-1.89795163460075855255126953125</LongitudeDegrees>
            </Position>
            <AltitudeMeters>599.5999755859375</AltitudeMeters>
            <DistanceMeters>NAN</DistanceMeters>
          </Trackpoint>
          <Trackpoint>
            <Time>2021-08-14T08:20:16.000Z</Time>
            <Position>
              <LatitudeDegrees>43.0563058890402317047119140625</LatitudeDegrees>
              <LongitudeDegrees>-1.8979215435683727264404296875</LongitudeDegrees>
            </Position>
            <AltitudeMeters>599.79998779296875</AltitudeMeters>
            <DistanceMeters>NAN</DistanceMeters>
          </Trackpoint>
          <Trackpoint>
            <Time>2021-08-14T08:20:17.000Z</Time>
            <Position>
              <LatitudeDegrees>43.05628686212003231048583984375</LatitudeDegrees>
              <LongitudeDegrees>-1.89789329655468463897705078125</LongitudeDegrees>
            </Position>
            <AltitudeMeters>600</AltitudeMeters>
            <DistanceMeters>NAN</DistanceMeters>
          </Trackpoint>
          <Trackpoint>
            <Time>2021-08-14T08:20:18.000Z</Time>
            <Position>
              <LatitudeDegrees>43.0562700144946575164794921875</LatitudeDegrees>
              <LongitudeDegrees>-1.8978682346642017364501953125</LongitudeDegrees>
            </Position>
            <AltitudeMeters>599.79998779296875</AltitudeMeters>
            <DistanceMeters>NAN</DistanceMeters>
          </Trackpoint>
          <Trackpoint>
            <Time>2021-08-14T08:20:19.000Z</Time>
            <Position>
              <LatitudeDegrees>43.05625434033572673797607421875</LatitudeDegrees>
              <LongitudeDegrees>-1.897836886346340179443359375</LongitudeDegrees>
            </Position>
            <AltitudeMeters>599.79998779296875</AltitudeMeters>
            <DistanceMeters>NAN</DistanceMeters>
          </Trackpoint>
          <Trackpoint>
            <Time>2021-08-14T08:20:20.000Z</Time>
            <Position>
              <LatitudeDegrees>43.05624981410801410675048828125</LatitudeDegrees>
              <LongitudeDegrees>-1.89780629239976406097412109375</LongitudeDegrees>
            </Position>
            <AltitudeMeters>600</AltitudeMeters>
            <DistanceMeters>NAN</DistanceMeters>
          </Trackpoint>
          <Trackpoint>
            <Time>2021-08-14T08:20:21.000Z</Time>
            <Position>
              <LatitudeDegrees>43.05624092929065227508544921875</LatitudeDegrees>
              <LongitudeDegrees>-1.8977736867964267730712890625</LongitudeDegrees>
            </Position>
            <AltitudeMeters>600.20001220703125</AltitudeMeters>
            <DistanceMeters>NAN</DistanceMeters>
          </Trackpoint>
          <Trackpoint>
            <Time>2021-08-14T08:20:22.000Z</Time>
            <Position>
              <LatitudeDegrees>43.0562374927103519439697265625</LatitudeDegrees>
              <LongitudeDegrees>-1.89772046171128749847412109375</LongitudeDegrees>
            </Position>
            <AltitudeMeters>600.20001220703125</AltitudeMeters>
            <DistanceMeters>NAN</DistanceMeters>
          </Trackpoint>
          <Trackpoint>
            <Time>2021-08-14T08:20:23.000Z</Time>
            <Position>
              <LatitudeDegrees>43.0562312901020050048828125</LatitudeDegrees>
              <LongitudeDegrees>-1.897669248282909393310546875</LongitudeDegrees>
            </Position>
            <AltitudeMeters>600.20001220703125</AltitudeMeters>
            <DistanceMeters>NAN</DistanceMeters>
          </Trackpoint>
          <Trackpoint>
            <Time>2021-08-14T08:20:26.000Z</Time>
            <Position>
              <LatitudeDegrees>43.05614990182220935821533203125</LatitudeDegrees>
              <LongitudeDegrees>-1.89749331213533878326416015625</LongitudeDegrees>
            </Position>
            <AltitudeMeters>600.20001220703125</AltitudeMeters>
            <DistanceMeters>NAN</DistanceMeters>
          </Trackpoint>
          <Trackpoint>
            <Time>2021-08-14T08:20:27.000Z</Time>
            <Position>
              <LatitudeDegrees>43.05610648356378078460693359375</LatitudeDegrees>
              <LongitudeDegrees>-1.89743597991764545440673828125</LongitudeDegrees>
            </Position>
            <AltitudeMeters>600</AltitudeMeters>
            <DistanceMeters>NAN</DistanceMeters>
          </Trackpoint>
          <Trackpoint>
            <Time>2021-08-14T08:20:28.000Z</Time>
            <Position>
              <LatitudeDegrees>43.05606038309633731842041015625</LatitudeDegrees>
              <LongitudeDegrees>-1.89738032408058643341064453125</LongitudeDegrees>
            </Position>
            <AltitudeMeters>599.79998779296875</AltitudeMeters>
            <DistanceMeters>NAN</DistanceMeters>
          </Trackpoint>
          <Trackpoint>
            <Time>2021-08-14T08:20:31.000Z</Time>
            <Position>
              <LatitudeDegrees>43.055926524102687835693359375</LatitudeDegrees>
              <LongitudeDegrees>-1.89724420197308063507080078125</LongitudeDegrees>
            </Position>
            <AltitudeMeters>598.4000244140625</AltitudeMeters>
            <DistanceMeters>NAN</DistanceMeters>
          </Trackpoint>
          <Trackpoint>
            <Time>2021-08-14T08:20:32.000Z</Time>
            <Position>
              <LatitudeDegrees>43.0558727122843265533447265625</LatitudeDegrees>
              <LongitudeDegrees>-1.89719307236373424530029296875</LongitudeDegrees>
            </Position>
            <AltitudeMeters>598.20001220703125</AltitudeMeters>
            <DistanceMeters>NAN</DistanceMeters>
          </Trackpoint>
          <Trackpoint>
            <Time>2021-08-14T08:20:33.000Z</Time>
            <Position>
              <LatitudeDegrees>43.05582803674042224884033203125</LatitudeDegrees>
              <LongitudeDegrees>-1.89715384505689144134521484375</LongitudeDegrees>
            </Position>
            <AltitudeMeters>597.5999755859375</AltitudeMeters>
            <DistanceMeters>NAN</DistanceMeters>
          </Trackpoint>
          <Trackpoint>
            <Time>2021-08-14T08:20:34.000Z</Time>
            <Position>
              <LatitudeDegrees>43.05578512139618396759033203125</LatitudeDegrees>
              <LongitudeDegrees>-1.89712199382483959197998046875</LongitudeDegrees>
            </Position>
            <AltitudeMeters>597.4000244140625</AltitudeMeters>
            <DistanceMeters>NAN</DistanceMeters>
          </Trackpoint>
          <Trackpoint>
            <Time>2021-08-14T08:20:35.000Z</Time>
            <Position>
              <LatitudeDegrees>43.05574052967131137847900390625</LatitudeDegrees>
              <LongitudeDegrees>-1.89709651283919811248779296875</LongitudeDegrees>
            </Position>
            <AltitudeMeters>597.20001220703125</AltitudeMeters>
            <DistanceMeters>NAN</DistanceMeters>
          </Trackpoint>
          <Trackpoint>
            <Time>2021-08-14T08:20:36.000Z</Time>
            <Position>
              <LatitudeDegrees>43.055696524679660797119140625</LatitudeDegrees>
              <LongitudeDegrees>-1.89708142541348934173583984375</LongitudeDegrees>
            </Position>
            <AltitudeMeters>596.79998779296875</AltitudeMeters>
            <DistanceMeters>NAN</DistanceMeters>
          </Trackpoint>
          <Trackpoint>
            <Time>2021-08-14T08:20:37.000Z</Time>
            <Position>
              <LatitudeDegrees>43.05565453134477138519287109375</LatitudeDegrees>
              <LongitudeDegrees>-1.89706809818744659423828125</LongitudeDegrees>
            </Position>
            <AltitudeMeters>596.79998779296875</AltitudeMeters>
            <DistanceMeters>NAN</DistanceMeters>
          </Trackpoint>
          <Trackpoint>
            <Time>2021-08-14T08:20:38.000Z</Time>
            <Position>
              <LatitudeDegrees>43.05561396293342113494873046875</LatitudeDegrees>
              <LongitudeDegrees>-1.89705896191298961639404296875</LongitudeDegrees>
            </Position>
            <AltitudeMeters>596.5999755859375</AltitudeMeters>
            <DistanceMeters>NAN</DistanceMeters>
          </Trackpoint>
          <Trackpoint>
            <Time>2021-08-14T08:20:39.000Z</Time>
            <Position>
              <LatitudeDegrees>43.05557775311172008514404296875</LatitudeDegrees>
              <LongitudeDegrees>-1.89705259166657924652099609375</LongitudeDegrees>
            </Position>
            <AltitudeMeters>596.20001220703125</AltitudeMeters>
            <DistanceMeters>NAN</DistanceMeters>
          </Trackpoint>
          <Trackpoint>
            <Time>2021-08-14T08:20:40.000Z</Time>
            <Position>
              <LatitudeDegrees>43.05554590187966823577880859375</LatitudeDegrees>
              <LongitudeDegrees>-1.8970484845340251922607421875</LongitudeDegrees>
            </Position>
            <AltitudeMeters>596.20001220703125</AltitudeMeters>
            <DistanceMeters>NAN</DistanceMeters>
          </Trackpoint>
          <Trackpoint>
            <Time>2021-08-14T08:20:41.000Z</Time>
            <Position>
              <LatitudeDegrees>43.0555205047130584716796875</LatitudeDegrees>
              <LongitudeDegrees>-1.897044964134693145751953125</LongitudeDegrees>
            </Position>
            <AltitudeMeters>596</AltitudeMeters>
            <DistanceMeters>NAN</DistanceMeters>
          </Trackpoint>
          <Trackpoint>
            <Time>2021-08-14T08:20:42.000Z</Time>
            <Position>
              <LatitudeDegrees>43.05549695156514644622802734375</LatitudeDegrees>
              <LongitudeDegrees>-1.8970414437353610992431640625</LongitudeDegrees>
            </Position>
            <AltitudeMeters>596</AltitudeMeters>
            <DistanceMeters>NAN</DistanceMeters>
          </Trackpoint>
          <Trackpoint>
            <Time>2021-08-14T08:20:43.000Z</Time>
            <Position>
              <LatitudeDegrees>43.0554760806262493133544921875</LatitudeDegrees>
              <LongitudeDegrees>-1.89703934825956821441650390625</LongitudeDegrees>
            </Position>
            <AltitudeMeters>596</AltitudeMeters>
            <DistanceMeters>NAN</DistanceMeters>
          </Trackpoint>
          <Trackpoint>
            <Time>2021-08-14T08:20:44.000Z</Time>
            <Position>
              <LatitudeDegrees>43.055457808077335357666015625</LatitudeDegrees>
              <LongitudeDegrees>-1.89703800715506076812744140625</LongitudeDegrees>
            </Position>
            <AltitudeMeters>596</AltitudeMeters>
            <DistanceMeters>NAN</DistanceMeters>
          </Trackpoint>
          <Trackpoint>
            <Time>2021-08-14T08:20:45.000Z</Time>
            <Position>
              <LatitudeDegrees>43.05543878115713596343994140625</LatitudeDegrees>
              <LongitudeDegrees>-1.8970390968024730682373046875</LongitudeDegrees>
            </Position>
            <AltitudeMeters>596</AltitudeMeters>
            <DistanceMeters>NAN</DistanceMeters>
          </Trackpoint>
          <Trackpoint>
            <Time>2021-08-14T08:20:48.000Z</Time>
            <Position>
              <LatitudeDegrees>43.05538279004395008087158203125</LatitudeDegrees>
              <LongitudeDegrees>-1.897040270268917083740234375</LongitudeDegrees>
            </Position>
            <AltitudeMeters>596.4000244140625</AltitudeMeters>
            <DistanceMeters>NAN</DistanceMeters>
          </Trackpoint>
          <Trackpoint>
            <Time>2021-08-14T08:20:49.000Z</Time>
            <Position>
              <LatitudeDegrees>43.0553654395043849945068359375</LatitudeDegrees>
              <LongitudeDegrees>-1.89704437740147113800048828125</LongitudeDegrees>
            </Position>
            <AltitudeMeters>596.4000244140625</AltitudeMeters>
            <DistanceMeters>NAN</DistanceMeters>
          </Trackpoint>
          <Trackpoint>
            <Time>2021-08-14T08:20:50.000Z</Time>
            <Position>
              <LatitudeDegrees>43.05534875951707363128662109375</LatitudeDegrees>
              <LongitudeDegrees>-1.89704806543886661529541015625</LongitudeDegrees>
            </Position>
            <AltitudeMeters>596.5999755859375</AltitudeMeters>
            <DistanceMeters>NAN</DistanceMeters>
          </Trackpoint>
          <Trackpoint>
            <Time>2021-08-14T08:20:51.000Z</Time>
            <Position>
              <LatitudeDegrees>43.055331744253635406494140625</LatitudeDegrees>
              <LongitudeDegrees>-1.89704923890531063079833984375</LongitudeDegrees>
            </Position>
            <AltitudeMeters>596.79998779296875</AltitudeMeters>
            <DistanceMeters>NAN</DistanceMeters>
          </Trackpoint>
          <Trackpoint>
            <Time>2021-08-14T08:20:52.000Z</Time>
            <Position>
              <LatitudeDegrees>43.05531221441924571990966796875</LatitudeDegrees>
              <LongitudeDegrees>-1.89705158583819866180419921875</LongitudeDegrees>
            </Position>
            <AltitudeMeters>597</AltitudeMeters>
            <DistanceMeters>NAN</DistanceMeters>
          </Trackpoint>
          <Trackpoint>
            <Time>2021-08-14T08:20:53.000Z</Time>
            <Position>
              <LatitudeDegrees>43.05529511533677577972412109375</LatitudeDegrees>
              <LongitudeDegrees>-1.897055692970752716064453125</LongitudeDegrees>
            </Position>
            <AltitudeMeters>597.20001220703125</AltitudeMeters>
            <DistanceMeters>NAN</DistanceMeters>
          </Trackpoint>
          <Trackpoint>
            <Time>2021-08-14T08:20:54.000Z</Time>
            <Position>
              <LatitudeDegrees>43.05527131073176860809326171875</LatitudeDegrees>
              <LongitudeDegrees>-1.89706080593168735504150390625</LongitudeDegrees>
            </Position>
            <AltitudeMeters>597.4000244140625</AltitudeMeters>
            <DistanceMeters>NAN</DistanceMeters>
          </Trackpoint>
          <Trackpoint>
            <Time>2021-08-14T08:20:55.000Z</Time>
            <Position>
              <LatitudeDegrees>43.055254630744457244873046875</LatitudeDegrees>
              <LongitudeDegrees>-1.8970629014074802398681640625</LongitudeDegrees>
            </Position>
            <AltitudeMeters>597.79998779296875</AltitudeMeters>
            <DistanceMeters>NAN</DistanceMeters>
          </Trackpoint>
          <Trackpoint>
            <Time>2021-08-14T08:20:56.000Z</Time>
            <Position>
              <LatitudeDegrees>43.05523593910038471221923828125</LatitudeDegrees>
              <LongitudeDegrees>-1.89706248231232166290283203125</LongitudeDegrees>
            </Position>
            <AltitudeMeters>598</AltitudeMeters>
            <DistanceMeters>NAN</DistanceMeters>
          </Trackpoint>
          <Trackpoint>
            <Time>2021-08-14T08:20:57.000Z</Time>
            <Position>
              <LatitudeDegrees>43.05521984584629535675048828125</LatitudeDegrees>
              <LongitudeDegrees>-1.89706617034971714019775390625</LongitudeDegrees>
            </Position>
            <AltitudeMeters>598.5999755859375</AltitudeMeters>
            <DistanceMeters>NAN</DistanceMeters>
          </Trackpoint>
          <Trackpoint>
            <Time>2021-08-14T08:20:59.000Z</Time>
            <Position>
              <LatitudeDegrees>43.055169470608234405517578125</LatitudeDegrees>
              <LongitudeDegrees>-1.89706482924520969390869140625</LongitudeDegrees>
            </Position>
            <AltitudeMeters>599</AltitudeMeters>
            <DistanceMeters>NAN</DistanceMeters>
          </Trackpoint>
          <Trackpoint>
            <Time>2021-08-14T08:21:03.000Z</Time>
            <Position>
              <LatitudeDegrees>43.05509076453745365142822265625</LatitudeDegrees>
              <LongitudeDegrees>-1.8970662541687488555908203125</LongitudeDegrees>
            </Position>
            <AltitudeMeters>600.20001220703125</AltitudeMeters>
            <DistanceMeters>NAN</DistanceMeters>
          </Trackpoint>
          <Trackpoint>
            <Time>2021-08-14T08:21:04.000Z</Time>
            <Position>
              <LatitudeDegrees>43.0550667084753513336181640625</LatitudeDegrees>
              <LongitudeDegrees>-1.8970712833106517791748046875</LongitudeDegrees>
            </Position>
            <AltitudeMeters>600.5999755859375</AltitudeMeters>
            <DistanceMeters>NAN</DistanceMeters>
          </Trackpoint>
          <Trackpoint>
            <Time>2021-08-14T08:21:05.000Z</Time>
            <Position>
              <LatitudeDegrees>43.055047430098056793212890625</LatitudeDegrees>
              <LongitudeDegrees>-1.897075138986110687255859375</LongitudeDegrees>
            </Position>
            <AltitudeMeters>600.5999755859375</AltitudeMeters>
            <DistanceMeters>NAN</DistanceMeters>
          </Trackpoint>
          <Trackpoint>
            <Time>2021-08-14T08:21:06.000Z</Time>
            <Position>
              <LatitudeDegrees>43.05502991192042827606201171875</LatitudeDegrees>
              <LongitudeDegrees>-1.8970763124525547027587890625</LongitudeDegrees>
            </Position>
            <AltitudeMeters>601</AltitudeMeters>
            <DistanceMeters>NAN</DistanceMeters>
          </Trackpoint>
          <Trackpoint>
            <Time>2021-08-14T08:21:07.000Z</Time>
            <Position>
              <LatitudeDegrees>43.05501515977084636688232421875</LatitudeDegrees>
              <LongitudeDegrees>-1.8970759771764278411865234375</LongitudeDegrees>
            </Position>
            <AltitudeMeters>601.20001220703125</AltitudeMeters>
            <DistanceMeters>NAN</DistanceMeters>
          </Trackpoint>
          <Trackpoint>
            <Time>2021-08-14T08:21:08.000Z</Time>
            <Position>
              <LatitudeDegrees>43.05499169044196605682373046875</LatitudeDegrees>
              <LongitudeDegrees>-1.8970840238034725189208984375</LongitudeDegrees>
            </Position>
            <AltitudeMeters>601.5999755859375</AltitudeMeters>
            <DistanceMeters>NAN</DistanceMeters>
          </Trackpoint>
          <Trackpoint>
            <Time>2021-08-14T08:21:09.000Z</Time>
            <Position>
              <LatitudeDegrees>43.05497392080724239349365234375</LatitudeDegrees>
              <LongitudeDegrees>-1.89709165133535861968994140625</LongitudeDegrees>
            </Position>
            <AltitudeMeters>601.79998779296875</AltitudeMeters>
            <DistanceMeters>NAN</DistanceMeters>
          </Trackpoint>
          <Trackpoint>
            <Time>2021-08-14T08:21:10.000Z</Time>
            <Position>
              <LatitudeDegrees>43.054957576096057891845703125</LatitudeDegrees>
              <LongitudeDegrees>-1.89710170961916446685791015625</LongitudeDegrees>
            </Position>
            <AltitudeMeters>601.79998779296875</AltitudeMeters>
            <DistanceMeters>NAN</DistanceMeters>
          </Trackpoint>
          <Trackpoint>
            <Time>2021-08-14T08:21:11.000Z</Time>
            <Position>
              <LatitudeDegrees>43.05493972264230251312255859375</LatitudeDegrees>
              <LongitudeDegrees>-1.8971118517220020294189453125</LongitudeDegrees>
            </Position>
            <AltitudeMeters>602</AltitudeMeters>
            <DistanceMeters>NAN</DistanceMeters>
          </Trackpoint>
          <Trackpoint>
            <Time>2021-08-14T08:21:12.000Z</Time>
            <Position>
              <LatitudeDegrees>43.05491960607469081878662109375</LatitudeDegrees>
              <LongitudeDegrees>-1.897123418748378753662109375</LongitudeDegrees>
            </Position>
            <AltitudeMeters>602</AltitudeMeters>
            <DistanceMeters>NAN</DistanceMeters>
          </Trackpoint>
          <Trackpoint>
            <Time>2021-08-14T08:21:13.000Z</Time>
            <Position>
              <LatitudeDegrees>43.05489764548838138580322265625</LatitudeDegrees>
              <LongitudeDegrees>-1.89713557250797748565673828125</LongitudeDegrees>
            </Position>
            <AltitudeMeters>602.20001220703125</AltitudeMeters>
            <DistanceMeters>NAN</DistanceMeters>
          </Trackpoint>
          <Trackpoint>
            <Time>2021-08-14T08:21:14.000Z</Time>
            <Position>
              <LatitudeDegrees>43.05487970821559429168701171875</LatitudeDegrees>
              <LongitudeDegrees>-1.8971478939056396484375</LongitudeDegrees>
            </Position>
            <AltitudeMeters>602.4000244140625</AltitudeMeters>
            <DistanceMeters>NAN</DistanceMeters>
          </Trackpoint>
          <Trackpoint>
            <Time>2021-08-14T08:21:15.000Z</Time>
            <Position>
              <LatitudeDegrees>43.05486135184764862060546875</LatitudeDegrees>
              <LongitudeDegrees>-1.89716256223618984222412109375</LongitudeDegrees>
            </Position>
            <AltitudeMeters>602.4000244140625</AltitudeMeters>
            <DistanceMeters>NAN</DistanceMeters>
          </Trackpoint>
          <Trackpoint>
            <Time>2021-08-14T08:21:16.000Z</Time>
            <Position>
              <LatitudeDegrees>43.05483913980424404144287109375</LatitudeDegrees>
              <LongitudeDegrees>-1.89717672765254974365234375</LongitudeDegrees>
            </Position>
            <AltitudeMeters>602.5999755859375</AltitudeMeters>
            <DistanceMeters>NAN</DistanceMeters>
          </Trackpoint>
          <Trackpoint>
            <Time>2021-08-14T08:21:17.000Z</Time>
            <Position>
              <LatitudeDegrees>43.05481801740825176239013671875</LatitudeDegrees>
              <LongitudeDegrees>-1.8971908092498779296875</LongitudeDegrees>
            </Position>
            <AltitudeMeters>602.79998779296875</AltitudeMeters>
            <DistanceMeters>NAN</DistanceMeters>
          </Trackpoint>
          <Trackpoint>
            <Time>2021-08-14T08:21:18.000Z</Time>
            <Position>
              <LatitudeDegrees>43.05479907430708408355712890625</LatitudeDegrees>
              <LongitudeDegrees>-1.89720246009528636932373046875</LongitudeDegrees>
            </Position>
            <AltitudeMeters>602.79998779296875</AltitudeMeters>
            <DistanceMeters>NAN</DistanceMeters>
          </Trackpoint>
          <Trackpoint>
            <Time>2021-08-14T08:21:19.000Z</Time>
            <Position>
              <LatitudeDegrees>43.05478398688137531280517578125</LatitudeDegrees>
              <LongitudeDegrees>-1.897211931645870208740234375</LongitudeDegrees>
            </Position>
            <AltitudeMeters>603</AltitudeMeters>
            <DistanceMeters>NAN</DistanceMeters>
          </Trackpoint>
          <Trackpoint>
            <Time>2021-08-14T08:21:20.000Z</Time>
            <Position>
              <LatitudeDegrees>43.05476152338087558746337890625</LatitudeDegrees>
              <LongitudeDegrees>-1.89723246730864048004150390625</LongitudeDegrees>
            </Position>
            <AltitudeMeters>603</AltitudeMeters>
            <DistanceMeters>NAN</DistanceMeters>
          </Trackpoint>
          <Trackpoint>
            <Time>2021-08-14T08:21:21.000Z</Time>
            <Position>
              <LatitudeDegrees>43.054742999374866485595703125</LatitudeDegrees>
              <LongitudeDegrees>-1.89724990166723728179931640625</LongitudeDegrees>
            </Position>
            <AltitudeMeters>603.20001220703125</AltitudeMeters>
            <DistanceMeters>NAN</DistanceMeters>
          </Trackpoint>
          <Trackpoint>
            <Time>2021-08-14T08:21:22.000Z</Time>
            <Position>
              <LatitudeDegrees>43.05472481064498424530029296875</LatitudeDegrees>
              <LongitudeDegrees>-1.897262893617153167724609375</LongitudeDegrees>
            </Position>
            <AltitudeMeters>603.20001220703125</AltitudeMeters>
            <DistanceMeters>NAN</DistanceMeters>
          </Trackpoint>
          <Trackpoint>
            <Time>2021-08-14T08:21:23.000Z</Time>
            <Position>
              <LatitudeDegrees>43.05471039377152919769287109375</LatitudeDegrees>
              <LongitudeDegrees>-1.89727337099611759185791015625</LongitudeDegrees>
            </Position>
            <AltitudeMeters>603.20001220703125</AltitudeMeters>
            <DistanceMeters>NAN</DistanceMeters>
          </Trackpoint>
          <Trackpoint>
            <Time>2021-08-14T08:21:24.000Z</Time>
            <Position>
              <LatitudeDegrees>43.0546925403177738189697265625</LatitudeDegrees>
              <LongitudeDegrees>-1.89729080535471439361572265625</LongitudeDegrees>
            </Position>
            <AltitudeMeters>603.4000244140625</AltitudeMeters>
            <DistanceMeters>NAN</DistanceMeters>
          </Trackpoint>
          <Trackpoint>
            <Time>2021-08-14T08:21:25.000Z</Time>
            <Position>
              <LatitudeDegrees>43.054673261940479278564453125</LatitudeDegrees>
              <LongitudeDegrees>-1.8973163701593875885009765625</LongitudeDegrees>
            </Position>
            <AltitudeMeters>603.4000244140625</AltitudeMeters>
            <DistanceMeters>NAN</DistanceMeters>
          </Trackpoint>
          <Trackpoint>
            <Time>2021-08-14T08:21:26.000Z</Time>
            <Position>
              <LatitudeDegrees>43.05465842597186565399169921875</LatitudeDegrees>
              <LongitudeDegrees>-1.89733539707958698272705078125</LongitudeDegrees>
            </Position>
            <AltitudeMeters>603.4000244140625</AltitudeMeters>
            <DistanceMeters>NAN</DistanceMeters>
          </Trackpoint>
          <Trackpoint>
            <Time>2021-08-14T08:21:27.000Z</Time>
            <Position>
              <LatitudeDegrees>43.0546395666897296905517578125</LatitudeDegrees>
              <LongitudeDegrees>-1.89735568128526210784912109375</LongitudeDegrees>
            </Position>
            <AltitudeMeters>603.5999755859375</AltitudeMeters>
            <DistanceMeters>NAN</DistanceMeters>
          </Trackpoint>
          <Trackpoint>
            <Time>2021-08-14T08:21:28.000Z</Time>
            <Position>
              <LatitudeDegrees>43.0546191148459911346435546875</LatitudeDegrees>
              <LongitudeDegrees>-1.8973767198622226715087890625</LongitudeDegrees>
            </Position>
            <AltitudeMeters>603.5999755859375</AltitudeMeters>
            <DistanceMeters>NAN</DistanceMeters>
          </Trackpoint>
          <Trackpoint>
            <Time>2021-08-14T08:21:29.000Z</Time>
            <Position>
              <LatitudeDegrees>43.054604195058345794677734375</LatitudeDegrees>
              <LongitudeDegrees>-1.8973944894969463348388671875</LongitudeDegrees>
            </Position>
            <AltitudeMeters>603.5999755859375</AltitudeMeters>
            <DistanceMeters>NAN</DistanceMeters>
          </Trackpoint>
          <Trackpoint>
            <Time>2021-08-14T08:21:30.000Z</Time>
            <Position>
              <LatitudeDegrees>43.054583072662353515625</LatitudeDegrees>
              <LongitudeDegrees>-1.8974209763109683990478515625</LongitudeDegrees>
            </Position>
            <AltitudeMeters>603.79998779296875</AltitudeMeters>
            <DistanceMeters>NAN</DistanceMeters>
          </Trackpoint>
          <Trackpoint>
            <Time>2021-08-14T08:21:31.000Z</Time>
            <Position>
              <LatitudeDegrees>43.05456756614148616790771484375</LatitudeDegrees>
              <LongitudeDegrees>-1.89744151197373867034912109375</LongitudeDegrees>
            </Position>
            <AltitudeMeters>603.79998779296875</AltitudeMeters>
            <DistanceMeters>NAN</DistanceMeters>
          </Trackpoint>
          <Trackpoint>
            <Time>2021-08-14T08:21:32.000Z</Time>
            <Position>
              <LatitudeDegrees>43.05455314926803112030029296875</LatitudeDegrees>
              <LongitudeDegrees>-1.89746238291263580322265625</LongitudeDegrees>
            </Position>
            <AltitudeMeters>604</AltitudeMeters>
            <DistanceMeters>NAN</DistanceMeters>
          </Trackpoint>
          <Trackpoint>
            <Time>2021-08-14T08:21:33.000Z</Time>
            <Position>
              <LatitudeDegrees>43.05454459972679615020751953125</LatitudeDegrees>
              <LongitudeDegrees>-1.89747923053801059722900390625</LongitudeDegrees>
            </Position>
            <AltitudeMeters>604</AltitudeMeters>
            <DistanceMeters>NAN</DistanceMeters>
          </Trackpoint>
          <Trackpoint>
            <Time>2021-08-14T08:21:34.000Z</Time>
            <Position>
              <LatitudeDegrees>43.05453303270041942596435546875</LatitudeDegrees>
              <LongitudeDegrees>-1.89749616198241710662841796875</LongitudeDegrees>
            </Position>
            <AltitudeMeters>604.20001220703125</AltitudeMeters>
            <DistanceMeters>NAN</DistanceMeters>
          </Trackpoint>
          <Trackpoint>
            <Time>2021-08-14T08:21:35.000Z</Time>
            <Position>
              <LatitudeDegrees>43.05451878346502780914306640625</LatitudeDegrees>
              <LongitudeDegrees>-1.8975128419697284698486328125</LongitudeDegrees>
            </Position>
            <AltitudeMeters>604.20001220703125</AltitudeMeters>
            <DistanceMeters>NAN</DistanceMeters>
          </Trackpoint>
          <Trackpoint>
            <Time>2021-08-14T08:21:36.000Z</Time>
            <Position>
              <LatitudeDegrees>43.05449984036386013031005859375</LatitudeDegrees>
              <LongitudeDegrees>-1.89753907732665538787841796875</LongitudeDegrees>
            </Position>
            <AltitudeMeters>604.4000244140625</AltitudeMeters>
            <DistanceMeters>NAN</DistanceMeters>
          </Trackpoint>
          <Trackpoint>
            <Time>2021-08-14T08:21:37.000Z</Time>
            <Position>
              <LatitudeDegrees>43.0544860102236270904541015625</LatitudeDegrees>
              <LongitudeDegrees>-1.89756455831229686737060546875</LongitudeDegrees>
            </Position>
            <AltitudeMeters>604.20001220703125</AltitudeMeters>
            <DistanceMeters>NAN</DistanceMeters>
          </Trackpoint>
          <Trackpoint>
            <Time>2021-08-14T08:21:38.000Z</Time>
            <Position>
              <LatitudeDegrees>43.05447519756853580474853515625</LatitudeDegrees>
              <LongitudeDegrees>-1.8975869379937648773193359375</LongitudeDegrees>
            </Position>
            <AltitudeMeters>604.20001220703125</AltitudeMeters>
            <DistanceMeters>NAN</DistanceMeters>
          </Trackpoint>
          <Trackpoint>
            <Time>2021-08-14T08:21:39.000Z</Time>
            <Position>
              <LatitudeDegrees>43.0544595234096050262451171875</LatitudeDegrees>
              <LongitudeDegrees>-1.89761619083583354949951171875</LongitudeDegrees>
            </Position>
            <AltitudeMeters>604.4000244140625</AltitudeMeters>
            <DistanceMeters>NAN</DistanceMeters>
          </Trackpoint>
          <Trackpoint>
            <Time>2021-08-14T08:21:40.000Z</Time>
            <Position>
              <LatitudeDegrees>43.0544484592974185943603515625</LatitudeDegrees>
              <LongitudeDegrees>-1.897643767297267913818359375</LongitudeDegrees>
            </Position>
            <AltitudeMeters>604.4000244140625</AltitudeMeters>
            <DistanceMeters>NAN</DistanceMeters>
          </Trackpoint>
          <Trackpoint>
            <Time>2021-08-14T08:21:41.000Z</Time>
            <Position>
              <LatitudeDegrees>43.05443597026169300079345703125</LatitudeDegrees>
              <LongitudeDegrees>-1.89767419360578060150146484375</LongitudeDegrees>
            </Position>
            <AltitudeMeters>604.5999755859375</AltitudeMeters>
            <DistanceMeters>NAN</DistanceMeters>
          </Trackpoint>
          <Trackpoint>
            <Time>2021-08-14T08:21:42.000Z</Time>
            <Position>
              <LatitudeDegrees>43.05442658253014087677001953125</LatitudeDegrees>
              <LongitudeDegrees>-1.897696070373058319091796875</LongitudeDegrees>
            </Position>
            <AltitudeMeters>604.79998779296875</AltitudeMeters>
            <DistanceMeters>NAN</DistanceMeters>
          </Trackpoint>
          <Trackpoint>
            <Time>2021-08-14T08:21:43.000Z</Time>
            <Position>
              <LatitudeDegrees>43.0544236488640308380126953125</LatitudeDegrees>
              <LongitudeDegrees>-1.89770922996103763580322265625</LongitudeDegrees>
            </Position>
            <AltitudeMeters>604.79998779296875</AltitudeMeters>
            <DistanceMeters>NAN</DistanceMeters>
          </Trackpoint>
          <Trackpoint>
            <Time>2021-08-14T08:21:44.000Z</Time>
            <Position>
              <LatitudeDegrees>43.05442188866436481475830078125</LatitudeDegrees>
              <LongitudeDegrees>-1.89771861769258975982666015625</LongitudeDegrees>
            </Position>
            <AltitudeMeters>605</AltitudeMeters>
            <DistanceMeters>NAN</DistanceMeters>
          </Trackpoint>
          <Trackpoint>
            <Time>2021-08-14T08:21:45.000Z</Time>
            <Position>
              <LatitudeDegrees>43.0544216372072696685791015625</LatitudeDegrees>
              <LongitudeDegrees>-1.89772917889058589935302734375</LongitudeDegrees>
            </Position>
            <AltitudeMeters>605</AltitudeMeters>
            <DistanceMeters>NAN</DistanceMeters>
          </Trackpoint>
          <Trackpoint>
            <Time>2021-08-14T08:21:46.000Z</Time>
            <Position>
              <LatitudeDegrees>43.0544199608266353607177734375</LatitudeDegrees>
              <LongitudeDegrees>-1.89774476923048496246337890625</LongitudeDegrees>
            </Position>
            <AltitudeMeters>605</AltitudeMeters>
            <DistanceMeters>NAN</DistanceMeters>
          </Trackpoint>
          <Trackpoint>
            <Time>2021-08-14T08:21:49.000Z</Time>
            <Position>
              <LatitudeDegrees>43.05441635660827159881591796875</LatitudeDegrees>
              <LongitudeDegrees>-1.8977602757513523101806640625</LongitudeDegrees>
            </Position>
            <AltitudeMeters>605.20001220703125</AltitudeMeters>
            <DistanceMeters>NAN</DistanceMeters>
          </Trackpoint>
          <Trackpoint>
            <Time>2021-08-14T08:22:47.000Z</Time>
            <Position>
              <LatitudeDegrees>43.0546085536479949951171875</LatitudeDegrees>
              <LongitudeDegrees>-1.89936943352222442626953125</LongitudeDegrees>
            </Position>
            <AltitudeMeters>608</AltitudeMeters>
            <DistanceMeters>NAN</DistanceMeters>
          </Trackpoint>
          <Trackpoint>
            <Time>2021-08-14T08:22:48.000Z</Time>
            <Position>
              <LatitudeDegrees>43.054602183401584625244140625</LatitudeDegrees>
              <LongitudeDegrees>-1.89937412738800048828125</LongitudeDegrees>
            </Position>
            <AltitudeMeters>608</AltitudeMeters>
            <DistanceMeters>NAN</DistanceMeters>
          </Trackpoint>
          <Trackpoint>
            <Time>2021-08-14T08:22:49.000Z</Time>
            <Position>
              <LatitudeDegrees>43.05459581315517425537109375</LatitudeDegrees>
              <LongitudeDegrees>-1.8994363211095333099365234375</LongitudeDegrees>
            </Position>
            <AltitudeMeters>608</AltitudeMeters>
            <DistanceMeters>NAN</DistanceMeters>
          </Trackpoint>
          <Trackpoint>
            <Time>2021-08-14T08:22:50.000Z</Time>
            <Position>
              <LatitudeDegrees>43.05460629053413867950439453125</LatitudeDegrees>
              <LongitudeDegrees>-1.89945794641971588134765625</LongitudeDegrees>
            </Position>
            <AltitudeMeters>608</AltitudeMeters>
            <DistanceMeters>NAN</DistanceMeters>
          </Trackpoint>
          <Trackpoint>
            <Time>2021-08-14T08:22:51.000Z</Time>
            <Position>
              <LatitudeDegrees>43.0546787939965724945068359375</LatitudeDegrees>
              <LongitudeDegrees>-1.8994752131402492523193359375</LongitudeDegrees>
            </Position>
            <AltitudeMeters>608</AltitudeMeters>
            <DistanceMeters>NAN</DistanceMeters>
          </Trackpoint>
          <Trackpoint>
            <Time>2021-08-14T08:22:52.000Z</Time>
            <Position>
              <LatitudeDegrees>43.0546821467578411102294921875</LatitudeDegrees>
              <LongitudeDegrees>-1.89948501996695995330810546875</LongitudeDegrees>
            </Position>
            <AltitudeMeters>608</AltitudeMeters>
            <DistanceMeters>NAN</DistanceMeters>
          </Trackpoint>
          <Trackpoint>
            <Time>2021-08-14T08:22:53.000Z</Time>
            <Position>
              <LatitudeDegrees>43.0546707473695278167724609375</LatitudeDegrees>
              <LongitudeDegrees>-1.899498514831066131591796875</LongitudeDegrees>
            </Position>
            <AltitudeMeters>608</AltitudeMeters>
            <DistanceMeters>NAN</DistanceMeters>
          </Trackpoint>
          <Trackpoint>
            <Time>2021-08-14T08:22:54.000Z</Time>
            <Position>
              <LatitudeDegrees>43.0546744354069232940673828125</LatitudeDegrees>
              <LongitudeDegrees>-1.89951687119901180267333984375</LongitudeDegrees>
            </Position>
            <AltitudeMeters>608</AltitudeMeters>
            <DistanceMeters>NAN</DistanceMeters>
          </Trackpoint>
          <Trackpoint>
            <Time>2021-08-14T08:22:55.000Z</Time>
            <Position>
              <LatitudeDegrees>43.05468021892011165618896484375</LatitudeDegrees>
              <LongitudeDegrees>-1.89952994696795940399169921875</LongitudeDegrees>
            </Position>
            <AltitudeMeters>608.20001220703125</AltitudeMeters>
            <DistanceMeters>NAN</DistanceMeters>
          </Trackpoint>
          <Trackpoint>
            <Time>2021-08-14T08:22:56.000Z</Time>
            <Position>
              <LatitudeDegrees>43.05468390695750713348388671875</LatitudeDegrees>
              <LongitudeDegrees>-1.899552829563617706298828125</LongitudeDegrees>
            </Position>
            <AltitudeMeters>608.20001220703125</AltitudeMeters>
            <DistanceMeters>NAN</DistanceMeters>
          </Trackpoint>
          <Trackpoint>
            <Time>2021-08-14T08:22:57.000Z</Time>
            <Position>
              <LatitudeDegrees>43.0546858347952365875244140625</LatitudeDegrees>
              <LongitudeDegrees>-1.89957269467413425445556640625</LongitudeDegrees>
            </Position>
            <AltitudeMeters>608.20001220703125</AltitudeMeters>
            <DistanceMeters>NAN</DistanceMeters>
          </Trackpoint>
          <Trackpoint>
            <Time>2021-08-14T08:22:58.000Z</Time>
            <Position>
              <LatitudeDegrees>43.05466881953179836273193359375</LatitudeDegrees>
              <LongitudeDegrees>-1.8996173702180385589599609375</LongitudeDegrees>
            </Position>
            <AltitudeMeters>608.20001220703125</AltitudeMeters>
            <DistanceMeters>NAN</DistanceMeters>
          </Trackpoint>
          <Trackpoint>
            <Time>2021-08-14T08:22:59.000Z</Time>
            <Position>
              <LatitudeDegrees>43.05466362275183200836181640625</LatitudeDegrees>
              <LongitudeDegrees>-1.89965751953423023223876953125</LongitudeDegrees>
            </Position>
            <AltitudeMeters>608.4000244140625</AltitudeMeters>
            <DistanceMeters>NAN</DistanceMeters>
          </Trackpoint>
          <Trackpoint>
            <Time>2021-08-14T08:23:00.000Z</Time>
            <Position>
              <LatitudeDegrees>43.05466781370341777801513671875</LatitudeDegrees>
              <LongitudeDegrees>-1.8996730260550975799560546875</LongitudeDegrees>
            </Position>
            <AltitudeMeters>608.4000244140625</AltitudeMeters>
            <DistanceMeters>NAN</DistanceMeters>
          </Trackpoint>
          <Trackpoint>
            <Time>2021-08-14T08:23:01.000Z</Time>
            <Position>
              <LatitudeDegrees>43.05468005128204822540283203125</LatitudeDegrees>
              <LongitudeDegrees>-1.89968861639499664306640625</LongitudeDegrees>
            </Position>
            <AltitudeMeters>608.4000244140625</AltitudeMeters>
            <DistanceMeters>NAN</DistanceMeters>
          </Trackpoint>
          <Trackpoint>
            <Time>2021-08-14T08:23:02.000Z</Time>
            <Position>
              <LatitudeDegrees>43.054693378508090972900390625</LatitudeDegrees>
              <LongitudeDegrees>-1.899709068238735198974609375</LongitudeDegrees>
            </Position>
            <AltitudeMeters>608.5999755859375</AltitudeMeters>
            <DistanceMeters>NAN</DistanceMeters>
          </Trackpoint>
          <Trackpoint>
            <Time>2021-08-14T08:23:03.000Z</Time>
            <Position>
              <LatitudeDegrees>43.05470586754381656646728515625</LatitudeDegrees>
              <LongitudeDegrees>-1.89973161555826663970947265625</LongitudeDegrees>
            </Position>
            <AltitudeMeters>608.5999755859375</AltitudeMeters>
            <DistanceMeters>NAN</DistanceMeters>
          </Trackpoint>
          <Trackpoint>
            <Time>2021-08-14T08:23:04.000Z</Time>
            <Position>
              <LatitudeDegrees>43.05471173487603664398193359375</LatitudeDegrees>
              <LongitudeDegrees>-1.89975894056260585784912109375</LongitudeDegrees>
            </Position>
            <AltitudeMeters>608.5999755859375</AltitudeMeters>
            <DistanceMeters>NAN</DistanceMeters>
          </Trackpoint>
          <Trackpoint>
            <Time>2021-08-14T08:23:05.000Z</Time>
            <Position>
              <LatitudeDegrees>43.05471357889473438262939453125</LatitudeDegrees>
              <LongitudeDegrees>-1.8997786380350589752197265625</LongitudeDegrees>
            </Position>
            <AltitudeMeters>608.5999755859375</AltitudeMeters>
            <DistanceMeters>NAN</DistanceMeters>
          </Trackpoint>
          <Trackpoint>
            <Time>2021-08-14T08:23:06.000Z</Time>
            <Position>
              <LatitudeDegrees>43.0547217093408107757568359375</LatitudeDegrees>
              <LongitudeDegrees>-1.89980470575392246246337890625</LongitudeDegrees>
            </Position>
            <AltitudeMeters>608.4000244140625</AltitudeMeters>
            <DistanceMeters>NAN</DistanceMeters>
          </Trackpoint>
          <Trackpoint>
            <Time>2021-08-14T08:23:07.000Z</Time>
            <Position>
              <LatitudeDegrees>43.054730258882045745849609375</LatitudeDegrees>
              <LongitudeDegrees>-1.89983001910150051116943359375</LongitudeDegrees>
            </Position>
            <AltitudeMeters>608.5999755859375</AltitudeMeters>
            <DistanceMeters>NAN</DistanceMeters>
          </Trackpoint>
          <Trackpoint>
            <Time>2021-08-14T08:23:08.000Z</Time>
            <Position>
              <LatitudeDegrees>43.054740317165851593017578125</LatitudeDegrees>
              <LongitudeDegrees>-1.89984594471752643585205078125</LongitudeDegrees>
            </Position>
            <AltitudeMeters>608.5999755859375</AltitudeMeters>
            <DistanceMeters>NAN</DistanceMeters>
          </Trackpoint>
          <Trackpoint>
            <Time>2021-08-14T08:23:09.000Z</Time>
            <Position>
              <LatitudeDegrees>43.0547485314309597015380859375</LatitudeDegrees>
              <LongitudeDegrees>-1.89985969103872776031494140625</LongitudeDegrees>
            </Position>
            <AltitudeMeters>608.5999755859375</AltitudeMeters>
            <DistanceMeters>NAN</DistanceMeters>
          </Trackpoint>
          <Trackpoint>
            <Time>2021-08-14T08:23:10.000Z</Time>
            <Position>
              <LatitudeDegrees>43.05475984700024127960205078125</LatitudeDegrees>
              <LongitudeDegrees>-1.8998755328357219696044921875</LongitudeDegrees>
            </Position>
            <AltitudeMeters>608.5999755859375</AltitudeMeters>
            <DistanceMeters>NAN</DistanceMeters>
          </Trackpoint>
          <Trackpoint>
            <Time>2021-08-14T08:23:11.000Z</Time>
            <Position>
              <LatitudeDegrees>43.05477342568337917327880859375</LatitudeDegrees>
              <LongitudeDegrees>-1.8998983316123485565185546875</LongitudeDegrees>
            </Position>
            <AltitudeMeters>608.5999755859375</AltitudeMeters>
            <DistanceMeters>NAN</DistanceMeters>
          </Trackpoint>
          <Trackpoint>
            <Time>2021-08-14T08:23:12.000Z</Time>
            <Position>
              <LatitudeDegrees>43.0547870881855487823486328125</LatitudeDegrees>
              <LongitudeDegrees>-1.89992037601768970489501953125</LongitudeDegrees>
            </Position>
            <AltitudeMeters>608.79998779296875</AltitudeMeters>
            <DistanceMeters>NAN</DistanceMeters>
          </Trackpoint>
          <Trackpoint>
            <Time>2021-08-14T08:23:13.000Z</Time>
            <Position>
              <LatitudeDegrees>43.05480443872511386871337890625</LatitudeDegrees>
              <LongitudeDegrees>-1.89993378706276416778564453125</LongitudeDegrees>
            </Position>
            <AltitudeMeters>608.79998779296875</AltitudeMeters>
            <DistanceMeters>NAN</DistanceMeters>
          </Trackpoint>
          <Trackpoint>
            <Time>2021-08-14T08:23:14.000Z</Time>
            <Position>
              <LatitudeDegrees>43.05481684394180774688720703125</LatitudeDegrees>
              <LongitudeDegrees>-1.8999422527849674224853515625</LongitudeDegrees>
            </Position>
            <AltitudeMeters>608.79998779296875</AltitudeMeters>
            <DistanceMeters>NAN</DistanceMeters>
          </Trackpoint>
          <Trackpoint>
            <Time>2021-08-14T08:23:15.000Z</Time>
            <Position>
              <LatitudeDegrees>43.05482941679656505584716796875</LatitudeDegrees>
              <LongitudeDegrees>-1.89995675347745418548583984375</LongitudeDegrees>
            </Position>
            <AltitudeMeters>609</AltitudeMeters>
            <DistanceMeters>NAN</DistanceMeters>
          </Trackpoint>
          <Trackpoint>
            <Time>2021-08-14T08:23:16.000Z</Time>
            <Position>
              <LatitudeDegrees>43.05484081618487834930419921875</LatitudeDegrees>
              <LongitudeDegrees>-1.89997904933989048004150390625</LongitudeDegrees>
            </Position>
            <AltitudeMeters>609</AltitudeMeters>
            <DistanceMeters>NAN</DistanceMeters>
          </Trackpoint>
          <Trackpoint>
            <Time>2021-08-14T08:23:17.000Z</Time>
            <Position>
              <LatitudeDegrees>43.054856993257999420166015625</LatitudeDegrees>
              <LongitudeDegrees>-1.89999413676559925079345703125</LongitudeDegrees>
            </Position>
            <AltitudeMeters>609</AltitudeMeters>
            <DistanceMeters>NAN</DistanceMeters>
          </Trackpoint>
          <Trackpoint>
            <Time>2021-08-14T08:23:18.000Z</Time>
            <Position>
              <LatitudeDegrees>43.054871074855327606201171875</LatitudeDegrees>
              <LongitudeDegrees>-1.90000922419130802154541015625</LongitudeDegrees>
            </Position>
            <AltitudeMeters>609</AltitudeMeters>
            <DistanceMeters>NAN</DistanceMeters>
          </Trackpoint>
          <Trackpoint>
            <Time>2021-08-14T08:23:19.000Z</Time>
            <Position>
              <LatitudeDegrees>43.05487954057753086090087890625</LatitudeDegrees>
              <LongitudeDegrees>-1.90003193914890289306640625</LongitudeDegrees>
            </Position>
            <AltitudeMeters>609.20001220703125</AltitudeMeters>
            <DistanceMeters>NAN</DistanceMeters>
          </Trackpoint>
          <Trackpoint>
            <Time>2021-08-14T08:23:20.000Z</Time>
            <Position>
              <LatitudeDegrees>43.05488557554781436920166015625</LatitudeDegrees>
              <LongitudeDegrees>-1.90005473792552947998046875</LongitudeDegrees>
            </Position>
            <AltitudeMeters>609.20001220703125</AltitudeMeters>
            <DistanceMeters>NAN</DistanceMeters>
          </Trackpoint>
          <Trackpoint>
            <Time>2021-08-14T08:23:22.000Z</Time>
            <Position>
              <LatitudeDegrees>43.05490485392510890960693359375</LatitudeDegrees>
              <LongitudeDegrees>-1.90010997466742992401123046875</LongitudeDegrees>
            </Position>
            <AltitudeMeters>609.4000244140625</AltitudeMeters>
            <DistanceMeters>NAN</DistanceMeters>
          </Trackpoint>
          <Trackpoint>
            <Time>2021-08-14T08:23:25.000Z</Time>
            <Position>
              <LatitudeDegrees>43.05495011620223522186279296875</LatitudeDegrees>
              <LongitudeDegrees>-1.90018256194889545440673828125</LongitudeDegrees>
            </Position>
            <AltitudeMeters>609.5999755859375</AltitudeMeters>
            <DistanceMeters>NAN</DistanceMeters>
          </Trackpoint>
          <Trackpoint>
            <Time>2021-08-14T08:23:26.000Z</Time>
            <Position>
              <LatitudeDegrees>43.054971992969512939453125</LatitudeDegrees>
              <LongitudeDegrees>-1.9002056121826171875</LongitudeDegrees>
            </Position>
            <AltitudeMeters>609.5999755859375</AltitudeMeters>
            <DistanceMeters>NAN</DistanceMeters>
          </Trackpoint>
          <Trackpoint>
            <Time>2021-08-14T08:23:27.000Z</Time>
            <Position>
              <LatitudeDegrees>43.05499018169939517974853515625</LatitudeDegrees>
              <LongitudeDegrees>-1.90023587085306644439697265625</LongitudeDegrees>
            </Position>
            <AltitudeMeters>609.5999755859375</AltitudeMeters>
            <DistanceMeters>NAN</DistanceMeters>
          </Trackpoint>
          <Trackpoint>
            <Time>2021-08-14T08:23:30.000Z</Time>
            <Position>
              <LatitudeDegrees>43.055029995739459991455078125</LatitudeDegrees>
              <LongitudeDegrees>-1.9003194384276866912841796875</LongitudeDegrees>
            </Position>
            <AltitudeMeters>609.5999755859375</AltitudeMeters>
            <DistanceMeters>NAN</DistanceMeters>
          </Trackpoint>
          <Trackpoint>
            <Time>2021-08-14T08:23:31.000Z</Time>
            <Position>
              <LatitudeDegrees>43.05505044758319854736328125</LatitudeDegrees>
              <LongitudeDegrees>-1.90034701488912105560302734375</LongitudeDegrees>
            </Position>
            <AltitudeMeters>609.5999755859375</AltitudeMeters>
            <DistanceMeters>NAN</DistanceMeters>
          </Trackpoint>
          <Trackpoint>
            <Time>2021-08-14T08:23:33.000Z</Time>
            <Position>
              <LatitudeDegrees>43.05508590303361415863037109375</LatitudeDegrees>
              <LongitudeDegrees>-1.9003995694220066070556640625</LongitudeDegrees>
            </Position>
            <AltitudeMeters>609.79998779296875</AltitudeMeters>
            <DistanceMeters>NAN</DistanceMeters>
          </Trackpoint>
          <Trackpoint>
            <Time>2021-08-14T08:23:36.000Z</Time>
            <Position>
              <LatitudeDegrees>43.0551501922309398651123046875</LatitudeDegrees>
              <LongitudeDegrees>-1.90046989358961582183837890625</LongitudeDegrees>
            </Position>
            <AltitudeMeters>609.5999755859375</AltitudeMeters>
            <DistanceMeters>NAN</DistanceMeters>
          </Trackpoint>
          <Trackpoint>
            <Time>2021-08-14T08:23:37.000Z</Time>
            <Position>
              <LatitudeDegrees>43.0551773495972156524658203125</LatitudeDegrees>
              <LongitudeDegrees>-1.90049864351749420166015625</LongitudeDegrees>
            </Position>
            <AltitudeMeters>609.5999755859375</AltitudeMeters>
            <DistanceMeters>NAN</DistanceMeters>
          </Trackpoint>
          <Trackpoint>
            <Time>2021-08-14T08:23:38.000Z</Time>
            <Position>
              <LatitudeDegrees>43.05518296547234058380126953125</LatitudeDegrees>
              <LongitudeDegrees>-1.90052957274019718170166015625</LongitudeDegrees>
            </Position>
            <AltitudeMeters>609.5999755859375</AltitudeMeters>
            <DistanceMeters>NAN</DistanceMeters>
          </Trackpoint>
          <Trackpoint>
            <Time>2021-08-14T08:23:39.000Z</Time>
            <Position>
              <LatitudeDegrees>43.055200986564159393310546875</LatitudeDegrees>
              <LongitudeDegrees>-1.90054801292717456817626953125</LongitudeDegrees>
            </Position>
            <AltitudeMeters>609.79998779296875</AltitudeMeters>
            <DistanceMeters>NAN</DistanceMeters>
          </Trackpoint>
          <Trackpoint>
            <Time>2021-08-14T08:23:40.000Z</Time>
            <Position>
              <LatitudeDegrees>43.05521934293210506439208984375</LatitudeDegrees>
              <LongitudeDegrees>-1.90058941952884197235107421875</LongitudeDegrees>
            </Position>
            <AltitudeMeters>609.79998779296875</AltitudeMeters>
            <DistanceMeters>NAN</DistanceMeters>
          </Trackpoint>
          <Trackpoint>
            <Time>2021-08-14T08:23:41.000Z</Time>
            <Position>
              <LatitudeDegrees>43.05524214170873165130615234375</LatitudeDegrees>
              <LongitudeDegrees>-1.9006292335689067840576171875</LongitudeDegrees>
            </Position>
            <AltitudeMeters>610</AltitudeMeters>
            <DistanceMeters>NAN</DistanceMeters>
          </Trackpoint>
          <Trackpoint>
            <Time>2021-08-14T08:23:43.000Z</Time>
            <Position>
              <LatitudeDegrees>43.05528086610138416290283203125</LatitudeDegrees>
              <LongitudeDegrees>-1.90068480558693408966064453125</LongitudeDegrees>
            </Position>
            <AltitudeMeters>610.20001220703125</AltitudeMeters>
            <DistanceMeters>NAN</DistanceMeters>
          </Trackpoint>
          <Trackpoint>
            <Time>2021-08-14T08:23:44.000Z</Time>
            <Position>
              <LatitudeDegrees>43.05530349723994731903076171875</LatitudeDegrees>
              <LongitudeDegrees>-1.90070961602032184600830078125</LongitudeDegrees>
            </Position>
            <AltitudeMeters>610.20001220703125</AltitudeMeters>
            <DistanceMeters>NAN</DistanceMeters>
          </Trackpoint>
          <Trackpoint>
            <Time>2021-08-14T08:23:45.000Z</Time>
            <Position>
              <LatitudeDegrees>43.05532344616949558258056640625</LatitudeDegrees>
              <LongitudeDegrees>-1.900739036500453948974609375</LongitudeDegrees>
            </Position>
            <AltitudeMeters>610.20001220703125</AltitudeMeters>
            <DistanceMeters>NAN</DistanceMeters>
          </Trackpoint>
          <Trackpoint>
            <Time>2021-08-14T08:23:48.000Z</Time>
            <Position>
              <LatitudeDegrees>43.05538496933877468109130859375</LatitudeDegrees>
              <LongitudeDegrees>-1.900841630995273590087890625</LongitudeDegrees>
            </Position>
            <AltitudeMeters>610.4000244140625</AltitudeMeters>
            <DistanceMeters>NAN</DistanceMeters>
          </Trackpoint>
          <Trackpoint>
            <Time>2021-08-14T08:23:49.000Z</Time>
            <Position>
              <LatitudeDegrees>43.0553949438035488128662109375</LatitudeDegrees>
              <LongitudeDegrees>-1.9008880667388439178466796875</LongitudeDegrees>
            </Position>
            <AltitudeMeters>610.4000244140625</AltitudeMeters>
            <DistanceMeters>NAN</DistanceMeters>
          </Trackpoint>
          <Trackpoint>
            <Time>2021-08-14T08:23:50.000Z</Time>
            <Position>
              <LatitudeDegrees>43.05543760769069194793701171875</LatitudeDegrees>
              <LongitudeDegrees>-1.90093592740595340728759765625</LongitudeDegrees>
            </Position>
            <AltitudeMeters>610.4000244140625</AltitudeMeters>
            <DistanceMeters>NAN</DistanceMeters>
          </Trackpoint>
          <Trackpoint>
            <Time>2021-08-14T08:23:52.000Z</Time>
            <Position>
              <LatitudeDegrees>43.0554774217307567596435546875</LatitudeDegrees>
              <LongitudeDegrees>-1.9009889848530292510986328125</LongitudeDegrees>
            </Position>
            <AltitudeMeters>610.5999755859375</AltitudeMeters>
            <DistanceMeters>NAN</DistanceMeters>
          </Trackpoint>
          <Trackpoint>
            <Time>2021-08-14T08:23:53.000Z</Time>
            <Position>
              <LatitudeDegrees>43.05550013668835163116455078125</LatitudeDegrees>
              <LongitudeDegrees>-1.90100985579192638397216796875</LongitudeDegrees>
            </Position>
            <AltitudeMeters>610.5999755859375</AltitudeMeters>
            <DistanceMeters>NAN</DistanceMeters>
          </Trackpoint>
          <Trackpoint>
            <Time>2021-08-14T08:23:54.000Z</Time>
            <Position>
              <LatitudeDegrees>43.05551673285663127899169921875</LatitudeDegrees>
              <LongitudeDegrees>-1.90104086883366107940673828125</LongitudeDegrees>
            </Position>
            <AltitudeMeters>610.79998779296875</AltitudeMeters>
            <DistanceMeters>NAN</DistanceMeters>
          </Trackpoint>
          <Trackpoint>
            <Time>2021-08-14T08:23:56.000Z</Time>
            <Position>
              <LatitudeDegrees>43.055538944900035858154296875</LatitudeDegrees>
              <LongitudeDegrees>-1.9011070020496845245361328125</LongitudeDegrees>
            </Position>
            <AltitudeMeters>611</AltitudeMeters>
            <DistanceMeters>NAN</DistanceMeters>
          </Trackpoint>
          <Trackpoint>
            <Time>2021-08-14T08:23:57.000Z</Time>
            <Position>
              <LatitudeDegrees>43.05554908700287342071533203125</LatitudeDegrees>
              <LongitudeDegrees>-1.9011298008263111114501953125</LongitudeDegrees>
            </Position>
            <AltitudeMeters>611</AltitudeMeters>
            <DistanceMeters>NAN</DistanceMeters>
          </Trackpoint>
          <Trackpoint>
            <Time>2021-08-14T08:23:58.000Z</Time>
            <Position>
              <LatitudeDegrees>43.05556182749569416046142578125</LatitudeDegrees>
              <LongitudeDegrees>-1.90117078833281993865966796875</LongitudeDegrees>
            </Position>
            <AltitudeMeters>611</AltitudeMeters>
            <DistanceMeters>NAN</DistanceMeters>
          </Trackpoint>
          <Trackpoint>
            <Time>2021-08-14T08:24:00.000Z</Time>
            <Position>
              <LatitudeDegrees>43.05559284053742885589599609375</LatitudeDegrees>
              <LongitudeDegrees>-1.90125125460326671600341796875</LongitudeDegrees>
            </Position>
            <AltitudeMeters>611.20001220703125</AltitudeMeters>
            <DistanceMeters>NAN</DistanceMeters>
          </Trackpoint>
          <Trackpoint>
            <Time>2021-08-14T08:24:01.000Z</Time>
            <Position>
              <LatitudeDegrees>43.05561010725796222686767578125</LatitudeDegrees>
              <LongitudeDegrees>-1.90127514302730560302734375</LongitudeDegrees>
            </Position>
            <AltitudeMeters>611</AltitudeMeters>
            <DistanceMeters>NAN</DistanceMeters>
          </Trackpoint>
          <Trackpoint>
            <Time>2021-08-14T08:24:02.000Z</Time>
            <Position>
              <LatitudeDegrees>43.05562050081789493560791015625</LatitudeDegrees>
              <LongitudeDegrees>-1.90130054019391536712646484375</LongitudeDegrees>
            </Position>
            <AltitudeMeters>611</AltitudeMeters>
            <DistanceMeters>NAN</DistanceMeters>
          </Trackpoint>
          <Trackpoint>
            <Time>2021-08-14T08:24:03.000Z</Time>
            <Position>
              <LatitudeDegrees>43.05562368594110012054443359375</LatitudeDegrees>
              <LongitudeDegrees>-1.901319734752178192138671875</LongitudeDegrees>
            </Position>
            <AltitudeMeters>611</AltitudeMeters>
            <DistanceMeters>NAN</DistanceMeters>
          </Trackpoint>
          <Trackpoint>
            <Time>2021-08-14T08:24:04.000Z</Time>
            <Position>
              <LatitudeDegrees>43.0556304752826690673828125</LatitudeDegrees>
              <LongitudeDegrees>-1.901327110826969146728515625</LongitudeDegrees>
            </Position>
            <AltitudeMeters>611</AltitudeMeters>
            <DistanceMeters>NAN</DistanceMeters>
          </Trackpoint>
          <Trackpoint>
            <Time>2021-08-14T08:24:05.000Z</Time>
            <Position>
              <LatitudeDegrees>43.055644221603870391845703125</LatitudeDegrees>
              <LongitudeDegrees>-1.9013413600623607635498046875</LongitudeDegrees>
            </Position>
            <AltitudeMeters>611</AltitudeMeters>
            <DistanceMeters>NAN</DistanceMeters>
          </Trackpoint>
          <Trackpoint>
            <Time>2021-08-14T08:24:06.000Z</Time>
            <Position>
              <LatitudeDegrees>43.0556695349514484405517578125</LatitudeDegrees>
              <LongitudeDegrees>-1.90137161873281002044677734375</LongitudeDegrees>
            </Position>
            <AltitudeMeters>611</AltitudeMeters>
            <DistanceMeters>NAN</DistanceMeters>
          </Trackpoint>
          <Trackpoint>
            <Time>2021-08-14T08:24:07.000Z</Time>
            <Position>
              <LatitudeDegrees>43.05569828487932682037353515625</LatitudeDegrees>
              <LongitudeDegrees>-1.90139450132846832275390625</LongitudeDegrees>
            </Position>
            <AltitudeMeters>611.20001220703125</AltitudeMeters>
            <DistanceMeters>NAN</DistanceMeters>
          </Trackpoint>
          <Trackpoint>
            <Time>2021-08-14T08:24:08.000Z</Time>
            <Position>
              <LatitudeDegrees>43.05572158657014369964599609375</LatitudeDegrees>
              <LongitudeDegrees>-1.90139047801494598388671875</LongitudeDegrees>
            </Position>
            <AltitudeMeters>611.20001220703125</AltitudeMeters>
            <DistanceMeters>NAN</DistanceMeters>
          </Trackpoint>
          <Trackpoint>
            <Time>2021-08-14T08:24:09.000Z</Time>
            <Position>
              <LatitudeDegrees>43.05573038756847381591796875</LatitudeDegrees>
              <LongitudeDegrees>-1.9014204852283000946044921875</LongitudeDegrees>
            </Position>
            <AltitudeMeters>611.20001220703125</AltitudeMeters>
            <DistanceMeters>NAN</DistanceMeters>
          </Trackpoint>
          <Trackpoint>
            <Time>2021-08-14T08:24:10.000Z</Time>
            <Position>
              <LatitudeDegrees>43.05574103258550167083740234375</LatitudeDegrees>
              <LongitudeDegrees>-1.90146289765834808349609375</LongitudeDegrees>
            </Position>
            <AltitudeMeters>611.4000244140625</AltitudeMeters>
            <DistanceMeters>NAN</DistanceMeters>
          </Trackpoint>
          <Trackpoint>
            <Time>2021-08-14T08:24:11.000Z</Time>
            <Position>
              <LatitudeDegrees>43.055757544934749603271484375</LatitudeDegrees>
              <LongitudeDegrees>-1.9015100039541721343994140625</LongitudeDegrees>
            </Position>
            <AltitudeMeters>611.4000244140625</AltitudeMeters>
            <DistanceMeters>NAN</DistanceMeters>
          </Trackpoint>
          <Trackpoint>
            <Time>2021-08-14T08:24:14.000Z</Time>
            <Position>
              <LatitudeDegrees>43.05580071173608303070068359375</LatitudeDegrees>
              <LongitudeDegrees>-1.90161645412445068359375</LongitudeDegrees>
            </Position>
            <AltitudeMeters>611.5999755859375</AltitudeMeters>
            <DistanceMeters>NAN</DistanceMeters>
          </Trackpoint>
          <Trackpoint>
            <Time>2021-08-14T08:24:16.000Z</Time>
            <Position>
              <LatitudeDegrees>43.0558378435671329498291015625</LatitudeDegrees>
              <LongitudeDegrees>-1.9016756303608417510986328125</LongitudeDegrees>
            </Position>
            <AltitudeMeters>611.5999755859375</AltitudeMeters>
            <DistanceMeters>NAN</DistanceMeters>
          </Trackpoint>
          <Trackpoint>
            <Time>2021-08-14T08:24:17.000Z</Time>
            <Position>
              <LatitudeDegrees>43.05586609058082103729248046875</LatitudeDegrees>
              <LongitudeDegrees>-1.90168929286301136016845703125</LongitudeDegrees>
            </Position>
            <AltitudeMeters>611.5999755859375</AltitudeMeters>
            <DistanceMeters>NAN</DistanceMeters>
          </Trackpoint>
          <Trackpoint>
            <Time>2021-08-14T08:24:18.000Z</Time>
            <Position>
              <LatitudeDegrees>43.055891655385494232177734375</LatitudeDegrees>
              <LongitudeDegrees>-1.90171393565833568572998046875</LongitudeDegrees>
            </Position>
            <AltitudeMeters>611.5999755859375</AltitudeMeters>
            <DistanceMeters>NAN</DistanceMeters>
          </Trackpoint>
          <Trackpoint>
            <Time>2021-08-14T08:24:19.000Z</Time>
            <Position>
              <LatitudeDegrees>43.05591411888599395751953125</LatitudeDegrees>
              <LongitudeDegrees>-1.9017487205564975738525390625</LongitudeDegrees>
            </Position>
            <AltitudeMeters>611.5999755859375</AltitudeMeters>
            <DistanceMeters>NAN</DistanceMeters>
          </Trackpoint>
          <Trackpoint>
            <Time>2021-08-14T08:24:21.000Z</Time>
            <Position>
              <LatitudeDegrees>43.05594437755644321441650390625</LatitudeDegrees>
              <LongitudeDegrees>-1.901833377778530120849609375</LongitudeDegrees>
            </Position>
            <AltitudeMeters>611.79998779296875</AltitudeMeters>
            <DistanceMeters>NAN</DistanceMeters>
          </Trackpoint>
          <Trackpoint>
            <Time>2021-08-14T08:24:22.000Z</Time>
            <Position>
              <LatitudeDegrees>43.0559545196592807769775390625</LatitudeDegrees>
              <LongitudeDegrees>-1.90187822096049785614013671875</LongitudeDegrees>
            </Position>
            <AltitudeMeters>611.79998779296875</AltitudeMeters>
            <DistanceMeters>NAN</DistanceMeters>
          </Trackpoint>
          <Trackpoint>
            <Time>2021-08-14T08:24:23.000Z</Time>
            <Position>
              <LatitudeDegrees>43.05594186298549175262451171875</LatitudeDegrees>
              <LongitudeDegrees>-1.90191158093512058258056640625</LongitudeDegrees>
            </Position>
            <AltitudeMeters>611.79998779296875</AltitudeMeters>
            <DistanceMeters>NAN</DistanceMeters>
          </Trackpoint>
          <Trackpoint>
            <Time>2021-08-14T08:24:24.000Z</Time>
            <Position>
              <LatitudeDegrees>43.05596265010535717010498046875</LatitudeDegrees>
              <LongitudeDegrees>-1.9019646383821964263916015625</LongitudeDegrees>
            </Position>
            <AltitudeMeters>611.79998779296875</AltitudeMeters>
            <DistanceMeters>NAN</DistanceMeters>
          </Trackpoint>
          <Trackpoint>
            <Time>2021-08-14T08:24:25.000Z</Time>
            <Position>
              <LatitudeDegrees>43.05599248968064785003662109375</LatitudeDegrees>
              <LongitudeDegrees>-1.9020139239728450775146484375</LongitudeDegrees>
            </Position>
            <AltitudeMeters>611.79998779296875</AltitudeMeters>
            <DistanceMeters>NAN</DistanceMeters>
          </Trackpoint>
          <Trackpoint>
            <Time>2021-08-14T08:24:26.000Z</Time>
            <Position>
              <LatitudeDegrees>43.05597472004592418670654296875</LatitudeDegrees>
              <LongitudeDegrees>-1.90203529782593250274658203125</LongitudeDegrees>
            </Position>
            <AltitudeMeters>612</AltitudeMeters>
            <DistanceMeters>NAN</DistanceMeters>
          </Trackpoint>
          <Trackpoint>
            <Time>2021-08-14T08:24:27.000Z</Time>
            <Position>
              <LatitudeDegrees>43.05597178637981414794921875</LatitudeDegrees>
              <LongitudeDegrees>-1.90206748433411121368408203125</LongitudeDegrees>
            </Position>
            <AltitudeMeters>612</AltitudeMeters>
            <DistanceMeters>NAN</DistanceMeters>
          </Trackpoint>
          <Trackpoint>
            <Time>2021-08-14T08:24:30.000Z</Time>
            <Position>
              <LatitudeDegrees>43.05603372864425182342529296875</LatitudeDegrees>
              <LongitudeDegrees>-1.9021864235401153564453125</LongitudeDegrees>
            </Position>
            <AltitudeMeters>612.20001220703125</AltitudeMeters>
            <DistanceMeters>NAN</DistanceMeters>
          </Trackpoint>
          <Trackpoint>
            <Time>2021-08-14T08:24:32.000Z</Time>
            <Position>
              <LatitudeDegrees>43.0560730397701263427734375</LatitudeDegrees>
              <LongitudeDegrees>-1.90222539938986301422119140625</LongitudeDegrees>
            </Position>
            <AltitudeMeters>612.4000244140625</AltitudeMeters>
            <DistanceMeters>NAN</DistanceMeters>
          </Trackpoint>
          <Trackpoint>
            <Time>2021-08-14T08:24:34.000Z</Time>
            <Position>
              <LatitudeDegrees>43.0561053939163684844970703125</LatitudeDegrees>
              <LongitudeDegrees>-1.90227870829403400421142578125</LongitudeDegrees>
            </Position>
            <AltitudeMeters>612.4000244140625</AltitudeMeters>
            <DistanceMeters>NAN</DistanceMeters>
          </Trackpoint>
          <Trackpoint>
            <Time>2021-08-14T08:24:35.000Z</Time>
            <Position>
              <LatitudeDegrees>43.056125007569789886474609375</LatitudeDegrees>
              <LongitudeDegrees>-1.9023072905838489532470703125</LongitudeDegrees>
            </Position>
            <AltitudeMeters>612.5999755859375</AltitudeMeters>
            <DistanceMeters>NAN</DistanceMeters>
          </Trackpoint>
          <Trackpoint>
            <Time>2021-08-14T08:24:36.000Z</Time>
            <Position>
              <LatitudeDegrees>43.056145794689655303955078125</LatitudeDegrees>
              <LongitudeDegrees>-1.90233184956014156341552734375</LongitudeDegrees>
            </Position>
            <AltitudeMeters>612.5999755859375</AltitudeMeters>
            <DistanceMeters>NAN</DistanceMeters>
          </Trackpoint>
          <Trackpoint>
            <Time>2021-08-14T08:24:37.000Z</Time>
            <Position>
              <LatitudeDegrees>43.05616884492337703704833984375</LatitudeDegrees>
              <LongitudeDegrees>-1.9023488648235797882080078125</LongitudeDegrees>
            </Position>
            <AltitudeMeters>612.5999755859375</AltitudeMeters>
            <DistanceMeters>NAN</DistanceMeters>
          </Trackpoint>
          <Trackpoint>
            <Time>2021-08-14T08:24:39.000Z</Time>
            <Position>
              <LatitudeDegrees>43.05623355321586132049560546875</LatitudeDegrees>
              <LongitudeDegrees>-1.902407705783843994140625</LongitudeDegrees>
            </Position>
            <AltitudeMeters>612.79998779296875</AltitudeMeters>
            <DistanceMeters>NAN</DistanceMeters>
          </Trackpoint>
          <Trackpoint>
            <Time>2021-08-14T08:24:40.000Z</Time>
            <Position>
              <LatitudeDegrees>43.0562592856585979461669921875</LatitudeDegrees>
              <LongitudeDegrees>-1.90244366414844989776611328125</LongitudeDegrees>
            </Position>
            <AltitudeMeters>612.79998779296875</AltitudeMeters>
            <DistanceMeters>NAN</DistanceMeters>
          </Trackpoint>
          <Trackpoint>
            <Time>2021-08-14T08:24:42.000Z</Time>
            <Position>
              <LatitudeDegrees>43.056289963424205780029296875</LatitudeDegrees>
              <LongitudeDegrees>-1.90252530388534069061279296875</LongitudeDegrees>
            </Position>
            <AltitudeMeters>613</AltitudeMeters>
            <DistanceMeters>NAN</DistanceMeters>
          </Trackpoint>
          <Trackpoint>
            <Time>2021-08-14T08:24:45.000Z</Time>
            <Position>
              <LatitudeDegrees>43.0563578568398952484130859375</LatitudeDegrees>
              <LongitudeDegrees>-1.90260954201221466064453125</LongitudeDegrees>
            </Position>
            <AltitudeMeters>613.20001220703125</AltitudeMeters>
            <DistanceMeters>NAN</DistanceMeters>
          </Trackpoint>
          <Trackpoint>
            <Time>2021-08-14T08:24:47.000Z</Time>
            <Position>
              <LatitudeDegrees>43.05640789680182933807373046875</LatitudeDegrees>
              <LongitudeDegrees>-1.9026623480021953582763671875</LongitudeDegrees>
            </Position>
            <AltitudeMeters>613.5999755859375</AltitudeMeters>
            <DistanceMeters>NAN</DistanceMeters>
          </Trackpoint>
          <Trackpoint>
            <Time>2021-08-14T08:24:49.000Z</Time>
            <Position>
              <LatitudeDegrees>43.0564520694315433502197265625</LatitudeDegrees>
              <LongitudeDegrees>-1.90270333550870418548583984375</LongitudeDegrees>
            </Position>
            <AltitudeMeters>613.79998779296875</AltitudeMeters>
            <DistanceMeters>NAN</DistanceMeters>
          </Trackpoint>
          <Trackpoint>
            <Time>2021-08-14T08:24:52.000Z</Time>
            <Position>
              <LatitudeDegrees>43.05652088485658168792724609375</LatitudeDegrees>
              <LongitudeDegrees>-1.9027649424970149993896484375</LongitudeDegrees>
            </Position>
            <AltitudeMeters>613.79998779296875</AltitudeMeters>
            <DistanceMeters>NAN</DistanceMeters>
          </Trackpoint>
          <Trackpoint>
            <Time>2021-08-14T08:24:55.000Z</Time>
            <Position>
              <LatitudeDegrees>43.05658190511167049407958984375</LatitudeDegrees>
              <LongitudeDegrees>-1.90287399105727672576904296875</LongitudeDegrees>
            </Position>
            <AltitudeMeters>613.79998779296875</AltitudeMeters>
            <DistanceMeters>NAN</DistanceMeters>
          </Trackpoint>
          <Trackpoint>
            <Time>2021-08-14T08:24:56.000Z</Time>
            <Position>
              <LatitudeDegrees>43.05659917183220386505126953125</LatitudeDegrees>
              <LongitudeDegrees>-1.902911961078643798828125</LongitudeDegrees>
            </Position>
            <AltitudeMeters>613.79998779296875</AltitudeMeters>
            <DistanceMeters>NAN</DistanceMeters>
          </Trackpoint>
          <Trackpoint>
            <Time>2021-08-14T08:24:59.000Z</Time>
            <Position>
              <LatitudeDegrees>43.05665784515440464019775390625</LatitudeDegrees>
              <LongitudeDegrees>-1.9030200876295566558837890625</LongitudeDegrees>
            </Position>
            <AltitudeMeters>613.79998779296875</AltitudeMeters>
            <DistanceMeters>NAN</DistanceMeters>
          </Trackpoint>
          <Trackpoint>
            <Time>2021-08-14T08:25:03.000Z</Time>
            <Position>
              <LatitudeDegrees>43.0567226372659206390380859375</LatitudeDegrees>
              <LongitudeDegrees>-1.9031573832035064697265625</LongitudeDegrees>
            </Position>
            <AltitudeMeters>614</AltitudeMeters>
            <DistanceMeters>NAN</DistanceMeters>
          </Trackpoint>
          <Trackpoint>
            <Time>2021-08-14T08:25:06.000Z</Time>
            <Position>
              <LatitudeDegrees>43.05678776465356349945068359375</LatitudeDegrees>
              <LongitudeDegrees>-1.90325704403221607208251953125</LongitudeDegrees>
            </Position>
            <AltitudeMeters>614.20001220703125</AltitudeMeters>
            <DistanceMeters>NAN</DistanceMeters>
          </Trackpoint>
          <Trackpoint>
            <Time>2021-08-14T08:25:07.000Z</Time>
            <Position>
              <LatitudeDegrees>43.0567963980138301849365234375</LatitudeDegrees>
              <LongitudeDegrees>-1.90330012701451778411865234375</LongitudeDegrees>
            </Position>
            <AltitudeMeters>614.20001220703125</AltitudeMeters>
            <DistanceMeters>NAN</DistanceMeters>
          </Trackpoint>
          <Trackpoint>
            <Time>2021-08-14T08:25:08.000Z</Time>
            <Position>
              <LatitudeDegrees>43.05679061450064182281494140625</LatitudeDegrees>
              <LongitudeDegrees>-1.903344132006168365478515625</LongitudeDegrees>
            </Position>
            <AltitudeMeters>614.20001220703125</AltitudeMeters>
            <DistanceMeters>NAN</DistanceMeters>
          </Trackpoint>
          <Trackpoint>
            <Time>2021-08-14T08:25:09.000Z</Time>
            <Position>
              <LatitudeDegrees>43.0568031035363674163818359375</LatitudeDegrees>
              <LongitudeDegrees>-1.90337807871401309967041015625</LongitudeDegrees>
            </Position>
            <AltitudeMeters>614.4000244140625</AltitudeMeters>
            <DistanceMeters>NAN</DistanceMeters>
          </Trackpoint>
          <Trackpoint>
            <Time>2021-08-14T08:25:10.000Z</Time>
            <Position>
              <LatitudeDegrees>43.0568188615143299102783203125</LatitudeDegrees>
              <LongitudeDegrees>-1.9034143723547458648681640625</LongitudeDegrees>
            </Position>
            <AltitudeMeters>614.4000244140625</AltitudeMeters>
            <DistanceMeters>NAN</DistanceMeters>
          </Trackpoint>
          <Trackpoint>
            <Time>2021-08-14T08:25:11.000Z</Time>
            <Position>
              <LatitudeDegrees>43.05683470331132411956787109375</LatitudeDegrees>
              <LongitudeDegrees>-1.90345603041350841522216796875</LongitudeDegrees>
            </Position>
            <AltitudeMeters>614.4000244140625</AltitudeMeters>
            <DistanceMeters>NAN</DistanceMeters>
          </Trackpoint>
          <Trackpoint>
            <Time>2021-08-14T08:25:12.000Z</Time>
            <Position>
              <LatitudeDegrees>43.0568493716418743133544921875</LatitudeDegrees>
              <LongitudeDegrees>-1.90349743701517581939697265625</LongitudeDegrees>
            </Position>
            <AltitudeMeters>614.4000244140625</AltitudeMeters>
            <DistanceMeters>NAN</DistanceMeters>
          </Trackpoint>
          <Trackpoint>
            <Time>2021-08-14T08:25:13.000Z</Time>
            <Position>
              <LatitudeDegrees>43.0568647943437099456787109375</LatitudeDegrees>
              <LongitudeDegrees>-1.903531216084957122802734375</LongitudeDegrees>
            </Position>
            <AltitudeMeters>614.4000244140625</AltitudeMeters>
            <DistanceMeters>NAN</DistanceMeters>
          </Trackpoint>
          <Trackpoint>
            <Time>2021-08-14T08:25:14.000Z</Time>
            <Position>
              <LatitudeDegrees>43.05688180960714817047119140625</LatitudeDegrees>
              <LongitudeDegrees>-1.9035826809704303741455078125</LongitudeDegrees>
            </Position>
            <AltitudeMeters>614.5999755859375</AltitudeMeters>
            <DistanceMeters>NAN</DistanceMeters>
          </Trackpoint>
          <Trackpoint>
            <Time>2021-08-14T08:25:15.000Z</Time>
            <Position>
              <LatitudeDegrees>43.05689404718577861785888671875</LatitudeDegrees>
              <LongitudeDegrees>-1.903621740639209747314453125</LongitudeDegrees>
            </Position>
            <AltitudeMeters>614.5999755859375</AltitudeMeters>
            <DistanceMeters>NAN</DistanceMeters>
          </Trackpoint>
          <Trackpoint>
            <Time>2021-08-14T08:25:16.000Z</Time>
            <Position>
              <LatitudeDegrees>43.056904859840869903564453125</LatitudeDegrees>
              <LongitudeDegrees>-1.90366624854505062103271484375</LongitudeDegrees>
            </Position>
            <AltitudeMeters>614.5999755859375</AltitudeMeters>
            <DistanceMeters>NAN</DistanceMeters>
          </Trackpoint>
          <Trackpoint>
            <Time>2021-08-14T08:25:17.000Z</Time>
            <Position>
              <LatitudeDegrees>43.05691860616207122802734375</LatitudeDegrees>
              <LongitudeDegrees>-1.903702877461910247802734375</LongitudeDegrees>
            </Position>
            <AltitudeMeters>614.79998779296875</AltitudeMeters>
            <DistanceMeters>NAN</DistanceMeters>
          </Trackpoint>
          <Trackpoint>
            <Time>2021-08-14T08:25:18.000Z</Time>
            <Position>
              <LatitudeDegrees>43.05692422203719615936279296875</LatitudeDegrees>
              <LongitudeDegrees>-1.90374688245356082916259765625</LongitudeDegrees>
            </Position>
            <AltitudeMeters>614.79998779296875</AltitudeMeters>
            <DistanceMeters>NAN</DistanceMeters>
          </Trackpoint>
          <Trackpoint>
            <Time>2021-08-14T08:25:19.000Z</Time>
            <Position>
              <LatitudeDegrees>43.0569308437407016754150390625</LatitudeDegrees>
              <LongitudeDegrees>-1.9037912227213382720947265625</LongitudeDegrees>
            </Position>
            <AltitudeMeters>615</AltitudeMeters>
            <DistanceMeters>NAN</DistanceMeters>
          </Trackpoint>
          <Trackpoint>
            <Time>2021-08-14T08:25:22.000Z</Time>
            <Position>
              <LatitudeDegrees>43.05694433860480785369873046875</LatitudeDegrees>
              <LongitudeDegrees>-1.90390194766223430633544921875</LongitudeDegrees>
            </Position>
            <AltitudeMeters>615.20001220703125</AltitudeMeters>
            <DistanceMeters>NAN</DistanceMeters>
          </Trackpoint>
          <Trackpoint>
            <Time>2021-08-14T08:25:24.000Z</Time>
            <Position>
              <LatitudeDegrees>43.05695406161248683929443359375</LatitudeDegrees>
              <LongitudeDegrees>-1.90397168509662151336669921875</LongitudeDegrees>
            </Position>
            <AltitudeMeters>615.20001220703125</AltitudeMeters>
            <DistanceMeters>NAN</DistanceMeters>
          </Trackpoint>
          <Trackpoint>
            <Time>2021-08-14T08:25:26.000Z</Time>
            <Position>
              <LatitudeDegrees>43.05696981959044933319091796875</LatitudeDegrees>
              <LongitudeDegrees>-1.904040165245532989501953125</LongitudeDegrees>
            </Position>
            <AltitudeMeters>615.4000244140625</AltitudeMeters>
            <DistanceMeters>NAN</DistanceMeters>
          </Trackpoint>
          <Trackpoint>
            <Time>2021-08-14T08:25:27.000Z</Time>
            <Position>
              <LatitudeDegrees>43.0569744296371936798095703125</LatitudeDegrees>
              <LongitudeDegrees>-1.904077045619487762451171875</LongitudeDegrees>
            </Position>
            <AltitudeMeters>615.4000244140625</AltitudeMeters>
            <DistanceMeters>NAN</DistanceMeters>
          </Trackpoint>
          <Trackpoint>
            <Time>2021-08-14T08:25:28.000Z</Time>
            <Position>
              <LatitudeDegrees>43.05698473937809467315673828125</LatitudeDegrees>
              <LongitudeDegrees>-1.90410998649895191192626953125</LongitudeDegrees>
            </Position>
            <AltitudeMeters>615.5999755859375</AltitudeMeters>
            <DistanceMeters>NAN</DistanceMeters>
          </Trackpoint>
          <Trackpoint>
            <Time>2021-08-14T08:25:29.000Z</Time>
            <Position>
              <LatitudeDegrees>43.0569928698241710662841796875</LatitudeDegrees>
              <LongitudeDegrees>-1.90414904616773128509521484375</LongitudeDegrees>
            </Position>
            <AltitudeMeters>615.5999755859375</AltitudeMeters>
            <DistanceMeters>NAN</DistanceMeters>
          </Trackpoint>
          <Trackpoint>
            <Time>2021-08-14T08:25:30.000Z</Time>
            <Position>
              <LatitudeDegrees>43.05700418539345264434814453125</LatitudeDegrees>
              <LongitudeDegrees>-1.90419548191130161285400390625</LongitudeDegrees>
            </Position>
            <AltitudeMeters>615.5999755859375</AltitudeMeters>
            <DistanceMeters>NAN</DistanceMeters>
          </Trackpoint>
          <Trackpoint>
            <Time>2021-08-14T08:25:31.000Z</Time>
            <Position>
              <LatitudeDegrees>43.0570091307163238525390625</LatitudeDegrees>
              <LongitudeDegrees>-1.9042383134365081787109375</LongitudeDegrees>
            </Position>
            <AltitudeMeters>615.5999755859375</AltitudeMeters>
            <DistanceMeters>NAN</DistanceMeters>
          </Trackpoint>
          <Trackpoint>
            <Time>2021-08-14T08:25:32.000Z</Time>
            <Position>
              <LatitudeDegrees>43.0570109747350215911865234375</LatitudeDegrees>
              <LongitudeDegrees>-1.9042887724936008453369140625</LongitudeDegrees>
            </Position>
            <AltitudeMeters>615.79998779296875</AltitudeMeters>
            <DistanceMeters>NAN</DistanceMeters>
          </Trackpoint>
          <Trackpoint>
            <Time>2021-08-14T08:25:33.000Z</Time>
            <Position>
              <LatitudeDegrees>43.0570156686007976531982421875</LatitudeDegrees>
              <LongitudeDegrees>-1.90432657487690448760986328125</LongitudeDegrees>
            </Position>
            <AltitudeMeters>615.79998779296875</AltitudeMeters>
            <DistanceMeters>NAN</DistanceMeters>
          </Trackpoint>
          <Trackpoint>
            <Time>2021-08-14T08:25:34.000Z</Time>
            <Position>
              <LatitudeDegrees>43.05701927281916141510009765625</LatitudeDegrees>
              <LongitudeDegrees>-1.904352642595767974853515625</LongitudeDegrees>
            </Position>
            <AltitudeMeters>616</AltitudeMeters>
            <DistanceMeters>NAN</DistanceMeters>
          </Trackpoint>
          <Trackpoint>
            <Time>2021-08-14T08:25:35.000Z</Time>
            <Position>
              <LatitudeDegrees>43.05702321231365203857421875</LatitudeDegrees>
              <LongitudeDegrees>-1.90440469421446323394775390625</LongitudeDegrees>
            </Position>
            <AltitudeMeters>616</AltitudeMeters>
            <DistanceMeters>NAN</DistanceMeters>
          </Trackpoint>
          <Trackpoint>
            <Time>2021-08-14T08:25:36.000Z</Time>
            <Position>
              <LatitudeDegrees>43.05702480487525463104248046875</LatitudeDegrees>
              <LongitudeDegrees>-1.9044540636241436004638671875</LongitudeDegrees>
            </Position>
            <AltitudeMeters>616</AltitudeMeters>
            <DistanceMeters>NAN</DistanceMeters>
          </Trackpoint>
          <Trackpoint>
            <Time>2021-08-14T08:25:37.000Z</Time>
            <Position>
              <LatitudeDegrees>43.0570270679891109466552734375</LatitudeDegrees>
              <LongitudeDegrees>-1.90448231063783168792724609375</LongitudeDegrees>
            </Position>
            <AltitudeMeters>616.20001220703125</AltitudeMeters>
            <DistanceMeters>NAN</DistanceMeters>
          </Trackpoint>
          <Trackpoint>
            <Time>2021-08-14T08:25:38.000Z</Time>
            <Position>
              <LatitudeDegrees>43.05702916346490383148193359375</LatitudeDegrees>
              <LongitudeDegrees>-1.9045043550431728363037109375</LongitudeDegrees>
            </Position>
            <AltitudeMeters>616.20001220703125</AltitudeMeters>
            <DistanceMeters>NAN</DistanceMeters>
          </Trackpoint>
          <Trackpoint>
            <Time>2021-08-14T08:25:39.000Z</Time>
            <Position>
              <LatitudeDegrees>43.05703100748360157012939453125</LatitudeDegrees>
              <LongitudeDegrees>-1.90452707000076770782470703125</LongitudeDegrees>
            </Position>
            <AltitudeMeters>616.20001220703125</AltitudeMeters>
            <DistanceMeters>NAN</DistanceMeters>
          </Trackpoint>
          <Trackpoint>
            <Time>2021-08-14T08:25:40.000Z</Time>
            <Position>
              <LatitudeDegrees>43.0570247210562229156494140625</LatitudeDegrees>
              <LongitudeDegrees>-1.90458775497972965240478515625</LongitudeDegrees>
            </Position>
            <AltitudeMeters>616.20001220703125</AltitudeMeters>
            <DistanceMeters>NAN</DistanceMeters>
          </Trackpoint>
          <Trackpoint>
            <Time>2021-08-14T08:25:41.000Z</Time>
            <Position>
              <LatitudeDegrees>43.0570260621607303619384765625</LatitudeDegrees>
              <LongitudeDegrees>-1.90464206971228122711181640625</LongitudeDegrees>
            </Position>
            <AltitudeMeters>616.20001220703125</AltitudeMeters>
            <DistanceMeters>NAN</DistanceMeters>
          </Trackpoint>
          <Trackpoint>
            <Time>2021-08-14T08:25:44.000Z</Time>
            <Position>
              <LatitudeDegrees>43.0570381321012973785400390625</LatitudeDegrees>
              <LongitudeDegrees>-1.9047739170491695404052734375</LongitudeDegrees>
            </Position>
            <AltitudeMeters>616.79998779296875</AltitudeMeters>
            <DistanceMeters>NAN</DistanceMeters>
          </Trackpoint>
          <Trackpoint>
            <Time>2021-08-14T08:25:45.000Z</Time>
            <Position>
              <LatitudeDegrees>43.0570414848625659942626953125</LatitudeDegrees>
              <LongitudeDegrees>-1.90481658093631267547607421875</LongitudeDegrees>
            </Position>
            <AltitudeMeters>616.79998779296875</AltitudeMeters>
            <DistanceMeters>NAN</DistanceMeters>
          </Trackpoint>
          <Trackpoint>
            <Time>2021-08-14T08:25:46.000Z</Time>
            <Position>
              <LatitudeDegrees>43.05703603662550449371337890625</LatitudeDegrees>
              <LongitudeDegrees>-1.90487198531627655029296875</LongitudeDegrees>
            </Position>
            <AltitudeMeters>616.79998779296875</AltitudeMeters>
            <DistanceMeters>NAN</DistanceMeters>
          </Trackpoint>
          <Trackpoint>
            <Time>2021-08-14T08:25:47.000Z</Time>
            <Position>
              <LatitudeDegrees>43.05701038800179958343505859375</LatitudeDegrees>
              <LongitudeDegrees>-1.90491967834532260894775390625</LongitudeDegrees>
            </Position>
            <AltitudeMeters>617</AltitudeMeters>
            <DistanceMeters>NAN</DistanceMeters>
          </Trackpoint>
          <Trackpoint>
            <Time>2021-08-14T08:25:48.000Z</Time>
            <Position>
              <LatitudeDegrees>43.05698893032968044281005859375</LatitudeDegrees>
              <LongitudeDegrees>-1.9049576483666896820068359375</LongitudeDegrees>
            </Position>
            <AltitudeMeters>617</AltitudeMeters>
            <DistanceMeters>NAN</DistanceMeters>
          </Trackpoint>
          <Trackpoint>
            <Time>2021-08-14T08:25:49.000Z</Time>
            <Position>
              <LatitudeDegrees>43.0569727532565593719482421875</LatitudeDegrees>
              <LongitudeDegrees>-1.9049841351807117462158203125</LongitudeDegrees>
            </Position>
            <AltitudeMeters>617</AltitudeMeters>
            <DistanceMeters>NAN</DistanceMeters>
          </Trackpoint>
          <Trackpoint>
            <Time>2021-08-14T08:25:50.000Z</Time>
            <Position>
              <LatitudeDegrees>43.056957833468914031982421875</LatitudeDegrees>
              <LongitudeDegrees>-1.90502042882144451141357421875</LongitudeDegrees>
            </Position>
            <AltitudeMeters>617</AltitudeMeters>
            <DistanceMeters>NAN</DistanceMeters>
          </Trackpoint>
          <Trackpoint>
            <Time>2021-08-14T08:25:51.000Z</Time>
            <Position>
              <LatitudeDegrees>43.0569412373006343841552734375</LatitudeDegrees>
              <LongitudeDegrees>-1.905056722462177276611328125</LongitudeDegrees>
            </Position>
            <AltitudeMeters>617</AltitudeMeters>
            <DistanceMeters>NAN</DistanceMeters>
          </Trackpoint>
          <Trackpoint>
            <Time>2021-08-14T08:25:52.000Z</Time>
            <Position>
              <LatitudeDegrees>43.05693847127258777618408203125</LatitudeDegrees>
              <LongitudeDegrees>-1.90507315099239349365234375</LongitudeDegrees>
            </Position>
            <AltitudeMeters>617.20001220703125</AltitudeMeters>
            <DistanceMeters>NAN</DistanceMeters>
          </Trackpoint>
          <Trackpoint>
            <Time>2021-08-14T08:25:53.000Z</Time>
            <Position>
              <LatitudeDegrees>43.0569326877593994140625</LatitudeDegrees>
              <LongitudeDegrees>-1.90509234555065631866455078125</LongitudeDegrees>
            </Position>
            <AltitudeMeters>617.20001220703125</AltitudeMeters>
            <DistanceMeters>NAN</DistanceMeters>
          </Trackpoint>
          <Trackpoint>
            <Time>2021-08-14T08:25:57.000Z</Time>
            <Position>
              <LatitudeDegrees>43.0568745173513889312744140625</LatitudeDegrees>
              <LongitudeDegrees>-1.9052426330745220184326171875</LongitudeDegrees>
            </Position>
            <AltitudeMeters>617.5999755859375</AltitudeMeters>
            <DistanceMeters>NAN</DistanceMeters>
          </Trackpoint>
          <Trackpoint>
            <Time>2021-08-14T08:25:58.000Z</Time>
            <Position>
              <LatitudeDegrees>43.056859262287616729736328125</LatitudeDegrees>
              <LongitudeDegrees>-1.90527037717401981353759765625</LongitudeDegrees>
            </Position>
            <AltitudeMeters>617.79998779296875</AltitudeMeters>
            <DistanceMeters>NAN</DistanceMeters>
          </Trackpoint>
          <Trackpoint>
            <Time>2021-08-14T08:26:00.000Z</Time>
            <Position>
              <LatitudeDegrees>43.0568376369774341583251953125</LatitudeDegrees>
              <LongitudeDegrees>-1.905320584774017333984375</LongitudeDegrees>
            </Position>
            <AltitudeMeters>617.79998779296875</AltitudeMeters>
            <DistanceMeters>NAN</DistanceMeters>
          </Trackpoint>
          <Trackpoint>
            <Time>2021-08-14T08:26:01.000Z</Time>
            <Position>
              <LatitudeDegrees>43.05683118291199207305908203125</LatitudeDegrees>
              <LongitudeDegrees>-1.9053479097783565521240234375</LongitudeDegrees>
            </Position>
            <AltitudeMeters>618</AltitudeMeters>
            <DistanceMeters>NAN</DistanceMeters>
          </Trackpoint>
          <Trackpoint>
            <Time>2021-08-14T08:26:02.000Z</Time>
            <Position>
              <LatitudeDegrees>43.05682514794170856475830078125</LatitudeDegrees>
              <LongitudeDegrees>-1.905363500118255615234375</LongitudeDegrees>
            </Position>
            <AltitudeMeters>618.20001220703125</AltitudeMeters>
            <DistanceMeters>NAN</DistanceMeters>
          </Trackpoint>
          <Trackpoint>
            <Time>2021-08-14T08:26:03.000Z</Time>
            <Position>
              <LatitudeDegrees>43.05681676603853702545166015625</LatitudeDegrees>
              <LongitudeDegrees>-1.9053878076374530792236328125</LongitudeDegrees>
            </Position>
            <AltitudeMeters>618.4000244140625</AltitudeMeters>
            <DistanceMeters>NAN</DistanceMeters>
          </Trackpoint>
          <Trackpoint>
            <Time>2021-08-14T08:26:04.000Z</Time>
            <Position>
              <LatitudeDegrees>43.05680637247860431671142578125</LatitudeDegrees>
              <LongitudeDegrees>-1.9054193235933780670166015625</LongitudeDegrees>
            </Position>
            <AltitudeMeters>618.4000244140625</AltitudeMeters>
            <DistanceMeters>NAN</DistanceMeters>
          </Trackpoint>
          <Trackpoint>
            <Time>2021-08-14T08:26:06.000Z</Time>
            <Position>
              <LatitudeDegrees>43.056768737733364105224609375</LatitudeDegrees>
              <LongitudeDegrees>-1.90549182705581188201904296875</LongitudeDegrees>
            </Position>
            <AltitudeMeters>618.5999755859375</AltitudeMeters>
            <DistanceMeters>NAN</DistanceMeters>
          </Trackpoint>
          <Trackpoint>
            <Time>2021-08-14T08:26:07.000Z</Time>
            <Position>
              <LatitudeDegrees>43.05675239302217960357666015625</LatitudeDegrees>
              <LongitudeDegrees>-1.905522756278514862060546875</LongitudeDegrees>
            </Position>
            <AltitudeMeters>618.79998779296875</AltitudeMeters>
            <DistanceMeters>NAN</DistanceMeters>
          </Trackpoint>
          <Trackpoint>
            <Time>2021-08-14T08:26:09.000Z</Time>
            <Position>
              <LatitudeDegrees>43.0567062087357044219970703125</LatitudeDegrees>
              <LongitudeDegrees>-1.905586458742618560791015625</LongitudeDegrees>
            </Position>
            <AltitudeMeters>618.79998779296875</AltitudeMeters>
            <DistanceMeters>NAN</DistanceMeters>
          </Trackpoint>
          <Trackpoint>
            <Time>2021-08-14T08:26:10.000Z</Time>
            <Position>
              <LatitudeDegrees>43.05669170804321765899658203125</LatitudeDegrees>
              <LongitudeDegrees>-1.90562032163143157958984375</LongitudeDegrees>
            </Position>
            <AltitudeMeters>619</AltitudeMeters>
            <DistanceMeters>NAN</DistanceMeters>
          </Trackpoint>
          <Trackpoint>
            <Time>2021-08-14T08:26:11.000Z</Time>
            <Position>
              <LatitudeDegrees>43.0566887743771076202392578125</LatitudeDegrees>
              <LongitudeDegrees>-1.9056684337556362152099609375</LongitudeDegrees>
            </Position>
            <AltitudeMeters>619</AltitudeMeters>
            <DistanceMeters>NAN</DistanceMeters>
          </Trackpoint>
          <Trackpoint>
            <Time>2021-08-14T08:26:12.000Z</Time>
            <Position>
              <LatitudeDegrees>43.05668952874839305877685546875</LatitudeDegrees>
              <LongitudeDegrees>-1.90569399856030941009521484375</LongitudeDegrees>
            </Position>
            <AltitudeMeters>619.20001220703125</AltitudeMeters>
            <DistanceMeters>NAN</DistanceMeters>
          </Trackpoint>
          <Trackpoint>
            <Time>2021-08-14T08:26:13.000Z</Time>
            <Position>
              <LatitudeDegrees>43.05666890926659107208251953125</LatitudeDegrees>
              <LongitudeDegrees>-1.9057217426598072052001953125</LongitudeDegrees>
            </Position>
            <AltitudeMeters>619.4000244140625</AltitudeMeters>
            <DistanceMeters>NAN</DistanceMeters>
          </Trackpoint>
          <Trackpoint>
            <Time>2021-08-14T08:26:15.000Z</Time>
            <Position>
              <LatitudeDegrees>43.05661509744822978973388671875</LatitudeDegrees>
              <LongitudeDegrees>-1.9058491475880146026611328125</LongitudeDegrees>
            </Position>
            <AltitudeMeters>619.4000244140625</AltitudeMeters>
            <DistanceMeters>NAN</DistanceMeters>
          </Trackpoint>
          <Trackpoint>
            <Time>2021-08-14T08:26:16.000Z</Time>
            <Position>
              <LatitudeDegrees>43.05659699253737926483154296875</LatitudeDegrees>
              <LongitudeDegrees>-1.90588091500103473663330078125</LongitudeDegrees>
            </Position>
            <AltitudeMeters>619.4000244140625</AltitudeMeters>
            <DistanceMeters>NAN</DistanceMeters>
          </Trackpoint>
          <Trackpoint>
            <Time>2021-08-14T08:26:17.000Z</Time>
            <Position>
              <LatitudeDegrees>43.05658794008195400238037109375</LatitudeDegrees>
              <LongitudeDegrees>-1.905915699899196624755859375</LongitudeDegrees>
            </Position>
            <AltitudeMeters>619.4000244140625</AltitudeMeters>
            <DistanceMeters>NAN</DistanceMeters>
          </Trackpoint>
          <Trackpoint>
            <Time>2021-08-14T08:26:18.000Z</Time>
            <Position>
              <LatitudeDegrees>43.056580312550067901611328125</LatitudeDegrees>
              <LongitudeDegrees>-1.90592852421104907989501953125</LongitudeDegrees>
            </Position>
            <AltitudeMeters>619.5999755859375</AltitudeMeters>
            <DistanceMeters>NAN</DistanceMeters>
          </Trackpoint>
          <Trackpoint>
            <Time>2021-08-14T08:26:21.000Z</Time>
            <Position>
              <LatitudeDegrees>43.0564956553280353546142578125</LatitudeDegrees>
              <LongitudeDegrees>-1.90600496716797351837158203125</LongitudeDegrees>
            </Position>
            <AltitudeMeters>619.5999755859375</AltitudeMeters>
            <DistanceMeters>NAN</DistanceMeters>
          </Trackpoint>
          <Trackpoint>
            <Time>2021-08-14T08:26:22.000Z</Time>
            <Position>
              <LatitudeDegrees>43.0564674921333789825439453125</LatitudeDegrees>
              <LongitudeDegrees>-1.9060241617262363433837890625</LongitudeDegrees>
            </Position>
            <AltitudeMeters>619.79998779296875</AltitudeMeters>
            <DistanceMeters>NAN</DistanceMeters>
          </Trackpoint>
          <Trackpoint>
            <Time>2021-08-14T08:26:27.000Z</Time>
            <Position>
              <LatitudeDegrees>43.056312762200832366943359375</LatitudeDegrees>
              <LongitudeDegrees>-1.90614293329417705535888671875</LongitudeDegrees>
            </Position>
            <AltitudeMeters>620</AltitudeMeters>
            <DistanceMeters>NAN</DistanceMeters>
          </Trackpoint>
          <Trackpoint>
            <Time>2021-08-14T08:26:34.000Z</Time>
            <Position>
              <LatitudeDegrees>43.056076727807521820068359375</LatitudeDegrees>
              <LongitudeDegrees>-1.90626732073724269866943359375</LongitudeDegrees>
            </Position>
            <AltitudeMeters>620</AltitudeMeters>
            <DistanceMeters>NAN</DistanceMeters>
          </Trackpoint>
          <Trackpoint>
            <Time>2021-08-14T08:26:36.000Z</Time>
            <Position>
              <LatitudeDegrees>43.056003637611865997314453125</LatitudeDegrees>
              <LongitudeDegrees>-1.9063000939786434173583984375</LongitudeDegrees>
            </Position>
            <AltitudeMeters>620</AltitudeMeters>
            <DistanceMeters>NAN</DistanceMeters>
          </Trackpoint>
          <Trackpoint>
            <Time>2021-08-14T08:26:37.000Z</Time>
            <Position>
              <LatitudeDegrees>43.0559732951223850250244140625</LatitudeDegrees>
              <LongitudeDegrees>-1.90631174482405185699462890625</LongitudeDegrees>
            </Position>
            <AltitudeMeters>620.20001220703125</AltitudeMeters>
            <DistanceMeters>NAN</DistanceMeters>
          </Trackpoint>
          <Trackpoint>
            <Time>2021-08-14T08:26:38.000Z</Time>
            <Position>
              <LatitudeDegrees>43.055941946804523468017578125</LatitudeDegrees>
              <LongitudeDegrees>-1.9063205458223819732666015625</LongitudeDegrees>
            </Position>
            <AltitudeMeters>620.20001220703125</AltitudeMeters>
            <DistanceMeters>NAN</DistanceMeters>
          </Trackpoint>
          <Trackpoint>
            <Time>2021-08-14T08:26:39.000Z</Time>
            <Position>
              <LatitudeDegrees>43.05591034702956676483154296875</LatitudeDegrees>
              <LongitudeDegrees>-1.90632901154458522796630859375</LongitudeDegrees>
            </Position>
            <AltitudeMeters>620.20001220703125</AltitudeMeters>
            <DistanceMeters>NAN</DistanceMeters>
          </Trackpoint>
          <Trackpoint>
            <Time>2021-08-14T08:26:40.000Z</Time>
            <Position>
              <LatitudeDegrees>43.05587715469300746917724609375</LatitudeDegrees>
              <LongitudeDegrees>-1.90633605234324932098388671875</LongitudeDegrees>
            </Position>
            <AltitudeMeters>620.20001220703125</AltitudeMeters>
            <DistanceMeters>NAN</DistanceMeters>
          </Trackpoint>
          <Trackpoint>
            <Time>2021-08-14T08:26:41.000Z</Time>
            <Position>
              <LatitudeDegrees>43.0558530986309051513671875</LatitudeDegrees>
              <LongitudeDegrees>-1.90633915364742279052734375</LongitudeDegrees>
            </Position>
            <AltitudeMeters>620.20001220703125</AltitudeMeters>
            <DistanceMeters>NAN</DistanceMeters>
          </Trackpoint>
          <Trackpoint>
            <Time>2021-08-14T08:26:42.000Z</Time>
            <Position>
              <LatitudeDegrees>43.055821247398853302001953125</LatitudeDegrees>
              <LongitudeDegrees>-1.9063411653041839599609375</LongitudeDegrees>
            </Position>
            <AltitudeMeters>620.20001220703125</AltitudeMeters>
            <DistanceMeters>NAN</DistanceMeters>
          </Trackpoint>
          <Trackpoint>
            <Time>2021-08-14T08:26:43.000Z</Time>
            <Position>
              <LatitudeDegrees>43.055783025920391082763671875</LatitudeDegrees>
              <LongitudeDegrees>-1.90634342841804027557373046875</LongitudeDegrees>
            </Position>
            <AltitudeMeters>620.20001220703125</AltitudeMeters>
            <DistanceMeters>NAN</DistanceMeters>
          </Trackpoint>
          <Trackpoint>
            <Time>2021-08-14T08:26:44.000Z</Time>
            <Position>
              <LatitudeDegrees>43.055752180516719818115234375</LatitudeDegrees>
              <LongitudeDegrees>-1.9063487090170383453369140625</LongitudeDegrees>
            </Position>
            <AltitudeMeters>620.20001220703125</AltitudeMeters>
            <DistanceMeters>NAN</DistanceMeters>
          </Trackpoint>
          <Trackpoint>
            <Time>2021-08-14T08:26:45.000Z</Time>
            <Position>
              <LatitudeDegrees>43.05572091601788997650146484375</LatitudeDegrees>
              <LongitudeDegrees>-1.90635499544441699981689453125</LongitudeDegrees>
            </Position>
            <AltitudeMeters>620.4000244140625</AltitudeMeters>
            <DistanceMeters>NAN</DistanceMeters>
          </Trackpoint>
          <Trackpoint>
            <Time>2021-08-14T08:26:46.000Z</Time>
            <Position>
              <LatitudeDegrees>43.05569509975612163543701171875</LatitudeDegrees>
              <LongitudeDegrees>-1.90635767765343189239501953125</LongitudeDegrees>
            </Position>
            <AltitudeMeters>620.4000244140625</AltitudeMeters>
            <DistanceMeters>NAN</DistanceMeters>
          </Trackpoint>
          <Trackpoint>
            <Time>2021-08-14T08:26:47.000Z</Time>
            <Position>
              <LatitudeDegrees>43.05566609837114810943603515625</LatitudeDegrees>
              <LongitudeDegrees>-1.9063554145395755767822265625</LongitudeDegrees>
            </Position>
            <AltitudeMeters>620.4000244140625</AltitudeMeters>
            <DistanceMeters>NAN</DistanceMeters>
          </Trackpoint>
          <Trackpoint>
            <Time>2021-08-14T08:26:48.000Z</Time>
            <Position>
              <LatitudeDegrees>43.05563190020620822906494140625</LatitudeDegrees>
              <LongitudeDegrees>-1.9063550792634487152099609375</LongitudeDegrees>
            </Position>
            <AltitudeMeters>620.4000244140625</AltitudeMeters>
            <DistanceMeters>NAN</DistanceMeters>
          </Trackpoint>
          <Trackpoint>
            <Time>2021-08-14T08:26:49.000Z</Time>
            <Position>
              <LatitudeDegrees>43.0556034855544567108154296875</LatitudeDegrees>
              <LongitudeDegrees>-1.90635432489216327667236328125</LongitudeDegrees>
            </Position>
            <AltitudeMeters>620.4000244140625</AltitudeMeters>
            <DistanceMeters>NAN</DistanceMeters>
          </Trackpoint>
          <Trackpoint>
            <Time>2021-08-14T08:26:50.000Z</Time>
            <Position>
              <LatitudeDegrees>43.05557490326464176177978515625</LatitudeDegrees>
              <LongitudeDegrees>-1.9063547439873218536376953125</LongitudeDegrees>
            </Position>
            <AltitudeMeters>620.5999755859375</AltitudeMeters>
            <DistanceMeters>NAN</DistanceMeters>
          </Trackpoint>
          <Trackpoint>
            <Time>2021-08-14T08:26:51.000Z</Time>
            <Position>
              <LatitudeDegrees>43.0555468238890171051025390625</LatitudeDegrees>
              <LongitudeDegrees>-1.9063550792634487152099609375</LongitudeDegrees>
            </Position>
            <AltitudeMeters>620.5999755859375</AltitudeMeters>
            <DistanceMeters>NAN</DistanceMeters>
          </Trackpoint>
          <Trackpoint>
            <Time>2021-08-14T08:26:52.000Z</Time>
            <Position>
              <LatitudeDegrees>43.05552519857883453369140625</LatitudeDegrees>
              <LongitudeDegrees>-1.906351558864116668701171875</LongitudeDegrees>
            </Position>
            <AltitudeMeters>620.5999755859375</AltitudeMeters>
            <DistanceMeters>NAN</DistanceMeters>
          </Trackpoint>
          <Trackpoint>
            <Time>2021-08-14T08:26:53.000Z</Time>
            <Position>
              <LatitudeDegrees>43.05549795739352703094482421875</LatitudeDegrees>
              <LongitudeDegrees>-1.90635046921670436859130859375</LongitudeDegrees>
            </Position>
            <AltitudeMeters>620.79998779296875</AltitudeMeters>
            <DistanceMeters>NAN</DistanceMeters>
          </Trackpoint>
          <Trackpoint>
            <Time>2021-08-14T08:26:54.000Z</Time>
            <Position>
              <LatitudeDegrees>43.05546459741890430450439453125</LatitudeDegrees>
              <LongitudeDegrees>-1.9063493795692920684814453125</LongitudeDegrees>
            </Position>
            <AltitudeMeters>620.79998779296875</AltitudeMeters>
            <DistanceMeters>NAN</DistanceMeters>
          </Trackpoint>
          <Trackpoint>
            <Time>2021-08-14T08:26:55.000Z</Time>
            <Position>
              <LatitudeDegrees>43.0554373562335968017578125</LatitudeDegrees>
              <LongitudeDegrees>-1.90634745173156261444091796875</LongitudeDegrees>
            </Position>
            <AltitudeMeters>620.79998779296875</AltitudeMeters>
            <DistanceMeters>NAN</DistanceMeters>
          </Trackpoint>
          <Trackpoint>
            <Time>2021-08-14T08:26:56.000Z</Time>
            <Position>
              <LatitudeDegrees>43.0554117076098918914794921875</LatitudeDegrees>
              <LongitudeDegrees>-1.906344853341579437255859375</LongitudeDegrees>
            </Position>
            <AltitudeMeters>621</AltitudeMeters>
            <DistanceMeters>NAN</DistanceMeters>
          </Trackpoint>
          <Trackpoint>
            <Time>2021-08-14T08:26:57.000Z</Time>
            <Position>
              <LatitudeDegrees>43.05539234541356563568115234375</LatitudeDegrees>
              <LongitudeDegrees>-1.90634242258965969085693359375</LongitudeDegrees>
            </Position>
            <AltitudeMeters>621</AltitudeMeters>
            <DistanceMeters>NAN</DistanceMeters>
          </Trackpoint>
          <Trackpoint>
            <Time>2021-08-14T08:26:58.000Z</Time>
            <Position>
              <LatitudeDegrees>43.05536384694278240203857421875</LatitudeDegrees>
              <LongitudeDegrees>-1.90633940510451793670654296875</LongitudeDegrees>
            </Position>
            <AltitudeMeters>621.20001220703125</AltitudeMeters>
            <DistanceMeters>NAN</DistanceMeters>
          </Trackpoint>
          <Trackpoint>
            <Time>2021-08-14T08:26:59.000Z</Time>
            <Position>
              <LatitudeDegrees>43.0553389526903629302978515625</LatitudeDegrees>
              <LongitudeDegrees>-1.90633772872388362884521484375</LongitudeDegrees>
            </Position>
            <AltitudeMeters>621.4000244140625</AltitudeMeters>
            <DistanceMeters>NAN</DistanceMeters>
          </Trackpoint>
          <Trackpoint>
            <Time>2021-08-14T08:27:00.000Z</Time>
            <Position>
              <LatitudeDegrees>43.05531657300889492034912109375</LatitudeDegrees>
              <LongitudeDegrees>-1.9063384830951690673828125</LongitudeDegrees>
            </Position>
            <AltitudeMeters>621.4000244140625</AltitudeMeters>
            <DistanceMeters>NAN</DistanceMeters>
          </Trackpoint>
          <Trackpoint>
            <Time>2021-08-14T08:27:01.000Z</Time>
            <Position>
              <LatitudeDegrees>43.055298216640949249267578125</LatitudeDegrees>
              <LongitudeDegrees>-1.906339488923549652099609375</LongitudeDegrees>
            </Position>
            <AltitudeMeters>621.5999755859375</AltitudeMeters>
            <DistanceMeters>NAN</DistanceMeters>
          </Trackpoint>
          <Trackpoint>
            <Time>2021-08-14T08:27:02.000Z</Time>
            <Position>
              <LatitudeDegrees>43.05528723634779453277587890625</LatitudeDegrees>
              <LongitudeDegrees>-1.90633856691420078277587890625</LongitudeDegrees>
            </Position>
            <AltitudeMeters>621.79998779296875</AltitudeMeters>
            <DistanceMeters>NAN</DistanceMeters>
          </Trackpoint>
          <Trackpoint>
            <Time>2021-08-14T08:27:03.000Z</Time>
            <Position>
              <LatitudeDegrees>43.05527583695948123931884765625</LatitudeDegrees>
              <LongitudeDegrees>-1.9063329510390758514404296875</LongitudeDegrees>
            </Position>
            <AltitudeMeters>621.79998779296875</AltitudeMeters>
            <DistanceMeters>NAN</DistanceMeters>
          </Trackpoint>
          <Trackpoint>
            <Time>2021-08-14T08:27:04.000Z</Time>
            <Position>
              <LatitudeDegrees>43.05526292882859706878662109375</LatitudeDegrees>
              <LongitudeDegrees>-1.9063252396881580352783203125</LongitudeDegrees>
            </Position>
            <AltitudeMeters>622</AltitudeMeters>
            <DistanceMeters>NAN</DistanceMeters>
          </Trackpoint>
          <Trackpoint>
            <Time>2021-08-14T08:27:05.000Z</Time>
            <Position>
              <LatitudeDegrees>43.0552464164793491363525390625</LatitudeDegrees>
              <LongitudeDegrees>-1.9063202105462551116943359375</LongitudeDegrees>
            </Position>
            <AltitudeMeters>622</AltitudeMeters>
            <DistanceMeters>NAN</DistanceMeters>
          </Trackpoint>
          <Trackpoint>
            <Time>2021-08-14T08:27:06.000Z</Time>
            <Position>
              <LatitudeDegrees>43.055229149758815765380859375</LatitudeDegrees>
              <LongitudeDegrees>-1.90632130019366741180419921875</LongitudeDegrees>
            </Position>
            <AltitudeMeters>622.20001220703125</AltitudeMeters>
            <DistanceMeters>NAN</DistanceMeters>
          </Trackpoint>
          <Trackpoint>
            <Time>2021-08-14T08:27:07.000Z</Time>
            <Position>
              <LatitudeDegrees>43.05521196685731410980224609375</LatitudeDegrees>
              <LongitudeDegrees>-1.90632750280201435089111328125</LongitudeDegrees>
            </Position>
            <AltitudeMeters>622.4000244140625</AltitudeMeters>
            <DistanceMeters>NAN</DistanceMeters>
          </Trackpoint>
          <Trackpoint>
            <Time>2021-08-14T08:27:08.000Z</Time>
            <Position>
              <LatitudeDegrees>43.05519419722259044647216796875</LatitudeDegrees>
              <LongitudeDegrees>-1.90633337013423442840576171875</LongitudeDegrees>
            </Position>
            <AltitudeMeters>622.4000244140625</AltitudeMeters>
            <DistanceMeters>NAN</DistanceMeters>
          </Trackpoint>
          <Trackpoint>
            <Time>2021-08-14T08:27:09.000Z</Time>
            <Position>
              <LatitudeDegrees>43.05517424829304218292236328125</LatitudeDegrees>
              <LongitudeDegrees>-1.906338818371295928955078125</LongitudeDegrees>
            </Position>
            <AltitudeMeters>622.5999755859375</AltitudeMeters>
            <DistanceMeters>NAN</DistanceMeters>
          </Trackpoint>
          <Trackpoint>
            <Time>2021-08-14T08:27:10.000Z</Time>
            <Position>
              <LatitudeDegrees>43.0551682971417903900146484375</LatitudeDegrees>
              <LongitudeDegrees>-1.906339824199676513671875</LongitudeDegrees>
            </Position>
            <AltitudeMeters>622.5999755859375</AltitudeMeters>
            <DistanceMeters>NAN</DistanceMeters>
          </Trackpoint>
          <Trackpoint>
            <Time>2021-08-14T08:27:11.000Z</Time>
            <Position>
              <LatitudeDegrees>43.0551682971417903900146484375</LatitudeDegrees>
              <LongitudeDegrees>-1.906339824199676513671875</LongitudeDegrees>
            </Position>
            <AltitudeMeters>622.5999755859375</AltitudeMeters>
            <DistanceMeters>NAN</DistanceMeters>
          </Trackpoint>
          <Trackpoint>
            <Time>2021-08-14T08:27:13.000Z</Time>
            <Position>
              <LatitudeDegrees>43.0551682971417903900146484375</LatitudeDegrees>
              <LongitudeDegrees>-1.906339824199676513671875</LongitudeDegrees>
            </Position>
            <AltitudeMeters>622.79998779296875</AltitudeMeters>
            <DistanceMeters>NAN</DistanceMeters>
          </Trackpoint>
          <Trackpoint>
            <Time>2021-08-14T08:27:20.000Z</Time>
            <Position>
              <LatitudeDegrees>43.0551827140152454376220703125</LatitudeDegrees>
              <LongitudeDegrees>-1.90632632933557033538818359375</LongitudeDegrees>
            </Position>
            <AltitudeMeters>623.20001220703125</AltitudeMeters>
            <DistanceMeters>NAN</DistanceMeters>
          </Trackpoint>
          <Trackpoint>
            <Time>2021-08-14T08:27:22.000Z</Time>
            <Position>
              <LatitudeDegrees>43.055205009877681732177734375</LatitudeDegrees>
              <LongitudeDegrees>-1.9063277542591094970703125</LongitudeDegrees>
            </Position>
            <AltitudeMeters>623.20001220703125</AltitudeMeters>
            <DistanceMeters>NAN</DistanceMeters>
          </Trackpoint>
          <Trackpoint>
            <Time>2021-08-14T08:27:23.000Z</Time>
            <Position>
              <LatitudeDegrees>43.05522236041724681854248046875</LatitudeDegrees>
              <LongitudeDegrees>-1.90632917918264865875244140625</LongitudeDegrees>
            </Position>
            <AltitudeMeters>623.20001220703125</AltitudeMeters>
            <DistanceMeters>NAN</DistanceMeters>
          </Trackpoint>
          <Trackpoint>
            <Time>2021-08-14T08:27:24.000Z</Time>
            <Position>
              <LatitudeDegrees>43.0552373640239238739013671875</LatitudeDegrees>
              <LongitudeDegrees>-1.90632750280201435089111328125</LongitudeDegrees>
            </Position>
            <AltitudeMeters>623.20001220703125</AltitudeMeters>
            <DistanceMeters>NAN</DistanceMeters>
          </Trackpoint>
          <Trackpoint>
            <Time>2021-08-14T08:27:28.000Z</Time>
            <Position>
              <LatitudeDegrees>43.05533098988234996795654296875</LatitudeDegrees>
              <LongitudeDegrees>-1.90633839927613735198974609375</LongitudeDegrees>
            </Position>
            <AltitudeMeters>623</AltitudeMeters>
            <DistanceMeters>NAN</DistanceMeters>
          </Trackpoint>
          <Trackpoint>
            <Time>2021-08-14T08:27:30.000Z</Time>
            <Position>
              <LatitudeDegrees>43.05536694824695587158203125</LatitudeDegrees>
              <LongitudeDegrees>-1.906348876655101776123046875</LongitudeDegrees>
            </Position>
            <AltitudeMeters>622.79998779296875</AltitudeMeters>
            <DistanceMeters>NAN</DistanceMeters>
          </Trackpoint>
          <Trackpoint>
            <Time>2021-08-14T08:27:31.000Z</Time>
            <Position>
              <LatitudeDegrees>43.055371306836605072021484375</LatitudeDegrees>
              <LongitudeDegrees>-1.906350888311862945556640625</LongitudeDegrees>
            </Position>
            <AltitudeMeters>622.79998779296875</AltitudeMeters>
            <DistanceMeters>NAN</DistanceMeters>
          </Trackpoint>
          <Trackpoint>
            <Time>2021-08-14T08:27:32.000Z</Time>
            <Position>
              <LatitudeDegrees>43.055371306836605072021484375</LatitudeDegrees>
              <LongitudeDegrees>-1.906350888311862945556640625</LongitudeDegrees>
            </Position>
            <AltitudeMeters>622.5999755859375</AltitudeMeters>
            <DistanceMeters>NAN</DistanceMeters>
          </Trackpoint>
          <Trackpoint>
            <Time>2021-08-14T08:27:40.000Z</Time>
            <Position>
              <LatitudeDegrees>43.055371306836605072021484375</LatitudeDegrees>
              <LongitudeDegrees>-1.906350888311862945556640625</LongitudeDegrees>
            </Position>
            <AltitudeMeters>621.79998779296875</AltitudeMeters>
            <DistanceMeters>NAN</DistanceMeters>
          </Trackpoint>
          <Trackpoint>
            <Time>2021-08-14T08:30:39.000Z</Time>
            <Position>
              <LatitudeDegrees>43.05537541396915912628173828125</LatitudeDegrees>
              <LongitudeDegrees>-1.9063497148454189300537109375</LongitudeDegrees>
            </Position>
            <AltitudeMeters>622.20001220703125</AltitudeMeters>
            <DistanceMeters>NAN</DistanceMeters>
          </Trackpoint>
          <Trackpoint>
            <Time>2021-08-14T08:30:53.000Z</Time>
            <Position>
              <LatitudeDegrees>43.05537541396915912628173828125</LatitudeDegrees>
              <LongitudeDegrees>-1.9063497148454189300537109375</LongitudeDegrees>
            </Position>
            <AltitudeMeters>622.4000244140625</AltitudeMeters>
            <DistanceMeters>NAN</DistanceMeters>
          </Trackpoint>
          <Trackpoint>
            <Time>2021-08-14T08:30:58.000Z</Time>
            <Position>
              <LatitudeDegrees>43.05539586581289768218994140625</LatitudeDegrees>
              <LongitudeDegrees>-1.90633621998131275177001953125</LongitudeDegrees>
            </Position>
            <AltitudeMeters>622.4000244140625</AltitudeMeters>
            <DistanceMeters>NAN</DistanceMeters>
          </Trackpoint>
          <Trackpoint>
            <Time>2021-08-14T08:30:59.000Z</Time>
            <Position>
              <LatitudeDegrees>43.05541430599987506866455078125</LatitudeDegrees>
              <LongitudeDegrees>-1.90633957274258136749267578125</LongitudeDegrees>
            </Position>
            <AltitudeMeters>622.4000244140625</AltitudeMeters>
            <DistanceMeters>NAN</DistanceMeters>
          </Trackpoint>
          <Trackpoint>
            <Time>2021-08-14T08:31:01.000Z</Time>
            <Position>
              <LatitudeDegrees>43.05542671121656894683837890625</LatitudeDegrees>
              <LongitudeDegrees>-1.90636656247079372406005859375</LongitudeDegrees>
            </Position>
            <AltitudeMeters>622.4000244140625</AltitudeMeters>
            <DistanceMeters>NAN</DistanceMeters>
          </Trackpoint>
          <Trackpoint>
            <Time>2021-08-14T08:31:02.000Z</Time>
            <Position>
              <LatitudeDegrees>43.05541765876114368438720703125</LatitudeDegrees>
              <LongitudeDegrees>-1.9063765369355678558349609375</LongitudeDegrees>
            </Position>
            <AltitudeMeters>622.5999755859375</AltitudeMeters>
            <DistanceMeters>NAN</DistanceMeters>
          </Trackpoint>
          <Trackpoint>
            <Time>2021-08-14T08:31:03.000Z</Time>
            <Position>
              <LatitudeDegrees>43.05540718138217926025390625</LatitudeDegrees>
              <LongitudeDegrees>-1.906379051506519317626953125</LongitudeDegrees>
            </Position>
            <AltitudeMeters>622.5999755859375</AltitudeMeters>
            <DistanceMeters>NAN</DistanceMeters>
          </Trackpoint>
          <Trackpoint>
            <Time>2021-08-14T08:31:06.000Z</Time>
            <Position>
              <LatitudeDegrees>43.05537977255880832672119140625</LatitudeDegrees>
              <LongitudeDegrees>-1.9063503853976726531982421875</LongitudeDegrees>
            </Position>
            <AltitudeMeters>622.79998779296875</AltitudeMeters>
            <DistanceMeters>NAN</DistanceMeters>
          </Trackpoint>
          <Trackpoint>
            <Time>2021-08-14T08:31:07.000Z</Time>
            <Position>
              <LatitudeDegrees>43.0553681217133998870849609375</LatitudeDegrees>
              <LongitudeDegrees>-1.90634678117930889129638671875</LongitudeDegrees>
            </Position>
            <AltitudeMeters>623</AltitudeMeters>
            <DistanceMeters>NAN</DistanceMeters>
          </Trackpoint>
          <Trackpoint>
            <Time>2021-08-14T08:31:08.000Z</Time>
            <Position>
              <LatitudeDegrees>43.05535563267767429351806640625</LatitudeDegrees>
              <LongitudeDegrees>-1.906344853341579437255859375</LongitudeDegrees>
            </Position>
            <AltitudeMeters>623</AltitudeMeters>
            <DistanceMeters>NAN</DistanceMeters>
          </Trackpoint>
          <Trackpoint>
            <Time>2021-08-14T08:31:09.000Z</Time>
            <Position>
              <LatitudeDegrees>43.0553416348993778228759765625</LatitudeDegrees>
              <LongitudeDegrees>-1.9063436798751354217529296875</LongitudeDegrees>
            </Position>
            <AltitudeMeters>623</AltitudeMeters>
            <DistanceMeters>NAN</DistanceMeters>
          </Trackpoint>
          <Trackpoint>
            <Time>2021-08-14T08:31:13.000Z</Time>
            <Position>
              <LatitudeDegrees>43.05529360659420490264892578125</LatitudeDegrees>
              <LongitudeDegrees>-1.90633655525743961334228515625</LongitudeDegrees>
            </Position>
            <AltitudeMeters>623</AltitudeMeters>
            <DistanceMeters>NAN</DistanceMeters>
          </Trackpoint>
          <Trackpoint>
            <Time>2021-08-14T08:31:14.000Z</Time>
            <Position>
              <LatitudeDegrees>43.05528220720589160919189453125</LatitudeDegrees>
              <LongitudeDegrees>-1.9063356332480907440185546875</LongitudeDegrees>
            </Position>
            <AltitudeMeters>623.20001220703125</AltitudeMeters>
            <DistanceMeters>NAN</DistanceMeters>
          </Trackpoint>
          <Trackpoint>
            <Time>2021-08-14T08:31:15.000Z</Time>
            <Position>
              <LatitudeDegrees>43.0552698858082294464111328125</LatitudeDegrees>
              <LongitudeDegrees>-1.90633487887680530548095703125</LongitudeDegrees>
            </Position>
            <AltitudeMeters>623.20001220703125</AltitudeMeters>
            <DistanceMeters>NAN</DistanceMeters>
          </Trackpoint>
          <Trackpoint>
            <Time>2021-08-14T08:31:16.000Z</Time>
            <Position>
              <LatitudeDegrees>43.055257983505725860595703125</LatitudeDegrees>
              <LongitudeDegrees>-1.90633806400001049041748046875</LongitudeDegrees>
            </Position>
            <AltitudeMeters>623.20001220703125</AltitudeMeters>
            <DistanceMeters>NAN</DistanceMeters>
          </Trackpoint>
          <Trackpoint>
            <Time>2021-08-14T08:31:17.000Z</Time>
            <Position>
              <LatitudeDegrees>43.05524717085063457489013671875</LatitudeDegrees>
              <LongitudeDegrees>-1.90634141676127910614013671875</LongitudeDegrees>
            </Position>
            <AltitudeMeters>623.4000244140625</AltitudeMeters>
            <DistanceMeters>NAN</DistanceMeters>
          </Trackpoint>
          <Trackpoint>
            <Time>2021-08-14T08:31:18.000Z</Time>
            <Position>
              <LatitudeDegrees>43.05523593910038471221923828125</LatitudeDegrees>
              <LongitudeDegrees>-1.90633990801870822906494140625</LongitudeDegrees>
            </Position>
            <AltitudeMeters>623.4000244140625</AltitudeMeters>
            <DistanceMeters>NAN</DistanceMeters>
          </Trackpoint>
          <Trackpoint>
            <Time>2021-08-14T08:31:19.000Z</Time>
            <Position>
              <LatitudeDegrees>43.05522504262626171112060546875</LatitudeDegrees>
              <LongitudeDegrees>-1.906337477266788482666015625</LongitudeDegrees>
            </Position>
            <AltitudeMeters>623.4000244140625</AltitudeMeters>
            <DistanceMeters>NAN</DistanceMeters>
          </Trackpoint>
          <Trackpoint>
            <Time>2021-08-14T08:31:20.000Z</Time>
            <Position>
              <LatitudeDegrees>43.0552138946950435638427734375</LatitudeDegrees>
              <LongitudeDegrees>-1.90633454360067844390869140625</LongitudeDegrees>
            </Position>
            <AltitudeMeters>623.5999755859375</AltitudeMeters>
            <DistanceMeters>NAN</DistanceMeters>
          </Trackpoint>
          <Trackpoint>
            <Time>2021-08-14T08:31:21.000Z</Time>
            <Position>
              <LatitudeDegrees>43.05520324967801570892333984375</LatitudeDegrees>
              <LongitudeDegrees>-1.90633378922939300537109375</LongitudeDegrees>
            </Position>
            <AltitudeMeters>623.5999755859375</AltitudeMeters>
            <DistanceMeters>NAN</DistanceMeters>
          </Trackpoint>
          <Trackpoint>
            <Time>2021-08-14T08:31:22.000Z</Time>
            <Position>
              <LatitudeDegrees>43.05519520305097103118896484375</LatitudeDegrees>
              <LongitudeDegrees>-1.906330101191997528076171875</LongitudeDegrees>
            </Position>
            <AltitudeMeters>623.5999755859375</AltitudeMeters>
            <DistanceMeters>NAN</DistanceMeters>
          </Trackpoint>
          <Trackpoint>
            <Time>2021-08-14T08:31:23.000Z</Time>
            <Position>
              <LatitudeDegrees>43.05519218556582927703857421875</LatitudeDegrees>
              <LongitudeDegrees>-1.90632716752588748931884765625</LongitudeDegrees>
            </Position>
            <AltitudeMeters>623.4000244140625</AltitudeMeters>
            <DistanceMeters>NAN</DistanceMeters>
          </Trackpoint>
          <Trackpoint>
            <Time>2021-08-14T08:31:24.000Z</Time>
            <Position>
              <LatitudeDegrees>43.05519218556582927703857421875</LatitudeDegrees>
              <LongitudeDegrees>-1.90632716752588748931884765625</LongitudeDegrees>
            </Position>
            <AltitudeMeters>623.5999755859375</AltitudeMeters>
            <DistanceMeters>NAN</DistanceMeters>
          </Trackpoint>
          <Trackpoint>
            <Time>2021-08-14T08:31:36.000Z</Time>
            <Position>
              <LatitudeDegrees>43.05519218556582927703857421875</LatitudeDegrees>
              <LongitudeDegrees>-1.90632716752588748931884765625</LongitudeDegrees>
            </Position>
            <AltitudeMeters>623.79998779296875</AltitudeMeters>
            <DistanceMeters>NAN</DistanceMeters>
          </Trackpoint>
          <Trackpoint>
            <Time>2021-08-14T08:32:29.000Z</Time>
            <Position>
              <LatitudeDegrees>43.05518715642392635345458984375</LatitudeDegrees>
              <LongitudeDegrees>-1.90632783807814121246337890625</LongitudeDegrees>
            </Position>
            <AltitudeMeters>623.79998779296875</AltitudeMeters>
            <DistanceMeters>NAN</DistanceMeters>
          </Trackpoint>
          <Trackpoint>
            <Time>2021-08-14T08:33:04.000Z</Time>
            <Position>
              <LatitudeDegrees>43.05518715642392635345458984375</LatitudeDegrees>
              <LongitudeDegrees>-1.90632783807814121246337890625</LongitudeDegrees>
            </Position>
            <AltitudeMeters>623.20001220703125</AltitudeMeters>
            <DistanceMeters>NAN</DistanceMeters>
          </Trackpoint>
          <Trackpoint>
            <Time>2021-08-14T08:33:30.000Z</Time>
            <Position>
              <LatitudeDegrees>43.05517877452075481414794921875</LatitudeDegrees>
              <LongitudeDegrees>-1.90632708370685577392578125</LongitudeDegrees>
            </Position>
            <AltitudeMeters>623.5999755859375</AltitudeMeters>
            <DistanceMeters>NAN</DistanceMeters>
          </Trackpoint>
          <Trackpoint>
            <Time>2021-08-14T08:33:39.000Z</Time>
            <Position>
              <LatitudeDegrees>43.05517877452075481414794921875</LatitudeDegrees>
              <LongitudeDegrees>-1.90632708370685577392578125</LongitudeDegrees>
            </Position>
            <AltitudeMeters>623.79998779296875</AltitudeMeters>
            <DistanceMeters>NAN</DistanceMeters>
          </Trackpoint>
          <Trackpoint>
            <Time>2021-08-14T08:34:12.000Z</Time>
            <Position>
              <LatitudeDegrees>43.05517659522593021392822265625</LatitudeDegrees>
              <LongitudeDegrees>-1.9063299335539340972900390625</LongitudeDegrees>
            </Position>
            <AltitudeMeters>623.79998779296875</AltitudeMeters>
            <DistanceMeters>NAN</DistanceMeters>
          </Trackpoint>
          <Trackpoint>
            <Time>2021-08-14T08:34:30.000Z</Time>
            <Position>
              <LatitudeDegrees>43.05517877452075481414794921875</LatitudeDegrees>
              <LongitudeDegrees>-1.9063299335539340972900390625</LongitudeDegrees>
            </Position>
            <AltitudeMeters>623.79998779296875</AltitudeMeters>
            <DistanceMeters>NAN</DistanceMeters>
          </Trackpoint>
          <Trackpoint>
            <Time>2021-08-14T08:34:44.000Z</Time>
            <Position>
              <LatitudeDegrees>43.05517558939754962921142578125</LatitudeDegrees>
              <LongitudeDegrees>-1.9063312746584415435791015625</LongitudeDegrees>
            </Position>
            <AltitudeMeters>623.79998779296875</AltitudeMeters>
            <DistanceMeters>NAN</DistanceMeters>
          </Trackpoint>
          <Trackpoint>
            <Time>2021-08-14T08:35:05.000Z</Time>
            <Position>
              <LatitudeDegrees>43.05517374537885189056396484375</LatitudeDegrees>
              <LongitudeDegrees>-1.9063317775726318359375</LongitudeDegrees>
            </Position>
            <AltitudeMeters>623.5999755859375</AltitudeMeters>
            <DistanceMeters>NAN</DistanceMeters>
          </Trackpoint>
          <Trackpoint>
            <Time>2021-08-14T08:35:07.000Z</Time>
            <Position>
              <LatitudeDegrees>43.0551750026643276214599609375</LatitudeDegrees>
              <LongitudeDegrees>-1.9063306041061878204345703125</LongitudeDegrees>
            </Position>
            <AltitudeMeters>623.5999755859375</AltitudeMeters>
            <DistanceMeters>NAN</DistanceMeters>
          </Trackpoint>
          <Trackpoint>
            <Time>2021-08-14T08:35:08.000Z</Time>
            <Position>
              <LatitudeDegrees>43.0551750026643276214599609375</LatitudeDegrees>
              <LongitudeDegrees>-1.9063306041061878204345703125</LongitudeDegrees>
            </Position>
            <AltitudeMeters>623.79998779296875</AltitudeMeters>
            <DistanceMeters>NAN</DistanceMeters>
          </Trackpoint>
          <Trackpoint>
            <Time>2021-08-14T08:52:11.000Z</Time>
            <Position>
              <LatitudeDegrees>43.031410463154315948486328125</LatitudeDegrees>
              <LongitudeDegrees>-1.9051329977810382843017578125</LongitudeDegrees>
            </Position>
            <AltitudeMeters>647.5999755859375</AltitudeMeters>
            <DistanceMeters>NAN</DistanceMeters>
          </Trackpoint>
          <Trackpoint>
            <Time>2021-08-14T08:52:13.000Z</Time>
            <Position>
              <LatitudeDegrees>43.03136612288653850555419921875</LatitudeDegrees>
              <LongitudeDegrees>-1.90510977990925312042236328125</LongitudeDegrees>
            </Position>
            <AltitudeMeters>647.4000244140625</AltitudeMeters>
            <DistanceMeters>NAN</DistanceMeters>
          </Trackpoint>
          <Trackpoint>
            <Time>2021-08-14T08:52:14.000Z</Time>
            <Position>
              <LatitudeDegrees>43.03132270462810993194580078125</LatitudeDegrees>
              <LongitudeDegrees>-1.9050977937877178192138671875</LongitudeDegrees>
            </Position>
            <AltitudeMeters>647.4000244140625</AltitudeMeters>
            <DistanceMeters>NAN</DistanceMeters>
          </Trackpoint>
          <Trackpoint>
            <Time>2021-08-14T08:52:15.000Z</Time>
            <Position>
              <LatitudeDegrees>43.03131289780139923095703125</LatitudeDegrees>
              <LongitudeDegrees>-1.90509335137903690338134765625</LongitudeDegrees>
            </Position>
            <AltitudeMeters>647.4000244140625</AltitudeMeters>
            <DistanceMeters>NAN</DistanceMeters>
          </Trackpoint>
          <Trackpoint>
            <Time>2021-08-14T08:52:16.000Z</Time>
            <Position>
              <LatitudeDegrees>43.031303174793720245361328125</LatitudeDegrees>
              <LongitudeDegrees>-1.90508916042745113372802734375</LongitudeDegrees>
            </Position>
            <AltitudeMeters>647.4000244140625</AltitudeMeters>
            <DistanceMeters>NAN</DistanceMeters>
          </Trackpoint>
          <Trackpoint>
            <Time>2021-08-14T08:52:17.000Z</Time>
            <Position>
              <LatitudeDegrees>43.0312926135957241058349609375</LatitudeDegrees>
              <LongitudeDegrees>-1.90508228726685047149658203125</LongitudeDegrees>
            </Position>
            <AltitudeMeters>647.4000244140625</AltitudeMeters>
            <DistanceMeters>NAN</DistanceMeters>
          </Trackpoint>
          <Trackpoint>
            <Time>2021-08-14T08:52:18.000Z</Time>
            <Position>
              <LatitudeDegrees>43.03127828054130077362060546875</LatitudeDegrees>
              <LongitudeDegrees>-1.905068457126617431640625</LongitudeDegrees>
            </Position>
            <AltitudeMeters>647.4000244140625</AltitudeMeters>
            <DistanceMeters>NAN</DistanceMeters>
          </Trackpoint>
          <Trackpoint>
            <Time>2021-08-14T08:52:19.000Z</Time>
            <Position>
              <LatitudeDegrees>43.03127459250390529632568359375</LatitudeDegrees>
              <LongitudeDegrees>-1.9050582312047481536865234375</LongitudeDegrees>
            </Position>
            <AltitudeMeters>647.4000244140625</AltitudeMeters>
            <DistanceMeters>NAN</DistanceMeters>
          </Trackpoint>
          <Trackpoint>
            <Time>2021-08-14T08:52:20.000Z</Time>
            <Position>
              <LatitudeDegrees>43.0312688089907169342041015625</LatitudeDegrees>
              <LongitudeDegrees>-1.9050646014511585235595703125</LongitudeDegrees>
            </Position>
            <AltitudeMeters>647.4000244140625</AltitudeMeters>
            <DistanceMeters>NAN</DistanceMeters>
          </Trackpoint>
          <Trackpoint>
            <Time>2021-08-14T08:52:21.000Z</Time>
            <Position>
              <LatitudeDegrees>43.03126453422009944915771484375</LatitudeDegrees>
              <LongitudeDegrees>-1.90507407300174236297607421875</LongitudeDegrees>
            </Position>
            <AltitudeMeters>647.4000244140625</AltitudeMeters>
            <DistanceMeters>NAN</DistanceMeters>
          </Trackpoint>
          <Trackpoint>
            <Time>2021-08-14T08:52:22.000Z</Time>
            <Position>
              <LatitudeDegrees>43.03126704879105091094970703125</LatitudeDegrees>
              <LongitudeDegrees>-1.90507139079272747039794921875</LongitudeDegrees>
            </Position>
            <AltitudeMeters>647.5999755859375</AltitudeMeters>
            <DistanceMeters>NAN</DistanceMeters>
          </Trackpoint>
          <Trackpoint>
            <Time>2021-08-14T08:52:27.000Z</Time>
            <Position>
              <LatitudeDegrees>43.03129169158637523651123046875</LatitudeDegrees>
              <LongitudeDegrees>-1.90505747683346271514892578125</LongitudeDegrees>
            </Position>
            <AltitudeMeters>647.5999755859375</AltitudeMeters>
            <DistanceMeters>NAN</DistanceMeters>
          </Trackpoint>
          <Trackpoint>
            <Time>2021-08-14T08:52:29.000Z</Time>
            <Position>
              <LatitudeDegrees>43.031296469271183013916015625</LatitudeDegrees>
              <LongitudeDegrees>-1.90505378879606723785400390625</LongitudeDegrees>
            </Position>
            <AltitudeMeters>647.79998779296875</AltitudeMeters>
            <DistanceMeters>NAN</DistanceMeters>
          </Trackpoint>
          <Trackpoint>
            <Time>2021-08-14T08:52:43.000Z</Time>
            <Position>
              <LatitudeDegrees>43.03130485117435455322265625</LatitudeDegrees>
              <LongitudeDegrees>-1.90502830781042575836181640625</LongitudeDegrees>
            </Position>
            <AltitudeMeters>647.79998779296875</AltitudeMeters>
            <DistanceMeters>NAN</DistanceMeters>
          </Trackpoint>
          <Trackpoint>
            <Time>2021-08-14T08:53:11.000Z</Time>
            <Position>
              <LatitudeDegrees>43.0313053540885448455810546875</LatitudeDegrees>
              <LongitudeDegrees>-1.90502026118338108062744140625</LongitudeDegrees>
            </Position>
            <AltitudeMeters>647.79998779296875</AltitudeMeters>
            <DistanceMeters>NAN</DistanceMeters>
          </Trackpoint>
          <Trackpoint>
            <Time>2021-08-14T08:54:29.000Z</Time>
            <Position>
              <LatitudeDegrees>43.0312952958047389984130859375</LatitudeDegrees>
              <LongitudeDegrees>-1.90507189370691776275634765625</LongitudeDegrees>
            </Position>
            <AltitudeMeters>647.5999755859375</AltitudeMeters>
            <DistanceMeters>NAN</DistanceMeters>
          </Trackpoint>
          <Trackpoint>
            <Time>2021-08-14T08:54:37.000Z</Time>
            <Position>
              <LatitudeDegrees>43.0312805436551570892333984375</LatitudeDegrees>
              <LongitudeDegrees>-1.90508698113262653350830078125</LongitudeDegrees>
            </Position>
            <AltitudeMeters>647.5999755859375</AltitudeMeters>
            <DistanceMeters>NAN</DistanceMeters>
          </Trackpoint>
          <Trackpoint>
            <Time>2021-08-14T08:54:43.000Z</Time>
            <Position>
              <LatitudeDegrees>43.0312731675803661346435546875</LatitudeDegrees>
              <LongitudeDegrees>-1.90508916042745113372802734375</LongitudeDegrees>
            </Position>
            <AltitudeMeters>647.79998779296875</AltitudeMeters>
            <DistanceMeters>NAN</DistanceMeters>
          </Trackpoint>
          <Trackpoint>
            <Time>2021-08-14T09:01:52.000Z</Time>
            <Position>
              <LatitudeDegrees>43.03121231496334075927734375</LatitudeDegrees>
              <LongitudeDegrees>-1.90514246933162212371826171875</LongitudeDegrees>
            </Position>
            <AltitudeMeters>647.79998779296875</AltitudeMeters>
            <DistanceMeters>NAN</DistanceMeters>
          </Trackpoint>
          <Trackpoint>
            <Time>2021-08-14T09:01:59.000Z</Time>
            <Position>
              <LatitudeDegrees>43.0312111414968967437744140625</LatitudeDegrees>
              <LongitudeDegrees>-1.905147917568683624267578125</LongitudeDegrees>
            </Position>
            <AltitudeMeters>647.5999755859375</AltitudeMeters>
            <DistanceMeters>NAN</DistanceMeters>
          </Trackpoint>
          <Trackpoint>
            <Time>2021-08-14T09:02:00.000Z</Time>
            <Position>
              <LatitudeDegrees>43.03120619617402553558349609375</LatitudeDegrees>
              <LongitudeDegrees>-1.90516627393662929534912109375</LongitudeDegrees>
            </Position>
            <AltitudeMeters>647.5999755859375</AltitudeMeters>
            <DistanceMeters>NAN</DistanceMeters>
          </Trackpoint>
          <Trackpoint>
            <Time>2021-08-14T09:02:01.000Z</Time>
            <Position>
              <LatitudeDegrees>43.0311994068324565887451171875</LatitudeDegrees>
              <LongitudeDegrees>-1.9051879830658435821533203125</LongitudeDegrees>
            </Position>
            <AltitudeMeters>647.5999755859375</AltitudeMeters>
            <DistanceMeters>NAN</DistanceMeters>
          </Trackpoint>
          <Trackpoint>
            <Time>2021-08-14T09:02:02.000Z</Time>
            <Position>
              <LatitudeDegrees>43.031189180910587310791015625</LatitudeDegrees>
              <LongitudeDegrees>-1.9052101112902164459228515625</LongitudeDegrees>
            </Position>
            <AltitudeMeters>647.5999755859375</AltitudeMeters>
            <DistanceMeters>NAN</DistanceMeters>
          </Trackpoint>
          <Trackpoint>
            <Time>2021-08-14T09:02:03.000Z</Time>
            <Position>
              <LatitudeDegrees>43.03117753006517887115478515625</LatitudeDegrees>
              <LongitudeDegrees>-1.905228383839130401611328125</LongitudeDegrees>
            </Position>
            <AltitudeMeters>647.79998779296875</AltitudeMeters>
            <DistanceMeters>NAN</DistanceMeters>
          </Trackpoint>
          <Trackpoint>
            <Time>2021-08-14T09:02:04.000Z</Time>
            <Position>
              <LatitudeDegrees>43.031167052686214447021484375</LatitudeDegrees>
              <LongitudeDegrees>-1.90523768775165081024169921875</LongitudeDegrees>
            </Position>
            <AltitudeMeters>647.79998779296875</AltitudeMeters>
            <DistanceMeters>NAN</DistanceMeters>
          </Trackpoint>
          <Trackpoint>
            <Time>2021-08-14T09:02:05.000Z</Time>
            <Position>
              <LatitudeDegrees>43.03115473128855228424072265625</LatitudeDegrees>
              <LongitudeDegrees>-1.9052422977983951568603515625</LongitudeDegrees>
            </Position>
            <AltitudeMeters>647.79998779296875</AltitudeMeters>
            <DistanceMeters>NAN</DistanceMeters>
          </Trackpoint>
          <Trackpoint>
            <Time>2021-08-14T09:02:06.000Z</Time>
            <Position>
              <LatitudeDegrees>43.0311514623463153839111328125</LatitudeDegrees>
              <LongitudeDegrees>-1.905249841511249542236328125</LongitudeDegrees>
            </Position>
            <AltitudeMeters>647.79998779296875</AltitudeMeters>
            <DistanceMeters>NAN</DistanceMeters>
          </Trackpoint>
          <Trackpoint>
            <Time>2021-08-14T09:02:07.000Z</Time>
            <Position>
              <LatitudeDegrees>43.03114903159439563751220703125</LatitudeDegrees>
              <LongitudeDegrees>-1.90526367165148258209228515625</LongitudeDegrees>
            </Position>
            <AltitudeMeters>647.79998779296875</AltitudeMeters>
            <DistanceMeters>NAN</DistanceMeters>
          </Trackpoint>
          <Trackpoint>
            <Time>2021-08-14T09:02:08.000Z</Time>
            <Position>
              <LatitudeDegrees>43.031143248081207275390625</LatitudeDegrees>
              <LongitudeDegrees>-1.90527875907719135284423828125</LongitudeDegrees>
            </Position>
            <AltitudeMeters>647.79998779296875</AltitudeMeters>
            <DistanceMeters>NAN</DistanceMeters>
          </Trackpoint>
          <Trackpoint>
            <Time>2021-08-14T09:02:09.000Z</Time>
            <Position>
              <LatitudeDegrees>43.03114031441509723663330078125</LatitudeDegrees>
              <LongitudeDegrees>-1.90529133193194866180419921875</LongitudeDegrees>
            </Position>
            <AltitudeMeters>647.79998779296875</AltitudeMeters>
            <DistanceMeters>NAN</DistanceMeters>
          </Trackpoint>
          <Trackpoint>
            <Time>2021-08-14T09:02:10.000Z</Time>
            <Position>
              <LatitudeDegrees>43.03113528527319431304931640625</LatitudeDegrees>
              <LongitudeDegrees>-1.905306167900562286376953125</LongitudeDegrees>
            </Position>
            <AltitudeMeters>647.79998779296875</AltitudeMeters>
            <DistanceMeters>NAN</DistanceMeters>
          </Trackpoint>
          <Trackpoint>
            <Time>2021-08-14T09:02:11.000Z</Time>
            <Position>
              <LatitudeDegrees>43.0311300046741962432861328125</LatitudeDegrees>
              <LongitudeDegrees>-1.90532066859304904937744140625</LongitudeDegrees>
            </Position>
            <AltitudeMeters>647.79998779296875</AltitudeMeters>
            <DistanceMeters>NAN</DistanceMeters>
          </Trackpoint>
          <Trackpoint>
            <Time>2021-08-14T09:02:12.000Z</Time>
            <Position>
              <LatitudeDegrees>43.03111516870558261871337890625</LatitudeDegrees>
              <LongitudeDegrees>-1.9053371809422969818115234375</LongitudeDegrees>
            </Position>
            <AltitudeMeters>647.79998779296875</AltitudeMeters>
            <DistanceMeters>NAN</DistanceMeters>
          </Trackpoint>
          <Trackpoint>
            <Time>2021-08-14T09:02:13.000Z</Time>
            <Position>
              <LatitudeDegrees>43.031099326908588409423828125</LatitudeDegrees>
              <LongitudeDegrees>-1.90533827058970928192138671875</LongitudeDegrees>
            </Position>
            <AltitudeMeters>647.79998779296875</AltitudeMeters>
            <DistanceMeters>NAN</DistanceMeters>
          </Trackpoint>
          <Trackpoint>
            <Time>2021-08-14T09:02:14.000Z</Time>
            <Position>
              <LatitudeDegrees>43.03108491003513336181640625</LatitudeDegrees>
              <LongitudeDegrees>-1.905337683856487274169921875</LongitudeDegrees>
            </Position>
            <AltitudeMeters>647.79998779296875</AltitudeMeters>
            <DistanceMeters>NAN</DistanceMeters>
          </Trackpoint>
          <Trackpoint>
            <Time>2021-08-14T09:02:15.000Z</Time>
            <Position>
              <LatitudeDegrees>43.03107292391359806060791015625</LatitudeDegrees>
              <LongitudeDegrees>-1.9053365103900432586669921875</LongitudeDegrees>
            </Position>
            <AltitudeMeters>647.79998779296875</AltitudeMeters>
            <DistanceMeters>NAN</DistanceMeters>
          </Trackpoint>
          <Trackpoint>
            <Time>2021-08-14T09:02:16.000Z</Time>
            <Position>
              <LatitudeDegrees>43.03105984814465045928955078125</LatitudeDegrees>
              <LongitudeDegrees>-1.9053355045616626739501953125</LongitudeDegrees>
            </Position>
            <AltitudeMeters>647.5999755859375</AltitudeMeters>
            <DistanceMeters>NAN</DistanceMeters>
          </Trackpoint>
          <Trackpoint>
            <Time>2021-08-14T09:02:17.000Z</Time>
            <Position>
              <LatitudeDegrees>43.031047023832798004150390625</LatitudeDegrees>
              <LongitudeDegrees>-1.90533692948520183563232421875</LongitudeDegrees>
            </Position>
            <AltitudeMeters>647.5999755859375</AltitudeMeters>
            <DistanceMeters>NAN</DistanceMeters>
          </Trackpoint>
          <Trackpoint>
            <Time>2021-08-14T09:02:18.000Z</Time>
            <Position>
              <LatitudeDegrees>43.03103704936802387237548828125</LatitudeDegrees>
              <LongitudeDegrees>-1.90533776767551898956298828125</LongitudeDegrees>
            </Position>
            <AltitudeMeters>647.4000244140625</AltitudeMeters>
            <DistanceMeters>NAN</DistanceMeters>
          </Trackpoint>
          <Trackpoint>
            <Time>2021-08-14T09:02:20.000Z</Time>
            <Position>
              <LatitudeDegrees>43.0310176871716976165771484375</LatitudeDegrees>
              <LongitudeDegrees>-1.9053314812481403350830078125</LongitudeDegrees>
            </Position>
            <AltitudeMeters>647.4000244140625</AltitudeMeters>
            <DistanceMeters>NAN</DistanceMeters>
          </Trackpoint>
          <Trackpoint>
            <Time>2021-08-14T09:02:21.000Z</Time>
            <Position>
              <LatitudeDegrees>43.0310052819550037384033203125</LatitudeDegrees>
              <LongitudeDegrees>-1.9053314812481403350830078125</LongitudeDegrees>
            </Position>
            <AltitudeMeters>647.4000244140625</AltitudeMeters>
            <DistanceMeters>NAN</DistanceMeters>
          </Trackpoint>
          <Trackpoint>
            <Time>2021-08-14T09:02:22.000Z</Time>
            <Position>
              <LatitudeDegrees>43.03099430166184902191162109375</LatitudeDegrees>
              <LongitudeDegrees>-1.90532972104847431182861328125</LongitudeDegrees>
            </Position>
            <AltitudeMeters>647.4000244140625</AltitudeMeters>
            <DistanceMeters>NAN</DistanceMeters>
          </Trackpoint>
          <Trackpoint>
            <Time>2021-08-14T09:02:23.000Z</Time>
            <Position>
              <LatitudeDegrees>43.0309828184545040130615234375</LatitudeDegrees>
              <LongitudeDegrees>-1.90532787702977657318115234375</LongitudeDegrees>
            </Position>
            <AltitudeMeters>647.4000244140625</AltitudeMeters>
            <DistanceMeters>NAN</DistanceMeters>
          </Trackpoint>
          <Trackpoint>
            <Time>2021-08-14T09:02:24.000Z</Time>
            <Position>
              <LatitudeDegrees>43.0309727601706981658935546875</LatitudeDegrees>
              <LongitudeDegrees>-1.905331648886203765869140625</LongitudeDegrees>
            </Position>
            <AltitudeMeters>647.4000244140625</AltitudeMeters>
            <DistanceMeters>NAN</DistanceMeters>
          </Trackpoint>
          <Trackpoint>
            <Time>2021-08-14T09:02:27.000Z</Time>
            <Position>
              <LatitudeDegrees>43.03096898831427097320556640625</LatitudeDegrees>
              <LongitudeDegrees>-1.90533332526683807373046875</LongitudeDegrees>
            </Position>
            <AltitudeMeters>647.4000244140625</AltitudeMeters>
            <DistanceMeters>NAN</DistanceMeters>
          </Trackpoint>
          <Trackpoint>
            <Time>2021-08-14T09:02:32.000Z</Time>
            <Position>
              <LatitudeDegrees>43.03090830333530902862548828125</LatitudeDegrees>
              <LongitudeDegrees>-1.90534128807485103607177734375</LongitudeDegrees>
            </Position>
            <AltitudeMeters>647.5999755859375</AltitudeMeters>
            <DistanceMeters>NAN</DistanceMeters>
          </Trackpoint>
          <Trackpoint>
            <Time>2021-08-14T09:02:38.000Z</Time>
            <Position>
              <LatitudeDegrees>43.03075474686920642852783203125</LatitudeDegrees>
              <LongitudeDegrees>-1.90540851093828678131103515625</LongitudeDegrees>
            </Position>
            <AltitudeMeters>647.79998779296875</AltitudeMeters>
            <DistanceMeters>NAN</DistanceMeters>
          </Trackpoint>
          <Trackpoint>
            <Time>2021-08-14T09:02:40.000Z</Time>
            <Position>
              <LatitudeDegrees>43.030692636966705322265625</LatitudeDegrees>
              <LongitudeDegrees>-1.90544455312192440032958984375</LongitudeDegrees>
            </Position>
            <AltitudeMeters>647.79998779296875</AltitudeMeters>
            <DistanceMeters>NAN</DistanceMeters>
          </Trackpoint>
          <Trackpoint>
            <Time>2021-08-14T09:02:45.000Z</Time>
            <Position>
              <LatitudeDegrees>43.03052508272230625152587890625</LatitudeDegrees>
              <LongitudeDegrees>-1.9055604748427867889404296875</LongitudeDegrees>
            </Position>
            <AltitudeMeters>647.5999755859375</AltitudeMeters>
            <DistanceMeters>NAN</DistanceMeters>
          </Trackpoint>
          <Trackpoint>
            <Time>2021-08-14T09:02:54.000Z</Time>
            <Position>
              <LatitudeDegrees>43.03021511994302272796630859375</LatitudeDegrees>
              <LongitudeDegrees>-1.90580070018768310546875</LongitudeDegrees>
            </Position>
            <AltitudeMeters>647.5999755859375</AltitudeMeters>
            <DistanceMeters>NAN</DistanceMeters>
          </Trackpoint>
          <Trackpoint>
            <Time>2021-08-14T09:02:57.000Z</Time>
            <Position>
              <LatitudeDegrees>43.03011839278042316436767578125</LatitudeDegrees>
              <LongitudeDegrees>-1.90586968325078487396240234375</LongitudeDegrees>
            </Position>
            <AltitudeMeters>647.5999755859375</AltitudeMeters>
            <DistanceMeters>NAN</DistanceMeters>
          </Trackpoint>
          <Trackpoint>
            <Time>2021-08-14T09:02:58.000Z</Time>
            <Position>
              <LatitudeDegrees>43.03008587099611759185791015625</LatitudeDegrees>
              <LongitudeDegrees>-1.90589130856096744537353515625</LongitudeDegrees>
            </Position>
            <AltitudeMeters>647.5999755859375</AltitudeMeters>
            <DistanceMeters>NAN</DistanceMeters>
          </Trackpoint>
          <Trackpoint>
            <Time>2021-08-14T09:02:59.000Z</Time>
            <Position>
              <LatitudeDegrees>43.0300544388592243194580078125</LatitudeDegrees>
              <LongitudeDegrees>-1.90591259859502315521240234375</LongitudeDegrees>
            </Position>
            <AltitudeMeters>647.5999755859375</AltitudeMeters>
            <DistanceMeters>NAN</DistanceMeters>
          </Trackpoint>
          <Trackpoint>
            <Time>2021-08-14T09:03:00.000Z</Time>
            <Position>
              <LatitudeDegrees>43.0300219170749187469482421875</LatitudeDegrees>
              <LongitudeDegrees>-1.90593422390520572662353515625</LongitudeDegrees>
            </Position>
            <AltitudeMeters>647.5999755859375</AltitudeMeters>
            <DistanceMeters>NAN</DistanceMeters>
          </Trackpoint>
          <Trackpoint>
            <Time>2021-08-14T09:03:01.000Z</Time>
            <Position>
              <LatitudeDegrees>43.02998788654804229736328125</LatitudeDegrees>
              <LongitudeDegrees>-1.90595786087214946746826171875</LongitudeDegrees>
            </Position>
            <AltitudeMeters>647.5999755859375</AltitudeMeters>
            <DistanceMeters>NAN</DistanceMeters>
          </Trackpoint>
          <Trackpoint>
            <Time>2021-08-14T09:03:02.000Z</Time>
            <Position>
              <LatitudeDegrees>43.02995662204921245574951171875</LatitudeDegrees>
              <LongitudeDegrees>-1.90598367713391780853271484375</LongitudeDegrees>
            </Position>
            <AltitudeMeters>647.5999755859375</AltitudeMeters>
            <DistanceMeters>NAN</DistanceMeters>
          </Trackpoint>
          <Trackpoint>
            <Time>2021-08-14T09:03:03.000Z</Time>
            <Position>
              <LatitudeDegrees>43.029925860464572906494140625</LatitudeDegrees>
              <LongitudeDegrees>-1.90600798465311527252197265625</LongitudeDegrees>
            </Position>
            <AltitudeMeters>647.5999755859375</AltitudeMeters>
            <DistanceMeters>NAN</DistanceMeters>
          </Trackpoint>
          <Trackpoint>
            <Time>2021-08-14T09:03:04.000Z</Time>
            <Position>
              <LatitudeDegrees>43.0298955179750919342041015625</LatitudeDegrees>
              <LongitudeDegrees>-1.90603363327682018280029296875</LongitudeDegrees>
            </Position>
            <AltitudeMeters>647.4000244140625</AltitudeMeters>
            <DistanceMeters>NAN</DistanceMeters>
          </Trackpoint>
          <Trackpoint>
            <Time>2021-08-14T09:03:05.000Z</Time>
            <Position>
              <LatitudeDegrees>43.02986660040915012359619140625</LatitudeDegrees>
              <LongitudeDegrees>-1.90605844371020793914794921875</LongitudeDegrees>
            </Position>
            <AltitudeMeters>647.4000244140625</AltitudeMeters>
            <DistanceMeters>NAN</DistanceMeters>
          </Trackpoint>
          <Trackpoint>
            <Time>2021-08-14T09:03:06.000Z</Time>
            <Position>
              <LatitudeDegrees>43.0298324860632419586181640625</LatitudeDegrees>
              <LongitudeDegrees>-1.90608241595327854156494140625</LongitudeDegrees>
            </Position>
            <AltitudeMeters>647.4000244140625</AltitudeMeters>
            <DistanceMeters>NAN</DistanceMeters>
          </Trackpoint>
          <Trackpoint>
            <Time>2021-08-14T09:03:10.000Z</Time>
            <Position>
              <LatitudeDegrees>43.02969108335673809051513671875</LatitudeDegrees>
              <LongitudeDegrees>-1.90620101988315582275390625</LongitudeDegrees>
            </Position>
            <AltitudeMeters>647.4000244140625</AltitudeMeters>
            <DistanceMeters>NAN</DistanceMeters>
          </Trackpoint>
          <Trackpoint>
            <Time>2021-08-14T09:03:13.000Z</Time>
            <Position>
              <LatitudeDegrees>43.02956569008529186248779296875</LatitudeDegrees>
              <LongitudeDegrees>-1.9062886945903301239013671875</LongitudeDegrees>
            </Position>
            <AltitudeMeters>647.20001220703125</AltitudeMeters>
            <DistanceMeters>NAN</DistanceMeters>
          </Trackpoint>
          <Trackpoint>
            <Time>2021-08-14T09:03:15.000Z</Time>
            <Position>
              <LatitudeDegrees>43.02947818301618099212646484375</LatitudeDegrees>
              <LongitudeDegrees>-1.9063500501215457916259765625</LongitudeDegrees>
            </Position>
            <AltitudeMeters>647</AltitudeMeters>
            <DistanceMeters>NAN</DistanceMeters>
          </Trackpoint>
          <Trackpoint>
            <Time>2021-08-14T09:03:16.000Z</Time>
            <Position>
              <LatitudeDegrees>43.0294314958155155181884765625</LatitudeDegrees>
              <LongitudeDegrees>-1.90637678839266300201416015625</LongitudeDegrees>
            </Position>
            <AltitudeMeters>647</AltitudeMeters>
            <DistanceMeters>NAN</DistanceMeters>
          </Trackpoint>
          <Trackpoint>
            <Time>2021-08-14T09:03:18.000Z</Time>
            <Position>
              <LatitudeDegrees>43.02933921106159687042236328125</LatitudeDegrees>
              <LongitudeDegrees>-1.906417943537235260009765625</LongitudeDegrees>
            </Position>
            <AltitudeMeters>647</AltitudeMeters>
            <DistanceMeters>NAN</DistanceMeters>
          </Trackpoint>
          <Trackpoint>
            <Time>2021-08-14T09:03:21.000Z</Time>
            <Position>
              <LatitudeDegrees>43.02919588051736354827880859375</LatitudeDegrees>
              <LongitudeDegrees>-1.90643998794257640838623046875</LongitudeDegrees>
            </Position>
            <AltitudeMeters>647</AltitudeMeters>
            <DistanceMeters>NAN</DistanceMeters>
          </Trackpoint>
          <Trackpoint>
            <Time>2021-08-14T09:03:23.000Z</Time>
            <Position>
              <LatitudeDegrees>43.029101081192493438720703125</LatitudeDegrees>
              <LongitudeDegrees>-1.9064479507505893707275390625</LongitudeDegrees>
            </Position>
            <AltitudeMeters>646.79998779296875</AltitudeMeters>
            <DistanceMeters>NAN</DistanceMeters>
          </Trackpoint>
          <Trackpoint>
            <Time>2021-08-14T09:03:24.000Z</Time>
            <Position>
              <LatitudeDegrees>43.02905850112438201904296875</LatitudeDegrees>
              <LongitudeDegrees>-1.90645054914057254791259765625</LongitudeDegrees>
            </Position>
            <AltitudeMeters>646.79998779296875</AltitudeMeters>
            <DistanceMeters>NAN</DistanceMeters>
          </Trackpoint>
          <Trackpoint>
            <Time>2021-08-14T09:03:25.000Z</Time>
            <Position>
              <LatitudeDegrees>43.02901365794241428375244140625</LatitudeDegrees>
              <LongitudeDegrees>-1.906449459493160247802734375</LongitudeDegrees>
            </Position>
            <AltitudeMeters>646.79998779296875</AltitudeMeters>
            <DistanceMeters>NAN</DistanceMeters>
          </Trackpoint>
          <Trackpoint>
            <Time>2021-08-14T09:03:26.000Z</Time>
            <Position>
              <LatitudeDegrees>43.0289693176746368408203125</LatitudeDegrees>
              <LongitudeDegrees>-1.9064452685415744781494140625</LongitudeDegrees>
            </Position>
            <AltitudeMeters>646.79998779296875</AltitudeMeters>
            <DistanceMeters>NAN</DistanceMeters>
          </Trackpoint>
          <Trackpoint>
            <Time>2021-08-14T09:03:27.000Z</Time>
            <Position>
              <LatitudeDegrees>43.02892665378749370574951171875</LatitudeDegrees>
              <LongitudeDegrees>-1.9064362160861492156982421875</LongitudeDegrees>
            </Position>
            <AltitudeMeters>647</AltitudeMeters>
            <DistanceMeters>NAN</DistanceMeters>
          </Trackpoint>
          <Trackpoint>
            <Time>2021-08-14T09:03:29.000Z</Time>
            <Position>
              <LatitudeDegrees>43.0288467742502689361572265625</LatitudeDegrees>
              <LongitudeDegrees>-1.9064093939960002899169921875</LongitudeDegrees>
            </Position>
            <AltitudeMeters>646.79998779296875</AltitudeMeters>
            <DistanceMeters>NAN</DistanceMeters>
          </Trackpoint>
          <Trackpoint>
            <Time>2021-08-14T09:03:30.000Z</Time>
            <Position>
              <LatitudeDegrees>43.028807379305362701416015625</LatitudeDegrees>
              <LongitudeDegrees>-1.9063922949135303497314453125</LongitudeDegrees>
            </Position>
            <AltitudeMeters>646.79998779296875</AltitudeMeters>
            <DistanceMeters>NAN</DistanceMeters>
          </Trackpoint>
          <Trackpoint>
            <Time>2021-08-14T09:03:31.000Z</Time>
            <Position>
              <LatitudeDegrees>43.0287693254649639129638671875</LatitudeDegrees>
              <LongitudeDegrees>-1.9063718430697917938232421875</LongitudeDegrees>
            </Position>
            <AltitudeMeters>646.79998779296875</AltitudeMeters>
            <DistanceMeters>NAN</DistanceMeters>
          </Trackpoint>
          <Trackpoint>
            <Time>2021-08-14T09:03:32.000Z</Time>
            <Position>
              <LatitudeDegrees>43.02873252891004085540771484375</LatitudeDegrees>
              <LongitudeDegrees>-1.906354241073131561279296875</LongitudeDegrees>
            </Position>
            <AltitudeMeters>646.79998779296875</AltitudeMeters>
            <DistanceMeters>NAN</DistanceMeters>
          </Trackpoint>
          <Trackpoint>
            <Time>2021-08-14T09:03:33.000Z</Time>
            <Position>
              <LatitudeDegrees>43.02869564853608608245849609375</LatitudeDegrees>
              <LongitudeDegrees>-1.90634393133223056793212890625</LongitudeDegrees>
            </Position>
            <AltitudeMeters>646.79998779296875</AltitudeMeters>
            <DistanceMeters>NAN</DistanceMeters>
          </Trackpoint>
          <Trackpoint>
            <Time>2021-08-14T09:03:34.000Z</Time>
            <Position>
              <LatitudeDegrees>43.028661198914051055908203125</LatitudeDegrees>
              <LongitudeDegrees>-1.90634141676127910614013671875</LongitudeDegrees>
            </Position>
            <AltitudeMeters>646.79998779296875</AltitudeMeters>
            <DistanceMeters>NAN</DistanceMeters>
          </Trackpoint>
          <Trackpoint>
            <Time>2021-08-14T09:03:35.000Z</Time>
            <Position>
              <LatitudeDegrees>43.02863228134810924530029296875</LatitudeDegrees>
              <LongitudeDegrees>-1.90633856691420078277587890625</LongitudeDegrees>
            </Position>
            <AltitudeMeters>647</AltitudeMeters>
            <DistanceMeters>NAN</DistanceMeters>
          </Trackpoint>
          <Trackpoint>
            <Time>2021-08-14T09:03:36.000Z</Time>
            <Position>
              <LatitudeDegrees>43.02860654890537261962890625</LatitudeDegrees>
              <LongitudeDegrees>-1.9063292630016803741455078125</LongitudeDegrees>
            </Position>
            <AltitudeMeters>646.79998779296875</AltitudeMeters>
            <DistanceMeters>NAN</DistanceMeters>
          </Trackpoint>
          <Trackpoint>
            <Time>2021-08-14T09:03:37.000Z</Time>
            <Position>
              <LatitudeDegrees>43.028584755957126617431640625</LatitudeDegrees>
              <LongitudeDegrees>-1.9063171930611133575439453125</LongitudeDegrees>
            </Position>
            <AltitudeMeters>647</AltitudeMeters>
            <DistanceMeters>NAN</DistanceMeters>
          </Trackpoint>
          <Trackpoint>
            <Time>2021-08-14T09:03:38.000Z</Time>
            <Position>
              <LatitudeDegrees>43.02856472320854663848876953125</LatitudeDegrees>
              <LongitudeDegrees>-1.90630537457764148712158203125</LongitudeDegrees>
            </Position>
            <AltitudeMeters>647</AltitudeMeters>
            <DistanceMeters>NAN</DistanceMeters>
          </Trackpoint>
          <Trackpoint>
            <Time>2021-08-14T09:03:39.000Z</Time>
            <Position>
              <LatitudeDegrees>43.0285507254302501678466796875</LatitudeDegrees>
              <LongitudeDegrees>-1.90629263408482074737548828125</LongitudeDegrees>
            </Position>
            <AltitudeMeters>646.79998779296875</AltitudeMeters>
            <DistanceMeters>NAN</DistanceMeters>
          </Trackpoint>
          <Trackpoint>
            <Time>2021-08-14T09:03:40.000Z</Time>
            <Position>
              <LatitudeDegrees>43.0285379849374294281005859375</LatitudeDegrees>
              <LongitudeDegrees>-1.9062809832394123077392578125</LongitudeDegrees>
            </Position>
            <AltitudeMeters>646.79998779296875</AltitudeMeters>
            <DistanceMeters>NAN</DistanceMeters>
          </Trackpoint>
          <Trackpoint>
            <Time>2021-08-14T09:03:41.000Z</Time>
            <Position>
              <LatitudeDegrees>43.02852951921522617340087890625</LatitudeDegrees>
              <LongitudeDegrees>-1.90627939067780971527099609375</LongitudeDegrees>
            </Position>
            <AltitudeMeters>646.79998779296875</AltitudeMeters>
            <DistanceMeters>NAN</DistanceMeters>
          </Trackpoint>
          <Trackpoint>
            <Time>2021-08-14T09:03:42.000Z</Time>
            <Position>
              <LatitudeDegrees>43.02851912565529346466064453125</LatitudeDegrees>
              <LongitudeDegrees>-1.90627788193523883819580078125</LongitudeDegrees>
            </Position>
            <AltitudeMeters>646.79998779296875</AltitudeMeters>
            <DistanceMeters>NAN</DistanceMeters>
          </Trackpoint>
          <Trackpoint>
            <Time>2021-08-14T09:03:43.000Z</Time>
            <Position>
              <LatitudeDegrees>43.028508983552455902099609375</LatitudeDegrees>
              <LongitudeDegrees>-1.9062766246497631072998046875</LongitudeDegrees>
            </Position>
            <AltitudeMeters>646.79998779296875</AltitudeMeters>
            <DistanceMeters>NAN</DistanceMeters>
          </Trackpoint>
          <Trackpoint>
            <Time>2021-08-14T09:03:44.000Z</Time>
            <Position>
              <LatitudeDegrees>43.02849448285996913909912109375</LatitudeDegrees>
              <LongitudeDegrees>-1.9062779657542705535888671875</LongitudeDegrees>
            </Position>
            <AltitudeMeters>646.79998779296875</AltitudeMeters>
            <DistanceMeters>NAN</DistanceMeters>
          </Trackpoint>
          <Trackpoint>
            <Time>2021-08-14T09:03:45.000Z</Time>
            <Position>
              <LatitudeDegrees>43.028482832014560699462890625</LatitudeDegrees>
              <LongitudeDegrees>-1.90627603791654109954833984375</LongitudeDegrees>
            </Position>
            <AltitudeMeters>646.79998779296875</AltitudeMeters>
            <DistanceMeters>NAN</DistanceMeters>
          </Trackpoint>
          <Trackpoint>
            <Time>2021-08-14T09:03:46.000Z</Time>
            <Position>
              <LatitudeDegrees>43.028470762073993682861328125</LatitudeDegrees>
              <LongitudeDegrees>-1.90627503208816051483154296875</LongitudeDegrees>
            </Position>
            <AltitudeMeters>646.79998779296875</AltitudeMeters>
            <DistanceMeters>NAN</DistanceMeters>
          </Trackpoint>
          <Trackpoint>
            <Time>2021-08-14T09:03:47.000Z</Time>
            <Position>
              <LatitudeDegrees>43.02845911122858524322509765625</LatitudeDegrees>
              <LongitudeDegrees>-1.9062772952020168304443359375</LongitudeDegrees>
            </Position>
            <AltitudeMeters>646.79998779296875</AltitudeMeters>
            <DistanceMeters>NAN</DistanceMeters>
          </Trackpoint>
          <Trackpoint>
            <Time>2021-08-14T09:03:48.000Z</Time>
            <Position>
              <LatitudeDegrees>43.02844922058284282684326171875</LatitudeDegrees>
              <LongitudeDegrees>-1.90627771429717540740966796875</LongitudeDegrees>
            </Position>
            <AltitudeMeters>646.79998779296875</AltitudeMeters>
            <DistanceMeters>NAN</DistanceMeters>
          </Trackpoint>
          <Trackpoint>
            <Time>2021-08-14T09:03:49.000Z</Time>
            <Position>
              <LatitudeDegrees>43.02843765355646610260009765625</LatitudeDegrees>
              <LongitudeDegrees>-1.90627737902104854583740234375</LongitudeDegrees>
            </Position>
            <AltitudeMeters>646.79998779296875</AltitudeMeters>
            <DistanceMeters>NAN</DistanceMeters>
          </Trackpoint>
          <Trackpoint>
            <Time>2021-08-14T09:03:50.000Z</Time>
            <Position>
              <LatitudeDegrees>43.0284223146736621856689453125</LatitudeDegrees>
              <LongitudeDegrees>-1.9062772952020168304443359375</LongitudeDegrees>
            </Position>
            <AltitudeMeters>647</AltitudeMeters>
            <DistanceMeters>NAN</DistanceMeters>
          </Trackpoint>
          <Trackpoint>
            <Time>2021-08-14T09:03:53.000Z</Time>
            <Position>
              <LatitudeDegrees>43.02839289419353008270263671875</LatitudeDegrees>
              <LongitudeDegrees>-1.90629011951386928558349609375</LongitudeDegrees>
            </Position>
            <AltitudeMeters>647</AltitudeMeters>
            <DistanceMeters>NAN</DistanceMeters>
          </Trackpoint>
          <Trackpoint>
            <Time>2021-08-14T09:03:55.000Z</Time>
            <Position>
              <LatitudeDegrees>43.02839289419353008270263671875</LatitudeDegrees>
              <LongitudeDegrees>-1.90629011951386928558349609375</LongitudeDegrees>
            </Position>
            <AltitudeMeters>647</AltitudeMeters>
            <DistanceMeters>NAN</DistanceMeters>
          </Trackpoint>
          <Trackpoint>
            <Time>2021-08-14T09:04:06.000Z</Time>
            <Position>
              <LatitudeDegrees>43.02839289419353008270263671875</LatitudeDegrees>
              <LongitudeDegrees>-1.90629011951386928558349609375</LongitudeDegrees>
            </Position>
            <AltitudeMeters>647</AltitudeMeters>
            <DistanceMeters>NAN</DistanceMeters>
          </Trackpoint>
          <Trackpoint>
            <Time>2021-08-14T09:04:23.000Z</Time>
            <Position>
              <LatitudeDegrees>43.028339333832263946533203125</LatitudeDegrees>
              <LongitudeDegrees>-1.906305961310863494873046875</LongitudeDegrees>
            </Position>
            <AltitudeMeters>647</AltitudeMeters>
            <DistanceMeters>NAN</DistanceMeters>
          </Trackpoint>
          <Trackpoint>
            <Time>2021-08-14T09:04:27.000Z</Time>
            <Position>
              <LatitudeDegrees>43.0282110907137393951416015625</LatitudeDegrees>
              <LongitudeDegrees>-1.90633621998131275177001953125</LongitudeDegrees>
            </Position>
            <AltitudeMeters>647</AltitudeMeters>
            <DistanceMeters>NAN</DistanceMeters>
          </Trackpoint>
          <Trackpoint>
            <Time>2021-08-14T09:04:28.000Z</Time>
            <Position>
              <LatitudeDegrees>43.02818485535681247711181640625</LatitudeDegrees>
              <LongitudeDegrees>-1.9063473679125308990478515625</LongitudeDegrees>
            </Position>
            <AltitudeMeters>647</AltitudeMeters>
            <DistanceMeters>NAN</DistanceMeters>
          </Trackpoint>
          <Trackpoint>
            <Time>2021-08-14T09:04:29.000Z</Time>
            <Position>
              <LatitudeDegrees>43.02816272713243961334228515625</LatitudeDegrees>
              <LongitudeDegrees>-1.9063577614724636077880859375</LongitudeDegrees>
            </Position>
            <AltitudeMeters>647</AltitudeMeters>
            <DistanceMeters>NAN</DistanceMeters>
          </Trackpoint>
          <Trackpoint>
            <Time>2021-08-14T09:04:32.000Z</Time>
            <Position>
              <LatitudeDegrees>43.0280793271958827972412109375</LatitudeDegrees>
              <LongitudeDegrees>-1.9063738547265529632568359375</LongitudeDegrees>
            </Position>
            <AltitudeMeters>647</AltitudeMeters>
            <DistanceMeters>NAN</DistanceMeters>
          </Trackpoint>
          <Trackpoint>
            <Time>2021-08-14T09:04:34.000Z</Time>
            <Position>
              <LatitudeDegrees>43.028019480407238006591796875</LatitudeDegrees>
              <LongitudeDegrees>-1.9063787162303924560546875</LongitudeDegrees>
            </Position>
            <AltitudeMeters>647</AltitudeMeters>
            <DistanceMeters>NAN</DistanceMeters>
          </Trackpoint>
          <Trackpoint>
            <Time>2021-08-14T09:04:41.000Z</Time>
            <Position>
              <LatitudeDegrees>43.02781856618821620941162109375</LatitudeDegrees>
              <LongitudeDegrees>-1.90643043257296085357666015625</LongitudeDegrees>
            </Position>
            <AltitudeMeters>646.5999755859375</AltitudeMeters>
            <DistanceMeters>NAN</DistanceMeters>
          </Trackpoint>
          <Trackpoint>
            <Time>2021-08-14T09:04:43.000Z</Time>
            <Position>
              <LatitudeDegrees>43.0277661792933940887451171875</LatitudeDegrees>
              <LongitudeDegrees>-1.90644283778965473175048828125</LongitudeDegrees>
            </Position>
            <AltitudeMeters>646.5999755859375</AltitudeMeters>
            <DistanceMeters>NAN</DistanceMeters>
          </Trackpoint>
          <Trackpoint>
            <Time>2021-08-14T09:04:44.000Z</Time>
            <Position>
              <LatitudeDegrees>43.02774061448872089385986328125</LatitudeDegrees>
              <LongitudeDegrees>-1.9064506329596042633056640625</LongitudeDegrees>
            </Position>
            <AltitudeMeters>646.5999755859375</AltitudeMeters>
            <DistanceMeters>NAN</DistanceMeters>
          </Trackpoint>
          <Trackpoint>
            <Time>2021-08-14T09:04:46.000Z</Time>
            <Position>
              <LatitudeDegrees>43.0276880599558353424072265625</LatitudeDegrees>
              <LongitudeDegrees>-1.906490027904510498046875</LongitudeDegrees>
            </Position>
            <AltitudeMeters>646.5999755859375</AltitudeMeters>
            <DistanceMeters>NAN</DistanceMeters>
          </Trackpoint>
          <Trackpoint>
            <Time>2021-08-14T09:04:47.000Z</Time>
            <Position>
              <LatitudeDegrees>43.027660734951496124267578125</LatitudeDegrees>
              <LongitudeDegrees>-1.90650503151118755340576171875</LongitudeDegrees>
            </Position>
            <AltitudeMeters>646.5999755859375</AltitudeMeters>
            <DistanceMeters>NAN</DistanceMeters>
          </Trackpoint>
          <Trackpoint>
            <Time>2021-08-14T09:04:48.000Z</Time>
            <Position>
              <LatitudeDegrees>43.0276344157755374908447265625</LatitudeDegrees>
              <LongitudeDegrees>-1.9065196998417377471923828125</LongitudeDegrees>
            </Position>
            <AltitudeMeters>646.5999755859375</AltitudeMeters>
            <DistanceMeters>NAN</DistanceMeters>
          </Trackpoint>
          <Trackpoint>
            <Time>2021-08-14T09:04:57.000Z</Time>
            <Position>
              <LatitudeDegrees>43.0274109542369842529296875</LatitudeDegrees>
              <LongitudeDegrees>-1.9067054428160190582275390625</LongitudeDegrees>
            </Position>
            <AltitudeMeters>646</AltitudeMeters>
            <DistanceMeters>NAN</DistanceMeters>
          </Trackpoint>
          <Trackpoint>
            <Time>2021-08-14T09:05:05.000Z</Time>
            <Position>
              <LatitudeDegrees>43.02723325788974761962890625</LatitudeDegrees>
              <LongitudeDegrees>-1.90689898096024990081787109375</LongitudeDegrees>
            </Position>
            <AltitudeMeters>645.5999755859375</AltitudeMeters>
            <DistanceMeters>NAN</DistanceMeters>
          </Trackpoint>
          <Trackpoint>
            <Time>2021-08-14T09:05:06.000Z</Time>
            <Position>
              <LatitudeDegrees>43.0272153206169605255126953125</LatitudeDegrees>
              <LongitudeDegrees>-1.90691859461367130279541015625</LongitudeDegrees>
            </Position>
            <AltitudeMeters>645.5999755859375</AltitudeMeters>
            <DistanceMeters>NAN</DistanceMeters>
          </Trackpoint>
          <Trackpoint>
            <Time>2021-08-14T09:05:07.000Z</Time>
            <Position>
              <LatitudeDegrees>43.02719838917255401611328125</LatitudeDegrees>
              <LongitudeDegrees>-1.906941644847393035888671875</LongitudeDegrees>
            </Position>
            <AltitudeMeters>645.4000244140625</AltitudeMeters>
            <DistanceMeters>NAN</DistanceMeters>
          </Trackpoint>
          <Trackpoint>
            <Time>2021-08-14T09:05:08.000Z</Time>
            <Position>
              <LatitudeDegrees>43.02718137390911579132080078125</LatitudeDegrees>
              <LongitudeDegrees>-1.906965784728527069091796875</LongitudeDegrees>
            </Position>
            <AltitudeMeters>645.4000244140625</AltitudeMeters>
            <DistanceMeters>NAN</DistanceMeters>
          </Trackpoint>
          <Trackpoint>
            <Time>2021-08-14T09:05:09.000Z</Time>
            <Position>
              <LatitudeDegrees>43.02716393955051898956298828125</LatitudeDegrees>
              <LongitudeDegrees>-1.906993947923183441162109375</LongitudeDegrees>
            </Position>
            <AltitudeMeters>645.4000244140625</AltitudeMeters>
            <DistanceMeters>NAN</DistanceMeters>
          </Trackpoint>
          <Trackpoint>
            <Time>2021-08-14T09:05:10.000Z</Time>
            <Position>
              <LatitudeDegrees>43.0271469242870807647705078125</LatitudeDegrees>
              <LongitudeDegrees>-1.90702420659363269805908203125</LongitudeDegrees>
            </Position>
            <AltitudeMeters>645.4000244140625</AltitudeMeters>
            <DistanceMeters>NAN</DistanceMeters>
          </Trackpoint>
          <Trackpoint>
            <Time>2021-08-14T09:05:11.000Z</Time>
            <Position>
              <LatitudeDegrees>43.02712974138557910919189453125</LatitudeDegrees>
              <LongitudeDegrees>-1.90705262124538421630859375</LongitudeDegrees>
            </Position>
            <AltitudeMeters>645.4000244140625</AltitudeMeters>
            <DistanceMeters>NAN</DistanceMeters>
          </Trackpoint>
          <Trackpoint>
            <Time>2021-08-14T09:05:12.000Z</Time>
            <Position>
              <LatitudeDegrees>43.027113564312458038330078125</LatitudeDegrees>
              <LongitudeDegrees>-1.907077766954898834228515625</LongitudeDegrees>
            </Position>
            <AltitudeMeters>645.4000244140625</AltitudeMeters>
            <DistanceMeters>NAN</DistanceMeters>
          </Trackpoint>
          <Trackpoint>
            <Time>2021-08-14T09:05:13.000Z</Time>
            <Position>
              <LatitudeDegrees>43.02709772251546382904052734375</LatitudeDegrees>
              <LongitudeDegrees>-1.90710366703569889068603515625</LongitudeDegrees>
            </Position>
            <AltitudeMeters>645.4000244140625</AltitudeMeters>
            <DistanceMeters>NAN</DistanceMeters>
          </Trackpoint>
          <Trackpoint>
            <Time>2021-08-14T09:05:14.000Z</Time>
            <Position>
              <LatitudeDegrees>43.02708330564200878143310546875</LatitudeDegrees>
              <LongitudeDegrees>-1.9071295671164989471435546875</LongitudeDegrees>
            </Position>
            <AltitudeMeters>645.4000244140625</AltitudeMeters>
            <DistanceMeters>NAN</DistanceMeters>
          </Trackpoint>
          <Trackpoint>
            <Time>2021-08-14T09:05:15.000Z</Time>
            <Position>
              <LatitudeDegrees>43.02706771530210971832275390625</LatitudeDegrees>
              <LongitudeDegrees>-1.90715722739696502685546875</LongitudeDegrees>
            </Position>
            <AltitudeMeters>645.20001220703125</AltitudeMeters>
            <DistanceMeters>NAN</DistanceMeters>
          </Trackpoint>
          <Trackpoint>
            <Time>2021-08-14T09:05:20.000Z</Time>
            <Position>
              <LatitudeDegrees>43.02696092985570430755615234375</LatitudeDegrees>
              <LongitudeDegrees>-1.9073277153074741363525390625</LongitudeDegrees>
            </Position>
            <AltitudeMeters>645</AltitudeMeters>
            <DistanceMeters>NAN</DistanceMeters>
          </Trackpoint>
          <Trackpoint>
            <Time>2021-08-14T09:05:23.000Z</Time>
            <Position>
              <LatitudeDegrees>43.02688851021230220794677734375</LatitudeDegrees>
              <LongitudeDegrees>-1.90746375359594821929931640625</LongitudeDegrees>
            </Position>
            <AltitudeMeters>644.79998779296875</AltitudeMeters>
            <DistanceMeters>NAN</DistanceMeters>
          </Trackpoint>
          <Trackpoint>
            <Time>2021-08-14T09:05:26.000Z</Time>
            <Position>
              <LatitudeDegrees>43.0267962254583835601806640625</LatitudeDegrees>
              <LongitudeDegrees>-1.9076098501682281494140625</LongitudeDegrees>
            </Position>
            <AltitudeMeters>644.4000244140625</AltitudeMeters>
            <DistanceMeters>NAN</DistanceMeters>
          </Trackpoint>
          <Trackpoint>
            <Time>2021-08-14T09:05:29.000Z</Time>
            <Position>
              <LatitudeDegrees>43.0266859196126461029052734375</LatitudeDegrees>
              <LongitudeDegrees>-1.9077642448246479034423828125</LongitudeDegrees>
            </Position>
            <AltitudeMeters>643.79998779296875</AltitudeMeters>
            <DistanceMeters>NAN</DistanceMeters>
          </Trackpoint>
          <Trackpoint>
            <Time>2021-08-14T09:05:30.000Z</Time>
            <Position>
              <LatitudeDegrees>43.02664451301097869873046875</LatitudeDegrees>
              <LongitudeDegrees>-1.9078123569488525390625</LongitudeDegrees>
            </Position>
            <AltitudeMeters>643.79998779296875</AltitudeMeters>
            <DistanceMeters>NAN</DistanceMeters>
          </Trackpoint>
          <Trackpoint>
            <Time>2021-08-14T09:05:31.000Z</Time>
            <Position>
              <LatitudeDegrees>43.02660704590380191802978515625</LatitudeDegrees>
              <LongitudeDegrees>-1.90785585902631282806396484375</LongitudeDegrees>
            </Position>
            <AltitudeMeters>643.4000244140625</AltitudeMeters>
            <DistanceMeters>NAN</DistanceMeters>
          </Trackpoint>
          <Trackpoint>
            <Time>2021-08-14T09:05:36.000Z</Time>
            <Position>
              <LatitudeDegrees>43.0263932235538959503173828125</LatitudeDegrees>
              <LongitudeDegrees>-1.90804914571344852447509765625</LongitudeDegrees>
            </Position>
            <AltitudeMeters>642.79998779296875</AltitudeMeters>
            <DistanceMeters>NAN</DistanceMeters>
          </Trackpoint>
          <Trackpoint>
            <Time>2021-08-14T09:05:37.000Z</Time>
            <Position>
              <LatitudeDegrees>43.0263499729335308074951171875</LatitudeDegrees>
              <LongitudeDegrees>-1.90807311795651912689208984375</LongitudeDegrees>
            </Position>
            <AltitudeMeters>642.79998779296875</AltitudeMeters>
            <DistanceMeters>NAN</DistanceMeters>
          </Trackpoint>
          <Trackpoint>
            <Time>2021-08-14T09:05:38.000Z</Time>
            <Position>
              <LatitudeDegrees>43.02630814723670482635498046875</LatitudeDegrees>
              <LongitudeDegrees>-1.90809507854282855987548828125</LongitudeDegrees>
            </Position>
            <AltitudeMeters>642.79998779296875</AltitudeMeters>
            <DistanceMeters>NAN</DistanceMeters>
          </Trackpoint>
          <Trackpoint>
            <Time>2021-08-14T09:05:39.000Z</Time>
            <Position>
              <LatitudeDegrees>43.02626472897827625274658203125</LatitudeDegrees>
              <LongitudeDegrees>-1.90811452455818653106689453125</LongitudeDegrees>
            </Position>
            <AltitudeMeters>642.5999755859375</AltitudeMeters>
            <DistanceMeters>NAN</DistanceMeters>
          </Trackpoint>
          <Trackpoint>
            <Time>2021-08-14T09:05:41.000Z</Time>
            <Position>
              <LatitudeDegrees>43.0261689238250255584716796875</LatitudeDegrees>
              <LongitudeDegrees>-1.9081556797027587890625</LongitudeDegrees>
            </Position>
            <AltitudeMeters>642.4000244140625</AltitudeMeters>
            <DistanceMeters>NAN</DistanceMeters>
          </Trackpoint>
          <Trackpoint>
            <Time>2021-08-14T09:05:43.000Z</Time>
            <Position>
              <LatitudeDegrees>43.02607462741434574127197265625</LatitudeDegrees>
              <LongitudeDegrees>-1.90818828530609607696533203125</LongitudeDegrees>
            </Position>
            <AltitudeMeters>642</AltitudeMeters>
            <DistanceMeters>NAN</DistanceMeters>
          </Trackpoint>
          <Trackpoint>
            <Time>2021-08-14T09:05:44.000Z</Time>
            <Position>
              <LatitudeDegrees>43.02602936513721942901611328125</LatitudeDegrees>
              <LongitudeDegrees>-1.90819851122796535491943359375</LongitudeDegrees>
            </Position>
            <AltitudeMeters>642</AltitudeMeters>
            <DistanceMeters>NAN</DistanceMeters>
          </Trackpoint>
          <Trackpoint>
            <Time>2021-08-14T09:05:45.000Z</Time>
            <Position>
              <LatitudeDegrees>43.02599030546844005584716796875</LatitudeDegrees>
              <LongitudeDegrees>-1.90821175463497638702392578125</LongitudeDegrees>
            </Position>
            <AltitudeMeters>642</AltitudeMeters>
            <DistanceMeters>NAN</DistanceMeters>
          </Trackpoint>
          <Trackpoint>
            <Time>2021-08-14T09:05:46.000Z</Time>
            <Position>
              <LatitudeDegrees>43.0259560234844684600830078125</LatitudeDegrees>
              <LongitudeDegrees>-1.90822466276586055755615234375</LongitudeDegrees>
            </Position>
            <AltitudeMeters>641.79998779296875</AltitudeMeters>
            <DistanceMeters>NAN</DistanceMeters>
          </Trackpoint>
          <Trackpoint>
            <Time>2021-08-14T09:05:47.000Z</Time>
            <Position>
              <LatitudeDegrees>43.02592073567211627960205078125</LatitudeDegrees>
              <LongitudeDegrees>-1.90823405049741268157958984375</LongitudeDegrees>
            </Position>
            <AltitudeMeters>641.79998779296875</AltitudeMeters>
            <DistanceMeters>NAN</DistanceMeters>
          </Trackpoint>
          <Trackpoint>
            <Time>2021-08-14T09:05:48.000Z</Time>
            <Position>
              <LatitudeDegrees>43.025880753993988037109375</LatitudeDegrees>
              <LongitudeDegrees>-1.90825156867504119873046875</LongitudeDegrees>
            </Position>
            <AltitudeMeters>641.5999755859375</AltitudeMeters>
            <DistanceMeters>NAN</DistanceMeters>
          </Trackpoint>
          <Trackpoint>
            <Time>2021-08-14T09:05:49.000Z</Time>
            <Position>
              <LatitudeDegrees>43.02584077231585979461669921875</LatitudeDegrees>
              <LongitudeDegrees>-1.90825986675918102264404296875</LongitudeDegrees>
            </Position>
            <AltitudeMeters>641.5999755859375</AltitudeMeters>
            <DistanceMeters>NAN</DistanceMeters>
          </Trackpoint>
          <Trackpoint>
            <Time>2021-08-14T09:05:54.000Z</Time>
            <Position>
              <LatitudeDegrees>43.025613538920879364013671875</LatitudeDegrees>
              <LongitudeDegrees>-1.90833362750709056854248046875</LongitudeDegrees>
            </Position>
            <AltitudeMeters>641.4000244140625</AltitudeMeters>
            <DistanceMeters>NAN</DistanceMeters>
          </Trackpoint>
          <Trackpoint>
            <Time>2021-08-14T09:05:58.000Z</Time>
            <Position>
              <LatitudeDegrees>43.02542435936629772186279296875</LatitudeDegrees>
              <LongitudeDegrees>-1.90843664109706878662109375</LongitudeDegrees>
            </Position>
            <AltitudeMeters>641.4000244140625</AltitudeMeters>
            <DistanceMeters>NAN</DistanceMeters>
          </Trackpoint>
          <Trackpoint>
            <Time>2021-08-14T09:06:01.000Z</Time>
            <Position>
              <LatitudeDegrees>43.025278933346271514892578125</LatitudeDegrees>
              <LongitudeDegrees>-1.90852356143295764923095703125</LongitudeDegrees>
            </Position>
            <AltitudeMeters>641.20001220703125</AltitudeMeters>
            <DistanceMeters>NAN</DistanceMeters>
          </Trackpoint>
          <Trackpoint>
            <Time>2021-08-14T09:06:03.000Z</Time>
            <Position>
              <LatitudeDegrees>43.025172315537929534912109375</LatitudeDegrees>
              <LongitudeDegrees>-1.90856496803462505340576171875</LongitudeDegrees>
            </Position>
            <AltitudeMeters>640.4000244140625</AltitudeMeters>
            <DistanceMeters>NAN</DistanceMeters>
          </Trackpoint>
          <Trackpoint>
            <Time>2021-08-14T09:06:04.000Z</Time>
            <Position>
              <LatitudeDegrees>43.02512177266180515289306640625</LatitudeDegrees>
              <LongitudeDegrees>-1.908587180078029632568359375</LongitudeDegrees>
            </Position>
            <AltitudeMeters>640.20001220703125</AltitudeMeters>
            <DistanceMeters>NAN</DistanceMeters>
          </Trackpoint>
          <Trackpoint>
            <Time>2021-08-14T09:06:07.000Z</Time>
            <Position>
              <LatitudeDegrees>43.024974502623081207275390625</LatitudeDegrees>
              <LongitudeDegrees>-1.90866404213011264801025390625</LongitudeDegrees>
            </Position>
            <AltitudeMeters>639.79998779296875</AltitudeMeters>
            <DistanceMeters>NAN</DistanceMeters>
          </Trackpoint>
          <Trackpoint>
            <Time>2021-08-14T09:06:11.000Z</Time>
            <Position>
              <LatitudeDegrees>43.02475213073194026947021484375</LatitudeDegrees>
              <LongitudeDegrees>-1.90873310901224613189697265625</LongitudeDegrees>
            </Position>
            <AltitudeMeters>639.5999755859375</AltitudeMeters>
            <DistanceMeters>NAN</DistanceMeters>
          </Trackpoint>
          <Trackpoint>
            <Time>2021-08-14T09:06:12.000Z</Time>
            <Position>
              <LatitudeDegrees>43.024705946445465087890625</LatitudeDegrees>
              <LongitudeDegrees>-1.9087459333240985870361328125</LongitudeDegrees>
            </Position>
            <AltitudeMeters>639.5999755859375</AltitudeMeters>
            <DistanceMeters>NAN</DistanceMeters>
          </Trackpoint>
          <Trackpoint>
            <Time>2021-08-14T09:06:13.000Z</Time>
            <Position>
              <LatitudeDegrees>43.02465423010289669036865234375</LatitudeDegrees>
              <LongitudeDegrees>-1.9087566621601581573486328125</LongitudeDegrees>
            </Position>
            <AltitudeMeters>639.4000244140625</AltitudeMeters>
            <DistanceMeters>NAN</DistanceMeters>
          </Trackpoint>
          <Trackpoint>
            <Time>2021-08-14T09:06:14.000Z</Time>
            <Position>
              <LatitudeDegrees>43.0246026813983917236328125</LatitudeDegrees>
              <LongitudeDegrees>-1.9087680615484714508056640625</LongitudeDegrees>
            </Position>
            <AltitudeMeters>639.4000244140625</AltitudeMeters>
            <DistanceMeters>NAN</DistanceMeters>
          </Trackpoint>
          <Trackpoint>
            <Time>2021-08-14T09:06:16.000Z</Time>
            <Position>
              <LatitudeDegrees>43.0244928784668445587158203125</LatitudeDegrees>
              <LongitudeDegrees>-1.90879337489604949951171875</LongitudeDegrees>
            </Position>
            <AltitudeMeters>639.4000244140625</AltitudeMeters>
            <DistanceMeters>NAN</DistanceMeters>
          </Trackpoint>
          <Trackpoint>
            <Time>2021-08-14T09:06:17.000Z</Time>
            <Position>
              <LatitudeDegrees>43.02443361841142177581787109375</LatitudeDegrees>
              <LongitudeDegrees>-1.90880318172276020050048828125</LongitudeDegrees>
            </Position>
            <AltitudeMeters>639.4000244140625</AltitudeMeters>
            <DistanceMeters>NAN</DistanceMeters>
          </Trackpoint>
          <Trackpoint>
            <Time>2021-08-14T09:06:19.000Z</Time>
            <Position>
              <LatitudeDegrees>43.024318702518939971923828125</LatitudeDegrees>
              <LongitudeDegrees>-1.90879982896149158477783203125</LongitudeDegrees>
            </Position>
            <AltitudeMeters>639.5999755859375</AltitudeMeters>
            <DistanceMeters>NAN</DistanceMeters>
          </Trackpoint>
          <Trackpoint>
            <Time>2021-08-14T09:06:20.000Z</Time>
            <Position>
              <LatitudeDegrees>43.02426413632929325103759765625</LatitudeDegrees>
              <LongitudeDegrees>-1.90879815258085727691650390625</LongitudeDegrees>
            </Position>
            <AltitudeMeters>639.4000244140625</AltitudeMeters>
            <DistanceMeters>NAN</DistanceMeters>
          </Trackpoint>
          <Trackpoint>
            <Time>2021-08-14T09:06:22.000Z</Time>
            <Position>
              <LatitudeDegrees>43.0241351388394832611083984375</LatitudeDegrees>
              <LongitudeDegrees>-1.90879295580089092254638671875</LongitudeDegrees>
            </Position>
            <AltitudeMeters>639.4000244140625</AltitudeMeters>
            <DistanceMeters>NAN</DistanceMeters>
          </Trackpoint>
          <Trackpoint>
            <Time>2021-08-14T09:06:24.000Z</Time>
            <Position>
              <LatitudeDegrees>43.0240167863667011260986328125</LatitudeDegrees>
              <LongitudeDegrees>-1.90877283923327922821044921875</LongitudeDegrees>
            </Position>
            <AltitudeMeters>639.20001220703125</AltitudeMeters>
            <DistanceMeters>NAN</DistanceMeters>
          </Trackpoint>
          <Trackpoint>
            <Time>2021-08-14T09:06:25.000Z</Time>
            <Position>
              <LatitudeDegrees>43.02396305836737155914306640625</LatitudeDegrees>
              <LongitudeDegrees>-1.90876563079655170440673828125</LongitudeDegrees>
            </Position>
            <AltitudeMeters>639.20001220703125</AltitudeMeters>
            <DistanceMeters>NAN</DistanceMeters>
          </Trackpoint>
          <Trackpoint>
            <Time>2021-08-14T09:06:26.000Z</Time>
            <Position>
              <LatitudeDegrees>43.02390639670193195343017578125</LatitudeDegrees>
              <LongitudeDegrees>-1.9087429158389568328857421875</LongitudeDegrees>
            </Position>
            <AltitudeMeters>639.20001220703125</AltitudeMeters>
            <DistanceMeters>NAN</DistanceMeters>
          </Trackpoint>
          <Trackpoint>
            <Time>2021-08-14T09:06:29.000Z</Time>
            <Position>
              <LatitudeDegrees>43.02373171783983707427978515625</LatitudeDegrees>
              <LongitudeDegrees>-1.9086728431284427642822265625</LongitudeDegrees>
            </Position>
            <AltitudeMeters>639</AltitudeMeters>
            <DistanceMeters>NAN</DistanceMeters>
          </Trackpoint>
          <Trackpoint>
            <Time>2021-08-14T09:06:32.000Z</Time>
            <Position>
              <LatitudeDegrees>43.02356265485286712646484375</LatitudeDegrees>
              <LongitudeDegrees>-1.9085487909615039825439453125</LongitudeDegrees>
            </Position>
            <AltitudeMeters>638.4000244140625</AltitudeMeters>
            <DistanceMeters>NAN</DistanceMeters>
          </Trackpoint>
          <Trackpoint>
            <Time>2021-08-14T09:06:34.000Z</Time>
            <Position>
              <LatitudeDegrees>43.02346550859510898590087890625</LatitudeDegrees>
              <LongitudeDegrees>-1.90845449455082416534423828125</LongitudeDegrees>
            </Position>
            <AltitudeMeters>638</AltitudeMeters>
            <DistanceMeters>NAN</DistanceMeters>
          </Trackpoint>
          <Trackpoint>
            <Time>2021-08-14T09:06:35.000Z</Time>
            <Position>
              <LatitudeDegrees>43.02342762239277362823486328125</LatitudeDegrees>
              <LongitudeDegrees>-1.9084042869508266448974609375</LongitudeDegrees>
            </Position>
            <AltitudeMeters>637.79998779296875</AltitudeMeters>
            <DistanceMeters>NAN</DistanceMeters>
          </Trackpoint>
          <Trackpoint>
            <Time>2021-08-14T09:06:36.000Z</Time>
            <Position>
              <LatitudeDegrees>43.0233935080468654632568359375</LatitudeDegrees>
              <LongitudeDegrees>-1.90836028195917606353759765625</LongitudeDegrees>
            </Position>
            <AltitudeMeters>637.5999755859375</AltitudeMeters>
            <DistanceMeters>NAN</DistanceMeters>
          </Trackpoint>
          <Trackpoint>
            <Time>2021-08-14T09:06:37.000Z</Time>
            <Position>
              <LatitudeDegrees>43.02336375229060649871826171875</LatitudeDegrees>
              <LongitudeDegrees>-1.9083144329488277435302734375</LongitudeDegrees>
            </Position>
            <AltitudeMeters>637.4000244140625</AltitudeMeters>
            <DistanceMeters>NAN</DistanceMeters>
          </Trackpoint>
          <Trackpoint>
            <Time>2021-08-14T09:06:38.000Z</Time>
            <Position>
              <LatitudeDegrees>43.02333273924887180328369140625</LatitudeDegrees>
              <LongitudeDegrees>-1.90827528946101665496826171875</LongitudeDegrees>
            </Position>
            <AltitudeMeters>637.4000244140625</AltitudeMeters>
            <DistanceMeters>NAN</DistanceMeters>
          </Trackpoint>
          <Trackpoint>
            <Time>2021-08-14T09:06:39.000Z</Time>
            <Position>
              <LatitudeDegrees>43.0233043245971202850341796875</LatitudeDegrees>
              <LongitudeDegrees>-1.90823220647871494293212890625</LongitudeDegrees>
            </Position>
            <AltitudeMeters>637.20001220703125</AltitudeMeters>
            <DistanceMeters>NAN</DistanceMeters>
          </Trackpoint>
          <Trackpoint>
            <Time>2021-08-14T09:06:41.000Z</Time>
            <Position>
              <LatitudeDegrees>43.02324615418910980224609375</LatitudeDegrees>
              <LongitudeDegrees>-1.9081364013254642486572265625</LongitudeDegrees>
            </Position>
            <AltitudeMeters>637</AltitudeMeters>
            <DistanceMeters>NAN</DistanceMeters>
          </Trackpoint>
          <Trackpoint>
            <Time>2021-08-14T09:06:44.000Z</Time>
            <Position>
              <LatitudeDegrees>43.02314649336040019989013671875</LatitudeDegrees>
              <LongitudeDegrees>-1.90799265168607234954833984375</LongitudeDegrees>
            </Position>
            <AltitudeMeters>637</AltitudeMeters>
            <DistanceMeters>NAN</DistanceMeters>
          </Trackpoint>
          <Trackpoint>
            <Time>2021-08-14T09:06:50.000Z</Time>
            <Position>
              <LatitudeDegrees>43.02294306457042694091796875</LatitudeDegrees>
              <LongitudeDegrees>-1.9076737202703952789306640625</LongitudeDegrees>
            </Position>
            <AltitudeMeters>635.79998779296875</AltitudeMeters>
            <DistanceMeters>NAN</DistanceMeters>
          </Trackpoint>
          <Trackpoint>
            <Time>2021-08-14T09:06:54.000Z</Time>
            <Position>
              <LatitudeDegrees>43.022836782038211822509765625</LatitudeDegrees>
              <LongitudeDegrees>-1.9074635021388530731201171875</LongitudeDegrees>
            </Position>
            <AltitudeMeters>635.20001220703125</AltitudeMeters>
            <DistanceMeters>NAN</DistanceMeters>
          </Trackpoint>
          <Trackpoint>
            <Time>2021-08-14T09:06:55.000Z</Time>
            <Position>
              <LatitudeDegrees>43.0228138156235218048095703125</LatitudeDegrees>
              <LongitudeDegrees>-1.90741061232984066009521484375</LongitudeDegrees>
            </Position>
            <AltitudeMeters>635.20001220703125</AltitudeMeters>
            <DistanceMeters>NAN</DistanceMeters>
          </Trackpoint>
          <Trackpoint>
            <Time>2021-08-14T09:06:56.000Z</Time>
            <Position>
              <LatitudeDegrees>43.02278481423854827880859375</LatitudeDegrees>
              <LongitudeDegrees>-1.907358057796955108642578125</LongitudeDegrees>
            </Position>
            <AltitudeMeters>635</AltitudeMeters>
            <DistanceMeters>NAN</DistanceMeters>
          </Trackpoint>
          <Trackpoint>
            <Time>2021-08-14T09:06:57.000Z</Time>
            <Position>
              <LatitudeDegrees>43.02275572903454303741455078125</LatitudeDegrees>
              <LongitudeDegrees>-1.90730717964470386505126953125</LongitudeDegrees>
            </Position>
            <AltitudeMeters>635</AltitudeMeters>
            <DistanceMeters>NAN</DistanceMeters>
          </Trackpoint>
          <Trackpoint>
            <Time>2021-08-14T09:06:58.000Z</Time>
            <Position>
              <LatitudeDegrees>43.02272572182118892669677734375</LatitudeDegrees>
              <LongitudeDegrees>-1.90725915133953094482421875</LongitudeDegrees>
            </Position>
            <AltitudeMeters>634.79998779296875</AltitudeMeters>
            <DistanceMeters>NAN</DistanceMeters>
          </Trackpoint>
          <Trackpoint>
            <Time>2021-08-14T09:06:59.000Z</Time>
            <Position>
              <LatitudeDegrees>43.0226957984268665313720703125</LatitudeDegrees>
              <LongitudeDegrees>-1.90721279941499233245849609375</LongitudeDegrees>
            </Position>
            <AltitudeMeters>634.79998779296875</AltitudeMeters>
            <DistanceMeters>NAN</DistanceMeters>
          </Trackpoint>
          <Trackpoint>
            <Time>2021-08-14T09:07:00.000Z</Time>
            <Position>
              <LatitudeDegrees>43.02266369573771953582763671875</LatitudeDegrees>
              <LongitudeDegrees>-1.90716795623302459716796875</LongitudeDegrees>
            </Position>
            <AltitudeMeters>634.5999755859375</AltitudeMeters>
            <DistanceMeters>NAN</DistanceMeters>
          </Trackpoint>
          <Trackpoint>
            <Time>2021-08-14T09:07:02.000Z</Time>
            <Position>
              <LatitudeDegrees>43.0225978977978229522705078125</LatitudeDegrees>
              <LongitudeDegrees>-1.9070896692574024200439453125</LongitudeDegrees>
            </Position>
            <AltitudeMeters>634.4000244140625</AltitudeMeters>
            <DistanceMeters>NAN</DistanceMeters>
          </Trackpoint>
          <Trackpoint>
            <Time>2021-08-14T09:07:04.000Z</Time>
            <Position>
              <LatitudeDegrees>43.02253746427595615386962890625</LatitudeDegrees>
              <LongitudeDegrees>-1.90702068619430065155029296875</LongitudeDegrees>
            </Position>
            <AltitudeMeters>634.20001220703125</AltitudeMeters>
            <DistanceMeters>NAN</DistanceMeters>
          </Trackpoint>
          <Trackpoint>
            <Time>2021-08-14T09:07:05.000Z</Time>
            <Position>
              <LatitudeDegrees>43.022510223090648651123046875</LatitudeDegrees>
              <LongitudeDegrees>-1.9069907627999782562255859375</LongitudeDegrees>
            </Position>
            <AltitudeMeters>634.20001220703125</AltitudeMeters>
            <DistanceMeters>NAN</DistanceMeters>
          </Trackpoint>
          <Trackpoint>
            <Time>2021-08-14T09:07:06.000Z</Time>
            <Position>
              <LatitudeDegrees>43.02248583175241947174072265625</LatitudeDegrees>
              <LongitudeDegrees>-1.90696201287209987640380859375</LongitudeDegrees>
            </Position>
            <AltitudeMeters>634</AltitudeMeters>
            <DistanceMeters>NAN</DistanceMeters>
          </Trackpoint>
          <Trackpoint>
            <Time>2021-08-14T09:07:07.000Z</Time>
            <Position>
              <LatitudeDegrees>43.02245783619582653045654296875</LatitudeDegrees>
              <LongitudeDegrees>-1.90693301148712635040283203125</LongitudeDegrees>
            </Position>
            <AltitudeMeters>634</AltitudeMeters>
            <DistanceMeters>NAN</DistanceMeters>
          </Trackpoint>
          <Trackpoint>
            <Time>2021-08-14T09:07:13.000Z</Time>
            <Position>
              <LatitudeDegrees>43.02226522006094455718994140625</LatitudeDegrees>
              <LongitudeDegrees>-1.90670217387378215789794921875</LongitudeDegrees>
            </Position>
            <AltitudeMeters>633.5999755859375</AltitudeMeters>
            <DistanceMeters>NAN</DistanceMeters>
          </Trackpoint>
          <Trackpoint>
            <Time>2021-08-14T09:07:14.000Z</Time>
            <Position>
              <LatitudeDegrees>43.02223102189600467681884765625</LatitudeDegrees>
              <LongitudeDegrees>-1.90665909089148044586181640625</LongitudeDegrees>
            </Position>
            <AltitudeMeters>633.5999755859375</AltitudeMeters>
            <DistanceMeters>NAN</DistanceMeters>
          </Trackpoint>
          <Trackpoint>
            <Time>2021-08-14T09:07:18.000Z</Time>
            <Position>
              <LatitudeDegrees>43.02209858782589435577392578125</LatitudeDegrees>
              <LongitudeDegrees>-1.90647552721202373504638671875</LongitudeDegrees>
            </Position>
            <AltitudeMeters>632.79998779296875</AltitudeMeters>
            <DistanceMeters>NAN</DistanceMeters>
          </Trackpoint>
          <Trackpoint>
            <Time>2021-08-14T09:07:22.000Z</Time>
            <Position>
              <LatitudeDegrees>43.0219762958586215972900390625</LatitudeDegrees>
              <LongitudeDegrees>-1.9062893651425838470458984375</LongitudeDegrees>
            </Position>
            <AltitudeMeters>632.20001220703125</AltitudeMeters>
            <DistanceMeters>NAN</DistanceMeters>
          </Trackpoint>
          <Trackpoint>
            <Time>2021-08-14T09:07:24.000Z</Time>
            <Position>
              <LatitudeDegrees>43.0219162814319133758544921875</LatitudeDegrees>
              <LongitudeDegrees>-1.9061981700360774993896484375</LongitudeDegrees>
            </Position>
            <AltitudeMeters>632.20001220703125</AltitudeMeters>
            <DistanceMeters>NAN</DistanceMeters>
          </Trackpoint>
          <Trackpoint>
            <Time>2021-08-14T09:07:25.000Z</Time>
            <Position>
              <LatitudeDegrees>43.02188686095178127288818359375</LatitudeDegrees>
              <LongitudeDegrees>-1.90615131519734859466552734375</LongitudeDegrees>
            </Position>
            <AltitudeMeters>632.20001220703125</AltitudeMeters>
            <DistanceMeters>NAN</DistanceMeters>
          </Trackpoint>
          <Trackpoint>
            <Time>2021-08-14T09:07:26.000Z</Time>
            <Position>
              <LatitudeDegrees>43.02185500971972942352294921875</LatitudeDegrees>
              <LongitudeDegrees>-1.9061049632728099822998046875</LongitudeDegrees>
            </Position>
            <AltitudeMeters>632</AltitudeMeters>
            <DistanceMeters>NAN</DistanceMeters>
          </Trackpoint>
          <Trackpoint>
            <Time>2021-08-14T09:07:29.000Z</Time>
            <Position>
              <LatitudeDegrees>43.0217771418392658233642578125</LatitudeDegrees>
              <LongitudeDegrees>-1.90597462467849254608154296875</LongitudeDegrees>
            </Position>
            <AltitudeMeters>631.5999755859375</AltitudeMeters>
            <DistanceMeters>NAN</DistanceMeters>
          </Trackpoint>
          <Trackpoint>
            <Time>2021-08-14T09:07:30.000Z</Time>
            <Position>
              <LatitudeDegrees>43.02175107412040233612060546875</LatitudeDegrees>
              <LongitudeDegrees>-1.90593539737164974212646484375</LongitudeDegrees>
            </Position>
            <AltitudeMeters>631.4000244140625</AltitudeMeters>
            <DistanceMeters>NAN</DistanceMeters>
          </Trackpoint>
          <Trackpoint>
            <Time>2021-08-14T09:07:31.000Z</Time>
            <Position>
              <LatitudeDegrees>43.02172391675412654876708984375</LatitudeDegrees>
              <LongitudeDegrees>-1.90589868463575839996337890625</LongitudeDegrees>
            </Position>
            <AltitudeMeters>631.20001220703125</AltitudeMeters>
            <DistanceMeters>NAN</DistanceMeters>
          </Trackpoint>
          <Trackpoint>
            <Time>2021-08-14T09:07:32.000Z</Time>
            <Position>
              <LatitudeDegrees>43.0216943286359310150146484375</LatitudeDegrees>
              <LongitudeDegrees>-1.90586448647081851959228515625</LongitudeDegrees>
            </Position>
            <AltitudeMeters>631.20001220703125</AltitudeMeters>
            <DistanceMeters>NAN</DistanceMeters>
          </Trackpoint>
          <Trackpoint>
            <Time>2021-08-14T09:07:33.000Z</Time>
            <Position>
              <LatitudeDegrees>43.021666668355464935302734375</LatitudeDegrees>
              <LongitudeDegrees>-1.90583146177232265472412109375</LongitudeDegrees>
            </Position>
            <AltitudeMeters>631.20001220703125</AltitudeMeters>
            <DistanceMeters>NAN</DistanceMeters>
          </Trackpoint>
          <Trackpoint>
            <Time>2021-08-14T09:07:34.000Z</Time>
            <Position>
              <LatitudeDegrees>43.02164093591272830963134765625</LatitudeDegrees>
              <LongitudeDegrees>-1.90580212511122226715087890625</LongitudeDegrees>
            </Position>
            <AltitudeMeters>631.20001220703125</AltitudeMeters>
            <DistanceMeters>NAN</DistanceMeters>
          </Trackpoint>
          <Trackpoint>
            <Time>2021-08-14T09:07:35.000Z</Time>
            <Position>
              <LatitudeDegrees>43.02161260508000850677490234375</LatitudeDegrees>
              <LongitudeDegrees>-1.90577480010688304901123046875</LongitudeDegrees>
            </Position>
            <AltitudeMeters>631</AltitudeMeters>
            <DistanceMeters>NAN</DistanceMeters>
          </Trackpoint>
          <Trackpoint>
            <Time>2021-08-14T09:07:36.000Z</Time>
            <Position>
              <LatitudeDegrees>43.021585531532764434814453125</LatitudeDegrees>
              <LongitudeDegrees>-1.9057475589215755462646484375</LongitudeDegrees>
            </Position>
            <AltitudeMeters>631</AltitudeMeters>
            <DistanceMeters>NAN</DistanceMeters>
          </Trackpoint>
          <Trackpoint>
            <Time>2021-08-14T09:07:37.000Z</Time>
            <Position>
              <LatitudeDegrees>43.0215610563755035400390625</LatitudeDegrees>
              <LongitudeDegrees>-1.90572283230721950531005859375</LongitudeDegrees>
            </Position>
            <AltitudeMeters>631</AltitudeMeters>
            <DistanceMeters>NAN</DistanceMeters>
          </Trackpoint>
          <Trackpoint>
            <Time>2021-08-14T09:07:38.000Z</Time>
            <Position>
              <LatitudeDegrees>43.02153649739921092987060546875</LatitudeDegrees>
              <LongitudeDegrees>-1.90569936297833919525146484375</LongitudeDegrees>
            </Position>
            <AltitudeMeters>630.79998779296875</AltitudeMeters>
            <DistanceMeters>NAN</DistanceMeters>
          </Trackpoint>
          <Trackpoint>
            <Time>2021-08-14T09:07:39.000Z</Time>
            <Position>
              <LatitudeDegrees>43.02150749601423740386962890625</LatitudeDegrees>
              <LongitudeDegrees>-1.90567522309720516204833984375</LongitudeDegrees>
            </Position>
            <AltitudeMeters>630.79998779296875</AltitudeMeters>
            <DistanceMeters>NAN</DistanceMeters>
          </Trackpoint>
          <Trackpoint>
            <Time>2021-08-14T09:07:40.000Z</Time>
            <Position>
              <LatitudeDegrees>43.02147966809570789337158203125</LatitudeDegrees>
              <LongitudeDegrees>-1.9056526757776737213134765625</LongitudeDegrees>
            </Position>
            <AltitudeMeters>630.5999755859375</AltitudeMeters>
            <DistanceMeters>NAN</DistanceMeters>
          </Trackpoint>
          <Trackpoint>
            <Time>2021-08-14T09:07:41.000Z</Time>
            <Position>
              <LatitudeDegrees>43.02145577967166900634765625</LatitudeDegrees>
              <LongitudeDegrees>-1.90563180483877658843994140625</LongitudeDegrees>
            </Position>
            <AltitudeMeters>630.5999755859375</AltitudeMeters>
            <DistanceMeters>NAN</DistanceMeters>
          </Trackpoint>
          <Trackpoint>
            <Time>2021-08-14T09:07:42.000Z</Time>
            <Position>
              <LatitudeDegrees>43.021428622305393218994140625</LatitudeDegrees>
              <LongitudeDegrees>-1.90561017952859401702880859375</LongitudeDegrees>
            </Position>
            <AltitudeMeters>630.5999755859375</AltitudeMeters>
            <DistanceMeters>NAN</DistanceMeters>
          </Trackpoint>
          <Trackpoint>
            <Time>2021-08-14T09:07:43.000Z</Time>
            <Position>
              <LatitudeDegrees>43.02140506915748119354248046875</LatitudeDegrees>
              <LongitudeDegrees>-1.90559006296098232269287109375</LongitudeDegrees>
            </Position>
            <AltitudeMeters>630.5999755859375</AltitudeMeters>
            <DistanceMeters>NAN</DistanceMeters>
          </Trackpoint>
          <Trackpoint>
            <Time>2021-08-14T09:07:44.000Z</Time>
            <Position>
              <LatitudeDegrees>43.02137791179120540618896484375</LatitudeDegrees>
              <LongitudeDegrees>-1.90557329915463924407958984375</LongitudeDegrees>
            </Position>
            <AltitudeMeters>630.4000244140625</AltitudeMeters>
            <DistanceMeters>NAN</DistanceMeters>
          </Trackpoint>
          <Trackpoint>
            <Time>2021-08-14T09:07:46.000Z</Time>
            <Position>
              <LatitudeDegrees>43.0213221721351146697998046875</LatitudeDegrees>
              <LongitudeDegrees>-1.9055343233048915863037109375</LongitudeDegrees>
            </Position>
            <AltitudeMeters>630.20001220703125</AltitudeMeters>
            <DistanceMeters>NAN</DistanceMeters>
          </Trackpoint>
          <Trackpoint>
            <Time>2021-08-14T09:07:47.000Z</Time>
            <Position>
              <LatitudeDegrees>43.02128973416984081268310546875</LatitudeDegrees>
              <LongitudeDegrees>-1.9055199064314365386962890625</LongitudeDegrees>
            </Position>
            <AltitudeMeters>630.20001220703125</AltitudeMeters>
            <DistanceMeters>NAN</DistanceMeters>
          </Trackpoint>
          <Trackpoint>
            <Time>2021-08-14T09:07:50.000Z</Time>
            <Position>
              <LatitudeDegrees>43.02117993123829364776611328125</LatitudeDegrees>
              <LongitudeDegrees>-1.90547003410756587982177734375</LongitudeDegrees>
            </Position>
            <AltitudeMeters>630</AltitudeMeters>
            <DistanceMeters>NAN</DistanceMeters>
          </Trackpoint>
          <Trackpoint>
            <Time>2021-08-14T09:07:56.000Z</Time>
            <Position>
              <LatitudeDegrees>43.020969294011592864990234375</LatitudeDegrees>
              <LongitudeDegrees>-1.9053951837122440338134765625</LongitudeDegrees>
            </Position>
            <AltitudeMeters>629.5999755859375</AltitudeMeters>
            <DistanceMeters>NAN</DistanceMeters>
          </Trackpoint>
          <Trackpoint>
            <Time>2021-08-14T09:08:00.000Z</Time>
            <Position>
              <LatitudeDegrees>43.020816408097743988037109375</LatitudeDegrees>
              <LongitudeDegrees>-1.9053244404494762420654296875</LongitudeDegrees>
            </Position>
            <AltitudeMeters>629.4000244140625</AltitudeMeters>
            <DistanceMeters>NAN</DistanceMeters>
          </Trackpoint>
          <Trackpoint>
            <Time>2021-08-14T09:08:01.000Z</Time>
            <Position>
              <LatitudeDegrees>43.0207823775708675384521484375</LatitudeDegrees>
              <LongitudeDegrees>-1.905304156243801116943359375</LongitudeDegrees>
            </Position>
            <AltitudeMeters>629.20001220703125</AltitudeMeters>
            <DistanceMeters>NAN</DistanceMeters>
          </Trackpoint>
          <Trackpoint>
            <Time>2021-08-14T09:08:02.000Z</Time>
            <Position>
              <LatitudeDegrees>43.020748682320117950439453125</LatitudeDegrees>
              <LongitudeDegrees>-1.90528647042810916900634765625</LongitudeDegrees>
            </Position>
            <AltitudeMeters>629.20001220703125</AltitudeMeters>
            <DistanceMeters>NAN</DistanceMeters>
          </Trackpoint>
          <Trackpoint>
            <Time>2021-08-14T09:08:06.000Z</Time>
            <Position>
              <LatitudeDegrees>43.0206076987087726593017578125</LatitudeDegrees>
              <LongitudeDegrees>-1.90524053759872913360595703125</LongitudeDegrees>
            </Position>
            <AltitudeMeters>628.79998779296875</AltitudeMeters>
            <DistanceMeters>NAN</DistanceMeters>
          </Trackpoint>
          <Trackpoint>
            <Time>2021-08-14T09:08:09.000Z</Time>
            <Position>
              <LatitudeDegrees>43.020505942404270172119140625</LatitudeDegrees>
              <LongitudeDegrees>-1.9052173197269439697265625</LongitudeDegrees>
            </Position>
            <AltitudeMeters>628.5999755859375</AltitudeMeters>
            <DistanceMeters>NAN</DistanceMeters>
          </Trackpoint>
          <Trackpoint>
            <Time>2021-08-14T09:08:10.000Z</Time>
            <Position>
              <LatitudeDegrees>43.020469732582569122314453125</LatitudeDegrees>
              <LongitudeDegrees>-1.90520918928086757659912109375</LongitudeDegrees>
            </Position>
            <AltitudeMeters>628.4000244140625</AltitudeMeters>
            <DistanceMeters>NAN</DistanceMeters>
          </Trackpoint>
          <Trackpoint>
            <Time>2021-08-14T09:08:11.000Z</Time>
            <Position>
              <LatitudeDegrees>43.0204363726079463958740234375</LatitudeDegrees>
              <LongitudeDegrees>-1.905205249786376953125</LongitudeDegrees>
            </Position>
            <AltitudeMeters>628.20001220703125</AltitudeMeters>
            <DistanceMeters>NAN</DistanceMeters>
          </Trackpoint>
          <Trackpoint>
            <Time>2021-08-14T09:08:12.000Z</Time>
            <Position>
              <LatitudeDegrees>43.02040326409041881561279296875</LatitudeDegrees>
              <LongitudeDegrees>-1.9051970355212688446044921875</LongitudeDegrees>
            </Position>
            <AltitudeMeters>628.20001220703125</AltitudeMeters>
            <DistanceMeters>NAN</DistanceMeters>
          </Trackpoint>
          <Trackpoint>
            <Time>2021-08-14T09:08:13.000Z</Time>
            <Position>
              <LatitudeDegrees>43.0203693173825740814208984375</LatitudeDegrees>
              <LongitudeDegrees>-1.9051886536180973052978515625</LongitudeDegrees>
            </Position>
            <AltitudeMeters>628.20001220703125</AltitudeMeters>
            <DistanceMeters>NAN</DistanceMeters>
          </Trackpoint>
          <Trackpoint>
            <Time>2021-08-14T09:08:16.000Z</Time>
            <Position>
              <LatitudeDegrees>43.02026219666004180908203125</LatitudeDegrees>
              <LongitudeDegrees>-1.90515386871993541717529296875</LongitudeDegrees>
            </Position>
            <AltitudeMeters>628</AltitudeMeters>
            <DistanceMeters>NAN</DistanceMeters>
          </Trackpoint>
          <Trackpoint>
            <Time>2021-08-14T09:08:17.000Z</Time>
            <Position>
              <LatitudeDegrees>43.020233698189258575439453125</LatitudeDegrees>
              <LongitudeDegrees>-1.90513995476067066192626953125</LongitudeDegrees>
            </Position>
            <AltitudeMeters>628</AltitudeMeters>
            <DistanceMeters>NAN</DistanceMeters>
          </Trackpoint>
          <Trackpoint>
            <Time>2021-08-14T09:08:19.000Z</Time>
            <Position>
              <LatitudeDegrees>43.0201778747141361236572265625</LatitudeDegrees>
              <LongitudeDegrees>-1.9051085226237773895263671875</LongitudeDegrees>
            </Position>
            <AltitudeMeters>627.79998779296875</AltitudeMeters>
            <DistanceMeters>NAN</DistanceMeters>
          </Trackpoint>
          <Trackpoint>
            <Time>2021-08-14T09:08:20.000Z</Time>
            <Position>
              <LatitudeDegrees>43.02014686167240142822265625</LatitudeDegrees>
              <LongitudeDegrees>-1.9050966203212738037109375</LongitudeDegrees>
            </Position>
            <AltitudeMeters>627.79998779296875</AltitudeMeters>
            <DistanceMeters>NAN</DistanceMeters>
          </Trackpoint>
          <Trackpoint>
            <Time>2021-08-14T09:08:21.000Z</Time>
            <Position>
              <LatitudeDegrees>43.02011475898325443267822265625</LatitudeDegrees>
              <LongitudeDegrees>-1.9050820358097553253173828125</LongitudeDegrees>
            </Position>
            <AltitudeMeters>627.5999755859375</AltitudeMeters>
            <DistanceMeters>NAN</DistanceMeters>
          </Trackpoint>
          <Trackpoint>
            <Time>2021-08-14T09:08:23.000Z</Time>
            <Position>
              <LatitudeDegrees>43.02005834877490997314453125</LatitudeDegrees>
              <LongitudeDegrees>-1.90503216348588466644287109375</LongitudeDegrees>
            </Position>
            <AltitudeMeters>627.5999755859375</AltitudeMeters>
            <DistanceMeters>NAN</DistanceMeters>
          </Trackpoint>
          <Trackpoint>
            <Time>2021-08-14T09:08:24.000Z</Time>
            <Position>
              <LatitudeDegrees>43.020033538341522216796875</LatitudeDegrees>
              <LongitudeDegrees>-1.9049958698451519012451171875</LongitudeDegrees>
            </Position>
            <AltitudeMeters>627.5999755859375</AltitudeMeters>
            <DistanceMeters>NAN</DistanceMeters>
          </Trackpoint>
          <Trackpoint>
            <Time>2021-08-14T09:08:25.000Z</Time>
            <Position>
              <LatitudeDegrees>43.02000629715621471405029296875</LatitudeDegrees>
              <LongitudeDegrees>-1.90495823509991168975830078125</LongitudeDegrees>
            </Position>
            <AltitudeMeters>627.5999755859375</AltitudeMeters>
            <DistanceMeters>NAN</DistanceMeters>
          </Trackpoint>
          <Trackpoint>
            <Time>2021-08-14T09:08:29.000Z</Time>
            <Position>
              <LatitudeDegrees>43.01991174928843975067138671875</LatitudeDegrees>
              <LongitudeDegrees>-1.90481943078339099884033203125</LongitudeDegrees>
            </Position>
            <AltitudeMeters>627.20001220703125</AltitudeMeters>
            <DistanceMeters>NAN</DistanceMeters>
          </Trackpoint>
          <Trackpoint>
            <Time>2021-08-14T09:08:37.000Z</Time>
            <Position>
              <LatitudeDegrees>43.01968543790280818939208984375</LatitudeDegrees>
              <LongitudeDegrees>-1.9045412354171276092529296875</LongitudeDegrees>
            </Position>
            <AltitudeMeters>626.5999755859375</AltitudeMeters>
            <DistanceMeters>NAN</DistanceMeters>
          </Trackpoint>
          <Trackpoint>
            <Time>2021-08-14T09:08:40.000Z</Time>
            <Position>
              <LatitudeDegrees>43.0196095816791057586669921875</LatitudeDegrees>
              <LongitudeDegrees>-1.90444509498775005340576171875</LongitudeDegrees>
            </Position>
            <AltitudeMeters>626.5999755859375</AltitudeMeters>
            <DistanceMeters>NAN</DistanceMeters>
          </Trackpoint>
          <Trackpoint>
            <Time>2021-08-14T09:08:41.000Z</Time>
            <Position>
              <LatitudeDegrees>43.019584603607654571533203125</LatitudeDegrees>
              <LongitudeDegrees>-1.9044148363173007965087890625</LongitudeDegrees>
            </Position>
            <AltitudeMeters>626.4000244140625</AltitudeMeters>
            <DistanceMeters>NAN</DistanceMeters>
          </Trackpoint>
          <Trackpoint>
            <Time>2021-08-14T09:08:42.000Z</Time>
            <Position>
              <LatitudeDegrees>43.0195576138794422149658203125</LatitudeDegrees>
              <LongitudeDegrees>-1.90438541583716869354248046875</LongitudeDegrees>
            </Position>
            <AltitudeMeters>626.4000244140625</AltitudeMeters>
            <DistanceMeters>NAN</DistanceMeters>
          </Trackpoint>
          <Trackpoint>
            <Time>2021-08-14T09:08:43.000Z</Time>
            <Position>
              <LatitudeDegrees>43.01952861249446868896484375</LatitudeDegrees>
              <LongitudeDegrees>-1.904355324804782867431640625</LongitudeDegrees>
            </Position>
            <AltitudeMeters>626.4000244140625</AltitudeMeters>
            <DistanceMeters>NAN</DistanceMeters>
          </Trackpoint>
          <Trackpoint>
            <Time>2021-08-14T09:08:44.000Z</Time>
            <Position>
              <LatitudeDegrees>43.01949910819530487060546875</LatitudeDegrees>
              <LongitudeDegrees>-1.9043254852294921875</LongitudeDegrees>
            </Position>
            <AltitudeMeters>626.20001220703125</AltitudeMeters>
            <DistanceMeters>NAN</DistanceMeters>
          </Trackpoint>
          <Trackpoint>
            <Time>2021-08-14T09:08:45.000Z</Time>
            <Position>
              <LatitudeDegrees>43.01946960389614105224609375</LatitudeDegrees>
              <LongitudeDegrees>-1.90429572947323322296142578125</LongitudeDegrees>
            </Position>
            <AltitudeMeters>626.20001220703125</AltitudeMeters>
            <DistanceMeters>NAN</DistanceMeters>
          </Trackpoint>
          <Trackpoint>
            <Time>2021-08-14T09:08:50.000Z</Time>
            <Position>
              <LatitudeDegrees>43.0193188972771167755126953125</LatitudeDegrees>
              <LongitudeDegrees>-1.90415407530963420867919921875</LongitudeDegrees>
            </Position>
            <AltitudeMeters>625.79998779296875</AltitudeMeters>
            <DistanceMeters>NAN</DistanceMeters>
          </Trackpoint>
          <Trackpoint>
            <Time>2021-08-14T09:08:52.000Z</Time>
            <Position>
              <LatitudeDegrees>43.01926583983004093170166015625</LatitudeDegrees>
              <LongitudeDegrees>-1.90409204922616481781005859375</LongitudeDegrees>
            </Position>
            <AltitudeMeters>625.79998779296875</AltitudeMeters>
            <DistanceMeters>NAN</DistanceMeters>
          </Trackpoint>
          <Trackpoint>
            <Time>2021-08-14T09:08:53.000Z</Time>
            <Position>
              <LatitudeDegrees>43.01924723200500011444091796875</LatitudeDegrees>
              <LongitudeDegrees>-1.90406455658376216888427734375</LongitudeDegrees>
            </Position>
            <AltitudeMeters>625.5999755859375</AltitudeMeters>
            <DistanceMeters>NAN</DistanceMeters>
          </Trackpoint>
          <Trackpoint>
            <Time>2021-08-14T09:08:54.000Z</Time>
            <Position>
              <LatitudeDegrees>43.01923398859798908233642578125</LatitudeDegrees>
              <LongitudeDegrees>-1.9040584377944469451904296875</LongitudeDegrees>
            </Position>
            <AltitudeMeters>625.5999755859375</AltitudeMeters>
            <DistanceMeters>NAN</DistanceMeters>
          </Trackpoint>
          <Trackpoint>
            <Time>2021-08-14T09:08:55.000Z</Time>
            <Position>
              <LatitudeDegrees>43.01921856589615345001220703125</LatitudeDegrees>
              <LongitudeDegrees>-1.9040532410144805908203125</LongitudeDegrees>
            </Position>
            <AltitudeMeters>625.5999755859375</AltitudeMeters>
            <DistanceMeters>NAN</DistanceMeters>
          </Trackpoint>
          <Trackpoint>
            <Time>2021-08-14T09:09:26.000Z</Time>
            <Position>
              <LatitudeDegrees>43.018696792423725128173828125</LatitudeDegrees>
              <LongitudeDegrees>-1.90282638184726238250732421875</LongitudeDegrees>
            </Position>
            <AltitudeMeters>623.5999755859375</AltitudeMeters>
            <DistanceMeters>NAN</DistanceMeters>
          </Trackpoint>
          <Trackpoint>
            <Time>2021-08-14T09:09:28.000Z</Time>
            <Position>
              <LatitudeDegrees>43.018635101616382598876953125</LatitudeDegrees>
              <LongitudeDegrees>-1.90275748260319232940673828125</LongitudeDegrees>
            </Position>
            <AltitudeMeters>623.20001220703125</AltitudeMeters>
            <DistanceMeters>NAN</DistanceMeters>
          </Trackpoint>
          <Trackpoint>
            <Time>2021-08-14T09:09:29.000Z</Time>
            <Position>
              <LatitudeDegrees>43.01860031671822071075439453125</LatitudeDegrees>
              <LongitudeDegrees>-1.90271683037281036376953125</LongitudeDegrees>
            </Position>
            <AltitudeMeters>623</AltitudeMeters>
            <DistanceMeters>NAN</DistanceMeters>
          </Trackpoint>
          <Trackpoint>
            <Time>2021-08-14T09:09:31.000Z</Time>
            <Position>
              <LatitudeDegrees>43.01856963895261287689208984375</LatitudeDegrees>
              <LongitudeDegrees>-1.90260996110737323760986328125</LongitudeDegrees>
            </Position>
            <AltitudeMeters>622.79998779296875</AltitudeMeters>
            <DistanceMeters>NAN</DistanceMeters>
          </Trackpoint>
          <Trackpoint>
            <Time>2021-08-14T09:09:32.000Z</Time>
            <Position>
              <LatitudeDegrees>43.0185859836637973785400390625</LatitudeDegrees>
              <LongitudeDegrees>-1.90255950205028057098388671875</LongitudeDegrees>
            </Position>
            <AltitudeMeters>622.79998779296875</AltitudeMeters>
            <DistanceMeters>NAN</DistanceMeters>
          </Trackpoint>
          <Trackpoint>
            <Time>2021-08-14T09:09:33.000Z</Time>
            <Position>
              <LatitudeDegrees>43.01860417239367961883544921875</LatitudeDegrees>
              <LongitudeDegrees>-1.9025020860135555267333984375</LongitudeDegrees>
            </Position>
            <AltitudeMeters>622.5999755859375</AltitudeMeters>
            <DistanceMeters>NAN</DistanceMeters>
          </Trackpoint>
          <Trackpoint>
            <Time>2021-08-14T09:09:35.000Z</Time>
            <Position>
              <LatitudeDegrees>43.018633760511875152587890625</LatitudeDegrees>
              <LongitudeDegrees>-1.90239739604294300079345703125</LongitudeDegrees>
            </Position>
            <AltitudeMeters>622.4000244140625</AltitudeMeters>
            <DistanceMeters>NAN</DistanceMeters>
          </Trackpoint>
          <Trackpoint>
            <Time>2021-08-14T09:09:36.000Z</Time>
            <Position>
              <LatitudeDegrees>43.01864675246179103851318359375</LatitudeDegrees>
              <LongitudeDegrees>-1.902342326939105987548828125</LongitudeDegrees>
            </Position>
            <AltitudeMeters>622.4000244140625</AltitudeMeters>
            <DistanceMeters>NAN</DistanceMeters>
          </Trackpoint>
          <Trackpoint>
            <Time>2021-08-14T09:09:39.000Z</Time>
            <Position>
              <LatitudeDegrees>43.0186964571475982666015625</LatitudeDegrees>
              <LongitudeDegrees>-1.90218709409236907958984375</LongitudeDegrees>
            </Position>
            <AltitudeMeters>622</AltitudeMeters>
            <DistanceMeters>NAN</DistanceMeters>
          </Trackpoint>
          <Trackpoint>
            <Time>2021-08-14T09:09:45.000Z</Time>
            <Position>
              <LatitudeDegrees>43.018835596740245819091796875</LatitudeDegrees>
              <LongitudeDegrees>-1.90190772525966167449951171875</LongitudeDegrees>
            </Position>
            <AltitudeMeters>621.20001220703125</AltitudeMeters>
            <DistanceMeters>NAN</DistanceMeters>
          </Trackpoint>
          <Trackpoint>
            <Time>2021-08-14T09:09:46.000Z</Time>
            <Position>
              <LatitudeDegrees>43.01885537803173065185546875</LatitudeDegrees>
              <LongitudeDegrees>-1.9018613733351230621337890625</LongitudeDegrees>
            </Position>
            <AltitudeMeters>621.20001220703125</AltitudeMeters>
            <DistanceMeters>NAN</DistanceMeters>
          </Trackpoint>
          <Trackpoint>
            <Time>2021-08-14T09:09:47.000Z</Time>
            <Position>
              <LatitudeDegrees>43.01887272857129573822021484375</LatitudeDegrees>
              <LongitudeDegrees>-1.9018157757818698883056640625</LongitudeDegrees>
            </Position>
            <AltitudeMeters>621.20001220703125</AltitudeMeters>
            <DistanceMeters>NAN</DistanceMeters>
          </Trackpoint>
          <Trackpoint>
            <Time>2021-08-14T09:09:48.000Z</Time>
            <Position>
              <LatitudeDegrees>43.0188897438347339630126953125</LatitudeDegrees>
              <LongitudeDegrees>-1.9017721898853778839111328125</LongitudeDegrees>
            </Position>
            <AltitudeMeters>621.20001220703125</AltitudeMeters>
            <DistanceMeters>NAN</DistanceMeters>
          </Trackpoint>
          <Trackpoint>
            <Time>2021-08-14T09:09:49.000Z</Time>
            <Position>
              <LatitudeDegrees>43.01890541799366474151611328125</LatitudeDegrees>
              <LongitudeDegrees>-1.90172952599823474884033203125</LongitudeDegrees>
            </Position>
            <AltitudeMeters>621</AltitudeMeters>
            <DistanceMeters>NAN</DistanceMeters>
          </Trackpoint>
          <Trackpoint>
            <Time>2021-08-14T09:09:50.000Z</Time>
            <Position>
              <LatitudeDegrees>43.0189242772758007049560546875</LatitudeDegrees>
              <LongitudeDegrees>-1.901685856282711029052734375</LongitudeDegrees>
            </Position>
            <AltitudeMeters>621</AltitudeMeters>
            <DistanceMeters>NAN</DistanceMeters>
          </Trackpoint>
          <Trackpoint>
            <Time>2021-08-14T09:09:51.000Z</Time>
            <Position>
              <LatitudeDegrees>43.01894078962504863739013671875</LatitudeDegrees>
              <LongitudeDegrees>-1.90164118073880672454833984375</LongitudeDegrees>
            </Position>
            <AltitudeMeters>621</AltitudeMeters>
            <DistanceMeters>NAN</DistanceMeters>
          </Trackpoint>
          <Trackpoint>
            <Time>2021-08-14T09:09:53.000Z</Time>
            <Position>
              <LatitudeDegrees>43.01897515542805194854736328125</LatitudeDegrees>
              <LongitudeDegrees>-1.9015515781939029693603515625</LongitudeDegrees>
            </Position>
            <AltitudeMeters>620.79998779296875</AltitudeMeters>
            <DistanceMeters>NAN</DistanceMeters>
          </Trackpoint>
          <Trackpoint>
            <Time>2021-08-14T09:09:57.000Z</Time>
            <Position>
              <LatitudeDegrees>43.01903986372053623199462890625</LatitudeDegrees>
              <LongitudeDegrees>-1.90138787962496280670166015625</LongitudeDegrees>
            </Position>
            <AltitudeMeters>620.4000244140625</AltitudeMeters>
            <DistanceMeters>NAN</DistanceMeters>
          </Trackpoint>
          <Trackpoint>
            <Time>2021-08-14T09:09:58.000Z</Time>
            <Position>
              <LatitudeDegrees>43.01905528642237186431884765625</LatitudeDegrees>
              <LongitudeDegrees>-1.90134898759424686431884765625</LongitudeDegrees>
            </Position>
            <AltitudeMeters>620.20001220703125</AltitudeMeters>
            <DistanceMeters>NAN</DistanceMeters>
          </Trackpoint>
          <Trackpoint>
            <Time>2021-08-14T09:09:59.000Z</Time>
            <Position>
              <LatitudeDegrees>43.0190692842006683349609375</LatitudeDegrees>
              <LongitudeDegrees>-1.90131026320159435272216796875</LongitudeDegrees>
            </Position>
            <AltitudeMeters>620</AltitudeMeters>
            <DistanceMeters>NAN</DistanceMeters>
          </Trackpoint>
          <Trackpoint>
            <Time>2021-08-14T09:10:00.000Z</Time>
            <Position>
              <LatitudeDegrees>43.0190838687121868133544921875</LatitudeDegrees>
              <LongitudeDegrees>-1.90127103589475154876708984375</LongitudeDegrees>
            </Position>
            <AltitudeMeters>620</AltitudeMeters>
            <DistanceMeters>NAN</DistanceMeters>
          </Trackpoint>
          <Trackpoint>
            <Time>2021-08-14T09:10:01.000Z</Time>
            <Position>
              <LatitudeDegrees>43.01909853704273700714111328125</LatitudeDegrees>
              <LongitudeDegrees>-1.9012307189404964447021484375</LongitudeDegrees>
            </Position>
            <AltitudeMeters>619.79998779296875</AltitudeMeters>
            <DistanceMeters>NAN</DistanceMeters>
          </Trackpoint>
          <Trackpoint>
            <Time>2021-08-14T09:10:02.000Z</Time>
            <Position>
              <LatitudeDegrees>43.01911395974457263946533203125</LatitudeDegrees>
              <LongitudeDegrees>-1.90118973143398761749267578125</LongitudeDegrees>
            </Position>
            <AltitudeMeters>619.79998779296875</AltitudeMeters>
            <DistanceMeters>NAN</DistanceMeters>
          </Trackpoint>
          <Trackpoint>
            <Time>2021-08-14T09:10:09.000Z</Time>
            <Position>
              <LatitudeDegrees>43.01922510378062725067138671875</LatitudeDegrees>
              <LongitudeDegrees>-1.90088194794952869415283203125</LongitudeDegrees>
            </Position>
            <AltitudeMeters>619.20001220703125</AltitudeMeters>
            <DistanceMeters>NAN</DistanceMeters>
          </Trackpoint>
          <Trackpoint>
            <Time>2021-08-14T09:10:10.000Z</Time>
            <Position>
              <LatitudeDegrees>43.0192414484918117523193359375</LatitudeDegrees>
              <LongitudeDegrees>-1.90083702094852924346923828125</LongitudeDegrees>
            </Position>
            <AltitudeMeters>619.20001220703125</AltitudeMeters>
            <DistanceMeters>NAN</DistanceMeters>
          </Trackpoint>
          <Trackpoint>
            <Time>2021-08-14T09:10:15.000Z</Time>
            <Position>
              <LatitudeDegrees>43.019303642213344573974609375</LatitudeDegrees>
              <LongitudeDegrees>-1.90061322413384914398193359375</LongitudeDegrees>
            </Position>
            <AltitudeMeters>619</AltitudeMeters>
            <DistanceMeters>NAN</DistanceMeters>
          </Trackpoint>
          <Trackpoint>
            <Time>2021-08-14T09:10:16.000Z</Time>
            <Position>
              <LatitudeDegrees>43.01931445486843585968017578125</LatitudeDegrees>
              <LongitudeDegrees>-1.90056745894253253936767578125</LongitudeDegrees>
            </Position>
            <AltitudeMeters>619</AltitudeMeters>
            <DistanceMeters>NAN</DistanceMeters>
          </Trackpoint>
          <Trackpoint>
            <Time>2021-08-14T09:10:17.000Z</Time>
            <Position>
              <LatitudeDegrees>43.01932484842836856842041015625</LatitudeDegrees>
              <LongitudeDegrees>-1.900520436465740203857421875</LongitudeDegrees>
            </Position>
            <AltitudeMeters>618.79998779296875</AltitudeMeters>
            <DistanceMeters>NAN</DistanceMeters>
          </Trackpoint>
          <Trackpoint>
            <Time>2021-08-14T09:10:25.000Z</Time>
            <Position>
              <LatitudeDegrees>43.01934177987277507781982421875</LatitudeDegrees>
              <LongitudeDegrees>-1.90012858249247074127197265625</LongitudeDegrees>
            </Position>
            <AltitudeMeters>618.5999755859375</AltitudeMeters>
            <DistanceMeters>NAN</DistanceMeters>
          </Trackpoint>
          <Trackpoint>
            <Time>2021-08-14T09:10:29.000Z</Time>
            <Position>
              <LatitudeDegrees>43.01931965164840221405029296875</LatitudeDegrees>
              <LongitudeDegrees>-1.8999375589191913604736328125</LongitudeDegrees>
            </Position>
            <AltitudeMeters>618</AltitudeMeters>
            <DistanceMeters>NAN</DistanceMeters>
          </Trackpoint>
          <Trackpoint>
            <Time>2021-08-14T09:10:33.000Z</Time>
            <Position>
              <LatitudeDegrees>43.019282855093479156494140625</LatitudeDegrees>
              <LongitudeDegrees>-1.89972440712153911590576171875</LongitudeDegrees>
            </Position>
            <AltitudeMeters>617.79998779296875</AltitudeMeters>
            <DistanceMeters>NAN</DistanceMeters>
          </Trackpoint>
          <Trackpoint>
            <Time>2021-08-14T09:10:41.000Z</Time>
            <Position>
              <LatitudeDegrees>43.0191515944898128509521484375</LatitudeDegrees>
              <LongitudeDegrees>-1.8993545137345790863037109375</LongitudeDegrees>
            </Position>
            <AltitudeMeters>617.20001220703125</AltitudeMeters>
            <DistanceMeters>NAN</DistanceMeters>
          </Trackpoint>
          <Trackpoint>
            <Time>2021-08-14T09:10:43.000Z</Time>
            <Position>
              <LatitudeDegrees>43.01911228336393833160400390625</LatitudeDegrees>
              <LongitudeDegrees>-1.8992837704718112945556640625</LongitudeDegrees>
            </Position>
            <AltitudeMeters>617.20001220703125</AltitudeMeters>
            <DistanceMeters>NAN</DistanceMeters>
          </Trackpoint>
          <Trackpoint>
            <Time>2021-08-14T09:10:44.000Z</Time>
            <Position>
              <LatitudeDegrees>43.0190972797572612762451171875</LatitudeDegrees>
              <LongitudeDegrees>-1.89926105551421642303466796875</LongitudeDegrees>
            </Position>
            <AltitudeMeters>617.20001220703125</AltitudeMeters>
            <DistanceMeters>NAN</DistanceMeters>
          </Trackpoint>
          <Trackpoint>
            <Time>2021-08-14T09:10:45.000Z</Time>
            <Position>
              <LatitudeDegrees>43.0190785042941570281982421875</LatitudeDegrees>
              <LongitudeDegrees>-1.89923322759568691253662109375</LongitudeDegrees>
            </Position>
            <AltitudeMeters>617.20001220703125</AltitudeMeters>
            <DistanceMeters>NAN</DistanceMeters>
          </Trackpoint>
          <Trackpoint>
            <Time>2021-08-14T09:10:46.000Z</Time>
            <Position>
              <LatitudeDegrees>43.0190647579729557037353515625</LatitudeDegrees>
              <LongitudeDegrees>-1.8992093391716480255126953125</LongitudeDegrees>
            </Position>
            <AltitudeMeters>617.20001220703125</AltitudeMeters>
            <DistanceMeters>NAN</DistanceMeters>
          </Trackpoint>
          <Trackpoint>
            <Time>2021-08-14T09:10:47.000Z</Time>
            <Position>
              <LatitudeDegrees>43.01905662752687931060791015625</LatitudeDegrees>
              <LongitudeDegrees>-1.89919014461338520050048828125</LongitudeDegrees>
            </Position>
            <AltitudeMeters>617.20001220703125</AltitudeMeters>
            <DistanceMeters>NAN</DistanceMeters>
          </Trackpoint>
          <Trackpoint>
            <Time>2021-08-14T09:10:48.000Z</Time>
            <Position>
              <LatitudeDegrees>43.0190424621105194091796875</LatitudeDegrees>
              <LongitudeDegrees>-1.899165250360965728759765625</LongitudeDegrees>
            </Position>
            <AltitudeMeters>617.20001220703125</AltitudeMeters>
            <DistanceMeters>NAN</DistanceMeters>
          </Trackpoint>
          <Trackpoint>
            <Time>2021-08-14T09:10:49.000Z</Time>
            <Position>
              <LatitudeDegrees>43.0190312303602695465087890625</LatitudeDegrees>
              <LongitudeDegrees>-1.899143792688846588134765625</LongitudeDegrees>
            </Position>
            <AltitudeMeters>617.20001220703125</AltitudeMeters>
            <DistanceMeters>NAN</DistanceMeters>
          </Trackpoint>
          <Trackpoint>
            <Time>2021-08-14T09:10:50.000Z</Time>
            <Position>
              <LatitudeDegrees>43.01902159117162227630615234375</LatitudeDegrees>
              <LongitudeDegrees>-1.89912795089185237884521484375</LongitudeDegrees>
            </Position>
            <AltitudeMeters>617.20001220703125</AltitudeMeters>
            <DistanceMeters>NAN</DistanceMeters>
          </Trackpoint>
          <Trackpoint>
            <Time>2021-08-14T09:10:51.000Z</Time>
            <Position>
              <LatitudeDegrees>43.0190102756023406982421875</LatitudeDegrees>
              <LongitudeDegrees>-1.89911504276096820831298828125</LongitudeDegrees>
            </Position>
            <AltitudeMeters>617.20001220703125</AltitudeMeters>
            <DistanceMeters>NAN</DistanceMeters>
          </Trackpoint>
          <Trackpoint>
            <Time>2021-08-14T09:10:52.000Z</Time>
            <Position>
              <LatitudeDegrees>43.0189940147101879119873046875</LatitudeDegrees>
              <LongitudeDegrees>-1.89910531975328922271728515625</LongitudeDegrees>
            </Position>
            <AltitudeMeters>617.20001220703125</AltitudeMeters>
            <DistanceMeters>NAN</DistanceMeters>
          </Trackpoint>
          <Trackpoint>
            <Time>2021-08-14T09:10:53.000Z</Time>
            <Position>
              <LatitudeDegrees>43.01897381432354450225830078125</LatitudeDegrees>
              <LongitudeDegrees>-1.8991040624678134918212890625</LongitudeDegrees>
            </Position>
            <AltitudeMeters>617.20001220703125</AltitudeMeters>
            <DistanceMeters>NAN</DistanceMeters>
          </Trackpoint>
          <Trackpoint>
            <Time>2021-08-14T09:10:54.000Z</Time>
            <Position>
              <LatitudeDegrees>43.018952943384647369384765625</LatitudeDegrees>
              <LongitudeDegrees>-1.8991064094007015228271484375</LongitudeDegrees>
            </Position>
            <AltitudeMeters>617.20001220703125</AltitudeMeters>
            <DistanceMeters>NAN</DistanceMeters>
          </Trackpoint>
          <Trackpoint>
            <Time>2021-08-14T09:10:55.000Z</Time>
            <Position>
              <LatitudeDegrees>43.01893827505409717559814453125</LatitudeDegrees>
              <LongitudeDegrees>-1.89911588095128536224365234375</LongitudeDegrees>
            </Position>
            <AltitudeMeters>617.20001220703125</AltitudeMeters>
            <DistanceMeters>NAN</DistanceMeters>
          </Trackpoint>
          <Trackpoint>
            <Time>2021-08-14T09:10:56.000Z</Time>
            <Position>
              <LatitudeDegrees>43.01892503164708614349365234375</LatitudeDegrees>
              <LongitudeDegrees>-1.89913582988083362579345703125</LongitudeDegrees>
            </Position>
            <AltitudeMeters>617.20001220703125</AltitudeMeters>
            <DistanceMeters>NAN</DistanceMeters>
          </Trackpoint>
          <Trackpoint>
            <Time>2021-08-14T09:10:57.000Z</Time>
            <Position>
              <LatitudeDegrees>43.01891128532588481903076171875</LatitudeDegrees>
              <LongitudeDegrees>-1.89916399307548999786376953125</LongitudeDegrees>
            </Position>
            <AltitudeMeters>617.20001220703125</AltitudeMeters>
            <DistanceMeters>NAN</DistanceMeters>
          </Trackpoint>
          <Trackpoint>
            <Time>2021-08-14T09:10:59.000Z</Time>
            <Position>
              <LatitudeDegrees>43.0188900791108608245849609375</LatitudeDegrees>
              <LongitudeDegrees>-1.89921696670353412628173828125</LongitudeDegrees>
            </Position>
            <AltitudeMeters>617.20001220703125</AltitudeMeters>
            <DistanceMeters>NAN</DistanceMeters>
          </Trackpoint>
          <Trackpoint>
            <Time>2021-08-14T09:11:00.000Z</Time>
            <Position>
              <LatitudeDegrees>43.01887809298932552337646484375</LatitudeDegrees>
              <LongitudeDegrees>-1.89924563281238079071044921875</LongitudeDegrees>
            </Position>
            <AltitudeMeters>617.20001220703125</AltitudeMeters>
            <DistanceMeters>NAN</DistanceMeters>
          </Trackpoint>
          <Trackpoint>
            <Time>2021-08-14T09:11:04.000Z</Time>
            <Position>
              <LatitudeDegrees>43.01881237886846065521240234375</LatitudeDegrees>
              <LongitudeDegrees>-1.89933984540402889251708984375</LongitudeDegrees>
            </Position>
            <AltitudeMeters>617.4000244140625</AltitudeMeters>
            <DistanceMeters>NAN</DistanceMeters>
          </Trackpoint>
          <Trackpoint>
            <Time>2021-08-14T09:11:05.000Z</Time>
            <Position>
              <LatitudeDegrees>43.0187874846160411834716796875</LatitudeDegrees>
              <LongitudeDegrees>-1.89935602247714996337890625</LongitudeDegrees>
            </Position>
            <AltitudeMeters>617.4000244140625</AltitudeMeters>
            <DistanceMeters>NAN</DistanceMeters>
          </Trackpoint>
          <Trackpoint>
            <Time>2021-08-14T09:11:06.000Z</Time>
            <Position>
              <LatitudeDegrees>43.018766529858112335205078125</LatitudeDegrees>
              <LongitudeDegrees>-1.89937119372189044952392578125</LongitudeDegrees>
            </Position>
            <AltitudeMeters>617.4000244140625</AltitudeMeters>
            <DistanceMeters>NAN</DistanceMeters>
          </Trackpoint>
          <Trackpoint>
            <Time>2021-08-14T09:11:11.000Z</Time>
            <Position>
              <LatitudeDegrees>43.0186275579035282135009765625</LatitudeDegrees>
              <LongitudeDegrees>-1.89943824894726276397705078125</LongitudeDegrees>
            </Position>
            <AltitudeMeters>617.4000244140625</AltitudeMeters>
            <DistanceMeters>NAN</DistanceMeters>
          </Trackpoint>
          <Trackpoint>
            <Time>2021-08-14T09:11:13.000Z</Time>
            <Position>
              <LatitudeDegrees>43.0185665376484394073486328125</LatitudeDegrees>
              <LongitudeDegrees>-1.89944311045110225677490234375</LongitudeDegrees>
            </Position>
            <AltitudeMeters>617.4000244140625</AltitudeMeters>
            <DistanceMeters>NAN</DistanceMeters>
          </Trackpoint>
          <Trackpoint>
            <Time>2021-08-14T09:11:15.000Z</Time>
            <Position>
              <LatitudeDegrees>43.01851264201104640960693359375</LatitudeDegrees>
              <LongitudeDegrees>-1.89942500554025173187255859375</LongitudeDegrees>
            </Position>
            <AltitudeMeters>617.4000244140625</AltitudeMeters>
            <DistanceMeters>NAN</DistanceMeters>
          </Trackpoint>
          <Trackpoint>
            <Time>2021-08-14T09:11:16.000Z</Time>
            <Position>
              <LatitudeDegrees>43.018493615090847015380859375</LatitudeDegrees>
              <LongitudeDegrees>-1.89941771328449249267578125</LongitudeDegrees>
            </Position>
            <AltitudeMeters>617.4000244140625</AltitudeMeters>
            <DistanceMeters>NAN</DistanceMeters>
          </Trackpoint>
          <Trackpoint>
            <Time>2021-08-14T09:11:17.000Z</Time>
            <Position>
              <LatitudeDegrees>43.0184679664671421051025390625</LatitudeDegrees>
              <LongitudeDegrees>-1.8994101695716381072998046875</LongitudeDegrees>
            </Position>
            <AltitudeMeters>617.4000244140625</AltitudeMeters>
            <DistanceMeters>NAN</DistanceMeters>
          </Trackpoint>
          <Trackpoint>
            <Time>2021-08-14T09:11:18.000Z</Time>
            <Position>
              <LatitudeDegrees>43.0184465087950229644775390625</LatitudeDegrees>
              <LongitudeDegrees>-1.89940371550619602203369140625</LongitudeDegrees>
            </Position>
            <AltitudeMeters>617.5999755859375</AltitudeMeters>
            <DistanceMeters>NAN</DistanceMeters>
          </Trackpoint>
          <Trackpoint>
            <Time>2021-08-14T09:11:22.000Z</Time>
            <Position>
              <LatitudeDegrees>43.01834148354828357696533203125</LatitudeDegrees>
              <LongitudeDegrees>-1.89942852593958377838134765625</LongitudeDegrees>
            </Position>
            <AltitudeMeters>617.4000244140625</AltitudeMeters>
            <DistanceMeters>NAN</DistanceMeters>
          </Trackpoint>
          <Trackpoint>
            <Time>2021-08-14T09:11:23.000Z</Time>
            <Position>
              <LatitudeDegrees>43.018335364758968353271484375</LatitudeDegrees>
              <LongitudeDegrees>-1.899448223412036895751953125</LongitudeDegrees>
            </Position>
            <AltitudeMeters>617.4000244140625</AltitudeMeters>
            <DistanceMeters>NAN</DistanceMeters>
          </Trackpoint>
          <Trackpoint>
            <Time>2021-08-14T09:11:24.000Z</Time>
            <Position>
              <LatitudeDegrees>43.01833410747349262237548828125</LatitudeDegrees>
              <LongitudeDegrees>-1.899469010531902313232421875</LongitudeDegrees>
            </Position>
            <AltitudeMeters>617.4000244140625</AltitudeMeters>
            <DistanceMeters>NAN</DistanceMeters>
          </Trackpoint>
          <Trackpoint>
            <Time>2021-08-14T09:11:25.000Z</Time>
            <Position>
              <LatitudeDegrees>43.0183382146060466766357421875</LatitudeDegrees>
              <LongitudeDegrees>-1.89949206076562404632568359375</LongitudeDegrees>
            </Position>
            <AltitudeMeters>617.4000244140625</AltitudeMeters>
            <DistanceMeters>NAN</DistanceMeters>
          </Trackpoint>
          <Trackpoint>
            <Time>2021-08-14T09:11:26.000Z</Time>
            <Position>
              <LatitudeDegrees>43.0183412320911884307861328125</LatitudeDegrees>
              <LongitudeDegrees>-1.89952257089316844940185546875</LongitudeDegrees>
            </Position>
            <AltitudeMeters>617.20001220703125</AltitudeMeters>
            <DistanceMeters>NAN</DistanceMeters>
          </Trackpoint>
          <Trackpoint>
            <Time>2021-08-14T09:11:27.000Z</Time>
            <Position>
              <LatitudeDegrees>43.01834366284310817718505859375</LatitudeDegrees>
              <LongitudeDegrees>-1.89955316483974456787109375</LongitudeDegrees>
            </Position>
            <AltitudeMeters>617.20001220703125</AltitudeMeters>
            <DistanceMeters>NAN</DistanceMeters>
          </Trackpoint>
          <Trackpoint>
            <Time>2021-08-14T09:11:30.000Z</Time>
            <Position>
              <LatitudeDegrees>43.01834466867148876190185546875</LatitudeDegrees>
              <LongitudeDegrees>-1.899660788476467132568359375</LongitudeDegrees>
            </Position>
            <AltitudeMeters>617.20001220703125</AltitudeMeters>
            <DistanceMeters>NAN</DistanceMeters>
          </Trackpoint>
          <Trackpoint>
            <Time>2021-08-14T09:11:35.000Z</Time>
            <Position>
              <LatitudeDegrees>43.0183258093893527984619140625</LatitudeDegrees>
              <LongitudeDegrees>-1.8998850882053375244140625</LongitudeDegrees>
            </Position>
            <AltitudeMeters>617.20001220703125</AltitudeMeters>
            <DistanceMeters>NAN</DistanceMeters>
          </Trackpoint>
          <Trackpoint>
            <Time>2021-08-14T09:11:36.000Z</Time>
            <Position>
              <LatitudeDegrees>43.01831499673426151275634765625</LatitudeDegrees>
              <LongitudeDegrees>-1.89993596635758876800537109375</LongitudeDegrees>
            </Position>
            <AltitudeMeters>617.20001220703125</AltitudeMeters>
            <DistanceMeters>NAN</DistanceMeters>
          </Trackpoint>
          <Trackpoint>
            <Time>2021-08-14T09:11:43.000Z</Time>
            <Position>
              <LatitudeDegrees>43.0181856639683246612548828125</LatitudeDegrees>
              <LongitudeDegrees>-1.90019781701266765594482421875</LongitudeDegrees>
            </Position>
            <AltitudeMeters>617.20001220703125</AltitudeMeters>
            <DistanceMeters>NAN</DistanceMeters>
          </Trackpoint>
          <Trackpoint>
            <Time>2021-08-14T09:11:48.000Z</Time>
            <Position>
              <LatitudeDegrees>43.018066473305225372314453125</LatitudeDegrees>
              <LongitudeDegrees>-1.90035539679229259490966796875</LongitudeDegrees>
            </Position>
            <AltitudeMeters>617.4000244140625</AltitudeMeters>
            <DistanceMeters>NAN</DistanceMeters>
          </Trackpoint>
          <Trackpoint>
            <Time>2021-08-14T09:11:56.000Z</Time>
            <Position>
              <LatitudeDegrees>43.01787695847451686859130859375</LatitudeDegrees>
              <LongitudeDegrees>-1.900590173900127410888671875</LongitudeDegrees>
            </Position>
            <AltitudeMeters>617.79998779296875</AltitudeMeters>
            <DistanceMeters>NAN</DistanceMeters>
          </Trackpoint>
          <Trackpoint>
            <Time>2021-08-14T09:11:57.000Z</Time>
            <Position>
              <LatitudeDegrees>43.0178540758788585662841796875</LatitudeDegrees>
              <LongitudeDegrees>-1.90061867237091064453125</LongitudeDegrees>
            </Position>
            <AltitudeMeters>617.79998779296875</AltitudeMeters>
            <DistanceMeters>NAN</DistanceMeters>
          </Trackpoint>
          <Trackpoint>
            <Time>2021-08-14T09:11:58.000Z</Time>
            <Position>
              <LatitudeDegrees>43.0178373120725154876708984375</LatitudeDegrees>
              <LongitudeDegrees>-1.90063987858593463897705078125</LongitudeDegrees>
            </Position>
            <AltitudeMeters>617.5999755859375</AltitudeMeters>
            <DistanceMeters>NAN</DistanceMeters>
          </Trackpoint>
          <Trackpoint>
            <Time>2021-08-14T09:11:59.000Z</Time>
            <Position>
              <LatitudeDegrees>43.01781208254396915435791015625</LatitudeDegrees>
              <LongitudeDegrees>-1.900669634342193603515625</LongitudeDegrees>
            </Position>
            <AltitudeMeters>617.5999755859375</AltitudeMeters>
            <DistanceMeters>NAN</DistanceMeters>
          </Trackpoint>
          <Trackpoint>
            <Time>2021-08-14T09:12:00.000Z</Time>
            <Position>
              <LatitudeDegrees>43.01779163070023059844970703125</LatitudeDegrees>
              <LongitudeDegrees>-1.900708861649036407470703125</LongitudeDegrees>
            </Position>
            <AltitudeMeters>617.5999755859375</AltitudeMeters>
            <DistanceMeters>NAN</DistanceMeters>
          </Trackpoint>
          <Trackpoint>
            <Time>2021-08-14T09:12:01.000Z</Time>
            <Position>
              <LatitudeDegrees>43.01775961183011531829833984375</LatitudeDegrees>
              <LongitudeDegrees>-1.9007509388029575347900390625</LongitudeDegrees>
            </Position>
            <AltitudeMeters>617.5999755859375</AltitudeMeters>
            <DistanceMeters>NAN</DistanceMeters>
          </Trackpoint>
          <Trackpoint>
            <Time>2021-08-14T09:12:02.000Z</Time>
            <Position>
              <LatitudeDegrees>43.01773781888186931610107421875</LatitudeDegrees>
              <LongitudeDegrees>-1.90078027546405792236328125</LongitudeDegrees>
            </Position>
            <AltitudeMeters>617.4000244140625</AltitudeMeters>
            <DistanceMeters>NAN</DistanceMeters>
          </Trackpoint>
          <Trackpoint>
            <Time>2021-08-14T09:12:05.000Z</Time>
            <Position>
              <LatitudeDegrees>43.0176639743149280548095703125</LatitudeDegrees>
              <LongitudeDegrees>-1.90085814334452152252197265625</LongitudeDegrees>
            </Position>
            <AltitudeMeters>617.4000244140625</AltitudeMeters>
            <DistanceMeters>NAN</DistanceMeters>
          </Trackpoint>
          <Trackpoint>
            <Time>2021-08-14T09:12:07.000Z</Time>
            <Position>
              <LatitudeDegrees>43.0176155269145965576171875</LatitudeDegrees>
              <LongitudeDegrees>-1.9009299762547016143798828125</LongitudeDegrees>
            </Position>
            <AltitudeMeters>617.4000244140625</AltitudeMeters>
            <DistanceMeters>NAN</DistanceMeters>
          </Trackpoint>
          <Trackpoint>
            <Time>2021-08-14T09:12:14.000Z</Time>
            <Position>
              <LatitudeDegrees>43.01752994768321514129638671875</LatitudeDegrees>
              <LongitudeDegrees>-1.9012334011495113372802734375</LongitudeDegrees>
            </Position>
            <AltitudeMeters>617.20001220703125</AltitudeMeters>
            <DistanceMeters>NAN</DistanceMeters>
          </Trackpoint>
          <Trackpoint>
            <Time>2021-08-14T09:12:15.000Z</Time>
            <Position>
              <LatitudeDegrees>43.0175238288938999176025390625</LatitudeDegrees>
              <LongitudeDegrees>-1.90127170644700527191162109375</LongitudeDegrees>
            </Position>
            <AltitudeMeters>617.20001220703125</AltitudeMeters>
            <DistanceMeters>NAN</DistanceMeters>
          </Trackpoint>
          <Trackpoint>
            <Time>2021-08-14T09:12:16.000Z</Time>
            <Position>
              <LatitudeDegrees>43.01751972176134586334228515625</LatitudeDegrees>
              <LongitudeDegrees>-1.9013068266212940216064453125</LongitudeDegrees>
            </Position>
            <AltitudeMeters>617.20001220703125</AltitudeMeters>
            <DistanceMeters>NAN</DistanceMeters>
          </Trackpoint>
          <Trackpoint>
            <Time>2021-08-14T09:12:17.000Z</Time>
            <Position>
              <LatitudeDegrees>43.017507903277873992919921875</LatitudeDegrees>
              <LongitudeDegrees>-1.90135150216519832611083984375</LongitudeDegrees>
            </Position>
            <AltitudeMeters>617.20001220703125</AltitudeMeters>
            <DistanceMeters>NAN</DistanceMeters>
          </Trackpoint>
          <Trackpoint>
            <Time>2021-08-14T09:12:18.000Z</Time>
            <Position>
              <LatitudeDegrees>43.01749692298471927642822265625</LatitudeDegrees>
              <LongitudeDegrees>-1.9013889692723751068115234375</LongitudeDegrees>
            </Position>
            <AltitudeMeters>617.20001220703125</AltitudeMeters>
            <DistanceMeters>NAN</DistanceMeters>
          </Trackpoint>
          <Trackpoint>
            <Time>2021-08-14T09:12:20.000Z</Time>
            <Position>
              <LatitudeDegrees>43.0174664966762065887451171875</LatitudeDegrees>
              <LongitudeDegrees>-1.9014691002666950225830078125</LongitudeDegrees>
            </Position>
            <AltitudeMeters>617.20001220703125</AltitudeMeters>
            <DistanceMeters>NAN</DistanceMeters>
          </Trackpoint>
          <Trackpoint>
            <Time>2021-08-14T09:12:21.000Z</Time>
            <Position>
              <LatitudeDegrees>43.01745384000241756439208984375</LatitudeDegrees>
              <LongitudeDegrees>-1.9015039689838886260986328125</LongitudeDegrees>
            </Position>
            <AltitudeMeters>617.20001220703125</AltitudeMeters>
            <DistanceMeters>NAN</DistanceMeters>
          </Trackpoint>
          <Trackpoint>
            <Time>2021-08-14T09:12:22.000Z</Time>
            <Position>
              <LatitudeDegrees>43.0174450390040874481201171875</LatitudeDegrees>
              <LongitudeDegrees>-1.90155467949807643890380859375</LongitudeDegrees>
            </Position>
            <AltitudeMeters>617.20001220703125</AltitudeMeters>
            <DistanceMeters>NAN</DistanceMeters>
          </Trackpoint>
          <Trackpoint>
            <Time>2021-08-14T09:12:23.000Z</Time>
            <Position>
              <LatitudeDegrees>43.017428107559680938720703125</LatitudeDegrees>
              <LongitudeDegrees>-1.9015867821872234344482421875</LongitudeDegrees>
            </Position>
            <AltitudeMeters>617</AltitudeMeters>
            <DistanceMeters>NAN</DistanceMeters>
          </Trackpoint>
          <Trackpoint>
            <Time>2021-08-14T09:12:24.000Z</Time>
            <Position>
              <LatitudeDegrees>43.01740857772529125213623046875</LatitudeDegrees>
              <LongitudeDegrees>-1.9016062282025814056396484375</LongitudeDegrees>
            </Position>
            <AltitudeMeters>617</AltitudeMeters>
            <DistanceMeters>NAN</DistanceMeters>
          </Trackpoint>
          <Trackpoint>
            <Time>2021-08-14T09:12:25.000Z</Time>
            <Position>
              <LatitudeDegrees>43.0173927359282970428466796875</LatitudeDegrees>
              <LongitudeDegrees>-1.90162056125700473785400390625</LongitudeDegrees>
            </Position>
            <AltitudeMeters>617</AltitudeMeters>
            <DistanceMeters>NAN</DistanceMeters>
          </Trackpoint>
          <Trackpoint>
            <Time>2021-08-14T09:12:26.000Z</Time>
            <Position>
              <LatitudeDegrees>43.0173607170581817626953125</LatitudeDegrees>
              <LongitudeDegrees>-1.9016498140990734100341796875</LongitudeDegrees>
            </Position>
            <AltitudeMeters>617</AltitudeMeters>
            <DistanceMeters>NAN</DistanceMeters>
          </Trackpoint>
          <Trackpoint>
            <Time>2021-08-14T09:12:27.000Z</Time>
            <Position>
              <LatitudeDegrees>43.01733314059674739837646484375</LatitudeDegrees>
              <LongitudeDegrees>-1.90169817768037319183349609375</LongitudeDegrees>
            </Position>
            <AltitudeMeters>617</AltitudeMeters>
            <DistanceMeters>NAN</DistanceMeters>
          </Trackpoint>
          <Trackpoint>
            <Time>2021-08-14T09:12:28.000Z</Time>
            <Position>
              <LatitudeDegrees>43.01731444895267486572265625</LatitudeDegrees>
              <LongitudeDegrees>-1.90173170529305934906005859375</LongitudeDegrees>
            </Position>
            <AltitudeMeters>617</AltitudeMeters>
            <DistanceMeters>NAN</DistanceMeters>
          </Trackpoint>
          <Trackpoint>
            <Time>2021-08-14T09:12:32.000Z</Time>
            <Position>
              <LatitudeDegrees>43.017212860286235809326171875</LatitudeDegrees>
              <LongitudeDegrees>-1.9018814899027347564697265625</LongitudeDegrees>
            </Position>
            <AltitudeMeters>616.79998779296875</AltitudeMeters>
            <DistanceMeters>NAN</DistanceMeters>
          </Trackpoint>
          <Trackpoint>
            <Time>2021-08-14T09:12:39.000Z</Time>
            <Position>
              <LatitudeDegrees>43.0170614831149578094482421875</LatitudeDegrees>
              <LongitudeDegrees>-1.90209397114813327789306640625</LongitudeDegrees>
            </Position>
            <AltitudeMeters>616.79998779296875</AltitudeMeters>
            <DistanceMeters>NAN</DistanceMeters>
          </Trackpoint>
          <Trackpoint>
            <Time>2021-08-14T09:12:47.000Z</Time>
            <Position>
              <LatitudeDegrees>43.01682888530194759368896484375</LatitudeDegrees>
              <LongitudeDegrees>-1.90228960476815700531005859375</LongitudeDegrees>
            </Position>
            <AltitudeMeters>616.4000244140625</AltitudeMeters>
            <DistanceMeters>NAN</DistanceMeters>
          </Trackpoint>
          <Trackpoint>
            <Time>2021-08-14T09:12:49.000Z</Time>
            <Position>
              <LatitudeDegrees>43.01676861941814422607421875</LatitudeDegrees>
              <LongitudeDegrees>-1.90232749097049236297607421875</LongitudeDegrees>
            </Position>
            <AltitudeMeters>616.4000244140625</AltitudeMeters>
            <DistanceMeters>NAN</DistanceMeters>
          </Trackpoint>
          <Trackpoint>
            <Time>2021-08-14T09:12:51.000Z</Time>
            <Position>
              <LatitudeDegrees>43.0167081020772457122802734375</LatitudeDegrees>
              <LongitudeDegrees>-1.9023515470325946807861328125</LongitudeDegrees>
            </Position>
            <AltitudeMeters>616.20001220703125</AltitudeMeters>
            <DistanceMeters>NAN</DistanceMeters>
          </Trackpoint>
          <Trackpoint>
            <Time>2021-08-14T09:12:53.000Z</Time>
            <Position>
              <LatitudeDegrees>43.01663911901414394378662109375</LatitudeDegrees>
              <LongitudeDegrees>-1.90235699526965618133544921875</LongitudeDegrees>
            </Position>
            <AltitudeMeters>616.20001220703125</AltitudeMeters>
            <DistanceMeters>NAN</DistanceMeters>
          </Trackpoint>
          <Trackpoint>
            <Time>2021-08-14T09:12:57.000Z</Time>
            <Position>
              <LatitudeDegrees>43.0165116302669048309326171875</LatitudeDegrees>
              <LongitudeDegrees>-1.9023046083748340606689453125</LongitudeDegrees>
            </Position>
            <AltitudeMeters>616</AltitudeMeters>
            <DistanceMeters>NAN</DistanceMeters>
          </Trackpoint>
          <Trackpoint>
            <Time>2021-08-14T09:12:58.000Z</Time>
            <Position>
              <LatitudeDegrees>43.01648740656673908233642578125</LatitudeDegrees>
              <LongitudeDegrees>-1.90228105522692203521728515625</LongitudeDegrees>
            </Position>
            <AltitudeMeters>616</AltitudeMeters>
            <DistanceMeters>NAN</DistanceMeters>
          </Trackpoint>
          <Trackpoint>
            <Time>2021-08-14T09:12:59.000Z</Time>
            <Position>
              <LatitudeDegrees>43.01646594889461994171142578125</LatitudeDegrees>
              <LongitudeDegrees>-1.9022569991648197174072265625</LongitudeDegrees>
            </Position>
            <AltitudeMeters>616</AltitudeMeters>
            <DistanceMeters>NAN</DistanceMeters>
          </Trackpoint>
          <Trackpoint>
            <Time>2021-08-14T09:13:00.000Z</Time>
            <Position>
              <LatitudeDegrees>43.01644817925989627838134765625</LatitudeDegrees>
              <LongitudeDegrees>-1.90223411656916141510009765625</LongitudeDegrees>
            </Position>
            <AltitudeMeters>616</AltitudeMeters>
            <DistanceMeters>NAN</DistanceMeters>
          </Trackpoint>
          <Trackpoint>
            <Time>2021-08-14T09:13:01.000Z</Time>
            <Position>
              <LatitudeDegrees>43.01643325947225093841552734375</LatitudeDegrees>
              <LongitudeDegrees>-1.90221081487834453582763671875</LongitudeDegrees>
            </Position>
            <AltitudeMeters>616</AltitudeMeters>
            <DistanceMeters>NAN</DistanceMeters>
          </Trackpoint>
          <Trackpoint>
            <Time>2021-08-14T09:13:02.000Z</Time>
            <Position>
              <LatitudeDegrees>43.01641800440847873687744140625</LatitudeDegrees>
              <LongitudeDegrees>-1.90218214876949787139892578125</LongitudeDegrees>
            </Position>
            <AltitudeMeters>616</AltitudeMeters>
            <DistanceMeters>NAN</DistanceMeters>
          </Trackpoint>
          <Trackpoint>
            <Time>2021-08-14T09:13:03.000Z</Time>
            <Position>
              <LatitudeDegrees>43.01640677265822887420654296875</LatitudeDegrees>
              <LongitudeDegrees>-1.90215096808969974517822265625</LongitudeDegrees>
            </Position>
            <AltitudeMeters>616</AltitudeMeters>
            <DistanceMeters>NAN</DistanceMeters>
          </Trackpoint>
          <Trackpoint>
            <Time>2021-08-14T09:13:09.000Z</Time>
            <Position>
              <LatitudeDegrees>43.01635446958243846893310546875</LatitudeDegrees>
              <LongitudeDegrees>-1.9018908776342868804931640625</LongitudeDegrees>
            </Position>
            <AltitudeMeters>616</AltitudeMeters>
            <DistanceMeters>NAN</DistanceMeters>
          </Trackpoint>
          <Trackpoint>
            <Time>2021-08-14T09:13:13.000Z</Time>
            <Position>
              <LatitudeDegrees>43.016341812908649444580078125</LatitudeDegrees>
              <LongitudeDegrees>-1.9017262570559978485107421875</LongitudeDegrees>
            </Position>
            <AltitudeMeters>615.79998779296875</AltitudeMeters>
            <DistanceMeters>NAN</DistanceMeters>
          </Trackpoint>
          <Trackpoint>
            <Time>2021-08-14T09:13:15.000Z</Time>
            <Position>
              <LatitudeDegrees>43.01633971743285655975341796875</LatitudeDegrees>
              <LongitudeDegrees>-1.901643276214599609375</LongitudeDegrees>
            </Position>
            <AltitudeMeters>615.79998779296875</AltitudeMeters>
            <DistanceMeters>NAN</DistanceMeters>
          </Trackpoint>
          <Trackpoint>
            <Time>2021-08-14T09:13:16.000Z</Time>
            <Position>
              <LatitudeDegrees>43.01633284427225589752197265625</LatitudeDegrees>
              <LongitudeDegrees>-1.90159491263329982757568359375</LongitudeDegrees>
            </Position>
            <AltitudeMeters>615.5999755859375</AltitudeMeters>
            <DistanceMeters>NAN</DistanceMeters>
          </Trackpoint>
          <Trackpoint>
            <Time>2021-08-14T09:13:17.000Z</Time>
            <Position>
              <LatitudeDegrees>43.01633602939546108245849609375</LatitudeDegrees>
              <LongitudeDegrees>-1.90155208110809326171875</LongitudeDegrees>
            </Position>
            <AltitudeMeters>615.5999755859375</AltitudeMeters>
            <DistanceMeters>NAN</DistanceMeters>
          </Trackpoint>
          <Trackpoint>
            <Time>2021-08-14T09:13:18.000Z</Time>
            <Position>
              <LatitudeDegrees>43.01633141934871673583984375</LatitudeDegrees>
              <LongitudeDegrees>-1.901504807174205780029296875</LongitudeDegrees>
            </Position>
            <AltitudeMeters>615.5999755859375</AltitudeMeters>
            <DistanceMeters>NAN</DistanceMeters>
          </Trackpoint>
          <Trackpoint>
            <Time>2021-08-14T09:13:19.000Z</Time>
            <Position>
              <LatitudeDegrees>43.01631934940814971923828125</LatitudeDegrees>
              <LongitudeDegrees>-1.9014479778707027435302734375</LongitudeDegrees>
            </Position>
            <AltitudeMeters>615.5999755859375</AltitudeMeters>
            <DistanceMeters>NAN</DistanceMeters>
          </Trackpoint>
          <Trackpoint>
            <Time>2021-08-14T09:13:20.000Z</Time>
            <Position>
              <LatitudeDegrees>43.01631423644721508026123046875</LatitudeDegrees>
              <LongitudeDegrees>-1.9014043919742107391357421875</LongitudeDegrees>
            </Position>
            <AltitudeMeters>615.5999755859375</AltitudeMeters>
            <DistanceMeters>NAN</DistanceMeters>
          </Trackpoint>
          <Trackpoint>
            <Time>2021-08-14T09:13:26.000Z</Time>
            <Position>
              <LatitudeDegrees>43.01634357310831546783447265625</LatitudeDegrees>
              <LongitudeDegrees>-1.9011509232223033905029296875</LongitudeDegrees>
            </Position>
            <AltitudeMeters>615.5999755859375</AltitudeMeters>
            <DistanceMeters>NAN</DistanceMeters>
          </Trackpoint>
          <Trackpoint>
            <Time>2021-08-14T09:13:28.000Z</Time>
            <Position>
              <LatitudeDegrees>43.01635086536407470703125</LatitudeDegrees>
              <LongitudeDegrees>-1.90107992850244045257568359375</LongitudeDegrees>
            </Position>
            <AltitudeMeters>615.5999755859375</AltitudeMeters>
            <DistanceMeters>NAN</DistanceMeters>
          </Trackpoint>
          <Trackpoint>
            <Time>2021-08-14T09:13:29.000Z</Time>
            <Position>
              <LatitudeDegrees>43.01635296083986759185791015625</LatitudeDegrees>
              <LongitudeDegrees>-1.90104908309876918792724609375</LongitudeDegrees>
            </Position>
            <AltitudeMeters>615.5999755859375</AltitudeMeters>
            <DistanceMeters>NAN</DistanceMeters>
          </Trackpoint>
          <Trackpoint>
            <Time>2021-08-14T09:13:30.000Z</Time>
            <Position>
              <LatitudeDegrees>43.01635815761983394622802734375</LatitudeDegrees>
              <LongitudeDegrees>-1.901017986238002777099609375</LongitudeDegrees>
            </Position>
            <AltitudeMeters>615.5999755859375</AltitudeMeters>
            <DistanceMeters>NAN</DistanceMeters>
          </Trackpoint>
          <Trackpoint>
            <Time>2021-08-14T09:13:31.000Z</Time>
            <Position>
              <LatitudeDegrees>43.01637173630297183990478515625</LatitudeDegrees>
              <LongitudeDegrees>-1.90099024213850498199462890625</LongitudeDegrees>
            </Position>
            <AltitudeMeters>615.4000244140625</AltitudeMeters>
            <DistanceMeters>NAN</DistanceMeters>
          </Trackpoint>
          <Trackpoint>
            <Time>2021-08-14T09:13:36.000Z</Time>
            <Position>
              <LatitudeDegrees>43.0164407193660736083984375</LatitudeDegrees>
              <LongitudeDegrees>-1.9008277170360088348388671875</LongitudeDegrees>
            </Position>
            <AltitudeMeters>615.20001220703125</AltitudeMeters>
            <DistanceMeters>NAN</DistanceMeters>
          </Trackpoint>
          <Trackpoint>
            <Time>2021-08-14T09:13:37.000Z</Time>
            <Position>
              <LatitudeDegrees>43.01645169965922832489013671875</LatitudeDegrees>
              <LongitudeDegrees>-1.9007888250052928924560546875</LongitudeDegrees>
            </Position>
            <AltitudeMeters>615.20001220703125</AltitudeMeters>
            <DistanceMeters>NAN</DistanceMeters>
          </Trackpoint>
          <Trackpoint>
            <Time>2021-08-14T09:13:38.000Z</Time>
            <Position>
              <LatitudeDegrees>43.01645387895405292510986328125</LatitudeDegrees>
              <LongitudeDegrees>-1.9007506035268306732177734375</LongitudeDegrees>
            </Position>
            <AltitudeMeters>615.20001220703125</AltitudeMeters>
            <DistanceMeters>NAN</DistanceMeters>
          </Trackpoint>
          <Trackpoint>
            <Time>2021-08-14T09:13:41.000Z</Time>
            <Position>
              <LatitudeDegrees>43.0164190940558910369873046875</LatitudeDegrees>
              <LongitudeDegrees>-1.900673322379589080810546875</LongitudeDegrees>
            </Position>
            <AltitudeMeters>615</AltitudeMeters>
            <DistanceMeters>NAN</DistanceMeters>
          </Trackpoint>
          <Trackpoint>
            <Time>2021-08-14T09:13:42.000Z</Time>
            <Position>
              <LatitudeDegrees>43.01640559919178485870361328125</LatitudeDegrees>
              <LongitudeDegrees>-1.90064557828009128570556640625</LongitudeDegrees>
            </Position>
            <AltitudeMeters>615</AltitudeMeters>
            <DistanceMeters>NAN</DistanceMeters>
          </Trackpoint>
          <Trackpoint>
            <Time>2021-08-14T09:13:43.000Z</Time>
            <Position>
              <LatitudeDegrees>43.01639369688928127288818359375</LatitudeDegrees>
              <LongitudeDegrees>-1.90061657689511775970458984375</LongitudeDegrees>
            </Position>
            <AltitudeMeters>615</AltitudeMeters>
            <DistanceMeters>NAN</DistanceMeters>
          </Trackpoint>
          <Trackpoint>
            <Time>2021-08-14T09:13:44.000Z</Time>
            <Position>
              <LatitudeDegrees>43.016385734081268310546875</LatitudeDegrees>
              <LongitudeDegrees>-1.90058288164436817169189453125</LongitudeDegrees>
            </Position>
            <AltitudeMeters>615</AltitudeMeters>
            <DistanceMeters>NAN</DistanceMeters>
          </Trackpoint>
          <Trackpoint>
            <Time>2021-08-14T09:13:45.000Z</Time>
            <Position>
              <LatitudeDegrees>43.01637575961649417877197265625</LatitudeDegrees>
              <LongitudeDegrees>-1.90054248087108135223388671875</LongitudeDegrees>
            </Position>
            <AltitudeMeters>614.79998779296875</AltitudeMeters>
            <DistanceMeters>NAN</DistanceMeters>
          </Trackpoint>
          <Trackpoint>
            <Time>2021-08-14T09:13:46.000Z</Time>
            <Position>
              <LatitudeDegrees>43.0163701437413692474365234375</LatitudeDegrees>
              <LongitudeDegrees>-1.90049554221332073211669921875</LongitudeDegrees>
            </Position>
            <AltitudeMeters>614.79998779296875</AltitudeMeters>
            <DistanceMeters>NAN</DistanceMeters>
          </Trackpoint>
          <Trackpoint>
            <Time>2021-08-14T09:13:51.000Z</Time>
            <Position>
              <LatitudeDegrees>43.0163602530956268310546875</LatitudeDegrees>
              <LongitudeDegrees>-1.90026168711483478546142578125</LongitudeDegrees>
            </Position>
            <AltitudeMeters>614.5999755859375</AltitudeMeters>
            <DistanceMeters>NAN</DistanceMeters>
          </Trackpoint>
          <Trackpoint>
            <Time>2021-08-14T09:13:55.000Z</Time>
            <Position>
              <LatitudeDegrees>43.01637760363519191741943359375</LatitudeDegrees>
              <LongitudeDegrees>-1.90006990917026996612548828125</LongitudeDegrees>
            </Position>
            <AltitudeMeters>614.5999755859375</AltitudeMeters>
            <DistanceMeters>NAN</DistanceMeters>
          </Trackpoint>
          <Trackpoint>
            <Time>2021-08-14T09:13:57.000Z</Time>
            <Position>
              <LatitudeDegrees>43.0163694731891155242919921875</LatitudeDegrees>
              <LongitudeDegrees>-1.89997167326509952545166015625</LongitudeDegrees>
            </Position>
            <AltitudeMeters>614.4000244140625</AltitudeMeters>
            <DistanceMeters>NAN</DistanceMeters>
          </Trackpoint>
          <Trackpoint>
            <Time>2021-08-14T09:13:58.000Z</Time>
            <Position>
              <LatitudeDegrees>43.01636067219078540802001953125</LatitudeDegrees>
              <LongitudeDegrees>-1.8999258242547512054443359375</LongitudeDegrees>
            </Position>
            <AltitudeMeters>614.20001220703125</AltitudeMeters>
            <DistanceMeters>NAN</DistanceMeters>
          </Trackpoint>
          <Trackpoint>
            <Time>2021-08-14T09:13:59.000Z</Time>
            <Position>
              <LatitudeDegrees>43.01635019481182098388671875</LatitudeDegrees>
              <LongitudeDegrees>-1.89989070408046245574951171875</LongitudeDegrees>
            </Position>
            <AltitudeMeters>614</AltitudeMeters>
            <DistanceMeters>NAN</DistanceMeters>
          </Trackpoint>
          <Trackpoint>
            <Time>2021-08-14T09:14:00.000Z</Time>
            <Position>
              <LatitudeDegrees>43.0163513682782649993896484375</LatitudeDegrees>
              <LongitudeDegrees>-1.89985566772520542144775390625</LongitudeDegrees>
            </Position>
            <AltitudeMeters>614</AltitudeMeters>
            <DistanceMeters>NAN</DistanceMeters>
          </Trackpoint>
          <Trackpoint>
            <Time>2021-08-14T09:14:01.000Z</Time>
            <Position>
              <LatitudeDegrees>43.01635212264955043792724609375</LatitudeDegrees>
              <LongitudeDegrees>-1.89982448704540729522705078125</LongitudeDegrees>
            </Position>
            <AltitudeMeters>614</AltitudeMeters>
            <DistanceMeters>NAN</DistanceMeters>
          </Trackpoint>
          <Trackpoint>
            <Time>2021-08-14T09:14:02.000Z</Time>
            <Position>
              <LatitudeDegrees>43.01634080708026885986328125</LatitudeDegrees>
              <LongitudeDegrees>-1.8997954018414020538330078125</LongitudeDegrees>
            </Position>
            <AltitudeMeters>613.79998779296875</AltitudeMeters>
            <DistanceMeters>NAN</DistanceMeters>
          </Trackpoint>
          <Trackpoint>
            <Time>2021-08-14T09:14:03.000Z</Time>
            <Position>
              <LatitudeDegrees>43.016303591430187225341796875</LatitudeDegrees>
              <LongitudeDegrees>-1.8997685797512531280517578125</LongitudeDegrees>
            </Position>
            <AltitudeMeters>613.79998779296875</AltitudeMeters>
            <DistanceMeters>NAN</DistanceMeters>
          </Trackpoint>
          <Trackpoint>
            <Time>2021-08-14T09:14:04.000Z</Time>
            <Position>
              <LatitudeDegrees>43.0162776075303554534912109375</LatitudeDegrees>
              <LongitudeDegrees>-1.8997536599636077880859375</LongitudeDegrees>
            </Position>
            <AltitudeMeters>613.5999755859375</AltitudeMeters>
            <DistanceMeters>NAN</DistanceMeters>
          </Trackpoint>
          <Trackpoint>
            <Time>2021-08-14T09:14:07.000Z</Time>
            <Position>
              <LatitudeDegrees>43.01621717400848865509033203125</LatitudeDegrees>
              <LongitudeDegrees>-1.89975625835359096527099609375</LongitudeDegrees>
            </Position>
            <AltitudeMeters>613.5999755859375</AltitudeMeters>
            <DistanceMeters>NAN</DistanceMeters>
          </Trackpoint>
          <Trackpoint>
            <Time>2021-08-14T09:14:08.000Z</Time>
            <Position>
              <LatitudeDegrees>43.01620108075439929962158203125</LatitudeDegrees>
              <LongitudeDegrees>-1.89978576265275478363037109375</LongitudeDegrees>
            </Position>
            <AltitudeMeters>613.5999755859375</AltitudeMeters>
            <DistanceMeters>NAN</DistanceMeters>
          </Trackpoint>
          <Trackpoint>
            <Time>2021-08-14T09:14:13.000Z</Time>
            <Position>
              <LatitudeDegrees>43.01601567305624485015869140625</LatitudeDegrees>
              <LongitudeDegrees>-1.89991149120032787322998046875</LongitudeDegrees>
            </Position>
            <AltitudeMeters>613.4000244140625</AltitudeMeters>
            <DistanceMeters>NAN</DistanceMeters>
          </Trackpoint>
          <Trackpoint>
            <Time>2021-08-14T09:14:17.000Z</Time>
            <Position>
              <LatitudeDegrees>43.01585792563855648040771484375</LatitudeDegrees>
              <LongitudeDegrees>-1.90000838600099086761474609375</LongitudeDegrees>
            </Position>
            <AltitudeMeters>612.79998779296875</AltitudeMeters>
            <DistanceMeters>NAN</DistanceMeters>
          </Trackpoint>
          <Trackpoint>
            <Time>2021-08-14T09:14:20.000Z</Time>
            <Position>
              <LatitudeDegrees>43.01572616212069988250732421875</LatitudeDegrees>
              <LongitudeDegrees>-1.90007896162569522857666015625</LongitudeDegrees>
            </Position>
            <AltitudeMeters>612.4000244140625</AltitudeMeters>
            <DistanceMeters>NAN</DistanceMeters>
          </Trackpoint>
          <Trackpoint>
            <Time>2021-08-14T09:14:22.000Z</Time>
            <Position>
              <LatitudeDegrees>43.0156506411731243133544921875</LatitudeDegrees>
              <LongitudeDegrees>-1.9001300074160099029541015625</LongitudeDegrees>
            </Position>
            <AltitudeMeters>612</AltitudeMeters>
            <DistanceMeters>NAN</DistanceMeters>
          </Trackpoint>
          <Trackpoint>
            <Time>2021-08-14T09:14:23.000Z</Time>
            <Position>
              <LatitudeDegrees>43.0156147666275501251220703125</LatitudeDegrees>
              <LongitudeDegrees>-1.9001519680023193359375</LongitudeDegrees>
            </Position>
            <AltitudeMeters>612</AltitudeMeters>
            <DistanceMeters>NAN</DistanceMeters>
          </Trackpoint>
          <Trackpoint>
            <Time>2021-08-14T09:14:24.000Z</Time>
            <Position>
              <LatitudeDegrees>43.01558031700551509857177734375</LatitudeDegrees>
              <LongitudeDegrees>-1.90017250366508960723876953125</LongitudeDegrees>
            </Position>
            <AltitudeMeters>611.79998779296875</AltitudeMeters>
            <DistanceMeters>NAN</DistanceMeters>
          </Trackpoint>
          <Trackpoint>
            <Time>2021-08-14T09:14:25.000Z</Time>
            <Position>
              <LatitudeDegrees>43.01554645411670207977294921875</LatitudeDegrees>
              <LongitudeDegrees>-1.9001947157084941864013671875</LongitudeDegrees>
            </Position>
            <AltitudeMeters>611.79998779296875</AltitudeMeters>
            <DistanceMeters>NAN</DistanceMeters>
          </Trackpoint>
          <Trackpoint>
            <Time>2021-08-14T09:14:26.000Z</Time>
            <Position>
              <LatitudeDegrees>43.01551426760852336883544921875</LatitudeDegrees>
              <LongitudeDegrees>-1.9002128206193447113037109375</LongitudeDegrees>
            </Position>
            <AltitudeMeters>611.79998779296875</AltitudeMeters>
            <DistanceMeters>NAN</DistanceMeters>
          </Trackpoint>
          <Trackpoint>
            <Time>2021-08-14T09:14:27.000Z</Time>
            <Position>
              <LatitudeDegrees>43.01548493094742298126220703125</LatitudeDegrees>
              <LongitudeDegrees>-1.9002289138734340667724609375</LongitudeDegrees>
            </Position>
            <AltitudeMeters>611.79998779296875</AltitudeMeters>
            <DistanceMeters>NAN</DistanceMeters>
          </Trackpoint>
          <Trackpoint>
            <Time>2021-08-14T09:14:28.000Z</Time>
            <Position>
              <LatitudeDegrees>43.01545794121921062469482421875</LatitudeDegrees>
              <LongitudeDegrees>-1.9002436660230159759521484375</LongitudeDegrees>
            </Position>
            <AltitudeMeters>611.79998779296875</AltitudeMeters>
            <DistanceMeters>NAN</DistanceMeters>
          </Trackpoint>
          <Trackpoint>
            <Time>2021-08-14T09:14:29.000Z</Time>
            <Position>
              <LatitudeDegrees>43.0154276825487613677978515625</LatitudeDegrees>
              <LongitudeDegrees>-1.900262944400310516357421875</LongitudeDegrees>
            </Position>
            <AltitudeMeters>611.79998779296875</AltitudeMeters>
            <DistanceMeters>NAN</DistanceMeters>
          </Trackpoint>
          <Trackpoint>
            <Time>2021-08-14T09:14:30.000Z</Time>
            <Position>
              <LatitudeDegrees>43.01540396176278591156005859375</LatitudeDegrees>
              <LongitudeDegrees>-1.900281719863414764404296875</LongitudeDegrees>
            </Position>
            <AltitudeMeters>611.79998779296875</AltitudeMeters>
            <DistanceMeters>NAN</DistanceMeters>
          </Trackpoint>
          <Trackpoint>
            <Time>2021-08-14T09:14:31.000Z</Time>
            <Position>
              <LatitudeDegrees>43.01538116298615932464599609375</LatitudeDegrees>
              <LongitudeDegrees>-1.90029353834688663482666015625</LongitudeDegrees>
            </Position>
            <AltitudeMeters>611.79998779296875</AltitudeMeters>
            <DistanceMeters>NAN</DistanceMeters>
          </Trackpoint>
          <Trackpoint>
            <Time>2021-08-14T09:14:32.000Z</Time>
            <Position>
              <LatitudeDegrees>43.015352748334407806396484375</LatitudeDegrees>
              <LongitudeDegrees>-1.90030393190681934356689453125</LongitudeDegrees>
            </Position>
            <AltitudeMeters>611.79998779296875</AltitudeMeters>
            <DistanceMeters>NAN</DistanceMeters>
          </Trackpoint>
          <Trackpoint>
            <Time>2021-08-14T09:14:34.000Z</Time>
            <Position>
              <LatitudeDegrees>43.0152818374335765838623046875</LatitudeDegrees>
              <LongitudeDegrees>-1.9003281556069850921630859375</LongitudeDegrees>
            </Position>
            <AltitudeMeters>611.79998779296875</AltitudeMeters>
            <DistanceMeters>NAN</DistanceMeters>
          </Trackpoint>
          <Trackpoint>
            <Time>2021-08-14T09:14:37.000Z</Time>
            <Position>
              <LatitudeDegrees>43.01519776694476604461669921875</LatitudeDegrees>
              <LongitudeDegrees>-1.90038842149078845977783203125</LongitudeDegrees>
            </Position>
            <AltitudeMeters>611.5999755859375</AltitudeMeters>
            <DistanceMeters>NAN</DistanceMeters>
          </Trackpoint>
          <Trackpoint>
            <Time>2021-08-14T09:14:38.000Z</Time>
            <Position>
              <LatitudeDegrees>43.01516373641788959503173828125</LatitudeDegrees>
              <LongitudeDegrees>-1.90040736459195613861083984375</LongitudeDegrees>
            </Position>
            <AltitudeMeters>611.5999755859375</AltitudeMeters>
            <DistanceMeters>NAN</DistanceMeters>
          </Trackpoint>
          <Trackpoint>
            <Time>2021-08-14T09:14:39.000Z</Time>
            <Position>
              <LatitudeDegrees>43.0151210725307464599609375</LatitudeDegrees>
              <LongitudeDegrees>-1.90042488276958465576171875</LongitudeDegrees>
            </Position>
            <AltitudeMeters>611.5999755859375</AltitudeMeters>
            <DistanceMeters>NAN</DistanceMeters>
          </Trackpoint>
          <Trackpoint>
            <Time>2021-08-14T09:14:40.000Z</Time>
            <Position>
              <LatitudeDegrees>43.0150736309587955474853515625</LatitudeDegrees>
              <LongitudeDegrees>-1.90046704374253749847412109375</LongitudeDegrees>
            </Position>
            <AltitudeMeters>611.5999755859375</AltitudeMeters>
            <DistanceMeters>NAN</DistanceMeters>
          </Trackpoint>
          <Trackpoint>
            <Time>2021-08-14T09:14:45.000Z</Time>
            <Position>
              <LatitudeDegrees>43.01487497985363006591796875</LatitudeDegrees>
              <LongitudeDegrees>-1.90056092105805873870849609375</LongitudeDegrees>
            </Position>
            <AltitudeMeters>611.5999755859375</AltitudeMeters>
            <DistanceMeters>NAN</DistanceMeters>
          </Trackpoint>
          <Trackpoint>
            <Time>2021-08-14T09:14:46.000Z</Time>
            <Position>
              <LatitudeDegrees>43.01481454633176326751708984375</LatitudeDegrees>
              <LongitudeDegrees>-1.900573410093784332275390625</LongitudeDegrees>
            </Position>
            <AltitudeMeters>611.4000244140625</AltitudeMeters>
            <DistanceMeters>NAN</DistanceMeters>
          </Trackpoint>
          <Trackpoint>
            <Time>2021-08-14T09:14:48.000Z</Time>
            <Position>
              <LatitudeDegrees>43.01470122300088405609130859375</LatitudeDegrees>
              <LongitudeDegrees>-1.90061121247708797454833984375</LongitudeDegrees>
            </Position>
            <AltitudeMeters>611.20001220703125</AltitudeMeters>
            <DistanceMeters>NAN</DistanceMeters>
          </Trackpoint>
          <Trackpoint>
            <Time>2021-08-14T09:14:49.000Z</Time>
            <Position>
              <LatitudeDegrees>43.01465059630572795867919921875</LatitudeDegrees>
              <LongitudeDegrees>-1.90061674453318119049072265625</LongitudeDegrees>
            </Position>
            <AltitudeMeters>611.20001220703125</AltitudeMeters>
            <DistanceMeters>NAN</DistanceMeters>
          </Trackpoint>
          <Trackpoint>
            <Time>2021-08-14T09:14:50.000Z</Time>
            <Position>
              <LatitudeDegrees>43.01459963433444499969482421875</LatitudeDegrees>
              <LongitudeDegrees>-1.90061892382800579071044921875</LongitudeDegrees>
            </Position>
            <AltitudeMeters>611.20001220703125</AltitudeMeters>
            <DistanceMeters>NAN</DistanceMeters>
          </Trackpoint>
          <Trackpoint>
            <Time>2021-08-14T09:14:51.000Z</Time>
            <Position>
              <LatitudeDegrees>43.01459963433444499969482421875</LatitudeDegrees>
              <LongitudeDegrees>-1.90061892382800579071044921875</LongitudeDegrees>
            </Position>
            <AltitudeMeters>611</AltitudeMeters>
            <DistanceMeters>NAN</DistanceMeters>
          </Trackpoint>
          <Trackpoint>
            <Time>2021-08-14T09:14:56.000Z</Time>
            <Position>
              <LatitudeDegrees>43.0143363587558269500732421875</LatitudeDegrees>
              <LongitudeDegrees>-1.900639794766902923583984375</LongitudeDegrees>
            </Position>
            <AltitudeMeters>610.5999755859375</AltitudeMeters>
            <DistanceMeters>NAN</DistanceMeters>
          </Trackpoint>
          <Trackpoint>
            <Time>2021-08-14T09:14:57.000Z</Time>
            <Position>
              <LatitudeDegrees>43.0142978020012378692626953125</LatitudeDegrees>
              <LongitudeDegrees>-1.90063677728176116943359375</LongitudeDegrees>
            </Position>
            <AltitudeMeters>610.4000244140625</AltitudeMeters>
            <DistanceMeters>NAN</DistanceMeters>
          </Trackpoint>
          <Trackpoint>
            <Time>2021-08-14T09:14:59.000Z</Time>
            <Position>
              <LatitudeDegrees>43.0142307467758655548095703125</LatitudeDegrees>
              <LongitudeDegrees>-1.90060769207775592803955078125</LongitudeDegrees>
            </Position>
            <AltitudeMeters>610.20001220703125</AltitudeMeters>
            <DistanceMeters>NAN</DistanceMeters>
          </Trackpoint>
          <Trackpoint>
            <Time>2021-08-14T09:15:00.000Z</Time>
            <Position>
              <LatitudeDegrees>43.014188669621944427490234375</LatitudeDegrees>
              <LongitudeDegrees>-1.90060098655521869659423828125</LongitudeDegrees>
            </Position>
            <AltitudeMeters>610.20001220703125</AltitudeMeters>
            <DistanceMeters>NAN</DistanceMeters>
          </Trackpoint>
          <Trackpoint>
            <Time>2021-08-14T09:15:01.000Z</Time>
            <Position>
              <LatitudeDegrees>43.014148436486721038818359375</LatitudeDegrees>
              <LongitudeDegrees>-1.9005967117846012115478515625</LongitudeDegrees>
            </Position>
            <AltitudeMeters>610</AltitudeMeters>
            <DistanceMeters>NAN</DistanceMeters>
          </Trackpoint>
          <Trackpoint>
            <Time>2021-08-14T09:15:02.000Z</Time>
            <Position>
              <LatitudeDegrees>43.0141093768179416656494140625</LatitudeDegrees>
              <LongitudeDegrees>-1.90058539621531963348388671875</LongitudeDegrees>
            </Position>
            <AltitudeMeters>610</AltitudeMeters>
            <DistanceMeters>NAN</DistanceMeters>
          </Trackpoint>
          <Trackpoint>
            <Time>2021-08-14T09:15:03.000Z</Time>
            <Position>
              <LatitudeDegrees>43.01407425664365291595458984375</LatitudeDegrees>
              <LongitudeDegrees>-1.9005698896944522857666015625</LongitudeDegrees>
            </Position>
            <AltitudeMeters>610</AltitudeMeters>
            <DistanceMeters>NAN</DistanceMeters>
          </Trackpoint>
          <Trackpoint>
            <Time>2021-08-14T09:15:08.000Z</Time>
            <Position>
              <LatitudeDegrees>43.013907372951507568359375</LatitudeDegrees>
              <LongitudeDegrees>-1.90048657357692718505859375</LongitudeDegrees>
            </Position>
            <AltitudeMeters>609.5999755859375</AltitudeMeters>
            <DistanceMeters>NAN</DistanceMeters>
          </Trackpoint>
          <Trackpoint>
            <Time>2021-08-14T09:15:09.000Z</Time>
            <Position>
              <LatitudeDegrees>43.0138595961034297943115234375</LatitudeDegrees>
              <LongitudeDegrees>-1.90046821720898151397705078125</LongitudeDegrees>
            </Position>
            <AltitudeMeters>609.4000244140625</AltitudeMeters>
            <DistanceMeters>NAN</DistanceMeters>
          </Trackpoint>
          <Trackpoint>
            <Time>2021-08-14T09:15:10.000Z</Time>
            <Position>
              <LatitudeDegrees>43.013816513121128082275390625</LatitudeDegrees>
              <LongitudeDegrees>-1.90045095048844814300537109375</LongitudeDegrees>
            </Position>
            <AltitudeMeters>609.20001220703125</AltitudeMeters>
            <DistanceMeters>NAN</DistanceMeters>
          </Trackpoint>
          <Trackpoint>
            <Time>2021-08-14T09:15:11.000Z</Time>
            <Position>
              <LatitudeDegrees>43.01377653144299983978271484375</LatitudeDegrees>
              <LongitudeDegrees>-1.90043284557759761810302734375</LongitudeDegrees>
            </Position>
            <AltitudeMeters>609.20001220703125</AltitudeMeters>
            <DistanceMeters>NAN</DistanceMeters>
          </Trackpoint>
          <Trackpoint>
            <Time>2021-08-14T09:15:14.000Z</Time>
            <Position>
              <LatitudeDegrees>43.01366387866437435150146484375</LatitudeDegrees>
              <LongitudeDegrees>-1.9003633596003055572509765625</LongitudeDegrees>
            </Position>
            <AltitudeMeters>608.79998779296875</AltitudeMeters>
            <DistanceMeters>NAN</DistanceMeters>
          </Trackpoint>
          <Trackpoint>
            <Time>2021-08-14T09:15:18.000Z</Time>
            <Position>
              <LatitudeDegrees>43.01346103660762310028076171875</LatitudeDegrees>
              <LongitudeDegrees>-1.90023469738662242889404296875</LongitudeDegrees>
            </Position>
            <AltitudeMeters>607.79998779296875</AltitudeMeters>
            <DistanceMeters>NAN</DistanceMeters>
          </Trackpoint>
          <Trackpoint>
            <Time>2021-08-14T09:15:19.000Z</Time>
            <Position>
              <LatitudeDegrees>43.01339398138225078582763671875</LatitudeDegrees>
              <LongitudeDegrees>-1.90020628273487091064453125</LongitudeDegrees>
            </Position>
            <AltitudeMeters>607</AltitudeMeters>
            <DistanceMeters>NAN</DistanceMeters>
          </Trackpoint>
          <Trackpoint>
            <Time>2021-08-14T09:15:21.000Z</Time>
            <Position>
              <LatitudeDegrees>43.0132674984633922576904296875</LatitudeDegrees>
              <LongitudeDegrees>-1.900171078741550445556640625</LongitudeDegrees>
            </Position>
            <AltitudeMeters>606</AltitudeMeters>
            <DistanceMeters>NAN</DistanceMeters>
          </Trackpoint>
          <Trackpoint>
            <Time>2021-08-14T09:15:22.000Z</Time>
            <Position>
              <LatitudeDegrees>43.0132105015218257904052734375</LatitudeDegrees>
              <LongitudeDegrees>-1.9001635350286960601806640625</LongitudeDegrees>
            </Position>
            <AltitudeMeters>605.79998779296875</AltitudeMeters>
            <DistanceMeters>NAN</DistanceMeters>
          </Trackpoint>
          <Trackpoint>
            <Time>2021-08-14T09:15:23.000Z</Time>
            <Position>
              <LatitudeDegrees>43.013175465166568756103515625</LatitudeDegrees>
              <LongitudeDegrees>-1.900159008800983428955078125</LongitudeDegrees>
            </Position>
            <AltitudeMeters>605.4000244140625</AltitudeMeters>
            <DistanceMeters>NAN</DistanceMeters>
          </Trackpoint>
          <Trackpoint>
            <Time>2021-08-14T09:15:24.000Z</Time>
            <Position>
              <LatitudeDegrees>43.01315174438059329986572265625</LatitudeDegrees>
              <LongitudeDegrees>-1.9001551531255245208740234375</LongitudeDegrees>
            </Position>
            <AltitudeMeters>605.4000244140625</AltitudeMeters>
            <DistanceMeters>NAN</DistanceMeters>
          </Trackpoint>
          <Trackpoint>
            <Time>2021-08-14T09:15:25.000Z</Time>
            <Position>
              <LatitudeDegrees>43.0131255090236663818359375</LatitudeDegrees>
              <LongitudeDegrees>-1.90015121363103389739990234375</LongitudeDegrees>
            </Position>
            <AltitudeMeters>605.4000244140625</AltitudeMeters>
            <DistanceMeters>NAN</DistanceMeters>
          </Trackpoint>
          <Trackpoint>
            <Time>2021-08-14T09:15:26.000Z</Time>
            <Position>
              <LatitudeDegrees>43.01310363225638866424560546875</LatitudeDegrees>
              <LongitudeDegrees>-1.9001454301178455352783203125</LongitudeDegrees>
            </Position>
            <AltitudeMeters>605.4000244140625</AltitudeMeters>
            <DistanceMeters>NAN</DistanceMeters>
          </Trackpoint>
          <Trackpoint>
            <Time>2021-08-14T09:15:27.000Z</Time>
            <Position>
              <LatitudeDegrees>43.01308033056557178497314453125</LatitudeDegrees>
              <LongitudeDegrees>-1.9001340307295322418212890625</LongitudeDegrees>
            </Position>
            <AltitudeMeters>605.4000244140625</AltitudeMeters>
            <DistanceMeters>NAN</DistanceMeters>
          </Trackpoint>
          <Trackpoint>
            <Time>2021-08-14T09:15:28.000Z</Time>
            <Position>
              <LatitudeDegrees>43.01305803470313549041748046875</LatitudeDegrees>
              <LongitudeDegrees>-1.900124140083789825439453125</LongitudeDegrees>
            </Position>
            <AltitudeMeters>605.4000244140625</AltitudeMeters>
            <DistanceMeters>NAN</DistanceMeters>
          </Trackpoint>
          <Trackpoint>
            <Time>2021-08-14T09:15:31.000Z</Time>
            <Position>
              <LatitudeDegrees>43.0129848606884479522705078125</LatitudeDegrees>
              <LongitudeDegrees>-1.90009522251784801483154296875</LongitudeDegrees>
            </Position>
            <AltitudeMeters>606</AltitudeMeters>
            <DistanceMeters>NAN</DistanceMeters>
          </Trackpoint>
          <Trackpoint>
            <Time>2021-08-14T09:15:33.000Z</Time>
            <Position>
              <LatitudeDegrees>43.01292979158461093902587890625</LatitudeDegrees>
              <LongitudeDegrees>-1.90008767880499362945556640625</LongitudeDegrees>
            </Position>
            <AltitudeMeters>606.79998779296875</AltitudeMeters>
            <DistanceMeters>NAN</DistanceMeters>
          </Trackpoint>
          <Trackpoint>
            <Time>2021-08-14T09:15:34.000Z</Time>
            <Position>
              <LatitudeDegrees>43.012907914817333221435546875</LatitudeDegrees>
              <LongitudeDegrees>-1.90008231438696384429931640625</LongitudeDegrees>
            </Position>
            <AltitudeMeters>606.79998779296875</AltitudeMeters>
            <DistanceMeters>NAN</DistanceMeters>
          </Trackpoint>
          <Trackpoint>
            <Time>2021-08-14T09:15:38.000Z</Time>
            <Position>
              <LatitudeDegrees>43.0127714574337005615234375</LatitudeDegrees>
              <LongitudeDegrees>-1.90007326193153858184814453125</LongitudeDegrees>
            </Position>
            <AltitudeMeters>607.20001220703125</AltitudeMeters>
            <DistanceMeters>NAN</DistanceMeters>
          </Trackpoint>
          <Trackpoint>
            <Time>2021-08-14T09:15:39.000Z</Time>
            <Position>
              <LatitudeDegrees>43.012737929821014404296875</LatitudeDegrees>
              <LongitudeDegrees>-1.90006974153220653533935546875</LongitudeDegrees>
            </Position>
            <AltitudeMeters>607.20001220703125</AltitudeMeters>
            <DistanceMeters>NAN</DistanceMeters>
          </Trackpoint>
          <Trackpoint>
            <Time>2021-08-14T09:15:43.000Z</Time>
            <Position>
              <LatitudeDegrees>43.01259149797260761260986328125</LatitudeDegrees>
              <LongitudeDegrees>-1.90006186254322528839111328125</LongitudeDegrees>
            </Position>
            <AltitudeMeters>607.20001220703125</AltitudeMeters>
            <DistanceMeters>NAN</DistanceMeters>
          </Trackpoint>
          <Trackpoint>
            <Time>2021-08-14T09:15:49.000Z</Time>
            <Position>
              <LatitudeDegrees>43.01235965453088283538818359375</LatitudeDegrees>
              <LongitudeDegrees>-1.90003219060599803924560546875</LongitudeDegrees>
            </Position>
            <AltitudeMeters>606.79998779296875</AltitudeMeters>
            <DistanceMeters>NAN</DistanceMeters>
          </Trackpoint>
          <Trackpoint>
            <Time>2021-08-14T09:15:50.000Z</Time>
            <Position>
              <LatitudeDegrees>43.01230140030384063720703125</LatitudeDegrees>
              <LongitudeDegrees>-1.900026910006999969482421875</LongitudeDegrees>
            </Position>
            <AltitudeMeters>606.79998779296875</AltitudeMeters>
            <DistanceMeters>NAN</DistanceMeters>
          </Trackpoint>
          <Trackpoint>
            <Time>2021-08-14T09:15:53.000Z</Time>
            <Position>
              <LatitudeDegrees>43.012166954576969146728515625</LatitudeDegrees>
              <LongitudeDegrees>-1.9000197015702724456787109375</LongitudeDegrees>
            </Position>
            <AltitudeMeters>606.4000244140625</AltitudeMeters>
            <DistanceMeters>NAN</DistanceMeters>
          </Trackpoint>
          <Trackpoint>
            <Time>2021-08-14T09:15:54.000Z</Time>
            <Position>
              <LatitudeDegrees>43.01211557351052761077880859375</LatitudeDegrees>
              <LongitudeDegrees>-1.9000203721225261688232421875</LongitudeDegrees>
            </Position>
            <AltitudeMeters>606.20001220703125</AltitudeMeters>
            <DistanceMeters>NAN</DistanceMeters>
          </Trackpoint>
          <Trackpoint>
            <Time>2021-08-14T09:15:55.000Z</Time>
            <Position>
              <LatitudeDegrees>43.01207005977630615234375</LatitudeDegrees>
              <LongitudeDegrees>-1.900014840066432952880859375</LongitudeDegrees>
            </Position>
            <AltitudeMeters>606</AltitudeMeters>
            <DistanceMeters>NAN</DistanceMeters>
          </Trackpoint>
          <Trackpoint>
            <Time>2021-08-14T09:15:56.000Z</Time>
            <Position>
              <LatitudeDegrees>43.0120313353836536407470703125</LatitudeDegrees>
              <LongitudeDegrees>-1.90001106821000576019287109375</LongitudeDegrees>
            </Position>
            <AltitudeMeters>606</AltitudeMeters>
            <DistanceMeters>NAN</DistanceMeters>
          </Trackpoint>
          <Trackpoint>
            <Time>2021-08-14T09:15:58.000Z</Time>
            <Position>
              <LatitudeDegrees>43.0119292438030242919921875</LatitudeDegrees>
              <LongitudeDegrees>-1.90000268630683422088623046875</LongitudeDegrees>
            </Position>
            <AltitudeMeters>605.79998779296875</AltitudeMeters>
            <DistanceMeters>NAN</DistanceMeters>
          </Trackpoint>
          <Trackpoint>
            <Time>2021-08-14T09:15:59.000Z</Time>
            <Position>
              <LatitudeDegrees>43.0118948780000209808349609375</LatitudeDegrees>
              <LongitudeDegrees>-1.90001048147678375244140625</LongitudeDegrees>
            </Position>
            <AltitudeMeters>605.79998779296875</AltitudeMeters>
            <DistanceMeters>NAN</DistanceMeters>
          </Trackpoint>
          <Trackpoint>
            <Time>2021-08-14T09:16:00.000Z</Time>
            <Position>
              <LatitudeDegrees>43.011852465569972991943359375</LatitudeDegrees>
              <LongitudeDegrees>-1.900024227797985076904296875</LongitudeDegrees>
            </Position>
            <AltitudeMeters>605.5999755859375</AltitudeMeters>
            <DistanceMeters>NAN</DistanceMeters>
          </Trackpoint>
          <Trackpoint>
            <Time>2021-08-14T09:16:06.000Z</Time>
            <Position>
              <LatitudeDegrees>43.01156387664377689361572265625</LatitudeDegrees>
              <LongitudeDegrees>-1.90000821836292743682861328125</LongitudeDegrees>
            </Position>
            <AltitudeMeters>605.20001220703125</AltitudeMeters>
            <DistanceMeters>NAN</DistanceMeters>
          </Trackpoint>
          <Trackpoint>
            <Time>2021-08-14T09:16:10.000Z</Time>
            <Position>
              <LatitudeDegrees>43.01137260161340236663818359375</LatitudeDegrees>
              <LongitudeDegrees>-1.89994937740266323089599609375</LongitudeDegrees>
            </Position>
            <AltitudeMeters>605.20001220703125</AltitudeMeters>
            <DistanceMeters>NAN</DistanceMeters>
          </Trackpoint>
          <Trackpoint>
            <Time>2021-08-14T09:16:13.000Z</Time>
            <Position>
              <LatitudeDegrees>43.01127553917467594146728515625</LatitudeDegrees>
              <LongitudeDegrees>-1.8999057076871395111083984375</LongitudeDegrees>
            </Position>
            <AltitudeMeters>605</AltitudeMeters>
            <DistanceMeters>NAN</DistanceMeters>
          </Trackpoint>
          <Trackpoint>
            <Time>2021-08-14T09:16:16.000Z</Time>
            <Position>
              <LatitudeDegrees>43.0111634731292724609375</LatitudeDegrees>
              <LongitudeDegrees>-1.899828426539897918701171875</LongitudeDegrees>
            </Position>
            <AltitudeMeters>604.4000244140625</AltitudeMeters>
            <DistanceMeters>NAN</DistanceMeters>
          </Trackpoint>
          <Trackpoint>
            <Time>2021-08-14T09:16:17.000Z</Time>
            <Position>
              <LatitudeDegrees>43.0111428536474704742431640625</LatitudeDegrees>
              <LongitudeDegrees>-1.8998064659535884857177734375</LongitudeDegrees>
            </Position>
            <AltitudeMeters>603.79998779296875</AltitudeMeters>
            <DistanceMeters>NAN</DistanceMeters>
          </Trackpoint>
          <Trackpoint>
            <Time>2021-08-14T09:16:18.000Z</Time>
            <Position>
              <LatitudeDegrees>43.01112684421241283416748046875</LatitudeDegrees>
              <LongitudeDegrees>-1.899778135120868682861328125</LongitudeDegrees>
            </Position>
            <AltitudeMeters>603.5999755859375</AltitudeMeters>
            <DistanceMeters>NAN</DistanceMeters>
          </Trackpoint>
          <Trackpoint>
            <Time>2021-08-14T09:16:19.000Z</Time>
            <Position>
              <LatitudeDegrees>43.01111091859638690948486328125</LatitudeDegrees>
              <LongitudeDegrees>-1.89975240267813205718994140625</LongitudeDegrees>
            </Position>
            <AltitudeMeters>602.79998779296875</AltitudeMeters>
            <DistanceMeters>NAN</DistanceMeters>
          </Trackpoint>
          <Trackpoint>
            <Time>2021-08-14T09:16:20.000Z</Time>
            <Position>
              <LatitudeDegrees>43.01108661107718944549560546875</LatitudeDegrees>
              <LongitudeDegrees>-1.899725832045078277587890625</LongitudeDegrees>
            </Position>
            <AltitudeMeters>602.4000244140625</AltitudeMeters>
            <DistanceMeters>NAN</DistanceMeters>
          </Trackpoint>
          <Trackpoint>
            <Time>2021-08-14T09:16:21.000Z</Time>
            <Position>
              <LatitudeDegrees>43.01107772625982761383056640625</LatitudeDegrees>
              <LongitudeDegrees>-1.89970814622938632965087890625</LongitudeDegrees>
            </Position>
            <AltitudeMeters>601.79998779296875</AltitudeMeters>
            <DistanceMeters>NAN</DistanceMeters>
          </Trackpoint>
          <Trackpoint>
            <Time>2021-08-14T09:16:22.000Z</Time>
            <Position>
              <LatitudeDegrees>43.011069931089878082275390625</LatitudeDegrees>
              <LongitudeDegrees>-1.8996901251375675201416015625</LongitudeDegrees>
            </Position>
            <AltitudeMeters>601</AltitudeMeters>
            <DistanceMeters>NAN</DistanceMeters>
          </Trackpoint>
          <Trackpoint>
            <Time>2021-08-14T09:16:23.000Z</Time>
            <Position>
              <LatitudeDegrees>43.01106154918670654296875</LatitudeDegrees>
              <LongitudeDegrees>-1.89967545680701732635498046875</LongitudeDegrees>
            </Position>
            <AltitudeMeters>600.79998779296875</AltitudeMeters>
            <DistanceMeters>NAN</DistanceMeters>
          </Trackpoint>
          <Trackpoint>
            <Time>2021-08-14T09:16:24.000Z</Time>
            <Position>
              <LatitudeDegrees>43.01105207763612270355224609375</LatitudeDegrees>
              <LongitudeDegrees>-1.8996522389352321624755859375</LongitudeDegrees>
            </Position>
            <AltitudeMeters>600.4000244140625</AltitudeMeters>
            <DistanceMeters>NAN</DistanceMeters>
          </Trackpoint>
          <Trackpoint>
            <Time>2021-08-14T09:16:25.000Z</Time>
            <Position>
              <LatitudeDegrees>43.0110412649810314178466796875</LatitudeDegrees>
              <LongitudeDegrees>-1.899629272520542144775390625</LongitudeDegrees>
            </Position>
            <AltitudeMeters>600.20001220703125</AltitudeMeters>
            <DistanceMeters>NAN</DistanceMeters>
          </Trackpoint>
          <Trackpoint>
            <Time>2021-08-14T09:16:28.000Z</Time>
            <Position>
              <LatitudeDegrees>43.0110040493309497833251953125</LatitudeDegrees>
              <LongitudeDegrees>-1.89956213347613811492919921875</LongitudeDegrees>
            </Position>
            <AltitudeMeters>600.20001220703125</AltitudeMeters>
            <DistanceMeters>NAN</DistanceMeters>
          </Trackpoint>
          <Trackpoint>
            <Time>2021-08-14T09:16:29.000Z</Time>
            <Position>
              <LatitudeDegrees>43.010992817580699920654296875</LatitudeDegrees>
              <LongitudeDegrees>-1.899539418518543243408203125</LongitudeDegrees>
            </Position>
            <AltitudeMeters>600.20001220703125</AltitudeMeters>
            <DistanceMeters>NAN</DistanceMeters>
          </Trackpoint>
          <Trackpoint>
            <Time>2021-08-14T09:16:34.000Z</Time>
            <Position>
              <LatitudeDegrees>43.01091796718537807464599609375</LatitudeDegrees>
              <LongitudeDegrees>-1.8993816711008548736572265625</LongitudeDegrees>
            </Position>
            <AltitudeMeters>599.5999755859375</AltitudeMeters>
            <DistanceMeters>NAN</DistanceMeters>
          </Trackpoint>
          <Trackpoint>
            <Time>2021-08-14T09:16:38.000Z</Time>
            <Position>
              <LatitudeDegrees>43.01084630191326141357421875</LatitudeDegrees>
              <LongitudeDegrees>-1.89922685734927654266357421875</LongitudeDegrees>
            </Position>
            <AltitudeMeters>599.20001220703125</AltitudeMeters>
            <DistanceMeters>NAN</DistanceMeters>
          </Trackpoint>
          <Trackpoint>
            <Time>2021-08-14T09:16:39.000Z</Time>
            <Position>
              <LatitudeDegrees>43.0108322203159332275390625</LatitudeDegrees>
              <LongitudeDegrees>-1.899186708033084869384765625</LongitudeDegrees>
            </Position>
            <AltitudeMeters>599.20001220703125</AltitudeMeters>
            <DistanceMeters>NAN</DistanceMeters>
          </Trackpoint>
          <Trackpoint>
            <Time>2021-08-14T09:16:40.000Z</Time>
            <Position>
              <LatitudeDegrees>43.0108186416327953338623046875</LatitudeDegrees>
              <LongitudeDegrees>-1.89914538525044918060302734375</LongitudeDegrees>
            </Position>
            <AltitudeMeters>599</AltitudeMeters>
            <DistanceMeters>NAN</DistanceMeters>
          </Trackpoint>
          <Trackpoint>
            <Time>2021-08-14T09:16:41.000Z</Time>
            <Position>
              <LatitudeDegrees>43.01080472767353057861328125</LatitudeDegrees>
              <LongitudeDegrees>-1.89910414628684520721435546875</LongitudeDegrees>
            </Position>
            <AltitudeMeters>599</AltitudeMeters>
            <DistanceMeters>NAN</DistanceMeters>
          </Trackpoint>
          <Trackpoint>
            <Time>2021-08-14T09:16:45.000Z</Time>
            <Position>
              <LatitudeDegrees>43.01074110902845859527587890625</LatitudeDegrees>
              <LongitudeDegrees>-1.89891790039837360382080078125</LongitudeDegrees>
            </Position>
            <AltitudeMeters>598.5999755859375</AltitudeMeters>
            <DistanceMeters>NAN</DistanceMeters>
          </Trackpoint>
          <Trackpoint>
            <Time>2021-08-14T09:16:46.000Z</Time>
            <Position>
              <LatitudeDegrees>43.01073323003947734832763671875</LatitudeDegrees>
              <LongitudeDegrees>-1.89887163229286670684814453125</LongitudeDegrees>
            </Position>
            <AltitudeMeters>598.5999755859375</AltitudeMeters>
            <DistanceMeters>NAN</DistanceMeters>
          </Trackpoint>
          <Trackpoint>
            <Time>2021-08-14T09:16:50.000Z</Time>
            <Position>
              <LatitudeDegrees>43.01067422144114971160888671875</LatitudeDegrees>
              <LongitudeDegrees>-1.89867499284446239471435546875</LongitudeDegrees>
            </Position>
            <AltitudeMeters>598</AltitudeMeters>
            <DistanceMeters>NAN</DistanceMeters>
          </Trackpoint>
          <Trackpoint>
            <Time>2021-08-14T09:16:54.000Z</Time>
            <Position>
              <LatitudeDegrees>43.01061454229056835174560546875</LatitudeDegrees>
              <LongitudeDegrees>-1.8984640203416347503662109375</LongitudeDegrees>
            </Position>
            <AltitudeMeters>597.5999755859375</AltitudeMeters>
            <DistanceMeters>NAN</DistanceMeters>
          </Trackpoint>
          <Trackpoint>
            <Time>2021-08-14T09:17:03.000Z</Time>
            <Position>
              <LatitudeDegrees>43.0104808509349822998046875</LatitudeDegrees>
              <LongitudeDegrees>-1.89791961573064327239990234375</LongitudeDegrees>
            </Position>
            <AltitudeMeters>597</AltitudeMeters>
            <DistanceMeters>NAN</DistanceMeters>
          </Trackpoint>
          <Trackpoint>
            <Time>2021-08-14T09:17:04.000Z</Time>
            <Position>
              <LatitudeDegrees>43.01047037355601787567138671875</LatitudeDegrees>
              <LongitudeDegrees>-1.89785909838974475860595703125</LongitudeDegrees>
            </Position>
            <AltitudeMeters>597</AltitudeMeters>
            <DistanceMeters>NAN</DistanceMeters>
          </Trackpoint>
          <Trackpoint>
            <Time>2021-08-14T09:17:10.000Z</Time>
            <Position>
              <LatitudeDegrees>43.0104191601276397705078125</LatitudeDegrees>
              <LongitudeDegrees>-1.89748995937407016754150390625</LongitudeDegrees>
            </Position>
            <AltitudeMeters>596.79998779296875</AltitudeMeters>
            <DistanceMeters>NAN</DistanceMeters>
          </Trackpoint>
          <Trackpoint>
            <Time>2021-08-14T09:17:11.000Z</Time>
            <Position>
              <LatitudeDegrees>43.01041220314800739288330078125</LatitudeDegrees>
              <LongitudeDegrees>-1.89744100905954837799072265625</LongitudeDegrees>
            </Position>
            <AltitudeMeters>596.79998779296875</AltitudeMeters>
            <DistanceMeters>NAN</DistanceMeters>
          </Trackpoint>
          <Trackpoint>
            <Time>2021-08-14T09:17:12.000Z</Time>
            <Position>
              <LatitudeDegrees>43.0104062519967555999755859375</LatitudeDegrees>
              <LongitudeDegrees>-1.89739574678242206573486328125</LongitudeDegrees>
            </Position>
            <AltitudeMeters>597</AltitudeMeters>
            <DistanceMeters>NAN</DistanceMeters>
          </Trackpoint>
          <Trackpoint>
            <Time>2021-08-14T09:17:13.000Z</Time>
            <Position>
              <LatitudeDegrees>43.0104012228548526763916015625</LatitudeDegrees>
              <LongitudeDegrees>-1.89735241234302520751953125</LongitudeDegrees>
            </Position>
            <AltitudeMeters>597</AltitudeMeters>
            <DistanceMeters>NAN</DistanceMeters>
          </Trackpoint>
          <Trackpoint>
            <Time>2021-08-14T09:17:14.000Z</Time>
            <Position>
              <LatitudeDegrees>43.01039543934166431427001953125</LatitudeDegrees>
              <LongitudeDegrees>-1.8973073177039623260498046875</LongitudeDegrees>
            </Position>
            <AltitudeMeters>597.20001220703125</AltitudeMeters>
            <DistanceMeters>NAN</DistanceMeters>
          </Trackpoint>
          <Trackpoint>
            <Time>2021-08-14T09:17:15.000Z</Time>
            <Position>
              <LatitudeDegrees>43.01039124839007854461669921875</LatitudeDegrees>
              <LongitudeDegrees>-1.89726331271231174468994140625</LongitudeDegrees>
            </Position>
            <AltitudeMeters>597.5999755859375</AltitudeMeters>
            <DistanceMeters>NAN</DistanceMeters>
          </Trackpoint>
          <Trackpoint>
            <Time>2021-08-14T09:17:18.000Z</Time>
            <Position>
              <LatitudeDegrees>43.0103851296007633209228515625</LatitudeDegrees>
              <LongitudeDegrees>-1.89712551422417163848876953125</LongitudeDegrees>
            </Position>
            <AltitudeMeters>598.20001220703125</AltitudeMeters>
            <DistanceMeters>NAN</DistanceMeters>
          </Trackpoint>
          <Trackpoint>
            <Time>2021-08-14T09:17:19.000Z</Time>
            <Position>
              <LatitudeDegrees>43.01038722507655620574951171875</LatitudeDegrees>
              <LongitudeDegrees>-1.89707455225288867950439453125</LongitudeDegrees>
            </Position>
            <AltitudeMeters>598.4000244140625</AltitudeMeters>
            <DistanceMeters>NAN</DistanceMeters>
          </Trackpoint>
          <Trackpoint>
            <Time>2021-08-14T09:17:22.000Z</Time>
            <Position>
              <LatitudeDegrees>43.0104039050638675689697265625</LatitudeDegrees>
              <LongitudeDegrees>-1.89691211096942424774169921875</LongitudeDegrees>
            </Position>
            <AltitudeMeters>598.79998779296875</AltitudeMeters>
            <DistanceMeters>NAN</DistanceMeters>
          </Trackpoint>
          <Trackpoint>
            <Time>2021-08-14T09:17:23.000Z</Time>
            <Position>
              <LatitudeDegrees>43.01041119731962680816650390625</LatitudeDegrees>
              <LongitudeDegrees>-1.8968595564365386962890625</LongitudeDegrees>
            </Position>
            <AltitudeMeters>598.79998779296875</AltitudeMeters>
            <DistanceMeters>NAN</DistanceMeters>
          </Trackpoint>
          <Trackpoint>
            <Time>2021-08-14T09:17:25.000Z</Time>
            <Position>
              <LatitudeDegrees>43.01043282262980937957763671875</LatitudeDegrees>
              <LongitudeDegrees>-1.89676232635974884033203125</LongitudeDegrees>
            </Position>
            <AltitudeMeters>598.79998779296875</AltitudeMeters>
            <DistanceMeters>NAN</DistanceMeters>
          </Trackpoint>
          <Trackpoint>
            <Time>2021-08-14T09:17:29.000Z</Time>
            <Position>
              <LatitudeDegrees>43.01050364971160888671875</LatitudeDegrees>
              <LongitudeDegrees>-1.89662612043321132659912109375</LongitudeDegrees>
            </Position>
            <AltitudeMeters>598.79998779296875</AltitudeMeters>
            <DistanceMeters>NAN</DistanceMeters>
          </Trackpoint>
          <Trackpoint>
            <Time>2021-08-14T09:17:30.000Z</Time>
            <Position>
              <LatitudeDegrees>43.01051094196736812591552734375</LatitudeDegrees>
              <LongitudeDegrees>-1.8966032378375530242919921875</LongitudeDegrees>
            </Position>
            <AltitudeMeters>598.79998779296875</AltitudeMeters>
            <DistanceMeters>NAN</DistanceMeters>
          </Trackpoint>
          <Trackpoint>
            <Time>2021-08-14T09:17:31.000Z</Time>
            <Position>
              <LatitudeDegrees>43.01051697693765163421630859375</LatitudeDegrees>
              <LongitudeDegrees>-1.89657499082386493682861328125</LongitudeDegrees>
            </Position>
            <AltitudeMeters>598.79998779296875</AltitudeMeters>
            <DistanceMeters>NAN</DistanceMeters>
          </Trackpoint>
          <Trackpoint>
            <Time>2021-08-14T09:17:32.000Z</Time>
            <Position>
              <LatitudeDegrees>43.0105225928127765655517578125</LatitudeDegrees>
              <LongitudeDegrees>-1.89654800109565258026123046875</LongitudeDegrees>
            </Position>
            <AltitudeMeters>598.79998779296875</AltitudeMeters>
            <DistanceMeters>NAN</DistanceMeters>
          </Trackpoint>
          <Trackpoint>
            <Time>2021-08-14T09:17:36.000Z</Time>
            <Position>
              <LatitudeDegrees>43.01056726835668087005615234375</LatitudeDegrees>
              <LongitudeDegrees>-1.89639360643923282623291015625</LongitudeDegrees>
            </Position>
            <AltitudeMeters>598.5999755859375</AltitudeMeters>
            <DistanceMeters>NAN</DistanceMeters>
          </Trackpoint>
          <Trackpoint>
            <Time>2021-08-14T09:17:38.000Z</Time>
            <Position>
              <LatitudeDegrees>43.01059073768556118011474609375</LatitudeDegrees>
              <LongitudeDegrees>-1.89631171524524688720703125</LongitudeDegrees>
            </Position>
            <AltitudeMeters>598.5999755859375</AltitudeMeters>
            <DistanceMeters>NAN</DistanceMeters>
          </Trackpoint>
          <Trackpoint>
            <Time>2021-08-14T09:17:39.000Z</Time>
            <Position>
              <LatitudeDegrees>43.01060817204415798187255859375</LatitudeDegrees>
              <LongitudeDegrees>-1.89626268111169338226318359375</LongitudeDegrees>
            </Position>
            <AltitudeMeters>598.5999755859375</AltitudeMeters>
            <DistanceMeters>NAN</DistanceMeters>
          </Trackpoint>
          <Trackpoint>
            <Time>2021-08-14T09:17:40.000Z</Time>
            <Position>
              <LatitudeDegrees>43.010629378259181976318359375</LatitudeDegrees>
              <LongitudeDegrees>-1.8962163291871547698974609375</LongitudeDegrees>
            </Position>
            <AltitudeMeters>598.5999755859375</AltitudeMeters>
            <DistanceMeters>NAN</DistanceMeters>
          </Trackpoint>
          <Trackpoint>
            <Time>2021-08-14T09:17:41.000Z</Time>
            <Position>
              <LatitudeDegrees>43.0106499977409839630126953125</LatitudeDegrees>
              <LongitudeDegrees>-1.89616846852004528045654296875</LongitudeDegrees>
            </Position>
            <AltitudeMeters>598.5999755859375</AltitudeMeters>
            <DistanceMeters>NAN</DistanceMeters>
          </Trackpoint>
          <Trackpoint>
            <Time>2021-08-14T09:17:45.000Z</Time>
            <Position>
              <LatitudeDegrees>43.01076960749924182891845703125</LatitudeDegrees>
              <LongitudeDegrees>-1.8959407322108745574951171875</LongitudeDegrees>
            </Position>
            <AltitudeMeters>598</AltitudeMeters>
            <DistanceMeters>NAN</DistanceMeters>
          </Trackpoint>
          <Trackpoint>
            <Time>2021-08-14T09:17:46.000Z</Time>
            <Position>
              <LatitudeDegrees>43.01078033633530139923095703125</LatitudeDegrees>
              <LongitudeDegrees>-1.89589538611471652984619140625</LongitudeDegrees>
            </Position>
            <AltitudeMeters>597.5999755859375</AltitudeMeters>
            <DistanceMeters>NAN</DistanceMeters>
          </Trackpoint>
          <Trackpoint>
            <Time>2021-08-14T09:17:47.000Z</Time>
            <Position>
              <LatitudeDegrees>43.01079290919005870819091796875</LatitudeDegrees>
              <LongitudeDegrees>-1.89584040082991123199462890625</LongitudeDegrees>
            </Position>
            <AltitudeMeters>597.4000244140625</AltitudeMeters>
            <DistanceMeters>NAN</DistanceMeters>
          </Trackpoint>
          <Trackpoint>
            <Time>2021-08-14T09:17:49.000Z</Time>
            <Position>
              <LatitudeDegrees>43.01082191057503223419189453125</LatitudeDegrees>
              <LongitudeDegrees>-1.89577083103358745574951171875</LongitudeDegrees>
            </Position>
            <AltitudeMeters>597.20001220703125</AltitudeMeters>
            <DistanceMeters>NAN</DistanceMeters>
          </Trackpoint>
          <Trackpoint>
            <Time>2021-08-14T09:17:53.000Z</Time>
            <Position>
              <LatitudeDegrees>43.0108967609703540802001953125</LatitudeDegrees>
              <LongitudeDegrees>-1.89559397287666797637939453125</LongitudeDegrees>
            </Position>
            <AltitudeMeters>596.5999755859375</AltitudeMeters>
            <DistanceMeters>NAN</DistanceMeters>
          </Trackpoint>
          <Trackpoint>
            <Time>2021-08-14T09:17:54.000Z</Time>
            <Position>
              <LatitudeDegrees>43.010913021862506866455078125</LatitudeDegrees>
              <LongitudeDegrees>-1.89555935561656951904296875</LongitudeDegrees>
            </Position>
            <AltitudeMeters>596.4000244140625</AltitudeMeters>
            <DistanceMeters>NAN</DistanceMeters>
          </Trackpoint>
          <Trackpoint>
            <Time>2021-08-14T09:17:55.000Z</Time>
            <Position>
              <LatitudeDegrees>43.010927103459835052490234375</LatitudeDegrees>
              <LongitudeDegrees>-1.89552088268101215362548828125</LongitudeDegrees>
            </Position>
            <AltitudeMeters>596.4000244140625</AltitudeMeters>
            <DistanceMeters>NAN</DistanceMeters>
          </Trackpoint>
          <Trackpoint>
            <Time>2021-08-14T09:17:57.000Z</Time>
            <Position>
              <LatitudeDegrees>43.01095903851091861724853515625</LatitudeDegrees>
              <LongitudeDegrees>-1.89544938504695892333984375</LongitudeDegrees>
            </Position>
            <AltitudeMeters>596</AltitudeMeters>
            <DistanceMeters>NAN</DistanceMeters>
          </Trackpoint>
          <Trackpoint>
            <Time>2021-08-14T09:17:59.000Z</Time>
            <Position>
              <LatitudeDegrees>43.01099658943712711334228515625</LatitudeDegrees>
              <LongitudeDegrees>-1.8953680805861949920654296875</LongitudeDegrees>
            </Position>
            <AltitudeMeters>595.79998779296875</AltitudeMeters>
            <DistanceMeters>NAN</DistanceMeters>
          </Trackpoint>
          <Trackpoint>
            <Time>2021-08-14T09:18:08.000Z</Time>
            <Position>
              <LatitudeDegrees>43.01110790111124515533447265625</LatitudeDegrees>
              <LongitudeDegrees>-1.89501352608203887939453125</LongitudeDegrees>
            </Position>
            <AltitudeMeters>595.4000244140625</AltitudeMeters>
            <DistanceMeters>NAN</DistanceMeters>
          </Trackpoint>
          <Trackpoint>
            <Time>2021-08-14T09:18:11.000Z</Time>
            <Position>
              <LatitudeDegrees>43.01114536821842193603515625</LatitudeDegrees>
              <LongitudeDegrees>-1.89489626325666904449462890625</LongitudeDegrees>
            </Position>
            <AltitudeMeters>595</AltitudeMeters>
            <DistanceMeters>NAN</DistanceMeters>
          </Trackpoint>
          <Trackpoint>
            <Time>2021-08-14T09:18:17.000Z</Time>
            <Position>
              <LatitudeDegrees>43.01118400879204273223876953125</LatitudeDegrees>
              <LongitudeDegrees>-1.8946254439651966094970703125</LongitudeDegrees>
            </Position>
            <AltitudeMeters>594.20001220703125</AltitudeMeters>
            <DistanceMeters>NAN</DistanceMeters>
          </Trackpoint>
          <Trackpoint>
            <Time>2021-08-14T09:18:22.000Z</Time>
            <Position>
              <LatitudeDegrees>43.011204712092876434326171875</LatitudeDegrees>
              <LongitudeDegrees>-1.8943847157061100006103515625</LongitudeDegrees>
            </Position>
            <AltitudeMeters>594.20001220703125</AltitudeMeters>
            <DistanceMeters>NAN</DistanceMeters>
          </Trackpoint>
          <Trackpoint>
            <Time>2021-08-14T09:18:24.000Z</Time>
            <Position>
              <LatitudeDegrees>43.011209405958652496337890625</LatitudeDegrees>
              <LongitudeDegrees>-1.89429796300828456878662109375</LongitudeDegrees>
            </Position>
            <AltitudeMeters>594</AltitudeMeters>
            <DistanceMeters>NAN</DistanceMeters>
          </Trackpoint>
          <Trackpoint>
            <Time>2021-08-14T09:18:30.000Z</Time>
            <Position>
              <LatitudeDegrees>43.01119691692292690277099609375</LatitudeDegrees>
              <LongitudeDegrees>-1.89403376542031764984130859375</LongitudeDegrees>
            </Position>
            <AltitudeMeters>593.79998779296875</AltitudeMeters>
            <DistanceMeters>NAN</DistanceMeters>
          </Trackpoint>
          <Trackpoint>
            <Time>2021-08-14T09:18:31.000Z</Time>
            <Position>
              <LatitudeDegrees>43.011193312704563140869140625</LatitudeDegrees>
              <LongitudeDegrees>-1.893999315798282623291015625</LongitudeDegrees>
            </Position>
            <AltitudeMeters>593.79998779296875</AltitudeMeters>
            <DistanceMeters>NAN</DistanceMeters>
          </Trackpoint>
          <Trackpoint>
            <Time>2021-08-14T09:18:32.000Z</Time>
            <Position>
              <LatitudeDegrees>43.0111874453723430633544921875</LatitudeDegrees>
              <LongitudeDegrees>-1.893959082663059234619140625</LongitudeDegrees>
            </Position>
            <AltitudeMeters>593.79998779296875</AltitudeMeters>
            <DistanceMeters>NAN</DistanceMeters>
          </Trackpoint>
          <Trackpoint>
            <Time>2021-08-14T09:18:33.000Z</Time>
            <Position>
              <LatitudeDegrees>43.011180572211742401123046875</LatitudeDegrees>
              <LongitudeDegrees>-1.89392396248877048492431640625</LongitudeDegrees>
            </Position>
            <AltitudeMeters>593.79998779296875</AltitudeMeters>
            <DistanceMeters>NAN</DistanceMeters>
          </Trackpoint>
          <Trackpoint>
            <Time>2021-08-14T09:18:34.000Z</Time>
            <Position>
              <LatitudeDegrees>43.01117353141307830810546875</LatitudeDegrees>
              <LongitudeDegrees>-1.89389169216156005859375</LongitudeDegrees>
            </Position>
            <AltitudeMeters>593.5999755859375</AltitudeMeters>
            <DistanceMeters>NAN</DistanceMeters>
          </Trackpoint>
          <Trackpoint>
            <Time>2021-08-14T09:18:35.000Z</Time>
            <Position>
              <LatitudeDegrees>43.011165149509906768798828125</LatitudeDegrees>
              <LongitudeDegrees>-1.89386151731014251708984375</LongitudeDegrees>
            </Position>
            <AltitudeMeters>593.5999755859375</AltitudeMeters>
            <DistanceMeters>NAN</DistanceMeters>
          </Trackpoint>
          <Trackpoint>
            <Time>2021-08-14T09:18:36.000Z</Time>
            <Position>
              <LatitudeDegrees>43.01115450449287891387939453125</LatitudeDegrees>
              <LongitudeDegrees>-1.89383125863969326019287109375</LongitudeDegrees>
            </Position>
            <AltitudeMeters>593.5999755859375</AltitudeMeters>
            <DistanceMeters>NAN</DistanceMeters>
          </Trackpoint>
          <Trackpoint>
            <Time>2021-08-14T09:18:37.000Z</Time>
            <Position>
              <LatitudeDegrees>43.011138327419757843017578125</LatitudeDegrees>
              <LongitudeDegrees>-1.89379320479929447174072265625</LongitudeDegrees>
            </Position>
            <AltitudeMeters>593.4000244140625</AltitudeMeters>
            <DistanceMeters>NAN</DistanceMeters>
          </Trackpoint>
          <Trackpoint>
            <Time>2021-08-14T09:18:40.000Z</Time>
            <Position>
              <LatitudeDegrees>43.0110918916761875152587890625</LatitudeDegrees>
              <LongitudeDegrees>-1.89369429834187030792236328125</LongitudeDegrees>
            </Position>
            <AltitudeMeters>593.4000244140625</AltitudeMeters>
            <DistanceMeters>NAN</DistanceMeters>
          </Trackpoint>
          <Trackpoint>
            <Time>2021-08-14T09:18:41.000Z</Time>
            <Position>
              <LatitudeDegrees>43.01108007319271564483642578125</LatitudeDegrees>
              <LongitudeDegrees>-1.8936692364513874053955078125</LongitudeDegrees>
            </Position>
            <AltitudeMeters>593.4000244140625</AltitudeMeters>
            <DistanceMeters>NAN</DistanceMeters>
          </Trackpoint>
          <Trackpoint>
            <Time>2021-08-14T09:18:42.000Z</Time>
            <Position>
              <LatitudeDegrees>43.01106951199471950531005859375</LatitudeDegrees>
              <LongitudeDegrees>-1.89365423284471035003662109375</LongitudeDegrees>
            </Position>
            <AltitudeMeters>593.4000244140625</AltitudeMeters>
            <DistanceMeters>NAN</DistanceMeters>
          </Trackpoint>
          <Trackpoint>
            <Time>2021-08-14T09:18:43.000Z</Time>
            <Position>
              <LatitudeDegrees>43.011059872806072235107421875</LatitudeDegrees>
              <LongitudeDegrees>-1.89363948069512844085693359375</LongitudeDegrees>
            </Position>
            <AltitudeMeters>593.20001220703125</AltitudeMeters>
            <DistanceMeters>NAN</DistanceMeters>
          </Trackpoint>
          <Trackpoint>
            <Time>2021-08-14T09:18:44.000Z</Time>
            <Position>
              <LatitudeDegrees>43.011053837835788726806640625</LatitudeDegrees>
              <LongitudeDegrees>-1.8936249800026416778564453125</LongitudeDegrees>
            </Position>
            <AltitudeMeters>593.20001220703125</AltitudeMeters>
            <DistanceMeters>NAN</DistanceMeters>
          </Trackpoint>
          <Trackpoint>
            <Time>2021-08-14T09:18:45.000Z</Time>
            <Position>
              <LatitudeDegrees>43.0110454559326171875</LatitudeDegrees>
              <LongitudeDegrees>-1.8936078809201717376708984375</LongitudeDegrees>
            </Position>
            <AltitudeMeters>593.20001220703125</AltitudeMeters>
            <DistanceMeters>NAN</DistanceMeters>
          </Trackpoint>
          <Trackpoint>
            <Time>2021-08-14T09:18:47.000Z</Time>
            <Position>
              <LatitudeDegrees>43.01103061996400356292724609375</LatitudeDegrees>
              <LongitudeDegrees>-1.8935818970203399658203125</LongitudeDegrees>
            </Position>
            <AltitudeMeters>593.20001220703125</AltitudeMeters>
            <DistanceMeters>NAN</DistanceMeters>
          </Trackpoint>
          <Trackpoint>
            <Time>2021-08-14T09:18:48.000Z</Time>
            <Position>
              <LatitudeDegrees>43.01102492026984691619873046875</LatitudeDegrees>
              <LongitudeDegrees>-1.8935689888894557952880859375</LongitudeDegrees>
            </Position>
            <AltitudeMeters>593.20001220703125</AltitudeMeters>
            <DistanceMeters>NAN</DistanceMeters>
          </Trackpoint>
          <Trackpoint>
            <Time>2021-08-14T09:18:49.000Z</Time>
            <Position>
              <LatitudeDegrees>43.0110198073089122772216796875</LatitudeDegrees>
              <LongitudeDegrees>-1.89355582930147647857666015625</LongitudeDegrees>
            </Position>
            <AltitudeMeters>593.20001220703125</AltitudeMeters>
            <DistanceMeters>NAN</DistanceMeters>
          </Trackpoint>
          <Trackpoint>
            <Time>2021-08-14T09:18:50.000Z</Time>
            <Position>
              <LatitudeDegrees>43.01101603545248508453369140625</LatitudeDegrees>
              <LongitudeDegrees>-1.8935411609709262847900390625</LongitudeDegrees>
            </Position>
            <AltitudeMeters>593.20001220703125</AltitudeMeters>
            <DistanceMeters>NAN</DistanceMeters>
          </Trackpoint>
          <Trackpoint>
            <Time>2021-08-14T09:18:51.000Z</Time>
            <Position>
              <LatitudeDegrees>43.01101125776767730712890625</LatitudeDegrees>
              <LongitudeDegrees>-1.89351928420364856719970703125</LongitudeDegrees>
            </Position>
            <AltitudeMeters>593.20001220703125</AltitudeMeters>
            <DistanceMeters>NAN</DistanceMeters>
          </Trackpoint>
          <Trackpoint>
            <Time>2021-08-14T09:18:54.000Z</Time>
            <Position>
              <LatitudeDegrees>43.0109772272408008575439453125</LatitudeDegrees>
              <LongitudeDegrees>-1.8934603594243526458740234375</LongitudeDegrees>
            </Position>
            <AltitudeMeters>593.20001220703125</AltitudeMeters>
            <DistanceMeters>NAN</DistanceMeters>
          </Trackpoint>
          <Trackpoint>
            <Time>2021-08-14T09:18:55.000Z</Time>
            <Position>
              <LatitudeDegrees>43.01096842624247074127197265625</LatitudeDegrees>
              <LongitudeDegrees>-1.89344787038862705230712890625</LongitudeDegrees>
            </Position>
            <AltitudeMeters>593.20001220703125</AltitudeMeters>
            <DistanceMeters>NAN</DistanceMeters>
          </Trackpoint>
          <Trackpoint>
            <Time>2021-08-14T09:18:56.000Z</Time>
            <Position>
              <LatitudeDegrees>43.01096490584313869476318359375</LatitudeDegrees>
              <LongitudeDegrees>-1.89343160949647426605224609375</LongitudeDegrees>
            </Position>
            <AltitudeMeters>593.20001220703125</AltitudeMeters>
            <DistanceMeters>NAN</DistanceMeters>
          </Trackpoint>
          <Trackpoint>
            <Time>2021-08-14T09:18:58.000Z</Time>
            <Position>
              <LatitudeDegrees>43.01094730384647846221923828125</LatitudeDegrees>
              <LongitudeDegrees>-1.89339087344706058502197265625</LongitudeDegrees>
            </Position>
            <AltitudeMeters>593.20001220703125</AltitudeMeters>
            <DistanceMeters>NAN</DistanceMeters>
          </Trackpoint>
          <Trackpoint>
            <Time>2021-08-14T09:19:01.000Z</Time>
            <Position>
              <LatitudeDegrees>43.01089600659906864166259765625</LatitudeDegrees>
              <LongitudeDegrees>-1.89334326423704624176025390625</LongitudeDegrees>
            </Position>
            <AltitudeMeters>593.20001220703125</AltitudeMeters>
            <DistanceMeters>NAN</DistanceMeters>
          </Trackpoint>
          <Trackpoint>
            <Time>2021-08-14T09:19:02.000Z</Time>
            <Position>
              <LatitudeDegrees>43.01089600659906864166259765625</LatitudeDegrees>
              <LongitudeDegrees>-1.89334326423704624176025390625</LongitudeDegrees>
            </Position>
            <AltitudeMeters>593</AltitudeMeters>
            <DistanceMeters>NAN</DistanceMeters>
          </Trackpoint>
          <Trackpoint>
            <Time>2021-08-14T09:19:03.000Z</Time>
            <Position>
              <LatitudeDegrees>43.01087136380374431610107421875</LatitudeDegrees>
              <LongitudeDegrees>-1.89331627450883388519287109375</LongitudeDegrees>
            </Position>
            <AltitudeMeters>593</AltitudeMeters>
            <DistanceMeters>NAN</DistanceMeters>
          </Trackpoint>
          <Trackpoint>
            <Time>2021-08-14T09:19:04.000Z</Time>
            <Position>
              <LatitudeDegrees>43.01086314953863620758056640625</LatitudeDegrees>
              <LongitudeDegrees>-1.8933037854731082916259765625</LongitudeDegrees>
            </Position>
            <AltitudeMeters>593</AltitudeMeters>
            <DistanceMeters>NAN</DistanceMeters>
          </Trackpoint>
          <Trackpoint>
            <Time>2021-08-14T09:19:05.000Z</Time>
            <Position>
              <LatitudeDegrees>43.01086113788187503814697265625</LatitudeDegrees>
              <LongitudeDegrees>-1.8932917155325412750244140625</LongitudeDegrees>
            </Position>
            <AltitudeMeters>593</AltitudeMeters>
            <DistanceMeters>NAN</DistanceMeters>
          </Trackpoint>
          <Trackpoint>
            <Time>2021-08-14T09:19:06.000Z</Time>
            <Position>
              <LatitudeDegrees>43.01085996441543102264404296875</LatitudeDegrees>
              <LongitudeDegrees>-1.8932783044874668121337890625</LongitudeDegrees>
            </Position>
            <AltitudeMeters>593</AltitudeMeters>
            <DistanceMeters>NAN</DistanceMeters>
          </Trackpoint>
          <Trackpoint>
            <Time>2021-08-14T09:19:07.000Z</Time>
            <Position>
              <LatitudeDegrees>43.01084873266518115997314453125</LatitudeDegrees>
              <LongitudeDegrees>-1.8932652287185192108154296875</LongitudeDegrees>
            </Position>
            <AltitudeMeters>593</AltitudeMeters>
            <DistanceMeters>NAN</DistanceMeters>
          </Trackpoint>
          <Trackpoint>
            <Time>2021-08-14T09:19:08.000Z</Time>
            <Position>
              <LatitudeDegrees>43.01083582453429698944091796875</LatitudeDegrees>
              <LongitudeDegrees>-1.893249638378620147705078125</LongitudeDegrees>
            </Position>
            <AltitudeMeters>593</AltitudeMeters>
            <DistanceMeters>NAN</DistanceMeters>
          </Trackpoint>
          <Trackpoint>
            <Time>2021-08-14T09:19:09.000Z</Time>
            <Position>
              <LatitudeDegrees>43.01083582453429698944091796875</LatitudeDegrees>
              <LongitudeDegrees>-1.893249638378620147705078125</LongitudeDegrees>
            </Position>
            <AltitudeMeters>593</AltitudeMeters>
            <DistanceMeters>NAN</DistanceMeters>
          </Trackpoint>
          <Trackpoint>
            <Time>2021-08-14T09:19:10.000Z</Time>
            <Position>
              <LatitudeDegrees>43.010805733501911163330078125</LatitudeDegrees>
              <LongitudeDegrees>-1.8932146020233631134033203125</LongitudeDegrees>
            </Position>
            <AltitudeMeters>593</AltitudeMeters>
            <DistanceMeters>NAN</DistanceMeters>
          </Trackpoint>
          <Trackpoint>
            <Time>2021-08-14T09:19:11.000Z</Time>
            <Position>
              <LatitudeDegrees>43.0107918195426464080810546875</LatitudeDegrees>
              <LongitudeDegrees>-1.89319490455090999603271484375</LongitudeDegrees>
            </Position>
            <AltitudeMeters>593</AltitudeMeters>
            <DistanceMeters>NAN</DistanceMeters>
          </Trackpoint>
          <Trackpoint>
            <Time>2021-08-14T09:19:12.000Z</Time>
            <Position>
              <LatitudeDegrees>43.0107730440795421600341796875</LatitudeDegrees>
              <LongitudeDegrees>-1.893180571496486663818359375</LongitudeDegrees>
            </Position>
            <AltitudeMeters>593</AltitudeMeters>
            <DistanceMeters>NAN</DistanceMeters>
          </Trackpoint>
          <Trackpoint>
            <Time>2021-08-14T09:19:13.000Z</Time>
            <Position>
              <LatitudeDegrees>43.01075753755867481231689453125</LatitudeDegrees>
              <LongitudeDegrees>-1.89316774718463420867919921875</LongitudeDegrees>
            </Position>
            <AltitudeMeters>593</AltitudeMeters>
            <DistanceMeters>NAN</DistanceMeters>
          </Trackpoint>
          <Trackpoint>
            <Time>2021-08-14T09:19:14.000Z</Time>
            <Position>
              <LatitudeDegrees>43.01075032912194728851318359375</LatitudeDegrees>
              <LongitudeDegrees>-1.893154419958591461181640625</LongitudeDegrees>
            </Position>
            <AltitudeMeters>593</AltitudeMeters>
            <DistanceMeters>NAN</DistanceMeters>
          </Trackpoint>
          <Trackpoint>
            <Time>2021-08-14T09:19:15.000Z</Time>
            <Position>
              <LatitudeDegrees>43.010735996067523956298828125</LatitudeDegrees>
              <LongitudeDegrees>-1.8931348063051700592041015625</LongitudeDegrees>
            </Position>
            <AltitudeMeters>593</AltitudeMeters>
            <DistanceMeters>NAN</DistanceMeters>
          </Trackpoint>
          <Trackpoint>
            <Time>2021-08-14T09:19:18.000Z</Time>
            <Position>
              <LatitudeDegrees>43.01066282205283641815185546875</LatitudeDegrees>
              <LongitudeDegrees>-1.8930851854383945465087890625</LongitudeDegrees>
            </Position>
            <AltitudeMeters>593</AltitudeMeters>
            <DistanceMeters>NAN</DistanceMeters>
          </Trackpoint>
          <Trackpoint>
            <Time>2021-08-14T09:19:19.000Z</Time>
            <Position>
              <LatitudeDegrees>43.01063977181911468505859375</LatitudeDegrees>
              <LongitudeDegrees>-1.8930747918784618377685546875</LongitudeDegrees>
            </Position>
            <AltitudeMeters>593</AltitudeMeters>
            <DistanceMeters>NAN</DistanceMeters>
          </Trackpoint>
          <Trackpoint>
            <Time>2021-08-14T09:19:23.000Z</Time>
            <Position>
              <LatitudeDegrees>43.0104944296181201934814453125</LatitudeDegrees>
              <LongitudeDegrees>-1.89301569946110248565673828125</LongitudeDegrees>
            </Position>
            <AltitudeMeters>592.79998779296875</AltitudeMeters>
            <DistanceMeters>NAN</DistanceMeters>
          </Trackpoint>
          <Trackpoint>
            <Time>2021-08-14T09:19:24.000Z</Time>
            <Position>
              <LatitudeDegrees>43.01045562140643596649169921875</LatitudeDegrees>
              <LongitudeDegrees>-1.8929966725409030914306640625</LongitudeDegrees>
            </Position>
            <AltitudeMeters>592.79998779296875</AltitudeMeters>
            <DistanceMeters>NAN</DistanceMeters>
          </Trackpoint>
          <Trackpoint>
            <Time>2021-08-14T09:19:29.000Z</Time>
            <Position>
              <LatitudeDegrees>43.01022210158407688140869140625</LatitudeDegrees>
              <LongitudeDegrees>-1.89291193149983882904052734375</LongitudeDegrees>
            </Position>
            <AltitudeMeters>592.4000244140625</AltitudeMeters>
            <DistanceMeters>NAN</DistanceMeters>
          </Trackpoint>
          <Trackpoint>
            <Time>2021-08-14T09:19:31.000Z</Time>
            <Position>
              <LatitudeDegrees>43.0101348459720611572265625</LatitudeDegrees>
              <LongitudeDegrees>-1.89289265312254428863525390625</LongitudeDegrees>
            </Position>
            <AltitudeMeters>592.20001220703125</AltitudeMeters>
            <DistanceMeters>NAN</DistanceMeters>
          </Trackpoint>
          <Trackpoint>
            <Time>2021-08-14T09:19:35.000Z</Time>
            <Position>
              <LatitudeDegrees>43.00994901917874813079833984375</LatitudeDegrees>
              <LongitudeDegrees>-1.892881505191326141357421875</LongitudeDegrees>
            </Position>
            <AltitudeMeters>591.4000244140625</AltitudeMeters>
            <DistanceMeters>NAN</DistanceMeters>
          </Trackpoint>
          <Trackpoint>
            <Time>2021-08-14T09:19:37.000Z</Time>
            <Position>
              <LatitudeDegrees>43.00986620597541332244873046875</LatitudeDegrees>
              <LongitudeDegrees>-1.89287622459232807159423828125</LongitudeDegrees>
            </Position>
            <AltitudeMeters>591.20001220703125</AltitudeMeters>
            <DistanceMeters>NAN</DistanceMeters>
          </Trackpoint>
          <Trackpoint>
            <Time>2021-08-14T09:19:42.000Z</Time>
            <Position>
              <LatitudeDegrees>43.00966319628059864044189453125</LatitudeDegrees>
              <LongitudeDegrees>-1.8928622268140316009521484375</LongitudeDegrees>
            </Position>
            <AltitudeMeters>590.4000244140625</AltitudeMeters>
            <DistanceMeters>NAN</DistanceMeters>
          </Trackpoint>
          <Trackpoint>
            <Time>2021-08-14T09:19:44.000Z</Time>
            <Position>
              <LatitudeDegrees>43.009585998952388763427734375</LatitudeDegrees>
              <LongitudeDegrees>-1.89285526983439922332763671875</LongitudeDegrees>
            </Position>
            <AltitudeMeters>590</AltitudeMeters>
            <DistanceMeters>NAN</DistanceMeters>
          </Trackpoint>
          <Trackpoint>
            <Time>2021-08-14T09:19:45.000Z</Time>
            <Position>
              <LatitudeDegrees>43.00954677164554595947265625</LatitudeDegrees>
              <LongitudeDegrees>-1.89285694621503353118896484375</LongitudeDegrees>
            </Position>
            <AltitudeMeters>590</AltitudeMeters>
            <DistanceMeters>NAN</DistanceMeters>
          </Trackpoint>
          <Trackpoint>
            <Time>2021-08-14T09:19:48.000Z</Time>
            <Position>
              <LatitudeDegrees>43.0094299279153347015380859375</LatitudeDegrees>
              <LongitudeDegrees>-1.892850659787654876708984375</LongitudeDegrees>
            </Position>
            <AltitudeMeters>589.5999755859375</AltitudeMeters>
            <DistanceMeters>NAN</DistanceMeters>
          </Trackpoint>
          <Trackpoint>
            <Time>2021-08-14T09:19:54.000Z</Time>
            <Position>
              <LatitudeDegrees>43.00920252688229084014892578125</LatitudeDegrees>
              <LongitudeDegrees>-1.89284571446478366851806640625</LongitudeDegrees>
            </Position>
            <AltitudeMeters>589</AltitudeMeters>
            <DistanceMeters>NAN</DistanceMeters>
          </Trackpoint>
          <Trackpoint>
            <Time>2021-08-14T09:19:55.000Z</Time>
            <Position>
              <LatitudeDegrees>43.009168244898319244384765625</LatitudeDegrees>
              <LongitudeDegrees>-1.8928461335599422454833984375</LongitudeDegrees>
            </Position>
            <AltitudeMeters>589</AltitudeMeters>
            <DistanceMeters>NAN</DistanceMeters>
          </Trackpoint>
          <Trackpoint>
            <Time>2021-08-14T09:19:56.000Z</Time>
            <Position>
              <LatitudeDegrees>43.00913446582853794097900390625</LatitudeDegrees>
              <LongitudeDegrees>-1.89284940250217914581298828125</LongitudeDegrees>
            </Position>
            <AltitudeMeters>589</AltitudeMeters>
            <DistanceMeters>NAN</DistanceMeters>
          </Trackpoint>
          <Trackpoint>
            <Time>2021-08-14T09:19:57.000Z</Time>
            <Position>
              <LatitudeDegrees>43.0091033689677715301513671875</LatitudeDegrees>
              <LongitudeDegrees>-1.89285594038665294647216796875</LongitudeDegrees>
            </Position>
            <AltitudeMeters>588.79998779296875</AltitudeMeters>
            <DistanceMeters>NAN</DistanceMeters>
          </Trackpoint>
          <Trackpoint>
            <Time>2021-08-14T09:19:59.000Z</Time>
            <Position>
              <LatitudeDegrees>43.0090453661978244781494140625</LatitudeDegrees>
              <LongitudeDegrees>-1.89286834560334682464599609375</LongitudeDegrees>
            </Position>
            <AltitudeMeters>588.79998779296875</AltitudeMeters>
            <DistanceMeters>NAN</DistanceMeters>
          </Trackpoint>
          <Trackpoint>
            <Time>2021-08-14T09:20:00.000Z</Time>
            <Position>
              <LatitudeDegrees>43.0090177059173583984375</LatitudeDegrees>
              <LongitudeDegrees>-1.892866082489490509033203125</LongitudeDegrees>
            </Position>
            <AltitudeMeters>589</AltitudeMeters>
            <DistanceMeters>NAN</DistanceMeters>
          </Trackpoint>
          <Trackpoint>
            <Time>2021-08-14T09:20:01.000Z</Time>
            <Position>
              <LatitudeDegrees>43.00899633206427097320556640625</LatitudeDegrees>
              <LongitudeDegrees>-1.8928618915379047393798828125</LongitudeDegrees>
            </Position>
            <AltitudeMeters>589</AltitudeMeters>
            <DistanceMeters>NAN</DistanceMeters>
          </Trackpoint>
          <Trackpoint>
            <Time>2021-08-14T09:20:02.000Z</Time>
            <Position>
              <LatitudeDegrees>43.00897286273539066314697265625</LatitudeDegrees>
              <LongitudeDegrees>-1.89286298118531703948974609375</LongitudeDegrees>
            </Position>
            <AltitudeMeters>589</AltitudeMeters>
            <DistanceMeters>NAN</DistanceMeters>
          </Trackpoint>
          <Trackpoint>
            <Time>2021-08-14T09:20:03.000Z</Time>
            <Position>
              <LatitudeDegrees>43.0089377425611019134521484375</LatitudeDegrees>
              <LongitudeDegrees>-1.89286130480468273162841796875</LongitudeDegrees>
            </Position>
            <AltitudeMeters>589</AltitudeMeters>
            <DistanceMeters>NAN</DistanceMeters>
          </Trackpoint>
          <Trackpoint>
            <Time>2021-08-14T09:20:07.000Z</Time>
            <Position>
              <LatitudeDegrees>43.0087964236736297607421875</LatitudeDegrees>
              <LongitudeDegrees>-1.89284554682672023773193359375</LongitudeDegrees>
            </Position>
            <AltitudeMeters>589</AltitudeMeters>
            <DistanceMeters>NAN</DistanceMeters>
          </Trackpoint>
          <Trackpoint>
            <Time>2021-08-14T09:20:08.000Z</Time>
            <Position>
              <LatitudeDegrees>43.00875954329967498779296875</LatitudeDegrees>
              <LongitudeDegrees>-1.8928481452167034149169921875</LongitudeDegrees>
            </Position>
            <AltitudeMeters>589</AltitudeMeters>
            <DistanceMeters>NAN</DistanceMeters>
          </Trackpoint>
          <Trackpoint>
            <Time>2021-08-14T09:20:10.000Z</Time>
            <Position>
              <LatitudeDegrees>43.0086809210479259490966796875</LatitudeDegrees>
              <LongitudeDegrees>-1.89284487627446651458740234375</LongitudeDegrees>
            </Position>
            <AltitudeMeters>589</AltitudeMeters>
            <DistanceMeters>NAN</DistanceMeters>
          </Trackpoint>
          <Trackpoint>
            <Time>2021-08-14T09:20:12.000Z</Time>
            <Position>
              <LatitudeDegrees>43.00860741175711154937744140625</LatitudeDegrees>
              <LongitudeDegrees>-1.89284185878932476043701171875</LongitudeDegrees>
            </Position>
            <AltitudeMeters>589.20001220703125</AltitudeMeters>
            <DistanceMeters>NAN</DistanceMeters>
          </Trackpoint>
          <Trackpoint>
            <Time>2021-08-14T09:20:15.000Z</Time>
            <Position>
              <LatitudeDegrees>43.00847682170569896697998046875</LatitudeDegrees>
              <LongitudeDegrees>-1.89282408915460109710693359375</LongitudeDegrees>
            </Position>
            <AltitudeMeters>589.20001220703125</AltitudeMeters>
            <DistanceMeters>NAN</DistanceMeters>
          </Trackpoint>
          <Trackpoint>
            <Time>2021-08-14T09:20:17.000Z</Time>
            <Position>
              <LatitudeDegrees>43.00842569209635257720947265625</LatitudeDegrees>
              <LongitudeDegrees>-1.8927961774170398712158203125</LongitudeDegrees>
            </Position>
            <AltitudeMeters>589.20001220703125</AltitudeMeters>
            <DistanceMeters>NAN</DistanceMeters>
          </Trackpoint>
          <Trackpoint>
            <Time>2021-08-14T09:20:18.000Z</Time>
            <Position>
              <LatitudeDegrees>43.0084100179374217987060546875</LatitudeDegrees>
              <LongitudeDegrees>-1.8927894718945026397705078125</LongitudeDegrees>
            </Position>
            <AltitudeMeters>589.20001220703125</AltitudeMeters>
            <DistanceMeters>NAN</DistanceMeters>
          </Trackpoint>
          <Trackpoint>
            <Time>2021-08-14T09:20:19.000Z</Time>
            <Position>
              <LatitudeDegrees>43.0083972774446010589599609375</LatitudeDegrees>
              <LongitudeDegrees>-1.892789639532566070556640625</LongitudeDegrees>
            </Position>
            <AltitudeMeters>589.20001220703125</AltitudeMeters>
            <DistanceMeters>NAN</DistanceMeters>
          </Trackpoint>
          <Trackpoint>
            <Time>2021-08-14T09:20:20.000Z</Time>
            <Position>
              <LatitudeDegrees>43.00837657414376735687255859375</LatitudeDegrees>
              <LongitudeDegrees>-1.89278938807547092437744140625</LongitudeDegrees>
            </Position>
            <AltitudeMeters>589.20001220703125</AltitudeMeters>
            <DistanceMeters>NAN</DistanceMeters>
          </Trackpoint>
          <Trackpoint>
            <Time>2021-08-14T09:20:21.000Z</Time>
            <Position>
              <LatitudeDegrees>43.008361570537090301513671875</LatitudeDegrees>
              <LongitudeDegrees>-1.8927931599318981170654296875</LongitudeDegrees>
            </Position>
            <AltitudeMeters>589.20001220703125</AltitudeMeters>
            <DistanceMeters>NAN</DistanceMeters>
          </Trackpoint>
          <Trackpoint>
            <Time>2021-08-14T09:20:22.000Z</Time>
            <Position>
              <LatitudeDegrees>43.00834220834076404571533203125</LatitudeDegrees>
              <LongitudeDegrees>-1.8928045593202114105224609375</LongitudeDegrees>
            </Position>
            <AltitudeMeters>589</AltitudeMeters>
            <DistanceMeters>NAN</DistanceMeters>
          </Trackpoint>
          <Trackpoint>
            <Time>2021-08-14T09:20:23.000Z</Time>
            <Position>
              <LatitudeDegrees>43.008320666849613189697265625</LatitudeDegrees>
              <LongitudeDegrees>-1.89283029176294803619384765625</LongitudeDegrees>
            </Position>
            <AltitudeMeters>589</AltitudeMeters>
            <DistanceMeters>NAN</DistanceMeters>
          </Trackpoint>
          <Trackpoint>
            <Time>2021-08-14T09:20:24.000Z</Time>
            <Position>
              <LatitudeDegrees>43.0082997120916843414306640625</LatitudeDegrees>
              <LongitudeDegrees>-1.89286239445209503173828125</LongitudeDegrees>
            </Position>
            <AltitudeMeters>588.79998779296875</AltitudeMeters>
            <DistanceMeters>NAN</DistanceMeters>
          </Trackpoint>
          <Trackpoint>
            <Time>2021-08-14T09:20:25.000Z</Time>
            <Position>
              <LatitudeDegrees>43.0082795955240726470947265625</LatitudeDegrees>
              <LongitudeDegrees>-1.8928987719118595123291015625</LongitudeDegrees>
            </Position>
            <AltitudeMeters>588.5999755859375</AltitudeMeters>
            <DistanceMeters>NAN</DistanceMeters>
          </Trackpoint>
          <Trackpoint>
            <Time>2021-08-14T09:20:26.000Z</Time>
            <Position>
              <LatitudeDegrees>43.008253276348114013671875</LatitudeDegrees>
              <LongitudeDegrees>-1.8929515779018402099609375</LongitudeDegrees>
            </Position>
            <AltitudeMeters>588.4000244140625</AltitudeMeters>
            <DistanceMeters>NAN</DistanceMeters>
          </Trackpoint>
          <Trackpoint>
            <Time>2021-08-14T09:20:27.000Z</Time>
            <Position>
              <LatitudeDegrees>43.0082336626946926116943359375</LatitudeDegrees>
              <LongitudeDegrees>-1.89298820681869983673095703125</LongitudeDegrees>
            </Position>
            <AltitudeMeters>588.20001220703125</AltitudeMeters>
            <DistanceMeters>NAN</DistanceMeters>
          </Trackpoint>
          <Trackpoint>
            <Time>2021-08-14T09:20:30.000Z</Time>
            <Position>
              <LatitudeDegrees>43.008149005472660064697265625</LatitudeDegrees>
              <LongitudeDegrees>-1.89313254319131374359130859375</LongitudeDegrees>
            </Position>
            <AltitudeMeters>587.20001220703125</AltitudeMeters>
            <DistanceMeters>NAN</DistanceMeters>
          </Trackpoint>
          <Trackpoint>
            <Time>2021-08-14T09:20:31.000Z</Time>
            <Position>
              <LatitudeDegrees>43.0081236921250820159912109375</LatitudeDegrees>
              <LongitudeDegrees>-1.89317889511585235595703125</LongitudeDegrees>
            </Position>
            <AltitudeMeters>586.79998779296875</AltitudeMeters>
            <DistanceMeters>NAN</DistanceMeters>
          </Trackpoint>
          <Trackpoint>
            <Time>2021-08-14T09:20:32.000Z</Time>
            <Position>
              <LatitudeDegrees>43.008095361292362213134765625</LatitudeDegrees>
              <LongitudeDegrees>-1.89323027618229389190673828125</LongitudeDegrees>
            </Position>
            <AltitudeMeters>586.5999755859375</AltitudeMeters>
            <DistanceMeters>NAN</DistanceMeters>
          </Trackpoint>
          <Trackpoint>
            <Time>2021-08-14T09:20:33.000Z</Time>
            <Position>
              <LatitudeDegrees>43.00807784311473369598388671875</LatitudeDegrees>
              <LongitudeDegrees>-1.89326095394790172576904296875</LongitudeDegrees>
            </Position>
            <AltitudeMeters>586.20001220703125</AltitudeMeters>
            <DistanceMeters>NAN</DistanceMeters>
          </Trackpoint>
          <Trackpoint>
            <Time>2021-08-14T09:20:34.000Z</Time>
            <Position>
              <LatitudeDegrees>43.008055798709392547607421875</LatitudeDegrees>
              <LongitudeDegrees>-1.89329666085541248321533203125</LongitudeDegrees>
            </Position>
            <AltitudeMeters>585.79998779296875</AltitudeMeters>
            <DistanceMeters>NAN</DistanceMeters>
          </Trackpoint>
          <Trackpoint>
            <Time>2021-08-14T09:20:35.000Z</Time>
            <Position>
              <LatitudeDegrees>43.008027635514736175537109375</LatitudeDegrees>
              <LongitudeDegrees>-1.8933458626270294189453125</LongitudeDegrees>
            </Position>
            <AltitudeMeters>584.79998779296875</AltitudeMeters>
            <DistanceMeters>NAN</DistanceMeters>
          </Trackpoint>
          <Trackpoint>
            <Time>2021-08-14T09:20:38.000Z</Time>
            <Position>
              <LatitudeDegrees>43.00794591195881366729736328125</LatitudeDegrees>
              <LongitudeDegrees>-1.8934985809028148651123046875</LongitudeDegrees>
            </Position>
            <AltitudeMeters>583.4000244140625</AltitudeMeters>
            <DistanceMeters>NAN</DistanceMeters>
          </Trackpoint>
          <Trackpoint>
            <Time>2021-08-14T09:20:39.000Z</Time>
            <Position>
              <LatitudeDegrees>43.00792981870472431182861328125</LatitudeDegrees>
              <LongitudeDegrees>-1.89354375936090946197509765625</LongitudeDegrees>
            </Position>
            <AltitudeMeters>583</AltitudeMeters>
            <DistanceMeters>NAN</DistanceMeters>
          </Trackpoint>
          <Trackpoint>
            <Time>2021-08-14T09:20:40.000Z</Time>
            <Position>
              <LatitudeDegrees>43.0079151503741741180419921875</LatitudeDegrees>
              <LongitudeDegrees>-1.893593631684780120849609375</LongitudeDegrees>
            </Position>
            <AltitudeMeters>582.5999755859375</AltitudeMeters>
            <DistanceMeters>NAN</DistanceMeters>
          </Trackpoint>
          <Trackpoint>
            <Time>2021-08-14T09:20:41.000Z</Time>
            <Position>
              <LatitudeDegrees>43.00789679400622844696044921875</LatitudeDegrees>
              <LongitudeDegrees>-1.89362908713519573211669921875</LongitudeDegrees>
            </Position>
            <AltitudeMeters>582.20001220703125</AltitudeMeters>
            <DistanceMeters>NAN</DistanceMeters>
          </Trackpoint>
          <Trackpoint>
            <Time>2021-08-14T09:20:42.000Z</Time>
            <Position>
              <LatitudeDegrees>43.0078742466866970062255859375</LatitudeDegrees>
              <LongitudeDegrees>-1.893664039671421051025390625</LongitudeDegrees>
            </Position>
            <AltitudeMeters>581.5999755859375</AltitudeMeters>
            <DistanceMeters>NAN</DistanceMeters>
          </Trackpoint>
          <Trackpoint>
            <Time>2021-08-14T09:20:43.000Z</Time>
            <Position>
              <LatitudeDegrees>43.00785069353878498077392578125</LatitudeDegrees>
              <LongitudeDegrees>-1.8936866708099842071533203125</LongitudeDegrees>
            </Position>
            <AltitudeMeters>581.20001220703125</AltitudeMeters>
            <DistanceMeters>NAN</DistanceMeters>
          </Trackpoint>
          <Trackpoint>
            <Time>2021-08-14T09:20:44.000Z</Time>
            <Position>
              <LatitudeDegrees>43.007836528122425079345703125</LatitudeDegrees>
              <LongitudeDegrees>-1.8937020935118198394775390625</LongitudeDegrees>
            </Position>
            <AltitudeMeters>580.79998779296875</AltitudeMeters>
            <DistanceMeters>NAN</DistanceMeters>
          </Trackpoint>
          <Trackpoint>
            <Time>2021-08-14T09:20:45.000Z</Time>
            <Position>
              <LatitudeDegrees>43.00781196914613246917724609375</LatitudeDegrees>
              <LongitudeDegrees>-1.89371190033853054046630859375</LongitudeDegrees>
            </Position>
            <AltitudeMeters>580</AltitudeMeters>
            <DistanceMeters>NAN</DistanceMeters>
          </Trackpoint>
          <Trackpoint>
            <Time>2021-08-14T09:20:46.000Z</Time>
            <Position>
              <LatitudeDegrees>43.0077934451401233673095703125</LatitudeDegrees>
              <LongitudeDegrees>-1.89371089451014995574951171875</LongitudeDegrees>
            </Position>
            <AltitudeMeters>579.79998779296875</AltitudeMeters>
            <DistanceMeters>NAN</DistanceMeters>
          </Trackpoint>
          <Trackpoint>
            <Time>2021-08-14T09:20:47.000Z</Time>
            <Position>
              <LatitudeDegrees>43.00778053700923919677734375</LatitudeDegrees>
              <LongitudeDegrees>-1.8937094695866107940673828125</LongitudeDegrees>
            </Position>
            <AltitudeMeters>579.20001220703125</AltitudeMeters>
            <DistanceMeters>NAN</DistanceMeters>
          </Trackpoint>
          <Trackpoint>
            <Time>2021-08-14T09:20:48.000Z</Time>
            <Position>
              <LatitudeDegrees>43.00777919590473175048828125</LatitudeDegrees>
              <LongitudeDegrees>-1.89370854757726192474365234375</LongitudeDegrees>
            </Position>
            <AltitudeMeters>579</AltitudeMeters>
            <DistanceMeters>NAN</DistanceMeters>
          </Trackpoint>
          <Trackpoint>
            <Time>2021-08-14T09:20:49.000Z</Time>
            <Position>
              <LatitudeDegrees>43.00777919590473175048828125</LatitudeDegrees>
              <LongitudeDegrees>-1.89370854757726192474365234375</LongitudeDegrees>
            </Position>
            <AltitudeMeters>578.5999755859375</AltitudeMeters>
            <DistanceMeters>NAN</DistanceMeters>
          </Trackpoint>
          <Trackpoint>
            <Time>2021-08-14T09:20:56.000Z</Time>
            <Position>
              <LatitudeDegrees>43.00777919590473175048828125</LatitudeDegrees>
              <LongitudeDegrees>-1.89370854757726192474365234375</LongitudeDegrees>
            </Position>
            <AltitudeMeters>577.79998779296875</AltitudeMeters>
            <DistanceMeters>NAN</DistanceMeters>
          </Trackpoint>
          <Trackpoint>
            <Time>2021-08-14T09:21:18.000Z</Time>
            <Position>
              <LatitudeDegrees>43.00777919590473175048828125</LatitudeDegrees>
              <LongitudeDegrees>-1.89370854757726192474365234375</LongitudeDegrees>
            </Position>
            <AltitudeMeters>578</AltitudeMeters>
            <DistanceMeters>NAN</DistanceMeters>
          </Trackpoint>
          <Trackpoint>
            <Time>2021-08-14T09:21:45.000Z</Time>
            <Position>
              <LatitudeDegrees>43.00777944736182689666748046875</LatitudeDegrees>
              <LongitudeDegrees>-1.89371625892817974090576171875</LongitudeDegrees>
            </Position>
            <AltitudeMeters>578</AltitudeMeters>
            <DistanceMeters>NAN</DistanceMeters>
          </Trackpoint>
          <Trackpoint>
            <Time>2021-08-14T09:25:08.000Z</Time>
            <Position>
              <LatitudeDegrees>43.0077307485044002532958984375</LatitudeDegrees>
              <LongitudeDegrees>-1.89369522035121917724609375</LongitudeDegrees>
            </Position>
            <AltitudeMeters>578.5999755859375</AltitudeMeters>
            <DistanceMeters>NAN</DistanceMeters>
          </Trackpoint>
          <Trackpoint>
            <Time>2021-08-14T09:25:10.000Z</Time>
            <Position>
              <LatitudeDegrees>43.00770183093845844268798828125</LatitudeDegrees>
              <LongitudeDegrees>-1.893691532313823699951171875</LongitudeDegrees>
            </Position>
            <AltitudeMeters>578.79998779296875</AltitudeMeters>
            <DistanceMeters>NAN</DistanceMeters>
          </Trackpoint>
          <Trackpoint>
            <Time>2021-08-14T09:25:11.000Z</Time>
            <Position>
              <LatitudeDegrees>43.007689006626605987548828125</LatitudeDegrees>
              <LongitudeDegrees>-1.89368717372417449951171875</LongitudeDegrees>
            </Position>
            <AltitudeMeters>578.79998779296875</AltitudeMeters>
            <DistanceMeters>NAN</DistanceMeters>
          </Trackpoint>
          <Trackpoint>
            <Time>2021-08-14T09:25:16.000Z</Time>
            <Position>
              <LatitudeDegrees>43.00762287341058254241943359375</LatitudeDegrees>
              <LongitudeDegrees>-1.89365188591182231903076171875</LongitudeDegrees>
            </Position>
            <AltitudeMeters>579.5999755859375</AltitudeMeters>
            <DistanceMeters>NAN</DistanceMeters>
          </Trackpoint>
          <Trackpoint>
            <Time>2021-08-14T09:25:19.000Z</Time>
            <Position>
              <LatitudeDegrees>43.0075708217918872833251953125</LatitudeDegrees>
              <LongitudeDegrees>-1.89362539909780025482177734375</LongitudeDegrees>
            </Position>
            <AltitudeMeters>580</AltitudeMeters>
            <DistanceMeters>NAN</DistanceMeters>
          </Trackpoint>
          <Trackpoint>
            <Time>2021-08-14T09:25:20.000Z</Time>
            <Position>
              <LatitudeDegrees>43.00755925476551055908203125</LatitudeDegrees>
              <LongitudeDegrees>-1.89362221397459506988525390625</LongitudeDegrees>
            </Position>
            <AltitudeMeters>580</AltitudeMeters>
            <DistanceMeters>NAN</DistanceMeters>
          </Trackpoint>
          <Trackpoint>
            <Time>2021-08-14T09:25:21.000Z</Time>
            <Position>
              <LatitudeDegrees>43.00754860974848270416259765625</LatitudeDegrees>
              <LongitudeDegrees>-1.89361207187175750732421875</LongitudeDegrees>
            </Position>
            <AltitudeMeters>580.20001220703125</AltitudeMeters>
            <DistanceMeters>NAN</DistanceMeters>
          </Trackpoint>
          <Trackpoint>
            <Time>2021-08-14T09:25:22.000Z</Time>
            <Position>
              <LatitudeDegrees>43.0075357854366302490234375</LatitudeDegrees>
              <LongitudeDegrees>-1.89360142685472965240478515625</LongitudeDegrees>
            </Position>
            <AltitudeMeters>580.20001220703125</AltitudeMeters>
            <DistanceMeters>NAN</DistanceMeters>
          </Trackpoint>
          <Trackpoint>
            <Time>2021-08-14T09:25:28.000Z</Time>
            <Position>
              <LatitudeDegrees>43.00744936801493167877197265625</LatitudeDegrees>
              <LongitudeDegrees>-1.89356622286140918731689453125</LongitudeDegrees>
            </Position>
            <AltitudeMeters>581.4000244140625</AltitudeMeters>
            <DistanceMeters>NAN</DistanceMeters>
          </Trackpoint>
          <Trackpoint>
            <Time>2021-08-14T09:25:29.000Z</Time>
            <Position>
              <LatitudeDegrees>43.00743897445499897003173828125</LatitudeDegrees>
              <LongitudeDegrees>-1.8935632891952991485595703125</LongitudeDegrees>
            </Position>
            <AltitudeMeters>581.5999755859375</AltitudeMeters>
            <DistanceMeters>NAN</DistanceMeters>
          </Trackpoint>
          <Trackpoint>
            <Time>2021-08-14T09:25:30.000Z</Time>
            <Position>
              <LatitudeDegrees>43.007428832352161407470703125</LatitudeDegrees>
              <LongitudeDegrees>-1.8935622833669185638427734375</LongitudeDegrees>
            </Position>
            <AltitudeMeters>581.5999755859375</AltitudeMeters>
            <DistanceMeters>NAN</DistanceMeters>
          </Trackpoint>
          <Trackpoint>
            <Time>2021-08-14T09:25:31.000Z</Time>
            <Position>
              <LatitudeDegrees>43.0074202828109264373779296875</LatitudeDegrees>
              <LongitudeDegrees>-1.8935528956353664398193359375</LongitudeDegrees>
            </Position>
            <AltitudeMeters>581.79998779296875</AltitudeMeters>
            <DistanceMeters>NAN</DistanceMeters>
          </Trackpoint>
          <Trackpoint>
            <Time>2021-08-14T09:25:32.000Z</Time>
            <Position>
              <LatitudeDegrees>43.0074202828109264373779296875</LatitudeDegrees>
              <LongitudeDegrees>-1.8935528956353664398193359375</LongitudeDegrees>
            </Position>
            <AltitudeMeters>582</AltitudeMeters>
            <DistanceMeters>NAN</DistanceMeters>
          </Trackpoint>
          <Trackpoint>
            <Time>2021-08-14T09:25:33.000Z</Time>
            <Position>
              <LatitudeDegrees>43.007386587560176849365234375</LatitudeDegrees>
              <LongitudeDegrees>-1.89354677684605121612548828125</LongitudeDegrees>
            </Position>
            <AltitudeMeters>582.4000244140625</AltitudeMeters>
            <DistanceMeters>NAN</DistanceMeters>
          </Trackpoint>
          <Trackpoint>
            <Time>2021-08-14T09:25:34.000Z</Time>
            <Position>
              <LatitudeDegrees>43.00737678073346614837646484375</LatitudeDegrees>
              <LongitudeDegrees>-1.8935421667993068695068359375</LongitudeDegrees>
            </Position>
            <AltitudeMeters>582.5999755859375</AltitudeMeters>
            <DistanceMeters>NAN</DistanceMeters>
          </Trackpoint>
          <Trackpoint>
            <Time>2021-08-14T09:25:35.000Z</Time>
            <Position>
              <LatitudeDegrees>43.00736772827804088592529296875</LatitudeDegrees>
              <LongitudeDegrees>-1.893532276153564453125</LongitudeDegrees>
            </Position>
            <AltitudeMeters>582.79998779296875</AltitudeMeters>
            <DistanceMeters>NAN</DistanceMeters>
          </Trackpoint>
          <Trackpoint>
            <Time>2021-08-14T09:25:36.000Z</Time>
            <Position>
              <LatitudeDegrees>43.00736001692712306976318359375</LatitudeDegrees>
              <LongitudeDegrees>-1.89352615736424922943115234375</LongitudeDegrees>
            </Position>
            <AltitudeMeters>583.20001220703125</AltitudeMeters>
            <DistanceMeters>NAN</DistanceMeters>
          </Trackpoint>
          <Trackpoint>
            <Time>2021-08-14T09:25:37.000Z</Time>
            <Position>
              <LatitudeDegrees>43.007346354424953460693359375</LatitudeDegrees>
              <LongitudeDegrees>-1.89351794309914112091064453125</LongitudeDegrees>
            </Position>
            <AltitudeMeters>583.4000244140625</AltitudeMeters>
            <DistanceMeters>NAN</DistanceMeters>
          </Trackpoint>
          <Trackpoint>
            <Time>2021-08-14T09:25:38.000Z</Time>
            <Position>
              <LatitudeDegrees>43.00733755342662334442138671875</LatitudeDegrees>
              <LongitudeDegrees>-1.89350838772952556610107421875</LongitudeDegrees>
            </Position>
            <AltitudeMeters>583.5999755859375</AltitudeMeters>
            <DistanceMeters>NAN</DistanceMeters>
          </Trackpoint>
          <Trackpoint>
            <Time>2021-08-14T09:25:39.000Z</Time>
            <Position>
              <LatitudeDegrees>43.00733269192278385162353515625</LatitudeDegrees>
              <LongitudeDegrees>-1.893495731055736541748046875</LongitudeDegrees>
            </Position>
            <AltitudeMeters>583.79998779296875</AltitudeMeters>
            <DistanceMeters>NAN</DistanceMeters>
          </Trackpoint>
          <Trackpoint>
            <Time>2021-08-14T09:25:40.000Z</Time>
            <Position>
              <LatitudeDegrees>43.0073292553424835205078125</LatitudeDegrees>
              <LongitudeDegrees>-1.89348491840064525604248046875</LongitudeDegrees>
            </Position>
            <AltitudeMeters>584.20001220703125</AltitudeMeters>
            <DistanceMeters>NAN</DistanceMeters>
          </Trackpoint>
          <Trackpoint>
            <Time>2021-08-14T09:25:41.000Z</Time>
            <Position>
              <LatitudeDegrees>43.00731861032545566558837890625</LatitudeDegrees>
              <LongitudeDegrees>-1.8934744410216808319091796875</LongitudeDegrees>
            </Position>
            <AltitudeMeters>584.20001220703125</AltitudeMeters>
            <DistanceMeters>NAN</DistanceMeters>
          </Trackpoint>
          <Trackpoint>
            <Time>2021-08-14T09:25:42.000Z</Time>
            <Position>
              <LatitudeDegrees>43.007306791841983795166015625</LatitudeDegrees>
              <LongitudeDegrees>-1.89346211962401866912841796875</LongitudeDegrees>
            </Position>
            <AltitudeMeters>584.4000244140625</AltitudeMeters>
            <DistanceMeters>NAN</DistanceMeters>
          </Trackpoint>
          <Trackpoint>
            <Time>2021-08-14T09:25:43.000Z</Time>
            <Position>
              <LatitudeDegrees>43.00729061476886272430419921875</LatitudeDegrees>
              <LongitudeDegrees>-1.8934531509876251220703125</LongitudeDegrees>
            </Position>
            <AltitudeMeters>584.4000244140625</AltitudeMeters>
            <DistanceMeters>NAN</DistanceMeters>
          </Trackpoint>
          <Trackpoint>
            <Time>2021-08-14T09:25:44.000Z</Time>
            <Position>
              <LatitudeDegrees>43.00727628171443939208984375</LatitudeDegrees>
              <LongitudeDegrees>-1.89344284124672412872314453125</LongitudeDegrees>
            </Position>
            <AltitudeMeters>584.5999755859375</AltitudeMeters>
            <DistanceMeters>NAN</DistanceMeters>
          </Trackpoint>
          <Trackpoint>
            <Time>2021-08-14T09:25:45.000Z</Time>
            <Position>
              <LatitudeDegrees>43.007268570363521575927734375</LatitudeDegrees>
              <LongitudeDegrees>-1.89343563280999660491943359375</LongitudeDegrees>
            </Position>
            <AltitudeMeters>584.79998779296875</AltitudeMeters>
            <DistanceMeters>NAN</DistanceMeters>
          </Trackpoint>
          <Trackpoint>
            <Time>2021-08-14T09:25:46.000Z</Time>
            <Position>
              <LatitudeDegrees>43.007268570363521575927734375</LatitudeDegrees>
              <LongitudeDegrees>-1.89343563280999660491943359375</LongitudeDegrees>
            </Position>
            <AltitudeMeters>584.79998779296875</AltitudeMeters>
            <DistanceMeters>NAN</DistanceMeters>
          </Trackpoint>
          <Trackpoint>
            <Time>2021-08-14T09:25:47.000Z</Time>
            <Position>
              <LatitudeDegrees>43.00725608132779598236083984375</LatitudeDegrees>
              <LongitudeDegrees>-1.89341803081333637237548828125</LongitudeDegrees>
            </Position>
            <AltitudeMeters>585</AltitudeMeters>
            <DistanceMeters>NAN</DistanceMeters>
          </Trackpoint>
          <Trackpoint>
            <Time>2021-08-14T09:25:48.000Z</Time>
            <Position>
              <LatitudeDegrees>43.0072536505758762359619140625</LatitudeDegrees>
              <LongitudeDegrees>-1.89340881071984767913818359375</LongitudeDegrees>
            </Position>
            <AltitudeMeters>585</AltitudeMeters>
            <DistanceMeters>NAN</DistanceMeters>
          </Trackpoint>
          <Trackpoint>
            <Time>2021-08-14T09:25:49.000Z</Time>
            <Position>
              <LatitudeDegrees>43.00725323148071765899658203125</LatitudeDegrees>
              <LongitudeDegrees>-1.89340260811150074005126953125</LongitudeDegrees>
            </Position>
            <AltitudeMeters>585</AltitudeMeters>
            <DistanceMeters>NAN</DistanceMeters>
          </Trackpoint>
          <Trackpoint>
            <Time>2021-08-14T09:25:50.000Z</Time>
            <Position>
              <LatitudeDegrees>43.00725306384265422821044921875</LatitudeDegrees>
              <LongitudeDegrees>-1.89340017735958099365234375</LongitudeDegrees>
            </Position>
            <AltitudeMeters>585</AltitudeMeters>
            <DistanceMeters>NAN</DistanceMeters>
          </Trackpoint>
          <Trackpoint>
            <Time>2021-08-14T09:25:51.000Z</Time>
            <Position>
              <LatitudeDegrees>43.00724501721560955047607421875</LatitudeDegrees>
              <LongitudeDegrees>-1.8933946453034877777099609375</LongitudeDegrees>
            </Position>
            <AltitudeMeters>585.4000244140625</AltitudeMeters>
            <DistanceMeters>NAN</DistanceMeters>
          </Trackpoint>
          <Trackpoint>
            <Time>2021-08-14T09:25:53.000Z</Time>
            <Position>
              <LatitudeDegrees>43.00723512656986713409423828125</LatitudeDegrees>
              <LongitudeDegrees>-1.89338752068579196929931640625</LongitudeDegrees>
            </Position>
            <AltitudeMeters>585.79998779296875</AltitudeMeters>
            <DistanceMeters>NAN</DistanceMeters>
          </Trackpoint>
          <Trackpoint>
            <Time>2021-08-14T09:25:54.000Z</Time>
            <Position>
              <LatitudeDegrees>43.00722640939056873321533203125</LatitudeDegrees>
              <LongitudeDegrees>-1.893378384411334991455078125</LongitudeDegrees>
            </Position>
            <AltitudeMeters>586.20001220703125</AltitudeMeters>
            <DistanceMeters>NAN</DistanceMeters>
          </Trackpoint>
          <Trackpoint>
            <Time>2021-08-14T09:25:56.000Z</Time>
            <Position>
              <LatitudeDegrees>43.0072238110005855560302734375</LatitudeDegrees>
              <LongitudeDegrees>-1.89337444491684436798095703125</LongitudeDegrees>
            </Position>
            <AltitudeMeters>586.4000244140625</AltitudeMeters>
            <DistanceMeters>NAN</DistanceMeters>
          </Trackpoint>
          <Trackpoint>
            <Time>2021-08-14T09:25:57.000Z</Time>
            <Position>
              <LatitudeDegrees>43.00722305662930011749267578125</LatitudeDegrees>
              <LongitudeDegrees>-1.89336958341300487518310546875</LongitudeDegrees>
            </Position>
            <AltitudeMeters>586.5999755859375</AltitudeMeters>
            <DistanceMeters>NAN</DistanceMeters>
          </Trackpoint>
          <Trackpoint>
            <Time>2021-08-14T09:25:58.000Z</Time>
            <Position>
              <LatitudeDegrees>43.0072181113064289093017578125</LatitudeDegrees>
              <LongitudeDegrees>-1.893362291157245635986328125</LongitudeDegrees>
            </Position>
            <AltitudeMeters>586.5999755859375</AltitudeMeters>
            <DistanceMeters>NAN</DistanceMeters>
          </Trackpoint>
          <Trackpoint>
            <Time>2021-08-14T09:25:59.000Z</Time>
            <Position>
              <LatitudeDegrees>43.0072144232690334320068359375</LatitudeDegrees>
              <LongitudeDegrees>-1.89336153678596019744873046875</LongitudeDegrees>
            </Position>
            <AltitudeMeters>586.5999755859375</AltitudeMeters>
            <DistanceMeters>NAN</DistanceMeters>
          </Trackpoint>
          <Trackpoint>
            <Time>2021-08-14T09:26:03.000Z</Time>
            <Position>
              <LatitudeDegrees>43.0072144232690334320068359375</LatitudeDegrees>
              <LongitudeDegrees>-1.89336153678596019744873046875</LongitudeDegrees>
            </Position>
            <AltitudeMeters>586.20001220703125</AltitudeMeters>
            <DistanceMeters>NAN</DistanceMeters>
          </Trackpoint>
          <Trackpoint>
            <Time>2021-08-14T09:26:04.000Z</Time>
            <Position>
              <LatitudeDegrees>43.0072144232690334320068359375</LatitudeDegrees>
              <LongitudeDegrees>-1.89336153678596019744873046875</LongitudeDegrees>
            </Position>
            <AltitudeMeters>586.20001220703125</AltitudeMeters>
            <DistanceMeters>NAN</DistanceMeters>
          </Trackpoint>
          <Trackpoint>
            <Time>2021-08-14T09:26:05.000Z</Time>
            <Position>
              <LatitudeDegrees>43.0072144232690334320068359375</LatitudeDegrees>
              <LongitudeDegrees>-1.89336153678596019744873046875</LongitudeDegrees>
            </Position>
            <AltitudeMeters>586.20001220703125</AltitudeMeters>
            <DistanceMeters>NAN</DistanceMeters>
          </Trackpoint>
          <Trackpoint>
            <Time>2021-08-14T09:26:06.000Z</Time>
            <Position>
              <LatitudeDegrees>43.00722355954349040985107421875</LatitudeDegrees>
              <LongitudeDegrees>-1.89336396753787994384765625</LongitudeDegrees>
            </Position>
            <AltitudeMeters>586.20001220703125</AltitudeMeters>
            <DistanceMeters>NAN</DistanceMeters>
          </Trackpoint>
          <Trackpoint>
            <Time>2021-08-14T09:26:07.000Z</Time>
            <Position>
              <LatitudeDegrees>43.00723110325634479522705078125</LatitudeDegrees>
              <LongitudeDegrees>-1.89336673356592655181884765625</LongitudeDegrees>
            </Position>
            <AltitudeMeters>586</AltitudeMeters>
            <DistanceMeters>NAN</DistanceMeters>
          </Trackpoint>
          <Trackpoint>
            <Time>2021-08-14T09:26:11.000Z</Time>
            <Position>
              <LatitudeDegrees>43.00721702165901660919189453125</LatitudeDegrees>
              <LongitudeDegrees>-1.8933725170791149139404296875</LongitudeDegrees>
            </Position>
            <AltitudeMeters>586</AltitudeMeters>
            <DistanceMeters>NAN</DistanceMeters>
          </Trackpoint>
          <Trackpoint>
            <Time>2021-08-14T09:26:12.000Z</Time>
            <Position>
              <LatitudeDegrees>43.00723294727504253387451171875</LatitudeDegrees>
              <LongitudeDegrees>-1.8933718465268611907958984375</LongitudeDegrees>
            </Position>
            <AltitudeMeters>586</AltitudeMeters>
            <DistanceMeters>NAN</DistanceMeters>
          </Trackpoint>
          <Trackpoint>
            <Time>2021-08-14T09:26:13.000Z</Time>
            <Position>
              <LatitudeDegrees>43.00722707994282245635986328125</LatitudeDegrees>
              <LongitudeDegrees>-1.8933554179966449737548828125</LongitudeDegrees>
            </Position>
            <AltitudeMeters>586</AltitudeMeters>
            <DistanceMeters>NAN</DistanceMeters>
          </Trackpoint>
          <Trackpoint>
            <Time>2021-08-14T09:26:14.000Z</Time>
            <Position>
              <LatitudeDegrees>43.00726496614515781402587890625</LatitudeDegrees>
              <LongitudeDegrees>-1.8933212198317050933837890625</LongitudeDegrees>
            </Position>
            <AltitudeMeters>586</AltitudeMeters>
            <DistanceMeters>NAN</DistanceMeters>
          </Trackpoint>
          <Trackpoint>
            <Time>2021-08-14T09:26:15.000Z</Time>
            <Position>
              <LatitudeDegrees>43.00728969275951385498046875</LatitudeDegrees>
              <LongitudeDegrees>-1.89327947795391082763671875</LongitudeDegrees>
            </Position>
            <AltitudeMeters>586</AltitudeMeters>
            <DistanceMeters>NAN</DistanceMeters>
          </Trackpoint>
          <Trackpoint>
            <Time>2021-08-14T09:26:16.000Z</Time>
            <Position>
              <LatitudeDegrees>43.00728357397019863128662109375</LatitudeDegrees>
              <LongitudeDegrees>-1.89325475133955478668212890625</LongitudeDegrees>
            </Position>
            <AltitudeMeters>586</AltitudeMeters>
            <DistanceMeters>NAN</DistanceMeters>
          </Trackpoint>
          <Trackpoint>
            <Time>2021-08-14T09:26:17.000Z</Time>
            <Position>
              <LatitudeDegrees>43.00728709436953067779541015625</LatitudeDegrees>
              <LongitudeDegrees>-1.8932541646063327789306640625</LongitudeDegrees>
            </Position>
            <AltitudeMeters>586</AltitudeMeters>
            <DistanceMeters>NAN</DistanceMeters>
          </Trackpoint>
          <Trackpoint>
            <Time>2021-08-14T09:26:18.000Z</Time>
            <Position>
              <LatitudeDegrees>43.00728709436953067779541015625</LatitudeDegrees>
              <LongitudeDegrees>-1.8932541646063327789306640625</LongitudeDegrees>
            </Position>
            <AltitudeMeters>586</AltitudeMeters>
            <DistanceMeters>NAN</DistanceMeters>
          </Trackpoint>
          <Trackpoint>
            <Time>2021-08-14T09:26:19.000Z</Time>
            <Position>
              <LatitudeDegrees>43.00728709436953067779541015625</LatitudeDegrees>
              <LongitudeDegrees>-1.8932541646063327789306640625</LongitudeDegrees>
            </Position>
            <AltitudeMeters>586</AltitudeMeters>
            <DistanceMeters>NAN</DistanceMeters>
          </Trackpoint>
          <Trackpoint>
            <Time>2021-08-14T09:26:20.000Z</Time>
            <Position>
              <LatitudeDegrees>43.00726580433547496795654296875</LatitudeDegrees>
              <LongitudeDegrees>-1.89325206913053989410400390625</LongitudeDegrees>
            </Position>
            <AltitudeMeters>586</AltitudeMeters>
            <DistanceMeters>NAN</DistanceMeters>
          </Trackpoint>
          <Trackpoint>
            <Time>2021-08-14T09:26:21.000Z</Time>
            <Position>
              <LatitudeDegrees>43.00726764835417270660400390625</LatitudeDegrees>
              <LongitudeDegrees>-1.893253661692142486572265625</LongitudeDegrees>
            </Position>
            <AltitudeMeters>586.20001220703125</AltitudeMeters>
            <DistanceMeters>NAN</DistanceMeters>
          </Trackpoint>
          <Trackpoint>
            <Time>2021-08-14T09:26:22.000Z</Time>
            <Position>
              <LatitudeDegrees>43.007243089377880096435546875</LatitudeDegrees>
              <LongitudeDegrees>-1.89326682128012180328369140625</LongitudeDegrees>
            </Position>
            <AltitudeMeters>586.20001220703125</AltitudeMeters>
            <DistanceMeters>NAN</DistanceMeters>
          </Trackpoint>
          <Trackpoint>
            <Time>2021-08-14T09:26:24.000Z</Time>
            <Position>
              <LatitudeDegrees>43.0072429217398166656494140625</LatitudeDegrees>
              <LongitudeDegrees>-1.893267072737216949462890625</LongitudeDegrees>
            </Position>
            <AltitudeMeters>586.20001220703125</AltitudeMeters>
            <DistanceMeters>NAN</DistanceMeters>
          </Trackpoint>
          <Trackpoint>
            <Time>2021-08-14T09:26:26.000Z</Time>
            <Position>
              <LatitudeDegrees>43.00725289620459079742431640625</LatitudeDegrees>
              <LongitudeDegrees>-1.89324921928346157073974609375</LongitudeDegrees>
            </Position>
            <AltitudeMeters>586.20001220703125</AltitudeMeters>
            <DistanceMeters>NAN</DistanceMeters>
          </Trackpoint>
          <Trackpoint>
            <Time>2021-08-14T09:26:28.000Z</Time>
            <Position>
              <LatitudeDegrees>43.00727804191410541534423828125</LatitudeDegrees>
              <LongitudeDegrees>-1.89323647879064083099365234375</LongitudeDegrees>
            </Position>
            <AltitudeMeters>586</AltitudeMeters>
            <DistanceMeters>NAN</DistanceMeters>
          </Trackpoint>
          <Trackpoint>
            <Time>2021-08-14T09:26:29.000Z</Time>
            <Position>
              <LatitudeDegrees>43.00727301277220249176025390625</LatitudeDegrees>
              <LongitudeDegrees>-1.89323564060032367706298828125</LongitudeDegrees>
            </Position>
            <AltitudeMeters>586</AltitudeMeters>
            <DistanceMeters>NAN</DistanceMeters>
          </Trackpoint>
          <Trackpoint>
            <Time>2021-08-14T09:26:30.000Z</Time>
            <Position>
              <LatitudeDegrees>43.00727301277220249176025390625</LatitudeDegrees>
              <LongitudeDegrees>-1.89323564060032367706298828125</LongitudeDegrees>
            </Position>
            <AltitudeMeters>586</AltitudeMeters>
            <DistanceMeters>NAN</DistanceMeters>
          </Trackpoint>
          <Trackpoint>
            <Time>2021-08-14T09:26:31.000Z</Time>
            <Position>
              <LatitudeDegrees>43.00727301277220249176025390625</LatitudeDegrees>
              <LongitudeDegrees>-1.89323564060032367706298828125</LongitudeDegrees>
            </Position>
            <AltitudeMeters>586.20001220703125</AltitudeMeters>
            <DistanceMeters>NAN</DistanceMeters>
          </Trackpoint>
          <Trackpoint>
            <Time>2021-08-14T09:26:32.000Z</Time>
            <Position>
              <LatitudeDegrees>43.00727301277220249176025390625</LatitudeDegrees>
              <LongitudeDegrees>-1.89323564060032367706298828125</LongitudeDegrees>
            </Position>
            <AltitudeMeters>586.20001220703125</AltitudeMeters>
            <DistanceMeters>NAN</DistanceMeters>
          </Trackpoint>
          <Trackpoint>
            <Time>2021-08-14T09:27:47.000Z</Time>
            <Position>
              <LatitudeDegrees>43.006185628473758697509765625</LatitudeDegrees>
              <LongitudeDegrees>-1.894124709069728851318359375</LongitudeDegrees>
            </Position>
            <AltitudeMeters>585.5999755859375</AltitudeMeters>
            <DistanceMeters>NAN</DistanceMeters>
          </Trackpoint>
          <Trackpoint>
            <Time>2021-08-14T09:27:48.000Z</Time>
            <Position>
              <LatitudeDegrees>43.00619141198694705963134765625</LatitudeDegrees>
              <LongitudeDegrees>-1.89412697218358516693115234375</LongitudeDegrees>
            </Position>
            <AltitudeMeters>585.4000244140625</AltitudeMeters>
            <DistanceMeters>NAN</DistanceMeters>
          </Trackpoint>
          <Trackpoint>
            <Time>2021-08-14T09:27:51.000Z</Time>
            <Position>
              <LatitudeDegrees>43.0061958543956279754638671875</LatitudeDegrees>
              <LongitudeDegrees>-1.8941317498683929443359375</LongitudeDegrees>
            </Position>
            <AltitudeMeters>585</AltitudeMeters>
            <DistanceMeters>NAN</DistanceMeters>
          </Trackpoint>
          <Trackpoint>
            <Time>2021-08-14T09:27:53.000Z</Time>
            <Position>
              <LatitudeDegrees>43.0062106065452098846435546875</LatitudeDegrees>
              <LongitudeDegrees>-1.8940863199532032012939453125</LongitudeDegrees>
            </Position>
            <AltitudeMeters>584.5999755859375</AltitudeMeters>
            <DistanceMeters>NAN</DistanceMeters>
          </Trackpoint>
          <Trackpoint>
            <Time>2021-08-14T09:27:54.000Z</Time>
            <Position>
              <LatitudeDegrees>43.00624229013919830322265625</LatitudeDegrees>
              <LongitudeDegrees>-1.8940190970897674560546875</LongitudeDegrees>
            </Position>
            <AltitudeMeters>584.5999755859375</AltitudeMeters>
            <DistanceMeters>NAN</DistanceMeters>
          </Trackpoint>
          <Trackpoint>
            <Time>2021-08-14T09:28:01.000Z</Time>
            <Position>
              <LatitudeDegrees>43.00628294236958026885986328125</LatitudeDegrees>
              <LongitudeDegrees>-1.89397953450679779052734375</LongitudeDegrees>
            </Position>
            <AltitudeMeters>584.4000244140625</AltitudeMeters>
            <DistanceMeters>NAN</DistanceMeters>
          </Trackpoint>
          <Trackpoint>
            <Time>2021-08-14T09:28:22.000Z</Time>
            <Position>
              <LatitudeDegrees>43.00625109113752841949462890625</LatitudeDegrees>
              <LongitudeDegrees>-1.89403158612549304962158203125</LongitudeDegrees>
            </Position>
            <AltitudeMeters>584</AltitudeMeters>
            <DistanceMeters>NAN</DistanceMeters>
          </Trackpoint>
          <Trackpoint>
            <Time>2021-08-14T09:28:23.000Z</Time>
            <Position>
              <LatitudeDegrees>43.00623751245439052581787109375</LatitudeDegrees>
              <LongitudeDegrees>-1.8940474279224872589111328125</LongitudeDegrees>
            </Position>
            <AltitudeMeters>584</AltitudeMeters>
            <DistanceMeters>NAN</DistanceMeters>
          </Trackpoint>
          <Trackpoint>
            <Time>2021-08-14T09:28:26.000Z</Time>
            <Position>
              <LatitudeDegrees>43.00619258545339107513427734375</LatitudeDegrees>
              <LongitudeDegrees>-1.89408137463033199310302734375</LongitudeDegrees>
            </Position>
            <AltitudeMeters>584</AltitudeMeters>
            <DistanceMeters>NAN</DistanceMeters>
          </Trackpoint>
          <Trackpoint>
            <Time>2021-08-14T09:28:29.000Z</Time>
            <Position>
              <LatitudeDegrees>43.0061445571482181549072265625</LatitudeDegrees>
              <LongitudeDegrees>-1.8941185064613819122314453125</LongitudeDegrees>
            </Position>
            <AltitudeMeters>584</AltitudeMeters>
            <DistanceMeters>NAN</DistanceMeters>
          </Trackpoint>
          <Trackpoint>
            <Time>2021-08-14T09:28:31.000Z</Time>
            <Position>
              <LatitudeDegrees>43.006107844412326812744140625</LatitudeDegrees>
              <LongitudeDegrees>-1.8941563926637172698974609375</LongitudeDegrees>
            </Position>
            <AltitudeMeters>583.79998779296875</AltitudeMeters>
            <DistanceMeters>NAN</DistanceMeters>
          </Trackpoint>
          <Trackpoint>
            <Time>2021-08-14T09:28:36.000Z</Time>
            <Position>
              <LatitudeDegrees>43.0060000531375408172607421875</LatitudeDegrees>
              <LongitudeDegrees>-1.8942296504974365234375</LongitudeDegrees>
            </Position>
            <AltitudeMeters>583.5999755859375</AltitudeMeters>
            <DistanceMeters>NAN</DistanceMeters>
          </Trackpoint>
          <Trackpoint>
            <Time>2021-08-14T09:28:41.000Z</Time>
            <Position>
              <LatitudeDegrees>43.00589628517627716064453125</LatitudeDegrees>
              <LongitudeDegrees>-1.89430835656821727752685546875</LongitudeDegrees>
            </Position>
            <AltitudeMeters>583.4000244140625</AltitudeMeters>
            <DistanceMeters>NAN</DistanceMeters>
          </Trackpoint>
          <Trackpoint>
            <Time>2021-08-14T09:28:44.000Z</Time>
            <Position>
              <LatitudeDegrees>43.00584138371050357818603515625</LatitudeDegrees>
              <LongitudeDegrees>-1.89433635212481021881103515625</LongitudeDegrees>
            </Position>
            <AltitudeMeters>583.20001220703125</AltitudeMeters>
            <DistanceMeters>NAN</DistanceMeters>
          </Trackpoint>
          <Trackpoint>
            <Time>2021-08-14T09:28:46.000Z</Time>
            <Position>
              <LatitudeDegrees>43.005807437002658843994140625</LatitudeDegrees>
              <LongitudeDegrees>-1.89435630105435848236083984375</LongitudeDegrees>
            </Position>
            <AltitudeMeters>583</AltitudeMeters>
            <DistanceMeters>NAN</DistanceMeters>
          </Trackpoint>
          <Trackpoint>
            <Time>2021-08-14T09:28:47.000Z</Time>
            <Position>
              <LatitudeDegrees>43.0057915113866329193115234375</LatitudeDegrees>
              <LongitudeDegrees>-1.8943672813475131988525390625</LongitudeDegrees>
            </Position>
            <AltitudeMeters>583</AltitudeMeters>
            <DistanceMeters>NAN</DistanceMeters>
          </Trackpoint>
          <Trackpoint>
            <Time>2021-08-14T09:28:48.000Z</Time>
            <Position>
              <LatitudeDegrees>43.0057915113866329193115234375</LatitudeDegrees>
              <LongitudeDegrees>-1.8943672813475131988525390625</LongitudeDegrees>
            </Position>
            <AltitudeMeters>583</AltitudeMeters>
            <DistanceMeters>NAN</DistanceMeters>
          </Trackpoint>
          <Trackpoint>
            <Time>2021-08-14T09:28:49.000Z</Time>
            <Position>
              <LatitudeDegrees>43.00577499903738498687744140625</LatitudeDegrees>
              <LongitudeDegrees>-1.89437524415552616119384765625</LongitudeDegrees>
            </Position>
            <AltitudeMeters>582.79998779296875</AltitudeMeters>
            <DistanceMeters>NAN</DistanceMeters>
          </Trackpoint>
          <Trackpoint>
            <Time>2021-08-14T09:28:50.000Z</Time>
            <Position>
              <LatitudeDegrees>43.0057425610721111297607421875</LatitudeDegrees>
              <LongitudeDegrees>-1.89438966102898120880126953125</LongitudeDegrees>
            </Position>
            <AltitudeMeters>582.79998779296875</AltitudeMeters>
            <DistanceMeters>NAN</DistanceMeters>
          </Trackpoint>
          <Trackpoint>
            <Time>2021-08-14T09:28:51.000Z</Time>
            <Position>
              <LatitudeDegrees>43.00572621636092662811279296875</LatitudeDegrees>
              <LongitudeDegrees>-1.89439435489475727081298828125</LongitudeDegrees>
            </Position>
            <AltitudeMeters>582.79998779296875</AltitudeMeters>
            <DistanceMeters>NAN</DistanceMeters>
          </Trackpoint>
          <Trackpoint>
            <Time>2021-08-14T09:28:52.000Z</Time>
            <Position>
              <LatitudeDegrees>43.0057053454220294952392578125</LatitudeDegrees>
              <LongitudeDegrees>-1.8944013118743896484375</LongitudeDegrees>
            </Position>
            <AltitudeMeters>582.5999755859375</AltitudeMeters>
            <DistanceMeters>NAN</DistanceMeters>
          </Trackpoint>
          <Trackpoint>
            <Time>2021-08-14T09:28:53.000Z</Time>
            <Position>
              <LatitudeDegrees>43.00568648613989353179931640625</LatitudeDegrees>
              <LongitudeDegrees>-1.8944162316620349884033203125</LongitudeDegrees>
            </Position>
            <AltitudeMeters>582.5999755859375</AltitudeMeters>
            <DistanceMeters>NAN</DistanceMeters>
          </Trackpoint>
          <Trackpoint>
            <Time>2021-08-14T09:28:54.000Z</Time>
            <Position>
              <LatitudeDegrees>43.00566687248647212982177734375</LatitudeDegrees>
              <LongitudeDegrees>-1.8944246135652065277099609375</LongitudeDegrees>
            </Position>
            <AltitudeMeters>582.5999755859375</AltitudeMeters>
            <DistanceMeters>NAN</DistanceMeters>
          </Trackpoint>
          <Trackpoint>
            <Time>2021-08-14T09:28:55.000Z</Time>
            <Position>
              <LatitudeDegrees>43.0056453309953212738037109375</LatitudeDegrees>
              <LongitudeDegrees>-1.8944286368787288665771484375</LongitudeDegrees>
            </Position>
            <AltitudeMeters>582.5999755859375</AltitudeMeters>
            <DistanceMeters>NAN</DistanceMeters>
          </Trackpoint>
          <Trackpoint>
            <Time>2021-08-14T09:28:58.000Z</Time>
            <Position>
              <LatitudeDegrees>43.0055833049118518829345703125</LatitudeDegrees>
              <LongitudeDegrees>-1.894448585808277130126953125</LongitudeDegrees>
            </Position>
            <AltitudeMeters>582.5999755859375</AltitudeMeters>
            <DistanceMeters>NAN</DistanceMeters>
          </Trackpoint>
          <Trackpoint>
            <Time>2021-08-14T09:29:02.000Z</Time>
            <Position>
              <LatitudeDegrees>43.00546118058264255523681640625</LatitudeDegrees>
              <LongitudeDegrees>-1.89447306096553802490234375</LongitudeDegrees>
            </Position>
            <AltitudeMeters>582.4000244140625</AltitudeMeters>
            <DistanceMeters>NAN</DistanceMeters>
          </Trackpoint>
          <Trackpoint>
            <Time>2021-08-14T09:29:03.000Z</Time>
            <Position>
              <LatitudeDegrees>43.00543150864541530609130859375</LatitudeDegrees>
              <LongitudeDegrees>-1.89447331242263317108154296875</LongitudeDegrees>
            </Position>
            <AltitudeMeters>582.4000244140625</AltitudeMeters>
            <DistanceMeters>NAN</DistanceMeters>
          </Trackpoint>
          <Trackpoint>
            <Time>2021-08-14T09:29:04.000Z</Time>
            <Position>
              <LatitudeDegrees>43.00539982505142688751220703125</LatitudeDegrees>
              <LongitudeDegrees>-1.8944738991558551788330078125</LongitudeDegrees>
            </Position>
            <AltitudeMeters>582.4000244140625</AltitudeMeters>
            <DistanceMeters>NAN</DistanceMeters>
          </Trackpoint>
          <Trackpoint>
            <Time>2021-08-14T09:29:10.000Z</Time>
            <Position>
              <LatitudeDegrees>43.0052004195749759674072265625</LatitudeDegrees>
              <LongitudeDegrees>-1.8944266252219676971435546875</LongitudeDegrees>
            </Position>
            <AltitudeMeters>582.20001220703125</AltitudeMeters>
            <DistanceMeters>NAN</DistanceMeters>
          </Trackpoint>
          <Trackpoint>
            <Time>2021-08-14T09:29:13.000Z</Time>
            <Position>
              <LatitudeDegrees>43.00510746426880359649658203125</LatitudeDegrees>
              <LongitudeDegrees>-1.894397623836994171142578125</LongitudeDegrees>
            </Position>
            <AltitudeMeters>582.20001220703125</AltitudeMeters>
            <DistanceMeters>NAN</DistanceMeters>
          </Trackpoint>
          <Trackpoint>
            <Time>2021-08-14T09:29:16.000Z</Time>
            <Position>
              <LatitudeDegrees>43.00502465106546878814697265625</LatitudeDegrees>
              <LongitudeDegrees>-1.89436015672981739044189453125</LongitudeDegrees>
            </Position>
            <AltitudeMeters>582</AltitudeMeters>
            <DistanceMeters>NAN</DistanceMeters>
          </Trackpoint>
          <Trackpoint>
            <Time>2021-08-14T09:29:17.000Z</Time>
            <Position>
              <LatitudeDegrees>43.00502465106546878814697265625</LatitudeDegrees>
              <LongitudeDegrees>-1.89436015672981739044189453125</LongitudeDegrees>
            </Position>
            <AltitudeMeters>582</AltitudeMeters>
            <DistanceMeters>NAN</DistanceMeters>
          </Trackpoint>
          <Trackpoint>
            <Time>2021-08-14T09:29:18.000Z</Time>
            <Position>
              <LatitudeDegrees>43.0049771256744861602783203125</LatitudeDegrees>
              <LongitudeDegrees>-1.89432361163198947906494140625</LongitudeDegrees>
            </Position>
            <AltitudeMeters>581.79998779296875</AltitudeMeters>
            <DistanceMeters>NAN</DistanceMeters>
          </Trackpoint>
          <Trackpoint>
            <Time>2021-08-14T09:29:19.000Z</Time>
            <Position>
              <LatitudeDegrees>43.0049771256744861602783203125</LatitudeDegrees>
              <LongitudeDegrees>-1.89432361163198947906494140625</LongitudeDegrees>
            </Position>
            <AltitudeMeters>581.79998779296875</AltitudeMeters>
            <DistanceMeters>NAN</DistanceMeters>
          </Trackpoint>
          <Trackpoint>
            <Time>2021-08-14T09:29:20.000Z</Time>
            <Position>
              <LatitudeDegrees>43.00493245013058185577392578125</LatitudeDegrees>
              <LongitudeDegrees>-1.89428505487740039825439453125</LongitudeDegrees>
            </Position>
            <AltitudeMeters>581.79998779296875</AltitudeMeters>
            <DistanceMeters>NAN</DistanceMeters>
          </Trackpoint>
          <Trackpoint>
            <Time>2021-08-14T09:29:21.000Z</Time>
            <Position>
              <LatitudeDegrees>43.00490646623075008392333984375</LatitudeDegrees>
              <LongitudeDegrees>-1.8942646868526935577392578125</LongitudeDegrees>
            </Position>
            <AltitudeMeters>581.79998779296875</AltitudeMeters>
            <DistanceMeters>NAN</DistanceMeters>
          </Trackpoint>
          <Trackpoint>
            <Time>2021-08-14T09:29:22.000Z</Time>
            <Position>
              <LatitudeDegrees>43.0048755370080471038818359375</LatitudeDegrees>
              <LongitudeDegrees>-1.8942408822476863861083984375</LongitudeDegrees>
            </Position>
            <AltitudeMeters>581.79998779296875</AltitudeMeters>
            <DistanceMeters>NAN</DistanceMeters>
          </Trackpoint>
          <Trackpoint>
            <Time>2021-08-14T09:29:23.000Z</Time>
            <Position>
              <LatitudeDegrees>43.00484410487115383148193359375</LatitudeDegrees>
              <LongitudeDegrees>-1.8942130543291568756103515625</LongitudeDegrees>
            </Position>
            <AltitudeMeters>581.5999755859375</AltitudeMeters>
            <DistanceMeters>NAN</DistanceMeters>
          </Trackpoint>
          <Trackpoint>
            <Time>2021-08-14T09:29:25.000Z</Time>
            <Position>
              <LatitudeDegrees>43.0047880299389362335205078125</LatitudeDegrees>
              <LongitudeDegrees>-1.8941597454249858856201171875</LongitudeDegrees>
            </Position>
            <AltitudeMeters>581.4000244140625</AltitudeMeters>
            <DistanceMeters>NAN</DistanceMeters>
          </Trackpoint>
          <Trackpoint>
            <Time>2021-08-14T09:29:26.000Z</Time>
            <Position>
              <LatitudeDegrees>43.00475894473493099212646484375</LatitudeDegrees>
              <LongitudeDegrees>-1.89413703046739101409912109375</LongitudeDegrees>
            </Position>
            <AltitudeMeters>581.20001220703125</AltitudeMeters>
            <DistanceMeters>NAN</DistanceMeters>
          </Trackpoint>
          <Trackpoint>
            <Time>2021-08-14T09:29:30.000Z</Time>
            <Position>
              <LatitudeDegrees>43.00464545376598834991455078125</LatitudeDegrees>
              <LongitudeDegrees>-1.89403259195387363433837890625</LongitudeDegrees>
            </Position>
            <AltitudeMeters>580.79998779296875</AltitudeMeters>
            <DistanceMeters>NAN</DistanceMeters>
          </Trackpoint>
          <Trackpoint>
            <Time>2021-08-14T09:29:38.000Z</Time>
            <Position>
              <LatitudeDegrees>43.0043895542621612548828125</LatitudeDegrees>
              <LongitudeDegrees>-1.893820948898792266845703125</LongitudeDegrees>
            </Position>
            <AltitudeMeters>580</AltitudeMeters>
            <DistanceMeters>NAN</DistanceMeters>
          </Trackpoint>
          <Trackpoint>
            <Time>2021-08-14T09:29:40.000Z</Time>
            <Position>
              <LatitudeDegrees>43.0043251812458038330078125</LatitudeDegrees>
              <LongitudeDegrees>-1.8937651254236698150634765625</LongitudeDegrees>
            </Position>
            <AltitudeMeters>580</AltitudeMeters>
            <DistanceMeters>NAN</DistanceMeters>
          </Trackpoint>
          <Trackpoint>
            <Time>2021-08-14T09:29:48.000Z</Time>
            <Position>
              <LatitudeDegrees>43.0040930025279521942138671875</LatitudeDegrees>
              <LongitudeDegrees>-1.89358281902968883514404296875</LongitudeDegrees>
            </Position>
            <AltitudeMeters>579.4000244140625</AltitudeMeters>
            <DistanceMeters>NAN</DistanceMeters>
          </Trackpoint>
          <Trackpoint>
            <Time>2021-08-14T09:29:49.000Z</Time>
            <Position>
              <LatitudeDegrees>43.004062660038471221923828125</LatitudeDegrees>
              <LongitudeDegrees>-1.893564127385616302490234375</LongitudeDegrees>
            </Position>
            <AltitudeMeters>579.4000244140625</AltitudeMeters>
            <DistanceMeters>NAN</DistanceMeters>
          </Trackpoint>
          <Trackpoint>
            <Time>2021-08-14T09:29:50.000Z</Time>
            <Position>
              <LatitudeDegrees>43.0040313117206096649169921875</LatitudeDegrees>
              <LongitudeDegrees>-1.893548704683780670166015625</LongitudeDegrees>
            </Position>
            <AltitudeMeters>579.4000244140625</AltitudeMeters>
            <DistanceMeters>NAN</DistanceMeters>
          </Trackpoint>
          <Trackpoint>
            <Time>2021-08-14T09:29:51.000Z</Time>
            <Position>
              <LatitudeDegrees>43.00399468280375003814697265625</LatitudeDegrees>
              <LongitudeDegrees>-1.8935277499258518218994140625</LongitudeDegrees>
            </Position>
            <AltitudeMeters>579.20001220703125</AltitudeMeters>
            <DistanceMeters>NAN</DistanceMeters>
          </Trackpoint>
          <Trackpoint>
            <Time>2021-08-14T09:29:53.000Z</Time>
            <Position>
              <LatitudeDegrees>43.0039324052631855010986328125</LatitudeDegrees>
              <LongitudeDegrees>-1.893479637801647186279296875</LongitudeDegrees>
            </Position>
            <AltitudeMeters>579.20001220703125</AltitudeMeters>
            <DistanceMeters>NAN</DistanceMeters>
          </Trackpoint>
          <Trackpoint>
            <Time>2021-08-14T09:29:54.000Z</Time>
            <Position>
              <LatitudeDegrees>43.0039107799530029296875</LatitudeDegrees>
              <LongitudeDegrees>-1.89346094615757465362548828125</LongitudeDegrees>
            </Position>
            <AltitudeMeters>579.20001220703125</AltitudeMeters>
            <DistanceMeters>NAN</DistanceMeters>
          </Trackpoint>
          <Trackpoint>
            <Time>2021-08-14T09:29:55.000Z</Time>
            <Position>
              <LatitudeDegrees>43.00388420931994915008544921875</LatitudeDegrees>
              <LongitudeDegrees>-1.8934435956180095672607421875</LongitudeDegrees>
            </Position>
            <AltitudeMeters>579.20001220703125</AltitudeMeters>
            <DistanceMeters>NAN</DistanceMeters>
          </Trackpoint>
          <Trackpoint>
            <Time>2021-08-14T09:29:56.000Z</Time>
            <Position>
              <LatitudeDegrees>43.00385839305818080902099609375</LatitudeDegrees>
              <LongitudeDegrees>-1.8934238143265247344970703125</LongitudeDegrees>
            </Position>
            <AltitudeMeters>579</AltitudeMeters>
            <DistanceMeters>NAN</DistanceMeters>
          </Trackpoint>
          <Trackpoint>
            <Time>2021-08-14T09:29:57.000Z</Time>
            <Position>
              <LatitudeDegrees>43.00383173860609531402587890625</LatitudeDegrees>
              <LongitudeDegrees>-1.893411576747894287109375</LongitudeDegrees>
            </Position>
            <AltitudeMeters>579</AltitudeMeters>
            <DistanceMeters>NAN</DistanceMeters>
          </Trackpoint>
          <Trackpoint>
            <Time>2021-08-14T09:29:58.000Z</Time>
            <Position>
              <LatitudeDegrees>43.00380206666886806488037109375</LatitudeDegrees>
              <LongitudeDegrees>-1.8933986686170101165771484375</LongitudeDegrees>
            </Position>
            <AltitudeMeters>579</AltitudeMeters>
            <DistanceMeters>NAN</DistanceMeters>
          </Trackpoint>
          <Trackpoint>
            <Time>2021-08-14T09:30:03.000Z</Time>
            <Position>
              <LatitudeDegrees>43.00361598841845989227294921875</LatitudeDegrees>
              <LongitudeDegrees>-1.8933346308767795562744140625</LongitudeDegrees>
            </Position>
            <AltitudeMeters>578.5999755859375</AltitudeMeters>
            <DistanceMeters>NAN</DistanceMeters>
          </Trackpoint>
          <Trackpoint>
            <Time>2021-08-14T09:30:04.000Z</Time>
            <Position>
              <LatitudeDegrees>43.003577180206775665283203125</LatitudeDegrees>
              <LongitudeDegrees>-1.89331845380365848541259765625</LongitudeDegrees>
            </Position>
            <AltitudeMeters>578.4000244140625</AltitudeMeters>
            <DistanceMeters>NAN</DistanceMeters>
          </Trackpoint>
          <Trackpoint>
            <Time>2021-08-14T09:30:05.000Z</Time>
            <Position>
              <LatitudeDegrees>43.0035555548965930938720703125</LatitudeDegrees>
              <LongitudeDegrees>-1.89329800195991992950439453125</LongitudeDegrees>
            </Position>
            <AltitudeMeters>578.4000244140625</AltitudeMeters>
            <DistanceMeters>NAN</DistanceMeters>
          </Trackpoint>
          <Trackpoint>
            <Time>2021-08-14T09:30:06.000Z</Time>
            <Position>
              <LatitudeDegrees>43.00351289100944995880126953125</LatitudeDegrees>
              <LongitudeDegrees>-1.8932736106216907501220703125</LongitudeDegrees>
            </Position>
            <AltitudeMeters>578.4000244140625</AltitudeMeters>
            <DistanceMeters>NAN</DistanceMeters>
          </Trackpoint>
          <Trackpoint>
            <Time>2021-08-14T09:30:07.000Z</Time>
            <Position>
              <LatitudeDegrees>43.0034693889319896697998046875</LatitudeDegrees>
              <LongitudeDegrees>-1.8932546675205230712890625</LongitudeDegrees>
            </Position>
            <AltitudeMeters>578.20001220703125</AltitudeMeters>
            <DistanceMeters>NAN</DistanceMeters>
          </Trackpoint>
          <Trackpoint>
            <Time>2021-08-14T09:30:13.000Z</Time>
            <Position>
              <LatitudeDegrees>43.00321675837039947509765625</LatitudeDegrees>
              <LongitudeDegrees>-1.89311929978430271148681640625</LongitudeDegrees>
            </Position>
            <AltitudeMeters>578.20001220703125</AltitudeMeters>
            <DistanceMeters>NAN</DistanceMeters>
          </Trackpoint>
          <Trackpoint>
            <Time>2021-08-14T09:30:15.000Z</Time>
            <Position>
              <LatitudeDegrees>43.00313000567257404327392578125</LatitudeDegrees>
              <LongitudeDegrees>-1.8930751271545886993408203125</LongitudeDegrees>
            </Position>
            <AltitudeMeters>578</AltitudeMeters>
            <DistanceMeters>NAN</DistanceMeters>
          </Trackpoint>
          <Trackpoint>
            <Time>2021-08-14T09:30:19.000Z</Time>
            <Position>
              <LatitudeDegrees>43.00297426991164684295654296875</LatitudeDegrees>
              <LongitudeDegrees>-1.89297831617295742034912109375</LongitudeDegrees>
            </Position>
            <AltitudeMeters>577.5999755859375</AltitudeMeters>
            <DistanceMeters>NAN</DistanceMeters>
          </Trackpoint>
          <Trackpoint>
            <Time>2021-08-14T09:30:25.000Z</Time>
            <Position>
              <LatitudeDegrees>43.00274225883185863494873046875</LatitudeDegrees>
              <LongitudeDegrees>-1.89278737641870975494384765625</LongitudeDegrees>
            </Position>
            <AltitudeMeters>577</AltitudeMeters>
            <DistanceMeters>NAN</DistanceMeters>
          </Trackpoint>
          <Trackpoint>
            <Time>2021-08-14T09:30:26.000Z</Time>
            <Position>
              <LatitudeDegrees>43.00271376036107540130615234375</LatitudeDegrees>
              <LongitudeDegrees>-1.89275334589183330535888671875</LongitudeDegrees>
            </Position>
            <AltitudeMeters>576.79998779296875</AltitudeMeters>
            <DistanceMeters>NAN</DistanceMeters>
          </Trackpoint>
          <Trackpoint>
            <Time>2021-08-14T09:30:29.000Z</Time>
            <Position>
              <LatitudeDegrees>43.00262759439647197723388671875</LatitudeDegrees>
              <LongitudeDegrees>-1.8926499970257282257080078125</LongitudeDegrees>
            </Position>
            <AltitudeMeters>576.4000244140625</AltitudeMeters>
            <DistanceMeters>NAN</DistanceMeters>
          </Trackpoint>
          <Trackpoint>
            <Time>2021-08-14T09:30:30.000Z</Time>
            <Position>
              <LatitudeDegrees>43.002599515020847320556640625</LatitudeDegrees>
              <LongitudeDegrees>-1.892611943185329437255859375</LongitudeDegrees>
            </Position>
            <AltitudeMeters>576.4000244140625</AltitudeMeters>
            <DistanceMeters>NAN</DistanceMeters>
          </Trackpoint>
          <Trackpoint>
            <Time>2021-08-14T09:30:31.000Z</Time>
            <Position>
              <LatitudeDegrees>43.0025738663971424102783203125</LatitudeDegrees>
              <LongitudeDegrees>-1.89257397316396236419677734375</LongitudeDegrees>
            </Position>
            <AltitudeMeters>576</AltitudeMeters>
            <DistanceMeters>NAN</DistanceMeters>
          </Trackpoint>
          <Trackpoint>
            <Time>2021-08-14T09:30:32.000Z</Time>
            <Position>
              <LatitudeDegrees>43.0025738663971424102783203125</LatitudeDegrees>
              <LongitudeDegrees>-1.89257397316396236419677734375</LongitudeDegrees>
            </Position>
            <AltitudeMeters>576.20001220703125</AltitudeMeters>
            <DistanceMeters>NAN</DistanceMeters>
          </Trackpoint>
          <Trackpoint>
            <Time>2021-08-14T09:30:35.000Z</Time>
            <Position>
              <LatitudeDegrees>43.00247923471033573150634765625</LatitudeDegrees>
              <LongitudeDegrees>-1.8924139626324176788330078125</LongitudeDegrees>
            </Position>
            <AltitudeMeters>575.5999755859375</AltitudeMeters>
            <DistanceMeters>NAN</DistanceMeters>
          </Trackpoint>
          <Trackpoint>
            <Time>2021-08-14T09:30:38.000Z</Time>
            <Position>
              <LatitudeDegrees>43.0024261772632598876953125</LatitudeDegrees>
              <LongitudeDegrees>-1.89228446222841739654541015625</LongitudeDegrees>
            </Position>
            <AltitudeMeters>575.20001220703125</AltitudeMeters>
            <DistanceMeters>NAN</DistanceMeters>
          </Trackpoint>
          <Trackpoint>
            <Time>2021-08-14T09:30:39.000Z</Time>
            <Position>
              <LatitudeDegrees>43.0024261772632598876953125</LatitudeDegrees>
              <LongitudeDegrees>-1.89228446222841739654541015625</LongitudeDegrees>
            </Position>
            <AltitudeMeters>575.20001220703125</AltitudeMeters>
            <DistanceMeters>NAN</DistanceMeters>
          </Trackpoint>
          <Trackpoint>
            <Time>2021-08-14T09:30:40.000Z</Time>
            <Position>
              <LatitudeDegrees>43.00239868462085723876953125</LatitudeDegrees>
              <LongitudeDegrees>-1.892202235758304595947265625</LongitudeDegrees>
            </Position>
            <AltitudeMeters>575</AltitudeMeters>
            <DistanceMeters>NAN</DistanceMeters>
          </Trackpoint>
          <Trackpoint>
            <Time>2021-08-14T09:30:41.000Z</Time>
            <Position>
              <LatitudeDegrees>43.0023884586989879608154296875</LatitudeDegrees>
              <LongitudeDegrees>-1.89216560684144496917724609375</LongitudeDegrees>
            </Position>
            <AltitudeMeters>575</AltitudeMeters>
            <DistanceMeters>NAN</DistanceMeters>
          </Trackpoint>
          <Trackpoint>
            <Time>2021-08-14T09:30:42.000Z</Time>
            <Position>
              <LatitudeDegrees>43.00237714312970638275146484375</LatitudeDegrees>
              <LongitudeDegrees>-1.892127804458141326904296875</LongitudeDegrees>
            </Position>
            <AltitudeMeters>575</AltitudeMeters>
            <DistanceMeters>NAN</DistanceMeters>
          </Trackpoint>
          <Trackpoint>
            <Time>2021-08-14T09:30:43.000Z</Time>
            <Position>
              <LatitudeDegrees>43.00236574374139308929443359375</LatitudeDegrees>
              <LongitudeDegrees>-1.89208882860839366912841796875</LongitudeDegrees>
            </Position>
            <AltitudeMeters>574.79998779296875</AltitudeMeters>
            <DistanceMeters>NAN</DistanceMeters>
          </Trackpoint>
          <Trackpoint>
            <Time>2021-08-14T09:30:44.000Z</Time>
            <Position>
              <LatitudeDegrees>43.0023589543998241424560546875</LatitudeDegrees>
              <LongitudeDegrees>-1.89205463044345378875732421875</LongitudeDegrees>
            </Position>
            <AltitudeMeters>574.79998779296875</AltitudeMeters>
            <DistanceMeters>NAN</DistanceMeters>
          </Trackpoint>
          <Trackpoint>
            <Time>2021-08-14T09:30:46.000Z</Time>
            <Position>
              <LatitudeDegrees>43.002343364059925079345703125</LatitudeDegrees>
              <LongitudeDegrees>-1.8919911794364452362060546875</LongitudeDegrees>
            </Position>
            <AltitudeMeters>574.79998779296875</AltitudeMeters>
            <DistanceMeters>NAN</DistanceMeters>
          </Trackpoint>
          <Trackpoint>
            <Time>2021-08-14T09:30:47.000Z</Time>
            <Position>
              <LatitudeDegrees>43.0023314617574214935302734375</LatitudeDegrees>
              <LongitudeDegrees>-1.891956143081188201904296875</LongitudeDegrees>
            </Position>
            <AltitudeMeters>574.5999755859375</AltitudeMeters>
            <DistanceMeters>NAN</DistanceMeters>
          </Trackpoint>
          <Trackpoint>
            <Time>2021-08-14T09:30:48.000Z</Time>
            <Position>
              <LatitudeDegrees>43.0023244209587574005126953125</LatitudeDegrees>
              <LongitudeDegrees>-1.8919177539646625518798828125</LongitudeDegrees>
            </Position>
            <AltitudeMeters>574.5999755859375</AltitudeMeters>
            <DistanceMeters>NAN</DistanceMeters>
          </Trackpoint>
          <Trackpoint>
            <Time>2021-08-14T09:30:55.000Z</Time>
            <Position>
              <LatitudeDegrees>43.00227656029164791107177734375</LatitudeDegrees>
              <LongitudeDegrees>-1.89165581949055194854736328125</LongitudeDegrees>
            </Position>
            <AltitudeMeters>574</AltitudeMeters>
            <DistanceMeters>NAN</DistanceMeters>
          </Trackpoint>
          <Trackpoint>
            <Time>2021-08-14T09:30:56.000Z</Time>
            <Position>
              <LatitudeDegrees>43.00226164050400257110595703125</LatitudeDegrees>
              <LongitudeDegrees>-1.89155205152928829193115234375</LongitudeDegrees>
            </Position>
            <AltitudeMeters>573.79998779296875</AltitudeMeters>
            <DistanceMeters>NAN</DistanceMeters>
          </Trackpoint>
          <Trackpoint>
            <Time>2021-08-14T09:30:59.000Z</Time>
            <Position>
              <LatitudeDegrees>43.002242781221866607666015625</LatitudeDegrees>
              <LongitudeDegrees>-1.89139614813029766082763671875</LongitudeDegrees>
            </Position>
            <AltitudeMeters>573.4000244140625</AltitudeMeters>
            <DistanceMeters>NAN</DistanceMeters>
          </Trackpoint>
          <Trackpoint>
            <Time>2021-08-14T09:31:00.000Z</Time>
            <Position>
              <LatitudeDegrees>43.00223641097545623779296875</LatitudeDegrees>
              <LongitudeDegrees>-1.891346611082553863525390625</LongitudeDegrees>
            </Position>
            <AltitudeMeters>573.4000244140625</AltitudeMeters>
            <DistanceMeters>NAN</DistanceMeters>
          </Trackpoint>
          <Trackpoint>
            <Time>2021-08-14T09:31:01.000Z</Time>
            <Position>
              <LatitudeDegrees>43.00223314203321933746337890625</LatitudeDegrees>
              <LongitudeDegrees>-1.89130126498639583587646484375</LongitudeDegrees>
            </Position>
            <AltitudeMeters>573.20001220703125</AltitudeMeters>
            <DistanceMeters>NAN</DistanceMeters>
          </Trackpoint>
          <Trackpoint>
            <Time>2021-08-14T09:31:06.000Z</Time>
            <Position>
              <LatitudeDegrees>43.0021966807544231414794921875</LatitudeDegrees>
              <LongitudeDegrees>-1.8910889513790607452392578125</LongitudeDegrees>
            </Position>
            <AltitudeMeters>573</AltitudeMeters>
            <DistanceMeters>NAN</DistanceMeters>
          </Trackpoint>
          <Trackpoint>
            <Time>2021-08-14T09:31:07.000Z</Time>
            <Position>
              <LatitudeDegrees>43.00219207070767879486083984375</LatitudeDegrees>
              <LongitudeDegrees>-1.89105198718607425689697265625</LongitudeDegrees>
            </Position>
            <AltitudeMeters>573</AltitudeMeters>
            <DistanceMeters>NAN</DistanceMeters>
          </Trackpoint>
          <Trackpoint>
            <Time>2021-08-14T09:31:08.000Z</Time>
            <Position>
              <LatitudeDegrees>43.00218536518514156341552734375</LatitudeDegrees>
              <LongitudeDegrees>-1.89101275987923145294189453125</LongitudeDegrees>
            </Position>
            <AltitudeMeters>572.79998779296875</AltitudeMeters>
            <DistanceMeters>NAN</DistanceMeters>
          </Trackpoint>
          <Trackpoint>
            <Time>2021-08-14T09:31:09.000Z</Time>
            <Position>
              <LatitudeDegrees>43.00217899493873119354248046875</LatitudeDegrees>
              <LongitudeDegrees>-1.89096749760210514068603515625</LongitudeDegrees>
            </Position>
            <AltitudeMeters>572.5999755859375</AltitudeMeters>
            <DistanceMeters>NAN</DistanceMeters>
          </Trackpoint>
          <Trackpoint>
            <Time>2021-08-14T09:31:10.000Z</Time>
            <Position>
              <LatitudeDegrees>43.0021728761494159698486328125</LatitudeDegrees>
              <LongitudeDegrees>-1.8909246660768985748291015625</LongitudeDegrees>
            </Position>
            <AltitudeMeters>572.4000244140625</AltitudeMeters>
            <DistanceMeters>NAN</DistanceMeters>
          </Trackpoint>
          <Trackpoint>
            <Time>2021-08-14T09:31:11.000Z</Time>
            <Position>
              <LatitudeDegrees>43.00216642208397388458251953125</LatitudeDegrees>
              <LongitudeDegrees>-1.89087621867656707763671875</LongitudeDegrees>
            </Position>
            <AltitudeMeters>572.4000244140625</AltitudeMeters>
            <DistanceMeters>NAN</DistanceMeters>
          </Trackpoint>
          <Trackpoint>
            <Time>2021-08-14T09:31:12.000Z</Time>
            <Position>
              <LatitudeDegrees>43.0021631531417369842529296875</LatitudeDegrees>
              <LongitudeDegrees>-1.8908341415226459503173828125</LongitudeDegrees>
            </Position>
            <AltitudeMeters>572.20001220703125</AltitudeMeters>
            <DistanceMeters>NAN</DistanceMeters>
          </Trackpoint>
          <Trackpoint>
            <Time>2021-08-14T09:31:13.000Z</Time>
            <Position>
              <LatitudeDegrees>43.00215996801853179931640625</LatitudeDegrees>
              <LongitudeDegrees>-1.8907955847680568695068359375</LongitudeDegrees>
            </Position>
            <AltitudeMeters>572.20001220703125</AltitudeMeters>
            <DistanceMeters>NAN</DistanceMeters>
          </Trackpoint>
          <Trackpoint>
            <Time>2021-08-14T09:31:14.000Z</Time>
            <Position>
              <LatitudeDegrees>43.00215837545692920684814453125</LatitudeDegrees>
              <LongitudeDegrees>-1.89075996167957782745361328125</LongitudeDegrees>
            </Position>
            <AltitudeMeters>572.20001220703125</AltitudeMeters>
            <DistanceMeters>NAN</DistanceMeters>
          </Trackpoint>
          <Trackpoint>
            <Time>2021-08-14T09:31:15.000Z</Time>
            <Position>
              <LatitudeDegrees>43.0021557770669460296630859375</LatitudeDegrees>
              <LongitudeDegrees>-1.89072199165821075439453125</LongitudeDegrees>
            </Position>
            <AltitudeMeters>572</AltitudeMeters>
            <DistanceMeters>NAN</DistanceMeters>
          </Trackpoint>
          <Trackpoint>
            <Time>2021-08-14T09:31:16.000Z</Time>
            <Position>
              <LatitudeDegrees>43.0021564476191997528076171875</LatitudeDegrees>
              <LongitudeDegrees>-1.8906904757022857666015625</LongitudeDegrees>
            </Position>
            <AltitudeMeters>572</AltitudeMeters>
            <DistanceMeters>NAN</DistanceMeters>
          </Trackpoint>
          <Trackpoint>
            <Time>2021-08-14T09:31:17.000Z</Time>
            <Position>
              <LatitudeDegrees>43.0021601356565952301025390625</LatitudeDegrees>
              <LongitudeDegrees>-1.89066206105053424835205078125</LongitudeDegrees>
            </Position>
            <AltitudeMeters>571.79998779296875</AltitudeMeters>
            <DistanceMeters>NAN</DistanceMeters>
          </Trackpoint>
          <Trackpoint>
            <Time>2021-08-14T09:31:18.000Z</Time>
            <Position>
              <LatitudeDegrees>43.0021624825894832611083984375</LatitudeDegrees>
              <LongitudeDegrees>-1.8906373344361782073974609375</LongitudeDegrees>
            </Position>
            <AltitudeMeters>571.79998779296875</AltitudeMeters>
            <DistanceMeters>NAN</DistanceMeters>
          </Trackpoint>
          <Trackpoint>
            <Time>2021-08-14T09:31:19.000Z</Time>
            <Position>
              <LatitudeDegrees>43.00216558389365673065185546875</LatitudeDegrees>
              <LongitudeDegrees>-1.89061579294502735137939453125</LongitudeDegrees>
            </Position>
            <AltitudeMeters>571.79998779296875</AltitudeMeters>
            <DistanceMeters>NAN</DistanceMeters>
          </Trackpoint>
          <Trackpoint>
            <Time>2021-08-14T09:31:20.000Z</Time>
            <Position>
              <LatitudeDegrees>43.00216801464557647705078125</LatitudeDegrees>
              <LongitudeDegrees>-1.89059584401547908782958984375</LongitudeDegrees>
            </Position>
            <AltitudeMeters>571.79998779296875</AltitudeMeters>
            <DistanceMeters>NAN</DistanceMeters>
          </Trackpoint>
          <Trackpoint>
            <Time>2021-08-14T09:31:21.000Z</Time>
            <Position>
              <LatitudeDegrees>43.002170361578464508056640625</LatitudeDegrees>
              <LongitudeDegrees>-1.89057757146656513214111328125</LongitudeDegrees>
            </Position>
            <AltitudeMeters>571.79998779296875</AltitudeMeters>
            <DistanceMeters>NAN</DistanceMeters>
          </Trackpoint>
          <Trackpoint>
            <Time>2021-08-14T09:31:22.000Z</Time>
            <Position>
              <LatitudeDegrees>43.00217312760651111602783203125</LatitudeDegrees>
              <LongitudeDegrees>-1.890560053288936614990234375</LongitudeDegrees>
            </Position>
            <AltitudeMeters>571.79998779296875</AltitudeMeters>
            <DistanceMeters>NAN</DistanceMeters>
          </Trackpoint>
          <Trackpoint>
            <Time>2021-08-14T09:31:25.000Z</Time>
            <Position>
              <LatitudeDegrees>43.0021722055971622467041015625</LatitudeDegrees>
              <LongitudeDegrees>-1.8904935009777545928955078125</LongitudeDegrees>
            </Position>
            <AltitudeMeters>572</AltitudeMeters>
            <DistanceMeters>NAN</DistanceMeters>
          </Trackpoint>
          <Trackpoint>
            <Time>2021-08-14T09:31:26.000Z</Time>
            <Position>
              <LatitudeDegrees>43.0021638236939907073974609375</LatitudeDegrees>
              <LongitudeDegrees>-1.8904703669250011444091796875</LongitudeDegrees>
            </Position>
            <AltitudeMeters>572</AltitudeMeters>
            <DistanceMeters>NAN</DistanceMeters>
          </Trackpoint>
          <Trackpoint>
            <Time>2021-08-14T09:31:27.000Z</Time>
            <Position>
              <LatitudeDegrees>43.002156950533390045166015625</LatitudeDegrees>
              <LongitudeDegrees>-1.8904475681483745574951171875</LongitudeDegrees>
            </Position>
            <AltitudeMeters>572</AltitudeMeters>
            <DistanceMeters>NAN</DistanceMeters>
          </Trackpoint>
          <Trackpoint>
            <Time>2021-08-14T09:31:29.000Z</Time>
            <Position>
              <LatitudeDegrees>43.00212937407195568084716796875</LatitudeDegrees>
              <LongitudeDegrees>-1.890397109091281890869140625</LongitudeDegrees>
            </Position>
            <AltitudeMeters>572</AltitudeMeters>
            <DistanceMeters>NAN</DistanceMeters>
          </Trackpoint>
          <Trackpoint>
            <Time>2021-08-14T09:31:30.000Z</Time>
            <Position>
              <LatitudeDegrees>43.0021074973046779632568359375</LatitudeDegrees>
              <LongitudeDegrees>-1.890366263687610626220703125</LongitudeDegrees>
            </Position>
            <AltitudeMeters>572</AltitudeMeters>
            <DistanceMeters>NAN</DistanceMeters>
          </Trackpoint>
          <Trackpoint>
            <Time>2021-08-14T09:31:34.000Z</Time>
            <Position>
              <LatitudeDegrees>43.00203801132738590240478515625</LatitudeDegrees>
              <LongitudeDegrees>-1.8902598135173320770263671875</LongitudeDegrees>
            </Position>
            <AltitudeMeters>572</AltitudeMeters>
            <DistanceMeters>NAN</DistanceMeters>
          </Trackpoint>
          <Trackpoint>
            <Time>2021-08-14T09:31:39.000Z</Time>
            <Position>
              <LatitudeDegrees>43.00197145901620388031005859375</LatitudeDegrees>
              <LongitudeDegrees>-1.89013819210231304168701171875</LongitudeDegrees>
            </Position>
            <AltitudeMeters>572</AltitudeMeters>
            <DistanceMeters>NAN</DistanceMeters>
          </Trackpoint>
          <Trackpoint>
            <Time>2021-08-14T09:31:40.000Z</Time>
            <Position>
              <LatitudeDegrees>43.00195570103824138641357421875</LatitudeDegrees>
              <LongitudeDegrees>-1.89011623151600360870361328125</LongitudeDegrees>
            </Position>
            <AltitudeMeters>572</AltitudeMeters>
            <DistanceMeters>NAN</DistanceMeters>
          </Trackpoint>
          <Trackpoint>
            <Time>2021-08-14T09:31:41.000Z</Time>
            <Position>
              <LatitudeDegrees>43.0019455589354038238525390625</LatitudeDegrees>
              <LongitudeDegrees>-1.890099383890628814697265625</LongitudeDegrees>
            </Position>
            <AltitudeMeters>572</AltitudeMeters>
            <DistanceMeters>NAN</DistanceMeters>
          </Trackpoint>
          <Trackpoint>
            <Time>2021-08-14T09:31:42.000Z</Time>
            <Position>
              <LatitudeDegrees>43.0019455589354038238525390625</LatitudeDegrees>
              <LongitudeDegrees>-1.890099383890628814697265625</LongitudeDegrees>
            </Position>
            <AltitudeMeters>572</AltitudeMeters>
            <DistanceMeters>NAN</DistanceMeters>
          </Trackpoint>
          <Trackpoint>
            <Time>2021-08-14T09:31:43.000Z</Time>
            <Position>
              <LatitudeDegrees>43.00191597081720829010009765625</LatitudeDegrees>
              <LongitudeDegrees>-1.89005948603153228759765625</LongitudeDegrees>
            </Position>
            <AltitudeMeters>572</AltitudeMeters>
            <DistanceMeters>NAN</DistanceMeters>
          </Trackpoint>
          <Trackpoint>
            <Time>2021-08-14T09:31:44.000Z</Time>
            <Position>
              <LatitudeDegrees>43.00191161222755908966064453125</LatitudeDegrees>
              <LongitudeDegrees>-1.89004565589129924774169921875</LongitudeDegrees>
            </Position>
            <AltitudeMeters>572</AltitudeMeters>
            <DistanceMeters>NAN</DistanceMeters>
          </Trackpoint>
          <Trackpoint>
            <Time>2021-08-14T09:31:45.000Z</Time>
            <Position>
              <LatitudeDegrees>43.00190473906695842742919921875</LatitudeDegrees>
              <LongitudeDegrees>-1.8900281377136707305908203125</LongitudeDegrees>
            </Position>
            <AltitudeMeters>571.79998779296875</AltitudeMeters>
            <DistanceMeters>NAN</DistanceMeters>
          </Trackpoint>
          <Trackpoint>
            <Time>2021-08-14T09:31:46.000Z</Time>
            <Position>
              <LatitudeDegrees>43.00189568661153316497802734375</LatitudeDegrees>
              <LongitudeDegrees>-1.89001112245023250579833984375</LongitudeDegrees>
            </Position>
            <AltitudeMeters>571.79998779296875</AltitudeMeters>
            <DistanceMeters>NAN</DistanceMeters>
          </Trackpoint>
          <Trackpoint>
            <Time>2021-08-14T09:31:47.000Z</Time>
            <Position>
              <LatitudeDegrees>43.00188772380352020263671875</LatitudeDegrees>
              <LongitudeDegrees>-1.88999653793871402740478515625</LongitudeDegrees>
            </Position>
            <AltitudeMeters>571.79998779296875</AltitudeMeters>
            <DistanceMeters>NAN</DistanceMeters>
          </Trackpoint>
          <Trackpoint>
            <Time>2021-08-14T09:31:48.000Z</Time>
            <Position>
              <LatitudeDegrees>43.001878671348094940185546875</LatitudeDegrees>
              <LongitudeDegrees>-1.889983713626861572265625</LongitudeDegrees>
            </Position>
            <AltitudeMeters>571.79998779296875</AltitudeMeters>
            <DistanceMeters>NAN</DistanceMeters>
          </Trackpoint>
          <Trackpoint>
            <Time>2021-08-14T09:31:49.000Z</Time>
            <Position>
              <LatitudeDegrees>43.00186567939817905426025390625</LatitudeDegrees>
              <LongitudeDegrees>-1.88997155986726284027099609375</LongitudeDegrees>
            </Position>
            <AltitudeMeters>571.79998779296875</AltitudeMeters>
            <DistanceMeters>NAN</DistanceMeters>
          </Trackpoint>
          <Trackpoint>
            <Time>2021-08-14T09:31:55.000Z</Time>
            <Position>
              <LatitudeDegrees>43.0017705447971820831298828125</LatitudeDegrees>
              <LongitudeDegrees>-1.889882124960422515869140625</LongitudeDegrees>
            </Position>
            <AltitudeMeters>571.5999755859375</AltitudeMeters>
            <DistanceMeters>NAN</DistanceMeters>
          </Trackpoint>
          <Trackpoint>
            <Time>2021-08-14T09:31:59.000Z</Time>
            <Position>
              <LatitudeDegrees>43.00172268413007259368896484375</LatitudeDegrees>
              <LongitudeDegrees>-1.8898246251046657562255859375</LongitudeDegrees>
            </Position>
            <AltitudeMeters>571.79998779296875</AltitudeMeters>
            <DistanceMeters>NAN</DistanceMeters>
          </Trackpoint>
          <Trackpoint>
            <Time>2021-08-14T09:32:00.000Z</Time>
            <Position>
              <LatitudeDegrees>43.001710362732410430908203125</LatitudeDegrees>
              <LongitudeDegrees>-1.889809034764766693115234375</LongitudeDegrees>
            </Position>
            <AltitudeMeters>571.79998779296875</AltitudeMeters>
            <DistanceMeters>NAN</DistanceMeters>
          </Trackpoint>
          <Trackpoint>
            <Time>2021-08-14T09:32:01.000Z</Time>
            <Position>
              <LatitudeDegrees>43.00169594585895538330078125</LatitudeDegrees>
              <LongitudeDegrees>-1.88979403115808963775634765625</LongitudeDegrees>
            </Position>
            <AltitudeMeters>571.79998779296875</AltitudeMeters>
            <DistanceMeters>NAN</DistanceMeters>
          </Trackpoint>
          <Trackpoint>
            <Time>2021-08-14T09:32:02.000Z</Time>
            <Position>
              <LatitudeDegrees>43.0016847141087055206298828125</LatitudeDegrees>
              <LongitudeDegrees>-1.8897840566933155059814453125</LongitudeDegrees>
            </Position>
            <AltitudeMeters>571.79998779296875</AltitudeMeters>
            <DistanceMeters>NAN</DistanceMeters>
          </Trackpoint>
          <Trackpoint>
            <Time>2021-08-14T09:32:03.000Z</Time>
            <Position>
              <LatitudeDegrees>43.00167541019618511199951171875</LatitudeDegrees>
              <LongitudeDegrees>-1.889774166047573089599609375</LongitudeDegrees>
            </Position>
            <AltitudeMeters>571.79998779296875</AltitudeMeters>
            <DistanceMeters>NAN</DistanceMeters>
          </Trackpoint>
          <Trackpoint>
            <Time>2021-08-14T09:32:04.000Z</Time>
            <Position>
              <LatitudeDegrees>43.0016645975410938262939453125</LatitudeDegrees>
              <LongitudeDegrees>-1.88976444303989410400390625</LongitudeDegrees>
            </Position>
            <AltitudeMeters>571.79998779296875</AltitudeMeters>
            <DistanceMeters>NAN</DistanceMeters>
          </Trackpoint>
          <Trackpoint>
            <Time>2021-08-14T09:32:05.000Z</Time>
            <Position>
              <LatitudeDegrees>43.00165344960987567901611328125</LatitudeDegrees>
              <LongitudeDegrees>-1.889754049479961395263671875</LongitudeDegrees>
            </Position>
            <AltitudeMeters>571.79998779296875</AltitudeMeters>
            <DistanceMeters>NAN</DistanceMeters>
          </Trackpoint>
          <Trackpoint>
            <Time>2021-08-14T09:32:06.000Z</Time>
            <Position>
              <LatitudeDegrees>43.00164355896413326263427734375</LatitudeDegrees>
              <LongitudeDegrees>-1.8897418119013309478759765625</LongitudeDegrees>
            </Position>
            <AltitudeMeters>572</AltitudeMeters>
            <DistanceMeters>NAN</DistanceMeters>
          </Trackpoint>
          <Trackpoint>
            <Time>2021-08-14T09:32:07.000Z</Time>
            <Position>
              <LatitudeDegrees>43.0016350932419300079345703125</LatitudeDegrees>
              <LongitudeDegrees>-1.88972865231335163116455078125</LongitudeDegrees>
            </Position>
            <AltitudeMeters>572</AltitudeMeters>
            <DistanceMeters>NAN</DistanceMeters>
          </Trackpoint>
          <Trackpoint>
            <Time>2021-08-14T09:32:08.000Z</Time>
            <Position>
              <LatitudeDegrees>43.0016268789768218994140625</LatitudeDegrees>
              <LongitudeDegrees>-1.88971616327762603759765625</LongitudeDegrees>
            </Position>
            <AltitudeMeters>572.20001220703125</AltitudeMeters>
            <DistanceMeters>NAN</DistanceMeters>
          </Trackpoint>
          <Trackpoint>
            <Time>2021-08-14T09:32:09.000Z</Time>
            <Position>
              <LatitudeDegrees>43.00161791034042835235595703125</LatitudeDegrees>
              <LongitudeDegrees>-1.8897034227848052978515625</LongitudeDegrees>
            </Position>
            <AltitudeMeters>572.20001220703125</AltitudeMeters>
            <DistanceMeters>NAN</DistanceMeters>
          </Trackpoint>
          <Trackpoint>
            <Time>2021-08-14T09:32:10.000Z</Time>
            <Position>
              <LatitudeDegrees>43.0016076005995273590087890625</LatitudeDegrees>
              <LongitudeDegrees>-1.88968942500650882720947265625</LongitudeDegrees>
            </Position>
            <AltitudeMeters>572.20001220703125</AltitudeMeters>
            <DistanceMeters>NAN</DistanceMeters>
          </Trackpoint>
          <Trackpoint>
            <Time>2021-08-14T09:32:11.000Z</Time>
            <Position>
              <LatitudeDegrees>43.00159536302089691162109375</LatitudeDegrees>
              <LongitudeDegrees>-1.88967584632337093353271484375</LongitudeDegrees>
            </Position>
            <AltitudeMeters>572.20001220703125</AltitudeMeters>
            <DistanceMeters>NAN</DistanceMeters>
          </Trackpoint>
          <Trackpoint>
            <Time>2021-08-14T09:32:14.000Z</Time>
            <Position>
              <LatitudeDegrees>43.0015464127063751220703125</LatitudeDegrees>
              <LongitudeDegrees>-1.88963209278881549835205078125</LongitudeDegrees>
            </Position>
            <AltitudeMeters>572.4000244140625</AltitudeMeters>
            <DistanceMeters>NAN</DistanceMeters>
          </Trackpoint>
          <Trackpoint>
            <Time>2021-08-14T09:32:24.000Z</Time>
            <Position>
              <LatitudeDegrees>43.00142101943492889404296875</LatitudeDegrees>
              <LongitudeDegrees>-1.88947585411369800567626953125</LongitudeDegrees>
            </Position>
            <AltitudeMeters>572.20001220703125</AltitudeMeters>
            <DistanceMeters>NAN</DistanceMeters>
          </Trackpoint>
          <Trackpoint>
            <Time>2021-08-14T09:32:25.000Z</Time>
            <Position>
              <LatitudeDegrees>43.00141154788434505462646484375</LatitudeDegrees>
              <LongitudeDegrees>-1.889459006488323211669921875</LongitudeDegrees>
            </Position>
            <AltitudeMeters>572.20001220703125</AltitudeMeters>
            <DistanceMeters>NAN</DistanceMeters>
          </Trackpoint>
          <Trackpoint>
            <Time>2021-08-14T09:32:26.000Z</Time>
            <Position>
              <LatitudeDegrees>43.001403249800205230712890625</LatitudeDegrees>
              <LongitudeDegrees>-1.8894481100142002105712890625</LongitudeDegrees>
            </Position>
            <AltitudeMeters>572.20001220703125</AltitudeMeters>
            <DistanceMeters>NAN</DistanceMeters>
          </Trackpoint>
          <Trackpoint>
            <Time>2021-08-14T09:32:27.000Z</Time>
            <Position>
              <LatitudeDegrees>43.00139226950705051422119140625</LatitudeDegrees>
              <LongitudeDegrees>-1.8894326873123645782470703125</LongitudeDegrees>
            </Position>
            <AltitudeMeters>572</AltitudeMeters>
            <DistanceMeters>NAN</DistanceMeters>
          </Trackpoint>
          <Trackpoint>
            <Time>2021-08-14T09:32:28.000Z</Time>
            <Position>
              <LatitudeDegrees>43.0013806186616420745849609375</LatitudeDegrees>
              <LongitudeDegrees>-1.88941902481019496917724609375</LongitudeDegrees>
            </Position>
            <AltitudeMeters>572</AltitudeMeters>
            <DistanceMeters>NAN</DistanceMeters>
          </Trackpoint>
          <Trackpoint>
            <Time>2021-08-14T09:32:29.000Z</Time>
            <Position>
              <LatitudeDegrees>43.0013719014823436737060546875</LatitudeDegrees>
              <LongitudeDegrees>-1.88940276391804218292236328125</LongitudeDegrees>
            </Position>
            <AltitudeMeters>572</AltitudeMeters>
            <DistanceMeters>NAN</DistanceMeters>
          </Trackpoint>
          <Trackpoint>
            <Time>2021-08-14T09:32:31.000Z</Time>
            <Position>
              <LatitudeDegrees>43.00134382210671901702880859375</LatitudeDegrees>
              <LongitudeDegrees>-1.88935716636478900909423828125</LongitudeDegrees>
            </Position>
            <AltitudeMeters>572</AltitudeMeters>
            <DistanceMeters>NAN</DistanceMeters>
          </Trackpoint>
          <Trackpoint>
            <Time>2021-08-14T09:32:33.000Z</Time>
            <Position>
              <LatitudeDegrees>43.00130593590438365936279296875</LatitudeDegrees>
              <LongitudeDegrees>-1.88932481221854686737060546875</LongitudeDegrees>
            </Position>
            <AltitudeMeters>572</AltitudeMeters>
            <DistanceMeters>NAN</DistanceMeters>
          </Trackpoint>
          <Trackpoint>
            <Time>2021-08-14T09:32:34.000Z</Time>
            <Position>
              <LatitudeDegrees>43.00128690898418426513671875</LatitudeDegrees>
              <LongitudeDegrees>-1.889313496649265289306640625</LongitudeDegrees>
            </Position>
            <AltitudeMeters>572</AltitudeMeters>
            <DistanceMeters>NAN</DistanceMeters>
          </Trackpoint>
          <Trackpoint>
            <Time>2021-08-14T09:32:35.000Z</Time>
            <Position>
              <LatitudeDegrees>43.001267127692699432373046875</LatitudeDegrees>
              <LongitudeDegrees>-1.88930670730769634246826171875</LongitudeDegrees>
            </Position>
            <AltitudeMeters>572</AltitudeMeters>
            <DistanceMeters>NAN</DistanceMeters>
          </Trackpoint>
          <Trackpoint>
            <Time>2021-08-14T09:32:38.000Z</Time>
            <Position>
              <LatitudeDegrees>43.001215159893035888671875</LatitudeDegrees>
              <LongitudeDegrees>-1.8892653845250606536865234375</LongitudeDegrees>
            </Position>
            <AltitudeMeters>571.79998779296875</AltitudeMeters>
            <DistanceMeters>NAN</DistanceMeters>
          </Trackpoint>
          <Trackpoint>
            <Time>2021-08-14T09:32:39.000Z</Time>
            <Position>
              <LatitudeDegrees>43.0011985637247562408447265625</LatitudeDegrees>
              <LongitudeDegrees>-1.8892402388155460357666015625</LongitudeDegrees>
            </Position>
            <AltitudeMeters>572</AltitudeMeters>
            <DistanceMeters>NAN</DistanceMeters>
          </Trackpoint>
          <Trackpoint>
            <Time>2021-08-14T09:32:40.000Z</Time>
            <Position>
              <LatitudeDegrees>43.001182638108730316162109375</LatitudeDegrees>
              <LongitudeDegrees>-1.88921836204826831817626953125</LongitudeDegrees>
            </Position>
            <AltitudeMeters>572</AltitudeMeters>
            <DistanceMeters>NAN</DistanceMeters>
          </Trackpoint>
          <Trackpoint>
            <Time>2021-08-14T09:32:43.000Z</Time>
            <Position>
              <LatitudeDegrees>43.00111382268369197845458984375</LatitudeDegrees>
              <LongitudeDegrees>-1.8891909532248973846435546875</LongitudeDegrees>
            </Position>
            <AltitudeMeters>572</AltitudeMeters>
            <DistanceMeters>NAN</DistanceMeters>
          </Trackpoint>
          <Trackpoint>
            <Time>2021-08-14T09:32:44.000Z</Time>
            <Position>
              <LatitudeDegrees>43.00109487958252429962158203125</LatitudeDegrees>
              <LongitudeDegrees>-1.88919422216713428497314453125</LongitudeDegrees>
            </Position>
            <AltitudeMeters>572</AltitudeMeters>
            <DistanceMeters>NAN</DistanceMeters>
          </Trackpoint>
          <Trackpoint>
            <Time>2021-08-14T09:32:45.000Z</Time>
            <Position>
              <LatitudeDegrees>43.00107928924262523651123046875</LatitudeDegrees>
              <LongitudeDegrees>-1.8892018496990203857421875</LongitudeDegrees>
            </Position>
            <AltitudeMeters>572</AltitudeMeters>
            <DistanceMeters>NAN</DistanceMeters>
          </Trackpoint>
          <Trackpoint>
            <Time>2021-08-14T09:32:46.000Z</Time>
            <Position>
              <LatitudeDegrees>43.00106805749237537384033203125</LatitudeDegrees>
              <LongitudeDegrees>-1.88920897431671619415283203125</LongitudeDegrees>
            </Position>
            <AltitudeMeters>572</AltitudeMeters>
            <DistanceMeters>NAN</DistanceMeters>
          </Trackpoint>
          <Trackpoint>
            <Time>2021-08-14T09:32:47.000Z</Time>
            <Position>
              <LatitudeDegrees>43.001062609255313873291015625</LatitudeDegrees>
              <LongitudeDegrees>-1.88922573812305927276611328125</LongitudeDegrees>
            </Position>
            <AltitudeMeters>572</AltitudeMeters>
            <DistanceMeters>NAN</DistanceMeters>
          </Trackpoint>
          <Trackpoint>
            <Time>2021-08-14T09:32:48.000Z</Time>
            <Position>
              <LatitudeDegrees>43.001061938703060150146484375</LatitudeDegrees>
              <LongitudeDegrees>-1.88924266956746578216552734375</LongitudeDegrees>
            </Position>
            <AltitudeMeters>572</AltitudeMeters>
            <DistanceMeters>NAN</DistanceMeters>
          </Trackpoint>
          <Trackpoint>
            <Time>2021-08-14T09:32:49.000Z</Time>
            <Position>
              <LatitudeDegrees>43.00107040442526340484619140625</LatitudeDegrees>
              <LongitudeDegrees>-1.88925809226930141448974609375</LongitudeDegrees>
            </Position>
            <AltitudeMeters>572.20001220703125</AltitudeMeters>
            <DistanceMeters>NAN</DistanceMeters>
          </Trackpoint>
          <Trackpoint>
            <Time>2021-08-14T09:32:52.000Z</Time>
            <Position>
              <LatitudeDegrees>43.00111918710172176361083984375</LatitudeDegrees>
              <LongitudeDegrees>-1.88930503092706203460693359375</LongitudeDegrees>
            </Position>
            <AltitudeMeters>572.20001220703125</AltitudeMeters>
            <DistanceMeters>NAN</DistanceMeters>
          </Trackpoint>
          <Trackpoint>
            <Time>2021-08-14T09:33:00.000Z</Time>
            <Position>
              <LatitudeDegrees>43.00127022899687290191650390625</LatitudeDegrees>
              <LongitudeDegrees>-1.8894501216709613800048828125</LongitudeDegrees>
            </Position>
            <AltitudeMeters>572.5999755859375</AltitudeMeters>
            <DistanceMeters>NAN</DistanceMeters>
          </Trackpoint>
          <Trackpoint>
            <Time>2021-08-14T09:33:05.000Z</Time>
            <Position>
              <LatitudeDegrees>43.0013246275484561920166015625</LatitudeDegrees>
              <LongitudeDegrees>-1.889509297907352447509765625</LongitudeDegrees>
            </Position>
            <AltitudeMeters>572.79998779296875</AltitudeMeters>
            <DistanceMeters>NAN</DistanceMeters>
          </Trackpoint>
          <Trackpoint>
            <Time>2021-08-14T09:33:06.000Z</Time>
            <Position>
              <LatitudeDegrees>43.00132705830037593841552734375</LatitudeDegrees>
              <LongitudeDegrees>-1.8895148299634456634521484375</LongitudeDegrees>
            </Position>
            <AltitudeMeters>572.79998779296875</AltitudeMeters>
            <DistanceMeters>NAN</DistanceMeters>
          </Trackpoint>
          <Trackpoint>
            <Time>2021-08-14T09:46:07.000Z</Time>
            <Position>
              <LatitudeDegrees>43.00132311880588531494140625</LatitudeDegrees>
              <LongitudeDegrees>-1.88953586854040622711181640625</LongitudeDegrees>
            </Position>
            <AltitudeMeters>572.4000244140625</AltitudeMeters>
            <DistanceMeters>NAN</DistanceMeters>
          </Trackpoint>
          <Trackpoint>
            <Time>2021-08-14T09:46:09.000Z</Time>
            <Position>
              <LatitudeDegrees>43.00132311880588531494140625</LatitudeDegrees>
              <LongitudeDegrees>-1.88953519798815250396728515625</LongitudeDegrees>
            </Position>
            <AltitudeMeters>572.5999755859375</AltitudeMeters>
            <DistanceMeters>NAN</DistanceMeters>
          </Trackpoint>
          <Trackpoint>
            <Time>2021-08-14T09:46:12.000Z</Time>
            <Position>
              <LatitudeDegrees>43.00131909549236297607421875</LatitudeDegrees>
              <LongitudeDegrees>-1.8895285762846469879150390625</LongitudeDegrees>
            </Position>
            <AltitudeMeters>572.5999755859375</AltitudeMeters>
            <DistanceMeters>NAN</DistanceMeters>
          </Trackpoint>
          <Trackpoint>
            <Time>2021-08-14T09:46:13.000Z</Time>
            <Position>
              <LatitudeDegrees>43.00131096504628658294677734375</LatitudeDegrees>
              <LongitudeDegrees>-1.88951633870601654052734375</LongitudeDegrees>
            </Position>
            <AltitudeMeters>572.5999755859375</AltitudeMeters>
            <DistanceMeters>NAN</DistanceMeters>
          </Trackpoint>
          <Trackpoint>
            <Time>2021-08-14T09:46:14.000Z</Time>
            <Position>
              <LatitudeDegrees>43.0013021640479564666748046875</LatitudeDegrees>
              <LongitudeDegrees>-1.88950401730835437774658203125</LongitudeDegrees>
            </Position>
            <AltitudeMeters>572.79998779296875</AltitudeMeters>
            <DistanceMeters>NAN</DistanceMeters>
          </Trackpoint>
          <Trackpoint>
            <Time>2021-08-14T09:46:16.000Z</Time>
            <Position>
              <LatitudeDegrees>43.00128531642258167266845703125</LatitudeDegrees>
              <LongitudeDegrees>-1.88948239199817180633544921875</LongitudeDegrees>
            </Position>
            <AltitudeMeters>572.79998779296875</AltitudeMeters>
            <DistanceMeters>NAN</DistanceMeters>
          </Trackpoint>
          <Trackpoint>
            <Time>2021-08-14T09:46:19.000Z</Time>
            <Position>
              <LatitudeDegrees>43.0012569017708301544189453125</LatitudeDegrees>
              <LongitudeDegrees>-1.889438889920711517333984375</LongitudeDegrees>
            </Position>
            <AltitudeMeters>572.79998779296875</AltitudeMeters>
            <DistanceMeters>NAN</DistanceMeters>
          </Trackpoint>
          <Trackpoint>
            <Time>2021-08-14T09:46:20.000Z</Time>
            <Position>
              <LatitudeDegrees>43.00124877132475376129150390625</LatitudeDegrees>
              <LongitudeDegrees>-1.889424137771129608154296875</LongitudeDegrees>
            </Position>
            <AltitudeMeters>572.79998779296875</AltitudeMeters>
            <DistanceMeters>NAN</DistanceMeters>
          </Trackpoint>
          <Trackpoint>
            <Time>2021-08-14T09:46:22.000Z</Time>
            <Position>
              <LatitudeDegrees>43.0012310855090618133544921875</LatitudeDegrees>
              <LongitudeDegrees>-1.88939337618649005889892578125</LongitudeDegrees>
            </Position>
            <AltitudeMeters>572.79998779296875</AltitudeMeters>
            <DistanceMeters>NAN</DistanceMeters>
          </Trackpoint>
          <Trackpoint>
            <Time>2021-08-14T09:46:23.000Z</Time>
            <Position>
              <LatitudeDegrees>43.00121792592108249664306640625</LatitudeDegrees>
              <LongitudeDegrees>-1.889378540217876434326171875</LongitudeDegrees>
            </Position>
            <AltitudeMeters>572.79998779296875</AltitudeMeters>
            <DistanceMeters>NAN</DistanceMeters>
          </Trackpoint>
          <Trackpoint>
            <Time>2021-08-14T09:46:28.000Z</Time>
            <Position>
              <LatitudeDegrees>43.00117434002459049224853515625</LatitudeDegrees>
              <LongitudeDegrees>-1.8893150053918361663818359375</LongitudeDegrees>
            </Position>
            <AltitudeMeters>572.4000244140625</AltitudeMeters>
            <DistanceMeters>NAN</DistanceMeters>
          </Trackpoint>
          <Trackpoint>
            <Time>2021-08-14T09:46:29.000Z</Time>
            <Position>
              <LatitudeDegrees>43.00116595812141895294189453125</LatitudeDegrees>
              <LongitudeDegrees>-1.8893009237945079803466796875</LongitudeDegrees>
            </Position>
            <AltitudeMeters>572.4000244140625</AltitudeMeters>
            <DistanceMeters>NAN</DistanceMeters>
          </Trackpoint>
          <Trackpoint>
            <Time>2021-08-14T09:46:30.000Z</Time>
            <Position>
              <LatitudeDegrees>43.00116227008402347564697265625</LatitudeDegrees>
              <LongitudeDegrees>-1.889288686215877532958984375</LongitudeDegrees>
            </Position>
            <AltitudeMeters>572.4000244140625</AltitudeMeters>
            <DistanceMeters>NAN</DistanceMeters>
          </Trackpoint>
          <Trackpoint>
            <Time>2021-08-14T09:46:31.000Z</Time>
            <Position>
              <LatitudeDegrees>43.00115556456148624420166015625</LatitudeDegrees>
              <LongitudeDegrees>-1.889270246028900146484375</LongitudeDegrees>
            </Position>
            <AltitudeMeters>572.20001220703125</AltitudeMeters>
            <DistanceMeters>NAN</DistanceMeters>
          </Trackpoint>
          <Trackpoint>
            <Time>2021-08-14T09:46:32.000Z</Time>
            <Position>
              <LatitudeDegrees>43.001145757734775543212890625</LatitudeDegrees>
              <LongitudeDegrees>-1.88925675116479396820068359375</LongitudeDegrees>
            </Position>
            <AltitudeMeters>572.20001220703125</AltitudeMeters>
            <DistanceMeters>NAN</DistanceMeters>
          </Trackpoint>
          <Trackpoint>
            <Time>2021-08-14T09:46:33.000Z</Time>
            <Position>
              <LatitudeDegrees>43.0011315084993839263916015625</LatitudeDegrees>
              <LongitudeDegrees>-1.88924945890903472900390625</LongitudeDegrees>
            </Position>
            <AltitudeMeters>572.20001220703125</AltitudeMeters>
            <DistanceMeters>NAN</DistanceMeters>
          </Trackpoint>
          <Trackpoint>
            <Time>2021-08-14T09:46:34.000Z</Time>
            <Position>
              <LatitudeDegrees>43.00111985765397548675537109375</LatitudeDegrees>
              <LongitudeDegrees>-1.8892439268529415130615234375</LongitudeDegrees>
            </Position>
            <AltitudeMeters>572.20001220703125</AltitudeMeters>
            <DistanceMeters>NAN</DistanceMeters>
          </Trackpoint>
          <Trackpoint>
            <Time>2021-08-14T09:46:35.000Z</Time>
            <Position>
              <LatitudeDegrees>43.0011077038943767547607421875</LatitudeDegrees>
              <LongitudeDegrees>-1.88923428766429424285888671875</LongitudeDegrees>
            </Position>
            <AltitudeMeters>572.20001220703125</AltitudeMeters>
            <DistanceMeters>NAN</DistanceMeters>
          </Trackpoint>
          <Trackpoint>
            <Time>2021-08-14T09:46:36.000Z</Time>
            <Position>
              <LatitudeDegrees>43.00109387375414371490478515625</LatitudeDegrees>
              <LongitudeDegrees>-1.88922825269401073455810546875</LongitudeDegrees>
            </Position>
            <AltitudeMeters>572.20001220703125</AltitudeMeters>
            <DistanceMeters>NAN</DistanceMeters>
          </Trackpoint>
          <Trackpoint>
            <Time>2021-08-14T09:46:37.000Z</Time>
            <Position>
              <LatitudeDegrees>43.00108800642192363739013671875</LatitudeDegrees>
              <LongitudeDegrees>-1.8892365507781505584716796875</LongitudeDegrees>
            </Position>
            <AltitudeMeters>572</AltitudeMeters>
            <DistanceMeters>NAN</DistanceMeters>
          </Trackpoint>
          <Trackpoint>
            <Time>2021-08-14T09:46:38.000Z</Time>
            <Position>
              <LatitudeDegrees>43.00108079798519611358642578125</LatitudeDegrees>
              <LongitudeDegrees>-1.8892554938793182373046875</LongitudeDegrees>
            </Position>
            <AltitudeMeters>572</AltitudeMeters>
            <DistanceMeters>NAN</DistanceMeters>
          </Trackpoint>
          <Trackpoint>
            <Time>2021-08-14T09:46:39.000Z</Time>
            <Position>
              <LatitudeDegrees>43.00107727758586406707763671875</LatitudeDegrees>
              <LongitudeDegrees>-1.88927267678081989288330078125</LongitudeDegrees>
            </Position>
            <AltitudeMeters>572</AltitudeMeters>
            <DistanceMeters>NAN</DistanceMeters>
          </Trackpoint>
          <Trackpoint>
            <Time>2021-08-14T09:46:40.000Z</Time>
            <Position>
              <LatitudeDegrees>43.00107023678719997406005859375</LatitudeDegrees>
              <LongitudeDegrees>-1.88927896320819854736328125</LongitudeDegrees>
            </Position>
            <AltitudeMeters>572</AltitudeMeters>
            <DistanceMeters>NAN</DistanceMeters>
          </Trackpoint>
          <Trackpoint>
            <Time>2021-08-14T09:46:41.000Z</Time>
            <Position>
              <LatitudeDegrees>43.00106755457818508148193359375</LatitudeDegrees>
              <LongitudeDegrees>-1.88928424380719661712646484375</LongitudeDegrees>
            </Position>
            <AltitudeMeters>572</AltitudeMeters>
            <DistanceMeters>NAN</DistanceMeters>
          </Trackpoint>
          <Trackpoint>
            <Time>2021-08-14T09:46:42.000Z</Time>
            <Position>
              <LatitudeDegrees>43.00105866976082324981689453125</LatitudeDegrees>
              <LongitudeDegrees>-1.8892838247120380401611328125</LongitudeDegrees>
            </Position>
            <AltitudeMeters>571.79998779296875</AltitudeMeters>
            <DistanceMeters>NAN</DistanceMeters>
          </Trackpoint>
          <Trackpoint>
            <Time>2021-08-14T09:46:47.000Z</Time>
            <Position>
              <LatitudeDegrees>43.00105062313377857208251953125</LatitudeDegrees>
              <LongitudeDegrees>-1.88928726129233837127685546875</LongitudeDegrees>
            </Position>
            <AltitudeMeters>571.79998779296875</AltitudeMeters>
            <DistanceMeters>NAN</DistanceMeters>
          </Trackpoint>
          <Trackpoint>
            <Time>2021-08-14T09:46:48.000Z</Time>
            <Position>
              <LatitudeDegrees>43.0010490305721759796142578125</LatitudeDegrees>
              <LongitudeDegrees>-1.8892865069210529327392578125</LongitudeDegrees>
            </Position>
            <AltitudeMeters>571.79998779296875</AltitudeMeters>
            <DistanceMeters>NAN</DistanceMeters>
          </Trackpoint>
          <Trackpoint>
            <Time>2021-08-14T09:46:49.000Z</Time>
            <Position>
              <LatitudeDegrees>43.00104727037250995635986328125</LatitudeDegrees>
              <LongitudeDegrees>-1.8892865069210529327392578125</LongitudeDegrees>
            </Position>
            <AltitudeMeters>571.79998779296875</AltitudeMeters>
            <DistanceMeters>NAN</DistanceMeters>
          </Trackpoint>
          <Trackpoint>
            <Time>2021-08-14T09:52:25.000Z</Time>
            <Position>
              <LatitudeDegrees>43.0010825581848621368408203125</LatitudeDegrees>
              <LongitudeDegrees>-1.8892744369804859161376953125</LongitudeDegrees>
            </Position>
            <AltitudeMeters>573</AltitudeMeters>
            <DistanceMeters>NAN</DistanceMeters>
          </Trackpoint>
          <Trackpoint>
            <Time>2021-08-14T09:52:29.000Z</Time>
            <Position>
              <LatitudeDegrees>43.00109353847801685333251953125</LatitudeDegrees>
              <LongitudeDegrees>-1.88922489993274211883544921875</LongitudeDegrees>
            </Position>
            <AltitudeMeters>573.20001220703125</AltitudeMeters>
            <DistanceMeters>NAN</DistanceMeters>
          </Trackpoint>
          <Trackpoint>
            <Time>2021-08-14T09:52:30.000Z</Time>
            <Position>
              <LatitudeDegrees>43.00109471194446086883544921875</LatitudeDegrees>
              <LongitudeDegrees>-1.889208890497684478759765625</LongitudeDegrees>
            </Position>
            <AltitudeMeters>573.20001220703125</AltitudeMeters>
            <DistanceMeters>NAN</DistanceMeters>
          </Trackpoint>
          <Trackpoint>
            <Time>2021-08-14T09:52:31.000Z</Time>
            <Position>
              <LatitudeDegrees>43.00109823234379291534423828125</LatitudeDegrees>
              <LongitudeDegrees>-1.88919422216713428497314453125</LongitudeDegrees>
            </Position>
            <AltitudeMeters>573</AltitudeMeters>
            <DistanceMeters>NAN</DistanceMeters>
          </Trackpoint>
          <Trackpoint>
            <Time>2021-08-14T09:52:34.000Z</Time>
            <Position>
              <LatitudeDegrees>43.0010996572673320770263671875</LatitudeDegrees>
              <LongitudeDegrees>-1.88916572369635105133056640625</LongitudeDegrees>
            </Position>
            <AltitudeMeters>573</AltitudeMeters>
            <DistanceMeters>NAN</DistanceMeters>
          </Trackpoint>
          <Trackpoint>
            <Time>2021-08-14T09:52:36.000Z</Time>
            <Position>
              <LatitudeDegrees>43.00110024400055408477783203125</LatitudeDegrees>
              <LongitudeDegrees>-1.8891611136496067047119140625</LongitudeDegrees>
            </Position>
            <AltitudeMeters>573</AltitudeMeters>
            <DistanceMeters>NAN</DistanceMeters>
          </Trackpoint>
          <Trackpoint>
            <Time>2021-08-14T09:52:50.000Z</Time>
            <Position>
              <LatitudeDegrees>43.0010889284312725067138671875</LatitudeDegrees>
              <LongitudeDegrees>-1.88914527185261249542236328125</LongitudeDegrees>
            </Position>
            <AltitudeMeters>573</AltitudeMeters>
            <DistanceMeters>NAN</DistanceMeters>
          </Trackpoint>
          <Trackpoint>
            <Time>2021-08-14T09:53:15.000Z</Time>
            <Position>
              <LatitudeDegrees>43.0010931193828582763671875</LatitudeDegrees>
              <LongitudeDegrees>-1.889140494167804718017578125</LongitudeDegrees>
            </Position>
            <AltitudeMeters>572.5999755859375</AltitudeMeters>
            <DistanceMeters>NAN</DistanceMeters>
          </Trackpoint>
          <Trackpoint>
            <Time>2021-08-14T09:53:31.000Z</Time>
            <Position>
              <LatitudeDegrees>43.00109286792576313018798828125</LatitudeDegrees>
              <LongitudeDegrees>-1.8891373090445995330810546875</LongitudeDegrees>
            </Position>
            <AltitudeMeters>572.5999755859375</AltitudeMeters>
            <DistanceMeters>NAN</DistanceMeters>
          </Trackpoint>
          <Trackpoint>
            <Time>2021-08-14T09:53:34.000Z</Time>
            <Position>
              <LatitudeDegrees>43.0010416544973850250244140625</LatitudeDegrees>
              <LongitudeDegrees>-1.88909523189067840576171875</LongitudeDegrees>
            </Position>
            <AltitudeMeters>572.5999755859375</AltitudeMeters>
            <DistanceMeters>NAN</DistanceMeters>
          </Trackpoint>
          <Trackpoint>
            <Time>2021-08-14T09:53:38.000Z</Time>
            <Position>
              <LatitudeDegrees>43.00095926038920879364013671875</LatitudeDegrees>
              <LongitudeDegrees>-1.88902876339852809906005859375</LongitudeDegrees>
            </Position>
            <AltitudeMeters>572.5999755859375</AltitudeMeters>
            <DistanceMeters>NAN</DistanceMeters>
          </Trackpoint>
          <Trackpoint>
            <Time>2021-08-14T09:53:39.000Z</Time>
            <Position>
              <LatitudeDegrees>43.00093562342226505279541015625</LatitudeDegrees>
              <LongitudeDegrees>-1.88900495879352092742919921875</LongitudeDegrees>
            </Position>
            <AltitudeMeters>572.5999755859375</AltitudeMeters>
            <DistanceMeters>NAN</DistanceMeters>
          </Trackpoint>
          <Trackpoint>
            <Time>2021-08-14T09:53:41.000Z</Time>
            <Position>
              <LatitudeDegrees>43.0008934624493122100830078125</LatitudeDegrees>
              <LongitudeDegrees>-1.8889726884663105010986328125</LongitudeDegrees>
            </Position>
            <AltitudeMeters>572.5999755859375</AltitudeMeters>
            <DistanceMeters>NAN</DistanceMeters>
          </Trackpoint>
          <Trackpoint>
            <Time>2021-08-14T09:53:44.000Z</Time>
            <Position>
              <LatitudeDegrees>43.000841997563838958740234375</LatitudeDegrees>
              <LongitudeDegrees>-1.88891225494444370269775390625</LongitudeDegrees>
            </Position>
            <AltitudeMeters>572.5999755859375</AltitudeMeters>
            <DistanceMeters>NAN</DistanceMeters>
          </Trackpoint>
          <Trackpoint>
            <Time>2021-08-14T09:53:45.000Z</Time>
            <Position>
              <LatitudeDegrees>43.00083336420357227325439453125</LatitudeDegrees>
              <LongitudeDegrees>-1.88889046199619770050048828125</LongitudeDegrees>
            </Position>
            <AltitudeMeters>572.5999755859375</AltitudeMeters>
            <DistanceMeters>NAN</DistanceMeters>
          </Trackpoint>
          <Trackpoint>
            <Time>2021-08-14T09:53:46.000Z</Time>
            <Position>
              <LatitudeDegrees>43.00082649104297161102294921875</LatitudeDegrees>
              <LongitudeDegrees>-1.88886984251439571380615234375</LongitudeDegrees>
            </Position>
            <AltitudeMeters>572.5999755859375</AltitudeMeters>
            <DistanceMeters>NAN</DistanceMeters>
          </Trackpoint>
          <Trackpoint>
            <Time>2021-08-14T09:53:47.000Z</Time>
            <Position>
              <LatitudeDegrees>43.00082313828170299530029296875</LatitudeDegrees>
              <LongitudeDegrees>-1.88885760493576526641845703125</LongitudeDegrees>
            </Position>
            <AltitudeMeters>572.5999755859375</AltitudeMeters>
            <DistanceMeters>NAN</DistanceMeters>
          </Trackpoint>
          <Trackpoint>
            <Time>2021-08-14T09:53:50.000Z</Time>
            <Position>
              <LatitudeDegrees>43.0008203722536563873291015625</LatitudeDegrees>
              <LongitudeDegrees>-1.8888540007174015045166015625</LongitudeDegrees>
            </Position>
            <AltitudeMeters>572.79998779296875</AltitudeMeters>
            <DistanceMeters>NAN</DistanceMeters>
          </Trackpoint>
          <Trackpoint>
            <Time>2021-08-14T09:54:06.000Z</Time>
            <Position>
              <LatitudeDegrees>43.00082154572010040283203125</LatitudeDegrees>
              <LongitudeDegrees>-1.8888563476502895355224609375</LongitudeDegrees>
            </Position>
            <AltitudeMeters>572.79998779296875</AltitudeMeters>
            <DistanceMeters>NAN</DistanceMeters>
          </Trackpoint>
          <Trackpoint>
            <Time>2021-08-14T09:54:15.000Z</Time>
            <Position>
              <LatitudeDegrees>43.0008083023130893707275390625</LatitudeDegrees>
              <LongitudeDegrees>-1.88885358162224292755126953125</LongitudeDegrees>
            </Position>
            <AltitudeMeters>572.79998779296875</AltitudeMeters>
            <DistanceMeters>NAN</DistanceMeters>
          </Trackpoint>
          <Trackpoint>
            <Time>2021-08-14T09:54:18.000Z</Time>
            <Position>
              <LatitudeDegrees>43.0007643811404705047607421875</LatitudeDegrees>
              <LongitudeDegrees>-1.8888379074633121490478515625</LongitudeDegrees>
            </Position>
            <AltitudeMeters>572.79998779296875</AltitudeMeters>
            <DistanceMeters>NAN</DistanceMeters>
          </Trackpoint>
          <Trackpoint>
            <Time>2021-08-14T09:54:21.000Z</Time>
            <Position>
              <LatitudeDegrees>43.00071618519723415374755859375</LatitudeDegrees>
              <LongitudeDegrees>-1.8887913040816783905029296875</LongitudeDegrees>
            </Position>
            <AltitudeMeters>572.79998779296875</AltitudeMeters>
            <DistanceMeters>NAN</DistanceMeters>
          </Trackpoint>
          <Trackpoint>
            <Time>2021-08-14T09:54:22.000Z</Time>
            <Position>
              <LatitudeDegrees>43.000708557665348052978515625</LatitudeDegrees>
              <LongitudeDegrees>-1.88877596519887447357177734375</LongitudeDegrees>
            </Position>
            <AltitudeMeters>572.79998779296875</AltitudeMeters>
            <DistanceMeters>NAN</DistanceMeters>
          </Trackpoint>
          <Trackpoint>
            <Time>2021-08-14T09:54:23.000Z</Time>
            <Position>
              <LatitudeDegrees>43.000696487724781036376953125</LatitudeDegrees>
              <LongitudeDegrees>-1.88875459134578704833984375</LongitudeDegrees>
            </Position>
            <AltitudeMeters>572.79998779296875</AltitudeMeters>
            <DistanceMeters>NAN</DistanceMeters>
          </Trackpoint>
          <Trackpoint>
            <Time>2021-08-14T09:54:24.000Z</Time>
            <Position>
              <LatitudeDegrees>43.00067913718521595001220703125</LatitudeDegrees>
              <LongitudeDegrees>-1.8887431919574737548828125</LongitudeDegrees>
            </Position>
            <AltitudeMeters>572.79998779296875</AltitudeMeters>
            <DistanceMeters>NAN</DistanceMeters>
          </Trackpoint>
          <Trackpoint>
            <Time>2021-08-14T09:54:26.000Z</Time>
            <Position>
              <LatitudeDegrees>43.0006369762122631072998046875</LatitudeDegrees>
              <LongitudeDegrees>-1.88871310092508792877197265625</LongitudeDegrees>
            </Position>
            <AltitudeMeters>572.79998779296875</AltitudeMeters>
            <DistanceMeters>NAN</DistanceMeters>
          </Trackpoint>
          <Trackpoint>
            <Time>2021-08-14T09:54:27.000Z</Time>
            <Position>
              <LatitudeDegrees>43.000619374215602874755859375</LatitudeDegrees>
              <LongitudeDegrees>-1.88869667239487171173095703125</LongitudeDegrees>
            </Position>
            <AltitudeMeters>572.79998779296875</AltitudeMeters>
            <DistanceMeters>NAN</DistanceMeters>
          </Trackpoint>
          <Trackpoint>
            <Time>2021-08-14T09:54:30.000Z</Time>
            <Position>
              <LatitudeDegrees>43.000563718378543853759765625</LatitudeDegrees>
              <LongitudeDegrees>-1.8886474706232547760009765625</LongitudeDegrees>
            </Position>
            <AltitudeMeters>572.5999755859375</AltitudeMeters>
            <DistanceMeters>NAN</DistanceMeters>
          </Trackpoint>
          <Trackpoint>
            <Time>2021-08-14T09:54:36.000Z</Time>
            <Position>
              <LatitudeDegrees>43.00041711889207363128662109375</LatitudeDegrees>
              <LongitudeDegrees>-1.88851444981992244720458984375</LongitudeDegrees>
            </Position>
            <AltitudeMeters>572.4000244140625</AltitudeMeters>
            <DistanceMeters>NAN</DistanceMeters>
          </Trackpoint>
          <Trackpoint>
            <Time>2021-08-14T09:54:41.000Z</Time>
            <Position>
              <LatitudeDegrees>43.0002393387258052825927734375</LatitudeDegrees>
              <LongitudeDegrees>-1.88835628330707550048828125</LongitudeDegrees>
            </Position>
            <AltitudeMeters>572.20001220703125</AltitudeMeters>
            <DistanceMeters>NAN</DistanceMeters>
          </Trackpoint>
          <Trackpoint>
            <Time>2021-08-14T09:54:42.000Z</Time>
            <Position>
              <LatitudeDegrees>43.0002061463892459869384765625</LatitudeDegrees>
              <LongitudeDegrees>-1.888325773179531097412109375</LongitudeDegrees>
            </Position>
            <AltitudeMeters>572</AltitudeMeters>
            <DistanceMeters>NAN</DistanceMeters>
          </Trackpoint>
          <Trackpoint>
            <Time>2021-08-14T09:54:43.000Z</Time>
            <Position>
              <LatitudeDegrees>43.0001773126423358917236328125</LatitudeDegrees>
              <LongitudeDegrees>-1.88829937018454074859619140625</LongitudeDegrees>
            </Position>
            <AltitudeMeters>572</AltitudeMeters>
            <DistanceMeters>NAN</DistanceMeters>
          </Trackpoint>
          <Trackpoint>
            <Time>2021-08-14T09:54:44.000Z</Time>
            <Position>
              <LatitudeDegrees>43.000148646533489227294921875</LatitudeDegrees>
              <LongitudeDegrees>-1.8882766552269458770751953125</LongitudeDegrees>
            </Position>
            <AltitudeMeters>572</AltitudeMeters>
            <DistanceMeters>NAN</DistanceMeters>
          </Trackpoint>
          <Trackpoint>
            <Time>2021-08-14T09:54:45.000Z</Time>
            <Position>
              <LatitudeDegrees>43.00011939369142055511474609375</LatitudeDegrees>
              <LongitudeDegrees>-1.88825930468738079071044921875</LongitudeDegrees>
            </Position>
            <AltitudeMeters>572</AltitudeMeters>
            <DistanceMeters>NAN</DistanceMeters>
          </Trackpoint>
          <Trackpoint>
            <Time>2021-08-14T09:54:46.000Z</Time>
            <Position>
              <LatitudeDegrees>43.00008955411612987518310546875</LatitudeDegrees>
              <LongitudeDegrees>-1.8882461450994014739990234375</LongitudeDegrees>
            </Position>
            <AltitudeMeters>572</AltitudeMeters>
            <DistanceMeters>NAN</DistanceMeters>
          </Trackpoint>
          <Trackpoint>
            <Time>2021-08-14T09:54:47.000Z</Time>
            <Position>
              <LatitudeDegrees>43.00005954690277576446533203125</LatitudeDegrees>
              <LongitudeDegrees>-1.8882362544536590576171875</LongitudeDegrees>
            </Position>
            <AltitudeMeters>572</AltitudeMeters>
            <DistanceMeters>NAN</DistanceMeters>
          </Trackpoint>
          <Trackpoint>
            <Time>2021-08-14T09:54:56.000Z</Time>
            <Position>
              <LatitudeDegrees>42.99976198934018611907958984375</LatitudeDegrees>
              <LongitudeDegrees>-1.88814547844231128692626953125</LongitudeDegrees>
            </Position>
            <AltitudeMeters>572</AltitudeMeters>
            <DistanceMeters>NAN</DistanceMeters>
          </Trackpoint>
          <Trackpoint>
            <Time>2021-08-14T09:54:57.000Z</Time>
            <Position>
              <LatitudeDegrees>42.99972829408943653106689453125</LatitudeDegrees>
              <LongitudeDegrees>-1.8881412036716938018798828125</LongitudeDegrees>
            </Position>
            <AltitudeMeters>572</AltitudeMeters>
            <DistanceMeters>NAN</DistanceMeters>
          </Trackpoint>
          <Trackpoint>
            <Time>2021-08-14T09:55:03.000Z</Time>
            <Position>
              <LatitudeDegrees>42.99952293746173381805419921875</LatitudeDegrees>
              <LongitudeDegrees>-1.8881640024483203887939453125</LongitudeDegrees>
            </Position>
            <AltitudeMeters>571.79998779296875</AltitudeMeters>
            <DistanceMeters>NAN</DistanceMeters>
          </Trackpoint>
          <Trackpoint>
            <Time>2021-08-14T09:55:10.000Z</Time>
            <Position>
              <LatitudeDegrees>42.9992667026817798614501953125</LatitudeDegrees>
              <LongitudeDegrees>-1.88825930468738079071044921875</LongitudeDegrees>
            </Position>
            <AltitudeMeters>571.4000244140625</AltitudeMeters>
            <DistanceMeters>NAN</DistanceMeters>
          </Trackpoint>
          <Trackpoint>
            <Time>2021-08-14T09:55:12.000Z</Time>
            <Position>
              <LatitudeDegrees>42.9992056824266910552978515625</LatitudeDegrees>
              <LongitudeDegrees>-1.88829048536717891693115234375</LongitudeDegrees>
            </Position>
            <AltitudeMeters>571.20001220703125</AltitudeMeters>
            <DistanceMeters>NAN</DistanceMeters>
          </Trackpoint>
          <Trackpoint>
            <Time>2021-08-14T09:55:13.000Z</Time>
            <Position>
              <LatitudeDegrees>42.99918078817427158355712890625</LatitudeDegrees>
              <LongitudeDegrees>-1.8883028067648410797119140625</LongitudeDegrees>
            </Position>
            <AltitudeMeters>571.20001220703125</AltitudeMeters>
            <DistanceMeters>NAN</DistanceMeters>
          </Trackpoint>
          <Trackpoint>
            <Time>2021-08-14T09:55:14.000Z</Time>
            <Position>
              <LatitudeDegrees>42.99916259944438934326171875</LatitudeDegrees>
              <LongitudeDegrees>-1.88831060193479061126708984375</LongitudeDegrees>
            </Position>
            <AltitudeMeters>571.20001220703125</AltitudeMeters>
            <DistanceMeters>NAN</DistanceMeters>
          </Trackpoint>
          <Trackpoint>
            <Time>2021-08-14T09:55:15.000Z</Time>
            <Position>
              <LatitudeDegrees>42.99914860166609287261962890625</LatitudeDegrees>
              <LongitudeDegrees>-1.888315379619598388671875</LongitudeDegrees>
            </Position>
            <AltitudeMeters>571.20001220703125</AltitudeMeters>
            <DistanceMeters>NAN</DistanceMeters>
          </Trackpoint>
          <Trackpoint>
            <Time>2021-08-14T09:55:16.000Z</Time>
            <Position>
              <LatitudeDegrees>42.99913686700165271759033203125</LatitudeDegrees>
              <LongitudeDegrees>-1.88832082785665988922119140625</LongitudeDegrees>
            </Position>
            <AltitudeMeters>571.20001220703125</AltitudeMeters>
            <DistanceMeters>NAN</DistanceMeters>
          </Trackpoint>
          <Trackpoint>
            <Time>2021-08-14T09:55:17.000Z</Time>
            <Position>
              <LatitudeDegrees>42.9991258867084980010986328125</LatitudeDegrees>
              <LongitudeDegrees>-1.88832518644630908966064453125</LongitudeDegrees>
            </Position>
            <AltitudeMeters>571.20001220703125</AltitudeMeters>
            <DistanceMeters>NAN</DistanceMeters>
          </Trackpoint>
          <Trackpoint>
            <Time>2021-08-14T09:55:18.000Z</Time>
            <Position>
              <LatitudeDegrees>42.99911607988178730010986328125</LatitudeDegrees>
              <LongitudeDegrees>-1.8883232586085796356201171875</LongitudeDegrees>
            </Position>
            <AltitudeMeters>571.4000244140625</AltitudeMeters>
            <DistanceMeters>NAN</DistanceMeters>
          </Trackpoint>
          <Trackpoint>
            <Time>2021-08-14T09:55:19.000Z</Time>
            <Position>
              <LatitudeDegrees>42.999107949435710906982421875</LatitudeDegrees>
              <LongitudeDegrees>-1.88832133077085018157958984375</LongitudeDegrees>
            </Position>
            <AltitudeMeters>571.4000244140625</AltitudeMeters>
            <DistanceMeters>NAN</DistanceMeters>
          </Trackpoint>
          <Trackpoint>
            <Time>2021-08-14T09:55:20.000Z</Time>
            <Position>
              <LatitudeDegrees>42.99909864552319049835205078125</LatitudeDegrees>
              <LongitudeDegrees>-1.88831873238086700439453125</LongitudeDegrees>
            </Position>
            <AltitudeMeters>571.4000244140625</AltitudeMeters>
            <DistanceMeters>NAN</DistanceMeters>
          </Trackpoint>
          <Trackpoint>
            <Time>2021-08-14T09:55:21.000Z</Time>
            <Position>
              <LatitudeDegrees>42.9990868270397186279296875</LatitudeDegrees>
              <LongitudeDegrees>-1.88831948675215244293212890625</LongitudeDegrees>
            </Position>
            <AltitudeMeters>571.5999755859375</AltitudeMeters>
            <DistanceMeters>NAN</DistanceMeters>
          </Trackpoint>
          <Trackpoint>
            <Time>2021-08-14T09:55:22.000Z</Time>
            <Position>
              <LatitudeDegrees>42.99907551147043704986572265625</LatitudeDegrees>
              <LongitudeDegrees>-1.88832342624664306640625</LongitudeDegrees>
            </Position>
            <AltitudeMeters>571.5999755859375</AltitudeMeters>
            <DistanceMeters>NAN</DistanceMeters>
          </Trackpoint>
          <Trackpoint>
            <Time>2021-08-14T09:55:23.000Z</Time>
            <Position>
              <LatitudeDegrees>42.99906260333955287933349609375</LatitudeDegrees>
              <LongitudeDegrees>-1.88833273015916347503662109375</LongitudeDegrees>
            </Position>
            <AltitudeMeters>571.5999755859375</AltitudeMeters>
            <DistanceMeters>NAN</DistanceMeters>
          </Trackpoint>
          <Trackpoint>
            <Time>2021-08-14T09:55:24.000Z</Time>
            <Position>
              <LatitudeDegrees>42.99904458224773406982421875</LatitudeDegrees>
              <LongitudeDegrees>-1.8883433751761913299560546875</LongitudeDegrees>
            </Position>
            <AltitudeMeters>571.5999755859375</AltitudeMeters>
            <DistanceMeters>NAN</DistanceMeters>
          </Trackpoint>
          <Trackpoint>
            <Time>2021-08-14T09:55:26.000Z</Time>
            <Position>
              <LatitudeDegrees>42.99900627695024013519287109375</LatitudeDegrees>
              <LongitudeDegrees>-1.88837279565632343292236328125</LongitudeDegrees>
            </Position>
            <AltitudeMeters>571.5999755859375</AltitudeMeters>
            <DistanceMeters>NAN</DistanceMeters>
          </Trackpoint>
          <Trackpoint>
            <Time>2021-08-14T09:55:28.000Z</Time>
            <Position>
              <LatitudeDegrees>42.9989709891378879547119140625</LatitudeDegrees>
              <LongitudeDegrees>-1.8884121067821979522705078125</LongitudeDegrees>
            </Position>
            <AltitudeMeters>571.5999755859375</AltitudeMeters>
            <DistanceMeters>NAN</DistanceMeters>
          </Trackpoint>
          <Trackpoint>
            <Time>2021-08-14T09:55:29.000Z</Time>
            <Position>
              <LatitudeDegrees>42.998956739902496337890625</LatitudeDegrees>
              <LongitudeDegrees>-1.8884278647601604461669921875</LongitudeDegrees>
            </Position>
            <AltitudeMeters>571.5999755859375</AltitudeMeters>
            <DistanceMeters>NAN</DistanceMeters>
          </Trackpoint>
          <Trackpoint>
            <Time>2021-08-14T09:55:30.000Z</Time>
            <Position>
              <LatitudeDegrees>42.99894534051418304443359375</LatitudeDegrees>
              <LongitudeDegrees>-1.8884375877678394317626953125</LongitudeDegrees>
            </Position>
            <AltitudeMeters>571.5999755859375</AltitudeMeters>
            <DistanceMeters>NAN</DistanceMeters>
          </Trackpoint>
          <Trackpoint>
            <Time>2021-08-14T09:55:32.000Z</Time>
            <Position>
              <LatitudeDegrees>42.99891793169081211090087890625</LatitudeDegrees>
              <LongitudeDegrees>-1.8884640745818614959716796875</LongitudeDegrees>
            </Position>
            <AltitudeMeters>571.4000244140625</AltitudeMeters>
            <DistanceMeters>NAN</DistanceMeters>
          </Trackpoint>
          <Trackpoint>
            <Time>2021-08-14T09:55:35.000Z</Time>
            <Position>
              <LatitudeDegrees>42.99884484149515628814697265625</LatitudeDegrees>
              <LongitudeDegrees>-1.888504140079021453857421875</LongitudeDegrees>
            </Position>
            <AltitudeMeters>571</AltitudeMeters>
            <DistanceMeters>NAN</DistanceMeters>
          </Trackpoint>
          <Trackpoint>
            <Time>2021-08-14T09:55:39.000Z</Time>
            <Position>
              <LatitudeDegrees>42.99872548319399356842041015625</LatitudeDegrees>
              <LongitudeDegrees>-1.8885639868676662445068359375</LongitudeDegrees>
            </Position>
            <AltitudeMeters>570.20001220703125</AltitudeMeters>
            <DistanceMeters>NAN</DistanceMeters>
          </Trackpoint>
          <Trackpoint>
            <Time>2021-08-14T09:55:40.000Z</Time>
            <Position>
              <LatitudeDegrees>42.998695559799671173095703125</LatitudeDegrees>
              <LongitudeDegrees>-1.88858318142592906951904296875</LongitudeDegrees>
            </Position>
            <AltitudeMeters>570</AltitudeMeters>
            <DistanceMeters>NAN</DistanceMeters>
          </Trackpoint>
          <Trackpoint>
            <Time>2021-08-14T09:55:44.000Z</Time>
            <Position>
              <LatitudeDegrees>42.99857410602271556854248046875</LatitudeDegrees>
              <LongitudeDegrees>-1.88866314478218555450439453125</LongitudeDegrees>
            </Position>
            <AltitudeMeters>569.5999755859375</AltitudeMeters>
            <DistanceMeters>NAN</DistanceMeters>
          </Trackpoint>
          <Trackpoint>
            <Time>2021-08-14T09:55:52.000Z</Time>
            <Position>
              <LatitudeDegrees>42.9983188770711421966552734375</LatitudeDegrees>
              <LongitudeDegrees>-1.88877328298985958099365234375</LongitudeDegrees>
            </Position>
            <AltitudeMeters>569.5999755859375</AltitudeMeters>
            <DistanceMeters>NAN</DistanceMeters>
          </Trackpoint>
          <Trackpoint>
            <Time>2021-08-14T09:55:55.000Z</Time>
            <Position>
              <LatitudeDegrees>42.99822072498500347137451171875</LatitudeDegrees>
              <LongitudeDegrees>-1.8887976743280887603759765625</LongitudeDegrees>
            </Position>
            <AltitudeMeters>569.5999755859375</AltitudeMeters>
            <DistanceMeters>NAN</DistanceMeters>
          </Trackpoint>
          <Trackpoint>
            <Time>2021-08-14T09:55:56.000Z</Time>
            <Position>
              <LatitudeDegrees>42.9981891252100467681884765625</LatitudeDegrees>
              <LongitudeDegrees>-1.8888053856790065765380859375</LongitudeDegrees>
            </Position>
            <AltitudeMeters>569.5999755859375</AltitudeMeters>
            <DistanceMeters>NAN</DistanceMeters>
          </Trackpoint>
          <Trackpoint>
            <Time>2021-08-14T09:55:57.000Z</Time>
            <Position>
              <LatitudeDegrees>42.99815886653959751129150390625</LatitudeDegrees>
              <LongitudeDegrees>-1.88880966044962406158447265625</LongitudeDegrees>
            </Position>
            <AltitudeMeters>569.5999755859375</AltitudeMeters>
            <DistanceMeters>NAN</DistanceMeters>
          </Trackpoint>
          <Trackpoint>
            <Time>2021-08-14T09:55:58.000Z</Time>
            <Position>
              <LatitudeDegrees>42.99812994897365570068359375</LatitudeDegrees>
              <LongitudeDegrees>-1.8888127617537975311279296875</LongitudeDegrees>
            </Position>
            <AltitudeMeters>569.5999755859375</AltitudeMeters>
            <DistanceMeters>NAN</DistanceMeters>
          </Trackpoint>
          <Trackpoint>
            <Time>2021-08-14T09:55:59.000Z</Time>
            <Position>
              <LatitudeDegrees>42.99810153432190418243408203125</LatitudeDegrees>
              <LongitudeDegrees>-1.8888107500970363616943359375</LongitudeDegrees>
            </Position>
            <AltitudeMeters>569.5999755859375</AltitudeMeters>
            <DistanceMeters>NAN</DistanceMeters>
          </Trackpoint>
          <Trackpoint>
            <Time>2021-08-14T09:56:00.000Z</Time>
            <Position>
              <LatitudeDegrees>42.99807219766080379486083984375</LatitudeDegrees>
              <LongitudeDegrees>-1.88880966044962406158447265625</LongitudeDegrees>
            </Position>
            <AltitudeMeters>569.5999755859375</AltitudeMeters>
            <DistanceMeters>NAN</DistanceMeters>
          </Trackpoint>
          <Trackpoint>
            <Time>2021-08-14T09:56:01.000Z</Time>
            <Position>
              <LatitudeDegrees>42.99804403446614742279052734375</LatitudeDegrees>
              <LongitudeDegrees>-1.888808570802211761474609375</LongitudeDegrees>
            </Position>
            <AltitudeMeters>569.5999755859375</AltitudeMeters>
            <DistanceMeters>NAN</DistanceMeters>
          </Trackpoint>
          <Trackpoint>
            <Time>2021-08-14T09:56:02.000Z</Time>
            <Position>
              <LatitudeDegrees>42.998016290366649627685546875</LatitudeDegrees>
              <LongitudeDegrees>-1.88880865462124347686767578125</LongitudeDegrees>
            </Position>
            <AltitudeMeters>569.5999755859375</AltitudeMeters>
            <DistanceMeters>NAN</DistanceMeters>
          </Trackpoint>
          <Trackpoint>
            <Time>2021-08-14T09:56:03.000Z</Time>
            <Position>
              <LatitudeDegrees>42.99798418767750263214111328125</LatitudeDegrees>
              <LongitudeDegrees>-1.88880731351673603057861328125</LongitudeDegrees>
            </Position>
            <AltitudeMeters>569.5999755859375</AltitudeMeters>
            <DistanceMeters>NAN</DistanceMeters>
          </Trackpoint>
          <Trackpoint>
            <Time>2021-08-14T09:56:04.000Z</Time>
            <Position>
              <LatitudeDegrees>42.99795049242675304412841796875</LatitudeDegrees>
              <LongitudeDegrees>-1.88880111090838909149169921875</LongitudeDegrees>
            </Position>
            <AltitudeMeters>569.5999755859375</AltitudeMeters>
            <DistanceMeters>NAN</DistanceMeters>
          </Trackpoint>
          <Trackpoint>
            <Time>2021-08-14T09:56:05.000Z</Time>
            <Position>
              <LatitudeDegrees>42.99791713245213031768798828125</LatitudeDegrees>
              <LongitudeDegrees>-1.88879474066197872161865234375</LongitudeDegrees>
            </Position>
            <AltitudeMeters>569.5999755859375</AltitudeMeters>
            <DistanceMeters>NAN</DistanceMeters>
          </Trackpoint>
          <Trackpoint>
            <Time>2021-08-14T09:56:11.000Z</Time>
            <Position>
              <LatitudeDegrees>42.997714541852474212646484375</LatitudeDegrees>
              <LongitudeDegrees>-1.8887933157384395599365234375</LongitudeDegrees>
            </Position>
            <AltitudeMeters>569.5999755859375</AltitudeMeters>
            <DistanceMeters>NAN</DistanceMeters>
          </Trackpoint>
          <Trackpoint>
            <Time>2021-08-14T09:56:19.000Z</Time>
            <Position>
              <LatitudeDegrees>42.99744238145649433135986328125</LatitudeDegrees>
              <LongitudeDegrees>-1.8887983448803424835205078125</LongitudeDegrees>
            </Position>
            <AltitudeMeters>569</AltitudeMeters>
            <DistanceMeters>NAN</DistanceMeters>
          </Trackpoint>
          <Trackpoint>
            <Time>2021-08-14T09:56:21.000Z</Time>
            <Position>
              <LatitudeDegrees>42.9973723925650119781494140625</LatitudeDegrees>
              <LongitudeDegrees>-1.88880127854645252227783203125</LongitudeDegrees>
            </Position>
            <AltitudeMeters>568.79998779296875</AltitudeMeters>
            <DistanceMeters>NAN</DistanceMeters>
          </Trackpoint>
          <Trackpoint>
            <Time>2021-08-14T09:56:23.000Z</Time>
            <Position>
              <LatitudeDegrees>42.9973060078918933868408203125</LatitudeDegrees>
              <LongitudeDegrees>-1.888803541660308837890625</LongitudeDegrees>
            </Position>
            <AltitudeMeters>568.5999755859375</AltitudeMeters>
            <DistanceMeters>NAN</DistanceMeters>
          </Trackpoint>
          <Trackpoint>
            <Time>2021-08-14T09:56:29.000Z</Time>
            <Position>
              <LatitudeDegrees>42.9971081949770450592041015625</LatitudeDegrees>
              <LongitudeDegrees>-1.888821981847286224365234375</LongitudeDegrees>
            </Position>
            <AltitudeMeters>568.20001220703125</AltitudeMeters>
            <DistanceMeters>NAN</DistanceMeters>
          </Trackpoint>
          <Trackpoint>
            <Time>2021-08-14T09:56:32.000Z</Time>
            <Position>
              <LatitudeDegrees>42.99701146781444549560546875</LatitudeDegrees>
              <LongitudeDegrees>-1.88886079005897045135498046875</LongitudeDegrees>
            </Position>
            <AltitudeMeters>567.79998779296875</AltitudeMeters>
            <DistanceMeters>NAN</DistanceMeters>
          </Trackpoint>
          <Trackpoint>
            <Time>2021-08-14T09:56:33.000Z</Time>
            <Position>
              <LatitudeDegrees>42.99697886221110820770263671875</LatitudeDegrees>
              <LongitudeDegrees>-1.888873614370822906494140625</LongitudeDegrees>
            </Position>
            <AltitudeMeters>567.79998779296875</AltitudeMeters>
            <DistanceMeters>NAN</DistanceMeters>
          </Trackpoint>
          <Trackpoint>
            <Time>2021-08-14T09:56:35.000Z</Time>
            <Position>
              <LatitudeDegrees>42.9969170875847339630126953125</LatitudeDegrees>
              <LongitudeDegrees>-1.8888989277184009552001953125</LongitudeDegrees>
            </Position>
            <AltitudeMeters>567.5999755859375</AltitudeMeters>
            <DistanceMeters>NAN</DistanceMeters>
          </Trackpoint>
          <Trackpoint>
            <Time>2021-08-14T09:56:42.000Z</Time>
            <Position>
              <LatitudeDegrees>42.996681891381740570068359375</LatitudeDegrees>
              <LongitudeDegrees>-1.8890645541250705718994140625</LongitudeDegrees>
            </Position>
            <AltitudeMeters>567</AltitudeMeters>
            <DistanceMeters>NAN</DistanceMeters>
          </Trackpoint>
          <Trackpoint>
            <Time>2021-08-14T09:56:46.000Z</Time>
            <Position>
              <LatitudeDegrees>42.996553480625152587890625</LatitudeDegrees>
              <LongitudeDegrees>-1.88916404731571674346923828125</LongitudeDegrees>
            </Position>
            <AltitudeMeters>566.79998779296875</AltitudeMeters>
            <DistanceMeters>NAN</DistanceMeters>
          </Trackpoint>
          <Trackpoint>
            <Time>2021-08-14T09:56:47.000Z</Time>
            <Position>
              <LatitudeDegrees>42.99652623943984508514404296875</LatitudeDegrees>
              <LongitudeDegrees>-1.889182068407535552978515625</LongitudeDegrees>
            </Position>
            <AltitudeMeters>566.79998779296875</AltitudeMeters>
            <DistanceMeters>NAN</DistanceMeters>
          </Trackpoint>
          <Trackpoint>
            <Time>2021-08-14T09:56:48.000Z</Time>
            <Position>
              <LatitudeDegrees>42.99650243483483791351318359375</LatitudeDegrees>
              <LongitudeDegrees>-1.8892003409564495086669921875</LongitudeDegrees>
            </Position>
            <AltitudeMeters>566.79998779296875</AltitudeMeters>
            <DistanceMeters>NAN</DistanceMeters>
          </Trackpoint>
          <Trackpoint>
            <Time>2021-08-14T09:56:49.000Z</Time>
            <Position>
              <LatitudeDegrees>42.99647829495370388031005859375</LatitudeDegrees>
              <LongitudeDegrees>-1.88922205008566379547119140625</LongitudeDegrees>
            </Position>
            <AltitudeMeters>566.79998779296875</AltitudeMeters>
            <DistanceMeters>NAN</DistanceMeters>
          </Trackpoint>
          <Trackpoint>
            <Time>2021-08-14T09:56:50.000Z</Time>
            <Position>
              <LatitudeDegrees>42.99645365215837955474853515625</LatitudeDegrees>
              <LongitudeDegrees>-1.889243088662624359130859375</LongitudeDegrees>
            </Position>
            <AltitudeMeters>566.79998779296875</AltitudeMeters>
            <DistanceMeters>NAN</DistanceMeters>
          </Trackpoint>
          <Trackpoint>
            <Time>2021-08-14T09:56:53.000Z</Time>
            <Position>
              <LatitudeDegrees>42.99637586809694766998291015625</LatitudeDegrees>
              <LongitudeDegrees>-1.88930201344192028045654296875</LongitudeDegrees>
            </Position>
            <AltitudeMeters>566.79998779296875</AltitudeMeters>
            <DistanceMeters>NAN</DistanceMeters>
          </Trackpoint>
          <Trackpoint>
            <Time>2021-08-14T09:56:54.000Z</Time>
            <Position>
              <LatitudeDegrees>42.9963555000722408294677734375</LatitudeDegrees>
              <LongitudeDegrees>-1.88932062126696109771728515625</LongitudeDegrees>
            </Position>
            <AltitudeMeters>566.5999755859375</AltitudeMeters>
            <DistanceMeters>NAN</DistanceMeters>
          </Trackpoint>
          <Trackpoint>
            <Time>2021-08-14T09:56:55.000Z</Time>
            <Position>
              <LatitudeDegrees>42.9963353835046291351318359375</LatitudeDegrees>
              <LongitudeDegrees>-1.8893321044743061065673828125</LongitudeDegrees>
            </Position>
            <AltitudeMeters>566.5999755859375</AltitudeMeters>
            <DistanceMeters>NAN</DistanceMeters>
          </Trackpoint>
          <Trackpoint>
            <Time>2021-08-14T09:56:56.000Z</Time>
            <Position>
              <LatitudeDegrees>42.99631384201347827911376953125</LatitudeDegrees>
              <LongitudeDegrees>-1.8893475271761417388916015625</LongitudeDegrees>
            </Position>
            <AltitudeMeters>566.5999755859375</AltitudeMeters>
            <DistanceMeters>NAN</DistanceMeters>
          </Trackpoint>
          <Trackpoint>
            <Time>2021-08-14T09:56:57.000Z</Time>
            <Position>
              <LatitudeDegrees>42.99629238434135913848876953125</LatitudeDegrees>
              <LongitudeDegrees>-1.8893659673631191253662109375</LongitudeDegrees>
            </Position>
            <AltitudeMeters>566.5999755859375</AltitudeMeters>
            <DistanceMeters>NAN</DistanceMeters>
          </Trackpoint>
          <Trackpoint>
            <Time>2021-08-14T09:56:58.000Z</Time>
            <Position>
              <LatitudeDegrees>42.99627478234469890594482421875</LatitudeDegrees>
              <LongitudeDegrees>-1.88938247971236705780029296875</LongitudeDegrees>
            </Position>
            <AltitudeMeters>566.5999755859375</AltitudeMeters>
            <DistanceMeters>NAN</DistanceMeters>
          </Trackpoint>
          <Trackpoint>
            <Time>2021-08-14T09:57:01.000Z</Time>
            <Position>
              <LatitudeDegrees>42.99621208570897579193115234375</LatitudeDegrees>
              <LongitudeDegrees>-1.8894266523420810699462890625</LongitudeDegrees>
            </Position>
            <AltitudeMeters>566.5999755859375</AltitudeMeters>
            <DistanceMeters>NAN</DistanceMeters>
          </Trackpoint>
          <Trackpoint>
            <Time>2021-08-14T09:57:02.000Z</Time>
            <Position>
              <LatitudeDegrees>42.9961915500462055206298828125</LatitudeDegrees>
              <LongitudeDegrees>-1.88944383524358272552490234375</LongitudeDegrees>
            </Position>
            <AltitudeMeters>566.4000244140625</AltitudeMeters>
            <DistanceMeters>NAN</DistanceMeters>
          </Trackpoint>
          <Trackpoint>
            <Time>2021-08-14T09:57:03.000Z</Time>
            <Position>
              <LatitudeDegrees>42.9961607046425342559814453125</LatitudeDegrees>
              <LongitudeDegrees>-1.8894539773464202880859375</LongitudeDegrees>
            </Position>
            <AltitudeMeters>566.4000244140625</AltitudeMeters>
            <DistanceMeters>NAN</DistanceMeters>
          </Trackpoint>
          <Trackpoint>
            <Time>2021-08-14T09:57:04.000Z</Time>
            <Position>
              <LatitudeDegrees>42.99611619673669338226318359375</LatitudeDegrees>
              <LongitudeDegrees>-1.8894725851714611053466796875</LongitudeDegrees>
            </Position>
            <AltitudeMeters>566.4000244140625</AltitudeMeters>
            <DistanceMeters>NAN</DistanceMeters>
          </Trackpoint>
          <Trackpoint>
            <Time>2021-08-14T09:57:07.000Z</Time>
            <Position>
              <LatitudeDegrees>42.99603723920881748199462890625</LatitudeDegrees>
              <LongitudeDegrees>-1.8895325995981693267822265625</LongitudeDegrees>
            </Position>
            <AltitudeMeters>566.4000244140625</AltitudeMeters>
            <DistanceMeters>NAN</DistanceMeters>
          </Trackpoint>
          <Trackpoint>
            <Time>2021-08-14T09:57:08.000Z</Time>
            <Position>
              <LatitudeDegrees>42.996009327471256256103515625</LatitudeDegrees>
              <LongitudeDegrees>-1.88954718410968780517578125</LongitudeDegrees>
            </Position>
            <AltitudeMeters>566.4000244140625</AltitudeMeters>
            <DistanceMeters>NAN</DistanceMeters>
          </Trackpoint>
          <Trackpoint>
            <Time>2021-08-14T09:57:10.000Z</Time>
            <Position>
              <LatitudeDegrees>42.99596113152801990509033203125</LatitudeDegrees>
              <LongitudeDegrees>-1.8895862437784671783447265625</LongitudeDegrees>
            </Position>
            <AltitudeMeters>566.4000244140625</AltitudeMeters>
            <DistanceMeters>NAN</DistanceMeters>
          </Trackpoint>
          <Trackpoint>
            <Time>2021-08-14T09:57:12.000Z</Time>
            <Position>
              <LatitudeDegrees>42.99591016955673694610595703125</LatitudeDegrees>
              <LongitudeDegrees>-1.88962538726627826690673828125</LongitudeDegrees>
            </Position>
            <AltitudeMeters>566.4000244140625</AltitudeMeters>
            <DistanceMeters>NAN</DistanceMeters>
          </Trackpoint>
          <Trackpoint>
            <Time>2021-08-14T09:57:13.000Z</Time>
            <Position>
              <LatitudeDegrees>42.99588586203753948211669921875</LatitudeDegrees>
              <LongitudeDegrees>-1.88964349217712879180908203125</LongitudeDegrees>
            </Position>
            <AltitudeMeters>566.20001220703125</AltitudeMeters>
            <DistanceMeters>NAN</DistanceMeters>
          </Trackpoint>
          <Trackpoint>
            <Time>2021-08-14T09:57:14.000Z</Time>
            <Position>
              <LatitudeDegrees>42.99586188979446887969970703125</LatitudeDegrees>
              <LongitudeDegrees>-1.88965715467929840087890625</LongitudeDegrees>
            </Position>
            <AltitudeMeters>566.20001220703125</AltitudeMeters>
            <DistanceMeters>NAN</DistanceMeters>
          </Trackpoint>
          <Trackpoint>
            <Time>2021-08-14T09:57:20.000Z</Time>
            <Position>
              <LatitudeDegrees>42.99569123424589633941650390625</LatitudeDegrees>
              <LongitudeDegrees>-1.88977961428463459014892578125</LongitudeDegrees>
            </Position>
            <AltitudeMeters>566.20001220703125</AltitudeMeters>
            <DistanceMeters>NAN</DistanceMeters>
          </Trackpoint>
          <Trackpoint>
            <Time>2021-08-14T09:57:21.000Z</Time>
            <Position>
              <LatitudeDegrees>42.99564077518880367279052734375</LatitudeDegrees>
              <LongitudeDegrees>-1.88980140723288059234619140625</LongitudeDegrees>
            </Position>
            <AltitudeMeters>566.20001220703125</AltitudeMeters>
            <DistanceMeters>NAN</DistanceMeters>
          </Trackpoint>
          <Trackpoint>
            <Time>2021-08-14T09:57:23.000Z</Time>
            <Position>
              <LatitudeDegrees>42.99555008299648761749267578125</LatitudeDegrees>
              <LongitudeDegrees>-1.8898276425898075103759765625</LongitudeDegrees>
            </Position>
            <AltitudeMeters>566.20001220703125</AltitudeMeters>
            <DistanceMeters>NAN</DistanceMeters>
          </Trackpoint>
          <Trackpoint>
            <Time>2021-08-14T09:57:24.000Z</Time>
            <Position>
              <LatitudeDegrees>42.9955129511654376983642578125</LatitudeDegrees>
              <LongitudeDegrees>-1.8898377008736133575439453125</LongitudeDegrees>
            </Position>
            <AltitudeMeters>566.20001220703125</AltitudeMeters>
            <DistanceMeters>NAN</DistanceMeters>
          </Trackpoint>
          <Trackpoint>
            <Time>2021-08-14T09:57:26.000Z</Time>
            <Position>
              <LatitudeDegrees>42.9954559542238712310791015625</LatitudeDegrees>
              <LongitudeDegrees>-1.88987147994339466094970703125</LongitudeDegrees>
            </Position>
            <AltitudeMeters>566.20001220703125</AltitudeMeters>
            <DistanceMeters>NAN</DistanceMeters>
          </Trackpoint>
          <Trackpoint>
            <Time>2021-08-14T09:57:27.000Z</Time>
            <Position>
              <LatitudeDegrees>42.995421253144741058349609375</LatitudeDegrees>
              <LongitudeDegrees>-1.8898889981210231781005859375</LongitudeDegrees>
            </Position>
            <AltitudeMeters>566.20001220703125</AltitudeMeters>
            <DistanceMeters>NAN</DistanceMeters>
          </Trackpoint>
          <Trackpoint>
            <Time>2021-08-14T09:57:28.000Z</Time>
            <Position>
              <LatitudeDegrees>42.99539007246494293212890625</LatitudeDegrees>
              <LongitudeDegrees>-1.88989377580583095550537109375</LongitudeDegrees>
            </Position>
            <AltitudeMeters>566.20001220703125</AltitudeMeters>
            <DistanceMeters>NAN</DistanceMeters>
          </Trackpoint>
          <Trackpoint>
            <Time>2021-08-14T09:57:29.000Z</Time>
            <Position>
              <LatitudeDegrees>42.9953531920909881591796875</LatitudeDegrees>
              <LongitudeDegrees>-1.88990819267928600311279296875</LongitudeDegrees>
            </Position>
            <AltitudeMeters>566</AltitudeMeters>
            <DistanceMeters>NAN</DistanceMeters>
          </Trackpoint>
          <Trackpoint>
            <Time>2021-08-14T09:57:30.000Z</Time>
            <Position>
              <LatitudeDegrees>42.9953183233737945556640625</LatitudeDegrees>
              <LongitudeDegrees>-1.88991171307861804962158203125</LongitudeDegrees>
            </Position>
            <AltitudeMeters>566</AltitudeMeters>
            <DistanceMeters>NAN</DistanceMeters>
          </Trackpoint>
          <Trackpoint>
            <Time>2021-08-14T09:57:31.000Z</Time>
            <Position>
              <LatitudeDegrees>42.9952673614025115966796875</LatitudeDegrees>
              <LongitudeDegrees>-1.88991858623921871185302734375</LongitudeDegrees>
            </Position>
            <AltitudeMeters>566</AltitudeMeters>
            <DistanceMeters>NAN</DistanceMeters>
          </Trackpoint>
          <Trackpoint>
            <Time>2021-08-14T09:57:33.000Z</Time>
            <Position>
              <LatitudeDegrees>42.99518446438014507293701171875</LatitudeDegrees>
              <LongitudeDegrees>-1.88991037197411060333251953125</LongitudeDegrees>
            </Position>
            <AltitudeMeters>566</AltitudeMeters>
            <DistanceMeters>NAN</DistanceMeters>
          </Trackpoint>
          <Trackpoint>
            <Time>2021-08-14T09:57:34.000Z</Time>
            <Position>
              <LatitudeDegrees>42.99514020793139934539794921875</LatitudeDegrees>
              <LongitudeDegrees>-1.889917664229869842529296875</LongitudeDegrees>
            </Position>
            <AltitudeMeters>566</AltitudeMeters>
            <DistanceMeters>NAN</DistanceMeters>
          </Trackpoint>
          <Trackpoint>
            <Time>2021-08-14T09:57:37.000Z</Time>
            <Position>
              <LatitudeDegrees>42.99503476358950138092041015625</LatitudeDegrees>
              <LongitudeDegrees>-1.88989612273871898651123046875</LongitudeDegrees>
            </Position>
            <AltitudeMeters>566</AltitudeMeters>
            <DistanceMeters>NAN</DistanceMeters>
          </Trackpoint>
          <Trackpoint>
            <Time>2021-08-14T09:57:38.000Z</Time>
            <Position>
              <LatitudeDegrees>42.99500408582389354705810546875</LatitudeDegrees>
              <LongitudeDegrees>-1.88988941721618175506591796875</LongitudeDegrees>
            </Position>
            <AltitudeMeters>566</AltitudeMeters>
            <DistanceMeters>NAN</DistanceMeters>
          </Trackpoint>
          <Trackpoint>
            <Time>2021-08-14T09:57:39.000Z</Time>
            <Position>
              <LatitudeDegrees>42.9949728213250637054443359375</LatitudeDegrees>
              <LongitudeDegrees>-1.88988572917878627777099609375</LongitudeDegrees>
            </Position>
            <AltitudeMeters>565.79998779296875</AltitudeMeters>
            <DistanceMeters>NAN</DistanceMeters>
          </Trackpoint>
          <Trackpoint>
            <Time>2021-08-14T09:57:43.000Z</Time>
            <Position>
              <LatitudeDegrees>42.9948480986058712005615234375</LatitudeDegrees>
              <LongitudeDegrees>-1.88987466506659984588623046875</LongitudeDegrees>
            </Position>
            <AltitudeMeters>565.5999755859375</AltitudeMeters>
            <DistanceMeters>NAN</DistanceMeters>
          </Trackpoint>
          <Trackpoint>
            <Time>2021-08-14T09:57:45.000Z</Time>
            <Position>
              <LatitudeDegrees>42.99479973502457141876220703125</LatitudeDegrees>
              <LongitudeDegrees>-1.88986100256443023681640625</LongitudeDegrees>
            </Position>
            <AltitudeMeters>565.5999755859375</AltitudeMeters>
            <DistanceMeters>NAN</DistanceMeters>
          </Trackpoint>
          <Trackpoint>
            <Time>2021-08-14T09:57:46.000Z</Time>
            <Position>
              <LatitudeDegrees>42.9947723262012004852294921875</LatitudeDegrees>
              <LongitudeDegrees>-1.88985521905124187469482421875</LongitudeDegrees>
            </Position>
            <AltitudeMeters>565.5999755859375</AltitudeMeters>
            <DistanceMeters>NAN</DistanceMeters>
          </Trackpoint>
          <Trackpoint>
            <Time>2021-08-14T09:57:47.000Z</Time>
            <Position>
              <LatitudeDegrees>42.99474340863525867462158203125</LatitudeDegrees>
              <LongitudeDegrees>-1.88985052518546581268310546875</LongitudeDegrees>
            </Position>
            <AltitudeMeters>565.5999755859375</AltitudeMeters>
            <DistanceMeters>NAN</DistanceMeters>
          </Trackpoint>
          <Trackpoint>
            <Time>2021-08-14T09:57:48.000Z</Time>
            <Position>
              <LatitudeDegrees>42.994713485240936279296875</LatitudeDegrees>
              <LongitudeDegrees>-1.889846585690975189208984375</LongitudeDegrees>
            </Position>
            <AltitudeMeters>565.5999755859375</AltitudeMeters>
            <DistanceMeters>NAN</DistanceMeters>
          </Trackpoint>
          <Trackpoint>
            <Time>2021-08-14T09:57:49.000Z</Time>
            <Position>
              <LatitudeDegrees>42.9946853220462799072265625</LatitudeDegrees>
              <LongitudeDegrees>-1.8898397125303745269775390625</LongitudeDegrees>
            </Position>
            <AltitudeMeters>565.5999755859375</AltitudeMeters>
            <DistanceMeters>NAN</DistanceMeters>
          </Trackpoint>
          <Trackpoint>
            <Time>2021-08-14T09:57:50.000Z</Time>
            <Position>
              <LatitudeDegrees>42.99465439282357692718505859375</LatitudeDegrees>
              <LongitudeDegrees>-1.88983392901718616485595703125</LongitudeDegrees>
            </Position>
            <AltitudeMeters>565.5999755859375</AltitudeMeters>
            <DistanceMeters>NAN</DistanceMeters>
          </Trackpoint>
          <Trackpoint>
            <Time>2021-08-14T09:57:51.000Z</Time>
            <Position>
              <LatitudeDegrees>42.9946214519441127777099609375</LatitudeDegrees>
              <LongitudeDegrees>-1.88983174972236156463623046875</LongitudeDegrees>
            </Position>
            <AltitudeMeters>565.5999755859375</AltitudeMeters>
            <DistanceMeters>NAN</DistanceMeters>
          </Trackpoint>
          <Trackpoint>
            <Time>2021-08-14T09:57:52.000Z</Time>
            <Position>
              <LatitudeDegrees>42.994587756693363189697265625</LatitudeDegrees>
              <LongitudeDegrees>-1.889828145503997802734375</LongitudeDegrees>
            </Position>
            <AltitudeMeters>565.5999755859375</AltitudeMeters>
            <DistanceMeters>NAN</DistanceMeters>
          </Trackpoint>
          <Trackpoint>
            <Time>2021-08-14T09:57:53.000Z</Time>
            <Position>
              <LatitudeDegrees>42.99455615691840648651123046875</LatitudeDegrees>
              <LongitudeDegrees>-1.88982521183788776397705078125</LongitudeDegrees>
            </Position>
            <AltitudeMeters>565.5999755859375</AltitudeMeters>
            <DistanceMeters>NAN</DistanceMeters>
          </Trackpoint>
          <Trackpoint>
            <Time>2021-08-14T09:57:59.000Z</Time>
            <Position>
              <LatitudeDegrees>42.994376532733440399169921875</LatitudeDegrees>
              <LongitudeDegrees>-1.88987307250499725341796875</LongitudeDegrees>
            </Position>
            <AltitudeMeters>565.5999755859375</AltitudeMeters>
            <DistanceMeters>NAN</DistanceMeters>
          </Trackpoint>
          <Trackpoint>
            <Time>2021-08-14T09:58:03.000Z</Time>
            <Position>
              <LatitudeDegrees>42.99416564404964447021484375</LatitudeDegrees>
              <LongitudeDegrees>-1.88993476331233978271484375</LongitudeDegrees>
            </Position>
            <AltitudeMeters>565</AltitudeMeters>
            <DistanceMeters>NAN</DistanceMeters>
          </Trackpoint>
          <Trackpoint>
            <Time>2021-08-14T09:58:04.000Z</Time>
            <Position>
              <LatitudeDegrees>42.99409716390073299407958984375</LatitudeDegrees>
              <LongitudeDegrees>-1.8899637646973133087158203125</LongitudeDegrees>
            </Position>
            <AltitudeMeters>564.5999755859375</AltitudeMeters>
            <DistanceMeters>NAN</DistanceMeters>
          </Trackpoint>
          <Trackpoint>
            <Time>2021-08-14T09:58:05.000Z</Time>
            <Position>
              <LatitudeDegrees>42.9940300248563289642333984375</LatitudeDegrees>
              <LongitudeDegrees>-1.8899865634739398956298828125</LongitudeDegrees>
            </Position>
            <AltitudeMeters>564.4000244140625</AltitudeMeters>
            <DistanceMeters>NAN</DistanceMeters>
          </Trackpoint>
          <Trackpoint>
            <Time>2021-08-14T09:58:06.000Z</Time>
            <Position>
              <LatitudeDegrees>42.99397629685699939727783203125</LatitudeDegrees>
              <LongitudeDegrees>-1.88999720849096775054931640625</LongitudeDegrees>
            </Position>
            <AltitudeMeters>563.4000244140625</AltitudeMeters>
            <DistanceMeters>NAN</DistanceMeters>
          </Trackpoint>
          <Trackpoint>
            <Time>2021-08-14T09:58:07.000Z</Time>
            <Position>
              <LatitudeDegrees>42.9939130134880542755126953125</LatitudeDegrees>
              <LongitudeDegrees>-1.89001061953604221343994140625</LongitudeDegrees>
            </Position>
            <AltitudeMeters>562.4000244140625</AltitudeMeters>
            <DistanceMeters>NAN</DistanceMeters>
          </Trackpoint>
          <Trackpoint>
            <Time>2021-08-14T09:58:08.000Z</Time>
            <Position>
              <LatitudeDegrees>42.99383665435016155242919921875</LatitudeDegrees>
              <LongitudeDegrees>-1.8900239467620849609375</LongitudeDegrees>
            </Position>
            <AltitudeMeters>562</AltitudeMeters>
            <DistanceMeters>NAN</DistanceMeters>
          </Trackpoint>
          <Trackpoint>
            <Time>2021-08-14T09:58:09.000Z</Time>
            <Position>
              <LatitudeDegrees>42.99377362243831157684326171875</LatitudeDegrees>
              <LongitudeDegrees>-1.890031658113002777099609375</LongitudeDegrees>
            </Position>
            <AltitudeMeters>561.5999755859375</AltitudeMeters>
            <DistanceMeters>NAN</DistanceMeters>
          </Trackpoint>
          <Trackpoint>
            <Time>2021-08-14T09:58:10.000Z</Time>
            <Position>
              <LatitudeDegrees>42.993712686002254486083984375</LatitudeDegrees>
              <LongitudeDegrees>-1.8900294788181781768798828125</LongitudeDegrees>
            </Position>
            <AltitudeMeters>561.4000244140625</AltitudeMeters>
            <DistanceMeters>NAN</DistanceMeters>
          </Trackpoint>
          <Trackpoint>
            <Time>2021-08-14T09:58:12.000Z</Time>
            <Position>
              <LatitudeDegrees>42.99360984005033969879150390625</LatitudeDegrees>
              <LongitudeDegrees>-1.89001564867794513702392578125</LongitudeDegrees>
            </Position>
            <AltitudeMeters>560.79998779296875</AltitudeMeters>
            <DistanceMeters>NAN</DistanceMeters>
          </Trackpoint>
          <Trackpoint>
            <Time>2021-08-14T09:58:13.000Z</Time>
            <Position>
              <LatitudeDegrees>42.99354513175785541534423828125</LatitudeDegrees>
              <LongitudeDegrees>-1.89000106416642665863037109375</LongitudeDegrees>
            </Position>
            <AltitudeMeters>560.5999755859375</AltitudeMeters>
            <DistanceMeters>NAN</DistanceMeters>
          </Trackpoint>
          <Trackpoint>
            <Time>2021-08-14T09:58:14.000Z</Time>
            <Position>
              <LatitudeDegrees>42.99349567852914333343505859375</LatitudeDegrees>
              <LongitudeDegrees>-1.88998145051300525665283203125</LongitudeDegrees>
            </Position>
            <AltitudeMeters>560.4000244140625</AltitudeMeters>
            <DistanceMeters>NAN</DistanceMeters>
          </Trackpoint>
          <Trackpoint>
            <Time>2021-08-14T09:58:15.000Z</Time>
            <Position>
              <LatitudeDegrees>42.99345259554684162139892578125</LatitudeDegrees>
              <LongitudeDegrees>-1.88995479606091976165771484375</LongitudeDegrees>
            </Position>
            <AltitudeMeters>560.4000244140625</AltitudeMeters>
            <DistanceMeters>NAN</DistanceMeters>
          </Trackpoint>
          <Trackpoint>
            <Time>2021-08-14T09:58:16.000Z</Time>
            <Position>
              <LatitudeDegrees>42.99341470934450626373291015625</LatitudeDegrees>
              <LongitudeDegrees>-1.88992193900048732757568359375</LongitudeDegrees>
            </Position>
            <AltitudeMeters>560.4000244140625</AltitudeMeters>
            <DistanceMeters>NAN</DistanceMeters>
          </Trackpoint>
          <Trackpoint>
            <Time>2021-08-14T09:58:17.000Z</Time>
            <Position>
              <LatitudeDegrees>42.99338017590343952178955078125</LatitudeDegrees>
              <LongitudeDegrees>-1.88988606445491313934326171875</LongitudeDegrees>
            </Position>
            <AltitudeMeters>560.20001220703125</AltitudeMeters>
            <DistanceMeters>NAN</DistanceMeters>
          </Trackpoint>
          <Trackpoint>
            <Time>2021-08-14T09:58:18.000Z</Time>
            <Position>
              <LatitudeDegrees>42.9933490790426731109619140625</LatitudeDegrees>
              <LongitudeDegrees>-1.88984625041484832763671875</LongitudeDegrees>
            </Position>
            <AltitudeMeters>560.20001220703125</AltitudeMeters>
            <DistanceMeters>NAN</DistanceMeters>
          </Trackpoint>
          <Trackpoint>
            <Time>2021-08-14T09:58:19.000Z</Time>
            <Position>
              <LatitudeDegrees>42.993322424590587615966796875</LatitudeDegrees>
              <LongitudeDegrees>-1.8898085318505764007568359375</LongitudeDegrees>
            </Position>
            <AltitudeMeters>560.20001220703125</AltitudeMeters>
            <DistanceMeters>NAN</DistanceMeters>
          </Trackpoint>
          <Trackpoint>
            <Time>2021-08-14T09:58:20.000Z</Time>
            <Position>
              <LatitudeDegrees>42.993297614157199859619140625</LatitudeDegrees>
              <LongitudeDegrees>-1.889770142734050750732421875</LongitudeDegrees>
            </Position>
            <AltitudeMeters>560</AltitudeMeters>
            <DistanceMeters>NAN</DistanceMeters>
          </Trackpoint>
          <Trackpoint>
            <Time>2021-08-14T09:58:21.000Z</Time>
            <Position>
              <LatitudeDegrees>42.99327489919960498809814453125</LatitudeDegrees>
              <LongitudeDegrees>-1.8897302448749542236328125</LongitudeDegrees>
            </Position>
            <AltitudeMeters>560</AltitudeMeters>
            <DistanceMeters>NAN</DistanceMeters>
          </Trackpoint>
          <Trackpoint>
            <Time>2021-08-14T09:58:22.000Z</Time>
            <Position>
              <LatitudeDegrees>42.9932518489658832550048828125</LatitudeDegrees>
              <LongitudeDegrees>-1.88968992792069911956787109375</LongitudeDegrees>
            </Position>
            <AltitudeMeters>560</AltitudeMeters>
            <DistanceMeters>NAN</DistanceMeters>
          </Trackpoint>
          <Trackpoint>
            <Time>2021-08-14T09:58:26.000Z</Time>
            <Position>
              <LatitudeDegrees>42.9931516014039516448974609375</LatitudeDegrees>
              <LongitudeDegrees>-1.88954140059649944305419921875</LongitudeDegrees>
            </Position>
            <AltitudeMeters>560.20001220703125</AltitudeMeters>
            <DistanceMeters>NAN</DistanceMeters>
          </Trackpoint>
          <Trackpoint>
            <Time>2021-08-14T09:58:27.000Z</Time>
            <Position>
              <LatitudeDegrees>42.99313073046505451202392578125</LatitudeDegrees>
              <LongitudeDegrees>-1.889507956802845001220703125</LongitudeDegrees>
            </Position>
            <AltitudeMeters>560.20001220703125</AltitudeMeters>
            <DistanceMeters>NAN</DistanceMeters>
          </Trackpoint>
          <Trackpoint>
            <Time>2021-08-14T09:58:29.000Z</Time>
            <Position>
              <LatitudeDegrees>42.99307406879961490631103515625</LatitudeDegrees>
              <LongitudeDegrees>-1.889417432248592376708984375</LongitudeDegrees>
            </Position>
            <AltitudeMeters>560.20001220703125</AltitudeMeters>
            <DistanceMeters>NAN</DistanceMeters>
          </Trackpoint>
          <Trackpoint>
            <Time>2021-08-14T09:58:34.000Z</Time>
            <Position>
              <LatitudeDegrees>42.99294481985270977020263671875</LatitudeDegrees>
              <LongitudeDegrees>-1.88921534456312656402587890625</LongitudeDegrees>
            </Position>
            <AltitudeMeters>560.4000244140625</AltitudeMeters>
            <DistanceMeters>NAN</DistanceMeters>
          </Trackpoint>
          <Trackpoint>
            <Time>2021-08-14T09:58:35.000Z</Time>
            <Position>
              <LatitudeDegrees>42.99291715957224369049072265625</LatitudeDegrees>
              <LongitudeDegrees>-1.88918106257915496826171875</LongitudeDegrees>
            </Position>
            <AltitudeMeters>560.5999755859375</AltitudeMeters>
            <DistanceMeters>NAN</DistanceMeters>
          </Trackpoint>
          <Trackpoint>
            <Time>2021-08-14T09:58:37.000Z</Time>
            <Position>
              <LatitudeDegrees>42.99286066554486751556396484375</LatitudeDegrees>
              <LongitudeDegrees>-1.8891104869544506072998046875</LongitudeDegrees>
            </Position>
            <AltitudeMeters>560.5999755859375</AltitudeMeters>
            <DistanceMeters>NAN</DistanceMeters>
          </Trackpoint>
          <Trackpoint>
            <Time>2021-08-14T09:58:44.000Z</Time>
            <Position>
              <LatitudeDegrees>42.99264105968177318572998046875</LatitudeDegrees>
              <LongitudeDegrees>-1.888842768967151641845703125</LongitudeDegrees>
            </Position>
            <AltitudeMeters>560.5999755859375</AltitudeMeters>
            <DistanceMeters>NAN</DistanceMeters>
          </Trackpoint>
          <Trackpoint>
            <Time>2021-08-14T09:58:48.000Z</Time>
            <Position>
              <LatitudeDegrees>42.992514073848724365234375</LatitudeDegrees>
              <LongitudeDegrees>-1.888687200844287872314453125</LongitudeDegrees>
            </Position>
            <AltitudeMeters>560.5999755859375</AltitudeMeters>
            <DistanceMeters>NAN</DistanceMeters>
          </Trackpoint>
          <Trackpoint>
            <Time>2021-08-14T09:58:51.000Z</Time>
            <Position>
              <LatitudeDegrees>42.9924106411635875701904296875</LatitudeDegrees>
              <LongitudeDegrees>-1.8885750509798526763916015625</LongitudeDegrees>
            </Position>
            <AltitudeMeters>560.5999755859375</AltitudeMeters>
            <DistanceMeters>NAN</DistanceMeters>
          </Trackpoint>
          <Trackpoint>
            <Time>2021-08-14T09:58:52.000Z</Time>
            <Position>
              <LatitudeDegrees>42.992384992539882659912109375</LatitudeDegrees>
              <LongitudeDegrees>-1.88854076899588108062744140625</LongitudeDegrees>
            </Position>
            <AltitudeMeters>560.5999755859375</AltitudeMeters>
            <DistanceMeters>NAN</DistanceMeters>
          </Trackpoint>
          <Trackpoint>
            <Time>2021-08-14T09:58:55.000Z</Time>
            <Position>
              <LatitudeDegrees>42.9922892712056636810302734375</LatitudeDegrees>
              <LongitudeDegrees>-1.8884117715060710906982421875</LongitudeDegrees>
            </Position>
            <AltitudeMeters>560.5999755859375</AltitudeMeters>
            <DistanceMeters>NAN</DistanceMeters>
          </Trackpoint>
          <Trackpoint>
            <Time>2021-08-14T09:58:57.000Z</Time>
            <Position>
              <LatitudeDegrees>42.9922399856150150299072265625</LatitudeDegrees>
              <LongitudeDegrees>-1.8883396871387958526611328125</LongitudeDegrees>
            </Position>
            <AltitudeMeters>560.5999755859375</AltitudeMeters>
            <DistanceMeters>NAN</DistanceMeters>
          </Trackpoint>
          <Trackpoint>
            <Time>2021-08-14T09:58:58.000Z</Time>
            <Position>
              <LatitudeDegrees>42.99221559427678585052490234375</LatitudeDegrees>
              <LongitudeDegrees>-1.88830255530774593353271484375</LongitudeDegrees>
            </Position>
            <AltitudeMeters>560.5999755859375</AltitudeMeters>
            <DistanceMeters>NAN</DistanceMeters>
          </Trackpoint>
          <Trackpoint>
            <Time>2021-08-14T09:58:59.000Z</Time>
            <Position>
              <LatitudeDegrees>42.99218885600566864013671875</LatitudeDegrees>
              <LongitudeDegrees>-1.8882577121257781982421875</LongitudeDegrees>
            </Position>
            <AltitudeMeters>560.5999755859375</AltitudeMeters>
            <DistanceMeters>NAN</DistanceMeters>
          </Trackpoint>
          <Trackpoint>
            <Time>2021-08-14T09:59:07.000Z</Time>
            <Position>
              <LatitudeDegrees>42.99199640750885009765625</LatitudeDegrees>
              <LongitudeDegrees>-1.887875832617282867431640625</LongitudeDegrees>
            </Position>
            <AltitudeMeters>560.5999755859375</AltitudeMeters>
            <DistanceMeters>NAN</DistanceMeters>
          </Trackpoint>
          <Trackpoint>
            <Time>2021-08-14T09:59:10.000Z</Time>
            <Position>
              <LatitudeDegrees>42.99191124737262725830078125</LatitudeDegrees>
              <LongitudeDegrees>-1.88772940076887607574462890625</LongitudeDegrees>
            </Position>
            <AltitudeMeters>560.5999755859375</AltitudeMeters>
            <DistanceMeters>NAN</DistanceMeters>
          </Trackpoint>
          <Trackpoint>
            <Time>2021-08-14T09:59:13.000Z</Time>
            <Position>
              <LatitudeDegrees>42.9918151907622814178466796875</LatitudeDegrees>
              <LongitudeDegrees>-1.887616328895092010498046875</LongitudeDegrees>
            </Position>
            <AltitudeMeters>560.5999755859375</AltitudeMeters>
            <DistanceMeters>NAN</DistanceMeters>
          </Trackpoint>
          <Trackpoint>
            <Time>2021-08-14T09:59:14.000Z</Time>
            <Position>
              <LatitudeDegrees>42.99178610555827617645263671875</LatitudeDegrees>
              <LongitudeDegrees>-1.88758171163499355316162109375</LongitudeDegrees>
            </Position>
            <AltitudeMeters>560.5999755859375</AltitudeMeters>
            <DistanceMeters>NAN</DistanceMeters>
          </Trackpoint>
          <Trackpoint>
            <Time>2021-08-14T09:59:15.000Z</Time>
            <Position>
              <LatitudeDegrees>42.9917565174400806427001953125</LatitudeDegrees>
              <LongitudeDegrees>-1.887547932565212249755859375</LongitudeDegrees>
            </Position>
            <AltitudeMeters>560.5999755859375</AltitudeMeters>
            <DistanceMeters>NAN</DistanceMeters>
          </Trackpoint>
          <Trackpoint>
            <Time>2021-08-14T09:59:16.000Z</Time>
            <Position>
              <LatitudeDegrees>42.991728521883487701416015625</LatitudeDegrees>
              <LongitudeDegrees>-1.88751549459993839263916015625</LongitudeDegrees>
            </Position>
            <AltitudeMeters>560.5999755859375</AltitudeMeters>
            <DistanceMeters>NAN</DistanceMeters>
          </Trackpoint>
          <Trackpoint>
            <Time>2021-08-14T09:59:17.000Z</Time>
            <Position>
              <LatitudeDegrees>42.99169826321303844451904296875</LatitudeDegrees>
              <LongitudeDegrees>-1.8874850682914257049560546875</LongitudeDegrees>
            </Position>
            <AltitudeMeters>560.5999755859375</AltitudeMeters>
            <DistanceMeters>NAN</DistanceMeters>
          </Trackpoint>
          <Trackpoint>
            <Time>2021-08-14T09:59:18.000Z</Time>
            <Position>
              <LatitudeDegrees>42.99166448414325714111328125</LatitudeDegrees>
              <LongitudeDegrees>-1.88746017403900623321533203125</LongitudeDegrees>
            </Position>
            <AltitudeMeters>560.79998779296875</AltitudeMeters>
            <DistanceMeters>NAN</DistanceMeters>
          </Trackpoint>
          <Trackpoint>
            <Time>2021-08-14T09:59:19.000Z</Time>
            <Position>
              <LatitudeDegrees>42.9916311241686344146728515625</LatitudeDegrees>
              <LongitudeDegrees>-1.887441314756870269775390625</LongitudeDegrees>
            </Position>
            <AltitudeMeters>560.79998779296875</AltitudeMeters>
            <DistanceMeters>NAN</DistanceMeters>
          </Trackpoint>
          <Trackpoint>
            <Time>2021-08-14T09:59:20.000Z</Time>
            <Position>
              <LatitudeDegrees>42.9915949143469333648681640625</LatitudeDegrees>
              <LongitudeDegrees>-1.8874270655214786529541015625</LongitudeDegrees>
            </Position>
            <AltitudeMeters>560.79998779296875</AltitudeMeters>
            <DistanceMeters>NAN</DistanceMeters>
          </Trackpoint>
          <Trackpoint>
            <Time>2021-08-14T09:59:21.000Z</Time>
            <Position>
              <LatitudeDegrees>42.99156499095261096954345703125</LatitudeDegrees>
              <LongitudeDegrees>-1.88741776160895824432373046875</LongitudeDegrees>
            </Position>
            <AltitudeMeters>560.79998779296875</AltitudeMeters>
            <DistanceMeters>NAN</DistanceMeters>
          </Trackpoint>
          <Trackpoint>
            <Time>2021-08-14T09:59:23.000Z</Time>
            <Position>
              <LatitudeDegrees>42.9914760589599609375</LatitudeDegrees>
              <LongitudeDegrees>-1.8874153308570384979248046875</LongitudeDegrees>
            </Position>
            <AltitudeMeters>561</AltitudeMeters>
            <DistanceMeters>NAN</DistanceMeters>
          </Trackpoint>
          <Trackpoint>
            <Time>2021-08-14T09:59:28.000Z</Time>
            <Position>
              <LatitudeDegrees>42.991271205246448516845703125</LatitudeDegrees>
              <LongitudeDegrees>-1.8874921090900897979736328125</LongitudeDegrees>
            </Position>
            <AltitudeMeters>561.20001220703125</AltitudeMeters>
            <DistanceMeters>NAN</DistanceMeters>
          </Trackpoint>
          <Trackpoint>
            <Time>2021-08-14T09:59:29.000Z</Time>
            <Position>
              <LatitudeDegrees>42.99122720025479793548583984375</LatitudeDegrees>
              <LongitudeDegrees>-1.88751985318958759307861328125</LongitudeDegrees>
            </Position>
            <AltitudeMeters>561.20001220703125</AltitudeMeters>
            <DistanceMeters>NAN</DistanceMeters>
          </Trackpoint>
          <Trackpoint>
            <Time>2021-08-14T09:59:30.000Z</Time>
            <Position>
              <LatitudeDegrees>42.99119551666080951690673828125</LatitudeDegrees>
              <LongitudeDegrees>-1.887540556490421295166015625</LongitudeDegrees>
            </Position>
            <AltitudeMeters>561.4000244140625</AltitudeMeters>
            <DistanceMeters>NAN</DistanceMeters>
          </Trackpoint>
          <Trackpoint>
            <Time>2021-08-14T09:59:31.000Z</Time>
            <Position>
              <LatitudeDegrees>42.99116735346615314483642578125</LatitudeDegrees>
              <LongitudeDegrees>-1.88756167888641357421875</LongitudeDegrees>
            </Position>
            <AltitudeMeters>561.4000244140625</AltitudeMeters>
            <DistanceMeters>NAN</DistanceMeters>
          </Trackpoint>
          <Trackpoint>
            <Time>2021-08-14T09:59:32.000Z</Time>
            <Position>
              <LatitudeDegrees>42.991144470870494842529296875</LatitudeDegrees>
              <LongitudeDegrees>-1.88758757896721363067626953125</LongitudeDegrees>
            </Position>
            <AltitudeMeters>561.4000244140625</AltitudeMeters>
            <DistanceMeters>NAN</DistanceMeters>
          </Trackpoint>
          <Trackpoint>
            <Time>2021-08-14T09:59:33.000Z</Time>
            <Position>
              <LatitudeDegrees>42.991128377616405487060546875</LatitudeDegrees>
              <LongitudeDegrees>-1.8876128084957599639892578125</LongitudeDegrees>
            </Position>
            <AltitudeMeters>561.4000244140625</AltitudeMeters>
            <DistanceMeters>NAN</DistanceMeters>
          </Trackpoint>
          <Trackpoint>
            <Time>2021-08-14T09:59:34.000Z</Time>
            <Position>
              <LatitudeDegrees>42.99111337400972843170166015625</LatitudeDegrees>
              <LongitudeDegrees>-1.887638457119464874267578125</LongitudeDegrees>
            </Position>
            <AltitudeMeters>561.5999755859375</AltitudeMeters>
            <DistanceMeters>NAN</DistanceMeters>
          </Trackpoint>
          <Trackpoint>
            <Time>2021-08-14T09:59:35.000Z</Time>
            <Position>
              <LatitudeDegrees>42.991104237735271453857421875</LatitudeDegrees>
              <LongitudeDegrees>-1.8876637704670429229736328125</LongitudeDegrees>
            </Position>
            <AltitudeMeters>561.5999755859375</AltitudeMeters>
            <DistanceMeters>NAN</DistanceMeters>
          </Trackpoint>
          <Trackpoint>
            <Time>2021-08-14T09:59:36.000Z</Time>
            <Position>
              <LatitudeDegrees>42.9910965263843536376953125</LatitudeDegrees>
              <LongitudeDegrees>-1.8876879103481769561767578125</LongitudeDegrees>
            </Position>
            <AltitudeMeters>562</AltitudeMeters>
            <DistanceMeters>NAN</DistanceMeters>
          </Trackpoint>
          <Trackpoint>
            <Time>2021-08-14T09:59:38.000Z</Time>
            <Position>
              <LatitudeDegrees>42.9910616576671600341796875</LatitudeDegrees>
              <LongitudeDegrees>-1.8877606652677059173583984375</LongitudeDegrees>
            </Position>
            <AltitudeMeters>562.20001220703125</AltitudeMeters>
            <DistanceMeters>NAN</DistanceMeters>
          </Trackpoint>
          <Trackpoint>
            <Time>2021-08-14T09:59:41.000Z</Time>
            <Position>
              <LatitudeDegrees>42.9910098575055599212646484375</LatitudeDegrees>
              <LongitudeDegrees>-1.8878823705017566680908203125</LongitudeDegrees>
            </Position>
            <AltitudeMeters>562.5999755859375</AltitudeMeters>
            <DistanceMeters>NAN</DistanceMeters>
          </Trackpoint>
          <Trackpoint>
            <Time>2021-08-14T09:59:43.000Z</Time>
            <Position>
              <LatitudeDegrees>42.9909629188477993011474609375</LatitudeDegrees>
              <LongitudeDegrees>-1.887975074350833892822265625</LongitudeDegrees>
            </Position>
            <AltitudeMeters>562.79998779296875</AltitudeMeters>
            <DistanceMeters>NAN</DistanceMeters>
          </Trackpoint>
          <Trackpoint>
            <Time>2021-08-14T09:59:44.000Z</Time>
            <Position>
              <LatitudeDegrees>42.990936934947967529296875</LatitudeDegrees>
              <LongitudeDegrees>-1.88802192918956279754638671875</LongitudeDegrees>
            </Position>
            <AltitudeMeters>562.79998779296875</AltitudeMeters>
            <DistanceMeters>NAN</DistanceMeters>
          </Trackpoint>
          <Trackpoint>
            <Time>2021-08-14T09:59:48.000Z</Time>
            <Position>
              <LatitudeDegrees>42.99083593301475048065185546875</LatitudeDegrees>
              <LongitudeDegrees>-1.88826936297118663787841796875</LongitudeDegrees>
            </Position>
            <AltitudeMeters>562.79998779296875</AltitudeMeters>
            <DistanceMeters>NAN</DistanceMeters>
          </Trackpoint>
          <Trackpoint>
            <Time>2021-08-14T09:59:51.000Z</Time>
            <Position>
              <LatitudeDegrees>42.9907064326107501983642578125</LatitudeDegrees>
              <LongitudeDegrees>-1.888455860316753387451171875</LongitudeDegrees>
            </Position>
            <AltitudeMeters>562.5999755859375</AltitudeMeters>
            <DistanceMeters>NAN</DistanceMeters>
          </Trackpoint>
          <Trackpoint>
            <Time>2021-08-14T09:59:52.000Z</Time>
            <Position>
              <LatitudeDegrees>42.99065320752561092376708984375</LatitudeDegrees>
              <LongitudeDegrees>-1.888508163392543792724609375</LongitudeDegrees>
            </Position>
            <AltitudeMeters>562.20001220703125</AltitudeMeters>
            <DistanceMeters>NAN</DistanceMeters>
          </Trackpoint>
          <Trackpoint>
            <Time>2021-08-14T09:59:54.000Z</Time>
            <Position>
              <LatitudeDegrees>42.99054290167987346649169921875</LatitudeDegrees>
              <LongitudeDegrees>-1.88859642483294010162353515625</LongitudeDegrees>
            </Position>
            <AltitudeMeters>562</AltitudeMeters>
            <DistanceMeters>NAN</DistanceMeters>
          </Trackpoint>
          <Trackpoint>
            <Time>2021-08-14T09:59:59.000Z</Time>
            <Position>
              <LatitudeDegrees>42.99024903215467929840087890625</LatitudeDegrees>
              <LongitudeDegrees>-1.88871142454445362091064453125</LongitudeDegrees>
            </Position>
            <AltitudeMeters>561.4000244140625</AltitudeMeters>
            <DistanceMeters>NAN</DistanceMeters>
          </Trackpoint>
          <Trackpoint>
            <Time>2021-08-14T10:00:02.000Z</Time>
            <Position>
              <LatitudeDegrees>42.9900982417166233062744140625</LatitudeDegrees>
              <LongitudeDegrees>-1.88872902654111385345458984375</LongitudeDegrees>
            </Position>
            <AltitudeMeters>561.20001220703125</AltitudeMeters>
            <DistanceMeters>NAN</DistanceMeters>
          </Trackpoint>
          <Trackpoint>
            <Time>2021-08-14T10:00:03.000Z</Time>
            <Position>
              <LatitudeDegrees>42.99005658365786075592041015625</LatitudeDegrees>
              <LongitudeDegrees>-1.88872584141790866851806640625</LongitudeDegrees>
            </Position>
            <AltitudeMeters>561.20001220703125</AltitudeMeters>
            <DistanceMeters>NAN</DistanceMeters>
          </Trackpoint>
          <Trackpoint>
            <Time>2021-08-14T10:00:04.000Z</Time>
            <Position>
              <LatitudeDegrees>42.990014590322971343994140625</LatitudeDegrees>
              <LongitudeDegrees>-1.8887192197144031524658203125</LongitudeDegrees>
            </Position>
            <AltitudeMeters>561</AltitudeMeters>
            <DistanceMeters>NAN</DistanceMeters>
          </Trackpoint>
          <Trackpoint>
            <Time>2021-08-14T10:00:05.000Z</Time>
            <Position>
              <LatitudeDegrees>42.98997242935001850128173828125</LatitudeDegrees>
              <LongitudeDegrees>-1.888710670173168182373046875</LongitudeDegrees>
            </Position>
            <AltitudeMeters>561</AltitudeMeters>
            <DistanceMeters>NAN</DistanceMeters>
          </Trackpoint>
          <Trackpoint>
            <Time>2021-08-14T10:00:07.000Z</Time>
            <Position>
              <LatitudeDegrees>42.98989330418407917022705078125</LatitudeDegrees>
              <LongitudeDegrees>-1.88869449310004711151123046875</LongitudeDegrees>
            </Position>
            <AltitudeMeters>560.79998779296875</AltitudeMeters>
            <DistanceMeters>NAN</DistanceMeters>
          </Trackpoint>
          <Trackpoint>
            <Time>2021-08-14T10:00:08.000Z</Time>
            <Position>
              <LatitudeDegrees>42.9898461140692234039306640625</LatitudeDegrees>
              <LongitudeDegrees>-1.88868460245430469512939453125</LongitudeDegrees>
            </Position>
            <AltitudeMeters>560.79998779296875</AltitudeMeters>
            <DistanceMeters>NAN</DistanceMeters>
          </Trackpoint>
          <Trackpoint>
            <Time>2021-08-14T10:00:09.000Z</Time>
            <Position>
              <LatitudeDegrees>42.9898052103817462921142578125</LatitudeDegrees>
              <LongitudeDegrees>-1.88867806456983089447021484375</LongitudeDegrees>
            </Position>
            <AltitudeMeters>560.79998779296875</AltitudeMeters>
            <DistanceMeters>NAN</DistanceMeters>
          </Trackpoint>
          <Trackpoint>
            <Time>2021-08-14T10:00:10.000Z</Time>
            <Position>
              <LatitudeDegrees>42.989771179854869842529296875</LatitudeDegrees>
              <LongitudeDegrees>-1.8886654078960418701171875</LongitudeDegrees>
            </Position>
            <AltitudeMeters>560.79998779296875</AltitudeMeters>
            <DistanceMeters>NAN</DistanceMeters>
          </Trackpoint>
          <Trackpoint>
            <Time>2021-08-14T10:00:11.000Z</Time>
            <Position>
              <LatitudeDegrees>42.98974796198308467864990234375</LatitudeDegrees>
              <LongitudeDegrees>-1.8886531703174114227294921875</LongitudeDegrees>
            </Position>
            <AltitudeMeters>560.5999755859375</AltitudeMeters>
            <DistanceMeters>NAN</DistanceMeters>
          </Trackpoint>
          <Trackpoint>
            <Time>2021-08-14T10:00:12.000Z</Time>
            <Position>
              <LatitudeDegrees>42.9897217266261577606201171875</LatitudeDegrees>
              <LongitudeDegrees>-1.88864319585263729095458984375</LongitudeDegrees>
            </Position>
            <AltitudeMeters>560.5999755859375</AltitudeMeters>
            <DistanceMeters>NAN</DistanceMeters>
          </Trackpoint>
          <Trackpoint>
            <Time>2021-08-14T10:00:13.000Z</Time>
            <Position>
              <LatitudeDegrees>42.98969096504151821136474609375</LatitudeDegrees>
              <LongitudeDegrees>-1.888634227216243743896484375</LongitudeDegrees>
            </Position>
            <AltitudeMeters>560.5999755859375</AltitudeMeters>
            <DistanceMeters>NAN</DistanceMeters>
          </Trackpoint>
          <Trackpoint>
            <Time>2021-08-14T10:00:14.000Z</Time>
            <Position>
              <LatitudeDegrees>42.98966313712298870086669921875</LatitudeDegrees>
              <LongitudeDegrees>-1.8886266835033893585205078125</LongitudeDegrees>
            </Position>
            <AltitudeMeters>560.5999755859375</AltitudeMeters>
            <DistanceMeters>NAN</DistanceMeters>
          </Trackpoint>
          <Trackpoint>
            <Time>2021-08-14T10:00:15.000Z</Time>
            <Position>
              <LatitudeDegrees>42.98963497392833232879638671875</LatitudeDegrees>
              <LongitudeDegrees>-1.888619475066661834716796875</LongitudeDegrees>
            </Position>
            <AltitudeMeters>560.5999755859375</AltitudeMeters>
            <DistanceMeters>NAN</DistanceMeters>
          </Trackpoint>
          <Trackpoint>
            <Time>2021-08-14T10:00:17.000Z</Time>
            <Position>
              <LatitudeDegrees>42.98957026563584804534912109375</LatitudeDegrees>
              <LongitudeDegrees>-1.8886095844209194183349609375</LongitudeDegrees>
            </Position>
            <AltitudeMeters>560.5999755859375</AltitudeMeters>
            <DistanceMeters>NAN</DistanceMeters>
          </Trackpoint>
          <Trackpoint>
            <Time>2021-08-14T10:00:19.000Z</Time>
            <Position>
              <LatitudeDegrees>42.98949248157441616058349609375</LatitudeDegrees>
              <LongitudeDegrees>-1.888605058193206787109375</LongitudeDegrees>
            </Position>
            <AltitudeMeters>560.5999755859375</AltitudeMeters>
            <DistanceMeters>NAN</DistanceMeters>
          </Trackpoint>
          <Trackpoint>
            <Time>2021-08-14T10:00:20.000Z</Time>
            <Position>
              <LatitudeDegrees>42.98945367336273193359375</LatitudeDegrees>
              <LongitudeDegrees>-1.8885975144803524017333984375</LongitudeDegrees>
            </Position>
            <AltitudeMeters>560.4000244140625</AltitudeMeters>
            <DistanceMeters>NAN</DistanceMeters>
          </Trackpoint>
          <Trackpoint>
            <Time>2021-08-14T10:00:21.000Z</Time>
            <Position>
              <LatitudeDegrees>42.98940950073301792144775390625</LatitudeDegrees>
              <LongitudeDegrees>-1.8885857798159122467041015625</LongitudeDegrees>
            </Position>
            <AltitudeMeters>560.4000244140625</AltitudeMeters>
            <DistanceMeters>NAN</DistanceMeters>
          </Trackpoint>
          <Trackpoint>
            <Time>2021-08-14T10:00:23.000Z</Time>
            <Position>
              <LatitudeDegrees>42.989354431629180908203125</LatitudeDegrees>
              <LongitudeDegrees>-1.888540685176849365234375</LongitudeDegrees>
            </Position>
            <AltitudeMeters>560.4000244140625</AltitudeMeters>
            <DistanceMeters>NAN</DistanceMeters>
          </Trackpoint>
          <Trackpoint>
            <Time>2021-08-14T10:00:24.000Z</Time>
            <Position>
              <LatitudeDegrees>42.9893271066248416900634765625</LatitudeDegrees>
              <LongitudeDegrees>-1.88851746730506420135498046875</LongitudeDegrees>
            </Position>
            <AltitudeMeters>560.4000244140625</AltitudeMeters>
            <DistanceMeters>NAN</DistanceMeters>
          </Trackpoint>
          <Trackpoint>
            <Time>2021-08-14T10:00:27.000Z</Time>
            <Position>
              <LatitudeDegrees>42.989261560142040252685546875</LatitudeDegrees>
              <LongitudeDegrees>-1.8884546868503093719482421875</LongitudeDegrees>
            </Position>
            <AltitudeMeters>560.5999755859375</AltitudeMeters>
            <DistanceMeters>NAN</DistanceMeters>
          </Trackpoint>
          <Trackpoint>
            <Time>2021-08-14T10:00:28.000Z</Time>
            <Position>
              <LatitudeDegrees>42.98924018628895282745361328125</LatitudeDegrees>
              <LongitudeDegrees>-1.88842870295047760009765625</LongitudeDegrees>
            </Position>
            <AltitudeMeters>560.79998779296875</AltitudeMeters>
            <DistanceMeters>NAN</DistanceMeters>
          </Trackpoint>
          <Trackpoint>
            <Time>2021-08-14T10:00:30.000Z</Time>
            <Position>
              <LatitudeDegrees>42.98917430453002452850341796875</LatitudeDegrees>
              <LongitudeDegrees>-1.88839383423328399658203125</LongitudeDegrees>
            </Position>
            <AltitudeMeters>560.79998779296875</AltitudeMeters>
            <DistanceMeters>NAN</DistanceMeters>
          </Trackpoint>
          <Trackpoint>
            <Time>2021-08-14T10:00:35.000Z</Time>
            <Position>
              <LatitudeDegrees>42.9890189878642559051513671875</LatitudeDegrees>
              <LongitudeDegrees>-1.88828428275883197784423828125</LongitudeDegrees>
            </Position>
            <AltitudeMeters>561.20001220703125</AltitudeMeters>
            <DistanceMeters>NAN</DistanceMeters>
          </Trackpoint>
          <Trackpoint>
            <Time>2021-08-14T10:00:36.000Z</Time>
            <Position>
              <LatitudeDegrees>42.98899258486926555633544921875</LatitudeDegrees>
              <LongitudeDegrees>-1.88825838267803192138671875</LongitudeDegrees>
            </Position>
            <AltitudeMeters>561.4000244140625</AltitudeMeters>
            <DistanceMeters>NAN</DistanceMeters>
          </Trackpoint>
          <Trackpoint>
            <Time>2021-08-14T10:00:37.000Z</Time>
            <Position>
              <LatitudeDegrees>42.988959811627864837646484375</LatitudeDegrees>
              <LongitudeDegrees>-1.8882370926439762115478515625</LongitudeDegrees>
            </Position>
            <AltitudeMeters>561.4000244140625</AltitudeMeters>
            <DistanceMeters>NAN</DistanceMeters>
          </Trackpoint>
          <Trackpoint>
            <Time>2021-08-14T10:00:40.000Z</Time>
            <Position>
              <LatitudeDegrees>42.98884623683989048004150390625</LatitudeDegrees>
              <LongitudeDegrees>-1.888170205056667327880859375</LongitudeDegrees>
            </Position>
            <AltitudeMeters>561.5999755859375</AltitudeMeters>
            <DistanceMeters>NAN</DistanceMeters>
          </Trackpoint>
          <Trackpoint>
            <Time>2021-08-14T10:00:44.000Z</Time>
            <Position>
              <LatitudeDegrees>42.98873727209866046905517578125</LatitudeDegrees>
              <LongitudeDegrees>-1.88803601078689098358154296875</LongitudeDegrees>
            </Position>
            <AltitudeMeters>561.5999755859375</AltitudeMeters>
            <DistanceMeters>NAN</DistanceMeters>
          </Trackpoint>
          <Trackpoint>
            <Time>2021-08-14T10:00:46.000Z</Time>
            <Position>
              <LatitudeDegrees>42.98870072700083255767822265625</LatitudeDegrees>
              <LongitudeDegrees>-1.88794464804232120513916015625</LongitudeDegrees>
            </Position>
            <AltitudeMeters>561.79998779296875</AltitudeMeters>
            <DistanceMeters>NAN</DistanceMeters>
          </Trackpoint>
          <Trackpoint>
            <Time>2021-08-14T10:00:47.000Z</Time>
            <Position>
              <LatitudeDegrees>42.98869385384023189544677734375</LatitudeDegrees>
              <LongitudeDegrees>-1.88789016567170619964599609375</LongitudeDegrees>
            </Position>
            <AltitudeMeters>561.79998779296875</AltitudeMeters>
            <DistanceMeters>NAN</DistanceMeters>
          </Trackpoint>
          <Trackpoint>
            <Time>2021-08-14T10:00:48.000Z</Time>
            <Position>
              <LatitudeDegrees>42.98869368620216846466064453125</LatitudeDegrees>
              <LongitudeDegrees>-1.88783325254917144775390625</LongitudeDegrees>
            </Position>
            <AltitudeMeters>561.79998779296875</AltitudeMeters>
            <DistanceMeters>NAN</DistanceMeters>
          </Trackpoint>
          <Trackpoint>
            <Time>2021-08-14T10:00:49.000Z</Time>
            <Position>
              <LatitudeDegrees>42.98869259655475616455078125</LatitudeDegrees>
              <LongitudeDegrees>-1.8877750821411609649658203125</LongitudeDegrees>
            </Position>
            <AltitudeMeters>561.79998779296875</AltitudeMeters>
            <DistanceMeters>NAN</DistanceMeters>
          </Trackpoint>
          <Trackpoint>
            <Time>2021-08-14T10:00:53.000Z</Time>
            <Position>
              <LatitudeDegrees>42.98873526044189929962158203125</LatitudeDegrees>
              <LongitudeDegrees>-1.88754265196621417999267578125</LongitudeDegrees>
            </Position>
            <AltitudeMeters>562</AltitudeMeters>
            <DistanceMeters>NAN</DistanceMeters>
          </Trackpoint>
          <Trackpoint>
            <Time>2021-08-14T10:00:55.000Z</Time>
            <Position>
              <LatitudeDegrees>42.9887853004038333892822265625</LatitudeDegrees>
              <LongitudeDegrees>-1.88744190149009227752685546875</LongitudeDegrees>
            </Position>
            <AltitudeMeters>561.79998779296875</AltitudeMeters>
            <DistanceMeters>NAN</DistanceMeters>
          </Trackpoint>
          <Trackpoint>
            <Time>2021-08-14T10:00:57.000Z</Time>
            <Position>
              <LatitudeDegrees>42.988841123878955841064453125</LatitudeDegrees>
              <LongitudeDegrees>-1.88734735362231731414794921875</LongitudeDegrees>
            </Position>
            <AltitudeMeters>561.79998779296875</AltitudeMeters>
            <DistanceMeters>NAN</DistanceMeters>
          </Trackpoint>
          <Trackpoint>
            <Time>2021-08-14T10:00:58.000Z</Time>
            <Position>
              <LatitudeDegrees>42.98886819742619991302490234375</LatitudeDegrees>
              <LongitudeDegrees>-1.88730292953550815582275390625</LongitudeDegrees>
            </Position>
            <AltitudeMeters>561.79998779296875</AltitudeMeters>
            <DistanceMeters>NAN</DistanceMeters>
          </Trackpoint>
          <Trackpoint>
            <Time>2021-08-14T10:01:03.000Z</Time>
            <Position>
              <LatitudeDegrees>42.989036254584789276123046875</LatitudeDegrees>
              <LongitudeDegrees>-1.8870803900063037872314453125</LongitudeDegrees>
            </Position>
            <AltitudeMeters>561.79998779296875</AltitudeMeters>
            <DistanceMeters>NAN</DistanceMeters>
          </Trackpoint>
          <Trackpoint>
            <Time>2021-08-14T10:01:04.000Z</Time>
            <Position>
              <LatitudeDegrees>42.98906181938946247100830078125</LatitudeDegrees>
              <LongitudeDegrees>-1.88705214299261569976806640625</LongitudeDegrees>
            </Position>
            <AltitudeMeters>561.79998779296875</AltitudeMeters>
            <DistanceMeters>NAN</DistanceMeters>
          </Trackpoint>
          <Trackpoint>
            <Time>2021-08-14T10:01:05.000Z</Time>
            <Position>
              <LatitudeDegrees>42.98908847384154796600341796875</LatitudeDegrees>
              <LongitudeDegrees>-1.8870223872363567352294921875</LongitudeDegrees>
            </Position>
            <AltitudeMeters>561.79998779296875</AltitudeMeters>
            <DistanceMeters>NAN</DistanceMeters>
          </Trackpoint>
          <Trackpoint>
            <Time>2021-08-14T10:01:06.000Z</Time>
            <Position>
              <LatitudeDegrees>42.98911512829363346099853515625</LatitudeDegrees>
              <LongitudeDegrees>-1.8870052881538867950439453125</LongitudeDegrees>
            </Position>
            <AltitudeMeters>561.79998779296875</AltitudeMeters>
            <DistanceMeters>NAN</DistanceMeters>
          </Trackpoint>
          <Trackpoint>
            <Time>2021-08-14T10:01:07.000Z</Time>
            <Position>
              <LatitudeDegrees>42.9891534335911273956298828125</LatitudeDegrees>
              <LongitudeDegrees>-1.88698022626340389251708984375</LongitudeDegrees>
            </Position>
            <AltitudeMeters>562</AltitudeMeters>
            <DistanceMeters>NAN</DistanceMeters>
          </Trackpoint>
          <Trackpoint>
            <Time>2021-08-14T10:01:10.000Z</Time>
            <Position>
              <LatitudeDegrees>42.98924303613603115081787109375</LatitudeDegrees>
              <LongitudeDegrees>-1.88692792318761348724365234375</LongitudeDegrees>
            </Position>
            <AltitudeMeters>562.79998779296875</AltitudeMeters>
            <DistanceMeters>NAN</DistanceMeters>
          </Trackpoint>
          <Trackpoint>
            <Time>2021-08-14T10:01:11.000Z</Time>
            <Position>
              <LatitudeDegrees>42.98926734365522861480712890625</LatitudeDegrees>
              <LongitudeDegrees>-1.8869073875248432159423828125</LongitudeDegrees>
            </Position>
            <AltitudeMeters>563</AltitudeMeters>
            <DistanceMeters>NAN</DistanceMeters>
          </Trackpoint>
          <Trackpoint>
            <Time>2021-08-14T10:01:12.000Z</Time>
            <Position>
              <LatitudeDegrees>42.9892908968031406402587890625</LatitudeDegrees>
              <LongitudeDegrees>-1.88688333146274089813232421875</LongitudeDegrees>
            </Position>
            <AltitudeMeters>563</AltitudeMeters>
            <DistanceMeters>NAN</DistanceMeters>
          </Trackpoint>
          <Trackpoint>
            <Time>2021-08-14T10:01:13.000Z</Time>
            <Position>
              <LatitudeDegrees>42.9893116839230060577392578125</LatitudeDegrees>
              <LongitudeDegrees>-1.8868564255535602569580078125</LongitudeDegrees>
            </Position>
            <AltitudeMeters>563.20001220703125</AltitudeMeters>
            <DistanceMeters>NAN</DistanceMeters>
          </Trackpoint>
          <Trackpoint>
            <Time>2021-08-14T10:01:16.000Z</Time>
            <Position>
              <LatitudeDegrees>42.98939038999378681182861328125</LatitudeDegrees>
              <LongitudeDegrees>-1.88677671365439891815185546875</LongitudeDegrees>
            </Position>
            <AltitudeMeters>563.4000244140625</AltitudeMeters>
            <DistanceMeters>NAN</DistanceMeters>
          </Trackpoint>
          <Trackpoint>
            <Time>2021-08-14T10:01:19.000Z</Time>
            <Position>
              <LatitudeDegrees>42.9894657433032989501953125</LatitudeDegrees>
              <LongitudeDegrees>-1.8867018632590770721435546875</LongitudeDegrees>
            </Position>
            <AltitudeMeters>563.4000244140625</AltitudeMeters>
            <DistanceMeters>NAN</DistanceMeters>
          </Trackpoint>
          <Trackpoint>
            <Time>2021-08-14T10:01:20.000Z</Time>
            <Position>
              <LatitudeDegrees>42.98948678188025951385498046875</LatitudeDegrees>
              <LongitudeDegrees>-1.88668065704405307769775390625</LongitudeDegrees>
            </Position>
            <AltitudeMeters>563.4000244140625</AltitudeMeters>
            <DistanceMeters>NAN</DistanceMeters>
          </Trackpoint>
          <Trackpoint>
            <Time>2021-08-14T10:01:21.000Z</Time>
            <Position>
              <LatitudeDegrees>42.989506982266902923583984375</LatitudeDegrees>
              <LongitudeDegrees>-1.8866576068103313446044921875</LongitudeDegrees>
            </Position>
            <AltitudeMeters>563.4000244140625</AltitudeMeters>
            <DistanceMeters>NAN</DistanceMeters>
          </Trackpoint>
          <Trackpoint>
            <Time>2021-08-14T10:01:22.000Z</Time>
            <Position>
              <LatitudeDegrees>42.989523075520992279052734375</LatitudeDegrees>
              <LongitudeDegrees>-1.88662818633019924163818359375</LongitudeDegrees>
            </Position>
            <AltitudeMeters>563.4000244140625</AltitudeMeters>
            <DistanceMeters>NAN</DistanceMeters>
          </Trackpoint>
          <Trackpoint>
            <Time>2021-08-14T10:01:23.000Z</Time>
            <Position>
              <LatitudeDegrees>42.98953791148960590362548828125</LatitudeDegrees>
              <LongitudeDegrees>-1.8865959160029888153076171875</LongitudeDegrees>
            </Position>
            <AltitudeMeters>563.4000244140625</AltitudeMeters>
            <DistanceMeters>NAN</DistanceMeters>
          </Trackpoint>
          <Trackpoint>
            <Time>2021-08-14T10:01:24.000Z</Time>
            <Position>
              <LatitudeDegrees>42.9895542562007904052734375</LatitudeDegrees>
              <LongitudeDegrees>-1.88656062819063663482666015625</LongitudeDegrees>
            </Position>
            <AltitudeMeters>563.4000244140625</AltitudeMeters>
            <DistanceMeters>NAN</DistanceMeters>
          </Trackpoint>
          <Trackpoint>
            <Time>2021-08-14T10:01:25.000Z</Time>
            <Position>
              <LatitudeDegrees>42.989570684731006622314453125</LatitudeDegrees>
              <LongitudeDegrees>-1.886529028415679931640625</LongitudeDegrees>
            </Position>
            <AltitudeMeters>563.5999755859375</AltitudeMeters>
            <DistanceMeters>NAN</DistanceMeters>
          </Trackpoint>
          <Trackpoint>
            <Time>2021-08-14T10:01:29.000Z</Time>
            <Position>
              <LatitudeDegrees>42.9896415956318378448486328125</LatitudeDegrees>
              <LongitudeDegrees>-1.8863555230200290679931640625</LongitudeDegrees>
            </Position>
            <AltitudeMeters>563.5999755859375</AltitudeMeters>
            <DistanceMeters>NAN</DistanceMeters>
          </Trackpoint>
          <Trackpoint>
            <Time>2021-08-14T10:01:31.000Z</Time>
            <Position>
              <LatitudeDegrees>42.98967294394969940185546875</LatitudeDegrees>
              <LongitudeDegrees>-1.88626759685575962066650390625</LongitudeDegrees>
            </Position>
            <AltitudeMeters>563.5999755859375</AltitudeMeters>
            <DistanceMeters>NAN</DistanceMeters>
          </Trackpoint>
          <Trackpoint>
            <Time>2021-08-14T10:01:32.000Z</Time>
            <Position>
              <LatitudeDegrees>42.98967830836772918701171875</LatitudeDegrees>
              <LongitudeDegrees>-1.88623197376728057861328125</LongitudeDegrees>
            </Position>
            <AltitudeMeters>563.5999755859375</AltitudeMeters>
            <DistanceMeters>NAN</DistanceMeters>
          </Trackpoint>
          <Trackpoint>
            <Time>2021-08-14T10:01:33.000Z</Time>
            <Position>
              <LatitudeDegrees>42.98968409188091754913330078125</LatitudeDegrees>
              <LongitudeDegrees>-1.88617967069149017333984375</LongitudeDegrees>
            </Position>
            <AltitudeMeters>563.5999755859375</AltitudeMeters>
            <DistanceMeters>NAN</DistanceMeters>
          </Trackpoint>
          <Trackpoint>
            <Time>2021-08-14T10:01:34.000Z</Time>
            <Position>
              <LatitudeDegrees>42.98968526534736156463623046875</LatitudeDegrees>
              <LongitudeDegrees>-1.88614136539399623870849609375</LongitudeDegrees>
            </Position>
            <AltitudeMeters>563.5999755859375</AltitudeMeters>
            <DistanceMeters>NAN</DistanceMeters>
          </Trackpoint>
          <Trackpoint>
            <Time>2021-08-14T10:01:35.000Z</Time>
            <Position>
              <LatitudeDegrees>42.98968275077641010284423828125</LatitudeDegrees>
              <LongitudeDegrees>-1.886102221906185150146484375</LongitudeDegrees>
            </Position>
            <AltitudeMeters>563.5999755859375</AltitudeMeters>
            <DistanceMeters>NAN</DistanceMeters>
          </Trackpoint>
          <Trackpoint>
            <Time>2021-08-14T10:01:37.000Z</Time>
            <Position>
              <LatitudeDegrees>42.98966489732265472412109375</LatitudeDegrees>
              <LongitudeDegrees>-1.886030137538909912109375</LongitudeDegrees>
            </Position>
            <AltitudeMeters>563.79998779296875</AltitudeMeters>
            <DistanceMeters>NAN</DistanceMeters>
          </Trackpoint>
          <Trackpoint>
            <Time>2021-08-14T10:01:38.000Z</Time>
            <Position>
              <LatitudeDegrees>42.98964888788759708404541015625</LatitudeDegrees>
              <LongitudeDegrees>-1.8859860487282276153564453125</LongitudeDegrees>
            </Position>
            <AltitudeMeters>563.79998779296875</AltitudeMeters>
            <DistanceMeters>NAN</DistanceMeters>
          </Trackpoint>
          <Trackpoint>
            <Time>2021-08-14T10:01:39.000Z</Time>
            <Position>
              <LatitudeDegrees>42.98963597975671291351318359375</LatitudeDegrees>
              <LongitudeDegrees>-1.885949671268463134765625</LongitudeDegrees>
            </Position>
            <AltitudeMeters>564</AltitudeMeters>
            <DistanceMeters>NAN</DistanceMeters>
          </Trackpoint>
          <Trackpoint>
            <Time>2021-08-14T10:01:40.000Z</Time>
            <Position>
              <LatitudeDegrees>42.989622652530670166015625</LatitudeDegrees>
              <LongitudeDegrees>-1.8859146349132061004638671875</LongitudeDegrees>
            </Position>
            <AltitudeMeters>564</AltitudeMeters>
            <DistanceMeters>NAN</DistanceMeters>
          </Trackpoint>
          <Trackpoint>
            <Time>2021-08-14T10:01:42.000Z</Time>
            <Position>
              <LatitudeDegrees>42.98958652652800083160400390625</LatitudeDegrees>
              <LongitudeDegrees>-1.88584766350686550140380859375</LongitudeDegrees>
            </Position>
            <AltitudeMeters>564.20001220703125</AltitudeMeters>
            <DistanceMeters>NAN</DistanceMeters>
          </Trackpoint>
          <Trackpoint>
            <Time>2021-08-14T10:01:43.000Z</Time>
            <Position>
              <LatitudeDegrees>42.9895596206188201904296875</LatitudeDegrees>
              <LongitudeDegrees>-1.8858195841312408447265625</LongitudeDegrees>
            </Position>
            <AltitudeMeters>564.4000244140625</AltitudeMeters>
            <DistanceMeters>NAN</DistanceMeters>
          </Trackpoint>
          <Trackpoint>
            <Time>2021-08-14T10:01:44.000Z</Time>
            <Position>
              <LatitudeDegrees>42.98953103832900524139404296875</LatitudeDegrees>
              <LongitudeDegrees>-1.88579083420336246490478515625</LongitudeDegrees>
            </Position>
            <AltitudeMeters>564.4000244140625</AltitudeMeters>
            <DistanceMeters>NAN</DistanceMeters>
          </Trackpoint>
          <Trackpoint>
            <Time>2021-08-14T10:01:45.000Z</Time>
            <Position>
              <LatitudeDegrees>42.9895048029720783233642578125</LatitudeDegrees>
              <LongitudeDegrees>-1.88576283864676952362060546875</LongitudeDegrees>
            </Position>
            <AltitudeMeters>564.5999755859375</AltitudeMeters>
            <DistanceMeters>NAN</DistanceMeters>
          </Trackpoint>
          <Trackpoint>
            <Time>2021-08-14T10:01:51.000Z</Time>
            <Position>
              <LatitudeDegrees>42.98931713216006755828857421875</LatitudeDegrees>
              <LongitudeDegrees>-1.88564633019268512725830078125</LongitudeDegrees>
            </Position>
            <AltitudeMeters>564.79998779296875</AltitudeMeters>
            <DistanceMeters>NAN</DistanceMeters>
          </Trackpoint>
          <Trackpoint>
            <Time>2021-08-14T10:01:55.000Z</Time>
            <Position>
              <LatitudeDegrees>42.98915485851466655731201171875</LatitudeDegrees>
              <LongitudeDegrees>-1.88559570349752902984619140625</LongitudeDegrees>
            </Position>
            <AltitudeMeters>564.79998779296875</AltitudeMeters>
            <DistanceMeters>NAN</DistanceMeters>
          </Trackpoint>
          <Trackpoint>
            <Time>2021-08-14T10:01:56.000Z</Time>
            <Position>
              <LatitudeDegrees>42.98911697231233119964599609375</LatitudeDegrees>
              <LongitudeDegrees>-1.8855810351669788360595703125</LongitudeDegrees>
            </Position>
            <AltitudeMeters>564.79998779296875</AltitudeMeters>
            <DistanceMeters>NAN</DistanceMeters>
          </Trackpoint>
          <Trackpoint>
            <Time>2021-08-14T10:01:57.000Z</Time>
            <Position>
              <LatitudeDegrees>42.989081181585788726806640625</LatitudeDegrees>
              <LongitudeDegrees>-1.88556854613125324249267578125</LongitudeDegrees>
            </Position>
            <AltitudeMeters>564.79998779296875</AltitudeMeters>
            <DistanceMeters>NAN</DistanceMeters>
          </Trackpoint>
          <Trackpoint>
            <Time>2021-08-14T10:01:58.000Z</Time>
            <Position>
              <LatitudeDegrees>42.98904488794505596160888671875</LatitudeDegrees>
              <LongitudeDegrees>-1.88555781729519367218017578125</LongitudeDegrees>
            </Position>
            <AltitudeMeters>564.79998779296875</AltitudeMeters>
            <DistanceMeters>NAN</DistanceMeters>
          </Trackpoint>
          <Trackpoint>
            <Time>2021-08-14T10:02:01.000Z</Time>
            <Position>
              <LatitudeDegrees>42.98894329927861690521240234375</LatitudeDegrees>
              <LongitudeDegrees>-1.88551858998835086822509765625</LongitudeDegrees>
            </Position>
            <AltitudeMeters>564.79998779296875</AltitudeMeters>
            <DistanceMeters>NAN</DistanceMeters>
          </Trackpoint>
          <Trackpoint>
            <Time>2021-08-14T10:02:02.000Z</Time>
            <Position>
              <LatitudeDegrees>42.9889093525707721710205078125</LatitudeDegrees>
              <LongitudeDegrees>-1.88550367020070552825927734375</LongitudeDegrees>
            </Position>
            <AltitudeMeters>564.79998779296875</AltitudeMeters>
            <DistanceMeters>NAN</DistanceMeters>
          </Trackpoint>
          <Trackpoint>
            <Time>2021-08-14T10:02:03.000Z</Time>
            <Position>
              <LatitudeDegrees>42.98888160847127437591552734375</LatitudeDegrees>
              <LongitudeDegrees>-1.8854925222694873809814453125</LongitudeDegrees>
            </Position>
            <AltitudeMeters>564.79998779296875</AltitudeMeters>
            <DistanceMeters>NAN</DistanceMeters>
          </Trackpoint>
          <Trackpoint>
            <Time>2021-08-14T10:02:04.000Z</Time>
            <Position>
              <LatitudeDegrees>42.98884456045925617218017578125</LatitudeDegrees>
              <LongitudeDegrees>-1.88547559082508087158203125</LongitudeDegrees>
            </Position>
            <AltitudeMeters>564.79998779296875</AltitudeMeters>
            <DistanceMeters>NAN</DistanceMeters>
          </Trackpoint>
          <Trackpoint>
            <Time>2021-08-14T10:02:05.000Z</Time>
            <Position>
              <LatitudeDegrees>42.98881270922720432281494140625</LatitudeDegrees>
              <LongitudeDegrees>-1.88545681536197662353515625</LongitudeDegrees>
            </Position>
            <AltitudeMeters>564.79998779296875</AltitudeMeters>
            <DistanceMeters>NAN</DistanceMeters>
          </Trackpoint>
          <Trackpoint>
            <Time>2021-08-14T10:02:06.000Z</Time>
            <Position>
              <LatitudeDegrees>42.9887856356799602508544921875</LatitudeDegrees>
              <LongitudeDegrees>-1.8854459188878536224365234375</LongitudeDegrees>
            </Position>
            <AltitudeMeters>564.79998779296875</AltitudeMeters>
            <DistanceMeters>NAN</DistanceMeters>
          </Trackpoint>
          <Trackpoint>
            <Time>2021-08-14T10:02:07.000Z</Time>
            <Position>
              <LatitudeDegrees>42.9887527786195278167724609375</LatitudeDegrees>
              <LongitudeDegrees>-1.8854308314621448516845703125</LongitudeDegrees>
            </Position>
            <AltitudeMeters>564.79998779296875</AltitudeMeters>
            <DistanceMeters>NAN</DistanceMeters>
          </Trackpoint>
          <Trackpoint>
            <Time>2021-08-14T10:02:08.000Z</Time>
            <Position>
              <LatitudeDegrees>42.9887101985514163970947265625</LatitudeDegrees>
              <LongitudeDegrees>-1.88540945760905742645263671875</LongitudeDegrees>
            </Position>
            <AltitudeMeters>564.79998779296875</AltitudeMeters>
            <DistanceMeters>NAN</DistanceMeters>
          </Trackpoint>
          <Trackpoint>
            <Time>2021-08-14T10:02:09.000Z</Time>
            <Position>
              <LatitudeDegrees>42.98867650330066680908203125</LatitudeDegrees>
              <LongitudeDegrees>-1.88539369963109493255615234375</LongitudeDegrees>
            </Position>
            <AltitudeMeters>564.79998779296875</AltitudeMeters>
            <DistanceMeters>NAN</DistanceMeters>
          </Trackpoint>
          <Trackpoint>
            <Time>2021-08-14T10:02:11.000Z</Time>
            <Position>
              <LatitudeDegrees>42.9886082746088504791259765625</LatitudeDegrees>
              <LongitudeDegrees>-1.8853582441806793212890625</LongitudeDegrees>
            </Position>
            <AltitudeMeters>564.79998779296875</AltitudeMeters>
            <DistanceMeters>NAN</DistanceMeters>
          </Trackpoint>
          <Trackpoint>
            <Time>2021-08-14T10:02:13.000Z</Time>
            <Position>
              <LatitudeDegrees>42.9885355196893215179443359375</LatitudeDegrees>
              <LongitudeDegrees>-1.88531692139804363250732421875</LongitudeDegrees>
            </Position>
            <AltitudeMeters>564.79998779296875</AltitudeMeters>
            <DistanceMeters>NAN</DistanceMeters>
          </Trackpoint>
          <Trackpoint>
            <Time>2021-08-14T10:02:15.000Z</Time>
            <Position>
              <LatitudeDegrees>42.98847743310034275054931640625</LatitudeDegrees>
              <LongitudeDegrees>-1.8852648697793483734130859375</LongitudeDegrees>
            </Position>
            <AltitudeMeters>564.79998779296875</AltitudeMeters>
            <DistanceMeters>NAN</DistanceMeters>
          </Trackpoint>
          <Trackpoint>
            <Time>2021-08-14T10:02:16.000Z</Time>
            <Position>
              <LatitudeDegrees>42.98845522105693817138671875</LatitudeDegrees>
              <LongitudeDegrees>-1.885223798453807830810546875</LongitudeDegrees>
            </Position>
            <AltitudeMeters>564.79998779296875</AltitudeMeters>
            <DistanceMeters>NAN</DistanceMeters>
          </Trackpoint>
          <Trackpoint>
            <Time>2021-08-14T10:02:17.000Z</Time>
            <Position>
              <LatitudeDegrees>42.98842697404325008392333984375</LatitudeDegrees>
              <LongitudeDegrees>-1.88519471324980258941650390625</LongitudeDegrees>
            </Position>
            <AltitudeMeters>564.79998779296875</AltitudeMeters>
            <DistanceMeters>NAN</DistanceMeters>
          </Trackpoint>
          <Trackpoint>
            <Time>2021-08-14T10:02:18.000Z</Time>
            <Position>
              <LatitudeDegrees>42.98839478753507137298583984375</LatitudeDegrees>
              <LongitudeDegrees>-1.88516939990222454071044921875</LongitudeDegrees>
            </Position>
            <AltitudeMeters>564.79998779296875</AltitudeMeters>
            <DistanceMeters>NAN</DistanceMeters>
          </Trackpoint>
          <Trackpoint>
            <Time>2021-08-14T10:02:22.000Z</Time>
            <Position>
              <LatitudeDegrees>42.98828984610736370086669921875</LatitudeDegrees>
              <LongitudeDegrees>-1.88508373685181140899658203125</LongitudeDegrees>
            </Position>
            <AltitudeMeters>564.79998779296875</AltitudeMeters>
            <DistanceMeters>NAN</DistanceMeters>
          </Trackpoint>
          <Trackpoint>
            <Time>2021-08-14T10:02:23.000Z</Time>
            <Position>
              <LatitudeDegrees>42.98827123828232288360595703125</LatitudeDegrees>
              <LongitudeDegrees>-1.88507594168186187744140625</LongitudeDegrees>
            </Position>
            <AltitudeMeters>564.79998779296875</AltitudeMeters>
            <DistanceMeters>NAN</DistanceMeters>
          </Trackpoint>
          <Trackpoint>
            <Time>2021-08-14T10:02:24.000Z</Time>
            <Position>
              <LatitudeDegrees>42.9882542230188846588134765625</LatitudeDegrees>
              <LongitudeDegrees>-1.885069906711578369140625</LongitudeDegrees>
            </Position>
            <AltitudeMeters>564.79998779296875</AltitudeMeters>
            <DistanceMeters>NAN</DistanceMeters>
          </Trackpoint>
          <Trackpoint>
            <Time>2021-08-14T10:02:41.000Z</Time>
            <Position>
              <LatitudeDegrees>42.98807024024426937103271484375</LatitudeDegrees>
              <LongitudeDegrees>-1.884252168238162994384765625</LongitudeDegrees>
            </Position>
            <AltitudeMeters>564.5999755859375</AltitudeMeters>
            <DistanceMeters>NAN</DistanceMeters>
          </Trackpoint>
          <Trackpoint>
            <Time>2021-08-14T10:02:42.000Z</Time>
            <Position>
              <LatitudeDegrees>42.98807309009134769439697265625</LatitudeDegrees>
              <LongitudeDegrees>-1.88412367366254329681396484375</LongitudeDegrees>
            </Position>
            <AltitudeMeters>564.5999755859375</AltitudeMeters>
            <DistanceMeters>NAN</DistanceMeters>
          </Trackpoint>
          <Trackpoint>
            <Time>2021-08-14T10:02:46.000Z</Time>
            <Position>
              <LatitudeDegrees>42.988077364861965179443359375</LatitudeDegrees>
              <LongitudeDegrees>-1.88393625430762767791748046875</LongitudeDegrees>
            </Position>
            <AltitudeMeters>563.79998779296875</AltitudeMeters>
            <DistanceMeters>NAN</DistanceMeters>
          </Trackpoint>
          <Trackpoint>
            <Time>2021-08-14T10:02:47.000Z</Time>
            <Position>
              <LatitudeDegrees>42.9881050251424312591552734375</LatitudeDegrees>
              <LongitudeDegrees>-1.88388529233634471893310546875</LongitudeDegrees>
            </Position>
            <AltitudeMeters>563.5999755859375</AltitudeMeters>
            <DistanceMeters>NAN</DistanceMeters>
          </Trackpoint>
          <Trackpoint>
            <Time>2021-08-14T10:02:48.000Z</Time>
            <Position>
              <LatitudeDegrees>42.9881217889487743377685546875</LatitudeDegrees>
              <LongitudeDegrees>-1.88382678665220737457275390625</LongitudeDegrees>
            </Position>
            <AltitudeMeters>563.20001220703125</AltitudeMeters>
            <DistanceMeters>NAN</DistanceMeters>
          </Trackpoint>
          <Trackpoint>
            <Time>2021-08-14T10:02:49.000Z</Time>
            <Position>
              <LatitudeDegrees>42.9881318472325801849365234375</LatitudeDegrees>
              <LongitudeDegrees>-1.8837705440819263458251953125</LongitudeDegrees>
            </Position>
            <AltitudeMeters>563</AltitudeMeters>
            <DistanceMeters>NAN</DistanceMeters>
          </Trackpoint>
          <Trackpoint>
            <Time>2021-08-14T10:02:50.000Z</Time>
            <Position>
              <LatitudeDegrees>42.98814517445862293243408203125</LatitudeDegrees>
              <LongitudeDegrees>-1.88371798954904079437255859375</LongitudeDegrees>
            </Position>
            <AltitudeMeters>562.79998779296875</AltitudeMeters>
            <DistanceMeters>NAN</DistanceMeters>
          </Trackpoint>
          <Trackpoint>
            <Time>2021-08-14T10:02:52.000Z</Time>
            <Position>
              <LatitudeDegrees>42.98816378228366374969482421875</LatitudeDegrees>
              <LongitudeDegrees>-1.88358840532600879669189453125</LongitudeDegrees>
            </Position>
            <AltitudeMeters>562.5999755859375</AltitudeMeters>
            <DistanceMeters>NAN</DistanceMeters>
          </Trackpoint>
          <Trackpoint>
            <Time>2021-08-14T10:02:53.000Z</Time>
            <Position>
              <LatitudeDegrees>42.98817937262356281280517578125</LatitudeDegrees>
              <LongitudeDegrees>-1.883539371192455291748046875</LongitudeDegrees>
            </Position>
            <AltitudeMeters>562.4000244140625</AltitudeMeters>
            <DistanceMeters>NAN</DistanceMeters>
          </Trackpoint>
          <Trackpoint>
            <Time>2021-08-14T10:02:55.000Z</Time>
            <Position>
              <LatitudeDegrees>42.98819102346897125244140625</LatitudeDegrees>
              <LongitudeDegrees>-1.88339553773403167724609375</LongitudeDegrees>
            </Position>
            <AltitudeMeters>562.4000244140625</AltitudeMeters>
            <DistanceMeters>NAN</DistanceMeters>
          </Trackpoint>
          <Trackpoint>
            <Time>2021-08-14T10:03:02.000Z</Time>
            <Position>
              <LatitudeDegrees>42.988240979611873626708984375</LatitudeDegrees>
              <LongitudeDegrees>-1.8830255605280399322509765625</LongitudeDegrees>
            </Position>
            <AltitudeMeters>562.20001220703125</AltitudeMeters>
            <DistanceMeters>NAN</DistanceMeters>
          </Trackpoint>
          <Trackpoint>
            <Time>2021-08-14T10:03:05.000Z</Time>
            <Position>
              <LatitudeDegrees>42.98822798766195774078369140625</LatitudeDegrees>
              <LongitudeDegrees>-1.88287041150033473968505859375</LongitudeDegrees>
            </Position>
            <AltitudeMeters>562.20001220703125</AltitudeMeters>
            <DistanceMeters>NAN</DistanceMeters>
          </Trackpoint>
          <Trackpoint>
            <Time>2021-08-14T10:03:06.000Z</Time>
            <Position>
              <LatitudeDegrees>42.98821759410202503204345703125</LatitudeDegrees>
              <LongitudeDegrees>-1.88282481394708156585693359375</LongitudeDegrees>
            </Position>
            <AltitudeMeters>562.20001220703125</AltitudeMeters>
            <DistanceMeters>NAN</DistanceMeters>
          </Trackpoint>
          <Trackpoint>
            <Time>2021-08-14T10:03:07.000Z</Time>
            <Position>
              <LatitudeDegrees>42.988200746476650238037109375</LatitudeDegrees>
              <LongitudeDegrees>-1.8827596865594387054443359375</LongitudeDegrees>
            </Position>
            <AltitudeMeters>562.20001220703125</AltitudeMeters>
            <DistanceMeters>NAN</DistanceMeters>
          </Trackpoint>
          <Trackpoint>
            <Time>2021-08-14T10:03:12.000Z</Time>
            <Position>
              <LatitudeDegrees>42.98808381892740726470947265625</LatitudeDegrees>
              <LongitudeDegrees>-1.88251082785427570343017578125</LongitudeDegrees>
            </Position>
            <AltitudeMeters>561.79998779296875</AltitudeMeters>
            <DistanceMeters>NAN</DistanceMeters>
          </Trackpoint>
          <Trackpoint>
            <Time>2021-08-14T10:03:13.000Z</Time>
            <Position>
              <LatitudeDegrees>42.98805020749568939208984375</LatitudeDegrees>
              <LongitudeDegrees>-1.88246908597648143768310546875</LongitudeDegrees>
            </Position>
            <AltitudeMeters>561.4000244140625</AltitudeMeters>
            <DistanceMeters>NAN</DistanceMeters>
          </Trackpoint>
          <Trackpoint>
            <Time>2021-08-14T10:03:14.000Z</Time>
            <Position>
              <LatitudeDegrees>42.9880181886255741119384765625</LatitudeDegrees>
              <LongitudeDegrees>-1.882426925003528594970703125</LongitudeDegrees>
            </Position>
            <AltitudeMeters>561</AltitudeMeters>
            <DistanceMeters>NAN</DistanceMeters>
          </Trackpoint>
          <Trackpoint>
            <Time>2021-08-14T10:03:15.000Z</Time>
            <Position>
              <LatitudeDegrees>42.98799379728734493255615234375</LatitudeDegrees>
              <LongitudeDegrees>-1.88240705989301204681396484375</LongitudeDegrees>
            </Position>
            <AltitudeMeters>560.4000244140625</AltitudeMeters>
            <DistanceMeters>NAN</DistanceMeters>
          </Trackpoint>
          <Trackpoint>
            <Time>2021-08-14T10:03:16.000Z</Time>
            <Position>
              <LatitudeDegrees>42.987961359322071075439453125</LatitudeDegrees>
              <LongitudeDegrees>-1.88239105045795440673828125</LongitudeDegrees>
            </Position>
            <AltitudeMeters>560.20001220703125</AltitudeMeters>
            <DistanceMeters>NAN</DistanceMeters>
          </Trackpoint>
          <Trackpoint>
            <Time>2021-08-14T10:03:17.000Z</Time>
            <Position>
              <LatitudeDegrees>42.98790805041790008544921875</LatitudeDegrees>
              <LongitudeDegrees>-1.8823595345020294189453125</LongitudeDegrees>
            </Position>
            <AltitudeMeters>560</AltitudeMeters>
            <DistanceMeters>NAN</DistanceMeters>
          </Trackpoint>
          <Trackpoint>
            <Time>2021-08-14T10:03:18.000Z</Time>
            <Position>
              <LatitudeDegrees>42.9878649674355983734130859375</LatitudeDegrees>
              <LongitudeDegrees>-1.88232843764126300811767578125</LongitudeDegrees>
            </Position>
            <AltitudeMeters>559.79998779296875</AltitudeMeters>
            <DistanceMeters>NAN</DistanceMeters>
          </Trackpoint>
          <Trackpoint>
            <Time>2021-08-14T10:03:19.000Z</Time>
            <Position>
              <LatitudeDegrees>42.98782247118651866912841796875</LatitudeDegrees>
              <LongitudeDegrees>-1.8823107518255710601806640625</LongitudeDegrees>
            </Position>
            <AltitudeMeters>559.79998779296875</AltitudeMeters>
            <DistanceMeters>NAN</DistanceMeters>
          </Trackpoint>
          <Trackpoint>
            <Time>2021-08-14T10:03:20.000Z</Time>
            <Position>
              <LatitudeDegrees>42.9877928830683231353759765625</LatitudeDegrees>
              <LongitudeDegrees>-1.88229356892406940460205078125</LongitudeDegrees>
            </Position>
            <AltitudeMeters>559.79998779296875</AltitudeMeters>
            <DistanceMeters>NAN</DistanceMeters>
          </Trackpoint>
          <Trackpoint>
            <Time>2021-08-14T10:03:21.000Z</Time>
            <Position>
              <LatitudeDegrees>42.98777352087199687957763671875</LatitudeDegrees>
              <LongitudeDegrees>-1.882279403507709503173828125</LongitudeDegrees>
            </Position>
            <AltitudeMeters>559.5999755859375</AltitudeMeters>
            <DistanceMeters>NAN</DistanceMeters>
          </Trackpoint>
          <Trackpoint>
            <Time>2021-08-14T10:03:22.000Z</Time>
            <Position>
              <LatitudeDegrees>42.98775256611406803131103515625</LatitudeDegrees>
              <LongitudeDegrees>-1.88226230442523956298828125</LongitudeDegrees>
            </Position>
            <AltitudeMeters>559.5999755859375</AltitudeMeters>
            <DistanceMeters>NAN</DistanceMeters>
          </Trackpoint>
          <Trackpoint>
            <Time>2021-08-14T10:03:23.000Z</Time>
            <Position>
              <LatitudeDegrees>42.987729012966156005859375</LatitudeDegrees>
              <LongitudeDegrees>-1.88225484453141689300537109375</LongitudeDegrees>
            </Position>
            <AltitudeMeters>559.5999755859375</AltitudeMeters>
            <DistanceMeters>NAN</DistanceMeters>
          </Trackpoint>
          <Trackpoint>
            <Time>2021-08-14T10:03:24.000Z</Time>
            <Position>
              <LatitudeDegrees>42.98770898021757602691650390625</LatitudeDegrees>
              <LongitudeDegrees>-1.8822490610182285308837890625</LongitudeDegrees>
            </Position>
            <AltitudeMeters>559.5999755859375</AltitudeMeters>
            <DistanceMeters>NAN</DistanceMeters>
          </Trackpoint>
          <Trackpoint>
            <Time>2021-08-14T10:03:25.000Z</Time>
            <Position>
              <LatitudeDegrees>42.9876909591257572174072265625</LatitudeDegrees>
              <LongitudeDegrees>-1.882241182029247283935546875</LongitudeDegrees>
            </Position>
            <AltitudeMeters>559.5999755859375</AltitudeMeters>
            <DistanceMeters>NAN</DistanceMeters>
          </Trackpoint>
          <Trackpoint>
            <Time>2021-08-14T10:03:26.000Z</Time>
            <Position>
              <LatitudeDegrees>42.9876731894910335540771484375</LatitudeDegrees>
              <LongitudeDegrees>-1.88223791308701038360595703125</LongitudeDegrees>
            </Position>
            <AltitudeMeters>559.5999755859375</AltitudeMeters>
            <DistanceMeters>NAN</DistanceMeters>
          </Trackpoint>
          <Trackpoint>
            <Time>2021-08-14T10:03:27.000Z</Time>
            <Position>
              <LatitudeDegrees>42.9876579344272613525390625</LatitudeDegrees>
              <LongitudeDegrees>-1.88223690725862979888916015625</LongitudeDegrees>
            </Position>
            <AltitudeMeters>559.5999755859375</AltitudeMeters>
            <DistanceMeters>NAN</DistanceMeters>
          </Trackpoint>
          <Trackpoint>
            <Time>2021-08-14T10:03:32.000Z</Time>
            <Position>
              <LatitudeDegrees>42.9876527376472949981689453125</LatitudeDegrees>
              <LongitudeDegrees>-1.882237158715724945068359375</LongitudeDegrees>
            </Position>
            <AltitudeMeters>559.5999755859375</AltitudeMeters>
            <DistanceMeters>NAN</DistanceMeters>
          </Trackpoint>
          <Trackpoint>
            <Time>2021-08-14T10:04:00.000Z</Time>
            <Position>
              <LatitudeDegrees>42.9876527376472949981689453125</LatitudeDegrees>
              <LongitudeDegrees>-1.882237158715724945068359375</LongitudeDegrees>
            </Position>
            <AltitudeMeters>559.20001220703125</AltitudeMeters>
            <DistanceMeters>NAN</DistanceMeters>
          </Trackpoint>
          <Trackpoint>
            <Time>2021-08-14T10:04:02.000Z</Time>
            <Position>
              <LatitudeDegrees>42.9876527376472949981689453125</LatitudeDegrees>
              <LongitudeDegrees>-1.882237158715724945068359375</LongitudeDegrees>
            </Position>
            <AltitudeMeters>559.4000244140625</AltitudeMeters>
            <DistanceMeters>NAN</DistanceMeters>
          </Trackpoint>
          <Trackpoint>
            <Time>2021-08-14T10:09:48.000Z</Time>
            <Position>
              <LatitudeDegrees>42.98763052560389041900634765625</LatitudeDegrees>
              <LongitudeDegrees>-1.8822084926068782806396484375</LongitudeDegrees>
            </Position>
            <AltitudeMeters>559.5999755859375</AltitudeMeters>
            <DistanceMeters>NAN</DistanceMeters>
          </Trackpoint>
          <Trackpoint>
            <Time>2021-08-14T10:10:04.000Z</Time>
            <Position>
              <LatitudeDegrees>42.98754326999187469482421875</LatitudeDegrees>
              <LongitudeDegrees>-1.8821716122329235076904296875</LongitudeDegrees>
            </Position>
            <AltitudeMeters>559.5999755859375</AltitudeMeters>
            <DistanceMeters>NAN</DistanceMeters>
          </Trackpoint>
          <Trackpoint>
            <Time>2021-08-14T10:10:10.000Z</Time>
            <Position>
              <LatitudeDegrees>42.98737487755715847015380859375</LatitudeDegrees>
              <LongitudeDegrees>-1.8820242583751678466796875</LongitudeDegrees>
            </Position>
            <AltitudeMeters>559.79998779296875</AltitudeMeters>
            <DistanceMeters>NAN</DistanceMeters>
          </Trackpoint>
          <Trackpoint>
            <Time>2021-08-14T10:10:16.000Z</Time>
            <Position>
              <LatitudeDegrees>42.98718913458287715911865234375</LatitudeDegrees>
              <LongitudeDegrees>-1.88177187927067279815673828125</LongitudeDegrees>
            </Position>
            <AltitudeMeters>559.79998779296875</AltitudeMeters>
            <DistanceMeters>NAN</DistanceMeters>
          </Trackpoint>
          <Trackpoint>
            <Time>2021-08-14T10:10:17.000Z</Time>
            <Position>
              <LatitudeDegrees>42.98715837299823760986328125</LatitudeDegrees>
              <LongitudeDegrees>-1.881742291152477264404296875</LongitudeDegrees>
            </Position>
            <AltitudeMeters>559.5999755859375</AltitudeMeters>
            <DistanceMeters>NAN</DistanceMeters>
          </Trackpoint>
          <Trackpoint>
            <Time>2021-08-14T10:10:18.000Z</Time>
            <Position>
              <LatitudeDegrees>42.9871256835758686065673828125</LatitudeDegrees>
              <LongitudeDegrees>-1.8817158043384552001953125</LongitudeDegrees>
            </Position>
            <AltitudeMeters>559.20001220703125</AltitudeMeters>
            <DistanceMeters>NAN</DistanceMeters>
          </Trackpoint>
          <Trackpoint>
            <Time>2021-08-14T10:10:19.000Z</Time>
            <Position>
              <LatitudeDegrees>42.98709358088672161102294921875</LatitudeDegrees>
              <LongitudeDegrees>-1.88169300556182861328125</LongitudeDegrees>
            </Position>
            <AltitudeMeters>559</AltitudeMeters>
            <DistanceMeters>NAN</DistanceMeters>
          </Trackpoint>
          <Trackpoint>
            <Time>2021-08-14T10:10:20.000Z</Time>
            <Position>
              <LatitudeDegrees>42.98706323839724063873291015625</LatitudeDegrees>
              <LongitudeDegrees>-1.88166509382426738739013671875</LongitudeDegrees>
            </Position>
            <AltitudeMeters>559</AltitudeMeters>
            <DistanceMeters>NAN</DistanceMeters>
          </Trackpoint>
          <Trackpoint>
            <Time>2021-08-14T10:10:21.000Z</Time>
            <Position>
              <LatitudeDegrees>42.9870395176112651824951171875</LatitudeDegrees>
              <LongitudeDegrees>-1.88164212740957736968994140625</LongitudeDegrees>
            </Position>
            <AltitudeMeters>559</AltitudeMeters>
            <DistanceMeters>NAN</DistanceMeters>
          </Trackpoint>
          <Trackpoint>
            <Time>2021-08-14T10:10:22.000Z</Time>
            <Position>
              <LatitudeDegrees>42.9870170541107654571533203125</LatitudeDegrees>
              <LongitudeDegrees>-1.88162259757518768310546875</LongitudeDegrees>
            </Position>
            <AltitudeMeters>558.79998779296875</AltitudeMeters>
            <DistanceMeters>NAN</DistanceMeters>
          </Trackpoint>
          <Trackpoint>
            <Time>2021-08-14T10:10:23.000Z</Time>
            <Position>
              <LatitudeDegrees>42.98699568025767803192138671875</LatitudeDegrees>
              <LongitudeDegrees>-1.88160675577819347381591796875</LongitudeDegrees>
            </Position>
            <AltitudeMeters>558.79998779296875</AltitudeMeters>
            <DistanceMeters>NAN</DistanceMeters>
          </Trackpoint>
          <Trackpoint>
            <Time>2021-08-14T10:10:24.000Z</Time>
            <Position>
              <LatitudeDegrees>42.98697573132812976837158203125</LatitudeDegrees>
              <LongitudeDegrees>-1.8815889023244380950927734375</LongitudeDegrees>
            </Position>
            <AltitudeMeters>558.79998779296875</AltitudeMeters>
            <DistanceMeters>NAN</DistanceMeters>
          </Trackpoint>
          <Trackpoint>
            <Time>2021-08-14T10:10:25.000Z</Time>
            <Position>
              <LatitudeDegrees>42.98695678822696208953857421875</LatitudeDegrees>
              <LongitudeDegrees>-1.8815674446523189544677734375</LongitudeDegrees>
            </Position>
            <AltitudeMeters>558.79998779296875</AltitudeMeters>
            <DistanceMeters>NAN</DistanceMeters>
          </Trackpoint>
          <Trackpoint>
            <Time>2021-08-14T10:10:27.000Z</Time>
            <Position>
              <LatitudeDegrees>42.98692057840526103973388671875</LatitudeDegrees>
              <LongitudeDegrees>-1.8815181590616703033447265625</LongitudeDegrees>
            </Position>
            <AltitudeMeters>558.79998779296875</AltitudeMeters>
            <DistanceMeters>NAN</DistanceMeters>
          </Trackpoint>
          <Trackpoint>
            <Time>2021-08-14T10:10:28.000Z</Time>
            <Position>
              <LatitudeDegrees>42.986907251179218292236328125</LatitudeDegrees>
              <LongitudeDegrees>-1.88149360008537769317626953125</LongitudeDegrees>
            </Position>
            <AltitudeMeters>558.79998779296875</AltitudeMeters>
            <DistanceMeters>NAN</DistanceMeters>
          </Trackpoint>
          <Trackpoint>
            <Time>2021-08-14T10:10:29.000Z</Time>
            <Position>
              <LatitudeDegrees>42.98689660616219043731689453125</LatitudeDegrees>
              <LongitudeDegrees>-1.8814682029187679290771484375</LongitudeDegrees>
            </Position>
            <AltitudeMeters>558.79998779296875</AltitudeMeters>
            <DistanceMeters>NAN</DistanceMeters>
          </Trackpoint>
          <Trackpoint>
            <Time>2021-08-14T10:10:30.000Z</Time>
            <Position>
              <LatitudeDegrees>42.98689015209674835205078125</LatitudeDegrees>
              <LongitudeDegrees>-1.881443895399570465087890625</LongitudeDegrees>
            </Position>
            <AltitudeMeters>558.79998779296875</AltitudeMeters>
            <DistanceMeters>NAN</DistanceMeters>
          </Trackpoint>
          <Trackpoint>
            <Time>2021-08-14T10:10:31.000Z</Time>
            <Position>
              <LatitudeDegrees>42.98688654787838459014892578125</LatitudeDegrees>
              <LongitudeDegrees>-1.88142118044197559356689453125</LongitudeDegrees>
            </Position>
            <AltitudeMeters>558.79998779296875</AltitudeMeters>
            <DistanceMeters>NAN</DistanceMeters>
          </Trackpoint>
          <Trackpoint>
            <Time>2021-08-14T10:10:32.000Z</Time>
            <Position>
              <LatitudeDegrees>42.986886799335479736328125</LatitudeDegrees>
              <LongitudeDegrees>-1.8814011476933956146240234375</LongitudeDegrees>
            </Position>
            <AltitudeMeters>558.79998779296875</AltitudeMeters>
            <DistanceMeters>NAN</DistanceMeters>
          </Trackpoint>
          <Trackpoint>
            <Time>2021-08-14T10:10:33.000Z</Time>
            <Position>
              <LatitudeDegrees>42.98689124174416065216064453125</LatitudeDegrees>
              <LongitudeDegrees>-1.881380863487720489501953125</LongitudeDegrees>
            </Position>
            <AltitudeMeters>558.79998779296875</AltitudeMeters>
            <DistanceMeters>NAN</DistanceMeters>
          </Trackpoint>
          <Trackpoint>
            <Time>2021-08-14T10:10:34.000Z</Time>
            <Position>
              <LatitudeDegrees>42.98690130002796649932861328125</LatitudeDegrees>
              <LongitudeDegrees>-1.88136150129139423370361328125</LongitudeDegrees>
            </Position>
            <AltitudeMeters>558.79998779296875</AltitudeMeters>
            <DistanceMeters>NAN</DistanceMeters>
          </Trackpoint>
          <Trackpoint>
            <Time>2021-08-14T10:10:35.000Z</Time>
            <Position>
              <LatitudeDegrees>42.9869188182055950164794921875</LatitudeDegrees>
              <LongitudeDegrees>-1.88133417628705501556396484375</LongitudeDegrees>
            </Position>
            <AltitudeMeters>558.5999755859375</AltitudeMeters>
            <DistanceMeters>NAN</DistanceMeters>
          </Trackpoint>
          <Trackpoint>
            <Time>2021-08-14T10:10:36.000Z</Time>
            <Position>
              <LatitudeDegrees>42.986941449344158172607421875</LatitudeDegrees>
              <LongitudeDegrees>-1.88129897229373455047607421875</LongitudeDegrees>
            </Position>
            <AltitudeMeters>558.4000244140625</AltitudeMeters>
            <DistanceMeters>NAN</DistanceMeters>
          </Trackpoint>
          <Trackpoint>
            <Time>2021-08-14T10:10:37.000Z</Time>
            <Position>
              <LatitudeDegrees>42.9869637452065944671630859375</LatitudeDegrees>
              <LongitudeDegrees>-1.8812573142349720001220703125</LongitudeDegrees>
            </Position>
            <AltitudeMeters>558.4000244140625</AltitudeMeters>
            <DistanceMeters>NAN</DistanceMeters>
          </Trackpoint>
          <Trackpoint>
            <Time>2021-08-14T10:10:39.000Z</Time>
            <Position>
              <LatitudeDegrees>42.98699400387704372406005859375</LatitudeDegrees>
              <LongitudeDegrees>-1.881175003945827484130859375</LongitudeDegrees>
            </Position>
            <AltitudeMeters>558</AltitudeMeters>
            <DistanceMeters>NAN</DistanceMeters>
          </Trackpoint>
          <Trackpoint>
            <Time>2021-08-14T10:10:40.000Z</Time>
            <Position>
              <LatitudeDegrees>42.98700825311243534088134765625</LatitudeDegrees>
              <LongitudeDegrees>-1.881130747497081756591796875</LongitudeDegrees>
            </Position>
            <AltitudeMeters>557.5999755859375</AltitudeMeters>
            <DistanceMeters>NAN</DistanceMeters>
          </Trackpoint>
          <Trackpoint>
            <Time>2021-08-14T10:10:41.000Z</Time>
            <Position>
              <LatitudeDegrees>42.98701479099690914154052734375</LatitudeDegrees>
              <LongitudeDegrees>-1.88108347356319427490234375</LongitudeDegrees>
            </Position>
            <AltitudeMeters>556.79998779296875</AltitudeMeters>
            <DistanceMeters>NAN</DistanceMeters>
          </Trackpoint>
          <Trackpoint>
            <Time>2021-08-14T10:10:44.000Z</Time>
            <Position>
              <LatitudeDegrees>42.98705200664699077606201171875</LatitudeDegrees>
              <LongitudeDegrees>-1.88094626180827617645263671875</LongitudeDegrees>
            </Position>
            <AltitudeMeters>555.5999755859375</AltitudeMeters>
            <DistanceMeters>NAN</DistanceMeters>
          </Trackpoint>
          <Trackpoint>
            <Time>2021-08-14T10:10:47.000Z</Time>
            <Position>
              <LatitudeDegrees>42.98710070550441741943359375</LatitudeDegrees>
              <LongitudeDegrees>-1.8808124028146266937255859375</LongitudeDegrees>
            </Position>
            <AltitudeMeters>555</AltitudeMeters>
            <DistanceMeters>NAN</DistanceMeters>
          </Trackpoint>
          <Trackpoint>
            <Time>2021-08-14T10:10:51.000Z</Time>
            <Position>
              <LatitudeDegrees>42.9871675930917263031005859375</LatitudeDegrees>
              <LongitudeDegrees>-1.88066773116588592529296875</LongitudeDegrees>
            </Position>
            <AltitudeMeters>554.79998779296875</AltitudeMeters>
            <DistanceMeters>NAN</DistanceMeters>
          </Trackpoint>
          <Trackpoint>
            <Time>2021-08-14T10:10:52.000Z</Time>
            <Position>
              <LatitudeDegrees>42.98717857338488101959228515625</LatitudeDegrees>
              <LongitudeDegrees>-1.8806375563144683837890625</LongitudeDegrees>
            </Position>
            <AltitudeMeters>555</AltitudeMeters>
            <DistanceMeters>NAN</DistanceMeters>
          </Trackpoint>
          <Trackpoint>
            <Time>2021-08-14T10:10:53.000Z</Time>
            <Position>
              <LatitudeDegrees>42.9871910624206066131591796875</LatitudeDegrees>
              <LongitudeDegrees>-1.8806075491011142730712890625</LongitudeDegrees>
            </Position>
            <AltitudeMeters>555</AltitudeMeters>
            <DistanceMeters>NAN</DistanceMeters>
          </Trackpoint>
          <Trackpoint>
            <Time>2021-08-14T10:10:54.000Z</Time>
            <Position>
              <LatitudeDegrees>42.98720103688538074493408203125</LatitudeDegrees>
              <LongitudeDegrees>-1.88057695515453815460205078125</LongitudeDegrees>
            </Position>
            <AltitudeMeters>555</AltitudeMeters>
            <DistanceMeters>NAN</DistanceMeters>
          </Trackpoint>
          <Trackpoint>
            <Time>2021-08-14T10:10:56.000Z</Time>
            <Position>
              <LatitudeDegrees>42.98721947707235813140869140625</LatitudeDegrees>
              <LongitudeDegrees>-1.8805166892707347869873046875</LongitudeDegrees>
            </Position>
            <AltitudeMeters>555.5999755859375</AltitudeMeters>
            <DistanceMeters>NAN</DistanceMeters>
          </Trackpoint>
          <Trackpoint>
            <Time>2021-08-14T10:10:57.000Z</Time>
            <Position>
              <LatitudeDegrees>42.9872286133468151092529296875</LatitudeDegrees>
              <LongitudeDegrees>-1.8804846704006195068359375</LongitudeDegrees>
            </Position>
            <AltitudeMeters>556</AltitudeMeters>
            <DistanceMeters>NAN</DistanceMeters>
          </Trackpoint>
          <Trackpoint>
            <Time>2021-08-14T10:10:58.000Z</Time>
            <Position>
              <LatitudeDegrees>42.98723624087870121002197265625</LatitudeDegrees>
              <LongitudeDegrees>-1.88045223243534564971923828125</LongitudeDegrees>
            </Position>
            <AltitudeMeters>556.20001220703125</AltitudeMeters>
            <DistanceMeters>NAN</DistanceMeters>
          </Trackpoint>
          <Trackpoint>
            <Time>2021-08-14T10:10:59.000Z</Time>
            <Position>
              <LatitudeDegrees>42.98724059946835041046142578125</LatitudeDegrees>
              <LongitudeDegrees>-1.880429685115814208984375</LongitudeDegrees>
            </Position>
            <AltitudeMeters>556.5999755859375</AltitudeMeters>
            <DistanceMeters>NAN</DistanceMeters>
          </Trackpoint>
          <Trackpoint>
            <Time>2021-08-14T10:11:00.000Z</Time>
            <Position>
              <LatitudeDegrees>42.98725149594247341156005859375</LatitudeDegrees>
              <LongitudeDegrees>-1.88040177337825298309326171875</LongitudeDegrees>
            </Position>
            <AltitudeMeters>557</AltitudeMeters>
            <DistanceMeters>NAN</DistanceMeters>
          </Trackpoint>
          <Trackpoint>
            <Time>2021-08-14T10:11:01.000Z</Time>
            <Position>
              <LatitudeDegrees>42.98725887201726436614990234375</LatitudeDegrees>
              <LongitudeDegrees>-1.88037713058292865753173828125</LongitudeDegrees>
            </Position>
            <AltitudeMeters>557.5999755859375</AltitudeMeters>
            <DistanceMeters>NAN</DistanceMeters>
          </Trackpoint>
          <Trackpoint>
            <Time>2021-08-14T10:11:02.000Z</Time>
            <Position>
              <LatitudeDegrees>42.98726440407335758209228515625</LatitudeDegrees>
              <LongitudeDegrees>-1.88034930266439914703369140625</LongitudeDegrees>
            </Position>
            <AltitudeMeters>557.5999755859375</AltitudeMeters>
            <DistanceMeters>NAN</DistanceMeters>
          </Trackpoint>
          <Trackpoint>
            <Time>2021-08-14T10:11:03.000Z</Time>
            <Position>
              <LatitudeDegrees>42.98726926557719707489013671875</LatitudeDegrees>
              <LongitudeDegrees>-1.8803188763558864593505859375</LongitudeDegrees>
            </Position>
            <AltitudeMeters>558.20001220703125</AltitudeMeters>
            <DistanceMeters>NAN</DistanceMeters>
          </Trackpoint>
          <Trackpoint>
            <Time>2021-08-14T10:11:05.000Z</Time>
            <Position>
              <LatitudeDegrees>42.98727898858487606048583984375</LatitudeDegrees>
              <LongitudeDegrees>-1.88024662435054779052734375</LongitudeDegrees>
            </Position>
            <AltitudeMeters>559</AltitudeMeters>
            <DistanceMeters>NAN</DistanceMeters>
          </Trackpoint>
          <Trackpoint>
            <Time>2021-08-14T10:11:06.000Z</Time>
            <Position>
              <LatitudeDegrees>42.98728435300290584564208984375</LatitudeDegrees>
              <LongitudeDegrees>-1.8802068941295146942138671875</LongitudeDegrees>
            </Position>
            <AltitudeMeters>559.20001220703125</AltitudeMeters>
            <DistanceMeters>NAN</DistanceMeters>
          </Trackpoint>
          <Trackpoint>
            <Time>2021-08-14T10:11:10.000Z</Time>
            <Position>
              <LatitudeDegrees>42.98732056282460689544677734375</LatitudeDegrees>
              <LongitudeDegrees>-1.880037747323513031005859375</LongitudeDegrees>
            </Position>
            <AltitudeMeters>559.4000244140625</AltitudeMeters>
            <DistanceMeters>NAN</DistanceMeters>
          </Trackpoint>
          <Trackpoint>
            <Time>2021-08-14T10:11:11.000Z</Time>
            <Position>
              <LatitudeDegrees>42.98732710070908069610595703125</LatitudeDegrees>
              <LongitudeDegrees>-1.879998855292797088623046875</LongitudeDegrees>
            </Position>
            <AltitudeMeters>559.4000244140625</AltitudeMeters>
            <DistanceMeters>NAN</DistanceMeters>
          </Trackpoint>
          <Trackpoint>
            <Time>2021-08-14T10:11:12.000Z</Time>
            <Position>
              <LatitudeDegrees>42.9873342253267765045166015625</LatitudeDegrees>
              <LongitudeDegrees>-1.87996189109981060028076171875</LongitudeDegrees>
            </Position>
            <AltitudeMeters>559.4000244140625</AltitudeMeters>
            <DistanceMeters>NAN</DistanceMeters>
          </Trackpoint>
          <Trackpoint>
            <Time>2021-08-14T10:11:13.000Z</Time>
            <Position>
              <LatitudeDegrees>42.98734210431575775146484375</LatitudeDegrees>
              <LongitudeDegrees>-1.8799240887165069580078125</LongitudeDegrees>
            </Position>
            <AltitudeMeters>559.4000244140625</AltitudeMeters>
            <DistanceMeters>NAN</DistanceMeters>
          </Trackpoint>
          <Trackpoint>
            <Time>2021-08-14T10:11:14.000Z</Time>
            <Position>
              <LatitudeDegrees>42.987348139286041259765625</LatitudeDegrees>
              <LongitudeDegrees>-1.87988452613353729248046875</LongitudeDegrees>
            </Position>
            <AltitudeMeters>559.4000244140625</AltitudeMeters>
            <DistanceMeters>NAN</DistanceMeters>
          </Trackpoint>
          <Trackpoint>
            <Time>2021-08-14T10:11:15.000Z</Time>
            <Position>
              <LatitudeDegrees>42.987355850636959075927734375</LatitudeDegrees>
              <LongitudeDegrees>-1.879839599132537841796875</LongitudeDegrees>
            </Position>
            <AltitudeMeters>559.4000244140625</AltitudeMeters>
            <DistanceMeters>NAN</DistanceMeters>
          </Trackpoint>
          <Trackpoint>
            <Time>2021-08-14T10:11:16.000Z</Time>
            <Position>
              <LatitudeDegrees>42.98736381344497203826904296875</LatitudeDegrees>
              <LongitudeDegrees>-1.8798008747398853302001953125</LongitudeDegrees>
            </Position>
            <AltitudeMeters>559.4000244140625</AltitudeMeters>
            <DistanceMeters>NAN</DistanceMeters>
          </Trackpoint>
          <Trackpoint>
            <Time>2021-08-14T10:11:17.000Z</Time>
            <Position>
              <LatitudeDegrees>42.9873647354543209075927734375</LatitudeDegrees>
              <LongitudeDegrees>-1.8797577917575836181640625</LongitudeDegrees>
            </Position>
            <AltitudeMeters>559.4000244140625</AltitudeMeters>
            <DistanceMeters>NAN</DistanceMeters>
          </Trackpoint>
          <Trackpoint>
            <Time>2021-08-14T10:11:18.000Z</Time>
            <Position>
              <LatitudeDegrees>42.98736155033111572265625</LatitudeDegrees>
              <LongitudeDegrees>-1.8797167204320430755615234375</LongitudeDegrees>
            </Position>
            <AltitudeMeters>559.4000244140625</AltitudeMeters>
            <DistanceMeters>NAN</DistanceMeters>
          </Trackpoint>
          <Trackpoint>
            <Time>2021-08-14T10:11:19.000Z</Time>
            <Position>
              <LatitudeDegrees>42.987350486218929290771484375</LatitudeDegrees>
              <LongitudeDegrees>-1.87967187725007534027099609375</LongitudeDegrees>
            </Position>
            <AltitudeMeters>559.4000244140625</AltitudeMeters>
            <DistanceMeters>NAN</DistanceMeters>
          </Trackpoint>
          <Trackpoint>
            <Time>2021-08-14T10:11:20.000Z</Time>
            <Position>
              <LatitudeDegrees>42.9873493127524852752685546875</LatitudeDegrees>
              <LongitudeDegrees>-1.87962175346910953521728515625</LongitudeDegrees>
            </Position>
            <AltitudeMeters>559.20001220703125</AltitudeMeters>
            <DistanceMeters>NAN</DistanceMeters>
          </Trackpoint>
          <Trackpoint>
            <Time>2021-08-14T10:11:21.000Z</Time>
            <Position>
              <LatitudeDegrees>42.98735090531408786773681640625</LatitudeDegrees>
              <LongitudeDegrees>-1.879566013813018798828125</LongitudeDegrees>
            </Position>
            <AltitudeMeters>559.20001220703125</AltitudeMeters>
            <DistanceMeters>NAN</DistanceMeters>
          </Trackpoint>
          <Trackpoint>
            <Time>2021-08-14T10:11:22.000Z</Time>
            <Position>
              <LatitudeDegrees>42.98734344542026519775390625</LatitudeDegrees>
              <LongitudeDegrees>-1.87951161526143550872802734375</LongitudeDegrees>
            </Position>
            <AltitudeMeters>559.20001220703125</AltitudeMeters>
            <DistanceMeters>NAN</DistanceMeters>
          </Trackpoint>
          <Trackpoint>
            <Time>2021-08-14T10:11:23.000Z</Time>
            <Position>
              <LatitudeDegrees>42.98734202049672603607177734375</LatitudeDegrees>
              <LongitudeDegrees>-1.87946266494691371917724609375</LongitudeDegrees>
            </Position>
            <AltitudeMeters>559</AltitudeMeters>
            <DistanceMeters>NAN</DistanceMeters>
          </Trackpoint>
          <Trackpoint>
            <Time>2021-08-14T10:11:25.000Z</Time>
            <Position>
              <LatitudeDegrees>42.987352497875690460205078125</LatitudeDegrees>
              <LongitudeDegrees>-1.87937029637396335601806640625</LongitudeDegrees>
            </Position>
            <AltitudeMeters>559</AltitudeMeters>
            <DistanceMeters>NAN</DistanceMeters>
          </Trackpoint>
          <Trackpoint>
            <Time>2021-08-14T10:11:30.000Z</Time>
            <Position>
              <LatitudeDegrees>42.9873977601528167724609375</LatitudeDegrees>
              <LongitudeDegrees>-1.8791014887392520904541015625</LongitudeDegrees>
            </Position>
            <AltitudeMeters>558.5999755859375</AltitudeMeters>
            <DistanceMeters>NAN</DistanceMeters>
          </Trackpoint>
          <Trackpoint>
            <Time>2021-08-14T10:11:34.000Z</Time>
            <Position>
              <LatitudeDegrees>42.987475208938121795654296875</LatitudeDegrees>
              <LongitudeDegrees>-1.878832764923572540283203125</LongitudeDegrees>
            </Position>
            <AltitudeMeters>558.20001220703125</AltitudeMeters>
            <DistanceMeters>NAN</DistanceMeters>
          </Trackpoint>
          <Trackpoint>
            <Time>2021-08-14T10:11:36.000Z</Time>
            <Position>
              <LatitudeDegrees>42.987496666610240936279296875</LatitudeDegrees>
              <LongitudeDegrees>-1.878685913980007171630859375</LongitudeDegrees>
            </Position>
            <AltitudeMeters>558.20001220703125</AltitudeMeters>
            <DistanceMeters>NAN</DistanceMeters>
          </Trackpoint>
          <Trackpoint>
            <Time>2021-08-14T10:11:39.000Z</Time>
            <Position>
              <LatitudeDegrees>42.98750898800790309906005859375</LatitudeDegrees>
              <LongitudeDegrees>-1.8784456886351108551025390625</LongitudeDegrees>
            </Position>
            <AltitudeMeters>557.5999755859375</AltitudeMeters>
            <DistanceMeters>NAN</DistanceMeters>
          </Trackpoint>
          <Trackpoint>
            <Time>2021-08-14T10:11:40.000Z</Time>
            <Position>
              <LatitudeDegrees>42.987523488700389862060546875</LatitudeDegrees>
              <LongitudeDegrees>-1.8783628754317760467529296875</LongitudeDegrees>
            </Position>
            <AltitudeMeters>557.4000244140625</AltitudeMeters>
            <DistanceMeters>NAN</DistanceMeters>
          </Trackpoint>
          <Trackpoint>
            <Time>2021-08-14T10:11:43.000Z</Time>
            <Position>
              <LatitudeDegrees>42.98756263218820095062255859375</LatitudeDegrees>
              <LongitudeDegrees>-1.8781422637403011322021484375</LongitudeDegrees>
            </Position>
            <AltitudeMeters>557</AltitudeMeters>
            <DistanceMeters>NAN</DistanceMeters>
          </Trackpoint>
          <Trackpoint>
            <Time>2021-08-14T10:11:44.000Z</Time>
            <Position>
              <LatitudeDegrees>42.9875605367124080657958984375</LatitudeDegrees>
              <LongitudeDegrees>-1.87806540168821811676025390625</LongitudeDegrees>
            </Position>
            <AltitudeMeters>557</AltitudeMeters>
            <DistanceMeters>NAN</DistanceMeters>
          </Trackpoint>
          <Trackpoint>
            <Time>2021-08-14T10:11:47.000Z</Time>
            <Position>
              <LatitudeDegrees>42.98757503740489482879638671875</LatitudeDegrees>
              <LongitudeDegrees>-1.877857111394405364990234375</LongitudeDegrees>
            </Position>
            <AltitudeMeters>556.79998779296875</AltitudeMeters>
            <DistanceMeters>NAN</DistanceMeters>
          </Trackpoint>
          <Trackpoint>
            <Time>2021-08-14T10:11:48.000Z</Time>
            <Position>
              <LatitudeDegrees>42.9875806532800197601318359375</LatitudeDegrees>
              <LongitudeDegrees>-1.877788715064525604248046875</LongitudeDegrees>
            </Position>
            <AltitudeMeters>556.79998779296875</AltitudeMeters>
            <DistanceMeters>NAN</DistanceMeters>
          </Trackpoint>
          <Trackpoint>
            <Time>2021-08-14T10:11:52.000Z</Time>
            <Position>
              <LatitudeDegrees>42.98756967298686504364013671875</LatitudeDegrees>
              <LongitudeDegrees>-1.87753088772296905517578125</LongitudeDegrees>
            </Position>
            <AltitudeMeters>556.20001220703125</AltitudeMeters>
            <DistanceMeters>NAN</DistanceMeters>
          </Trackpoint>
          <Trackpoint>
            <Time>2021-08-14T10:11:53.000Z</Time>
            <Position>
              <LatitudeDegrees>42.9875602014362812042236328125</LatitudeDegrees>
              <LongitudeDegrees>-1.87746609561145305633544921875</LongitudeDegrees>
            </Position>
            <AltitudeMeters>556.20001220703125</AltitudeMeters>
            <DistanceMeters>NAN</DistanceMeters>
          </Trackpoint>
          <Trackpoint>
            <Time>2021-08-14T10:11:54.000Z</Time>
            <Position>
              <LatitudeDegrees>42.9875484667718410491943359375</LatitudeDegrees>
              <LongitudeDegrees>-1.877399794757366180419921875</LongitudeDegrees>
            </Position>
            <AltitudeMeters>556.20001220703125</AltitudeMeters>
            <DistanceMeters>NAN</DistanceMeters>
          </Trackpoint>
          <Trackpoint>
            <Time>2021-08-14T10:11:55.000Z</Time>
            <Position>
              <LatitudeDegrees>42.9875384084880352020263671875</LatitudeDegrees>
              <LongitudeDegrees>-1.87733349390327930450439453125</LongitudeDegrees>
            </Position>
            <AltitudeMeters>556.20001220703125</AltitudeMeters>
            <DistanceMeters>NAN</DistanceMeters>
          </Trackpoint>
          <Trackpoint>
            <Time>2021-08-14T10:11:56.000Z</Time>
            <Position>
              <LatitudeDegrees>42.98751921392977237701416015625</LatitudeDegrees>
              <LongitudeDegrees>-1.87725135125219821929931640625</LongitudeDegrees>
            </Position>
            <AltitudeMeters>556.20001220703125</AltitudeMeters>
            <DistanceMeters>NAN</DistanceMeters>
          </Trackpoint>
          <Trackpoint>
            <Time>2021-08-14T10:11:57.000Z</Time>
            <Position>
              <LatitudeDegrees>42.98749591223895549774169921875</LatitudeDegrees>
              <LongitudeDegrees>-1.8771843798458576202392578125</LongitudeDegrees>
            </Position>
            <AltitudeMeters>556.20001220703125</AltitudeMeters>
            <DistanceMeters>NAN</DistanceMeters>
          </Trackpoint>
          <Trackpoint>
            <Time>2021-08-14T10:11:59.000Z</Time>
            <Position>
              <LatitudeDegrees>42.98744763247668743133544921875</LatitudeDegrees>
              <LongitudeDegrees>-1.87704884447157382965087890625</LongitudeDegrees>
            </Position>
            <AltitudeMeters>556</AltitudeMeters>
            <DistanceMeters>NAN</DistanceMeters>
          </Trackpoint>
          <Trackpoint>
            <Time>2021-08-14T10:12:01.000Z</Time>
            <Position>
              <LatitudeDegrees>42.987389378249645233154296875</LatitudeDegrees>
              <LongitudeDegrees>-1.87692780978977680206298828125</LongitudeDegrees>
            </Position>
            <AltitudeMeters>556</AltitudeMeters>
            <DistanceMeters>NAN</DistanceMeters>
          </Trackpoint>
          <Trackpoint>
            <Time>2021-08-14T10:12:03.000Z</Time>
            <Position>
              <LatitudeDegrees>42.9873157851397991180419921875</LatitudeDegrees>
              <LongitudeDegrees>-1.87681674957275390625</LongitudeDegrees>
            </Position>
            <AltitudeMeters>555.79998779296875</AltitudeMeters>
            <DistanceMeters>NAN</DistanceMeters>
          </Trackpoint>
          <Trackpoint>
            <Time>2021-08-14T10:12:06.000Z</Time>
            <Position>
              <LatitudeDegrees>42.9871867038309574127197265625</LatitudeDegrees>
              <LongitudeDegrees>-1.87666076235473155975341796875</LongitudeDegrees>
            </Position>
            <AltitudeMeters>555.5999755859375</AltitudeMeters>
            <DistanceMeters>NAN</DistanceMeters>
          </Trackpoint>
          <Trackpoint>
            <Time>2021-08-14T10:12:08.000Z</Time>
            <Position>
              <LatitudeDegrees>42.98708955757319927215576171875</LatitudeDegrees>
              <LongitudeDegrees>-1.876577027142047882080078125</LongitudeDegrees>
            </Position>
            <AltitudeMeters>555.4000244140625</AltitudeMeters>
            <DistanceMeters>NAN</DistanceMeters>
          </Trackpoint>
          <Trackpoint>
            <Time>2021-08-14T10:12:09.000Z</Time>
            <Position>
              <LatitudeDegrees>42.98702904023230075836181640625</LatitudeDegrees>
              <LongitudeDegrees>-1.8765399791300296783447265625</LongitudeDegrees>
            </Position>
            <AltitudeMeters>555.20001220703125</AltitudeMeters>
            <DistanceMeters>NAN</DistanceMeters>
          </Trackpoint>
          <Trackpoint>
            <Time>2021-08-14T10:12:11.000Z</Time>
            <Position>
              <LatitudeDegrees>42.98693935386836528778076171875</LatitudeDegrees>
              <LongitudeDegrees>-1.87645322643220424652099609375</LongitudeDegrees>
            </Position>
            <AltitudeMeters>555</AltitudeMeters>
            <DistanceMeters>NAN</DistanceMeters>
          </Trackpoint>
          <Trackpoint>
            <Time>2021-08-14T10:12:14.000Z</Time>
            <Position>
              <LatitudeDegrees>42.98681546933948993682861328125</LatitudeDegrees>
              <LongitudeDegrees>-1.8763270787894725799560546875</LongitudeDegrees>
            </Position>
            <AltitudeMeters>555</AltitudeMeters>
            <DistanceMeters>NAN</DistanceMeters>
          </Trackpoint>
          <Trackpoint>
            <Time>2021-08-14T10:12:17.000Z</Time>
            <Position>
              <LatitudeDegrees>42.98668236471712589263916015625</LatitudeDegrees>
              <LongitudeDegrees>-1.87619908712804317474365234375</LongitudeDegrees>
            </Position>
            <AltitudeMeters>554.79998779296875</AltitudeMeters>
            <DistanceMeters>NAN</DistanceMeters>
          </Trackpoint>
          <Trackpoint>
            <Time>2021-08-14T10:12:21.000Z</Time>
            <Position>
              <LatitudeDegrees>42.98652461729943752288818359375</LatitudeDegrees>
              <LongitudeDegrees>-1.8760139308869838714599609375</LongitudeDegrees>
            </Position>
            <AltitudeMeters>554.5999755859375</AltitudeMeters>
            <DistanceMeters>NAN</DistanceMeters>
          </Trackpoint>
          <Trackpoint>
            <Time>2021-08-14T10:12:26.000Z</Time>
            <Position>
              <LatitudeDegrees>42.9863260500133037567138671875</LatitudeDegrees>
              <LongitudeDegrees>-1.875783093273639678955078125</LongitudeDegrees>
            </Position>
            <AltitudeMeters>554.20001220703125</AltitudeMeters>
            <DistanceMeters>NAN</DistanceMeters>
          </Trackpoint>
          <Trackpoint>
            <Time>2021-08-14T10:12:27.000Z</Time>
            <Position>
              <LatitudeDegrees>42.9862819612026214599609375</LatitudeDegrees>
              <LongitudeDegrees>-1.87572165392339229583740234375</LongitudeDegrees>
            </Position>
            <AltitudeMeters>554.20001220703125</AltitudeMeters>
            <DistanceMeters>NAN</DistanceMeters>
          </Trackpoint>
          <Trackpoint>
            <Time>2021-08-14T10:12:29.000Z</Time>
            <Position>
              <LatitudeDegrees>42.986197136342525482177734375</LatitudeDegrees>
              <LongitudeDegrees>-1.87563850544393062591552734375</LongitudeDegrees>
            </Position>
            <AltitudeMeters>554</AltitudeMeters>
            <DistanceMeters>NAN</DistanceMeters>
          </Trackpoint>
          <Trackpoint>
            <Time>2021-08-14T10:12:30.000Z</Time>
            <Position>
              <LatitudeDegrees>42.9861604236066341400146484375</LatitudeDegrees>
              <LongitudeDegrees>-1.87558896839618682861328125</LongitudeDegrees>
            </Position>
            <AltitudeMeters>553.79998779296875</AltitudeMeters>
            <DistanceMeters>NAN</DistanceMeters>
          </Trackpoint>
          <Trackpoint>
            <Time>2021-08-14T10:12:32.000Z</Time>
            <Position>
              <LatitudeDegrees>42.9861138202250003814697265625</LatitudeDegrees>
              <LongitudeDegrees>-1.87546868808567523956298828125</LongitudeDegrees>
            </Position>
            <AltitudeMeters>553.79998779296875</AltitudeMeters>
            <DistanceMeters>NAN</DistanceMeters>
          </Trackpoint>
          <Trackpoint>
            <Time>2021-08-14T10:12:33.000Z</Time>
            <Position>
              <LatitudeDegrees>42.98609353601932525634765625</LatitudeDegrees>
              <LongitudeDegrees>-1.87540180049836635589599609375</LongitudeDegrees>
            </Position>
            <AltitudeMeters>553.5999755859375</AltitudeMeters>
            <DistanceMeters>NAN</DistanceMeters>
          </Trackpoint>
          <Trackpoint>
            <Time>2021-08-14T10:12:37.000Z</Time>
            <Position>
              <LatitudeDegrees>42.98601181246340274810791015625</LatitudeDegrees>
              <LongitudeDegrees>-1.875112541019916534423828125</LongitudeDegrees>
            </Position>
            <AltitudeMeters>553</AltitudeMeters>
            <DistanceMeters>NAN</DistanceMeters>
          </Trackpoint>
          <Trackpoint>
            <Time>2021-08-14T10:12:38.000Z</Time>
            <Position>
              <LatitudeDegrees>42.98598918132483959197998046875</LatitudeDegrees>
              <LongitudeDegrees>-1.87504439614713191986083984375</LongitudeDegrees>
            </Position>
            <AltitudeMeters>552.79998779296875</AltitudeMeters>
            <DistanceMeters>NAN</DistanceMeters>
          </Trackpoint>
          <Trackpoint>
            <Time>2021-08-14T10:12:39.000Z</Time>
            <Position>
              <LatitudeDegrees>42.9859679751098155975341796875</LatitudeDegrees>
              <LongitudeDegrees>-1.8749752454459667205810546875</LongitudeDegrees>
            </Position>
            <AltitudeMeters>552.79998779296875</AltitudeMeters>
            <DistanceMeters>NAN</DistanceMeters>
          </Trackpoint>
          <Trackpoint>
            <Time>2021-08-14T10:12:42.000Z</Time>
            <Position>
              <LatitudeDegrees>42.98587359488010406494140625</LatitudeDegrees>
              <LongitudeDegrees>-1.87479260377585887908935546875</LongitudeDegrees>
            </Position>
            <AltitudeMeters>552.4000244140625</AltitudeMeters>
            <DistanceMeters>NAN</DistanceMeters>
          </Trackpoint>
          <Trackpoint>
            <Time>2021-08-14T10:12:44.000Z</Time>
            <Position>
              <LatitudeDegrees>42.98581592738628387451171875</LatitudeDegrees>
              <LongitudeDegrees>-1.87467492185533046722412109375</LongitudeDegrees>
            </Position>
            <AltitudeMeters>552.20001220703125</AltitudeMeters>
            <DistanceMeters>NAN</DistanceMeters>
          </Trackpoint>
          <Trackpoint>
            <Time>2021-08-14T10:12:45.000Z</Time>
            <Position>
              <LatitudeDegrees>42.98578818328678607940673828125</LatitudeDegrees>
              <LongitudeDegrees>-1.8746195174753665924072265625</LongitudeDegrees>
            </Position>
            <AltitudeMeters>552.20001220703125</AltitudeMeters>
            <DistanceMeters>NAN</DistanceMeters>
          </Trackpoint>
          <Trackpoint>
            <Time>2021-08-14T10:12:47.000Z</Time>
            <Position>
              <LatitudeDegrees>42.98573571257293224334716796875</LatitudeDegrees>
              <LongitudeDegrees>-1.87450745142996311187744140625</LongitudeDegrees>
            </Position>
            <AltitudeMeters>552</AltitudeMeters>
            <DistanceMeters>NAN</DistanceMeters>
          </Trackpoint>
          <Trackpoint>
            <Time>2021-08-14T10:12:48.000Z</Time>
            <Position>
              <LatitudeDegrees>42.9857094772160053253173828125</LatitudeDegrees>
              <LongitudeDegrees>-1.874455399811267852783203125</LongitudeDegrees>
            </Position>
            <AltitudeMeters>551.79998779296875</AltitudeMeters>
            <DistanceMeters>NAN</DistanceMeters>
          </Trackpoint>
          <Trackpoint>
            <Time>2021-08-14T10:12:49.000Z</Time>
            <Position>
              <LatitudeDegrees>42.98568584024906158447265625</LatitudeDegrees>
              <LongitudeDegrees>-1.87439848668873310089111328125</LongitudeDegrees>
            </Position>
            <AltitudeMeters>551.79998779296875</AltitudeMeters>
            <DistanceMeters>NAN</DistanceMeters>
          </Trackpoint>
          <Trackpoint>
            <Time>2021-08-14T10:12:51.000Z</Time>
            <Position>
              <LatitudeDegrees>42.98564619384706020355224609375</LatitudeDegrees>
              <LongitudeDegrees>-1.8742731772363185882568359375</LongitudeDegrees>
            </Position>
            <AltitudeMeters>551.5999755859375</AltitudeMeters>
            <DistanceMeters>NAN</DistanceMeters>
          </Trackpoint>
          <Trackpoint>
            <Time>2021-08-14T10:12:52.000Z</Time>
            <Position>
              <LatitudeDegrees>42.98562792129814624786376953125</LatitudeDegrees>
              <LongitudeDegrees>-1.8742168508470058441162109375</LongitudeDegrees>
            </Position>
            <AltitudeMeters>551.5999755859375</AltitudeMeters>
            <DistanceMeters>NAN</DistanceMeters>
          </Trackpoint>
          <Trackpoint>
            <Time>2021-08-14T10:12:53.000Z</Time>
            <Position>
              <LatitudeDegrees>42.98560981638729572296142578125</LatitudeDegrees>
              <LongitudeDegrees>-1.8741648830473423004150390625</LongitudeDegrees>
            </Position>
            <AltitudeMeters>551.5999755859375</AltitudeMeters>
            <DistanceMeters>NAN</DistanceMeters>
          </Trackpoint>
          <Trackpoint>
            <Time>2021-08-14T10:12:54.000Z</Time>
            <Position>
              <LatitudeDegrees>42.9855944775044918060302734375</LatitudeDegrees>
              <LongitudeDegrees>-1.8741142563521862030029296875</LongitudeDegrees>
            </Position>
            <AltitudeMeters>551.5999755859375</AltitudeMeters>
            <DistanceMeters>NAN</DistanceMeters>
          </Trackpoint>
          <Trackpoint>
            <Time>2021-08-14T10:12:55.000Z</Time>
            <Position>
              <LatitudeDegrees>42.98558215610682964324951171875</LatitudeDegrees>
              <LongitudeDegrees>-1.87406656332314014434814453125</LongitudeDegrees>
            </Position>
            <AltitudeMeters>551.5999755859375</AltitudeMeters>
            <DistanceMeters>NAN</DistanceMeters>
          </Trackpoint>
          <Trackpoint>
            <Time>2021-08-14T10:12:56.000Z</Time>
            <Position>
              <LatitudeDegrees>42.9855669848620891571044921875</LatitudeDegrees>
              <LongitudeDegrees>-1.87402079813182353973388671875</LongitudeDegrees>
            </Position>
            <AltitudeMeters>551.5999755859375</AltitudeMeters>
            <DistanceMeters>NAN</DistanceMeters>
          </Trackpoint>
          <Trackpoint>
            <Time>2021-08-14T10:12:57.000Z</Time>
            <Position>
              <LatitudeDegrees>42.98555181361734867095947265625</LatitudeDegrees>
              <LongitudeDegrees>-1.87398173846304416656494140625</LongitudeDegrees>
            </Position>
            <AltitudeMeters>551.5999755859375</AltitudeMeters>
            <DistanceMeters>NAN</DistanceMeters>
          </Trackpoint>
          <Trackpoint>
            <Time>2021-08-14T10:12:58.000Z</Time>
            <Position>
              <LatitudeDegrees>42.98554100096225738525390625</LatitudeDegrees>
              <LongitudeDegrees>-1.87394670210778713226318359375</LongitudeDegrees>
            </Position>
            <AltitudeMeters>551.5999755859375</AltitudeMeters>
            <DistanceMeters>NAN</DistanceMeters>
          </Trackpoint>
          <Trackpoint>
            <Time>2021-08-14T10:12:59.000Z</Time>
            <Position>
              <LatitudeDegrees>42.98552633263170719146728515625</LatitudeDegrees>
              <LongitudeDegrees>-1.87390730716288089752197265625</LongitudeDegrees>
            </Position>
            <AltitudeMeters>551.79998779296875</AltitudeMeters>
            <DistanceMeters>NAN</DistanceMeters>
          </Trackpoint>
          <Trackpoint>
            <Time>2021-08-14T10:13:00.000Z</Time>
            <Position>
              <LatitudeDegrees>42.98551325686275959014892578125</LatitudeDegrees>
              <LongitudeDegrees>-1.8738684989511966705322265625</LongitudeDegrees>
            </Position>
            <AltitudeMeters>551.79998779296875</AltitudeMeters>
            <DistanceMeters>NAN</DistanceMeters>
          </Trackpoint>
          <Trackpoint>
            <Time>2021-08-14T10:13:03.000Z</Time>
            <Position>
              <LatitudeDegrees>42.98546455800533294677734375</LatitudeDegrees>
              <LongitudeDegrees>-1.87374955974519252777099609375</LongitudeDegrees>
            </Position>
            <AltitudeMeters>552</AltitudeMeters>
            <DistanceMeters>NAN</DistanceMeters>
          </Trackpoint>
          <Trackpoint>
            <Time>2021-08-14T10:13:04.000Z</Time>
            <Position>
              <LatitudeDegrees>42.98544754274189472198486328125</LatitudeDegrees>
              <LongitudeDegrees>-1.87371368519961833953857421875</LongitudeDegrees>
            </Position>
            <AltitudeMeters>552.20001220703125</AltitudeMeters>
            <DistanceMeters>NAN</DistanceMeters>
          </Trackpoint>
          <Trackpoint>
            <Time>2021-08-14T10:13:05.000Z</Time>
            <Position>
              <LatitudeDegrees>42.98542725853621959686279296875</LatitudeDegrees>
              <LongitudeDegrees>-1.87367253005504608154296875</LongitudeDegrees>
            </Position>
            <AltitudeMeters>552.20001220703125</AltitudeMeters>
            <DistanceMeters>NAN</DistanceMeters>
          </Trackpoint>
          <Trackpoint>
            <Time>2021-08-14T10:13:07.000Z</Time>
            <Position>
              <LatitudeDegrees>42.9853805713355541229248046875</LatitudeDegrees>
              <LongitudeDegrees>-1.8735697679221630096435546875</LongitudeDegrees>
            </Position>
            <AltitudeMeters>552.20001220703125</AltitudeMeters>
            <DistanceMeters>NAN</DistanceMeters>
          </Trackpoint>
          <Trackpoint>
            <Time>2021-08-14T10:13:08.000Z</Time>
            <Position>
              <LatitudeDegrees>42.98535525798797607421875</LatitudeDegrees>
              <LongitudeDegrees>-1.8734990246593952178955078125</LongitudeDegrees>
            </Position>
            <AltitudeMeters>552.20001220703125</AltitudeMeters>
            <DistanceMeters>NAN</DistanceMeters>
          </Trackpoint>
          <Trackpoint>
            <Time>2021-08-14T10:13:09.000Z</Time>
            <Position>
              <LatitudeDegrees>42.98532307147979736328125</LatitudeDegrees>
              <LongitudeDegrees>-1.873415373265743255615234375</LongitudeDegrees>
            </Position>
            <AltitudeMeters>552.20001220703125</AltitudeMeters>
            <DistanceMeters>NAN</DistanceMeters>
          </Trackpoint>
          <Trackpoint>
            <Time>2021-08-14T10:13:12.000Z</Time>
            <Position>
              <LatitudeDegrees>42.98522290773689746856689453125</LatitudeDegrees>
              <LongitudeDegrees>-1.87315712682902812957763671875</LongitudeDegrees>
            </Position>
            <AltitudeMeters>551.4000244140625</AltitudeMeters>
            <DistanceMeters>NAN</DistanceMeters>
          </Trackpoint>
          <Trackpoint>
            <Time>2021-08-14T10:13:14.000Z</Time>
            <Position>
              <LatitudeDegrees>42.9851633124053478240966796875</LatitudeDegrees>
              <LongitudeDegrees>-1.87299217097461223602294921875</LongitudeDegrees>
            </Position>
            <AltitudeMeters>550.5999755859375</AltitudeMeters>
            <DistanceMeters>NAN</DistanceMeters>
          </Trackpoint>
          <Trackpoint>
            <Time>2021-08-14T10:13:15.000Z</Time>
            <Position>
              <LatitudeDegrees>42.9851452074944972991943359375</LatitudeDegrees>
              <LongitudeDegrees>-1.872911117970943450927734375</LongitudeDegrees>
            </Position>
            <AltitudeMeters>550.20001220703125</AltitudeMeters>
            <DistanceMeters>NAN</DistanceMeters>
          </Trackpoint>
          <Trackpoint>
            <Time>2021-08-14T10:13:17.000Z</Time>
            <Position>
              <LatitudeDegrees>42.98509516753256320953369140625</LatitudeDegrees>
              <LongitudeDegrees>-1.87274842523038387298583984375</LongitudeDegrees>
            </Position>
            <AltitudeMeters>549.79998779296875</AltitudeMeters>
            <DistanceMeters>NAN</DistanceMeters>
          </Trackpoint>
          <Trackpoint>
            <Time>2021-08-14T10:13:19.000Z</Time>
            <Position>
              <LatitudeDegrees>42.9850426129996776580810546875</LatitudeDegrees>
              <LongitudeDegrees>-1.87257827259600162506103515625</LongitudeDegrees>
            </Position>
            <AltitudeMeters>549.5999755859375</AltitudeMeters>
            <DistanceMeters>NAN</DistanceMeters>
          </Trackpoint>
          <Trackpoint>
            <Time>2021-08-14T10:13:22.000Z</Time>
            <Position>
              <LatitudeDegrees>42.98497798852622509002685546875</LatitudeDegrees>
              <LongitudeDegrees>-1.87233519740402698516845703125</LongitudeDegrees>
            </Position>
            <AltitudeMeters>548.79998779296875</AltitudeMeters>
            <DistanceMeters>NAN</DistanceMeters>
          </Trackpoint>
          <Trackpoint>
            <Time>2021-08-14T10:13:23.000Z</Time>
            <Position>
              <LatitudeDegrees>42.98493993468582630157470703125</LatitudeDegrees>
              <LongitudeDegrees>-1.8722688965499401092529296875</LongitudeDegrees>
            </Position>
            <AltitudeMeters>548.79998779296875</AltitudeMeters>
            <DistanceMeters>NAN</DistanceMeters>
          </Trackpoint>
          <Trackpoint>
            <Time>2021-08-14T10:13:24.000Z</Time>
            <Position>
              <LatitudeDegrees>42.984904311597347259521484375</LatitudeDegrees>
              <LongitudeDegrees>-1.87220544554293155670166015625</LongitudeDegrees>
            </Position>
            <AltitudeMeters>548.5999755859375</AltitudeMeters>
            <DistanceMeters>NAN</DistanceMeters>
          </Trackpoint>
          <Trackpoint>
            <Time>2021-08-14T10:13:27.000Z</Time>
            <Position>
              <LatitudeDegrees>42.9847837798297405242919921875</LatitudeDegrees>
              <LongitudeDegrees>-1.87199036590754985809326171875</LongitudeDegrees>
            </Position>
            <AltitudeMeters>548.4000244140625</AltitudeMeters>
            <DistanceMeters>NAN</DistanceMeters>
          </Trackpoint>
          <Trackpoint>
            <Time>2021-08-14T10:13:30.000Z</Time>
            <Position>
              <LatitudeDegrees>42.98464111983776092529296875</LatitudeDegrees>
              <LongitudeDegrees>-1.87169716693460941314697265625</LongitudeDegrees>
            </Position>
            <AltitudeMeters>548</AltitudeMeters>
            <DistanceMeters>NAN</DistanceMeters>
          </Trackpoint>
          <Trackpoint>
            <Time>2021-08-14T10:13:31.000Z</Time>
            <Position>
              <LatitudeDegrees>42.98461069352924823760986328125</LatitudeDegrees>
              <LongitudeDegrees>-1.87162692658603191375732421875</LongitudeDegrees>
            </Position>
            <AltitudeMeters>547.20001220703125</AltitudeMeters>
            <DistanceMeters>NAN</DistanceMeters>
          </Trackpoint>
          <Trackpoint>
            <Time>2021-08-14T10:13:32.000Z</Time>
            <Position>
              <LatitudeDegrees>42.98457230441272258758544921875</LatitudeDegrees>
              <LongitudeDegrees>-1.8715500645339488983154296875</LongitudeDegrees>
            </Position>
            <AltitudeMeters>547</AltitudeMeters>
            <DistanceMeters>NAN</DistanceMeters>
          </Trackpoint>
          <Trackpoint>
            <Time>2021-08-14T10:13:33.000Z</Time>
            <Position>
              <LatitudeDegrees>42.984544895589351654052734375</LatitudeDegrees>
              <LongitudeDegrees>-1.87148795463144779205322265625</LongitudeDegrees>
            </Position>
            <AltitudeMeters>546.79998779296875</AltitudeMeters>
            <DistanceMeters>NAN</DistanceMeters>
          </Trackpoint>
          <Trackpoint>
            <Time>2021-08-14T10:13:34.000Z</Time>
            <Position>
              <LatitudeDegrees>42.98452578485012054443359375</LatitudeDegrees>
              <LongitudeDegrees>-1.8714322149753570556640625</LongitudeDegrees>
            </Position>
            <AltitudeMeters>546.5999755859375</AltitudeMeters>
            <DistanceMeters>NAN</DistanceMeters>
          </Trackpoint>
          <Trackpoint>
            <Time>2021-08-14T10:13:35.000Z</Time>
            <Position>
              <LatitudeDegrees>42.9845075123012065887451171875</LatitudeDegrees>
              <LongitudeDegrees>-1.871379911899566650390625</LongitudeDegrees>
            </Position>
            <AltitudeMeters>546.5999755859375</AltitudeMeters>
            <DistanceMeters>NAN</DistanceMeters>
          </Trackpoint>
          <Trackpoint>
            <Time>2021-08-14T10:13:36.000Z</Time>
            <Position>
              <LatitudeDegrees>42.98448513261973857879638671875</LatitudeDegrees>
              <LongitudeDegrees>-1.87132886610925197601318359375</LongitudeDegrees>
            </Position>
            <AltitudeMeters>546.5999755859375</AltitudeMeters>
            <DistanceMeters>NAN</DistanceMeters>
          </Trackpoint>
          <Trackpoint>
            <Time>2021-08-14T10:13:37.000Z</Time>
            <Position>
              <LatitudeDegrees>42.98446635715663433074951171875</LatitudeDegrees>
              <LongitudeDegrees>-1.87127371318638324737548828125</LongitudeDegrees>
            </Position>
            <AltitudeMeters>546.5999755859375</AltitudeMeters>
            <DistanceMeters>NAN</DistanceMeters>
          </Trackpoint>
          <Trackpoint>
            <Time>2021-08-14T10:13:38.000Z</Time>
            <Position>
              <LatitudeDegrees>42.98444506712257862091064453125</LatitudeDegrees>
              <LongitudeDegrees>-1.87121822498738765716552734375</LongitudeDegrees>
            </Position>
            <AltitudeMeters>546.4000244140625</AltitudeMeters>
            <DistanceMeters>NAN</DistanceMeters>
          </Trackpoint>
          <Trackpoint>
            <Time>2021-08-14T10:13:39.000Z</Time>
            <Position>
              <LatitudeDegrees>42.98442461527884006500244140625</LatitudeDegrees>
              <LongitudeDegrees>-1.87116106040775775909423828125</LongitudeDegrees>
            </Position>
            <AltitudeMeters>546.4000244140625</AltitudeMeters>
            <DistanceMeters>NAN</DistanceMeters>
          </Trackpoint>
          <Trackpoint>
            <Time>2021-08-14T10:13:40.000Z</Time>
            <Position>
              <LatitudeDegrees>42.984396703541278839111328125</LatitudeDegrees>
              <LongitudeDegrees>-1.87110607512295246124267578125</LongitudeDegrees>
            </Position>
            <AltitudeMeters>546.4000244140625</AltitudeMeters>
            <DistanceMeters>NAN</DistanceMeters>
          </Trackpoint>
          <Trackpoint>
            <Time>2021-08-14T10:13:42.000Z</Time>
            <Position>
              <LatitudeDegrees>42.9843492619693279266357421875</LatitudeDegrees>
              <LongitudeDegrees>-1.87099928967654705047607421875</LongitudeDegrees>
            </Position>
            <AltitudeMeters>546.4000244140625</AltitudeMeters>
            <DistanceMeters>NAN</DistanceMeters>
          </Trackpoint>
          <Trackpoint>
            <Time>2021-08-14T10:13:43.000Z</Time>
            <Position>
              <LatitudeDegrees>42.984327971935272216796875</LatitudeDegrees>
              <LongitudeDegrees>-1.87094329856336116790771484375</LongitudeDegrees>
            </Position>
            <AltitudeMeters>546.4000244140625</AltitudeMeters>
            <DistanceMeters>NAN</DistanceMeters>
          </Trackpoint>
          <Trackpoint>
            <Time>2021-08-14T10:13:44.000Z</Time>
            <Position>
              <LatitudeDegrees>42.98431456089019775390625</LatitudeDegrees>
              <LongitudeDegrees>-1.8708868883550167083740234375</LongitudeDegrees>
            </Position>
            <AltitudeMeters>546.20001220703125</AltitudeMeters>
            <DistanceMeters>NAN</DistanceMeters>
          </Trackpoint>
          <Trackpoint>
            <Time>2021-08-14T10:13:45.000Z</Time>
            <Position>
              <LatitudeDegrees>42.9842946119606494903564453125</LatitudeDegrees>
              <LongitudeDegrees>-1.87083064578473567962646484375</LongitudeDegrees>
            </Position>
            <AltitudeMeters>546.20001220703125</AltitudeMeters>
            <DistanceMeters>NAN</DistanceMeters>
          </Trackpoint>
          <Trackpoint>
            <Time>2021-08-14T10:13:49.000Z</Time>
            <Position>
              <LatitudeDegrees>42.98419327475130558013916015625</LatitudeDegrees>
              <LongitudeDegrees>-1.87062327750027179718017578125</LongitudeDegrees>
            </Position>
            <AltitudeMeters>545.5999755859375</AltitudeMeters>
            <DistanceMeters>NAN</DistanceMeters>
          </Trackpoint>
          <Trackpoint>
            <Time>2021-08-14T10:13:51.000Z</Time>
            <Position>
              <LatitudeDegrees>42.984133176505565643310546875</LatitudeDegrees>
              <LongitudeDegrees>-1.8705227784812450408935546875</LongitudeDegrees>
            </Position>
            <AltitudeMeters>545.4000244140625</AltitudeMeters>
            <DistanceMeters>NAN</DistanceMeters>
          </Trackpoint>
          <Trackpoint>
            <Time>2021-08-14T10:13:52.000Z</Time>
            <Position>
              <LatitudeDegrees>42.9841040074825286865234375</LatitudeDegrees>
              <LongitudeDegrees>-1.8704741634428501129150390625</LongitudeDegrees>
            </Position>
            <AltitudeMeters>545.4000244140625</AltitudeMeters>
            <DistanceMeters>NAN</DistanceMeters>
          </Trackpoint>
          <Trackpoint>
            <Time>2021-08-14T10:13:54.000Z</Time>
            <Position>
              <LatitudeDegrees>42.98403183929622173309326171875</LatitudeDegrees>
              <LongitudeDegrees>-1.8703806214034557342529296875</LongitudeDegrees>
            </Position>
            <AltitudeMeters>545.20001220703125</AltitudeMeters>
            <DistanceMeters>NAN</DistanceMeters>
          </Trackpoint>
          <Trackpoint>
            <Time>2021-08-14T10:13:59.000Z</Time>
            <Position>
              <LatitudeDegrees>42.98386554233729839324951171875</LatitudeDegrees>
              <LongitudeDegrees>-1.87015707604587078094482421875</LongitudeDegrees>
            </Position>
            <AltitudeMeters>544.5999755859375</AltitudeMeters>
            <DistanceMeters>NAN</DistanceMeters>
          </Trackpoint>
          <Trackpoint>
            <Time>2021-08-14T10:14:02.000Z</Time>
            <Position>
              <LatitudeDegrees>42.983761690557003021240234375</LatitudeDegrees>
              <LongitudeDegrees>-1.87003009021282196044921875</LongitudeDegrees>
            </Position>
            <AltitudeMeters>544.4000244140625</AltitudeMeters>
            <DistanceMeters>NAN</DistanceMeters>
          </Trackpoint>
          <Trackpoint>
            <Time>2021-08-14T10:14:03.000Z</Time>
            <Position>
              <LatitudeDegrees>42.98373126424849033355712890625</LatitudeDegrees>
              <LongitudeDegrees>-1.86999362893402576446533203125</LongitudeDegrees>
            </Position>
            <AltitudeMeters>544.4000244140625</AltitudeMeters>
            <DistanceMeters>NAN</DistanceMeters>
          </Trackpoint>
          <Trackpoint>
            <Time>2021-08-14T10:14:04.000Z</Time>
            <Position>
              <LatitudeDegrees>42.9837035201489925384521484375</LatitudeDegrees>
              <LongitudeDegrees>-1.86995741911232471466064453125</LongitudeDegrees>
            </Position>
            <AltitudeMeters>544.20001220703125</AltitudeMeters>
            <DistanceMeters>NAN</DistanceMeters>
          </Trackpoint>
          <Trackpoint>
            <Time>2021-08-14T10:14:05.000Z</Time>
            <Position>
              <LatitudeDegrees>42.983678877353668212890625</LatitudeDegrees>
              <LongitudeDegrees>-1.86992288567125797271728515625</LongitudeDegrees>
            </Position>
            <AltitudeMeters>544.20001220703125</AltitudeMeters>
            <DistanceMeters>NAN</DistanceMeters>
          </Trackpoint>
          <Trackpoint>
            <Time>2021-08-14T10:14:06.000Z</Time>
            <Position>
              <LatitudeDegrees>42.98364937305450439453125</LatitudeDegrees>
              <LongitudeDegrees>-1.8698834069073200225830078125</LongitudeDegrees>
            </Position>
            <AltitudeMeters>544.20001220703125</AltitudeMeters>
            <DistanceMeters>NAN</DistanceMeters>
          </Trackpoint>
          <Trackpoint>
            <Time>2021-08-14T10:14:07.000Z</Time>
            <Position>
              <LatitudeDegrees>42.9836223833262920379638671875</LatitudeDegrees>
              <LongitudeDegrees>-1.8698418326675891876220703125</LongitudeDegrees>
            </Position>
            <AltitudeMeters>544.20001220703125</AltitudeMeters>
            <DistanceMeters>NAN</DistanceMeters>
          </Trackpoint>
          <Trackpoint>
            <Time>2021-08-14T10:14:08.000Z</Time>
            <Position>
              <LatitudeDegrees>42.98359966836869716644287109375</LatitudeDegrees>
              <LongitudeDegrees>-1.86980076134204864501953125</LongitudeDegrees>
            </Position>
            <AltitudeMeters>544.20001220703125</AltitudeMeters>
            <DistanceMeters>NAN</DistanceMeters>
          </Trackpoint>
          <Trackpoint>
            <Time>2021-08-14T10:14:09.000Z</Time>
            <Position>
              <LatitudeDegrees>42.98357703723013401031494140625</LatitudeDegrees>
              <LongitudeDegrees>-1.86976052820682525634765625</LongitudeDegrees>
            </Position>
            <AltitudeMeters>544.20001220703125</AltitudeMeters>
            <DistanceMeters>NAN</DistanceMeters>
          </Trackpoint>
          <Trackpoint>
            <Time>2021-08-14T10:14:10.000Z</Time>
            <Position>
              <LatitudeDegrees>42.98355876468122005462646484375</LatitudeDegrees>
              <LongitudeDegrees>-1.869717277586460113525390625</LongitudeDegrees>
            </Position>
            <AltitudeMeters>544.20001220703125</AltitudeMeters>
            <DistanceMeters>NAN</DistanceMeters>
          </Trackpoint>
          <Trackpoint>
            <Time>2021-08-14T10:14:11.000Z</Time>
            <Position>
              <LatitudeDegrees>42.9835362173616886138916015625</LatitudeDegrees>
              <LongitudeDegrees>-1.869671344757080078125</LongitudeDegrees>
            </Position>
            <AltitudeMeters>544</AltitudeMeters>
            <DistanceMeters>NAN</DistanceMeters>
          </Trackpoint>
          <Trackpoint>
            <Time>2021-08-14T10:14:12.000Z</Time>
            <Position>
              <LatitudeDegrees>42.98350344412028789520263671875</LatitudeDegrees>
              <LongitudeDegrees>-1.86963002197444438934326171875</LongitudeDegrees>
            </Position>
            <AltitudeMeters>544</AltitudeMeters>
            <DistanceMeters>NAN</DistanceMeters>
          </Trackpoint>
          <Trackpoint>
            <Time>2021-08-14T10:14:13.000Z</Time>
            <Position>
              <LatitudeDegrees>42.9834681563079357147216796875</LatitudeDegrees>
              <LongitudeDegrees>-1.8695876933634281158447265625</LongitudeDegrees>
            </Position>
            <AltitudeMeters>543.79998779296875</AltitudeMeters>
            <DistanceMeters>NAN</DistanceMeters>
          </Trackpoint>
          <Trackpoint>
            <Time>2021-08-14T10:14:15.000Z</Time>
            <Position>
              <LatitudeDegrees>42.98341157846152782440185546875</LatitudeDegrees>
              <LongitudeDegrees>-1.86950161121785640716552734375</LongitudeDegrees>
            </Position>
            <AltitudeMeters>543.79998779296875</AltitudeMeters>
            <DistanceMeters>NAN</DistanceMeters>
          </Trackpoint>
          <Trackpoint>
            <Time>2021-08-14T10:14:16.000Z</Time>
            <Position>
              <LatitudeDegrees>42.98339112661778926849365234375</LatitudeDegrees>
              <LongitudeDegrees>-1.86946439556777477264404296875</LongitudeDegrees>
            </Position>
            <AltitudeMeters>543.79998779296875</AltitudeMeters>
            <DistanceMeters>NAN</DistanceMeters>
          </Trackpoint>
          <Trackpoint>
            <Time>2021-08-14T10:14:17.000Z</Time>
            <Position>
              <LatitudeDegrees>42.9833712615072727203369140625</LatitudeDegrees>
              <LongitudeDegrees>-1.86941578052937984466552734375</LongitudeDegrees>
            </Position>
            <AltitudeMeters>543.79998779296875</AltitudeMeters>
            <DistanceMeters>NAN</DistanceMeters>
          </Trackpoint>
          <Trackpoint>
            <Time>2021-08-14T10:14:21.000Z</Time>
            <Position>
              <LatitudeDegrees>42.98328300006687641143798828125</LatitudeDegrees>
              <LongitudeDegrees>-1.86917371116578578948974609375</LongitudeDegrees>
            </Position>
            <AltitudeMeters>543.4000244140625</AltitudeMeters>
            <DistanceMeters>NAN</DistanceMeters>
          </Trackpoint>
          <Trackpoint>
            <Time>2021-08-14T10:14:23.000Z</Time>
            <Position>
              <LatitudeDegrees>42.98324343748390674591064453125</LatitudeDegrees>
              <LongitudeDegrees>-1.86903138644993305206298828125</LongitudeDegrees>
            </Position>
            <AltitudeMeters>543</AltitudeMeters>
            <DistanceMeters>NAN</DistanceMeters>
          </Trackpoint>
          <Trackpoint>
            <Time>2021-08-14T10:14:24.000Z</Time>
            <Position>
              <LatitudeDegrees>42.98321711830794811248779296875</LatitudeDegrees>
              <LongitudeDegrees>-1.86896483413875102996826171875</LongitudeDegrees>
            </Position>
            <AltitudeMeters>542.79998779296875</AltitudeMeters>
            <DistanceMeters>NAN</DistanceMeters>
          </Trackpoint>
          <Trackpoint>
            <Time>2021-08-14T10:14:25.000Z</Time>
            <Position>
              <LatitudeDegrees>42.983180992305278778076171875</LatitudeDegrees>
              <LongitudeDegrees>-1.86890356242656707763671875</LongitudeDegrees>
            </Position>
            <AltitudeMeters>542.5999755859375</AltitudeMeters>
            <DistanceMeters>NAN</DistanceMeters>
          </Trackpoint>
          <Trackpoint>
            <Time>2021-08-14T10:14:26.000Z</Time>
            <Position>
              <LatitudeDegrees>42.98316213302314281463623046875</LatitudeDegrees>
              <LongitudeDegrees>-1.86884631402790546417236328125</LongitudeDegrees>
            </Position>
            <AltitudeMeters>542.5999755859375</AltitudeMeters>
            <DistanceMeters>NAN</DistanceMeters>
          </Trackpoint>
          <Trackpoint>
            <Time>2021-08-14T10:14:28.000Z</Time>
            <Position>
              <LatitudeDegrees>42.9831288568675518035888671875</LatitudeDegrees>
              <LongitudeDegrees>-1.86872142367064952850341796875</LongitudeDegrees>
            </Position>
            <AltitudeMeters>542.20001220703125</AltitudeMeters>
            <DistanceMeters>NAN</DistanceMeters>
          </Trackpoint>
          <Trackpoint>
            <Time>2021-08-14T10:14:29.000Z</Time>
            <Position>
              <LatitudeDegrees>42.983112595975399017333984375</LatitudeDegrees>
              <LongitudeDegrees>-1.8686663545668125152587890625</LongitudeDegrees>
            </Position>
            <AltitudeMeters>542.20001220703125</AltitudeMeters>
            <DistanceMeters>NAN</DistanceMeters>
          </Trackpoint>
          <Trackpoint>
            <Time>2021-08-14T10:14:30.000Z</Time>
            <Position>
              <LatitudeDegrees>42.98309491015970706939697265625</LatitudeDegrees>
              <LongitudeDegrees>-1.86860181391239166259765625</LongitudeDegrees>
            </Position>
            <AltitudeMeters>542</AltitudeMeters>
            <DistanceMeters>NAN</DistanceMeters>
          </Trackpoint>
          <Trackpoint>
            <Time>2021-08-14T10:14:31.000Z</Time>
            <Position>
              <LatitudeDegrees>42.983076386153697967529296875</LatitudeDegrees>
              <LongitudeDegrees>-1.868544481694698333740234375</LongitudeDegrees>
            </Position>
            <AltitudeMeters>542</AltitudeMeters>
            <DistanceMeters>NAN</DistanceMeters>
          </Trackpoint>
          <Trackpoint>
            <Time>2021-08-14T10:14:32.000Z</Time>
            <Position>
              <LatitudeDegrees>42.98305501230061054229736328125</LatitudeDegrees>
              <LongitudeDegrees>-1.86847952194511890411376953125</LongitudeDegrees>
            </Position>
            <AltitudeMeters>542</AltitudeMeters>
            <DistanceMeters>NAN</DistanceMeters>
          </Trackpoint>
          <Trackpoint>
            <Time>2021-08-14T10:14:33.000Z</Time>
            <Position>
              <LatitudeDegrees>42.983031459152698516845703125</LatitudeDegrees>
              <LongitudeDegrees>-1.8683894164860248565673828125</LongitudeDegrees>
            </Position>
            <AltitudeMeters>541.79998779296875</AltitudeMeters>
            <DistanceMeters>NAN</DistanceMeters>
          </Trackpoint>
          <Trackpoint>
            <Time>2021-08-14T10:14:35.000Z</Time>
            <Position>
              <LatitudeDegrees>42.98298594541847705841064453125</LatitudeDegrees>
              <LongitudeDegrees>-1.8682563118636608123779296875</LongitudeDegrees>
            </Position>
            <AltitudeMeters>541.5999755859375</AltitudeMeters>
            <DistanceMeters>NAN</DistanceMeters>
          </Trackpoint>
          <Trackpoint>
            <Time>2021-08-14T10:14:38.000Z</Time>
            <Position>
              <LatitudeDegrees>42.9828941635787487030029296875</LatitudeDegrees>
              <LongitudeDegrees>-1.86804953031241893768310546875</LongitudeDegrees>
            </Position>
            <AltitudeMeters>541.4000244140625</AltitudeMeters>
            <DistanceMeters>NAN</DistanceMeters>
          </Trackpoint>
          <Trackpoint>
            <Time>2021-08-14T10:14:41.000Z</Time>
            <Position>
              <LatitudeDegrees>42.9827707819640636444091796875</LatitudeDegrees>
              <LongitudeDegrees>-1.86786227859556674957275390625</LongitudeDegrees>
            </Position>
            <AltitudeMeters>541.20001220703125</AltitudeMeters>
            <DistanceMeters>NAN</DistanceMeters>
          </Trackpoint>
          <Trackpoint>
            <Time>2021-08-14T10:14:43.000Z</Time>
            <Position>
              <LatitudeDegrees>42.98270246945321559906005859375</LatitudeDegrees>
              <LongitudeDegrees>-1.86773353256285190582275390625</LongitudeDegrees>
            </Position>
            <AltitudeMeters>541</AltitudeMeters>
            <DistanceMeters>NAN</DistanceMeters>
          </Trackpoint>
          <Trackpoint>
            <Time>2021-08-14T10:14:44.000Z</Time>
            <Position>
              <LatitudeDegrees>42.98267967067658901214599609375</LatitudeDegrees>
              <LongitudeDegrees>-1.86766614206135272979736328125</LongitudeDegrees>
            </Position>
            <AltitudeMeters>541</AltitudeMeters>
            <DistanceMeters>NAN</DistanceMeters>
          </Trackpoint>
          <Trackpoint>
            <Time>2021-08-14T10:14:45.000Z</Time>
            <Position>
              <LatitudeDegrees>42.982671372592449188232421875</LatitudeDegrees>
              <LongitudeDegrees>-1.8676072172820568084716796875</LongitudeDegrees>
            </Position>
            <AltitudeMeters>540.79998779296875</AltitudeMeters>
            <DistanceMeters>NAN</DistanceMeters>
          </Trackpoint>
          <Trackpoint>
            <Time>2021-08-14T10:14:46.000Z</Time>
            <Position>
              <LatitudeDegrees>42.98265620134770870208740234375</LatitudeDegrees>
              <LongitudeDegrees>-1.867555417120456695556640625</LongitudeDegrees>
            </Position>
            <AltitudeMeters>540.79998779296875</AltitudeMeters>
            <DistanceMeters>NAN</DistanceMeters>
          </Trackpoint>
          <Trackpoint>
            <Time>2021-08-14T10:14:47.000Z</Time>
            <Position>
              <LatitudeDegrees>42.98262552358210086822509765625</LatitudeDegrees>
              <LongitudeDegrees>-1.8674975819885730743408203125</LongitudeDegrees>
            </Position>
            <AltitudeMeters>540.5999755859375</AltitudeMeters>
            <DistanceMeters>NAN</DistanceMeters>
          </Trackpoint>
          <Trackpoint>
            <Time>2021-08-14T10:14:48.000Z</Time>
            <Position>
              <LatitudeDegrees>42.98259115777909755706787109375</LatitudeDegrees>
              <LongitudeDegrees>-1.8674358911812305450439453125</LongitudeDegrees>
            </Position>
            <AltitudeMeters>540.5999755859375</AltitudeMeters>
            <DistanceMeters>NAN</DistanceMeters>
          </Trackpoint>
          <Trackpoint>
            <Time>2021-08-14T10:14:49.000Z</Time>
            <Position>
              <LatitudeDegrees>42.9825444705784320831298828125</LatitudeDegrees>
              <LongitudeDegrees>-1.86735995113849639892578125</LongitudeDegrees>
            </Position>
            <AltitudeMeters>540.4000244140625</AltitudeMeters>
            <DistanceMeters>NAN</DistanceMeters>
          </Trackpoint>
          <Trackpoint>
            <Time>2021-08-14T10:14:50.000Z</Time>
            <Position>
              <LatitudeDegrees>42.98251404426991939544677734375</LatitudeDegrees>
              <LongitudeDegrees>-1.86730630695819854736328125</LongitudeDegrees>
            </Position>
            <AltitudeMeters>540.20001220703125</AltitudeMeters>
            <DistanceMeters>NAN</DistanceMeters>
          </Trackpoint>
          <Trackpoint>
            <Time>2021-08-14T10:14:51.000Z</Time>
            <Position>
              <LatitudeDegrees>42.98247431404888629913330078125</LatitudeDegrees>
              <LongitudeDegrees>-1.86724671162664890289306640625</LongitudeDegrees>
            </Position>
            <AltitudeMeters>540.20001220703125</AltitudeMeters>
            <DistanceMeters>NAN</DistanceMeters>
          </Trackpoint>
          <Trackpoint>
            <Time>2021-08-14T10:14:52.000Z</Time>
            <Position>
              <LatitudeDegrees>42.98244531266391277313232421875</LatitudeDegrees>
              <LongitudeDegrees>-1.8671988509595394134521484375</LongitudeDegrees>
            </Position>
            <AltitudeMeters>540</AltitudeMeters>
            <DistanceMeters>NAN</DistanceMeters>
          </Trackpoint>
          <Trackpoint>
            <Time>2021-08-14T10:14:53.000Z</Time>
            <Position>
              <LatitudeDegrees>42.98241362906992435455322265625</LatitudeDegrees>
              <LongitudeDegrees>-1.86714210547506809234619140625</LongitudeDegrees>
            </Position>
            <AltitudeMeters>540</AltitudeMeters>
            <DistanceMeters>NAN</DistanceMeters>
          </Trackpoint>
          <Trackpoint>
            <Time>2021-08-14T10:14:54.000Z</Time>
            <Position>
              <LatitudeDegrees>42.98238269984722137451171875</LatitudeDegrees>
              <LongitudeDegrees>-1.86709080822765827178955078125</LongitudeDegrees>
            </Position>
            <AltitudeMeters>539.79998779296875</AltitudeMeters>
            <DistanceMeters>NAN</DistanceMeters>
          </Trackpoint>
          <Trackpoint>
            <Time>2021-08-14T10:14:57.000Z</Time>
            <Position>
              <LatitudeDegrees>42.98231723718345165252685546875</LatitudeDegrees>
              <LongitudeDegrees>-1.86694663949310779571533203125</LongitudeDegrees>
            </Position>
            <AltitudeMeters>539.4000244140625</AltitudeMeters>
            <DistanceMeters>NAN</DistanceMeters>
          </Trackpoint>
          <Trackpoint>
            <Time>2021-08-14T10:14:58.000Z</Time>
            <Position>
              <LatitudeDegrees>42.9823054186999797821044921875</LatitudeDegrees>
              <LongitudeDegrees>-1.86690104193985462188720703125</LongitudeDegrees>
            </Position>
            <AltitudeMeters>539.20001220703125</AltitudeMeters>
            <DistanceMeters>NAN</DistanceMeters>
          </Trackpoint>
          <Trackpoint>
            <Time>2021-08-14T10:14:59.000Z</Time>
            <Position>
              <LatitudeDegrees>42.9822802729904651641845703125</LatitudeDegrees>
              <LongitudeDegrees>-1.86684069223701953887939453125</LongitudeDegrees>
            </Position>
            <AltitudeMeters>539.20001220703125</AltitudeMeters>
            <DistanceMeters>NAN</DistanceMeters>
          </Trackpoint>
          <Trackpoint>
            <Time>2021-08-14T10:15:00.000Z</Time>
            <Position>
              <LatitudeDegrees>42.98224649392068386077880859375</LatitudeDegrees>
              <LongitudeDegrees>-1.8667720444500446319580078125</LongitudeDegrees>
            </Position>
            <AltitudeMeters>539</AltitudeMeters>
            <DistanceMeters>NAN</DistanceMeters>
          </Trackpoint>
          <Trackpoint>
            <Time>2021-08-14T10:15:03.000Z</Time>
            <Position>
              <LatitudeDegrees>42.98215278424322605133056640625</LatitudeDegrees>
              <LongitudeDegrees>-1.86661018989980220794677734375</LongitudeDegrees>
            </Position>
            <AltitudeMeters>538.79998779296875</AltitudeMeters>
            <DistanceMeters>NAN</DistanceMeters>
          </Trackpoint>
          <Trackpoint>
            <Time>2021-08-14T10:15:04.000Z</Time>
            <Position>
              <LatitudeDegrees>42.9821293987333774566650390625</LatitudeDegrees>
              <LongitudeDegrees>-1.8665588088333606719970703125</LongitudeDegrees>
            </Position>
            <AltitudeMeters>538.5999755859375</AltitudeMeters>
            <DistanceMeters>NAN</DistanceMeters>
          </Trackpoint>
          <Trackpoint>
            <Time>2021-08-14T10:15:05.000Z</Time>
            <Position>
              <LatitudeDegrees>42.9821116290986537933349609375</LatitudeDegrees>
              <LongitudeDegrees>-1.8665071763098239898681640625</LongitudeDegrees>
            </Position>
            <AltitudeMeters>538.5999755859375</AltitudeMeters>
            <DistanceMeters>NAN</DistanceMeters>
          </Trackpoint>
          <Trackpoint>
            <Time>2021-08-14T10:15:07.000Z</Time>
            <Position>
              <LatitudeDegrees>42.98206360079348087310791015625</LatitudeDegrees>
              <LongitudeDegrees>-1.86638924293220043182373046875</LongitudeDegrees>
            </Position>
            <AltitudeMeters>538.5999755859375</AltitudeMeters>
            <DistanceMeters>NAN</DistanceMeters>
          </Trackpoint>
          <Trackpoint>
            <Time>2021-08-14T10:15:08.000Z</Time>
            <Position>
              <LatitudeDegrees>42.9820485971868038177490234375</LatitudeDegrees>
              <LongitudeDegrees>-1.866347081959247589111328125</LongitudeDegrees>
            </Position>
            <AltitudeMeters>538.4000244140625</AltitudeMeters>
            <DistanceMeters>NAN</DistanceMeters>
          </Trackpoint>
          <Trackpoint>
            <Time>2021-08-14T10:15:09.000Z</Time>
            <Position>
              <LatitudeDegrees>42.9820279777050018310546875</LatitudeDegrees>
              <LongitudeDegrees>-1.8663100339472293853759765625</LongitudeDegrees>
            </Position>
            <AltitudeMeters>538.4000244140625</AltitudeMeters>
            <DistanceMeters>NAN</DistanceMeters>
          </Trackpoint>
          <Trackpoint>
            <Time>2021-08-14T10:15:10.000Z</Time>
            <Position>
              <LatitudeDegrees>42.98200316727161407470703125</LatitudeDegrees>
              <LongitudeDegrees>-1.8662651069462299346923828125</LongitudeDegrees>
            </Position>
            <AltitudeMeters>538.4000244140625</AltitudeMeters>
            <DistanceMeters>NAN</DistanceMeters>
          </Trackpoint>
          <Trackpoint>
            <Time>2021-08-14T10:15:13.000Z</Time>
            <Position>
              <LatitudeDegrees>42.98196318559348583221435546875</LatitudeDegrees>
              <LongitudeDegrees>-1.86613015830516815185546875</LongitudeDegrees>
            </Position>
            <AltitudeMeters>538.20001220703125</AltitudeMeters>
            <DistanceMeters>NAN</DistanceMeters>
          </Trackpoint>
          <Trackpoint>
            <Time>2021-08-14T10:15:15.000Z</Time>
            <Position>
              <LatitudeDegrees>42.98192898742854595184326171875</LatitudeDegrees>
              <LongitudeDegrees>-1.8660491891205310821533203125</LongitudeDegrees>
            </Position>
            <AltitudeMeters>538.20001220703125</AltitudeMeters>
            <DistanceMeters>NAN</DistanceMeters>
          </Trackpoint>
          <Trackpoint>
            <Time>2021-08-14T10:15:16.000Z</Time>
            <Position>
              <LatitudeDegrees>42.9819168336689472198486328125</LatitudeDegrees>
              <LongitudeDegrees>-1.866003759205341339111328125</LongitudeDegrees>
            </Position>
            <AltitudeMeters>538.20001220703125</AltitudeMeters>
            <DistanceMeters>NAN</DistanceMeters>
          </Trackpoint>
          <Trackpoint>
            <Time>2021-08-14T10:15:17.000Z</Time>
            <Position>
              <LatitudeDegrees>42.98190183006227016448974609375</LatitudeDegrees>
              <LongitudeDegrees>-1.86595036648213863372802734375</LongitudeDegrees>
            </Position>
            <AltitudeMeters>538</AltitudeMeters>
            <DistanceMeters>NAN</DistanceMeters>
          </Trackpoint>
          <Trackpoint>
            <Time>2021-08-14T10:15:18.000Z</Time>
            <Position>
              <LatitudeDegrees>42.98187978565692901611328125</LatitudeDegrees>
              <LongitudeDegrees>-1.8658889271318912506103515625</LongitudeDegrees>
            </Position>
            <AltitudeMeters>538</AltitudeMeters>
            <DistanceMeters>NAN</DistanceMeters>
          </Trackpoint>
          <Trackpoint>
            <Time>2021-08-14T10:15:20.000Z</Time>
            <Position>
              <LatitudeDegrees>42.98189613036811351776123046875</LatitudeDegrees>
              <LongitudeDegrees>-1.8657642044126987457275390625</LongitudeDegrees>
            </Position>
            <AltitudeMeters>537.79998779296875</AltitudeMeters>
            <DistanceMeters>NAN</DistanceMeters>
          </Trackpoint>
          <Trackpoint>
            <Time>2021-08-14T10:15:21.000Z</Time>
            <Position>
              <LatitudeDegrees>42.98188523389399051666259765625</LatitudeDegrees>
              <LongitudeDegrees>-1.86570142395794391632080078125</LongitudeDegrees>
            </Position>
            <AltitudeMeters>537.79998779296875</AltitudeMeters>
            <DistanceMeters>NAN</DistanceMeters>
          </Trackpoint>
          <Trackpoint>
            <Time>2021-08-14T10:15:22.000Z</Time>
            <Position>
              <LatitudeDegrees>42.98186847008764743804931640625</LatitudeDegrees>
              <LongitudeDegrees>-1.86564392410218715667724609375</LongitudeDegrees>
            </Position>
            <AltitudeMeters>537.5999755859375</AltitudeMeters>
            <DistanceMeters>NAN</DistanceMeters>
          </Trackpoint>
          <Trackpoint>
            <Time>2021-08-14T10:15:25.000Z</Time>
            <Position>
              <LatitudeDegrees>42.9818387143313884735107421875</LatitudeDegrees>
              <LongitudeDegrees>-1.86545600183308124542236328125</LongitudeDegrees>
            </Position>
            <AltitudeMeters>537.5999755859375</AltitudeMeters>
            <DistanceMeters>NAN</DistanceMeters>
          </Trackpoint>
          <Trackpoint>
            <Time>2021-08-14T10:15:26.000Z</Time>
            <Position>
              <LatitudeDegrees>42.9818370379507541656494140625</LatitudeDegrees>
              <LongitudeDegrees>-1.86539498157799243927001953125</LongitudeDegrees>
            </Position>
            <AltitudeMeters>537.4000244140625</AltitudeMeters>
            <DistanceMeters>NAN</DistanceMeters>
          </Trackpoint>
          <Trackpoint>
            <Time>2021-08-14T10:15:27.000Z</Time>
            <Position>
              <LatitudeDegrees>42.9818481020629405975341796875</LatitudeDegrees>
              <LongitudeDegrees>-1.8653316982090473175048828125</LongitudeDegrees>
            </Position>
            <AltitudeMeters>537</AltitudeMeters>
            <DistanceMeters>NAN</DistanceMeters>
          </Trackpoint>
          <Trackpoint>
            <Time>2021-08-14T10:15:28.000Z</Time>
            <Position>
              <LatitudeDegrees>42.98186947591602802276611328125</LatitudeDegrees>
              <LongitudeDegrees>-1.865266151726245880126953125</LongitudeDegrees>
            </Position>
            <AltitudeMeters>537</AltitudeMeters>
            <DistanceMeters>NAN</DistanceMeters>
          </Trackpoint>
          <Trackpoint>
            <Time>2021-08-14T10:15:29.000Z</Time>
            <Position>
              <LatitudeDegrees>42.9818997345864772796630859375</LatitudeDegrees>
              <LongitudeDegrees>-1.86521527357399463653564453125</LongitudeDegrees>
            </Position>
            <AltitudeMeters>536.79998779296875</AltitudeMeters>
            <DistanceMeters>NAN</DistanceMeters>
          </Trackpoint>
          <Trackpoint>
            <Time>2021-08-14T10:15:30.000Z</Time>
            <Position>
              <LatitudeDegrees>42.98191876150667667388916015625</LatitudeDegrees>
              <LongitudeDegrees>-1.8651771359145641326904296875</LongitudeDegrees>
            </Position>
            <AltitudeMeters>536.79998779296875</AltitudeMeters>
            <DistanceMeters>NAN</DistanceMeters>
          </Trackpoint>
          <Trackpoint>
            <Time>2021-08-14T10:15:31.000Z</Time>
            <Position>
              <LatitudeDegrees>42.9819449968636035919189453125</LatitudeDegrees>
              <LongitudeDegrees>-1.8651114217936992645263671875</LongitudeDegrees>
            </Position>
            <AltitudeMeters>536.79998779296875</AltitudeMeters>
            <DistanceMeters>NAN</DistanceMeters>
          </Trackpoint>
          <Trackpoint>
            <Time>2021-08-14T10:15:33.000Z</Time>
            <Position>
              <LatitudeDegrees>42.98196838237345218658447265625</LatitudeDegrees>
              <LongitudeDegrees>-1.8649699352681636810302734375</LongitudeDegrees>
            </Position>
            <AltitudeMeters>536.5999755859375</AltitudeMeters>
            <DistanceMeters>NAN</DistanceMeters>
          </Trackpoint>
          <Trackpoint>
            <Time>2021-08-14T10:15:34.000Z</Time>
            <Position>
              <LatitudeDegrees>42.9819755069911479949951171875</LatitudeDegrees>
              <LongitudeDegrees>-1.86489726416766643524169921875</LongitudeDegrees>
            </Position>
            <AltitudeMeters>536.4000244140625</AltitudeMeters>
            <DistanceMeters>NAN</DistanceMeters>
          </Trackpoint>
          <Trackpoint>
            <Time>2021-08-14T10:15:35.000Z</Time>
            <Position>
              <LatitudeDegrees>42.981971986591815948486328125</LatitudeDegrees>
              <LongitudeDegrees>-1.8648163788020610809326171875</LongitudeDegrees>
            </Position>
            <AltitudeMeters>536.4000244140625</AltitudeMeters>
            <DistanceMeters>NAN</DistanceMeters>
          </Trackpoint>
          <Trackpoint>
            <Time>2021-08-14T10:15:36.000Z</Time>
            <Position>
              <LatitudeDegrees>42.98195379786193370819091796875</LatitudeDegrees>
              <LongitudeDegrees>-1.8647468090057373046875</LongitudeDegrees>
            </Position>
            <AltitudeMeters>536.20001220703125</AltitudeMeters>
            <DistanceMeters>NAN</DistanceMeters>
          </Trackpoint>
          <Trackpoint>
            <Time>2021-08-14T10:15:37.000Z</Time>
            <Position>
              <LatitudeDegrees>42.9819225333631038665771484375</LatitudeDegrees>
              <LongitudeDegrees>-1.8646864593029022216796875</LongitudeDegrees>
            </Position>
            <AltitudeMeters>536.20001220703125</AltitudeMeters>
            <DistanceMeters>NAN</DistanceMeters>
          </Trackpoint>
          <Trackpoint>
            <Time>2021-08-14T10:15:38.000Z</Time>
            <Position>
              <LatitudeDegrees>42.981925047934055328369140625</LatitudeDegrees>
              <LongitudeDegrees>-1.86462183482944965362548828125</LongitudeDegrees>
            </Position>
            <AltitudeMeters>536</AltitudeMeters>
            <DistanceMeters>NAN</DistanceMeters>
          </Trackpoint>
          <Trackpoint>
            <Time>2021-08-14T10:15:39.000Z</Time>
            <Position>
              <LatitudeDegrees>42.98193451948463916778564453125</LatitudeDegrees>
              <LongitudeDegrees>-1.86455561779439449310302734375</LongitudeDegrees>
            </Position>
            <AltitudeMeters>536</AltitudeMeters>
            <DistanceMeters>NAN</DistanceMeters>
          </Trackpoint>
          <Trackpoint>
            <Time>2021-08-14T10:15:42.000Z</Time>
            <Position>
              <LatitudeDegrees>42.98192043788731098175048828125</LatitudeDegrees>
              <LongitudeDegrees>-1.86434389092028141021728515625</LongitudeDegrees>
            </Position>
            <AltitudeMeters>535.79998779296875</AltitudeMeters>
            <DistanceMeters>NAN</DistanceMeters>
          </Trackpoint>
          <Trackpoint>
            <Time>2021-08-14T10:15:44.000Z</Time>
            <Position>
              <LatitudeDegrees>42.98192060552537441253662109375</LatitudeDegrees>
              <LongitudeDegrees>-1.864212714135646820068359375</LongitudeDegrees>
            </Position>
            <AltitudeMeters>535.5999755859375</AltitudeMeters>
            <DistanceMeters>NAN</DistanceMeters>
          </Trackpoint>
          <Trackpoint>
            <Time>2021-08-14T10:15:45.000Z</Time>
            <Position>
              <LatitudeDegrees>42.9819339327514171600341796875</LatitudeDegrees>
              <LongitudeDegrees>-1.864144988358020782470703125</LongitudeDegrees>
            </Position>
            <AltitudeMeters>535.5999755859375</AltitudeMeters>
            <DistanceMeters>NAN</DistanceMeters>
          </Trackpoint>
          <Trackpoint>
            <Time>2021-08-14T10:15:46.000Z</Time>
            <Position>
              <LatitudeDegrees>42.98195748589932918548583984375</LatitudeDegrees>
              <LongitudeDegrees>-1.8640817888081073760986328125</LongitudeDegrees>
            </Position>
            <AltitudeMeters>535.4000244140625</AltitudeMeters>
            <DistanceMeters>NAN</DistanceMeters>
          </Trackpoint>
          <Trackpoint>
            <Time>2021-08-14T10:15:47.000Z</Time>
            <Position>
              <LatitudeDegrees>42.981954552233219146728515625</LatitudeDegrees>
              <LongitudeDegrees>-1.864018924534320831298828125</LongitudeDegrees>
            </Position>
            <AltitudeMeters>535.4000244140625</AltitudeMeters>
            <DistanceMeters>NAN</DistanceMeters>
          </Trackpoint>
          <Trackpoint>
            <Time>2021-08-14T10:15:48.000Z</Time>
            <Position>
              <LatitudeDegrees>42.9819796979427337646484375</LatitudeDegrees>
              <LongitudeDegrees>-1.86396301724016666412353515625</LongitudeDegrees>
            </Position>
            <AltitudeMeters>535.20001220703125</AltitudeMeters>
            <DistanceMeters>NAN</DistanceMeters>
          </Trackpoint>
          <Trackpoint>
            <Time>2021-08-14T10:15:49.000Z</Time>
            <Position>
              <LatitudeDegrees>42.98198900185525417327880859375</LatitudeDegrees>
              <LongitudeDegrees>-1.863907277584075927734375</LongitudeDegrees>
            </Position>
            <AltitudeMeters>535.20001220703125</AltitudeMeters>
            <DistanceMeters>NAN</DistanceMeters>
          </Trackpoint>
          <Trackpoint>
            <Time>2021-08-14T10:15:50.000Z</Time>
            <Position>
              <LatitudeDegrees>42.981984727084636688232421875</LatitudeDegrees>
              <LongitudeDegrees>-1.86385095119476318359375</LongitudeDegrees>
            </Position>
            <AltitudeMeters>535</AltitudeMeters>
            <DistanceMeters>NAN</DistanceMeters>
          </Trackpoint>
          <Trackpoint>
            <Time>2021-08-14T10:15:51.000Z</Time>
            <Position>
              <LatitudeDegrees>42.9819805361330509185791015625</LatitudeDegrees>
              <LongitudeDegrees>-1.8638021685183048248291015625</LongitudeDegrees>
            </Position>
            <AltitudeMeters>535</AltitudeMeters>
            <DistanceMeters>NAN</DistanceMeters>
          </Trackpoint>
          <Trackpoint>
            <Time>2021-08-14T10:15:52.000Z</Time>
            <Position>
              <LatitudeDegrees>42.98197575844824314117431640625</LatitudeDegrees>
              <LongitudeDegrees>-1.86375363729894161224365234375</LongitudeDegrees>
            </Position>
            <AltitudeMeters>535</AltitudeMeters>
            <DistanceMeters>NAN</DistanceMeters>
          </Trackpoint>
          <Trackpoint>
            <Time>2021-08-14T10:15:53.000Z</Time>
            <Position>
              <LatitudeDegrees>42.9819563962519168853759765625</LatitudeDegrees>
              <LongitudeDegrees>-1.8636994063854217529296875</LongitudeDegrees>
            </Position>
            <AltitudeMeters>535</AltitudeMeters>
            <DistanceMeters>NAN</DistanceMeters>
          </Trackpoint>
          <Trackpoint>
            <Time>2021-08-14T10:15:54.000Z</Time>
            <Position>
              <LatitudeDegrees>42.981946170330047607421875</LatitudeDegrees>
              <LongitudeDegrees>-1.86364785768091678619384765625</LongitudeDegrees>
            </Position>
            <AltitudeMeters>534.79998779296875</AltitudeMeters>
            <DistanceMeters>NAN</DistanceMeters>
          </Trackpoint>
          <Trackpoint>
            <Time>2021-08-14T10:15:55.000Z</Time>
            <Position>
              <LatitudeDegrees>42.9819302447140216827392578125</LatitudeDegrees>
              <LongitudeDegrees>-1.86360418796539306640625</LongitudeDegrees>
            </Position>
            <AltitudeMeters>534.79998779296875</AltitudeMeters>
            <DistanceMeters>NAN</DistanceMeters>
          </Trackpoint>
          <Trackpoint>
            <Time>2021-08-14T10:15:56.000Z</Time>
            <Position>
              <LatitudeDegrees>42.9819121398031711578369140625</LatitudeDegrees>
              <LongitudeDegrees>-1.86356219463050365447998046875</LongitudeDegrees>
            </Position>
            <AltitudeMeters>534.79998779296875</AltitudeMeters>
            <DistanceMeters>NAN</DistanceMeters>
          </Trackpoint>
          <Trackpoint>
            <Time>2021-08-14T10:15:57.000Z</Time>
            <Position>
              <LatitudeDegrees>42.9818987287580966949462890625</LatitudeDegrees>
              <LongitudeDegrees>-1.8635202012956142425537109375</LongitudeDegrees>
            </Position>
            <AltitudeMeters>534.79998779296875</AltitudeMeters>
            <DistanceMeters>NAN</DistanceMeters>
          </Trackpoint>
          <Trackpoint>
            <Time>2021-08-14T10:15:58.000Z</Time>
            <Position>
              <LatitudeDegrees>42.98188573680818080902099609375</LatitudeDegrees>
              <LongitudeDegrees>-1.86347736977040767669677734375</LongitudeDegrees>
            </Position>
            <AltitudeMeters>534.5999755859375</AltitudeMeters>
            <DistanceMeters>NAN</DistanceMeters>
          </Trackpoint>
          <Trackpoint>
            <Time>2021-08-14T10:15:59.000Z</Time>
            <Position>
              <LatitudeDegrees>42.981867380440235137939453125</LatitudeDegrees>
              <LongitudeDegrees>-1.8634397350251674652099609375</LongitudeDegrees>
            </Position>
            <AltitudeMeters>534.5999755859375</AltitudeMeters>
            <DistanceMeters>NAN</DistanceMeters>
          </Trackpoint>
          <Trackpoint>
            <Time>2021-08-14T10:16:00.000Z</Time>
            <Position>
              <LatitudeDegrees>42.98184868879616260528564453125</LatitudeDegrees>
              <LongitudeDegrees>-1.86340008862316608428955078125</LongitudeDegrees>
            </Position>
            <AltitudeMeters>534.5999755859375</AltitudeMeters>
            <DistanceMeters>NAN</DistanceMeters>
          </Trackpoint>
          <Trackpoint>
            <Time>2021-08-14T10:16:05.000Z</Time>
            <Position>
              <LatitudeDegrees>42.98173922114074230194091796875</LatitudeDegrees>
              <LongitudeDegrees>-1.86318668536841869354248046875</LongitudeDegrees>
            </Position>
            <AltitudeMeters>534.4000244140625</AltitudeMeters>
            <DistanceMeters>NAN</DistanceMeters>
          </Trackpoint>
          <Trackpoint>
            <Time>2021-08-14T10:16:06.000Z</Time>
            <Position>
              <LatitudeDegrees>42.98171943984925746917724609375</LatitudeDegrees>
              <LongitudeDegrees>-1.8631463684141635894775390625</LongitudeDegrees>
            </Position>
            <AltitudeMeters>534.4000244140625</AltitudeMeters>
            <DistanceMeters>NAN</DistanceMeters>
          </Trackpoint>
          <Trackpoint>
            <Time>2021-08-14T10:16:07.000Z</Time>
            <Position>
              <LatitudeDegrees>42.98169764690101146697998046875</LatitudeDegrees>
              <LongitudeDegrees>-1.86310554854571819305419921875</LongitudeDegrees>
            </Position>
            <AltitudeMeters>534.4000244140625</AltitudeMeters>
            <DistanceMeters>NAN</DistanceMeters>
          </Trackpoint>
          <Trackpoint>
            <Time>2021-08-14T10:16:08.000Z</Time>
            <Position>
              <LatitudeDegrees>42.98167585395276546478271484375</LatitudeDegrees>
              <LongitudeDegrees>-1.8630635552108287811279296875</LongitudeDegrees>
            </Position>
            <AltitudeMeters>534.20001220703125</AltitudeMeters>
            <DistanceMeters>NAN</DistanceMeters>
          </Trackpoint>
          <Trackpoint>
            <Time>2021-08-14T10:16:11.000Z</Time>
            <Position>
              <LatitudeDegrees>42.98161835409700870513916015625</LatitudeDegrees>
              <LongitudeDegrees>-1.86295450665056705474853515625</LongitudeDegrees>
            </Position>
            <AltitudeMeters>534.20001220703125</AltitudeMeters>
            <DistanceMeters>NAN</DistanceMeters>
          </Trackpoint>
          <Trackpoint>
            <Time>2021-08-14T10:16:13.000Z</Time>
            <Position>
              <LatitudeDegrees>42.98158474266529083251953125</LatitudeDegrees>
              <LongitudeDegrees>-1.86288007535040378570556640625</LongitudeDegrees>
            </Position>
            <AltitudeMeters>534</AltitudeMeters>
            <DistanceMeters>NAN</DistanceMeters>
          </Trackpoint>
          <Trackpoint>
            <Time>2021-08-14T10:16:14.000Z</Time>
            <Position>
              <LatitudeDegrees>42.9815678112208843231201171875</LatitudeDegrees>
              <LongitudeDegrees>-1.86284470371901988983154296875</LongitudeDegrees>
            </Position>
            <AltitudeMeters>534</AltitudeMeters>
            <DistanceMeters>NAN</DistanceMeters>
          </Trackpoint>
          <Trackpoint>
            <Time>2021-08-14T10:16:15.000Z</Time>
            <Position>
              <LatitudeDegrees>42.9815544001758098602294921875</LatitudeDegrees>
              <LongitudeDegrees>-1.86281754635274410247802734375</LongitudeDegrees>
            </Position>
            <AltitudeMeters>534</AltitudeMeters>
            <DistanceMeters>NAN</DistanceMeters>
          </Trackpoint>
          <Trackpoint>
            <Time>2021-08-14T10:16:16.000Z</Time>
            <Position>
              <LatitudeDegrees>42.98154090531170368194580078125</LatitudeDegrees>
              <LongitudeDegrees>-1.86277328990399837493896484375</LongitudeDegrees>
            </Position>
            <AltitudeMeters>534</AltitudeMeters>
            <DistanceMeters>NAN</DistanceMeters>
          </Trackpoint>
          <Trackpoint>
            <Time>2021-08-14T10:16:17.000Z</Time>
            <Position>
              <LatitudeDegrees>42.98151911236345767974853515625</LatitudeDegrees>
              <LongitudeDegrees>-1.862732805311679840087890625</LongitudeDegrees>
            </Position>
            <AltitudeMeters>533.79998779296875</AltitudeMeters>
            <DistanceMeters>NAN</DistanceMeters>
          </Trackpoint>
          <Trackpoint>
            <Time>2021-08-14T10:16:18.000Z</Time>
            <Position>
              <LatitudeDegrees>42.9814910329878330230712890625</LatitudeDegrees>
              <LongitudeDegrees>-1.862690560519695281982421875</LongitudeDegrees>
            </Position>
            <AltitudeMeters>533.79998779296875</AltitudeMeters>
            <DistanceMeters>NAN</DistanceMeters>
          </Trackpoint>
          <Trackpoint>
            <Time>2021-08-14T10:16:20.000Z</Time>
            <Position>
              <LatitudeDegrees>42.98144283704459667205810546875</LatitudeDegrees>
              <LongitudeDegrees>-1.8626162968575954437255859375</LongitudeDegrees>
            </Position>
            <AltitudeMeters>533.5999755859375</AltitudeMeters>
            <DistanceMeters>NAN</DistanceMeters>
          </Trackpoint>
          <Trackpoint>
            <Time>2021-08-14T10:16:23.000Z</Time>
            <Position>
              <LatitudeDegrees>42.9813881032168865203857421875</LatitudeDegrees>
              <LongitudeDegrees>-1.8625297956168651580810546875</LongitudeDegrees>
            </Position>
            <AltitudeMeters>533.4000244140625</AltitudeMeters>
            <DistanceMeters>NAN</DistanceMeters>
          </Trackpoint>
          <Trackpoint>
            <Time>2021-08-14T10:16:25.000Z</Time>
            <Position>
              <LatitudeDegrees>42.9813373088836669921875</LatitudeDegrees>
              <LongitudeDegrees>-1.86244153417646884918212890625</LongitudeDegrees>
            </Position>
            <AltitudeMeters>533.20001220703125</AltitudeMeters>
            <DistanceMeters>NAN</DistanceMeters>
          </Trackpoint>
          <Trackpoint>
            <Time>2021-08-14T10:16:31.000Z</Time>
            <Position>
              <LatitudeDegrees>42.98120512627065181732177734375</LatitudeDegrees>
              <LongitudeDegrees>-1.86222846619784832000732421875</LongitudeDegrees>
            </Position>
            <AltitudeMeters>533</AltitudeMeters>
            <DistanceMeters>NAN</DistanceMeters>
          </Trackpoint>
          <Trackpoint>
            <Time>2021-08-14T10:16:32.000Z</Time>
            <Position>
              <LatitudeDegrees>42.9811839200556278228759765625</LatitudeDegrees>
              <LongitudeDegrees>-1.86219871044158935546875</LongitudeDegrees>
            </Position>
            <AltitudeMeters>533</AltitudeMeters>
            <DistanceMeters>NAN</DistanceMeters>
          </Trackpoint>
          <Trackpoint>
            <Time>2021-08-14T10:16:33.000Z</Time>
            <Position>
              <LatitudeDegrees>42.98116137273609638214111328125</LatitudeDegrees>
              <LongitudeDegrees>-1.86217364855110645294189453125</LongitudeDegrees>
            </Position>
            <AltitudeMeters>533</AltitudeMeters>
            <DistanceMeters>NAN</DistanceMeters>
          </Trackpoint>
          <Trackpoint>
            <Time>2021-08-14T10:16:34.000Z</Time>
            <Position>
              <LatitudeDegrees>42.9811483807861804962158203125</LatitudeDegrees>
              <LongitudeDegrees>-1.8621544539928436279296875</LongitudeDegrees>
            </Position>
            <AltitudeMeters>533.20001220703125</AltitudeMeters>
            <DistanceMeters>NAN</DistanceMeters>
          </Trackpoint>
          <Trackpoint>
            <Time>2021-08-14T10:16:35.000Z</Time>
            <Position>
              <LatitudeDegrees>42.981130443513393402099609375</LatitudeDegrees>
              <LongitudeDegrees>-1.86213861219584941864013671875</LongitudeDegrees>
            </Position>
            <AltitudeMeters>533.20001220703125</AltitudeMeters>
            <DistanceMeters>NAN</DistanceMeters>
          </Trackpoint>
          <Trackpoint>
            <Time>2021-08-14T10:16:36.000Z</Time>
            <Position>
              <LatitudeDegrees>42.98110906966030597686767578125</LatitudeDegrees>
              <LongitudeDegrees>-1.86213123612105846405029296875</LongitudeDegrees>
            </Position>
            <AltitudeMeters>533.20001220703125</AltitudeMeters>
            <DistanceMeters>NAN</DistanceMeters>
          </Trackpoint>
          <Trackpoint>
            <Time>2021-08-14T10:16:37.000Z</Time>
            <Position>
              <LatitudeDegrees>42.9811078123748302459716796875</LatitudeDegrees>
              <LongitudeDegrees>-1.86212603934109210968017578125</LongitudeDegrees>
            </Position>
            <AltitudeMeters>533.20001220703125</AltitudeMeters>
            <DistanceMeters>NAN</DistanceMeters>
          </Trackpoint>
          <Trackpoint>
            <Time>2021-08-14T10:16:38.000Z</Time>
            <Position>
              <LatitudeDegrees>42.9811017774045467376708984375</LatitudeDegrees>
              <LongitudeDegrees>-1.8621200881898403167724609375</LongitudeDegrees>
            </Position>
            <AltitudeMeters>533.20001220703125</AltitudeMeters>
            <DistanceMeters>NAN</DistanceMeters>
          </Trackpoint>
          <Trackpoint>
            <Time>2021-08-14T10:16:39.000Z</Time>
            <Position>
              <LatitudeDegrees>42.98109079711139202117919921875</LatitudeDegrees>
              <LongitudeDegrees>-1.86210642568767070770263671875</LongitudeDegrees>
            </Position>
            <AltitudeMeters>533.20001220703125</AltitudeMeters>
            <DistanceMeters>NAN</DistanceMeters>
          </Trackpoint>
          <Trackpoint>
            <Time>2021-08-14T10:16:41.000Z</Time>
            <Position>
              <LatitudeDegrees>42.98107185401022434234619140625</LatitudeDegrees>
              <LongitudeDegrees>-1.86207641847431659698486328125</LongitudeDegrees>
            </Position>
            <AltitudeMeters>533.4000244140625</AltitudeMeters>
            <DistanceMeters>NAN</DistanceMeters>
          </Trackpoint>
          <Trackpoint>
            <Time>2021-08-14T10:16:42.000Z</Time>
            <Position>
              <LatitudeDegrees>42.98105928115546703338623046875</LatitudeDegrees>
              <LongitudeDegrees>-1.86205680482089519500732421875</LongitudeDegrees>
            </Position>
            <AltitudeMeters>533.4000244140625</AltitudeMeters>
            <DistanceMeters>NAN</DistanceMeters>
          </Trackpoint>
          <Trackpoint>
            <Time>2021-08-14T10:16:44.000Z</Time>
            <Position>
              <LatitudeDegrees>42.981031201779842376708984375</LatitudeDegrees>
              <LongitudeDegrees>-1.86201623640954494476318359375</LongitudeDegrees>
            </Position>
            <AltitudeMeters>533.4000244140625</AltitudeMeters>
            <DistanceMeters>NAN</DistanceMeters>
          </Trackpoint>
          <Trackpoint>
            <Time>2021-08-14T10:16:48.000Z</Time>
            <Position>
              <LatitudeDegrees>42.9809820838272571563720703125</LatitudeDegrees>
              <LongitudeDegrees>-1.86190173961222171783447265625</LongitudeDegrees>
            </Position>
            <AltitudeMeters>533.5999755859375</AltitudeMeters>
            <DistanceMeters>NAN</DistanceMeters>
          </Trackpoint>
          <Trackpoint>
            <Time>2021-08-14T10:16:50.000Z</Time>
            <Position>
              <LatitudeDegrees>42.98097780905663967132568359375</LatitudeDegrees>
              <LongitudeDegrees>-1.86183862388134002685546875</LongitudeDegrees>
            </Position>
            <AltitudeMeters>533.20001220703125</AltitudeMeters>
            <DistanceMeters>NAN</DistanceMeters>
          </Trackpoint>
          <Trackpoint>
            <Time>2021-08-14T10:16:53.000Z</Time>
            <Position>
              <LatitudeDegrees>42.980924583971500396728515625</LatitudeDegrees>
              <LongitudeDegrees>-1.8617546372115612030029296875</LongitudeDegrees>
            </Position>
            <AltitudeMeters>533.20001220703125</AltitudeMeters>
            <DistanceMeters>NAN</DistanceMeters>
          </Trackpoint>
          <Trackpoint>
            <Time>2021-08-14T10:16:54.000Z</Time>
            <Position>
              <LatitudeDegrees>42.98090840689837932586669921875</LatitudeDegrees>
              <LongitudeDegrees>-1.86172303743660449981689453125</LongitudeDegrees>
            </Position>
            <AltitudeMeters>533</AltitudeMeters>
            <DistanceMeters>NAN</DistanceMeters>
          </Trackpoint>
          <Trackpoint>
            <Time>2021-08-14T10:16:55.000Z</Time>
            <Position>
              <LatitudeDegrees>42.98090153373777866363525390625</LatitudeDegrees>
              <LongitudeDegrees>-1.86169118620455265045166015625</LongitudeDegrees>
            </Position>
            <AltitudeMeters>533</AltitudeMeters>
            <DistanceMeters>NAN</DistanceMeters>
          </Trackpoint>
          <Trackpoint>
            <Time>2021-08-14T10:16:56.000Z</Time>
            <Position>
              <LatitudeDegrees>42.980911172926425933837890625</LatitudeDegrees>
              <LongitudeDegrees>-1.861664615571498870849609375</LongitudeDegrees>
            </Position>
            <AltitudeMeters>533</AltitudeMeters>
            <DistanceMeters>NAN</DistanceMeters>
          </Trackpoint>
          <Trackpoint>
            <Time>2021-08-14T10:17:02.000Z</Time>
            <Position>
              <LatitudeDegrees>42.9807968437671661376953125</LatitudeDegrees>
              <LongitudeDegrees>-1.86145498417317867279052734375</LongitudeDegrees>
            </Position>
            <AltitudeMeters>532.5999755859375</AltitudeMeters>
            <DistanceMeters>NAN</DistanceMeters>
          </Trackpoint>
          <Trackpoint>
            <Time>2021-08-14T10:17:03.000Z</Time>
            <Position>
              <LatitudeDegrees>42.9807768948376178741455078125</LatitudeDegrees>
              <LongitudeDegrees>-1.8614267371594905853271484375</LongitudeDegrees>
            </Position>
            <AltitudeMeters>532.5999755859375</AltitudeMeters>
            <DistanceMeters>NAN</DistanceMeters>
          </Trackpoint>
          <Trackpoint>
            <Time>2021-08-14T10:17:04.000Z</Time>
            <Position>
              <LatitudeDegrees>42.9807592928409576416015625</LatitudeDegrees>
              <LongitudeDegrees>-1.86139781959354877471923828125</LongitudeDegrees>
            </Position>
            <AltitudeMeters>532.5999755859375</AltitudeMeters>
            <DistanceMeters>NAN</DistanceMeters>
          </Trackpoint>
          <Trackpoint>
            <Time>2021-08-14T10:17:05.000Z</Time>
            <Position>
              <LatitudeDegrees>42.980754263699054718017578125</LatitudeDegrees>
              <LongitudeDegrees>-1.8613730929791927337646484375</LongitudeDegrees>
            </Position>
            <AltitudeMeters>532.5999755859375</AltitudeMeters>
            <DistanceMeters>NAN</DistanceMeters>
          </Trackpoint>
          <Trackpoint>
            <Time>2021-08-14T10:17:06.000Z</Time>
            <Position>
              <LatitudeDegrees>42.98074948601424694061279296875</LatitudeDegrees>
              <LongitudeDegrees>-1.8613405711948871612548828125</LongitudeDegrees>
            </Position>
            <AltitudeMeters>532.5999755859375</AltitudeMeters>
            <DistanceMeters>NAN</DistanceMeters>
          </Trackpoint>
          <Trackpoint>
            <Time>2021-08-14T10:17:07.000Z</Time>
            <Position>
              <LatitudeDegrees>42.98074780963361263275146484375</LatitudeDegrees>
              <LongitudeDegrees>-1.8613110668957233428955078125</LongitudeDegrees>
            </Position>
            <AltitudeMeters>532.5999755859375</AltitudeMeters>
            <DistanceMeters>NAN</DistanceMeters>
          </Trackpoint>
          <Trackpoint>
            <Time>2021-08-14T10:17:08.000Z</Time>
            <Position>
              <LatitudeDegrees>42.98076407052576541900634765625</LatitudeDegrees>
              <LongitudeDegrees>-1.8612746894359588623046875</LongitudeDegrees>
            </Position>
            <AltitudeMeters>532.4000244140625</AltitudeMeters>
            <DistanceMeters>NAN</DistanceMeters>
          </Trackpoint>
          <Trackpoint>
            <Time>2021-08-14T10:17:09.000Z</Time>
            <Position>
              <LatitudeDegrees>42.980780415236949920654296875</LatitudeDegrees>
              <LongitudeDegrees>-1.8612306006252765655517578125</LongitudeDegrees>
            </Position>
            <AltitudeMeters>532.4000244140625</AltitudeMeters>
            <DistanceMeters>NAN</DistanceMeters>
          </Trackpoint>
          <Trackpoint>
            <Time>2021-08-14T10:17:12.000Z</Time>
            <Position>
              <LatitudeDegrees>42.9807517491281032562255859375</LatitudeDegrees>
              <LongitudeDegrees>-1.86109431087970733642578125</LongitudeDegrees>
            </Position>
            <AltitudeMeters>532.4000244140625</AltitudeMeters>
            <DistanceMeters>NAN</DistanceMeters>
          </Trackpoint>
          <Trackpoint>
            <Time>2021-08-14T10:17:13.000Z</Time>
            <Position>
              <LatitudeDegrees>42.9807426966726779937744140625</LatitudeDegrees>
              <LongitudeDegrees>-1.861045695841312408447265625</LongitudeDegrees>
            </Position>
            <AltitudeMeters>532.20001220703125</AltitudeMeters>
            <DistanceMeters>NAN</DistanceMeters>
          </Trackpoint>
          <Trackpoint>
            <Time>2021-08-14T10:17:14.000Z</Time>
            <Position>
              <LatitudeDegrees>42.9807319678366184234619140625</LatitudeDegrees>
              <LongitudeDegrees>-1.8609989248216152191162109375</LongitudeDegrees>
            </Position>
            <AltitudeMeters>532.20001220703125</AltitudeMeters>
            <DistanceMeters>NAN</DistanceMeters>
          </Trackpoint>
          <Trackpoint>
            <Time>2021-08-14T10:17:15.000Z</Time>
            <Position>
              <LatitudeDegrees>42.980721406638622283935546875</LatitudeDegrees>
              <LongitudeDegrees>-1.8609523214399814605712890625</LongitudeDegrees>
            </Position>
            <AltitudeMeters>532.20001220703125</AltitudeMeters>
            <DistanceMeters>NAN</DistanceMeters>
          </Trackpoint>
          <Trackpoint>
            <Time>2021-08-14T10:17:16.000Z</Time>
            <Position>
              <LatitudeDegrees>42.980712689459323883056640625</LatitudeDegrees>
              <LongitudeDegrees>-1.86090865172445774078369140625</LongitudeDegrees>
            </Position>
            <AltitudeMeters>532</AltitudeMeters>
            <DistanceMeters>NAN</DistanceMeters>
          </Trackpoint>
          <Trackpoint>
            <Time>2021-08-14T10:17:18.000Z</Time>
            <Position>
              <LatitudeDegrees>42.98069785349071025848388671875</LatitudeDegrees>
              <LongitudeDegrees>-1.8608222343027591705322265625</LongitudeDegrees>
            </Position>
            <AltitudeMeters>532</AltitudeMeters>
            <DistanceMeters>NAN</DistanceMeters>
          </Trackpoint>
          <Trackpoint>
            <Time>2021-08-14T10:17:22.000Z</Time>
            <Position>
              <LatitudeDegrees>42.98067706637084484100341796875</LatitudeDegrees>
              <LongitudeDegrees>-1.86065233312547206878662109375</LongitudeDegrees>
            </Position>
            <AltitudeMeters>532</AltitudeMeters>
            <DistanceMeters>NAN</DistanceMeters>
          </Trackpoint>
          <Trackpoint>
            <Time>2021-08-14T10:17:23.000Z</Time>
            <Position>
              <LatitudeDegrees>42.980671115219593048095703125</LatitudeDegrees>
              <LongitudeDegrees>-1.8606143631041049957275390625</LongitudeDegrees>
            </Position>
            <AltitudeMeters>532</AltitudeMeters>
            <DistanceMeters>NAN</DistanceMeters>
          </Trackpoint>
          <Trackpoint>
            <Time>2021-08-14T10:17:24.000Z</Time>
            <Position>
              <LatitudeDegrees>42.98065946437418460845947265625</LatitudeDegrees>
              <LongitudeDegrees>-1.8605691008269786834716796875</LongitudeDegrees>
            </Position>
            <AltitudeMeters>532</AltitudeMeters>
            <DistanceMeters>NAN</DistanceMeters>
          </Trackpoint>
          <Trackpoint>
            <Time>2021-08-14T10:17:25.000Z</Time>
            <Position>
              <LatitudeDegrees>42.9806521721184253692626953125</LatitudeDegrees>
              <LongitudeDegrees>-1.860528700053691864013671875</LongitudeDegrees>
            </Position>
            <AltitudeMeters>531.79998779296875</AltitudeMeters>
            <DistanceMeters>NAN</DistanceMeters>
          </Trackpoint>
          <Trackpoint>
            <Time>2021-08-14T10:17:26.000Z</Time>
            <Position>
              <LatitudeDegrees>42.98064823262393474578857421875</LatitudeDegrees>
              <LongitudeDegrees>-1.86048989184200763702392578125</LongitudeDegrees>
            </Position>
            <AltitudeMeters>531.79998779296875</AltitudeMeters>
            <DistanceMeters>NAN</DistanceMeters>
          </Trackpoint>
          <Trackpoint>
            <Time>2021-08-14T10:17:27.000Z</Time>
            <Position>
              <LatitudeDegrees>42.98064152710139751434326171875</LatitudeDegrees>
              <LongitudeDegrees>-1.86045267619192600250244140625</LongitudeDegrees>
            </Position>
            <AltitudeMeters>531.79998779296875</AltitudeMeters>
            <DistanceMeters>NAN</DistanceMeters>
          </Trackpoint>
          <Trackpoint>
            <Time>2021-08-14T10:17:28.000Z</Time>
            <Position>
              <LatitudeDegrees>42.98063498921692371368408203125</LatitudeDegrees>
              <LongitudeDegrees>-1.8604165501892566680908203125</LongitudeDegrees>
            </Position>
            <AltitudeMeters>531.79998779296875</AltitudeMeters>
            <DistanceMeters>NAN</DistanceMeters>
          </Trackpoint>
          <Trackpoint>
            <Time>2021-08-14T10:17:29.000Z</Time>
            <Position>
              <LatitudeDegrees>42.9806292057037353515625</LatitudeDegrees>
              <LongitudeDegrees>-1.86038159765303134918212890625</LongitudeDegrees>
            </Position>
            <AltitudeMeters>531.79998779296875</AltitudeMeters>
            <DistanceMeters>NAN</DistanceMeters>
          </Trackpoint>
          <Trackpoint>
            <Time>2021-08-14T10:17:30.000Z</Time>
            <Position>
              <LatitudeDegrees>42.98062124289572238922119140625</LatitudeDegrees>
              <LongitudeDegrees>-1.8603468127548694610595703125</LongitudeDegrees>
            </Position>
            <AltitudeMeters>531.79998779296875</AltitudeMeters>
            <DistanceMeters>NAN</DistanceMeters>
          </Trackpoint>
          <Trackpoint>
            <Time>2021-08-14T10:17:31.000Z</Time>
            <Position>
              <LatitudeDegrees>42.98061311244964599609375</LatitudeDegrees>
              <LongitudeDegrees>-1.860310100018978118896484375</LongitudeDegrees>
            </Position>
            <AltitudeMeters>531.79998779296875</AltitudeMeters>
            <DistanceMeters>NAN</DistanceMeters>
          </Trackpoint>
          <Trackpoint>
            <Time>2021-08-14T10:17:32.000Z</Time>
            <Position>
              <LatitudeDegrees>42.98061571083962917327880859375</LatitudeDegrees>
              <LongitudeDegrees>-1.860272884368896484375</LongitudeDegrees>
            </Position>
            <AltitudeMeters>531.79998779296875</AltitudeMeters>
            <DistanceMeters>NAN</DistanceMeters>
          </Trackpoint>
          <Trackpoint>
            <Time>2021-08-14T10:17:33.000Z</Time>
            <Position>
              <LatitudeDegrees>42.980622164905071258544921875</LatitudeDegrees>
              <LongitudeDegrees>-1.8602339923381805419921875</LongitudeDegrees>
            </Position>
            <AltitudeMeters>531.79998779296875</AltitudeMeters>
            <DistanceMeters>NAN</DistanceMeters>
          </Trackpoint>
          <Trackpoint>
            <Time>2021-08-14T10:17:34.000Z</Time>
            <Position>
              <LatitudeDegrees>42.980620153248310089111328125</LatitudeDegrees>
              <LongitudeDegrees>-1.86019711196422576904296875</LongitudeDegrees>
            </Position>
            <AltitudeMeters>531.5999755859375</AltitudeMeters>
            <DistanceMeters>NAN</DistanceMeters>
          </Trackpoint>
          <Trackpoint>
            <Time>2021-08-14T10:17:35.000Z</Time>
            <Position>
              <LatitudeDegrees>42.98061068169772624969482421875</LatitudeDegrees>
              <LongitudeDegrees>-1.860166601836681365966796875</LongitudeDegrees>
            </Position>
            <AltitudeMeters>531.5999755859375</AltitudeMeters>
            <DistanceMeters>NAN</DistanceMeters>
          </Trackpoint>
          <Trackpoint>
            <Time>2021-08-14T10:17:36.000Z</Time>
            <Position>
              <LatitudeDegrees>42.98060196451842784881591796875</LatitudeDegrees>
              <LongitudeDegrees>-1.86013634316623210906982421875</LongitudeDegrees>
            </Position>
            <AltitudeMeters>531.5999755859375</AltitudeMeters>
            <DistanceMeters>NAN</DistanceMeters>
          </Trackpoint>
          <Trackpoint>
            <Time>2021-08-14T10:17:37.000Z</Time>
            <Position>
              <LatitudeDegrees>42.98059257678687572479248046875</LatitudeDegrees>
              <LongitudeDegrees>-1.86010633595287799835205078125</LongitudeDegrees>
            </Position>
            <AltitudeMeters>531.5999755859375</AltitudeMeters>
            <DistanceMeters>NAN</DistanceMeters>
          </Trackpoint>
          <Trackpoint>
            <Time>2021-08-14T10:17:38.000Z</Time>
            <Position>
              <LatitudeDegrees>42.980583608150482177734375</LatitudeDegrees>
              <LongitudeDegrees>-1.86008152551949024200439453125</LongitudeDegrees>
            </Position>
            <AltitudeMeters>531.4000244140625</AltitudeMeters>
            <DistanceMeters>NAN</DistanceMeters>
          </Trackpoint>
          <Trackpoint>
            <Time>2021-08-14T10:17:39.000Z</Time>
            <Position>
              <LatitudeDegrees>42.9805700294673442840576171875</LatitudeDegrees>
              <LongitudeDegrees>-1.86004615388810634613037109375</LongitudeDegrees>
            </Position>
            <AltitudeMeters>531.4000244140625</AltitudeMeters>
            <DistanceMeters>NAN</DistanceMeters>
          </Trackpoint>
          <Trackpoint>
            <Time>2021-08-14T10:17:41.000Z</Time>
            <Position>
              <LatitudeDegrees>42.98053842969238758087158203125</LatitudeDegrees>
              <LongitudeDegrees>-1.85998932458460330963134765625</LongitudeDegrees>
            </Position>
            <AltitudeMeters>531.4000244140625</AltitudeMeters>
            <DistanceMeters>NAN</DistanceMeters>
          </Trackpoint>
          <Trackpoint>
            <Time>2021-08-14T10:17:42.000Z</Time>
            <Position>
              <LatitudeDegrees>42.9805224202573299407958984375</LatitudeDegrees>
              <LongitudeDegrees>-1.85996367596089839935302734375</LongitudeDegrees>
            </Position>
            <AltitudeMeters>531.4000244140625</AltitudeMeters>
            <DistanceMeters>NAN</DistanceMeters>
          </Trackpoint>
          <Trackpoint>
            <Time>2021-08-14T10:17:43.000Z</Time>
            <Position>
              <LatitudeDegrees>42.9805086739361286163330078125</LatitudeDegrees>
              <LongitudeDegrees>-1.8599371053278446197509765625</LongitudeDegrees>
            </Position>
            <AltitudeMeters>531.4000244140625</AltitudeMeters>
            <DistanceMeters>NAN</DistanceMeters>
          </Trackpoint>
          <Trackpoint>
            <Time>2021-08-14T10:17:44.000Z</Time>
            <Position>
              <LatitudeDegrees>42.9804991185665130615234375</LatitudeDegrees>
              <LongitudeDegrees>-1.8599156476557254791259765625</LongitudeDegrees>
            </Position>
            <AltitudeMeters>531.4000244140625</AltitudeMeters>
            <DistanceMeters>NAN</DistanceMeters>
          </Trackpoint>
          <Trackpoint>
            <Time>2021-08-14T10:17:45.000Z</Time>
            <Position>
              <LatitudeDegrees>42.98048160038888454437255859375</LatitudeDegrees>
              <LongitudeDegrees>-1.85988622717559337615966796875</LongitudeDegrees>
            </Position>
            <AltitudeMeters>531.4000244140625</AltitudeMeters>
            <DistanceMeters>NAN</DistanceMeters>
          </Trackpoint>
          <Trackpoint>
            <Time>2021-08-14T10:17:46.000Z</Time>
            <Position>
              <LatitudeDegrees>42.98046735115349292755126953125</LatitudeDegrees>
              <LongitudeDegrees>-1.85986929573118686676025390625</LongitudeDegrees>
            </Position>
            <AltitudeMeters>531.20001220703125</AltitudeMeters>
            <DistanceMeters>NAN</DistanceMeters>
          </Trackpoint>
          <Trackpoint>
            <Time>2021-08-14T10:17:47.000Z</Time>
            <Position>
              <LatitudeDegrees>42.9804614000022411346435546875</LatitudeDegrees>
              <LongitudeDegrees>-1.85984616167843341827392578125</LongitudeDegrees>
            </Position>
            <AltitudeMeters>531.20001220703125</AltitudeMeters>
            <DistanceMeters>NAN</DistanceMeters>
          </Trackpoint>
          <Trackpoint>
            <Time>2021-08-14T10:17:48.000Z</Time>
            <Position>
              <LatitudeDegrees>42.98045595176517963409423828125</LatitudeDegrees>
              <LongitudeDegrees>-1.85982487164437770843505859375</LongitudeDegrees>
            </Position>
            <AltitudeMeters>531.20001220703125</AltitudeMeters>
            <DistanceMeters>NAN</DistanceMeters>
          </Trackpoint>
          <Trackpoint>
            <Time>2021-08-14T10:17:49.000Z</Time>
            <Position>
              <LatitudeDegrees>42.9804523475468158721923828125</LatitudeDegrees>
              <LongitudeDegrees>-1.8597969599068164825439453125</LongitudeDegrees>
            </Position>
            <AltitudeMeters>531.20001220703125</AltitudeMeters>
            <DistanceMeters>NAN</DistanceMeters>
          </Trackpoint>
          <Trackpoint>
            <Time>2021-08-14T10:17:50.000Z</Time>
            <Position>
              <LatitudeDegrees>42.98043415881693363189697265625</LatitudeDegrees>
              <LongitudeDegrees>-1.85976955108344554901123046875</LongitudeDegrees>
            </Position>
            <AltitudeMeters>531.20001220703125</AltitudeMeters>
            <DistanceMeters>NAN</DistanceMeters>
          </Trackpoint>
          <Trackpoint>
            <Time>2021-08-14T10:17:51.000Z</Time>
            <Position>
              <LatitudeDegrees>42.9804204963147640228271484375</LatitudeDegrees>
              <LongitudeDegrees>-1.8597510270774364471435546875</LongitudeDegrees>
            </Position>
            <AltitudeMeters>531.20001220703125</AltitudeMeters>
            <DistanceMeters>NAN</DistanceMeters>
          </Trackpoint>
          <Trackpoint>
            <Time>2021-08-14T10:17:52.000Z</Time>
            <Position>
              <LatitudeDegrees>42.980406582355499267578125</LatitudeDegrees>
              <LongitudeDegrees>-1.859728731215000152587890625</LongitudeDegrees>
            </Position>
            <AltitudeMeters>531.20001220703125</AltitudeMeters>
            <DistanceMeters>NAN</DistanceMeters>
          </Trackpoint>
          <Trackpoint>
            <Time>2021-08-14T10:17:53.000Z</Time>
            <Position>
              <LatitudeDegrees>42.98040130175650119781494140625</LatitudeDegrees>
              <LongitudeDegrees>-1.85970517806708812713623046875</LongitudeDegrees>
            </Position>
            <AltitudeMeters>531.20001220703125</AltitudeMeters>
            <DistanceMeters>NAN</DistanceMeters>
          </Trackpoint>
          <Trackpoint>
            <Time>2021-08-14T10:17:54.000Z</Time>
            <Position>
              <LatitudeDegrees>42.9803950153291225433349609375</LatitudeDegrees>
              <LongitudeDegrees>-1.859675757586956024169921875</LongitudeDegrees>
            </Position>
            <AltitudeMeters>531.20001220703125</AltitudeMeters>
            <DistanceMeters>NAN</DistanceMeters>
          </Trackpoint>
          <Trackpoint>
            <Time>2021-08-14T10:17:55.000Z</Time>
            <Position>
              <LatitudeDegrees>42.9803946800529956817626953125</LatitudeDegrees>
              <LongitudeDegrees>-1.8596648611128330230712890625</LongitudeDegrees>
            </Position>
            <AltitudeMeters>531.20001220703125</AltitudeMeters>
            <DistanceMeters>NAN</DistanceMeters>
          </Trackpoint>
          <Trackpoint>
            <Time>2021-08-14T10:17:56.000Z</Time>
            <Position>
              <LatitudeDegrees>42.980393506586551666259765625</LatitudeDegrees>
              <LongitudeDegrees>-1.85965656302869319915771484375</LongitudeDegrees>
            </Position>
            <AltitudeMeters>531.20001220703125</AltitudeMeters>
            <DistanceMeters>NAN</DistanceMeters>
          </Trackpoint>
          <Trackpoint>
            <Time>2021-08-14T10:17:57.000Z</Time>
            <Position>
              <LatitudeDegrees>42.980385124683380126953125</LatitudeDegrees>
              <LongitudeDegrees>-1.85963611118495464324951171875</LongitudeDegrees>
            </Position>
            <AltitudeMeters>531.20001220703125</AltitudeMeters>
            <DistanceMeters>NAN</DistanceMeters>
          </Trackpoint>
          <Trackpoint>
            <Time>2021-08-14T10:17:58.000Z</Time>
            <Position>
              <LatitudeDegrees>42.98038219101727008819580078125</LatitudeDegrees>
              <LongitudeDegrees>-1.8596159107983112335205078125</LongitudeDegrees>
            </Position>
            <AltitudeMeters>531.20001220703125</AltitudeMeters>
            <DistanceMeters>NAN</DistanceMeters>
          </Trackpoint>
          <Trackpoint>
            <Time>2021-08-14T10:17:59.000Z</Time>
            <Position>
              <LatitudeDegrees>42.98038470558822154998779296875</LatitudeDegrees>
              <LongitudeDegrees>-1.85959302820265293121337890625</LongitudeDegrees>
            </Position>
            <AltitudeMeters>531.20001220703125</AltitudeMeters>
            <DistanceMeters>NAN</DistanceMeters>
          </Trackpoint>
          <Trackpoint>
            <Time>2021-08-14T10:18:00.000Z</Time>
            <Position>
              <LatitudeDegrees>42.980390824377536773681640625</LatitudeDegrees>
              <LongitudeDegrees>-1.859566457569599151611328125</LongitudeDegrees>
            </Position>
            <AltitudeMeters>531</AltitudeMeters>
            <DistanceMeters>NAN</DistanceMeters>
          </Trackpoint>
          <Trackpoint>
            <Time>2021-08-14T10:18:01.000Z</Time>
            <Position>
              <LatitudeDegrees>42.98038604669272899627685546875</LatitudeDegrees>
              <LongitudeDegrees>-1.85956302098929882049560546875</LongitudeDegrees>
            </Position>
            <AltitudeMeters>531</AltitudeMeters>
            <DistanceMeters>NAN</DistanceMeters>
          </Trackpoint>
          <Trackpoint>
            <Time>2021-08-14T10:18:02.000Z</Time>
            <Position>
              <LatitudeDegrees>42.98038453795015811920166015625</LatitudeDegrees>
              <LongitudeDegrees>-1.85955966822803020477294921875</LongitudeDegrees>
            </Position>
            <AltitudeMeters>531</AltitudeMeters>
            <DistanceMeters>NAN</DistanceMeters>
          </Trackpoint>
          <Trackpoint>
            <Time>2021-08-14T10:18:03.000Z</Time>
            <Position>
              <LatitudeDegrees>42.98038219101727008819580078125</LatitudeDegrees>
              <LongitudeDegrees>-1.85955413617193698883056640625</LongitudeDegrees>
            </Position>
            <AltitudeMeters>531</AltitudeMeters>
            <DistanceMeters>NAN</DistanceMeters>
          </Trackpoint>
          <Trackpoint>
            <Time>2021-08-14T10:18:06.000Z</Time>
            <Position>
              <LatitudeDegrees>42.98033642582595348358154296875</LatitudeDegrees>
              <LongitudeDegrees>-1.85946780256927013397216796875</LongitudeDegrees>
            </Position>
            <AltitudeMeters>531.20001220703125</AltitudeMeters>
            <DistanceMeters>NAN</DistanceMeters>
          </Trackpoint>
          <Trackpoint>
            <Time>2021-08-14T10:18:10.000Z</Time>
            <Position>
              <LatitudeDegrees>42.98026819713413715362548828125</LatitudeDegrees>
              <LongitudeDegrees>-1.8593476898968219757080078125</LongitudeDegrees>
            </Position>
            <AltitudeMeters>531.4000244140625</AltitudeMeters>
            <DistanceMeters>NAN</DistanceMeters>
          </Trackpoint>
          <Trackpoint>
            <Time>2021-08-14T10:18:13.000Z</Time>
            <Position>
              <LatitudeDegrees>42.98020818270742893218994140625</LatitudeDegrees>
              <LongitudeDegrees>-1.85925674624741077423095703125</LongitudeDegrees>
            </Position>
            <AltitudeMeters>531.4000244140625</AltitudeMeters>
            <DistanceMeters>NAN</DistanceMeters>
          </Trackpoint>
          <Trackpoint>
            <Time>2021-08-14T10:18:18.000Z</Time>
            <Position>
              <LatitudeDegrees>42.98011279664933681488037109375</LatitudeDegrees>
              <LongitudeDegrees>-1.85910201631486415863037109375</LongitudeDegrees>
            </Position>
            <AltitudeMeters>531.4000244140625</AltitudeMeters>
            <DistanceMeters>NAN</DistanceMeters>
          </Trackpoint>
          <Trackpoint>
            <Time>2021-08-14T10:18:24.000Z</Time>
            <Position>
              <LatitudeDegrees>42.979993857443332672119140625</LatitudeDegrees>
              <LongitudeDegrees>-1.85888593085110187530517578125</LongitudeDegrees>
            </Position>
            <AltitudeMeters>531.20001220703125</AltitudeMeters>
            <DistanceMeters>NAN</DistanceMeters>
          </Trackpoint>
          <Trackpoint>
            <Time>2021-08-14T10:18:29.000Z</Time>
            <Position>
              <LatitudeDegrees>42.97985329292714595794677734375</LatitudeDegrees>
              <LongitudeDegrees>-1.85868275351822376251220703125</LongitudeDegrees>
            </Position>
            <AltitudeMeters>530.79998779296875</AltitudeMeters>
            <DistanceMeters>NAN</DistanceMeters>
          </Trackpoint>
          <Trackpoint>
            <Time>2021-08-14T10:18:36.000Z</Time>
            <Position>
              <LatitudeDegrees>42.97963418997824192047119140625</LatitudeDegrees>
              <LongitudeDegrees>-1.85840330086648464202880859375</LongitudeDegrees>
            </Position>
            <AltitudeMeters>530.20001220703125</AltitudeMeters>
            <DistanceMeters>NAN</DistanceMeters>
          </Trackpoint>
          <Trackpoint>
            <Time>2021-08-14T10:18:37.000Z</Time>
            <Position>
              <LatitudeDegrees>42.9796067811548709869384765625</LatitudeDegrees>
              <LongitudeDegrees>-1.85835979878902435302734375</LongitudeDegrees>
            </Position>
            <AltitudeMeters>530.20001220703125</AltitudeMeters>
            <DistanceMeters>NAN</DistanceMeters>
          </Trackpoint>
          <Trackpoint>
            <Time>2021-08-14T10:18:38.000Z</Time>
            <Position>
              <LatitudeDegrees>42.97958515584468841552734375</LatitudeDegrees>
              <LongitudeDegrees>-1.8583187274634838104248046875</LongitudeDegrees>
            </Position>
            <AltitudeMeters>530.20001220703125</AltitudeMeters>
            <DistanceMeters>NAN</DistanceMeters>
          </Trackpoint>
          <Trackpoint>
            <Time>2021-08-14T10:18:39.000Z</Time>
            <Position>
              <LatitudeDegrees>42.9795521311461925506591796875</LatitudeDegrees>
              <LongitudeDegrees>-1.858270280063152313232421875</LongitudeDegrees>
            </Position>
            <AltitudeMeters>530</AltitudeMeters>
            <DistanceMeters>NAN</DistanceMeters>
          </Trackpoint>
          <Trackpoint>
            <Time>2021-08-14T10:18:40.000Z</Time>
            <Position>
              <LatitudeDegrees>42.97953017055988311767578125</LatitudeDegrees>
              <LongitudeDegrees>-1.8582276999950408935546875</LongitudeDegrees>
            </Position>
            <AltitudeMeters>529.79998779296875</AltitudeMeters>
            <DistanceMeters>NAN</DistanceMeters>
          </Trackpoint>
          <Trackpoint>
            <Time>2021-08-14T10:18:41.000Z</Time>
            <Position>
              <LatitudeDegrees>42.97950376756489276885986328125</LatitudeDegrees>
              <LongitudeDegrees>-1.85818738304078578948974609375</LongitudeDegrees>
            </Position>
            <AltitudeMeters>529.79998779296875</AltitudeMeters>
            <DistanceMeters>NAN</DistanceMeters>
          </Trackpoint>
          <Trackpoint>
            <Time>2021-08-14T10:18:45.000Z</Time>
            <Position>
              <LatitudeDegrees>42.9794020950794219970703125</LatitudeDegrees>
              <LongitudeDegrees>-1.85800700448453426361083984375</LongitudeDegrees>
            </Position>
            <AltitudeMeters>529.5999755859375</AltitudeMeters>
            <DistanceMeters>NAN</DistanceMeters>
          </Trackpoint>
          <Trackpoint>
            <Time>2021-08-14T10:18:46.000Z</Time>
            <Position>
              <LatitudeDegrees>42.97937250696122646331787109375</LatitudeDegrees>
              <LongitudeDegrees>-1.85797062702476978302001953125</LongitudeDegrees>
            </Position>
            <AltitudeMeters>529.5999755859375</AltitudeMeters>
            <DistanceMeters>NAN</DistanceMeters>
          </Trackpoint>
          <Trackpoint>
            <Time>2021-08-14T10:18:49.000Z</Time>
            <Position>
              <LatitudeDegrees>42.97931165434420108795166015625</LatitudeDegrees>
              <LongitudeDegrees>-1.85784481465816497802734375</LongitudeDegrees>
            </Position>
            <AltitudeMeters>529.4000244140625</AltitudeMeters>
            <DistanceMeters>NAN</DistanceMeters>
          </Trackpoint>
          <Trackpoint>
            <Time>2021-08-14T10:18:50.000Z</Time>
            <Position>
              <LatitudeDegrees>42.97929204069077968597412109375</LatitudeDegrees>
              <LongitudeDegrees>-1.85780617408454418182373046875</LongitudeDegrees>
            </Position>
            <AltitudeMeters>529.4000244140625</AltitudeMeters>
            <DistanceMeters>NAN</DistanceMeters>
          </Trackpoint>
          <Trackpoint>
            <Time>2021-08-14T10:18:53.000Z</Time>
            <Position>
              <LatitudeDegrees>42.97920696437358856201171875</LatitudeDegrees>
              <LongitudeDegrees>-1.85768161900341510772705078125</LongitudeDegrees>
            </Position>
            <AltitudeMeters>529.20001220703125</AltitudeMeters>
            <DistanceMeters>NAN</DistanceMeters>
          </Trackpoint>
          <Trackpoint>
            <Time>2021-08-14T10:18:55.000Z</Time>
            <Position>
              <LatitudeDegrees>42.97915072180330753326416015625</LatitudeDegrees>
              <LongitudeDegrees>-1.8575868196785449981689453125</LongitudeDegrees>
            </Position>
            <AltitudeMeters>528.79998779296875</AltitudeMeters>
            <DistanceMeters>NAN</DistanceMeters>
          </Trackpoint>
          <Trackpoint>
            <Time>2021-08-14T10:18:56.000Z</Time>
            <Position>
              <LatitudeDegrees>42.9791172780096530914306640625</LatitudeDegrees>
              <LongitudeDegrees>-1.85753644444048404693603515625</LongitudeDegrees>
            </Position>
            <AltitudeMeters>528.5999755859375</AltitudeMeters>
            <DistanceMeters>NAN</DistanceMeters>
          </Trackpoint>
          <Trackpoint>
            <Time>2021-08-14T10:19:00.000Z</Time>
            <Position>
              <LatitudeDegrees>42.9789841733872890472412109375</LatitudeDegrees>
              <LongitudeDegrees>-1.8573605082929134368896484375</LongitudeDegrees>
            </Position>
            <AltitudeMeters>528.20001220703125</AltitudeMeters>
            <DistanceMeters>NAN</DistanceMeters>
          </Trackpoint>
          <Trackpoint>
            <Time>2021-08-14T10:19:02.000Z</Time>
            <Position>
              <LatitudeDegrees>42.9789285175502300262451171875</LatitudeDegrees>
              <LongitudeDegrees>-1.8572646193206310272216796875</LongitudeDegrees>
            </Position>
            <AltitudeMeters>528.20001220703125</AltitudeMeters>
            <DistanceMeters>NAN</DistanceMeters>
          </Trackpoint>
          <Trackpoint>
            <Time>2021-08-14T10:19:03.000Z</Time>
            <Position>
              <LatitudeDegrees>42.97890244983136653900146484375</LatitudeDegrees>
              <LongitudeDegrees>-1.8572113104164600372314453125</LongitudeDegrees>
            </Position>
            <AltitudeMeters>528.20001220703125</AltitudeMeters>
            <DistanceMeters>NAN</DistanceMeters>
          </Trackpoint>
          <Trackpoint>
            <Time>2021-08-14T10:19:04.000Z</Time>
            <Position>
              <LatitudeDegrees>42.97887437045574188232421875</LatitudeDegrees>
              <LongitudeDegrees>-1.85716562904417514801025390625</LongitudeDegrees>
            </Position>
            <AltitudeMeters>528</AltitudeMeters>
            <DistanceMeters>NAN</DistanceMeters>
          </Trackpoint>
          <Trackpoint>
            <Time>2021-08-14T10:19:06.000Z</Time>
            <Position>
              <LatitudeDegrees>42.9788162000477313995361328125</LatitudeDegrees>
              <LongitudeDegrees>-1.8570906110107898712158203125</LongitudeDegrees>
            </Position>
            <AltitudeMeters>528</AltitudeMeters>
            <DistanceMeters>NAN</DistanceMeters>
          </Trackpoint>
          <Trackpoint>
            <Time>2021-08-14T10:19:07.000Z</Time>
            <Position>
              <LatitudeDegrees>42.9787878692150115966796875</LatitudeDegrees>
              <LongitudeDegrees>-1.85705767013132572174072265625</LongitudeDegrees>
            </Position>
            <AltitudeMeters>527.79998779296875</AltitudeMeters>
            <DistanceMeters>NAN</DistanceMeters>
          </Trackpoint>
          <Trackpoint>
            <Time>2021-08-14T10:19:09.000Z</Time>
            <Position>
              <LatitudeDegrees>42.97872073017060756683349609375</LatitudeDegrees>
              <LongitudeDegrees>-1.8569792993366718292236328125</LongitudeDegrees>
            </Position>
            <AltitudeMeters>527.79998779296875</AltitudeMeters>
            <DistanceMeters>NAN</DistanceMeters>
          </Trackpoint>
          <Trackpoint>
            <Time>2021-08-14T10:19:10.000Z</Time>
            <Position>
              <LatitudeDegrees>42.97867982648313045501708984375</LatitudeDegrees>
              <LongitudeDegrees>-1.8569440953433513641357421875</LongitudeDegrees>
            </Position>
            <AltitudeMeters>527.5999755859375</AltitudeMeters>
            <DistanceMeters>NAN</DistanceMeters>
          </Trackpoint>
          <Trackpoint>
            <Time>2021-08-14T10:19:11.000Z</Time>
            <Position>
              <LatitudeDegrees>42.97864311374723911285400390625</LatitudeDegrees>
              <LongitudeDegrees>-1.85690092854201793670654296875</LongitudeDegrees>
            </Position>
            <AltitudeMeters>527.5999755859375</AltitudeMeters>
            <DistanceMeters>NAN</DistanceMeters>
          </Trackpoint>
          <Trackpoint>
            <Time>2021-08-14T10:19:12.000Z</Time>
            <Position>
              <LatitudeDegrees>42.9786100052297115325927734375</LatitudeDegrees>
              <LongitudeDegrees>-1.8568545766174793243408203125</LongitudeDegrees>
            </Position>
            <AltitudeMeters>527.5999755859375</AltitudeMeters>
            <DistanceMeters>NAN</DistanceMeters>
          </Trackpoint>
          <Trackpoint>
            <Time>2021-08-14T10:19:13.000Z</Time>
            <Position>
              <LatitudeDegrees>42.9785674251616001129150390625</LatitudeDegrees>
              <LongitudeDegrees>-1.8568274192512035369873046875</LongitudeDegrees>
            </Position>
            <AltitudeMeters>527.4000244140625</AltitudeMeters>
            <DistanceMeters>NAN</DistanceMeters>
          </Trackpoint>
          <Trackpoint>
            <Time>2021-08-14T10:19:14.000Z</Time>
            <Position>
              <LatitudeDegrees>42.97852878458797931671142578125</LatitudeDegrees>
              <LongitudeDegrees>-1.85679146088659763336181640625</LongitudeDegrees>
            </Position>
            <AltitudeMeters>527.4000244140625</AltitudeMeters>
            <DistanceMeters>NAN</DistanceMeters>
          </Trackpoint>
          <Trackpoint>
            <Time>2021-08-14T10:19:15.000Z</Time>
            <Position>
              <LatitudeDegrees>42.97850020229816436767578125</LatitudeDegrees>
              <LongitudeDegrees>-1.85675877146422863006591796875</LongitudeDegrees>
            </Position>
            <AltitudeMeters>527.4000244140625</AltitudeMeters>
            <DistanceMeters>NAN</DistanceMeters>
          </Trackpoint>
          <Trackpoint>
            <Time>2021-08-14T10:19:16.000Z</Time>
            <Position>
              <LatitudeDegrees>42.978472374379634857177734375</LatitudeDegrees>
              <LongitudeDegrees>-1.85672239400446414947509765625</LongitudeDegrees>
            </Position>
            <AltitudeMeters>527.4000244140625</AltitudeMeters>
            <DistanceMeters>NAN</DistanceMeters>
          </Trackpoint>
          <Trackpoint>
            <Time>2021-08-14T10:19:17.000Z</Time>
            <Position>
              <LatitudeDegrees>42.97845720313489437103271484375</LatitudeDegrees>
              <LongitudeDegrees>-1.8566879443824291229248046875</LongitudeDegrees>
            </Position>
            <AltitudeMeters>527.4000244140625</AltitudeMeters>
            <DistanceMeters>NAN</DistanceMeters>
          </Trackpoint>
          <Trackpoint>
            <Time>2021-08-14T10:19:18.000Z</Time>
            <Position>
              <LatitudeDegrees>42.978435494005680084228515625</LatitudeDegrees>
              <LongitudeDegrees>-1.8566554225981235504150390625</LongitudeDegrees>
            </Position>
            <AltitudeMeters>527.4000244140625</AltitudeMeters>
            <DistanceMeters>NAN</DistanceMeters>
          </Trackpoint>
          <Trackpoint>
            <Time>2021-08-14T10:19:21.000Z</Time>
            <Position>
              <LatitudeDegrees>42.978319823741912841796875</LatitudeDegrees>
              <LongitudeDegrees>-1.85651980340480804443359375</LongitudeDegrees>
            </Position>
            <AltitudeMeters>527</AltitudeMeters>
            <DistanceMeters>NAN</DistanceMeters>
          </Trackpoint>
          <Trackpoint>
            <Time>2021-08-14T10:19:24.000Z</Time>
            <Position>
              <LatitudeDegrees>42.9781872220337390899658203125</LatitudeDegrees>
              <LongitudeDegrees>-1.856432296335697174072265625</LongitudeDegrees>
            </Position>
            <AltitudeMeters>527</AltitudeMeters>
            <DistanceMeters>NAN</DistanceMeters>
          </Trackpoint>
          <Trackpoint>
            <Time>2021-08-14T10:19:27.000Z</Time>
            <Position>
              <LatitudeDegrees>42.97809041105210781097412109375</LatitudeDegrees>
              <LongitudeDegrees>-1.8563094176352024078369140625</LongitudeDegrees>
            </Position>
            <AltitudeMeters>526.5999755859375</AltitudeMeters>
            <DistanceMeters>NAN</DistanceMeters>
          </Trackpoint>
          <Trackpoint>
            <Time>2021-08-14T10:19:28.000Z</Time>
            <Position>
              <LatitudeDegrees>42.978053949773311614990234375</LatitudeDegrees>
              <LongitudeDegrees>-1.85627010650932788848876953125</LongitudeDegrees>
            </Position>
            <AltitudeMeters>526.5999755859375</AltitudeMeters>
            <DistanceMeters>NAN</DistanceMeters>
          </Trackpoint>
          <Trackpoint>
            <Time>2021-08-14T10:19:29.000Z</Time>
            <Position>
              <LatitudeDegrees>42.97801338136196136474609375</LatitudeDegrees>
              <LongitudeDegrees>-1.8562316335737705230712890625</LongitudeDegrees>
            </Position>
            <AltitudeMeters>526.4000244140625</AltitudeMeters>
            <DistanceMeters>NAN</DistanceMeters>
          </Trackpoint>
          <Trackpoint>
            <Time>2021-08-14T10:19:30.000Z</Time>
            <Position>
              <LatitudeDegrees>42.9779778420925140380859375</LatitudeDegrees>
              <LongitudeDegrees>-1.85619835741817951202392578125</LongitudeDegrees>
            </Position>
            <AltitudeMeters>526.4000244140625</AltitudeMeters>
            <DistanceMeters>NAN</DistanceMeters>
          </Trackpoint>
          <Trackpoint>
            <Time>2021-08-14T10:19:33.000Z</Time>
            <Position>
              <LatitudeDegrees>42.977796457707881927490234375</LatitudeDegrees>
              <LongitudeDegrees>-1.8560663424432277679443359375</LongitudeDegrees>
            </Position>
            <AltitudeMeters>525.79998779296875</AltitudeMeters>
            <DistanceMeters>NAN</DistanceMeters>
          </Trackpoint>
          <Trackpoint>
            <Time>2021-08-14T10:19:34.000Z</Time>
            <Position>
              <LatitudeDegrees>42.9777302406728267669677734375</LatitudeDegrees>
              <LongitudeDegrees>-1.8560170568525791168212890625</LongitudeDegrees>
            </Position>
            <AltitudeMeters>525.79998779296875</AltitudeMeters>
            <DistanceMeters>NAN</DistanceMeters>
          </Trackpoint>
          <Trackpoint>
            <Time>2021-08-14T10:19:37.000Z</Time>
            <Position>
              <LatitudeDegrees>42.9775569029152393341064453125</LatitudeDegrees>
              <LongitudeDegrees>-1.855904571712017059326171875</LongitudeDegrees>
            </Position>
            <AltitudeMeters>525.20001220703125</AltitudeMeters>
            <DistanceMeters>NAN</DistanceMeters>
          </Trackpoint>
          <Trackpoint>
            <Time>2021-08-14T10:19:38.000Z</Time>
            <Position>
              <LatitudeDegrees>42.977512143552303314208984375</LatitudeDegrees>
              <LongitudeDegrees>-1.8558715470135211944580078125</LongitudeDegrees>
            </Position>
            <AltitudeMeters>525</AltitudeMeters>
            <DistanceMeters>NAN</DistanceMeters>
          </Trackpoint>
          <Trackpoint>
            <Time>2021-08-14T10:19:39.000Z</Time>
            <Position>
              <LatitudeDegrees>42.97747417353093624114990234375</LatitudeDegrees>
              <LongitudeDegrees>-1.85584665276110172271728515625</LongitudeDegrees>
            </Position>
            <AltitudeMeters>524.79998779296875</AltitudeMeters>
            <DistanceMeters>NAN</DistanceMeters>
          </Trackpoint>
          <Trackpoint>
            <Time>2021-08-14T10:19:40.000Z</Time>
            <Position>
              <LatitudeDegrees>42.97743762843310832977294921875</LatitudeDegrees>
              <LongitudeDegrees>-1.85581228695809841156005859375</LongitudeDegrees>
            </Position>
            <AltitudeMeters>524.79998779296875</AltitudeMeters>
            <DistanceMeters>NAN</DistanceMeters>
          </Trackpoint>
          <Trackpoint>
            <Time>2021-08-14T10:19:41.000Z</Time>
            <Position>
              <LatitudeDegrees>42.97739571891725063323974609375</LatitudeDegrees>
              <LongitudeDegrees>-1.8557847104966640472412109375</LongitudeDegrees>
            </Position>
            <AltitudeMeters>524.79998779296875</AltitudeMeters>
            <DistanceMeters>NAN</DistanceMeters>
          </Trackpoint>
          <Trackpoint>
            <Time>2021-08-14T10:19:42.000Z</Time>
            <Position>
              <LatitudeDegrees>42.977364957332611083984375</LatitudeDegrees>
              <LongitudeDegrees>-1.855759732425212860107421875</LongitudeDegrees>
            </Position>
            <AltitudeMeters>524.79998779296875</AltitudeMeters>
            <DistanceMeters>NAN</DistanceMeters>
          </Trackpoint>
          <Trackpoint>
            <Time>2021-08-14T10:19:43.000Z</Time>
            <Position>
              <LatitudeDegrees>42.97733369283378124237060546875</LatitudeDegrees>
              <LongitudeDegrees>-1.8557344190776348114013671875</LongitudeDegrees>
            </Position>
            <AltitudeMeters>524.79998779296875</AltitudeMeters>
            <DistanceMeters>NAN</DistanceMeters>
          </Trackpoint>
          <Trackpoint>
            <Time>2021-08-14T10:19:44.000Z</Time>
            <Position>
              <LatitudeDegrees>42.9772992432117462158203125</LatitudeDegrees>
              <LongitudeDegrees>-1.85570684261620044708251953125</LongitudeDegrees>
            </Position>
            <AltitudeMeters>524.5999755859375</AltitudeMeters>
            <DistanceMeters>NAN</DistanceMeters>
          </Trackpoint>
          <Trackpoint>
            <Time>2021-08-14T10:19:46.000Z</Time>
            <Position>
              <LatitudeDegrees>42.97724903561174869537353515625</LatitudeDegrees>
              <LongitudeDegrees>-1.8556474149227142333984375</LongitudeDegrees>
            </Position>
            <AltitudeMeters>524.5999755859375</AltitudeMeters>
            <DistanceMeters>NAN</DistanceMeters>
          </Trackpoint>
          <Trackpoint>
            <Time>2021-08-14T10:19:47.000Z</Time>
            <Position>
              <LatitudeDegrees>42.9772303439676761627197265625</LatitudeDegrees>
              <LongitudeDegrees>-1.85561514459550380706787109375</LongitudeDegrees>
            </Position>
            <AltitudeMeters>524.79998779296875</AltitudeMeters>
            <DistanceMeters>NAN</DistanceMeters>
          </Trackpoint>
          <Trackpoint>
            <Time>2021-08-14T10:19:48.000Z</Time>
            <Position>
              <LatitudeDegrees>42.97721181996166706085205078125</LatitudeDegrees>
              <LongitudeDegrees>-1.8555857241153717041015625</LongitudeDegrees>
            </Position>
            <AltitudeMeters>524.79998779296875</AltitudeMeters>
            <DistanceMeters>NAN</DistanceMeters>
          </Trackpoint>
          <Trackpoint>
            <Time>2021-08-14T10:19:49.000Z</Time>
            <Position>
              <LatitudeDegrees>42.97719237394630908966064453125</LatitudeDegrees>
              <LongitudeDegrees>-1.85556334443390369415283203125</LongitudeDegrees>
            </Position>
            <AltitudeMeters>524.79998779296875</AltitudeMeters>
            <DistanceMeters>NAN</DistanceMeters>
          </Trackpoint>
          <Trackpoint>
            <Time>2021-08-14T10:19:50.000Z</Time>
            <Position>
              <LatitudeDegrees>42.9771723411977291107177734375</LatitudeDegrees>
              <LongitudeDegrees>-1.85553811490535736083984375</LongitudeDegrees>
            </Position>
            <AltitudeMeters>524.79998779296875</AltitudeMeters>
            <DistanceMeters>NAN</DistanceMeters>
          </Trackpoint>
          <Trackpoint>
            <Time>2021-08-14T10:19:54.000Z</Time>
            <Position>
              <LatitudeDegrees>42.9770744405686855316162109375</LatitudeDegrees>
              <LongitudeDegrees>-1.855424456298351287841796875</LongitudeDegrees>
            </Position>
            <AltitudeMeters>525.4000244140625</AltitudeMeters>
            <DistanceMeters>NAN</DistanceMeters>
          </Trackpoint>
          <Trackpoint>
            <Time>2021-08-14T10:19:57.000Z</Time>
            <Position>
              <LatitudeDegrees>42.97702104784548282623291015625</LatitudeDegrees>
              <LongitudeDegrees>-1.85529847629368305206298828125</LongitudeDegrees>
            </Position>
            <AltitudeMeters>526</AltitudeMeters>
            <DistanceMeters>NAN</DistanceMeters>
          </Trackpoint>
          <Trackpoint>
            <Time>2021-08-14T10:19:58.000Z</Time>
            <Position>
              <LatitudeDegrees>42.97699925489723682403564453125</LatitudeDegrees>
              <LongitudeDegrees>-1.855241395533084869384765625</LongitudeDegrees>
            </Position>
            <AltitudeMeters>526</AltitudeMeters>
            <DistanceMeters>NAN</DistanceMeters>
          </Trackpoint>
          <Trackpoint>
            <Time>2021-08-14T10:19:59.000Z</Time>
            <Position>
              <LatitudeDegrees>42.9769835807383060455322265625</LatitudeDegrees>
              <LongitudeDegrees>-1.85519521124660968780517578125</LongitudeDegrees>
            </Position>
            <AltitudeMeters>526.20001220703125</AltitudeMeters>
            <DistanceMeters>NAN</DistanceMeters>
          </Trackpoint>
          <Trackpoint>
            <Time>2021-08-14T10:20:05.000Z</Time>
            <Position>
              <LatitudeDegrees>42.9769125021994113922119140625</LatitudeDegrees>
              <LongitudeDegrees>-1.854959763586521148681640625</LongitudeDegrees>
            </Position>
            <AltitudeMeters>526.5999755859375</AltitudeMeters>
            <DistanceMeters>NAN</DistanceMeters>
          </Trackpoint>
          <Trackpoint>
            <Time>2021-08-14T10:20:06.000Z</Time>
            <Position>
              <LatitudeDegrees>42.9769051261246204376220703125</LatitudeDegrees>
              <LongitudeDegrees>-1.85491911135613918304443359375</LongitudeDegrees>
            </Position>
            <AltitudeMeters>526.79998779296875</AltitudeMeters>
            <DistanceMeters>NAN</DistanceMeters>
          </Trackpoint>
          <Trackpoint>
            <Time>2021-08-14T10:20:07.000Z</Time>
            <Position>
              <LatitudeDegrees>42.97690001316368579864501953125</LatitudeDegrees>
              <LongitudeDegrees>-1.85487636364996433258056640625</LongitudeDegrees>
            </Position>
            <AltitudeMeters>527</AltitudeMeters>
            <DistanceMeters>NAN</DistanceMeters>
          </Trackpoint>
          <Trackpoint>
            <Time>2021-08-14T10:20:08.000Z</Time>
            <Position>
              <LatitudeDegrees>42.97689632512629032135009765625</LatitudeDegrees>
              <LongitudeDegrees>-1.8548365496098995208740234375</LongitudeDegrees>
            </Position>
            <AltitudeMeters>527.20001220703125</AltitudeMeters>
            <DistanceMeters>NAN</DistanceMeters>
          </Trackpoint>
          <Trackpoint>
            <Time>2021-08-14T10:20:09.000Z</Time>
            <Position>
              <LatitudeDegrees>42.97689498402178287506103515625</LatitudeDegrees>
              <LongitudeDegrees>-1.85479405336081981658935546875</LongitudeDegrees>
            </Position>
            <AltitudeMeters>527.4000244140625</AltitudeMeters>
            <DistanceMeters>NAN</DistanceMeters>
          </Trackpoint>
          <Trackpoint>
            <Time>2021-08-14T10:20:10.000Z</Time>
            <Position>
              <LatitudeDegrees>42.976892888545989990234375</LatitudeDegrees>
              <LongitudeDegrees>-1.85477142222225666046142578125</LongitudeDegrees>
            </Position>
            <AltitudeMeters>527.79998779296875</AltitudeMeters>
            <DistanceMeters>NAN</DistanceMeters>
          </Trackpoint>
          <Trackpoint>
            <Time>2021-08-14T10:20:11.000Z</Time>
            <Position>
              <LatitudeDegrees>42.97688961960375308990478515625</LatitudeDegrees>
              <LongitudeDegrees>-1.85474812053143978118896484375</LongitudeDegrees>
            </Position>
            <AltitudeMeters>527.79998779296875</AltitudeMeters>
            <DistanceMeters>NAN</DistanceMeters>
          </Trackpoint>
          <Trackpoint>
            <Time>2021-08-14T10:20:12.000Z</Time>
            <Position>
              <LatitudeDegrees>42.97688475809991359710693359375</LatitudeDegrees>
              <LongitudeDegrees>-1.85472900979220867156982421875</LongitudeDegrees>
            </Position>
            <AltitudeMeters>528.20001220703125</AltitudeMeters>
            <DistanceMeters>NAN</DistanceMeters>
          </Trackpoint>
          <Trackpoint>
            <Time>2021-08-14T10:20:13.000Z</Time>
            <Position>
              <LatitudeDegrees>42.97687889076769351959228515625</LatitudeDegrees>
              <LongitudeDegrees>-1.8547114916145801544189453125</LongitudeDegrees>
            </Position>
            <AltitudeMeters>528.4000244140625</AltitudeMeters>
            <DistanceMeters>NAN</DistanceMeters>
          </Trackpoint>
          <Trackpoint>
            <Time>2021-08-14T10:20:14.000Z</Time>
            <Position>
              <LatitudeDegrees>42.97686874866485595703125</LatitudeDegrees>
              <LongitudeDegrees>-1.85469363816082477569580078125</LongitudeDegrees>
            </Position>
            <AltitudeMeters>528.79998779296875</AltitudeMeters>
            <DistanceMeters>NAN</DistanceMeters>
          </Trackpoint>
          <Trackpoint>
            <Time>2021-08-14T10:20:15.000Z</Time>
            <Position>
              <LatitudeDegrees>42.97686061821877956390380859375</LatitudeDegrees>
              <LongitudeDegrees>-1.85467637144029140472412109375</LongitudeDegrees>
            </Position>
            <AltitudeMeters>529</AltitudeMeters>
            <DistanceMeters>NAN</DistanceMeters>
          </Trackpoint>
          <Trackpoint>
            <Time>2021-08-14T10:20:16.000Z</Time>
            <Position>
              <LatitudeDegrees>42.97685625962913036346435546875</LatitudeDegrees>
              <LongitudeDegrees>-1.85465659014880657196044921875</LongitudeDegrees>
            </Position>
            <AltitudeMeters>529.20001220703125</AltitudeMeters>
            <DistanceMeters>NAN</DistanceMeters>
          </Trackpoint>
          <Trackpoint>
            <Time>2021-08-14T10:20:17.000Z</Time>
            <Position>
              <LatitudeDegrees>42.9768551699817180633544921875</LatitudeDegrees>
              <LongitudeDegrees>-1.85463714413344860076904296875</LongitudeDegrees>
            </Position>
            <AltitudeMeters>529.20001220703125</AltitudeMeters>
            <DistanceMeters>NAN</DistanceMeters>
          </Trackpoint>
          <Trackpoint>
            <Time>2021-08-14T10:20:18.000Z</Time>
            <Position>
              <LatitudeDegrees>42.97685575671494007110595703125</LatitudeDegrees>
              <LongitudeDegrees>-1.85462021268904209136962890625</LongitudeDegrees>
            </Position>
            <AltitudeMeters>529.20001220703125</AltitudeMeters>
            <DistanceMeters>NAN</DistanceMeters>
          </Trackpoint>
          <Trackpoint>
            <Time>2021-08-14T10:20:19.000Z</Time>
            <Position>
              <LatitudeDegrees>42.97685793600976467132568359375</LatitudeDegrees>
              <LongitudeDegrees>-1.854603700339794158935546875</LongitudeDegrees>
            </Position>
            <AltitudeMeters>529.4000244140625</AltitudeMeters>
            <DistanceMeters>NAN</DistanceMeters>
          </Trackpoint>
          <Trackpoint>
            <Time>2021-08-14T10:20:21.000Z</Time>
            <Position>
              <LatitudeDegrees>42.97685994766652584075927734375</LatitudeDegrees>
              <LongitudeDegrees>-1.8545974977314472198486328125</LongitudeDegrees>
            </Position>
            <AltitudeMeters>529.4000244140625</AltitudeMeters>
            <DistanceMeters>NAN</DistanceMeters>
          </Trackpoint>
          <Trackpoint>
            <Time>2021-08-14T10:20:25.000Z</Time>
            <Position>
              <LatitudeDegrees>42.97685994766652584075927734375</LatitudeDegrees>
              <LongitudeDegrees>-1.8545974977314472198486328125</LongitudeDegrees>
            </Position>
            <AltitudeMeters>529.4000244140625</AltitudeMeters>
            <DistanceMeters>NAN</DistanceMeters>
          </Trackpoint>
          <Trackpoint>
            <Time>2021-08-14T10:20:27.000Z</Time>
            <Position>
              <LatitudeDegrees>42.9768591932952404022216796875</LatitudeDegrees>
              <LongitudeDegrees>-1.8545933067798614501953125</LongitudeDegrees>
            </Position>
            <AltitudeMeters>529.20001220703125</AltitudeMeters>
            <DistanceMeters>NAN</DistanceMeters>
          </Trackpoint>
          <Trackpoint>
            <Time>2021-08-14T10:20:28.000Z</Time>
            <Position>
              <LatitudeDegrees>42.97685961239039897918701171875</LatitudeDegrees>
              <LongitudeDegrees>-1.8545787222683429718017578125</LongitudeDegrees>
            </Position>
            <AltitudeMeters>529.20001220703125</AltitudeMeters>
            <DistanceMeters>NAN</DistanceMeters>
          </Trackpoint>
          <Trackpoint>
            <Time>2021-08-14T10:20:29.000Z</Time>
            <Position>
              <LatitudeDegrees>42.97685693018138408660888671875</LatitudeDegrees>
              <LongitudeDegrees>-1.8545549176633358001708984375</LongitudeDegrees>
            </Position>
            <AltitudeMeters>529.20001220703125</AltitudeMeters>
            <DistanceMeters>NAN</DistanceMeters>
          </Trackpoint>
          <Trackpoint>
            <Time>2021-08-14T10:20:30.000Z</Time>
            <Position>
              <LatitudeDegrees>42.97684636898338794708251953125</LatitudeDegrees>
              <LongitudeDegrees>-1.85451761819422245025634765625</LongitudeDegrees>
            </Position>
            <AltitudeMeters>529.20001220703125</AltitudeMeters>
            <DistanceMeters>NAN</DistanceMeters>
          </Trackpoint>
          <Trackpoint>
            <Time>2021-08-14T10:20:31.000Z</Time>
            <Position>
              <LatitudeDegrees>42.9768397472798824310302734375</LatitudeDegrees>
              <LongitudeDegrees>-1.85448534786701202392578125</LongitudeDegrees>
            </Position>
            <AltitudeMeters>529.20001220703125</AltitudeMeters>
            <DistanceMeters>NAN</DistanceMeters>
          </Trackpoint>
          <Trackpoint>
            <Time>2021-08-14T10:20:33.000Z</Time>
            <Position>
              <LatitudeDegrees>42.97682172618806362152099609375</LatitudeDegrees>
              <LongitudeDegrees>-1.85439222492277622222900390625</LongitudeDegrees>
            </Position>
            <AltitudeMeters>529.20001220703125</AltitudeMeters>
            <DistanceMeters>NAN</DistanceMeters>
          </Trackpoint>
          <Trackpoint>
            <Time>2021-08-14T10:20:38.000Z</Time>
            <Position>
              <LatitudeDegrees>42.97675735317170619964599609375</LatitudeDegrees>
              <LongitudeDegrees>-1.8540912307798862457275390625</LongitudeDegrees>
            </Position>
            <AltitudeMeters>528.4000244140625</AltitudeMeters>
            <DistanceMeters>NAN</DistanceMeters>
          </Trackpoint>
          <Trackpoint>
            <Time>2021-08-14T10:20:39.000Z</Time>
            <Position>
              <LatitudeDegrees>42.9767405055463314056396484375</LatitudeDegrees>
              <LongitudeDegrees>-1.8540164642035961151123046875</LongitudeDegrees>
            </Position>
            <AltitudeMeters>528.4000244140625</AltitudeMeters>
            <DistanceMeters>NAN</DistanceMeters>
          </Trackpoint>
          <Trackpoint>
            <Time>2021-08-14T10:20:43.000Z</Time>
            <Position>
              <LatitudeDegrees>42.97668627463281154632568359375</LatitudeDegrees>
              <LongitudeDegrees>-1.85375989414751529693603515625</LongitudeDegrees>
            </Position>
            <AltitudeMeters>527.4000244140625</AltitudeMeters>
            <DistanceMeters>NAN</DistanceMeters>
          </Trackpoint>
          <Trackpoint>
            <Time>2021-08-14T10:20:44.000Z</Time>
            <Position>
              <LatitudeDegrees>42.9766716063022613525390625</LatitudeDegrees>
              <LongitudeDegrees>-1.8536885641515254974365234375</LongitudeDegrees>
            </Position>
            <AltitudeMeters>527.4000244140625</AltitudeMeters>
            <DistanceMeters>NAN</DistanceMeters>
          </Trackpoint>
          <Trackpoint>
            <Time>2021-08-14T10:20:48.000Z</Time>
            <Position>
              <LatitudeDegrees>42.9766218177974224090576171875</LatitudeDegrees>
              <LongitudeDegrees>-1.853398717939853668212890625</LongitudeDegrees>
            </Position>
            <AltitudeMeters>526.20001220703125</AltitudeMeters>
            <DistanceMeters>NAN</DistanceMeters>
          </Trackpoint>
          <Trackpoint>
            <Time>2021-08-14T10:20:50.000Z</Time>
            <Position>
              <LatitudeDegrees>42.97659583389759063720703125</LatitudeDegrees>
              <LongitudeDegrees>-1.85325195081532001495361328125</LongitudeDegrees>
            </Position>
            <AltitudeMeters>525.4000244140625</AltitudeMeters>
            <DistanceMeters>NAN</DistanceMeters>
          </Trackpoint>
          <Trackpoint>
            <Time>2021-08-14T10:20:52.000Z</Time>
            <Position>
              <LatitudeDegrees>42.9765658266842365264892578125</LatitudeDegrees>
              <LongitudeDegrees>-1.85310241766273975372314453125</LongitudeDegrees>
            </Position>
            <AltitudeMeters>525</AltitudeMeters>
            <DistanceMeters>NAN</DistanceMeters>
          </Trackpoint>
          <Trackpoint>
            <Time>2021-08-14T10:20:57.000Z</Time>
            <Position>
              <LatitudeDegrees>42.97649256885051727294921875</LatitudeDegrees>
              <LongitudeDegrees>-1.8527264893054962158203125</LongitudeDegrees>
            </Position>
            <AltitudeMeters>524</AltitudeMeters>
            <DistanceMeters>NAN</DistanceMeters>
          </Trackpoint>
          <Trackpoint>
            <Time>2021-08-14T10:20:58.000Z</Time>
            <Position>
              <LatitudeDegrees>42.97647647559642791748046875</LatitudeDegrees>
              <LongitudeDegrees>-1.8526575900614261627197265625</LongitudeDegrees>
            </Position>
            <AltitudeMeters>523.20001220703125</AltitudeMeters>
            <DistanceMeters>NAN</DistanceMeters>
          </Trackpoint>
          <Trackpoint>
            <Time>2021-08-14T10:20:59.000Z</Time>
            <Position>
              <LatitudeDegrees>42.97646180726587772369384765625</LatitudeDegrees>
              <LongitudeDegrees>-1.85258793644607067108154296875</LongitudeDegrees>
            </Position>
            <AltitudeMeters>522.5999755859375</AltitudeMeters>
            <DistanceMeters>NAN</DistanceMeters>
          </Trackpoint>
          <Trackpoint>
            <Time>2021-08-14T10:21:00.000Z</Time>
            <Position>
              <LatitudeDegrees>42.976452670991420745849609375</LatitudeDegrees>
              <LongitudeDegrees>-1.85251903720200061798095703125</LongitudeDegrees>
            </Position>
            <AltitudeMeters>522.4000244140625</AltitudeMeters>
            <DistanceMeters>NAN</DistanceMeters>
          </Trackpoint>
          <Trackpoint>
            <Time>2021-08-14T10:21:01.000Z</Time>
            <Position>
              <LatitudeDegrees>42.97644336707890033721923828125</LatitudeDegrees>
              <LongitudeDegrees>-1.85245349071919918060302734375</LongitudeDegrees>
            </Position>
            <AltitudeMeters>522.20001220703125</AltitudeMeters>
            <DistanceMeters>NAN</DistanceMeters>
          </Trackpoint>
          <Trackpoint>
            <Time>2021-08-14T10:21:02.000Z</Time>
            <Position>
              <LatitudeDegrees>42.976434566080570220947265625</LatitudeDegrees>
              <LongitudeDegrees>-1.85239247046411037445068359375</LongitudeDegrees>
            </Position>
            <AltitudeMeters>522</AltitudeMeters>
            <DistanceMeters>NAN</DistanceMeters>
          </Trackpoint>
          <Trackpoint>
            <Time>2021-08-14T10:21:03.000Z</Time>
            <Position>
              <LatitudeDegrees>42.97642576508224010467529296875</LatitudeDegrees>
              <LongitudeDegrees>-1.8523223139345645904541015625</LongitudeDegrees>
            </Position>
            <AltitudeMeters>521.79998779296875</AltitudeMeters>
            <DistanceMeters>NAN</DistanceMeters>
          </Trackpoint>
          <Trackpoint>
            <Time>2021-08-14T10:21:04.000Z</Time>
            <Position>
              <LatitudeDegrees>42.9764199815690517425537109375</LatitudeDegrees>
              <LongitudeDegrees>-1.852266490459442138671875</LongitudeDegrees>
            </Position>
            <AltitudeMeters>521.79998779296875</AltitudeMeters>
            <DistanceMeters>NAN</DistanceMeters>
          </Trackpoint>
          <Trackpoint>
            <Time>2021-08-14T10:21:05.000Z</Time>
            <Position>
              <LatitudeDegrees>42.97641436569392681121826171875</LatitudeDegrees>
              <LongitudeDegrees>-1.852220557630062103271484375</LongitudeDegrees>
            </Position>
            <AltitudeMeters>521.5999755859375</AltitudeMeters>
            <DistanceMeters>NAN</DistanceMeters>
          </Trackpoint>
          <Trackpoint>
            <Time>2021-08-14T10:21:08.000Z</Time>
            <Position>
              <LatitudeDegrees>42.976392991840839385986328125</LatitudeDegrees>
              <LongitudeDegrees>-1.8520252592861652374267578125</LongitudeDegrees>
            </Position>
            <AltitudeMeters>520.5999755859375</AltitudeMeters>
            <DistanceMeters>NAN</DistanceMeters>
          </Trackpoint>
          <Trackpoint>
            <Time>2021-08-14T10:21:11.000Z</Time>
            <Position>
              <LatitudeDegrees>42.976348400115966796875</LatitudeDegrees>
              <LongitudeDegrees>-1.8518408574163913726806640625</LongitudeDegrees>
            </Position>
            <AltitudeMeters>520</AltitudeMeters>
            <DistanceMeters>NAN</DistanceMeters>
          </Trackpoint>
          <Trackpoint>
            <Time>2021-08-14T10:21:12.000Z</Time>
            <Position>
              <LatitudeDegrees>42.976324595510959625244140625</LatitudeDegrees>
              <LongitudeDegrees>-1.8517781607806682586669921875</LongitudeDegrees>
            </Position>
            <AltitudeMeters>519.5999755859375</AltitudeMeters>
            <DistanceMeters>NAN</DistanceMeters>
          </Trackpoint>
          <Trackpoint>
            <Time>2021-08-14T10:21:13.000Z</Time>
            <Position>
              <LatitudeDegrees>42.97630221582949161529541015625</LatitudeDegrees>
              <LongitudeDegrees>-1.85173113830387592315673828125</LongitudeDegrees>
            </Position>
            <AltitudeMeters>519.20001220703125</AltitudeMeters>
            <DistanceMeters>NAN</DistanceMeters>
          </Trackpoint>
          <Trackpoint>
            <Time>2021-08-14T10:21:14.000Z</Time>
            <Position>
              <LatitudeDegrees>42.97628226689994335174560546875</LatitudeDegrees>
              <LongitudeDegrees>-1.85169341973960399627685546875</LongitudeDegrees>
            </Position>
            <AltitudeMeters>519</AltitudeMeters>
            <DistanceMeters>NAN</DistanceMeters>
          </Trackpoint>
          <Trackpoint>
            <Time>2021-08-14T10:21:17.000Z</Time>
            <Position>
              <LatitudeDegrees>42.9762241803109645843505859375</LatitudeDegrees>
              <LongitudeDegrees>-1.8515434674918651580810546875</LongitudeDegrees>
            </Position>
            <AltitudeMeters>518.4000244140625</AltitudeMeters>
            <DistanceMeters>NAN</DistanceMeters>
          </Trackpoint>
          <Trackpoint>
            <Time>2021-08-14T10:21:18.000Z</Time>
            <Position>
              <LatitudeDegrees>42.9762090928852558135986328125</LatitudeDegrees>
              <LongitudeDegrees>-1.85149460099637508392333984375</LongitudeDegrees>
            </Position>
            <AltitudeMeters>518.20001220703125</AltitudeMeters>
            <DistanceMeters>NAN</DistanceMeters>
          </Trackpoint>
          <Trackpoint>
            <Time>2021-08-14T10:21:19.000Z</Time>
            <Position>
              <LatitudeDegrees>42.9761909879744052886962890625</LatitudeDegrees>
              <LongitudeDegrees>-1.85143944807350635528564453125</LongitudeDegrees>
            </Position>
            <AltitudeMeters>518</AltitudeMeters>
            <DistanceMeters>NAN</DistanceMeters>
          </Trackpoint>
          <Trackpoint>
            <Time>2021-08-14T10:21:20.000Z</Time>
            <Position>
              <LatitudeDegrees>42.976177074015140533447265625</LatitudeDegrees>
              <LongitudeDegrees>-1.85140357352793216705322265625</LongitudeDegrees>
            </Position>
            <AltitudeMeters>517.79998779296875</AltitudeMeters>
            <DistanceMeters>NAN</DistanceMeters>
          </Trackpoint>
          <Trackpoint>
            <Time>2021-08-14T10:21:21.000Z</Time>
            <Position>
              <LatitudeDegrees>42.9761604778468608856201171875</LatitudeDegrees>
              <LongitudeDegrees>-1.85135914944112300872802734375</LongitudeDegrees>
            </Position>
            <AltitudeMeters>517.79998779296875</AltitudeMeters>
            <DistanceMeters>NAN</DistanceMeters>
          </Trackpoint>
          <Trackpoint>
            <Time>2021-08-14T10:21:22.000Z</Time>
            <Position>
              <LatitudeDegrees>42.9761417023837566375732421875</LatitudeDegrees>
              <LongitudeDegrees>-1.85131656937301158905029296875</LongitudeDegrees>
            </Position>
            <AltitudeMeters>517.5999755859375</AltitudeMeters>
            <DistanceMeters>NAN</DistanceMeters>
          </Trackpoint>
          <Trackpoint>
            <Time>2021-08-14T10:21:23.000Z</Time>
            <Position>
              <LatitudeDegrees>42.976118065416812896728515625</LatitudeDegrees>
              <LongitudeDegrees>-1.85126661323010921478271484375</LongitudeDegrees>
            </Position>
            <AltitudeMeters>517.5999755859375</AltitudeMeters>
            <DistanceMeters>NAN</DistanceMeters>
          </Trackpoint>
          <Trackpoint>
            <Time>2021-08-14T10:21:24.000Z</Time>
            <Position>
              <LatitudeDegrees>42.97610088251531124114990234375</LatitudeDegrees>
              <LongitudeDegrees>-1.8512324988842010498046875</LongitudeDegrees>
            </Position>
            <AltitudeMeters>517.5999755859375</AltitudeMeters>
            <DistanceMeters>NAN</DistanceMeters>
          </Trackpoint>
          <Trackpoint>
            <Time>2021-08-14T10:21:25.000Z</Time>
            <Position>
              <LatitudeDegrees>42.976077497005462646484375</LatitudeDegrees>
              <LongitudeDegrees>-1.85119436122477054595947265625</LongitudeDegrees>
            </Position>
            <AltitudeMeters>517.5999755859375</AltitudeMeters>
            <DistanceMeters>NAN</DistanceMeters>
          </Trackpoint>
          <Trackpoint>
            <Time>2021-08-14T10:21:26.000Z</Time>
            <Position>
              <LatitudeDegrees>42.9760531894862651824951171875</LatitudeDegrees>
              <LongitudeDegrees>-1.851159073412418365478515625</LongitudeDegrees>
            </Position>
            <AltitudeMeters>517.4000244140625</AltitudeMeters>
            <DistanceMeters>NAN</DistanceMeters>
          </Trackpoint>
          <Trackpoint>
            <Time>2021-08-14T10:21:27.000Z</Time>
            <Position>
              <LatitudeDegrees>42.97603265382349491119384765625</LatitudeDegrees>
              <LongitudeDegrees>-1.8511278927326202392578125</LongitudeDegrees>
            </Position>
            <AltitudeMeters>517.4000244140625</AltitudeMeters>
            <DistanceMeters>NAN</DistanceMeters>
          </Trackpoint>
          <Trackpoint>
            <Time>2021-08-14T10:21:28.000Z</Time>
            <Position>
              <LatitudeDegrees>42.9760153032839298248291015625</LatitudeDegrees>
              <LongitudeDegrees>-1.851102747023105621337890625</LongitudeDegrees>
            </Position>
            <AltitudeMeters>517.4000244140625</AltitudeMeters>
            <DistanceMeters>NAN</DistanceMeters>
          </Trackpoint>
          <Trackpoint>
            <Time>2021-08-14T10:21:29.000Z</Time>
            <Position>
              <LatitudeDegrees>42.9760002158582210540771484375</LatitudeDegrees>
              <LongitudeDegrees>-1.8510794453322887420654296875</LongitudeDegrees>
            </Position>
            <AltitudeMeters>517.20001220703125</AltitudeMeters>
            <DistanceMeters>NAN</DistanceMeters>
          </Trackpoint>
          <Trackpoint>
            <Time>2021-08-14T10:21:30.000Z</Time>
            <Position>
              <LatitudeDegrees>42.97598755918443202972412109375</LatitudeDegrees>
              <LongitudeDegrees>-1.8510569818317890167236328125</LongitudeDegrees>
            </Position>
            <AltitudeMeters>517</AltitudeMeters>
            <DistanceMeters>NAN</DistanceMeters>
          </Trackpoint>
          <Trackpoint>
            <Time>2021-08-14T10:21:31.000Z</Time>
            <Position>
              <LatitudeDegrees>42.9759717173874378204345703125</LatitudeDegrees>
              <LongitudeDegrees>-1.8510313332080841064453125</LongitudeDegrees>
            </Position>
            <AltitudeMeters>517</AltitudeMeters>
            <DistanceMeters>NAN</DistanceMeters>
          </Trackpoint>
          <Trackpoint>
            <Time>2021-08-14T10:21:32.000Z</Time>
            <Position>
              <LatitudeDegrees>42.975948415696620941162109375</LatitudeDegrees>
              <LongitudeDegrees>-1.85099671594798564910888671875</LongitudeDegrees>
            </Position>
            <AltitudeMeters>516.79998779296875</AltitudeMeters>
            <DistanceMeters>NAN</DistanceMeters>
          </Trackpoint>
          <Trackpoint>
            <Time>2021-08-14T10:21:38.000Z</Time>
            <Position>
              <LatitudeDegrees>42.975817658007144927978515625</LatitudeDegrees>
              <LongitudeDegrees>-1.8508115597069263458251953125</LongitudeDegrees>
            </Position>
            <AltitudeMeters>516.79998779296875</AltitudeMeters>
            <DistanceMeters>NAN</DistanceMeters>
          </Trackpoint>
          <Trackpoint>
            <Time>2021-08-14T10:21:39.000Z</Time>
            <Position>
              <LatitudeDegrees>42.97578773461282253265380859375</LatitudeDegrees>
              <LongitudeDegrees>-1.85077509842813014984130859375</LongitudeDegrees>
            </Position>
            <AltitudeMeters>516.5999755859375</AltitudeMeters>
            <DistanceMeters>NAN</DistanceMeters>
          </Trackpoint>
          <Trackpoint>
            <Time>2021-08-14T10:21:44.000Z</Time>
            <Position>
              <LatitudeDegrees>42.9756765067577362060546875</LatitudeDegrees>
              <LongitudeDegrees>-1.8505986593663692474365234375</LongitudeDegrees>
            </Position>
            <AltitudeMeters>516.4000244140625</AltitudeMeters>
            <DistanceMeters>NAN</DistanceMeters>
          </Trackpoint>
          <Trackpoint>
            <Time>2021-08-14T10:21:48.000Z</Time>
            <Position>
              <LatitudeDegrees>42.97559159807860851287841796875</LatitudeDegrees>
              <LongitudeDegrees>-1.85045759193599224090576171875</LongitudeDegrees>
            </Position>
            <AltitudeMeters>516.20001220703125</AltitudeMeters>
            <DistanceMeters>NAN</DistanceMeters>
          </Trackpoint>
          <Trackpoint>
            <Time>2021-08-14T10:21:51.000Z</Time>
            <Position>
              <LatitudeDegrees>42.9755351878702640533447265625</LatitudeDegrees>
              <LongitudeDegrees>-1.8503498844802379608154296875</LongitudeDegrees>
            </Position>
            <AltitudeMeters>516</AltitudeMeters>
            <DistanceMeters>NAN</DistanceMeters>
          </Trackpoint>
          <Trackpoint>
            <Time>2021-08-14T10:21:52.000Z</Time>
            <Position>
              <LatitudeDegrees>42.97552001662552356719970703125</LatitudeDegrees>
              <LongitudeDegrees>-1.8503106571733951568603515625</LongitudeDegrees>
            </Position>
            <AltitudeMeters>515.79998779296875</AltitudeMeters>
            <DistanceMeters>NAN</DistanceMeters>
          </Trackpoint>
          <Trackpoint>
            <Time>2021-08-14T10:21:53.000Z</Time>
            <Position>
              <LatitudeDegrees>42.97550325281918048858642578125</LatitudeDegrees>
              <LongitudeDegrees>-1.85027050785720348358154296875</LongitudeDegrees>
            </Position>
            <AltitudeMeters>515.79998779296875</AltitudeMeters>
            <DistanceMeters>NAN</DistanceMeters>
          </Trackpoint>
          <Trackpoint>
            <Time>2021-08-14T10:21:55.000Z</Time>
            <Position>
              <LatitudeDegrees>42.975470982491970062255859375</LatitudeDegrees>
              <LongitudeDegrees>-1.85020747594535350799560546875</LongitudeDegrees>
            </Position>
            <AltitudeMeters>515.79998779296875</AltitudeMeters>
            <DistanceMeters>NAN</DistanceMeters>
          </Trackpoint>
          <Trackpoint>
            <Time>2021-08-14T10:21:56.000Z</Time>
            <Position>
              <LatitudeDegrees>42.97545748762786388397216796875</LatitudeDegrees>
              <LongitudeDegrees>-1.85017914511263370513916015625</LongitudeDegrees>
            </Position>
            <AltitudeMeters>515.79998779296875</AltitudeMeters>
            <DistanceMeters>NAN</DistanceMeters>
          </Trackpoint>
          <Trackpoint>
            <Time>2021-08-14T10:21:57.000Z</Time>
            <Position>
              <LatitudeDegrees>42.975439131259918212890625</LatitudeDegrees>
              <LongitudeDegrees>-1.8501450307667255401611328125</LongitudeDegrees>
            </Position>
            <AltitudeMeters>515.79998779296875</AltitudeMeters>
            <DistanceMeters>NAN</DistanceMeters>
          </Trackpoint>
          <Trackpoint>
            <Time>2021-08-14T10:22:03.000Z</Time>
            <Position>
              <LatitudeDegrees>42.97531549818813800811767578125</LatitudeDegrees>
              <LongitudeDegrees>-1.8497960083186626434326171875</LongitudeDegrees>
            </Position>
            <AltitudeMeters>515.5999755859375</AltitudeMeters>
            <DistanceMeters>NAN</DistanceMeters>
          </Trackpoint>
          <Trackpoint>
            <Time>2021-08-14T10:22:05.000Z</Time>
            <Position>
              <LatitudeDegrees>42.9752776958048343658447265625</LatitudeDegrees>
              <LongitudeDegrees>-1.84970204718410968780517578125</LongitudeDegrees>
            </Position>
            <AltitudeMeters>515.4000244140625</AltitudeMeters>
            <DistanceMeters>NAN</DistanceMeters>
          </Trackpoint>
          <Trackpoint>
            <Time>2021-08-14T10:22:06.000Z</Time>
            <Position>
              <LatitudeDegrees>42.97526068054139614105224609375</LatitudeDegrees>
              <LongitudeDegrees>-1.84965225867927074432373046875</LongitudeDegrees>
            </Position>
            <AltitudeMeters>515.4000244140625</AltitudeMeters>
            <DistanceMeters>NAN</DistanceMeters>
          </Trackpoint>
          <Trackpoint>
            <Time>2021-08-14T10:22:07.000Z</Time>
            <Position>
              <LatitudeDegrees>42.97524173744022846221923828125</LatitudeDegrees>
              <LongitudeDegrees>-1.84960934333503246307373046875</LongitudeDegrees>
            </Position>
            <AltitudeMeters>515.4000244140625</AltitudeMeters>
            <DistanceMeters>NAN</DistanceMeters>
          </Trackpoint>
          <Trackpoint>
            <Time>2021-08-14T10:22:08.000Z</Time>
            <Position>
              <LatitudeDegrees>42.97522681765258312225341796875</LatitudeDegrees>
              <LongitudeDegrees>-1.849571876227855682373046875</LongitudeDegrees>
            </Position>
            <AltitudeMeters>515.20001220703125</AltitudeMeters>
            <DistanceMeters>NAN</DistanceMeters>
          </Trackpoint>
          <Trackpoint>
            <Time>2021-08-14T10:22:10.000Z</Time>
            <Position>
              <LatitudeDegrees>42.9751898534595966339111328125</LatitudeDegrees>
              <LongitudeDegrees>-1.84946953319013118743896484375</LongitudeDegrees>
            </Position>
            <AltitudeMeters>515</AltitudeMeters>
            <DistanceMeters>NAN</DistanceMeters>
          </Trackpoint>
          <Trackpoint>
            <Time>2021-08-14T10:22:11.000Z</Time>
            <Position>
              <LatitudeDegrees>42.9751737602055072784423828125</LatitudeDegrees>
              <LongitudeDegrees>-1.84942611493170261383056640625</LongitudeDegrees>
            </Position>
            <AltitudeMeters>515</AltitudeMeters>
            <DistanceMeters>NAN</DistanceMeters>
          </Trackpoint>
          <Trackpoint>
            <Time>2021-08-14T10:22:13.000Z</Time>
            <Position>
              <LatitudeDegrees>42.97514232806861400604248046875</LatitudeDegrees>
              <LongitudeDegrees>-1.849342882633209228515625</LongitudeDegrees>
            </Position>
            <AltitudeMeters>515</AltitudeMeters>
            <DistanceMeters>NAN</DistanceMeters>
          </Trackpoint>
          <Trackpoint>
            <Time>2021-08-14T10:22:15.000Z</Time>
            <Position>
              <LatitudeDegrees>42.97509941272437572479248046875</LatitudeDegrees>
              <LongitudeDegrees>-1.84924942441284656524658203125</LongitudeDegrees>
            </Position>
            <AltitudeMeters>515</AltitudeMeters>
            <DistanceMeters>NAN</DistanceMeters>
          </Trackpoint>
          <Trackpoint>
            <Time>2021-08-14T10:22:17.000Z</Time>
            <Position>
              <LatitudeDegrees>42.9750557430088520050048828125</LatitudeDegrees>
              <LongitudeDegrees>-1.84916107915341854095458984375</LongitudeDegrees>
            </Position>
            <AltitudeMeters>514.79998779296875</AltitudeMeters>
            <DistanceMeters>NAN</DistanceMeters>
          </Trackpoint>
          <Trackpoint>
            <Time>2021-08-14T10:22:26.000Z</Time>
            <Position>
              <LatitudeDegrees>42.974888943135738372802734375</LatitudeDegrees>
              <LongitudeDegrees>-1.84877048246562480926513671875</LongitudeDegrees>
            </Position>
            <AltitudeMeters>514.5999755859375</AltitudeMeters>
            <DistanceMeters>NAN</DistanceMeters>
          </Trackpoint>
          <Trackpoint>
            <Time>2021-08-14T10:22:27.000Z</Time>
            <Position>
              <LatitudeDegrees>42.9748720116913318634033203125</LatitudeDegrees>
              <LongitudeDegrees>-1.84873242862522602081298828125</LongitudeDegrees>
            </Position>
            <AltitudeMeters>514.5999755859375</AltitudeMeters>
            <DistanceMeters>NAN</DistanceMeters>
          </Trackpoint>
          <Trackpoint>
            <Time>2021-08-14T10:22:28.000Z</Time>
            <Position>
              <LatitudeDegrees>42.974852062761783599853515625</LatitudeDegrees>
              <LongitudeDegrees>-1.84868046082556247711181640625</LongitudeDegrees>
            </Position>
            <AltitudeMeters>514.5999755859375</AltitudeMeters>
            <DistanceMeters>NAN</DistanceMeters>
          </Trackpoint>
          <Trackpoint>
            <Time>2021-08-14T10:22:29.000Z</Time>
            <Position>
              <LatitudeDegrees>42.97483437694609165191650390625</LatitudeDegrees>
              <LongitudeDegrees>-1.84863402508199214935302734375</LongitudeDegrees>
            </Position>
            <AltitudeMeters>514.5999755859375</AltitudeMeters>
            <DistanceMeters>NAN</DistanceMeters>
          </Trackpoint>
          <Trackpoint>
            <Time>2021-08-14T10:22:30.000Z</Time>
            <Position>
              <LatitudeDegrees>42.9748136736452579498291015625</LatitudeDegrees>
              <LongitudeDegrees>-1.8485943786799907684326171875</LongitudeDegrees>
            </Position>
            <AltitudeMeters>514.5999755859375</AltitudeMeters>
            <DistanceMeters>NAN</DistanceMeters>
          </Trackpoint>
          <Trackpoint>
            <Time>2021-08-14T10:22:32.000Z</Time>
            <Position>
              <LatitudeDegrees>42.9747754521667957305908203125</LatitudeDegrees>
              <LongitudeDegrees>-1.84852707199752330780029296875</LongitudeDegrees>
            </Position>
            <AltitudeMeters>514.79998779296875</AltitudeMeters>
            <DistanceMeters>NAN</DistanceMeters>
          </Trackpoint>
          <Trackpoint>
            <Time>2021-08-14T10:22:34.000Z</Time>
            <Position>
              <LatitudeDegrees>42.9747328720986843109130859375</LatitudeDegrees>
              <LongitudeDegrees>-1.84844258241355419158935546875</LongitudeDegrees>
            </Position>
            <AltitudeMeters>514.79998779296875</AltitudeMeters>
            <DistanceMeters>NAN</DistanceMeters>
          </Trackpoint>
          <Trackpoint>
            <Time>2021-08-14T10:22:36.000Z</Time>
            <Position>
              <LatitudeDegrees>42.974691800773143768310546875</LatitudeDegrees>
              <LongitudeDegrees>-1.8483610264956951141357421875</LongitudeDegrees>
            </Position>
            <AltitudeMeters>514.79998779296875</AltitudeMeters>
            <DistanceMeters>NAN</DistanceMeters>
          </Trackpoint>
          <Trackpoint>
            <Time>2021-08-14T10:22:40.000Z</Time>
            <Position>
              <LatitudeDegrees>42.9746063053607940673828125</LatitudeDegrees>
              <LongitudeDegrees>-1.84816782362759113311767578125</LongitudeDegrees>
            </Position>
            <AltitudeMeters>514.5999755859375</AltitudeMeters>
            <DistanceMeters>NAN</DistanceMeters>
          </Trackpoint>
          <Trackpoint>
            <Time>2021-08-14T10:22:42.000Z</Time>
            <Position>
              <LatitudeDegrees>42.9745645634829998016357421875</LatitudeDegrees>
              <LongitudeDegrees>-1.84808827936649322509765625</LongitudeDegrees>
            </Position>
            <AltitudeMeters>514.5999755859375</AltitudeMeters>
            <DistanceMeters>NAN</DistanceMeters>
          </Trackpoint>
          <Trackpoint>
            <Time>2021-08-14T10:22:44.000Z</Time>
            <Position>
              <LatitudeDegrees>42.97452541999518871307373046875</LatitudeDegrees>
              <LongitudeDegrees>-1.848010830581188201904296875</LongitudeDegrees>
            </Position>
            <AltitudeMeters>514.5999755859375</AltitudeMeters>
            <DistanceMeters>NAN</DistanceMeters>
          </Trackpoint>
          <Trackpoint>
            <Time>2021-08-14T10:22:45.000Z</Time>
            <Position>
              <LatitudeDegrees>42.97450412996113300323486328125</LatitudeDegrees>
              <LongitudeDegrees>-1.84796649031341075897216796875</LongitudeDegrees>
            </Position>
            <AltitudeMeters>514.5999755859375</AltitudeMeters>
            <DistanceMeters>NAN</DistanceMeters>
          </Trackpoint>
          <Trackpoint>
            <Time>2021-08-14T10:22:47.000Z</Time>
            <Position>
              <LatitudeDegrees>42.9744619689881801605224609375</LatitudeDegrees>
              <LongitudeDegrees>-1.847878396511077880859375</LongitudeDegrees>
            </Position>
            <AltitudeMeters>514.5999755859375</AltitudeMeters>
            <DistanceMeters>NAN</DistanceMeters>
          </Trackpoint>
          <Trackpoint>
            <Time>2021-08-14T10:22:48.000Z</Time>
            <Position>
              <LatitudeDegrees>42.9744421876966953277587890625</LatitudeDegrees>
              <LongitudeDegrees>-1.84783539734780788421630859375</LongitudeDegrees>
            </Position>
            <AltitudeMeters>514.5999755859375</AltitudeMeters>
            <DistanceMeters>NAN</DistanceMeters>
          </Trackpoint>
          <Trackpoint>
            <Time>2021-08-14T10:22:49.000Z</Time>
            <Position>
              <LatitudeDegrees>42.97442399896681308746337890625</LatitudeDegrees>
              <LongitudeDegrees>-1.84779055416584014892578125</LongitudeDegrees>
            </Position>
            <AltitudeMeters>514.5999755859375</AltitudeMeters>
            <DistanceMeters>NAN</DistanceMeters>
          </Trackpoint>
          <Trackpoint>
            <Time>2021-08-14T10:22:50.000Z</Time>
            <Position>
              <LatitudeDegrees>42.97440572641789913177490234375</LatitudeDegrees>
              <LongitudeDegrees>-1.84774721972644329071044921875</LongitudeDegrees>
            </Position>
            <AltitudeMeters>514.5999755859375</AltitudeMeters>
            <DistanceMeters>NAN</DistanceMeters>
          </Trackpoint>
          <Trackpoint>
            <Time>2021-08-14T10:22:51.000Z</Time>
            <Position>
              <LatitudeDegrees>42.9743865318596363067626953125</LatitudeDegrees>
              <LongitudeDegrees>-1.84770614840090274810791015625</LongitudeDegrees>
            </Position>
            <AltitudeMeters>514.5999755859375</AltitudeMeters>
            <DistanceMeters>NAN</DistanceMeters>
          </Trackpoint>
          <Trackpoint>
            <Time>2021-08-14T10:22:52.000Z</Time>
            <Position>
              <LatitudeDegrees>42.97436884604394435882568359375</LatitudeDegrees>
              <LongitudeDegrees>-1.84766574762761592864990234375</LongitudeDegrees>
            </Position>
            <AltitudeMeters>514.5999755859375</AltitudeMeters>
            <DistanceMeters>NAN</DistanceMeters>
          </Trackpoint>
          <Trackpoint>
            <Time>2021-08-14T10:22:53.000Z</Time>
            <Position>
              <LatitudeDegrees>42.97435057349503040313720703125</LatitudeDegrees>
              <LongitudeDegrees>-1.8476281128823757171630859375</LongitudeDegrees>
            </Position>
            <AltitudeMeters>514.4000244140625</AltitudeMeters>
            <DistanceMeters>NAN</DistanceMeters>
          </Trackpoint>
          <Trackpoint>
            <Time>2021-08-14T10:22:54.000Z</Time>
            <Position>
              <LatitudeDegrees>42.97433481551706790924072265625</LatitudeDegrees>
              <LongitudeDegrees>-1.8475872091948986053466796875</LongitudeDegrees>
            </Position>
            <AltitudeMeters>514.4000244140625</AltitudeMeters>
            <DistanceMeters>NAN</DistanceMeters>
          </Trackpoint>
          <Trackpoint>
            <Time>2021-08-14T10:22:55.000Z</Time>
            <Position>
              <LatitudeDegrees>42.9743191413581371307373046875</LatitudeDegrees>
              <LongitudeDegrees>-1.8475456349551677703857421875</LongitudeDegrees>
            </Position>
            <AltitudeMeters>514.4000244140625</AltitudeMeters>
            <DistanceMeters>NAN</DistanceMeters>
          </Trackpoint>
          <Trackpoint>
            <Time>2021-08-14T10:22:56.000Z</Time>
            <Position>
              <LatitudeDegrees>42.97430262900888919830322265625</LatitudeDegrees>
              <LongitudeDegrees>-1.84750665910542011260986328125</LongitudeDegrees>
            </Position>
            <AltitudeMeters>514.4000244140625</AltitudeMeters>
            <DistanceMeters>NAN</DistanceMeters>
          </Trackpoint>
          <Trackpoint>
            <Time>2021-08-14T10:22:57.000Z</Time>
            <Position>
              <LatitudeDegrees>42.97428737394511699676513671875</LatitudeDegrees>
              <LongitudeDegrees>-1.847468353807926177978515625</LongitudeDegrees>
            </Position>
            <AltitudeMeters>514.4000244140625</AltitudeMeters>
            <DistanceMeters>NAN</DistanceMeters>
          </Trackpoint>
          <Trackpoint>
            <Time>2021-08-14T10:22:58.000Z</Time>
            <Position>
              <LatitudeDegrees>42.9742735438048839569091796875</LatitudeDegrees>
              <LongitudeDegrees>-1.8474304676055908203125</LongitudeDegrees>
            </Position>
            <AltitudeMeters>514.4000244140625</AltitudeMeters>
            <DistanceMeters>NAN</DistanceMeters>
          </Trackpoint>
          <Trackpoint>
            <Time>2021-08-14T10:22:59.000Z</Time>
            <Position>
              <LatitudeDegrees>42.9742584563791751861572265625</LatitudeDegrees>
              <LongitudeDegrees>-1.84739082120358943939208984375</LongitudeDegrees>
            </Position>
            <AltitudeMeters>514.4000244140625</AltitudeMeters>
            <DistanceMeters>NAN</DistanceMeters>
          </Trackpoint>
          <Trackpoint>
            <Time>2021-08-14T10:23:00.000Z</Time>
            <Position>
              <LatitudeDegrees>42.97424621880054473876953125</LatitudeDegrees>
              <LongitudeDegrees>-1.8473521806299686431884765625</LongitudeDegrees>
            </Position>
            <AltitudeMeters>514.20001220703125</AltitudeMeters>
            <DistanceMeters>NAN</DistanceMeters>
          </Trackpoint>
          <Trackpoint>
            <Time>2021-08-14T10:23:01.000Z</Time>
            <Position>
              <LatitudeDegrees>42.9742339812219142913818359375</LatitudeDegrees>
              <LongitudeDegrees>-1.84731504879891872406005859375</LongitudeDegrees>
            </Position>
            <AltitudeMeters>514.20001220703125</AltitudeMeters>
            <DistanceMeters>NAN</DistanceMeters>
          </Trackpoint>
          <Trackpoint>
            <Time>2021-08-14T10:23:02.000Z</Time>
            <Position>
              <LatitudeDegrees>42.974217720329761505126953125</LatitudeDegrees>
              <LongitudeDegrees>-1.84728336520493030548095703125</LongitudeDegrees>
            </Position>
            <AltitudeMeters>514.20001220703125</AltitudeMeters>
            <DistanceMeters>NAN</DistanceMeters>
          </Trackpoint>
          <Trackpoint>
            <Time>2021-08-14T10:23:03.000Z</Time>
            <Position>
              <LatitudeDegrees>42.97420305199921131134033203125</LatitudeDegrees>
              <LongitudeDegrees>-1.84725201688706874847412109375</LongitudeDegrees>
            </Position>
            <AltitudeMeters>514.20001220703125</AltitudeMeters>
            <DistanceMeters>NAN</DistanceMeters>
          </Trackpoint>
          <Trackpoint>
            <Time>2021-08-14T10:23:04.000Z</Time>
            <Position>
              <LatitudeDegrees>42.97418913803994655609130859375</LatitudeDegrees>
              <LongitudeDegrees>-1.8472184054553508758544921875</LongitudeDegrees>
            </Position>
            <AltitudeMeters>514.20001220703125</AltitudeMeters>
            <DistanceMeters>NAN</DistanceMeters>
          </Trackpoint>
          <Trackpoint>
            <Time>2021-08-14T10:23:05.000Z</Time>
            <Position>
              <LatitudeDegrees>42.9741753078997135162353515625</LatitudeDegrees>
              <LongitudeDegrees>-1.8471885658800601959228515625</LongitudeDegrees>
            </Position>
            <AltitudeMeters>514.20001220703125</AltitudeMeters>
            <DistanceMeters>NAN</DistanceMeters>
          </Trackpoint>
          <Trackpoint>
            <Time>2021-08-14T10:23:06.000Z</Time>
            <Position>
              <LatitudeDegrees>42.97416131012141704559326171875</LatitudeDegrees>
              <LongitudeDegrees>-1.84715948067605495452880859375</LongitudeDegrees>
            </Position>
            <AltitudeMeters>514.20001220703125</AltitudeMeters>
            <DistanceMeters>NAN</DistanceMeters>
          </Trackpoint>
          <Trackpoint>
            <Time>2021-08-14T10:23:07.000Z</Time>
            <Position>
              <LatitudeDegrees>42.9741437919437885284423828125</LatitudeDegrees>
              <LongitudeDegrees>-1.84712804853916168212890625</LongitudeDegrees>
            </Position>
            <AltitudeMeters>514.20001220703125</AltitudeMeters>
            <DistanceMeters>NAN</DistanceMeters>
          </Trackpoint>
          <Trackpoint>
            <Time>2021-08-14T10:23:08.000Z</Time>
            <Position>
              <LatitudeDegrees>42.97412878833711147308349609375</LatitudeDegrees>
              <LongitudeDegrees>-1.847104914486408233642578125</LongitudeDegrees>
            </Position>
            <AltitudeMeters>514.20001220703125</AltitudeMeters>
            <DistanceMeters>NAN</DistanceMeters>
          </Trackpoint>
          <Trackpoint>
            <Time>2021-08-14T10:23:09.000Z</Time>
            <Position>
              <LatitudeDegrees>42.97410934232175350189208984375</LatitudeDegrees>
              <LongitudeDegrees>-1.84707113541662693023681640625</LongitudeDegrees>
            </Position>
            <AltitudeMeters>514.20001220703125</AltitudeMeters>
            <DistanceMeters>NAN</DistanceMeters>
          </Trackpoint>
          <Trackpoint>
            <Time>2021-08-14T10:23:10.000Z</Time>
            <Position>
              <LatitudeDegrees>42.97408855520188808441162109375</LatitudeDegrees>
              <LongitudeDegrees>-1.84703509323298931121826171875</LongitudeDegrees>
            </Position>
            <AltitudeMeters>514.20001220703125</AltitudeMeters>
            <DistanceMeters>NAN</DistanceMeters>
          </Trackpoint>
          <Trackpoint>
            <Time>2021-08-14T10:23:15.000Z</Time>
            <Position>
              <LatitudeDegrees>42.97396416775882244110107421875</LatitudeDegrees>
              <LongitudeDegrees>-1.8468526192009449005126953125</LongitudeDegrees>
            </Position>
            <AltitudeMeters>514.20001220703125</AltitudeMeters>
            <DistanceMeters>NAN</DistanceMeters>
          </Trackpoint>
          <Trackpoint>
            <Time>2021-08-14T10:23:22.000Z</Time>
            <Position>
              <LatitudeDegrees>42.97376534901559352874755859375</LatitudeDegrees>
              <LongitudeDegrees>-1.84662790037691593170166015625</LongitudeDegrees>
            </Position>
            <AltitudeMeters>514</AltitudeMeters>
            <DistanceMeters>NAN</DistanceMeters>
          </Trackpoint>
          <Trackpoint>
            <Time>2021-08-14T10:23:23.000Z</Time>
            <Position>
              <LatitudeDegrees>42.97373634763062000274658203125</LatitudeDegrees>
              <LongitudeDegrees>-1.8465947918593883514404296875</LongitudeDegrees>
            </Position>
            <AltitudeMeters>513.79998779296875</AltitudeMeters>
            <DistanceMeters>NAN</DistanceMeters>
          </Trackpoint>
          <Trackpoint>
            <Time>2021-08-14T10:23:32.000Z</Time>
            <Position>
              <LatitudeDegrees>42.9734320007264614105224609375</LatitudeDegrees>
              <LongitudeDegrees>-1.84631726704537868499755859375</LongitudeDegrees>
            </Position>
            <AltitudeMeters>512.79998779296875</AltitudeMeters>
            <DistanceMeters>NAN</DistanceMeters>
          </Trackpoint>
          <Trackpoint>
            <Time>2021-08-14T10:23:33.000Z</Time>
            <Position>
              <LatitudeDegrees>42.9734081961214542388916015625</LatitudeDegrees>
              <LongitudeDegrees>-1.8462943844497203826904296875</LongitudeDegrees>
            </Position>
            <AltitudeMeters>512.79998779296875</AltitudeMeters>
            <DistanceMeters>NAN</DistanceMeters>
          </Trackpoint>
          <Trackpoint>
            <Time>2021-08-14T10:23:34.000Z</Time>
            <Position>
              <LatitudeDegrees>42.973387576639652252197265625</LatitudeDegrees>
              <LongitudeDegrees>-1.846278123557567596435546875</LongitudeDegrees>
            </Position>
            <AltitudeMeters>512.5999755859375</AltitudeMeters>
            <DistanceMeters>NAN</DistanceMeters>
          </Trackpoint>
          <Trackpoint>
            <Time>2021-08-14T10:23:35.000Z</Time>
            <Position>
              <LatitudeDegrees>42.97336804680526256561279296875</LatitudeDegrees>
              <LongitudeDegrees>-1.84626177884638309478759765625</LongitudeDegrees>
            </Position>
            <AltitudeMeters>512.4000244140625</AltitudeMeters>
            <DistanceMeters>NAN</DistanceMeters>
          </Trackpoint>
          <Trackpoint>
            <Time>2021-08-14T10:23:36.000Z</Time>
            <Position>
              <LatitudeDegrees>42.97334793023765087127685546875</LatitudeDegrees>
              <LongitudeDegrees>-1.846244595944881439208984375</LongitudeDegrees>
            </Position>
            <AltitudeMeters>512.4000244140625</AltitudeMeters>
            <DistanceMeters>NAN</DistanceMeters>
          </Trackpoint>
          <Trackpoint>
            <Time>2021-08-14T10:23:37.000Z</Time>
            <Position>
              <LatitudeDegrees>42.97332479618489742279052734375</LatitudeDegrees>
              <LongitudeDegrees>-1.8462301790714263916015625</LongitudeDegrees>
            </Position>
            <AltitudeMeters>512.4000244140625</AltitudeMeters>
            <DistanceMeters>NAN</DistanceMeters>
          </Trackpoint>
          <Trackpoint>
            <Time>2021-08-14T10:23:40.000Z</Time>
            <Position>
              <LatitudeDegrees>42.97322287224233150482177734375</LatitudeDegrees>
              <LongitudeDegrees>-1.84615566395223140716552734375</LongitudeDegrees>
            </Position>
            <AltitudeMeters>511.79998779296875</AltitudeMeters>
            <DistanceMeters>NAN</DistanceMeters>
          </Trackpoint>
          <Trackpoint>
            <Time>2021-08-14T10:23:41.000Z</Time>
            <Position>
              <LatitudeDegrees>42.97319437377154827117919921875</LatitudeDegrees>
              <LongitudeDegrees>-1.8461347930133342742919921875</LongitudeDegrees>
            </Position>
            <AltitudeMeters>511.600006103515625</AltitudeMeters>
            <DistanceMeters>NAN</DistanceMeters>
          </Trackpoint>
          <Trackpoint>
            <Time>2021-08-14T10:23:42.000Z</Time>
            <Position>
              <LatitudeDegrees>42.97315833158791065216064453125</LatitudeDegrees>
              <LongitudeDegrees>-1.84611291624605655670166015625</LongitudeDegrees>
            </Position>
            <AltitudeMeters>511.600006103515625</AltitudeMeters>
            <DistanceMeters>NAN</DistanceMeters>
          </Trackpoint>
          <Trackpoint>
            <Time>2021-08-14T10:23:43.000Z</Time>
            <Position>
              <LatitudeDegrees>42.97312279231846332550048828125</LatitudeDegrees>
              <LongitudeDegrees>-1.84609472751617431640625</LongitudeDegrees>
            </Position>
            <AltitudeMeters>511.399993896484375</AltitudeMeters>
            <DistanceMeters>NAN</DistanceMeters>
          </Trackpoint>
          <Trackpoint>
            <Time>2021-08-14T10:23:44.000Z</Time>
            <Position>
              <LatitudeDegrees>42.97308440320193767547607421875</LatitudeDegrees>
              <LongitudeDegrees>-1.84608190320432186126708984375</LongitudeDegrees>
            </Position>
            <AltitudeMeters>511.20001220703125</AltitudeMeters>
            <DistanceMeters>NAN</DistanceMeters>
          </Trackpoint>
          <Trackpoint>
            <Time>2021-08-14T10:23:46.000Z</Time>
            <Position>
              <LatitudeDegrees>42.9730015061795711517333984375</LatitudeDegrees>
              <LongitudeDegrees>-1.846050806343555450439453125</LongitudeDegrees>
            </Position>
            <AltitudeMeters>510.600006103515625</AltitudeMeters>
            <DistanceMeters>NAN</DistanceMeters>
          </Trackpoint>
          <Trackpoint>
            <Time>2021-08-14T10:23:50.000Z</Time>
            <Position>
              <LatitudeDegrees>42.97286580316722393035888671875</LatitudeDegrees>
              <LongitudeDegrees>-1.846000850200653076171875</LongitudeDegrees>
            </Position>
            <AltitudeMeters>509.79998779296875</AltitudeMeters>
            <DistanceMeters>NAN</DistanceMeters>
          </Trackpoint>
          <Trackpoint>
            <Time>2021-08-14T10:23:52.000Z</Time>
            <Position>
              <LatitudeDegrees>42.97281257808208465576171875</LatitudeDegrees>
              <LongitudeDegrees>-1.84597310610115528106689453125</LongitudeDegrees>
            </Position>
            <AltitudeMeters>509.600006103515625</AltitudeMeters>
            <DistanceMeters>NAN</DistanceMeters>
          </Trackpoint>
          <Trackpoint>
            <Time>2021-08-14T10:23:53.000Z</Time>
            <Position>
              <LatitudeDegrees>42.9727805592119693756103515625</LatitudeDegrees>
              <LongitudeDegrees>-1.84596128761768341064453125</LongitudeDegrees>
            </Position>
            <AltitudeMeters>509.600006103515625</AltitudeMeters>
            <DistanceMeters>NAN</DistanceMeters>
          </Trackpoint>
          <Trackpoint>
            <Time>2021-08-14T10:23:54.000Z</Time>
            <Position>
              <LatitudeDegrees>42.972739152610301971435546875</LatitudeDegrees>
              <LongitudeDegrees>-1.84594787657260894775390625</LongitudeDegrees>
            </Position>
            <AltitudeMeters>509.600006103515625</AltitudeMeters>
            <DistanceMeters>NAN</DistanceMeters>
          </Trackpoint>
          <Trackpoint>
            <Time>2021-08-14T10:23:55.000Z</Time>
            <Position>
              <LatitudeDegrees>42.9727041162550449371337890625</LatitudeDegrees>
              <LongitudeDegrees>-1.84593924321234226226806640625</LongitudeDegrees>
            </Position>
            <AltitudeMeters>509.600006103515625</AltitudeMeters>
            <DistanceMeters>NAN</DistanceMeters>
          </Trackpoint>
          <Trackpoint>
            <Time>2021-08-14T10:23:56.000Z</Time>
            <Position>
              <LatitudeDegrees>42.9726702533662319183349609375</LatitudeDegrees>
              <LongitudeDegrees>-1.845927424728870391845703125</LongitudeDegrees>
            </Position>
            <AltitudeMeters>509.600006103515625</AltitudeMeters>
            <DistanceMeters>NAN</DistanceMeters>
          </Trackpoint>
          <Trackpoint>
            <Time>2021-08-14T10:23:57.000Z</Time>
            <Position>
              <LatitudeDegrees>42.9726373963057994842529296875</LatitudeDegrees>
              <LongitudeDegrees>-1.84591166675090789794921875</LongitudeDegrees>
            </Position>
            <AltitudeMeters>509.600006103515625</AltitudeMeters>
            <DistanceMeters>NAN</DistanceMeters>
          </Trackpoint>
          <Trackpoint>
            <Time>2021-08-14T10:23:58.000Z</Time>
            <Position>
              <LatitudeDegrees>42.9726078920066356658935546875</LatitudeDegrees>
              <LongitudeDegrees>-1.84589129872620105743408203125</LongitudeDegrees>
            </Position>
            <AltitudeMeters>509.600006103515625</AltitudeMeters>
            <DistanceMeters>NAN</DistanceMeters>
          </Trackpoint>
          <Trackpoint>
            <Time>2021-08-14T10:23:59.000Z</Time>
            <Position>
              <LatitudeDegrees>42.97258065082132816314697265625</LatitudeDegrees>
              <LongitudeDegrees>-1.84587034396827220916748046875</LongitudeDegrees>
            </Position>
            <AltitudeMeters>509.399993896484375</AltitudeMeters>
            <DistanceMeters>NAN</DistanceMeters>
          </Trackpoint>
          <Trackpoint>
            <Time>2021-08-14T10:24:06.000Z</Time>
            <Position>
              <LatitudeDegrees>42.9723185487091541290283203125</LatitudeDegrees>
              <LongitudeDegrees>-1.8457669951021671295166015625</LongitudeDegrees>
            </Position>
            <AltitudeMeters>509.399993896484375</AltitudeMeters>
            <DistanceMeters>NAN</DistanceMeters>
          </Trackpoint>
          <Trackpoint>
            <Time>2021-08-14T10:24:14.000Z</Time>
            <Position>
              <LatitudeDegrees>42.97199718654155731201171875</LatitudeDegrees>
              <LongitudeDegrees>-1.84564285911619663238525390625</LongitudeDegrees>
            </Position>
            <AltitudeMeters>509</AltitudeMeters>
            <DistanceMeters>NAN</DistanceMeters>
          </Trackpoint>
          <Trackpoint>
            <Time>2021-08-14T10:24:17.000Z</Time>
            <Position>
              <LatitudeDegrees>42.9718914069235324859619140625</LatitudeDegrees>
              <LongitudeDegrees>-1.84559390880167484283447265625</LongitudeDegrees>
            </Position>
            <AltitudeMeters>508.600006103515625</AltitudeMeters>
            <DistanceMeters>NAN</DistanceMeters>
          </Trackpoint>
          <Trackpoint>
            <Time>2021-08-14T10:24:19.000Z</Time>
            <Position>
              <LatitudeDegrees>42.971815131604671478271484375</LatitudeDegrees>
              <LongitudeDegrees>-1.84556356631219387054443359375</LongitudeDegrees>
            </Position>
            <AltitudeMeters>508.399993896484375</AltitudeMeters>
            <DistanceMeters>NAN</DistanceMeters>
          </Trackpoint>
          <Trackpoint>
            <Time>2021-08-14T10:24:21.000Z</Time>
            <Position>
              <LatitudeDegrees>42.9717438854277133941650390625</LatitudeDegrees>
              <LongitudeDegrees>-1.84553288854658603668212890625</LongitudeDegrees>
            </Position>
            <AltitudeMeters>508.20001220703125</AltitudeMeters>
            <DistanceMeters>NAN</DistanceMeters>
          </Trackpoint>
          <Trackpoint>
            <Time>2021-08-14T10:24:22.000Z</Time>
            <Position>
              <LatitudeDegrees>42.9717106930911540985107421875</LatitudeDegrees>
              <LongitudeDegrees>-1.84552098624408245086669921875</LongitudeDegrees>
            </Position>
            <AltitudeMeters>508.20001220703125</AltitudeMeters>
            <DistanceMeters>NAN</DistanceMeters>
          </Trackpoint>
          <Trackpoint>
            <Time>2021-08-14T10:24:23.000Z</Time>
            <Position>
              <LatitudeDegrees>42.97167842276394367218017578125</LatitudeDegrees>
              <LongitudeDegrees>-1.84550623409450054168701171875</LongitudeDegrees>
            </Position>
            <AltitudeMeters>508.20001220703125</AltitudeMeters>
            <DistanceMeters>NAN</DistanceMeters>
          </Trackpoint>
          <Trackpoint>
            <Time>2021-08-14T10:24:24.000Z</Time>
            <Position>
              <LatitudeDegrees>42.97164355404675006866455078125</LatitudeDegrees>
              <LongitudeDegrees>-1.84549416415393352508544921875</LongitudeDegrees>
            </Position>
            <AltitudeMeters>508.20001220703125</AltitudeMeters>
            <DistanceMeters>NAN</DistanceMeters>
          </Trackpoint>
          <Trackpoint>
            <Time>2021-08-14T10:24:27.000Z</Time>
            <Position>
              <LatitudeDegrees>42.97152218408882617950439453125</LatitudeDegrees>
              <LongitudeDegrees>-1.8454538471996784210205078125</LongitudeDegrees>
            </Position>
            <AltitudeMeters>508</AltitudeMeters>
            <DistanceMeters>NAN</DistanceMeters>
          </Trackpoint>
          <Trackpoint>
            <Time>2021-08-14T10:24:35.000Z</Time>
            <Position>
              <LatitudeDegrees>42.9712064377963542938232421875</LatitudeDegrees>
              <LongitudeDegrees>-1.8452580459415912628173828125</LongitudeDegrees>
            </Position>
            <AltitudeMeters>507.600006103515625</AltitudeMeters>
            <DistanceMeters>NAN</DistanceMeters>
          </Trackpoint>
          <Trackpoint>
            <Time>2021-08-14T10:24:38.000Z</Time>
            <Position>
              <LatitudeDegrees>42.971103675663471221923828125</LatitudeDegrees>
              <LongitudeDegrees>-1.845144219696521759033203125</LongitudeDegrees>
            </Position>
            <AltitudeMeters>507.79998779296875</AltitudeMeters>
            <DistanceMeters>NAN</DistanceMeters>
          </Trackpoint>
          <Trackpoint>
            <Time>2021-08-14T10:24:41.000Z</Time>
            <Position>
              <LatitudeDegrees>42.9710250534117221832275390625</LatitudeDegrees>
              <LongitudeDegrees>-1.845006756484508514404296875</LongitudeDegrees>
            </Position>
            <AltitudeMeters>507.79998779296875</AltitudeMeters>
            <DistanceMeters>NAN</DistanceMeters>
          </Trackpoint>
          <Trackpoint>
            <Time>2021-08-14T10:24:43.000Z</Time>
            <Position>
              <LatitudeDegrees>42.97099135816097259521484375</LatitudeDegrees>
              <LongitudeDegrees>-1.84490659274160861968994140625</LongitudeDegrees>
            </Position>
            <AltitudeMeters>507.79998779296875</AltitudeMeters>
            <DistanceMeters>NAN</DistanceMeters>
          </Trackpoint>
          <Trackpoint>
            <Time>2021-08-14T10:24:44.000Z</Time>
            <Position>
              <LatitudeDegrees>42.97097769565880298614501953125</LatitudeDegrees>
              <LongitudeDegrees>-1.844855211675167083740234375</LongitudeDegrees>
            </Position>
            <AltitudeMeters>507.79998779296875</AltitudeMeters>
            <DistanceMeters>NAN</DistanceMeters>
          </Trackpoint>
          <Trackpoint>
            <Time>2021-08-14T10:24:45.000Z</Time>
            <Position>
              <LatitudeDegrees>42.97096512280404567718505859375</LatitudeDegrees>
              <LongitudeDegrees>-1.8448040820658206939697265625</LongitudeDegrees>
            </Position>
            <AltitudeMeters>507.79998779296875</AltitudeMeters>
            <DistanceMeters>NAN</DistanceMeters>
          </Trackpoint>
          <Trackpoint>
            <Time>2021-08-14T10:24:46.000Z</Time>
            <Position>
              <LatitudeDegrees>42.9709546454250812530517578125</LatitudeDegrees>
              <LongitudeDegrees>-1.84476393274962902069091796875</LongitudeDegrees>
            </Position>
            <AltitudeMeters>507.79998779296875</AltitudeMeters>
            <DistanceMeters>NAN</DistanceMeters>
          </Trackpoint>
          <Trackpoint>
            <Time>2021-08-14T10:24:47.000Z</Time>
            <Position>
              <LatitudeDegrees>42.97094014473259449005126953125</LatitudeDegrees>
              <LongitudeDegrees>-1.84470467269420623779296875</LongitudeDegrees>
            </Position>
            <AltitudeMeters>507.600006103515625</AltitudeMeters>
            <DistanceMeters>NAN</DistanceMeters>
          </Trackpoint>
          <Trackpoint>
            <Time>2021-08-14T10:24:48.000Z</Time>
            <Position>
              <LatitudeDegrees>42.97092958353459835052490234375</LatitudeDegrees>
              <LongitudeDegrees>-1.84465345926582813262939453125</LongitudeDegrees>
            </Position>
            <AltitudeMeters>507.600006103515625</AltitudeMeters>
            <DistanceMeters>NAN</DistanceMeters>
          </Trackpoint>
          <Trackpoint>
            <Time>2021-08-14T10:24:49.000Z</Time>
            <Position>
              <LatitudeDegrees>42.97092220745980739593505859375</LatitudeDegrees>
              <LongitudeDegrees>-1.844604425132274627685546875</LongitudeDegrees>
            </Position>
            <AltitudeMeters>507.600006103515625</AltitudeMeters>
            <DistanceMeters>NAN</DistanceMeters>
          </Trackpoint>
          <Trackpoint>
            <Time>2021-08-14T10:24:50.000Z</Time>
            <Position>
              <LatitudeDegrees>42.97091214917600154876708984375</LatitudeDegrees>
              <LongitudeDegrees>-1.84455455280840396881103515625</LongitudeDegrees>
            </Position>
            <AltitudeMeters>507.399993896484375</AltitudeMeters>
            <DistanceMeters>NAN</DistanceMeters>
          </Trackpoint>
          <Trackpoint>
            <Time>2021-08-14T10:24:51.000Z</Time>
            <Position>
              <LatitudeDegrees>42.97089689411222934722900390625</LatitudeDegrees>
              <LongitudeDegrees>-1.84450560249388217926025390625</LongitudeDegrees>
            </Position>
            <AltitudeMeters>507.20001220703125</AltitudeMeters>
            <DistanceMeters>NAN</DistanceMeters>
          </Trackpoint>
          <Trackpoint>
            <Time>2021-08-14T10:24:52.000Z</Time>
            <Position>
              <LatitudeDegrees>42.970879711210727691650390625</LatitudeDegrees>
              <LongitudeDegrees>-1.8444604240357875823974609375</LongitudeDegrees>
            </Position>
            <AltitudeMeters>507</AltitudeMeters>
            <DistanceMeters>NAN</DistanceMeters>
          </Trackpoint>
          <Trackpoint>
            <Time>2021-08-14T10:24:54.000Z</Time>
            <Position>
              <LatitudeDegrees>42.97083587385714054107666015625</LatitudeDegrees>
              <LongitudeDegrees>-1.84437735937535762786865234375</LongitudeDegrees>
            </Position>
            <AltitudeMeters>506.79998779296875</AltitudeMeters>
            <DistanceMeters>NAN</DistanceMeters>
          </Trackpoint>
          <Trackpoint>
            <Time>2021-08-14T10:25:00.000Z</Time>
            <Position>
              <LatitudeDegrees>42.9706646315753459930419921875</LatitudeDegrees>
              <LongitudeDegrees>-1.84414685703814029693603515625</LongitudeDegrees>
            </Position>
            <AltitudeMeters>506.20001220703125</AltitudeMeters>
            <DistanceMeters>NAN</DistanceMeters>
          </Trackpoint>
          <Trackpoint>
            <Time>2021-08-14T10:25:09.000Z</Time>
            <Position>
              <LatitudeDegrees>42.97038677148520946502685546875</LatitudeDegrees>
              <LongitudeDegrees>-1.8437947332859039306640625</LongitudeDegrees>
            </Position>
            <AltitudeMeters>505.79998779296875</AltitudeMeters>
            <DistanceMeters>NAN</DistanceMeters>
          </Trackpoint>
          <Trackpoint>
            <Time>2021-08-14T10:25:11.000Z</Time>
            <Position>
              <LatitudeDegrees>42.97031954862177371978759765625</LatitudeDegrees>
              <LongitudeDegrees>-1.84370831586420536041259765625</LongitudeDegrees>
            </Position>
            <AltitudeMeters>505.600006103515625</AltitudeMeters>
            <DistanceMeters>NAN</DistanceMeters>
          </Trackpoint>
          <Trackpoint>
            <Time>2021-08-14T10:25:18.000Z</Time>
            <Position>
              <LatitudeDegrees>42.97009684145450592041015625</LatitudeDegrees>
              <LongitudeDegrees>-1.8434224091470241546630859375</LongitudeDegrees>
            </Position>
            <AltitudeMeters>505</AltitudeMeters>
            <DistanceMeters>NAN</DistanceMeters>
          </Trackpoint>
          <Trackpoint>
            <Time>2021-08-14T10:25:20.000Z</Time>
            <Position>
              <LatitudeDegrees>42.97004059888422489166259765625</LatitudeDegrees>
              <LongitudeDegrees>-1.84334822930395603179931640625</LongitudeDegrees>
            </Position>
            <AltitudeMeters>505</AltitudeMeters>
            <DistanceMeters>NAN</DistanceMeters>
          </Trackpoint>
          <Trackpoint>
            <Time>2021-08-14T10:25:21.000Z</Time>
            <Position>
              <LatitudeDegrees>42.9700101725757122039794921875</LatitudeDegrees>
              <LongitudeDegrees>-1.8433117680251598358154296875</LongitudeDegrees>
            </Position>
            <AltitudeMeters>505</AltitudeMeters>
            <DistanceMeters>NAN</DistanceMeters>
          </Trackpoint>
          <Trackpoint>
            <Time>2021-08-14T10:25:22.000Z</Time>
            <Position>
              <LatitudeDegrees>42.9699867032468318939208984375</LatitudeDegrees>
              <LongitudeDegrees>-1.84328310191631317138671875</LongitudeDegrees>
            </Position>
            <AltitudeMeters>504.79998779296875</AltitudeMeters>
            <DistanceMeters>NAN</DistanceMeters>
          </Trackpoint>
          <Trackpoint>
            <Time>2021-08-14T10:25:23.000Z</Time>
            <Position>
              <LatitudeDegrees>42.96995091252028942108154296875</LatitudeDegrees>
              <LongitudeDegrees>-1.843239180743694305419921875</LongitudeDegrees>
            </Position>
            <AltitudeMeters>504.79998779296875</AltitudeMeters>
            <DistanceMeters>NAN</DistanceMeters>
          </Trackpoint>
          <Trackpoint>
            <Time>2021-08-14T10:25:25.000Z</Time>
            <Position>
              <LatitudeDegrees>42.969883941113948822021484375</LatitudeDegrees>
              <LongitudeDegrees>-1.84316164813935756683349609375</LongitudeDegrees>
            </Position>
            <AltitudeMeters>504.600006103515625</AltitudeMeters>
            <DistanceMeters>NAN</DistanceMeters>
          </Trackpoint>
          <Trackpoint>
            <Time>2021-08-14T10:25:34.000Z</Time>
            <Position>
              <LatitudeDegrees>42.969614379107952117919921875</LatitudeDegrees>
              <LongitudeDegrees>-1.84281237423419952392578125</LongitudeDegrees>
            </Position>
            <AltitudeMeters>504.399993896484375</AltitudeMeters>
            <DistanceMeters>NAN</DistanceMeters>
          </Trackpoint>
          <Trackpoint>
            <Time>2021-08-14T10:25:37.000Z</Time>
            <Position>
              <LatitudeDegrees>42.96952377073466777801513671875</LatitudeDegrees>
              <LongitudeDegrees>-1.8426958657801151275634765625</LongitudeDegrees>
            </Position>
            <AltitudeMeters>504.20001220703125</AltitudeMeters>
            <DistanceMeters>NAN</DistanceMeters>
          </Trackpoint>
          <Trackpoint>
            <Time>2021-08-14T10:25:43.000Z</Time>
            <Position>
              <LatitudeDegrees>42.9693476669490337371826171875</LatitudeDegrees>
              <LongitudeDegrees>-1.84245966374874114990234375</LongitudeDegrees>
            </Position>
            <AltitudeMeters>504.20001220703125</AltitudeMeters>
            <DistanceMeters>NAN</DistanceMeters>
          </Trackpoint>
          <Trackpoint>
            <Time>2021-08-14T10:25:46.000Z</Time>
            <Position>
              <LatitudeDegrees>42.96926225535571575164794921875</LatitudeDegrees>
              <LongitudeDegrees>-1.8423455022275447845458984375</LongitudeDegrees>
            </Position>
            <AltitudeMeters>504.20001220703125</AltitudeMeters>
            <DistanceMeters>NAN</DistanceMeters>
          </Trackpoint>
          <Trackpoint>
            <Time>2021-08-14T10:25:47.000Z</Time>
            <Position>
              <LatitudeDegrees>42.96923451125621795654296875</LatitudeDegrees>
              <LongitudeDegrees>-1.8423109687864780426025390625</LongitudeDegrees>
            </Position>
            <AltitudeMeters>504.20001220703125</AltitudeMeters>
            <DistanceMeters>NAN</DistanceMeters>
          </Trackpoint>
          <Trackpoint>
            <Time>2021-08-14T10:25:48.000Z</Time>
            <Position>
              <LatitudeDegrees>42.96920944936573505401611328125</LatitudeDegrees>
              <LongitudeDegrees>-1.84227819554507732391357421875</LongitudeDegrees>
            </Position>
            <AltitudeMeters>504</AltitudeMeters>
            <DistanceMeters>NAN</DistanceMeters>
          </Trackpoint>
          <Trackpoint>
            <Time>2021-08-14T10:25:49.000Z</Time>
            <Position>
              <LatitudeDegrees>42.96918296255171298980712890625</LatitudeDegrees>
              <LongitudeDegrees>-1.84224701486527919769287109375</LongitudeDegrees>
            </Position>
            <AltitudeMeters>504</AltitudeMeters>
            <DistanceMeters>NAN</DistanceMeters>
          </Trackpoint>
          <Trackpoint>
            <Time>2021-08-14T10:25:50.000Z</Time>
            <Position>
              <LatitudeDegrees>42.9691560566425323486328125</LatitudeDegrees>
              <LongitudeDegrees>-1.84221566654741764068603515625</LongitudeDegrees>
            </Position>
            <AltitudeMeters>504</AltitudeMeters>
            <DistanceMeters>NAN</DistanceMeters>
          </Trackpoint>
          <Trackpoint>
            <Time>2021-08-14T10:25:51.000Z</Time>
            <Position>
              <LatitudeDegrees>42.96912864781916141510009765625</LatitudeDegrees>
              <LongitudeDegrees>-1.8421808816492557525634765625</LongitudeDegrees>
            </Position>
            <AltitudeMeters>504</AltitudeMeters>
            <DistanceMeters>NAN</DistanceMeters>
          </Trackpoint>
          <Trackpoint>
            <Time>2021-08-14T10:25:52.000Z</Time>
            <Position>
              <LatitudeDegrees>42.96910165809094905853271484375</LatitudeDegrees>
              <LongitudeDegrees>-1.8421440012753009796142578125</LongitudeDegrees>
            </Position>
            <AltitudeMeters>504</AltitudeMeters>
            <DistanceMeters>NAN</DistanceMeters>
          </Trackpoint>
          <Trackpoint>
            <Time>2021-08-14T10:25:53.000Z</Time>
            <Position>
              <LatitudeDegrees>42.969071567058563232421875</LatitudeDegrees>
              <LongitudeDegrees>-1.8421101383864879608154296875</LongitudeDegrees>
            </Position>
            <AltitudeMeters>504</AltitudeMeters>
            <DistanceMeters>NAN</DistanceMeters>
          </Trackpoint>
          <Trackpoint>
            <Time>2021-08-14T10:25:54.000Z</Time>
            <Position>
              <LatitudeDegrees>42.969043739140033721923828125</LatitudeDegrees>
              <LongitudeDegrees>-1.84207367710769176483154296875</LongitudeDegrees>
            </Position>
            <AltitudeMeters>503.79998779296875</AltitudeMeters>
            <DistanceMeters>NAN</DistanceMeters>
          </Trackpoint>
          <Trackpoint>
            <Time>2021-08-14T10:25:55.000Z</Time>
            <Position>
              <LatitudeDegrees>42.96901532448828220367431640625</LatitudeDegrees>
              <LongitudeDegrees>-1.84203453361988067626953125</LongitudeDegrees>
            </Position>
            <AltitudeMeters>503.79998779296875</AltitudeMeters>
            <DistanceMeters>NAN</DistanceMeters>
          </Trackpoint>
          <Trackpoint>
            <Time>2021-08-14T10:26:02.000Z</Time>
            <Position>
              <LatitudeDegrees>42.9688098840415477752685546875</LatitudeDegrees>
              <LongitudeDegrees>-1.84175633825361728668212890625</LongitudeDegrees>
            </Position>
            <AltitudeMeters>503.79998779296875</AltitudeMeters>
            <DistanceMeters>NAN</DistanceMeters>
          </Trackpoint>
          <Trackpoint>
            <Time>2021-08-14T10:26:10.000Z</Time>
            <Position>
              <LatitudeDegrees>42.96856739558279514312744140625</LatitudeDegrees>
              <LongitudeDegrees>-1.84140597470104694366455078125</LongitudeDegrees>
            </Position>
            <AltitudeMeters>503.600006103515625</AltitudeMeters>
            <DistanceMeters>NAN</DistanceMeters>
          </Trackpoint>
          <Trackpoint>
            <Time>2021-08-14T10:26:13.000Z</Time>
            <Position>
              <LatitudeDegrees>42.96847879886627197265625</LatitudeDegrees>
              <LongitudeDegrees>-1.84127655811607837677001953125</LongitudeDegrees>
            </Position>
            <AltitudeMeters>503.20001220703125</AltitudeMeters>
            <DistanceMeters>NAN</DistanceMeters>
          </Trackpoint>
          <Trackpoint>
            <Time>2021-08-14T10:26:14.000Z</Time>
            <Position>
              <LatitudeDegrees>42.96845021657645702362060546875</LatitudeDegrees>
              <LongitudeDegrees>-1.84123464860022068023681640625</LongitudeDegrees>
            </Position>
            <AltitudeMeters>503.20001220703125</AltitudeMeters>
            <DistanceMeters>NAN</DistanceMeters>
          </Trackpoint>
          <Trackpoint>
            <Time>2021-08-14T10:26:16.000Z</Time>
            <Position>
              <LatitudeDegrees>42.96839053742587566375732421875</LatitudeDegrees>
              <LongitudeDegrees>-1.8411549367010593414306640625</LongitudeDegrees>
            </Position>
            <AltitudeMeters>503.20001220703125</AltitudeMeters>
            <DistanceMeters>NAN</DistanceMeters>
          </Trackpoint>
          <Trackpoint>
            <Time>2021-08-14T10:26:17.000Z</Time>
            <Position>
              <LatitudeDegrees>42.96835868619382381439208984375</LatitudeDegrees>
              <LongitudeDegrees>-1.8411140330135822296142578125</LongitudeDegrees>
            </Position>
            <AltitudeMeters>503.20001220703125</AltitudeMeters>
            <DistanceMeters>NAN</DistanceMeters>
          </Trackpoint>
          <Trackpoint>
            <Time>2021-08-14T10:26:19.000Z</Time>
            <Position>
              <LatitudeDegrees>42.9682922177016735076904296875</LatitudeDegrees>
              <LongitudeDegrees>-1.84103113599121570587158203125</LongitudeDegrees>
            </Position>
            <AltitudeMeters>503.20001220703125</AltitudeMeters>
            <DistanceMeters>NAN</DistanceMeters>
          </Trackpoint>
          <Trackpoint>
            <Time>2021-08-14T10:26:20.000Z</Time>
            <Position>
              <LatitudeDegrees>42.9682601988315582275390625</LatitudeDegrees>
              <LongitudeDegrees>-1.84099324978888034820556640625</LongitudeDegrees>
            </Position>
            <AltitudeMeters>503.20001220703125</AltitudeMeters>
            <DistanceMeters>NAN</DistanceMeters>
          </Trackpoint>
          <Trackpoint>
            <Time>2021-08-14T10:26:21.000Z</Time>
            <Position>
              <LatitudeDegrees>42.96822893433272838592529296875</LatitudeDegrees>
              <LongitudeDegrees>-1.84095569886267185211181640625</LongitudeDegrees>
            </Position>
            <AltitudeMeters>503</AltitudeMeters>
            <DistanceMeters>NAN</DistanceMeters>
          </Trackpoint>
          <Trackpoint>
            <Time>2021-08-14T10:26:22.000Z</Time>
            <Position>
              <LatitudeDegrees>42.96820412389934062957763671875</LatitudeDegrees>
              <LongitudeDegrees>-1.840914376080036163330078125</LongitudeDegrees>
            </Position>
            <AltitudeMeters>503</AltitudeMeters>
            <DistanceMeters>NAN</DistanceMeters>
          </Trackpoint>
          <Trackpoint>
            <Time>2021-08-14T10:26:23.000Z</Time>
            <Position>
              <LatitudeDegrees>42.96817847527563571929931640625</LatitudeDegrees>
              <LongitudeDegrees>-1.8408709578216075897216796875</LongitudeDegrees>
            </Position>
            <AltitudeMeters>503</AltitudeMeters>
            <DistanceMeters>NAN</DistanceMeters>
          </Trackpoint>
          <Trackpoint>
            <Time>2021-08-14T10:26:24.000Z</Time>
            <Position>
              <LatitudeDegrees>42.96815047971904277801513671875</LatitudeDegrees>
              <LongitudeDegrees>-1.84083164669573307037353515625</LongitudeDegrees>
            </Position>
            <AltitudeMeters>503</AltitudeMeters>
            <DistanceMeters>NAN</DistanceMeters>
          </Trackpoint>
          <Trackpoint>
            <Time>2021-08-14T10:26:26.000Z</Time>
            <Position>
              <LatitudeDegrees>42.96809448860585689544677734375</LatitudeDegrees>
              <LongitudeDegrees>-1.84075134806334972381591796875</LongitudeDegrees>
            </Position>
            <AltitudeMeters>502.79998779296875</AltitudeMeters>
            <DistanceMeters>NAN</DistanceMeters>
          </Trackpoint>
          <Trackpoint>
            <Time>2021-08-14T10:26:27.000Z</Time>
            <Position>
              <LatitudeDegrees>42.9680642299354076385498046875</LatitudeDegrees>
              <LongitudeDegrees>-1.84071547351777553558349609375</LongitudeDegrees>
            </Position>
            <AltitudeMeters>502.600006103515625</AltitudeMeters>
            <DistanceMeters>NAN</DistanceMeters>
          </Trackpoint>
          <Trackpoint>
            <Time>2021-08-14T10:26:28.000Z</Time>
            <Position>
              <LatitudeDegrees>42.9680330492556095123291015625</LatitudeDegrees>
              <LongitudeDegrees>-1.84068060480058193206787109375</LongitudeDegrees>
            </Position>
            <AltitudeMeters>502.600006103515625</AltitudeMeters>
            <DistanceMeters>NAN</DistanceMeters>
          </Trackpoint>
          <Trackpoint>
            <Time>2021-08-14T10:26:29.000Z</Time>
            <Position>
              <LatitudeDegrees>42.968004047870635986328125</LatitudeDegrees>
              <LongitudeDegrees>-1.84064473025500774383544921875</LongitudeDegrees>
            </Position>
            <AltitudeMeters>502.399993896484375</AltitudeMeters>
            <DistanceMeters>NAN</DistanceMeters>
          </Trackpoint>
          <Trackpoint>
            <Time>2021-08-14T10:26:30.000Z</Time>
            <Position>
              <LatitudeDegrees>42.96797513030469417572021484375</LatitudeDegrees>
              <LongitudeDegrees>-1.8406101129949092864990234375</LongitudeDegrees>
            </Position>
            <AltitudeMeters>502.399993896484375</AltitudeMeters>
            <DistanceMeters>NAN</DistanceMeters>
          </Trackpoint>
          <Trackpoint>
            <Time>2021-08-14T10:26:31.000Z</Time>
            <Position>
              <LatitudeDegrees>42.967945374548435211181640625</LatitudeDegrees>
              <LongitudeDegrees>-1.84057834558188915252685546875</LongitudeDegrees>
            </Position>
            <AltitudeMeters>502.399993896484375</AltitudeMeters>
            <DistanceMeters>NAN</DistanceMeters>
          </Trackpoint>
          <Trackpoint>
            <Time>2021-08-14T10:26:32.000Z</Time>
            <Position>
              <LatitudeDegrees>42.9679168760776519775390625</LatitudeDegrees>
              <LongitudeDegrees>-1.84054666198790073394775390625</LongitudeDegrees>
            </Position>
            <AltitudeMeters>502.399993896484375</AltitudeMeters>
            <DistanceMeters>NAN</DistanceMeters>
          </Trackpoint>
          <Trackpoint>
            <Time>2021-08-14T10:26:33.000Z</Time>
            <Position>
              <LatitudeDegrees>42.9678918980062007904052734375</LatitudeDegrees>
              <LongitudeDegrees>-1.84051246382296085357666015625</LongitudeDegrees>
            </Position>
            <AltitudeMeters>502.399993896484375</AltitudeMeters>
            <DistanceMeters>NAN</DistanceMeters>
          </Trackpoint>
          <Trackpoint>
            <Time>2021-08-14T10:26:37.000Z</Time>
            <Position>
              <LatitudeDegrees>42.9677698574960231781005859375</LatitudeDegrees>
              <LongitudeDegrees>-1.8403589911758899688720703125</LongitudeDegrees>
            </Position>
            <AltitudeMeters>502.20001220703125</AltitudeMeters>
            <DistanceMeters>NAN</DistanceMeters>
          </Trackpoint>
          <Trackpoint>
            <Time>2021-08-14T10:26:41.000Z</Time>
            <Position>
              <LatitudeDegrees>42.96763448975980281829833984375</LatitudeDegrees>
              <LongitudeDegrees>-1.840201579034328460693359375</LongitudeDegrees>
            </Position>
            <AltitudeMeters>502</AltitudeMeters>
            <DistanceMeters>NAN</DistanceMeters>
          </Trackpoint>
          <Trackpoint>
            <Time>2021-08-14T10:26:45.000Z</Time>
            <Position>
              <LatitudeDegrees>42.967505492269992828369140625</LatitudeDegrees>
              <LongitudeDegrees>-1.84004559181630611419677734375</LongitudeDegrees>
            </Position>
            <AltitudeMeters>501.79998779296875</AltitudeMeters>
            <DistanceMeters>NAN</DistanceMeters>
          </Trackpoint>
          <Trackpoint>
            <Time>2021-08-14T10:26:46.000Z</Time>
            <Position>
              <LatitudeDegrees>42.96747540123760700225830078125</LatitudeDegrees>
              <LongitudeDegrees>-1.8400061130523681640625</LongitudeDegrees>
            </Position>
            <AltitudeMeters>501.79998779296875</AltitudeMeters>
            <DistanceMeters>NAN</DistanceMeters>
          </Trackpoint>
          <Trackpoint>
            <Time>2021-08-14T10:26:47.000Z</Time>
            <Position>
              <LatitudeDegrees>42.96744321472942829132080078125</LatitudeDegrees>
              <LongitudeDegrees>-1.839971579611301422119140625</LongitudeDegrees>
            </Position>
            <AltitudeMeters>501.79998779296875</AltitudeMeters>
            <DistanceMeters>NAN</DistanceMeters>
          </Trackpoint>
          <Trackpoint>
            <Time>2021-08-14T10:26:48.000Z</Time>
            <Position>
              <LatitudeDegrees>42.9674179852008819580078125</LatitudeDegrees>
              <LongitudeDegrees>-1.8399422429502010345458984375</LongitudeDegrees>
            </Position>
            <AltitudeMeters>501.79998779296875</AltitudeMeters>
            <DistanceMeters>NAN</DistanceMeters>
          </Trackpoint>
          <Trackpoint>
            <Time>2021-08-14T10:26:49.000Z</Time>
            <Position>
              <LatitudeDegrees>42.967380098998546600341796875</LatitudeDegrees>
              <LongitudeDegrees>-1.8398959748446941375732421875</LongitudeDegrees>
            </Position>
            <AltitudeMeters>501.600006103515625</AltitudeMeters>
            <DistanceMeters>NAN</DistanceMeters>
          </Trackpoint>
          <Trackpoint>
            <Time>2021-08-14T10:26:50.000Z</Time>
            <Position>
              <LatitudeDegrees>42.96734916977584362030029296875</LatitudeDegrees>
              <LongitudeDegrees>-1.8398572504520416259765625</LongitudeDegrees>
            </Position>
            <AltitudeMeters>501.600006103515625</AltitudeMeters>
            <DistanceMeters>NAN</DistanceMeters>
          </Trackpoint>
          <Trackpoint>
            <Time>2021-08-14T10:26:54.000Z</Time>
            <Position>
              <LatitudeDegrees>42.9672275483608245849609375</LatitudeDegrees>
              <LongitudeDegrees>-1.83970528654754161834716796875</LongitudeDegrees>
            </Position>
            <AltitudeMeters>501.399993896484375</AltitudeMeters>
            <DistanceMeters>NAN</DistanceMeters>
          </Trackpoint>
          <Trackpoint>
            <Time>2021-08-14T10:26:58.000Z</Time>
            <Position>
              <LatitudeDegrees>42.96708078123629093170166015625</LatitudeDegrees>
              <LongitudeDegrees>-1.83953739702701568603515625</LongitudeDegrees>
            </Position>
            <AltitudeMeters>501.399993896484375</AltitudeMeters>
            <DistanceMeters>NAN</DistanceMeters>
          </Trackpoint>
          <Trackpoint>
            <Time>2021-08-14T10:27:00.000Z</Time>
            <Position>
              <LatitudeDegrees>42.96702009625732898712158203125</LatitudeDegrees>
              <LongitudeDegrees>-1.839470677077770233154296875</LongitudeDegrees>
            </Position>
            <AltitudeMeters>501.399993896484375</AltitudeMeters>
            <DistanceMeters>NAN</DistanceMeters>
          </Trackpoint>
          <Trackpoint>
            <Time>2021-08-14T10:27:01.000Z</Time>
            <Position>
              <LatitudeDegrees>42.9669950343668460845947265625</LatitudeDegrees>
              <LongitudeDegrees>-1.83944075368344783782958984375</LongitudeDegrees>
            </Position>
            <AltitudeMeters>501.399993896484375</AltitudeMeters>
            <DistanceMeters>NAN</DistanceMeters>
          </Trackpoint>
          <Trackpoint>
            <Time>2021-08-14T10:27:02.000Z</Time>
            <Position>
              <LatitudeDegrees>42.96697248704731464385986328125</LatitudeDegrees>
              <LongitudeDegrees>-1.83941074647009372711181640625</LongitudeDegrees>
            </Position>
            <AltitudeMeters>501.20001220703125</AltitudeMeters>
            <DistanceMeters>NAN</DistanceMeters>
          </Trackpoint>
          <Trackpoint>
            <Time>2021-08-14T10:27:03.000Z</Time>
            <Position>
              <LatitudeDegrees>42.96695002354681491851806640625</LatitudeDegrees>
              <LongitudeDegrees>-1.8393826670944690704345703125</LongitudeDegrees>
            </Position>
            <AltitudeMeters>501.20001220703125</AltitudeMeters>
            <DistanceMeters>NAN</DistanceMeters>
          </Trackpoint>
          <Trackpoint>
            <Time>2021-08-14T10:27:04.000Z</Time>
            <Position>
              <LatitudeDegrees>42.96693091280758380889892578125</LatitudeDegrees>
              <LongitudeDegrees>-1.83935827575623989105224609375</LongitudeDegrees>
            </Position>
            <AltitudeMeters>501.20001220703125</AltitudeMeters>
            <DistanceMeters>NAN</DistanceMeters>
          </Trackpoint>
          <Trackpoint>
            <Time>2021-08-14T10:27:05.000Z</Time>
            <Position>
              <LatitudeDegrees>42.96691440045833587646484375</LatitudeDegrees>
              <LongitudeDegrees>-1.83933145366609096527099609375</LongitudeDegrees>
            </Position>
            <AltitudeMeters>501.20001220703125</AltitudeMeters>
            <DistanceMeters>NAN</DistanceMeters>
          </Trackpoint>
          <Trackpoint>
            <Time>2021-08-14T10:27:06.000Z</Time>
            <Position>
              <LatitudeDegrees>42.96689872629940509796142578125</LatitudeDegrees>
              <LongitudeDegrees>-1.839305721223354339599609375</LongitudeDegrees>
            </Position>
            <AltitudeMeters>501.20001220703125</AltitudeMeters>
            <DistanceMeters>NAN</DistanceMeters>
          </Trackpoint>
          <Trackpoint>
            <Time>2021-08-14T10:27:07.000Z</Time>
            <Position>
              <LatitudeDegrees>42.96688313595950603485107421875</LatitudeDegrees>
              <LongitudeDegrees>-1.83928518556058406829833984375</LongitudeDegrees>
            </Position>
            <AltitudeMeters>501.20001220703125</AltitudeMeters>
            <DistanceMeters>NAN</DistanceMeters>
          </Trackpoint>
          <Trackpoint>
            <Time>2021-08-14T10:27:08.000Z</Time>
            <Position>
              <LatitudeDegrees>42.96686804853379726409912109375</LatitudeDegrees>
              <LongitudeDegrees>-1.8392710201442241668701171875</LongitudeDegrees>
            </Position>
            <AltitudeMeters>501.20001220703125</AltitudeMeters>
            <DistanceMeters>NAN</DistanceMeters>
          </Trackpoint>
          <Trackpoint>
            <Time>2021-08-14T10:27:09.000Z</Time>
            <Position>
              <LatitudeDegrees>42.96685011126101016998291015625</LatitudeDegrees>
              <LongitudeDegrees>-1.8392676673829555511474609375</LongitudeDegrees>
            </Position>
            <AltitudeMeters>501.20001220703125</AltitudeMeters>
            <DistanceMeters>NAN</DistanceMeters>
          </Trackpoint>
          <Trackpoint>
            <Time>2021-08-14T10:27:10.000Z</Time>
            <Position>
              <LatitudeDegrees>42.966832257807254791259765625</LatitudeDegrees>
              <LongitudeDegrees>-1.83927831239998340606689453125</LongitudeDegrees>
            </Position>
            <AltitudeMeters>501.20001220703125</AltitudeMeters>
            <DistanceMeters>NAN</DistanceMeters>
          </Trackpoint>
          <Trackpoint>
            <Time>2021-08-14T10:27:11.000Z</Time>
            <Position>
              <LatitudeDegrees>42.96681918203830718994140625</LatitudeDegrees>
              <LongitudeDegrees>-1.8392988480627536773681640625</LongitudeDegrees>
            </Position>
            <AltitudeMeters>501.20001220703125</AltitudeMeters>
            <DistanceMeters>NAN</DistanceMeters>
          </Trackpoint>
          <Trackpoint>
            <Time>2021-08-14T10:27:13.000Z</Time>
            <Position>
              <LatitudeDegrees>42.9667908512055873870849609375</LatitudeDegrees>
              <LongitudeDegrees>-1.8393461219966411590576171875</LongitudeDegrees>
            </Position>
            <AltitudeMeters>501.399993896484375</AltitudeMeters>
            <DistanceMeters>NAN</DistanceMeters>
          </Trackpoint>
          <Trackpoint>
            <Time>2021-08-14T10:27:14.000Z</Time>
            <Position>
              <LatitudeDegrees>42.96677752397954463958740234375</LatitudeDegrees>
              <LongitudeDegrees>-1.8393726088106632232666015625</LongitudeDegrees>
            </Position>
            <AltitudeMeters>501.399993896484375</AltitudeMeters>
            <DistanceMeters>NAN</DistanceMeters>
          </Trackpoint>
          <Trackpoint>
            <Time>2021-08-14T10:27:15.000Z</Time>
            <Position>
              <LatitudeDegrees>42.96676511876285076141357421875</LatitudeDegrees>
              <LongitudeDegrees>-1.83939767070114612579345703125</LongitudeDegrees>
            </Position>
            <AltitudeMeters>501.399993896484375</AltitudeMeters>
            <DistanceMeters>NAN</DistanceMeters>
          </Trackpoint>
          <Trackpoint>
            <Time>2021-08-14T10:27:16.000Z</Time>
            <Position>
              <LatitudeDegrees>42.96675346791744232177734375</LatitudeDegrees>
              <LongitudeDegrees>-1.83941929601132869720458984375</LongitudeDegrees>
            </Position>
            <AltitudeMeters>501.600006103515625</AltitudeMeters>
            <DistanceMeters>NAN</DistanceMeters>
          </Trackpoint>
          <Trackpoint>
            <Time>2021-08-14T10:27:17.000Z</Time>
            <Position>
              <LatitudeDegrees>42.96674382872879505157470703125</LatitudeDegrees>
              <LongitudeDegrees>-1.83943681418895721435546875</LongitudeDegrees>
            </Position>
            <AltitudeMeters>501.600006103515625</AltitudeMeters>
            <DistanceMeters>NAN</DistanceMeters>
          </Trackpoint>
          <Trackpoint>
            <Time>2021-08-14T10:27:18.000Z</Time>
            <Position>
              <LatitudeDegrees>42.966731674969196319580078125</LatitudeDegrees>
              <LongitudeDegrees>-1.8394527398049831390380859375</LongitudeDegrees>
            </Position>
            <AltitudeMeters>501.600006103515625</AltitudeMeters>
            <DistanceMeters>NAN</DistanceMeters>
          </Trackpoint>
          <Trackpoint>
            <Time>2021-08-14T10:27:19.000Z</Time>
            <Position>
              <LatitudeDegrees>42.96672102995216846466064453125</LatitudeDegrees>
              <LongitudeDegrees>-1.83946925215423107147216796875</LongitudeDegrees>
            </Position>
            <AltitudeMeters>501.600006103515625</AltitudeMeters>
            <DistanceMeters>NAN</DistanceMeters>
          </Trackpoint>
          <Trackpoint>
            <Time>2021-08-14T10:27:20.000Z</Time>
            <Position>
              <LatitudeDegrees>42.96670577488839626312255859375</LatitudeDegrees>
              <LongitudeDegrees>-1.83949037455022335052490234375</LongitudeDegrees>
            </Position>
            <AltitudeMeters>501.79998779296875</AltitudeMeters>
            <DistanceMeters>NAN</DistanceMeters>
          </Trackpoint>
          <Trackpoint>
            <Time>2021-08-14T10:27:21.000Z</Time>
            <Position>
              <LatitudeDegrees>42.96669571660459041595458984375</LatitudeDegrees>
              <LongitudeDegrees>-1.83951099403202533721923828125</LongitudeDegrees>
            </Position>
            <AltitudeMeters>501.79998779296875</AltitudeMeters>
            <DistanceMeters>NAN</DistanceMeters>
          </Trackpoint>
          <Trackpoint>
            <Time>2021-08-14T10:27:22.000Z</Time>
            <Position>
              <LatitudeDegrees>42.96668515540659427642822265625</LatitudeDegrees>
              <LongitudeDegrees>-1.8395305238664150238037109375</LongitudeDegrees>
            </Position>
            <AltitudeMeters>502</AltitudeMeters>
            <DistanceMeters>NAN</DistanceMeters>
          </Trackpoint>
          <Trackpoint>
            <Time>2021-08-14T10:27:23.000Z</Time>
            <Position>
              <LatitudeDegrees>42.96667040325701236724853515625</LatitudeDegrees>
              <LongitudeDegrees>-1.83954435400664806365966796875</LongitudeDegrees>
            </Position>
            <AltitudeMeters>502</AltitudeMeters>
            <DistanceMeters>NAN</DistanceMeters>
          </Trackpoint>
          <Trackpoint>
            <Time>2021-08-14T10:27:24.000Z</Time>
            <Position>
              <LatitudeDegrees>42.96665464527904987335205078125</LatitudeDegrees>
              <LongitudeDegrees>-1.83954737149178981781005859375</LongitudeDegrees>
            </Position>
            <AltitudeMeters>502.20001220703125</AltitudeMeters>
            <DistanceMeters>NAN</DistanceMeters>
          </Trackpoint>
          <Trackpoint>
            <Time>2021-08-14T10:27:25.000Z</Time>
            <Position>
              <LatitudeDegrees>42.9666374623775482177734375</LatitudeDegrees>
              <LongitudeDegrees>-1.83954385109245777130126953125</LongitudeDegrees>
            </Position>
            <AltitudeMeters>502.399993896484375</AltitudeMeters>
            <DistanceMeters>NAN</DistanceMeters>
          </Trackpoint>
          <Trackpoint>
            <Time>2021-08-14T10:27:26.000Z</Time>
            <Position>
              <LatitudeDegrees>42.9666212014853954315185546875</LatitudeDegrees>
              <LongitudeDegrees>-1.83954049833118915557861328125</LongitudeDegrees>
            </Position>
            <AltitudeMeters>502.399993896484375</AltitudeMeters>
            <DistanceMeters>NAN</DistanceMeters>
          </Trackpoint>
          <Trackpoint>
            <Time>2021-08-14T10:27:27.000Z</Time>
            <Position>
              <LatitudeDegrees>42.9666030965745449066162109375</LatitudeDegrees>
              <LongitudeDegrees>-1.83953496627509593963623046875</LongitudeDegrees>
            </Position>
            <AltitudeMeters>502.399993896484375</AltitudeMeters>
            <DistanceMeters>NAN</DistanceMeters>
          </Trackpoint>
          <Trackpoint>
            <Time>2021-08-14T10:27:28.000Z</Time>
            <Position>
              <LatitudeDegrees>42.9665839858353137969970703125</LatitudeDegrees>
              <LongitudeDegrees>-1.8395251594483852386474609375</LongitudeDegrees>
            </Position>
            <AltitudeMeters>502.600006103515625</AltitudeMeters>
            <DistanceMeters>NAN</DistanceMeters>
          </Trackpoint>
          <Trackpoint>
            <Time>2021-08-14T10:27:30.000Z</Time>
            <Position>
              <LatitudeDegrees>42.96654467470943927764892578125</LatitudeDegrees>
              <LongitudeDegrees>-1.8395053781569004058837890625</LongitudeDegrees>
            </Position>
            <AltitudeMeters>502.79998779296875</AltitudeMeters>
            <DistanceMeters>NAN</DistanceMeters>
          </Trackpoint>
          <Trackpoint>
            <Time>2021-08-14T10:27:35.000Z</Time>
            <Position>
              <LatitudeDegrees>42.96645146794617176055908203125</LatitudeDegrees>
              <LongitudeDegrees>-1.8394513987004756927490234375</LongitudeDegrees>
            </Position>
            <AltitudeMeters>503.399993896484375</AltitudeMeters>
            <DistanceMeters>NAN</DistanceMeters>
          </Trackpoint>
          <Trackpoint>
            <Time>2021-08-14T10:27:36.000Z</Time>
            <Position>
              <LatitudeDegrees>42.96643721871078014373779296875</LatitudeDegrees>
              <LongitudeDegrees>-1.83945014141499996185302734375</LongitudeDegrees>
            </Position>
            <AltitudeMeters>503.600006103515625</AltitudeMeters>
            <DistanceMeters>NAN</DistanceMeters>
          </Trackpoint>
          <Trackpoint>
            <Time>2021-08-14T10:27:37.000Z</Time>
            <Position>
              <LatitudeDegrees>42.96641953289508819580078125</LatitudeDegrees>
              <LongitudeDegrees>-1.83945165015757083892822265625</LongitudeDegrees>
            </Position>
            <AltitudeMeters>504</AltitudeMeters>
            <DistanceMeters>NAN</DistanceMeters>
          </Trackpoint>
          <Trackpoint>
            <Time>2021-08-14T10:27:38.000Z</Time>
            <Position>
              <LatitudeDegrees>42.9663999192416667938232421875</LatitudeDegrees>
              <LongitudeDegrees>-1.8394426815211772918701171875</LongitudeDegrees>
            </Position>
            <AltitudeMeters>504</AltitudeMeters>
            <DistanceMeters>NAN</DistanceMeters>
          </Trackpoint>
          <Trackpoint>
            <Time>2021-08-14T10:27:39.000Z</Time>
            <Position>
              <LatitudeDegrees>42.9663813114166259765625</LatitudeDegrees>
              <LongitudeDegrees>-1.8394265882670879364013671875</LongitudeDegrees>
            </Position>
            <AltitudeMeters>504.399993896484375</AltitudeMeters>
            <DistanceMeters>NAN</DistanceMeters>
          </Trackpoint>
          <Trackpoint>
            <Time>2021-08-14T10:27:40.000Z</Time>
            <Position>
              <LatitudeDegrees>42.96636496670544147491455078125</LatitudeDegrees>
              <LongitudeDegrees>-1.8394161947071552276611328125</LongitudeDegrees>
            </Position>
            <AltitudeMeters>504.399993896484375</AltitudeMeters>
            <DistanceMeters>NAN</DistanceMeters>
          </Trackpoint>
          <Trackpoint>
            <Time>2021-08-14T10:27:41.000Z</Time>
            <Position>
              <LatitudeDegrees>42.9663476161658763885498046875</LatitudeDegrees>
              <LongitudeDegrees>-1.8394078128039836883544921875</LongitudeDegrees>
            </Position>
            <AltitudeMeters>504.600006103515625</AltitudeMeters>
            <DistanceMeters>NAN</DistanceMeters>
          </Trackpoint>
          <Trackpoint>
            <Time>2021-08-14T10:27:42.000Z</Time>
            <Position>
              <LatitudeDegrees>42.9663295112550258636474609375</LatitudeDegrees>
              <LongitudeDegrees>-1.83939951471984386444091796875</LongitudeDegrees>
            </Position>
            <AltitudeMeters>504.79998779296875</AltitudeMeters>
            <DistanceMeters>NAN</DistanceMeters>
          </Trackpoint>
          <Trackpoint>
            <Time>2021-08-14T10:27:43.000Z</Time>
            <Position>
              <LatitudeDegrees>42.96631283126771450042724609375</LatitudeDegrees>
              <LongitudeDegrees>-1.839389540255069732666015625</LongitudeDegrees>
            </Position>
            <AltitudeMeters>505.20001220703125</AltitudeMeters>
            <DistanceMeters>NAN</DistanceMeters>
          </Trackpoint>
          <Trackpoint>
            <Time>2021-08-14T10:27:44.000Z</Time>
            <Position>
              <LatitudeDegrees>42.96629506163299083709716796875</LatitudeDegrees>
              <LongitudeDegrees>-1.83938317000865936279296875</LongitudeDegrees>
            </Position>
            <AltitudeMeters>505.600006103515625</AltitudeMeters>
            <DistanceMeters>NAN</DistanceMeters>
          </Trackpoint>
          <Trackpoint>
            <Time>2021-08-14T10:27:45.000Z</Time>
            <Position>
              <LatitudeDegrees>42.96627896837890148162841796875</LatitudeDegrees>
              <LongitudeDegrees>-1.839381158351898193359375</LongitudeDegrees>
            </Position>
            <AltitudeMeters>505.79998779296875</AltitudeMeters>
            <DistanceMeters>NAN</DistanceMeters>
          </Trackpoint>
          <Trackpoint>
            <Time>2021-08-14T10:27:46.000Z</Time>
            <Position>
              <LatitudeDegrees>42.966264970600605010986328125</LatitudeDegrees>
              <LongitudeDegrees>-1.83938006870448589324951171875</LongitudeDegrees>
            </Position>
            <AltitudeMeters>506.399993896484375</AltitudeMeters>
            <DistanceMeters>NAN</DistanceMeters>
          </Trackpoint>
          <Trackpoint>
            <Time>2021-08-14T10:27:47.000Z</Time>
            <Position>
              <LatitudeDegrees>42.96625365503132343292236328125</LatitudeDegrees>
              <LongitudeDegrees>-1.83937638066709041595458984375</LongitudeDegrees>
            </Position>
            <AltitudeMeters>506.600006103515625</AltitudeMeters>
            <DistanceMeters>NAN</DistanceMeters>
          </Trackpoint>
          <Trackpoint>
            <Time>2021-08-14T10:27:48.000Z</Time>
            <Position>
              <LatitudeDegrees>42.966238819062709808349609375</LatitudeDegrees>
              <LongitudeDegrees>-1.839370429515838623046875</LongitudeDegrees>
            </Position>
            <AltitudeMeters>507</AltitudeMeters>
            <DistanceMeters>NAN</DistanceMeters>
          </Trackpoint>
          <Trackpoint>
            <Time>2021-08-14T10:27:49.000Z</Time>
            <Position>
              <LatitudeDegrees>42.96622280962765216827392578125</LatitudeDegrees>
              <LongitudeDegrees>-1.83936196379363536834716796875</LongitudeDegrees>
            </Position>
            <AltitudeMeters>507</AltitudeMeters>
            <DistanceMeters>NAN</DistanceMeters>
          </Trackpoint>
          <Trackpoint>
            <Time>2021-08-14T10:27:50.000Z</Time>
            <Position>
              <LatitudeDegrees>42.9662108235061168670654296875</LatitudeDegrees>
              <LongitudeDegrees>-1.83935224078595638275146484375</LongitudeDegrees>
            </Position>
            <AltitudeMeters>507.20001220703125</AltitudeMeters>
            <DistanceMeters>NAN</DistanceMeters>
          </Trackpoint>
          <Trackpoint>
            <Time>2021-08-14T10:27:51.000Z</Time>
            <Position>
              <LatitudeDegrees>42.966195233166217803955078125</LatitudeDegrees>
              <LongitudeDegrees>-1.839347966015338897705078125</LongitudeDegrees>
            </Position>
            <AltitudeMeters>507.399993896484375</AltitudeMeters>
            <DistanceMeters>NAN</DistanceMeters>
          </Trackpoint>
          <Trackpoint>
            <Time>2021-08-14T10:27:52.000Z</Time>
            <Position>
              <LatitudeDegrees>42.96617989428341388702392578125</LatitudeDegrees>
              <LongitudeDegrees>-1.83934553526341915130615234375</LongitudeDegrees>
            </Position>
            <AltitudeMeters>507.600006103515625</AltitudeMeters>
            <DistanceMeters>NAN</DistanceMeters>
          </Trackpoint>
          <Trackpoint>
            <Time>2021-08-14T10:27:53.000Z</Time>
            <Position>
              <LatitudeDegrees>42.96615642495453357696533203125</LatitudeDegrees>
              <LongitudeDegrees>-1.8393374048173427581787109375</LongitudeDegrees>
            </Position>
            <AltitudeMeters>507.79998779296875</AltitudeMeters>
            <DistanceMeters>NAN</DistanceMeters>
          </Trackpoint>
          <Trackpoint>
            <Time>2021-08-14T10:27:54.000Z</Time>
            <Position>
              <LatitudeDegrees>42.96613044105470180511474609375</LatitudeDegrees>
              <LongitudeDegrees>-1.83935173787176609039306640625</LongitudeDegrees>
            </Position>
            <AltitudeMeters>508</AltitudeMeters>
            <DistanceMeters>NAN</DistanceMeters>
          </Trackpoint>
          <Trackpoint>
            <Time>2021-08-14T10:27:55.000Z</Time>
            <Position>
              <LatitudeDegrees>42.96611367724835872650146484375</LatitudeDegrees>
              <LongitudeDegrees>-1.83935425244271755218505859375</LongitudeDegrees>
            </Position>
            <AltitudeMeters>508</AltitudeMeters>
            <DistanceMeters>NAN</DistanceMeters>
          </Trackpoint>
          <Trackpoint>
            <Time>2021-08-14T10:27:56.000Z</Time>
            <Position>
              <LatitudeDegrees>42.96609766781330108642578125</LatitudeDegrees>
              <LongitudeDegrees>-1.83935425244271755218505859375</LongitudeDegrees>
            </Position>
            <AltitudeMeters>508.399993896484375</AltitudeMeters>
            <DistanceMeters>NAN</DistanceMeters>
          </Trackpoint>
          <Trackpoint>
            <Time>2021-08-14T10:27:57.000Z</Time>
            <Position>
              <LatitudeDegrees>42.96608065254986286163330078125</LatitudeDegrees>
              <LongitudeDegrees>-1.8393538333475589752197265625</LongitudeDegrees>
            </Position>
            <AltitudeMeters>508.79998779296875</AltitudeMeters>
            <DistanceMeters>NAN</DistanceMeters>
          </Trackpoint>
          <Trackpoint>
            <Time>2021-08-14T10:27:58.000Z</Time>
            <Position>
              <LatitudeDegrees>42.96606539748609066009521484375</LatitudeDegrees>
              <LongitudeDegrees>-1.83935232460498809814453125</LongitudeDegrees>
            </Position>
            <AltitudeMeters>509.20001220703125</AltitudeMeters>
            <DistanceMeters>NAN</DistanceMeters>
          </Trackpoint>
          <Trackpoint>
            <Time>2021-08-14T10:27:59.000Z</Time>
            <Position>
              <LatitudeDegrees>42.9660505615174770355224609375</LatitudeDegrees>
              <LongitudeDegrees>-1.839351654052734375</LongitudeDegrees>
            </Position>
            <AltitudeMeters>509.399993896484375</AltitudeMeters>
            <DistanceMeters>NAN</DistanceMeters>
          </Trackpoint>
          <Trackpoint>
            <Time>2021-08-14T10:28:00.000Z</Time>
            <Position>
              <LatitudeDegrees>42.96603807248175144195556640625</LatitudeDegrees>
              <LongitudeDegrees>-1.8393521569669246673583984375</LongitudeDegrees>
            </Position>
            <AltitudeMeters>509.79998779296875</AltitudeMeters>
            <DistanceMeters>NAN</DistanceMeters>
          </Trackpoint>
          <Trackpoint>
            <Time>2021-08-14T10:28:01.000Z</Time>
            <Position>
              <LatitudeDegrees>42.96602415852248668670654296875</LatitudeDegrees>
              <LongitudeDegrees>-1.83935509063303470611572265625</LongitudeDegrees>
            </Position>
            <AltitudeMeters>510</AltitudeMeters>
            <DistanceMeters>NAN</DistanceMeters>
          </Trackpoint>
          <Trackpoint>
            <Time>2021-08-14T10:28:02.000Z</Time>
            <Position>
              <LatitudeDegrees>42.96601317822933197021484375</LatitudeDegrees>
              <LongitudeDegrees>-1.83935525827109813690185546875</LongitudeDegrees>
            </Position>
            <AltitudeMeters>510.20001220703125</AltitudeMeters>
            <DistanceMeters>NAN</DistanceMeters>
          </Trackpoint>
          <Trackpoint>
            <Time>2021-08-14T10:28:03.000Z</Time>
            <Position>
              <LatitudeDegrees>42.96599842607975006103515625</LatitudeDegrees>
              <LongitudeDegrees>-1.83935542590916156768798828125</LongitudeDegrees>
            </Position>
            <AltitudeMeters>510.20001220703125</AltitudeMeters>
            <DistanceMeters>NAN</DistanceMeters>
          </Trackpoint>
          <Trackpoint>
            <Time>2021-08-14T10:28:04.000Z</Time>
            <Position>
              <LatitudeDegrees>42.96598291955888271331787109375</LatitudeDegrees>
              <LongitudeDegrees>-1.83935794048011302947998046875</LongitudeDegrees>
            </Position>
            <AltitudeMeters>510.600006103515625</AltitudeMeters>
            <DistanceMeters>NAN</DistanceMeters>
          </Trackpoint>
          <Trackpoint>
            <Time>2021-08-14T10:28:05.000Z</Time>
            <Position>
              <LatitudeDegrees>42.9659707657992839813232421875</LatitudeDegrees>
              <LongitudeDegrees>-1.8393591977655887603759765625</LongitudeDegrees>
            </Position>
            <AltitudeMeters>511</AltitudeMeters>
            <DistanceMeters>NAN</DistanceMeters>
          </Trackpoint>
          <Trackpoint>
            <Time>2021-08-14T10:28:06.000Z</Time>
            <Position>
              <LatitudeDegrees>42.9659590311348438262939453125</LatitudeDegrees>
              <LongitudeDegrees>-1.8393610417842864990234375</LongitudeDegrees>
            </Position>
            <AltitudeMeters>511.20001220703125</AltitudeMeters>
            <DistanceMeters>NAN</DistanceMeters>
          </Trackpoint>
          <Trackpoint>
            <Time>2021-08-14T10:28:07.000Z</Time>
            <Position>
              <LatitudeDegrees>42.96594704501330852508544921875</LatitudeDegrees>
              <LongitudeDegrees>-1.8393622152507305145263671875</LongitudeDegrees>
            </Position>
            <AltitudeMeters>511.399993896484375</AltitudeMeters>
            <DistanceMeters>NAN</DistanceMeters>
          </Trackpoint>
          <Trackpoint>
            <Time>2021-08-14T10:28:08.000Z</Time>
            <Position>
              <LatitudeDegrees>42.96593212522566318511962890625</LatitudeDegrees>
              <LongitudeDegrees>-1.8393618799746036529541015625</LongitudeDegrees>
            </Position>
            <AltitudeMeters>511.600006103515625</AltitudeMeters>
            <DistanceMeters>NAN</DistanceMeters>
          </Trackpoint>
          <Trackpoint>
            <Time>2021-08-14T10:28:09.000Z</Time>
            <Position>
              <LatitudeDegrees>42.96591619960963726043701171875</LatitudeDegrees>
              <LongitudeDegrees>-1.8393625505268573760986328125</LongitudeDegrees>
            </Position>
            <AltitudeMeters>512.20001220703125</AltitudeMeters>
            <DistanceMeters>NAN</DistanceMeters>
          </Trackpoint>
          <Trackpoint>
            <Time>2021-08-14T10:28:10.000Z</Time>
            <Position>
              <LatitudeDegrees>42.9659030400216579437255859375</LatitudeDegrees>
              <LongitudeDegrees>-1.8393665738403797149658203125</LongitudeDegrees>
            </Position>
            <AltitudeMeters>512.20001220703125</AltitudeMeters>
            <DistanceMeters>NAN</DistanceMeters>
          </Trackpoint>
          <Trackpoint>
            <Time>2021-08-14T10:28:11.000Z</Time>
            <Position>
              <LatitudeDegrees>42.96589138917624950408935546875</LatitudeDegrees>
              <LongitudeDegrees>-1.83937168680131435394287109375</LongitudeDegrees>
            </Position>
            <AltitudeMeters>512.5999755859375</AltitudeMeters>
            <DistanceMeters>NAN</DistanceMeters>
          </Trackpoint>
          <Trackpoint>
            <Time>2021-08-14T10:28:12.000Z</Time>
            <Position>
              <LatitudeDegrees>42.96587169170379638671875</LatitudeDegrees>
              <LongitudeDegrees>-1.83938585221767425537109375</LongitudeDegrees>
            </Position>
            <AltitudeMeters>512.79998779296875</AltitudeMeters>
            <DistanceMeters>NAN</DistanceMeters>
          </Trackpoint>
          <Trackpoint>
            <Time>2021-08-14T10:28:13.000Z</Time>
            <Position>
              <LatitudeDegrees>42.96585719101130962371826171875</LatitudeDegrees>
              <LongitudeDegrees>-1.83939683251082897186279296875</LongitudeDegrees>
            </Position>
            <AltitudeMeters>513</AltitudeMeters>
            <DistanceMeters>NAN</DistanceMeters>
          </Trackpoint>
          <Trackpoint>
            <Time>2021-08-14T10:28:14.000Z</Time>
            <Position>
              <LatitudeDegrees>42.96584822237491607666015625</LatitudeDegrees>
              <LongitudeDegrees>-1.83939850889146327972412109375</LongitudeDegrees>
            </Position>
            <AltitudeMeters>513.4000244140625</AltitudeMeters>
            <DistanceMeters>NAN</DistanceMeters>
          </Trackpoint>
          <Trackpoint>
            <Time>2021-08-14T10:28:15.000Z</Time>
            <Position>
              <LatitudeDegrees>42.9658386670053005218505859375</LatitudeDegrees>
              <LongitudeDegrees>-1.839398257434368133544921875</LongitudeDegrees>
            </Position>
            <AltitudeMeters>513.4000244140625</AltitudeMeters>
            <DistanceMeters>NAN</DistanceMeters>
          </Trackpoint>
          <Trackpoint>
            <Time>2021-08-14T10:28:16.000Z</Time>
            <Position>
              <LatitudeDegrees>42.9658255912363529205322265625</LatitudeDegrees>
              <LongitudeDegrees>-1.83939867652952671051025390625</LongitudeDegrees>
            </Position>
            <AltitudeMeters>513.5999755859375</AltitudeMeters>
            <DistanceMeters>NAN</DistanceMeters>
          </Trackpoint>
          <Trackpoint>
            <Time>2021-08-14T10:28:17.000Z</Time>
            <Position>
              <LatitudeDegrees>42.965806983411312103271484375</LatitudeDegrees>
              <LongitudeDegrees>-1.839403621852397918701171875</LongitudeDegrees>
            </Position>
            <AltitudeMeters>513.79998779296875</AltitudeMeters>
            <DistanceMeters>NAN</DistanceMeters>
          </Trackpoint>
          <Trackpoint>
            <Time>2021-08-14T10:28:18.000Z</Time>
            <Position>
              <LatitudeDegrees>42.96578519046306610107421875</LatitudeDegrees>
              <LongitudeDegrees>-1.8394131772220134735107421875</LongitudeDegrees>
            </Position>
            <AltitudeMeters>514</AltitudeMeters>
            <DistanceMeters>NAN</DistanceMeters>
          </Trackpoint>
          <Trackpoint>
            <Time>2021-08-14T10:28:19.000Z</Time>
            <Position>
              <LatitudeDegrees>42.96577940694987773895263671875</LatitudeDegrees>
              <LongitudeDegrees>-1.83941560797393321990966796875</LongitudeDegrees>
            </Position>
            <AltitudeMeters>514.20001220703125</AltitudeMeters>
            <DistanceMeters>NAN</DistanceMeters>
          </Trackpoint>
          <Trackpoint>
            <Time>2021-08-14T10:28:20.000Z</Time>
            <Position>
              <LatitudeDegrees>42.965768091380596160888671875</LatitudeDegrees>
              <LongitudeDegrees>-1.839423067867755889892578125</LongitudeDegrees>
            </Position>
            <AltitudeMeters>514.4000244140625</AltitudeMeters>
            <DistanceMeters>NAN</DistanceMeters>
          </Trackpoint>
          <Trackpoint>
            <Time>2021-08-14T10:28:21.000Z</Time>
            <Position>
              <LatitudeDegrees>42.9657538421452045440673828125</LatitudeDegrees>
              <LongitudeDegrees>-1.83943103067576885223388671875</LongitudeDegrees>
            </Position>
            <AltitudeMeters>514.79998779296875</AltitudeMeters>
            <DistanceMeters>NAN</DistanceMeters>
          </Trackpoint>
          <Trackpoint>
            <Time>2021-08-14T10:28:22.000Z</Time>
            <Position>
              <LatitudeDegrees>42.96573330648243427276611328125</LatitudeDegrees>
              <LongitudeDegrees>-1.83944083750247955322265625</LongitudeDegrees>
            </Position>
            <AltitudeMeters>515</AltitudeMeters>
            <DistanceMeters>NAN</DistanceMeters>
          </Trackpoint>
          <Trackpoint>
            <Time>2021-08-14T10:28:23.000Z</Time>
            <Position>
              <LatitudeDegrees>42.9657161235809326171875</LatitudeDegrees>
              <LongitudeDegrees>-1.8394453637301921844482421875</LongitudeDegrees>
            </Position>
            <AltitudeMeters>515.5999755859375</AltitudeMeters>
            <DistanceMeters>NAN</DistanceMeters>
          </Trackpoint>
          <Trackpoint>
            <Time>2021-08-14T10:28:24.000Z</Time>
            <Position>
              <LatitudeDegrees>42.96569709666073322296142578125</LatitudeDegrees>
              <LongitudeDegrees>-1.83945667929947376251220703125</LongitudeDegrees>
            </Position>
            <AltitudeMeters>516</AltitudeMeters>
            <DistanceMeters>NAN</DistanceMeters>
          </Trackpoint>
          <Trackpoint>
            <Time>2021-08-14T10:28:25.000Z</Time>
            <Position>
              <LatitudeDegrees>42.96567521989345550537109375</LatitudeDegrees>
              <LongitudeDegrees>-1.83946765959262847900390625</LongitudeDegrees>
            </Position>
            <AltitudeMeters>516.5999755859375</AltitudeMeters>
            <DistanceMeters>NAN</DistanceMeters>
          </Trackpoint>
          <Trackpoint>
            <Time>2021-08-14T10:28:26.000Z</Time>
            <Position>
              <LatitudeDegrees>42.96566004864871501922607421875</LatitudeDegrees>
              <LongitudeDegrees>-1.83947034180164337158203125</LongitudeDegrees>
            </Position>
            <AltitudeMeters>516.79998779296875</AltitudeMeters>
            <DistanceMeters>NAN</DistanceMeters>
          </Trackpoint>
          <Trackpoint>
            <Time>2021-08-14T10:28:27.000Z</Time>
            <Position>
              <LatitudeDegrees>42.96564177609980106353759765625</LatitudeDegrees>
              <LongitudeDegrees>-1.8394782207906246185302734375</LongitudeDegrees>
            </Position>
            <AltitudeMeters>517</AltitudeMeters>
            <DistanceMeters>NAN</DistanceMeters>
          </Trackpoint>
          <Trackpoint>
            <Time>2021-08-14T10:28:28.000Z</Time>
            <Position>
              <LatitudeDegrees>42.965627275407314300537109375</LatitudeDegrees>
              <LongitudeDegrees>-1.8394819088280200958251953125</LongitudeDegrees>
            </Position>
            <AltitudeMeters>517.4000244140625</AltitudeMeters>
            <DistanceMeters>NAN</DistanceMeters>
          </Trackpoint>
          <Trackpoint>
            <Time>2021-08-14T10:28:29.000Z</Time>
            <Position>
              <LatitudeDegrees>42.96561143361032009124755859375</LatitudeDegrees>
              <LongitudeDegrees>-1.839482747018337249755859375</LongitudeDegrees>
            </Position>
            <AltitudeMeters>517.79998779296875</AltitudeMeters>
            <DistanceMeters>NAN</DistanceMeters>
          </Trackpoint>
          <Trackpoint>
            <Time>2021-08-14T10:28:30.000Z</Time>
            <Position>
              <LatitudeDegrees>42.9656033031642436981201171875</LatitudeDegrees>
              <LongitudeDegrees>-1.83948148973286151885986328125</LongitudeDegrees>
            </Position>
            <AltitudeMeters>518</AltitudeMeters>
            <DistanceMeters>NAN</DistanceMeters>
          </Trackpoint>
          <Trackpoint>
            <Time>2021-08-14T10:28:31.000Z</Time>
            <Position>
              <LatitudeDegrees>42.96559475362300872802734375</LatitudeDegrees>
              <LongitudeDegrees>-1.8394710123538970947265625</LongitudeDegrees>
            </Position>
            <AltitudeMeters>518.20001220703125</AltitudeMeters>
            <DistanceMeters>NAN</DistanceMeters>
          </Trackpoint>
          <Trackpoint>
            <Time>2021-08-14T10:28:32.000Z</Time>
            <Position>
              <LatitudeDegrees>42.96558444388210773468017578125</LatitudeDegrees>
              <LongitudeDegrees>-1.839466653764247894287109375</LongitudeDegrees>
            </Position>
            <AltitudeMeters>518.5999755859375</AltitudeMeters>
            <DistanceMeters>NAN</DistanceMeters>
          </Trackpoint>
          <Trackpoint>
            <Time>2021-08-14T10:28:33.000Z</Time>
            <Position>
              <LatitudeDegrees>42.96558511443436145782470703125</LatitudeDegrees>
              <LongitudeDegrees>-1.8394549190998077392578125</LongitudeDegrees>
            </Position>
            <AltitudeMeters>518.79998779296875</AltitudeMeters>
            <DistanceMeters>NAN</DistanceMeters>
          </Trackpoint>
          <Trackpoint>
            <Time>2021-08-14T10:28:34.000Z</Time>
            <Position>
              <LatitudeDegrees>42.96558880247175693511962890625</LatitudeDegrees>
              <LongitudeDegrees>-1.83943723328411579132080078125</LongitudeDegrees>
            </Position>
            <AltitudeMeters>519</AltitudeMeters>
            <DistanceMeters>NAN</DistanceMeters>
          </Trackpoint>
          <Trackpoint>
            <Time>2021-08-14T10:28:35.000Z</Time>
            <Position>
              <LatitudeDegrees>42.96558645553886890411376953125</LatitudeDegrees>
              <LongitudeDegrees>-1.83942013420164585113525390625</LongitudeDegrees>
            </Position>
            <AltitudeMeters>519.20001220703125</AltitudeMeters>
            <DistanceMeters>NAN</DistanceMeters>
          </Trackpoint>
          <Trackpoint>
            <Time>2021-08-14T10:28:36.000Z</Time>
            <Position>
              <LatitudeDegrees>42.965580336749553680419921875</LatitudeDegrees>
              <LongitudeDegrees>-1.83940186165273189544677734375</LongitudeDegrees>
            </Position>
            <AltitudeMeters>519.4000244140625</AltitudeMeters>
            <DistanceMeters>NAN</DistanceMeters>
          </Trackpoint>
          <Trackpoint>
            <Time>2021-08-14T10:28:37.000Z</Time>
            <Position>
              <LatitudeDegrees>42.96557606197893619537353515625</LatitudeDegrees>
              <LongitudeDegrees>-1.83938811533153057098388671875</LongitudeDegrees>
            </Position>
            <AltitudeMeters>519.5999755859375</AltitudeMeters>
            <DistanceMeters>NAN</DistanceMeters>
          </Trackpoint>
          <Trackpoint>
            <Time>2021-08-14T10:28:38.000Z</Time>
            <Position>
              <LatitudeDegrees>42.96557807363569736480712890625</LatitudeDegrees>
              <LongitudeDegrees>-1.83937554247677326202392578125</LongitudeDegrees>
            </Position>
            <AltitudeMeters>519.5999755859375</AltitudeMeters>
            <DistanceMeters>NAN</DistanceMeters>
          </Trackpoint>
          <Trackpoint>
            <Time>2021-08-14T10:28:39.000Z</Time>
            <Position>
              <LatitudeDegrees>42.96558092348277568817138671875</LatitudeDegrees>
              <LongitudeDegrees>-1.83936079032719135284423828125</LongitudeDegrees>
            </Position>
            <AltitudeMeters>520</AltitudeMeters>
            <DistanceMeters>NAN</DistanceMeters>
          </Trackpoint>
          <Trackpoint>
            <Time>2021-08-14T10:28:40.000Z</Time>
            <Position>
              <LatitudeDegrees>42.96558058820664882659912109375</LatitudeDegrees>
              <LongitudeDegrees>-1.839343607425689697265625</LongitudeDegrees>
            </Position>
            <AltitudeMeters>520</AltitudeMeters>
            <DistanceMeters>NAN</DistanceMeters>
          </Trackpoint>
          <Trackpoint>
            <Time>2021-08-14T10:28:41.000Z</Time>
            <Position>
              <LatitudeDegrees>42.965578325092792510986328125</LatitudeDegrees>
              <LongitudeDegrees>-1.83932491578161716461181640625</LongitudeDegrees>
            </Position>
            <AltitudeMeters>520.20001220703125</AltitudeMeters>
            <DistanceMeters>NAN</DistanceMeters>
          </Trackpoint>
          <Trackpoint>
            <Time>2021-08-14T10:28:42.000Z</Time>
            <Position>
              <LatitudeDegrees>42.9655831865966320037841796875</LatitudeDegrees>
              <LongitudeDegrees>-1.8393102474510669708251953125</LongitudeDegrees>
            </Position>
            <AltitudeMeters>520.20001220703125</AltitudeMeters>
            <DistanceMeters>NAN</DistanceMeters>
          </Trackpoint>
          <Trackpoint>
            <Time>2021-08-14T10:28:43.000Z</Time>
            <Position>
              <LatitudeDegrees>42.96558192931115627288818359375</LatitudeDegrees>
              <LongitudeDegrees>-1.83929197490215301513671875</LongitudeDegrees>
            </Position>
            <AltitudeMeters>520.5999755859375</AltitudeMeters>
            <DistanceMeters>NAN</DistanceMeters>
          </Trackpoint>
          <Trackpoint>
            <Time>2021-08-14T10:28:44.000Z</Time>
            <Position>
              <LatitudeDegrees>42.9655811749398708343505859375</LatitudeDegrees>
              <LongitudeDegrees>-1.839276887476444244384765625</LongitudeDegrees>
            </Position>
            <AltitudeMeters>520.79998779296875</AltitudeMeters>
            <DistanceMeters>NAN</DistanceMeters>
          </Trackpoint>
          <Trackpoint>
            <Time>2021-08-14T10:28:45.000Z</Time>
            <Position>
              <LatitudeDegrees>42.9655815102159976959228515625</LatitudeDegrees>
              <LongitudeDegrees>-1.83925953693687915802001953125</LongitudeDegrees>
            </Position>
            <AltitudeMeters>521</AltitudeMeters>
            <DistanceMeters>NAN</DistanceMeters>
          </Trackpoint>
          <Trackpoint>
            <Time>2021-08-14T10:28:46.000Z</Time>
            <Position>
              <LatitudeDegrees>42.96558226458728313446044921875</LatitudeDegrees>
              <LongitudeDegrees>-1.83924512006342411041259765625</LongitudeDegrees>
            </Position>
            <AltitudeMeters>521.20001220703125</AltitudeMeters>
            <DistanceMeters>NAN</DistanceMeters>
          </Trackpoint>
          <Trackpoint>
            <Time>2021-08-14T10:28:47.000Z</Time>
            <Position>
              <LatitudeDegrees>42.96558444388210773468017578125</LatitudeDegrees>
              <LongitudeDegrees>-1.83922919444739818572998046875</LongitudeDegrees>
            </Position>
            <AltitudeMeters>521.4000244140625</AltitudeMeters>
            <DistanceMeters>NAN</DistanceMeters>
          </Trackpoint>
          <Trackpoint>
            <Time>2021-08-14T10:28:48.000Z</Time>
            <Position>
              <LatitudeDegrees>42.96558544971048831939697265625</LatitudeDegrees>
              <LongitudeDegrees>-1.83921360410749912261962890625</LongitudeDegrees>
            </Position>
            <AltitudeMeters>521.5999755859375</AltitudeMeters>
            <DistanceMeters>NAN</DistanceMeters>
          </Trackpoint>
          <Trackpoint>
            <Time>2021-08-14T10:28:49.000Z</Time>
            <Position>
              <LatitudeDegrees>42.96558561734855175018310546875</LatitudeDegrees>
              <LongitudeDegrees>-1.839198432862758636474609375</LongitudeDegrees>
            </Position>
            <AltitudeMeters>521.5999755859375</AltitudeMeters>
            <DistanceMeters>NAN</DistanceMeters>
          </Trackpoint>
          <Trackpoint>
            <Time>2021-08-14T10:28:50.000Z</Time>
            <Position>
              <LatitudeDegrees>42.965586371719837188720703125</LatitudeDegrees>
              <LongitudeDegrees>-1.8391865305602550506591796875</LongitudeDegrees>
            </Position>
            <AltitudeMeters>521.5999755859375</AltitudeMeters>
            <DistanceMeters>NAN</DistanceMeters>
          </Trackpoint>
          <Trackpoint>
            <Time>2021-08-14T10:28:51.000Z</Time>
            <Position>
              <LatitudeDegrees>42.96558913774788379669189453125</LatitudeDegrees>
              <LongitudeDegrees>-1.83917571790516376495361328125</LongitudeDegrees>
            </Position>
            <AltitudeMeters>521.79998779296875</AltitudeMeters>
            <DistanceMeters>NAN</DistanceMeters>
          </Trackpoint>
          <Trackpoint>
            <Time>2021-08-14T10:28:52.000Z</Time>
            <Position>
              <LatitudeDegrees>42.96559064649045467376708984375</LatitudeDegrees>
              <LongitudeDegrees>-1.83915778063237667083740234375</LongitudeDegrees>
            </Position>
            <AltitudeMeters>521.79998779296875</AltitudeMeters>
            <DistanceMeters>NAN</DistanceMeters>
          </Trackpoint>
          <Trackpoint>
            <Time>2021-08-14T10:28:53.000Z</Time>
            <Position>
              <LatitudeDegrees>42.96559282578527927398681640625</LatitudeDegrees>
              <LongitudeDegrees>-1.83914587832987308502197265625</LongitudeDegrees>
            </Position>
            <AltitudeMeters>521.79998779296875</AltitudeMeters>
            <DistanceMeters>NAN</DistanceMeters>
          </Trackpoint>
          <Trackpoint>
            <Time>2021-08-14T10:28:54.000Z</Time>
            <Position>
              <LatitudeDegrees>42.9655898921191692352294921875</LatitudeDegrees>
              <LongitudeDegrees>-1.83913095854222774505615234375</LongitudeDegrees>
            </Position>
            <AltitudeMeters>521.79998779296875</AltitudeMeters>
            <DistanceMeters>NAN</DistanceMeters>
          </Trackpoint>
          <Trackpoint>
            <Time>2021-08-14T10:28:55.000Z</Time>
            <Position>
              <LatitudeDegrees>42.96558595262467861175537109375</LatitudeDegrees>
              <LongitudeDegrees>-1.83911939151585102081298828125</LongitudeDegrees>
            </Position>
            <AltitudeMeters>521.79998779296875</AltitudeMeters>
            <DistanceMeters>NAN</DistanceMeters>
          </Trackpoint>
          <Trackpoint>
            <Time>2021-08-14T10:28:56.000Z</Time>
            <Position>
              <LatitudeDegrees>42.965578995645046234130859375</LatitudeDegrees>
              <LongitudeDegrees>-1.83910899795591831207275390625</LongitudeDegrees>
            </Position>
            <AltitudeMeters>521.79998779296875</AltitudeMeters>
            <DistanceMeters>NAN</DistanceMeters>
          </Trackpoint>
          <Trackpoint>
            <Time>2021-08-14T10:28:57.000Z</Time>
            <Position>
              <LatitudeDegrees>42.9655701108276844024658203125</LatitudeDegrees>
              <LongitudeDegrees>-1.839091815054416656494140625</LongitudeDegrees>
            </Position>
            <AltitudeMeters>521.79998779296875</AltitudeMeters>
            <DistanceMeters>NAN</DistanceMeters>
          </Trackpoint>
          <Trackpoint>
            <Time>2021-08-14T10:28:58.000Z</Time>
            <Position>
              <LatitudeDegrees>42.96555988490581512451171875</LatitudeDegrees>
              <LongitudeDegrees>-1.83907245285809040069580078125</LongitudeDegrees>
            </Position>
            <AltitudeMeters>521.79998779296875</AltitudeMeters>
            <DistanceMeters>NAN</DistanceMeters>
          </Trackpoint>
          <Trackpoint>
            <Time>2021-08-14T10:28:59.000Z</Time>
            <Position>
              <LatitudeDegrees>42.96554454602301120758056640625</LatitudeDegrees>
              <LongitudeDegrees>-1.8390554375946521759033203125</LongitudeDegrees>
            </Position>
            <AltitudeMeters>521.79998779296875</AltitudeMeters>
            <DistanceMeters>NAN</DistanceMeters>
          </Trackpoint>
          <Trackpoint>
            <Time>2021-08-14T10:29:00.000Z</Time>
            <Position>
              <LatitudeDegrees>42.96553306281566619873046875</LatitudeDegrees>
              <LongitudeDegrees>-1.83904043398797512054443359375</LongitudeDegrees>
            </Position>
            <AltitudeMeters>522</AltitudeMeters>
            <DistanceMeters>NAN</DistanceMeters>
          </Trackpoint>
          <Trackpoint>
            <Time>2021-08-14T10:29:01.000Z</Time>
            <Position>
              <LatitudeDegrees>42.96552526764571666717529296875</LatitudeDegrees>
              <LongitudeDegrees>-1.83902299962937831878662109375</LongitudeDegrees>
            </Position>
            <AltitudeMeters>522</AltitudeMeters>
            <DistanceMeters>NAN</DistanceMeters>
          </Trackpoint>
          <Trackpoint>
            <Time>2021-08-14T10:29:02.000Z</Time>
            <Position>
              <LatitudeDegrees>42.96551638282835483551025390625</LatitudeDegrees>
              <LongitudeDegrees>-1.839011013507843017578125</LongitudeDegrees>
            </Position>
            <AltitudeMeters>522</AltitudeMeters>
            <DistanceMeters>NAN</DistanceMeters>
          </Trackpoint>
          <Trackpoint>
            <Time>2021-08-14T10:29:03.000Z</Time>
            <Position>
              <LatitudeDegrees>42.965504229068756103515625</LatitudeDegrees>
              <LongitudeDegrees>-1.83899366296827793121337890625</LongitudeDegrees>
            </Position>
            <AltitudeMeters>522</AltitudeMeters>
            <DistanceMeters>NAN</DistanceMeters>
          </Trackpoint>
          <Trackpoint>
            <Time>2021-08-14T10:29:04.000Z</Time>
            <Position>
              <LatitudeDegrees>42.96549006365239620208740234375</LatitudeDegrees>
              <LongitudeDegrees>-1.8389783240854740142822265625</LongitudeDegrees>
            </Position>
            <AltitudeMeters>522.20001220703125</AltitudeMeters>
            <DistanceMeters>NAN</DistanceMeters>
          </Trackpoint>
          <Trackpoint>
            <Time>2021-08-14T10:29:05.000Z</Time>
            <Position>
              <LatitudeDegrees>42.96547866426408290863037109375</LatitudeDegrees>
              <LongitudeDegrees>-1.83896005153656005859375</LongitudeDegrees>
            </Position>
            <AltitudeMeters>522.20001220703125</AltitudeMeters>
            <DistanceMeters>NAN</DistanceMeters>
          </Trackpoint>
          <Trackpoint>
            <Time>2021-08-14T10:29:06.000Z</Time>
            <Position>
              <LatitudeDegrees>42.96546676196157932281494140625</LatitudeDegrees>
              <LongitudeDegrees>-1.83893733657896518707275390625</LongitudeDegrees>
            </Position>
            <AltitudeMeters>522.4000244140625</AltitudeMeters>
            <DistanceMeters>NAN</DistanceMeters>
          </Trackpoint>
          <Trackpoint>
            <Time>2021-08-14T10:29:07.000Z</Time>
            <Position>
              <LatitudeDegrees>42.96545502729713916778564453125</LatitudeDegrees>
              <LongitudeDegrees>-1.83892392553389072418212890625</LongitudeDegrees>
            </Position>
            <AltitudeMeters>522.5999755859375</AltitudeMeters>
            <DistanceMeters>NAN</DistanceMeters>
          </Trackpoint>
          <Trackpoint>
            <Time>2021-08-14T10:29:08.000Z</Time>
            <Position>
              <LatitudeDegrees>42.96544396318495273590087890625</LatitudeDegrees>
              <LongitudeDegrees>-1.83891135267913341522216796875</LongitudeDegrees>
            </Position>
            <AltitudeMeters>522.5999755859375</AltitudeMeters>
            <DistanceMeters>NAN</DistanceMeters>
          </Trackpoint>
          <Trackpoint>
            <Time>2021-08-14T10:29:10.000Z</Time>
            <Position>
              <LatitudeDegrees>42.965418063104152679443359375</LatitudeDegrees>
              <LongitudeDegrees>-1.83887958526611328125</LongitudeDegrees>
            </Position>
            <AltitudeMeters>522.5999755859375</AltitudeMeters>
            <DistanceMeters>NAN</DistanceMeters>
          </Trackpoint>
          <Trackpoint>
            <Time>2021-08-14T10:29:13.000Z</Time>
            <Position>
              <LatitudeDegrees>42.96537724323570728302001953125</LatitudeDegrees>
              <LongitudeDegrees>-1.838820241391658782958984375</LongitudeDegrees>
            </Position>
            <AltitudeMeters>523</AltitudeMeters>
            <DistanceMeters>NAN</DistanceMeters>
          </Trackpoint>
          <Trackpoint>
            <Time>2021-08-14T10:29:14.000Z</Time>
            <Position>
              <LatitudeDegrees>42.96536534093320369720458984375</LatitudeDegrees>
              <LongitudeDegrees>-1.8387972749769687652587890625</LongitudeDegrees>
            </Position>
            <AltitudeMeters>523.4000244140625</AltitudeMeters>
            <DistanceMeters>NAN</DistanceMeters>
          </Trackpoint>
          <Trackpoint>
            <Time>2021-08-14T10:29:18.000Z</Time>
            <Position>
              <LatitudeDegrees>42.9653097689151763916015625</LatitudeDegrees>
              <LongitudeDegrees>-1.8387298844754695892333984375</LongitudeDegrees>
            </Position>
            <AltitudeMeters>524.20001220703125</AltitudeMeters>
            <DistanceMeters>NAN</DistanceMeters>
          </Trackpoint>
          <Trackpoint>
            <Time>2021-08-14T10:29:20.000Z</Time>
            <Position>
              <LatitudeDegrees>42.96530415304005146026611328125</LatitudeDegrees>
              <LongitudeDegrees>-1.83869007043540477752685546875</LongitudeDegrees>
            </Position>
            <AltitudeMeters>524.5999755859375</AltitudeMeters>
            <DistanceMeters>NAN</DistanceMeters>
          </Trackpoint>
          <Trackpoint>
            <Time>2021-08-14T10:29:21.000Z</Time>
            <Position>
              <LatitudeDegrees>42.96529510058462619781494140625</LatitudeDegrees>
              <LongitudeDegrees>-1.838664002716541290283203125</LongitudeDegrees>
            </Position>
            <AltitudeMeters>524.5999755859375</AltitudeMeters>
            <DistanceMeters>NAN</DistanceMeters>
          </Trackpoint>
          <Trackpoint>
            <Time>2021-08-14T10:29:22.000Z</Time>
            <Position>
              <LatitudeDegrees>42.96528973616659641265869140625</LatitudeDegrees>
              <LongitudeDegrees>-1.8386390246450901031494140625</LongitudeDegrees>
            </Position>
            <AltitudeMeters>524.79998779296875</AltitudeMeters>
            <DistanceMeters>NAN</DistanceMeters>
          </Trackpoint>
          <Trackpoint>
            <Time>2021-08-14T10:29:23.000Z</Time>
            <Position>
              <LatitudeDegrees>42.96527431346476078033447265625</LatitudeDegrees>
              <LongitudeDegrees>-1.83861798606812953948974609375</LongitudeDegrees>
            </Position>
            <AltitudeMeters>525</AltitudeMeters>
            <DistanceMeters>NAN</DistanceMeters>
          </Trackpoint>
          <Trackpoint>
            <Time>2021-08-14T10:29:24.000Z</Time>
            <Position>
              <LatitudeDegrees>42.96526978723704814910888671875</LatitudeDegrees>
              <LongitudeDegrees>-1.83860507793724536895751953125</LongitudeDegrees>
            </Position>
            <AltitudeMeters>525</AltitudeMeters>
            <DistanceMeters>NAN</DistanceMeters>
          </Trackpoint>
          <Trackpoint>
            <Time>2021-08-14T10:29:25.000Z</Time>
            <Position>
              <LatitudeDegrees>42.96525687910616397857666015625</LatitudeDegrees>
              <LongitudeDegrees>-1.83858931995928287506103515625</LongitudeDegrees>
            </Position>
            <AltitudeMeters>525.20001220703125</AltitudeMeters>
            <DistanceMeters>NAN</DistanceMeters>
          </Trackpoint>
          <Trackpoint>
            <Time>2021-08-14T10:29:26.000Z</Time>
            <Position>
              <LatitudeDegrees>42.9652428813278675079345703125</LatitudeDegrees>
              <LongitudeDegrees>-1.83857104741036891937255859375</LongitudeDegrees>
            </Position>
            <AltitudeMeters>525.4000244140625</AltitudeMeters>
            <DistanceMeters>NAN</DistanceMeters>
          </Trackpoint>
          <Trackpoint>
            <Time>2021-08-14T10:29:27.000Z</Time>
            <Position>
              <LatitudeDegrees>42.9652348347008228302001953125</LatitudeDegrees>
              <LongitudeDegrees>-1.83855713345110416412353515625</LongitudeDegrees>
            </Position>
            <AltitudeMeters>525.4000244140625</AltitudeMeters>
            <DistanceMeters>NAN</DistanceMeters>
          </Trackpoint>
          <Trackpoint>
            <Time>2021-08-14T10:29:28.000Z</Time>
            <Position>
              <LatitudeDegrees>42.96521815471351146697998046875</LatitudeDegrees>
              <LongitudeDegrees>-1.83853148482739925384521484375</LongitudeDegrees>
            </Position>
            <AltitudeMeters>525.4000244140625</AltitudeMeters>
            <DistanceMeters>NAN</DistanceMeters>
          </Trackpoint>
          <Trackpoint>
            <Time>2021-08-14T10:29:29.000Z</Time>
            <Position>
              <LatitudeDegrees>42.96520122326910495758056640625</LatitudeDegrees>
              <LongitudeDegrees>-1.83850717730820178985595703125</LongitudeDegrees>
            </Position>
            <AltitudeMeters>525.4000244140625</AltitudeMeters>
            <DistanceMeters>NAN</DistanceMeters>
          </Trackpoint>
          <Trackpoint>
            <Time>2021-08-14T10:29:30.000Z</Time>
            <Position>
              <LatitudeDegrees>42.9651932604610919952392578125</LatitudeDegrees>
              <LongitudeDegrees>-1.83849443681538105010986328125</LongitudeDegrees>
            </Position>
            <AltitudeMeters>525.4000244140625</AltitudeMeters>
            <DistanceMeters>NAN</DistanceMeters>
          </Trackpoint>
          <Trackpoint>
            <Time>2021-08-14T10:29:31.000Z</Time>
            <Position>
              <LatitudeDegrees>42.96518680639564990997314453125</LatitudeDegrees>
              <LongitudeDegrees>-1.8384844623506069183349609375</LongitudeDegrees>
            </Position>
            <AltitudeMeters>525.5999755859375</AltitudeMeters>
            <DistanceMeters>NAN</DistanceMeters>
          </Trackpoint>
          <Trackpoint>
            <Time>2021-08-14T10:29:32.000Z</Time>
            <Position>
              <LatitudeDegrees>42.96518160961568355560302734375</LatitudeDegrees>
              <LongitudeDegrees>-1.8384760804474353790283203125</LongitudeDegrees>
            </Position>
            <AltitudeMeters>525.5999755859375</AltitudeMeters>
            <DistanceMeters>NAN</DistanceMeters>
          </Trackpoint>
          <Trackpoint>
            <Time>2021-08-14T10:29:33.000Z</Time>
            <Position>
              <LatitudeDegrees>42.9651676118373870849609375</LatitudeDegrees>
              <LongitudeDegrees>-1.83846560306847095489501953125</LongitudeDegrees>
            </Position>
            <AltitudeMeters>525.5999755859375</AltitudeMeters>
            <DistanceMeters>NAN</DistanceMeters>
          </Trackpoint>
          <Trackpoint>
            <Time>2021-08-14T10:29:34.000Z</Time>
            <Position>
              <LatitudeDegrees>42.9651614092290401458740234375</LatitudeDegrees>
              <LongitudeDegrees>-1.838462837040424346923828125</LongitudeDegrees>
            </Position>
            <AltitudeMeters>525.5999755859375</AltitudeMeters>
            <DistanceMeters>NAN</DistanceMeters>
          </Trackpoint>
          <Trackpoint>
            <Time>2021-08-14T10:29:35.000Z</Time>
            <Position>
              <LatitudeDegrees>42.9651614092290401458740234375</LatitudeDegrees>
              <LongitudeDegrees>-1.838462837040424346923828125</LongitudeDegrees>
            </Position>
            <AltitudeMeters>525.79998779296875</AltitudeMeters>
            <DistanceMeters>NAN</DistanceMeters>
          </Trackpoint>
          <Trackpoint>
            <Time>2021-08-14T10:29:40.000Z</Time>
            <Position>
              <LatitudeDegrees>42.9651614092290401458740234375</LatitudeDegrees>
              <LongitudeDegrees>-1.838462837040424346923828125</LongitudeDegrees>
            </Position>
            <AltitudeMeters>525.79998779296875</AltitudeMeters>
            <DistanceMeters>NAN</DistanceMeters>
          </Trackpoint>
          <Trackpoint>
            <Time>2021-08-14T10:29:44.000Z</Time>
            <Position>
              <LatitudeDegrees>42.965168617665767669677734375</LatitudeDegrees>
              <LongitudeDegrees>-1.838458143174648284912109375</LongitudeDegrees>
            </Position>
            <AltitudeMeters>526.20001220703125</AltitudeMeters>
            <DistanceMeters>NAN</DistanceMeters>
          </Trackpoint>
          <Trackpoint>
            <Time>2021-08-14T10:29:53.000Z</Time>
            <Position>
              <LatitudeDegrees>42.965171299874782562255859375</LatitudeDegrees>
              <LongitudeDegrees>-1.83845655061304569244384765625</LongitudeDegrees>
            </Position>
            <AltitudeMeters>526.20001220703125</AltitudeMeters>
            <DistanceMeters>NAN</DistanceMeters>
          </Trackpoint>
          <Trackpoint>
            <Time>2021-08-14T10:31:49.000Z</Time>
            <Position>
              <LatitudeDegrees>42.965171299874782562255859375</LatitudeDegrees>
              <LongitudeDegrees>-1.83845655061304569244384765625</LongitudeDegrees>
            </Position>
            <AltitudeMeters>526.20001220703125</AltitudeMeters>
            <DistanceMeters>NAN</DistanceMeters>
          </Trackpoint>
          <Trackpoint>
            <Time>2021-08-14T10:35:04.000Z</Time>
            <Position>
              <LatitudeDegrees>42.96515964902937412261962890625</LatitudeDegrees>
              <LongitudeDegrees>-1.83842151425778865814208984375</LongitudeDegrees>
            </Position>
            <AltitudeMeters>525.79998779296875</AltitudeMeters>
            <DistanceMeters>NAN</DistanceMeters>
          </Trackpoint>
          <Trackpoint>
            <Time>2021-08-14T10:35:05.000Z</Time>
            <Position>
              <LatitudeDegrees>42.96514607034623622894287109375</LatitudeDegrees>
              <LongitudeDegrees>-1.8384003080427646636962890625</LongitudeDegrees>
            </Position>
            <AltitudeMeters>525.79998779296875</AltitudeMeters>
            <DistanceMeters>NAN</DistanceMeters>
          </Trackpoint>
          <Trackpoint>
            <Time>2021-08-14T10:35:06.000Z</Time>
            <Position>
              <LatitudeDegrees>42.965137772262096405029296875</LatitudeDegrees>
              <LongitudeDegrees>-1.83837323449552059173583984375</LongitudeDegrees>
            </Position>
            <AltitudeMeters>526</AltitudeMeters>
            <DistanceMeters>NAN</DistanceMeters>
          </Trackpoint>
          <Trackpoint>
            <Time>2021-08-14T10:35:09.000Z</Time>
            <Position>
              <LatitudeDegrees>42.96511405147612094879150390625</LatitudeDegrees>
              <LongitudeDegrees>-1.83829729445278644561767578125</LongitudeDegrees>
            </Position>
            <AltitudeMeters>526.20001220703125</AltitudeMeters>
            <DistanceMeters>NAN</DistanceMeters>
          </Trackpoint>
          <Trackpoint>
            <Time>2021-08-14T10:35:13.000Z</Time>
            <Position>
              <LatitudeDegrees>42.96505965292453765869140625</LatitudeDegrees>
              <LongitudeDegrees>-1.83815111406147480010986328125</LongitudeDegrees>
            </Position>
            <AltitudeMeters>526.5999755859375</AltitudeMeters>
            <DistanceMeters>NAN</DistanceMeters>
          </Trackpoint>
          <Trackpoint>
            <Time>2021-08-14T10:35:14.000Z</Time>
            <Position>
              <LatitudeDegrees>42.9650326631963253021240234375</LatitudeDegrees>
              <LongitudeDegrees>-1.83811389841139316558837890625</LongitudeDegrees>
            </Position>
            <AltitudeMeters>526.5999755859375</AltitudeMeters>
            <DistanceMeters>NAN</DistanceMeters>
          </Trackpoint>
          <Trackpoint>
            <Time>2021-08-14T10:35:15.000Z</Time>
            <Position>
              <LatitudeDegrees>42.96501900069415569305419921875</LatitudeDegrees>
              <LongitudeDegrees>-1.83808187954127788543701171875</LongitudeDegrees>
            </Position>
            <AltitudeMeters>526.5999755859375</AltitudeMeters>
            <DistanceMeters>NAN</DistanceMeters>
          </Trackpoint>
          <Trackpoint>
            <Time>2021-08-14T10:35:16.000Z</Time>
            <Position>
              <LatitudeDegrees>42.96501380391418933868408203125</LatitudeDegrees>
              <LongitudeDegrees>-1.8380532972514629364013671875</LongitudeDegrees>
            </Position>
            <AltitudeMeters>526.79998779296875</AltitudeMeters>
            <DistanceMeters>NAN</DistanceMeters>
          </Trackpoint>
          <Trackpoint>
            <Time>2021-08-14T10:35:17.000Z</Time>
            <Position>
              <LatitudeDegrees>42.96500734984874725341796875</LatitudeDegrees>
              <LongitudeDegrees>-1.8380221165716648101806640625</LongitudeDegrees>
            </Position>
            <AltitudeMeters>526.79998779296875</AltitudeMeters>
            <DistanceMeters>NAN</DistanceMeters>
          </Trackpoint>
          <Trackpoint>
            <Time>2021-08-14T10:35:18.000Z</Time>
            <Position>
              <LatitudeDegrees>42.9650001414120197296142578125</LatitudeDegrees>
              <LongitudeDegrees>-1.8379885889589786529541015625</LongitudeDegrees>
            </Position>
            <AltitudeMeters>526.79998779296875</AltitudeMeters>
            <DistanceMeters>NAN</DistanceMeters>
          </Trackpoint>
          <Trackpoint>
            <Time>2021-08-14T10:35:19.000Z</Time>
            <Position>
              <LatitudeDegrees>42.964986898005008697509765625</LatitudeDegrees>
              <LongitudeDegrees>-1.83796201832592487335205078125</LongitudeDegrees>
            </Position>
            <AltitudeMeters>526.79998779296875</AltitudeMeters>
            <DistanceMeters>NAN</DistanceMeters>
          </Trackpoint>
          <Trackpoint>
            <Time>2021-08-14T10:35:20.000Z</Time>
            <Position>
              <LatitudeDegrees>42.96496770344674587249755859375</LatitudeDegrees>
              <LongitudeDegrees>-1.83792882598936557769775390625</LongitudeDegrees>
            </Position>
            <AltitudeMeters>526.79998779296875</AltitudeMeters>
            <DistanceMeters>NAN</DistanceMeters>
          </Trackpoint>
          <Trackpoint>
            <Time>2021-08-14T10:35:21.000Z</Time>
            <Position>
              <LatitudeDegrees>42.96495177783071994781494140625</LatitudeDegrees>
              <LongitudeDegrees>-1.83789915405213832855224609375</LongitudeDegrees>
            </Position>
            <AltitudeMeters>526.79998779296875</AltitudeMeters>
            <DistanceMeters>NAN</DistanceMeters>
          </Trackpoint>
          <Trackpoint>
            <Time>2021-08-14T10:35:22.000Z</Time>
            <Position>
              <LatitudeDegrees>42.9649387858808040618896484375</LatitudeDegrees>
              <LongitudeDegrees>-1.8378658778965473175048828125</LongitudeDegrees>
            </Position>
            <AltitudeMeters>526.79998779296875</AltitudeMeters>
            <DistanceMeters>NAN</DistanceMeters>
          </Trackpoint>
          <Trackpoint>
            <Time>2021-08-14T10:35:24.000Z</Time>
            <Position>
              <LatitudeDegrees>42.96491657383739948272705078125</LatitudeDegrees>
              <LongitudeDegrees>-1.8378053605556488037109375</LongitudeDegrees>
            </Position>
            <AltitudeMeters>527</AltitudeMeters>
            <DistanceMeters>NAN</DistanceMeters>
          </Trackpoint>
          <Trackpoint>
            <Time>2021-08-14T10:35:26.000Z</Time>
            <Position>
              <LatitudeDegrees>42.96488069929182529449462890625</LatitudeDegrees>
              <LongitudeDegrees>-1.8377233855426311492919921875</LongitudeDegrees>
            </Position>
            <AltitudeMeters>527</AltitudeMeters>
            <DistanceMeters>NAN</DistanceMeters>
          </Trackpoint>
          <Trackpoint>
            <Time>2021-08-14T10:35:27.000Z</Time>
            <Position>
              <LatitudeDegrees>42.96485924161970615386962890625</LatitudeDegrees>
              <LongitudeDegrees>-1.83768407441675662994384765625</LongitudeDegrees>
            </Position>
            <AltitudeMeters>527</AltitudeMeters>
            <DistanceMeters>NAN</DistanceMeters>
          </Trackpoint>
          <Trackpoint>
            <Time>2021-08-14T10:35:28.000Z</Time>
            <Position>
              <LatitudeDegrees>42.96482403762638568878173828125</LatitudeDegrees>
              <LongitudeDegrees>-1.83764048852026462554931640625</LongitudeDegrees>
            </Position>
            <AltitudeMeters>527</AltitudeMeters>
            <DistanceMeters>NAN</DistanceMeters>
          </Trackpoint>
          <Trackpoint>
            <Time>2021-08-14T10:35:31.000Z</Time>
            <Position>
              <LatitudeDegrees>42.96470149420201778411865234375</LatitudeDegrees>
              <LongitudeDegrees>-1.837466061115264892578125</LongitudeDegrees>
            </Position>
            <AltitudeMeters>526.79998779296875</AltitudeMeters>
            <DistanceMeters>NAN</DistanceMeters>
          </Trackpoint>
          <Trackpoint>
            <Time>2021-08-14T10:35:32.000Z</Time>
            <Position>
              <LatitudeDegrees>42.96467634849250316619873046875</LatitudeDegrees>
              <LongitudeDegrees>-1.83739691041409969329833984375</LongitudeDegrees>
            </Position>
            <AltitudeMeters>526.79998779296875</AltitudeMeters>
            <DistanceMeters>NAN</DistanceMeters>
          </Trackpoint>
          <Trackpoint>
            <Time>2021-08-14T10:35:33.000Z</Time>
            <Position>
              <LatitudeDegrees>42.96465841121971607208251953125</LatitudeDegrees>
              <LongitudeDegrees>-1.83733656071126461029052734375</LongitudeDegrees>
            </Position>
            <AltitudeMeters>526.5999755859375</AltitudeMeters>
            <DistanceMeters>NAN</DistanceMeters>
          </Trackpoint>
          <Trackpoint>
            <Time>2021-08-14T10:35:34.000Z</Time>
            <Position>
              <LatitudeDegrees>42.96464801765978336334228515625</LatitudeDegrees>
              <LongitudeDegrees>-1.8372586928308010101318359375</LongitudeDegrees>
            </Position>
            <AltitudeMeters>526.5999755859375</AltitudeMeters>
            <DistanceMeters>NAN</DistanceMeters>
          </Trackpoint>
          <Trackpoint>
            <Time>2021-08-14T10:35:35.000Z</Time>
            <Position>
              <LatitudeDegrees>42.9646450839936733245849609375</LatitudeDegrees>
              <LongitudeDegrees>-1.83718518353998661041259765625</LongitudeDegrees>
            </Position>
            <AltitudeMeters>526.4000244140625</AltitudeMeters>
            <DistanceMeters>NAN</DistanceMeters>
          </Trackpoint>
          <Trackpoint>
            <Time>2021-08-14T10:35:36.000Z</Time>
            <Position>
              <LatitudeDegrees>42.9646380431950092315673828125</LatitudeDegrees>
              <LongitudeDegrees>-1.83711259625852108001708984375</LongitudeDegrees>
            </Position>
            <AltitudeMeters>526.20001220703125</AltitudeMeters>
            <DistanceMeters>NAN</DistanceMeters>
          </Trackpoint>
          <Trackpoint>
            <Time>2021-08-14T10:35:37.000Z</Time>
            <Position>
              <LatitudeDegrees>42.96462119556963443756103515625</LatitudeDegrees>
              <LongitudeDegrees>-1.8370645679533481597900390625</LongitudeDegrees>
            </Position>
            <AltitudeMeters>526</AltitudeMeters>
            <DistanceMeters>NAN</DistanceMeters>
          </Trackpoint>
          <Trackpoint>
            <Time>2021-08-14T10:35:38.000Z</Time>
            <Position>
              <LatitudeDegrees>42.9646018333733081817626953125</LatitudeDegrees>
              <LongitudeDegrees>-1.837009750306606292724609375</LongitudeDegrees>
            </Position>
            <AltitudeMeters>526</AltitudeMeters>
            <DistanceMeters>NAN</DistanceMeters>
          </Trackpoint>
          <Trackpoint>
            <Time>2021-08-14T10:35:39.000Z</Time>
            <Position>
              <LatitudeDegrees>42.9645864106714725494384765625</LatitudeDegrees>
              <LongitudeDegrees>-1.836946718394756317138671875</LongitudeDegrees>
            </Position>
            <AltitudeMeters>525.79998779296875</AltitudeMeters>
            <DistanceMeters>NAN</DistanceMeters>
          </Trackpoint>
          <Trackpoint>
            <Time>2021-08-14T10:35:42.000Z</Time>
            <Position>
              <LatitudeDegrees>42.9645555652678012847900390625</LatitudeDegrees>
              <LongitudeDegrees>-1.83677413500845432281494140625</LongitudeDegrees>
            </Position>
            <AltitudeMeters>525.79998779296875</AltitudeMeters>
            <DistanceMeters>NAN</DistanceMeters>
          </Trackpoint>
          <Trackpoint>
            <Time>2021-08-14T10:35:43.000Z</Time>
            <Position>
              <LatitudeDegrees>42.96458096243441104888916015625</LatitudeDegrees>
              <LongitudeDegrees>-1.83672820217907428741455078125</LongitudeDegrees>
            </Position>
            <AltitudeMeters>525.79998779296875</AltitudeMeters>
            <DistanceMeters>NAN</DistanceMeters>
          </Trackpoint>
          <Trackpoint>
            <Time>2021-08-14T10:35:46.000Z</Time>
            <Position>
              <LatitudeDegrees>42.96461432240903377532958984375</LatitudeDegrees>
              <LongitudeDegrees>-1.83651211671531200408935546875</LongitudeDegrees>
            </Position>
            <AltitudeMeters>525.4000244140625</AltitudeMeters>
            <DistanceMeters>NAN</DistanceMeters>
          </Trackpoint>
          <Trackpoint>
            <Time>2021-08-14T10:35:47.000Z</Time>
            <Position>
              <LatitudeDegrees>42.96459604986011981964111328125</LatitudeDegrees>
              <LongitudeDegrees>-1.83641974814236164093017578125</LongitudeDegrees>
            </Position>
            <AltitudeMeters>525.4000244140625</AltitudeMeters>
            <DistanceMeters>NAN</DistanceMeters>
          </Trackpoint>
          <Trackpoint>
            <Time>2021-08-14T10:35:48.000Z</Time>
            <Position>
              <LatitudeDegrees>42.964573167264461517333984375</LatitudeDegrees>
              <LongitudeDegrees>-1.8363373540341854095458984375</LongitudeDegrees>
            </Position>
            <AltitudeMeters>525</AltitudeMeters>
            <DistanceMeters>NAN</DistanceMeters>
          </Trackpoint>
          <Trackpoint>
            <Time>2021-08-14T10:35:49.000Z</Time>
            <Position>
              <LatitudeDegrees>42.96457811258733272552490234375</LatitudeDegrees>
              <LongitudeDegrees>-1.8362702988088130950927734375</LongitudeDegrees>
            </Position>
            <AltitudeMeters>524.79998779296875</AltitudeMeters>
            <DistanceMeters>NAN</DistanceMeters>
          </Trackpoint>
          <Trackpoint>
            <Time>2021-08-14T10:35:50.000Z</Time>
            <Position>
              <LatitudeDegrees>42.9645746760070323944091796875</LatitudeDegrees>
              <LongitudeDegrees>-1.8362055905163288116455078125</LongitudeDegrees>
            </Position>
            <AltitudeMeters>524</AltitudeMeters>
            <DistanceMeters>NAN</DistanceMeters>
          </Trackpoint>
          <Trackpoint>
            <Time>2021-08-14T10:35:51.000Z</Time>
            <Position>
              <LatitudeDegrees>42.96457861550152301788330078125</LatitudeDegrees>
              <LongitudeDegrees>-1.8361539579927921295166015625</LongitudeDegrees>
            </Position>
            <AltitudeMeters>523.5999755859375</AltitudeMeters>
            <DistanceMeters>NAN</DistanceMeters>
          </Trackpoint>
          <Trackpoint>
            <Time>2021-08-14T10:35:52.000Z</Time>
            <Position>
              <LatitudeDegrees>42.96458750031888484954833984375</LatitudeDegrees>
              <LongitudeDegrees>-1.83611431159079074859619140625</LongitudeDegrees>
            </Position>
            <AltitudeMeters>523</AltitudeMeters>
            <DistanceMeters>NAN</DistanceMeters>
          </Trackpoint>
          <Trackpoint>
            <Time>2021-08-14T10:35:53.000Z</Time>
            <Position>
              <LatitudeDegrees>42.96459504403173923492431640625</LatitudeDegrees>
              <LongitudeDegrees>-1.83608162216842174530029296875</LongitudeDegrees>
            </Position>
            <AltitudeMeters>521.79998779296875</AltitudeMeters>
            <DistanceMeters>NAN</DistanceMeters>
          </Trackpoint>
          <Trackpoint>
            <Time>2021-08-14T10:35:54.000Z</Time>
            <Position>
              <LatitudeDegrees>42.96459672041237354278564453125</LatitudeDegrees>
              <LongitudeDegrees>-1.83604591526091098785400390625</LongitudeDegrees>
            </Position>
            <AltitudeMeters>521.4000244140625</AltitudeMeters>
            <DistanceMeters>NAN</DistanceMeters>
          </Trackpoint>
          <Trackpoint>
            <Time>2021-08-14T10:35:55.000Z</Time>
            <Position>
              <LatitudeDegrees>42.96459856443107128143310546875</LatitudeDegrees>
              <LongitudeDegrees>-1.83601859025657176971435546875</LongitudeDegrees>
            </Position>
            <AltitudeMeters>520.79998779296875</AltitudeMeters>
            <DistanceMeters>NAN</DistanceMeters>
          </Trackpoint>
          <Trackpoint>
            <Time>2021-08-14T10:35:56.000Z</Time>
            <Position>
              <LatitudeDegrees>42.96459521166980266571044921875</LatitudeDegrees>
              <LongitudeDegrees>-1.83598992414772510528564453125</LongitudeDegrees>
            </Position>
            <AltitudeMeters>520.5999755859375</AltitudeMeters>
            <DistanceMeters>NAN</DistanceMeters>
          </Trackpoint>
          <Trackpoint>
            <Time>2021-08-14T10:35:57.000Z</Time>
            <Position>
              <LatitudeDegrees>42.96459387056529521942138671875</LatitudeDegrees>
              <LongitudeDegrees>-1.8359601683914661407470703125</LongitudeDegrees>
            </Position>
            <AltitudeMeters>520.4000244140625</AltitudeMeters>
            <DistanceMeters>NAN</DistanceMeters>
          </Trackpoint>
          <Trackpoint>
            <Time>2021-08-14T10:35:58.000Z</Time>
            <Position>
              <LatitudeDegrees>42.96460074372589588165283203125</LatitudeDegrees>
              <LongitudeDegrees>-1.8359273113310337066650390625</LongitudeDegrees>
            </Position>
            <AltitudeMeters>520.20001220703125</AltitudeMeters>
            <DistanceMeters>NAN</DistanceMeters>
          </Trackpoint>
          <Trackpoint>
            <Time>2021-08-14T10:36:00.000Z</Time>
            <Position>
              <LatitudeDegrees>42.9646316729485988616943359375</LatitudeDegrees>
              <LongitudeDegrees>-1.8358317576348781585693359375</LongitudeDegrees>
            </Position>
            <AltitudeMeters>519.79998779296875</AltitudeMeters>
            <DistanceMeters>NAN</DistanceMeters>
          </Trackpoint>
          <Trackpoint>
            <Time>2021-08-14T10:36:01.000Z</Time>
            <Position>
              <LatitudeDegrees>42.964638210833072662353515625</LatitudeDegrees>
              <LongitudeDegrees>-1.8357680551707744598388671875</LongitudeDegrees>
            </Position>
            <AltitudeMeters>519.79998779296875</AltitudeMeters>
            <DistanceMeters>NAN</DistanceMeters>
          </Trackpoint>
          <Trackpoint>
            <Time>2021-08-14T10:36:02.000Z</Time>
            <Position>
              <LatitudeDegrees>42.96462689526379108428955078125</LatitudeDegrees>
              <LongitudeDegrees>-1.835692115128040313720703125</LongitudeDegrees>
            </Position>
            <AltitudeMeters>519.4000244140625</AltitudeMeters>
            <DistanceMeters>NAN</DistanceMeters>
          </Trackpoint>
          <Trackpoint>
            <Time>2021-08-14T10:36:03.000Z</Time>
            <Position>
              <LatitudeDegrees>42.9646001569926738739013671875</LatitudeDegrees>
              <LongitudeDegrees>-1.8356087990105152130126953125</LongitudeDegrees>
            </Position>
            <AltitudeMeters>519.20001220703125</AltitudeMeters>
            <DistanceMeters>NAN</DistanceMeters>
          </Trackpoint>
          <Trackpoint>
            <Time>2021-08-14T10:36:04.000Z</Time>
            <Position>
              <LatitudeDegrees>42.9645656235516071319580078125</LatitudeDegrees>
              <LongitudeDegrees>-1.835514418780803680419921875</LongitudeDegrees>
            </Position>
            <AltitudeMeters>518.5999755859375</AltitudeMeters>
            <DistanceMeters>NAN</DistanceMeters>
          </Trackpoint>
          <Trackpoint>
            <Time>2021-08-14T10:36:05.000Z</Time>
            <Position>
              <LatitudeDegrees>42.964527904987335205078125</LatitudeDegrees>
              <LongitudeDegrees>-1.83542959392070770263671875</LongitudeDegrees>
            </Position>
            <AltitudeMeters>518.20001220703125</AltitudeMeters>
            <DistanceMeters>NAN</DistanceMeters>
          </Trackpoint>
          <Trackpoint>
            <Time>2021-08-14T10:36:06.000Z</Time>
            <Position>
              <LatitudeDegrees>42.96448758803308010101318359375</LatitudeDegrees>
              <LongitudeDegrees>-1.835346780717372894287109375</LongitudeDegrees>
            </Position>
            <AltitudeMeters>517.20001220703125</AltitudeMeters>
            <DistanceMeters>NAN</DistanceMeters>
          </Trackpoint>
          <Trackpoint>
            <Time>2021-08-14T10:36:07.000Z</Time>
            <Position>
              <LatitudeDegrees>42.96444618143141269683837890625</LatitudeDegrees>
              <LongitudeDegrees>-1.83526740409433841705322265625</LongitudeDegrees>
            </Position>
            <AltitudeMeters>516.4000244140625</AltitudeMeters>
            <DistanceMeters>NAN</DistanceMeters>
          </Trackpoint>
          <Trackpoint>
            <Time>2021-08-14T10:36:08.000Z</Time>
            <Position>
              <LatitudeDegrees>42.964404858648777008056640625</LatitudeDegrees>
              <LongitudeDegrees>-1.8351903744041919708251953125</LongitudeDegrees>
            </Position>
            <AltitudeMeters>515.4000244140625</AltitudeMeters>
            <DistanceMeters>NAN</DistanceMeters>
          </Trackpoint>
          <Trackpoint>
            <Time>2021-08-14T10:36:09.000Z</Time>
            <Position>
              <LatitudeDegrees>42.96436403878033161163330078125</LatitudeDegrees>
              <LongitudeDegrees>-1.83511284179985523223876953125</LongitudeDegrees>
            </Position>
            <AltitudeMeters>514.79998779296875</AltitudeMeters>
            <DistanceMeters>NAN</DistanceMeters>
          </Trackpoint>
          <Trackpoint>
            <Time>2021-08-14T10:36:11.000Z</Time>
            <Position>
              <LatitudeDegrees>42.96428524889051914215087890625</LatitudeDegrees>
              <LongitudeDegrees>-1.8349613808095455169677734375</LongitudeDegrees>
            </Position>
            <AltitudeMeters>514</AltitudeMeters>
            <DistanceMeters>NAN</DistanceMeters>
          </Trackpoint>
          <Trackpoint>
            <Time>2021-08-14T10:36:15.000Z</Time>
            <Position>
              <LatitudeDegrees>42.96413906849920749664306640625</LatitudeDegrees>
              <LongitudeDegrees>-1.83467463590204715728759765625</LongitudeDegrees>
            </Position>
            <AltitudeMeters>513</AltitudeMeters>
            <DistanceMeters>NAN</DistanceMeters>
          </Trackpoint>
          <Trackpoint>
            <Time>2021-08-14T10:36:16.000Z</Time>
            <Position>
              <LatitudeDegrees>42.96410218812525272369384765625</LatitudeDegrees>
              <LongitudeDegrees>-1.8346073292195796966552734375</LongitudeDegrees>
            </Position>
            <AltitudeMeters>512.79998779296875</AltitudeMeters>
            <DistanceMeters>NAN</DistanceMeters>
          </Trackpoint>
          <Trackpoint>
            <Time>2021-08-14T10:36:17.000Z</Time>
            <Position>
              <LatitudeDegrees>42.96406530775129795074462890625</LatitudeDegrees>
              <LongitudeDegrees>-1.8345355801284313201904296875</LongitudeDegrees>
            </Position>
            <AltitudeMeters>512.5999755859375</AltitudeMeters>
            <DistanceMeters>NAN</DistanceMeters>
          </Trackpoint>
          <Trackpoint>
            <Time>2021-08-14T10:36:18.000Z</Time>
            <Position>
              <LatitudeDegrees>42.96402909792959690093994140625</LatitudeDegrees>
              <LongitudeDegrees>-1.8344678543508052825927734375</LongitudeDegrees>
            </Position>
            <AltitudeMeters>512.5999755859375</AltitudeMeters>
            <DistanceMeters>NAN</DistanceMeters>
          </Trackpoint>
          <Trackpoint>
            <Time>2021-08-14T10:36:19.000Z</Time>
            <Position>
              <LatitudeDegrees>42.9640010185539722442626953125</LatitudeDegrees>
              <LongitudeDegrees>-1.834404654800891876220703125</LongitudeDegrees>
            </Position>
            <AltitudeMeters>512.4000244140625</AltitudeMeters>
            <DistanceMeters>NAN</DistanceMeters>
          </Trackpoint>
          <Trackpoint>
            <Time>2021-08-14T10:36:20.000Z</Time>
            <Position>
              <LatitudeDegrees>42.9639701731503009796142578125</LatitudeDegrees>
              <LongitudeDegrees>-1.83433927595615386962890625</LongitudeDegrees>
            </Position>
            <AltitudeMeters>512.20001220703125</AltitudeMeters>
            <DistanceMeters>NAN</DistanceMeters>
          </Trackpoint>
          <Trackpoint>
            <Time>2021-08-14T10:36:21.000Z</Time>
            <Position>
              <LatitudeDegrees>42.9639349691569805145263671875</LatitudeDegrees>
              <LongitudeDegrees>-1.8342656828463077545166015625</LongitudeDegrees>
            </Position>
            <AltitudeMeters>512</AltitudeMeters>
            <DistanceMeters>NAN</DistanceMeters>
          </Trackpoint>
          <Trackpoint>
            <Time>2021-08-14T10:36:22.000Z</Time>
            <Position>
              <LatitudeDegrees>42.96389951370656490325927734375</LatitudeDegrees>
              <LongitudeDegrees>-1.83418907225131988525390625</LongitudeDegrees>
            </Position>
            <AltitudeMeters>511.600006103515625</AltitudeMeters>
            <DistanceMeters>NAN</DistanceMeters>
          </Trackpoint>
          <Trackpoint>
            <Time>2021-08-14T10:36:25.000Z</Time>
            <Position>
              <LatitudeDegrees>42.9638018645346164703369140625</LatitudeDegrees>
              <LongitudeDegrees>-1.83397290296852588653564453125</LongitudeDegrees>
            </Position>
            <AltitudeMeters>510.600006103515625</AltitudeMeters>
            <DistanceMeters>NAN</DistanceMeters>
          </Trackpoint>
          <Trackpoint>
            <Time>2021-08-14T10:36:26.000Z</Time>
            <Position>
              <LatitudeDegrees>42.9637706838548183441162109375</LatitudeDegrees>
              <LongitudeDegrees>-1.83390584774315357208251953125</LongitudeDegrees>
            </Position>
            <AltitudeMeters>510</AltitudeMeters>
            <DistanceMeters>NAN</DistanceMeters>
          </Trackpoint>
          <Trackpoint>
            <Time>2021-08-14T10:36:27.000Z</Time>
            <Position>
              <LatitudeDegrees>42.9637425206601619720458984375</LatitudeDegrees>
              <LongitudeDegrees>-1.833838708698749542236328125</LongitudeDegrees>
            </Position>
            <AltitudeMeters>509</AltitudeMeters>
            <DistanceMeters>NAN</DistanceMeters>
          </Trackpoint>
          <Trackpoint>
            <Time>2021-08-14T10:36:29.000Z</Time>
            <Position>
              <LatitudeDegrees>42.9636878706514835357666015625</LatitudeDegrees>
              <LongitudeDegrees>-1.83369831182062625885009765625</LongitudeDegrees>
            </Position>
            <AltitudeMeters>507.79998779296875</AltitudeMeters>
            <DistanceMeters>NAN</DistanceMeters>
          </Trackpoint>
          <Trackpoint>
            <Time>2021-08-14T10:36:30.000Z</Time>
            <Position>
              <LatitudeDegrees>42.96365476213395595550537109375</LatitudeDegrees>
              <LongitudeDegrees>-1.83362312614917755126953125</LongitudeDegrees>
            </Position>
            <AltitudeMeters>506.79998779296875</AltitudeMeters>
            <DistanceMeters>NAN</DistanceMeters>
          </Trackpoint>
          <Trackpoint>
            <Time>2021-08-14T10:36:31.000Z</Time>
            <Position>
              <LatitudeDegrees>42.96361603774130344390869140625</LatitudeDegrees>
              <LongitudeDegrees>-1.83355472981929779052734375</LongitudeDegrees>
            </Position>
            <AltitudeMeters>506</AltitudeMeters>
            <DistanceMeters>NAN</DistanceMeters>
          </Trackpoint>
          <Trackpoint>
            <Time>2021-08-14T10:36:32.000Z</Time>
            <Position>
              <LatitudeDegrees>42.963573373854160308837890625</LatitudeDegrees>
              <LongitudeDegrees>-1.8334915302693843841552734375</LongitudeDegrees>
            </Position>
            <AltitudeMeters>505</AltitudeMeters>
            <DistanceMeters>NAN</DistanceMeters>
          </Trackpoint>
          <Trackpoint>
            <Time>2021-08-14T10:36:33.000Z</Time>
            <Position>
              <LatitudeDegrees>42.96352953650057315826416015625</LatitudeDegrees>
              <LongitudeDegrees>-1.83343076147139072418212890625</LongitudeDegrees>
            </Position>
            <AltitudeMeters>504</AltitudeMeters>
            <DistanceMeters>NAN</DistanceMeters>
          </Trackpoint>
          <Trackpoint>
            <Time>2021-08-14T10:36:34.000Z</Time>
            <Position>
              <LatitudeDegrees>42.96348528005182743072509765625</LatitudeDegrees>
              <LongitudeDegrees>-1.83337225578725337982177734375</LongitudeDegrees>
            </Position>
            <AltitudeMeters>502.79998779296875</AltitudeMeters>
            <DistanceMeters>NAN</DistanceMeters>
          </Trackpoint>
          <Trackpoint>
            <Time>2021-08-14T10:36:36.000Z</Time>
            <Position>
              <LatitudeDegrees>42.963393665850162506103515625</LatitudeDegrees>
              <LongitudeDegrees>-1.8332622013986110687255859375</LongitudeDegrees>
            </Position>
            <AltitudeMeters>501.20001220703125</AltitudeMeters>
            <DistanceMeters>NAN</DistanceMeters>
          </Trackpoint>
          <Trackpoint>
            <Time>2021-08-14T10:36:39.000Z</Time>
            <Position>
              <LatitudeDegrees>42.96325176022946834564208984375</LatitudeDegrees>
              <LongitudeDegrees>-1.8331032805144786834716796875</LongitudeDegrees>
            </Position>
            <AltitudeMeters>500</AltitudeMeters>
            <DistanceMeters>NAN</DistanceMeters>
          </Trackpoint>
          <Trackpoint>
            <Time>2021-08-14T10:36:40.000Z</Time>
            <Position>
              <LatitudeDegrees>42.96320465393364429473876953125</LatitudeDegrees>
              <LongitudeDegrees>-1.8330551683902740478515625</LongitudeDegrees>
            </Position>
            <AltitudeMeters>500</AltitudeMeters>
            <DistanceMeters>NAN</DistanceMeters>
          </Trackpoint>
          <Trackpoint>
            <Time>2021-08-14T10:36:43.000Z</Time>
            <Position>
              <LatitudeDegrees>42.9630578868091106414794921875</LatitudeDegrees>
              <LongitudeDegrees>-1.83292197994887828826904296875</LongitudeDegrees>
            </Position>
            <AltitudeMeters>499.399993896484375</AltitudeMeters>
            <DistanceMeters>NAN</DistanceMeters>
          </Trackpoint>
          <Trackpoint>
            <Time>2021-08-14T10:36:44.000Z</Time>
            <Position>
              <LatitudeDegrees>42.96300717629492282867431640625</LatitudeDegrees>
              <LongitudeDegrees>-1.832882501184940338134765625</LongitudeDegrees>
            </Position>
            <AltitudeMeters>499.20001220703125</AltitudeMeters>
            <DistanceMeters>NAN</DistanceMeters>
          </Trackpoint>
          <Trackpoint>
            <Time>2021-08-14T10:36:46.000Z</Time>
            <Position>
              <LatitudeDegrees>42.962899468839168548583984375</LatitudeDegrees>
              <LongitudeDegrees>-1.832811422646045684814453125</LongitudeDegrees>
            </Position>
            <AltitudeMeters>499</AltitudeMeters>
            <DistanceMeters>NAN</DistanceMeters>
          </Trackpoint>
          <Trackpoint>
            <Time>2021-08-14T10:36:47.000Z</Time>
            <Position>
              <LatitudeDegrees>42.9628426395356655120849609375</LatitudeDegrees>
              <LongitudeDegrees>-1.83279138989746570587158203125</LongitudeDegrees>
            </Position>
            <AltitudeMeters>498.79998779296875</AltitudeMeters>
            <DistanceMeters>NAN</DistanceMeters>
          </Trackpoint>
          <Trackpoint>
            <Time>2021-08-14T10:36:48.000Z</Time>
            <Position>
              <LatitudeDegrees>42.962784133851528167724609375</LatitudeDegrees>
              <LongitudeDegrees>-1.83278451673686504364013671875</LongitudeDegrees>
            </Position>
            <AltitudeMeters>498.79998779296875</AltitudeMeters>
            <DistanceMeters>NAN</DistanceMeters>
          </Trackpoint>
          <Trackpoint>
            <Time>2021-08-14T10:36:49.000Z</Time>
            <Position>
              <LatitudeDegrees>42.96272705309092998504638671875</LatitudeDegrees>
              <LongitudeDegrees>-1.8327867798507213592529296875</LongitudeDegrees>
            </Position>
            <AltitudeMeters>498.600006103515625</AltitudeMeters>
            <DistanceMeters>NAN</DistanceMeters>
          </Trackpoint>
          <Trackpoint>
            <Time>2021-08-14T10:36:51.000Z</Time>
            <Position>
              <LatitudeDegrees>42.962623871862888336181640625</LatitudeDegrees>
              <LongitudeDegrees>-1.83279910124838352203369140625</LongitudeDegrees>
            </Position>
            <AltitudeMeters>498.20001220703125</AltitudeMeters>
            <DistanceMeters>NAN</DistanceMeters>
          </Trackpoint>
          <Trackpoint>
            <Time>2021-08-14T10:36:52.000Z</Time>
            <Position>
              <LatitudeDegrees>42.96258640475571155548095703125</LatitudeDegrees>
              <LongitudeDegrees>-1.83279725722968578338623046875</LongitudeDegrees>
            </Position>
            <AltitudeMeters>497.79998779296875</AltitudeMeters>
            <DistanceMeters>NAN</DistanceMeters>
          </Trackpoint>
          <Trackpoint>
            <Time>2021-08-14T10:36:53.000Z</Time>
            <Position>
              <LatitudeDegrees>42.962558157742023468017578125</LatitudeDegrees>
              <LongitudeDegrees>-1.8327881209552288055419921875</LongitudeDegrees>
            </Position>
            <AltitudeMeters>497.399993896484375</AltitudeMeters>
            <DistanceMeters>NAN</DistanceMeters>
          </Trackpoint>
          <Trackpoint>
            <Time>2021-08-14T10:36:54.000Z</Time>
            <Position>
              <LatitudeDegrees>42.96253829263150691986083984375</LatitudeDegrees>
              <LongitudeDegrees>-1.83277781121432781219482421875</LongitudeDegrees>
            </Position>
            <AltitudeMeters>497.20001220703125</AltitudeMeters>
            <DistanceMeters>NAN</DistanceMeters>
          </Trackpoint>
          <Trackpoint>
            <Time>2021-08-14T10:36:55.000Z</Time>
            <Position>
              <LatitudeDegrees>42.96252119354903697967529296875</LatitudeDegrees>
              <LongitudeDegrees>-1.8327690102159976959228515625</LongitudeDegrees>
            </Position>
            <AltitudeMeters>497</AltitudeMeters>
            <DistanceMeters>NAN</DistanceMeters>
          </Trackpoint>
          <Trackpoint>
            <Time>2021-08-14T10:36:56.000Z</Time>
            <Position>
              <LatitudeDegrees>42.962505854666233062744140625</LatitudeDegrees>
              <LongitudeDegrees>-1.83275945484638214111328125</LongitudeDegrees>
            </Position>
            <AltitudeMeters>497</AltitudeMeters>
            <DistanceMeters>NAN</DistanceMeters>
          </Trackpoint>
          <Trackpoint>
            <Time>2021-08-14T10:36:57.000Z</Time>
            <Position>
              <LatitudeDegrees>42.9624902643263339996337890625</LatitudeDegrees>
              <LongitudeDegrees>-1.83275300078094005584716796875</LongitudeDegrees>
            </Position>
            <AltitudeMeters>496.79998779296875</AltitudeMeters>
            <DistanceMeters>NAN</DistanceMeters>
          </Trackpoint>
          <Trackpoint>
            <Time>2021-08-14T10:36:58.000Z</Time>
            <Position>
              <LatitudeDegrees>42.9624765180051326751708984375</LatitudeDegrees>
              <LongitudeDegrees>-1.832747720181941986083984375</LongitudeDegrees>
            </Position>
            <AltitudeMeters>496.79998779296875</AltitudeMeters>
            <DistanceMeters>NAN</DistanceMeters>
          </Trackpoint>
          <Trackpoint>
            <Time>2021-08-14T10:36:59.000Z</Time>
            <Position>
              <LatitudeDegrees>42.96246302314102649688720703125</LatitudeDegrees>
              <LongitudeDegrees>-1.8327415175735950469970703125</LongitudeDegrees>
            </Position>
            <AltitudeMeters>496.600006103515625</AltitudeMeters>
            <DistanceMeters>NAN</DistanceMeters>
          </Trackpoint>
          <Trackpoint>
            <Time>2021-08-14T10:37:00.000Z</Time>
            <Position>
              <LatitudeDegrees>42.9624500311911106109619140625</LatitudeDegrees>
              <LongitudeDegrees>-1.832728274166584014892578125</LongitudeDegrees>
            </Position>
            <AltitudeMeters>496.600006103515625</AltitudeMeters>
            <DistanceMeters>NAN</DistanceMeters>
          </Trackpoint>
          <Trackpoint>
            <Time>2021-08-14T10:37:01.000Z</Time>
            <Position>
              <LatitudeDegrees>42.9624398052692413330078125</LatitudeDegrees>
              <LongitudeDegrees>-1.8327116779983043670654296875</LongitudeDegrees>
            </Position>
            <AltitudeMeters>496.79998779296875</AltitudeMeters>
            <DistanceMeters>NAN</DistanceMeters>
          </Trackpoint>
          <Trackpoint>
            <Time>2021-08-14T10:37:02.000Z</Time>
            <Position>
              <LatitudeDegrees>42.962429411709308624267578125</LatitudeDegrees>
              <LongitudeDegrees>-1.83269441127777099609375</LongitudeDegrees>
            </Position>
            <AltitudeMeters>496.399993896484375</AltitudeMeters>
            <DistanceMeters>NAN</DistanceMeters>
          </Trackpoint>
          <Trackpoint>
            <Time>2021-08-14T10:37:03.000Z</Time>
            <Position>
              <LatitudeDegrees>42.96242035925388336181640625</LatitudeDegrees>
              <LongitudeDegrees>-1.8326798267662525177001953125</LongitudeDegrees>
            </Position>
            <AltitudeMeters>496.399993896484375</AltitudeMeters>
            <DistanceMeters>NAN</DistanceMeters>
          </Trackpoint>
          <Trackpoint>
            <Time>2021-08-14T10:37:04.000Z</Time>
            <Position>
              <LatitudeDegrees>42.96241231262683868408203125</LatitudeDegrees>
              <LongitudeDegrees>-1.83266599662601947784423828125</LongitudeDegrees>
            </Position>
            <AltitudeMeters>496.399993896484375</AltitudeMeters>
            <DistanceMeters>NAN</DistanceMeters>
          </Trackpoint>
          <Trackpoint>
            <Time>2021-08-14T10:37:05.000Z</Time>
            <Position>
              <LatitudeDegrees>42.96240585856139659881591796875</LatitudeDegrees>
              <LongitudeDegrees>-1.83265442959964275360107421875</LongitudeDegrees>
            </Position>
            <AltitudeMeters>496.600006103515625</AltitudeMeters>
            <DistanceMeters>NAN</DistanceMeters>
          </Trackpoint>
          <Trackpoint>
            <Time>2021-08-14T10:37:06.000Z</Time>
            <Position>
              <LatitudeDegrees>42.962396554648876190185546875</LatitudeDegrees>
              <LongitudeDegrees>-1.8326328881084918975830078125</LongitudeDegrees>
            </Position>
            <AltitudeMeters>496.399993896484375</AltitudeMeters>
            <DistanceMeters>NAN</DistanceMeters>
          </Trackpoint>
          <Trackpoint>
            <Time>2021-08-14T10:37:07.000Z</Time>
            <Position>
              <LatitudeDegrees>42.96238775365054607391357421875</LatitudeDegrees>
              <LongitudeDegrees>-1.83261738158762454986572265625</LongitudeDegrees>
            </Position>
            <AltitudeMeters>496.399993896484375</AltitudeMeters>
            <DistanceMeters>NAN</DistanceMeters>
          </Trackpoint>
          <Trackpoint>
            <Time>2021-08-14T10:37:08.000Z</Time>
            <Position>
              <LatitudeDegrees>42.96237719245254993438720703125</LatitudeDegrees>
              <LongitudeDegrees>-1.83260531164705753326416015625</LongitudeDegrees>
            </Position>
            <AltitudeMeters>496.399993896484375</AltitudeMeters>
            <DistanceMeters>NAN</DistanceMeters>
          </Trackpoint>
          <Trackpoint>
            <Time>2021-08-14T10:37:09.000Z</Time>
            <Position>
              <LatitudeDegrees>42.96236746944487094879150390625</LatitudeDegrees>
              <LongitudeDegrees>-1.832594163715839385986328125</LongitudeDegrees>
            </Position>
            <AltitudeMeters>496.20001220703125</AltitudeMeters>
            <DistanceMeters>NAN</DistanceMeters>
          </Trackpoint>
          <Trackpoint>
            <Time>2021-08-14T10:37:13.000Z</Time>
            <Position>
              <LatitudeDegrees>42.96236378140747547149658203125</LatitudeDegrees>
              <LongitudeDegrees>-1.8325889669358730316162109375</LongitudeDegrees>
            </Position>
            <AltitudeMeters>496.20001220703125</AltitudeMeters>
            <DistanceMeters>NAN</DistanceMeters>
          </Trackpoint>
          <Trackpoint>
            <Time>2021-08-14T10:37:20.000Z</Time>
            <Position>
              <LatitudeDegrees>42.9623554833233356475830078125</LatitudeDegrees>
              <LongitudeDegrees>-1.8325836025178432464599609375</LongitudeDegrees>
            </Position>
            <AltitudeMeters>496.20001220703125</AltitudeMeters>
            <DistanceMeters>NAN</DistanceMeters>
          </Trackpoint>
          <Trackpoint>
            <Time>2021-08-14T10:37:21.000Z</Time>
            <Position>
              <LatitudeDegrees>42.962346933782100677490234375</LatitudeDegrees>
              <LongitudeDegrees>-1.83257044292986392974853515625</LongitudeDegrees>
            </Position>
            <AltitudeMeters>496.20001220703125</AltitudeMeters>
            <DistanceMeters>NAN</DistanceMeters>
          </Trackpoint>
          <Trackpoint>
            <Time>2021-08-14T10:37:22.000Z</Time>
            <Position>
              <LatitudeDegrees>42.96232908032834529876708984375</LatitudeDegrees>
              <LongitudeDegrees>-1.83255099691450595855712890625</LongitudeDegrees>
            </Position>
            <AltitudeMeters>496.20001220703125</AltitudeMeters>
            <DistanceMeters>NAN</DistanceMeters>
          </Trackpoint>
          <Trackpoint>
            <Time>2021-08-14T10:37:23.000Z</Time>
            <Position>
              <LatitudeDegrees>42.96230259351432323455810546875</LatitudeDegrees>
              <LongitudeDegrees>-1.83252132497727870941162109375</LongitudeDegrees>
            </Position>
            <AltitudeMeters>496.20001220703125</AltitudeMeters>
            <DistanceMeters>NAN</DistanceMeters>
          </Trackpoint>
          <Trackpoint>
            <Time>2021-08-14T10:37:24.000Z</Time>
            <Position>
              <LatitudeDegrees>42.9622756876051425933837890625</LatitudeDegrees>
              <LongitudeDegrees>-1.832490898668766021728515625</LongitudeDegrees>
            </Position>
            <AltitudeMeters>496.20001220703125</AltitudeMeters>
            <DistanceMeters>NAN</DistanceMeters>
          </Trackpoint>
          <Trackpoint>
            <Time>2021-08-14T10:37:28.000Z</Time>
            <Position>
              <LatitudeDegrees>42.96214048750698566436767578125</LatitudeDegrees>
              <LongitudeDegrees>-1.8323509208858013153076171875</LongitudeDegrees>
            </Position>
            <AltitudeMeters>496.20001220703125</AltitudeMeters>
            <DistanceMeters>NAN</DistanceMeters>
          </Trackpoint>
          <Trackpoint>
            <Time>2021-08-14T10:37:30.000Z</Time>
            <Position>
              <LatitudeDegrees>42.96206136234104633331298828125</LatitudeDegrees>
              <LongitudeDegrees>-1.8322692811489105224609375</LongitudeDegrees>
            </Position>
            <AltitudeMeters>496</AltitudeMeters>
            <DistanceMeters>NAN</DistanceMeters>
          </Trackpoint>
          <Trackpoint>
            <Time>2021-08-14T10:37:32.000Z</Time>
            <Position>
              <LatitudeDegrees>42.961974777281284332275390625</LatitudeDegrees>
              <LongitudeDegrees>-1.83216811157763004302978515625</LongitudeDegrees>
            </Position>
            <AltitudeMeters>495.79998779296875</AltitudeMeters>
            <DistanceMeters>NAN</DistanceMeters>
          </Trackpoint>
          <Trackpoint>
            <Time>2021-08-14T10:37:33.000Z</Time>
            <Position>
              <LatitudeDegrees>42.96193295158445835113525390625</LatitudeDegrees>
              <LongitudeDegrees>-1.8321054987609386444091796875</LongitudeDegrees>
            </Position>
            <AltitudeMeters>495.600006103515625</AltitudeMeters>
            <DistanceMeters>NAN</DistanceMeters>
          </Trackpoint>
          <Trackpoint>
            <Time>2021-08-14T10:37:36.000Z</Time>
            <Position>
              <LatitudeDegrees>42.96181677840650081634521484375</LatitudeDegrees>
              <LongitudeDegrees>-1.831896118819713592529296875</LongitudeDegrees>
            </Position>
            <AltitudeMeters>494.79998779296875</AltitudeMeters>
            <DistanceMeters>NAN</DistanceMeters>
          </Trackpoint>
          <Trackpoint>
            <Time>2021-08-14T10:37:37.000Z</Time>
            <Position>
              <LatitudeDegrees>42.9617871902883052825927734375</LatitudeDegrees>
              <LongitudeDegrees>-1.83182202279567718505859375</LongitudeDegrees>
            </Position>
            <AltitudeMeters>494.399993896484375</AltitudeMeters>
            <DistanceMeters>NAN</DistanceMeters>
          </Trackpoint>
          <Trackpoint>
            <Time>2021-08-14T10:37:38.000Z</Time>
            <Position>
              <LatitudeDegrees>42.96176246367394924163818359375</LatitudeDegrees>
              <LongitudeDegrees>-1.83174499310553073883056640625</LongitudeDegrees>
            </Position>
            <AltitudeMeters>494.399993896484375</AltitudeMeters>
            <DistanceMeters>NAN</DistanceMeters>
          </Trackpoint>
          <Trackpoint>
            <Time>2021-08-14T10:37:39.000Z</Time>
            <Position>
              <LatitudeDegrees>42.96174385584890842437744140625</LatitudeDegrees>
              <LongitudeDegrees>-1.8316632695496082305908203125</LongitudeDegrees>
            </Position>
            <AltitudeMeters>494</AltitudeMeters>
            <DistanceMeters>NAN</DistanceMeters>
          </Trackpoint>
          <Trackpoint>
            <Time>2021-08-14T10:37:41.000Z</Time>
            <Position>
              <LatitudeDegrees>42.96171368099749088287353515625</LatitudeDegrees>
              <LongitudeDegrees>-1.8315103836357593536376953125</LongitudeDegrees>
            </Position>
            <AltitudeMeters>493.399993896484375</AltitudeMeters>
            <DistanceMeters>NAN</DistanceMeters>
          </Trackpoint>
          <Trackpoint>
            <Time>2021-08-14T10:37:42.000Z</Time>
            <Position>
              <LatitudeDegrees>42.96168903820216655731201171875</LatitudeDegrees>
              <LongitudeDegrees>-1.83145799674093723297119140625</LongitudeDegrees>
            </Position>
            <AltitudeMeters>493.20001220703125</AltitudeMeters>
            <DistanceMeters>NAN</DistanceMeters>
          </Trackpoint>
          <Trackpoint>
            <Time>2021-08-14T10:37:43.000Z</Time>
            <Position>
              <LatitudeDegrees>42.961665652692317962646484375</LatitudeDegrees>
              <LongitudeDegrees>-1.8314289115369319915771484375</LongitudeDegrees>
            </Position>
            <AltitudeMeters>493</AltitudeMeters>
            <DistanceMeters>NAN</DistanceMeters>
          </Trackpoint>
          <Trackpoint>
            <Time>2021-08-14T10:37:44.000Z</Time>
            <Position>
              <LatitudeDegrees>42.96164277009665966033935546875</LatitudeDegrees>
              <LongitudeDegrees>-1.831413321197032928466796875</LongitudeDegrees>
            </Position>
            <AltitudeMeters>492.79998779296875</AltitudeMeters>
            <DistanceMeters>NAN</DistanceMeters>
          </Trackpoint>
          <Trackpoint>
            <Time>2021-08-14T10:37:45.000Z</Time>
            <Position>
              <LatitudeDegrees>42.9616215638816356658935546875</LatitudeDegrees>
              <LongitudeDegrees>-1.83141122572124004364013671875</LongitudeDegrees>
            </Position>
            <AltitudeMeters>492.399993896484375</AltitudeMeters>
            <DistanceMeters>NAN</DistanceMeters>
          </Trackpoint>
          <Trackpoint>
            <Time>2021-08-14T10:37:46.000Z</Time>
            <Position>
              <LatitudeDegrees>42.961606644093990325927734375</LatitudeDegrees>
              <LongitudeDegrees>-1.83141826651990413665771484375</LongitudeDegrees>
            </Position>
            <AltitudeMeters>492.399993896484375</AltitudeMeters>
            <DistanceMeters>NAN</DistanceMeters>
          </Trackpoint>
          <Trackpoint>
            <Time>2021-08-14T10:37:47.000Z</Time>
            <Position>
              <LatitudeDegrees>42.9615949094295501708984375</LatitudeDegrees>
              <LongitudeDegrees>-1.8314168415963649749755859375</LongitudeDegrees>
            </Position>
            <AltitudeMeters>492.399993896484375</AltitudeMeters>
            <DistanceMeters>NAN</DistanceMeters>
          </Trackpoint>
          <Trackpoint>
            <Time>2021-08-14T10:37:48.000Z</Time>
            <Position>
              <LatitudeDegrees>42.961589880287647247314453125</LatitudeDegrees>
              <LongitudeDegrees>-1.83140091598033905029296875</LongitudeDegrees>
            </Position>
            <AltitudeMeters>492.20001220703125</AltitudeMeters>
            <DistanceMeters>NAN</DistanceMeters>
          </Trackpoint>
          <Trackpoint>
            <Time>2021-08-14T10:37:49.000Z</Time>
            <Position>
              <LatitudeDegrees>42.96159717254340648651123046875</LatitudeDegrees>
              <LongitudeDegrees>-1.83138339780271053314208984375</LongitudeDegrees>
            </Position>
            <AltitudeMeters>492.20001220703125</AltitudeMeters>
            <DistanceMeters>NAN</DistanceMeters>
          </Trackpoint>
          <Trackpoint>
            <Time>2021-08-14T10:37:51.000Z</Time>
            <Position>
              <LatitudeDegrees>42.96163170598447322845458984375</LatitudeDegrees>
              <LongitudeDegrees>-1.8313868343830108642578125</LongitudeDegrees>
            </Position>
            <AltitudeMeters>492.20001220703125</AltitudeMeters>
            <DistanceMeters>NAN</DistanceMeters>
          </Trackpoint>
          <Trackpoint>
            <Time>2021-08-14T10:37:52.000Z</Time>
            <Position>
              <LatitudeDegrees>42.961644865572452545166015625</LatitudeDegrees>
              <LongitudeDegrees>-1.831395216286182403564453125</LongitudeDegrees>
            </Position>
            <AltitudeMeters>492</AltitudeMeters>
            <DistanceMeters>NAN</DistanceMeters>
          </Trackpoint>
          <Trackpoint>
            <Time>2021-08-14T10:37:53.000Z</Time>
            <Position>
              <LatitudeDegrees>42.9616571031510829925537109375</LatitudeDegrees>
              <LongitudeDegrees>-1.8314020894467830657958984375</LongitudeDegrees>
            </Position>
            <AltitudeMeters>492</AltitudeMeters>
            <DistanceMeters>NAN</DistanceMeters>
          </Trackpoint>
          <Trackpoint>
            <Time>2021-08-14T10:37:54.000Z</Time>
            <Position>
              <LatitudeDegrees>42.96166975982487201690673828125</LatitudeDegrees>
              <LongitudeDegrees>-1.8314074538648128509521484375</LongitudeDegrees>
            </Position>
            <AltitudeMeters>492</AltitudeMeters>
            <DistanceMeters>NAN</DistanceMeters>
          </Trackpoint>
          <Trackpoint>
            <Time>2021-08-14T10:37:55.000Z</Time>
            <Position>
              <LatitudeDegrees>42.96168484725058078765869140625</LatitudeDegrees>
              <LongitudeDegrees>-1.831406615674495697021484375</LongitudeDegrees>
            </Position>
            <AltitudeMeters>492</AltitudeMeters>
            <DistanceMeters>NAN</DistanceMeters>
          </Trackpoint>
          <Trackpoint>
            <Time>2021-08-14T10:37:56.000Z</Time>
            <Position>
              <LatitudeDegrees>42.9617016948759555816650390625</LatitudeDegrees>
              <LongitudeDegrees>-1.83139680884778499603271484375</LongitudeDegrees>
            </Position>
            <AltitudeMeters>492</AltitudeMeters>
            <DistanceMeters>NAN</DistanceMeters>
          </Trackpoint>
          <Trackpoint>
            <Time>2021-08-14T10:37:57.000Z</Time>
            <Position>
              <LatitudeDegrees>42.96171359717845916748046875</LatitudeDegrees>
              <LongitudeDegrees>-1.831377781927585601806640625</LongitudeDegrees>
            </Position>
            <AltitudeMeters>492</AltitudeMeters>
            <DistanceMeters>NAN</DistanceMeters>
          </Trackpoint>
          <Trackpoint>
            <Time>2021-08-14T10:38:00.000Z</Time>
            <Position>
              <LatitudeDegrees>42.9617315344512462615966796875</LatitudeDegrees>
              <LongitudeDegrees>-1.83128633536398410797119140625</LongitudeDegrees>
            </Position>
            <AltitudeMeters>491.600006103515625</AltitudeMeters>
            <DistanceMeters>NAN</DistanceMeters>
          </Trackpoint>
          <Trackpoint>
            <Time>2021-08-14T10:38:01.000Z</Time>
            <Position>
              <LatitudeDegrees>42.96173782087862491607666015625</LatitudeDegrees>
              <LongitudeDegrees>-1.83124878443777561187744140625</LongitudeDegrees>
            </Position>
            <AltitudeMeters>491.600006103515625</AltitudeMeters>
            <DistanceMeters>NAN</DistanceMeters>
          </Trackpoint>
          <Trackpoint>
            <Time>2021-08-14T10:38:02.000Z</Time>
            <Position>
              <LatitudeDegrees>42.96175257302820682525634765625</LatitudeDegrees>
              <LongitudeDegrees>-1.831213496625423431396484375</LongitudeDegrees>
            </Position>
            <AltitudeMeters>491.600006103515625</AltitudeMeters>
            <DistanceMeters>NAN</DistanceMeters>
          </Trackpoint>
          <Trackpoint>
            <Time>2021-08-14T10:38:05.000Z</Time>
            <Position>
              <LatitudeDegrees>42.96179682947695255279541015625</LatitudeDegrees>
              <LongitudeDegrees>-1.831094138324260711669921875</LongitudeDegrees>
            </Position>
            <AltitudeMeters>491.399993896484375</AltitudeMeters>
            <DistanceMeters>NAN</DistanceMeters>
          </Trackpoint>
          <Trackpoint>
            <Time>2021-08-14T10:38:06.000Z</Time>
            <Position>
              <LatitudeDegrees>42.9618076421320438385009765625</LatitudeDegrees>
              <LongitudeDegrees>-1.83104678057134151458740234375</LongitudeDegrees>
            </Position>
            <AltitudeMeters>491.399993896484375</AltitudeMeters>
            <DistanceMeters>NAN</DistanceMeters>
          </Trackpoint>
          <Trackpoint>
            <Time>2021-08-14T10:38:07.000Z</Time>
            <Position>
              <LatitudeDegrees>42.9618207179009914398193359375</LatitudeDegrees>
              <LongitudeDegrees>-1.83100470341742038726806640625</LongitudeDegrees>
            </Position>
            <AltitudeMeters>491.399993896484375</AltitudeMeters>
            <DistanceMeters>NAN</DistanceMeters>
          </Trackpoint>
          <Trackpoint>
            <Time>2021-08-14T10:38:14.000Z</Time>
            <Position>
              <LatitudeDegrees>42.9619087278842926025390625</LatitudeDegrees>
              <LongitudeDegrees>-1.83073497377336025238037109375</LongitudeDegrees>
            </Position>
            <AltitudeMeters>492</AltitudeMeters>
            <DistanceMeters>NAN</DistanceMeters>
          </Trackpoint>
          <Trackpoint>
            <Time>2021-08-14T10:38:18.000Z</Time>
            <Position>
              <LatitudeDegrees>42.96194636262953281402587890625</LatitudeDegrees>
              <LongitudeDegrees>-1.83060564100742340087890625</LongitudeDegrees>
            </Position>
            <AltitudeMeters>492.399993896484375</AltitudeMeters>
            <DistanceMeters>NAN</DistanceMeters>
          </Trackpoint>
          <Trackpoint>
            <Time>2021-08-14T10:38:19.000Z</Time>
            <Position>
              <LatitudeDegrees>42.9619565047323703765869140625</LatitudeDegrees>
              <LongitudeDegrees>-1.8305742926895618438720703125</LongitudeDegrees>
            </Position>
            <AltitudeMeters>492.399993896484375</AltitudeMeters>
            <DistanceMeters>NAN</DistanceMeters>
          </Trackpoint>
          <Trackpoint>
            <Time>2021-08-14T10:38:20.000Z</Time>
            <Position>
              <LatitudeDegrees>42.96196362935006618499755859375</LatitudeDegrees>
              <LongitudeDegrees>-1.83054487220942974090576171875</LongitudeDegrees>
            </Position>
            <AltitudeMeters>492.600006103515625</AltitudeMeters>
            <DistanceMeters>NAN</DistanceMeters>
          </Trackpoint>
          <Trackpoint>
            <Time>2021-08-14T10:38:21.000Z</Time>
            <Position>
              <LatitudeDegrees>42.96196664683520793914794921875</LatitudeDegrees>
              <LongitudeDegrees>-1.83051603846251964569091796875</LongitudeDegrees>
            </Position>
            <AltitudeMeters>492.79998779296875</AltitudeMeters>
            <DistanceMeters>NAN</DistanceMeters>
          </Trackpoint>
          <Trackpoint>
            <Time>2021-08-14T10:38:22.000Z</Time>
            <Position>
              <LatitudeDegrees>42.9619725979864597320556640625</LatitudeDegrees>
              <LongitudeDegrees>-1.8304857797920703887939453125</LongitudeDegrees>
            </Position>
            <AltitudeMeters>493</AltitudeMeters>
            <DistanceMeters>NAN</DistanceMeters>
          </Trackpoint>
          <Trackpoint>
            <Time>2021-08-14T10:38:23.000Z</Time>
            <Position>
              <LatitudeDegrees>42.96197913587093353271484375</LatitudeDegrees>
              <LongitudeDegrees>-1.830455102026462554931640625</LongitudeDegrees>
            </Position>
            <AltitudeMeters>493</AltitudeMeters>
            <DistanceMeters>NAN</DistanceMeters>
          </Trackpoint>
          <Trackpoint>
            <Time>2021-08-14T10:38:24.000Z</Time>
            <Position>
              <LatitudeDegrees>42.9619856737554073333740234375</LatitudeDegrees>
              <LongitudeDegrees>-1.83042266406118869781494140625</LongitudeDegrees>
            </Position>
            <AltitudeMeters>493.20001220703125</AltitudeMeters>
            <DistanceMeters>NAN</DistanceMeters>
          </Trackpoint>
          <Trackpoint>
            <Time>2021-08-14T10:38:26.000Z</Time>
            <Position>
              <LatitudeDegrees>42.96198307536542415618896484375</LatitudeDegrees>
              <LongitudeDegrees>-1.8303515017032623291015625</LongitudeDegrees>
            </Position>
            <AltitudeMeters>493.20001220703125</AltitudeMeters>
            <DistanceMeters>NAN</DistanceMeters>
          </Trackpoint>
          <Trackpoint>
            <Time>2021-08-14T10:38:27.000Z</Time>
            <Position>
              <LatitudeDegrees>42.96198190189898014068603515625</LatitudeDegrees>
              <LongitudeDegrees>-1.830320321023464202880859375</LongitudeDegrees>
            </Position>
            <AltitudeMeters>493.399993896484375</AltitudeMeters>
            <DistanceMeters>NAN</DistanceMeters>
          </Trackpoint>
          <Trackpoint>
            <Time>2021-08-14T10:38:28.000Z</Time>
            <Position>
              <LatitudeDegrees>42.9619779624044895172119140625</LatitudeDegrees>
              <LongitudeDegrees>-1.83028620667755603790283203125</LongitudeDegrees>
            </Position>
            <AltitudeMeters>493.399993896484375</AltitudeMeters>
            <DistanceMeters>NAN</DistanceMeters>
          </Trackpoint>
          <Trackpoint>
            <Time>2021-08-14T10:38:29.000Z</Time>
            <Position>
              <LatitudeDegrees>42.96197301708161830902099609375</LatitudeDegrees>
              <LongitudeDegrees>-1.83025083504617214202880859375</LongitudeDegrees>
            </Position>
            <AltitudeMeters>493.600006103515625</AltitudeMeters>
            <DistanceMeters>NAN</DistanceMeters>
          </Trackpoint>
          <Trackpoint>
            <Time>2021-08-14T10:38:30.000Z</Time>
            <Position>
              <LatitudeDegrees>42.96196706593036651611328125</LatitudeDegrees>
              <LongitudeDegrees>-1.83021713979542255401611328125</LongitudeDegrees>
            </Position>
            <AltitudeMeters>493.600006103515625</AltitudeMeters>
            <DistanceMeters>NAN</DistanceMeters>
          </Trackpoint>
          <Trackpoint>
            <Time>2021-08-14T10:38:34.000Z</Time>
            <Position>
              <LatitudeDegrees>42.9619167745113372802734375</LatitudeDegrees>
              <LongitudeDegrees>-1.83009912259876728057861328125</LongitudeDegrees>
            </Position>
            <AltitudeMeters>493.600006103515625</AltitudeMeters>
            <DistanceMeters>NAN</DistanceMeters>
          </Trackpoint>
          <Trackpoint>
            <Time>2021-08-14T10:38:42.000Z</Time>
            <Position>
              <LatitudeDegrees>42.961787693202495574951171875</LatitudeDegrees>
              <LongitudeDegrees>-1.8298175744712352752685546875</LongitudeDegrees>
            </Position>
            <AltitudeMeters>493.399993896484375</AltitudeMeters>
            <DistanceMeters>NAN</DistanceMeters>
          </Trackpoint>
          <Trackpoint>
            <Time>2021-08-14T10:38:46.000Z</Time>
            <Position>
              <LatitudeDegrees>42.96175139956176280975341796875</LatitudeDegrees>
              <LongitudeDegrees>-1.829688660800457000732421875</LongitudeDegrees>
            </Position>
            <AltitudeMeters>493.399993896484375</AltitudeMeters>
            <DistanceMeters>NAN</DistanceMeters>
          </Trackpoint>
          <Trackpoint>
            <Time>2021-08-14T10:38:47.000Z</Time>
            <Position>
              <LatitudeDegrees>42.96174301765859127044677734375</LatitudeDegrees>
              <LongitudeDegrees>-1.8296536244451999664306640625</LongitudeDegrees>
            </Position>
            <AltitudeMeters>493.399993896484375</AltitudeMeters>
            <DistanceMeters>NAN</DistanceMeters>
          </Trackpoint>
          <Trackpoint>
            <Time>2021-08-14T10:38:48.000Z</Time>
            <Position>
              <LatitudeDegrees>42.96173295937478542327880859375</LatitudeDegrees>
              <LongitudeDegrees>-1.82961682789027690887451171875</LongitudeDegrees>
            </Position>
            <AltitudeMeters>493.399993896484375</AltitudeMeters>
            <DistanceMeters>NAN</DistanceMeters>
          </Trackpoint>
          <Trackpoint>
            <Time>2021-08-14T10:38:55.000Z</Time>
            <Position>
              <LatitudeDegrees>42.9616601206362247467041015625</LatitudeDegrees>
              <LongitudeDegrees>-1.829346679151058197021484375</LongitudeDegrees>
            </Position>
            <AltitudeMeters>493.399993896484375</AltitudeMeters>
            <DistanceMeters>NAN</DistanceMeters>
          </Trackpoint>
          <Trackpoint>
            <Time>2021-08-14T10:39:01.000Z</Time>
            <Position>
              <LatitudeDegrees>42.96161242760717868804931640625</LatitudeDegrees>
              <LongitudeDegrees>-1.82905959896743297576904296875</LongitudeDegrees>
            </Position>
            <AltitudeMeters>493.399993896484375</AltitudeMeters>
            <DistanceMeters>NAN</DistanceMeters>
          </Trackpoint>
          <Trackpoint>
            <Time>2021-08-14T10:39:02.000Z</Time>
            <Position>
              <LatitudeDegrees>42.961602620780467987060546875</LatitudeDegrees>
              <LongitudeDegrees>-1.8290078826248645782470703125</LongitudeDegrees>
            </Position>
            <AltitudeMeters>493.20001220703125</AltitudeMeters>
            <DistanceMeters>NAN</DistanceMeters>
          </Trackpoint>
          <Trackpoint>
            <Time>2021-08-14T10:39:08.000Z</Time>
            <Position>
              <LatitudeDegrees>42.9615555144846439361572265625</LatitudeDegrees>
              <LongitudeDegrees>-1.82869456708431243896484375</LongitudeDegrees>
            </Position>
            <AltitudeMeters>493</AltitudeMeters>
            <DistanceMeters>NAN</DistanceMeters>
          </Trackpoint>
          <Trackpoint>
            <Time>2021-08-14T10:39:09.000Z</Time>
            <Position>
              <LatitudeDegrees>42.961548306047916412353515625</LatitudeDegrees>
              <LongitudeDegrees>-1.82864150963723659515380859375</LongitudeDegrees>
            </Position>
            <AltitudeMeters>493</AltitudeMeters>
            <DistanceMeters>NAN</DistanceMeters>
          </Trackpoint>
          <Trackpoint>
            <Time>2021-08-14T10:39:10.000Z</Time>
            <Position>
              <LatitudeDegrees>42.96153900213539600372314453125</LatitudeDegrees>
              <LongitudeDegrees>-1.8285914696753025054931640625</LongitudeDegrees>
            </Position>
            <AltitudeMeters>492.79998779296875</AltitudeMeters>
            <DistanceMeters>NAN</DistanceMeters>
          </Trackpoint>
          <Trackpoint>
            <Time>2021-08-14T10:39:11.000Z</Time>
            <Position>
              <LatitudeDegrees>42.9615343920886516571044921875</LatitudeDegrees>
              <LongitudeDegrees>-1.82855148799717426300048828125</LongitudeDegrees>
            </Position>
            <AltitudeMeters>492.79998779296875</AltitudeMeters>
            <DistanceMeters>NAN</DistanceMeters>
          </Trackpoint>
          <Trackpoint>
            <Time>2021-08-14T10:39:12.000Z</Time>
            <Position>
              <LatitudeDegrees>42.9615278542041778564453125</LatitudeDegrees>
              <LongitudeDegrees>-1.82849683798849582672119140625</LongitudeDegrees>
            </Position>
            <AltitudeMeters>492.79998779296875</AltitudeMeters>
            <DistanceMeters>NAN</DistanceMeters>
          </Trackpoint>
          <Trackpoint>
            <Time>2021-08-14T10:39:13.000Z</Time>
            <Position>
              <LatitudeDegrees>42.96152391470968723297119140625</LatitudeDegrees>
              <LongitudeDegrees>-1.8284617178142070770263671875</LongitudeDegrees>
            </Position>
            <AltitudeMeters>492.79998779296875</AltitudeMeters>
            <DistanceMeters>NAN</DistanceMeters>
          </Trackpoint>
          <Trackpoint>
            <Time>2021-08-14T10:39:14.000Z</Time>
            <Position>
              <LatitudeDegrees>42.9615182988345623016357421875</LatitudeDegrees>
              <LongitudeDegrees>-1.828438751399517059326171875</LongitudeDegrees>
            </Position>
            <AltitudeMeters>492.79998779296875</AltitudeMeters>
            <DistanceMeters>NAN</DistanceMeters>
          </Trackpoint>
          <Trackpoint>
            <Time>2021-08-14T10:39:15.000Z</Time>
            <Position>
              <LatitudeDegrees>42.9615109227597713470458984375</LatitudeDegrees>
              <LongitudeDegrees>-1.82842609472572803497314453125</LongitudeDegrees>
            </Position>
            <AltitudeMeters>492.79998779296875</AltitudeMeters>
            <DistanceMeters>NAN</DistanceMeters>
          </Trackpoint>
          <Trackpoint>
            <Time>2021-08-14T10:39:16.000Z</Time>
            <Position>
              <LatitudeDegrees>42.96150530688464641571044921875</LatitudeDegrees>
              <LongitudeDegrees>-1.82841888628900051116943359375</LongitudeDegrees>
            </Position>
            <AltitudeMeters>492.600006103515625</AltitudeMeters>
            <DistanceMeters>NAN</DistanceMeters>
          </Trackpoint>
          <Trackpoint>
            <Time>2021-08-14T10:39:17.000Z</Time>
            <Position>
              <LatitudeDegrees>42.96150304377079010009765625</LatitudeDegrees>
              <LongitudeDegrees>-1.82840262539684772491455078125</LongitudeDegrees>
            </Position>
            <AltitudeMeters>492.600006103515625</AltitudeMeters>
            <DistanceMeters>NAN</DistanceMeters>
          </Trackpoint>
          <Trackpoint>
            <Time>2021-08-14T10:39:18.000Z</Time>
            <Position>
              <LatitudeDegrees>42.96150681562721729278564453125</LatitudeDegrees>
              <LongitudeDegrees>-1.82839307002723217010498046875</LongitudeDegrees>
            </Position>
            <AltitudeMeters>492.79998779296875</AltitudeMeters>
            <DistanceMeters>NAN</DistanceMeters>
          </Trackpoint>
          <Trackpoint>
            <Time>2021-08-14T10:39:19.000Z</Time>
            <Position>
              <LatitudeDegrees>42.9615149460732936859130859375</LatitudeDegrees>
              <LongitudeDegrees>-1.82838737033307552337646484375</LongitudeDegrees>
            </Position>
            <AltitudeMeters>492.79998779296875</AltitudeMeters>
            <DistanceMeters>NAN</DistanceMeters>
          </Trackpoint>
          <Trackpoint>
            <Time>2021-08-14T10:39:22.000Z</Time>
            <Position>
              <LatitudeDegrees>42.9615169577300548553466796875</LatitudeDegrees>
              <LongitudeDegrees>-1.82838611304759979248046875</LongitudeDegrees>
            </Position>
            <AltitudeMeters>492.79998779296875</AltitudeMeters>
            <DistanceMeters>NAN</DistanceMeters>
          </Trackpoint>
          <Trackpoint>
            <Time>2021-08-14T10:39:26.000Z</Time>
            <Position>
              <LatitudeDegrees>42.96153523027896881103515625</LatitudeDegrees>
              <LongitudeDegrees>-1.8283728696405887603759765625</LongitudeDegrees>
            </Position>
            <AltitudeMeters>492.600006103515625</AltitudeMeters>
            <DistanceMeters>NAN</DistanceMeters>
          </Trackpoint>
          <Trackpoint>
            <Time>2021-08-14T10:39:28.000Z</Time>
            <Position>
              <LatitudeDegrees>42.9615747928619384765625</LatitudeDegrees>
              <LongitudeDegrees>-1.82838485576212406158447265625</LongitudeDegrees>
            </Position>
            <AltitudeMeters>492.600006103515625</AltitudeMeters>
            <DistanceMeters>NAN</DistanceMeters>
          </Trackpoint>
          <Trackpoint>
            <Time>2021-08-14T10:39:31.000Z</Time>
            <Position>
              <LatitudeDegrees>42.96160899102687835693359375</LatitudeDegrees>
              <LongitudeDegrees>-1.82852089405059814453125</LongitudeDegrees>
            </Position>
            <AltitudeMeters>492.399993896484375</AltitudeMeters>
            <DistanceMeters>NAN</DistanceMeters>
          </Trackpoint>
          <Trackpoint>
            <Time>2021-08-14T10:39:32.000Z</Time>
            <Position>
              <LatitudeDegrees>42.96161812730133533477783203125</LatitudeDegrees>
              <LongitudeDegrees>-1.82858015410602092742919921875</LongitudeDegrees>
            </Position>
            <AltitudeMeters>492.20001220703125</AltitudeMeters>
            <DistanceMeters>NAN</DistanceMeters>
          </Trackpoint>
          <Trackpoint>
            <Time>2021-08-14T10:39:33.000Z</Time>
            <Position>
              <LatitudeDegrees>42.9616262577474117279052734375</LatitudeDegrees>
              <LongitudeDegrees>-1.8286437727510929107666015625</LongitudeDegrees>
            </Position>
            <AltitudeMeters>492.20001220703125</AltitudeMeters>
            <DistanceMeters>NAN</DistanceMeters>
          </Trackpoint>
          <Trackpoint>
            <Time>2021-08-14T10:39:36.000Z</Time>
            <Position>
              <LatitudeDegrees>42.96165727078914642333984375</LatitudeDegrees>
              <LongitudeDegrees>-1.8288546614348888397216796875</LongitudeDegrees>
            </Position>
            <AltitudeMeters>492.399993896484375</AltitudeMeters>
            <DistanceMeters>NAN</DistanceMeters>
          </Trackpoint>
          <Trackpoint>
            <Time>2021-08-14T10:39:39.000Z</Time>
            <Position>
              <LatitudeDegrees>42.961689122021198272705078125</LatitudeDegrees>
              <LongitudeDegrees>-1.82906873524188995361328125</LongitudeDegrees>
            </Position>
            <AltitudeMeters>492.399993896484375</AltitudeMeters>
            <DistanceMeters>NAN</DistanceMeters>
          </Trackpoint>
          <Trackpoint>
            <Time>2021-08-14T10:39:43.000Z</Time>
            <Position>
              <LatitudeDegrees>42.96174310147762298583984375</LatitudeDegrees>
              <LongitudeDegrees>-1.82934634387493133544921875</LongitudeDegrees>
            </Position>
            <AltitudeMeters>492.399993896484375</AltitudeMeters>
            <DistanceMeters>NAN</DistanceMeters>
          </Trackpoint>
          <Trackpoint>
            <Time>2021-08-14T10:39:47.000Z</Time>
            <Position>
              <LatitudeDegrees>42.9618056304752826690673828125</LatitudeDegrees>
              <LongitudeDegrees>-1.82960593141615390777587890625</LongitudeDegrees>
            </Position>
            <AltitudeMeters>492.79998779296875</AltitudeMeters>
            <DistanceMeters>NAN</DistanceMeters>
          </Trackpoint>
          <Trackpoint>
            <Time>2021-08-14T10:39:48.000Z</Time>
            <Position>
              <LatitudeDegrees>42.96182113699615001678466796875</LatitudeDegrees>
              <LongitudeDegrees>-1.82967013679444789886474609375</LongitudeDegrees>
            </Position>
            <AltitudeMeters>492.79998779296875</AltitudeMeters>
            <DistanceMeters>NAN</DistanceMeters>
          </Trackpoint>
          <Trackpoint>
            <Time>2021-08-14T10:39:50.000Z</Time>
            <Position>
              <LatitudeDegrees>42.96186254359781742095947265625</LatitudeDegrees>
              <LongitudeDegrees>-1.82980106212198734283447265625</LongitudeDegrees>
            </Position>
            <AltitudeMeters>493</AltitudeMeters>
            <DistanceMeters>NAN</DistanceMeters>
          </Trackpoint>
          <Trackpoint>
            <Time>2021-08-14T10:39:52.000Z</Time>
            <Position>
              <LatitudeDegrees>42.96190964989364147186279296875</LatitudeDegrees>
              <LongitudeDegrees>-1.82992662303149700164794921875</LongitudeDegrees>
            </Position>
            <AltitudeMeters>493.20001220703125</AltitudeMeters>
            <DistanceMeters>NAN</DistanceMeters>
          </Trackpoint>
          <Trackpoint>
            <Time>2021-08-14T10:39:53.000Z</Time>
            <Position>
              <LatitudeDegrees>42.9619337059557437896728515625</LatitudeDegrees>
              <LongitudeDegrees>-1.82998663745820522308349609375</LongitudeDegrees>
            </Position>
            <AltitudeMeters>493.20001220703125</AltitudeMeters>
            <DistanceMeters>NAN</DistanceMeters>
          </Trackpoint>
          <Trackpoint>
            <Time>2021-08-14T10:39:54.000Z</Time>
            <Position>
              <LatitudeDegrees>42.96195776201784610748291015625</LatitudeDegrees>
              <LongitudeDegrees>-1.830042712390422821044921875</LongitudeDegrees>
            </Position>
            <AltitudeMeters>493.399993896484375</AltitudeMeters>
            <DistanceMeters>NAN</DistanceMeters>
          </Trackpoint>
          <Trackpoint>
            <Time>2021-08-14T10:39:57.000Z</Time>
            <Position>
              <LatitudeDegrees>42.9620312713086605072021484375</LatitudeDegrees>
              <LongitudeDegrees>-1.830191574990749359130859375</LongitudeDegrees>
            </Position>
            <AltitudeMeters>493.399993896484375</AltitudeMeters>
            <DistanceMeters>NAN</DistanceMeters>
          </Trackpoint>
          <Trackpoint>
            <Time>2021-08-14T10:39:58.000Z</Time>
            <Position>
              <LatitudeDegrees>42.9620547406375408172607421875</LatitudeDegrees>
              <LongitudeDegrees>-1.83023641817271709442138671875</LongitudeDegrees>
            </Position>
            <AltitudeMeters>493.399993896484375</AltitudeMeters>
            <DistanceMeters>NAN</DistanceMeters>
          </Trackpoint>
          <Trackpoint>
            <Time>2021-08-14T10:39:59.000Z</Time>
            <Position>
              <LatitudeDegrees>42.96207242645323276519775390625</LatitudeDegrees>
              <LongitudeDegrees>-1.83026860468089580535888671875</LongitudeDegrees>
            </Position>
            <AltitudeMeters>493.399993896484375</AltitudeMeters>
            <DistanceMeters>NAN</DistanceMeters>
          </Trackpoint>
          <Trackpoint>
            <Time>2021-08-14T10:40:00.000Z</Time>
            <Position>
              <LatitudeDegrees>42.9621003381907939910888671875</LatitudeDegrees>
              <LongitudeDegrees>-1.8303131125867366790771484375</LongitudeDegrees>
            </Position>
            <AltitudeMeters>493.600006103515625</AltitudeMeters>
            <DistanceMeters>NAN</DistanceMeters>
          </Trackpoint>
          <Trackpoint>
            <Time>2021-08-14T10:40:01.000Z</Time>
            <Position>
              <LatitudeDegrees>42.96212372370064258575439453125</LatitudeDegrees>
              <LongitudeDegrees>-1.83034907095134258270263671875</LongitudeDegrees>
            </Position>
            <AltitudeMeters>493.600006103515625</AltitudeMeters>
            <DistanceMeters>NAN</DistanceMeters>
          </Trackpoint>
          <Trackpoint>
            <Time>2021-08-14T10:40:02.000Z</Time>
            <Position>
              <LatitudeDegrees>42.9621447622776031494140625</LatitudeDegrees>
              <LongitudeDegrees>-1.8303836882114410400390625</LongitudeDegrees>
            </Position>
            <AltitudeMeters>493.600006103515625</AltitudeMeters>
            <DistanceMeters>NAN</DistanceMeters>
          </Trackpoint>
          <Trackpoint>
            <Time>2021-08-14T10:40:03.000Z</Time>
            <Position>
              <LatitudeDegrees>42.96216244809329509735107421875</LatitudeDegrees>
              <LongitudeDegrees>-1.8304193951189517974853515625</LongitudeDegrees>
            </Position>
            <AltitudeMeters>493.79998779296875</AltitudeMeters>
            <DistanceMeters>NAN</DistanceMeters>
          </Trackpoint>
          <Trackpoint>
            <Time>2021-08-14T10:40:04.000Z</Time>
            <Position>
              <LatitudeDegrees>42.9621761105954647064208984375</LatitudeDegrees>
              <LongitudeDegrees>-1.8304431997239589691162109375</LongitudeDegrees>
            </Position>
            <AltitudeMeters>493.79998779296875</AltitudeMeters>
            <DistanceMeters>NAN</DistanceMeters>
          </Trackpoint>
          <Trackpoint>
            <Time>2021-08-14T10:40:05.000Z</Time>
            <Position>
              <LatitudeDegrees>42.9621942155063152313232421875</LatitudeDegrees>
              <LongitudeDegrees>-1.8304713629186153411865234375</LongitudeDegrees>
            </Position>
            <AltitudeMeters>493.79998779296875</AltitudeMeters>
            <DistanceMeters>NAN</DistanceMeters>
          </Trackpoint>
          <Trackpoint>
            <Time>2021-08-14T10:40:06.000Z</Time>
            <Position>
              <LatitudeDegrees>42.962216176092624664306640625</LatitudeDegrees>
              <LongitudeDegrees>-1.83049776591360569000244140625</LongitudeDegrees>
            </Position>
            <AltitudeMeters>493.79998779296875</AltitudeMeters>
            <DistanceMeters>NAN</DistanceMeters>
          </Trackpoint>
          <Trackpoint>
            <Time>2021-08-14T10:40:07.000Z</Time>
            <Position>
              <LatitudeDegrees>42.96223151497542858123779296875</LatitudeDegrees>
              <LongitudeDegrees>-1.83051939122378826141357421875</LongitudeDegrees>
            </Position>
            <AltitudeMeters>493.79998779296875</AltitudeMeters>
            <DistanceMeters>NAN</DistanceMeters>
          </Trackpoint>
          <Trackpoint>
            <Time>2021-08-14T10:40:08.000Z</Time>
            <Position>
              <LatitudeDegrees>42.9622418247163295745849609375</LatitudeDegrees>
              <LongitudeDegrees>-1.83054202236235141754150390625</LongitudeDegrees>
            </Position>
            <AltitudeMeters>494</AltitudeMeters>
            <DistanceMeters>NAN</DistanceMeters>
          </Trackpoint>
          <Trackpoint>
            <Time>2021-08-14T10:40:09.000Z</Time>
            <Position>
              <LatitudeDegrees>42.9622408188879489898681640625</LatitudeDegrees>
              <LongitudeDegrees>-1.8305687606334686279296875</LongitudeDegrees>
            </Position>
            <AltitudeMeters>494</AltitudeMeters>
            <DistanceMeters>NAN</DistanceMeters>
          </Trackpoint>
          <Trackpoint>
            <Time>2021-08-14T10:40:10.000Z</Time>
            <Position>
              <LatitudeDegrees>42.9622310958802700042724609375</LatitudeDegrees>
              <LongitudeDegrees>-1.8305907212197780609130859375</LongitudeDegrees>
            </Position>
            <AltitudeMeters>494.399993896484375</AltitudeMeters>
            <DistanceMeters>NAN</DistanceMeters>
          </Trackpoint>
          <Trackpoint>
            <Time>2021-08-14T10:40:11.000Z</Time>
            <Position>
              <LatitudeDegrees>42.96220838092267513275146484375</LatitudeDegrees>
              <LongitudeDegrees>-1.8306091614067554473876953125</LongitudeDegrees>
            </Position>
            <AltitudeMeters>494.399993896484375</AltitudeMeters>
            <DistanceMeters>NAN</DistanceMeters>
          </Trackpoint>
          <Trackpoint>
            <Time>2021-08-14T10:40:13.000Z</Time>
            <Position>
              <LatitudeDegrees>42.96216496266424655914306640625</LatitudeDegrees>
              <LongitudeDegrees>-1.830578483641147613525390625</LongitudeDegrees>
            </Position>
            <AltitudeMeters>494.600006103515625</AltitudeMeters>
            <DistanceMeters>NAN</DistanceMeters>
          </Trackpoint>
          <Trackpoint>
            <Time>2021-08-14T10:40:16.000Z</Time>
            <Position>
              <LatitudeDegrees>42.96211115084588527679443359375</LatitudeDegrees>
              <LongitudeDegrees>-1.83049726299941539764404296875</LongitudeDegrees>
            </Position>
            <AltitudeMeters>494.600006103515625</AltitudeMeters>
            <DistanceMeters>NAN</DistanceMeters>
          </Trackpoint>
          <Trackpoint>
            <Time>2021-08-14T10:40:17.000Z</Time>
            <Position>
              <LatitudeDegrees>42.96209723688662052154541015625</LatitudeDegrees>
              <LongitudeDegrees>-1.83047513477504253387451171875</LongitudeDegrees>
            </Position>
            <AltitudeMeters>494.600006103515625</AltitudeMeters>
            <DistanceMeters>NAN</DistanceMeters>
          </Trackpoint>
          <Trackpoint>
            <Time>2021-08-14T10:40:18.000Z</Time>
            <Position>
              <LatitudeDegrees>42.9620857536792755126953125</LatitudeDegrees>
              <LongitudeDegrees>-1.8304566107690334320068359375</LongitudeDegrees>
            </Position>
            <AltitudeMeters>494.600006103515625</AltitudeMeters>
            <DistanceMeters>NAN</DistanceMeters>
          </Trackpoint>
          <Trackpoint>
            <Time>2021-08-14T10:40:19.000Z</Time>
            <Position>
              <LatitudeDegrees>42.9620795510709285736083984375</LatitudeDegrees>
              <LongitudeDegrees>-1.830441690981388092041015625</LongitudeDegrees>
            </Position>
            <AltitudeMeters>494.600006103515625</AltitudeMeters>
            <DistanceMeters>NAN</DistanceMeters>
          </Trackpoint>
          <Trackpoint>
            <Time>2021-08-14T10:40:20.000Z</Time>
            <Position>
              <LatitudeDegrees>42.962076701223850250244140625</LatitudeDegrees>
              <LongitudeDegrees>-1.830425262451171875</LongitudeDegrees>
            </Position>
            <AltitudeMeters>494.600006103515625</AltitudeMeters>
            <DistanceMeters>NAN</DistanceMeters>
          </Trackpoint>
          <Trackpoint>
            <Time>2021-08-14T10:40:23.000Z</Time>
            <Position>
              <LatitudeDegrees>42.96207837760448455810546875</LatitudeDegrees>
              <LongitudeDegrees>-1.83041528798639774322509765625</LongitudeDegrees>
            </Position>
            <AltitudeMeters>494.399993896484375</AltitudeMeters>
            <DistanceMeters>NAN</DistanceMeters>
          </Trackpoint>
          <Trackpoint>
            <Time>2021-08-14T10:40:33.000Z</Time>
            <Position>
              <LatitudeDegrees>42.96207997016608715057373046875</LatitudeDegrees>
              <LongitudeDegrees>-1.83041310869157314300537109375</LongitudeDegrees>
            </Position>
            <AltitudeMeters>494</AltitudeMeters>
            <DistanceMeters>NAN</DistanceMeters>
          </Trackpoint>
          <Trackpoint>
            <Time>2021-08-14T10:40:35.000Z</Time>
            <Position>
              <LatitudeDegrees>42.96211634762585163116455078125</LatitudeDegrees>
              <LongitudeDegrees>-1.83039869181811809539794921875</LongitudeDegrees>
            </Position>
            <AltitudeMeters>494</AltitudeMeters>
            <DistanceMeters>NAN</DistanceMeters>
          </Trackpoint>
          <Trackpoint>
            <Time>2021-08-14T10:40:38.000Z</Time>
            <Position>
              <LatitudeDegrees>42.9621989093720912933349609375</LatitudeDegrees>
              <LongitudeDegrees>-1.830477230250835418701171875</LongitudeDegrees>
            </Position>
            <AltitudeMeters>493.79998779296875</AltitudeMeters>
            <DistanceMeters>NAN</DistanceMeters>
          </Trackpoint>
          <Trackpoint>
            <Time>2021-08-14T10:40:39.000Z</Time>
            <Position>
              <LatitudeDegrees>42.96221978031098842620849609375</LatitudeDegrees>
              <LongitudeDegrees>-1.8305043876171112060546875</LongitudeDegrees>
            </Position>
            <AltitudeMeters>493.79998779296875</AltitudeMeters>
            <DistanceMeters>NAN</DistanceMeters>
          </Trackpoint>
          <Trackpoint>
            <Time>2021-08-14T10:40:40.000Z</Time>
            <Position>
              <LatitudeDegrees>42.962245680391788482666015625</LatitudeDegrees>
              <LongitudeDegrees>-1.83054084889590740203857421875</LongitudeDegrees>
            </Position>
            <AltitudeMeters>493.79998779296875</AltitudeMeters>
            <DistanceMeters>NAN</DistanceMeters>
          </Trackpoint>
          <Trackpoint>
            <Time>2021-08-14T10:40:42.000Z</Time>
            <Position>
              <LatitudeDegrees>42.96229387633502483367919921875</LatitudeDegrees>
              <LongitudeDegrees>-1.83061963878571987152099609375</LongitudeDegrees>
            </Position>
            <AltitudeMeters>493.79998779296875</AltitudeMeters>
            <DistanceMeters>NAN</DistanceMeters>
          </Trackpoint>
          <Trackpoint>
            <Time>2021-08-14T10:40:43.000Z</Time>
            <Position>
              <LatitudeDegrees>42.96231164596974849700927734375</LatitudeDegrees>
              <LongitudeDegrees>-1.83065123856067657470703125</LongitudeDegrees>
            </Position>
            <AltitudeMeters>494</AltitudeMeters>
            <DistanceMeters>NAN</DistanceMeters>
          </Trackpoint>
          <Trackpoint>
            <Time>2021-08-14T10:40:44.000Z</Time>
            <Position>
              <LatitudeDegrees>42.962325476109981536865234375</LatitudeDegrees>
              <LongitudeDegrees>-1.8306735344231128692626953125</LongitudeDegrees>
            </Position>
            <AltitudeMeters>494</AltitudeMeters>
            <DistanceMeters>NAN</DistanceMeters>
          </Trackpoint>
          <Trackpoint>
            <Time>2021-08-14T10:40:45.000Z</Time>
            <Position>
              <LatitudeDegrees>42.96234584413468837738037109375</LatitudeDegrees>
              <LongitudeDegrees>-1.830705218017101287841796875</LongitudeDegrees>
            </Position>
            <AltitudeMeters>494</AltitudeMeters>
            <DistanceMeters>NAN</DistanceMeters>
          </Trackpoint>
          <Trackpoint>
            <Time>2021-08-14T10:40:46.000Z</Time>
            <Position>
              <LatitudeDegrees>42.9623595066368579864501953125</LatitudeDegrees>
              <LongitudeDegrees>-1.830728016793727874755859375</LongitudeDegrees>
            </Position>
            <AltitudeMeters>494.20001220703125</AltitudeMeters>
            <DistanceMeters>NAN</DistanceMeters>
          </Trackpoint>
          <Trackpoint>
            <Time>2021-08-14T10:40:47.000Z</Time>
            <Position>
              <LatitudeDegrees>42.962373085319995880126953125</LatitudeDegrees>
              <LongitudeDegrees>-1.830744780600070953369140625</LongitudeDegrees>
            </Position>
            <AltitudeMeters>494.20001220703125</AltitudeMeters>
            <DistanceMeters>NAN</DistanceMeters>
          </Trackpoint>
          <Trackpoint>
            <Time>2021-08-14T10:40:48.000Z</Time>
            <Position>
              <LatitudeDegrees>42.9623863287270069122314453125</LatitudeDegrees>
              <LongitudeDegrees>-1.830754838883876800537109375</LongitudeDegrees>
            </Position>
            <AltitudeMeters>494.399993896484375</AltitudeMeters>
            <DistanceMeters>NAN</DistanceMeters>
          </Trackpoint>
          <Trackpoint>
            <Time>2021-08-14T10:40:49.000Z</Time>
            <Position>
              <LatitudeDegrees>42.96240451745688915252685546875</LatitudeDegrees>
              <LongitudeDegrees>-1.83075609616935253143310546875</LongitudeDegrees>
            </Position>
            <AltitudeMeters>494.399993896484375</AltitudeMeters>
            <DistanceMeters>NAN</DistanceMeters>
          </Trackpoint>
          <Trackpoint>
            <Time>2021-08-14T10:40:50.000Z</Time>
            <Position>
              <LatitudeDegrees>42.96240963041782379150390625</LatitudeDegrees>
              <LongitudeDegrees>-1.830744445323944091796875</LongitudeDegrees>
            </Position>
            <AltitudeMeters>494.399993896484375</AltitudeMeters>
            <DistanceMeters>NAN</DistanceMeters>
          </Trackpoint>
          <Trackpoint>
            <Time>2021-08-14T10:40:51.000Z</Time>
            <Position>
              <LatitudeDegrees>42.9624138213694095611572265625</LatitudeDegrees>
              <LongitudeDegrees>-1.8307350575923919677734375</LongitudeDegrees>
            </Position>
            <AltitudeMeters>494.600006103515625</AltitudeMeters>
            <DistanceMeters>NAN</DistanceMeters>
          </Trackpoint>
          <Trackpoint>
            <Time>2021-08-14T10:40:53.000Z</Time>
            <Position>
              <LatitudeDegrees>42.9624138213694095611572265625</LatitudeDegrees>
              <LongitudeDegrees>-1.8307350575923919677734375</LongitudeDegrees>
            </Position>
            <AltitudeMeters>494.600006103515625</AltitudeMeters>
            <DistanceMeters>NAN</DistanceMeters>
          </Trackpoint>
          <Trackpoint>
            <Time>2021-08-14T10:40:54.000Z</Time>
            <Position>
              <LatitudeDegrees>42.9624144919216632843017578125</LatitudeDegrees>
              <LongitudeDegrees>-1.8307377398014068603515625</LongitudeDegrees>
            </Position>
            <AltitudeMeters>494.600006103515625</AltitudeMeters>
            <DistanceMeters>NAN</DistanceMeters>
          </Trackpoint>
          <Trackpoint>
            <Time>2021-08-14T10:40:55.000Z</Time>
            <Position>
              <LatitudeDegrees>42.96241340227425098419189453125</LatitudeDegrees>
              <LongitudeDegrees>-1.83074201457202434539794921875</LongitudeDegrees>
            </Position>
            <AltitudeMeters>494.79998779296875</AltitudeMeters>
            <DistanceMeters>NAN</DistanceMeters>
          </Trackpoint>
          <Trackpoint>
            <Time>2021-08-14T10:41:02.000Z</Time>
            <Position>
              <LatitudeDegrees>42.96241340227425098419189453125</LatitudeDegrees>
              <LongitudeDegrees>-1.83074201457202434539794921875</LongitudeDegrees>
            </Position>
            <AltitudeMeters>494.79998779296875</AltitudeMeters>
            <DistanceMeters>NAN</DistanceMeters>
          </Trackpoint>
          <Trackpoint>
            <Time>2021-08-14T10:41:09.000Z</Time>
            <Position>
              <LatitudeDegrees>42.9624138213694095611572265625</LatitudeDegrees>
              <LongitudeDegrees>-1.83074017055332660675048828125</LongitudeDegrees>
            </Position>
            <AltitudeMeters>494.600006103515625</AltitudeMeters>
            <DistanceMeters>NAN</DistanceMeters>
          </Trackpoint>
          <Trackpoint>
            <Time>2021-08-14T10:41:11.000Z</Time>
            <Position>
              <LatitudeDegrees>42.96242027543485164642333984375</LatitudeDegrees>
              <LongitudeDegrees>-1.830685772001743316650390625</LongitudeDegrees>
            </Position>
            <AltitudeMeters>494.600006103515625</AltitudeMeters>
            <DistanceMeters>NAN</DistanceMeters>
          </Trackpoint>
          <Trackpoint>
            <Time>2021-08-14T10:41:15.000Z</Time>
            <Position>
              <LatitudeDegrees>42.96240284107625484466552734375</LatitudeDegrees>
              <LongitudeDegrees>-1.83048519305884838104248046875</LongitudeDegrees>
            </Position>
            <AltitudeMeters>494.20001220703125</AltitudeMeters>
            <DistanceMeters>NAN</DistanceMeters>
          </Trackpoint>
          <Trackpoint>
            <Time>2021-08-14T10:41:16.000Z</Time>
            <Position>
              <LatitudeDegrees>42.96240200288593769073486328125</LatitudeDegrees>
              <LongitudeDegrees>-1.830422915518283843994140625</LongitudeDegrees>
            </Position>
            <AltitudeMeters>494.20001220703125</AltitudeMeters>
            <DistanceMeters>NAN</DistanceMeters>
          </Trackpoint>
          <Trackpoint>
            <Time>2021-08-14T10:41:19.000Z</Time>
            <Position>
              <LatitudeDegrees>42.96241407282650470733642578125</LatitudeDegrees>
              <LongitudeDegrees>-1.83025904931128025054931640625</LongitudeDegrees>
            </Position>
            <AltitudeMeters>494</AltitudeMeters>
            <DistanceMeters>NAN</DistanceMeters>
          </Trackpoint>
          <Trackpoint>
            <Time>2021-08-14T10:41:20.000Z</Time>
            <Position>
              <LatitudeDegrees>42.962419353425502777099609375</LatitudeDegrees>
              <LongitudeDegrees>-1.830210350453853607177734375</LongitudeDegrees>
            </Position>
            <AltitudeMeters>494</AltitudeMeters>
            <DistanceMeters>NAN</DistanceMeters>
          </Trackpoint>
          <Trackpoint>
            <Time>2021-08-14T10:41:21.000Z</Time>
            <Position>
              <LatitudeDegrees>42.96242530457675457000732421875</LatitudeDegrees>
              <LongitudeDegrees>-1.83016265742480754852294921875</LongitudeDegrees>
            </Position>
            <AltitudeMeters>494</AltitudeMeters>
            <DistanceMeters>NAN</DistanceMeters>
          </Trackpoint>
          <Trackpoint>
            <Time>2021-08-14T10:41:22.000Z</Time>
            <Position>
              <LatitudeDegrees>42.9624279029667377471923828125</LatitudeDegrees>
              <LongitudeDegrees>-1.83013080619275569915771484375</LongitudeDegrees>
            </Position>
            <AltitudeMeters>494</AltitudeMeters>
            <DistanceMeters>NAN</DistanceMeters>
          </Trackpoint>
          <Trackpoint>
            <Time>2021-08-14T10:41:23.000Z</Time>
            <Position>
              <LatitudeDegrees>42.96243234537541866302490234375</LatitudeDegrees>
              <LongitudeDegrees>-1.8300925008952617645263671875</LongitudeDegrees>
            </Position>
            <AltitudeMeters>494</AltitudeMeters>
            <DistanceMeters>NAN</DistanceMeters>
          </Trackpoint>
          <Trackpoint>
            <Time>2021-08-14T10:41:24.000Z</Time>
            <Position>
              <LatitudeDegrees>42.96243351884186267852783203125</LatitudeDegrees>
              <LongitudeDegrees>-1.83006224222481250762939453125</LongitudeDegrees>
            </Position>
            <AltitudeMeters>494.20001220703125</AltitudeMeters>
            <DistanceMeters>NAN</DistanceMeters>
          </Trackpoint>
          <Trackpoint>
            <Time>2021-08-14T10:41:25.000Z</Time>
            <Position>
              <LatitudeDegrees>42.9624322615563869476318359375</LatitudeDegrees>
              <LongitudeDegrees>-1.83003240264952182769775390625</LongitudeDegrees>
            </Position>
            <AltitudeMeters>494.399993896484375</AltitudeMeters>
            <DistanceMeters>NAN</DistanceMeters>
          </Trackpoint>
          <Trackpoint>
            <Time>2021-08-14T10:41:26.000Z</Time>
            <Position>
              <LatitudeDegrees>42.96242949552834033966064453125</LatitudeDegrees>
              <LongitudeDegrees>-1.83000792749226093292236328125</LongitudeDegrees>
            </Position>
            <AltitudeMeters>494.399993896484375</AltitudeMeters>
            <DistanceMeters>NAN</DistanceMeters>
          </Trackpoint>
          <Trackpoint>
            <Time>2021-08-14T10:41:27.000Z</Time>
            <Position>
              <LatitudeDegrees>42.962428741157054901123046875</LatitudeDegrees>
              <LongitudeDegrees>-1.829985715448856353759765625</LongitudeDegrees>
            </Position>
            <AltitudeMeters>494.600006103515625</AltitudeMeters>
            <DistanceMeters>NAN</DistanceMeters>
          </Trackpoint>
          <Trackpoint>
            <Time>2021-08-14T10:41:28.000Z</Time>
            <Position>
              <LatitudeDegrees>42.96242798678576946258544921875</LatitudeDegrees>
              <LongitudeDegrees>-1.8299785070121288299560546875</LongitudeDegrees>
            </Position>
            <AltitudeMeters>494.600006103515625</AltitudeMeters>
            <DistanceMeters>NAN</DistanceMeters>
          </Trackpoint>
          <Trackpoint>
            <Time>2021-08-14T10:41:29.000Z</Time>
            <Position>
              <LatitudeDegrees>42.96242664568126201629638671875</LatitudeDegrees>
              <LongitudeDegrees>-1.829970963299274444580078125</LongitudeDegrees>
            </Position>
            <AltitudeMeters>494.79998779296875</AltitudeMeters>
            <DistanceMeters>NAN</DistanceMeters>
          </Trackpoint>
          <Trackpoint>
            <Time>2021-08-14T10:41:30.000Z</Time>
            <Position>
              <LatitudeDegrees>42.962425388395786285400390625</LatitudeDegrees>
              <LongitudeDegrees>-1.82996635325253009796142578125</LongitudeDegrees>
            </Position>
            <AltitudeMeters>494.79998779296875</AltitudeMeters>
            <DistanceMeters>NAN</DistanceMeters>
          </Trackpoint>
          <Trackpoint>
            <Time>2021-08-14T10:42:14.000Z</Time>
            <Position>
              <LatitudeDegrees>42.9626646079123020172119140625</LatitudeDegrees>
              <LongitudeDegrees>-1.82789166457951068878173828125</LongitudeDegrees>
            </Position>
            <AltitudeMeters>492.600006103515625</AltitudeMeters>
            <DistanceMeters>NAN</DistanceMeters>
          </Trackpoint>
          <Trackpoint>
            <Time>2021-08-14T10:42:15.000Z</Time>
            <Position>
              <LatitudeDegrees>42.96262647025287151336669921875</LatitudeDegrees>
              <LongitudeDegrees>-1.82794354856014251708984375</LongitudeDegrees>
            </Position>
            <AltitudeMeters>492.399993896484375</AltitudeMeters>
            <DistanceMeters>NAN</DistanceMeters>
          </Trackpoint>
          <Trackpoint>
            <Time>2021-08-14T10:42:17.000Z</Time>
            <Position>
              <LatitudeDegrees>42.96263652853667736053466796875</LatitudeDegrees>
              <LongitudeDegrees>-1.8278838694095611572265625</LongitudeDegrees>
            </Position>
            <AltitudeMeters>492.20001220703125</AltitudeMeters>
            <DistanceMeters>NAN</DistanceMeters>
          </Trackpoint>
          <Trackpoint>
            <Time>2021-08-14T10:42:19.000Z</Time>
            <Position>
              <LatitudeDegrees>42.96265530399978160858154296875</LatitudeDegrees>
              <LongitudeDegrees>-1.82776107452809810638427734375</LongitudeDegrees>
            </Position>
            <AltitudeMeters>490.79998779296875</AltitudeMeters>
            <DistanceMeters>NAN</DistanceMeters>
          </Trackpoint>
          <Trackpoint>
            <Time>2021-08-14T10:42:21.000Z</Time>
            <Position>
              <LatitudeDegrees>42.96264164149761199951171875</LatitudeDegrees>
              <LongitudeDegrees>-1.8276483379304409027099609375</LongitudeDegrees>
            </Position>
            <AltitudeMeters>490.20001220703125</AltitudeMeters>
            <DistanceMeters>NAN</DistanceMeters>
          </Trackpoint>
          <Trackpoint>
            <Time>2021-08-14T10:42:22.000Z</Time>
            <Position>
              <LatitudeDegrees>42.9626329243183135986328125</LatitudeDegrees>
              <LongitudeDegrees>-1.8276067636907100677490234375</LongitudeDegrees>
            </Position>
            <AltitudeMeters>490</AltitudeMeters>
            <DistanceMeters>NAN</DistanceMeters>
          </Trackpoint>
          <Trackpoint>
            <Time>2021-08-14T10:42:23.000Z</Time>
            <Position>
              <LatitudeDegrees>42.9626220278441905975341796875</LatitudeDegrees>
              <LongitudeDegrees>-1.8275739066302776336669921875</LongitudeDegrees>
            </Position>
            <AltitudeMeters>490</AltitudeMeters>
            <DistanceMeters>NAN</DistanceMeters>
          </Trackpoint>
          <Trackpoint>
            <Time>2021-08-14T10:42:24.000Z</Time>
            <Position>
              <LatitudeDegrees>42.9626129753887653350830078125</LatitudeDegrees>
              <LongitudeDegrees>-1.82754792273044586181640625</LongitudeDegrees>
            </Position>
            <AltitudeMeters>490</AltitudeMeters>
            <DistanceMeters>NAN</DistanceMeters>
          </Trackpoint>
          <Trackpoint>
            <Time>2021-08-14T10:42:25.000Z</Time>
            <Position>
              <LatitudeDegrees>42.9626116342842578887939453125</LatitudeDegrees>
              <LongitudeDegrees>-1.82752688415348529815673828125</LongitudeDegrees>
            </Position>
            <AltitudeMeters>490</AltitudeMeters>
            <DistanceMeters>NAN</DistanceMeters>
          </Trackpoint>
          <Trackpoint>
            <Time>2021-08-14T10:42:26.000Z</Time>
            <Position>
              <LatitudeDegrees>42.96262093819677829742431640625</LatitudeDegrees>
              <LongitudeDegrees>-1.82751649059355258941650390625</LongitudeDegrees>
            </Position>
            <AltitudeMeters>490.20001220703125</AltitudeMeters>
            <DistanceMeters>NAN</DistanceMeters>
          </Trackpoint>
          <Trackpoint>
            <Time>2021-08-14T10:42:27.000Z</Time>
            <Position>
              <LatitudeDegrees>42.96262378804385662078857421875</LatitudeDegrees>
              <LongitudeDegrees>-1.827510707080364227294921875</LongitudeDegrees>
            </Position>
            <AltitudeMeters>490.20001220703125</AltitudeMeters>
            <DistanceMeters>NAN</DistanceMeters>
          </Trackpoint>
          <Trackpoint>
            <Time>2021-08-14T10:42:28.000Z</Time>
            <Position>
              <LatitudeDegrees>42.96262378804385662078857421875</LatitudeDegrees>
              <LongitudeDegrees>-1.827510707080364227294921875</LongitudeDegrees>
            </Position>
            <AltitudeMeters>490.399993896484375</AltitudeMeters>
            <DistanceMeters>NAN</DistanceMeters>
          </Trackpoint>
          <Trackpoint>
            <Time>2021-08-14T10:43:08.000Z</Time>
            <Position>
              <LatitudeDegrees>42.9626221954822540283203125</LatitudeDegrees>
              <LongitudeDegrees>-1.82750944979488849639892578125</LongitudeDegrees>
            </Position>
            <AltitudeMeters>490.20001220703125</AltitudeMeters>
            <DistanceMeters>NAN</DistanceMeters>
          </Trackpoint>
          <Trackpoint>
            <Time>2021-08-14T10:43:09.000Z</Time>
            <Position>
              <LatitudeDegrees>42.96261557377874851226806640625</LatitudeDegrees>
              <LongitudeDegrees>-1.827499978244304656982421875</LongitudeDegrees>
            </Position>
            <AltitudeMeters>490.20001220703125</AltitudeMeters>
            <DistanceMeters>NAN</DistanceMeters>
          </Trackpoint>
          <Trackpoint>
            <Time>2021-08-14T10:43:10.000Z</Time>
            <Position>
              <LatitudeDegrees>42.96260920353233814239501953125</LatitudeDegrees>
              <LongitudeDegrees>-1.82749268598854541778564453125</LongitudeDegrees>
            </Position>
            <AltitudeMeters>490.20001220703125</AltitudeMeters>
            <DistanceMeters>NAN</DistanceMeters>
          </Trackpoint>
          <Trackpoint>
            <Time>2021-08-14T10:43:12.000Z</Time>
            <Position>
              <LatitudeDegrees>42.9626045934855937957763671875</LatitudeDegrees>
              <LongitudeDegrees>-1.82748950086534023284912109375</LongitudeDegrees>
            </Position>
            <AltitudeMeters>490.20001220703125</AltitudeMeters>
            <DistanceMeters>NAN</DistanceMeters>
          </Trackpoint>
          <Trackpoint>
            <Time>2021-08-14T10:43:22.000Z</Time>
            <Position>
              <LatitudeDegrees>42.9626045934855937957763671875</LatitudeDegrees>
              <LongitudeDegrees>-1.82748950086534023284912109375</LongitudeDegrees>
            </Position>
            <AltitudeMeters>490.20001220703125</AltitudeMeters>
            <DistanceMeters>NAN</DistanceMeters>
          </Trackpoint>
          <Trackpoint>
            <Time>2021-08-14T10:43:47.000Z</Time>
            <Position>
              <LatitudeDegrees>42.96259461902081966400146484375</LatitudeDegrees>
              <LongitudeDegrees>-1.82748212479054927825927734375</LongitudeDegrees>
            </Position>
            <AltitudeMeters>490.399993896484375</AltitudeMeters>
            <DistanceMeters>NAN</DistanceMeters>
          </Trackpoint>
          <Trackpoint>
            <Time>2021-08-14T10:44:32.000Z</Time>
            <Position>
              <LatitudeDegrees>42.96259461902081966400146484375</LatitudeDegrees>
              <LongitudeDegrees>-1.82748212479054927825927734375</LongitudeDegrees>
            </Position>
            <AltitudeMeters>490.20001220703125</AltitudeMeters>
            <DistanceMeters>NAN</DistanceMeters>
          </Trackpoint>
          <Trackpoint>
            <Time>2021-08-14T10:45:13.000Z</Time>
            <Position>
              <LatitudeDegrees>42.96259461902081966400146484375</LatitudeDegrees>
              <LongitudeDegrees>-1.82748212479054927825927734375</LongitudeDegrees>
            </Position>
            <AltitudeMeters>490.600006103515625</AltitudeMeters>
            <DistanceMeters>NAN</DistanceMeters>
          </Trackpoint>
          <Trackpoint>
            <Time>2021-08-14T10:45:44.000Z</Time>
            <Position>
              <LatitudeDegrees>42.96257793903350830078125</LatitudeDegrees>
              <LongitudeDegrees>-1.8273995630443096160888671875</LongitudeDegrees>
            </Position>
            <AltitudeMeters>491</AltitudeMeters>
            <DistanceMeters>NAN</DistanceMeters>
          </Trackpoint>
          <Trackpoint>
            <Time>2021-08-14T10:45:51.000Z</Time>
            <Position>
              <LatitudeDegrees>42.96249453909695148468017578125</LatitudeDegrees>
              <LongitudeDegrees>-1.82712337933480739593505859375</LongitudeDegrees>
            </Position>
            <AltitudeMeters>490.79998779296875</AltitudeMeters>
            <DistanceMeters>NAN</DistanceMeters>
          </Trackpoint>
          <Trackpoint>
            <Time>2021-08-14T10:45:53.000Z</Time>
            <Position>
              <LatitudeDegrees>42.9624641127884387969970703125</LatitudeDegrees>
              <LongitudeDegrees>-1.8270424939692020416259765625</LongitudeDegrees>
            </Position>
            <AltitudeMeters>490.79998779296875</AltitudeMeters>
            <DistanceMeters>NAN</DistanceMeters>
          </Trackpoint>
          <Trackpoint>
            <Time>2021-08-14T10:45:54.000Z</Time>
            <Position>
              <LatitudeDegrees>42.96244927681982517242431640625</LatitudeDegrees>
              <LongitudeDegrees>-1.8270079605281352996826171875</LongitudeDegrees>
            </Position>
            <AltitudeMeters>490.600006103515625</AltitudeMeters>
            <DistanceMeters>NAN</DistanceMeters>
          </Trackpoint>
          <Trackpoint>
            <Time>2021-08-14T10:45:55.000Z</Time>
            <Position>
              <LatitudeDegrees>42.96243511140346527099609375</LatitudeDegrees>
              <LongitudeDegrees>-1.82697418145835399627685546875</LongitudeDegrees>
            </Position>
            <AltitudeMeters>490.600006103515625</AltitudeMeters>
            <DistanceMeters>NAN</DistanceMeters>
          </Trackpoint>
          <Trackpoint>
            <Time>2021-08-14T10:45:56.000Z</Time>
            <Position>
              <LatitudeDegrees>42.96242027543485164642333984375</LatitudeDegrees>
              <LongitudeDegrees>-1.8269398994743824005126953125</LongitudeDegrees>
            </Position>
            <AltitudeMeters>490.600006103515625</AltitudeMeters>
            <DistanceMeters>NAN</DistanceMeters>
          </Trackpoint>
          <Trackpoint>
            <Time>2021-08-14T10:45:57.000Z</Time>
            <Position>
              <LatitudeDegrees>42.9624054394662380218505859375</LatitudeDegrees>
              <LongitudeDegrees>-1.82690913788974285125732421875</LongitudeDegrees>
            </Position>
            <AltitudeMeters>490.600006103515625</AltitudeMeters>
            <DistanceMeters>NAN</DistanceMeters>
          </Trackpoint>
          <Trackpoint>
            <Time>2021-08-14T10:45:59.000Z</Time>
            <Position>
              <LatitudeDegrees>42.96238037757575511932373046875</LatitudeDegrees>
              <LongitudeDegrees>-1.82684225030243396759033203125</LongitudeDegrees>
            </Position>
            <AltitudeMeters>490.600006103515625</AltitudeMeters>
            <DistanceMeters>NAN</DistanceMeters>
          </Trackpoint>
          <Trackpoint>
            <Time>2021-08-14T10:46:00.000Z</Time>
            <Position>
              <LatitudeDegrees>42.96236730180680751800537109375</LatitudeDegrees>
              <LongitudeDegrees>-1.8268094770610332489013671875</LongitudeDegrees>
            </Position>
            <AltitudeMeters>490.600006103515625</AltitudeMeters>
            <DistanceMeters>NAN</DistanceMeters>
          </Trackpoint>
          <Trackpoint>
            <Time>2021-08-14T10:46:01.000Z</Time>
            <Position>
              <LatitudeDegrees>42.96234902925789356231689453125</LatitudeDegrees>
              <LongitudeDegrees>-1.8267789669334888458251953125</LongitudeDegrees>
            </Position>
            <AltitudeMeters>490.600006103515625</AltitudeMeters>
            <DistanceMeters>NAN</DistanceMeters>
          </Trackpoint>
          <Trackpoint>
            <Time>2021-08-14T10:46:05.000Z</Time>
            <Position>
              <LatitudeDegrees>42.96226453967392444610595703125</LatitudeDegrees>
              <LongitudeDegrees>-1.82662247680127620697021484375</LongitudeDegrees>
            </Position>
            <AltitudeMeters>490.600006103515625</AltitudeMeters>
            <DistanceMeters>NAN</DistanceMeters>
          </Trackpoint>
          <Trackpoint>
            <Time>2021-08-14T10:46:08.000Z</Time>
            <Position>
              <LatitudeDegrees>42.9621895216405391693115234375</LatitudeDegrees>
              <LongitudeDegrees>-1.8265030346810817718505859375</LongitudeDegrees>
            </Position>
            <AltitudeMeters>490.399993896484375</AltitudeMeters>
            <DistanceMeters>NAN</DistanceMeters>
          </Trackpoint>
          <Trackpoint>
            <Time>2021-08-14T10:46:11.000Z</Time>
            <Position>
              <LatitudeDegrees>42.9621154256165027618408203125</LatitudeDegrees>
              <LongitudeDegrees>-1.826374121010303497314453125</LongitudeDegrees>
            </Position>
            <AltitudeMeters>490.20001220703125</AltitudeMeters>
            <DistanceMeters>NAN</DistanceMeters>
          </Trackpoint>
          <Trackpoint>
            <Time>2021-08-14T10:46:17.000Z</Time>
            <Position>
              <LatitudeDegrees>42.96197150833904743194580078125</LatitudeDegrees>
              <LongitudeDegrees>-1.826126687228679656982421875</LongitudeDegrees>
            </Position>
            <AltitudeMeters>490.20001220703125</AltitudeMeters>
            <DistanceMeters>NAN</DistanceMeters>
          </Trackpoint>
          <Trackpoint>
            <Time>2021-08-14T10:46:22.000Z</Time>
            <Position>
              <LatitudeDegrees>42.961842007935047149658203125</LatitudeDegrees>
              <LongitudeDegrees>-1.8258995376527309417724609375</LongitudeDegrees>
            </Position>
            <AltitudeMeters>490</AltitudeMeters>
            <DistanceMeters>NAN</DistanceMeters>
          </Trackpoint>
          <Trackpoint>
            <Time>2021-08-14T10:46:27.000Z</Time>
            <Position>
              <LatitudeDegrees>42.96170161105692386627197265625</LatitudeDegrees>
              <LongitudeDegrees>-1.8256537802517414093017578125</LongitudeDegrees>
            </Position>
            <AltitudeMeters>489.600006103515625</AltitudeMeters>
            <DistanceMeters>NAN</DistanceMeters>
          </Trackpoint>
          <Trackpoint>
            <Time>2021-08-14T10:46:33.000Z</Time>
            <Position>
              <LatitudeDegrees>42.96153866685926914215087890625</LatitudeDegrees>
              <LongitudeDegrees>-1.82536954991519451141357421875</LongitudeDegrees>
            </Position>
            <AltitudeMeters>489</AltitudeMeters>
            <DistanceMeters>NAN</DistanceMeters>
          </Trackpoint>
          <Trackpoint>
            <Time>2021-08-14T10:46:34.000Z</Time>
            <Position>
              <LatitudeDegrees>42.9615112580358982086181640625</LatitudeDegrees>
              <LongitudeDegrees>-1.8253198452293872833251953125</LongitudeDegrees>
            </Position>
            <AltitudeMeters>489</AltitudeMeters>
            <DistanceMeters>NAN</DistanceMeters>
          </Trackpoint>
          <Trackpoint>
            <Time>2021-08-14T10:46:38.000Z</Time>
            <Position>
              <LatitudeDegrees>42.9614006169140338897705078125</LatitudeDegrees>
              <LongitudeDegrees>-1.82514005340635776519775390625</LongitudeDegrees>
            </Position>
            <AltitudeMeters>488.600006103515625</AltitudeMeters>
            <DistanceMeters>NAN</DistanceMeters>
          </Trackpoint>
          <Trackpoint>
            <Time>2021-08-14T10:46:44.000Z</Time>
            <Position>
              <LatitudeDegrees>42.96119391918182373046875</LatitudeDegrees>
              <LongitudeDegrees>-1.82488809339702129364013671875</LongitudeDegrees>
            </Position>
            <AltitudeMeters>488.399993896484375</AltitudeMeters>
            <DistanceMeters>NAN</DistanceMeters>
          </Trackpoint>
          <Trackpoint>
            <Time>2021-08-14T10:46:45.000Z</Time>
            <Position>
              <LatitudeDegrees>42.961158715188503265380859375</LatitudeDegrees>
              <LongitudeDegrees>-1.82484266348183155059814453125</LongitudeDegrees>
            </Position>
            <AltitudeMeters>488.399993896484375</AltitudeMeters>
            <DistanceMeters>NAN</DistanceMeters>
          </Trackpoint>
          <Trackpoint>
            <Time>2021-08-14T10:46:50.000Z</Time>
            <Position>
              <LatitudeDegrees>42.960956878960132598876953125</LatitudeDegrees>
              <LongitudeDegrees>-1.8246586807072162628173828125</LongitudeDegrees>
            </Position>
            <AltitudeMeters>488</AltitudeMeters>
            <DistanceMeters>NAN</DistanceMeters>
          </Trackpoint>
          <Trackpoint>
            <Time>2021-08-14T10:46:52.000Z</Time>
            <Position>
              <LatitudeDegrees>42.96087666414678096771240234375</LatitudeDegrees>
              <LongitudeDegrees>-1.8245901167392730712890625</LongitudeDegrees>
            </Position>
            <AltitudeMeters>487.79998779296875</AltitudeMeters>
            <DistanceMeters>NAN</DistanceMeters>
          </Trackpoint>
          <Trackpoint>
            <Time>2021-08-14T10:46:54.000Z</Time>
            <Position>
              <LatitudeDegrees>42.9607934318482875823974609375</LatitudeDegrees>
              <LongitudeDegrees>-1.8245185352861881256103515625</LongitudeDegrees>
            </Position>
            <AltitudeMeters>487.600006103515625</AltitudeMeters>
            <DistanceMeters>NAN</DistanceMeters>
          </Trackpoint>
          <Trackpoint>
            <Time>2021-08-14T10:46:58.000Z</Time>
            <Position>
              <LatitudeDegrees>42.960610873997211456298828125</LatitudeDegrees>
              <LongitudeDegrees>-1.82442390359938144683837890625</LongitudeDegrees>
            </Position>
            <AltitudeMeters>487.399993896484375</AltitudeMeters>
            <DistanceMeters>NAN</DistanceMeters>
          </Trackpoint>
          <Trackpoint>
            <Time>2021-08-14T10:47:02.000Z</Time>
            <Position>
              <LatitudeDegrees>42.96043359674513339996337890625</LatitudeDegrees>
              <LongitudeDegrees>-1.82432767935097217559814453125</LongitudeDegrees>
            </Position>
            <AltitudeMeters>487.20001220703125</AltitudeMeters>
            <DistanceMeters>NAN</DistanceMeters>
          </Trackpoint>
          <Trackpoint>
            <Time>2021-08-14T10:47:03.000Z</Time>
            <Position>
              <LatitudeDegrees>42.9603890888392925262451171875</LatitudeDegrees>
              <LongitudeDegrees>-1.82430521585047245025634765625</LongitudeDegrees>
            </Position>
            <AltitudeMeters>487</AltitudeMeters>
            <DistanceMeters>NAN</DistanceMeters>
          </Trackpoint>
          <Trackpoint>
            <Time>2021-08-14T10:47:04.000Z</Time>
            <Position>
              <LatitudeDegrees>42.9603476822376251220703125</LatitudeDegrees>
              <LongitudeDegrees>-1.82428493164479732513427734375</LongitudeDegrees>
            </Position>
            <AltitudeMeters>487</AltitudeMeters>
            <DistanceMeters>NAN</DistanceMeters>
          </Trackpoint>
          <Trackpoint>
            <Time>2021-08-14T10:47:05.000Z</Time>
            <Position>
              <LatitudeDegrees>42.96031138859689235687255859375</LatitudeDegrees>
              <LongitudeDegrees>-1.8242607079446315765380859375</LongitudeDegrees>
            </Position>
            <AltitudeMeters>487</AltitudeMeters>
            <DistanceMeters>NAN</DistanceMeters>
          </Trackpoint>
          <Trackpoint>
            <Time>2021-08-14T10:47:06.000Z</Time>
            <Position>
              <LatitudeDegrees>42.9602734185755252838134765625</LatitudeDegrees>
              <LongitudeDegrees>-1.82424235157668590545654296875</LongitudeDegrees>
            </Position>
            <AltitudeMeters>486.79998779296875</AltitudeMeters>
            <DistanceMeters>NAN</DistanceMeters>
          </Trackpoint>
          <Trackpoint>
            <Time>2021-08-14T10:47:07.000Z</Time>
            <Position>
              <LatitudeDegrees>42.960225306451320648193359375</LatitudeDegrees>
              <LongitudeDegrees>-1.8242265097796916961669921875</LongitudeDegrees>
            </Position>
            <AltitudeMeters>486.79998779296875</AltitudeMeters>
            <DistanceMeters>NAN</DistanceMeters>
          </Trackpoint>
          <Trackpoint>
            <Time>2021-08-14T10:47:08.000Z</Time>
            <Position>
              <LatitudeDegrees>42.960187084972858428955078125</LatitudeDegrees>
              <LongitudeDegrees>-1.8242107518017292022705078125</LongitudeDegrees>
            </Position>
            <AltitudeMeters>486.79998779296875</AltitudeMeters>
            <DistanceMeters>NAN</DistanceMeters>
          </Trackpoint>
          <Trackpoint>
            <Time>2021-08-14T10:47:09.000Z</Time>
            <Position>
              <LatitudeDegrees>42.96014727093279361724853515625</LatitudeDegrees>
              <LongitudeDegrees>-1.82419926859438419342041015625</LongitudeDegrees>
            </Position>
            <AltitudeMeters>486.79998779296875</AltitudeMeters>
            <DistanceMeters>NAN</DistanceMeters>
          </Trackpoint>
          <Trackpoint>
            <Time>2021-08-14T10:47:10.000Z</Time>
            <Position>
              <LatitudeDegrees>42.9601071216166019439697265625</LatitudeDegrees>
              <LongitudeDegrees>-1.82418736629188060760498046875</LongitudeDegrees>
            </Position>
            <AltitudeMeters>486.79998779296875</AltitudeMeters>
            <DistanceMeters>NAN</DistanceMeters>
          </Trackpoint>
          <Trackpoint>
            <Time>2021-08-14T10:47:11.000Z</Time>
            <Position>
              <LatitudeDegrees>42.9600739292800426483154296875</LatitudeDegrees>
              <LongitudeDegrees>-1.8241795711219310760498046875</LongitudeDegrees>
            </Position>
            <AltitudeMeters>486.79998779296875</AltitudeMeters>
            <DistanceMeters>NAN</DistanceMeters>
          </Trackpoint>
          <Trackpoint>
            <Time>2021-08-14T10:47:12.000Z</Time>
            <Position>
              <LatitudeDegrees>42.96003176830708980560302734375</LatitudeDegrees>
              <LongitudeDegrees>-1.82417278178036212921142578125</LongitudeDegrees>
            </Position>
            <AltitudeMeters>486.79998779296875</AltitudeMeters>
            <DistanceMeters>NAN</DistanceMeters>
          </Trackpoint>
          <Trackpoint>
            <Time>2021-08-14T10:47:13.000Z</Time>
            <Position>
              <LatitudeDegrees>42.95998415909707546234130859375</LatitudeDegrees>
              <LongitudeDegrees>-1.824163310229778289794921875</LongitudeDegrees>
            </Position>
            <AltitudeMeters>486.600006103515625</AltitudeMeters>
            <DistanceMeters>NAN</DistanceMeters>
          </Trackpoint>
          <Trackpoint>
            <Time>2021-08-14T10:47:14.000Z</Time>
            <Position>
              <LatitudeDegrees>42.959947697818279266357421875</LatitudeDegrees>
              <LongitudeDegrees>-1.8241530843079090118408203125</LongitudeDegrees>
            </Position>
            <AltitudeMeters>486.600006103515625</AltitudeMeters>
            <DistanceMeters>NAN</DistanceMeters>
          </Trackpoint>
          <Trackpoint>
            <Time>2021-08-14T10:47:16.000Z</Time>
            <Position>
              <LatitudeDegrees>42.95987720601260662078857421875</LatitudeDegrees>
              <LongitudeDegrees>-1.8241406790912151336669921875</LongitudeDegrees>
            </Position>
            <AltitudeMeters>486.399993896484375</AltitudeMeters>
            <DistanceMeters>NAN</DistanceMeters>
          </Trackpoint>
          <Trackpoint>
            <Time>2021-08-14T10:47:17.000Z</Time>
            <Position>
              <LatitudeDegrees>42.95982741750776767730712890625</LatitudeDegrees>
              <LongitudeDegrees>-1.82413204573094844818115234375</LongitudeDegrees>
            </Position>
            <AltitudeMeters>486.20001220703125</AltitudeMeters>
            <DistanceMeters>NAN</DistanceMeters>
          </Trackpoint>
          <Trackpoint>
            <Time>2021-08-14T10:47:20.000Z</Time>
            <Position>
              <LatitudeDegrees>42.95970487408339977264404296875</LatitudeDegrees>
              <LongitudeDegrees>-1.82411779649555683135986328125</LongitudeDegrees>
            </Position>
            <AltitudeMeters>485.600006103515625</AltitudeMeters>
            <DistanceMeters>NAN</DistanceMeters>
          </Trackpoint>
          <Trackpoint>
            <Time>2021-08-14T10:47:28.000Z</Time>
            <Position>
              <LatitudeDegrees>42.95938820578157901763916015625</LatitudeDegrees>
              <LongitudeDegrees>-1.8240724503993988037109375</LongitudeDegrees>
            </Position>
            <AltitudeMeters>485.20001220703125</AltitudeMeters>
            <DistanceMeters>NAN</DistanceMeters>
          </Trackpoint>
          <Trackpoint>
            <Time>2021-08-14T10:47:29.000Z</Time>
            <Position>
              <LatitudeDegrees>42.95935534872114658355712890625</LatitudeDegrees>
              <LongitudeDegrees>-1.82406784035265445709228515625</LongitudeDegrees>
            </Position>
            <AltitudeMeters>485.20001220703125</AltitudeMeters>
            <DistanceMeters>NAN</DistanceMeters>
          </Trackpoint>
          <Trackpoint>
            <Time>2021-08-14T10:47:30.000Z</Time>
            <Position>
              <LatitudeDegrees>42.959332130849361419677734375</LatitudeDegrees>
              <LongitudeDegrees>-1.8240649066865444183349609375</LongitudeDegrees>
            </Position>
            <AltitudeMeters>485</AltitudeMeters>
            <DistanceMeters>NAN</DistanceMeters>
          </Trackpoint>
          <Trackpoint>
            <Time>2021-08-14T10:47:31.000Z</Time>
            <Position>
              <LatitudeDegrees>42.95930136926472187042236328125</LatitudeDegrees>
              <LongitudeDegrees>-1.82406105101108551025390625</LongitudeDegrees>
            </Position>
            <AltitudeMeters>485</AltitudeMeters>
            <DistanceMeters>NAN</DistanceMeters>
          </Trackpoint>
          <Trackpoint>
            <Time>2021-08-14T10:47:32.000Z</Time>
            <Position>
              <LatitudeDegrees>42.9592645727097988128662109375</LatitudeDegrees>
              <LongitudeDegrees>-1.824054680764675140380859375</LongitudeDegrees>
            </Position>
            <AltitudeMeters>485</AltitudeMeters>
            <DistanceMeters>NAN</DistanceMeters>
          </Trackpoint>
          <Trackpoint>
            <Time>2021-08-14T10:47:33.000Z</Time>
            <Position>
              <LatitudeDegrees>42.9592359066009521484375</LatitudeDegrees>
              <LongitudeDegrees>-1.824054680764675140380859375</LongitudeDegrees>
            </Position>
            <AltitudeMeters>485</AltitudeMeters>
            <DistanceMeters>NAN</DistanceMeters>
          </Trackpoint>
          <Trackpoint>
            <Time>2021-08-14T10:47:34.000Z</Time>
            <Position>
              <LatitudeDegrees>42.95920128934085369110107421875</LatitudeDegrees>
              <LongitudeDegrees>-1.82405375875532627105712890625</LongitudeDegrees>
            </Position>
            <AltitudeMeters>485</AltitudeMeters>
            <DistanceMeters>NAN</DistanceMeters>
          </Trackpoint>
          <Trackpoint>
            <Time>2021-08-14T10:47:35.000Z</Time>
            <Position>
              <LatitudeDegrees>42.95916591770946979522705078125</LatitudeDegrees>
              <LongitudeDegrees>-1.82405141182243824005126953125</LongitudeDegrees>
            </Position>
            <AltitudeMeters>485</AltitudeMeters>
            <DistanceMeters>NAN</DistanceMeters>
          </Trackpoint>
          <Trackpoint>
            <Time>2021-08-14T10:47:37.000Z</Time>
            <Position>
              <LatitudeDegrees>42.95909550972282886505126953125</LatitudeDegrees>
              <LongitudeDegrees>-1.824052333831787109375</LongitudeDegrees>
            </Position>
            <AltitudeMeters>485</AltitudeMeters>
            <DistanceMeters>NAN</DistanceMeters>
          </Trackpoint>
          <Trackpoint>
            <Time>2021-08-14T10:47:46.000Z</Time>
            <Position>
              <LatitudeDegrees>42.958754785358905792236328125</LatitudeDegrees>
              <LongitudeDegrees>-1.8240416049957275390625</LongitudeDegrees>
            </Position>
            <AltitudeMeters>485</AltitudeMeters>
            <DistanceMeters>NAN</DistanceMeters>
          </Trackpoint>
          <Trackpoint>
            <Time>2021-08-14T10:47:50.000Z</Time>
            <Position>
              <LatitudeDegrees>42.9585749097168445587158203125</LatitudeDegrees>
              <LongitudeDegrees>-1.8240991048514842987060546875</LongitudeDegrees>
            </Position>
            <AltitudeMeters>484.79998779296875</AltitudeMeters>
            <DistanceMeters>NAN</DistanceMeters>
          </Trackpoint>
          <Trackpoint>
            <Time>2021-08-14T10:47:51.000Z</Time>
            <Position>
              <LatitudeDegrees>42.9585195891559123992919921875</LatitudeDegrees>
              <LongitudeDegrees>-1.8241051398217678070068359375</LongitudeDegrees>
            </Position>
            <AltitudeMeters>484.600006103515625</AltitudeMeters>
            <DistanceMeters>NAN</DistanceMeters>
          </Trackpoint>
          <Trackpoint>
            <Time>2021-08-14T10:47:52.000Z</Time>
            <Position>
              <LatitudeDegrees>42.95846301130950450897216796875</LatitudeDegrees>
              <LongitudeDegrees>-1.82410589419305324554443359375</LongitudeDegrees>
            </Position>
            <AltitudeMeters>484.399993896484375</AltitudeMeters>
            <DistanceMeters>NAN</DistanceMeters>
          </Trackpoint>
          <Trackpoint>
            <Time>2021-08-14T10:47:54.000Z</Time>
            <Position>
              <LatitudeDegrees>42.95834985561668872833251953125</LatitudeDegrees>
              <LongitudeDegrees>-1.8241024576127529144287109375</LongitudeDegrees>
            </Position>
            <AltitudeMeters>483.79998779296875</AltitudeMeters>
            <DistanceMeters>NAN</DistanceMeters>
          </Trackpoint>
          <Trackpoint>
            <Time>2021-08-14T10:47:55.000Z</Time>
            <Position>
              <LatitudeDegrees>42.95829487033188343048095703125</LatitudeDegrees>
              <LongitudeDegrees>-1.8241014517843723297119140625</LongitudeDegrees>
            </Position>
            <AltitudeMeters>483.600006103515625</AltitudeMeters>
            <DistanceMeters>NAN</DistanceMeters>
          </Trackpoint>
          <Trackpoint>
            <Time>2021-08-14T10:47:56.000Z</Time>
            <Position>
              <LatitudeDegrees>42.95823904685676097869873046875</LatitudeDegrees>
              <LongitudeDegrees>-1.82410254143178462982177734375</LongitudeDegrees>
            </Position>
            <AltitudeMeters>483.399993896484375</AltitudeMeters>
            <DistanceMeters>NAN</DistanceMeters>
          </Trackpoint>
          <Trackpoint>
            <Time>2021-08-14T10:48:02.000Z</Time>
            <Position>
              <LatitudeDegrees>42.9579325206577777862548828125</LatitudeDegrees>
              <LongitudeDegrees>-1.824102289974689483642578125</LongitudeDegrees>
            </Position>
            <AltitudeMeters>482.399993896484375</AltitudeMeters>
            <DistanceMeters>NAN</DistanceMeters>
          </Trackpoint>
          <Trackpoint>
            <Time>2021-08-14T10:48:03.000Z</Time>
            <Position>
              <LatitudeDegrees>42.95788533054292201995849609375</LatitudeDegrees>
              <LongitudeDegrees>-1.8241014517843723297119140625</LongitudeDegrees>
            </Position>
            <AltitudeMeters>482.399993896484375</AltitudeMeters>
            <DistanceMeters>NAN</DistanceMeters>
          </Trackpoint>
          <Trackpoint>
            <Time>2021-08-14T10:48:04.000Z</Time>
            <Position>
              <LatitudeDegrees>42.9578398168087005615234375</LatitudeDegrees>
              <LongitudeDegrees>-1.824100278317928314208984375</LongitudeDegrees>
            </Position>
            <AltitudeMeters>482.20001220703125</AltitudeMeters>
            <DistanceMeters>NAN</DistanceMeters>
          </Trackpoint>
          <Trackpoint>
            <Time>2021-08-14T10:48:05.000Z</Time>
            <Position>
              <LatitudeDegrees>42.9577937163412570953369140625</LatitudeDegrees>
              <LongitudeDegrees>-1.82409851811826229095458984375</LongitudeDegrees>
            </Position>
            <AltitudeMeters>482.20001220703125</AltitudeMeters>
            <DistanceMeters>NAN</DistanceMeters>
          </Trackpoint>
          <Trackpoint>
            <Time>2021-08-14T10:48:06.000Z</Time>
            <Position>
              <LatitudeDegrees>42.9577471129596233367919921875</LatitudeDegrees>
              <LongitudeDegrees>-1.8240944109857082366943359375</LongitudeDegrees>
            </Position>
            <AltitudeMeters>482</AltitudeMeters>
            <DistanceMeters>NAN</DistanceMeters>
          </Trackpoint>
          <Trackpoint>
            <Time>2021-08-14T10:48:07.000Z</Time>
            <Position>
              <LatitudeDegrees>42.95770109631121158599853515625</LatitudeDegrees>
              <LongitudeDegrees>-1.8240923993289470672607421875</LongitudeDegrees>
            </Position>
            <AltitudeMeters>482</AltitudeMeters>
            <DistanceMeters>NAN</DistanceMeters>
          </Trackpoint>
          <Trackpoint>
            <Time>2021-08-14T10:48:08.000Z</Time>
            <Position>
              <LatitudeDegrees>42.95765650458633899688720703125</LatitudeDegrees>
              <LongitudeDegrees>-1.82408988475799560546875</LongitudeDegrees>
            </Position>
            <AltitudeMeters>481.79998779296875</AltitudeMeters>
            <DistanceMeters>NAN</DistanceMeters>
          </Trackpoint>
          <Trackpoint>
            <Time>2021-08-14T10:48:09.000Z</Time>
            <Position>
              <LatitudeDegrees>42.95761342160403728485107421875</LatitudeDegrees>
              <LongitudeDegrees>-1.824087537825107574462890625</LongitudeDegrees>
            </Position>
            <AltitudeMeters>481.600006103515625</AltitudeMeters>
            <DistanceMeters>NAN</DistanceMeters>
          </Trackpoint>
          <Trackpoint>
            <Time>2021-08-14T10:48:10.000Z</Time>
            <Position>
              <LatitudeDegrees>42.9575742781162261962890625</LatitudeDegrees>
              <LongitudeDegrees>-1.82408410124480724334716796875</LongitudeDegrees>
            </Position>
            <AltitudeMeters>481.600006103515625</AltitudeMeters>
            <DistanceMeters>NAN</DistanceMeters>
          </Trackpoint>
          <Trackpoint>
            <Time>2021-08-14T10:48:11.000Z</Time>
            <Position>
              <LatitudeDegrees>42.95753882266581058502197265625</LatitudeDegrees>
              <LongitudeDegrees>-1.82408208958804607391357421875</LongitudeDegrees>
            </Position>
            <AltitudeMeters>481.399993896484375</AltitudeMeters>
            <DistanceMeters>NAN</DistanceMeters>
          </Trackpoint>
          <Trackpoint>
            <Time>2021-08-14T10:48:12.000Z</Time>
            <Position>
              <LatitudeDegrees>42.9575033672153949737548828125</LatitudeDegrees>
              <LongitudeDegrees>-1.824080832302570343017578125</LongitudeDegrees>
            </Position>
            <AltitudeMeters>481.399993896484375</AltitudeMeters>
            <DistanceMeters>NAN</DistanceMeters>
          </Trackpoint>
          <Trackpoint>
            <Time>2021-08-14T10:48:13.000Z</Time>
            <Position>
              <LatitudeDegrees>42.95746858231723308563232421875</LatitudeDegrees>
              <LongitudeDegrees>-1.824082173407077789306640625</LongitudeDegrees>
            </Position>
            <AltitudeMeters>481.399993896484375</AltitudeMeters>
            <DistanceMeters>NAN</DistanceMeters>
          </Trackpoint>
          <Trackpoint>
            <Time>2021-08-14T10:48:14.000Z</Time>
            <Position>
              <LatitudeDegrees>42.95743740163743495941162109375</LatitudeDegrees>
              <LongitudeDegrees>-1.8240927346050739288330078125</LongitudeDegrees>
            </Position>
            <AltitudeMeters>481.399993896484375</AltitudeMeters>
            <DistanceMeters>NAN</DistanceMeters>
          </Trackpoint>
          <Trackpoint>
            <Time>2021-08-14T10:48:16.000Z</Time>
            <Position>
              <LatitudeDegrees>42.95737017877399921417236328125</LatitudeDegrees>
              <LongitudeDegrees>-1.82410958223044872283935546875</LongitudeDegrees>
            </Position>
            <AltitudeMeters>481.20001220703125</AltitudeMeters>
            <DistanceMeters>NAN</DistanceMeters>
          </Trackpoint>
          <Trackpoint>
            <Time>2021-08-14T10:48:17.000Z</Time>
            <Position>
              <LatitudeDegrees>42.9573390819132328033447265625</LatitudeDegrees>
              <LongitudeDegrees>-1.8241094984114170074462890625</LongitudeDegrees>
            </Position>
            <AltitudeMeters>481.399993896484375</AltitudeMeters>
            <DistanceMeters>NAN</DistanceMeters>
          </Trackpoint>
          <Trackpoint>
            <Time>2021-08-14T10:48:18.000Z</Time>
            <Position>
              <LatitudeDegrees>42.95730563811957836151123046875</LatitudeDegrees>
              <LongitudeDegrees>-1.8241101689636707305908203125</LongitudeDegrees>
            </Position>
            <AltitudeMeters>481.399993896484375</AltitudeMeters>
            <DistanceMeters>NAN</DistanceMeters>
          </Trackpoint>
          <Trackpoint>
            <Time>2021-08-14T10:48:19.000Z</Time>
            <Position>
              <LatitudeDegrees>42.9572710208594799041748046875</LatitudeDegrees>
              <LongitudeDegrees>-1.82410740293562412261962890625</LongitudeDegrees>
            </Position>
            <AltitudeMeters>481.399993896484375</AltitudeMeters>
            <DistanceMeters>NAN</DistanceMeters>
          </Trackpoint>
          <Trackpoint>
            <Time>2021-08-14T10:48:29.000Z</Time>
            <Position>
              <LatitudeDegrees>42.95691638253629207611083984375</LatitudeDegrees>
              <LongitudeDegrees>-1.82405275292694568634033203125</LongitudeDegrees>
            </Position>
            <AltitudeMeters>480.79998779296875</AltitudeMeters>
            <DistanceMeters>NAN</DistanceMeters>
          </Trackpoint>
          <Trackpoint>
            <Time>2021-08-14T10:48:34.000Z</Time>
            <Position>
              <LatitudeDegrees>42.95672946609556674957275390625</LatitudeDegrees>
              <LongitudeDegrees>-1.82401738129556179046630859375</LongitudeDegrees>
            </Position>
            <AltitudeMeters>480.600006103515625</AltitudeMeters>
            <DistanceMeters>NAN</DistanceMeters>
          </Trackpoint>
          <Trackpoint>
            <Time>2021-08-14T10:48:35.000Z</Time>
            <Position>
              <LatitudeDegrees>42.9566976986825466156005859375</LatitudeDegrees>
              <LongitudeDegrees>-1.8240095861256122589111328125</LongitudeDegrees>
            </Position>
            <AltitudeMeters>480.600006103515625</AltitudeMeters>
            <DistanceMeters>NAN</DistanceMeters>
          </Trackpoint>
          <Trackpoint>
            <Time>2021-08-14T10:48:36.000Z</Time>
            <Position>
              <LatitudeDegrees>42.95666576363146305084228515625</LatitudeDegrees>
              <LongitudeDegrees>-1.82399927638471126556396484375</LongitudeDegrees>
            </Position>
            <AltitudeMeters>480.600006103515625</AltitudeMeters>
            <DistanceMeters>NAN</DistanceMeters>
          </Trackpoint>
          <Trackpoint>
            <Time>2021-08-14T10:48:38.000Z</Time>
            <Position>
              <LatitudeDegrees>42.95660608448088169097900390625</LatitudeDegrees>
              <LongitudeDegrees>-1.8239847756922245025634765625</LongitudeDegrees>
            </Position>
            <AltitudeMeters>480.600006103515625</AltitudeMeters>
            <DistanceMeters>NAN</DistanceMeters>
          </Trackpoint>
          <Trackpoint>
            <Time>2021-08-14T10:48:40.000Z</Time>
            <Position>
              <LatitudeDegrees>42.95655026100575923919677734375</LatitudeDegrees>
              <LongitudeDegrees>-1.82396893389523029327392578125</LongitudeDegrees>
            </Position>
            <AltitudeMeters>480.79998779296875</AltitudeMeters>
            <DistanceMeters>NAN</DistanceMeters>
          </Trackpoint>
          <Trackpoint>
            <Time>2021-08-14T10:48:41.000Z</Time>
            <Position>
              <LatitudeDegrees>42.95651874504983425140380859375</LatitudeDegrees>
              <LongitudeDegrees>-1.8239609710872173309326171875</LongitudeDegrees>
            </Position>
            <AltitudeMeters>480.600006103515625</AltitudeMeters>
            <DistanceMeters>NAN</DistanceMeters>
          </Trackpoint>
          <Trackpoint>
            <Time>2021-08-14T10:48:42.000Z</Time>
            <Position>
              <LatitudeDegrees>42.9564868099987506866455078125</LatitudeDegrees>
              <LongitudeDegrees>-1.823953092098236083984375</LongitudeDegrees>
            </Position>
            <AltitudeMeters>480.600006103515625</AltitudeMeters>
            <DistanceMeters>NAN</DistanceMeters>
          </Trackpoint>
          <Trackpoint>
            <Time>2021-08-14T10:48:43.000Z</Time>
            <Position>
              <LatitudeDegrees>42.95645236037671566009521484375</LatitudeDegrees>
              <LongitudeDegrees>-1.82394512929022312164306640625</LongitudeDegrees>
            </Position>
            <AltitudeMeters>480.600006103515625</AltitudeMeters>
            <DistanceMeters>NAN</DistanceMeters>
          </Trackpoint>
          <Trackpoint>
            <Time>2021-08-14T10:48:44.000Z</Time>
            <Position>
              <LatitudeDegrees>42.956416569650173187255859375</LatitudeDegrees>
              <LongitudeDegrees>-1.823937334120273590087890625</LongitudeDegrees>
            </Position>
            <AltitudeMeters>480.600006103515625</AltitudeMeters>
            <DistanceMeters>NAN</DistanceMeters>
          </Trackpoint>
          <Trackpoint>
            <Time>2021-08-14T10:48:46.000Z</Time>
            <Position>
              <LatitudeDegrees>42.9563485085964202880859375</LatitudeDegrees>
              <LongitudeDegrees>-1.8239195644855499267578125</LongitudeDegrees>
            </Position>
            <AltitudeMeters>480.600006103515625</AltitudeMeters>
            <DistanceMeters>NAN</DistanceMeters>
          </Trackpoint>
          <Trackpoint>
            <Time>2021-08-14T10:48:53.000Z</Time>
            <Position>
              <LatitudeDegrees>42.95612521469593048095703125</LatitudeDegrees>
              <LongitudeDegrees>-1.82386927306652069091796875</LongitudeDegrees>
            </Position>
            <AltitudeMeters>480.600006103515625</AltitudeMeters>
            <DistanceMeters>NAN</DistanceMeters>
          </Trackpoint>
          <Trackpoint>
            <Time>2021-08-14T10:48:54.000Z</Time>
            <Position>
              <LatitudeDegrees>42.95609529130160808563232421875</LatitudeDegrees>
              <LongitudeDegrees>-1.82386583648622035980224609375</LongitudeDegrees>
            </Position>
            <AltitudeMeters>480.600006103515625</AltitudeMeters>
            <DistanceMeters>NAN</DistanceMeters>
          </Trackpoint>
          <Trackpoint>
            <Time>2021-08-14T10:48:55.000Z</Time>
            <Position>
              <LatitudeDegrees>42.95606528408825397491455078125</LatitudeDegrees>
              <LongitudeDegrees>-1.82386390864849090576171875</LongitudeDegrees>
            </Position>
            <AltitudeMeters>480.600006103515625</AltitudeMeters>
            <DistanceMeters>NAN</DistanceMeters>
          </Trackpoint>
          <Trackpoint>
            <Time>2021-08-14T10:48:56.000Z</Time>
            <Position>
              <LatitudeDegrees>42.95603401958942413330078125</LatitudeDegrees>
              <LongitudeDegrees>-1.82386784814298152923583984375</LongitudeDegrees>
            </Position>
            <AltitudeMeters>480.600006103515625</AltitudeMeters>
            <DistanceMeters>NAN</DistanceMeters>
          </Trackpoint>
          <Trackpoint>
            <Time>2021-08-14T10:48:57.000Z</Time>
            <Position>
              <LatitudeDegrees>42.95600040815770626068115234375</LatitudeDegrees>
              <LongitudeDegrees>-1.823876313865184783935546875</LongitudeDegrees>
            </Position>
            <AltitudeMeters>480.600006103515625</AltitudeMeters>
            <DistanceMeters>NAN</DistanceMeters>
          </Trackpoint>
          <Trackpoint>
            <Time>2021-08-14T10:49:01.000Z</Time>
            <Position>
              <LatitudeDegrees>42.9558715783059597015380859375</LatitudeDegrees>
              <LongitudeDegrees>-1.82392601855099201202392578125</LongitudeDegrees>
            </Position>
            <AltitudeMeters>480.600006103515625</AltitudeMeters>
            <DistanceMeters>NAN</DistanceMeters>
          </Trackpoint>
          <Trackpoint>
            <Time>2021-08-14T10:49:02.000Z</Time>
            <Position>
              <LatitudeDegrees>42.95584131963551044464111328125</LatitudeDegrees>
              <LongitudeDegrees>-1.823929958045482635498046875</LongitudeDegrees>
            </Position>
            <AltitudeMeters>480.600006103515625</AltitudeMeters>
            <DistanceMeters>NAN</DistanceMeters>
          </Trackpoint>
          <Trackpoint>
            <Time>2021-08-14T10:49:07.000Z</Time>
            <Position>
              <LatitudeDegrees>42.95567904599010944366455078125</LatitudeDegrees>
              <LongitudeDegrees>-1.82391378097236156463623046875</LongitudeDegrees>
            </Position>
            <AltitudeMeters>480.79998779296875</AltitudeMeters>
            <DistanceMeters>NAN</DistanceMeters>
          </Trackpoint>
          <Trackpoint>
            <Time>2021-08-14T10:49:08.000Z</Time>
            <Position>
              <LatitudeDegrees>42.955648116767406463623046875</LatitudeDegrees>
              <LongitudeDegrees>-1.82390824891626834869384765625</LongitudeDegrees>
            </Position>
            <AltitudeMeters>480.79998779296875</AltitudeMeters>
            <DistanceMeters>NAN</DistanceMeters>
          </Trackpoint>
          <Trackpoint>
            <Time>2021-08-14T10:49:09.000Z</Time>
            <Position>
              <LatitudeDegrees>42.9556187801063060760498046875</LatitudeDegrees>
              <LongitudeDegrees>-1.82390104047954082489013671875</LongitudeDegrees>
            </Position>
            <AltitudeMeters>480.600006103515625</AltitudeMeters>
            <DistanceMeters>NAN</DistanceMeters>
          </Trackpoint>
          <Trackpoint>
            <Time>2021-08-14T10:49:10.000Z</Time>
            <Position>
              <LatitudeDegrees>42.95559070073068141937255859375</LatitudeDegrees>
              <LongitudeDegrees>-1.8238935805857181549072265625</LongitudeDegrees>
            </Position>
            <AltitudeMeters>480.600006103515625</AltitudeMeters>
            <DistanceMeters>NAN</DistanceMeters>
          </Trackpoint>
          <Trackpoint>
            <Time>2021-08-14T10:49:11.000Z</Time>
            <Position>
              <LatitudeDegrees>42.955562956631183624267578125</LatitudeDegrees>
              <LongitudeDegrees>-1.82388746179640293121337890625</LongitudeDegrees>
            </Position>
            <AltitudeMeters>480.79998779296875</AltitudeMeters>
            <DistanceMeters>NAN</DistanceMeters>
          </Trackpoint>
          <Trackpoint>
            <Time>2021-08-14T10:49:12.000Z</Time>
            <Position>
              <LatitudeDegrees>42.95553772710263729095458984375</LatitudeDegrees>
              <LongitudeDegrees>-1.8238758109509944915771484375</LongitudeDegrees>
            </Position>
            <AltitudeMeters>480.79998779296875</AltitudeMeters>
            <DistanceMeters>NAN</DistanceMeters>
          </Trackpoint>
          <Trackpoint>
            <Time>2021-08-14T10:49:13.000Z</Time>
            <Position>
              <LatitudeDegrees>42.95551744289696216583251953125</LatitudeDegrees>
              <LongitudeDegrees>-1.8238471448421478271484375</LongitudeDegrees>
            </Position>
            <AltitudeMeters>480.79998779296875</AltitudeMeters>
            <DistanceMeters>NAN</DistanceMeters>
          </Trackpoint>
          <Trackpoint>
            <Time>2021-08-14T10:49:14.000Z</Time>
            <Position>
              <LatitudeDegrees>42.95550654642283916473388671875</LatitudeDegrees>
              <LongitudeDegrees>-1.823805905878543853759765625</LongitudeDegrees>
            </Position>
            <AltitudeMeters>480.79998779296875</AltitudeMeters>
            <DistanceMeters>NAN</DistanceMeters>
          </Trackpoint>
          <Trackpoint>
            <Time>2021-08-14T10:49:15.000Z</Time>
            <Position>
              <LatitudeDegrees>42.955497242510318756103515625</LatitudeDegrees>
              <LongitudeDegrees>-1.82376374490559101104736328125</LongitudeDegrees>
            </Position>
            <AltitudeMeters>480.79998779296875</AltitudeMeters>
            <DistanceMeters>NAN</DistanceMeters>
          </Trackpoint>
          <Trackpoint>
            <Time>2021-08-14T10:49:16.000Z</Time>
            <Position>
              <LatitudeDegrees>42.95547603629529476165771484375</LatitudeDegrees>
              <LongitudeDegrees>-1.8237349949777126312255859375</LongitudeDegrees>
            </Position>
            <AltitudeMeters>480.79998779296875</AltitudeMeters>
            <DistanceMeters>NAN</DistanceMeters>
          </Trackpoint>
          <Trackpoint>
            <Time>2021-08-14T10:49:17.000Z</Time>
            <Position>
              <LatitudeDegrees>42.95545139349997043609619140625</LatitudeDegrees>
              <LongitudeDegrees>-1.82372351177036762237548828125</LongitudeDegrees>
            </Position>
            <AltitudeMeters>480.79998779296875</AltitudeMeters>
            <DistanceMeters>NAN</DistanceMeters>
          </Trackpoint>
          <Trackpoint>
            <Time>2021-08-14T10:49:18.000Z</Time>
            <Position>
              <LatitudeDegrees>42.9554320313036441802978515625</LatitudeDegrees>
              <LongitudeDegrees>-1.82371647097170352935791015625</LongitudeDegrees>
            </Position>
            <AltitudeMeters>480.79998779296875</AltitudeMeters>
            <DistanceMeters>NAN</DistanceMeters>
          </Trackpoint>
          <Trackpoint>
            <Time>2021-08-14T10:49:19.000Z</Time>
            <Position>
              <LatitudeDegrees>42.955417446792125701904296875</LatitudeDegrees>
              <LongitudeDegrees>-1.82370993308722972869873046875</LongitudeDegrees>
            </Position>
            <AltitudeMeters>480.79998779296875</AltitudeMeters>
            <DistanceMeters>NAN</DistanceMeters>
          </Trackpoint>
          <Trackpoint>
            <Time>2021-08-14T10:49:20.000Z</Time>
            <Position>
              <LatitudeDegrees>42.9554048739373683929443359375</LatitudeDegrees>
              <LongitudeDegrees>-1.823705993592739105224609375</LongitudeDegrees>
            </Position>
            <AltitudeMeters>481</AltitudeMeters>
            <DistanceMeters>NAN</DistanceMeters>
          </Trackpoint>
          <Trackpoint>
            <Time>2021-08-14T10:49:21.000Z</Time>
            <Position>
              <LatitudeDegrees>42.95539288781583309173583984375</LatitudeDegrees>
              <LongitudeDegrees>-1.82370305992662906646728515625</LongitudeDegrees>
            </Position>
            <AltitudeMeters>481</AltitudeMeters>
            <DistanceMeters>NAN</DistanceMeters>
          </Trackpoint>
          <Trackpoint>
            <Time>2021-08-14T10:49:22.000Z</Time>
            <Position>
              <LatitudeDegrees>42.95538065023720264434814453125</LatitudeDegrees>
              <LongitudeDegrees>-1.823703311383724212646484375</LongitudeDegrees>
            </Position>
            <AltitudeMeters>481.20001220703125</AltitudeMeters>
            <DistanceMeters>NAN</DistanceMeters>
          </Trackpoint>
          <Trackpoint>
            <Time>2021-08-14T10:49:23.000Z</Time>
            <Position>
              <LatitudeDegrees>42.95537008903920650482177734375</LatitudeDegrees>
              <LongitudeDegrees>-1.82370389811694622039794921875</LongitudeDegrees>
            </Position>
            <AltitudeMeters>481.399993896484375</AltitudeMeters>
            <DistanceMeters>NAN</DistanceMeters>
          </Trackpoint>
          <Trackpoint>
            <Time>2021-08-14T10:49:27.000Z</Time>
            <Position>
              <LatitudeDegrees>42.95535734854638576507568359375</LatitudeDegrees>
              <LongitudeDegrees>-1.823704652488231658935546875</LongitudeDegrees>
            </Position>
            <AltitudeMeters>481.600006103515625</AltitudeMeters>
            <DistanceMeters>NAN</DistanceMeters>
          </Trackpoint>
          <Trackpoint>
            <Time>2021-08-14T10:49:36.000Z</Time>
            <Position>
              <LatitudeDegrees>42.95535734854638576507568359375</LatitudeDegrees>
              <LongitudeDegrees>-1.823704652488231658935546875</LongitudeDegrees>
            </Position>
            <AltitudeMeters>481.600006103515625</AltitudeMeters>
            <DistanceMeters>NAN</DistanceMeters>
          </Trackpoint>
          <Trackpoint>
            <Time>2021-08-14T10:49:40.000Z</Time>
            <Position>
              <LatitudeDegrees>42.95535734854638576507568359375</LatitudeDegrees>
              <LongitudeDegrees>-1.823704652488231658935546875</LongitudeDegrees>
            </Position>
            <AltitudeMeters>481.600006103515625</AltitudeMeters>
            <DistanceMeters>NAN</DistanceMeters>
          </Trackpoint>
          <Trackpoint>
            <Time>2021-08-14T12:00:15.000Z</Time>
            <Position>
              <LatitudeDegrees>42.955289371311664581298828125</LatitudeDegrees>
              <LongitudeDegrees>-1.82365545071661472320556640625</LongitudeDegrees>
            </Position>
            <AltitudeMeters>486.399993896484375</AltitudeMeters>
            <DistanceMeters>NAN</DistanceMeters>
          </Trackpoint>
          <Trackpoint>
            <Time>2021-08-14T12:00:22.000Z</Time>
            <Position>
              <LatitudeDegrees>42.9552778042852878570556640625</LatitudeDegrees>
              <LongitudeDegrees>-1.82370255701243877410888671875</LongitudeDegrees>
            </Position>
            <AltitudeMeters>486.600006103515625</AltitudeMeters>
            <DistanceMeters>NAN</DistanceMeters>
          </Trackpoint>
          <Trackpoint>
            <Time>2021-08-14T12:00:27.000Z</Time>
            <Position>
              <LatitudeDegrees>42.95528342016041278839111328125</LatitudeDegrees>
              <LongitudeDegrees>-1.82368361391127109527587890625</LongitudeDegrees>
            </Position>
            <AltitudeMeters>486.399993896484375</AltitudeMeters>
            <DistanceMeters>NAN</DistanceMeters>
          </Trackpoint>
          <Trackpoint>
            <Time>2021-08-14T12:00:28.000Z</Time>
            <Position>
              <LatitudeDegrees>42.9552938975393772125244140625</LatitudeDegrees>
              <LongitudeDegrees>-1.82368109934031963348388671875</LongitudeDegrees>
            </Position>
            <AltitudeMeters>486.399993896484375</AltitudeMeters>
            <DistanceMeters>NAN</DistanceMeters>
          </Trackpoint>
          <Trackpoint>
            <Time>2021-08-14T12:00:30.000Z</Time>
            <Position>
              <LatitudeDegrees>42.955314852297306060791015625</LatitudeDegrees>
              <LongitudeDegrees>-1.82368981651961803436279296875</LongitudeDegrees>
            </Position>
            <AltitudeMeters>486.20001220703125</AltitudeMeters>
            <DistanceMeters>NAN</DistanceMeters>
          </Trackpoint>
          <Trackpoint>
            <Time>2021-08-14T12:00:31.000Z</Time>
            <Position>
              <LatitudeDegrees>42.95531996525824069976806640625</LatitudeDegrees>
              <LongitudeDegrees>-1.82369551621377468109130859375</LongitudeDegrees>
            </Position>
            <AltitudeMeters>486.20001220703125</AltitudeMeters>
            <DistanceMeters>NAN</DistanceMeters>
          </Trackpoint>
          <Trackpoint>
            <Time>2021-08-14T12:00:32.000Z</Time>
            <Position>
              <LatitudeDegrees>42.955326251685619354248046875</LatitudeDegrees>
              <LongitudeDegrees>-1.8237054906785488128662109375</LongitudeDegrees>
            </Position>
            <AltitudeMeters>486.20001220703125</AltitudeMeters>
            <DistanceMeters>NAN</DistanceMeters>
          </Trackpoint>
          <Trackpoint>
            <Time>2021-08-14T12:00:33.000Z</Time>
            <Position>
              <LatitudeDegrees>42.955330945551395416259765625</LatitudeDegrees>
              <LongitudeDegrees>-1.82371102273464202880859375</LongitudeDegrees>
            </Position>
            <AltitudeMeters>486.20001220703125</AltitudeMeters>
            <DistanceMeters>NAN</DistanceMeters>
          </Trackpoint>
          <Trackpoint>
            <Time>2021-08-14T12:00:34.000Z</Time>
            <Position>
              <LatitudeDegrees>42.9553331248462200164794921875</LatitudeDegrees>
              <LongitudeDegrees>-1.823713369667530059814453125</LongitudeDegrees>
            </Position>
            <AltitudeMeters>486.20001220703125</AltitudeMeters>
            <DistanceMeters>NAN</DistanceMeters>
          </Trackpoint>
          <Trackpoint>
            <Time>2021-08-14T12:00:39.000Z</Time>
            <Position>
              <LatitudeDegrees>42.95534075237810611724853515625</LatitudeDegrees>
              <LongitudeDegrees>-1.82372334413230419158935546875</LongitudeDegrees>
            </Position>
            <AltitudeMeters>486.399993896484375</AltitudeMeters>
            <DistanceMeters>NAN</DistanceMeters>
          </Trackpoint>
          <Trackpoint>
            <Time>2021-08-14T12:00:51.000Z</Time>
            <Position>
              <LatitudeDegrees>42.95534075237810611724853515625</LatitudeDegrees>
              <LongitudeDegrees>-1.82372334413230419158935546875</LongitudeDegrees>
            </Position>
            <AltitudeMeters>486.79998779296875</AltitudeMeters>
            <DistanceMeters>NAN</DistanceMeters>
          </Trackpoint>
          <Trackpoint>
            <Time>2021-08-14T12:01:17.000Z</Time>
            <Position>
              <LatitudeDegrees>42.955343686044216156005859375</LatitudeDegrees>
              <LongitudeDegrees>-1.82370523922145366668701171875</LongitudeDegrees>
            </Position>
            <AltitudeMeters>486.79998779296875</AltitudeMeters>
            <DistanceMeters>NAN</DistanceMeters>
          </Trackpoint>
          <Trackpoint>
            <Time>2021-08-14T12:02:45.000Z</Time>
            <Position>
              <LatitudeDegrees>42.95541048981249332427978515625</LatitudeDegrees>
              <LongitudeDegrees>-1.8237078376114368438720703125</LongitudeDegrees>
            </Position>
            <AltitudeMeters>486</AltitudeMeters>
            <DistanceMeters>NAN</DistanceMeters>
          </Trackpoint>
          <Trackpoint>
            <Time>2021-08-14T12:02:53.000Z</Time>
            <Position>
              <LatitudeDegrees>42.95542121864855289459228515625</LatitudeDegrees>
              <LongitudeDegrees>-1.82370607741177082061767578125</LongitudeDegrees>
            </Position>
            <AltitudeMeters>486.399993896484375</AltitudeMeters>
            <DistanceMeters>NAN</DistanceMeters>
          </Trackpoint>
          <Trackpoint>
            <Time>2021-08-14T12:02:56.000Z</Time>
            <Position>
              <LatitudeDegrees>42.955424152314662933349609375</LatitudeDegrees>
              <LongitudeDegrees>-1.8237078376114368438720703125</LongitudeDegrees>
            </Position>
            <AltitudeMeters>486.20001220703125</AltitudeMeters>
            <DistanceMeters>NAN</DistanceMeters>
          </Trackpoint>
          <Trackpoint>
            <Time>2021-08-14T12:02:59.000Z</Time>
            <Position>
              <LatitudeDegrees>42.9554903693497180938720703125</LatitudeDegrees>
              <LongitudeDegrees>-1.8237618170678615570068359375</LongitudeDegrees>
            </Position>
            <AltitudeMeters>486.20001220703125</AltitudeMeters>
            <DistanceMeters>NAN</DistanceMeters>
          </Trackpoint>
          <Trackpoint>
            <Time>2021-08-14T12:03:01.000Z</Time>
            <Position>
              <LatitudeDegrees>42.955486513674259185791015625</LatitudeDegrees>
              <LongitudeDegrees>-1.82384270243346691131591796875</LongitudeDegrees>
            </Position>
            <AltitudeMeters>486</AltitudeMeters>
            <DistanceMeters>NAN</DistanceMeters>
          </Trackpoint>
          <Trackpoint>
            <Time>2021-08-14T12:03:02.000Z</Time>
            <Position>
              <LatitudeDegrees>42.9554628767073154449462890625</LatitudeDegrees>
              <LongitudeDegrees>-1.8238687701523303985595703125</LongitudeDegrees>
            </Position>
            <AltitudeMeters>486</AltitudeMeters>
            <DistanceMeters>NAN</DistanceMeters>
          </Trackpoint>
          <Trackpoint>
            <Time>2021-08-14T12:03:03.000Z</Time>
            <Position>
              <LatitudeDegrees>42.95543412677943706512451171875</LatitudeDegrees>
              <LongitudeDegrees>-1.82388176210224628448486328125</LongitudeDegrees>
            </Position>
            <AltitudeMeters>485.79998779296875</AltitudeMeters>
            <DistanceMeters>NAN</DistanceMeters>
          </Trackpoint>
          <Trackpoint>
            <Time>2021-08-14T12:03:05.000Z</Time>
            <Position>
              <LatitudeDegrees>42.95537511818110942840576171875</LatitudeDegrees>
              <LongitudeDegrees>-1.82388134300708770751953125</LongitudeDegrees>
            </Position>
            <AltitudeMeters>485.600006103515625</AltitudeMeters>
            <DistanceMeters>NAN</DistanceMeters>
          </Trackpoint>
          <Trackpoint>
            <Time>2021-08-14T12:03:06.000Z</Time>
            <Position>
              <LatitudeDegrees>42.95534276403486728668212890625</LatitudeDegrees>
              <LongitudeDegrees>-1.8238761462271213531494140625</LongitudeDegrees>
            </Position>
            <AltitudeMeters>485.600006103515625</AltitudeMeters>
            <DistanceMeters>NAN</DistanceMeters>
          </Trackpoint>
          <Trackpoint>
            <Time>2021-08-14T12:03:10.000Z</Time>
            <Position>
              <LatitudeDegrees>42.9552141018211841583251953125</LatitudeDegrees>
              <LongitudeDegrees>-1.82384907267987728118896484375</LongitudeDegrees>
            </Position>
            <AltitudeMeters>485.399993896484375</AltitudeMeters>
            <DistanceMeters>NAN</DistanceMeters>
          </Trackpoint>
          <Trackpoint>
            <Time>2021-08-14T12:03:13.000Z</Time>
            <Position>
              <LatitudeDegrees>42.95510756783187389373779296875</LatitudeDegrees>
              <LongitudeDegrees>-1.8238231725990772247314453125</LongitudeDegrees>
            </Position>
            <AltitudeMeters>485.399993896484375</AltitudeMeters>
            <DistanceMeters>NAN</DistanceMeters>
          </Trackpoint>
          <Trackpoint>
            <Time>2021-08-14T12:03:20.000Z</Time>
            <Position>
              <LatitudeDegrees>42.95485250651836395263671875</LatitudeDegrees>
              <LongitudeDegrees>-1.8237534351646900177001953125</LongitudeDegrees>
            </Position>
            <AltitudeMeters>485.399993896484375</AltitudeMeters>
            <DistanceMeters>NAN</DistanceMeters>
          </Trackpoint>
          <Trackpoint>
            <Time>2021-08-14T12:03:25.000Z</Time>
            <Position>
              <LatitudeDegrees>42.954651005566120147705078125</LatitudeDegrees>
              <LongitudeDegrees>-1.82365729473531246185302734375</LongitudeDegrees>
            </Position>
            <AltitudeMeters>485.399993896484375</AltitudeMeters>
            <DistanceMeters>NAN</DistanceMeters>
          </Trackpoint>
          <Trackpoint>
            <Time>2021-08-14T12:03:27.000Z</Time>
            <Position>
              <LatitudeDegrees>42.95455939136445522308349609375</LatitudeDegrees>
              <LongitudeDegrees>-1.82361622340977191925048828125</LongitudeDegrees>
            </Position>
            <AltitudeMeters>485.399993896484375</AltitudeMeters>
            <DistanceMeters>NAN</DistanceMeters>
          </Trackpoint>
          <Trackpoint>
            <Time>2021-08-14T12:03:28.000Z</Time>
            <Position>
              <LatitudeDegrees>42.95451379381120204925537109375</LatitudeDegrees>
              <LongitudeDegrees>-1.823598705232143402099609375</LongitudeDegrees>
            </Position>
            <AltitudeMeters>485.399993896484375</AltitudeMeters>
            <DistanceMeters>NAN</DistanceMeters>
          </Trackpoint>
          <Trackpoint>
            <Time>2021-08-14T12:03:31.000Z</Time>
            <Position>
              <LatitudeDegrees>42.95438873581588268280029296875</LatitudeDegrees>
              <LongitudeDegrees>-1.82355503551661968231201171875</LongitudeDegrees>
            </Position>
            <AltitudeMeters>485.399993896484375</AltitudeMeters>
            <DistanceMeters>NAN</DistanceMeters>
          </Trackpoint>
          <Trackpoint>
            <Time>2021-08-14T12:03:32.000Z</Time>
            <Position>
              <LatitudeDegrees>42.9543514363467693328857421875</LatitudeDegrees>
              <LongitudeDegrees>-1.8235435523092746734619140625</LongitudeDegrees>
            </Position>
            <AltitudeMeters>485.600006103515625</AltitudeMeters>
            <DistanceMeters>NAN</DistanceMeters>
          </Trackpoint>
          <Trackpoint>
            <Time>2021-08-14T12:03:33.000Z</Time>
            <Position>
              <LatitudeDegrees>42.9543148912489414215087890625</LatitudeDegrees>
              <LongitudeDegrees>-1.823530979454517364501953125</LongitudeDegrees>
            </Position>
            <AltitudeMeters>485.600006103515625</AltitudeMeters>
            <DistanceMeters>NAN</DistanceMeters>
          </Trackpoint>
          <Trackpoint>
            <Time>2021-08-14T12:03:34.000Z</Time>
            <Position>
              <LatitudeDegrees>42.9542805254459381103515625</LatitudeDegrees>
              <LongitudeDegrees>-1.8235210888087749481201171875</LongitudeDegrees>
            </Position>
            <AltitudeMeters>485.600006103515625</AltitudeMeters>
            <DistanceMeters>NAN</DistanceMeters>
          </Trackpoint>
          <Trackpoint>
            <Time>2021-08-14T12:03:35.000Z</Time>
            <Position>
              <LatitudeDegrees>42.954247333109378814697265625</LatitudeDegrees>
              <LongitudeDegrees>-1.8235118687152862548828125</LongitudeDegrees>
            </Position>
            <AltitudeMeters>485.79998779296875</AltitudeMeters>
            <DistanceMeters>NAN</DistanceMeters>
          </Trackpoint>
          <Trackpoint>
            <Time>2021-08-14T12:03:36.000Z</Time>
            <Position>
              <LatitudeDegrees>42.9542129673063755035400390625</LatitudeDegrees>
              <LongitudeDegrees>-1.82350340299308300018310546875</LongitudeDegrees>
            </Position>
            <AltitudeMeters>485.79998779296875</AltitudeMeters>
            <DistanceMeters>NAN</DistanceMeters>
          </Trackpoint>
          <Trackpoint>
            <Time>2021-08-14T12:03:37.000Z</Time>
            <Position>
              <LatitudeDegrees>42.9541760869324207305908203125</LatitudeDegrees>
              <LongitudeDegrees>-1.8234959430992603302001953125</LongitudeDegrees>
            </Position>
            <AltitudeMeters>485.79998779296875</AltitudeMeters>
            <DistanceMeters>NAN</DistanceMeters>
          </Trackpoint>
          <Trackpoint>
            <Time>2021-08-14T12:03:40.000Z</Time>
            <Position>
              <LatitudeDegrees>42.954076342284679412841796875</LatitudeDegrees>
              <LongitudeDegrees>-1.82345797307789325714111328125</LongitudeDegrees>
            </Position>
            <AltitudeMeters>485.79998779296875</AltitudeMeters>
            <DistanceMeters>NAN</DistanceMeters>
          </Trackpoint>
          <Trackpoint>
            <Time>2021-08-14T12:03:41.000Z</Time>
            <Position>
              <LatitudeDegrees>42.9540557228028774261474609375</LatitudeDegrees>
              <LongitudeDegrees>-1.82344992645084857940673828125</LongitudeDegrees>
            </Position>
            <AltitudeMeters>485.79998779296875</AltitudeMeters>
            <DistanceMeters>NAN</DistanceMeters>
          </Trackpoint>
          <Trackpoint>
            <Time>2021-08-14T12:03:42.000Z</Time>
            <Position>
              <LatitudeDegrees>42.95403988100588321685791015625</LatitudeDegrees>
              <LongitudeDegrees>-1.8234416283667087554931640625</LongitudeDegrees>
            </Position>
            <AltitudeMeters>485.79998779296875</AltitudeMeters>
            <DistanceMeters>NAN</DistanceMeters>
          </Trackpoint>
          <Trackpoint>
            <Time>2021-08-14T12:03:43.000Z</Time>
            <Position>
              <LatitudeDegrees>42.95402236282825469970703125</LatitudeDegrees>
              <LongitudeDegrees>-1.82343500666320323944091796875</LongitudeDegrees>
            </Position>
            <AltitudeMeters>485.79998779296875</AltitudeMeters>
            <DistanceMeters>NAN</DistanceMeters>
          </Trackpoint>
          <Trackpoint>
            <Time>2021-08-14T12:03:44.000Z</Time>
            <Position>
              <LatitudeDegrees>42.95400937087833881378173828125</LatitudeDegrees>
              <LongitudeDegrees>-1.8234392814338207244873046875</LongitudeDegrees>
            </Position>
            <AltitudeMeters>485.79998779296875</AltitudeMeters>
            <DistanceMeters>NAN</DistanceMeters>
          </Trackpoint>
          <Trackpoint>
            <Time>2021-08-14T12:03:45.000Z</Time>
            <Position>
              <LatitudeDegrees>42.95400015078485012054443359375</LatitudeDegrees>
              <LongitudeDegrees>-1.82345227338373661041259765625</LongitudeDegrees>
            </Position>
            <AltitudeMeters>485.79998779296875</AltitudeMeters>
            <DistanceMeters>NAN</DistanceMeters>
          </Trackpoint>
          <Trackpoint>
            <Time>2021-08-14T12:03:46.000Z</Time>
            <Position>
              <LatitudeDegrees>42.9539853148162364959716796875</LatitudeDegrees>
              <LongitudeDegrees>-1.82346384041011333465576171875</LongitudeDegrees>
            </Position>
            <AltitudeMeters>485.79998779296875</AltitudeMeters>
            <DistanceMeters>NAN</DistanceMeters>
          </Trackpoint>
          <Trackpoint>
            <Time>2021-08-14T12:03:50.000Z</Time>
            <Position>
              <LatitudeDegrees>42.95392270199954509735107421875</LatitudeDegrees>
              <LongitudeDegrees>-1.82339661754667758941650390625</LongitudeDegrees>
            </Position>
            <AltitudeMeters>485.79998779296875</AltitudeMeters>
            <DistanceMeters>NAN</DistanceMeters>
          </Trackpoint>
          <Trackpoint>
            <Time>2021-08-14T12:03:51.000Z</Time>
            <Position>
              <LatitudeDegrees>42.95390241779386997222900390625</LatitudeDegrees>
              <LongitudeDegrees>-1.8233866430819034576416015625</LongitudeDegrees>
            </Position>
            <AltitudeMeters>485.600006103515625</AltitudeMeters>
            <DistanceMeters>NAN</DistanceMeters>
          </Trackpoint>
          <Trackpoint>
            <Time>2021-08-14T12:03:54.000Z</Time>
            <Position>
              <LatitudeDegrees>42.9538059420883655548095703125</LatitudeDegrees>
              <LongitudeDegrees>-1.82339276187121868133544921875</LongitudeDegrees>
            </Position>
            <AltitudeMeters>485.600006103515625</AltitudeMeters>
            <DistanceMeters>NAN</DistanceMeters>
          </Trackpoint>
          <Trackpoint>
            <Time>2021-08-14T12:03:55.000Z</Time>
            <Position>
              <LatitudeDegrees>42.95376763679087162017822265625</LatitudeDegrees>
              <LongitudeDegrees>-1.82340214960277080535888671875</LongitudeDegrees>
            </Position>
            <AltitudeMeters>485.600006103515625</AltitudeMeters>
            <DistanceMeters>NAN</DistanceMeters>
          </Trackpoint>
          <Trackpoint>
            <Time>2021-08-14T12:03:57.000Z</Time>
            <Position>
              <LatitudeDegrees>42.95368264429271221160888671875</LatitudeDegrees>
              <LongitudeDegrees>-1.8234260380268096923828125</LongitudeDegrees>
            </Position>
            <AltitudeMeters>485.600006103515625</AltitudeMeters>
            <DistanceMeters>NAN</DistanceMeters>
          </Trackpoint>
          <Trackpoint>
            <Time>2021-08-14T12:04:00.000Z</Time>
            <Position>
              <LatitudeDegrees>42.95355658046901226043701171875</LatitudeDegrees>
              <LongitudeDegrees>-1.823478005826473236083984375</LongitudeDegrees>
            </Position>
            <AltitudeMeters>485.600006103515625</AltitudeMeters>
            <DistanceMeters>NAN</DistanceMeters>
          </Trackpoint>
          <Trackpoint>
            <Time>2021-08-14T12:04:01.000Z</Time>
            <Position>
              <LatitudeDegrees>42.95351953245699405670166015625</LatitudeDegrees>
              <LongitudeDegrees>-1.823497116565704345703125</LongitudeDegrees>
            </Position>
            <AltitudeMeters>485.600006103515625</AltitudeMeters>
            <DistanceMeters>NAN</DistanceMeters>
          </Trackpoint>
          <Trackpoint>
            <Time>2021-08-14T12:04:02.000Z</Time>
            <Position>
              <LatitudeDegrees>42.95347653329372406005859375</LatitudeDegrees>
              <LongitudeDegrees>-1.82352100498974323272705078125</LongitudeDegrees>
            </Position>
            <AltitudeMeters>485.600006103515625</AltitudeMeters>
            <DistanceMeters>NAN</DistanceMeters>
          </Trackpoint>
          <Trackpoint>
            <Time>2021-08-14T12:04:03.000Z</Time>
            <Position>
              <LatitudeDegrees>42.9534488730132579803466796875</LatitudeDegrees>
              <LongitudeDegrees>-1.82353491894900798797607421875</LongitudeDegrees>
            </Position>
            <AltitudeMeters>485.79998779296875</AltitudeMeters>
            <DistanceMeters>NAN</DistanceMeters>
          </Trackpoint>
          <Trackpoint>
            <Time>2021-08-14T12:04:06.000Z</Time>
            <Position>
              <LatitudeDegrees>42.95335491187870502471923828125</LatitudeDegrees>
              <LongitudeDegrees>-1.82359241880476474761962890625</LongitudeDegrees>
            </Position>
            <AltitudeMeters>486</AltitudeMeters>
            <DistanceMeters>NAN</DistanceMeters>
          </Trackpoint>
          <Trackpoint>
            <Time>2021-08-14T12:04:07.000Z</Time>
            <Position>
              <LatitudeDegrees>42.95332507230341434478759765625</LatitudeDegrees>
              <LongitudeDegrees>-1.8236136250197887420654296875</LongitudeDegrees>
            </Position>
            <AltitudeMeters>486</AltitudeMeters>
            <DistanceMeters>NAN</DistanceMeters>
          </Trackpoint>
          <Trackpoint>
            <Time>2021-08-14T12:04:08.000Z</Time>
            <Position>
              <LatitudeDegrees>42.9532953165471553802490234375</LatitudeDegrees>
              <LongitudeDegrees>-1.8236370943486690521240234375</LongitudeDegrees>
            </Position>
            <AltitudeMeters>486</AltitudeMeters>
            <DistanceMeters>NAN</DistanceMeters>
          </Trackpoint>
          <Trackpoint>
            <Time>2021-08-14T12:04:09.000Z</Time>
            <Position>
              <LatitudeDegrees>42.95326866209506988525390625</LatitudeDegrees>
              <LongitudeDegrees>-1.8236602284014225006103515625</LongitudeDegrees>
            </Position>
            <AltitudeMeters>485.79998779296875</AltitudeMeters>
            <DistanceMeters>NAN</DistanceMeters>
          </Trackpoint>
          <Trackpoint>
            <Time>2021-08-14T12:04:10.000Z</Time>
            <Position>
              <LatitudeDegrees>42.95324678532779216766357421875</LatitudeDegrees>
              <LongitudeDegrees>-1.82368311099708080291748046875</LongitudeDegrees>
            </Position>
            <AltitudeMeters>485.600006103515625</AltitudeMeters>
            <DistanceMeters>NAN</DistanceMeters>
          </Trackpoint>
          <Trackpoint>
            <Time>2021-08-14T12:04:11.000Z</Time>
            <Position>
              <LatitudeDegrees>42.9532255791127681732177734375</LatitudeDegrees>
              <LongitudeDegrees>-1.823707334697246551513671875</LongitudeDegrees>
            </Position>
            <AltitudeMeters>485.79998779296875</AltitudeMeters>
            <DistanceMeters>NAN</DistanceMeters>
          </Trackpoint>
          <Trackpoint>
            <Time>2021-08-14T12:04:12.000Z</Time>
            <Position>
              <LatitudeDegrees>42.9532131738960742950439453125</LatitudeDegrees>
              <LongitudeDegrees>-1.823720075190067291259765625</LongitudeDegrees>
            </Position>
            <AltitudeMeters>485.79998779296875</AltitudeMeters>
            <DistanceMeters>NAN</DistanceMeters>
          </Trackpoint>
          <Trackpoint>
            <Time>2021-08-14T12:04:13.000Z</Time>
            <Position>
              <LatitudeDegrees>42.953197248280048370361328125</LatitudeDegrees>
              <LongitudeDegrees>-1.82373424060642719268798828125</LongitudeDegrees>
            </Position>
            <AltitudeMeters>485.79998779296875</AltitudeMeters>
            <DistanceMeters>NAN</DistanceMeters>
          </Trackpoint>
          <Trackpoint>
            <Time>2021-08-14T12:04:14.000Z</Time>
            <Position>
              <LatitudeDegrees>42.953178472816944122314453125</LatitudeDegrees>
              <LongitudeDegrees>-1.82375016622245311737060546875</LongitudeDegrees>
            </Position>
            <AltitudeMeters>485.79998779296875</AltitudeMeters>
            <DistanceMeters>NAN</DistanceMeters>
          </Trackpoint>
          <Trackpoint>
            <Time>2021-08-14T12:04:19.000Z</Time>
            <Position>
              <LatitudeDegrees>42.9530700109899044036865234375</LatitudeDegrees>
              <LongitudeDegrees>-1.82385477237403392791748046875</LongitudeDegrees>
            </Position>
            <AltitudeMeters>486</AltitudeMeters>
            <DistanceMeters>NAN</DistanceMeters>
          </Trackpoint>
          <Trackpoint>
            <Time>2021-08-14T12:04:26.000Z</Time>
            <Position>
              <LatitudeDegrees>42.9529241658747196197509765625</LatitudeDegrees>
              <LongitudeDegrees>-1.8240250088274478912353515625</LongitudeDegrees>
            </Position>
            <AltitudeMeters>486.20001220703125</AltitudeMeters>
            <DistanceMeters>NAN</DistanceMeters>
          </Trackpoint>
          <Trackpoint>
            <Time>2021-08-14T12:04:27.000Z</Time>
            <Position>
              <LatitudeDegrees>42.95290681533515453338623046875</LatitudeDegrees>
              <LongitudeDegrees>-1.82403867132961750030517578125</LongitudeDegrees>
            </Position>
            <AltitudeMeters>486.20001220703125</AltitudeMeters>
            <DistanceMeters>NAN</DistanceMeters>
          </Trackpoint>
          <Trackpoint>
            <Time>2021-08-14T12:04:29.000Z</Time>
            <Position>
              <LatitudeDegrees>42.952870689332485198974609375</LatitudeDegrees>
              <LongitudeDegrees>-1.8240622244775295257568359375</LongitudeDegrees>
            </Position>
            <AltitudeMeters>486.20001220703125</AltitudeMeters>
            <DistanceMeters>NAN</DistanceMeters>
          </Trackpoint>
          <Trackpoint>
            <Time>2021-08-14T12:04:30.000Z</Time>
            <Position>
              <LatitudeDegrees>42.95285199768841266632080078125</LatitudeDegrees>
              <LongitudeDegrees>-1.82407152839004993438720703125</LongitudeDegrees>
            </Position>
            <AltitudeMeters>486.20001220703125</AltitudeMeters>
            <DistanceMeters>NAN</DistanceMeters>
          </Trackpoint>
          <Trackpoint>
            <Time>2021-08-14T12:04:33.000Z</Time>
            <Position>
              <LatitudeDegrees>42.9527759738266468048095703125</LatitudeDegrees>
              <LongitudeDegrees>-1.82413372211158275604248046875</LongitudeDegrees>
            </Position>
            <AltitudeMeters>486.20001220703125</AltitudeMeters>
            <DistanceMeters>NAN</DistanceMeters>
          </Trackpoint>
          <Trackpoint>
            <Time>2021-08-14T12:04:34.000Z</Time>
            <Position>
              <LatitudeDegrees>42.9527689330279827117919921875</LatitudeDegrees>
              <LongitudeDegrees>-1.82416540570557117462158203125</LongitudeDegrees>
            </Position>
            <AltitudeMeters>486.20001220703125</AltitudeMeters>
            <DistanceMeters>NAN</DistanceMeters>
          </Trackpoint>
          <Trackpoint>
            <Time>2021-08-14T12:04:35.000Z</Time>
            <Position>
              <LatitudeDegrees>42.95276574790477752685546875</LatitudeDegrees>
              <LongitudeDegrees>-1.82420027442276477813720703125</LongitudeDegrees>
            </Position>
            <AltitudeMeters>486.20001220703125</AltitudeMeters>
            <DistanceMeters>NAN</DistanceMeters>
          </Trackpoint>
          <Trackpoint>
            <Time>2021-08-14T12:04:38.000Z</Time>
            <Position>
              <LatitudeDegrees>42.95271520502865314483642578125</LatitudeDegrees>
              <LongitudeDegrees>-1.82430169545114040374755859375</LongitudeDegrees>
            </Position>
            <AltitudeMeters>486</AltitudeMeters>
            <DistanceMeters>NAN</DistanceMeters>
          </Trackpoint>
          <Trackpoint>
            <Time>2021-08-14T12:04:39.000Z</Time>
            <Position>
              <LatitudeDegrees>42.9526894725859165191650390625</LatitudeDegrees>
              <LongitudeDegrees>-1.8243334628641605377197265625</LongitudeDegrees>
            </Position>
            <AltitudeMeters>486</AltitudeMeters>
            <DistanceMeters>NAN</DistanceMeters>
          </Trackpoint>
          <Trackpoint>
            <Time>2021-08-14T12:04:40.000Z</Time>
            <Position>
              <LatitudeDegrees>42.9526604712009429931640625</LatitudeDegrees>
              <LongitudeDegrees>-1.8243569321930408477783203125</LongitudeDegrees>
            </Position>
            <AltitudeMeters>486</AltitudeMeters>
            <DistanceMeters>NAN</DistanceMeters>
          </Trackpoint>
          <Trackpoint>
            <Time>2021-08-14T12:04:41.000Z</Time>
            <Position>
              <LatitudeDegrees>42.95262870378792285919189453125</LatitudeDegrees>
              <LongitudeDegrees>-1.82436623610556125640869140625</LongitudeDegrees>
            </Position>
            <AltitudeMeters>485.79998779296875</AltitudeMeters>
            <DistanceMeters>NAN</DistanceMeters>
          </Trackpoint>
          <Trackpoint>
            <Time>2021-08-14T12:04:42.000Z</Time>
            <Position>
              <LatitudeDegrees>42.952598445117473602294921875</LatitudeDegrees>
              <LongitudeDegrees>-1.82436472736299037933349609375</LongitudeDegrees>
            </Position>
            <AltitudeMeters>485.79998779296875</AltitudeMeters>
            <DistanceMeters>NAN</DistanceMeters>
          </Trackpoint>
          <Trackpoint>
            <Time>2021-08-14T12:04:43.000Z</Time>
            <Position>
              <LatitudeDegrees>42.95256684534251689910888671875</LatitudeDegrees>
              <LongitudeDegrees>-1.8243616260588169097900390625</LongitudeDegrees>
            </Position>
            <AltitudeMeters>485.600006103515625</AltitudeMeters>
            <DistanceMeters>NAN</DistanceMeters>
          </Trackpoint>
          <Trackpoint>
            <Time>2021-08-14T12:04:44.000Z</Time>
            <Position>
              <LatitudeDegrees>42.95253566466271877288818359375</LatitudeDegrees>
              <LongitudeDegrees>-1.82436238043010234832763671875</LongitudeDegrees>
            </Position>
            <AltitudeMeters>485.600006103515625</AltitudeMeters>
            <DistanceMeters>NAN</DistanceMeters>
          </Trackpoint>
          <Trackpoint>
            <Time>2021-08-14T12:04:48.000Z</Time>
            <Position>
              <LatitudeDegrees>42.95242452062666416168212890625</LatitudeDegrees>
              <LongitudeDegrees>-1.8244095705449581146240234375</LongitudeDegrees>
            </Position>
            <AltitudeMeters>485.399993896484375</AltitudeMeters>
            <DistanceMeters>NAN</DistanceMeters>
          </Trackpoint>
          <Trackpoint>
            <Time>2021-08-14T12:04:50.000Z</Time>
            <Position>
              <LatitudeDegrees>42.95237003825604915618896484375</LatitudeDegrees>
              <LongitudeDegrees>-1.8244615383446216583251953125</LongitudeDegrees>
            </Position>
            <AltitudeMeters>485.399993896484375</AltitudeMeters>
            <DistanceMeters>NAN</DistanceMeters>
          </Trackpoint>
          <Trackpoint>
            <Time>2021-08-14T12:04:51.000Z</Time>
            <Position>
              <LatitudeDegrees>42.952348999679088592529296875</LatitudeDegrees>
              <LongitudeDegrees>-1.824503280222415924072265625</LongitudeDegrees>
            </Position>
            <AltitudeMeters>485.399993896484375</AltitudeMeters>
            <DistanceMeters>NAN</DistanceMeters>
          </Trackpoint>
          <Trackpoint>
            <Time>2021-08-14T12:04:52.000Z</Time>
            <Position>
              <LatitudeDegrees>42.9523317329585552215576171875</LatitudeDegrees>
              <LongitudeDegrees>-1.82454275898635387420654296875</LongitudeDegrees>
            </Position>
            <AltitudeMeters>485.399993896484375</AltitudeMeters>
            <DistanceMeters>NAN</DistanceMeters>
          </Trackpoint>
          <Trackpoint>
            <Time>2021-08-14T12:04:53.000Z</Time>
            <Position>
              <LatitudeDegrees>42.95231555588543415069580078125</LatitudeDegrees>
              <LongitudeDegrees>-1.82458810508251190185546875</LongitudeDegrees>
            </Position>
            <AltitudeMeters>485.399993896484375</AltitudeMeters>
            <DistanceMeters>NAN</DistanceMeters>
          </Trackpoint>
          <Trackpoint>
            <Time>2021-08-14T12:04:54.000Z</Time>
            <Position>
              <LatitudeDegrees>42.95230499468743801116943359375</LatitudeDegrees>
              <LongitudeDegrees>-1.82461651973426342010498046875</LongitudeDegrees>
            </Position>
            <AltitudeMeters>485.399993896484375</AltitudeMeters>
            <DistanceMeters>NAN</DistanceMeters>
          </Trackpoint>
          <Trackpoint>
            <Time>2021-08-14T12:04:55.000Z</Time>
            <Position>
              <LatitudeDegrees>42.95229812152683734893798828125</LatitudeDegrees>
              <LongitudeDegrees>-1.824644096195697784423828125</LongitudeDegrees>
            </Position>
            <AltitudeMeters>485.399993896484375</AltitudeMeters>
            <DistanceMeters>NAN</DistanceMeters>
          </Trackpoint>
          <Trackpoint>
            <Time>2021-08-14T12:04:56.000Z</Time>
            <Position>
              <LatitudeDegrees>42.9522925056517124176025390625</LatitudeDegrees>
              <LongitudeDegrees>-1.824668906629085540771484375</LongitudeDegrees>
            </Position>
            <AltitudeMeters>485.600006103515625</AltitudeMeters>
            <DistanceMeters>NAN</DistanceMeters>
          </Trackpoint>
          <Trackpoint>
            <Time>2021-08-14T12:04:57.000Z</Time>
            <Position>
              <LatitudeDegrees>42.95228420756757259368896484375</LatitudeDegrees>
              <LongitudeDegrees>-1.8246901966631412506103515625</LongitudeDegrees>
            </Position>
            <AltitudeMeters>485.600006103515625</AltitudeMeters>
            <DistanceMeters>NAN</DistanceMeters>
          </Trackpoint>
          <Trackpoint>
            <Time>2021-08-14T12:04:58.000Z</Time>
            <Position>
              <LatitudeDegrees>42.95227163471281528472900390625</LatitudeDegrees>
              <LongitudeDegrees>-1.82471676729619503021240234375</LongitudeDegrees>
            </Position>
            <AltitudeMeters>485.600006103515625</AltitudeMeters>
            <DistanceMeters>NAN</DistanceMeters>
          </Trackpoint>
          <Trackpoint>
            <Time>2021-08-14T12:04:59.000Z</Time>
            <Position>
              <LatitudeDegrees>42.95226023532450199127197265625</LatitudeDegrees>
              <LongitudeDegrees>-1.82473369874060153961181640625</LongitudeDegrees>
            </Position>
            <AltitudeMeters>485.600006103515625</AltitudeMeters>
            <DistanceMeters>NAN</DistanceMeters>
          </Trackpoint>
          <Trackpoint>
            <Time>2021-08-14T12:05:00.000Z</Time>
            <Position>
              <LatitudeDegrees>42.95225076377391815185546875</LatitudeDegrees>
              <LongitudeDegrees>-1.82472196407616138458251953125</LongitudeDegrees>
            </Position>
            <AltitudeMeters>485.600006103515625</AltitudeMeters>
            <DistanceMeters>NAN</DistanceMeters>
          </Trackpoint>
          <Trackpoint>
            <Time>2021-08-14T12:05:01.000Z</Time>
            <Position>
              <LatitudeDegrees>42.95223693363368511199951171875</LatitudeDegrees>
              <LongitudeDegrees>-1.8246871791779994964599609375</LongitudeDegrees>
            </Position>
            <AltitudeMeters>485.600006103515625</AltitudeMeters>
            <DistanceMeters>NAN</DistanceMeters>
          </Trackpoint>
          <Trackpoint>
            <Time>2021-08-14T12:05:43.000Z</Time>
            <Position>
              <LatitudeDegrees>42.95215646736323833465576171875</LatitudeDegrees>
              <LongitudeDegrees>-1.8253557197749614715576171875</LongitudeDegrees>
            </Position>
            <AltitudeMeters>487.79998779296875</AltitudeMeters>
            <DistanceMeters>NAN</DistanceMeters>
          </Trackpoint>
          <Trackpoint>
            <Time>2021-08-14T12:05:44.000Z</Time>
            <Position>
              <LatitudeDegrees>42.95214573852717876434326171875</LatitudeDegrees>
              <LongitudeDegrees>-1.82539586909115314483642578125</LongitudeDegrees>
            </Position>
            <AltitudeMeters>487.79998779296875</AltitudeMeters>
            <DistanceMeters>NAN</DistanceMeters>
          </Trackpoint>
          <Trackpoint>
            <Time>2021-08-14T12:05:45.000Z</Time>
            <Position>
              <LatitudeDegrees>42.95213467441499233245849609375</LatitudeDegrees>
              <LongitudeDegrees>-1.8254462443292140960693359375</LongitudeDegrees>
            </Position>
            <AltitudeMeters>488</AltitudeMeters>
            <DistanceMeters>NAN</DistanceMeters>
          </Trackpoint>
          <Trackpoint>
            <Time>2021-08-14T12:05:47.000Z</Time>
            <Position>
              <LatitudeDegrees>42.95209561474621295928955078125</LatitudeDegrees>
              <LongitudeDegrees>-1.8255391158163547515869140625</LongitudeDegrees>
            </Position>
            <AltitudeMeters>488.20001220703125</AltitudeMeters>
            <DistanceMeters>NAN</DistanceMeters>
          </Trackpoint>
          <Trackpoint>
            <Time>2021-08-14T12:05:50.000Z</Time>
            <Position>
              <LatitudeDegrees>42.9520108737051486968994140625</LatitudeDegrees>
              <LongitudeDegrees>-1.82569091208279132843017578125</LongitudeDegrees>
            </Position>
            <AltitudeMeters>488.399993896484375</AltitudeMeters>
            <DistanceMeters>NAN</DistanceMeters>
          </Trackpoint>
          <Trackpoint>
            <Time>2021-08-14T12:05:51.000Z</Time>
            <Position>
              <LatitudeDegrees>42.9519786871969699859619140625</LatitudeDegrees>
              <LongitudeDegrees>-1.8257282115519046783447265625</LongitudeDegrees>
            </Position>
            <AltitudeMeters>488.600006103515625</AltitudeMeters>
            <DistanceMeters>NAN</DistanceMeters>
          </Trackpoint>
          <Trackpoint>
            <Time>2021-08-14T12:05:52.000Z</Time>
            <Position>
              <LatitudeDegrees>42.95194457285106182098388671875</LatitudeDegrees>
              <LongitudeDegrees>-1.82576358318328857421875</LongitudeDegrees>
            </Position>
            <AltitudeMeters>488.600006103515625</AltitudeMeters>
            <DistanceMeters>NAN</DistanceMeters>
          </Trackpoint>
          <Trackpoint>
            <Time>2021-08-14T12:05:53.000Z</Time>
            <Position>
              <LatitudeDegrees>42.95190903358161449432373046875</LatitudeDegrees>
              <LongitudeDegrees>-1.82579266838729381561279296875</LongitudeDegrees>
            </Position>
            <AltitudeMeters>488.600006103515625</AltitudeMeters>
            <DistanceMeters>NAN</DistanceMeters>
          </Trackpoint>
          <Trackpoint>
            <Time>2021-08-14T12:05:54.000Z</Time>
            <Position>
              <LatitudeDegrees>42.9518697224557399749755859375</LatitudeDegrees>
              <LongitudeDegrees>-1.825814209878444671630859375</LongitudeDegrees>
            </Position>
            <AltitudeMeters>489</AltitudeMeters>
            <DistanceMeters>NAN</DistanceMeters>
          </Trackpoint>
          <Trackpoint>
            <Time>2021-08-14T12:05:55.000Z</Time>
            <Position>
              <LatitudeDegrees>42.95182990841567516326904296875</LatitudeDegrees>
              <LongitudeDegrees>-1.82583357207477092742919921875</LongitudeDegrees>
            </Position>
            <AltitudeMeters>489</AltitudeMeters>
            <DistanceMeters>NAN</DistanceMeters>
          </Trackpoint>
          <Trackpoint>
            <Time>2021-08-14T12:05:56.000Z</Time>
            <Position>
              <LatitudeDegrees>42.9517949558794498443603515625</LatitudeDegrees>
              <LongitudeDegrees>-1.82584865950047969818115234375</LongitudeDegrees>
            </Position>
            <AltitudeMeters>488.79998779296875</AltitudeMeters>
            <DistanceMeters>NAN</DistanceMeters>
          </Trackpoint>
          <Trackpoint>
            <Time>2021-08-14T12:05:57.000Z</Time>
            <Position>
              <LatitudeDegrees>42.95175866223871707916259765625</LatitudeDegrees>
              <LongitudeDegrees>-1.82586207054555416107177734375</LongitudeDegrees>
            </Position>
            <AltitudeMeters>489</AltitudeMeters>
            <DistanceMeters>NAN</DistanceMeters>
          </Trackpoint>
          <Trackpoint>
            <Time>2021-08-14T12:05:58.000Z</Time>
            <Position>
              <LatitudeDegrees>42.951723374426364898681640625</LatitudeDegrees>
              <LongitudeDegrees>-1.82587556540966033935546875</LongitudeDegrees>
            </Position>
            <AltitudeMeters>489</AltitudeMeters>
            <DistanceMeters>NAN</DistanceMeters>
          </Trackpoint>
          <Trackpoint>
            <Time>2021-08-14T12:05:59.000Z</Time>
            <Position>
              <LatitudeDegrees>42.951690517365932464599609375</LatitudeDegrees>
              <LongitudeDegrees>-1.82588973082602024078369140625</LongitudeDegrees>
            </Position>
            <AltitudeMeters>489</AltitudeMeters>
            <DistanceMeters>NAN</DistanceMeters>
          </Trackpoint>
          <Trackpoint>
            <Time>2021-08-14T12:06:00.000Z</Time>
            <Position>
              <LatitudeDegrees>42.95165933668613433837890625</LatitudeDegrees>
              <LongitudeDegrees>-1.82589878328144550323486328125</LongitudeDegrees>
            </Position>
            <AltitudeMeters>489.399993896484375</AltitudeMeters>
            <DistanceMeters>NAN</DistanceMeters>
          </Trackpoint>
          <Trackpoint>
            <Time>2021-08-14T12:06:01.000Z</Time>
            <Position>
              <LatitudeDegrees>42.95162907801568508148193359375</LatitudeDegrees>
              <LongitudeDegrees>-1.82590632699429988861083984375</LongitudeDegrees>
            </Position>
            <AltitudeMeters>489.20001220703125</AltitudeMeters>
            <DistanceMeters>NAN</DistanceMeters>
          </Trackpoint>
          <Trackpoint>
            <Time>2021-08-14T12:06:02.000Z</Time>
            <Position>
              <LatitudeDegrees>42.95160359703004360198974609375</LatitudeDegrees>
              <LongitudeDegrees>-1.82592141442000865936279296875</LongitudeDegrees>
            </Position>
            <AltitudeMeters>489.20001220703125</AltitudeMeters>
            <DistanceMeters>NAN</DistanceMeters>
          </Trackpoint>
          <Trackpoint>
            <Time>2021-08-14T12:06:03.000Z</Time>
            <Position>
              <LatitudeDegrees>42.95158012770116329193115234375</LatitudeDegrees>
              <LongitudeDegrees>-1.82594270445406436920166015625</LongitudeDegrees>
            </Position>
            <AltitudeMeters>489.20001220703125</AltitudeMeters>
            <DistanceMeters>NAN</DistanceMeters>
          </Trackpoint>
          <Trackpoint>
            <Time>2021-08-14T12:06:04.000Z</Time>
            <Position>
              <LatitudeDegrees>42.95155464671552181243896484375</LatitudeDegrees>
              <LongitudeDegrees>-1.82597053237259387969970703125</LongitudeDegrees>
            </Position>
            <AltitudeMeters>489.20001220703125</AltitudeMeters>
            <DistanceMeters>NAN</DistanceMeters>
          </Trackpoint>
          <Trackpoint>
            <Time>2021-08-14T12:06:05.000Z</Time>
            <Position>
              <LatitudeDegrees>42.9515263997018337249755859375</LatitudeDegrees>
              <LongitudeDegrees>-1.82600758038461208343505859375</LongitudeDegrees>
            </Position>
            <AltitudeMeters>489.20001220703125</AltitudeMeters>
            <DistanceMeters>NAN</DistanceMeters>
          </Trackpoint>
          <Trackpoint>
            <Time>2021-08-14T12:06:06.000Z</Time>
            <Position>
              <LatitudeDegrees>42.9515103064477443695068359375</LatitudeDegrees>
              <LongitudeDegrees>-1.82604052126407623291015625</LongitudeDegrees>
            </Position>
            <AltitudeMeters>489.399993896484375</AltitudeMeters>
            <DistanceMeters>NAN</DistanceMeters>
          </Trackpoint>
          <Trackpoint>
            <Time>2021-08-14T12:06:07.000Z</Time>
            <Position>
              <LatitudeDegrees>42.95149966143071651458740234375</LatitudeDegrees>
              <LongitudeDegrees>-1.82607010938227176666259765625</LongitudeDegrees>
            </Position>
            <AltitudeMeters>489.399993896484375</AltitudeMeters>
            <DistanceMeters>NAN</DistanceMeters>
          </Trackpoint>
          <Trackpoint>
            <Time>2021-08-14T12:06:08.000Z</Time>
            <Position>
              <LatitudeDegrees>42.9514928720891475677490234375</LatitudeDegrees>
              <LongitudeDegrees>-1.82609458453953266143798828125</LongitudeDegrees>
            </Position>
            <AltitudeMeters>489.399993896484375</AltitudeMeters>
            <DistanceMeters>NAN</DistanceMeters>
          </Trackpoint>
          <Trackpoint>
            <Time>2021-08-14T12:06:09.000Z</Time>
            <Position>
              <LatitudeDegrees>42.95148608274757862091064453125</LatitudeDegrees>
              <LongitudeDegrees>-1.82612442411482334136962890625</LongitudeDegrees>
            </Position>
            <AltitudeMeters>489.399993896484375</AltitudeMeters>
            <DistanceMeters>NAN</DistanceMeters>
          </Trackpoint>
          <Trackpoint>
            <Time>2021-08-14T12:06:10.000Z</Time>
            <Position>
              <LatitudeDegrees>42.9514757730066776275634765625</LatitudeDegrees>
              <LongitudeDegrees>-1.8261640705168247222900390625</LongitudeDegrees>
            </Position>
            <AltitudeMeters>489.399993896484375</AltitudeMeters>
            <DistanceMeters>NAN</DistanceMeters>
          </Trackpoint>
          <Trackpoint>
            <Time>2021-08-14T12:06:13.000Z</Time>
            <Position>
              <LatitudeDegrees>42.95142556540668010711669921875</LatitudeDegrees>
              <LongitudeDegrees>-1.8262757174670696258544921875</LongitudeDegrees>
            </Position>
            <AltitudeMeters>489.600006103515625</AltitudeMeters>
            <DistanceMeters>NAN</DistanceMeters>
          </Trackpoint>
          <Trackpoint>
            <Time>2021-08-14T12:06:15.000Z</Time>
            <Position>
              <LatitudeDegrees>42.95139924623072147369384765625</LatitudeDegrees>
              <LongitudeDegrees>-1.82633019983768463134765625</LongitudeDegrees>
            </Position>
            <AltitudeMeters>489.600006103515625</AltitudeMeters>
            <DistanceMeters>NAN</DistanceMeters>
          </Trackpoint>
          <Trackpoint>
            <Time>2021-08-14T12:06:17.000Z</Time>
            <Position>
              <LatitudeDegrees>42.9513295926153659820556640625</LatitudeDegrees>
              <LongitudeDegrees>-1.82635165750980377197265625</LongitudeDegrees>
            </Position>
            <AltitudeMeters>489.600006103515625</AltitudeMeters>
            <DistanceMeters>NAN</DistanceMeters>
          </Trackpoint>
          <Trackpoint>
            <Time>2021-08-14T12:06:23.000Z</Time>
            <Position>
              <LatitudeDegrees>42.9510845057666301727294921875</LatitudeDegrees>
              <LongitudeDegrees>-1.8264031223952770233154296875</LongitudeDegrees>
            </Position>
            <AltitudeMeters>489.399993896484375</AltitudeMeters>
            <DistanceMeters>NAN</DistanceMeters>
          </Trackpoint>
          <Trackpoint>
            <Time>2021-08-14T12:06:24.000Z</Time>
            <Position>
              <LatitudeDegrees>42.95105315744876861572265625</LatitudeDegrees>
              <LongitudeDegrees>-1.82640957646071910858154296875</LongitudeDegrees>
            </Position>
            <AltitudeMeters>489.20001220703125</AltitudeMeters>
            <DistanceMeters>NAN</DistanceMeters>
          </Trackpoint>
          <Trackpoint>
            <Time>2021-08-14T12:06:26.000Z</Time>
            <Position>
              <LatitudeDegrees>42.95097227208316326141357421875</LatitudeDegrees>
              <LongitudeDegrees>-1.826437823474407196044921875</LongitudeDegrees>
            </Position>
            <AltitudeMeters>489</AltitudeMeters>
            <DistanceMeters>NAN</DistanceMeters>
          </Trackpoint>
          <Trackpoint>
            <Time>2021-08-14T12:06:29.000Z</Time>
            <Position>
              <LatitudeDegrees>42.95085676945745944976806640625</LatitudeDegrees>
              <LongitudeDegrees>-1.82651736773550510406494140625</LongitudeDegrees>
            </Position>
            <AltitudeMeters>488.399993896484375</AltitudeMeters>
            <DistanceMeters>NAN</DistanceMeters>
          </Trackpoint>
          <Trackpoint>
            <Time>2021-08-14T12:06:33.000Z</Time>
            <Position>
              <LatitudeDegrees>42.95072995126247406005859375</LatitudeDegrees>
              <LongitudeDegrees>-1.82661610655486583709716796875</LongitudeDegrees>
            </Position>
            <AltitudeMeters>487.20001220703125</AltitudeMeters>
            <DistanceMeters>NAN</DistanceMeters>
          </Trackpoint>
          <Trackpoint>
            <Time>2021-08-14T12:06:34.000Z</Time>
            <Position>
              <LatitudeDegrees>42.9507079906761646270751953125</LatitudeDegrees>
              <LongitudeDegrees>-1.82664133608341217041015625</LongitudeDegrees>
            </Position>
            <AltitudeMeters>486.79998779296875</AltitudeMeters>
            <DistanceMeters>NAN</DistanceMeters>
          </Trackpoint>
          <Trackpoint>
            <Time>2021-08-14T12:06:35.000Z</Time>
            <Position>
              <LatitudeDegrees>42.950690723955631256103515625</LatitudeDegrees>
              <LongitudeDegrees>-1.82666488923132419586181640625</LongitudeDegrees>
            </Position>
            <AltitudeMeters>486.20001220703125</AltitudeMeters>
            <DistanceMeters>NAN</DistanceMeters>
          </Trackpoint>
          <Trackpoint>
            <Time>2021-08-14T12:06:36.000Z</Time>
            <Position>
              <LatitudeDegrees>42.9506742954254150390625</LatitudeDegrees>
              <LongitudeDegrees>-1.82668483816087245941162109375</LongitudeDegrees>
            </Position>
            <AltitudeMeters>485.79998779296875</AltitudeMeters>
            <DistanceMeters>NAN</DistanceMeters>
          </Trackpoint>
          <Trackpoint>
            <Time>2021-08-14T12:06:37.000Z</Time>
            <Position>
              <LatitudeDegrees>42.95065828599035739898681640625</LatitudeDegrees>
              <LongitudeDegrees>-1.82669959031045436859130859375</LongitudeDegrees>
            </Position>
            <AltitudeMeters>485.600006103515625</AltitudeMeters>
            <DistanceMeters>NAN</DistanceMeters>
          </Trackpoint>
          <Trackpoint>
            <Time>2021-08-14T12:06:38.000Z</Time>
            <Position>
              <LatitudeDegrees>42.95063716359436511993408203125</LatitudeDegrees>
              <LongitudeDegrees>-1.826712079346179962158203125</LongitudeDegrees>
            </Position>
            <AltitudeMeters>485.399993896484375</AltitudeMeters>
            <DistanceMeters>NAN</DistanceMeters>
          </Trackpoint>
          <Trackpoint>
            <Time>2021-08-14T12:06:39.000Z</Time>
            <Position>
              <LatitudeDegrees>42.95061872340738773345947265625</LatitudeDegrees>
              <LongitudeDegrees>-1.82671249844133853912353515625</LongitudeDegrees>
            </Position>
            <AltitudeMeters>485.20001220703125</AltitudeMeters>
            <DistanceMeters>NAN</DistanceMeters>
          </Trackpoint>
          <Trackpoint>
            <Time>2021-08-14T12:06:41.000Z</Time>
            <Position>
              <LatitudeDegrees>42.95058469288051128387451171875</LatitudeDegrees>
              <LongitudeDegrees>-1.82667897082865238189697265625</LongitudeDegrees>
            </Position>
            <AltitudeMeters>485</AltitudeMeters>
            <DistanceMeters>NAN</DistanceMeters>
          </Trackpoint>
          <Trackpoint>
            <Time>2021-08-14T12:06:42.000Z</Time>
            <Position>
              <LatitudeDegrees>42.95057170093059539794921875</LatitudeDegrees>
              <LongitudeDegrees>-1.82666136883199214935302734375</LongitudeDegrees>
            </Position>
            <AltitudeMeters>484.79998779296875</AltitudeMeters>
            <DistanceMeters>NAN</DistanceMeters>
          </Trackpoint>
          <Trackpoint>
            <Time>2021-08-14T12:06:43.000Z</Time>
            <Position>
              <LatitudeDegrees>42.9505608044564723968505859375</LatitudeDegrees>
              <LongitudeDegrees>-1.82664410211145877838134765625</LongitudeDegrees>
            </Position>
            <AltitudeMeters>484.600006103515625</AltitudeMeters>
            <DistanceMeters>NAN</DistanceMeters>
          </Trackpoint>
          <Trackpoint>
            <Time>2021-08-14T12:06:44.000Z</Time>
            <Position>
              <LatitudeDegrees>42.95054395683109760284423828125</LatitudeDegrees>
              <LongitudeDegrees>-1.826630271971225738525390625</LongitudeDegrees>
            </Position>
            <AltitudeMeters>484.600006103515625</AltitudeMeters>
            <DistanceMeters>NAN</DistanceMeters>
          </Trackpoint>
          <Trackpoint>
            <Time>2021-08-14T12:06:45.000Z</Time>
            <Position>
              <LatitudeDegrees>42.95051948167383670806884765625</LatitudeDegrees>
              <LongitudeDegrees>-1.82662582956254482269287109375</LongitudeDegrees>
            </Position>
            <AltitudeMeters>484.399993896484375</AltitudeMeters>
            <DistanceMeters>NAN</DistanceMeters>
          </Trackpoint>
          <Trackpoint>
            <Time>2021-08-14T12:06:46.000Z</Time>
            <Position>
              <LatitudeDegrees>42.95049383305013179779052734375</LatitudeDegrees>
              <LongitudeDegrees>-1.82661744765937328338623046875</LongitudeDegrees>
            </Position>
            <AltitudeMeters>484.399993896484375</AltitudeMeters>
            <DistanceMeters>NAN</DistanceMeters>
          </Trackpoint>
          <Trackpoint>
            <Time>2021-08-14T12:06:47.000Z</Time>
            <Position>
              <LatitudeDegrees>42.9504662565886974334716796875</LatitudeDegrees>
              <LongitudeDegrees>-1.8266341276466846466064453125</LongitudeDegrees>
            </Position>
            <AltitudeMeters>484.399993896484375</AltitudeMeters>
            <DistanceMeters>NAN</DistanceMeters>
          </Trackpoint>
          <Trackpoint>
            <Time>2021-08-14T12:06:48.000Z</Time>
            <Position>
              <LatitudeDegrees>42.95044018886983394622802734375</LatitudeDegrees>
              <LongitudeDegrees>-1.8266535736620426177978515625</LongitudeDegrees>
            </Position>
            <AltitudeMeters>484.399993896484375</AltitudeMeters>
            <DistanceMeters>NAN</DistanceMeters>
          </Trackpoint>
          <Trackpoint>
            <Time>2021-08-14T12:06:49.000Z</Time>
            <Position>
              <LatitudeDegrees>42.950417809188365936279296875</LatitudeDegrees>
              <LongitudeDegrees>-1.82667327113449573516845703125</LongitudeDegrees>
            </Position>
            <AltitudeMeters>484.20001220703125</AltitudeMeters>
            <DistanceMeters>NAN</DistanceMeters>
          </Trackpoint>
          <Trackpoint>
            <Time>2021-08-14T12:06:50.000Z</Time>
            <Position>
              <LatitudeDegrees>42.9503935016691684722900390625</LatitudeDegrees>
              <LongitudeDegrees>-1.8266934715211391448974609375</LongitudeDegrees>
            </Position>
            <AltitudeMeters>484.20001220703125</AltitudeMeters>
            <DistanceMeters>NAN</DistanceMeters>
          </Trackpoint>
          <Trackpoint>
            <Time>2021-08-14T12:06:51.000Z</Time>
            <Position>
              <LatitudeDegrees>42.95036944560706615447998046875</LatitudeDegrees>
              <LongitudeDegrees>-1.82672046124935150146484375</LongitudeDegrees>
            </Position>
            <AltitudeMeters>484.20001220703125</AltitudeMeters>
            <DistanceMeters>NAN</DistanceMeters>
          </Trackpoint>
          <Trackpoint>
            <Time>2021-08-14T12:06:55.000Z</Time>
            <Position>
              <LatitudeDegrees>42.95026903040707111358642578125</LatitudeDegrees>
              <LongitudeDegrees>-1.82683973573148250579833984375</LongitudeDegrees>
            </Position>
            <AltitudeMeters>484.20001220703125</AltitudeMeters>
            <DistanceMeters>NAN</DistanceMeters>
          </Trackpoint>
          <Trackpoint>
            <Time>2021-08-14T12:06:56.000Z</Time>
            <Position>
              <LatitudeDegrees>42.95023533515632152557373046875</LatitudeDegrees>
              <LongitudeDegrees>-1.82688030414283275604248046875</LongitudeDegrees>
            </Position>
            <AltitudeMeters>484.20001220703125</AltitudeMeters>
            <DistanceMeters>NAN</DistanceMeters>
          </Trackpoint>
          <Trackpoint>
            <Time>2021-08-14T12:07:03.000Z</Time>
            <Position>
              <LatitudeDegrees>42.9500453174114227294921875</LatitudeDegrees>
              <LongitudeDegrees>-1.8271021731197834014892578125</LongitudeDegrees>
            </Position>
            <AltitudeMeters>484</AltitudeMeters>
            <DistanceMeters>NAN</DistanceMeters>
          </Trackpoint>
          <Trackpoint>
            <Time>2021-08-14T12:07:04.000Z</Time>
            <Position>
              <LatitudeDegrees>42.95001983642578125</LatitudeDegrees>
              <LongitudeDegrees>-1.82713075540959835052490234375</LongitudeDegrees>
            </Position>
            <AltitudeMeters>484</AltitudeMeters>
            <DistanceMeters>NAN</DistanceMeters>
          </Trackpoint>
          <Trackpoint>
            <Time>2021-08-14T12:07:08.000Z</Time>
            <Position>
              <LatitudeDegrees>42.949911542236804962158203125</LatitudeDegrees>
              <LongitudeDegrees>-1.82724424637854099273681640625</LongitudeDegrees>
            </Position>
            <AltitudeMeters>484</AltitudeMeters>
            <DistanceMeters>NAN</DistanceMeters>
          </Trackpoint>
          <Trackpoint>
            <Time>2021-08-14T12:07:11.000Z</Time>
            <Position>
              <LatitudeDegrees>42.94981800019741058349609375</LatitudeDegrees>
              <LongitudeDegrees>-1.82733074761927127838134765625</LongitudeDegrees>
            </Position>
            <AltitudeMeters>484</AltitudeMeters>
            <DistanceMeters>NAN</DistanceMeters>
          </Trackpoint>
          <Trackpoint>
            <Time>2021-08-14T12:07:15.000Z</Time>
            <Position>
              <LatitudeDegrees>42.9496984742581844329833984375</LatitudeDegrees>
              <LongitudeDegrees>-1.827441640198230743408203125</LongitudeDegrees>
            </Position>
            <AltitudeMeters>484</AltitudeMeters>
            <DistanceMeters>NAN</DistanceMeters>
          </Trackpoint>
          <Trackpoint>
            <Time>2021-08-14T12:07:21.000Z</Time>
            <Position>
              <LatitudeDegrees>42.9494895972311496734619140625</LatitudeDegrees>
              <LongitudeDegrees>-1.82759360410273075103759765625</LongitudeDegrees>
            </Position>
            <AltitudeMeters>483.79998779296875</AltitudeMeters>
            <DistanceMeters>NAN</DistanceMeters>
          </Trackpoint>
          <Trackpoint>
            <Time>2021-08-14T12:07:23.000Z</Time>
            <Position>
              <LatitudeDegrees>42.94941969215869903564453125</LatitudeDegrees>
              <LongitudeDegrees>-1.82764758355915546417236328125</LongitudeDegrees>
            </Position>
            <AltitudeMeters>483.600006103515625</AltitudeMeters>
            <DistanceMeters>NAN</DistanceMeters>
          </Trackpoint>
          <Trackpoint>
            <Time>2021-08-14T12:07:29.000Z</Time>
            <Position>
              <LatitudeDegrees>42.9492012597620487213134765625</LatitudeDegrees>
              <LongitudeDegrees>-1.82778571732342243194580078125</LongitudeDegrees>
            </Position>
            <AltitudeMeters>482.600006103515625</AltitudeMeters>
            <DistanceMeters>NAN</DistanceMeters>
          </Trackpoint>
          <Trackpoint>
            <Time>2021-08-14T12:07:32.000Z</Time>
            <Position>
              <LatitudeDegrees>42.94908039271831512451171875</LatitudeDegrees>
              <LongitudeDegrees>-1.827840618789196014404296875</LongitudeDegrees>
            </Position>
            <AltitudeMeters>482.20001220703125</AltitudeMeters>
            <DistanceMeters>NAN</DistanceMeters>
          </Trackpoint>
          <Trackpoint>
            <Time>2021-08-14T12:07:39.000Z</Time>
            <Position>
              <LatitudeDegrees>42.94880638830363750457763671875</LatitudeDegrees>
              <LongitudeDegrees>-1.8279899843037128448486328125</LongitudeDegrees>
            </Position>
            <AltitudeMeters>481.79998779296875</AltitudeMeters>
            <DistanceMeters>NAN</DistanceMeters>
          </Trackpoint>
          <Trackpoint>
            <Time>2021-08-14T12:07:40.000Z</Time>
            <Position>
              <LatitudeDegrees>42.94876146130263805389404296875</LatitudeDegrees>
              <LongitudeDegrees>-1.82800523936748504638671875</LongitudeDegrees>
            </Position>
            <AltitudeMeters>481.79998779296875</AltitudeMeters>
            <DistanceMeters>NAN</DistanceMeters>
          </Trackpoint>
          <Trackpoint>
            <Time>2021-08-14T12:07:41.000Z</Time>
            <Position>
              <LatitudeDegrees>42.9487295262515544891357421875</LatitudeDegrees>
              <LongitudeDegrees>-1.8280245177447795867919921875</LongitudeDegrees>
            </Position>
            <AltitudeMeters>481.79998779296875</AltitudeMeters>
            <DistanceMeters>NAN</DistanceMeters>
          </Trackpoint>
          <Trackpoint>
            <Time>2021-08-14T12:07:42.000Z</Time>
            <Position>
              <LatitudeDegrees>42.9486966691911220550537109375</LatitudeDegrees>
              <LongitudeDegrees>-1.8280409462749958038330078125</LongitudeDegrees>
            </Position>
            <AltitudeMeters>481.600006103515625</AltitudeMeters>
            <DistanceMeters>NAN</DistanceMeters>
          </Trackpoint>
          <Trackpoint>
            <Time>2021-08-14T12:07:43.000Z</Time>
            <Position>
              <LatitudeDegrees>42.9486661590635776519775390625</LatitudeDegrees>
              <LongitudeDegrees>-1.82806022465229034423828125</LongitudeDegrees>
            </Position>
            <AltitudeMeters>481.600006103515625</AltitudeMeters>
            <DistanceMeters>NAN</DistanceMeters>
          </Trackpoint>
          <Trackpoint>
            <Time>2021-08-14T12:07:44.000Z</Time>
            <Position>
              <LatitudeDegrees>42.94863875024020671844482421875</LatitudeDegrees>
              <LongitudeDegrees>-1.82808226905763149261474609375</LongitudeDegrees>
            </Position>
            <AltitudeMeters>481.600006103515625</AltitudeMeters>
            <DistanceMeters>NAN</DistanceMeters>
          </Trackpoint>
          <Trackpoint>
            <Time>2021-08-14T12:07:45.000Z</Time>
            <Position>
              <LatitudeDegrees>42.94861578382551670074462890625</LatitudeDegrees>
              <LongitudeDegrees>-1.8280949257314205169677734375</LongitudeDegrees>
            </Position>
            <AltitudeMeters>481.600006103515625</AltitudeMeters>
            <DistanceMeters>NAN</DistanceMeters>
          </Trackpoint>
          <Trackpoint>
            <Time>2021-08-14T12:07:46.000Z</Time>
            <Position>
              <LatitudeDegrees>42.94858192093670368194580078125</LatitudeDegrees>
              <LongitudeDegrees>-1.82811328209936618804931640625</LongitudeDegrees>
            </Position>
            <AltitudeMeters>481.600006103515625</AltitudeMeters>
            <DistanceMeters>NAN</DistanceMeters>
          </Trackpoint>
          <Trackpoint>
            <Time>2021-08-14T12:07:47.000Z</Time>
            <Position>
              <LatitudeDegrees>42.9485575295984745025634765625</LatitudeDegrees>
              <LongitudeDegrees>-1.8281251005828380584716796875</LongitudeDegrees>
            </Position>
            <AltitudeMeters>481.600006103515625</AltitudeMeters>
            <DistanceMeters>NAN</DistanceMeters>
          </Trackpoint>
          <Trackpoint>
            <Time>2021-08-14T12:07:48.000Z</Time>
            <Position>
              <LatitudeDegrees>42.94853514991700649261474609375</LatitudeDegrees>
              <LongitudeDegrees>-1.8281354941427707672119140625</LongitudeDegrees>
            </Position>
            <AltitudeMeters>481.600006103515625</AltitudeMeters>
            <DistanceMeters>NAN</DistanceMeters>
          </Trackpoint>
          <Trackpoint>
            <Time>2021-08-14T12:07:49.000Z</Time>
            <Position>
              <LatitudeDegrees>42.94850883074104785919189453125</LatitudeDegrees>
              <LongitudeDegrees>-1.82814597152173519134521484375</LongitudeDegrees>
            </Position>
            <AltitudeMeters>481.600006103515625</AltitudeMeters>
            <DistanceMeters>NAN</DistanceMeters>
          </Trackpoint>
          <Trackpoint>
            <Time>2021-08-14T12:07:52.000Z</Time>
            <Position>
              <LatitudeDegrees>42.94841763563454151153564453125</LatitudeDegrees>
              <LongitudeDegrees>-1.82818369008600711822509765625</LongitudeDegrees>
            </Position>
            <AltitudeMeters>481.600006103515625</AltitudeMeters>
            <DistanceMeters>NAN</DistanceMeters>
          </Trackpoint>
          <Trackpoint>
            <Time>2021-08-14T12:07:59.000Z</Time>
            <Position>
              <LatitudeDegrees>42.94816852547228336334228515625</LatitudeDegrees>
              <LongitudeDegrees>-1.82827387936413288116455078125</LongitudeDegrees>
            </Position>
            <AltitudeMeters>481.79998779296875</AltitudeMeters>
            <DistanceMeters>NAN</DistanceMeters>
          </Trackpoint>
          <Trackpoint>
            <Time>2021-08-14T12:08:04.000Z</Time>
            <Position>
              <LatitudeDegrees>42.94798261485993862152099609375</LatitudeDegrees>
              <LongitudeDegrees>-1.82833724655210971832275390625</LongitudeDegrees>
            </Position>
            <AltitudeMeters>482</AltitudeMeters>
            <DistanceMeters>NAN</DistanceMeters>
          </Trackpoint>
          <Trackpoint>
            <Time>2021-08-14T12:08:12.000Z</Time>
            <Position>
              <LatitudeDegrees>42.94768203981220722198486328125</LatitudeDegrees>
              <LongitudeDegrees>-1.8284442834556102752685546875</LongitudeDegrees>
            </Position>
            <AltitudeMeters>481.399993896484375</AltitudeMeters>
            <DistanceMeters>NAN</DistanceMeters>
          </Trackpoint>
          <Trackpoint>
            <Time>2021-08-14T12:08:13.000Z</Time>
            <Position>
              <LatitudeDegrees>42.94764029793441295623779296875</LatitudeDegrees>
              <LongitudeDegrees>-1.82845710776746273040771484375</LongitudeDegrees>
            </Position>
            <AltitudeMeters>481.399993896484375</AltitudeMeters>
            <DistanceMeters>NAN</DistanceMeters>
          </Trackpoint>
          <Trackpoint>
            <Time>2021-08-14T12:08:16.000Z</Time>
            <Position>
              <LatitudeDegrees>42.947508953511714935302734375</LatitudeDegrees>
              <LongitudeDegrees>-1.828508488833904266357421875</LongitudeDegrees>
            </Position>
            <AltitudeMeters>481.20001220703125</AltitudeMeters>
            <DistanceMeters>NAN</DistanceMeters>
          </Trackpoint>
          <Trackpoint>
            <Time>2021-08-14T12:08:20.000Z</Time>
            <Position>
              <LatitudeDegrees>42.94733603484928607940673828125</LatitudeDegrees>
              <LongitudeDegrees>-1.82857495732605457305908203125</LongitudeDegrees>
            </Position>
            <AltitudeMeters>481</AltitudeMeters>
            <DistanceMeters>NAN</DistanceMeters>
          </Trackpoint>
          <Trackpoint>
            <Time>2021-08-14T12:08:25.000Z</Time>
            <Position>
              <LatitudeDegrees>42.9471404850482940673828125</LatitudeDegrees>
              <LongitudeDegrees>-1.82865701615810394287109375</LongitudeDegrees>
            </Position>
            <AltitudeMeters>480.399993896484375</AltitudeMeters>
            <DistanceMeters>NAN</DistanceMeters>
          </Trackpoint>
          <Trackpoint>
            <Time>2021-08-14T12:08:26.000Z</Time>
            <Position>
              <LatitudeDegrees>42.9471077956259250640869140625</LatitudeDegrees>
              <LongitudeDegrees>-1.8286712653934955596923828125</LongitudeDegrees>
            </Position>
            <AltitudeMeters>480.399993896484375</AltitudeMeters>
            <DistanceMeters>NAN</DistanceMeters>
          </Trackpoint>
          <Trackpoint>
            <Time>2021-08-14T12:08:27.000Z</Time>
            <Position>
              <LatitudeDegrees>42.94706873595714569091796875</LatitudeDegrees>
              <LongitudeDegrees>-1.82868425734341144561767578125</LongitudeDegrees>
            </Position>
            <AltitudeMeters>480.399993896484375</AltitudeMeters>
            <DistanceMeters>NAN</DistanceMeters>
          </Trackpoint>
          <Trackpoint>
            <Time>2021-08-14T12:08:28.000Z</Time>
            <Position>
              <LatitudeDegrees>42.94702724553644657135009765625</LatitudeDegrees>
              <LongitudeDegrees>-1.8286900408565998077392578125</LongitudeDegrees>
            </Position>
            <AltitudeMeters>480.399993896484375</AltitudeMeters>
            <DistanceMeters>NAN</DistanceMeters>
          </Trackpoint>
          <Trackpoint>
            <Time>2021-08-14T12:08:30.000Z</Time>
            <Position>
              <LatitudeDegrees>42.946957759559154510498046875</LatitudeDegrees>
              <LongitudeDegrees>-1.828724406659603118896484375</LongitudeDegrees>
            </Position>
            <AltitudeMeters>480.20001220703125</AltitudeMeters>
            <DistanceMeters>NAN</DistanceMeters>
          </Trackpoint>
          <Trackpoint>
            <Time>2021-08-14T12:08:31.000Z</Time>
            <Position>
              <LatitudeDegrees>42.9469203762710094451904296875</LatitudeDegrees>
              <LongitudeDegrees>-1.82874242775142192840576171875</LongitudeDegrees>
            </Position>
            <AltitudeMeters>480</AltitudeMeters>
            <DistanceMeters>NAN</DistanceMeters>
          </Trackpoint>
          <Trackpoint>
            <Time>2021-08-14T12:08:32.000Z</Time>
            <Position>
              <LatitudeDegrees>42.94688508845865726470947265625</LatitudeDegrees>
              <LongitudeDegrees>-1.82875617407262325286865234375</LongitudeDegrees>
            </Position>
            <AltitudeMeters>480</AltitudeMeters>
            <DistanceMeters>NAN</DistanceMeters>
          </Trackpoint>
          <Trackpoint>
            <Time>2021-08-14T12:08:36.000Z</Time>
            <Position>
              <LatitudeDegrees>42.9467664845287799835205078125</LatitudeDegrees>
              <LongitudeDegrees>-1.82880713604390621185302734375</LongitudeDegrees>
            </Position>
            <AltitudeMeters>479.79998779296875</AltitudeMeters>
            <DistanceMeters>NAN</DistanceMeters>
          </Trackpoint>
          <Trackpoint>
            <Time>2021-08-14T12:08:37.000Z</Time>
            <Position>
              <LatitudeDegrees>42.946737147867679595947265625</LatitudeDegrees>
              <LongitudeDegrees>-1.82881820015609264373779296875</LongitudeDegrees>
            </Position>
            <AltitudeMeters>479.79998779296875</AltitudeMeters>
            <DistanceMeters>NAN</DistanceMeters>
          </Trackpoint>
          <Trackpoint>
            <Time>2021-08-14T12:08:38.000Z</Time>
            <Position>
              <LatitudeDegrees>42.94670906849205493927001953125</LatitudeDegrees>
              <LongitudeDegrees>-1.82882255874574184417724609375</LongitudeDegrees>
            </Position>
            <AltitudeMeters>479.79998779296875</AltitudeMeters>
            <DistanceMeters>NAN</DistanceMeters>
          </Trackpoint>
          <Trackpoint>
            <Time>2021-08-14T12:08:40.000Z</Time>
            <Position>
              <LatitudeDegrees>42.94665173627436161041259765625</LatitudeDegrees>
              <LongitudeDegrees>-1.828845106065273284912109375</LongitudeDegrees>
            </Position>
            <AltitudeMeters>479.600006103515625</AltitudeMeters>
            <DistanceMeters>NAN</DistanceMeters>
          </Trackpoint>
          <Trackpoint>
            <Time>2021-08-14T12:08:41.000Z</Time>
            <Position>
              <LatitudeDegrees>42.94662809930741786956787109375</LatitudeDegrees>
              <LongitudeDegrees>-1.82885206304490566253662109375</LongitudeDegrees>
            </Position>
            <AltitudeMeters>479.600006103515625</AltitudeMeters>
            <DistanceMeters>NAN</DistanceMeters>
          </Trackpoint>
          <Trackpoint>
            <Time>2021-08-14T12:08:42.000Z</Time>
            <Position>
              <LatitudeDegrees>42.94660312123596668243408203125</LatitudeDegrees>
              <LongitudeDegrees>-1.82885709218680858612060546875</LongitudeDegrees>
            </Position>
            <AltitudeMeters>479.600006103515625</AltitudeMeters>
            <DistanceMeters>NAN</DistanceMeters>
          </Trackpoint>
          <Trackpoint>
            <Time>2021-08-14T12:08:43.000Z</Time>
            <Position>
              <LatitudeDegrees>42.94658384285867214202880859375</LatitudeDegrees>
              <LongitudeDegrees>-1.8288680724799633026123046875</LongitudeDegrees>
            </Position>
            <AltitudeMeters>479.600006103515625</AltitudeMeters>
            <DistanceMeters>NAN</DistanceMeters>
          </Trackpoint>
          <Trackpoint>
            <Time>2021-08-14T12:08:44.000Z</Time>
            <Position>
              <LatitudeDegrees>42.9465559311211109161376953125</LatitudeDegrees>
              <LongitudeDegrees>-1.82888207025825977325439453125</LongitudeDegrees>
            </Position>
            <AltitudeMeters>479.600006103515625</AltitudeMeters>
            <DistanceMeters>NAN</DistanceMeters>
          </Trackpoint>
          <Trackpoint>
            <Time>2021-08-14T12:08:49.000Z</Time>
            <Position>
              <LatitudeDegrees>42.94637479819357395172119140625</LatitudeDegrees>
              <LongitudeDegrees>-1.82893604971468448638916015625</LongitudeDegrees>
            </Position>
            <AltitudeMeters>479.79998779296875</AltitudeMeters>
            <DistanceMeters>NAN</DistanceMeters>
          </Trackpoint>
          <Trackpoint>
            <Time>2021-08-14T12:08:57.000Z</Time>
            <Position>
              <LatitudeDegrees>42.946067266166210174560546875</LatitudeDegrees>
              <LongitudeDegrees>-1.82900042273104190826416015625</LongitudeDegrees>
            </Position>
            <AltitudeMeters>479.20001220703125</AltitudeMeters>
            <DistanceMeters>NAN</DistanceMeters>
          </Trackpoint>
          <Trackpoint>
            <Time>2021-08-14T12:09:05.000Z</Time>
            <Position>
              <LatitudeDegrees>42.94575168751180171966552734375</LatitudeDegrees>
              <LongitudeDegrees>-1.8291041068732738494873046875</LongitudeDegrees>
            </Position>
            <AltitudeMeters>479</AltitudeMeters>
            <DistanceMeters>NAN</DistanceMeters>
          </Trackpoint>
          <Trackpoint>
            <Time>2021-08-14T12:09:12.000Z</Time>
            <Position>
              <LatitudeDegrees>42.9455018229782581329345703125</LatitudeDegrees>
              <LongitudeDegrees>-1.8291641212999820709228515625</LongitudeDegrees>
            </Position>
            <AltitudeMeters>479.20001220703125</AltitudeMeters>
            <DistanceMeters>NAN</DistanceMeters>
          </Trackpoint>
          <Trackpoint>
            <Time>2021-08-14T12:09:15.000Z</Time>
            <Position>
              <LatitudeDegrees>42.94539369642734527587890625</LatitudeDegrees>
              <LongitudeDegrees>-1.82919823564589023590087890625</LongitudeDegrees>
            </Position>
            <AltitudeMeters>479.20001220703125</AltitudeMeters>
            <DistanceMeters>NAN</DistanceMeters>
          </Trackpoint>
          <Trackpoint>
            <Time>2021-08-14T12:09:24.000Z</Time>
            <Position>
              <LatitudeDegrees>42.94504995457828044891357421875</LatitudeDegrees>
              <LongitudeDegrees>-1.82931994087994098663330078125</LongitudeDegrees>
            </Position>
            <AltitudeMeters>479.399993896484375</AltitudeMeters>
            <DistanceMeters>NAN</DistanceMeters>
          </Trackpoint>
          <Trackpoint>
            <Time>2021-08-14T12:09:31.000Z</Time>
            <Position>
              <LatitudeDegrees>42.9447826556861400604248046875</LatitudeDegrees>
              <LongitudeDegrees>-1.8293897621333599090576171875</LongitudeDegrees>
            </Position>
            <AltitudeMeters>479.600006103515625</AltitudeMeters>
            <DistanceMeters>NAN</DistanceMeters>
          </Trackpoint>
          <Trackpoint>
            <Time>2021-08-14T12:09:35.000Z</Time>
            <Position>
              <LatitudeDegrees>42.94464024715125560760498046875</LatitudeDegrees>
              <LongitudeDegrees>-1.82937928475439548492431640625</LongitudeDegrees>
            </Position>
            <AltitudeMeters>479.399993896484375</AltitudeMeters>
            <DistanceMeters>NAN</DistanceMeters>
          </Trackpoint>
          <Trackpoint>
            <Time>2021-08-14T12:09:36.000Z</Time>
            <Position>
              <LatitudeDegrees>42.9446109943091869354248046875</LatitudeDegrees>
              <LongitudeDegrees>-1.82936620898544788360595703125</LongitudeDegrees>
            </Position>
            <AltitudeMeters>479.399993896484375</AltitudeMeters>
            <DistanceMeters>NAN</DistanceMeters>
          </Trackpoint>
          <Trackpoint>
            <Time>2021-08-14T12:09:37.000Z</Time>
            <Position>
              <LatitudeDegrees>42.94458442367613315582275390625</LatitudeDegrees>
              <LongitudeDegrees>-1.829352714121341705322265625</LongitudeDegrees>
            </Position>
            <AltitudeMeters>479.399993896484375</AltitudeMeters>
            <DistanceMeters>NAN</DistanceMeters>
          </Trackpoint>
          <Trackpoint>
            <Time>2021-08-14T12:09:38.000Z</Time>
            <Position>
              <LatitudeDegrees>42.94456363655626773834228515625</LatitudeDegrees>
              <LongitudeDegrees>-1.82934592477977275848388671875</LongitudeDegrees>
            </Position>
            <AltitudeMeters>479.399993896484375</AltitudeMeters>
            <DistanceMeters>NAN</DistanceMeters>
          </Trackpoint>
          <Trackpoint>
            <Time>2021-08-14T12:09:39.000Z</Time>
            <Position>
              <LatitudeDegrees>42.94453698210418224334716796875</LatitudeDegrees>
              <LongitudeDegrees>-1.82933167554438114166259765625</LongitudeDegrees>
            </Position>
            <AltitudeMeters>479.399993896484375</AltitudeMeters>
            <DistanceMeters>NAN</DistanceMeters>
          </Trackpoint>
          <Trackpoint>
            <Time>2021-08-14T12:09:40.000Z</Time>
            <Position>
              <LatitudeDegrees>42.94451569207012653350830078125</LatitudeDegrees>
              <LongitudeDegrees>-1.82932128198444843292236328125</LongitudeDegrees>
            </Position>
            <AltitudeMeters>479.20001220703125</AltitudeMeters>
            <DistanceMeters>NAN</DistanceMeters>
          </Trackpoint>
          <Trackpoint>
            <Time>2021-08-14T12:09:42.000Z</Time>
            <Position>
              <LatitudeDegrees>42.944470681250095367431640625</LatitudeDegrees>
              <LongitudeDegrees>-1.82931549847126007080078125</LongitudeDegrees>
            </Position>
            <AltitudeMeters>479.399993896484375</AltitudeMeters>
            <DistanceMeters>NAN</DistanceMeters>
          </Trackpoint>
          <Trackpoint>
            <Time>2021-08-14T12:09:45.000Z</Time>
            <Position>
              <LatitudeDegrees>42.9443907178938388824462890625</LatitudeDegrees>
              <LongitudeDegrees>-1.82930083014070987701416015625</LongitudeDegrees>
            </Position>
            <AltitudeMeters>479.399993896484375</AltitudeMeters>
            <DistanceMeters>NAN</DistanceMeters>
          </Trackpoint>
          <Trackpoint>
            <Time>2021-08-14T12:09:46.000Z</Time>
            <Position>
              <LatitudeDegrees>42.94436330907046794891357421875</LatitudeDegrees>
              <LongitudeDegrees>-1.82929546572268009185791015625</LongitudeDegrees>
            </Position>
            <AltitudeMeters>479.600006103515625</AltitudeMeters>
            <DistanceMeters>NAN</DistanceMeters>
          </Trackpoint>
          <Trackpoint>
            <Time>2021-08-14T12:09:48.000Z</Time>
            <Position>
              <LatitudeDegrees>42.944309748709201812744140625</LatitudeDegrees>
              <LongitudeDegrees>-1.82929513044655323028564453125</LongitudeDegrees>
            </Position>
            <AltitudeMeters>479.600006103515625</AltitudeMeters>
            <DistanceMeters>NAN</DistanceMeters>
          </Trackpoint>
          <Trackpoint>
            <Time>2021-08-14T12:09:50.000Z</Time>
            <Position>
              <LatitudeDegrees>42.9442344792187213897705078125</LatitudeDegrees>
              <LongitudeDegrees>-1.82927124202251434326171875</LongitudeDegrees>
            </Position>
            <AltitudeMeters>479.600006103515625</AltitudeMeters>
            <DistanceMeters>NAN</DistanceMeters>
          </Trackpoint>
          <Trackpoint>
            <Time>2021-08-14T12:09:51.000Z</Time>
            <Position>
              <LatitudeDegrees>42.94420354999601840972900390625</LatitudeDegrees>
              <LongitudeDegrees>-1.8292633630335330963134765625</LongitudeDegrees>
            </Position>
            <AltitudeMeters>479.600006103515625</AltitudeMeters>
            <DistanceMeters>NAN</DistanceMeters>
          </Trackpoint>
          <Trackpoint>
            <Time>2021-08-14T12:09:52.000Z</Time>
            <Position>
              <LatitudeDegrees>42.9441764764487743377685546875</LatitudeDegrees>
              <LongitudeDegrees>-1.82925439439713954925537109375</LongitudeDegrees>
            </Position>
            <AltitudeMeters>479.600006103515625</AltitudeMeters>
            <DistanceMeters>NAN</DistanceMeters>
          </Trackpoint>
          <Trackpoint>
            <Time>2021-08-14T12:09:53.000Z</Time>
            <Position>
              <LatitudeDegrees>42.9441520012915134429931640625</LatitudeDegrees>
              <LongitudeDegrees>-1.82925137691199779510498046875</LongitudeDegrees>
            </Position>
            <AltitudeMeters>479.600006103515625</AltitudeMeters>
            <DistanceMeters>NAN</DistanceMeters>
          </Trackpoint>
          <Trackpoint>
            <Time>2021-08-14T12:09:54.000Z</Time>
            <Position>
              <LatitudeDegrees>42.94412509538233280181884765625</LatitudeDegrees>
              <LongitudeDegrees>-1.8292573280632495880126953125</LongitudeDegrees>
            </Position>
            <AltitudeMeters>479.600006103515625</AltitudeMeters>
            <DistanceMeters>NAN</DistanceMeters>
          </Trackpoint>
          <Trackpoint>
            <Time>2021-08-14T12:09:56.000Z</Time>
            <Position>
              <LatitudeDegrees>42.9440510831773281097412109375</LatitudeDegrees>
              <LongitudeDegrees>-1.8292576633393764495849609375</LongitudeDegrees>
            </Position>
            <AltitudeMeters>479.600006103515625</AltitudeMeters>
            <DistanceMeters>NAN</DistanceMeters>
          </Trackpoint>
          <Trackpoint>
            <Time>2021-08-14T12:09:57.000Z</Time>
            <Position>
              <LatitudeDegrees>42.9440195672214031219482421875</LatitudeDegrees>
              <LongitudeDegrees>-1.8292357027530670166015625</LongitudeDegrees>
            </Position>
            <AltitudeMeters>479.600006103515625</AltitudeMeters>
            <DistanceMeters>NAN</DistanceMeters>
          </Trackpoint>
          <Trackpoint>
            <Time>2021-08-14T12:09:58.000Z</Time>
            <Position>
              <LatitudeDegrees>42.94398645870387554168701171875</LatitudeDegrees>
              <LongitudeDegrees>-1.82920821011066436767578125</LongitudeDegrees>
            </Position>
            <AltitudeMeters>479.79998779296875</AltitudeMeters>
            <DistanceMeters>NAN</DistanceMeters>
          </Trackpoint>
          <Trackpoint>
            <Time>2021-08-14T12:09:59.000Z</Time>
            <Position>
              <LatitudeDegrees>42.94395661912858486175537109375</LatitudeDegrees>
              <LongitudeDegrees>-1.82918432168662548065185546875</LongitudeDegrees>
            </Position>
            <AltitudeMeters>479.79998779296875</AltitudeMeters>
            <DistanceMeters>NAN</DistanceMeters>
          </Trackpoint>
          <Trackpoint>
            <Time>2021-08-14T12:10:00.000Z</Time>
            <Position>
              <LatitudeDegrees>42.9439072497189044952392578125</LatitudeDegrees>
              <LongitudeDegrees>-1.82914576493203639984130859375</LongitudeDegrees>
            </Position>
            <AltitudeMeters>479.79998779296875</AltitudeMeters>
            <DistanceMeters>NAN</DistanceMeters>
          </Trackpoint>
          <Trackpoint>
            <Time>2021-08-14T12:10:03.000Z</Time>
            <Position>
              <LatitudeDegrees>42.94378705322742462158203125</LatitudeDegrees>
              <LongitudeDegrees>-1.82901333086192607879638671875</LongitudeDegrees>
            </Position>
            <AltitudeMeters>479.79998779296875</AltitudeMeters>
            <DistanceMeters>NAN</DistanceMeters>
          </Trackpoint>
          <Trackpoint>
            <Time>2021-08-14T12:10:04.000Z</Time>
            <Position>
              <LatitudeDegrees>42.94375863857567310333251953125</LatitudeDegrees>
              <LongitudeDegrees>-1.82897561229765415191650390625</LongitudeDegrees>
            </Position>
            <AltitudeMeters>479.79998779296875</AltitudeMeters>
            <DistanceMeters>NAN</DistanceMeters>
          </Trackpoint>
          <Trackpoint>
            <Time>2021-08-14T12:10:05.000Z</Time>
            <Position>
              <LatitudeDegrees>42.94374271295964717864990234375</LatitudeDegrees>
              <LongitudeDegrees>-1.828941665589809417724609375</LongitudeDegrees>
            </Position>
            <AltitudeMeters>479.79998779296875</AltitudeMeters>
            <DistanceMeters>NAN</DistanceMeters>
          </Trackpoint>
          <Trackpoint>
            <Time>2021-08-14T12:10:06.000Z</Time>
            <Position>
              <LatitudeDegrees>42.9437359236180782318115234375</LatitudeDegrees>
              <LongitudeDegrees>-1.82891576550900936126708984375</LongitudeDegrees>
            </Position>
            <AltitudeMeters>479.79998779296875</AltitudeMeters>
            <DistanceMeters>NAN</DistanceMeters>
          </Trackpoint>
          <Trackpoint>
            <Time>2021-08-14T12:10:07.000Z</Time>
            <Position>
              <LatitudeDegrees>42.94372829608619213104248046875</LatitudeDegrees>
              <LongitudeDegrees>-1.82888190262019634246826171875</LongitudeDegrees>
            </Position>
            <AltitudeMeters>479.79998779296875</AltitudeMeters>
            <DistanceMeters>NAN</DistanceMeters>
          </Trackpoint>
          <Trackpoint>
            <Time>2021-08-14T12:10:12.000Z</Time>
            <Position>
              <LatitudeDegrees>42.943623773753643035888671875</LatitudeDegrees>
              <LongitudeDegrees>-1.82867067866027355194091796875</LongitudeDegrees>
            </Position>
            <AltitudeMeters>479.79998779296875</AltitudeMeters>
            <DistanceMeters>NAN</DistanceMeters>
          </Trackpoint>
          <Trackpoint>
            <Time>2021-08-14T12:10:15.000Z</Time>
            <Position>
              <LatitudeDegrees>42.9435525275766849517822265625</LatitudeDegrees>
              <LongitudeDegrees>-1.828498430550098419189453125</LongitudeDegrees>
            </Position>
            <AltitudeMeters>479.79998779296875</AltitudeMeters>
            <DistanceMeters>NAN</DistanceMeters>
          </Trackpoint>
          <Trackpoint>
            <Time>2021-08-14T12:10:16.000Z</Time>
            <Position>
              <LatitudeDegrees>42.94354104436933994293212890625</LatitudeDegrees>
              <LongitudeDegrees>-1.82843975722789764404296875</LongitudeDegrees>
            </Position>
            <AltitudeMeters>479.79998779296875</AltitudeMeters>
            <DistanceMeters>NAN</DistanceMeters>
          </Trackpoint>
          <Trackpoint>
            <Time>2021-08-14T12:10:17.000Z</Time>
            <Position>
              <LatitudeDegrees>42.94353886507451534271240234375</LatitudeDegrees>
              <LongitudeDegrees>-1.82838401757180690765380859375</LongitudeDegrees>
            </Position>
            <AltitudeMeters>479.79998779296875</AltitudeMeters>
            <DistanceMeters>NAN</DistanceMeters>
          </Trackpoint>
          <Trackpoint>
            <Time>2021-08-14T12:10:18.000Z</Time>
            <Position>
              <LatitudeDegrees>42.94352478347718715667724609375</LatitudeDegrees>
              <LongitudeDegrees>-1.828326769173145294189453125</LongitudeDegrees>
            </Position>
            <AltitudeMeters>479.79998779296875</AltitudeMeters>
            <DistanceMeters>NAN</DistanceMeters>
          </Trackpoint>
          <Trackpoint>
            <Time>2021-08-14T12:10:19.000Z</Time>
            <Position>
              <LatitudeDegrees>42.9435102827847003936767578125</LatitudeDegrees>
              <LongitudeDegrees>-1.82827522046864032745361328125</LongitudeDegrees>
            </Position>
            <AltitudeMeters>479.79998779296875</AltitudeMeters>
            <DistanceMeters>NAN</DistanceMeters>
          </Trackpoint>
          <Trackpoint>
            <Time>2021-08-14T12:10:24.000Z</Time>
            <Position>
              <LatitudeDegrees>42.94348170049488544464111328125</LatitudeDegrees>
              <LongitudeDegrees>-1.8280275352299213409423828125</LongitudeDegrees>
            </Position>
            <AltitudeMeters>479.79998779296875</AltitudeMeters>
            <DistanceMeters>NAN</DistanceMeters>
          </Trackpoint>
          <Trackpoint>
            <Time>2021-08-14T12:10:28.000Z</Time>
            <Position>
              <LatitudeDegrees>42.94347030110657215118408203125</LatitudeDegrees>
              <LongitudeDegrees>-1.82785595767199993133544921875</LongitudeDegrees>
            </Position>
            <AltitudeMeters>479.79998779296875</AltitudeMeters>
            <DistanceMeters>NAN</DistanceMeters>
          </Trackpoint>
          <Trackpoint>
            <Time>2021-08-14T12:10:29.000Z</Time>
            <Position>
              <LatitudeDegrees>42.94346921145915985107421875</LatitudeDegrees>
              <LongitudeDegrees>-1.8278142996132373809814453125</LongitudeDegrees>
            </Position>
            <AltitudeMeters>479.79998779296875</AltitudeMeters>
            <DistanceMeters>NAN</DistanceMeters>
          </Trackpoint>
          <Trackpoint>
            <Time>2021-08-14T12:10:30.000Z</Time>
            <Position>
              <LatitudeDegrees>42.94346661306917667388916015625</LatitudeDegrees>
              <LongitudeDegrees>-1.827767528593540191650390625</LongitudeDegrees>
            </Position>
            <AltitudeMeters>479.600006103515625</AltitudeMeters>
            <DistanceMeters>NAN</DistanceMeters>
          </Trackpoint>
          <Trackpoint>
            <Time>2021-08-14T12:10:31.000Z</Time>
            <Position>
              <LatitudeDegrees>42.94345286674797534942626953125</LatitudeDegrees>
              <LongitudeDegrees>-1.82772268541157245635986328125</LongitudeDegrees>
            </Position>
            <AltitudeMeters>479.399993896484375</AltitudeMeters>
            <DistanceMeters>NAN</DistanceMeters>
          </Trackpoint>
          <Trackpoint>
            <Time>2021-08-14T12:10:32.000Z</Time>
            <Position>
              <LatitudeDegrees>42.94344264082610607147216796875</LatitudeDegrees>
              <LongitudeDegrees>-1.82766987942159175872802734375</LongitudeDegrees>
            </Position>
            <AltitudeMeters>479.399993896484375</AltitudeMeters>
            <DistanceMeters>NAN</DistanceMeters>
          </Trackpoint>
          <Trackpoint>
            <Time>2021-08-14T12:10:33.000Z</Time>
            <Position>
              <LatitudeDegrees>42.94343945570290088653564453125</LatitudeDegrees>
              <LongitudeDegrees>-1.82761338539421558380126953125</LongitudeDegrees>
            </Position>
            <AltitudeMeters>479.399993896484375</AltitudeMeters>
            <DistanceMeters>NAN</DistanceMeters>
          </Trackpoint>
          <Trackpoint>
            <Time>2021-08-14T12:10:34.000Z</Time>
            <Position>
              <LatitudeDegrees>42.94342956505715847015380859375</LatitudeDegrees>
              <LongitudeDegrees>-1.82757449336349964141845703125</LongitudeDegrees>
            </Position>
            <AltitudeMeters>479.399993896484375</AltitudeMeters>
            <DistanceMeters>NAN</DistanceMeters>
          </Trackpoint>
          <Trackpoint>
            <Time>2021-08-14T12:10:35.000Z</Time>
            <Position>
              <LatitudeDegrees>42.94341816566884517669677734375</LatitudeDegrees>
              <LongitudeDegrees>-1.82752512395381927490234375</LongitudeDegrees>
            </Position>
            <AltitudeMeters>479.399993896484375</AltitudeMeters>
            <DistanceMeters>NAN</DistanceMeters>
          </Trackpoint>
          <Trackpoint>
            <Time>2021-08-14T12:10:36.000Z</Time>
            <Position>
              <LatitudeDegrees>42.9434036649763584136962890625</LatitudeDegrees>
              <LongitudeDegrees>-1.827477514743804931640625</LongitudeDegrees>
            </Position>
            <AltitudeMeters>479.399993896484375</AltitudeMeters>
            <DistanceMeters>NAN</DistanceMeters>
          </Trackpoint>
          <Trackpoint>
            <Time>2021-08-14T12:10:38.000Z</Time>
            <Position>
              <LatitudeDegrees>42.9433771781623363494873046875</LatitudeDegrees>
              <LongitudeDegrees>-1.82736561633646488189697265625</LongitudeDegrees>
            </Position>
            <AltitudeMeters>479.399993896484375</AltitudeMeters>
            <DistanceMeters>NAN</DistanceMeters>
          </Trackpoint>
          <Trackpoint>
            <Time>2021-08-14T12:10:40.000Z</Time>
            <Position>
              <LatitudeDegrees>42.9433470033109188079833984375</LatitudeDegrees>
              <LongitudeDegrees>-1.82724617421627044677734375</LongitudeDegrees>
            </Position>
            <AltitudeMeters>479.399993896484375</AltitudeMeters>
            <DistanceMeters>NAN</DistanceMeters>
          </Trackpoint>
          <Trackpoint>
            <Time>2021-08-14T12:10:41.000Z</Time>
            <Position>
              <LatitudeDegrees>42.943332754075527191162109375</LatitudeDegrees>
              <LongitudeDegrees>-1.8271994031965732574462890625</LongitudeDegrees>
            </Position>
            <AltitudeMeters>479.399993896484375</AltitudeMeters>
            <DistanceMeters>NAN</DistanceMeters>
          </Trackpoint>
          <Trackpoint>
            <Time>2021-08-14T12:10:42.000Z</Time>
            <Position>
              <LatitudeDegrees>42.94331766664981842041015625</LatitudeDegrees>
              <LongitudeDegrees>-1.8271561525762081146240234375</LongitudeDegrees>
            </Position>
            <AltitudeMeters>479.20001220703125</AltitudeMeters>
            <DistanceMeters>NAN</DistanceMeters>
          </Trackpoint>
          <Trackpoint>
            <Time>2021-08-14T12:10:46.000Z</Time>
            <Position>
              <LatitudeDegrees>42.9432434029877185821533203125</LatitudeDegrees>
              <LongitudeDegrees>-1.82693503797054290771484375</LongitudeDegrees>
            </Position>
            <AltitudeMeters>479.20001220703125</AltitudeMeters>
            <DistanceMeters>NAN</DistanceMeters>
          </Trackpoint>
          <Trackpoint>
            <Time>2021-08-14T12:10:49.000Z</Time>
            <Position>
              <LatitudeDegrees>42.9431803710758686065673828125</LatitudeDegrees>
              <LongitudeDegrees>-1.8267786316573619842529296875</LongitudeDegrees>
            </Position>
            <AltitudeMeters>479.20001220703125</AltitudeMeters>
            <DistanceMeters>NAN</DistanceMeters>
          </Trackpoint>
          <Trackpoint>
            <Time>2021-08-14T12:10:50.000Z</Time>
            <Position>
              <LatitudeDegrees>42.94315463863313198089599609375</LatitudeDegrees>
              <LongitudeDegrees>-1.8267424218356609344482421875</LongitudeDegrees>
            </Position>
            <AltitudeMeters>479.20001220703125</AltitudeMeters>
            <DistanceMeters>NAN</DistanceMeters>
          </Trackpoint>
          <Trackpoint>
            <Time>2021-08-14T12:10:51.000Z</Time>
            <Position>
              <LatitudeDegrees>42.943138964474201202392578125</LatitudeDegrees>
              <LongitudeDegrees>-1.8267192877829074859619140625</LongitudeDegrees>
            </Position>
            <AltitudeMeters>479</AltitudeMeters>
            <DistanceMeters>NAN</DistanceMeters>
          </Trackpoint>
          <Trackpoint>
            <Time>2021-08-14T12:10:52.000Z</Time>
            <Position>
              <LatitudeDegrees>42.94312245212495326995849609375</LatitudeDegrees>
              <LongitudeDegrees>-1.8266971595585346221923828125</LongitudeDegrees>
            </Position>
            <AltitudeMeters>479</AltitudeMeters>
            <DistanceMeters>NAN</DistanceMeters>
          </Trackpoint>
          <Trackpoint>
            <Time>2021-08-14T12:10:53.000Z</Time>
            <Position>
              <LatitudeDegrees>42.94311088509857654571533203125</LatitudeDegrees>
              <LongitudeDegrees>-1.82672892697155475616455078125</LongitudeDegrees>
            </Position>
            <AltitudeMeters>479</AltitudeMeters>
            <DistanceMeters>NAN</DistanceMeters>
          </Trackpoint>
          <Trackpoint>
            <Time>2021-08-14T12:10:54.000Z</Time>
            <Position>
              <LatitudeDegrees>42.9430972225964069366455078125</LatitudeDegrees>
              <LongitudeDegrees>-1.82673261500895023345947265625</LongitudeDegrees>
            </Position>
            <AltitudeMeters>479</AltitudeMeters>
            <DistanceMeters>NAN</DistanceMeters>
          </Trackpoint>
          <Trackpoint>
            <Time>2021-08-14T12:10:56.000Z</Time>
            <Position>
              <LatitudeDegrees>42.94307182542979717254638671875</LatitudeDegrees>
              <LongitudeDegrees>-1.826680563390254974365234375</LongitudeDegrees>
            </Position>
            <AltitudeMeters>479.20001220703125</AltitudeMeters>
            <DistanceMeters>NAN</DistanceMeters>
          </Trackpoint>
          <Trackpoint>
            <Time>2021-08-14T12:11:01.000Z</Time>
            <Position>
              <LatitudeDegrees>42.94297878630459308624267578125</LatitudeDegrees>
              <LongitudeDegrees>-1.82632223702967166900634765625</LongitudeDegrees>
            </Position>
            <AltitudeMeters>479</AltitudeMeters>
            <DistanceMeters>NAN</DistanceMeters>
          </Trackpoint>
          <Trackpoint>
            <Time>2021-08-14T12:11:02.000Z</Time>
            <Position>
              <LatitudeDegrees>42.942935116589069366455078125</LatitudeDegrees>
              <LongitudeDegrees>-1.82623632252216339111328125</LongitudeDegrees>
            </Position>
            <AltitudeMeters>479</AltitudeMeters>
            <DistanceMeters>NAN</DistanceMeters>
          </Trackpoint>
          <Trackpoint>
            <Time>2021-08-14T12:11:03.000Z</Time>
            <Position>
              <LatitudeDegrees>42.94292815960943698883056640625</LatitudeDegrees>
              <LongitudeDegrees>-1.82617463171482086181640625</LongitudeDegrees>
            </Position>
            <AltitudeMeters>479</AltitudeMeters>
            <DistanceMeters>NAN</DistanceMeters>
          </Trackpoint>
          <Trackpoint>
            <Time>2021-08-14T12:11:05.000Z</Time>
            <Position>
              <LatitudeDegrees>42.9429252259433269500732421875</LatitudeDegrees>
              <LongitudeDegrees>-1.8260497413575649261474609375</LongitudeDegrees>
            </Position>
            <AltitudeMeters>479</AltitudeMeters>
            <DistanceMeters>NAN</DistanceMeters>
          </Trackpoint>
          <Trackpoint>
            <Time>2021-08-14T12:11:06.000Z</Time>
            <Position>
              <LatitudeDegrees>42.9429242201149463653564453125</LatitudeDegrees>
              <LongitudeDegrees>-1.8259944207966327667236328125</LongitudeDegrees>
            </Position>
            <AltitudeMeters>479</AltitudeMeters>
            <DistanceMeters>NAN</DistanceMeters>
          </Trackpoint>
          <Trackpoint>
            <Time>2021-08-14T12:11:07.000Z</Time>
            <Position>
              <LatitudeDegrees>42.94291156344115734100341796875</LatitudeDegrees>
              <LongitudeDegrees>-1.82594454847276210784912109375</LongitudeDegrees>
            </Position>
            <AltitudeMeters>479</AltitudeMeters>
            <DistanceMeters>NAN</DistanceMeters>
          </Trackpoint>
          <Trackpoint>
            <Time>2021-08-14T12:11:11.000Z</Time>
            <Position>
              <LatitudeDegrees>42.94287116266787052154541015625</LatitudeDegrees>
              <LongitudeDegrees>-1.82567448355257511138916015625</LongitudeDegrees>
            </Position>
            <AltitudeMeters>478.79998779296875</AltitudeMeters>
            <DistanceMeters>NAN</DistanceMeters>
          </Trackpoint>
          <Trackpoint>
            <Time>2021-08-14T12:11:13.000Z</Time>
            <Position>
              <LatitudeDegrees>42.9428511299192905426025390625</LatitudeDegrees>
              <LongitudeDegrees>-1.8255702964961528778076171875</LongitudeDegrees>
            </Position>
            <AltitudeMeters>478.600006103515625</AltitudeMeters>
            <DistanceMeters>NAN</DistanceMeters>
          </Trackpoint>
          <Trackpoint>
            <Time>2021-08-14T12:11:14.000Z</Time>
            <Position>
              <LatitudeDegrees>42.94284786097705364227294921875</LatitudeDegrees>
              <LongitudeDegrees>-1.8255300633609294891357421875</LongitudeDegrees>
            </Position>
            <AltitudeMeters>478.600006103515625</AltitudeMeters>
            <DistanceMeters>NAN</DistanceMeters>
          </Trackpoint>
          <Trackpoint>
            <Time>2021-08-14T12:11:15.000Z</Time>
            <Position>
              <LatitudeDegrees>42.9428397305309772491455078125</LatitudeDegrees>
              <LongitudeDegrees>-1.82548924349248409271240234375</LongitudeDegrees>
            </Position>
            <AltitudeMeters>478.600006103515625</AltitudeMeters>
            <DistanceMeters>NAN</DistanceMeters>
          </Trackpoint>
          <Trackpoint>
            <Time>2021-08-14T12:11:16.000Z</Time>
            <Position>
              <LatitudeDegrees>42.94282875023782253265380859375</LatitudeDegrees>
              <LongitudeDegrees>-1.8254495970904827117919921875</LongitudeDegrees>
            </Position>
            <AltitudeMeters>478.600006103515625</AltitudeMeters>
            <DistanceMeters>NAN</DistanceMeters>
          </Trackpoint>
          <Trackpoint>
            <Time>2021-08-14T12:11:17.000Z</Time>
            <Position>
              <LatitudeDegrees>42.942805700004100799560546875</LatitudeDegrees>
              <LongitudeDegrees>-1.8253999762237071990966796875</LongitudeDegrees>
            </Position>
            <AltitudeMeters>478.600006103515625</AltitudeMeters>
            <DistanceMeters>NAN</DistanceMeters>
          </Trackpoint>
          <Trackpoint>
            <Time>2021-08-14T12:11:18.000Z</Time>
            <Position>
              <LatitudeDegrees>42.94278449378907680511474609375</LatitudeDegrees>
              <LongitudeDegrees>-1.8253466673195362091064453125</LongitudeDegrees>
            </Position>
            <AltitudeMeters>478.600006103515625</AltitudeMeters>
            <DistanceMeters>NAN</DistanceMeters>
          </Trackpoint>
          <Trackpoint>
            <Time>2021-08-14T12:11:19.000Z</Time>
            <Position>
              <LatitudeDegrees>42.94276756234467029571533203125</LatitudeDegrees>
              <LongitudeDegrees>-1.8252903409302234649658203125</LongitudeDegrees>
            </Position>
            <AltitudeMeters>478.600006103515625</AltitudeMeters>
            <DistanceMeters>NAN</DistanceMeters>
          </Trackpoint>
          <Trackpoint>
            <Time>2021-08-14T12:11:21.000Z</Time>
            <Position>
              <LatitudeDegrees>42.94276370666921138763427734375</LatitudeDegrees>
              <LongitudeDegrees>-1.8251964636147022247314453125</LongitudeDegrees>
            </Position>
            <AltitudeMeters>478.600006103515625</AltitudeMeters>
            <DistanceMeters>NAN</DistanceMeters>
          </Trackpoint>
          <Trackpoint>
            <Time>2021-08-14T12:11:22.000Z</Time>
            <Position>
              <LatitudeDegrees>42.942764461040496826171875</LatitudeDegrees>
              <LongitudeDegrees>-1.82514659129083156585693359375</LongitudeDegrees>
            </Position>
            <AltitudeMeters>478.600006103515625</AltitudeMeters>
            <DistanceMeters>NAN</DistanceMeters>
          </Trackpoint>
          <Trackpoint>
            <Time>2021-08-14T12:11:23.000Z</Time>
            <Position>
              <LatitudeDegrees>42.9427616111934185028076171875</LatitudeDegrees>
              <LongitudeDegrees>-1.82507031597197055816650390625</LongitudeDegrees>
            </Position>
            <AltitudeMeters>478.600006103515625</AltitudeMeters>
            <DistanceMeters>NAN</DistanceMeters>
          </Trackpoint>
          <Trackpoint>
            <Time>2021-08-14T12:11:24.000Z</Time>
            <Position>
              <LatitudeDegrees>42.94273302890360355377197265625</LatitudeDegrees>
              <LongitudeDegrees>-1.82501432485878467559814453125</LongitudeDegrees>
            </Position>
            <AltitudeMeters>478.600006103515625</AltitudeMeters>
            <DistanceMeters>NAN</DistanceMeters>
          </Trackpoint>
          <Trackpoint>
            <Time>2021-08-14T12:11:29.000Z</Time>
            <Position>
              <LatitudeDegrees>42.9426392354071140289306640625</LatitudeDegrees>
              <LongitudeDegrees>-1.824758760631084442138671875</LongitudeDegrees>
            </Position>
            <AltitudeMeters>478</AltitudeMeters>
            <DistanceMeters>NAN</DistanceMeters>
          </Trackpoint>
          <Trackpoint>
            <Time>2021-08-14T12:11:31.000Z</Time>
            <Position>
              <LatitudeDegrees>42.94261132366955280303955078125</LatitudeDegrees>
              <LongitudeDegrees>-1.82466764934360980987548828125</LongitudeDegrees>
            </Position>
            <AltitudeMeters>477.79998779296875</AltitudeMeters>
            <DistanceMeters>NAN</DistanceMeters>
          </Trackpoint>
          <Trackpoint>
            <Time>2021-08-14T12:11:32.000Z</Time>
            <Position>
              <LatitudeDegrees>42.94260109774768352508544921875</LatitudeDegrees>
              <LongitudeDegrees>-1.82462557218968868255615234375</LongitudeDegrees>
            </Position>
            <AltitudeMeters>477.600006103515625</AltitudeMeters>
            <DistanceMeters>NAN</DistanceMeters>
          </Trackpoint>
          <Trackpoint>
            <Time>2021-08-14T12:11:33.000Z</Time>
            <Position>
              <LatitudeDegrees>42.94259372167289257049560546875</LatitudeDegrees>
              <LongitudeDegrees>-1.824585087597370147705078125</LongitudeDegrees>
            </Position>
            <AltitudeMeters>477.600006103515625</AltitudeMeters>
            <DistanceMeters>NAN</DistanceMeters>
          </Trackpoint>
          <Trackpoint>
            <Time>2021-08-14T12:11:34.000Z</Time>
            <Position>
              <LatitudeDegrees>42.94258617796003818511962890625</LatitudeDegrees>
              <LongitudeDegrees>-1.824538819491863250732421875</LongitudeDegrees>
            </Position>
            <AltitudeMeters>477.600006103515625</AltitudeMeters>
            <DistanceMeters>NAN</DistanceMeters>
          </Trackpoint>
          <Trackpoint>
            <Time>2021-08-14T12:11:35.000Z</Time>
            <Position>
              <LatitudeDegrees>42.942573688924312591552734375</LatitudeDegrees>
              <LongitudeDegrees>-1.82448844425380229949951171875</LongitudeDegrees>
            </Position>
            <AltitudeMeters>477.600006103515625</AltitudeMeters>
            <DistanceMeters>NAN</DistanceMeters>
          </Trackpoint>
          <Trackpoint>
            <Time>2021-08-14T12:11:36.000Z</Time>
            <Position>
              <LatitudeDegrees>42.94254896230995655059814453125</LatitudeDegrees>
              <LongitudeDegrees>-1.8244363926351070404052734375</LongitudeDegrees>
            </Position>
            <AltitudeMeters>477.600006103515625</AltitudeMeters>
            <DistanceMeters>NAN</DistanceMeters>
          </Trackpoint>
          <Trackpoint>
            <Time>2021-08-14T12:11:37.000Z</Time>
            <Position>
              <LatitudeDegrees>42.94252834282815456390380859375</LatitudeDegrees>
              <LongitudeDegrees>-1.82439037598669528961181640625</LongitudeDegrees>
            </Position>
            <AltitudeMeters>477.600006103515625</AltitudeMeters>
            <DistanceMeters>NAN</DistanceMeters>
          </Trackpoint>
          <Trackpoint>
            <Time>2021-08-14T12:11:38.000Z</Time>
            <Position>
              <LatitudeDegrees>42.9425228945910930633544921875</LatitudeDegrees>
              <LongitudeDegrees>-1.82434947229921817779541015625</LongitudeDegrees>
            </Position>
            <AltitudeMeters>477.600006103515625</AltitudeMeters>
            <DistanceMeters>NAN</DistanceMeters>
          </Trackpoint>
          <Trackpoint>
            <Time>2021-08-14T12:11:39.000Z</Time>
            <Position>
              <LatitudeDegrees>42.9425202123820781707763671875</LatitudeDegrees>
              <LongitudeDegrees>-1.82430689223110675811767578125</LongitudeDegrees>
            </Position>
            <AltitudeMeters>477.600006103515625</AltitudeMeters>
            <DistanceMeters>NAN</DistanceMeters>
          </Trackpoint>
          <Trackpoint>
            <Time>2021-08-14T12:11:40.000Z</Time>
            <Position>
              <LatitudeDegrees>42.94251040555536746978759765625</LatitudeDegrees>
              <LongitudeDegrees>-1.824261881411075592041015625</LongitudeDegrees>
            </Position>
            <AltitudeMeters>477.600006103515625</AltitudeMeters>
            <DistanceMeters>NAN</DistanceMeters>
          </Trackpoint>
          <Trackpoint>
            <Time>2021-08-14T12:11:43.000Z</Time>
            <Position>
              <LatitudeDegrees>42.94246145524084568023681640625</LatitudeDegrees>
              <LongitudeDegrees>-1.82412802241742610931396484375</LongitudeDegrees>
            </Position>
            <AltitudeMeters>477.600006103515625</AltitudeMeters>
            <DistanceMeters>NAN</DistanceMeters>
          </Trackpoint>
          <Trackpoint>
            <Time>2021-08-14T12:11:44.000Z</Time>
            <Position>
              <LatitudeDegrees>42.94243991374969482421875</LatitudeDegrees>
              <LongitudeDegrees>-1.82408795692026615142822265625</LongitudeDegrees>
            </Position>
            <AltitudeMeters>477.600006103515625</AltitudeMeters>
            <DistanceMeters>NAN</DistanceMeters>
          </Trackpoint>
          <Trackpoint>
            <Time>2021-08-14T12:11:45.000Z</Time>
            <Position>
              <LatitudeDegrees>42.9424189589917659759521484375</LatitudeDegrees>
              <LongitudeDegrees>-1.8240525014698505401611328125</LongitudeDegrees>
            </Position>
            <AltitudeMeters>477.600006103515625</AltitudeMeters>
            <DistanceMeters>NAN</DistanceMeters>
          </Trackpoint>
          <Trackpoint>
            <Time>2021-08-14T12:11:51.000Z</Time>
            <Position>
              <LatitudeDegrees>42.94219910167157649993896484375</LatitudeDegrees>
              <LongitudeDegrees>-1.8237822689116001129150390625</LongitudeDegrees>
            </Position>
            <AltitudeMeters>477.600006103515625</AltitudeMeters>
            <DistanceMeters>NAN</DistanceMeters>
          </Trackpoint>
          <Trackpoint>
            <Time>2021-08-14T12:11:57.000Z</Time>
            <Position>
              <LatitudeDegrees>42.941982261836528778076171875</LatitudeDegrees>
              <LongitudeDegrees>-1.82357330806553363800048828125</LongitudeDegrees>
            </Position>
            <AltitudeMeters>477.600006103515625</AltitudeMeters>
            <DistanceMeters>NAN</DistanceMeters>
          </Trackpoint>
          <Trackpoint>
            <Time>2021-08-14T12:12:00.000Z</Time>
            <Position>
              <LatitudeDegrees>42.94187841005623340606689453125</LatitudeDegrees>
              <LongitudeDegrees>-1.82354983873665332794189453125</LongitudeDegrees>
            </Position>
            <AltitudeMeters>477.600006103515625</AltitudeMeters>
            <DistanceMeters>NAN</DistanceMeters>
          </Trackpoint>
          <Trackpoint>
            <Time>2021-08-14T12:12:01.000Z</Time>
            <Position>
              <LatitudeDegrees>42.9418422840535640716552734375</LatitudeDegrees>
              <LongitudeDegrees>-1.82355956174433231353759765625</LongitudeDegrees>
            </Position>
            <AltitudeMeters>477.399993896484375</AltitudeMeters>
            <DistanceMeters>NAN</DistanceMeters>
          </Trackpoint>
          <Trackpoint>
            <Time>2021-08-14T12:12:02.000Z</Time>
            <Position>
              <LatitudeDegrees>42.94180783443152904510498046875</LatitudeDegrees>
              <LongitudeDegrees>-1.823572553694248199462890625</LongitudeDegrees>
            </Position>
            <AltitudeMeters>477.399993896484375</AltitudeMeters>
            <DistanceMeters>NAN</DistanceMeters>
          </Trackpoint>
          <Trackpoint>
            <Time>2021-08-14T12:12:03.000Z</Time>
            <Position>
              <LatitudeDegrees>42.941769696772098541259765625</LatitudeDegrees>
              <LongitudeDegrees>-1.82359225116670131683349609375</LongitudeDegrees>
            </Position>
            <AltitudeMeters>477.399993896484375</AltitudeMeters>
            <DistanceMeters>NAN</DistanceMeters>
          </Trackpoint>
          <Trackpoint>
            <Time>2021-08-14T12:12:04.000Z</Time>
            <Position>
              <LatitudeDegrees>42.94173105619847774505615234375</LatitudeDegrees>
              <LongitudeDegrees>-1.82361320592463016510009765625</LongitudeDegrees>
            </Position>
            <AltitudeMeters>477.399993896484375</AltitudeMeters>
            <DistanceMeters>NAN</DistanceMeters>
          </Trackpoint>
          <Trackpoint>
            <Time>2021-08-14T12:12:06.000Z</Time>
            <Position>
              <LatitudeDegrees>42.94165243394672870635986328125</LatitudeDegrees>
              <LongitudeDegrees>-1.82366433553397655487060546875</LongitudeDegrees>
            </Position>
            <AltitudeMeters>477.399993896484375</AltitudeMeters>
            <DistanceMeters>NAN</DistanceMeters>
          </Trackpoint>
          <Trackpoint>
            <Time>2021-08-14T12:12:09.000Z</Time>
            <Position>
              <LatitudeDegrees>42.941541038453578948974609375</LatitudeDegrees>
              <LongitudeDegrees>-1.82375603355467319488525390625</LongitudeDegrees>
            </Position>
            <AltitudeMeters>477.399993896484375</AltitudeMeters>
            <DistanceMeters>NAN</DistanceMeters>
          </Trackpoint>
          <Trackpoint>
            <Time>2021-08-14T12:12:14.000Z</Time>
            <Position>
              <LatitudeDegrees>42.94138002209365367889404296875</LatitudeDegrees>
              <LongitudeDegrees>-1.82390523143112659454345703125</LongitudeDegrees>
            </Position>
            <AltitudeMeters>477.20001220703125</AltitudeMeters>
            <DistanceMeters>NAN</DistanceMeters>
          </Trackpoint>
          <Trackpoint>
            <Time>2021-08-14T12:12:15.000Z</Time>
            <Position>
              <LatitudeDegrees>42.94133693911135196685791015625</LatitudeDegrees>
              <LongitudeDegrees>-1.8239358253777027130126953125</LongitudeDegrees>
            </Position>
            <AltitudeMeters>477.20001220703125</AltitudeMeters>
            <DistanceMeters>NAN</DistanceMeters>
          </Trackpoint>
          <Trackpoint>
            <Time>2021-08-14T12:12:16.000Z</Time>
            <Position>
              <LatitudeDegrees>42.94130408205091953277587890625</LatitudeDegrees>
              <LongitudeDegrees>-1.82396809570491313934326171875</LongitudeDegrees>
            </Position>
            <AltitudeMeters>477.20001220703125</AltitudeMeters>
            <DistanceMeters>NAN</DistanceMeters>
          </Trackpoint>
          <Trackpoint>
            <Time>2021-08-14T12:12:18.000Z</Time>
            <Position>
              <LatitudeDegrees>42.941239960491657257080078125</LatitudeDegrees>
              <LongitudeDegrees>-1.824044622480869293212890625</LongitudeDegrees>
            </Position>
            <AltitudeMeters>477</AltitudeMeters>
            <DistanceMeters>NAN</DistanceMeters>
          </Trackpoint>
          <Trackpoint>
            <Time>2021-08-14T12:12:19.000Z</Time>
            <Position>
              <LatitudeDegrees>42.94121590442955493927001953125</LatitudeDegrees>
              <LongitudeDegrees>-1.8240699358284473419189453125</LongitudeDegrees>
            </Position>
            <AltitudeMeters>477</AltitudeMeters>
            <DistanceMeters>NAN</DistanceMeters>
          </Trackpoint>
          <Trackpoint>
            <Time>2021-08-14T12:12:20.000Z</Time>
            <Position>
              <LatitudeDegrees>42.941184304654598236083984375</LatitudeDegrees>
              <LongitudeDegrees>-1.8241019546985626220703125</LongitudeDegrees>
            </Position>
            <AltitudeMeters>477</AltitudeMeters>
            <DistanceMeters>NAN</DistanceMeters>
          </Trackpoint>
          <Trackpoint>
            <Time>2021-08-14T12:12:21.000Z</Time>
            <Position>
              <LatitudeDegrees>42.94114901684224605560302734375</LatitudeDegrees>
              <LongitudeDegrees>-1.82413690723478794097900390625</LongitudeDegrees>
            </Position>
            <AltitudeMeters>477</AltitudeMeters>
            <DistanceMeters>NAN</DistanceMeters>
          </Trackpoint>
          <Trackpoint>
            <Time>2021-08-14T12:12:22.000Z</Time>
            <Position>
              <LatitudeDegrees>42.9411237873136997222900390625</LatitudeDegrees>
              <LongitudeDegrees>-1.824165992438793182373046875</LongitudeDegrees>
            </Position>
            <AltitudeMeters>477</AltitudeMeters>
            <DistanceMeters>NAN</DistanceMeters>
          </Trackpoint>
          <Trackpoint>
            <Time>2021-08-14T12:12:23.000Z</Time>
            <Position>
              <LatitudeDegrees>42.94109855778515338897705078125</LatitudeDegrees>
              <LongitudeDegrees>-1.82419323362410068511962890625</LongitudeDegrees>
            </Position>
            <AltitudeMeters>476.79998779296875</AltitudeMeters>
            <DistanceMeters>NAN</DistanceMeters>
          </Trackpoint>
          <Trackpoint>
            <Time>2021-08-14T12:12:25.000Z</Time>
            <Position>
              <LatitudeDegrees>42.94104910455644130706787109375</LatitudeDegrees>
              <LongitudeDegrees>-1.82424754835665225982666015625</LongitudeDegrees>
            </Position>
            <AltitudeMeters>476.79998779296875</AltitudeMeters>
            <DistanceMeters>NAN</DistanceMeters>
          </Trackpoint>
          <Trackpoint>
            <Time>2021-08-14T12:12:26.000Z</Time>
            <Position>
              <LatitudeDegrees>42.941023372113704681396484375</LatitudeDegrees>
              <LongitudeDegrees>-1.82427118532359600067138671875</LongitudeDegrees>
            </Position>
            <AltitudeMeters>476.79998779296875</AltitudeMeters>
            <DistanceMeters>NAN</DistanceMeters>
          </Trackpoint>
          <Trackpoint>
            <Time>2021-08-14T12:12:27.000Z</Time>
            <Position>
              <LatitudeDegrees>42.94100032187998294830322265625</LatitudeDegrees>
              <LongitudeDegrees>-1.824292726814746856689453125</LongitudeDegrees>
            </Position>
            <AltitudeMeters>476.79998779296875</AltitudeMeters>
            <DistanceMeters>NAN</DistanceMeters>
          </Trackpoint>
          <Trackpoint>
            <Time>2021-08-14T12:12:28.000Z</Time>
            <Position>
              <LatitudeDegrees>42.9409714043140411376953125</LatitudeDegrees>
              <LongitudeDegrees>-1.82431627996265888214111328125</LongitudeDegrees>
            </Position>
            <AltitudeMeters>476.79998779296875</AltitudeMeters>
            <DistanceMeters>NAN</DistanceMeters>
          </Trackpoint>
          <Trackpoint>
            <Time>2021-08-14T12:12:29.000Z</Time>
            <Position>
              <LatitudeDegrees>42.94094064272940158843994140625</LatitudeDegrees>
              <LongitudeDegrees>-1.82433254085481166839599609375</LongitudeDegrees>
            </Position>
            <AltitudeMeters>476.600006103515625</AltitudeMeters>
            <DistanceMeters>NAN</DistanceMeters>
          </Trackpoint>
          <Trackpoint>
            <Time>2021-08-14T12:12:30.000Z</Time>
            <Position>
              <LatitudeDegrees>42.94090761803090572357177734375</LatitudeDegrees>
              <LongitudeDegrees>-1.82436506263911724090576171875</LongitudeDegrees>
            </Position>
            <AltitudeMeters>476.600006103515625</AltitudeMeters>
            <DistanceMeters>NAN</DistanceMeters>
          </Trackpoint>
          <Trackpoint>
            <Time>2021-08-14T12:12:31.000Z</Time>
            <Position>
              <LatitudeDegrees>42.940874509513378143310546875</LatitudeDegrees>
              <LongitudeDegrees>-1.82440797798335552215576171875</LongitudeDegrees>
            </Position>
            <AltitudeMeters>476.600006103515625</AltitudeMeters>
            <DistanceMeters>NAN</DistanceMeters>
          </Trackpoint>
          <Trackpoint>
            <Time>2021-08-14T12:12:33.000Z</Time>
            <Position>
              <LatitudeDegrees>42.94079546816647052764892578125</LatitudeDegrees>
              <LongitudeDegrees>-1.82449883781373500823974609375</LongitudeDegrees>
            </Position>
            <AltitudeMeters>476.600006103515625</AltitudeMeters>
            <DistanceMeters>NAN</DistanceMeters>
          </Trackpoint>
          <Trackpoint>
            <Time>2021-08-14T12:12:35.000Z</Time>
            <Position>
              <LatitudeDegrees>42.9407284967601299285888671875</LatitudeDegrees>
              <LongitudeDegrees>-1.8245493806898593902587890625</LongitudeDegrees>
            </Position>
            <AltitudeMeters>476.600006103515625</AltitudeMeters>
            <DistanceMeters>NAN</DistanceMeters>
          </Trackpoint>
          <Trackpoint>
            <Time>2021-08-14T12:12:36.000Z</Time>
            <Position>
              <LatitudeDegrees>42.94068910181522369384765625</LatitudeDegrees>
              <LongitudeDegrees>-1.82456036098301410675048828125</LongitudeDegrees>
            </Position>
            <AltitudeMeters>476.600006103515625</AltitudeMeters>
            <DistanceMeters>NAN</DistanceMeters>
          </Trackpoint>
          <Trackpoint>
            <Time>2021-08-14T12:12:37.000Z</Time>
            <Position>
              <LatitudeDegrees>42.94065766967833042144775390625</LatitudeDegrees>
              <LongitudeDegrees>-1.824579052627086639404296875</LongitudeDegrees>
            </Position>
            <AltitudeMeters>476.600006103515625</AltitudeMeters>
            <DistanceMeters>NAN</DistanceMeters>
          </Trackpoint>
          <Trackpoint>
            <Time>2021-08-14T12:12:39.000Z</Time>
            <Position>
              <LatitudeDegrees>42.94060117565095424652099609375</LatitudeDegrees>
              <LongitudeDegrees>-1.82467301376163959503173828125</LongitudeDegrees>
            </Position>
            <AltitudeMeters>476.600006103515625</AltitudeMeters>
            <DistanceMeters>NAN</DistanceMeters>
          </Trackpoint>
          <Trackpoint>
            <Time>2021-08-14T12:12:40.000Z</Time>
            <Position>
              <LatitudeDegrees>42.940568067133426666259765625</LatitudeDegrees>
              <LongitudeDegrees>-1.82473084889352321624755859375</LongitudeDegrees>
            </Position>
            <AltitudeMeters>476.600006103515625</AltitudeMeters>
            <DistanceMeters>NAN</DistanceMeters>
          </Trackpoint>
          <Trackpoint>
            <Time>2021-08-14T12:12:41.000Z</Time>
            <Position>
              <LatitudeDegrees>42.9405390657484531402587890625</LatitudeDegrees>
              <LongitudeDegrees>-1.82477653026580810546875</LongitudeDegrees>
            </Position>
            <AltitudeMeters>476.600006103515625</AltitudeMeters>
            <DistanceMeters>NAN</DistanceMeters>
          </Trackpoint>
          <Trackpoint>
            <Time>2021-08-14T12:12:42.000Z</Time>
            <Position>
              <LatitudeDegrees>42.94050478376448154449462890625</LatitudeDegrees>
              <LongitudeDegrees>-1.8248283304274082183837890625</LongitudeDegrees>
            </Position>
            <AltitudeMeters>476.79998779296875</AltitudeMeters>
            <DistanceMeters>NAN</DistanceMeters>
          </Trackpoint>
          <Trackpoint>
            <Time>2021-08-14T12:12:45.000Z</Time>
            <Position>
              <LatitudeDegrees>42.94042599387466907501220703125</LatitudeDegrees>
              <LongitudeDegrees>-1.824971325695514678955078125</LongitudeDegrees>
            </Position>
            <AltitudeMeters>476.79998779296875</AltitudeMeters>
            <DistanceMeters>NAN</DistanceMeters>
          </Trackpoint>
          <Trackpoint>
            <Time>2021-08-14T12:12:46.000Z</Time>
            <Position>
              <LatitudeDegrees>42.94040118344128131866455078125</LatitudeDegrees>
              <LongitudeDegrees>-1.8250130675733089447021484375</LongitudeDegrees>
            </Position>
            <AltitudeMeters>476.79998779296875</AltitudeMeters>
            <DistanceMeters>NAN</DistanceMeters>
          </Trackpoint>
          <Trackpoint>
            <Time>2021-08-14T12:12:47.000Z</Time>
            <Position>
              <LatitudeDegrees>42.9403717629611492156982421875</LatitudeDegrees>
              <LongitudeDegrees>-1.82504005730152130126953125</LongitudeDegrees>
            </Position>
            <AltitudeMeters>476.600006103515625</AltitudeMeters>
            <DistanceMeters>NAN</DistanceMeters>
          </Trackpoint>
          <Trackpoint>
            <Time>2021-08-14T12:12:48.000Z</Time>
            <Position>
              <LatitudeDegrees>42.9403456114232540130615234375</LatitudeDegrees>
              <LongitudeDegrees>-1.82508976198732852935791015625</LongitudeDegrees>
            </Position>
            <AltitudeMeters>476.600006103515625</AltitudeMeters>
            <DistanceMeters>NAN</DistanceMeters>
          </Trackpoint>
          <Trackpoint>
            <Time>2021-08-14T12:12:50.000Z</Time>
            <Position>
              <LatitudeDegrees>42.9403177835047245025634765625</LatitudeDegrees>
              <LongitudeDegrees>-1.825193949043750762939453125</LongitudeDegrees>
            </Position>
            <AltitudeMeters>476.600006103515625</AltitudeMeters>
            <DistanceMeters>NAN</DistanceMeters>
          </Trackpoint>
          <Trackpoint>
            <Time>2021-08-14T12:12:51.000Z</Time>
            <Position>
              <LatitudeDegrees>42.94030579738318920135498046875</LatitudeDegrees>
              <LongitudeDegrees>-1.82525773532688617706298828125</LongitudeDegrees>
            </Position>
            <AltitudeMeters>476.399993896484375</AltitudeMeters>
            <DistanceMeters>NAN</DistanceMeters>
          </Trackpoint>
          <Trackpoint>
            <Time>2021-08-14T12:12:52.000Z</Time>
            <Position>
              <LatitudeDegrees>42.9402906261384487152099609375</LatitudeDegrees>
              <LongitudeDegrees>-1.8253392912447452545166015625</LongitudeDegrees>
            </Position>
            <AltitudeMeters>476.20001220703125</AltitudeMeters>
            <DistanceMeters>NAN</DistanceMeters>
          </Trackpoint>
          <Trackpoint>
            <Time>2021-08-14T12:12:54.000Z</Time>
            <Position>
              <LatitudeDegrees>42.94026053510606288909912109375</LatitudeDegrees>
              <LongitudeDegrees>-1.82548136450350284576416015625</LongitudeDegrees>
            </Position>
            <AltitudeMeters>476</AltitudeMeters>
            <DistanceMeters>NAN</DistanceMeters>
          </Trackpoint>
          <Trackpoint>
            <Time>2021-08-14T12:12:55.000Z</Time>
            <Position>
              <LatitudeDegrees>42.94023890979588031768798828125</LatitudeDegrees>
              <LongitudeDegrees>-1.8255381099879741668701171875</LongitudeDegrees>
            </Position>
            <AltitudeMeters>475.79998779296875</AltitudeMeters>
            <DistanceMeters>NAN</DistanceMeters>
          </Trackpoint>
          <Trackpoint>
            <Time>2021-08-14T12:12:56.000Z</Time>
            <Position>
              <LatitudeDegrees>42.940216362476348876953125</LatitudeDegrees>
              <LongitudeDegrees>-1.8255833722651004791259765625</LongitudeDegrees>
            </Position>
            <AltitudeMeters>475.79998779296875</AltitudeMeters>
            <DistanceMeters>NAN</DistanceMeters>
          </Trackpoint>
          <Trackpoint>
            <Time>2021-08-14T12:12:57.000Z</Time>
            <Position>
              <LatitudeDegrees>42.94019632972776889801025390625</LatitudeDegrees>
              <LongitudeDegrees>-1.82561480440199375152587890625</LongitudeDegrees>
            </Position>
            <AltitudeMeters>475.79998779296875</AltitudeMeters>
            <DistanceMeters>NAN</DistanceMeters>
          </Trackpoint>
          <Trackpoint>
            <Time>2021-08-14T12:12:58.000Z</Time>
            <Position>
              <LatitudeDegrees>42.94018208049237728118896484375</LatitudeDegrees>
              <LongitudeDegrees>-1.82564087212085723876953125</LongitudeDegrees>
            </Position>
            <AltitudeMeters>475.79998779296875</AltitudeMeters>
            <DistanceMeters>NAN</DistanceMeters>
          </Trackpoint>
          <Trackpoint>
            <Time>2021-08-14T12:12:59.000Z</Time>
            <Position>
              <LatitudeDegrees>42.94017051346600055694580078125</LatitudeDegrees>
              <LongitudeDegrees>-1.82566576637327671051025390625</LongitudeDegrees>
            </Position>
            <AltitudeMeters>476</AltitudeMeters>
            <DistanceMeters>NAN</DistanceMeters>
          </Trackpoint>
          <Trackpoint>
            <Time>2021-08-14T12:13:00.000Z</Time>
            <Position>
              <LatitudeDegrees>42.94016347266733646392822265625</LatitudeDegrees>
              <LongitudeDegrees>-1.8256889842450618743896484375</LongitudeDegrees>
            </Position>
            <AltitudeMeters>476</AltitudeMeters>
            <DistanceMeters>NAN</DistanceMeters>
          </Trackpoint>
          <Trackpoint>
            <Time>2021-08-14T12:13:01.000Z</Time>
            <Position>
              <LatitudeDegrees>42.9401501454412937164306640625</LatitudeDegrees>
              <LongitudeDegrees>-1.82570214383304119110107421875</LongitudeDegrees>
            </Position>
            <AltitudeMeters>476.20001220703125</AltitudeMeters>
            <DistanceMeters>NAN</DistanceMeters>
          </Trackpoint>
          <Trackpoint>
            <Time>2021-08-14T12:13:03.000Z</Time>
            <Position>
              <LatitudeDegrees>42.94011619873344898223876953125</LatitudeDegrees>
              <LongitudeDegrees>-1.82573080994188785552978515625</LongitudeDegrees>
            </Position>
            <AltitudeMeters>477</AltitudeMeters>
            <DistanceMeters>NAN</DistanceMeters>
          </Trackpoint>
          <Trackpoint>
            <Time>2021-08-14T12:13:04.000Z</Time>
            <Position>
              <LatitudeDegrees>42.9400894604623317718505859375</LatitudeDegrees>
              <LongitudeDegrees>-1.82572896592319011688232421875</LongitudeDegrees>
            </Position>
            <AltitudeMeters>477.20001220703125</AltitudeMeters>
            <DistanceMeters>NAN</DistanceMeters>
          </Trackpoint>
          <Trackpoint>
            <Time>2021-08-14T12:13:05.000Z</Time>
            <Position>
              <LatitudeDegrees>42.94006724841892719268798828125</LatitudeDegrees>
              <LongitudeDegrees>-1.82572393678128719329833984375</LongitudeDegrees>
            </Position>
            <AltitudeMeters>477.20001220703125</AltitudeMeters>
            <DistanceMeters>NAN</DistanceMeters>
          </Trackpoint>
          <Trackpoint>
            <Time>2021-08-14T12:13:06.000Z</Time>
            <Position>
              <LatitudeDegrees>42.94005350209772586822509765625</LatitudeDegrees>
              <LongitudeDegrees>-1.82572896592319011688232421875</LongitudeDegrees>
            </Position>
            <AltitudeMeters>477.399993896484375</AltitudeMeters>
            <DistanceMeters>NAN</DistanceMeters>
          </Trackpoint>
          <Trackpoint>
            <Time>2021-08-14T12:13:07.000Z</Time>
            <Position>
              <LatitudeDegrees>42.94003866612911224365234375</LatitudeDegrees>
              <LongitudeDegrees>-1.8257426284253597259521484375</LongitudeDegrees>
            </Position>
            <AltitudeMeters>477.399993896484375</AltitudeMeters>
            <DistanceMeters>NAN</DistanceMeters>
          </Trackpoint>
          <Trackpoint>
            <Time>2021-08-14T12:13:08.000Z</Time>
            <Position>
              <LatitudeDegrees>42.94002114795148372650146484375</LatitudeDegrees>
              <LongitudeDegrees>-1.82576232589781284332275390625</LongitudeDegrees>
            </Position>
            <AltitudeMeters>477.600006103515625</AltitudeMeters>
            <DistanceMeters>NAN</DistanceMeters>
          </Trackpoint>
          <Trackpoint>
            <Time>2021-08-14T12:13:09.000Z</Time>
            <Position>
              <LatitudeDegrees>42.94000622816383838653564453125</LatitudeDegrees>
              <LongitudeDegrees>-1.825778670608997344970703125</LongitudeDegrees>
            </Position>
            <AltitudeMeters>477.600006103515625</AltitudeMeters>
            <DistanceMeters>NAN</DistanceMeters>
          </Trackpoint>
          <Trackpoint>
            <Time>2021-08-14T12:13:10.000Z</Time>
            <Position>
              <LatitudeDegrees>42.93999130837619304656982421875</LatitudeDegrees>
              <LongitudeDegrees>-1.82578973472118377685546875</LongitudeDegrees>
            </Position>
            <AltitudeMeters>477.600006103515625</AltitudeMeters>
            <DistanceMeters>NAN</DistanceMeters>
          </Trackpoint>
          <Trackpoint>
            <Time>2021-08-14T12:13:11.000Z</Time>
            <Position>
              <LatitudeDegrees>42.9399680905044078826904296875</LatitudeDegrees>
              <LongitudeDegrees>-1.82580105029046535491943359375</LongitudeDegrees>
            </Position>
            <AltitudeMeters>477.79998779296875</AltitudeMeters>
            <DistanceMeters>NAN</DistanceMeters>
          </Trackpoint>
          <Trackpoint>
            <Time>2021-08-14T12:13:12.000Z</Time>
            <Position>
              <LatitudeDegrees>42.9399566911160945892333984375</LatitudeDegrees>
              <LongitudeDegrees>-1.8258137069642543792724609375</LongitudeDegrees>
            </Position>
            <AltitudeMeters>477.79998779296875</AltitudeMeters>
            <DistanceMeters>NAN</DistanceMeters>
          </Trackpoint>
          <Trackpoint>
            <Time>2021-08-14T12:13:14.000Z</Time>
            <Position>
              <LatitudeDegrees>42.93992844410240650177001953125</LatitudeDegrees>
              <LongitudeDegrees>-1.82585888542234897613525390625</LongitudeDegrees>
            </Position>
            <AltitudeMeters>477.79998779296875</AltitudeMeters>
            <DistanceMeters>NAN</DistanceMeters>
          </Trackpoint>
          <Trackpoint>
            <Time>2021-08-14T12:13:16.000Z</Time>
            <Position>
              <LatitudeDegrees>42.93988251127302646636962890625</LatitudeDegrees>
              <LongitudeDegrees>-1.8258737213909626007080078125</LongitudeDegrees>
            </Position>
            <AltitudeMeters>477.79998779296875</AltitudeMeters>
            <DistanceMeters>NAN</DistanceMeters>
          </Trackpoint>
          <Trackpoint>
            <Time>2021-08-14T12:13:17.000Z</Time>
            <Position>
              <LatitudeDegrees>42.939855270087718963623046875</LatitudeDegrees>
              <LongitudeDegrees>-1.82589107193052768707275390625</LongitudeDegrees>
            </Position>
            <AltitudeMeters>477.79998779296875</AltitudeMeters>
            <DistanceMeters>NAN</DistanceMeters>
          </Trackpoint>
          <Trackpoint>
            <Time>2021-08-14T12:13:20.000Z</Time>
            <Position>
              <LatitudeDegrees>42.93974739499390125274658203125</LatitudeDegrees>
              <LongitudeDegrees>-1.82600975967943668365478515625</LongitudeDegrees>
            </Position>
            <AltitudeMeters>477.79998779296875</AltitudeMeters>
            <DistanceMeters>NAN</DistanceMeters>
          </Trackpoint>
          <Trackpoint>
            <Time>2021-08-14T12:13:21.000Z</Time>
            <Position>
              <LatitudeDegrees>42.93971537612378597259521484375</LatitudeDegrees>
              <LongitudeDegrees>-1.82604060508310794830322265625</LongitudeDegrees>
            </Position>
            <AltitudeMeters>477.600006103515625</AltitudeMeters>
            <DistanceMeters>NAN</DistanceMeters>
          </Trackpoint>
          <Trackpoint>
            <Time>2021-08-14T12:13:22.000Z</Time>
            <Position>
              <LatitudeDegrees>42.93968302197754383087158203125</LatitudeDegrees>
              <LongitudeDegrees>-1.82607279159128665924072265625</LongitudeDegrees>
            </Position>
            <AltitudeMeters>477.399993896484375</AltitudeMeters>
            <DistanceMeters>NAN</DistanceMeters>
          </Trackpoint>
          <Trackpoint>
            <Time>2021-08-14T12:13:23.000Z</Time>
            <Position>
              <LatitudeDegrees>42.93965376913547515869140625</LatitudeDegrees>
              <LongitudeDegrees>-1.8261033855378627777099609375</LongitudeDegrees>
            </Position>
            <AltitudeMeters>477.399993896484375</AltitudeMeters>
            <DistanceMeters>NAN</DistanceMeters>
          </Trackpoint>
          <Trackpoint>
            <Time>2021-08-14T12:13:24.000Z</Time>
            <Position>
              <LatitudeDegrees>42.93962560594081878662109375</LatitudeDegrees>
              <LongitudeDegrees>-1.826134063303470611572265625</LongitudeDegrees>
            </Position>
            <AltitudeMeters>477.399993896484375</AltitudeMeters>
            <DistanceMeters>NAN</DistanceMeters>
          </Trackpoint>
          <Trackpoint>
            <Time>2021-08-14T12:13:25.000Z</Time>
            <Position>
              <LatitudeDegrees>42.93959652073681354522705078125</LatitudeDegrees>
              <LongitudeDegrees>-1.8261597119271755218505859375</LongitudeDegrees>
            </Position>
            <AltitudeMeters>477.399993896484375</AltitudeMeters>
            <DistanceMeters>NAN</DistanceMeters>
          </Trackpoint>
          <Trackpoint>
            <Time>2021-08-14T12:13:26.000Z</Time>
            <Position>
              <LatitudeDegrees>42.939569614827632904052734375</LatitudeDegrees>
              <LongitudeDegrees>-1.82618276216089725494384765625</LongitudeDegrees>
            </Position>
            <AltitudeMeters>477.20001220703125</AltitudeMeters>
            <DistanceMeters>NAN</DistanceMeters>
          </Trackpoint>
          <Trackpoint>
            <Time>2021-08-14T12:13:27.000Z</Time>
            <Position>
              <LatitudeDegrees>42.9395444691181182861328125</LatitudeDegrees>
              <LongitudeDegrees>-1.82620472274720668792724609375</LongitudeDegrees>
            </Position>
            <AltitudeMeters>477.20001220703125</AltitudeMeters>
            <DistanceMeters>NAN</DistanceMeters>
          </Trackpoint>
          <Trackpoint>
            <Time>2021-08-14T12:13:28.000Z</Time>
            <Position>
              <LatitudeDegrees>42.93951840139925479888916015625</LatitudeDegrees>
              <LongitudeDegrees>-1.82622550986707210540771484375</LongitudeDegrees>
            </Position>
            <AltitudeMeters>477.20001220703125</AltitudeMeters>
            <DistanceMeters>NAN</DistanceMeters>
          </Trackpoint>
          <Trackpoint>
            <Time>2021-08-14T12:13:29.000Z</Time>
            <Position>
              <LatitudeDegrees>42.93948948383331298828125</LatitudeDegrees>
              <LongitudeDegrees>-1.82624177075922489166259765625</LongitudeDegrees>
            </Position>
            <AltitudeMeters>477.20001220703125</AltitudeMeters>
            <DistanceMeters>NAN</DistanceMeters>
          </Trackpoint>
          <Trackpoint>
            <Time>2021-08-14T12:13:30.000Z</Time>
            <Position>
              <LatitudeDegrees>42.93946157209575176239013671875</LatitudeDegrees>
              <LongitudeDegrees>-1.8262606300413608551025390625</LongitudeDegrees>
            </Position>
            <AltitudeMeters>477.20001220703125</AltitudeMeters>
            <DistanceMeters>NAN</DistanceMeters>
          </Trackpoint>
          <Trackpoint>
            <Time>2021-08-14T12:13:31.000Z</Time>
            <Position>
              <LatitudeDegrees>42.93942988850176334381103515625</LatitudeDegrees>
              <LongitudeDegrees>-1.82627580128610134124755859375</LongitudeDegrees>
            </Position>
            <AltitudeMeters>477.20001220703125</AltitudeMeters>
            <DistanceMeters>NAN</DistanceMeters>
          </Trackpoint>
          <Trackpoint>
            <Time>2021-08-14T12:13:32.000Z</Time>
            <Position>
              <LatitudeDegrees>42.93940088711678981781005859375</LatitudeDegrees>
              <LongitudeDegrees>-1.82629390619695186614990234375</LongitudeDegrees>
            </Position>
            <AltitudeMeters>477.20001220703125</AltitudeMeters>
            <DistanceMeters>NAN</DistanceMeters>
          </Trackpoint>
          <Trackpoint>
            <Time>2021-08-14T12:13:37.000Z</Time>
            <Position>
              <LatitudeDegrees>42.93923039920628070831298828125</LatitudeDegrees>
              <LongitudeDegrees>-1.826399266719818115234375</LongitudeDegrees>
            </Position>
            <AltitudeMeters>477</AltitudeMeters>
            <DistanceMeters>NAN</DistanceMeters>
          </Trackpoint>
          <Trackpoint>
            <Time>2021-08-14T12:13:45.000Z</Time>
            <Position>
              <LatitudeDegrees>42.93897726573050022125244140625</LatitudeDegrees>
              <LongitudeDegrees>-1.82654653675854206085205078125</LongitudeDegrees>
            </Position>
            <AltitudeMeters>477.399993896484375</AltitudeMeters>
            <DistanceMeters>NAN</DistanceMeters>
          </Trackpoint>
          <Trackpoint>
            <Time>2021-08-14T12:13:47.000Z</Time>
            <Position>
              <LatitudeDegrees>42.93892144225537776947021484375</LatitudeDegrees>
              <LongitudeDegrees>-1.82660101912915706634521484375</LongitudeDegrees>
            </Position>
            <AltitudeMeters>477.399993896484375</AltitudeMeters>
            <DistanceMeters>NAN</DistanceMeters>
          </Trackpoint>
          <Trackpoint>
            <Time>2021-08-14T12:13:48.000Z</Time>
            <Position>
              <LatitudeDegrees>42.93889604508876800537109375</LatitudeDegrees>
              <LongitudeDegrees>-1.826636306941509246826171875</LongitudeDegrees>
            </Position>
            <AltitudeMeters>477.600006103515625</AltitudeMeters>
            <DistanceMeters>NAN</DistanceMeters>
          </Trackpoint>
          <Trackpoint>
            <Time>2021-08-14T12:13:49.000Z</Time>
            <Position>
              <LatitudeDegrees>42.9388750903308391571044921875</LatitudeDegrees>
              <LongitudeDegrees>-1.82666949927806854248046875</LongitudeDegrees>
            </Position>
            <AltitudeMeters>477.600006103515625</AltitudeMeters>
            <DistanceMeters>NAN</DistanceMeters>
          </Trackpoint>
          <Trackpoint>
            <Time>2021-08-14T12:13:50.000Z</Time>
            <Position>
              <LatitudeDegrees>42.93884768150746822357177734375</LatitudeDegrees>
              <LongitudeDegrees>-1.8266941420733928680419921875</LongitudeDegrees>
            </Position>
            <AltitudeMeters>477.600006103515625</AltitudeMeters>
            <DistanceMeters>NAN</DistanceMeters>
          </Trackpoint>
          <Trackpoint>
            <Time>2021-08-14T12:13:54.000Z</Time>
            <Position>
              <LatitudeDegrees>42.9387232102453708648681640625</LatitudeDegrees>
              <LongitudeDegrees>-1.8267863430082798004150390625</LongitudeDegrees>
            </Position>
            <AltitudeMeters>478.20001220703125</AltitudeMeters>
            <DistanceMeters>NAN</DistanceMeters>
          </Trackpoint>
          <Trackpoint>
            <Time>2021-08-14T12:13:55.000Z</Time>
            <Position>
              <LatitudeDegrees>42.938696555793285369873046875</LatitudeDegrees>
              <LongitudeDegrees>-1.82679690420627593994140625</LongitudeDegrees>
            </Position>
            <AltitudeMeters>478.399993896484375</AltitudeMeters>
            <DistanceMeters>NAN</DistanceMeters>
          </Trackpoint>
          <Trackpoint>
            <Time>2021-08-14T12:13:56.000Z</Time>
            <Position>
              <LatitudeDegrees>42.9386635310947895050048828125</LatitudeDegrees>
              <LongitudeDegrees>-1.8268081359565258026123046875</LongitudeDegrees>
            </Position>
            <AltitudeMeters>478.399993896484375</AltitudeMeters>
            <DistanceMeters>NAN</DistanceMeters>
          </Trackpoint>
          <Trackpoint>
            <Time>2021-08-14T12:13:57.000Z</Time>
            <Position>
              <LatitudeDegrees>42.93862975202500820159912109375</LatitudeDegrees>
              <LongitudeDegrees>-1.82681961916387081146240234375</LongitudeDegrees>
            </Position>
            <AltitudeMeters>478.399993896484375</AltitudeMeters>
            <DistanceMeters>NAN</DistanceMeters>
          </Trackpoint>
          <Trackpoint>
            <Time>2021-08-14T12:13:58.000Z</Time>
            <Position>
              <LatitudeDegrees>42.93860393576323986053466796875</LatitudeDegrees>
              <LongitudeDegrees>-1.826826073229312896728515625</LongitudeDegrees>
            </Position>
            <AltitudeMeters>478.600006103515625</AltitudeMeters>
            <DistanceMeters>NAN</DistanceMeters>
          </Trackpoint>
          <Trackpoint>
            <Time>2021-08-14T12:13:59.000Z</Time>
            <Position>
              <LatitudeDegrees>42.93857493437826633453369140625</LatitudeDegrees>
              <LongitudeDegrees>-1.82683085091412067413330078125</LongitudeDegrees>
            </Position>
            <AltitudeMeters>478.600006103515625</AltitudeMeters>
            <DistanceMeters>NAN</DistanceMeters>
          </Trackpoint>
          <Trackpoint>
            <Time>2021-08-14T12:14:01.000Z</Time>
            <Position>
              <LatitudeDegrees>42.9385237209498882293701171875</LatitudeDegrees>
              <LongitudeDegrees>-1.8268404901027679443359375</LongitudeDegrees>
            </Position>
            <AltitudeMeters>478.79998779296875</AltitudeMeters>
            <DistanceMeters>NAN</DistanceMeters>
          </Trackpoint>
          <Trackpoint>
            <Time>2021-08-14T12:14:02.000Z</Time>
            <Position>
              <LatitudeDegrees>42.938489355146884918212890625</LatitudeDegrees>
              <LongitudeDegrees>-1.8268490396440029144287109375</LongitudeDegrees>
            </Position>
            <AltitudeMeters>478.79998779296875</AltitudeMeters>
            <DistanceMeters>NAN</DistanceMeters>
          </Trackpoint>
          <Trackpoint>
            <Time>2021-08-14T12:14:03.000Z</Time>
            <Position>
              <LatitudeDegrees>42.93846228159964084625244140625</LatitudeDegrees>
              <LongitudeDegrees>-1.82684694416821002960205078125</LongitudeDegrees>
            </Position>
            <AltitudeMeters>479</AltitudeMeters>
            <DistanceMeters>NAN</DistanceMeters>
          </Trackpoint>
          <Trackpoint>
            <Time>2021-08-14T12:14:04.000Z</Time>
            <Position>
              <LatitudeDegrees>42.93844132684171199798583984375</LatitudeDegrees>
              <LongitudeDegrees>-1.8268527276813983917236328125</LongitudeDegrees>
            </Position>
            <AltitudeMeters>479</AltitudeMeters>
            <DistanceMeters>NAN</DistanceMeters>
          </Trackpoint>
          <Trackpoint>
            <Time>2021-08-14T12:14:05.000Z</Time>
            <Position>
              <LatitudeDegrees>42.93841919861733913421630859375</LatitudeDegrees>
              <LongitudeDegrees>-1.8268611095845699310302734375</LongitudeDegrees>
            </Position>
            <AltitudeMeters>479</AltitudeMeters>
            <DistanceMeters>NAN</DistanceMeters>
          </Trackpoint>
          <Trackpoint>
            <Time>2021-08-14T12:14:06.000Z</Time>
            <Position>
              <LatitudeDegrees>42.93839924968779087066650390625</LatitudeDegrees>
              <LongitudeDegrees>-1.82686798274517059326171875</LongitudeDegrees>
            </Position>
            <AltitudeMeters>479</AltitudeMeters>
            <DistanceMeters>NAN</DistanceMeters>
          </Trackpoint>
          <Trackpoint>
            <Time>2021-08-14T12:14:07.000Z</Time>
            <Position>
              <LatitudeDegrees>42.93837913312017917633056640625</LatitudeDegrees>
              <LongitudeDegrees>-1.82688063941895961761474609375</LongitudeDegrees>
            </Position>
            <AltitudeMeters>479.20001220703125</AltitudeMeters>
            <DistanceMeters>NAN</DistanceMeters>
          </Trackpoint>
          <Trackpoint>
            <Time>2021-08-14T12:14:08.000Z</Time>
            <Position>
              <LatitudeDegrees>42.93834996409714221954345703125</LatitudeDegrees>
              <LongitudeDegrees>-1.8268896080553531646728515625</LongitudeDegrees>
            </Position>
            <AltitudeMeters>479.20001220703125</AltitudeMeters>
            <DistanceMeters>NAN</DistanceMeters>
          </Trackpoint>
          <Trackpoint>
            <Time>2021-08-14T12:14:12.000Z</Time>
            <Position>
              <LatitudeDegrees>42.938173525035381317138671875</LatitudeDegrees>
              <LongitudeDegrees>-1.82691651396453380584716796875</LongitudeDegrees>
            </Position>
            <AltitudeMeters>478.79998779296875</AltitudeMeters>
            <DistanceMeters>NAN</DistanceMeters>
          </Trackpoint>
          <Trackpoint>
            <Time>2021-08-14T12:14:13.000Z</Time>
            <Position>
              <LatitudeDegrees>42.938117869198322296142578125</LatitudeDegrees>
              <LongitudeDegrees>-1.82692967355251312255859375</LongitudeDegrees>
            </Position>
            <AltitudeMeters>478.79998779296875</AltitudeMeters>
            <DistanceMeters>NAN</DistanceMeters>
          </Trackpoint>
          <Trackpoint>
            <Time>2021-08-14T12:14:15.000Z</Time>
            <Position>
              <LatitudeDegrees>42.93801267631351947784423828125</LatitudeDegrees>
              <LongitudeDegrees>-1.82698734104633331298828125</LongitudeDegrees>
            </Position>
            <AltitudeMeters>478.600006103515625</AltitudeMeters>
            <DistanceMeters>NAN</DistanceMeters>
          </Trackpoint>
          <Trackpoint>
            <Time>2021-08-14T12:14:16.000Z</Time>
            <Position>
              <LatitudeDegrees>42.9379725269973278045654296875</LatitudeDegrees>
              <LongitudeDegrees>-1.82702095247805118560791015625</LongitudeDegrees>
            </Position>
            <AltitudeMeters>478.399993896484375</AltitudeMeters>
            <DistanceMeters>NAN</DistanceMeters>
          </Trackpoint>
          <Trackpoint>
            <Time>2021-08-14T12:14:17.000Z</Time>
            <Position>
              <LatitudeDegrees>42.937945537269115447998046875</LatitudeDegrees>
              <LongitudeDegrees>-1.82705297134816646575927734375</LongitudeDegrees>
            </Position>
            <AltitudeMeters>478.399993896484375</AltitudeMeters>
            <DistanceMeters>NAN</DistanceMeters>
          </Trackpoint>
          <Trackpoint>
            <Time>2021-08-14T12:14:18.000Z</Time>
            <Position>
              <LatitudeDegrees>42.937905304133892059326171875</LatitudeDegrees>
              <LongitudeDegrees>-1.8270927853882312774658203125</LongitudeDegrees>
            </Position>
            <AltitudeMeters>478.399993896484375</AltitudeMeters>
            <DistanceMeters>NAN</DistanceMeters>
          </Trackpoint>
          <Trackpoint>
            <Time>2021-08-14T12:14:19.000Z</Time>
            <Position>
              <LatitudeDegrees>42.93787219561636447906494140625</LatitudeDegrees>
              <LongitudeDegrees>-1.827133856713771820068359375</LongitudeDegrees>
            </Position>
            <AltitudeMeters>478.20001220703125</AltitudeMeters>
            <DistanceMeters>NAN</DistanceMeters>
          </Trackpoint>
          <Trackpoint>
            <Time>2021-08-14T12:14:20.000Z</Time>
            <Position>
              <LatitudeDegrees>42.93784302659332752227783203125</LatitudeDegrees>
              <LongitudeDegrees>-1.8271705694496631622314453125</LongitudeDegrees>
            </Position>
            <AltitudeMeters>478.20001220703125</AltitudeMeters>
            <DistanceMeters>NAN</DistanceMeters>
          </Trackpoint>
          <Trackpoint>
            <Time>2021-08-14T12:14:21.000Z</Time>
            <Position>
              <LatitudeDegrees>42.937812097370624542236328125</LatitudeDegrees>
              <LongitudeDegrees>-1.82720267213881015777587890625</LongitudeDegrees>
            </Position>
            <AltitudeMeters>478</AltitudeMeters>
            <DistanceMeters>NAN</DistanceMeters>
          </Trackpoint>
          <Trackpoint>
            <Time>2021-08-14T12:14:22.000Z</Time>
            <Position>
              <LatitudeDegrees>42.9377903044223785400390625</LatitudeDegrees>
              <LongitudeDegrees>-1.82722605764865875244140625</LongitudeDegrees>
            </Position>
            <AltitudeMeters>478.20001220703125</AltitudeMeters>
            <DistanceMeters>NAN</DistanceMeters>
          </Trackpoint>
          <Trackpoint>
            <Time>2021-08-14T12:14:23.000Z</Time>
            <Position>
              <LatitudeDegrees>42.93776214122772216796875</LatitudeDegrees>
              <LongitudeDegrees>-1.8272615969181060791015625</LongitudeDegrees>
            </Position>
            <AltitudeMeters>478.20001220703125</AltitudeMeters>
            <DistanceMeters>NAN</DistanceMeters>
          </Trackpoint>
          <Trackpoint>
            <Time>2021-08-14T12:14:24.000Z</Time>
            <Position>
              <LatitudeDegrees>42.937741018831729888916015625</LatitudeDegrees>
              <LongitudeDegrees>-1.82728934101760387420654296875</LongitudeDegrees>
            </Position>
            <AltitudeMeters>478.20001220703125</AltitudeMeters>
            <DistanceMeters>NAN</DistanceMeters>
          </Trackpoint>
          <Trackpoint>
            <Time>2021-08-14T12:14:25.000Z</Time>
            <Position>
              <LatitudeDegrees>42.93772635050117969512939453125</LatitudeDegrees>
              <LongitudeDegrees>-1.82732068933546543121337890625</LongitudeDegrees>
            </Position>
            <AltitudeMeters>478.399993896484375</AltitudeMeters>
            <DistanceMeters>NAN</DistanceMeters>
          </Trackpoint>
          <Trackpoint>
            <Time>2021-08-14T12:14:26.000Z</Time>
            <Position>
              <LatitudeDegrees>42.937714196741580963134765625</LatitudeDegrees>
              <LongitudeDegrees>-1.8273529596626758575439453125</LongitudeDegrees>
            </Position>
            <AltitudeMeters>478.399993896484375</AltitudeMeters>
            <DistanceMeters>NAN</DistanceMeters>
          </Trackpoint>
          <Trackpoint>
            <Time>2021-08-14T12:14:27.000Z</Time>
            <Position>
              <LatitudeDegrees>42.93770405463874340057373046875</LatitudeDegrees>
              <LongitudeDegrees>-1.8273791112005710601806640625</LongitudeDegrees>
            </Position>
            <AltitudeMeters>478.600006103515625</AltitudeMeters>
            <DistanceMeters>NAN</DistanceMeters>
          </Trackpoint>
          <Trackpoint>
            <Time>2021-08-14T12:14:29.000Z</Time>
            <Position>
              <LatitudeDegrees>42.93767555616796016693115234375</LatitudeDegrees>
              <LongitudeDegrees>-1.82743929326534271240234375</LongitudeDegrees>
            </Position>
            <AltitudeMeters>478.79998779296875</AltitudeMeters>
            <DistanceMeters>NAN</DistanceMeters>
          </Trackpoint>
          <Trackpoint>
            <Time>2021-08-14T12:14:30.000Z</Time>
            <Position>
              <LatitudeDegrees>42.93766164220869541168212890625</LatitudeDegrees>
              <LongitudeDegrees>-1.8274699710309505462646484375</LongitudeDegrees>
            </Position>
            <AltitudeMeters>478.79998779296875</AltitudeMeters>
            <DistanceMeters>NAN</DistanceMeters>
          </Trackpoint>
          <Trackpoint>
            <Time>2021-08-14T12:14:31.000Z</Time>
            <Position>
              <LatitudeDegrees>42.93764672242105007171630859375</LatitudeDegrees>
              <LongitudeDegrees>-1.82749771513044834136962890625</LongitudeDegrees>
            </Position>
            <AltitudeMeters>479</AltitudeMeters>
            <DistanceMeters>NAN</DistanceMeters>
          </Trackpoint>
          <Trackpoint>
            <Time>2021-08-14T12:14:32.000Z</Time>
            <Position>
              <LatitudeDegrees>42.9376298747956752777099609375</LatitudeDegrees>
              <LongitudeDegrees>-1.8275229446589946746826171875</LongitudeDegrees>
            </Position>
            <AltitudeMeters>479.20001220703125</AltitudeMeters>
            <DistanceMeters>NAN</DistanceMeters>
          </Trackpoint>
          <Trackpoint>
            <Time>2021-08-14T12:14:33.000Z</Time>
            <Position>
              <LatitudeDegrees>42.93761554174125194549560546875</LatitudeDegrees>
              <LongitudeDegrees>-1.82754599489271640777587890625</LongitudeDegrees>
            </Position>
            <AltitudeMeters>479.399993896484375</AltitudeMeters>
            <DistanceMeters>NAN</DistanceMeters>
          </Trackpoint>
          <Trackpoint>
            <Time>2021-08-14T12:14:34.000Z</Time>
            <Position>
              <LatitudeDegrees>42.937595844268798828125</LatitudeDegrees>
              <LongitudeDegrees>-1.8275873176753520965576171875</LongitudeDegrees>
            </Position>
            <AltitudeMeters>479.399993896484375</AltitudeMeters>
            <DistanceMeters>NAN</DistanceMeters>
          </Trackpoint>
          <Trackpoint>
            <Time>2021-08-14T12:14:40.000Z</Time>
            <Position>
              <LatitudeDegrees>42.93747858144342899322509765625</LatitudeDegrees>
              <LongitudeDegrees>-1.82780751027166843414306640625</LongitudeDegrees>
            </Position>
            <AltitudeMeters>479.600006103515625</AltitudeMeters>
            <DistanceMeters>NAN</DistanceMeters>
          </Trackpoint>
          <Trackpoint>
            <Time>2021-08-14T12:14:42.000Z</Time>
            <Position>
              <LatitudeDegrees>42.9374277032911777496337890625</LatitudeDegrees>
              <LongitudeDegrees>-1.82789769954979419708251953125</LongitudeDegrees>
            </Position>
            <AltitudeMeters>479.600006103515625</AltitudeMeters>
            <DistanceMeters>NAN</DistanceMeters>
          </Trackpoint>
          <Trackpoint>
            <Time>2021-08-14T12:14:43.000Z</Time>
            <Position>
              <LatitudeDegrees>42.9373955167829990386962890625</LatitudeDegrees>
              <LongitudeDegrees>-1.8279267847537994384765625</LongitudeDegrees>
            </Position>
            <AltitudeMeters>479.600006103515625</AltitudeMeters>
            <DistanceMeters>NAN</DistanceMeters>
          </Trackpoint>
          <Trackpoint>
            <Time>2021-08-14T12:14:44.000Z</Time>
            <Position>
              <LatitudeDegrees>42.93736626394093036651611328125</LatitudeDegrees>
              <LongitudeDegrees>-1.82796995155513286590576171875</LongitudeDegrees>
            </Position>
            <AltitudeMeters>479.600006103515625</AltitudeMeters>
            <DistanceMeters>NAN</DistanceMeters>
          </Trackpoint>
          <Trackpoint>
            <Time>2021-08-14T12:14:45.000Z</Time>
            <Position>
              <LatitudeDegrees>42.9373572953045368194580078125</LatitudeDegrees>
              <LongitudeDegrees>-1.82800549082458019256591796875</LongitudeDegrees>
            </Position>
            <AltitudeMeters>479.600006103515625</AltitudeMeters>
            <DistanceMeters>NAN</DistanceMeters>
          </Trackpoint>
          <Trackpoint>
            <Time>2021-08-14T12:14:46.000Z</Time>
            <Position>
              <LatitudeDegrees>42.93735352344810962677001953125</LatitudeDegrees>
              <LongitudeDegrees>-1.828041113913059234619140625</LongitudeDegrees>
            </Position>
            <AltitudeMeters>479.399993896484375</AltitudeMeters>
            <DistanceMeters>NAN</DistanceMeters>
          </Trackpoint>
          <Trackpoint>
            <Time>2021-08-14T12:14:47.000Z</Time>
            <Position>
              <LatitudeDegrees>42.9373485781252384185791015625</LatitudeDegrees>
              <LongitudeDegrees>-1.82807824574410915374755859375</LongitudeDegrees>
            </Position>
            <AltitudeMeters>479.399993896484375</AltitudeMeters>
            <DistanceMeters>NAN</DistanceMeters>
          </Trackpoint>
          <Trackpoint>
            <Time>2021-08-14T12:14:48.000Z</Time>
            <Position>
              <LatitudeDegrees>42.9373385198414325714111328125</LatitudeDegrees>
              <LongitudeDegrees>-1.8281096778810024261474609375</LongitudeDegrees>
            </Position>
            <AltitudeMeters>479.399993896484375</AltitudeMeters>
            <DistanceMeters>NAN</DistanceMeters>
          </Trackpoint>
          <Trackpoint>
            <Time>2021-08-14T12:14:49.000Z</Time>
            <Position>
              <LatitudeDegrees>42.93732561171054840087890625</LatitudeDegrees>
              <LongitudeDegrees>-1.828131973743438720703125</LongitudeDegrees>
            </Position>
            <AltitudeMeters>479.399993896484375</AltitudeMeters>
            <DistanceMeters>NAN</DistanceMeters>
          </Trackpoint>
          <Trackpoint>
            <Time>2021-08-14T12:14:50.000Z</Time>
            <Position>
              <LatitudeDegrees>42.9373061656951904296875</LatitudeDegrees>
              <LongitudeDegrees>-1.82816323824226856231689453125</LongitudeDegrees>
            </Position>
            <AltitudeMeters>479.600006103515625</AltitudeMeters>
            <DistanceMeters>NAN</DistanceMeters>
          </Trackpoint>
          <Trackpoint>
            <Time>2021-08-14T12:14:51.000Z</Time>
            <Position>
              <LatitudeDegrees>42.9372915811836719512939453125</LatitudeDegrees>
              <LongitudeDegrees>-1.8281877972185611724853515625</LongitudeDegrees>
            </Position>
            <AltitudeMeters>479.600006103515625</AltitudeMeters>
            <DistanceMeters>NAN</DistanceMeters>
          </Trackpoint>
          <Trackpoint>
            <Time>2021-08-14T12:14:52.000Z</Time>
            <Position>
              <LatitudeDegrees>42.93727674521505832672119140625</LatitudeDegrees>
              <LongitudeDegrees>-1.82820967398583889007568359375</LongitudeDegrees>
            </Position>
            <AltitudeMeters>479.600006103515625</AltitudeMeters>
            <DistanceMeters>NAN</DistanceMeters>
          </Trackpoint>
          <Trackpoint>
            <Time>2021-08-14T12:14:53.000Z</Time>
            <Position>
              <LatitudeDegrees>42.9372627474367618560791015625</LatitudeDegrees>
              <LongitudeDegrees>-1.8282320536673069000244140625</LongitudeDegrees>
            </Position>
            <AltitudeMeters>479.600006103515625</AltitudeMeters>
            <DistanceMeters>NAN</DistanceMeters>
          </Trackpoint>
          <Trackpoint>
            <Time>2021-08-14T12:14:54.000Z</Time>
            <Position>
              <LatitudeDegrees>42.93725394643843173980712890625</LatitudeDegrees>
              <LongitudeDegrees>-1.82826247997581958770751953125</LongitudeDegrees>
            </Position>
            <AltitudeMeters>479.79998779296875</AltitudeMeters>
            <DistanceMeters>NAN</DistanceMeters>
          </Trackpoint>
          <Trackpoint>
            <Time>2021-08-14T12:14:55.000Z</Time>
            <Position>
              <LatitudeDegrees>42.93724690563976764678955078125</LatitudeDegrees>
              <LongitudeDegrees>-1.828291229903697967529296875</LongitudeDegrees>
            </Position>
            <AltitudeMeters>479.79998779296875</AltitudeMeters>
            <DistanceMeters>NAN</DistanceMeters>
          </Trackpoint>
          <Trackpoint>
            <Time>2021-08-14T12:14:56.000Z</Time>
            <Position>
              <LatitudeDegrees>42.93723735027015209197998046875</LatitudeDegrees>
              <LongitudeDegrees>-1.82831662707030773162841796875</LongitudeDegrees>
            </Position>
            <AltitudeMeters>479.79998779296875</AltitudeMeters>
            <DistanceMeters>NAN</DistanceMeters>
          </Trackpoint>
          <Trackpoint>
            <Time>2021-08-14T12:14:57.000Z</Time>
            <Position>
              <LatitudeDegrees>42.937223017215728759765625</LatitudeDegrees>
              <LongitudeDegrees>-1.828341521322727203369140625</LongitudeDegrees>
            </Position>
            <AltitudeMeters>479.79998779296875</AltitudeMeters>
            <DistanceMeters>NAN</DistanceMeters>
          </Trackpoint>
          <Trackpoint>
            <Time>2021-08-14T12:15:03.000Z</Time>
            <Position>
              <LatitudeDegrees>42.9371101967990398406982421875</LatitudeDegrees>
              <LongitudeDegrees>-1.82852315716445446014404296875</LongitudeDegrees>
            </Position>
            <AltitudeMeters>479.79998779296875</AltitudeMeters>
            <DistanceMeters>NAN</DistanceMeters>
          </Trackpoint>
          <Trackpoint>
            <Time>2021-08-14T12:15:04.000Z</Time>
            <Position>
              <LatitudeDegrees>42.93709552846848964691162109375</LatitudeDegrees>
              <LongitudeDegrees>-1.8285525776445865631103515625</LongitudeDegrees>
            </Position>
            <AltitudeMeters>479.79998779296875</AltitudeMeters>
            <DistanceMeters>NAN</DistanceMeters>
          </Trackpoint>
          <Trackpoint>
            <Time>2021-08-14T12:15:10.000Z</Time>
            <Position>
              <LatitudeDegrees>42.93702847324311733245849609375</LatitudeDegrees>
              <LongitudeDegrees>-1.82878282852470874786376953125</LongitudeDegrees>
            </Position>
            <AltitudeMeters>479.79998779296875</AltitudeMeters>
            <DistanceMeters>NAN</DistanceMeters>
          </Trackpoint>
          <Trackpoint>
            <Time>2021-08-14T12:15:11.000Z</Time>
            <Position>
              <LatitudeDegrees>42.93701539747416973114013671875</LatitudeDegrees>
              <LongitudeDegrees>-1.82880545966327190399169921875</LongitudeDegrees>
            </Position>
            <AltitudeMeters>479.79998779296875</AltitudeMeters>
            <DistanceMeters>NAN</DistanceMeters>
          </Trackpoint>
          <Trackpoint>
            <Time>2021-08-14T12:15:12.000Z</Time>
            <Position>
              <LatitudeDegrees>42.93700064532458782196044921875</LatitudeDegrees>
              <LongitudeDegrees>-1.8288345448672771453857421875</LongitudeDegrees>
            </Position>
            <AltitudeMeters>479.79998779296875</AltitudeMeters>
            <DistanceMeters>NAN</DistanceMeters>
          </Trackpoint>
          <Trackpoint>
            <Time>2021-08-14T12:15:13.000Z</Time>
            <Position>
              <LatitudeDegrees>42.9369861446321010589599609375</LatitudeDegrees>
              <LongitudeDegrees>-1.8288774602115154266357421875</LongitudeDegrees>
            </Position>
            <AltitudeMeters>479.79998779296875</AltitudeMeters>
            <DistanceMeters>NAN</DistanceMeters>
          </Trackpoint>
          <Trackpoint>
            <Time>2021-08-14T12:15:15.000Z</Time>
            <Position>
              <LatitudeDegrees>42.9369536228477954864501953125</LatitudeDegrees>
              <LongitudeDegrees>-1.82895365171134471893310546875</LongitudeDegrees>
            </Position>
            <AltitudeMeters>479.79998779296875</AltitudeMeters>
            <DistanceMeters>NAN</DistanceMeters>
          </Trackpoint>
          <Trackpoint>
            <Time>2021-08-14T12:15:18.000Z</Time>
            <Position>
              <LatitudeDegrees>42.9369086958467960357666015625</LatitudeDegrees>
              <LongitudeDegrees>-1.829061694443225860595703125</LongitudeDegrees>
            </Position>
            <AltitudeMeters>479.79998779296875</AltitudeMeters>
            <DistanceMeters>NAN</DistanceMeters>
          </Trackpoint>
          <Trackpoint>
            <Time>2021-08-14T12:15:19.000Z</Time>
            <Position>
              <LatitudeDegrees>42.9368939436972141265869140625</LatitudeDegrees>
              <LongitudeDegrees>-1.82909111492335796356201171875</LongitudeDegrees>
            </Position>
            <AltitudeMeters>479.79998779296875</AltitudeMeters>
            <DistanceMeters>NAN</DistanceMeters>
          </Trackpoint>
          <Trackpoint>
            <Time>2021-08-14T12:15:20.000Z</Time>
            <Position>
              <LatitudeDegrees>42.93688061647117137908935546875</LatitudeDegrees>
              <LongitudeDegrees>-1.82912045158445835113525390625</LongitudeDegrees>
            </Position>
            <AltitudeMeters>480</AltitudeMeters>
            <DistanceMeters>NAN</DistanceMeters>
          </Trackpoint>
          <Trackpoint>
            <Time>2021-08-14T12:15:21.000Z</Time>
            <Position>
              <LatitudeDegrees>42.9368644393980503082275390625</LatitudeDegrees>
              <LongitudeDegrees>-1.82915247045457363128662109375</LongitudeDegrees>
            </Position>
            <AltitudeMeters>480</AltitudeMeters>
            <DistanceMeters>NAN</DistanceMeters>
          </Trackpoint>
          <Trackpoint>
            <Time>2021-08-14T12:15:23.000Z</Time>
            <Position>
              <LatitudeDegrees>42.93683384545147418975830078125</LatitudeDegrees>
              <LongitudeDegrees>-1.82922204025089740753173828125</LongitudeDegrees>
            </Position>
            <AltitudeMeters>480</AltitudeMeters>
            <DistanceMeters>NAN</DistanceMeters>
          </Trackpoint>
          <Trackpoint>
            <Time>2021-08-14T12:15:25.000Z</Time>
            <Position>
              <LatitudeDegrees>42.93680685572326183319091796875</LatitudeDegrees>
              <LongitudeDegrees>-1.8292911909520626068115234375</LongitudeDegrees>
            </Position>
            <AltitudeMeters>480</AltitudeMeters>
            <DistanceMeters>NAN</DistanceMeters>
          </Trackpoint>
          <Trackpoint>
            <Time>2021-08-14T12:15:26.000Z</Time>
            <Position>
              <LatitudeDegrees>42.93679093010723590850830078125</LatitudeDegrees>
              <LongitudeDegrees>-1.82932513765990734100341796875</LongitudeDegrees>
            </Position>
            <AltitudeMeters>480</AltitudeMeters>
            <DistanceMeters>NAN</DistanceMeters>
          </Trackpoint>
          <Trackpoint>
            <Time>2021-08-14T12:15:30.000Z</Time>
            <Position>
              <LatitudeDegrees>42.93671750463545322418212890625</LatitudeDegrees>
              <LongitudeDegrees>-1.82946033775806427001953125</LongitudeDegrees>
            </Position>
            <AltitudeMeters>480.20001220703125</AltitudeMeters>
            <DistanceMeters>NAN</DistanceMeters>
          </Trackpoint>
          <Trackpoint>
            <Time>2021-08-14T12:15:35.000Z</Time>
            <Position>
              <LatitudeDegrees>42.9366210289299488067626953125</LatitudeDegrees>
              <LongitudeDegrees>-1.8296107091009616851806640625</LongitudeDegrees>
            </Position>
            <AltitudeMeters>480.399993896484375</AltitudeMeters>
            <DistanceMeters>NAN</DistanceMeters>
          </Trackpoint>
          <Trackpoint>
            <Time>2021-08-14T12:15:36.000Z</Time>
            <Position>
              <LatitudeDegrees>42.93660367839038372039794921875</LatitudeDegrees>
              <LongitudeDegrees>-1.82962504215538501739501953125</LongitudeDegrees>
            </Position>
            <AltitudeMeters>480.600006103515625</AltitudeMeters>
            <DistanceMeters>NAN</DistanceMeters>
          </Trackpoint>
          <Trackpoint>
            <Time>2021-08-14T12:15:37.000Z</Time>
            <Position>
              <LatitudeDegrees>42.93658808805048465728759765625</LatitudeDegrees>
              <LongitudeDegrees>-1.8296392075717449188232421875</LongitudeDegrees>
            </Position>
            <AltitudeMeters>480.600006103515625</AltitudeMeters>
            <DistanceMeters>NAN</DistanceMeters>
          </Trackpoint>
          <Trackpoint>
            <Time>2021-08-14T12:15:41.000Z</Time>
            <Position>
              <LatitudeDegrees>42.93650309555232524871826171875</LatitudeDegrees>
              <LongitudeDegrees>-1.8297116272151470184326171875</LongitudeDegrees>
            </Position>
            <AltitudeMeters>481</AltitudeMeters>
            <DistanceMeters>NAN</DistanceMeters>
          </Trackpoint>
          <Trackpoint>
            <Time>2021-08-14T12:15:42.000Z</Time>
            <Position>
              <LatitudeDegrees>42.93648733757436275482177734375</LatitudeDegrees>
              <LongitudeDegrees>-1.82972830720245838165283203125</LongitudeDegrees>
            </Position>
            <AltitudeMeters>481</AltitudeMeters>
            <DistanceMeters>NAN</DistanceMeters>
          </Trackpoint>
          <Trackpoint>
            <Time>2021-08-14T12:15:43.000Z</Time>
            <Position>
              <LatitudeDegrees>42.93646805919706821441650390625</LatitudeDegrees>
              <LongitudeDegrees>-1.82974490337073802947998046875</LongitudeDegrees>
            </Position>
            <AltitudeMeters>481</AltitudeMeters>
            <DistanceMeters>NAN</DistanceMeters>
          </Trackpoint>
          <Trackpoint>
            <Time>2021-08-14T12:15:48.000Z</Time>
            <Position>
              <LatitudeDegrees>42.9363620281219482421875</LatitudeDegrees>
              <LongitudeDegrees>-1.829799301922321319580078125</LongitudeDegrees>
            </Position>
            <AltitudeMeters>481.20001220703125</AltitudeMeters>
            <DistanceMeters>NAN</DistanceMeters>
          </Trackpoint>
          <Trackpoint>
            <Time>2021-08-14T12:15:49.000Z</Time>
            <Position>
              <LatitudeDegrees>42.9363420791923999786376953125</LatitudeDegrees>
              <LongitudeDegrees>-1.829802989959716796875</LongitudeDegrees>
            </Position>
            <AltitudeMeters>481.399993896484375</AltitudeMeters>
            <DistanceMeters>NAN</DistanceMeters>
          </Trackpoint>
          <Trackpoint>
            <Time>2021-08-14T12:15:50.000Z</Time>
            <Position>
              <LatitudeDegrees>42.936316765844821929931640625</LatitudeDegrees>
              <LongitudeDegrees>-1.829802654683589935302734375</LongitudeDegrees>
            </Position>
            <AltitudeMeters>481.399993896484375</AltitudeMeters>
            <DistanceMeters>NAN</DistanceMeters>
          </Trackpoint>
          <Trackpoint>
            <Time>2021-08-14T12:15:51.000Z</Time>
            <Position>
              <LatitudeDegrees>42.93629639782011508941650390625</LatitudeDegrees>
              <LongitudeDegrees>-1.829801313579082489013671875</LongitudeDegrees>
            </Position>
            <AltitudeMeters>481.399993896484375</AltitudeMeters>
            <DistanceMeters>NAN</DistanceMeters>
          </Trackpoint>
          <Trackpoint>
            <Time>2021-08-14T12:15:52.000Z</Time>
            <Position>
              <LatitudeDegrees>42.93627686798572540283203125</LatitudeDegrees>
              <LongitudeDegrees>-1.829805336892604827880859375</LongitudeDegrees>
            </Position>
            <AltitudeMeters>481.399993896484375</AltitudeMeters>
            <DistanceMeters>NAN</DistanceMeters>
          </Trackpoint>
          <Trackpoint>
            <Time>2021-08-14T12:15:53.000Z</Time>
            <Position>
              <LatitudeDegrees>42.93625649996101856231689453125</LatitudeDegrees>
              <LongitudeDegrees>-1.82981078512966632843017578125</LongitudeDegrees>
            </Position>
            <AltitudeMeters>481.600006103515625</AltitudeMeters>
            <DistanceMeters>NAN</DistanceMeters>
          </Trackpoint>
          <Trackpoint>
            <Time>2021-08-14T12:15:54.000Z</Time>
            <Position>
              <LatitudeDegrees>42.9362346231937408447265625</LatitudeDegrees>
              <LongitudeDegrees>-1.82981782592833042144775390625</LongitudeDegrees>
            </Position>
            <AltitudeMeters>481.600006103515625</AltitudeMeters>
            <DistanceMeters>NAN</DistanceMeters>
          </Trackpoint>
          <Trackpoint>
            <Time>2021-08-14T12:15:55.000Z</Time>
            <Position>
              <LatitudeDegrees>42.93621224351227283477783203125</LatitudeDegrees>
              <LongitudeDegrees>-1.82981841266155242919921875</LongitudeDegrees>
            </Position>
            <AltitudeMeters>481.600006103515625</AltitudeMeters>
            <DistanceMeters>NAN</DistanceMeters>
          </Trackpoint>
          <Trackpoint>
            <Time>2021-08-14T12:15:56.000Z</Time>
            <Position>
              <LatitudeDegrees>42.9361885227262973785400390625</LatitudeDegrees>
              <LongitudeDegrees>-1.8298244476318359375</LongitudeDegrees>
            </Position>
            <AltitudeMeters>481.600006103515625</AltitudeMeters>
            <DistanceMeters>NAN</DistanceMeters>
          </Trackpoint>
          <Trackpoint>
            <Time>2021-08-14T12:16:01.000Z</Time>
            <Position>
              <LatitudeDegrees>42.93605684302747249603271484375</LatitudeDegrees>
              <LongitudeDegrees>-1.8298658542335033416748046875</LongitudeDegrees>
            </Position>
            <AltitudeMeters>482</AltitudeMeters>
            <DistanceMeters>NAN</DistanceMeters>
          </Trackpoint>
          <Trackpoint>
            <Time>2021-08-14T12:16:02.000Z</Time>
            <Position>
              <LatitudeDegrees>42.93603789992630481719970703125</LatitudeDegrees>
              <LongitudeDegrees>-1.8298740684986114501953125</LongitudeDegrees>
            </Position>
            <AltitudeMeters>482</AltitudeMeters>
            <DistanceMeters>NAN</DistanceMeters>
          </Trackpoint>
          <Trackpoint>
            <Time>2021-08-14T12:16:03.000Z</Time>
            <Position>
              <LatitudeDegrees>42.936017699539661407470703125</LatitudeDegrees>
              <LongitudeDegrees>-1.82987649925053119659423828125</LongitudeDegrees>
            </Position>
            <AltitudeMeters>482.20001220703125</AltitudeMeters>
            <DistanceMeters>NAN</DistanceMeters>
          </Trackpoint>
          <Trackpoint>
            <Time>2021-08-14T12:16:05.000Z</Time>
            <Position>
              <LatitudeDegrees>42.93597503565251827239990234375</LatitudeDegrees>
              <LongitudeDegrees>-1.8298782594501972198486328125</LongitudeDegrees>
            </Position>
            <AltitudeMeters>482.20001220703125</AltitudeMeters>
            <DistanceMeters>NAN</DistanceMeters>
          </Trackpoint>
          <Trackpoint>
            <Time>2021-08-14T12:16:06.000Z</Time>
            <Position>
              <LatitudeDegrees>42.935950644314289093017578125</LatitudeDegrees>
              <LongitudeDegrees>-1.82987180538475513458251953125</LongitudeDegrees>
            </Position>
            <AltitudeMeters>482.399993896484375</AltitudeMeters>
            <DistanceMeters>NAN</DistanceMeters>
          </Trackpoint>
          <Trackpoint>
            <Time>2021-08-14T12:16:10.000Z</Time>
            <Position>
              <LatitudeDegrees>42.93583975173532962799072265625</LatitudeDegrees>
              <LongitudeDegrees>-1.82984129525721073150634765625</LongitudeDegrees>
            </Position>
            <AltitudeMeters>482.399993896484375</AltitudeMeters>
            <DistanceMeters>NAN</DistanceMeters>
          </Trackpoint>
          <Trackpoint>
            <Time>2021-08-14T12:16:11.000Z</Time>
            <Position>
              <LatitudeDegrees>42.9358063079416751861572265625</LatitudeDegrees>
              <LongitudeDegrees>-1.82982972823083400726318359375</LongitudeDegrees>
            </Position>
            <AltitudeMeters>482.600006103515625</AltitudeMeters>
            <DistanceMeters>NAN</DistanceMeters>
          </Trackpoint>
          <Trackpoint>
            <Time>2021-08-14T12:16:12.000Z</Time>
            <Position>
              <LatitudeDegrees>42.935772277414798736572265625</LatitudeDegrees>
              <LongitudeDegrees>-1.8298272974789142608642578125</LongitudeDegrees>
            </Position>
            <AltitudeMeters>482.600006103515625</AltitudeMeters>
            <DistanceMeters>NAN</DistanceMeters>
          </Trackpoint>
          <Trackpoint>
            <Time>2021-08-14T12:16:16.000Z</Time>
            <Position>
              <LatitudeDegrees>42.93563992716372013092041015625</LatitudeDegrees>
              <LongitudeDegrees>-1.8297937698662281036376953125</LongitudeDegrees>
            </Position>
            <AltitudeMeters>482.600006103515625</AltitudeMeters>
            <DistanceMeters>NAN</DistanceMeters>
          </Trackpoint>
          <Trackpoint>
            <Time>2021-08-14T12:16:17.000Z</Time>
            <Position>
              <LatitudeDegrees>42.93560807593166828155517578125</LatitudeDegrees>
              <LongitudeDegrees>-1.82978044264018535614013671875</LongitudeDegrees>
            </Position>
            <AltitudeMeters>482.600006103515625</AltitudeMeters>
            <DistanceMeters>NAN</DistanceMeters>
          </Trackpoint>
          <Trackpoint>
            <Time>2021-08-14T12:16:18.000Z</Time>
            <Position>
              <LatitudeDegrees>42.9355846904218196868896484375</LatitudeDegrees>
              <LongitudeDegrees>-1.82976418174803256988525390625</LongitudeDegrees>
            </Position>
            <AltitudeMeters>482.600006103515625</AltitudeMeters>
            <DistanceMeters>NAN</DistanceMeters>
          </Trackpoint>
          <Trackpoint>
            <Time>2021-08-14T12:16:19.000Z</Time>
            <Position>
              <LatitudeDegrees>42.9355452954769134521484375</LatitudeDegrees>
              <LongitudeDegrees>-1.82974440045654773712158203125</LongitudeDegrees>
            </Position>
            <AltitudeMeters>482.600006103515625</AltitudeMeters>
            <DistanceMeters>NAN</DistanceMeters>
          </Trackpoint>
          <Trackpoint>
            <Time>2021-08-14T12:16:22.000Z</Time>
            <Position>
              <LatitudeDegrees>42.93548486195504665374755859375</LatitudeDegrees>
              <LongitudeDegrees>-1.82969008572399616241455078125</LongitudeDegrees>
            </Position>
            <AltitudeMeters>482.600006103515625</AltitudeMeters>
            <DistanceMeters>NAN</DistanceMeters>
          </Trackpoint>
          <Trackpoint>
            <Time>2021-08-14T12:16:23.000Z</Time>
            <Position>
              <LatitudeDegrees>42.93545653112232685089111328125</LatitudeDegrees>
              <LongitudeDegrees>-1.8296623416244983673095703125</LongitudeDegrees>
            </Position>
            <AltitudeMeters>482.600006103515625</AltitudeMeters>
            <DistanceMeters>NAN</DistanceMeters>
          </Trackpoint>
          <Trackpoint>
            <Time>2021-08-14T12:16:24.000Z</Time>
            <Position>
              <LatitudeDegrees>42.93542568571865558624267578125</LatitudeDegrees>
              <LongitudeDegrees>-1.82963526807725429534912109375</LongitudeDegrees>
            </Position>
            <AltitudeMeters>482.600006103515625</AltitudeMeters>
            <DistanceMeters>NAN</DistanceMeters>
          </Trackpoint>
          <Trackpoint>
            <Time>2021-08-14T12:16:25.000Z</Time>
            <Position>
              <LatitudeDegrees>42.9353977739810943603515625</LatitudeDegrees>
              <LongitudeDegrees>-1.8296177498996257781982421875</LongitudeDegrees>
            </Position>
            <AltitudeMeters>482.600006103515625</AltitudeMeters>
            <DistanceMeters>NAN</DistanceMeters>
          </Trackpoint>
          <Trackpoint>
            <Time>2021-08-14T12:16:27.000Z</Time>
            <Position>
              <LatitudeDegrees>42.93528906069695949554443359375</LatitudeDegrees>
              <LongitudeDegrees>-1.82955396361649036407470703125</LongitudeDegrees>
            </Position>
            <AltitudeMeters>482.600006103515625</AltitudeMeters>
            <DistanceMeters>NAN</DistanceMeters>
          </Trackpoint>
          <Trackpoint>
            <Time>2021-08-14T12:16:30.000Z</Time>
            <Position>
              <LatitudeDegrees>42.93519116006791591644287109375</LatitudeDegrees>
              <LongitudeDegrees>-1.82951037771999835968017578125</LongitudeDegrees>
            </Position>
            <AltitudeMeters>482.79998779296875</AltitudeMeters>
            <DistanceMeters>NAN</DistanceMeters>
          </Trackpoint>
          <Trackpoint>
            <Time>2021-08-14T12:16:36.000Z</Time>
            <Position>
              <LatitudeDegrees>42.93501622974872589111328125</LatitudeDegrees>
              <LongitudeDegrees>-1.82940241880714893341064453125</LongitudeDegrees>
            </Position>
            <AltitudeMeters>482.79998779296875</AltitudeMeters>
            <DistanceMeters>NAN</DistanceMeters>
          </Trackpoint>
          <Trackpoint>
            <Time>2021-08-14T12:16:42.000Z</Time>
            <Position>
              <LatitudeDegrees>42.9348849691450595855712890625</LatitudeDegrees>
              <LongitudeDegrees>-1.82928356342017650604248046875</LongitudeDegrees>
            </Position>
            <AltitudeMeters>482.79998779296875</AltitudeMeters>
            <DistanceMeters>NAN</DistanceMeters>
          </Trackpoint>
          <Trackpoint>
            <Time>2021-08-14T12:16:43.000Z</Time>
            <Position>
              <LatitudeDegrees>42.93486812151968479156494140625</LatitudeDegrees>
              <LongitudeDegrees>-1.8292744271457195281982421875</LongitudeDegrees>
            </Position>
            <AltitudeMeters>482.79998779296875</AltitudeMeters>
            <DistanceMeters>NAN</DistanceMeters>
          </Trackpoint>
          <Trackpoint>
            <Time>2021-08-14T12:16:44.000Z</Time>
            <Position>
              <LatitudeDegrees>42.93484666384756565093994140625</LatitudeDegrees>
              <LongitudeDegrees>-1.8292767740786075592041015625</LongitudeDegrees>
            </Position>
            <AltitudeMeters>482.79998779296875</AltitudeMeters>
            <DistanceMeters>NAN</DistanceMeters>
          </Trackpoint>
          <Trackpoint>
            <Time>2021-08-14T12:16:45.000Z</Time>
            <Position>
              <LatitudeDegrees>42.93481799773871898651123046875</LatitudeDegrees>
              <LongitudeDegrees>-1.82928121648728847503662109375</LongitudeDegrees>
            </Position>
            <AltitudeMeters>482.79998779296875</AltitudeMeters>
            <DistanceMeters>NAN</DistanceMeters>
          </Trackpoint>
          <Trackpoint>
            <Time>2021-08-14T12:16:46.000Z</Time>
            <Position>
              <LatitudeDegrees>42.93478698469698429107666015625</LatitudeDegrees>
              <LongitudeDegrees>-1.82927199639379978179931640625</LongitudeDegrees>
            </Position>
            <AltitudeMeters>482.79998779296875</AltitudeMeters>
            <DistanceMeters>NAN</DistanceMeters>
          </Trackpoint>
          <Trackpoint>
            <Time>2021-08-14T12:16:48.000Z</Time>
            <Position>
              <LatitudeDegrees>42.93471255339682102203369140625</LatitudeDegrees>
              <LongitudeDegrees>-1.829242072999477386474609375</LongitudeDegrees>
            </Position>
            <AltitudeMeters>482.600006103515625</AltitudeMeters>
            <DistanceMeters>NAN</DistanceMeters>
          </Trackpoint>
          <Trackpoint>
            <Time>2021-08-14T12:16:51.000Z</Time>
            <Position>
              <LatitudeDegrees>42.93457659892737865447998046875</LatitudeDegrees>
              <LongitudeDegrees>-1.829210221767425537109375</LongitudeDegrees>
            </Position>
            <AltitudeMeters>482.399993896484375</AltitudeMeters>
            <DistanceMeters>NAN</DistanceMeters>
          </Trackpoint>
          <Trackpoint>
            <Time>2021-08-14T12:16:52.000Z</Time>
            <Position>
              <LatitudeDegrees>42.93454550206661224365234375</LatitudeDegrees>
              <LongitudeDegrees>-1.82920058257877826690673828125</LongitudeDegrees>
            </Position>
            <AltitudeMeters>482.399993896484375</AltitudeMeters>
            <DistanceMeters>NAN</DistanceMeters>
          </Trackpoint>
          <Trackpoint>
            <Time>2021-08-14T12:16:53.000Z</Time>
            <Position>
              <LatitudeDegrees>42.93452898971736431121826171875</LatitudeDegrees>
              <LongitudeDegrees>-1.82919253595173358917236328125</LongitudeDegrees>
            </Position>
            <AltitudeMeters>482.399993896484375</AltitudeMeters>
            <DistanceMeters>NAN</DistanceMeters>
          </Trackpoint>
          <Trackpoint>
            <Time>2021-08-14T12:16:54.000Z</Time>
            <Position>
              <LatitudeDegrees>42.9345074482262134552001953125</LatitudeDegrees>
              <LongitudeDegrees>-1.82917560450732707977294921875</LongitudeDegrees>
            </Position>
            <AltitudeMeters>482.399993896484375</AltitudeMeters>
            <DistanceMeters>NAN</DistanceMeters>
          </Trackpoint>
          <Trackpoint>
            <Time>2021-08-14T12:16:55.000Z</Time>
            <Position>
              <LatitudeDegrees>42.934492528438568115234375</LatitudeDegrees>
              <LongitudeDegrees>-1.82915900833904743194580078125</LongitudeDegrees>
            </Position>
            <AltitudeMeters>482.399993896484375</AltitudeMeters>
            <DistanceMeters>NAN</DistanceMeters>
          </Trackpoint>
          <Trackpoint>
            <Time>2021-08-14T12:16:56.000Z</Time>
            <Position>
              <LatitudeDegrees>42.93447752483189105987548828125</LatitudeDegrees>
              <LongitudeDegrees>-1.82914358563721179962158203125</LongitudeDegrees>
            </Position>
            <AltitudeMeters>482.399993896484375</AltitudeMeters>
            <DistanceMeters>NAN</DistanceMeters>
          </Trackpoint>
          <Trackpoint>
            <Time>2021-08-14T12:16:58.000Z</Time>
            <Position>
              <LatitudeDegrees>42.93445019982755184173583984375</LatitudeDegrees>
              <LongitudeDegrees>-1.8291262350976467132568359375</LongitudeDegrees>
            </Position>
            <AltitudeMeters>482.399993896484375</AltitudeMeters>
            <DistanceMeters>NAN</DistanceMeters>
          </Trackpoint>
          <Trackpoint>
            <Time>2021-08-14T12:16:59.000Z</Time>
            <Position>
              <LatitudeDegrees>42.93443310074508190155029296875</LatitudeDegrees>
              <LongitudeDegrees>-1.8291111476719379425048828125</LongitudeDegrees>
            </Position>
            <AltitudeMeters>482.399993896484375</AltitudeMeters>
            <DistanceMeters>NAN</DistanceMeters>
          </Trackpoint>
          <Trackpoint>
            <Time>2021-08-14T12:17:00.000Z</Time>
            <Position>
              <LatitudeDegrees>42.93442354537546634674072265625</LatitudeDegrees>
              <LongitudeDegrees>-1.82909815572202205657958984375</LongitudeDegrees>
            </Position>
            <AltitudeMeters>482.399993896484375</AltitudeMeters>
            <DistanceMeters>NAN</DistanceMeters>
          </Trackpoint>
          <Trackpoint>
            <Time>2021-08-14T12:17:01.000Z</Time>
            <Position>
              <LatitudeDegrees>42.93441432528197765350341796875</LatitudeDegrees>
              <LongitudeDegrees>-1.829087845981121063232421875</LongitudeDegrees>
            </Position>
            <AltitudeMeters>482.600006103515625</AltitudeMeters>
            <DistanceMeters>NAN</DistanceMeters>
          </Trackpoint>
          <Trackpoint>
            <Time>2021-08-14T12:17:02.000Z</Time>
            <Position>
              <LatitudeDegrees>42.93440544046461582183837890625</LatitudeDegrees>
              <LongitudeDegrees>-1.82907585985958576202392578125</LongitudeDegrees>
            </Position>
            <AltitudeMeters>482.79998779296875</AltitudeMeters>
            <DistanceMeters>NAN</DistanceMeters>
          </Trackpoint>
          <Trackpoint>
            <Time>2021-08-14T12:17:03.000Z</Time>
            <Position>
              <LatitudeDegrees>42.9343973100185394287109375</LatitudeDegrees>
              <LongitudeDegrees>-1.82906462810933589935302734375</LongitudeDegrees>
            </Position>
            <AltitudeMeters>482.79998779296875</AltitudeMeters>
            <DistanceMeters>NAN</DistanceMeters>
          </Trackpoint>
          <Trackpoint>
            <Time>2021-08-14T12:17:07.000Z</Time>
            <Position>
              <LatitudeDegrees>42.9343438334763050079345703125</LatitudeDegrees>
              <LongitudeDegrees>-1.8290031887590885162353515625</LongitudeDegrees>
            </Position>
            <AltitudeMeters>482.79998779296875</AltitudeMeters>
            <DistanceMeters>NAN</DistanceMeters>
          </Trackpoint>
          <Trackpoint>
            <Time>2021-08-14T12:17:08.000Z</Time>
            <Position>
              <LatitudeDegrees>42.93433134444057941436767578125</LatitudeDegrees>
              <LongitudeDegrees>-1.82898919098079204559326171875</LongitudeDegrees>
            </Position>
            <AltitudeMeters>482.600006103515625</AltitudeMeters>
            <DistanceMeters>NAN</DistanceMeters>
          </Trackpoint>
          <Trackpoint>
            <Time>2021-08-14T12:17:14.000Z</Time>
            <Position>
              <LatitudeDegrees>42.93422204442322254180908203125</LatitudeDegrees>
              <LongitudeDegrees>-1.82884887792170047760009765625</LongitudeDegrees>
            </Position>
            <AltitudeMeters>482.399993896484375</AltitudeMeters>
            <DistanceMeters>NAN</DistanceMeters>
          </Trackpoint>
          <Trackpoint>
            <Time>2021-08-14T12:17:15.000Z</Time>
            <Position>
              <LatitudeDegrees>42.9341896064579486846923828125</LatitudeDegrees>
              <LongitudeDegrees>-1.828793473541736602783203125</LongitudeDegrees>
            </Position>
            <AltitudeMeters>482.399993896484375</AltitudeMeters>
            <DistanceMeters>NAN</DistanceMeters>
          </Trackpoint>
          <Trackpoint>
            <Time>2021-08-14T12:17:24.000Z</Time>
            <Position>
              <LatitudeDegrees>42.9338593594729900360107421875</LatitudeDegrees>
              <LongitudeDegrees>-1.828265078365802764892578125</LongitudeDegrees>
            </Position>
            <AltitudeMeters>483.399993896484375</AltitudeMeters>
            <DistanceMeters>NAN</DistanceMeters>
          </Trackpoint>
          <Trackpoint>
            <Time>2021-08-14T12:17:26.000Z</Time>
            <Position>
              <LatitudeDegrees>42.933772690594196319580078125</LatitudeDegrees>
              <LongitudeDegrees>-1.8282920680940151214599609375</LongitudeDegrees>
            </Position>
            <AltitudeMeters>483.600006103515625</AltitudeMeters>
            <DistanceMeters>NAN</DistanceMeters>
          </Trackpoint>
          <Trackpoint>
            <Time>2021-08-14T12:17:27.000Z</Time>
            <Position>
              <LatitudeDegrees>42.9337346367537975311279296875</LatitudeDegrees>
              <LongitudeDegrees>-1.828298270702362060546875</LongitudeDegrees>
            </Position>
            <AltitudeMeters>483.600006103515625</AltitudeMeters>
            <DistanceMeters>NAN</DistanceMeters>
          </Trackpoint>
          <Trackpoint>
            <Time>2021-08-14T12:17:28.000Z</Time>
            <Position>
              <LatitudeDegrees>42.93369566090404987335205078125</LatitudeDegrees>
              <LongitudeDegrees>-1.8282902240753173828125</LongitudeDegrees>
            </Position>
            <AltitudeMeters>483.600006103515625</AltitudeMeters>
            <DistanceMeters>NAN</DistanceMeters>
          </Trackpoint>
          <Trackpoint>
            <Time>2021-08-14T12:17:29.000Z</Time>
            <Position>
              <LatitudeDegrees>42.93364562094211578369140625</LatitudeDegrees>
              <LongitudeDegrees>-1.82830187492072582244873046875</LongitudeDegrees>
            </Position>
            <AltitudeMeters>483.600006103515625</AltitudeMeters>
            <DistanceMeters>NAN</DistanceMeters>
          </Trackpoint>
          <Trackpoint>
            <Time>2021-08-14T12:17:31.000Z</Time>
            <Position>
              <LatitudeDegrees>42.93355719186365604400634765625</LatitudeDegrees>
              <LongitudeDegrees>-1.82832450605928897857666015625</LongitudeDegrees>
            </Position>
            <AltitudeMeters>483.79998779296875</AltitudeMeters>
            <DistanceMeters>NAN</DistanceMeters>
          </Trackpoint>
          <Trackpoint>
            <Time>2021-08-14T12:17:33.000Z</Time>
            <Position>
              <LatitudeDegrees>42.93348343111574649810791015625</LatitudeDegrees>
              <LongitudeDegrees>-1.828341521322727203369140625</LongitudeDegrees>
            </Position>
            <AltitudeMeters>484</AltitudeMeters>
            <DistanceMeters>NAN</DistanceMeters>
          </Trackpoint>
          <Trackpoint>
            <Time>2021-08-14T12:17:34.000Z</Time>
            <Position>
              <LatitudeDegrees>42.93345786631107330322265625</LatitudeDegrees>
              <LongitudeDegrees>-1.82834378443658351898193359375</LongitudeDegrees>
            </Position>
            <AltitudeMeters>484</AltitudeMeters>
            <DistanceMeters>NAN</DistanceMeters>
          </Trackpoint>
          <Trackpoint>
            <Time>2021-08-14T12:17:35.000Z</Time>
            <Position>
              <LatitudeDegrees>42.933429367840290069580078125</LatitudeDegrees>
              <LongitudeDegrees>-1.82832886464893817901611328125</LongitudeDegrees>
            </Position>
            <AltitudeMeters>484.20001220703125</AltitudeMeters>
            <DistanceMeters>NAN</DistanceMeters>
          </Trackpoint>
          <Trackpoint>
            <Time>2021-08-14T12:17:36.000Z</Time>
            <Position>
              <LatitudeDegrees>42.93338921852409839630126953125</LatitudeDegrees>
              <LongitudeDegrees>-1.82834479026496410369873046875</LongitudeDegrees>
            </Position>
            <AltitudeMeters>484.20001220703125</AltitudeMeters>
            <DistanceMeters>NAN</DistanceMeters>
          </Trackpoint>
          <Trackpoint>
            <Time>2021-08-14T12:17:37.000Z</Time>
            <Position>
              <LatitudeDegrees>42.9333413578569889068603515625</LatitudeDegrees>
              <LongitudeDegrees>-1.82836121879518032073974609375</LongitudeDegrees>
            </Position>
            <AltitudeMeters>484.20001220703125</AltitudeMeters>
            <DistanceMeters>NAN</DistanceMeters>
          </Trackpoint>
          <Trackpoint>
            <Time>2021-08-14T12:17:38.000Z</Time>
            <Position>
              <LatitudeDegrees>42.933301962912082672119140625</LatitudeDegrees>
              <LongitudeDegrees>-1.82837278582155704498291015625</LongitudeDegrees>
            </Position>
            <AltitudeMeters>484.399993896484375</AltitudeMeters>
            <DistanceMeters>NAN</DistanceMeters>
          </Trackpoint>
          <Trackpoint>
            <Time>2021-08-14T12:17:39.000Z</Time>
            <Position>
              <LatitudeDegrees>42.9332721233367919921875</LatitudeDegrees>
              <LongitudeDegrees>-1.828381754457950592041015625</LongitudeDegrees>
            </Position>
            <AltitudeMeters>484.399993896484375</AltitudeMeters>
            <DistanceMeters>NAN</DistanceMeters>
          </Trackpoint>
          <Trackpoint>
            <Time>2021-08-14T12:17:40.000Z</Time>
            <Position>
              <LatitudeDegrees>42.93323432095348834991455078125</LatitudeDegrees>
              <LongitudeDegrees>-1.8283946625888347625732421875</LongitudeDegrees>
            </Position>
            <AltitudeMeters>484.399993896484375</AltitudeMeters>
            <DistanceMeters>NAN</DistanceMeters>
          </Trackpoint>
          <Trackpoint>
            <Time>2021-08-14T12:17:41.000Z</Time>
            <Position>
              <LatitudeDegrees>42.93319559656083583831787109375</LatitudeDegrees>
              <LongitudeDegrees>-1.82840832509100437164306640625</LongitudeDegrees>
            </Position>
            <AltitudeMeters>484.399993896484375</AltitudeMeters>
            <DistanceMeters>NAN</DistanceMeters>
          </Trackpoint>
          <Trackpoint>
            <Time>2021-08-14T12:17:46.000Z</Time>
            <Position>
              <LatitudeDegrees>42.93301488272845745086669921875</LatitudeDegrees>
              <LongitudeDegrees>-1.82842743583023548126220703125</LongitudeDegrees>
            </Position>
            <AltitudeMeters>485</AltitudeMeters>
            <DistanceMeters>NAN</DistanceMeters>
          </Trackpoint>
          <Trackpoint>
            <Time>2021-08-14T12:17:47.000Z</Time>
            <Position>
              <LatitudeDegrees>42.932979427278041839599609375</LatitudeDegrees>
              <LongitudeDegrees>-1.82842760346829891204833984375</LongitudeDegrees>
            </Position>
            <AltitudeMeters>485</AltitudeMeters>
            <DistanceMeters>NAN</DistanceMeters>
          </Trackpoint>
          <Trackpoint>
            <Time>2021-08-14T12:17:54.000Z</Time>
            <Position>
              <LatitudeDegrees>42.9326993040740489959716796875</LatitudeDegrees>
              <LongitudeDegrees>-1.82839147746562957763671875</LongitudeDegrees>
            </Position>
            <AltitudeMeters>485</AltitudeMeters>
            <DistanceMeters>NAN</DistanceMeters>
          </Trackpoint>
          <Trackpoint>
            <Time>2021-08-14T12:18:04.000Z</Time>
            <Position>
              <LatitudeDegrees>42.93228029273450374603271484375</LatitudeDegrees>
              <LongitudeDegrees>-1.82830355130136013031005859375</LongitudeDegrees>
            </Position>
            <AltitudeMeters>484.79998779296875</AltitudeMeters>
            <DistanceMeters>NAN</DistanceMeters>
          </Trackpoint>
          <Trackpoint>
            <Time>2021-08-14T12:18:07.000Z</Time>
            <Position>
              <LatitudeDegrees>42.932153977453708648681640625</LatitudeDegrees>
              <LongitudeDegrees>-1.82824973948299884796142578125</LongitudeDegrees>
            </Position>
            <AltitudeMeters>485</AltitudeMeters>
            <DistanceMeters>NAN</DistanceMeters>
          </Trackpoint>
          <Trackpoint>
            <Time>2021-08-14T12:18:12.000Z</Time>
            <Position>
              <LatitudeDegrees>42.93193059973418712615966796875</LatitudeDegrees>
              <LongitudeDegrees>-1.82816793210804462432861328125</LongitudeDegrees>
            </Position>
            <AltitudeMeters>485.20001220703125</AltitudeMeters>
            <DistanceMeters>NAN</DistanceMeters>
          </Trackpoint>
          <Trackpoint>
            <Time>2021-08-14T12:18:14.000Z</Time>
            <Position>
              <LatitudeDegrees>42.93184258975088596343994140625</LatitudeDegrees>
              <LongitudeDegrees>-1.82812786661088466644287109375</LongitudeDegrees>
            </Position>
            <AltitudeMeters>485.20001220703125</AltitudeMeters>
            <DistanceMeters>NAN</DistanceMeters>
          </Trackpoint>
          <Trackpoint>
            <Time>2021-08-14T12:18:20.000Z</Time>
            <Position>
              <LatitudeDegrees>42.9315918870270252227783203125</LatitudeDegrees>
              <LongitudeDegrees>-1.82797933928668498992919921875</LongitudeDegrees>
            </Position>
            <AltitudeMeters>485.79998779296875</AltitudeMeters>
            <DistanceMeters>NAN</DistanceMeters>
          </Trackpoint>
          <Trackpoint>
            <Time>2021-08-14T12:18:21.000Z</Time>
            <Position>
              <LatitudeDegrees>42.93154570274055004119873046875</LatitudeDegrees>
              <LongitudeDegrees>-1.82794623076915740966796875</LongitudeDegrees>
            </Position>
            <AltitudeMeters>485.79998779296875</AltitudeMeters>
            <DistanceMeters>NAN</DistanceMeters>
          </Trackpoint>
          <Trackpoint>
            <Time>2021-08-14T12:18:22.000Z</Time>
            <Position>
              <LatitudeDegrees>42.931518964469432830810546875</LatitudeDegrees>
              <LongitudeDegrees>-1.82792049832642078399658203125</LongitudeDegrees>
            </Position>
            <AltitudeMeters>486</AltitudeMeters>
            <DistanceMeters>NAN</DistanceMeters>
          </Trackpoint>
          <Trackpoint>
            <Time>2021-08-14T12:18:24.000Z</Time>
            <Position>
              <LatitudeDegrees>42.9314550943672657012939453125</LatitudeDegrees>
              <LongitudeDegrees>-1.82785830460488796234130859375</LongitudeDegrees>
            </Position>
            <AltitudeMeters>486.20001220703125</AltitudeMeters>
            <DistanceMeters>NAN</DistanceMeters>
          </Trackpoint>
          <Trackpoint>
            <Time>2021-08-14T12:18:25.000Z</Time>
            <Position>
              <LatitudeDegrees>42.93142181821167469024658203125</LatitudeDegrees>
              <LongitudeDegrees>-1.827829219400882720947265625</LongitudeDegrees>
            </Position>
            <AltitudeMeters>486.399993896484375</AltitudeMeters>
            <DistanceMeters>NAN</DistanceMeters>
          </Trackpoint>
          <Trackpoint>
            <Time>2021-08-14T12:18:26.000Z</Time>
            <Position>
              <LatitudeDegrees>42.93138292618095874786376953125</LatitudeDegrees>
              <LongitudeDegrees>-1.8277985416352748870849609375</LongitudeDegrees>
            </Position>
            <AltitudeMeters>486.600006103515625</AltitudeMeters>
            <DistanceMeters>NAN</DistanceMeters>
          </Trackpoint>
          <Trackpoint>
            <Time>2021-08-14T12:18:27.000Z</Time>
            <Position>
              <LatitudeDegrees>42.931359373033046722412109375</LatitudeDegrees>
              <LongitudeDegrees>-1.8277804367244243621826171875</LongitudeDegrees>
            </Position>
            <AltitudeMeters>486.600006103515625</AltitudeMeters>
            <DistanceMeters>NAN</DistanceMeters>
          </Trackpoint>
          <Trackpoint>
            <Time>2021-08-14T12:18:28.000Z</Time>
            <Position>
              <LatitudeDegrees>42.9313303716480731964111328125</LatitudeDegrees>
              <LongitudeDegrees>-1.8277551233768463134765625</LongitudeDegrees>
            </Position>
            <AltitudeMeters>486.79998779296875</AltitudeMeters>
            <DistanceMeters>NAN</DistanceMeters>
          </Trackpoint>
          <Trackpoint>
            <Time>2021-08-14T12:18:29.000Z</Time>
            <Position>
              <LatitudeDegrees>42.931300699710845947265625</LatitudeDegrees>
              <LongitudeDegrees>-1.8277291394770145416259765625</LongitudeDegrees>
            </Position>
            <AltitudeMeters>487</AltitudeMeters>
            <DistanceMeters>NAN</DistanceMeters>
          </Trackpoint>
          <Trackpoint>
            <Time>2021-08-14T12:18:30.000Z</Time>
            <Position>
              <LatitudeDegrees>42.93127111159265041351318359375</LatitudeDegrees>
              <LongitudeDegrees>-1.82770273648202419281005859375</LongitudeDegrees>
            </Position>
            <AltitudeMeters>487.20001220703125</AltitudeMeters>
            <DistanceMeters>NAN</DistanceMeters>
          </Trackpoint>
          <Trackpoint>
            <Time>2021-08-14T12:18:31.000Z</Time>
            <Position>
              <LatitudeDegrees>42.9312408529222011566162109375</LatitudeDegrees>
              <LongitudeDegrees>-1.8276768364012241363525390625</LongitudeDegrees>
            </Position>
            <AltitudeMeters>487.20001220703125</AltitudeMeters>
            <DistanceMeters>NAN</DistanceMeters>
          </Trackpoint>
          <Trackpoint>
            <Time>2021-08-14T12:18:32.000Z</Time>
            <Position>
              <LatitudeDegrees>42.93120707385241985321044921875</LatitudeDegrees>
              <LongitudeDegrees>-1.82765127159655094146728515625</LongitudeDegrees>
            </Position>
            <AltitudeMeters>487.600006103515625</AltitudeMeters>
            <DistanceMeters>NAN</DistanceMeters>
          </Trackpoint>
          <Trackpoint>
            <Time>2021-08-14T12:18:33.000Z</Time>
            <Position>
              <LatitudeDegrees>42.931170947849750518798828125</LatitudeDegrees>
              <LongitudeDegrees>-1.82762629352509975433349609375</LongitudeDegrees>
            </Position>
            <AltitudeMeters>487.600006103515625</AltitudeMeters>
            <DistanceMeters>NAN</DistanceMeters>
          </Trackpoint>
          <Trackpoint>
            <Time>2021-08-14T12:18:37.000Z</Time>
            <Position>
              <LatitudeDegrees>42.93103842996060848236083984375</LatitudeDegrees>
              <LongitudeDegrees>-1.8275313265621662139892578125</LongitudeDegrees>
            </Position>
            <AltitudeMeters>488</AltitudeMeters>
            <DistanceMeters>NAN</DistanceMeters>
          </Trackpoint>
          <Trackpoint>
            <Time>2021-08-14T12:18:38.000Z</Time>
            <Position>
              <LatitudeDegrees>42.93100272305309772491455078125</LatitudeDegrees>
              <LongitudeDegrees>-1.82750810869038105010986328125</LongitudeDegrees>
            </Position>
            <AltitudeMeters>488</AltitudeMeters>
            <DistanceMeters>NAN</DistanceMeters>
          </Trackpoint>
          <Trackpoint>
            <Time>2021-08-14T12:18:39.000Z</Time>
            <Position>
              <LatitudeDegrees>42.93096718378365039825439453125</LatitudeDegrees>
              <LongitudeDegrees>-1.827485561370849609375</LongitudeDegrees>
            </Position>
            <AltitudeMeters>488.20001220703125</AltitudeMeters>
            <DistanceMeters>NAN</DistanceMeters>
          </Trackpoint>
          <Trackpoint>
            <Time>2021-08-14T12:18:40.000Z</Time>
            <Position>
              <LatitudeDegrees>42.93093122541904449462890625</LatitudeDegrees>
              <LongitudeDegrees>-1.827464438974857330322265625</LongitudeDegrees>
            </Position>
            <AltitudeMeters>488.20001220703125</AltitudeMeters>
            <DistanceMeters>NAN</DistanceMeters>
          </Trackpoint>
          <Trackpoint>
            <Time>2021-08-14T12:18:41.000Z</Time>
            <Position>
              <LatitudeDegrees>42.93089543469250202178955078125</LatitudeDegrees>
              <LongitudeDegrees>-1.82744340039789676666259765625</LongitudeDegrees>
            </Position>
            <AltitudeMeters>488.399993896484375</AltitudeMeters>
            <DistanceMeters>NAN</DistanceMeters>
          </Trackpoint>
          <Trackpoint>
            <Time>2021-08-14T12:18:42.000Z</Time>
            <Position>
              <LatitudeDegrees>42.93085855431854724884033203125</LatitudeDegrees>
              <LongitudeDegrees>-1.8274226970970630645751953125</LongitudeDegrees>
            </Position>
            <AltitudeMeters>488.600006103515625</AltitudeMeters>
            <DistanceMeters>NAN</DistanceMeters>
          </Trackpoint>
          <Trackpoint>
            <Time>2021-08-14T12:18:43.000Z</Time>
            <Position>
              <LatitudeDegrees>42.93082150630652904510498046875</LatitudeDegrees>
              <LongitudeDegrees>-1.827402748167514801025390625</LongitudeDegrees>
            </Position>
            <AltitudeMeters>488.600006103515625</AltitudeMeters>
            <DistanceMeters>NAN</DistanceMeters>
          </Trackpoint>
          <Trackpoint>
            <Time>2021-08-14T12:18:44.000Z</Time>
            <Position>
              <LatitudeDegrees>42.93078362010419368743896484375</LatitudeDegrees>
              <LongitudeDegrees>-1.8273841403424739837646484375</LongitudeDegrees>
            </Position>
            <AltitudeMeters>488.79998779296875</AltitudeMeters>
            <DistanceMeters>NAN</DistanceMeters>
          </Trackpoint>
          <Trackpoint>
            <Time>2021-08-14T12:18:45.000Z</Time>
            <Position>
              <LatitudeDegrees>42.9307449795305728912353515625</LatitudeDegrees>
              <LongitudeDegrees>-1.8273675441741943359375</LongitudeDegrees>
            </Position>
            <AltitudeMeters>488.79998779296875</AltitudeMeters>
            <DistanceMeters>NAN</DistanceMeters>
          </Trackpoint>
          <Trackpoint>
            <Time>2021-08-14T12:18:46.000Z</Time>
            <Position>
              <LatitudeDegrees>42.93070860207080841064453125</LatitudeDegrees>
              <LongitudeDegrees>-1.827347092330455780029296875</LongitudeDegrees>
            </Position>
            <AltitudeMeters>489</AltitudeMeters>
            <DistanceMeters>NAN</DistanceMeters>
          </Trackpoint>
          <Trackpoint>
            <Time>2021-08-14T12:18:47.000Z</Time>
            <Position>
              <LatitudeDegrees>42.93067364953458309173583984375</LatitudeDegrees>
              <LongitudeDegrees>-1.82732932269573211669921875</LongitudeDegrees>
            </Position>
            <AltitudeMeters>489</AltitudeMeters>
            <DistanceMeters>NAN</DistanceMeters>
          </Trackpoint>
          <Trackpoint>
            <Time>2021-08-14T12:18:48.000Z</Time>
            <Position>
              <LatitudeDegrees>42.93063743971288204193115234375</LatitudeDegrees>
              <LongitudeDegrees>-1.82731314562261104583740234375</LongitudeDegrees>
            </Position>
            <AltitudeMeters>489.20001220703125</AltitudeMeters>
            <DistanceMeters>NAN</DistanceMeters>
          </Trackpoint>
          <Trackpoint>
            <Time>2021-08-14T12:18:49.000Z</Time>
            <Position>
              <LatitudeDegrees>42.93060139752924442291259765625</LatitudeDegrees>
              <LongitudeDegrees>-1.8272926099598407745361328125</LongitudeDegrees>
            </Position>
            <AltitudeMeters>489.20001220703125</AltitudeMeters>
            <DistanceMeters>NAN</DistanceMeters>
          </Trackpoint>
          <Trackpoint>
            <Time>2021-08-14T12:18:50.000Z</Time>
            <Position>
              <LatitudeDegrees>42.93056770227849483489990234375</LatitudeDegrees>
              <LongitudeDegrees>-1.82727810926735401153564453125</LongitudeDegrees>
            </Position>
            <AltitudeMeters>489.20001220703125</AltitudeMeters>
            <DistanceMeters>NAN</DistanceMeters>
          </Trackpoint>
          <Trackpoint>
            <Time>2021-08-14T12:18:51.000Z</Time>
            <Position>
              <LatitudeDegrees>42.9305350966751575469970703125</LatitudeDegrees>
              <LongitudeDegrees>-1.8272654525935649871826171875</LongitudeDegrees>
            </Position>
            <AltitudeMeters>489.399993896484375</AltitudeMeters>
            <DistanceMeters>NAN</DistanceMeters>
          </Trackpoint>
          <Trackpoint>
            <Time>2021-08-14T12:18:52.000Z</Time>
            <Position>
              <LatitudeDegrees>42.93050165288150310516357421875</LatitudeDegrees>
              <LongitudeDegrees>-1.8272510357201099395751953125</LongitudeDegrees>
            </Position>
            <AltitudeMeters>489.600006103515625</AltitudeMeters>
            <DistanceMeters>NAN</DistanceMeters>
          </Trackpoint>
          <Trackpoint>
            <Time>2021-08-14T12:18:53.000Z</Time>
            <Position>
              <LatitudeDegrees>42.930469214916229248046875</LatitudeDegrees>
              <LongitudeDegrees>-1.8272369541227817535400390625</LongitudeDegrees>
            </Position>
            <AltitudeMeters>489.79998779296875</AltitudeMeters>
            <DistanceMeters>NAN</DistanceMeters>
          </Trackpoint>
          <Trackpoint>
            <Time>2021-08-14T12:18:54.000Z</Time>
            <Position>
              <LatitudeDegrees>42.93043493293225765228271484375</LatitudeDegrees>
              <LongitudeDegrees>-1.82722480036318302154541015625</LongitudeDegrees>
            </Position>
            <AltitudeMeters>489.79998779296875</AltitudeMeters>
            <DistanceMeters>NAN</DistanceMeters>
          </Trackpoint>
          <Trackpoint>
            <Time>2021-08-14T12:18:55.000Z</Time>
            <Position>
              <LatitudeDegrees>42.93040174059569835662841796875</LatitudeDegrees>
              <LongitudeDegrees>-1.8272144906222820281982421875</LongitudeDegrees>
            </Position>
            <AltitudeMeters>490.20001220703125</AltitudeMeters>
            <DistanceMeters>NAN</DistanceMeters>
          </Trackpoint>
          <Trackpoint>
            <Time>2021-08-14T12:18:56.000Z</Time>
            <Position>
              <LatitudeDegrees>42.93036838062107563018798828125</LatitudeDegrees>
              <LongitudeDegrees>-1.82720351032912731170654296875</LongitudeDegrees>
            </Position>
            <AltitudeMeters>490.399993896484375</AltitudeMeters>
            <DistanceMeters>NAN</DistanceMeters>
          </Trackpoint>
          <Trackpoint>
            <Time>2021-08-14T12:18:57.000Z</Time>
            <Position>
              <LatitudeDegrees>42.93033937923610210418701171875</LatitudeDegrees>
              <LongitudeDegrees>-1.82718825526535511016845703125</LongitudeDegrees>
            </Position>
            <AltitudeMeters>490.79998779296875</AltitudeMeters>
            <DistanceMeters>NAN</DistanceMeters>
          </Trackpoint>
          <Trackpoint>
            <Time>2021-08-14T12:18:58.000Z</Time>
            <Position>
              <LatitudeDegrees>42.93030895292758941650390625</LatitudeDegrees>
              <LongitudeDegrees>-1.82717241346836090087890625</LongitudeDegrees>
            </Position>
            <AltitudeMeters>491.20001220703125</AltitudeMeters>
            <DistanceMeters>NAN</DistanceMeters>
          </Trackpoint>
          <Trackpoint>
            <Time>2021-08-14T12:18:59.000Z</Time>
            <Position>
              <LatitudeDegrees>42.93027483858168125152587890625</LatitudeDegrees>
              <LongitudeDegrees>-1.82715321891009807586669921875</LongitudeDegrees>
            </Position>
            <AltitudeMeters>491.20001220703125</AltitudeMeters>
            <DistanceMeters>NAN</DistanceMeters>
          </Trackpoint>
          <Trackpoint>
            <Time>2021-08-14T12:19:00.000Z</Time>
            <Position>
              <LatitudeDegrees>42.9302393831312656402587890625</LatitudeDegrees>
              <LongitudeDegrees>-1.82713092304766178131103515625</LongitudeDegrees>
            </Position>
            <AltitudeMeters>491.399993896484375</AltitudeMeters>
            <DistanceMeters>NAN</DistanceMeters>
          </Trackpoint>
          <Trackpoint>
            <Time>2021-08-14T12:19:01.000Z</Time>
            <Position>
              <LatitudeDegrees>42.93019420467317104339599609375</LatitudeDegrees>
              <LongitudeDegrees>-1.8271033465862274169921875</LongitudeDegrees>
            </Position>
            <AltitudeMeters>491.600006103515625</AltitudeMeters>
            <DistanceMeters>NAN</DistanceMeters>
          </Trackpoint>
          <Trackpoint>
            <Time>2021-08-14T12:19:02.000Z</Time>
            <Position>
              <LatitudeDegrees>42.9301621019840240478515625</LatitudeDegrees>
              <LongitudeDegrees>-1.827086247503757476806640625</LongitudeDegrees>
            </Position>
            <AltitudeMeters>491.79998779296875</AltitudeMeters>
            <DistanceMeters>NAN</DistanceMeters>
          </Trackpoint>
          <Trackpoint>
            <Time>2021-08-14T12:19:03.000Z</Time>
            <Position>
              <LatitudeDegrees>42.9301072843372821807861328125</LatitudeDegrees>
              <LongitudeDegrees>-1.82706571184098720550537109375</LongitudeDegrees>
            </Position>
            <AltitudeMeters>492</AltitudeMeters>
            <DistanceMeters>NAN</DistanceMeters>
          </Trackpoint>
          <Trackpoint>
            <Time>2021-08-14T12:19:04.000Z</Time>
            <Position>
              <LatitudeDegrees>42.930071912705898284912109375</LatitudeDegrees>
              <LongitudeDegrees>-1.82704903185367584228515625</LongitudeDegrees>
            </Position>
            <AltitudeMeters>492.20001220703125</AltitudeMeters>
            <DistanceMeters>NAN</DistanceMeters>
          </Trackpoint>
          <Trackpoint>
            <Time>2021-08-14T12:19:05.000Z</Time>
            <Position>
              <LatitudeDegrees>42.9300295002758502960205078125</LatitudeDegrees>
              <LongitudeDegrees>-1.8270304240286350250244140625</LongitudeDegrees>
            </Position>
            <AltitudeMeters>492.20001220703125</AltitudeMeters>
            <DistanceMeters>NAN</DistanceMeters>
          </Trackpoint>
          <Trackpoint>
            <Time>2021-08-14T12:19:06.000Z</Time>
            <Position>
              <LatitudeDegrees>42.92998063378036022186279296875</LatitudeDegrees>
              <LongitudeDegrees>-1.82701307348906993865966796875</LongitudeDegrees>
            </Position>
            <AltitudeMeters>492.399993896484375</AltitudeMeters>
            <DistanceMeters>NAN</DistanceMeters>
          </Trackpoint>
          <Trackpoint>
            <Time>2021-08-14T12:19:07.000Z</Time>
            <Position>
              <LatitudeDegrees>42.92994291521608829498291015625</LatitudeDegrees>
              <LongitudeDegrees>-1.82701005600392818450927734375</LongitudeDegrees>
            </Position>
            <AltitudeMeters>492.399993896484375</AltitudeMeters>
            <DistanceMeters>NAN</DistanceMeters>
          </Trackpoint>
          <Trackpoint>
            <Time>2021-08-14T12:19:08.000Z</Time>
            <Position>
              <LatitudeDegrees>42.92991190217435359954833984375</LatitudeDegrees>
              <LongitudeDegrees>-1.8270052783191204071044921875</LongitudeDegrees>
            </Position>
            <AltitudeMeters>492.399993896484375</AltitudeMeters>
            <DistanceMeters>NAN</DistanceMeters>
          </Trackpoint>
          <Trackpoint>
            <Time>2021-08-14T12:19:09.000Z</Time>
            <Position>
              <LatitudeDegrees>42.92987854219973087310791015625</LatitudeDegrees>
              <LongitudeDegrees>-1.827005110681056976318359375</LongitudeDegrees>
            </Position>
            <AltitudeMeters>492.600006103515625</AltitudeMeters>
            <DistanceMeters>NAN</DistanceMeters>
          </Trackpoint>
          <Trackpoint>
            <Time>2021-08-14T12:19:10.000Z</Time>
            <Position>
              <LatitudeDegrees>42.92985155247151851654052734375</LatitudeDegrees>
              <LongitudeDegrees>-1.82700117118656635284423828125</LongitudeDegrees>
            </Position>
            <AltitudeMeters>492.79998779296875</AltitudeMeters>
            <DistanceMeters>NAN</DistanceMeters>
          </Trackpoint>
          <Trackpoint>
            <Time>2021-08-14T12:19:11.000Z</Time>
            <Position>
              <LatitudeDegrees>42.9298239760100841522216796875</LatitudeDegrees>
              <LongitudeDegrees>-1.82699329219758510589599609375</LongitudeDegrees>
            </Position>
            <AltitudeMeters>492.79998779296875</AltitudeMeters>
            <DistanceMeters>NAN</DistanceMeters>
          </Trackpoint>
          <Trackpoint>
            <Time>2021-08-14T12:19:12.000Z</Time>
            <Position>
              <LatitudeDegrees>42.9298025183379650115966796875</LatitudeDegrees>
              <LongitudeDegrees>-1.8269875086843967437744140625</LongitudeDegrees>
            </Position>
            <AltitudeMeters>493</AltitudeMeters>
            <DistanceMeters>NAN</DistanceMeters>
          </Trackpoint>
          <Trackpoint>
            <Time>2021-08-14T12:19:13.000Z</Time>
            <Position>
              <LatitudeDegrees>42.9297865927219390869140625</LatitudeDegrees>
              <LongitudeDegrees>-1.8269878439605236053466796875</LongitudeDegrees>
            </Position>
            <AltitudeMeters>493</AltitudeMeters>
            <DistanceMeters>NAN</DistanceMeters>
          </Trackpoint>
          <Trackpoint>
            <Time>2021-08-14T12:19:14.000Z</Time>
            <Position>
              <LatitudeDegrees>42.9297758638858795166015625</LatitudeDegrees>
              <LongitudeDegrees>-1.82698776014149188995361328125</LongitudeDegrees>
            </Position>
            <AltitudeMeters>493</AltitudeMeters>
            <DistanceMeters>NAN</DistanceMeters>
          </Trackpoint>
          <Trackpoint>
            <Time>2021-08-14T12:19:15.000Z</Time>
            <Position>
              <LatitudeDegrees>42.9297723434865474700927734375</LatitudeDegrees>
              <LongitudeDegrees>-1.82698910124599933624267578125</LongitudeDegrees>
            </Position>
            <AltitudeMeters>493.20001220703125</AltitudeMeters>
            <DistanceMeters>NAN</DistanceMeters>
          </Trackpoint>
          <Trackpoint>
            <Time>2021-08-14T12:19:17.000Z</Time>
            <Position>
              <LatitudeDegrees>42.9297723434865474700927734375</LatitudeDegrees>
              <LongitudeDegrees>-1.82698910124599933624267578125</LongitudeDegrees>
            </Position>
            <AltitudeMeters>493.20001220703125</AltitudeMeters>
            <DistanceMeters>NAN</DistanceMeters>
          </Trackpoint>
          <Trackpoint>
            <Time>2021-08-14T12:19:25.000Z</Time>
            <Position>
              <LatitudeDegrees>42.9297723434865474700927734375</LatitudeDegrees>
              <LongitudeDegrees>-1.82698910124599933624267578125</LongitudeDegrees>
            </Position>
            <AltitudeMeters>492.79998779296875</AltitudeMeters>
            <DistanceMeters>NAN</DistanceMeters>
          </Trackpoint>
          <Trackpoint>
            <Time>2021-08-14T12:19:28.000Z</Time>
            <Position>
              <LatitudeDegrees>42.9297723434865474700927734375</LatitudeDegrees>
              <LongitudeDegrees>-1.82698910124599933624267578125</LongitudeDegrees>
            </Position>
            <AltitudeMeters>492.600006103515625</AltitudeMeters>
            <DistanceMeters>NAN</DistanceMeters>
          </Trackpoint>
          <Trackpoint>
            <Time>2021-08-14T12:19:47.000Z</Time>
            <Position>
              <LatitudeDegrees>42.92975096963346004486083984375</LatitudeDegrees>
              <LongitudeDegrees>-1.82698541320860385894775390625</LongitudeDegrees>
            </Position>
            <AltitudeMeters>492.600006103515625</AltitudeMeters>
            <DistanceMeters>NAN</DistanceMeters>
          </Trackpoint>
          <Trackpoint>
            <Time>2021-08-14T12:19:48.000Z</Time>
            <Position>
              <LatitudeDegrees>42.929733283817768096923828125</LatitudeDegrees>
              <LongitudeDegrees>-1.8269888497889041900634765625</LongitudeDegrees>
            </Position>
            <AltitudeMeters>492.600006103515625</AltitudeMeters>
            <DistanceMeters>NAN</DistanceMeters>
          </Trackpoint>
          <Trackpoint>
            <Time>2021-08-14T12:19:49.000Z</Time>
            <Position>
              <LatitudeDegrees>42.92971660383045673370361328125</LatitudeDegrees>
              <LongitudeDegrees>-1.82699379511177539825439453125</LongitudeDegrees>
            </Position>
            <AltitudeMeters>492.600006103515625</AltitudeMeters>
            <DistanceMeters>NAN</DistanceMeters>
          </Trackpoint>
          <Trackpoint>
            <Time>2021-08-14T12:19:53.000Z</Time>
            <Position>
              <LatitudeDegrees>42.929565645754337310791015625</LatitudeDegrees>
              <LongitudeDegrees>-1.8270076252520084381103515625</LongitudeDegrees>
            </Position>
            <AltitudeMeters>492.600006103515625</AltitudeMeters>
            <DistanceMeters>NAN</DistanceMeters>
          </Trackpoint>
          <Trackpoint>
            <Time>2021-08-14T12:19:55.000Z</Time>
            <Position>
              <LatitudeDegrees>42.929537482559680938720703125</LatitudeDegrees>
              <LongitudeDegrees>-1.8270096369087696075439453125</LongitudeDegrees>
            </Position>
            <AltitudeMeters>492.600006103515625</AltitudeMeters>
            <DistanceMeters>NAN</DistanceMeters>
          </Trackpoint>
          <Trackpoint>
            <Time>2021-08-14T12:19:56.000Z</Time>
            <Position>
              <LatitudeDegrees>42.9295141808688640594482421875</LatitudeDegrees>
              <LongitudeDegrees>-1.8270175158977508544921875</LongitudeDegrees>
            </Position>
            <AltitudeMeters>492.79998779296875</AltitudeMeters>
            <DistanceMeters>NAN</DistanceMeters>
          </Trackpoint>
          <Trackpoint>
            <Time>2021-08-14T12:19:57.000Z</Time>
            <Position>
              <LatitudeDegrees>42.9294937290251255035400390625</LatitudeDegrees>
              <LongitudeDegrees>-1.8270250596106052398681640625</LongitudeDegrees>
            </Position>
            <AltitudeMeters>493</AltitudeMeters>
            <DistanceMeters>NAN</DistanceMeters>
          </Trackpoint>
          <Trackpoint>
            <Time>2021-08-14T12:19:58.000Z</Time>
            <Position>
              <LatitudeDegrees>42.92947369627654552459716796875</LatitudeDegrees>
              <LongitudeDegrees>-1.82703184895217418670654296875</LongitudeDegrees>
            </Position>
            <AltitudeMeters>493.20001220703125</AltitudeMeters>
            <DistanceMeters>NAN</DistanceMeters>
          </Trackpoint>
          <Trackpoint>
            <Time>2021-08-14T12:19:59.000Z</Time>
            <Position>
              <LatitudeDegrees>42.92945341207087039947509765625</LatitudeDegrees>
              <LongitudeDegrees>-1.82703888975083827972412109375</LongitudeDegrees>
            </Position>
            <AltitudeMeters>493.399993896484375</AltitudeMeters>
            <DistanceMeters>NAN</DistanceMeters>
          </Trackpoint>
          <Trackpoint>
            <Time>2021-08-14T12:20:49.000Z</Time>
            <Position>
              <LatitudeDegrees>42.92702098377048969268798828125</LatitudeDegrees>
              <LongitudeDegrees>-1.8273581564426422119140625</LongitudeDegrees>
            </Position>
            <AltitudeMeters>498</AltitudeMeters>
            <DistanceMeters>NAN</DistanceMeters>
          </Trackpoint>
          <Trackpoint>
            <Time>2021-08-14T12:20:50.000Z</Time>
            <Position>
              <LatitudeDegrees>42.92699147947132587432861328125</LatitudeDegrees>
              <LongitudeDegrees>-1.82735438458621501922607421875</LongitudeDegrees>
            </Position>
            <AltitudeMeters>498</AltitudeMeters>
            <DistanceMeters>NAN</DistanceMeters>
          </Trackpoint>
          <Trackpoint>
            <Time>2021-08-14T12:20:51.000Z</Time>
            <Position>
              <LatitudeDegrees>42.92695728130638599395751953125</LatitudeDegrees>
              <LongitudeDegrees>-1.82734407484531402587890625</LongitudeDegrees>
            </Position>
            <AltitudeMeters>497.79998779296875</AltitudeMeters>
            <DistanceMeters>NAN</DistanceMeters>
          </Trackpoint>
          <Trackpoint>
            <Time>2021-08-14T12:20:52.000Z</Time>
            <Position>
              <LatitudeDegrees>42.9269208200275897979736328125</LatitudeDegrees>
              <LongitudeDegrees>-1.82734449394047260284423828125</LongitudeDegrees>
            </Position>
            <AltitudeMeters>497.79998779296875</AltitudeMeters>
            <DistanceMeters>NAN</DistanceMeters>
          </Trackpoint>
          <Trackpoint>
            <Time>2021-08-14T12:20:53.000Z</Time>
            <Position>
              <LatitudeDegrees>42.92689391411840915679931640625</LatitudeDegrees>
              <LongitudeDegrees>-1.82734952308237552642822265625</LongitudeDegrees>
            </Position>
            <AltitudeMeters>497.79998779296875</AltitudeMeters>
            <DistanceMeters>NAN</DistanceMeters>
          </Trackpoint>
          <Trackpoint>
            <Time>2021-08-14T12:20:54.000Z</Time>
            <Position>
              <LatitudeDegrees>42.926868014037609100341796875</LatitudeDegrees>
              <LongitudeDegrees>-1.827370561659336090087890625</LongitudeDegrees>
            </Position>
            <AltitudeMeters>497.600006103515625</AltitudeMeters>
            <DistanceMeters>NAN</DistanceMeters>
          </Trackpoint>
          <Trackpoint>
            <Time>2021-08-14T12:20:55.000Z</Time>
            <Position>
              <LatitudeDegrees>42.9268522560596466064453125</LatitudeDegrees>
              <LongitudeDegrees>-1.82737081311643123626708984375</LongitudeDegrees>
            </Position>
            <AltitudeMeters>497.600006103515625</AltitudeMeters>
            <DistanceMeters>NAN</DistanceMeters>
          </Trackpoint>
          <Trackpoint>
            <Time>2021-08-14T12:20:56.000Z</Time>
            <Position>
              <LatitudeDegrees>42.92683809064328670501708984375</LatitudeDegrees>
              <LongitudeDegrees>-1.82736427523195743560791015625</LongitudeDegrees>
            </Position>
            <AltitudeMeters>497.600006103515625</AltitudeMeters>
            <DistanceMeters>NAN</DistanceMeters>
          </Trackpoint>
          <Trackpoint>
            <Time>2021-08-14T12:20:57.000Z</Time>
            <Position>
              <LatitudeDegrees>42.9268225841224193572998046875</LatitudeDegrees>
              <LongitudeDegrees>-1.8273690529167652130126953125</LongitudeDegrees>
            </Position>
            <AltitudeMeters>497.399993896484375</AltitudeMeters>
            <DistanceMeters>NAN</DistanceMeters>
          </Trackpoint>
          <Trackpoint>
            <Time>2021-08-14T12:20:58.000Z</Time>
            <Position>
              <LatitudeDegrees>42.9268066585063934326171875</LatitudeDegrees>
              <LongitudeDegrees>-1.82738363742828369140625</LongitudeDegrees>
            </Position>
            <AltitudeMeters>497.399993896484375</AltitudeMeters>
            <DistanceMeters>NAN</DistanceMeters>
          </Trackpoint>
          <Trackpoint>
            <Time>2021-08-14T12:20:59.000Z</Time>
            <Position>
              <LatitudeDegrees>42.9267846979200839996337890625</LatitudeDegrees>
              <LongitudeDegrees>-1.82739679701626300811767578125</LongitudeDegrees>
            </Position>
            <AltitudeMeters>497.399993896484375</AltitudeMeters>
            <DistanceMeters>NAN</DistanceMeters>
          </Trackpoint>
          <Trackpoint>
            <Time>2021-08-14T12:21:00.000Z</Time>
            <Position>
              <LatitudeDegrees>42.92676977813243865966796875</LatitudeDegrees>
              <LongitudeDegrees>-1.82741104625165462493896484375</LongitudeDegrees>
            </Position>
            <AltitudeMeters>497.20001220703125</AltitudeMeters>
            <DistanceMeters>NAN</DistanceMeters>
          </Trackpoint>
          <Trackpoint>
            <Time>2021-08-14T12:21:01.000Z</Time>
            <Position>
              <LatitudeDegrees>42.92674672789871692657470703125</LatitudeDegrees>
              <LongitudeDegrees>-1.82743837125599384307861328125</LongitudeDegrees>
            </Position>
            <AltitudeMeters>497.20001220703125</AltitudeMeters>
            <DistanceMeters>NAN</DistanceMeters>
          </Trackpoint>
          <Trackpoint>
            <Time>2021-08-14T12:21:02.000Z</Time>
            <Position>
              <LatitudeDegrees>42.92671118862926959991455078125</LatitudeDegrees>
              <LongitudeDegrees>-1.82746401987969875335693359375</LongitudeDegrees>
            </Position>
            <AltitudeMeters>497.20001220703125</AltitudeMeters>
            <DistanceMeters>NAN</DistanceMeters>
          </Trackpoint>
          <Trackpoint>
            <Time>2021-08-14T12:21:03.000Z</Time>
            <Position>
              <LatitudeDegrees>42.92667799629271030426025390625</LatitudeDegrees>
              <LongitudeDegrees>-1.8274750001728534698486328125</LongitudeDegrees>
            </Position>
            <AltitudeMeters>497</AltitudeMeters>
            <DistanceMeters>NAN</DistanceMeters>
          </Trackpoint>
          <Trackpoint>
            <Time>2021-08-14T12:21:04.000Z</Time>
            <Position>
              <LatitudeDegrees>42.92664664797484874725341796875</LatitudeDegrees>
              <LongitudeDegrees>-1.82747961021959781646728515625</LongitudeDegrees>
            </Position>
            <AltitudeMeters>497</AltitudeMeters>
            <DistanceMeters>NAN</DistanceMeters>
          </Trackpoint>
          <Trackpoint>
            <Time>2021-08-14T12:21:05.000Z</Time>
            <Position>
              <LatitudeDegrees>42.9266147129237651824951171875</LatitudeDegrees>
              <LongitudeDegrees>-1.82748480699956417083740234375</LongitudeDegrees>
            </Position>
            <AltitudeMeters>497</AltitudeMeters>
            <DistanceMeters>NAN</DistanceMeters>
          </Trackpoint>
          <Trackpoint>
            <Time>2021-08-14T12:21:06.000Z</Time>
            <Position>
              <LatitudeDegrees>42.92657858692109584808349609375</LatitudeDegrees>
              <LongitudeDegrees>-1.82749302126467227935791015625</LongitudeDegrees>
            </Position>
            <AltitudeMeters>497</AltitudeMeters>
            <DistanceMeters>NAN</DistanceMeters>
          </Trackpoint>
          <Trackpoint>
            <Time>2021-08-14T12:21:07.000Z</Time>
            <Position>
              <LatitudeDegrees>42.9265409521758556365966796875</LatitudeDegrees>
              <LongitudeDegrees>-1.8274977989494800567626953125</LongitudeDegrees>
            </Position>
            <AltitudeMeters>496.79998779296875</AltitudeMeters>
            <DistanceMeters>NAN</DistanceMeters>
          </Trackpoint>
          <Trackpoint>
            <Time>2021-08-14T12:21:08.000Z</Time>
            <Position>
              <LatitudeDegrees>42.9265013895928859710693359375</LatitudeDegrees>
              <LongitudeDegrees>-1.827500648796558380126953125</LongitudeDegrees>
            </Position>
            <AltitudeMeters>496.600006103515625</AltitudeMeters>
            <DistanceMeters>NAN</DistanceMeters>
          </Trackpoint>
          <Trackpoint>
            <Time>2021-08-14T12:21:09.000Z</Time>
            <Position>
              <LatitudeDegrees>42.926464341580867767333984375</LatitudeDegrees>
              <LongitudeDegrees>-1.82750743813812732696533203125</LongitudeDegrees>
            </Position>
            <AltitudeMeters>496.79998779296875</AltitudeMeters>
            <DistanceMeters>NAN</DistanceMeters>
          </Trackpoint>
          <Trackpoint>
            <Time>2021-08-14T12:21:10.000Z</Time>
            <Position>
              <LatitudeDegrees>42.92642972432076930999755859375</LatitudeDegrees>
              <LongitudeDegrees>-1.8275165744125843048095703125</LongitudeDegrees>
            </Position>
            <AltitudeMeters>496.600006103515625</AltitudeMeters>
            <DistanceMeters>NAN</DistanceMeters>
          </Trackpoint>
          <Trackpoint>
            <Time>2021-08-14T12:21:11.000Z</Time>
            <Position>
              <LatitudeDegrees>42.926395274698734283447265625</LatitudeDegrees>
              <LongitudeDegrees>-1.8275239504873752593994140625</LongitudeDegrees>
            </Position>
            <AltitudeMeters>496.600006103515625</AltitudeMeters>
            <DistanceMeters>NAN</DistanceMeters>
          </Trackpoint>
          <Trackpoint>
            <Time>2021-08-14T12:21:13.000Z</Time>
            <Position>
              <LatitudeDegrees>42.92632520198822021484375</LatitudeDegrees>
              <LongitudeDegrees>-1.82753308676183223724365234375</LongitudeDegrees>
            </Position>
            <AltitudeMeters>496.600006103515625</AltitudeMeters>
            <DistanceMeters>NAN</DistanceMeters>
          </Trackpoint>
          <Trackpoint>
            <Time>2021-08-14T12:21:16.000Z</Time>
            <Position>
              <LatitudeDegrees>42.92620408348739147186279296875</LatitudeDegrees>
              <LongitudeDegrees>-1.82756326161324977874755859375</LongitudeDegrees>
            </Position>
            <AltitudeMeters>496.20001220703125</AltitudeMeters>
            <DistanceMeters>NAN</DistanceMeters>
          </Trackpoint>
          <Trackpoint>
            <Time>2021-08-14T12:21:20.000Z</Time>
            <Position>
              <LatitudeDegrees>42.92603309266269207000732421875</LatitudeDegrees>
              <LongitudeDegrees>-1.82761774398386478424072265625</LongitudeDegrees>
            </Position>
            <AltitudeMeters>495.79998779296875</AltitudeMeters>
            <DistanceMeters>NAN</DistanceMeters>
          </Trackpoint>
          <Trackpoint>
            <Time>2021-08-14T12:21:25.000Z</Time>
            <Position>
              <LatitudeDegrees>42.925773672759532928466796875</LatitudeDegrees>
              <LongitudeDegrees>-1.8277231045067310333251953125</LongitudeDegrees>
            </Position>
            <AltitudeMeters>495</AltitudeMeters>
            <DistanceMeters>NAN</DistanceMeters>
          </Trackpoint>
          <Trackpoint>
            <Time>2021-08-14T12:21:27.000Z</Time>
            <Position>
              <LatitudeDegrees>42.92566445656120777130126953125</LatitudeDegrees>
              <LongitudeDegrees>-1.82777934707701206207275390625</LongitudeDegrees>
            </Position>
            <AltitudeMeters>494.79998779296875</AltitudeMeters>
            <DistanceMeters>NAN</DistanceMeters>
          </Trackpoint>
          <Trackpoint>
            <Time>2021-08-14T12:21:31.000Z</Time>
            <Position>
              <LatitudeDegrees>42.9254285059869289398193359375</LatitudeDegrees>
              <LongitudeDegrees>-1.8279712088406085968017578125</LongitudeDegrees>
            </Position>
            <AltitudeMeters>493.79998779296875</AltitudeMeters>
            <DistanceMeters>NAN</DistanceMeters>
          </Trackpoint>
          <Trackpoint>
            <Time>2021-08-14T12:21:32.000Z</Time>
            <Position>
              <LatitudeDegrees>42.92536589317023754119873046875</LatitudeDegrees>
              <LongitudeDegrees>-1.828029043972492218017578125</LongitudeDegrees>
            </Position>
            <AltitudeMeters>493.600006103515625</AltitudeMeters>
            <DistanceMeters>NAN</DistanceMeters>
          </Trackpoint>
          <Trackpoint>
            <Time>2021-08-14T12:21:35.000Z</Time>
            <Position>
              <LatitudeDegrees>42.92519624345004558563232421875</LatitudeDegrees>
              <LongitudeDegrees>-1.8282139487564563751220703125</LongitudeDegrees>
            </Position>
            <AltitudeMeters>492.20001220703125</AltitudeMeters>
            <DistanceMeters>NAN</DistanceMeters>
          </Trackpoint>
          <Trackpoint>
            <Time>2021-08-14T12:21:38.000Z</Time>
            <Position>
              <LatitudeDegrees>42.925001867115497589111328125</LatitudeDegrees>
              <LongitudeDegrees>-1.8284793198108673095703125</LongitudeDegrees>
            </Position>
            <AltitudeMeters>491</AltitudeMeters>
            <DistanceMeters>NAN</DistanceMeters>
          </Trackpoint>
          <Trackpoint>
            <Time>2021-08-14T12:21:41.000Z</Time>
            <Position>
              <LatitudeDegrees>42.924835570156574249267578125</LatitudeDegrees>
              <LongitudeDegrees>-1.8287369795143604278564453125</LongitudeDegrees>
            </Position>
            <AltitudeMeters>489.600006103515625</AltitudeMeters>
            <DistanceMeters>NAN</DistanceMeters>
          </Trackpoint>
          <Trackpoint>
            <Time>2021-08-14T12:21:43.000Z</Time>
            <Position>
              <LatitudeDegrees>42.92470405809581279754638671875</LatitudeDegrees>
              <LongitudeDegrees>-1.82895096950232982635498046875</LongitudeDegrees>
            </Position>
            <AltitudeMeters>489.20001220703125</AltitudeMeters>
            <DistanceMeters>NAN</DistanceMeters>
          </Trackpoint>
          <Trackpoint>
            <Time>2021-08-14T12:21:44.000Z</Time>
            <Position>
              <LatitudeDegrees>42.92465619742870330810546875</LatitudeDegrees>
              <LongitudeDegrees>-1.82903814129531383514404296875</LongitudeDegrees>
            </Position>
            <AltitudeMeters>488.79998779296875</AltitudeMeters>
            <DistanceMeters>NAN</DistanceMeters>
          </Trackpoint>
          <Trackpoint>
            <Time>2021-08-14T12:21:47.000Z</Time>
            <Position>
              <LatitudeDegrees>42.924464084208011627197265625</LatitudeDegrees>
              <LongitudeDegrees>-1.829400993883609771728515625</LongitudeDegrees>
            </Position>
            <AltitudeMeters>487.600006103515625</AltitudeMeters>
            <DistanceMeters>NAN</DistanceMeters>
          </Trackpoint>
          <Trackpoint>
            <Time>2021-08-14T12:21:49.000Z</Time>
            <Position>
              <LatitudeDegrees>42.92436107061803340911865234375</LatitudeDegrees>
              <LongitudeDegrees>-1.82962797582149505615234375</LongitudeDegrees>
            </Position>
            <AltitudeMeters>486</AltitudeMeters>
            <DistanceMeters>NAN</DistanceMeters>
          </Trackpoint>
          <Trackpoint>
            <Time>2021-08-14T12:21:50.000Z</Time>
            <Position>
              <LatitudeDegrees>42.92430591769516468048095703125</LatitudeDegrees>
              <LongitudeDegrees>-1.8297619186341762542724609375</LongitudeDegrees>
            </Position>
            <AltitudeMeters>485.399993896484375</AltitudeMeters>
            <DistanceMeters>NAN</DistanceMeters>
          </Trackpoint>
          <Trackpoint>
            <Time>2021-08-14T12:21:51.000Z</Time>
            <Position>
              <LatitudeDegrees>42.9242516867816448211669921875</LatitudeDegrees>
              <LongitudeDegrees>-1.82989913038909435272216796875</LongitudeDegrees>
            </Position>
            <AltitudeMeters>484.399993896484375</AltitudeMeters>
            <DistanceMeters>NAN</DistanceMeters>
          </Trackpoint>
          <Trackpoint>
            <Time>2021-08-14T12:21:53.000Z</Time>
            <Position>
              <LatitudeDegrees>42.92415319941937923431396484375</LatitudeDegrees>
              <LongitudeDegrees>-1.83016818948090076446533203125</LongitudeDegrees>
            </Position>
            <AltitudeMeters>482.79998779296875</AltitudeMeters>
            <DistanceMeters>NAN</DistanceMeters>
          </Trackpoint>
          <Trackpoint>
            <Time>2021-08-14T12:21:54.000Z</Time>
            <Position>
              <LatitudeDegrees>42.92410500347614288330078125</LatitudeDegrees>
              <LongitudeDegrees>-1.83030280284583568572998046875</LongitudeDegrees>
            </Position>
            <AltitudeMeters>482.20001220703125</AltitudeMeters>
            <DistanceMeters>NAN</DistanceMeters>
          </Trackpoint>
          <Trackpoint>
            <Time>2021-08-14T12:21:55.000Z</Time>
            <Position>
              <LatitudeDegrees>42.9240582324564456939697265625</LatitudeDegrees>
              <LongitudeDegrees>-1.8304361589252948760986328125</LongitudeDegrees>
            </Position>
            <AltitudeMeters>480.79998779296875</AltitudeMeters>
            <DistanceMeters>NAN</DistanceMeters>
          </Trackpoint>
          <Trackpoint>
            <Time>2021-08-14T12:21:57.000Z</Time>
            <Position>
              <LatitudeDegrees>42.92396561242640018463134765625</LatitudeDegrees>
              <LongitudeDegrees>-1.83068702928721904754638671875</LongitudeDegrees>
            </Position>
            <AltitudeMeters>479.20001220703125</AltitudeMeters>
            <DistanceMeters>NAN</DistanceMeters>
          </Trackpoint>
          <Trackpoint>
            <Time>2021-08-14T12:21:58.000Z</Time>
            <Position>
              <LatitudeDegrees>42.92392018251121044158935546875</LatitudeDegrees>
              <LongitudeDegrees>-1.83080856688320636749267578125</LongitudeDegrees>
            </Position>
            <AltitudeMeters>478</AltitudeMeters>
            <DistanceMeters>NAN</DistanceMeters>
          </Trackpoint>
          <Trackpoint>
            <Time>2021-08-14T12:21:59.000Z</Time>
            <Position>
              <LatitudeDegrees>42.9238728247582912445068359375</LatitudeDegrees>
              <LongitudeDegrees>-1.83092884719371795654296875</LongitudeDegrees>
            </Position>
            <AltitudeMeters>477.20001220703125</AltitudeMeters>
            <DistanceMeters>NAN</DistanceMeters>
          </Trackpoint>
          <Trackpoint>
            <Time>2021-08-14T12:22:00.000Z</Time>
            <Position>
              <LatitudeDegrees>42.92382429353892803192138671875</LatitudeDegrees>
              <LongitudeDegrees>-1.831048540771007537841796875</LongitudeDegrees>
            </Position>
            <AltitudeMeters>475.79998779296875</AltitudeMeters>
            <DistanceMeters>NAN</DistanceMeters>
          </Trackpoint>
          <Trackpoint>
            <Time>2021-08-14T12:22:01.000Z</Time>
            <Position>
              <LatitudeDegrees>42.92377777397632598876953125</LatitudeDegrees>
              <LongitudeDegrees>-1.83116580359637737274169921875</LongitudeDegrees>
            </Position>
            <AltitudeMeters>475</AltitudeMeters>
            <DistanceMeters>NAN</DistanceMeters>
          </Trackpoint>
          <Trackpoint>
            <Time>2021-08-14T12:22:02.000Z</Time>
            <Position>
              <LatitudeDegrees>42.9237320087850093841552734375</LatitudeDegrees>
              <LongitudeDegrees>-1.83127476833760738372802734375</LongitudeDegrees>
            </Position>
            <AltitudeMeters>473.79998779296875</AltitudeMeters>
            <DistanceMeters>NAN</DistanceMeters>
          </Trackpoint>
          <Trackpoint>
            <Time>2021-08-14T12:22:03.000Z</Time>
            <Position>
              <LatitudeDegrees>42.92368481867015361785888671875</LatitudeDegrees>
              <LongitudeDegrees>-1.8313732556998729705810546875</LongitudeDegrees>
            </Position>
            <AltitudeMeters>473.20001220703125</AltitudeMeters>
            <DistanceMeters>NAN</DistanceMeters>
          </Trackpoint>
          <Trackpoint>
            <Time>2021-08-14T12:22:04.000Z</Time>
            <Position>
              <LatitudeDegrees>42.92362882755696773529052734375</LatitudeDegrees>
              <LongitudeDegrees>-1.83146185241639614105224609375</LongitudeDegrees>
            </Position>
            <AltitudeMeters>471.79998779296875</AltitudeMeters>
            <DistanceMeters>NAN</DistanceMeters>
          </Trackpoint>
          <Trackpoint>
            <Time>2021-08-14T12:22:05.000Z</Time>
            <Position>
              <LatitudeDegrees>42.92356529273092746734619140625</LatitudeDegrees>
              <LongitudeDegrees>-1.83153075166046619415283203125</LongitudeDegrees>
            </Position>
            <AltitudeMeters>471.20001220703125</AltitudeMeters>
            <DistanceMeters>NAN</DistanceMeters>
          </Trackpoint>
          <Trackpoint>
            <Time>2021-08-14T12:22:06.000Z</Time>
            <Position>
              <LatitudeDegrees>42.92349237017333507537841796875</LatitudeDegrees>
              <LongitudeDegrees>-1.83156721293926239013671875</LongitudeDegrees>
            </Position>
            <AltitudeMeters>469.79998779296875</AltitudeMeters>
            <DistanceMeters>NAN</DistanceMeters>
          </Trackpoint>
          <Trackpoint>
            <Time>2021-08-14T12:22:07.000Z</Time>
            <Position>
              <LatitudeDegrees>42.9234077967703342437744140625</LatitudeDegrees>
              <LongitudeDegrees>-1.8315797857940196990966796875</LongitudeDegrees>
            </Position>
            <AltitudeMeters>468.600006103515625</AltitudeMeters>
            <DistanceMeters>NAN</DistanceMeters>
          </Trackpoint>
          <Trackpoint>
            <Time>2021-08-14T12:22:08.000Z</Time>
            <Position>
              <LatitudeDegrees>42.9233172722160816192626953125</LatitudeDegrees>
              <LongitudeDegrees>-1.83157903142273426055908203125</LongitudeDegrees>
            </Position>
            <AltitudeMeters>467.79998779296875</AltitudeMeters>
            <DistanceMeters>NAN</DistanceMeters>
          </Trackpoint>
          <Trackpoint>
            <Time>2021-08-14T12:22:09.000Z</Time>
            <Position>
              <LatitudeDegrees>42.9232267476618289947509765625</LatitudeDegrees>
              <LongitudeDegrees>-1.83157081715762615203857421875</LongitudeDegrees>
            </Position>
            <AltitudeMeters>466.600006103515625</AltitudeMeters>
            <DistanceMeters>NAN</DistanceMeters>
          </Trackpoint>
          <Trackpoint>
            <Time>2021-08-14T12:22:10.000Z</Time>
            <Position>
              <LatitudeDegrees>42.9231213033199310302734375</LatitudeDegrees>
              <LongitudeDegrees>-1.83155338279902935028076171875</LongitudeDegrees>
            </Position>
            <AltitudeMeters>466</AltitudeMeters>
            <DistanceMeters>NAN</DistanceMeters>
          </Trackpoint>
          <Trackpoint>
            <Time>2021-08-14T12:22:11.000Z</Time>
            <Position>
              <LatitudeDegrees>42.92304108850657939910888671875</LatitudeDegrees>
              <LongitudeDegrees>-1.8315318413078784942626953125</LongitudeDegrees>
            </Position>
            <AltitudeMeters>465.20001220703125</AltitudeMeters>
            <DistanceMeters>NAN</DistanceMeters>
          </Trackpoint>
          <Trackpoint>
            <Time>2021-08-14T12:22:12.000Z</Time>
            <Position>
              <LatitudeDegrees>42.922966741025447845458984375</LatitudeDegrees>
              <LongitudeDegrees>-1.83150728233158588409423828125</LongitudeDegrees>
            </Position>
            <AltitudeMeters>464.600006103515625</AltitudeMeters>
            <DistanceMeters>NAN</DistanceMeters>
          </Trackpoint>
          <Trackpoint>
            <Time>2021-08-14T12:22:13.000Z</Time>
            <Position>
              <LatitudeDegrees>42.92290982790291309356689453125</LatitudeDegrees>
              <LongitudeDegrees>-1.831487752497196197509765625</LongitudeDegrees>
            </Position>
            <AltitudeMeters>464</AltitudeMeters>
            <DistanceMeters>NAN</DistanceMeters>
          </Trackpoint>
          <Trackpoint>
            <Time>2021-08-14T12:22:14.000Z</Time>
            <Position>
              <LatitudeDegrees>42.92284310795366764068603515625</LatitudeDegrees>
              <LongitudeDegrees>-1.83146126568317413330078125</LongitudeDegrees>
            </Position>
            <AltitudeMeters>463.79998779296875</AltitudeMeters>
            <DistanceMeters>NAN</DistanceMeters>
          </Trackpoint>
          <Trackpoint>
            <Time>2021-08-14T12:22:15.000Z</Time>
            <Position>
              <LatitudeDegrees>42.92276783846318721771240234375</LatitudeDegrees>
              <LongitudeDegrees>-1.8314225412905216217041015625</LongitudeDegrees>
            </Position>
            <AltitudeMeters>463.600006103515625</AltitudeMeters>
            <DistanceMeters>NAN</DistanceMeters>
          </Trackpoint>
          <Trackpoint>
            <Time>2021-08-14T12:22:16.000Z</Time>
            <Position>
              <LatitudeDegrees>42.92270598001778125762939453125</LatitudeDegrees>
              <LongitudeDegrees>-1.83138960041105747222900390625</LongitudeDegrees>
            </Position>
            <AltitudeMeters>463.600006103515625</AltitudeMeters>
            <DistanceMeters>NAN</DistanceMeters>
          </Trackpoint>
          <Trackpoint>
            <Time>2021-08-14T12:22:17.000Z</Time>
            <Position>
              <LatitudeDegrees>42.92264454066753387451171875</LatitudeDegrees>
              <LongitudeDegrees>-1.83136177249252796173095703125</LongitudeDegrees>
            </Position>
            <AltitudeMeters>463.600006103515625</AltitudeMeters>
            <DistanceMeters>NAN</DistanceMeters>
          </Trackpoint>
          <Trackpoint>
            <Time>2021-08-14T12:22:18.000Z</Time>
            <Position>
              <LatitudeDegrees>42.9225830174982547760009765625</LatitudeDegrees>
              <LongitudeDegrees>-1.83133780024945735931396484375</LongitudeDegrees>
            </Position>
            <AltitudeMeters>463.399993896484375</AltitudeMeters>
            <DistanceMeters>NAN</DistanceMeters>
          </Trackpoint>
          <Trackpoint>
            <Time>2021-08-14T12:22:20.000Z</Time>
            <Position>
              <LatitudeDegrees>42.92246173135936260223388671875</LatitudeDegrees>
              <LongitudeDegrees>-1.8312951363623142242431640625</LongitudeDegrees>
            </Position>
            <AltitudeMeters>463.600006103515625</AltitudeMeters>
            <DistanceMeters>NAN</DistanceMeters>
          </Trackpoint>
          <Trackpoint>
            <Time>2021-08-14T12:22:21.000Z</Time>
            <Position>
              <LatitudeDegrees>42.9224106855690479278564453125</LatitudeDegrees>
              <LongitudeDegrees>-1.8312795460224151611328125</LongitudeDegrees>
            </Position>
            <AltitudeMeters>463.600006103515625</AltitudeMeters>
            <DistanceMeters>NAN</DistanceMeters>
          </Trackpoint>
          <Trackpoint>
            <Time>2021-08-14T12:22:22.000Z</Time>
            <Position>
              <LatitudeDegrees>42.92234824039041996002197265625</LatitudeDegrees>
              <LongitudeDegrees>-1.8312565796077251434326171875</LongitudeDegrees>
            </Position>
            <AltitudeMeters>463.600006103515625</AltitudeMeters>
            <DistanceMeters>NAN</DistanceMeters>
          </Trackpoint>
          <Trackpoint>
            <Time>2021-08-14T12:22:23.000Z</Time>
            <Position>
              <LatitudeDegrees>42.9222879745066165924072265625</LatitudeDegrees>
              <LongitudeDegrees>-1.83122749440371990203857421875</LongitudeDegrees>
            </Position>
            <AltitudeMeters>463.600006103515625</AltitudeMeters>
            <DistanceMeters>NAN</DistanceMeters>
          </Trackpoint>
          <Trackpoint>
            <Time>2021-08-14T12:22:24.000Z</Time>
            <Position>
              <LatitudeDegrees>42.92221832089126110076904296875</LatitudeDegrees>
              <LongitudeDegrees>-1.8311885185539722442626953125</LongitudeDegrees>
            </Position>
            <AltitudeMeters>463.79998779296875</AltitudeMeters>
            <DistanceMeters>NAN</DistanceMeters>
          </Trackpoint>
          <Trackpoint>
            <Time>2021-08-14T12:22:25.000Z</Time>
            <Position>
              <LatitudeDegrees>42.92216501198709011077880859375</LatitudeDegrees>
              <LongitudeDegrees>-1.8311561644077301025390625</LongitudeDegrees>
            </Position>
            <AltitudeMeters>463.79998779296875</AltitudeMeters>
            <DistanceMeters>NAN</DistanceMeters>
          </Trackpoint>
          <Trackpoint>
            <Time>2021-08-14T12:22:26.000Z</Time>
            <Position>
              <LatitudeDegrees>42.92212494648993015289306640625</LatitudeDegrees>
              <LongitudeDegrees>-1.83113009668886661529541015625</LongitudeDegrees>
            </Position>
            <AltitudeMeters>463.79998779296875</AltitudeMeters>
            <DistanceMeters>NAN</DistanceMeters>
          </Trackpoint>
          <Trackpoint>
            <Time>2021-08-14T12:22:27.000Z</Time>
            <Position>
              <LatitudeDegrees>42.92207649908959865570068359375</LatitudeDegrees>
              <LongitudeDegrees>-1.831098496913909912109375</LongitudeDegrees>
            </Position>
            <AltitudeMeters>463.79998779296875</AltitudeMeters>
            <DistanceMeters>NAN</DistanceMeters>
          </Trackpoint>
          <Trackpoint>
            <Time>2021-08-14T12:22:28.000Z</Time>
            <Position>
              <LatitudeDegrees>42.9220334999263286590576171875</LatitudeDegrees>
              <LongitudeDegrees>-1.83107125572860240936279296875</LongitudeDegrees>
            </Position>
            <AltitudeMeters>464</AltitudeMeters>
            <DistanceMeters>NAN</DistanceMeters>
          </Trackpoint>
          <Trackpoint>
            <Time>2021-08-14T12:22:29.000Z</Time>
            <Position>
              <LatitudeDegrees>42.921982705593109130859375</LatitudeDegrees>
              <LongitudeDegrees>-1.83105264790356159210205078125</LongitudeDegrees>
            </Position>
            <AltitudeMeters>464</AltitudeMeters>
            <DistanceMeters>NAN</DistanceMeters>
          </Trackpoint>
          <Trackpoint>
            <Time>2021-08-14T12:22:30.000Z</Time>
            <Position>
              <LatitudeDegrees>42.9219456575810909271240234375</LatitudeDegrees>
              <LongitudeDegrees>-1.8310574255883693695068359375</LongitudeDegrees>
            </Position>
            <AltitudeMeters>464.20001220703125</AltitudeMeters>
            <DistanceMeters>NAN</DistanceMeters>
          </Trackpoint>
          <Trackpoint>
            <Time>2021-08-14T12:22:31.000Z</Time>
            <Position>
              <LatitudeDegrees>42.92191003449261188507080078125</LatitudeDegrees>
              <LongitudeDegrees>-1.831077374517917633056640625</LongitudeDegrees>
            </Position>
            <AltitudeMeters>464.399993896484375</AltitudeMeters>
            <DistanceMeters>NAN</DistanceMeters>
          </Trackpoint>
          <Trackpoint>
            <Time>2021-08-14T12:22:32.000Z</Time>
            <Position>
              <LatitudeDegrees>42.9218853078782558441162109375</LatitudeDegrees>
              <LongitudeDegrees>-1.83110377751290798187255859375</LongitudeDegrees>
            </Position>
            <AltitudeMeters>464.600006103515625</AltitudeMeters>
            <DistanceMeters>NAN</DistanceMeters>
          </Trackpoint>
          <Trackpoint>
            <Time>2021-08-14T12:22:33.000Z</Time>
            <Position>
              <LatitudeDegrees>42.92185999453067779541015625</LatitudeDegrees>
              <LongitudeDegrees>-1.83114049024879932403564453125</LongitudeDegrees>
            </Position>
            <AltitudeMeters>464.600006103515625</AltitudeMeters>
            <DistanceMeters>NAN</DistanceMeters>
          </Trackpoint>
          <Trackpoint>
            <Time>2021-08-14T12:22:34.000Z</Time>
            <Position>
              <LatitudeDegrees>42.92183761484920978546142578125</LatitudeDegrees>
              <LongitudeDegrees>-1.8312139995396137237548828125</LongitudeDegrees>
            </Position>
            <AltitudeMeters>464.600006103515625</AltitudeMeters>
            <DistanceMeters>NAN</DistanceMeters>
          </Trackpoint>
          <Trackpoint>
            <Time>2021-08-14T12:22:35.000Z</Time>
            <Position>
              <LatitudeDegrees>42.921828813850879669189453125</LatitudeDegrees>
              <LongitudeDegrees>-1.83127242140471935272216796875</LongitudeDegrees>
            </Position>
            <AltitudeMeters>464.600006103515625</AltitudeMeters>
            <DistanceMeters>NAN</DistanceMeters>
          </Trackpoint>
          <Trackpoint>
            <Time>2021-08-14T12:22:36.000Z</Time>
            <Position>
              <LatitudeDegrees>42.92181842029094696044921875</LatitudeDegrees>
              <LongitudeDegrees>-1.83134735561907291412353515625</LongitudeDegrees>
            </Position>
            <AltitudeMeters>464.600006103515625</AltitudeMeters>
            <DistanceMeters>NAN</DistanceMeters>
          </Trackpoint>
          <Trackpoint>
            <Time>2021-08-14T12:22:42.000Z</Time>
            <Position>
              <LatitudeDegrees>42.9217827133834362030029296875</LatitudeDegrees>
              <LongitudeDegrees>-1.83182646520435810089111328125</LongitudeDegrees>
            </Position>
            <AltitudeMeters>464</AltitudeMeters>
            <DistanceMeters>NAN</DistanceMeters>
          </Trackpoint>
          <Trackpoint>
            <Time>2021-08-14T12:22:45.000Z</Time>
            <Position>
              <LatitudeDegrees>42.92176133953034877777099609375</LatitudeDegrees>
              <LongitudeDegrees>-1.83208479546010494232177734375</LongitudeDegrees>
            </Position>
            <AltitudeMeters>463</AltitudeMeters>
            <DistanceMeters>NAN</DistanceMeters>
          </Trackpoint>
          <Trackpoint>
            <Time>2021-08-14T12:22:48.000Z</Time>
            <Position>
              <LatitudeDegrees>42.9217346012592315673828125</LatitudeDegrees>
              <LongitudeDegrees>-1.83236307464540004730224609375</LongitudeDegrees>
            </Position>
            <AltitudeMeters>462</AltitudeMeters>
            <DistanceMeters>NAN</DistanceMeters>
          </Trackpoint>
          <Trackpoint>
            <Time>2021-08-14T12:22:49.000Z</Time>
            <Position>
              <LatitudeDegrees>42.9217190109193325042724609375</LatitudeDegrees>
              <LongitudeDegrees>-1.83244002051651477813720703125</LongitudeDegrees>
            </Position>
            <AltitudeMeters>461.600006103515625</AltitudeMeters>
            <DistanceMeters>NAN</DistanceMeters>
          </Trackpoint>
          <Trackpoint>
            <Time>2021-08-14T12:22:51.000Z</Time>
            <Position>
              <LatitudeDegrees>42.92163510806858539581298828125</LatitudeDegrees>
              <LongitudeDegrees>-1.83252803049981594085693359375</LongitudeDegrees>
            </Position>
            <AltitudeMeters>461.399993896484375</AltitudeMeters>
            <DistanceMeters>NAN</DistanceMeters>
          </Trackpoint>
          <Trackpoint>
            <Time>2021-08-14T12:22:53.000Z</Time>
            <Position>
              <LatitudeDegrees>42.9214940406382083892822265625</LatitudeDegrees>
              <LongitudeDegrees>-1.832535155117511749267578125</LongitudeDegrees>
            </Position>
            <AltitudeMeters>461</AltitudeMeters>
            <DistanceMeters>NAN</DistanceMeters>
          </Trackpoint>
          <Trackpoint>
            <Time>2021-08-14T12:22:55.000Z</Time>
            <Position>
              <LatitudeDegrees>42.92137811891734600067138671875</LatitudeDegrees>
              <LongitudeDegrees>-1.83251277543604373931884765625</LongitudeDegrees>
            </Position>
            <AltitudeMeters>460.79998779296875</AltitudeMeters>
            <DistanceMeters>NAN</DistanceMeters>
          </Trackpoint>
          <Trackpoint>
            <Time>2021-08-14T12:22:56.000Z</Time>
            <Position>
              <LatitudeDegrees>42.92132246308028697967529296875</LatitudeDegrees>
              <LongitudeDegrees>-1.8325028009712696075439453125</LongitudeDegrees>
            </Position>
            <AltitudeMeters>460.79998779296875</AltitudeMeters>
            <DistanceMeters>NAN</DistanceMeters>
          </Trackpoint>
          <Trackpoint>
            <Time>2021-08-14T12:22:58.000Z</Time>
            <Position>
              <LatitudeDegrees>42.92117242701351642608642578125</LatitudeDegrees>
              <LongitudeDegrees>-1.83247379958629608154296875</LongitudeDegrees>
            </Position>
            <AltitudeMeters>460.79998779296875</AltitudeMeters>
            <DistanceMeters>NAN</DistanceMeters>
          </Trackpoint>
          <Trackpoint>
            <Time>2021-08-14T12:23:01.000Z</Time>
            <Position>
              <LatitudeDegrees>42.9209934733808040618896484375</LatitudeDegrees>
              <LongitudeDegrees>-1.83242945931851863861083984375</LongitudeDegrees>
            </Position>
            <AltitudeMeters>460.79998779296875</AltitudeMeters>
            <DistanceMeters>NAN</DistanceMeters>
          </Trackpoint>
          <Trackpoint>
            <Time>2021-08-14T12:23:02.000Z</Time>
            <Position>
              <LatitudeDegrees>42.9209381528198719024658203125</LatitudeDegrees>
              <LongitudeDegrees>-1.8324226699769496917724609375</LongitudeDegrees>
            </Position>
            <AltitudeMeters>460.79998779296875</AltitudeMeters>
            <DistanceMeters>NAN</DistanceMeters>
          </Trackpoint>
          <Trackpoint>
            <Time>2021-08-14T12:23:03.000Z</Time>
            <Position>
              <LatitudeDegrees>42.92089305818080902099609375</LatitudeDegrees>
              <LongitudeDegrees>-1.8324156291782855987548828125</LongitudeDegrees>
            </Position>
            <AltitudeMeters>460.79998779296875</AltitudeMeters>
            <DistanceMeters>NAN</DistanceMeters>
          </Trackpoint>
          <Trackpoint>
            <Time>2021-08-14T12:23:04.000Z</Time>
            <Position>
              <LatitudeDegrees>42.92083815671503543853759765625</LatitudeDegrees>
              <LongitudeDegrees>-1.83240330778062343597412109375</LongitudeDegrees>
            </Position>
            <AltitudeMeters>460.79998779296875</AltitudeMeters>
            <DistanceMeters>NAN</DistanceMeters>
          </Trackpoint>
          <Trackpoint>
            <Time>2021-08-14T12:23:05.000Z</Time>
            <Position>
              <LatitudeDegrees>42.9207849316298961639404296875</LatitudeDegrees>
              <LongitudeDegrees>-1.8323874659836292266845703125</LongitudeDegrees>
            </Position>
            <AltitudeMeters>461</AltitudeMeters>
            <DistanceMeters>NAN</DistanceMeters>
          </Trackpoint>
          <Trackpoint>
            <Time>2021-08-14T12:23:06.000Z</Time>
            <Position>
              <LatitudeDegrees>42.92072751559317111968994140625</LatitudeDegrees>
              <LongitudeDegrees>-1.832373552024364471435546875</LongitudeDegrees>
            </Position>
            <AltitudeMeters>461</AltitudeMeters>
            <DistanceMeters>NAN</DistanceMeters>
          </Trackpoint>
          <Trackpoint>
            <Time>2021-08-14T12:23:07.000Z</Time>
            <Position>
              <LatitudeDegrees>42.920671440660953521728515625</LatitudeDegrees>
              <LongitudeDegrees>-1.8323629908263683319091796875</LongitudeDegrees>
            </Position>
            <AltitudeMeters>461.20001220703125</AltitudeMeters>
            <DistanceMeters>NAN</DistanceMeters>
          </Trackpoint>
          <Trackpoint>
            <Time>2021-08-14T12:23:08.000Z</Time>
            <Position>
              <LatitudeDegrees>42.92061000131070613861083984375</LatitudeDegrees>
              <LongitudeDegrees>-1.83235578238964080810546875</LongitudeDegrees>
            </Position>
            <AltitudeMeters>461.20001220703125</AltitudeMeters>
            <DistanceMeters>NAN</DistanceMeters>
          </Trackpoint>
          <Trackpoint>
            <Time>2021-08-14T12:23:09.000Z</Time>
            <Position>
              <LatitudeDegrees>42.920556776225566864013671875</LatitudeDegrees>
              <LongitudeDegrees>-1.83234748430550098419189453125</LongitudeDegrees>
            </Position>
            <AltitudeMeters>461.20001220703125</AltitudeMeters>
            <DistanceMeters>NAN</DistanceMeters>
          </Trackpoint>
          <Trackpoint>
            <Time>2021-08-14T12:23:10.000Z</Time>
            <Position>
              <LatitudeDegrees>42.9205061495304107666015625</LatitudeDegrees>
              <LongitudeDegrees>-1.8323348276317119598388671875</LongitudeDegrees>
            </Position>
            <AltitudeMeters>461.399993896484375</AltitudeMeters>
            <DistanceMeters>NAN</DistanceMeters>
          </Trackpoint>
          <Trackpoint>
            <Time>2021-08-14T12:23:12.000Z</Time>
            <Position>
              <LatitudeDegrees>42.920389808714389801025390625</LatitudeDegrees>
              <LongitudeDegrees>-1.83231026865541934967041015625</LongitudeDegrees>
            </Position>
            <AltitudeMeters>461.399993896484375</AltitudeMeters>
            <DistanceMeters>NAN</DistanceMeters>
          </Trackpoint>
          <Trackpoint>
            <Time>2021-08-14T12:23:13.000Z</Time>
            <Position>
              <LatitudeDegrees>42.9203383438289165496826171875</LatitudeDegrees>
              <LongitudeDegrees>-1.83230155147612094879150390625</LongitudeDegrees>
            </Position>
            <AltitudeMeters>461.399993896484375</AltitudeMeters>
            <DistanceMeters>NAN</DistanceMeters>
          </Trackpoint>
          <Trackpoint>
            <Time>2021-08-14T12:23:14.000Z</Time>
            <Position>
              <LatitudeDegrees>42.92029685340821743011474609375</LatitudeDegrees>
              <LongitudeDegrees>-1.83229283429682254791259765625</LongitudeDegrees>
            </Position>
            <AltitudeMeters>461.399993896484375</AltitudeMeters>
            <DistanceMeters>NAN</DistanceMeters>
          </Trackpoint>
          <Trackpoint>
            <Time>2021-08-14T12:23:15.000Z</Time>
            <Position>
              <LatitudeDegrees>42.92023449204862117767333984375</LatitudeDegrees>
              <LongitudeDegrees>-1.8322798423469066619873046875</LongitudeDegrees>
            </Position>
            <AltitudeMeters>461.600006103515625</AltitudeMeters>
            <DistanceMeters>NAN</DistanceMeters>
          </Trackpoint>
          <Trackpoint>
            <Time>2021-08-14T12:23:16.000Z</Time>
            <Position>
              <LatitudeDegrees>42.9201847873628139495849609375</LatitudeDegrees>
              <LongitudeDegrees>-1.83226919732987880706787109375</LongitudeDegrees>
            </Position>
            <AltitudeMeters>461.600006103515625</AltitudeMeters>
            <DistanceMeters>NAN</DistanceMeters>
          </Trackpoint>
          <Trackpoint>
            <Time>2021-08-14T12:23:18.000Z</Time>
            <Position>
              <LatitudeDegrees>42.9200872220098972320556640625</LatitudeDegrees>
              <LongitudeDegrees>-1.83225595392286777496337890625</LongitudeDegrees>
            </Position>
            <AltitudeMeters>461.399993896484375</AltitudeMeters>
            <DistanceMeters>NAN</DistanceMeters>
          </Trackpoint>
          <Trackpoint>
            <Time>2021-08-14T12:23:19.000Z</Time>
            <Position>
              <LatitudeDegrees>42.9200469888746738433837890625</LatitudeDegrees>
              <LongitudeDegrees>-1.8322506733238697052001953125</LongitudeDegrees>
            </Position>
            <AltitudeMeters>461.399993896484375</AltitudeMeters>
            <DistanceMeters>NAN</DistanceMeters>
          </Trackpoint>
          <Trackpoint>
            <Time>2021-08-14T12:23:20.000Z</Time>
            <Position>
              <LatitudeDegrees>42.91999678127467632293701171875</LatitudeDegrees>
              <LongitudeDegrees>-1.83224438689649105072021484375</LongitudeDegrees>
            </Position>
            <AltitudeMeters>461.399993896484375</AltitudeMeters>
            <DistanceMeters>NAN</DistanceMeters>
          </Trackpoint>
          <Trackpoint>
            <Time>2021-08-14T12:23:21.000Z</Time>
            <Position>
              <LatitudeDegrees>42.9199375212192535400390625</LatitudeDegrees>
              <LongitudeDegrees>-1.83223684318363666534423828125</LongitudeDegrees>
            </Position>
            <AltitudeMeters>461.399993896484375</AltitudeMeters>
            <DistanceMeters>NAN</DistanceMeters>
          </Trackpoint>
          <Trackpoint>
            <Time>2021-08-14T12:23:22.000Z</Time>
            <Position>
              <LatitudeDegrees>42.9198974557220935821533203125</LatitudeDegrees>
              <LongitudeDegrees>-1.8322275392711162567138671875</LongitudeDegrees>
            </Position>
            <AltitudeMeters>461.399993896484375</AltitudeMeters>
            <DistanceMeters>NAN</DistanceMeters>
          </Trackpoint>
          <Trackpoint>
            <Time>2021-08-14T12:23:23.000Z</Time>
            <Position>
              <LatitudeDegrees>42.9198431409895420074462890625</LatitudeDegrees>
              <LongitudeDegrees>-1.832219325006008148193359375</LongitudeDegrees>
            </Position>
            <AltitudeMeters>461.399993896484375</AltitudeMeters>
            <DistanceMeters>NAN</DistanceMeters>
          </Trackpoint>
          <Trackpoint>
            <Time>2021-08-14T12:23:27.000Z</Time>
            <Position>
              <LatitudeDegrees>42.9195606708526611328125</LatitudeDegrees>
              <LongitudeDegrees>-1.83218412101268768310546875</LongitudeDegrees>
            </Position>
            <AltitudeMeters>461.399993896484375</AltitudeMeters>
            <DistanceMeters>NAN</DistanceMeters>
          </Trackpoint>
          <Trackpoint>
            <Time>2021-08-14T12:23:31.000Z</Time>
            <Position>
              <LatitudeDegrees>42.9192198626697063446044921875</LatitudeDegrees>
              <LongitudeDegrees>-1.832122094929218292236328125</LongitudeDegrees>
            </Position>
            <AltitudeMeters>461.600006103515625</AltitudeMeters>
            <DistanceMeters>NAN</DistanceMeters>
          </Trackpoint>
          <Trackpoint>
            <Time>2021-08-14T12:23:32.000Z</Time>
            <Position>
              <LatitudeDegrees>42.91916571557521820068359375</LatitudeDegrees>
              <LongitudeDegrees>-1.8321138806641101837158203125</LongitudeDegrees>
            </Position>
            <AltitudeMeters>461.79998779296875</AltitudeMeters>
            <DistanceMeters>NAN</DistanceMeters>
          </Trackpoint>
          <Trackpoint>
            <Time>2021-08-14T12:23:33.000Z</Time>
            <Position>
              <LatitudeDegrees>42.91910528205335140228271484375</LatitudeDegrees>
              <LongitudeDegrees>-1.8321034871041774749755859375</LongitudeDegrees>
            </Position>
            <AltitudeMeters>462</AltitudeMeters>
            <DistanceMeters>NAN</DistanceMeters>
          </Trackpoint>
          <Trackpoint>
            <Time>2021-08-14T12:23:34.000Z</Time>
            <Position>
              <LatitudeDegrees>42.919048704206943511962890625</LatitudeDegrees>
              <LongitudeDegrees>-1.83209166862070560455322265625</LongitudeDegrees>
            </Position>
            <AltitudeMeters>462</AltitudeMeters>
            <DistanceMeters>NAN</DistanceMeters>
          </Trackpoint>
          <Trackpoint>
            <Time>2021-08-14T12:23:35.000Z</Time>
            <Position>
              <LatitudeDegrees>42.9190190322697162628173828125</LatitudeDegrees>
              <LongitudeDegrees>-1.83207959868013858795166015625</LongitudeDegrees>
            </Position>
            <AltitudeMeters>462</AltitudeMeters>
            <DistanceMeters>NAN</DistanceMeters>
          </Trackpoint>
          <Trackpoint>
            <Time>2021-08-14T12:23:36.000Z</Time>
            <Position>
              <LatitudeDegrees>42.919002436101436614990234375</LatitudeDegrees>
              <LongitudeDegrees>-1.83206719346344470977783203125</LongitudeDegrees>
            </Position>
            <AltitudeMeters>462</AltitudeMeters>
            <DistanceMeters>NAN</DistanceMeters>
          </Trackpoint>
          <Trackpoint>
            <Time>2021-08-14T12:23:37.000Z</Time>
            <Position>
              <LatitudeDegrees>42.91899447329342365264892578125</LatitudeDegrees>
              <LongitudeDegrees>-1.83206032030284404754638671875</LongitudeDegrees>
            </Position>
            <AltitudeMeters>462</AltitudeMeters>
            <DistanceMeters>NAN</DistanceMeters>
          </Trackpoint>
          <Trackpoint>
            <Time>2021-08-14T12:23:38.000Z</Time>
            <Position>
              <LatitudeDegrees>42.918990366160869598388671875</LatitudeDegrees>
              <LongitudeDegrees>-1.8320555426180362701416015625</LongitudeDegrees>
            </Position>
            <AltitudeMeters>462</AltitudeMeters>
            <DistanceMeters>NAN</DistanceMeters>
          </Trackpoint>
          <Trackpoint>
            <Time>2021-08-14T12:23:39.000Z</Time>
            <Position>
              <LatitudeDegrees>42.91898776777088642120361328125</LatitudeDegrees>
              <LongitudeDegrees>-1.832053363323211669921875</LongitudeDegrees>
            </Position>
            <AltitudeMeters>462</AltitudeMeters>
            <DistanceMeters>NAN</DistanceMeters>
          </Trackpoint>
          <Trackpoint>
            <Time>2021-08-14T12:23:41.000Z</Time>
            <Position>
              <LatitudeDegrees>42.91898776777088642120361328125</LatitudeDegrees>
              <LongitudeDegrees>-1.832053363323211669921875</LongitudeDegrees>
            </Position>
            <AltitudeMeters>462</AltitudeMeters>
            <DistanceMeters>NAN</DistanceMeters>
          </Trackpoint>
        </Track>
      </Lap>
    </Activity>
  </Activities>
</TrainingCenterDatabase>
